﻿_id	﻿cod_depto	departamento	cod_mun	municipio	cod_estacion	estacion	cod_mes	mes	fecha	hora	cod_parametro	parametro	Valor
1	7	Sololá	701	Sololá	2	El tablón	11	Noviembre	2023-03-11T00:00:00	2024-11-08T17:00:00	6	Velocidad del viento	19.3
2	7	Sololá	701	Sololá	2	El tablón	11	Noviembre	2023-03-11T00:00:00	2024-11-08T17:00:00	7	Dirección del viento	19.31
3	7	Sololá	701	Sololá	2	El tablón	11	Noviembre	2023-03-11T00:00:00	2024-11-08T17:00:00	1	Precipitación	0
4	7	Sololá	701	Sololá	2	El tablón	11	Noviembre	2023-03-11T00:00:00	2024-11-08T17:00:00	8	Radiación solar	114
5	7	Sololá	701	Sololá	2	El tablón	11	Noviembre	2023-03-11T00:00:00	2024-11-08T18:00:00	2	Temperatura media	12.8
6	7	Sololá	701	Sololá	2	El tablón	11	Noviembre	2023-03-11T00:00:00	2024-11-08T18:00:00	4	Temperatura máxima	13.7
7	7	Sololá	701	Sololá	2	El tablón	11	Noviembre	2023-03-11T00:00:00	2024-11-08T18:00:00	3	Temperatura mínima	12.8
8	7	Sololá	701	Sololá	2	El tablón	11	Noviembre	2023-03-11T00:00:00	2024-11-08T18:00:00	5	Humedad	82
9	7	Sololá	701	Sololá	2	El tablón	11	Noviembre	2023-03-11T00:00:00	2024-11-08T18:00:00	6	Velocidad del viento	19.3
10	7	Sololá	701	Sololá	2	El tablón	11	Noviembre	2023-03-11T00:00:00	2024-11-08T18:00:00	7	Dirección del viento	19.31
11	7	Sololá	701	Sololá	2	El tablón	11	Noviembre	2023-03-11T00:00:00	2024-11-08T18:00:00	1	Precipitación	0
12	7	Sololá	701	Sololá	2	El tablón	11	Noviembre	2023-03-11T00:00:00	2024-11-08T18:00:00	8	Radiación solar	19
13	7	Sololá	701	Sololá	2	El tablón	11	Noviembre	2023-03-11T00:00:00	2024-11-08T19:00:00	2	Temperatura media	12.7
14	7	Sololá	701	Sololá	2	El tablón	11	Noviembre	2023-03-11T00:00:00	2024-11-08T19:00:00	4	Temperatura máxima	12.9
15	7	Sololá	701	Sololá	2	El tablón	11	Noviembre	2023-03-11T00:00:00	2024-11-08T19:00:00	3	Temperatura mínima	12.7
16	7	Sololá	701	Sololá	2	El tablón	11	Noviembre	2023-03-11T00:00:00	2024-11-08T19:00:00	5	Humedad	82
17	7	Sololá	701	Sololá	2	El tablón	11	Noviembre	2023-03-11T00:00:00	2024-11-08T19:00:00	6	Velocidad del viento	17.7
18	7	Sololá	701	Sololá	2	El tablón	11	Noviembre	2023-03-11T00:00:00	2024-11-08T19:00:00	7	Dirección del viento	17.7
19	7	Sololá	701	Sololá	2	El tablón	11	Noviembre	2023-03-11T00:00:00	2024-11-08T19:00:00	1	Precipitación	0
20	7	Sololá	701	Sololá	2	El tablón	11	Noviembre	2023-03-11T00:00:00	2024-11-08T19:00:00	8	Radiación solar	0
21	7	Sololá	701	Sololá	2	El tablón	11	Noviembre	2023-03-11T00:00:00	2024-11-08T20:00:00	2	Temperatura media	13.4
22	7	Sololá	701	Sololá	2	El tablón	11	Noviembre	2023-03-11T00:00:00	2024-11-08T20:00:00	4	Temperatura máxima	13.4
23	7	Sololá	701	Sololá	2	El tablón	11	Noviembre	2023-03-11T00:00:00	2024-11-08T20:00:00	3	Temperatura mínima	12.7
24	7	Sololá	701	Sololá	2	El tablón	11	Noviembre	2023-03-11T00:00:00	2024-11-08T20:00:00	5	Humedad	79
25	7	Sololá	701	Sololá	2	El tablón	11	Noviembre	2023-03-11T00:00:00	2024-11-08T20:00:00	6	Velocidad del viento	20.9
26	7	Sololá	701	Sololá	2	El tablón	11	Noviembre	2023-03-11T00:00:00	2024-11-08T20:00:00	7	Dirección del viento	20.92
27	7	Sololá	701	Sololá	2	El tablón	11	Noviembre	2023-03-11T00:00:00	2024-11-08T20:00:00	1	Precipitación	0
28	7	Sololá	701	Sololá	2	El tablón	11	Noviembre	2023-03-11T00:00:00	2024-11-08T20:00:00	8	Radiación solar	0
29	7	Sololá	701	Sololá	2	El tablón	11	Noviembre	2023-03-11T00:00:00	2024-11-08T21:00:00	2	Temperatura media	13.7
30	7	Sololá	701	Sololá	2	El tablón	11	Noviembre	2023-03-11T00:00:00	2024-11-08T21:00:00	4	Temperatura máxima	13.7
31	7	Sololá	701	Sololá	2	El tablón	11	Noviembre	2023-03-11T00:00:00	2024-11-08T21:00:00	3	Temperatura mínima	13.4
32	7	Sololá	701	Sololá	2	El tablón	11	Noviembre	2023-03-11T00:00:00	2024-11-08T21:00:00	5	Humedad	78
33	7	Sololá	701	Sololá	2	El tablón	11	Noviembre	2023-03-11T00:00:00	2024-11-08T21:00:00	6	Velocidad del viento	24.1
34	7	Sololá	701	Sololá	2	El tablón	11	Noviembre	2023-03-11T00:00:00	2024-11-08T21:00:00	7	Dirección del viento	24.14
35	7	Sololá	701	Sololá	2	El tablón	11	Noviembre	2023-03-11T00:00:00	2024-11-08T21:00:00	1	Precipitación	0
36	7	Sololá	701	Sololá	2	El tablón	11	Noviembre	2023-03-11T00:00:00	2024-11-08T21:00:00	8	Radiación solar	0
37	7	Sololá	701	Sololá	2	El tablón	11	Noviembre	2023-03-11T00:00:00	2024-11-08T22:00:00	2	Temperatura media	12.4
38	7	Sololá	701	Sololá	2	El tablón	11	Noviembre	2023-03-11T00:00:00	2024-11-08T22:00:00	4	Temperatura máxima	13.7
39	7	Sololá	701	Sololá	2	El tablón	11	Noviembre	2023-03-11T00:00:00	2024-11-08T22:00:00	3	Temperatura mínima	12.4
40	7	Sololá	701	Sololá	2	El tablón	11	Noviembre	2023-03-11T00:00:00	2024-11-08T22:00:00	5	Humedad	86
41	7	Sololá	701	Sololá	2	El tablón	11	Noviembre	2023-03-11T00:00:00	2024-11-08T22:00:00	6	Velocidad del viento	24.1
42	7	Sololá	701	Sololá	2	El tablón	11	Noviembre	2023-03-11T00:00:00	2024-11-08T22:00:00	7	Dirección del viento	24.14
43	7	Sololá	701	Sololá	2	El tablón	11	Noviembre	2023-03-11T00:00:00	2024-11-08T22:00:00	1	Precipitación	0
44	7	Sololá	701	Sololá	2	El tablón	11	Noviembre	2023-03-11T00:00:00	2024-11-08T22:00:00	8	Radiación solar	0
45	7	Sololá	701	Sololá	2	El tablón	11	Noviembre	2023-03-11T00:00:00	2024-11-08T23:00:00	2	Temperatura media	12.9
46	7	Sololá	701	Sololá	2	El tablón	11	Noviembre	2023-03-11T00:00:00	2024-11-08T23:00:00	4	Temperatura máxima	13.1
47	7	Sololá	701	Sololá	2	El tablón	11	Noviembre	2023-03-11T00:00:00	2024-11-08T23:00:00	3	Temperatura mínima	12.4
48	7	Sololá	701	Sololá	2	El tablón	11	Noviembre	2023-03-11T00:00:00	2024-11-08T23:00:00	5	Humedad	86
49	7	Sololá	701	Sololá	2	El tablón	11	Noviembre	2023-03-11T00:00:00	2024-11-08T23:00:00	6	Velocidad del viento	24.1
50	7	Sololá	701	Sololá	2	El tablón	11	Noviembre	2023-03-11T00:00:00	2024-11-08T23:00:00	7	Dirección del viento	24.14
51	7	Sololá	701	Sololá	2	El tablón	11	Noviembre	2023-03-11T00:00:00	2024-11-08T23:00:00	1	Precipitación	0
52	7	Sololá	701	Sololá	2	El tablón	11	Noviembre	2023-03-11T00:00:00	2024-11-08T23:00:00	8	Radiación solar	0
53	7	Sololá	701	Sololá	2	El tablón	11	Noviembre	2023-04-11T00:00:00	2024-11-08T00:00:00	2	Temperatura media	13.3
54	7	Sololá	701	Sololá	2	El tablón	11	Noviembre	2023-04-11T00:00:00	2024-11-08T00:00:00	4	Temperatura máxima	13.3
55	7	Sololá	701	Sololá	2	El tablón	11	Noviembre	2023-04-11T00:00:00	2024-11-08T00:00:00	3	Temperatura mínima	12.9
56	7	Sololá	701	Sololá	2	El tablón	11	Noviembre	2023-04-11T00:00:00	2024-11-08T00:00:00	5	Humedad	86
57	7	Sololá	701	Sololá	2	El tablón	11	Noviembre	2023-04-11T00:00:00	2024-11-08T00:00:00	6	Velocidad del viento	12.9
58	7	Sololá	701	Sololá	2	El tablón	11	Noviembre	2023-04-11T00:00:00	2024-11-08T00:00:00	7	Dirección del viento	12.87
59	7	Sololá	701	Sololá	2	El tablón	11	Noviembre	2023-04-11T00:00:00	2024-11-08T00:00:00	1	Precipitación	0
60	7	Sololá	701	Sololá	2	El tablón	11	Noviembre	2023-04-11T00:00:00	2024-11-08T00:00:00	8	Radiación solar	0
61	7	Sololá	701	Sololá	2	El tablón	11	Noviembre	2023-04-11T00:00:00	2024-11-08T01:00:00	2	Temperatura media	13.4
62	7	Sololá	701	Sololá	2	El tablón	11	Noviembre	2023-04-11T00:00:00	2024-11-08T01:00:00	4	Temperatura máxima	13.4
63	7	Sololá	701	Sololá	2	El tablón	11	Noviembre	2023-04-11T00:00:00	2024-11-08T01:00:00	3	Temperatura mínima	13
64	7	Sololá	701	Sololá	2	El tablón	11	Noviembre	2023-04-11T00:00:00	2024-11-08T01:00:00	5	Humedad	86
65	7	Sololá	701	Sololá	2	El tablón	11	Noviembre	2023-04-11T00:00:00	2024-11-08T01:00:00	6	Velocidad del viento	19.3
66	7	Sololá	701	Sololá	2	El tablón	11	Noviembre	2023-04-11T00:00:00	2024-11-08T01:00:00	7	Dirección del viento	19.31
67	7	Sololá	701	Sololá	2	El tablón	11	Noviembre	2023-04-11T00:00:00	2024-11-08T01:00:00	1	Precipitación	0
68	7	Sololá	701	Sololá	2	El tablón	11	Noviembre	2023-04-11T00:00:00	2024-11-08T01:00:00	8	Radiación solar	0
69	7	Sololá	701	Sololá	2	El tablón	11	Noviembre	2023-04-11T00:00:00	2024-11-08T02:00:00	2	Temperatura media	13.2
70	7	Sololá	701	Sololá	2	El tablón	11	Noviembre	2023-04-11T00:00:00	2024-11-08T02:00:00	4	Temperatura máxima	13.6
71	7	Sololá	701	Sololá	2	El tablón	11	Noviembre	2023-04-11T00:00:00	2024-11-08T02:00:00	3	Temperatura mínima	13.2
72	7	Sololá	701	Sololá	2	El tablón	11	Noviembre	2023-04-11T00:00:00	2024-11-08T02:00:00	5	Humedad	85
73	7	Sololá	701	Sololá	2	El tablón	11	Noviembre	2023-04-11T00:00:00	2024-11-08T02:00:00	6	Velocidad del viento	16.1
74	7	Sololá	701	Sololá	2	El tablón	11	Noviembre	2023-04-11T00:00:00	2024-11-08T02:00:00	7	Dirección del viento	16.09
75	7	Sololá	701	Sololá	2	El tablón	11	Noviembre	2023-04-11T00:00:00	2024-11-08T02:00:00	1	Precipitación	0
76	7	Sololá	701	Sololá	2	El tablón	11	Noviembre	2023-04-11T00:00:00	2024-11-08T02:00:00	8	Radiación solar	0
77	7	Sololá	701	Sololá	2	El tablón	11	Noviembre	2023-04-11T00:00:00	2024-11-08T03:00:00	2	Temperatura media	13
78	7	Sololá	701	Sololá	2	El tablón	11	Noviembre	2023-04-11T00:00:00	2024-11-08T03:00:00	4	Temperatura máxima	13.2
79	7	Sololá	701	Sololá	2	El tablón	11	Noviembre	2023-04-11T00:00:00	2024-11-08T03:00:00	3	Temperatura mínima	12.9
80	7	Sololá	701	Sololá	2	El tablón	11	Noviembre	2023-04-11T00:00:00	2024-11-08T03:00:00	5	Humedad	87
81	7	Sololá	701	Sololá	2	El tablón	11	Noviembre	2023-04-11T00:00:00	2024-11-08T03:00:00	6	Velocidad del viento	14.5
82	7	Sololá	701	Sololá	2	El tablón	11	Noviembre	2023-04-11T00:00:00	2024-11-08T03:00:00	7	Dirección del viento	14.48
83	7	Sololá	701	Sololá	2	El tablón	11	Noviembre	2023-04-11T00:00:00	2024-11-08T03:00:00	1	Precipitación	0
84	7	Sololá	701	Sololá	2	El tablón	11	Noviembre	2023-04-11T00:00:00	2024-11-08T03:00:00	8	Radiación solar	0
85	7	Sololá	701	Sololá	2	El tablón	11	Noviembre	2023-04-11T00:00:00	2024-11-08T04:00:00	2	Temperatura media	13.2
86	7	Sololá	701	Sololá	2	El tablón	11	Noviembre	2023-04-11T00:00:00	2024-11-08T04:00:00	4	Temperatura máxima	13.2
87	7	Sololá	701	Sololá	2	El tablón	11	Noviembre	2023-04-11T00:00:00	2024-11-08T04:00:00	3	Temperatura mínima	12.9
88	7	Sololá	701	Sololá	2	El tablón	11	Noviembre	2023-04-11T00:00:00	2024-11-08T04:00:00	5	Humedad	86
89	7	Sololá	701	Sololá	2	El tablón	11	Noviembre	2023-04-11T00:00:00	2024-11-08T04:00:00	6	Velocidad del viento	16.1
90	7	Sololá	701	Sololá	2	El tablón	11	Noviembre	2023-04-11T00:00:00	2024-11-08T04:00:00	7	Dirección del viento	16.09
91	7	Sololá	701	Sololá	2	El tablón	11	Noviembre	2023-04-11T00:00:00	2024-11-08T04:00:00	1	Precipitación	0
92	7	Sololá	701	Sololá	2	El tablón	11	Noviembre	2023-04-11T00:00:00	2024-11-08T04:00:00	8	Radiación solar	0
93	7	Sololá	701	Sololá	2	El tablón	11	Noviembre	2023-04-11T00:00:00	2024-11-08T05:00:00	2	Temperatura media	13.3
94	7	Sololá	701	Sololá	2	El tablón	11	Noviembre	2023-04-11T00:00:00	2024-11-08T05:00:00	4	Temperatura máxima	13.4
95	7	Sololá	701	Sololá	2	El tablón	11	Noviembre	2023-04-11T00:00:00	2024-11-08T05:00:00	3	Temperatura mínima	13.1
96	7	Sololá	701	Sololá	2	El tablón	11	Noviembre	2023-04-11T00:00:00	2024-11-08T05:00:00	5	Humedad	87
97	7	Sololá	701	Sololá	2	El tablón	11	Noviembre	2023-04-11T00:00:00	2024-11-08T05:00:00	6	Velocidad del viento	17.7
98	7	Sololá	701	Sololá	2	El tablón	11	Noviembre	2023-04-11T00:00:00	2024-11-08T05:00:00	7	Dirección del viento	17.7
99	7	Sololá	701	Sololá	2	El tablón	11	Noviembre	2023-04-11T00:00:00	2024-11-08T05:00:00	1	Precipitación	0
100	7	Sololá	701	Sololá	2	El tablón	11	Noviembre	2023-04-11T00:00:00	2024-11-08T05:00:00	8	Radiación solar	0
101	7	Sololá	701	Sololá	2	El tablón	11	Noviembre	2023-04-11T00:00:00	2024-11-08T06:00:00	2	Temperatura media	13.2
102	7	Sololá	701	Sololá	2	El tablón	11	Noviembre	2023-04-11T00:00:00	2024-11-08T06:00:00	4	Temperatura máxima	13.3
103	7	Sololá	701	Sololá	2	El tablón	11	Noviembre	2023-04-11T00:00:00	2024-11-08T06:00:00	3	Temperatura mínima	12.9
104	7	Sololá	701	Sololá	2	El tablón	11	Noviembre	2023-04-11T00:00:00	2024-11-08T06:00:00	5	Humedad	88
105	7	Sololá	701	Sololá	2	El tablón	11	Noviembre	2023-04-11T00:00:00	2024-11-08T06:00:00	6	Velocidad del viento	20.9
106	7	Sololá	701	Sololá	2	El tablón	11	Noviembre	2023-04-11T00:00:00	2024-11-08T06:00:00	7	Dirección del viento	20.92
107	7	Sololá	701	Sololá	2	El tablón	11	Noviembre	2023-04-11T00:00:00	2024-11-08T06:00:00	1	Precipitación	0
108	7	Sololá	701	Sololá	2	El tablón	11	Noviembre	2023-04-11T00:00:00	2024-11-08T06:00:00	8	Radiación solar	0
109	7	Sololá	701	Sololá	2	El tablón	11	Noviembre	2023-04-11T00:00:00	2024-11-08T07:00:00	2	Temperatura media	13.9
110	7	Sololá	701	Sololá	2	El tablón	11	Noviembre	2023-04-11T00:00:00	2024-11-08T07:00:00	4	Temperatura máxima	13.9
111	7	Sololá	701	Sololá	2	El tablón	11	Noviembre	2023-04-11T00:00:00	2024-11-08T07:00:00	3	Temperatura mínima	13.2
112	7	Sololá	701	Sololá	2	El tablón	11	Noviembre	2023-04-11T00:00:00	2024-11-08T07:00:00	5	Humedad	87
113	7	Sololá	701	Sololá	2	El tablón	11	Noviembre	2023-04-11T00:00:00	2024-11-08T07:00:00	6	Velocidad del viento	14.5
114	7	Sololá	701	Sololá	2	El tablón	11	Noviembre	2023-04-11T00:00:00	2024-11-08T07:00:00	7	Dirección del viento	14.48
115	7	Sololá	701	Sololá	2	El tablón	11	Noviembre	2023-04-11T00:00:00	2024-11-08T07:00:00	1	Precipitación	0
116	7	Sololá	701	Sololá	2	El tablón	11	Noviembre	2023-04-11T00:00:00	2024-11-08T07:00:00	8	Radiación solar	47
117	7	Sololá	701	Sololá	2	El tablón	11	Noviembre	2023-04-11T00:00:00	2024-11-08T08:00:00	2	Temperatura media	14.3
118	7	Sololá	701	Sololá	2	El tablón	11	Noviembre	2023-04-11T00:00:00	2024-11-08T08:00:00	4	Temperatura máxima	14.4
119	7	Sololá	701	Sololá	2	El tablón	11	Noviembre	2023-04-11T00:00:00	2024-11-08T08:00:00	3	Temperatura mínima	13.9
120	7	Sololá	701	Sololá	2	El tablón	11	Noviembre	2023-04-11T00:00:00	2024-11-08T08:00:00	5	Humedad	87
121	7	Sololá	701	Sololá	2	El tablón	11	Noviembre	2023-04-11T00:00:00	2024-11-08T08:00:00	6	Velocidad del viento	24.1
122	7	Sololá	701	Sololá	2	El tablón	11	Noviembre	2023-04-11T00:00:00	2024-11-08T08:00:00	7	Dirección del viento	24.14
123	7	Sololá	701	Sololá	2	El tablón	11	Noviembre	2023-04-11T00:00:00	2024-11-08T08:00:00	1	Precipitación	0
124	7	Sololá	701	Sololá	2	El tablón	11	Noviembre	2023-04-11T00:00:00	2024-11-08T08:00:00	8	Radiación solar	139
125	7	Sololá	701	Sololá	2	El tablón	11	Noviembre	2023-04-11T00:00:00	2024-11-08T09:00:00	2	Temperatura media	14.4
126	7	Sololá	701	Sololá	2	El tablón	11	Noviembre	2023-04-11T00:00:00	2024-11-08T09:00:00	4	Temperatura máxima	14.5
127	7	Sololá	701	Sololá	2	El tablón	11	Noviembre	2023-04-11T00:00:00	2024-11-08T09:00:00	3	Temperatura mínima	14.3
128	7	Sololá	701	Sololá	2	El tablón	11	Noviembre	2023-04-11T00:00:00	2024-11-08T09:00:00	5	Humedad	87
129	7	Sololá	701	Sololá	2	El tablón	11	Noviembre	2023-04-11T00:00:00	2024-11-08T09:00:00	6	Velocidad del viento	20.9
130	7	Sololá	701	Sololá	2	El tablón	11	Noviembre	2023-04-11T00:00:00	2024-11-08T09:00:00	7	Dirección del viento	20.92
131	7	Sololá	701	Sololá	2	El tablón	11	Noviembre	2023-04-11T00:00:00	2024-11-08T09:00:00	1	Precipitación	0
132	7	Sololá	701	Sololá	2	El tablón	11	Noviembre	2023-04-11T00:00:00	2024-11-08T09:00:00	8	Radiación solar	203
133	7	Sololá	701	Sololá	2	El tablón	11	Noviembre	2023-04-11T00:00:00	2024-11-08T10:00:00	2	Temperatura media	14.2
134	7	Sololá	701	Sololá	2	El tablón	11	Noviembre	2023-04-11T00:00:00	2024-11-08T10:00:00	4	Temperatura máxima	14.5
135	7	Sololá	701	Sololá	2	El tablón	11	Noviembre	2023-04-11T00:00:00	2024-11-08T10:00:00	3	Temperatura mínima	14
136	7	Sololá	701	Sololá	2	El tablón	11	Noviembre	2023-04-11T00:00:00	2024-11-08T10:00:00	5	Humedad	89
137	7	Sololá	701	Sololá	2	El tablón	11	Noviembre	2023-04-11T00:00:00	2024-11-08T10:00:00	6	Velocidad del viento	16.1
138	7	Sololá	701	Sololá	2	El tablón	11	Noviembre	2023-04-11T00:00:00	2024-11-08T10:00:00	7	Dirección del viento	16.09
139	7	Sololá	701	Sololá	2	El tablón	11	Noviembre	2023-04-11T00:00:00	2024-11-08T10:00:00	1	Precipitación	0.2
140	7	Sololá	701	Sololá	2	El tablón	11	Noviembre	2023-04-11T00:00:00	2024-11-08T10:00:00	8	Radiación solar	197
141	7	Sololá	701	Sololá	2	El tablón	11	Noviembre	2023-04-11T00:00:00	2024-11-08T11:00:00	2	Temperatura media	15.6
142	7	Sololá	701	Sololá	2	El tablón	11	Noviembre	2023-04-11T00:00:00	2024-11-08T11:00:00	4	Temperatura máxima	15.7
143	7	Sololá	701	Sololá	2	El tablón	11	Noviembre	2023-04-11T00:00:00	2024-11-08T11:00:00	3	Temperatura mínima	14.2
144	7	Sololá	701	Sololá	2	El tablón	11	Noviembre	2023-04-11T00:00:00	2024-11-08T11:00:00	5	Humedad	87
145	7	Sololá	701	Sololá	2	El tablón	11	Noviembre	2023-04-11T00:00:00	2024-11-08T11:00:00	6	Velocidad del viento	16.1
146	7	Sololá	701	Sololá	2	El tablón	11	Noviembre	2023-04-11T00:00:00	2024-11-08T11:00:00	7	Dirección del viento	16.09
147	7	Sololá	701	Sololá	2	El tablón	11	Noviembre	2023-04-11T00:00:00	2024-11-08T11:00:00	1	Precipitación	0
148	7	Sololá	701	Sololá	2	El tablón	11	Noviembre	2023-04-11T00:00:00	2024-11-08T11:00:00	8	Radiación solar	319
149	7	Sololá	701	Sololá	2	El tablón	11	Noviembre	2023-04-11T00:00:00	2024-11-08T12:00:00	2	Temperatura media	16.3
150	7	Sololá	701	Sololá	2	El tablón	11	Noviembre	2023-04-11T00:00:00	2024-11-08T12:00:00	4	Temperatura máxima	16.3
151	7	Sololá	701	Sololá	2	El tablón	11	Noviembre	2023-04-11T00:00:00	2024-11-08T12:00:00	3	Temperatura mínima	15
152	7	Sololá	701	Sololá	2	El tablón	11	Noviembre	2023-04-11T00:00:00	2024-11-08T12:00:00	5	Humedad	86
153	7	Sololá	701	Sololá	2	El tablón	11	Noviembre	2023-04-11T00:00:00	2024-11-08T12:00:00	6	Velocidad del viento	14.5
154	7	Sololá	701	Sololá	2	El tablón	11	Noviembre	2023-04-11T00:00:00	2024-11-08T12:00:00	7	Dirección del viento	14.48
155	7	Sololá	701	Sololá	2	El tablón	11	Noviembre	2023-04-11T00:00:00	2024-11-08T12:00:00	1	Precipitación	0
156	7	Sololá	701	Sololá	2	El tablón	11	Noviembre	2023-04-11T00:00:00	2024-11-08T12:00:00	8	Radiación solar	400
157	7	Sololá	701	Sololá	2	El tablón	11	Noviembre	2023-04-11T00:00:00	2024-11-08T13:00:00	2	Temperatura media	14.9
158	7	Sololá	701	Sololá	2	El tablón	11	Noviembre	2023-04-11T00:00:00	2024-11-08T13:00:00	4	Temperatura máxima	16.3
159	7	Sololá	701	Sololá	2	El tablón	11	Noviembre	2023-04-11T00:00:00	2024-11-08T13:00:00	3	Temperatura mínima	14.9
160	7	Sololá	701	Sololá	2	El tablón	11	Noviembre	2023-04-11T00:00:00	2024-11-08T13:00:00	5	Humedad	89
161	7	Sololá	701	Sololá	2	El tablón	11	Noviembre	2023-04-11T00:00:00	2024-11-08T13:00:00	6	Velocidad del viento	12.9
162	7	Sololá	701	Sololá	2	El tablón	11	Noviembre	2023-04-11T00:00:00	2024-11-08T13:00:00	7	Dirección del viento	12.87
163	7	Sololá	701	Sololá	2	El tablón	11	Noviembre	2023-04-11T00:00:00	2024-11-08T13:00:00	1	Precipitación	2
164	7	Sololá	701	Sololá	2	El tablón	11	Noviembre	2023-04-11T00:00:00	2024-11-08T13:00:00	8	Radiación solar	384
165	7	Sololá	701	Sololá	2	El tablón	11	Noviembre	2023-04-11T00:00:00	2024-11-08T14:00:00	2	Temperatura media	14.4
166	7	Sololá	701	Sololá	2	El tablón	11	Noviembre	2023-04-11T00:00:00	2024-11-08T14:00:00	4	Temperatura máxima	15
167	7	Sololá	701	Sololá	2	El tablón	11	Noviembre	2023-04-11T00:00:00	2024-11-08T14:00:00	3	Temperatura mínima	14.4
168	7	Sololá	701	Sololá	2	El tablón	11	Noviembre	2023-04-11T00:00:00	2024-11-08T14:00:00	5	Humedad	88
169	7	Sololá	701	Sololá	2	El tablón	11	Noviembre	2023-04-11T00:00:00	2024-11-08T14:00:00	6	Velocidad del viento	14.5
170	7	Sololá	701	Sololá	2	El tablón	11	Noviembre	2023-04-11T00:00:00	2024-11-08T14:00:00	7	Dirección del viento	14.48
171	7	Sololá	701	Sololá	2	El tablón	11	Noviembre	2023-04-11T00:00:00	2024-11-08T14:00:00	1	Precipitación	1.2
172	7	Sololá	701	Sololá	2	El tablón	11	Noviembre	2023-04-11T00:00:00	2024-11-08T14:00:00	8	Radiación solar	270
173	7	Sololá	701	Sololá	2	El tablón	11	Noviembre	2023-04-11T00:00:00	2024-11-08T15:00:00	2	Temperatura media	14.6
174	7	Sololá	701	Sololá	2	El tablón	11	Noviembre	2023-04-11T00:00:00	2024-11-08T15:00:00	4	Temperatura máxima	14.6
175	7	Sololá	701	Sololá	2	El tablón	11	Noviembre	2023-04-11T00:00:00	2024-11-08T15:00:00	3	Temperatura mínima	14.1
176	7	Sololá	701	Sololá	2	El tablón	11	Noviembre	2023-04-11T00:00:00	2024-11-08T15:00:00	5	Humedad	88
177	7	Sololá	701	Sololá	2	El tablón	11	Noviembre	2023-04-11T00:00:00	2024-11-08T15:00:00	6	Velocidad del viento	14.5
178	7	Sololá	701	Sololá	2	El tablón	11	Noviembre	2023-04-11T00:00:00	2024-11-08T15:00:00	7	Dirección del viento	14.48
179	7	Sololá	701	Sololá	2	El tablón	11	Noviembre	2023-04-11T00:00:00	2024-11-08T15:00:00	1	Precipitación	0.4
180	7	Sololá	701	Sololá	2	El tablón	11	Noviembre	2023-04-11T00:00:00	2024-11-08T15:00:00	8	Radiación solar	258
181	7	Sololá	701	Sololá	2	El tablón	11	Noviembre	2023-04-11T00:00:00	2024-11-08T16:00:00	2	Temperatura media	13.8
182	7	Sololá	701	Sololá	2	El tablón	11	Noviembre	2023-04-11T00:00:00	2024-11-08T16:00:00	4	Temperatura máxima	14.6
183	7	Sololá	701	Sololá	2	El tablón	11	Noviembre	2023-04-11T00:00:00	2024-11-08T16:00:00	3	Temperatura mínima	13.8
184	7	Sololá	701	Sololá	2	El tablón	11	Noviembre	2023-04-11T00:00:00	2024-11-08T16:00:00	5	Humedad	89
185	7	Sololá	701	Sololá	2	El tablón	11	Noviembre	2023-04-11T00:00:00	2024-11-08T16:00:00	6	Velocidad del viento	8
186	7	Sololá	701	Sololá	2	El tablón	11	Noviembre	2023-04-11T00:00:00	2024-11-08T16:00:00	7	Dirección del viento	8.05
187	7	Sololá	701	Sololá	2	El tablón	11	Noviembre	2023-04-11T00:00:00	2024-11-08T16:00:00	1	Precipitación	0
188	7	Sololá	701	Sololá	2	El tablón	11	Noviembre	2023-04-11T00:00:00	2024-11-08T16:00:00	8	Radiación solar	102
189	7	Sololá	701	Sololá	2	El tablón	11	Noviembre	2023-04-11T00:00:00	2024-11-08T17:00:00	2	Temperatura media	13.6
190	7	Sololá	701	Sololá	2	El tablón	11	Noviembre	2023-04-11T00:00:00	2024-11-08T17:00:00	4	Temperatura máxima	13.8
191	7	Sololá	701	Sololá	2	El tablón	11	Noviembre	2023-04-11T00:00:00	2024-11-08T17:00:00	3	Temperatura mínima	13.6
192	7	Sololá	701	Sololá	2	El tablón	11	Noviembre	2023-04-11T00:00:00	2024-11-08T17:00:00	5	Humedad	89
193	7	Sololá	701	Sololá	2	El tablón	11	Noviembre	2023-04-11T00:00:00	2024-11-08T17:00:00	6	Velocidad del viento	11.3
194	7	Sololá	701	Sololá	2	El tablón	11	Noviembre	2023-04-11T00:00:00	2024-11-08T17:00:00	7	Dirección del viento	11.27
195	7	Sololá	701	Sololá	2	El tablón	11	Noviembre	2023-04-11T00:00:00	2024-11-08T17:00:00	1	Precipitación	0.2
196	7	Sololá	701	Sololá	2	El tablón	11	Noviembre	2023-04-11T00:00:00	2024-11-08T17:00:00	8	Radiación solar	74
197	7	Sololá	701	Sololá	2	El tablón	11	Noviembre	2023-04-11T00:00:00	2024-11-08T18:00:00	2	Temperatura media	13.5
198	7	Sololá	701	Sololá	2	El tablón	11	Noviembre	2023-04-11T00:00:00	2024-11-08T18:00:00	4	Temperatura máxima	13.6
199	7	Sololá	701	Sololá	2	El tablón	11	Noviembre	2023-04-11T00:00:00	2024-11-08T18:00:00	3	Temperatura mínima	13.4
200	7	Sololá	701	Sololá	2	El tablón	11	Noviembre	2023-04-11T00:00:00	2024-11-08T18:00:00	5	Humedad	89
201	7	Sololá	701	Sololá	2	El tablón	11	Noviembre	2023-04-11T00:00:00	2024-11-08T18:00:00	6	Velocidad del viento	11.3
202	7	Sololá	701	Sololá	2	El tablón	11	Noviembre	2023-04-11T00:00:00	2024-11-08T18:00:00	7	Dirección del viento	11.27
203	7	Sololá	701	Sololá	2	El tablón	11	Noviembre	2023-04-11T00:00:00	2024-11-08T18:00:00	1	Precipitación	0
204	7	Sololá	701	Sololá	2	El tablón	11	Noviembre	2023-04-11T00:00:00	2024-11-08T18:00:00	8	Radiación solar	6
205	7	Sololá	701	Sololá	2	El tablón	11	Noviembre	2023-04-11T00:00:00	2024-11-08T19:00:00	2	Temperatura media	13.6
206	7	Sololá	701	Sololá	2	El tablón	11	Noviembre	2023-04-11T00:00:00	2024-11-08T19:00:00	4	Temperatura máxima	13.6
207	7	Sololá	701	Sololá	2	El tablón	11	Noviembre	2023-04-11T00:00:00	2024-11-08T19:00:00	3	Temperatura mínima	13.4
208	7	Sololá	701	Sololá	2	El tablón	11	Noviembre	2023-04-11T00:00:00	2024-11-08T19:00:00	5	Humedad	89
209	7	Sololá	701	Sololá	2	El tablón	11	Noviembre	2023-04-11T00:00:00	2024-11-08T19:00:00	6	Velocidad del viento	11.3
210	7	Sololá	701	Sololá	2	El tablón	11	Noviembre	2023-04-11T00:00:00	2024-11-08T19:00:00	7	Dirección del viento	11.27
211	7	Sololá	701	Sololá	2	El tablón	11	Noviembre	2023-04-11T00:00:00	2024-11-08T19:00:00	1	Precipitación	0
212	7	Sololá	701	Sololá	2	El tablón	11	Noviembre	2023-04-11T00:00:00	2024-11-08T19:00:00	8	Radiación solar	0
213	7	Sololá	701	Sololá	2	El tablón	11	Noviembre	2023-04-11T00:00:00	2024-11-08T20:00:00	2	Temperatura media	13.4
214	7	Sololá	701	Sololá	2	El tablón	11	Noviembre	2023-04-11T00:00:00	2024-11-08T20:00:00	4	Temperatura máxima	13.6
215	7	Sololá	701	Sololá	2	El tablón	11	Noviembre	2023-04-11T00:00:00	2024-11-08T20:00:00	3	Temperatura mínima	13.3
216	7	Sololá	701	Sololá	2	El tablón	11	Noviembre	2023-04-11T00:00:00	2024-11-08T20:00:00	5	Humedad	89
217	7	Sololá	701	Sololá	2	El tablón	11	Noviembre	2023-04-11T00:00:00	2024-11-08T20:00:00	6	Velocidad del viento	11.3
218	7	Sololá	701	Sololá	2	El tablón	11	Noviembre	2023-04-11T00:00:00	2024-11-08T20:00:00	7	Dirección del viento	11.27
219	7	Sololá	701	Sololá	2	El tablón	11	Noviembre	2023-04-11T00:00:00	2024-11-08T20:00:00	1	Precipitación	0
220	7	Sololá	701	Sololá	2	El tablón	11	Noviembre	2023-04-11T00:00:00	2024-11-08T20:00:00	8	Radiación solar	0
221	7	Sololá	701	Sololá	2	El tablón	11	Noviembre	2023-04-11T00:00:00	2024-11-08T21:00:00	2	Temperatura media	13.3
222	7	Sololá	701	Sololá	2	El tablón	11	Noviembre	2023-04-11T00:00:00	2024-11-08T21:00:00	4	Temperatura máxima	13.6
223	7	Sololá	701	Sololá	2	El tablón	11	Noviembre	2023-04-11T00:00:00	2024-11-08T21:00:00	3	Temperatura mínima	13.3
224	7	Sololá	701	Sololá	2	El tablón	11	Noviembre	2023-04-11T00:00:00	2024-11-08T21:00:00	5	Humedad	89
225	7	Sololá	701	Sololá	2	El tablón	11	Noviembre	2023-04-11T00:00:00	2024-11-08T21:00:00	6	Velocidad del viento	14.5
226	7	Sololá	701	Sololá	2	El tablón	11	Noviembre	2023-04-11T00:00:00	2024-11-08T21:00:00	7	Dirección del viento	14.48
227	7	Sololá	701	Sololá	2	El tablón	11	Noviembre	2023-04-11T00:00:00	2024-11-08T21:00:00	1	Precipitación	1.4
228	7	Sololá	701	Sololá	2	El tablón	11	Noviembre	2023-04-11T00:00:00	2024-11-08T21:00:00	8	Radiación solar	0
229	7	Sololá	701	Sololá	2	El tablón	11	Noviembre	2023-04-11T00:00:00	2024-11-08T22:00:00	2	Temperatura media	13.2
230	7	Sololá	701	Sololá	2	El tablón	11	Noviembre	2023-04-11T00:00:00	2024-11-08T22:00:00	4	Temperatura máxima	13.3
231	7	Sololá	701	Sololá	2	El tablón	11	Noviembre	2023-04-11T00:00:00	2024-11-08T22:00:00	3	Temperatura mínima	13.2
232	7	Sololá	701	Sololá	2	El tablón	11	Noviembre	2023-04-11T00:00:00	2024-11-08T22:00:00	5	Humedad	89
233	7	Sololá	701	Sololá	2	El tablón	11	Noviembre	2023-04-11T00:00:00	2024-11-08T22:00:00	6	Velocidad del viento	12.9
234	7	Sololá	701	Sololá	2	El tablón	11	Noviembre	2023-04-11T00:00:00	2024-11-08T22:00:00	7	Dirección del viento	12.87
235	7	Sololá	701	Sololá	2	El tablón	11	Noviembre	2023-04-11T00:00:00	2024-11-08T22:00:00	1	Precipitación	0.2
236	7	Sololá	701	Sololá	2	El tablón	11	Noviembre	2023-04-11T00:00:00	2024-11-08T22:00:00	8	Radiación solar	0
237	7	Sololá	701	Sololá	2	El tablón	11	Noviembre	2023-04-11T00:00:00	2024-11-08T23:00:00	2	Temperatura media	13.2
238	7	Sololá	701	Sololá	2	El tablón	11	Noviembre	2023-04-11T00:00:00	2024-11-08T23:00:00	4	Temperatura máxima	13.3
239	7	Sololá	701	Sololá	2	El tablón	11	Noviembre	2023-04-11T00:00:00	2024-11-08T23:00:00	3	Temperatura mínima	13.2
240	7	Sololá	701	Sololá	2	El tablón	11	Noviembre	2023-04-11T00:00:00	2024-11-08T23:00:00	5	Humedad	89
241	7	Sololá	701	Sololá	2	El tablón	11	Noviembre	2023-04-11T00:00:00	2024-11-08T23:00:00	6	Velocidad del viento	12.9
242	7	Sololá	701	Sololá	2	El tablón	11	Noviembre	2023-04-11T00:00:00	2024-11-08T23:00:00	7	Dirección del viento	12.87
243	7	Sololá	701	Sololá	2	El tablón	11	Noviembre	2023-04-11T00:00:00	2024-11-08T23:00:00	1	Precipitación	0.4
244	7	Sololá	701	Sololá	2	El tablón	11	Noviembre	2023-04-11T00:00:00	2024-11-08T23:00:00	8	Radiación solar	0
245	7	Sololá	701	Sololá	2	El tablón	11	Noviembre	2023-05-11T00:00:00	2024-11-08T00:00:00	2	Temperatura media	13.2
246	7	Sololá	701	Sololá	2	El tablón	11	Noviembre	2023-05-11T00:00:00	2024-11-08T00:00:00	4	Temperatura máxima	13.3
247	7	Sololá	701	Sololá	2	El tablón	11	Noviembre	2023-05-11T00:00:00	2024-11-08T00:00:00	3	Temperatura mínima	13.1
248	7	Sololá	701	Sololá	2	El tablón	11	Noviembre	2023-05-11T00:00:00	2024-11-08T00:00:00	5	Humedad	89
249	7	Sololá	701	Sololá	2	El tablón	11	Noviembre	2023-05-11T00:00:00	2024-11-08T00:00:00	6	Velocidad del viento	17.7
250	7	Sololá	701	Sololá	2	El tablón	11	Noviembre	2023-05-11T00:00:00	2024-11-08T00:00:00	7	Dirección del viento	17.7
251	7	Sololá	701	Sololá	2	El tablón	11	Noviembre	2023-05-11T00:00:00	2024-11-08T00:00:00	1	Precipitación	0
252	7	Sololá	701	Sololá	2	El tablón	11	Noviembre	2023-05-11T00:00:00	2024-11-08T00:00:00	8	Radiación solar	0
253	7	Sololá	701	Sololá	2	El tablón	11	Noviembre	2023-05-11T00:00:00	2024-11-08T01:00:00	2	Temperatura media	13.1
254	7	Sololá	701	Sololá	2	El tablón	11	Noviembre	2023-05-11T00:00:00	2024-11-08T01:00:00	4	Temperatura máxima	13.2
255	7	Sololá	701	Sololá	2	El tablón	11	Noviembre	2023-05-11T00:00:00	2024-11-08T01:00:00	3	Temperatura mínima	13
256	7	Sololá	701	Sololá	2	El tablón	11	Noviembre	2023-05-11T00:00:00	2024-11-08T01:00:00	5	Humedad	89
257	7	Sololá	701	Sololá	2	El tablón	11	Noviembre	2023-05-11T00:00:00	2024-11-08T01:00:00	6	Velocidad del viento	16.1
258	7	Sololá	701	Sololá	2	El tablón	11	Noviembre	2023-05-11T00:00:00	2024-11-08T01:00:00	7	Dirección del viento	16.09
259	7	Sololá	701	Sololá	2	El tablón	11	Noviembre	2023-05-11T00:00:00	2024-11-08T01:00:00	1	Precipitación	0
260	7	Sololá	701	Sololá	2	El tablón	11	Noviembre	2023-05-11T00:00:00	2024-11-08T01:00:00	8	Radiación solar	0
261	7	Sololá	701	Sololá	2	El tablón	11	Noviembre	2023-05-11T00:00:00	2024-11-08T02:00:00	2	Temperatura media	13.1
262	7	Sololá	701	Sololá	2	El tablón	11	Noviembre	2023-05-11T00:00:00	2024-11-08T02:00:00	4	Temperatura máxima	13.1
263	7	Sololá	701	Sololá	2	El tablón	11	Noviembre	2023-05-11T00:00:00	2024-11-08T02:00:00	3	Temperatura mínima	12.9
264	7	Sololá	701	Sololá	2	El tablón	11	Noviembre	2023-05-11T00:00:00	2024-11-08T02:00:00	5	Humedad	89
265	7	Sololá	701	Sololá	2	El tablón	11	Noviembre	2023-05-11T00:00:00	2024-11-08T02:00:00	6	Velocidad del viento	12.9
266	7	Sololá	701	Sololá	2	El tablón	11	Noviembre	2023-05-11T00:00:00	2024-11-08T02:00:00	7	Dirección del viento	12.87
267	7	Sololá	701	Sololá	2	El tablón	11	Noviembre	2023-05-11T00:00:00	2024-11-08T02:00:00	1	Precipitación	0
268	7	Sololá	701	Sololá	2	El tablón	11	Noviembre	2023-05-11T00:00:00	2024-11-08T02:00:00	8	Radiación solar	0
269	7	Sololá	701	Sololá	2	El tablón	11	Noviembre	2023-05-11T00:00:00	2024-11-08T03:00:00	2	Temperatura media	13.2
270	7	Sololá	701	Sololá	2	El tablón	11	Noviembre	2023-05-11T00:00:00	2024-11-08T03:00:00	4	Temperatura máxima	13.2
271	7	Sololá	701	Sololá	2	El tablón	11	Noviembre	2023-05-11T00:00:00	2024-11-08T03:00:00	3	Temperatura mínima	13.1
272	7	Sololá	701	Sololá	2	El tablón	11	Noviembre	2023-05-11T00:00:00	2024-11-08T03:00:00	5	Humedad	89
273	7	Sololá	701	Sololá	2	El tablón	11	Noviembre	2023-05-11T00:00:00	2024-11-08T03:00:00	6	Velocidad del viento	16.1
274	7	Sololá	701	Sololá	2	El tablón	11	Noviembre	2023-05-11T00:00:00	2024-11-08T03:00:00	7	Dirección del viento	16.09
275	7	Sololá	701	Sololá	2	El tablón	11	Noviembre	2023-05-11T00:00:00	2024-11-08T03:00:00	1	Precipitación	0
276	7	Sololá	701	Sololá	2	El tablón	11	Noviembre	2023-05-11T00:00:00	2024-11-08T03:00:00	8	Radiación solar	0
277	7	Sololá	701	Sololá	2	El tablón	11	Noviembre	2023-05-11T00:00:00	2024-11-08T04:00:00	2	Temperatura media	12.8
278	7	Sololá	701	Sololá	2	El tablón	11	Noviembre	2023-05-11T00:00:00	2024-11-08T04:00:00	4	Temperatura máxima	13.2
279	7	Sololá	701	Sololá	2	El tablón	11	Noviembre	2023-05-11T00:00:00	2024-11-08T04:00:00	3	Temperatura mínima	12.7
280	7	Sololá	701	Sololá	2	El tablón	11	Noviembre	2023-05-11T00:00:00	2024-11-08T04:00:00	5	Humedad	89
281	7	Sololá	701	Sololá	2	El tablón	11	Noviembre	2023-05-11T00:00:00	2024-11-08T04:00:00	6	Velocidad del viento	14.5
282	7	Sololá	701	Sololá	2	El tablón	11	Noviembre	2023-05-11T00:00:00	2024-11-08T04:00:00	7	Dirección del viento	14.48
283	7	Sololá	701	Sololá	2	El tablón	11	Noviembre	2023-05-11T00:00:00	2024-11-08T04:00:00	1	Precipitación	0.2
284	7	Sololá	701	Sololá	2	El tablón	11	Noviembre	2023-05-11T00:00:00	2024-11-08T04:00:00	8	Radiación solar	0
285	7	Sololá	701	Sololá	2	El tablón	11	Noviembre	2023-05-11T00:00:00	2024-11-08T05:00:00	2	Temperatura media	13.1
286	7	Sololá	701	Sololá	2	El tablón	11	Noviembre	2023-05-11T00:00:00	2024-11-08T05:00:00	4	Temperatura máxima	13.2
287	7	Sololá	701	Sololá	2	El tablón	11	Noviembre	2023-05-11T00:00:00	2024-11-08T05:00:00	3	Temperatura mínima	12.8
288	7	Sololá	701	Sololá	2	El tablón	11	Noviembre	2023-05-11T00:00:00	2024-11-08T05:00:00	5	Humedad	89
289	7	Sololá	701	Sololá	2	El tablón	11	Noviembre	2023-05-11T00:00:00	2024-11-08T05:00:00	6	Velocidad del viento	14.5
290	7	Sololá	701	Sololá	2	El tablón	11	Noviembre	2023-05-11T00:00:00	2024-11-08T05:00:00	7	Dirección del viento	14.48
291	7	Sololá	701	Sololá	2	El tablón	11	Noviembre	2023-05-11T00:00:00	2024-11-08T05:00:00	1	Precipitación	0.6
292	7	Sololá	701	Sololá	2	El tablón	11	Noviembre	2023-05-11T00:00:00	2024-11-08T05:00:00	8	Radiación solar	0
293	7	Sololá	701	Sololá	2	El tablón	11	Noviembre	2023-05-11T00:00:00	2024-11-08T06:00:00	2	Temperatura media	13.6
294	7	Sololá	701	Sololá	2	El tablón	11	Noviembre	2023-05-11T00:00:00	2024-11-08T06:00:00	4	Temperatura máxima	13.7
295	7	Sololá	701	Sololá	2	El tablón	11	Noviembre	2023-05-11T00:00:00	2024-11-08T06:00:00	3	Temperatura mínima	13.1
296	7	Sololá	701	Sololá	2	El tablón	11	Noviembre	2023-05-11T00:00:00	2024-11-08T06:00:00	5	Humedad	89
297	7	Sololá	701	Sololá	2	El tablón	11	Noviembre	2023-05-11T00:00:00	2024-11-08T06:00:00	6	Velocidad del viento	14.5
298	7	Sololá	701	Sololá	2	El tablón	11	Noviembre	2023-05-11T00:00:00	2024-11-08T06:00:00	7	Dirección del viento	14.48
299	7	Sololá	701	Sololá	2	El tablón	11	Noviembre	2023-05-11T00:00:00	2024-11-08T06:00:00	1	Precipitación	0
300	7	Sololá	701	Sololá	2	El tablón	11	Noviembre	2023-05-11T00:00:00	2024-11-08T06:00:00	8	Radiación solar	0
301	7	Sololá	701	Sololá	2	El tablón	11	Noviembre	2023-05-11T00:00:00	2024-11-08T07:00:00	2	Temperatura media	13.6
302	7	Sololá	701	Sololá	2	El tablón	11	Noviembre	2023-05-11T00:00:00	2024-11-08T07:00:00	4	Temperatura máxima	13.7
303	7	Sololá	701	Sololá	2	El tablón	11	Noviembre	2023-05-11T00:00:00	2024-11-08T07:00:00	3	Temperatura mínima	13.5
304	7	Sololá	701	Sololá	2	El tablón	11	Noviembre	2023-05-11T00:00:00	2024-11-08T07:00:00	5	Humedad	89
305	7	Sololá	701	Sololá	2	El tablón	11	Noviembre	2023-05-11T00:00:00	2024-11-08T07:00:00	6	Velocidad del viento	12.9
306	7	Sololá	701	Sololá	2	El tablón	11	Noviembre	2023-05-11T00:00:00	2024-11-08T07:00:00	7	Dirección del viento	12.87
307	7	Sololá	701	Sololá	2	El tablón	11	Noviembre	2023-05-11T00:00:00	2024-11-08T07:00:00	1	Precipitación	0
308	7	Sololá	701	Sololá	2	El tablón	11	Noviembre	2023-05-11T00:00:00	2024-11-08T07:00:00	8	Radiación solar	17
309	7	Sololá	701	Sololá	2	El tablón	11	Noviembre	2023-05-11T00:00:00	2024-11-08T08:00:00	2	Temperatura media	14.2
310	7	Sololá	701	Sololá	2	El tablón	11	Noviembre	2023-05-11T00:00:00	2024-11-08T08:00:00	4	Temperatura máxima	14.2
311	7	Sololá	701	Sololá	2	El tablón	11	Noviembre	2023-05-11T00:00:00	2024-11-08T08:00:00	3	Temperatura mínima	13.6
312	7	Sololá	701	Sololá	2	El tablón	11	Noviembre	2023-05-11T00:00:00	2024-11-08T08:00:00	5	Humedad	89
313	7	Sololá	701	Sololá	2	El tablón	11	Noviembre	2023-05-11T00:00:00	2024-11-08T08:00:00	6	Velocidad del viento	11.3
314	7	Sololá	701	Sololá	2	El tablón	11	Noviembre	2023-05-11T00:00:00	2024-11-08T08:00:00	7	Dirección del viento	11.27
315	7	Sololá	701	Sololá	2	El tablón	11	Noviembre	2023-05-11T00:00:00	2024-11-08T08:00:00	1	Precipitación	0
316	7	Sololá	701	Sololá	2	El tablón	11	Noviembre	2023-05-11T00:00:00	2024-11-08T08:00:00	8	Radiación solar	86
317	7	Sololá	701	Sololá	2	El tablón	11	Noviembre	2023-05-11T00:00:00	2024-11-08T09:00:00	2	Temperatura media	14.2
318	7	Sololá	701	Sololá	2	El tablón	11	Noviembre	2023-05-11T00:00:00	2024-11-08T09:00:00	4	Temperatura máxima	14.2
319	7	Sololá	701	Sololá	2	El tablón	11	Noviembre	2023-05-11T00:00:00	2024-11-08T09:00:00	3	Temperatura mínima	13.9
320	7	Sololá	701	Sololá	2	El tablón	11	Noviembre	2023-05-11T00:00:00	2024-11-08T09:00:00	5	Humedad	89
321	7	Sololá	701	Sololá	2	El tablón	11	Noviembre	2023-05-11T00:00:00	2024-11-08T09:00:00	6	Velocidad del viento	14.5
322	7	Sololá	701	Sololá	2	El tablón	11	Noviembre	2023-05-11T00:00:00	2024-11-08T09:00:00	7	Dirección del viento	14.48
323	7	Sololá	701	Sololá	2	El tablón	11	Noviembre	2023-05-11T00:00:00	2024-11-08T09:00:00	1	Precipitación	0
324	7	Sololá	701	Sololá	2	El tablón	11	Noviembre	2023-05-11T00:00:00	2024-11-08T09:00:00	8	Radiación solar	184
325	7	Sololá	701	Sololá	2	El tablón	11	Noviembre	2023-05-11T00:00:00	2024-11-08T10:00:00	2	Temperatura media	15.2
326	7	Sololá	701	Sololá	2	El tablón	11	Noviembre	2023-05-11T00:00:00	2024-11-08T10:00:00	4	Temperatura máxima	15.3
327	7	Sololá	701	Sololá	2	El tablón	11	Noviembre	2023-05-11T00:00:00	2024-11-08T10:00:00	3	Temperatura mínima	14.2
328	7	Sololá	701	Sololá	2	El tablón	11	Noviembre	2023-05-11T00:00:00	2024-11-08T10:00:00	5	Humedad	88
329	7	Sololá	701	Sololá	2	El tablón	11	Noviembre	2023-05-11T00:00:00	2024-11-08T10:00:00	6	Velocidad del viento	12.9
330	7	Sololá	701	Sololá	2	El tablón	11	Noviembre	2023-05-11T00:00:00	2024-11-08T10:00:00	7	Dirección del viento	12.87
331	7	Sololá	701	Sololá	2	El tablón	11	Noviembre	2023-05-11T00:00:00	2024-11-08T10:00:00	1	Precipitación	0.4
332	7	Sololá	701	Sololá	2	El tablón	11	Noviembre	2023-05-11T00:00:00	2024-11-08T10:00:00	8	Radiación solar	285
333	7	Sololá	701	Sololá	2	El tablón	11	Noviembre	2023-05-11T00:00:00	2024-11-08T11:00:00	2	Temperatura media	14.8
334	7	Sololá	701	Sololá	2	El tablón	11	Noviembre	2023-05-11T00:00:00	2024-11-08T11:00:00	4	Temperatura máxima	15.2
335	7	Sololá	701	Sololá	2	El tablón	11	Noviembre	2023-05-11T00:00:00	2024-11-08T11:00:00	3	Temperatura mínima	14.8
336	7	Sololá	701	Sololá	2	El tablón	11	Noviembre	2023-05-11T00:00:00	2024-11-08T11:00:00	5	Humedad	88
337	7	Sololá	701	Sololá	2	El tablón	11	Noviembre	2023-05-11T00:00:00	2024-11-08T11:00:00	6	Velocidad del viento	12.9
338	7	Sololá	701	Sololá	2	El tablón	11	Noviembre	2023-05-11T00:00:00	2024-11-08T11:00:00	7	Dirección del viento	12.87
339	7	Sololá	701	Sololá	2	El tablón	11	Noviembre	2023-05-11T00:00:00	2024-11-08T11:00:00	1	Precipitación	0
340	7	Sololá	701	Sololá	2	El tablón	11	Noviembre	2023-05-11T00:00:00	2024-11-08T11:00:00	8	Radiación solar	278
341	7	Sololá	701	Sololá	2	El tablón	11	Noviembre	2023-05-11T00:00:00	2024-11-08T12:00:00	2	Temperatura media	15
342	7	Sololá	701	Sololá	2	El tablón	11	Noviembre	2023-05-11T00:00:00	2024-11-08T12:00:00	4	Temperatura máxima	15.1
343	7	Sololá	701	Sololá	2	El tablón	11	Noviembre	2023-05-11T00:00:00	2024-11-08T12:00:00	3	Temperatura mínima	14.8
344	7	Sololá	701	Sololá	2	El tablón	11	Noviembre	2023-05-11T00:00:00	2024-11-08T12:00:00	5	Humedad	89
345	7	Sololá	701	Sololá	2	El tablón	11	Noviembre	2023-05-11T00:00:00	2024-11-08T12:00:00	6	Velocidad del viento	8
346	7	Sololá	701	Sololá	2	El tablón	11	Noviembre	2023-05-11T00:00:00	2024-11-08T12:00:00	7	Dirección del viento	8.05
347	7	Sololá	701	Sololá	2	El tablón	11	Noviembre	2023-05-11T00:00:00	2024-11-08T12:00:00	1	Precipitación	0
348	7	Sololá	701	Sololá	2	El tablón	11	Noviembre	2023-05-11T00:00:00	2024-11-08T12:00:00	8	Radiación solar	165
349	7	Sololá	701	Sololá	2	El tablón	11	Noviembre	2023-05-11T00:00:00	2024-11-08T13:00:00	2	Temperatura media	15.7
350	7	Sololá	701	Sololá	2	El tablón	11	Noviembre	2023-05-11T00:00:00	2024-11-08T13:00:00	4	Temperatura máxima	15.8
351	7	Sololá	701	Sololá	2	El tablón	11	Noviembre	2023-05-11T00:00:00	2024-11-08T13:00:00	3	Temperatura mínima	14.9
352	7	Sololá	701	Sololá	2	El tablón	11	Noviembre	2023-05-11T00:00:00	2024-11-08T13:00:00	5	Humedad	86
353	7	Sololá	701	Sololá	2	El tablón	11	Noviembre	2023-05-11T00:00:00	2024-11-08T13:00:00	6	Velocidad del viento	14.5
354	7	Sololá	701	Sololá	2	El tablón	11	Noviembre	2023-05-11T00:00:00	2024-11-08T13:00:00	7	Dirección del viento	14.48
355	7	Sololá	701	Sololá	2	El tablón	11	Noviembre	2023-05-11T00:00:00	2024-11-08T13:00:00	1	Precipitación	0
356	7	Sololá	701	Sololá	2	El tablón	11	Noviembre	2023-05-11T00:00:00	2024-11-08T13:00:00	8	Radiación solar	330
357	7	Sololá	701	Sololá	2	El tablón	11	Noviembre	2023-05-11T00:00:00	2024-11-08T14:00:00	2	Temperatura media	15.7
358	7	Sololá	701	Sololá	2	El tablón	11	Noviembre	2023-05-11T00:00:00	2024-11-08T14:00:00	4	Temperatura máxima	16.7
359	7	Sololá	701	Sololá	2	El tablón	11	Noviembre	2023-05-11T00:00:00	2024-11-08T14:00:00	3	Temperatura mínima	15.7
360	7	Sololá	701	Sololá	2	El tablón	11	Noviembre	2023-05-11T00:00:00	2024-11-08T14:00:00	5	Humedad	87
361	7	Sololá	701	Sololá	2	El tablón	11	Noviembre	2023-05-11T00:00:00	2024-11-08T14:00:00	6	Velocidad del viento	11.3
362	7	Sololá	701	Sololá	2	El tablón	11	Noviembre	2023-05-11T00:00:00	2024-11-08T14:00:00	7	Dirección del viento	11.27
363	7	Sololá	701	Sololá	2	El tablón	11	Noviembre	2023-05-11T00:00:00	2024-11-08T14:00:00	1	Precipitación	0
364	7	Sololá	701	Sololá	2	El tablón	11	Noviembre	2023-05-11T00:00:00	2024-11-08T14:00:00	8	Radiación solar	328
365	7	Sololá	701	Sololá	2	El tablón	11	Noviembre	2023-05-11T00:00:00	2024-11-08T15:00:00	2	Temperatura media	16.2
366	7	Sololá	701	Sololá	2	El tablón	11	Noviembre	2023-05-11T00:00:00	2024-11-08T15:00:00	4	Temperatura máxima	16.3
367	7	Sololá	701	Sololá	2	El tablón	11	Noviembre	2023-05-11T00:00:00	2024-11-08T15:00:00	3	Temperatura mínima	15.4
368	7	Sololá	701	Sololá	2	El tablón	11	Noviembre	2023-05-11T00:00:00	2024-11-08T15:00:00	5	Humedad	87
369	7	Sololá	701	Sololá	2	El tablón	11	Noviembre	2023-05-11T00:00:00	2024-11-08T15:00:00	6	Velocidad del viento	8
370	7	Sololá	701	Sololá	2	El tablón	11	Noviembre	2023-05-11T00:00:00	2024-11-08T15:00:00	7	Dirección del viento	8.05
371	7	Sololá	701	Sololá	2	El tablón	11	Noviembre	2023-05-11T00:00:00	2024-11-08T15:00:00	1	Precipitación	0
372	7	Sololá	701	Sololá	2	El tablón	11	Noviembre	2023-05-11T00:00:00	2024-11-08T15:00:00	8	Radiación solar	181
373	7	Sololá	701	Sololá	2	El tablón	11	Noviembre	2023-05-11T00:00:00	2024-11-08T16:00:00	2	Temperatura media	15.2
374	7	Sololá	701	Sololá	2	El tablón	11	Noviembre	2023-05-11T00:00:00	2024-11-08T16:00:00	4	Temperatura máxima	16.2
375	7	Sololá	701	Sololá	2	El tablón	11	Noviembre	2023-05-11T00:00:00	2024-11-08T16:00:00	3	Temperatura mínima	15.2
376	7	Sololá	701	Sololá	2	El tablón	11	Noviembre	2023-05-11T00:00:00	2024-11-08T16:00:00	5	Humedad	88
377	7	Sololá	701	Sololá	2	El tablón	11	Noviembre	2023-05-11T00:00:00	2024-11-08T16:00:00	6	Velocidad del viento	9.7
378	7	Sololá	701	Sololá	2	El tablón	11	Noviembre	2023-05-11T00:00:00	2024-11-08T16:00:00	7	Dirección del viento	9.66
379	7	Sololá	701	Sololá	2	El tablón	11	Noviembre	2023-05-11T00:00:00	2024-11-08T16:00:00	1	Precipitación	0.2
380	7	Sololá	701	Sololá	2	El tablón	11	Noviembre	2023-05-11T00:00:00	2024-11-08T16:00:00	8	Radiación solar	134
381	7	Sololá	701	Sololá	2	El tablón	11	Noviembre	2023-05-11T00:00:00	2024-11-08T17:00:00	2	Temperatura media	14.6
382	7	Sololá	701	Sololá	2	El tablón	11	Noviembre	2023-05-11T00:00:00	2024-11-08T17:00:00	4	Temperatura máxima	15.2
383	7	Sololá	701	Sololá	2	El tablón	11	Noviembre	2023-05-11T00:00:00	2024-11-08T17:00:00	3	Temperatura mínima	14.6
384	7	Sololá	701	Sololá	2	El tablón	11	Noviembre	2023-05-11T00:00:00	2024-11-08T17:00:00	5	Humedad	89
385	7	Sololá	701	Sololá	2	El tablón	11	Noviembre	2023-05-11T00:00:00	2024-11-08T17:00:00	6	Velocidad del viento	9.7
386	7	Sololá	701	Sololá	2	El tablón	11	Noviembre	2023-05-11T00:00:00	2024-11-08T17:00:00	7	Dirección del viento	9.66
387	7	Sololá	701	Sololá	2	El tablón	11	Noviembre	2023-05-11T00:00:00	2024-11-08T17:00:00	1	Precipitación	0
388	7	Sololá	701	Sololá	2	El tablón	11	Noviembre	2023-05-11T00:00:00	2024-11-08T17:00:00	8	Radiación solar	70
389	7	Sololá	701	Sololá	2	El tablón	11	Noviembre	2023-05-11T00:00:00	2024-11-08T18:00:00	2	Temperatura media	13.9
390	7	Sololá	701	Sololá	2	El tablón	11	Noviembre	2023-05-11T00:00:00	2024-11-08T18:00:00	4	Temperatura máxima	14.6
391	7	Sololá	701	Sololá	2	El tablón	11	Noviembre	2023-05-11T00:00:00	2024-11-08T18:00:00	3	Temperatura mínima	13.9
392	7	Sololá	701	Sololá	2	El tablón	11	Noviembre	2023-05-11T00:00:00	2024-11-08T18:00:00	5	Humedad	89
393	7	Sololá	701	Sololá	2	El tablón	11	Noviembre	2023-05-11T00:00:00	2024-11-08T18:00:00	6	Velocidad del viento	9.7
394	7	Sololá	701	Sololá	2	El tablón	11	Noviembre	2023-05-11T00:00:00	2024-11-08T18:00:00	7	Dirección del viento	9.66
395	7	Sololá	701	Sololá	2	El tablón	11	Noviembre	2023-05-11T00:00:00	2024-11-08T18:00:00	1	Precipitación	0.2
396	7	Sololá	701	Sololá	2	El tablón	11	Noviembre	2023-05-11T00:00:00	2024-11-08T18:00:00	8	Radiación solar	12
397	7	Sololá	701	Sololá	2	El tablón	11	Noviembre	2023-05-11T00:00:00	2024-11-08T19:00:00	2	Temperatura media	13.8
398	7	Sololá	701	Sololá	2	El tablón	11	Noviembre	2023-05-11T00:00:00	2024-11-08T19:00:00	4	Temperatura máxima	13.9
399	7	Sololá	701	Sololá	2	El tablón	11	Noviembre	2023-05-11T00:00:00	2024-11-08T19:00:00	3	Temperatura mínima	13.7
400	7	Sololá	701	Sololá	2	El tablón	11	Noviembre	2023-05-11T00:00:00	2024-11-08T19:00:00	5	Humedad	89
401	7	Sololá	701	Sololá	2	El tablón	11	Noviembre	2023-05-11T00:00:00	2024-11-08T19:00:00	6	Velocidad del viento	11.3
402	7	Sololá	701	Sololá	2	El tablón	11	Noviembre	2023-05-11T00:00:00	2024-11-08T19:00:00	7	Dirección del viento	11.27
403	7	Sololá	701	Sololá	2	El tablón	11	Noviembre	2023-05-11T00:00:00	2024-11-08T19:00:00	1	Precipitación	1
404	7	Sololá	701	Sololá	2	El tablón	11	Noviembre	2023-05-11T00:00:00	2024-11-08T19:00:00	8	Radiación solar	0
405	7	Sololá	701	Sololá	2	El tablón	11	Noviembre	2023-05-11T00:00:00	2024-11-08T20:00:00	2	Temperatura media	13.7
406	7	Sololá	701	Sololá	2	El tablón	11	Noviembre	2023-05-11T00:00:00	2024-11-08T20:00:00	4	Temperatura máxima	14
407	7	Sololá	701	Sololá	2	El tablón	11	Noviembre	2023-05-11T00:00:00	2024-11-08T20:00:00	3	Temperatura mínima	13.7
408	7	Sololá	701	Sololá	2	El tablón	11	Noviembre	2023-05-11T00:00:00	2024-11-08T20:00:00	5	Humedad	89
409	7	Sololá	701	Sololá	2	El tablón	11	Noviembre	2023-05-11T00:00:00	2024-11-08T20:00:00	6	Velocidad del viento	12.9
410	7	Sololá	701	Sololá	2	El tablón	11	Noviembre	2023-05-11T00:00:00	2024-11-08T20:00:00	7	Dirección del viento	12.87
411	7	Sololá	701	Sololá	2	El tablón	11	Noviembre	2023-05-11T00:00:00	2024-11-08T20:00:00	1	Precipitación	0.8
412	7	Sololá	701	Sololá	2	El tablón	11	Noviembre	2023-05-11T00:00:00	2024-11-08T20:00:00	8	Radiación solar	0
413	7	Sololá	701	Sololá	2	El tablón	11	Noviembre	2023-05-11T00:00:00	2024-11-08T21:00:00	2	Temperatura media	13.5
414	7	Sololá	701	Sololá	2	El tablón	11	Noviembre	2023-05-11T00:00:00	2024-11-08T21:00:00	4	Temperatura máxima	13.8
415	7	Sololá	701	Sololá	2	El tablón	11	Noviembre	2023-05-11T00:00:00	2024-11-08T21:00:00	3	Temperatura mínima	13.5
416	7	Sololá	701	Sololá	2	El tablón	11	Noviembre	2023-05-11T00:00:00	2024-11-08T21:00:00	5	Humedad	89
417	7	Sololá	701	Sololá	2	El tablón	11	Noviembre	2023-05-11T00:00:00	2024-11-08T21:00:00	6	Velocidad del viento	11.3
418	7	Sololá	701	Sololá	2	El tablón	11	Noviembre	2023-05-11T00:00:00	2024-11-08T21:00:00	7	Dirección del viento	11.27
419	7	Sololá	701	Sololá	2	El tablón	11	Noviembre	2023-05-11T00:00:00	2024-11-08T21:00:00	1	Precipitación	0.8
420	7	Sololá	701	Sololá	2	El tablón	11	Noviembre	2023-05-11T00:00:00	2024-11-08T21:00:00	8	Radiación solar	0
421	7	Sololá	701	Sololá	2	El tablón	11	Noviembre	2023-05-11T00:00:00	2024-11-08T22:00:00	2	Temperatura media	13.1
422	7	Sololá	701	Sololá	2	El tablón	11	Noviembre	2023-05-11T00:00:00	2024-11-08T22:00:00	4	Temperatura máxima	13.5
423	7	Sololá	701	Sololá	2	El tablón	11	Noviembre	2023-05-11T00:00:00	2024-11-08T22:00:00	3	Temperatura mínima	13.1
424	7	Sololá	701	Sololá	2	El tablón	11	Noviembre	2023-05-11T00:00:00	2024-11-08T22:00:00	5	Humedad	89
425	7	Sololá	701	Sololá	2	El tablón	11	Noviembre	2023-05-11T00:00:00	2024-11-08T22:00:00	6	Velocidad del viento	14.5
426	7	Sololá	701	Sololá	2	El tablón	11	Noviembre	2023-05-11T00:00:00	2024-11-08T22:00:00	7	Dirección del viento	14.48
427	7	Sololá	701	Sololá	2	El tablón	11	Noviembre	2023-05-11T00:00:00	2024-11-08T22:00:00	1	Precipitación	0.8
428	7	Sololá	701	Sololá	2	El tablón	11	Noviembre	2023-05-11T00:00:00	2024-11-08T22:00:00	8	Radiación solar	0
429	7	Sololá	701	Sololá	2	El tablón	11	Noviembre	2023-05-11T00:00:00	2024-11-08T23:00:00	2	Temperatura media	13.2
430	7	Sololá	701	Sololá	2	El tablón	11	Noviembre	2023-05-11T00:00:00	2024-11-08T23:00:00	4	Temperatura máxima	13.3
431	7	Sololá	701	Sololá	2	El tablón	11	Noviembre	2023-05-11T00:00:00	2024-11-08T23:00:00	3	Temperatura mínima	13.1
432	7	Sololá	701	Sololá	2	El tablón	11	Noviembre	2023-05-11T00:00:00	2024-11-08T23:00:00	5	Humedad	89
433	7	Sololá	701	Sololá	2	El tablón	11	Noviembre	2023-05-11T00:00:00	2024-11-08T23:00:00	6	Velocidad del viento	16.1
434	7	Sololá	701	Sololá	2	El tablón	11	Noviembre	2023-05-11T00:00:00	2024-11-08T23:00:00	7	Dirección del viento	16.09
435	7	Sololá	701	Sololá	2	El tablón	11	Noviembre	2023-05-11T00:00:00	2024-11-08T23:00:00	1	Precipitación	0.8
436	7	Sololá	701	Sololá	2	El tablón	11	Noviembre	2023-05-11T00:00:00	2024-11-08T23:00:00	8	Radiación solar	0
437	7	Sololá	701	Sololá	2	El tablón	11	Noviembre	2023-06-11T00:00:00	2024-11-08T00:00:00	2	Temperatura media	13.2
438	7	Sololá	701	Sololá	2	El tablón	11	Noviembre	2023-06-11T00:00:00	2024-11-08T00:00:00	4	Temperatura máxima	13.2
439	7	Sololá	701	Sololá	2	El tablón	11	Noviembre	2023-06-11T00:00:00	2024-11-08T00:00:00	3	Temperatura mínima	13.1
440	7	Sololá	701	Sololá	2	El tablón	11	Noviembre	2023-06-11T00:00:00	2024-11-08T00:00:00	5	Humedad	89
441	7	Sololá	701	Sololá	2	El tablón	11	Noviembre	2023-06-11T00:00:00	2024-11-08T00:00:00	6	Velocidad del viento	12.9
442	7	Sololá	701	Sololá	2	El tablón	11	Noviembre	2023-06-11T00:00:00	2024-11-08T00:00:00	7	Dirección del viento	12.87
443	7	Sololá	701	Sololá	2	El tablón	11	Noviembre	2023-06-11T00:00:00	2024-11-08T00:00:00	1	Precipitación	0.6
444	7	Sololá	701	Sololá	2	El tablón	11	Noviembre	2023-06-11T00:00:00	2024-11-08T00:00:00	8	Radiación solar	0
445	7	Sololá	701	Sololá	2	El tablón	11	Noviembre	2023-06-11T00:00:00	2024-11-08T01:00:00	2	Temperatura media	13.3
446	7	Sololá	701	Sololá	2	El tablón	11	Noviembre	2023-06-11T00:00:00	2024-11-08T01:00:00	4	Temperatura máxima	13.3
447	7	Sololá	701	Sololá	2	El tablón	11	Noviembre	2023-06-11T00:00:00	2024-11-08T01:00:00	3	Temperatura mínima	13.1
448	7	Sololá	701	Sololá	2	El tablón	11	Noviembre	2023-06-11T00:00:00	2024-11-08T01:00:00	5	Humedad	89
449	7	Sololá	701	Sololá	2	El tablón	11	Noviembre	2023-06-11T00:00:00	2024-11-08T01:00:00	6	Velocidad del viento	11.3
450	7	Sololá	701	Sololá	2	El tablón	11	Noviembre	2023-06-11T00:00:00	2024-11-08T01:00:00	7	Dirección del viento	11.27
451	7	Sololá	701	Sololá	2	El tablón	11	Noviembre	2023-06-11T00:00:00	2024-11-08T01:00:00	1	Precipitación	0
452	7	Sololá	701	Sololá	2	El tablón	11	Noviembre	2023-06-11T00:00:00	2024-11-08T01:00:00	8	Radiación solar	0
453	7	Sololá	701	Sololá	2	El tablón	11	Noviembre	2023-06-11T00:00:00	2024-11-08T02:00:00	2	Temperatura media	13.3
454	7	Sololá	701	Sololá	2	El tablón	11	Noviembre	2023-06-11T00:00:00	2024-11-08T02:00:00	4	Temperatura máxima	13.4
455	7	Sololá	701	Sololá	2	El tablón	11	Noviembre	2023-06-11T00:00:00	2024-11-08T02:00:00	3	Temperatura mínima	13.3
456	7	Sololá	701	Sololá	2	El tablón	11	Noviembre	2023-06-11T00:00:00	2024-11-08T02:00:00	5	Humedad	89
457	7	Sololá	701	Sololá	2	El tablón	11	Noviembre	2023-06-11T00:00:00	2024-11-08T02:00:00	6	Velocidad del viento	9.7
458	7	Sololá	701	Sololá	2	El tablón	11	Noviembre	2023-06-11T00:00:00	2024-11-08T02:00:00	7	Dirección del viento	9.66
459	7	Sololá	701	Sololá	2	El tablón	11	Noviembre	2023-06-11T00:00:00	2024-11-08T02:00:00	1	Precipitación	0.4
460	7	Sololá	701	Sololá	2	El tablón	11	Noviembre	2023-06-11T00:00:00	2024-11-08T02:00:00	8	Radiación solar	0
461	7	Sololá	701	Sololá	2	El tablón	11	Noviembre	2023-06-11T00:00:00	2024-11-08T03:00:00	2	Temperatura media	13.3
462	7	Sololá	701	Sololá	2	El tablón	11	Noviembre	2023-06-11T00:00:00	2024-11-08T03:00:00	4	Temperatura máxima	13.3
463	7	Sololá	701	Sololá	2	El tablón	11	Noviembre	2023-06-11T00:00:00	2024-11-08T03:00:00	3	Temperatura mínima	13.2
464	7	Sololá	701	Sololá	2	El tablón	11	Noviembre	2023-06-11T00:00:00	2024-11-08T03:00:00	5	Humedad	89
465	7	Sololá	701	Sololá	2	El tablón	11	Noviembre	2023-06-11T00:00:00	2024-11-08T03:00:00	6	Velocidad del viento	11.3
466	7	Sololá	701	Sololá	2	El tablón	11	Noviembre	2023-06-11T00:00:00	2024-11-08T03:00:00	7	Dirección del viento	11.27
467	7	Sololá	701	Sololá	2	El tablón	11	Noviembre	2023-06-11T00:00:00	2024-11-08T03:00:00	1	Precipitación	0
468	7	Sololá	701	Sololá	2	El tablón	11	Noviembre	2023-06-11T00:00:00	2024-11-08T03:00:00	8	Radiación solar	0
469	7	Sololá	701	Sololá	2	El tablón	11	Noviembre	2023-06-11T00:00:00	2024-11-08T04:00:00	2	Temperatura media	13.3
470	7	Sololá	701	Sololá	2	El tablón	11	Noviembre	2023-06-11T00:00:00	2024-11-08T04:00:00	4	Temperatura máxima	13.6
471	7	Sololá	701	Sololá	2	El tablón	11	Noviembre	2023-06-11T00:00:00	2024-11-08T04:00:00	3	Temperatura mínima	13.3
472	7	Sololá	701	Sololá	2	El tablón	11	Noviembre	2023-06-11T00:00:00	2024-11-08T04:00:00	5	Humedad	89
473	7	Sololá	701	Sololá	2	El tablón	11	Noviembre	2023-06-11T00:00:00	2024-11-08T04:00:00	6	Velocidad del viento	11.3
474	7	Sololá	701	Sololá	2	El tablón	11	Noviembre	2023-06-11T00:00:00	2024-11-08T04:00:00	7	Dirección del viento	11.27
475	7	Sololá	701	Sololá	2	El tablón	11	Noviembre	2023-06-11T00:00:00	2024-11-08T04:00:00	1	Precipitación	0
476	7	Sololá	701	Sololá	2	El tablón	11	Noviembre	2023-06-11T00:00:00	2024-11-08T04:00:00	8	Radiación solar	0
477	7	Sololá	701	Sololá	2	El tablón	11	Noviembre	2023-06-11T00:00:00	2024-11-08T05:00:00	2	Temperatura media	13.2
478	7	Sololá	701	Sololá	2	El tablón	11	Noviembre	2023-06-11T00:00:00	2024-11-08T05:00:00	4	Temperatura máxima	13.3
479	7	Sololá	701	Sololá	2	El tablón	11	Noviembre	2023-06-11T00:00:00	2024-11-08T05:00:00	3	Temperatura mínima	13.2
480	7	Sololá	701	Sololá	2	El tablón	11	Noviembre	2023-06-11T00:00:00	2024-11-08T05:00:00	5	Humedad	89
481	7	Sololá	701	Sololá	2	El tablón	11	Noviembre	2023-06-11T00:00:00	2024-11-08T05:00:00	6	Velocidad del viento	8
482	7	Sololá	701	Sololá	2	El tablón	11	Noviembre	2023-06-11T00:00:00	2024-11-08T05:00:00	7	Dirección del viento	8.05
483	7	Sololá	701	Sololá	2	El tablón	11	Noviembre	2023-06-11T00:00:00	2024-11-08T05:00:00	1	Precipitación	0.2
484	7	Sololá	701	Sololá	2	El tablón	11	Noviembre	2023-06-11T00:00:00	2024-11-08T05:00:00	8	Radiación solar	0
485	7	Sololá	701	Sololá	2	El tablón	11	Noviembre	2023-06-11T00:00:00	2024-11-08T06:00:00	2	Temperatura media	13.3
486	7	Sololá	701	Sololá	2	El tablón	11	Noviembre	2023-06-11T00:00:00	2024-11-08T06:00:00	4	Temperatura máxima	13.3
487	7	Sololá	701	Sololá	2	El tablón	11	Noviembre	2023-06-11T00:00:00	2024-11-08T06:00:00	3	Temperatura mínima	13.2
488	7	Sololá	701	Sololá	2	El tablón	11	Noviembre	2023-06-11T00:00:00	2024-11-08T06:00:00	5	Humedad	89
489	7	Sololá	701	Sololá	2	El tablón	11	Noviembre	2023-06-11T00:00:00	2024-11-08T06:00:00	6	Velocidad del viento	8
490	7	Sololá	701	Sololá	2	El tablón	11	Noviembre	2023-06-11T00:00:00	2024-11-08T06:00:00	7	Dirección del viento	8.05
491	7	Sololá	701	Sololá	2	El tablón	11	Noviembre	2023-06-11T00:00:00	2024-11-08T06:00:00	1	Precipitación	0.2
492	7	Sololá	701	Sololá	2	El tablón	11	Noviembre	2023-06-11T00:00:00	2024-11-08T06:00:00	8	Radiación solar	0
493	7	Sololá	701	Sololá	2	El tablón	11	Noviembre	2023-06-11T00:00:00	2024-11-08T07:00:00	2	Temperatura media	13.6
494	7	Sololá	701	Sololá	2	El tablón	11	Noviembre	2023-06-11T00:00:00	2024-11-08T07:00:00	4	Temperatura máxima	13.6
495	7	Sololá	701	Sololá	2	El tablón	11	Noviembre	2023-06-11T00:00:00	2024-11-08T07:00:00	3	Temperatura mínima	13.3
496	7	Sololá	701	Sololá	2	El tablón	11	Noviembre	2023-06-11T00:00:00	2024-11-08T07:00:00	5	Humedad	89
497	7	Sololá	701	Sololá	2	El tablón	11	Noviembre	2023-06-11T00:00:00	2024-11-08T07:00:00	6	Velocidad del viento	8
498	7	Sololá	701	Sololá	2	El tablón	11	Noviembre	2023-06-11T00:00:00	2024-11-08T07:00:00	7	Dirección del viento	8.05
499	7	Sololá	701	Sololá	2	El tablón	11	Noviembre	2023-06-11T00:00:00	2024-11-08T07:00:00	1	Precipitación	0
500	7	Sololá	701	Sololá	2	El tablón	11	Noviembre	2023-06-11T00:00:00	2024-11-08T07:00:00	8	Radiación solar	28
501	7	Sololá	701	Sololá	2	El tablón	11	Noviembre	2023-06-11T00:00:00	2024-11-08T08:00:00	2	Temperatura media	14.2
502	7	Sololá	701	Sololá	2	El tablón	11	Noviembre	2023-06-11T00:00:00	2024-11-08T08:00:00	4	Temperatura máxima	14.2
503	7	Sololá	701	Sololá	2	El tablón	11	Noviembre	2023-06-11T00:00:00	2024-11-08T08:00:00	3	Temperatura mínima	13.6
504	7	Sololá	701	Sololá	2	El tablón	11	Noviembre	2023-06-11T00:00:00	2024-11-08T08:00:00	5	Humedad	88
505	7	Sololá	701	Sololá	2	El tablón	11	Noviembre	2023-06-11T00:00:00	2024-11-08T08:00:00	6	Velocidad del viento	6.4
506	7	Sololá	701	Sololá	2	El tablón	11	Noviembre	2023-06-11T00:00:00	2024-11-08T08:00:00	7	Dirección del viento	6.44
507	7	Sololá	701	Sololá	2	El tablón	11	Noviembre	2023-06-11T00:00:00	2024-11-08T08:00:00	1	Precipitación	0
508	7	Sololá	701	Sololá	2	El tablón	11	Noviembre	2023-06-11T00:00:00	2024-11-08T08:00:00	8	Radiación solar	85
509	7	Sololá	701	Sololá	2	El tablón	11	Noviembre	2023-06-11T00:00:00	2024-11-08T09:00:00	2	Temperatura media	14.5
510	7	Sololá	701	Sololá	2	El tablón	11	Noviembre	2023-06-11T00:00:00	2024-11-08T09:00:00	4	Temperatura máxima	14.5
511	7	Sololá	701	Sololá	2	El tablón	11	Noviembre	2023-06-11T00:00:00	2024-11-08T09:00:00	3	Temperatura mínima	14.1
512	7	Sololá	701	Sololá	2	El tablón	11	Noviembre	2023-06-11T00:00:00	2024-11-08T09:00:00	5	Humedad	88
513	7	Sololá	701	Sololá	2	El tablón	11	Noviembre	2023-06-11T00:00:00	2024-11-08T09:00:00	6	Velocidad del viento	9.7
514	7	Sololá	701	Sololá	2	El tablón	11	Noviembre	2023-06-11T00:00:00	2024-11-08T09:00:00	7	Dirección del viento	9.66
515	7	Sololá	701	Sololá	2	El tablón	11	Noviembre	2023-06-11T00:00:00	2024-11-08T09:00:00	1	Precipitación	0
516	7	Sololá	701	Sololá	2	El tablón	11	Noviembre	2023-06-11T00:00:00	2024-11-08T09:00:00	8	Radiación solar	150
517	7	Sololá	701	Sololá	2	El tablón	11	Noviembre	2023-06-11T00:00:00	2024-11-08T10:00:00	2	Temperatura media	14.9
518	7	Sololá	701	Sololá	2	El tablón	11	Noviembre	2023-06-11T00:00:00	2024-11-08T10:00:00	4	Temperatura máxima	15
519	7	Sololá	701	Sololá	2	El tablón	11	Noviembre	2023-06-11T00:00:00	2024-11-08T10:00:00	3	Temperatura mínima	14.5
520	7	Sololá	701	Sololá	2	El tablón	11	Noviembre	2023-06-11T00:00:00	2024-11-08T10:00:00	5	Humedad	89
521	7	Sololá	701	Sololá	2	El tablón	11	Noviembre	2023-06-11T00:00:00	2024-11-08T10:00:00	6	Velocidad del viento	9.7
522	7	Sololá	701	Sololá	2	El tablón	11	Noviembre	2023-06-11T00:00:00	2024-11-08T10:00:00	7	Dirección del viento	9.66
523	7	Sololá	701	Sololá	2	El tablón	11	Noviembre	2023-06-11T00:00:00	2024-11-08T10:00:00	1	Precipitación	0
524	7	Sololá	701	Sololá	2	El tablón	11	Noviembre	2023-06-11T00:00:00	2024-11-08T10:00:00	8	Radiación solar	231
525	7	Sololá	701	Sololá	2	El tablón	11	Noviembre	2023-06-11T00:00:00	2024-11-08T11:00:00	2	Temperatura media	15.8
526	7	Sololá	701	Sololá	2	El tablón	11	Noviembre	2023-06-11T00:00:00	2024-11-08T11:00:00	4	Temperatura máxima	15.8
527	7	Sololá	701	Sololá	2	El tablón	11	Noviembre	2023-06-11T00:00:00	2024-11-08T11:00:00	3	Temperatura mínima	14.8
528	7	Sololá	701	Sololá	2	El tablón	11	Noviembre	2023-06-11T00:00:00	2024-11-08T11:00:00	5	Humedad	88
529	7	Sololá	701	Sololá	2	El tablón	11	Noviembre	2023-06-11T00:00:00	2024-11-08T11:00:00	6	Velocidad del viento	8
530	7	Sololá	701	Sololá	2	El tablón	11	Noviembre	2023-06-11T00:00:00	2024-11-08T11:00:00	7	Dirección del viento	8.05
531	7	Sololá	701	Sololá	2	El tablón	11	Noviembre	2023-06-11T00:00:00	2024-11-08T11:00:00	1	Precipitación	0
532	7	Sololá	701	Sololá	2	El tablón	11	Noviembre	2023-06-11T00:00:00	2024-11-08T11:00:00	8	Radiación solar	328
533	7	Sololá	701	Sololá	2	El tablón	11	Noviembre	2023-06-11T00:00:00	2024-11-08T12:00:00	2	Temperatura media	15.7
534	7	Sololá	701	Sololá	2	El tablón	11	Noviembre	2023-06-11T00:00:00	2024-11-08T12:00:00	4	Temperatura máxima	16.1
535	7	Sololá	701	Sololá	2	El tablón	11	Noviembre	2023-06-11T00:00:00	2024-11-08T12:00:00	3	Temperatura mínima	15.6
536	7	Sololá	701	Sololá	2	El tablón	11	Noviembre	2023-06-11T00:00:00	2024-11-08T12:00:00	5	Humedad	86
537	7	Sololá	701	Sololá	2	El tablón	11	Noviembre	2023-06-11T00:00:00	2024-11-08T12:00:00	6	Velocidad del viento	11.3
538	7	Sololá	701	Sololá	2	El tablón	11	Noviembre	2023-06-11T00:00:00	2024-11-08T12:00:00	7	Dirección del viento	11.27
539	7	Sololá	701	Sololá	2	El tablón	11	Noviembre	2023-06-11T00:00:00	2024-11-08T12:00:00	1	Precipitación	0
540	7	Sololá	701	Sololá	2	El tablón	11	Noviembre	2023-06-11T00:00:00	2024-11-08T12:00:00	8	Radiación solar	295
541	7	Sololá	701	Sololá	2	El tablón	11	Noviembre	2023-06-11T00:00:00	2024-11-08T13:00:00	2	Temperatura media	16.1
542	7	Sololá	701	Sololá	2	El tablón	11	Noviembre	2023-06-11T00:00:00	2024-11-08T13:00:00	4	Temperatura máxima	16.3
543	7	Sololá	701	Sololá	2	El tablón	11	Noviembre	2023-06-11T00:00:00	2024-11-08T13:00:00	3	Temperatura mínima	15.6
544	7	Sololá	701	Sololá	2	El tablón	11	Noviembre	2023-06-11T00:00:00	2024-11-08T13:00:00	5	Humedad	86
545	7	Sololá	701	Sololá	2	El tablón	11	Noviembre	2023-06-11T00:00:00	2024-11-08T13:00:00	6	Velocidad del viento	8
546	7	Sololá	701	Sololá	2	El tablón	11	Noviembre	2023-06-11T00:00:00	2024-11-08T13:00:00	7	Dirección del viento	8.05
547	7	Sololá	701	Sololá	2	El tablón	11	Noviembre	2023-06-11T00:00:00	2024-11-08T13:00:00	1	Precipitación	0
548	7	Sololá	701	Sololá	2	El tablón	11	Noviembre	2023-06-11T00:00:00	2024-11-08T13:00:00	8	Radiación solar	223
549	7	Sololá	701	Sololá	2	El tablón	11	Noviembre	2023-06-11T00:00:00	2024-11-08T14:00:00	2	Temperatura media	16.9
550	7	Sololá	701	Sololá	2	El tablón	11	Noviembre	2023-06-11T00:00:00	2024-11-08T14:00:00	4	Temperatura máxima	16.9
551	7	Sololá	701	Sololá	2	El tablón	11	Noviembre	2023-06-11T00:00:00	2024-11-08T14:00:00	3	Temperatura mínima	16.1
552	7	Sololá	701	Sololá	2	El tablón	11	Noviembre	2023-06-11T00:00:00	2024-11-08T14:00:00	5	Humedad	85
553	7	Sololá	701	Sololá	2	El tablón	11	Noviembre	2023-06-11T00:00:00	2024-11-08T14:00:00	6	Velocidad del viento	6.4
554	7	Sololá	701	Sololá	2	El tablón	11	Noviembre	2023-06-11T00:00:00	2024-11-08T14:00:00	7	Dirección del viento	6.44
555	7	Sololá	701	Sololá	2	El tablón	11	Noviembre	2023-06-11T00:00:00	2024-11-08T14:00:00	1	Precipitación	0
556	7	Sololá	701	Sololá	2	El tablón	11	Noviembre	2023-06-11T00:00:00	2024-11-08T14:00:00	8	Radiación solar	271
557	7	Sololá	701	Sololá	2	El tablón	11	Noviembre	2023-06-11T00:00:00	2024-11-08T15:00:00	2	Temperatura media	16.7
558	7	Sololá	701	Sololá	2	El tablón	11	Noviembre	2023-06-11T00:00:00	2024-11-08T15:00:00	4	Temperatura máxima	16.9
559	7	Sololá	701	Sololá	2	El tablón	11	Noviembre	2023-06-11T00:00:00	2024-11-08T15:00:00	3	Temperatura mínima	16.6
560	7	Sololá	701	Sololá	2	El tablón	11	Noviembre	2023-06-11T00:00:00	2024-11-08T15:00:00	5	Humedad	85
561	7	Sololá	701	Sololá	2	El tablón	11	Noviembre	2023-06-11T00:00:00	2024-11-08T15:00:00	6	Velocidad del viento	9.7
562	7	Sololá	701	Sololá	2	El tablón	11	Noviembre	2023-06-11T00:00:00	2024-11-08T15:00:00	7	Dirección del viento	9.66
563	7	Sololá	701	Sololá	2	El tablón	11	Noviembre	2023-06-11T00:00:00	2024-11-08T15:00:00	1	Precipitación	0
564	7	Sololá	701	Sololá	2	El tablón	11	Noviembre	2023-06-11T00:00:00	2024-11-08T15:00:00	8	Radiación solar	265
565	7	Sololá	701	Sololá	2	El tablón	11	Noviembre	2023-06-11T00:00:00	2024-11-08T16:00:00	2	Temperatura media	16.4
566	7	Sololá	701	Sololá	2	El tablón	11	Noviembre	2023-06-11T00:00:00	2024-11-08T16:00:00	4	Temperatura máxima	16.7
567	7	Sololá	701	Sololá	2	El tablón	11	Noviembre	2023-06-11T00:00:00	2024-11-08T16:00:00	3	Temperatura mínima	16.1
568	7	Sololá	701	Sololá	2	El tablón	11	Noviembre	2023-06-11T00:00:00	2024-11-08T16:00:00	5	Humedad	84
569	7	Sololá	701	Sololá	2	El tablón	11	Noviembre	2023-06-11T00:00:00	2024-11-08T16:00:00	6	Velocidad del viento	9.7
570	7	Sololá	701	Sololá	2	El tablón	11	Noviembre	2023-06-11T00:00:00	2024-11-08T16:00:00	7	Dirección del viento	9.66
571	7	Sololá	701	Sololá	2	El tablón	11	Noviembre	2023-06-11T00:00:00	2024-11-08T16:00:00	1	Precipitación	0
572	7	Sololá	701	Sololá	2	El tablón	11	Noviembre	2023-06-11T00:00:00	2024-11-08T16:00:00	8	Radiación solar	149
573	7	Sololá	701	Sololá	2	El tablón	11	Noviembre	2023-06-11T00:00:00	2024-11-08T17:00:00	2	Temperatura media	14.9
574	7	Sololá	701	Sololá	2	El tablón	11	Noviembre	2023-06-11T00:00:00	2024-11-08T17:00:00	4	Temperatura máxima	16.6
575	7	Sololá	701	Sololá	2	El tablón	11	Noviembre	2023-06-11T00:00:00	2024-11-08T17:00:00	3	Temperatura mínima	14.9
576	7	Sololá	701	Sololá	2	El tablón	11	Noviembre	2023-06-11T00:00:00	2024-11-08T17:00:00	5	Humedad	89
577	7	Sololá	701	Sololá	2	El tablón	11	Noviembre	2023-06-11T00:00:00	2024-11-08T17:00:00	6	Velocidad del viento	11.3
578	7	Sololá	701	Sololá	2	El tablón	11	Noviembre	2023-06-11T00:00:00	2024-11-08T17:00:00	7	Dirección del viento	11.27
579	7	Sololá	701	Sololá	2	El tablón	11	Noviembre	2023-06-11T00:00:00	2024-11-08T17:00:00	1	Precipitación	0
580	7	Sololá	701	Sololá	2	El tablón	11	Noviembre	2023-06-11T00:00:00	2024-11-08T17:00:00	8	Radiación solar	104
581	7	Sololá	701	Sololá	2	El tablón	11	Noviembre	2023-06-11T00:00:00	2024-11-08T18:00:00	2	Temperatura media	14.6
582	7	Sololá	701	Sololá	2	El tablón	11	Noviembre	2023-06-11T00:00:00	2024-11-08T18:00:00	4	Temperatura máxima	14.9
583	7	Sololá	701	Sololá	2	El tablón	11	Noviembre	2023-06-11T00:00:00	2024-11-08T18:00:00	3	Temperatura mínima	14.6
584	7	Sololá	701	Sololá	2	El tablón	11	Noviembre	2023-06-11T00:00:00	2024-11-08T18:00:00	5	Humedad	88
585	7	Sololá	701	Sololá	2	El tablón	11	Noviembre	2023-06-11T00:00:00	2024-11-08T18:00:00	6	Velocidad del viento	8
586	7	Sololá	701	Sololá	2	El tablón	11	Noviembre	2023-06-11T00:00:00	2024-11-08T18:00:00	7	Dirección del viento	8.05
587	7	Sololá	701	Sololá	2	El tablón	11	Noviembre	2023-06-11T00:00:00	2024-11-08T18:00:00	1	Precipitación	0
588	7	Sololá	701	Sololá	2	El tablón	11	Noviembre	2023-06-11T00:00:00	2024-11-08T18:00:00	8	Radiación solar	2
589	7	Sololá	701	Sololá	2	El tablón	11	Noviembre	2023-06-11T00:00:00	2024-11-08T19:00:00	2	Temperatura media	14.6
590	7	Sololá	701	Sololá	2	El tablón	11	Noviembre	2023-06-11T00:00:00	2024-11-08T19:00:00	4	Temperatura máxima	14.7
591	7	Sololá	701	Sololá	2	El tablón	11	Noviembre	2023-06-11T00:00:00	2024-11-08T19:00:00	3	Temperatura mínima	14.6
592	7	Sololá	701	Sololá	2	El tablón	11	Noviembre	2023-06-11T00:00:00	2024-11-08T19:00:00	5	Humedad	88
593	7	Sololá	701	Sololá	2	El tablón	11	Noviembre	2023-06-11T00:00:00	2024-11-08T19:00:00	6	Velocidad del viento	6.4
594	7	Sololá	701	Sololá	2	El tablón	11	Noviembre	2023-06-11T00:00:00	2024-11-08T19:00:00	7	Dirección del viento	6.44
595	7	Sololá	701	Sololá	2	El tablón	11	Noviembre	2023-06-11T00:00:00	2024-11-08T19:00:00	1	Precipitación	0
596	7	Sololá	701	Sololá	2	El tablón	11	Noviembre	2023-06-11T00:00:00	2024-11-08T19:00:00	8	Radiación solar	0
597	7	Sololá	701	Sololá	2	El tablón	11	Noviembre	2023-06-11T00:00:00	2024-11-08T20:00:00	2	Temperatura media	14.5
598	7	Sololá	701	Sololá	2	El tablón	11	Noviembre	2023-06-11T00:00:00	2024-11-08T20:00:00	4	Temperatura máxima	14.7
599	7	Sololá	701	Sololá	2	El tablón	11	Noviembre	2023-06-11T00:00:00	2024-11-08T20:00:00	3	Temperatura mínima	14.5
600	7	Sololá	701	Sololá	2	El tablón	11	Noviembre	2023-06-11T00:00:00	2024-11-08T20:00:00	5	Humedad	89
601	7	Sololá	701	Sololá	2	El tablón	11	Noviembre	2023-06-11T00:00:00	2024-11-08T20:00:00	6	Velocidad del viento	6.4
602	7	Sololá	701	Sololá	2	El tablón	11	Noviembre	2023-06-11T00:00:00	2024-11-08T20:00:00	7	Dirección del viento	6.44
603	7	Sololá	701	Sololá	2	El tablón	11	Noviembre	2023-06-11T00:00:00	2024-11-08T20:00:00	1	Precipitación	0
604	7	Sololá	701	Sololá	2	El tablón	11	Noviembre	2023-06-11T00:00:00	2024-11-08T20:00:00	8	Radiación solar	0
605	7	Sololá	701	Sololá	2	El tablón	11	Noviembre	2023-06-11T00:00:00	2024-11-08T21:00:00	2	Temperatura media	14.2
606	7	Sololá	701	Sololá	2	El tablón	11	Noviembre	2023-06-11T00:00:00	2024-11-08T21:00:00	4	Temperatura máxima	14.5
607	7	Sololá	701	Sololá	2	El tablón	11	Noviembre	2023-06-11T00:00:00	2024-11-08T21:00:00	3	Temperatura mínima	14.1
608	7	Sololá	701	Sololá	2	El tablón	11	Noviembre	2023-06-11T00:00:00	2024-11-08T21:00:00	5	Humedad	89
609	7	Sololá	701	Sololá	2	El tablón	11	Noviembre	2023-06-11T00:00:00	2024-11-08T21:00:00	6	Velocidad del viento	6.4
610	7	Sololá	701	Sololá	2	El tablón	11	Noviembre	2023-06-11T00:00:00	2024-11-08T21:00:00	7	Dirección del viento	6.44
611	7	Sololá	701	Sololá	2	El tablón	11	Noviembre	2023-06-11T00:00:00	2024-11-08T21:00:00	1	Precipitación	0
612	7	Sololá	701	Sololá	2	El tablón	11	Noviembre	2023-06-11T00:00:00	2024-11-08T21:00:00	8	Radiación solar	0
613	7	Sololá	701	Sololá	2	El tablón	11	Noviembre	2023-06-11T00:00:00	2024-11-08T22:00:00	2	Temperatura media	14.2
614	7	Sololá	701	Sololá	2	El tablón	11	Noviembre	2023-06-11T00:00:00	2024-11-08T22:00:00	4	Temperatura máxima	14.3
615	7	Sololá	701	Sololá	2	El tablón	11	Noviembre	2023-06-11T00:00:00	2024-11-08T22:00:00	3	Temperatura mínima	14.2
616	7	Sololá	701	Sololá	2	El tablón	11	Noviembre	2023-06-11T00:00:00	2024-11-08T22:00:00	5	Humedad	89
617	7	Sololá	701	Sololá	2	El tablón	11	Noviembre	2023-06-11T00:00:00	2024-11-08T22:00:00	6	Velocidad del viento	9.7
618	7	Sololá	701	Sololá	2	El tablón	11	Noviembre	2023-06-11T00:00:00	2024-11-08T22:00:00	7	Dirección del viento	9.66
619	7	Sololá	701	Sololá	2	El tablón	11	Noviembre	2023-06-11T00:00:00	2024-11-08T22:00:00	1	Precipitación	0
620	7	Sololá	701	Sololá	2	El tablón	11	Noviembre	2023-06-11T00:00:00	2024-11-08T22:00:00	8	Radiación solar	0
621	7	Sololá	701	Sololá	2	El tablón	11	Noviembre	2023-06-11T00:00:00	2024-11-08T23:00:00	2	Temperatura media	14.2
622	7	Sololá	701	Sololá	2	El tablón	11	Noviembre	2023-06-11T00:00:00	2024-11-08T23:00:00	4	Temperatura máxima	14.2
623	7	Sololá	701	Sololá	2	El tablón	11	Noviembre	2023-06-11T00:00:00	2024-11-08T23:00:00	3	Temperatura mínima	14.1
624	7	Sololá	701	Sololá	2	El tablón	11	Noviembre	2023-06-11T00:00:00	2024-11-08T23:00:00	5	Humedad	89
625	7	Sololá	701	Sololá	2	El tablón	11	Noviembre	2023-06-11T00:00:00	2024-11-08T23:00:00	6	Velocidad del viento	9.7
626	7	Sololá	701	Sololá	2	El tablón	11	Noviembre	2023-06-11T00:00:00	2024-11-08T23:00:00	7	Dirección del viento	9.66
627	7	Sololá	701	Sololá	2	El tablón	11	Noviembre	2023-06-11T00:00:00	2024-11-08T23:00:00	1	Precipitación	0
628	7	Sololá	701	Sololá	2	El tablón	11	Noviembre	2023-06-11T00:00:00	2024-11-08T23:00:00	8	Radiación solar	0
629	7	Sololá	701	Sololá	2	El tablón	11	Noviembre	2023-07-11T00:00:00	2024-11-08T00:00:00	2	Temperatura media	14.1
630	7	Sololá	701	Sololá	2	El tablón	11	Noviembre	2023-07-11T00:00:00	2024-11-08T00:00:00	4	Temperatura máxima	14.2
631	7	Sololá	701	Sololá	2	El tablón	11	Noviembre	2023-07-11T00:00:00	2024-11-08T00:00:00	3	Temperatura mínima	14.1
632	7	Sololá	701	Sololá	2	El tablón	11	Noviembre	2023-07-11T00:00:00	2024-11-08T00:00:00	5	Humedad	89
633	7	Sololá	701	Sololá	2	El tablón	11	Noviembre	2023-07-11T00:00:00	2024-11-08T00:00:00	6	Velocidad del viento	8
634	7	Sololá	701	Sololá	2	El tablón	11	Noviembre	2023-07-11T00:00:00	2024-11-08T00:00:00	7	Dirección del viento	8.05
635	7	Sololá	701	Sololá	2	El tablón	11	Noviembre	2023-07-11T00:00:00	2024-11-08T00:00:00	1	Precipitación	0
636	7	Sololá	701	Sololá	2	El tablón	11	Noviembre	2023-07-11T00:00:00	2024-11-08T00:00:00	8	Radiación solar	0
637	7	Sololá	701	Sololá	2	El tablón	11	Noviembre	2023-07-11T00:00:00	2024-11-08T01:00:00	2	Temperatura media	13.9
638	7	Sololá	701	Sololá	2	El tablón	11	Noviembre	2023-07-11T00:00:00	2024-11-08T01:00:00	4	Temperatura máxima	14.1
639	7	Sololá	701	Sololá	2	El tablón	11	Noviembre	2023-07-11T00:00:00	2024-11-08T01:00:00	3	Temperatura mínima	13.9
640	7	Sololá	701	Sololá	2	El tablón	11	Noviembre	2023-07-11T00:00:00	2024-11-08T01:00:00	5	Humedad	89
641	7	Sololá	701	Sololá	2	El tablón	11	Noviembre	2023-07-11T00:00:00	2024-11-08T01:00:00	6	Velocidad del viento	6.4
642	7	Sololá	701	Sololá	2	El tablón	11	Noviembre	2023-07-11T00:00:00	2024-11-08T01:00:00	7	Dirección del viento	6.44
643	7	Sololá	701	Sololá	2	El tablón	11	Noviembre	2023-07-11T00:00:00	2024-11-08T01:00:00	1	Precipitación	0
644	7	Sololá	701	Sololá	2	El tablón	11	Noviembre	2023-07-11T00:00:00	2024-11-08T01:00:00	8	Radiación solar	0
645	7	Sololá	701	Sololá	2	El tablón	11	Noviembre	2023-07-11T00:00:00	2024-11-08T02:00:00	2	Temperatura media	13.9
646	7	Sololá	701	Sololá	2	El tablón	11	Noviembre	2023-07-11T00:00:00	2024-11-08T02:00:00	4	Temperatura máxima	13.9
647	7	Sololá	701	Sololá	2	El tablón	11	Noviembre	2023-07-11T00:00:00	2024-11-08T02:00:00	3	Temperatura mínima	13.8
648	7	Sololá	701	Sololá	2	El tablón	11	Noviembre	2023-07-11T00:00:00	2024-11-08T02:00:00	5	Humedad	89
649	7	Sololá	701	Sololá	2	El tablón	11	Noviembre	2023-07-11T00:00:00	2024-11-08T02:00:00	6	Velocidad del viento	12.9
650	7	Sololá	701	Sololá	2	El tablón	11	Noviembre	2023-07-11T00:00:00	2024-11-08T02:00:00	7	Dirección del viento	12.87
651	7	Sololá	701	Sololá	2	El tablón	11	Noviembre	2023-07-11T00:00:00	2024-11-08T02:00:00	1	Precipitación	0
652	7	Sololá	701	Sololá	2	El tablón	11	Noviembre	2023-07-11T00:00:00	2024-11-08T02:00:00	8	Radiación solar	0
653	7	Sololá	701	Sololá	2	El tablón	11	Noviembre	2023-07-11T00:00:00	2024-11-08T03:00:00	2	Temperatura media	13.6
654	7	Sololá	701	Sololá	2	El tablón	11	Noviembre	2023-07-11T00:00:00	2024-11-08T03:00:00	4	Temperatura máxima	13.9
655	7	Sololá	701	Sololá	2	El tablón	11	Noviembre	2023-07-11T00:00:00	2024-11-08T03:00:00	3	Temperatura mínima	13.6
656	7	Sololá	701	Sololá	2	El tablón	11	Noviembre	2023-07-11T00:00:00	2024-11-08T03:00:00	5	Humedad	89
657	7	Sololá	701	Sololá	2	El tablón	11	Noviembre	2023-07-11T00:00:00	2024-11-08T03:00:00	6	Velocidad del viento	14.5
658	7	Sololá	701	Sololá	2	El tablón	11	Noviembre	2023-07-11T00:00:00	2024-11-08T03:00:00	7	Dirección del viento	14.48
659	7	Sololá	701	Sololá	2	El tablón	11	Noviembre	2023-07-11T00:00:00	2024-11-08T03:00:00	1	Precipitación	0
660	7	Sololá	701	Sololá	2	El tablón	11	Noviembre	2023-07-11T00:00:00	2024-11-08T03:00:00	8	Radiación solar	0
661	7	Sololá	701	Sololá	2	El tablón	11	Noviembre	2023-07-11T00:00:00	2024-11-08T04:00:00	2	Temperatura media	13.9
662	7	Sololá	701	Sololá	2	El tablón	11	Noviembre	2023-07-11T00:00:00	2024-11-08T04:00:00	4	Temperatura máxima	14
663	7	Sololá	701	Sololá	2	El tablón	11	Noviembre	2023-07-11T00:00:00	2024-11-08T04:00:00	3	Temperatura mínima	13.7
664	7	Sololá	701	Sololá	2	El tablón	11	Noviembre	2023-07-11T00:00:00	2024-11-08T04:00:00	5	Humedad	89
665	7	Sololá	701	Sololá	2	El tablón	11	Noviembre	2023-07-11T00:00:00	2024-11-08T04:00:00	6	Velocidad del viento	16.1
666	7	Sololá	701	Sololá	2	El tablón	11	Noviembre	2023-07-11T00:00:00	2024-11-08T04:00:00	7	Dirección del viento	16.09
667	7	Sololá	701	Sololá	2	El tablón	11	Noviembre	2023-07-11T00:00:00	2024-11-08T04:00:00	1	Precipitación	0
668	7	Sololá	701	Sololá	2	El tablón	11	Noviembre	2023-07-11T00:00:00	2024-11-08T04:00:00	8	Radiación solar	0
669	7	Sololá	701	Sololá	2	El tablón	11	Noviembre	2023-07-11T00:00:00	2024-11-08T05:00:00	2	Temperatura media	14.1
670	7	Sololá	701	Sololá	2	El tablón	11	Noviembre	2023-07-11T00:00:00	2024-11-08T05:00:00	4	Temperatura máxima	14.1
671	7	Sololá	701	Sololá	2	El tablón	11	Noviembre	2023-07-11T00:00:00	2024-11-08T05:00:00	3	Temperatura mínima	13.7
672	7	Sololá	701	Sololá	2	El tablón	11	Noviembre	2023-07-11T00:00:00	2024-11-08T05:00:00	5	Humedad	89
673	7	Sololá	701	Sololá	2	El tablón	11	Noviembre	2023-07-11T00:00:00	2024-11-08T05:00:00	6	Velocidad del viento	16.1
674	7	Sololá	701	Sololá	2	El tablón	11	Noviembre	2023-07-11T00:00:00	2024-11-08T05:00:00	7	Dirección del viento	16.09
675	7	Sololá	701	Sololá	2	El tablón	11	Noviembre	2023-07-11T00:00:00	2024-11-08T05:00:00	1	Precipitación	0
676	7	Sololá	701	Sololá	2	El tablón	11	Noviembre	2023-07-11T00:00:00	2024-11-08T05:00:00	8	Radiación solar	0
677	7	Sololá	701	Sololá	2	El tablón	11	Noviembre	2023-07-11T00:00:00	2024-11-08T06:00:00	2	Temperatura media	14.1
678	7	Sololá	701	Sololá	2	El tablón	11	Noviembre	2023-07-11T00:00:00	2024-11-08T06:00:00	4	Temperatura máxima	14.3
679	7	Sololá	701	Sololá	2	El tablón	11	Noviembre	2023-07-11T00:00:00	2024-11-08T06:00:00	3	Temperatura mínima	14.1
680	7	Sololá	701	Sololá	2	El tablón	11	Noviembre	2023-07-11T00:00:00	2024-11-08T06:00:00	5	Humedad	89
681	7	Sololá	701	Sololá	2	El tablón	11	Noviembre	2023-07-11T00:00:00	2024-11-08T06:00:00	6	Velocidad del viento	14.5
682	7	Sololá	701	Sololá	2	El tablón	11	Noviembre	2023-07-11T00:00:00	2024-11-08T06:00:00	7	Dirección del viento	14.48
683	7	Sololá	701	Sololá	2	El tablón	11	Noviembre	2023-07-11T00:00:00	2024-11-08T06:00:00	1	Precipitación	0
684	7	Sololá	701	Sololá	2	El tablón	11	Noviembre	2023-07-11T00:00:00	2024-11-08T06:00:00	8	Radiación solar	0
685	7	Sololá	701	Sololá	2	El tablón	11	Noviembre	2023-07-11T00:00:00	2024-11-08T07:00:00	2	Temperatura media	14.2
686	7	Sololá	701	Sololá	2	El tablón	11	Noviembre	2023-07-11T00:00:00	2024-11-08T07:00:00	4	Temperatura máxima	14.3
687	7	Sololá	701	Sololá	2	El tablón	11	Noviembre	2023-07-11T00:00:00	2024-11-08T07:00:00	3	Temperatura mínima	14
688	7	Sololá	701	Sololá	2	El tablón	11	Noviembre	2023-07-11T00:00:00	2024-11-08T07:00:00	5	Humedad	88
689	7	Sololá	701	Sololá	2	El tablón	11	Noviembre	2023-07-11T00:00:00	2024-11-08T07:00:00	6	Velocidad del viento	16.1
690	7	Sololá	701	Sololá	2	El tablón	11	Noviembre	2023-07-11T00:00:00	2024-11-08T07:00:00	7	Dirección del viento	16.09
691	7	Sololá	701	Sololá	2	El tablón	11	Noviembre	2023-07-11T00:00:00	2024-11-08T07:00:00	1	Precipitación	0
692	7	Sololá	701	Sololá	2	El tablón	11	Noviembre	2023-07-11T00:00:00	2024-11-08T07:00:00	8	Radiación solar	28
693	7	Sololá	701	Sololá	2	El tablón	11	Noviembre	2023-07-11T00:00:00	2024-11-08T08:00:00	2	Temperatura media	15.2
694	7	Sololá	701	Sololá	2	El tablón	11	Noviembre	2023-07-11T00:00:00	2024-11-08T08:00:00	4	Temperatura máxima	15.4
695	7	Sololá	701	Sololá	2	El tablón	11	Noviembre	2023-07-11T00:00:00	2024-11-08T08:00:00	3	Temperatura mínima	14.2
696	7	Sololá	701	Sololá	2	El tablón	11	Noviembre	2023-07-11T00:00:00	2024-11-08T08:00:00	5	Humedad	86
697	7	Sololá	701	Sololá	2	El tablón	11	Noviembre	2023-07-11T00:00:00	2024-11-08T08:00:00	6	Velocidad del viento	17.7
698	7	Sololá	701	Sololá	2	El tablón	11	Noviembre	2023-07-11T00:00:00	2024-11-08T08:00:00	7	Dirección del viento	17.7
699	7	Sololá	701	Sololá	2	El tablón	11	Noviembre	2023-07-11T00:00:00	2024-11-08T08:00:00	1	Precipitación	0
700	7	Sololá	701	Sololá	2	El tablón	11	Noviembre	2023-07-11T00:00:00	2024-11-08T08:00:00	8	Radiación solar	201
701	7	Sololá	701	Sololá	2	El tablón	11	Noviembre	2023-07-11T00:00:00	2024-11-08T09:00:00	2	Temperatura media	15.6
702	7	Sololá	701	Sololá	2	El tablón	11	Noviembre	2023-07-11T00:00:00	2024-11-08T09:00:00	4	Temperatura máxima	15.6
703	7	Sololá	701	Sololá	2	El tablón	11	Noviembre	2023-07-11T00:00:00	2024-11-08T09:00:00	3	Temperatura mínima	15
704	7	Sololá	701	Sololá	2	El tablón	11	Noviembre	2023-07-11T00:00:00	2024-11-08T09:00:00	5	Humedad	86
705	7	Sololá	701	Sololá	2	El tablón	11	Noviembre	2023-07-11T00:00:00	2024-11-08T09:00:00	6	Velocidad del viento	14.5
706	7	Sololá	701	Sololá	2	El tablón	11	Noviembre	2023-07-11T00:00:00	2024-11-08T09:00:00	7	Dirección del viento	14.48
707	7	Sololá	701	Sololá	2	El tablón	11	Noviembre	2023-07-11T00:00:00	2024-11-08T09:00:00	1	Precipitación	0
708	7	Sololá	701	Sololá	2	El tablón	11	Noviembre	2023-07-11T00:00:00	2024-11-08T09:00:00	8	Radiación solar	241
709	7	Sololá	701	Sololá	2	El tablón	11	Noviembre	2023-07-11T00:00:00	2024-11-08T10:00:00	2	Temperatura media	15.8
710	7	Sololá	701	Sololá	2	El tablón	11	Noviembre	2023-07-11T00:00:00	2024-11-08T10:00:00	4	Temperatura máxima	15.9
711	7	Sololá	701	Sololá	2	El tablón	11	Noviembre	2023-07-11T00:00:00	2024-11-08T10:00:00	3	Temperatura mínima	15.4
712	7	Sololá	701	Sololá	2	El tablón	11	Noviembre	2023-07-11T00:00:00	2024-11-08T10:00:00	5	Humedad	86
713	7	Sololá	701	Sololá	2	El tablón	11	Noviembre	2023-07-11T00:00:00	2024-11-08T10:00:00	6	Velocidad del viento	16.1
714	7	Sololá	701	Sololá	2	El tablón	11	Noviembre	2023-07-11T00:00:00	2024-11-08T10:00:00	7	Dirección del viento	16.09
715	7	Sololá	701	Sololá	2	El tablón	11	Noviembre	2023-07-11T00:00:00	2024-11-08T10:00:00	1	Precipitación	0
716	7	Sololá	701	Sololá	2	El tablón	11	Noviembre	2023-07-11T00:00:00	2024-11-08T10:00:00	8	Radiación solar	268
717	7	Sololá	701	Sololá	2	El tablón	11	Noviembre	2023-07-11T00:00:00	2024-11-08T11:00:00	2	Temperatura media	16.9
718	7	Sololá	701	Sololá	2	El tablón	11	Noviembre	2023-07-11T00:00:00	2024-11-08T11:00:00	4	Temperatura máxima	16.9
719	7	Sololá	701	Sololá	2	El tablón	11	Noviembre	2023-07-11T00:00:00	2024-11-08T11:00:00	3	Temperatura mínima	15.3
720	7	Sololá	701	Sololá	2	El tablón	11	Noviembre	2023-07-11T00:00:00	2024-11-08T11:00:00	5	Humedad	85
721	7	Sololá	701	Sololá	2	El tablón	11	Noviembre	2023-07-11T00:00:00	2024-11-08T11:00:00	6	Velocidad del viento	14.5
722	7	Sololá	701	Sololá	2	El tablón	11	Noviembre	2023-07-11T00:00:00	2024-11-08T11:00:00	7	Dirección del viento	14.48
723	7	Sololá	701	Sololá	2	El tablón	11	Noviembre	2023-07-11T00:00:00	2024-11-08T11:00:00	1	Precipitación	0
724	7	Sololá	701	Sololá	2	El tablón	11	Noviembre	2023-07-11T00:00:00	2024-11-08T11:00:00	8	Radiación solar	350
725	7	Sololá	701	Sololá	2	El tablón	11	Noviembre	2023-07-11T00:00:00	2024-11-08T12:00:00	2	Temperatura media	18.2
726	7	Sololá	701	Sololá	2	El tablón	11	Noviembre	2023-07-11T00:00:00	2024-11-08T12:00:00	4	Temperatura máxima	18.2
727	7	Sololá	701	Sololá	2	El tablón	11	Noviembre	2023-07-11T00:00:00	2024-11-08T12:00:00	3	Temperatura mínima	16.7
728	7	Sololá	701	Sololá	2	El tablón	11	Noviembre	2023-07-11T00:00:00	2024-11-08T12:00:00	5	Humedad	80
729	7	Sololá	701	Sololá	2	El tablón	11	Noviembre	2023-07-11T00:00:00	2024-11-08T12:00:00	6	Velocidad del viento	12.9
730	7	Sololá	701	Sololá	2	El tablón	11	Noviembre	2023-07-11T00:00:00	2024-11-08T12:00:00	7	Dirección del viento	12.87
731	7	Sololá	701	Sololá	2	El tablón	11	Noviembre	2023-07-11T00:00:00	2024-11-08T12:00:00	1	Precipitación	0
732	7	Sololá	701	Sololá	2	El tablón	11	Noviembre	2023-07-11T00:00:00	2024-11-08T12:00:00	8	Radiación solar	436
733	7	Sololá	701	Sololá	2	El tablón	11	Noviembre	2023-07-11T00:00:00	2024-11-08T13:00:00	2	Temperatura media	18.4
734	7	Sololá	701	Sololá	2	El tablón	11	Noviembre	2023-07-11T00:00:00	2024-11-08T13:00:00	4	Temperatura máxima	18.4
735	7	Sololá	701	Sololá	2	El tablón	11	Noviembre	2023-07-11T00:00:00	2024-11-08T13:00:00	3	Temperatura mínima	17.6
736	7	Sololá	701	Sololá	2	El tablón	11	Noviembre	2023-07-11T00:00:00	2024-11-08T13:00:00	5	Humedad	78
737	7	Sololá	701	Sololá	2	El tablón	11	Noviembre	2023-07-11T00:00:00	2024-11-08T13:00:00	6	Velocidad del viento	14.5
738	7	Sololá	701	Sololá	2	El tablón	11	Noviembre	2023-07-11T00:00:00	2024-11-08T13:00:00	7	Dirección del viento	14.48
739	7	Sololá	701	Sololá	2	El tablón	11	Noviembre	2023-07-11T00:00:00	2024-11-08T13:00:00	1	Precipitación	0
740	7	Sololá	701	Sololá	2	El tablón	11	Noviembre	2023-07-11T00:00:00	2024-11-08T13:00:00	8	Radiación solar	498
741	7	Sololá	701	Sololá	2	El tablón	11	Noviembre	2023-07-11T00:00:00	2024-11-08T14:00:00	2	Temperatura media	17.9
742	7	Sololá	701	Sololá	2	El tablón	11	Noviembre	2023-07-11T00:00:00	2024-11-08T14:00:00	4	Temperatura máxima	18.5
743	7	Sololá	701	Sololá	2	El tablón	11	Noviembre	2023-07-11T00:00:00	2024-11-08T14:00:00	3	Temperatura mínima	17.6
744	7	Sololá	701	Sololá	2	El tablón	11	Noviembre	2023-07-11T00:00:00	2024-11-08T14:00:00	5	Humedad	80
745	7	Sololá	701	Sololá	2	El tablón	11	Noviembre	2023-07-11T00:00:00	2024-11-08T14:00:00	6	Velocidad del viento	9.7
746	7	Sololá	701	Sololá	2	El tablón	11	Noviembre	2023-07-11T00:00:00	2024-11-08T14:00:00	7	Dirección del viento	9.66
747	7	Sololá	701	Sololá	2	El tablón	11	Noviembre	2023-07-11T00:00:00	2024-11-08T14:00:00	1	Precipitación	0
748	7	Sololá	701	Sololá	2	El tablón	11	Noviembre	2023-07-11T00:00:00	2024-11-08T14:00:00	8	Radiación solar	396
749	7	Sololá	701	Sololá	2	El tablón	11	Noviembre	2023-07-11T00:00:00	2024-11-08T15:00:00	2	Temperatura media	17.7
750	7	Sololá	701	Sololá	2	El tablón	11	Noviembre	2023-07-11T00:00:00	2024-11-08T15:00:00	4	Temperatura máxima	18.2
751	7	Sololá	701	Sololá	2	El tablón	11	Noviembre	2023-07-11T00:00:00	2024-11-08T15:00:00	3	Temperatura mínima	17.6
752	7	Sololá	701	Sololá	2	El tablón	11	Noviembre	2023-07-11T00:00:00	2024-11-08T15:00:00	5	Humedad	81
753	7	Sololá	701	Sololá	2	El tablón	11	Noviembre	2023-07-11T00:00:00	2024-11-08T15:00:00	6	Velocidad del viento	11.3
754	7	Sololá	701	Sololá	2	El tablón	11	Noviembre	2023-07-11T00:00:00	2024-11-08T15:00:00	7	Dirección del viento	11.27
755	7	Sololá	701	Sololá	2	El tablón	11	Noviembre	2023-07-11T00:00:00	2024-11-08T15:00:00	1	Precipitación	0
756	7	Sololá	701	Sololá	2	El tablón	11	Noviembre	2023-07-11T00:00:00	2024-11-08T15:00:00	8	Radiación solar	481
757	7	Sololá	701	Sololá	2	El tablón	11	Noviembre	2023-07-11T00:00:00	2024-11-08T16:00:00	2	Temperatura media	17.1
758	7	Sololá	701	Sololá	2	El tablón	11	Noviembre	2023-07-11T00:00:00	2024-11-08T16:00:00	4	Temperatura máxima	17.9
759	7	Sololá	701	Sololá	2	El tablón	11	Noviembre	2023-07-11T00:00:00	2024-11-08T16:00:00	3	Temperatura mínima	16.9
760	7	Sololá	701	Sololá	2	El tablón	11	Noviembre	2023-07-11T00:00:00	2024-11-08T16:00:00	5	Humedad	81
761	7	Sololá	701	Sololá	2	El tablón	11	Noviembre	2023-07-11T00:00:00	2024-11-08T16:00:00	6	Velocidad del viento	14.5
762	7	Sololá	701	Sololá	2	El tablón	11	Noviembre	2023-07-11T00:00:00	2024-11-08T16:00:00	7	Dirección del viento	14.48
763	7	Sololá	701	Sololá	2	El tablón	11	Noviembre	2023-07-11T00:00:00	2024-11-08T16:00:00	1	Precipitación	0
764	7	Sololá	701	Sololá	2	El tablón	11	Noviembre	2023-07-11T00:00:00	2024-11-08T16:00:00	8	Radiación solar	402
765	7	Sololá	701	Sololá	2	El tablón	11	Noviembre	2023-07-11T00:00:00	2024-11-08T17:00:00	2	Temperatura media	16.6
766	7	Sololá	701	Sololá	2	El tablón	11	Noviembre	2023-07-11T00:00:00	2024-11-08T17:00:00	4	Temperatura máxima	17.2
767	7	Sololá	701	Sololá	2	El tablón	11	Noviembre	2023-07-11T00:00:00	2024-11-08T17:00:00	3	Temperatura mínima	16.6
768	7	Sololá	701	Sololá	2	El tablón	11	Noviembre	2023-07-11T00:00:00	2024-11-08T17:00:00	5	Humedad	83
769	7	Sololá	701	Sololá	2	El tablón	11	Noviembre	2023-07-11T00:00:00	2024-11-08T17:00:00	6	Velocidad del viento	14.5
770	7	Sololá	701	Sololá	2	El tablón	11	Noviembre	2023-07-11T00:00:00	2024-11-08T17:00:00	7	Dirección del viento	14.48
771	7	Sololá	701	Sololá	2	El tablón	11	Noviembre	2023-07-11T00:00:00	2024-11-08T17:00:00	1	Precipitación	0
772	7	Sololá	701	Sololá	2	El tablón	11	Noviembre	2023-07-11T00:00:00	2024-11-08T17:00:00	8	Radiación solar	210
773	7	Sololá	701	Sololá	2	El tablón	11	Noviembre	2023-07-11T00:00:00	2024-11-08T18:00:00	2	Temperatura media	14.8
774	7	Sololá	701	Sololá	2	El tablón	11	Noviembre	2023-07-11T00:00:00	2024-11-08T18:00:00	4	Temperatura máxima	16.6
775	7	Sololá	701	Sololá	2	El tablón	11	Noviembre	2023-07-11T00:00:00	2024-11-08T18:00:00	3	Temperatura mínima	14.8
776	7	Sololá	701	Sololá	2	El tablón	11	Noviembre	2023-07-11T00:00:00	2024-11-08T18:00:00	5	Humedad	87
777	7	Sololá	701	Sololá	2	El tablón	11	Noviembre	2023-07-11T00:00:00	2024-11-08T18:00:00	6	Velocidad del viento	14.5
778	7	Sololá	701	Sololá	2	El tablón	11	Noviembre	2023-07-11T00:00:00	2024-11-08T18:00:00	7	Dirección del viento	14.48
779	7	Sololá	701	Sololá	2	El tablón	11	Noviembre	2023-07-11T00:00:00	2024-11-08T18:00:00	1	Precipitación	0
780	7	Sololá	701	Sololá	2	El tablón	11	Noviembre	2023-07-11T00:00:00	2024-11-08T18:00:00	8	Radiación solar	26
781	7	Sololá	701	Sololá	2	El tablón	11	Noviembre	2023-07-11T00:00:00	2024-11-08T19:00:00	2	Temperatura media	14.3
782	7	Sololá	701	Sololá	2	El tablón	11	Noviembre	2023-07-11T00:00:00	2024-11-08T19:00:00	4	Temperatura máxima	14.8
783	7	Sololá	701	Sololá	2	El tablón	11	Noviembre	2023-07-11T00:00:00	2024-11-08T19:00:00	3	Temperatura mínima	14.2
784	7	Sololá	701	Sololá	2	El tablón	11	Noviembre	2023-07-11T00:00:00	2024-11-08T19:00:00	5	Humedad	88
785	7	Sololá	701	Sololá	2	El tablón	11	Noviembre	2023-07-11T00:00:00	2024-11-08T19:00:00	6	Velocidad del viento	12.9
786	7	Sololá	701	Sololá	2	El tablón	11	Noviembre	2023-07-11T00:00:00	2024-11-08T19:00:00	7	Dirección del viento	12.87
787	7	Sololá	701	Sololá	2	El tablón	11	Noviembre	2023-07-11T00:00:00	2024-11-08T19:00:00	1	Precipitación	0
788	7	Sololá	701	Sololá	2	El tablón	11	Noviembre	2023-07-11T00:00:00	2024-11-08T19:00:00	8	Radiación solar	0
789	7	Sololá	701	Sololá	2	El tablón	11	Noviembre	2023-07-11T00:00:00	2024-11-08T20:00:00	2	Temperatura media	14.5
790	7	Sololá	701	Sololá	2	El tablón	11	Noviembre	2023-07-11T00:00:00	2024-11-08T20:00:00	4	Temperatura máxima	14.5
791	7	Sololá	701	Sololá	2	El tablón	11	Noviembre	2023-07-11T00:00:00	2024-11-08T20:00:00	3	Temperatura mínima	14.2
792	7	Sololá	701	Sololá	2	El tablón	11	Noviembre	2023-07-11T00:00:00	2024-11-08T20:00:00	5	Humedad	87
793	7	Sololá	701	Sololá	2	El tablón	11	Noviembre	2023-07-11T00:00:00	2024-11-08T20:00:00	6	Velocidad del viento	14.5
794	7	Sololá	701	Sololá	2	El tablón	11	Noviembre	2023-07-11T00:00:00	2024-11-08T20:00:00	7	Dirección del viento	14.48
795	7	Sololá	701	Sololá	2	El tablón	11	Noviembre	2023-07-11T00:00:00	2024-11-08T20:00:00	1	Precipitación	0
796	7	Sololá	701	Sololá	2	El tablón	11	Noviembre	2023-07-11T00:00:00	2024-11-08T20:00:00	8	Radiación solar	0
797	7	Sololá	701	Sololá	2	El tablón	11	Noviembre	2023-07-11T00:00:00	2024-11-08T21:00:00	2	Temperatura media	14.6
798	7	Sololá	701	Sololá	2	El tablón	11	Noviembre	2023-07-11T00:00:00	2024-11-08T21:00:00	4	Temperatura máxima	14.6
799	7	Sololá	701	Sololá	2	El tablón	11	Noviembre	2023-07-11T00:00:00	2024-11-08T21:00:00	3	Temperatura mínima	14.4
800	7	Sololá	701	Sololá	2	El tablón	11	Noviembre	2023-07-11T00:00:00	2024-11-08T21:00:00	5	Humedad	87
801	7	Sololá	701	Sololá	2	El tablón	11	Noviembre	2023-07-11T00:00:00	2024-11-08T21:00:00	6	Velocidad del viento	12.9
802	7	Sololá	701	Sololá	2	El tablón	11	Noviembre	2023-07-11T00:00:00	2024-11-08T21:00:00	7	Dirección del viento	12.87
803	7	Sololá	701	Sololá	2	El tablón	11	Noviembre	2023-07-11T00:00:00	2024-11-08T21:00:00	1	Precipitación	0
804	7	Sololá	701	Sololá	2	El tablón	11	Noviembre	2023-07-11T00:00:00	2024-11-08T21:00:00	8	Radiación solar	0
805	7	Sololá	701	Sololá	2	El tablón	11	Noviembre	2023-07-11T00:00:00	2024-11-08T22:00:00	2	Temperatura media	14.2
806	7	Sololá	701	Sololá	2	El tablón	11	Noviembre	2023-07-11T00:00:00	2024-11-08T22:00:00	4	Temperatura máxima	14.6
807	7	Sololá	701	Sololá	2	El tablón	11	Noviembre	2023-07-11T00:00:00	2024-11-08T22:00:00	3	Temperatura mínima	14.2
808	7	Sololá	701	Sololá	2	El tablón	11	Noviembre	2023-07-11T00:00:00	2024-11-08T22:00:00	5	Humedad	88
809	7	Sololá	701	Sololá	2	El tablón	11	Noviembre	2023-07-11T00:00:00	2024-11-08T22:00:00	6	Velocidad del viento	11.3
810	7	Sololá	701	Sololá	2	El tablón	11	Noviembre	2023-07-11T00:00:00	2024-11-08T22:00:00	7	Dirección del viento	11.27
811	7	Sololá	701	Sololá	2	El tablón	11	Noviembre	2023-07-11T00:00:00	2024-11-08T22:00:00	1	Precipitación	0
812	7	Sololá	701	Sololá	2	El tablón	11	Noviembre	2023-07-11T00:00:00	2024-11-08T22:00:00	8	Radiación solar	0
813	7	Sololá	701	Sololá	2	El tablón	11	Noviembre	2023-07-11T00:00:00	2024-11-08T23:00:00	2	Temperatura media	14.1
814	7	Sololá	701	Sololá	2	El tablón	11	Noviembre	2023-07-11T00:00:00	2024-11-08T23:00:00	4	Temperatura máxima	14.3
815	7	Sololá	701	Sololá	2	El tablón	11	Noviembre	2023-07-11T00:00:00	2024-11-08T23:00:00	3	Temperatura mínima	14.1
816	7	Sololá	701	Sololá	2	El tablón	11	Noviembre	2023-07-11T00:00:00	2024-11-08T23:00:00	5	Humedad	88
817	7	Sololá	701	Sololá	2	El tablón	11	Noviembre	2023-07-11T00:00:00	2024-11-08T23:00:00	6	Velocidad del viento	6.4
818	7	Sololá	701	Sololá	2	El tablón	11	Noviembre	2023-07-11T00:00:00	2024-11-08T23:00:00	7	Dirección del viento	6.44
819	7	Sololá	701	Sololá	2	El tablón	11	Noviembre	2023-07-11T00:00:00	2024-11-08T23:00:00	1	Precipitación	0
820	7	Sololá	701	Sololá	2	El tablón	11	Noviembre	2023-07-11T00:00:00	2024-11-08T23:00:00	8	Radiación solar	0
821	7	Sololá	701	Sololá	2	El tablón	11	Noviembre	2023-08-11T00:00:00	2024-11-08T00:00:00	2	Temperatura media	13.9
822	7	Sololá	701	Sololá	2	El tablón	11	Noviembre	2023-08-11T00:00:00	2024-11-08T00:00:00	4	Temperatura máxima	14.1
823	7	Sololá	701	Sololá	2	El tablón	11	Noviembre	2023-08-11T00:00:00	2024-11-08T00:00:00	3	Temperatura mínima	13.9
824	7	Sololá	701	Sololá	2	El tablón	11	Noviembre	2023-08-11T00:00:00	2024-11-08T00:00:00	5	Humedad	88
825	7	Sololá	701	Sololá	2	El tablón	11	Noviembre	2023-08-11T00:00:00	2024-11-08T00:00:00	6	Velocidad del viento	9.7
826	7	Sololá	701	Sololá	2	El tablón	11	Noviembre	2023-08-11T00:00:00	2024-11-08T00:00:00	7	Dirección del viento	9.66
827	7	Sololá	701	Sololá	2	El tablón	11	Noviembre	2023-08-11T00:00:00	2024-11-08T00:00:00	1	Precipitación	0
828	7	Sololá	701	Sololá	2	El tablón	11	Noviembre	2023-08-11T00:00:00	2024-11-08T00:00:00	8	Radiación solar	0
829	7	Sololá	701	Sololá	2	El tablón	11	Noviembre	2023-08-11T00:00:00	2024-11-08T01:00:00	2	Temperatura media	13.8
830	7	Sololá	701	Sololá	2	El tablón	11	Noviembre	2023-08-11T00:00:00	2024-11-08T01:00:00	4	Temperatura máxima	14.1
831	7	Sololá	701	Sololá	2	El tablón	11	Noviembre	2023-08-11T00:00:00	2024-11-08T01:00:00	3	Temperatura mínima	13.8
832	7	Sololá	701	Sololá	2	El tablón	11	Noviembre	2023-08-11T00:00:00	2024-11-08T01:00:00	5	Humedad	89
833	7	Sololá	701	Sololá	2	El tablón	11	Noviembre	2023-08-11T00:00:00	2024-11-08T01:00:00	6	Velocidad del viento	8
834	7	Sololá	701	Sololá	2	El tablón	11	Noviembre	2023-08-11T00:00:00	2024-11-08T01:00:00	7	Dirección del viento	8.05
835	7	Sololá	701	Sololá	2	El tablón	11	Noviembre	2023-08-11T00:00:00	2024-11-08T01:00:00	1	Precipitación	0
836	7	Sololá	701	Sololá	2	El tablón	11	Noviembre	2023-08-11T00:00:00	2024-11-08T01:00:00	8	Radiación solar	0
837	7	Sololá	701	Sololá	2	El tablón	11	Noviembre	2023-08-11T00:00:00	2024-11-08T02:00:00	2	Temperatura media	13.9
838	7	Sololá	701	Sololá	2	El tablón	11	Noviembre	2023-08-11T00:00:00	2024-11-08T02:00:00	4	Temperatura máxima	14
839	7	Sololá	701	Sololá	2	El tablón	11	Noviembre	2023-08-11T00:00:00	2024-11-08T02:00:00	3	Temperatura mínima	13.8
840	7	Sololá	701	Sololá	2	El tablón	11	Noviembre	2023-08-11T00:00:00	2024-11-08T02:00:00	5	Humedad	88
841	7	Sololá	701	Sololá	2	El tablón	11	Noviembre	2023-08-11T00:00:00	2024-11-08T02:00:00	6	Velocidad del viento	9.7
842	7	Sololá	701	Sololá	2	El tablón	11	Noviembre	2023-08-11T00:00:00	2024-11-08T02:00:00	7	Dirección del viento	9.66
843	7	Sololá	701	Sololá	2	El tablón	11	Noviembre	2023-08-11T00:00:00	2024-11-08T02:00:00	1	Precipitación	0
844	7	Sololá	701	Sololá	2	El tablón	11	Noviembre	2023-08-11T00:00:00	2024-11-08T02:00:00	8	Radiación solar	0
845	7	Sololá	701	Sololá	2	El tablón	11	Noviembre	2023-08-11T00:00:00	2024-11-08T03:00:00	2	Temperatura media	14.7
846	7	Sololá	701	Sololá	2	El tablón	11	Noviembre	2023-08-11T00:00:00	2024-11-08T03:00:00	4	Temperatura máxima	14.8
847	7	Sololá	701	Sololá	2	El tablón	11	Noviembre	2023-08-11T00:00:00	2024-11-08T03:00:00	3	Temperatura mínima	13.9
848	7	Sololá	701	Sololá	2	El tablón	11	Noviembre	2023-08-11T00:00:00	2024-11-08T03:00:00	5	Humedad	81
849	7	Sololá	701	Sololá	2	El tablón	11	Noviembre	2023-08-11T00:00:00	2024-11-08T03:00:00	6	Velocidad del viento	9.7
850	7	Sololá	701	Sololá	2	El tablón	11	Noviembre	2023-08-11T00:00:00	2024-11-08T03:00:00	7	Dirección del viento	9.66
851	7	Sololá	701	Sololá	2	El tablón	11	Noviembre	2023-08-11T00:00:00	2024-11-08T03:00:00	1	Precipitación	0
852	7	Sololá	701	Sololá	2	El tablón	11	Noviembre	2023-08-11T00:00:00	2024-11-08T03:00:00	8	Radiación solar	0
853	7	Sololá	701	Sololá	2	El tablón	11	Noviembre	2023-08-11T00:00:00	2024-11-08T04:00:00	2	Temperatura media	14.2
854	7	Sololá	701	Sololá	2	El tablón	11	Noviembre	2023-08-11T00:00:00	2024-11-08T04:00:00	4	Temperatura máxima	14.9
855	7	Sololá	701	Sololá	2	El tablón	11	Noviembre	2023-08-11T00:00:00	2024-11-08T04:00:00	3	Temperatura mínima	14.2
856	7	Sololá	701	Sololá	2	El tablón	11	Noviembre	2023-08-11T00:00:00	2024-11-08T04:00:00	5	Humedad	84
857	7	Sololá	701	Sololá	2	El tablón	11	Noviembre	2023-08-11T00:00:00	2024-11-08T04:00:00	6	Velocidad del viento	6.4
858	7	Sololá	701	Sololá	2	El tablón	11	Noviembre	2023-08-11T00:00:00	2024-11-08T04:00:00	7	Dirección del viento	6.44
859	7	Sololá	701	Sololá	2	El tablón	11	Noviembre	2023-08-11T00:00:00	2024-11-08T04:00:00	1	Precipitación	0
860	7	Sololá	701	Sololá	2	El tablón	11	Noviembre	2023-08-11T00:00:00	2024-11-08T04:00:00	8	Radiación solar	0
861	7	Sololá	701	Sololá	2	El tablón	11	Noviembre	2023-08-11T00:00:00	2024-11-08T05:00:00	2	Temperatura media	14.1
862	7	Sololá	701	Sololá	2	El tablón	11	Noviembre	2023-08-11T00:00:00	2024-11-08T05:00:00	4	Temperatura máxima	14.3
863	7	Sololá	701	Sololá	2	El tablón	11	Noviembre	2023-08-11T00:00:00	2024-11-08T05:00:00	3	Temperatura mínima	14
864	7	Sololá	701	Sololá	2	El tablón	11	Noviembre	2023-08-11T00:00:00	2024-11-08T05:00:00	5	Humedad	84
865	7	Sololá	701	Sololá	2	El tablón	11	Noviembre	2023-08-11T00:00:00	2024-11-08T05:00:00	6	Velocidad del viento	6.4
866	7	Sololá	701	Sololá	2	El tablón	11	Noviembre	2023-08-11T00:00:00	2024-11-08T05:00:00	7	Dirección del viento	6.44
867	7	Sololá	701	Sololá	2	El tablón	11	Noviembre	2023-08-11T00:00:00	2024-11-08T05:00:00	1	Precipitación	0
868	7	Sololá	701	Sololá	2	El tablón	11	Noviembre	2023-08-11T00:00:00	2024-11-08T05:00:00	8	Radiación solar	0
869	7	Sololá	701	Sololá	2	El tablón	11	Noviembre	2023-08-11T00:00:00	2024-11-08T06:00:00	2	Temperatura media	13.7
870	7	Sololá	701	Sololá	2	El tablón	11	Noviembre	2023-08-11T00:00:00	2024-11-08T06:00:00	4	Temperatura máxima	14.1
871	7	Sololá	701	Sololá	2	El tablón	11	Noviembre	2023-08-11T00:00:00	2024-11-08T06:00:00	3	Temperatura mínima	13.7
872	7	Sololá	701	Sololá	2	El tablón	11	Noviembre	2023-08-11T00:00:00	2024-11-08T06:00:00	5	Humedad	85
873	7	Sololá	701	Sololá	2	El tablón	11	Noviembre	2023-08-11T00:00:00	2024-11-08T06:00:00	6	Velocidad del viento	4.8
874	7	Sololá	701	Sololá	2	El tablón	11	Noviembre	2023-08-11T00:00:00	2024-11-08T06:00:00	7	Dirección del viento	4.83
875	7	Sololá	701	Sololá	2	El tablón	11	Noviembre	2023-08-11T00:00:00	2024-11-08T06:00:00	1	Precipitación	0
876	7	Sololá	701	Sololá	2	El tablón	11	Noviembre	2023-08-11T00:00:00	2024-11-08T06:00:00	8	Radiación solar	0
877	7	Sololá	701	Sololá	2	El tablón	11	Noviembre	2023-08-11T00:00:00	2024-11-08T07:00:00	2	Temperatura media	13.8
878	7	Sololá	701	Sololá	2	El tablón	11	Noviembre	2023-08-11T00:00:00	2024-11-08T07:00:00	4	Temperatura máxima	13.9
879	7	Sololá	701	Sololá	2	El tablón	11	Noviembre	2023-08-11T00:00:00	2024-11-08T07:00:00	3	Temperatura mínima	13.6
880	7	Sololá	701	Sololá	2	El tablón	11	Noviembre	2023-08-11T00:00:00	2024-11-08T07:00:00	5	Humedad	87
881	7	Sololá	701	Sololá	2	El tablón	11	Noviembre	2023-08-11T00:00:00	2024-11-08T07:00:00	6	Velocidad del viento	4.8
882	7	Sololá	701	Sololá	2	El tablón	11	Noviembre	2023-08-11T00:00:00	2024-11-08T07:00:00	7	Dirección del viento	4.83
883	7	Sololá	701	Sololá	2	El tablón	11	Noviembre	2023-08-11T00:00:00	2024-11-08T07:00:00	1	Precipitación	0
884	7	Sololá	701	Sololá	2	El tablón	11	Noviembre	2023-08-11T00:00:00	2024-11-08T07:00:00	8	Radiación solar	33
885	7	Sololá	701	Sololá	2	El tablón	11	Noviembre	2023-08-11T00:00:00	2024-11-08T08:00:00	2	Temperatura media	14.6
886	7	Sololá	701	Sololá	2	El tablón	11	Noviembre	2023-08-11T00:00:00	2024-11-08T08:00:00	4	Temperatura máxima	14.6
887	7	Sololá	701	Sololá	2	El tablón	11	Noviembre	2023-08-11T00:00:00	2024-11-08T08:00:00	3	Temperatura mínima	13.8
888	7	Sololá	701	Sololá	2	El tablón	11	Noviembre	2023-08-11T00:00:00	2024-11-08T08:00:00	5	Humedad	86
889	7	Sololá	701	Sololá	2	El tablón	11	Noviembre	2023-08-11T00:00:00	2024-11-08T08:00:00	6	Velocidad del viento	9.7
890	7	Sololá	701	Sololá	2	El tablón	11	Noviembre	2023-08-11T00:00:00	2024-11-08T08:00:00	7	Dirección del viento	9.66
891	7	Sololá	701	Sololá	2	El tablón	11	Noviembre	2023-08-11T00:00:00	2024-11-08T08:00:00	1	Precipitación	0
892	7	Sololá	701	Sololá	2	El tablón	11	Noviembre	2023-08-11T00:00:00	2024-11-08T08:00:00	8	Radiación solar	111
893	7	Sololá	701	Sololá	2	El tablón	11	Noviembre	2023-08-11T00:00:00	2024-11-08T09:00:00	2	Temperatura media	16.7
894	7	Sololá	701	Sololá	2	El tablón	11	Noviembre	2023-08-11T00:00:00	2024-11-08T09:00:00	4	Temperatura máxima	17.3
895	7	Sololá	701	Sololá	2	El tablón	11	Noviembre	2023-08-11T00:00:00	2024-11-08T09:00:00	3	Temperatura mínima	14.6
896	7	Sololá	701	Sololá	2	El tablón	11	Noviembre	2023-08-11T00:00:00	2024-11-08T09:00:00	5	Humedad	81
897	7	Sololá	701	Sololá	2	El tablón	11	Noviembre	2023-08-11T00:00:00	2024-11-08T09:00:00	6	Velocidad del viento	9.7
898	7	Sololá	701	Sololá	2	El tablón	11	Noviembre	2023-08-11T00:00:00	2024-11-08T09:00:00	7	Dirección del viento	9.66
899	7	Sololá	701	Sololá	2	El tablón	11	Noviembre	2023-08-11T00:00:00	2024-11-08T09:00:00	1	Precipitación	0
900	7	Sololá	701	Sololá	2	El tablón	11	Noviembre	2023-08-11T00:00:00	2024-11-08T09:00:00	8	Radiación solar	387
901	7	Sololá	701	Sololá	2	El tablón	11	Noviembre	2023-08-11T00:00:00	2024-11-08T10:00:00	2	Temperatura media	18.3
902	7	Sololá	701	Sololá	2	El tablón	11	Noviembre	2023-08-11T00:00:00	2024-11-08T10:00:00	4	Temperatura máxima	18.4
903	7	Sololá	701	Sololá	2	El tablón	11	Noviembre	2023-08-11T00:00:00	2024-11-08T10:00:00	3	Temperatura mínima	16.7
904	7	Sololá	701	Sololá	2	El tablón	11	Noviembre	2023-08-11T00:00:00	2024-11-08T10:00:00	5	Humedad	75
905	7	Sololá	701	Sololá	2	El tablón	11	Noviembre	2023-08-11T00:00:00	2024-11-08T10:00:00	6	Velocidad del viento	11.3
906	7	Sololá	701	Sololá	2	El tablón	11	Noviembre	2023-08-11T00:00:00	2024-11-08T10:00:00	7	Dirección del viento	11.27
907	7	Sololá	701	Sololá	2	El tablón	11	Noviembre	2023-08-11T00:00:00	2024-11-08T10:00:00	1	Precipitación	0
908	7	Sololá	701	Sololá	2	El tablón	11	Noviembre	2023-08-11T00:00:00	2024-11-08T10:00:00	8	Radiación solar	657
909	7	Sololá	701	Sololá	2	El tablón	11	Noviembre	2023-08-11T00:00:00	2024-11-08T11:00:00	2	Temperatura media	19.2
910	7	Sololá	701	Sololá	2	El tablón	11	Noviembre	2023-08-11T00:00:00	2024-11-08T11:00:00	4	Temperatura máxima	19.2
911	7	Sololá	701	Sololá	2	El tablón	11	Noviembre	2023-08-11T00:00:00	2024-11-08T11:00:00	3	Temperatura mínima	18.3
912	7	Sololá	701	Sololá	2	El tablón	11	Noviembre	2023-08-11T00:00:00	2024-11-08T11:00:00	5	Humedad	73
913	7	Sololá	701	Sololá	2	El tablón	11	Noviembre	2023-08-11T00:00:00	2024-11-08T11:00:00	6	Velocidad del viento	9.7
914	7	Sololá	701	Sololá	2	El tablón	11	Noviembre	2023-08-11T00:00:00	2024-11-08T11:00:00	7	Dirección del viento	9.66
915	7	Sololá	701	Sololá	2	El tablón	11	Noviembre	2023-08-11T00:00:00	2024-11-08T11:00:00	1	Precipitación	0
916	7	Sololá	701	Sololá	2	El tablón	11	Noviembre	2023-08-11T00:00:00	2024-11-08T11:00:00	8	Radiación solar	785
917	7	Sololá	701	Sololá	2	El tablón	11	Noviembre	2023-08-11T00:00:00	2024-11-08T12:00:00	2	Temperatura media	18.9
918	7	Sololá	701	Sololá	2	El tablón	11	Noviembre	2023-08-11T00:00:00	2024-11-08T12:00:00	4	Temperatura máxima	19.4
919	7	Sololá	701	Sololá	2	El tablón	11	Noviembre	2023-08-11T00:00:00	2024-11-08T12:00:00	3	Temperatura mínima	18.7
920	7	Sololá	701	Sololá	2	El tablón	11	Noviembre	2023-08-11T00:00:00	2024-11-08T12:00:00	5	Humedad	75
921	7	Sololá	701	Sololá	2	El tablón	11	Noviembre	2023-08-11T00:00:00	2024-11-08T12:00:00	6	Velocidad del viento	9.7
922	7	Sololá	701	Sololá	2	El tablón	11	Noviembre	2023-08-11T00:00:00	2024-11-08T12:00:00	7	Dirección del viento	9.66
923	7	Sololá	701	Sololá	2	El tablón	11	Noviembre	2023-08-11T00:00:00	2024-11-08T12:00:00	1	Precipitación	0
924	7	Sololá	701	Sololá	2	El tablón	11	Noviembre	2023-08-11T00:00:00	2024-11-08T12:00:00	8	Radiación solar	617
925	7	Sololá	701	Sololá	2	El tablón	11	Noviembre	2023-08-11T00:00:00	2024-11-08T13:00:00	2	Temperatura media	19.3
926	7	Sololá	701	Sololá	2	El tablón	11	Noviembre	2023-08-11T00:00:00	2024-11-08T13:00:00	4	Temperatura máxima	19.7
927	7	Sololá	701	Sololá	2	El tablón	11	Noviembre	2023-08-11T00:00:00	2024-11-08T13:00:00	3	Temperatura mínima	18.4
928	7	Sololá	701	Sololá	2	El tablón	11	Noviembre	2023-08-11T00:00:00	2024-11-08T13:00:00	5	Humedad	73
929	7	Sololá	701	Sololá	2	El tablón	11	Noviembre	2023-08-11T00:00:00	2024-11-08T13:00:00	6	Velocidad del viento	9.7
930	7	Sololá	701	Sololá	2	El tablón	11	Noviembre	2023-08-11T00:00:00	2024-11-08T13:00:00	7	Dirección del viento	9.66
931	7	Sololá	701	Sololá	2	El tablón	11	Noviembre	2023-08-11T00:00:00	2024-11-08T13:00:00	1	Precipitación	0
932	7	Sololá	701	Sololá	2	El tablón	11	Noviembre	2023-08-11T00:00:00	2024-11-08T13:00:00	8	Radiación solar	589
933	7	Sololá	701	Sololá	2	El tablón	11	Noviembre	2023-08-11T00:00:00	2024-11-08T14:00:00	2	Temperatura media	18.9
934	7	Sololá	701	Sololá	2	El tablón	11	Noviembre	2023-08-11T00:00:00	2024-11-08T14:00:00	4	Temperatura máxima	19.6
935	7	Sololá	701	Sololá	2	El tablón	11	Noviembre	2023-08-11T00:00:00	2024-11-08T14:00:00	3	Temperatura mínima	18.7
936	7	Sololá	701	Sololá	2	El tablón	11	Noviembre	2023-08-11T00:00:00	2024-11-08T14:00:00	5	Humedad	75
937	7	Sololá	701	Sololá	2	El tablón	11	Noviembre	2023-08-11T00:00:00	2024-11-08T14:00:00	6	Velocidad del viento	9.7
938	7	Sololá	701	Sololá	2	El tablón	11	Noviembre	2023-08-11T00:00:00	2024-11-08T14:00:00	7	Dirección del viento	9.66
939	7	Sololá	701	Sololá	2	El tablón	11	Noviembre	2023-08-11T00:00:00	2024-11-08T14:00:00	1	Precipitación	0
940	7	Sololá	701	Sololá	2	El tablón	11	Noviembre	2023-08-11T00:00:00	2024-11-08T14:00:00	8	Radiación solar	417
941	7	Sololá	701	Sololá	2	El tablón	11	Noviembre	2023-08-11T00:00:00	2024-11-08T15:00:00	2	Temperatura media	18
942	7	Sololá	701	Sololá	2	El tablón	11	Noviembre	2023-08-11T00:00:00	2024-11-08T15:00:00	4	Temperatura máxima	19.1
943	7	Sololá	701	Sololá	2	El tablón	11	Noviembre	2023-08-11T00:00:00	2024-11-08T15:00:00	3	Temperatura mínima	17.9
944	7	Sololá	701	Sololá	2	El tablón	11	Noviembre	2023-08-11T00:00:00	2024-11-08T15:00:00	5	Humedad	80
945	7	Sololá	701	Sololá	2	El tablón	11	Noviembre	2023-08-11T00:00:00	2024-11-08T15:00:00	6	Velocidad del viento	6.4
946	7	Sololá	701	Sololá	2	El tablón	11	Noviembre	2023-08-11T00:00:00	2024-11-08T15:00:00	7	Dirección del viento	6.44
947	7	Sololá	701	Sololá	2	El tablón	11	Noviembre	2023-08-11T00:00:00	2024-11-08T15:00:00	1	Precipitación	0
948	7	Sololá	701	Sololá	2	El tablón	11	Noviembre	2023-08-11T00:00:00	2024-11-08T15:00:00	8	Radiación solar	197
949	7	Sololá	701	Sololá	2	El tablón	11	Noviembre	2023-08-11T00:00:00	2024-11-08T16:00:00	2	Temperatura media	17.5
950	7	Sololá	701	Sololá	2	El tablón	11	Noviembre	2023-08-11T00:00:00	2024-11-08T16:00:00	4	Temperatura máxima	18.3
951	7	Sololá	701	Sololá	2	El tablón	11	Noviembre	2023-08-11T00:00:00	2024-11-08T16:00:00	3	Temperatura mínima	17.5
952	7	Sololá	701	Sololá	2	El tablón	11	Noviembre	2023-08-11T00:00:00	2024-11-08T16:00:00	5	Humedad	82
953	7	Sololá	701	Sololá	2	El tablón	11	Noviembre	2023-08-11T00:00:00	2024-11-08T16:00:00	6	Velocidad del viento	6.4
954	7	Sololá	701	Sololá	2	El tablón	11	Noviembre	2023-08-11T00:00:00	2024-11-08T16:00:00	7	Dirección del viento	6.44
955	7	Sololá	701	Sololá	2	El tablón	11	Noviembre	2023-08-11T00:00:00	2024-11-08T16:00:00	1	Precipitación	0
956	7	Sololá	701	Sololá	2	El tablón	11	Noviembre	2023-08-11T00:00:00	2024-11-08T16:00:00	8	Radiación solar	155
957	7	Sololá	701	Sololá	2	El tablón	11	Noviembre	2023-08-11T00:00:00	2024-11-08T17:00:00	2	Temperatura media	16.8
958	7	Sololá	701	Sololá	2	El tablón	11	Noviembre	2023-08-11T00:00:00	2024-11-08T17:00:00	4	Temperatura máxima	17.5
959	7	Sololá	701	Sololá	2	El tablón	11	Noviembre	2023-08-11T00:00:00	2024-11-08T17:00:00	3	Temperatura mínima	16.8
960	7	Sololá	701	Sololá	2	El tablón	11	Noviembre	2023-08-11T00:00:00	2024-11-08T17:00:00	5	Humedad	83
961	7	Sololá	701	Sololá	2	El tablón	11	Noviembre	2023-08-11T00:00:00	2024-11-08T17:00:00	6	Velocidad del viento	6.4
962	7	Sololá	701	Sololá	2	El tablón	11	Noviembre	2023-08-11T00:00:00	2024-11-08T17:00:00	7	Dirección del viento	6.44
963	7	Sololá	701	Sololá	2	El tablón	11	Noviembre	2023-08-11T00:00:00	2024-11-08T17:00:00	1	Precipitación	0
964	7	Sololá	701	Sololá	2	El tablón	11	Noviembre	2023-08-11T00:00:00	2024-11-08T17:00:00	8	Radiación solar	100
965	7	Sololá	701	Sololá	2	El tablón	11	Noviembre	2023-08-11T00:00:00	2024-11-08T18:00:00	2	Temperatura media	15.7
966	7	Sololá	701	Sololá	2	El tablón	11	Noviembre	2023-08-11T00:00:00	2024-11-08T18:00:00	4	Temperatura máxima	16.8
967	7	Sololá	701	Sololá	2	El tablón	11	Noviembre	2023-08-11T00:00:00	2024-11-08T18:00:00	3	Temperatura mínima	15.7
968	7	Sololá	701	Sololá	2	El tablón	11	Noviembre	2023-08-11T00:00:00	2024-11-08T18:00:00	5	Humedad	87
969	7	Sololá	701	Sololá	2	El tablón	11	Noviembre	2023-08-11T00:00:00	2024-11-08T18:00:00	6	Velocidad del viento	6.4
970	7	Sololá	701	Sololá	2	El tablón	11	Noviembre	2023-08-11T00:00:00	2024-11-08T18:00:00	7	Dirección del viento	6.44
971	7	Sololá	701	Sololá	2	El tablón	11	Noviembre	2023-08-11T00:00:00	2024-11-08T18:00:00	1	Precipitación	0
972	7	Sololá	701	Sololá	2	El tablón	11	Noviembre	2023-08-11T00:00:00	2024-11-08T18:00:00	8	Radiación solar	11
973	7	Sololá	701	Sololá	2	El tablón	11	Noviembre	2023-08-11T00:00:00	2024-11-08T19:00:00	2	Temperatura media	15.4
974	7	Sololá	701	Sololá	2	El tablón	11	Noviembre	2023-08-11T00:00:00	2024-11-08T19:00:00	4	Temperatura máxima	15.7
975	7	Sololá	701	Sololá	2	El tablón	11	Noviembre	2023-08-11T00:00:00	2024-11-08T19:00:00	3	Temperatura mínima	15.3
976	7	Sololá	701	Sololá	2	El tablón	11	Noviembre	2023-08-11T00:00:00	2024-11-08T19:00:00	5	Humedad	87
977	7	Sololá	701	Sololá	2	El tablón	11	Noviembre	2023-08-11T00:00:00	2024-11-08T19:00:00	6	Velocidad del viento	4.8
978	7	Sololá	701	Sololá	2	El tablón	11	Noviembre	2023-08-11T00:00:00	2024-11-08T19:00:00	7	Dirección del viento	4.83
979	7	Sololá	701	Sololá	2	El tablón	11	Noviembre	2023-08-11T00:00:00	2024-11-08T19:00:00	1	Precipitación	0
980	7	Sololá	701	Sololá	2	El tablón	11	Noviembre	2023-08-11T00:00:00	2024-11-08T19:00:00	8	Radiación solar	0
981	7	Sololá	701	Sololá	2	El tablón	11	Noviembre	2023-08-11T00:00:00	2024-11-08T20:00:00	2	Temperatura media	15.1
982	7	Sololá	701	Sololá	2	El tablón	11	Noviembre	2023-08-11T00:00:00	2024-11-08T20:00:00	4	Temperatura máxima	15.4
983	7	Sololá	701	Sololá	2	El tablón	11	Noviembre	2023-08-11T00:00:00	2024-11-08T20:00:00	3	Temperatura mínima	15.1
984	7	Sololá	701	Sololá	2	El tablón	11	Noviembre	2023-08-11T00:00:00	2024-11-08T20:00:00	5	Humedad	87
985	7	Sololá	701	Sololá	2	El tablón	11	Noviembre	2023-08-11T00:00:00	2024-11-08T20:00:00	6	Velocidad del viento	3.2
986	7	Sololá	701	Sololá	2	El tablón	11	Noviembre	2023-08-11T00:00:00	2024-11-08T20:00:00	7	Dirección del viento	3.22
987	7	Sololá	701	Sololá	2	El tablón	11	Noviembre	2023-08-11T00:00:00	2024-11-08T20:00:00	1	Precipitación	0
988	7	Sololá	701	Sololá	2	El tablón	11	Noviembre	2023-08-11T00:00:00	2024-11-08T20:00:00	8	Radiación solar	0
989	7	Sololá	701	Sololá	2	El tablón	11	Noviembre	2023-08-11T00:00:00	2024-11-08T21:00:00	2	Temperatura media	14.5
990	7	Sololá	701	Sololá	2	El tablón	11	Noviembre	2023-08-11T00:00:00	2024-11-08T21:00:00	4	Temperatura máxima	15.1
991	7	Sololá	701	Sololá	2	El tablón	11	Noviembre	2023-08-11T00:00:00	2024-11-08T21:00:00	3	Temperatura mínima	14.5
992	7	Sololá	701	Sololá	2	El tablón	11	Noviembre	2023-08-11T00:00:00	2024-11-08T21:00:00	5	Humedad	88
993	7	Sololá	701	Sololá	2	El tablón	11	Noviembre	2023-08-11T00:00:00	2024-11-08T21:00:00	6	Velocidad del viento	9.7
994	7	Sololá	701	Sololá	2	El tablón	11	Noviembre	2023-08-11T00:00:00	2024-11-08T21:00:00	7	Dirección del viento	9.66
995	7	Sololá	701	Sololá	2	El tablón	11	Noviembre	2023-08-11T00:00:00	2024-11-08T21:00:00	1	Precipitación	0
996	7	Sololá	701	Sololá	2	El tablón	11	Noviembre	2023-08-11T00:00:00	2024-11-08T21:00:00	8	Radiación solar	0
997	7	Sololá	701	Sololá	2	El tablón	11	Noviembre	2023-08-11T00:00:00	2024-11-08T22:00:00	2	Temperatura media	14.7
998	7	Sololá	701	Sololá	2	El tablón	11	Noviembre	2023-08-11T00:00:00	2024-11-08T22:00:00	4	Temperatura máxima	14.9
999	7	Sololá	701	Sololá	2	El tablón	11	Noviembre	2023-08-11T00:00:00	2024-11-08T22:00:00	3	Temperatura mínima	14.5
1000	7	Sololá	701	Sololá	2	El tablón	11	Noviembre	2023-08-11T00:00:00	2024-11-08T22:00:00	5	Humedad	88
1001	7	Sololá	701	Sololá	2	El tablón	11	Noviembre	2023-08-11T00:00:00	2024-11-08T22:00:00	6	Velocidad del viento	8
1002	7	Sololá	701	Sololá	2	El tablón	11	Noviembre	2023-08-11T00:00:00	2024-11-08T22:00:00	7	Dirección del viento	8.05
1003	7	Sololá	701	Sololá	2	El tablón	11	Noviembre	2023-08-11T00:00:00	2024-11-08T22:00:00	1	Precipitación	0
1004	7	Sololá	701	Sololá	2	El tablón	11	Noviembre	2023-08-11T00:00:00	2024-11-08T22:00:00	8	Radiación solar	0
1005	7	Sololá	701	Sololá	2	El tablón	11	Noviembre	2023-08-11T00:00:00	2024-11-08T23:00:00	2	Temperatura media	14.7
1006	7	Sololá	701	Sololá	2	El tablón	11	Noviembre	2023-08-11T00:00:00	2024-11-08T23:00:00	4	Temperatura máxima	14.7
1007	7	Sololá	701	Sololá	2	El tablón	11	Noviembre	2023-08-11T00:00:00	2024-11-08T23:00:00	3	Temperatura mínima	14.6
1008	7	Sololá	701	Sololá	2	El tablón	11	Noviembre	2023-08-11T00:00:00	2024-11-08T23:00:00	5	Humedad	88
1009	7	Sololá	701	Sololá	2	El tablón	11	Noviembre	2023-08-11T00:00:00	2024-11-08T23:00:00	6	Velocidad del viento	8
1010	7	Sololá	701	Sololá	2	El tablón	11	Noviembre	2023-08-11T00:00:00	2024-11-08T23:00:00	7	Dirección del viento	8.05
1011	7	Sololá	701	Sololá	2	El tablón	11	Noviembre	2023-08-11T00:00:00	2024-11-08T23:00:00	1	Precipitación	0
1012	7	Sololá	701	Sololá	2	El tablón	11	Noviembre	2023-08-11T00:00:00	2024-11-08T23:00:00	8	Radiación solar	0
1013	7	Sololá	701	Sololá	2	El tablón	11	Noviembre	2023-09-11T00:00:00	2024-11-08T00:00:00	2	Temperatura media	14.3
1014	7	Sololá	701	Sololá	2	El tablón	11	Noviembre	2023-09-11T00:00:00	2024-11-08T00:00:00	4	Temperatura máxima	14.7
1015	7	Sololá	701	Sololá	2	El tablón	11	Noviembre	2023-09-11T00:00:00	2024-11-08T00:00:00	3	Temperatura mínima	14.3
1016	7	Sololá	701	Sololá	2	El tablón	11	Noviembre	2023-09-11T00:00:00	2024-11-08T00:00:00	5	Humedad	88
1017	7	Sololá	701	Sololá	2	El tablón	11	Noviembre	2023-09-11T00:00:00	2024-11-08T00:00:00	6	Velocidad del viento	6.4
1018	7	Sololá	701	Sololá	2	El tablón	11	Noviembre	2023-09-11T00:00:00	2024-11-08T00:00:00	7	Dirección del viento	6.44
1019	7	Sololá	701	Sololá	2	El tablón	11	Noviembre	2023-09-11T00:00:00	2024-11-08T00:00:00	1	Precipitación	0
1020	7	Sololá	701	Sololá	2	El tablón	11	Noviembre	2023-09-11T00:00:00	2024-11-08T00:00:00	8	Radiación solar	0
1021	7	Sololá	701	Sololá	2	El tablón	11	Noviembre	2023-09-11T00:00:00	2024-11-08T01:00:00	2	Temperatura media	14.2
1022	7	Sololá	701	Sololá	2	El tablón	11	Noviembre	2023-09-11T00:00:00	2024-11-08T01:00:00	4	Temperatura máxima	14.4
1023	7	Sololá	701	Sololá	2	El tablón	11	Noviembre	2023-09-11T00:00:00	2024-11-08T01:00:00	3	Temperatura mínima	14.2
1024	7	Sololá	701	Sololá	2	El tablón	11	Noviembre	2023-09-11T00:00:00	2024-11-08T01:00:00	5	Humedad	88
1025	7	Sololá	701	Sololá	2	El tablón	11	Noviembre	2023-09-11T00:00:00	2024-11-08T01:00:00	6	Velocidad del viento	4.8
1026	7	Sololá	701	Sololá	2	El tablón	11	Noviembre	2023-09-11T00:00:00	2024-11-08T01:00:00	7	Dirección del viento	4.83
1027	7	Sololá	701	Sololá	2	El tablón	11	Noviembre	2023-09-11T00:00:00	2024-11-08T01:00:00	1	Precipitación	0
1028	7	Sololá	701	Sololá	2	El tablón	11	Noviembre	2023-09-11T00:00:00	2024-11-08T01:00:00	8	Radiación solar	0
1029	7	Sololá	701	Sololá	2	El tablón	11	Noviembre	2023-09-11T00:00:00	2024-11-08T02:00:00	2	Temperatura media	13.8
1030	7	Sololá	701	Sololá	2	El tablón	11	Noviembre	2023-09-11T00:00:00	2024-11-08T02:00:00	4	Temperatura máxima	14.2
1031	7	Sololá	701	Sololá	2	El tablón	11	Noviembre	2023-09-11T00:00:00	2024-11-08T02:00:00	3	Temperatura mínima	13.8
1032	7	Sololá	701	Sololá	2	El tablón	11	Noviembre	2023-09-11T00:00:00	2024-11-08T02:00:00	5	Humedad	89
1033	7	Sololá	701	Sololá	2	El tablón	11	Noviembre	2023-09-11T00:00:00	2024-11-08T02:00:00	6	Velocidad del viento	3.2
1034	7	Sololá	701	Sololá	2	El tablón	11	Noviembre	2023-09-11T00:00:00	2024-11-08T02:00:00	7	Dirección del viento	3.22
1035	7	Sololá	701	Sololá	2	El tablón	11	Noviembre	2023-09-11T00:00:00	2024-11-08T02:00:00	1	Precipitación	0
1036	7	Sololá	701	Sololá	2	El tablón	11	Noviembre	2023-09-11T00:00:00	2024-11-08T02:00:00	8	Radiación solar	0
1037	7	Sololá	701	Sololá	2	El tablón	11	Noviembre	2023-09-11T00:00:00	2024-11-08T03:00:00	2	Temperatura media	12
1038	7	Sololá	701	Sololá	2	El tablón	11	Noviembre	2023-09-11T00:00:00	2024-11-08T03:00:00	4	Temperatura máxima	13.8
1039	7	Sololá	701	Sololá	2	El tablón	11	Noviembre	2023-09-11T00:00:00	2024-11-08T03:00:00	3	Temperatura mínima	12
1040	7	Sololá	701	Sololá	2	El tablón	11	Noviembre	2023-09-11T00:00:00	2024-11-08T03:00:00	5	Humedad	89
1041	7	Sololá	701	Sololá	2	El tablón	11	Noviembre	2023-09-11T00:00:00	2024-11-08T03:00:00	6	Velocidad del viento	3.2
1042	7	Sololá	701	Sololá	2	El tablón	11	Noviembre	2023-09-11T00:00:00	2024-11-08T03:00:00	7	Dirección del viento	3.22
1043	7	Sololá	701	Sololá	2	El tablón	11	Noviembre	2023-09-11T00:00:00	2024-11-08T03:00:00	1	Precipitación	0
1044	7	Sololá	701	Sololá	2	El tablón	11	Noviembre	2023-09-11T00:00:00	2024-11-08T03:00:00	8	Radiación solar	0
1045	7	Sololá	701	Sololá	2	El tablón	11	Noviembre	2023-09-11T00:00:00	2024-11-08T04:00:00	2	Temperatura media	13.3
1046	7	Sololá	701	Sololá	2	El tablón	11	Noviembre	2023-09-11T00:00:00	2024-11-08T04:00:00	4	Temperatura máxima	13.3
1047	7	Sololá	701	Sololá	2	El tablón	11	Noviembre	2023-09-11T00:00:00	2024-11-08T04:00:00	3	Temperatura mínima	11.7
1048	7	Sololá	701	Sololá	2	El tablón	11	Noviembre	2023-09-11T00:00:00	2024-11-08T04:00:00	5	Humedad	88
1049	7	Sololá	701	Sololá	2	El tablón	11	Noviembre	2023-09-11T00:00:00	2024-11-08T04:00:00	6	Velocidad del viento	4.8
1050	7	Sololá	701	Sololá	2	El tablón	11	Noviembre	2023-09-11T00:00:00	2024-11-08T04:00:00	7	Dirección del viento	4.83
1051	7	Sololá	701	Sololá	2	El tablón	11	Noviembre	2023-09-11T00:00:00	2024-11-08T04:00:00	1	Precipitación	0
1052	7	Sololá	701	Sololá	2	El tablón	11	Noviembre	2023-09-11T00:00:00	2024-11-08T04:00:00	8	Radiación solar	0
1053	7	Sololá	701	Sololá	2	El tablón	11	Noviembre	2023-09-11T00:00:00	2024-11-08T05:00:00	2	Temperatura media	12.5
1054	7	Sololá	701	Sololá	2	El tablón	11	Noviembre	2023-09-11T00:00:00	2024-11-08T05:00:00	4	Temperatura máxima	13.3
1055	7	Sololá	701	Sololá	2	El tablón	11	Noviembre	2023-09-11T00:00:00	2024-11-08T05:00:00	3	Temperatura mínima	11.3
1056	7	Sololá	701	Sololá	2	El tablón	11	Noviembre	2023-09-11T00:00:00	2024-11-08T05:00:00	5	Humedad	88
1057	7	Sololá	701	Sololá	2	El tablón	11	Noviembre	2023-09-11T00:00:00	2024-11-08T05:00:00	6	Velocidad del viento	3.2
1058	7	Sololá	701	Sololá	2	El tablón	11	Noviembre	2023-09-11T00:00:00	2024-11-08T05:00:00	7	Dirección del viento	3.22
1059	7	Sololá	701	Sololá	2	El tablón	11	Noviembre	2023-09-11T00:00:00	2024-11-08T05:00:00	1	Precipitación	0
1060	7	Sololá	701	Sololá	2	El tablón	11	Noviembre	2023-09-11T00:00:00	2024-11-08T05:00:00	8	Radiación solar	0
1061	7	Sololá	701	Sololá	2	El tablón	11	Noviembre	2023-09-11T00:00:00	2024-11-08T06:00:00	2	Temperatura media	10.8
1062	7	Sololá	701	Sololá	2	El tablón	11	Noviembre	2023-09-11T00:00:00	2024-11-08T06:00:00	4	Temperatura máxima	12.6
1063	7	Sololá	701	Sololá	2	El tablón	11	Noviembre	2023-09-11T00:00:00	2024-11-08T06:00:00	3	Temperatura mínima	10.8
1064	7	Sololá	701	Sololá	2	El tablón	11	Noviembre	2023-09-11T00:00:00	2024-11-08T06:00:00	5	Humedad	89
1065	7	Sololá	701	Sololá	2	El tablón	11	Noviembre	2023-09-11T00:00:00	2024-11-08T06:00:00	6	Velocidad del viento	4.8
1066	7	Sololá	701	Sololá	2	El tablón	11	Noviembre	2023-09-11T00:00:00	2024-11-08T06:00:00	7	Dirección del viento	4.83
1067	7	Sololá	701	Sololá	2	El tablón	11	Noviembre	2023-09-11T00:00:00	2024-11-08T06:00:00	1	Precipitación	0
1068	7	Sololá	701	Sololá	2	El tablón	11	Noviembre	2023-09-11T00:00:00	2024-11-08T06:00:00	8	Radiación solar	0
1069	7	Sololá	701	Sololá	2	El tablón	11	Noviembre	2023-09-11T00:00:00	2024-11-08T07:00:00	2	Temperatura media	12.4
1070	7	Sololá	701	Sololá	2	El tablón	11	Noviembre	2023-09-11T00:00:00	2024-11-08T07:00:00	4	Temperatura máxima	12.4
1071	7	Sololá	701	Sololá	2	El tablón	11	Noviembre	2023-09-11T00:00:00	2024-11-08T07:00:00	3	Temperatura mínima	10.9
1072	7	Sololá	701	Sololá	2	El tablón	11	Noviembre	2023-09-11T00:00:00	2024-11-08T07:00:00	5	Humedad	84
1073	7	Sololá	701	Sololá	2	El tablón	11	Noviembre	2023-09-11T00:00:00	2024-11-08T07:00:00	6	Velocidad del viento	4.8
1074	7	Sololá	701	Sololá	2	El tablón	11	Noviembre	2023-09-11T00:00:00	2024-11-08T07:00:00	7	Dirección del viento	4.83
1075	7	Sololá	701	Sololá	2	El tablón	11	Noviembre	2023-09-11T00:00:00	2024-11-08T07:00:00	1	Precipitación	0
1076	7	Sololá	701	Sololá	2	El tablón	11	Noviembre	2023-09-11T00:00:00	2024-11-08T07:00:00	8	Radiación solar	26
1077	7	Sololá	701	Sololá	2	El tablón	11	Noviembre	2023-09-11T00:00:00	2024-11-08T08:00:00	2	Temperatura media	15.9
1078	7	Sololá	701	Sololá	2	El tablón	11	Noviembre	2023-09-11T00:00:00	2024-11-08T08:00:00	4	Temperatura máxima	15.9
1079	7	Sololá	701	Sololá	2	El tablón	11	Noviembre	2023-09-11T00:00:00	2024-11-08T08:00:00	3	Temperatura mínima	12.4
1080	7	Sololá	701	Sololá	2	El tablón	11	Noviembre	2023-09-11T00:00:00	2024-11-08T08:00:00	5	Humedad	79
1081	7	Sololá	701	Sololá	2	El tablón	11	Noviembre	2023-09-11T00:00:00	2024-11-08T08:00:00	6	Velocidad del viento	1.6
1082	7	Sololá	701	Sololá	2	El tablón	11	Noviembre	2023-09-11T00:00:00	2024-11-08T08:00:00	7	Dirección del viento	1.61
1083	7	Sololá	701	Sololá	2	El tablón	11	Noviembre	2023-09-11T00:00:00	2024-11-08T08:00:00	1	Precipitación	0
1084	7	Sololá	701	Sololá	2	El tablón	11	Noviembre	2023-09-11T00:00:00	2024-11-08T08:00:00	8	Radiación solar	217
1085	7	Sololá	701	Sololá	2	El tablón	11	Noviembre	2023-09-11T00:00:00	2024-11-08T09:00:00	2	Temperatura media	17.9
1086	7	Sololá	701	Sololá	2	El tablón	11	Noviembre	2023-09-11T00:00:00	2024-11-08T09:00:00	4	Temperatura máxima	17.9
1087	7	Sololá	701	Sololá	2	El tablón	11	Noviembre	2023-09-11T00:00:00	2024-11-08T09:00:00	3	Temperatura mínima	15.9
1088	7	Sololá	701	Sololá	2	El tablón	11	Noviembre	2023-09-11T00:00:00	2024-11-08T09:00:00	5	Humedad	80
1089	7	Sololá	701	Sololá	2	El tablón	11	Noviembre	2023-09-11T00:00:00	2024-11-08T09:00:00	6	Velocidad del viento	3.2
1090	7	Sololá	701	Sololá	2	El tablón	11	Noviembre	2023-09-11T00:00:00	2024-11-08T09:00:00	7	Dirección del viento	3.22
1091	7	Sololá	701	Sololá	2	El tablón	11	Noviembre	2023-09-11T00:00:00	2024-11-08T09:00:00	1	Precipitación	0
1092	7	Sololá	701	Sololá	2	El tablón	11	Noviembre	2023-09-11T00:00:00	2024-11-08T09:00:00	8	Radiación solar	455
1093	7	Sololá	701	Sololá	2	El tablón	11	Noviembre	2023-09-11T00:00:00	2024-11-08T10:00:00	2	Temperatura media	18.1
1094	7	Sololá	701	Sololá	2	El tablón	11	Noviembre	2023-09-11T00:00:00	2024-11-08T10:00:00	4	Temperatura máxima	18.2
1095	7	Sololá	701	Sololá	2	El tablón	11	Noviembre	2023-09-11T00:00:00	2024-11-08T10:00:00	3	Temperatura mínima	17.2
1096	7	Sololá	701	Sololá	2	El tablón	11	Noviembre	2023-09-11T00:00:00	2024-11-08T10:00:00	5	Humedad	82
1097	7	Sololá	701	Sololá	2	El tablón	11	Noviembre	2023-09-11T00:00:00	2024-11-08T10:00:00	6	Velocidad del viento	4.8
1098	7	Sololá	701	Sololá	2	El tablón	11	Noviembre	2023-09-11T00:00:00	2024-11-08T10:00:00	7	Dirección del viento	4.83
1099	7	Sololá	701	Sololá	2	El tablón	11	Noviembre	2023-09-11T00:00:00	2024-11-08T10:00:00	1	Precipitación	0
1100	7	Sololá	701	Sololá	2	El tablón	11	Noviembre	2023-09-11T00:00:00	2024-11-08T10:00:00	8	Radiación solar	563
1101	7	Sololá	701	Sololá	2	El tablón	11	Noviembre	2023-09-11T00:00:00	2024-11-08T11:00:00	2	Temperatura media	18
1102	7	Sololá	701	Sololá	2	El tablón	11	Noviembre	2023-09-11T00:00:00	2024-11-08T11:00:00	4	Temperatura máxima	18.1
1103	7	Sololá	701	Sololá	2	El tablón	11	Noviembre	2023-09-11T00:00:00	2024-11-08T11:00:00	3	Temperatura mínima	16.8
1104	7	Sololá	701	Sololá	2	El tablón	11	Noviembre	2023-09-11T00:00:00	2024-11-08T11:00:00	5	Humedad	83
1105	7	Sololá	701	Sololá	2	El tablón	11	Noviembre	2023-09-11T00:00:00	2024-11-08T11:00:00	6	Velocidad del viento	6.4
1106	7	Sololá	701	Sololá	2	El tablón	11	Noviembre	2023-09-11T00:00:00	2024-11-08T11:00:00	7	Dirección del viento	6.44
1107	7	Sololá	701	Sololá	2	El tablón	11	Noviembre	2023-09-11T00:00:00	2024-11-08T11:00:00	1	Precipitación	0
1108	7	Sololá	701	Sololá	2	El tablón	11	Noviembre	2023-09-11T00:00:00	2024-11-08T11:00:00	8	Radiación solar	545
1109	7	Sololá	701	Sololá	2	El tablón	11	Noviembre	2023-09-11T00:00:00	2024-11-08T12:00:00	2	Temperatura media	18.8
1110	7	Sololá	701	Sololá	2	El tablón	11	Noviembre	2023-09-11T00:00:00	2024-11-08T12:00:00	4	Temperatura máxima	18.8
1111	7	Sololá	701	Sololá	2	El tablón	11	Noviembre	2023-09-11T00:00:00	2024-11-08T12:00:00	3	Temperatura mínima	18.1
1112	7	Sololá	701	Sololá	2	El tablón	11	Noviembre	2023-09-11T00:00:00	2024-11-08T12:00:00	5	Humedad	81
1113	7	Sololá	701	Sololá	2	El tablón	11	Noviembre	2023-09-11T00:00:00	2024-11-08T12:00:00	6	Velocidad del viento	6.4
1114	7	Sololá	701	Sololá	2	El tablón	11	Noviembre	2023-09-11T00:00:00	2024-11-08T12:00:00	7	Dirección del viento	6.44
1115	7	Sololá	701	Sololá	2	El tablón	11	Noviembre	2023-09-11T00:00:00	2024-11-08T12:00:00	1	Precipitación	0
1116	7	Sololá	701	Sololá	2	El tablón	11	Noviembre	2023-09-11T00:00:00	2024-11-08T12:00:00	8	Radiación solar	585
1117	7	Sololá	701	Sololá	2	El tablón	11	Noviembre	2023-09-11T00:00:00	2024-11-08T13:00:00	2	Temperatura media	19.1
1118	7	Sololá	701	Sololá	2	El tablón	11	Noviembre	2023-09-11T00:00:00	2024-11-08T13:00:00	4	Temperatura máxima	19.3
1119	7	Sololá	701	Sololá	2	El tablón	11	Noviembre	2023-09-11T00:00:00	2024-11-08T13:00:00	3	Temperatura mínima	18
1120	7	Sololá	701	Sololá	2	El tablón	11	Noviembre	2023-09-11T00:00:00	2024-11-08T13:00:00	5	Humedad	81
1121	7	Sololá	701	Sololá	2	El tablón	11	Noviembre	2023-09-11T00:00:00	2024-11-08T13:00:00	6	Velocidad del viento	6.4
1122	7	Sololá	701	Sololá	2	El tablón	11	Noviembre	2023-09-11T00:00:00	2024-11-08T13:00:00	7	Dirección del viento	6.44
1123	7	Sololá	701	Sololá	2	El tablón	11	Noviembre	2023-09-11T00:00:00	2024-11-08T13:00:00	1	Precipitación	0
1124	7	Sololá	701	Sololá	2	El tablón	11	Noviembre	2023-09-11T00:00:00	2024-11-08T13:00:00	8	Radiación solar	619
1125	7	Sololá	701	Sololá	2	El tablón	11	Noviembre	2023-09-11T00:00:00	2024-11-08T14:00:00	2	Temperatura media	18.9
1126	7	Sololá	701	Sololá	2	El tablón	11	Noviembre	2023-09-11T00:00:00	2024-11-08T14:00:00	4	Temperatura máxima	19.7
1127	7	Sololá	701	Sololá	2	El tablón	11	Noviembre	2023-09-11T00:00:00	2024-11-08T14:00:00	3	Temperatura mínima	18.9
1128	7	Sololá	701	Sololá	2	El tablón	11	Noviembre	2023-09-11T00:00:00	2024-11-08T14:00:00	5	Humedad	80
1129	7	Sololá	701	Sololá	2	El tablón	11	Noviembre	2023-09-11T00:00:00	2024-11-08T14:00:00	6	Velocidad del viento	8
1130	7	Sololá	701	Sololá	2	El tablón	11	Noviembre	2023-09-11T00:00:00	2024-11-08T14:00:00	7	Dirección del viento	8.05
1131	7	Sololá	701	Sololá	2	El tablón	11	Noviembre	2023-09-11T00:00:00	2024-11-08T14:00:00	1	Precipitación	0
1132	7	Sololá	701	Sololá	2	El tablón	11	Noviembre	2023-09-11T00:00:00	2024-11-08T14:00:00	8	Radiación solar	779
1133	7	Sololá	701	Sololá	2	El tablón	11	Noviembre	2023-09-11T00:00:00	2024-11-08T15:00:00	2	Temperatura media	19.2
1134	7	Sololá	701	Sololá	2	El tablón	11	Noviembre	2023-09-11T00:00:00	2024-11-08T15:00:00	4	Temperatura máxima	19.3
1135	7	Sololá	701	Sololá	2	El tablón	11	Noviembre	2023-09-11T00:00:00	2024-11-08T15:00:00	3	Temperatura mínima	18.9
1136	7	Sololá	701	Sololá	2	El tablón	11	Noviembre	2023-09-11T00:00:00	2024-11-08T15:00:00	5	Humedad	84
1137	7	Sololá	701	Sololá	2	El tablón	11	Noviembre	2023-09-11T00:00:00	2024-11-08T15:00:00	6	Velocidad del viento	8
1138	7	Sololá	701	Sololá	2	El tablón	11	Noviembre	2023-09-11T00:00:00	2024-11-08T15:00:00	7	Dirección del viento	8.05
1139	7	Sololá	701	Sololá	2	El tablón	11	Noviembre	2023-09-11T00:00:00	2024-11-08T15:00:00	1	Precipitación	0
1140	7	Sololá	701	Sololá	2	El tablón	11	Noviembre	2023-09-11T00:00:00	2024-11-08T15:00:00	8	Radiación solar	611
1141	7	Sololá	701	Sololá	2	El tablón	11	Noviembre	2023-09-11T00:00:00	2024-11-08T16:00:00	2	Temperatura media	18.2
1142	7	Sololá	701	Sololá	2	El tablón	11	Noviembre	2023-09-11T00:00:00	2024-11-08T16:00:00	4	Temperatura máxima	19.2
1143	7	Sololá	701	Sololá	2	El tablón	11	Noviembre	2023-09-11T00:00:00	2024-11-08T16:00:00	3	Temperatura mínima	18.1
1144	7	Sololá	701	Sololá	2	El tablón	11	Noviembre	2023-09-11T00:00:00	2024-11-08T16:00:00	5	Humedad	85
1145	7	Sololá	701	Sololá	2	El tablón	11	Noviembre	2023-09-11T00:00:00	2024-11-08T16:00:00	6	Velocidad del viento	8
1146	7	Sololá	701	Sololá	2	El tablón	11	Noviembre	2023-09-11T00:00:00	2024-11-08T16:00:00	7	Dirección del viento	8.05
1147	7	Sololá	701	Sololá	2	El tablón	11	Noviembre	2023-09-11T00:00:00	2024-11-08T16:00:00	1	Precipitación	0
1148	7	Sololá	701	Sololá	2	El tablón	11	Noviembre	2023-09-11T00:00:00	2024-11-08T16:00:00	8	Radiación solar	442
1149	7	Sololá	701	Sololá	2	El tablón	11	Noviembre	2023-09-11T00:00:00	2024-11-08T17:00:00	2	Temperatura media	17.1
1150	7	Sololá	701	Sololá	2	El tablón	11	Noviembre	2023-09-11T00:00:00	2024-11-08T17:00:00	4	Temperatura máxima	18.2
1151	7	Sololá	701	Sololá	2	El tablón	11	Noviembre	2023-09-11T00:00:00	2024-11-08T17:00:00	3	Temperatura mínima	17
1152	7	Sololá	701	Sololá	2	El tablón	11	Noviembre	2023-09-11T00:00:00	2024-11-08T17:00:00	5	Humedad	79
1153	7	Sololá	701	Sololá	2	El tablón	11	Noviembre	2023-09-11T00:00:00	2024-11-08T17:00:00	6	Velocidad del viento	3.2
1154	7	Sololá	701	Sololá	2	El tablón	11	Noviembre	2023-09-11T00:00:00	2024-11-08T17:00:00	7	Dirección del viento	3.22
1155	7	Sololá	701	Sololá	2	El tablón	11	Noviembre	2023-09-11T00:00:00	2024-11-08T17:00:00	1	Precipitación	0
1156	7	Sololá	701	Sololá	2	El tablón	11	Noviembre	2023-09-11T00:00:00	2024-11-08T17:00:00	8	Radiación solar	129
1157	7	Sololá	701	Sololá	2	El tablón	11	Noviembre	2023-09-11T00:00:00	2024-11-08T18:00:00	2	Temperatura media	15.6
1158	7	Sololá	701	Sololá	2	El tablón	11	Noviembre	2023-09-11T00:00:00	2024-11-08T18:00:00	4	Temperatura máxima	17.1
1159	7	Sololá	701	Sololá	2	El tablón	11	Noviembre	2023-09-11T00:00:00	2024-11-08T18:00:00	3	Temperatura mínima	15.6
1160	7	Sololá	701	Sololá	2	El tablón	11	Noviembre	2023-09-11T00:00:00	2024-11-08T18:00:00	5	Humedad	82
1161	7	Sololá	701	Sololá	2	El tablón	11	Noviembre	2023-09-11T00:00:00	2024-11-08T18:00:00	6	Velocidad del viento	3.2
1162	7	Sololá	701	Sololá	2	El tablón	11	Noviembre	2023-09-11T00:00:00	2024-11-08T18:00:00	7	Dirección del viento	3.22
1163	7	Sololá	701	Sololá	2	El tablón	11	Noviembre	2023-09-11T00:00:00	2024-11-08T18:00:00	1	Precipitación	0
1164	7	Sololá	701	Sololá	2	El tablón	11	Noviembre	2023-09-11T00:00:00	2024-11-08T18:00:00	8	Radiación solar	9
1165	7	Sololá	701	Sololá	2	El tablón	11	Noviembre	2023-09-11T00:00:00	2024-11-08T19:00:00	2	Temperatura media	14.4
1166	7	Sololá	701	Sololá	2	El tablón	11	Noviembre	2023-09-11T00:00:00	2024-11-08T19:00:00	4	Temperatura máxima	15.5
1167	7	Sololá	701	Sololá	2	El tablón	11	Noviembre	2023-09-11T00:00:00	2024-11-08T19:00:00	3	Temperatura mínima	14.4
1168	7	Sololá	701	Sololá	2	El tablón	11	Noviembre	2023-09-11T00:00:00	2024-11-08T19:00:00	5	Humedad	86
1169	7	Sololá	701	Sololá	2	El tablón	11	Noviembre	2023-09-11T00:00:00	2024-11-08T19:00:00	6	Velocidad del viento	1.6
1170	7	Sololá	701	Sololá	2	El tablón	11	Noviembre	2023-09-11T00:00:00	2024-11-08T19:00:00	7	Dirección del viento	1.61
1171	7	Sololá	701	Sololá	2	El tablón	11	Noviembre	2023-09-11T00:00:00	2024-11-08T19:00:00	1	Precipitación	0
1172	7	Sololá	701	Sololá	2	El tablón	11	Noviembre	2023-09-11T00:00:00	2024-11-08T19:00:00	8	Radiación solar	0
1173	7	Sololá	701	Sololá	2	El tablón	11	Noviembre	2023-09-11T00:00:00	2024-11-08T20:00:00	2	Temperatura media	13.7
1174	7	Sololá	701	Sololá	2	El tablón	11	Noviembre	2023-09-11T00:00:00	2024-11-08T20:00:00	4	Temperatura máxima	14.4
1175	7	Sololá	701	Sololá	2	El tablón	11	Noviembre	2023-09-11T00:00:00	2024-11-08T20:00:00	3	Temperatura mínima	13.7
1176	7	Sololá	701	Sololá	2	El tablón	11	Noviembre	2023-09-11T00:00:00	2024-11-08T20:00:00	5	Humedad	87
1177	7	Sololá	701	Sololá	2	El tablón	11	Noviembre	2023-09-11T00:00:00	2024-11-08T20:00:00	6	Velocidad del viento	4.8
1178	7	Sololá	701	Sololá	2	El tablón	11	Noviembre	2023-09-11T00:00:00	2024-11-08T20:00:00	7	Dirección del viento	4.83
1179	7	Sololá	701	Sololá	2	El tablón	11	Noviembre	2023-09-11T00:00:00	2024-11-08T20:00:00	1	Precipitación	0
1180	7	Sololá	701	Sololá	2	El tablón	11	Noviembre	2023-09-11T00:00:00	2024-11-08T20:00:00	8	Radiación solar	0
1181	7	Sololá	701	Sololá	2	El tablón	11	Noviembre	2023-09-11T00:00:00	2024-11-08T21:00:00	2	Temperatura media	13.2
1182	7	Sololá	701	Sololá	2	El tablón	11	Noviembre	2023-09-11T00:00:00	2024-11-08T21:00:00	4	Temperatura máxima	13.7
1183	7	Sololá	701	Sololá	2	El tablón	11	Noviembre	2023-09-11T00:00:00	2024-11-08T21:00:00	3	Temperatura mínima	13.2
1184	7	Sololá	701	Sololá	2	El tablón	11	Noviembre	2023-09-11T00:00:00	2024-11-08T21:00:00	5	Humedad	87
1185	7	Sololá	701	Sololá	2	El tablón	11	Noviembre	2023-09-11T00:00:00	2024-11-08T21:00:00	6	Velocidad del viento	3.2
1186	7	Sololá	701	Sololá	2	El tablón	11	Noviembre	2023-09-11T00:00:00	2024-11-08T21:00:00	7	Dirección del viento	3.22
1187	7	Sololá	701	Sololá	2	El tablón	11	Noviembre	2023-09-11T00:00:00	2024-11-08T21:00:00	1	Precipitación	0
1188	7	Sololá	701	Sololá	2	El tablón	11	Noviembre	2023-09-11T00:00:00	2024-11-08T21:00:00	8	Radiación solar	0
1189	7	Sololá	701	Sololá	2	El tablón	11	Noviembre	2023-09-11T00:00:00	2024-11-08T22:00:00	2	Temperatura media	11.6
1190	7	Sololá	701	Sololá	2	El tablón	11	Noviembre	2023-09-11T00:00:00	2024-11-08T22:00:00	4	Temperatura máxima	13.2
1191	7	Sololá	701	Sololá	2	El tablón	11	Noviembre	2023-09-11T00:00:00	2024-11-08T22:00:00	3	Temperatura mínima	11.6
1192	7	Sololá	701	Sololá	2	El tablón	11	Noviembre	2023-09-11T00:00:00	2024-11-08T22:00:00	5	Humedad	88
1193	7	Sololá	701	Sololá	2	El tablón	11	Noviembre	2023-09-11T00:00:00	2024-11-08T22:00:00	6	Velocidad del viento	3.2
1194	7	Sololá	701	Sololá	2	El tablón	11	Noviembre	2023-09-11T00:00:00	2024-11-08T22:00:00	7	Dirección del viento	3.22
1195	7	Sololá	701	Sololá	2	El tablón	11	Noviembre	2023-09-11T00:00:00	2024-11-08T22:00:00	1	Precipitación	0
1196	7	Sololá	701	Sololá	2	El tablón	11	Noviembre	2023-09-11T00:00:00	2024-11-08T22:00:00	8	Radiación solar	0
1197	7	Sololá	701	Sololá	2	El tablón	11	Noviembre	2023-09-11T00:00:00	2024-11-08T23:00:00	2	Temperatura media	11
1198	7	Sololá	701	Sololá	2	El tablón	11	Noviembre	2023-09-11T00:00:00	2024-11-08T23:00:00	4	Temperatura máxima	11.6
1199	7	Sololá	701	Sololá	2	El tablón	11	Noviembre	2023-09-11T00:00:00	2024-11-08T23:00:00	3	Temperatura mínima	10.8
1200	7	Sololá	701	Sololá	2	El tablón	11	Noviembre	2023-09-11T00:00:00	2024-11-08T23:00:00	5	Humedad	88
1201	7	Sololá	701	Sololá	2	El tablón	11	Noviembre	2023-09-11T00:00:00	2024-11-08T23:00:00	6	Velocidad del viento	3.2
1202	7	Sololá	701	Sololá	2	El tablón	11	Noviembre	2023-09-11T00:00:00	2024-11-08T23:00:00	7	Dirección del viento	3.22
1203	7	Sololá	701	Sololá	2	El tablón	11	Noviembre	2023-09-11T00:00:00	2024-11-08T23:00:00	1	Precipitación	0
1204	7	Sololá	701	Sololá	2	El tablón	11	Noviembre	2023-09-11T00:00:00	2024-11-08T23:00:00	8	Radiación solar	0
1205	7	Sololá	701	Sololá	2	El tablón	11	Noviembre	2023-10-11T00:00:00	2024-11-08T00:00:00	2	Temperatura media	11.1
1206	7	Sololá	701	Sololá	2	El tablón	11	Noviembre	2023-10-11T00:00:00	2024-11-08T00:00:00	4	Temperatura máxima	11.2
1207	7	Sololá	701	Sololá	2	El tablón	11	Noviembre	2023-10-11T00:00:00	2024-11-08T00:00:00	3	Temperatura mínima	11
1208	7	Sololá	701	Sololá	2	El tablón	11	Noviembre	2023-10-11T00:00:00	2024-11-08T00:00:00	5	Humedad	88
1209	7	Sololá	701	Sololá	2	El tablón	11	Noviembre	2023-10-11T00:00:00	2024-11-08T00:00:00	6	Velocidad del viento	4.8
1210	7	Sololá	701	Sololá	2	El tablón	11	Noviembre	2023-10-11T00:00:00	2024-11-08T00:00:00	7	Dirección del viento	4.83
1211	7	Sololá	701	Sololá	2	El tablón	11	Noviembre	2023-10-11T00:00:00	2024-11-08T00:00:00	1	Precipitación	0
1212	7	Sololá	701	Sololá	2	El tablón	11	Noviembre	2023-10-11T00:00:00	2024-11-08T00:00:00	8	Radiación solar	0
1213	7	Sololá	701	Sololá	2	El tablón	11	Noviembre	2023-10-11T00:00:00	2024-11-08T01:00:00	2	Temperatura media	9.8
1214	7	Sololá	701	Sololá	2	El tablón	11	Noviembre	2023-10-11T00:00:00	2024-11-08T01:00:00	4	Temperatura máxima	11.1
1215	7	Sololá	701	Sololá	2	El tablón	11	Noviembre	2023-10-11T00:00:00	2024-11-08T01:00:00	3	Temperatura mínima	9.8
1216	7	Sololá	701	Sololá	2	El tablón	11	Noviembre	2023-10-11T00:00:00	2024-11-08T01:00:00	5	Humedad	89
1217	7	Sololá	701	Sololá	2	El tablón	11	Noviembre	2023-10-11T00:00:00	2024-11-08T01:00:00	6	Velocidad del viento	3.2
1218	7	Sololá	701	Sololá	2	El tablón	11	Noviembre	2023-10-11T00:00:00	2024-11-08T01:00:00	7	Dirección del viento	3.22
1219	7	Sololá	701	Sololá	2	El tablón	11	Noviembre	2023-10-11T00:00:00	2024-11-08T01:00:00	1	Precipitación	0
1220	7	Sololá	701	Sololá	2	El tablón	11	Noviembre	2023-10-11T00:00:00	2024-11-08T01:00:00	8	Radiación solar	0
1221	7	Sololá	701	Sololá	2	El tablón	11	Noviembre	2023-10-11T00:00:00	2024-11-08T02:00:00	2	Temperatura media	10.1
1222	7	Sololá	701	Sololá	2	El tablón	11	Noviembre	2023-10-11T00:00:00	2024-11-08T02:00:00	4	Temperatura máxima	10.2
1223	7	Sololá	701	Sololá	2	El tablón	11	Noviembre	2023-10-11T00:00:00	2024-11-08T02:00:00	3	Temperatura mínima	9.8
1224	7	Sololá	701	Sololá	2	El tablón	11	Noviembre	2023-10-11T00:00:00	2024-11-08T02:00:00	5	Humedad	89
1225	7	Sololá	701	Sololá	2	El tablón	11	Noviembre	2023-10-11T00:00:00	2024-11-08T02:00:00	6	Velocidad del viento	4.8
1226	7	Sololá	701	Sololá	2	El tablón	11	Noviembre	2023-10-11T00:00:00	2024-11-08T02:00:00	7	Dirección del viento	4.83
1227	7	Sololá	701	Sololá	2	El tablón	11	Noviembre	2023-10-11T00:00:00	2024-11-08T02:00:00	1	Precipitación	0
1228	7	Sololá	701	Sololá	2	El tablón	11	Noviembre	2023-10-11T00:00:00	2024-11-08T02:00:00	8	Radiación solar	0
1229	7	Sololá	701	Sololá	2	El tablón	11	Noviembre	2023-10-11T00:00:00	2024-11-08T03:00:00	2	Temperatura media	9.4
1230	7	Sololá	701	Sololá	2	El tablón	11	Noviembre	2023-10-11T00:00:00	2024-11-08T03:00:00	4	Temperatura máxima	10.1
1231	7	Sololá	701	Sololá	2	El tablón	11	Noviembre	2023-10-11T00:00:00	2024-11-08T03:00:00	3	Temperatura mínima	9.3
1232	7	Sololá	701	Sololá	2	El tablón	11	Noviembre	2023-10-11T00:00:00	2024-11-08T03:00:00	5	Humedad	89
1233	7	Sololá	701	Sololá	2	El tablón	11	Noviembre	2023-10-11T00:00:00	2024-11-08T03:00:00	6	Velocidad del viento	4.8
1234	7	Sololá	701	Sololá	2	El tablón	11	Noviembre	2023-10-11T00:00:00	2024-11-08T03:00:00	7	Dirección del viento	4.83
1235	7	Sololá	701	Sololá	2	El tablón	11	Noviembre	2023-10-11T00:00:00	2024-11-08T03:00:00	1	Precipitación	0
1236	7	Sololá	701	Sololá	2	El tablón	11	Noviembre	2023-10-11T00:00:00	2024-11-08T03:00:00	8	Radiación solar	0
1237	7	Sololá	701	Sololá	2	El tablón	11	Noviembre	2023-10-11T00:00:00	2024-11-08T04:00:00	2	Temperatura media	8.7
1238	7	Sololá	701	Sololá	2	El tablón	11	Noviembre	2023-10-11T00:00:00	2024-11-08T04:00:00	4	Temperatura máxima	9.4
1239	7	Sololá	701	Sololá	2	El tablón	11	Noviembre	2023-10-11T00:00:00	2024-11-08T04:00:00	3	Temperatura mínima	8.7
1240	7	Sololá	701	Sololá	2	El tablón	11	Noviembre	2023-10-11T00:00:00	2024-11-08T04:00:00	5	Humedad	89
1241	7	Sololá	701	Sololá	2	El tablón	11	Noviembre	2023-10-11T00:00:00	2024-11-08T04:00:00	6	Velocidad del viento	6.4
1242	7	Sololá	701	Sololá	2	El tablón	11	Noviembre	2023-10-11T00:00:00	2024-11-08T04:00:00	7	Dirección del viento	6.44
1243	7	Sololá	701	Sololá	2	El tablón	11	Noviembre	2023-10-11T00:00:00	2024-11-08T04:00:00	1	Precipitación	0
1244	7	Sololá	701	Sololá	2	El tablón	11	Noviembre	2023-10-11T00:00:00	2024-11-08T04:00:00	8	Radiación solar	0
1245	7	Sololá	701	Sololá	2	El tablón	11	Noviembre	2023-10-11T00:00:00	2024-11-08T05:00:00	2	Temperatura media	8.6
1246	7	Sololá	701	Sololá	2	El tablón	11	Noviembre	2023-10-11T00:00:00	2024-11-08T05:00:00	4	Temperatura máxima	8.8
1247	7	Sololá	701	Sololá	2	El tablón	11	Noviembre	2023-10-11T00:00:00	2024-11-08T05:00:00	3	Temperatura mínima	8.3
1248	7	Sololá	701	Sololá	2	El tablón	11	Noviembre	2023-10-11T00:00:00	2024-11-08T05:00:00	5	Humedad	88
1249	7	Sololá	701	Sololá	2	El tablón	11	Noviembre	2023-10-11T00:00:00	2024-11-08T05:00:00	6	Velocidad del viento	4.8
1250	7	Sololá	701	Sololá	2	El tablón	11	Noviembre	2023-10-11T00:00:00	2024-11-08T05:00:00	7	Dirección del viento	4.83
1251	7	Sololá	701	Sololá	2	El tablón	11	Noviembre	2023-10-11T00:00:00	2024-11-08T05:00:00	1	Precipitación	0
1252	7	Sololá	701	Sololá	2	El tablón	11	Noviembre	2023-10-11T00:00:00	2024-11-08T05:00:00	8	Radiación solar	0
1253	7	Sololá	701	Sololá	2	El tablón	11	Noviembre	2023-10-11T00:00:00	2024-11-08T06:00:00	2	Temperatura media	8.1
1254	7	Sololá	701	Sololá	2	El tablón	11	Noviembre	2023-10-11T00:00:00	2024-11-08T06:00:00	4	Temperatura máxima	8.8
1255	7	Sololá	701	Sololá	2	El tablón	11	Noviembre	2023-10-11T00:00:00	2024-11-08T06:00:00	3	Temperatura mínima	8.1
1256	7	Sololá	701	Sololá	2	El tablón	11	Noviembre	2023-10-11T00:00:00	2024-11-08T06:00:00	5	Humedad	80
1257	7	Sololá	701	Sololá	2	El tablón	11	Noviembre	2023-10-11T00:00:00	2024-11-08T06:00:00	6	Velocidad del viento	4.8
1258	7	Sololá	701	Sololá	2	El tablón	11	Noviembre	2023-10-11T00:00:00	2024-11-08T06:00:00	7	Dirección del viento	4.83
1259	7	Sololá	701	Sololá	2	El tablón	11	Noviembre	2023-10-11T00:00:00	2024-11-08T06:00:00	1	Precipitación	0
1260	7	Sololá	701	Sololá	2	El tablón	11	Noviembre	2023-10-11T00:00:00	2024-11-08T06:00:00	8	Radiación solar	0
1261	7	Sololá	701	Sololá	2	El tablón	11	Noviembre	2023-10-11T00:00:00	2024-11-08T07:00:00	2	Temperatura media	10
1262	7	Sololá	701	Sololá	2	El tablón	11	Noviembre	2023-10-11T00:00:00	2024-11-08T07:00:00	4	Temperatura máxima	10
1263	7	Sololá	701	Sololá	2	El tablón	11	Noviembre	2023-10-11T00:00:00	2024-11-08T07:00:00	3	Temperatura mínima	7.9
1264	7	Sololá	701	Sololá	2	El tablón	11	Noviembre	2023-10-11T00:00:00	2024-11-08T07:00:00	5	Humedad	63
1265	7	Sololá	701	Sololá	2	El tablón	11	Noviembre	2023-10-11T00:00:00	2024-11-08T07:00:00	6	Velocidad del viento	4.8
1266	7	Sololá	701	Sololá	2	El tablón	11	Noviembre	2023-10-11T00:00:00	2024-11-08T07:00:00	7	Dirección del viento	4.83
1267	7	Sololá	701	Sololá	2	El tablón	11	Noviembre	2023-10-11T00:00:00	2024-11-08T07:00:00	1	Precipitación	0
1268	7	Sololá	701	Sololá	2	El tablón	11	Noviembre	2023-10-11T00:00:00	2024-11-08T07:00:00	8	Radiación solar	39
1269	7	Sololá	701	Sololá	2	El tablón	11	Noviembre	2023-10-11T00:00:00	2024-11-08T08:00:00	2	Temperatura media	15.5
1270	7	Sololá	701	Sololá	2	El tablón	11	Noviembre	2023-10-11T00:00:00	2024-11-08T08:00:00	4	Temperatura máxima	15.5
1271	7	Sololá	701	Sololá	2	El tablón	11	Noviembre	2023-10-11T00:00:00	2024-11-08T08:00:00	3	Temperatura mínima	10
1272	7	Sololá	701	Sololá	2	El tablón	11	Noviembre	2023-10-11T00:00:00	2024-11-08T08:00:00	5	Humedad	42
1273	7	Sololá	701	Sololá	2	El tablón	11	Noviembre	2023-10-11T00:00:00	2024-11-08T08:00:00	6	Velocidad del viento	4.8
1274	7	Sololá	701	Sololá	2	El tablón	11	Noviembre	2023-10-11T00:00:00	2024-11-08T08:00:00	7	Dirección del viento	4.83
1275	7	Sololá	701	Sololá	2	El tablón	11	Noviembre	2023-10-11T00:00:00	2024-11-08T08:00:00	1	Precipitación	0
1276	7	Sololá	701	Sololá	2	El tablón	11	Noviembre	2023-10-11T00:00:00	2024-11-08T08:00:00	8	Radiación solar	251
1277	7	Sololá	701	Sololá	2	El tablón	11	Noviembre	2023-10-11T00:00:00	2024-11-08T09:00:00	2	Temperatura media	18.7
1278	7	Sololá	701	Sololá	2	El tablón	11	Noviembre	2023-10-11T00:00:00	2024-11-08T09:00:00	4	Temperatura máxima	18.7
1279	7	Sololá	701	Sololá	2	El tablón	11	Noviembre	2023-10-11T00:00:00	2024-11-08T09:00:00	3	Temperatura mínima	15.5
1280	7	Sololá	701	Sololá	2	El tablón	11	Noviembre	2023-10-11T00:00:00	2024-11-08T09:00:00	5	Humedad	35
1281	7	Sololá	701	Sololá	2	El tablón	11	Noviembre	2023-10-11T00:00:00	2024-11-08T09:00:00	6	Velocidad del viento	4.8
1282	7	Sololá	701	Sololá	2	El tablón	11	Noviembre	2023-10-11T00:00:00	2024-11-08T09:00:00	7	Dirección del viento	4.83
1283	7	Sololá	701	Sololá	2	El tablón	11	Noviembre	2023-10-11T00:00:00	2024-11-08T09:00:00	1	Precipitación	0
1284	7	Sololá	701	Sololá	2	El tablón	11	Noviembre	2023-10-11T00:00:00	2024-11-08T09:00:00	8	Radiación solar	473
1285	7	Sololá	701	Sololá	2	El tablón	11	Noviembre	2023-10-11T00:00:00	2024-11-08T10:00:00	2	Temperatura media	19.5
1286	7	Sololá	701	Sololá	2	El tablón	11	Noviembre	2023-10-11T00:00:00	2024-11-08T10:00:00	4	Temperatura máxima	19.5
1287	7	Sololá	701	Sololá	2	El tablón	11	Noviembre	2023-10-11T00:00:00	2024-11-08T10:00:00	3	Temperatura mínima	18.7
1288	7	Sololá	701	Sololá	2	El tablón	11	Noviembre	2023-10-11T00:00:00	2024-11-08T10:00:00	5	Humedad	47
1289	7	Sololá	701	Sololá	2	El tablón	11	Noviembre	2023-10-11T00:00:00	2024-11-08T10:00:00	6	Velocidad del viento	6.4
1290	7	Sololá	701	Sololá	2	El tablón	11	Noviembre	2023-10-11T00:00:00	2024-11-08T10:00:00	7	Dirección del viento	6.44
1291	7	Sololá	701	Sololá	2	El tablón	11	Noviembre	2023-10-11T00:00:00	2024-11-08T10:00:00	1	Precipitación	0
1292	7	Sololá	701	Sololá	2	El tablón	11	Noviembre	2023-10-11T00:00:00	2024-11-08T10:00:00	8	Radiación solar	650
1293	7	Sololá	701	Sololá	2	El tablón	11	Noviembre	2023-10-11T00:00:00	2024-11-08T11:00:00	2	Temperatura media	20.4
1294	7	Sololá	701	Sololá	2	El tablón	11	Noviembre	2023-10-11T00:00:00	2024-11-08T11:00:00	4	Temperatura máxima	20.4
1295	7	Sololá	701	Sololá	2	El tablón	11	Noviembre	2023-10-11T00:00:00	2024-11-08T11:00:00	3	Temperatura mínima	19.5
1296	7	Sololá	701	Sololá	2	El tablón	11	Noviembre	2023-10-11T00:00:00	2024-11-08T11:00:00	5	Humedad	54
1297	7	Sololá	701	Sololá	2	El tablón	11	Noviembre	2023-10-11T00:00:00	2024-11-08T11:00:00	6	Velocidad del viento	6.4
1298	7	Sololá	701	Sololá	2	El tablón	11	Noviembre	2023-10-11T00:00:00	2024-11-08T11:00:00	7	Dirección del viento	6.44
1299	7	Sololá	701	Sololá	2	El tablón	11	Noviembre	2023-10-11T00:00:00	2024-11-08T11:00:00	1	Precipitación	0
1300	7	Sololá	701	Sololá	2	El tablón	11	Noviembre	2023-10-11T00:00:00	2024-11-08T11:00:00	8	Radiación solar	768
1301	7	Sololá	701	Sololá	2	El tablón	11	Noviembre	2023-10-11T00:00:00	2024-11-08T12:00:00	2	Temperatura media	19.8
1302	7	Sololá	701	Sololá	2	El tablón	11	Noviembre	2023-10-11T00:00:00	2024-11-08T12:00:00	4	Temperatura máxima	20.4
1303	7	Sololá	701	Sololá	2	El tablón	11	Noviembre	2023-10-11T00:00:00	2024-11-08T12:00:00	3	Temperatura mínima	19.7
1304	7	Sololá	701	Sololá	2	El tablón	11	Noviembre	2023-10-11T00:00:00	2024-11-08T12:00:00	5	Humedad	50
1305	7	Sololá	701	Sololá	2	El tablón	11	Noviembre	2023-10-11T00:00:00	2024-11-08T12:00:00	6	Velocidad del viento	6.4
1306	7	Sololá	701	Sololá	2	El tablón	11	Noviembre	2023-10-11T00:00:00	2024-11-08T12:00:00	7	Dirección del viento	6.44
1307	7	Sololá	701	Sololá	2	El tablón	11	Noviembre	2023-10-11T00:00:00	2024-11-08T12:00:00	1	Precipitación	0
1308	7	Sololá	701	Sololá	2	El tablón	11	Noviembre	2023-10-11T00:00:00	2024-11-08T12:00:00	8	Radiación solar	734
1309	7	Sololá	701	Sololá	2	El tablón	11	Noviembre	2023-10-11T00:00:00	2024-11-08T13:00:00	2	Temperatura media	19.8
1310	7	Sololá	701	Sololá	2	El tablón	11	Noviembre	2023-10-11T00:00:00	2024-11-08T13:00:00	4	Temperatura máxima	20.2
1311	7	Sololá	701	Sololá	2	El tablón	11	Noviembre	2023-10-11T00:00:00	2024-11-08T13:00:00	3	Temperatura mínima	19.7
1312	7	Sololá	701	Sololá	2	El tablón	11	Noviembre	2023-10-11T00:00:00	2024-11-08T13:00:00	5	Humedad	62
1313	7	Sololá	701	Sololá	2	El tablón	11	Noviembre	2023-10-11T00:00:00	2024-11-08T13:00:00	6	Velocidad del viento	6.4
1314	7	Sololá	701	Sololá	2	El tablón	11	Noviembre	2023-10-11T00:00:00	2024-11-08T13:00:00	7	Dirección del viento	6.44
1315	7	Sololá	701	Sololá	2	El tablón	11	Noviembre	2023-10-11T00:00:00	2024-11-08T13:00:00	1	Precipitación	0
1316	7	Sololá	701	Sololá	2	El tablón	11	Noviembre	2023-10-11T00:00:00	2024-11-08T13:00:00	8	Radiación solar	817
1317	7	Sololá	701	Sololá	2	El tablón	11	Noviembre	2023-10-11T00:00:00	2024-11-08T14:00:00	2	Temperatura media	20.5
1318	7	Sololá	701	Sololá	2	El tablón	11	Noviembre	2023-10-11T00:00:00	2024-11-08T14:00:00	4	Temperatura máxima	20.6
1319	7	Sololá	701	Sololá	2	El tablón	11	Noviembre	2023-10-11T00:00:00	2024-11-08T14:00:00	3	Temperatura mínima	19.7
1320	7	Sololá	701	Sololá	2	El tablón	11	Noviembre	2023-10-11T00:00:00	2024-11-08T14:00:00	5	Humedad	63
1321	7	Sololá	701	Sololá	2	El tablón	11	Noviembre	2023-10-11T00:00:00	2024-11-08T14:00:00	6	Velocidad del viento	6.4
1322	7	Sololá	701	Sololá	2	El tablón	11	Noviembre	2023-10-11T00:00:00	2024-11-08T14:00:00	7	Dirección del viento	6.44
1323	7	Sololá	701	Sololá	2	El tablón	11	Noviembre	2023-10-11T00:00:00	2024-11-08T14:00:00	1	Precipitación	0
1324	7	Sololá	701	Sololá	2	El tablón	11	Noviembre	2023-10-11T00:00:00	2024-11-08T14:00:00	8	Radiación solar	741
1325	7	Sololá	701	Sololá	2	El tablón	11	Noviembre	2023-10-11T00:00:00	2024-11-08T15:00:00	2	Temperatura media	19.6
1326	7	Sololá	701	Sololá	2	El tablón	11	Noviembre	2023-10-11T00:00:00	2024-11-08T15:00:00	4	Temperatura máxima	20.7
1327	7	Sololá	701	Sololá	2	El tablón	11	Noviembre	2023-10-11T00:00:00	2024-11-08T15:00:00	3	Temperatura mínima	19.6
1328	7	Sololá	701	Sololá	2	El tablón	11	Noviembre	2023-10-11T00:00:00	2024-11-08T15:00:00	5	Humedad	75
1329	7	Sololá	701	Sololá	2	El tablón	11	Noviembre	2023-10-11T00:00:00	2024-11-08T15:00:00	6	Velocidad del viento	8
1330	7	Sololá	701	Sololá	2	El tablón	11	Noviembre	2023-10-11T00:00:00	2024-11-08T15:00:00	7	Dirección del viento	8.05
1331	7	Sololá	701	Sololá	2	El tablón	11	Noviembre	2023-10-11T00:00:00	2024-11-08T15:00:00	1	Precipitación	0
1332	7	Sololá	701	Sololá	2	El tablón	11	Noviembre	2023-10-11T00:00:00	2024-11-08T15:00:00	8	Radiación solar	634
1333	7	Sololá	701	Sololá	2	El tablón	11	Noviembre	2023-10-11T00:00:00	2024-11-08T16:00:00	2	Temperatura media	18.5
1334	7	Sololá	701	Sololá	2	El tablón	11	Noviembre	2023-10-11T00:00:00	2024-11-08T16:00:00	4	Temperatura máxima	19.6
1335	7	Sololá	701	Sololá	2	El tablón	11	Noviembre	2023-10-11T00:00:00	2024-11-08T16:00:00	3	Temperatura mínima	18.5
1336	7	Sololá	701	Sololá	2	El tablón	11	Noviembre	2023-10-11T00:00:00	2024-11-08T16:00:00	5	Humedad	83
1337	7	Sololá	701	Sololá	2	El tablón	11	Noviembre	2023-10-11T00:00:00	2024-11-08T16:00:00	6	Velocidad del viento	4.8
1338	7	Sololá	701	Sololá	2	El tablón	11	Noviembre	2023-10-11T00:00:00	2024-11-08T16:00:00	7	Dirección del viento	4.83
1339	7	Sololá	701	Sololá	2	El tablón	11	Noviembre	2023-10-11T00:00:00	2024-11-08T16:00:00	1	Precipitación	0
1340	7	Sololá	701	Sololá	2	El tablón	11	Noviembre	2023-10-11T00:00:00	2024-11-08T16:00:00	8	Radiación solar	229
1341	7	Sololá	701	Sololá	2	El tablón	11	Noviembre	2023-10-11T00:00:00	2024-11-08T17:00:00	2	Temperatura media	17.2
1342	7	Sololá	701	Sololá	2	El tablón	11	Noviembre	2023-10-11T00:00:00	2024-11-08T17:00:00	4	Temperatura máxima	18.6
1343	7	Sololá	701	Sololá	2	El tablón	11	Noviembre	2023-10-11T00:00:00	2024-11-08T17:00:00	3	Temperatura mínima	17.2
1344	7	Sololá	701	Sololá	2	El tablón	11	Noviembre	2023-10-11T00:00:00	2024-11-08T17:00:00	5	Humedad	81
1345	7	Sololá	701	Sololá	2	El tablón	11	Noviembre	2023-10-11T00:00:00	2024-11-08T17:00:00	6	Velocidad del viento	4.8
1346	7	Sololá	701	Sololá	2	El tablón	11	Noviembre	2023-10-11T00:00:00	2024-11-08T17:00:00	7	Dirección del viento	4.83
1347	7	Sololá	701	Sololá	2	El tablón	11	Noviembre	2023-10-11T00:00:00	2024-11-08T17:00:00	1	Precipitación	0
1348	7	Sololá	701	Sololá	2	El tablón	11	Noviembre	2023-10-11T00:00:00	2024-11-08T17:00:00	8	Radiación solar	103
1349	7	Sololá	701	Sololá	2	El tablón	11	Noviembre	2023-10-11T00:00:00	2024-11-08T18:00:00	2	Temperatura media	15.8
1350	7	Sololá	701	Sololá	2	El tablón	11	Noviembre	2023-10-11T00:00:00	2024-11-08T18:00:00	4	Temperatura máxima	17.2
1351	7	Sololá	701	Sololá	2	El tablón	11	Noviembre	2023-10-11T00:00:00	2024-11-08T18:00:00	3	Temperatura mínima	15.8
1352	7	Sololá	701	Sololá	2	El tablón	11	Noviembre	2023-10-11T00:00:00	2024-11-08T18:00:00	5	Humedad	81
1353	7	Sololá	701	Sololá	2	El tablón	11	Noviembre	2023-10-11T00:00:00	2024-11-08T18:00:00	6	Velocidad del viento	4.8
1354	7	Sololá	701	Sololá	2	El tablón	11	Noviembre	2023-10-11T00:00:00	2024-11-08T18:00:00	7	Dirección del viento	4.83
1355	7	Sololá	701	Sololá	2	El tablón	11	Noviembre	2023-10-11T00:00:00	2024-11-08T18:00:00	1	Precipitación	0
1356	7	Sololá	701	Sololá	2	El tablón	11	Noviembre	2023-10-11T00:00:00	2024-11-08T18:00:00	8	Radiación solar	12
1357	7	Sololá	701	Sololá	2	El tablón	11	Noviembre	2023-10-11T00:00:00	2024-11-08T19:00:00	2	Temperatura media	14.9
1358	7	Sololá	701	Sololá	2	El tablón	11	Noviembre	2023-10-11T00:00:00	2024-11-08T19:00:00	4	Temperatura máxima	15.8
1359	7	Sololá	701	Sololá	2	El tablón	11	Noviembre	2023-10-11T00:00:00	2024-11-08T19:00:00	3	Temperatura mínima	14.9
1360	7	Sololá	701	Sololá	2	El tablón	11	Noviembre	2023-10-11T00:00:00	2024-11-08T19:00:00	5	Humedad	85
1361	7	Sololá	701	Sololá	2	El tablón	11	Noviembre	2023-10-11T00:00:00	2024-11-08T19:00:00	6	Velocidad del viento	4.8
1362	7	Sololá	701	Sololá	2	El tablón	11	Noviembre	2023-10-11T00:00:00	2024-11-08T19:00:00	7	Dirección del viento	4.83
1363	7	Sololá	701	Sololá	2	El tablón	11	Noviembre	2023-10-11T00:00:00	2024-11-08T19:00:00	1	Precipitación	0
1364	7	Sololá	701	Sololá	2	El tablón	11	Noviembre	2023-10-11T00:00:00	2024-11-08T19:00:00	8	Radiación solar	0
1365	7	Sololá	701	Sololá	2	El tablón	11	Noviembre	2023-10-11T00:00:00	2024-11-08T20:00:00	2	Temperatura media	14.8
1366	7	Sololá	701	Sololá	2	El tablón	11	Noviembre	2023-10-11T00:00:00	2024-11-08T20:00:00	4	Temperatura máxima	14.9
1367	7	Sololá	701	Sololá	2	El tablón	11	Noviembre	2023-10-11T00:00:00	2024-11-08T20:00:00	3	Temperatura mínima	14.7
1368	7	Sololá	701	Sololá	2	El tablón	11	Noviembre	2023-10-11T00:00:00	2024-11-08T20:00:00	5	Humedad	86
1369	7	Sololá	701	Sololá	2	El tablón	11	Noviembre	2023-10-11T00:00:00	2024-11-08T20:00:00	6	Velocidad del viento	11.3
1370	7	Sololá	701	Sololá	2	El tablón	11	Noviembre	2023-10-11T00:00:00	2024-11-08T20:00:00	7	Dirección del viento	11.27
1371	7	Sololá	701	Sololá	2	El tablón	11	Noviembre	2023-10-11T00:00:00	2024-11-08T20:00:00	1	Precipitación	0
1372	7	Sololá	701	Sololá	2	El tablón	11	Noviembre	2023-10-11T00:00:00	2024-11-08T20:00:00	8	Radiación solar	0
1373	7	Sololá	701	Sololá	2	El tablón	11	Noviembre	2023-10-11T00:00:00	2024-11-08T21:00:00	2	Temperatura media	14.4
1374	7	Sololá	701	Sololá	2	El tablón	11	Noviembre	2023-10-11T00:00:00	2024-11-08T21:00:00	4	Temperatura máxima	15.3
1375	7	Sololá	701	Sololá	2	El tablón	11	Noviembre	2023-10-11T00:00:00	2024-11-08T21:00:00	3	Temperatura mínima	14.4
1376	7	Sololá	701	Sololá	2	El tablón	11	Noviembre	2023-10-11T00:00:00	2024-11-08T21:00:00	5	Humedad	88
1377	7	Sololá	701	Sololá	2	El tablón	11	Noviembre	2023-10-11T00:00:00	2024-11-08T21:00:00	6	Velocidad del viento	12.9
1378	7	Sololá	701	Sololá	2	El tablón	11	Noviembre	2023-10-11T00:00:00	2024-11-08T21:00:00	7	Dirección del viento	12.87
1379	7	Sololá	701	Sololá	2	El tablón	11	Noviembre	2023-10-11T00:00:00	2024-11-08T21:00:00	1	Precipitación	0
1380	7	Sololá	701	Sololá	2	El tablón	11	Noviembre	2023-10-11T00:00:00	2024-11-08T21:00:00	8	Radiación solar	0
1381	7	Sololá	701	Sololá	2	El tablón	11	Noviembre	2023-10-11T00:00:00	2024-11-08T22:00:00	2	Temperatura media	14.6
1382	7	Sololá	701	Sololá	2	El tablón	11	Noviembre	2023-10-11T00:00:00	2024-11-08T22:00:00	4	Temperatura máxima	14.8
1383	7	Sololá	701	Sololá	2	El tablón	11	Noviembre	2023-10-11T00:00:00	2024-11-08T22:00:00	3	Temperatura mínima	14.4
1384	7	Sololá	701	Sololá	2	El tablón	11	Noviembre	2023-10-11T00:00:00	2024-11-08T22:00:00	5	Humedad	87
1385	7	Sololá	701	Sololá	2	El tablón	11	Noviembre	2023-10-11T00:00:00	2024-11-08T22:00:00	6	Velocidad del viento	16.1
1386	7	Sololá	701	Sololá	2	El tablón	11	Noviembre	2023-10-11T00:00:00	2024-11-08T22:00:00	7	Dirección del viento	16.09
1387	7	Sololá	701	Sololá	2	El tablón	11	Noviembre	2023-10-11T00:00:00	2024-11-08T22:00:00	1	Precipitación	0
1388	7	Sololá	701	Sololá	2	El tablón	11	Noviembre	2023-10-11T00:00:00	2024-11-08T22:00:00	8	Radiación solar	0
1389	7	Sololá	701	Sololá	2	El tablón	11	Noviembre	2023-10-11T00:00:00	2024-11-08T23:00:00	2	Temperatura media	14.7
1390	7	Sololá	701	Sololá	2	El tablón	11	Noviembre	2023-10-11T00:00:00	2024-11-08T23:00:00	4	Temperatura máxima	14.7
1391	7	Sololá	701	Sololá	2	El tablón	11	Noviembre	2023-10-11T00:00:00	2024-11-08T23:00:00	3	Temperatura mínima	14.6
1392	7	Sololá	701	Sololá	2	El tablón	11	Noviembre	2023-10-11T00:00:00	2024-11-08T23:00:00	5	Humedad	87
1393	7	Sololá	701	Sololá	2	El tablón	11	Noviembre	2023-10-11T00:00:00	2024-11-08T23:00:00	6	Velocidad del viento	14.5
1394	7	Sololá	701	Sololá	2	El tablón	11	Noviembre	2023-10-11T00:00:00	2024-11-08T23:00:00	7	Dirección del viento	14.48
1395	7	Sololá	701	Sololá	2	El tablón	11	Noviembre	2023-10-11T00:00:00	2024-11-08T23:00:00	1	Precipitación	0
1396	7	Sololá	701	Sololá	2	El tablón	11	Noviembre	2023-10-11T00:00:00	2024-11-08T23:00:00	8	Radiación solar	0
1397	7	Sololá	701	Sololá	2	El tablón	11	Noviembre	2023-11-11T00:00:00	2024-11-08T00:00:00	2	Temperatura media	14.4
1398	7	Sololá	701	Sololá	2	El tablón	11	Noviembre	2023-11-11T00:00:00	2024-11-08T00:00:00	4	Temperatura máxima	14.7
1399	7	Sololá	701	Sololá	2	El tablón	11	Noviembre	2023-11-11T00:00:00	2024-11-08T00:00:00	3	Temperatura mínima	14.4
1400	7	Sololá	701	Sololá	2	El tablón	11	Noviembre	2023-11-11T00:00:00	2024-11-08T00:00:00	5	Humedad	88
1401	7	Sololá	701	Sololá	2	El tablón	11	Noviembre	2023-11-11T00:00:00	2024-11-08T00:00:00	6	Velocidad del viento	12.9
1402	7	Sololá	701	Sololá	2	El tablón	11	Noviembre	2023-11-11T00:00:00	2024-11-08T00:00:00	7	Dirección del viento	12.87
1403	7	Sololá	701	Sololá	2	El tablón	11	Noviembre	2023-11-11T00:00:00	2024-11-08T00:00:00	1	Precipitación	0
1404	7	Sololá	701	Sololá	2	El tablón	11	Noviembre	2023-11-11T00:00:00	2024-11-08T00:00:00	8	Radiación solar	0
1405	7	Sololá	701	Sololá	2	El tablón	11	Noviembre	2023-11-11T00:00:00	2024-11-08T01:00:00	2	Temperatura media	14.4
1406	7	Sololá	701	Sololá	2	El tablón	11	Noviembre	2023-11-11T00:00:00	2024-11-08T01:00:00	4	Temperatura máxima	14.6
1407	7	Sololá	701	Sololá	2	El tablón	11	Noviembre	2023-11-11T00:00:00	2024-11-08T01:00:00	3	Temperatura mínima	14.4
1408	7	Sololá	701	Sololá	2	El tablón	11	Noviembre	2023-11-11T00:00:00	2024-11-08T01:00:00	5	Humedad	88
1409	7	Sololá	701	Sololá	2	El tablón	11	Noviembre	2023-11-11T00:00:00	2024-11-08T01:00:00	6	Velocidad del viento	11.3
1410	7	Sololá	701	Sololá	2	El tablón	11	Noviembre	2023-11-11T00:00:00	2024-11-08T01:00:00	7	Dirección del viento	11.27
1411	7	Sololá	701	Sololá	2	El tablón	11	Noviembre	2023-11-11T00:00:00	2024-11-08T01:00:00	1	Precipitación	0
1412	7	Sololá	701	Sololá	2	El tablón	11	Noviembre	2023-11-11T00:00:00	2024-11-08T01:00:00	8	Radiación solar	0
1413	7	Sololá	701	Sololá	2	El tablón	11	Noviembre	2023-11-11T00:00:00	2024-11-08T02:00:00	2	Temperatura media	14.3
1414	7	Sololá	701	Sololá	2	El tablón	11	Noviembre	2023-11-11T00:00:00	2024-11-08T02:00:00	4	Temperatura máxima	14.4
1415	7	Sololá	701	Sololá	2	El tablón	11	Noviembre	2023-11-11T00:00:00	2024-11-08T02:00:00	3	Temperatura mínima	14.2
1416	7	Sololá	701	Sololá	2	El tablón	11	Noviembre	2023-11-11T00:00:00	2024-11-08T02:00:00	5	Humedad	87
1417	7	Sololá	701	Sololá	2	El tablón	11	Noviembre	2023-11-11T00:00:00	2024-11-08T02:00:00	6	Velocidad del viento	11.3
1418	7	Sololá	701	Sololá	2	El tablón	11	Noviembre	2023-11-11T00:00:00	2024-11-08T02:00:00	7	Dirección del viento	11.27
1419	7	Sololá	701	Sololá	2	El tablón	11	Noviembre	2023-11-11T00:00:00	2024-11-08T02:00:00	1	Precipitación	0
1420	7	Sololá	701	Sololá	2	El tablón	11	Noviembre	2023-11-11T00:00:00	2024-11-08T02:00:00	8	Radiación solar	0
1421	7	Sololá	701	Sololá	2	El tablón	11	Noviembre	2023-11-11T00:00:00	2024-11-08T03:00:00	2	Temperatura media	14.4
1422	7	Sololá	701	Sololá	2	El tablón	11	Noviembre	2023-11-11T00:00:00	2024-11-08T03:00:00	4	Temperatura máxima	14.6
1423	7	Sololá	701	Sololá	2	El tablón	11	Noviembre	2023-11-11T00:00:00	2024-11-08T03:00:00	3	Temperatura mínima	14.2
1424	7	Sololá	701	Sololá	2	El tablón	11	Noviembre	2023-11-11T00:00:00	2024-11-08T03:00:00	5	Humedad	86
1425	7	Sololá	701	Sololá	2	El tablón	11	Noviembre	2023-11-11T00:00:00	2024-11-08T03:00:00	6	Velocidad del viento	6.4
1426	7	Sololá	701	Sololá	2	El tablón	11	Noviembre	2023-11-11T00:00:00	2024-11-08T03:00:00	7	Dirección del viento	6.44
1427	7	Sololá	701	Sololá	2	El tablón	11	Noviembre	2023-11-11T00:00:00	2024-11-08T03:00:00	1	Precipitación	0
1428	7	Sololá	701	Sololá	2	El tablón	11	Noviembre	2023-11-11T00:00:00	2024-11-08T03:00:00	8	Radiación solar	0
1429	7	Sololá	701	Sololá	2	El tablón	11	Noviembre	2023-11-11T00:00:00	2024-11-08T04:00:00	2	Temperatura media	14
1430	7	Sololá	701	Sololá	2	El tablón	11	Noviembre	2023-11-11T00:00:00	2024-11-08T04:00:00	4	Temperatura máxima	14.4
1431	7	Sololá	701	Sololá	2	El tablón	11	Noviembre	2023-11-11T00:00:00	2024-11-08T04:00:00	3	Temperatura mínima	13.9
1432	7	Sololá	701	Sololá	2	El tablón	11	Noviembre	2023-11-11T00:00:00	2024-11-08T04:00:00	5	Humedad	87
1433	7	Sololá	701	Sololá	2	El tablón	11	Noviembre	2023-11-11T00:00:00	2024-11-08T04:00:00	6	Velocidad del viento	4.8
1434	7	Sololá	701	Sololá	2	El tablón	11	Noviembre	2023-11-11T00:00:00	2024-11-08T04:00:00	7	Dirección del viento	4.83
1435	7	Sololá	701	Sololá	2	El tablón	11	Noviembre	2023-11-11T00:00:00	2024-11-08T04:00:00	1	Precipitación	0
1436	7	Sololá	701	Sololá	2	El tablón	11	Noviembre	2023-11-11T00:00:00	2024-11-08T04:00:00	8	Radiación solar	0
1437	7	Sololá	701	Sololá	2	El tablón	11	Noviembre	2023-11-11T00:00:00	2024-11-08T05:00:00	2	Temperatura media	14.3
1438	7	Sololá	701	Sololá	2	El tablón	11	Noviembre	2023-11-11T00:00:00	2024-11-08T05:00:00	4	Temperatura máxima	14.3
1439	7	Sololá	701	Sololá	2	El tablón	11	Noviembre	2023-11-11T00:00:00	2024-11-08T05:00:00	3	Temperatura mínima	13.8
1440	7	Sololá	701	Sololá	2	El tablón	11	Noviembre	2023-11-11T00:00:00	2024-11-08T05:00:00	5	Humedad	87
1441	7	Sololá	701	Sololá	2	El tablón	11	Noviembre	2023-11-11T00:00:00	2024-11-08T05:00:00	6	Velocidad del viento	11.3
1442	7	Sololá	701	Sololá	2	El tablón	11	Noviembre	2023-11-11T00:00:00	2024-11-08T05:00:00	7	Dirección del viento	11.27
1443	7	Sololá	701	Sololá	2	El tablón	11	Noviembre	2023-11-11T00:00:00	2024-11-08T05:00:00	1	Precipitación	0
1444	7	Sololá	701	Sololá	2	El tablón	11	Noviembre	2023-11-11T00:00:00	2024-11-08T05:00:00	8	Radiación solar	0
1445	7	Sololá	701	Sololá	2	El tablón	11	Noviembre	2023-11-11T00:00:00	2024-11-08T06:00:00	2	Temperatura media	13.8
1446	7	Sololá	701	Sololá	2	El tablón	11	Noviembre	2023-11-11T00:00:00	2024-11-08T06:00:00	4	Temperatura máxima	14.3
1447	7	Sololá	701	Sololá	2	El tablón	11	Noviembre	2023-11-11T00:00:00	2024-11-08T06:00:00	3	Temperatura mínima	13.7
1448	7	Sololá	701	Sololá	2	El tablón	11	Noviembre	2023-11-11T00:00:00	2024-11-08T06:00:00	5	Humedad	88
1449	7	Sololá	701	Sololá	2	El tablón	11	Noviembre	2023-11-11T00:00:00	2024-11-08T06:00:00	6	Velocidad del viento	11.3
1450	7	Sololá	701	Sololá	2	El tablón	11	Noviembre	2023-11-11T00:00:00	2024-11-08T06:00:00	7	Dirección del viento	11.27
1451	7	Sololá	701	Sololá	2	El tablón	11	Noviembre	2023-11-11T00:00:00	2024-11-08T06:00:00	1	Precipitación	0
1452	7	Sololá	701	Sololá	2	El tablón	11	Noviembre	2023-11-11T00:00:00	2024-11-08T06:00:00	8	Radiación solar	0
1453	7	Sololá	701	Sololá	2	El tablón	11	Noviembre	2023-11-11T00:00:00	2024-11-08T07:00:00	2	Temperatura media	14.3
1454	7	Sololá	701	Sololá	2	El tablón	11	Noviembre	2023-11-11T00:00:00	2024-11-08T07:00:00	4	Temperatura máxima	14.3
1455	7	Sololá	701	Sololá	2	El tablón	11	Noviembre	2023-11-11T00:00:00	2024-11-08T07:00:00	3	Temperatura mínima	13.7
1456	7	Sololá	701	Sololá	2	El tablón	11	Noviembre	2023-11-11T00:00:00	2024-11-08T07:00:00	5	Humedad	88
1457	7	Sololá	701	Sololá	2	El tablón	11	Noviembre	2023-11-11T00:00:00	2024-11-08T07:00:00	6	Velocidad del viento	12.9
1458	7	Sololá	701	Sololá	2	El tablón	11	Noviembre	2023-11-11T00:00:00	2024-11-08T07:00:00	7	Dirección del viento	12.87
1459	7	Sololá	701	Sololá	2	El tablón	11	Noviembre	2023-11-11T00:00:00	2024-11-08T07:00:00	1	Precipitación	0
1460	7	Sololá	701	Sololá	2	El tablón	11	Noviembre	2023-11-11T00:00:00	2024-11-08T07:00:00	8	Radiación solar	30
1461	7	Sololá	701	Sololá	2	El tablón	11	Noviembre	2023-11-11T00:00:00	2024-11-08T08:00:00	2	Temperatura media	16.3
1462	7	Sololá	701	Sololá	2	El tablón	11	Noviembre	2023-11-11T00:00:00	2024-11-08T08:00:00	4	Temperatura máxima	16.3
1463	7	Sololá	701	Sololá	2	El tablón	11	Noviembre	2023-11-11T00:00:00	2024-11-08T08:00:00	3	Temperatura mínima	14.3
1464	7	Sololá	701	Sololá	2	El tablón	11	Noviembre	2023-11-11T00:00:00	2024-11-08T08:00:00	5	Humedad	79
1465	7	Sololá	701	Sololá	2	El tablón	11	Noviembre	2023-11-11T00:00:00	2024-11-08T08:00:00	6	Velocidad del viento	12.9
1466	7	Sololá	701	Sololá	2	El tablón	11	Noviembre	2023-11-11T00:00:00	2024-11-08T08:00:00	7	Dirección del viento	12.87
1467	7	Sololá	701	Sololá	2	El tablón	11	Noviembre	2023-11-11T00:00:00	2024-11-08T08:00:00	1	Precipitación	0
1468	7	Sololá	701	Sololá	2	El tablón	11	Noviembre	2023-11-11T00:00:00	2024-11-08T08:00:00	8	Radiación solar	243
1469	7	Sololá	701	Sololá	2	El tablón	11	Noviembre	2023-11-11T00:00:00	2024-11-08T09:00:00	2	Temperatura media	16.4
1470	7	Sololá	701	Sololá	2	El tablón	11	Noviembre	2023-11-11T00:00:00	2024-11-08T09:00:00	4	Temperatura máxima	16.5
1471	7	Sololá	701	Sololá	2	El tablón	11	Noviembre	2023-11-11T00:00:00	2024-11-08T09:00:00	3	Temperatura mínima	16
1472	7	Sololá	701	Sololá	2	El tablón	11	Noviembre	2023-11-11T00:00:00	2024-11-08T09:00:00	5	Humedad	81
1473	7	Sololá	701	Sololá	2	El tablón	11	Noviembre	2023-11-11T00:00:00	2024-11-08T09:00:00	6	Velocidad del viento	14.5
1474	7	Sololá	701	Sololá	2	El tablón	11	Noviembre	2023-11-11T00:00:00	2024-11-08T09:00:00	7	Dirección del viento	14.48
1475	7	Sololá	701	Sololá	2	El tablón	11	Noviembre	2023-11-11T00:00:00	2024-11-08T09:00:00	1	Precipitación	0
1476	7	Sololá	701	Sololá	2	El tablón	11	Noviembre	2023-11-11T00:00:00	2024-11-08T09:00:00	8	Radiación solar	396
1477	7	Sololá	701	Sololá	2	El tablón	11	Noviembre	2023-11-11T00:00:00	2024-11-08T10:00:00	2	Temperatura media	17.8
1478	7	Sololá	701	Sololá	2	El tablón	11	Noviembre	2023-11-11T00:00:00	2024-11-08T10:00:00	4	Temperatura máxima	17.8
1479	7	Sololá	701	Sololá	2	El tablón	11	Noviembre	2023-11-11T00:00:00	2024-11-08T10:00:00	3	Temperatura mínima	16.4
1480	7	Sololá	701	Sololá	2	El tablón	11	Noviembre	2023-11-11T00:00:00	2024-11-08T10:00:00	5	Humedad	77
1481	7	Sololá	701	Sololá	2	El tablón	11	Noviembre	2023-11-11T00:00:00	2024-11-08T10:00:00	6	Velocidad del viento	12.9
1482	7	Sololá	701	Sololá	2	El tablón	11	Noviembre	2023-11-11T00:00:00	2024-11-08T10:00:00	7	Dirección del viento	12.87
1483	7	Sololá	701	Sololá	2	El tablón	11	Noviembre	2023-11-11T00:00:00	2024-11-08T10:00:00	1	Precipitación	0
1484	7	Sololá	701	Sololá	2	El tablón	11	Noviembre	2023-11-11T00:00:00	2024-11-08T10:00:00	8	Radiación solar	574
1485	7	Sololá	701	Sololá	2	El tablón	11	Noviembre	2023-11-11T00:00:00	2024-11-08T11:00:00	2	Temperatura media	17.4
1486	7	Sololá	701	Sololá	2	El tablón	11	Noviembre	2023-11-11T00:00:00	2024-11-08T11:00:00	4	Temperatura máxima	18.2
1487	7	Sololá	701	Sololá	2	El tablón	11	Noviembre	2023-11-11T00:00:00	2024-11-08T11:00:00	3	Temperatura mínima	17.3
1488	7	Sololá	701	Sololá	2	El tablón	11	Noviembre	2023-11-11T00:00:00	2024-11-08T11:00:00	5	Humedad	79
1489	7	Sololá	701	Sololá	2	El tablón	11	Noviembre	2023-11-11T00:00:00	2024-11-08T11:00:00	6	Velocidad del viento	11.3
1490	7	Sololá	701	Sololá	2	El tablón	11	Noviembre	2023-11-11T00:00:00	2024-11-08T11:00:00	7	Dirección del viento	11.27
1491	7	Sololá	701	Sololá	2	El tablón	11	Noviembre	2023-11-11T00:00:00	2024-11-08T11:00:00	1	Precipitación	0
1492	7	Sololá	701	Sololá	2	El tablón	11	Noviembre	2023-11-11T00:00:00	2024-11-08T11:00:00	8	Radiación solar	325
1493	7	Sololá	701	Sololá	2	El tablón	11	Noviembre	2023-11-11T00:00:00	2024-11-08T12:00:00	2	Temperatura media	19
1494	7	Sololá	701	Sololá	2	El tablón	11	Noviembre	2023-11-11T00:00:00	2024-11-08T12:00:00	4	Temperatura máxima	19
1495	7	Sololá	701	Sololá	2	El tablón	11	Noviembre	2023-11-11T00:00:00	2024-11-08T12:00:00	3	Temperatura mínima	17.4
1496	7	Sololá	701	Sololá	2	El tablón	11	Noviembre	2023-11-11T00:00:00	2024-11-08T12:00:00	5	Humedad	76
1497	7	Sololá	701	Sololá	2	El tablón	11	Noviembre	2023-11-11T00:00:00	2024-11-08T12:00:00	6	Velocidad del viento	11.3
1498	7	Sololá	701	Sololá	2	El tablón	11	Noviembre	2023-11-11T00:00:00	2024-11-08T12:00:00	7	Dirección del viento	11.27
1499	7	Sololá	701	Sololá	2	El tablón	11	Noviembre	2023-11-11T00:00:00	2024-11-08T12:00:00	1	Precipitación	0
1500	7	Sololá	701	Sololá	2	El tablón	11	Noviembre	2023-11-11T00:00:00	2024-11-08T12:00:00	8	Radiación solar	632
1501	7	Sololá	701	Sololá	2	El tablón	11	Noviembre	2023-11-11T00:00:00	2024-11-08T13:00:00	2	Temperatura media	19.1
1502	7	Sololá	701	Sololá	2	El tablón	11	Noviembre	2023-11-11T00:00:00	2024-11-08T13:00:00	4	Temperatura máxima	19.1
1503	7	Sololá	701	Sololá	2	El tablón	11	Noviembre	2023-11-11T00:00:00	2024-11-08T13:00:00	3	Temperatura mínima	17.6
1504	7	Sololá	701	Sololá	2	El tablón	11	Noviembre	2023-11-11T00:00:00	2024-11-08T13:00:00	5	Humedad	72
1505	7	Sololá	701	Sololá	2	El tablón	11	Noviembre	2023-11-11T00:00:00	2024-11-08T13:00:00	6	Velocidad del viento	11.3
1506	7	Sololá	701	Sololá	2	El tablón	11	Noviembre	2023-11-11T00:00:00	2024-11-08T13:00:00	7	Dirección del viento	11.27
1507	7	Sololá	701	Sololá	2	El tablón	11	Noviembre	2023-11-11T00:00:00	2024-11-08T13:00:00	1	Precipitación	0
1508	7	Sololá	701	Sololá	2	El tablón	11	Noviembre	2023-11-11T00:00:00	2024-11-08T13:00:00	8	Radiación solar	681
1509	7	Sololá	701	Sololá	2	El tablón	11	Noviembre	2023-11-11T00:00:00	2024-11-08T14:00:00	2	Temperatura media	19.1
1510	7	Sololá	701	Sololá	2	El tablón	11	Noviembre	2023-11-11T00:00:00	2024-11-08T14:00:00	4	Temperatura máxima	19.5
1511	7	Sololá	701	Sololá	2	El tablón	11	Noviembre	2023-11-11T00:00:00	2024-11-08T14:00:00	3	Temperatura mínima	18.9
1512	7	Sololá	701	Sololá	2	El tablón	11	Noviembre	2023-11-11T00:00:00	2024-11-08T14:00:00	5	Humedad	73
1513	7	Sololá	701	Sololá	2	El tablón	11	Noviembre	2023-11-11T00:00:00	2024-11-08T14:00:00	6	Velocidad del viento	11.3
1514	7	Sololá	701	Sololá	2	El tablón	11	Noviembre	2023-11-11T00:00:00	2024-11-08T14:00:00	7	Dirección del viento	11.27
1515	7	Sololá	701	Sololá	2	El tablón	11	Noviembre	2023-11-11T00:00:00	2024-11-08T14:00:00	1	Precipitación	0
1516	7	Sololá	701	Sololá	2	El tablón	11	Noviembre	2023-11-11T00:00:00	2024-11-08T14:00:00	8	Radiación solar	708
1517	7	Sololá	701	Sololá	2	El tablón	11	Noviembre	2023-11-11T00:00:00	2024-11-08T15:00:00	2	Temperatura media	18.5
1518	7	Sololá	701	Sololá	2	El tablón	11	Noviembre	2023-11-11T00:00:00	2024-11-08T15:00:00	4	Temperatura máxima	19.9
1519	7	Sololá	701	Sololá	2	El tablón	11	Noviembre	2023-11-11T00:00:00	2024-11-08T15:00:00	3	Temperatura mínima	18.3
1520	7	Sololá	701	Sololá	2	El tablón	11	Noviembre	2023-11-11T00:00:00	2024-11-08T15:00:00	5	Humedad	76
1521	7	Sololá	701	Sololá	2	El tablón	11	Noviembre	2023-11-11T00:00:00	2024-11-08T15:00:00	6	Velocidad del viento	11.3
1522	7	Sololá	701	Sololá	2	El tablón	11	Noviembre	2023-11-11T00:00:00	2024-11-08T15:00:00	7	Dirección del viento	11.27
1523	7	Sololá	701	Sololá	2	El tablón	11	Noviembre	2023-11-11T00:00:00	2024-11-08T15:00:00	1	Precipitación	0
1524	7	Sololá	701	Sololá	2	El tablón	11	Noviembre	2023-11-11T00:00:00	2024-11-08T15:00:00	8	Radiación solar	457
1525	7	Sololá	701	Sololá	2	El tablón	11	Noviembre	2023-11-11T00:00:00	2024-11-08T16:00:00	2	Temperatura media	18.2
1526	7	Sololá	701	Sololá	2	El tablón	11	Noviembre	2023-11-11T00:00:00	2024-11-08T16:00:00	4	Temperatura máxima	18.6
1527	7	Sololá	701	Sololá	2	El tablón	11	Noviembre	2023-11-11T00:00:00	2024-11-08T16:00:00	3	Temperatura mínima	17.9
1528	7	Sololá	701	Sololá	2	El tablón	11	Noviembre	2023-11-11T00:00:00	2024-11-08T16:00:00	5	Humedad	79
1529	7	Sololá	701	Sololá	2	El tablón	11	Noviembre	2023-11-11T00:00:00	2024-11-08T16:00:00	6	Velocidad del viento	11.3
1530	7	Sololá	701	Sololá	2	El tablón	11	Noviembre	2023-11-11T00:00:00	2024-11-08T16:00:00	7	Dirección del viento	11.27
1531	7	Sololá	701	Sololá	2	El tablón	11	Noviembre	2023-11-11T00:00:00	2024-11-08T16:00:00	1	Precipitación	0
1532	7	Sololá	701	Sololá	2	El tablón	11	Noviembre	2023-11-11T00:00:00	2024-11-08T16:00:00	8	Radiación solar	324
1533	7	Sololá	701	Sololá	2	El tablón	11	Noviembre	2023-11-11T00:00:00	2024-11-08T17:00:00	2	Temperatura media	16.5
1534	7	Sololá	701	Sololá	2	El tablón	11	Noviembre	2023-11-11T00:00:00	2024-11-08T17:00:00	4	Temperatura máxima	18.2
1535	7	Sololá	701	Sololá	2	El tablón	11	Noviembre	2023-11-11T00:00:00	2024-11-08T17:00:00	3	Temperatura mínima	16.5
1536	7	Sololá	701	Sololá	2	El tablón	11	Noviembre	2023-11-11T00:00:00	2024-11-08T17:00:00	5	Humedad	82
1537	7	Sololá	701	Sololá	2	El tablón	11	Noviembre	2023-11-11T00:00:00	2024-11-08T17:00:00	6	Velocidad del viento	11.3
1538	7	Sololá	701	Sololá	2	El tablón	11	Noviembre	2023-11-11T00:00:00	2024-11-08T17:00:00	7	Dirección del viento	11.27
1539	7	Sololá	701	Sololá	2	El tablón	11	Noviembre	2023-11-11T00:00:00	2024-11-08T17:00:00	1	Precipitación	0
1540	7	Sololá	701	Sololá	2	El tablón	11	Noviembre	2023-11-11T00:00:00	2024-11-08T17:00:00	8	Radiación solar	174
1541	7	Sololá	701	Sololá	2	El tablón	11	Noviembre	2023-11-11T00:00:00	2024-11-08T18:00:00	2	Temperatura media	15.6
1542	7	Sololá	701	Sololá	2	El tablón	11	Noviembre	2023-11-11T00:00:00	2024-11-08T18:00:00	4	Temperatura máxima	16.5
1543	7	Sololá	701	Sololá	2	El tablón	11	Noviembre	2023-11-11T00:00:00	2024-11-08T18:00:00	3	Temperatura mínima	15.5
1544	7	Sololá	701	Sololá	2	El tablón	11	Noviembre	2023-11-11T00:00:00	2024-11-08T18:00:00	5	Humedad	86
1545	7	Sololá	701	Sololá	2	El tablón	11	Noviembre	2023-11-11T00:00:00	2024-11-08T18:00:00	6	Velocidad del viento	8
1546	7	Sololá	701	Sololá	2	El tablón	11	Noviembre	2023-11-11T00:00:00	2024-11-08T18:00:00	7	Dirección del viento	8.05
1547	7	Sololá	701	Sololá	2	El tablón	11	Noviembre	2023-11-11T00:00:00	2024-11-08T18:00:00	1	Precipitación	0
1548	7	Sololá	701	Sololá	2	El tablón	11	Noviembre	2023-11-11T00:00:00	2024-11-08T18:00:00	8	Radiación solar	5
1549	7	Sololá	701	Sololá	2	El tablón	11	Noviembre	2023-11-11T00:00:00	2024-11-08T19:00:00	2	Temperatura media	14.5
1550	7	Sololá	701	Sololá	2	El tablón	11	Noviembre	2023-11-11T00:00:00	2024-11-08T19:00:00	4	Temperatura máxima	15.6
1551	7	Sololá	701	Sololá	2	El tablón	11	Noviembre	2023-11-11T00:00:00	2024-11-08T19:00:00	3	Temperatura mínima	14.5
1552	7	Sololá	701	Sololá	2	El tablón	11	Noviembre	2023-11-11T00:00:00	2024-11-08T19:00:00	5	Humedad	87
1553	7	Sololá	701	Sololá	2	El tablón	11	Noviembre	2023-11-11T00:00:00	2024-11-08T19:00:00	6	Velocidad del viento	9.7
1554	7	Sololá	701	Sololá	2	El tablón	11	Noviembre	2023-11-11T00:00:00	2024-11-08T19:00:00	7	Dirección del viento	9.66
1555	7	Sololá	701	Sololá	2	El tablón	11	Noviembre	2023-11-11T00:00:00	2024-11-08T19:00:00	1	Precipitación	0
1556	7	Sololá	701	Sololá	2	El tablón	11	Noviembre	2023-11-11T00:00:00	2024-11-08T19:00:00	8	Radiación solar	0
1557	7	Sololá	701	Sololá	2	El tablón	11	Noviembre	2023-11-11T00:00:00	2024-11-08T20:00:00	2	Temperatura media	14.3
1558	7	Sololá	701	Sololá	2	El tablón	11	Noviembre	2023-11-11T00:00:00	2024-11-08T20:00:00	4	Temperatura máxima	14.6
1559	7	Sololá	701	Sololá	2	El tablón	11	Noviembre	2023-11-11T00:00:00	2024-11-08T20:00:00	3	Temperatura mínima	14.3
1560	7	Sololá	701	Sololá	2	El tablón	11	Noviembre	2023-11-11T00:00:00	2024-11-08T20:00:00	5	Humedad	86
1561	7	Sololá	701	Sololá	2	El tablón	11	Noviembre	2023-11-11T00:00:00	2024-11-08T20:00:00	6	Velocidad del viento	9.7
1562	7	Sololá	701	Sololá	2	El tablón	11	Noviembre	2023-11-11T00:00:00	2024-11-08T20:00:00	7	Dirección del viento	9.66
1563	7	Sololá	701	Sololá	2	El tablón	11	Noviembre	2023-11-11T00:00:00	2024-11-08T20:00:00	1	Precipitación	0
1564	7	Sololá	701	Sololá	2	El tablón	11	Noviembre	2023-11-11T00:00:00	2024-11-08T20:00:00	8	Radiación solar	0
1565	7	Sololá	701	Sololá	2	El tablón	11	Noviembre	2023-11-11T00:00:00	2024-11-08T21:00:00	2	Temperatura media	14.4
1566	7	Sololá	701	Sololá	2	El tablón	11	Noviembre	2023-11-11T00:00:00	2024-11-08T21:00:00	4	Temperatura máxima	14.6
1567	7	Sololá	701	Sololá	2	El tablón	11	Noviembre	2023-11-11T00:00:00	2024-11-08T21:00:00	3	Temperatura mínima	14.3
1568	7	Sololá	701	Sololá	2	El tablón	11	Noviembre	2023-11-11T00:00:00	2024-11-08T21:00:00	5	Humedad	87
1569	7	Sololá	701	Sololá	2	El tablón	11	Noviembre	2023-11-11T00:00:00	2024-11-08T21:00:00	6	Velocidad del viento	14.5
1570	7	Sololá	701	Sololá	2	El tablón	11	Noviembre	2023-11-11T00:00:00	2024-11-08T21:00:00	7	Dirección del viento	14.48
1571	7	Sololá	701	Sololá	2	El tablón	11	Noviembre	2023-11-11T00:00:00	2024-11-08T21:00:00	1	Precipitación	0
1572	7	Sololá	701	Sololá	2	El tablón	11	Noviembre	2023-11-11T00:00:00	2024-11-08T21:00:00	8	Radiación solar	0
1573	7	Sololá	701	Sololá	2	El tablón	11	Noviembre	2023-11-11T00:00:00	2024-11-08T22:00:00	2	Temperatura media	14.3
1574	7	Sololá	701	Sololá	2	El tablón	11	Noviembre	2023-11-11T00:00:00	2024-11-08T22:00:00	4	Temperatura máxima	14.4
1575	7	Sololá	701	Sololá	2	El tablón	11	Noviembre	2023-11-11T00:00:00	2024-11-08T22:00:00	3	Temperatura mínima	14.2
1576	7	Sololá	701	Sololá	2	El tablón	11	Noviembre	2023-11-11T00:00:00	2024-11-08T22:00:00	5	Humedad	88
1577	7	Sololá	701	Sololá	2	El tablón	11	Noviembre	2023-11-11T00:00:00	2024-11-08T22:00:00	6	Velocidad del viento	11.3
1578	7	Sololá	701	Sololá	2	El tablón	11	Noviembre	2023-11-11T00:00:00	2024-11-08T22:00:00	7	Dirección del viento	11.27
1579	7	Sololá	701	Sololá	2	El tablón	11	Noviembre	2023-11-11T00:00:00	2024-11-08T22:00:00	1	Precipitación	0
1580	7	Sololá	701	Sololá	2	El tablón	11	Noviembre	2023-11-11T00:00:00	2024-11-08T22:00:00	8	Radiación solar	0
1581	7	Sololá	701	Sololá	2	El tablón	11	Noviembre	2023-11-11T00:00:00	2024-11-08T23:00:00	2	Temperatura media	14.2
1582	7	Sololá	701	Sololá	2	El tablón	11	Noviembre	2023-11-11T00:00:00	2024-11-08T23:00:00	4	Temperatura máxima	14.3
1583	7	Sololá	701	Sololá	2	El tablón	11	Noviembre	2023-11-11T00:00:00	2024-11-08T23:00:00	3	Temperatura mínima	14.2
1584	7	Sololá	701	Sololá	2	El tablón	11	Noviembre	2023-11-11T00:00:00	2024-11-08T23:00:00	5	Humedad	88
1585	7	Sololá	701	Sololá	2	El tablón	11	Noviembre	2023-11-11T00:00:00	2024-11-08T23:00:00	6	Velocidad del viento	11.3
1586	7	Sololá	701	Sololá	2	El tablón	11	Noviembre	2023-11-11T00:00:00	2024-11-08T23:00:00	7	Dirección del viento	11.27
1587	7	Sololá	701	Sololá	2	El tablón	11	Noviembre	2023-11-11T00:00:00	2024-11-08T23:00:00	1	Precipitación	0
1588	7	Sololá	701	Sololá	2	El tablón	11	Noviembre	2023-11-11T00:00:00	2024-11-08T23:00:00	8	Radiación solar	0
1589	7	Sololá	701	Sololá	2	El tablón	11	Noviembre	2023-12-11T00:00:00	2024-11-08T00:00:00	2	Temperatura media	14.2
1590	7	Sololá	701	Sololá	2	El tablón	11	Noviembre	2023-12-11T00:00:00	2024-11-08T00:00:00	4	Temperatura máxima	14.3
1591	7	Sololá	701	Sololá	2	El tablón	11	Noviembre	2023-12-11T00:00:00	2024-11-08T00:00:00	3	Temperatura mínima	14.2
1592	7	Sololá	701	Sololá	2	El tablón	11	Noviembre	2023-12-11T00:00:00	2024-11-08T00:00:00	5	Humedad	88
1593	7	Sololá	701	Sololá	2	El tablón	11	Noviembre	2023-12-11T00:00:00	2024-11-08T00:00:00	6	Velocidad del viento	9.7
1594	7	Sololá	701	Sololá	2	El tablón	11	Noviembre	2023-12-11T00:00:00	2024-11-08T00:00:00	7	Dirección del viento	9.66
1595	7	Sololá	701	Sololá	2	El tablón	11	Noviembre	2023-12-11T00:00:00	2024-11-08T00:00:00	1	Precipitación	0
1596	7	Sololá	701	Sololá	2	El tablón	11	Noviembre	2023-12-11T00:00:00	2024-11-08T00:00:00	8	Radiación solar	0
1597	7	Sololá	701	Sololá	2	El tablón	11	Noviembre	2023-12-11T00:00:00	2024-11-08T01:00:00	2	Temperatura media	13.8
1598	7	Sololá	701	Sololá	2	El tablón	11	Noviembre	2023-12-11T00:00:00	2024-11-08T01:00:00	4	Temperatura máxima	14.2
1599	7	Sololá	701	Sololá	2	El tablón	11	Noviembre	2023-12-11T00:00:00	2024-11-08T01:00:00	3	Temperatura mínima	13.8
1600	7	Sololá	701	Sololá	2	El tablón	11	Noviembre	2023-12-11T00:00:00	2024-11-08T01:00:00	5	Humedad	89
1601	7	Sololá	701	Sololá	2	El tablón	11	Noviembre	2023-12-11T00:00:00	2024-11-08T01:00:00	6	Velocidad del viento	6.4
1602	7	Sololá	701	Sololá	2	El tablón	11	Noviembre	2023-12-11T00:00:00	2024-11-08T01:00:00	7	Dirección del viento	6.44
1603	7	Sololá	701	Sololá	2	El tablón	11	Noviembre	2023-12-11T00:00:00	2024-11-08T01:00:00	1	Precipitación	0
1604	7	Sololá	701	Sololá	2	El tablón	11	Noviembre	2023-12-11T00:00:00	2024-11-08T01:00:00	8	Radiación solar	0
1605	7	Sololá	701	Sololá	2	El tablón	11	Noviembre	2023-12-11T00:00:00	2024-11-08T02:00:00	2	Temperatura media	13.9
1606	7	Sololá	701	Sololá	2	El tablón	11	Noviembre	2023-12-11T00:00:00	2024-11-08T02:00:00	4	Temperatura máxima	14
1607	7	Sololá	701	Sololá	2	El tablón	11	Noviembre	2023-12-11T00:00:00	2024-11-08T02:00:00	3	Temperatura mínima	13.8
1608	7	Sololá	701	Sololá	2	El tablón	11	Noviembre	2023-12-11T00:00:00	2024-11-08T02:00:00	5	Humedad	88
1609	7	Sololá	701	Sololá	2	El tablón	11	Noviembre	2023-12-11T00:00:00	2024-11-08T02:00:00	6	Velocidad del viento	4.8
1610	7	Sololá	701	Sololá	2	El tablón	11	Noviembre	2023-12-11T00:00:00	2024-11-08T02:00:00	7	Dirección del viento	4.83
1611	7	Sololá	701	Sololá	2	El tablón	11	Noviembre	2023-12-11T00:00:00	2024-11-08T02:00:00	1	Precipitación	0
1612	7	Sololá	701	Sololá	2	El tablón	11	Noviembre	2023-12-11T00:00:00	2024-11-08T02:00:00	8	Radiación solar	0
1613	7	Sololá	701	Sololá	2	El tablón	11	Noviembre	2023-12-11T00:00:00	2024-11-08T03:00:00	2	Temperatura media	13.9
1614	7	Sololá	701	Sololá	2	El tablón	11	Noviembre	2023-12-11T00:00:00	2024-11-08T03:00:00	4	Temperatura máxima	13.9
1615	7	Sololá	701	Sololá	2	El tablón	11	Noviembre	2023-12-11T00:00:00	2024-11-08T03:00:00	3	Temperatura mínima	13.8
1616	7	Sololá	701	Sololá	2	El tablón	11	Noviembre	2023-12-11T00:00:00	2024-11-08T03:00:00	5	Humedad	88
1617	7	Sololá	701	Sololá	2	El tablón	11	Noviembre	2023-12-11T00:00:00	2024-11-08T03:00:00	6	Velocidad del viento	3.2
1618	7	Sololá	701	Sololá	2	El tablón	11	Noviembre	2023-12-11T00:00:00	2024-11-08T03:00:00	7	Dirección del viento	3.22
1619	7	Sololá	701	Sololá	2	El tablón	11	Noviembre	2023-12-11T00:00:00	2024-11-08T03:00:00	1	Precipitación	0
1620	7	Sololá	701	Sololá	2	El tablón	11	Noviembre	2023-12-11T00:00:00	2024-11-08T03:00:00	8	Radiación solar	0
1621	7	Sololá	701	Sololá	2	El tablón	11	Noviembre	2023-12-11T00:00:00	2024-11-08T04:00:00	2	Temperatura media	13.8
1622	7	Sololá	701	Sololá	2	El tablón	11	Noviembre	2023-12-11T00:00:00	2024-11-08T04:00:00	4	Temperatura máxima	14
1623	7	Sololá	701	Sololá	2	El tablón	11	Noviembre	2023-12-11T00:00:00	2024-11-08T04:00:00	3	Temperatura mínima	13.8
1624	7	Sololá	701	Sololá	2	El tablón	11	Noviembre	2023-12-11T00:00:00	2024-11-08T04:00:00	5	Humedad	88
1625	7	Sololá	701	Sololá	2	El tablón	11	Noviembre	2023-12-11T00:00:00	2024-11-08T04:00:00	6	Velocidad del viento	6.4
1626	7	Sololá	701	Sololá	2	El tablón	11	Noviembre	2023-12-11T00:00:00	2024-11-08T04:00:00	7	Dirección del viento	6.44
1627	7	Sololá	701	Sololá	2	El tablón	11	Noviembre	2023-12-11T00:00:00	2024-11-08T04:00:00	1	Precipitación	0
1628	7	Sololá	701	Sololá	2	El tablón	11	Noviembre	2023-12-11T00:00:00	2024-11-08T04:00:00	8	Radiación solar	0
1629	7	Sololá	701	Sololá	2	El tablón	11	Noviembre	2023-12-11T00:00:00	2024-11-08T05:00:00	2	Temperatura media	13.7
1630	7	Sololá	701	Sololá	2	El tablón	11	Noviembre	2023-12-11T00:00:00	2024-11-08T05:00:00	4	Temperatura máxima	13.8
1631	7	Sololá	701	Sololá	2	El tablón	11	Noviembre	2023-12-11T00:00:00	2024-11-08T05:00:00	3	Temperatura mínima	13.6
1632	7	Sololá	701	Sololá	2	El tablón	11	Noviembre	2023-12-11T00:00:00	2024-11-08T05:00:00	5	Humedad	89
1633	7	Sololá	701	Sololá	2	El tablón	11	Noviembre	2023-12-11T00:00:00	2024-11-08T05:00:00	6	Velocidad del viento	9.7
1634	7	Sololá	701	Sololá	2	El tablón	11	Noviembre	2023-12-11T00:00:00	2024-11-08T05:00:00	7	Dirección del viento	9.66
1635	7	Sololá	701	Sololá	2	El tablón	11	Noviembre	2023-12-11T00:00:00	2024-11-08T05:00:00	1	Precipitación	0
1636	7	Sololá	701	Sololá	2	El tablón	11	Noviembre	2023-12-11T00:00:00	2024-11-08T05:00:00	8	Radiación solar	0
1637	7	Sololá	701	Sololá	2	El tablón	11	Noviembre	2023-12-11T00:00:00	2024-11-08T06:00:00	2	Temperatura media	13.5
1638	7	Sololá	701	Sololá	2	El tablón	11	Noviembre	2023-12-11T00:00:00	2024-11-08T06:00:00	4	Temperatura máxima	13.7
1639	7	Sololá	701	Sololá	2	El tablón	11	Noviembre	2023-12-11T00:00:00	2024-11-08T06:00:00	3	Temperatura mínima	13.4
1640	7	Sololá	701	Sololá	2	El tablón	11	Noviembre	2023-12-11T00:00:00	2024-11-08T06:00:00	5	Humedad	88
1641	7	Sololá	701	Sololá	2	El tablón	11	Noviembre	2023-12-11T00:00:00	2024-11-08T06:00:00	6	Velocidad del viento	11.3
1642	7	Sololá	701	Sololá	2	El tablón	11	Noviembre	2023-12-11T00:00:00	2024-11-08T06:00:00	7	Dirección del viento	11.27
1643	7	Sololá	701	Sololá	2	El tablón	11	Noviembre	2023-12-11T00:00:00	2024-11-08T06:00:00	1	Precipitación	0
1644	7	Sololá	701	Sololá	2	El tablón	11	Noviembre	2023-12-11T00:00:00	2024-11-08T06:00:00	8	Radiación solar	0
1645	7	Sololá	701	Sololá	2	El tablón	11	Noviembre	2023-12-11T00:00:00	2024-11-08T07:00:00	2	Temperatura media	14.1
1646	7	Sololá	701	Sololá	2	El tablón	11	Noviembre	2023-12-11T00:00:00	2024-11-08T07:00:00	4	Temperatura máxima	14.1
1647	7	Sololá	701	Sololá	2	El tablón	11	Noviembre	2023-12-11T00:00:00	2024-11-08T07:00:00	3	Temperatura mínima	13.5
1648	7	Sololá	701	Sololá	2	El tablón	11	Noviembre	2023-12-11T00:00:00	2024-11-08T07:00:00	5	Humedad	88
1649	7	Sololá	701	Sololá	2	El tablón	11	Noviembre	2023-12-11T00:00:00	2024-11-08T07:00:00	6	Velocidad del viento	8
1650	7	Sololá	701	Sololá	2	El tablón	11	Noviembre	2023-12-11T00:00:00	2024-11-08T07:00:00	7	Dirección del viento	8.05
1651	7	Sololá	701	Sololá	2	El tablón	11	Noviembre	2023-12-11T00:00:00	2024-11-08T07:00:00	1	Precipitación	0
1652	7	Sololá	701	Sololá	2	El tablón	11	Noviembre	2023-12-11T00:00:00	2024-11-08T07:00:00	8	Radiación solar	35
1653	7	Sololá	701	Sololá	2	El tablón	11	Noviembre	2023-12-11T00:00:00	2024-11-08T08:00:00	2	Temperatura media	15.3
1654	7	Sololá	701	Sololá	2	El tablón	11	Noviembre	2023-12-11T00:00:00	2024-11-08T08:00:00	4	Temperatura máxima	15.3
1655	7	Sololá	701	Sololá	2	El tablón	11	Noviembre	2023-12-11T00:00:00	2024-11-08T08:00:00	3	Temperatura mínima	14.1
1656	7	Sololá	701	Sololá	2	El tablón	11	Noviembre	2023-12-11T00:00:00	2024-11-08T08:00:00	5	Humedad	84
1657	7	Sololá	701	Sololá	2	El tablón	11	Noviembre	2023-12-11T00:00:00	2024-11-08T08:00:00	6	Velocidad del viento	9.7
1658	7	Sololá	701	Sololá	2	El tablón	11	Noviembre	2023-12-11T00:00:00	2024-11-08T08:00:00	7	Dirección del viento	9.66
1659	7	Sololá	701	Sololá	2	El tablón	11	Noviembre	2023-12-11T00:00:00	2024-11-08T08:00:00	1	Precipitación	0
1660	7	Sololá	701	Sololá	2	El tablón	11	Noviembre	2023-12-11T00:00:00	2024-11-08T08:00:00	8	Radiación solar	153
1661	7	Sololá	701	Sololá	2	El tablón	11	Noviembre	2023-12-11T00:00:00	2024-11-08T09:00:00	2	Temperatura media	16.2
1662	7	Sololá	701	Sololá	2	El tablón	11	Noviembre	2023-12-11T00:00:00	2024-11-08T09:00:00	4	Temperatura máxima	16.2
1663	7	Sololá	701	Sololá	2	El tablón	11	Noviembre	2023-12-11T00:00:00	2024-11-08T09:00:00	3	Temperatura mínima	15.3
1664	7	Sololá	701	Sololá	2	El tablón	11	Noviembre	2023-12-11T00:00:00	2024-11-08T09:00:00	5	Humedad	80
1665	7	Sololá	701	Sololá	2	El tablón	11	Noviembre	2023-12-11T00:00:00	2024-11-08T09:00:00	6	Velocidad del viento	8
1666	7	Sololá	701	Sololá	2	El tablón	11	Noviembre	2023-12-11T00:00:00	2024-11-08T09:00:00	7	Dirección del viento	8.05
1667	7	Sololá	701	Sololá	2	El tablón	11	Noviembre	2023-12-11T00:00:00	2024-11-08T09:00:00	1	Precipitación	0
1668	7	Sololá	701	Sololá	2	El tablón	11	Noviembre	2023-12-11T00:00:00	2024-11-08T09:00:00	8	Radiación solar	344
1669	7	Sololá	701	Sololá	2	El tablón	11	Noviembre	2023-12-11T00:00:00	2024-11-08T10:00:00	2	Temperatura media	18.1
1670	7	Sololá	701	Sololá	2	El tablón	11	Noviembre	2023-12-11T00:00:00	2024-11-08T10:00:00	4	Temperatura máxima	18.1
1671	7	Sololá	701	Sololá	2	El tablón	11	Noviembre	2023-12-11T00:00:00	2024-11-08T10:00:00	3	Temperatura mínima	16.2
1672	7	Sololá	701	Sololá	2	El tablón	11	Noviembre	2023-12-11T00:00:00	2024-11-08T10:00:00	5	Humedad	73
1673	7	Sololá	701	Sololá	2	El tablón	11	Noviembre	2023-12-11T00:00:00	2024-11-08T10:00:00	6	Velocidad del viento	11.3
1674	7	Sololá	701	Sololá	2	El tablón	11	Noviembre	2023-12-11T00:00:00	2024-11-08T10:00:00	7	Dirección del viento	11.27
1675	7	Sololá	701	Sololá	2	El tablón	11	Noviembre	2023-12-11T00:00:00	2024-11-08T10:00:00	1	Precipitación	0
1676	7	Sololá	701	Sololá	2	El tablón	11	Noviembre	2023-12-11T00:00:00	2024-11-08T10:00:00	8	Radiación solar	683
1677	7	Sololá	701	Sololá	2	El tablón	11	Noviembre	2023-12-11T00:00:00	2024-11-08T11:00:00	2	Temperatura media	18.9
1678	7	Sololá	701	Sololá	2	El tablón	11	Noviembre	2023-12-11T00:00:00	2024-11-08T11:00:00	4	Temperatura máxima	18.9
1679	7	Sololá	701	Sololá	2	El tablón	11	Noviembre	2023-12-11T00:00:00	2024-11-08T11:00:00	3	Temperatura mínima	17.7
1680	7	Sololá	701	Sololá	2	El tablón	11	Noviembre	2023-12-11T00:00:00	2024-11-08T11:00:00	5	Humedad	67
1681	7	Sololá	701	Sololá	2	El tablón	11	Noviembre	2023-12-11T00:00:00	2024-11-08T11:00:00	6	Velocidad del viento	11.3
1682	7	Sololá	701	Sololá	2	El tablón	11	Noviembre	2023-12-11T00:00:00	2024-11-08T11:00:00	7	Dirección del viento	11.27
1683	7	Sololá	701	Sololá	2	El tablón	11	Noviembre	2023-12-11T00:00:00	2024-11-08T11:00:00	1	Precipitación	0
1684	7	Sololá	701	Sololá	2	El tablón	11	Noviembre	2023-12-11T00:00:00	2024-11-08T11:00:00	8	Radiación solar	841
1685	7	Sololá	701	Sololá	2	El tablón	11	Noviembre	2023-12-11T00:00:00	2024-11-08T12:00:00	2	Temperatura media	18.9
1686	7	Sololá	701	Sololá	2	El tablón	11	Noviembre	2023-12-11T00:00:00	2024-11-08T12:00:00	4	Temperatura máxima	19.3
1687	7	Sololá	701	Sololá	2	El tablón	11	Noviembre	2023-12-11T00:00:00	2024-11-08T12:00:00	3	Temperatura mínima	17.9
1688	7	Sololá	701	Sololá	2	El tablón	11	Noviembre	2023-12-11T00:00:00	2024-11-08T12:00:00	5	Humedad	68
1689	7	Sololá	701	Sololá	2	El tablón	11	Noviembre	2023-12-11T00:00:00	2024-11-08T12:00:00	6	Velocidad del viento	9.7
1690	7	Sololá	701	Sololá	2	El tablón	11	Noviembre	2023-12-11T00:00:00	2024-11-08T12:00:00	7	Dirección del viento	9.66
1691	7	Sololá	701	Sololá	2	El tablón	11	Noviembre	2023-12-11T00:00:00	2024-11-08T12:00:00	1	Precipitación	0
1692	7	Sololá	701	Sololá	2	El tablón	11	Noviembre	2023-12-11T00:00:00	2024-11-08T12:00:00	8	Radiación solar	672
1693	7	Sololá	701	Sololá	2	El tablón	11	Noviembre	2023-12-11T00:00:00	2024-11-08T13:00:00	2	Temperatura media	18.8
1694	7	Sololá	701	Sololá	2	El tablón	11	Noviembre	2023-12-11T00:00:00	2024-11-08T13:00:00	4	Temperatura máxima	19.7
1695	7	Sololá	701	Sololá	2	El tablón	11	Noviembre	2023-12-11T00:00:00	2024-11-08T13:00:00	3	Temperatura mínima	18.4
1696	7	Sololá	701	Sololá	2	El tablón	11	Noviembre	2023-12-11T00:00:00	2024-11-08T13:00:00	5	Humedad	67
1697	7	Sololá	701	Sololá	2	El tablón	11	Noviembre	2023-12-11T00:00:00	2024-11-08T13:00:00	6	Velocidad del viento	11.3
1698	7	Sololá	701	Sololá	2	El tablón	11	Noviembre	2023-12-11T00:00:00	2024-11-08T13:00:00	7	Dirección del viento	11.27
1699	7	Sololá	701	Sololá	2	El tablón	11	Noviembre	2023-12-11T00:00:00	2024-11-08T13:00:00	1	Precipitación	0
1700	7	Sololá	701	Sololá	2	El tablón	11	Noviembre	2023-12-11T00:00:00	2024-11-08T13:00:00	8	Radiación solar	746
1701	7	Sololá	701	Sololá	2	El tablón	11	Noviembre	2023-12-11T00:00:00	2024-11-08T14:00:00	2	Temperatura media	19
1702	7	Sololá	701	Sololá	2	El tablón	11	Noviembre	2023-12-11T00:00:00	2024-11-08T14:00:00	4	Temperatura máxima	19.7
1703	7	Sololá	701	Sololá	2	El tablón	11	Noviembre	2023-12-11T00:00:00	2024-11-08T14:00:00	3	Temperatura mínima	18.7
1704	7	Sololá	701	Sololá	2	El tablón	11	Noviembre	2023-12-11T00:00:00	2024-11-08T14:00:00	5	Humedad	68
1705	7	Sololá	701	Sololá	2	El tablón	11	Noviembre	2023-12-11T00:00:00	2024-11-08T14:00:00	6	Velocidad del viento	11.3
1706	7	Sololá	701	Sololá	2	El tablón	11	Noviembre	2023-12-11T00:00:00	2024-11-08T14:00:00	7	Dirección del viento	11.27
1707	7	Sololá	701	Sololá	2	El tablón	11	Noviembre	2023-12-11T00:00:00	2024-11-08T14:00:00	1	Precipitación	0
1708	7	Sololá	701	Sololá	2	El tablón	11	Noviembre	2023-12-11T00:00:00	2024-11-08T14:00:00	8	Radiación solar	753
1709	7	Sololá	701	Sololá	2	El tablón	11	Noviembre	2023-12-11T00:00:00	2024-11-08T15:00:00	2	Temperatura media	19.1
1710	7	Sololá	701	Sololá	2	El tablón	11	Noviembre	2023-12-11T00:00:00	2024-11-08T15:00:00	4	Temperatura máxima	19.4
1711	7	Sololá	701	Sololá	2	El tablón	11	Noviembre	2023-12-11T00:00:00	2024-11-08T15:00:00	3	Temperatura mínima	18.9
1712	7	Sololá	701	Sololá	2	El tablón	11	Noviembre	2023-12-11T00:00:00	2024-11-08T15:00:00	5	Humedad	66
1713	7	Sololá	701	Sololá	2	El tablón	11	Noviembre	2023-12-11T00:00:00	2024-11-08T15:00:00	6	Velocidad del viento	11.3
1714	7	Sololá	701	Sololá	2	El tablón	11	Noviembre	2023-12-11T00:00:00	2024-11-08T15:00:00	7	Dirección del viento	11.27
1715	7	Sololá	701	Sololá	2	El tablón	11	Noviembre	2023-12-11T00:00:00	2024-11-08T15:00:00	1	Precipitación	0
1716	7	Sololá	701	Sololá	2	El tablón	11	Noviembre	2023-12-11T00:00:00	2024-11-08T15:00:00	8	Radiación solar	650
1717	7	Sololá	701	Sololá	2	El tablón	11	Noviembre	2023-12-11T00:00:00	2024-11-08T16:00:00	2	Temperatura media	16.7
1718	7	Sololá	701	Sololá	2	El tablón	11	Noviembre	2023-12-11T00:00:00	2024-11-08T16:00:00	4	Temperatura máxima	19.3
1719	7	Sololá	701	Sololá	2	El tablón	11	Noviembre	2023-12-11T00:00:00	2024-11-08T16:00:00	3	Temperatura mínima	16.7
1720	7	Sololá	701	Sololá	2	El tablón	11	Noviembre	2023-12-11T00:00:00	2024-11-08T16:00:00	5	Humedad	79
1721	7	Sololá	701	Sololá	2	El tablón	11	Noviembre	2023-12-11T00:00:00	2024-11-08T16:00:00	6	Velocidad del viento	11.3
1722	7	Sololá	701	Sololá	2	El tablón	11	Noviembre	2023-12-11T00:00:00	2024-11-08T16:00:00	7	Dirección del viento	11.27
1723	7	Sololá	701	Sololá	2	El tablón	11	Noviembre	2023-12-11T00:00:00	2024-11-08T16:00:00	1	Precipitación	0
1724	7	Sololá	701	Sololá	2	El tablón	11	Noviembre	2023-12-11T00:00:00	2024-11-08T16:00:00	8	Radiación solar	228
1725	7	Sololá	701	Sololá	2	El tablón	11	Noviembre	2023-12-11T00:00:00	2024-11-08T17:00:00	2	Temperatura media	16.6
1726	7	Sololá	701	Sololá	2	El tablón	11	Noviembre	2023-12-11T00:00:00	2024-11-08T17:00:00	4	Temperatura máxima	17.2
1727	7	Sololá	701	Sololá	2	El tablón	11	Noviembre	2023-12-11T00:00:00	2024-11-08T17:00:00	3	Temperatura mínima	16.6
1728	7	Sololá	701	Sololá	2	El tablón	11	Noviembre	2023-12-11T00:00:00	2024-11-08T17:00:00	5	Humedad	82
1729	7	Sololá	701	Sololá	2	El tablón	11	Noviembre	2023-12-11T00:00:00	2024-11-08T17:00:00	6	Velocidad del viento	11.3
1730	7	Sololá	701	Sololá	2	El tablón	11	Noviembre	2023-12-11T00:00:00	2024-11-08T17:00:00	7	Dirección del viento	11.27
1731	7	Sololá	701	Sololá	2	El tablón	11	Noviembre	2023-12-11T00:00:00	2024-11-08T17:00:00	1	Precipitación	0
1732	7	Sololá	701	Sololá	2	El tablón	11	Noviembre	2023-12-11T00:00:00	2024-11-08T17:00:00	8	Radiación solar	200
1733	7	Sololá	701	Sololá	2	El tablón	11	Noviembre	2023-12-11T00:00:00	2024-11-08T18:00:00	2	Temperatura media	15
1734	7	Sololá	701	Sololá	2	El tablón	11	Noviembre	2023-12-11T00:00:00	2024-11-08T18:00:00	4	Temperatura máxima	16.6
1735	7	Sololá	701	Sololá	2	El tablón	11	Noviembre	2023-12-11T00:00:00	2024-11-08T18:00:00	3	Temperatura mínima	15
1736	7	Sololá	701	Sololá	2	El tablón	11	Noviembre	2023-12-11T00:00:00	2024-11-08T18:00:00	5	Humedad	86
1737	7	Sololá	701	Sololá	2	El tablón	11	Noviembre	2023-12-11T00:00:00	2024-11-08T18:00:00	6	Velocidad del viento	11.3
1738	7	Sololá	701	Sololá	2	El tablón	11	Noviembre	2023-12-11T00:00:00	2024-11-08T18:00:00	7	Dirección del viento	11.27
1739	7	Sololá	701	Sololá	2	El tablón	11	Noviembre	2023-12-11T00:00:00	2024-11-08T18:00:00	1	Precipitación	0
1740	7	Sololá	701	Sololá	2	El tablón	11	Noviembre	2023-12-11T00:00:00	2024-11-08T18:00:00	8	Radiación solar	19
1741	7	Sololá	701	Sololá	2	El tablón	11	Noviembre	2023-12-11T00:00:00	2024-11-08T19:00:00	2	Temperatura media	14.7
1742	7	Sololá	701	Sololá	2	El tablón	11	Noviembre	2023-12-11T00:00:00	2024-11-08T19:00:00	4	Temperatura máxima	15
1743	7	Sololá	701	Sololá	2	El tablón	11	Noviembre	2023-12-11T00:00:00	2024-11-08T19:00:00	3	Temperatura mínima	14.6
1744	7	Sololá	701	Sololá	2	El tablón	11	Noviembre	2023-12-11T00:00:00	2024-11-08T19:00:00	5	Humedad	85
1745	7	Sololá	701	Sololá	2	El tablón	11	Noviembre	2023-12-11T00:00:00	2024-11-08T19:00:00	6	Velocidad del viento	12.9
1746	7	Sololá	701	Sololá	2	El tablón	11	Noviembre	2023-12-11T00:00:00	2024-11-08T19:00:00	7	Dirección del viento	12.87
1747	7	Sololá	701	Sololá	2	El tablón	11	Noviembre	2023-12-11T00:00:00	2024-11-08T19:00:00	1	Precipitación	0
1748	7	Sololá	701	Sololá	2	El tablón	11	Noviembre	2023-12-11T00:00:00	2024-11-08T19:00:00	8	Radiación solar	0
1749	7	Sololá	701	Sololá	2	El tablón	11	Noviembre	2023-12-11T00:00:00	2024-11-08T20:00:00	2	Temperatura media	14
1750	7	Sololá	701	Sololá	2	El tablón	11	Noviembre	2023-12-11T00:00:00	2024-11-08T20:00:00	4	Temperatura máxima	14.7
1751	7	Sololá	701	Sololá	2	El tablón	11	Noviembre	2023-12-11T00:00:00	2024-11-08T20:00:00	3	Temperatura mínima	14
1752	7	Sololá	701	Sololá	2	El tablón	11	Noviembre	2023-12-11T00:00:00	2024-11-08T20:00:00	5	Humedad	86
1753	7	Sololá	701	Sololá	2	El tablón	11	Noviembre	2023-12-11T00:00:00	2024-11-08T20:00:00	6	Velocidad del viento	12.9
1754	7	Sololá	701	Sololá	2	El tablón	11	Noviembre	2023-12-11T00:00:00	2024-11-08T20:00:00	7	Dirección del viento	12.87
1755	7	Sololá	701	Sololá	2	El tablón	11	Noviembre	2023-12-11T00:00:00	2024-11-08T20:00:00	1	Precipitación	0
1756	7	Sololá	701	Sololá	2	El tablón	11	Noviembre	2023-12-11T00:00:00	2024-11-08T20:00:00	8	Radiación solar	0
1757	7	Sololá	701	Sololá	2	El tablón	11	Noviembre	2023-12-11T00:00:00	2024-11-08T21:00:00	2	Temperatura media	13.6
1758	7	Sololá	701	Sololá	2	El tablón	11	Noviembre	2023-12-11T00:00:00	2024-11-08T21:00:00	4	Temperatura máxima	14
1759	7	Sololá	701	Sololá	2	El tablón	11	Noviembre	2023-12-11T00:00:00	2024-11-08T21:00:00	3	Temperatura mínima	13.6
1760	7	Sololá	701	Sololá	2	El tablón	11	Noviembre	2023-12-11T00:00:00	2024-11-08T21:00:00	5	Humedad	88
1761	7	Sololá	701	Sololá	2	El tablón	11	Noviembre	2023-12-11T00:00:00	2024-11-08T21:00:00	6	Velocidad del viento	14.5
1762	7	Sololá	701	Sololá	2	El tablón	11	Noviembre	2023-12-11T00:00:00	2024-11-08T21:00:00	7	Dirección del viento	14.48
1763	7	Sololá	701	Sololá	2	El tablón	11	Noviembre	2023-12-11T00:00:00	2024-11-08T21:00:00	1	Precipitación	0
1764	7	Sololá	701	Sololá	2	El tablón	11	Noviembre	2023-12-11T00:00:00	2024-11-08T21:00:00	8	Radiación solar	0
1765	7	Sololá	701	Sololá	2	El tablón	11	Noviembre	2023-12-11T00:00:00	2024-11-08T22:00:00	2	Temperatura media	13.1
1766	7	Sololá	701	Sololá	2	El tablón	11	Noviembre	2023-12-11T00:00:00	2024-11-08T22:00:00	4	Temperatura máxima	13.6
1767	7	Sololá	701	Sololá	2	El tablón	11	Noviembre	2023-12-11T00:00:00	2024-11-08T22:00:00	3	Temperatura mínima	13.1
1768	7	Sololá	701	Sololá	2	El tablón	11	Noviembre	2023-12-11T00:00:00	2024-11-08T22:00:00	5	Humedad	88
1769	7	Sololá	701	Sololá	2	El tablón	11	Noviembre	2023-12-11T00:00:00	2024-11-08T22:00:00	6	Velocidad del viento	17.7
1770	7	Sololá	701	Sololá	2	El tablón	11	Noviembre	2023-12-11T00:00:00	2024-11-08T22:00:00	7	Dirección del viento	17.7
1771	7	Sololá	701	Sololá	2	El tablón	11	Noviembre	2023-12-11T00:00:00	2024-11-08T22:00:00	1	Precipitación	0
1772	7	Sololá	701	Sololá	2	El tablón	11	Noviembre	2023-12-11T00:00:00	2024-11-08T22:00:00	8	Radiación solar	0
1773	7	Sololá	701	Sololá	2	El tablón	11	Noviembre	2023-12-11T00:00:00	2024-11-08T23:00:00	2	Temperatura media	13.1
1774	7	Sololá	701	Sololá	2	El tablón	11	Noviembre	2023-12-11T00:00:00	2024-11-08T23:00:00	4	Temperatura máxima	13.3
1775	7	Sololá	701	Sololá	2	El tablón	11	Noviembre	2023-12-11T00:00:00	2024-11-08T23:00:00	3	Temperatura mínima	13.1
1776	7	Sololá	701	Sololá	2	El tablón	11	Noviembre	2023-12-11T00:00:00	2024-11-08T23:00:00	5	Humedad	89
1777	7	Sololá	701	Sololá	2	El tablón	11	Noviembre	2023-12-11T00:00:00	2024-11-08T23:00:00	6	Velocidad del viento	16.1
1778	7	Sololá	701	Sololá	2	El tablón	11	Noviembre	2023-12-11T00:00:00	2024-11-08T23:00:00	7	Dirección del viento	16.09
1779	7	Sololá	701	Sololá	2	El tablón	11	Noviembre	2023-12-11T00:00:00	2024-11-08T23:00:00	1	Precipitación	0
1780	7	Sololá	701	Sololá	2	El tablón	11	Noviembre	2023-12-11T00:00:00	2024-11-08T23:00:00	8	Radiación solar	0
1781	7	Sololá	701	Sololá	2	El tablón	11	Noviembre	2023-11-13T00:00:00	2024-11-08T00:00:00	2	Temperatura media	13.2
1782	7	Sololá	701	Sololá	2	El tablón	11	Noviembre	2023-11-13T00:00:00	2024-11-08T00:00:00	4	Temperatura máxima	13.2
1783	7	Sololá	701	Sololá	2	El tablón	11	Noviembre	2023-11-13T00:00:00	2024-11-08T00:00:00	3	Temperatura mínima	13.1
1784	7	Sololá	701	Sololá	2	El tablón	11	Noviembre	2023-11-13T00:00:00	2024-11-08T00:00:00	5	Humedad	88
1785	7	Sololá	701	Sololá	2	El tablón	11	Noviembre	2023-11-13T00:00:00	2024-11-08T00:00:00	6	Velocidad del viento	16.1
1786	7	Sololá	701	Sololá	2	El tablón	11	Noviembre	2023-11-13T00:00:00	2024-11-08T00:00:00	7	Dirección del viento	16.09
1787	7	Sololá	701	Sololá	2	El tablón	11	Noviembre	2023-11-13T00:00:00	2024-11-08T00:00:00	1	Precipitación	0
1788	7	Sololá	701	Sololá	2	El tablón	11	Noviembre	2023-11-13T00:00:00	2024-11-08T00:00:00	8	Radiación solar	0
1789	7	Sololá	701	Sololá	2	El tablón	11	Noviembre	2023-11-13T00:00:00	2024-11-08T01:00:00	2	Temperatura media	13.2
1790	7	Sololá	701	Sololá	2	El tablón	11	Noviembre	2023-11-13T00:00:00	2024-11-08T01:00:00	4	Temperatura máxima	13.2
1791	7	Sololá	701	Sololá	2	El tablón	11	Noviembre	2023-11-13T00:00:00	2024-11-08T01:00:00	3	Temperatura mínima	13.1
1792	7	Sololá	701	Sololá	2	El tablón	11	Noviembre	2023-11-13T00:00:00	2024-11-08T01:00:00	5	Humedad	88
1793	7	Sololá	701	Sololá	2	El tablón	11	Noviembre	2023-11-13T00:00:00	2024-11-08T01:00:00	6	Velocidad del viento	14.5
1794	7	Sololá	701	Sololá	2	El tablón	11	Noviembre	2023-11-13T00:00:00	2024-11-08T01:00:00	7	Dirección del viento	14.48
1795	7	Sololá	701	Sololá	2	El tablón	11	Noviembre	2023-11-13T00:00:00	2024-11-08T01:00:00	1	Precipitación	0
1796	7	Sololá	701	Sololá	2	El tablón	11	Noviembre	2023-11-13T00:00:00	2024-11-08T01:00:00	8	Radiación solar	0
1797	7	Sololá	701	Sololá	2	El tablón	11	Noviembre	2023-11-13T00:00:00	2024-11-08T02:00:00	2	Temperatura media	12.9
1798	7	Sololá	701	Sololá	2	El tablón	11	Noviembre	2023-11-13T00:00:00	2024-11-08T02:00:00	4	Temperatura máxima	13.2
1799	7	Sololá	701	Sololá	2	El tablón	11	Noviembre	2023-11-13T00:00:00	2024-11-08T02:00:00	3	Temperatura mínima	12.8
1800	7	Sololá	701	Sololá	2	El tablón	11	Noviembre	2023-11-13T00:00:00	2024-11-08T02:00:00	5	Humedad	88
1801	7	Sololá	701	Sololá	2	El tablón	11	Noviembre	2023-11-13T00:00:00	2024-11-08T02:00:00	6	Velocidad del viento	16.1
1802	7	Sololá	701	Sololá	2	El tablón	11	Noviembre	2023-11-13T00:00:00	2024-11-08T02:00:00	7	Dirección del viento	16.09
1803	7	Sololá	701	Sololá	2	El tablón	11	Noviembre	2023-11-13T00:00:00	2024-11-08T02:00:00	1	Precipitación	0
1804	7	Sololá	701	Sololá	2	El tablón	11	Noviembre	2023-11-13T00:00:00	2024-11-08T02:00:00	8	Radiación solar	0
1805	7	Sololá	701	Sololá	2	El tablón	11	Noviembre	2023-11-13T00:00:00	2024-11-08T03:00:00	2	Temperatura media	12.4
1806	7	Sololá	701	Sololá	2	El tablón	11	Noviembre	2023-11-13T00:00:00	2024-11-08T03:00:00	4	Temperatura máxima	12.9
1807	7	Sololá	701	Sololá	2	El tablón	11	Noviembre	2023-11-13T00:00:00	2024-11-08T03:00:00	3	Temperatura mínima	12.4
1808	7	Sololá	701	Sololá	2	El tablón	11	Noviembre	2023-11-13T00:00:00	2024-11-08T03:00:00	5	Humedad	86
1809	7	Sololá	701	Sololá	2	El tablón	11	Noviembre	2023-11-13T00:00:00	2024-11-08T03:00:00	6	Velocidad del viento	16.1
1810	7	Sololá	701	Sololá	2	El tablón	11	Noviembre	2023-11-13T00:00:00	2024-11-08T03:00:00	7	Dirección del viento	16.09
1811	7	Sololá	701	Sololá	2	El tablón	11	Noviembre	2023-11-13T00:00:00	2024-11-08T03:00:00	1	Precipitación	0
1812	7	Sololá	701	Sololá	2	El tablón	11	Noviembre	2023-11-13T00:00:00	2024-11-08T03:00:00	8	Radiación solar	0
1813	7	Sololá	701	Sololá	2	El tablón	11	Noviembre	2023-11-13T00:00:00	2024-11-08T04:00:00	2	Temperatura media	12.2
1814	7	Sololá	701	Sololá	2	El tablón	11	Noviembre	2023-11-13T00:00:00	2024-11-08T04:00:00	4	Temperatura máxima	12.4
1815	7	Sololá	701	Sololá	2	El tablón	11	Noviembre	2023-11-13T00:00:00	2024-11-08T04:00:00	3	Temperatura mínima	12.1
1816	7	Sololá	701	Sololá	2	El tablón	11	Noviembre	2023-11-13T00:00:00	2024-11-08T04:00:00	5	Humedad	87
1817	7	Sololá	701	Sololá	2	El tablón	11	Noviembre	2023-11-13T00:00:00	2024-11-08T04:00:00	6	Velocidad del viento	16.1
1818	7	Sololá	701	Sololá	2	El tablón	11	Noviembre	2023-11-13T00:00:00	2024-11-08T04:00:00	7	Dirección del viento	16.09
1819	7	Sololá	701	Sololá	2	El tablón	11	Noviembre	2023-11-13T00:00:00	2024-11-08T04:00:00	1	Precipitación	0
1820	7	Sololá	701	Sololá	2	El tablón	11	Noviembre	2023-11-13T00:00:00	2024-11-08T04:00:00	8	Radiación solar	0
1821	7	Sololá	701	Sololá	2	El tablón	11	Noviembre	2023-11-13T00:00:00	2024-11-08T05:00:00	2	Temperatura media	12.9
1822	7	Sololá	701	Sololá	2	El tablón	11	Noviembre	2023-11-13T00:00:00	2024-11-08T05:00:00	4	Temperatura máxima	13
1823	7	Sololá	701	Sololá	2	El tablón	11	Noviembre	2023-11-13T00:00:00	2024-11-08T05:00:00	3	Temperatura mínima	12.2
1824	7	Sololá	701	Sololá	2	El tablón	11	Noviembre	2023-11-13T00:00:00	2024-11-08T05:00:00	5	Humedad	87
1825	7	Sololá	701	Sololá	2	El tablón	11	Noviembre	2023-11-13T00:00:00	2024-11-08T05:00:00	6	Velocidad del viento	12.9
1826	7	Sololá	701	Sololá	2	El tablón	11	Noviembre	2023-11-13T00:00:00	2024-11-08T05:00:00	7	Dirección del viento	12.87
1827	7	Sololá	701	Sololá	2	El tablón	11	Noviembre	2023-11-13T00:00:00	2024-11-08T05:00:00	1	Precipitación	0
1828	7	Sololá	701	Sololá	2	El tablón	11	Noviembre	2023-11-13T00:00:00	2024-11-08T05:00:00	8	Radiación solar	0
1829	7	Sololá	701	Sololá	2	El tablón	11	Noviembre	2023-11-13T00:00:00	2024-11-08T06:00:00	2	Temperatura media	13.2
1830	7	Sololá	701	Sololá	2	El tablón	11	Noviembre	2023-11-13T00:00:00	2024-11-08T06:00:00	4	Temperatura máxima	13.2
1831	7	Sololá	701	Sololá	2	El tablón	11	Noviembre	2023-11-13T00:00:00	2024-11-08T06:00:00	3	Temperatura mínima	12.8
1832	7	Sololá	701	Sololá	2	El tablón	11	Noviembre	2023-11-13T00:00:00	2024-11-08T06:00:00	5	Humedad	88
1833	7	Sololá	701	Sololá	2	El tablón	11	Noviembre	2023-11-13T00:00:00	2024-11-08T06:00:00	6	Velocidad del viento	11.3
1834	7	Sololá	701	Sololá	2	El tablón	11	Noviembre	2023-11-13T00:00:00	2024-11-08T06:00:00	7	Dirección del viento	11.27
1835	7	Sololá	701	Sololá	2	El tablón	11	Noviembre	2023-11-13T00:00:00	2024-11-08T06:00:00	1	Precipitación	0
1836	7	Sololá	701	Sololá	2	El tablón	11	Noviembre	2023-11-13T00:00:00	2024-11-08T06:00:00	8	Radiación solar	0
1837	7	Sololá	701	Sololá	2	El tablón	11	Noviembre	2023-11-13T00:00:00	2024-11-08T07:00:00	2	Temperatura media	14.1
1838	7	Sololá	701	Sololá	2	El tablón	11	Noviembre	2023-11-13T00:00:00	2024-11-08T07:00:00	4	Temperatura máxima	14.1
1839	7	Sololá	701	Sololá	2	El tablón	11	Noviembre	2023-11-13T00:00:00	2024-11-08T07:00:00	3	Temperatura mínima	13
1840	7	Sololá	701	Sololá	2	El tablón	11	Noviembre	2023-11-13T00:00:00	2024-11-08T07:00:00	5	Humedad	86
1841	7	Sololá	701	Sololá	2	El tablón	11	Noviembre	2023-11-13T00:00:00	2024-11-08T07:00:00	6	Velocidad del viento	12.9
1842	7	Sololá	701	Sololá	2	El tablón	11	Noviembre	2023-11-13T00:00:00	2024-11-08T07:00:00	7	Dirección del viento	12.87
1843	7	Sololá	701	Sololá	2	El tablón	11	Noviembre	2023-11-13T00:00:00	2024-11-08T07:00:00	1	Precipitación	0
1844	7	Sololá	701	Sololá	2	El tablón	11	Noviembre	2023-11-13T00:00:00	2024-11-08T07:00:00	8	Radiación solar	45
1845	7	Sololá	701	Sololá	2	El tablón	11	Noviembre	2023-11-13T00:00:00	2024-11-08T08:00:00	2	Temperatura media	14.9
1846	7	Sololá	701	Sololá	2	El tablón	11	Noviembre	2023-11-13T00:00:00	2024-11-08T08:00:00	4	Temperatura máxima	14.9
1847	7	Sololá	701	Sololá	2	El tablón	11	Noviembre	2023-11-13T00:00:00	2024-11-08T08:00:00	3	Temperatura mínima	14.1
1848	7	Sololá	701	Sololá	2	El tablón	11	Noviembre	2023-11-13T00:00:00	2024-11-08T08:00:00	5	Humedad	84
1849	7	Sololá	701	Sololá	2	El tablón	11	Noviembre	2023-11-13T00:00:00	2024-11-08T08:00:00	6	Velocidad del viento	17.7
1850	7	Sololá	701	Sololá	2	El tablón	11	Noviembre	2023-11-13T00:00:00	2024-11-08T08:00:00	7	Dirección del viento	17.7
1851	7	Sololá	701	Sololá	2	El tablón	11	Noviembre	2023-11-13T00:00:00	2024-11-08T08:00:00	1	Precipitación	0
1852	7	Sololá	701	Sololá	2	El tablón	11	Noviembre	2023-11-13T00:00:00	2024-11-08T08:00:00	8	Radiación solar	241
1853	7	Sololá	701	Sololá	2	El tablón	11	Noviembre	2023-11-13T00:00:00	2024-11-08T09:00:00	2	Temperatura media	15.4
1854	7	Sololá	701	Sololá	2	El tablón	11	Noviembre	2023-11-13T00:00:00	2024-11-08T09:00:00	4	Temperatura máxima	15.8
1855	7	Sololá	701	Sololá	2	El tablón	11	Noviembre	2023-11-13T00:00:00	2024-11-08T09:00:00	3	Temperatura mínima	14.9
1856	7	Sololá	701	Sololá	2	El tablón	11	Noviembre	2023-11-13T00:00:00	2024-11-08T09:00:00	5	Humedad	83
1857	7	Sololá	701	Sololá	2	El tablón	11	Noviembre	2023-11-13T00:00:00	2024-11-08T09:00:00	6	Velocidad del viento	17.7
1858	7	Sololá	701	Sololá	2	El tablón	11	Noviembre	2023-11-13T00:00:00	2024-11-08T09:00:00	7	Dirección del viento	17.7
1859	7	Sololá	701	Sololá	2	El tablón	11	Noviembre	2023-11-13T00:00:00	2024-11-08T09:00:00	1	Precipitación	0
1860	7	Sololá	701	Sololá	2	El tablón	11	Noviembre	2023-11-13T00:00:00	2024-11-08T09:00:00	8	Radiación solar	434
1861	7	Sololá	701	Sololá	2	El tablón	11	Noviembre	2023-11-13T00:00:00	2024-11-08T10:00:00	2	Temperatura media	16.6
1862	7	Sololá	701	Sololá	2	El tablón	11	Noviembre	2023-11-13T00:00:00	2024-11-08T10:00:00	4	Temperatura máxima	16.7
1863	7	Sololá	701	Sololá	2	El tablón	11	Noviembre	2023-11-13T00:00:00	2024-11-08T10:00:00	3	Temperatura mínima	15.4
1864	7	Sololá	701	Sololá	2	El tablón	11	Noviembre	2023-11-13T00:00:00	2024-11-08T10:00:00	5	Humedad	81
1865	7	Sololá	701	Sololá	2	El tablón	11	Noviembre	2023-11-13T00:00:00	2024-11-08T10:00:00	6	Velocidad del viento	17.7
1866	7	Sololá	701	Sololá	2	El tablón	11	Noviembre	2023-11-13T00:00:00	2024-11-08T10:00:00	7	Dirección del viento	17.7
1867	7	Sololá	701	Sololá	2	El tablón	11	Noviembre	2023-11-13T00:00:00	2024-11-08T10:00:00	1	Precipitación	0
1868	7	Sololá	701	Sololá	2	El tablón	11	Noviembre	2023-11-13T00:00:00	2024-11-08T10:00:00	8	Radiación solar	653
1869	7	Sololá	701	Sololá	2	El tablón	11	Noviembre	2023-11-13T00:00:00	2024-11-08T11:00:00	2	Temperatura media	18.2
1870	7	Sololá	701	Sololá	2	El tablón	11	Noviembre	2023-11-13T00:00:00	2024-11-08T11:00:00	4	Temperatura máxima	18.2
1871	7	Sololá	701	Sololá	2	El tablón	11	Noviembre	2023-11-13T00:00:00	2024-11-08T11:00:00	3	Temperatura mínima	16.6
1872	7	Sololá	701	Sololá	2	El tablón	11	Noviembre	2023-11-13T00:00:00	2024-11-08T11:00:00	5	Humedad	77
1873	7	Sololá	701	Sololá	2	El tablón	11	Noviembre	2023-11-13T00:00:00	2024-11-08T11:00:00	6	Velocidad del viento	14.5
1874	7	Sololá	701	Sololá	2	El tablón	11	Noviembre	2023-11-13T00:00:00	2024-11-08T11:00:00	7	Dirección del viento	14.48
1875	7	Sololá	701	Sololá	2	El tablón	11	Noviembre	2023-11-13T00:00:00	2024-11-08T11:00:00	1	Precipitación	0
1876	7	Sololá	701	Sololá	2	El tablón	11	Noviembre	2023-11-13T00:00:00	2024-11-08T11:00:00	8	Radiación solar	804
1877	7	Sololá	701	Sololá	2	El tablón	11	Noviembre	2023-11-13T00:00:00	2024-11-08T12:00:00	2	Temperatura media	18.9
1878	7	Sololá	701	Sololá	2	El tablón	11	Noviembre	2023-11-13T00:00:00	2024-11-08T12:00:00	4	Temperatura máxima	19.3
1879	7	Sololá	701	Sololá	2	El tablón	11	Noviembre	2023-11-13T00:00:00	2024-11-08T12:00:00	3	Temperatura mínima	18.1
1880	7	Sololá	701	Sololá	2	El tablón	11	Noviembre	2023-11-13T00:00:00	2024-11-08T12:00:00	5	Humedad	73
1881	7	Sololá	701	Sololá	2	El tablón	11	Noviembre	2023-11-13T00:00:00	2024-11-08T12:00:00	6	Velocidad del viento	12.9
1882	7	Sololá	701	Sololá	2	El tablón	11	Noviembre	2023-11-13T00:00:00	2024-11-08T12:00:00	7	Dirección del viento	12.87
1883	7	Sololá	701	Sololá	2	El tablón	11	Noviembre	2023-11-13T00:00:00	2024-11-08T12:00:00	1	Precipitación	0
1884	7	Sololá	701	Sololá	2	El tablón	11	Noviembre	2023-11-13T00:00:00	2024-11-08T12:00:00	8	Radiación solar	666
1885	7	Sololá	701	Sololá	2	El tablón	11	Noviembre	2023-11-13T00:00:00	2024-11-08T13:00:00	2	Temperatura media	19.1
1886	7	Sololá	701	Sololá	2	El tablón	11	Noviembre	2023-11-13T00:00:00	2024-11-08T13:00:00	4	Temperatura máxima	20.3
1887	7	Sololá	701	Sololá	2	El tablón	11	Noviembre	2023-11-13T00:00:00	2024-11-08T13:00:00	3	Temperatura mínima	18.9
1888	7	Sololá	701	Sololá	2	El tablón	11	Noviembre	2023-11-13T00:00:00	2024-11-08T13:00:00	5	Humedad	74
1889	7	Sololá	701	Sololá	2	El tablón	11	Noviembre	2023-11-13T00:00:00	2024-11-08T13:00:00	6	Velocidad del viento	12.9
1890	7	Sololá	701	Sololá	2	El tablón	11	Noviembre	2023-11-13T00:00:00	2024-11-08T13:00:00	7	Dirección del viento	12.87
1891	7	Sololá	701	Sololá	2	El tablón	11	Noviembre	2023-11-13T00:00:00	2024-11-08T13:00:00	1	Precipitación	0
1892	7	Sololá	701	Sololá	2	El tablón	11	Noviembre	2023-11-13T00:00:00	2024-11-08T13:00:00	8	Radiación solar	772
1893	7	Sololá	701	Sololá	2	El tablón	11	Noviembre	2023-11-13T00:00:00	2024-11-08T14:00:00	2	Temperatura media	19
1894	7	Sololá	701	Sololá	2	El tablón	11	Noviembre	2023-11-13T00:00:00	2024-11-08T14:00:00	4	Temperatura máxima	19.6
1895	7	Sololá	701	Sololá	2	El tablón	11	Noviembre	2023-11-13T00:00:00	2024-11-08T14:00:00	3	Temperatura mínima	18.6
1896	7	Sololá	701	Sololá	2	El tablón	11	Noviembre	2023-11-13T00:00:00	2024-11-08T14:00:00	5	Humedad	75
1897	7	Sololá	701	Sololá	2	El tablón	11	Noviembre	2023-11-13T00:00:00	2024-11-08T14:00:00	6	Velocidad del viento	11.3
1898	7	Sololá	701	Sololá	2	El tablón	11	Noviembre	2023-11-13T00:00:00	2024-11-08T14:00:00	7	Dirección del viento	11.27
1899	7	Sololá	701	Sololá	2	El tablón	11	Noviembre	2023-11-13T00:00:00	2024-11-08T14:00:00	1	Precipitación	0
1900	7	Sololá	701	Sololá	2	El tablón	11	Noviembre	2023-11-13T00:00:00	2024-11-08T14:00:00	8	Radiación solar	595
1901	7	Sololá	701	Sololá	2	El tablón	11	Noviembre	2023-11-13T00:00:00	2024-11-08T15:00:00	2	Temperatura media	18.6
1902	7	Sololá	701	Sololá	2	El tablón	11	Noviembre	2023-11-13T00:00:00	2024-11-08T15:00:00	4	Temperatura máxima	19.6
1903	7	Sololá	701	Sololá	2	El tablón	11	Noviembre	2023-11-13T00:00:00	2024-11-08T15:00:00	3	Temperatura mínima	18.1
1904	7	Sololá	701	Sololá	2	El tablón	11	Noviembre	2023-11-13T00:00:00	2024-11-08T15:00:00	5	Humedad	76
1905	7	Sololá	701	Sololá	2	El tablón	11	Noviembre	2023-11-13T00:00:00	2024-11-08T15:00:00	6	Velocidad del viento	11.3
1906	7	Sololá	701	Sololá	2	El tablón	11	Noviembre	2023-11-13T00:00:00	2024-11-08T15:00:00	7	Dirección del viento	11.27
1907	7	Sololá	701	Sololá	2	El tablón	11	Noviembre	2023-11-13T00:00:00	2024-11-08T15:00:00	1	Precipitación	0
1908	7	Sololá	701	Sololá	2	El tablón	11	Noviembre	2023-11-13T00:00:00	2024-11-08T15:00:00	8	Radiación solar	415
1909	7	Sololá	701	Sololá	2	El tablón	11	Noviembre	2023-11-13T00:00:00	2024-11-08T16:00:00	2	Temperatura media	17.6
1910	7	Sololá	701	Sololá	2	El tablón	11	Noviembre	2023-11-13T00:00:00	2024-11-08T16:00:00	4	Temperatura máxima	19.2
1911	7	Sololá	701	Sololá	2	El tablón	11	Noviembre	2023-11-13T00:00:00	2024-11-08T16:00:00	3	Temperatura mínima	17.6
1912	7	Sololá	701	Sololá	2	El tablón	11	Noviembre	2023-11-13T00:00:00	2024-11-08T16:00:00	5	Humedad	80
1913	7	Sololá	701	Sololá	2	El tablón	11	Noviembre	2023-11-13T00:00:00	2024-11-08T16:00:00	6	Velocidad del viento	8
1914	7	Sololá	701	Sololá	2	El tablón	11	Noviembre	2023-11-13T00:00:00	2024-11-08T16:00:00	7	Dirección del viento	8.05
1915	7	Sololá	701	Sololá	2	El tablón	11	Noviembre	2023-11-13T00:00:00	2024-11-08T16:00:00	1	Precipitación	0
1916	7	Sololá	701	Sololá	2	El tablón	11	Noviembre	2023-11-13T00:00:00	2024-11-08T16:00:00	8	Radiación solar	260
1917	7	Sololá	701	Sololá	2	El tablón	11	Noviembre	2023-11-13T00:00:00	2024-11-08T17:00:00	2	Temperatura media	16.2
1918	7	Sololá	701	Sololá	2	El tablón	11	Noviembre	2023-11-13T00:00:00	2024-11-08T17:00:00	4	Temperatura máxima	17.6
1919	7	Sololá	701	Sololá	2	El tablón	11	Noviembre	2023-11-13T00:00:00	2024-11-08T17:00:00	3	Temperatura mínima	16.2
1920	7	Sololá	701	Sololá	2	El tablón	11	Noviembre	2023-11-13T00:00:00	2024-11-08T17:00:00	5	Humedad	85
1921	7	Sololá	701	Sololá	2	El tablón	11	Noviembre	2023-11-13T00:00:00	2024-11-08T17:00:00	6	Velocidad del viento	6.4
1922	7	Sololá	701	Sololá	2	El tablón	11	Noviembre	2023-11-13T00:00:00	2024-11-08T17:00:00	7	Dirección del viento	6.44
1923	7	Sololá	701	Sololá	2	El tablón	11	Noviembre	2023-11-13T00:00:00	2024-11-08T17:00:00	1	Precipitación	0
1924	7	Sololá	701	Sololá	2	El tablón	11	Noviembre	2023-11-13T00:00:00	2024-11-08T17:00:00	8	Radiación solar	31
1925	7	Sololá	701	Sololá	2	El tablón	11	Noviembre	2023-11-13T00:00:00	2024-11-08T18:00:00	2	Temperatura media	15.7
1926	7	Sololá	701	Sololá	2	El tablón	11	Noviembre	2023-11-13T00:00:00	2024-11-08T18:00:00	4	Temperatura máxima	16.2
1927	7	Sololá	701	Sololá	2	El tablón	11	Noviembre	2023-11-13T00:00:00	2024-11-08T18:00:00	3	Temperatura mínima	15.7
1928	7	Sololá	701	Sololá	2	El tablón	11	Noviembre	2023-11-13T00:00:00	2024-11-08T18:00:00	5	Humedad	86
1929	7	Sololá	701	Sololá	2	El tablón	11	Noviembre	2023-11-13T00:00:00	2024-11-08T18:00:00	6	Velocidad del viento	4.8
1930	7	Sololá	701	Sololá	2	El tablón	11	Noviembre	2023-11-13T00:00:00	2024-11-08T18:00:00	7	Dirección del viento	4.83
1931	7	Sololá	701	Sololá	2	El tablón	11	Noviembre	2023-11-13T00:00:00	2024-11-08T18:00:00	1	Precipitación	0
1932	7	Sololá	701	Sololá	2	El tablón	11	Noviembre	2023-11-13T00:00:00	2024-11-08T18:00:00	8	Radiación solar	8
1933	7	Sololá	701	Sololá	2	El tablón	11	Noviembre	2023-11-13T00:00:00	2024-11-08T19:00:00	2	Temperatura media	15.1
1934	7	Sololá	701	Sololá	2	El tablón	11	Noviembre	2023-11-13T00:00:00	2024-11-08T19:00:00	4	Temperatura máxima	15.7
1935	7	Sololá	701	Sololá	2	El tablón	11	Noviembre	2023-11-13T00:00:00	2024-11-08T19:00:00	3	Temperatura mínima	15.1
1936	7	Sololá	701	Sololá	2	El tablón	11	Noviembre	2023-11-13T00:00:00	2024-11-08T19:00:00	5	Humedad	87
1937	7	Sololá	701	Sololá	2	El tablón	11	Noviembre	2023-11-13T00:00:00	2024-11-08T19:00:00	6	Velocidad del viento	8
1938	7	Sololá	701	Sololá	2	El tablón	11	Noviembre	2023-11-13T00:00:00	2024-11-08T19:00:00	7	Dirección del viento	8.05
1939	7	Sololá	701	Sololá	2	El tablón	11	Noviembre	2023-11-13T00:00:00	2024-11-08T19:00:00	1	Precipitación	0
1940	7	Sololá	701	Sololá	2	El tablón	11	Noviembre	2023-11-13T00:00:00	2024-11-08T19:00:00	8	Radiación solar	0
1941	7	Sololá	701	Sololá	2	El tablón	11	Noviembre	2023-11-13T00:00:00	2024-11-08T20:00:00	2	Temperatura media	14.9
1942	7	Sololá	701	Sololá	2	El tablón	11	Noviembre	2023-11-13T00:00:00	2024-11-08T20:00:00	4	Temperatura máxima	15.1
1943	7	Sololá	701	Sololá	2	El tablón	11	Noviembre	2023-11-13T00:00:00	2024-11-08T20:00:00	3	Temperatura mínima	14.9
1944	7	Sololá	701	Sololá	2	El tablón	11	Noviembre	2023-11-13T00:00:00	2024-11-08T20:00:00	5	Humedad	87
1945	7	Sololá	701	Sololá	2	El tablón	11	Noviembre	2023-11-13T00:00:00	2024-11-08T20:00:00	6	Velocidad del viento	12.9
1946	7	Sololá	701	Sololá	2	El tablón	11	Noviembre	2023-11-13T00:00:00	2024-11-08T20:00:00	7	Dirección del viento	12.87
1947	7	Sololá	701	Sololá	2	El tablón	11	Noviembre	2023-11-13T00:00:00	2024-11-08T20:00:00	1	Precipitación	0
1948	7	Sololá	701	Sololá	2	El tablón	11	Noviembre	2023-11-13T00:00:00	2024-11-08T20:00:00	8	Radiación solar	0
1949	7	Sololá	701	Sololá	2	El tablón	11	Noviembre	2023-11-13T00:00:00	2024-11-08T21:00:00	2	Temperatura media	14.7
1950	7	Sololá	701	Sololá	2	El tablón	11	Noviembre	2023-11-13T00:00:00	2024-11-08T21:00:00	4	Temperatura máxima	14.9
1951	7	Sololá	701	Sololá	2	El tablón	11	Noviembre	2023-11-13T00:00:00	2024-11-08T21:00:00	3	Temperatura mínima	14.7
1952	7	Sololá	701	Sololá	2	El tablón	11	Noviembre	2023-11-13T00:00:00	2024-11-08T21:00:00	5	Humedad	88
1953	7	Sololá	701	Sololá	2	El tablón	11	Noviembre	2023-11-13T00:00:00	2024-11-08T21:00:00	6	Velocidad del viento	8
1954	7	Sololá	701	Sololá	2	El tablón	11	Noviembre	2023-11-13T00:00:00	2024-11-08T21:00:00	7	Dirección del viento	8.05
1955	7	Sololá	701	Sololá	2	El tablón	11	Noviembre	2023-11-13T00:00:00	2024-11-08T21:00:00	1	Precipitación	0
1956	7	Sololá	701	Sololá	2	El tablón	11	Noviembre	2023-11-13T00:00:00	2024-11-08T21:00:00	8	Radiación solar	0
1957	7	Sololá	701	Sololá	2	El tablón	11	Noviembre	2023-11-13T00:00:00	2024-11-08T22:00:00	2	Temperatura media	14.3
1958	7	Sololá	701	Sololá	2	El tablón	11	Noviembre	2023-11-13T00:00:00	2024-11-08T22:00:00	4	Temperatura máxima	14.7
1959	7	Sololá	701	Sololá	2	El tablón	11	Noviembre	2023-11-13T00:00:00	2024-11-08T22:00:00	3	Temperatura mínima	14.3
1960	7	Sololá	701	Sololá	2	El tablón	11	Noviembre	2023-11-13T00:00:00	2024-11-08T22:00:00	5	Humedad	89
1961	7	Sololá	701	Sololá	2	El tablón	11	Noviembre	2023-11-13T00:00:00	2024-11-08T22:00:00	6	Velocidad del viento	8
1962	7	Sololá	701	Sololá	2	El tablón	11	Noviembre	2023-11-13T00:00:00	2024-11-08T22:00:00	7	Dirección del viento	8.05
1963	7	Sololá	701	Sololá	2	El tablón	11	Noviembre	2023-11-13T00:00:00	2024-11-08T22:00:00	1	Precipitación	0
1964	7	Sololá	701	Sololá	2	El tablón	11	Noviembre	2023-11-13T00:00:00	2024-11-08T22:00:00	8	Radiación solar	0
1965	7	Sololá	701	Sololá	2	El tablón	11	Noviembre	2023-11-13T00:00:00	2024-11-08T23:00:00	2	Temperatura media	14.1
1966	7	Sololá	701	Sololá	2	El tablón	11	Noviembre	2023-11-13T00:00:00	2024-11-08T23:00:00	4	Temperatura máxima	14.3
1967	7	Sololá	701	Sololá	2	El tablón	11	Noviembre	2023-11-13T00:00:00	2024-11-08T23:00:00	3	Temperatura mínima	13.9
1968	7	Sololá	701	Sololá	2	El tablón	11	Noviembre	2023-11-13T00:00:00	2024-11-08T23:00:00	5	Humedad	88
1969	7	Sololá	701	Sololá	2	El tablón	11	Noviembre	2023-11-13T00:00:00	2024-11-08T23:00:00	6	Velocidad del viento	9.7
1970	7	Sololá	701	Sololá	2	El tablón	11	Noviembre	2023-11-13T00:00:00	2024-11-08T23:00:00	7	Dirección del viento	9.66
1971	7	Sololá	701	Sololá	2	El tablón	11	Noviembre	2023-11-13T00:00:00	2024-11-08T23:00:00	1	Precipitación	0
1972	7	Sololá	701	Sololá	2	El tablón	11	Noviembre	2023-11-13T00:00:00	2024-11-08T23:00:00	8	Radiación solar	0
1973	7	Sololá	701	Sololá	2	El tablón	11	Noviembre	2023-11-14T00:00:00	2024-11-08T00:00:00	2	Temperatura media	14
1974	7	Sololá	701	Sololá	2	El tablón	11	Noviembre	2023-11-14T00:00:00	2024-11-08T00:00:00	4	Temperatura máxima	14.2
1975	7	Sololá	701	Sololá	2	El tablón	11	Noviembre	2023-11-14T00:00:00	2024-11-08T00:00:00	3	Temperatura mínima	14
1976	7	Sololá	701	Sololá	2	El tablón	11	Noviembre	2023-11-14T00:00:00	2024-11-08T00:00:00	5	Humedad	88
1977	7	Sololá	701	Sololá	2	El tablón	11	Noviembre	2023-11-14T00:00:00	2024-11-08T00:00:00	6	Velocidad del viento	4.8
1978	7	Sololá	701	Sololá	2	El tablón	11	Noviembre	2023-11-14T00:00:00	2024-11-08T00:00:00	7	Dirección del viento	4.83
1979	7	Sololá	701	Sololá	2	El tablón	11	Noviembre	2023-11-14T00:00:00	2024-11-08T00:00:00	1	Precipitación	0
1980	7	Sololá	701	Sololá	2	El tablón	11	Noviembre	2023-11-14T00:00:00	2024-11-08T00:00:00	8	Radiación solar	0
1981	7	Sololá	701	Sololá	2	El tablón	11	Noviembre	2023-11-14T00:00:00	2024-11-08T01:00:00	2	Temperatura media	13.7
1982	7	Sololá	701	Sololá	2	El tablón	11	Noviembre	2023-11-14T00:00:00	2024-11-08T01:00:00	4	Temperatura máxima	14
1983	7	Sololá	701	Sololá	2	El tablón	11	Noviembre	2023-11-14T00:00:00	2024-11-08T01:00:00	3	Temperatura mínima	13.7
1984	7	Sololá	701	Sololá	2	El tablón	11	Noviembre	2023-11-14T00:00:00	2024-11-08T01:00:00	5	Humedad	89
1985	7	Sololá	701	Sololá	2	El tablón	11	Noviembre	2023-11-14T00:00:00	2024-11-08T01:00:00	6	Velocidad del viento	8
1986	7	Sololá	701	Sololá	2	El tablón	11	Noviembre	2023-11-14T00:00:00	2024-11-08T01:00:00	7	Dirección del viento	8.05
1987	7	Sololá	701	Sololá	2	El tablón	11	Noviembre	2023-11-14T00:00:00	2024-11-08T01:00:00	1	Precipitación	0
1988	7	Sololá	701	Sololá	2	El tablón	11	Noviembre	2023-11-14T00:00:00	2024-11-08T01:00:00	8	Radiación solar	0
1989	7	Sololá	701	Sololá	2	El tablón	11	Noviembre	2023-11-14T00:00:00	2024-11-08T02:00:00	2	Temperatura media	13.6
1990	7	Sololá	701	Sololá	2	El tablón	11	Noviembre	2023-11-14T00:00:00	2024-11-08T02:00:00	4	Temperatura máxima	13.8
1991	7	Sololá	701	Sololá	2	El tablón	11	Noviembre	2023-11-14T00:00:00	2024-11-08T02:00:00	3	Temperatura mínima	13.6
1992	7	Sololá	701	Sololá	2	El tablón	11	Noviembre	2023-11-14T00:00:00	2024-11-08T02:00:00	5	Humedad	88
1993	7	Sololá	701	Sololá	2	El tablón	11	Noviembre	2023-11-14T00:00:00	2024-11-08T02:00:00	6	Velocidad del viento	11.3
1994	7	Sololá	701	Sololá	2	El tablón	11	Noviembre	2023-11-14T00:00:00	2024-11-08T02:00:00	7	Dirección del viento	11.27
1995	7	Sololá	701	Sololá	2	El tablón	11	Noviembre	2023-11-14T00:00:00	2024-11-08T02:00:00	1	Precipitación	0
1996	7	Sololá	701	Sololá	2	El tablón	11	Noviembre	2023-11-14T00:00:00	2024-11-08T02:00:00	8	Radiación solar	0
1997	7	Sololá	701	Sololá	2	El tablón	11	Noviembre	2023-11-14T00:00:00	2024-11-08T03:00:00	2	Temperatura media	13.6
1998	7	Sololá	701	Sololá	2	El tablón	11	Noviembre	2023-11-14T00:00:00	2024-11-08T03:00:00	4	Temperatura máxima	13.6
1999	7	Sololá	701	Sololá	2	El tablón	11	Noviembre	2023-11-14T00:00:00	2024-11-08T03:00:00	3	Temperatura mínima	13.4
2000	7	Sololá	701	Sololá	2	El tablón	11	Noviembre	2023-11-14T00:00:00	2024-11-08T03:00:00	5	Humedad	89
2001	7	Sololá	701	Sololá	2	El tablón	11	Noviembre	2023-11-14T00:00:00	2024-11-08T03:00:00	6	Velocidad del viento	9.7
2002	7	Sololá	701	Sololá	2	El tablón	11	Noviembre	2023-11-14T00:00:00	2024-11-08T03:00:00	7	Dirección del viento	9.66
2003	7	Sololá	701	Sololá	2	El tablón	11	Noviembre	2023-11-14T00:00:00	2024-11-08T03:00:00	1	Precipitación	0
2004	7	Sololá	701	Sololá	2	El tablón	11	Noviembre	2023-11-14T00:00:00	2024-11-08T03:00:00	8	Radiación solar	0
2005	7	Sololá	701	Sololá	2	El tablón	11	Noviembre	2023-11-14T00:00:00	2024-11-08T04:00:00	2	Temperatura media	13.6
2006	7	Sololá	701	Sololá	2	El tablón	11	Noviembre	2023-11-14T00:00:00	2024-11-08T04:00:00	4	Temperatura máxima	13.6
2007	7	Sololá	701	Sololá	2	El tablón	11	Noviembre	2023-11-14T00:00:00	2024-11-08T04:00:00	3	Temperatura mínima	13.4
2008	7	Sololá	701	Sololá	2	El tablón	11	Noviembre	2023-11-14T00:00:00	2024-11-08T04:00:00	5	Humedad	89
2009	7	Sololá	701	Sololá	2	El tablón	11	Noviembre	2023-11-14T00:00:00	2024-11-08T04:00:00	6	Velocidad del viento	9.7
2010	7	Sololá	701	Sololá	2	El tablón	11	Noviembre	2023-11-14T00:00:00	2024-11-08T04:00:00	7	Dirección del viento	9.66
2011	7	Sololá	701	Sololá	2	El tablón	11	Noviembre	2023-11-14T00:00:00	2024-11-08T04:00:00	1	Precipitación	0
2012	7	Sololá	701	Sololá	2	El tablón	11	Noviembre	2023-11-14T00:00:00	2024-11-08T04:00:00	8	Radiación solar	0
2013	7	Sololá	701	Sololá	2	El tablón	11	Noviembre	2023-11-14T00:00:00	2024-11-08T05:00:00	2	Temperatura media	13.9
2014	7	Sololá	701	Sololá	2	El tablón	11	Noviembre	2023-11-14T00:00:00	2024-11-08T05:00:00	4	Temperatura máxima	14
2015	7	Sololá	701	Sololá	2	El tablón	11	Noviembre	2023-11-14T00:00:00	2024-11-08T05:00:00	3	Temperatura mínima	13.6
2016	7	Sololá	701	Sololá	2	El tablón	11	Noviembre	2023-11-14T00:00:00	2024-11-08T05:00:00	5	Humedad	88
2017	7	Sololá	701	Sololá	2	El tablón	11	Noviembre	2023-11-14T00:00:00	2024-11-08T05:00:00	6	Velocidad del viento	11.3
2018	7	Sololá	701	Sololá	2	El tablón	11	Noviembre	2023-11-14T00:00:00	2024-11-08T05:00:00	7	Dirección del viento	11.27
2019	7	Sololá	701	Sololá	2	El tablón	11	Noviembre	2023-11-14T00:00:00	2024-11-08T05:00:00	1	Precipitación	0
2020	7	Sololá	701	Sololá	2	El tablón	11	Noviembre	2023-11-14T00:00:00	2024-11-08T05:00:00	8	Radiación solar	0
2021	7	Sololá	701	Sololá	2	El tablón	11	Noviembre	2023-11-14T00:00:00	2024-11-08T06:00:00	2	Temperatura media	14
2022	7	Sololá	701	Sololá	2	El tablón	11	Noviembre	2023-11-14T00:00:00	2024-11-08T06:00:00	4	Temperatura máxima	14.1
2023	7	Sololá	701	Sololá	2	El tablón	11	Noviembre	2023-11-14T00:00:00	2024-11-08T06:00:00	3	Temperatura mínima	13.9
2024	7	Sololá	701	Sololá	2	El tablón	11	Noviembre	2023-11-14T00:00:00	2024-11-08T06:00:00	5	Humedad	87
2025	7	Sololá	701	Sololá	2	El tablón	11	Noviembre	2023-11-14T00:00:00	2024-11-08T06:00:00	6	Velocidad del viento	11.3
2026	7	Sololá	701	Sololá	2	El tablón	11	Noviembre	2023-11-14T00:00:00	2024-11-08T06:00:00	7	Dirección del viento	11.27
2027	7	Sololá	701	Sololá	2	El tablón	11	Noviembre	2023-11-14T00:00:00	2024-11-08T06:00:00	1	Precipitación	0
2028	7	Sololá	701	Sololá	2	El tablón	11	Noviembre	2023-11-14T00:00:00	2024-11-08T06:00:00	8	Radiación solar	0
2029	7	Sololá	701	Sololá	2	El tablón	11	Noviembre	2023-11-14T00:00:00	2024-11-08T07:00:00	2	Temperatura media	14.3
2030	7	Sololá	701	Sololá	2	El tablón	11	Noviembre	2023-11-14T00:00:00	2024-11-08T07:00:00	4	Temperatura máxima	14.4
2031	7	Sololá	701	Sololá	2	El tablón	11	Noviembre	2023-11-14T00:00:00	2024-11-08T07:00:00	3	Temperatura mínima	14
2032	7	Sololá	701	Sololá	2	El tablón	11	Noviembre	2023-11-14T00:00:00	2024-11-08T07:00:00	5	Humedad	87
2033	7	Sololá	701	Sololá	2	El tablón	11	Noviembre	2023-11-14T00:00:00	2024-11-08T07:00:00	6	Velocidad del viento	9.7
2034	7	Sololá	701	Sololá	2	El tablón	11	Noviembre	2023-11-14T00:00:00	2024-11-08T07:00:00	7	Dirección del viento	9.66
2035	7	Sololá	701	Sololá	2	El tablón	11	Noviembre	2023-11-14T00:00:00	2024-11-08T07:00:00	1	Precipitación	0
2036	7	Sololá	701	Sololá	2	El tablón	11	Noviembre	2023-11-14T00:00:00	2024-11-08T07:00:00	8	Radiación solar	19
2037	7	Sololá	701	Sololá	2	El tablón	11	Noviembre	2023-11-14T00:00:00	2024-11-08T08:00:00	2	Temperatura media	16.3
2038	7	Sololá	701	Sololá	2	El tablón	11	Noviembre	2023-11-14T00:00:00	2024-11-08T08:00:00	4	Temperatura máxima	16.3
2039	7	Sololá	701	Sololá	2	El tablón	11	Noviembre	2023-11-14T00:00:00	2024-11-08T08:00:00	3	Temperatura mínima	14.3
2040	7	Sololá	701	Sololá	2	El tablón	11	Noviembre	2023-11-14T00:00:00	2024-11-08T08:00:00	5	Humedad	83
2041	7	Sololá	701	Sololá	2	El tablón	11	Noviembre	2023-11-14T00:00:00	2024-11-08T08:00:00	6	Velocidad del viento	8
2042	7	Sololá	701	Sololá	2	El tablón	11	Noviembre	2023-11-14T00:00:00	2024-11-08T08:00:00	7	Dirección del viento	8.05
2043	7	Sololá	701	Sololá	2	El tablón	11	Noviembre	2023-11-14T00:00:00	2024-11-08T08:00:00	1	Precipitación	0
2044	7	Sololá	701	Sololá	2	El tablón	11	Noviembre	2023-11-14T00:00:00	2024-11-08T08:00:00	8	Radiación solar	201
2045	7	Sololá	701	Sololá	2	El tablón	11	Noviembre	2023-11-14T00:00:00	2024-11-08T09:00:00	2	Temperatura media	16.9
2046	7	Sololá	701	Sololá	2	El tablón	11	Noviembre	2023-11-14T00:00:00	2024-11-08T09:00:00	4	Temperatura máxima	16.9
2047	7	Sololá	701	Sololá	2	El tablón	11	Noviembre	2023-11-14T00:00:00	2024-11-08T09:00:00	3	Temperatura mínima	16.1
2048	7	Sololá	701	Sololá	2	El tablón	11	Noviembre	2023-11-14T00:00:00	2024-11-08T09:00:00	5	Humedad	80
2049	7	Sololá	701	Sololá	2	El tablón	11	Noviembre	2023-11-14T00:00:00	2024-11-08T09:00:00	6	Velocidad del viento	12.9
2050	7	Sololá	701	Sololá	2	El tablón	11	Noviembre	2023-11-14T00:00:00	2024-11-08T09:00:00	7	Dirección del viento	12.87
2051	7	Sololá	701	Sololá	2	El tablón	11	Noviembre	2023-11-14T00:00:00	2024-11-08T09:00:00	1	Precipitación	0
2052	7	Sololá	701	Sololá	2	El tablón	11	Noviembre	2023-11-14T00:00:00	2024-11-08T09:00:00	8	Radiación solar	390
2053	7	Sololá	701	Sololá	2	El tablón	11	Noviembre	2023-11-14T00:00:00	2024-11-08T10:00:00	2	Temperatura media	17.6
2054	7	Sololá	701	Sololá	2	El tablón	11	Noviembre	2023-11-14T00:00:00	2024-11-08T10:00:00	4	Temperatura máxima	17.6
2055	7	Sololá	701	Sololá	2	El tablón	11	Noviembre	2023-11-14T00:00:00	2024-11-08T10:00:00	3	Temperatura mínima	16.9
2056	7	Sololá	701	Sololá	2	El tablón	11	Noviembre	2023-11-14T00:00:00	2024-11-08T10:00:00	5	Humedad	78
2057	7	Sololá	701	Sololá	2	El tablón	11	Noviembre	2023-11-14T00:00:00	2024-11-08T10:00:00	6	Velocidad del viento	8
2058	7	Sololá	701	Sololá	2	El tablón	11	Noviembre	2023-11-14T00:00:00	2024-11-08T10:00:00	7	Dirección del viento	8.05
2059	7	Sololá	701	Sololá	2	El tablón	11	Noviembre	2023-11-14T00:00:00	2024-11-08T10:00:00	1	Precipitación	0
2060	7	Sololá	701	Sololá	2	El tablón	11	Noviembre	2023-11-14T00:00:00	2024-11-08T10:00:00	8	Radiación solar	278
2061	7	Sololá	701	Sololá	2	El tablón	11	Noviembre	2023-11-14T00:00:00	2024-11-08T11:00:00	2	Temperatura media	18.8
2062	7	Sololá	701	Sololá	2	El tablón	11	Noviembre	2023-11-14T00:00:00	2024-11-08T11:00:00	4	Temperatura máxima	19.2
2063	7	Sololá	701	Sololá	2	El tablón	11	Noviembre	2023-11-14T00:00:00	2024-11-08T11:00:00	3	Temperatura mínima	17.4
2064	7	Sololá	701	Sololá	2	El tablón	11	Noviembre	2023-11-14T00:00:00	2024-11-08T11:00:00	5	Humedad	73
2065	7	Sololá	701	Sololá	2	El tablón	11	Noviembre	2023-11-14T00:00:00	2024-11-08T11:00:00	6	Velocidad del viento	9.7
2066	7	Sololá	701	Sololá	2	El tablón	11	Noviembre	2023-11-14T00:00:00	2024-11-08T11:00:00	7	Dirección del viento	9.66
2067	7	Sololá	701	Sololá	2	El tablón	11	Noviembre	2023-11-14T00:00:00	2024-11-08T11:00:00	1	Precipitación	0
2068	7	Sololá	701	Sololá	2	El tablón	11	Noviembre	2023-11-14T00:00:00	2024-11-08T11:00:00	8	Radiación solar	431
2069	7	Sololá	701	Sololá	2	El tablón	11	Noviembre	2023-11-14T00:00:00	2024-11-08T12:00:00	2	Temperatura media	19.6
2070	7	Sololá	701	Sololá	2	El tablón	11	Noviembre	2023-11-14T00:00:00	2024-11-08T12:00:00	4	Temperatura máxima	20.2
2071	7	Sololá	701	Sololá	2	El tablón	11	Noviembre	2023-11-14T00:00:00	2024-11-08T12:00:00	3	Temperatura mínima	18.6
2072	7	Sololá	701	Sololá	2	El tablón	11	Noviembre	2023-11-14T00:00:00	2024-11-08T12:00:00	5	Humedad	73
2073	7	Sololá	701	Sololá	2	El tablón	11	Noviembre	2023-11-14T00:00:00	2024-11-08T12:00:00	6	Velocidad del viento	11.3
2074	7	Sololá	701	Sololá	2	El tablón	11	Noviembre	2023-11-14T00:00:00	2024-11-08T12:00:00	7	Dirección del viento	11.27
2075	7	Sololá	701	Sololá	2	El tablón	11	Noviembre	2023-11-14T00:00:00	2024-11-08T12:00:00	1	Precipitación	0
2076	7	Sololá	701	Sololá	2	El tablón	11	Noviembre	2023-11-14T00:00:00	2024-11-08T12:00:00	8	Radiación solar	664
2077	7	Sololá	701	Sololá	2	El tablón	11	Noviembre	2023-11-14T00:00:00	2024-11-08T13:00:00	2	Temperatura media	18.5
2078	7	Sololá	701	Sololá	2	El tablón	11	Noviembre	2023-11-14T00:00:00	2024-11-08T13:00:00	4	Temperatura máxima	19.6
2079	7	Sololá	701	Sololá	2	El tablón	11	Noviembre	2023-11-14T00:00:00	2024-11-08T13:00:00	3	Temperatura mínima	18.5
2080	7	Sololá	701	Sololá	2	El tablón	11	Noviembre	2023-11-14T00:00:00	2024-11-08T13:00:00	5	Humedad	75
2081	7	Sololá	701	Sololá	2	El tablón	11	Noviembre	2023-11-14T00:00:00	2024-11-08T13:00:00	6	Velocidad del viento	11.3
2082	7	Sololá	701	Sololá	2	El tablón	11	Noviembre	2023-11-14T00:00:00	2024-11-08T13:00:00	7	Dirección del viento	11.27
2083	7	Sololá	701	Sololá	2	El tablón	11	Noviembre	2023-11-14T00:00:00	2024-11-08T13:00:00	1	Precipitación	0
2084	7	Sololá	701	Sololá	2	El tablón	11	Noviembre	2023-11-14T00:00:00	2024-11-08T13:00:00	8	Radiación solar	412
2085	7	Sololá	701	Sololá	2	El tablón	11	Noviembre	2023-11-14T00:00:00	2024-11-08T14:00:00	2	Temperatura media	16.8
2086	7	Sololá	701	Sololá	2	El tablón	11	Noviembre	2023-11-14T00:00:00	2024-11-08T14:00:00	4	Temperatura máxima	18.6
2087	7	Sololá	701	Sololá	2	El tablón	11	Noviembre	2023-11-14T00:00:00	2024-11-08T14:00:00	3	Temperatura mínima	16.8
2088	7	Sololá	701	Sololá	2	El tablón	11	Noviembre	2023-11-14T00:00:00	2024-11-08T14:00:00	5	Humedad	82
2089	7	Sololá	701	Sololá	2	El tablón	11	Noviembre	2023-11-14T00:00:00	2024-11-08T14:00:00	6	Velocidad del viento	9.7
2090	7	Sololá	701	Sololá	2	El tablón	11	Noviembre	2023-11-14T00:00:00	2024-11-08T14:00:00	7	Dirección del viento	9.66
2091	7	Sololá	701	Sololá	2	El tablón	11	Noviembre	2023-11-14T00:00:00	2024-11-08T14:00:00	1	Precipitación	0
2092	7	Sololá	701	Sololá	2	El tablón	11	Noviembre	2023-11-14T00:00:00	2024-11-08T14:00:00	8	Radiación solar	261
2093	7	Sololá	701	Sololá	2	El tablón	11	Noviembre	2023-11-14T00:00:00	2024-11-08T15:00:00	2	Temperatura media	16.7
2094	7	Sololá	701	Sololá	2	El tablón	11	Noviembre	2023-11-14T00:00:00	2024-11-08T15:00:00	4	Temperatura máxima	17.4
2095	7	Sololá	701	Sololá	2	El tablón	11	Noviembre	2023-11-14T00:00:00	2024-11-08T15:00:00	3	Temperatura mínima	16.7
2096	7	Sololá	701	Sololá	2	El tablón	11	Noviembre	2023-11-14T00:00:00	2024-11-08T15:00:00	5	Humedad	84
2097	7	Sololá	701	Sololá	2	El tablón	11	Noviembre	2023-11-14T00:00:00	2024-11-08T15:00:00	6	Velocidad del viento	9.7
2098	7	Sololá	701	Sololá	2	El tablón	11	Noviembre	2023-11-14T00:00:00	2024-11-08T15:00:00	7	Dirección del viento	9.66
2099	7	Sololá	701	Sololá	2	El tablón	11	Noviembre	2023-11-14T00:00:00	2024-11-08T15:00:00	1	Precipitación	0
2100	7	Sololá	701	Sololá	2	El tablón	11	Noviembre	2023-11-14T00:00:00	2024-11-08T15:00:00	8	Radiación solar	167
2101	7	Sololá	701	Sololá	2	El tablón	11	Noviembre	2023-11-14T00:00:00	2024-11-08T16:00:00	2	Temperatura media	16.1
2102	7	Sololá	701	Sololá	2	El tablón	11	Noviembre	2023-11-14T00:00:00	2024-11-08T16:00:00	4	Temperatura máxima	16.7
2103	7	Sololá	701	Sololá	2	El tablón	11	Noviembre	2023-11-14T00:00:00	2024-11-08T16:00:00	3	Temperatura mínima	16.1
2104	7	Sololá	701	Sololá	2	El tablón	11	Noviembre	2023-11-14T00:00:00	2024-11-08T16:00:00	5	Humedad	85
2105	7	Sololá	701	Sololá	2	El tablón	11	Noviembre	2023-11-14T00:00:00	2024-11-08T16:00:00	6	Velocidad del viento	9.7
2106	7	Sololá	701	Sololá	2	El tablón	11	Noviembre	2023-11-14T00:00:00	2024-11-08T16:00:00	7	Dirección del viento	9.66
2107	7	Sololá	701	Sololá	2	El tablón	11	Noviembre	2023-11-14T00:00:00	2024-11-08T16:00:00	1	Precipitación	0
2108	7	Sololá	701	Sololá	2	El tablón	11	Noviembre	2023-11-14T00:00:00	2024-11-08T16:00:00	8	Radiación solar	103
2109	7	Sololá	701	Sololá	2	El tablón	11	Noviembre	2023-11-14T00:00:00	2024-11-08T17:00:00	2	Temperatura media	14.7
2110	7	Sololá	701	Sololá	2	El tablón	11	Noviembre	2023-11-14T00:00:00	2024-11-08T17:00:00	4	Temperatura máxima	16.1
2111	7	Sololá	701	Sololá	2	El tablón	11	Noviembre	2023-11-14T00:00:00	2024-11-08T17:00:00	3	Temperatura mínima	14.7
2112	7	Sololá	701	Sololá	2	El tablón	11	Noviembre	2023-11-14T00:00:00	2024-11-08T17:00:00	5	Humedad	88
2113	7	Sololá	701	Sololá	2	El tablón	11	Noviembre	2023-11-14T00:00:00	2024-11-08T17:00:00	6	Velocidad del viento	11.3
2114	7	Sololá	701	Sololá	2	El tablón	11	Noviembre	2023-11-14T00:00:00	2024-11-08T17:00:00	7	Dirección del viento	11.27
2115	7	Sololá	701	Sololá	2	El tablón	11	Noviembre	2023-11-14T00:00:00	2024-11-08T17:00:00	1	Precipitación	0.2
2116	7	Sololá	701	Sololá	2	El tablón	11	Noviembre	2023-11-14T00:00:00	2024-11-08T17:00:00	8	Radiación solar	43
2117	7	Sololá	701	Sololá	2	El tablón	11	Noviembre	2023-11-14T00:00:00	2024-11-08T18:00:00	2	Temperatura media	14.3
2118	7	Sololá	701	Sololá	2	El tablón	11	Noviembre	2023-11-14T00:00:00	2024-11-08T18:00:00	4	Temperatura máxima	14.7
2119	7	Sololá	701	Sololá	2	El tablón	11	Noviembre	2023-11-14T00:00:00	2024-11-08T18:00:00	3	Temperatura mínima	14.3
2120	7	Sololá	701	Sololá	2	El tablón	11	Noviembre	2023-11-14T00:00:00	2024-11-08T18:00:00	5	Humedad	88
2121	7	Sololá	701	Sololá	2	El tablón	11	Noviembre	2023-11-14T00:00:00	2024-11-08T18:00:00	6	Velocidad del viento	11.3
2122	7	Sololá	701	Sololá	2	El tablón	11	Noviembre	2023-11-14T00:00:00	2024-11-08T18:00:00	7	Dirección del viento	11.27
2123	7	Sololá	701	Sololá	2	El tablón	11	Noviembre	2023-11-14T00:00:00	2024-11-08T18:00:00	1	Precipitación	0
2124	7	Sololá	701	Sololá	2	El tablón	11	Noviembre	2023-11-14T00:00:00	2024-11-08T18:00:00	8	Radiación solar	4
2125	7	Sololá	701	Sololá	2	El tablón	11	Noviembre	2023-11-14T00:00:00	2024-11-08T19:00:00	2	Temperatura media	14.4
2126	7	Sololá	701	Sololá	2	El tablón	11	Noviembre	2023-11-14T00:00:00	2024-11-08T19:00:00	4	Temperatura máxima	14.5
2127	7	Sololá	701	Sololá	2	El tablón	11	Noviembre	2023-11-14T00:00:00	2024-11-08T19:00:00	3	Temperatura mínima	14.3
2128	7	Sololá	701	Sololá	2	El tablón	11	Noviembre	2023-11-14T00:00:00	2024-11-08T19:00:00	5	Humedad	87
2129	7	Sololá	701	Sololá	2	El tablón	11	Noviembre	2023-11-14T00:00:00	2024-11-08T19:00:00	6	Velocidad del viento	12.9
2130	7	Sololá	701	Sololá	2	El tablón	11	Noviembre	2023-11-14T00:00:00	2024-11-08T19:00:00	7	Dirección del viento	12.87
2131	7	Sololá	701	Sololá	2	El tablón	11	Noviembre	2023-11-14T00:00:00	2024-11-08T19:00:00	1	Precipitación	0.2
2132	7	Sololá	701	Sololá	2	El tablón	11	Noviembre	2023-11-14T00:00:00	2024-11-08T19:00:00	8	Radiación solar	0
2133	7	Sololá	701	Sololá	2	El tablón	11	Noviembre	2023-11-14T00:00:00	2024-11-08T20:00:00	2	Temperatura media	14.8
2134	7	Sololá	701	Sololá	2	El tablón	11	Noviembre	2023-11-14T00:00:00	2024-11-08T20:00:00	4	Temperatura máxima	14.8
2135	7	Sololá	701	Sololá	2	El tablón	11	Noviembre	2023-11-14T00:00:00	2024-11-08T20:00:00	3	Temperatura mínima	14.4
2136	7	Sololá	701	Sololá	2	El tablón	11	Noviembre	2023-11-14T00:00:00	2024-11-08T20:00:00	5	Humedad	85
2137	7	Sololá	701	Sololá	2	El tablón	11	Noviembre	2023-11-14T00:00:00	2024-11-08T20:00:00	6	Velocidad del viento	11.3
2138	7	Sololá	701	Sololá	2	El tablón	11	Noviembre	2023-11-14T00:00:00	2024-11-08T20:00:00	7	Dirección del viento	11.27
2139	7	Sololá	701	Sololá	2	El tablón	11	Noviembre	2023-11-14T00:00:00	2024-11-08T20:00:00	1	Precipitación	0
2140	7	Sololá	701	Sololá	2	El tablón	11	Noviembre	2023-11-14T00:00:00	2024-11-08T20:00:00	8	Radiación solar	0
2141	7	Sololá	701	Sololá	2	El tablón	11	Noviembre	2023-11-14T00:00:00	2024-11-08T21:00:00	2	Temperatura media	14.6
2142	7	Sololá	701	Sololá	2	El tablón	11	Noviembre	2023-11-14T00:00:00	2024-11-08T21:00:00	4	Temperatura máxima	14.9
2143	7	Sololá	701	Sololá	2	El tablón	11	Noviembre	2023-11-14T00:00:00	2024-11-08T21:00:00	3	Temperatura mínima	14.6
2144	7	Sololá	701	Sololá	2	El tablón	11	Noviembre	2023-11-14T00:00:00	2024-11-08T21:00:00	5	Humedad	86
2145	7	Sololá	701	Sololá	2	El tablón	11	Noviembre	2023-11-14T00:00:00	2024-11-08T21:00:00	6	Velocidad del viento	12.9
2146	7	Sololá	701	Sololá	2	El tablón	11	Noviembre	2023-11-14T00:00:00	2024-11-08T21:00:00	7	Dirección del viento	12.87
2147	7	Sololá	701	Sololá	2	El tablón	11	Noviembre	2023-11-14T00:00:00	2024-11-08T21:00:00	1	Precipitación	0
2148	7	Sololá	701	Sololá	2	El tablón	11	Noviembre	2023-11-14T00:00:00	2024-11-08T21:00:00	8	Radiación solar	0
2149	7	Sololá	701	Sololá	2	El tablón	11	Noviembre	2023-11-14T00:00:00	2024-11-08T22:00:00	2	Temperatura media	14.1
2150	7	Sololá	701	Sololá	2	El tablón	11	Noviembre	2023-11-14T00:00:00	2024-11-08T22:00:00	4	Temperatura máxima	14.6
2151	7	Sololá	701	Sololá	2	El tablón	11	Noviembre	2023-11-14T00:00:00	2024-11-08T22:00:00	3	Temperatura mínima	14.1
2152	7	Sololá	701	Sololá	2	El tablón	11	Noviembre	2023-11-14T00:00:00	2024-11-08T22:00:00	5	Humedad	86
2153	7	Sololá	701	Sololá	2	El tablón	11	Noviembre	2023-11-14T00:00:00	2024-11-08T22:00:00	6	Velocidad del viento	12.9
2154	7	Sololá	701	Sololá	2	El tablón	11	Noviembre	2023-11-14T00:00:00	2024-11-08T22:00:00	7	Dirección del viento	12.87
2155	7	Sololá	701	Sololá	2	El tablón	11	Noviembre	2023-11-14T00:00:00	2024-11-08T22:00:00	1	Precipitación	0
2156	7	Sololá	701	Sololá	2	El tablón	11	Noviembre	2023-11-14T00:00:00	2024-11-08T22:00:00	8	Radiación solar	0
2157	7	Sololá	701	Sololá	2	El tablón	11	Noviembre	2023-11-14T00:00:00	2024-11-08T23:00:00	2	Temperatura media	14.3
2158	7	Sololá	701	Sololá	2	El tablón	11	Noviembre	2023-11-14T00:00:00	2024-11-08T23:00:00	4	Temperatura máxima	14.4
2159	7	Sololá	701	Sololá	2	El tablón	11	Noviembre	2023-11-14T00:00:00	2024-11-08T23:00:00	3	Temperatura mínima	14.1
2160	7	Sololá	701	Sololá	2	El tablón	11	Noviembre	2023-11-14T00:00:00	2024-11-08T23:00:00	5	Humedad	84
2161	7	Sololá	701	Sololá	2	El tablón	11	Noviembre	2023-11-14T00:00:00	2024-11-08T23:00:00	6	Velocidad del viento	6.4
2162	7	Sololá	701	Sololá	2	El tablón	11	Noviembre	2023-11-14T00:00:00	2024-11-08T23:00:00	7	Dirección del viento	6.44
2163	7	Sololá	701	Sololá	2	El tablón	11	Noviembre	2023-11-14T00:00:00	2024-11-08T23:00:00	1	Precipitación	0
2164	7	Sololá	701	Sololá	2	El tablón	11	Noviembre	2023-11-14T00:00:00	2024-11-08T23:00:00	8	Radiación solar	0
2165	7	Sololá	701	Sololá	2	El tablón	11	Noviembre	2023-11-15T00:00:00	2024-11-08T00:00:00	2	Temperatura media	14.2
2166	7	Sololá	701	Sololá	2	El tablón	11	Noviembre	2023-11-15T00:00:00	2024-11-08T00:00:00	4	Temperatura máxima	14.4
2167	7	Sololá	701	Sololá	2	El tablón	11	Noviembre	2023-11-15T00:00:00	2024-11-08T00:00:00	3	Temperatura mínima	14.2
2168	7	Sololá	701	Sololá	2	El tablón	11	Noviembre	2023-11-15T00:00:00	2024-11-08T00:00:00	5	Humedad	85
2169	7	Sololá	701	Sololá	2	El tablón	11	Noviembre	2023-11-15T00:00:00	2024-11-08T00:00:00	6	Velocidad del viento	4.8
2170	7	Sololá	701	Sololá	2	El tablón	11	Noviembre	2023-11-15T00:00:00	2024-11-08T00:00:00	7	Dirección del viento	4.83
2171	7	Sololá	701	Sololá	2	El tablón	11	Noviembre	2023-11-15T00:00:00	2024-11-08T00:00:00	1	Precipitación	0
2172	7	Sololá	701	Sololá	2	El tablón	11	Noviembre	2023-11-15T00:00:00	2024-11-08T00:00:00	8	Radiación solar	0
2173	7	Sololá	701	Sololá	2	El tablón	11	Noviembre	2023-11-15T00:00:00	2024-11-08T01:00:00	2	Temperatura media	14.3
2174	7	Sololá	701	Sololá	2	El tablón	11	Noviembre	2023-11-15T00:00:00	2024-11-08T01:00:00	4	Temperatura máxima	14.4
2175	7	Sololá	701	Sololá	2	El tablón	11	Noviembre	2023-11-15T00:00:00	2024-11-08T01:00:00	3	Temperatura mínima	14.2
2176	7	Sololá	701	Sololá	2	El tablón	11	Noviembre	2023-11-15T00:00:00	2024-11-08T01:00:00	5	Humedad	85
2177	7	Sololá	701	Sololá	2	El tablón	11	Noviembre	2023-11-15T00:00:00	2024-11-08T01:00:00	6	Velocidad del viento	4.8
2178	7	Sololá	701	Sololá	2	El tablón	11	Noviembre	2023-11-15T00:00:00	2024-11-08T01:00:00	7	Dirección del viento	4.83
2179	7	Sololá	701	Sololá	2	El tablón	11	Noviembre	2023-11-15T00:00:00	2024-11-08T01:00:00	1	Precipitación	0
2180	7	Sololá	701	Sololá	2	El tablón	11	Noviembre	2023-11-15T00:00:00	2024-11-08T01:00:00	8	Radiación solar	0
2181	7	Sololá	701	Sololá	2	El tablón	11	Noviembre	2023-11-15T00:00:00	2024-11-08T02:00:00	2	Temperatura media	14.4
2182	7	Sololá	701	Sololá	2	El tablón	11	Noviembre	2023-11-15T00:00:00	2024-11-08T02:00:00	4	Temperatura máxima	14.5
2183	7	Sololá	701	Sololá	2	El tablón	11	Noviembre	2023-11-15T00:00:00	2024-11-08T02:00:00	3	Temperatura mínima	14.3
2184	7	Sololá	701	Sololá	2	El tablón	11	Noviembre	2023-11-15T00:00:00	2024-11-08T02:00:00	5	Humedad	85
2185	7	Sololá	701	Sololá	2	El tablón	11	Noviembre	2023-11-15T00:00:00	2024-11-08T02:00:00	6	Velocidad del viento	3.2
2186	7	Sololá	701	Sololá	2	El tablón	11	Noviembre	2023-11-15T00:00:00	2024-11-08T02:00:00	7	Dirección del viento	3.22
2187	7	Sololá	701	Sololá	2	El tablón	11	Noviembre	2023-11-15T00:00:00	2024-11-08T02:00:00	1	Precipitación	0
2188	7	Sololá	701	Sololá	2	El tablón	11	Noviembre	2023-11-15T00:00:00	2024-11-08T02:00:00	8	Radiación solar	0
2189	7	Sololá	701	Sololá	2	El tablón	11	Noviembre	2023-11-15T00:00:00	2024-11-08T03:00:00	2	Temperatura media	14.2
2190	7	Sololá	701	Sololá	2	El tablón	11	Noviembre	2023-11-15T00:00:00	2024-11-08T03:00:00	4	Temperatura máxima	14.4
2191	7	Sololá	701	Sololá	2	El tablón	11	Noviembre	2023-11-15T00:00:00	2024-11-08T03:00:00	3	Temperatura mínima	14.1
2192	7	Sololá	701	Sololá	2	El tablón	11	Noviembre	2023-11-15T00:00:00	2024-11-08T03:00:00	5	Humedad	86
2193	7	Sololá	701	Sololá	2	El tablón	11	Noviembre	2023-11-15T00:00:00	2024-11-08T03:00:00	6	Velocidad del viento	6.4
2194	7	Sololá	701	Sololá	2	El tablón	11	Noviembre	2023-11-15T00:00:00	2024-11-08T03:00:00	7	Dirección del viento	6.44
2195	7	Sololá	701	Sololá	2	El tablón	11	Noviembre	2023-11-15T00:00:00	2024-11-08T03:00:00	1	Precipitación	0
2196	7	Sololá	701	Sololá	2	El tablón	11	Noviembre	2023-11-15T00:00:00	2024-11-08T03:00:00	8	Radiación solar	0
2197	7	Sololá	701	Sololá	2	El tablón	11	Noviembre	2023-11-15T00:00:00	2024-11-08T04:00:00	2	Temperatura media	14.2
2198	7	Sololá	701	Sololá	2	El tablón	11	Noviembre	2023-11-15T00:00:00	2024-11-08T04:00:00	4	Temperatura máxima	14.2
2199	7	Sololá	701	Sololá	2	El tablón	11	Noviembre	2023-11-15T00:00:00	2024-11-08T04:00:00	3	Temperatura mínima	14.1
2200	7	Sololá	701	Sololá	2	El tablón	11	Noviembre	2023-11-15T00:00:00	2024-11-08T04:00:00	5	Humedad	85
2201	7	Sololá	701	Sololá	2	El tablón	11	Noviembre	2023-11-15T00:00:00	2024-11-08T04:00:00	6	Velocidad del viento	6.4
2202	7	Sololá	701	Sololá	2	El tablón	11	Noviembre	2023-11-15T00:00:00	2024-11-08T04:00:00	7	Dirección del viento	6.44
2203	7	Sololá	701	Sololá	2	El tablón	11	Noviembre	2023-11-15T00:00:00	2024-11-08T04:00:00	1	Precipitación	0
2204	7	Sololá	701	Sololá	2	El tablón	11	Noviembre	2023-11-15T00:00:00	2024-11-08T04:00:00	8	Radiación solar	0
2205	7	Sololá	701	Sololá	2	El tablón	11	Noviembre	2023-11-15T00:00:00	2024-11-08T05:00:00	2	Temperatura media	14
2206	7	Sololá	701	Sololá	2	El tablón	11	Noviembre	2023-11-15T00:00:00	2024-11-08T05:00:00	4	Temperatura máxima	14.3
2207	7	Sololá	701	Sololá	2	El tablón	11	Noviembre	2023-11-15T00:00:00	2024-11-08T05:00:00	3	Temperatura mínima	14
2208	7	Sololá	701	Sololá	2	El tablón	11	Noviembre	2023-11-15T00:00:00	2024-11-08T05:00:00	5	Humedad	86
2209	7	Sololá	701	Sololá	2	El tablón	11	Noviembre	2023-11-15T00:00:00	2024-11-08T05:00:00	6	Velocidad del viento	6.4
2210	7	Sololá	701	Sololá	2	El tablón	11	Noviembre	2023-11-15T00:00:00	2024-11-08T05:00:00	7	Dirección del viento	6.44
2211	7	Sololá	701	Sololá	2	El tablón	11	Noviembre	2023-11-15T00:00:00	2024-11-08T05:00:00	1	Precipitación	0
2212	7	Sololá	701	Sololá	2	El tablón	11	Noviembre	2023-11-15T00:00:00	2024-11-08T05:00:00	8	Radiación solar	0
2213	7	Sololá	701	Sololá	2	El tablón	11	Noviembre	2023-11-15T00:00:00	2024-11-08T06:00:00	2	Temperatura media	14.1
2214	7	Sololá	701	Sololá	2	El tablón	11	Noviembre	2023-11-15T00:00:00	2024-11-08T06:00:00	4	Temperatura máxima	14.2
2215	7	Sololá	701	Sololá	2	El tablón	11	Noviembre	2023-11-15T00:00:00	2024-11-08T06:00:00	3	Temperatura mínima	13.9
2216	7	Sololá	701	Sololá	2	El tablón	11	Noviembre	2023-11-15T00:00:00	2024-11-08T06:00:00	5	Humedad	85
2217	7	Sololá	701	Sololá	2	El tablón	11	Noviembre	2023-11-15T00:00:00	2024-11-08T06:00:00	6	Velocidad del viento	4.8
2218	7	Sololá	701	Sololá	2	El tablón	11	Noviembre	2023-11-15T00:00:00	2024-11-08T06:00:00	7	Dirección del viento	4.83
2219	7	Sololá	701	Sololá	2	El tablón	11	Noviembre	2023-11-15T00:00:00	2024-11-08T06:00:00	1	Precipitación	0
2220	7	Sololá	701	Sololá	2	El tablón	11	Noviembre	2023-11-15T00:00:00	2024-11-08T06:00:00	8	Radiación solar	0
2221	7	Sololá	701	Sololá	2	El tablón	11	Noviembre	2023-11-15T00:00:00	2024-11-08T07:00:00	2	Temperatura media	14.7
2222	7	Sololá	701	Sololá	2	El tablón	11	Noviembre	2023-11-15T00:00:00	2024-11-08T07:00:00	4	Temperatura máxima	14.7
2223	7	Sololá	701	Sololá	2	El tablón	11	Noviembre	2023-11-15T00:00:00	2024-11-08T07:00:00	3	Temperatura mínima	13.9
2224	7	Sololá	701	Sololá	2	El tablón	11	Noviembre	2023-11-15T00:00:00	2024-11-08T07:00:00	5	Humedad	83
2225	7	Sololá	701	Sololá	2	El tablón	11	Noviembre	2023-11-15T00:00:00	2024-11-08T07:00:00	6	Velocidad del viento	9.7
2226	7	Sololá	701	Sololá	2	El tablón	11	Noviembre	2023-11-15T00:00:00	2024-11-08T07:00:00	7	Dirección del viento	9.66
2227	7	Sololá	701	Sololá	2	El tablón	11	Noviembre	2023-11-15T00:00:00	2024-11-08T07:00:00	1	Precipitación	0
2228	7	Sololá	701	Sololá	2	El tablón	11	Noviembre	2023-11-15T00:00:00	2024-11-08T07:00:00	8	Radiación solar	41
2229	7	Sololá	701	Sololá	2	El tablón	11	Noviembre	2023-11-15T00:00:00	2024-11-08T08:00:00	2	Temperatura media	15.7
2230	7	Sololá	701	Sololá	2	El tablón	11	Noviembre	2023-11-15T00:00:00	2024-11-08T08:00:00	4	Temperatura máxima	15.7
2231	7	Sololá	701	Sololá	2	El tablón	11	Noviembre	2023-11-15T00:00:00	2024-11-08T08:00:00	3	Temperatura mínima	14.7
2232	7	Sololá	701	Sololá	2	El tablón	11	Noviembre	2023-11-15T00:00:00	2024-11-08T08:00:00	5	Humedad	80
2233	7	Sololá	701	Sololá	2	El tablón	11	Noviembre	2023-11-15T00:00:00	2024-11-08T08:00:00	6	Velocidad del viento	12.9
2234	7	Sololá	701	Sololá	2	El tablón	11	Noviembre	2023-11-15T00:00:00	2024-11-08T08:00:00	7	Dirección del viento	12.87
2235	7	Sololá	701	Sololá	2	El tablón	11	Noviembre	2023-11-15T00:00:00	2024-11-08T08:00:00	1	Precipitación	0
2236	7	Sololá	701	Sololá	2	El tablón	11	Noviembre	2023-11-15T00:00:00	2024-11-08T08:00:00	8	Radiación solar	243
2237	7	Sololá	701	Sololá	2	El tablón	11	Noviembre	2023-11-15T00:00:00	2024-11-08T09:00:00	2	Temperatura media	16.9
2238	7	Sololá	701	Sololá	2	El tablón	11	Noviembre	2023-11-15T00:00:00	2024-11-08T09:00:00	4	Temperatura máxima	16.9
2239	7	Sololá	701	Sololá	2	El tablón	11	Noviembre	2023-11-15T00:00:00	2024-11-08T09:00:00	3	Temperatura mínima	15.7
2240	7	Sololá	701	Sololá	2	El tablón	11	Noviembre	2023-11-15T00:00:00	2024-11-08T09:00:00	5	Humedad	78
2241	7	Sololá	701	Sololá	2	El tablón	11	Noviembre	2023-11-15T00:00:00	2024-11-08T09:00:00	6	Velocidad del viento	14.5
2242	7	Sololá	701	Sololá	2	El tablón	11	Noviembre	2023-11-15T00:00:00	2024-11-08T09:00:00	7	Dirección del viento	14.48
2243	7	Sololá	701	Sololá	2	El tablón	11	Noviembre	2023-11-15T00:00:00	2024-11-08T09:00:00	1	Precipitación	0
2244	7	Sololá	701	Sololá	2	El tablón	11	Noviembre	2023-11-15T00:00:00	2024-11-08T09:00:00	8	Radiación solar	429
2245	7	Sololá	701	Sololá	2	El tablón	11	Noviembre	2023-11-15T00:00:00	2024-11-08T10:00:00	2	Temperatura media	17.1
2246	7	Sololá	701	Sololá	2	El tablón	11	Noviembre	2023-11-15T00:00:00	2024-11-08T10:00:00	4	Temperatura máxima	17.3
2247	7	Sololá	701	Sololá	2	El tablón	11	Noviembre	2023-11-15T00:00:00	2024-11-08T10:00:00	3	Temperatura mínima	16.8
2248	7	Sololá	701	Sololá	2	El tablón	11	Noviembre	2023-11-15T00:00:00	2024-11-08T10:00:00	5	Humedad	78
2249	7	Sololá	701	Sololá	2	El tablón	11	Noviembre	2023-11-15T00:00:00	2024-11-08T10:00:00	6	Velocidad del viento	16.1
2250	7	Sololá	701	Sololá	2	El tablón	11	Noviembre	2023-11-15T00:00:00	2024-11-08T10:00:00	7	Dirección del viento	16.09
2251	7	Sololá	701	Sololá	2	El tablón	11	Noviembre	2023-11-15T00:00:00	2024-11-08T10:00:00	1	Precipitación	0
2252	7	Sololá	701	Sololá	2	El tablón	11	Noviembre	2023-11-15T00:00:00	2024-11-08T10:00:00	8	Radiación solar	572
2253	7	Sololá	701	Sololá	2	El tablón	11	Noviembre	2023-11-15T00:00:00	2024-11-08T11:00:00	2	Temperatura media	17.8
2254	7	Sololá	701	Sololá	2	El tablón	11	Noviembre	2023-11-15T00:00:00	2024-11-08T11:00:00	4	Temperatura máxima	17.8
2255	7	Sololá	701	Sololá	2	El tablón	11	Noviembre	2023-11-15T00:00:00	2024-11-08T11:00:00	3	Temperatura mínima	17.1
2256	7	Sololá	701	Sololá	2	El tablón	11	Noviembre	2023-11-15T00:00:00	2024-11-08T11:00:00	5	Humedad	75
2257	7	Sololá	701	Sololá	2	El tablón	11	Noviembre	2023-11-15T00:00:00	2024-11-08T11:00:00	6	Velocidad del viento	11.3
2258	7	Sololá	701	Sololá	2	El tablón	11	Noviembre	2023-11-15T00:00:00	2024-11-08T11:00:00	7	Dirección del viento	11.27
2259	7	Sololá	701	Sololá	2	El tablón	11	Noviembre	2023-11-15T00:00:00	2024-11-08T11:00:00	1	Precipitación	0
2260	7	Sololá	701	Sololá	2	El tablón	11	Noviembre	2023-11-15T00:00:00	2024-11-08T11:00:00	8	Radiación solar	406
2261	7	Sololá	701	Sololá	2	El tablón	11	Noviembre	2023-11-15T00:00:00	2024-11-08T12:00:00	2	Temperatura media	18.7
2262	7	Sololá	701	Sololá	2	El tablón	11	Noviembre	2023-11-15T00:00:00	2024-11-08T12:00:00	4	Temperatura máxima	18.7
2263	7	Sololá	701	Sololá	2	El tablón	11	Noviembre	2023-11-15T00:00:00	2024-11-08T12:00:00	3	Temperatura mínima	17.4
2264	7	Sololá	701	Sololá	2	El tablón	11	Noviembre	2023-11-15T00:00:00	2024-11-08T12:00:00	5	Humedad	72
2265	7	Sololá	701	Sololá	2	El tablón	11	Noviembre	2023-11-15T00:00:00	2024-11-08T12:00:00	6	Velocidad del viento	14.5
2266	7	Sololá	701	Sololá	2	El tablón	11	Noviembre	2023-11-15T00:00:00	2024-11-08T12:00:00	7	Dirección del viento	14.48
2267	7	Sololá	701	Sololá	2	El tablón	11	Noviembre	2023-11-15T00:00:00	2024-11-08T12:00:00	1	Precipitación	0
2268	7	Sololá	701	Sololá	2	El tablón	11	Noviembre	2023-11-15T00:00:00	2024-11-08T12:00:00	8	Radiación solar	450
2269	7	Sololá	701	Sololá	2	El tablón	11	Noviembre	2023-11-15T00:00:00	2024-11-08T13:00:00	2	Temperatura media	19.3
2270	7	Sololá	701	Sololá	2	El tablón	11	Noviembre	2023-11-15T00:00:00	2024-11-08T13:00:00	4	Temperatura máxima	19.7
2271	7	Sololá	701	Sololá	2	El tablón	11	Noviembre	2023-11-15T00:00:00	2024-11-08T13:00:00	3	Temperatura mínima	18.7
2272	7	Sololá	701	Sololá	2	El tablón	11	Noviembre	2023-11-15T00:00:00	2024-11-08T13:00:00	5	Humedad	69
2273	7	Sololá	701	Sololá	2	El tablón	11	Noviembre	2023-11-15T00:00:00	2024-11-08T13:00:00	6	Velocidad del viento	16.1
2274	7	Sololá	701	Sololá	2	El tablón	11	Noviembre	2023-11-15T00:00:00	2024-11-08T13:00:00	7	Dirección del viento	16.09
2275	7	Sololá	701	Sololá	2	El tablón	11	Noviembre	2023-11-15T00:00:00	2024-11-08T13:00:00	1	Precipitación	0
2276	7	Sololá	701	Sololá	2	El tablón	11	Noviembre	2023-11-15T00:00:00	2024-11-08T13:00:00	8	Radiación solar	963
2277	7	Sololá	701	Sololá	2	El tablón	11	Noviembre	2023-11-15T00:00:00	2024-11-08T14:00:00	2	Temperatura media	19.4
2278	7	Sololá	701	Sololá	2	El tablón	11	Noviembre	2023-11-15T00:00:00	2024-11-08T14:00:00	4	Temperatura máxima	19.9
2279	7	Sololá	701	Sololá	2	El tablón	11	Noviembre	2023-11-15T00:00:00	2024-11-08T14:00:00	3	Temperatura mínima	19.2
2280	7	Sololá	701	Sololá	2	El tablón	11	Noviembre	2023-11-15T00:00:00	2024-11-08T14:00:00	5	Humedad	70
2281	7	Sololá	701	Sololá	2	El tablón	11	Noviembre	2023-11-15T00:00:00	2024-11-08T14:00:00	6	Velocidad del viento	12.9
2282	7	Sololá	701	Sololá	2	El tablón	11	Noviembre	2023-11-15T00:00:00	2024-11-08T14:00:00	7	Dirección del viento	12.87
2283	7	Sololá	701	Sololá	2	El tablón	11	Noviembre	2023-11-15T00:00:00	2024-11-08T14:00:00	1	Precipitación	0
2284	7	Sololá	701	Sololá	2	El tablón	11	Noviembre	2023-11-15T00:00:00	2024-11-08T14:00:00	8	Radiación solar	584
2285	7	Sololá	701	Sololá	2	El tablón	11	Noviembre	2023-11-15T00:00:00	2024-11-08T15:00:00	2	Temperatura media	20.1
2286	7	Sololá	701	Sololá	2	El tablón	11	Noviembre	2023-11-15T00:00:00	2024-11-08T15:00:00	4	Temperatura máxima	20.2
2287	7	Sololá	701	Sololá	2	El tablón	11	Noviembre	2023-11-15T00:00:00	2024-11-08T15:00:00	3	Temperatura mínima	18.9
2288	7	Sololá	701	Sololá	2	El tablón	11	Noviembre	2023-11-15T00:00:00	2024-11-08T15:00:00	5	Humedad	68
2289	7	Sololá	701	Sololá	2	El tablón	11	Noviembre	2023-11-15T00:00:00	2024-11-08T15:00:00	6	Velocidad del viento	11.3
2290	7	Sololá	701	Sololá	2	El tablón	11	Noviembre	2023-11-15T00:00:00	2024-11-08T15:00:00	7	Dirección del viento	11.27
2291	7	Sololá	701	Sololá	2	El tablón	11	Noviembre	2023-11-15T00:00:00	2024-11-08T15:00:00	1	Precipitación	0
2292	7	Sololá	701	Sololá	2	El tablón	11	Noviembre	2023-11-15T00:00:00	2024-11-08T15:00:00	8	Radiación solar	627
2293	7	Sololá	701	Sololá	2	El tablón	11	Noviembre	2023-11-15T00:00:00	2024-11-08T16:00:00	2	Temperatura media	18.2
2294	7	Sololá	701	Sololá	2	El tablón	11	Noviembre	2023-11-15T00:00:00	2024-11-08T16:00:00	4	Temperatura máxima	20.3
2295	7	Sololá	701	Sololá	2	El tablón	11	Noviembre	2023-11-15T00:00:00	2024-11-08T16:00:00	3	Temperatura mínima	18.2
2296	7	Sololá	701	Sololá	2	El tablón	11	Noviembre	2023-11-15T00:00:00	2024-11-08T16:00:00	5	Humedad	76
2297	7	Sololá	701	Sololá	2	El tablón	11	Noviembre	2023-11-15T00:00:00	2024-11-08T16:00:00	6	Velocidad del viento	11.3
2298	7	Sololá	701	Sololá	2	El tablón	11	Noviembre	2023-11-15T00:00:00	2024-11-08T16:00:00	7	Dirección del viento	11.27
2299	7	Sololá	701	Sololá	2	El tablón	11	Noviembre	2023-11-15T00:00:00	2024-11-08T16:00:00	1	Precipitación	0
2300	7	Sololá	701	Sololá	2	El tablón	11	Noviembre	2023-11-15T00:00:00	2024-11-08T16:00:00	8	Radiación solar	298
2301	7	Sololá	701	Sololá	2	El tablón	11	Noviembre	2023-11-15T00:00:00	2024-11-08T17:00:00	2	Temperatura media	16.7
2302	7	Sololá	701	Sololá	2	El tablón	11	Noviembre	2023-11-15T00:00:00	2024-11-08T17:00:00	4	Temperatura máxima	18.2
2303	7	Sololá	701	Sololá	2	El tablón	11	Noviembre	2023-11-15T00:00:00	2024-11-08T17:00:00	3	Temperatura mínima	16.7
2304	7	Sololá	701	Sololá	2	El tablón	11	Noviembre	2023-11-15T00:00:00	2024-11-08T17:00:00	5	Humedad	81
2305	7	Sololá	701	Sololá	2	El tablón	11	Noviembre	2023-11-15T00:00:00	2024-11-08T17:00:00	6	Velocidad del viento	9.7
2306	7	Sololá	701	Sololá	2	El tablón	11	Noviembre	2023-11-15T00:00:00	2024-11-08T17:00:00	7	Dirección del viento	9.66
2307	7	Sololá	701	Sololá	2	El tablón	11	Noviembre	2023-11-15T00:00:00	2024-11-08T17:00:00	1	Precipitación	0
2308	7	Sololá	701	Sololá	2	El tablón	11	Noviembre	2023-11-15T00:00:00	2024-11-08T17:00:00	8	Radiación solar	96
2309	7	Sololá	701	Sololá	2	El tablón	11	Noviembre	2023-11-15T00:00:00	2024-11-08T18:00:00	2	Temperatura media	14.7
2310	7	Sololá	701	Sololá	2	El tablón	11	Noviembre	2023-11-15T00:00:00	2024-11-08T18:00:00	4	Temperatura máxima	16.7
2311	7	Sololá	701	Sololá	2	El tablón	11	Noviembre	2023-11-15T00:00:00	2024-11-08T18:00:00	3	Temperatura mínima	14.7
2312	7	Sololá	701	Sololá	2	El tablón	11	Noviembre	2023-11-15T00:00:00	2024-11-08T18:00:00	5	Humedad	86
2313	7	Sololá	701	Sololá	2	El tablón	11	Noviembre	2023-11-15T00:00:00	2024-11-08T18:00:00	6	Velocidad del viento	11.3
2314	7	Sololá	701	Sololá	2	El tablón	11	Noviembre	2023-11-15T00:00:00	2024-11-08T18:00:00	7	Dirección del viento	11.27
2315	7	Sololá	701	Sololá	2	El tablón	11	Noviembre	2023-11-15T00:00:00	2024-11-08T18:00:00	1	Precipitación	0
2316	7	Sololá	701	Sololá	2	El tablón	11	Noviembre	2023-11-15T00:00:00	2024-11-08T18:00:00	8	Radiación solar	14
2317	7	Sololá	701	Sololá	2	El tablón	11	Noviembre	2023-11-15T00:00:00	2024-11-08T19:00:00	2	Temperatura media	14.7
2318	7	Sololá	701	Sololá	2	El tablón	11	Noviembre	2023-11-15T00:00:00	2024-11-08T19:00:00	4	Temperatura máxima	14.7
2319	7	Sololá	701	Sololá	2	El tablón	11	Noviembre	2023-11-15T00:00:00	2024-11-08T19:00:00	3	Temperatura mínima	14.5
2320	7	Sololá	701	Sololá	2	El tablón	11	Noviembre	2023-11-15T00:00:00	2024-11-08T19:00:00	5	Humedad	83
2321	7	Sololá	701	Sololá	2	El tablón	11	Noviembre	2023-11-15T00:00:00	2024-11-08T19:00:00	6	Velocidad del viento	6.4
2322	7	Sololá	701	Sololá	2	El tablón	11	Noviembre	2023-11-15T00:00:00	2024-11-08T19:00:00	7	Dirección del viento	6.44
2323	7	Sololá	701	Sololá	2	El tablón	11	Noviembre	2023-11-15T00:00:00	2024-11-08T19:00:00	1	Precipitación	0
2324	7	Sololá	701	Sololá	2	El tablón	11	Noviembre	2023-11-15T00:00:00	2024-11-08T19:00:00	8	Radiación solar	0
2325	7	Sololá	701	Sololá	2	El tablón	11	Noviembre	2023-11-15T00:00:00	2024-11-08T20:00:00	2	Temperatura media	14.4
2326	7	Sololá	701	Sololá	2	El tablón	11	Noviembre	2023-11-15T00:00:00	2024-11-08T20:00:00	4	Temperatura máxima	14.8
2327	7	Sololá	701	Sololá	2	El tablón	11	Noviembre	2023-11-15T00:00:00	2024-11-08T20:00:00	3	Temperatura mínima	14.4
2328	7	Sololá	701	Sololá	2	El tablón	11	Noviembre	2023-11-15T00:00:00	2024-11-08T20:00:00	5	Humedad	84
2329	7	Sololá	701	Sololá	2	El tablón	11	Noviembre	2023-11-15T00:00:00	2024-11-08T20:00:00	6	Velocidad del viento	8
2330	7	Sololá	701	Sololá	2	El tablón	11	Noviembre	2023-11-15T00:00:00	2024-11-08T20:00:00	7	Dirección del viento	8.05
2331	7	Sololá	701	Sololá	2	El tablón	11	Noviembre	2023-11-15T00:00:00	2024-11-08T20:00:00	1	Precipitación	0
2332	7	Sololá	701	Sololá	2	El tablón	11	Noviembre	2023-11-15T00:00:00	2024-11-08T20:00:00	8	Radiación solar	0
2333	7	Sololá	701	Sololá	2	El tablón	11	Noviembre	2023-11-15T00:00:00	2024-11-08T21:00:00	2	Temperatura media	14.3
2334	7	Sololá	701	Sololá	2	El tablón	11	Noviembre	2023-11-15T00:00:00	2024-11-08T21:00:00	4	Temperatura máxima	14.6
2335	7	Sololá	701	Sololá	2	El tablón	11	Noviembre	2023-11-15T00:00:00	2024-11-08T21:00:00	3	Temperatura mínima	14.3
2336	7	Sololá	701	Sololá	2	El tablón	11	Noviembre	2023-11-15T00:00:00	2024-11-08T21:00:00	5	Humedad	83
2337	7	Sololá	701	Sololá	2	El tablón	11	Noviembre	2023-11-15T00:00:00	2024-11-08T21:00:00	6	Velocidad del viento	4.8
2338	7	Sololá	701	Sololá	2	El tablón	11	Noviembre	2023-11-15T00:00:00	2024-11-08T21:00:00	7	Dirección del viento	4.83
2339	7	Sololá	701	Sololá	2	El tablón	11	Noviembre	2023-11-15T00:00:00	2024-11-08T21:00:00	1	Precipitación	0
2340	7	Sololá	701	Sololá	2	El tablón	11	Noviembre	2023-11-15T00:00:00	2024-11-08T21:00:00	8	Radiación solar	0
2341	7	Sololá	701	Sololá	2	El tablón	11	Noviembre	2023-11-15T00:00:00	2024-11-08T22:00:00	2	Temperatura media	13.9
2342	7	Sololá	701	Sololá	2	El tablón	11	Noviembre	2023-11-15T00:00:00	2024-11-08T22:00:00	4	Temperatura máxima	14.3
2343	7	Sololá	701	Sololá	2	El tablón	11	Noviembre	2023-11-15T00:00:00	2024-11-08T22:00:00	3	Temperatura mínima	13.9
2344	7	Sololá	701	Sololá	2	El tablón	11	Noviembre	2023-11-15T00:00:00	2024-11-08T22:00:00	5	Humedad	82
2345	7	Sololá	701	Sololá	2	El tablón	11	Noviembre	2023-11-15T00:00:00	2024-11-08T22:00:00	6	Velocidad del viento	6.4
2346	7	Sololá	701	Sololá	2	El tablón	11	Noviembre	2023-11-15T00:00:00	2024-11-08T22:00:00	7	Dirección del viento	6.44
2347	7	Sololá	701	Sololá	2	El tablón	11	Noviembre	2023-11-15T00:00:00	2024-11-08T22:00:00	1	Precipitación	0
2348	7	Sololá	701	Sololá	2	El tablón	11	Noviembre	2023-11-15T00:00:00	2024-11-08T22:00:00	8	Radiación solar	0
2349	7	Sololá	701	Sololá	2	El tablón	11	Noviembre	2023-11-15T00:00:00	2024-11-08T23:00:00	2	Temperatura media	13.5
2350	7	Sololá	701	Sololá	2	El tablón	11	Noviembre	2023-11-15T00:00:00	2024-11-08T23:00:00	4	Temperatura máxima	13.9
2351	7	Sololá	701	Sololá	2	El tablón	11	Noviembre	2023-11-15T00:00:00	2024-11-08T23:00:00	3	Temperatura mínima	13.4
2352	7	Sololá	701	Sololá	2	El tablón	11	Noviembre	2023-11-15T00:00:00	2024-11-08T23:00:00	5	Humedad	80
2353	7	Sololá	701	Sololá	2	El tablón	11	Noviembre	2023-11-15T00:00:00	2024-11-08T23:00:00	6	Velocidad del viento	8
2354	7	Sololá	701	Sololá	2	El tablón	11	Noviembre	2023-11-15T00:00:00	2024-11-08T23:00:00	7	Dirección del viento	8.05
2355	7	Sololá	701	Sololá	2	El tablón	11	Noviembre	2023-11-15T00:00:00	2024-11-08T23:00:00	1	Precipitación	0
2356	7	Sololá	701	Sololá	2	El tablón	11	Noviembre	2023-11-15T00:00:00	2024-11-08T23:00:00	8	Radiación solar	0
2357	7	Sololá	701	Sololá	2	El tablón	11	Noviembre	2023-11-16T00:00:00	2024-11-08T00:00:00	2	Temperatura media	13.7
2358	7	Sololá	701	Sololá	2	El tablón	11	Noviembre	2023-11-16T00:00:00	2024-11-08T00:00:00	4	Temperatura máxima	13.7
2359	7	Sololá	701	Sololá	2	El tablón	11	Noviembre	2023-11-16T00:00:00	2024-11-08T00:00:00	3	Temperatura mínima	13.3
2360	7	Sololá	701	Sololá	2	El tablón	11	Noviembre	2023-11-16T00:00:00	2024-11-08T00:00:00	5	Humedad	79
2361	7	Sololá	701	Sololá	2	El tablón	11	Noviembre	2023-11-16T00:00:00	2024-11-08T00:00:00	6	Velocidad del viento	4.8
2362	7	Sololá	701	Sololá	2	El tablón	11	Noviembre	2023-11-16T00:00:00	2024-11-08T00:00:00	7	Dirección del viento	4.83
2363	7	Sololá	701	Sololá	2	El tablón	11	Noviembre	2023-11-16T00:00:00	2024-11-08T00:00:00	1	Precipitación	0
2364	7	Sololá	701	Sololá	2	El tablón	11	Noviembre	2023-11-16T00:00:00	2024-11-08T00:00:00	8	Radiación solar	0
2365	7	Sololá	701	Sololá	2	El tablón	11	Noviembre	2023-11-16T00:00:00	2024-11-08T01:00:00	2	Temperatura media	13.7
2366	7	Sololá	701	Sololá	2	El tablón	11	Noviembre	2023-11-16T00:00:00	2024-11-08T01:00:00	4	Temperatura máxima	13.8
2367	7	Sololá	701	Sololá	2	El tablón	11	Noviembre	2023-11-16T00:00:00	2024-11-08T01:00:00	3	Temperatura mínima	13.6
2368	7	Sololá	701	Sololá	2	El tablón	11	Noviembre	2023-11-16T00:00:00	2024-11-08T01:00:00	5	Humedad	79
2369	7	Sololá	701	Sololá	2	El tablón	11	Noviembre	2023-11-16T00:00:00	2024-11-08T01:00:00	6	Velocidad del viento	6.4
2370	7	Sololá	701	Sololá	2	El tablón	11	Noviembre	2023-11-16T00:00:00	2024-11-08T01:00:00	7	Dirección del viento	6.44
2371	7	Sololá	701	Sololá	2	El tablón	11	Noviembre	2023-11-16T00:00:00	2024-11-08T01:00:00	1	Precipitación	0
2372	7	Sololá	701	Sololá	2	El tablón	11	Noviembre	2023-11-16T00:00:00	2024-11-08T01:00:00	8	Radiación solar	0
2373	7	Sololá	701	Sololá	2	El tablón	11	Noviembre	2023-11-16T00:00:00	2024-11-08T02:00:00	2	Temperatura media	13.9
2374	7	Sololá	701	Sololá	2	El tablón	11	Noviembre	2023-11-16T00:00:00	2024-11-08T02:00:00	4	Temperatura máxima	13.9
2375	7	Sololá	701	Sololá	2	El tablón	11	Noviembre	2023-11-16T00:00:00	2024-11-08T02:00:00	3	Temperatura mínima	13.3
2376	7	Sololá	701	Sololá	2	El tablón	11	Noviembre	2023-11-16T00:00:00	2024-11-08T02:00:00	5	Humedad	78
2377	7	Sololá	701	Sololá	2	El tablón	11	Noviembre	2023-11-16T00:00:00	2024-11-08T02:00:00	6	Velocidad del viento	4.8
2378	7	Sololá	701	Sololá	2	El tablón	11	Noviembre	2023-11-16T00:00:00	2024-11-08T02:00:00	7	Dirección del viento	4.83
2379	7	Sololá	701	Sololá	2	El tablón	11	Noviembre	2023-11-16T00:00:00	2024-11-08T02:00:00	1	Precipitación	0
2380	7	Sololá	701	Sololá	2	El tablón	11	Noviembre	2023-11-16T00:00:00	2024-11-08T02:00:00	8	Radiación solar	0
2381	7	Sololá	701	Sololá	2	El tablón	11	Noviembre	2023-11-16T00:00:00	2024-11-08T03:00:00	2	Temperatura media	13.7
2382	7	Sololá	701	Sololá	2	El tablón	11	Noviembre	2023-11-16T00:00:00	2024-11-08T03:00:00	4	Temperatura máxima	13.9
2383	7	Sololá	701	Sololá	2	El tablón	11	Noviembre	2023-11-16T00:00:00	2024-11-08T03:00:00	3	Temperatura mínima	13.4
2384	7	Sololá	701	Sololá	2	El tablón	11	Noviembre	2023-11-16T00:00:00	2024-11-08T03:00:00	5	Humedad	79
2385	7	Sololá	701	Sololá	2	El tablón	11	Noviembre	2023-11-16T00:00:00	2024-11-08T03:00:00	6	Velocidad del viento	4.8
2386	7	Sololá	701	Sololá	2	El tablón	11	Noviembre	2023-11-16T00:00:00	2024-11-08T03:00:00	7	Dirección del viento	4.83
2387	7	Sololá	701	Sololá	2	El tablón	11	Noviembre	2023-11-16T00:00:00	2024-11-08T03:00:00	1	Precipitación	0
2388	7	Sololá	701	Sololá	2	El tablón	11	Noviembre	2023-11-16T00:00:00	2024-11-08T03:00:00	8	Radiación solar	0
2389	7	Sololá	701	Sololá	2	El tablón	11	Noviembre	2023-11-16T00:00:00	2024-11-08T04:00:00	2	Temperatura media	13.6
2390	7	Sololá	701	Sololá	2	El tablón	11	Noviembre	2023-11-16T00:00:00	2024-11-08T04:00:00	4	Temperatura máxima	13.8
2391	7	Sololá	701	Sololá	2	El tablón	11	Noviembre	2023-11-16T00:00:00	2024-11-08T04:00:00	3	Temperatura mínima	13.6
2392	7	Sololá	701	Sololá	2	El tablón	11	Noviembre	2023-11-16T00:00:00	2024-11-08T04:00:00	5	Humedad	81
2393	7	Sololá	701	Sololá	2	El tablón	11	Noviembre	2023-11-16T00:00:00	2024-11-08T04:00:00	6	Velocidad del viento	12.9
2394	7	Sololá	701	Sololá	2	El tablón	11	Noviembre	2023-11-16T00:00:00	2024-11-08T04:00:00	7	Dirección del viento	12.87
2395	7	Sololá	701	Sololá	2	El tablón	11	Noviembre	2023-11-16T00:00:00	2024-11-08T04:00:00	1	Precipitación	0
2396	7	Sololá	701	Sololá	2	El tablón	11	Noviembre	2023-11-16T00:00:00	2024-11-08T04:00:00	8	Radiación solar	0
2397	7	Sololá	701	Sololá	2	El tablón	11	Noviembre	2023-11-16T00:00:00	2024-11-08T05:00:00	2	Temperatura media	13.7
2398	7	Sololá	701	Sololá	2	El tablón	11	Noviembre	2023-11-16T00:00:00	2024-11-08T05:00:00	4	Temperatura máxima	13.8
2399	7	Sololá	701	Sololá	2	El tablón	11	Noviembre	2023-11-16T00:00:00	2024-11-08T05:00:00	3	Temperatura mínima	13.6
2400	7	Sololá	701	Sololá	2	El tablón	11	Noviembre	2023-11-16T00:00:00	2024-11-08T05:00:00	5	Humedad	79
2401	7	Sololá	701	Sololá	2	El tablón	11	Noviembre	2023-11-16T00:00:00	2024-11-08T05:00:00	6	Velocidad del viento	14.5
2402	7	Sololá	701	Sololá	2	El tablón	11	Noviembre	2023-11-16T00:00:00	2024-11-08T05:00:00	7	Dirección del viento	14.48
2403	7	Sololá	701	Sololá	2	El tablón	11	Noviembre	2023-11-16T00:00:00	2024-11-08T05:00:00	1	Precipitación	0
2404	7	Sololá	701	Sololá	2	El tablón	11	Noviembre	2023-11-16T00:00:00	2024-11-08T05:00:00	8	Radiación solar	0
2405	7	Sololá	701	Sololá	2	El tablón	11	Noviembre	2023-11-16T00:00:00	2024-11-08T06:00:00	2	Temperatura media	13.3
2406	7	Sololá	701	Sololá	2	El tablón	11	Noviembre	2023-11-16T00:00:00	2024-11-08T06:00:00	4	Temperatura máxima	13.7
2407	7	Sololá	701	Sololá	2	El tablón	11	Noviembre	2023-11-16T00:00:00	2024-11-08T06:00:00	3	Temperatura mínima	13.3
2408	7	Sololá	701	Sololá	2	El tablón	11	Noviembre	2023-11-16T00:00:00	2024-11-08T06:00:00	5	Humedad	80
2409	7	Sololá	701	Sololá	2	El tablón	11	Noviembre	2023-11-16T00:00:00	2024-11-08T06:00:00	6	Velocidad del viento	12.9
2410	7	Sololá	701	Sololá	2	El tablón	11	Noviembre	2023-11-16T00:00:00	2024-11-08T06:00:00	7	Dirección del viento	12.87
2411	7	Sololá	701	Sololá	2	El tablón	11	Noviembre	2023-11-16T00:00:00	2024-11-08T06:00:00	1	Precipitación	0
2412	7	Sololá	701	Sololá	2	El tablón	11	Noviembre	2023-11-16T00:00:00	2024-11-08T06:00:00	8	Radiación solar	0
2413	7	Sololá	701	Sololá	2	El tablón	11	Noviembre	2023-11-16T00:00:00	2024-11-08T07:00:00	2	Temperatura media	13.7
2414	7	Sololá	701	Sololá	2	El tablón	11	Noviembre	2023-11-16T00:00:00	2024-11-08T07:00:00	4	Temperatura máxima	13.7
2415	7	Sololá	701	Sololá	2	El tablón	11	Noviembre	2023-11-16T00:00:00	2024-11-08T07:00:00	3	Temperatura mínima	13.2
2416	7	Sololá	701	Sololá	2	El tablón	11	Noviembre	2023-11-16T00:00:00	2024-11-08T07:00:00	5	Humedad	80
2417	7	Sololá	701	Sololá	2	El tablón	11	Noviembre	2023-11-16T00:00:00	2024-11-08T07:00:00	6	Velocidad del viento	12.9
2418	7	Sololá	701	Sololá	2	El tablón	11	Noviembre	2023-11-16T00:00:00	2024-11-08T07:00:00	7	Dirección del viento	12.87
2419	7	Sololá	701	Sololá	2	El tablón	11	Noviembre	2023-11-16T00:00:00	2024-11-08T07:00:00	1	Precipitación	0
2420	7	Sololá	701	Sololá	2	El tablón	11	Noviembre	2023-11-16T00:00:00	2024-11-08T07:00:00	8	Radiación solar	32
2421	7	Sololá	701	Sololá	2	El tablón	11	Noviembre	2023-11-16T00:00:00	2024-11-08T08:00:00	2	Temperatura media	14.5
2422	7	Sololá	701	Sololá	2	El tablón	11	Noviembre	2023-11-16T00:00:00	2024-11-08T08:00:00	4	Temperatura máxima	14.5
2423	7	Sololá	701	Sololá	2	El tablón	11	Noviembre	2023-11-16T00:00:00	2024-11-08T08:00:00	3	Temperatura mínima	13.7
2424	7	Sololá	701	Sololá	2	El tablón	11	Noviembre	2023-11-16T00:00:00	2024-11-08T08:00:00	5	Humedad	79
2425	7	Sololá	701	Sololá	2	El tablón	11	Noviembre	2023-11-16T00:00:00	2024-11-08T08:00:00	6	Velocidad del viento	19.3
2426	7	Sololá	701	Sololá	2	El tablón	11	Noviembre	2023-11-16T00:00:00	2024-11-08T08:00:00	7	Dirección del viento	19.31
2427	7	Sololá	701	Sololá	2	El tablón	11	Noviembre	2023-11-16T00:00:00	2024-11-08T08:00:00	1	Precipitación	0
2428	7	Sololá	701	Sololá	2	El tablón	11	Noviembre	2023-11-16T00:00:00	2024-11-08T08:00:00	8	Radiación solar	232
2429	7	Sololá	701	Sololá	2	El tablón	11	Noviembre	2023-11-16T00:00:00	2024-11-08T09:00:00	2	Temperatura media	16.2
2430	7	Sololá	701	Sololá	2	El tablón	11	Noviembre	2023-11-16T00:00:00	2024-11-08T09:00:00	4	Temperatura máxima	16.2
2431	7	Sololá	701	Sololá	2	El tablón	11	Noviembre	2023-11-16T00:00:00	2024-11-08T09:00:00	3	Temperatura mínima	14.5
2432	7	Sololá	701	Sololá	2	El tablón	11	Noviembre	2023-11-16T00:00:00	2024-11-08T09:00:00	5	Humedad	72
2433	7	Sololá	701	Sololá	2	El tablón	11	Noviembre	2023-11-16T00:00:00	2024-11-08T09:00:00	6	Velocidad del viento	16.1
2434	7	Sololá	701	Sololá	2	El tablón	11	Noviembre	2023-11-16T00:00:00	2024-11-08T09:00:00	7	Dirección del viento	16.09
2435	7	Sololá	701	Sololá	2	El tablón	11	Noviembre	2023-11-16T00:00:00	2024-11-08T09:00:00	1	Precipitación	0
2436	7	Sololá	701	Sololá	2	El tablón	11	Noviembre	2023-11-16T00:00:00	2024-11-08T09:00:00	8	Radiación solar	442
2437	7	Sololá	701	Sololá	2	El tablón	11	Noviembre	2023-11-16T00:00:00	2024-11-08T10:00:00	2	Temperatura media	16.9
2438	7	Sololá	701	Sololá	2	El tablón	11	Noviembre	2023-11-16T00:00:00	2024-11-08T10:00:00	4	Temperatura máxima	17
2439	7	Sololá	701	Sololá	2	El tablón	11	Noviembre	2023-11-16T00:00:00	2024-11-08T10:00:00	3	Temperatura mínima	16.2
2440	7	Sololá	701	Sololá	2	El tablón	11	Noviembre	2023-11-16T00:00:00	2024-11-08T10:00:00	5	Humedad	71
2441	7	Sololá	701	Sololá	2	El tablón	11	Noviembre	2023-11-16T00:00:00	2024-11-08T10:00:00	6	Velocidad del viento	17.7
2442	7	Sololá	701	Sololá	2	El tablón	11	Noviembre	2023-11-16T00:00:00	2024-11-08T10:00:00	7	Dirección del viento	17.7
2443	7	Sololá	701	Sololá	2	El tablón	11	Noviembre	2023-11-16T00:00:00	2024-11-08T10:00:00	1	Precipitación	0
2444	7	Sololá	701	Sololá	2	El tablón	11	Noviembre	2023-11-16T00:00:00	2024-11-08T10:00:00	8	Radiación solar	625
2445	7	Sololá	701	Sololá	2	El tablón	11	Noviembre	2023-11-16T00:00:00	2024-11-08T11:00:00	2	Temperatura media	18.7
2446	7	Sololá	701	Sololá	2	El tablón	11	Noviembre	2023-11-16T00:00:00	2024-11-08T11:00:00	4	Temperatura máxima	18.7
2447	7	Sololá	701	Sololá	2	El tablón	11	Noviembre	2023-11-16T00:00:00	2024-11-08T11:00:00	3	Temperatura mínima	16.9
2448	7	Sololá	701	Sololá	2	El tablón	11	Noviembre	2023-11-16T00:00:00	2024-11-08T11:00:00	5	Humedad	67
2449	7	Sololá	701	Sololá	2	El tablón	11	Noviembre	2023-11-16T00:00:00	2024-11-08T11:00:00	6	Velocidad del viento	16.1
2450	7	Sololá	701	Sololá	2	El tablón	11	Noviembre	2023-11-16T00:00:00	2024-11-08T11:00:00	7	Dirección del viento	16.09
2451	7	Sololá	701	Sololá	2	El tablón	11	Noviembre	2023-11-16T00:00:00	2024-11-08T11:00:00	1	Precipitación	0
2452	7	Sololá	701	Sololá	2	El tablón	11	Noviembre	2023-11-16T00:00:00	2024-11-08T11:00:00	8	Radiación solar	748
2453	7	Sololá	701	Sololá	2	El tablón	11	Noviembre	2023-11-16T00:00:00	2024-11-08T12:00:00	2	Temperatura media	18.8
2454	7	Sololá	701	Sololá	2	El tablón	11	Noviembre	2023-11-16T00:00:00	2024-11-08T12:00:00	4	Temperatura máxima	18.9
2455	7	Sololá	701	Sololá	2	El tablón	11	Noviembre	2023-11-16T00:00:00	2024-11-08T12:00:00	3	Temperatura mínima	18.4
2456	7	Sololá	701	Sololá	2	El tablón	11	Noviembre	2023-11-16T00:00:00	2024-11-08T12:00:00	5	Humedad	66
2457	7	Sololá	701	Sololá	2	El tablón	11	Noviembre	2023-11-16T00:00:00	2024-11-08T12:00:00	6	Velocidad del viento	14.5
2458	7	Sololá	701	Sololá	2	El tablón	11	Noviembre	2023-11-16T00:00:00	2024-11-08T12:00:00	7	Dirección del viento	14.48
2459	7	Sololá	701	Sololá	2	El tablón	11	Noviembre	2023-11-16T00:00:00	2024-11-08T12:00:00	1	Precipitación	0
2460	7	Sololá	701	Sololá	2	El tablón	11	Noviembre	2023-11-16T00:00:00	2024-11-08T12:00:00	8	Radiación solar	711
2461	7	Sololá	701	Sololá	2	El tablón	11	Noviembre	2023-11-16T00:00:00	2024-11-08T13:00:00	2	Temperatura media	19.8
2462	7	Sololá	701	Sololá	2	El tablón	11	Noviembre	2023-11-16T00:00:00	2024-11-08T13:00:00	4	Temperatura máxima	19.8
2463	7	Sololá	701	Sololá	2	El tablón	11	Noviembre	2023-11-16T00:00:00	2024-11-08T13:00:00	3	Temperatura mínima	18.8
2464	7	Sololá	701	Sololá	2	El tablón	11	Noviembre	2023-11-16T00:00:00	2024-11-08T13:00:00	5	Humedad	64
2465	7	Sololá	701	Sololá	2	El tablón	11	Noviembre	2023-11-16T00:00:00	2024-11-08T13:00:00	6	Velocidad del viento	14.5
2466	7	Sololá	701	Sololá	2	El tablón	11	Noviembre	2023-11-16T00:00:00	2024-11-08T13:00:00	7	Dirección del viento	14.48
2467	7	Sololá	701	Sololá	2	El tablón	11	Noviembre	2023-11-16T00:00:00	2024-11-08T13:00:00	1	Precipitación	0
2468	7	Sololá	701	Sololá	2	El tablón	11	Noviembre	2023-11-16T00:00:00	2024-11-08T13:00:00	8	Radiación solar	799
2469	7	Sololá	701	Sololá	2	El tablón	11	Noviembre	2023-11-16T00:00:00	2024-11-08T14:00:00	2	Temperatura media	21.1
2470	7	Sololá	701	Sololá	2	El tablón	11	Noviembre	2023-11-16T00:00:00	2024-11-08T14:00:00	4	Temperatura máxima	21.1
2471	7	Sololá	701	Sololá	2	El tablón	11	Noviembre	2023-11-16T00:00:00	2024-11-08T14:00:00	3	Temperatura mínima	19.7
2472	7	Sololá	701	Sololá	2	El tablón	11	Noviembre	2023-11-16T00:00:00	2024-11-08T14:00:00	5	Humedad	61
2473	7	Sololá	701	Sololá	2	El tablón	11	Noviembre	2023-11-16T00:00:00	2024-11-08T14:00:00	6	Velocidad del viento	9.7
2474	7	Sololá	701	Sololá	2	El tablón	11	Noviembre	2023-11-16T00:00:00	2024-11-08T14:00:00	7	Dirección del viento	9.66
2475	7	Sololá	701	Sololá	2	El tablón	11	Noviembre	2023-11-16T00:00:00	2024-11-08T14:00:00	1	Precipitación	0
2476	7	Sololá	701	Sololá	2	El tablón	11	Noviembre	2023-11-16T00:00:00	2024-11-08T14:00:00	8	Radiación solar	712
2477	7	Sololá	701	Sololá	2	El tablón	11	Noviembre	2023-11-16T00:00:00	2024-11-08T15:00:00	2	Temperatura media	19.1
2478	7	Sololá	701	Sololá	2	El tablón	11	Noviembre	2023-11-16T00:00:00	2024-11-08T15:00:00	4	Temperatura máxima	21.1
2479	7	Sololá	701	Sololá	2	El tablón	11	Noviembre	2023-11-16T00:00:00	2024-11-08T15:00:00	3	Temperatura mínima	19.1
2480	7	Sololá	701	Sololá	2	El tablón	11	Noviembre	2023-11-16T00:00:00	2024-11-08T15:00:00	5	Humedad	70
2481	7	Sololá	701	Sololá	2	El tablón	11	Noviembre	2023-11-16T00:00:00	2024-11-08T15:00:00	6	Velocidad del viento	6.4
2482	7	Sololá	701	Sololá	2	El tablón	11	Noviembre	2023-11-16T00:00:00	2024-11-08T15:00:00	7	Dirección del viento	6.44
2483	7	Sololá	701	Sololá	2	El tablón	11	Noviembre	2023-11-16T00:00:00	2024-11-08T15:00:00	1	Precipitación	0
2484	7	Sololá	701	Sololá	2	El tablón	11	Noviembre	2023-11-16T00:00:00	2024-11-08T15:00:00	8	Radiación solar	432
2485	7	Sololá	701	Sololá	2	El tablón	11	Noviembre	2023-11-16T00:00:00	2024-11-08T16:00:00	2	Temperatura media	17.3
2486	7	Sololá	701	Sololá	2	El tablón	11	Noviembre	2023-11-16T00:00:00	2024-11-08T16:00:00	4	Temperatura máxima	19.1
2487	7	Sololá	701	Sololá	2	El tablón	11	Noviembre	2023-11-16T00:00:00	2024-11-08T16:00:00	3	Temperatura mínima	17.3
2488	7	Sololá	701	Sololá	2	El tablón	11	Noviembre	2023-11-16T00:00:00	2024-11-08T16:00:00	5	Humedad	79
2489	7	Sololá	701	Sololá	2	El tablón	11	Noviembre	2023-11-16T00:00:00	2024-11-08T16:00:00	6	Velocidad del viento	6.4
2490	7	Sololá	701	Sololá	2	El tablón	11	Noviembre	2023-11-16T00:00:00	2024-11-08T16:00:00	7	Dirección del viento	6.44
2491	7	Sololá	701	Sololá	2	El tablón	11	Noviembre	2023-11-16T00:00:00	2024-11-08T16:00:00	1	Precipitación	0
2492	7	Sololá	701	Sololá	2	El tablón	11	Noviembre	2023-11-16T00:00:00	2024-11-08T16:00:00	8	Radiación solar	159
2493	7	Sololá	701	Sololá	2	El tablón	11	Noviembre	2023-11-16T00:00:00	2024-11-08T17:00:00	2	Temperatura media	16.2
2494	7	Sololá	701	Sololá	2	El tablón	11	Noviembre	2023-11-16T00:00:00	2024-11-08T17:00:00	4	Temperatura máxima	17.3
2495	7	Sololá	701	Sololá	2	El tablón	11	Noviembre	2023-11-16T00:00:00	2024-11-08T17:00:00	3	Temperatura mínima	16.2
2496	7	Sololá	701	Sololá	2	El tablón	11	Noviembre	2023-11-16T00:00:00	2024-11-08T17:00:00	5	Humedad	83
2497	7	Sololá	701	Sololá	2	El tablón	11	Noviembre	2023-11-16T00:00:00	2024-11-08T17:00:00	6	Velocidad del viento	6.4
2498	7	Sololá	701	Sololá	2	El tablón	11	Noviembre	2023-11-16T00:00:00	2024-11-08T17:00:00	7	Dirección del viento	6.44
2499	7	Sololá	701	Sololá	2	El tablón	11	Noviembre	2023-11-16T00:00:00	2024-11-08T17:00:00	1	Precipitación	0
2500	7	Sololá	701	Sololá	2	El tablón	11	Noviembre	2023-11-16T00:00:00	2024-11-08T17:00:00	8	Radiación solar	86
2501	7	Sololá	701	Sololá	2	El tablón	11	Noviembre	2023-11-16T00:00:00	2024-11-08T18:00:00	2	Temperatura media	15
2502	7	Sololá	701	Sololá	2	El tablón	11	Noviembre	2023-11-16T00:00:00	2024-11-08T18:00:00	4	Temperatura máxima	16.2
2503	7	Sololá	701	Sololá	2	El tablón	11	Noviembre	2023-11-16T00:00:00	2024-11-08T18:00:00	3	Temperatura mínima	15
2504	7	Sololá	701	Sololá	2	El tablón	11	Noviembre	2023-11-16T00:00:00	2024-11-08T18:00:00	5	Humedad	86
2505	7	Sololá	701	Sololá	2	El tablón	11	Noviembre	2023-11-16T00:00:00	2024-11-08T18:00:00	6	Velocidad del viento	4.8
2506	7	Sololá	701	Sololá	2	El tablón	11	Noviembre	2023-11-16T00:00:00	2024-11-08T18:00:00	7	Dirección del viento	4.83
2507	7	Sololá	701	Sololá	2	El tablón	11	Noviembre	2023-11-16T00:00:00	2024-11-08T18:00:00	1	Precipitación	0
2508	7	Sololá	701	Sololá	2	El tablón	11	Noviembre	2023-11-16T00:00:00	2024-11-08T18:00:00	8	Radiación solar	7
2509	7	Sololá	701	Sololá	2	El tablón	11	Noviembre	2023-11-16T00:00:00	2024-11-08T19:00:00	2	Temperatura media	14.3
2510	7	Sololá	701	Sololá	2	El tablón	11	Noviembre	2023-11-16T00:00:00	2024-11-08T19:00:00	4	Temperatura máxima	14.9
2511	7	Sololá	701	Sololá	2	El tablón	11	Noviembre	2023-11-16T00:00:00	2024-11-08T19:00:00	3	Temperatura mínima	14.3
2512	7	Sololá	701	Sololá	2	El tablón	11	Noviembre	2023-11-16T00:00:00	2024-11-08T19:00:00	5	Humedad	87
2513	7	Sololá	701	Sololá	2	El tablón	11	Noviembre	2023-11-16T00:00:00	2024-11-08T19:00:00	6	Velocidad del viento	8
2514	7	Sololá	701	Sololá	2	El tablón	11	Noviembre	2023-11-16T00:00:00	2024-11-08T19:00:00	7	Dirección del viento	8.05
2515	7	Sololá	701	Sololá	2	El tablón	11	Noviembre	2023-11-16T00:00:00	2024-11-08T19:00:00	1	Precipitación	0
2516	7	Sololá	701	Sololá	2	El tablón	11	Noviembre	2023-11-16T00:00:00	2024-11-08T19:00:00	8	Radiación solar	0
2517	7	Sololá	701	Sololá	2	El tablón	11	Noviembre	2023-11-16T00:00:00	2024-11-08T20:00:00	2	Temperatura media	13.8
2518	7	Sololá	701	Sololá	2	El tablón	11	Noviembre	2023-11-16T00:00:00	2024-11-08T20:00:00	4	Temperatura máxima	14.4
2519	7	Sololá	701	Sololá	2	El tablón	11	Noviembre	2023-11-16T00:00:00	2024-11-08T20:00:00	3	Temperatura mínima	13.8
2520	7	Sololá	701	Sololá	2	El tablón	11	Noviembre	2023-11-16T00:00:00	2024-11-08T20:00:00	5	Humedad	87
2521	7	Sololá	701	Sololá	2	El tablón	11	Noviembre	2023-11-16T00:00:00	2024-11-08T20:00:00	6	Velocidad del viento	8
2522	7	Sololá	701	Sololá	2	El tablón	11	Noviembre	2023-11-16T00:00:00	2024-11-08T20:00:00	7	Dirección del viento	8.05
2523	7	Sololá	701	Sololá	2	El tablón	11	Noviembre	2023-11-16T00:00:00	2024-11-08T20:00:00	1	Precipitación	0
2524	7	Sololá	701	Sololá	2	El tablón	11	Noviembre	2023-11-16T00:00:00	2024-11-08T20:00:00	8	Radiación solar	0
2525	7	Sololá	701	Sololá	2	El tablón	11	Noviembre	2023-11-16T00:00:00	2024-11-08T21:00:00	2	Temperatura media	13.6
2526	7	Sololá	701	Sololá	2	El tablón	11	Noviembre	2023-11-16T00:00:00	2024-11-08T21:00:00	4	Temperatura máxima	13.8
2527	7	Sololá	701	Sololá	2	El tablón	11	Noviembre	2023-11-16T00:00:00	2024-11-08T21:00:00	3	Temperatura mínima	13.6
2528	7	Sololá	701	Sololá	2	El tablón	11	Noviembre	2023-11-16T00:00:00	2024-11-08T21:00:00	5	Humedad	87
2529	7	Sololá	701	Sololá	2	El tablón	11	Noviembre	2023-11-16T00:00:00	2024-11-08T21:00:00	6	Velocidad del viento	4.8
2530	7	Sololá	701	Sololá	2	El tablón	11	Noviembre	2023-11-16T00:00:00	2024-11-08T21:00:00	7	Dirección del viento	4.83
2531	7	Sololá	701	Sololá	2	El tablón	11	Noviembre	2023-11-16T00:00:00	2024-11-08T21:00:00	1	Precipitación	0
2532	7	Sololá	701	Sololá	2	El tablón	11	Noviembre	2023-11-16T00:00:00	2024-11-08T21:00:00	8	Radiación solar	0
2533	7	Sololá	701	Sololá	2	El tablón	11	Noviembre	2023-11-16T00:00:00	2024-11-08T22:00:00	2	Temperatura media	13.2
2534	7	Sololá	701	Sololá	2	El tablón	11	Noviembre	2023-11-16T00:00:00	2024-11-08T22:00:00	4	Temperatura máxima	13.6
2535	7	Sololá	701	Sololá	2	El tablón	11	Noviembre	2023-11-16T00:00:00	2024-11-08T22:00:00	3	Temperatura mínima	13.2
2536	7	Sololá	701	Sololá	2	El tablón	11	Noviembre	2023-11-16T00:00:00	2024-11-08T22:00:00	5	Humedad	88
2537	7	Sololá	701	Sololá	2	El tablón	11	Noviembre	2023-11-16T00:00:00	2024-11-08T22:00:00	6	Velocidad del viento	4.8
2538	7	Sololá	701	Sololá	2	El tablón	11	Noviembre	2023-11-16T00:00:00	2024-11-08T22:00:00	7	Dirección del viento	4.83
2539	7	Sololá	701	Sololá	2	El tablón	11	Noviembre	2023-11-16T00:00:00	2024-11-08T22:00:00	1	Precipitación	0
2540	7	Sololá	701	Sololá	2	El tablón	11	Noviembre	2023-11-16T00:00:00	2024-11-08T22:00:00	8	Radiación solar	0
2541	7	Sololá	701	Sololá	2	El tablón	11	Noviembre	2023-11-16T00:00:00	2024-11-08T23:00:00	2	Temperatura media	13.3
2542	7	Sololá	701	Sololá	2	El tablón	11	Noviembre	2023-11-16T00:00:00	2024-11-08T23:00:00	4	Temperatura máxima	13.3
2543	7	Sololá	701	Sololá	2	El tablón	11	Noviembre	2023-11-16T00:00:00	2024-11-08T23:00:00	3	Temperatura mínima	13.1
2544	7	Sololá	701	Sololá	2	El tablón	11	Noviembre	2023-11-16T00:00:00	2024-11-08T23:00:00	5	Humedad	88
2545	7	Sololá	701	Sololá	2	El tablón	11	Noviembre	2023-11-16T00:00:00	2024-11-08T23:00:00	6	Velocidad del viento	4.8
2546	7	Sololá	701	Sololá	2	El tablón	11	Noviembre	2023-11-16T00:00:00	2024-11-08T23:00:00	7	Dirección del viento	4.83
2547	7	Sololá	701	Sololá	2	El tablón	11	Noviembre	2023-11-16T00:00:00	2024-11-08T23:00:00	1	Precipitación	0
2548	7	Sololá	701	Sololá	2	El tablón	11	Noviembre	2023-11-16T00:00:00	2024-11-08T23:00:00	8	Radiación solar	0
2549	7	Sololá	701	Sololá	2	El tablón	11	Noviembre	2023-11-17T00:00:00	2024-11-08T00:00:00	2	Temperatura media	13.2
2550	7	Sololá	701	Sololá	2	El tablón	11	Noviembre	2023-11-17T00:00:00	2024-11-08T00:00:00	4	Temperatura máxima	13.5
2551	7	Sololá	701	Sololá	2	El tablón	11	Noviembre	2023-11-17T00:00:00	2024-11-08T00:00:00	3	Temperatura mínima	13.2
2552	7	Sololá	701	Sololá	2	El tablón	11	Noviembre	2023-11-17T00:00:00	2024-11-08T00:00:00	5	Humedad	89
2553	7	Sololá	701	Sololá	2	El tablón	11	Noviembre	2023-11-17T00:00:00	2024-11-08T00:00:00	6	Velocidad del viento	4.8
2554	7	Sololá	701	Sololá	2	El tablón	11	Noviembre	2023-11-17T00:00:00	2024-11-08T00:00:00	7	Dirección del viento	4.83
2555	7	Sololá	701	Sololá	2	El tablón	11	Noviembre	2023-11-17T00:00:00	2024-11-08T00:00:00	1	Precipitación	0
2556	7	Sololá	701	Sololá	2	El tablón	11	Noviembre	2023-11-17T00:00:00	2024-11-08T00:00:00	8	Radiación solar	0
2557	7	Sololá	701	Sololá	2	El tablón	11	Noviembre	2023-11-17T00:00:00	2024-11-08T01:00:00	2	Temperatura media	12.7
2558	7	Sololá	701	Sololá	2	El tablón	11	Noviembre	2023-11-17T00:00:00	2024-11-08T01:00:00	4	Temperatura máxima	13.2
2559	7	Sololá	701	Sololá	2	El tablón	11	Noviembre	2023-11-17T00:00:00	2024-11-08T01:00:00	3	Temperatura mínima	12.7
2560	7	Sololá	701	Sololá	2	El tablón	11	Noviembre	2023-11-17T00:00:00	2024-11-08T01:00:00	5	Humedad	89
2561	7	Sololá	701	Sololá	2	El tablón	11	Noviembre	2023-11-17T00:00:00	2024-11-08T01:00:00	6	Velocidad del viento	4.8
2562	7	Sololá	701	Sololá	2	El tablón	11	Noviembre	2023-11-17T00:00:00	2024-11-08T01:00:00	7	Dirección del viento	4.83
2563	7	Sololá	701	Sololá	2	El tablón	11	Noviembre	2023-11-17T00:00:00	2024-11-08T01:00:00	1	Precipitación	0
2564	7	Sololá	701	Sololá	2	El tablón	11	Noviembre	2023-11-17T00:00:00	2024-11-08T01:00:00	8	Radiación solar	0
2565	7	Sololá	701	Sololá	2	El tablón	11	Noviembre	2023-11-17T00:00:00	2024-11-08T02:00:00	2	Temperatura media	12.7
2566	7	Sololá	701	Sololá	2	El tablón	11	Noviembre	2023-11-17T00:00:00	2024-11-08T02:00:00	4	Temperatura máxima	12.8
2567	7	Sololá	701	Sololá	2	El tablón	11	Noviembre	2023-11-17T00:00:00	2024-11-08T02:00:00	3	Temperatura mínima	12.6
2568	7	Sololá	701	Sololá	2	El tablón	11	Noviembre	2023-11-17T00:00:00	2024-11-08T02:00:00	5	Humedad	88
2569	7	Sololá	701	Sololá	2	El tablón	11	Noviembre	2023-11-17T00:00:00	2024-11-08T02:00:00	6	Velocidad del viento	1.6
2570	7	Sololá	701	Sololá	2	El tablón	11	Noviembre	2023-11-17T00:00:00	2024-11-08T02:00:00	7	Dirección del viento	1.61
2571	7	Sololá	701	Sololá	2	El tablón	11	Noviembre	2023-11-17T00:00:00	2024-11-08T02:00:00	1	Precipitación	0
2572	7	Sololá	701	Sololá	2	El tablón	11	Noviembre	2023-11-17T00:00:00	2024-11-08T02:00:00	8	Radiación solar	0
2573	7	Sololá	701	Sololá	2	El tablón	11	Noviembre	2023-11-17T00:00:00	2024-11-08T03:00:00	2	Temperatura media	12.3
2574	7	Sololá	701	Sololá	2	El tablón	11	Noviembre	2023-11-17T00:00:00	2024-11-08T03:00:00	4	Temperatura máxima	12.7
2575	7	Sololá	701	Sololá	2	El tablón	11	Noviembre	2023-11-17T00:00:00	2024-11-08T03:00:00	3	Temperatura mínima	12.3
2576	7	Sololá	701	Sololá	2	El tablón	11	Noviembre	2023-11-17T00:00:00	2024-11-08T03:00:00	5	Humedad	88
2577	7	Sololá	701	Sololá	2	El tablón	11	Noviembre	2023-11-17T00:00:00	2024-11-08T03:00:00	6	Velocidad del viento	0
2578	7	Sololá	701	Sololá	2	El tablón	11	Noviembre	2023-11-17T00:00:00	2024-11-08T03:00:00	7	Dirección del viento	0
2579	7	Sololá	701	Sololá	2	El tablón	11	Noviembre	2023-11-17T00:00:00	2024-11-08T03:00:00	1	Precipitación	0
2580	7	Sololá	701	Sololá	2	El tablón	11	Noviembre	2023-11-17T00:00:00	2024-11-08T03:00:00	8	Radiación solar	0
2581	7	Sololá	701	Sololá	2	El tablón	11	Noviembre	2023-11-17T00:00:00	2024-11-08T04:00:00	2	Temperatura media	11.6
2582	7	Sololá	701	Sololá	2	El tablón	11	Noviembre	2023-11-17T00:00:00	2024-11-08T04:00:00	4	Temperatura máxima	12.3
2583	7	Sololá	701	Sololá	2	El tablón	11	Noviembre	2023-11-17T00:00:00	2024-11-08T04:00:00	3	Temperatura mínima	11.5
2584	7	Sololá	701	Sololá	2	El tablón	11	Noviembre	2023-11-17T00:00:00	2024-11-08T04:00:00	5	Humedad	89
2585	7	Sololá	701	Sololá	2	El tablón	11	Noviembre	2023-11-17T00:00:00	2024-11-08T04:00:00	6	Velocidad del viento	3.2
2586	7	Sololá	701	Sololá	2	El tablón	11	Noviembre	2023-11-17T00:00:00	2024-11-08T04:00:00	7	Dirección del viento	3.22
2587	7	Sololá	701	Sololá	2	El tablón	11	Noviembre	2023-11-17T00:00:00	2024-11-08T04:00:00	1	Precipitación	0
2588	7	Sololá	701	Sololá	2	El tablón	11	Noviembre	2023-11-17T00:00:00	2024-11-08T04:00:00	8	Radiación solar	0
2589	7	Sololá	701	Sololá	2	El tablón	11	Noviembre	2023-11-17T00:00:00	2024-11-08T05:00:00	2	Temperatura media	10.5
2590	7	Sololá	701	Sololá	2	El tablón	11	Noviembre	2023-11-17T00:00:00	2024-11-08T05:00:00	4	Temperatura máxima	11.6
2591	7	Sololá	701	Sololá	2	El tablón	11	Noviembre	2023-11-17T00:00:00	2024-11-08T05:00:00	3	Temperatura mínima	10.5
2592	7	Sololá	701	Sololá	2	El tablón	11	Noviembre	2023-11-17T00:00:00	2024-11-08T05:00:00	5	Humedad	89
2593	7	Sololá	701	Sololá	2	El tablón	11	Noviembre	2023-11-17T00:00:00	2024-11-08T05:00:00	6	Velocidad del viento	3.2
2594	7	Sololá	701	Sololá	2	El tablón	11	Noviembre	2023-11-17T00:00:00	2024-11-08T05:00:00	7	Dirección del viento	3.22
2595	7	Sololá	701	Sololá	2	El tablón	11	Noviembre	2023-11-17T00:00:00	2024-11-08T05:00:00	1	Precipitación	0
2596	7	Sololá	701	Sololá	2	El tablón	11	Noviembre	2023-11-17T00:00:00	2024-11-08T05:00:00	8	Radiación solar	0
2597	7	Sololá	701	Sololá	2	El tablón	11	Noviembre	2023-11-17T00:00:00	2024-11-08T06:00:00	2	Temperatura media	10.2
2598	7	Sololá	701	Sololá	2	El tablón	11	Noviembre	2023-11-17T00:00:00	2024-11-08T06:00:00	4	Temperatura máxima	10.6
2599	7	Sololá	701	Sololá	2	El tablón	11	Noviembre	2023-11-17T00:00:00	2024-11-08T06:00:00	3	Temperatura mínima	10.2
2600	7	Sololá	701	Sololá	2	El tablón	11	Noviembre	2023-11-17T00:00:00	2024-11-08T06:00:00	5	Humedad	89
2601	7	Sololá	701	Sololá	2	El tablón	11	Noviembre	2023-11-17T00:00:00	2024-11-08T06:00:00	6	Velocidad del viento	4.8
2602	7	Sololá	701	Sololá	2	El tablón	11	Noviembre	2023-11-17T00:00:00	2024-11-08T06:00:00	7	Dirección del viento	4.83
2603	7	Sololá	701	Sololá	2	El tablón	11	Noviembre	2023-11-17T00:00:00	2024-11-08T06:00:00	1	Precipitación	0
2604	7	Sololá	701	Sololá	2	El tablón	11	Noviembre	2023-11-17T00:00:00	2024-11-08T06:00:00	8	Radiación solar	0
2605	7	Sololá	701	Sololá	2	El tablón	11	Noviembre	2023-11-17T00:00:00	2024-11-08T07:00:00	2	Temperatura media	11.2
2606	7	Sololá	701	Sololá	2	El tablón	11	Noviembre	2023-11-17T00:00:00	2024-11-08T07:00:00	4	Temperatura máxima	11.2
2607	7	Sololá	701	Sololá	2	El tablón	11	Noviembre	2023-11-17T00:00:00	2024-11-08T07:00:00	3	Temperatura mínima	10.1
2608	7	Sololá	701	Sololá	2	El tablón	11	Noviembre	2023-11-17T00:00:00	2024-11-08T07:00:00	5	Humedad	85
2609	7	Sololá	701	Sololá	2	El tablón	11	Noviembre	2023-11-17T00:00:00	2024-11-08T07:00:00	6	Velocidad del viento	3.2
2610	7	Sololá	701	Sololá	2	El tablón	11	Noviembre	2023-11-17T00:00:00	2024-11-08T07:00:00	7	Dirección del viento	3.22
2611	7	Sololá	701	Sololá	2	El tablón	11	Noviembre	2023-11-17T00:00:00	2024-11-08T07:00:00	1	Precipitación	0
2612	7	Sololá	701	Sololá	2	El tablón	11	Noviembre	2023-11-17T00:00:00	2024-11-08T07:00:00	8	Radiación solar	37
2613	7	Sololá	701	Sololá	2	El tablón	11	Noviembre	2023-11-17T00:00:00	2024-11-08T08:00:00	2	Temperatura media	15.5
2614	7	Sololá	701	Sololá	2	El tablón	11	Noviembre	2023-11-17T00:00:00	2024-11-08T08:00:00	4	Temperatura máxima	15.5
2615	7	Sololá	701	Sololá	2	El tablón	11	Noviembre	2023-11-17T00:00:00	2024-11-08T08:00:00	3	Temperatura mínima	11.2
2616	7	Sololá	701	Sololá	2	El tablón	11	Noviembre	2023-11-17T00:00:00	2024-11-08T08:00:00	5	Humedad	80
2617	7	Sololá	701	Sololá	2	El tablón	11	Noviembre	2023-11-17T00:00:00	2024-11-08T08:00:00	6	Velocidad del viento	1.6
2618	7	Sololá	701	Sololá	2	El tablón	11	Noviembre	2023-11-17T00:00:00	2024-11-08T08:00:00	7	Dirección del viento	1.61
2619	7	Sololá	701	Sololá	2	El tablón	11	Noviembre	2023-11-17T00:00:00	2024-11-08T08:00:00	1	Precipitación	0
2620	7	Sololá	701	Sololá	2	El tablón	11	Noviembre	2023-11-17T00:00:00	2024-11-08T08:00:00	8	Radiación solar	223
2621	7	Sololá	701	Sololá	2	El tablón	11	Noviembre	2023-11-17T00:00:00	2024-11-08T09:00:00	2	Temperatura media	16
2622	7	Sololá	701	Sololá	2	El tablón	11	Noviembre	2023-11-17T00:00:00	2024-11-08T09:00:00	4	Temperatura máxima	16
2623	7	Sololá	701	Sololá	2	El tablón	11	Noviembre	2023-11-17T00:00:00	2024-11-08T09:00:00	3	Temperatura mínima	15.4
2624	7	Sololá	701	Sololá	2	El tablón	11	Noviembre	2023-11-17T00:00:00	2024-11-08T09:00:00	5	Humedad	82
2625	7	Sololá	701	Sololá	2	El tablón	11	Noviembre	2023-11-17T00:00:00	2024-11-08T09:00:00	6	Velocidad del viento	4.8
2626	7	Sololá	701	Sololá	2	El tablón	11	Noviembre	2023-11-17T00:00:00	2024-11-08T09:00:00	7	Dirección del viento	4.83
2627	7	Sololá	701	Sololá	2	El tablón	11	Noviembre	2023-11-17T00:00:00	2024-11-08T09:00:00	1	Precipitación	0
2628	7	Sololá	701	Sololá	2	El tablón	11	Noviembre	2023-11-17T00:00:00	2024-11-08T09:00:00	8	Radiación solar	439
2629	7	Sololá	701	Sololá	2	El tablón	11	Noviembre	2023-11-17T00:00:00	2024-11-08T10:00:00	2	Temperatura media	17.3
2630	7	Sololá	701	Sololá	2	El tablón	11	Noviembre	2023-11-17T00:00:00	2024-11-08T10:00:00	4	Temperatura máxima	17.3
2631	7	Sololá	701	Sololá	2	El tablón	11	Noviembre	2023-11-17T00:00:00	2024-11-08T10:00:00	3	Temperatura mínima	16
2632	7	Sololá	701	Sololá	2	El tablón	11	Noviembre	2023-11-17T00:00:00	2024-11-08T10:00:00	5	Humedad	78
2633	7	Sololá	701	Sololá	2	El tablón	11	Noviembre	2023-11-17T00:00:00	2024-11-08T10:00:00	6	Velocidad del viento	4.8
2634	7	Sololá	701	Sololá	2	El tablón	11	Noviembre	2023-11-17T00:00:00	2024-11-08T10:00:00	7	Dirección del viento	4.83
2635	7	Sololá	701	Sololá	2	El tablón	11	Noviembre	2023-11-17T00:00:00	2024-11-08T10:00:00	1	Precipitación	0
2636	7	Sololá	701	Sololá	2	El tablón	11	Noviembre	2023-11-17T00:00:00	2024-11-08T10:00:00	8	Radiación solar	637
2637	7	Sololá	701	Sololá	2	El tablón	11	Noviembre	2023-11-17T00:00:00	2024-11-08T11:00:00	2	Temperatura media	17.2
2638	7	Sololá	701	Sololá	2	El tablón	11	Noviembre	2023-11-17T00:00:00	2024-11-08T11:00:00	4	Temperatura máxima	17.6
2639	7	Sololá	701	Sololá	2	El tablón	11	Noviembre	2023-11-17T00:00:00	2024-11-08T11:00:00	3	Temperatura mínima	16.8
2640	7	Sololá	701	Sololá	2	El tablón	11	Noviembre	2023-11-17T00:00:00	2024-11-08T11:00:00	5	Humedad	77
2641	7	Sololá	701	Sololá	2	El tablón	11	Noviembre	2023-11-17T00:00:00	2024-11-08T11:00:00	6	Velocidad del viento	6.4
2642	7	Sololá	701	Sololá	2	El tablón	11	Noviembre	2023-11-17T00:00:00	2024-11-08T11:00:00	7	Dirección del viento	6.44
2643	7	Sololá	701	Sololá	2	El tablón	11	Noviembre	2023-11-17T00:00:00	2024-11-08T11:00:00	1	Precipitación	0
2644	7	Sololá	701	Sololá	2	El tablón	11	Noviembre	2023-11-17T00:00:00	2024-11-08T11:00:00	8	Radiación solar	740
2645	7	Sololá	701	Sololá	2	El tablón	11	Noviembre	2023-11-17T00:00:00	2024-11-08T12:00:00	2	Temperatura media	17.6
2646	7	Sololá	701	Sololá	2	El tablón	11	Noviembre	2023-11-17T00:00:00	2024-11-08T12:00:00	4	Temperatura máxima	17.8
2647	7	Sololá	701	Sololá	2	El tablón	11	Noviembre	2023-11-17T00:00:00	2024-11-08T12:00:00	3	Temperatura mínima	17.2
2648	7	Sololá	701	Sololá	2	El tablón	11	Noviembre	2023-11-17T00:00:00	2024-11-08T12:00:00	5	Humedad	80
2649	7	Sololá	701	Sololá	2	El tablón	11	Noviembre	2023-11-17T00:00:00	2024-11-08T12:00:00	6	Velocidad del viento	8
2650	7	Sololá	701	Sololá	2	El tablón	11	Noviembre	2023-11-17T00:00:00	2024-11-08T12:00:00	7	Dirección del viento	8.05
2651	7	Sololá	701	Sololá	2	El tablón	11	Noviembre	2023-11-17T00:00:00	2024-11-08T12:00:00	1	Precipitación	0
2652	7	Sololá	701	Sololá	2	El tablón	11	Noviembre	2023-11-17T00:00:00	2024-11-08T12:00:00	8	Radiación solar	734
2653	7	Sololá	701	Sololá	2	El tablón	11	Noviembre	2023-11-17T00:00:00	2024-11-08T13:00:00	2	Temperatura media	16.3
2654	7	Sololá	701	Sololá	2	El tablón	11	Noviembre	2023-11-17T00:00:00	2024-11-08T13:00:00	4	Temperatura máxima	17.6
2655	7	Sololá	701	Sololá	2	El tablón	11	Noviembre	2023-11-17T00:00:00	2024-11-08T13:00:00	3	Temperatura mínima	16.3
2656	7	Sololá	701	Sololá	2	El tablón	11	Noviembre	2023-11-17T00:00:00	2024-11-08T13:00:00	5	Humedad	87
2657	7	Sololá	701	Sololá	2	El tablón	11	Noviembre	2023-11-17T00:00:00	2024-11-08T13:00:00	6	Velocidad del viento	9.7
2658	7	Sololá	701	Sololá	2	El tablón	11	Noviembre	2023-11-17T00:00:00	2024-11-08T13:00:00	7	Dirección del viento	9.66
2659	7	Sololá	701	Sololá	2	El tablón	11	Noviembre	2023-11-17T00:00:00	2024-11-08T13:00:00	1	Precipitación	0
2660	7	Sololá	701	Sololá	2	El tablón	11	Noviembre	2023-11-17T00:00:00	2024-11-08T13:00:00	8	Radiación solar	429
2661	7	Sololá	701	Sololá	2	El tablón	11	Noviembre	2023-11-17T00:00:00	2024-11-08T14:00:00	2	Temperatura media	15.1
2662	7	Sololá	701	Sololá	2	El tablón	11	Noviembre	2023-11-17T00:00:00	2024-11-08T14:00:00	4	Temperatura máxima	16.3
2663	7	Sololá	701	Sololá	2	El tablón	11	Noviembre	2023-11-17T00:00:00	2024-11-08T14:00:00	3	Temperatura mínima	15
2664	7	Sololá	701	Sololá	2	El tablón	11	Noviembre	2023-11-17T00:00:00	2024-11-08T14:00:00	5	Humedad	88
2665	7	Sololá	701	Sololá	2	El tablón	11	Noviembre	2023-11-17T00:00:00	2024-11-08T14:00:00	6	Velocidad del viento	8
2666	7	Sololá	701	Sololá	2	El tablón	11	Noviembre	2023-11-17T00:00:00	2024-11-08T14:00:00	7	Dirección del viento	8.05
2667	7	Sololá	701	Sololá	2	El tablón	11	Noviembre	2023-11-17T00:00:00	2024-11-08T14:00:00	1	Precipitación	0
2668	7	Sololá	701	Sololá	2	El tablón	11	Noviembre	2023-11-17T00:00:00	2024-11-08T14:00:00	8	Radiación solar	175
2669	7	Sololá	701	Sololá	2	El tablón	11	Noviembre	2023-11-17T00:00:00	2024-11-08T15:00:00	2	Temperatura media	15.1
2670	7	Sololá	701	Sololá	2	El tablón	11	Noviembre	2023-11-17T00:00:00	2024-11-08T15:00:00	4	Temperatura máxima	15.8
2671	7	Sololá	701	Sololá	2	El tablón	11	Noviembre	2023-11-17T00:00:00	2024-11-08T15:00:00	3	Temperatura mínima	15.1
2672	7	Sololá	701	Sololá	2	El tablón	11	Noviembre	2023-11-17T00:00:00	2024-11-08T15:00:00	5	Humedad	88
2673	7	Sololá	701	Sololá	2	El tablón	11	Noviembre	2023-11-17T00:00:00	2024-11-08T15:00:00	6	Velocidad del viento	6.4
2674	7	Sololá	701	Sololá	2	El tablón	11	Noviembre	2023-11-17T00:00:00	2024-11-08T15:00:00	7	Dirección del viento	6.44
2675	7	Sololá	701	Sololá	2	El tablón	11	Noviembre	2023-11-17T00:00:00	2024-11-08T15:00:00	1	Precipitación	0
2676	7	Sololá	701	Sololá	2	El tablón	11	Noviembre	2023-11-17T00:00:00	2024-11-08T15:00:00	8	Radiación solar	191
2677	7	Sololá	701	Sololá	2	El tablón	11	Noviembre	2023-11-17T00:00:00	2024-11-08T16:00:00	2	Temperatura media	14.6
2678	7	Sololá	701	Sololá	2	El tablón	11	Noviembre	2023-11-17T00:00:00	2024-11-08T16:00:00	4	Temperatura máxima	15.2
2679	7	Sololá	701	Sololá	2	El tablón	11	Noviembre	2023-11-17T00:00:00	2024-11-08T16:00:00	3	Temperatura mínima	14.6
2680	7	Sololá	701	Sololá	2	El tablón	11	Noviembre	2023-11-17T00:00:00	2024-11-08T16:00:00	5	Humedad	88
2681	7	Sololá	701	Sololá	2	El tablón	11	Noviembre	2023-11-17T00:00:00	2024-11-08T16:00:00	6	Velocidad del viento	6.4
2682	7	Sololá	701	Sololá	2	El tablón	11	Noviembre	2023-11-17T00:00:00	2024-11-08T16:00:00	7	Dirección del viento	6.44
2683	7	Sololá	701	Sololá	2	El tablón	11	Noviembre	2023-11-17T00:00:00	2024-11-08T16:00:00	1	Precipitación	0
2684	7	Sololá	701	Sololá	2	El tablón	11	Noviembre	2023-11-17T00:00:00	2024-11-08T16:00:00	8	Radiación solar	64
2685	7	Sololá	701	Sololá	2	El tablón	11	Noviembre	2023-11-17T00:00:00	2024-11-08T17:00:00	2	Temperatura media	14.8
2686	7	Sololá	701	Sololá	2	El tablón	11	Noviembre	2023-11-17T00:00:00	2024-11-08T17:00:00	4	Temperatura máxima	14.8
2687	7	Sololá	701	Sololá	2	El tablón	11	Noviembre	2023-11-17T00:00:00	2024-11-08T17:00:00	3	Temperatura mínima	14.5
2688	7	Sololá	701	Sololá	2	El tablón	11	Noviembre	2023-11-17T00:00:00	2024-11-08T17:00:00	5	Humedad	88
2689	7	Sololá	701	Sololá	2	El tablón	11	Noviembre	2023-11-17T00:00:00	2024-11-08T17:00:00	6	Velocidad del viento	3.2
2690	7	Sololá	701	Sololá	2	El tablón	11	Noviembre	2023-11-17T00:00:00	2024-11-08T17:00:00	7	Dirección del viento	3.22
2691	7	Sololá	701	Sololá	2	El tablón	11	Noviembre	2023-11-17T00:00:00	2024-11-08T17:00:00	1	Precipitación	0
2692	7	Sololá	701	Sololá	2	El tablón	11	Noviembre	2023-11-17T00:00:00	2024-11-08T17:00:00	8	Radiación solar	33
2693	7	Sololá	701	Sololá	2	El tablón	11	Noviembre	2023-11-17T00:00:00	2024-11-08T18:00:00	2	Temperatura media	14.1
2694	7	Sololá	701	Sololá	2	El tablón	11	Noviembre	2023-11-17T00:00:00	2024-11-08T18:00:00	4	Temperatura máxima	14.8
2695	7	Sololá	701	Sololá	2	El tablón	11	Noviembre	2023-11-17T00:00:00	2024-11-08T18:00:00	3	Temperatura mínima	14.1
2696	7	Sololá	701	Sololá	2	El tablón	11	Noviembre	2023-11-17T00:00:00	2024-11-08T18:00:00	5	Humedad	88
2697	7	Sololá	701	Sololá	2	El tablón	11	Noviembre	2023-11-17T00:00:00	2024-11-08T18:00:00	6	Velocidad del viento	1.6
2698	7	Sololá	701	Sololá	2	El tablón	11	Noviembre	2023-11-17T00:00:00	2024-11-08T18:00:00	7	Dirección del viento	1.61
2699	7	Sololá	701	Sololá	2	El tablón	11	Noviembre	2023-11-17T00:00:00	2024-11-08T18:00:00	1	Precipitación	0
2700	7	Sololá	701	Sololá	2	El tablón	11	Noviembre	2023-11-17T00:00:00	2024-11-08T18:00:00	8	Radiación solar	4
2701	7	Sololá	701	Sololá	2	El tablón	11	Noviembre	2023-11-17T00:00:00	2024-11-08T19:00:00	2	Temperatura media	14.1
2702	7	Sololá	701	Sololá	2	El tablón	11	Noviembre	2023-11-17T00:00:00	2024-11-08T19:00:00	4	Temperatura máxima	14.2
2703	7	Sololá	701	Sololá	2	El tablón	11	Noviembre	2023-11-17T00:00:00	2024-11-08T19:00:00	3	Temperatura mínima	14
2704	7	Sololá	701	Sololá	2	El tablón	11	Noviembre	2023-11-17T00:00:00	2024-11-08T19:00:00	5	Humedad	88
2705	7	Sololá	701	Sololá	2	El tablón	11	Noviembre	2023-11-17T00:00:00	2024-11-08T19:00:00	6	Velocidad del viento	1.6
2706	7	Sololá	701	Sololá	2	El tablón	11	Noviembre	2023-11-17T00:00:00	2024-11-08T19:00:00	7	Dirección del viento	1.61
2707	7	Sololá	701	Sololá	2	El tablón	11	Noviembre	2023-11-17T00:00:00	2024-11-08T19:00:00	1	Precipitación	0
2708	7	Sololá	701	Sololá	2	El tablón	11	Noviembre	2023-11-17T00:00:00	2024-11-08T19:00:00	8	Radiación solar	0
2709	7	Sololá	701	Sololá	2	El tablón	11	Noviembre	2023-11-17T00:00:00	2024-11-08T20:00:00	2	Temperatura media	14.2
2710	7	Sololá	701	Sololá	2	El tablón	11	Noviembre	2023-11-17T00:00:00	2024-11-08T20:00:00	4	Temperatura máxima	14.3
2711	7	Sololá	701	Sololá	2	El tablón	11	Noviembre	2023-11-17T00:00:00	2024-11-08T20:00:00	3	Temperatura mínima	14
2712	7	Sololá	701	Sololá	2	El tablón	11	Noviembre	2023-11-17T00:00:00	2024-11-08T20:00:00	5	Humedad	87
2713	7	Sololá	701	Sololá	2	El tablón	11	Noviembre	2023-11-17T00:00:00	2024-11-08T20:00:00	6	Velocidad del viento	1.6
2714	7	Sololá	701	Sololá	2	El tablón	11	Noviembre	2023-11-17T00:00:00	2024-11-08T20:00:00	7	Dirección del viento	1.61
2715	7	Sololá	701	Sololá	2	El tablón	11	Noviembre	2023-11-17T00:00:00	2024-11-08T20:00:00	1	Precipitación	0
2716	7	Sololá	701	Sololá	2	El tablón	11	Noviembre	2023-11-17T00:00:00	2024-11-08T20:00:00	8	Radiación solar	0
2717	7	Sololá	701	Sololá	2	El tablón	11	Noviembre	2023-11-17T00:00:00	2024-11-08T21:00:00	2	Temperatura media	13.3
2718	7	Sololá	701	Sololá	2	El tablón	11	Noviembre	2023-11-17T00:00:00	2024-11-08T21:00:00	4	Temperatura máxima	14.2
2719	7	Sololá	701	Sololá	2	El tablón	11	Noviembre	2023-11-17T00:00:00	2024-11-08T21:00:00	3	Temperatura mínima	13.3
2720	7	Sololá	701	Sololá	2	El tablón	11	Noviembre	2023-11-17T00:00:00	2024-11-08T21:00:00	5	Humedad	87
2721	7	Sololá	701	Sololá	2	El tablón	11	Noviembre	2023-11-17T00:00:00	2024-11-08T21:00:00	6	Velocidad del viento	3.2
2722	7	Sololá	701	Sololá	2	El tablón	11	Noviembre	2023-11-17T00:00:00	2024-11-08T21:00:00	7	Dirección del viento	3.22
2723	7	Sololá	701	Sololá	2	El tablón	11	Noviembre	2023-11-17T00:00:00	2024-11-08T21:00:00	1	Precipitación	0
2724	7	Sololá	701	Sololá	2	El tablón	11	Noviembre	2023-11-17T00:00:00	2024-11-08T21:00:00	8	Radiación solar	0
2725	7	Sololá	701	Sololá	2	El tablón	11	Noviembre	2023-11-17T00:00:00	2024-11-08T22:00:00	2	Temperatura media	13.3
2726	7	Sololá	701	Sololá	2	El tablón	11	Noviembre	2023-11-17T00:00:00	2024-11-08T22:00:00	4	Temperatura máxima	13.4
2727	7	Sololá	701	Sololá	2	El tablón	11	Noviembre	2023-11-17T00:00:00	2024-11-08T22:00:00	3	Temperatura mínima	13.3
2728	7	Sololá	701	Sololá	2	El tablón	11	Noviembre	2023-11-17T00:00:00	2024-11-08T22:00:00	5	Humedad	86
2729	7	Sololá	701	Sololá	2	El tablón	11	Noviembre	2023-11-17T00:00:00	2024-11-08T22:00:00	6	Velocidad del viento	1.6
2730	7	Sololá	701	Sololá	2	El tablón	11	Noviembre	2023-11-17T00:00:00	2024-11-08T22:00:00	7	Dirección del viento	1.61
2731	7	Sololá	701	Sololá	2	El tablón	11	Noviembre	2023-11-17T00:00:00	2024-11-08T22:00:00	1	Precipitación	0.8
2732	7	Sololá	701	Sololá	2	El tablón	11	Noviembre	2023-11-17T00:00:00	2024-11-08T22:00:00	8	Radiación solar	0
2733	7	Sololá	701	Sololá	2	El tablón	11	Noviembre	2023-11-17T00:00:00	2024-11-08T23:00:00	2	Temperatura media	13.4
2734	7	Sololá	701	Sololá	2	El tablón	11	Noviembre	2023-11-17T00:00:00	2024-11-08T23:00:00	4	Temperatura máxima	13.4
2735	7	Sololá	701	Sololá	2	El tablón	11	Noviembre	2023-11-17T00:00:00	2024-11-08T23:00:00	3	Temperatura mínima	13.3
2736	7	Sololá	701	Sololá	2	El tablón	11	Noviembre	2023-11-17T00:00:00	2024-11-08T23:00:00	5	Humedad	86
2737	7	Sololá	701	Sololá	2	El tablón	11	Noviembre	2023-11-17T00:00:00	2024-11-08T23:00:00	6	Velocidad del viento	0
2738	7	Sololá	701	Sololá	2	El tablón	11	Noviembre	2023-11-17T00:00:00	2024-11-08T23:00:00	7	Dirección del viento	0
2739	7	Sololá	701	Sololá	2	El tablón	11	Noviembre	2023-11-17T00:00:00	2024-11-08T23:00:00	1	Precipitación	0.4
2740	7	Sololá	701	Sololá	2	El tablón	11	Noviembre	2023-11-17T00:00:00	2024-11-08T23:00:00	8	Radiación solar	0
2741	7	Sololá	701	Sololá	2	El tablón	11	Noviembre	2023-11-18T00:00:00	2024-11-08T00:00:00	2	Temperatura media	13.3
2742	7	Sololá	701	Sololá	2	El tablón	11	Noviembre	2023-11-18T00:00:00	2024-11-08T00:00:00	4	Temperatura máxima	13.4
2743	7	Sololá	701	Sololá	2	El tablón	11	Noviembre	2023-11-18T00:00:00	2024-11-08T00:00:00	3	Temperatura mínima	13.3
2744	7	Sololá	701	Sololá	2	El tablón	11	Noviembre	2023-11-18T00:00:00	2024-11-08T00:00:00	5	Humedad	86
2745	7	Sololá	701	Sololá	2	El tablón	11	Noviembre	2023-11-18T00:00:00	2024-11-08T00:00:00	6	Velocidad del viento	0
2746	7	Sololá	701	Sololá	2	El tablón	11	Noviembre	2023-11-18T00:00:00	2024-11-08T00:00:00	7	Dirección del viento	0
2747	7	Sololá	701	Sololá	2	El tablón	11	Noviembre	2023-11-18T00:00:00	2024-11-08T00:00:00	1	Precipitación	0
2748	7	Sololá	701	Sololá	2	El tablón	11	Noviembre	2023-11-18T00:00:00	2024-11-08T00:00:00	8	Radiación solar	0
2749	7	Sololá	701	Sololá	2	El tablón	11	Noviembre	2023-11-18T00:00:00	2024-11-08T01:00:00	2	Temperatura media	13.1
2750	7	Sololá	701	Sololá	2	El tablón	11	Noviembre	2023-11-18T00:00:00	2024-11-08T01:00:00	4	Temperatura máxima	13.3
2751	7	Sololá	701	Sololá	2	El tablón	11	Noviembre	2023-11-18T00:00:00	2024-11-08T01:00:00	3	Temperatura mínima	13.1
2752	7	Sololá	701	Sololá	2	El tablón	11	Noviembre	2023-11-18T00:00:00	2024-11-08T01:00:00	5	Humedad	85
2753	7	Sololá	701	Sololá	2	El tablón	11	Noviembre	2023-11-18T00:00:00	2024-11-08T01:00:00	6	Velocidad del viento	1.6
2754	7	Sololá	701	Sololá	2	El tablón	11	Noviembre	2023-11-18T00:00:00	2024-11-08T01:00:00	7	Dirección del viento	1.61
2755	7	Sololá	701	Sololá	2	El tablón	11	Noviembre	2023-11-18T00:00:00	2024-11-08T01:00:00	1	Precipitación	0.2
2756	7	Sololá	701	Sololá	2	El tablón	11	Noviembre	2023-11-18T00:00:00	2024-11-08T01:00:00	8	Radiación solar	0
2757	7	Sololá	701	Sololá	2	El tablón	11	Noviembre	2023-11-18T00:00:00	2024-11-08T02:00:00	2	Temperatura media	13.1
2758	7	Sololá	701	Sololá	2	El tablón	11	Noviembre	2023-11-18T00:00:00	2024-11-08T02:00:00	4	Temperatura máxima	13.2
2759	7	Sololá	701	Sololá	2	El tablón	11	Noviembre	2023-11-18T00:00:00	2024-11-08T02:00:00	3	Temperatura mínima	12.9
2760	7	Sololá	701	Sololá	2	El tablón	11	Noviembre	2023-11-18T00:00:00	2024-11-08T02:00:00	5	Humedad	85
2761	7	Sololá	701	Sololá	2	El tablón	11	Noviembre	2023-11-18T00:00:00	2024-11-08T02:00:00	6	Velocidad del viento	1.6
2762	7	Sololá	701	Sololá	2	El tablón	11	Noviembre	2023-11-18T00:00:00	2024-11-08T02:00:00	7	Dirección del viento	1.61
2763	7	Sololá	701	Sololá	2	El tablón	11	Noviembre	2023-11-18T00:00:00	2024-11-08T02:00:00	1	Precipitación	0.4
2764	7	Sololá	701	Sololá	2	El tablón	11	Noviembre	2023-11-18T00:00:00	2024-11-08T02:00:00	8	Radiación solar	0
2765	7	Sololá	701	Sololá	2	El tablón	11	Noviembre	2023-11-18T00:00:00	2024-11-08T03:00:00	2	Temperatura media	12.8
2766	7	Sololá	701	Sololá	2	El tablón	11	Noviembre	2023-11-18T00:00:00	2024-11-08T03:00:00	4	Temperatura máxima	13.1
2767	7	Sololá	701	Sololá	2	El tablón	11	Noviembre	2023-11-18T00:00:00	2024-11-08T03:00:00	3	Temperatura mínima	12.8
2768	7	Sololá	701	Sololá	2	El tablón	11	Noviembre	2023-11-18T00:00:00	2024-11-08T03:00:00	5	Humedad	85
2769	7	Sololá	701	Sololá	2	El tablón	11	Noviembre	2023-11-18T00:00:00	2024-11-08T03:00:00	6	Velocidad del viento	1.6
2770	7	Sololá	701	Sololá	2	El tablón	11	Noviembre	2023-11-18T00:00:00	2024-11-08T03:00:00	7	Dirección del viento	1.61
2771	7	Sololá	701	Sololá	2	El tablón	11	Noviembre	2023-11-18T00:00:00	2024-11-08T03:00:00	1	Precipitación	0.2
2772	7	Sololá	701	Sololá	2	El tablón	11	Noviembre	2023-11-18T00:00:00	2024-11-08T03:00:00	8	Radiación solar	0
2773	7	Sololá	701	Sololá	2	El tablón	11	Noviembre	2023-11-18T00:00:00	2024-11-08T04:00:00	2	Temperatura media	12.5
2774	7	Sololá	701	Sololá	2	El tablón	11	Noviembre	2023-11-18T00:00:00	2024-11-08T04:00:00	4	Temperatura máxima	12.8
2775	7	Sololá	701	Sololá	2	El tablón	11	Noviembre	2023-11-18T00:00:00	2024-11-08T04:00:00	3	Temperatura mínima	12.5
2776	7	Sololá	701	Sololá	2	El tablón	11	Noviembre	2023-11-18T00:00:00	2024-11-08T04:00:00	5	Humedad	85
2777	7	Sololá	701	Sololá	2	El tablón	11	Noviembre	2023-11-18T00:00:00	2024-11-08T04:00:00	6	Velocidad del viento	1.6
2778	7	Sololá	701	Sololá	2	El tablón	11	Noviembre	2023-11-18T00:00:00	2024-11-08T04:00:00	7	Dirección del viento	1.61
2779	7	Sololá	701	Sololá	2	El tablón	11	Noviembre	2023-11-18T00:00:00	2024-11-08T04:00:00	1	Precipitación	0
2780	7	Sololá	701	Sololá	2	El tablón	11	Noviembre	2023-11-18T00:00:00	2024-11-08T04:00:00	8	Radiación solar	0
2781	7	Sololá	701	Sololá	2	El tablón	11	Noviembre	2023-11-18T00:00:00	2024-11-08T05:00:00	2	Temperatura media	12.2
2782	7	Sololá	701	Sololá	2	El tablón	11	Noviembre	2023-11-18T00:00:00	2024-11-08T05:00:00	4	Temperatura máxima	12.6
2783	7	Sololá	701	Sololá	2	El tablón	11	Noviembre	2023-11-18T00:00:00	2024-11-08T05:00:00	3	Temperatura mínima	12.2
2784	7	Sololá	701	Sololá	2	El tablón	11	Noviembre	2023-11-18T00:00:00	2024-11-08T05:00:00	5	Humedad	85
2785	7	Sololá	701	Sololá	2	El tablón	11	Noviembre	2023-11-18T00:00:00	2024-11-08T05:00:00	6	Velocidad del viento	1.6
2786	7	Sololá	701	Sololá	2	El tablón	11	Noviembre	2023-11-18T00:00:00	2024-11-08T05:00:00	7	Dirección del viento	1.61
2787	7	Sololá	701	Sololá	2	El tablón	11	Noviembre	2023-11-18T00:00:00	2024-11-08T05:00:00	1	Precipitación	0
2788	7	Sololá	701	Sololá	2	El tablón	11	Noviembre	2023-11-18T00:00:00	2024-11-08T05:00:00	8	Radiación solar	0
2789	7	Sololá	701	Sololá	2	El tablón	11	Noviembre	2023-11-18T00:00:00	2024-11-08T06:00:00	2	Temperatura media	11.7
2790	7	Sololá	701	Sololá	2	El tablón	11	Noviembre	2023-11-18T00:00:00	2024-11-08T06:00:00	4	Temperatura máxima	12.2
2791	7	Sololá	701	Sololá	2	El tablón	11	Noviembre	2023-11-18T00:00:00	2024-11-08T06:00:00	3	Temperatura mínima	11.7
2792	7	Sololá	701	Sololá	2	El tablón	11	Noviembre	2023-11-18T00:00:00	2024-11-08T06:00:00	5	Humedad	85
2793	7	Sololá	701	Sololá	2	El tablón	11	Noviembre	2023-11-18T00:00:00	2024-11-08T06:00:00	6	Velocidad del viento	1.6
2794	7	Sololá	701	Sololá	2	El tablón	11	Noviembre	2023-11-18T00:00:00	2024-11-08T06:00:00	7	Dirección del viento	1.61
2795	7	Sololá	701	Sololá	2	El tablón	11	Noviembre	2023-11-18T00:00:00	2024-11-08T06:00:00	1	Precipitación	0.2
2796	7	Sololá	701	Sololá	2	El tablón	11	Noviembre	2023-11-18T00:00:00	2024-11-08T06:00:00	8	Radiación solar	0
2797	7	Sololá	701	Sololá	2	El tablón	11	Noviembre	2023-11-18T00:00:00	2024-11-08T07:00:00	2	Temperatura media	11.6
2798	7	Sololá	701	Sololá	2	El tablón	11	Noviembre	2023-11-18T00:00:00	2024-11-08T07:00:00	4	Temperatura máxima	11.7
2799	7	Sololá	701	Sololá	2	El tablón	11	Noviembre	2023-11-18T00:00:00	2024-11-08T07:00:00	3	Temperatura mínima	11.4
2800	7	Sololá	701	Sololá	2	El tablón	11	Noviembre	2023-11-18T00:00:00	2024-11-08T07:00:00	5	Humedad	85
2801	7	Sololá	701	Sololá	2	El tablón	11	Noviembre	2023-11-18T00:00:00	2024-11-08T07:00:00	6	Velocidad del viento	0
2802	7	Sololá	701	Sololá	2	El tablón	11	Noviembre	2023-11-18T00:00:00	2024-11-08T07:00:00	7	Dirección del viento	0
2803	7	Sololá	701	Sololá	2	El tablón	11	Noviembre	2023-11-18T00:00:00	2024-11-08T07:00:00	1	Precipitación	0
2804	7	Sololá	701	Sololá	2	El tablón	11	Noviembre	2023-11-18T00:00:00	2024-11-08T07:00:00	8	Radiación solar	17
2805	7	Sololá	701	Sololá	2	El tablón	11	Noviembre	2023-11-18T00:00:00	2024-11-08T08:00:00	2	Temperatura media	11.4
2806	7	Sololá	701	Sololá	2	El tablón	11	Noviembre	2023-11-18T00:00:00	2024-11-08T08:00:00	4	Temperatura máxima	11.8
2807	7	Sololá	701	Sololá	2	El tablón	11	Noviembre	2023-11-18T00:00:00	2024-11-08T08:00:00	3	Temperatura mínima	11.3
2808	7	Sololá	701	Sololá	2	El tablón	11	Noviembre	2023-11-18T00:00:00	2024-11-08T08:00:00	5	Humedad	85
2809	7	Sololá	701	Sololá	2	El tablón	11	Noviembre	2023-11-18T00:00:00	2024-11-08T08:00:00	6	Velocidad del viento	0
2810	7	Sololá	701	Sololá	2	El tablón	11	Noviembre	2023-11-18T00:00:00	2024-11-08T08:00:00	7	Dirección del viento	0
2811	7	Sololá	701	Sololá	2	El tablón	11	Noviembre	2023-11-18T00:00:00	2024-11-08T08:00:00	1	Precipitación	0
2812	7	Sololá	701	Sololá	2	El tablón	11	Noviembre	2023-11-18T00:00:00	2024-11-08T08:00:00	8	Radiación solar	126
2813	7	Sololá	701	Sololá	2	El tablón	11	Noviembre	2023-11-18T00:00:00	2024-11-08T09:00:00	2	Temperatura media	13.2
2814	7	Sololá	701	Sololá	2	El tablón	11	Noviembre	2023-11-18T00:00:00	2024-11-08T09:00:00	4	Temperatura máxima	13.2
2815	7	Sololá	701	Sololá	2	El tablón	11	Noviembre	2023-11-18T00:00:00	2024-11-08T09:00:00	3	Temperatura mínima	11.4
2816	7	Sololá	701	Sololá	2	El tablón	11	Noviembre	2023-11-18T00:00:00	2024-11-08T09:00:00	5	Humedad	85
2817	7	Sololá	701	Sololá	2	El tablón	11	Noviembre	2023-11-18T00:00:00	2024-11-08T09:00:00	6	Velocidad del viento	0
2818	7	Sololá	701	Sololá	2	El tablón	11	Noviembre	2023-11-18T00:00:00	2024-11-08T09:00:00	7	Dirección del viento	0
2819	7	Sololá	701	Sololá	2	El tablón	11	Noviembre	2023-11-18T00:00:00	2024-11-08T09:00:00	1	Precipitación	0
2820	7	Sololá	701	Sololá	2	El tablón	11	Noviembre	2023-11-18T00:00:00	2024-11-08T09:00:00	8	Radiación solar	232
2821	7	Sololá	701	Sololá	2	El tablón	11	Noviembre	2023-11-18T00:00:00	2024-11-08T10:00:00	2	Temperatura media	14.7
2822	7	Sololá	701	Sololá	2	El tablón	11	Noviembre	2023-11-18T00:00:00	2024-11-08T10:00:00	4	Temperatura máxima	14.7
2823	7	Sololá	701	Sololá	2	El tablón	11	Noviembre	2023-11-18T00:00:00	2024-11-08T10:00:00	3	Temperatura mínima	13.2
2824	7	Sololá	701	Sololá	2	El tablón	11	Noviembre	2023-11-18T00:00:00	2024-11-08T10:00:00	5	Humedad	87
2825	7	Sololá	701	Sololá	2	El tablón	11	Noviembre	2023-11-18T00:00:00	2024-11-08T10:00:00	6	Velocidad del viento	3.2
2826	7	Sololá	701	Sololá	2	El tablón	11	Noviembre	2023-11-18T00:00:00	2024-11-08T10:00:00	7	Dirección del viento	3.22
2827	7	Sololá	701	Sololá	2	El tablón	11	Noviembre	2023-11-18T00:00:00	2024-11-08T10:00:00	1	Precipitación	0
2828	7	Sololá	701	Sololá	2	El tablón	11	Noviembre	2023-11-18T00:00:00	2024-11-08T10:00:00	8	Radiación solar	338
2829	7	Sololá	701	Sololá	2	El tablón	11	Noviembre	2023-11-18T00:00:00	2024-11-08T11:00:00	2	Temperatura media	15.8
2830	7	Sololá	701	Sololá	2	El tablón	11	Noviembre	2023-11-18T00:00:00	2024-11-08T11:00:00	4	Temperatura máxima	15.8
2831	7	Sololá	701	Sololá	2	El tablón	11	Noviembre	2023-11-18T00:00:00	2024-11-08T11:00:00	3	Temperatura mínima	14.7
2832	7	Sololá	701	Sololá	2	El tablón	11	Noviembre	2023-11-18T00:00:00	2024-11-08T11:00:00	5	Humedad	86
2833	7	Sololá	701	Sololá	2	El tablón	11	Noviembre	2023-11-18T00:00:00	2024-11-08T11:00:00	6	Velocidad del viento	4.8
2834	7	Sololá	701	Sololá	2	El tablón	11	Noviembre	2023-11-18T00:00:00	2024-11-08T11:00:00	7	Dirección del viento	4.83
2835	7	Sololá	701	Sololá	2	El tablón	11	Noviembre	2023-11-18T00:00:00	2024-11-08T11:00:00	1	Precipitación	0
2836	7	Sololá	701	Sololá	2	El tablón	11	Noviembre	2023-11-18T00:00:00	2024-11-08T11:00:00	8	Radiación solar	545
2837	7	Sololá	701	Sololá	2	El tablón	11	Noviembre	2023-11-18T00:00:00	2024-11-08T12:00:00	2	Temperatura media	17.1
2838	7	Sololá	701	Sololá	2	El tablón	11	Noviembre	2023-11-18T00:00:00	2024-11-08T12:00:00	4	Temperatura máxima	17.1
2839	7	Sololá	701	Sololá	2	El tablón	11	Noviembre	2023-11-18T00:00:00	2024-11-08T12:00:00	3	Temperatura mínima	15.8
2840	7	Sololá	701	Sololá	2	El tablón	11	Noviembre	2023-11-18T00:00:00	2024-11-08T12:00:00	5	Humedad	80
2841	7	Sololá	701	Sololá	2	El tablón	11	Noviembre	2023-11-18T00:00:00	2024-11-08T12:00:00	6	Velocidad del viento	4.8
2842	7	Sololá	701	Sololá	2	El tablón	11	Noviembre	2023-11-18T00:00:00	2024-11-08T12:00:00	7	Dirección del viento	4.83
2843	7	Sololá	701	Sololá	2	El tablón	11	Noviembre	2023-11-18T00:00:00	2024-11-08T12:00:00	1	Precipitación	0
2844	7	Sololá	701	Sololá	2	El tablón	11	Noviembre	2023-11-18T00:00:00	2024-11-08T12:00:00	8	Radiación solar	709
2845	7	Sololá	701	Sololá	2	El tablón	11	Noviembre	2023-11-18T00:00:00	2024-11-08T13:00:00	2	Temperatura media	17.4
2846	7	Sololá	701	Sololá	2	El tablón	11	Noviembre	2023-11-18T00:00:00	2024-11-08T13:00:00	4	Temperatura máxima	17.8
2847	7	Sololá	701	Sololá	2	El tablón	11	Noviembre	2023-11-18T00:00:00	2024-11-08T13:00:00	3	Temperatura mínima	16.8
2848	7	Sololá	701	Sololá	2	El tablón	11	Noviembre	2023-11-18T00:00:00	2024-11-08T13:00:00	5	Humedad	82
2849	7	Sololá	701	Sololá	2	El tablón	11	Noviembre	2023-11-18T00:00:00	2024-11-08T13:00:00	6	Velocidad del viento	6.4
2850	7	Sololá	701	Sololá	2	El tablón	11	Noviembre	2023-11-18T00:00:00	2024-11-08T13:00:00	7	Dirección del viento	6.44
2851	7	Sololá	701	Sololá	2	El tablón	11	Noviembre	2023-11-18T00:00:00	2024-11-08T13:00:00	1	Precipitación	0
2852	7	Sololá	701	Sololá	2	El tablón	11	Noviembre	2023-11-18T00:00:00	2024-11-08T13:00:00	8	Radiación solar	826
2853	7	Sololá	701	Sololá	2	El tablón	11	Noviembre	2023-11-18T00:00:00	2024-11-08T14:00:00	2	Temperatura media	17.7
2854	7	Sololá	701	Sololá	2	El tablón	11	Noviembre	2023-11-18T00:00:00	2024-11-08T14:00:00	4	Temperatura máxima	17.9
2855	7	Sololá	701	Sololá	2	El tablón	11	Noviembre	2023-11-18T00:00:00	2024-11-08T14:00:00	3	Temperatura mínima	17.2
2856	7	Sololá	701	Sololá	2	El tablón	11	Noviembre	2023-11-18T00:00:00	2024-11-08T14:00:00	5	Humedad	81
2857	7	Sololá	701	Sololá	2	El tablón	11	Noviembre	2023-11-18T00:00:00	2024-11-08T14:00:00	6	Velocidad del viento	8
2858	7	Sololá	701	Sololá	2	El tablón	11	Noviembre	2023-11-18T00:00:00	2024-11-08T14:00:00	7	Dirección del viento	8.05
2859	7	Sololá	701	Sololá	2	El tablón	11	Noviembre	2023-11-18T00:00:00	2024-11-08T14:00:00	1	Precipitación	0
2860	7	Sololá	701	Sololá	2	El tablón	11	Noviembre	2023-11-18T00:00:00	2024-11-08T14:00:00	8	Radiación solar	775
2861	7	Sololá	701	Sololá	2	El tablón	11	Noviembre	2023-11-18T00:00:00	2024-11-08T15:00:00	2	Temperatura media	16.8
2862	7	Sololá	701	Sololá	2	El tablón	11	Noviembre	2023-11-18T00:00:00	2024-11-08T15:00:00	4	Temperatura máxima	17.8
2863	7	Sololá	701	Sololá	2	El tablón	11	Noviembre	2023-11-18T00:00:00	2024-11-08T15:00:00	3	Temperatura mínima	16.8
2864	7	Sololá	701	Sololá	2	El tablón	11	Noviembre	2023-11-18T00:00:00	2024-11-08T15:00:00	5	Humedad	85
2865	7	Sololá	701	Sololá	2	El tablón	11	Noviembre	2023-11-18T00:00:00	2024-11-08T15:00:00	6	Velocidad del viento	6.4
2866	7	Sololá	701	Sololá	2	El tablón	11	Noviembre	2023-11-18T00:00:00	2024-11-08T15:00:00	7	Dirección del viento	6.44
2867	7	Sololá	701	Sololá	2	El tablón	11	Noviembre	2023-11-18T00:00:00	2024-11-08T15:00:00	1	Precipitación	0
2868	7	Sololá	701	Sololá	2	El tablón	11	Noviembre	2023-11-18T00:00:00	2024-11-08T15:00:00	8	Radiación solar	396
2869	7	Sololá	701	Sololá	2	El tablón	11	Noviembre	2023-11-18T00:00:00	2024-11-08T16:00:00	2	Temperatura media	15.8
2870	7	Sololá	701	Sololá	2	El tablón	11	Noviembre	2023-11-18T00:00:00	2024-11-08T16:00:00	4	Temperatura máxima	16.8
2871	7	Sololá	701	Sololá	2	El tablón	11	Noviembre	2023-11-18T00:00:00	2024-11-08T16:00:00	3	Temperatura mínima	15.8
2872	7	Sololá	701	Sololá	2	El tablón	11	Noviembre	2023-11-18T00:00:00	2024-11-08T16:00:00	5	Humedad	88
2873	7	Sololá	701	Sololá	2	El tablón	11	Noviembre	2023-11-18T00:00:00	2024-11-08T16:00:00	6	Velocidad del viento	4.8
2874	7	Sololá	701	Sololá	2	El tablón	11	Noviembre	2023-11-18T00:00:00	2024-11-08T16:00:00	7	Dirección del viento	4.83
2875	7	Sololá	701	Sololá	2	El tablón	11	Noviembre	2023-11-18T00:00:00	2024-11-08T16:00:00	1	Precipitación	0
2876	7	Sololá	701	Sololá	2	El tablón	11	Noviembre	2023-11-18T00:00:00	2024-11-08T16:00:00	8	Radiación solar	141
2877	7	Sololá	701	Sololá	2	El tablón	11	Noviembre	2023-11-18T00:00:00	2024-11-08T17:00:00	2	Temperatura media	15.3
2878	7	Sololá	701	Sololá	2	El tablón	11	Noviembre	2023-11-18T00:00:00	2024-11-08T17:00:00	4	Temperatura máxima	16
2879	7	Sololá	701	Sololá	2	El tablón	11	Noviembre	2023-11-18T00:00:00	2024-11-08T17:00:00	3	Temperatura mínima	15.3
2880	7	Sololá	701	Sololá	2	El tablón	11	Noviembre	2023-11-18T00:00:00	2024-11-08T17:00:00	5	Humedad	88
2881	7	Sololá	701	Sololá	2	El tablón	11	Noviembre	2023-11-18T00:00:00	2024-11-08T17:00:00	6	Velocidad del viento	3.2
2882	7	Sololá	701	Sololá	2	El tablón	11	Noviembre	2023-11-18T00:00:00	2024-11-08T17:00:00	7	Dirección del viento	3.22
2883	7	Sololá	701	Sololá	2	El tablón	11	Noviembre	2023-11-18T00:00:00	2024-11-08T17:00:00	1	Precipitación	0
2884	7	Sololá	701	Sololá	2	El tablón	11	Noviembre	2023-11-18T00:00:00	2024-11-08T17:00:00	8	Radiación solar	89
2885	7	Sololá	701	Sololá	2	El tablón	11	Noviembre	2023-11-18T00:00:00	2024-11-08T18:00:00	2	Temperatura media	14.5
2886	7	Sololá	701	Sololá	2	El tablón	11	Noviembre	2023-11-18T00:00:00	2024-11-08T18:00:00	4	Temperatura máxima	15.3
2887	7	Sololá	701	Sololá	2	El tablón	11	Noviembre	2023-11-18T00:00:00	2024-11-08T18:00:00	3	Temperatura mínima	14.5
2888	7	Sololá	701	Sololá	2	El tablón	11	Noviembre	2023-11-18T00:00:00	2024-11-08T18:00:00	5	Humedad	89
2889	7	Sololá	701	Sololá	2	El tablón	11	Noviembre	2023-11-18T00:00:00	2024-11-08T18:00:00	6	Velocidad del viento	1.6
2890	7	Sololá	701	Sololá	2	El tablón	11	Noviembre	2023-11-18T00:00:00	2024-11-08T18:00:00	7	Dirección del viento	1.61
2891	7	Sololá	701	Sololá	2	El tablón	11	Noviembre	2023-11-18T00:00:00	2024-11-08T18:00:00	1	Precipitación	0
2892	7	Sololá	701	Sololá	2	El tablón	11	Noviembre	2023-11-18T00:00:00	2024-11-08T18:00:00	8	Radiación solar	11
2893	7	Sololá	701	Sololá	2	El tablón	11	Noviembre	2023-11-18T00:00:00	2024-11-08T19:00:00	2	Temperatura media	13.6
2894	7	Sololá	701	Sololá	2	El tablón	11	Noviembre	2023-11-18T00:00:00	2024-11-08T19:00:00	4	Temperatura máxima	14.5
2895	7	Sololá	701	Sololá	2	El tablón	11	Noviembre	2023-11-18T00:00:00	2024-11-08T19:00:00	3	Temperatura mínima	13.6
2896	7	Sololá	701	Sololá	2	El tablón	11	Noviembre	2023-11-18T00:00:00	2024-11-08T19:00:00	5	Humedad	88
2897	7	Sololá	701	Sololá	2	El tablón	11	Noviembre	2023-11-18T00:00:00	2024-11-08T19:00:00	6	Velocidad del viento	3.2
2898	7	Sololá	701	Sololá	2	El tablón	11	Noviembre	2023-11-18T00:00:00	2024-11-08T19:00:00	7	Dirección del viento	3.22
2899	7	Sololá	701	Sololá	2	El tablón	11	Noviembre	2023-11-18T00:00:00	2024-11-08T19:00:00	1	Precipitación	0
2900	7	Sololá	701	Sololá	2	El tablón	11	Noviembre	2023-11-18T00:00:00	2024-11-08T19:00:00	8	Radiación solar	0
2901	7	Sololá	701	Sololá	2	El tablón	11	Noviembre	2023-11-18T00:00:00	2024-11-08T20:00:00	2	Temperatura media	12.8
2902	7	Sololá	701	Sololá	2	El tablón	11	Noviembre	2023-11-18T00:00:00	2024-11-08T20:00:00	4	Temperatura máxima	13.6
2903	7	Sololá	701	Sololá	2	El tablón	11	Noviembre	2023-11-18T00:00:00	2024-11-08T20:00:00	3	Temperatura mínima	12.8
2904	7	Sololá	701	Sololá	2	El tablón	11	Noviembre	2023-11-18T00:00:00	2024-11-08T20:00:00	5	Humedad	87
2905	7	Sololá	701	Sololá	2	El tablón	11	Noviembre	2023-11-18T00:00:00	2024-11-08T20:00:00	6	Velocidad del viento	4.8
2906	7	Sololá	701	Sololá	2	El tablón	11	Noviembre	2023-11-18T00:00:00	2024-11-08T20:00:00	7	Dirección del viento	4.83
2907	7	Sololá	701	Sololá	2	El tablón	11	Noviembre	2023-11-18T00:00:00	2024-11-08T20:00:00	1	Precipitación	0
2908	7	Sololá	701	Sololá	2	El tablón	11	Noviembre	2023-11-18T00:00:00	2024-11-08T20:00:00	8	Radiación solar	0
2909	7	Sololá	701	Sololá	2	El tablón	11	Noviembre	2023-11-18T00:00:00	2024-11-08T21:00:00	2	Temperatura media	11.6
2910	7	Sololá	701	Sololá	2	El tablón	11	Noviembre	2023-11-18T00:00:00	2024-11-08T21:00:00	4	Temperatura máxima	12.8
2911	7	Sololá	701	Sololá	2	El tablón	11	Noviembre	2023-11-18T00:00:00	2024-11-08T21:00:00	3	Temperatura mínima	11.5
2912	7	Sololá	701	Sololá	2	El tablón	11	Noviembre	2023-11-18T00:00:00	2024-11-08T21:00:00	5	Humedad	88
2913	7	Sololá	701	Sololá	2	El tablón	11	Noviembre	2023-11-18T00:00:00	2024-11-08T21:00:00	6	Velocidad del viento	6.4
2914	7	Sololá	701	Sololá	2	El tablón	11	Noviembre	2023-11-18T00:00:00	2024-11-08T21:00:00	7	Dirección del viento	6.44
2915	7	Sololá	701	Sololá	2	El tablón	11	Noviembre	2023-11-18T00:00:00	2024-11-08T21:00:00	1	Precipitación	0
2916	7	Sololá	701	Sololá	2	El tablón	11	Noviembre	2023-11-18T00:00:00	2024-11-08T21:00:00	8	Radiación solar	0
2917	7	Sololá	701	Sololá	2	El tablón	11	Noviembre	2023-11-18T00:00:00	2024-11-08T22:00:00	2	Temperatura media	11.6
2918	7	Sololá	701	Sololá	2	El tablón	11	Noviembre	2023-11-18T00:00:00	2024-11-08T22:00:00	4	Temperatura máxima	11.7
2919	7	Sololá	701	Sololá	2	El tablón	11	Noviembre	2023-11-18T00:00:00	2024-11-08T22:00:00	3	Temperatura mínima	11.5
2920	7	Sololá	701	Sololá	2	El tablón	11	Noviembre	2023-11-18T00:00:00	2024-11-08T22:00:00	5	Humedad	87
2921	7	Sololá	701	Sololá	2	El tablón	11	Noviembre	2023-11-18T00:00:00	2024-11-08T22:00:00	6	Velocidad del viento	9.7
2922	7	Sololá	701	Sololá	2	El tablón	11	Noviembre	2023-11-18T00:00:00	2024-11-08T22:00:00	7	Dirección del viento	9.66
2923	7	Sololá	701	Sololá	2	El tablón	11	Noviembre	2023-11-18T00:00:00	2024-11-08T22:00:00	1	Precipitación	0
2924	7	Sololá	701	Sololá	2	El tablón	11	Noviembre	2023-11-18T00:00:00	2024-11-08T22:00:00	8	Radiación solar	0
2925	7	Sololá	701	Sololá	2	El tablón	11	Noviembre	2023-11-18T00:00:00	2024-11-08T23:00:00	2	Temperatura media	11.1
2926	7	Sololá	701	Sololá	2	El tablón	11	Noviembre	2023-11-18T00:00:00	2024-11-08T23:00:00	4	Temperatura máxima	11.6
2927	7	Sololá	701	Sololá	2	El tablón	11	Noviembre	2023-11-18T00:00:00	2024-11-08T23:00:00	3	Temperatura mínima	11.1
2928	7	Sololá	701	Sololá	2	El tablón	11	Noviembre	2023-11-18T00:00:00	2024-11-08T23:00:00	5	Humedad	87
2929	7	Sololá	701	Sololá	2	El tablón	11	Noviembre	2023-11-18T00:00:00	2024-11-08T23:00:00	6	Velocidad del viento	4.8
2930	7	Sololá	701	Sololá	2	El tablón	11	Noviembre	2023-11-18T00:00:00	2024-11-08T23:00:00	7	Dirección del viento	4.83
2931	7	Sololá	701	Sololá	2	El tablón	11	Noviembre	2023-11-18T00:00:00	2024-11-08T23:00:00	1	Precipitación	0
2932	7	Sololá	701	Sololá	2	El tablón	11	Noviembre	2023-11-18T00:00:00	2024-11-08T23:00:00	8	Radiación solar	0
2933	7	Sololá	701	Sololá	2	El tablón	11	Noviembre	2023-11-19T00:00:00	2024-11-08T00:00:00	2	Temperatura media	10.1
2934	7	Sololá	701	Sololá	2	El tablón	11	Noviembre	2023-11-19T00:00:00	2024-11-08T00:00:00	4	Temperatura máxima	11.1
2935	7	Sololá	701	Sololá	2	El tablón	11	Noviembre	2023-11-19T00:00:00	2024-11-08T00:00:00	3	Temperatura mínima	10.1
2936	7	Sololá	701	Sololá	2	El tablón	11	Noviembre	2023-11-19T00:00:00	2024-11-08T00:00:00	5	Humedad	89
2937	7	Sololá	701	Sololá	2	El tablón	11	Noviembre	2023-11-19T00:00:00	2024-11-08T00:00:00	6	Velocidad del viento	6.4
2938	7	Sololá	701	Sololá	2	El tablón	11	Noviembre	2023-11-19T00:00:00	2024-11-08T00:00:00	7	Dirección del viento	6.44
2939	7	Sololá	701	Sololá	2	El tablón	11	Noviembre	2023-11-19T00:00:00	2024-11-08T00:00:00	1	Precipitación	0
2940	7	Sololá	701	Sololá	2	El tablón	11	Noviembre	2023-11-19T00:00:00	2024-11-08T00:00:00	8	Radiación solar	0
2941	7	Sololá	701	Sololá	2	El tablón	11	Noviembre	2023-11-19T00:00:00	2024-11-08T01:00:00	2	Temperatura media	10.1
2942	7	Sololá	701	Sololá	2	El tablón	11	Noviembre	2023-11-19T00:00:00	2024-11-08T01:00:00	4	Temperatura máxima	10.6
2943	7	Sololá	701	Sololá	2	El tablón	11	Noviembre	2023-11-19T00:00:00	2024-11-08T01:00:00	3	Temperatura mínima	10.1
2944	7	Sololá	701	Sololá	2	El tablón	11	Noviembre	2023-11-19T00:00:00	2024-11-08T01:00:00	5	Humedad	88
2945	7	Sololá	701	Sololá	2	El tablón	11	Noviembre	2023-11-19T00:00:00	2024-11-08T01:00:00	6	Velocidad del viento	6.4
2946	7	Sololá	701	Sololá	2	El tablón	11	Noviembre	2023-11-19T00:00:00	2024-11-08T01:00:00	7	Dirección del viento	6.44
2947	7	Sololá	701	Sololá	2	El tablón	11	Noviembre	2023-11-19T00:00:00	2024-11-08T01:00:00	1	Precipitación	0
2948	7	Sololá	701	Sololá	2	El tablón	11	Noviembre	2023-11-19T00:00:00	2024-11-08T01:00:00	8	Radiación solar	0
2949	7	Sololá	701	Sololá	2	El tablón	11	Noviembre	2023-11-19T00:00:00	2024-11-08T02:00:00	2	Temperatura media	10.3
2950	7	Sololá	701	Sololá	2	El tablón	11	Noviembre	2023-11-19T00:00:00	2024-11-08T02:00:00	4	Temperatura máxima	10.3
2951	7	Sololá	701	Sololá	2	El tablón	11	Noviembre	2023-11-19T00:00:00	2024-11-08T02:00:00	3	Temperatura mínima	10
2952	7	Sololá	701	Sololá	2	El tablón	11	Noviembre	2023-11-19T00:00:00	2024-11-08T02:00:00	5	Humedad	88
2953	7	Sololá	701	Sololá	2	El tablón	11	Noviembre	2023-11-19T00:00:00	2024-11-08T02:00:00	6	Velocidad del viento	8
2954	7	Sololá	701	Sololá	2	El tablón	11	Noviembre	2023-11-19T00:00:00	2024-11-08T02:00:00	7	Dirección del viento	8.05
2955	7	Sololá	701	Sololá	2	El tablón	11	Noviembre	2023-11-19T00:00:00	2024-11-08T02:00:00	1	Precipitación	0
2956	7	Sololá	701	Sololá	2	El tablón	11	Noviembre	2023-11-19T00:00:00	2024-11-08T02:00:00	8	Radiación solar	0
2957	7	Sololá	701	Sololá	2	El tablón	11	Noviembre	2023-11-19T00:00:00	2024-11-08T03:00:00	2	Temperatura media	9.5
2958	7	Sololá	701	Sololá	2	El tablón	11	Noviembre	2023-11-19T00:00:00	2024-11-08T03:00:00	4	Temperatura máxima	10.3
2959	7	Sololá	701	Sololá	2	El tablón	11	Noviembre	2023-11-19T00:00:00	2024-11-08T03:00:00	3	Temperatura mínima	9.5
2960	7	Sololá	701	Sololá	2	El tablón	11	Noviembre	2023-11-19T00:00:00	2024-11-08T03:00:00	5	Humedad	88
2961	7	Sololá	701	Sololá	2	El tablón	11	Noviembre	2023-11-19T00:00:00	2024-11-08T03:00:00	6	Velocidad del viento	6.4
2962	7	Sololá	701	Sololá	2	El tablón	11	Noviembre	2023-11-19T00:00:00	2024-11-08T03:00:00	7	Dirección del viento	6.44
2963	7	Sololá	701	Sololá	2	El tablón	11	Noviembre	2023-11-19T00:00:00	2024-11-08T03:00:00	1	Precipitación	0
2964	7	Sololá	701	Sololá	2	El tablón	11	Noviembre	2023-11-19T00:00:00	2024-11-08T03:00:00	8	Radiación solar	0
2965	7	Sololá	701	Sololá	2	El tablón	11	Noviembre	2023-11-19T00:00:00	2024-11-08T04:00:00	2	Temperatura media	9.6
2966	7	Sololá	701	Sololá	2	El tablón	11	Noviembre	2023-11-19T00:00:00	2024-11-08T04:00:00	4	Temperatura máxima	9.7
2967	7	Sololá	701	Sololá	2	El tablón	11	Noviembre	2023-11-19T00:00:00	2024-11-08T04:00:00	3	Temperatura mínima	9.4
2968	7	Sololá	701	Sololá	2	El tablón	11	Noviembre	2023-11-19T00:00:00	2024-11-08T04:00:00	5	Humedad	87
2969	7	Sololá	701	Sololá	2	El tablón	11	Noviembre	2023-11-19T00:00:00	2024-11-08T04:00:00	6	Velocidad del viento	6.4
2970	7	Sololá	701	Sololá	2	El tablón	11	Noviembre	2023-11-19T00:00:00	2024-11-08T04:00:00	7	Dirección del viento	6.44
2971	7	Sololá	701	Sololá	2	El tablón	11	Noviembre	2023-11-19T00:00:00	2024-11-08T04:00:00	1	Precipitación	0
2972	7	Sololá	701	Sololá	2	El tablón	11	Noviembre	2023-11-19T00:00:00	2024-11-08T04:00:00	8	Radiación solar	0
2973	7	Sololá	701	Sololá	2	El tablón	11	Noviembre	2023-11-19T00:00:00	2024-11-08T05:00:00	2	Temperatura media	8.9
2974	7	Sololá	701	Sololá	2	El tablón	11	Noviembre	2023-11-19T00:00:00	2024-11-08T05:00:00	4	Temperatura máxima	9.6
2975	7	Sololá	701	Sololá	2	El tablón	11	Noviembre	2023-11-19T00:00:00	2024-11-08T05:00:00	3	Temperatura mínima	8.9
2976	7	Sololá	701	Sololá	2	El tablón	11	Noviembre	2023-11-19T00:00:00	2024-11-08T05:00:00	5	Humedad	84
2977	7	Sololá	701	Sololá	2	El tablón	11	Noviembre	2023-11-19T00:00:00	2024-11-08T05:00:00	6	Velocidad del viento	6.4
2978	7	Sololá	701	Sololá	2	El tablón	11	Noviembre	2023-11-19T00:00:00	2024-11-08T05:00:00	7	Dirección del viento	6.44
2979	7	Sololá	701	Sololá	2	El tablón	11	Noviembre	2023-11-19T00:00:00	2024-11-08T05:00:00	1	Precipitación	0
2980	7	Sololá	701	Sololá	2	El tablón	11	Noviembre	2023-11-19T00:00:00	2024-11-08T05:00:00	8	Radiación solar	0
2981	7	Sololá	701	Sololá	2	El tablón	11	Noviembre	2023-11-19T00:00:00	2024-11-08T06:00:00	2	Temperatura media	8.9
2982	7	Sololá	701	Sololá	2	El tablón	11	Noviembre	2023-11-19T00:00:00	2024-11-08T06:00:00	4	Temperatura máxima	8.9
2983	7	Sololá	701	Sololá	2	El tablón	11	Noviembre	2023-11-19T00:00:00	2024-11-08T06:00:00	3	Temperatura mínima	8.3
2984	7	Sololá	701	Sololá	2	El tablón	11	Noviembre	2023-11-19T00:00:00	2024-11-08T06:00:00	5	Humedad	81
2985	7	Sololá	701	Sololá	2	El tablón	11	Noviembre	2023-11-19T00:00:00	2024-11-08T06:00:00	6	Velocidad del viento	3.2
2986	7	Sololá	701	Sololá	2	El tablón	11	Noviembre	2023-11-19T00:00:00	2024-11-08T06:00:00	7	Dirección del viento	3.22
2987	7	Sololá	701	Sololá	2	El tablón	11	Noviembre	2023-11-19T00:00:00	2024-11-08T06:00:00	1	Precipitación	0
2988	7	Sololá	701	Sololá	2	El tablón	11	Noviembre	2023-11-19T00:00:00	2024-11-08T06:00:00	8	Radiación solar	0
2989	7	Sololá	701	Sololá	2	El tablón	11	Noviembre	2023-11-19T00:00:00	2024-11-08T07:00:00	2	Temperatura media	9.6
2990	7	Sololá	701	Sololá	2	El tablón	11	Noviembre	2023-11-19T00:00:00	2024-11-08T07:00:00	4	Temperatura máxima	9.6
2991	7	Sololá	701	Sololá	2	El tablón	11	Noviembre	2023-11-19T00:00:00	2024-11-08T07:00:00	3	Temperatura mínima	8.4
2992	7	Sololá	701	Sololá	2	El tablón	11	Noviembre	2023-11-19T00:00:00	2024-11-08T07:00:00	5	Humedad	74
2993	7	Sololá	701	Sololá	2	El tablón	11	Noviembre	2023-11-19T00:00:00	2024-11-08T07:00:00	6	Velocidad del viento	4.8
2994	7	Sololá	701	Sololá	2	El tablón	11	Noviembre	2023-11-19T00:00:00	2024-11-08T07:00:00	7	Dirección del viento	4.83
2995	7	Sololá	701	Sololá	2	El tablón	11	Noviembre	2023-11-19T00:00:00	2024-11-08T07:00:00	1	Precipitación	0
2996	7	Sololá	701	Sololá	2	El tablón	11	Noviembre	2023-11-19T00:00:00	2024-11-08T07:00:00	8	Radiación solar	31
2997	7	Sololá	701	Sololá	2	El tablón	11	Noviembre	2023-11-19T00:00:00	2024-11-08T08:00:00	2	Temperatura media	14.1
2998	7	Sololá	701	Sololá	2	El tablón	11	Noviembre	2023-11-19T00:00:00	2024-11-08T08:00:00	4	Temperatura máxima	14.1
2999	7	Sololá	701	Sololá	2	El tablón	11	Noviembre	2023-11-19T00:00:00	2024-11-08T08:00:00	3	Temperatura mínima	9.6
3000	7	Sololá	701	Sololá	2	El tablón	11	Noviembre	2023-11-19T00:00:00	2024-11-08T08:00:00	5	Humedad	78
3001	7	Sololá	701	Sololá	2	El tablón	11	Noviembre	2023-11-19T00:00:00	2024-11-08T08:00:00	6	Velocidad del viento	1.6
3002	7	Sololá	701	Sololá	2	El tablón	11	Noviembre	2023-11-19T00:00:00	2024-11-08T08:00:00	7	Dirección del viento	1.61
3003	7	Sololá	701	Sololá	2	El tablón	11	Noviembre	2023-11-19T00:00:00	2024-11-08T08:00:00	1	Precipitación	0
3004	7	Sololá	701	Sololá	2	El tablón	11	Noviembre	2023-11-19T00:00:00	2024-11-08T08:00:00	8	Radiación solar	226
3005	7	Sololá	701	Sololá	2	El tablón	11	Noviembre	2023-11-19T00:00:00	2024-11-08T09:00:00	2	Temperatura media	15.7
3006	7	Sololá	701	Sololá	2	El tablón	11	Noviembre	2023-11-19T00:00:00	2024-11-08T09:00:00	4	Temperatura máxima	15.8
3007	7	Sololá	701	Sololá	2	El tablón	11	Noviembre	2023-11-19T00:00:00	2024-11-08T09:00:00	3	Temperatura mínima	14.1
3008	7	Sololá	701	Sololá	2	El tablón	11	Noviembre	2023-11-19T00:00:00	2024-11-08T09:00:00	5	Humedad	81
3009	7	Sololá	701	Sololá	2	El tablón	11	Noviembre	2023-11-19T00:00:00	2024-11-08T09:00:00	6	Velocidad del viento	1.6
3010	7	Sololá	701	Sololá	2	El tablón	11	Noviembre	2023-11-19T00:00:00	2024-11-08T09:00:00	7	Dirección del viento	1.61
3011	7	Sololá	701	Sololá	2	El tablón	11	Noviembre	2023-11-19T00:00:00	2024-11-08T09:00:00	1	Precipitación	0
3012	7	Sololá	701	Sololá	2	El tablón	11	Noviembre	2023-11-19T00:00:00	2024-11-08T09:00:00	8	Radiación solar	388
3013	7	Sololá	701	Sololá	2	El tablón	11	Noviembre	2023-11-19T00:00:00	2024-11-08T10:00:00	2	Temperatura media	16.5
3014	7	Sololá	701	Sololá	2	El tablón	11	Noviembre	2023-11-19T00:00:00	2024-11-08T10:00:00	4	Temperatura máxima	16.5
3015	7	Sololá	701	Sololá	2	El tablón	11	Noviembre	2023-11-19T00:00:00	2024-11-08T10:00:00	3	Temperatura mínima	15.7
3016	7	Sololá	701	Sololá	2	El tablón	11	Noviembre	2023-11-19T00:00:00	2024-11-08T10:00:00	5	Humedad	78
3017	7	Sololá	701	Sololá	2	El tablón	11	Noviembre	2023-11-19T00:00:00	2024-11-08T10:00:00	6	Velocidad del viento	4.8
3018	7	Sololá	701	Sololá	2	El tablón	11	Noviembre	2023-11-19T00:00:00	2024-11-08T10:00:00	7	Dirección del viento	4.83
3019	7	Sololá	701	Sololá	2	El tablón	11	Noviembre	2023-11-19T00:00:00	2024-11-08T10:00:00	1	Precipitación	0
3020	7	Sololá	701	Sololá	2	El tablón	11	Noviembre	2023-11-19T00:00:00	2024-11-08T10:00:00	8	Radiación solar	622
3021	7	Sololá	701	Sololá	2	El tablón	11	Noviembre	2023-11-19T00:00:00	2024-11-08T11:00:00	2	Temperatura media	16.8
3022	7	Sololá	701	Sololá	2	El tablón	11	Noviembre	2023-11-19T00:00:00	2024-11-08T11:00:00	4	Temperatura máxima	17.5
3023	7	Sololá	701	Sololá	2	El tablón	11	Noviembre	2023-11-19T00:00:00	2024-11-08T11:00:00	3	Temperatura mínima	16.4
3024	7	Sololá	701	Sololá	2	El tablón	11	Noviembre	2023-11-19T00:00:00	2024-11-08T11:00:00	5	Humedad	78
3025	7	Sololá	701	Sololá	2	El tablón	11	Noviembre	2023-11-19T00:00:00	2024-11-08T11:00:00	6	Velocidad del viento	6.4
3026	7	Sololá	701	Sololá	2	El tablón	11	Noviembre	2023-11-19T00:00:00	2024-11-08T11:00:00	7	Dirección del viento	6.44
3027	7	Sololá	701	Sololá	2	El tablón	11	Noviembre	2023-11-19T00:00:00	2024-11-08T11:00:00	1	Precipitación	0
3028	7	Sololá	701	Sololá	2	El tablón	11	Noviembre	2023-11-19T00:00:00	2024-11-08T11:00:00	8	Radiación solar	740
3029	7	Sololá	701	Sololá	2	El tablón	11	Noviembre	2023-11-19T00:00:00	2024-11-08T12:00:00	2	Temperatura media	16.8
3030	7	Sololá	701	Sololá	2	El tablón	11	Noviembre	2023-11-19T00:00:00	2024-11-08T12:00:00	4	Temperatura máxima	17.7
3031	7	Sololá	701	Sololá	2	El tablón	11	Noviembre	2023-11-19T00:00:00	2024-11-08T12:00:00	3	Temperatura mínima	16.7
3032	7	Sololá	701	Sololá	2	El tablón	11	Noviembre	2023-11-19T00:00:00	2024-11-08T12:00:00	5	Humedad	77
3033	7	Sololá	701	Sololá	2	El tablón	11	Noviembre	2023-11-19T00:00:00	2024-11-08T12:00:00	6	Velocidad del viento	8
3034	7	Sololá	701	Sololá	2	El tablón	11	Noviembre	2023-11-19T00:00:00	2024-11-08T12:00:00	7	Dirección del viento	8.05
3035	7	Sololá	701	Sololá	2	El tablón	11	Noviembre	2023-11-19T00:00:00	2024-11-08T12:00:00	1	Precipitación	0
3036	7	Sololá	701	Sololá	2	El tablón	11	Noviembre	2023-11-19T00:00:00	2024-11-08T12:00:00	8	Radiación solar	711
3037	7	Sololá	701	Sololá	2	El tablón	11	Noviembre	2023-11-19T00:00:00	2024-11-08T13:00:00	2	Temperatura media	16.6
3038	7	Sololá	701	Sololá	2	El tablón	11	Noviembre	2023-11-19T00:00:00	2024-11-08T13:00:00	4	Temperatura máxima	17.3
3039	7	Sololá	701	Sololá	2	El tablón	11	Noviembre	2023-11-19T00:00:00	2024-11-08T13:00:00	3	Temperatura mínima	16.6
3040	7	Sololá	701	Sololá	2	El tablón	11	Noviembre	2023-11-19T00:00:00	2024-11-08T13:00:00	5	Humedad	84
3041	7	Sololá	701	Sololá	2	El tablón	11	Noviembre	2023-11-19T00:00:00	2024-11-08T13:00:00	6	Velocidad del viento	6.4
3042	7	Sololá	701	Sololá	2	El tablón	11	Noviembre	2023-11-19T00:00:00	2024-11-08T13:00:00	7	Dirección del viento	6.44
3043	7	Sololá	701	Sololá	2	El tablón	11	Noviembre	2023-11-19T00:00:00	2024-11-08T13:00:00	1	Precipitación	0
3044	7	Sololá	701	Sololá	2	El tablón	11	Noviembre	2023-11-19T00:00:00	2024-11-08T13:00:00	8	Radiación solar	657
3045	7	Sololá	701	Sololá	2	El tablón	11	Noviembre	2023-11-19T00:00:00	2024-11-08T14:00:00	2	Temperatura media	15.7
3046	7	Sololá	701	Sololá	2	El tablón	11	Noviembre	2023-11-19T00:00:00	2024-11-08T14:00:00	4	Temperatura máxima	16.6
3047	7	Sololá	701	Sololá	2	El tablón	11	Noviembre	2023-11-19T00:00:00	2024-11-08T14:00:00	3	Temperatura mínima	15.7
3048	7	Sololá	701	Sololá	2	El tablón	11	Noviembre	2023-11-19T00:00:00	2024-11-08T14:00:00	5	Humedad	87
3049	7	Sololá	701	Sololá	2	El tablón	11	Noviembre	2023-11-19T00:00:00	2024-11-08T14:00:00	6	Velocidad del viento	6.4
3050	7	Sololá	701	Sololá	2	El tablón	11	Noviembre	2023-11-19T00:00:00	2024-11-08T14:00:00	7	Dirección del viento	6.44
3051	7	Sololá	701	Sololá	2	El tablón	11	Noviembre	2023-11-19T00:00:00	2024-11-08T14:00:00	1	Precipitación	0
3052	7	Sololá	701	Sololá	2	El tablón	11	Noviembre	2023-11-19T00:00:00	2024-11-08T14:00:00	8	Radiación solar	258
3053	7	Sololá	701	Sololá	2	El tablón	11	Noviembre	2023-11-19T00:00:00	2024-11-08T15:00:00	2	Temperatura media	14.7
3054	7	Sololá	701	Sololá	2	El tablón	11	Noviembre	2023-11-19T00:00:00	2024-11-08T15:00:00	4	Temperatura máxima	15.8
3055	7	Sololá	701	Sololá	2	El tablón	11	Noviembre	2023-11-19T00:00:00	2024-11-08T15:00:00	3	Temperatura mínima	14.7
3056	7	Sololá	701	Sololá	2	El tablón	11	Noviembre	2023-11-19T00:00:00	2024-11-08T15:00:00	5	Humedad	88
3057	7	Sololá	701	Sololá	2	El tablón	11	Noviembre	2023-11-19T00:00:00	2024-11-08T15:00:00	6	Velocidad del viento	6.4
3058	7	Sololá	701	Sololá	2	El tablón	11	Noviembre	2023-11-19T00:00:00	2024-11-08T15:00:00	7	Dirección del viento	6.44
3059	7	Sololá	701	Sololá	2	El tablón	11	Noviembre	2023-11-19T00:00:00	2024-11-08T15:00:00	1	Precipitación	0
3060	7	Sololá	701	Sololá	2	El tablón	11	Noviembre	2023-11-19T00:00:00	2024-11-08T15:00:00	8	Radiación solar	149
3061	7	Sololá	701	Sololá	2	El tablón	11	Noviembre	2023-11-19T00:00:00	2024-11-08T16:00:00	2	Temperatura media	14.3
3062	7	Sololá	701	Sololá	2	El tablón	11	Noviembre	2023-11-19T00:00:00	2024-11-08T16:00:00	4	Temperatura máxima	14.7
3063	7	Sololá	701	Sololá	2	El tablón	11	Noviembre	2023-11-19T00:00:00	2024-11-08T16:00:00	3	Temperatura mínima	14.3
3064	7	Sololá	701	Sololá	2	El tablón	11	Noviembre	2023-11-19T00:00:00	2024-11-08T16:00:00	5	Humedad	88
3065	7	Sololá	701	Sololá	2	El tablón	11	Noviembre	2023-11-19T00:00:00	2024-11-08T16:00:00	6	Velocidad del viento	4.8
3066	7	Sololá	701	Sololá	2	El tablón	11	Noviembre	2023-11-19T00:00:00	2024-11-08T16:00:00	7	Dirección del viento	4.83
3067	7	Sololá	701	Sololá	2	El tablón	11	Noviembre	2023-11-19T00:00:00	2024-11-08T16:00:00	1	Precipitación	0
3068	7	Sololá	701	Sololá	2	El tablón	11	Noviembre	2023-11-19T00:00:00	2024-11-08T16:00:00	8	Radiación solar	120
3069	7	Sololá	701	Sololá	2	El tablón	11	Noviembre	2023-11-19T00:00:00	2024-11-08T17:00:00	2	Temperatura media	14.1
3070	7	Sololá	701	Sololá	2	El tablón	11	Noviembre	2023-11-19T00:00:00	2024-11-08T17:00:00	4	Temperatura máxima	14.4
3071	7	Sololá	701	Sololá	2	El tablón	11	Noviembre	2023-11-19T00:00:00	2024-11-08T17:00:00	3	Temperatura mínima	14.1
3072	7	Sololá	701	Sololá	2	El tablón	11	Noviembre	2023-11-19T00:00:00	2024-11-08T17:00:00	5	Humedad	89
3073	7	Sololá	701	Sololá	2	El tablón	11	Noviembre	2023-11-19T00:00:00	2024-11-08T17:00:00	6	Velocidad del viento	3.2
3074	7	Sololá	701	Sololá	2	El tablón	11	Noviembre	2023-11-19T00:00:00	2024-11-08T17:00:00	7	Dirección del viento	3.22
3075	7	Sololá	701	Sololá	2	El tablón	11	Noviembre	2023-11-19T00:00:00	2024-11-08T17:00:00	1	Precipitación	0
3076	7	Sololá	701	Sololá	2	El tablón	11	Noviembre	2023-11-19T00:00:00	2024-11-08T17:00:00	8	Radiación solar	80
3077	7	Sololá	701	Sololá	2	El tablón	11	Noviembre	2023-11-19T00:00:00	2024-11-08T18:00:00	2	Temperatura media	13.6
3078	7	Sololá	701	Sololá	2	El tablón	11	Noviembre	2023-11-19T00:00:00	2024-11-08T18:00:00	4	Temperatura máxima	14.1
3079	7	Sololá	701	Sololá	2	El tablón	11	Noviembre	2023-11-19T00:00:00	2024-11-08T18:00:00	3	Temperatura mínima	13.6
3080	7	Sololá	701	Sololá	2	El tablón	11	Noviembre	2023-11-19T00:00:00	2024-11-08T18:00:00	5	Humedad	88
3081	7	Sololá	701	Sololá	2	El tablón	11	Noviembre	2023-11-19T00:00:00	2024-11-08T18:00:00	6	Velocidad del viento	1.6
3082	7	Sololá	701	Sololá	2	El tablón	11	Noviembre	2023-11-19T00:00:00	2024-11-08T18:00:00	7	Dirección del viento	1.61
3083	7	Sololá	701	Sololá	2	El tablón	11	Noviembre	2023-11-19T00:00:00	2024-11-08T18:00:00	1	Precipitación	0
3084	7	Sololá	701	Sololá	2	El tablón	11	Noviembre	2023-11-19T00:00:00	2024-11-08T18:00:00	8	Radiación solar	5
3085	7	Sololá	701	Sololá	2	El tablón	11	Noviembre	2023-11-19T00:00:00	2024-11-08T19:00:00	2	Temperatura media	12.9
3086	7	Sololá	701	Sololá	2	El tablón	11	Noviembre	2023-11-19T00:00:00	2024-11-08T19:00:00	4	Temperatura máxima	13.6
3087	7	Sololá	701	Sololá	2	El tablón	11	Noviembre	2023-11-19T00:00:00	2024-11-08T19:00:00	3	Temperatura mínima	12.9
3088	7	Sololá	701	Sololá	2	El tablón	11	Noviembre	2023-11-19T00:00:00	2024-11-08T19:00:00	5	Humedad	88
3089	7	Sololá	701	Sololá	2	El tablón	11	Noviembre	2023-11-19T00:00:00	2024-11-08T19:00:00	6	Velocidad del viento	1.6
3090	7	Sololá	701	Sololá	2	El tablón	11	Noviembre	2023-11-19T00:00:00	2024-11-08T19:00:00	7	Dirección del viento	1.61
3091	7	Sololá	701	Sololá	2	El tablón	11	Noviembre	2023-11-19T00:00:00	2024-11-08T19:00:00	1	Precipitación	0
3092	7	Sololá	701	Sololá	2	El tablón	11	Noviembre	2023-11-19T00:00:00	2024-11-08T19:00:00	8	Radiación solar	0
3093	7	Sololá	701	Sololá	2	El tablón	11	Noviembre	2023-11-19T00:00:00	2024-11-08T20:00:00	2	Temperatura media	12.6
3094	7	Sololá	701	Sololá	2	El tablón	11	Noviembre	2023-11-19T00:00:00	2024-11-08T20:00:00	4	Temperatura máxima	12.9
3095	7	Sololá	701	Sololá	2	El tablón	11	Noviembre	2023-11-19T00:00:00	2024-11-08T20:00:00	3	Temperatura mínima	12.6
3096	7	Sololá	701	Sololá	2	El tablón	11	Noviembre	2023-11-19T00:00:00	2024-11-08T20:00:00	5	Humedad	88
3097	7	Sololá	701	Sololá	2	El tablón	11	Noviembre	2023-11-19T00:00:00	2024-11-08T20:00:00	6	Velocidad del viento	1.6
3098	7	Sololá	701	Sololá	2	El tablón	11	Noviembre	2023-11-19T00:00:00	2024-11-08T20:00:00	7	Dirección del viento	1.61
3099	7	Sololá	701	Sololá	2	El tablón	11	Noviembre	2023-11-19T00:00:00	2024-11-08T20:00:00	1	Precipitación	0
3100	7	Sololá	701	Sololá	2	El tablón	11	Noviembre	2023-11-19T00:00:00	2024-11-08T20:00:00	8	Radiación solar	0
3101	7	Sololá	701	Sololá	2	El tablón	11	Noviembre	2023-11-19T00:00:00	2024-11-08T21:00:00	2	Temperatura media	12.7
3102	7	Sololá	701	Sololá	2	El tablón	11	Noviembre	2023-11-19T00:00:00	2024-11-08T21:00:00	4	Temperatura máxima	12.7
3103	7	Sololá	701	Sololá	2	El tablón	11	Noviembre	2023-11-19T00:00:00	2024-11-08T21:00:00	3	Temperatura mínima	12.5
3104	7	Sololá	701	Sololá	2	El tablón	11	Noviembre	2023-11-19T00:00:00	2024-11-08T21:00:00	5	Humedad	87
3105	7	Sololá	701	Sololá	2	El tablón	11	Noviembre	2023-11-19T00:00:00	2024-11-08T21:00:00	6	Velocidad del viento	1.6
3106	7	Sololá	701	Sololá	2	El tablón	11	Noviembre	2023-11-19T00:00:00	2024-11-08T21:00:00	7	Dirección del viento	1.61
3107	7	Sololá	701	Sololá	2	El tablón	11	Noviembre	2023-11-19T00:00:00	2024-11-08T21:00:00	1	Precipitación	0
3108	7	Sololá	701	Sololá	2	El tablón	11	Noviembre	2023-11-19T00:00:00	2024-11-08T21:00:00	8	Radiación solar	0
3109	7	Sololá	701	Sololá	2	El tablón	11	Noviembre	2023-11-19T00:00:00	2024-11-08T22:00:00	2	Temperatura media	12.3
3110	7	Sololá	701	Sololá	2	El tablón	11	Noviembre	2023-11-19T00:00:00	2024-11-08T22:00:00	4	Temperatura máxima	12.7
3111	7	Sololá	701	Sololá	2	El tablón	11	Noviembre	2023-11-19T00:00:00	2024-11-08T22:00:00	3	Temperatura mínima	12.3
3112	7	Sololá	701	Sololá	2	El tablón	11	Noviembre	2023-11-19T00:00:00	2024-11-08T22:00:00	5	Humedad	87
3113	7	Sololá	701	Sololá	2	El tablón	11	Noviembre	2023-11-19T00:00:00	2024-11-08T22:00:00	6	Velocidad del viento	3.2
3114	7	Sololá	701	Sololá	2	El tablón	11	Noviembre	2023-11-19T00:00:00	2024-11-08T22:00:00	7	Dirección del viento	3.22
3115	7	Sololá	701	Sololá	2	El tablón	11	Noviembre	2023-11-19T00:00:00	2024-11-08T22:00:00	1	Precipitación	0
3116	7	Sololá	701	Sololá	2	El tablón	11	Noviembre	2023-11-19T00:00:00	2024-11-08T22:00:00	8	Radiación solar	0
3117	7	Sololá	701	Sololá	2	El tablón	11	Noviembre	2023-11-19T00:00:00	2024-11-08T23:00:00	2	Temperatura media	11.6
3118	7	Sololá	701	Sololá	2	El tablón	11	Noviembre	2023-11-19T00:00:00	2024-11-08T23:00:00	4	Temperatura máxima	12.3
3119	7	Sololá	701	Sololá	2	El tablón	11	Noviembre	2023-11-19T00:00:00	2024-11-08T23:00:00	3	Temperatura mínima	11.6
3120	7	Sololá	701	Sololá	2	El tablón	11	Noviembre	2023-11-19T00:00:00	2024-11-08T23:00:00	5	Humedad	88
3121	7	Sololá	701	Sololá	2	El tablón	11	Noviembre	2023-11-19T00:00:00	2024-11-08T23:00:00	6	Velocidad del viento	1.6
3122	7	Sololá	701	Sololá	2	El tablón	11	Noviembre	2023-11-19T00:00:00	2024-11-08T23:00:00	7	Dirección del viento	1.61
3123	7	Sololá	701	Sololá	2	El tablón	11	Noviembre	2023-11-19T00:00:00	2024-11-08T23:00:00	1	Precipitación	0
3124	7	Sololá	701	Sololá	2	El tablón	11	Noviembre	2023-11-19T00:00:00	2024-11-08T23:00:00	8	Radiación solar	0
3125	7	Sololá	701	Sololá	2	El tablón	11	Noviembre	2023-11-20T00:00:00	2024-11-08T00:00:00	2	Temperatura media	10.9
3126	7	Sololá	701	Sololá	2	El tablón	11	Noviembre	2023-11-20T00:00:00	2024-11-08T00:00:00	4	Temperatura máxima	11.6
3127	7	Sololá	701	Sololá	2	El tablón	11	Noviembre	2023-11-20T00:00:00	2024-11-08T00:00:00	3	Temperatura mínima	10.9
3128	7	Sololá	701	Sololá	2	El tablón	11	Noviembre	2023-11-20T00:00:00	2024-11-08T00:00:00	5	Humedad	87
3129	7	Sololá	701	Sololá	2	El tablón	11	Noviembre	2023-11-20T00:00:00	2024-11-08T00:00:00	6	Velocidad del viento	1.6
3130	7	Sololá	701	Sololá	2	El tablón	11	Noviembre	2023-11-20T00:00:00	2024-11-08T00:00:00	7	Dirección del viento	1.61
3131	7	Sololá	701	Sololá	2	El tablón	11	Noviembre	2023-11-20T00:00:00	2024-11-08T00:00:00	1	Precipitación	0
3132	7	Sololá	701	Sololá	2	El tablón	11	Noviembre	2023-11-20T00:00:00	2024-11-08T00:00:00	8	Radiación solar	0
3133	7	Sololá	701	Sololá	2	El tablón	11	Noviembre	2023-11-20T00:00:00	2024-11-08T01:00:00	2	Temperatura media	10.9
3134	7	Sololá	701	Sololá	2	El tablón	11	Noviembre	2023-11-20T00:00:00	2024-11-08T01:00:00	4	Temperatura máxima	11.1
3135	7	Sololá	701	Sololá	2	El tablón	11	Noviembre	2023-11-20T00:00:00	2024-11-08T01:00:00	3	Temperatura mínima	10.8
3136	7	Sololá	701	Sololá	2	El tablón	11	Noviembre	2023-11-20T00:00:00	2024-11-08T01:00:00	5	Humedad	89
3137	7	Sololá	701	Sololá	2	El tablón	11	Noviembre	2023-11-20T00:00:00	2024-11-08T01:00:00	6	Velocidad del viento	1.6
3138	7	Sololá	701	Sololá	2	El tablón	11	Noviembre	2023-11-20T00:00:00	2024-11-08T01:00:00	7	Dirección del viento	1.61
3139	7	Sololá	701	Sololá	2	El tablón	11	Noviembre	2023-11-20T00:00:00	2024-11-08T01:00:00	1	Precipitación	0
3140	7	Sololá	701	Sololá	2	El tablón	11	Noviembre	2023-11-20T00:00:00	2024-11-08T01:00:00	8	Radiación solar	0
3141	7	Sololá	701	Sololá	2	El tablón	11	Noviembre	2023-11-20T00:00:00	2024-11-08T02:00:00	2	Temperatura media	10.2
3142	7	Sololá	701	Sololá	2	El tablón	11	Noviembre	2023-11-20T00:00:00	2024-11-08T02:00:00	4	Temperatura máxima	10.9
3143	7	Sololá	701	Sololá	2	El tablón	11	Noviembre	2023-11-20T00:00:00	2024-11-08T02:00:00	3	Temperatura mínima	10.2
3144	7	Sololá	701	Sololá	2	El tablón	11	Noviembre	2023-11-20T00:00:00	2024-11-08T02:00:00	5	Humedad	89
3145	7	Sololá	701	Sololá	2	El tablón	11	Noviembre	2023-11-20T00:00:00	2024-11-08T02:00:00	6	Velocidad del viento	0
3146	7	Sololá	701	Sololá	2	El tablón	11	Noviembre	2023-11-20T00:00:00	2024-11-08T02:00:00	7	Dirección del viento	0
3147	7	Sololá	701	Sololá	2	El tablón	11	Noviembre	2023-11-20T00:00:00	2024-11-08T02:00:00	1	Precipitación	0
3148	7	Sololá	701	Sololá	2	El tablón	11	Noviembre	2023-11-20T00:00:00	2024-11-08T02:00:00	8	Radiación solar	0
3149	7	Sololá	701	Sololá	2	El tablón	11	Noviembre	2023-11-20T00:00:00	2024-11-08T03:00:00	2	Temperatura media	9.2
3150	7	Sololá	701	Sololá	2	El tablón	11	Noviembre	2023-11-20T00:00:00	2024-11-08T03:00:00	4	Temperatura máxima	10.2
3151	7	Sololá	701	Sololá	2	El tablón	11	Noviembre	2023-11-20T00:00:00	2024-11-08T03:00:00	3	Temperatura mínima	9.2
3152	7	Sololá	701	Sololá	2	El tablón	11	Noviembre	2023-11-20T00:00:00	2024-11-08T03:00:00	5	Humedad	90
3153	7	Sololá	701	Sololá	2	El tablón	11	Noviembre	2023-11-20T00:00:00	2024-11-08T03:00:00	6	Velocidad del viento	1.6
3154	7	Sololá	701	Sololá	2	El tablón	11	Noviembre	2023-11-20T00:00:00	2024-11-08T03:00:00	7	Dirección del viento	1.61
3155	7	Sololá	701	Sololá	2	El tablón	11	Noviembre	2023-11-20T00:00:00	2024-11-08T03:00:00	1	Precipitación	0
3156	7	Sololá	701	Sololá	2	El tablón	11	Noviembre	2023-11-20T00:00:00	2024-11-08T03:00:00	8	Radiación solar	0
3157	7	Sololá	701	Sololá	2	El tablón	11	Noviembre	2023-11-20T00:00:00	2024-11-08T04:00:00	2	Temperatura media	8.4
3158	7	Sololá	701	Sololá	2	El tablón	11	Noviembre	2023-11-20T00:00:00	2024-11-08T04:00:00	4	Temperatura máxima	9.3
3159	7	Sololá	701	Sololá	2	El tablón	11	Noviembre	2023-11-20T00:00:00	2024-11-08T04:00:00	3	Temperatura mínima	8.4
3160	7	Sololá	701	Sololá	2	El tablón	11	Noviembre	2023-11-20T00:00:00	2024-11-08T04:00:00	5	Humedad	89
3161	7	Sololá	701	Sololá	2	El tablón	11	Noviembre	2023-11-20T00:00:00	2024-11-08T04:00:00	6	Velocidad del viento	1.6
3162	7	Sololá	701	Sololá	2	El tablón	11	Noviembre	2023-11-20T00:00:00	2024-11-08T04:00:00	7	Dirección del viento	1.61
3163	7	Sololá	701	Sololá	2	El tablón	11	Noviembre	2023-11-20T00:00:00	2024-11-08T04:00:00	1	Precipitación	0
3164	7	Sololá	701	Sololá	2	El tablón	11	Noviembre	2023-11-20T00:00:00	2024-11-08T04:00:00	8	Radiación solar	0
3165	7	Sololá	701	Sololá	2	El tablón	11	Noviembre	2023-11-20T00:00:00	2024-11-08T05:00:00	2	Temperatura media	7.9
3166	7	Sololá	701	Sololá	2	El tablón	11	Noviembre	2023-11-20T00:00:00	2024-11-08T05:00:00	4	Temperatura máxima	8.4
3167	7	Sololá	701	Sololá	2	El tablón	11	Noviembre	2023-11-20T00:00:00	2024-11-08T05:00:00	3	Temperatura mínima	7.7
3168	7	Sololá	701	Sololá	2	El tablón	11	Noviembre	2023-11-20T00:00:00	2024-11-08T05:00:00	5	Humedad	89
3169	7	Sololá	701	Sololá	2	El tablón	11	Noviembre	2023-11-20T00:00:00	2024-11-08T05:00:00	6	Velocidad del viento	3.2
3170	7	Sololá	701	Sololá	2	El tablón	11	Noviembre	2023-11-20T00:00:00	2024-11-08T05:00:00	7	Dirección del viento	3.22
3171	7	Sololá	701	Sololá	2	El tablón	11	Noviembre	2023-11-20T00:00:00	2024-11-08T05:00:00	1	Precipitación	0
3172	7	Sololá	701	Sololá	2	El tablón	11	Noviembre	2023-11-20T00:00:00	2024-11-08T05:00:00	8	Radiación solar	0
3173	7	Sololá	701	Sololá	2	El tablón	11	Noviembre	2023-11-20T00:00:00	2024-11-08T06:00:00	2	Temperatura media	8.3
3174	7	Sololá	701	Sololá	2	El tablón	11	Noviembre	2023-11-20T00:00:00	2024-11-08T06:00:00	4	Temperatura máxima	9.1
3175	7	Sololá	701	Sololá	2	El tablón	11	Noviembre	2023-11-20T00:00:00	2024-11-08T06:00:00	3	Temperatura mínima	7.9
3176	7	Sololá	701	Sololá	2	El tablón	11	Noviembre	2023-11-20T00:00:00	2024-11-08T06:00:00	5	Humedad	87
3177	7	Sololá	701	Sololá	2	El tablón	11	Noviembre	2023-11-20T00:00:00	2024-11-08T06:00:00	6	Velocidad del viento	1.6
3178	7	Sololá	701	Sololá	2	El tablón	11	Noviembre	2023-11-20T00:00:00	2024-11-08T06:00:00	7	Dirección del viento	1.61
3179	7	Sololá	701	Sololá	2	El tablón	11	Noviembre	2023-11-20T00:00:00	2024-11-08T06:00:00	1	Precipitación	0
3180	7	Sololá	701	Sololá	2	El tablón	11	Noviembre	2023-11-20T00:00:00	2024-11-08T06:00:00	8	Radiación solar	0
3181	7	Sololá	701	Sololá	2	El tablón	11	Noviembre	2023-11-20T00:00:00	2024-11-08T07:00:00	2	Temperatura media	10.3
3182	7	Sololá	701	Sololá	2	El tablón	11	Noviembre	2023-11-20T00:00:00	2024-11-08T07:00:00	4	Temperatura máxima	10.3
3183	7	Sololá	701	Sololá	2	El tablón	11	Noviembre	2023-11-20T00:00:00	2024-11-08T07:00:00	3	Temperatura mínima	8.1
3184	7	Sololá	701	Sololá	2	El tablón	11	Noviembre	2023-11-20T00:00:00	2024-11-08T07:00:00	5	Humedad	75
3185	7	Sololá	701	Sololá	2	El tablón	11	Noviembre	2023-11-20T00:00:00	2024-11-08T07:00:00	6	Velocidad del viento	3.2
3186	7	Sololá	701	Sololá	2	El tablón	11	Noviembre	2023-11-20T00:00:00	2024-11-08T07:00:00	7	Dirección del viento	3.22
3187	7	Sololá	701	Sololá	2	El tablón	11	Noviembre	2023-11-20T00:00:00	2024-11-08T07:00:00	1	Precipitación	0
3188	7	Sololá	701	Sololá	2	El tablón	11	Noviembre	2023-11-20T00:00:00	2024-11-08T07:00:00	8	Radiación solar	35
3189	7	Sololá	701	Sololá	2	El tablón	11	Noviembre	2023-11-20T00:00:00	2024-11-08T08:00:00	2	Temperatura media	15.2
3190	7	Sololá	701	Sololá	2	El tablón	11	Noviembre	2023-11-20T00:00:00	2024-11-08T08:00:00	4	Temperatura máxima	15.2
3191	7	Sololá	701	Sololá	2	El tablón	11	Noviembre	2023-11-20T00:00:00	2024-11-08T08:00:00	3	Temperatura mínima	10.3
3192	7	Sololá	701	Sololá	2	El tablón	11	Noviembre	2023-11-20T00:00:00	2024-11-08T08:00:00	5	Humedad	78
3193	7	Sololá	701	Sololá	2	El tablón	11	Noviembre	2023-11-20T00:00:00	2024-11-08T08:00:00	6	Velocidad del viento	1.6
3194	7	Sololá	701	Sololá	2	El tablón	11	Noviembre	2023-11-20T00:00:00	2024-11-08T08:00:00	7	Dirección del viento	1.61
3195	7	Sololá	701	Sololá	2	El tablón	11	Noviembre	2023-11-20T00:00:00	2024-11-08T08:00:00	1	Precipitación	0
3196	7	Sololá	701	Sololá	2	El tablón	11	Noviembre	2023-11-20T00:00:00	2024-11-08T08:00:00	8	Radiación solar	224
3197	7	Sololá	701	Sololá	2	El tablón	11	Noviembre	2023-11-20T00:00:00	2024-11-08T09:00:00	2	Temperatura media	17.1
3198	7	Sololá	701	Sololá	2	El tablón	11	Noviembre	2023-11-20T00:00:00	2024-11-08T09:00:00	4	Temperatura máxima	17.1
3199	7	Sololá	701	Sololá	2	El tablón	11	Noviembre	2023-11-20T00:00:00	2024-11-08T09:00:00	3	Temperatura mínima	15.2
3200	7	Sololá	701	Sololá	2	El tablón	11	Noviembre	2023-11-20T00:00:00	2024-11-08T09:00:00	5	Humedad	51
3201	7	Sololá	701	Sololá	2	El tablón	11	Noviembre	2023-11-20T00:00:00	2024-11-08T09:00:00	6	Velocidad del viento	1.6
3202	7	Sololá	701	Sololá	2	El tablón	11	Noviembre	2023-11-20T00:00:00	2024-11-08T09:00:00	7	Dirección del viento	1.61
3203	7	Sololá	701	Sololá	2	El tablón	11	Noviembre	2023-11-20T00:00:00	2024-11-08T09:00:00	1	Precipitación	0
3204	7	Sololá	701	Sololá	2	El tablón	11	Noviembre	2023-11-20T00:00:00	2024-11-08T09:00:00	8	Radiación solar	432
3205	7	Sololá	701	Sololá	2	El tablón	11	Noviembre	2023-11-20T00:00:00	2024-11-08T10:00:00	2	Temperatura media	17.6
3206	7	Sololá	701	Sololá	2	El tablón	11	Noviembre	2023-11-20T00:00:00	2024-11-08T10:00:00	4	Temperatura máxima	17.9
3207	7	Sololá	701	Sololá	2	El tablón	11	Noviembre	2023-11-20T00:00:00	2024-11-08T10:00:00	3	Temperatura mínima	16.3
3208	7	Sololá	701	Sololá	2	El tablón	11	Noviembre	2023-11-20T00:00:00	2024-11-08T10:00:00	5	Humedad	76
3209	7	Sololá	701	Sololá	2	El tablón	11	Noviembre	2023-11-20T00:00:00	2024-11-08T10:00:00	6	Velocidad del viento	4.8
3210	7	Sololá	701	Sololá	2	El tablón	11	Noviembre	2023-11-20T00:00:00	2024-11-08T10:00:00	7	Dirección del viento	4.83
3211	7	Sololá	701	Sololá	2	El tablón	11	Noviembre	2023-11-20T00:00:00	2024-11-08T10:00:00	1	Precipitación	0
3212	7	Sololá	701	Sololá	2	El tablón	11	Noviembre	2023-11-20T00:00:00	2024-11-08T10:00:00	8	Radiación solar	617
3213	7	Sololá	701	Sololá	2	El tablón	11	Noviembre	2023-11-20T00:00:00	2024-11-08T11:00:00	2	Temperatura media	17.6
3214	7	Sololá	701	Sololá	2	El tablón	11	Noviembre	2023-11-20T00:00:00	2024-11-08T11:00:00	4	Temperatura máxima	18.1
3215	7	Sololá	701	Sololá	2	El tablón	11	Noviembre	2023-11-20T00:00:00	2024-11-08T11:00:00	3	Temperatura mínima	17.3
3216	7	Sololá	701	Sololá	2	El tablón	11	Noviembre	2023-11-20T00:00:00	2024-11-08T11:00:00	5	Humedad	75
3217	7	Sololá	701	Sololá	2	El tablón	11	Noviembre	2023-11-20T00:00:00	2024-11-08T11:00:00	6	Velocidad del viento	6.4
3218	7	Sololá	701	Sololá	2	El tablón	11	Noviembre	2023-11-20T00:00:00	2024-11-08T11:00:00	7	Dirección del viento	6.44
3219	7	Sololá	701	Sololá	2	El tablón	11	Noviembre	2023-11-20T00:00:00	2024-11-08T11:00:00	1	Precipitación	0
3220	7	Sololá	701	Sololá	2	El tablón	11	Noviembre	2023-11-20T00:00:00	2024-11-08T11:00:00	8	Radiación solar	740
3221	7	Sololá	701	Sololá	2	El tablón	11	Noviembre	2023-11-20T00:00:00	2024-11-08T12:00:00	2	Temperatura media	18.2
3222	7	Sololá	701	Sololá	2	El tablón	11	Noviembre	2023-11-20T00:00:00	2024-11-08T12:00:00	4	Temperatura máxima	18.6
3223	7	Sololá	701	Sololá	2	El tablón	11	Noviembre	2023-11-20T00:00:00	2024-11-08T12:00:00	3	Temperatura mínima	17.6
3224	7	Sololá	701	Sololá	2	El tablón	11	Noviembre	2023-11-20T00:00:00	2024-11-08T12:00:00	5	Humedad	70
3225	7	Sololá	701	Sololá	2	El tablón	11	Noviembre	2023-11-20T00:00:00	2024-11-08T12:00:00	6	Velocidad del viento	6.4
3226	7	Sololá	701	Sololá	2	El tablón	11	Noviembre	2023-11-20T00:00:00	2024-11-08T12:00:00	7	Dirección del viento	6.44
3227	7	Sololá	701	Sololá	2	El tablón	11	Noviembre	2023-11-20T00:00:00	2024-11-08T12:00:00	1	Precipitación	0
3228	7	Sololá	701	Sololá	2	El tablón	11	Noviembre	2023-11-20T00:00:00	2024-11-08T12:00:00	8	Radiación solar	703
3229	7	Sololá	701	Sololá	2	El tablón	11	Noviembre	2023-11-20T00:00:00	2024-11-08T13:00:00	2	Temperatura media	17.7
3230	7	Sololá	701	Sololá	2	El tablón	11	Noviembre	2023-11-20T00:00:00	2024-11-08T13:00:00	4	Temperatura máxima	18.2
3231	7	Sololá	701	Sololá	2	El tablón	11	Noviembre	2023-11-20T00:00:00	2024-11-08T13:00:00	3	Temperatura mínima	17.6
3232	7	Sololá	701	Sololá	2	El tablón	11	Noviembre	2023-11-20T00:00:00	2024-11-08T13:00:00	5	Humedad	78
3233	7	Sololá	701	Sololá	2	El tablón	11	Noviembre	2023-11-20T00:00:00	2024-11-08T13:00:00	6	Velocidad del viento	6.4
3234	7	Sololá	701	Sololá	2	El tablón	11	Noviembre	2023-11-20T00:00:00	2024-11-08T13:00:00	7	Dirección del viento	6.44
3235	7	Sololá	701	Sololá	2	El tablón	11	Noviembre	2023-11-20T00:00:00	2024-11-08T13:00:00	1	Precipitación	0
3236	7	Sololá	701	Sololá	2	El tablón	11	Noviembre	2023-11-20T00:00:00	2024-11-08T13:00:00	8	Radiación solar	783
3237	7	Sololá	701	Sololá	2	El tablón	11	Noviembre	2023-11-20T00:00:00	2024-11-08T14:00:00	2	Temperatura media	16.5
3238	7	Sololá	701	Sololá	2	El tablón	11	Noviembre	2023-11-20T00:00:00	2024-11-08T14:00:00	4	Temperatura máxima	17.7
3239	7	Sololá	701	Sololá	2	El tablón	11	Noviembre	2023-11-20T00:00:00	2024-11-08T14:00:00	3	Temperatura mínima	16.5
3240	7	Sololá	701	Sololá	2	El tablón	11	Noviembre	2023-11-20T00:00:00	2024-11-08T14:00:00	5	Humedad	83
3241	7	Sololá	701	Sololá	2	El tablón	11	Noviembre	2023-11-20T00:00:00	2024-11-08T14:00:00	6	Velocidad del viento	6.4
3242	7	Sololá	701	Sololá	2	El tablón	11	Noviembre	2023-11-20T00:00:00	2024-11-08T14:00:00	7	Dirección del viento	6.44
3243	7	Sololá	701	Sololá	2	El tablón	11	Noviembre	2023-11-20T00:00:00	2024-11-08T14:00:00	1	Precipitación	0
3244	7	Sololá	701	Sololá	2	El tablón	11	Noviembre	2023-11-20T00:00:00	2024-11-08T14:00:00	8	Radiación solar	664
3245	7	Sololá	701	Sololá	2	El tablón	11	Noviembre	2023-11-20T00:00:00	2024-11-08T15:00:00	2	Temperatura media	15.7
3246	7	Sololá	701	Sololá	2	El tablón	11	Noviembre	2023-11-20T00:00:00	2024-11-08T15:00:00	4	Temperatura máxima	16.5
3247	7	Sololá	701	Sololá	2	El tablón	11	Noviembre	2023-11-20T00:00:00	2024-11-08T15:00:00	3	Temperatura mínima	-67.8
3248	7	Sololá	701	Sololá	2	El tablón	11	Noviembre	2023-11-20T00:00:00	2024-11-08T15:00:00	5	Humedad	87
3249	7	Sololá	701	Sololá	2	El tablón	11	Noviembre	2023-11-20T00:00:00	2024-11-08T15:00:00	6	Velocidad del viento	3.2
3250	7	Sololá	701	Sololá	2	El tablón	11	Noviembre	2023-11-20T00:00:00	2024-11-08T15:00:00	7	Dirección del viento	3.22
3251	7	Sololá	701	Sololá	2	El tablón	11	Noviembre	2023-11-20T00:00:00	2024-11-08T15:00:00	1	Precipitación	0.4
3252	7	Sololá	701	Sololá	2	El tablón	11	Noviembre	2023-11-20T00:00:00	2024-11-08T15:00:00	8	Radiación solar	220
3253	7	Sololá	701	Sololá	2	El tablón	11	Noviembre	2023-11-20T00:00:00	2024-11-08T16:00:00	2	Temperatura media	14.7
3254	7	Sololá	701	Sololá	2	El tablón	11	Noviembre	2023-11-20T00:00:00	2024-11-08T16:00:00	4	Temperatura máxima	15.8
3255	7	Sololá	701	Sololá	2	El tablón	11	Noviembre	2023-11-20T00:00:00	2024-11-08T16:00:00	3	Temperatura mínima	14.7
3256	7	Sololá	701	Sololá	2	El tablón	11	Noviembre	2023-11-20T00:00:00	2024-11-08T16:00:00	5	Humedad	88
3257	7	Sololá	701	Sololá	2	El tablón	11	Noviembre	2023-11-20T00:00:00	2024-11-08T16:00:00	6	Velocidad del viento	4.8
3258	7	Sololá	701	Sololá	2	El tablón	11	Noviembre	2023-11-20T00:00:00	2024-11-08T16:00:00	7	Dirección del viento	4.83
3259	7	Sololá	701	Sololá	2	El tablón	11	Noviembre	2023-11-20T00:00:00	2024-11-08T16:00:00	1	Precipitación	0
3260	7	Sololá	701	Sololá	2	El tablón	11	Noviembre	2023-11-20T00:00:00	2024-11-08T16:00:00	8	Radiación solar	134
3261	7	Sololá	701	Sololá	2	El tablón	11	Noviembre	2023-11-20T00:00:00	2024-11-08T17:00:00	2	Temperatura media	14.6
3262	7	Sololá	701	Sololá	2	El tablón	11	Noviembre	2023-11-20T00:00:00	2024-11-08T17:00:00	4	Temperatura máxima	14.7
3263	7	Sololá	701	Sololá	2	El tablón	11	Noviembre	2023-11-20T00:00:00	2024-11-08T17:00:00	3	Temperatura mínima	14.4
3264	7	Sololá	701	Sololá	2	El tablón	11	Noviembre	2023-11-20T00:00:00	2024-11-08T17:00:00	5	Humedad	88
3265	7	Sololá	701	Sololá	2	El tablón	11	Noviembre	2023-11-20T00:00:00	2024-11-08T17:00:00	6	Velocidad del viento	3.2
3266	7	Sololá	701	Sololá	2	El tablón	11	Noviembre	2023-11-20T00:00:00	2024-11-08T17:00:00	7	Dirección del viento	3.22
3267	7	Sololá	701	Sololá	2	El tablón	11	Noviembre	2023-11-20T00:00:00	2024-11-08T17:00:00	1	Precipitación	0
3268	7	Sololá	701	Sololá	2	El tablón	11	Noviembre	2023-11-20T00:00:00	2024-11-08T17:00:00	8	Radiación solar	53
3269	7	Sololá	701	Sololá	2	El tablón	11	Noviembre	2023-11-20T00:00:00	2024-11-08T18:00:00	2	Temperatura media	14.1
3270	7	Sololá	701	Sololá	2	El tablón	11	Noviembre	2023-11-20T00:00:00	2024-11-08T18:00:00	4	Temperatura máxima	14.8
3271	7	Sololá	701	Sololá	2	El tablón	11	Noviembre	2023-11-20T00:00:00	2024-11-08T18:00:00	3	Temperatura mínima	14.1
3272	7	Sololá	701	Sololá	2	El tablón	11	Noviembre	2023-11-20T00:00:00	2024-11-08T18:00:00	5	Humedad	88
3273	7	Sololá	701	Sololá	2	El tablón	11	Noviembre	2023-11-20T00:00:00	2024-11-08T18:00:00	6	Velocidad del viento	3.2
3274	7	Sololá	701	Sololá	2	El tablón	11	Noviembre	2023-11-20T00:00:00	2024-11-08T18:00:00	7	Dirección del viento	3.22
3275	7	Sololá	701	Sololá	2	El tablón	11	Noviembre	2023-11-20T00:00:00	2024-11-08T18:00:00	1	Precipitación	0
3276	7	Sololá	701	Sololá	2	El tablón	11	Noviembre	2023-11-20T00:00:00	2024-11-08T18:00:00	8	Radiación solar	6
3277	7	Sololá	701	Sololá	2	El tablón	11	Noviembre	2023-11-20T00:00:00	2024-11-08T19:00:00	2	Temperatura media	13.2
3278	7	Sololá	701	Sololá	2	El tablón	11	Noviembre	2023-11-20T00:00:00	2024-11-08T19:00:00	4	Temperatura máxima	14.1
3279	7	Sololá	701	Sololá	2	El tablón	11	Noviembre	2023-11-20T00:00:00	2024-11-08T19:00:00	3	Temperatura mínima	13.2
3280	7	Sololá	701	Sololá	2	El tablón	11	Noviembre	2023-11-20T00:00:00	2024-11-08T19:00:00	5	Humedad	88
3281	7	Sololá	701	Sololá	2	El tablón	11	Noviembre	2023-11-20T00:00:00	2024-11-08T19:00:00	6	Velocidad del viento	1.6
3282	7	Sololá	701	Sololá	2	El tablón	11	Noviembre	2023-11-20T00:00:00	2024-11-08T19:00:00	7	Dirección del viento	1.61
3283	7	Sololá	701	Sololá	2	El tablón	11	Noviembre	2023-11-20T00:00:00	2024-11-08T19:00:00	1	Precipitación	0
3284	7	Sololá	701	Sololá	2	El tablón	11	Noviembre	2023-11-20T00:00:00	2024-11-08T19:00:00	8	Radiación solar	0
3285	7	Sololá	701	Sololá	2	El tablón	11	Noviembre	2023-11-20T00:00:00	2024-11-08T20:00:00	2	Temperatura media	12.5
3286	7	Sololá	701	Sololá	2	El tablón	11	Noviembre	2023-11-20T00:00:00	2024-11-08T20:00:00	4	Temperatura máxima	13.3
3287	7	Sololá	701	Sololá	2	El tablón	11	Noviembre	2023-11-20T00:00:00	2024-11-08T20:00:00	3	Temperatura mínima	12.5
3288	7	Sololá	701	Sololá	2	El tablón	11	Noviembre	2023-11-20T00:00:00	2024-11-08T20:00:00	5	Humedad	89
3289	7	Sololá	701	Sololá	2	El tablón	11	Noviembre	2023-11-20T00:00:00	2024-11-08T20:00:00	6	Velocidad del viento	0
3290	7	Sololá	701	Sololá	2	El tablón	11	Noviembre	2023-11-20T00:00:00	2024-11-08T20:00:00	7	Dirección del viento	0
3291	7	Sololá	701	Sololá	2	El tablón	11	Noviembre	2023-11-20T00:00:00	2024-11-08T20:00:00	1	Precipitación	0
3292	7	Sololá	701	Sololá	2	El tablón	11	Noviembre	2023-11-20T00:00:00	2024-11-08T20:00:00	8	Radiación solar	0
3293	7	Sololá	701	Sololá	2	El tablón	11	Noviembre	2023-11-20T00:00:00	2024-11-08T21:00:00	2	Temperatura media	11.2
3294	7	Sololá	701	Sololá	2	El tablón	11	Noviembre	2023-11-20T00:00:00	2024-11-08T21:00:00	4	Temperatura máxima	12.5
3295	7	Sololá	701	Sololá	2	El tablón	11	Noviembre	2023-11-20T00:00:00	2024-11-08T21:00:00	3	Temperatura mínima	11.2
3296	7	Sololá	701	Sololá	2	El tablón	11	Noviembre	2023-11-20T00:00:00	2024-11-08T21:00:00	5	Humedad	89
3297	7	Sololá	701	Sololá	2	El tablón	11	Noviembre	2023-11-20T00:00:00	2024-11-08T21:00:00	6	Velocidad del viento	1.6
3298	7	Sololá	701	Sololá	2	El tablón	11	Noviembre	2023-11-20T00:00:00	2024-11-08T21:00:00	7	Dirección del viento	1.61
3299	7	Sololá	701	Sololá	2	El tablón	11	Noviembre	2023-11-20T00:00:00	2024-11-08T21:00:00	1	Precipitación	0
3300	7	Sololá	701	Sololá	2	El tablón	11	Noviembre	2023-11-20T00:00:00	2024-11-08T21:00:00	8	Radiación solar	0
3301	7	Sololá	701	Sololá	2	El tablón	11	Noviembre	2023-11-20T00:00:00	2024-11-08T22:00:00	2	Temperatura media	12
3302	7	Sololá	701	Sololá	2	El tablón	11	Noviembre	2023-11-20T00:00:00	2024-11-08T22:00:00	4	Temperatura máxima	12.1
3303	7	Sololá	701	Sololá	2	El tablón	11	Noviembre	2023-11-20T00:00:00	2024-11-08T22:00:00	3	Temperatura mínima	11.2
3304	7	Sololá	701	Sololá	2	El tablón	11	Noviembre	2023-11-20T00:00:00	2024-11-08T22:00:00	5	Humedad	89
3305	7	Sololá	701	Sololá	2	El tablón	11	Noviembre	2023-11-20T00:00:00	2024-11-08T22:00:00	6	Velocidad del viento	3.2
3306	7	Sololá	701	Sololá	2	El tablón	11	Noviembre	2023-11-20T00:00:00	2024-11-08T22:00:00	7	Dirección del viento	3.22
3307	7	Sololá	701	Sololá	2	El tablón	11	Noviembre	2023-11-20T00:00:00	2024-11-08T22:00:00	1	Precipitación	0
3308	7	Sololá	701	Sololá	2	El tablón	11	Noviembre	2023-11-20T00:00:00	2024-11-08T22:00:00	8	Radiación solar	0
3309	7	Sololá	701	Sololá	2	El tablón	11	Noviembre	2023-11-20T00:00:00	2024-11-08T23:00:00	2	Temperatura media	11.9
3310	7	Sololá	701	Sololá	2	El tablón	11	Noviembre	2023-11-20T00:00:00	2024-11-08T23:00:00	4	Temperatura máxima	12.2
3311	7	Sololá	701	Sololá	2	El tablón	11	Noviembre	2023-11-20T00:00:00	2024-11-08T23:00:00	3	Temperatura mínima	11.9
3312	7	Sololá	701	Sololá	2	El tablón	11	Noviembre	2023-11-20T00:00:00	2024-11-08T23:00:00	5	Humedad	89
3313	7	Sololá	701	Sololá	2	El tablón	11	Noviembre	2023-11-20T00:00:00	2024-11-08T23:00:00	6	Velocidad del viento	1.6
3314	7	Sololá	701	Sololá	2	El tablón	11	Noviembre	2023-11-20T00:00:00	2024-11-08T23:00:00	7	Dirección del viento	1.61
3315	7	Sololá	701	Sololá	2	El tablón	11	Noviembre	2023-11-20T00:00:00	2024-11-08T23:00:00	1	Precipitación	0
3316	7	Sololá	701	Sololá	2	El tablón	11	Noviembre	2023-11-20T00:00:00	2024-11-08T23:00:00	8	Radiación solar	0
3317	7	Sololá	701	Sololá	2	El tablón	11	Noviembre	2023-11-21T00:00:00	2024-11-08T00:00:00	2	Temperatura media	11.7
3318	7	Sololá	701	Sololá	2	El tablón	11	Noviembre	2023-11-21T00:00:00	2024-11-08T00:00:00	4	Temperatura máxima	12
3319	7	Sololá	701	Sololá	2	El tablón	11	Noviembre	2023-11-21T00:00:00	2024-11-08T00:00:00	3	Temperatura mínima	11.6
3320	7	Sololá	701	Sololá	2	El tablón	11	Noviembre	2023-11-21T00:00:00	2024-11-08T00:00:00	5	Humedad	89
3321	7	Sololá	701	Sololá	2	El tablón	11	Noviembre	2023-11-21T00:00:00	2024-11-08T00:00:00	6	Velocidad del viento	4.8
3322	7	Sololá	701	Sololá	2	El tablón	11	Noviembre	2023-11-21T00:00:00	2024-11-08T00:00:00	7	Dirección del viento	4.83
3323	7	Sololá	701	Sololá	2	El tablón	11	Noviembre	2023-11-21T00:00:00	2024-11-08T00:00:00	1	Precipitación	0
3324	7	Sololá	701	Sololá	2	El tablón	11	Noviembre	2023-11-21T00:00:00	2024-11-08T00:00:00	8	Radiación solar	0
3325	7	Sololá	701	Sololá	2	El tablón	11	Noviembre	2023-11-21T00:00:00	2024-11-08T01:00:00	2	Temperatura media	10.4
3326	7	Sololá	701	Sololá	2	El tablón	11	Noviembre	2023-11-21T00:00:00	2024-11-08T01:00:00	4	Temperatura máxima	11.7
3327	7	Sololá	701	Sololá	2	El tablón	11	Noviembre	2023-11-21T00:00:00	2024-11-08T01:00:00	3	Temperatura mínima	10.4
3328	7	Sololá	701	Sololá	2	El tablón	11	Noviembre	2023-11-21T00:00:00	2024-11-08T01:00:00	5	Humedad	89
3329	7	Sololá	701	Sololá	2	El tablón	11	Noviembre	2023-11-21T00:00:00	2024-11-08T01:00:00	6	Velocidad del viento	4.8
3330	7	Sololá	701	Sololá	2	El tablón	11	Noviembre	2023-11-21T00:00:00	2024-11-08T01:00:00	7	Dirección del viento	4.83
3331	7	Sololá	701	Sololá	2	El tablón	11	Noviembre	2023-11-21T00:00:00	2024-11-08T01:00:00	1	Precipitación	0
3332	7	Sololá	701	Sololá	2	El tablón	11	Noviembre	2023-11-21T00:00:00	2024-11-08T01:00:00	8	Radiación solar	0
3333	7	Sololá	701	Sololá	2	El tablón	11	Noviembre	2023-11-21T00:00:00	2024-11-08T02:00:00	2	Temperatura media	9.6
3334	7	Sololá	701	Sololá	2	El tablón	11	Noviembre	2023-11-21T00:00:00	2024-11-08T02:00:00	4	Temperatura máxima	10.4
3335	7	Sololá	701	Sololá	2	El tablón	11	Noviembre	2023-11-21T00:00:00	2024-11-08T02:00:00	3	Temperatura mínima	9.5
3336	7	Sololá	701	Sololá	2	El tablón	11	Noviembre	2023-11-21T00:00:00	2024-11-08T02:00:00	5	Humedad	89
3337	7	Sololá	701	Sololá	2	El tablón	11	Noviembre	2023-11-21T00:00:00	2024-11-08T02:00:00	6	Velocidad del viento	3.2
3338	7	Sololá	701	Sololá	2	El tablón	11	Noviembre	2023-11-21T00:00:00	2024-11-08T02:00:00	7	Dirección del viento	3.22
3339	7	Sololá	701	Sololá	2	El tablón	11	Noviembre	2023-11-21T00:00:00	2024-11-08T02:00:00	1	Precipitación	0
3340	7	Sololá	701	Sololá	2	El tablón	11	Noviembre	2023-11-21T00:00:00	2024-11-08T02:00:00	8	Radiación solar	0
3341	7	Sololá	701	Sololá	2	El tablón	11	Noviembre	2023-11-21T00:00:00	2024-11-08T03:00:00	2	Temperatura media	9.2
3342	7	Sololá	701	Sololá	2	El tablón	11	Noviembre	2023-11-21T00:00:00	2024-11-08T03:00:00	4	Temperatura máxima	10.2
3343	7	Sololá	701	Sololá	2	El tablón	11	Noviembre	2023-11-21T00:00:00	2024-11-08T03:00:00	3	Temperatura mínima	9.2
3344	7	Sololá	701	Sololá	2	El tablón	11	Noviembre	2023-11-21T00:00:00	2024-11-08T03:00:00	5	Humedad	89
3345	7	Sololá	701	Sololá	2	El tablón	11	Noviembre	2023-11-21T00:00:00	2024-11-08T03:00:00	6	Velocidad del viento	3.2
3346	7	Sololá	701	Sololá	2	El tablón	11	Noviembre	2023-11-21T00:00:00	2024-11-08T03:00:00	7	Dirección del viento	3.22
3347	7	Sololá	701	Sololá	2	El tablón	11	Noviembre	2023-11-21T00:00:00	2024-11-08T03:00:00	1	Precipitación	0
3348	7	Sololá	701	Sololá	2	El tablón	11	Noviembre	2023-11-21T00:00:00	2024-11-08T03:00:00	8	Radiación solar	0
3349	7	Sololá	701	Sololá	2	El tablón	11	Noviembre	2023-11-21T00:00:00	2024-11-08T04:00:00	2	Temperatura media	9.2
3350	7	Sololá	701	Sololá	2	El tablón	11	Noviembre	2023-11-21T00:00:00	2024-11-08T04:00:00	4	Temperatura máxima	9.6
3351	7	Sololá	701	Sololá	2	El tablón	11	Noviembre	2023-11-21T00:00:00	2024-11-08T04:00:00	3	Temperatura mínima	9.1
3352	7	Sololá	701	Sololá	2	El tablón	11	Noviembre	2023-11-21T00:00:00	2024-11-08T04:00:00	5	Humedad	71
3353	7	Sololá	701	Sololá	2	El tablón	11	Noviembre	2023-11-21T00:00:00	2024-11-08T04:00:00	6	Velocidad del viento	4.8
3354	7	Sololá	701	Sololá	2	El tablón	11	Noviembre	2023-11-21T00:00:00	2024-11-08T04:00:00	7	Dirección del viento	4.83
3355	7	Sololá	701	Sololá	2	El tablón	11	Noviembre	2023-11-21T00:00:00	2024-11-08T04:00:00	1	Precipitación	0
3356	7	Sololá	701	Sololá	2	El tablón	11	Noviembre	2023-11-21T00:00:00	2024-11-08T04:00:00	8	Radiación solar	0
3357	7	Sololá	701	Sololá	2	El tablón	11	Noviembre	2023-11-21T00:00:00	2024-11-08T05:00:00	2	Temperatura media	14.4
3358	7	Sololá	701	Sololá	2	El tablón	11	Noviembre	2023-11-21T00:00:00	2024-11-08T05:00:00	4	Temperatura máxima	14.9
3359	7	Sololá	701	Sololá	2	El tablón	11	Noviembre	2023-11-21T00:00:00	2024-11-08T05:00:00	3	Temperatura mínima	9.2
3360	7	Sololá	701	Sololá	2	El tablón	11	Noviembre	2023-11-21T00:00:00	2024-11-08T05:00:00	5	Humedad	40
3361	7	Sololá	701	Sololá	2	El tablón	11	Noviembre	2023-11-21T00:00:00	2024-11-08T05:00:00	6	Velocidad del viento	4.8
3362	7	Sololá	701	Sololá	2	El tablón	11	Noviembre	2023-11-21T00:00:00	2024-11-08T05:00:00	7	Dirección del viento	4.83
3363	7	Sololá	701	Sololá	2	El tablón	11	Noviembre	2023-11-21T00:00:00	2024-11-08T05:00:00	1	Precipitación	0
3364	7	Sololá	701	Sololá	2	El tablón	11	Noviembre	2023-11-21T00:00:00	2024-11-08T05:00:00	8	Radiación solar	0
3365	7	Sololá	701	Sololá	2	El tablón	11	Noviembre	2023-11-21T00:00:00	2024-11-08T06:00:00	2	Temperatura media	13.3
3366	7	Sololá	701	Sololá	2	El tablón	11	Noviembre	2023-11-21T00:00:00	2024-11-08T06:00:00	4	Temperatura máxima	14.4
3367	7	Sololá	701	Sololá	2	El tablón	11	Noviembre	2023-11-21T00:00:00	2024-11-08T06:00:00	3	Temperatura mínima	12.7
3368	7	Sololá	701	Sololá	2	El tablón	11	Noviembre	2023-11-21T00:00:00	2024-11-08T06:00:00	5	Humedad	44
3369	7	Sololá	701	Sololá	2	El tablón	11	Noviembre	2023-11-21T00:00:00	2024-11-08T06:00:00	6	Velocidad del viento	1.6
3370	7	Sololá	701	Sololá	2	El tablón	11	Noviembre	2023-11-21T00:00:00	2024-11-08T06:00:00	7	Dirección del viento	1.61
3371	7	Sololá	701	Sololá	2	El tablón	11	Noviembre	2023-11-21T00:00:00	2024-11-08T06:00:00	1	Precipitación	0
3372	7	Sololá	701	Sololá	2	El tablón	11	Noviembre	2023-11-21T00:00:00	2024-11-08T06:00:00	8	Radiación solar	0
3373	7	Sololá	701	Sololá	2	El tablón	11	Noviembre	2023-11-21T00:00:00	2024-11-08T07:00:00	2	Temperatura media	15.2
3374	7	Sololá	701	Sololá	2	El tablón	11	Noviembre	2023-11-21T00:00:00	2024-11-08T07:00:00	4	Temperatura máxima	15.2
3375	7	Sololá	701	Sololá	2	El tablón	11	Noviembre	2023-11-21T00:00:00	2024-11-08T07:00:00	3	Temperatura mínima	11.5
3376	7	Sololá	701	Sololá	2	El tablón	11	Noviembre	2023-11-21T00:00:00	2024-11-08T07:00:00	5	Humedad	42
3377	7	Sololá	701	Sololá	2	El tablón	11	Noviembre	2023-11-21T00:00:00	2024-11-08T07:00:00	6	Velocidad del viento	1.6
3378	7	Sololá	701	Sololá	2	El tablón	11	Noviembre	2023-11-21T00:00:00	2024-11-08T07:00:00	7	Dirección del viento	1.61
3379	7	Sololá	701	Sololá	2	El tablón	11	Noviembre	2023-11-21T00:00:00	2024-11-08T07:00:00	1	Precipitación	0
3380	7	Sololá	701	Sololá	2	El tablón	11	Noviembre	2023-11-21T00:00:00	2024-11-08T07:00:00	8	Radiación solar	31
3381	7	Sololá	701	Sololá	2	El tablón	11	Noviembre	2023-11-21T00:00:00	2024-11-08T08:00:00	2	Temperatura media	19.4
3382	7	Sololá	701	Sololá	2	El tablón	11	Noviembre	2023-11-21T00:00:00	2024-11-08T08:00:00	4	Temperatura máxima	19.5
3383	7	Sololá	701	Sololá	2	El tablón	11	Noviembre	2023-11-21T00:00:00	2024-11-08T08:00:00	3	Temperatura mínima	15.2
3384	7	Sololá	701	Sololá	2	El tablón	11	Noviembre	2023-11-21T00:00:00	2024-11-08T08:00:00	5	Humedad	27
3385	7	Sololá	701	Sololá	2	El tablón	11	Noviembre	2023-11-21T00:00:00	2024-11-08T08:00:00	6	Velocidad del viento	3.2
3386	7	Sololá	701	Sololá	2	El tablón	11	Noviembre	2023-11-21T00:00:00	2024-11-08T08:00:00	7	Dirección del viento	3.22
3387	7	Sololá	701	Sololá	2	El tablón	11	Noviembre	2023-11-21T00:00:00	2024-11-08T08:00:00	1	Precipitación	0
3388	7	Sololá	701	Sololá	2	El tablón	11	Noviembre	2023-11-21T00:00:00	2024-11-08T08:00:00	8	Radiación solar	220
3389	7	Sololá	701	Sololá	2	El tablón	11	Noviembre	2023-11-21T00:00:00	2024-11-08T09:00:00	2	Temperatura media	20.7
3390	7	Sololá	701	Sololá	2	El tablón	11	Noviembre	2023-11-21T00:00:00	2024-11-08T09:00:00	4	Temperatura máxima	20.8
3391	7	Sololá	701	Sololá	2	El tablón	11	Noviembre	2023-11-21T00:00:00	2024-11-08T09:00:00	3	Temperatura mínima	19.4
3392	7	Sololá	701	Sololá	2	El tablón	11	Noviembre	2023-11-21T00:00:00	2024-11-08T09:00:00	5	Humedad	21
3393	7	Sololá	701	Sololá	2	El tablón	11	Noviembre	2023-11-21T00:00:00	2024-11-08T09:00:00	6	Velocidad del viento	6.4
3394	7	Sololá	701	Sololá	2	El tablón	11	Noviembre	2023-11-21T00:00:00	2024-11-08T09:00:00	7	Dirección del viento	6.44
3395	7	Sololá	701	Sololá	2	El tablón	11	Noviembre	2023-11-21T00:00:00	2024-11-08T09:00:00	1	Precipitación	0
3396	7	Sololá	701	Sololá	2	El tablón	11	Noviembre	2023-11-21T00:00:00	2024-11-08T09:00:00	8	Radiación solar	443
3397	7	Sololá	701	Sololá	2	El tablón	11	Noviembre	2023-11-21T00:00:00	2024-11-08T10:00:00	2	Temperatura media	21.2
3398	7	Sololá	701	Sololá	2	El tablón	11	Noviembre	2023-11-21T00:00:00	2024-11-08T10:00:00	4	Temperatura máxima	21.4
3399	7	Sololá	701	Sololá	2	El tablón	11	Noviembre	2023-11-21T00:00:00	2024-11-08T10:00:00	3	Temperatura mínima	20.6
3400	7	Sololá	701	Sololá	2	El tablón	11	Noviembre	2023-11-21T00:00:00	2024-11-08T10:00:00	5	Humedad	20
3401	7	Sololá	701	Sololá	2	El tablón	11	Noviembre	2023-11-21T00:00:00	2024-11-08T10:00:00	6	Velocidad del viento	11.3
3402	7	Sololá	701	Sololá	2	El tablón	11	Noviembre	2023-11-21T00:00:00	2024-11-08T10:00:00	7	Dirección del viento	11.27
3403	7	Sololá	701	Sololá	2	El tablón	11	Noviembre	2023-11-21T00:00:00	2024-11-08T10:00:00	1	Precipitación	0
3404	7	Sololá	701	Sololá	2	El tablón	11	Noviembre	2023-11-21T00:00:00	2024-11-08T10:00:00	8	Radiación solar	634
3405	7	Sololá	701	Sololá	2	El tablón	11	Noviembre	2023-11-21T00:00:00	2024-11-08T11:00:00	2	Temperatura media	22.1
3406	7	Sololá	701	Sololá	2	El tablón	11	Noviembre	2023-11-21T00:00:00	2024-11-08T11:00:00	4	Temperatura máxima	22.2
3407	7	Sololá	701	Sololá	2	El tablón	11	Noviembre	2023-11-21T00:00:00	2024-11-08T11:00:00	3	Temperatura mínima	21.2
3408	7	Sololá	701	Sololá	2	El tablón	11	Noviembre	2023-11-21T00:00:00	2024-11-08T11:00:00	5	Humedad	28
3409	7	Sololá	701	Sololá	2	El tablón	11	Noviembre	2023-11-21T00:00:00	2024-11-08T11:00:00	6	Velocidad del viento	9.7
3410	7	Sololá	701	Sololá	2	El tablón	11	Noviembre	2023-11-21T00:00:00	2024-11-08T11:00:00	7	Dirección del viento	9.66
3411	7	Sololá	701	Sololá	2	El tablón	11	Noviembre	2023-11-21T00:00:00	2024-11-08T11:00:00	1	Precipitación	0
3412	7	Sololá	701	Sololá	2	El tablón	11	Noviembre	2023-11-21T00:00:00	2024-11-08T11:00:00	8	Radiación solar	758
3413	7	Sololá	701	Sololá	2	El tablón	11	Noviembre	2023-11-21T00:00:00	2024-11-08T12:00:00	2	Temperatura media	21.8
3414	7	Sololá	701	Sololá	2	El tablón	11	Noviembre	2023-11-21T00:00:00	2024-11-08T12:00:00	4	Temperatura máxima	22.2
3415	7	Sololá	701	Sololá	2	El tablón	11	Noviembre	2023-11-21T00:00:00	2024-11-08T12:00:00	3	Temperatura mínima	21.5
3416	7	Sololá	701	Sololá	2	El tablón	11	Noviembre	2023-11-21T00:00:00	2024-11-08T12:00:00	5	Humedad	37
3417	7	Sololá	701	Sololá	2	El tablón	11	Noviembre	2023-11-21T00:00:00	2024-11-08T12:00:00	6	Velocidad del viento	9.7
3418	7	Sololá	701	Sololá	2	El tablón	11	Noviembre	2023-11-21T00:00:00	2024-11-08T12:00:00	7	Dirección del viento	9.66
3419	7	Sololá	701	Sololá	2	El tablón	11	Noviembre	2023-11-21T00:00:00	2024-11-08T12:00:00	1	Precipitación	0
3420	7	Sololá	701	Sololá	2	El tablón	11	Noviembre	2023-11-21T00:00:00	2024-11-08T12:00:00	8	Radiación solar	717
3421	7	Sololá	701	Sololá	2	El tablón	11	Noviembre	2023-11-21T00:00:00	2024-11-08T13:00:00	2	Temperatura media	21.6
3422	7	Sololá	701	Sololá	2	El tablón	11	Noviembre	2023-11-21T00:00:00	2024-11-08T13:00:00	4	Temperatura máxima	22.1
3423	7	Sololá	701	Sololá	2	El tablón	11	Noviembre	2023-11-21T00:00:00	2024-11-08T13:00:00	3	Temperatura mínima	21.6
3424	7	Sololá	701	Sololá	2	El tablón	11	Noviembre	2023-11-21T00:00:00	2024-11-08T13:00:00	5	Humedad	34
3425	7	Sololá	701	Sololá	2	El tablón	11	Noviembre	2023-11-21T00:00:00	2024-11-08T13:00:00	6	Velocidad del viento	12.9
3426	7	Sololá	701	Sololá	2	El tablón	11	Noviembre	2023-11-21T00:00:00	2024-11-08T13:00:00	7	Dirección del viento	12.87
3427	7	Sololá	701	Sololá	2	El tablón	11	Noviembre	2023-11-21T00:00:00	2024-11-08T13:00:00	1	Precipitación	0
3428	7	Sololá	701	Sololá	2	El tablón	11	Noviembre	2023-11-21T00:00:00	2024-11-08T13:00:00	8	Radiación solar	806
3429	7	Sololá	701	Sololá	2	El tablón	11	Noviembre	2023-11-21T00:00:00	2024-11-08T14:00:00	2	Temperatura media	21.1
3430	7	Sololá	701	Sololá	2	El tablón	11	Noviembre	2023-11-21T00:00:00	2024-11-08T14:00:00	4	Temperatura máxima	21.7
3431	7	Sololá	701	Sololá	2	El tablón	11	Noviembre	2023-11-21T00:00:00	2024-11-08T14:00:00	3	Temperatura mínima	21.1
3432	7	Sololá	701	Sololá	2	El tablón	11	Noviembre	2023-11-21T00:00:00	2024-11-08T14:00:00	5	Humedad	47
3433	7	Sololá	701	Sololá	2	El tablón	11	Noviembre	2023-11-21T00:00:00	2024-11-08T14:00:00	6	Velocidad del viento	12.9
3434	7	Sololá	701	Sololá	2	El tablón	11	Noviembre	2023-11-21T00:00:00	2024-11-08T14:00:00	7	Dirección del viento	12.87
3435	7	Sololá	701	Sololá	2	El tablón	11	Noviembre	2023-11-21T00:00:00	2024-11-08T14:00:00	1	Precipitación	0
3436	7	Sololá	701	Sololá	2	El tablón	11	Noviembre	2023-11-21T00:00:00	2024-11-08T14:00:00	8	Radiación solar	730
3437	7	Sololá	701	Sololá	2	El tablón	11	Noviembre	2023-11-21T00:00:00	2024-11-08T15:00:00	2	Temperatura media	20.4
3438	7	Sololá	701	Sololá	2	El tablón	11	Noviembre	2023-11-21T00:00:00	2024-11-08T15:00:00	4	Temperatura máxima	21.1
3439	7	Sololá	701	Sololá	2	El tablón	11	Noviembre	2023-11-21T00:00:00	2024-11-08T15:00:00	3	Temperatura mínima	20.4
3440	7	Sololá	701	Sololá	2	El tablón	11	Noviembre	2023-11-21T00:00:00	2024-11-08T15:00:00	5	Humedad	53
3441	7	Sololá	701	Sololá	2	El tablón	11	Noviembre	2023-11-21T00:00:00	2024-11-08T15:00:00	6	Velocidad del viento	12.9
3442	7	Sololá	701	Sololá	2	El tablón	11	Noviembre	2023-11-21T00:00:00	2024-11-08T15:00:00	7	Dirección del viento	12.87
3443	7	Sololá	701	Sololá	2	El tablón	11	Noviembre	2023-11-21T00:00:00	2024-11-08T15:00:00	1	Precipitación	0
3444	7	Sololá	701	Sololá	2	El tablón	11	Noviembre	2023-11-21T00:00:00	2024-11-08T15:00:00	8	Radiación solar	588
3445	7	Sololá	701	Sololá	2	El tablón	11	Noviembre	2023-11-21T00:00:00	2024-11-08T16:00:00	2	Temperatura media	19.8
3446	7	Sololá	701	Sololá	2	El tablón	11	Noviembre	2023-11-21T00:00:00	2024-11-08T16:00:00	4	Temperatura máxima	20.6
3447	7	Sololá	701	Sololá	2	El tablón	11	Noviembre	2023-11-21T00:00:00	2024-11-08T16:00:00	3	Temperatura mínima	19.8
3448	7	Sololá	701	Sololá	2	El tablón	11	Noviembre	2023-11-21T00:00:00	2024-11-08T16:00:00	5	Humedad	56
3449	7	Sololá	701	Sololá	2	El tablón	11	Noviembre	2023-11-21T00:00:00	2024-11-08T16:00:00	6	Velocidad del viento	9.7
3450	7	Sololá	701	Sololá	2	El tablón	11	Noviembre	2023-11-21T00:00:00	2024-11-08T16:00:00	7	Dirección del viento	9.66
3451	7	Sololá	701	Sololá	2	El tablón	11	Noviembre	2023-11-21T00:00:00	2024-11-08T16:00:00	1	Precipitación	0
3452	7	Sololá	701	Sololá	2	El tablón	11	Noviembre	2023-11-21T00:00:00	2024-11-08T16:00:00	8	Radiación solar	403
3453	7	Sololá	701	Sololá	2	El tablón	11	Noviembre	2023-11-21T00:00:00	2024-11-08T17:00:00	2	Temperatura media	17
3454	7	Sololá	701	Sololá	2	El tablón	11	Noviembre	2023-11-21T00:00:00	2024-11-08T17:00:00	4	Temperatura máxima	19.8
3455	7	Sololá	701	Sololá	2	El tablón	11	Noviembre	2023-11-21T00:00:00	2024-11-08T17:00:00	3	Temperatura mínima	17
3456	7	Sololá	701	Sololá	2	El tablón	11	Noviembre	2023-11-21T00:00:00	2024-11-08T17:00:00	5	Humedad	60
3457	7	Sololá	701	Sololá	2	El tablón	11	Noviembre	2023-11-21T00:00:00	2024-11-08T17:00:00	6	Velocidad del viento	11.3
3458	7	Sololá	701	Sololá	2	El tablón	11	Noviembre	2023-11-21T00:00:00	2024-11-08T17:00:00	7	Dirección del viento	11.27
3459	7	Sololá	701	Sololá	2	El tablón	11	Noviembre	2023-11-21T00:00:00	2024-11-08T17:00:00	1	Precipitación	0
3460	7	Sololá	701	Sololá	2	El tablón	11	Noviembre	2023-11-21T00:00:00	2024-11-08T17:00:00	8	Radiación solar	182
3461	7	Sololá	701	Sololá	2	El tablón	11	Noviembre	2023-11-21T00:00:00	2024-11-08T18:00:00	2	Temperatura media	14.3
3462	7	Sololá	701	Sololá	2	El tablón	11	Noviembre	2023-11-21T00:00:00	2024-11-08T18:00:00	4	Temperatura máxima	17
3463	7	Sololá	701	Sololá	2	El tablón	11	Noviembre	2023-11-21T00:00:00	2024-11-08T18:00:00	3	Temperatura mínima	14.3
3464	7	Sololá	701	Sololá	2	El tablón	11	Noviembre	2023-11-21T00:00:00	2024-11-08T18:00:00	5	Humedad	70
3465	7	Sololá	701	Sololá	2	El tablón	11	Noviembre	2023-11-21T00:00:00	2024-11-08T18:00:00	6	Velocidad del viento	8
3466	7	Sololá	701	Sololá	2	El tablón	11	Noviembre	2023-11-21T00:00:00	2024-11-08T18:00:00	7	Dirección del viento	8.05
3467	7	Sololá	701	Sololá	2	El tablón	11	Noviembre	2023-11-21T00:00:00	2024-11-08T18:00:00	1	Precipitación	0
3468	7	Sololá	701	Sololá	2	El tablón	11	Noviembre	2023-11-21T00:00:00	2024-11-08T18:00:00	8	Radiación solar	12
3469	7	Sololá	701	Sololá	2	El tablón	11	Noviembre	2023-11-21T00:00:00	2024-11-08T19:00:00	2	Temperatura media	13
3470	7	Sololá	701	Sololá	2	El tablón	11	Noviembre	2023-11-21T00:00:00	2024-11-08T19:00:00	4	Temperatura máxima	14.3
3471	7	Sololá	701	Sololá	2	El tablón	11	Noviembre	2023-11-21T00:00:00	2024-11-08T19:00:00	3	Temperatura mínima	13
3472	7	Sololá	701	Sololá	2	El tablón	11	Noviembre	2023-11-21T00:00:00	2024-11-08T19:00:00	5	Humedad	72
3473	7	Sololá	701	Sololá	2	El tablón	11	Noviembre	2023-11-21T00:00:00	2024-11-08T19:00:00	6	Velocidad del viento	8
3474	7	Sololá	701	Sololá	2	El tablón	11	Noviembre	2023-11-21T00:00:00	2024-11-08T19:00:00	7	Dirección del viento	8.05
3475	7	Sololá	701	Sololá	2	El tablón	11	Noviembre	2023-11-21T00:00:00	2024-11-08T19:00:00	1	Precipitación	0
3476	7	Sololá	701	Sololá	2	El tablón	11	Noviembre	2023-11-21T00:00:00	2024-11-08T19:00:00	8	Radiación solar	0
3477	7	Sololá	701	Sololá	2	El tablón	11	Noviembre	2023-11-21T00:00:00	2024-11-08T20:00:00	2	Temperatura media	12
3478	7	Sololá	701	Sololá	2	El tablón	11	Noviembre	2023-11-21T00:00:00	2024-11-08T20:00:00	4	Temperatura máxima	13
3479	7	Sololá	701	Sololá	2	El tablón	11	Noviembre	2023-11-21T00:00:00	2024-11-08T20:00:00	3	Temperatura mínima	12
3480	7	Sololá	701	Sololá	2	El tablón	11	Noviembre	2023-11-21T00:00:00	2024-11-08T20:00:00	5	Humedad	81
3481	7	Sololá	701	Sololá	2	El tablón	11	Noviembre	2023-11-21T00:00:00	2024-11-08T20:00:00	6	Velocidad del viento	11.3
3482	7	Sololá	701	Sololá	2	El tablón	11	Noviembre	2023-11-21T00:00:00	2024-11-08T20:00:00	7	Dirección del viento	11.27
3483	7	Sololá	701	Sololá	2	El tablón	11	Noviembre	2023-11-21T00:00:00	2024-11-08T20:00:00	1	Precipitación	0
3484	7	Sololá	701	Sololá	2	El tablón	11	Noviembre	2023-11-21T00:00:00	2024-11-08T20:00:00	8	Radiación solar	0
3485	7	Sololá	701	Sololá	2	El tablón	11	Noviembre	2023-11-21T00:00:00	2024-11-08T21:00:00	2	Temperatura media	11.9
3486	7	Sololá	701	Sololá	2	El tablón	11	Noviembre	2023-11-21T00:00:00	2024-11-08T21:00:00	4	Temperatura máxima	12.1
3487	7	Sololá	701	Sololá	2	El tablón	11	Noviembre	2023-11-21T00:00:00	2024-11-08T21:00:00	3	Temperatura mínima	11.9
3488	7	Sololá	701	Sololá	2	El tablón	11	Noviembre	2023-11-21T00:00:00	2024-11-08T21:00:00	5	Humedad	83
3489	7	Sololá	701	Sololá	2	El tablón	11	Noviembre	2023-11-21T00:00:00	2024-11-08T21:00:00	6	Velocidad del viento	14.5
3490	7	Sololá	701	Sololá	2	El tablón	11	Noviembre	2023-11-21T00:00:00	2024-11-08T21:00:00	7	Dirección del viento	14.48
3491	7	Sololá	701	Sololá	2	El tablón	11	Noviembre	2023-11-21T00:00:00	2024-11-08T21:00:00	1	Precipitación	0
3492	7	Sololá	701	Sololá	2	El tablón	11	Noviembre	2023-11-21T00:00:00	2024-11-08T21:00:00	8	Radiación solar	0
3493	7	Sololá	701	Sololá	2	El tablón	11	Noviembre	2023-11-21T00:00:00	2024-11-08T22:00:00	2	Temperatura media	12.2
3494	7	Sololá	701	Sololá	2	El tablón	11	Noviembre	2023-11-21T00:00:00	2024-11-08T22:00:00	4	Temperatura máxima	12.2
3495	7	Sololá	701	Sololá	2	El tablón	11	Noviembre	2023-11-21T00:00:00	2024-11-08T22:00:00	3	Temperatura mínima	11.8
3496	7	Sololá	701	Sololá	2	El tablón	11	Noviembre	2023-11-21T00:00:00	2024-11-08T22:00:00	5	Humedad	80
3497	7	Sololá	701	Sololá	2	El tablón	11	Noviembre	2023-11-21T00:00:00	2024-11-08T22:00:00	6	Velocidad del viento	14.5
3498	7	Sololá	701	Sololá	2	El tablón	11	Noviembre	2023-11-21T00:00:00	2024-11-08T22:00:00	7	Dirección del viento	14.48
3499	7	Sololá	701	Sololá	2	El tablón	11	Noviembre	2023-11-21T00:00:00	2024-11-08T22:00:00	1	Precipitación	0
3500	7	Sololá	701	Sololá	2	El tablón	11	Noviembre	2023-11-21T00:00:00	2024-11-08T22:00:00	8	Radiación solar	0
3501	7	Sololá	701	Sololá	2	El tablón	11	Noviembre	2023-11-21T00:00:00	2024-11-08T23:00:00	2	Temperatura media	12.1
3502	7	Sololá	701	Sololá	2	El tablón	11	Noviembre	2023-11-21T00:00:00	2024-11-08T23:00:00	4	Temperatura máxima	12.2
3503	7	Sololá	701	Sololá	2	El tablón	11	Noviembre	2023-11-21T00:00:00	2024-11-08T23:00:00	3	Temperatura mínima	11.9
3504	7	Sololá	701	Sololá	2	El tablón	11	Noviembre	2023-11-21T00:00:00	2024-11-08T23:00:00	5	Humedad	79
3505	7	Sololá	701	Sololá	2	El tablón	11	Noviembre	2023-11-21T00:00:00	2024-11-08T23:00:00	6	Velocidad del viento	14.5
3506	7	Sololá	701	Sololá	2	El tablón	11	Noviembre	2023-11-21T00:00:00	2024-11-08T23:00:00	7	Dirección del viento	14.48
3507	7	Sololá	701	Sololá	2	El tablón	11	Noviembre	2023-11-21T00:00:00	2024-11-08T23:00:00	1	Precipitación	0
3508	7	Sololá	701	Sololá	2	El tablón	11	Noviembre	2023-11-21T00:00:00	2024-11-08T23:00:00	8	Radiación solar	0
3509	7	Sololá	701	Sololá	2	El tablón	11	Noviembre	2023-11-22T00:00:00	2024-11-08T00:00:00	2	Temperatura media	12.8
3510	7	Sololá	701	Sololá	2	El tablón	11	Noviembre	2023-11-22T00:00:00	2024-11-08T00:00:00	4	Temperatura máxima	12.8
3511	7	Sololá	701	Sololá	2	El tablón	11	Noviembre	2023-11-22T00:00:00	2024-11-08T00:00:00	3	Temperatura mínima	11.8
3512	7	Sololá	701	Sololá	2	El tablón	11	Noviembre	2023-11-22T00:00:00	2024-11-08T00:00:00	5	Humedad	70
3513	7	Sololá	701	Sololá	2	El tablón	11	Noviembre	2023-11-22T00:00:00	2024-11-08T00:00:00	6	Velocidad del viento	14.5
3514	7	Sololá	701	Sololá	2	El tablón	11	Noviembre	2023-11-22T00:00:00	2024-11-08T00:00:00	7	Dirección del viento	14.48
3515	7	Sololá	701	Sololá	2	El tablón	11	Noviembre	2023-11-22T00:00:00	2024-11-08T00:00:00	1	Precipitación	0
3516	7	Sololá	701	Sololá	2	El tablón	11	Noviembre	2023-11-22T00:00:00	2024-11-08T00:00:00	8	Radiación solar	0
3517	7	Sololá	701	Sololá	2	El tablón	11	Noviembre	2023-11-22T00:00:00	2024-11-08T01:00:00	2	Temperatura media	12.4
3518	7	Sololá	701	Sololá	2	El tablón	11	Noviembre	2023-11-22T00:00:00	2024-11-08T01:00:00	4	Temperatura máxima	12.9
3519	7	Sololá	701	Sololá	2	El tablón	11	Noviembre	2023-11-22T00:00:00	2024-11-08T01:00:00	3	Temperatura mínima	12.4
3520	7	Sololá	701	Sololá	2	El tablón	11	Noviembre	2023-11-22T00:00:00	2024-11-08T01:00:00	5	Humedad	71
3521	7	Sololá	701	Sololá	2	El tablón	11	Noviembre	2023-11-22T00:00:00	2024-11-08T01:00:00	6	Velocidad del viento	12.9
3522	7	Sololá	701	Sololá	2	El tablón	11	Noviembre	2023-11-22T00:00:00	2024-11-08T01:00:00	7	Dirección del viento	12.87
3523	7	Sololá	701	Sololá	2	El tablón	11	Noviembre	2023-11-22T00:00:00	2024-11-08T01:00:00	1	Precipitación	0
3524	7	Sololá	701	Sololá	2	El tablón	11	Noviembre	2023-11-22T00:00:00	2024-11-08T01:00:00	8	Radiación solar	0
3525	7	Sololá	701	Sololá	2	El tablón	11	Noviembre	2023-11-22T00:00:00	2024-11-08T02:00:00	2	Temperatura media	13.6
3526	7	Sololá	701	Sololá	2	El tablón	11	Noviembre	2023-11-22T00:00:00	2024-11-08T02:00:00	4	Temperatura máxima	13.6
3527	7	Sololá	701	Sololá	2	El tablón	11	Noviembre	2023-11-22T00:00:00	2024-11-08T02:00:00	3	Temperatura mínima	12.4
3528	7	Sololá	701	Sololá	2	El tablón	11	Noviembre	2023-11-22T00:00:00	2024-11-08T02:00:00	5	Humedad	62
3529	7	Sololá	701	Sololá	2	El tablón	11	Noviembre	2023-11-22T00:00:00	2024-11-08T02:00:00	6	Velocidad del viento	14.5
3530	7	Sololá	701	Sololá	2	El tablón	11	Noviembre	2023-11-22T00:00:00	2024-11-08T02:00:00	7	Dirección del viento	14.48
3531	7	Sololá	701	Sololá	2	El tablón	11	Noviembre	2023-11-22T00:00:00	2024-11-08T02:00:00	1	Precipitación	0
3532	7	Sololá	701	Sololá	2	El tablón	11	Noviembre	2023-11-22T00:00:00	2024-11-08T02:00:00	8	Radiación solar	0
3533	7	Sololá	701	Sololá	2	El tablón	11	Noviembre	2023-11-22T00:00:00	2024-11-08T03:00:00	2	Temperatura media	13.2
3534	7	Sololá	701	Sololá	2	El tablón	11	Noviembre	2023-11-22T00:00:00	2024-11-08T03:00:00	4	Temperatura máxima	13.6
3535	7	Sololá	701	Sololá	2	El tablón	11	Noviembre	2023-11-22T00:00:00	2024-11-08T03:00:00	3	Temperatura mínima	13.2
3536	7	Sololá	701	Sololá	2	El tablón	11	Noviembre	2023-11-22T00:00:00	2024-11-08T03:00:00	5	Humedad	69
3537	7	Sololá	701	Sololá	2	El tablón	11	Noviembre	2023-11-22T00:00:00	2024-11-08T03:00:00	6	Velocidad del viento	12.9
3538	7	Sololá	701	Sololá	2	El tablón	11	Noviembre	2023-11-22T00:00:00	2024-11-08T03:00:00	7	Dirección del viento	12.87
3539	7	Sololá	701	Sololá	2	El tablón	11	Noviembre	2023-11-22T00:00:00	2024-11-08T03:00:00	1	Precipitación	0
3540	7	Sololá	701	Sololá	2	El tablón	11	Noviembre	2023-11-22T00:00:00	2024-11-08T03:00:00	8	Radiación solar	0
3541	7	Sololá	701	Sololá	2	El tablón	11	Noviembre	2023-11-22T00:00:00	2024-11-08T04:00:00	2	Temperatura media	13.4
3542	7	Sololá	701	Sololá	2	El tablón	11	Noviembre	2023-11-22T00:00:00	2024-11-08T04:00:00	4	Temperatura máxima	13.4
3543	7	Sololá	701	Sololá	2	El tablón	11	Noviembre	2023-11-22T00:00:00	2024-11-08T04:00:00	3	Temperatura mínima	12.6
3544	7	Sololá	701	Sololá	2	El tablón	11	Noviembre	2023-11-22T00:00:00	2024-11-08T04:00:00	5	Humedad	72
3545	7	Sololá	701	Sololá	2	El tablón	11	Noviembre	2023-11-22T00:00:00	2024-11-08T04:00:00	6	Velocidad del viento	11.3
3546	7	Sololá	701	Sololá	2	El tablón	11	Noviembre	2023-11-22T00:00:00	2024-11-08T04:00:00	7	Dirección del viento	11.27
3547	7	Sololá	701	Sololá	2	El tablón	11	Noviembre	2023-11-22T00:00:00	2024-11-08T04:00:00	1	Precipitación	0
3548	7	Sololá	701	Sololá	2	El tablón	11	Noviembre	2023-11-22T00:00:00	2024-11-08T04:00:00	8	Radiación solar	0
3549	7	Sololá	701	Sololá	2	El tablón	11	Noviembre	2023-11-22T00:00:00	2024-11-08T05:00:00	2	Temperatura media	13.8
3550	7	Sololá	701	Sololá	2	El tablón	11	Noviembre	2023-11-22T00:00:00	2024-11-08T05:00:00	4	Temperatura máxima	13.8
3551	7	Sololá	701	Sololá	2	El tablón	11	Noviembre	2023-11-22T00:00:00	2024-11-08T05:00:00	3	Temperatura mínima	13.4
3552	7	Sololá	701	Sololá	2	El tablón	11	Noviembre	2023-11-22T00:00:00	2024-11-08T05:00:00	5	Humedad	75
3553	7	Sololá	701	Sololá	2	El tablón	11	Noviembre	2023-11-22T00:00:00	2024-11-08T05:00:00	6	Velocidad del viento	16.1
3554	7	Sololá	701	Sololá	2	El tablón	11	Noviembre	2023-11-22T00:00:00	2024-11-08T05:00:00	7	Dirección del viento	16.09
3555	7	Sololá	701	Sololá	2	El tablón	11	Noviembre	2023-11-22T00:00:00	2024-11-08T05:00:00	1	Precipitación	0
3556	7	Sololá	701	Sololá	2	El tablón	11	Noviembre	2023-11-22T00:00:00	2024-11-08T05:00:00	8	Radiación solar	0
3557	7	Sololá	701	Sololá	2	El tablón	11	Noviembre	2023-11-22T00:00:00	2024-11-08T06:00:00	2	Temperatura media	13.8
3558	7	Sololá	701	Sololá	2	El tablón	11	Noviembre	2023-11-22T00:00:00	2024-11-08T06:00:00	4	Temperatura máxima	13.8
3559	7	Sololá	701	Sololá	2	El tablón	11	Noviembre	2023-11-22T00:00:00	2024-11-08T06:00:00	3	Temperatura mínima	13.7
3560	7	Sololá	701	Sololá	2	El tablón	11	Noviembre	2023-11-22T00:00:00	2024-11-08T06:00:00	5	Humedad	76
3561	7	Sololá	701	Sololá	2	El tablón	11	Noviembre	2023-11-22T00:00:00	2024-11-08T06:00:00	6	Velocidad del viento	14.5
3562	7	Sololá	701	Sololá	2	El tablón	11	Noviembre	2023-11-22T00:00:00	2024-11-08T06:00:00	7	Dirección del viento	14.48
3563	7	Sololá	701	Sololá	2	El tablón	11	Noviembre	2023-11-22T00:00:00	2024-11-08T06:00:00	1	Precipitación	0
3564	7	Sololá	701	Sololá	2	El tablón	11	Noviembre	2023-11-22T00:00:00	2024-11-08T06:00:00	8	Radiación solar	0
3565	7	Sololá	701	Sololá	2	El tablón	11	Noviembre	2023-11-22T00:00:00	2024-11-08T07:00:00	2	Temperatura media	14.6
3566	7	Sololá	701	Sololá	2	El tablón	11	Noviembre	2023-11-22T00:00:00	2024-11-08T07:00:00	4	Temperatura máxima	14.6
3567	7	Sololá	701	Sololá	2	El tablón	11	Noviembre	2023-11-22T00:00:00	2024-11-08T07:00:00	3	Temperatura mínima	13.8
3568	7	Sololá	701	Sololá	2	El tablón	11	Noviembre	2023-11-22T00:00:00	2024-11-08T07:00:00	5	Humedad	76
3569	7	Sololá	701	Sololá	2	El tablón	11	Noviembre	2023-11-22T00:00:00	2024-11-08T07:00:00	6	Velocidad del viento	14.5
3570	7	Sololá	701	Sololá	2	El tablón	11	Noviembre	2023-11-22T00:00:00	2024-11-08T07:00:00	7	Dirección del viento	14.48
3571	7	Sololá	701	Sololá	2	El tablón	11	Noviembre	2023-11-22T00:00:00	2024-11-08T07:00:00	1	Precipitación	0
3572	7	Sololá	701	Sololá	2	El tablón	11	Noviembre	2023-11-22T00:00:00	2024-11-08T07:00:00	8	Radiación solar	26
3573	7	Sololá	701	Sololá	2	El tablón	11	Noviembre	2023-11-22T00:00:00	2024-11-08T08:00:00	2	Temperatura media	15.6
3574	7	Sololá	701	Sololá	2	El tablón	11	Noviembre	2023-11-22T00:00:00	2024-11-08T08:00:00	4	Temperatura máxima	15.6
3575	7	Sololá	701	Sololá	2	El tablón	11	Noviembre	2023-11-22T00:00:00	2024-11-08T08:00:00	3	Temperatura mínima	14.6
3576	7	Sololá	701	Sololá	2	El tablón	11	Noviembre	2023-11-22T00:00:00	2024-11-08T08:00:00	5	Humedad	75
3577	7	Sololá	701	Sololá	2	El tablón	11	Noviembre	2023-11-22T00:00:00	2024-11-08T08:00:00	6	Velocidad del viento	12.9
3578	7	Sololá	701	Sololá	2	El tablón	11	Noviembre	2023-11-22T00:00:00	2024-11-08T08:00:00	7	Dirección del viento	12.87
3579	7	Sololá	701	Sololá	2	El tablón	11	Noviembre	2023-11-22T00:00:00	2024-11-08T08:00:00	1	Precipitación	0
3580	7	Sololá	701	Sololá	2	El tablón	11	Noviembre	2023-11-22T00:00:00	2024-11-08T08:00:00	8	Radiación solar	206
3581	7	Sololá	701	Sololá	2	El tablón	11	Noviembre	2023-11-22T00:00:00	2024-11-08T09:00:00	2	Temperatura media	16.9
3582	7	Sololá	701	Sololá	2	El tablón	11	Noviembre	2023-11-22T00:00:00	2024-11-08T09:00:00	4	Temperatura máxima	16.9
3583	7	Sololá	701	Sololá	2	El tablón	11	Noviembre	2023-11-22T00:00:00	2024-11-08T09:00:00	3	Temperatura mínima	15.6
3584	7	Sololá	701	Sololá	2	El tablón	11	Noviembre	2023-11-22T00:00:00	2024-11-08T09:00:00	5	Humedad	71
3585	7	Sololá	701	Sololá	2	El tablón	11	Noviembre	2023-11-22T00:00:00	2024-11-08T09:00:00	6	Velocidad del viento	14.5
3586	7	Sololá	701	Sololá	2	El tablón	11	Noviembre	2023-11-22T00:00:00	2024-11-08T09:00:00	7	Dirección del viento	14.48
3587	7	Sololá	701	Sololá	2	El tablón	11	Noviembre	2023-11-22T00:00:00	2024-11-08T09:00:00	1	Precipitación	0
3588	7	Sololá	701	Sololá	2	El tablón	11	Noviembre	2023-11-22T00:00:00	2024-11-08T09:00:00	8	Radiación solar	424
3589	7	Sololá	701	Sololá	2	El tablón	11	Noviembre	2023-11-22T00:00:00	2024-11-08T10:00:00	2	Temperatura media	17.3
3590	7	Sololá	701	Sololá	2	El tablón	11	Noviembre	2023-11-22T00:00:00	2024-11-08T10:00:00	4	Temperatura máxima	17.6
3591	7	Sololá	701	Sololá	2	El tablón	11	Noviembre	2023-11-22T00:00:00	2024-11-08T10:00:00	3	Temperatura mínima	16.9
3592	7	Sololá	701	Sololá	2	El tablón	11	Noviembre	2023-11-22T00:00:00	2024-11-08T10:00:00	5	Humedad	71
3593	7	Sololá	701	Sololá	2	El tablón	11	Noviembre	2023-11-22T00:00:00	2024-11-08T10:00:00	6	Velocidad del viento	12.9
3594	7	Sololá	701	Sololá	2	El tablón	11	Noviembre	2023-11-22T00:00:00	2024-11-08T10:00:00	7	Dirección del viento	12.87
3595	7	Sololá	701	Sololá	2	El tablón	11	Noviembre	2023-11-22T00:00:00	2024-11-08T10:00:00	1	Precipitación	0
3596	7	Sololá	701	Sololá	2	El tablón	11	Noviembre	2023-11-22T00:00:00	2024-11-08T10:00:00	8	Radiación solar	606
3597	7	Sololá	701	Sololá	2	El tablón	11	Noviembre	2023-11-22T00:00:00	2024-11-08T11:00:00	2	Temperatura media	17.1
3598	7	Sololá	701	Sololá	2	El tablón	11	Noviembre	2023-11-22T00:00:00	2024-11-08T11:00:00	4	Temperatura máxima	17.6
3599	7	Sololá	701	Sololá	2	El tablón	11	Noviembre	2023-11-22T00:00:00	2024-11-08T11:00:00	3	Temperatura mínima	16.7
3600	7	Sololá	701	Sololá	2	El tablón	11	Noviembre	2023-11-22T00:00:00	2024-11-08T11:00:00	5	Humedad	73
3601	7	Sololá	701	Sololá	2	El tablón	11	Noviembre	2023-11-22T00:00:00	2024-11-08T11:00:00	6	Velocidad del viento	19.3
3602	7	Sololá	701	Sololá	2	El tablón	11	Noviembre	2023-11-22T00:00:00	2024-11-08T11:00:00	7	Dirección del viento	19.31
3603	7	Sololá	701	Sololá	2	El tablón	11	Noviembre	2023-11-22T00:00:00	2024-11-08T11:00:00	1	Precipitación	0
3604	7	Sololá	701	Sololá	2	El tablón	11	Noviembre	2023-11-22T00:00:00	2024-11-08T11:00:00	8	Radiación solar	730
3605	7	Sololá	701	Sololá	2	El tablón	11	Noviembre	2023-11-22T00:00:00	2024-11-08T12:00:00	2	Temperatura media	16.8
3606	7	Sololá	701	Sololá	2	El tablón	11	Noviembre	2023-11-22T00:00:00	2024-11-08T12:00:00	4	Temperatura máxima	17.3
3607	7	Sololá	701	Sololá	2	El tablón	11	Noviembre	2023-11-22T00:00:00	2024-11-08T12:00:00	3	Temperatura mínima	16.6
3608	7	Sololá	701	Sololá	2	El tablón	11	Noviembre	2023-11-22T00:00:00	2024-11-08T12:00:00	5	Humedad	73
3609	7	Sololá	701	Sololá	2	El tablón	11	Noviembre	2023-11-22T00:00:00	2024-11-08T12:00:00	6	Velocidad del viento	20.9
3610	7	Sololá	701	Sololá	2	El tablón	11	Noviembre	2023-11-22T00:00:00	2024-11-08T12:00:00	7	Dirección del viento	20.92
3611	7	Sololá	701	Sololá	2	El tablón	11	Noviembre	2023-11-22T00:00:00	2024-11-08T12:00:00	1	Precipitación	0
3612	7	Sololá	701	Sololá	2	El tablón	11	Noviembre	2023-11-22T00:00:00	2024-11-08T12:00:00	8	Radiación solar	698
3613	7	Sololá	701	Sololá	2	El tablón	11	Noviembre	2023-11-22T00:00:00	2024-11-08T13:00:00	2	Temperatura media	17.2
3614	7	Sololá	701	Sololá	2	El tablón	11	Noviembre	2023-11-22T00:00:00	2024-11-08T13:00:00	4	Temperatura máxima	17.7
3615	7	Sololá	701	Sololá	2	El tablón	11	Noviembre	2023-11-22T00:00:00	2024-11-08T13:00:00	3	Temperatura mínima	16.8
3616	7	Sololá	701	Sololá	2	El tablón	11	Noviembre	2023-11-22T00:00:00	2024-11-08T13:00:00	5	Humedad	71
3617	7	Sololá	701	Sololá	2	El tablón	11	Noviembre	2023-11-22T00:00:00	2024-11-08T13:00:00	6	Velocidad del viento	17.7
3618	7	Sololá	701	Sololá	2	El tablón	11	Noviembre	2023-11-22T00:00:00	2024-11-08T13:00:00	7	Dirección del viento	17.7
3619	7	Sololá	701	Sololá	2	El tablón	11	Noviembre	2023-11-22T00:00:00	2024-11-08T13:00:00	1	Precipitación	0
3620	7	Sololá	701	Sololá	2	El tablón	11	Noviembre	2023-11-22T00:00:00	2024-11-08T13:00:00	8	Radiación solar	795
3621	7	Sololá	701	Sololá	2	El tablón	11	Noviembre	2023-11-22T00:00:00	2024-11-08T14:00:00	2	Temperatura media	17.6
3622	7	Sololá	701	Sololá	2	El tablón	11	Noviembre	2023-11-22T00:00:00	2024-11-08T14:00:00	4	Temperatura máxima	17.8
3623	7	Sololá	701	Sololá	2	El tablón	11	Noviembre	2023-11-22T00:00:00	2024-11-08T14:00:00	3	Temperatura mínima	16.7
3624	7	Sololá	701	Sololá	2	El tablón	11	Noviembre	2023-11-22T00:00:00	2024-11-08T14:00:00	5	Humedad	70
3625	7	Sololá	701	Sololá	2	El tablón	11	Noviembre	2023-11-22T00:00:00	2024-11-08T14:00:00	6	Velocidad del viento	14.5
3626	7	Sololá	701	Sololá	2	El tablón	11	Noviembre	2023-11-22T00:00:00	2024-11-08T14:00:00	7	Dirección del viento	14.48
3627	7	Sololá	701	Sololá	2	El tablón	11	Noviembre	2023-11-22T00:00:00	2024-11-08T14:00:00	1	Precipitación	0
3628	7	Sololá	701	Sololá	2	El tablón	11	Noviembre	2023-11-22T00:00:00	2024-11-08T14:00:00	8	Radiación solar	651
3629	7	Sololá	701	Sololá	2	El tablón	11	Noviembre	2023-11-22T00:00:00	2024-11-08T15:00:00	2	Temperatura media	17.6
3630	7	Sololá	701	Sololá	2	El tablón	11	Noviembre	2023-11-22T00:00:00	2024-11-08T15:00:00	4	Temperatura máxima	18.2
3631	7	Sololá	701	Sololá	2	El tablón	11	Noviembre	2023-11-22T00:00:00	2024-11-08T15:00:00	3	Temperatura mínima	17.1
3632	7	Sololá	701	Sololá	2	El tablón	11	Noviembre	2023-11-22T00:00:00	2024-11-08T15:00:00	5	Humedad	72
3633	7	Sololá	701	Sololá	2	El tablón	11	Noviembre	2023-11-22T00:00:00	2024-11-08T15:00:00	6	Velocidad del viento	14.5
3634	7	Sololá	701	Sololá	2	El tablón	11	Noviembre	2023-11-22T00:00:00	2024-11-08T15:00:00	7	Dirección del viento	14.48
3635	7	Sololá	701	Sololá	2	El tablón	11	Noviembre	2023-11-22T00:00:00	2024-11-08T15:00:00	1	Precipitación	0
3636	7	Sololá	701	Sololá	2	El tablón	11	Noviembre	2023-11-22T00:00:00	2024-11-08T15:00:00	8	Radiación solar	597
3637	7	Sololá	701	Sololá	2	El tablón	11	Noviembre	2023-11-22T00:00:00	2024-11-08T16:00:00	2	Temperatura media	16.1
3638	7	Sololá	701	Sololá	2	El tablón	11	Noviembre	2023-11-22T00:00:00	2024-11-08T16:00:00	4	Temperatura máxima	17.8
3639	7	Sololá	701	Sololá	2	El tablón	11	Noviembre	2023-11-22T00:00:00	2024-11-08T16:00:00	3	Temperatura mínima	16.1
3640	7	Sololá	701	Sololá	2	El tablón	11	Noviembre	2023-11-22T00:00:00	2024-11-08T16:00:00	5	Humedad	77
3641	7	Sololá	701	Sololá	2	El tablón	11	Noviembre	2023-11-22T00:00:00	2024-11-08T16:00:00	6	Velocidad del viento	16.1
3642	7	Sololá	701	Sololá	2	El tablón	11	Noviembre	2023-11-22T00:00:00	2024-11-08T16:00:00	7	Dirección del viento	16.09
3643	7	Sololá	701	Sololá	2	El tablón	11	Noviembre	2023-11-22T00:00:00	2024-11-08T16:00:00	1	Precipitación	0
3644	7	Sololá	701	Sololá	2	El tablón	11	Noviembre	2023-11-22T00:00:00	2024-11-08T16:00:00	8	Radiación solar	408
3645	7	Sololá	701	Sololá	2	El tablón	11	Noviembre	2023-11-22T00:00:00	2024-11-08T17:00:00	2	Temperatura media	14.2
3646	7	Sololá	701	Sololá	2	El tablón	11	Noviembre	2023-11-22T00:00:00	2024-11-08T17:00:00	4	Temperatura máxima	16.1
3647	7	Sololá	701	Sololá	2	El tablón	11	Noviembre	2023-11-22T00:00:00	2024-11-08T17:00:00	3	Temperatura mínima	14.1
3648	7	Sololá	701	Sololá	2	El tablón	11	Noviembre	2023-11-22T00:00:00	2024-11-08T17:00:00	5	Humedad	85
3649	7	Sololá	701	Sololá	2	El tablón	11	Noviembre	2023-11-22T00:00:00	2024-11-08T17:00:00	6	Velocidad del viento	16.1
3650	7	Sololá	701	Sololá	2	El tablón	11	Noviembre	2023-11-22T00:00:00	2024-11-08T17:00:00	7	Dirección del viento	16.09
3651	7	Sololá	701	Sololá	2	El tablón	11	Noviembre	2023-11-22T00:00:00	2024-11-08T17:00:00	1	Precipitación	0
3652	7	Sololá	701	Sololá	2	El tablón	11	Noviembre	2023-11-22T00:00:00	2024-11-08T17:00:00	8	Radiación solar	103
3653	7	Sololá	701	Sololá	2	El tablón	11	Noviembre	2023-11-22T00:00:00	2024-11-08T18:00:00	2	Temperatura media	13
3654	7	Sololá	701	Sololá	2	El tablón	11	Noviembre	2023-11-22T00:00:00	2024-11-08T18:00:00	4	Temperatura máxima	14.2
3655	7	Sololá	701	Sololá	2	El tablón	11	Noviembre	2023-11-22T00:00:00	2024-11-08T18:00:00	3	Temperatura mínima	12.9
3656	7	Sololá	701	Sololá	2	El tablón	11	Noviembre	2023-11-22T00:00:00	2024-11-08T18:00:00	5	Humedad	87
3657	7	Sololá	701	Sololá	2	El tablón	11	Noviembre	2023-11-22T00:00:00	2024-11-08T18:00:00	6	Velocidad del viento	17.7
3658	7	Sololá	701	Sololá	2	El tablón	11	Noviembre	2023-11-22T00:00:00	2024-11-08T18:00:00	7	Dirección del viento	17.7
3659	7	Sololá	701	Sololá	2	El tablón	11	Noviembre	2023-11-22T00:00:00	2024-11-08T18:00:00	1	Precipitación	0
3660	7	Sololá	701	Sololá	2	El tablón	11	Noviembre	2023-11-22T00:00:00	2024-11-08T18:00:00	8	Radiación solar	13
3661	7	Sololá	701	Sololá	2	El tablón	11	Noviembre	2023-11-22T00:00:00	2024-11-08T19:00:00	2	Temperatura media	12.3
3662	7	Sololá	701	Sololá	2	El tablón	11	Noviembre	2023-11-22T00:00:00	2024-11-08T19:00:00	4	Temperatura máxima	13
3663	7	Sololá	701	Sololá	2	El tablón	11	Noviembre	2023-11-22T00:00:00	2024-11-08T19:00:00	3	Temperatura mínima	12.3
3664	7	Sololá	701	Sololá	2	El tablón	11	Noviembre	2023-11-22T00:00:00	2024-11-08T19:00:00	5	Humedad	88
3665	7	Sololá	701	Sololá	2	El tablón	11	Noviembre	2023-11-22T00:00:00	2024-11-08T19:00:00	6	Velocidad del viento	16.1
3666	7	Sololá	701	Sololá	2	El tablón	11	Noviembre	2023-11-22T00:00:00	2024-11-08T19:00:00	7	Dirección del viento	16.09
3667	7	Sololá	701	Sololá	2	El tablón	11	Noviembre	2023-11-22T00:00:00	2024-11-08T19:00:00	1	Precipitación	0
3668	7	Sololá	701	Sololá	2	El tablón	11	Noviembre	2023-11-22T00:00:00	2024-11-08T19:00:00	8	Radiación solar	0
3669	7	Sololá	701	Sololá	2	El tablón	11	Noviembre	2023-11-22T00:00:00	2024-11-08T20:00:00	2	Temperatura media	11.9
3670	7	Sololá	701	Sololá	2	El tablón	11	Noviembre	2023-11-22T00:00:00	2024-11-08T20:00:00	4	Temperatura máxima	12.3
3671	7	Sololá	701	Sololá	2	El tablón	11	Noviembre	2023-11-22T00:00:00	2024-11-08T20:00:00	3	Temperatura mínima	11.9
3672	7	Sololá	701	Sololá	2	El tablón	11	Noviembre	2023-11-22T00:00:00	2024-11-08T20:00:00	5	Humedad	88
3673	7	Sololá	701	Sololá	2	El tablón	11	Noviembre	2023-11-22T00:00:00	2024-11-08T20:00:00	6	Velocidad del viento	16.1
3674	7	Sololá	701	Sololá	2	El tablón	11	Noviembre	2023-11-22T00:00:00	2024-11-08T20:00:00	7	Dirección del viento	16.09
3675	7	Sololá	701	Sololá	2	El tablón	11	Noviembre	2023-11-22T00:00:00	2024-11-08T20:00:00	1	Precipitación	0
3676	7	Sololá	701	Sololá	2	El tablón	11	Noviembre	2023-11-22T00:00:00	2024-11-08T20:00:00	8	Radiación solar	0
3677	7	Sololá	701	Sololá	2	El tablón	11	Noviembre	2023-11-22T00:00:00	2024-11-08T21:00:00	2	Temperatura media	11.9
3678	7	Sololá	701	Sololá	2	El tablón	11	Noviembre	2023-11-22T00:00:00	2024-11-08T21:00:00	4	Temperatura máxima	12
3679	7	Sololá	701	Sololá	2	El tablón	11	Noviembre	2023-11-22T00:00:00	2024-11-08T21:00:00	3	Temperatura mínima	11.9
3680	7	Sololá	701	Sololá	2	El tablón	11	Noviembre	2023-11-22T00:00:00	2024-11-08T21:00:00	5	Humedad	88
3681	7	Sololá	701	Sololá	2	El tablón	11	Noviembre	2023-11-22T00:00:00	2024-11-08T21:00:00	6	Velocidad del viento	14.5
3682	7	Sololá	701	Sololá	2	El tablón	11	Noviembre	2023-11-22T00:00:00	2024-11-08T21:00:00	7	Dirección del viento	14.48
3683	7	Sololá	701	Sololá	2	El tablón	11	Noviembre	2023-11-22T00:00:00	2024-11-08T21:00:00	1	Precipitación	0
3684	7	Sololá	701	Sololá	2	El tablón	11	Noviembre	2023-11-22T00:00:00	2024-11-08T21:00:00	8	Radiación solar	0
3685	7	Sololá	701	Sololá	2	El tablón	11	Noviembre	2023-11-22T00:00:00	2024-11-08T22:00:00	2	Temperatura media	12.2
3686	7	Sololá	701	Sololá	2	El tablón	11	Noviembre	2023-11-22T00:00:00	2024-11-08T22:00:00	4	Temperatura máxima	12.2
3687	7	Sololá	701	Sololá	2	El tablón	11	Noviembre	2023-11-22T00:00:00	2024-11-08T22:00:00	3	Temperatura mínima	11.8
3688	7	Sololá	701	Sololá	2	El tablón	11	Noviembre	2023-11-22T00:00:00	2024-11-08T22:00:00	5	Humedad	89
3689	7	Sololá	701	Sololá	2	El tablón	11	Noviembre	2023-11-22T00:00:00	2024-11-08T22:00:00	6	Velocidad del viento	9.7
3690	7	Sololá	701	Sololá	2	El tablón	11	Noviembre	2023-11-22T00:00:00	2024-11-08T22:00:00	7	Dirección del viento	9.66
3691	7	Sololá	701	Sololá	2	El tablón	11	Noviembre	2023-11-22T00:00:00	2024-11-08T22:00:00	1	Precipitación	0
3692	7	Sololá	701	Sololá	2	El tablón	11	Noviembre	2023-11-22T00:00:00	2024-11-08T22:00:00	8	Radiación solar	0
3693	7	Sololá	701	Sololá	2	El tablón	11	Noviembre	2023-11-22T00:00:00	2024-11-08T23:00:00	2	Temperatura media	12.5
3694	7	Sololá	701	Sololá	2	El tablón	11	Noviembre	2023-11-22T00:00:00	2024-11-08T23:00:00	4	Temperatura máxima	12.5
3695	7	Sololá	701	Sololá	2	El tablón	11	Noviembre	2023-11-22T00:00:00	2024-11-08T23:00:00	3	Temperatura mínima	12.2
3696	7	Sololá	701	Sololá	2	El tablón	11	Noviembre	2023-11-22T00:00:00	2024-11-08T23:00:00	5	Humedad	88
3697	7	Sololá	701	Sololá	2	El tablón	11	Noviembre	2023-11-22T00:00:00	2024-11-08T23:00:00	6	Velocidad del viento	8
3698	7	Sololá	701	Sololá	2	El tablón	11	Noviembre	2023-11-22T00:00:00	2024-11-08T23:00:00	7	Dirección del viento	8.05
3699	7	Sololá	701	Sololá	2	El tablón	11	Noviembre	2023-11-22T00:00:00	2024-11-08T23:00:00	1	Precipitación	0
3700	7	Sololá	701	Sololá	2	El tablón	11	Noviembre	2023-11-22T00:00:00	2024-11-08T23:00:00	8	Radiación solar	0
3701	7	Sololá	701	Sololá	2	El tablón	11	Noviembre	2023-11-23T00:00:00	2024-11-08T00:00:00	2	Temperatura media	13.1
3702	7	Sololá	701	Sololá	2	El tablón	11	Noviembre	2023-11-23T00:00:00	2024-11-08T00:00:00	4	Temperatura máxima	13.1
3703	7	Sololá	701	Sololá	2	El tablón	11	Noviembre	2023-11-23T00:00:00	2024-11-08T00:00:00	3	Temperatura mínima	12.4
3704	7	Sololá	701	Sololá	2	El tablón	11	Noviembre	2023-11-23T00:00:00	2024-11-08T00:00:00	5	Humedad	86
3705	7	Sololá	701	Sololá	2	El tablón	11	Noviembre	2023-11-23T00:00:00	2024-11-08T00:00:00	6	Velocidad del viento	8
3706	7	Sololá	701	Sololá	2	El tablón	11	Noviembre	2023-11-23T00:00:00	2024-11-08T00:00:00	7	Dirección del viento	8.05
3707	7	Sololá	701	Sololá	2	El tablón	11	Noviembre	2023-11-23T00:00:00	2024-11-08T00:00:00	1	Precipitación	0
3708	7	Sololá	701	Sololá	2	El tablón	11	Noviembre	2023-11-23T00:00:00	2024-11-08T00:00:00	8	Radiación solar	0
3709	7	Sololá	701	Sololá	2	El tablón	11	Noviembre	2023-11-23T00:00:00	2024-11-08T01:00:00	2	Temperatura media	13.4
3710	7	Sololá	701	Sololá	2	El tablón	11	Noviembre	2023-11-23T00:00:00	2024-11-08T01:00:00	4	Temperatura máxima	13.4
3711	7	Sololá	701	Sololá	2	El tablón	11	Noviembre	2023-11-23T00:00:00	2024-11-08T01:00:00	3	Temperatura mínima	13.1
3712	7	Sololá	701	Sololá	2	El tablón	11	Noviembre	2023-11-23T00:00:00	2024-11-08T01:00:00	5	Humedad	84
3713	7	Sololá	701	Sololá	2	El tablón	11	Noviembre	2023-11-23T00:00:00	2024-11-08T01:00:00	6	Velocidad del viento	4.8
3714	7	Sololá	701	Sololá	2	El tablón	11	Noviembre	2023-11-23T00:00:00	2024-11-08T01:00:00	7	Dirección del viento	4.83
3715	7	Sololá	701	Sololá	2	El tablón	11	Noviembre	2023-11-23T00:00:00	2024-11-08T01:00:00	1	Precipitación	0
3716	7	Sololá	701	Sololá	2	El tablón	11	Noviembre	2023-11-23T00:00:00	2024-11-08T01:00:00	8	Radiación solar	0
3717	7	Sololá	701	Sololá	2	El tablón	11	Noviembre	2023-11-23T00:00:00	2024-11-08T02:00:00	2	Temperatura media	13.2
3718	7	Sololá	701	Sololá	2	El tablón	11	Noviembre	2023-11-23T00:00:00	2024-11-08T02:00:00	4	Temperatura máxima	13.4
3719	7	Sololá	701	Sololá	2	El tablón	11	Noviembre	2023-11-23T00:00:00	2024-11-08T02:00:00	3	Temperatura mínima	12.8
3720	7	Sololá	701	Sololá	2	El tablón	11	Noviembre	2023-11-23T00:00:00	2024-11-08T02:00:00	5	Humedad	84
3721	7	Sololá	701	Sololá	2	El tablón	11	Noviembre	2023-11-23T00:00:00	2024-11-08T02:00:00	6	Velocidad del viento	3.2
3722	7	Sololá	701	Sololá	2	El tablón	11	Noviembre	2023-11-23T00:00:00	2024-11-08T02:00:00	7	Dirección del viento	3.22
3723	7	Sololá	701	Sololá	2	El tablón	11	Noviembre	2023-11-23T00:00:00	2024-11-08T02:00:00	1	Precipitación	0
3724	7	Sololá	701	Sololá	2	El tablón	11	Noviembre	2023-11-23T00:00:00	2024-11-08T02:00:00	8	Radiación solar	0
3725	7	Sololá	701	Sololá	2	El tablón	11	Noviembre	2023-11-23T00:00:00	2024-11-08T03:00:00	2	Temperatura media	12.7
3726	7	Sololá	701	Sololá	2	El tablón	11	Noviembre	2023-11-23T00:00:00	2024-11-08T03:00:00	4	Temperatura máxima	13.2
3727	7	Sololá	701	Sololá	2	El tablón	11	Noviembre	2023-11-23T00:00:00	2024-11-08T03:00:00	3	Temperatura mínima	12.3
3728	7	Sololá	701	Sololá	2	El tablón	11	Noviembre	2023-11-23T00:00:00	2024-11-08T03:00:00	5	Humedad	84
3729	7	Sololá	701	Sololá	2	El tablón	11	Noviembre	2023-11-23T00:00:00	2024-11-08T03:00:00	6	Velocidad del viento	6.4
3730	7	Sololá	701	Sololá	2	El tablón	11	Noviembre	2023-11-23T00:00:00	2024-11-08T03:00:00	7	Dirección del viento	6.44
3731	7	Sololá	701	Sololá	2	El tablón	11	Noviembre	2023-11-23T00:00:00	2024-11-08T03:00:00	1	Precipitación	0
3732	7	Sololá	701	Sololá	2	El tablón	11	Noviembre	2023-11-23T00:00:00	2024-11-08T03:00:00	8	Radiación solar	0
3733	7	Sololá	701	Sololá	2	El tablón	11	Noviembre	2023-11-23T00:00:00	2024-11-08T04:00:00	2	Temperatura media	12.9
3734	7	Sololá	701	Sololá	2	El tablón	11	Noviembre	2023-11-23T00:00:00	2024-11-08T04:00:00	4	Temperatura máxima	13.1
3735	7	Sololá	701	Sololá	2	El tablón	11	Noviembre	2023-11-23T00:00:00	2024-11-08T04:00:00	3	Temperatura mínima	12.6
3736	7	Sololá	701	Sololá	2	El tablón	11	Noviembre	2023-11-23T00:00:00	2024-11-08T04:00:00	5	Humedad	83
3737	7	Sololá	701	Sololá	2	El tablón	11	Noviembre	2023-11-23T00:00:00	2024-11-08T04:00:00	6	Velocidad del viento	8
3738	7	Sololá	701	Sololá	2	El tablón	11	Noviembre	2023-11-23T00:00:00	2024-11-08T04:00:00	7	Dirección del viento	8.05
3739	7	Sololá	701	Sololá	2	El tablón	11	Noviembre	2023-11-23T00:00:00	2024-11-08T04:00:00	1	Precipitación	0
3740	7	Sololá	701	Sololá	2	El tablón	11	Noviembre	2023-11-23T00:00:00	2024-11-08T04:00:00	8	Radiación solar	0
3741	7	Sololá	701	Sololá	2	El tablón	11	Noviembre	2023-11-23T00:00:00	2024-11-08T05:00:00	2	Temperatura media	12.6
3742	7	Sololá	701	Sololá	2	El tablón	11	Noviembre	2023-11-23T00:00:00	2024-11-08T05:00:00	4	Temperatura máxima	13
3743	7	Sololá	701	Sololá	2	El tablón	11	Noviembre	2023-11-23T00:00:00	2024-11-08T05:00:00	3	Temperatura mínima	12.6
3744	7	Sololá	701	Sololá	2	El tablón	11	Noviembre	2023-11-23T00:00:00	2024-11-08T05:00:00	5	Humedad	85
3745	7	Sololá	701	Sololá	2	El tablón	11	Noviembre	2023-11-23T00:00:00	2024-11-08T05:00:00	6	Velocidad del viento	9.7
3746	7	Sololá	701	Sololá	2	El tablón	11	Noviembre	2023-11-23T00:00:00	2024-11-08T05:00:00	7	Dirección del viento	9.66
3747	7	Sololá	701	Sololá	2	El tablón	11	Noviembre	2023-11-23T00:00:00	2024-11-08T05:00:00	1	Precipitación	0
3748	7	Sololá	701	Sololá	2	El tablón	11	Noviembre	2023-11-23T00:00:00	2024-11-08T05:00:00	8	Radiación solar	0
3749	7	Sololá	701	Sololá	2	El tablón	11	Noviembre	2023-11-23T00:00:00	2024-11-08T06:00:00	2	Temperatura media	12.6
3750	7	Sololá	701	Sololá	2	El tablón	11	Noviembre	2023-11-23T00:00:00	2024-11-08T06:00:00	4	Temperatura máxima	12.7
3751	7	Sololá	701	Sololá	2	El tablón	11	Noviembre	2023-11-23T00:00:00	2024-11-08T06:00:00	3	Temperatura mínima	12.6
3752	7	Sololá	701	Sololá	2	El tablón	11	Noviembre	2023-11-23T00:00:00	2024-11-08T06:00:00	5	Humedad	86
3753	7	Sololá	701	Sololá	2	El tablón	11	Noviembre	2023-11-23T00:00:00	2024-11-08T06:00:00	6	Velocidad del viento	6.4
3754	7	Sololá	701	Sololá	2	El tablón	11	Noviembre	2023-11-23T00:00:00	2024-11-08T06:00:00	7	Dirección del viento	6.44
3755	7	Sololá	701	Sololá	2	El tablón	11	Noviembre	2023-11-23T00:00:00	2024-11-08T06:00:00	1	Precipitación	0
3756	7	Sololá	701	Sololá	2	El tablón	11	Noviembre	2023-11-23T00:00:00	2024-11-08T06:00:00	8	Radiación solar	0
3757	7	Sololá	701	Sololá	2	El tablón	11	Noviembre	2023-11-23T00:00:00	2024-11-08T07:00:00	2	Temperatura media	13.2
3758	7	Sololá	701	Sololá	2	El tablón	11	Noviembre	2023-11-23T00:00:00	2024-11-08T07:00:00	4	Temperatura máxima	13.2
3759	7	Sololá	701	Sololá	2	El tablón	11	Noviembre	2023-11-23T00:00:00	2024-11-08T07:00:00	3	Temperatura mínima	12.5
3760	7	Sololá	701	Sololá	2	El tablón	11	Noviembre	2023-11-23T00:00:00	2024-11-08T07:00:00	5	Humedad	86
3761	7	Sololá	701	Sololá	2	El tablón	11	Noviembre	2023-11-23T00:00:00	2024-11-08T07:00:00	6	Velocidad del viento	8
3762	7	Sololá	701	Sololá	2	El tablón	11	Noviembre	2023-11-23T00:00:00	2024-11-08T07:00:00	7	Dirección del viento	8.05
3763	7	Sololá	701	Sololá	2	El tablón	11	Noviembre	2023-11-23T00:00:00	2024-11-08T07:00:00	1	Precipitación	0
3764	7	Sololá	701	Sololá	2	El tablón	11	Noviembre	2023-11-23T00:00:00	2024-11-08T07:00:00	8	Radiación solar	27
3765	7	Sololá	701	Sololá	2	El tablón	11	Noviembre	2023-11-23T00:00:00	2024-11-08T08:00:00	2	Temperatura media	15.8
3766	7	Sololá	701	Sololá	2	El tablón	11	Noviembre	2023-11-23T00:00:00	2024-11-08T08:00:00	4	Temperatura máxima	15.8
3767	7	Sololá	701	Sololá	2	El tablón	11	Noviembre	2023-11-23T00:00:00	2024-11-08T08:00:00	3	Temperatura mínima	13.2
3768	7	Sololá	701	Sololá	2	El tablón	11	Noviembre	2023-11-23T00:00:00	2024-11-08T08:00:00	5	Humedad	80
3769	7	Sololá	701	Sololá	2	El tablón	11	Noviembre	2023-11-23T00:00:00	2024-11-08T08:00:00	6	Velocidad del viento	4.8
3770	7	Sololá	701	Sololá	2	El tablón	11	Noviembre	2023-11-23T00:00:00	2024-11-08T08:00:00	7	Dirección del viento	4.83
3771	7	Sololá	701	Sololá	2	El tablón	11	Noviembre	2023-11-23T00:00:00	2024-11-08T08:00:00	1	Precipitación	0
3772	7	Sololá	701	Sololá	2	El tablón	11	Noviembre	2023-11-23T00:00:00	2024-11-08T08:00:00	8	Radiación solar	201
3773	7	Sololá	701	Sololá	2	El tablón	11	Noviembre	2023-11-23T00:00:00	2024-11-08T09:00:00	2	Temperatura media	16.3
3774	7	Sololá	701	Sololá	2	El tablón	11	Noviembre	2023-11-23T00:00:00	2024-11-08T09:00:00	4	Temperatura máxima	16.3
3775	7	Sololá	701	Sololá	2	El tablón	11	Noviembre	2023-11-23T00:00:00	2024-11-08T09:00:00	3	Temperatura mínima	15.8
3776	7	Sololá	701	Sololá	2	El tablón	11	Noviembre	2023-11-23T00:00:00	2024-11-08T09:00:00	5	Humedad	79
3777	7	Sololá	701	Sololá	2	El tablón	11	Noviembre	2023-11-23T00:00:00	2024-11-08T09:00:00	6	Velocidad del viento	6.4
3778	7	Sololá	701	Sololá	2	El tablón	11	Noviembre	2023-11-23T00:00:00	2024-11-08T09:00:00	7	Dirección del viento	6.44
3779	7	Sololá	701	Sololá	2	El tablón	11	Noviembre	2023-11-23T00:00:00	2024-11-08T09:00:00	1	Precipitación	0
3780	7	Sololá	701	Sololá	2	El tablón	11	Noviembre	2023-11-23T00:00:00	2024-11-08T09:00:00	8	Radiación solar	418
3781	7	Sololá	701	Sololá	2	El tablón	11	Noviembre	2023-11-23T00:00:00	2024-11-08T10:00:00	2	Temperatura media	16.9
3782	7	Sololá	701	Sololá	2	El tablón	11	Noviembre	2023-11-23T00:00:00	2024-11-08T10:00:00	4	Temperatura máxima	16.9
3783	7	Sololá	701	Sololá	2	El tablón	11	Noviembre	2023-11-23T00:00:00	2024-11-08T10:00:00	3	Temperatura mínima	16.3
3784	7	Sololá	701	Sololá	2	El tablón	11	Noviembre	2023-11-23T00:00:00	2024-11-08T10:00:00	5	Humedad	75
3785	7	Sololá	701	Sololá	2	El tablón	11	Noviembre	2023-11-23T00:00:00	2024-11-08T10:00:00	6	Velocidad del viento	8
3786	7	Sololá	701	Sololá	2	El tablón	11	Noviembre	2023-11-23T00:00:00	2024-11-08T10:00:00	7	Dirección del viento	8.05
3787	7	Sololá	701	Sololá	2	El tablón	11	Noviembre	2023-11-23T00:00:00	2024-11-08T10:00:00	1	Precipitación	0
3788	7	Sololá	701	Sololá	2	El tablón	11	Noviembre	2023-11-23T00:00:00	2024-11-08T10:00:00	8	Radiación solar	600
3789	7	Sololá	701	Sololá	2	El tablón	11	Noviembre	2023-11-23T00:00:00	2024-11-08T11:00:00	2	Temperatura media	17
3790	7	Sololá	701	Sololá	2	El tablón	11	Noviembre	2023-11-23T00:00:00	2024-11-08T11:00:00	4	Temperatura máxima	18.1
3791	7	Sololá	701	Sololá	2	El tablón	11	Noviembre	2023-11-23T00:00:00	2024-11-08T11:00:00	3	Temperatura mínima	16.8
3792	7	Sololá	701	Sololá	2	El tablón	11	Noviembre	2023-11-23T00:00:00	2024-11-08T11:00:00	5	Humedad	75
3793	7	Sololá	701	Sololá	2	El tablón	11	Noviembre	2023-11-23T00:00:00	2024-11-08T11:00:00	6	Velocidad del viento	6.4
3794	7	Sololá	701	Sololá	2	El tablón	11	Noviembre	2023-11-23T00:00:00	2024-11-08T11:00:00	7	Dirección del viento	6.44
3795	7	Sololá	701	Sololá	2	El tablón	11	Noviembre	2023-11-23T00:00:00	2024-11-08T11:00:00	1	Precipitación	0
3796	7	Sololá	701	Sololá	2	El tablón	11	Noviembre	2023-11-23T00:00:00	2024-11-08T11:00:00	8	Radiación solar	628
3797	7	Sololá	701	Sololá	2	El tablón	11	Noviembre	2023-11-23T00:00:00	2024-11-08T12:00:00	2	Temperatura media	17
3798	7	Sololá	701	Sololá	2	El tablón	11	Noviembre	2023-11-23T00:00:00	2024-11-08T12:00:00	4	Temperatura máxima	17.3
3799	7	Sololá	701	Sololá	2	El tablón	11	Noviembre	2023-11-23T00:00:00	2024-11-08T12:00:00	3	Temperatura mínima	16.9
3800	7	Sololá	701	Sololá	2	El tablón	11	Noviembre	2023-11-23T00:00:00	2024-11-08T12:00:00	5	Humedad	79
3801	7	Sololá	701	Sololá	2	El tablón	11	Noviembre	2023-11-23T00:00:00	2024-11-08T12:00:00	6	Velocidad del viento	4.8
3802	7	Sololá	701	Sololá	2	El tablón	11	Noviembre	2023-11-23T00:00:00	2024-11-08T12:00:00	7	Dirección del viento	4.83
3803	7	Sololá	701	Sololá	2	El tablón	11	Noviembre	2023-11-23T00:00:00	2024-11-08T12:00:00	1	Precipitación	0
3804	7	Sololá	701	Sololá	2	El tablón	11	Noviembre	2023-11-23T00:00:00	2024-11-08T12:00:00	8	Radiación solar	221
3805	7	Sololá	701	Sololá	2	El tablón	11	Noviembre	2023-11-23T00:00:00	2024-11-08T13:00:00	2	Temperatura media	16.9
3806	7	Sololá	701	Sololá	2	El tablón	11	Noviembre	2023-11-23T00:00:00	2024-11-08T13:00:00	4	Temperatura máxima	17.3
3807	7	Sololá	701	Sololá	2	El tablón	11	Noviembre	2023-11-23T00:00:00	2024-11-08T13:00:00	3	Temperatura mínima	16.8
3808	7	Sololá	701	Sololá	2	El tablón	11	Noviembre	2023-11-23T00:00:00	2024-11-08T13:00:00	5	Humedad	78
3809	7	Sololá	701	Sololá	2	El tablón	11	Noviembre	2023-11-23T00:00:00	2024-11-08T13:00:00	6	Velocidad del viento	4.8
3810	7	Sololá	701	Sololá	2	El tablón	11	Noviembre	2023-11-23T00:00:00	2024-11-08T13:00:00	7	Dirección del viento	4.83
3811	7	Sololá	701	Sololá	2	El tablón	11	Noviembre	2023-11-23T00:00:00	2024-11-08T13:00:00	1	Precipitación	0
3812	7	Sololá	701	Sololá	2	El tablón	11	Noviembre	2023-11-23T00:00:00	2024-11-08T13:00:00	8	Radiación solar	243
3813	7	Sololá	701	Sololá	2	El tablón	11	Noviembre	2023-11-23T00:00:00	2024-11-08T14:00:00	2	Temperatura media	16.6
3814	7	Sololá	701	Sololá	2	El tablón	11	Noviembre	2023-11-23T00:00:00	2024-11-08T14:00:00	4	Temperatura máxima	17.4
3815	7	Sololá	701	Sololá	2	El tablón	11	Noviembre	2023-11-23T00:00:00	2024-11-08T14:00:00	3	Temperatura mínima	16.5
3816	7	Sololá	701	Sololá	2	El tablón	11	Noviembre	2023-11-23T00:00:00	2024-11-08T14:00:00	5	Humedad	84
3817	7	Sololá	701	Sololá	2	El tablón	11	Noviembre	2023-11-23T00:00:00	2024-11-08T14:00:00	6	Velocidad del viento	4.8
3818	7	Sololá	701	Sololá	2	El tablón	11	Noviembre	2023-11-23T00:00:00	2024-11-08T14:00:00	7	Dirección del viento	4.83
3819	7	Sololá	701	Sololá	2	El tablón	11	Noviembre	2023-11-23T00:00:00	2024-11-08T14:00:00	1	Precipitación	0
3820	7	Sololá	701	Sololá	2	El tablón	11	Noviembre	2023-11-23T00:00:00	2024-11-08T14:00:00	8	Radiación solar	174
3821	7	Sololá	701	Sololá	2	El tablón	11	Noviembre	2023-11-23T00:00:00	2024-11-08T15:00:00	2	Temperatura media	16.6
3822	7	Sololá	701	Sololá	2	El tablón	11	Noviembre	2023-11-23T00:00:00	2024-11-08T15:00:00	4	Temperatura máxima	16.6
3823	7	Sololá	701	Sololá	2	El tablón	11	Noviembre	2023-11-23T00:00:00	2024-11-08T15:00:00	3	Temperatura mínima	16.1
3824	7	Sololá	701	Sololá	2	El tablón	11	Noviembre	2023-11-23T00:00:00	2024-11-08T15:00:00	5	Humedad	76
3825	7	Sololá	701	Sololá	2	El tablón	11	Noviembre	2023-11-23T00:00:00	2024-11-08T15:00:00	6	Velocidad del viento	4.8
3826	7	Sololá	701	Sololá	2	El tablón	11	Noviembre	2023-11-23T00:00:00	2024-11-08T15:00:00	7	Dirección del viento	4.83
3827	7	Sololá	701	Sololá	2	El tablón	11	Noviembre	2023-11-23T00:00:00	2024-11-08T15:00:00	1	Precipitación	0
3828	7	Sololá	701	Sololá	2	El tablón	11	Noviembre	2023-11-23T00:00:00	2024-11-08T15:00:00	8	Radiación solar	134
3829	7	Sololá	701	Sololá	2	El tablón	11	Noviembre	2023-11-23T00:00:00	2024-11-08T16:00:00	2	Temperatura media	16.1
3830	7	Sololá	701	Sololá	2	El tablón	11	Noviembre	2023-11-23T00:00:00	2024-11-08T16:00:00	4	Temperatura máxima	17.2
3831	7	Sololá	701	Sololá	2	El tablón	11	Noviembre	2023-11-23T00:00:00	2024-11-08T16:00:00	3	Temperatura mínima	16.1
3832	7	Sololá	701	Sololá	2	El tablón	11	Noviembre	2023-11-23T00:00:00	2024-11-08T16:00:00	5	Humedad	86
3833	7	Sololá	701	Sololá	2	El tablón	11	Noviembre	2023-11-23T00:00:00	2024-11-08T16:00:00	6	Velocidad del viento	6.4
3834	7	Sololá	701	Sololá	2	El tablón	11	Noviembre	2023-11-23T00:00:00	2024-11-08T16:00:00	7	Dirección del viento	6.44
3835	7	Sololá	701	Sololá	2	El tablón	11	Noviembre	2023-11-23T00:00:00	2024-11-08T16:00:00	1	Precipitación	0
3836	7	Sololá	701	Sololá	2	El tablón	11	Noviembre	2023-11-23T00:00:00	2024-11-08T16:00:00	8	Radiación solar	170
3837	7	Sololá	701	Sololá	2	El tablón	11	Noviembre	2023-11-23T00:00:00	2024-11-08T17:00:00	2	Temperatura media	15.6
3838	7	Sololá	701	Sololá	2	El tablón	11	Noviembre	2023-11-23T00:00:00	2024-11-08T17:00:00	4	Temperatura máxima	16.1
3839	7	Sololá	701	Sololá	2	El tablón	11	Noviembre	2023-11-23T00:00:00	2024-11-08T17:00:00	3	Temperatura mínima	15.6
3840	7	Sololá	701	Sololá	2	El tablón	11	Noviembre	2023-11-23T00:00:00	2024-11-08T17:00:00	5	Humedad	86
3841	7	Sololá	701	Sololá	2	El tablón	11	Noviembre	2023-11-23T00:00:00	2024-11-08T17:00:00	6	Velocidad del viento	1.6
3842	7	Sololá	701	Sololá	2	El tablón	11	Noviembre	2023-11-23T00:00:00	2024-11-08T17:00:00	7	Dirección del viento	1.61
3843	7	Sololá	701	Sololá	2	El tablón	11	Noviembre	2023-11-23T00:00:00	2024-11-08T17:00:00	1	Precipitación	0
3844	7	Sololá	701	Sololá	2	El tablón	11	Noviembre	2023-11-23T00:00:00	2024-11-08T17:00:00	8	Radiación solar	47
3845	7	Sololá	701	Sololá	2	El tablón	11	Noviembre	2023-11-23T00:00:00	2024-11-08T18:00:00	2	Temperatura media	15
3846	7	Sololá	701	Sololá	2	El tablón	11	Noviembre	2023-11-23T00:00:00	2024-11-08T18:00:00	4	Temperatura máxima	15.7
3847	7	Sololá	701	Sololá	2	El tablón	11	Noviembre	2023-11-23T00:00:00	2024-11-08T18:00:00	3	Temperatura mínima	14.9
3848	7	Sololá	701	Sololá	2	El tablón	11	Noviembre	2023-11-23T00:00:00	2024-11-08T18:00:00	5	Humedad	86
3849	7	Sololá	701	Sololá	2	El tablón	11	Noviembre	2023-11-23T00:00:00	2024-11-08T18:00:00	6	Velocidad del viento	1.6
3850	7	Sololá	701	Sololá	2	El tablón	11	Noviembre	2023-11-23T00:00:00	2024-11-08T18:00:00	7	Dirección del viento	1.61
3851	7	Sololá	701	Sololá	2	El tablón	11	Noviembre	2023-11-23T00:00:00	2024-11-08T18:00:00	1	Precipitación	0
3852	7	Sololá	701	Sololá	2	El tablón	11	Noviembre	2023-11-23T00:00:00	2024-11-08T18:00:00	8	Radiación solar	9
3853	7	Sololá	701	Sololá	2	El tablón	11	Noviembre	2023-11-23T00:00:00	2024-11-08T19:00:00	2	Temperatura media	13.9
3854	7	Sololá	701	Sololá	2	El tablón	11	Noviembre	2023-11-23T00:00:00	2024-11-08T19:00:00	4	Temperatura máxima	15
3855	7	Sololá	701	Sololá	2	El tablón	11	Noviembre	2023-11-23T00:00:00	2024-11-08T19:00:00	3	Temperatura mínima	13.9
3856	7	Sololá	701	Sololá	2	El tablón	11	Noviembre	2023-11-23T00:00:00	2024-11-08T19:00:00	5	Humedad	86
3857	7	Sololá	701	Sololá	2	El tablón	11	Noviembre	2023-11-23T00:00:00	2024-11-08T19:00:00	6	Velocidad del viento	1.6
3858	7	Sololá	701	Sololá	2	El tablón	11	Noviembre	2023-11-23T00:00:00	2024-11-08T19:00:00	7	Dirección del viento	1.61
3859	7	Sololá	701	Sololá	2	El tablón	11	Noviembre	2023-11-23T00:00:00	2024-11-08T19:00:00	1	Precipitación	0
3860	7	Sololá	701	Sololá	2	El tablón	11	Noviembre	2023-11-23T00:00:00	2024-11-08T19:00:00	8	Radiación solar	0
3861	7	Sololá	701	Sololá	2	El tablón	11	Noviembre	2023-11-23T00:00:00	2024-11-08T20:00:00	2	Temperatura media	12.8
3862	7	Sololá	701	Sololá	2	El tablón	11	Noviembre	2023-11-23T00:00:00	2024-11-08T20:00:00	4	Temperatura máxima	13.9
3863	7	Sololá	701	Sololá	2	El tablón	11	Noviembre	2023-11-23T00:00:00	2024-11-08T20:00:00	3	Temperatura mínima	12.7
3864	7	Sololá	701	Sololá	2	El tablón	11	Noviembre	2023-11-23T00:00:00	2024-11-08T20:00:00	5	Humedad	87
3865	7	Sololá	701	Sololá	2	El tablón	11	Noviembre	2023-11-23T00:00:00	2024-11-08T20:00:00	6	Velocidad del viento	4.8
3866	7	Sololá	701	Sololá	2	El tablón	11	Noviembre	2023-11-23T00:00:00	2024-11-08T20:00:00	7	Dirección del viento	4.83
3867	7	Sololá	701	Sololá	2	El tablón	11	Noviembre	2023-11-23T00:00:00	2024-11-08T20:00:00	1	Precipitación	0
3868	7	Sololá	701	Sololá	2	El tablón	11	Noviembre	2023-11-23T00:00:00	2024-11-08T20:00:00	8	Radiación solar	0
3869	7	Sololá	701	Sololá	2	El tablón	11	Noviembre	2023-11-23T00:00:00	2024-11-08T21:00:00	2	Temperatura media	12.4
3870	7	Sololá	701	Sololá	2	El tablón	11	Noviembre	2023-11-23T00:00:00	2024-11-08T21:00:00	4	Temperatura máxima	12.8
3871	7	Sololá	701	Sololá	2	El tablón	11	Noviembre	2023-11-23T00:00:00	2024-11-08T21:00:00	3	Temperatura mínima	12.4
3872	7	Sololá	701	Sololá	2	El tablón	11	Noviembre	2023-11-23T00:00:00	2024-11-08T21:00:00	5	Humedad	87
3873	7	Sololá	701	Sololá	2	El tablón	11	Noviembre	2023-11-23T00:00:00	2024-11-08T21:00:00	6	Velocidad del viento	3.2
3874	7	Sololá	701	Sololá	2	El tablón	11	Noviembre	2023-11-23T00:00:00	2024-11-08T21:00:00	7	Dirección del viento	3.22
3875	7	Sololá	701	Sololá	2	El tablón	11	Noviembre	2023-11-23T00:00:00	2024-11-08T21:00:00	1	Precipitación	0
3876	7	Sololá	701	Sololá	2	El tablón	11	Noviembre	2023-11-23T00:00:00	2024-11-08T21:00:00	8	Radiación solar	0
3877	7	Sololá	701	Sololá	2	El tablón	11	Noviembre	2023-11-23T00:00:00	2024-11-08T22:00:00	2	Temperatura media	11.6
3878	7	Sololá	701	Sololá	2	El tablón	11	Noviembre	2023-11-23T00:00:00	2024-11-08T22:00:00	4	Temperatura máxima	12.4
3879	7	Sololá	701	Sololá	2	El tablón	11	Noviembre	2023-11-23T00:00:00	2024-11-08T22:00:00	3	Temperatura mínima	11.5
3880	7	Sololá	701	Sololá	2	El tablón	11	Noviembre	2023-11-23T00:00:00	2024-11-08T22:00:00	5	Humedad	88
3881	7	Sololá	701	Sololá	2	El tablón	11	Noviembre	2023-11-23T00:00:00	2024-11-08T22:00:00	6	Velocidad del viento	3.2
3882	7	Sololá	701	Sololá	2	El tablón	11	Noviembre	2023-11-23T00:00:00	2024-11-08T22:00:00	7	Dirección del viento	3.22
3883	7	Sololá	701	Sololá	2	El tablón	11	Noviembre	2023-11-23T00:00:00	2024-11-08T22:00:00	1	Precipitación	0
3884	7	Sololá	701	Sololá	2	El tablón	11	Noviembre	2023-11-23T00:00:00	2024-11-08T22:00:00	8	Radiación solar	0
3885	7	Sololá	701	Sololá	2	El tablón	11	Noviembre	2023-11-23T00:00:00	2024-11-08T23:00:00	2	Temperatura media	11.5
3886	7	Sololá	701	Sololá	2	El tablón	11	Noviembre	2023-11-23T00:00:00	2024-11-08T23:00:00	4	Temperatura máxima	11.6
3887	7	Sololá	701	Sololá	2	El tablón	11	Noviembre	2023-11-23T00:00:00	2024-11-08T23:00:00	3	Temperatura mínima	11.4
3888	7	Sololá	701	Sololá	2	El tablón	11	Noviembre	2023-11-23T00:00:00	2024-11-08T23:00:00	5	Humedad	88
3889	7	Sololá	701	Sololá	2	El tablón	11	Noviembre	2023-11-23T00:00:00	2024-11-08T23:00:00	6	Velocidad del viento	1.6
3890	7	Sololá	701	Sololá	2	El tablón	11	Noviembre	2023-11-23T00:00:00	2024-11-08T23:00:00	7	Dirección del viento	1.61
3891	7	Sololá	701	Sololá	2	El tablón	11	Noviembre	2023-11-23T00:00:00	2024-11-08T23:00:00	1	Precipitación	0
3892	7	Sololá	701	Sololá	2	El tablón	11	Noviembre	2023-11-23T00:00:00	2024-11-08T23:00:00	8	Radiación solar	0
3893	7	Sololá	701	Sololá	2	El tablón	11	Noviembre	2023-11-24T00:00:00	2024-11-08T00:00:00	2	Temperatura media	11.3
3894	7	Sololá	701	Sololá	2	El tablón	11	Noviembre	2023-11-24T00:00:00	2024-11-08T00:00:00	4	Temperatura máxima	11.6
3895	7	Sololá	701	Sololá	2	El tablón	11	Noviembre	2023-11-24T00:00:00	2024-11-08T00:00:00	3	Temperatura mínima	11.2
3896	7	Sololá	701	Sololá	2	El tablón	11	Noviembre	2023-11-24T00:00:00	2024-11-08T00:00:00	5	Humedad	88
3897	7	Sololá	701	Sololá	2	El tablón	11	Noviembre	2023-11-24T00:00:00	2024-11-08T00:00:00	6	Velocidad del viento	3.2
3898	7	Sololá	701	Sololá	2	El tablón	11	Noviembre	2023-11-24T00:00:00	2024-11-08T00:00:00	7	Dirección del viento	3.22
3899	7	Sololá	701	Sololá	2	El tablón	11	Noviembre	2023-11-24T00:00:00	2024-11-08T00:00:00	1	Precipitación	0
3900	7	Sololá	701	Sololá	2	El tablón	11	Noviembre	2023-11-24T00:00:00	2024-11-08T00:00:00	8	Radiación solar	0
3901	7	Sololá	701	Sololá	2	El tablón	11	Noviembre	2023-11-24T00:00:00	2024-11-08T01:00:00	2	Temperatura media	10.9
3902	7	Sololá	701	Sololá	2	El tablón	11	Noviembre	2023-11-24T00:00:00	2024-11-08T01:00:00	4	Temperatura máxima	11.9
3903	7	Sololá	701	Sololá	2	El tablón	11	Noviembre	2023-11-24T00:00:00	2024-11-08T01:00:00	3	Temperatura mínima	10.9
3904	7	Sololá	701	Sololá	2	El tablón	11	Noviembre	2023-11-24T00:00:00	2024-11-08T01:00:00	5	Humedad	89
3905	7	Sololá	701	Sololá	2	El tablón	11	Noviembre	2023-11-24T00:00:00	2024-11-08T01:00:00	6	Velocidad del viento	3.2
3906	7	Sololá	701	Sololá	2	El tablón	11	Noviembre	2023-11-24T00:00:00	2024-11-08T01:00:00	7	Dirección del viento	3.22
3907	7	Sololá	701	Sololá	2	El tablón	11	Noviembre	2023-11-24T00:00:00	2024-11-08T01:00:00	1	Precipitación	0
3908	7	Sololá	701	Sololá	2	El tablón	11	Noviembre	2023-11-24T00:00:00	2024-11-08T01:00:00	8	Radiación solar	0
3909	7	Sololá	701	Sololá	2	El tablón	11	Noviembre	2023-11-24T00:00:00	2024-11-08T02:00:00	2	Temperatura media	11.1
3910	7	Sololá	701	Sololá	2	El tablón	11	Noviembre	2023-11-24T00:00:00	2024-11-08T02:00:00	4	Temperatura máxima	11.3
3911	7	Sololá	701	Sololá	2	El tablón	11	Noviembre	2023-11-24T00:00:00	2024-11-08T02:00:00	3	Temperatura mínima	10.9
3912	7	Sololá	701	Sololá	2	El tablón	11	Noviembre	2023-11-24T00:00:00	2024-11-08T02:00:00	5	Humedad	88
3913	7	Sololá	701	Sololá	2	El tablón	11	Noviembre	2023-11-24T00:00:00	2024-11-08T02:00:00	6	Velocidad del viento	3.2
3914	7	Sololá	701	Sololá	2	El tablón	11	Noviembre	2023-11-24T00:00:00	2024-11-08T02:00:00	7	Dirección del viento	3.22
3915	7	Sololá	701	Sololá	2	El tablón	11	Noviembre	2023-11-24T00:00:00	2024-11-08T02:00:00	1	Precipitación	0
3916	7	Sololá	701	Sololá	2	El tablón	11	Noviembre	2023-11-24T00:00:00	2024-11-08T02:00:00	8	Radiación solar	0
3917	7	Sololá	701	Sololá	2	El tablón	11	Noviembre	2023-11-24T00:00:00	2024-11-08T03:00:00	2	Temperatura media	11.4
3918	7	Sololá	701	Sololá	2	El tablón	11	Noviembre	2023-11-24T00:00:00	2024-11-08T03:00:00	4	Temperatura máxima	11.4
3919	7	Sololá	701	Sololá	2	El tablón	11	Noviembre	2023-11-24T00:00:00	2024-11-08T03:00:00	3	Temperatura mínima	10.8
3920	7	Sololá	701	Sololá	2	El tablón	11	Noviembre	2023-11-24T00:00:00	2024-11-08T03:00:00	5	Humedad	87
3921	7	Sololá	701	Sololá	2	El tablón	11	Noviembre	2023-11-24T00:00:00	2024-11-08T03:00:00	6	Velocidad del viento	1.6
3922	7	Sololá	701	Sololá	2	El tablón	11	Noviembre	2023-11-24T00:00:00	2024-11-08T03:00:00	7	Dirección del viento	1.61
3923	7	Sololá	701	Sololá	2	El tablón	11	Noviembre	2023-11-24T00:00:00	2024-11-08T03:00:00	1	Precipitación	0
3924	7	Sololá	701	Sololá	2	El tablón	11	Noviembre	2023-11-24T00:00:00	2024-11-08T03:00:00	8	Radiación solar	0
3925	7	Sololá	701	Sololá	2	El tablón	11	Noviembre	2023-11-24T00:00:00	2024-11-08T04:00:00	2	Temperatura media	11.4
3926	7	Sololá	701	Sololá	2	El tablón	11	Noviembre	2023-11-24T00:00:00	2024-11-08T04:00:00	4	Temperatura máxima	11.4
3927	7	Sololá	701	Sololá	2	El tablón	11	Noviembre	2023-11-24T00:00:00	2024-11-08T04:00:00	3	Temperatura mínima	11.1
3928	7	Sololá	701	Sololá	2	El tablón	11	Noviembre	2023-11-24T00:00:00	2024-11-08T04:00:00	5	Humedad	88
3929	7	Sololá	701	Sololá	2	El tablón	11	Noviembre	2023-11-24T00:00:00	2024-11-08T04:00:00	6	Velocidad del viento	0
3930	7	Sololá	701	Sololá	2	El tablón	11	Noviembre	2023-11-24T00:00:00	2024-11-08T04:00:00	7	Dirección del viento	0
3931	7	Sololá	701	Sololá	2	El tablón	11	Noviembre	2023-11-24T00:00:00	2024-11-08T04:00:00	1	Precipitación	0
3932	7	Sololá	701	Sololá	2	El tablón	11	Noviembre	2023-11-24T00:00:00	2024-11-08T04:00:00	8	Radiación solar	0
3933	7	Sololá	701	Sololá	2	El tablón	11	Noviembre	2023-11-24T00:00:00	2024-11-08T05:00:00	2	Temperatura media	10.7
3934	7	Sololá	701	Sololá	2	El tablón	11	Noviembre	2023-11-24T00:00:00	2024-11-08T05:00:00	4	Temperatura máxima	11.4
3935	7	Sololá	701	Sololá	2	El tablón	11	Noviembre	2023-11-24T00:00:00	2024-11-08T05:00:00	3	Temperatura mínima	10.7
3936	7	Sololá	701	Sololá	2	El tablón	11	Noviembre	2023-11-24T00:00:00	2024-11-08T05:00:00	5	Humedad	88
3937	7	Sololá	701	Sololá	2	El tablón	11	Noviembre	2023-11-24T00:00:00	2024-11-08T05:00:00	6	Velocidad del viento	1.6
3938	7	Sololá	701	Sololá	2	El tablón	11	Noviembre	2023-11-24T00:00:00	2024-11-08T05:00:00	7	Dirección del viento	1.61
3939	7	Sololá	701	Sololá	2	El tablón	11	Noviembre	2023-11-24T00:00:00	2024-11-08T05:00:00	1	Precipitación	0
3940	7	Sololá	701	Sololá	2	El tablón	11	Noviembre	2023-11-24T00:00:00	2024-11-08T05:00:00	8	Radiación solar	0
3941	7	Sololá	701	Sololá	2	El tablón	11	Noviembre	2023-11-24T00:00:00	2024-11-08T06:00:00	2	Temperatura media	10.3
3942	7	Sololá	701	Sololá	2	El tablón	11	Noviembre	2023-11-24T00:00:00	2024-11-08T06:00:00	4	Temperatura máxima	10.8
3943	7	Sololá	701	Sololá	2	El tablón	11	Noviembre	2023-11-24T00:00:00	2024-11-08T06:00:00	3	Temperatura mínima	10.3
3944	7	Sololá	701	Sololá	2	El tablón	11	Noviembre	2023-11-24T00:00:00	2024-11-08T06:00:00	5	Humedad	88
3945	7	Sololá	701	Sololá	2	El tablón	11	Noviembre	2023-11-24T00:00:00	2024-11-08T06:00:00	6	Velocidad del viento	3.2
3946	7	Sololá	701	Sololá	2	El tablón	11	Noviembre	2023-11-24T00:00:00	2024-11-08T06:00:00	7	Dirección del viento	3.22
3947	7	Sololá	701	Sololá	2	El tablón	11	Noviembre	2023-11-24T00:00:00	2024-11-08T06:00:00	1	Precipitación	0
3948	7	Sololá	701	Sololá	2	El tablón	11	Noviembre	2023-11-24T00:00:00	2024-11-08T06:00:00	8	Radiación solar	0
3949	7	Sololá	701	Sololá	2	El tablón	11	Noviembre	2023-11-24T00:00:00	2024-11-08T07:00:00	2	Temperatura media	12.1
3950	7	Sololá	701	Sololá	2	El tablón	11	Noviembre	2023-11-24T00:00:00	2024-11-08T07:00:00	4	Temperatura máxima	12.1
3951	7	Sololá	701	Sololá	2	El tablón	11	Noviembre	2023-11-24T00:00:00	2024-11-08T07:00:00	3	Temperatura mínima	10
3952	7	Sololá	701	Sololá	2	El tablón	11	Noviembre	2023-11-24T00:00:00	2024-11-08T07:00:00	5	Humedad	87
3953	7	Sololá	701	Sololá	2	El tablón	11	Noviembre	2023-11-24T00:00:00	2024-11-08T07:00:00	6	Velocidad del viento	3.2
3954	7	Sololá	701	Sololá	2	El tablón	11	Noviembre	2023-11-24T00:00:00	2024-11-08T07:00:00	7	Dirección del viento	3.22
3955	7	Sololá	701	Sololá	2	El tablón	11	Noviembre	2023-11-24T00:00:00	2024-11-08T07:00:00	1	Precipitación	0
3956	7	Sololá	701	Sololá	2	El tablón	11	Noviembre	2023-11-24T00:00:00	2024-11-08T07:00:00	8	Radiación solar	33
3957	7	Sololá	701	Sololá	2	El tablón	11	Noviembre	2023-11-24T00:00:00	2024-11-08T08:00:00	2	Temperatura media	16.2
3958	7	Sololá	701	Sololá	2	El tablón	11	Noviembre	2023-11-24T00:00:00	2024-11-08T08:00:00	4	Temperatura máxima	16.2
3959	7	Sololá	701	Sololá	2	El tablón	11	Noviembre	2023-11-24T00:00:00	2024-11-08T08:00:00	3	Temperatura mínima	12.1
3960	7	Sololá	701	Sololá	2	El tablón	11	Noviembre	2023-11-24T00:00:00	2024-11-08T08:00:00	5	Humedad	76
3961	7	Sololá	701	Sololá	2	El tablón	11	Noviembre	2023-11-24T00:00:00	2024-11-08T08:00:00	6	Velocidad del viento	1.6
3962	7	Sololá	701	Sololá	2	El tablón	11	Noviembre	2023-11-24T00:00:00	2024-11-08T08:00:00	7	Dirección del viento	1.61
3963	7	Sololá	701	Sololá	2	El tablón	11	Noviembre	2023-11-24T00:00:00	2024-11-08T08:00:00	1	Precipitación	0
3964	7	Sololá	701	Sololá	2	El tablón	11	Noviembre	2023-11-24T00:00:00	2024-11-08T08:00:00	8	Radiación solar	202
3965	7	Sololá	701	Sololá	2	El tablón	11	Noviembre	2023-11-24T00:00:00	2024-11-08T09:00:00	2	Temperatura media	19
3966	7	Sololá	701	Sololá	2	El tablón	11	Noviembre	2023-11-24T00:00:00	2024-11-08T09:00:00	4	Temperatura máxima	19.3
3967	7	Sololá	701	Sololá	2	El tablón	11	Noviembre	2023-11-24T00:00:00	2024-11-08T09:00:00	3	Temperatura mínima	16.2
3968	7	Sololá	701	Sololá	2	El tablón	11	Noviembre	2023-11-24T00:00:00	2024-11-08T09:00:00	5	Humedad	69
3969	7	Sololá	701	Sololá	2	El tablón	11	Noviembre	2023-11-24T00:00:00	2024-11-08T09:00:00	6	Velocidad del viento	1.6
3970	7	Sololá	701	Sololá	2	El tablón	11	Noviembre	2023-11-24T00:00:00	2024-11-08T09:00:00	7	Dirección del viento	1.61
3971	7	Sololá	701	Sololá	2	El tablón	11	Noviembre	2023-11-24T00:00:00	2024-11-08T09:00:00	1	Precipitación	0
3972	7	Sololá	701	Sololá	2	El tablón	11	Noviembre	2023-11-24T00:00:00	2024-11-08T09:00:00	8	Radiación solar	413
3973	7	Sololá	701	Sololá	2	El tablón	11	Noviembre	2023-11-24T00:00:00	2024-11-08T10:00:00	2	Temperatura media	19.9
3974	7	Sololá	701	Sololá	2	El tablón	11	Noviembre	2023-11-24T00:00:00	2024-11-08T10:00:00	4	Temperatura máxima	19.9
3975	7	Sololá	701	Sololá	2	El tablón	11	Noviembre	2023-11-24T00:00:00	2024-11-08T10:00:00	3	Temperatura mínima	18.8
3976	7	Sololá	701	Sololá	2	El tablón	11	Noviembre	2023-11-24T00:00:00	2024-11-08T10:00:00	5	Humedad	65
3977	7	Sololá	701	Sololá	2	El tablón	11	Noviembre	2023-11-24T00:00:00	2024-11-08T10:00:00	6	Velocidad del viento	3.2
3978	7	Sololá	701	Sololá	2	El tablón	11	Noviembre	2023-11-24T00:00:00	2024-11-08T10:00:00	7	Dirección del viento	3.22
3979	7	Sololá	701	Sololá	2	El tablón	11	Noviembre	2023-11-24T00:00:00	2024-11-08T10:00:00	1	Precipitación	0
3980	7	Sololá	701	Sololá	2	El tablón	11	Noviembre	2023-11-24T00:00:00	2024-11-08T10:00:00	8	Radiación solar	592
3981	7	Sololá	701	Sololá	2	El tablón	11	Noviembre	2023-11-24T00:00:00	2024-11-08T11:00:00	2	Temperatura media	19.8
3982	7	Sololá	701	Sololá	2	El tablón	11	Noviembre	2023-11-24T00:00:00	2024-11-08T11:00:00	4	Temperatura máxima	20.7
3983	7	Sololá	701	Sololá	2	El tablón	11	Noviembre	2023-11-24T00:00:00	2024-11-08T11:00:00	3	Temperatura mínima	19.8
3984	7	Sololá	701	Sololá	2	El tablón	11	Noviembre	2023-11-24T00:00:00	2024-11-08T11:00:00	5	Humedad	67
3985	7	Sololá	701	Sololá	2	El tablón	11	Noviembre	2023-11-24T00:00:00	2024-11-08T11:00:00	6	Velocidad del viento	6.4
3986	7	Sololá	701	Sololá	2	El tablón	11	Noviembre	2023-11-24T00:00:00	2024-11-08T11:00:00	7	Dirección del viento	6.44
3987	7	Sololá	701	Sololá	2	El tablón	11	Noviembre	2023-11-24T00:00:00	2024-11-08T11:00:00	1	Precipitación	0
3988	7	Sololá	701	Sololá	2	El tablón	11	Noviembre	2023-11-24T00:00:00	2024-11-08T11:00:00	8	Radiación solar	716
3989	7	Sololá	701	Sololá	2	El tablón	11	Noviembre	2023-11-24T00:00:00	2024-11-08T12:00:00	2	Temperatura media	20.1
3990	7	Sololá	701	Sololá	2	El tablón	11	Noviembre	2023-11-24T00:00:00	2024-11-08T12:00:00	4	Temperatura máxima	20.4
3991	7	Sololá	701	Sololá	2	El tablón	11	Noviembre	2023-11-24T00:00:00	2024-11-08T12:00:00	3	Temperatura mínima	19.7
3992	7	Sololá	701	Sololá	2	El tablón	11	Noviembre	2023-11-24T00:00:00	2024-11-08T12:00:00	5	Humedad	66
3993	7	Sololá	701	Sololá	2	El tablón	11	Noviembre	2023-11-24T00:00:00	2024-11-08T12:00:00	6	Velocidad del viento	6.4
3994	7	Sololá	701	Sololá	2	El tablón	11	Noviembre	2023-11-24T00:00:00	2024-11-08T12:00:00	7	Dirección del viento	6.44
3995	7	Sololá	701	Sololá	2	El tablón	11	Noviembre	2023-11-24T00:00:00	2024-11-08T12:00:00	1	Precipitación	0
3996	7	Sololá	701	Sololá	2	El tablón	11	Noviembre	2023-11-24T00:00:00	2024-11-08T12:00:00	8	Radiación solar	685
3997	7	Sololá	701	Sololá	2	El tablón	11	Noviembre	2023-11-24T00:00:00	2024-11-08T13:00:00	2	Temperatura media	18.7
3998	7	Sololá	701	Sololá	2	El tablón	11	Noviembre	2023-11-24T00:00:00	2024-11-08T13:00:00	4	Temperatura máxima	20.1
3999	7	Sololá	701	Sololá	2	El tablón	11	Noviembre	2023-11-24T00:00:00	2024-11-08T13:00:00	3	Temperatura mínima	18.7
4000	7	Sololá	701	Sololá	2	El tablón	11	Noviembre	2023-11-24T00:00:00	2024-11-08T13:00:00	5	Humedad	78
4001	7	Sololá	701	Sololá	2	El tablón	11	Noviembre	2023-11-24T00:00:00	2024-11-08T13:00:00	6	Velocidad del viento	9.7
4002	7	Sololá	701	Sololá	2	El tablón	11	Noviembre	2023-11-24T00:00:00	2024-11-08T13:00:00	7	Dirección del viento	9.66
4003	7	Sololá	701	Sololá	2	El tablón	11	Noviembre	2023-11-24T00:00:00	2024-11-08T13:00:00	1	Precipitación	0
4004	7	Sololá	701	Sololá	2	El tablón	11	Noviembre	2023-11-24T00:00:00	2024-11-08T13:00:00	8	Radiación solar	773
4005	7	Sololá	701	Sololá	2	El tablón	11	Noviembre	2023-11-24T00:00:00	2024-11-08T14:00:00	2	Temperatura media	17.4
4006	7	Sololá	701	Sololá	2	El tablón	11	Noviembre	2023-11-24T00:00:00	2024-11-08T14:00:00	4	Temperatura máxima	18.8
4007	7	Sololá	701	Sololá	2	El tablón	11	Noviembre	2023-11-24T00:00:00	2024-11-08T14:00:00	3	Temperatura mínima	17.4
4008	7	Sololá	701	Sololá	2	El tablón	11	Noviembre	2023-11-24T00:00:00	2024-11-08T14:00:00	5	Humedad	85
4009	7	Sololá	701	Sololá	2	El tablón	11	Noviembre	2023-11-24T00:00:00	2024-11-08T14:00:00	6	Velocidad del viento	6.4
4010	7	Sololá	701	Sololá	2	El tablón	11	Noviembre	2023-11-24T00:00:00	2024-11-08T14:00:00	7	Dirección del viento	6.44
4011	7	Sololá	701	Sololá	2	El tablón	11	Noviembre	2023-11-24T00:00:00	2024-11-08T14:00:00	1	Precipitación	0
4012	7	Sololá	701	Sololá	2	El tablón	11	Noviembre	2023-11-24T00:00:00	2024-11-08T14:00:00	8	Radiación solar	353
4013	7	Sololá	701	Sololá	2	El tablón	11	Noviembre	2023-11-24T00:00:00	2024-11-08T15:00:00	2	Temperatura media	16.9
4014	7	Sololá	701	Sololá	2	El tablón	11	Noviembre	2023-11-24T00:00:00	2024-11-08T15:00:00	4	Temperatura máxima	17.8
4015	7	Sololá	701	Sololá	2	El tablón	11	Noviembre	2023-11-24T00:00:00	2024-11-08T15:00:00	3	Temperatura mínima	16.9
4016	7	Sololá	701	Sololá	2	El tablón	11	Noviembre	2023-11-24T00:00:00	2024-11-08T15:00:00	5	Humedad	86
4017	7	Sololá	701	Sololá	2	El tablón	11	Noviembre	2023-11-24T00:00:00	2024-11-08T15:00:00	6	Velocidad del viento	6.4
4018	7	Sololá	701	Sololá	2	El tablón	11	Noviembre	2023-11-24T00:00:00	2024-11-08T15:00:00	7	Dirección del viento	6.44
4019	7	Sololá	701	Sololá	2	El tablón	11	Noviembre	2023-11-24T00:00:00	2024-11-08T15:00:00	1	Precipitación	0
4020	7	Sololá	701	Sololá	2	El tablón	11	Noviembre	2023-11-24T00:00:00	2024-11-08T15:00:00	8	Radiación solar	319
4021	7	Sololá	701	Sololá	2	El tablón	11	Noviembre	2023-11-24T00:00:00	2024-11-08T16:00:00	2	Temperatura media	15.7
4022	7	Sololá	701	Sololá	2	El tablón	11	Noviembre	2023-11-24T00:00:00	2024-11-08T16:00:00	4	Temperatura máxima	16.9
4023	7	Sololá	701	Sololá	2	El tablón	11	Noviembre	2023-11-24T00:00:00	2024-11-08T16:00:00	3	Temperatura mínima	15.7
4024	7	Sololá	701	Sololá	2	El tablón	11	Noviembre	2023-11-24T00:00:00	2024-11-08T16:00:00	5	Humedad	88
4025	7	Sololá	701	Sololá	2	El tablón	11	Noviembre	2023-11-24T00:00:00	2024-11-08T16:00:00	6	Velocidad del viento	6.4
4026	7	Sololá	701	Sololá	2	El tablón	11	Noviembre	2023-11-24T00:00:00	2024-11-08T16:00:00	7	Dirección del viento	6.44
4027	7	Sololá	701	Sololá	2	El tablón	11	Noviembre	2023-11-24T00:00:00	2024-11-08T16:00:00	1	Precipitación	0
4028	7	Sololá	701	Sololá	2	El tablón	11	Noviembre	2023-11-24T00:00:00	2024-11-08T16:00:00	8	Radiación solar	120
4029	7	Sololá	701	Sololá	2	El tablón	11	Noviembre	2023-11-24T00:00:00	2024-11-08T17:00:00	2	Temperatura media	15.1
4030	7	Sololá	701	Sololá	2	El tablón	11	Noviembre	2023-11-24T00:00:00	2024-11-08T17:00:00	4	Temperatura máxima	15.7
4031	7	Sololá	701	Sololá	2	El tablón	11	Noviembre	2023-11-24T00:00:00	2024-11-08T17:00:00	3	Temperatura mínima	15.1
4032	7	Sololá	701	Sololá	2	El tablón	11	Noviembre	2023-11-24T00:00:00	2024-11-08T17:00:00	5	Humedad	88
4033	7	Sololá	701	Sololá	2	El tablón	11	Noviembre	2023-11-24T00:00:00	2024-11-08T17:00:00	6	Velocidad del viento	4.8
4034	7	Sololá	701	Sololá	2	El tablón	11	Noviembre	2023-11-24T00:00:00	2024-11-08T17:00:00	7	Dirección del viento	4.83
4035	7	Sololá	701	Sololá	2	El tablón	11	Noviembre	2023-11-24T00:00:00	2024-11-08T17:00:00	1	Precipitación	0
4036	7	Sololá	701	Sololá	2	El tablón	11	Noviembre	2023-11-24T00:00:00	2024-11-08T17:00:00	8	Radiación solar	32
4037	7	Sololá	701	Sololá	2	El tablón	11	Noviembre	2023-11-24T00:00:00	2024-11-08T18:00:00	2	Temperatura media	14.8
4038	7	Sololá	701	Sololá	2	El tablón	11	Noviembre	2023-11-24T00:00:00	2024-11-08T18:00:00	4	Temperatura máxima	15.2
4039	7	Sololá	701	Sololá	2	El tablón	11	Noviembre	2023-11-24T00:00:00	2024-11-08T18:00:00	3	Temperatura mínima	14.7
4040	7	Sololá	701	Sololá	2	El tablón	11	Noviembre	2023-11-24T00:00:00	2024-11-08T18:00:00	5	Humedad	88
4041	7	Sololá	701	Sololá	2	El tablón	11	Noviembre	2023-11-24T00:00:00	2024-11-08T18:00:00	6	Velocidad del viento	0
4042	7	Sololá	701	Sololá	2	El tablón	11	Noviembre	2023-11-24T00:00:00	2024-11-08T18:00:00	7	Dirección del viento	0
4043	7	Sololá	701	Sololá	2	El tablón	11	Noviembre	2023-11-24T00:00:00	2024-11-08T18:00:00	1	Precipitación	0
4044	7	Sololá	701	Sololá	2	El tablón	11	Noviembre	2023-11-24T00:00:00	2024-11-08T18:00:00	8	Radiación solar	11
4045	7	Sololá	701	Sololá	2	El tablón	11	Noviembre	2023-11-24T00:00:00	2024-11-08T19:00:00	2	Temperatura media	14.8
4046	7	Sololá	701	Sololá	2	El tablón	11	Noviembre	2023-11-24T00:00:00	2024-11-08T19:00:00	4	Temperatura máxima	14.9
4047	7	Sololá	701	Sololá	2	El tablón	11	Noviembre	2023-11-24T00:00:00	2024-11-08T19:00:00	3	Temperatura mínima	14.7
4048	7	Sololá	701	Sololá	2	El tablón	11	Noviembre	2023-11-24T00:00:00	2024-11-08T19:00:00	5	Humedad	88
4049	7	Sololá	701	Sololá	2	El tablón	11	Noviembre	2023-11-24T00:00:00	2024-11-08T19:00:00	6	Velocidad del viento	0
4050	7	Sololá	701	Sololá	2	El tablón	11	Noviembre	2023-11-24T00:00:00	2024-11-08T19:00:00	7	Dirección del viento	0
4051	7	Sololá	701	Sololá	2	El tablón	11	Noviembre	2023-11-24T00:00:00	2024-11-08T19:00:00	1	Precipitación	0
4052	7	Sololá	701	Sololá	2	El tablón	11	Noviembre	2023-11-24T00:00:00	2024-11-08T19:00:00	8	Radiación solar	0
4053	7	Sololá	701	Sololá	2	El tablón	11	Noviembre	2023-11-24T00:00:00	2024-11-08T20:00:00	2	Temperatura media	14.6
4054	7	Sololá	701	Sololá	2	El tablón	11	Noviembre	2023-11-24T00:00:00	2024-11-08T20:00:00	4	Temperatura máxima	14.8
4055	7	Sololá	701	Sololá	2	El tablón	11	Noviembre	2023-11-24T00:00:00	2024-11-08T20:00:00	3	Temperatura mínima	14.6
4056	7	Sololá	701	Sololá	2	El tablón	11	Noviembre	2023-11-24T00:00:00	2024-11-08T20:00:00	5	Humedad	88
4057	7	Sololá	701	Sololá	2	El tablón	11	Noviembre	2023-11-24T00:00:00	2024-11-08T20:00:00	6	Velocidad del viento	0
4058	7	Sololá	701	Sololá	2	El tablón	11	Noviembre	2023-11-24T00:00:00	2024-11-08T20:00:00	7	Dirección del viento	0
4059	7	Sololá	701	Sololá	2	El tablón	11	Noviembre	2023-11-24T00:00:00	2024-11-08T20:00:00	1	Precipitación	0
4060	7	Sololá	701	Sololá	2	El tablón	11	Noviembre	2023-11-24T00:00:00	2024-11-08T20:00:00	8	Radiación solar	0
4061	7	Sololá	701	Sololá	2	El tablón	11	Noviembre	2023-11-24T00:00:00	2024-11-08T21:00:00	2	Temperatura media	14.3
4062	7	Sololá	701	Sololá	2	El tablón	11	Noviembre	2023-11-24T00:00:00	2024-11-08T21:00:00	4	Temperatura máxima	14.7
4063	7	Sololá	701	Sololá	2	El tablón	11	Noviembre	2023-11-24T00:00:00	2024-11-08T21:00:00	3	Temperatura mínima	14.3
4064	7	Sololá	701	Sololá	2	El tablón	11	Noviembre	2023-11-24T00:00:00	2024-11-08T21:00:00	5	Humedad	88
4065	7	Sololá	701	Sololá	2	El tablón	11	Noviembre	2023-11-24T00:00:00	2024-11-08T21:00:00	6	Velocidad del viento	0
4066	7	Sololá	701	Sololá	2	El tablón	11	Noviembre	2023-11-24T00:00:00	2024-11-08T21:00:00	7	Dirección del viento	0
4067	7	Sololá	701	Sololá	2	El tablón	11	Noviembre	2023-11-24T00:00:00	2024-11-08T21:00:00	1	Precipitación	0
4068	7	Sololá	701	Sololá	2	El tablón	11	Noviembre	2023-11-24T00:00:00	2024-11-08T21:00:00	8	Radiación solar	0
4069	7	Sololá	701	Sololá	2	El tablón	11	Noviembre	2023-11-24T00:00:00	2024-11-08T22:00:00	2	Temperatura media	14.1
4070	7	Sololá	701	Sololá	2	El tablón	11	Noviembre	2023-11-24T00:00:00	2024-11-08T22:00:00	4	Temperatura máxima	14.4
4071	7	Sololá	701	Sololá	2	El tablón	11	Noviembre	2023-11-24T00:00:00	2024-11-08T22:00:00	3	Temperatura mínima	14.1
4072	7	Sololá	701	Sololá	2	El tablón	11	Noviembre	2023-11-24T00:00:00	2024-11-08T22:00:00	5	Humedad	88
4073	7	Sololá	701	Sololá	2	El tablón	11	Noviembre	2023-11-24T00:00:00	2024-11-08T22:00:00	6	Velocidad del viento	1.6
4074	7	Sololá	701	Sololá	2	El tablón	11	Noviembre	2023-11-24T00:00:00	2024-11-08T22:00:00	7	Dirección del viento	1.61
4075	7	Sololá	701	Sololá	2	El tablón	11	Noviembre	2023-11-24T00:00:00	2024-11-08T22:00:00	1	Precipitación	0
4076	7	Sololá	701	Sololá	2	El tablón	11	Noviembre	2023-11-24T00:00:00	2024-11-08T22:00:00	8	Radiación solar	0
4077	7	Sololá	701	Sololá	2	El tablón	11	Noviembre	2023-11-24T00:00:00	2024-11-08T23:00:00	2	Temperatura media	14.3
4078	7	Sololá	701	Sololá	2	El tablón	11	Noviembre	2023-11-24T00:00:00	2024-11-08T23:00:00	4	Temperatura máxima	14.3
4079	7	Sololá	701	Sololá	2	El tablón	11	Noviembre	2023-11-24T00:00:00	2024-11-08T23:00:00	3	Temperatura mínima	13.9
4080	7	Sololá	701	Sololá	2	El tablón	11	Noviembre	2023-11-24T00:00:00	2024-11-08T23:00:00	5	Humedad	88
4081	7	Sololá	701	Sololá	2	El tablón	11	Noviembre	2023-11-24T00:00:00	2024-11-08T23:00:00	6	Velocidad del viento	1.6
4082	7	Sololá	701	Sololá	2	El tablón	11	Noviembre	2023-11-24T00:00:00	2024-11-08T23:00:00	7	Dirección del viento	1.61
4083	7	Sololá	701	Sololá	2	El tablón	11	Noviembre	2023-11-24T00:00:00	2024-11-08T23:00:00	1	Precipitación	0
4084	7	Sololá	701	Sololá	2	El tablón	11	Noviembre	2023-11-24T00:00:00	2024-11-08T23:00:00	8	Radiación solar	0
4085	7	Sololá	701	Sololá	2	El tablón	11	Noviembre	2023-11-25T00:00:00	2024-11-08T00:00:00	2	Temperatura media	13.1
4086	7	Sololá	701	Sololá	2	El tablón	11	Noviembre	2023-11-25T00:00:00	2024-11-08T00:00:00	4	Temperatura máxima	14.3
4087	7	Sololá	701	Sololá	2	El tablón	11	Noviembre	2023-11-25T00:00:00	2024-11-08T00:00:00	3	Temperatura mínima	13.1
4088	7	Sololá	701	Sololá	2	El tablón	11	Noviembre	2023-11-25T00:00:00	2024-11-08T00:00:00	5	Humedad	89
4089	7	Sololá	701	Sololá	2	El tablón	11	Noviembre	2023-11-25T00:00:00	2024-11-08T00:00:00	6	Velocidad del viento	0
4090	7	Sololá	701	Sololá	2	El tablón	11	Noviembre	2023-11-25T00:00:00	2024-11-08T00:00:00	7	Dirección del viento	0
4091	7	Sololá	701	Sololá	2	El tablón	11	Noviembre	2023-11-25T00:00:00	2024-11-08T00:00:00	1	Precipitación	0
4092	7	Sololá	701	Sololá	2	El tablón	11	Noviembre	2023-11-25T00:00:00	2024-11-08T00:00:00	8	Radiación solar	0
4093	7	Sololá	701	Sololá	2	El tablón	11	Noviembre	2023-11-25T00:00:00	2024-11-08T01:00:00	2	Temperatura media	13.3
4094	7	Sololá	701	Sololá	2	El tablón	11	Noviembre	2023-11-25T00:00:00	2024-11-08T01:00:00	4	Temperatura máxima	13.4
4095	7	Sololá	701	Sololá	2	El tablón	11	Noviembre	2023-11-25T00:00:00	2024-11-08T01:00:00	3	Temperatura mínima	13.1
4096	7	Sololá	701	Sololá	2	El tablón	11	Noviembre	2023-11-25T00:00:00	2024-11-08T01:00:00	5	Humedad	88
4097	7	Sololá	701	Sololá	2	El tablón	11	Noviembre	2023-11-25T00:00:00	2024-11-08T01:00:00	6	Velocidad del viento	6.4
4098	7	Sololá	701	Sololá	2	El tablón	11	Noviembre	2023-11-25T00:00:00	2024-11-08T01:00:00	7	Dirección del viento	6.44
4099	7	Sololá	701	Sololá	2	El tablón	11	Noviembre	2023-11-25T00:00:00	2024-11-08T01:00:00	1	Precipitación	0
4100	7	Sololá	701	Sololá	2	El tablón	11	Noviembre	2023-11-25T00:00:00	2024-11-08T01:00:00	8	Radiación solar	0
4101	7	Sololá	701	Sololá	2	El tablón	11	Noviembre	2023-11-25T00:00:00	2024-11-08T02:00:00	2	Temperatura media	12.3
4102	7	Sololá	701	Sololá	2	El tablón	11	Noviembre	2023-11-25T00:00:00	2024-11-08T02:00:00	4	Temperatura máxima	13.3
4103	7	Sololá	701	Sololá	2	El tablón	11	Noviembre	2023-11-25T00:00:00	2024-11-08T02:00:00	3	Temperatura mínima	12.3
4104	7	Sololá	701	Sololá	2	El tablón	11	Noviembre	2023-11-25T00:00:00	2024-11-08T02:00:00	5	Humedad	89
4105	7	Sololá	701	Sololá	2	El tablón	11	Noviembre	2023-11-25T00:00:00	2024-11-08T02:00:00	6	Velocidad del viento	3.2
4106	7	Sololá	701	Sololá	2	El tablón	11	Noviembre	2023-11-25T00:00:00	2024-11-08T02:00:00	7	Dirección del viento	3.22
4107	7	Sololá	701	Sololá	2	El tablón	11	Noviembre	2023-11-25T00:00:00	2024-11-08T02:00:00	1	Precipitación	0
4108	7	Sololá	701	Sololá	2	El tablón	11	Noviembre	2023-11-25T00:00:00	2024-11-08T02:00:00	8	Radiación solar	0
4109	7	Sololá	701	Sololá	2	El tablón	11	Noviembre	2023-11-25T00:00:00	2024-11-08T03:00:00	2	Temperatura media	13.1
4110	7	Sololá	701	Sololá	2	El tablón	11	Noviembre	2023-11-25T00:00:00	2024-11-08T03:00:00	4	Temperatura máxima	13.1
4111	7	Sololá	701	Sololá	2	El tablón	11	Noviembre	2023-11-25T00:00:00	2024-11-08T03:00:00	3	Temperatura mínima	12.2
4112	7	Sololá	701	Sololá	2	El tablón	11	Noviembre	2023-11-25T00:00:00	2024-11-08T03:00:00	5	Humedad	88
4113	7	Sololá	701	Sololá	2	El tablón	11	Noviembre	2023-11-25T00:00:00	2024-11-08T03:00:00	6	Velocidad del viento	3.2
4114	7	Sololá	701	Sololá	2	El tablón	11	Noviembre	2023-11-25T00:00:00	2024-11-08T03:00:00	7	Dirección del viento	3.22
4115	7	Sololá	701	Sololá	2	El tablón	11	Noviembre	2023-11-25T00:00:00	2024-11-08T03:00:00	1	Precipitación	0
4116	7	Sololá	701	Sololá	2	El tablón	11	Noviembre	2023-11-25T00:00:00	2024-11-08T03:00:00	8	Radiación solar	0
4117	7	Sololá	701	Sololá	2	El tablón	11	Noviembre	2023-11-25T00:00:00	2024-11-08T04:00:00	2	Temperatura media	13.7
4118	7	Sololá	701	Sololá	2	El tablón	11	Noviembre	2023-11-25T00:00:00	2024-11-08T04:00:00	4	Temperatura máxima	13.7
4119	7	Sololá	701	Sololá	2	El tablón	11	Noviembre	2023-11-25T00:00:00	2024-11-08T04:00:00	3	Temperatura mínima	13.1
4120	7	Sololá	701	Sololá	2	El tablón	11	Noviembre	2023-11-25T00:00:00	2024-11-08T04:00:00	5	Humedad	87
4121	7	Sololá	701	Sololá	2	El tablón	11	Noviembre	2023-11-25T00:00:00	2024-11-08T04:00:00	6	Velocidad del viento	6.4
4122	7	Sololá	701	Sololá	2	El tablón	11	Noviembre	2023-11-25T00:00:00	2024-11-08T04:00:00	7	Dirección del viento	6.44
4123	7	Sololá	701	Sololá	2	El tablón	11	Noviembre	2023-11-25T00:00:00	2024-11-08T04:00:00	1	Precipitación	0
4124	7	Sololá	701	Sololá	2	El tablón	11	Noviembre	2023-11-25T00:00:00	2024-11-08T04:00:00	8	Radiación solar	0
4125	7	Sololá	701	Sololá	2	El tablón	11	Noviembre	2023-11-25T00:00:00	2024-11-08T05:00:00	2	Temperatura media	13.6
4126	7	Sololá	701	Sololá	2	El tablón	11	Noviembre	2023-11-25T00:00:00	2024-11-08T05:00:00	4	Temperatura máxima	13.7
4127	7	Sololá	701	Sololá	2	El tablón	11	Noviembre	2023-11-25T00:00:00	2024-11-08T05:00:00	3	Temperatura mínima	13.5
4128	7	Sololá	701	Sololá	2	El tablón	11	Noviembre	2023-11-25T00:00:00	2024-11-08T05:00:00	5	Humedad	86
4129	7	Sololá	701	Sololá	2	El tablón	11	Noviembre	2023-11-25T00:00:00	2024-11-08T05:00:00	6	Velocidad del viento	6.4
4130	7	Sololá	701	Sololá	2	El tablón	11	Noviembre	2023-11-25T00:00:00	2024-11-08T05:00:00	7	Dirección del viento	6.44
4131	7	Sololá	701	Sololá	2	El tablón	11	Noviembre	2023-11-25T00:00:00	2024-11-08T05:00:00	1	Precipitación	0
4132	7	Sololá	701	Sololá	2	El tablón	11	Noviembre	2023-11-25T00:00:00	2024-11-08T05:00:00	8	Radiación solar	0
4133	7	Sololá	701	Sololá	2	El tablón	11	Noviembre	2023-11-25T00:00:00	2024-11-08T06:00:00	2	Temperatura media	13.3
4134	7	Sololá	701	Sololá	2	El tablón	11	Noviembre	2023-11-25T00:00:00	2024-11-08T06:00:00	4	Temperatura máxima	13.7
4135	7	Sololá	701	Sololá	2	El tablón	11	Noviembre	2023-11-25T00:00:00	2024-11-08T06:00:00	3	Temperatura mínima	13.3
4136	7	Sololá	701	Sololá	2	El tablón	11	Noviembre	2023-11-25T00:00:00	2024-11-08T06:00:00	5	Humedad	85
4137	7	Sololá	701	Sololá	2	El tablón	11	Noviembre	2023-11-25T00:00:00	2024-11-08T06:00:00	6	Velocidad del viento	6.4
4138	7	Sololá	701	Sololá	2	El tablón	11	Noviembre	2023-11-25T00:00:00	2024-11-08T06:00:00	7	Dirección del viento	6.44
4139	7	Sololá	701	Sololá	2	El tablón	11	Noviembre	2023-11-25T00:00:00	2024-11-08T06:00:00	1	Precipitación	0
4140	7	Sololá	701	Sololá	2	El tablón	11	Noviembre	2023-11-25T00:00:00	2024-11-08T06:00:00	8	Radiación solar	0
4141	7	Sololá	701	Sololá	2	El tablón	11	Noviembre	2023-11-25T00:00:00	2024-11-08T07:00:00	2	Temperatura media	14.1
4142	7	Sololá	701	Sololá	2	El tablón	11	Noviembre	2023-11-25T00:00:00	2024-11-08T07:00:00	4	Temperatura máxima	14.2
4143	7	Sololá	701	Sololá	2	El tablón	11	Noviembre	2023-11-25T00:00:00	2024-11-08T07:00:00	3	Temperatura mínima	12.8
4144	7	Sololá	701	Sololá	2	El tablón	11	Noviembre	2023-11-25T00:00:00	2024-11-08T07:00:00	5	Humedad	84
4145	7	Sololá	701	Sololá	2	El tablón	11	Noviembre	2023-11-25T00:00:00	2024-11-08T07:00:00	6	Velocidad del viento	4.8
4146	7	Sololá	701	Sololá	2	El tablón	11	Noviembre	2023-11-25T00:00:00	2024-11-08T07:00:00	7	Dirección del viento	4.83
4147	7	Sololá	701	Sololá	2	El tablón	11	Noviembre	2023-11-25T00:00:00	2024-11-08T07:00:00	1	Precipitación	0
4148	7	Sololá	701	Sololá	2	El tablón	11	Noviembre	2023-11-25T00:00:00	2024-11-08T07:00:00	8	Radiación solar	15
4149	7	Sololá	701	Sololá	2	El tablón	11	Noviembre	2023-11-25T00:00:00	2024-11-08T08:00:00	2	Temperatura media	14.8
4150	7	Sololá	701	Sololá	2	El tablón	11	Noviembre	2023-11-25T00:00:00	2024-11-08T08:00:00	4	Temperatura máxima	14.8
4151	7	Sololá	701	Sololá	2	El tablón	11	Noviembre	2023-11-25T00:00:00	2024-11-08T08:00:00	3	Temperatura mínima	13.8
4152	7	Sololá	701	Sololá	2	El tablón	11	Noviembre	2023-11-25T00:00:00	2024-11-08T08:00:00	5	Humedad	84
4153	7	Sololá	701	Sololá	2	El tablón	11	Noviembre	2023-11-25T00:00:00	2024-11-08T08:00:00	6	Velocidad del viento	6.4
4154	7	Sololá	701	Sololá	2	El tablón	11	Noviembre	2023-11-25T00:00:00	2024-11-08T08:00:00	7	Dirección del viento	6.44
4155	7	Sololá	701	Sololá	2	El tablón	11	Noviembre	2023-11-25T00:00:00	2024-11-08T08:00:00	1	Precipitación	0
4156	7	Sololá	701	Sololá	2	El tablón	11	Noviembre	2023-11-25T00:00:00	2024-11-08T08:00:00	8	Radiación solar	100
4157	7	Sololá	701	Sololá	2	El tablón	11	Noviembre	2023-11-25T00:00:00	2024-11-08T09:00:00	2	Temperatura media	17.1
4158	7	Sololá	701	Sololá	2	El tablón	11	Noviembre	2023-11-25T00:00:00	2024-11-08T09:00:00	4	Temperatura máxima	17.4
4159	7	Sololá	701	Sololá	2	El tablón	11	Noviembre	2023-11-25T00:00:00	2024-11-08T09:00:00	3	Temperatura mínima	14.8
4160	7	Sololá	701	Sololá	2	El tablón	11	Noviembre	2023-11-25T00:00:00	2024-11-08T09:00:00	5	Humedad	75
4161	7	Sololá	701	Sololá	2	El tablón	11	Noviembre	2023-11-25T00:00:00	2024-11-08T09:00:00	6	Velocidad del viento	8
4162	7	Sololá	701	Sololá	2	El tablón	11	Noviembre	2023-11-25T00:00:00	2024-11-08T09:00:00	7	Dirección del viento	8.05
4163	7	Sololá	701	Sololá	2	El tablón	11	Noviembre	2023-11-25T00:00:00	2024-11-08T09:00:00	1	Precipitación	0
4164	7	Sololá	701	Sololá	2	El tablón	11	Noviembre	2023-11-25T00:00:00	2024-11-08T09:00:00	8	Radiación solar	404
4165	7	Sololá	701	Sololá	2	El tablón	11	Noviembre	2023-11-25T00:00:00	2024-11-08T10:00:00	2	Temperatura media	18.4
4166	7	Sololá	701	Sololá	2	El tablón	11	Noviembre	2023-11-25T00:00:00	2024-11-08T10:00:00	4	Temperatura máxima	18.4
4167	7	Sololá	701	Sololá	2	El tablón	11	Noviembre	2023-11-25T00:00:00	2024-11-08T10:00:00	3	Temperatura mínima	17.1
4168	7	Sololá	701	Sololá	2	El tablón	11	Noviembre	2023-11-25T00:00:00	2024-11-08T10:00:00	5	Humedad	72
4169	7	Sololá	701	Sololá	2	El tablón	11	Noviembre	2023-11-25T00:00:00	2024-11-08T10:00:00	6	Velocidad del viento	11.3
4170	7	Sololá	701	Sololá	2	El tablón	11	Noviembre	2023-11-25T00:00:00	2024-11-08T10:00:00	7	Dirección del viento	11.27
4171	7	Sololá	701	Sololá	2	El tablón	11	Noviembre	2023-11-25T00:00:00	2024-11-08T10:00:00	1	Precipitación	0
4172	7	Sololá	701	Sololá	2	El tablón	11	Noviembre	2023-11-25T00:00:00	2024-11-08T10:00:00	8	Radiación solar	589
4173	7	Sololá	701	Sololá	2	El tablón	11	Noviembre	2023-11-25T00:00:00	2024-11-08T11:00:00	2	Temperatura media	19.2
4174	7	Sololá	701	Sololá	2	El tablón	11	Noviembre	2023-11-25T00:00:00	2024-11-08T11:00:00	4	Temperatura máxima	19.3
4175	7	Sololá	701	Sololá	2	El tablón	11	Noviembre	2023-11-25T00:00:00	2024-11-08T11:00:00	3	Temperatura mínima	18.3
4176	7	Sololá	701	Sololá	2	El tablón	11	Noviembre	2023-11-25T00:00:00	2024-11-08T11:00:00	5	Humedad	68
4177	7	Sololá	701	Sololá	2	El tablón	11	Noviembre	2023-11-25T00:00:00	2024-11-08T11:00:00	6	Velocidad del viento	9.7
4178	7	Sololá	701	Sololá	2	El tablón	11	Noviembre	2023-11-25T00:00:00	2024-11-08T11:00:00	7	Dirección del viento	9.66
4179	7	Sololá	701	Sololá	2	El tablón	11	Noviembre	2023-11-25T00:00:00	2024-11-08T11:00:00	1	Precipitación	0
4180	7	Sololá	701	Sololá	2	El tablón	11	Noviembre	2023-11-25T00:00:00	2024-11-08T11:00:00	8	Radiación solar	711
4181	7	Sololá	701	Sololá	2	El tablón	11	Noviembre	2023-11-25T00:00:00	2024-11-08T12:00:00	2	Temperatura media	19.8
4182	7	Sololá	701	Sololá	2	El tablón	11	Noviembre	2023-11-25T00:00:00	2024-11-08T12:00:00	4	Temperatura máxima	20.1
4183	7	Sololá	701	Sololá	2	El tablón	11	Noviembre	2023-11-25T00:00:00	2024-11-08T12:00:00	3	Temperatura mínima	19.2
4184	7	Sololá	701	Sololá	2	El tablón	11	Noviembre	2023-11-25T00:00:00	2024-11-08T12:00:00	5	Humedad	66
4185	7	Sololá	701	Sololá	2	El tablón	11	Noviembre	2023-11-25T00:00:00	2024-11-08T12:00:00	6	Velocidad del viento	8
4186	7	Sololá	701	Sololá	2	El tablón	11	Noviembre	2023-11-25T00:00:00	2024-11-08T12:00:00	7	Dirección del viento	8.05
4187	7	Sololá	701	Sololá	2	El tablón	11	Noviembre	2023-11-25T00:00:00	2024-11-08T12:00:00	1	Precipitación	0
4188	7	Sololá	701	Sololá	2	El tablón	11	Noviembre	2023-11-25T00:00:00	2024-11-08T12:00:00	8	Radiación solar	721
4189	7	Sololá	701	Sololá	2	El tablón	11	Noviembre	2023-11-25T00:00:00	2024-11-08T13:00:00	2	Temperatura media	19.4
4190	7	Sololá	701	Sololá	2	El tablón	11	Noviembre	2023-11-25T00:00:00	2024-11-08T13:00:00	4	Temperatura máxima	20.1
4191	7	Sololá	701	Sololá	2	El tablón	11	Noviembre	2023-11-25T00:00:00	2024-11-08T13:00:00	3	Temperatura mínima	19.1
4192	7	Sololá	701	Sololá	2	El tablón	11	Noviembre	2023-11-25T00:00:00	2024-11-08T13:00:00	5	Humedad	80
4193	7	Sololá	701	Sololá	2	El tablón	11	Noviembre	2023-11-25T00:00:00	2024-11-08T13:00:00	6	Velocidad del viento	6.4
4194	7	Sololá	701	Sololá	2	El tablón	11	Noviembre	2023-11-25T00:00:00	2024-11-08T13:00:00	7	Dirección del viento	6.44
4195	7	Sololá	701	Sololá	2	El tablón	11	Noviembre	2023-11-25T00:00:00	2024-11-08T13:00:00	1	Precipitación	0
4196	7	Sololá	701	Sololá	2	El tablón	11	Noviembre	2023-11-25T00:00:00	2024-11-08T13:00:00	8	Radiación solar	417
4197	7	Sololá	701	Sololá	2	El tablón	11	Noviembre	2023-11-25T00:00:00	2024-11-08T14:00:00	2	Temperatura media	18.2
4198	7	Sololá	701	Sololá	2	El tablón	11	Noviembre	2023-11-25T00:00:00	2024-11-08T14:00:00	4	Temperatura máxima	19.6
4199	7	Sololá	701	Sololá	2	El tablón	11	Noviembre	2023-11-25T00:00:00	2024-11-08T14:00:00	3	Temperatura mínima	18.2
4200	7	Sololá	701	Sololá	2	El tablón	11	Noviembre	2023-11-25T00:00:00	2024-11-08T14:00:00	5	Humedad	84
4201	7	Sololá	701	Sololá	2	El tablón	11	Noviembre	2023-11-25T00:00:00	2024-11-08T14:00:00	6	Velocidad del viento	4.8
4202	7	Sololá	701	Sololá	2	El tablón	11	Noviembre	2023-11-25T00:00:00	2024-11-08T14:00:00	7	Dirección del viento	4.83
4203	7	Sololá	701	Sololá	2	El tablón	11	Noviembre	2023-11-25T00:00:00	2024-11-08T14:00:00	1	Precipitación	0
4204	7	Sololá	701	Sololá	2	El tablón	11	Noviembre	2023-11-25T00:00:00	2024-11-08T14:00:00	8	Radiación solar	262
4205	7	Sololá	701	Sololá	2	El tablón	11	Noviembre	2023-11-25T00:00:00	2024-11-08T15:00:00	2	Temperatura media	17.9
4206	7	Sololá	701	Sololá	2	El tablón	11	Noviembre	2023-11-25T00:00:00	2024-11-08T15:00:00	4	Temperatura máxima	19.8
4207	7	Sololá	701	Sololá	2	El tablón	11	Noviembre	2023-11-25T00:00:00	2024-11-08T15:00:00	3	Temperatura mínima	17.9
4208	7	Sololá	701	Sololá	2	El tablón	11	Noviembre	2023-11-25T00:00:00	2024-11-08T15:00:00	5	Humedad	85
4209	7	Sololá	701	Sololá	2	El tablón	11	Noviembre	2023-11-25T00:00:00	2024-11-08T15:00:00	6	Velocidad del viento	6.4
4210	7	Sololá	701	Sololá	2	El tablón	11	Noviembre	2023-11-25T00:00:00	2024-11-08T15:00:00	7	Dirección del viento	6.44
4211	7	Sololá	701	Sololá	2	El tablón	11	Noviembre	2023-11-25T00:00:00	2024-11-08T15:00:00	1	Precipitación	0
4212	7	Sololá	701	Sololá	2	El tablón	11	Noviembre	2023-11-25T00:00:00	2024-11-08T15:00:00	8	Radiación solar	476
4213	7	Sololá	701	Sololá	2	El tablón	11	Noviembre	2023-11-25T00:00:00	2024-11-08T16:00:00	2	Temperatura media	18.2
4214	7	Sololá	701	Sololá	2	El tablón	11	Noviembre	2023-11-25T00:00:00	2024-11-08T16:00:00	4	Temperatura máxima	18.2
4215	7	Sololá	701	Sololá	2	El tablón	11	Noviembre	2023-11-25T00:00:00	2024-11-08T16:00:00	3	Temperatura mínima	16.7
4216	7	Sololá	701	Sololá	2	El tablón	11	Noviembre	2023-11-25T00:00:00	2024-11-08T16:00:00	5	Humedad	84
4217	7	Sololá	701	Sololá	2	El tablón	11	Noviembre	2023-11-25T00:00:00	2024-11-08T16:00:00	6	Velocidad del viento	4.8
4218	7	Sololá	701	Sololá	2	El tablón	11	Noviembre	2023-11-25T00:00:00	2024-11-08T16:00:00	7	Dirección del viento	4.83
4219	7	Sololá	701	Sololá	2	El tablón	11	Noviembre	2023-11-25T00:00:00	2024-11-08T16:00:00	1	Precipitación	0
4220	7	Sololá	701	Sololá	2	El tablón	11	Noviembre	2023-11-25T00:00:00	2024-11-08T16:00:00	8	Radiación solar	258
4221	7	Sololá	701	Sololá	2	El tablón	11	Noviembre	2023-11-25T00:00:00	2024-11-08T17:00:00	2	Temperatura media	16.3
4222	7	Sololá	701	Sololá	2	El tablón	11	Noviembre	2023-11-25T00:00:00	2024-11-08T17:00:00	4	Temperatura máxima	18.6
4223	7	Sololá	701	Sololá	2	El tablón	11	Noviembre	2023-11-25T00:00:00	2024-11-08T17:00:00	3	Temperatura mínima	16.3
4224	7	Sololá	701	Sololá	2	El tablón	11	Noviembre	2023-11-25T00:00:00	2024-11-08T17:00:00	5	Humedad	88
4225	7	Sololá	701	Sololá	2	El tablón	11	Noviembre	2023-11-25T00:00:00	2024-11-08T17:00:00	6	Velocidad del viento	3.2
4226	7	Sololá	701	Sololá	2	El tablón	11	Noviembre	2023-11-25T00:00:00	2024-11-08T17:00:00	7	Dirección del viento	3.22
4227	7	Sololá	701	Sololá	2	El tablón	11	Noviembre	2023-11-25T00:00:00	2024-11-08T17:00:00	1	Precipitación	0
4228	7	Sololá	701	Sololá	2	El tablón	11	Noviembre	2023-11-25T00:00:00	2024-11-08T17:00:00	8	Radiación solar	130
4229	7	Sololá	701	Sololá	2	El tablón	11	Noviembre	2023-11-25T00:00:00	2024-11-08T18:00:00	2	Temperatura media	15.3
4230	7	Sololá	701	Sololá	2	El tablón	11	Noviembre	2023-11-25T00:00:00	2024-11-08T18:00:00	4	Temperatura máxima	16.3
4231	7	Sololá	701	Sololá	2	El tablón	11	Noviembre	2023-11-25T00:00:00	2024-11-08T18:00:00	3	Temperatura mínima	15.3
4232	7	Sololá	701	Sololá	2	El tablón	11	Noviembre	2023-11-25T00:00:00	2024-11-08T18:00:00	5	Humedad	85
4233	7	Sololá	701	Sololá	2	El tablón	11	Noviembre	2023-11-25T00:00:00	2024-11-08T18:00:00	6	Velocidad del viento	3.2
4234	7	Sololá	701	Sololá	2	El tablón	11	Noviembre	2023-11-25T00:00:00	2024-11-08T18:00:00	7	Dirección del viento	3.22
4235	7	Sololá	701	Sololá	2	El tablón	11	Noviembre	2023-11-25T00:00:00	2024-11-08T18:00:00	1	Precipitación	0
4236	7	Sololá	701	Sololá	2	El tablón	11	Noviembre	2023-11-25T00:00:00	2024-11-08T18:00:00	8	Radiación solar	8
4237	7	Sololá	701	Sololá	2	El tablón	11	Noviembre	2023-11-25T00:00:00	2024-11-08T19:00:00	2	Temperatura media	14.6
4238	7	Sololá	701	Sololá	2	El tablón	11	Noviembre	2023-11-25T00:00:00	2024-11-08T19:00:00	4	Temperatura máxima	15.3
4239	7	Sololá	701	Sololá	2	El tablón	11	Noviembre	2023-11-25T00:00:00	2024-11-08T19:00:00	3	Temperatura mínima	14.6
4240	7	Sololá	701	Sololá	2	El tablón	11	Noviembre	2023-11-25T00:00:00	2024-11-08T19:00:00	5	Humedad	85
4241	7	Sololá	701	Sololá	2	El tablón	11	Noviembre	2023-11-25T00:00:00	2024-11-08T19:00:00	6	Velocidad del viento	4.8
4242	7	Sololá	701	Sololá	2	El tablón	11	Noviembre	2023-11-25T00:00:00	2024-11-08T19:00:00	7	Dirección del viento	4.83
4243	7	Sololá	701	Sololá	2	El tablón	11	Noviembre	2023-11-25T00:00:00	2024-11-08T19:00:00	1	Precipitación	0
4244	7	Sololá	701	Sololá	2	El tablón	11	Noviembre	2023-11-25T00:00:00	2024-11-08T19:00:00	8	Radiación solar	0
4245	7	Sololá	701	Sololá	2	El tablón	11	Noviembre	2023-11-25T00:00:00	2024-11-08T20:00:00	2	Temperatura media	14.2
4246	7	Sololá	701	Sololá	2	El tablón	11	Noviembre	2023-11-25T00:00:00	2024-11-08T20:00:00	4	Temperatura máxima	14.6
4247	7	Sololá	701	Sololá	2	El tablón	11	Noviembre	2023-11-25T00:00:00	2024-11-08T20:00:00	3	Temperatura mínima	14.1
4248	7	Sololá	701	Sololá	2	El tablón	11	Noviembre	2023-11-25T00:00:00	2024-11-08T20:00:00	5	Humedad	86
4249	7	Sololá	701	Sololá	2	El tablón	11	Noviembre	2023-11-25T00:00:00	2024-11-08T20:00:00	6	Velocidad del viento	6.4
4250	7	Sololá	701	Sololá	2	El tablón	11	Noviembre	2023-11-25T00:00:00	2024-11-08T20:00:00	7	Dirección del viento	6.44
4251	7	Sololá	701	Sololá	2	El tablón	11	Noviembre	2023-11-25T00:00:00	2024-11-08T20:00:00	1	Precipitación	0
4252	7	Sololá	701	Sololá	2	El tablón	11	Noviembre	2023-11-25T00:00:00	2024-11-08T20:00:00	8	Radiación solar	0
4253	7	Sololá	701	Sololá	2	El tablón	11	Noviembre	2023-11-25T00:00:00	2024-11-08T21:00:00	2	Temperatura media	13.7
4254	7	Sololá	701	Sololá	2	El tablón	11	Noviembre	2023-11-25T00:00:00	2024-11-08T21:00:00	4	Temperatura máxima	14.2
4255	7	Sololá	701	Sololá	2	El tablón	11	Noviembre	2023-11-25T00:00:00	2024-11-08T21:00:00	3	Temperatura mínima	13.7
4256	7	Sololá	701	Sololá	2	El tablón	11	Noviembre	2023-11-25T00:00:00	2024-11-08T21:00:00	5	Humedad	87
4257	7	Sololá	701	Sololá	2	El tablón	11	Noviembre	2023-11-25T00:00:00	2024-11-08T21:00:00	6	Velocidad del viento	6.4
4258	7	Sololá	701	Sololá	2	El tablón	11	Noviembre	2023-11-25T00:00:00	2024-11-08T21:00:00	7	Dirección del viento	6.44
4259	7	Sololá	701	Sololá	2	El tablón	11	Noviembre	2023-11-25T00:00:00	2024-11-08T21:00:00	1	Precipitación	0
4260	7	Sololá	701	Sololá	2	El tablón	11	Noviembre	2023-11-25T00:00:00	2024-11-08T21:00:00	8	Radiación solar	0
4261	7	Sololá	701	Sololá	2	El tablón	11	Noviembre	2023-11-25T00:00:00	2024-11-08T22:00:00	2	Temperatura media	13.4
4262	7	Sololá	701	Sololá	2	El tablón	11	Noviembre	2023-11-25T00:00:00	2024-11-08T22:00:00	4	Temperatura máxima	13.7
4263	7	Sololá	701	Sololá	2	El tablón	11	Noviembre	2023-11-25T00:00:00	2024-11-08T22:00:00	3	Temperatura mínima	13.4
4264	7	Sololá	701	Sololá	2	El tablón	11	Noviembre	2023-11-25T00:00:00	2024-11-08T22:00:00	5	Humedad	87
4265	7	Sololá	701	Sololá	2	El tablón	11	Noviembre	2023-11-25T00:00:00	2024-11-08T22:00:00	6	Velocidad del viento	4.8
4266	7	Sololá	701	Sololá	2	El tablón	11	Noviembre	2023-11-25T00:00:00	2024-11-08T22:00:00	7	Dirección del viento	4.83
4267	7	Sololá	701	Sololá	2	El tablón	11	Noviembre	2023-11-25T00:00:00	2024-11-08T22:00:00	1	Precipitación	0
4268	7	Sololá	701	Sololá	2	El tablón	11	Noviembre	2023-11-25T00:00:00	2024-11-08T22:00:00	8	Radiación solar	0
4269	7	Sololá	701	Sololá	2	El tablón	11	Noviembre	2023-11-25T00:00:00	2024-11-08T23:00:00	2	Temperatura media	13.2
4270	7	Sololá	701	Sololá	2	El tablón	11	Noviembre	2023-11-25T00:00:00	2024-11-08T23:00:00	4	Temperatura máxima	13.4
4271	7	Sololá	701	Sololá	2	El tablón	11	Noviembre	2023-11-25T00:00:00	2024-11-08T23:00:00	3	Temperatura mínima	13.1
4272	7	Sololá	701	Sololá	2	El tablón	11	Noviembre	2023-11-25T00:00:00	2024-11-08T23:00:00	5	Humedad	87
4273	7	Sololá	701	Sololá	2	El tablón	11	Noviembre	2023-11-25T00:00:00	2024-11-08T23:00:00	6	Velocidad del viento	4.8
4274	7	Sololá	701	Sololá	2	El tablón	11	Noviembre	2023-11-25T00:00:00	2024-11-08T23:00:00	7	Dirección del viento	4.83
4275	7	Sololá	701	Sololá	2	El tablón	11	Noviembre	2023-11-25T00:00:00	2024-11-08T23:00:00	1	Precipitación	0
4276	7	Sololá	701	Sololá	2	El tablón	11	Noviembre	2023-11-25T00:00:00	2024-11-08T23:00:00	8	Radiación solar	0
4277	7	Sololá	701	Sololá	2	El tablón	11	Noviembre	2023-11-26T00:00:00	2024-11-08T00:00:00	2	Temperatura media	12.8
4278	7	Sololá	701	Sololá	2	El tablón	11	Noviembre	2023-11-26T00:00:00	2024-11-08T00:00:00	4	Temperatura máxima	13.2
4279	7	Sololá	701	Sololá	2	El tablón	11	Noviembre	2023-11-26T00:00:00	2024-11-08T00:00:00	3	Temperatura mínima	12.8
4280	7	Sololá	701	Sololá	2	El tablón	11	Noviembre	2023-11-26T00:00:00	2024-11-08T00:00:00	5	Humedad	87
4281	7	Sololá	701	Sololá	2	El tablón	11	Noviembre	2023-11-26T00:00:00	2024-11-08T00:00:00	6	Velocidad del viento	4.8
4282	7	Sololá	701	Sololá	2	El tablón	11	Noviembre	2023-11-26T00:00:00	2024-11-08T00:00:00	7	Dirección del viento	4.83
4283	7	Sololá	701	Sololá	2	El tablón	11	Noviembre	2023-11-26T00:00:00	2024-11-08T00:00:00	1	Precipitación	0
4284	7	Sololá	701	Sololá	2	El tablón	11	Noviembre	2023-11-26T00:00:00	2024-11-08T00:00:00	8	Radiación solar	0
4285	7	Sololá	701	Sololá	2	El tablón	11	Noviembre	2023-11-26T00:00:00	2024-11-08T01:00:00	2	Temperatura media	12.4
4286	7	Sololá	701	Sololá	2	El tablón	11	Noviembre	2023-11-26T00:00:00	2024-11-08T01:00:00	4	Temperatura máxima	12.9
4287	7	Sololá	701	Sololá	2	El tablón	11	Noviembre	2023-11-26T00:00:00	2024-11-08T01:00:00	3	Temperatura mínima	12.4
4288	7	Sololá	701	Sololá	2	El tablón	11	Noviembre	2023-11-26T00:00:00	2024-11-08T01:00:00	5	Humedad	87
4289	7	Sololá	701	Sololá	2	El tablón	11	Noviembre	2023-11-26T00:00:00	2024-11-08T01:00:00	6	Velocidad del viento	4.8
4290	7	Sololá	701	Sololá	2	El tablón	11	Noviembre	2023-11-26T00:00:00	2024-11-08T01:00:00	7	Dirección del viento	4.83
4291	7	Sololá	701	Sololá	2	El tablón	11	Noviembre	2023-11-26T00:00:00	2024-11-08T01:00:00	1	Precipitación	0
4292	7	Sololá	701	Sololá	2	El tablón	11	Noviembre	2023-11-26T00:00:00	2024-11-08T01:00:00	8	Radiación solar	0
4293	7	Sololá	701	Sololá	2	El tablón	11	Noviembre	2023-11-26T00:00:00	2024-11-08T02:00:00	2	Temperatura media	12.2
4294	7	Sololá	701	Sololá	2	El tablón	11	Noviembre	2023-11-26T00:00:00	2024-11-08T02:00:00	4	Temperatura máxima	12.6
4295	7	Sololá	701	Sololá	2	El tablón	11	Noviembre	2023-11-26T00:00:00	2024-11-08T02:00:00	3	Temperatura mínima	12.2
4296	7	Sololá	701	Sololá	2	El tablón	11	Noviembre	2023-11-26T00:00:00	2024-11-08T02:00:00	5	Humedad	88
4297	7	Sololá	701	Sololá	2	El tablón	11	Noviembre	2023-11-26T00:00:00	2024-11-08T02:00:00	6	Velocidad del viento	6.4
4298	7	Sololá	701	Sololá	2	El tablón	11	Noviembre	2023-11-26T00:00:00	2024-11-08T02:00:00	7	Dirección del viento	6.44
4299	7	Sololá	701	Sololá	2	El tablón	11	Noviembre	2023-11-26T00:00:00	2024-11-08T02:00:00	1	Precipitación	0
4300	7	Sololá	701	Sololá	2	El tablón	11	Noviembre	2023-11-26T00:00:00	2024-11-08T02:00:00	8	Radiación solar	0
4301	7	Sololá	701	Sololá	2	El tablón	11	Noviembre	2023-11-26T00:00:00	2024-11-08T03:00:00	2	Temperatura media	12.3
4302	7	Sololá	701	Sololá	2	El tablón	11	Noviembre	2023-11-26T00:00:00	2024-11-08T03:00:00	4	Temperatura máxima	12.3
4303	7	Sololá	701	Sololá	2	El tablón	11	Noviembre	2023-11-26T00:00:00	2024-11-08T03:00:00	3	Temperatura mínima	12
4304	7	Sololá	701	Sololá	2	El tablón	11	Noviembre	2023-11-26T00:00:00	2024-11-08T03:00:00	5	Humedad	86
4305	7	Sololá	701	Sololá	2	El tablón	11	Noviembre	2023-11-26T00:00:00	2024-11-08T03:00:00	6	Velocidad del viento	4.8
4306	7	Sololá	701	Sololá	2	El tablón	11	Noviembre	2023-11-26T00:00:00	2024-11-08T03:00:00	7	Dirección del viento	4.83
4307	7	Sololá	701	Sololá	2	El tablón	11	Noviembre	2023-11-26T00:00:00	2024-11-08T03:00:00	1	Precipitación	0
4308	7	Sololá	701	Sololá	2	El tablón	11	Noviembre	2023-11-26T00:00:00	2024-11-08T03:00:00	8	Radiación solar	0
4309	7	Sololá	701	Sololá	2	El tablón	11	Noviembre	2023-11-26T00:00:00	2024-11-08T04:00:00	2	Temperatura media	11.5
4310	7	Sololá	701	Sololá	2	El tablón	11	Noviembre	2023-11-26T00:00:00	2024-11-08T04:00:00	4	Temperatura máxima	12.3
4311	7	Sololá	701	Sololá	2	El tablón	11	Noviembre	2023-11-26T00:00:00	2024-11-08T04:00:00	3	Temperatura mínima	11.5
4312	7	Sololá	701	Sololá	2	El tablón	11	Noviembre	2023-11-26T00:00:00	2024-11-08T04:00:00	5	Humedad	88
4313	7	Sololá	701	Sololá	2	El tablón	11	Noviembre	2023-11-26T00:00:00	2024-11-08T04:00:00	6	Velocidad del viento	3.2
4314	7	Sololá	701	Sololá	2	El tablón	11	Noviembre	2023-11-26T00:00:00	2024-11-08T04:00:00	7	Dirección del viento	3.22
4315	7	Sololá	701	Sololá	2	El tablón	11	Noviembre	2023-11-26T00:00:00	2024-11-08T04:00:00	1	Precipitación	0
4316	7	Sololá	701	Sololá	2	El tablón	11	Noviembre	2023-11-26T00:00:00	2024-11-08T04:00:00	8	Radiación solar	0
4317	7	Sololá	701	Sololá	2	El tablón	11	Noviembre	2023-11-26T00:00:00	2024-11-08T05:00:00	2	Temperatura media	11.2
4318	7	Sololá	701	Sololá	2	El tablón	11	Noviembre	2023-11-26T00:00:00	2024-11-08T05:00:00	4	Temperatura máxima	11.7
4319	7	Sololá	701	Sololá	2	El tablón	11	Noviembre	2023-11-26T00:00:00	2024-11-08T05:00:00	3	Temperatura mínima	11.2
4320	7	Sololá	701	Sololá	2	El tablón	11	Noviembre	2023-11-26T00:00:00	2024-11-08T05:00:00	5	Humedad	88
4321	7	Sololá	701	Sololá	2	El tablón	11	Noviembre	2023-11-26T00:00:00	2024-11-08T05:00:00	6	Velocidad del viento	3.2
4322	7	Sololá	701	Sololá	2	El tablón	11	Noviembre	2023-11-26T00:00:00	2024-11-08T05:00:00	7	Dirección del viento	3.22
4323	7	Sololá	701	Sololá	2	El tablón	11	Noviembre	2023-11-26T00:00:00	2024-11-08T05:00:00	1	Precipitación	0
4324	7	Sololá	701	Sololá	2	El tablón	11	Noviembre	2023-11-26T00:00:00	2024-11-08T05:00:00	8	Radiación solar	0
4325	7	Sololá	701	Sololá	2	El tablón	11	Noviembre	2023-11-26T00:00:00	2024-11-08T06:00:00	2	Temperatura media	11.3
4326	7	Sololá	701	Sololá	2	El tablón	11	Noviembre	2023-11-26T00:00:00	2024-11-08T06:00:00	4	Temperatura máxima	11.4
4327	7	Sololá	701	Sololá	2	El tablón	11	Noviembre	2023-11-26T00:00:00	2024-11-08T06:00:00	3	Temperatura mínima	11.1
4328	7	Sololá	701	Sololá	2	El tablón	11	Noviembre	2023-11-26T00:00:00	2024-11-08T06:00:00	5	Humedad	88
4329	7	Sololá	701	Sololá	2	El tablón	11	Noviembre	2023-11-26T00:00:00	2024-11-08T06:00:00	6	Velocidad del viento	4.8
4330	7	Sololá	701	Sololá	2	El tablón	11	Noviembre	2023-11-26T00:00:00	2024-11-08T06:00:00	7	Dirección del viento	4.83
4331	7	Sololá	701	Sololá	2	El tablón	11	Noviembre	2023-11-26T00:00:00	2024-11-08T06:00:00	1	Precipitación	0
4332	7	Sololá	701	Sololá	2	El tablón	11	Noviembre	2023-11-26T00:00:00	2024-11-08T06:00:00	8	Radiación solar	0
4333	7	Sololá	701	Sololá	2	El tablón	11	Noviembre	2023-11-26T00:00:00	2024-11-08T07:00:00	2	Temperatura media	12.6
4334	7	Sololá	701	Sololá	2	El tablón	11	Noviembre	2023-11-26T00:00:00	2024-11-08T07:00:00	4	Temperatura máxima	12.6
4335	7	Sololá	701	Sololá	2	El tablón	11	Noviembre	2023-11-26T00:00:00	2024-11-08T07:00:00	3	Temperatura mínima	11.2
4336	7	Sololá	701	Sololá	2	El tablón	11	Noviembre	2023-11-26T00:00:00	2024-11-08T07:00:00	5	Humedad	85
4337	7	Sololá	701	Sololá	2	El tablón	11	Noviembre	2023-11-26T00:00:00	2024-11-08T07:00:00	6	Velocidad del viento	6.4
4338	7	Sololá	701	Sololá	2	El tablón	11	Noviembre	2023-11-26T00:00:00	2024-11-08T07:00:00	7	Dirección del viento	6.44
4339	7	Sololá	701	Sololá	2	El tablón	11	Noviembre	2023-11-26T00:00:00	2024-11-08T07:00:00	1	Precipitación	0
4340	7	Sololá	701	Sololá	2	El tablón	11	Noviembre	2023-11-26T00:00:00	2024-11-08T07:00:00	8	Radiación solar	31
4341	7	Sololá	701	Sololá	2	El tablón	11	Noviembre	2023-11-26T00:00:00	2024-11-08T08:00:00	2	Temperatura media	14.2
4342	7	Sololá	701	Sololá	2	El tablón	11	Noviembre	2023-11-26T00:00:00	2024-11-08T08:00:00	4	Temperatura máxima	14.2
4343	7	Sololá	701	Sololá	2	El tablón	11	Noviembre	2023-11-26T00:00:00	2024-11-08T08:00:00	3	Temperatura mínima	12.6
4344	7	Sololá	701	Sololá	2	El tablón	11	Noviembre	2023-11-26T00:00:00	2024-11-08T08:00:00	5	Humedad	80
4345	7	Sololá	701	Sololá	2	El tablón	11	Noviembre	2023-11-26T00:00:00	2024-11-08T08:00:00	6	Velocidad del viento	8
4346	7	Sololá	701	Sololá	2	El tablón	11	Noviembre	2023-11-26T00:00:00	2024-11-08T08:00:00	7	Dirección del viento	8.05
4347	7	Sololá	701	Sololá	2	El tablón	11	Noviembre	2023-11-26T00:00:00	2024-11-08T08:00:00	1	Precipitación	0
4348	7	Sololá	701	Sololá	2	El tablón	11	Noviembre	2023-11-26T00:00:00	2024-11-08T08:00:00	8	Radiación solar	188
4349	7	Sololá	701	Sololá	2	El tablón	11	Noviembre	2023-11-26T00:00:00	2024-11-08T09:00:00	2	Temperatura media	16.3
4350	7	Sololá	701	Sololá	2	El tablón	11	Noviembre	2023-11-26T00:00:00	2024-11-08T09:00:00	4	Temperatura máxima	16.3
4351	7	Sololá	701	Sololá	2	El tablón	11	Noviembre	2023-11-26T00:00:00	2024-11-08T09:00:00	3	Temperatura mínima	14.2
4352	7	Sololá	701	Sololá	2	El tablón	11	Noviembre	2023-11-26T00:00:00	2024-11-08T09:00:00	5	Humedad	72
4353	7	Sololá	701	Sololá	2	El tablón	11	Noviembre	2023-11-26T00:00:00	2024-11-08T09:00:00	6	Velocidad del viento	8
4354	7	Sololá	701	Sololá	2	El tablón	11	Noviembre	2023-11-26T00:00:00	2024-11-08T09:00:00	7	Dirección del viento	8.05
4355	7	Sololá	701	Sololá	2	El tablón	11	Noviembre	2023-11-26T00:00:00	2024-11-08T09:00:00	1	Precipitación	0
4356	7	Sololá	701	Sololá	2	El tablón	11	Noviembre	2023-11-26T00:00:00	2024-11-08T09:00:00	8	Radiación solar	406
4357	7	Sololá	701	Sololá	2	El tablón	11	Noviembre	2023-11-26T00:00:00	2024-11-08T10:00:00	2	Temperatura media	18
4358	7	Sololá	701	Sololá	2	El tablón	11	Noviembre	2023-11-26T00:00:00	2024-11-08T10:00:00	4	Temperatura máxima	18.1
4359	7	Sololá	701	Sololá	2	El tablón	11	Noviembre	2023-11-26T00:00:00	2024-11-08T10:00:00	3	Temperatura mínima	16.3
4360	7	Sololá	701	Sololá	2	El tablón	11	Noviembre	2023-11-26T00:00:00	2024-11-08T10:00:00	5	Humedad	62
4361	7	Sololá	701	Sololá	2	El tablón	11	Noviembre	2023-11-26T00:00:00	2024-11-08T10:00:00	6	Velocidad del viento	9.7
4362	7	Sololá	701	Sololá	2	El tablón	11	Noviembre	2023-11-26T00:00:00	2024-11-08T10:00:00	7	Dirección del viento	9.66
4363	7	Sololá	701	Sololá	2	El tablón	11	Noviembre	2023-11-26T00:00:00	2024-11-08T10:00:00	1	Precipitación	0
4364	7	Sololá	701	Sololá	2	El tablón	11	Noviembre	2023-11-26T00:00:00	2024-11-08T10:00:00	8	Radiación solar	613
4365	7	Sololá	701	Sololá	2	El tablón	11	Noviembre	2023-11-26T00:00:00	2024-11-08T11:00:00	2	Temperatura media	18.6
4366	7	Sololá	701	Sololá	2	El tablón	11	Noviembre	2023-11-26T00:00:00	2024-11-08T11:00:00	4	Temperatura máxima	19
4367	7	Sololá	701	Sololá	2	El tablón	11	Noviembre	2023-11-26T00:00:00	2024-11-08T11:00:00	3	Temperatura mínima	17.9
4368	7	Sololá	701	Sololá	2	El tablón	11	Noviembre	2023-11-26T00:00:00	2024-11-08T11:00:00	5	Humedad	63
4369	7	Sololá	701	Sololá	2	El tablón	11	Noviembre	2023-11-26T00:00:00	2024-11-08T11:00:00	6	Velocidad del viento	9.7
4370	7	Sololá	701	Sololá	2	El tablón	11	Noviembre	2023-11-26T00:00:00	2024-11-08T11:00:00	7	Dirección del viento	9.66
4371	7	Sololá	701	Sololá	2	El tablón	11	Noviembre	2023-11-26T00:00:00	2024-11-08T11:00:00	1	Precipitación	0
4372	7	Sololá	701	Sololá	2	El tablón	11	Noviembre	2023-11-26T00:00:00	2024-11-08T11:00:00	8	Radiación solar	726
4373	7	Sololá	701	Sololá	2	El tablón	11	Noviembre	2023-11-26T00:00:00	2024-11-08T12:00:00	2	Temperatura media	19.5
4374	7	Sololá	701	Sololá	2	El tablón	11	Noviembre	2023-11-26T00:00:00	2024-11-08T12:00:00	4	Temperatura máxima	20
4375	7	Sololá	701	Sololá	2	El tablón	11	Noviembre	2023-11-26T00:00:00	2024-11-08T12:00:00	3	Temperatura mínima	18.6
4376	7	Sololá	701	Sololá	2	El tablón	11	Noviembre	2023-11-26T00:00:00	2024-11-08T12:00:00	5	Humedad	61
4377	7	Sololá	701	Sololá	2	El tablón	11	Noviembre	2023-11-26T00:00:00	2024-11-08T12:00:00	6	Velocidad del viento	8
4378	7	Sololá	701	Sololá	2	El tablón	11	Noviembre	2023-11-26T00:00:00	2024-11-08T12:00:00	7	Dirección del viento	8.05
4379	7	Sololá	701	Sololá	2	El tablón	11	Noviembre	2023-11-26T00:00:00	2024-11-08T12:00:00	1	Precipitación	0
4380	7	Sololá	701	Sololá	2	El tablón	11	Noviembre	2023-11-26T00:00:00	2024-11-08T12:00:00	8	Radiación solar	746
4381	7	Sololá	701	Sololá	2	El tablón	11	Noviembre	2023-11-26T00:00:00	2024-11-08T13:00:00	2	Temperatura media	18.4
4382	7	Sololá	701	Sololá	2	El tablón	11	Noviembre	2023-11-26T00:00:00	2024-11-08T13:00:00	4	Temperatura máxima	19.5
4383	7	Sololá	701	Sololá	2	El tablón	11	Noviembre	2023-11-26T00:00:00	2024-11-08T13:00:00	3	Temperatura mínima	18.2
4384	7	Sololá	701	Sololá	2	El tablón	11	Noviembre	2023-11-26T00:00:00	2024-11-08T13:00:00	5	Humedad	64
4385	7	Sololá	701	Sololá	2	El tablón	11	Noviembre	2023-11-26T00:00:00	2024-11-08T13:00:00	6	Velocidad del viento	6.4
4386	7	Sololá	701	Sololá	2	El tablón	11	Noviembre	2023-11-26T00:00:00	2024-11-08T13:00:00	7	Dirección del viento	6.44
4387	7	Sololá	701	Sololá	2	El tablón	11	Noviembre	2023-11-26T00:00:00	2024-11-08T13:00:00	1	Precipitación	0
4388	7	Sololá	701	Sololá	2	El tablón	11	Noviembre	2023-11-26T00:00:00	2024-11-08T13:00:00	8	Radiación solar	229
4389	7	Sololá	701	Sololá	2	El tablón	11	Noviembre	2023-11-26T00:00:00	2024-11-08T14:00:00	2	Temperatura media	19.1
4390	7	Sololá	701	Sololá	2	El tablón	11	Noviembre	2023-11-26T00:00:00	2024-11-08T14:00:00	4	Temperatura máxima	19.1
4391	7	Sololá	701	Sololá	2	El tablón	11	Noviembre	2023-11-26T00:00:00	2024-11-08T14:00:00	3	Temperatura mínima	17.9
4392	7	Sololá	701	Sololá	2	El tablón	11	Noviembre	2023-11-26T00:00:00	2024-11-08T14:00:00	5	Humedad	60
4393	7	Sololá	701	Sololá	2	El tablón	11	Noviembre	2023-11-26T00:00:00	2024-11-08T14:00:00	6	Velocidad del viento	6.4
4394	7	Sololá	701	Sololá	2	El tablón	11	Noviembre	2023-11-26T00:00:00	2024-11-08T14:00:00	7	Dirección del viento	6.44
4395	7	Sololá	701	Sololá	2	El tablón	11	Noviembre	2023-11-26T00:00:00	2024-11-08T14:00:00	1	Precipitación	0
4396	7	Sololá	701	Sololá	2	El tablón	11	Noviembre	2023-11-26T00:00:00	2024-11-08T14:00:00	8	Radiación solar	376
4397	7	Sololá	701	Sololá	2	El tablón	11	Noviembre	2023-11-26T00:00:00	2024-11-08T15:00:00	2	Temperatura media	18.1
4398	7	Sololá	701	Sololá	2	El tablón	11	Noviembre	2023-11-26T00:00:00	2024-11-08T15:00:00	4	Temperatura máxima	19.3
4399	7	Sololá	701	Sololá	2	El tablón	11	Noviembre	2023-11-26T00:00:00	2024-11-08T15:00:00	3	Temperatura mínima	18.1
4400	7	Sololá	701	Sololá	2	El tablón	11	Noviembre	2023-11-26T00:00:00	2024-11-08T15:00:00	5	Humedad	59
4401	7	Sololá	701	Sololá	2	El tablón	11	Noviembre	2023-11-26T00:00:00	2024-11-08T15:00:00	6	Velocidad del viento	4.8
4402	7	Sololá	701	Sololá	2	El tablón	11	Noviembre	2023-11-26T00:00:00	2024-11-08T15:00:00	7	Dirección del viento	4.83
4403	7	Sololá	701	Sololá	2	El tablón	11	Noviembre	2023-11-26T00:00:00	2024-11-08T15:00:00	1	Precipitación	0
4404	7	Sololá	701	Sololá	2	El tablón	11	Noviembre	2023-11-26T00:00:00	2024-11-08T15:00:00	8	Radiación solar	166
4405	7	Sololá	701	Sololá	2	El tablón	11	Noviembre	2023-11-26T00:00:00	2024-11-08T16:00:00	2	Temperatura media	18.2
4406	7	Sololá	701	Sololá	2	El tablón	11	Noviembre	2023-11-26T00:00:00	2024-11-08T16:00:00	4	Temperatura máxima	18.7
4407	7	Sololá	701	Sololá	2	El tablón	11	Noviembre	2023-11-26T00:00:00	2024-11-08T16:00:00	3	Temperatura mínima	17.6
4408	7	Sololá	701	Sololá	2	El tablón	11	Noviembre	2023-11-26T00:00:00	2024-11-08T16:00:00	5	Humedad	61
4409	7	Sololá	701	Sololá	2	El tablón	11	Noviembre	2023-11-26T00:00:00	2024-11-08T16:00:00	6	Velocidad del viento	6.4
4410	7	Sololá	701	Sololá	2	El tablón	11	Noviembre	2023-11-26T00:00:00	2024-11-08T16:00:00	7	Dirección del viento	6.44
4411	7	Sololá	701	Sololá	2	El tablón	11	Noviembre	2023-11-26T00:00:00	2024-11-08T16:00:00	1	Precipitación	0
4412	7	Sololá	701	Sololá	2	El tablón	11	Noviembre	2023-11-26T00:00:00	2024-11-08T16:00:00	8	Radiación solar	247
4413	7	Sololá	701	Sololá	2	El tablón	11	Noviembre	2023-11-26T00:00:00	2024-11-08T17:00:00	2	Temperatura media	17
4414	7	Sololá	701	Sololá	2	El tablón	11	Noviembre	2023-11-26T00:00:00	2024-11-08T17:00:00	4	Temperatura máxima	18.4
4415	7	Sololá	701	Sololá	2	El tablón	11	Noviembre	2023-11-26T00:00:00	2024-11-08T17:00:00	3	Temperatura mínima	17
4416	7	Sololá	701	Sololá	2	El tablón	11	Noviembre	2023-11-26T00:00:00	2024-11-08T17:00:00	5	Humedad	68
4417	7	Sololá	701	Sololá	2	El tablón	11	Noviembre	2023-11-26T00:00:00	2024-11-08T17:00:00	6	Velocidad del viento	8
4418	7	Sololá	701	Sololá	2	El tablón	11	Noviembre	2023-11-26T00:00:00	2024-11-08T17:00:00	7	Dirección del viento	8.05
4419	7	Sololá	701	Sololá	2	El tablón	11	Noviembre	2023-11-26T00:00:00	2024-11-08T17:00:00	1	Precipitación	0
4420	7	Sololá	701	Sololá	2	El tablón	11	Noviembre	2023-11-26T00:00:00	2024-11-08T17:00:00	8	Radiación solar	171
4421	7	Sololá	701	Sololá	2	El tablón	11	Noviembre	2023-11-26T00:00:00	2024-11-08T18:00:00	2	Temperatura media	15.1
4422	7	Sololá	701	Sololá	2	El tablón	11	Noviembre	2023-11-26T00:00:00	2024-11-08T18:00:00	4	Temperatura máxima	17
4423	7	Sololá	701	Sololá	2	El tablón	11	Noviembre	2023-11-26T00:00:00	2024-11-08T18:00:00	3	Temperatura mínima	15.1
4424	7	Sololá	701	Sololá	2	El tablón	11	Noviembre	2023-11-26T00:00:00	2024-11-08T18:00:00	5	Humedad	78
4425	7	Sololá	701	Sololá	2	El tablón	11	Noviembre	2023-11-26T00:00:00	2024-11-08T18:00:00	6	Velocidad del viento	4.8
4426	7	Sololá	701	Sololá	2	El tablón	11	Noviembre	2023-11-26T00:00:00	2024-11-08T18:00:00	7	Dirección del viento	4.83
4427	7	Sololá	701	Sololá	2	El tablón	11	Noviembre	2023-11-26T00:00:00	2024-11-08T18:00:00	1	Precipitación	0
4428	7	Sololá	701	Sololá	2	El tablón	11	Noviembre	2023-11-26T00:00:00	2024-11-08T18:00:00	8	Radiación solar	17
4429	7	Sololá	701	Sololá	2	El tablón	11	Noviembre	2023-11-26T00:00:00	2024-11-08T19:00:00	2	Temperatura media	14.4
4430	7	Sololá	701	Sololá	2	El tablón	11	Noviembre	2023-11-26T00:00:00	2024-11-08T19:00:00	4	Temperatura máxima	15.1
4431	7	Sololá	701	Sololá	2	El tablón	11	Noviembre	2023-11-26T00:00:00	2024-11-08T19:00:00	3	Temperatura mínima	14.4
4432	7	Sololá	701	Sololá	2	El tablón	11	Noviembre	2023-11-26T00:00:00	2024-11-08T19:00:00	5	Humedad	83
4433	7	Sololá	701	Sololá	2	El tablón	11	Noviembre	2023-11-26T00:00:00	2024-11-08T19:00:00	6	Velocidad del viento	4.8
4434	7	Sololá	701	Sololá	2	El tablón	11	Noviembre	2023-11-26T00:00:00	2024-11-08T19:00:00	7	Dirección del viento	4.83
4435	7	Sololá	701	Sololá	2	El tablón	11	Noviembre	2023-11-26T00:00:00	2024-11-08T19:00:00	1	Precipitación	0
4436	7	Sololá	701	Sololá	2	El tablón	11	Noviembre	2023-11-26T00:00:00	2024-11-08T19:00:00	8	Radiación solar	0
4437	7	Sololá	701	Sololá	2	El tablón	11	Noviembre	2023-11-26T00:00:00	2024-11-08T20:00:00	2	Temperatura media	14.2
4438	7	Sololá	701	Sololá	2	El tablón	11	Noviembre	2023-11-26T00:00:00	2024-11-08T20:00:00	4	Temperatura máxima	14.5
4439	7	Sololá	701	Sololá	2	El tablón	11	Noviembre	2023-11-26T00:00:00	2024-11-08T20:00:00	3	Temperatura mínima	14.2
4440	7	Sololá	701	Sololá	2	El tablón	11	Noviembre	2023-11-26T00:00:00	2024-11-08T20:00:00	5	Humedad	87
4441	7	Sololá	701	Sololá	2	El tablón	11	Noviembre	2023-11-26T00:00:00	2024-11-08T20:00:00	6	Velocidad del viento	12.9
4442	7	Sololá	701	Sololá	2	El tablón	11	Noviembre	2023-11-26T00:00:00	2024-11-08T20:00:00	7	Dirección del viento	12.87
4443	7	Sololá	701	Sololá	2	El tablón	11	Noviembre	2023-11-26T00:00:00	2024-11-08T20:00:00	1	Precipitación	0
4444	7	Sololá	701	Sololá	2	El tablón	11	Noviembre	2023-11-26T00:00:00	2024-11-08T20:00:00	8	Radiación solar	0
4445	7	Sololá	701	Sololá	2	El tablón	11	Noviembre	2023-11-26T00:00:00	2024-11-08T21:00:00	2	Temperatura media	13.8
4446	7	Sololá	701	Sololá	2	El tablón	11	Noviembre	2023-11-26T00:00:00	2024-11-08T21:00:00	4	Temperatura máxima	14.2
4447	7	Sololá	701	Sololá	2	El tablón	11	Noviembre	2023-11-26T00:00:00	2024-11-08T21:00:00	3	Temperatura mínima	13.8
4448	7	Sololá	701	Sololá	2	El tablón	11	Noviembre	2023-11-26T00:00:00	2024-11-08T21:00:00	5	Humedad	87
4449	7	Sololá	701	Sololá	2	El tablón	11	Noviembre	2023-11-26T00:00:00	2024-11-08T21:00:00	6	Velocidad del viento	12.9
4450	7	Sololá	701	Sololá	2	El tablón	11	Noviembre	2023-11-26T00:00:00	2024-11-08T21:00:00	7	Dirección del viento	12.87
4451	7	Sololá	701	Sololá	2	El tablón	11	Noviembre	2023-11-26T00:00:00	2024-11-08T21:00:00	1	Precipitación	0
4452	7	Sololá	701	Sololá	2	El tablón	11	Noviembre	2023-11-26T00:00:00	2024-11-08T21:00:00	8	Radiación solar	0
4453	7	Sololá	701	Sololá	2	El tablón	11	Noviembre	2023-11-26T00:00:00	2024-11-08T22:00:00	2	Temperatura media	13
4454	7	Sololá	701	Sololá	2	El tablón	11	Noviembre	2023-11-26T00:00:00	2024-11-08T22:00:00	4	Temperatura máxima	13.8
4455	7	Sololá	701	Sololá	2	El tablón	11	Noviembre	2023-11-26T00:00:00	2024-11-08T22:00:00	3	Temperatura mínima	13
4456	7	Sololá	701	Sololá	2	El tablón	11	Noviembre	2023-11-26T00:00:00	2024-11-08T22:00:00	5	Humedad	87
4457	7	Sololá	701	Sololá	2	El tablón	11	Noviembre	2023-11-26T00:00:00	2024-11-08T22:00:00	6	Velocidad del viento	12.9
4458	7	Sololá	701	Sololá	2	El tablón	11	Noviembre	2023-11-26T00:00:00	2024-11-08T22:00:00	7	Dirección del viento	12.87
4459	7	Sololá	701	Sololá	2	El tablón	11	Noviembre	2023-11-26T00:00:00	2024-11-08T22:00:00	1	Precipitación	0
4460	7	Sololá	701	Sololá	2	El tablón	11	Noviembre	2023-11-26T00:00:00	2024-11-08T22:00:00	8	Radiación solar	0
4461	7	Sololá	701	Sololá	2	El tablón	11	Noviembre	2023-11-26T00:00:00	2024-11-08T23:00:00	2	Temperatura media	12.7
4462	7	Sololá	701	Sololá	2	El tablón	11	Noviembre	2023-11-26T00:00:00	2024-11-08T23:00:00	4	Temperatura máxima	13
4463	7	Sololá	701	Sololá	2	El tablón	11	Noviembre	2023-11-26T00:00:00	2024-11-08T23:00:00	3	Temperatura mínima	12.7
4464	7	Sololá	701	Sololá	2	El tablón	11	Noviembre	2023-11-26T00:00:00	2024-11-08T23:00:00	5	Humedad	85
4465	7	Sololá	701	Sololá	2	El tablón	11	Noviembre	2023-11-26T00:00:00	2024-11-08T23:00:00	6	Velocidad del viento	11.3
4466	7	Sololá	701	Sololá	2	El tablón	11	Noviembre	2023-11-26T00:00:00	2024-11-08T23:00:00	7	Dirección del viento	11.27
4467	7	Sololá	701	Sololá	2	El tablón	11	Noviembre	2023-11-26T00:00:00	2024-11-08T23:00:00	1	Precipitación	0
4468	7	Sololá	701	Sololá	2	El tablón	11	Noviembre	2023-11-26T00:00:00	2024-11-08T23:00:00	8	Radiación solar	0
4469	7	Sololá	701	Sololá	2	El tablón	11	Noviembre	2023-11-27T00:00:00	2024-11-08T00:00:00	2	Temperatura media	12.1
4470	7	Sololá	701	Sololá	2	El tablón	11	Noviembre	2023-11-27T00:00:00	2024-11-08T00:00:00	4	Temperatura máxima	12.7
4471	7	Sololá	701	Sololá	2	El tablón	11	Noviembre	2023-11-27T00:00:00	2024-11-08T00:00:00	3	Temperatura mínima	12.1
4472	7	Sololá	701	Sololá	2	El tablón	11	Noviembre	2023-11-27T00:00:00	2024-11-08T00:00:00	5	Humedad	87
4473	7	Sololá	701	Sololá	2	El tablón	11	Noviembre	2023-11-27T00:00:00	2024-11-08T00:00:00	6	Velocidad del viento	12.9
4474	7	Sololá	701	Sololá	2	El tablón	11	Noviembre	2023-11-27T00:00:00	2024-11-08T00:00:00	7	Dirección del viento	12.87
4475	7	Sololá	701	Sololá	2	El tablón	11	Noviembre	2023-11-27T00:00:00	2024-11-08T00:00:00	1	Precipitación	0
4476	7	Sololá	701	Sololá	2	El tablón	11	Noviembre	2023-11-27T00:00:00	2024-11-08T00:00:00	8	Radiación solar	0
4477	7	Sololá	701	Sololá	2	El tablón	11	Noviembre	2023-11-27T00:00:00	2024-11-08T01:00:00	2	Temperatura media	12
4478	7	Sololá	701	Sololá	2	El tablón	11	Noviembre	2023-11-27T00:00:00	2024-11-08T01:00:00	4	Temperatura máxima	12.2
4479	7	Sololá	701	Sololá	2	El tablón	11	Noviembre	2023-11-27T00:00:00	2024-11-08T01:00:00	3	Temperatura mínima	12
4480	7	Sololá	701	Sololá	2	El tablón	11	Noviembre	2023-11-27T00:00:00	2024-11-08T01:00:00	5	Humedad	85
4481	7	Sololá	701	Sololá	2	El tablón	11	Noviembre	2023-11-27T00:00:00	2024-11-08T01:00:00	6	Velocidad del viento	14.5
4482	7	Sololá	701	Sololá	2	El tablón	11	Noviembre	2023-11-27T00:00:00	2024-11-08T01:00:00	7	Dirección del viento	14.48
4483	7	Sololá	701	Sololá	2	El tablón	11	Noviembre	2023-11-27T00:00:00	2024-11-08T01:00:00	1	Precipitación	0
4484	7	Sololá	701	Sololá	2	El tablón	11	Noviembre	2023-11-27T00:00:00	2024-11-08T01:00:00	8	Radiación solar	0
4485	7	Sololá	701	Sololá	2	El tablón	11	Noviembre	2023-11-27T00:00:00	2024-11-08T02:00:00	2	Temperatura media	11.9
4486	7	Sololá	701	Sololá	2	El tablón	11	Noviembre	2023-11-27T00:00:00	2024-11-08T02:00:00	4	Temperatura máxima	12.1
4487	7	Sololá	701	Sololá	2	El tablón	11	Noviembre	2023-11-27T00:00:00	2024-11-08T02:00:00	3	Temperatura mínima	11.7
4488	7	Sololá	701	Sololá	2	El tablón	11	Noviembre	2023-11-27T00:00:00	2024-11-08T02:00:00	5	Humedad	83
4489	7	Sololá	701	Sololá	2	El tablón	11	Noviembre	2023-11-27T00:00:00	2024-11-08T02:00:00	6	Velocidad del viento	12.9
4490	7	Sololá	701	Sololá	2	El tablón	11	Noviembre	2023-11-27T00:00:00	2024-11-08T02:00:00	7	Dirección del viento	12.87
4491	7	Sololá	701	Sololá	2	El tablón	11	Noviembre	2023-11-27T00:00:00	2024-11-08T02:00:00	1	Precipitación	0
4492	7	Sololá	701	Sololá	2	El tablón	11	Noviembre	2023-11-27T00:00:00	2024-11-08T02:00:00	8	Radiación solar	0
4493	7	Sololá	701	Sololá	2	El tablón	11	Noviembre	2023-11-27T00:00:00	2024-11-08T03:00:00	2	Temperatura media	12
4494	7	Sololá	701	Sololá	2	El tablón	11	Noviembre	2023-11-27T00:00:00	2024-11-08T03:00:00	4	Temperatura máxima	12
4495	7	Sololá	701	Sololá	2	El tablón	11	Noviembre	2023-11-27T00:00:00	2024-11-08T03:00:00	3	Temperatura mínima	11.8
4496	7	Sololá	701	Sololá	2	El tablón	11	Noviembre	2023-11-27T00:00:00	2024-11-08T03:00:00	5	Humedad	84
4497	7	Sololá	701	Sololá	2	El tablón	11	Noviembre	2023-11-27T00:00:00	2024-11-08T03:00:00	6	Velocidad del viento	14.5
4498	7	Sololá	701	Sololá	2	El tablón	11	Noviembre	2023-11-27T00:00:00	2024-11-08T03:00:00	7	Dirección del viento	14.48
4499	7	Sololá	701	Sololá	2	El tablón	11	Noviembre	2023-11-27T00:00:00	2024-11-08T03:00:00	1	Precipitación	0
4500	7	Sololá	701	Sololá	2	El tablón	11	Noviembre	2023-11-27T00:00:00	2024-11-08T03:00:00	8	Radiación solar	0
4501	7	Sololá	701	Sololá	2	El tablón	11	Noviembre	2023-11-27T00:00:00	2024-11-08T04:00:00	2	Temperatura media	12.1
4502	7	Sololá	701	Sololá	2	El tablón	11	Noviembre	2023-11-27T00:00:00	2024-11-08T04:00:00	4	Temperatura máxima	12.2
4503	7	Sololá	701	Sololá	2	El tablón	11	Noviembre	2023-11-27T00:00:00	2024-11-08T04:00:00	3	Temperatura mínima	12
4504	7	Sololá	701	Sololá	2	El tablón	11	Noviembre	2023-11-27T00:00:00	2024-11-08T04:00:00	5	Humedad	82
4505	7	Sololá	701	Sololá	2	El tablón	11	Noviembre	2023-11-27T00:00:00	2024-11-08T04:00:00	6	Velocidad del viento	14.5
4506	7	Sololá	701	Sololá	2	El tablón	11	Noviembre	2023-11-27T00:00:00	2024-11-08T04:00:00	7	Dirección del viento	14.48
4507	7	Sololá	701	Sololá	2	El tablón	11	Noviembre	2023-11-27T00:00:00	2024-11-08T04:00:00	1	Precipitación	0
4508	7	Sololá	701	Sololá	2	El tablón	11	Noviembre	2023-11-27T00:00:00	2024-11-08T04:00:00	8	Radiación solar	0
4509	7	Sololá	701	Sololá	2	El tablón	11	Noviembre	2023-11-27T00:00:00	2024-11-08T05:00:00	2	Temperatura media	12.1
4510	7	Sololá	701	Sololá	2	El tablón	11	Noviembre	2023-11-27T00:00:00	2024-11-08T05:00:00	4	Temperatura máxima	12.2
4511	7	Sololá	701	Sololá	2	El tablón	11	Noviembre	2023-11-27T00:00:00	2024-11-08T05:00:00	3	Temperatura mínima	12
4512	7	Sololá	701	Sololá	2	El tablón	11	Noviembre	2023-11-27T00:00:00	2024-11-08T05:00:00	5	Humedad	74
4513	7	Sololá	701	Sololá	2	El tablón	11	Noviembre	2023-11-27T00:00:00	2024-11-08T05:00:00	6	Velocidad del viento	12.9
4514	7	Sololá	701	Sololá	2	El tablón	11	Noviembre	2023-11-27T00:00:00	2024-11-08T05:00:00	7	Dirección del viento	12.87
4515	7	Sololá	701	Sololá	2	El tablón	11	Noviembre	2023-11-27T00:00:00	2024-11-08T05:00:00	1	Precipitación	0
4516	7	Sololá	701	Sololá	2	El tablón	11	Noviembre	2023-11-27T00:00:00	2024-11-08T05:00:00	8	Radiación solar	0
4517	7	Sololá	701	Sololá	2	El tablón	11	Noviembre	2023-11-27T00:00:00	2024-11-08T06:00:00	2	Temperatura media	11.6
4518	7	Sololá	701	Sololá	2	El tablón	11	Noviembre	2023-11-27T00:00:00	2024-11-08T06:00:00	4	Temperatura máxima	12.1
4519	7	Sololá	701	Sololá	2	El tablón	11	Noviembre	2023-11-27T00:00:00	2024-11-08T06:00:00	3	Temperatura mínima	11.6
4520	7	Sololá	701	Sololá	2	El tablón	11	Noviembre	2023-11-27T00:00:00	2024-11-08T06:00:00	5	Humedad	81
4521	7	Sololá	701	Sololá	2	El tablón	11	Noviembre	2023-11-27T00:00:00	2024-11-08T06:00:00	6	Velocidad del viento	16.1
4522	7	Sololá	701	Sololá	2	El tablón	11	Noviembre	2023-11-27T00:00:00	2024-11-08T06:00:00	7	Dirección del viento	16.09
4523	7	Sololá	701	Sololá	2	El tablón	11	Noviembre	2023-11-27T00:00:00	2024-11-08T06:00:00	1	Precipitación	0
4524	7	Sololá	701	Sololá	2	El tablón	11	Noviembre	2023-11-27T00:00:00	2024-11-08T06:00:00	8	Radiación solar	0
4525	7	Sololá	701	Sololá	2	El tablón	11	Noviembre	2023-11-27T00:00:00	2024-11-08T07:00:00	2	Temperatura media	12.1
4526	7	Sololá	701	Sololá	2	El tablón	11	Noviembre	2023-11-27T00:00:00	2024-11-08T07:00:00	4	Temperatura máxima	12.1
4527	7	Sololá	701	Sololá	2	El tablón	11	Noviembre	2023-11-27T00:00:00	2024-11-08T07:00:00	3	Temperatura mínima	11.4
4528	7	Sololá	701	Sololá	2	El tablón	11	Noviembre	2023-11-27T00:00:00	2024-11-08T07:00:00	5	Humedad	84
4529	7	Sololá	701	Sololá	2	El tablón	11	Noviembre	2023-11-27T00:00:00	2024-11-08T07:00:00	6	Velocidad del viento	16.1
4530	7	Sololá	701	Sololá	2	El tablón	11	Noviembre	2023-11-27T00:00:00	2024-11-08T07:00:00	7	Dirección del viento	16.09
4531	7	Sololá	701	Sololá	2	El tablón	11	Noviembre	2023-11-27T00:00:00	2024-11-08T07:00:00	1	Precipitación	0
4532	7	Sololá	701	Sololá	2	El tablón	11	Noviembre	2023-11-27T00:00:00	2024-11-08T07:00:00	8	Radiación solar	24
4533	7	Sololá	701	Sololá	2	El tablón	11	Noviembre	2023-11-27T00:00:00	2024-11-08T08:00:00	2	Temperatura media	13.3
4534	7	Sololá	701	Sololá	2	El tablón	11	Noviembre	2023-11-27T00:00:00	2024-11-08T08:00:00	4	Temperatura máxima	13.4
4535	7	Sololá	701	Sololá	2	El tablón	11	Noviembre	2023-11-27T00:00:00	2024-11-08T08:00:00	3	Temperatura mínima	12.1
4536	7	Sololá	701	Sololá	2	El tablón	11	Noviembre	2023-11-27T00:00:00	2024-11-08T08:00:00	5	Humedad	82
4537	7	Sololá	701	Sololá	2	El tablón	11	Noviembre	2023-11-27T00:00:00	2024-11-08T08:00:00	6	Velocidad del viento	17.7
4538	7	Sololá	701	Sololá	2	El tablón	11	Noviembre	2023-11-27T00:00:00	2024-11-08T08:00:00	7	Dirección del viento	17.7
4539	7	Sololá	701	Sololá	2	El tablón	11	Noviembre	2023-11-27T00:00:00	2024-11-08T08:00:00	1	Precipitación	0
4540	7	Sololá	701	Sololá	2	El tablón	11	Noviembre	2023-11-27T00:00:00	2024-11-08T08:00:00	8	Radiación solar	189
4541	7	Sololá	701	Sololá	2	El tablón	11	Noviembre	2023-11-27T00:00:00	2024-11-08T09:00:00	2	Temperatura media	14
4542	7	Sololá	701	Sololá	2	El tablón	11	Noviembre	2023-11-27T00:00:00	2024-11-08T09:00:00	4	Temperatura máxima	14
4543	7	Sololá	701	Sololá	2	El tablón	11	Noviembre	2023-11-27T00:00:00	2024-11-08T09:00:00	3	Temperatura mínima	13.3
4544	7	Sololá	701	Sololá	2	El tablón	11	Noviembre	2023-11-27T00:00:00	2024-11-08T09:00:00	5	Humedad	83
4545	7	Sololá	701	Sololá	2	El tablón	11	Noviembre	2023-11-27T00:00:00	2024-11-08T09:00:00	6	Velocidad del viento	22.5
4546	7	Sololá	701	Sololá	2	El tablón	11	Noviembre	2023-11-27T00:00:00	2024-11-08T09:00:00	7	Dirección del viento	22.53
4547	7	Sololá	701	Sololá	2	El tablón	11	Noviembre	2023-11-27T00:00:00	2024-11-08T09:00:00	1	Precipitación	0
4548	7	Sololá	701	Sololá	2	El tablón	11	Noviembre	2023-11-27T00:00:00	2024-11-08T09:00:00	8	Radiación solar	417
4549	7	Sololá	701	Sololá	2	El tablón	11	Noviembre	2023-11-27T00:00:00	2024-11-08T10:00:00	2	Temperatura media	15.1
4550	7	Sololá	701	Sololá	2	El tablón	11	Noviembre	2023-11-27T00:00:00	2024-11-08T10:00:00	4	Temperatura máxima	15.1
4551	7	Sololá	701	Sololá	2	El tablón	11	Noviembre	2023-11-27T00:00:00	2024-11-08T10:00:00	3	Temperatura mínima	13.8
4552	7	Sololá	701	Sololá	2	El tablón	11	Noviembre	2023-11-27T00:00:00	2024-11-08T10:00:00	5	Humedad	81
4553	7	Sololá	701	Sololá	2	El tablón	11	Noviembre	2023-11-27T00:00:00	2024-11-08T10:00:00	6	Velocidad del viento	20.9
4554	7	Sololá	701	Sololá	2	El tablón	11	Noviembre	2023-11-27T00:00:00	2024-11-08T10:00:00	7	Dirección del viento	20.92
4555	7	Sololá	701	Sololá	2	El tablón	11	Noviembre	2023-11-27T00:00:00	2024-11-08T10:00:00	1	Precipitación	0
4556	7	Sololá	701	Sololá	2	El tablón	11	Noviembre	2023-11-27T00:00:00	2024-11-08T10:00:00	8	Radiación solar	597
4557	7	Sololá	701	Sololá	2	El tablón	11	Noviembre	2023-11-27T00:00:00	2024-11-08T11:00:00	2	Temperatura media	15.1
4558	7	Sololá	701	Sololá	2	El tablón	11	Noviembre	2023-11-27T00:00:00	2024-11-08T11:00:00	4	Temperatura máxima	16.1
4559	7	Sololá	701	Sololá	2	El tablón	11	Noviembre	2023-11-27T00:00:00	2024-11-08T11:00:00	3	Temperatura mínima	14.9
4560	7	Sololá	701	Sololá	2	El tablón	11	Noviembre	2023-11-27T00:00:00	2024-11-08T11:00:00	5	Humedad	80
4561	7	Sololá	701	Sololá	2	El tablón	11	Noviembre	2023-11-27T00:00:00	2024-11-08T11:00:00	6	Velocidad del viento	17.7
4562	7	Sololá	701	Sololá	2	El tablón	11	Noviembre	2023-11-27T00:00:00	2024-11-08T11:00:00	7	Dirección del viento	17.7
4563	7	Sololá	701	Sololá	2	El tablón	11	Noviembre	2023-11-27T00:00:00	2024-11-08T11:00:00	1	Precipitación	0
4564	7	Sololá	701	Sololá	2	El tablón	11	Noviembre	2023-11-27T00:00:00	2024-11-08T11:00:00	8	Radiación solar	645
4565	7	Sololá	701	Sololá	2	El tablón	11	Noviembre	2023-11-27T00:00:00	2024-11-08T12:00:00	2	Temperatura media	16.4
4566	7	Sololá	701	Sololá	2	El tablón	11	Noviembre	2023-11-27T00:00:00	2024-11-08T12:00:00	4	Temperatura máxima	16.4
4567	7	Sololá	701	Sololá	2	El tablón	11	Noviembre	2023-11-27T00:00:00	2024-11-08T12:00:00	3	Temperatura mínima	14.8
4568	7	Sololá	701	Sololá	2	El tablón	11	Noviembre	2023-11-27T00:00:00	2024-11-08T12:00:00	5	Humedad	78
4569	7	Sololá	701	Sololá	2	El tablón	11	Noviembre	2023-11-27T00:00:00	2024-11-08T12:00:00	6	Velocidad del viento	12.9
4570	7	Sololá	701	Sololá	2	El tablón	11	Noviembre	2023-11-27T00:00:00	2024-11-08T12:00:00	7	Dirección del viento	12.87
4571	7	Sololá	701	Sololá	2	El tablón	11	Noviembre	2023-11-27T00:00:00	2024-11-08T12:00:00	1	Precipitación	0
4572	7	Sololá	701	Sololá	2	El tablón	11	Noviembre	2023-11-27T00:00:00	2024-11-08T12:00:00	8	Radiación solar	352
4573	7	Sololá	701	Sololá	2	El tablón	11	Noviembre	2023-11-27T00:00:00	2024-11-08T13:00:00	2	Temperatura media	16.8
4574	7	Sololá	701	Sololá	2	El tablón	11	Noviembre	2023-11-27T00:00:00	2024-11-08T13:00:00	4	Temperatura máxima	16.8
4575	7	Sololá	701	Sololá	2	El tablón	11	Noviembre	2023-11-27T00:00:00	2024-11-08T13:00:00	3	Temperatura mínima	16.2
4576	7	Sololá	701	Sololá	2	El tablón	11	Noviembre	2023-11-27T00:00:00	2024-11-08T13:00:00	5	Humedad	78
4577	7	Sololá	701	Sololá	2	El tablón	11	Noviembre	2023-11-27T00:00:00	2024-11-08T13:00:00	6	Velocidad del viento	19.3
4578	7	Sololá	701	Sololá	2	El tablón	11	Noviembre	2023-11-27T00:00:00	2024-11-08T13:00:00	7	Dirección del viento	19.31
4579	7	Sololá	701	Sololá	2	El tablón	11	Noviembre	2023-11-27T00:00:00	2024-11-08T13:00:00	1	Precipitación	0
4580	7	Sololá	701	Sololá	2	El tablón	11	Noviembre	2023-11-27T00:00:00	2024-11-08T13:00:00	8	Radiación solar	824
4581	7	Sololá	701	Sololá	2	El tablón	11	Noviembre	2023-11-27T00:00:00	2024-11-08T14:00:00	2	Temperatura media	16.6
4582	7	Sololá	701	Sololá	2	El tablón	11	Noviembre	2023-11-27T00:00:00	2024-11-08T14:00:00	4	Temperatura máxima	16.8
4583	7	Sololá	701	Sololá	2	El tablón	11	Noviembre	2023-11-27T00:00:00	2024-11-08T14:00:00	3	Temperatura mínima	16.3
4584	7	Sololá	701	Sololá	2	El tablón	11	Noviembre	2023-11-27T00:00:00	2024-11-08T14:00:00	5	Humedad	79
4585	7	Sololá	701	Sololá	2	El tablón	11	Noviembre	2023-11-27T00:00:00	2024-11-08T14:00:00	6	Velocidad del viento	16.1
4586	7	Sololá	701	Sololá	2	El tablón	11	Noviembre	2023-11-27T00:00:00	2024-11-08T14:00:00	7	Dirección del viento	16.09
4587	7	Sololá	701	Sololá	2	El tablón	11	Noviembre	2023-11-27T00:00:00	2024-11-08T14:00:00	1	Precipitación	0
4588	7	Sololá	701	Sololá	2	El tablón	11	Noviembre	2023-11-27T00:00:00	2024-11-08T14:00:00	8	Radiación solar	750
4589	7	Sololá	701	Sololá	2	El tablón	11	Noviembre	2023-11-27T00:00:00	2024-11-08T15:00:00	2	Temperatura media	16.1
4590	7	Sololá	701	Sololá	2	El tablón	11	Noviembre	2023-11-27T00:00:00	2024-11-08T15:00:00	4	Temperatura máxima	17.1
4591	7	Sololá	701	Sololá	2	El tablón	11	Noviembre	2023-11-27T00:00:00	2024-11-08T15:00:00	3	Temperatura mínima	15.2
4592	7	Sololá	701	Sololá	2	El tablón	11	Noviembre	2023-11-27T00:00:00	2024-11-08T15:00:00	5	Humedad	78
4593	7	Sololá	701	Sololá	2	El tablón	11	Noviembre	2023-11-27T00:00:00	2024-11-08T15:00:00	6	Velocidad del viento	11.3
4594	7	Sololá	701	Sololá	2	El tablón	11	Noviembre	2023-11-27T00:00:00	2024-11-08T15:00:00	7	Dirección del viento	11.27
4595	7	Sololá	701	Sololá	2	El tablón	11	Noviembre	2023-11-27T00:00:00	2024-11-08T15:00:00	1	Precipitación	0
4596	7	Sololá	701	Sololá	2	El tablón	11	Noviembre	2023-11-27T00:00:00	2024-11-08T15:00:00	8	Radiación solar	328
4597	7	Sololá	701	Sololá	2	El tablón	11	Noviembre	2023-11-27T00:00:00	2024-11-08T16:00:00	2	Temperatura media	16.3
4598	7	Sololá	701	Sololá	2	El tablón	11	Noviembre	2023-11-27T00:00:00	2024-11-08T16:00:00	4	Temperatura máxima	16.9
4599	7	Sololá	701	Sololá	2	El tablón	11	Noviembre	2023-11-27T00:00:00	2024-11-08T16:00:00	3	Temperatura mínima	15.5
4600	7	Sololá	701	Sololá	2	El tablón	11	Noviembre	2023-11-27T00:00:00	2024-11-08T16:00:00	5	Humedad	74
4601	7	Sololá	701	Sololá	2	El tablón	11	Noviembre	2023-11-27T00:00:00	2024-11-08T16:00:00	6	Velocidad del viento	8
4602	7	Sololá	701	Sololá	2	El tablón	11	Noviembre	2023-11-27T00:00:00	2024-11-08T16:00:00	7	Dirección del viento	8.05
4603	7	Sololá	701	Sololá	2	El tablón	11	Noviembre	2023-11-27T00:00:00	2024-11-08T16:00:00	1	Precipitación	0
4604	7	Sololá	701	Sololá	2	El tablón	11	Noviembre	2023-11-27T00:00:00	2024-11-08T16:00:00	8	Radiación solar	260
4605	7	Sololá	701	Sololá	2	El tablón	11	Noviembre	2023-11-27T00:00:00	2024-11-08T17:00:00	2	Temperatura media	15.3
4606	7	Sololá	701	Sololá	2	El tablón	11	Noviembre	2023-11-27T00:00:00	2024-11-08T17:00:00	4	Temperatura máxima	16.6
4607	7	Sololá	701	Sololá	2	El tablón	11	Noviembre	2023-11-27T00:00:00	2024-11-08T17:00:00	3	Temperatura mínima	15.3
4608	7	Sololá	701	Sololá	2	El tablón	11	Noviembre	2023-11-27T00:00:00	2024-11-08T17:00:00	5	Humedad	78
4609	7	Sololá	701	Sololá	2	El tablón	11	Noviembre	2023-11-27T00:00:00	2024-11-08T17:00:00	6	Velocidad del viento	9.7
4610	7	Sololá	701	Sololá	2	El tablón	11	Noviembre	2023-11-27T00:00:00	2024-11-08T17:00:00	7	Dirección del viento	9.66
4611	7	Sololá	701	Sololá	2	El tablón	11	Noviembre	2023-11-27T00:00:00	2024-11-08T17:00:00	1	Precipitación	0
4612	7	Sololá	701	Sololá	2	El tablón	11	Noviembre	2023-11-27T00:00:00	2024-11-08T17:00:00	8	Radiación solar	193
4613	7	Sololá	701	Sololá	2	El tablón	11	Noviembre	2023-11-27T00:00:00	2024-11-08T18:00:00	2	Temperatura media	13.9
4614	7	Sololá	701	Sololá	2	El tablón	11	Noviembre	2023-11-27T00:00:00	2024-11-08T18:00:00	4	Temperatura máxima	15.3
4615	7	Sololá	701	Sololá	2	El tablón	11	Noviembre	2023-11-27T00:00:00	2024-11-08T18:00:00	3	Temperatura mínima	13.9
4616	7	Sololá	701	Sololá	2	El tablón	11	Noviembre	2023-11-27T00:00:00	2024-11-08T18:00:00	5	Humedad	84
4617	7	Sololá	701	Sololá	2	El tablón	11	Noviembre	2023-11-27T00:00:00	2024-11-08T18:00:00	6	Velocidad del viento	9.7
4618	7	Sololá	701	Sololá	2	El tablón	11	Noviembre	2023-11-27T00:00:00	2024-11-08T18:00:00	7	Dirección del viento	9.66
4619	7	Sololá	701	Sololá	2	El tablón	11	Noviembre	2023-11-27T00:00:00	2024-11-08T18:00:00	1	Precipitación	0
4620	7	Sololá	701	Sololá	2	El tablón	11	Noviembre	2023-11-27T00:00:00	2024-11-08T18:00:00	8	Radiación solar	14
4621	7	Sololá	701	Sololá	2	El tablón	11	Noviembre	2023-11-27T00:00:00	2024-11-08T19:00:00	2	Temperatura media	13.1
4622	7	Sololá	701	Sololá	2	El tablón	11	Noviembre	2023-11-27T00:00:00	2024-11-08T19:00:00	4	Temperatura máxima	13.9
4623	7	Sololá	701	Sololá	2	El tablón	11	Noviembre	2023-11-27T00:00:00	2024-11-08T19:00:00	3	Temperatura mínima	13.1
4624	7	Sololá	701	Sololá	2	El tablón	11	Noviembre	2023-11-27T00:00:00	2024-11-08T19:00:00	5	Humedad	86
4625	7	Sololá	701	Sololá	2	El tablón	11	Noviembre	2023-11-27T00:00:00	2024-11-08T19:00:00	6	Velocidad del viento	12.9
4626	7	Sololá	701	Sololá	2	El tablón	11	Noviembre	2023-11-27T00:00:00	2024-11-08T19:00:00	7	Dirección del viento	12.87
4627	7	Sololá	701	Sololá	2	El tablón	11	Noviembre	2023-11-27T00:00:00	2024-11-08T19:00:00	1	Precipitación	0
4628	7	Sololá	701	Sololá	2	El tablón	11	Noviembre	2023-11-27T00:00:00	2024-11-08T19:00:00	8	Radiación solar	0
4629	7	Sololá	701	Sololá	2	El tablón	11	Noviembre	2023-11-27T00:00:00	2024-11-08T20:00:00	2	Temperatura media	12.7
4630	7	Sololá	701	Sololá	2	El tablón	11	Noviembre	2023-11-27T00:00:00	2024-11-08T20:00:00	4	Temperatura máxima	13.1
4631	7	Sololá	701	Sololá	2	El tablón	11	Noviembre	2023-11-27T00:00:00	2024-11-08T20:00:00	3	Temperatura mínima	12.7
4632	7	Sololá	701	Sololá	2	El tablón	11	Noviembre	2023-11-27T00:00:00	2024-11-08T20:00:00	5	Humedad	85
4633	7	Sololá	701	Sololá	2	El tablón	11	Noviembre	2023-11-27T00:00:00	2024-11-08T20:00:00	6	Velocidad del viento	12.9
4634	7	Sololá	701	Sololá	2	El tablón	11	Noviembre	2023-11-27T00:00:00	2024-11-08T20:00:00	7	Dirección del viento	12.87
4635	7	Sololá	701	Sololá	2	El tablón	11	Noviembre	2023-11-27T00:00:00	2024-11-08T20:00:00	1	Precipitación	0
4636	7	Sololá	701	Sololá	2	El tablón	11	Noviembre	2023-11-27T00:00:00	2024-11-08T20:00:00	8	Radiación solar	0
4637	7	Sololá	701	Sololá	2	El tablón	11	Noviembre	2023-11-27T00:00:00	2024-11-08T21:00:00	2	Temperatura media	12.6
4638	7	Sololá	701	Sololá	2	El tablón	11	Noviembre	2023-11-27T00:00:00	2024-11-08T21:00:00	4	Temperatura máxima	13.1
4639	7	Sololá	701	Sololá	2	El tablón	11	Noviembre	2023-11-27T00:00:00	2024-11-08T21:00:00	3	Temperatura mínima	12.6
4640	7	Sololá	701	Sololá	2	El tablón	11	Noviembre	2023-11-27T00:00:00	2024-11-08T21:00:00	5	Humedad	85
4641	7	Sololá	701	Sololá	2	El tablón	11	Noviembre	2023-11-27T00:00:00	2024-11-08T21:00:00	6	Velocidad del viento	11.3
4642	7	Sololá	701	Sololá	2	El tablón	11	Noviembre	2023-11-27T00:00:00	2024-11-08T21:00:00	7	Dirección del viento	11.27
4643	7	Sololá	701	Sololá	2	El tablón	11	Noviembre	2023-11-27T00:00:00	2024-11-08T21:00:00	1	Precipitación	0
4644	7	Sololá	701	Sololá	2	El tablón	11	Noviembre	2023-11-27T00:00:00	2024-11-08T21:00:00	8	Radiación solar	0
4645	7	Sololá	701	Sololá	2	El tablón	11	Noviembre	2023-11-27T00:00:00	2024-11-08T22:00:00	2	Temperatura media	12.7
4646	7	Sololá	701	Sololá	2	El tablón	11	Noviembre	2023-11-27T00:00:00	2024-11-08T22:00:00	4	Temperatura máxima	12.7
4647	7	Sololá	701	Sololá	2	El tablón	11	Noviembre	2023-11-27T00:00:00	2024-11-08T22:00:00	3	Temperatura mínima	12.6
4648	7	Sololá	701	Sololá	2	El tablón	11	Noviembre	2023-11-27T00:00:00	2024-11-08T22:00:00	5	Humedad	84
4649	7	Sololá	701	Sololá	2	El tablón	11	Noviembre	2023-11-27T00:00:00	2024-11-08T22:00:00	6	Velocidad del viento	14.5
4650	7	Sololá	701	Sololá	2	El tablón	11	Noviembre	2023-11-27T00:00:00	2024-11-08T22:00:00	7	Dirección del viento	14.48
4651	7	Sololá	701	Sololá	2	El tablón	11	Noviembre	2023-11-27T00:00:00	2024-11-08T22:00:00	1	Precipitación	0
4652	7	Sololá	701	Sololá	2	El tablón	11	Noviembre	2023-11-27T00:00:00	2024-11-08T22:00:00	8	Radiación solar	0
4653	7	Sololá	701	Sololá	2	El tablón	11	Noviembre	2023-11-27T00:00:00	2024-11-08T23:00:00	2	Temperatura media	12.8
4654	7	Sololá	701	Sololá	2	El tablón	11	Noviembre	2023-11-27T00:00:00	2024-11-08T23:00:00	4	Temperatura máxima	12.8
4655	7	Sololá	701	Sololá	2	El tablón	11	Noviembre	2023-11-27T00:00:00	2024-11-08T23:00:00	3	Temperatura mínima	12.7
4656	7	Sololá	701	Sololá	2	El tablón	11	Noviembre	2023-11-27T00:00:00	2024-11-08T23:00:00	5	Humedad	81
4657	7	Sololá	701	Sololá	2	El tablón	11	Noviembre	2023-11-27T00:00:00	2024-11-08T23:00:00	6	Velocidad del viento	9.7
4658	7	Sololá	701	Sololá	2	El tablón	11	Noviembre	2023-11-27T00:00:00	2024-11-08T23:00:00	7	Dirección del viento	9.66
4659	7	Sololá	701	Sololá	2	El tablón	11	Noviembre	2023-11-27T00:00:00	2024-11-08T23:00:00	1	Precipitación	0
4660	7	Sololá	701	Sololá	2	El tablón	11	Noviembre	2023-11-27T00:00:00	2024-11-08T23:00:00	8	Radiación solar	0
4661	7	Sololá	701	Sololá	2	El tablón	11	Noviembre	2023-11-28T00:00:00	2024-11-08T00:00:00	2	Temperatura media	13.1
4662	7	Sololá	701	Sololá	2	El tablón	11	Noviembre	2023-11-28T00:00:00	2024-11-08T00:00:00	4	Temperatura máxima	13.1
4663	7	Sololá	701	Sololá	2	El tablón	11	Noviembre	2023-11-28T00:00:00	2024-11-08T00:00:00	3	Temperatura mínima	12.8
4664	7	Sololá	701	Sololá	2	El tablón	11	Noviembre	2023-11-28T00:00:00	2024-11-08T00:00:00	5	Humedad	82
4665	7	Sololá	701	Sololá	2	El tablón	11	Noviembre	2023-11-28T00:00:00	2024-11-08T00:00:00	6	Velocidad del viento	11.3
4666	7	Sololá	701	Sololá	2	El tablón	11	Noviembre	2023-11-28T00:00:00	2024-11-08T00:00:00	7	Dirección del viento	11.27
4667	7	Sololá	701	Sololá	2	El tablón	11	Noviembre	2023-11-28T00:00:00	2024-11-08T00:00:00	1	Precipitación	0
4668	7	Sololá	701	Sololá	2	El tablón	11	Noviembre	2023-11-28T00:00:00	2024-11-08T00:00:00	8	Radiación solar	0
4669	7	Sololá	701	Sololá	2	El tablón	11	Noviembre	2023-11-28T00:00:00	2024-11-08T01:00:00	2	Temperatura media	12.4
4670	7	Sololá	701	Sololá	2	El tablón	11	Noviembre	2023-11-28T00:00:00	2024-11-08T01:00:00	4	Temperatura máxima	13
4671	7	Sololá	701	Sololá	2	El tablón	11	Noviembre	2023-11-28T00:00:00	2024-11-08T01:00:00	3	Temperatura mínima	12.3
4672	7	Sololá	701	Sololá	2	El tablón	11	Noviembre	2023-11-28T00:00:00	2024-11-08T01:00:00	5	Humedad	85
4673	7	Sololá	701	Sololá	2	El tablón	11	Noviembre	2023-11-28T00:00:00	2024-11-08T01:00:00	6	Velocidad del viento	9.7
4674	7	Sololá	701	Sololá	2	El tablón	11	Noviembre	2023-11-28T00:00:00	2024-11-08T01:00:00	7	Dirección del viento	9.66
4675	7	Sololá	701	Sololá	2	El tablón	11	Noviembre	2023-11-28T00:00:00	2024-11-08T01:00:00	1	Precipitación	0
4676	7	Sololá	701	Sololá	2	El tablón	11	Noviembre	2023-11-28T00:00:00	2024-11-08T01:00:00	8	Radiación solar	0
4677	7	Sololá	701	Sololá	2	El tablón	11	Noviembre	2023-11-28T00:00:00	2024-11-08T02:00:00	2	Temperatura media	12.7
4678	7	Sololá	701	Sololá	2	El tablón	11	Noviembre	2023-11-28T00:00:00	2024-11-08T02:00:00	4	Temperatura máxima	12.7
4679	7	Sololá	701	Sololá	2	El tablón	11	Noviembre	2023-11-28T00:00:00	2024-11-08T02:00:00	3	Temperatura mínima	12.3
4680	7	Sololá	701	Sololá	2	El tablón	11	Noviembre	2023-11-28T00:00:00	2024-11-08T02:00:00	5	Humedad	85
4681	7	Sololá	701	Sololá	2	El tablón	11	Noviembre	2023-11-28T00:00:00	2024-11-08T02:00:00	6	Velocidad del viento	9.7
4682	7	Sololá	701	Sololá	2	El tablón	11	Noviembre	2023-11-28T00:00:00	2024-11-08T02:00:00	7	Dirección del viento	9.66
4683	7	Sololá	701	Sololá	2	El tablón	11	Noviembre	2023-11-28T00:00:00	2024-11-08T02:00:00	1	Precipitación	0
4684	7	Sololá	701	Sololá	2	El tablón	11	Noviembre	2023-11-28T00:00:00	2024-11-08T02:00:00	8	Radiación solar	0
4685	7	Sololá	701	Sololá	2	El tablón	11	Noviembre	2023-11-28T00:00:00	2024-11-08T03:00:00	2	Temperatura media	12.7
4686	7	Sololá	701	Sololá	2	El tablón	11	Noviembre	2023-11-28T00:00:00	2024-11-08T03:00:00	4	Temperatura máxima	12.8
4687	7	Sololá	701	Sololá	2	El tablón	11	Noviembre	2023-11-28T00:00:00	2024-11-08T03:00:00	3	Temperatura mínima	12.6
4688	7	Sololá	701	Sololá	2	El tablón	11	Noviembre	2023-11-28T00:00:00	2024-11-08T03:00:00	5	Humedad	85
4689	7	Sololá	701	Sololá	2	El tablón	11	Noviembre	2023-11-28T00:00:00	2024-11-08T03:00:00	6	Velocidad del viento	6.4
4690	7	Sololá	701	Sololá	2	El tablón	11	Noviembre	2023-11-28T00:00:00	2024-11-08T03:00:00	7	Dirección del viento	6.44
4691	7	Sololá	701	Sololá	2	El tablón	11	Noviembre	2023-11-28T00:00:00	2024-11-08T03:00:00	1	Precipitación	0
4692	7	Sololá	701	Sololá	2	El tablón	11	Noviembre	2023-11-28T00:00:00	2024-11-08T03:00:00	8	Radiación solar	0
4693	7	Sololá	701	Sololá	2	El tablón	11	Noviembre	2023-11-28T00:00:00	2024-11-08T04:00:00	2	Temperatura media	12.8
4694	7	Sololá	701	Sololá	2	El tablón	11	Noviembre	2023-11-28T00:00:00	2024-11-08T04:00:00	4	Temperatura máxima	12.8
4695	7	Sololá	701	Sololá	2	El tablón	11	Noviembre	2023-11-28T00:00:00	2024-11-08T04:00:00	3	Temperatura mínima	12.4
4696	7	Sololá	701	Sololá	2	El tablón	11	Noviembre	2023-11-28T00:00:00	2024-11-08T04:00:00	5	Humedad	86
4697	7	Sololá	701	Sololá	2	El tablón	11	Noviembre	2023-11-28T00:00:00	2024-11-08T04:00:00	6	Velocidad del viento	9.7
4698	7	Sololá	701	Sololá	2	El tablón	11	Noviembre	2023-11-28T00:00:00	2024-11-08T04:00:00	7	Dirección del viento	9.66
4699	7	Sololá	701	Sololá	2	El tablón	11	Noviembre	2023-11-28T00:00:00	2024-11-08T04:00:00	1	Precipitación	0
4700	7	Sololá	701	Sololá	2	El tablón	11	Noviembre	2023-11-28T00:00:00	2024-11-08T04:00:00	8	Radiación solar	0
4701	7	Sololá	701	Sololá	2	El tablón	11	Noviembre	2023-11-28T00:00:00	2024-11-08T05:00:00	2	Temperatura media	13.2
4702	7	Sololá	701	Sololá	2	El tablón	11	Noviembre	2023-11-28T00:00:00	2024-11-08T05:00:00	4	Temperatura máxima	13.2
4703	7	Sololá	701	Sololá	2	El tablón	11	Noviembre	2023-11-28T00:00:00	2024-11-08T05:00:00	3	Temperatura mínima	12.7
4704	7	Sololá	701	Sololá	2	El tablón	11	Noviembre	2023-11-28T00:00:00	2024-11-08T05:00:00	5	Humedad	85
4705	7	Sololá	701	Sololá	2	El tablón	11	Noviembre	2023-11-28T00:00:00	2024-11-08T05:00:00	6	Velocidad del viento	9.7
4706	7	Sololá	701	Sololá	2	El tablón	11	Noviembre	2023-11-28T00:00:00	2024-11-08T05:00:00	7	Dirección del viento	9.66
4707	7	Sololá	701	Sololá	2	El tablón	11	Noviembre	2023-11-28T00:00:00	2024-11-08T05:00:00	1	Precipitación	0
4708	7	Sololá	701	Sololá	2	El tablón	11	Noviembre	2023-11-28T00:00:00	2024-11-08T05:00:00	8	Radiación solar	0
4709	7	Sololá	701	Sololá	2	El tablón	11	Noviembre	2023-11-28T00:00:00	2024-11-08T06:00:00	2	Temperatura media	13.4
4710	7	Sololá	701	Sololá	2	El tablón	11	Noviembre	2023-11-28T00:00:00	2024-11-08T06:00:00	4	Temperatura máxima	13.4
4711	7	Sololá	701	Sololá	2	El tablón	11	Noviembre	2023-11-28T00:00:00	2024-11-08T06:00:00	3	Temperatura mínima	13.2
4712	7	Sololá	701	Sololá	2	El tablón	11	Noviembre	2023-11-28T00:00:00	2024-11-08T06:00:00	5	Humedad	86
4713	7	Sololá	701	Sololá	2	El tablón	11	Noviembre	2023-11-28T00:00:00	2024-11-08T06:00:00	6	Velocidad del viento	17.7
4714	7	Sololá	701	Sololá	2	El tablón	11	Noviembre	2023-11-28T00:00:00	2024-11-08T06:00:00	7	Dirección del viento	17.7
4715	7	Sololá	701	Sololá	2	El tablón	11	Noviembre	2023-11-28T00:00:00	2024-11-08T06:00:00	1	Precipitación	0
4716	7	Sololá	701	Sololá	2	El tablón	11	Noviembre	2023-11-28T00:00:00	2024-11-08T06:00:00	8	Radiación solar	0
4717	7	Sololá	701	Sololá	2	El tablón	11	Noviembre	2023-11-28T00:00:00	2024-11-08T07:00:00	2	Temperatura media	13.9
4718	7	Sololá	701	Sololá	2	El tablón	11	Noviembre	2023-11-28T00:00:00	2024-11-08T07:00:00	4	Temperatura máxima	13.9
4719	7	Sololá	701	Sololá	2	El tablón	11	Noviembre	2023-11-28T00:00:00	2024-11-08T07:00:00	3	Temperatura mínima	13.3
4720	7	Sololá	701	Sololá	2	El tablón	11	Noviembre	2023-11-28T00:00:00	2024-11-08T07:00:00	5	Humedad	85
4721	7	Sololá	701	Sololá	2	El tablón	11	Noviembre	2023-11-28T00:00:00	2024-11-08T07:00:00	6	Velocidad del viento	17.7
4722	7	Sololá	701	Sololá	2	El tablón	11	Noviembre	2023-11-28T00:00:00	2024-11-08T07:00:00	7	Dirección del viento	17.7
4723	7	Sololá	701	Sololá	2	El tablón	11	Noviembre	2023-11-28T00:00:00	2024-11-08T07:00:00	1	Precipitación	0
4724	7	Sololá	701	Sololá	2	El tablón	11	Noviembre	2023-11-28T00:00:00	2024-11-08T07:00:00	8	Radiación solar	32
4725	7	Sololá	701	Sololá	2	El tablón	11	Noviembre	2023-11-28T00:00:00	2024-11-08T08:00:00	2	Temperatura media	14.6
4726	7	Sololá	701	Sololá	2	El tablón	11	Noviembre	2023-11-28T00:00:00	2024-11-08T08:00:00	4	Temperatura máxima	14.7
4727	7	Sololá	701	Sololá	2	El tablón	11	Noviembre	2023-11-28T00:00:00	2024-11-08T08:00:00	3	Temperatura mínima	13.9
4728	7	Sololá	701	Sololá	2	El tablón	11	Noviembre	2023-11-28T00:00:00	2024-11-08T08:00:00	5	Humedad	84
4729	7	Sololá	701	Sololá	2	El tablón	11	Noviembre	2023-11-28T00:00:00	2024-11-08T08:00:00	6	Velocidad del viento	20.9
4730	7	Sololá	701	Sololá	2	El tablón	11	Noviembre	2023-11-28T00:00:00	2024-11-08T08:00:00	7	Dirección del viento	20.92
4731	7	Sololá	701	Sololá	2	El tablón	11	Noviembre	2023-11-28T00:00:00	2024-11-08T08:00:00	1	Precipitación	0
4732	7	Sololá	701	Sololá	2	El tablón	11	Noviembre	2023-11-28T00:00:00	2024-11-08T08:00:00	8	Radiación solar	192
4733	7	Sololá	701	Sololá	2	El tablón	11	Noviembre	2023-11-28T00:00:00	2024-11-08T09:00:00	2	Temperatura media	15.7
4734	7	Sololá	701	Sololá	2	El tablón	11	Noviembre	2023-11-28T00:00:00	2024-11-08T09:00:00	4	Temperatura máxima	15.7
4735	7	Sololá	701	Sololá	2	El tablón	11	Noviembre	2023-11-28T00:00:00	2024-11-08T09:00:00	3	Temperatura mínima	14.7
4736	7	Sololá	701	Sololá	2	El tablón	11	Noviembre	2023-11-28T00:00:00	2024-11-08T09:00:00	5	Humedad	82
4737	7	Sololá	701	Sololá	2	El tablón	11	Noviembre	2023-11-28T00:00:00	2024-11-08T09:00:00	6	Velocidad del viento	20.9
4738	7	Sololá	701	Sololá	2	El tablón	11	Noviembre	2023-11-28T00:00:00	2024-11-08T09:00:00	7	Dirección del viento	20.92
4739	7	Sololá	701	Sololá	2	El tablón	11	Noviembre	2023-11-28T00:00:00	2024-11-08T09:00:00	1	Precipitación	0
4740	7	Sololá	701	Sololá	2	El tablón	11	Noviembre	2023-11-28T00:00:00	2024-11-08T09:00:00	8	Radiación solar	424
4741	7	Sololá	701	Sololá	2	El tablón	11	Noviembre	2023-11-28T00:00:00	2024-11-08T10:00:00	2	Temperatura media	16.3
4742	7	Sololá	701	Sololá	2	El tablón	11	Noviembre	2023-11-28T00:00:00	2024-11-08T10:00:00	4	Temperatura máxima	16.6
4743	7	Sololá	701	Sololá	2	El tablón	11	Noviembre	2023-11-28T00:00:00	2024-11-08T10:00:00	3	Temperatura mínima	15.3
4744	7	Sololá	701	Sololá	2	El tablón	11	Noviembre	2023-11-28T00:00:00	2024-11-08T10:00:00	5	Humedad	79
4745	7	Sololá	701	Sololá	2	El tablón	11	Noviembre	2023-11-28T00:00:00	2024-11-08T10:00:00	6	Velocidad del viento	20.9
4746	7	Sololá	701	Sololá	2	El tablón	11	Noviembre	2023-11-28T00:00:00	2024-11-08T10:00:00	7	Dirección del viento	20.92
4747	7	Sololá	701	Sololá	2	El tablón	11	Noviembre	2023-11-28T00:00:00	2024-11-08T10:00:00	1	Precipitación	0
4748	7	Sololá	701	Sololá	2	El tablón	11	Noviembre	2023-11-28T00:00:00	2024-11-08T10:00:00	8	Radiación solar	589
4749	7	Sololá	701	Sololá	2	El tablón	11	Noviembre	2023-11-28T00:00:00	2024-11-08T11:00:00	2	Temperatura media	16.4
4750	7	Sololá	701	Sololá	2	El tablón	11	Noviembre	2023-11-28T00:00:00	2024-11-08T11:00:00	4	Temperatura máxima	16.5
4751	7	Sololá	701	Sololá	2	El tablón	11	Noviembre	2023-11-28T00:00:00	2024-11-08T11:00:00	3	Temperatura mínima	15.4
4752	7	Sololá	701	Sololá	2	El tablón	11	Noviembre	2023-11-28T00:00:00	2024-11-08T11:00:00	5	Humedad	79
4753	7	Sololá	701	Sololá	2	El tablón	11	Noviembre	2023-11-28T00:00:00	2024-11-08T11:00:00	6	Velocidad del viento	17.7
4754	7	Sololá	701	Sololá	2	El tablón	11	Noviembre	2023-11-28T00:00:00	2024-11-08T11:00:00	7	Dirección del viento	17.7
4755	7	Sololá	701	Sololá	2	El tablón	11	Noviembre	2023-11-28T00:00:00	2024-11-08T11:00:00	1	Precipitación	0
4756	7	Sololá	701	Sololá	2	El tablón	11	Noviembre	2023-11-28T00:00:00	2024-11-08T11:00:00	8	Radiación solar	488
4757	7	Sololá	701	Sololá	2	El tablón	11	Noviembre	2023-11-28T00:00:00	2024-11-08T12:00:00	2	Temperatura media	17.2
4758	7	Sololá	701	Sololá	2	El tablón	11	Noviembre	2023-11-28T00:00:00	2024-11-08T12:00:00	4	Temperatura máxima	17.6
4759	7	Sololá	701	Sololá	2	El tablón	11	Noviembre	2023-11-28T00:00:00	2024-11-08T12:00:00	3	Temperatura mínima	16.4
4760	7	Sololá	701	Sololá	2	El tablón	11	Noviembre	2023-11-28T00:00:00	2024-11-08T12:00:00	5	Humedad	79
4761	7	Sololá	701	Sololá	2	El tablón	11	Noviembre	2023-11-28T00:00:00	2024-11-08T12:00:00	6	Velocidad del viento	16.1
4762	7	Sololá	701	Sololá	2	El tablón	11	Noviembre	2023-11-28T00:00:00	2024-11-08T12:00:00	7	Dirección del viento	16.09
4763	7	Sololá	701	Sololá	2	El tablón	11	Noviembre	2023-11-28T00:00:00	2024-11-08T12:00:00	1	Precipitación	0
4764	7	Sololá	701	Sololá	2	El tablón	11	Noviembre	2023-11-28T00:00:00	2024-11-08T12:00:00	8	Radiación solar	622
4765	7	Sololá	701	Sololá	2	El tablón	11	Noviembre	2023-11-28T00:00:00	2024-11-08T13:00:00	2	Temperatura media	16.9
4766	7	Sololá	701	Sololá	2	El tablón	11	Noviembre	2023-11-28T00:00:00	2024-11-08T13:00:00	4	Temperatura máxima	17.7
4767	7	Sololá	701	Sololá	2	El tablón	11	Noviembre	2023-11-28T00:00:00	2024-11-08T13:00:00	3	Temperatura mínima	16.7
4768	7	Sololá	701	Sololá	2	El tablón	11	Noviembre	2023-11-28T00:00:00	2024-11-08T13:00:00	5	Humedad	80
4769	7	Sololá	701	Sololá	2	El tablón	11	Noviembre	2023-11-28T00:00:00	2024-11-08T13:00:00	6	Velocidad del viento	14.5
4770	7	Sololá	701	Sololá	2	El tablón	11	Noviembre	2023-11-28T00:00:00	2024-11-08T13:00:00	7	Dirección del viento	14.48
4771	7	Sololá	701	Sololá	2	El tablón	11	Noviembre	2023-11-28T00:00:00	2024-11-08T13:00:00	1	Precipitación	0
4772	7	Sololá	701	Sololá	2	El tablón	11	Noviembre	2023-11-28T00:00:00	2024-11-08T13:00:00	8	Radiación solar	508
4773	7	Sololá	701	Sololá	2	El tablón	11	Noviembre	2023-11-28T00:00:00	2024-11-08T14:00:00	2	Temperatura media	17.4
4774	7	Sololá	701	Sololá	2	El tablón	11	Noviembre	2023-11-28T00:00:00	2024-11-08T14:00:00	4	Temperatura máxima	18.1
4775	7	Sololá	701	Sololá	2	El tablón	11	Noviembre	2023-11-28T00:00:00	2024-11-08T14:00:00	3	Temperatura mínima	16.9
4776	7	Sololá	701	Sololá	2	El tablón	11	Noviembre	2023-11-28T00:00:00	2024-11-08T14:00:00	5	Humedad	78
4777	7	Sololá	701	Sololá	2	El tablón	11	Noviembre	2023-11-28T00:00:00	2024-11-08T14:00:00	6	Velocidad del viento	16.1
4778	7	Sololá	701	Sololá	2	El tablón	11	Noviembre	2023-11-28T00:00:00	2024-11-08T14:00:00	7	Dirección del viento	16.09
4779	7	Sololá	701	Sololá	2	El tablón	11	Noviembre	2023-11-28T00:00:00	2024-11-08T14:00:00	1	Precipitación	0
4780	7	Sololá	701	Sololá	2	El tablón	11	Noviembre	2023-11-28T00:00:00	2024-11-08T14:00:00	8	Radiación solar	800
4781	7	Sololá	701	Sololá	2	El tablón	11	Noviembre	2023-11-28T00:00:00	2024-11-08T15:00:00	2	Temperatura media	17.2
4782	7	Sololá	701	Sololá	2	El tablón	11	Noviembre	2023-11-28T00:00:00	2024-11-08T15:00:00	4	Temperatura máxima	18.1
4783	7	Sololá	701	Sololá	2	El tablón	11	Noviembre	2023-11-28T00:00:00	2024-11-08T15:00:00	3	Temperatura mínima	16.3
4784	7	Sololá	701	Sololá	2	El tablón	11	Noviembre	2023-11-28T00:00:00	2024-11-08T15:00:00	5	Humedad	79
4785	7	Sololá	701	Sololá	2	El tablón	11	Noviembre	2023-11-28T00:00:00	2024-11-08T15:00:00	6	Velocidad del viento	12.9
4786	7	Sololá	701	Sololá	2	El tablón	11	Noviembre	2023-11-28T00:00:00	2024-11-08T15:00:00	7	Dirección del viento	12.87
4787	7	Sololá	701	Sololá	2	El tablón	11	Noviembre	2023-11-28T00:00:00	2024-11-08T15:00:00	1	Precipitación	0
4788	7	Sololá	701	Sololá	2	El tablón	11	Noviembre	2023-11-28T00:00:00	2024-11-08T15:00:00	8	Radiación solar	407
4789	7	Sololá	701	Sololá	2	El tablón	11	Noviembre	2023-11-28T00:00:00	2024-11-08T16:00:00	2	Temperatura media	15.7
4790	7	Sololá	701	Sololá	2	El tablón	11	Noviembre	2023-11-28T00:00:00	2024-11-08T16:00:00	4	Temperatura máxima	17.7
4791	7	Sololá	701	Sololá	2	El tablón	11	Noviembre	2023-11-28T00:00:00	2024-11-08T16:00:00	3	Temperatura mínima	15.7
4792	7	Sololá	701	Sololá	2	El tablón	11	Noviembre	2023-11-28T00:00:00	2024-11-08T16:00:00	5	Humedad	83
4793	7	Sololá	701	Sololá	2	El tablón	11	Noviembre	2023-11-28T00:00:00	2024-11-08T16:00:00	6	Velocidad del viento	12.9
4794	7	Sololá	701	Sololá	2	El tablón	11	Noviembre	2023-11-28T00:00:00	2024-11-08T16:00:00	7	Dirección del viento	12.87
4795	7	Sololá	701	Sololá	2	El tablón	11	Noviembre	2023-11-28T00:00:00	2024-11-08T16:00:00	1	Precipitación	0
4796	7	Sololá	701	Sololá	2	El tablón	11	Noviembre	2023-11-28T00:00:00	2024-11-08T16:00:00	8	Radiación solar	286
4797	7	Sololá	701	Sololá	2	El tablón	11	Noviembre	2023-11-28T00:00:00	2024-11-08T17:00:00	2	Temperatura media	15.1
4798	7	Sololá	701	Sololá	2	El tablón	11	Noviembre	2023-11-28T00:00:00	2024-11-08T17:00:00	4	Temperatura máxima	15.7
4799	7	Sololá	701	Sololá	2	El tablón	11	Noviembre	2023-11-28T00:00:00	2024-11-08T17:00:00	3	Temperatura mínima	15.1
4800	7	Sololá	701	Sololá	2	El tablón	11	Noviembre	2023-11-28T00:00:00	2024-11-08T17:00:00	5	Humedad	85
4801	7	Sololá	701	Sololá	2	El tablón	11	Noviembre	2023-11-28T00:00:00	2024-11-08T17:00:00	6	Velocidad del viento	11.3
4802	7	Sololá	701	Sololá	2	El tablón	11	Noviembre	2023-11-28T00:00:00	2024-11-08T17:00:00	7	Dirección del viento	11.27
4803	7	Sololá	701	Sololá	2	El tablón	11	Noviembre	2023-11-28T00:00:00	2024-11-08T17:00:00	1	Precipitación	0
4804	7	Sololá	701	Sololá	2	El tablón	11	Noviembre	2023-11-28T00:00:00	2024-11-08T17:00:00	8	Radiación solar	106
4805	7	Sololá	701	Sololá	2	El tablón	11	Noviembre	2023-11-28T00:00:00	2024-11-08T18:00:00	2	Temperatura media	14
4806	7	Sololá	701	Sololá	2	El tablón	11	Noviembre	2023-11-28T00:00:00	2024-11-08T18:00:00	4	Temperatura máxima	15.1
4807	7	Sololá	701	Sololá	2	El tablón	11	Noviembre	2023-11-28T00:00:00	2024-11-08T18:00:00	3	Temperatura mínima	14
4808	7	Sololá	701	Sololá	2	El tablón	11	Noviembre	2023-11-28T00:00:00	2024-11-08T18:00:00	5	Humedad	87
4809	7	Sololá	701	Sololá	2	El tablón	11	Noviembre	2023-11-28T00:00:00	2024-11-08T18:00:00	6	Velocidad del viento	17.7
4810	7	Sololá	701	Sololá	2	El tablón	11	Noviembre	2023-11-28T00:00:00	2024-11-08T18:00:00	7	Dirección del viento	17.7
4811	7	Sololá	701	Sololá	2	El tablón	11	Noviembre	2023-11-28T00:00:00	2024-11-08T18:00:00	1	Precipitación	0
4812	7	Sololá	701	Sololá	2	El tablón	11	Noviembre	2023-11-28T00:00:00	2024-11-08T18:00:00	8	Radiación solar	16
4813	7	Sololá	701	Sololá	2	El tablón	11	Noviembre	2023-11-28T00:00:00	2024-11-08T19:00:00	2	Temperatura media	13.7
4814	7	Sololá	701	Sololá	2	El tablón	11	Noviembre	2023-11-28T00:00:00	2024-11-08T19:00:00	4	Temperatura máxima	14.3
4815	7	Sololá	701	Sololá	2	El tablón	11	Noviembre	2023-11-28T00:00:00	2024-11-08T19:00:00	3	Temperatura mínima	13.7
4816	7	Sololá	701	Sololá	2	El tablón	11	Noviembre	2023-11-28T00:00:00	2024-11-08T19:00:00	5	Humedad	89
4817	7	Sololá	701	Sololá	2	El tablón	11	Noviembre	2023-11-28T00:00:00	2024-11-08T19:00:00	6	Velocidad del viento	16.1
4818	7	Sololá	701	Sololá	2	El tablón	11	Noviembre	2023-11-28T00:00:00	2024-11-08T19:00:00	7	Dirección del viento	16.09
4819	7	Sololá	701	Sololá	2	El tablón	11	Noviembre	2023-11-28T00:00:00	2024-11-08T19:00:00	1	Precipitación	0
4820	7	Sololá	701	Sololá	2	El tablón	11	Noviembre	2023-11-28T00:00:00	2024-11-08T19:00:00	8	Radiación solar	0
4821	7	Sololá	701	Sololá	2	El tablón	11	Noviembre	2023-11-28T00:00:00	2024-11-08T20:00:00	2	Temperatura media	13.6
4822	7	Sololá	701	Sololá	2	El tablón	11	Noviembre	2023-11-28T00:00:00	2024-11-08T20:00:00	4	Temperatura máxima	13.7
4823	7	Sololá	701	Sololá	2	El tablón	11	Noviembre	2023-11-28T00:00:00	2024-11-08T20:00:00	3	Temperatura mínima	13.4
4824	7	Sololá	701	Sololá	2	El tablón	11	Noviembre	2023-11-28T00:00:00	2024-11-08T20:00:00	5	Humedad	88
4825	7	Sololá	701	Sololá	2	El tablón	11	Noviembre	2023-11-28T00:00:00	2024-11-08T20:00:00	6	Velocidad del viento	19.3
4826	7	Sololá	701	Sololá	2	El tablón	11	Noviembre	2023-11-28T00:00:00	2024-11-08T20:00:00	7	Dirección del viento	19.31
4827	7	Sololá	701	Sololá	2	El tablón	11	Noviembre	2023-11-28T00:00:00	2024-11-08T20:00:00	1	Precipitación	0
4828	7	Sololá	701	Sololá	2	El tablón	11	Noviembre	2023-11-28T00:00:00	2024-11-08T20:00:00	8	Radiación solar	0
4829	7	Sololá	701	Sololá	2	El tablón	11	Noviembre	2023-11-28T00:00:00	2024-11-08T21:00:00	2	Temperatura media	13.1
4830	7	Sololá	701	Sololá	2	El tablón	11	Noviembre	2023-11-28T00:00:00	2024-11-08T21:00:00	4	Temperatura máxima	13.6
4831	7	Sololá	701	Sololá	2	El tablón	11	Noviembre	2023-11-28T00:00:00	2024-11-08T21:00:00	3	Temperatura mínima	13.1
4832	7	Sololá	701	Sololá	2	El tablón	11	Noviembre	2023-11-28T00:00:00	2024-11-08T21:00:00	5	Humedad	89
4833	7	Sololá	701	Sololá	2	El tablón	11	Noviembre	2023-11-28T00:00:00	2024-11-08T21:00:00	6	Velocidad del viento	14.5
4834	7	Sololá	701	Sololá	2	El tablón	11	Noviembre	2023-11-28T00:00:00	2024-11-08T21:00:00	7	Dirección del viento	14.48
4835	7	Sololá	701	Sololá	2	El tablón	11	Noviembre	2023-11-28T00:00:00	2024-11-08T21:00:00	1	Precipitación	0
4836	7	Sololá	701	Sololá	2	El tablón	11	Noviembre	2023-11-28T00:00:00	2024-11-08T21:00:00	8	Radiación solar	0
4837	7	Sololá	701	Sololá	2	El tablón	11	Noviembre	2023-11-28T00:00:00	2024-11-08T22:00:00	2	Temperatura media	12.7
4838	7	Sololá	701	Sololá	2	El tablón	11	Noviembre	2023-11-28T00:00:00	2024-11-08T22:00:00	4	Temperatura máxima	13.1
4839	7	Sololá	701	Sololá	2	El tablón	11	Noviembre	2023-11-28T00:00:00	2024-11-08T22:00:00	3	Temperatura mínima	12.7
4840	7	Sololá	701	Sololá	2	El tablón	11	Noviembre	2023-11-28T00:00:00	2024-11-08T22:00:00	5	Humedad	88
4841	7	Sololá	701	Sololá	2	El tablón	11	Noviembre	2023-11-28T00:00:00	2024-11-08T22:00:00	6	Velocidad del viento	12.9
4842	7	Sololá	701	Sololá	2	El tablón	11	Noviembre	2023-11-28T00:00:00	2024-11-08T22:00:00	7	Dirección del viento	12.87
4843	7	Sololá	701	Sololá	2	El tablón	11	Noviembre	2023-11-28T00:00:00	2024-11-08T22:00:00	1	Precipitación	0
4844	7	Sololá	701	Sololá	2	El tablón	11	Noviembre	2023-11-28T00:00:00	2024-11-08T22:00:00	8	Radiación solar	0
4845	7	Sololá	701	Sololá	2	El tablón	11	Noviembre	2023-11-28T00:00:00	2024-11-08T23:00:00	2	Temperatura media	12.4
4846	7	Sololá	701	Sololá	2	El tablón	11	Noviembre	2023-11-28T00:00:00	2024-11-08T23:00:00	4	Temperatura máxima	12.7
4847	7	Sololá	701	Sololá	2	El tablón	11	Noviembre	2023-11-28T00:00:00	2024-11-08T23:00:00	3	Temperatura mínima	12.4
4848	7	Sololá	701	Sololá	2	El tablón	11	Noviembre	2023-11-28T00:00:00	2024-11-08T23:00:00	5	Humedad	87
4849	7	Sololá	701	Sololá	2	El tablón	11	Noviembre	2023-11-28T00:00:00	2024-11-08T23:00:00	6	Velocidad del viento	14.5
4850	7	Sololá	701	Sololá	2	El tablón	11	Noviembre	2023-11-28T00:00:00	2024-11-08T23:00:00	7	Dirección del viento	14.48
4851	7	Sololá	701	Sololá	2	El tablón	11	Noviembre	2023-11-28T00:00:00	2024-11-08T23:00:00	1	Precipitación	0
4852	7	Sololá	701	Sololá	2	El tablón	11	Noviembre	2023-11-28T00:00:00	2024-11-08T23:00:00	8	Radiación solar	0
4853	7	Sololá	701	Sololá	2	El tablón	11	Noviembre	2023-11-29T00:00:00	2024-11-08T00:00:00	2	Temperatura media	12.2
4854	7	Sololá	701	Sololá	2	El tablón	11	Noviembre	2023-11-29T00:00:00	2024-11-08T00:00:00	4	Temperatura máxima	12.5
4855	7	Sololá	701	Sololá	2	El tablón	11	Noviembre	2023-11-29T00:00:00	2024-11-08T00:00:00	3	Temperatura mínima	12.2
4856	7	Sololá	701	Sololá	2	El tablón	11	Noviembre	2023-11-29T00:00:00	2024-11-08T00:00:00	5	Humedad	87
4857	7	Sololá	701	Sololá	2	El tablón	11	Noviembre	2023-11-29T00:00:00	2024-11-08T00:00:00	6	Velocidad del viento	14.5
4858	7	Sololá	701	Sololá	2	El tablón	11	Noviembre	2023-11-29T00:00:00	2024-11-08T00:00:00	7	Dirección del viento	14.48
4859	7	Sololá	701	Sololá	2	El tablón	11	Noviembre	2023-11-29T00:00:00	2024-11-08T00:00:00	1	Precipitación	0
4860	7	Sololá	701	Sololá	2	El tablón	11	Noviembre	2023-11-29T00:00:00	2024-11-08T00:00:00	8	Radiación solar	0
4861	7	Sololá	701	Sololá	2	El tablón	11	Noviembre	2023-11-29T00:00:00	2024-11-08T01:00:00	2	Temperatura media	12.1
4862	7	Sololá	701	Sololá	2	El tablón	11	Noviembre	2023-11-29T00:00:00	2024-11-08T01:00:00	4	Temperatura máxima	12.2
4863	7	Sololá	701	Sololá	2	El tablón	11	Noviembre	2023-11-29T00:00:00	2024-11-08T01:00:00	3	Temperatura mínima	12
4864	7	Sololá	701	Sololá	2	El tablón	11	Noviembre	2023-11-29T00:00:00	2024-11-08T01:00:00	5	Humedad	88
4865	7	Sololá	701	Sololá	2	El tablón	11	Noviembre	2023-11-29T00:00:00	2024-11-08T01:00:00	6	Velocidad del viento	14.5
4866	7	Sololá	701	Sololá	2	El tablón	11	Noviembre	2023-11-29T00:00:00	2024-11-08T01:00:00	7	Dirección del viento	14.48
4867	7	Sololá	701	Sololá	2	El tablón	11	Noviembre	2023-11-29T00:00:00	2024-11-08T01:00:00	1	Precipitación	0
4868	7	Sololá	701	Sololá	2	El tablón	11	Noviembre	2023-11-29T00:00:00	2024-11-08T01:00:00	8	Radiación solar	0
4869	7	Sololá	701	Sololá	2	El tablón	11	Noviembre	2023-11-29T00:00:00	2024-11-08T02:00:00	2	Temperatura media	12
4870	7	Sololá	701	Sololá	2	El tablón	11	Noviembre	2023-11-29T00:00:00	2024-11-08T02:00:00	4	Temperatura máxima	12.1
4871	7	Sololá	701	Sololá	2	El tablón	11	Noviembre	2023-11-29T00:00:00	2024-11-08T02:00:00	3	Temperatura mínima	11.8
4872	7	Sololá	701	Sololá	2	El tablón	11	Noviembre	2023-11-29T00:00:00	2024-11-08T02:00:00	5	Humedad	86
4873	7	Sololá	701	Sololá	2	El tablón	11	Noviembre	2023-11-29T00:00:00	2024-11-08T02:00:00	6	Velocidad del viento	14.5
4874	7	Sololá	701	Sololá	2	El tablón	11	Noviembre	2023-11-29T00:00:00	2024-11-08T02:00:00	7	Dirección del viento	14.48
4875	7	Sololá	701	Sololá	2	El tablón	11	Noviembre	2023-11-29T00:00:00	2024-11-08T02:00:00	1	Precipitación	0
4876	7	Sololá	701	Sololá	2	El tablón	11	Noviembre	2023-11-29T00:00:00	2024-11-08T02:00:00	8	Radiación solar	0
4877	7	Sololá	701	Sololá	2	El tablón	11	Noviembre	2023-11-29T00:00:00	2024-11-08T03:00:00	2	Temperatura media	12
4878	7	Sololá	701	Sololá	2	El tablón	11	Noviembre	2023-11-29T00:00:00	2024-11-08T03:00:00	4	Temperatura máxima	12
4879	7	Sololá	701	Sololá	2	El tablón	11	Noviembre	2023-11-29T00:00:00	2024-11-08T03:00:00	3	Temperatura mínima	11.8
4880	7	Sololá	701	Sololá	2	El tablón	11	Noviembre	2023-11-29T00:00:00	2024-11-08T03:00:00	5	Humedad	86
4881	7	Sololá	701	Sololá	2	El tablón	11	Noviembre	2023-11-29T00:00:00	2024-11-08T03:00:00	6	Velocidad del viento	12.9
4882	7	Sololá	701	Sololá	2	El tablón	11	Noviembre	2023-11-29T00:00:00	2024-11-08T03:00:00	7	Dirección del viento	12.87
4883	7	Sololá	701	Sololá	2	El tablón	11	Noviembre	2023-11-29T00:00:00	2024-11-08T03:00:00	1	Precipitación	0
4884	7	Sololá	701	Sololá	2	El tablón	11	Noviembre	2023-11-29T00:00:00	2024-11-08T03:00:00	8	Radiación solar	0
4885	7	Sololá	701	Sololá	2	El tablón	11	Noviembre	2023-11-29T00:00:00	2024-11-08T04:00:00	2	Temperatura media	11.6
4886	7	Sololá	701	Sololá	2	El tablón	11	Noviembre	2023-11-29T00:00:00	2024-11-08T04:00:00	4	Temperatura máxima	12
4887	7	Sololá	701	Sololá	2	El tablón	11	Noviembre	2023-11-29T00:00:00	2024-11-08T04:00:00	3	Temperatura mínima	11.6
4888	7	Sololá	701	Sololá	2	El tablón	11	Noviembre	2023-11-29T00:00:00	2024-11-08T04:00:00	5	Humedad	87
4889	7	Sololá	701	Sololá	2	El tablón	11	Noviembre	2023-11-29T00:00:00	2024-11-08T04:00:00	6	Velocidad del viento	12.9
4890	7	Sololá	701	Sololá	2	El tablón	11	Noviembre	2023-11-29T00:00:00	2024-11-08T04:00:00	7	Dirección del viento	12.87
4891	7	Sololá	701	Sololá	2	El tablón	11	Noviembre	2023-11-29T00:00:00	2024-11-08T04:00:00	1	Precipitación	0
4892	7	Sololá	701	Sololá	2	El tablón	11	Noviembre	2023-11-29T00:00:00	2024-11-08T04:00:00	8	Radiación solar	0
4893	7	Sololá	701	Sololá	2	El tablón	11	Noviembre	2023-11-29T00:00:00	2024-11-08T05:00:00	2	Temperatura media	11.5
4894	7	Sololá	701	Sololá	2	El tablón	11	Noviembre	2023-11-29T00:00:00	2024-11-08T05:00:00	4	Temperatura máxima	11.6
4895	7	Sololá	701	Sololá	2	El tablón	11	Noviembre	2023-11-29T00:00:00	2024-11-08T05:00:00	3	Temperatura mínima	11.4
4896	7	Sololá	701	Sololá	2	El tablón	11	Noviembre	2023-11-29T00:00:00	2024-11-08T05:00:00	5	Humedad	86
4897	7	Sololá	701	Sololá	2	El tablón	11	Noviembre	2023-11-29T00:00:00	2024-11-08T05:00:00	6	Velocidad del viento	14.5
4898	7	Sololá	701	Sololá	2	El tablón	11	Noviembre	2023-11-29T00:00:00	2024-11-08T05:00:00	7	Dirección del viento	14.48
4899	7	Sololá	701	Sololá	2	El tablón	11	Noviembre	2023-11-29T00:00:00	2024-11-08T05:00:00	1	Precipitación	0
4900	7	Sololá	701	Sololá	2	El tablón	11	Noviembre	2023-11-29T00:00:00	2024-11-08T05:00:00	8	Radiación solar	0
4901	7	Sololá	701	Sololá	2	El tablón	11	Noviembre	2023-11-29T00:00:00	2024-11-08T06:00:00	2	Temperatura media	11.8
4902	7	Sololá	701	Sololá	2	El tablón	11	Noviembre	2023-11-29T00:00:00	2024-11-08T06:00:00	4	Temperatura máxima	11.8
4903	7	Sololá	701	Sololá	2	El tablón	11	Noviembre	2023-11-29T00:00:00	2024-11-08T06:00:00	3	Temperatura mínima	11.5
4904	7	Sololá	701	Sololá	2	El tablón	11	Noviembre	2023-11-29T00:00:00	2024-11-08T06:00:00	5	Humedad	80
4905	7	Sololá	701	Sololá	2	El tablón	11	Noviembre	2023-11-29T00:00:00	2024-11-08T06:00:00	6	Velocidad del viento	17.7
4906	7	Sololá	701	Sololá	2	El tablón	11	Noviembre	2023-11-29T00:00:00	2024-11-08T06:00:00	7	Dirección del viento	17.7
4907	7	Sololá	701	Sololá	2	El tablón	11	Noviembre	2023-11-29T00:00:00	2024-11-08T06:00:00	1	Precipitación	0
4908	7	Sololá	701	Sololá	2	El tablón	11	Noviembre	2023-11-29T00:00:00	2024-11-08T06:00:00	8	Radiación solar	0
4909	7	Sololá	701	Sololá	2	El tablón	11	Noviembre	2023-11-29T00:00:00	2024-11-08T07:00:00	2	Temperatura media	12.5
4910	7	Sololá	701	Sololá	2	El tablón	11	Noviembre	2023-11-29T00:00:00	2024-11-08T07:00:00	4	Temperatura máxima	12.5
4911	7	Sololá	701	Sololá	2	El tablón	11	Noviembre	2023-11-29T00:00:00	2024-11-08T07:00:00	3	Temperatura mínima	11.8
4912	7	Sololá	701	Sololá	2	El tablón	11	Noviembre	2023-11-29T00:00:00	2024-11-08T07:00:00	5	Humedad	71
4913	7	Sololá	701	Sololá	2	El tablón	11	Noviembre	2023-11-29T00:00:00	2024-11-08T07:00:00	6	Velocidad del viento	19.3
4914	7	Sololá	701	Sololá	2	El tablón	11	Noviembre	2023-11-29T00:00:00	2024-11-08T07:00:00	7	Dirección del viento	19.31
4915	7	Sololá	701	Sololá	2	El tablón	11	Noviembre	2023-11-29T00:00:00	2024-11-08T07:00:00	1	Precipitación	0
4916	7	Sololá	701	Sololá	2	El tablón	11	Noviembre	2023-11-29T00:00:00	2024-11-08T07:00:00	8	Radiación solar	24
4917	7	Sololá	701	Sololá	2	El tablón	11	Noviembre	2023-11-29T00:00:00	2024-11-08T08:00:00	2	Temperatura media	13.9
4918	7	Sololá	701	Sololá	2	El tablón	11	Noviembre	2023-11-29T00:00:00	2024-11-08T08:00:00	4	Temperatura máxima	13.9
4919	7	Sololá	701	Sololá	2	El tablón	11	Noviembre	2023-11-29T00:00:00	2024-11-08T08:00:00	3	Temperatura mínima	12.5
4920	7	Sololá	701	Sololá	2	El tablón	11	Noviembre	2023-11-29T00:00:00	2024-11-08T08:00:00	5	Humedad	58
4921	7	Sololá	701	Sololá	2	El tablón	11	Noviembre	2023-11-29T00:00:00	2024-11-08T08:00:00	6	Velocidad del viento	16.1
4922	7	Sololá	701	Sololá	2	El tablón	11	Noviembre	2023-11-29T00:00:00	2024-11-08T08:00:00	7	Dirección del viento	16.09
4923	7	Sololá	701	Sololá	2	El tablón	11	Noviembre	2023-11-29T00:00:00	2024-11-08T08:00:00	1	Precipitación	0
4924	7	Sololá	701	Sololá	2	El tablón	11	Noviembre	2023-11-29T00:00:00	2024-11-08T08:00:00	8	Radiación solar	192
4925	7	Sololá	701	Sololá	2	El tablón	11	Noviembre	2023-11-29T00:00:00	2024-11-08T09:00:00	2	Temperatura media	14.4
4926	7	Sololá	701	Sololá	2	El tablón	11	Noviembre	2023-11-29T00:00:00	2024-11-08T09:00:00	4	Temperatura máxima	14.8
4927	7	Sololá	701	Sololá	2	El tablón	11	Noviembre	2023-11-29T00:00:00	2024-11-08T09:00:00	3	Temperatura mínima	13.9
4928	7	Sololá	701	Sololá	2	El tablón	11	Noviembre	2023-11-29T00:00:00	2024-11-08T09:00:00	5	Humedad	70
4929	7	Sololá	701	Sololá	2	El tablón	11	Noviembre	2023-11-29T00:00:00	2024-11-08T09:00:00	6	Velocidad del viento	17.7
4930	7	Sololá	701	Sololá	2	El tablón	11	Noviembre	2023-11-29T00:00:00	2024-11-08T09:00:00	7	Dirección del viento	17.7
4931	7	Sololá	701	Sololá	2	El tablón	11	Noviembre	2023-11-29T00:00:00	2024-11-08T09:00:00	1	Precipitación	0
4932	7	Sololá	701	Sololá	2	El tablón	11	Noviembre	2023-11-29T00:00:00	2024-11-08T09:00:00	8	Radiación solar	408
4933	7	Sololá	701	Sololá	2	El tablón	11	Noviembre	2023-11-29T00:00:00	2024-11-08T10:00:00	2	Temperatura media	15.2
4934	7	Sololá	701	Sololá	2	El tablón	11	Noviembre	2023-11-29T00:00:00	2024-11-08T10:00:00	4	Temperatura máxima	15.4
4935	7	Sololá	701	Sololá	2	El tablón	11	Noviembre	2023-11-29T00:00:00	2024-11-08T10:00:00	3	Temperatura mínima	14.4
4936	7	Sololá	701	Sololá	2	El tablón	11	Noviembre	2023-11-29T00:00:00	2024-11-08T10:00:00	5	Humedad	74
4937	7	Sololá	701	Sololá	2	El tablón	11	Noviembre	2023-11-29T00:00:00	2024-11-08T10:00:00	6	Velocidad del viento	17.7
4938	7	Sololá	701	Sololá	2	El tablón	11	Noviembre	2023-11-29T00:00:00	2024-11-08T10:00:00	7	Dirección del viento	17.7
4939	7	Sololá	701	Sololá	2	El tablón	11	Noviembre	2023-11-29T00:00:00	2024-11-08T10:00:00	1	Precipitación	0
4940	7	Sololá	701	Sololá	2	El tablón	11	Noviembre	2023-11-29T00:00:00	2024-11-08T10:00:00	8	Radiación solar	575
4941	7	Sololá	701	Sololá	2	El tablón	11	Noviembre	2023-11-29T00:00:00	2024-11-08T11:00:00	2	Temperatura media	16.5
4942	7	Sololá	701	Sololá	2	El tablón	11	Noviembre	2023-11-29T00:00:00	2024-11-08T11:00:00	4	Temperatura máxima	16.5
4943	7	Sololá	701	Sololá	2	El tablón	11	Noviembre	2023-11-29T00:00:00	2024-11-08T11:00:00	3	Temperatura mínima	15.2
4944	7	Sololá	701	Sololá	2	El tablón	11	Noviembre	2023-11-29T00:00:00	2024-11-08T11:00:00	5	Humedad	63
4945	7	Sololá	701	Sololá	2	El tablón	11	Noviembre	2023-11-29T00:00:00	2024-11-08T11:00:00	6	Velocidad del viento	17.7
4946	7	Sololá	701	Sololá	2	El tablón	11	Noviembre	2023-11-29T00:00:00	2024-11-08T11:00:00	7	Dirección del viento	17.7
4947	7	Sololá	701	Sololá	2	El tablón	11	Noviembre	2023-11-29T00:00:00	2024-11-08T11:00:00	1	Precipitación	0
4948	7	Sololá	701	Sololá	2	El tablón	11	Noviembre	2023-11-29T00:00:00	2024-11-08T11:00:00	8	Radiación solar	685
4949	7	Sololá	701	Sololá	2	El tablón	11	Noviembre	2023-11-29T00:00:00	2024-11-08T12:00:00	2	Temperatura media	17.5
4950	7	Sololá	701	Sololá	2	El tablón	11	Noviembre	2023-11-29T00:00:00	2024-11-08T12:00:00	4	Temperatura máxima	17.8
4951	7	Sololá	701	Sololá	2	El tablón	11	Noviembre	2023-11-29T00:00:00	2024-11-08T12:00:00	3	Temperatura mínima	16.6
4952	7	Sololá	701	Sololá	2	El tablón	11	Noviembre	2023-11-29T00:00:00	2024-11-08T12:00:00	5	Humedad	66
4953	7	Sololá	701	Sololá	2	El tablón	11	Noviembre	2023-11-29T00:00:00	2024-11-08T12:00:00	6	Velocidad del viento	14.5
4954	7	Sololá	701	Sololá	2	El tablón	11	Noviembre	2023-11-29T00:00:00	2024-11-08T12:00:00	7	Dirección del viento	14.48
4955	7	Sololá	701	Sololá	2	El tablón	11	Noviembre	2023-11-29T00:00:00	2024-11-08T12:00:00	1	Precipitación	0
4956	7	Sololá	701	Sololá	2	El tablón	11	Noviembre	2023-11-29T00:00:00	2024-11-08T12:00:00	8	Radiación solar	679
4957	7	Sololá	701	Sololá	2	El tablón	11	Noviembre	2023-11-29T00:00:00	2024-11-08T13:00:00	2	Temperatura media	17.8
4958	7	Sololá	701	Sololá	2	El tablón	11	Noviembre	2023-11-29T00:00:00	2024-11-08T13:00:00	4	Temperatura máxima	17.9
4959	7	Sololá	701	Sololá	2	El tablón	11	Noviembre	2023-11-29T00:00:00	2024-11-08T13:00:00	3	Temperatura mínima	17.3
4960	7	Sololá	701	Sololá	2	El tablón	11	Noviembre	2023-11-29T00:00:00	2024-11-08T13:00:00	5	Humedad	70
4961	7	Sololá	701	Sololá	2	El tablón	11	Noviembre	2023-11-29T00:00:00	2024-11-08T13:00:00	6	Velocidad del viento	14.5
4962	7	Sololá	701	Sololá	2	El tablón	11	Noviembre	2023-11-29T00:00:00	2024-11-08T13:00:00	7	Dirección del viento	14.48
4963	7	Sololá	701	Sololá	2	El tablón	11	Noviembre	2023-11-29T00:00:00	2024-11-08T13:00:00	1	Precipitación	0
4964	7	Sololá	701	Sololá	2	El tablón	11	Noviembre	2023-11-29T00:00:00	2024-11-08T13:00:00	8	Radiación solar	758
4965	7	Sololá	701	Sololá	2	El tablón	11	Noviembre	2023-11-29T00:00:00	2024-11-08T14:00:00	2	Temperatura media	18.1
4966	7	Sololá	701	Sololá	2	El tablón	11	Noviembre	2023-11-29T00:00:00	2024-11-08T14:00:00	4	Temperatura máxima	18.2
4967	7	Sololá	701	Sololá	2	El tablón	11	Noviembre	2023-11-29T00:00:00	2024-11-08T14:00:00	3	Temperatura mínima	17.4
4968	7	Sololá	701	Sololá	2	El tablón	11	Noviembre	2023-11-29T00:00:00	2024-11-08T14:00:00	5	Humedad	65
4969	7	Sololá	701	Sololá	2	El tablón	11	Noviembre	2023-11-29T00:00:00	2024-11-08T14:00:00	6	Velocidad del viento	12.9
4970	7	Sololá	701	Sololá	2	El tablón	11	Noviembre	2023-11-29T00:00:00	2024-11-08T14:00:00	7	Dirección del viento	12.87
4971	7	Sololá	701	Sololá	2	El tablón	11	Noviembre	2023-11-29T00:00:00	2024-11-08T14:00:00	1	Precipitación	0
4972	7	Sololá	701	Sololá	2	El tablón	11	Noviembre	2023-11-29T00:00:00	2024-11-08T14:00:00	8	Radiación solar	705
4973	7	Sololá	701	Sololá	2	El tablón	11	Noviembre	2023-11-29T00:00:00	2024-11-08T15:00:00	2	Temperatura media	17.9
4974	7	Sololá	701	Sololá	2	El tablón	11	Noviembre	2023-11-29T00:00:00	2024-11-08T15:00:00	4	Temperatura máxima	18.1
4975	7	Sololá	701	Sololá	2	El tablón	11	Noviembre	2023-11-29T00:00:00	2024-11-08T15:00:00	3	Temperatura mínima	17.5
4976	7	Sololá	701	Sololá	2	El tablón	11	Noviembre	2023-11-29T00:00:00	2024-11-08T15:00:00	5	Humedad	66
4977	7	Sololá	701	Sololá	2	El tablón	11	Noviembre	2023-11-29T00:00:00	2024-11-08T15:00:00	6	Velocidad del viento	9.7
4978	7	Sololá	701	Sololá	2	El tablón	11	Noviembre	2023-11-29T00:00:00	2024-11-08T15:00:00	7	Dirección del viento	9.66
4979	7	Sololá	701	Sololá	2	El tablón	11	Noviembre	2023-11-29T00:00:00	2024-11-08T15:00:00	1	Precipitación	0
4980	7	Sololá	701	Sololá	2	El tablón	11	Noviembre	2023-11-29T00:00:00	2024-11-08T15:00:00	8	Radiación solar	571
4981	7	Sololá	701	Sololá	2	El tablón	11	Noviembre	2023-11-29T00:00:00	2024-11-08T16:00:00	2	Temperatura media	17.1
4982	7	Sololá	701	Sololá	2	El tablón	11	Noviembre	2023-11-29T00:00:00	2024-11-08T16:00:00	4	Temperatura máxima	17.9
4983	7	Sololá	701	Sololá	2	El tablón	11	Noviembre	2023-11-29T00:00:00	2024-11-08T16:00:00	3	Temperatura mínima	17.1
4984	7	Sololá	701	Sololá	2	El tablón	11	Noviembre	2023-11-29T00:00:00	2024-11-08T16:00:00	5	Humedad	69
4985	7	Sololá	701	Sololá	2	El tablón	11	Noviembre	2023-11-29T00:00:00	2024-11-08T16:00:00	6	Velocidad del viento	9.7
4986	7	Sololá	701	Sololá	2	El tablón	11	Noviembre	2023-11-29T00:00:00	2024-11-08T16:00:00	7	Dirección del viento	9.66
4987	7	Sololá	701	Sololá	2	El tablón	11	Noviembre	2023-11-29T00:00:00	2024-11-08T16:00:00	1	Precipitación	0
4988	7	Sololá	701	Sololá	2	El tablón	11	Noviembre	2023-11-29T00:00:00	2024-11-08T16:00:00	8	Radiación solar	398
4989	7	Sololá	701	Sololá	2	El tablón	11	Noviembre	2023-11-29T00:00:00	2024-11-08T17:00:00	2	Temperatura media	15.5
4990	7	Sololá	701	Sololá	2	El tablón	11	Noviembre	2023-11-29T00:00:00	2024-11-08T17:00:00	4	Temperatura máxima	17.1
4991	7	Sololá	701	Sololá	2	El tablón	11	Noviembre	2023-11-29T00:00:00	2024-11-08T17:00:00	3	Temperatura mínima	15.5
4992	7	Sololá	701	Sololá	2	El tablón	11	Noviembre	2023-11-29T00:00:00	2024-11-08T17:00:00	5	Humedad	75
4993	7	Sololá	701	Sololá	2	El tablón	11	Noviembre	2023-11-29T00:00:00	2024-11-08T17:00:00	6	Velocidad del viento	9.7
4994	7	Sololá	701	Sololá	2	El tablón	11	Noviembre	2023-11-29T00:00:00	2024-11-08T17:00:00	7	Dirección del viento	9.66
4995	7	Sololá	701	Sololá	2	El tablón	11	Noviembre	2023-11-29T00:00:00	2024-11-08T17:00:00	1	Precipitación	0
4996	7	Sololá	701	Sololá	2	El tablón	11	Noviembre	2023-11-29T00:00:00	2024-11-08T17:00:00	8	Radiación solar	180
4997	7	Sololá	701	Sololá	2	El tablón	11	Noviembre	2023-11-29T00:00:00	2024-11-08T18:00:00	2	Temperatura media	13.5
4998	7	Sololá	701	Sololá	2	El tablón	11	Noviembre	2023-11-29T00:00:00	2024-11-08T18:00:00	4	Temperatura máxima	15.5
4999	7	Sololá	701	Sololá	2	El tablón	11	Noviembre	2023-11-29T00:00:00	2024-11-08T18:00:00	3	Temperatura mínima	13.5
5000	7	Sololá	701	Sololá	2	El tablón	11	Noviembre	2023-11-29T00:00:00	2024-11-08T18:00:00	5	Humedad	84
5001	7	Sololá	701	Sololá	2	El tablón	11	Noviembre	2023-11-29T00:00:00	2024-11-08T18:00:00	6	Velocidad del viento	6.4
5002	7	Sololá	701	Sololá	2	El tablón	11	Noviembre	2023-11-29T00:00:00	2024-11-08T18:00:00	7	Dirección del viento	6.44
5003	7	Sololá	701	Sololá	2	El tablón	11	Noviembre	2023-11-29T00:00:00	2024-11-08T18:00:00	1	Precipitación	0
5004	7	Sololá	701	Sololá	2	El tablón	11	Noviembre	2023-11-29T00:00:00	2024-11-08T18:00:00	8	Radiación solar	14
5005	7	Sololá	701	Sololá	2	El tablón	11	Noviembre	2023-11-29T00:00:00	2024-11-08T19:00:00	2	Temperatura media	13.3
5006	7	Sololá	701	Sololá	2	El tablón	11	Noviembre	2023-11-29T00:00:00	2024-11-08T19:00:00	4	Temperatura máxima	13.5
5007	7	Sololá	701	Sololá	2	El tablón	11	Noviembre	2023-11-29T00:00:00	2024-11-08T19:00:00	3	Temperatura mínima	13.2
5008	7	Sololá	701	Sololá	2	El tablón	11	Noviembre	2023-11-29T00:00:00	2024-11-08T19:00:00	5	Humedad	85
5009	7	Sololá	701	Sololá	2	El tablón	11	Noviembre	2023-11-29T00:00:00	2024-11-08T19:00:00	6	Velocidad del viento	8
5010	7	Sololá	701	Sololá	2	El tablón	11	Noviembre	2023-11-29T00:00:00	2024-11-08T19:00:00	7	Dirección del viento	8.05
5011	7	Sololá	701	Sololá	2	El tablón	11	Noviembre	2023-11-29T00:00:00	2024-11-08T19:00:00	1	Precipitación	0
5012	7	Sololá	701	Sololá	2	El tablón	11	Noviembre	2023-11-29T00:00:00	2024-11-08T19:00:00	8	Radiación solar	0
5013	7	Sololá	701	Sololá	2	El tablón	11	Noviembre	2023-11-29T00:00:00	2024-11-08T20:00:00	2	Temperatura media	13
5014	7	Sololá	701	Sololá	2	El tablón	11	Noviembre	2023-11-29T00:00:00	2024-11-08T20:00:00	4	Temperatura máxima	13.3
5015	7	Sololá	701	Sololá	2	El tablón	11	Noviembre	2023-11-29T00:00:00	2024-11-08T20:00:00	3	Temperatura mínima	12.9
5016	7	Sololá	701	Sololá	2	El tablón	11	Noviembre	2023-11-29T00:00:00	2024-11-08T20:00:00	5	Humedad	85
5017	7	Sololá	701	Sololá	2	El tablón	11	Noviembre	2023-11-29T00:00:00	2024-11-08T20:00:00	6	Velocidad del viento	9.7
5018	7	Sololá	701	Sololá	2	El tablón	11	Noviembre	2023-11-29T00:00:00	2024-11-08T20:00:00	7	Dirección del viento	9.66
5019	7	Sololá	701	Sololá	2	El tablón	11	Noviembre	2023-11-29T00:00:00	2024-11-08T20:00:00	1	Precipitación	0
5020	7	Sololá	701	Sololá	2	El tablón	11	Noviembre	2023-11-29T00:00:00	2024-11-08T20:00:00	8	Radiación solar	0
5021	7	Sololá	701	Sololá	2	El tablón	11	Noviembre	2023-11-29T00:00:00	2024-11-08T21:00:00	2	Temperatura media	12.7
5022	7	Sololá	701	Sololá	2	El tablón	11	Noviembre	2023-11-29T00:00:00	2024-11-08T21:00:00	4	Temperatura máxima	13.1
5023	7	Sololá	701	Sololá	2	El tablón	11	Noviembre	2023-11-29T00:00:00	2024-11-08T21:00:00	3	Temperatura mínima	12.7
5024	7	Sololá	701	Sololá	2	El tablón	11	Noviembre	2023-11-29T00:00:00	2024-11-08T21:00:00	5	Humedad	86
5025	7	Sololá	701	Sololá	2	El tablón	11	Noviembre	2023-11-29T00:00:00	2024-11-08T21:00:00	6	Velocidad del viento	9.7
5026	7	Sololá	701	Sololá	2	El tablón	11	Noviembre	2023-11-29T00:00:00	2024-11-08T21:00:00	7	Dirección del viento	9.66
5027	7	Sololá	701	Sololá	2	El tablón	11	Noviembre	2023-11-29T00:00:00	2024-11-08T21:00:00	1	Precipitación	0
5028	7	Sololá	701	Sololá	2	El tablón	11	Noviembre	2023-11-29T00:00:00	2024-11-08T21:00:00	8	Radiación solar	0
5029	7	Sololá	701	Sololá	2	El tablón	11	Noviembre	2023-11-29T00:00:00	2024-11-08T22:00:00	2	Temperatura media	12.2
5030	7	Sololá	701	Sololá	2	El tablón	11	Noviembre	2023-11-29T00:00:00	2024-11-08T22:00:00	4	Temperatura máxima	12.7
5031	7	Sololá	701	Sololá	2	El tablón	11	Noviembre	2023-11-29T00:00:00	2024-11-08T22:00:00	3	Temperatura mínima	12.1
5032	7	Sololá	701	Sololá	2	El tablón	11	Noviembre	2023-11-29T00:00:00	2024-11-08T22:00:00	5	Humedad	87
5033	7	Sololá	701	Sololá	2	El tablón	11	Noviembre	2023-11-29T00:00:00	2024-11-08T22:00:00	6	Velocidad del viento	6.4
5034	7	Sololá	701	Sololá	2	El tablón	11	Noviembre	2023-11-29T00:00:00	2024-11-08T22:00:00	7	Dirección del viento	6.44
5035	7	Sololá	701	Sololá	2	El tablón	11	Noviembre	2023-11-29T00:00:00	2024-11-08T22:00:00	1	Precipitación	0
5036	7	Sololá	701	Sololá	2	El tablón	11	Noviembre	2023-11-29T00:00:00	2024-11-08T22:00:00	8	Radiación solar	0
5037	7	Sololá	701	Sololá	2	El tablón	11	Noviembre	2023-11-29T00:00:00	2024-11-08T23:00:00	2	Temperatura media	11.9
5038	7	Sololá	701	Sololá	2	El tablón	11	Noviembre	2023-11-29T00:00:00	2024-11-08T23:00:00	4	Temperatura máxima	12.2
5039	7	Sololá	701	Sololá	2	El tablón	11	Noviembre	2023-11-29T00:00:00	2024-11-08T23:00:00	3	Temperatura mínima	11.9
5040	7	Sololá	701	Sololá	2	El tablón	11	Noviembre	2023-11-29T00:00:00	2024-11-08T23:00:00	5	Humedad	87
5041	7	Sololá	701	Sololá	2	El tablón	11	Noviembre	2023-11-29T00:00:00	2024-11-08T23:00:00	6	Velocidad del viento	6.4
5042	7	Sololá	701	Sololá	2	El tablón	11	Noviembre	2023-11-29T00:00:00	2024-11-08T23:00:00	7	Dirección del viento	6.44
5043	7	Sololá	701	Sololá	2	El tablón	11	Noviembre	2023-11-29T00:00:00	2024-11-08T23:00:00	1	Precipitación	0
5044	7	Sololá	701	Sololá	2	El tablón	11	Noviembre	2023-11-29T00:00:00	2024-11-08T23:00:00	8	Radiación solar	0
5045	7	Sololá	701	Sololá	2	El tablón	11	Noviembre	2023-11-30T00:00:00	2024-11-08T00:00:00	2	Temperatura media	11.9
5046	7	Sololá	701	Sololá	2	El tablón	11	Noviembre	2023-11-30T00:00:00	2024-11-08T00:00:00	4	Temperatura máxima	11.9
5047	7	Sololá	701	Sololá	2	El tablón	11	Noviembre	2023-11-30T00:00:00	2024-11-08T00:00:00	3	Temperatura mínima	11.8
5048	7	Sololá	701	Sololá	2	El tablón	11	Noviembre	2023-11-30T00:00:00	2024-11-08T00:00:00	5	Humedad	88
5049	7	Sololá	701	Sololá	2	El tablón	11	Noviembre	2023-11-30T00:00:00	2024-11-08T00:00:00	6	Velocidad del viento	8
5050	7	Sololá	701	Sololá	2	El tablón	11	Noviembre	2023-11-30T00:00:00	2024-11-08T00:00:00	7	Dirección del viento	8.05
5051	7	Sololá	701	Sololá	2	El tablón	11	Noviembre	2023-11-30T00:00:00	2024-11-08T00:00:00	1	Precipitación	0
5052	7	Sololá	701	Sololá	2	El tablón	11	Noviembre	2023-11-30T00:00:00	2024-11-08T00:00:00	8	Radiación solar	0
5053	7	Sololá	701	Sololá	2	El tablón	11	Noviembre	2023-11-30T00:00:00	2024-11-08T01:00:00	2	Temperatura media	11.4
5054	7	Sololá	701	Sololá	2	El tablón	11	Noviembre	2023-11-30T00:00:00	2024-11-08T01:00:00	4	Temperatura máxima	12
5055	7	Sololá	701	Sololá	2	El tablón	11	Noviembre	2023-11-30T00:00:00	2024-11-08T01:00:00	3	Temperatura mínima	11.4
5056	7	Sololá	701	Sololá	2	El tablón	11	Noviembre	2023-11-30T00:00:00	2024-11-08T01:00:00	5	Humedad	87
5057	7	Sololá	701	Sololá	2	El tablón	11	Noviembre	2023-11-30T00:00:00	2024-11-08T01:00:00	6	Velocidad del viento	6.4
5058	7	Sololá	701	Sololá	2	El tablón	11	Noviembre	2023-11-30T00:00:00	2024-11-08T01:00:00	7	Dirección del viento	6.44
5059	7	Sololá	701	Sololá	2	El tablón	11	Noviembre	2023-11-30T00:00:00	2024-11-08T01:00:00	1	Precipitación	0
5060	7	Sololá	701	Sololá	2	El tablón	11	Noviembre	2023-11-30T00:00:00	2024-11-08T01:00:00	8	Radiación solar	0
5061	7	Sololá	701	Sololá	2	El tablón	11	Noviembre	2023-11-30T00:00:00	2024-11-08T02:00:00	2	Temperatura media	11.4
5062	7	Sololá	701	Sololá	2	El tablón	11	Noviembre	2023-11-30T00:00:00	2024-11-08T02:00:00	4	Temperatura máxima	11.5
5063	7	Sololá	701	Sololá	2	El tablón	11	Noviembre	2023-11-30T00:00:00	2024-11-08T02:00:00	3	Temperatura mínima	11.1
5064	7	Sololá	701	Sololá	2	El tablón	11	Noviembre	2023-11-30T00:00:00	2024-11-08T02:00:00	5	Humedad	88
5065	7	Sololá	701	Sololá	2	El tablón	11	Noviembre	2023-11-30T00:00:00	2024-11-08T02:00:00	6	Velocidad del viento	6.4
5066	7	Sololá	701	Sololá	2	El tablón	11	Noviembre	2023-11-30T00:00:00	2024-11-08T02:00:00	7	Dirección del viento	6.44
5067	7	Sololá	701	Sololá	2	El tablón	11	Noviembre	2023-11-30T00:00:00	2024-11-08T02:00:00	1	Precipitación	0
5068	7	Sololá	701	Sololá	2	El tablón	11	Noviembre	2023-11-30T00:00:00	2024-11-08T02:00:00	8	Radiación solar	0
5069	7	Sololá	701	Sololá	2	El tablón	11	Noviembre	2023-11-30T00:00:00	2024-11-08T03:00:00	2	Temperatura media	11
5070	7	Sololá	701	Sololá	2	El tablón	11	Noviembre	2023-11-30T00:00:00	2024-11-08T03:00:00	4	Temperatura máxima	11.5
5071	7	Sololá	701	Sololá	2	El tablón	11	Noviembre	2023-11-30T00:00:00	2024-11-08T03:00:00	3	Temperatura mínima	11
5072	7	Sololá	701	Sololá	2	El tablón	11	Noviembre	2023-11-30T00:00:00	2024-11-08T03:00:00	5	Humedad	88
5073	7	Sololá	701	Sololá	2	El tablón	11	Noviembre	2023-11-30T00:00:00	2024-11-08T03:00:00	6	Velocidad del viento	4.8
5074	7	Sololá	701	Sololá	2	El tablón	11	Noviembre	2023-11-30T00:00:00	2024-11-08T03:00:00	7	Dirección del viento	4.83
5075	7	Sololá	701	Sololá	2	El tablón	11	Noviembre	2023-11-30T00:00:00	2024-11-08T03:00:00	1	Precipitación	0
5076	7	Sololá	701	Sololá	2	El tablón	11	Noviembre	2023-11-30T00:00:00	2024-11-08T03:00:00	8	Radiación solar	0
5077	7	Sololá	701	Sololá	2	El tablón	11	Noviembre	2023-11-30T00:00:00	2024-11-08T04:00:00	2	Temperatura media	11.2
5078	7	Sololá	701	Sololá	2	El tablón	11	Noviembre	2023-11-30T00:00:00	2024-11-08T04:00:00	4	Temperatura máxima	11.3
5079	7	Sololá	701	Sololá	2	El tablón	11	Noviembre	2023-11-30T00:00:00	2024-11-08T04:00:00	3	Temperatura mínima	10.9
5080	7	Sololá	701	Sololá	2	El tablón	11	Noviembre	2023-11-30T00:00:00	2024-11-08T04:00:00	5	Humedad	88
5081	7	Sololá	701	Sololá	2	El tablón	11	Noviembre	2023-11-30T00:00:00	2024-11-08T04:00:00	6	Velocidad del viento	4.8
5082	7	Sololá	701	Sololá	2	El tablón	11	Noviembre	2023-11-30T00:00:00	2024-11-08T04:00:00	7	Dirección del viento	4.83
5083	7	Sololá	701	Sololá	2	El tablón	11	Noviembre	2023-11-30T00:00:00	2024-11-08T04:00:00	1	Precipitación	0
5084	7	Sololá	701	Sololá	2	El tablón	11	Noviembre	2023-11-30T00:00:00	2024-11-08T04:00:00	8	Radiación solar	0
5085	7	Sololá	701	Sololá	2	El tablón	11	Noviembre	2023-11-30T00:00:00	2024-11-08T05:00:00	2	Temperatura media	11.2
5086	7	Sololá	701	Sololá	2	El tablón	11	Noviembre	2023-11-30T00:00:00	2024-11-08T05:00:00	4	Temperatura máxima	11.3
5087	7	Sololá	701	Sololá	2	El tablón	11	Noviembre	2023-11-30T00:00:00	2024-11-08T05:00:00	3	Temperatura mínima	11
5088	7	Sololá	701	Sololá	2	El tablón	11	Noviembre	2023-11-30T00:00:00	2024-11-08T05:00:00	5	Humedad	87
5089	7	Sololá	701	Sololá	2	El tablón	11	Noviembre	2023-11-30T00:00:00	2024-11-08T05:00:00	6	Velocidad del viento	6.4
5090	7	Sololá	701	Sololá	2	El tablón	11	Noviembre	2023-11-30T00:00:00	2024-11-08T05:00:00	7	Dirección del viento	6.44
5091	7	Sololá	701	Sololá	2	El tablón	11	Noviembre	2023-11-30T00:00:00	2024-11-08T05:00:00	1	Precipitación	0
5092	7	Sololá	701	Sololá	2	El tablón	11	Noviembre	2023-11-30T00:00:00	2024-11-08T05:00:00	8	Radiación solar	0
5093	7	Sololá	701	Sololá	2	El tablón	11	Noviembre	2023-11-30T00:00:00	2024-11-08T06:00:00	2	Temperatura media	11.2
5094	7	Sololá	701	Sololá	2	El tablón	11	Noviembre	2023-11-30T00:00:00	2024-11-08T06:00:00	4	Temperatura máxima	11.2
5095	7	Sololá	701	Sololá	2	El tablón	11	Noviembre	2023-11-30T00:00:00	2024-11-08T06:00:00	3	Temperatura mínima	10.7
5096	7	Sololá	701	Sololá	2	El tablón	11	Noviembre	2023-11-30T00:00:00	2024-11-08T06:00:00	5	Humedad	87
5097	7	Sololá	701	Sololá	2	El tablón	11	Noviembre	2023-11-30T00:00:00	2024-11-08T06:00:00	6	Velocidad del viento	6.4
5098	7	Sololá	701	Sololá	2	El tablón	11	Noviembre	2023-11-30T00:00:00	2024-11-08T06:00:00	7	Dirección del viento	6.44
5099	7	Sololá	701	Sololá	2	El tablón	11	Noviembre	2023-11-30T00:00:00	2024-11-08T06:00:00	1	Precipitación	0
5100	7	Sololá	701	Sololá	2	El tablón	11	Noviembre	2023-11-30T00:00:00	2024-11-08T06:00:00	8	Radiación solar	0
5101	7	Sololá	701	Sololá	2	El tablón	11	Noviembre	2023-11-30T00:00:00	2024-11-08T07:00:00	2	Temperatura media	11.4
5102	7	Sololá	701	Sololá	2	El tablón	11	Noviembre	2023-11-30T00:00:00	2024-11-08T07:00:00	4	Temperatura máxima	11.6
5103	7	Sololá	701	Sololá	2	El tablón	11	Noviembre	2023-11-30T00:00:00	2024-11-08T07:00:00	3	Temperatura mínima	11.1
5104	7	Sololá	701	Sololá	2	El tablón	11	Noviembre	2023-11-30T00:00:00	2024-11-08T07:00:00	5	Humedad	88
5105	7	Sololá	701	Sololá	2	El tablón	11	Noviembre	2023-11-30T00:00:00	2024-11-08T07:00:00	6	Velocidad del viento	6.4
5106	7	Sololá	701	Sololá	2	El tablón	11	Noviembre	2023-11-30T00:00:00	2024-11-08T07:00:00	7	Dirección del viento	6.44
5107	7	Sololá	701	Sololá	2	El tablón	11	Noviembre	2023-11-30T00:00:00	2024-11-08T07:00:00	1	Precipitación	0
5108	7	Sololá	701	Sololá	2	El tablón	11	Noviembre	2023-11-30T00:00:00	2024-11-08T07:00:00	8	Radiación solar	22
5109	7	Sololá	701	Sololá	2	El tablón	11	Noviembre	2023-11-30T00:00:00	2024-11-08T08:00:00	2	Temperatura media	14.3
5110	7	Sololá	701	Sololá	2	El tablón	11	Noviembre	2023-11-30T00:00:00	2024-11-08T08:00:00	4	Temperatura máxima	14.3
5111	7	Sololá	701	Sololá	2	El tablón	11	Noviembre	2023-11-30T00:00:00	2024-11-08T08:00:00	3	Temperatura mínima	11.4
5112	7	Sololá	701	Sololá	2	El tablón	11	Noviembre	2023-11-30T00:00:00	2024-11-08T08:00:00	5	Humedad	81
5113	7	Sololá	701	Sololá	2	El tablón	11	Noviembre	2023-11-30T00:00:00	2024-11-08T08:00:00	6	Velocidad del viento	6.4
5114	7	Sololá	701	Sololá	2	El tablón	11	Noviembre	2023-11-30T00:00:00	2024-11-08T08:00:00	7	Dirección del viento	6.44
5115	7	Sololá	701	Sololá	2	El tablón	11	Noviembre	2023-11-30T00:00:00	2024-11-08T08:00:00	1	Precipitación	0
5116	7	Sololá	701	Sololá	2	El tablón	11	Noviembre	2023-11-30T00:00:00	2024-11-08T08:00:00	8	Radiación solar	185
5117	7	Sololá	701	Sololá	2	El tablón	11	Noviembre	2023-11-30T00:00:00	2024-11-08T09:00:00	2	Temperatura media	15.8
5118	7	Sololá	701	Sololá	2	El tablón	11	Noviembre	2023-11-30T00:00:00	2024-11-08T09:00:00	4	Temperatura máxima	15.8
5119	7	Sololá	701	Sololá	2	El tablón	11	Noviembre	2023-11-30T00:00:00	2024-11-08T09:00:00	3	Temperatura mínima	14.3
5120	7	Sololá	701	Sololá	2	El tablón	11	Noviembre	2023-11-30T00:00:00	2024-11-08T09:00:00	5	Humedad	77
5121	7	Sololá	701	Sololá	2	El tablón	11	Noviembre	2023-11-30T00:00:00	2024-11-08T09:00:00	6	Velocidad del viento	8
5122	7	Sololá	701	Sololá	2	El tablón	11	Noviembre	2023-11-30T00:00:00	2024-11-08T09:00:00	7	Dirección del viento	8.05
5123	7	Sololá	701	Sololá	2	El tablón	11	Noviembre	2023-11-30T00:00:00	2024-11-08T09:00:00	1	Precipitación	0
5124	7	Sololá	701	Sololá	2	El tablón	11	Noviembre	2023-11-30T00:00:00	2024-11-08T09:00:00	8	Radiación solar	406
5125	7	Sololá	701	Sololá	2	El tablón	11	Noviembre	2023-11-30T00:00:00	2024-11-08T10:00:00	2	Temperatura media	17.4
5126	7	Sololá	701	Sololá	2	El tablón	11	Noviembre	2023-11-30T00:00:00	2024-11-08T10:00:00	4	Temperatura máxima	17.4
5127	7	Sololá	701	Sololá	2	El tablón	11	Noviembre	2023-11-30T00:00:00	2024-11-08T10:00:00	3	Temperatura mínima	15.8
5128	7	Sololá	701	Sololá	2	El tablón	11	Noviembre	2023-11-30T00:00:00	2024-11-08T10:00:00	5	Humedad	71
5129	7	Sololá	701	Sololá	2	El tablón	11	Noviembre	2023-11-30T00:00:00	2024-11-08T10:00:00	6	Velocidad del viento	6.4
5130	7	Sololá	701	Sololá	2	El tablón	11	Noviembre	2023-11-30T00:00:00	2024-11-08T10:00:00	7	Dirección del viento	6.44
5131	7	Sololá	701	Sololá	2	El tablón	11	Noviembre	2023-11-30T00:00:00	2024-11-08T10:00:00	1	Precipitación	0
5132	7	Sololá	701	Sololá	2	El tablón	11	Noviembre	2023-11-30T00:00:00	2024-11-08T10:00:00	8	Radiación solar	580
5133	7	Sololá	701	Sololá	2	El tablón	11	Noviembre	2023-11-30T00:00:00	2024-11-08T11:00:00	2	Temperatura media	18.3
5134	7	Sololá	701	Sololá	2	El tablón	11	Noviembre	2023-11-30T00:00:00	2024-11-08T11:00:00	4	Temperatura máxima	18.7
5135	7	Sololá	701	Sololá	2	El tablón	11	Noviembre	2023-11-30T00:00:00	2024-11-08T11:00:00	3	Temperatura mínima	17.1
5136	7	Sololá	701	Sololá	2	El tablón	11	Noviembre	2023-11-30T00:00:00	2024-11-08T11:00:00	5	Humedad	69
5137	7	Sololá	701	Sololá	2	El tablón	11	Noviembre	2023-11-30T00:00:00	2024-11-08T11:00:00	6	Velocidad del viento	6.4
5138	7	Sololá	701	Sololá	2	El tablón	11	Noviembre	2023-11-30T00:00:00	2024-11-08T11:00:00	7	Dirección del viento	6.44
5139	7	Sololá	701	Sololá	2	El tablón	11	Noviembre	2023-11-30T00:00:00	2024-11-08T11:00:00	1	Precipitación	0
5140	7	Sololá	701	Sololá	2	El tablón	11	Noviembre	2023-11-30T00:00:00	2024-11-08T11:00:00	8	Radiación solar	667
5141	7	Sololá	701	Sololá	2	El tablón	11	Noviembre	2023-11-30T00:00:00	2024-11-08T12:00:00	2	Temperatura media	19.4
5142	7	Sololá	701	Sololá	2	El tablón	11	Noviembre	2023-11-30T00:00:00	2024-11-08T12:00:00	4	Temperatura máxima	19.8
5143	7	Sololá	701	Sololá	2	El tablón	11	Noviembre	2023-11-30T00:00:00	2024-11-08T12:00:00	3	Temperatura mínima	18.1
5144	7	Sololá	701	Sololá	2	El tablón	11	Noviembre	2023-11-30T00:00:00	2024-11-08T12:00:00	5	Humedad	69
5145	7	Sololá	701	Sololá	2	El tablón	11	Noviembre	2023-11-30T00:00:00	2024-11-08T12:00:00	6	Velocidad del viento	4.8
5146	7	Sololá	701	Sololá	2	El tablón	11	Noviembre	2023-11-30T00:00:00	2024-11-08T12:00:00	7	Dirección del viento	4.83
5147	7	Sololá	701	Sololá	2	El tablón	11	Noviembre	2023-11-30T00:00:00	2024-11-08T12:00:00	1	Precipitación	0
5148	7	Sololá	701	Sololá	2	El tablón	11	Noviembre	2023-11-30T00:00:00	2024-11-08T12:00:00	8	Radiación solar	758
5149	7	Sololá	701	Sololá	2	El tablón	11	Noviembre	2023-11-30T00:00:00	2024-11-08T13:00:00	2	Temperatura media	19.2
5150	7	Sololá	701	Sololá	2	El tablón	11	Noviembre	2023-11-30T00:00:00	2024-11-08T13:00:00	4	Temperatura máxima	19.9
5151	7	Sololá	701	Sololá	2	El tablón	11	Noviembre	2023-11-30T00:00:00	2024-11-08T13:00:00	3	Temperatura mínima	18.9
5152	7	Sololá	701	Sololá	2	El tablón	11	Noviembre	2023-11-30T00:00:00	2024-11-08T13:00:00	5	Humedad	69
5153	7	Sololá	701	Sololá	2	El tablón	11	Noviembre	2023-11-30T00:00:00	2024-11-08T13:00:00	6	Velocidad del viento	8
5154	7	Sololá	701	Sololá	2	El tablón	11	Noviembre	2023-11-30T00:00:00	2024-11-08T13:00:00	7	Dirección del viento	8.05
5155	7	Sololá	701	Sololá	2	El tablón	11	Noviembre	2023-11-30T00:00:00	2024-11-08T13:00:00	1	Precipitación	0
5156	7	Sololá	701	Sololá	2	El tablón	11	Noviembre	2023-11-30T00:00:00	2024-11-08T13:00:00	8	Radiación solar	872
5157	7	Sololá	701	Sololá	2	El tablón	11	Noviembre	2023-11-30T00:00:00	2024-11-08T14:00:00	2	Temperatura media	18.8
5158	7	Sololá	701	Sololá	2	El tablón	11	Noviembre	2023-11-30T00:00:00	2024-11-08T14:00:00	4	Temperatura máxima	19.8
5159	7	Sololá	701	Sololá	2	El tablón	11	Noviembre	2023-11-30T00:00:00	2024-11-08T14:00:00	3	Temperatura mínima	18.8
5160	7	Sololá	701	Sololá	2	El tablón	11	Noviembre	2023-11-30T00:00:00	2024-11-08T14:00:00	5	Humedad	76
5161	7	Sololá	701	Sololá	2	El tablón	11	Noviembre	2023-11-30T00:00:00	2024-11-08T14:00:00	6	Velocidad del viento	8
5162	7	Sololá	701	Sololá	2	El tablón	11	Noviembre	2023-11-30T00:00:00	2024-11-08T14:00:00	7	Dirección del viento	8.05
5163	7	Sololá	701	Sololá	2	El tablón	11	Noviembre	2023-11-30T00:00:00	2024-11-08T14:00:00	1	Precipitación	0
5164	7	Sololá	701	Sololá	2	El tablón	11	Noviembre	2023-11-30T00:00:00	2024-11-08T14:00:00	8	Radiación solar	744
5165	7	Sololá	701	Sololá	2	El tablón	11	Noviembre	2023-11-30T00:00:00	2024-11-08T15:00:00	2	Temperatura media	17.5
5166	7	Sololá	701	Sololá	2	El tablón	11	Noviembre	2023-11-30T00:00:00	2024-11-08T15:00:00	4	Temperatura máxima	18.8
5167	7	Sololá	701	Sololá	2	El tablón	11	Noviembre	2023-11-30T00:00:00	2024-11-08T15:00:00	3	Temperatura mínima	17.1
5168	7	Sololá	701	Sololá	2	El tablón	11	Noviembre	2023-11-30T00:00:00	2024-11-08T15:00:00	5	Humedad	81
5169	7	Sololá	701	Sololá	2	El tablón	11	Noviembre	2023-11-30T00:00:00	2024-11-08T15:00:00	6	Velocidad del viento	6.4
5170	7	Sololá	701	Sololá	2	El tablón	11	Noviembre	2023-11-30T00:00:00	2024-11-08T15:00:00	7	Dirección del viento	6.44
5171	7	Sololá	701	Sololá	2	El tablón	11	Noviembre	2023-11-30T00:00:00	2024-11-08T15:00:00	1	Precipitación	0
5172	7	Sololá	701	Sololá	2	El tablón	11	Noviembre	2023-11-30T00:00:00	2024-11-08T15:00:00	8	Radiación solar	276
5173	7	Sololá	701	Sololá	2	El tablón	11	Noviembre	2023-11-30T00:00:00	2024-11-08T16:00:00	2	Temperatura media	16.5
5174	7	Sololá	701	Sololá	2	El tablón	11	Noviembre	2023-11-30T00:00:00	2024-11-08T16:00:00	4	Temperatura máxima	18
5175	7	Sololá	701	Sololá	2	El tablón	11	Noviembre	2023-11-30T00:00:00	2024-11-08T16:00:00	3	Temperatura mínima	16.5
5176	7	Sololá	701	Sololá	2	El tablón	11	Noviembre	2023-11-30T00:00:00	2024-11-08T16:00:00	5	Humedad	85
5177	7	Sololá	701	Sololá	2	El tablón	11	Noviembre	2023-11-30T00:00:00	2024-11-08T16:00:00	6	Velocidad del viento	4.8
5178	7	Sololá	701	Sololá	2	El tablón	11	Noviembre	2023-11-30T00:00:00	2024-11-08T16:00:00	7	Dirección del viento	4.83
5179	7	Sololá	701	Sololá	2	El tablón	11	Noviembre	2023-11-30T00:00:00	2024-11-08T16:00:00	1	Precipitación	0
5180	7	Sololá	701	Sololá	2	El tablón	11	Noviembre	2023-11-30T00:00:00	2024-11-08T16:00:00	8	Radiación solar	218
5181	7	Sololá	701	Sololá	2	El tablón	11	Noviembre	2023-11-30T00:00:00	2024-11-08T17:00:00	2	Temperatura media	15.7
5182	7	Sololá	701	Sololá	2	El tablón	11	Noviembre	2023-11-30T00:00:00	2024-11-08T17:00:00	4	Temperatura máxima	16.5
5183	7	Sololá	701	Sololá	2	El tablón	11	Noviembre	2023-11-30T00:00:00	2024-11-08T17:00:00	3	Temperatura mínima	15.7
5184	7	Sololá	701	Sololá	2	El tablón	11	Noviembre	2023-11-30T00:00:00	2024-11-08T17:00:00	5	Humedad	87
5185	7	Sololá	701	Sololá	2	El tablón	11	Noviembre	2023-11-30T00:00:00	2024-11-08T17:00:00	6	Velocidad del viento	3.2
5186	7	Sololá	701	Sololá	2	El tablón	11	Noviembre	2023-11-30T00:00:00	2024-11-08T17:00:00	7	Dirección del viento	3.22
5187	7	Sololá	701	Sololá	2	El tablón	11	Noviembre	2023-11-30T00:00:00	2024-11-08T17:00:00	1	Precipitación	0
5188	7	Sololá	701	Sololá	2	El tablón	11	Noviembre	2023-11-30T00:00:00	2024-11-08T17:00:00	8	Radiación solar	45
5189	7	Sololá	701	Sololá	2	El tablón	11	Noviembre	2023-11-30T00:00:00	2024-11-08T18:00:00	2	Temperatura media	14.9
5190	7	Sololá	701	Sololá	2	El tablón	11	Noviembre	2023-11-30T00:00:00	2024-11-08T18:00:00	4	Temperatura máxima	15.7
5191	7	Sololá	701	Sololá	2	El tablón	11	Noviembre	2023-11-30T00:00:00	2024-11-08T18:00:00	3	Temperatura mínima	14.9
5192	7	Sololá	701	Sololá	2	El tablón	11	Noviembre	2023-11-30T00:00:00	2024-11-08T18:00:00	5	Humedad	88
5193	7	Sololá	701	Sololá	2	El tablón	11	Noviembre	2023-11-30T00:00:00	2024-11-08T18:00:00	6	Velocidad del viento	1.6
5194	7	Sololá	701	Sololá	2	El tablón	11	Noviembre	2023-11-30T00:00:00	2024-11-08T18:00:00	7	Dirección del viento	1.61
5195	7	Sololá	701	Sololá	2	El tablón	11	Noviembre	2023-11-30T00:00:00	2024-11-08T18:00:00	1	Precipitación	0
5196	7	Sololá	701	Sololá	2	El tablón	11	Noviembre	2023-11-30T00:00:00	2024-11-08T18:00:00	8	Radiación solar	14
5197	7	Sololá	701	Sololá	2	El tablón	11	Noviembre	2023-11-30T00:00:00	2024-11-08T19:00:00	2	Temperatura media	13.4
5198	7	Sololá	701	Sololá	2	El tablón	11	Noviembre	2023-11-30T00:00:00	2024-11-08T19:00:00	4	Temperatura máxima	14.9
5199	7	Sololá	701	Sololá	2	El tablón	11	Noviembre	2023-11-30T00:00:00	2024-11-08T19:00:00	3	Temperatura mínima	13.4
5200	7	Sololá	701	Sololá	2	El tablón	11	Noviembre	2023-11-30T00:00:00	2024-11-08T19:00:00	5	Humedad	87
5201	7	Sololá	701	Sololá	2	El tablón	11	Noviembre	2023-11-30T00:00:00	2024-11-08T19:00:00	6	Velocidad del viento	0
5202	7	Sololá	701	Sololá	2	El tablón	11	Noviembre	2023-11-30T00:00:00	2024-11-08T19:00:00	7	Dirección del viento	0
5203	7	Sololá	701	Sololá	2	El tablón	11	Noviembre	2023-11-30T00:00:00	2024-11-08T19:00:00	1	Precipitación	0
5204	7	Sololá	701	Sololá	2	El tablón	11	Noviembre	2023-11-30T00:00:00	2024-11-08T19:00:00	8	Radiación solar	0
5205	7	Sololá	701	Sololá	2	El tablón	11	Noviembre	2023-11-30T00:00:00	2024-11-08T20:00:00	2	Temperatura media	13.1
5206	7	Sololá	701	Sololá	2	El tablón	11	Noviembre	2023-11-30T00:00:00	2024-11-08T20:00:00	4	Temperatura máxima	13.6
5207	7	Sololá	701	Sololá	2	El tablón	11	Noviembre	2023-11-30T00:00:00	2024-11-08T20:00:00	3	Temperatura mínima	13.1
5208	7	Sololá	701	Sololá	2	El tablón	11	Noviembre	2023-11-30T00:00:00	2024-11-08T20:00:00	5	Humedad	88
5209	7	Sololá	701	Sololá	2	El tablón	11	Noviembre	2023-11-30T00:00:00	2024-11-08T20:00:00	6	Velocidad del viento	0
5210	7	Sololá	701	Sololá	2	El tablón	11	Noviembre	2023-11-30T00:00:00	2024-11-08T20:00:00	7	Dirección del viento	0
5211	7	Sololá	701	Sololá	2	El tablón	11	Noviembre	2023-11-30T00:00:00	2024-11-08T20:00:00	1	Precipitación	0
5212	7	Sololá	701	Sololá	2	El tablón	11	Noviembre	2023-11-30T00:00:00	2024-11-08T20:00:00	8	Radiación solar	0
5213	7	Sololá	701	Sololá	2	El tablón	11	Noviembre	2023-11-30T00:00:00	2024-11-08T21:00:00	2	Temperatura media	12.7
5214	7	Sololá	701	Sololá	2	El tablón	11	Noviembre	2023-11-30T00:00:00	2024-11-08T21:00:00	4	Temperatura máxima	13.1
5215	7	Sololá	701	Sololá	2	El tablón	11	Noviembre	2023-11-30T00:00:00	2024-11-08T21:00:00	3	Temperatura mínima	12.6
5216	7	Sololá	701	Sololá	2	El tablón	11	Noviembre	2023-11-30T00:00:00	2024-11-08T21:00:00	5	Humedad	88
5217	7	Sololá	701	Sololá	2	El tablón	11	Noviembre	2023-11-30T00:00:00	2024-11-08T21:00:00	6	Velocidad del viento	0
5218	7	Sololá	701	Sololá	2	El tablón	11	Noviembre	2023-11-30T00:00:00	2024-11-08T21:00:00	7	Dirección del viento	0
5219	7	Sololá	701	Sololá	2	El tablón	11	Noviembre	2023-11-30T00:00:00	2024-11-08T21:00:00	1	Precipitación	0
5220	7	Sololá	701	Sololá	2	El tablón	11	Noviembre	2023-11-30T00:00:00	2024-11-08T21:00:00	8	Radiación solar	0
5221	7	Sololá	701	Sololá	2	El tablón	11	Noviembre	2023-11-30T00:00:00	2024-11-08T22:00:00	2	Temperatura media	11.4
5222	7	Sololá	701	Sololá	2	El tablón	11	Noviembre	2023-11-30T00:00:00	2024-11-08T22:00:00	4	Temperatura máxima	12.8
5223	7	Sololá	701	Sololá	2	El tablón	11	Noviembre	2023-11-30T00:00:00	2024-11-08T22:00:00	3	Temperatura mínima	11.3
5224	7	Sololá	701	Sololá	2	El tablón	11	Noviembre	2023-11-30T00:00:00	2024-11-08T22:00:00	5	Humedad	89
5225	7	Sololá	701	Sololá	2	El tablón	11	Noviembre	2023-11-30T00:00:00	2024-11-08T22:00:00	6	Velocidad del viento	3.2
5226	7	Sololá	701	Sololá	2	El tablón	11	Noviembre	2023-11-30T00:00:00	2024-11-08T22:00:00	7	Dirección del viento	3.22
5227	7	Sololá	701	Sololá	2	El tablón	11	Noviembre	2023-11-30T00:00:00	2024-11-08T22:00:00	1	Precipitación	0
5228	7	Sololá	701	Sololá	2	El tablón	11	Noviembre	2023-11-30T00:00:00	2024-11-08T22:00:00	8	Radiación solar	0
5229	7	Sololá	701	Sololá	2	El tablón	11	Noviembre	2023-11-30T00:00:00	2024-11-08T23:00:00	2	Temperatura media	10.8
5230	7	Sololá	701	Sololá	2	El tablón	11	Noviembre	2023-11-30T00:00:00	2024-11-08T23:00:00	4	Temperatura máxima	11.6
5231	7	Sololá	701	Sololá	2	El tablón	11	Noviembre	2023-11-30T00:00:00	2024-11-08T23:00:00	3	Temperatura mínima	10.8
5232	7	Sololá	701	Sololá	2	El tablón	11	Noviembre	2023-11-30T00:00:00	2024-11-08T23:00:00	5	Humedad	89
5233	7	Sololá	701	Sololá	2	El tablón	11	Noviembre	2023-11-30T00:00:00	2024-11-08T23:00:00	6	Velocidad del viento	3.2
5234	7	Sololá	701	Sololá	2	El tablón	11	Noviembre	2023-11-30T00:00:00	2024-11-08T23:00:00	7	Dirección del viento	3.22
5235	7	Sololá	701	Sololá	2	El tablón	11	Noviembre	2023-11-30T00:00:00	2024-11-08T23:00:00	1	Precipitación	0
5236	7	Sololá	701	Sololá	2	El tablón	11	Noviembre	2023-11-30T00:00:00	2024-11-08T23:00:00	8	Radiación solar	0
5237	7	Sololá	701	Sololá	2	El tablón	12	Diciembre	2023-01-12T00:00:00	2024-11-08T00:00:00	2	Temperatura media	11
5238	7	Sololá	701	Sololá	2	El tablón	12	Diciembre	2023-01-12T00:00:00	2024-11-08T00:00:00	4	Temperatura máxima	11.3
5239	7	Sololá	701	Sololá	2	El tablón	12	Diciembre	2023-01-12T00:00:00	2024-11-08T00:00:00	3	Temperatura mínima	10.8
5240	7	Sololá	701	Sololá	2	El tablón	12	Diciembre	2023-01-12T00:00:00	2024-11-08T00:00:00	5	Humedad	89
5241	7	Sololá	701	Sololá	2	El tablón	12	Diciembre	2023-01-12T00:00:00	2024-11-08T00:00:00	6	Velocidad del viento	1.6
5242	7	Sololá	701	Sololá	2	El tablón	12	Diciembre	2023-01-12T00:00:00	2024-11-08T00:00:00	7	Dirección del viento	1.61
5243	7	Sololá	701	Sololá	2	El tablón	12	Diciembre	2023-01-12T00:00:00	2024-11-08T00:00:00	1	Precipitación	0
5244	7	Sololá	701	Sololá	2	El tablón	12	Diciembre	2023-01-12T00:00:00	2024-11-08T00:00:00	8	Radiación solar	0
5245	7	Sololá	701	Sololá	2	El tablón	12	Diciembre	2023-01-12T00:00:00	2024-11-08T01:00:00	2	Temperatura media	10.3
5246	7	Sololá	701	Sololá	2	El tablón	12	Diciembre	2023-01-12T00:00:00	2024-11-08T01:00:00	4	Temperatura máxima	11
5247	7	Sololá	701	Sololá	2	El tablón	12	Diciembre	2023-01-12T00:00:00	2024-11-08T01:00:00	3	Temperatura mínima	10
5248	7	Sololá	701	Sololá	2	El tablón	12	Diciembre	2023-01-12T00:00:00	2024-11-08T01:00:00	5	Humedad	85
5249	7	Sololá	701	Sololá	2	El tablón	12	Diciembre	2023-01-12T00:00:00	2024-11-08T01:00:00	6	Velocidad del viento	4.8
5250	7	Sololá	701	Sololá	2	El tablón	12	Diciembre	2023-01-12T00:00:00	2024-11-08T01:00:00	7	Dirección del viento	4.83
5251	7	Sololá	701	Sololá	2	El tablón	12	Diciembre	2023-01-12T00:00:00	2024-11-08T01:00:00	1	Precipitación	0
5252	7	Sololá	701	Sololá	2	El tablón	12	Diciembre	2023-01-12T00:00:00	2024-11-08T01:00:00	8	Radiación solar	0
5253	7	Sololá	701	Sololá	2	El tablón	12	Diciembre	2023-01-12T00:00:00	2024-11-08T02:00:00	2	Temperatura media	11.3
5254	7	Sololá	701	Sololá	2	El tablón	12	Diciembre	2023-01-12T00:00:00	2024-11-08T02:00:00	4	Temperatura máxima	11.4
5255	7	Sololá	701	Sololá	2	El tablón	12	Diciembre	2023-01-12T00:00:00	2024-11-08T02:00:00	3	Temperatura mínima	10.3
5256	7	Sololá	701	Sololá	2	El tablón	12	Diciembre	2023-01-12T00:00:00	2024-11-08T02:00:00	5	Humedad	75
5257	7	Sololá	701	Sololá	2	El tablón	12	Diciembre	2023-01-12T00:00:00	2024-11-08T02:00:00	6	Velocidad del viento	4.8
5258	7	Sololá	701	Sololá	2	El tablón	12	Diciembre	2023-01-12T00:00:00	2024-11-08T02:00:00	7	Dirección del viento	4.83
5259	7	Sololá	701	Sololá	2	El tablón	12	Diciembre	2023-01-12T00:00:00	2024-11-08T02:00:00	1	Precipitación	0
5260	7	Sololá	701	Sololá	2	El tablón	12	Diciembre	2023-01-12T00:00:00	2024-11-08T02:00:00	8	Radiación solar	0
5261	7	Sololá	701	Sololá	2	El tablón	12	Diciembre	2023-01-12T00:00:00	2024-11-08T03:00:00	2	Temperatura media	10.6
5262	7	Sololá	701	Sololá	2	El tablón	12	Diciembre	2023-01-12T00:00:00	2024-11-08T03:00:00	4	Temperatura máxima	11.5
5263	7	Sololá	701	Sololá	2	El tablón	12	Diciembre	2023-01-12T00:00:00	2024-11-08T03:00:00	3	Temperatura mínima	10.4
5264	7	Sololá	701	Sololá	2	El tablón	12	Diciembre	2023-01-12T00:00:00	2024-11-08T03:00:00	5	Humedad	75
5265	7	Sololá	701	Sololá	2	El tablón	12	Diciembre	2023-01-12T00:00:00	2024-11-08T03:00:00	6	Velocidad del viento	4.8
5266	7	Sololá	701	Sololá	2	El tablón	12	Diciembre	2023-01-12T00:00:00	2024-11-08T03:00:00	7	Dirección del viento	4.83
5267	7	Sololá	701	Sololá	2	El tablón	12	Diciembre	2023-01-12T00:00:00	2024-11-08T03:00:00	1	Precipitación	0
5268	7	Sololá	701	Sololá	2	El tablón	12	Diciembre	2023-01-12T00:00:00	2024-11-08T03:00:00	8	Radiación solar	0
5269	7	Sololá	701	Sololá	2	El tablón	12	Diciembre	2023-01-12T00:00:00	2024-11-08T04:00:00	2	Temperatura media	10.9
5270	7	Sololá	701	Sololá	2	El tablón	12	Diciembre	2023-01-12T00:00:00	2024-11-08T04:00:00	4	Temperatura máxima	11.8
5271	7	Sololá	701	Sololá	2	El tablón	12	Diciembre	2023-01-12T00:00:00	2024-11-08T04:00:00	3	Temperatura mínima	10.6
5272	7	Sololá	701	Sololá	2	El tablón	12	Diciembre	2023-01-12T00:00:00	2024-11-08T04:00:00	5	Humedad	73
5273	7	Sololá	701	Sololá	2	El tablón	12	Diciembre	2023-01-12T00:00:00	2024-11-08T04:00:00	6	Velocidad del viento	3.2
5274	7	Sololá	701	Sololá	2	El tablón	12	Diciembre	2023-01-12T00:00:00	2024-11-08T04:00:00	7	Dirección del viento	3.22
5275	7	Sololá	701	Sololá	2	El tablón	12	Diciembre	2023-01-12T00:00:00	2024-11-08T04:00:00	1	Precipitación	0
5276	7	Sololá	701	Sololá	2	El tablón	12	Diciembre	2023-01-12T00:00:00	2024-11-08T04:00:00	8	Radiación solar	0
5277	7	Sololá	701	Sololá	2	El tablón	12	Diciembre	2023-01-12T00:00:00	2024-11-08T05:00:00	2	Temperatura media	10.6
5278	7	Sololá	701	Sololá	2	El tablón	12	Diciembre	2023-01-12T00:00:00	2024-11-08T05:00:00	4	Temperatura máxima	11
5279	7	Sololá	701	Sololá	2	El tablón	12	Diciembre	2023-01-12T00:00:00	2024-11-08T05:00:00	3	Temperatura mínima	9.1
5280	7	Sololá	701	Sololá	2	El tablón	12	Diciembre	2023-01-12T00:00:00	2024-11-08T05:00:00	5	Humedad	69
5281	7	Sololá	701	Sololá	2	El tablón	12	Diciembre	2023-01-12T00:00:00	2024-11-08T05:00:00	6	Velocidad del viento	4.8
5282	7	Sololá	701	Sololá	2	El tablón	12	Diciembre	2023-01-12T00:00:00	2024-11-08T05:00:00	7	Dirección del viento	4.83
5283	7	Sololá	701	Sololá	2	El tablón	12	Diciembre	2023-01-12T00:00:00	2024-11-08T05:00:00	1	Precipitación	0
5284	7	Sololá	701	Sololá	2	El tablón	12	Diciembre	2023-01-12T00:00:00	2024-11-08T05:00:00	8	Radiación solar	0
5285	7	Sololá	701	Sololá	2	El tablón	12	Diciembre	2023-01-12T00:00:00	2024-11-08T06:00:00	2	Temperatura media	10.8
5286	7	Sololá	701	Sololá	2	El tablón	12	Diciembre	2023-01-12T00:00:00	2024-11-08T06:00:00	4	Temperatura máxima	12.6
5287	7	Sololá	701	Sololá	2	El tablón	12	Diciembre	2023-01-12T00:00:00	2024-11-08T06:00:00	3	Temperatura mínima	10.6
5288	7	Sololá	701	Sololá	2	El tablón	12	Diciembre	2023-01-12T00:00:00	2024-11-08T06:00:00	5	Humedad	76
5289	7	Sololá	701	Sololá	2	El tablón	12	Diciembre	2023-01-12T00:00:00	2024-11-08T06:00:00	6	Velocidad del viento	1.6
5290	7	Sololá	701	Sololá	2	El tablón	12	Diciembre	2023-01-12T00:00:00	2024-11-08T06:00:00	7	Dirección del viento	1.61
5291	7	Sololá	701	Sololá	2	El tablón	12	Diciembre	2023-01-12T00:00:00	2024-11-08T06:00:00	1	Precipitación	0
5292	7	Sololá	701	Sololá	2	El tablón	12	Diciembre	2023-01-12T00:00:00	2024-11-08T06:00:00	8	Radiación solar	0
5293	7	Sololá	701	Sololá	2	El tablón	12	Diciembre	2023-01-12T00:00:00	2024-11-08T07:00:00	2	Temperatura media	10.9
5294	7	Sololá	701	Sololá	2	El tablón	12	Diciembre	2023-01-12T00:00:00	2024-11-08T07:00:00	4	Temperatura máxima	10.9
5295	7	Sololá	701	Sololá	2	El tablón	12	Diciembre	2023-01-12T00:00:00	2024-11-08T07:00:00	3	Temperatura mínima	9.9
5296	7	Sololá	701	Sololá	2	El tablón	12	Diciembre	2023-01-12T00:00:00	2024-11-08T07:00:00	5	Humedad	78
5297	7	Sololá	701	Sololá	2	El tablón	12	Diciembre	2023-01-12T00:00:00	2024-11-08T07:00:00	6	Velocidad del viento	3.2
5298	7	Sololá	701	Sololá	2	El tablón	12	Diciembre	2023-01-12T00:00:00	2024-11-08T07:00:00	7	Dirección del viento	3.22
5299	7	Sololá	701	Sololá	2	El tablón	12	Diciembre	2023-01-12T00:00:00	2024-11-08T07:00:00	1	Precipitación	0
5300	7	Sololá	701	Sololá	2	El tablón	12	Diciembre	2023-01-12T00:00:00	2024-11-08T07:00:00	8	Radiación solar	21
5301	7	Sololá	701	Sololá	2	El tablón	12	Diciembre	2023-01-12T00:00:00	2024-11-08T08:00:00	2	Temperatura media	15.1
5302	7	Sololá	701	Sololá	2	El tablón	12	Diciembre	2023-01-12T00:00:00	2024-11-08T08:00:00	4	Temperatura máxima	15.1
5303	7	Sololá	701	Sololá	2	El tablón	12	Diciembre	2023-01-12T00:00:00	2024-11-08T08:00:00	3	Temperatura mínima	10.9
5304	7	Sololá	701	Sololá	2	El tablón	12	Diciembre	2023-01-12T00:00:00	2024-11-08T08:00:00	5	Humedad	61
5305	7	Sololá	701	Sololá	2	El tablón	12	Diciembre	2023-01-12T00:00:00	2024-11-08T08:00:00	6	Velocidad del viento	3.2
5306	7	Sololá	701	Sololá	2	El tablón	12	Diciembre	2023-01-12T00:00:00	2024-11-08T08:00:00	7	Dirección del viento	3.22
5307	7	Sololá	701	Sololá	2	El tablón	12	Diciembre	2023-01-12T00:00:00	2024-11-08T08:00:00	1	Precipitación	0
5308	7	Sololá	701	Sololá	2	El tablón	12	Diciembre	2023-01-12T00:00:00	2024-11-08T08:00:00	8	Radiación solar	178
5309	7	Sololá	701	Sololá	2	El tablón	12	Diciembre	2023-01-12T00:00:00	2024-11-08T09:00:00	2	Temperatura media	18.8
5310	7	Sololá	701	Sololá	2	El tablón	12	Diciembre	2023-01-12T00:00:00	2024-11-08T09:00:00	4	Temperatura máxima	18.8
5311	7	Sololá	701	Sololá	2	El tablón	12	Diciembre	2023-01-12T00:00:00	2024-11-08T09:00:00	3	Temperatura mínima	15.1
5312	7	Sololá	701	Sololá	2	El tablón	12	Diciembre	2023-01-12T00:00:00	2024-11-08T09:00:00	5	Humedad	58
5313	7	Sololá	701	Sololá	2	El tablón	12	Diciembre	2023-01-12T00:00:00	2024-11-08T09:00:00	6	Velocidad del viento	1.6
5314	7	Sololá	701	Sololá	2	El tablón	12	Diciembre	2023-01-12T00:00:00	2024-11-08T09:00:00	7	Dirección del viento	1.61
5315	7	Sololá	701	Sololá	2	El tablón	12	Diciembre	2023-01-12T00:00:00	2024-11-08T09:00:00	1	Precipitación	0
5316	7	Sololá	701	Sololá	2	El tablón	12	Diciembre	2023-01-12T00:00:00	2024-11-08T09:00:00	8	Radiación solar	397
5317	7	Sololá	701	Sololá	2	El tablón	12	Diciembre	2023-01-12T00:00:00	2024-11-08T10:00:00	2	Temperatura media	19.1
5318	7	Sololá	701	Sololá	2	El tablón	12	Diciembre	2023-01-12T00:00:00	2024-11-08T10:00:00	4	Temperatura máxima	19.5
5319	7	Sololá	701	Sololá	2	El tablón	12	Diciembre	2023-01-12T00:00:00	2024-11-08T10:00:00	3	Temperatura mínima	18.8
5320	7	Sololá	701	Sololá	2	El tablón	12	Diciembre	2023-01-12T00:00:00	2024-11-08T10:00:00	5	Humedad	66
5321	7	Sololá	701	Sololá	2	El tablón	12	Diciembre	2023-01-12T00:00:00	2024-11-08T10:00:00	6	Velocidad del viento	3.2
5322	7	Sololá	701	Sololá	2	El tablón	12	Diciembre	2023-01-12T00:00:00	2024-11-08T10:00:00	7	Dirección del viento	3.22
5323	7	Sololá	701	Sololá	2	El tablón	12	Diciembre	2023-01-12T00:00:00	2024-11-08T10:00:00	1	Precipitación	0
5324	7	Sololá	701	Sololá	2	El tablón	12	Diciembre	2023-01-12T00:00:00	2024-11-08T10:00:00	8	Radiación solar	568
5325	7	Sololá	701	Sololá	2	El tablón	12	Diciembre	2023-01-12T00:00:00	2024-11-08T11:00:00	2	Temperatura media	19.2
5326	7	Sololá	701	Sololá	2	El tablón	12	Diciembre	2023-01-12T00:00:00	2024-11-08T11:00:00	4	Temperatura máxima	19.6
5327	7	Sololá	701	Sololá	2	El tablón	12	Diciembre	2023-01-12T00:00:00	2024-11-08T11:00:00	3	Temperatura mínima	19
5328	7	Sololá	701	Sololá	2	El tablón	12	Diciembre	2023-01-12T00:00:00	2024-11-08T11:00:00	5	Humedad	64
5329	7	Sololá	701	Sololá	2	El tablón	12	Diciembre	2023-01-12T00:00:00	2024-11-08T11:00:00	6	Velocidad del viento	6.4
5330	7	Sololá	701	Sololá	2	El tablón	12	Diciembre	2023-01-12T00:00:00	2024-11-08T11:00:00	7	Dirección del viento	6.44
5331	7	Sololá	701	Sololá	2	El tablón	12	Diciembre	2023-01-12T00:00:00	2024-11-08T11:00:00	1	Precipitación	0
5332	7	Sololá	701	Sololá	2	El tablón	12	Diciembre	2023-01-12T00:00:00	2024-11-08T11:00:00	8	Radiación solar	694
5333	7	Sololá	701	Sololá	2	El tablón	12	Diciembre	2023-01-12T00:00:00	2024-11-08T12:00:00	2	Temperatura media	19.3
5334	7	Sololá	701	Sololá	2	El tablón	12	Diciembre	2023-01-12T00:00:00	2024-11-08T12:00:00	4	Temperatura máxima	19.3
5335	7	Sololá	701	Sololá	2	El tablón	12	Diciembre	2023-01-12T00:00:00	2024-11-08T12:00:00	3	Temperatura mínima	18.6
5336	7	Sololá	701	Sololá	2	El tablón	12	Diciembre	2023-01-12T00:00:00	2024-11-08T12:00:00	5	Humedad	72
5337	7	Sololá	701	Sololá	2	El tablón	12	Diciembre	2023-01-12T00:00:00	2024-11-08T12:00:00	6	Velocidad del viento	8
5338	7	Sololá	701	Sololá	2	El tablón	12	Diciembre	2023-01-12T00:00:00	2024-11-08T12:00:00	7	Dirección del viento	8.05
5339	7	Sololá	701	Sololá	2	El tablón	12	Diciembre	2023-01-12T00:00:00	2024-11-08T12:00:00	1	Precipitación	0
5340	7	Sololá	701	Sololá	2	El tablón	12	Diciembre	2023-01-12T00:00:00	2024-11-08T12:00:00	8	Radiación solar	668
5341	7	Sololá	701	Sololá	2	El tablón	12	Diciembre	2023-01-12T00:00:00	2024-11-08T13:00:00	2	Temperatura media	18.9
5342	7	Sololá	701	Sololá	2	El tablón	12	Diciembre	2023-01-12T00:00:00	2024-11-08T13:00:00	4	Temperatura máxima	19.4
5343	7	Sololá	701	Sololá	2	El tablón	12	Diciembre	2023-01-12T00:00:00	2024-11-08T13:00:00	3	Temperatura mínima	18.7
5344	7	Sololá	701	Sololá	2	El tablón	12	Diciembre	2023-01-12T00:00:00	2024-11-08T13:00:00	5	Humedad	74
5345	7	Sololá	701	Sololá	2	El tablón	12	Diciembre	2023-01-12T00:00:00	2024-11-08T13:00:00	6	Velocidad del viento	8
5346	7	Sololá	701	Sololá	2	El tablón	12	Diciembre	2023-01-12T00:00:00	2024-11-08T13:00:00	7	Dirección del viento	8.05
5347	7	Sololá	701	Sololá	2	El tablón	12	Diciembre	2023-01-12T00:00:00	2024-11-08T13:00:00	1	Precipitación	0
5348	7	Sololá	701	Sololá	2	El tablón	12	Diciembre	2023-01-12T00:00:00	2024-11-08T13:00:00	8	Radiación solar	757
5349	7	Sololá	701	Sololá	2	El tablón	12	Diciembre	2023-01-12T00:00:00	2024-11-08T14:00:00	2	Temperatura media	17.9
5350	7	Sololá	701	Sololá	2	El tablón	12	Diciembre	2023-01-12T00:00:00	2024-11-08T14:00:00	4	Temperatura máxima	18.9
5351	7	Sololá	701	Sololá	2	El tablón	12	Diciembre	2023-01-12T00:00:00	2024-11-08T14:00:00	3	Temperatura mínima	17.9
5352	7	Sololá	701	Sololá	2	El tablón	12	Diciembre	2023-01-12T00:00:00	2024-11-08T14:00:00	5	Humedad	82
5353	7	Sololá	701	Sololá	2	El tablón	12	Diciembre	2023-01-12T00:00:00	2024-11-08T14:00:00	6	Velocidad del viento	9.7
5354	7	Sololá	701	Sololá	2	El tablón	12	Diciembre	2023-01-12T00:00:00	2024-11-08T14:00:00	7	Dirección del viento	9.66
5355	7	Sololá	701	Sololá	2	El tablón	12	Diciembre	2023-01-12T00:00:00	2024-11-08T14:00:00	1	Precipitación	0
5356	7	Sololá	701	Sololá	2	El tablón	12	Diciembre	2023-01-12T00:00:00	2024-11-08T14:00:00	8	Radiación solar	697
5357	7	Sololá	701	Sololá	2	El tablón	12	Diciembre	2023-01-12T00:00:00	2024-11-08T15:00:00	2	Temperatura media	16.7
5358	7	Sololá	701	Sololá	2	El tablón	12	Diciembre	2023-01-12T00:00:00	2024-11-08T15:00:00	4	Temperatura máxima	18
5359	7	Sololá	701	Sololá	2	El tablón	12	Diciembre	2023-01-12T00:00:00	2024-11-08T15:00:00	3	Temperatura mínima	16.7
5360	7	Sololá	701	Sololá	2	El tablón	12	Diciembre	2023-01-12T00:00:00	2024-11-08T15:00:00	5	Humedad	86
5361	7	Sololá	701	Sololá	2	El tablón	12	Diciembre	2023-01-12T00:00:00	2024-11-08T15:00:00	6	Velocidad del viento	6.4
5362	7	Sololá	701	Sololá	2	El tablón	12	Diciembre	2023-01-12T00:00:00	2024-11-08T15:00:00	7	Dirección del viento	6.44
5363	7	Sololá	701	Sololá	2	El tablón	12	Diciembre	2023-01-12T00:00:00	2024-11-08T15:00:00	1	Precipitación	0
5364	7	Sololá	701	Sololá	2	El tablón	12	Diciembre	2023-01-12T00:00:00	2024-11-08T15:00:00	8	Radiación solar	229
5365	7	Sololá	701	Sololá	2	El tablón	12	Diciembre	2023-01-12T00:00:00	2024-11-08T16:00:00	2	Temperatura media	15.8
5366	7	Sololá	701	Sololá	2	El tablón	12	Diciembre	2023-01-12T00:00:00	2024-11-08T16:00:00	4	Temperatura máxima	16.7
5367	7	Sololá	701	Sololá	2	El tablón	12	Diciembre	2023-01-12T00:00:00	2024-11-08T16:00:00	3	Temperatura mínima	15.7
5368	7	Sololá	701	Sololá	2	El tablón	12	Diciembre	2023-01-12T00:00:00	2024-11-08T16:00:00	5	Humedad	88
5369	7	Sololá	701	Sololá	2	El tablón	12	Diciembre	2023-01-12T00:00:00	2024-11-08T16:00:00	6	Velocidad del viento	4.8
5370	7	Sololá	701	Sololá	2	El tablón	12	Diciembre	2023-01-12T00:00:00	2024-11-08T16:00:00	7	Dirección del viento	4.83
5371	7	Sololá	701	Sololá	2	El tablón	12	Diciembre	2023-01-12T00:00:00	2024-11-08T16:00:00	1	Precipitación	0
5372	7	Sololá	701	Sololá	2	El tablón	12	Diciembre	2023-01-12T00:00:00	2024-11-08T16:00:00	8	Radiación solar	101
5373	7	Sololá	701	Sololá	2	El tablón	12	Diciembre	2023-01-12T00:00:00	2024-11-08T17:00:00	2	Temperatura media	15.3
5374	7	Sololá	701	Sololá	2	El tablón	12	Diciembre	2023-01-12T00:00:00	2024-11-08T17:00:00	4	Temperatura máxima	16.3
5375	7	Sololá	701	Sololá	2	El tablón	12	Diciembre	2023-01-12T00:00:00	2024-11-08T17:00:00	3	Temperatura mínima	15.3
5376	7	Sololá	701	Sololá	2	El tablón	12	Diciembre	2023-01-12T00:00:00	2024-11-08T17:00:00	5	Humedad	88
5377	7	Sololá	701	Sololá	2	El tablón	12	Diciembre	2023-01-12T00:00:00	2024-11-08T17:00:00	6	Velocidad del viento	3.2
5378	7	Sololá	701	Sololá	2	El tablón	12	Diciembre	2023-01-12T00:00:00	2024-11-08T17:00:00	7	Dirección del viento	3.22
5379	7	Sololá	701	Sololá	2	El tablón	12	Diciembre	2023-01-12T00:00:00	2024-11-08T17:00:00	1	Precipitación	0
5380	7	Sololá	701	Sololá	2	El tablón	12	Diciembre	2023-01-12T00:00:00	2024-11-08T17:00:00	8	Radiación solar	75
5381	7	Sololá	701	Sololá	2	El tablón	12	Diciembre	2023-01-12T00:00:00	2024-11-08T18:00:00	2	Temperatura media	14.8
5382	7	Sololá	701	Sololá	2	El tablón	12	Diciembre	2023-01-12T00:00:00	2024-11-08T18:00:00	4	Temperatura máxima	15.4
5383	7	Sololá	701	Sololá	2	El tablón	12	Diciembre	2023-01-12T00:00:00	2024-11-08T18:00:00	3	Temperatura mínima	14.8
5384	7	Sololá	701	Sololá	2	El tablón	12	Diciembre	2023-01-12T00:00:00	2024-11-08T18:00:00	5	Humedad	88
5385	7	Sololá	701	Sololá	2	El tablón	12	Diciembre	2023-01-12T00:00:00	2024-11-08T18:00:00	6	Velocidad del viento	1.6
5386	7	Sololá	701	Sololá	2	El tablón	12	Diciembre	2023-01-12T00:00:00	2024-11-08T18:00:00	7	Dirección del viento	1.61
5387	7	Sololá	701	Sololá	2	El tablón	12	Diciembre	2023-01-12T00:00:00	2024-11-08T18:00:00	1	Precipitación	0
5388	7	Sololá	701	Sololá	2	El tablón	12	Diciembre	2023-01-12T00:00:00	2024-11-08T18:00:00	8	Radiación solar	10
5389	7	Sololá	701	Sololá	2	El tablón	12	Diciembre	2023-01-12T00:00:00	2024-11-08T19:00:00	2	Temperatura media	14.3
5390	7	Sololá	701	Sololá	2	El tablón	12	Diciembre	2023-01-12T00:00:00	2024-11-08T19:00:00	4	Temperatura máxima	14.8
5391	7	Sololá	701	Sololá	2	El tablón	12	Diciembre	2023-01-12T00:00:00	2024-11-08T19:00:00	3	Temperatura mínima	14.3
5392	7	Sololá	701	Sololá	2	El tablón	12	Diciembre	2023-01-12T00:00:00	2024-11-08T19:00:00	5	Humedad	88
5393	7	Sololá	701	Sololá	2	El tablón	12	Diciembre	2023-01-12T00:00:00	2024-11-08T19:00:00	6	Velocidad del viento	0
5394	7	Sololá	701	Sololá	2	El tablón	12	Diciembre	2023-01-12T00:00:00	2024-11-08T19:00:00	7	Dirección del viento	0
5395	7	Sololá	701	Sololá	2	El tablón	12	Diciembre	2023-01-12T00:00:00	2024-11-08T19:00:00	1	Precipitación	0
5396	7	Sololá	701	Sololá	2	El tablón	12	Diciembre	2023-01-12T00:00:00	2024-11-08T19:00:00	8	Radiación solar	0
5397	7	Sololá	701	Sololá	2	El tablón	12	Diciembre	2023-01-12T00:00:00	2024-11-08T20:00:00	2	Temperatura media	13.7
5398	7	Sololá	701	Sololá	2	El tablón	12	Diciembre	2023-01-12T00:00:00	2024-11-08T20:00:00	4	Temperatura máxima	14.3
5399	7	Sololá	701	Sololá	2	El tablón	12	Diciembre	2023-01-12T00:00:00	2024-11-08T20:00:00	3	Temperatura mínima	13.7
5400	7	Sololá	701	Sololá	2	El tablón	12	Diciembre	2023-01-12T00:00:00	2024-11-08T20:00:00	5	Humedad	88
5401	7	Sololá	701	Sololá	2	El tablón	12	Diciembre	2023-01-12T00:00:00	2024-11-08T20:00:00	6	Velocidad del viento	1.6
5402	7	Sololá	701	Sololá	2	El tablón	12	Diciembre	2023-01-12T00:00:00	2024-11-08T20:00:00	7	Dirección del viento	1.61
5403	7	Sololá	701	Sololá	2	El tablón	12	Diciembre	2023-01-12T00:00:00	2024-11-08T20:00:00	1	Precipitación	0
5404	7	Sololá	701	Sololá	2	El tablón	12	Diciembre	2023-01-12T00:00:00	2024-11-08T20:00:00	8	Radiación solar	0
5405	7	Sololá	701	Sololá	2	El tablón	12	Diciembre	2023-01-12T00:00:00	2024-11-08T21:00:00	2	Temperatura media	12.4
5406	7	Sololá	701	Sololá	2	El tablón	12	Diciembre	2023-01-12T00:00:00	2024-11-08T21:00:00	4	Temperatura máxima	13.7
5407	7	Sololá	701	Sololá	2	El tablón	12	Diciembre	2023-01-12T00:00:00	2024-11-08T21:00:00	3	Temperatura mínima	12.3
5408	7	Sololá	701	Sololá	2	El tablón	12	Diciembre	2023-01-12T00:00:00	2024-11-08T21:00:00	5	Humedad	89
5409	7	Sololá	701	Sololá	2	El tablón	12	Diciembre	2023-01-12T00:00:00	2024-11-08T21:00:00	6	Velocidad del viento	1.6
5410	7	Sololá	701	Sololá	2	El tablón	12	Diciembre	2023-01-12T00:00:00	2024-11-08T21:00:00	7	Dirección del viento	1.61
5411	7	Sololá	701	Sololá	2	El tablón	12	Diciembre	2023-01-12T00:00:00	2024-11-08T21:00:00	1	Precipitación	0
5412	7	Sololá	701	Sololá	2	El tablón	12	Diciembre	2023-01-12T00:00:00	2024-11-08T21:00:00	8	Radiación solar	0
5413	7	Sololá	701	Sololá	2	El tablón	12	Diciembre	2023-01-12T00:00:00	2024-11-08T22:00:00	2	Temperatura media	11.8
5414	7	Sololá	701	Sololá	2	El tablón	12	Diciembre	2023-01-12T00:00:00	2024-11-08T22:00:00	4	Temperatura máxima	13.1
5415	7	Sololá	701	Sololá	2	El tablón	12	Diciembre	2023-01-12T00:00:00	2024-11-08T22:00:00	3	Temperatura mínima	11.8
5416	7	Sololá	701	Sololá	2	El tablón	12	Diciembre	2023-01-12T00:00:00	2024-11-08T22:00:00	5	Humedad	89
5417	7	Sololá	701	Sololá	2	El tablón	12	Diciembre	2023-01-12T00:00:00	2024-11-08T22:00:00	6	Velocidad del viento	1.6
5418	7	Sololá	701	Sololá	2	El tablón	12	Diciembre	2023-01-12T00:00:00	2024-11-08T22:00:00	7	Dirección del viento	1.61
5419	7	Sololá	701	Sololá	2	El tablón	12	Diciembre	2023-01-12T00:00:00	2024-11-08T22:00:00	1	Precipitación	0
5420	7	Sololá	701	Sololá	2	El tablón	12	Diciembre	2023-01-12T00:00:00	2024-11-08T22:00:00	8	Radiación solar	0
5421	7	Sololá	701	Sololá	2	El tablón	12	Diciembre	2023-01-12T00:00:00	2024-11-08T23:00:00	2	Temperatura media	11.6
5422	7	Sololá	701	Sololá	2	El tablón	12	Diciembre	2023-01-12T00:00:00	2024-11-08T23:00:00	4	Temperatura máxima	11.9
5423	7	Sololá	701	Sololá	2	El tablón	12	Diciembre	2023-01-12T00:00:00	2024-11-08T23:00:00	3	Temperatura mínima	11.6
5424	7	Sololá	701	Sololá	2	El tablón	12	Diciembre	2023-01-12T00:00:00	2024-11-08T23:00:00	5	Humedad	89
5425	7	Sololá	701	Sololá	2	El tablón	12	Diciembre	2023-01-12T00:00:00	2024-11-08T23:00:00	6	Velocidad del viento	3.2
5426	7	Sololá	701	Sololá	2	El tablón	12	Diciembre	2023-01-12T00:00:00	2024-11-08T23:00:00	7	Dirección del viento	3.22
5427	7	Sololá	701	Sololá	2	El tablón	12	Diciembre	2023-01-12T00:00:00	2024-11-08T23:00:00	1	Precipitación	0
5428	7	Sololá	701	Sololá	2	El tablón	12	Diciembre	2023-01-12T00:00:00	2024-11-08T23:00:00	8	Radiación solar	0
5429	7	Sololá	701	Sololá	2	El tablón	12	Diciembre	2023-02-12T00:00:00	2024-11-08T00:00:00	2	Temperatura media	11.2
5430	7	Sololá	701	Sololá	2	El tablón	12	Diciembre	2023-02-12T00:00:00	2024-11-08T00:00:00	4	Temperatura máxima	11.6
5431	7	Sololá	701	Sololá	2	El tablón	12	Diciembre	2023-02-12T00:00:00	2024-11-08T00:00:00	3	Temperatura mínima	10.9
5432	7	Sololá	701	Sololá	2	El tablón	12	Diciembre	2023-02-12T00:00:00	2024-11-08T00:00:00	5	Humedad	89
5433	7	Sololá	701	Sololá	2	El tablón	12	Diciembre	2023-02-12T00:00:00	2024-11-08T00:00:00	6	Velocidad del viento	4.8
5434	7	Sololá	701	Sololá	2	El tablón	12	Diciembre	2023-02-12T00:00:00	2024-11-08T00:00:00	7	Dirección del viento	4.83
5435	7	Sololá	701	Sololá	2	El tablón	12	Diciembre	2023-02-12T00:00:00	2024-11-08T00:00:00	1	Precipitación	0
5436	7	Sololá	701	Sololá	2	El tablón	12	Diciembre	2023-02-12T00:00:00	2024-11-08T00:00:00	8	Radiación solar	0
5437	7	Sololá	701	Sololá	2	El tablón	12	Diciembre	2023-02-12T00:00:00	2024-11-08T01:00:00	2	Temperatura media	10.9
5438	7	Sololá	701	Sololá	2	El tablón	12	Diciembre	2023-02-12T00:00:00	2024-11-08T01:00:00	4	Temperatura máxima	11.2
5439	7	Sololá	701	Sololá	2	El tablón	12	Diciembre	2023-02-12T00:00:00	2024-11-08T01:00:00	3	Temperatura mínima	10.7
5440	7	Sololá	701	Sololá	2	El tablón	12	Diciembre	2023-02-12T00:00:00	2024-11-08T01:00:00	5	Humedad	86
5441	7	Sololá	701	Sololá	2	El tablón	12	Diciembre	2023-02-12T00:00:00	2024-11-08T01:00:00	6	Velocidad del viento	4.8
5442	7	Sololá	701	Sololá	2	El tablón	12	Diciembre	2023-02-12T00:00:00	2024-11-08T01:00:00	7	Dirección del viento	4.83
5443	7	Sololá	701	Sololá	2	El tablón	12	Diciembre	2023-02-12T00:00:00	2024-11-08T01:00:00	1	Precipitación	0
5444	7	Sololá	701	Sololá	2	El tablón	12	Diciembre	2023-02-12T00:00:00	2024-11-08T01:00:00	8	Radiación solar	0
5445	7	Sololá	701	Sololá	2	El tablón	12	Diciembre	2023-02-12T00:00:00	2024-11-08T02:00:00	2	Temperatura media	10.4
5446	7	Sololá	701	Sololá	2	El tablón	12	Diciembre	2023-02-12T00:00:00	2024-11-08T02:00:00	4	Temperatura máxima	10.9
5447	7	Sololá	701	Sololá	2	El tablón	12	Diciembre	2023-02-12T00:00:00	2024-11-08T02:00:00	3	Temperatura mínima	10.2
5448	7	Sololá	701	Sololá	2	El tablón	12	Diciembre	2023-02-12T00:00:00	2024-11-08T02:00:00	5	Humedad	81
5449	7	Sololá	701	Sololá	2	El tablón	12	Diciembre	2023-02-12T00:00:00	2024-11-08T02:00:00	6	Velocidad del viento	3.2
5450	7	Sololá	701	Sololá	2	El tablón	12	Diciembre	2023-02-12T00:00:00	2024-11-08T02:00:00	7	Dirección del viento	3.22
5451	7	Sololá	701	Sololá	2	El tablón	12	Diciembre	2023-02-12T00:00:00	2024-11-08T02:00:00	1	Precipitación	0
5452	7	Sololá	701	Sololá	2	El tablón	12	Diciembre	2023-02-12T00:00:00	2024-11-08T02:00:00	8	Radiación solar	0
5453	7	Sololá	701	Sololá	2	El tablón	12	Diciembre	2023-02-12T00:00:00	2024-11-08T03:00:00	2	Temperatura media	9.6
5454	7	Sololá	701	Sololá	2	El tablón	12	Diciembre	2023-02-12T00:00:00	2024-11-08T03:00:00	4	Temperatura máxima	10.4
5455	7	Sololá	701	Sololá	2	El tablón	12	Diciembre	2023-02-12T00:00:00	2024-11-08T03:00:00	3	Temperatura mínima	9.3
5456	7	Sololá	701	Sololá	2	El tablón	12	Diciembre	2023-02-12T00:00:00	2024-11-08T03:00:00	5	Humedad	79
5457	7	Sololá	701	Sololá	2	El tablón	12	Diciembre	2023-02-12T00:00:00	2024-11-08T03:00:00	6	Velocidad del viento	4.8
5458	7	Sololá	701	Sololá	2	El tablón	12	Diciembre	2023-02-12T00:00:00	2024-11-08T03:00:00	7	Dirección del viento	4.83
5459	7	Sololá	701	Sololá	2	El tablón	12	Diciembre	2023-02-12T00:00:00	2024-11-08T03:00:00	1	Precipitación	0
5460	7	Sololá	701	Sololá	2	El tablón	12	Diciembre	2023-02-12T00:00:00	2024-11-08T03:00:00	8	Radiación solar	0
5461	7	Sololá	701	Sololá	2	El tablón	12	Diciembre	2023-02-12T00:00:00	2024-11-08T04:00:00	2	Temperatura media	9.3
5462	7	Sololá	701	Sololá	2	El tablón	12	Diciembre	2023-02-12T00:00:00	2024-11-08T04:00:00	4	Temperatura máxima	9.9
5463	7	Sololá	701	Sololá	2	El tablón	12	Diciembre	2023-02-12T00:00:00	2024-11-08T04:00:00	3	Temperatura mínima	9.3
5464	7	Sololá	701	Sololá	2	El tablón	12	Diciembre	2023-02-12T00:00:00	2024-11-08T04:00:00	5	Humedad	74
5465	7	Sololá	701	Sololá	2	El tablón	12	Diciembre	2023-02-12T00:00:00	2024-11-08T04:00:00	6	Velocidad del viento	4.8
5466	7	Sololá	701	Sololá	2	El tablón	12	Diciembre	2023-02-12T00:00:00	2024-11-08T04:00:00	7	Dirección del viento	4.83
5467	7	Sololá	701	Sololá	2	El tablón	12	Diciembre	2023-02-12T00:00:00	2024-11-08T04:00:00	1	Precipitación	0
5468	7	Sololá	701	Sololá	2	El tablón	12	Diciembre	2023-02-12T00:00:00	2024-11-08T04:00:00	8	Radiación solar	0
5469	7	Sololá	701	Sololá	2	El tablón	12	Diciembre	2023-02-12T00:00:00	2024-11-08T05:00:00	2	Temperatura media	9.1
5470	7	Sololá	701	Sololá	2	El tablón	12	Diciembre	2023-02-12T00:00:00	2024-11-08T05:00:00	4	Temperatura máxima	10
5471	7	Sololá	701	Sololá	2	El tablón	12	Diciembre	2023-02-12T00:00:00	2024-11-08T05:00:00	3	Temperatura mínima	9.1
5472	7	Sololá	701	Sololá	2	El tablón	12	Diciembre	2023-02-12T00:00:00	2024-11-08T05:00:00	5	Humedad	71
5473	7	Sololá	701	Sololá	2	El tablón	12	Diciembre	2023-02-12T00:00:00	2024-11-08T05:00:00	6	Velocidad del viento	4.8
5474	7	Sololá	701	Sololá	2	El tablón	12	Diciembre	2023-02-12T00:00:00	2024-11-08T05:00:00	7	Dirección del viento	4.83
5475	7	Sololá	701	Sololá	2	El tablón	12	Diciembre	2023-02-12T00:00:00	2024-11-08T05:00:00	1	Precipitación	0
5476	7	Sololá	701	Sololá	2	El tablón	12	Diciembre	2023-02-12T00:00:00	2024-11-08T05:00:00	8	Radiación solar	0
5477	7	Sololá	701	Sololá	2	El tablón	12	Diciembre	2023-02-12T00:00:00	2024-11-08T06:00:00	2	Temperatura media	10.1
5478	7	Sololá	701	Sololá	2	El tablón	12	Diciembre	2023-02-12T00:00:00	2024-11-08T06:00:00	4	Temperatura máxima	10.1
5479	7	Sololá	701	Sololá	2	El tablón	12	Diciembre	2023-02-12T00:00:00	2024-11-08T06:00:00	3	Temperatura mínima	8.8
5480	7	Sololá	701	Sololá	2	El tablón	12	Diciembre	2023-02-12T00:00:00	2024-11-08T06:00:00	5	Humedad	66
5481	7	Sololá	701	Sololá	2	El tablón	12	Diciembre	2023-02-12T00:00:00	2024-11-08T06:00:00	6	Velocidad del viento	4.8
5482	7	Sololá	701	Sololá	2	El tablón	12	Diciembre	2023-02-12T00:00:00	2024-11-08T06:00:00	7	Dirección del viento	4.83
5483	7	Sololá	701	Sololá	2	El tablón	12	Diciembre	2023-02-12T00:00:00	2024-11-08T06:00:00	1	Precipitación	0
5484	7	Sololá	701	Sololá	2	El tablón	12	Diciembre	2023-02-12T00:00:00	2024-11-08T06:00:00	8	Radiación solar	0
5485	7	Sololá	701	Sololá	2	El tablón	12	Diciembre	2023-02-12T00:00:00	2024-11-08T07:00:00	2	Temperatura media	10.5
5486	7	Sololá	701	Sololá	2	El tablón	12	Diciembre	2023-02-12T00:00:00	2024-11-08T07:00:00	4	Temperatura máxima	10.8
5487	7	Sololá	701	Sololá	2	El tablón	12	Diciembre	2023-02-12T00:00:00	2024-11-08T07:00:00	3	Temperatura mínima	9.4
5488	7	Sololá	701	Sololá	2	El tablón	12	Diciembre	2023-02-12T00:00:00	2024-11-08T07:00:00	5	Humedad	65
5489	7	Sololá	701	Sololá	2	El tablón	12	Diciembre	2023-02-12T00:00:00	2024-11-08T07:00:00	6	Velocidad del viento	4.8
5490	7	Sololá	701	Sololá	2	El tablón	12	Diciembre	2023-02-12T00:00:00	2024-11-08T07:00:00	7	Dirección del viento	4.83
5491	7	Sololá	701	Sololá	2	El tablón	12	Diciembre	2023-02-12T00:00:00	2024-11-08T07:00:00	1	Precipitación	0
5492	7	Sololá	701	Sololá	2	El tablón	12	Diciembre	2023-02-12T00:00:00	2024-11-08T07:00:00	8	Radiación solar	22
5493	7	Sololá	701	Sololá	2	El tablón	12	Diciembre	2023-02-12T00:00:00	2024-11-08T08:00:00	2	Temperatura media	14.4
5494	7	Sololá	701	Sololá	2	El tablón	12	Diciembre	2023-02-12T00:00:00	2024-11-08T08:00:00	4	Temperatura máxima	14.4
5495	7	Sololá	701	Sololá	2	El tablón	12	Diciembre	2023-02-12T00:00:00	2024-11-08T08:00:00	3	Temperatura mínima	10.4
5496	7	Sololá	701	Sololá	2	El tablón	12	Diciembre	2023-02-12T00:00:00	2024-11-08T08:00:00	5	Humedad	66
5497	7	Sololá	701	Sololá	2	El tablón	12	Diciembre	2023-02-12T00:00:00	2024-11-08T08:00:00	6	Velocidad del viento	1.6
5498	7	Sololá	701	Sololá	2	El tablón	12	Diciembre	2023-02-12T00:00:00	2024-11-08T08:00:00	7	Dirección del viento	1.61
5499	7	Sololá	701	Sololá	2	El tablón	12	Diciembre	2023-02-12T00:00:00	2024-11-08T08:00:00	1	Precipitación	0
5500	7	Sololá	701	Sololá	2	El tablón	12	Diciembre	2023-02-12T00:00:00	2024-11-08T08:00:00	8	Radiación solar	186
5501	7	Sololá	701	Sololá	2	El tablón	12	Diciembre	2023-02-12T00:00:00	2024-11-08T09:00:00	2	Temperatura media	19.2
5502	7	Sololá	701	Sololá	2	El tablón	12	Diciembre	2023-02-12T00:00:00	2024-11-08T09:00:00	4	Temperatura máxima	19.2
5503	7	Sololá	701	Sololá	2	El tablón	12	Diciembre	2023-02-12T00:00:00	2024-11-08T09:00:00	3	Temperatura mínima	14.4
5504	7	Sololá	701	Sololá	2	El tablón	12	Diciembre	2023-02-12T00:00:00	2024-11-08T09:00:00	5	Humedad	52
5505	7	Sololá	701	Sololá	2	El tablón	12	Diciembre	2023-02-12T00:00:00	2024-11-08T09:00:00	6	Velocidad del viento	3.2
5506	7	Sololá	701	Sololá	2	El tablón	12	Diciembre	2023-02-12T00:00:00	2024-11-08T09:00:00	7	Dirección del viento	3.22
5507	7	Sololá	701	Sololá	2	El tablón	12	Diciembre	2023-02-12T00:00:00	2024-11-08T09:00:00	1	Precipitación	0
5508	7	Sololá	701	Sololá	2	El tablón	12	Diciembre	2023-02-12T00:00:00	2024-11-08T09:00:00	8	Radiación solar	420
5509	7	Sololá	701	Sololá	2	El tablón	12	Diciembre	2023-02-12T00:00:00	2024-11-08T10:00:00	2	Temperatura media	19.5
5510	7	Sololá	701	Sololá	2	El tablón	12	Diciembre	2023-02-12T00:00:00	2024-11-08T10:00:00	4	Temperatura máxima	19.9
5511	7	Sololá	701	Sololá	2	El tablón	12	Diciembre	2023-02-12T00:00:00	2024-11-08T10:00:00	3	Temperatura mínima	19.1
5512	7	Sololá	701	Sololá	2	El tablón	12	Diciembre	2023-02-12T00:00:00	2024-11-08T10:00:00	5	Humedad	55
5513	7	Sololá	701	Sololá	2	El tablón	12	Diciembre	2023-02-12T00:00:00	2024-11-08T10:00:00	6	Velocidad del viento	6.4
5514	7	Sololá	701	Sololá	2	El tablón	12	Diciembre	2023-02-12T00:00:00	2024-11-08T10:00:00	7	Dirección del viento	6.44
5515	7	Sololá	701	Sololá	2	El tablón	12	Diciembre	2023-02-12T00:00:00	2024-11-08T10:00:00	1	Precipitación	0
5516	7	Sololá	701	Sololá	2	El tablón	12	Diciembre	2023-02-12T00:00:00	2024-11-08T10:00:00	8	Radiación solar	594
5517	7	Sololá	701	Sololá	2	El tablón	12	Diciembre	2023-02-12T00:00:00	2024-11-08T11:00:00	2	Temperatura media	19.9
5518	7	Sololá	701	Sololá	2	El tablón	12	Diciembre	2023-02-12T00:00:00	2024-11-08T11:00:00	4	Temperatura máxima	20.3
5519	7	Sololá	701	Sololá	2	El tablón	12	Diciembre	2023-02-12T00:00:00	2024-11-08T11:00:00	3	Temperatura mínima	19.4
5520	7	Sololá	701	Sololá	2	El tablón	12	Diciembre	2023-02-12T00:00:00	2024-11-08T11:00:00	5	Humedad	61
5521	7	Sololá	701	Sololá	2	El tablón	12	Diciembre	2023-02-12T00:00:00	2024-11-08T11:00:00	6	Velocidad del viento	6.4
5522	7	Sololá	701	Sololá	2	El tablón	12	Diciembre	2023-02-12T00:00:00	2024-11-08T11:00:00	7	Dirección del viento	6.44
5523	7	Sololá	701	Sololá	2	El tablón	12	Diciembre	2023-02-12T00:00:00	2024-11-08T11:00:00	1	Precipitación	0
5524	7	Sololá	701	Sololá	2	El tablón	12	Diciembre	2023-02-12T00:00:00	2024-11-08T11:00:00	8	Radiación solar	710
5525	7	Sololá	701	Sololá	2	El tablón	12	Diciembre	2023-02-12T00:00:00	2024-11-08T12:00:00	2	Temperatura media	19.4
5526	7	Sololá	701	Sololá	2	El tablón	12	Diciembre	2023-02-12T00:00:00	2024-11-08T12:00:00	4	Temperatura máxima	20.5
5527	7	Sololá	701	Sololá	2	El tablón	12	Diciembre	2023-02-12T00:00:00	2024-11-08T12:00:00	3	Temperatura mínima	19.4
5528	7	Sololá	701	Sololá	2	El tablón	12	Diciembre	2023-02-12T00:00:00	2024-11-08T12:00:00	5	Humedad	60
5529	7	Sololá	701	Sololá	2	El tablón	12	Diciembre	2023-02-12T00:00:00	2024-11-08T12:00:00	6	Velocidad del viento	8
5530	7	Sololá	701	Sololá	2	El tablón	12	Diciembre	2023-02-12T00:00:00	2024-11-08T12:00:00	7	Dirección del viento	8.05
5531	7	Sololá	701	Sololá	2	El tablón	12	Diciembre	2023-02-12T00:00:00	2024-11-08T12:00:00	1	Precipitación	0
5532	7	Sololá	701	Sololá	2	El tablón	12	Diciembre	2023-02-12T00:00:00	2024-11-08T12:00:00	8	Radiación solar	677
5533	7	Sololá	701	Sololá	2	El tablón	12	Diciembre	2023-02-12T00:00:00	2024-11-08T13:00:00	2	Temperatura media	19.9
5534	7	Sololá	701	Sololá	2	El tablón	12	Diciembre	2023-02-12T00:00:00	2024-11-08T13:00:00	4	Temperatura máxima	20.4
5535	7	Sololá	701	Sololá	2	El tablón	12	Diciembre	2023-02-12T00:00:00	2024-11-08T13:00:00	3	Temperatura mínima	19.3
5536	7	Sololá	701	Sololá	2	El tablón	12	Diciembre	2023-02-12T00:00:00	2024-11-08T13:00:00	5	Humedad	60
5537	7	Sololá	701	Sololá	2	El tablón	12	Diciembre	2023-02-12T00:00:00	2024-11-08T13:00:00	6	Velocidad del viento	8
5538	7	Sololá	701	Sololá	2	El tablón	12	Diciembre	2023-02-12T00:00:00	2024-11-08T13:00:00	7	Dirección del viento	8.05
5539	7	Sololá	701	Sololá	2	El tablón	12	Diciembre	2023-02-12T00:00:00	2024-11-08T13:00:00	1	Precipitación	0
5540	7	Sololá	701	Sololá	2	El tablón	12	Diciembre	2023-02-12T00:00:00	2024-11-08T13:00:00	8	Radiación solar	757
5541	7	Sololá	701	Sololá	2	El tablón	12	Diciembre	2023-02-12T00:00:00	2024-11-08T14:00:00	2	Temperatura media	19.9
5542	7	Sololá	701	Sololá	2	El tablón	12	Diciembre	2023-02-12T00:00:00	2024-11-08T14:00:00	4	Temperatura máxima	20.1
5543	7	Sololá	701	Sololá	2	El tablón	12	Diciembre	2023-02-12T00:00:00	2024-11-08T14:00:00	3	Temperatura mínima	19.5
5544	7	Sololá	701	Sololá	2	El tablón	12	Diciembre	2023-02-12T00:00:00	2024-11-08T14:00:00	5	Humedad	65
5545	7	Sololá	701	Sololá	2	El tablón	12	Diciembre	2023-02-12T00:00:00	2024-11-08T14:00:00	6	Velocidad del viento	6.4
5546	7	Sololá	701	Sololá	2	El tablón	12	Diciembre	2023-02-12T00:00:00	2024-11-08T14:00:00	7	Dirección del viento	6.44
5547	7	Sololá	701	Sololá	2	El tablón	12	Diciembre	2023-02-12T00:00:00	2024-11-08T14:00:00	1	Precipitación	0
5548	7	Sololá	701	Sololá	2	El tablón	12	Diciembre	2023-02-12T00:00:00	2024-11-08T14:00:00	8	Radiación solar	712
5549	7	Sololá	701	Sololá	2	El tablón	12	Diciembre	2023-02-12T00:00:00	2024-11-08T15:00:00	2	Temperatura media	19.7
5550	7	Sololá	701	Sololá	2	El tablón	12	Diciembre	2023-02-12T00:00:00	2024-11-08T15:00:00	4	Temperatura máxima	20
5551	7	Sololá	701	Sololá	2	El tablón	12	Diciembre	2023-02-12T00:00:00	2024-11-08T15:00:00	3	Temperatura mínima	19.3
5552	7	Sololá	701	Sololá	2	El tablón	12	Diciembre	2023-02-12T00:00:00	2024-11-08T15:00:00	5	Humedad	74
5553	7	Sololá	701	Sololá	2	El tablón	12	Diciembre	2023-02-12T00:00:00	2024-11-08T15:00:00	6	Velocidad del viento	6.4
5554	7	Sololá	701	Sololá	2	El tablón	12	Diciembre	2023-02-12T00:00:00	2024-11-08T15:00:00	7	Dirección del viento	6.44
5555	7	Sololá	701	Sololá	2	El tablón	12	Diciembre	2023-02-12T00:00:00	2024-11-08T15:00:00	1	Precipitación	0
5556	7	Sololá	701	Sololá	2	El tablón	12	Diciembre	2023-02-12T00:00:00	2024-11-08T15:00:00	8	Radiación solar	580
5557	7	Sololá	701	Sololá	2	El tablón	12	Diciembre	2023-02-12T00:00:00	2024-11-08T16:00:00	2	Temperatura media	18.4
5558	7	Sololá	701	Sololá	2	El tablón	12	Diciembre	2023-02-12T00:00:00	2024-11-08T16:00:00	4	Temperatura máxima	19.7
5559	7	Sololá	701	Sololá	2	El tablón	12	Diciembre	2023-02-12T00:00:00	2024-11-08T16:00:00	3	Temperatura mínima	18.3
5560	7	Sololá	701	Sololá	2	El tablón	12	Diciembre	2023-02-12T00:00:00	2024-11-08T16:00:00	5	Humedad	81
5561	7	Sololá	701	Sololá	2	El tablón	12	Diciembre	2023-02-12T00:00:00	2024-11-08T16:00:00	6	Velocidad del viento	6.4
5562	7	Sololá	701	Sololá	2	El tablón	12	Diciembre	2023-02-12T00:00:00	2024-11-08T16:00:00	7	Dirección del viento	6.44
5563	7	Sololá	701	Sololá	2	El tablón	12	Diciembre	2023-02-12T00:00:00	2024-11-08T16:00:00	1	Precipitación	0
5564	7	Sololá	701	Sololá	2	El tablón	12	Diciembre	2023-02-12T00:00:00	2024-11-08T16:00:00	8	Radiación solar	394
5565	7	Sololá	701	Sololá	2	El tablón	12	Diciembre	2023-02-12T00:00:00	2024-11-08T17:00:00	2	Temperatura media	16.7
5566	7	Sololá	701	Sololá	2	El tablón	12	Diciembre	2023-02-12T00:00:00	2024-11-08T17:00:00	4	Temperatura máxima	18.4
5567	7	Sololá	701	Sololá	2	El tablón	12	Diciembre	2023-02-12T00:00:00	2024-11-08T17:00:00	3	Temperatura mínima	16.7
5568	7	Sololá	701	Sololá	2	El tablón	12	Diciembre	2023-02-12T00:00:00	2024-11-08T17:00:00	5	Humedad	85
5569	7	Sololá	701	Sololá	2	El tablón	12	Diciembre	2023-02-12T00:00:00	2024-11-08T17:00:00	6	Velocidad del viento	3.2
5570	7	Sololá	701	Sololá	2	El tablón	12	Diciembre	2023-02-12T00:00:00	2024-11-08T17:00:00	7	Dirección del viento	3.22
5571	7	Sololá	701	Sololá	2	El tablón	12	Diciembre	2023-02-12T00:00:00	2024-11-08T17:00:00	1	Precipitación	0
5572	7	Sololá	701	Sololá	2	El tablón	12	Diciembre	2023-02-12T00:00:00	2024-11-08T17:00:00	8	Radiación solar	135
5573	7	Sololá	701	Sololá	2	El tablón	12	Diciembre	2023-02-12T00:00:00	2024-11-08T18:00:00	2	Temperatura media	15.7
5574	7	Sololá	701	Sololá	2	El tablón	12	Diciembre	2023-02-12T00:00:00	2024-11-08T18:00:00	4	Temperatura máxima	16.7
5575	7	Sololá	701	Sololá	2	El tablón	12	Diciembre	2023-02-12T00:00:00	2024-11-08T18:00:00	3	Temperatura mínima	15.4
5576	7	Sololá	701	Sololá	2	El tablón	12	Diciembre	2023-02-12T00:00:00	2024-11-08T18:00:00	5	Humedad	65
5577	7	Sololá	701	Sololá	2	El tablón	12	Diciembre	2023-02-12T00:00:00	2024-11-08T18:00:00	6	Velocidad del viento	1.6
5578	7	Sololá	701	Sololá	2	El tablón	12	Diciembre	2023-02-12T00:00:00	2024-11-08T18:00:00	7	Dirección del viento	1.61
5579	7	Sololá	701	Sololá	2	El tablón	12	Diciembre	2023-02-12T00:00:00	2024-11-08T18:00:00	1	Precipitación	0
5580	7	Sololá	701	Sololá	2	El tablón	12	Diciembre	2023-02-12T00:00:00	2024-11-08T18:00:00	8	Radiación solar	12
5581	7	Sololá	701	Sololá	2	El tablón	12	Diciembre	2023-02-12T00:00:00	2024-11-08T19:00:00	2	Temperatura media	15.3
5582	7	Sololá	701	Sololá	2	El tablón	12	Diciembre	2023-02-12T00:00:00	2024-11-08T19:00:00	4	Temperatura máxima	15.7
5583	7	Sololá	701	Sololá	2	El tablón	12	Diciembre	2023-02-12T00:00:00	2024-11-08T19:00:00	3	Temperatura mínima	15.2
5584	7	Sololá	701	Sololá	2	El tablón	12	Diciembre	2023-02-12T00:00:00	2024-11-08T19:00:00	5	Humedad	60
5585	7	Sololá	701	Sololá	2	El tablón	12	Diciembre	2023-02-12T00:00:00	2024-11-08T19:00:00	6	Velocidad del viento	4.8
5586	7	Sololá	701	Sololá	2	El tablón	12	Diciembre	2023-02-12T00:00:00	2024-11-08T19:00:00	7	Dirección del viento	4.83
5587	7	Sololá	701	Sololá	2	El tablón	12	Diciembre	2023-02-12T00:00:00	2024-11-08T19:00:00	1	Precipitación	0
5588	7	Sololá	701	Sololá	2	El tablón	12	Diciembre	2023-02-12T00:00:00	2024-11-08T19:00:00	8	Radiación solar	0
5589	7	Sololá	701	Sololá	2	El tablón	12	Diciembre	2023-02-12T00:00:00	2024-11-08T20:00:00	2	Temperatura media	14.8
5590	7	Sololá	701	Sololá	2	El tablón	12	Diciembre	2023-02-12T00:00:00	2024-11-08T20:00:00	4	Temperatura máxima	15.3
5591	7	Sololá	701	Sololá	2	El tablón	12	Diciembre	2023-02-12T00:00:00	2024-11-08T20:00:00	3	Temperatura mínima	14.8
5592	7	Sololá	701	Sololá	2	El tablón	12	Diciembre	2023-02-12T00:00:00	2024-11-08T20:00:00	5	Humedad	66
5593	7	Sololá	701	Sololá	2	El tablón	12	Diciembre	2023-02-12T00:00:00	2024-11-08T20:00:00	6	Velocidad del viento	4.8
5594	7	Sololá	701	Sololá	2	El tablón	12	Diciembre	2023-02-12T00:00:00	2024-11-08T20:00:00	7	Dirección del viento	4.83
5595	7	Sololá	701	Sololá	2	El tablón	12	Diciembre	2023-02-12T00:00:00	2024-11-08T20:00:00	1	Precipitación	0
5596	7	Sololá	701	Sololá	2	El tablón	12	Diciembre	2023-02-12T00:00:00	2024-11-08T20:00:00	8	Radiación solar	0
5597	7	Sololá	701	Sololá	2	El tablón	12	Diciembre	2023-02-12T00:00:00	2024-11-08T21:00:00	2	Temperatura media	14.5
5598	7	Sololá	701	Sololá	2	El tablón	12	Diciembre	2023-02-12T00:00:00	2024-11-08T21:00:00	4	Temperatura máxima	14.8
5599	7	Sololá	701	Sololá	2	El tablón	12	Diciembre	2023-02-12T00:00:00	2024-11-08T21:00:00	3	Temperatura mínima	14.5
5600	7	Sololá	701	Sololá	2	El tablón	12	Diciembre	2023-02-12T00:00:00	2024-11-08T21:00:00	5	Humedad	78
5601	7	Sololá	701	Sololá	2	El tablón	12	Diciembre	2023-02-12T00:00:00	2024-11-08T21:00:00	6	Velocidad del viento	6.4
5602	7	Sololá	701	Sololá	2	El tablón	12	Diciembre	2023-02-12T00:00:00	2024-11-08T21:00:00	7	Dirección del viento	6.44
5603	7	Sololá	701	Sololá	2	El tablón	12	Diciembre	2023-02-12T00:00:00	2024-11-08T21:00:00	1	Precipitación	0
5604	7	Sololá	701	Sololá	2	El tablón	12	Diciembre	2023-02-12T00:00:00	2024-11-08T21:00:00	8	Radiación solar	0
5605	7	Sololá	701	Sololá	2	El tablón	12	Diciembre	2023-02-12T00:00:00	2024-11-08T22:00:00	2	Temperatura media	13.9
5606	7	Sololá	701	Sololá	2	El tablón	12	Diciembre	2023-02-12T00:00:00	2024-11-08T22:00:00	4	Temperatura máxima	14.6
5607	7	Sololá	701	Sololá	2	El tablón	12	Diciembre	2023-02-12T00:00:00	2024-11-08T22:00:00	3	Temperatura mínima	13.9
5608	7	Sololá	701	Sololá	2	El tablón	12	Diciembre	2023-02-12T00:00:00	2024-11-08T22:00:00	5	Humedad	81
5609	7	Sololá	701	Sololá	2	El tablón	12	Diciembre	2023-02-12T00:00:00	2024-11-08T22:00:00	6	Velocidad del viento	4.8
5610	7	Sololá	701	Sololá	2	El tablón	12	Diciembre	2023-02-12T00:00:00	2024-11-08T22:00:00	7	Dirección del viento	4.83
5611	7	Sololá	701	Sololá	2	El tablón	12	Diciembre	2023-02-12T00:00:00	2024-11-08T22:00:00	1	Precipitación	0
5612	7	Sololá	701	Sololá	2	El tablón	12	Diciembre	2023-02-12T00:00:00	2024-11-08T22:00:00	8	Radiación solar	0
5613	7	Sololá	701	Sololá	2	El tablón	12	Diciembre	2023-02-12T00:00:00	2024-11-08T23:00:00	2	Temperatura media	12.1
5614	7	Sololá	701	Sololá	2	El tablón	12	Diciembre	2023-02-12T00:00:00	2024-11-08T23:00:00	4	Temperatura máxima	14
5615	7	Sololá	701	Sololá	2	El tablón	12	Diciembre	2023-02-12T00:00:00	2024-11-08T23:00:00	3	Temperatura mínima	12.1
5616	7	Sololá	701	Sololá	2	El tablón	12	Diciembre	2023-02-12T00:00:00	2024-11-08T23:00:00	5	Humedad	84
5617	7	Sololá	701	Sololá	2	El tablón	12	Diciembre	2023-02-12T00:00:00	2024-11-08T23:00:00	6	Velocidad del viento	4.8
5618	7	Sololá	701	Sololá	2	El tablón	12	Diciembre	2023-02-12T00:00:00	2024-11-08T23:00:00	7	Dirección del viento	4.83
5619	7	Sololá	701	Sololá	2	El tablón	12	Diciembre	2023-02-12T00:00:00	2024-11-08T23:00:00	1	Precipitación	0
5620	7	Sololá	701	Sololá	2	El tablón	12	Diciembre	2023-02-12T00:00:00	2024-11-08T23:00:00	8	Radiación solar	0
5621	7	Sololá	701	Sololá	2	El tablón	12	Diciembre	2023-03-12T00:00:00	2024-11-08T00:00:00	2	Temperatura media	12.6
5622	7	Sololá	701	Sololá	2	El tablón	12	Diciembre	2023-03-12T00:00:00	2024-11-08T00:00:00	4	Temperatura máxima	12.6
5623	7	Sololá	701	Sololá	2	El tablón	12	Diciembre	2023-03-12T00:00:00	2024-11-08T00:00:00	3	Temperatura mínima	11.7
5624	7	Sololá	701	Sololá	2	El tablón	12	Diciembre	2023-03-12T00:00:00	2024-11-08T00:00:00	5	Humedad	81
5625	7	Sololá	701	Sololá	2	El tablón	12	Diciembre	2023-03-12T00:00:00	2024-11-08T00:00:00	6	Velocidad del viento	4.8
5626	7	Sololá	701	Sololá	2	El tablón	12	Diciembre	2023-03-12T00:00:00	2024-11-08T00:00:00	7	Dirección del viento	4.83
5627	7	Sololá	701	Sololá	2	El tablón	12	Diciembre	2023-03-12T00:00:00	2024-11-08T00:00:00	1	Precipitación	0
5628	7	Sololá	701	Sololá	2	El tablón	12	Diciembre	2023-03-12T00:00:00	2024-11-08T00:00:00	8	Radiación solar	0
5629	7	Sololá	701	Sololá	2	El tablón	12	Diciembre	2023-03-12T00:00:00	2024-11-08T01:00:00	2	Temperatura media	13.2
5630	7	Sololá	701	Sololá	2	El tablón	12	Diciembre	2023-03-12T00:00:00	2024-11-08T01:00:00	4	Temperatura máxima	13.3
5631	7	Sololá	701	Sololá	2	El tablón	12	Diciembre	2023-03-12T00:00:00	2024-11-08T01:00:00	3	Temperatura mínima	12.5
5632	7	Sololá	701	Sololá	2	El tablón	12	Diciembre	2023-03-12T00:00:00	2024-11-08T01:00:00	5	Humedad	80
5633	7	Sololá	701	Sololá	2	El tablón	12	Diciembre	2023-03-12T00:00:00	2024-11-08T01:00:00	6	Velocidad del viento	6.4
5634	7	Sololá	701	Sololá	2	El tablón	12	Diciembre	2023-03-12T00:00:00	2024-11-08T01:00:00	7	Dirección del viento	6.44
5635	7	Sololá	701	Sololá	2	El tablón	12	Diciembre	2023-03-12T00:00:00	2024-11-08T01:00:00	1	Precipitación	0
5636	7	Sololá	701	Sololá	2	El tablón	12	Diciembre	2023-03-12T00:00:00	2024-11-08T01:00:00	8	Radiación solar	0
5637	7	Sololá	701	Sololá	2	El tablón	12	Diciembre	2023-03-12T00:00:00	2024-11-08T02:00:00	2	Temperatura media	12.9
5638	7	Sololá	701	Sololá	2	El tablón	12	Diciembre	2023-03-12T00:00:00	2024-11-08T02:00:00	4	Temperatura máxima	13.2
5639	7	Sololá	701	Sololá	2	El tablón	12	Diciembre	2023-03-12T00:00:00	2024-11-08T02:00:00	3	Temperatura mínima	12.9
5640	7	Sololá	701	Sololá	2	El tablón	12	Diciembre	2023-03-12T00:00:00	2024-11-08T02:00:00	5	Humedad	82
5641	7	Sololá	701	Sololá	2	El tablón	12	Diciembre	2023-03-12T00:00:00	2024-11-08T02:00:00	6	Velocidad del viento	6.4
5642	7	Sololá	701	Sololá	2	El tablón	12	Diciembre	2023-03-12T00:00:00	2024-11-08T02:00:00	7	Dirección del viento	6.44
5643	7	Sololá	701	Sololá	2	El tablón	12	Diciembre	2023-03-12T00:00:00	2024-11-08T02:00:00	1	Precipitación	0
5644	7	Sololá	701	Sololá	2	El tablón	12	Diciembre	2023-03-12T00:00:00	2024-11-08T02:00:00	8	Radiación solar	0
5645	7	Sololá	701	Sololá	2	El tablón	12	Diciembre	2023-03-12T00:00:00	2024-11-08T03:00:00	2	Temperatura media	12.4
5646	7	Sololá	701	Sololá	2	El tablón	12	Diciembre	2023-03-12T00:00:00	2024-11-08T03:00:00	4	Temperatura máxima	12.9
5647	7	Sololá	701	Sololá	2	El tablón	12	Diciembre	2023-03-12T00:00:00	2024-11-08T03:00:00	3	Temperatura mínima	11.8
5648	7	Sololá	701	Sololá	2	El tablón	12	Diciembre	2023-03-12T00:00:00	2024-11-08T03:00:00	5	Humedad	67
5649	7	Sololá	701	Sololá	2	El tablón	12	Diciembre	2023-03-12T00:00:00	2024-11-08T03:00:00	6	Velocidad del viento	6.4
5650	7	Sololá	701	Sololá	2	El tablón	12	Diciembre	2023-03-12T00:00:00	2024-11-08T03:00:00	7	Dirección del viento	6.44
5651	7	Sololá	701	Sololá	2	El tablón	12	Diciembre	2023-03-12T00:00:00	2024-11-08T03:00:00	1	Precipitación	0
5652	7	Sololá	701	Sololá	2	El tablón	12	Diciembre	2023-03-12T00:00:00	2024-11-08T03:00:00	8	Radiación solar	0
5653	7	Sololá	701	Sololá	2	El tablón	12	Diciembre	2023-03-12T00:00:00	2024-11-08T04:00:00	2	Temperatura media	13.1
5654	7	Sololá	701	Sololá	2	El tablón	12	Diciembre	2023-03-12T00:00:00	2024-11-08T04:00:00	4	Temperatura máxima	13.1
5655	7	Sololá	701	Sololá	2	El tablón	12	Diciembre	2023-03-12T00:00:00	2024-11-08T04:00:00	3	Temperatura mínima	12.2
5656	7	Sololá	701	Sololá	2	El tablón	12	Diciembre	2023-03-12T00:00:00	2024-11-08T04:00:00	5	Humedad	62
5657	7	Sololá	701	Sololá	2	El tablón	12	Diciembre	2023-03-12T00:00:00	2024-11-08T04:00:00	6	Velocidad del viento	4.8
5658	7	Sololá	701	Sololá	2	El tablón	12	Diciembre	2023-03-12T00:00:00	2024-11-08T04:00:00	7	Dirección del viento	4.83
5659	7	Sololá	701	Sololá	2	El tablón	12	Diciembre	2023-03-12T00:00:00	2024-11-08T04:00:00	1	Precipitación	0
5660	7	Sololá	701	Sololá	2	El tablón	12	Diciembre	2023-03-12T00:00:00	2024-11-08T04:00:00	8	Radiación solar	0
5661	7	Sololá	701	Sololá	2	El tablón	12	Diciembre	2023-03-12T00:00:00	2024-11-08T05:00:00	2	Temperatura media	11.1
5662	7	Sololá	701	Sololá	2	El tablón	12	Diciembre	2023-03-12T00:00:00	2024-11-08T05:00:00	4	Temperatura máxima	13.1
5663	7	Sololá	701	Sololá	2	El tablón	12	Diciembre	2023-03-12T00:00:00	2024-11-08T05:00:00	3	Temperatura mínima	11.1
5664	7	Sololá	701	Sololá	2	El tablón	12	Diciembre	2023-03-12T00:00:00	2024-11-08T05:00:00	5	Humedad	68
5665	7	Sololá	701	Sololá	2	El tablón	12	Diciembre	2023-03-12T00:00:00	2024-11-08T05:00:00	6	Velocidad del viento	3.2
5666	7	Sololá	701	Sololá	2	El tablón	12	Diciembre	2023-03-12T00:00:00	2024-11-08T05:00:00	7	Dirección del viento	3.22
5667	7	Sololá	701	Sololá	2	El tablón	12	Diciembre	2023-03-12T00:00:00	2024-11-08T05:00:00	1	Precipitación	0
5668	7	Sololá	701	Sololá	2	El tablón	12	Diciembre	2023-03-12T00:00:00	2024-11-08T05:00:00	8	Radiación solar	0
5669	7	Sololá	701	Sololá	2	El tablón	12	Diciembre	2023-03-12T00:00:00	2024-11-08T06:00:00	2	Temperatura media	12.9
5670	7	Sololá	701	Sololá	2	El tablón	12	Diciembre	2023-03-12T00:00:00	2024-11-08T06:00:00	4	Temperatura máxima	12.9
5671	7	Sololá	701	Sololá	2	El tablón	12	Diciembre	2023-03-12T00:00:00	2024-11-08T06:00:00	3	Temperatura mínima	10.4
5672	7	Sololá	701	Sololá	2	El tablón	12	Diciembre	2023-03-12T00:00:00	2024-11-08T06:00:00	5	Humedad	61
5673	7	Sololá	701	Sololá	2	El tablón	12	Diciembre	2023-03-12T00:00:00	2024-11-08T06:00:00	6	Velocidad del viento	3.2
5674	7	Sololá	701	Sololá	2	El tablón	12	Diciembre	2023-03-12T00:00:00	2024-11-08T06:00:00	7	Dirección del viento	3.22
5675	7	Sololá	701	Sololá	2	El tablón	12	Diciembre	2023-03-12T00:00:00	2024-11-08T06:00:00	1	Precipitación	0
5676	7	Sololá	701	Sololá	2	El tablón	12	Diciembre	2023-03-12T00:00:00	2024-11-08T06:00:00	8	Radiación solar	0
5677	7	Sololá	701	Sololá	2	El tablón	12	Diciembre	2023-03-12T00:00:00	2024-11-08T07:00:00	2	Temperatura media	14.1
5678	7	Sololá	701	Sololá	2	El tablón	12	Diciembre	2023-03-12T00:00:00	2024-11-08T07:00:00	4	Temperatura máxima	14.1
5679	7	Sololá	701	Sololá	2	El tablón	12	Diciembre	2023-03-12T00:00:00	2024-11-08T07:00:00	3	Temperatura mínima	12.2
5680	7	Sololá	701	Sololá	2	El tablón	12	Diciembre	2023-03-12T00:00:00	2024-11-08T07:00:00	5	Humedad	58
5681	7	Sololá	701	Sololá	2	El tablón	12	Diciembre	2023-03-12T00:00:00	2024-11-08T07:00:00	6	Velocidad del viento	4.8
5682	7	Sololá	701	Sololá	2	El tablón	12	Diciembre	2023-03-12T00:00:00	2024-11-08T07:00:00	7	Dirección del viento	4.83
5683	7	Sololá	701	Sololá	2	El tablón	12	Diciembre	2023-03-12T00:00:00	2024-11-08T07:00:00	1	Precipitación	0
5684	7	Sololá	701	Sololá	2	El tablón	12	Diciembre	2023-03-12T00:00:00	2024-11-08T07:00:00	8	Radiación solar	20
5685	7	Sololá	701	Sololá	2	El tablón	12	Diciembre	2023-03-12T00:00:00	2024-11-08T08:00:00	2	Temperatura media	16.4
5686	7	Sololá	701	Sololá	2	El tablón	12	Diciembre	2023-03-12T00:00:00	2024-11-08T08:00:00	4	Temperatura máxima	16.4
5687	7	Sololá	701	Sololá	2	El tablón	12	Diciembre	2023-03-12T00:00:00	2024-11-08T08:00:00	3	Temperatura mínima	14.1
5688	7	Sololá	701	Sololá	2	El tablón	12	Diciembre	2023-03-12T00:00:00	2024-11-08T08:00:00	5	Humedad	56
5689	7	Sololá	701	Sololá	2	El tablón	12	Diciembre	2023-03-12T00:00:00	2024-11-08T08:00:00	6	Velocidad del viento	4.8
5690	7	Sololá	701	Sololá	2	El tablón	12	Diciembre	2023-03-12T00:00:00	2024-11-08T08:00:00	7	Dirección del viento	4.83
5691	7	Sololá	701	Sololá	2	El tablón	12	Diciembre	2023-03-12T00:00:00	2024-11-08T08:00:00	1	Precipitación	0
5692	7	Sololá	701	Sololá	2	El tablón	12	Diciembre	2023-03-12T00:00:00	2024-11-08T08:00:00	8	Radiación solar	180
5693	7	Sololá	701	Sololá	2	El tablón	12	Diciembre	2023-03-12T00:00:00	2024-11-08T09:00:00	2	Temperatura media	17.1
5694	7	Sololá	701	Sololá	2	El tablón	12	Diciembre	2023-03-12T00:00:00	2024-11-08T09:00:00	4	Temperatura máxima	17.1
5695	7	Sololá	701	Sololá	2	El tablón	12	Diciembre	2023-03-12T00:00:00	2024-11-08T09:00:00	3	Temperatura mínima	16.4
5696	7	Sololá	701	Sololá	2	El tablón	12	Diciembre	2023-03-12T00:00:00	2024-11-08T09:00:00	5	Humedad	59
5697	7	Sololá	701	Sololá	2	El tablón	12	Diciembre	2023-03-12T00:00:00	2024-11-08T09:00:00	6	Velocidad del viento	8
5698	7	Sololá	701	Sololá	2	El tablón	12	Diciembre	2023-03-12T00:00:00	2024-11-08T09:00:00	7	Dirección del viento	8.05
5699	7	Sololá	701	Sololá	2	El tablón	12	Diciembre	2023-03-12T00:00:00	2024-11-08T09:00:00	1	Precipitación	0
5700	7	Sololá	701	Sololá	2	El tablón	12	Diciembre	2023-03-12T00:00:00	2024-11-08T09:00:00	8	Radiación solar	408
5701	7	Sololá	701	Sololá	2	El tablón	12	Diciembre	2023-03-12T00:00:00	2024-11-08T10:00:00	2	Temperatura media	17.8
5702	7	Sololá	701	Sololá	2	El tablón	12	Diciembre	2023-03-12T00:00:00	2024-11-08T10:00:00	4	Temperatura máxima	17.9
5703	7	Sololá	701	Sololá	2	El tablón	12	Diciembre	2023-03-12T00:00:00	2024-11-08T10:00:00	3	Temperatura mínima	16.9
5704	7	Sololá	701	Sololá	2	El tablón	12	Diciembre	2023-03-12T00:00:00	2024-11-08T10:00:00	5	Humedad	62
5705	7	Sololá	701	Sololá	2	El tablón	12	Diciembre	2023-03-12T00:00:00	2024-11-08T10:00:00	6	Velocidad del viento	11.3
5706	7	Sololá	701	Sololá	2	El tablón	12	Diciembre	2023-03-12T00:00:00	2024-11-08T10:00:00	7	Dirección del viento	11.27
5707	7	Sololá	701	Sololá	2	El tablón	12	Diciembre	2023-03-12T00:00:00	2024-11-08T10:00:00	1	Precipitación	0
5708	7	Sololá	701	Sololá	2	El tablón	12	Diciembre	2023-03-12T00:00:00	2024-11-08T10:00:00	8	Radiación solar	583
5709	7	Sololá	701	Sololá	2	El tablón	12	Diciembre	2023-03-12T00:00:00	2024-11-08T11:00:00	2	Temperatura media	18.7
5710	7	Sololá	701	Sololá	2	El tablón	12	Diciembre	2023-03-12T00:00:00	2024-11-08T11:00:00	4	Temperatura máxima	18.8
5711	7	Sololá	701	Sololá	2	El tablón	12	Diciembre	2023-03-12T00:00:00	2024-11-08T11:00:00	3	Temperatura mínima	17.8
5712	7	Sololá	701	Sololá	2	El tablón	12	Diciembre	2023-03-12T00:00:00	2024-11-08T11:00:00	5	Humedad	65
5713	7	Sololá	701	Sololá	2	El tablón	12	Diciembre	2023-03-12T00:00:00	2024-11-08T11:00:00	6	Velocidad del viento	11.3
5714	7	Sololá	701	Sololá	2	El tablón	12	Diciembre	2023-03-12T00:00:00	2024-11-08T11:00:00	7	Dirección del viento	11.27
5715	7	Sololá	701	Sololá	2	El tablón	12	Diciembre	2023-03-12T00:00:00	2024-11-08T11:00:00	1	Precipitación	0
5716	7	Sololá	701	Sololá	2	El tablón	12	Diciembre	2023-03-12T00:00:00	2024-11-08T11:00:00	8	Radiación solar	714
5717	7	Sololá	701	Sololá	2	El tablón	12	Diciembre	2023-03-12T00:00:00	2024-11-08T12:00:00	2	Temperatura media	19.6
5718	7	Sololá	701	Sololá	2	El tablón	12	Diciembre	2023-03-12T00:00:00	2024-11-08T12:00:00	4	Temperatura máxima	19.6
5719	7	Sololá	701	Sololá	2	El tablón	12	Diciembre	2023-03-12T00:00:00	2024-11-08T12:00:00	3	Temperatura mínima	18.7
5720	7	Sololá	701	Sololá	2	El tablón	12	Diciembre	2023-03-12T00:00:00	2024-11-08T12:00:00	5	Humedad	62
5721	7	Sololá	701	Sololá	2	El tablón	12	Diciembre	2023-03-12T00:00:00	2024-11-08T12:00:00	6	Velocidad del viento	11.3
5722	7	Sololá	701	Sololá	2	El tablón	12	Diciembre	2023-03-12T00:00:00	2024-11-08T12:00:00	7	Dirección del viento	11.27
5723	7	Sololá	701	Sololá	2	El tablón	12	Diciembre	2023-03-12T00:00:00	2024-11-08T12:00:00	1	Precipitación	0
5724	7	Sololá	701	Sololá	2	El tablón	12	Diciembre	2023-03-12T00:00:00	2024-11-08T12:00:00	8	Radiación solar	687
5725	7	Sololá	701	Sololá	2	El tablón	12	Diciembre	2023-03-12T00:00:00	2024-11-08T13:00:00	2	Temperatura media	19.3
5726	7	Sololá	701	Sololá	2	El tablón	12	Diciembre	2023-03-12T00:00:00	2024-11-08T13:00:00	4	Temperatura máxima	19.7
5727	7	Sololá	701	Sololá	2	El tablón	12	Diciembre	2023-03-12T00:00:00	2024-11-08T13:00:00	3	Temperatura mínima	19
5728	7	Sololá	701	Sololá	2	El tablón	12	Diciembre	2023-03-12T00:00:00	2024-11-08T13:00:00	5	Humedad	62
5729	7	Sololá	701	Sololá	2	El tablón	12	Diciembre	2023-03-12T00:00:00	2024-11-08T13:00:00	6	Velocidad del viento	14.5
5730	7	Sololá	701	Sololá	2	El tablón	12	Diciembre	2023-03-12T00:00:00	2024-11-08T13:00:00	7	Dirección del viento	14.48
5731	7	Sololá	701	Sololá	2	El tablón	12	Diciembre	2023-03-12T00:00:00	2024-11-08T13:00:00	1	Precipitación	0
5732	7	Sololá	701	Sololá	2	El tablón	12	Diciembre	2023-03-12T00:00:00	2024-11-08T13:00:00	8	Radiación solar	765
5733	7	Sololá	701	Sololá	2	El tablón	12	Diciembre	2023-03-12T00:00:00	2024-11-08T14:00:00	2	Temperatura media	18.9
5734	7	Sololá	701	Sololá	2	El tablón	12	Diciembre	2023-03-12T00:00:00	2024-11-08T14:00:00	4	Temperatura máxima	19.4
5735	7	Sololá	701	Sololá	2	El tablón	12	Diciembre	2023-03-12T00:00:00	2024-11-08T14:00:00	3	Temperatura mínima	18.9
5736	7	Sololá	701	Sololá	2	El tablón	12	Diciembre	2023-03-12T00:00:00	2024-11-08T14:00:00	5	Humedad	61
5737	7	Sololá	701	Sololá	2	El tablón	12	Diciembre	2023-03-12T00:00:00	2024-11-08T14:00:00	6	Velocidad del viento	12.9
5738	7	Sololá	701	Sololá	2	El tablón	12	Diciembre	2023-03-12T00:00:00	2024-11-08T14:00:00	7	Dirección del viento	12.87
5739	7	Sololá	701	Sololá	2	El tablón	12	Diciembre	2023-03-12T00:00:00	2024-11-08T14:00:00	1	Precipitación	0
5740	7	Sololá	701	Sololá	2	El tablón	12	Diciembre	2023-03-12T00:00:00	2024-11-08T14:00:00	8	Radiación solar	718
5741	7	Sololá	701	Sololá	2	El tablón	12	Diciembre	2023-03-12T00:00:00	2024-11-08T15:00:00	2	Temperatura media	18.3
5742	7	Sololá	701	Sololá	2	El tablón	12	Diciembre	2023-03-12T00:00:00	2024-11-08T15:00:00	4	Temperatura máxima	19.2
5743	7	Sololá	701	Sololá	2	El tablón	12	Diciembre	2023-03-12T00:00:00	2024-11-08T15:00:00	3	Temperatura mínima	18.3
5744	7	Sololá	701	Sololá	2	El tablón	12	Diciembre	2023-03-12T00:00:00	2024-11-08T15:00:00	5	Humedad	65
5745	7	Sololá	701	Sololá	2	El tablón	12	Diciembre	2023-03-12T00:00:00	2024-11-08T15:00:00	6	Velocidad del viento	14.5
5746	7	Sololá	701	Sololá	2	El tablón	12	Diciembre	2023-03-12T00:00:00	2024-11-08T15:00:00	7	Dirección del viento	14.48
5747	7	Sololá	701	Sololá	2	El tablón	12	Diciembre	2023-03-12T00:00:00	2024-11-08T15:00:00	1	Precipitación	0
5748	7	Sololá	701	Sololá	2	El tablón	12	Diciembre	2023-03-12T00:00:00	2024-11-08T15:00:00	8	Radiación solar	598
5749	7	Sololá	701	Sololá	2	El tablón	12	Diciembre	2023-03-12T00:00:00	2024-11-08T16:00:00	2	Temperatura media	18.6
5750	7	Sololá	701	Sololá	2	El tablón	12	Diciembre	2023-03-12T00:00:00	2024-11-08T16:00:00	4	Temperatura máxima	18.6
5751	7	Sololá	701	Sololá	2	El tablón	12	Diciembre	2023-03-12T00:00:00	2024-11-08T16:00:00	3	Temperatura mínima	18.1
5752	7	Sololá	701	Sololá	2	El tablón	12	Diciembre	2023-03-12T00:00:00	2024-11-08T16:00:00	5	Humedad	66
5753	7	Sololá	701	Sololá	2	El tablón	12	Diciembre	2023-03-12T00:00:00	2024-11-08T16:00:00	6	Velocidad del viento	12.9
5754	7	Sololá	701	Sololá	2	El tablón	12	Diciembre	2023-03-12T00:00:00	2024-11-08T16:00:00	7	Dirección del viento	12.87
5755	7	Sololá	701	Sololá	2	El tablón	12	Diciembre	2023-03-12T00:00:00	2024-11-08T16:00:00	1	Precipitación	0
5756	7	Sololá	701	Sololá	2	El tablón	12	Diciembre	2023-03-12T00:00:00	2024-11-08T16:00:00	8	Radiación solar	399
5757	7	Sololá	701	Sololá	2	El tablón	12	Diciembre	2023-03-12T00:00:00	2024-11-08T17:00:00	2	Temperatura media	16.5
5758	7	Sololá	701	Sololá	2	El tablón	12	Diciembre	2023-03-12T00:00:00	2024-11-08T17:00:00	4	Temperatura máxima	18.6
5759	7	Sololá	701	Sololá	2	El tablón	12	Diciembre	2023-03-12T00:00:00	2024-11-08T17:00:00	3	Temperatura mínima	16.5
5760	7	Sololá	701	Sololá	2	El tablón	12	Diciembre	2023-03-12T00:00:00	2024-11-08T17:00:00	5	Humedad	75
5761	7	Sololá	701	Sololá	2	El tablón	12	Diciembre	2023-03-12T00:00:00	2024-11-08T17:00:00	6	Velocidad del viento	9.7
5762	7	Sololá	701	Sololá	2	El tablón	12	Diciembre	2023-03-12T00:00:00	2024-11-08T17:00:00	7	Dirección del viento	9.66
5763	7	Sololá	701	Sololá	2	El tablón	12	Diciembre	2023-03-12T00:00:00	2024-11-08T17:00:00	1	Precipitación	0
5764	7	Sololá	701	Sololá	2	El tablón	12	Diciembre	2023-03-12T00:00:00	2024-11-08T17:00:00	8	Radiación solar	114
5765	7	Sololá	701	Sololá	2	El tablón	12	Diciembre	2023-03-12T00:00:00	2024-11-08T18:00:00	2	Temperatura media	14.8
5766	7	Sololá	701	Sololá	2	El tablón	12	Diciembre	2023-03-12T00:00:00	2024-11-08T18:00:00	4	Temperatura máxima	16.5
5767	7	Sololá	701	Sololá	2	El tablón	12	Diciembre	2023-03-12T00:00:00	2024-11-08T18:00:00	3	Temperatura mínima	14.8
5768	7	Sololá	701	Sololá	2	El tablón	12	Diciembre	2023-03-12T00:00:00	2024-11-08T18:00:00	5	Humedad	83
5769	7	Sololá	701	Sololá	2	El tablón	12	Diciembre	2023-03-12T00:00:00	2024-11-08T18:00:00	6	Velocidad del viento	9.7
5770	7	Sololá	701	Sololá	2	El tablón	12	Diciembre	2023-03-12T00:00:00	2024-11-08T18:00:00	7	Dirección del viento	9.66
5771	7	Sololá	701	Sololá	2	El tablón	12	Diciembre	2023-03-12T00:00:00	2024-11-08T18:00:00	1	Precipitación	0
5772	7	Sololá	701	Sololá	2	El tablón	12	Diciembre	2023-03-12T00:00:00	2024-11-08T18:00:00	8	Radiación solar	15
5773	7	Sololá	701	Sololá	2	El tablón	12	Diciembre	2023-03-12T00:00:00	2024-11-08T19:00:00	2	Temperatura media	14.1
5774	7	Sololá	701	Sololá	2	El tablón	12	Diciembre	2023-03-12T00:00:00	2024-11-08T19:00:00	4	Temperatura máxima	14.8
5775	7	Sololá	701	Sololá	2	El tablón	12	Diciembre	2023-03-12T00:00:00	2024-11-08T19:00:00	3	Temperatura mínima	14.1
5776	7	Sololá	701	Sololá	2	El tablón	12	Diciembre	2023-03-12T00:00:00	2024-11-08T19:00:00	5	Humedad	85
5777	7	Sololá	701	Sololá	2	El tablón	12	Diciembre	2023-03-12T00:00:00	2024-11-08T19:00:00	6	Velocidad del viento	11.3
5778	7	Sololá	701	Sololá	2	El tablón	12	Diciembre	2023-03-12T00:00:00	2024-11-08T19:00:00	7	Dirección del viento	11.27
5779	7	Sololá	701	Sololá	2	El tablón	12	Diciembre	2023-03-12T00:00:00	2024-11-08T19:00:00	1	Precipitación	0
5780	7	Sololá	701	Sololá	2	El tablón	12	Diciembre	2023-03-12T00:00:00	2024-11-08T19:00:00	8	Radiación solar	0
5781	7	Sololá	701	Sololá	2	El tablón	12	Diciembre	2023-03-12T00:00:00	2024-11-08T20:00:00	2	Temperatura media	13.4
5782	7	Sololá	701	Sololá	2	El tablón	12	Diciembre	2023-03-12T00:00:00	2024-11-08T20:00:00	4	Temperatura máxima	14.1
5783	7	Sololá	701	Sololá	2	El tablón	12	Diciembre	2023-03-12T00:00:00	2024-11-08T20:00:00	3	Temperatura mínima	13.4
5784	7	Sololá	701	Sololá	2	El tablón	12	Diciembre	2023-03-12T00:00:00	2024-11-08T20:00:00	5	Humedad	85
5785	7	Sololá	701	Sololá	2	El tablón	12	Diciembre	2023-03-12T00:00:00	2024-11-08T20:00:00	6	Velocidad del viento	12.9
5786	7	Sololá	701	Sololá	2	El tablón	12	Diciembre	2023-03-12T00:00:00	2024-11-08T20:00:00	7	Dirección del viento	12.87
5787	7	Sololá	701	Sololá	2	El tablón	12	Diciembre	2023-03-12T00:00:00	2024-11-08T20:00:00	1	Precipitación	0
5788	7	Sololá	701	Sololá	2	El tablón	12	Diciembre	2023-03-12T00:00:00	2024-11-08T20:00:00	8	Radiación solar	0
5789	7	Sololá	701	Sololá	2	El tablón	12	Diciembre	2023-03-12T00:00:00	2024-11-08T21:00:00	2	Temperatura media	13.3
5790	7	Sololá	701	Sololá	2	El tablón	12	Diciembre	2023-03-12T00:00:00	2024-11-08T21:00:00	4	Temperatura máxima	13.5
5791	7	Sololá	701	Sololá	2	El tablón	12	Diciembre	2023-03-12T00:00:00	2024-11-08T21:00:00	3	Temperatura mínima	13.3
5792	7	Sololá	701	Sololá	2	El tablón	12	Diciembre	2023-03-12T00:00:00	2024-11-08T21:00:00	5	Humedad	85
5793	7	Sololá	701	Sololá	2	El tablón	12	Diciembre	2023-03-12T00:00:00	2024-11-08T21:00:00	6	Velocidad del viento	16.1
5794	7	Sololá	701	Sololá	2	El tablón	12	Diciembre	2023-03-12T00:00:00	2024-11-08T21:00:00	7	Dirección del viento	16.09
5795	7	Sololá	701	Sololá	2	El tablón	12	Diciembre	2023-03-12T00:00:00	2024-11-08T21:00:00	1	Precipitación	0
5796	7	Sololá	701	Sololá	2	El tablón	12	Diciembre	2023-03-12T00:00:00	2024-11-08T21:00:00	8	Radiación solar	0
5797	7	Sololá	701	Sololá	2	El tablón	12	Diciembre	2023-03-12T00:00:00	2024-11-08T22:00:00	2	Temperatura media	13.1
5798	7	Sololá	701	Sololá	2	El tablón	12	Diciembre	2023-03-12T00:00:00	2024-11-08T22:00:00	4	Temperatura máxima	13.3
5799	7	Sololá	701	Sololá	2	El tablón	12	Diciembre	2023-03-12T00:00:00	2024-11-08T22:00:00	3	Temperatura mínima	13.1
5800	7	Sololá	701	Sololá	2	El tablón	12	Diciembre	2023-03-12T00:00:00	2024-11-08T22:00:00	5	Humedad	86
5801	7	Sololá	701	Sololá	2	El tablón	12	Diciembre	2023-03-12T00:00:00	2024-11-08T22:00:00	6	Velocidad del viento	16.1
5802	7	Sololá	701	Sololá	2	El tablón	12	Diciembre	2023-03-12T00:00:00	2024-11-08T22:00:00	7	Dirección del viento	16.09
5803	7	Sololá	701	Sololá	2	El tablón	12	Diciembre	2023-03-12T00:00:00	2024-11-08T22:00:00	1	Precipitación	0
5804	7	Sololá	701	Sololá	2	El tablón	12	Diciembre	2023-03-12T00:00:00	2024-11-08T22:00:00	8	Radiación solar	0
5805	7	Sololá	701	Sololá	2	El tablón	12	Diciembre	2023-03-12T00:00:00	2024-11-08T23:00:00	2	Temperatura media	13
5806	7	Sololá	701	Sololá	2	El tablón	12	Diciembre	2023-03-12T00:00:00	2024-11-08T23:00:00	4	Temperatura máxima	13.1
5807	7	Sololá	701	Sololá	2	El tablón	12	Diciembre	2023-03-12T00:00:00	2024-11-08T23:00:00	3	Temperatura mínima	12.9
5808	7	Sololá	701	Sololá	2	El tablón	12	Diciembre	2023-03-12T00:00:00	2024-11-08T23:00:00	5	Humedad	86
5809	7	Sololá	701	Sololá	2	El tablón	12	Diciembre	2023-03-12T00:00:00	2024-11-08T23:00:00	6	Velocidad del viento	12.9
5810	7	Sololá	701	Sololá	2	El tablón	12	Diciembre	2023-03-12T00:00:00	2024-11-08T23:00:00	7	Dirección del viento	12.87
5811	7	Sololá	701	Sololá	2	El tablón	12	Diciembre	2023-03-12T00:00:00	2024-11-08T23:00:00	1	Precipitación	0
5812	7	Sololá	701	Sololá	2	El tablón	12	Diciembre	2023-03-12T00:00:00	2024-11-08T23:00:00	8	Radiación solar	0
5813	7	Sololá	701	Sololá	2	El tablón	12	Diciembre	2023-04-12T00:00:00	2024-11-08T00:00:00	2	Temperatura media	12.7
5814	7	Sololá	701	Sololá	2	El tablón	12	Diciembre	2023-04-12T00:00:00	2024-11-08T00:00:00	4	Temperatura máxima	13
5815	7	Sololá	701	Sololá	2	El tablón	12	Diciembre	2023-04-12T00:00:00	2024-11-08T00:00:00	3	Temperatura mínima	12.6
5816	7	Sololá	701	Sololá	2	El tablón	12	Diciembre	2023-04-12T00:00:00	2024-11-08T00:00:00	5	Humedad	85
5817	7	Sololá	701	Sololá	2	El tablón	12	Diciembre	2023-04-12T00:00:00	2024-11-08T00:00:00	6	Velocidad del viento	11.3
5818	7	Sololá	701	Sololá	2	El tablón	12	Diciembre	2023-04-12T00:00:00	2024-11-08T00:00:00	7	Dirección del viento	11.27
5819	7	Sololá	701	Sololá	2	El tablón	12	Diciembre	2023-04-12T00:00:00	2024-11-08T00:00:00	1	Precipitación	0
5820	7	Sololá	701	Sololá	2	El tablón	12	Diciembre	2023-04-12T00:00:00	2024-11-08T00:00:00	8	Radiación solar	0
5821	7	Sololá	701	Sololá	2	El tablón	12	Diciembre	2023-04-12T00:00:00	2024-11-08T01:00:00	2	Temperatura media	12.8
5822	7	Sololá	701	Sololá	2	El tablón	12	Diciembre	2023-04-12T00:00:00	2024-11-08T01:00:00	4	Temperatura máxima	13
5823	7	Sololá	701	Sololá	2	El tablón	12	Diciembre	2023-04-12T00:00:00	2024-11-08T01:00:00	3	Temperatura mínima	12.7
5824	7	Sololá	701	Sololá	2	El tablón	12	Diciembre	2023-04-12T00:00:00	2024-11-08T01:00:00	5	Humedad	84
5825	7	Sololá	701	Sololá	2	El tablón	12	Diciembre	2023-04-12T00:00:00	2024-11-08T01:00:00	6	Velocidad del viento	9.7
5826	7	Sololá	701	Sololá	2	El tablón	12	Diciembre	2023-04-12T00:00:00	2024-11-08T01:00:00	7	Dirección del viento	9.66
5827	7	Sololá	701	Sololá	2	El tablón	12	Diciembre	2023-04-12T00:00:00	2024-11-08T01:00:00	1	Precipitación	0
5828	7	Sololá	701	Sololá	2	El tablón	12	Diciembre	2023-04-12T00:00:00	2024-11-08T01:00:00	8	Radiación solar	0
5829	7	Sololá	701	Sololá	2	El tablón	12	Diciembre	2023-04-12T00:00:00	2024-11-08T02:00:00	2	Temperatura media	13.1
5830	7	Sololá	701	Sololá	2	El tablón	12	Diciembre	2023-04-12T00:00:00	2024-11-08T02:00:00	4	Temperatura máxima	13.2
5831	7	Sololá	701	Sololá	2	El tablón	12	Diciembre	2023-04-12T00:00:00	2024-11-08T02:00:00	3	Temperatura mínima	12.8
5832	7	Sololá	701	Sololá	2	El tablón	12	Diciembre	2023-04-12T00:00:00	2024-11-08T02:00:00	5	Humedad	82
5833	7	Sololá	701	Sololá	2	El tablón	12	Diciembre	2023-04-12T00:00:00	2024-11-08T02:00:00	6	Velocidad del viento	8
5834	7	Sololá	701	Sololá	2	El tablón	12	Diciembre	2023-04-12T00:00:00	2024-11-08T02:00:00	7	Dirección del viento	8.05
5835	7	Sololá	701	Sololá	2	El tablón	12	Diciembre	2023-04-12T00:00:00	2024-11-08T02:00:00	1	Precipitación	0
5836	7	Sololá	701	Sololá	2	El tablón	12	Diciembre	2023-04-12T00:00:00	2024-11-08T02:00:00	8	Radiación solar	0
5837	7	Sololá	701	Sololá	2	El tablón	12	Diciembre	2023-04-12T00:00:00	2024-11-08T03:00:00	2	Temperatura media	12.9
5838	7	Sololá	701	Sololá	2	El tablón	12	Diciembre	2023-04-12T00:00:00	2024-11-08T03:00:00	4	Temperatura máxima	13.2
5839	7	Sololá	701	Sololá	2	El tablón	12	Diciembre	2023-04-12T00:00:00	2024-11-08T03:00:00	3	Temperatura mínima	12.8
5840	7	Sololá	701	Sololá	2	El tablón	12	Diciembre	2023-04-12T00:00:00	2024-11-08T03:00:00	5	Humedad	82
5841	7	Sololá	701	Sololá	2	El tablón	12	Diciembre	2023-04-12T00:00:00	2024-11-08T03:00:00	6	Velocidad del viento	8
5842	7	Sololá	701	Sololá	2	El tablón	12	Diciembre	2023-04-12T00:00:00	2024-11-08T03:00:00	7	Dirección del viento	8.05
5843	7	Sololá	701	Sololá	2	El tablón	12	Diciembre	2023-04-12T00:00:00	2024-11-08T03:00:00	1	Precipitación	0
5844	7	Sololá	701	Sololá	2	El tablón	12	Diciembre	2023-04-12T00:00:00	2024-11-08T03:00:00	8	Radiación solar	0
5845	7	Sololá	701	Sololá	2	El tablón	12	Diciembre	2023-04-12T00:00:00	2024-11-08T04:00:00	2	Temperatura media	12.9
5846	7	Sololá	701	Sololá	2	El tablón	12	Diciembre	2023-04-12T00:00:00	2024-11-08T04:00:00	4	Temperatura máxima	13.3
5847	7	Sololá	701	Sololá	2	El tablón	12	Diciembre	2023-04-12T00:00:00	2024-11-08T04:00:00	3	Temperatura mínima	12.9
5848	7	Sololá	701	Sololá	2	El tablón	12	Diciembre	2023-04-12T00:00:00	2024-11-08T04:00:00	5	Humedad	82
5849	7	Sololá	701	Sololá	2	El tablón	12	Diciembre	2023-04-12T00:00:00	2024-11-08T04:00:00	6	Velocidad del viento	6.4
5850	7	Sololá	701	Sololá	2	El tablón	12	Diciembre	2023-04-12T00:00:00	2024-11-08T04:00:00	7	Dirección del viento	6.44
5851	7	Sololá	701	Sololá	2	El tablón	12	Diciembre	2023-04-12T00:00:00	2024-11-08T04:00:00	1	Precipitación	0
5852	7	Sololá	701	Sololá	2	El tablón	12	Diciembre	2023-04-12T00:00:00	2024-11-08T04:00:00	8	Radiación solar	0
5853	7	Sololá	701	Sololá	2	El tablón	12	Diciembre	2023-04-12T00:00:00	2024-11-08T05:00:00	2	Temperatura media	12.9
5854	7	Sololá	701	Sololá	2	El tablón	12	Diciembre	2023-04-12T00:00:00	2024-11-08T05:00:00	4	Temperatura máxima	13.2
5855	7	Sololá	701	Sololá	2	El tablón	12	Diciembre	2023-04-12T00:00:00	2024-11-08T05:00:00	3	Temperatura mínima	12.9
5856	7	Sololá	701	Sololá	2	El tablón	12	Diciembre	2023-04-12T00:00:00	2024-11-08T05:00:00	5	Humedad	84
5857	7	Sololá	701	Sololá	2	El tablón	12	Diciembre	2023-04-12T00:00:00	2024-11-08T05:00:00	6	Velocidad del viento	11.3
5858	7	Sololá	701	Sololá	2	El tablón	12	Diciembre	2023-04-12T00:00:00	2024-11-08T05:00:00	7	Dirección del viento	11.27
5859	7	Sololá	701	Sololá	2	El tablón	12	Diciembre	2023-04-12T00:00:00	2024-11-08T05:00:00	1	Precipitación	0
5860	7	Sololá	701	Sololá	2	El tablón	12	Diciembre	2023-04-12T00:00:00	2024-11-08T05:00:00	8	Radiación solar	0
5861	7	Sololá	701	Sololá	2	El tablón	12	Diciembre	2023-04-12T00:00:00	2024-11-08T06:00:00	2	Temperatura media	12.9
5862	7	Sololá	701	Sololá	2	El tablón	12	Diciembre	2023-04-12T00:00:00	2024-11-08T06:00:00	4	Temperatura máxima	13
5863	7	Sololá	701	Sololá	2	El tablón	12	Diciembre	2023-04-12T00:00:00	2024-11-08T06:00:00	3	Temperatura mínima	12.8
5864	7	Sololá	701	Sololá	2	El tablón	12	Diciembre	2023-04-12T00:00:00	2024-11-08T06:00:00	5	Humedad	85
5865	7	Sololá	701	Sololá	2	El tablón	12	Diciembre	2023-04-12T00:00:00	2024-11-08T06:00:00	6	Velocidad del viento	14.5
5866	7	Sololá	701	Sololá	2	El tablón	12	Diciembre	2023-04-12T00:00:00	2024-11-08T06:00:00	7	Dirección del viento	14.48
5867	7	Sololá	701	Sololá	2	El tablón	12	Diciembre	2023-04-12T00:00:00	2024-11-08T06:00:00	1	Precipitación	0
5868	7	Sololá	701	Sololá	2	El tablón	12	Diciembre	2023-04-12T00:00:00	2024-11-08T06:00:00	8	Radiación solar	0
5869	7	Sololá	701	Sololá	2	El tablón	12	Diciembre	2023-04-12T00:00:00	2024-11-08T07:00:00	2	Temperatura media	14.3
5870	7	Sololá	701	Sololá	2	El tablón	12	Diciembre	2023-04-12T00:00:00	2024-11-08T07:00:00	4	Temperatura máxima	14.3
5871	7	Sololá	701	Sololá	2	El tablón	12	Diciembre	2023-04-12T00:00:00	2024-11-08T07:00:00	3	Temperatura mínima	12.9
5872	7	Sololá	701	Sololá	2	El tablón	12	Diciembre	2023-04-12T00:00:00	2024-11-08T07:00:00	5	Humedad	81
5873	7	Sololá	701	Sololá	2	El tablón	12	Diciembre	2023-04-12T00:00:00	2024-11-08T07:00:00	6	Velocidad del viento	11.3
5874	7	Sololá	701	Sololá	2	El tablón	12	Diciembre	2023-04-12T00:00:00	2024-11-08T07:00:00	7	Dirección del viento	11.27
5875	7	Sololá	701	Sololá	2	El tablón	12	Diciembre	2023-04-12T00:00:00	2024-11-08T07:00:00	1	Precipitación	0
5876	7	Sololá	701	Sololá	2	El tablón	12	Diciembre	2023-04-12T00:00:00	2024-11-08T07:00:00	8	Radiación solar	24
5877	7	Sololá	701	Sololá	2	El tablón	12	Diciembre	2023-04-12T00:00:00	2024-11-08T08:00:00	2	Temperatura media	14.3
5878	7	Sololá	701	Sololá	2	El tablón	12	Diciembre	2023-04-12T00:00:00	2024-11-08T08:00:00	4	Temperatura máxima	14.7
5879	7	Sololá	701	Sololá	2	El tablón	12	Diciembre	2023-04-12T00:00:00	2024-11-08T08:00:00	3	Temperatura mínima	14.2
5880	7	Sololá	701	Sololá	2	El tablón	12	Diciembre	2023-04-12T00:00:00	2024-11-08T08:00:00	5	Humedad	85
5881	7	Sololá	701	Sololá	2	El tablón	12	Diciembre	2023-04-12T00:00:00	2024-11-08T08:00:00	6	Velocidad del viento	16.1
5882	7	Sololá	701	Sololá	2	El tablón	12	Diciembre	2023-04-12T00:00:00	2024-11-08T08:00:00	7	Dirección del viento	16.09
5883	7	Sololá	701	Sololá	2	El tablón	12	Diciembre	2023-04-12T00:00:00	2024-11-08T08:00:00	1	Precipitación	0
5884	7	Sololá	701	Sololá	2	El tablón	12	Diciembre	2023-04-12T00:00:00	2024-11-08T08:00:00	8	Radiación solar	163
5885	7	Sololá	701	Sololá	2	El tablón	12	Diciembre	2023-04-12T00:00:00	2024-11-08T09:00:00	2	Temperatura media	15.1
5886	7	Sololá	701	Sololá	2	El tablón	12	Diciembre	2023-04-12T00:00:00	2024-11-08T09:00:00	4	Temperatura máxima	15.2
5887	7	Sololá	701	Sololá	2	El tablón	12	Diciembre	2023-04-12T00:00:00	2024-11-08T09:00:00	3	Temperatura mínima	14.3
5888	7	Sololá	701	Sololá	2	El tablón	12	Diciembre	2023-04-12T00:00:00	2024-11-08T09:00:00	5	Humedad	86
5889	7	Sololá	701	Sololá	2	El tablón	12	Diciembre	2023-04-12T00:00:00	2024-11-08T09:00:00	6	Velocidad del viento	17.7
5890	7	Sololá	701	Sololá	2	El tablón	12	Diciembre	2023-04-12T00:00:00	2024-11-08T09:00:00	7	Dirección del viento	17.7
5891	7	Sololá	701	Sololá	2	El tablón	12	Diciembre	2023-04-12T00:00:00	2024-11-08T09:00:00	1	Precipitación	0
5892	7	Sololá	701	Sololá	2	El tablón	12	Diciembre	2023-04-12T00:00:00	2024-11-08T09:00:00	8	Radiación solar	355
5893	7	Sololá	701	Sololá	2	El tablón	12	Diciembre	2023-04-12T00:00:00	2024-11-08T10:00:00	2	Temperatura media	16.5
5894	7	Sololá	701	Sololá	2	El tablón	12	Diciembre	2023-04-12T00:00:00	2024-11-08T10:00:00	4	Temperatura máxima	16.6
5895	7	Sololá	701	Sololá	2	El tablón	12	Diciembre	2023-04-12T00:00:00	2024-11-08T10:00:00	3	Temperatura mínima	15.1
5896	7	Sololá	701	Sololá	2	El tablón	12	Diciembre	2023-04-12T00:00:00	2024-11-08T10:00:00	5	Humedad	81
5897	7	Sololá	701	Sololá	2	El tablón	12	Diciembre	2023-04-12T00:00:00	2024-11-08T10:00:00	6	Velocidad del viento	17.7
5898	7	Sololá	701	Sololá	2	El tablón	12	Diciembre	2023-04-12T00:00:00	2024-11-08T10:00:00	7	Dirección del viento	17.7
5899	7	Sololá	701	Sololá	2	El tablón	12	Diciembre	2023-04-12T00:00:00	2024-11-08T10:00:00	1	Precipitación	0
5900	7	Sololá	701	Sololá	2	El tablón	12	Diciembre	2023-04-12T00:00:00	2024-11-08T10:00:00	8	Radiación solar	506
5901	7	Sololá	701	Sololá	2	El tablón	12	Diciembre	2023-04-12T00:00:00	2024-11-08T11:00:00	2	Temperatura media	18.3
5902	7	Sololá	701	Sololá	2	El tablón	12	Diciembre	2023-04-12T00:00:00	2024-11-08T11:00:00	4	Temperatura máxima	18.3
5903	7	Sololá	701	Sololá	2	El tablón	12	Diciembre	2023-04-12T00:00:00	2024-11-08T11:00:00	3	Temperatura mínima	16.4
5904	7	Sololá	701	Sololá	2	El tablón	12	Diciembre	2023-04-12T00:00:00	2024-11-08T11:00:00	5	Humedad	75
5905	7	Sololá	701	Sololá	2	El tablón	12	Diciembre	2023-04-12T00:00:00	2024-11-08T11:00:00	6	Velocidad del viento	17.7
5906	7	Sololá	701	Sololá	2	El tablón	12	Diciembre	2023-04-12T00:00:00	2024-11-08T11:00:00	7	Dirección del viento	17.7
5907	7	Sololá	701	Sololá	2	El tablón	12	Diciembre	2023-04-12T00:00:00	2024-11-08T11:00:00	1	Precipitación	0
5908	7	Sololá	701	Sololá	2	El tablón	12	Diciembre	2023-04-12T00:00:00	2024-11-08T11:00:00	8	Radiación solar	710
5909	7	Sololá	701	Sololá	2	El tablón	12	Diciembre	2023-04-12T00:00:00	2024-11-08T12:00:00	2	Temperatura media	18.8
5910	7	Sololá	701	Sololá	2	El tablón	12	Diciembre	2023-04-12T00:00:00	2024-11-08T12:00:00	4	Temperatura máxima	18.8
5911	7	Sololá	701	Sololá	2	El tablón	12	Diciembre	2023-04-12T00:00:00	2024-11-08T12:00:00	3	Temperatura mínima	17.7
5912	7	Sololá	701	Sololá	2	El tablón	12	Diciembre	2023-04-12T00:00:00	2024-11-08T12:00:00	5	Humedad	71
5913	7	Sololá	701	Sololá	2	El tablón	12	Diciembre	2023-04-12T00:00:00	2024-11-08T12:00:00	6	Velocidad del viento	17.7
5914	7	Sololá	701	Sololá	2	El tablón	12	Diciembre	2023-04-12T00:00:00	2024-11-08T12:00:00	7	Dirección del viento	17.7
5915	7	Sololá	701	Sololá	2	El tablón	12	Diciembre	2023-04-12T00:00:00	2024-11-08T12:00:00	1	Precipitación	0
5916	7	Sololá	701	Sololá	2	El tablón	12	Diciembre	2023-04-12T00:00:00	2024-11-08T12:00:00	8	Radiación solar	672
5917	7	Sololá	701	Sololá	2	El tablón	12	Diciembre	2023-04-12T00:00:00	2024-11-08T13:00:00	2	Temperatura media	18.6
5918	7	Sololá	701	Sololá	2	El tablón	12	Diciembre	2023-04-12T00:00:00	2024-11-08T13:00:00	4	Temperatura máxima	19.1
5919	7	Sololá	701	Sololá	2	El tablón	12	Diciembre	2023-04-12T00:00:00	2024-11-08T13:00:00	3	Temperatura mínima	18.3
5920	7	Sololá	701	Sololá	2	El tablón	12	Diciembre	2023-04-12T00:00:00	2024-11-08T13:00:00	5	Humedad	72
5921	7	Sololá	701	Sololá	2	El tablón	12	Diciembre	2023-04-12T00:00:00	2024-11-08T13:00:00	6	Velocidad del viento	16.1
5922	7	Sololá	701	Sololá	2	El tablón	12	Diciembre	2023-04-12T00:00:00	2024-11-08T13:00:00	7	Dirección del viento	16.09
5923	7	Sololá	701	Sololá	2	El tablón	12	Diciembre	2023-04-12T00:00:00	2024-11-08T13:00:00	1	Precipitación	0
5924	7	Sololá	701	Sololá	2	El tablón	12	Diciembre	2023-04-12T00:00:00	2024-11-08T13:00:00	8	Radiación solar	698
5925	7	Sololá	701	Sololá	2	El tablón	12	Diciembre	2023-04-12T00:00:00	2024-11-08T14:00:00	2	Temperatura media	18.3
5926	7	Sololá	701	Sololá	2	El tablón	12	Diciembre	2023-04-12T00:00:00	2024-11-08T14:00:00	4	Temperatura máxima	18.9
5927	7	Sololá	701	Sololá	2	El tablón	12	Diciembre	2023-04-12T00:00:00	2024-11-08T14:00:00	3	Temperatura mínima	18.3
5928	7	Sololá	701	Sololá	2	El tablón	12	Diciembre	2023-04-12T00:00:00	2024-11-08T14:00:00	5	Humedad	73
5929	7	Sololá	701	Sololá	2	El tablón	12	Diciembre	2023-04-12T00:00:00	2024-11-08T14:00:00	6	Velocidad del viento	14.5
5930	7	Sololá	701	Sololá	2	El tablón	12	Diciembre	2023-04-12T00:00:00	2024-11-08T14:00:00	7	Dirección del viento	14.48
5931	7	Sololá	701	Sololá	2	El tablón	12	Diciembre	2023-04-12T00:00:00	2024-11-08T14:00:00	1	Precipitación	0
5932	7	Sololá	701	Sololá	2	El tablón	12	Diciembre	2023-04-12T00:00:00	2024-11-08T14:00:00	8	Radiación solar	690
5933	7	Sololá	701	Sololá	2	El tablón	12	Diciembre	2023-04-12T00:00:00	2024-11-08T15:00:00	2	Temperatura media	17.6
5934	7	Sololá	701	Sololá	2	El tablón	12	Diciembre	2023-04-12T00:00:00	2024-11-08T15:00:00	4	Temperatura máxima	18.7
5935	7	Sololá	701	Sololá	2	El tablón	12	Diciembre	2023-04-12T00:00:00	2024-11-08T15:00:00	3	Temperatura mínima	17.6
5936	7	Sololá	701	Sololá	2	El tablón	12	Diciembre	2023-04-12T00:00:00	2024-11-08T15:00:00	5	Humedad	75
5937	7	Sololá	701	Sololá	2	El tablón	12	Diciembre	2023-04-12T00:00:00	2024-11-08T15:00:00	6	Velocidad del viento	12.9
5938	7	Sololá	701	Sololá	2	El tablón	12	Diciembre	2023-04-12T00:00:00	2024-11-08T15:00:00	7	Dirección del viento	12.87
5939	7	Sololá	701	Sololá	2	El tablón	12	Diciembre	2023-04-12T00:00:00	2024-11-08T15:00:00	1	Precipitación	0
5940	7	Sololá	701	Sololá	2	El tablón	12	Diciembre	2023-04-12T00:00:00	2024-11-08T15:00:00	8	Radiación solar	514
5941	7	Sololá	701	Sololá	2	El tablón	12	Diciembre	2023-04-12T00:00:00	2024-11-08T16:00:00	2	Temperatura media	18
5942	7	Sololá	701	Sololá	2	El tablón	12	Diciembre	2023-04-12T00:00:00	2024-11-08T16:00:00	4	Temperatura máxima	18.4
5943	7	Sololá	701	Sololá	2	El tablón	12	Diciembre	2023-04-12T00:00:00	2024-11-08T16:00:00	3	Temperatura mínima	17.4
5944	7	Sololá	701	Sololá	2	El tablón	12	Diciembre	2023-04-12T00:00:00	2024-11-08T16:00:00	5	Humedad	73
5945	7	Sololá	701	Sololá	2	El tablón	12	Diciembre	2023-04-12T00:00:00	2024-11-08T16:00:00	6	Velocidad del viento	11.3
5946	7	Sololá	701	Sololá	2	El tablón	12	Diciembre	2023-04-12T00:00:00	2024-11-08T16:00:00	7	Dirección del viento	11.27
5947	7	Sololá	701	Sololá	2	El tablón	12	Diciembre	2023-04-12T00:00:00	2024-11-08T16:00:00	1	Precipitación	0
5948	7	Sololá	701	Sololá	2	El tablón	12	Diciembre	2023-04-12T00:00:00	2024-11-08T16:00:00	8	Radiación solar	438
5949	7	Sololá	701	Sololá	2	El tablón	12	Diciembre	2023-04-12T00:00:00	2024-11-08T17:00:00	2	Temperatura media	16.1
5950	7	Sololá	701	Sololá	2	El tablón	12	Diciembre	2023-04-12T00:00:00	2024-11-08T17:00:00	4	Temperatura máxima	18
5951	7	Sololá	701	Sololá	2	El tablón	12	Diciembre	2023-04-12T00:00:00	2024-11-08T17:00:00	3	Temperatura mínima	16.1
5952	7	Sololá	701	Sololá	2	El tablón	12	Diciembre	2023-04-12T00:00:00	2024-11-08T17:00:00	5	Humedad	79
5953	7	Sololá	701	Sololá	2	El tablón	12	Diciembre	2023-04-12T00:00:00	2024-11-08T17:00:00	6	Velocidad del viento	9.7
5954	7	Sololá	701	Sololá	2	El tablón	12	Diciembre	2023-04-12T00:00:00	2024-11-08T17:00:00	7	Dirección del viento	9.66
5955	7	Sololá	701	Sololá	2	El tablón	12	Diciembre	2023-04-12T00:00:00	2024-11-08T17:00:00	1	Precipitación	0
5956	7	Sololá	701	Sololá	2	El tablón	12	Diciembre	2023-04-12T00:00:00	2024-11-08T17:00:00	8	Radiación solar	179
5957	7	Sololá	701	Sololá	2	El tablón	12	Diciembre	2023-04-12T00:00:00	2024-11-08T18:00:00	2	Temperatura media	15
5958	7	Sololá	701	Sololá	2	El tablón	12	Diciembre	2023-04-12T00:00:00	2024-11-08T18:00:00	4	Temperatura máxima	16.2
5959	7	Sololá	701	Sololá	2	El tablón	12	Diciembre	2023-04-12T00:00:00	2024-11-08T18:00:00	3	Temperatura mínima	15
5960	7	Sololá	701	Sololá	2	El tablón	12	Diciembre	2023-04-12T00:00:00	2024-11-08T18:00:00	5	Humedad	84
5961	7	Sololá	701	Sololá	2	El tablón	12	Diciembre	2023-04-12T00:00:00	2024-11-08T18:00:00	6	Velocidad del viento	11.3
5962	7	Sololá	701	Sololá	2	El tablón	12	Diciembre	2023-04-12T00:00:00	2024-11-08T18:00:00	7	Dirección del viento	11.27
5963	7	Sololá	701	Sololá	2	El tablón	12	Diciembre	2023-04-12T00:00:00	2024-11-08T18:00:00	1	Precipitación	0
5964	7	Sololá	701	Sololá	2	El tablón	12	Diciembre	2023-04-12T00:00:00	2024-11-08T18:00:00	8	Radiación solar	12
5965	7	Sololá	701	Sololá	2	El tablón	12	Diciembre	2023-04-12T00:00:00	2024-11-08T19:00:00	2	Temperatura media	14.9
5966	7	Sololá	701	Sololá	2	El tablón	12	Diciembre	2023-04-12T00:00:00	2024-11-08T19:00:00	4	Temperatura máxima	15.2
5967	7	Sololá	701	Sololá	2	El tablón	12	Diciembre	2023-04-12T00:00:00	2024-11-08T19:00:00	3	Temperatura mínima	14.9
5968	7	Sololá	701	Sololá	2	El tablón	12	Diciembre	2023-04-12T00:00:00	2024-11-08T19:00:00	5	Humedad	85
5969	7	Sololá	701	Sololá	2	El tablón	12	Diciembre	2023-04-12T00:00:00	2024-11-08T19:00:00	6	Velocidad del viento	9.7
5970	7	Sololá	701	Sololá	2	El tablón	12	Diciembre	2023-04-12T00:00:00	2024-11-08T19:00:00	7	Dirección del viento	9.66
5971	7	Sololá	701	Sololá	2	El tablón	12	Diciembre	2023-04-12T00:00:00	2024-11-08T19:00:00	1	Precipitación	0
5972	7	Sololá	701	Sololá	2	El tablón	12	Diciembre	2023-04-12T00:00:00	2024-11-08T19:00:00	8	Radiación solar	0
5973	7	Sololá	701	Sololá	2	El tablón	12	Diciembre	2023-04-12T00:00:00	2024-11-08T20:00:00	2	Temperatura media	14.7
5974	7	Sololá	701	Sololá	2	El tablón	12	Diciembre	2023-04-12T00:00:00	2024-11-08T20:00:00	4	Temperatura máxima	14.9
5975	7	Sololá	701	Sololá	2	El tablón	12	Diciembre	2023-04-12T00:00:00	2024-11-08T20:00:00	3	Temperatura mínima	14.6
5976	7	Sololá	701	Sololá	2	El tablón	12	Diciembre	2023-04-12T00:00:00	2024-11-08T20:00:00	5	Humedad	86
5977	7	Sololá	701	Sololá	2	El tablón	12	Diciembre	2023-04-12T00:00:00	2024-11-08T20:00:00	6	Velocidad del viento	9.7
5978	7	Sololá	701	Sololá	2	El tablón	12	Diciembre	2023-04-12T00:00:00	2024-11-08T20:00:00	7	Dirección del viento	9.66
5979	7	Sololá	701	Sololá	2	El tablón	12	Diciembre	2023-04-12T00:00:00	2024-11-08T20:00:00	1	Precipitación	0
5980	7	Sololá	701	Sololá	2	El tablón	12	Diciembre	2023-04-12T00:00:00	2024-11-08T20:00:00	8	Radiación solar	0
5981	7	Sololá	701	Sololá	2	El tablón	12	Diciembre	2023-04-12T00:00:00	2024-11-08T21:00:00	2	Temperatura media	14.2
5982	7	Sololá	701	Sololá	2	El tablón	12	Diciembre	2023-04-12T00:00:00	2024-11-08T21:00:00	4	Temperatura máxima	14.7
5983	7	Sololá	701	Sololá	2	El tablón	12	Diciembre	2023-04-12T00:00:00	2024-11-08T21:00:00	3	Temperatura mínima	14.2
5984	7	Sololá	701	Sololá	2	El tablón	12	Diciembre	2023-04-12T00:00:00	2024-11-08T21:00:00	5	Humedad	88
5985	7	Sololá	701	Sololá	2	El tablón	12	Diciembre	2023-04-12T00:00:00	2024-11-08T21:00:00	6	Velocidad del viento	8
5986	7	Sololá	701	Sololá	2	El tablón	12	Diciembre	2023-04-12T00:00:00	2024-11-08T21:00:00	7	Dirección del viento	8.05
5987	7	Sololá	701	Sololá	2	El tablón	12	Diciembre	2023-04-12T00:00:00	2024-11-08T21:00:00	1	Precipitación	0
5988	7	Sololá	701	Sololá	2	El tablón	12	Diciembre	2023-04-12T00:00:00	2024-11-08T21:00:00	8	Radiación solar	0
5989	7	Sololá	701	Sololá	2	El tablón	12	Diciembre	2023-04-12T00:00:00	2024-11-08T22:00:00	2	Temperatura media	13.7
5990	7	Sololá	701	Sololá	2	El tablón	12	Diciembre	2023-04-12T00:00:00	2024-11-08T22:00:00	4	Temperatura máxima	14.3
5991	7	Sololá	701	Sololá	2	El tablón	12	Diciembre	2023-04-12T00:00:00	2024-11-08T22:00:00	3	Temperatura mínima	13.7
5992	7	Sololá	701	Sololá	2	El tablón	12	Diciembre	2023-04-12T00:00:00	2024-11-08T22:00:00	5	Humedad	88
5993	7	Sololá	701	Sololá	2	El tablón	12	Diciembre	2023-04-12T00:00:00	2024-11-08T22:00:00	6	Velocidad del viento	6.4
5994	7	Sololá	701	Sololá	2	El tablón	12	Diciembre	2023-04-12T00:00:00	2024-11-08T22:00:00	7	Dirección del viento	6.44
5995	7	Sololá	701	Sololá	2	El tablón	12	Diciembre	2023-04-12T00:00:00	2024-11-08T22:00:00	1	Precipitación	0
5996	7	Sololá	701	Sololá	2	El tablón	12	Diciembre	2023-04-12T00:00:00	2024-11-08T22:00:00	8	Radiación solar	0
5997	7	Sololá	701	Sololá	2	El tablón	12	Diciembre	2023-04-12T00:00:00	2024-11-08T23:00:00	2	Temperatura media	13.9
5998	7	Sololá	701	Sololá	2	El tablón	12	Diciembre	2023-04-12T00:00:00	2024-11-08T23:00:00	4	Temperatura máxima	13.9
5999	7	Sololá	701	Sololá	2	El tablón	12	Diciembre	2023-04-12T00:00:00	2024-11-08T23:00:00	3	Temperatura mínima	13.6
6000	7	Sololá	701	Sololá	2	El tablón	12	Diciembre	2023-04-12T00:00:00	2024-11-08T23:00:00	5	Humedad	88
6001	7	Sololá	701	Sololá	2	El tablón	12	Diciembre	2023-04-12T00:00:00	2024-11-08T23:00:00	6	Velocidad del viento	8
6002	7	Sololá	701	Sololá	2	El tablón	12	Diciembre	2023-04-12T00:00:00	2024-11-08T23:00:00	7	Dirección del viento	8.05
6003	7	Sololá	701	Sololá	2	El tablón	12	Diciembre	2023-04-12T00:00:00	2024-11-08T23:00:00	1	Precipitación	0
6004	7	Sololá	701	Sololá	2	El tablón	12	Diciembre	2023-04-12T00:00:00	2024-11-08T23:00:00	8	Radiación solar	0
6005	7	Sololá	701	Sololá	2	El tablón	12	Diciembre	2023-05-12T00:00:00	2024-11-08T00:00:00	2	Temperatura media	13.8
6006	7	Sololá	701	Sololá	2	El tablón	12	Diciembre	2023-05-12T00:00:00	2024-11-08T00:00:00	4	Temperatura máxima	14.2
6007	7	Sololá	701	Sololá	2	El tablón	12	Diciembre	2023-05-12T00:00:00	2024-11-08T00:00:00	3	Temperatura mínima	13.8
6008	7	Sololá	701	Sololá	2	El tablón	12	Diciembre	2023-05-12T00:00:00	2024-11-08T00:00:00	5	Humedad	88
6009	7	Sololá	701	Sololá	2	El tablón	12	Diciembre	2023-05-12T00:00:00	2024-11-08T00:00:00	6	Velocidad del viento	8
6010	7	Sololá	701	Sololá	2	El tablón	12	Diciembre	2023-05-12T00:00:00	2024-11-08T00:00:00	7	Dirección del viento	8.05
6011	7	Sololá	701	Sololá	2	El tablón	12	Diciembre	2023-05-12T00:00:00	2024-11-08T00:00:00	1	Precipitación	0
6012	7	Sololá	701	Sololá	2	El tablón	12	Diciembre	2023-05-12T00:00:00	2024-11-08T00:00:00	8	Radiación solar	0
6013	7	Sololá	701	Sololá	2	El tablón	12	Diciembre	2023-05-12T00:00:00	2024-11-08T01:00:00	2	Temperatura media	13.3
6014	7	Sololá	701	Sololá	2	El tablón	12	Diciembre	2023-05-12T00:00:00	2024-11-08T01:00:00	4	Temperatura máxima	13.8
6015	7	Sololá	701	Sololá	2	El tablón	12	Diciembre	2023-05-12T00:00:00	2024-11-08T01:00:00	3	Temperatura mínima	13.3
6016	7	Sololá	701	Sololá	2	El tablón	12	Diciembre	2023-05-12T00:00:00	2024-11-08T01:00:00	5	Humedad	88
6017	7	Sololá	701	Sololá	2	El tablón	12	Diciembre	2023-05-12T00:00:00	2024-11-08T01:00:00	6	Velocidad del viento	9.7
6018	7	Sololá	701	Sololá	2	El tablón	12	Diciembre	2023-05-12T00:00:00	2024-11-08T01:00:00	7	Dirección del viento	9.66
6019	7	Sololá	701	Sololá	2	El tablón	12	Diciembre	2023-05-12T00:00:00	2024-11-08T01:00:00	1	Precipitación	0.6
6020	7	Sololá	701	Sololá	2	El tablón	12	Diciembre	2023-05-12T00:00:00	2024-11-08T01:00:00	8	Radiación solar	0
6021	7	Sololá	701	Sololá	2	El tablón	12	Diciembre	2023-05-12T00:00:00	2024-11-08T02:00:00	2	Temperatura media	13.1
6022	7	Sololá	701	Sololá	2	El tablón	12	Diciembre	2023-05-12T00:00:00	2024-11-08T02:00:00	4	Temperatura máxima	13.3
6023	7	Sololá	701	Sololá	2	El tablón	12	Diciembre	2023-05-12T00:00:00	2024-11-08T02:00:00	3	Temperatura mínima	13
6024	7	Sololá	701	Sololá	2	El tablón	12	Diciembre	2023-05-12T00:00:00	2024-11-08T02:00:00	5	Humedad	88
6025	7	Sololá	701	Sololá	2	El tablón	12	Diciembre	2023-05-12T00:00:00	2024-11-08T02:00:00	6	Velocidad del viento	8
6026	7	Sololá	701	Sololá	2	El tablón	12	Diciembre	2023-05-12T00:00:00	2024-11-08T02:00:00	7	Dirección del viento	8.05
6027	7	Sololá	701	Sololá	2	El tablón	12	Diciembre	2023-05-12T00:00:00	2024-11-08T02:00:00	1	Precipitación	0
6028	7	Sololá	701	Sololá	2	El tablón	12	Diciembre	2023-05-12T00:00:00	2024-11-08T02:00:00	8	Radiación solar	0
6029	7	Sololá	701	Sololá	2	El tablón	12	Diciembre	2023-05-12T00:00:00	2024-11-08T03:00:00	2	Temperatura media	13.1
6030	7	Sololá	701	Sololá	2	El tablón	12	Diciembre	2023-05-12T00:00:00	2024-11-08T03:00:00	4	Temperatura máxima	13.1
6031	7	Sololá	701	Sololá	2	El tablón	12	Diciembre	2023-05-12T00:00:00	2024-11-08T03:00:00	3	Temperatura mínima	12.9
6032	7	Sololá	701	Sololá	2	El tablón	12	Diciembre	2023-05-12T00:00:00	2024-11-08T03:00:00	5	Humedad	88
6033	7	Sololá	701	Sololá	2	El tablón	12	Diciembre	2023-05-12T00:00:00	2024-11-08T03:00:00	6	Velocidad del viento	8
6034	7	Sololá	701	Sololá	2	El tablón	12	Diciembre	2023-05-12T00:00:00	2024-11-08T03:00:00	7	Dirección del viento	8.05
6035	7	Sololá	701	Sololá	2	El tablón	12	Diciembre	2023-05-12T00:00:00	2024-11-08T03:00:00	1	Precipitación	0
6036	7	Sololá	701	Sololá	2	El tablón	12	Diciembre	2023-05-12T00:00:00	2024-11-08T03:00:00	8	Radiación solar	0
6037	7	Sololá	701	Sololá	2	El tablón	12	Diciembre	2023-05-12T00:00:00	2024-11-08T04:00:00	2	Temperatura media	12.9
6038	7	Sololá	701	Sololá	2	El tablón	12	Diciembre	2023-05-12T00:00:00	2024-11-08T04:00:00	4	Temperatura máxima	13.2
6039	7	Sololá	701	Sololá	2	El tablón	12	Diciembre	2023-05-12T00:00:00	2024-11-08T04:00:00	3	Temperatura mínima	12.9
6040	7	Sololá	701	Sololá	2	El tablón	12	Diciembre	2023-05-12T00:00:00	2024-11-08T04:00:00	5	Humedad	89
6041	7	Sololá	701	Sololá	2	El tablón	12	Diciembre	2023-05-12T00:00:00	2024-11-08T04:00:00	6	Velocidad del viento	9.7
6042	7	Sololá	701	Sololá	2	El tablón	12	Diciembre	2023-05-12T00:00:00	2024-11-08T04:00:00	7	Dirección del viento	9.66
6043	7	Sololá	701	Sololá	2	El tablón	12	Diciembre	2023-05-12T00:00:00	2024-11-08T04:00:00	1	Precipitación	0
6044	7	Sololá	701	Sololá	2	El tablón	12	Diciembre	2023-05-12T00:00:00	2024-11-08T04:00:00	8	Radiación solar	0
6045	7	Sololá	701	Sololá	2	El tablón	12	Diciembre	2023-05-12T00:00:00	2024-11-08T05:00:00	2	Temperatura media	12.8
6046	7	Sololá	701	Sololá	2	El tablón	12	Diciembre	2023-05-12T00:00:00	2024-11-08T05:00:00	4	Temperatura máxima	12.9
6047	7	Sololá	701	Sololá	2	El tablón	12	Diciembre	2023-05-12T00:00:00	2024-11-08T05:00:00	3	Temperatura mínima	12.8
6048	7	Sololá	701	Sololá	2	El tablón	12	Diciembre	2023-05-12T00:00:00	2024-11-08T05:00:00	5	Humedad	88
6049	7	Sololá	701	Sololá	2	El tablón	12	Diciembre	2023-05-12T00:00:00	2024-11-08T05:00:00	6	Velocidad del viento	8
6050	7	Sololá	701	Sololá	2	El tablón	12	Diciembre	2023-05-12T00:00:00	2024-11-08T05:00:00	7	Dirección del viento	8.05
6051	7	Sololá	701	Sololá	2	El tablón	12	Diciembre	2023-05-12T00:00:00	2024-11-08T05:00:00	1	Precipitación	0
6052	7	Sololá	701	Sololá	2	El tablón	12	Diciembre	2023-05-12T00:00:00	2024-11-08T05:00:00	8	Radiación solar	0
6053	7	Sololá	701	Sololá	2	El tablón	12	Diciembre	2023-05-12T00:00:00	2024-11-08T06:00:00	2	Temperatura media	13
6054	7	Sololá	701	Sololá	2	El tablón	12	Diciembre	2023-05-12T00:00:00	2024-11-08T06:00:00	4	Temperatura máxima	13
6055	7	Sololá	701	Sololá	2	El tablón	12	Diciembre	2023-05-12T00:00:00	2024-11-08T06:00:00	3	Temperatura mínima	12.8
6056	7	Sololá	701	Sololá	2	El tablón	12	Diciembre	2023-05-12T00:00:00	2024-11-08T06:00:00	5	Humedad	88
6057	7	Sololá	701	Sololá	2	El tablón	12	Diciembre	2023-05-12T00:00:00	2024-11-08T06:00:00	6	Velocidad del viento	11.3
6058	7	Sololá	701	Sololá	2	El tablón	12	Diciembre	2023-05-12T00:00:00	2024-11-08T06:00:00	7	Dirección del viento	11.27
6059	7	Sololá	701	Sololá	2	El tablón	12	Diciembre	2023-05-12T00:00:00	2024-11-08T06:00:00	1	Precipitación	0
6060	7	Sololá	701	Sololá	2	El tablón	12	Diciembre	2023-05-12T00:00:00	2024-11-08T06:00:00	8	Radiación solar	0
6061	7	Sololá	701	Sololá	2	El tablón	12	Diciembre	2023-05-12T00:00:00	2024-11-08T07:00:00	2	Temperatura media	13.1
6062	7	Sololá	701	Sololá	2	El tablón	12	Diciembre	2023-05-12T00:00:00	2024-11-08T07:00:00	4	Temperatura máxima	13.1
6063	7	Sololá	701	Sololá	2	El tablón	12	Diciembre	2023-05-12T00:00:00	2024-11-08T07:00:00	3	Temperatura mínima	12.9
6064	7	Sololá	701	Sololá	2	El tablón	12	Diciembre	2023-05-12T00:00:00	2024-11-08T07:00:00	5	Humedad	88
6065	7	Sololá	701	Sololá	2	El tablón	12	Diciembre	2023-05-12T00:00:00	2024-11-08T07:00:00	6	Velocidad del viento	12.9
6066	7	Sololá	701	Sololá	2	El tablón	12	Diciembre	2023-05-12T00:00:00	2024-11-08T07:00:00	7	Dirección del viento	12.87
6067	7	Sololá	701	Sololá	2	El tablón	12	Diciembre	2023-05-12T00:00:00	2024-11-08T07:00:00	1	Precipitación	0
6068	7	Sololá	701	Sololá	2	El tablón	12	Diciembre	2023-05-12T00:00:00	2024-11-08T07:00:00	8	Radiación solar	21
6069	7	Sololá	701	Sololá	2	El tablón	12	Diciembre	2023-05-12T00:00:00	2024-11-08T08:00:00	2	Temperatura media	13.8
6070	7	Sololá	701	Sololá	2	El tablón	12	Diciembre	2023-05-12T00:00:00	2024-11-08T08:00:00	4	Temperatura máxima	13.8
6071	7	Sololá	701	Sololá	2	El tablón	12	Diciembre	2023-05-12T00:00:00	2024-11-08T08:00:00	3	Temperatura mínima	13.1
6072	7	Sololá	701	Sololá	2	El tablón	12	Diciembre	2023-05-12T00:00:00	2024-11-08T08:00:00	5	Humedad	88
6073	7	Sololá	701	Sololá	2	El tablón	12	Diciembre	2023-05-12T00:00:00	2024-11-08T08:00:00	6	Velocidad del viento	8
6074	7	Sololá	701	Sololá	2	El tablón	12	Diciembre	2023-05-12T00:00:00	2024-11-08T08:00:00	7	Dirección del viento	8.05
6075	7	Sololá	701	Sololá	2	El tablón	12	Diciembre	2023-05-12T00:00:00	2024-11-08T08:00:00	1	Precipitación	0
6076	7	Sololá	701	Sololá	2	El tablón	12	Diciembre	2023-05-12T00:00:00	2024-11-08T08:00:00	8	Radiación solar	75
6077	7	Sololá	701	Sololá	2	El tablón	12	Diciembre	2023-05-12T00:00:00	2024-11-08T09:00:00	2	Temperatura media	14.8
6078	7	Sololá	701	Sololá	2	El tablón	12	Diciembre	2023-05-12T00:00:00	2024-11-08T09:00:00	4	Temperatura máxima	15.1
6079	7	Sololá	701	Sololá	2	El tablón	12	Diciembre	2023-05-12T00:00:00	2024-11-08T09:00:00	3	Temperatura mínima	13.8
6080	7	Sololá	701	Sololá	2	El tablón	12	Diciembre	2023-05-12T00:00:00	2024-11-08T09:00:00	5	Humedad	88
6081	7	Sololá	701	Sololá	2	El tablón	12	Diciembre	2023-05-12T00:00:00	2024-11-08T09:00:00	6	Velocidad del viento	11.3
6082	7	Sololá	701	Sololá	2	El tablón	12	Diciembre	2023-05-12T00:00:00	2024-11-08T09:00:00	7	Dirección del viento	11.27
6083	7	Sololá	701	Sololá	2	El tablón	12	Diciembre	2023-05-12T00:00:00	2024-11-08T09:00:00	1	Precipitación	0.2
6084	7	Sololá	701	Sololá	2	El tablón	12	Diciembre	2023-05-12T00:00:00	2024-11-08T09:00:00	8	Radiación solar	280
6085	7	Sololá	701	Sololá	2	El tablón	12	Diciembre	2023-05-12T00:00:00	2024-11-08T10:00:00	2	Temperatura media	16.8
6086	7	Sololá	701	Sololá	2	El tablón	12	Diciembre	2023-05-12T00:00:00	2024-11-08T10:00:00	4	Temperatura máxima	16.8
6087	7	Sololá	701	Sololá	2	El tablón	12	Diciembre	2023-05-12T00:00:00	2024-11-08T10:00:00	3	Temperatura mínima	14.8
6088	7	Sololá	701	Sololá	2	El tablón	12	Diciembre	2023-05-12T00:00:00	2024-11-08T10:00:00	5	Humedad	82
6089	7	Sololá	701	Sololá	2	El tablón	12	Diciembre	2023-05-12T00:00:00	2024-11-08T10:00:00	6	Velocidad del viento	16.1
6090	7	Sololá	701	Sololá	2	El tablón	12	Diciembre	2023-05-12T00:00:00	2024-11-08T10:00:00	7	Dirección del viento	16.09
6091	7	Sololá	701	Sololá	2	El tablón	12	Diciembre	2023-05-12T00:00:00	2024-11-08T10:00:00	1	Precipitación	0
6092	7	Sololá	701	Sololá	2	El tablón	12	Diciembre	2023-05-12T00:00:00	2024-11-08T10:00:00	8	Radiación solar	598
6093	7	Sololá	701	Sololá	2	El tablón	12	Diciembre	2023-05-12T00:00:00	2024-11-08T11:00:00	2	Temperatura media	17.1
6094	7	Sololá	701	Sololá	2	El tablón	12	Diciembre	2023-05-12T00:00:00	2024-11-08T11:00:00	4	Temperatura máxima	17.4
6095	7	Sololá	701	Sololá	2	El tablón	12	Diciembre	2023-05-12T00:00:00	2024-11-08T11:00:00	3	Temperatura mínima	16.6
6096	7	Sololá	701	Sololá	2	El tablón	12	Diciembre	2023-05-12T00:00:00	2024-11-08T11:00:00	5	Humedad	80
6097	7	Sololá	701	Sololá	2	El tablón	12	Diciembre	2023-05-12T00:00:00	2024-11-08T11:00:00	6	Velocidad del viento	12.9
6098	7	Sololá	701	Sololá	2	El tablón	12	Diciembre	2023-05-12T00:00:00	2024-11-08T11:00:00	7	Dirección del viento	12.87
6099	7	Sololá	701	Sololá	2	El tablón	12	Diciembre	2023-05-12T00:00:00	2024-11-08T11:00:00	1	Precipitación	0
6100	7	Sololá	701	Sololá	2	El tablón	12	Diciembre	2023-05-12T00:00:00	2024-11-08T11:00:00	8	Radiación solar	608
6101	7	Sololá	701	Sololá	2	El tablón	12	Diciembre	2023-05-12T00:00:00	2024-11-08T12:00:00	2	Temperatura media	18.1
6102	7	Sololá	701	Sololá	2	El tablón	12	Diciembre	2023-05-12T00:00:00	2024-11-08T12:00:00	4	Temperatura máxima	18.1
6103	7	Sololá	701	Sololá	2	El tablón	12	Diciembre	2023-05-12T00:00:00	2024-11-08T12:00:00	3	Temperatura mínima	16.9
6104	7	Sololá	701	Sololá	2	El tablón	12	Diciembre	2023-05-12T00:00:00	2024-11-08T12:00:00	5	Humedad	77
6105	7	Sololá	701	Sololá	2	El tablón	12	Diciembre	2023-05-12T00:00:00	2024-11-08T12:00:00	6	Velocidad del viento	12.9
6106	7	Sololá	701	Sololá	2	El tablón	12	Diciembre	2023-05-12T00:00:00	2024-11-08T12:00:00	7	Dirección del viento	12.87
6107	7	Sololá	701	Sololá	2	El tablón	12	Diciembre	2023-05-12T00:00:00	2024-11-08T12:00:00	1	Precipitación	0
6108	7	Sololá	701	Sololá	2	El tablón	12	Diciembre	2023-05-12T00:00:00	2024-11-08T12:00:00	8	Radiación solar	668
6109	7	Sololá	701	Sololá	2	El tablón	12	Diciembre	2023-05-12T00:00:00	2024-11-08T13:00:00	2	Temperatura media	18.2
6110	7	Sololá	701	Sololá	2	El tablón	12	Diciembre	2023-05-12T00:00:00	2024-11-08T13:00:00	4	Temperatura máxima	18.8
6111	7	Sololá	701	Sololá	2	El tablón	12	Diciembre	2023-05-12T00:00:00	2024-11-08T13:00:00	3	Temperatura mínima	17.8
6112	7	Sololá	701	Sololá	2	El tablón	12	Diciembre	2023-05-12T00:00:00	2024-11-08T13:00:00	5	Humedad	72
6113	7	Sololá	701	Sololá	2	El tablón	12	Diciembre	2023-05-12T00:00:00	2024-11-08T13:00:00	6	Velocidad del viento	11.3
6114	7	Sololá	701	Sololá	2	El tablón	12	Diciembre	2023-05-12T00:00:00	2024-11-08T13:00:00	7	Dirección del viento	11.27
6115	7	Sololá	701	Sololá	2	El tablón	12	Diciembre	2023-05-12T00:00:00	2024-11-08T13:00:00	1	Precipitación	0
6116	7	Sololá	701	Sololá	2	El tablón	12	Diciembre	2023-05-12T00:00:00	2024-11-08T13:00:00	8	Radiación solar	822
6117	7	Sololá	701	Sololá	2	El tablón	12	Diciembre	2023-05-12T00:00:00	2024-11-08T14:00:00	2	Temperatura media	18.2
6118	7	Sololá	701	Sololá	2	El tablón	12	Diciembre	2023-05-12T00:00:00	2024-11-08T14:00:00	4	Temperatura máxima	18.6
6119	7	Sololá	701	Sololá	2	El tablón	12	Diciembre	2023-05-12T00:00:00	2024-11-08T14:00:00	3	Temperatura mínima	18
6120	7	Sololá	701	Sololá	2	El tablón	12	Diciembre	2023-05-12T00:00:00	2024-11-08T14:00:00	5	Humedad	68
6121	7	Sololá	701	Sololá	2	El tablón	12	Diciembre	2023-05-12T00:00:00	2024-11-08T14:00:00	6	Velocidad del viento	11.3
6122	7	Sololá	701	Sololá	2	El tablón	12	Diciembre	2023-05-12T00:00:00	2024-11-08T14:00:00	7	Dirección del viento	11.27
6123	7	Sololá	701	Sololá	2	El tablón	12	Diciembre	2023-05-12T00:00:00	2024-11-08T14:00:00	1	Precipitación	0
6124	7	Sololá	701	Sololá	2	El tablón	12	Diciembre	2023-05-12T00:00:00	2024-11-08T14:00:00	8	Radiación solar	722
6125	7	Sololá	701	Sololá	2	El tablón	12	Diciembre	2023-05-12T00:00:00	2024-11-08T15:00:00	2	Temperatura media	17.8
6126	7	Sololá	701	Sololá	2	El tablón	12	Diciembre	2023-05-12T00:00:00	2024-11-08T15:00:00	4	Temperatura máxima	18.6
6127	7	Sololá	701	Sololá	2	El tablón	12	Diciembre	2023-05-12T00:00:00	2024-11-08T15:00:00	3	Temperatura mínima	17.8
6128	7	Sololá	701	Sololá	2	El tablón	12	Diciembre	2023-05-12T00:00:00	2024-11-08T15:00:00	5	Humedad	67
6129	7	Sololá	701	Sololá	2	El tablón	12	Diciembre	2023-05-12T00:00:00	2024-11-08T15:00:00	6	Velocidad del viento	11.3
6130	7	Sololá	701	Sololá	2	El tablón	12	Diciembre	2023-05-12T00:00:00	2024-11-08T15:00:00	7	Dirección del viento	11.27
6131	7	Sololá	701	Sololá	2	El tablón	12	Diciembre	2023-05-12T00:00:00	2024-11-08T15:00:00	1	Precipitación	0
6132	7	Sololá	701	Sololá	2	El tablón	12	Diciembre	2023-05-12T00:00:00	2024-11-08T15:00:00	8	Radiación solar	618
6133	7	Sololá	701	Sololá	2	El tablón	12	Diciembre	2023-05-12T00:00:00	2024-11-08T16:00:00	2	Temperatura media	17.1
6134	7	Sololá	701	Sololá	2	El tablón	12	Diciembre	2023-05-12T00:00:00	2024-11-08T16:00:00	4	Temperatura máxima	18.1
6135	7	Sololá	701	Sololá	2	El tablón	12	Diciembre	2023-05-12T00:00:00	2024-11-08T16:00:00	3	Temperatura mínima	16.9
6136	7	Sololá	701	Sololá	2	El tablón	12	Diciembre	2023-05-12T00:00:00	2024-11-08T16:00:00	5	Humedad	70
6137	7	Sololá	701	Sololá	2	El tablón	12	Diciembre	2023-05-12T00:00:00	2024-11-08T16:00:00	6	Velocidad del viento	9.7
6138	7	Sololá	701	Sololá	2	El tablón	12	Diciembre	2023-05-12T00:00:00	2024-11-08T16:00:00	7	Dirección del viento	9.66
6139	7	Sololá	701	Sololá	2	El tablón	12	Diciembre	2023-05-12T00:00:00	2024-11-08T16:00:00	1	Precipitación	0
6140	7	Sololá	701	Sololá	2	El tablón	12	Diciembre	2023-05-12T00:00:00	2024-11-08T16:00:00	8	Radiación solar	439
6141	7	Sololá	701	Sololá	2	El tablón	12	Diciembre	2023-05-12T00:00:00	2024-11-08T17:00:00	2	Temperatura media	15.9
6142	7	Sololá	701	Sololá	2	El tablón	12	Diciembre	2023-05-12T00:00:00	2024-11-08T17:00:00	4	Temperatura máxima	17.3
6143	7	Sololá	701	Sololá	2	El tablón	12	Diciembre	2023-05-12T00:00:00	2024-11-08T17:00:00	3	Temperatura mínima	15.9
6144	7	Sololá	701	Sololá	2	El tablón	12	Diciembre	2023-05-12T00:00:00	2024-11-08T17:00:00	5	Humedad	76
6145	7	Sololá	701	Sololá	2	El tablón	12	Diciembre	2023-05-12T00:00:00	2024-11-08T17:00:00	6	Velocidad del viento	9.7
6146	7	Sololá	701	Sololá	2	El tablón	12	Diciembre	2023-05-12T00:00:00	2024-11-08T17:00:00	7	Dirección del viento	9.66
6147	7	Sololá	701	Sololá	2	El tablón	12	Diciembre	2023-05-12T00:00:00	2024-11-08T17:00:00	1	Precipitación	0
6148	7	Sololá	701	Sololá	2	El tablón	12	Diciembre	2023-05-12T00:00:00	2024-11-08T17:00:00	8	Radiación solar	184
6149	7	Sololá	701	Sololá	2	El tablón	12	Diciembre	2023-05-12T00:00:00	2024-11-08T18:00:00	2	Temperatura media	14.1
6150	7	Sololá	701	Sololá	2	El tablón	12	Diciembre	2023-05-12T00:00:00	2024-11-08T18:00:00	4	Temperatura máxima	15.9
6151	7	Sololá	701	Sololá	2	El tablón	12	Diciembre	2023-05-12T00:00:00	2024-11-08T18:00:00	3	Temperatura mínima	14.1
6152	7	Sololá	701	Sololá	2	El tablón	12	Diciembre	2023-05-12T00:00:00	2024-11-08T18:00:00	5	Humedad	83
6153	7	Sololá	701	Sololá	2	El tablón	12	Diciembre	2023-05-12T00:00:00	2024-11-08T18:00:00	6	Velocidad del viento	9.7
6154	7	Sololá	701	Sololá	2	El tablón	12	Diciembre	2023-05-12T00:00:00	2024-11-08T18:00:00	7	Dirección del viento	9.66
6155	7	Sololá	701	Sololá	2	El tablón	12	Diciembre	2023-05-12T00:00:00	2024-11-08T18:00:00	1	Precipitación	0
6156	7	Sololá	701	Sololá	2	El tablón	12	Diciembre	2023-05-12T00:00:00	2024-11-08T18:00:00	8	Radiación solar	14
6157	7	Sololá	701	Sololá	2	El tablón	12	Diciembre	2023-05-12T00:00:00	2024-11-08T19:00:00	2	Temperatura media	13.4
6158	7	Sololá	701	Sololá	2	El tablón	12	Diciembre	2023-05-12T00:00:00	2024-11-08T19:00:00	4	Temperatura máxima	14.1
6159	7	Sololá	701	Sololá	2	El tablón	12	Diciembre	2023-05-12T00:00:00	2024-11-08T19:00:00	3	Temperatura mínima	13.4
6160	7	Sololá	701	Sololá	2	El tablón	12	Diciembre	2023-05-12T00:00:00	2024-11-08T19:00:00	5	Humedad	85
6161	7	Sololá	701	Sololá	2	El tablón	12	Diciembre	2023-05-12T00:00:00	2024-11-08T19:00:00	6	Velocidad del viento	12.9
6162	7	Sololá	701	Sololá	2	El tablón	12	Diciembre	2023-05-12T00:00:00	2024-11-08T19:00:00	7	Dirección del viento	12.87
6163	7	Sololá	701	Sololá	2	El tablón	12	Diciembre	2023-05-12T00:00:00	2024-11-08T19:00:00	1	Precipitación	0
6164	7	Sololá	701	Sololá	2	El tablón	12	Diciembre	2023-05-12T00:00:00	2024-11-08T19:00:00	8	Radiación solar	0
6165	7	Sololá	701	Sololá	2	El tablón	12	Diciembre	2023-05-12T00:00:00	2024-11-08T20:00:00	2	Temperatura media	12.9
6166	7	Sololá	701	Sololá	2	El tablón	12	Diciembre	2023-05-12T00:00:00	2024-11-08T20:00:00	4	Temperatura máxima	13.4
6167	7	Sololá	701	Sololá	2	El tablón	12	Diciembre	2023-05-12T00:00:00	2024-11-08T20:00:00	3	Temperatura mínima	12.9
6168	7	Sololá	701	Sololá	2	El tablón	12	Diciembre	2023-05-12T00:00:00	2024-11-08T20:00:00	5	Humedad	87
6169	7	Sololá	701	Sololá	2	El tablón	12	Diciembre	2023-05-12T00:00:00	2024-11-08T20:00:00	6	Velocidad del viento	12.9
6170	7	Sololá	701	Sololá	2	El tablón	12	Diciembre	2023-05-12T00:00:00	2024-11-08T20:00:00	7	Dirección del viento	12.87
6171	7	Sololá	701	Sololá	2	El tablón	12	Diciembre	2023-05-12T00:00:00	2024-11-08T20:00:00	1	Precipitación	0
6172	7	Sololá	701	Sololá	2	El tablón	12	Diciembre	2023-05-12T00:00:00	2024-11-08T20:00:00	8	Radiación solar	0
6173	7	Sololá	701	Sololá	2	El tablón	12	Diciembre	2023-05-12T00:00:00	2024-11-08T21:00:00	2	Temperatura media	12.9
6174	7	Sololá	701	Sololá	2	El tablón	12	Diciembre	2023-05-12T00:00:00	2024-11-08T21:00:00	4	Temperatura máxima	12.9
6175	7	Sololá	701	Sololá	2	El tablón	12	Diciembre	2023-05-12T00:00:00	2024-11-08T21:00:00	3	Temperatura mínima	12.8
6176	7	Sololá	701	Sololá	2	El tablón	12	Diciembre	2023-05-12T00:00:00	2024-11-08T21:00:00	5	Humedad	88
6177	7	Sololá	701	Sololá	2	El tablón	12	Diciembre	2023-05-12T00:00:00	2024-11-08T21:00:00	6	Velocidad del viento	9.7
6178	7	Sololá	701	Sololá	2	El tablón	12	Diciembre	2023-05-12T00:00:00	2024-11-08T21:00:00	7	Dirección del viento	9.66
6179	7	Sololá	701	Sololá	2	El tablón	12	Diciembre	2023-05-12T00:00:00	2024-11-08T21:00:00	1	Precipitación	0
6180	7	Sololá	701	Sololá	2	El tablón	12	Diciembre	2023-05-12T00:00:00	2024-11-08T21:00:00	8	Radiación solar	0
6181	7	Sololá	701	Sololá	2	El tablón	12	Diciembre	2023-05-12T00:00:00	2024-11-08T22:00:00	2	Temperatura media	12.7
6182	7	Sololá	701	Sololá	2	El tablón	12	Diciembre	2023-05-12T00:00:00	2024-11-08T22:00:00	4	Temperatura máxima	13
6183	7	Sololá	701	Sololá	2	El tablón	12	Diciembre	2023-05-12T00:00:00	2024-11-08T22:00:00	3	Temperatura mínima	12.7
6184	7	Sololá	701	Sololá	2	El tablón	12	Diciembre	2023-05-12T00:00:00	2024-11-08T22:00:00	5	Humedad	87
6185	7	Sololá	701	Sololá	2	El tablón	12	Diciembre	2023-05-12T00:00:00	2024-11-08T22:00:00	6	Velocidad del viento	11.3
6186	7	Sololá	701	Sololá	2	El tablón	12	Diciembre	2023-05-12T00:00:00	2024-11-08T22:00:00	7	Dirección del viento	11.27
6187	7	Sololá	701	Sololá	2	El tablón	12	Diciembre	2023-05-12T00:00:00	2024-11-08T22:00:00	1	Precipitación	0
6188	7	Sololá	701	Sololá	2	El tablón	12	Diciembre	2023-05-12T00:00:00	2024-11-08T22:00:00	8	Radiación solar	0
6189	7	Sololá	701	Sololá	2	El tablón	12	Diciembre	2023-05-12T00:00:00	2024-11-08T23:00:00	2	Temperatura media	12.7
6190	7	Sololá	701	Sololá	2	El tablón	12	Diciembre	2023-05-12T00:00:00	2024-11-08T23:00:00	4	Temperatura máxima	12.7
6191	7	Sololá	701	Sololá	2	El tablón	12	Diciembre	2023-05-12T00:00:00	2024-11-08T23:00:00	3	Temperatura mínima	12.5
6192	7	Sololá	701	Sololá	2	El tablón	12	Diciembre	2023-05-12T00:00:00	2024-11-08T23:00:00	5	Humedad	82
6193	7	Sololá	701	Sololá	2	El tablón	12	Diciembre	2023-05-12T00:00:00	2024-11-08T23:00:00	6	Velocidad del viento	12.9
6194	7	Sololá	701	Sololá	2	El tablón	12	Diciembre	2023-05-12T00:00:00	2024-11-08T23:00:00	7	Dirección del viento	12.87
6195	7	Sololá	701	Sololá	2	El tablón	12	Diciembre	2023-05-12T00:00:00	2024-11-08T23:00:00	1	Precipitación	0
6196	7	Sololá	701	Sololá	2	El tablón	12	Diciembre	2023-05-12T00:00:00	2024-11-08T23:00:00	8	Radiación solar	0
6197	7	Sololá	701	Sololá	2	El tablón	12	Diciembre	2023-06-12T00:00:00	2024-11-08T00:00:00	2	Temperatura media	12.4
6198	7	Sololá	701	Sololá	2	El tablón	12	Diciembre	2023-06-12T00:00:00	2024-11-08T00:00:00	4	Temperatura máxima	12.7
6199	7	Sololá	701	Sololá	2	El tablón	12	Diciembre	2023-06-12T00:00:00	2024-11-08T00:00:00	3	Temperatura mínima	12.3
6200	7	Sololá	701	Sololá	2	El tablón	12	Diciembre	2023-06-12T00:00:00	2024-11-08T00:00:00	5	Humedad	84
6201	7	Sololá	701	Sololá	2	El tablón	12	Diciembre	2023-06-12T00:00:00	2024-11-08T00:00:00	6	Velocidad del viento	14.5
6202	7	Sololá	701	Sololá	2	El tablón	12	Diciembre	2023-06-12T00:00:00	2024-11-08T00:00:00	7	Dirección del viento	14.48
6203	7	Sololá	701	Sololá	2	El tablón	12	Diciembre	2023-06-12T00:00:00	2024-11-08T00:00:00	1	Precipitación	0
6204	7	Sololá	701	Sololá	2	El tablón	12	Diciembre	2023-06-12T00:00:00	2024-11-08T00:00:00	8	Radiación solar	0
6205	7	Sololá	701	Sololá	2	El tablón	12	Diciembre	2023-06-12T00:00:00	2024-11-08T01:00:00	2	Temperatura media	12.8
6206	7	Sololá	701	Sololá	2	El tablón	12	Diciembre	2023-06-12T00:00:00	2024-11-08T01:00:00	4	Temperatura máxima	12.9
6207	7	Sololá	701	Sololá	2	El tablón	12	Diciembre	2023-06-12T00:00:00	2024-11-08T01:00:00	3	Temperatura mínima	12.4
6208	7	Sololá	701	Sololá	2	El tablón	12	Diciembre	2023-06-12T00:00:00	2024-11-08T01:00:00	5	Humedad	86
6209	7	Sololá	701	Sololá	2	El tablón	12	Diciembre	2023-06-12T00:00:00	2024-11-08T01:00:00	6	Velocidad del viento	16.1
6210	7	Sololá	701	Sololá	2	El tablón	12	Diciembre	2023-06-12T00:00:00	2024-11-08T01:00:00	7	Dirección del viento	16.09
6211	7	Sololá	701	Sololá	2	El tablón	12	Diciembre	2023-06-12T00:00:00	2024-11-08T01:00:00	1	Precipitación	0
6212	7	Sololá	701	Sololá	2	El tablón	12	Diciembre	2023-06-12T00:00:00	2024-11-08T01:00:00	8	Radiación solar	0
6213	7	Sololá	701	Sololá	2	El tablón	12	Diciembre	2023-06-12T00:00:00	2024-11-08T02:00:00	2	Temperatura media	12.3
6214	7	Sololá	701	Sololá	2	El tablón	12	Diciembre	2023-06-12T00:00:00	2024-11-08T02:00:00	4	Temperatura máxima	12.8
6215	7	Sololá	701	Sololá	2	El tablón	12	Diciembre	2023-06-12T00:00:00	2024-11-08T02:00:00	3	Temperatura mínima	12.3
6216	7	Sololá	701	Sololá	2	El tablón	12	Diciembre	2023-06-12T00:00:00	2024-11-08T02:00:00	5	Humedad	88
6217	7	Sololá	701	Sololá	2	El tablón	12	Diciembre	2023-06-12T00:00:00	2024-11-08T02:00:00	6	Velocidad del viento	16.1
6218	7	Sololá	701	Sololá	2	El tablón	12	Diciembre	2023-06-12T00:00:00	2024-11-08T02:00:00	7	Dirección del viento	16.09
6219	7	Sololá	701	Sololá	2	El tablón	12	Diciembre	2023-06-12T00:00:00	2024-11-08T02:00:00	1	Precipitación	0
6220	7	Sololá	701	Sololá	2	El tablón	12	Diciembre	2023-06-12T00:00:00	2024-11-08T02:00:00	8	Radiación solar	0
6221	7	Sololá	701	Sololá	2	El tablón	12	Diciembre	2023-06-12T00:00:00	2024-11-08T03:00:00	2	Temperatura media	11.8
6222	7	Sololá	701	Sololá	2	El tablón	12	Diciembre	2023-06-12T00:00:00	2024-11-08T03:00:00	4	Temperatura máxima	12.3
6223	7	Sololá	701	Sololá	2	El tablón	12	Diciembre	2023-06-12T00:00:00	2024-11-08T03:00:00	3	Temperatura mínima	11.8
6224	7	Sololá	701	Sololá	2	El tablón	12	Diciembre	2023-06-12T00:00:00	2024-11-08T03:00:00	5	Humedad	89
6225	7	Sololá	701	Sololá	2	El tablón	12	Diciembre	2023-06-12T00:00:00	2024-11-08T03:00:00	6	Velocidad del viento	11.3
6226	7	Sololá	701	Sololá	2	El tablón	12	Diciembre	2023-06-12T00:00:00	2024-11-08T03:00:00	7	Dirección del viento	11.27
6227	7	Sololá	701	Sololá	2	El tablón	12	Diciembre	2023-06-12T00:00:00	2024-11-08T03:00:00	1	Precipitación	0
6228	7	Sololá	701	Sololá	2	El tablón	12	Diciembre	2023-06-12T00:00:00	2024-11-08T03:00:00	8	Radiación solar	0
6229	7	Sololá	701	Sololá	2	El tablón	12	Diciembre	2023-06-12T00:00:00	2024-11-08T04:00:00	2	Temperatura media	11.8
6230	7	Sololá	701	Sololá	2	El tablón	12	Diciembre	2023-06-12T00:00:00	2024-11-08T04:00:00	4	Temperatura máxima	12.3
6231	7	Sololá	701	Sololá	2	El tablón	12	Diciembre	2023-06-12T00:00:00	2024-11-08T04:00:00	3	Temperatura mínima	11.8
6232	7	Sololá	701	Sololá	2	El tablón	12	Diciembre	2023-06-12T00:00:00	2024-11-08T04:00:00	5	Humedad	88
6233	7	Sololá	701	Sololá	2	El tablón	12	Diciembre	2023-06-12T00:00:00	2024-11-08T04:00:00	6	Velocidad del viento	12.9
6234	7	Sololá	701	Sololá	2	El tablón	12	Diciembre	2023-06-12T00:00:00	2024-11-08T04:00:00	7	Dirección del viento	12.87
6235	7	Sololá	701	Sololá	2	El tablón	12	Diciembre	2023-06-12T00:00:00	2024-11-08T04:00:00	1	Precipitación	0
6236	7	Sololá	701	Sololá	2	El tablón	12	Diciembre	2023-06-12T00:00:00	2024-11-08T04:00:00	8	Radiación solar	0
6237	7	Sololá	701	Sololá	2	El tablón	12	Diciembre	2023-06-12T00:00:00	2024-11-08T05:00:00	2	Temperatura media	12.1
6238	7	Sololá	701	Sololá	2	El tablón	12	Diciembre	2023-06-12T00:00:00	2024-11-08T05:00:00	4	Temperatura máxima	12.1
6239	7	Sololá	701	Sololá	2	El tablón	12	Diciembre	2023-06-12T00:00:00	2024-11-08T05:00:00	3	Temperatura mínima	11.7
6240	7	Sololá	701	Sololá	2	El tablón	12	Diciembre	2023-06-12T00:00:00	2024-11-08T05:00:00	5	Humedad	88
6241	7	Sololá	701	Sololá	2	El tablón	12	Diciembre	2023-06-12T00:00:00	2024-11-08T05:00:00	6	Velocidad del viento	16.1
6242	7	Sololá	701	Sololá	2	El tablón	12	Diciembre	2023-06-12T00:00:00	2024-11-08T05:00:00	7	Dirección del viento	16.09
6243	7	Sololá	701	Sololá	2	El tablón	12	Diciembre	2023-06-12T00:00:00	2024-11-08T05:00:00	1	Precipitación	0
6244	7	Sololá	701	Sololá	2	El tablón	12	Diciembre	2023-06-12T00:00:00	2024-11-08T05:00:00	8	Radiación solar	0
6245	7	Sololá	701	Sololá	2	El tablón	12	Diciembre	2023-06-12T00:00:00	2024-11-08T06:00:00	2	Temperatura media	11.9
6246	7	Sololá	701	Sololá	2	El tablón	12	Diciembre	2023-06-12T00:00:00	2024-11-08T06:00:00	4	Temperatura máxima	12.1
6247	7	Sololá	701	Sololá	2	El tablón	12	Diciembre	2023-06-12T00:00:00	2024-11-08T06:00:00	3	Temperatura mínima	11.7
6248	7	Sololá	701	Sololá	2	El tablón	12	Diciembre	2023-06-12T00:00:00	2024-11-08T06:00:00	5	Humedad	89
6249	7	Sololá	701	Sololá	2	El tablón	12	Diciembre	2023-06-12T00:00:00	2024-11-08T06:00:00	6	Velocidad del viento	9.7
6250	7	Sololá	701	Sololá	2	El tablón	12	Diciembre	2023-06-12T00:00:00	2024-11-08T06:00:00	7	Dirección del viento	9.66
6251	7	Sololá	701	Sololá	2	El tablón	12	Diciembre	2023-06-12T00:00:00	2024-11-08T06:00:00	1	Precipitación	0
6252	7	Sololá	701	Sololá	2	El tablón	12	Diciembre	2023-06-12T00:00:00	2024-11-08T06:00:00	8	Radiación solar	0
6253	7	Sololá	701	Sololá	2	El tablón	12	Diciembre	2023-06-12T00:00:00	2024-11-08T07:00:00	2	Temperatura media	11.8
6254	7	Sololá	701	Sololá	2	El tablón	12	Diciembre	2023-06-12T00:00:00	2024-11-08T07:00:00	4	Temperatura máxima	12.1
6255	7	Sololá	701	Sololá	2	El tablón	12	Diciembre	2023-06-12T00:00:00	2024-11-08T07:00:00	3	Temperatura mínima	11.8
6256	7	Sololá	701	Sololá	2	El tablón	12	Diciembre	2023-06-12T00:00:00	2024-11-08T07:00:00	5	Humedad	89
6257	7	Sololá	701	Sololá	2	El tablón	12	Diciembre	2023-06-12T00:00:00	2024-11-08T07:00:00	6	Velocidad del viento	17.7
6258	7	Sololá	701	Sololá	2	El tablón	12	Diciembre	2023-06-12T00:00:00	2024-11-08T07:00:00	7	Dirección del viento	17.7
6259	7	Sololá	701	Sololá	2	El tablón	12	Diciembre	2023-06-12T00:00:00	2024-11-08T07:00:00	1	Precipitación	0
6260	7	Sololá	701	Sololá	2	El tablón	12	Diciembre	2023-06-12T00:00:00	2024-11-08T07:00:00	8	Radiación solar	7
6261	7	Sololá	701	Sololá	2	El tablón	12	Diciembre	2023-06-12T00:00:00	2024-11-08T08:00:00	2	Temperatura media	12.1
6262	7	Sololá	701	Sololá	2	El tablón	12	Diciembre	2023-06-12T00:00:00	2024-11-08T08:00:00	4	Temperatura máxima	12.3
6263	7	Sololá	701	Sololá	2	El tablón	12	Diciembre	2023-06-12T00:00:00	2024-11-08T08:00:00	3	Temperatura mínima	11.8
6264	7	Sololá	701	Sololá	2	El tablón	12	Diciembre	2023-06-12T00:00:00	2024-11-08T08:00:00	5	Humedad	89
6265	7	Sololá	701	Sololá	2	El tablón	12	Diciembre	2023-06-12T00:00:00	2024-11-08T08:00:00	6	Velocidad del viento	17.7
6266	7	Sololá	701	Sololá	2	El tablón	12	Diciembre	2023-06-12T00:00:00	2024-11-08T08:00:00	7	Dirección del viento	17.7
6267	7	Sololá	701	Sololá	2	El tablón	12	Diciembre	2023-06-12T00:00:00	2024-11-08T08:00:00	1	Precipitación	0
6268	7	Sololá	701	Sololá	2	El tablón	12	Diciembre	2023-06-12T00:00:00	2024-11-08T08:00:00	8	Radiación solar	89
6269	7	Sololá	701	Sololá	2	El tablón	12	Diciembre	2023-06-12T00:00:00	2024-11-08T09:00:00	2	Temperatura media	13.1
6270	7	Sololá	701	Sololá	2	El tablón	12	Diciembre	2023-06-12T00:00:00	2024-11-08T09:00:00	4	Temperatura máxima	13.1
6271	7	Sololá	701	Sololá	2	El tablón	12	Diciembre	2023-06-12T00:00:00	2024-11-08T09:00:00	3	Temperatura mínima	11.8
6272	7	Sololá	701	Sololá	2	El tablón	12	Diciembre	2023-06-12T00:00:00	2024-11-08T09:00:00	5	Humedad	88
6273	7	Sololá	701	Sololá	2	El tablón	12	Diciembre	2023-06-12T00:00:00	2024-11-08T09:00:00	6	Velocidad del viento	20.9
6274	7	Sololá	701	Sololá	2	El tablón	12	Diciembre	2023-06-12T00:00:00	2024-11-08T09:00:00	7	Dirección del viento	20.92
6275	7	Sololá	701	Sololá	2	El tablón	12	Diciembre	2023-06-12T00:00:00	2024-11-08T09:00:00	1	Precipitación	0
6276	7	Sololá	701	Sololá	2	El tablón	12	Diciembre	2023-06-12T00:00:00	2024-11-08T09:00:00	8	Radiación solar	210
6277	7	Sololá	701	Sololá	2	El tablón	12	Diciembre	2023-06-12T00:00:00	2024-11-08T10:00:00	2	Temperatura media	12.7
6278	7	Sololá	701	Sololá	2	El tablón	12	Diciembre	2023-06-12T00:00:00	2024-11-08T10:00:00	4	Temperatura máxima	13.2
6279	7	Sololá	701	Sololá	2	El tablón	12	Diciembre	2023-06-12T00:00:00	2024-11-08T10:00:00	3	Temperatura mínima	12.6
6280	7	Sololá	701	Sololá	2	El tablón	12	Diciembre	2023-06-12T00:00:00	2024-11-08T10:00:00	5	Humedad	88
6281	7	Sololá	701	Sololá	2	El tablón	12	Diciembre	2023-06-12T00:00:00	2024-11-08T10:00:00	6	Velocidad del viento	19.3
6282	7	Sololá	701	Sololá	2	El tablón	12	Diciembre	2023-06-12T00:00:00	2024-11-08T10:00:00	7	Dirección del viento	19.31
6283	7	Sololá	701	Sololá	2	El tablón	12	Diciembre	2023-06-12T00:00:00	2024-11-08T10:00:00	1	Precipitación	0
6284	7	Sololá	701	Sololá	2	El tablón	12	Diciembre	2023-06-12T00:00:00	2024-11-08T10:00:00	8	Radiación solar	289
6285	7	Sololá	701	Sololá	2	El tablón	12	Diciembre	2023-06-12T00:00:00	2024-11-08T11:00:00	2	Temperatura media	12.6
6286	7	Sololá	701	Sololá	2	El tablón	12	Diciembre	2023-06-12T00:00:00	2024-11-08T11:00:00	4	Temperatura máxima	13.3
6287	7	Sololá	701	Sololá	2	El tablón	12	Diciembre	2023-06-12T00:00:00	2024-11-08T11:00:00	3	Temperatura mínima	12.4
6288	7	Sololá	701	Sololá	2	El tablón	12	Diciembre	2023-06-12T00:00:00	2024-11-08T11:00:00	5	Humedad	88
6289	7	Sololá	701	Sololá	2	El tablón	12	Diciembre	2023-06-12T00:00:00	2024-11-08T11:00:00	6	Velocidad del viento	19.3
6290	7	Sololá	701	Sololá	2	El tablón	12	Diciembre	2023-06-12T00:00:00	2024-11-08T11:00:00	7	Dirección del viento	19.31
6291	7	Sololá	701	Sololá	2	El tablón	12	Diciembre	2023-06-12T00:00:00	2024-11-08T11:00:00	1	Precipitación	0
6292	7	Sololá	701	Sololá	2	El tablón	12	Diciembre	2023-06-12T00:00:00	2024-11-08T11:00:00	8	Radiación solar	301
6293	7	Sololá	701	Sololá	2	El tablón	12	Diciembre	2023-06-12T00:00:00	2024-11-08T12:00:00	2	Temperatura media	14.4
6294	7	Sololá	701	Sololá	2	El tablón	12	Diciembre	2023-06-12T00:00:00	2024-11-08T12:00:00	4	Temperatura máxima	14.6
6295	7	Sololá	701	Sololá	2	El tablón	12	Diciembre	2023-06-12T00:00:00	2024-11-08T12:00:00	3	Temperatura mínima	12.6
6296	7	Sololá	701	Sololá	2	El tablón	12	Diciembre	2023-06-12T00:00:00	2024-11-08T12:00:00	5	Humedad	80
6297	7	Sololá	701	Sololá	2	El tablón	12	Diciembre	2023-06-12T00:00:00	2024-11-08T12:00:00	6	Velocidad del viento	17.7
6298	7	Sololá	701	Sololá	2	El tablón	12	Diciembre	2023-06-12T00:00:00	2024-11-08T12:00:00	7	Dirección del viento	17.7
6299	7	Sololá	701	Sololá	2	El tablón	12	Diciembre	2023-06-12T00:00:00	2024-11-08T12:00:00	1	Precipitación	0
6300	7	Sololá	701	Sololá	2	El tablón	12	Diciembre	2023-06-12T00:00:00	2024-11-08T12:00:00	8	Radiación solar	529
6301	7	Sololá	701	Sololá	2	El tablón	12	Diciembre	2023-06-12T00:00:00	2024-11-08T13:00:00	2	Temperatura media	15.3
6302	7	Sololá	701	Sololá	2	El tablón	12	Diciembre	2023-06-12T00:00:00	2024-11-08T13:00:00	4	Temperatura máxima	15.3
6303	7	Sololá	701	Sololá	2	El tablón	12	Diciembre	2023-06-12T00:00:00	2024-11-08T13:00:00	3	Temperatura mínima	13.9
6304	7	Sololá	701	Sololá	2	El tablón	12	Diciembre	2023-06-12T00:00:00	2024-11-08T13:00:00	5	Humedad	73
6305	7	Sololá	701	Sololá	2	El tablón	12	Diciembre	2023-06-12T00:00:00	2024-11-08T13:00:00	6	Velocidad del viento	19.3
6306	7	Sololá	701	Sololá	2	El tablón	12	Diciembre	2023-06-12T00:00:00	2024-11-08T13:00:00	7	Dirección del viento	19.31
6307	7	Sololá	701	Sololá	2	El tablón	12	Diciembre	2023-06-12T00:00:00	2024-11-08T13:00:00	1	Precipitación	0
6308	7	Sololá	701	Sololá	2	El tablón	12	Diciembre	2023-06-12T00:00:00	2024-11-08T13:00:00	8	Radiación solar	721
6309	7	Sololá	701	Sololá	2	El tablón	12	Diciembre	2023-06-12T00:00:00	2024-11-08T14:00:00	2	Temperatura media	15.1
6310	7	Sololá	701	Sololá	2	El tablón	12	Diciembre	2023-06-12T00:00:00	2024-11-08T14:00:00	4	Temperatura máxima	15.8
6311	7	Sololá	701	Sololá	2	El tablón	12	Diciembre	2023-06-12T00:00:00	2024-11-08T14:00:00	3	Temperatura mínima	15.1
6312	7	Sololá	701	Sololá	2	El tablón	12	Diciembre	2023-06-12T00:00:00	2024-11-08T14:00:00	5	Humedad	71
6313	7	Sololá	701	Sololá	2	El tablón	12	Diciembre	2023-06-12T00:00:00	2024-11-08T14:00:00	6	Velocidad del viento	17.7
6314	7	Sololá	701	Sololá	2	El tablón	12	Diciembre	2023-06-12T00:00:00	2024-11-08T14:00:00	7	Dirección del viento	17.7
6315	7	Sololá	701	Sololá	2	El tablón	12	Diciembre	2023-06-12T00:00:00	2024-11-08T14:00:00	1	Precipitación	0
6316	7	Sololá	701	Sololá	2	El tablón	12	Diciembre	2023-06-12T00:00:00	2024-11-08T14:00:00	8	Radiación solar	761
6317	7	Sololá	701	Sololá	2	El tablón	12	Diciembre	2023-06-12T00:00:00	2024-11-08T15:00:00	2	Temperatura media	14.6
6318	7	Sololá	701	Sololá	2	El tablón	12	Diciembre	2023-06-12T00:00:00	2024-11-08T15:00:00	4	Temperatura máxima	15.1
6319	7	Sololá	701	Sololá	2	El tablón	12	Diciembre	2023-06-12T00:00:00	2024-11-08T15:00:00	3	Temperatura mínima	13.8
6320	7	Sololá	701	Sololá	2	El tablón	12	Diciembre	2023-06-12T00:00:00	2024-11-08T15:00:00	5	Humedad	73
6321	7	Sololá	701	Sololá	2	El tablón	12	Diciembre	2023-06-12T00:00:00	2024-11-08T15:00:00	6	Velocidad del viento	19.3
6322	7	Sololá	701	Sololá	2	El tablón	12	Diciembre	2023-06-12T00:00:00	2024-11-08T15:00:00	7	Dirección del viento	19.31
6323	7	Sololá	701	Sololá	2	El tablón	12	Diciembre	2023-06-12T00:00:00	2024-11-08T15:00:00	1	Precipitación	0
6324	7	Sololá	701	Sololá	2	El tablón	12	Diciembre	2023-06-12T00:00:00	2024-11-08T15:00:00	8	Radiación solar	262
6325	7	Sololá	701	Sololá	2	El tablón	12	Diciembre	2023-06-12T00:00:00	2024-11-08T16:00:00	2	Temperatura media	13.6
6326	7	Sololá	701	Sololá	2	El tablón	12	Diciembre	2023-06-12T00:00:00	2024-11-08T16:00:00	4	Temperatura máxima	14.9
6327	7	Sololá	701	Sololá	2	El tablón	12	Diciembre	2023-06-12T00:00:00	2024-11-08T16:00:00	3	Temperatura mínima	13.6
6328	7	Sololá	701	Sololá	2	El tablón	12	Diciembre	2023-06-12T00:00:00	2024-11-08T16:00:00	5	Humedad	77
6329	7	Sololá	701	Sololá	2	El tablón	12	Diciembre	2023-06-12T00:00:00	2024-11-08T16:00:00	6	Velocidad del viento	19.3
6330	7	Sololá	701	Sololá	2	El tablón	12	Diciembre	2023-06-12T00:00:00	2024-11-08T16:00:00	7	Dirección del viento	19.31
6331	7	Sololá	701	Sololá	2	El tablón	12	Diciembre	2023-06-12T00:00:00	2024-11-08T16:00:00	1	Precipitación	0
6332	7	Sololá	701	Sololá	2	El tablón	12	Diciembre	2023-06-12T00:00:00	2024-11-08T16:00:00	8	Radiación solar	361
6333	7	Sololá	701	Sololá	2	El tablón	12	Diciembre	2023-06-12T00:00:00	2024-11-08T17:00:00	2	Temperatura media	12.7
6334	7	Sololá	701	Sololá	2	El tablón	12	Diciembre	2023-06-12T00:00:00	2024-11-08T17:00:00	4	Temperatura máxima	13.6
6335	7	Sololá	701	Sololá	2	El tablón	12	Diciembre	2023-06-12T00:00:00	2024-11-08T17:00:00	3	Temperatura mínima	12.7
6336	7	Sololá	701	Sololá	2	El tablón	12	Diciembre	2023-06-12T00:00:00	2024-11-08T17:00:00	5	Humedad	81
6337	7	Sololá	701	Sololá	2	El tablón	12	Diciembre	2023-06-12T00:00:00	2024-11-08T17:00:00	6	Velocidad del viento	14.5
6338	7	Sololá	701	Sololá	2	El tablón	12	Diciembre	2023-06-12T00:00:00	2024-11-08T17:00:00	7	Dirección del viento	14.48
6339	7	Sololá	701	Sololá	2	El tablón	12	Diciembre	2023-06-12T00:00:00	2024-11-08T17:00:00	1	Precipitación	0
6340	7	Sololá	701	Sololá	2	El tablón	12	Diciembre	2023-06-12T00:00:00	2024-11-08T17:00:00	8	Radiación solar	68
6341	7	Sololá	701	Sololá	2	El tablón	12	Diciembre	2023-06-12T00:00:00	2024-11-08T18:00:00	2	Temperatura media	11.8
6342	7	Sololá	701	Sololá	2	El tablón	12	Diciembre	2023-06-12T00:00:00	2024-11-08T18:00:00	4	Temperatura máxima	12.7
6343	7	Sololá	701	Sololá	2	El tablón	12	Diciembre	2023-06-12T00:00:00	2024-11-08T18:00:00	3	Temperatura mínima	11.8
6344	7	Sololá	701	Sololá	2	El tablón	12	Diciembre	2023-06-12T00:00:00	2024-11-08T18:00:00	5	Humedad	84
6345	7	Sololá	701	Sololá	2	El tablón	12	Diciembre	2023-06-12T00:00:00	2024-11-08T18:00:00	6	Velocidad del viento	17.7
6346	7	Sololá	701	Sololá	2	El tablón	12	Diciembre	2023-06-12T00:00:00	2024-11-08T18:00:00	7	Dirección del viento	17.7
6347	7	Sololá	701	Sololá	2	El tablón	12	Diciembre	2023-06-12T00:00:00	2024-11-08T18:00:00	1	Precipitación	0
6348	7	Sololá	701	Sololá	2	El tablón	12	Diciembre	2023-06-12T00:00:00	2024-11-08T18:00:00	8	Radiación solar	18
6349	7	Sololá	701	Sololá	2	El tablón	12	Diciembre	2023-06-12T00:00:00	2024-11-08T19:00:00	2	Temperatura media	11.6
6350	7	Sololá	701	Sololá	2	El tablón	12	Diciembre	2023-06-12T00:00:00	2024-11-08T19:00:00	4	Temperatura máxima	11.8
6351	7	Sololá	701	Sololá	2	El tablón	12	Diciembre	2023-06-12T00:00:00	2024-11-08T19:00:00	3	Temperatura mínima	11.5
6352	7	Sololá	701	Sololá	2	El tablón	12	Diciembre	2023-06-12T00:00:00	2024-11-08T19:00:00	5	Humedad	83
6353	7	Sololá	701	Sololá	2	El tablón	12	Diciembre	2023-06-12T00:00:00	2024-11-08T19:00:00	6	Velocidad del viento	22.5
6354	7	Sololá	701	Sololá	2	El tablón	12	Diciembre	2023-06-12T00:00:00	2024-11-08T19:00:00	7	Dirección del viento	22.53
6355	7	Sololá	701	Sololá	2	El tablón	12	Diciembre	2023-06-12T00:00:00	2024-11-08T19:00:00	1	Precipitación	0
6356	7	Sololá	701	Sololá	2	El tablón	12	Diciembre	2023-06-12T00:00:00	2024-11-08T19:00:00	8	Radiación solar	0
6357	7	Sololá	701	Sololá	2	El tablón	12	Diciembre	2023-06-12T00:00:00	2024-11-08T20:00:00	2	Temperatura media	11.6
6358	7	Sololá	701	Sololá	2	El tablón	12	Diciembre	2023-06-12T00:00:00	2024-11-08T20:00:00	4	Temperatura máxima	11.6
6359	7	Sololá	701	Sololá	2	El tablón	12	Diciembre	2023-06-12T00:00:00	2024-11-08T20:00:00	3	Temperatura mínima	11.4
6360	7	Sololá	701	Sololá	2	El tablón	12	Diciembre	2023-06-12T00:00:00	2024-11-08T20:00:00	5	Humedad	85
6361	7	Sololá	701	Sololá	2	El tablón	12	Diciembre	2023-06-12T00:00:00	2024-11-08T20:00:00	6	Velocidad del viento	20.9
6362	7	Sololá	701	Sololá	2	El tablón	12	Diciembre	2023-06-12T00:00:00	2024-11-08T20:00:00	7	Dirección del viento	20.92
6363	7	Sololá	701	Sololá	2	El tablón	12	Diciembre	2023-06-12T00:00:00	2024-11-08T20:00:00	1	Precipitación	0
6364	7	Sololá	701	Sololá	2	El tablón	12	Diciembre	2023-06-12T00:00:00	2024-11-08T20:00:00	8	Radiación solar	0
6365	7	Sololá	701	Sololá	2	El tablón	12	Diciembre	2023-06-12T00:00:00	2024-11-08T21:00:00	2	Temperatura media	11.6
6366	7	Sololá	701	Sololá	2	El tablón	12	Diciembre	2023-06-12T00:00:00	2024-11-08T21:00:00	4	Temperatura máxima	11.8
6367	7	Sololá	701	Sololá	2	El tablón	12	Diciembre	2023-06-12T00:00:00	2024-11-08T21:00:00	3	Temperatura mínima	11.6
6368	7	Sololá	701	Sololá	2	El tablón	12	Diciembre	2023-06-12T00:00:00	2024-11-08T21:00:00	5	Humedad	85
6369	7	Sololá	701	Sololá	2	El tablón	12	Diciembre	2023-06-12T00:00:00	2024-11-08T21:00:00	6	Velocidad del viento	22.5
6370	7	Sololá	701	Sololá	2	El tablón	12	Diciembre	2023-06-12T00:00:00	2024-11-08T21:00:00	7	Dirección del viento	22.53
6371	7	Sololá	701	Sololá	2	El tablón	12	Diciembre	2023-06-12T00:00:00	2024-11-08T21:00:00	1	Precipitación	0
6372	7	Sololá	701	Sololá	2	El tablón	12	Diciembre	2023-06-12T00:00:00	2024-11-08T21:00:00	8	Radiación solar	0
6373	7	Sololá	701	Sololá	2	El tablón	12	Diciembre	2023-06-12T00:00:00	2024-11-08T22:00:00	2	Temperatura media	11.9
6374	7	Sololá	701	Sololá	2	El tablón	12	Diciembre	2023-06-12T00:00:00	2024-11-08T22:00:00	4	Temperatura máxima	12
6375	7	Sololá	701	Sololá	2	El tablón	12	Diciembre	2023-06-12T00:00:00	2024-11-08T22:00:00	3	Temperatura mínima	11.6
6376	7	Sololá	701	Sololá	2	El tablón	12	Diciembre	2023-06-12T00:00:00	2024-11-08T22:00:00	5	Humedad	83
6377	7	Sololá	701	Sololá	2	El tablón	12	Diciembre	2023-06-12T00:00:00	2024-11-08T22:00:00	6	Velocidad del viento	24.1
6378	7	Sololá	701	Sololá	2	El tablón	12	Diciembre	2023-06-12T00:00:00	2024-11-08T22:00:00	7	Dirección del viento	24.14
6379	7	Sololá	701	Sololá	2	El tablón	12	Diciembre	2023-06-12T00:00:00	2024-11-08T22:00:00	1	Precipitación	0
6380	7	Sololá	701	Sololá	2	El tablón	12	Diciembre	2023-06-12T00:00:00	2024-11-08T22:00:00	8	Radiación solar	0
6381	7	Sololá	701	Sololá	2	El tablón	12	Diciembre	2023-06-12T00:00:00	2024-11-08T23:00:00	2	Temperatura media	11.6
6382	7	Sololá	701	Sololá	2	El tablón	12	Diciembre	2023-06-12T00:00:00	2024-11-08T23:00:00	4	Temperatura máxima	11.9
6383	7	Sololá	701	Sololá	2	El tablón	12	Diciembre	2023-06-12T00:00:00	2024-11-08T23:00:00	3	Temperatura mínima	11.6
6384	7	Sololá	701	Sololá	2	El tablón	12	Diciembre	2023-06-12T00:00:00	2024-11-08T23:00:00	5	Humedad	83
6385	7	Sololá	701	Sololá	2	El tablón	12	Diciembre	2023-06-12T00:00:00	2024-11-08T23:00:00	6	Velocidad del viento	19.3
6386	7	Sololá	701	Sololá	2	El tablón	12	Diciembre	2023-06-12T00:00:00	2024-11-08T23:00:00	7	Dirección del viento	19.31
6387	7	Sololá	701	Sololá	2	El tablón	12	Diciembre	2023-06-12T00:00:00	2024-11-08T23:00:00	1	Precipitación	0
6388	7	Sololá	701	Sololá	2	El tablón	12	Diciembre	2023-06-12T00:00:00	2024-11-08T23:00:00	8	Radiación solar	0
6389	7	Sololá	701	Sololá	2	El tablón	12	Diciembre	2023-07-12T00:00:00	2024-11-08T00:00:00	2	Temperatura media	11.4
6390	7	Sololá	701	Sololá	2	El tablón	12	Diciembre	2023-07-12T00:00:00	2024-11-08T00:00:00	4	Temperatura máxima	11.6
6391	7	Sololá	701	Sololá	2	El tablón	12	Diciembre	2023-07-12T00:00:00	2024-11-08T00:00:00	3	Temperatura mínima	11.4
6392	7	Sololá	701	Sololá	2	El tablón	12	Diciembre	2023-07-12T00:00:00	2024-11-08T00:00:00	5	Humedad	86
6393	7	Sololá	701	Sololá	2	El tablón	12	Diciembre	2023-07-12T00:00:00	2024-11-08T00:00:00	6	Velocidad del viento	22.5
6394	7	Sololá	701	Sololá	2	El tablón	12	Diciembre	2023-07-12T00:00:00	2024-11-08T00:00:00	7	Dirección del viento	22.53
6395	7	Sololá	701	Sololá	2	El tablón	12	Diciembre	2023-07-12T00:00:00	2024-11-08T00:00:00	1	Precipitación	0
6396	7	Sololá	701	Sololá	2	El tablón	12	Diciembre	2023-07-12T00:00:00	2024-11-08T00:00:00	8	Radiación solar	0
6397	7	Sololá	701	Sololá	2	El tablón	12	Diciembre	2023-07-12T00:00:00	2024-11-08T01:00:00	2	Temperatura media	11.9
6398	7	Sololá	701	Sololá	2	El tablón	12	Diciembre	2023-07-12T00:00:00	2024-11-08T01:00:00	4	Temperatura máxima	11.9
6399	7	Sololá	701	Sololá	2	El tablón	12	Diciembre	2023-07-12T00:00:00	2024-11-08T01:00:00	3	Temperatura mínima	11.4
6400	7	Sololá	701	Sololá	2	El tablón	12	Diciembre	2023-07-12T00:00:00	2024-11-08T01:00:00	5	Humedad	86
6401	7	Sololá	701	Sololá	2	El tablón	12	Diciembre	2023-07-12T00:00:00	2024-11-08T01:00:00	6	Velocidad del viento	22.5
6402	7	Sololá	701	Sololá	2	El tablón	12	Diciembre	2023-07-12T00:00:00	2024-11-08T01:00:00	7	Dirección del viento	22.53
6403	7	Sololá	701	Sololá	2	El tablón	12	Diciembre	2023-07-12T00:00:00	2024-11-08T01:00:00	1	Precipitación	0
6404	7	Sololá	701	Sololá	2	El tablón	12	Diciembre	2023-07-12T00:00:00	2024-11-08T01:00:00	8	Radiación solar	0
6405	7	Sololá	701	Sololá	2	El tablón	12	Diciembre	2023-07-12T00:00:00	2024-11-08T02:00:00	2	Temperatura media	11.8
6406	7	Sololá	701	Sololá	2	El tablón	12	Diciembre	2023-07-12T00:00:00	2024-11-08T02:00:00	4	Temperatura máxima	11.9
6407	7	Sololá	701	Sololá	2	El tablón	12	Diciembre	2023-07-12T00:00:00	2024-11-08T02:00:00	3	Temperatura mínima	11.7
6408	7	Sololá	701	Sololá	2	El tablón	12	Diciembre	2023-07-12T00:00:00	2024-11-08T02:00:00	5	Humedad	87
6409	7	Sololá	701	Sololá	2	El tablón	12	Diciembre	2023-07-12T00:00:00	2024-11-08T02:00:00	6	Velocidad del viento	20.9
6410	7	Sololá	701	Sololá	2	El tablón	12	Diciembre	2023-07-12T00:00:00	2024-11-08T02:00:00	7	Dirección del viento	20.92
6411	7	Sololá	701	Sololá	2	El tablón	12	Diciembre	2023-07-12T00:00:00	2024-11-08T02:00:00	1	Precipitación	0
6412	7	Sololá	701	Sololá	2	El tablón	12	Diciembre	2023-07-12T00:00:00	2024-11-08T02:00:00	8	Radiación solar	0
6413	7	Sololá	701	Sololá	2	El tablón	12	Diciembre	2023-07-12T00:00:00	2024-11-08T03:00:00	2	Temperatura media	11.5
6414	7	Sololá	701	Sololá	2	El tablón	12	Diciembre	2023-07-12T00:00:00	2024-11-08T03:00:00	4	Temperatura máxima	11.8
6415	7	Sololá	701	Sololá	2	El tablón	12	Diciembre	2023-07-12T00:00:00	2024-11-08T03:00:00	3	Temperatura mínima	11.4
6416	7	Sololá	701	Sololá	2	El tablón	12	Diciembre	2023-07-12T00:00:00	2024-11-08T03:00:00	5	Humedad	89
6417	7	Sololá	701	Sololá	2	El tablón	12	Diciembre	2023-07-12T00:00:00	2024-11-08T03:00:00	6	Velocidad del viento	19.3
6418	7	Sololá	701	Sololá	2	El tablón	12	Diciembre	2023-07-12T00:00:00	2024-11-08T03:00:00	7	Dirección del viento	19.31
6419	7	Sololá	701	Sololá	2	El tablón	12	Diciembre	2023-07-12T00:00:00	2024-11-08T03:00:00	1	Precipitación	0
6420	7	Sololá	701	Sololá	2	El tablón	12	Diciembre	2023-07-12T00:00:00	2024-11-08T03:00:00	8	Radiación solar	0
6421	7	Sololá	701	Sololá	2	El tablón	12	Diciembre	2023-07-12T00:00:00	2024-11-08T04:00:00	2	Temperatura media	11
6422	7	Sololá	701	Sololá	2	El tablón	12	Diciembre	2023-07-12T00:00:00	2024-11-08T04:00:00	4	Temperatura máxima	11.5
6423	7	Sololá	701	Sololá	2	El tablón	12	Diciembre	2023-07-12T00:00:00	2024-11-08T04:00:00	3	Temperatura mínima	11
6424	7	Sololá	701	Sololá	2	El tablón	12	Diciembre	2023-07-12T00:00:00	2024-11-08T04:00:00	5	Humedad	89
6425	7	Sololá	701	Sololá	2	El tablón	12	Diciembre	2023-07-12T00:00:00	2024-11-08T04:00:00	6	Velocidad del viento	24.1
6426	7	Sololá	701	Sololá	2	El tablón	12	Diciembre	2023-07-12T00:00:00	2024-11-08T04:00:00	7	Dirección del viento	24.14
6427	7	Sololá	701	Sololá	2	El tablón	12	Diciembre	2023-07-12T00:00:00	2024-11-08T04:00:00	1	Precipitación	0
6428	7	Sololá	701	Sololá	2	El tablón	12	Diciembre	2023-07-12T00:00:00	2024-11-08T04:00:00	8	Radiación solar	0
6429	7	Sololá	701	Sololá	2	El tablón	12	Diciembre	2023-07-12T00:00:00	2024-11-08T05:00:00	2	Temperatura media	11.1
6430	7	Sololá	701	Sololá	2	El tablón	12	Diciembre	2023-07-12T00:00:00	2024-11-08T05:00:00	4	Temperatura máxima	11.2
6431	7	Sololá	701	Sololá	2	El tablón	12	Diciembre	2023-07-12T00:00:00	2024-11-08T05:00:00	3	Temperatura mínima	10.9
6432	7	Sololá	701	Sololá	2	El tablón	12	Diciembre	2023-07-12T00:00:00	2024-11-08T05:00:00	5	Humedad	88
6433	7	Sololá	701	Sololá	2	El tablón	12	Diciembre	2023-07-12T00:00:00	2024-11-08T05:00:00	6	Velocidad del viento	22.5
6434	7	Sololá	701	Sololá	2	El tablón	12	Diciembre	2023-07-12T00:00:00	2024-11-08T05:00:00	7	Dirección del viento	22.53
6435	7	Sololá	701	Sololá	2	El tablón	12	Diciembre	2023-07-12T00:00:00	2024-11-08T05:00:00	1	Precipitación	0
6436	7	Sololá	701	Sololá	2	El tablón	12	Diciembre	2023-07-12T00:00:00	2024-11-08T05:00:00	8	Radiación solar	0
6437	7	Sololá	701	Sololá	2	El tablón	12	Diciembre	2023-07-12T00:00:00	2024-11-08T06:00:00	2	Temperatura media	10.7
6438	7	Sololá	701	Sololá	2	El tablón	12	Diciembre	2023-07-12T00:00:00	2024-11-08T06:00:00	4	Temperatura máxima	11.2
6439	7	Sololá	701	Sololá	2	El tablón	12	Diciembre	2023-07-12T00:00:00	2024-11-08T06:00:00	3	Temperatura mínima	10.6
6440	7	Sololá	701	Sololá	2	El tablón	12	Diciembre	2023-07-12T00:00:00	2024-11-08T06:00:00	5	Humedad	89
6441	7	Sololá	701	Sololá	2	El tablón	12	Diciembre	2023-07-12T00:00:00	2024-11-08T06:00:00	6	Velocidad del viento	16.1
6442	7	Sololá	701	Sololá	2	El tablón	12	Diciembre	2023-07-12T00:00:00	2024-11-08T06:00:00	7	Dirección del viento	16.09
6443	7	Sololá	701	Sololá	2	El tablón	12	Diciembre	2023-07-12T00:00:00	2024-11-08T06:00:00	1	Precipitación	0
6444	7	Sololá	701	Sololá	2	El tablón	12	Diciembre	2023-07-12T00:00:00	2024-11-08T06:00:00	8	Radiación solar	0
6445	7	Sololá	701	Sololá	2	El tablón	12	Diciembre	2023-07-12T00:00:00	2024-11-08T07:00:00	2	Temperatura media	11.2
6446	7	Sololá	701	Sololá	2	El tablón	12	Diciembre	2023-07-12T00:00:00	2024-11-08T07:00:00	4	Temperatura máxima	11.2
6447	7	Sololá	701	Sololá	2	El tablón	12	Diciembre	2023-07-12T00:00:00	2024-11-08T07:00:00	3	Temperatura mínima	10.7
6448	7	Sololá	701	Sololá	2	El tablón	12	Diciembre	2023-07-12T00:00:00	2024-11-08T07:00:00	5	Humedad	88
6449	7	Sololá	701	Sololá	2	El tablón	12	Diciembre	2023-07-12T00:00:00	2024-11-08T07:00:00	6	Velocidad del viento	16.1
6450	7	Sololá	701	Sololá	2	El tablón	12	Diciembre	2023-07-12T00:00:00	2024-11-08T07:00:00	7	Dirección del viento	16.09
6451	7	Sololá	701	Sololá	2	El tablón	12	Diciembre	2023-07-12T00:00:00	2024-11-08T07:00:00	1	Precipitación	0
6452	7	Sololá	701	Sololá	2	El tablón	12	Diciembre	2023-07-12T00:00:00	2024-11-08T07:00:00	8	Radiación solar	10
6453	7	Sololá	701	Sololá	2	El tablón	12	Diciembre	2023-07-12T00:00:00	2024-11-08T08:00:00	2	Temperatura media	11.8
6454	7	Sololá	701	Sololá	2	El tablón	12	Diciembre	2023-07-12T00:00:00	2024-11-08T08:00:00	4	Temperatura máxima	11.8
6455	7	Sololá	701	Sololá	2	El tablón	12	Diciembre	2023-07-12T00:00:00	2024-11-08T08:00:00	3	Temperatura mínima	11.1
6456	7	Sololá	701	Sololá	2	El tablón	12	Diciembre	2023-07-12T00:00:00	2024-11-08T08:00:00	5	Humedad	87
6457	7	Sololá	701	Sololá	2	El tablón	12	Diciembre	2023-07-12T00:00:00	2024-11-08T08:00:00	6	Velocidad del viento	17.7
6458	7	Sololá	701	Sololá	2	El tablón	12	Diciembre	2023-07-12T00:00:00	2024-11-08T08:00:00	7	Dirección del viento	17.7
6459	7	Sololá	701	Sololá	2	El tablón	12	Diciembre	2023-07-12T00:00:00	2024-11-08T08:00:00	1	Precipitación	0
6460	7	Sololá	701	Sololá	2	El tablón	12	Diciembre	2023-07-12T00:00:00	2024-11-08T08:00:00	8	Radiación solar	62
6461	7	Sololá	701	Sololá	2	El tablón	12	Diciembre	2023-07-12T00:00:00	2024-11-08T09:00:00	2	Temperatura media	12.1
6462	7	Sololá	701	Sololá	2	El tablón	12	Diciembre	2023-07-12T00:00:00	2024-11-08T09:00:00	4	Temperatura máxima	12.3
6463	7	Sololá	701	Sololá	2	El tablón	12	Diciembre	2023-07-12T00:00:00	2024-11-08T09:00:00	3	Temperatura mínima	11.7
6464	7	Sololá	701	Sololá	2	El tablón	12	Diciembre	2023-07-12T00:00:00	2024-11-08T09:00:00	5	Humedad	87
6465	7	Sololá	701	Sololá	2	El tablón	12	Diciembre	2023-07-12T00:00:00	2024-11-08T09:00:00	6	Velocidad del viento	17.7
6466	7	Sololá	701	Sololá	2	El tablón	12	Diciembre	2023-07-12T00:00:00	2024-11-08T09:00:00	7	Dirección del viento	17.7
6467	7	Sololá	701	Sololá	2	El tablón	12	Diciembre	2023-07-12T00:00:00	2024-11-08T09:00:00	1	Precipitación	0
6468	7	Sololá	701	Sololá	2	El tablón	12	Diciembre	2023-07-12T00:00:00	2024-11-08T09:00:00	8	Radiación solar	157
6469	7	Sololá	701	Sololá	2	El tablón	12	Diciembre	2023-07-12T00:00:00	2024-11-08T10:00:00	2	Temperatura media	13.9
6470	7	Sololá	701	Sololá	2	El tablón	12	Diciembre	2023-07-12T00:00:00	2024-11-08T10:00:00	4	Temperatura máxima	13.9
6471	7	Sololá	701	Sololá	2	El tablón	12	Diciembre	2023-07-12T00:00:00	2024-11-08T10:00:00	3	Temperatura mínima	12.1
6472	7	Sololá	701	Sololá	2	El tablón	12	Diciembre	2023-07-12T00:00:00	2024-11-08T10:00:00	5	Humedad	83
6473	7	Sololá	701	Sololá	2	El tablón	12	Diciembre	2023-07-12T00:00:00	2024-11-08T10:00:00	6	Velocidad del viento	17.7
6474	7	Sololá	701	Sololá	2	El tablón	12	Diciembre	2023-07-12T00:00:00	2024-11-08T10:00:00	7	Dirección del viento	17.7
6475	7	Sololá	701	Sololá	2	El tablón	12	Diciembre	2023-07-12T00:00:00	2024-11-08T10:00:00	1	Precipitación	0
6476	7	Sololá	701	Sololá	2	El tablón	12	Diciembre	2023-07-12T00:00:00	2024-11-08T10:00:00	8	Radiación solar	276
6477	7	Sololá	701	Sololá	2	El tablón	12	Diciembre	2023-07-12T00:00:00	2024-11-08T11:00:00	2	Temperatura media	14.9
6478	7	Sololá	701	Sololá	2	El tablón	12	Diciembre	2023-07-12T00:00:00	2024-11-08T11:00:00	4	Temperatura máxima	15.1
6479	7	Sololá	701	Sololá	2	El tablón	12	Diciembre	2023-07-12T00:00:00	2024-11-08T11:00:00	3	Temperatura mínima	13.9
6480	7	Sololá	701	Sololá	2	El tablón	12	Diciembre	2023-07-12T00:00:00	2024-11-08T11:00:00	5	Humedad	80
6481	7	Sololá	701	Sololá	2	El tablón	12	Diciembre	2023-07-12T00:00:00	2024-11-08T11:00:00	6	Velocidad del viento	14.5
6482	7	Sololá	701	Sololá	2	El tablón	12	Diciembre	2023-07-12T00:00:00	2024-11-08T11:00:00	7	Dirección del viento	14.48
6483	7	Sololá	701	Sololá	2	El tablón	12	Diciembre	2023-07-12T00:00:00	2024-11-08T11:00:00	1	Precipitación	0
6484	7	Sololá	701	Sololá	2	El tablón	12	Diciembre	2023-07-12T00:00:00	2024-11-08T11:00:00	8	Radiación solar	518
6485	7	Sololá	701	Sololá	2	El tablón	12	Diciembre	2023-07-12T00:00:00	2024-11-08T12:00:00	2	Temperatura media	16.3
6486	7	Sololá	701	Sololá	2	El tablón	12	Diciembre	2023-07-12T00:00:00	2024-11-08T12:00:00	4	Temperatura máxima	16.5
6487	7	Sololá	701	Sololá	2	El tablón	12	Diciembre	2023-07-12T00:00:00	2024-11-08T12:00:00	3	Temperatura mínima	15
6488	7	Sololá	701	Sololá	2	El tablón	12	Diciembre	2023-07-12T00:00:00	2024-11-08T12:00:00	5	Humedad	77
6489	7	Sololá	701	Sololá	2	El tablón	12	Diciembre	2023-07-12T00:00:00	2024-11-08T12:00:00	6	Velocidad del viento	14.5
6490	7	Sololá	701	Sololá	2	El tablón	12	Diciembre	2023-07-12T00:00:00	2024-11-08T12:00:00	7	Dirección del viento	14.48
6491	7	Sololá	701	Sololá	2	El tablón	12	Diciembre	2023-07-12T00:00:00	2024-11-08T12:00:00	1	Precipitación	0
6492	7	Sololá	701	Sololá	2	El tablón	12	Diciembre	2023-07-12T00:00:00	2024-11-08T12:00:00	8	Radiación solar	763
6493	7	Sololá	701	Sololá	2	El tablón	12	Diciembre	2023-07-12T00:00:00	2024-11-08T13:00:00	2	Temperatura media	16.7
6494	7	Sololá	701	Sololá	2	El tablón	12	Diciembre	2023-07-12T00:00:00	2024-11-08T13:00:00	4	Temperatura máxima	17.1
6495	7	Sololá	701	Sololá	2	El tablón	12	Diciembre	2023-07-12T00:00:00	2024-11-08T13:00:00	3	Temperatura mínima	15.9
6496	7	Sololá	701	Sololá	2	El tablón	12	Diciembre	2023-07-12T00:00:00	2024-11-08T13:00:00	5	Humedad	73
6497	7	Sololá	701	Sololá	2	El tablón	12	Diciembre	2023-07-12T00:00:00	2024-11-08T13:00:00	6	Velocidad del viento	14.5
6498	7	Sololá	701	Sololá	2	El tablón	12	Diciembre	2023-07-12T00:00:00	2024-11-08T13:00:00	7	Dirección del viento	14.48
6499	7	Sololá	701	Sololá	2	El tablón	12	Diciembre	2023-07-12T00:00:00	2024-11-08T13:00:00	1	Precipitación	0
6500	7	Sololá	701	Sololá	2	El tablón	12	Diciembre	2023-07-12T00:00:00	2024-11-08T13:00:00	8	Radiación solar	782
6501	7	Sololá	701	Sololá	2	El tablón	12	Diciembre	2023-07-12T00:00:00	2024-11-08T14:00:00	2	Temperatura media	17.2
6502	7	Sololá	701	Sololá	2	El tablón	12	Diciembre	2023-07-12T00:00:00	2024-11-08T14:00:00	4	Temperatura máxima	17.3
6503	7	Sololá	701	Sololá	2	El tablón	12	Diciembre	2023-07-12T00:00:00	2024-11-08T14:00:00	3	Temperatura mínima	16.7
6504	7	Sololá	701	Sololá	2	El tablón	12	Diciembre	2023-07-12T00:00:00	2024-11-08T14:00:00	5	Humedad	71
6505	7	Sololá	701	Sololá	2	El tablón	12	Diciembre	2023-07-12T00:00:00	2024-11-08T14:00:00	6	Velocidad del viento	12.9
6506	7	Sololá	701	Sololá	2	El tablón	12	Diciembre	2023-07-12T00:00:00	2024-11-08T14:00:00	7	Dirección del viento	12.87
6507	7	Sololá	701	Sololá	2	El tablón	12	Diciembre	2023-07-12T00:00:00	2024-11-08T14:00:00	1	Precipitación	0
6508	7	Sololá	701	Sololá	2	El tablón	12	Diciembre	2023-07-12T00:00:00	2024-11-08T14:00:00	8	Radiación solar	708
6509	7	Sololá	701	Sololá	2	El tablón	12	Diciembre	2023-07-12T00:00:00	2024-11-08T15:00:00	2	Temperatura media	16.7
6510	7	Sololá	701	Sololá	2	El tablón	12	Diciembre	2023-07-12T00:00:00	2024-11-08T15:00:00	4	Temperatura máxima	17.2
6511	7	Sololá	701	Sololá	2	El tablón	12	Diciembre	2023-07-12T00:00:00	2024-11-08T15:00:00	3	Temperatura mínima	16.7
6512	7	Sololá	701	Sololá	2	El tablón	12	Diciembre	2023-07-12T00:00:00	2024-11-08T15:00:00	5	Humedad	73
6513	7	Sololá	701	Sololá	2	El tablón	12	Diciembre	2023-07-12T00:00:00	2024-11-08T15:00:00	6	Velocidad del viento	11.3
6514	7	Sololá	701	Sololá	2	El tablón	12	Diciembre	2023-07-12T00:00:00	2024-11-08T15:00:00	7	Dirección del viento	11.27
6515	7	Sololá	701	Sololá	2	El tablón	12	Diciembre	2023-07-12T00:00:00	2024-11-08T15:00:00	1	Precipitación	0
6516	7	Sololá	701	Sololá	2	El tablón	12	Diciembre	2023-07-12T00:00:00	2024-11-08T15:00:00	8	Radiación solar	602
6517	7	Sololá	701	Sololá	2	El tablón	12	Diciembre	2023-07-12T00:00:00	2024-11-08T16:00:00	2	Temperatura media	15.7
6518	7	Sololá	701	Sololá	2	El tablón	12	Diciembre	2023-07-12T00:00:00	2024-11-08T16:00:00	4	Temperatura máxima	17.2
6519	7	Sololá	701	Sololá	2	El tablón	12	Diciembre	2023-07-12T00:00:00	2024-11-08T16:00:00	3	Temperatura mínima	15.7
6520	7	Sololá	701	Sololá	2	El tablón	12	Diciembre	2023-07-12T00:00:00	2024-11-08T16:00:00	5	Humedad	77
6521	7	Sololá	701	Sololá	2	El tablón	12	Diciembre	2023-07-12T00:00:00	2024-11-08T16:00:00	6	Velocidad del viento	11.3
6522	7	Sololá	701	Sololá	2	El tablón	12	Diciembre	2023-07-12T00:00:00	2024-11-08T16:00:00	7	Dirección del viento	11.27
6523	7	Sololá	701	Sololá	2	El tablón	12	Diciembre	2023-07-12T00:00:00	2024-11-08T16:00:00	1	Precipitación	0
6524	7	Sololá	701	Sololá	2	El tablón	12	Diciembre	2023-07-12T00:00:00	2024-11-08T16:00:00	8	Radiación solar	311
6525	7	Sololá	701	Sololá	2	El tablón	12	Diciembre	2023-07-12T00:00:00	2024-11-08T17:00:00	2	Temperatura media	14.6
6526	7	Sololá	701	Sololá	2	El tablón	12	Diciembre	2023-07-12T00:00:00	2024-11-08T17:00:00	4	Temperatura máxima	15.7
6527	7	Sololá	701	Sololá	2	El tablón	12	Diciembre	2023-07-12T00:00:00	2024-11-08T17:00:00	3	Temperatura mínima	14.6
6528	7	Sololá	701	Sololá	2	El tablón	12	Diciembre	2023-07-12T00:00:00	2024-11-08T17:00:00	5	Humedad	81
6529	7	Sololá	701	Sololá	2	El tablón	12	Diciembre	2023-07-12T00:00:00	2024-11-08T17:00:00	6	Velocidad del viento	12.9
6530	7	Sololá	701	Sololá	2	El tablón	12	Diciembre	2023-07-12T00:00:00	2024-11-08T17:00:00	7	Dirección del viento	12.87
6531	7	Sololá	701	Sololá	2	El tablón	12	Diciembre	2023-07-12T00:00:00	2024-11-08T17:00:00	1	Precipitación	0
6532	7	Sololá	701	Sololá	2	El tablón	12	Diciembre	2023-07-12T00:00:00	2024-11-08T17:00:00	8	Radiación solar	195
6533	7	Sololá	701	Sololá	2	El tablón	12	Diciembre	2023-07-12T00:00:00	2024-11-08T18:00:00	2	Temperatura media	13.1
6534	7	Sololá	701	Sololá	2	El tablón	12	Diciembre	2023-07-12T00:00:00	2024-11-08T18:00:00	4	Temperatura máxima	14.6
6535	7	Sololá	701	Sololá	2	El tablón	12	Diciembre	2023-07-12T00:00:00	2024-11-08T18:00:00	3	Temperatura mínima	13.1
6536	7	Sololá	701	Sololá	2	El tablón	12	Diciembre	2023-07-12T00:00:00	2024-11-08T18:00:00	5	Humedad	86
6537	7	Sololá	701	Sololá	2	El tablón	12	Diciembre	2023-07-12T00:00:00	2024-11-08T18:00:00	6	Velocidad del viento	12.9
6538	7	Sololá	701	Sololá	2	El tablón	12	Diciembre	2023-07-12T00:00:00	2024-11-08T18:00:00	7	Dirección del viento	12.87
6539	7	Sololá	701	Sololá	2	El tablón	12	Diciembre	2023-07-12T00:00:00	2024-11-08T18:00:00	1	Precipitación	0
6540	7	Sololá	701	Sololá	2	El tablón	12	Diciembre	2023-07-12T00:00:00	2024-11-08T18:00:00	8	Radiación solar	16
6541	7	Sololá	701	Sololá	2	El tablón	12	Diciembre	2023-07-12T00:00:00	2024-11-08T19:00:00	2	Temperatura media	12.9
6542	7	Sololá	701	Sololá	2	El tablón	12	Diciembre	2023-07-12T00:00:00	2024-11-08T19:00:00	4	Temperatura máxima	13.1
6543	7	Sololá	701	Sololá	2	El tablón	12	Diciembre	2023-07-12T00:00:00	2024-11-08T19:00:00	3	Temperatura mínima	12.8
6544	7	Sololá	701	Sololá	2	El tablón	12	Diciembre	2023-07-12T00:00:00	2024-11-08T19:00:00	5	Humedad	86
6545	7	Sololá	701	Sololá	2	El tablón	12	Diciembre	2023-07-12T00:00:00	2024-11-08T19:00:00	6	Velocidad del viento	14.5
6546	7	Sololá	701	Sololá	2	El tablón	12	Diciembre	2023-07-12T00:00:00	2024-11-08T19:00:00	7	Dirección del viento	14.48
6547	7	Sololá	701	Sololá	2	El tablón	12	Diciembre	2023-07-12T00:00:00	2024-11-08T19:00:00	1	Precipitación	0
6548	7	Sololá	701	Sololá	2	El tablón	12	Diciembre	2023-07-12T00:00:00	2024-11-08T19:00:00	8	Radiación solar	0
6549	7	Sololá	701	Sololá	2	El tablón	12	Diciembre	2023-07-12T00:00:00	2024-11-08T20:00:00	2	Temperatura media	12.5
6550	7	Sololá	701	Sololá	2	El tablón	12	Diciembre	2023-07-12T00:00:00	2024-11-08T20:00:00	4	Temperatura máxima	12.9
6551	7	Sololá	701	Sololá	2	El tablón	12	Diciembre	2023-07-12T00:00:00	2024-11-08T20:00:00	3	Temperatura mínima	12.5
6552	7	Sololá	701	Sololá	2	El tablón	12	Diciembre	2023-07-12T00:00:00	2024-11-08T20:00:00	5	Humedad	87
6553	7	Sololá	701	Sololá	2	El tablón	12	Diciembre	2023-07-12T00:00:00	2024-11-08T20:00:00	6	Velocidad del viento	14.5
6554	7	Sololá	701	Sololá	2	El tablón	12	Diciembre	2023-07-12T00:00:00	2024-11-08T20:00:00	7	Dirección del viento	14.48
6555	7	Sololá	701	Sololá	2	El tablón	12	Diciembre	2023-07-12T00:00:00	2024-11-08T20:00:00	1	Precipitación	0
6556	7	Sololá	701	Sololá	2	El tablón	12	Diciembre	2023-07-12T00:00:00	2024-11-08T20:00:00	8	Radiación solar	0
6557	7	Sololá	701	Sololá	2	El tablón	12	Diciembre	2023-07-12T00:00:00	2024-11-08T21:00:00	2	Temperatura media	12.3
6558	7	Sololá	701	Sololá	2	El tablón	12	Diciembre	2023-07-12T00:00:00	2024-11-08T21:00:00	4	Temperatura máxima	12.5
6559	7	Sololá	701	Sololá	2	El tablón	12	Diciembre	2023-07-12T00:00:00	2024-11-08T21:00:00	3	Temperatura mínima	12.2
6560	7	Sololá	701	Sololá	2	El tablón	12	Diciembre	2023-07-12T00:00:00	2024-11-08T21:00:00	5	Humedad	88
6561	7	Sololá	701	Sololá	2	El tablón	12	Diciembre	2023-07-12T00:00:00	2024-11-08T21:00:00	6	Velocidad del viento	14.5
6562	7	Sololá	701	Sololá	2	El tablón	12	Diciembre	2023-07-12T00:00:00	2024-11-08T21:00:00	7	Dirección del viento	14.48
6563	7	Sololá	701	Sololá	2	El tablón	12	Diciembre	2023-07-12T00:00:00	2024-11-08T21:00:00	1	Precipitación	0
6564	7	Sololá	701	Sololá	2	El tablón	12	Diciembre	2023-07-12T00:00:00	2024-11-08T21:00:00	8	Radiación solar	0
6565	7	Sololá	701	Sololá	2	El tablón	12	Diciembre	2023-07-12T00:00:00	2024-11-08T22:00:00	2	Temperatura media	12.2
6566	7	Sololá	701	Sololá	2	El tablón	12	Diciembre	2023-07-12T00:00:00	2024-11-08T22:00:00	4	Temperatura máxima	12.3
6567	7	Sololá	701	Sololá	2	El tablón	12	Diciembre	2023-07-12T00:00:00	2024-11-08T22:00:00	3	Temperatura mínima	12.1
6568	7	Sololá	701	Sololá	2	El tablón	12	Diciembre	2023-07-12T00:00:00	2024-11-08T22:00:00	5	Humedad	88
6569	7	Sololá	701	Sololá	2	El tablón	12	Diciembre	2023-07-12T00:00:00	2024-11-08T22:00:00	6	Velocidad del viento	12.9
6570	7	Sololá	701	Sololá	2	El tablón	12	Diciembre	2023-07-12T00:00:00	2024-11-08T22:00:00	7	Dirección del viento	12.87
6571	7	Sololá	701	Sololá	2	El tablón	12	Diciembre	2023-07-12T00:00:00	2024-11-08T22:00:00	1	Precipitación	0
6572	7	Sololá	701	Sololá	2	El tablón	12	Diciembre	2023-07-12T00:00:00	2024-11-08T22:00:00	8	Radiación solar	0
6573	7	Sololá	701	Sololá	2	El tablón	12	Diciembre	2023-07-12T00:00:00	2024-11-08T23:00:00	2	Temperatura media	12.1
6574	7	Sololá	701	Sololá	2	El tablón	12	Diciembre	2023-07-12T00:00:00	2024-11-08T23:00:00	4	Temperatura máxima	12.3
6575	7	Sololá	701	Sololá	2	El tablón	12	Diciembre	2023-07-12T00:00:00	2024-11-08T23:00:00	3	Temperatura mínima	12.1
6576	7	Sololá	701	Sololá	2	El tablón	12	Diciembre	2023-07-12T00:00:00	2024-11-08T23:00:00	5	Humedad	88
6577	7	Sololá	701	Sololá	2	El tablón	12	Diciembre	2023-07-12T00:00:00	2024-11-08T23:00:00	6	Velocidad del viento	11.3
6578	7	Sololá	701	Sololá	2	El tablón	12	Diciembre	2023-07-12T00:00:00	2024-11-08T23:00:00	7	Dirección del viento	11.27
6579	7	Sololá	701	Sololá	2	El tablón	12	Diciembre	2023-07-12T00:00:00	2024-11-08T23:00:00	1	Precipitación	0
6580	7	Sololá	701	Sololá	2	El tablón	12	Diciembre	2023-07-12T00:00:00	2024-11-08T23:00:00	8	Radiación solar	0
6581	7	Sololá	701	Sololá	2	El tablón	12	Diciembre	2023-08-12T00:00:00	2024-11-08T00:00:00	2	Temperatura media	11.8
6582	7	Sololá	701	Sololá	2	El tablón	12	Diciembre	2023-08-12T00:00:00	2024-11-08T00:00:00	4	Temperatura máxima	12.1
6583	7	Sololá	701	Sololá	2	El tablón	12	Diciembre	2023-08-12T00:00:00	2024-11-08T00:00:00	3	Temperatura mínima	11.8
6584	7	Sololá	701	Sololá	2	El tablón	12	Diciembre	2023-08-12T00:00:00	2024-11-08T00:00:00	5	Humedad	88
6585	7	Sololá	701	Sololá	2	El tablón	12	Diciembre	2023-08-12T00:00:00	2024-11-08T00:00:00	6	Velocidad del viento	11.3
6586	7	Sololá	701	Sololá	2	El tablón	12	Diciembre	2023-08-12T00:00:00	2024-11-08T00:00:00	7	Dirección del viento	11.27
6587	7	Sololá	701	Sololá	2	El tablón	12	Diciembre	2023-08-12T00:00:00	2024-11-08T00:00:00	1	Precipitación	0
6588	7	Sololá	701	Sololá	2	El tablón	12	Diciembre	2023-08-12T00:00:00	2024-11-08T00:00:00	8	Radiación solar	0
6589	7	Sololá	701	Sololá	2	El tablón	12	Diciembre	2023-08-12T00:00:00	2024-11-08T01:00:00	2	Temperatura media	11.9
6590	7	Sololá	701	Sololá	2	El tablón	12	Diciembre	2023-08-12T00:00:00	2024-11-08T01:00:00	4	Temperatura máxima	12.1
6591	7	Sololá	701	Sololá	2	El tablón	12	Diciembre	2023-08-12T00:00:00	2024-11-08T01:00:00	3	Temperatura mínima	11.8
6592	7	Sololá	701	Sololá	2	El tablón	12	Diciembre	2023-08-12T00:00:00	2024-11-08T01:00:00	5	Humedad	88
6593	7	Sololá	701	Sololá	2	El tablón	12	Diciembre	2023-08-12T00:00:00	2024-11-08T01:00:00	6	Velocidad del viento	11.3
6594	7	Sololá	701	Sololá	2	El tablón	12	Diciembre	2023-08-12T00:00:00	2024-11-08T01:00:00	7	Dirección del viento	11.27
6595	7	Sololá	701	Sololá	2	El tablón	12	Diciembre	2023-08-12T00:00:00	2024-11-08T01:00:00	1	Precipitación	0
6596	7	Sololá	701	Sololá	2	El tablón	12	Diciembre	2023-08-12T00:00:00	2024-11-08T01:00:00	8	Radiación solar	0
6597	7	Sololá	701	Sololá	2	El tablón	12	Diciembre	2023-08-12T00:00:00	2024-11-08T02:00:00	2	Temperatura media	11.9
6598	7	Sololá	701	Sololá	2	El tablón	12	Diciembre	2023-08-12T00:00:00	2024-11-08T02:00:00	4	Temperatura máxima	11.9
6599	7	Sololá	701	Sololá	2	El tablón	12	Diciembre	2023-08-12T00:00:00	2024-11-08T02:00:00	3	Temperatura mínima	11.7
6600	7	Sololá	701	Sololá	2	El tablón	12	Diciembre	2023-08-12T00:00:00	2024-11-08T02:00:00	5	Humedad	88
6601	7	Sololá	701	Sololá	2	El tablón	12	Diciembre	2023-08-12T00:00:00	2024-11-08T02:00:00	6	Velocidad del viento	11.3
6602	7	Sololá	701	Sololá	2	El tablón	12	Diciembre	2023-08-12T00:00:00	2024-11-08T02:00:00	7	Dirección del viento	11.27
6603	7	Sololá	701	Sololá	2	El tablón	12	Diciembre	2023-08-12T00:00:00	2024-11-08T02:00:00	1	Precipitación	0
6604	7	Sololá	701	Sololá	2	El tablón	12	Diciembre	2023-08-12T00:00:00	2024-11-08T02:00:00	8	Radiación solar	0
6605	7	Sololá	701	Sololá	2	El tablón	12	Diciembre	2023-08-12T00:00:00	2024-11-08T03:00:00	2	Temperatura media	12
6606	7	Sololá	701	Sololá	2	El tablón	12	Diciembre	2023-08-12T00:00:00	2024-11-08T03:00:00	4	Temperatura máxima	12.2
6607	7	Sololá	701	Sololá	2	El tablón	12	Diciembre	2023-08-12T00:00:00	2024-11-08T03:00:00	3	Temperatura mínima	11.9
6608	7	Sololá	701	Sololá	2	El tablón	12	Diciembre	2023-08-12T00:00:00	2024-11-08T03:00:00	5	Humedad	86
6609	7	Sololá	701	Sololá	2	El tablón	12	Diciembre	2023-08-12T00:00:00	2024-11-08T03:00:00	6	Velocidad del viento	14.5
6610	7	Sololá	701	Sololá	2	El tablón	12	Diciembre	2023-08-12T00:00:00	2024-11-08T03:00:00	7	Dirección del viento	14.48
6611	7	Sololá	701	Sololá	2	El tablón	12	Diciembre	2023-08-12T00:00:00	2024-11-08T03:00:00	1	Precipitación	0
6612	7	Sololá	701	Sololá	2	El tablón	12	Diciembre	2023-08-12T00:00:00	2024-11-08T03:00:00	8	Radiación solar	0
6613	7	Sololá	701	Sololá	2	El tablón	12	Diciembre	2023-08-12T00:00:00	2024-11-08T04:00:00	2	Temperatura media	11.7
6614	7	Sololá	701	Sololá	2	El tablón	12	Diciembre	2023-08-12T00:00:00	2024-11-08T04:00:00	4	Temperatura máxima	12.1
6615	7	Sololá	701	Sololá	2	El tablón	12	Diciembre	2023-08-12T00:00:00	2024-11-08T04:00:00	3	Temperatura mínima	11.7
6616	7	Sololá	701	Sololá	2	El tablón	12	Diciembre	2023-08-12T00:00:00	2024-11-08T04:00:00	5	Humedad	87
6617	7	Sololá	701	Sololá	2	El tablón	12	Diciembre	2023-08-12T00:00:00	2024-11-08T04:00:00	6	Velocidad del viento	12.9
6618	7	Sololá	701	Sololá	2	El tablón	12	Diciembre	2023-08-12T00:00:00	2024-11-08T04:00:00	7	Dirección del viento	12.87
6619	7	Sololá	701	Sololá	2	El tablón	12	Diciembre	2023-08-12T00:00:00	2024-11-08T04:00:00	1	Precipitación	0
6620	7	Sololá	701	Sololá	2	El tablón	12	Diciembre	2023-08-12T00:00:00	2024-11-08T04:00:00	8	Radiación solar	0
6621	7	Sololá	701	Sololá	2	El tablón	12	Diciembre	2023-08-12T00:00:00	2024-11-08T05:00:00	2	Temperatura media	11.5
6622	7	Sololá	701	Sololá	2	El tablón	12	Diciembre	2023-08-12T00:00:00	2024-11-08T05:00:00	4	Temperatura máxima	11.8
6623	7	Sololá	701	Sololá	2	El tablón	12	Diciembre	2023-08-12T00:00:00	2024-11-08T05:00:00	3	Temperatura mínima	11.5
6624	7	Sololá	701	Sololá	2	El tablón	12	Diciembre	2023-08-12T00:00:00	2024-11-08T05:00:00	5	Humedad	88
6625	7	Sololá	701	Sololá	2	El tablón	12	Diciembre	2023-08-12T00:00:00	2024-11-08T05:00:00	6	Velocidad del viento	12.9
6626	7	Sololá	701	Sololá	2	El tablón	12	Diciembre	2023-08-12T00:00:00	2024-11-08T05:00:00	7	Dirección del viento	12.87
6627	7	Sololá	701	Sololá	2	El tablón	12	Diciembre	2023-08-12T00:00:00	2024-11-08T05:00:00	1	Precipitación	0
6628	7	Sololá	701	Sololá	2	El tablón	12	Diciembre	2023-08-12T00:00:00	2024-11-08T05:00:00	8	Radiación solar	0
6629	7	Sololá	701	Sololá	2	El tablón	12	Diciembre	2023-08-12T00:00:00	2024-11-08T06:00:00	2	Temperatura media	11.8
6630	7	Sololá	701	Sololá	2	El tablón	12	Diciembre	2023-08-12T00:00:00	2024-11-08T06:00:00	4	Temperatura máxima	11.8
6631	7	Sololá	701	Sololá	2	El tablón	12	Diciembre	2023-08-12T00:00:00	2024-11-08T06:00:00	3	Temperatura mínima	11.4
6632	7	Sololá	701	Sololá	2	El tablón	12	Diciembre	2023-08-12T00:00:00	2024-11-08T06:00:00	5	Humedad	87
6633	7	Sololá	701	Sololá	2	El tablón	12	Diciembre	2023-08-12T00:00:00	2024-11-08T06:00:00	6	Velocidad del viento	14.5
6634	7	Sololá	701	Sololá	2	El tablón	12	Diciembre	2023-08-12T00:00:00	2024-11-08T06:00:00	7	Dirección del viento	14.48
6635	7	Sololá	701	Sololá	2	El tablón	12	Diciembre	2023-08-12T00:00:00	2024-11-08T06:00:00	1	Precipitación	0
6636	7	Sololá	701	Sololá	2	El tablón	12	Diciembre	2023-08-12T00:00:00	2024-11-08T06:00:00	8	Radiación solar	0
6637	7	Sololá	701	Sololá	2	El tablón	12	Diciembre	2023-08-12T00:00:00	2024-11-08T07:00:00	2	Temperatura media	12.2
6638	7	Sololá	701	Sololá	2	El tablón	12	Diciembre	2023-08-12T00:00:00	2024-11-08T07:00:00	4	Temperatura máxima	12.2
6639	7	Sololá	701	Sololá	2	El tablón	12	Diciembre	2023-08-12T00:00:00	2024-11-08T07:00:00	3	Temperatura mínima	11.7
6640	7	Sololá	701	Sololá	2	El tablón	12	Diciembre	2023-08-12T00:00:00	2024-11-08T07:00:00	5	Humedad	86
6641	7	Sololá	701	Sololá	2	El tablón	12	Diciembre	2023-08-12T00:00:00	2024-11-08T07:00:00	6	Velocidad del viento	14.5
6642	7	Sololá	701	Sololá	2	El tablón	12	Diciembre	2023-08-12T00:00:00	2024-11-08T07:00:00	7	Dirección del viento	14.48
6643	7	Sololá	701	Sololá	2	El tablón	12	Diciembre	2023-08-12T00:00:00	2024-11-08T07:00:00	1	Precipitación	0
6644	7	Sololá	701	Sololá	2	El tablón	12	Diciembre	2023-08-12T00:00:00	2024-11-08T07:00:00	8	Radiación solar	17
6645	7	Sololá	701	Sololá	2	El tablón	12	Diciembre	2023-08-12T00:00:00	2024-11-08T08:00:00	2	Temperatura media	13.6
6646	7	Sololá	701	Sololá	2	El tablón	12	Diciembre	2023-08-12T00:00:00	2024-11-08T08:00:00	4	Temperatura máxima	13.6
6647	7	Sololá	701	Sololá	2	El tablón	12	Diciembre	2023-08-12T00:00:00	2024-11-08T08:00:00	3	Temperatura mínima	12.2
6648	7	Sololá	701	Sololá	2	El tablón	12	Diciembre	2023-08-12T00:00:00	2024-11-08T08:00:00	5	Humedad	83
6649	7	Sololá	701	Sololá	2	El tablón	12	Diciembre	2023-08-12T00:00:00	2024-11-08T08:00:00	6	Velocidad del viento	14.5
6650	7	Sololá	701	Sololá	2	El tablón	12	Diciembre	2023-08-12T00:00:00	2024-11-08T08:00:00	7	Dirección del viento	14.48
6651	7	Sololá	701	Sololá	2	El tablón	12	Diciembre	2023-08-12T00:00:00	2024-11-08T08:00:00	1	Precipitación	0
6652	7	Sololá	701	Sololá	2	El tablón	12	Diciembre	2023-08-12T00:00:00	2024-11-08T08:00:00	8	Radiación solar	163
6653	7	Sololá	701	Sololá	2	El tablón	12	Diciembre	2023-08-12T00:00:00	2024-11-08T09:00:00	2	Temperatura media	15.4
6654	7	Sololá	701	Sololá	2	El tablón	12	Diciembre	2023-08-12T00:00:00	2024-11-08T09:00:00	4	Temperatura máxima	15.4
6655	7	Sololá	701	Sololá	2	El tablón	12	Diciembre	2023-08-12T00:00:00	2024-11-08T09:00:00	3	Temperatura mínima	13.6
6656	7	Sololá	701	Sololá	2	El tablón	12	Diciembre	2023-08-12T00:00:00	2024-11-08T09:00:00	5	Humedad	77
6657	7	Sololá	701	Sololá	2	El tablón	12	Diciembre	2023-08-12T00:00:00	2024-11-08T09:00:00	6	Velocidad del viento	11.3
6658	7	Sololá	701	Sololá	2	El tablón	12	Diciembre	2023-08-12T00:00:00	2024-11-08T09:00:00	7	Dirección del viento	11.27
6659	7	Sololá	701	Sololá	2	El tablón	12	Diciembre	2023-08-12T00:00:00	2024-11-08T09:00:00	1	Precipitación	0
6660	7	Sololá	701	Sololá	2	El tablón	12	Diciembre	2023-08-12T00:00:00	2024-11-08T09:00:00	8	Radiación solar	395
6661	7	Sololá	701	Sololá	2	El tablón	12	Diciembre	2023-08-12T00:00:00	2024-11-08T10:00:00	2	Temperatura media	16.8
6662	7	Sololá	701	Sololá	2	El tablón	12	Diciembre	2023-08-12T00:00:00	2024-11-08T10:00:00	4	Temperatura máxima	16.8
6663	7	Sololá	701	Sololá	2	El tablón	12	Diciembre	2023-08-12T00:00:00	2024-11-08T10:00:00	3	Temperatura mínima	15.4
6664	7	Sololá	701	Sololá	2	El tablón	12	Diciembre	2023-08-12T00:00:00	2024-11-08T10:00:00	5	Humedad	69
6665	7	Sololá	701	Sololá	2	El tablón	12	Diciembre	2023-08-12T00:00:00	2024-11-08T10:00:00	6	Velocidad del viento	11.3
6666	7	Sololá	701	Sololá	2	El tablón	12	Diciembre	2023-08-12T00:00:00	2024-11-08T10:00:00	7	Dirección del viento	11.27
6667	7	Sololá	701	Sololá	2	El tablón	12	Diciembre	2023-08-12T00:00:00	2024-11-08T10:00:00	1	Precipitación	0
6668	7	Sololá	701	Sololá	2	El tablón	12	Diciembre	2023-08-12T00:00:00	2024-11-08T10:00:00	8	Radiación solar	573
6669	7	Sololá	701	Sololá	2	El tablón	12	Diciembre	2023-08-12T00:00:00	2024-11-08T11:00:00	2	Temperatura media	16.9
6670	7	Sololá	701	Sololá	2	El tablón	12	Diciembre	2023-08-12T00:00:00	2024-11-08T11:00:00	4	Temperatura máxima	17.4
6671	7	Sololá	701	Sololá	2	El tablón	12	Diciembre	2023-08-12T00:00:00	2024-11-08T11:00:00	3	Temperatura mínima	16.8
6672	7	Sololá	701	Sololá	2	El tablón	12	Diciembre	2023-08-12T00:00:00	2024-11-08T11:00:00	5	Humedad	71
6673	7	Sololá	701	Sololá	2	El tablón	12	Diciembre	2023-08-12T00:00:00	2024-11-08T11:00:00	6	Velocidad del viento	11.3
6674	7	Sololá	701	Sololá	2	El tablón	12	Diciembre	2023-08-12T00:00:00	2024-11-08T11:00:00	7	Dirección del viento	11.27
6675	7	Sololá	701	Sololá	2	El tablón	12	Diciembre	2023-08-12T00:00:00	2024-11-08T11:00:00	1	Precipitación	0
6676	7	Sololá	701	Sololá	2	El tablón	12	Diciembre	2023-08-12T00:00:00	2024-11-08T11:00:00	8	Radiación solar	599
6677	7	Sololá	701	Sololá	2	El tablón	12	Diciembre	2023-08-12T00:00:00	2024-11-08T12:00:00	2	Temperatura media	17.6
6678	7	Sololá	701	Sololá	2	El tablón	12	Diciembre	2023-08-12T00:00:00	2024-11-08T12:00:00	4	Temperatura máxima	17.6
6679	7	Sololá	701	Sololá	2	El tablón	12	Diciembre	2023-08-12T00:00:00	2024-11-08T12:00:00	3	Temperatura mínima	16.6
6680	7	Sololá	701	Sololá	2	El tablón	12	Diciembre	2023-08-12T00:00:00	2024-11-08T12:00:00	5	Humedad	70
6681	7	Sololá	701	Sololá	2	El tablón	12	Diciembre	2023-08-12T00:00:00	2024-11-08T12:00:00	6	Velocidad del viento	9.7
6682	7	Sololá	701	Sololá	2	El tablón	12	Diciembre	2023-08-12T00:00:00	2024-11-08T12:00:00	7	Dirección del viento	9.66
6683	7	Sololá	701	Sololá	2	El tablón	12	Diciembre	2023-08-12T00:00:00	2024-11-08T12:00:00	1	Precipitación	0
6684	7	Sololá	701	Sololá	2	El tablón	12	Diciembre	2023-08-12T00:00:00	2024-11-08T12:00:00	8	Radiación solar	345
6685	7	Sololá	701	Sololá	2	El tablón	12	Diciembre	2023-08-12T00:00:00	2024-11-08T13:00:00	2	Temperatura media	18.2
6686	7	Sololá	701	Sololá	2	El tablón	12	Diciembre	2023-08-12T00:00:00	2024-11-08T13:00:00	4	Temperatura máxima	18.2
6687	7	Sololá	701	Sololá	2	El tablón	12	Diciembre	2023-08-12T00:00:00	2024-11-08T13:00:00	3	Temperatura mínima	17.6
6688	7	Sololá	701	Sololá	2	El tablón	12	Diciembre	2023-08-12T00:00:00	2024-11-08T13:00:00	5	Humedad	65
6689	7	Sololá	701	Sololá	2	El tablón	12	Diciembre	2023-08-12T00:00:00	2024-11-08T13:00:00	6	Velocidad del viento	8
6690	7	Sololá	701	Sololá	2	El tablón	12	Diciembre	2023-08-12T00:00:00	2024-11-08T13:00:00	7	Dirección del viento	8.05
6691	7	Sololá	701	Sololá	2	El tablón	12	Diciembre	2023-08-12T00:00:00	2024-11-08T13:00:00	1	Precipitación	0
6692	7	Sololá	701	Sololá	2	El tablón	12	Diciembre	2023-08-12T00:00:00	2024-11-08T13:00:00	8	Radiación solar	378
6693	7	Sololá	701	Sololá	2	El tablón	12	Diciembre	2023-08-12T00:00:00	2024-11-08T14:00:00	2	Temperatura media	18.5
6694	7	Sololá	701	Sololá	2	El tablón	12	Diciembre	2023-08-12T00:00:00	2024-11-08T14:00:00	4	Temperatura máxima	19.1
6695	7	Sololá	701	Sololá	2	El tablón	12	Diciembre	2023-08-12T00:00:00	2024-11-08T14:00:00	3	Temperatura mínima	17.9
6696	7	Sololá	701	Sololá	2	El tablón	12	Diciembre	2023-08-12T00:00:00	2024-11-08T14:00:00	5	Humedad	65
6697	7	Sololá	701	Sololá	2	El tablón	12	Diciembre	2023-08-12T00:00:00	2024-11-08T14:00:00	6	Velocidad del viento	9.7
6698	7	Sololá	701	Sololá	2	El tablón	12	Diciembre	2023-08-12T00:00:00	2024-11-08T14:00:00	7	Dirección del viento	9.66
6699	7	Sololá	701	Sololá	2	El tablón	12	Diciembre	2023-08-12T00:00:00	2024-11-08T14:00:00	1	Precipitación	0
6700	7	Sololá	701	Sololá	2	El tablón	12	Diciembre	2023-08-12T00:00:00	2024-11-08T14:00:00	8	Radiación solar	562
6701	7	Sololá	701	Sololá	2	El tablón	12	Diciembre	2023-08-12T00:00:00	2024-11-08T15:00:00	2	Temperatura media	18.2
6702	7	Sololá	701	Sololá	2	El tablón	12	Diciembre	2023-08-12T00:00:00	2024-11-08T15:00:00	4	Temperatura máxima	19.2
6703	7	Sololá	701	Sololá	2	El tablón	12	Diciembre	2023-08-12T00:00:00	2024-11-08T15:00:00	3	Temperatura mínima	18.2
6704	7	Sololá	701	Sololá	2	El tablón	12	Diciembre	2023-08-12T00:00:00	2024-11-08T15:00:00	5	Humedad	65
6705	7	Sololá	701	Sololá	2	El tablón	12	Diciembre	2023-08-12T00:00:00	2024-11-08T15:00:00	6	Velocidad del viento	9.7
6706	7	Sololá	701	Sololá	2	El tablón	12	Diciembre	2023-08-12T00:00:00	2024-11-08T15:00:00	7	Dirección del viento	9.66
6707	7	Sololá	701	Sololá	2	El tablón	12	Diciembre	2023-08-12T00:00:00	2024-11-08T15:00:00	1	Precipitación	0
6708	7	Sololá	701	Sololá	2	El tablón	12	Diciembre	2023-08-12T00:00:00	2024-11-08T15:00:00	8	Radiación solar	571
6709	7	Sololá	701	Sololá	2	El tablón	12	Diciembre	2023-08-12T00:00:00	2024-11-08T16:00:00	2	Temperatura media	17.9
6710	7	Sololá	701	Sololá	2	El tablón	12	Diciembre	2023-08-12T00:00:00	2024-11-08T16:00:00	4	Temperatura máxima	18.6
6711	7	Sololá	701	Sololá	2	El tablón	12	Diciembre	2023-08-12T00:00:00	2024-11-08T16:00:00	3	Temperatura mínima	17.8
6712	7	Sololá	701	Sololá	2	El tablón	12	Diciembre	2023-08-12T00:00:00	2024-11-08T16:00:00	5	Humedad	65
6713	7	Sololá	701	Sololá	2	El tablón	12	Diciembre	2023-08-12T00:00:00	2024-11-08T16:00:00	6	Velocidad del viento	8
6714	7	Sololá	701	Sololá	2	El tablón	12	Diciembre	2023-08-12T00:00:00	2024-11-08T16:00:00	7	Dirección del viento	8.05
6715	7	Sololá	701	Sololá	2	El tablón	12	Diciembre	2023-08-12T00:00:00	2024-11-08T16:00:00	1	Precipitación	0
6716	7	Sololá	701	Sololá	2	El tablón	12	Diciembre	2023-08-12T00:00:00	2024-11-08T16:00:00	8	Radiación solar	406
6717	7	Sololá	701	Sololá	2	El tablón	12	Diciembre	2023-08-12T00:00:00	2024-11-08T17:00:00	2	Temperatura media	16.2
6718	7	Sololá	701	Sololá	2	El tablón	12	Diciembre	2023-08-12T00:00:00	2024-11-08T17:00:00	4	Temperatura máxima	18.2
6719	7	Sololá	701	Sololá	2	El tablón	12	Diciembre	2023-08-12T00:00:00	2024-11-08T17:00:00	3	Temperatura mínima	16.2
6720	7	Sololá	701	Sololá	2	El tablón	12	Diciembre	2023-08-12T00:00:00	2024-11-08T17:00:00	5	Humedad	73
6721	7	Sololá	701	Sololá	2	El tablón	12	Diciembre	2023-08-12T00:00:00	2024-11-08T17:00:00	6	Velocidad del viento	8
6722	7	Sololá	701	Sololá	2	El tablón	12	Diciembre	2023-08-12T00:00:00	2024-11-08T17:00:00	7	Dirección del viento	8.05
6723	7	Sololá	701	Sololá	2	El tablón	12	Diciembre	2023-08-12T00:00:00	2024-11-08T17:00:00	1	Precipitación	0
6724	7	Sololá	701	Sololá	2	El tablón	12	Diciembre	2023-08-12T00:00:00	2024-11-08T17:00:00	8	Radiación solar	156
6725	7	Sololá	701	Sololá	2	El tablón	12	Diciembre	2023-08-12T00:00:00	2024-11-08T18:00:00	2	Temperatura media	14.2
6726	7	Sololá	701	Sololá	2	El tablón	12	Diciembre	2023-08-12T00:00:00	2024-11-08T18:00:00	4	Temperatura máxima	16.2
6727	7	Sololá	701	Sololá	2	El tablón	12	Diciembre	2023-08-12T00:00:00	2024-11-08T18:00:00	3	Temperatura mínima	14.2
6728	7	Sololá	701	Sololá	2	El tablón	12	Diciembre	2023-08-12T00:00:00	2024-11-08T18:00:00	5	Humedad	83
6729	7	Sololá	701	Sololá	2	El tablón	12	Diciembre	2023-08-12T00:00:00	2024-11-08T18:00:00	6	Velocidad del viento	6.4
6730	7	Sololá	701	Sololá	2	El tablón	12	Diciembre	2023-08-12T00:00:00	2024-11-08T18:00:00	7	Dirección del viento	6.44
6731	7	Sololá	701	Sololá	2	El tablón	12	Diciembre	2023-08-12T00:00:00	2024-11-08T18:00:00	1	Precipitación	0
6732	7	Sololá	701	Sololá	2	El tablón	12	Diciembre	2023-08-12T00:00:00	2024-11-08T18:00:00	8	Radiación solar	11
6733	7	Sololá	701	Sololá	2	El tablón	12	Diciembre	2023-08-12T00:00:00	2024-11-08T19:00:00	2	Temperatura media	13.6
6734	7	Sololá	701	Sololá	2	El tablón	12	Diciembre	2023-08-12T00:00:00	2024-11-08T19:00:00	4	Temperatura máxima	14.2
6735	7	Sololá	701	Sololá	2	El tablón	12	Diciembre	2023-08-12T00:00:00	2024-11-08T19:00:00	3	Temperatura mínima	13.6
6736	7	Sololá	701	Sololá	2	El tablón	12	Diciembre	2023-08-12T00:00:00	2024-11-08T19:00:00	5	Humedad	86
6737	7	Sololá	701	Sololá	2	El tablón	12	Diciembre	2023-08-12T00:00:00	2024-11-08T19:00:00	6	Velocidad del viento	11.3
6738	7	Sololá	701	Sololá	2	El tablón	12	Diciembre	2023-08-12T00:00:00	2024-11-08T19:00:00	7	Dirección del viento	11.27
6739	7	Sololá	701	Sololá	2	El tablón	12	Diciembre	2023-08-12T00:00:00	2024-11-08T19:00:00	1	Precipitación	0
6740	7	Sololá	701	Sololá	2	El tablón	12	Diciembre	2023-08-12T00:00:00	2024-11-08T19:00:00	8	Radiación solar	0
6741	7	Sololá	701	Sololá	2	El tablón	12	Diciembre	2023-08-12T00:00:00	2024-11-08T20:00:00	2	Temperatura media	13.3
6742	7	Sololá	701	Sololá	2	El tablón	12	Diciembre	2023-08-12T00:00:00	2024-11-08T20:00:00	4	Temperatura máxima	13.7
6743	7	Sololá	701	Sololá	2	El tablón	12	Diciembre	2023-08-12T00:00:00	2024-11-08T20:00:00	3	Temperatura mínima	13.3
6744	7	Sololá	701	Sololá	2	El tablón	12	Diciembre	2023-08-12T00:00:00	2024-11-08T20:00:00	5	Humedad	86
6745	7	Sololá	701	Sololá	2	El tablón	12	Diciembre	2023-08-12T00:00:00	2024-11-08T20:00:00	6	Velocidad del viento	11.3
6746	7	Sololá	701	Sololá	2	El tablón	12	Diciembre	2023-08-12T00:00:00	2024-11-08T20:00:00	7	Dirección del viento	11.27
6747	7	Sololá	701	Sololá	2	El tablón	12	Diciembre	2023-08-12T00:00:00	2024-11-08T20:00:00	1	Precipitación	0
6748	7	Sololá	701	Sololá	2	El tablón	12	Diciembre	2023-08-12T00:00:00	2024-11-08T20:00:00	8	Radiación solar	0
6749	7	Sololá	701	Sololá	2	El tablón	12	Diciembre	2023-08-12T00:00:00	2024-11-08T21:00:00	2	Temperatura media	12.8
6750	7	Sololá	701	Sololá	2	El tablón	12	Diciembre	2023-08-12T00:00:00	2024-11-08T21:00:00	4	Temperatura máxima	13.3
6751	7	Sololá	701	Sololá	2	El tablón	12	Diciembre	2023-08-12T00:00:00	2024-11-08T21:00:00	3	Temperatura mínima	12.8
6752	7	Sololá	701	Sololá	2	El tablón	12	Diciembre	2023-08-12T00:00:00	2024-11-08T21:00:00	5	Humedad	86
6753	7	Sololá	701	Sololá	2	El tablón	12	Diciembre	2023-08-12T00:00:00	2024-11-08T21:00:00	6	Velocidad del viento	8
6754	7	Sololá	701	Sololá	2	El tablón	12	Diciembre	2023-08-12T00:00:00	2024-11-08T21:00:00	7	Dirección del viento	8.05
6755	7	Sololá	701	Sololá	2	El tablón	12	Diciembre	2023-08-12T00:00:00	2024-11-08T21:00:00	1	Precipitación	0
6756	7	Sololá	701	Sololá	2	El tablón	12	Diciembre	2023-08-12T00:00:00	2024-11-08T21:00:00	8	Radiación solar	0
6757	7	Sololá	701	Sololá	2	El tablón	12	Diciembre	2023-08-12T00:00:00	2024-11-08T22:00:00	2	Temperatura media	12.7
6758	7	Sololá	701	Sololá	2	El tablón	12	Diciembre	2023-08-12T00:00:00	2024-11-08T22:00:00	4	Temperatura máxima	12.9
6759	7	Sololá	701	Sololá	2	El tablón	12	Diciembre	2023-08-12T00:00:00	2024-11-08T22:00:00	3	Temperatura mínima	12.7
6760	7	Sololá	701	Sololá	2	El tablón	12	Diciembre	2023-08-12T00:00:00	2024-11-08T22:00:00	5	Humedad	87
6761	7	Sololá	701	Sololá	2	El tablón	12	Diciembre	2023-08-12T00:00:00	2024-11-08T22:00:00	6	Velocidad del viento	8
6762	7	Sololá	701	Sololá	2	El tablón	12	Diciembre	2023-08-12T00:00:00	2024-11-08T22:00:00	7	Dirección del viento	8.05
6763	7	Sololá	701	Sololá	2	El tablón	12	Diciembre	2023-08-12T00:00:00	2024-11-08T22:00:00	1	Precipitación	0
6764	7	Sololá	701	Sololá	2	El tablón	12	Diciembre	2023-08-12T00:00:00	2024-11-08T22:00:00	8	Radiación solar	0
6765	7	Sololá	701	Sololá	2	El tablón	12	Diciembre	2023-08-12T00:00:00	2024-11-08T23:00:00	2	Temperatura media	12.4
6766	7	Sololá	701	Sololá	2	El tablón	12	Diciembre	2023-08-12T00:00:00	2024-11-08T23:00:00	4	Temperatura máxima	12.7
6767	7	Sololá	701	Sololá	2	El tablón	12	Diciembre	2023-08-12T00:00:00	2024-11-08T23:00:00	3	Temperatura mínima	12.4
6768	7	Sololá	701	Sololá	2	El tablón	12	Diciembre	2023-08-12T00:00:00	2024-11-08T23:00:00	5	Humedad	86
6769	7	Sololá	701	Sololá	2	El tablón	12	Diciembre	2023-08-12T00:00:00	2024-11-08T23:00:00	6	Velocidad del viento	8
6770	7	Sololá	701	Sololá	2	El tablón	12	Diciembre	2023-08-12T00:00:00	2024-11-08T23:00:00	7	Dirección del viento	8.05
6771	7	Sololá	701	Sololá	2	El tablón	12	Diciembre	2023-08-12T00:00:00	2024-11-08T23:00:00	1	Precipitación	0
6772	7	Sololá	701	Sololá	2	El tablón	12	Diciembre	2023-08-12T00:00:00	2024-11-08T23:00:00	8	Radiación solar	0
6773	7	Sololá	701	Sololá	2	El tablón	12	Diciembre	2023-09-12T00:00:00	2024-11-08T00:00:00	2	Temperatura media	12.1
6774	7	Sololá	701	Sololá	2	El tablón	12	Diciembre	2023-09-12T00:00:00	2024-11-08T00:00:00	4	Temperatura máxima	12.4
6775	7	Sololá	701	Sololá	2	El tablón	12	Diciembre	2023-09-12T00:00:00	2024-11-08T00:00:00	3	Temperatura mínima	11.9
6776	7	Sololá	701	Sololá	2	El tablón	12	Diciembre	2023-09-12T00:00:00	2024-11-08T00:00:00	5	Humedad	87
6777	7	Sololá	701	Sololá	2	El tablón	12	Diciembre	2023-09-12T00:00:00	2024-11-08T00:00:00	6	Velocidad del viento	4.8
6778	7	Sololá	701	Sololá	2	El tablón	12	Diciembre	2023-09-12T00:00:00	2024-11-08T00:00:00	7	Dirección del viento	4.83
6779	7	Sololá	701	Sololá	2	El tablón	12	Diciembre	2023-09-12T00:00:00	2024-11-08T00:00:00	1	Precipitación	0
6780	7	Sololá	701	Sololá	2	El tablón	12	Diciembre	2023-09-12T00:00:00	2024-11-08T00:00:00	8	Radiación solar	0
6781	7	Sololá	701	Sololá	2	El tablón	12	Diciembre	2023-09-12T00:00:00	2024-11-08T01:00:00	2	Temperatura media	12
6782	7	Sololá	701	Sololá	2	El tablón	12	Diciembre	2023-09-12T00:00:00	2024-11-08T01:00:00	4	Temperatura máxima	12.1
6783	7	Sololá	701	Sololá	2	El tablón	12	Diciembre	2023-09-12T00:00:00	2024-11-08T01:00:00	3	Temperatura mínima	12
6784	7	Sololá	701	Sololá	2	El tablón	12	Diciembre	2023-09-12T00:00:00	2024-11-08T01:00:00	5	Humedad	86
6785	7	Sololá	701	Sololá	2	El tablón	12	Diciembre	2023-09-12T00:00:00	2024-11-08T01:00:00	6	Velocidad del viento	6.4
6786	7	Sololá	701	Sololá	2	El tablón	12	Diciembre	2023-09-12T00:00:00	2024-11-08T01:00:00	7	Dirección del viento	6.44
6787	7	Sololá	701	Sololá	2	El tablón	12	Diciembre	2023-09-12T00:00:00	2024-11-08T01:00:00	1	Precipitación	0
6788	7	Sololá	701	Sololá	2	El tablón	12	Diciembre	2023-09-12T00:00:00	2024-11-08T01:00:00	8	Radiación solar	0
6789	7	Sololá	701	Sololá	2	El tablón	12	Diciembre	2023-09-12T00:00:00	2024-11-08T02:00:00	2	Temperatura media	11.8
6790	7	Sololá	701	Sololá	2	El tablón	12	Diciembre	2023-09-12T00:00:00	2024-11-08T02:00:00	4	Temperatura máxima	12.1
6791	7	Sololá	701	Sololá	2	El tablón	12	Diciembre	2023-09-12T00:00:00	2024-11-08T02:00:00	3	Temperatura mínima	11.8
6792	7	Sololá	701	Sololá	2	El tablón	12	Diciembre	2023-09-12T00:00:00	2024-11-08T02:00:00	5	Humedad	86
6793	7	Sololá	701	Sololá	2	El tablón	12	Diciembre	2023-09-12T00:00:00	2024-11-08T02:00:00	6	Velocidad del viento	6.4
6794	7	Sololá	701	Sololá	2	El tablón	12	Diciembre	2023-09-12T00:00:00	2024-11-08T02:00:00	7	Dirección del viento	6.44
6795	7	Sololá	701	Sololá	2	El tablón	12	Diciembre	2023-09-12T00:00:00	2024-11-08T02:00:00	1	Precipitación	0
6796	7	Sololá	701	Sololá	2	El tablón	12	Diciembre	2023-09-12T00:00:00	2024-11-08T02:00:00	8	Radiación solar	0
6797	7	Sololá	701	Sololá	2	El tablón	12	Diciembre	2023-09-12T00:00:00	2024-11-08T03:00:00	2	Temperatura media	11.5
6798	7	Sololá	701	Sololá	2	El tablón	12	Diciembre	2023-09-12T00:00:00	2024-11-08T03:00:00	4	Temperatura máxima	11.9
6799	7	Sololá	701	Sololá	2	El tablón	12	Diciembre	2023-09-12T00:00:00	2024-11-08T03:00:00	3	Temperatura mínima	11.5
6800	7	Sololá	701	Sololá	2	El tablón	12	Diciembre	2023-09-12T00:00:00	2024-11-08T03:00:00	5	Humedad	86
6801	7	Sololá	701	Sololá	2	El tablón	12	Diciembre	2023-09-12T00:00:00	2024-11-08T03:00:00	6	Velocidad del viento	8
6802	7	Sololá	701	Sololá	2	El tablón	12	Diciembre	2023-09-12T00:00:00	2024-11-08T03:00:00	7	Dirección del viento	8.05
6803	7	Sololá	701	Sololá	2	El tablón	12	Diciembre	2023-09-12T00:00:00	2024-11-08T03:00:00	1	Precipitación	0
6804	7	Sololá	701	Sololá	2	El tablón	12	Diciembre	2023-09-12T00:00:00	2024-11-08T03:00:00	8	Radiación solar	0
6805	7	Sololá	701	Sololá	2	El tablón	12	Diciembre	2023-09-12T00:00:00	2024-11-08T04:00:00	2	Temperatura media	11.1
6806	7	Sololá	701	Sololá	2	El tablón	12	Diciembre	2023-09-12T00:00:00	2024-11-08T04:00:00	4	Temperatura máxima	11.5
6807	7	Sololá	701	Sololá	2	El tablón	12	Diciembre	2023-09-12T00:00:00	2024-11-08T04:00:00	3	Temperatura mínima	11.1
6808	7	Sololá	701	Sololá	2	El tablón	12	Diciembre	2023-09-12T00:00:00	2024-11-08T04:00:00	5	Humedad	86
6809	7	Sololá	701	Sololá	2	El tablón	12	Diciembre	2023-09-12T00:00:00	2024-11-08T04:00:00	6	Velocidad del viento	8
6810	7	Sololá	701	Sololá	2	El tablón	12	Diciembre	2023-09-12T00:00:00	2024-11-08T04:00:00	7	Dirección del viento	8.05
6811	7	Sololá	701	Sololá	2	El tablón	12	Diciembre	2023-09-12T00:00:00	2024-11-08T04:00:00	1	Precipitación	0
6812	7	Sololá	701	Sololá	2	El tablón	12	Diciembre	2023-09-12T00:00:00	2024-11-08T04:00:00	8	Radiación solar	0
6813	7	Sololá	701	Sololá	2	El tablón	12	Diciembre	2023-09-12T00:00:00	2024-11-08T05:00:00	2	Temperatura media	10.9
6814	7	Sololá	701	Sololá	2	El tablón	12	Diciembre	2023-09-12T00:00:00	2024-11-08T05:00:00	4	Temperatura máxima	11.1
6815	7	Sololá	701	Sololá	2	El tablón	12	Diciembre	2023-09-12T00:00:00	2024-11-08T05:00:00	3	Temperatura mínima	10.7
6816	7	Sololá	701	Sololá	2	El tablón	12	Diciembre	2023-09-12T00:00:00	2024-11-08T05:00:00	5	Humedad	80
6817	7	Sololá	701	Sololá	2	El tablón	12	Diciembre	2023-09-12T00:00:00	2024-11-08T05:00:00	6	Velocidad del viento	6.4
6818	7	Sololá	701	Sololá	2	El tablón	12	Diciembre	2023-09-12T00:00:00	2024-11-08T05:00:00	7	Dirección del viento	6.44
6819	7	Sololá	701	Sololá	2	El tablón	12	Diciembre	2023-09-12T00:00:00	2024-11-08T05:00:00	1	Precipitación	0
6820	7	Sololá	701	Sololá	2	El tablón	12	Diciembre	2023-09-12T00:00:00	2024-11-08T05:00:00	8	Radiación solar	0
6821	7	Sololá	701	Sololá	2	El tablón	12	Diciembre	2023-09-12T00:00:00	2024-11-08T06:00:00	2	Temperatura media	10.8
6822	7	Sololá	701	Sololá	2	El tablón	12	Diciembre	2023-09-12T00:00:00	2024-11-08T06:00:00	4	Temperatura máxima	11.6
6823	7	Sololá	701	Sololá	2	El tablón	12	Diciembre	2023-09-12T00:00:00	2024-11-08T06:00:00	3	Temperatura mínima	10.8
6824	7	Sololá	701	Sololá	2	El tablón	12	Diciembre	2023-09-12T00:00:00	2024-11-08T06:00:00	5	Humedad	79
6825	7	Sololá	701	Sololá	2	El tablón	12	Diciembre	2023-09-12T00:00:00	2024-11-08T06:00:00	6	Velocidad del viento	4.8
6826	7	Sololá	701	Sololá	2	El tablón	12	Diciembre	2023-09-12T00:00:00	2024-11-08T06:00:00	7	Dirección del viento	4.83
6827	7	Sololá	701	Sololá	2	El tablón	12	Diciembre	2023-09-12T00:00:00	2024-11-08T06:00:00	1	Precipitación	0
6828	7	Sololá	701	Sololá	2	El tablón	12	Diciembre	2023-09-12T00:00:00	2024-11-08T06:00:00	8	Radiación solar	0
6829	7	Sololá	701	Sololá	2	El tablón	12	Diciembre	2023-09-12T00:00:00	2024-11-08T07:00:00	2	Temperatura media	12.9
6830	7	Sololá	701	Sololá	2	El tablón	12	Diciembre	2023-09-12T00:00:00	2024-11-08T07:00:00	4	Temperatura máxima	12.9
6831	7	Sololá	701	Sololá	2	El tablón	12	Diciembre	2023-09-12T00:00:00	2024-11-08T07:00:00	3	Temperatura mínima	10.7
6832	7	Sololá	701	Sololá	2	El tablón	12	Diciembre	2023-09-12T00:00:00	2024-11-08T07:00:00	5	Humedad	76
6833	7	Sololá	701	Sololá	2	El tablón	12	Diciembre	2023-09-12T00:00:00	2024-11-08T07:00:00	6	Velocidad del viento	4.8
6834	7	Sololá	701	Sololá	2	El tablón	12	Diciembre	2023-09-12T00:00:00	2024-11-08T07:00:00	7	Dirección del viento	4.83
6835	7	Sololá	701	Sololá	2	El tablón	12	Diciembre	2023-09-12T00:00:00	2024-11-08T07:00:00	1	Precipitación	0
6836	7	Sololá	701	Sololá	2	El tablón	12	Diciembre	2023-09-12T00:00:00	2024-11-08T07:00:00	8	Radiación solar	17
6837	7	Sololá	701	Sololá	2	El tablón	12	Diciembre	2023-09-12T00:00:00	2024-11-08T08:00:00	2	Temperatura media	15.6
6838	7	Sololá	701	Sololá	2	El tablón	12	Diciembre	2023-09-12T00:00:00	2024-11-08T08:00:00	4	Temperatura máxima	15.6
6839	7	Sololá	701	Sololá	2	El tablón	12	Diciembre	2023-09-12T00:00:00	2024-11-08T08:00:00	3	Temperatura mínima	12.9
6840	7	Sololá	701	Sololá	2	El tablón	12	Diciembre	2023-09-12T00:00:00	2024-11-08T08:00:00	5	Humedad	68
6841	7	Sololá	701	Sololá	2	El tablón	12	Diciembre	2023-09-12T00:00:00	2024-11-08T08:00:00	6	Velocidad del viento	6.4
6842	7	Sololá	701	Sololá	2	El tablón	12	Diciembre	2023-09-12T00:00:00	2024-11-08T08:00:00	7	Dirección del viento	6.44
6843	7	Sololá	701	Sololá	2	El tablón	12	Diciembre	2023-09-12T00:00:00	2024-11-08T08:00:00	1	Precipitación	0
6844	7	Sololá	701	Sololá	2	El tablón	12	Diciembre	2023-09-12T00:00:00	2024-11-08T08:00:00	8	Radiación solar	171
6845	7	Sololá	701	Sololá	2	El tablón	12	Diciembre	2023-09-12T00:00:00	2024-11-08T09:00:00	2	Temperatura media	17.3
6846	7	Sololá	701	Sololá	2	El tablón	12	Diciembre	2023-09-12T00:00:00	2024-11-08T09:00:00	4	Temperatura máxima	17.3
6847	7	Sololá	701	Sololá	2	El tablón	12	Diciembre	2023-09-12T00:00:00	2024-11-08T09:00:00	3	Temperatura mínima	15.6
6848	7	Sololá	701	Sololá	2	El tablón	12	Diciembre	2023-09-12T00:00:00	2024-11-08T09:00:00	5	Humedad	58
6849	7	Sololá	701	Sololá	2	El tablón	12	Diciembre	2023-09-12T00:00:00	2024-11-08T09:00:00	6	Velocidad del viento	11.3
6850	7	Sololá	701	Sololá	2	El tablón	12	Diciembre	2023-09-12T00:00:00	2024-11-08T09:00:00	7	Dirección del viento	11.27
6851	7	Sololá	701	Sololá	2	El tablón	12	Diciembre	2023-09-12T00:00:00	2024-11-08T09:00:00	1	Precipitación	0
6852	7	Sololá	701	Sololá	2	El tablón	12	Diciembre	2023-09-12T00:00:00	2024-11-08T09:00:00	8	Radiación solar	401
6853	7	Sololá	701	Sololá	2	El tablón	12	Diciembre	2023-09-12T00:00:00	2024-11-08T10:00:00	2	Temperatura media	18.1
6854	7	Sololá	701	Sololá	2	El tablón	12	Diciembre	2023-09-12T00:00:00	2024-11-08T10:00:00	4	Temperatura máxima	18.4
6855	7	Sololá	701	Sololá	2	El tablón	12	Diciembre	2023-09-12T00:00:00	2024-11-08T10:00:00	3	Temperatura mínima	17.3
6856	7	Sololá	701	Sololá	2	El tablón	12	Diciembre	2023-09-12T00:00:00	2024-11-08T10:00:00	5	Humedad	56
6857	7	Sololá	701	Sololá	2	El tablón	12	Diciembre	2023-09-12T00:00:00	2024-11-08T10:00:00	6	Velocidad del viento	11.3
6858	7	Sololá	701	Sololá	2	El tablón	12	Diciembre	2023-09-12T00:00:00	2024-11-08T10:00:00	7	Dirección del viento	11.27
6859	7	Sololá	701	Sololá	2	El tablón	12	Diciembre	2023-09-12T00:00:00	2024-11-08T10:00:00	1	Precipitación	0
6860	7	Sololá	701	Sololá	2	El tablón	12	Diciembre	2023-09-12T00:00:00	2024-11-08T10:00:00	8	Radiación solar	557
6861	7	Sololá	701	Sololá	2	El tablón	12	Diciembre	2023-09-12T00:00:00	2024-11-08T11:00:00	2	Temperatura media	19.1
6862	7	Sololá	701	Sololá	2	El tablón	12	Diciembre	2023-09-12T00:00:00	2024-11-08T11:00:00	4	Temperatura máxima	19.1
6863	7	Sololá	701	Sololá	2	El tablón	12	Diciembre	2023-09-12T00:00:00	2024-11-08T11:00:00	3	Temperatura mínima	18.1
6864	7	Sololá	701	Sololá	2	El tablón	12	Diciembre	2023-09-12T00:00:00	2024-11-08T11:00:00	5	Humedad	51
6865	7	Sololá	701	Sololá	2	El tablón	12	Diciembre	2023-09-12T00:00:00	2024-11-08T11:00:00	6	Velocidad del viento	11.3
6866	7	Sololá	701	Sololá	2	El tablón	12	Diciembre	2023-09-12T00:00:00	2024-11-08T11:00:00	7	Dirección del viento	11.27
6867	7	Sololá	701	Sololá	2	El tablón	12	Diciembre	2023-09-12T00:00:00	2024-11-08T11:00:00	1	Precipitación	0
6868	7	Sololá	701	Sololá	2	El tablón	12	Diciembre	2023-09-12T00:00:00	2024-11-08T11:00:00	8	Radiación solar	697
6869	7	Sololá	701	Sololá	2	El tablón	12	Diciembre	2023-09-12T00:00:00	2024-11-08T12:00:00	2	Temperatura media	19.7
6870	7	Sololá	701	Sololá	2	El tablón	12	Diciembre	2023-09-12T00:00:00	2024-11-08T12:00:00	4	Temperatura máxima	19.8
6871	7	Sololá	701	Sololá	2	El tablón	12	Diciembre	2023-09-12T00:00:00	2024-11-08T12:00:00	3	Temperatura mínima	18.9
6872	7	Sololá	701	Sololá	2	El tablón	12	Diciembre	2023-09-12T00:00:00	2024-11-08T12:00:00	5	Humedad	51
6873	7	Sololá	701	Sololá	2	El tablón	12	Diciembre	2023-09-12T00:00:00	2024-11-08T12:00:00	6	Velocidad del viento	9.7
6874	7	Sololá	701	Sololá	2	El tablón	12	Diciembre	2023-09-12T00:00:00	2024-11-08T12:00:00	7	Dirección del viento	9.66
6875	7	Sololá	701	Sololá	2	El tablón	12	Diciembre	2023-09-12T00:00:00	2024-11-08T12:00:00	1	Precipitación	0
6876	7	Sololá	701	Sololá	2	El tablón	12	Diciembre	2023-09-12T00:00:00	2024-11-08T12:00:00	8	Radiación solar	668
6877	7	Sololá	701	Sololá	2	El tablón	12	Diciembre	2023-09-12T00:00:00	2024-11-08T13:00:00	2	Temperatura media	20.1
6878	7	Sololá	701	Sololá	2	El tablón	12	Diciembre	2023-09-12T00:00:00	2024-11-08T13:00:00	4	Temperatura máxima	20.3
6879	7	Sololá	701	Sololá	2	El tablón	12	Diciembre	2023-09-12T00:00:00	2024-11-08T13:00:00	3	Temperatura mínima	19.7
6880	7	Sololá	701	Sololá	2	El tablón	12	Diciembre	2023-09-12T00:00:00	2024-11-08T13:00:00	5	Humedad	42
6881	7	Sololá	701	Sololá	2	El tablón	12	Diciembre	2023-09-12T00:00:00	2024-11-08T13:00:00	6	Velocidad del viento	9.7
6882	7	Sololá	701	Sololá	2	El tablón	12	Diciembre	2023-09-12T00:00:00	2024-11-08T13:00:00	7	Dirección del viento	9.66
6883	7	Sololá	701	Sololá	2	El tablón	12	Diciembre	2023-09-12T00:00:00	2024-11-08T13:00:00	1	Precipitación	0
6884	7	Sololá	701	Sololá	2	El tablón	12	Diciembre	2023-09-12T00:00:00	2024-11-08T13:00:00	8	Radiación solar	737
6885	7	Sololá	701	Sololá	2	El tablón	12	Diciembre	2023-09-12T00:00:00	2024-11-08T14:00:00	2	Temperatura media	20.5
6886	7	Sololá	701	Sololá	2	El tablón	12	Diciembre	2023-09-12T00:00:00	2024-11-08T14:00:00	4	Temperatura máxima	20.6
6887	7	Sololá	701	Sololá	2	El tablón	12	Diciembre	2023-09-12T00:00:00	2024-11-08T14:00:00	3	Temperatura mínima	20.1
6888	7	Sololá	701	Sololá	2	El tablón	12	Diciembre	2023-09-12T00:00:00	2024-11-08T14:00:00	5	Humedad	41
6889	7	Sololá	701	Sololá	2	El tablón	12	Diciembre	2023-09-12T00:00:00	2024-11-08T14:00:00	6	Velocidad del viento	8
6890	7	Sololá	701	Sololá	2	El tablón	12	Diciembre	2023-09-12T00:00:00	2024-11-08T14:00:00	7	Dirección del viento	8.05
6891	7	Sololá	701	Sololá	2	El tablón	12	Diciembre	2023-09-12T00:00:00	2024-11-08T14:00:00	1	Precipitación	0
6892	7	Sololá	701	Sololá	2	El tablón	12	Diciembre	2023-09-12T00:00:00	2024-11-08T14:00:00	8	Radiación solar	703
6893	7	Sololá	701	Sololá	2	El tablón	12	Diciembre	2023-09-12T00:00:00	2024-11-08T15:00:00	2	Temperatura media	19.8
6894	7	Sololá	701	Sololá	2	El tablón	12	Diciembre	2023-09-12T00:00:00	2024-11-08T15:00:00	4	Temperatura máxima	20.6
6895	7	Sololá	701	Sololá	2	El tablón	12	Diciembre	2023-09-12T00:00:00	2024-11-08T15:00:00	3	Temperatura mínima	19.8
6896	7	Sololá	701	Sololá	2	El tablón	12	Diciembre	2023-09-12T00:00:00	2024-11-08T15:00:00	5	Humedad	37
6897	7	Sololá	701	Sololá	2	El tablón	12	Diciembre	2023-09-12T00:00:00	2024-11-08T15:00:00	6	Velocidad del viento	8
6898	7	Sololá	701	Sololá	2	El tablón	12	Diciembre	2023-09-12T00:00:00	2024-11-08T15:00:00	7	Dirección del viento	8.05
6899	7	Sololá	701	Sololá	2	El tablón	12	Diciembre	2023-09-12T00:00:00	2024-11-08T15:00:00	1	Precipitación	0
6900	7	Sololá	701	Sololá	2	El tablón	12	Diciembre	2023-09-12T00:00:00	2024-11-08T15:00:00	8	Radiación solar	560
6901	7	Sololá	701	Sololá	2	El tablón	12	Diciembre	2023-09-12T00:00:00	2024-11-08T16:00:00	2	Temperatura media	19.4
6902	7	Sololá	701	Sololá	2	El tablón	12	Diciembre	2023-09-12T00:00:00	2024-11-08T16:00:00	4	Temperatura máxima	19.8
6903	7	Sololá	701	Sololá	2	El tablón	12	Diciembre	2023-09-12T00:00:00	2024-11-08T16:00:00	3	Temperatura mínima	19.3
6904	7	Sololá	701	Sololá	2	El tablón	12	Diciembre	2023-09-12T00:00:00	2024-11-08T16:00:00	5	Humedad	33
6905	7	Sololá	701	Sololá	2	El tablón	12	Diciembre	2023-09-12T00:00:00	2024-11-08T16:00:00	6	Velocidad del viento	8
6906	7	Sololá	701	Sololá	2	El tablón	12	Diciembre	2023-09-12T00:00:00	2024-11-08T16:00:00	7	Dirección del viento	8.05
6907	7	Sololá	701	Sololá	2	El tablón	12	Diciembre	2023-09-12T00:00:00	2024-11-08T16:00:00	1	Precipitación	0
6908	7	Sololá	701	Sololá	2	El tablón	12	Diciembre	2023-09-12T00:00:00	2024-11-08T16:00:00	8	Radiación solar	403
6909	7	Sololá	701	Sololá	2	El tablón	12	Diciembre	2023-09-12T00:00:00	2024-11-08T17:00:00	2	Temperatura media	17.3
6910	7	Sololá	701	Sololá	2	El tablón	12	Diciembre	2023-09-12T00:00:00	2024-11-08T17:00:00	4	Temperatura máxima	19.5
6911	7	Sololá	701	Sololá	2	El tablón	12	Diciembre	2023-09-12T00:00:00	2024-11-08T17:00:00	3	Temperatura mínima	17.3
6912	7	Sololá	701	Sololá	2	El tablón	12	Diciembre	2023-09-12T00:00:00	2024-11-08T17:00:00	5	Humedad	44
6913	7	Sololá	701	Sololá	2	El tablón	12	Diciembre	2023-09-12T00:00:00	2024-11-08T17:00:00	6	Velocidad del viento	8
6914	7	Sololá	701	Sololá	2	El tablón	12	Diciembre	2023-09-12T00:00:00	2024-11-08T17:00:00	7	Dirección del viento	8.05
6915	7	Sololá	701	Sololá	2	El tablón	12	Diciembre	2023-09-12T00:00:00	2024-11-08T17:00:00	1	Precipitación	0
6916	7	Sololá	701	Sololá	2	El tablón	12	Diciembre	2023-09-12T00:00:00	2024-11-08T17:00:00	8	Radiación solar	178
6917	7	Sololá	701	Sololá	2	El tablón	12	Diciembre	2023-09-12T00:00:00	2024-11-08T18:00:00	2	Temperatura media	15.4
6918	7	Sololá	701	Sololá	2	El tablón	12	Diciembre	2023-09-12T00:00:00	2024-11-08T18:00:00	4	Temperatura máxima	17.3
6919	7	Sololá	701	Sololá	2	El tablón	12	Diciembre	2023-09-12T00:00:00	2024-11-08T18:00:00	3	Temperatura mínima	15.4
6920	7	Sololá	701	Sololá	2	El tablón	12	Diciembre	2023-09-12T00:00:00	2024-11-08T18:00:00	5	Humedad	67
6921	7	Sololá	701	Sololá	2	El tablón	12	Diciembre	2023-09-12T00:00:00	2024-11-08T18:00:00	6	Velocidad del viento	3.2
6922	7	Sololá	701	Sololá	2	El tablón	12	Diciembre	2023-09-12T00:00:00	2024-11-08T18:00:00	7	Dirección del viento	3.22
6923	7	Sololá	701	Sololá	2	El tablón	12	Diciembre	2023-09-12T00:00:00	2024-11-08T18:00:00	1	Precipitación	0
6924	7	Sololá	701	Sololá	2	El tablón	12	Diciembre	2023-09-12T00:00:00	2024-11-08T18:00:00	8	Radiación solar	17
6925	7	Sololá	701	Sololá	2	El tablón	12	Diciembre	2023-09-12T00:00:00	2024-11-08T19:00:00	2	Temperatura media	14.2
6926	7	Sololá	701	Sololá	2	El tablón	12	Diciembre	2023-09-12T00:00:00	2024-11-08T19:00:00	4	Temperatura máxima	15.3
6927	7	Sololá	701	Sololá	2	El tablón	12	Diciembre	2023-09-12T00:00:00	2024-11-08T19:00:00	3	Temperatura mínima	13.9
6928	7	Sololá	701	Sololá	2	El tablón	12	Diciembre	2023-09-12T00:00:00	2024-11-08T19:00:00	5	Humedad	82
6929	7	Sololá	701	Sololá	2	El tablón	12	Diciembre	2023-09-12T00:00:00	2024-11-08T19:00:00	6	Velocidad del viento	3.2
6930	7	Sololá	701	Sololá	2	El tablón	12	Diciembre	2023-09-12T00:00:00	2024-11-08T19:00:00	7	Dirección del viento	3.22
6931	7	Sololá	701	Sololá	2	El tablón	12	Diciembre	2023-09-12T00:00:00	2024-11-08T19:00:00	1	Precipitación	0
6932	7	Sololá	701	Sololá	2	El tablón	12	Diciembre	2023-09-12T00:00:00	2024-11-08T19:00:00	8	Radiación solar	0
6933	7	Sololá	701	Sololá	2	El tablón	12	Diciembre	2023-09-12T00:00:00	2024-11-08T20:00:00	2	Temperatura media	13.5
6934	7	Sololá	701	Sololá	2	El tablón	12	Diciembre	2023-09-12T00:00:00	2024-11-08T20:00:00	4	Temperatura máxima	14.2
6935	7	Sololá	701	Sololá	2	El tablón	12	Diciembre	2023-09-12T00:00:00	2024-11-08T20:00:00	3	Temperatura mínima	13.4
6936	7	Sololá	701	Sololá	2	El tablón	12	Diciembre	2023-09-12T00:00:00	2024-11-08T20:00:00	5	Humedad	87
6937	7	Sololá	701	Sololá	2	El tablón	12	Diciembre	2023-09-12T00:00:00	2024-11-08T20:00:00	6	Velocidad del viento	9.7
6938	7	Sololá	701	Sololá	2	El tablón	12	Diciembre	2023-09-12T00:00:00	2024-11-08T20:00:00	7	Dirección del viento	9.66
6939	7	Sololá	701	Sololá	2	El tablón	12	Diciembre	2023-09-12T00:00:00	2024-11-08T20:00:00	1	Precipitación	0
6940	7	Sololá	701	Sololá	2	El tablón	12	Diciembre	2023-09-12T00:00:00	2024-11-08T20:00:00	8	Radiación solar	0
6941	7	Sololá	701	Sololá	2	El tablón	12	Diciembre	2023-09-12T00:00:00	2024-11-08T21:00:00	2	Temperatura media	12.9
6942	7	Sololá	701	Sololá	2	El tablón	12	Diciembre	2023-09-12T00:00:00	2024-11-08T21:00:00	4	Temperatura máxima	13.5
6943	7	Sololá	701	Sololá	2	El tablón	12	Diciembre	2023-09-12T00:00:00	2024-11-08T21:00:00	3	Temperatura mínima	12.9
6944	7	Sololá	701	Sololá	2	El tablón	12	Diciembre	2023-09-12T00:00:00	2024-11-08T21:00:00	5	Humedad	86
6945	7	Sololá	701	Sololá	2	El tablón	12	Diciembre	2023-09-12T00:00:00	2024-11-08T21:00:00	6	Velocidad del viento	8
6946	7	Sololá	701	Sololá	2	El tablón	12	Diciembre	2023-09-12T00:00:00	2024-11-08T21:00:00	7	Dirección del viento	8.05
6947	7	Sololá	701	Sololá	2	El tablón	12	Diciembre	2023-09-12T00:00:00	2024-11-08T21:00:00	1	Precipitación	0
6948	7	Sololá	701	Sololá	2	El tablón	12	Diciembre	2023-09-12T00:00:00	2024-11-08T21:00:00	8	Radiación solar	0
6949	7	Sololá	701	Sololá	2	El tablón	12	Diciembre	2023-09-12T00:00:00	2024-11-08T22:00:00	2	Temperatura media	12.4
6950	7	Sololá	701	Sololá	2	El tablón	12	Diciembre	2023-09-12T00:00:00	2024-11-08T22:00:00	4	Temperatura máxima	13.2
6951	7	Sololá	701	Sololá	2	El tablón	12	Diciembre	2023-09-12T00:00:00	2024-11-08T22:00:00	3	Temperatura mínima	12.4
6952	7	Sololá	701	Sololá	2	El tablón	12	Diciembre	2023-09-12T00:00:00	2024-11-08T22:00:00	5	Humedad	86
6953	7	Sololá	701	Sololá	2	El tablón	12	Diciembre	2023-09-12T00:00:00	2024-11-08T22:00:00	6	Velocidad del viento	6.4
6954	7	Sololá	701	Sololá	2	El tablón	12	Diciembre	2023-09-12T00:00:00	2024-11-08T22:00:00	7	Dirección del viento	6.44
6955	7	Sololá	701	Sololá	2	El tablón	12	Diciembre	2023-09-12T00:00:00	2024-11-08T22:00:00	1	Precipitación	0
6956	7	Sololá	701	Sololá	2	El tablón	12	Diciembre	2023-09-12T00:00:00	2024-11-08T22:00:00	8	Radiación solar	0
6957	7	Sololá	701	Sololá	2	El tablón	12	Diciembre	2023-09-12T00:00:00	2024-11-08T23:00:00	2	Temperatura media	11.9
6958	7	Sololá	701	Sololá	2	El tablón	12	Diciembre	2023-09-12T00:00:00	2024-11-08T23:00:00	4	Temperatura máxima	12.4
6959	7	Sololá	701	Sololá	2	El tablón	12	Diciembre	2023-09-12T00:00:00	2024-11-08T23:00:00	3	Temperatura mínima	11.9
6960	7	Sololá	701	Sololá	2	El tablón	12	Diciembre	2023-09-12T00:00:00	2024-11-08T23:00:00	5	Humedad	85
6961	7	Sololá	701	Sololá	2	El tablón	12	Diciembre	2023-09-12T00:00:00	2024-11-08T23:00:00	6	Velocidad del viento	6.4
6962	7	Sololá	701	Sololá	2	El tablón	12	Diciembre	2023-09-12T00:00:00	2024-11-08T23:00:00	7	Dirección del viento	6.44
6963	7	Sololá	701	Sololá	2	El tablón	12	Diciembre	2023-09-12T00:00:00	2024-11-08T23:00:00	1	Precipitación	0
6964	7	Sololá	701	Sololá	2	El tablón	12	Diciembre	2023-09-12T00:00:00	2024-11-08T23:00:00	8	Radiación solar	0
6965	7	Sololá	701	Sololá	2	El tablón	12	Diciembre	2023-10-12T00:00:00	2024-11-08T00:00:00	2	Temperatura media	11.1
6966	7	Sololá	701	Sololá	2	El tablón	12	Diciembre	2023-10-12T00:00:00	2024-11-08T00:00:00	4	Temperatura máxima	11.9
6967	7	Sololá	701	Sololá	2	El tablón	12	Diciembre	2023-10-12T00:00:00	2024-11-08T00:00:00	3	Temperatura mínima	11.1
6968	7	Sololá	701	Sololá	2	El tablón	12	Diciembre	2023-10-12T00:00:00	2024-11-08T00:00:00	5	Humedad	85
6969	7	Sololá	701	Sololá	2	El tablón	12	Diciembre	2023-10-12T00:00:00	2024-11-08T00:00:00	6	Velocidad del viento	3.2
6970	7	Sololá	701	Sololá	2	El tablón	12	Diciembre	2023-10-12T00:00:00	2024-11-08T00:00:00	7	Dirección del viento	3.22
6971	7	Sololá	701	Sololá	2	El tablón	12	Diciembre	2023-10-12T00:00:00	2024-11-08T00:00:00	1	Precipitación	0
6972	7	Sololá	701	Sololá	2	El tablón	12	Diciembre	2023-10-12T00:00:00	2024-11-08T00:00:00	8	Radiación solar	0
6973	7	Sololá	701	Sololá	2	El tablón	12	Diciembre	2023-10-12T00:00:00	2024-11-08T01:00:00	2	Temperatura media	10.6
6974	7	Sololá	701	Sololá	2	El tablón	12	Diciembre	2023-10-12T00:00:00	2024-11-08T01:00:00	4	Temperatura máxima	11.1
6975	7	Sololá	701	Sololá	2	El tablón	12	Diciembre	2023-10-12T00:00:00	2024-11-08T01:00:00	3	Temperatura mínima	10.2
6976	7	Sololá	701	Sololá	2	El tablón	12	Diciembre	2023-10-12T00:00:00	2024-11-08T01:00:00	5	Humedad	87
6977	7	Sololá	701	Sololá	2	El tablón	12	Diciembre	2023-10-12T00:00:00	2024-11-08T01:00:00	6	Velocidad del viento	6.4
6978	7	Sololá	701	Sololá	2	El tablón	12	Diciembre	2023-10-12T00:00:00	2024-11-08T01:00:00	7	Dirección del viento	6.44
6979	7	Sololá	701	Sololá	2	El tablón	12	Diciembre	2023-10-12T00:00:00	2024-11-08T01:00:00	1	Precipitación	0
6980	7	Sololá	701	Sololá	2	El tablón	12	Diciembre	2023-10-12T00:00:00	2024-11-08T01:00:00	8	Radiación solar	0
6981	7	Sololá	701	Sololá	2	El tablón	12	Diciembre	2023-10-12T00:00:00	2024-11-08T02:00:00	2	Temperatura media	10.6
6982	7	Sololá	701	Sololá	2	El tablón	12	Diciembre	2023-10-12T00:00:00	2024-11-08T02:00:00	4	Temperatura máxima	10.7
6983	7	Sololá	701	Sololá	2	El tablón	12	Diciembre	2023-10-12T00:00:00	2024-11-08T02:00:00	3	Temperatura mínima	10.5
6984	7	Sololá	701	Sololá	2	El tablón	12	Diciembre	2023-10-12T00:00:00	2024-11-08T02:00:00	5	Humedad	84
6985	7	Sololá	701	Sololá	2	El tablón	12	Diciembre	2023-10-12T00:00:00	2024-11-08T02:00:00	6	Velocidad del viento	8
6986	7	Sololá	701	Sololá	2	El tablón	12	Diciembre	2023-10-12T00:00:00	2024-11-08T02:00:00	7	Dirección del viento	8.05
6987	7	Sololá	701	Sololá	2	El tablón	12	Diciembre	2023-10-12T00:00:00	2024-11-08T02:00:00	1	Precipitación	0
6988	7	Sololá	701	Sololá	2	El tablón	12	Diciembre	2023-10-12T00:00:00	2024-11-08T02:00:00	8	Radiación solar	0
6989	7	Sololá	701	Sololá	2	El tablón	12	Diciembre	2023-10-12T00:00:00	2024-11-08T03:00:00	2	Temperatura media	10.2
6990	7	Sololá	701	Sololá	2	El tablón	12	Diciembre	2023-10-12T00:00:00	2024-11-08T03:00:00	4	Temperatura máxima	10.6
6991	7	Sololá	701	Sololá	2	El tablón	12	Diciembre	2023-10-12T00:00:00	2024-11-08T03:00:00	3	Temperatura mínima	10.2
6992	7	Sololá	701	Sololá	2	El tablón	12	Diciembre	2023-10-12T00:00:00	2024-11-08T03:00:00	5	Humedad	84
6993	7	Sololá	701	Sololá	2	El tablón	12	Diciembre	2023-10-12T00:00:00	2024-11-08T03:00:00	6	Velocidad del viento	6.4
6994	7	Sololá	701	Sololá	2	El tablón	12	Diciembre	2023-10-12T00:00:00	2024-11-08T03:00:00	7	Dirección del viento	6.44
6995	7	Sololá	701	Sololá	2	El tablón	12	Diciembre	2023-10-12T00:00:00	2024-11-08T03:00:00	1	Precipitación	0
6996	7	Sololá	701	Sololá	2	El tablón	12	Diciembre	2023-10-12T00:00:00	2024-11-08T03:00:00	8	Radiación solar	0
6997	7	Sololá	701	Sololá	2	El tablón	12	Diciembre	2023-10-12T00:00:00	2024-11-08T04:00:00	2	Temperatura media	9.8
6998	7	Sololá	701	Sololá	2	El tablón	12	Diciembre	2023-10-12T00:00:00	2024-11-08T04:00:00	4	Temperatura máxima	10.2
6999	7	Sololá	701	Sololá	2	El tablón	12	Diciembre	2023-10-12T00:00:00	2024-11-08T04:00:00	3	Temperatura mínima	9.8
7000	7	Sololá	701	Sololá	2	El tablón	12	Diciembre	2023-10-12T00:00:00	2024-11-08T04:00:00	5	Humedad	82
7001	7	Sololá	701	Sololá	2	El tablón	12	Diciembre	2023-10-12T00:00:00	2024-11-08T04:00:00	6	Velocidad del viento	8
7002	7	Sololá	701	Sololá	2	El tablón	12	Diciembre	2023-10-12T00:00:00	2024-11-08T04:00:00	7	Dirección del viento	8.05
7003	7	Sololá	701	Sololá	2	El tablón	12	Diciembre	2023-10-12T00:00:00	2024-11-08T04:00:00	1	Precipitación	0
7004	7	Sololá	701	Sololá	2	El tablón	12	Diciembre	2023-10-12T00:00:00	2024-11-08T04:00:00	8	Radiación solar	0
7005	7	Sololá	701	Sololá	2	El tablón	12	Diciembre	2023-10-12T00:00:00	2024-11-08T05:00:00	2	Temperatura media	9.7
7006	7	Sololá	701	Sololá	2	El tablón	12	Diciembre	2023-10-12T00:00:00	2024-11-08T05:00:00	4	Temperatura máxima	9.9
7007	7	Sololá	701	Sololá	2	El tablón	12	Diciembre	2023-10-12T00:00:00	2024-11-08T05:00:00	3	Temperatura mínima	9.6
7008	7	Sololá	701	Sololá	2	El tablón	12	Diciembre	2023-10-12T00:00:00	2024-11-08T05:00:00	5	Humedad	82
7009	7	Sololá	701	Sololá	2	El tablón	12	Diciembre	2023-10-12T00:00:00	2024-11-08T05:00:00	6	Velocidad del viento	8
7010	7	Sololá	701	Sololá	2	El tablón	12	Diciembre	2023-10-12T00:00:00	2024-11-08T05:00:00	7	Dirección del viento	8.05
7011	7	Sololá	701	Sololá	2	El tablón	12	Diciembre	2023-10-12T00:00:00	2024-11-08T05:00:00	1	Precipitación	0
7012	7	Sololá	701	Sololá	2	El tablón	12	Diciembre	2023-10-12T00:00:00	2024-11-08T05:00:00	8	Radiación solar	0
7013	7	Sololá	701	Sololá	2	El tablón	12	Diciembre	2023-10-12T00:00:00	2024-11-08T06:00:00	2	Temperatura media	10.4
7014	7	Sololá	701	Sololá	2	El tablón	12	Diciembre	2023-10-12T00:00:00	2024-11-08T06:00:00	4	Temperatura máxima	10.4
7015	7	Sololá	701	Sololá	2	El tablón	12	Diciembre	2023-10-12T00:00:00	2024-11-08T06:00:00	3	Temperatura mínima	9.6
7016	7	Sololá	701	Sololá	2	El tablón	12	Diciembre	2023-10-12T00:00:00	2024-11-08T06:00:00	5	Humedad	78
7017	7	Sololá	701	Sololá	2	El tablón	12	Diciembre	2023-10-12T00:00:00	2024-11-08T06:00:00	6	Velocidad del viento	8
7018	7	Sololá	701	Sololá	2	El tablón	12	Diciembre	2023-10-12T00:00:00	2024-11-08T06:00:00	7	Dirección del viento	8.05
7019	7	Sololá	701	Sololá	2	El tablón	12	Diciembre	2023-10-12T00:00:00	2024-11-08T06:00:00	1	Precipitación	0
7020	7	Sololá	701	Sololá	2	El tablón	12	Diciembre	2023-10-12T00:00:00	2024-11-08T06:00:00	8	Radiación solar	0
7021	7	Sololá	701	Sololá	2	El tablón	12	Diciembre	2023-10-12T00:00:00	2024-11-08T07:00:00	2	Temperatura media	12.4
7022	7	Sololá	701	Sololá	2	El tablón	12	Diciembre	2023-10-12T00:00:00	2024-11-08T07:00:00	4	Temperatura máxima	12.4
7023	7	Sololá	701	Sololá	2	El tablón	12	Diciembre	2023-10-12T00:00:00	2024-11-08T07:00:00	3	Temperatura mínima	10.4
7024	7	Sololá	701	Sololá	2	El tablón	12	Diciembre	2023-10-12T00:00:00	2024-11-08T07:00:00	5	Humedad	77
7025	7	Sololá	701	Sololá	2	El tablón	12	Diciembre	2023-10-12T00:00:00	2024-11-08T07:00:00	6	Velocidad del viento	6.4
7026	7	Sololá	701	Sololá	2	El tablón	12	Diciembre	2023-10-12T00:00:00	2024-11-08T07:00:00	7	Dirección del viento	6.44
7027	7	Sololá	701	Sololá	2	El tablón	12	Diciembre	2023-10-12T00:00:00	2024-11-08T07:00:00	1	Precipitación	0
7028	7	Sololá	701	Sololá	2	El tablón	12	Diciembre	2023-10-12T00:00:00	2024-11-08T07:00:00	8	Radiación solar	16
7029	7	Sololá	701	Sololá	2	El tablón	12	Diciembre	2023-10-12T00:00:00	2024-11-08T08:00:00	2	Temperatura media	14.4
7030	7	Sololá	701	Sololá	2	El tablón	12	Diciembre	2023-10-12T00:00:00	2024-11-08T08:00:00	4	Temperatura máxima	14.4
7031	7	Sololá	701	Sololá	2	El tablón	12	Diciembre	2023-10-12T00:00:00	2024-11-08T08:00:00	3	Temperatura mínima	12.4
7032	7	Sololá	701	Sololá	2	El tablón	12	Diciembre	2023-10-12T00:00:00	2024-11-08T08:00:00	5	Humedad	75
7033	7	Sololá	701	Sololá	2	El tablón	12	Diciembre	2023-10-12T00:00:00	2024-11-08T08:00:00	6	Velocidad del viento	6.4
7034	7	Sololá	701	Sololá	2	El tablón	12	Diciembre	2023-10-12T00:00:00	2024-11-08T08:00:00	7	Dirección del viento	6.44
7035	7	Sololá	701	Sololá	2	El tablón	12	Diciembre	2023-10-12T00:00:00	2024-11-08T08:00:00	1	Precipitación	0
7036	7	Sololá	701	Sololá	2	El tablón	12	Diciembre	2023-10-12T00:00:00	2024-11-08T08:00:00	8	Radiación solar	164
7037	7	Sololá	701	Sololá	2	El tablón	12	Diciembre	2023-10-12T00:00:00	2024-11-08T09:00:00	2	Temperatura media	17.2
7038	7	Sololá	701	Sololá	2	El tablón	12	Diciembre	2023-10-12T00:00:00	2024-11-08T09:00:00	4	Temperatura máxima	17.2
7039	7	Sololá	701	Sololá	2	El tablón	12	Diciembre	2023-10-12T00:00:00	2024-11-08T09:00:00	3	Temperatura mínima	14.4
7040	7	Sololá	701	Sololá	2	El tablón	12	Diciembre	2023-10-12T00:00:00	2024-11-08T09:00:00	5	Humedad	63
7041	7	Sololá	701	Sololá	2	El tablón	12	Diciembre	2023-10-12T00:00:00	2024-11-08T09:00:00	6	Velocidad del viento	6.4
7042	7	Sololá	701	Sololá	2	El tablón	12	Diciembre	2023-10-12T00:00:00	2024-11-08T09:00:00	7	Dirección del viento	6.44
7043	7	Sololá	701	Sololá	2	El tablón	12	Diciembre	2023-10-12T00:00:00	2024-11-08T09:00:00	1	Precipitación	0
7044	7	Sololá	701	Sololá	2	El tablón	12	Diciembre	2023-10-12T00:00:00	2024-11-08T09:00:00	8	Radiación solar	388
7045	7	Sololá	701	Sololá	2	El tablón	12	Diciembre	2023-10-12T00:00:00	2024-11-08T10:00:00	2	Temperatura media	18.3
7046	7	Sololá	701	Sololá	2	El tablón	12	Diciembre	2023-10-12T00:00:00	2024-11-08T10:00:00	4	Temperatura máxima	18.4
7047	7	Sololá	701	Sololá	2	El tablón	12	Diciembre	2023-10-12T00:00:00	2024-11-08T10:00:00	3	Temperatura mínima	17.2
7048	7	Sololá	701	Sololá	2	El tablón	12	Diciembre	2023-10-12T00:00:00	2024-11-08T10:00:00	5	Humedad	61
7049	7	Sololá	701	Sololá	2	El tablón	12	Diciembre	2023-10-12T00:00:00	2024-11-08T10:00:00	6	Velocidad del viento	6.4
7050	7	Sololá	701	Sololá	2	El tablón	12	Diciembre	2023-10-12T00:00:00	2024-11-08T10:00:00	7	Dirección del viento	6.44
7051	7	Sololá	701	Sololá	2	El tablón	12	Diciembre	2023-10-12T00:00:00	2024-11-08T10:00:00	1	Precipitación	0
7052	7	Sololá	701	Sololá	2	El tablón	12	Diciembre	2023-10-12T00:00:00	2024-11-08T10:00:00	8	Radiación solar	573
7053	7	Sololá	701	Sololá	2	El tablón	12	Diciembre	2023-10-12T00:00:00	2024-11-08T11:00:00	2	Temperatura media	19.3
7054	7	Sololá	701	Sololá	2	El tablón	12	Diciembre	2023-10-12T00:00:00	2024-11-08T11:00:00	4	Temperatura máxima	19.4
7055	7	Sololá	701	Sololá	2	El tablón	12	Diciembre	2023-10-12T00:00:00	2024-11-08T11:00:00	3	Temperatura mínima	18.3
7056	7	Sololá	701	Sololá	2	El tablón	12	Diciembre	2023-10-12T00:00:00	2024-11-08T11:00:00	5	Humedad	51
7057	7	Sololá	701	Sololá	2	El tablón	12	Diciembre	2023-10-12T00:00:00	2024-11-08T11:00:00	6	Velocidad del viento	8
7058	7	Sololá	701	Sololá	2	El tablón	12	Diciembre	2023-10-12T00:00:00	2024-11-08T11:00:00	7	Dirección del viento	8.05
7059	7	Sololá	701	Sololá	2	El tablón	12	Diciembre	2023-10-12T00:00:00	2024-11-08T11:00:00	1	Precipitación	0
7060	7	Sololá	701	Sololá	2	El tablón	12	Diciembre	2023-10-12T00:00:00	2024-11-08T11:00:00	8	Radiación solar	697
7061	7	Sololá	701	Sololá	2	El tablón	12	Diciembre	2023-10-12T00:00:00	2024-11-08T12:00:00	2	Temperatura media	19.7
7062	7	Sololá	701	Sololá	2	El tablón	12	Diciembre	2023-10-12T00:00:00	2024-11-08T12:00:00	4	Temperatura máxima	20.2
7063	7	Sololá	701	Sololá	2	El tablón	12	Diciembre	2023-10-12T00:00:00	2024-11-08T12:00:00	3	Temperatura mínima	19.3
7064	7	Sololá	701	Sololá	2	El tablón	12	Diciembre	2023-10-12T00:00:00	2024-11-08T12:00:00	5	Humedad	53
7065	7	Sololá	701	Sololá	2	El tablón	12	Diciembre	2023-10-12T00:00:00	2024-11-08T12:00:00	6	Velocidad del viento	6.4
7066	7	Sololá	701	Sololá	2	El tablón	12	Diciembre	2023-10-12T00:00:00	2024-11-08T12:00:00	7	Dirección del viento	6.44
7067	7	Sololá	701	Sololá	2	El tablón	12	Diciembre	2023-10-12T00:00:00	2024-11-08T12:00:00	1	Precipitación	0
7068	7	Sololá	701	Sololá	2	El tablón	12	Diciembre	2023-10-12T00:00:00	2024-11-08T12:00:00	8	Radiación solar	658
7069	7	Sololá	701	Sololá	2	El tablón	12	Diciembre	2023-10-12T00:00:00	2024-11-08T13:00:00	2	Temperatura media	19.9
7070	7	Sololá	701	Sololá	2	El tablón	12	Diciembre	2023-10-12T00:00:00	2024-11-08T13:00:00	4	Temperatura máxima	19.9
7071	7	Sololá	701	Sololá	2	El tablón	12	Diciembre	2023-10-12T00:00:00	2024-11-08T13:00:00	3	Temperatura mínima	18.7
7072	7	Sololá	701	Sololá	2	El tablón	12	Diciembre	2023-10-12T00:00:00	2024-11-08T13:00:00	5	Humedad	65
7073	7	Sololá	701	Sololá	2	El tablón	12	Diciembre	2023-10-12T00:00:00	2024-11-08T13:00:00	6	Velocidad del viento	6.4
7074	7	Sololá	701	Sololá	2	El tablón	12	Diciembre	2023-10-12T00:00:00	2024-11-08T13:00:00	7	Dirección del viento	6.44
7075	7	Sololá	701	Sololá	2	El tablón	12	Diciembre	2023-10-12T00:00:00	2024-11-08T13:00:00	1	Precipitación	0
7076	7	Sololá	701	Sololá	2	El tablón	12	Diciembre	2023-10-12T00:00:00	2024-11-08T13:00:00	8	Radiación solar	499
7077	7	Sololá	701	Sololá	2	El tablón	12	Diciembre	2023-10-12T00:00:00	2024-11-08T14:00:00	2	Temperatura media	19.4
7078	7	Sololá	701	Sololá	2	El tablón	12	Diciembre	2023-10-12T00:00:00	2024-11-08T14:00:00	4	Temperatura máxima	20.1
7079	7	Sololá	701	Sololá	2	El tablón	12	Diciembre	2023-10-12T00:00:00	2024-11-08T14:00:00	3	Temperatura mínima	19.4
7080	7	Sololá	701	Sololá	2	El tablón	12	Diciembre	2023-10-12T00:00:00	2024-11-08T14:00:00	5	Humedad	70
7081	7	Sololá	701	Sololá	2	El tablón	12	Diciembre	2023-10-12T00:00:00	2024-11-08T14:00:00	6	Velocidad del viento	6.4
7082	7	Sololá	701	Sololá	2	El tablón	12	Diciembre	2023-10-12T00:00:00	2024-11-08T14:00:00	7	Dirección del viento	6.44
7083	7	Sololá	701	Sololá	2	El tablón	12	Diciembre	2023-10-12T00:00:00	2024-11-08T14:00:00	1	Precipitación	0
7084	7	Sololá	701	Sololá	2	El tablón	12	Diciembre	2023-10-12T00:00:00	2024-11-08T14:00:00	8	Radiación solar	597
7085	7	Sololá	701	Sololá	2	El tablón	12	Diciembre	2023-10-12T00:00:00	2024-11-08T15:00:00	2	Temperatura media	18.4
7086	7	Sololá	701	Sololá	2	El tablón	12	Diciembre	2023-10-12T00:00:00	2024-11-08T15:00:00	4	Temperatura máxima	19.3
7087	7	Sololá	701	Sololá	2	El tablón	12	Diciembre	2023-10-12T00:00:00	2024-11-08T15:00:00	3	Temperatura mínima	17.7
7088	7	Sololá	701	Sololá	2	El tablón	12	Diciembre	2023-10-12T00:00:00	2024-11-08T15:00:00	5	Humedad	78
7089	7	Sololá	701	Sololá	2	El tablón	12	Diciembre	2023-10-12T00:00:00	2024-11-08T15:00:00	6	Velocidad del viento	3.2
7090	7	Sololá	701	Sololá	2	El tablón	12	Diciembre	2023-10-12T00:00:00	2024-11-08T15:00:00	7	Dirección del viento	3.22
7091	7	Sololá	701	Sololá	2	El tablón	12	Diciembre	2023-10-12T00:00:00	2024-11-08T15:00:00	1	Precipitación	0
7092	7	Sololá	701	Sololá	2	El tablón	12	Diciembre	2023-10-12T00:00:00	2024-11-08T15:00:00	8	Radiación solar	177
7093	7	Sololá	701	Sololá	2	El tablón	12	Diciembre	2023-10-12T00:00:00	2024-11-08T16:00:00	2	Temperatura media	18.3
7094	7	Sololá	701	Sololá	2	El tablón	12	Diciembre	2023-10-12T00:00:00	2024-11-08T16:00:00	4	Temperatura máxima	18.7
7095	7	Sololá	701	Sololá	2	El tablón	12	Diciembre	2023-10-12T00:00:00	2024-11-08T16:00:00	3	Temperatura mínima	18.3
7096	7	Sololá	701	Sololá	2	El tablón	12	Diciembre	2023-10-12T00:00:00	2024-11-08T16:00:00	5	Humedad	66
7097	7	Sololá	701	Sololá	2	El tablón	12	Diciembre	2023-10-12T00:00:00	2024-11-08T16:00:00	6	Velocidad del viento	8
7098	7	Sololá	701	Sololá	2	El tablón	12	Diciembre	2023-10-12T00:00:00	2024-11-08T16:00:00	7	Dirección del viento	8.05
7099	7	Sololá	701	Sololá	2	El tablón	12	Diciembre	2023-10-12T00:00:00	2024-11-08T16:00:00	1	Precipitación	0
7100	7	Sololá	701	Sololá	2	El tablón	12	Diciembre	2023-10-12T00:00:00	2024-11-08T16:00:00	8	Radiación solar	362
7101	7	Sololá	701	Sololá	2	El tablón	12	Diciembre	2023-10-12T00:00:00	2024-11-08T17:00:00	2	Temperatura media	16.2
7102	7	Sololá	701	Sololá	2	El tablón	12	Diciembre	2023-10-12T00:00:00	2024-11-08T17:00:00	4	Temperatura máxima	18.3
7103	7	Sololá	701	Sololá	2	El tablón	12	Diciembre	2023-10-12T00:00:00	2024-11-08T17:00:00	3	Temperatura mínima	16.2
7104	7	Sololá	701	Sololá	2	El tablón	12	Diciembre	2023-10-12T00:00:00	2024-11-08T17:00:00	5	Humedad	78
7105	7	Sololá	701	Sololá	2	El tablón	12	Diciembre	2023-10-12T00:00:00	2024-11-08T17:00:00	6	Velocidad del viento	9.7
7106	7	Sololá	701	Sololá	2	El tablón	12	Diciembre	2023-10-12T00:00:00	2024-11-08T17:00:00	7	Dirección del viento	9.66
7107	7	Sololá	701	Sololá	2	El tablón	12	Diciembre	2023-10-12T00:00:00	2024-11-08T17:00:00	1	Precipitación	0
7108	7	Sololá	701	Sololá	2	El tablón	12	Diciembre	2023-10-12T00:00:00	2024-11-08T17:00:00	8	Radiación solar	170
7109	7	Sololá	701	Sololá	2	El tablón	12	Diciembre	2023-10-12T00:00:00	2024-11-08T18:00:00	2	Temperatura media	14.6
7110	7	Sololá	701	Sololá	2	El tablón	12	Diciembre	2023-10-12T00:00:00	2024-11-08T18:00:00	4	Temperatura máxima	16.2
7111	7	Sololá	701	Sololá	2	El tablón	12	Diciembre	2023-10-12T00:00:00	2024-11-08T18:00:00	3	Temperatura mínima	14.6
7112	7	Sololá	701	Sololá	2	El tablón	12	Diciembre	2023-10-12T00:00:00	2024-11-08T18:00:00	5	Humedad	85
7113	7	Sololá	701	Sololá	2	El tablón	12	Diciembre	2023-10-12T00:00:00	2024-11-08T18:00:00	6	Velocidad del viento	8
7114	7	Sololá	701	Sololá	2	El tablón	12	Diciembre	2023-10-12T00:00:00	2024-11-08T18:00:00	7	Dirección del viento	8.05
7115	7	Sololá	701	Sololá	2	El tablón	12	Diciembre	2023-10-12T00:00:00	2024-11-08T18:00:00	1	Precipitación	0
7116	7	Sololá	701	Sololá	2	El tablón	12	Diciembre	2023-10-12T00:00:00	2024-11-08T18:00:00	8	Radiación solar	10
7117	7	Sololá	701	Sololá	2	El tablón	12	Diciembre	2023-10-12T00:00:00	2024-11-08T19:00:00	2	Temperatura media	14.1
7118	7	Sololá	701	Sololá	2	El tablón	12	Diciembre	2023-10-12T00:00:00	2024-11-08T19:00:00	4	Temperatura máxima	14.6
7119	7	Sololá	701	Sololá	2	El tablón	12	Diciembre	2023-10-12T00:00:00	2024-11-08T19:00:00	3	Temperatura mínima	14.1
7120	7	Sololá	701	Sololá	2	El tablón	12	Diciembre	2023-10-12T00:00:00	2024-11-08T19:00:00	5	Humedad	86
7121	7	Sololá	701	Sololá	2	El tablón	12	Diciembre	2023-10-12T00:00:00	2024-11-08T19:00:00	6	Velocidad del viento	11.3
7122	7	Sololá	701	Sololá	2	El tablón	12	Diciembre	2023-10-12T00:00:00	2024-11-08T19:00:00	7	Dirección del viento	11.27
7123	7	Sololá	701	Sololá	2	El tablón	12	Diciembre	2023-10-12T00:00:00	2024-11-08T19:00:00	1	Precipitación	0
7124	7	Sololá	701	Sololá	2	El tablón	12	Diciembre	2023-10-12T00:00:00	2024-11-08T19:00:00	8	Radiación solar	0
7125	7	Sololá	701	Sololá	2	El tablón	12	Diciembre	2023-10-12T00:00:00	2024-11-08T20:00:00	2	Temperatura media	13.2
7126	7	Sololá	701	Sololá	2	El tablón	12	Diciembre	2023-10-12T00:00:00	2024-11-08T20:00:00	4	Temperatura máxima	14.1
7127	7	Sololá	701	Sololá	2	El tablón	12	Diciembre	2023-10-12T00:00:00	2024-11-08T20:00:00	3	Temperatura mínima	13.2
7128	7	Sololá	701	Sololá	2	El tablón	12	Diciembre	2023-10-12T00:00:00	2024-11-08T20:00:00	5	Humedad	86
7129	7	Sololá	701	Sololá	2	El tablón	12	Diciembre	2023-10-12T00:00:00	2024-11-08T20:00:00	6	Velocidad del viento	12.9
7130	7	Sololá	701	Sololá	2	El tablón	12	Diciembre	2023-10-12T00:00:00	2024-11-08T20:00:00	7	Dirección del viento	12.87
7131	7	Sololá	701	Sololá	2	El tablón	12	Diciembre	2023-10-12T00:00:00	2024-11-08T20:00:00	1	Precipitación	0
7132	7	Sololá	701	Sololá	2	El tablón	12	Diciembre	2023-10-12T00:00:00	2024-11-08T20:00:00	8	Radiación solar	0
7133	7	Sololá	701	Sololá	2	El tablón	12	Diciembre	2023-10-12T00:00:00	2024-11-08T21:00:00	2	Temperatura media	13.2
7134	7	Sololá	701	Sololá	2	El tablón	12	Diciembre	2023-10-12T00:00:00	2024-11-08T21:00:00	4	Temperatura máxima	13.3
7135	7	Sololá	701	Sololá	2	El tablón	12	Diciembre	2023-10-12T00:00:00	2024-11-08T21:00:00	3	Temperatura mínima	13.1
7136	7	Sololá	701	Sololá	2	El tablón	12	Diciembre	2023-10-12T00:00:00	2024-11-08T21:00:00	5	Humedad	86
7137	7	Sololá	701	Sololá	2	El tablón	12	Diciembre	2023-10-12T00:00:00	2024-11-08T21:00:00	6	Velocidad del viento	17.7
7138	7	Sololá	701	Sololá	2	El tablón	12	Diciembre	2023-10-12T00:00:00	2024-11-08T21:00:00	7	Dirección del viento	17.7
7139	7	Sololá	701	Sololá	2	El tablón	12	Diciembre	2023-10-12T00:00:00	2024-11-08T21:00:00	1	Precipitación	0
7140	7	Sololá	701	Sololá	2	El tablón	12	Diciembre	2023-10-12T00:00:00	2024-11-08T21:00:00	8	Radiación solar	0
7141	7	Sololá	701	Sololá	2	El tablón	12	Diciembre	2023-10-12T00:00:00	2024-11-08T22:00:00	2	Temperatura media	12.7
7142	7	Sololá	701	Sololá	2	El tablón	12	Diciembre	2023-10-12T00:00:00	2024-11-08T22:00:00	4	Temperatura máxima	13.2
7143	7	Sololá	701	Sololá	2	El tablón	12	Diciembre	2023-10-12T00:00:00	2024-11-08T22:00:00	3	Temperatura mínima	12.6
7144	7	Sololá	701	Sololá	2	El tablón	12	Diciembre	2023-10-12T00:00:00	2024-11-08T22:00:00	5	Humedad	88
7145	7	Sololá	701	Sololá	2	El tablón	12	Diciembre	2023-10-12T00:00:00	2024-11-08T22:00:00	6	Velocidad del viento	17.7
7146	7	Sololá	701	Sololá	2	El tablón	12	Diciembre	2023-10-12T00:00:00	2024-11-08T22:00:00	7	Dirección del viento	17.7
7147	7	Sololá	701	Sololá	2	El tablón	12	Diciembre	2023-10-12T00:00:00	2024-11-08T22:00:00	1	Precipitación	0
7148	7	Sololá	701	Sololá	2	El tablón	12	Diciembre	2023-10-12T00:00:00	2024-11-08T22:00:00	8	Radiación solar	0
7149	7	Sololá	701	Sololá	2	El tablón	12	Diciembre	2023-10-12T00:00:00	2024-11-08T23:00:00	2	Temperatura media	12.8
7150	7	Sololá	701	Sololá	2	El tablón	12	Diciembre	2023-10-12T00:00:00	2024-11-08T23:00:00	4	Temperatura máxima	12.9
7151	7	Sololá	701	Sololá	2	El tablón	12	Diciembre	2023-10-12T00:00:00	2024-11-08T23:00:00	3	Temperatura mínima	12.7
7152	7	Sololá	701	Sololá	2	El tablón	12	Diciembre	2023-10-12T00:00:00	2024-11-08T23:00:00	5	Humedad	87
7153	7	Sololá	701	Sololá	2	El tablón	12	Diciembre	2023-10-12T00:00:00	2024-11-08T23:00:00	6	Velocidad del viento	17.7
7154	7	Sololá	701	Sololá	2	El tablón	12	Diciembre	2023-10-12T00:00:00	2024-11-08T23:00:00	7	Dirección del viento	17.7
7155	7	Sololá	701	Sololá	2	El tablón	12	Diciembre	2023-10-12T00:00:00	2024-11-08T23:00:00	1	Precipitación	0
7156	7	Sololá	701	Sololá	2	El tablón	12	Diciembre	2023-10-12T00:00:00	2024-11-08T23:00:00	8	Radiación solar	0
7157	7	Sololá	701	Sololá	2	El tablón	12	Diciembre	2023-11-12T00:00:00	2024-11-08T00:00:00	2	Temperatura media	12.7
7158	7	Sololá	701	Sololá	2	El tablón	12	Diciembre	2023-11-12T00:00:00	2024-11-08T00:00:00	4	Temperatura máxima	12.9
7159	7	Sololá	701	Sololá	2	El tablón	12	Diciembre	2023-11-12T00:00:00	2024-11-08T00:00:00	3	Temperatura mínima	12.7
7160	7	Sololá	701	Sololá	2	El tablón	12	Diciembre	2023-11-12T00:00:00	2024-11-08T00:00:00	5	Humedad	87
7161	7	Sololá	701	Sololá	2	El tablón	12	Diciembre	2023-11-12T00:00:00	2024-11-08T00:00:00	6	Velocidad del viento	19.3
7162	7	Sololá	701	Sololá	2	El tablón	12	Diciembre	2023-11-12T00:00:00	2024-11-08T00:00:00	7	Dirección del viento	19.31
7163	7	Sololá	701	Sololá	2	El tablón	12	Diciembre	2023-11-12T00:00:00	2024-11-08T00:00:00	1	Precipitación	0
7164	7	Sololá	701	Sololá	2	El tablón	12	Diciembre	2023-11-12T00:00:00	2024-11-08T00:00:00	8	Radiación solar	0
7165	7	Sololá	701	Sololá	2	El tablón	12	Diciembre	2023-11-12T00:00:00	2024-11-08T01:00:00	2	Temperatura media	12.1
7166	7	Sololá	701	Sololá	2	El tablón	12	Diciembre	2023-11-12T00:00:00	2024-11-08T01:00:00	4	Temperatura máxima	12.8
7167	7	Sololá	701	Sololá	2	El tablón	12	Diciembre	2023-11-12T00:00:00	2024-11-08T01:00:00	3	Temperatura mínima	12.1
7168	7	Sololá	701	Sololá	2	El tablón	12	Diciembre	2023-11-12T00:00:00	2024-11-08T01:00:00	5	Humedad	88
7169	7	Sololá	701	Sololá	2	El tablón	12	Diciembre	2023-11-12T00:00:00	2024-11-08T01:00:00	6	Velocidad del viento	19.3
7170	7	Sololá	701	Sololá	2	El tablón	12	Diciembre	2023-11-12T00:00:00	2024-11-08T01:00:00	7	Dirección del viento	19.31
7171	7	Sololá	701	Sololá	2	El tablón	12	Diciembre	2023-11-12T00:00:00	2024-11-08T01:00:00	1	Precipitación	0
7172	7	Sololá	701	Sololá	2	El tablón	12	Diciembre	2023-11-12T00:00:00	2024-11-08T01:00:00	8	Radiación solar	0
7173	7	Sololá	701	Sololá	2	El tablón	12	Diciembre	2023-11-12T00:00:00	2024-11-08T02:00:00	2	Temperatura media	12.2
7174	7	Sololá	701	Sololá	2	El tablón	12	Diciembre	2023-11-12T00:00:00	2024-11-08T02:00:00	4	Temperatura máxima	12.3
7175	7	Sololá	701	Sololá	2	El tablón	12	Diciembre	2023-11-12T00:00:00	2024-11-08T02:00:00	3	Temperatura mínima	12
7176	7	Sololá	701	Sololá	2	El tablón	12	Diciembre	2023-11-12T00:00:00	2024-11-08T02:00:00	5	Humedad	88
7177	7	Sololá	701	Sololá	2	El tablón	12	Diciembre	2023-11-12T00:00:00	2024-11-08T02:00:00	6	Velocidad del viento	22.5
7178	7	Sololá	701	Sololá	2	El tablón	12	Diciembre	2023-11-12T00:00:00	2024-11-08T02:00:00	7	Dirección del viento	22.53
7179	7	Sololá	701	Sololá	2	El tablón	12	Diciembre	2023-11-12T00:00:00	2024-11-08T02:00:00	1	Precipitación	0
7180	7	Sololá	701	Sololá	2	El tablón	12	Diciembre	2023-11-12T00:00:00	2024-11-08T02:00:00	8	Radiación solar	0
7181	7	Sololá	701	Sololá	2	El tablón	12	Diciembre	2023-11-12T00:00:00	2024-11-08T03:00:00	2	Temperatura media	12.7
7182	7	Sololá	701	Sololá	2	El tablón	12	Diciembre	2023-11-12T00:00:00	2024-11-08T03:00:00	4	Temperatura máxima	12.8
7183	7	Sololá	701	Sololá	2	El tablón	12	Diciembre	2023-11-12T00:00:00	2024-11-08T03:00:00	3	Temperatura mínima	12.2
7184	7	Sololá	701	Sololá	2	El tablón	12	Diciembre	2023-11-12T00:00:00	2024-11-08T03:00:00	5	Humedad	87
7185	7	Sololá	701	Sololá	2	El tablón	12	Diciembre	2023-11-12T00:00:00	2024-11-08T03:00:00	6	Velocidad del viento	22.5
7186	7	Sololá	701	Sololá	2	El tablón	12	Diciembre	2023-11-12T00:00:00	2024-11-08T03:00:00	7	Dirección del viento	22.53
7187	7	Sololá	701	Sololá	2	El tablón	12	Diciembre	2023-11-12T00:00:00	2024-11-08T03:00:00	1	Precipitación	0
7188	7	Sololá	701	Sololá	2	El tablón	12	Diciembre	2023-11-12T00:00:00	2024-11-08T03:00:00	8	Radiación solar	0
7189	7	Sololá	701	Sololá	2	El tablón	12	Diciembre	2023-11-12T00:00:00	2024-11-08T04:00:00	2	Temperatura media	12.3
7190	7	Sololá	701	Sololá	2	El tablón	12	Diciembre	2023-11-12T00:00:00	2024-11-08T04:00:00	4	Temperatura máxima	12.7
7191	7	Sololá	701	Sololá	2	El tablón	12	Diciembre	2023-11-12T00:00:00	2024-11-08T04:00:00	3	Temperatura mínima	12.2
7192	7	Sololá	701	Sololá	2	El tablón	12	Diciembre	2023-11-12T00:00:00	2024-11-08T04:00:00	5	Humedad	88
7193	7	Sololá	701	Sololá	2	El tablón	12	Diciembre	2023-11-12T00:00:00	2024-11-08T04:00:00	6	Velocidad del viento	24.1
7194	7	Sololá	701	Sololá	2	El tablón	12	Diciembre	2023-11-12T00:00:00	2024-11-08T04:00:00	7	Dirección del viento	24.14
7195	7	Sololá	701	Sololá	2	El tablón	12	Diciembre	2023-11-12T00:00:00	2024-11-08T04:00:00	1	Precipitación	0
7196	7	Sololá	701	Sololá	2	El tablón	12	Diciembre	2023-11-12T00:00:00	2024-11-08T04:00:00	8	Radiación solar	0
7197	7	Sololá	701	Sololá	2	El tablón	12	Diciembre	2023-11-12T00:00:00	2024-11-08T05:00:00	2	Temperatura media	11.7
7198	7	Sololá	701	Sololá	2	El tablón	12	Diciembre	2023-11-12T00:00:00	2024-11-08T05:00:00	4	Temperatura máxima	12.3
7199	7	Sololá	701	Sololá	2	El tablón	12	Diciembre	2023-11-12T00:00:00	2024-11-08T05:00:00	3	Temperatura mínima	11.7
7200	7	Sololá	701	Sololá	2	El tablón	12	Diciembre	2023-11-12T00:00:00	2024-11-08T05:00:00	5	Humedad	89
7201	7	Sololá	701	Sololá	2	El tablón	12	Diciembre	2023-11-12T00:00:00	2024-11-08T05:00:00	6	Velocidad del viento	25.7
7202	7	Sololá	701	Sololá	2	El tablón	12	Diciembre	2023-11-12T00:00:00	2024-11-08T05:00:00	7	Dirección del viento	25.75
7203	7	Sololá	701	Sololá	2	El tablón	12	Diciembre	2023-11-12T00:00:00	2024-11-08T05:00:00	1	Precipitación	0.6
7204	7	Sololá	701	Sololá	2	El tablón	12	Diciembre	2023-11-12T00:00:00	2024-11-08T05:00:00	8	Radiación solar	0
7205	7	Sololá	701	Sololá	2	El tablón	12	Diciembre	2023-11-12T00:00:00	2024-11-08T06:00:00	2	Temperatura media	11.3
7206	7	Sololá	701	Sololá	2	El tablón	12	Diciembre	2023-11-12T00:00:00	2024-11-08T06:00:00	4	Temperatura máxima	11.7
7207	7	Sololá	701	Sololá	2	El tablón	12	Diciembre	2023-11-12T00:00:00	2024-11-08T06:00:00	3	Temperatura mínima	11.2
7208	7	Sololá	701	Sololá	2	El tablón	12	Diciembre	2023-11-12T00:00:00	2024-11-08T06:00:00	5	Humedad	89
7209	7	Sololá	701	Sololá	2	El tablón	12	Diciembre	2023-11-12T00:00:00	2024-11-08T06:00:00	6	Velocidad del viento	29
7210	7	Sololá	701	Sololá	2	El tablón	12	Diciembre	2023-11-12T00:00:00	2024-11-08T06:00:00	7	Dirección del viento	28.97
7211	7	Sololá	701	Sololá	2	El tablón	12	Diciembre	2023-11-12T00:00:00	2024-11-08T06:00:00	1	Precipitación	0.6
7212	7	Sololá	701	Sololá	2	El tablón	12	Diciembre	2023-11-12T00:00:00	2024-11-08T06:00:00	8	Radiación solar	0
7213	7	Sololá	701	Sololá	2	El tablón	12	Diciembre	2023-11-12T00:00:00	2024-11-08T07:00:00	2	Temperatura media	11.3
7214	7	Sololá	701	Sololá	2	El tablón	12	Diciembre	2023-11-12T00:00:00	2024-11-08T07:00:00	4	Temperatura máxima	11.4
7215	7	Sololá	701	Sololá	2	El tablón	12	Diciembre	2023-11-12T00:00:00	2024-11-08T07:00:00	3	Temperatura mínima	11.3
7216	7	Sololá	701	Sololá	2	El tablón	12	Diciembre	2023-11-12T00:00:00	2024-11-08T07:00:00	5	Humedad	89
7217	7	Sololá	701	Sololá	2	El tablón	12	Diciembre	2023-11-12T00:00:00	2024-11-08T07:00:00	6	Velocidad del viento	25.7
7218	7	Sololá	701	Sololá	2	El tablón	12	Diciembre	2023-11-12T00:00:00	2024-11-08T07:00:00	7	Dirección del viento	25.75
7219	7	Sololá	701	Sololá	2	El tablón	12	Diciembre	2023-11-12T00:00:00	2024-11-08T07:00:00	1	Precipitación	0
7220	7	Sololá	701	Sololá	2	El tablón	12	Diciembre	2023-11-12T00:00:00	2024-11-08T07:00:00	8	Radiación solar	16
7221	7	Sololá	701	Sololá	2	El tablón	12	Diciembre	2023-11-12T00:00:00	2024-11-08T08:00:00	2	Temperatura media	12
7222	7	Sololá	701	Sololá	2	El tablón	12	Diciembre	2023-11-12T00:00:00	2024-11-08T08:00:00	4	Temperatura máxima	12
7223	7	Sololá	701	Sololá	2	El tablón	12	Diciembre	2023-11-12T00:00:00	2024-11-08T08:00:00	3	Temperatura mínima	11.3
7224	7	Sololá	701	Sololá	2	El tablón	12	Diciembre	2023-11-12T00:00:00	2024-11-08T08:00:00	5	Humedad	88
7225	7	Sololá	701	Sololá	2	El tablón	12	Diciembre	2023-11-12T00:00:00	2024-11-08T08:00:00	6	Velocidad del viento	24.1
7226	7	Sololá	701	Sololá	2	El tablón	12	Diciembre	2023-11-12T00:00:00	2024-11-08T08:00:00	7	Dirección del viento	24.14
7227	7	Sololá	701	Sololá	2	El tablón	12	Diciembre	2023-11-12T00:00:00	2024-11-08T08:00:00	1	Precipitación	0
7228	7	Sololá	701	Sololá	2	El tablón	12	Diciembre	2023-11-12T00:00:00	2024-11-08T08:00:00	8	Radiación solar	150
7229	7	Sololá	701	Sololá	2	El tablón	12	Diciembre	2023-11-12T00:00:00	2024-11-08T09:00:00	2	Temperatura media	13.2
7230	7	Sololá	701	Sololá	2	El tablón	12	Diciembre	2023-11-12T00:00:00	2024-11-08T09:00:00	4	Temperatura máxima	13.2
7231	7	Sololá	701	Sololá	2	El tablón	12	Diciembre	2023-11-12T00:00:00	2024-11-08T09:00:00	3	Temperatura mínima	11.9
7232	7	Sololá	701	Sololá	2	El tablón	12	Diciembre	2023-11-12T00:00:00	2024-11-08T09:00:00	5	Humedad	83
7233	7	Sololá	701	Sololá	2	El tablón	12	Diciembre	2023-11-12T00:00:00	2024-11-08T09:00:00	6	Velocidad del viento	22.5
7234	7	Sololá	701	Sololá	2	El tablón	12	Diciembre	2023-11-12T00:00:00	2024-11-08T09:00:00	7	Dirección del viento	22.53
7235	7	Sololá	701	Sololá	2	El tablón	12	Diciembre	2023-11-12T00:00:00	2024-11-08T09:00:00	1	Precipitación	0
7236	7	Sololá	701	Sololá	2	El tablón	12	Diciembre	2023-11-12T00:00:00	2024-11-08T09:00:00	8	Radiación solar	398
7237	7	Sololá	701	Sololá	2	El tablón	12	Diciembre	2023-11-12T00:00:00	2024-11-08T10:00:00	2	Temperatura media	13.7
7238	7	Sololá	701	Sololá	2	El tablón	12	Diciembre	2023-11-12T00:00:00	2024-11-08T10:00:00	4	Temperatura máxima	13.8
7239	7	Sololá	701	Sololá	2	El tablón	12	Diciembre	2023-11-12T00:00:00	2024-11-08T10:00:00	3	Temperatura mínima	12.6
7240	7	Sololá	701	Sololá	2	El tablón	12	Diciembre	2023-11-12T00:00:00	2024-11-08T10:00:00	5	Humedad	81
7241	7	Sololá	701	Sololá	2	El tablón	12	Diciembre	2023-11-12T00:00:00	2024-11-08T10:00:00	6	Velocidad del viento	22.5
7242	7	Sololá	701	Sololá	2	El tablón	12	Diciembre	2023-11-12T00:00:00	2024-11-08T10:00:00	7	Dirección del viento	22.53
7243	7	Sololá	701	Sololá	2	El tablón	12	Diciembre	2023-11-12T00:00:00	2024-11-08T10:00:00	1	Precipitación	0
7244	7	Sololá	701	Sololá	2	El tablón	12	Diciembre	2023-11-12T00:00:00	2024-11-08T10:00:00	8	Radiación solar	532
7245	7	Sololá	701	Sololá	2	El tablón	12	Diciembre	2023-11-12T00:00:00	2024-11-08T11:00:00	2	Temperatura media	14.6
7246	7	Sololá	701	Sololá	2	El tablón	12	Diciembre	2023-11-12T00:00:00	2024-11-08T11:00:00	4	Temperatura máxima	14.7
7247	7	Sololá	701	Sololá	2	El tablón	12	Diciembre	2023-11-12T00:00:00	2024-11-08T11:00:00	3	Temperatura mínima	13.7
7248	7	Sololá	701	Sololá	2	El tablón	12	Diciembre	2023-11-12T00:00:00	2024-11-08T11:00:00	5	Humedad	81
7249	7	Sololá	701	Sololá	2	El tablón	12	Diciembre	2023-11-12T00:00:00	2024-11-08T11:00:00	6	Velocidad del viento	19.3
7250	7	Sololá	701	Sololá	2	El tablón	12	Diciembre	2023-11-12T00:00:00	2024-11-08T11:00:00	7	Dirección del viento	19.31
7251	7	Sololá	701	Sololá	2	El tablón	12	Diciembre	2023-11-12T00:00:00	2024-11-08T11:00:00	1	Precipitación	0
7252	7	Sololá	701	Sololá	2	El tablón	12	Diciembre	2023-11-12T00:00:00	2024-11-08T11:00:00	8	Radiación solar	728
7253	7	Sololá	701	Sololá	2	El tablón	12	Diciembre	2023-11-12T00:00:00	2024-11-08T12:00:00	2	Temperatura media	15.2
7254	7	Sololá	701	Sololá	2	El tablón	12	Diciembre	2023-11-12T00:00:00	2024-11-08T12:00:00	4	Temperatura máxima	15.2
7255	7	Sololá	701	Sololá	2	El tablón	12	Diciembre	2023-11-12T00:00:00	2024-11-08T12:00:00	3	Temperatura mínima	14.2
7256	7	Sololá	701	Sololá	2	El tablón	12	Diciembre	2023-11-12T00:00:00	2024-11-08T12:00:00	5	Humedad	78
7257	7	Sololá	701	Sololá	2	El tablón	12	Diciembre	2023-11-12T00:00:00	2024-11-08T12:00:00	6	Velocidad del viento	19.3
7258	7	Sololá	701	Sololá	2	El tablón	12	Diciembre	2023-11-12T00:00:00	2024-11-08T12:00:00	7	Dirección del viento	19.31
7259	7	Sololá	701	Sololá	2	El tablón	12	Diciembre	2023-11-12T00:00:00	2024-11-08T12:00:00	1	Precipitación	0
7260	7	Sololá	701	Sololá	2	El tablón	12	Diciembre	2023-11-12T00:00:00	2024-11-08T12:00:00	8	Radiación solar	681
7261	7	Sololá	701	Sololá	2	El tablón	12	Diciembre	2023-11-12T00:00:00	2024-11-08T13:00:00	2	Temperatura media	14.1
7262	7	Sololá	701	Sololá	2	El tablón	12	Diciembre	2023-11-12T00:00:00	2024-11-08T13:00:00	4	Temperatura máxima	15.3
7263	7	Sololá	701	Sololá	2	El tablón	12	Diciembre	2023-11-12T00:00:00	2024-11-08T13:00:00	3	Temperatura mínima	13.8
7264	7	Sololá	701	Sololá	2	El tablón	12	Diciembre	2023-11-12T00:00:00	2024-11-08T13:00:00	5	Humedad	81
7265	7	Sololá	701	Sololá	2	El tablón	12	Diciembre	2023-11-12T00:00:00	2024-11-08T13:00:00	6	Velocidad del viento	16.1
7266	7	Sololá	701	Sololá	2	El tablón	12	Diciembre	2023-11-12T00:00:00	2024-11-08T13:00:00	7	Dirección del viento	16.09
7267	7	Sololá	701	Sololá	2	El tablón	12	Diciembre	2023-11-12T00:00:00	2024-11-08T13:00:00	1	Precipitación	0
7268	7	Sololá	701	Sololá	2	El tablón	12	Diciembre	2023-11-12T00:00:00	2024-11-08T13:00:00	8	Radiación solar	448
7269	7	Sololá	701	Sololá	2	El tablón	12	Diciembre	2023-11-12T00:00:00	2024-11-08T14:00:00	2	Temperatura media	14.7
7270	7	Sololá	701	Sololá	2	El tablón	12	Diciembre	2023-11-12T00:00:00	2024-11-08T14:00:00	4	Temperatura máxima	14.7
7271	7	Sololá	701	Sololá	2	El tablón	12	Diciembre	2023-11-12T00:00:00	2024-11-08T14:00:00	3	Temperatura mínima	13.5
7272	7	Sololá	701	Sololá	2	El tablón	12	Diciembre	2023-11-12T00:00:00	2024-11-08T14:00:00	5	Humedad	74
7273	7	Sololá	701	Sololá	2	El tablón	12	Diciembre	2023-11-12T00:00:00	2024-11-08T14:00:00	6	Velocidad del viento	19.3
7274	7	Sololá	701	Sololá	2	El tablón	12	Diciembre	2023-11-12T00:00:00	2024-11-08T14:00:00	7	Dirección del viento	19.31
7275	7	Sololá	701	Sololá	2	El tablón	12	Diciembre	2023-11-12T00:00:00	2024-11-08T14:00:00	1	Precipitación	0
7276	7	Sololá	701	Sololá	2	El tablón	12	Diciembre	2023-11-12T00:00:00	2024-11-08T14:00:00	8	Radiación solar	545
7277	7	Sololá	701	Sololá	2	El tablón	12	Diciembre	2023-11-12T00:00:00	2024-11-08T15:00:00	2	Temperatura media	13.7
7278	7	Sololá	701	Sololá	2	El tablón	12	Diciembre	2023-11-12T00:00:00	2024-11-08T15:00:00	4	Temperatura máxima	15.3
7279	7	Sololá	701	Sololá	2	El tablón	12	Diciembre	2023-11-12T00:00:00	2024-11-08T15:00:00	3	Temperatura mínima	13.4
7280	7	Sololá	701	Sololá	2	El tablón	12	Diciembre	2023-11-12T00:00:00	2024-11-08T15:00:00	5	Humedad	78
7281	7	Sololá	701	Sololá	2	El tablón	12	Diciembre	2023-11-12T00:00:00	2024-11-08T15:00:00	6	Velocidad del viento	17.7
7282	7	Sololá	701	Sololá	2	El tablón	12	Diciembre	2023-11-12T00:00:00	2024-11-08T15:00:00	7	Dirección del viento	17.7
7283	7	Sololá	701	Sololá	2	El tablón	12	Diciembre	2023-11-12T00:00:00	2024-11-08T15:00:00	1	Precipitación	0
7284	7	Sololá	701	Sololá	2	El tablón	12	Diciembre	2023-11-12T00:00:00	2024-11-08T15:00:00	8	Radiación solar	320
7285	7	Sololá	701	Sololá	2	El tablón	12	Diciembre	2023-11-12T00:00:00	2024-11-08T16:00:00	2	Temperatura media	13.8
7286	7	Sololá	701	Sololá	2	El tablón	12	Diciembre	2023-11-12T00:00:00	2024-11-08T16:00:00	4	Temperatura máxima	13.8
7287	7	Sololá	701	Sololá	2	El tablón	12	Diciembre	2023-11-12T00:00:00	2024-11-08T16:00:00	3	Temperatura mínima	13.4
7288	7	Sololá	701	Sololá	2	El tablón	12	Diciembre	2023-11-12T00:00:00	2024-11-08T16:00:00	5	Humedad	79
7289	7	Sololá	701	Sololá	2	El tablón	12	Diciembre	2023-11-12T00:00:00	2024-11-08T16:00:00	6	Velocidad del viento	16.1
7290	7	Sololá	701	Sololá	2	El tablón	12	Diciembre	2023-11-12T00:00:00	2024-11-08T16:00:00	7	Dirección del viento	16.09
7291	7	Sololá	701	Sololá	2	El tablón	12	Diciembre	2023-11-12T00:00:00	2024-11-08T16:00:00	1	Precipitación	0
7292	7	Sololá	701	Sololá	2	El tablón	12	Diciembre	2023-11-12T00:00:00	2024-11-08T16:00:00	8	Radiación solar	259
7293	7	Sololá	701	Sololá	2	El tablón	12	Diciembre	2023-11-12T00:00:00	2024-11-08T17:00:00	2	Temperatura media	12.4
7294	7	Sololá	701	Sololá	2	El tablón	12	Diciembre	2023-11-12T00:00:00	2024-11-08T17:00:00	4	Temperatura máxima	13.8
7295	7	Sololá	701	Sololá	2	El tablón	12	Diciembre	2023-11-12T00:00:00	2024-11-08T17:00:00	3	Temperatura mínima	12.4
7296	7	Sololá	701	Sololá	2	El tablón	12	Diciembre	2023-11-12T00:00:00	2024-11-08T17:00:00	5	Humedad	83
7297	7	Sololá	701	Sololá	2	El tablón	12	Diciembre	2023-11-12T00:00:00	2024-11-08T17:00:00	6	Velocidad del viento	17.7
7298	7	Sololá	701	Sololá	2	El tablón	12	Diciembre	2023-11-12T00:00:00	2024-11-08T17:00:00	7	Dirección del viento	17.7
7299	7	Sololá	701	Sololá	2	El tablón	12	Diciembre	2023-11-12T00:00:00	2024-11-08T17:00:00	1	Precipitación	0
7300	7	Sololá	701	Sololá	2	El tablón	12	Diciembre	2023-11-12T00:00:00	2024-11-08T17:00:00	8	Radiación solar	170
7301	7	Sololá	701	Sololá	2	El tablón	12	Diciembre	2023-11-12T00:00:00	2024-11-08T18:00:00	2	Temperatura media	11.4
7302	7	Sololá	701	Sololá	2	El tablón	12	Diciembre	2023-11-12T00:00:00	2024-11-08T18:00:00	4	Temperatura máxima	12.4
7303	7	Sololá	701	Sololá	2	El tablón	12	Diciembre	2023-11-12T00:00:00	2024-11-08T18:00:00	3	Temperatura mínima	11.4
7304	7	Sololá	701	Sololá	2	El tablón	12	Diciembre	2023-11-12T00:00:00	2024-11-08T18:00:00	5	Humedad	85
7305	7	Sololá	701	Sololá	2	El tablón	12	Diciembre	2023-11-12T00:00:00	2024-11-08T18:00:00	6	Velocidad del viento	20.9
7306	7	Sololá	701	Sololá	2	El tablón	12	Diciembre	2023-11-12T00:00:00	2024-11-08T18:00:00	7	Dirección del viento	20.92
7307	7	Sololá	701	Sololá	2	El tablón	12	Diciembre	2023-11-12T00:00:00	2024-11-08T18:00:00	1	Precipitación	0
7308	7	Sololá	701	Sololá	2	El tablón	12	Diciembre	2023-11-12T00:00:00	2024-11-08T18:00:00	8	Radiación solar	13
7309	7	Sololá	701	Sololá	2	El tablón	12	Diciembre	2023-11-12T00:00:00	2024-11-08T19:00:00	2	Temperatura media	11.2
7310	7	Sololá	701	Sololá	2	El tablón	12	Diciembre	2023-11-12T00:00:00	2024-11-08T19:00:00	4	Temperatura máxima	11.4
7311	7	Sololá	701	Sololá	2	El tablón	12	Diciembre	2023-11-12T00:00:00	2024-11-08T19:00:00	3	Temperatura mínima	11.2
7312	7	Sololá	701	Sololá	2	El tablón	12	Diciembre	2023-11-12T00:00:00	2024-11-08T19:00:00	5	Humedad	86
7313	7	Sololá	701	Sololá	2	El tablón	12	Diciembre	2023-11-12T00:00:00	2024-11-08T19:00:00	6	Velocidad del viento	24.1
7314	7	Sololá	701	Sololá	2	El tablón	12	Diciembre	2023-11-12T00:00:00	2024-11-08T19:00:00	7	Dirección del viento	24.14
7315	7	Sololá	701	Sololá	2	El tablón	12	Diciembre	2023-11-12T00:00:00	2024-11-08T19:00:00	1	Precipitación	0
7316	7	Sololá	701	Sololá	2	El tablón	12	Diciembre	2023-11-12T00:00:00	2024-11-08T19:00:00	8	Radiación solar	0
7317	7	Sololá	701	Sololá	2	El tablón	12	Diciembre	2023-11-12T00:00:00	2024-11-08T20:00:00	2	Temperatura media	11.4
7318	7	Sololá	701	Sololá	2	El tablón	12	Diciembre	2023-11-12T00:00:00	2024-11-08T20:00:00	4	Temperatura máxima	11.5
7319	7	Sololá	701	Sololá	2	El tablón	12	Diciembre	2023-11-12T00:00:00	2024-11-08T20:00:00	3	Temperatura mínima	11.2
7320	7	Sololá	701	Sololá	2	El tablón	12	Diciembre	2023-11-12T00:00:00	2024-11-08T20:00:00	5	Humedad	85
7321	7	Sololá	701	Sololá	2	El tablón	12	Diciembre	2023-11-12T00:00:00	2024-11-08T20:00:00	6	Velocidad del viento	24.1
7322	7	Sololá	701	Sololá	2	El tablón	12	Diciembre	2023-11-12T00:00:00	2024-11-08T20:00:00	7	Dirección del viento	24.14
7323	7	Sololá	701	Sololá	2	El tablón	12	Diciembre	2023-11-12T00:00:00	2024-11-08T20:00:00	1	Precipitación	0
7324	7	Sololá	701	Sololá	2	El tablón	12	Diciembre	2023-11-12T00:00:00	2024-11-08T20:00:00	8	Radiación solar	0
7325	7	Sololá	701	Sololá	2	El tablón	12	Diciembre	2023-11-12T00:00:00	2024-11-08T21:00:00	2	Temperatura media	11.2
7326	7	Sololá	701	Sololá	2	El tablón	12	Diciembre	2023-11-12T00:00:00	2024-11-08T21:00:00	4	Temperatura máxima	11.4
7327	7	Sololá	701	Sololá	2	El tablón	12	Diciembre	2023-11-12T00:00:00	2024-11-08T21:00:00	3	Temperatura mínima	11.1
7328	7	Sololá	701	Sololá	2	El tablón	12	Diciembre	2023-11-12T00:00:00	2024-11-08T21:00:00	5	Humedad	87
7329	7	Sololá	701	Sololá	2	El tablón	12	Diciembre	2023-11-12T00:00:00	2024-11-08T21:00:00	6	Velocidad del viento	22.5
7330	7	Sololá	701	Sololá	2	El tablón	12	Diciembre	2023-11-12T00:00:00	2024-11-08T21:00:00	7	Dirección del viento	22.53
7331	7	Sololá	701	Sololá	2	El tablón	12	Diciembre	2023-11-12T00:00:00	2024-11-08T21:00:00	1	Precipitación	0
7332	7	Sololá	701	Sololá	2	El tablón	12	Diciembre	2023-11-12T00:00:00	2024-11-08T21:00:00	8	Radiación solar	0
7333	7	Sololá	701	Sololá	2	El tablón	12	Diciembre	2023-11-12T00:00:00	2024-11-08T22:00:00	2	Temperatura media	11.5
7334	7	Sololá	701	Sololá	2	El tablón	12	Diciembre	2023-11-12T00:00:00	2024-11-08T22:00:00	4	Temperatura máxima	11.6
7335	7	Sololá	701	Sololá	2	El tablón	12	Diciembre	2023-11-12T00:00:00	2024-11-08T22:00:00	3	Temperatura mínima	11.1
7336	7	Sololá	701	Sololá	2	El tablón	12	Diciembre	2023-11-12T00:00:00	2024-11-08T22:00:00	5	Humedad	86
7337	7	Sololá	701	Sololá	2	El tablón	12	Diciembre	2023-11-12T00:00:00	2024-11-08T22:00:00	6	Velocidad del viento	20.9
7338	7	Sololá	701	Sololá	2	El tablón	12	Diciembre	2023-11-12T00:00:00	2024-11-08T22:00:00	7	Dirección del viento	20.92
7339	7	Sololá	701	Sololá	2	El tablón	12	Diciembre	2023-11-12T00:00:00	2024-11-08T22:00:00	1	Precipitación	0
7340	7	Sololá	701	Sololá	2	El tablón	12	Diciembre	2023-11-12T00:00:00	2024-11-08T22:00:00	8	Radiación solar	0
7341	7	Sololá	701	Sololá	2	El tablón	12	Diciembre	2023-11-12T00:00:00	2024-11-08T23:00:00	2	Temperatura media	11.3
7342	7	Sololá	701	Sololá	2	El tablón	12	Diciembre	2023-11-12T00:00:00	2024-11-08T23:00:00	4	Temperatura máxima	11.5
7343	7	Sololá	701	Sololá	2	El tablón	12	Diciembre	2023-11-12T00:00:00	2024-11-08T23:00:00	3	Temperatura mínima	11.3
7344	7	Sololá	701	Sololá	2	El tablón	12	Diciembre	2023-11-12T00:00:00	2024-11-08T23:00:00	5	Humedad	87
7345	7	Sololá	701	Sololá	2	El tablón	12	Diciembre	2023-11-12T00:00:00	2024-11-08T23:00:00	6	Velocidad del viento	20.9
7346	7	Sololá	701	Sololá	2	El tablón	12	Diciembre	2023-11-12T00:00:00	2024-11-08T23:00:00	7	Dirección del viento	20.92
7347	7	Sololá	701	Sololá	2	El tablón	12	Diciembre	2023-11-12T00:00:00	2024-11-08T23:00:00	1	Precipitación	0
7348	7	Sololá	701	Sololá	2	El tablón	12	Diciembre	2023-11-12T00:00:00	2024-11-08T23:00:00	8	Radiación solar	0
7349	7	Sololá	701	Sololá	2	El tablón	12	Diciembre	2023-12-12T00:00:00	2024-11-08T00:00:00	2	Temperatura media	11.1
7350	7	Sololá	701	Sololá	2	El tablón	12	Diciembre	2023-12-12T00:00:00	2024-11-08T00:00:00	4	Temperatura máxima	11.4
7351	7	Sololá	701	Sololá	2	El tablón	12	Diciembre	2023-12-12T00:00:00	2024-11-08T00:00:00	3	Temperatura mínima	11.1
7352	7	Sololá	701	Sololá	2	El tablón	12	Diciembre	2023-12-12T00:00:00	2024-11-08T00:00:00	5	Humedad	87
7353	7	Sololá	701	Sololá	2	El tablón	12	Diciembre	2023-12-12T00:00:00	2024-11-08T00:00:00	6	Velocidad del viento	17.7
7354	7	Sololá	701	Sololá	2	El tablón	12	Diciembre	2023-12-12T00:00:00	2024-11-08T00:00:00	7	Dirección del viento	17.7
7355	7	Sololá	701	Sololá	2	El tablón	12	Diciembre	2023-12-12T00:00:00	2024-11-08T00:00:00	1	Precipitación	0
7356	7	Sololá	701	Sololá	2	El tablón	12	Diciembre	2023-12-12T00:00:00	2024-11-08T00:00:00	8	Radiación solar	0
7357	7	Sololá	701	Sololá	2	El tablón	12	Diciembre	2023-12-12T00:00:00	2024-11-08T01:00:00	2	Temperatura media	10.6
7358	7	Sololá	701	Sololá	2	El tablón	12	Diciembre	2023-12-12T00:00:00	2024-11-08T01:00:00	4	Temperatura máxima	11.1
7359	7	Sololá	701	Sololá	2	El tablón	12	Diciembre	2023-12-12T00:00:00	2024-11-08T01:00:00	3	Temperatura mínima	10.6
7360	7	Sololá	701	Sololá	2	El tablón	12	Diciembre	2023-12-12T00:00:00	2024-11-08T01:00:00	5	Humedad	88
7361	7	Sololá	701	Sololá	2	El tablón	12	Diciembre	2023-12-12T00:00:00	2024-11-08T01:00:00	6	Velocidad del viento	17.7
7362	7	Sololá	701	Sololá	2	El tablón	12	Diciembre	2023-12-12T00:00:00	2024-11-08T01:00:00	7	Dirección del viento	17.7
7363	7	Sololá	701	Sololá	2	El tablón	12	Diciembre	2023-12-12T00:00:00	2024-11-08T01:00:00	1	Precipitación	0
7364	7	Sololá	701	Sololá	2	El tablón	12	Diciembre	2023-12-12T00:00:00	2024-11-08T01:00:00	8	Radiación solar	0
7365	7	Sololá	701	Sololá	2	El tablón	12	Diciembre	2023-12-12T00:00:00	2024-11-08T02:00:00	2	Temperatura media	11.5
7366	7	Sololá	701	Sololá	2	El tablón	12	Diciembre	2023-12-12T00:00:00	2024-11-08T02:00:00	4	Temperatura máxima	11.5
7367	7	Sololá	701	Sololá	2	El tablón	12	Diciembre	2023-12-12T00:00:00	2024-11-08T02:00:00	3	Temperatura mínima	10.6
7368	7	Sololá	701	Sololá	2	El tablón	12	Diciembre	2023-12-12T00:00:00	2024-11-08T02:00:00	5	Humedad	83
7369	7	Sololá	701	Sololá	2	El tablón	12	Diciembre	2023-12-12T00:00:00	2024-11-08T02:00:00	6	Velocidad del viento	16.1
7370	7	Sololá	701	Sololá	2	El tablón	12	Diciembre	2023-12-12T00:00:00	2024-11-08T02:00:00	7	Dirección del viento	16.09
7371	7	Sololá	701	Sololá	2	El tablón	12	Diciembre	2023-12-12T00:00:00	2024-11-08T02:00:00	1	Precipitación	0
7372	7	Sololá	701	Sololá	2	El tablón	12	Diciembre	2023-12-12T00:00:00	2024-11-08T02:00:00	8	Radiación solar	0
7373	7	Sololá	701	Sololá	2	El tablón	12	Diciembre	2023-12-12T00:00:00	2024-11-08T03:00:00	2	Temperatura media	11.6
7374	7	Sololá	701	Sololá	2	El tablón	12	Diciembre	2023-12-12T00:00:00	2024-11-08T03:00:00	4	Temperatura máxima	11.7
7375	7	Sololá	701	Sololá	2	El tablón	12	Diciembre	2023-12-12T00:00:00	2024-11-08T03:00:00	3	Temperatura mínima	11.4
7376	7	Sololá	701	Sololá	2	El tablón	12	Diciembre	2023-12-12T00:00:00	2024-11-08T03:00:00	5	Humedad	82
7377	7	Sololá	701	Sololá	2	El tablón	12	Diciembre	2023-12-12T00:00:00	2024-11-08T03:00:00	6	Velocidad del viento	14.5
7378	7	Sololá	701	Sololá	2	El tablón	12	Diciembre	2023-12-12T00:00:00	2024-11-08T03:00:00	7	Dirección del viento	14.48
7379	7	Sololá	701	Sololá	2	El tablón	12	Diciembre	2023-12-12T00:00:00	2024-11-08T03:00:00	1	Precipitación	0
7380	7	Sololá	701	Sololá	2	El tablón	12	Diciembre	2023-12-12T00:00:00	2024-11-08T03:00:00	8	Radiación solar	0
7381	7	Sololá	701	Sololá	2	El tablón	12	Diciembre	2023-12-12T00:00:00	2024-11-08T04:00:00	2	Temperatura media	11.7
7382	7	Sololá	701	Sololá	2	El tablón	12	Diciembre	2023-12-12T00:00:00	2024-11-08T04:00:00	4	Temperatura máxima	11.7
7383	7	Sololá	701	Sololá	2	El tablón	12	Diciembre	2023-12-12T00:00:00	2024-11-08T04:00:00	3	Temperatura mínima	11.5
7384	7	Sololá	701	Sololá	2	El tablón	12	Diciembre	2023-12-12T00:00:00	2024-11-08T04:00:00	5	Humedad	82
7385	7	Sololá	701	Sololá	2	El tablón	12	Diciembre	2023-12-12T00:00:00	2024-11-08T04:00:00	6	Velocidad del viento	12.9
7386	7	Sololá	701	Sololá	2	El tablón	12	Diciembre	2023-12-12T00:00:00	2024-11-08T04:00:00	7	Dirección del viento	12.87
7387	7	Sololá	701	Sololá	2	El tablón	12	Diciembre	2023-12-12T00:00:00	2024-11-08T04:00:00	1	Precipitación	0
7388	7	Sololá	701	Sololá	2	El tablón	12	Diciembre	2023-12-12T00:00:00	2024-11-08T04:00:00	8	Radiación solar	0
7389	7	Sololá	701	Sololá	2	El tablón	12	Diciembre	2023-12-12T00:00:00	2024-11-08T05:00:00	2	Temperatura media	11.5
7390	7	Sololá	701	Sololá	2	El tablón	12	Diciembre	2023-12-12T00:00:00	2024-11-08T05:00:00	4	Temperatura máxima	11.7
7391	7	Sololá	701	Sololá	2	El tablón	12	Diciembre	2023-12-12T00:00:00	2024-11-08T05:00:00	3	Temperatura mínima	11.3
7392	7	Sololá	701	Sololá	2	El tablón	12	Diciembre	2023-12-12T00:00:00	2024-11-08T05:00:00	5	Humedad	83
7393	7	Sololá	701	Sololá	2	El tablón	12	Diciembre	2023-12-12T00:00:00	2024-11-08T05:00:00	6	Velocidad del viento	14.5
7394	7	Sololá	701	Sololá	2	El tablón	12	Diciembre	2023-12-12T00:00:00	2024-11-08T05:00:00	7	Dirección del viento	14.48
7395	7	Sololá	701	Sololá	2	El tablón	12	Diciembre	2023-12-12T00:00:00	2024-11-08T05:00:00	1	Precipitación	0
7396	7	Sololá	701	Sololá	2	El tablón	12	Diciembre	2023-12-12T00:00:00	2024-11-08T05:00:00	8	Radiación solar	0
7397	7	Sololá	701	Sololá	2	El tablón	12	Diciembre	2023-12-12T00:00:00	2024-11-08T06:00:00	2	Temperatura media	11.3
7398	7	Sololá	701	Sololá	2	El tablón	12	Diciembre	2023-12-12T00:00:00	2024-11-08T06:00:00	4	Temperatura máxima	11.6
7399	7	Sololá	701	Sololá	2	El tablón	12	Diciembre	2023-12-12T00:00:00	2024-11-08T06:00:00	3	Temperatura mínima	11.2
7400	7	Sololá	701	Sololá	2	El tablón	12	Diciembre	2023-12-12T00:00:00	2024-11-08T06:00:00	5	Humedad	84
7401	7	Sololá	701	Sololá	2	El tablón	12	Diciembre	2023-12-12T00:00:00	2024-11-08T06:00:00	6	Velocidad del viento	14.5
7402	7	Sololá	701	Sololá	2	El tablón	12	Diciembre	2023-12-12T00:00:00	2024-11-08T06:00:00	7	Dirección del viento	14.48
7403	7	Sololá	701	Sololá	2	El tablón	12	Diciembre	2023-12-12T00:00:00	2024-11-08T06:00:00	1	Precipitación	0
7404	7	Sololá	701	Sololá	2	El tablón	12	Diciembre	2023-12-12T00:00:00	2024-11-08T06:00:00	8	Radiación solar	0
7405	7	Sololá	701	Sololá	2	El tablón	12	Diciembre	2023-12-12T00:00:00	2024-11-08T07:00:00	2	Temperatura media	11.7
7406	7	Sololá	701	Sololá	2	El tablón	12	Diciembre	2023-12-12T00:00:00	2024-11-08T07:00:00	4	Temperatura máxima	11.7
7407	7	Sololá	701	Sololá	2	El tablón	12	Diciembre	2023-12-12T00:00:00	2024-11-08T07:00:00	3	Temperatura mínima	11.3
7408	7	Sololá	701	Sololá	2	El tablón	12	Diciembre	2023-12-12T00:00:00	2024-11-08T07:00:00	5	Humedad	83
7409	7	Sololá	701	Sololá	2	El tablón	12	Diciembre	2023-12-12T00:00:00	2024-11-08T07:00:00	6	Velocidad del viento	14.5
7410	7	Sololá	701	Sololá	2	El tablón	12	Diciembre	2023-12-12T00:00:00	2024-11-08T07:00:00	7	Dirección del viento	14.48
7411	7	Sololá	701	Sololá	2	El tablón	12	Diciembre	2023-12-12T00:00:00	2024-11-08T07:00:00	1	Precipitación	0
7412	7	Sololá	701	Sololá	2	El tablón	12	Diciembre	2023-12-12T00:00:00	2024-11-08T07:00:00	8	Radiación solar	13
7413	7	Sololá	701	Sololá	2	El tablón	12	Diciembre	2023-12-12T00:00:00	2024-11-08T08:00:00	2	Temperatura media	12.8
7414	7	Sololá	701	Sololá	2	El tablón	12	Diciembre	2023-12-12T00:00:00	2024-11-08T08:00:00	4	Temperatura máxima	12.8
7415	7	Sololá	701	Sololá	2	El tablón	12	Diciembre	2023-12-12T00:00:00	2024-11-08T08:00:00	3	Temperatura mínima	11.7
7416	7	Sololá	701	Sololá	2	El tablón	12	Diciembre	2023-12-12T00:00:00	2024-11-08T08:00:00	5	Humedad	80
7417	7	Sololá	701	Sololá	2	El tablón	12	Diciembre	2023-12-12T00:00:00	2024-11-08T08:00:00	6	Velocidad del viento	16.1
7418	7	Sololá	701	Sololá	2	El tablón	12	Diciembre	2023-12-12T00:00:00	2024-11-08T08:00:00	7	Dirección del viento	16.09
7419	7	Sololá	701	Sololá	2	El tablón	12	Diciembre	2023-12-12T00:00:00	2024-11-08T08:00:00	1	Precipitación	0
7420	7	Sololá	701	Sololá	2	El tablón	12	Diciembre	2023-12-12T00:00:00	2024-11-08T08:00:00	8	Radiación solar	155
7421	7	Sololá	701	Sololá	2	El tablón	12	Diciembre	2023-12-12T00:00:00	2024-11-08T09:00:00	2	Temperatura media	13.6
7422	7	Sololá	701	Sololá	2	El tablón	12	Diciembre	2023-12-12T00:00:00	2024-11-08T09:00:00	4	Temperatura máxima	13.6
7423	7	Sololá	701	Sololá	2	El tablón	12	Diciembre	2023-12-12T00:00:00	2024-11-08T09:00:00	3	Temperatura mínima	12.8
7424	7	Sololá	701	Sololá	2	El tablón	12	Diciembre	2023-12-12T00:00:00	2024-11-08T09:00:00	5	Humedad	80
7425	7	Sololá	701	Sololá	2	El tablón	12	Diciembre	2023-12-12T00:00:00	2024-11-08T09:00:00	6	Velocidad del viento	17.7
7426	7	Sololá	701	Sololá	2	El tablón	12	Diciembre	2023-12-12T00:00:00	2024-11-08T09:00:00	7	Dirección del viento	17.7
7427	7	Sololá	701	Sololá	2	El tablón	12	Diciembre	2023-12-12T00:00:00	2024-11-08T09:00:00	1	Precipitación	0
7428	7	Sololá	701	Sololá	2	El tablón	12	Diciembre	2023-12-12T00:00:00	2024-11-08T09:00:00	8	Radiación solar	381
7429	7	Sololá	701	Sololá	2	El tablón	12	Diciembre	2023-12-12T00:00:00	2024-11-08T10:00:00	2	Temperatura media	14.3
7430	7	Sololá	701	Sololá	2	El tablón	12	Diciembre	2023-12-12T00:00:00	2024-11-08T10:00:00	4	Temperatura máxima	14.4
7431	7	Sololá	701	Sololá	2	El tablón	12	Diciembre	2023-12-12T00:00:00	2024-11-08T10:00:00	3	Temperatura mínima	13.4
7432	7	Sololá	701	Sololá	2	El tablón	12	Diciembre	2023-12-12T00:00:00	2024-11-08T10:00:00	5	Humedad	78
7433	7	Sololá	701	Sololá	2	El tablón	12	Diciembre	2023-12-12T00:00:00	2024-11-08T10:00:00	6	Velocidad del viento	19.3
7434	7	Sololá	701	Sololá	2	El tablón	12	Diciembre	2023-12-12T00:00:00	2024-11-08T10:00:00	7	Dirección del viento	19.31
7435	7	Sololá	701	Sololá	2	El tablón	12	Diciembre	2023-12-12T00:00:00	2024-11-08T10:00:00	1	Precipitación	0
7436	7	Sololá	701	Sololá	2	El tablón	12	Diciembre	2023-12-12T00:00:00	2024-11-08T10:00:00	8	Radiación solar	561
7437	7	Sololá	701	Sololá	2	El tablón	12	Diciembre	2023-12-12T00:00:00	2024-11-08T11:00:00	2	Temperatura media	14.7
7438	7	Sololá	701	Sololá	2	El tablón	12	Diciembre	2023-12-12T00:00:00	2024-11-08T11:00:00	4	Temperatura máxima	14.9
7439	7	Sololá	701	Sololá	2	El tablón	12	Diciembre	2023-12-12T00:00:00	2024-11-08T11:00:00	3	Temperatura mínima	14.3
7440	7	Sololá	701	Sololá	2	El tablón	12	Diciembre	2023-12-12T00:00:00	2024-11-08T11:00:00	5	Humedad	79
7441	7	Sololá	701	Sololá	2	El tablón	12	Diciembre	2023-12-12T00:00:00	2024-11-08T11:00:00	6	Velocidad del viento	19.3
7442	7	Sololá	701	Sololá	2	El tablón	12	Diciembre	2023-12-12T00:00:00	2024-11-08T11:00:00	7	Dirección del viento	19.31
7443	7	Sololá	701	Sololá	2	El tablón	12	Diciembre	2023-12-12T00:00:00	2024-11-08T11:00:00	1	Precipitación	0
7444	7	Sololá	701	Sololá	2	El tablón	12	Diciembre	2023-12-12T00:00:00	2024-11-08T11:00:00	8	Radiación solar	690
7445	7	Sololá	701	Sololá	2	El tablón	12	Diciembre	2023-12-12T00:00:00	2024-11-08T12:00:00	2	Temperatura media	15.3
7446	7	Sololá	701	Sololá	2	El tablón	12	Diciembre	2023-12-12T00:00:00	2024-11-08T12:00:00	4	Temperatura máxima	15.6
7447	7	Sololá	701	Sololá	2	El tablón	12	Diciembre	2023-12-12T00:00:00	2024-11-08T12:00:00	3	Temperatura mínima	14.5
7448	7	Sololá	701	Sololá	2	El tablón	12	Diciembre	2023-12-12T00:00:00	2024-11-08T12:00:00	5	Humedad	76
7449	7	Sololá	701	Sololá	2	El tablón	12	Diciembre	2023-12-12T00:00:00	2024-11-08T12:00:00	6	Velocidad del viento	20.9
7450	7	Sololá	701	Sololá	2	El tablón	12	Diciembre	2023-12-12T00:00:00	2024-11-08T12:00:00	7	Dirección del viento	20.92
7451	7	Sololá	701	Sololá	2	El tablón	12	Diciembre	2023-12-12T00:00:00	2024-11-08T12:00:00	1	Precipitación	0
7452	7	Sololá	701	Sololá	2	El tablón	12	Diciembre	2023-12-12T00:00:00	2024-11-08T12:00:00	8	Radiación solar	662
7453	7	Sololá	701	Sololá	2	El tablón	12	Diciembre	2023-12-12T00:00:00	2024-11-08T13:00:00	2	Temperatura media	16.2
7454	7	Sololá	701	Sololá	2	El tablón	12	Diciembre	2023-12-12T00:00:00	2024-11-08T13:00:00	4	Temperatura máxima	16.2
7455	7	Sololá	701	Sololá	2	El tablón	12	Diciembre	2023-12-12T00:00:00	2024-11-08T13:00:00	3	Temperatura mínima	15.2
7456	7	Sololá	701	Sololá	2	El tablón	12	Diciembre	2023-12-12T00:00:00	2024-11-08T13:00:00	5	Humedad	74
7457	7	Sololá	701	Sololá	2	El tablón	12	Diciembre	2023-12-12T00:00:00	2024-11-08T13:00:00	6	Velocidad del viento	19.3
7458	7	Sololá	701	Sololá	2	El tablón	12	Diciembre	2023-12-12T00:00:00	2024-11-08T13:00:00	7	Dirección del viento	19.31
7459	7	Sololá	701	Sololá	2	El tablón	12	Diciembre	2023-12-12T00:00:00	2024-11-08T13:00:00	1	Precipitación	0
7460	7	Sololá	701	Sololá	2	El tablón	12	Diciembre	2023-12-12T00:00:00	2024-11-08T13:00:00	8	Radiación solar	735
7461	7	Sololá	701	Sololá	2	El tablón	12	Diciembre	2023-12-12T00:00:00	2024-11-08T14:00:00	2	Temperatura media	16.4
7462	7	Sololá	701	Sololá	2	El tablón	12	Diciembre	2023-12-12T00:00:00	2024-11-08T14:00:00	4	Temperatura máxima	16.8
7463	7	Sololá	701	Sololá	2	El tablón	12	Diciembre	2023-12-12T00:00:00	2024-11-08T14:00:00	3	Temperatura mínima	16.1
7464	7	Sololá	701	Sololá	2	El tablón	12	Diciembre	2023-12-12T00:00:00	2024-11-08T14:00:00	5	Humedad	75
7465	7	Sololá	701	Sololá	2	El tablón	12	Diciembre	2023-12-12T00:00:00	2024-11-08T14:00:00	6	Velocidad del viento	17.7
7466	7	Sololá	701	Sololá	2	El tablón	12	Diciembre	2023-12-12T00:00:00	2024-11-08T14:00:00	7	Dirección del viento	17.7
7467	7	Sololá	701	Sololá	2	El tablón	12	Diciembre	2023-12-12T00:00:00	2024-11-08T14:00:00	1	Precipitación	0
7468	7	Sololá	701	Sololá	2	El tablón	12	Diciembre	2023-12-12T00:00:00	2024-11-08T14:00:00	8	Radiación solar	714
7469	7	Sololá	701	Sololá	2	El tablón	12	Diciembre	2023-12-12T00:00:00	2024-11-08T15:00:00	2	Temperatura media	15.1
7470	7	Sololá	701	Sololá	2	El tablón	12	Diciembre	2023-12-12T00:00:00	2024-11-08T15:00:00	4	Temperatura máxima	16.4
7471	7	Sololá	701	Sololá	2	El tablón	12	Diciembre	2023-12-12T00:00:00	2024-11-08T15:00:00	3	Temperatura mínima	15.1
7472	7	Sololá	701	Sololá	2	El tablón	12	Diciembre	2023-12-12T00:00:00	2024-11-08T15:00:00	5	Humedad	81
7473	7	Sololá	701	Sololá	2	El tablón	12	Diciembre	2023-12-12T00:00:00	2024-11-08T15:00:00	6	Velocidad del viento	19.3
7474	7	Sololá	701	Sololá	2	El tablón	12	Diciembre	2023-12-12T00:00:00	2024-11-08T15:00:00	7	Dirección del viento	19.31
7475	7	Sololá	701	Sololá	2	El tablón	12	Diciembre	2023-12-12T00:00:00	2024-11-08T15:00:00	1	Precipitación	0
7476	7	Sololá	701	Sololá	2	El tablón	12	Diciembre	2023-12-12T00:00:00	2024-11-08T15:00:00	8	Radiación solar	395
7477	7	Sololá	701	Sololá	2	El tablón	12	Diciembre	2023-12-12T00:00:00	2024-11-08T16:00:00	2	Temperatura media	14.2
7478	7	Sololá	701	Sololá	2	El tablón	12	Diciembre	2023-12-12T00:00:00	2024-11-08T16:00:00	4	Temperatura máxima	15.1
7479	7	Sololá	701	Sololá	2	El tablón	12	Diciembre	2023-12-12T00:00:00	2024-11-08T16:00:00	3	Temperatura mínima	14.2
7480	7	Sololá	701	Sololá	2	El tablón	12	Diciembre	2023-12-12T00:00:00	2024-11-08T16:00:00	5	Humedad	84
7481	7	Sololá	701	Sololá	2	El tablón	12	Diciembre	2023-12-12T00:00:00	2024-11-08T16:00:00	6	Velocidad del viento	17.7
7482	7	Sololá	701	Sololá	2	El tablón	12	Diciembre	2023-12-12T00:00:00	2024-11-08T16:00:00	7	Dirección del viento	17.7
7483	7	Sololá	701	Sololá	2	El tablón	12	Diciembre	2023-12-12T00:00:00	2024-11-08T16:00:00	1	Precipitación	0
7484	7	Sololá	701	Sololá	2	El tablón	12	Diciembre	2023-12-12T00:00:00	2024-11-08T16:00:00	8	Radiación solar	141
7485	7	Sololá	701	Sololá	2	El tablón	12	Diciembre	2023-12-12T00:00:00	2024-11-08T17:00:00	2	Temperatura media	12.2
7486	7	Sololá	701	Sololá	2	El tablón	12	Diciembre	2023-12-12T00:00:00	2024-11-08T17:00:00	4	Temperatura máxima	14.2
7487	7	Sololá	701	Sololá	2	El tablón	12	Diciembre	2023-12-12T00:00:00	2024-11-08T17:00:00	3	Temperatura mínima	12.2
7488	7	Sololá	701	Sololá	2	El tablón	12	Diciembre	2023-12-12T00:00:00	2024-11-08T17:00:00	5	Humedad	88
7489	7	Sololá	701	Sololá	2	El tablón	12	Diciembre	2023-12-12T00:00:00	2024-11-08T17:00:00	6	Velocidad del viento	17.7
7490	7	Sololá	701	Sololá	2	El tablón	12	Diciembre	2023-12-12T00:00:00	2024-11-08T17:00:00	7	Dirección del viento	17.7
7491	7	Sololá	701	Sololá	2	El tablón	12	Diciembre	2023-12-12T00:00:00	2024-11-08T17:00:00	1	Precipitación	0
7492	7	Sololá	701	Sololá	2	El tablón	12	Diciembre	2023-12-12T00:00:00	2024-11-08T17:00:00	8	Radiación solar	76
7493	7	Sololá	701	Sololá	2	El tablón	12	Diciembre	2023-12-12T00:00:00	2024-11-08T18:00:00	2	Temperatura media	11.7
7494	7	Sololá	701	Sololá	2	El tablón	12	Diciembre	2023-12-12T00:00:00	2024-11-08T18:00:00	4	Temperatura máxima	12.2
7495	7	Sololá	701	Sololá	2	El tablón	12	Diciembre	2023-12-12T00:00:00	2024-11-08T18:00:00	3	Temperatura mínima	11.6
7496	7	Sololá	701	Sololá	2	El tablón	12	Diciembre	2023-12-12T00:00:00	2024-11-08T18:00:00	5	Humedad	88
7497	7	Sololá	701	Sololá	2	El tablón	12	Diciembre	2023-12-12T00:00:00	2024-11-08T18:00:00	6	Velocidad del viento	19.3
7498	7	Sololá	701	Sololá	2	El tablón	12	Diciembre	2023-12-12T00:00:00	2024-11-08T18:00:00	7	Dirección del viento	19.31
7499	7	Sololá	701	Sololá	2	El tablón	12	Diciembre	2023-12-12T00:00:00	2024-11-08T18:00:00	1	Precipitación	0
7500	7	Sololá	701	Sololá	2	El tablón	12	Diciembre	2023-12-12T00:00:00	2024-11-08T18:00:00	8	Radiación solar	9
7501	7	Sololá	701	Sololá	2	El tablón	12	Diciembre	2023-12-12T00:00:00	2024-11-08T19:00:00	2	Temperatura media	11.3
7502	7	Sololá	701	Sololá	2	El tablón	12	Diciembre	2023-12-12T00:00:00	2024-11-08T19:00:00	4	Temperatura máxima	11.7
7503	7	Sololá	701	Sololá	2	El tablón	12	Diciembre	2023-12-12T00:00:00	2024-11-08T19:00:00	3	Temperatura mínima	11.3
7504	7	Sololá	701	Sololá	2	El tablón	12	Diciembre	2023-12-12T00:00:00	2024-11-08T19:00:00	5	Humedad	88
7505	7	Sololá	701	Sololá	2	El tablón	12	Diciembre	2023-12-12T00:00:00	2024-11-08T19:00:00	6	Velocidad del viento	22.5
7506	7	Sololá	701	Sololá	2	El tablón	12	Diciembre	2023-12-12T00:00:00	2024-11-08T19:00:00	7	Dirección del viento	22.53
7507	7	Sololá	701	Sololá	2	El tablón	12	Diciembre	2023-12-12T00:00:00	2024-11-08T19:00:00	1	Precipitación	0
7508	7	Sololá	701	Sololá	2	El tablón	12	Diciembre	2023-12-12T00:00:00	2024-11-08T19:00:00	8	Radiación solar	0
7509	7	Sololá	701	Sololá	2	El tablón	12	Diciembre	2023-12-12T00:00:00	2024-11-08T20:00:00	2	Temperatura media	10.9
7510	7	Sololá	701	Sololá	2	El tablón	12	Diciembre	2023-12-12T00:00:00	2024-11-08T20:00:00	4	Temperatura máxima	11.3
7511	7	Sololá	701	Sololá	2	El tablón	12	Diciembre	2023-12-12T00:00:00	2024-11-08T20:00:00	3	Temperatura mínima	10.9
7512	7	Sololá	701	Sololá	2	El tablón	12	Diciembre	2023-12-12T00:00:00	2024-11-08T20:00:00	5	Humedad	89
7513	7	Sololá	701	Sololá	2	El tablón	12	Diciembre	2023-12-12T00:00:00	2024-11-08T20:00:00	6	Velocidad del viento	22.5
7514	7	Sololá	701	Sololá	2	El tablón	12	Diciembre	2023-12-12T00:00:00	2024-11-08T20:00:00	7	Dirección del viento	22.53
7515	7	Sololá	701	Sololá	2	El tablón	12	Diciembre	2023-12-12T00:00:00	2024-11-08T20:00:00	1	Precipitación	0
7516	7	Sololá	701	Sololá	2	El tablón	12	Diciembre	2023-12-12T00:00:00	2024-11-08T20:00:00	8	Radiación solar	0
7517	7	Sololá	701	Sololá	2	El tablón	12	Diciembre	2023-12-12T00:00:00	2024-11-08T21:00:00	2	Temperatura media	10.8
7518	7	Sololá	701	Sololá	2	El tablón	12	Diciembre	2023-12-12T00:00:00	2024-11-08T21:00:00	4	Temperatura máxima	10.9
7519	7	Sololá	701	Sololá	2	El tablón	12	Diciembre	2023-12-12T00:00:00	2024-11-08T21:00:00	3	Temperatura mínima	10.8
7520	7	Sololá	701	Sololá	2	El tablón	12	Diciembre	2023-12-12T00:00:00	2024-11-08T21:00:00	5	Humedad	88
7521	7	Sololá	701	Sololá	2	El tablón	12	Diciembre	2023-12-12T00:00:00	2024-11-08T21:00:00	6	Velocidad del viento	22.5
7522	7	Sololá	701	Sololá	2	El tablón	12	Diciembre	2023-12-12T00:00:00	2024-11-08T21:00:00	7	Dirección del viento	22.53
7523	7	Sololá	701	Sololá	2	El tablón	12	Diciembre	2023-12-12T00:00:00	2024-11-08T21:00:00	1	Precipitación	0.4
7524	7	Sololá	701	Sololá	2	El tablón	12	Diciembre	2023-12-12T00:00:00	2024-11-08T21:00:00	8	Radiación solar	0
7525	7	Sololá	701	Sololá	2	El tablón	12	Diciembre	2023-12-12T00:00:00	2024-11-08T22:00:00	2	Temperatura media	10.6
7526	7	Sololá	701	Sololá	2	El tablón	12	Diciembre	2023-12-12T00:00:00	2024-11-08T22:00:00	4	Temperatura máxima	10.8
7527	7	Sololá	701	Sololá	2	El tablón	12	Diciembre	2023-12-12T00:00:00	2024-11-08T22:00:00	3	Temperatura mínima	10.6
7528	7	Sololá	701	Sololá	2	El tablón	12	Diciembre	2023-12-12T00:00:00	2024-11-08T22:00:00	5	Humedad	89
7529	7	Sololá	701	Sololá	2	El tablón	12	Diciembre	2023-12-12T00:00:00	2024-11-08T22:00:00	6	Velocidad del viento	24.1
7530	7	Sololá	701	Sololá	2	El tablón	12	Diciembre	2023-12-12T00:00:00	2024-11-08T22:00:00	7	Dirección del viento	24.14
7531	7	Sololá	701	Sololá	2	El tablón	12	Diciembre	2023-12-12T00:00:00	2024-11-08T22:00:00	1	Precipitación	0
7532	7	Sololá	701	Sololá	2	El tablón	12	Diciembre	2023-12-12T00:00:00	2024-11-08T22:00:00	8	Radiación solar	0
7533	7	Sololá	701	Sololá	2	El tablón	12	Diciembre	2023-12-12T00:00:00	2024-11-08T23:00:00	2	Temperatura media	10.8
7534	7	Sololá	701	Sololá	2	El tablón	12	Diciembre	2023-12-12T00:00:00	2024-11-08T23:00:00	4	Temperatura máxima	10.8
7535	7	Sololá	701	Sololá	2	El tablón	12	Diciembre	2023-12-12T00:00:00	2024-11-08T23:00:00	3	Temperatura mínima	10.6
7536	7	Sololá	701	Sololá	2	El tablón	12	Diciembre	2023-12-12T00:00:00	2024-11-08T23:00:00	5	Humedad	89
7537	7	Sololá	701	Sololá	2	El tablón	12	Diciembre	2023-12-12T00:00:00	2024-11-08T23:00:00	6	Velocidad del viento	24.1
7538	7	Sololá	701	Sololá	2	El tablón	12	Diciembre	2023-12-12T00:00:00	2024-11-08T23:00:00	7	Dirección del viento	24.14
7539	7	Sololá	701	Sololá	2	El tablón	12	Diciembre	2023-12-12T00:00:00	2024-11-08T23:00:00	1	Precipitación	0.2
7540	7	Sololá	701	Sololá	2	El tablón	12	Diciembre	2023-12-12T00:00:00	2024-11-08T23:00:00	8	Radiación solar	0
7541	7	Sololá	701	Sololá	2	El tablón	12	Diciembre	2023-12-13T00:00:00	2024-11-08T00:00:00	2	Temperatura media	10.8
7542	7	Sololá	701	Sololá	2	El tablón	12	Diciembre	2023-12-13T00:00:00	2024-11-08T00:00:00	4	Temperatura máxima	10.8
7543	7	Sololá	701	Sololá	2	El tablón	12	Diciembre	2023-12-13T00:00:00	2024-11-08T00:00:00	3	Temperatura mínima	10.7
7544	7	Sololá	701	Sololá	2	El tablón	12	Diciembre	2023-12-13T00:00:00	2024-11-08T00:00:00	5	Humedad	89
7545	7	Sololá	701	Sololá	2	El tablón	12	Diciembre	2023-12-13T00:00:00	2024-11-08T00:00:00	6	Velocidad del viento	20.9
7546	7	Sololá	701	Sololá	2	El tablón	12	Diciembre	2023-12-13T00:00:00	2024-11-08T00:00:00	7	Dirección del viento	20.92
7547	7	Sololá	701	Sololá	2	El tablón	12	Diciembre	2023-12-13T00:00:00	2024-11-08T00:00:00	1	Precipitación	0
7548	7	Sololá	701	Sololá	2	El tablón	12	Diciembre	2023-12-13T00:00:00	2024-11-08T00:00:00	8	Radiación solar	0
7549	7	Sololá	701	Sololá	2	El tablón	12	Diciembre	2023-12-13T00:00:00	2024-11-08T01:00:00	2	Temperatura media	10.8
7550	7	Sololá	701	Sololá	2	El tablón	12	Diciembre	2023-12-13T00:00:00	2024-11-08T01:00:00	4	Temperatura máxima	10.9
7551	7	Sololá	701	Sololá	2	El tablón	12	Diciembre	2023-12-13T00:00:00	2024-11-08T01:00:00	3	Temperatura mínima	10.8
7552	7	Sololá	701	Sololá	2	El tablón	12	Diciembre	2023-12-13T00:00:00	2024-11-08T01:00:00	5	Humedad	89
7553	7	Sololá	701	Sololá	2	El tablón	12	Diciembre	2023-12-13T00:00:00	2024-11-08T01:00:00	6	Velocidad del viento	22.5
7554	7	Sololá	701	Sololá	2	El tablón	12	Diciembre	2023-12-13T00:00:00	2024-11-08T01:00:00	7	Dirección del viento	22.53
7555	7	Sololá	701	Sololá	2	El tablón	12	Diciembre	2023-12-13T00:00:00	2024-11-08T01:00:00	1	Precipitación	0.2
7556	7	Sololá	701	Sololá	2	El tablón	12	Diciembre	2023-12-13T00:00:00	2024-11-08T01:00:00	8	Radiación solar	0
7557	7	Sololá	701	Sololá	2	El tablón	12	Diciembre	2023-12-13T00:00:00	2024-11-08T02:00:00	2	Temperatura media	10.8
7558	7	Sololá	701	Sololá	2	El tablón	12	Diciembre	2023-12-13T00:00:00	2024-11-08T02:00:00	4	Temperatura máxima	10.8
7559	7	Sololá	701	Sololá	2	El tablón	12	Diciembre	2023-12-13T00:00:00	2024-11-08T02:00:00	3	Temperatura mínima	10.6
7560	7	Sololá	701	Sololá	2	El tablón	12	Diciembre	2023-12-13T00:00:00	2024-11-08T02:00:00	5	Humedad	88
7561	7	Sololá	701	Sololá	2	El tablón	12	Diciembre	2023-12-13T00:00:00	2024-11-08T02:00:00	6	Velocidad del viento	20.9
7562	7	Sololá	701	Sololá	2	El tablón	12	Diciembre	2023-12-13T00:00:00	2024-11-08T02:00:00	7	Dirección del viento	20.92
7563	7	Sololá	701	Sololá	2	El tablón	12	Diciembre	2023-12-13T00:00:00	2024-11-08T02:00:00	1	Precipitación	0
7564	7	Sololá	701	Sololá	2	El tablón	12	Diciembre	2023-12-13T00:00:00	2024-11-08T02:00:00	8	Radiación solar	0
7565	7	Sololá	701	Sololá	2	El tablón	12	Diciembre	2023-12-13T00:00:00	2024-11-08T03:00:00	2	Temperatura media	10.4
7566	7	Sololá	701	Sololá	2	El tablón	12	Diciembre	2023-12-13T00:00:00	2024-11-08T03:00:00	4	Temperatura máxima	10.8
7567	7	Sololá	701	Sololá	2	El tablón	12	Diciembre	2023-12-13T00:00:00	2024-11-08T03:00:00	3	Temperatura mínima	10.4
7568	7	Sololá	701	Sololá	2	El tablón	12	Diciembre	2023-12-13T00:00:00	2024-11-08T03:00:00	5	Humedad	88
7569	7	Sololá	701	Sololá	2	El tablón	12	Diciembre	2023-12-13T00:00:00	2024-11-08T03:00:00	6	Velocidad del viento	20.9
7570	7	Sololá	701	Sololá	2	El tablón	12	Diciembre	2023-12-13T00:00:00	2024-11-08T03:00:00	7	Dirección del viento	20.92
7571	7	Sololá	701	Sololá	2	El tablón	12	Diciembre	2023-12-13T00:00:00	2024-11-08T03:00:00	1	Precipitación	0
7572	7	Sololá	701	Sololá	2	El tablón	12	Diciembre	2023-12-13T00:00:00	2024-11-08T03:00:00	8	Radiación solar	0
7573	7	Sololá	701	Sololá	2	El tablón	12	Diciembre	2023-12-13T00:00:00	2024-11-08T04:00:00	2	Temperatura media	10.4
7574	7	Sololá	701	Sololá	2	El tablón	12	Diciembre	2023-12-13T00:00:00	2024-11-08T04:00:00	4	Temperatura máxima	10.4
7575	7	Sololá	701	Sololá	2	El tablón	12	Diciembre	2023-12-13T00:00:00	2024-11-08T04:00:00	3	Temperatura mínima	10.4
7576	7	Sololá	701	Sololá	2	El tablón	12	Diciembre	2023-12-13T00:00:00	2024-11-08T04:00:00	5	Humedad	88
7577	7	Sololá	701	Sololá	2	El tablón	12	Diciembre	2023-12-13T00:00:00	2024-11-08T04:00:00	6	Velocidad del viento	20.9
7578	7	Sololá	701	Sololá	2	El tablón	12	Diciembre	2023-12-13T00:00:00	2024-11-08T04:00:00	7	Dirección del viento	20.92
7579	7	Sololá	701	Sololá	2	El tablón	12	Diciembre	2023-12-13T00:00:00	2024-11-08T04:00:00	1	Precipitación	0
7580	7	Sololá	701	Sololá	2	El tablón	12	Diciembre	2023-12-13T00:00:00	2024-11-08T04:00:00	8	Radiación solar	0
7581	7	Sololá	701	Sololá	2	El tablón	12	Diciembre	2023-12-13T00:00:00	2024-11-08T05:00:00	2	Temperatura media	10.4
7582	7	Sololá	701	Sololá	2	El tablón	12	Diciembre	2023-12-13T00:00:00	2024-11-08T05:00:00	4	Temperatura máxima	10.5
7583	7	Sololá	701	Sololá	2	El tablón	12	Diciembre	2023-12-13T00:00:00	2024-11-08T05:00:00	3	Temperatura mínima	10.3
7584	7	Sololá	701	Sololá	2	El tablón	12	Diciembre	2023-12-13T00:00:00	2024-11-08T05:00:00	5	Humedad	88
7585	7	Sololá	701	Sololá	2	El tablón	12	Diciembre	2023-12-13T00:00:00	2024-11-08T05:00:00	6	Velocidad del viento	20.9
7586	7	Sololá	701	Sololá	2	El tablón	12	Diciembre	2023-12-13T00:00:00	2024-11-08T05:00:00	7	Dirección del viento	20.92
7587	7	Sololá	701	Sololá	2	El tablón	12	Diciembre	2023-12-13T00:00:00	2024-11-08T05:00:00	1	Precipitación	0
7588	7	Sololá	701	Sololá	2	El tablón	12	Diciembre	2023-12-13T00:00:00	2024-11-08T05:00:00	8	Radiación solar	0
7589	7	Sololá	701	Sololá	2	El tablón	12	Diciembre	2023-12-13T00:00:00	2024-11-08T06:00:00	2	Temperatura media	10.6
7590	7	Sololá	701	Sololá	2	El tablón	12	Diciembre	2023-12-13T00:00:00	2024-11-08T06:00:00	4	Temperatura máxima	10.7
7591	7	Sololá	701	Sololá	2	El tablón	12	Diciembre	2023-12-13T00:00:00	2024-11-08T06:00:00	3	Temperatura mínima	10.4
7592	7	Sololá	701	Sololá	2	El tablón	12	Diciembre	2023-12-13T00:00:00	2024-11-08T06:00:00	5	Humedad	89
7593	7	Sololá	701	Sololá	2	El tablón	12	Diciembre	2023-12-13T00:00:00	2024-11-08T06:00:00	6	Velocidad del viento	20.9
7594	7	Sololá	701	Sololá	2	El tablón	12	Diciembre	2023-12-13T00:00:00	2024-11-08T06:00:00	7	Dirección del viento	20.92
7595	7	Sololá	701	Sololá	2	El tablón	12	Diciembre	2023-12-13T00:00:00	2024-11-08T06:00:00	1	Precipitación	0
7596	7	Sololá	701	Sololá	2	El tablón	12	Diciembre	2023-12-13T00:00:00	2024-11-08T06:00:00	8	Radiación solar	0
7597	7	Sololá	701	Sololá	2	El tablón	12	Diciembre	2023-12-13T00:00:00	2024-11-08T07:00:00	2	Temperatura media	10.9
7598	7	Sololá	701	Sololá	2	El tablón	12	Diciembre	2023-12-13T00:00:00	2024-11-08T07:00:00	4	Temperatura máxima	11
7599	7	Sololá	701	Sololá	2	El tablón	12	Diciembre	2023-12-13T00:00:00	2024-11-08T07:00:00	3	Temperatura mínima	10.5
7600	7	Sololá	701	Sololá	2	El tablón	12	Diciembre	2023-12-13T00:00:00	2024-11-08T07:00:00	5	Humedad	89
7601	7	Sololá	701	Sololá	2	El tablón	12	Diciembre	2023-12-13T00:00:00	2024-11-08T07:00:00	6	Velocidad del viento	19.3
7602	7	Sololá	701	Sololá	2	El tablón	12	Diciembre	2023-12-13T00:00:00	2024-11-08T07:00:00	7	Dirección del viento	19.31
7603	7	Sololá	701	Sololá	2	El tablón	12	Diciembre	2023-12-13T00:00:00	2024-11-08T07:00:00	1	Precipitación	0
7604	7	Sololá	701	Sololá	2	El tablón	12	Diciembre	2023-12-13T00:00:00	2024-11-08T07:00:00	8	Radiación solar	11
7605	7	Sololá	701	Sololá	2	El tablón	12	Diciembre	2023-12-13T00:00:00	2024-11-08T08:00:00	2	Temperatura media	11.8
7606	7	Sololá	701	Sololá	2	El tablón	12	Diciembre	2023-12-13T00:00:00	2024-11-08T08:00:00	4	Temperatura máxima	11.8
7607	7	Sololá	701	Sololá	2	El tablón	12	Diciembre	2023-12-13T00:00:00	2024-11-08T08:00:00	3	Temperatura mínima	10.9
7608	7	Sololá	701	Sololá	2	El tablón	12	Diciembre	2023-12-13T00:00:00	2024-11-08T08:00:00	5	Humedad	88
7609	7	Sololá	701	Sololá	2	El tablón	12	Diciembre	2023-12-13T00:00:00	2024-11-08T08:00:00	6	Velocidad del viento	22.5
7610	7	Sololá	701	Sololá	2	El tablón	12	Diciembre	2023-12-13T00:00:00	2024-11-08T08:00:00	7	Dirección del viento	22.53
7611	7	Sololá	701	Sololá	2	El tablón	12	Diciembre	2023-12-13T00:00:00	2024-11-08T08:00:00	1	Precipitación	0
7612	7	Sololá	701	Sololá	2	El tablón	12	Diciembre	2023-12-13T00:00:00	2024-11-08T08:00:00	8	Radiación solar	151
7613	7	Sololá	701	Sololá	2	El tablón	12	Diciembre	2023-12-13T00:00:00	2024-11-08T09:00:00	2	Temperatura media	12
7614	7	Sololá	701	Sololá	2	El tablón	12	Diciembre	2023-12-13T00:00:00	2024-11-08T09:00:00	4	Temperatura máxima	12.2
7615	7	Sololá	701	Sololá	2	El tablón	12	Diciembre	2023-12-13T00:00:00	2024-11-08T09:00:00	3	Temperatura mínima	11.8
7616	7	Sololá	701	Sololá	2	El tablón	12	Diciembre	2023-12-13T00:00:00	2024-11-08T09:00:00	5	Humedad	88
7617	7	Sololá	701	Sololá	2	El tablón	12	Diciembre	2023-12-13T00:00:00	2024-11-08T09:00:00	6	Velocidad del viento	20.9
7618	7	Sololá	701	Sololá	2	El tablón	12	Diciembre	2023-12-13T00:00:00	2024-11-08T09:00:00	7	Dirección del viento	20.92
7619	7	Sololá	701	Sololá	2	El tablón	12	Diciembre	2023-12-13T00:00:00	2024-11-08T09:00:00	1	Precipitación	0
7620	7	Sololá	701	Sololá	2	El tablón	12	Diciembre	2023-12-13T00:00:00	2024-11-08T09:00:00	8	Radiación solar	253
7621	7	Sololá	701	Sololá	2	El tablón	12	Diciembre	2023-12-13T00:00:00	2024-11-08T10:00:00	2	Temperatura media	12.9
7622	7	Sololá	701	Sololá	2	El tablón	12	Diciembre	2023-12-13T00:00:00	2024-11-08T10:00:00	4	Temperatura máxima	12.9
7623	7	Sololá	701	Sololá	2	El tablón	12	Diciembre	2023-12-13T00:00:00	2024-11-08T10:00:00	3	Temperatura mínima	12
7624	7	Sololá	701	Sololá	2	El tablón	12	Diciembre	2023-12-13T00:00:00	2024-11-08T10:00:00	5	Humedad	87
7625	7	Sololá	701	Sololá	2	El tablón	12	Diciembre	2023-12-13T00:00:00	2024-11-08T10:00:00	6	Velocidad del viento	14.5
7626	7	Sololá	701	Sololá	2	El tablón	12	Diciembre	2023-12-13T00:00:00	2024-11-08T10:00:00	7	Dirección del viento	14.48
7627	7	Sololá	701	Sololá	2	El tablón	12	Diciembre	2023-12-13T00:00:00	2024-11-08T10:00:00	1	Precipitación	0
7628	7	Sololá	701	Sololá	2	El tablón	12	Diciembre	2023-12-13T00:00:00	2024-11-08T10:00:00	8	Radiación solar	247
7629	7	Sololá	701	Sololá	2	El tablón	12	Diciembre	2023-12-13T00:00:00	2024-11-08T11:00:00	2	Temperatura media	14.1
7630	7	Sololá	701	Sololá	2	El tablón	12	Diciembre	2023-12-13T00:00:00	2024-11-08T11:00:00	4	Temperatura máxima	14.1
7631	7	Sololá	701	Sololá	2	El tablón	12	Diciembre	2023-12-13T00:00:00	2024-11-08T11:00:00	3	Temperatura mínima	12.8
7632	7	Sololá	701	Sololá	2	El tablón	12	Diciembre	2023-12-13T00:00:00	2024-11-08T11:00:00	5	Humedad	84
7633	7	Sololá	701	Sololá	2	El tablón	12	Diciembre	2023-12-13T00:00:00	2024-11-08T11:00:00	6	Velocidad del viento	19.3
7634	7	Sololá	701	Sololá	2	El tablón	12	Diciembre	2023-12-13T00:00:00	2024-11-08T11:00:00	7	Dirección del viento	19.31
7635	7	Sololá	701	Sololá	2	El tablón	12	Diciembre	2023-12-13T00:00:00	2024-11-08T11:00:00	1	Precipitación	0
7636	7	Sololá	701	Sololá	2	El tablón	12	Diciembre	2023-12-13T00:00:00	2024-11-08T11:00:00	8	Radiación solar	407
7637	7	Sololá	701	Sololá	2	El tablón	12	Diciembre	2023-12-13T00:00:00	2024-11-08T12:00:00	2	Temperatura media	14.8
7638	7	Sololá	701	Sololá	2	El tablón	12	Diciembre	2023-12-13T00:00:00	2024-11-08T12:00:00	4	Temperatura máxima	14.9
7639	7	Sololá	701	Sololá	2	El tablón	12	Diciembre	2023-12-13T00:00:00	2024-11-08T12:00:00	3	Temperatura mínima	14.1
7640	7	Sololá	701	Sololá	2	El tablón	12	Diciembre	2023-12-13T00:00:00	2024-11-08T12:00:00	5	Humedad	82
7641	7	Sololá	701	Sololá	2	El tablón	12	Diciembre	2023-12-13T00:00:00	2024-11-08T12:00:00	6	Velocidad del viento	22.5
7642	7	Sololá	701	Sololá	2	El tablón	12	Diciembre	2023-12-13T00:00:00	2024-11-08T12:00:00	7	Dirección del viento	22.53
7643	7	Sololá	701	Sololá	2	El tablón	12	Diciembre	2023-12-13T00:00:00	2024-11-08T12:00:00	1	Precipitación	0
7644	7	Sololá	701	Sololá	2	El tablón	12	Diciembre	2023-12-13T00:00:00	2024-11-08T12:00:00	8	Radiación solar	702
7645	7	Sololá	701	Sololá	2	El tablón	12	Diciembre	2023-12-13T00:00:00	2024-11-08T13:00:00	2	Temperatura media	14
7646	7	Sololá	701	Sololá	2	El tablón	12	Diciembre	2023-12-13T00:00:00	2024-11-08T13:00:00	4	Temperatura máxima	14.9
7647	7	Sololá	701	Sololá	2	El tablón	12	Diciembre	2023-12-13T00:00:00	2024-11-08T13:00:00	3	Temperatura mínima	13.9
7648	7	Sololá	701	Sololá	2	El tablón	12	Diciembre	2023-12-13T00:00:00	2024-11-08T13:00:00	5	Humedad	83
7649	7	Sololá	701	Sololá	2	El tablón	12	Diciembre	2023-12-13T00:00:00	2024-11-08T13:00:00	6	Velocidad del viento	19.3
7650	7	Sololá	701	Sololá	2	El tablón	12	Diciembre	2023-12-13T00:00:00	2024-11-08T13:00:00	7	Dirección del viento	19.31
7651	7	Sololá	701	Sololá	2	El tablón	12	Diciembre	2023-12-13T00:00:00	2024-11-08T13:00:00	1	Precipitación	0
7652	7	Sololá	701	Sololá	2	El tablón	12	Diciembre	2023-12-13T00:00:00	2024-11-08T13:00:00	8	Radiación solar	531
7653	7	Sololá	701	Sololá	2	El tablón	12	Diciembre	2023-12-13T00:00:00	2024-11-08T14:00:00	2	Temperatura media	15.3
7654	7	Sololá	701	Sololá	2	El tablón	12	Diciembre	2023-12-13T00:00:00	2024-11-08T14:00:00	4	Temperatura máxima	15.8
7655	7	Sololá	701	Sololá	2	El tablón	12	Diciembre	2023-12-13T00:00:00	2024-11-08T14:00:00	3	Temperatura mínima	14
7656	7	Sololá	701	Sololá	2	El tablón	12	Diciembre	2023-12-13T00:00:00	2024-11-08T14:00:00	5	Humedad	78
7657	7	Sololá	701	Sololá	2	El tablón	12	Diciembre	2023-12-13T00:00:00	2024-11-08T14:00:00	6	Velocidad del viento	17.7
7658	7	Sololá	701	Sololá	2	El tablón	12	Diciembre	2023-12-13T00:00:00	2024-11-08T14:00:00	7	Dirección del viento	17.7
7659	7	Sololá	701	Sololá	2	El tablón	12	Diciembre	2023-12-13T00:00:00	2024-11-08T14:00:00	1	Precipitación	0
7660	7	Sololá	701	Sololá	2	El tablón	12	Diciembre	2023-12-13T00:00:00	2024-11-08T14:00:00	8	Radiación solar	644
7661	7	Sololá	701	Sololá	2	El tablón	12	Diciembre	2023-12-13T00:00:00	2024-11-08T15:00:00	2	Temperatura media	13.9
7662	7	Sololá	701	Sololá	2	El tablón	12	Diciembre	2023-12-13T00:00:00	2024-11-08T15:00:00	4	Temperatura máxima	15.2
7663	7	Sololá	701	Sololá	2	El tablón	12	Diciembre	2023-12-13T00:00:00	2024-11-08T15:00:00	3	Temperatura mínima	13.7
7664	7	Sololá	701	Sololá	2	El tablón	12	Diciembre	2023-12-13T00:00:00	2024-11-08T15:00:00	5	Humedad	83
7665	7	Sololá	701	Sololá	2	El tablón	12	Diciembre	2023-12-13T00:00:00	2024-11-08T15:00:00	6	Velocidad del viento	16.1
7666	7	Sololá	701	Sololá	2	El tablón	12	Diciembre	2023-12-13T00:00:00	2024-11-08T15:00:00	7	Dirección del viento	16.09
7667	7	Sololá	701	Sololá	2	El tablón	12	Diciembre	2023-12-13T00:00:00	2024-11-08T15:00:00	1	Precipitación	0
7668	7	Sololá	701	Sololá	2	El tablón	12	Diciembre	2023-12-13T00:00:00	2024-11-08T15:00:00	8	Radiación solar	268
7669	7	Sololá	701	Sololá	2	El tablón	12	Diciembre	2023-12-13T00:00:00	2024-11-08T16:00:00	2	Temperatura media	13.6
7670	7	Sololá	701	Sololá	2	El tablón	12	Diciembre	2023-12-13T00:00:00	2024-11-08T16:00:00	4	Temperatura máxima	14.4
7671	7	Sololá	701	Sololá	2	El tablón	12	Diciembre	2023-12-13T00:00:00	2024-11-08T16:00:00	3	Temperatura mínima	13.6
7672	7	Sololá	701	Sololá	2	El tablón	12	Diciembre	2023-12-13T00:00:00	2024-11-08T16:00:00	5	Humedad	85
7673	7	Sololá	701	Sololá	2	El tablón	12	Diciembre	2023-12-13T00:00:00	2024-11-08T16:00:00	6	Velocidad del viento	16.1
7674	7	Sololá	701	Sololá	2	El tablón	12	Diciembre	2023-12-13T00:00:00	2024-11-08T16:00:00	7	Dirección del viento	16.09
7675	7	Sololá	701	Sololá	2	El tablón	12	Diciembre	2023-12-13T00:00:00	2024-11-08T16:00:00	1	Precipitación	0
7676	7	Sololá	701	Sololá	2	El tablón	12	Diciembre	2023-12-13T00:00:00	2024-11-08T16:00:00	8	Radiación solar	227
7677	7	Sololá	701	Sololá	2	El tablón	12	Diciembre	2023-12-13T00:00:00	2024-11-08T17:00:00	2	Temperatura media	13
7678	7	Sololá	701	Sololá	2	El tablón	12	Diciembre	2023-12-13T00:00:00	2024-11-08T17:00:00	4	Temperatura máxima	13.7
7679	7	Sololá	701	Sololá	2	El tablón	12	Diciembre	2023-12-13T00:00:00	2024-11-08T17:00:00	3	Temperatura mínima	13
7680	7	Sololá	701	Sololá	2	El tablón	12	Diciembre	2023-12-13T00:00:00	2024-11-08T17:00:00	5	Humedad	83
7681	7	Sololá	701	Sololá	2	El tablón	12	Diciembre	2023-12-13T00:00:00	2024-11-08T17:00:00	6	Velocidad del viento	14.5
7682	7	Sololá	701	Sololá	2	El tablón	12	Diciembre	2023-12-13T00:00:00	2024-11-08T17:00:00	7	Dirección del viento	14.48
7683	7	Sololá	701	Sololá	2	El tablón	12	Diciembre	2023-12-13T00:00:00	2024-11-08T17:00:00	1	Precipitación	0
7684	7	Sololá	701	Sololá	2	El tablón	12	Diciembre	2023-12-13T00:00:00	2024-11-08T17:00:00	8	Radiación solar	123
7685	7	Sololá	701	Sololá	2	El tablón	12	Diciembre	2023-12-13T00:00:00	2024-11-08T18:00:00	2	Temperatura media	12.2
7686	7	Sololá	701	Sololá	2	El tablón	12	Diciembre	2023-12-13T00:00:00	2024-11-08T18:00:00	4	Temperatura máxima	13
7687	7	Sololá	701	Sololá	2	El tablón	12	Diciembre	2023-12-13T00:00:00	2024-11-08T18:00:00	3	Temperatura mínima	12.2
7688	7	Sololá	701	Sololá	2	El tablón	12	Diciembre	2023-12-13T00:00:00	2024-11-08T18:00:00	5	Humedad	86
7689	7	Sololá	701	Sololá	2	El tablón	12	Diciembre	2023-12-13T00:00:00	2024-11-08T18:00:00	6	Velocidad del viento	19.3
7690	7	Sololá	701	Sololá	2	El tablón	12	Diciembre	2023-12-13T00:00:00	2024-11-08T18:00:00	7	Dirección del viento	19.31
7691	7	Sololá	701	Sololá	2	El tablón	12	Diciembre	2023-12-13T00:00:00	2024-11-08T18:00:00	1	Precipitación	0
7692	7	Sololá	701	Sololá	2	El tablón	12	Diciembre	2023-12-13T00:00:00	2024-11-08T18:00:00	8	Radiación solar	16
7693	7	Sololá	701	Sololá	2	El tablón	12	Diciembre	2023-12-13T00:00:00	2024-11-08T19:00:00	2	Temperatura media	12.3
7694	7	Sololá	701	Sololá	2	El tablón	12	Diciembre	2023-12-13T00:00:00	2024-11-08T19:00:00	4	Temperatura máxima	12.4
7695	7	Sololá	701	Sololá	2	El tablón	12	Diciembre	2023-12-13T00:00:00	2024-11-08T19:00:00	3	Temperatura mínima	12.2
7696	7	Sololá	701	Sololá	2	El tablón	12	Diciembre	2023-12-13T00:00:00	2024-11-08T19:00:00	5	Humedad	87
7697	7	Sololá	701	Sololá	2	El tablón	12	Diciembre	2023-12-13T00:00:00	2024-11-08T19:00:00	6	Velocidad del viento	22.5
7698	7	Sololá	701	Sololá	2	El tablón	12	Diciembre	2023-12-13T00:00:00	2024-11-08T19:00:00	7	Dirección del viento	22.53
7699	7	Sololá	701	Sololá	2	El tablón	12	Diciembre	2023-12-13T00:00:00	2024-11-08T19:00:00	1	Precipitación	0
7700	7	Sololá	701	Sololá	2	El tablón	12	Diciembre	2023-12-13T00:00:00	2024-11-08T19:00:00	8	Radiación solar	0
7701	7	Sololá	701	Sololá	2	El tablón	12	Diciembre	2023-12-13T00:00:00	2024-11-08T20:00:00	2	Temperatura media	12.1
7702	7	Sololá	701	Sololá	2	El tablón	12	Diciembre	2023-12-13T00:00:00	2024-11-08T20:00:00	4	Temperatura máxima	12.5
7703	7	Sololá	701	Sololá	2	El tablón	12	Diciembre	2023-12-13T00:00:00	2024-11-08T20:00:00	3	Temperatura mínima	12.1
7704	7	Sololá	701	Sololá	2	El tablón	12	Diciembre	2023-12-13T00:00:00	2024-11-08T20:00:00	5	Humedad	88
7705	7	Sololá	701	Sololá	2	El tablón	12	Diciembre	2023-12-13T00:00:00	2024-11-08T20:00:00	6	Velocidad del viento	27.4
7706	7	Sololá	701	Sololá	2	El tablón	12	Diciembre	2023-12-13T00:00:00	2024-11-08T20:00:00	7	Dirección del viento	27.36
7707	7	Sololá	701	Sololá	2	El tablón	12	Diciembre	2023-12-13T00:00:00	2024-11-08T20:00:00	1	Precipitación	0
7708	7	Sololá	701	Sololá	2	El tablón	12	Diciembre	2023-12-13T00:00:00	2024-11-08T20:00:00	8	Radiación solar	0
7709	7	Sololá	701	Sololá	2	El tablón	12	Diciembre	2023-12-13T00:00:00	2024-11-08T21:00:00	2	Temperatura media	12.1
7710	7	Sololá	701	Sololá	2	El tablón	12	Diciembre	2023-12-13T00:00:00	2024-11-08T21:00:00	4	Temperatura máxima	12.1
7711	7	Sololá	701	Sololá	2	El tablón	12	Diciembre	2023-12-13T00:00:00	2024-11-08T21:00:00	3	Temperatura mínima	11.8
7712	7	Sololá	701	Sololá	2	El tablón	12	Diciembre	2023-12-13T00:00:00	2024-11-08T21:00:00	5	Humedad	88
7713	7	Sololá	701	Sololá	2	El tablón	12	Diciembre	2023-12-13T00:00:00	2024-11-08T21:00:00	6	Velocidad del viento	24.1
7714	7	Sololá	701	Sololá	2	El tablón	12	Diciembre	2023-12-13T00:00:00	2024-11-08T21:00:00	7	Dirección del viento	24.14
7715	7	Sololá	701	Sololá	2	El tablón	12	Diciembre	2023-12-13T00:00:00	2024-11-08T21:00:00	1	Precipitación	0
7716	7	Sololá	701	Sololá	2	El tablón	12	Diciembre	2023-12-13T00:00:00	2024-11-08T21:00:00	8	Radiación solar	0
7717	7	Sololá	701	Sololá	2	El tablón	12	Diciembre	2023-12-13T00:00:00	2024-11-08T22:00:00	2	Temperatura media	12.3
7718	7	Sololá	701	Sololá	2	El tablón	12	Diciembre	2023-12-13T00:00:00	2024-11-08T22:00:00	4	Temperatura máxima	12.3
7719	7	Sololá	701	Sololá	2	El tablón	12	Diciembre	2023-12-13T00:00:00	2024-11-08T22:00:00	3	Temperatura mínima	12.1
7720	7	Sololá	701	Sololá	2	El tablón	12	Diciembre	2023-12-13T00:00:00	2024-11-08T22:00:00	5	Humedad	88
7721	7	Sololá	701	Sololá	2	El tablón	12	Diciembre	2023-12-13T00:00:00	2024-11-08T22:00:00	6	Velocidad del viento	22.5
7722	7	Sololá	701	Sololá	2	El tablón	12	Diciembre	2023-12-13T00:00:00	2024-11-08T22:00:00	7	Dirección del viento	22.53
7723	7	Sololá	701	Sololá	2	El tablón	12	Diciembre	2023-12-13T00:00:00	2024-11-08T22:00:00	1	Precipitación	0
7724	7	Sololá	701	Sololá	2	El tablón	12	Diciembre	2023-12-13T00:00:00	2024-11-08T22:00:00	8	Radiación solar	0
7725	7	Sololá	701	Sololá	2	El tablón	12	Diciembre	2023-12-13T00:00:00	2024-11-08T23:00:00	2	Temperatura media	11.9
7726	7	Sololá	701	Sololá	2	El tablón	12	Diciembre	2023-12-13T00:00:00	2024-11-08T23:00:00	4	Temperatura máxima	12.3
7727	7	Sololá	701	Sololá	2	El tablón	12	Diciembre	2023-12-13T00:00:00	2024-11-08T23:00:00	3	Temperatura mínima	11.9
7728	7	Sololá	701	Sololá	2	El tablón	12	Diciembre	2023-12-13T00:00:00	2024-11-08T23:00:00	5	Humedad	89
7729	7	Sololá	701	Sololá	2	El tablón	12	Diciembre	2023-12-13T00:00:00	2024-11-08T23:00:00	6	Velocidad del viento	20.9
7730	7	Sololá	701	Sololá	2	El tablón	12	Diciembre	2023-12-13T00:00:00	2024-11-08T23:00:00	7	Dirección del viento	20.92
7731	7	Sololá	701	Sololá	2	El tablón	12	Diciembre	2023-12-13T00:00:00	2024-11-08T23:00:00	1	Precipitación	0
7732	7	Sololá	701	Sololá	2	El tablón	12	Diciembre	2023-12-13T00:00:00	2024-11-08T23:00:00	8	Radiación solar	0
7733	7	Sololá	701	Sololá	2	El tablón	12	Diciembre	2023-12-14T00:00:00	2024-11-08T00:00:00	2	Temperatura media	12.2
7734	7	Sololá	701	Sololá	2	El tablón	12	Diciembre	2023-12-14T00:00:00	2024-11-08T00:00:00	4	Temperatura máxima	12.2
7735	7	Sololá	701	Sololá	2	El tablón	12	Diciembre	2023-12-14T00:00:00	2024-11-08T00:00:00	3	Temperatura mínima	11.8
7736	7	Sololá	701	Sololá	2	El tablón	12	Diciembre	2023-12-14T00:00:00	2024-11-08T00:00:00	5	Humedad	88
7737	7	Sololá	701	Sololá	2	El tablón	12	Diciembre	2023-12-14T00:00:00	2024-11-08T00:00:00	6	Velocidad del viento	20.9
7738	7	Sololá	701	Sololá	2	El tablón	12	Diciembre	2023-12-14T00:00:00	2024-11-08T00:00:00	7	Dirección del viento	20.92
7739	7	Sololá	701	Sololá	2	El tablón	12	Diciembre	2023-12-14T00:00:00	2024-11-08T00:00:00	1	Precipitación	0
7740	7	Sololá	701	Sololá	2	El tablón	12	Diciembre	2023-12-14T00:00:00	2024-11-08T00:00:00	8	Radiación solar	0
7741	7	Sololá	701	Sololá	2	El tablón	12	Diciembre	2023-12-14T00:00:00	2024-11-08T01:00:00	2	Temperatura media	12.2
7742	7	Sololá	701	Sololá	2	El tablón	12	Diciembre	2023-12-14T00:00:00	2024-11-08T01:00:00	4	Temperatura máxima	12.4
7743	7	Sololá	701	Sololá	2	El tablón	12	Diciembre	2023-12-14T00:00:00	2024-11-08T01:00:00	3	Temperatura mínima	12.2
7744	7	Sololá	701	Sololá	2	El tablón	12	Diciembre	2023-12-14T00:00:00	2024-11-08T01:00:00	5	Humedad	88
7745	7	Sololá	701	Sololá	2	El tablón	12	Diciembre	2023-12-14T00:00:00	2024-11-08T01:00:00	6	Velocidad del viento	19.3
7746	7	Sololá	701	Sololá	2	El tablón	12	Diciembre	2023-12-14T00:00:00	2024-11-08T01:00:00	7	Dirección del viento	19.31
7747	7	Sololá	701	Sololá	2	El tablón	12	Diciembre	2023-12-14T00:00:00	2024-11-08T01:00:00	1	Precipitación	0.2
7748	7	Sololá	701	Sololá	2	El tablón	12	Diciembre	2023-12-14T00:00:00	2024-11-08T01:00:00	8	Radiación solar	0
7749	7	Sololá	701	Sololá	2	El tablón	12	Diciembre	2023-12-14T00:00:00	2024-11-08T02:00:00	2	Temperatura media	11.9
7750	7	Sololá	701	Sololá	2	El tablón	12	Diciembre	2023-12-14T00:00:00	2024-11-08T02:00:00	4	Temperatura máxima	12.2
7751	7	Sololá	701	Sololá	2	El tablón	12	Diciembre	2023-12-14T00:00:00	2024-11-08T02:00:00	3	Temperatura mínima	11.9
7752	7	Sololá	701	Sololá	2	El tablón	12	Diciembre	2023-12-14T00:00:00	2024-11-08T02:00:00	5	Humedad	89
7753	7	Sololá	701	Sololá	2	El tablón	12	Diciembre	2023-12-14T00:00:00	2024-11-08T02:00:00	6	Velocidad del viento	19.3
7754	7	Sololá	701	Sololá	2	El tablón	12	Diciembre	2023-12-14T00:00:00	2024-11-08T02:00:00	7	Dirección del viento	19.31
7755	7	Sololá	701	Sololá	2	El tablón	12	Diciembre	2023-12-14T00:00:00	2024-11-08T02:00:00	1	Precipitación	0
7756	7	Sololá	701	Sololá	2	El tablón	12	Diciembre	2023-12-14T00:00:00	2024-11-08T02:00:00	8	Radiación solar	0
7757	7	Sololá	701	Sololá	2	El tablón	12	Diciembre	2023-12-14T00:00:00	2024-11-08T03:00:00	2	Temperatura media	11.9
7758	7	Sololá	701	Sololá	2	El tablón	12	Diciembre	2023-12-14T00:00:00	2024-11-08T03:00:00	4	Temperatura máxima	12
7759	7	Sololá	701	Sololá	2	El tablón	12	Diciembre	2023-12-14T00:00:00	2024-11-08T03:00:00	3	Temperatura mínima	11.8
7760	7	Sololá	701	Sololá	2	El tablón	12	Diciembre	2023-12-14T00:00:00	2024-11-08T03:00:00	5	Humedad	88
7761	7	Sololá	701	Sololá	2	El tablón	12	Diciembre	2023-12-14T00:00:00	2024-11-08T03:00:00	6	Velocidad del viento	17.7
7762	7	Sololá	701	Sololá	2	El tablón	12	Diciembre	2023-12-14T00:00:00	2024-11-08T03:00:00	7	Dirección del viento	17.7
7763	7	Sololá	701	Sololá	2	El tablón	12	Diciembre	2023-12-14T00:00:00	2024-11-08T03:00:00	1	Precipitación	0
7764	7	Sololá	701	Sololá	2	El tablón	12	Diciembre	2023-12-14T00:00:00	2024-11-08T03:00:00	8	Radiación solar	0
7765	7	Sololá	701	Sololá	2	El tablón	12	Diciembre	2023-12-14T00:00:00	2024-11-08T04:00:00	2	Temperatura media	12
7766	7	Sololá	701	Sololá	2	El tablón	12	Diciembre	2023-12-14T00:00:00	2024-11-08T04:00:00	4	Temperatura máxima	12.1
7767	7	Sololá	701	Sololá	2	El tablón	12	Diciembre	2023-12-14T00:00:00	2024-11-08T04:00:00	3	Temperatura mínima	11.9
7768	7	Sololá	701	Sololá	2	El tablón	12	Diciembre	2023-12-14T00:00:00	2024-11-08T04:00:00	5	Humedad	88
7769	7	Sololá	701	Sololá	2	El tablón	12	Diciembre	2023-12-14T00:00:00	2024-11-08T04:00:00	6	Velocidad del viento	17.7
7770	7	Sololá	701	Sololá	2	El tablón	12	Diciembre	2023-12-14T00:00:00	2024-11-08T04:00:00	7	Dirección del viento	17.7
7771	7	Sololá	701	Sololá	2	El tablón	12	Diciembre	2023-12-14T00:00:00	2024-11-08T04:00:00	1	Precipitación	0
7772	7	Sololá	701	Sololá	2	El tablón	12	Diciembre	2023-12-14T00:00:00	2024-11-08T04:00:00	8	Radiación solar	0
7773	7	Sololá	701	Sololá	2	El tablón	12	Diciembre	2023-12-14T00:00:00	2024-11-08T05:00:00	2	Temperatura media	12
7774	7	Sololá	701	Sololá	2	El tablón	12	Diciembre	2023-12-14T00:00:00	2024-11-08T05:00:00	4	Temperatura máxima	12.2
7775	7	Sololá	701	Sololá	2	El tablón	12	Diciembre	2023-12-14T00:00:00	2024-11-08T05:00:00	3	Temperatura mínima	12
7776	7	Sololá	701	Sololá	2	El tablón	12	Diciembre	2023-12-14T00:00:00	2024-11-08T05:00:00	5	Humedad	87
7777	7	Sololá	701	Sololá	2	El tablón	12	Diciembre	2023-12-14T00:00:00	2024-11-08T05:00:00	6	Velocidad del viento	19.3
7778	7	Sololá	701	Sololá	2	El tablón	12	Diciembre	2023-12-14T00:00:00	2024-11-08T05:00:00	7	Dirección del viento	19.31
7779	7	Sololá	701	Sololá	2	El tablón	12	Diciembre	2023-12-14T00:00:00	2024-11-08T05:00:00	1	Precipitación	0
7780	7	Sololá	701	Sololá	2	El tablón	12	Diciembre	2023-12-14T00:00:00	2024-11-08T05:00:00	8	Radiación solar	0
7781	7	Sololá	701	Sololá	2	El tablón	12	Diciembre	2023-12-14T00:00:00	2024-11-08T06:00:00	2	Temperatura media	12.3
7782	7	Sololá	701	Sololá	2	El tablón	12	Diciembre	2023-12-14T00:00:00	2024-11-08T06:00:00	4	Temperatura máxima	12.7
7783	7	Sololá	701	Sololá	2	El tablón	12	Diciembre	2023-12-14T00:00:00	2024-11-08T06:00:00	3	Temperatura mínima	11.9
7784	7	Sololá	701	Sololá	2	El tablón	12	Diciembre	2023-12-14T00:00:00	2024-11-08T06:00:00	5	Humedad	86
7785	7	Sololá	701	Sololá	2	El tablón	12	Diciembre	2023-12-14T00:00:00	2024-11-08T06:00:00	6	Velocidad del viento	17.7
7786	7	Sololá	701	Sololá	2	El tablón	12	Diciembre	2023-12-14T00:00:00	2024-11-08T06:00:00	7	Dirección del viento	17.7
7787	7	Sololá	701	Sololá	2	El tablón	12	Diciembre	2023-12-14T00:00:00	2024-11-08T06:00:00	1	Precipitación	0
7788	7	Sololá	701	Sololá	2	El tablón	12	Diciembre	2023-12-14T00:00:00	2024-11-08T06:00:00	8	Radiación solar	0
7789	7	Sololá	701	Sololá	2	El tablón	12	Diciembre	2023-12-14T00:00:00	2024-11-08T07:00:00	2	Temperatura media	12.6
7790	7	Sololá	701	Sololá	2	El tablón	12	Diciembre	2023-12-14T00:00:00	2024-11-08T07:00:00	4	Temperatura máxima	12.6
7791	7	Sololá	701	Sololá	2	El tablón	12	Diciembre	2023-12-14T00:00:00	2024-11-08T07:00:00	3	Temperatura mínima	11.9
7792	7	Sololá	701	Sololá	2	El tablón	12	Diciembre	2023-12-14T00:00:00	2024-11-08T07:00:00	5	Humedad	85
7793	7	Sololá	701	Sololá	2	El tablón	12	Diciembre	2023-12-14T00:00:00	2024-11-08T07:00:00	6	Velocidad del viento	17.7
7794	7	Sololá	701	Sololá	2	El tablón	12	Diciembre	2023-12-14T00:00:00	2024-11-08T07:00:00	7	Dirección del viento	17.7
7795	7	Sololá	701	Sololá	2	El tablón	12	Diciembre	2023-12-14T00:00:00	2024-11-08T07:00:00	1	Precipitación	0
7796	7	Sololá	701	Sololá	2	El tablón	12	Diciembre	2023-12-14T00:00:00	2024-11-08T07:00:00	8	Radiación solar	13
7797	7	Sololá	701	Sololá	2	El tablón	12	Diciembre	2023-12-14T00:00:00	2024-11-08T08:00:00	2	Temperatura media	13.9
7798	7	Sololá	701	Sololá	2	El tablón	12	Diciembre	2023-12-14T00:00:00	2024-11-08T08:00:00	4	Temperatura máxima	13.9
7799	7	Sololá	701	Sololá	2	El tablón	12	Diciembre	2023-12-14T00:00:00	2024-11-08T08:00:00	3	Temperatura mínima	12.6
7800	7	Sololá	701	Sololá	2	El tablón	12	Diciembre	2023-12-14T00:00:00	2024-11-08T08:00:00	5	Humedad	82
7801	7	Sololá	701	Sololá	2	El tablón	12	Diciembre	2023-12-14T00:00:00	2024-11-08T08:00:00	6	Velocidad del viento	17.7
7802	7	Sololá	701	Sololá	2	El tablón	12	Diciembre	2023-12-14T00:00:00	2024-11-08T08:00:00	7	Dirección del viento	17.7
7803	7	Sololá	701	Sololá	2	El tablón	12	Diciembre	2023-12-14T00:00:00	2024-11-08T08:00:00	1	Precipitación	0
7804	7	Sololá	701	Sololá	2	El tablón	12	Diciembre	2023-12-14T00:00:00	2024-11-08T08:00:00	8	Radiación solar	155
7805	7	Sololá	701	Sololá	2	El tablón	12	Diciembre	2023-12-14T00:00:00	2024-11-08T09:00:00	2	Temperatura media	15.4
7806	7	Sololá	701	Sololá	2	El tablón	12	Diciembre	2023-12-14T00:00:00	2024-11-08T09:00:00	4	Temperatura máxima	15.4
7807	7	Sololá	701	Sololá	2	El tablón	12	Diciembre	2023-12-14T00:00:00	2024-11-08T09:00:00	3	Temperatura mínima	13.9
7808	7	Sololá	701	Sololá	2	El tablón	12	Diciembre	2023-12-14T00:00:00	2024-11-08T09:00:00	5	Humedad	77
7809	7	Sololá	701	Sololá	2	El tablón	12	Diciembre	2023-12-14T00:00:00	2024-11-08T09:00:00	6	Velocidad del viento	17.7
7810	7	Sololá	701	Sololá	2	El tablón	12	Diciembre	2023-12-14T00:00:00	2024-11-08T09:00:00	7	Dirección del viento	17.7
7811	7	Sololá	701	Sololá	2	El tablón	12	Diciembre	2023-12-14T00:00:00	2024-11-08T09:00:00	1	Precipitación	0
7812	7	Sololá	701	Sololá	2	El tablón	12	Diciembre	2023-12-14T00:00:00	2024-11-08T09:00:00	8	Radiación solar	393
7813	7	Sololá	701	Sololá	2	El tablón	12	Diciembre	2023-12-14T00:00:00	2024-11-08T10:00:00	2	Temperatura media	16
7814	7	Sololá	701	Sololá	2	El tablón	12	Diciembre	2023-12-14T00:00:00	2024-11-08T10:00:00	4	Temperatura máxima	16.1
7815	7	Sololá	701	Sololá	2	El tablón	12	Diciembre	2023-12-14T00:00:00	2024-11-08T10:00:00	3	Temperatura mínima	15.3
7816	7	Sololá	701	Sololá	2	El tablón	12	Diciembre	2023-12-14T00:00:00	2024-11-08T10:00:00	5	Humedad	76
7817	7	Sololá	701	Sololá	2	El tablón	12	Diciembre	2023-12-14T00:00:00	2024-11-08T10:00:00	6	Velocidad del viento	19.3
7818	7	Sololá	701	Sololá	2	El tablón	12	Diciembre	2023-12-14T00:00:00	2024-11-08T10:00:00	7	Dirección del viento	19.31
7819	7	Sololá	701	Sololá	2	El tablón	12	Diciembre	2023-12-14T00:00:00	2024-11-08T10:00:00	1	Precipitación	0
7820	7	Sololá	701	Sololá	2	El tablón	12	Diciembre	2023-12-14T00:00:00	2024-11-08T10:00:00	8	Radiación solar	516
7821	7	Sololá	701	Sololá	2	El tablón	12	Diciembre	2023-12-14T00:00:00	2024-11-08T11:00:00	2	Temperatura media	16.8
7822	7	Sololá	701	Sololá	2	El tablón	12	Diciembre	2023-12-14T00:00:00	2024-11-08T11:00:00	4	Temperatura máxima	17
7823	7	Sololá	701	Sololá	2	El tablón	12	Diciembre	2023-12-14T00:00:00	2024-11-08T11:00:00	3	Temperatura mínima	16
7824	7	Sololá	701	Sololá	2	El tablón	12	Diciembre	2023-12-14T00:00:00	2024-11-08T11:00:00	5	Humedad	75
7825	7	Sololá	701	Sololá	2	El tablón	12	Diciembre	2023-12-14T00:00:00	2024-11-08T11:00:00	6	Velocidad del viento	17.7
7826	7	Sololá	701	Sololá	2	El tablón	12	Diciembre	2023-12-14T00:00:00	2024-11-08T11:00:00	7	Dirección del viento	17.7
7827	7	Sololá	701	Sololá	2	El tablón	12	Diciembre	2023-12-14T00:00:00	2024-11-08T11:00:00	1	Precipitación	0
7828	7	Sololá	701	Sololá	2	El tablón	12	Diciembre	2023-12-14T00:00:00	2024-11-08T11:00:00	8	Radiación solar	681
7829	7	Sololá	701	Sololá	2	El tablón	12	Diciembre	2023-12-14T00:00:00	2024-11-08T12:00:00	2	Temperatura media	17.2
7830	7	Sololá	701	Sololá	2	El tablón	12	Diciembre	2023-12-14T00:00:00	2024-11-08T12:00:00	4	Temperatura máxima	17.2
7831	7	Sololá	701	Sololá	2	El tablón	12	Diciembre	2023-12-14T00:00:00	2024-11-08T12:00:00	3	Temperatura mínima	16.6
7832	7	Sololá	701	Sololá	2	El tablón	12	Diciembre	2023-12-14T00:00:00	2024-11-08T12:00:00	5	Humedad	75
7833	7	Sololá	701	Sololá	2	El tablón	12	Diciembre	2023-12-14T00:00:00	2024-11-08T12:00:00	6	Velocidad del viento	17.7
7834	7	Sololá	701	Sololá	2	El tablón	12	Diciembre	2023-12-14T00:00:00	2024-11-08T12:00:00	7	Dirección del viento	17.7
7835	7	Sololá	701	Sololá	2	El tablón	12	Diciembre	2023-12-14T00:00:00	2024-11-08T12:00:00	1	Precipitación	0
7836	7	Sololá	701	Sololá	2	El tablón	12	Diciembre	2023-12-14T00:00:00	2024-11-08T12:00:00	8	Radiación solar	669
7837	7	Sololá	701	Sololá	2	El tablón	12	Diciembre	2023-12-14T00:00:00	2024-11-08T13:00:00	2	Temperatura media	17.5
7838	7	Sololá	701	Sololá	2	El tablón	12	Diciembre	2023-12-14T00:00:00	2024-11-08T13:00:00	4	Temperatura máxima	17.8
7839	7	Sololá	701	Sololá	2	El tablón	12	Diciembre	2023-12-14T00:00:00	2024-11-08T13:00:00	3	Temperatura mínima	17
7840	7	Sololá	701	Sololá	2	El tablón	12	Diciembre	2023-12-14T00:00:00	2024-11-08T13:00:00	5	Humedad	74
7841	7	Sololá	701	Sololá	2	El tablón	12	Diciembre	2023-12-14T00:00:00	2024-11-08T13:00:00	6	Velocidad del viento	16.1
7842	7	Sololá	701	Sololá	2	El tablón	12	Diciembre	2023-12-14T00:00:00	2024-11-08T13:00:00	7	Dirección del viento	16.09
7843	7	Sololá	701	Sololá	2	El tablón	12	Diciembre	2023-12-14T00:00:00	2024-11-08T13:00:00	1	Precipitación	0
7844	7	Sololá	701	Sololá	2	El tablón	12	Diciembre	2023-12-14T00:00:00	2024-11-08T13:00:00	8	Radiación solar	727
7845	7	Sololá	701	Sololá	2	El tablón	12	Diciembre	2023-12-14T00:00:00	2024-11-08T14:00:00	2	Temperatura media	17.8
7846	7	Sololá	701	Sololá	2	El tablón	12	Diciembre	2023-12-14T00:00:00	2024-11-08T14:00:00	4	Temperatura máxima	17.9
7847	7	Sololá	701	Sololá	2	El tablón	12	Diciembre	2023-12-14T00:00:00	2024-11-08T14:00:00	3	Temperatura mínima	17.3
7848	7	Sololá	701	Sololá	2	El tablón	12	Diciembre	2023-12-14T00:00:00	2024-11-08T14:00:00	5	Humedad	73
7849	7	Sololá	701	Sololá	2	El tablón	12	Diciembre	2023-12-14T00:00:00	2024-11-08T14:00:00	6	Velocidad del viento	14.5
7850	7	Sololá	701	Sololá	2	El tablón	12	Diciembre	2023-12-14T00:00:00	2024-11-08T14:00:00	7	Dirección del viento	14.48
7851	7	Sololá	701	Sololá	2	El tablón	12	Diciembre	2023-12-14T00:00:00	2024-11-08T14:00:00	1	Precipitación	0
7852	7	Sololá	701	Sololá	2	El tablón	12	Diciembre	2023-12-14T00:00:00	2024-11-08T14:00:00	8	Radiación solar	706
7853	7	Sololá	701	Sololá	2	El tablón	12	Diciembre	2023-12-14T00:00:00	2024-11-08T15:00:00	2	Temperatura media	17.2
7854	7	Sololá	701	Sololá	2	El tablón	12	Diciembre	2023-12-14T00:00:00	2024-11-08T15:00:00	4	Temperatura máxima	18.3
7855	7	Sololá	701	Sololá	2	El tablón	12	Diciembre	2023-12-14T00:00:00	2024-11-08T15:00:00	3	Temperatura mínima	17
7856	7	Sololá	701	Sololá	2	El tablón	12	Diciembre	2023-12-14T00:00:00	2024-11-08T15:00:00	5	Humedad	74
7857	7	Sololá	701	Sololá	2	El tablón	12	Diciembre	2023-12-14T00:00:00	2024-11-08T15:00:00	6	Velocidad del viento	14.5
7858	7	Sololá	701	Sololá	2	El tablón	12	Diciembre	2023-12-14T00:00:00	2024-11-08T15:00:00	7	Dirección del viento	14.48
7859	7	Sololá	701	Sololá	2	El tablón	12	Diciembre	2023-12-14T00:00:00	2024-11-08T15:00:00	1	Precipitación	0
7860	7	Sololá	701	Sololá	2	El tablón	12	Diciembre	2023-12-14T00:00:00	2024-11-08T15:00:00	8	Radiación solar	584
7861	7	Sololá	701	Sololá	2	El tablón	12	Diciembre	2023-12-14T00:00:00	2024-11-08T16:00:00	2	Temperatura media	16.8
7862	7	Sololá	701	Sololá	2	El tablón	12	Diciembre	2023-12-14T00:00:00	2024-11-08T16:00:00	4	Temperatura máxima	17.3
7863	7	Sololá	701	Sololá	2	El tablón	12	Diciembre	2023-12-14T00:00:00	2024-11-08T16:00:00	3	Temperatura mínima	16.7
7864	7	Sololá	701	Sololá	2	El tablón	12	Diciembre	2023-12-14T00:00:00	2024-11-08T16:00:00	5	Humedad	75
7865	7	Sololá	701	Sololá	2	El tablón	12	Diciembre	2023-12-14T00:00:00	2024-11-08T16:00:00	6	Velocidad del viento	14.5
7866	7	Sololá	701	Sololá	2	El tablón	12	Diciembre	2023-12-14T00:00:00	2024-11-08T16:00:00	7	Dirección del viento	14.48
7867	7	Sololá	701	Sololá	2	El tablón	12	Diciembre	2023-12-14T00:00:00	2024-11-08T16:00:00	1	Precipitación	0
7868	7	Sololá	701	Sololá	2	El tablón	12	Diciembre	2023-12-14T00:00:00	2024-11-08T16:00:00	8	Radiación solar	405
7869	7	Sololá	701	Sololá	2	El tablón	12	Diciembre	2023-12-14T00:00:00	2024-11-08T17:00:00	2	Temperatura media	15.1
7870	7	Sololá	701	Sololá	2	El tablón	12	Diciembre	2023-12-14T00:00:00	2024-11-08T17:00:00	4	Temperatura máxima	16.8
7871	7	Sololá	701	Sololá	2	El tablón	12	Diciembre	2023-12-14T00:00:00	2024-11-08T17:00:00	3	Temperatura mínima	15.1
7872	7	Sololá	701	Sololá	2	El tablón	12	Diciembre	2023-12-14T00:00:00	2024-11-08T17:00:00	5	Humedad	81
7873	7	Sololá	701	Sololá	2	El tablón	12	Diciembre	2023-12-14T00:00:00	2024-11-08T17:00:00	6	Velocidad del viento	12.9
7874	7	Sololá	701	Sololá	2	El tablón	12	Diciembre	2023-12-14T00:00:00	2024-11-08T17:00:00	7	Dirección del viento	12.87
7875	7	Sololá	701	Sololá	2	El tablón	12	Diciembre	2023-12-14T00:00:00	2024-11-08T17:00:00	1	Precipitación	0
7876	7	Sololá	701	Sololá	2	El tablón	12	Diciembre	2023-12-14T00:00:00	2024-11-08T17:00:00	8	Radiación solar	144
7877	7	Sololá	701	Sololá	2	El tablón	12	Diciembre	2023-12-14T00:00:00	2024-11-08T18:00:00	2	Temperatura media	13.5
7878	7	Sololá	701	Sololá	2	El tablón	12	Diciembre	2023-12-14T00:00:00	2024-11-08T18:00:00	4	Temperatura máxima	15.1
7879	7	Sololá	701	Sololá	2	El tablón	12	Diciembre	2023-12-14T00:00:00	2024-11-08T18:00:00	3	Temperatura mínima	13.5
7880	7	Sololá	701	Sololá	2	El tablón	12	Diciembre	2023-12-14T00:00:00	2024-11-08T18:00:00	5	Humedad	85
7881	7	Sololá	701	Sololá	2	El tablón	12	Diciembre	2023-12-14T00:00:00	2024-11-08T18:00:00	6	Velocidad del viento	11.3
7882	7	Sololá	701	Sololá	2	El tablón	12	Diciembre	2023-12-14T00:00:00	2024-11-08T18:00:00	7	Dirección del viento	11.27
7883	7	Sololá	701	Sololá	2	El tablón	12	Diciembre	2023-12-14T00:00:00	2024-11-08T18:00:00	1	Precipitación	0
7884	7	Sololá	701	Sololá	2	El tablón	12	Diciembre	2023-12-14T00:00:00	2024-11-08T18:00:00	8	Radiación solar	16
7885	7	Sololá	701	Sololá	2	El tablón	12	Diciembre	2023-12-14T00:00:00	2024-11-08T19:00:00	2	Temperatura media	12.8
7886	7	Sololá	701	Sololá	2	El tablón	12	Diciembre	2023-12-14T00:00:00	2024-11-08T19:00:00	4	Temperatura máxima	13.5
7887	7	Sololá	701	Sololá	2	El tablón	12	Diciembre	2023-12-14T00:00:00	2024-11-08T19:00:00	3	Temperatura mínima	12.8
7888	7	Sololá	701	Sololá	2	El tablón	12	Diciembre	2023-12-14T00:00:00	2024-11-08T19:00:00	5	Humedad	87
7889	7	Sololá	701	Sololá	2	El tablón	12	Diciembre	2023-12-14T00:00:00	2024-11-08T19:00:00	6	Velocidad del viento	9.7
7890	7	Sololá	701	Sololá	2	El tablón	12	Diciembre	2023-12-14T00:00:00	2024-11-08T19:00:00	7	Dirección del viento	9.66
7891	7	Sololá	701	Sololá	2	El tablón	12	Diciembre	2023-12-14T00:00:00	2024-11-08T19:00:00	1	Precipitación	0
7892	7	Sololá	701	Sololá	2	El tablón	12	Diciembre	2023-12-14T00:00:00	2024-11-08T19:00:00	8	Radiación solar	0
7893	7	Sololá	701	Sololá	2	El tablón	12	Diciembre	2023-12-14T00:00:00	2024-11-08T20:00:00	2	Temperatura media	12.7
7894	7	Sololá	701	Sololá	2	El tablón	12	Diciembre	2023-12-14T00:00:00	2024-11-08T20:00:00	4	Temperatura máxima	12.9
7895	7	Sololá	701	Sololá	2	El tablón	12	Diciembre	2023-12-14T00:00:00	2024-11-08T20:00:00	3	Temperatura mínima	12.7
7896	7	Sololá	701	Sololá	2	El tablón	12	Diciembre	2023-12-14T00:00:00	2024-11-08T20:00:00	5	Humedad	87
7897	7	Sololá	701	Sololá	2	El tablón	12	Diciembre	2023-12-14T00:00:00	2024-11-08T20:00:00	6	Velocidad del viento	8
7898	7	Sololá	701	Sololá	2	El tablón	12	Diciembre	2023-12-14T00:00:00	2024-11-08T20:00:00	7	Dirección del viento	8.05
7899	7	Sololá	701	Sololá	2	El tablón	12	Diciembre	2023-12-14T00:00:00	2024-11-08T20:00:00	1	Precipitación	0
7900	7	Sololá	701	Sololá	2	El tablón	12	Diciembre	2023-12-14T00:00:00	2024-11-08T20:00:00	8	Radiación solar	0
7901	7	Sololá	701	Sololá	2	El tablón	12	Diciembre	2023-12-14T00:00:00	2024-11-08T21:00:00	2	Temperatura media	12.6
7902	7	Sololá	701	Sololá	2	El tablón	12	Diciembre	2023-12-14T00:00:00	2024-11-08T21:00:00	4	Temperatura máxima	12.7
7903	7	Sololá	701	Sololá	2	El tablón	12	Diciembre	2023-12-14T00:00:00	2024-11-08T21:00:00	3	Temperatura mínima	12.5
7904	7	Sololá	701	Sololá	2	El tablón	12	Diciembre	2023-12-14T00:00:00	2024-11-08T21:00:00	5	Humedad	86
7905	7	Sololá	701	Sololá	2	El tablón	12	Diciembre	2023-12-14T00:00:00	2024-11-08T21:00:00	6	Velocidad del viento	9.7
7906	7	Sololá	701	Sololá	2	El tablón	12	Diciembre	2023-12-14T00:00:00	2024-11-08T21:00:00	7	Dirección del viento	9.66
7907	7	Sololá	701	Sololá	2	El tablón	12	Diciembre	2023-12-14T00:00:00	2024-11-08T21:00:00	1	Precipitación	0
7908	7	Sololá	701	Sololá	2	El tablón	12	Diciembre	2023-12-14T00:00:00	2024-11-08T21:00:00	8	Radiación solar	0
7909	7	Sololá	701	Sololá	2	El tablón	12	Diciembre	2023-12-14T00:00:00	2024-11-08T22:00:00	2	Temperatura media	12.2
7910	7	Sololá	701	Sololá	2	El tablón	12	Diciembre	2023-12-14T00:00:00	2024-11-08T22:00:00	4	Temperatura máxima	12.6
7911	7	Sololá	701	Sololá	2	El tablón	12	Diciembre	2023-12-14T00:00:00	2024-11-08T22:00:00	3	Temperatura mínima	12.2
7912	7	Sololá	701	Sololá	2	El tablón	12	Diciembre	2023-12-14T00:00:00	2024-11-08T22:00:00	5	Humedad	87
7913	7	Sololá	701	Sololá	2	El tablón	12	Diciembre	2023-12-14T00:00:00	2024-11-08T22:00:00	6	Velocidad del viento	6.4
7914	7	Sololá	701	Sololá	2	El tablón	12	Diciembre	2023-12-14T00:00:00	2024-11-08T22:00:00	7	Dirección del viento	6.44
7915	7	Sololá	701	Sololá	2	El tablón	12	Diciembre	2023-12-14T00:00:00	2024-11-08T22:00:00	1	Precipitación	0
7916	7	Sololá	701	Sololá	2	El tablón	12	Diciembre	2023-12-14T00:00:00	2024-11-08T22:00:00	8	Radiación solar	0
7917	7	Sololá	701	Sololá	2	El tablón	12	Diciembre	2023-12-14T00:00:00	2024-11-08T23:00:00	2	Temperatura media	12
7918	7	Sololá	701	Sololá	2	El tablón	12	Diciembre	2023-12-14T00:00:00	2024-11-08T23:00:00	4	Temperatura máxima	12.2
7919	7	Sololá	701	Sololá	2	El tablón	12	Diciembre	2023-12-14T00:00:00	2024-11-08T23:00:00	3	Temperatura mínima	11.9
7920	7	Sololá	701	Sololá	2	El tablón	12	Diciembre	2023-12-14T00:00:00	2024-11-08T23:00:00	5	Humedad	86
7921	7	Sololá	701	Sololá	2	El tablón	12	Diciembre	2023-12-14T00:00:00	2024-11-08T23:00:00	6	Velocidad del viento	8
7922	7	Sololá	701	Sololá	2	El tablón	12	Diciembre	2023-12-14T00:00:00	2024-11-08T23:00:00	7	Dirección del viento	8.05
7923	7	Sololá	701	Sololá	2	El tablón	12	Diciembre	2023-12-14T00:00:00	2024-11-08T23:00:00	1	Precipitación	0
7924	7	Sololá	701	Sololá	2	El tablón	12	Diciembre	2023-12-14T00:00:00	2024-11-08T23:00:00	8	Radiación solar	0
7925	7	Sololá	701	Sololá	2	El tablón	12	Diciembre	2023-12-15T00:00:00	2024-11-08T00:00:00	2	Temperatura media	12.2
7926	7	Sololá	701	Sololá	2	El tablón	12	Diciembre	2023-12-15T00:00:00	2024-11-08T00:00:00	4	Temperatura máxima	12.2
7927	7	Sololá	701	Sololá	2	El tablón	12	Diciembre	2023-12-15T00:00:00	2024-11-08T00:00:00	3	Temperatura mínima	11.9
7928	7	Sololá	701	Sololá	2	El tablón	12	Diciembre	2023-12-15T00:00:00	2024-11-08T00:00:00	5	Humedad	82
7929	7	Sololá	701	Sololá	2	El tablón	12	Diciembre	2023-12-15T00:00:00	2024-11-08T00:00:00	6	Velocidad del viento	4.8
7930	7	Sololá	701	Sololá	2	El tablón	12	Diciembre	2023-12-15T00:00:00	2024-11-08T00:00:00	7	Dirección del viento	4.83
7931	7	Sololá	701	Sololá	2	El tablón	12	Diciembre	2023-12-15T00:00:00	2024-11-08T00:00:00	1	Precipitación	0
7932	7	Sololá	701	Sololá	2	El tablón	12	Diciembre	2023-12-15T00:00:00	2024-11-08T00:00:00	8	Radiación solar	0
7933	7	Sololá	701	Sololá	2	El tablón	12	Diciembre	2023-12-15T00:00:00	2024-11-08T01:00:00	2	Temperatura media	12.6
7934	7	Sololá	701	Sololá	2	El tablón	12	Diciembre	2023-12-15T00:00:00	2024-11-08T01:00:00	4	Temperatura máxima	12.6
7935	7	Sololá	701	Sololá	2	El tablón	12	Diciembre	2023-12-15T00:00:00	2024-11-08T01:00:00	3	Temperatura mínima	12.1
7936	7	Sololá	701	Sololá	2	El tablón	12	Diciembre	2023-12-15T00:00:00	2024-11-08T01:00:00	5	Humedad	79
7937	7	Sololá	701	Sololá	2	El tablón	12	Diciembre	2023-12-15T00:00:00	2024-11-08T01:00:00	6	Velocidad del viento	6.4
7938	7	Sololá	701	Sololá	2	El tablón	12	Diciembre	2023-12-15T00:00:00	2024-11-08T01:00:00	7	Dirección del viento	6.44
7939	7	Sololá	701	Sololá	2	El tablón	12	Diciembre	2023-12-15T00:00:00	2024-11-08T01:00:00	1	Precipitación	0
7940	7	Sololá	701	Sololá	2	El tablón	12	Diciembre	2023-12-15T00:00:00	2024-11-08T01:00:00	8	Radiación solar	0
7941	7	Sololá	701	Sololá	2	El tablón	12	Diciembre	2023-12-15T00:00:00	2024-11-08T02:00:00	2	Temperatura media	12.8
7942	7	Sololá	701	Sololá	2	El tablón	12	Diciembre	2023-12-15T00:00:00	2024-11-08T02:00:00	4	Temperatura máxima	12.8
7943	7	Sololá	701	Sololá	2	El tablón	12	Diciembre	2023-12-15T00:00:00	2024-11-08T02:00:00	3	Temperatura mínima	12.3
7944	7	Sololá	701	Sololá	2	El tablón	12	Diciembre	2023-12-15T00:00:00	2024-11-08T02:00:00	5	Humedad	82
7945	7	Sololá	701	Sololá	2	El tablón	12	Diciembre	2023-12-15T00:00:00	2024-11-08T02:00:00	6	Velocidad del viento	8
7946	7	Sololá	701	Sololá	2	El tablón	12	Diciembre	2023-12-15T00:00:00	2024-11-08T02:00:00	7	Dirección del viento	8.05
7947	7	Sololá	701	Sololá	2	El tablón	12	Diciembre	2023-12-15T00:00:00	2024-11-08T02:00:00	1	Precipitación	0
7948	7	Sololá	701	Sololá	2	El tablón	12	Diciembre	2023-12-15T00:00:00	2024-11-08T02:00:00	8	Radiación solar	0
7949	7	Sololá	701	Sololá	2	El tablón	12	Diciembre	2023-12-15T00:00:00	2024-11-08T03:00:00	2	Temperatura media	12.6
7950	7	Sololá	701	Sololá	2	El tablón	12	Diciembre	2023-12-15T00:00:00	2024-11-08T03:00:00	4	Temperatura máxima	12.9
7951	7	Sololá	701	Sololá	2	El tablón	12	Diciembre	2023-12-15T00:00:00	2024-11-08T03:00:00	3	Temperatura mínima	12.6
7952	7	Sololá	701	Sololá	2	El tablón	12	Diciembre	2023-12-15T00:00:00	2024-11-08T03:00:00	5	Humedad	82
7953	7	Sololá	701	Sololá	2	El tablón	12	Diciembre	2023-12-15T00:00:00	2024-11-08T03:00:00	6	Velocidad del viento	8
7954	7	Sololá	701	Sololá	2	El tablón	12	Diciembre	2023-12-15T00:00:00	2024-11-08T03:00:00	7	Dirección del viento	8.05
7955	7	Sololá	701	Sololá	2	El tablón	12	Diciembre	2023-12-15T00:00:00	2024-11-08T03:00:00	1	Precipitación	0
7956	7	Sololá	701	Sololá	2	El tablón	12	Diciembre	2023-12-15T00:00:00	2024-11-08T03:00:00	8	Radiación solar	0
7957	7	Sololá	701	Sololá	2	El tablón	12	Diciembre	2023-12-15T00:00:00	2024-11-08T04:00:00	2	Temperatura media	12.2
7958	7	Sololá	701	Sololá	2	El tablón	12	Diciembre	2023-12-15T00:00:00	2024-11-08T04:00:00	4	Temperatura máxima	12.6
7959	7	Sololá	701	Sololá	2	El tablón	12	Diciembre	2023-12-15T00:00:00	2024-11-08T04:00:00	3	Temperatura mínima	12.2
7960	7	Sololá	701	Sololá	2	El tablón	12	Diciembre	2023-12-15T00:00:00	2024-11-08T04:00:00	5	Humedad	82
7961	7	Sololá	701	Sololá	2	El tablón	12	Diciembre	2023-12-15T00:00:00	2024-11-08T04:00:00	6	Velocidad del viento	8
7962	7	Sololá	701	Sololá	2	El tablón	12	Diciembre	2023-12-15T00:00:00	2024-11-08T04:00:00	7	Dirección del viento	8.05
7963	7	Sololá	701	Sololá	2	El tablón	12	Diciembre	2023-12-15T00:00:00	2024-11-08T04:00:00	1	Precipitación	0
7964	7	Sololá	701	Sololá	2	El tablón	12	Diciembre	2023-12-15T00:00:00	2024-11-08T04:00:00	8	Radiación solar	0
7965	7	Sololá	701	Sololá	2	El tablón	12	Diciembre	2023-12-15T00:00:00	2024-11-08T05:00:00	2	Temperatura media	12.2
7966	7	Sololá	701	Sololá	2	El tablón	12	Diciembre	2023-12-15T00:00:00	2024-11-08T05:00:00	4	Temperatura máxima	12.3
7967	7	Sololá	701	Sololá	2	El tablón	12	Diciembre	2023-12-15T00:00:00	2024-11-08T05:00:00	3	Temperatura mínima	12.1
7968	7	Sololá	701	Sololá	2	El tablón	12	Diciembre	2023-12-15T00:00:00	2024-11-08T05:00:00	5	Humedad	80
7969	7	Sololá	701	Sololá	2	El tablón	12	Diciembre	2023-12-15T00:00:00	2024-11-08T05:00:00	6	Velocidad del viento	9.7
7970	7	Sololá	701	Sololá	2	El tablón	12	Diciembre	2023-12-15T00:00:00	2024-11-08T05:00:00	7	Dirección del viento	9.66
7971	7	Sololá	701	Sololá	2	El tablón	12	Diciembre	2023-12-15T00:00:00	2024-11-08T05:00:00	1	Precipitación	0
7972	7	Sololá	701	Sololá	2	El tablón	12	Diciembre	2023-12-15T00:00:00	2024-11-08T05:00:00	8	Radiación solar	0
7973	7	Sololá	701	Sololá	2	El tablón	12	Diciembre	2023-12-15T00:00:00	2024-11-08T06:00:00	2	Temperatura media	12.3
7974	7	Sololá	701	Sololá	2	El tablón	12	Diciembre	2023-12-15T00:00:00	2024-11-08T06:00:00	4	Temperatura máxima	12.5
7975	7	Sololá	701	Sololá	2	El tablón	12	Diciembre	2023-12-15T00:00:00	2024-11-08T06:00:00	3	Temperatura mínima	12.2
7976	7	Sololá	701	Sololá	2	El tablón	12	Diciembre	2023-12-15T00:00:00	2024-11-08T06:00:00	5	Humedad	82
7977	7	Sololá	701	Sololá	2	El tablón	12	Diciembre	2023-12-15T00:00:00	2024-11-08T06:00:00	6	Velocidad del viento	12.9
7978	7	Sololá	701	Sololá	2	El tablón	12	Diciembre	2023-12-15T00:00:00	2024-11-08T06:00:00	7	Dirección del viento	12.87
7979	7	Sololá	701	Sololá	2	El tablón	12	Diciembre	2023-12-15T00:00:00	2024-11-08T06:00:00	1	Precipitación	0
7980	7	Sololá	701	Sololá	2	El tablón	12	Diciembre	2023-12-15T00:00:00	2024-11-08T06:00:00	8	Radiación solar	0
7981	7	Sololá	701	Sololá	2	El tablón	12	Diciembre	2023-12-15T00:00:00	2024-11-08T07:00:00	2	Temperatura media	12.9
7982	7	Sololá	701	Sololá	2	El tablón	12	Diciembre	2023-12-15T00:00:00	2024-11-08T07:00:00	4	Temperatura máxima	12.9
7983	7	Sololá	701	Sololá	2	El tablón	12	Diciembre	2023-12-15T00:00:00	2024-11-08T07:00:00	3	Temperatura mínima	12.3
7984	7	Sololá	701	Sololá	2	El tablón	12	Diciembre	2023-12-15T00:00:00	2024-11-08T07:00:00	5	Humedad	81
7985	7	Sololá	701	Sololá	2	El tablón	12	Diciembre	2023-12-15T00:00:00	2024-11-08T07:00:00	6	Velocidad del viento	9.7
7986	7	Sololá	701	Sololá	2	El tablón	12	Diciembre	2023-12-15T00:00:00	2024-11-08T07:00:00	7	Dirección del viento	9.66
7987	7	Sololá	701	Sololá	2	El tablón	12	Diciembre	2023-12-15T00:00:00	2024-11-08T07:00:00	1	Precipitación	0
7988	7	Sololá	701	Sololá	2	El tablón	12	Diciembre	2023-12-15T00:00:00	2024-11-08T07:00:00	8	Radiación solar	18
7989	7	Sololá	701	Sololá	2	El tablón	12	Diciembre	2023-12-15T00:00:00	2024-11-08T08:00:00	2	Temperatura media	14.3
7990	7	Sololá	701	Sololá	2	El tablón	12	Diciembre	2023-12-15T00:00:00	2024-11-08T08:00:00	4	Temperatura máxima	14.4
7991	7	Sololá	701	Sololá	2	El tablón	12	Diciembre	2023-12-15T00:00:00	2024-11-08T08:00:00	3	Temperatura mínima	12.9
7992	7	Sololá	701	Sololá	2	El tablón	12	Diciembre	2023-12-15T00:00:00	2024-11-08T08:00:00	5	Humedad	78
7993	7	Sololá	701	Sololá	2	El tablón	12	Diciembre	2023-12-15T00:00:00	2024-11-08T08:00:00	6	Velocidad del viento	9.7
7994	7	Sololá	701	Sololá	2	El tablón	12	Diciembre	2023-12-15T00:00:00	2024-11-08T08:00:00	7	Dirección del viento	9.66
7995	7	Sololá	701	Sololá	2	El tablón	12	Diciembre	2023-12-15T00:00:00	2024-11-08T08:00:00	1	Precipitación	0
7996	7	Sololá	701	Sololá	2	El tablón	12	Diciembre	2023-12-15T00:00:00	2024-11-08T08:00:00	8	Radiación solar	132
7997	7	Sololá	701	Sololá	2	El tablón	12	Diciembre	2023-12-15T00:00:00	2024-11-08T09:00:00	2	Temperatura media	16.6
7998	7	Sololá	701	Sololá	2	El tablón	12	Diciembre	2023-12-15T00:00:00	2024-11-08T09:00:00	4	Temperatura máxima	16.6
7999	7	Sololá	701	Sololá	2	El tablón	12	Diciembre	2023-12-15T00:00:00	2024-11-08T09:00:00	3	Temperatura mínima	14.3
8000	7	Sololá	701	Sololá	2	El tablón	12	Diciembre	2023-12-15T00:00:00	2024-11-08T09:00:00	5	Humedad	73
8001	7	Sololá	701	Sololá	2	El tablón	12	Diciembre	2023-12-15T00:00:00	2024-11-08T09:00:00	6	Velocidad del viento	8
8002	7	Sololá	701	Sololá	2	El tablón	12	Diciembre	2023-12-15T00:00:00	2024-11-08T09:00:00	7	Dirección del viento	8.05
8003	7	Sololá	701	Sololá	2	El tablón	12	Diciembre	2023-12-15T00:00:00	2024-11-08T09:00:00	1	Precipitación	0
8004	7	Sololá	701	Sololá	2	El tablón	12	Diciembre	2023-12-15T00:00:00	2024-11-08T09:00:00	8	Radiación solar	364
8005	7	Sololá	701	Sololá	2	El tablón	12	Diciembre	2023-12-15T00:00:00	2024-11-08T10:00:00	2	Temperatura media	17.7
8006	7	Sololá	701	Sololá	2	El tablón	12	Diciembre	2023-12-15T00:00:00	2024-11-08T10:00:00	4	Temperatura máxima	17.7
8007	7	Sololá	701	Sololá	2	El tablón	12	Diciembre	2023-12-15T00:00:00	2024-11-08T10:00:00	3	Temperatura mínima	16.6
8008	7	Sololá	701	Sololá	2	El tablón	12	Diciembre	2023-12-15T00:00:00	2024-11-08T10:00:00	5	Humedad	69
8009	7	Sololá	701	Sololá	2	El tablón	12	Diciembre	2023-12-15T00:00:00	2024-11-08T10:00:00	6	Velocidad del viento	9.7
8010	7	Sololá	701	Sololá	2	El tablón	12	Diciembre	2023-12-15T00:00:00	2024-11-08T10:00:00	7	Dirección del viento	9.66
8011	7	Sololá	701	Sololá	2	El tablón	12	Diciembre	2023-12-15T00:00:00	2024-11-08T10:00:00	1	Precipitación	0
8012	7	Sololá	701	Sololá	2	El tablón	12	Diciembre	2023-12-15T00:00:00	2024-11-08T10:00:00	8	Radiación solar	558
8013	7	Sololá	701	Sololá	2	El tablón	12	Diciembre	2023-12-15T00:00:00	2024-11-08T11:00:00	2	Temperatura media	18.3
8014	7	Sololá	701	Sololá	2	El tablón	12	Diciembre	2023-12-15T00:00:00	2024-11-08T11:00:00	4	Temperatura máxima	18.8
8015	7	Sololá	701	Sololá	2	El tablón	12	Diciembre	2023-12-15T00:00:00	2024-11-08T11:00:00	3	Temperatura mínima	17
8016	7	Sololá	701	Sololá	2	El tablón	12	Diciembre	2023-12-15T00:00:00	2024-11-08T11:00:00	5	Humedad	67
8017	7	Sololá	701	Sololá	2	El tablón	12	Diciembre	2023-12-15T00:00:00	2024-11-08T11:00:00	6	Velocidad del viento	6.4
8018	7	Sololá	701	Sololá	2	El tablón	12	Diciembre	2023-12-15T00:00:00	2024-11-08T11:00:00	7	Dirección del viento	6.44
8019	7	Sololá	701	Sololá	2	El tablón	12	Diciembre	2023-12-15T00:00:00	2024-11-08T11:00:00	1	Precipitación	0
8020	7	Sololá	701	Sololá	2	El tablón	12	Diciembre	2023-12-15T00:00:00	2024-11-08T11:00:00	8	Radiación solar	531
8021	7	Sololá	701	Sololá	2	El tablón	12	Diciembre	2023-12-15T00:00:00	2024-11-08T12:00:00	2	Temperatura media	17.8
8022	7	Sololá	701	Sololá	2	El tablón	12	Diciembre	2023-12-15T00:00:00	2024-11-08T12:00:00	4	Temperatura máxima	18.4
8023	7	Sololá	701	Sololá	2	El tablón	12	Diciembre	2023-12-15T00:00:00	2024-11-08T12:00:00	3	Temperatura mínima	17.6
8024	7	Sololá	701	Sololá	2	El tablón	12	Diciembre	2023-12-15T00:00:00	2024-11-08T12:00:00	5	Humedad	68
8025	7	Sololá	701	Sololá	2	El tablón	12	Diciembre	2023-12-15T00:00:00	2024-11-08T12:00:00	6	Velocidad del viento	4.8
8026	7	Sololá	701	Sololá	2	El tablón	12	Diciembre	2023-12-15T00:00:00	2024-11-08T12:00:00	7	Dirección del viento	4.83
8027	7	Sololá	701	Sololá	2	El tablón	12	Diciembre	2023-12-15T00:00:00	2024-11-08T12:00:00	1	Precipitación	0
8028	7	Sololá	701	Sololá	2	El tablón	12	Diciembre	2023-12-15T00:00:00	2024-11-08T12:00:00	8	Radiación solar	278
8029	7	Sololá	701	Sololá	2	El tablón	12	Diciembre	2023-12-15T00:00:00	2024-11-08T13:00:00	2	Temperatura media	18.2
8030	7	Sololá	701	Sololá	2	El tablón	12	Diciembre	2023-12-15T00:00:00	2024-11-08T13:00:00	4	Temperatura máxima	18.3
8031	7	Sololá	701	Sololá	2	El tablón	12	Diciembre	2023-12-15T00:00:00	2024-11-08T13:00:00	3	Temperatura mínima	17.7
8032	7	Sololá	701	Sololá	2	El tablón	12	Diciembre	2023-12-15T00:00:00	2024-11-08T13:00:00	5	Humedad	67
8033	7	Sololá	701	Sololá	2	El tablón	12	Diciembre	2023-12-15T00:00:00	2024-11-08T13:00:00	6	Velocidad del viento	4.8
8034	7	Sololá	701	Sololá	2	El tablón	12	Diciembre	2023-12-15T00:00:00	2024-11-08T13:00:00	7	Dirección del viento	4.83
8035	7	Sololá	701	Sololá	2	El tablón	12	Diciembre	2023-12-15T00:00:00	2024-11-08T13:00:00	1	Precipitación	0
8036	7	Sololá	701	Sololá	2	El tablón	12	Diciembre	2023-12-15T00:00:00	2024-11-08T13:00:00	8	Radiación solar	277
8037	7	Sololá	701	Sololá	2	El tablón	12	Diciembre	2023-12-15T00:00:00	2024-11-08T14:00:00	2	Temperatura media	18.2
8038	7	Sololá	701	Sololá	2	El tablón	12	Diciembre	2023-12-15T00:00:00	2024-11-08T14:00:00	4	Temperatura máxima	18.7
8039	7	Sololá	701	Sololá	2	El tablón	12	Diciembre	2023-12-15T00:00:00	2024-11-08T14:00:00	3	Temperatura mínima	18.2
8040	7	Sololá	701	Sololá	2	El tablón	12	Diciembre	2023-12-15T00:00:00	2024-11-08T14:00:00	5	Humedad	76
8041	7	Sololá	701	Sololá	2	El tablón	12	Diciembre	2023-12-15T00:00:00	2024-11-08T14:00:00	6	Velocidad del viento	6.4
8042	7	Sololá	701	Sololá	2	El tablón	12	Diciembre	2023-12-15T00:00:00	2024-11-08T14:00:00	7	Dirección del viento	6.44
8043	7	Sololá	701	Sololá	2	El tablón	12	Diciembre	2023-12-15T00:00:00	2024-11-08T14:00:00	1	Precipitación	0
8044	7	Sololá	701	Sololá	2	El tablón	12	Diciembre	2023-12-15T00:00:00	2024-11-08T14:00:00	8	Radiación solar	514
8045	7	Sololá	701	Sololá	2	El tablón	12	Diciembre	2023-12-15T00:00:00	2024-11-08T15:00:00	2	Temperatura media	17.8
8046	7	Sololá	701	Sololá	2	El tablón	12	Diciembre	2023-12-15T00:00:00	2024-11-08T15:00:00	4	Temperatura máxima	18.4
8047	7	Sololá	701	Sololá	2	El tablón	12	Diciembre	2023-12-15T00:00:00	2024-11-08T15:00:00	3	Temperatura mínima	17.6
8048	7	Sololá	701	Sololá	2	El tablón	12	Diciembre	2023-12-15T00:00:00	2024-11-08T15:00:00	5	Humedad	79
8049	7	Sololá	701	Sololá	2	El tablón	12	Diciembre	2023-12-15T00:00:00	2024-11-08T15:00:00	6	Velocidad del viento	6.4
8050	7	Sololá	701	Sololá	2	El tablón	12	Diciembre	2023-12-15T00:00:00	2024-11-08T15:00:00	7	Dirección del viento	6.44
8051	7	Sololá	701	Sololá	2	El tablón	12	Diciembre	2023-12-15T00:00:00	2024-11-08T15:00:00	1	Precipitación	0
8052	7	Sololá	701	Sololá	2	El tablón	12	Diciembre	2023-12-15T00:00:00	2024-11-08T15:00:00	8	Radiación solar	506
8053	7	Sololá	701	Sololá	2	El tablón	12	Diciembre	2023-12-15T00:00:00	2024-11-08T16:00:00	2	Temperatura media	15.7
8054	7	Sololá	701	Sololá	2	El tablón	12	Diciembre	2023-12-15T00:00:00	2024-11-08T16:00:00	4	Temperatura máxima	18.4
8055	7	Sololá	701	Sololá	2	El tablón	12	Diciembre	2023-12-15T00:00:00	2024-11-08T16:00:00	3	Temperatura mínima	15.7
8056	7	Sololá	701	Sololá	2	El tablón	12	Diciembre	2023-12-15T00:00:00	2024-11-08T16:00:00	5	Humedad	88
8057	7	Sololá	701	Sololá	2	El tablón	12	Diciembre	2023-12-15T00:00:00	2024-11-08T16:00:00	6	Velocidad del viento	8
8058	7	Sololá	701	Sololá	2	El tablón	12	Diciembre	2023-12-15T00:00:00	2024-11-08T16:00:00	7	Dirección del viento	8.05
8059	7	Sololá	701	Sololá	2	El tablón	12	Diciembre	2023-12-15T00:00:00	2024-11-08T16:00:00	1	Precipitación	0
8060	7	Sololá	701	Sololá	2	El tablón	12	Diciembre	2023-12-15T00:00:00	2024-11-08T16:00:00	8	Radiación solar	315
8061	7	Sololá	701	Sololá	2	El tablón	12	Diciembre	2023-12-15T00:00:00	2024-11-08T17:00:00	2	Temperatura media	15.4
8062	7	Sololá	701	Sololá	2	El tablón	12	Diciembre	2023-12-15T00:00:00	2024-11-08T17:00:00	4	Temperatura máxima	15.7
8063	7	Sololá	701	Sololá	2	El tablón	12	Diciembre	2023-12-15T00:00:00	2024-11-08T17:00:00	3	Temperatura mínima	15.3
8064	7	Sololá	701	Sololá	2	El tablón	12	Diciembre	2023-12-15T00:00:00	2024-11-08T17:00:00	5	Humedad	87
8065	7	Sololá	701	Sololá	2	El tablón	12	Diciembre	2023-12-15T00:00:00	2024-11-08T17:00:00	6	Velocidad del viento	3.2
8066	7	Sololá	701	Sololá	2	El tablón	12	Diciembre	2023-12-15T00:00:00	2024-11-08T17:00:00	7	Dirección del viento	3.22
8067	7	Sololá	701	Sololá	2	El tablón	12	Diciembre	2023-12-15T00:00:00	2024-11-08T17:00:00	1	Precipitación	0
8068	7	Sololá	701	Sololá	2	El tablón	12	Diciembre	2023-12-15T00:00:00	2024-11-08T17:00:00	8	Radiación solar	70
8069	7	Sololá	701	Sololá	2	El tablón	12	Diciembre	2023-12-15T00:00:00	2024-11-08T18:00:00	2	Temperatura media	14.8
8070	7	Sololá	701	Sololá	2	El tablón	12	Diciembre	2023-12-15T00:00:00	2024-11-08T18:00:00	4	Temperatura máxima	15.4
8071	7	Sololá	701	Sololá	2	El tablón	12	Diciembre	2023-12-15T00:00:00	2024-11-08T18:00:00	3	Temperatura mínima	14.8
8072	7	Sololá	701	Sololá	2	El tablón	12	Diciembre	2023-12-15T00:00:00	2024-11-08T18:00:00	5	Humedad	86
8073	7	Sololá	701	Sololá	2	El tablón	12	Diciembre	2023-12-15T00:00:00	2024-11-08T18:00:00	6	Velocidad del viento	3.2
8074	7	Sololá	701	Sololá	2	El tablón	12	Diciembre	2023-12-15T00:00:00	2024-11-08T18:00:00	7	Dirección del viento	3.22
8075	7	Sololá	701	Sololá	2	El tablón	12	Diciembre	2023-12-15T00:00:00	2024-11-08T18:00:00	1	Precipitación	0
8076	7	Sololá	701	Sololá	2	El tablón	12	Diciembre	2023-12-15T00:00:00	2024-11-08T18:00:00	8	Radiación solar	1
8077	7	Sololá	701	Sololá	2	El tablón	12	Diciembre	2023-12-15T00:00:00	2024-11-08T19:00:00	2	Temperatura media	14.5
8078	7	Sololá	701	Sololá	2	El tablón	12	Diciembre	2023-12-15T00:00:00	2024-11-08T19:00:00	4	Temperatura máxima	14.9
8079	7	Sololá	701	Sololá	2	El tablón	12	Diciembre	2023-12-15T00:00:00	2024-11-08T19:00:00	3	Temperatura mínima	14.5
8080	7	Sololá	701	Sololá	2	El tablón	12	Diciembre	2023-12-15T00:00:00	2024-11-08T19:00:00	5	Humedad	86
8081	7	Sololá	701	Sololá	2	El tablón	12	Diciembre	2023-12-15T00:00:00	2024-11-08T19:00:00	6	Velocidad del viento	3.2
8082	7	Sololá	701	Sololá	2	El tablón	12	Diciembre	2023-12-15T00:00:00	2024-11-08T19:00:00	7	Dirección del viento	3.22
8083	7	Sololá	701	Sololá	2	El tablón	12	Diciembre	2023-12-15T00:00:00	2024-11-08T19:00:00	1	Precipitación	0
8084	7	Sololá	701	Sololá	2	El tablón	12	Diciembre	2023-12-15T00:00:00	2024-11-08T19:00:00	8	Radiación solar	0
8085	7	Sololá	701	Sololá	2	El tablón	12	Diciembre	2023-12-15T00:00:00	2024-11-08T20:00:00	2	Temperatura media	13.9
8086	7	Sololá	701	Sololá	2	El tablón	12	Diciembre	2023-12-15T00:00:00	2024-11-08T20:00:00	4	Temperatura máxima	14.6
8087	7	Sololá	701	Sololá	2	El tablón	12	Diciembre	2023-12-15T00:00:00	2024-11-08T20:00:00	3	Temperatura mínima	13.9
8088	7	Sololá	701	Sololá	2	El tablón	12	Diciembre	2023-12-15T00:00:00	2024-11-08T20:00:00	5	Humedad	88
8089	7	Sololá	701	Sololá	2	El tablón	12	Diciembre	2023-12-15T00:00:00	2024-11-08T20:00:00	6	Velocidad del viento	4.8
8090	7	Sololá	701	Sololá	2	El tablón	12	Diciembre	2023-12-15T00:00:00	2024-11-08T20:00:00	7	Dirección del viento	4.83
8091	7	Sololá	701	Sololá	2	El tablón	12	Diciembre	2023-12-15T00:00:00	2024-11-08T20:00:00	1	Precipitación	0
8092	7	Sololá	701	Sololá	2	El tablón	12	Diciembre	2023-12-15T00:00:00	2024-11-08T20:00:00	8	Radiación solar	0
8093	7	Sololá	701	Sololá	2	El tablón	12	Diciembre	2023-12-15T00:00:00	2024-11-08T21:00:00	2	Temperatura media	13.7
8094	7	Sololá	701	Sololá	2	El tablón	12	Diciembre	2023-12-15T00:00:00	2024-11-08T21:00:00	4	Temperatura máxima	13.9
8095	7	Sololá	701	Sololá	2	El tablón	12	Diciembre	2023-12-15T00:00:00	2024-11-08T21:00:00	3	Temperatura mínima	13.7
8096	7	Sololá	701	Sololá	2	El tablón	12	Diciembre	2023-12-15T00:00:00	2024-11-08T21:00:00	5	Humedad	88
8097	7	Sololá	701	Sololá	2	El tablón	12	Diciembre	2023-12-15T00:00:00	2024-11-08T21:00:00	6	Velocidad del viento	3.2
8098	7	Sololá	701	Sololá	2	El tablón	12	Diciembre	2023-12-15T00:00:00	2024-11-08T21:00:00	7	Dirección del viento	3.22
8099	7	Sololá	701	Sololá	2	El tablón	12	Diciembre	2023-12-15T00:00:00	2024-11-08T21:00:00	1	Precipitación	0
8100	7	Sololá	701	Sololá	2	El tablón	12	Diciembre	2023-12-15T00:00:00	2024-11-08T21:00:00	8	Radiación solar	0
8101	7	Sololá	701	Sololá	2	El tablón	12	Diciembre	2023-12-15T00:00:00	2024-11-08T22:00:00	2	Temperatura media	13.4
8102	7	Sololá	701	Sololá	2	El tablón	12	Diciembre	2023-12-15T00:00:00	2024-11-08T22:00:00	4	Temperatura máxima	13.8
8103	7	Sololá	701	Sololá	2	El tablón	12	Diciembre	2023-12-15T00:00:00	2024-11-08T22:00:00	3	Temperatura mínima	13.4
8104	7	Sololá	701	Sololá	2	El tablón	12	Diciembre	2023-12-15T00:00:00	2024-11-08T22:00:00	5	Humedad	87
8105	7	Sololá	701	Sololá	2	El tablón	12	Diciembre	2023-12-15T00:00:00	2024-11-08T22:00:00	6	Velocidad del viento	4.8
8106	7	Sololá	701	Sololá	2	El tablón	12	Diciembre	2023-12-15T00:00:00	2024-11-08T22:00:00	7	Dirección del viento	4.83
8107	7	Sololá	701	Sololá	2	El tablón	12	Diciembre	2023-12-15T00:00:00	2024-11-08T22:00:00	1	Precipitación	0
8108	7	Sololá	701	Sololá	2	El tablón	12	Diciembre	2023-12-15T00:00:00	2024-11-08T22:00:00	8	Radiación solar	0
8109	7	Sololá	701	Sololá	2	El tablón	12	Diciembre	2023-12-15T00:00:00	2024-11-08T23:00:00	2	Temperatura media	12.9
8110	7	Sololá	701	Sololá	2	El tablón	12	Diciembre	2023-12-15T00:00:00	2024-11-08T23:00:00	4	Temperatura máxima	13.5
8111	7	Sololá	701	Sololá	2	El tablón	12	Diciembre	2023-12-15T00:00:00	2024-11-08T23:00:00	3	Temperatura mínima	12.9
8112	7	Sololá	701	Sololá	2	El tablón	12	Diciembre	2023-12-15T00:00:00	2024-11-08T23:00:00	5	Humedad	88
8113	7	Sololá	701	Sololá	2	El tablón	12	Diciembre	2023-12-15T00:00:00	2024-11-08T23:00:00	6	Velocidad del viento	4.8
8114	7	Sololá	701	Sololá	2	El tablón	12	Diciembre	2023-12-15T00:00:00	2024-11-08T23:00:00	7	Dirección del viento	4.83
8115	7	Sololá	701	Sololá	2	El tablón	12	Diciembre	2023-12-15T00:00:00	2024-11-08T23:00:00	1	Precipitación	0
8116	7	Sololá	701	Sololá	2	El tablón	12	Diciembre	2023-12-15T00:00:00	2024-11-08T23:00:00	8	Radiación solar	0
8117	7	Sololá	701	Sololá	2	El tablón	12	Diciembre	2023-12-16T00:00:00	2024-11-08T00:00:00	2	Temperatura media	12.3
8118	7	Sololá	701	Sololá	2	El tablón	12	Diciembre	2023-12-16T00:00:00	2024-11-08T00:00:00	4	Temperatura máxima	12.9
8119	7	Sololá	701	Sololá	2	El tablón	12	Diciembre	2023-12-16T00:00:00	2024-11-08T00:00:00	3	Temperatura mínima	12.3
8120	7	Sololá	701	Sololá	2	El tablón	12	Diciembre	2023-12-16T00:00:00	2024-11-08T00:00:00	5	Humedad	89
8121	7	Sololá	701	Sololá	2	El tablón	12	Diciembre	2023-12-16T00:00:00	2024-11-08T00:00:00	6	Velocidad del viento	1.6
8122	7	Sololá	701	Sololá	2	El tablón	12	Diciembre	2023-12-16T00:00:00	2024-11-08T00:00:00	7	Dirección del viento	1.61
8123	7	Sololá	701	Sololá	2	El tablón	12	Diciembre	2023-12-16T00:00:00	2024-11-08T00:00:00	1	Precipitación	0
8124	7	Sololá	701	Sololá	2	El tablón	12	Diciembre	2023-12-16T00:00:00	2024-11-08T00:00:00	8	Radiación solar	0
8125	7	Sololá	701	Sololá	2	El tablón	12	Diciembre	2023-12-16T00:00:00	2024-11-08T01:00:00	2	Temperatura media	11.8
8126	7	Sololá	701	Sololá	2	El tablón	12	Diciembre	2023-12-16T00:00:00	2024-11-08T01:00:00	4	Temperatura máxima	12.4
8127	7	Sololá	701	Sololá	2	El tablón	12	Diciembre	2023-12-16T00:00:00	2024-11-08T01:00:00	3	Temperatura mínima	11.8
8128	7	Sololá	701	Sololá	2	El tablón	12	Diciembre	2023-12-16T00:00:00	2024-11-08T01:00:00	5	Humedad	89
8129	7	Sololá	701	Sololá	2	El tablón	12	Diciembre	2023-12-16T00:00:00	2024-11-08T01:00:00	6	Velocidad del viento	0
8130	7	Sololá	701	Sololá	2	El tablón	12	Diciembre	2023-12-16T00:00:00	2024-11-08T01:00:00	7	Dirección del viento	0
8131	7	Sololá	701	Sololá	2	El tablón	12	Diciembre	2023-12-16T00:00:00	2024-11-08T01:00:00	1	Precipitación	0
8132	7	Sololá	701	Sololá	2	El tablón	12	Diciembre	2023-12-16T00:00:00	2024-11-08T01:00:00	8	Radiación solar	0
8133	7	Sololá	701	Sololá	2	El tablón	12	Diciembre	2023-12-16T00:00:00	2024-11-08T02:00:00	2	Temperatura media	11.4
8134	7	Sololá	701	Sololá	2	El tablón	12	Diciembre	2023-12-16T00:00:00	2024-11-08T02:00:00	4	Temperatura máxima	11.8
8135	7	Sololá	701	Sololá	2	El tablón	12	Diciembre	2023-12-16T00:00:00	2024-11-08T02:00:00	3	Temperatura mínima	11.4
8136	7	Sololá	701	Sololá	2	El tablón	12	Diciembre	2023-12-16T00:00:00	2024-11-08T02:00:00	5	Humedad	89
8137	7	Sololá	701	Sololá	2	El tablón	12	Diciembre	2023-12-16T00:00:00	2024-11-08T02:00:00	6	Velocidad del viento	1.6
8138	7	Sololá	701	Sololá	2	El tablón	12	Diciembre	2023-12-16T00:00:00	2024-11-08T02:00:00	7	Dirección del viento	1.61
8139	7	Sololá	701	Sololá	2	El tablón	12	Diciembre	2023-12-16T00:00:00	2024-11-08T02:00:00	1	Precipitación	0
8140	7	Sololá	701	Sololá	2	El tablón	12	Diciembre	2023-12-16T00:00:00	2024-11-08T02:00:00	8	Radiación solar	0
8141	7	Sololá	701	Sololá	2	El tablón	12	Diciembre	2023-12-16T00:00:00	2024-11-08T03:00:00	2	Temperatura media	11.4
8142	7	Sololá	701	Sololá	2	El tablón	12	Diciembre	2023-12-16T00:00:00	2024-11-08T03:00:00	4	Temperatura máxima	11.4
8143	7	Sololá	701	Sololá	2	El tablón	12	Diciembre	2023-12-16T00:00:00	2024-11-08T03:00:00	3	Temperatura mínima	10.9
8144	7	Sololá	701	Sololá	2	El tablón	12	Diciembre	2023-12-16T00:00:00	2024-11-08T03:00:00	5	Humedad	89
8145	7	Sololá	701	Sololá	2	El tablón	12	Diciembre	2023-12-16T00:00:00	2024-11-08T03:00:00	6	Velocidad del viento	3.2
8146	7	Sololá	701	Sololá	2	El tablón	12	Diciembre	2023-12-16T00:00:00	2024-11-08T03:00:00	7	Dirección del viento	3.22
8147	7	Sololá	701	Sololá	2	El tablón	12	Diciembre	2023-12-16T00:00:00	2024-11-08T03:00:00	1	Precipitación	0
8148	7	Sololá	701	Sololá	2	El tablón	12	Diciembre	2023-12-16T00:00:00	2024-11-08T03:00:00	8	Radiación solar	0
8149	7	Sololá	701	Sololá	2	El tablón	12	Diciembre	2023-12-16T00:00:00	2024-11-08T04:00:00	2	Temperatura media	11.2
8150	7	Sololá	701	Sololá	2	El tablón	12	Diciembre	2023-12-16T00:00:00	2024-11-08T04:00:00	4	Temperatura máxima	11.6
8151	7	Sololá	701	Sololá	2	El tablón	12	Diciembre	2023-12-16T00:00:00	2024-11-08T04:00:00	3	Temperatura mínima	11.1
8152	7	Sololá	701	Sololá	2	El tablón	12	Diciembre	2023-12-16T00:00:00	2024-11-08T04:00:00	5	Humedad	88
8153	7	Sololá	701	Sololá	2	El tablón	12	Diciembre	2023-12-16T00:00:00	2024-11-08T04:00:00	6	Velocidad del viento	3.2
8154	7	Sololá	701	Sololá	2	El tablón	12	Diciembre	2023-12-16T00:00:00	2024-11-08T04:00:00	7	Dirección del viento	3.22
8155	7	Sololá	701	Sololá	2	El tablón	12	Diciembre	2023-12-16T00:00:00	2024-11-08T04:00:00	1	Precipitación	0
8156	7	Sololá	701	Sololá	2	El tablón	12	Diciembre	2023-12-16T00:00:00	2024-11-08T04:00:00	8	Radiación solar	0
8157	7	Sololá	701	Sololá	2	El tablón	12	Diciembre	2023-12-16T00:00:00	2024-11-08T05:00:00	2	Temperatura media	10.2
8158	7	Sololá	701	Sololá	2	El tablón	12	Diciembre	2023-12-16T00:00:00	2024-11-08T05:00:00	4	Temperatura máxima	11.2
8159	7	Sololá	701	Sololá	2	El tablón	12	Diciembre	2023-12-16T00:00:00	2024-11-08T05:00:00	3	Temperatura mínima	10.1
8160	7	Sololá	701	Sololá	2	El tablón	12	Diciembre	2023-12-16T00:00:00	2024-11-08T05:00:00	5	Humedad	89
8161	7	Sololá	701	Sololá	2	El tablón	12	Diciembre	2023-12-16T00:00:00	2024-11-08T05:00:00	6	Velocidad del viento	3.2
8162	7	Sololá	701	Sololá	2	El tablón	12	Diciembre	2023-12-16T00:00:00	2024-11-08T05:00:00	7	Dirección del viento	3.22
8163	7	Sololá	701	Sololá	2	El tablón	12	Diciembre	2023-12-16T00:00:00	2024-11-08T05:00:00	1	Precipitación	0
8164	7	Sololá	701	Sololá	2	El tablón	12	Diciembre	2023-12-16T00:00:00	2024-11-08T05:00:00	8	Radiación solar	0
8165	7	Sololá	701	Sololá	2	El tablón	12	Diciembre	2023-12-16T00:00:00	2024-11-08T06:00:00	2	Temperatura media	11
8166	7	Sololá	701	Sololá	2	El tablón	12	Diciembre	2023-12-16T00:00:00	2024-11-08T06:00:00	4	Temperatura máxima	11.4
8167	7	Sololá	701	Sololá	2	El tablón	12	Diciembre	2023-12-16T00:00:00	2024-11-08T06:00:00	3	Temperatura mínima	10.2
8168	7	Sololá	701	Sololá	2	El tablón	12	Diciembre	2023-12-16T00:00:00	2024-11-08T06:00:00	5	Humedad	87
8169	7	Sololá	701	Sololá	2	El tablón	12	Diciembre	2023-12-16T00:00:00	2024-11-08T06:00:00	6	Velocidad del viento	4.8
8170	7	Sololá	701	Sololá	2	El tablón	12	Diciembre	2023-12-16T00:00:00	2024-11-08T06:00:00	7	Dirección del viento	4.83
8171	7	Sololá	701	Sololá	2	El tablón	12	Diciembre	2023-12-16T00:00:00	2024-11-08T06:00:00	1	Precipitación	0
8172	7	Sololá	701	Sololá	2	El tablón	12	Diciembre	2023-12-16T00:00:00	2024-11-08T06:00:00	8	Radiación solar	0
8173	7	Sololá	701	Sololá	2	El tablón	12	Diciembre	2023-12-16T00:00:00	2024-11-08T07:00:00	2	Temperatura media	10.5
8174	7	Sololá	701	Sololá	2	El tablón	12	Diciembre	2023-12-16T00:00:00	2024-11-08T07:00:00	4	Temperatura máxima	10.9
8175	7	Sololá	701	Sololá	2	El tablón	12	Diciembre	2023-12-16T00:00:00	2024-11-08T07:00:00	3	Temperatura mínima	10.1
8176	7	Sololá	701	Sololá	2	El tablón	12	Diciembre	2023-12-16T00:00:00	2024-11-08T07:00:00	5	Humedad	87
8177	7	Sololá	701	Sololá	2	El tablón	12	Diciembre	2023-12-16T00:00:00	2024-11-08T07:00:00	6	Velocidad del viento	4.8
8178	7	Sololá	701	Sololá	2	El tablón	12	Diciembre	2023-12-16T00:00:00	2024-11-08T07:00:00	7	Dirección del viento	4.83
8179	7	Sololá	701	Sololá	2	El tablón	12	Diciembre	2023-12-16T00:00:00	2024-11-08T07:00:00	1	Precipitación	0
8180	7	Sololá	701	Sololá	2	El tablón	12	Diciembre	2023-12-16T00:00:00	2024-11-08T07:00:00	8	Radiación solar	13
8181	7	Sololá	701	Sololá	2	El tablón	12	Diciembre	2023-12-16T00:00:00	2024-11-08T08:00:00	2	Temperatura media	14.8
8182	7	Sololá	701	Sololá	2	El tablón	12	Diciembre	2023-12-16T00:00:00	2024-11-08T08:00:00	4	Temperatura máxima	14.8
8183	7	Sololá	701	Sololá	2	El tablón	12	Diciembre	2023-12-16T00:00:00	2024-11-08T08:00:00	3	Temperatura mínima	10.5
8184	7	Sololá	701	Sololá	2	El tablón	12	Diciembre	2023-12-16T00:00:00	2024-11-08T08:00:00	5	Humedad	82
8185	7	Sololá	701	Sololá	2	El tablón	12	Diciembre	2023-12-16T00:00:00	2024-11-08T08:00:00	6	Velocidad del viento	3.2
8186	7	Sololá	701	Sololá	2	El tablón	12	Diciembre	2023-12-16T00:00:00	2024-11-08T08:00:00	7	Dirección del viento	3.22
8187	7	Sololá	701	Sololá	2	El tablón	12	Diciembre	2023-12-16T00:00:00	2024-11-08T08:00:00	1	Precipitación	0
8188	7	Sololá	701	Sololá	2	El tablón	12	Diciembre	2023-12-16T00:00:00	2024-11-08T08:00:00	8	Radiación solar	147
8189	7	Sololá	701	Sololá	2	El tablón	12	Diciembre	2023-12-16T00:00:00	2024-11-08T09:00:00	2	Temperatura media	16.2
8190	7	Sololá	701	Sololá	2	El tablón	12	Diciembre	2023-12-16T00:00:00	2024-11-08T09:00:00	4	Temperatura máxima	16.8
8191	7	Sololá	701	Sololá	2	El tablón	12	Diciembre	2023-12-16T00:00:00	2024-11-08T09:00:00	3	Temperatura mínima	14.8
8192	7	Sololá	701	Sololá	2	El tablón	12	Diciembre	2023-12-16T00:00:00	2024-11-08T09:00:00	5	Humedad	76
8193	7	Sololá	701	Sololá	2	El tablón	12	Diciembre	2023-12-16T00:00:00	2024-11-08T09:00:00	6	Velocidad del viento	1.6
8194	7	Sololá	701	Sololá	2	El tablón	12	Diciembre	2023-12-16T00:00:00	2024-11-08T09:00:00	7	Dirección del viento	1.61
8195	7	Sololá	701	Sololá	2	El tablón	12	Diciembre	2023-12-16T00:00:00	2024-11-08T09:00:00	1	Precipitación	0
8196	7	Sololá	701	Sololá	2	El tablón	12	Diciembre	2023-12-16T00:00:00	2024-11-08T09:00:00	8	Radiación solar	369
8197	7	Sololá	701	Sololá	2	El tablón	12	Diciembre	2023-12-16T00:00:00	2024-11-08T10:00:00	2	Temperatura media	16.1
8198	7	Sololá	701	Sololá	2	El tablón	12	Diciembre	2023-12-16T00:00:00	2024-11-08T10:00:00	4	Temperatura máxima	17.3
8199	7	Sololá	701	Sololá	2	El tablón	12	Diciembre	2023-12-16T00:00:00	2024-11-08T10:00:00	3	Temperatura mínima	16.1
8200	7	Sololá	701	Sololá	2	El tablón	12	Diciembre	2023-12-16T00:00:00	2024-11-08T10:00:00	5	Humedad	82
8201	7	Sololá	701	Sololá	2	El tablón	12	Diciembre	2023-12-16T00:00:00	2024-11-08T10:00:00	6	Velocidad del viento	4.8
8202	7	Sololá	701	Sololá	2	El tablón	12	Diciembre	2023-12-16T00:00:00	2024-11-08T10:00:00	7	Dirección del viento	4.83
8203	7	Sololá	701	Sololá	2	El tablón	12	Diciembre	2023-12-16T00:00:00	2024-11-08T10:00:00	1	Precipitación	0
8204	7	Sololá	701	Sololá	2	El tablón	12	Diciembre	2023-12-16T00:00:00	2024-11-08T10:00:00	8	Radiación solar	460
8205	7	Sololá	701	Sololá	2	El tablón	12	Diciembre	2023-12-16T00:00:00	2024-11-08T11:00:00	2	Temperatura media	16.4
8206	7	Sololá	701	Sololá	2	El tablón	12	Diciembre	2023-12-16T00:00:00	2024-11-08T11:00:00	4	Temperatura máxima	16.8
8207	7	Sololá	701	Sololá	2	El tablón	12	Diciembre	2023-12-16T00:00:00	2024-11-08T11:00:00	3	Temperatura mínima	15.9
8208	7	Sololá	701	Sololá	2	El tablón	12	Diciembre	2023-12-16T00:00:00	2024-11-08T11:00:00	5	Humedad	78
8209	7	Sololá	701	Sololá	2	El tablón	12	Diciembre	2023-12-16T00:00:00	2024-11-08T11:00:00	6	Velocidad del viento	6.4
8210	7	Sololá	701	Sololá	2	El tablón	12	Diciembre	2023-12-16T00:00:00	2024-11-08T11:00:00	7	Dirección del viento	6.44
8211	7	Sololá	701	Sololá	2	El tablón	12	Diciembre	2023-12-16T00:00:00	2024-11-08T11:00:00	1	Precipitación	0
8212	7	Sololá	701	Sololá	2	El tablón	12	Diciembre	2023-12-16T00:00:00	2024-11-08T11:00:00	8	Radiación solar	358
8213	7	Sololá	701	Sololá	2	El tablón	12	Diciembre	2023-12-16T00:00:00	2024-11-08T12:00:00	2	Temperatura media	18.1
8214	7	Sololá	701	Sololá	2	El tablón	12	Diciembre	2023-12-16T00:00:00	2024-11-08T12:00:00	4	Temperatura máxima	18.2
8215	7	Sololá	701	Sololá	2	El tablón	12	Diciembre	2023-12-16T00:00:00	2024-11-08T12:00:00	3	Temperatura mínima	16.4
8216	7	Sololá	701	Sololá	2	El tablón	12	Diciembre	2023-12-16T00:00:00	2024-11-08T12:00:00	5	Humedad	67
8217	7	Sololá	701	Sololá	2	El tablón	12	Diciembre	2023-12-16T00:00:00	2024-11-08T12:00:00	6	Velocidad del viento	8
8218	7	Sololá	701	Sololá	2	El tablón	12	Diciembre	2023-12-16T00:00:00	2024-11-08T12:00:00	7	Dirección del viento	8.05
8219	7	Sololá	701	Sololá	2	El tablón	12	Diciembre	2023-12-16T00:00:00	2024-11-08T12:00:00	1	Precipitación	0
8220	7	Sololá	701	Sololá	2	El tablón	12	Diciembre	2023-12-16T00:00:00	2024-11-08T12:00:00	8	Radiación solar	428
8221	7	Sololá	701	Sololá	2	El tablón	12	Diciembre	2023-12-16T00:00:00	2024-11-08T13:00:00	2	Temperatura media	17.6
8222	7	Sololá	701	Sololá	2	El tablón	12	Diciembre	2023-12-16T00:00:00	2024-11-08T13:00:00	4	Temperatura máxima	18.7
8223	7	Sololá	701	Sololá	2	El tablón	12	Diciembre	2023-12-16T00:00:00	2024-11-08T13:00:00	3	Temperatura mínima	17.2
8224	7	Sololá	701	Sololá	2	El tablón	12	Diciembre	2023-12-16T00:00:00	2024-11-08T13:00:00	5	Humedad	69
8225	7	Sololá	701	Sololá	2	El tablón	12	Diciembre	2023-12-16T00:00:00	2024-11-08T13:00:00	6	Velocidad del viento	9.7
8226	7	Sololá	701	Sololá	2	El tablón	12	Diciembre	2023-12-16T00:00:00	2024-11-08T13:00:00	7	Dirección del viento	9.66
8227	7	Sololá	701	Sololá	2	El tablón	12	Diciembre	2023-12-16T00:00:00	2024-11-08T13:00:00	1	Precipitación	0
8228	7	Sololá	701	Sololá	2	El tablón	12	Diciembre	2023-12-16T00:00:00	2024-11-08T13:00:00	8	Radiación solar	352
8229	7	Sololá	701	Sololá	2	El tablón	12	Diciembre	2023-12-16T00:00:00	2024-11-08T14:00:00	2	Temperatura media	18.4
8230	7	Sololá	701	Sololá	2	El tablón	12	Diciembre	2023-12-16T00:00:00	2024-11-08T14:00:00	4	Temperatura máxima	18.4
8231	7	Sololá	701	Sololá	2	El tablón	12	Diciembre	2023-12-16T00:00:00	2024-11-08T14:00:00	3	Temperatura mínima	17.3
8232	7	Sololá	701	Sololá	2	El tablón	12	Diciembre	2023-12-16T00:00:00	2024-11-08T14:00:00	5	Humedad	67
8233	7	Sololá	701	Sololá	2	El tablón	12	Diciembre	2023-12-16T00:00:00	2024-11-08T14:00:00	6	Velocidad del viento	8
8234	7	Sololá	701	Sololá	2	El tablón	12	Diciembre	2023-12-16T00:00:00	2024-11-08T14:00:00	7	Dirección del viento	8.05
8235	7	Sololá	701	Sololá	2	El tablón	12	Diciembre	2023-12-16T00:00:00	2024-11-08T14:00:00	1	Precipitación	0
8236	7	Sololá	701	Sololá	2	El tablón	12	Diciembre	2023-12-16T00:00:00	2024-11-08T14:00:00	8	Radiación solar	311
8237	7	Sololá	701	Sololá	2	El tablón	12	Diciembre	2023-12-16T00:00:00	2024-11-08T15:00:00	2	Temperatura media	18.9
8238	7	Sololá	701	Sololá	2	El tablón	12	Diciembre	2023-12-16T00:00:00	2024-11-08T15:00:00	4	Temperatura máxima	18.9
8239	7	Sololá	701	Sololá	2	El tablón	12	Diciembre	2023-12-16T00:00:00	2024-11-08T15:00:00	3	Temperatura mínima	18.2
8240	7	Sololá	701	Sololá	2	El tablón	12	Diciembre	2023-12-16T00:00:00	2024-11-08T15:00:00	5	Humedad	66
8241	7	Sololá	701	Sololá	2	El tablón	12	Diciembre	2023-12-16T00:00:00	2024-11-08T15:00:00	6	Velocidad del viento	6.4
8242	7	Sololá	701	Sololá	2	El tablón	12	Diciembre	2023-12-16T00:00:00	2024-11-08T15:00:00	7	Dirección del viento	6.44
8243	7	Sololá	701	Sololá	2	El tablón	12	Diciembre	2023-12-16T00:00:00	2024-11-08T15:00:00	1	Precipitación	0
8244	7	Sololá	701	Sololá	2	El tablón	12	Diciembre	2023-12-16T00:00:00	2024-11-08T15:00:00	8	Radiación solar	407
8245	7	Sololá	701	Sololá	2	El tablón	12	Diciembre	2023-12-16T00:00:00	2024-11-08T16:00:00	2	Temperatura media	16.8
8246	7	Sololá	701	Sololá	2	El tablón	12	Diciembre	2023-12-16T00:00:00	2024-11-08T16:00:00	4	Temperatura máxima	19.1
8247	7	Sololá	701	Sololá	2	El tablón	12	Diciembre	2023-12-16T00:00:00	2024-11-08T16:00:00	3	Temperatura mínima	16.8
8248	7	Sololá	701	Sololá	2	El tablón	12	Diciembre	2023-12-16T00:00:00	2024-11-08T16:00:00	5	Humedad	85
8249	7	Sololá	701	Sololá	2	El tablón	12	Diciembre	2023-12-16T00:00:00	2024-11-08T16:00:00	6	Velocidad del viento	6.4
8250	7	Sololá	701	Sololá	2	El tablón	12	Diciembre	2023-12-16T00:00:00	2024-11-08T16:00:00	7	Dirección del viento	6.44
8251	7	Sololá	701	Sololá	2	El tablón	12	Diciembre	2023-12-16T00:00:00	2024-11-08T16:00:00	1	Precipitación	0
8252	7	Sololá	701	Sololá	2	El tablón	12	Diciembre	2023-12-16T00:00:00	2024-11-08T16:00:00	8	Radiación solar	272
8253	7	Sololá	701	Sololá	2	El tablón	12	Diciembre	2023-12-16T00:00:00	2024-11-08T17:00:00	2	Temperatura media	15.9
8254	7	Sololá	701	Sololá	2	El tablón	12	Diciembre	2023-12-16T00:00:00	2024-11-08T17:00:00	4	Temperatura máxima	16.8
8255	7	Sololá	701	Sololá	2	El tablón	12	Diciembre	2023-12-16T00:00:00	2024-11-08T17:00:00	3	Temperatura mínima	15.9
8256	7	Sololá	701	Sololá	2	El tablón	12	Diciembre	2023-12-16T00:00:00	2024-11-08T17:00:00	5	Humedad	81
8257	7	Sololá	701	Sololá	2	El tablón	12	Diciembre	2023-12-16T00:00:00	2024-11-08T17:00:00	6	Velocidad del viento	6.4
8258	7	Sololá	701	Sololá	2	El tablón	12	Diciembre	2023-12-16T00:00:00	2024-11-08T17:00:00	7	Dirección del viento	6.44
8259	7	Sololá	701	Sololá	2	El tablón	12	Diciembre	2023-12-16T00:00:00	2024-11-08T17:00:00	1	Precipitación	0
8260	7	Sololá	701	Sololá	2	El tablón	12	Diciembre	2023-12-16T00:00:00	2024-11-08T17:00:00	8	Radiación solar	86
8261	7	Sololá	701	Sololá	2	El tablón	12	Diciembre	2023-12-16T00:00:00	2024-11-08T18:00:00	2	Temperatura media	14.5
8262	7	Sololá	701	Sololá	2	El tablón	12	Diciembre	2023-12-16T00:00:00	2024-11-08T18:00:00	4	Temperatura máxima	15.9
8263	7	Sololá	701	Sololá	2	El tablón	12	Diciembre	2023-12-16T00:00:00	2024-11-08T18:00:00	3	Temperatura mínima	14.5
8264	7	Sololá	701	Sololá	2	El tablón	12	Diciembre	2023-12-16T00:00:00	2024-11-08T18:00:00	5	Humedad	85
8265	7	Sololá	701	Sololá	2	El tablón	12	Diciembre	2023-12-16T00:00:00	2024-11-08T18:00:00	6	Velocidad del viento	6.4
8266	7	Sololá	701	Sololá	2	El tablón	12	Diciembre	2023-12-16T00:00:00	2024-11-08T18:00:00	7	Dirección del viento	6.44
8267	7	Sololá	701	Sololá	2	El tablón	12	Diciembre	2023-12-16T00:00:00	2024-11-08T18:00:00	1	Precipitación	0
8268	7	Sololá	701	Sololá	2	El tablón	12	Diciembre	2023-12-16T00:00:00	2024-11-08T18:00:00	8	Radiación solar	14
8269	7	Sololá	701	Sololá	2	El tablón	12	Diciembre	2023-12-16T00:00:00	2024-11-08T19:00:00	2	Temperatura media	13.6
8270	7	Sololá	701	Sololá	2	El tablón	12	Diciembre	2023-12-16T00:00:00	2024-11-08T19:00:00	4	Temperatura máxima	14.5
8271	7	Sololá	701	Sololá	2	El tablón	12	Diciembre	2023-12-16T00:00:00	2024-11-08T19:00:00	3	Temperatura mínima	13.6
8272	7	Sololá	701	Sololá	2	El tablón	12	Diciembre	2023-12-16T00:00:00	2024-11-08T19:00:00	5	Humedad	87
8273	7	Sololá	701	Sololá	2	El tablón	12	Diciembre	2023-12-16T00:00:00	2024-11-08T19:00:00	6	Velocidad del viento	8
8274	7	Sololá	701	Sololá	2	El tablón	12	Diciembre	2023-12-16T00:00:00	2024-11-08T19:00:00	7	Dirección del viento	8.05
8275	7	Sololá	701	Sololá	2	El tablón	12	Diciembre	2023-12-16T00:00:00	2024-11-08T19:00:00	1	Precipitación	0
8276	7	Sololá	701	Sololá	2	El tablón	12	Diciembre	2023-12-16T00:00:00	2024-11-08T19:00:00	8	Radiación solar	0
8277	7	Sololá	701	Sololá	2	El tablón	12	Diciembre	2023-12-16T00:00:00	2024-11-08T20:00:00	2	Temperatura media	12.9
8278	7	Sololá	701	Sololá	2	El tablón	12	Diciembre	2023-12-16T00:00:00	2024-11-08T20:00:00	4	Temperatura máxima	13.6
8279	7	Sololá	701	Sololá	2	El tablón	12	Diciembre	2023-12-16T00:00:00	2024-11-08T20:00:00	3	Temperatura mínima	12.9
8280	7	Sololá	701	Sololá	2	El tablón	12	Diciembre	2023-12-16T00:00:00	2024-11-08T20:00:00	5	Humedad	88
8281	7	Sololá	701	Sololá	2	El tablón	12	Diciembre	2023-12-16T00:00:00	2024-11-08T20:00:00	6	Velocidad del viento	8
8282	7	Sololá	701	Sololá	2	El tablón	12	Diciembre	2023-12-16T00:00:00	2024-11-08T20:00:00	7	Dirección del viento	8.05
8283	7	Sololá	701	Sololá	2	El tablón	12	Diciembre	2023-12-16T00:00:00	2024-11-08T20:00:00	1	Precipitación	0
8284	7	Sololá	701	Sololá	2	El tablón	12	Diciembre	2023-12-16T00:00:00	2024-11-08T20:00:00	8	Radiación solar	0
8285	7	Sololá	701	Sololá	2	El tablón	12	Diciembre	2023-12-16T00:00:00	2024-11-08T21:00:00	2	Temperatura media	12.8
8286	7	Sololá	701	Sololá	2	El tablón	12	Diciembre	2023-12-16T00:00:00	2024-11-08T21:00:00	4	Temperatura máxima	12.9
8287	7	Sololá	701	Sololá	2	El tablón	12	Diciembre	2023-12-16T00:00:00	2024-11-08T21:00:00	3	Temperatura mínima	12.8
8288	7	Sololá	701	Sololá	2	El tablón	12	Diciembre	2023-12-16T00:00:00	2024-11-08T21:00:00	5	Humedad	88
8289	7	Sololá	701	Sololá	2	El tablón	12	Diciembre	2023-12-16T00:00:00	2024-11-08T21:00:00	6	Velocidad del viento	9.7
8290	7	Sololá	701	Sololá	2	El tablón	12	Diciembre	2023-12-16T00:00:00	2024-11-08T21:00:00	7	Dirección del viento	9.66
8291	7	Sololá	701	Sololá	2	El tablón	12	Diciembre	2023-12-16T00:00:00	2024-11-08T21:00:00	1	Precipitación	0
8292	7	Sololá	701	Sololá	2	El tablón	12	Diciembre	2023-12-16T00:00:00	2024-11-08T21:00:00	8	Radiación solar	0
8293	7	Sololá	701	Sololá	2	El tablón	12	Diciembre	2023-12-16T00:00:00	2024-11-08T22:00:00	2	Temperatura media	12.3
8294	7	Sololá	701	Sololá	2	El tablón	12	Diciembre	2023-12-16T00:00:00	2024-11-08T22:00:00	4	Temperatura máxima	12.8
8295	7	Sololá	701	Sololá	2	El tablón	12	Diciembre	2023-12-16T00:00:00	2024-11-08T22:00:00	3	Temperatura mínima	12.3
8296	7	Sololá	701	Sololá	2	El tablón	12	Diciembre	2023-12-16T00:00:00	2024-11-08T22:00:00	5	Humedad	88
8297	7	Sololá	701	Sololá	2	El tablón	12	Diciembre	2023-12-16T00:00:00	2024-11-08T22:00:00	6	Velocidad del viento	14.5
8298	7	Sololá	701	Sololá	2	El tablón	12	Diciembre	2023-12-16T00:00:00	2024-11-08T22:00:00	7	Dirección del viento	14.48
8299	7	Sololá	701	Sololá	2	El tablón	12	Diciembre	2023-12-16T00:00:00	2024-11-08T22:00:00	1	Precipitación	0
8300	7	Sololá	701	Sololá	2	El tablón	12	Diciembre	2023-12-16T00:00:00	2024-11-08T22:00:00	8	Radiación solar	0
8301	7	Sololá	701	Sololá	2	El tablón	12	Diciembre	2023-12-16T00:00:00	2024-11-08T23:00:00	2	Temperatura media	12.1
8302	7	Sololá	701	Sololá	2	El tablón	12	Diciembre	2023-12-16T00:00:00	2024-11-08T23:00:00	4	Temperatura máxima	12.3
8303	7	Sololá	701	Sololá	2	El tablón	12	Diciembre	2023-12-16T00:00:00	2024-11-08T23:00:00	3	Temperatura mínima	12
8304	7	Sololá	701	Sololá	2	El tablón	12	Diciembre	2023-12-16T00:00:00	2024-11-08T23:00:00	5	Humedad	89
8305	7	Sololá	701	Sololá	2	El tablón	12	Diciembre	2023-12-16T00:00:00	2024-11-08T23:00:00	6	Velocidad del viento	14.5
8306	7	Sololá	701	Sololá	2	El tablón	12	Diciembre	2023-12-16T00:00:00	2024-11-08T23:00:00	7	Dirección del viento	14.48
8307	7	Sololá	701	Sololá	2	El tablón	12	Diciembre	2023-12-16T00:00:00	2024-11-08T23:00:00	1	Precipitación	0
8308	7	Sololá	701	Sololá	2	El tablón	12	Diciembre	2023-12-16T00:00:00	2024-11-08T23:00:00	8	Radiación solar	0
8309	7	Sololá	701	Sololá	2	El tablón	12	Diciembre	2023-12-17T00:00:00	2024-11-08T00:00:00	2	Temperatura media	11.9
8310	7	Sololá	701	Sololá	2	El tablón	12	Diciembre	2023-12-17T00:00:00	2024-11-08T00:00:00	4	Temperatura máxima	12.1
8311	7	Sololá	701	Sololá	2	El tablón	12	Diciembre	2023-12-17T00:00:00	2024-11-08T00:00:00	3	Temperatura mínima	11.7
8312	7	Sololá	701	Sololá	2	El tablón	12	Diciembre	2023-12-17T00:00:00	2024-11-08T00:00:00	5	Humedad	88
8313	7	Sololá	701	Sololá	2	El tablón	12	Diciembre	2023-12-17T00:00:00	2024-11-08T00:00:00	6	Velocidad del viento	14.5
8314	7	Sololá	701	Sololá	2	El tablón	12	Diciembre	2023-12-17T00:00:00	2024-11-08T00:00:00	7	Dirección del viento	14.48
8315	7	Sololá	701	Sololá	2	El tablón	12	Diciembre	2023-12-17T00:00:00	2024-11-08T00:00:00	1	Precipitación	0
8316	7	Sololá	701	Sololá	2	El tablón	12	Diciembre	2023-12-17T00:00:00	2024-11-08T00:00:00	8	Radiación solar	0
8317	7	Sololá	701	Sololá	2	El tablón	12	Diciembre	2023-12-17T00:00:00	2024-11-08T01:00:00	2	Temperatura media	11.2
8318	7	Sololá	701	Sololá	2	El tablón	12	Diciembre	2023-12-17T00:00:00	2024-11-08T01:00:00	4	Temperatura máxima	11.9
8319	7	Sololá	701	Sololá	2	El tablón	12	Diciembre	2023-12-17T00:00:00	2024-11-08T01:00:00	3	Temperatura mínima	11.2
8320	7	Sololá	701	Sololá	2	El tablón	12	Diciembre	2023-12-17T00:00:00	2024-11-08T01:00:00	5	Humedad	89
8321	7	Sololá	701	Sololá	2	El tablón	12	Diciembre	2023-12-17T00:00:00	2024-11-08T01:00:00	6	Velocidad del viento	14.5
8322	7	Sololá	701	Sololá	2	El tablón	12	Diciembre	2023-12-17T00:00:00	2024-11-08T01:00:00	7	Dirección del viento	14.48
8323	7	Sololá	701	Sololá	2	El tablón	12	Diciembre	2023-12-17T00:00:00	2024-11-08T01:00:00	1	Precipitación	0
8324	7	Sololá	701	Sololá	2	El tablón	12	Diciembre	2023-12-17T00:00:00	2024-11-08T01:00:00	8	Radiación solar	0
8325	7	Sololá	701	Sololá	2	El tablón	12	Diciembre	2023-12-17T00:00:00	2024-11-08T02:00:00	2	Temperatura media	11.3
8326	7	Sololá	701	Sololá	2	El tablón	12	Diciembre	2023-12-17T00:00:00	2024-11-08T02:00:00	4	Temperatura máxima	11.3
8327	7	Sololá	701	Sololá	2	El tablón	12	Diciembre	2023-12-17T00:00:00	2024-11-08T02:00:00	3	Temperatura mínima	11
8328	7	Sololá	701	Sololá	2	El tablón	12	Diciembre	2023-12-17T00:00:00	2024-11-08T02:00:00	5	Humedad	88
8329	7	Sololá	701	Sololá	2	El tablón	12	Diciembre	2023-12-17T00:00:00	2024-11-08T02:00:00	6	Velocidad del viento	12.9
8330	7	Sololá	701	Sololá	2	El tablón	12	Diciembre	2023-12-17T00:00:00	2024-11-08T02:00:00	7	Dirección del viento	12.87
8331	7	Sololá	701	Sololá	2	El tablón	12	Diciembre	2023-12-17T00:00:00	2024-11-08T02:00:00	1	Precipitación	0
8332	7	Sololá	701	Sololá	2	El tablón	12	Diciembre	2023-12-17T00:00:00	2024-11-08T02:00:00	8	Radiación solar	0
8333	7	Sololá	701	Sololá	2	El tablón	12	Diciembre	2023-12-17T00:00:00	2024-11-08T03:00:00	2	Temperatura media	11.2
8334	7	Sololá	701	Sololá	2	El tablón	12	Diciembre	2023-12-17T00:00:00	2024-11-08T03:00:00	4	Temperatura máxima	11.3
8335	7	Sololá	701	Sololá	2	El tablón	12	Diciembre	2023-12-17T00:00:00	2024-11-08T03:00:00	3	Temperatura mínima	11.2
8336	7	Sololá	701	Sololá	2	El tablón	12	Diciembre	2023-12-17T00:00:00	2024-11-08T03:00:00	5	Humedad	84
8337	7	Sololá	701	Sololá	2	El tablón	12	Diciembre	2023-12-17T00:00:00	2024-11-08T03:00:00	6	Velocidad del viento	16.1
8338	7	Sololá	701	Sololá	2	El tablón	12	Diciembre	2023-12-17T00:00:00	2024-11-08T03:00:00	7	Dirección del viento	16.09
8339	7	Sololá	701	Sololá	2	El tablón	12	Diciembre	2023-12-17T00:00:00	2024-11-08T03:00:00	1	Precipitación	0
8340	7	Sololá	701	Sololá	2	El tablón	12	Diciembre	2023-12-17T00:00:00	2024-11-08T03:00:00	8	Radiación solar	0
8341	7	Sololá	701	Sololá	2	El tablón	12	Diciembre	2023-12-17T00:00:00	2024-11-08T04:00:00	2	Temperatura media	11.3
8342	7	Sololá	701	Sololá	2	El tablón	12	Diciembre	2023-12-17T00:00:00	2024-11-08T04:00:00	4	Temperatura máxima	11.4
8343	7	Sololá	701	Sololá	2	El tablón	12	Diciembre	2023-12-17T00:00:00	2024-11-08T04:00:00	3	Temperatura mínima	11.2
8344	7	Sololá	701	Sololá	2	El tablón	12	Diciembre	2023-12-17T00:00:00	2024-11-08T04:00:00	5	Humedad	84
8345	7	Sololá	701	Sololá	2	El tablón	12	Diciembre	2023-12-17T00:00:00	2024-11-08T04:00:00	6	Velocidad del viento	14.5
8346	7	Sololá	701	Sololá	2	El tablón	12	Diciembre	2023-12-17T00:00:00	2024-11-08T04:00:00	7	Dirección del viento	14.48
8347	7	Sololá	701	Sololá	2	El tablón	12	Diciembre	2023-12-17T00:00:00	2024-11-08T04:00:00	1	Precipitación	0
8348	7	Sololá	701	Sololá	2	El tablón	12	Diciembre	2023-12-17T00:00:00	2024-11-08T04:00:00	8	Radiación solar	0
8349	7	Sololá	701	Sololá	2	El tablón	12	Diciembre	2023-12-17T00:00:00	2024-11-08T05:00:00	2	Temperatura media	10.9
8350	7	Sololá	701	Sololá	2	El tablón	12	Diciembre	2023-12-17T00:00:00	2024-11-08T05:00:00	4	Temperatura máxima	11.3
8351	7	Sololá	701	Sololá	2	El tablón	12	Diciembre	2023-12-17T00:00:00	2024-11-08T05:00:00	3	Temperatura mínima	10.9
8352	7	Sololá	701	Sololá	2	El tablón	12	Diciembre	2023-12-17T00:00:00	2024-11-08T05:00:00	5	Humedad	86
8353	7	Sololá	701	Sololá	2	El tablón	12	Diciembre	2023-12-17T00:00:00	2024-11-08T05:00:00	6	Velocidad del viento	14.5
8354	7	Sololá	701	Sololá	2	El tablón	12	Diciembre	2023-12-17T00:00:00	2024-11-08T05:00:00	7	Dirección del viento	14.48
8355	7	Sololá	701	Sololá	2	El tablón	12	Diciembre	2023-12-17T00:00:00	2024-11-08T05:00:00	1	Precipitación	0
8356	7	Sololá	701	Sololá	2	El tablón	12	Diciembre	2023-12-17T00:00:00	2024-11-08T05:00:00	8	Radiación solar	0
8357	7	Sololá	701	Sololá	2	El tablón	12	Diciembre	2023-12-17T00:00:00	2024-11-08T06:00:00	2	Temperatura media	10.7
8358	7	Sololá	701	Sololá	2	El tablón	12	Diciembre	2023-12-17T00:00:00	2024-11-08T06:00:00	4	Temperatura máxima	11
8359	7	Sololá	701	Sololá	2	El tablón	12	Diciembre	2023-12-17T00:00:00	2024-11-08T06:00:00	3	Temperatura mínima	10.7
8360	7	Sololá	701	Sololá	2	El tablón	12	Diciembre	2023-12-17T00:00:00	2024-11-08T06:00:00	5	Humedad	87
8361	7	Sololá	701	Sololá	2	El tablón	12	Diciembre	2023-12-17T00:00:00	2024-11-08T06:00:00	6	Velocidad del viento	14.5
8362	7	Sololá	701	Sololá	2	El tablón	12	Diciembre	2023-12-17T00:00:00	2024-11-08T06:00:00	7	Dirección del viento	14.48
8363	7	Sololá	701	Sololá	2	El tablón	12	Diciembre	2023-12-17T00:00:00	2024-11-08T06:00:00	1	Precipitación	0
8364	7	Sololá	701	Sololá	2	El tablón	12	Diciembre	2023-12-17T00:00:00	2024-11-08T06:00:00	8	Radiación solar	0
8365	7	Sololá	701	Sololá	2	El tablón	12	Diciembre	2023-12-17T00:00:00	2024-11-08T07:00:00	2	Temperatura media	10.7
8366	7	Sololá	701	Sololá	2	El tablón	12	Diciembre	2023-12-17T00:00:00	2024-11-08T07:00:00	4	Temperatura máxima	10.7
8367	7	Sololá	701	Sololá	2	El tablón	12	Diciembre	2023-12-17T00:00:00	2024-11-08T07:00:00	3	Temperatura mínima	10.5
8368	7	Sololá	701	Sololá	2	El tablón	12	Diciembre	2023-12-17T00:00:00	2024-11-08T07:00:00	5	Humedad	86
8369	7	Sololá	701	Sololá	2	El tablón	12	Diciembre	2023-12-17T00:00:00	2024-11-08T07:00:00	6	Velocidad del viento	16.1
8370	7	Sololá	701	Sololá	2	El tablón	12	Diciembre	2023-12-17T00:00:00	2024-11-08T07:00:00	7	Dirección del viento	16.09
8371	7	Sololá	701	Sololá	2	El tablón	12	Diciembre	2023-12-17T00:00:00	2024-11-08T07:00:00	1	Precipitación	0
8372	7	Sololá	701	Sololá	2	El tablón	12	Diciembre	2023-12-17T00:00:00	2024-11-08T07:00:00	8	Radiación solar	11
8373	7	Sololá	701	Sololá	2	El tablón	12	Diciembre	2023-12-17T00:00:00	2024-11-08T08:00:00	2	Temperatura media	11.6
8374	7	Sololá	701	Sololá	2	El tablón	12	Diciembre	2023-12-17T00:00:00	2024-11-08T08:00:00	4	Temperatura máxima	11.6
8375	7	Sololá	701	Sololá	2	El tablón	12	Diciembre	2023-12-17T00:00:00	2024-11-08T08:00:00	3	Temperatura mínima	10.7
8376	7	Sololá	701	Sololá	2	El tablón	12	Diciembre	2023-12-17T00:00:00	2024-11-08T08:00:00	5	Humedad	84
8377	7	Sololá	701	Sololá	2	El tablón	12	Diciembre	2023-12-17T00:00:00	2024-11-08T08:00:00	6	Velocidad del viento	19.3
8378	7	Sololá	701	Sololá	2	El tablón	12	Diciembre	2023-12-17T00:00:00	2024-11-08T08:00:00	7	Dirección del viento	19.31
8379	7	Sololá	701	Sololá	2	El tablón	12	Diciembre	2023-12-17T00:00:00	2024-11-08T08:00:00	1	Precipitación	0
8380	7	Sololá	701	Sololá	2	El tablón	12	Diciembre	2023-12-17T00:00:00	2024-11-08T08:00:00	8	Radiación solar	146
8381	7	Sololá	701	Sololá	2	El tablón	12	Diciembre	2023-12-17T00:00:00	2024-11-08T09:00:00	2	Temperatura media	12.8
8382	7	Sololá	701	Sololá	2	El tablón	12	Diciembre	2023-12-17T00:00:00	2024-11-08T09:00:00	4	Temperatura máxima	12.8
8383	7	Sololá	701	Sololá	2	El tablón	12	Diciembre	2023-12-17T00:00:00	2024-11-08T09:00:00	3	Temperatura mínima	11.5
8384	7	Sololá	701	Sololá	2	El tablón	12	Diciembre	2023-12-17T00:00:00	2024-11-08T09:00:00	5	Humedad	81
8385	7	Sololá	701	Sololá	2	El tablón	12	Diciembre	2023-12-17T00:00:00	2024-11-08T09:00:00	6	Velocidad del viento	19.3
8386	7	Sololá	701	Sololá	2	El tablón	12	Diciembre	2023-12-17T00:00:00	2024-11-08T09:00:00	7	Dirección del viento	19.31
8387	7	Sololá	701	Sololá	2	El tablón	12	Diciembre	2023-12-17T00:00:00	2024-11-08T09:00:00	1	Precipitación	0
8388	7	Sololá	701	Sololá	2	El tablón	12	Diciembre	2023-12-17T00:00:00	2024-11-08T09:00:00	8	Radiación solar	370
8389	7	Sololá	701	Sololá	2	El tablón	12	Diciembre	2023-12-17T00:00:00	2024-11-08T10:00:00	2	Temperatura media	14.7
8390	7	Sololá	701	Sololá	2	El tablón	12	Diciembre	2023-12-17T00:00:00	2024-11-08T10:00:00	4	Temperatura máxima	14.7
8391	7	Sololá	701	Sololá	2	El tablón	12	Diciembre	2023-12-17T00:00:00	2024-11-08T10:00:00	3	Temperatura mínima	12.8
8392	7	Sololá	701	Sololá	2	El tablón	12	Diciembre	2023-12-17T00:00:00	2024-11-08T10:00:00	5	Humedad	76
8393	7	Sololá	701	Sololá	2	El tablón	12	Diciembre	2023-12-17T00:00:00	2024-11-08T10:00:00	6	Velocidad del viento	16.1
8394	7	Sololá	701	Sololá	2	El tablón	12	Diciembre	2023-12-17T00:00:00	2024-11-08T10:00:00	7	Dirección del viento	16.09
8395	7	Sololá	701	Sololá	2	El tablón	12	Diciembre	2023-12-17T00:00:00	2024-11-08T10:00:00	1	Precipitación	0
8396	7	Sololá	701	Sololá	2	El tablón	12	Diciembre	2023-12-17T00:00:00	2024-11-08T10:00:00	8	Radiación solar	551
8397	7	Sololá	701	Sololá	2	El tablón	12	Diciembre	2023-12-17T00:00:00	2024-11-08T11:00:00	2	Temperatura media	15.2
8398	7	Sololá	701	Sololá	2	El tablón	12	Diciembre	2023-12-17T00:00:00	2024-11-08T11:00:00	4	Temperatura máxima	15.2
8399	7	Sololá	701	Sololá	2	El tablón	12	Diciembre	2023-12-17T00:00:00	2024-11-08T11:00:00	3	Temperatura mínima	14.7
8400	7	Sololá	701	Sololá	2	El tablón	12	Diciembre	2023-12-17T00:00:00	2024-11-08T11:00:00	5	Humedad	75
8401	7	Sololá	701	Sololá	2	El tablón	12	Diciembre	2023-12-17T00:00:00	2024-11-08T11:00:00	6	Velocidad del viento	14.5
8402	7	Sololá	701	Sololá	2	El tablón	12	Diciembre	2023-12-17T00:00:00	2024-11-08T11:00:00	7	Dirección del viento	14.48
8403	7	Sololá	701	Sololá	2	El tablón	12	Diciembre	2023-12-17T00:00:00	2024-11-08T11:00:00	1	Precipitación	0
8404	7	Sololá	701	Sololá	2	El tablón	12	Diciembre	2023-12-17T00:00:00	2024-11-08T11:00:00	8	Radiación solar	681
8405	7	Sololá	701	Sololá	2	El tablón	12	Diciembre	2023-12-17T00:00:00	2024-11-08T12:00:00	2	Temperatura media	15.8
8406	7	Sololá	701	Sololá	2	El tablón	12	Diciembre	2023-12-17T00:00:00	2024-11-08T12:00:00	4	Temperatura máxima	16
8407	7	Sololá	701	Sololá	2	El tablón	12	Diciembre	2023-12-17T00:00:00	2024-11-08T12:00:00	3	Temperatura mínima	15.1
8408	7	Sololá	701	Sololá	2	El tablón	12	Diciembre	2023-12-17T00:00:00	2024-11-08T12:00:00	5	Humedad	72
8409	7	Sololá	701	Sololá	2	El tablón	12	Diciembre	2023-12-17T00:00:00	2024-11-08T12:00:00	6	Velocidad del viento	16.1
8410	7	Sololá	701	Sololá	2	El tablón	12	Diciembre	2023-12-17T00:00:00	2024-11-08T12:00:00	7	Dirección del viento	16.09
8411	7	Sololá	701	Sololá	2	El tablón	12	Diciembre	2023-12-17T00:00:00	2024-11-08T12:00:00	1	Precipitación	0
8412	7	Sololá	701	Sololá	2	El tablón	12	Diciembre	2023-12-17T00:00:00	2024-11-08T12:00:00	8	Radiación solar	649
8413	7	Sololá	701	Sololá	2	El tablón	12	Diciembre	2023-12-17T00:00:00	2024-11-08T13:00:00	2	Temperatura media	16.3
8414	7	Sololá	701	Sololá	2	El tablón	12	Diciembre	2023-12-17T00:00:00	2024-11-08T13:00:00	4	Temperatura máxima	16.3
8415	7	Sololá	701	Sololá	2	El tablón	12	Diciembre	2023-12-17T00:00:00	2024-11-08T13:00:00	3	Temperatura mínima	15.6
8416	7	Sololá	701	Sololá	2	El tablón	12	Diciembre	2023-12-17T00:00:00	2024-11-08T13:00:00	5	Humedad	72
8417	7	Sololá	701	Sololá	2	El tablón	12	Diciembre	2023-12-17T00:00:00	2024-11-08T13:00:00	6	Velocidad del viento	14.5
8418	7	Sololá	701	Sololá	2	El tablón	12	Diciembre	2023-12-17T00:00:00	2024-11-08T13:00:00	7	Dirección del viento	14.48
8419	7	Sololá	701	Sololá	2	El tablón	12	Diciembre	2023-12-17T00:00:00	2024-11-08T13:00:00	1	Precipitación	0
8420	7	Sololá	701	Sololá	2	El tablón	12	Diciembre	2023-12-17T00:00:00	2024-11-08T13:00:00	8	Radiación solar	728
8421	7	Sololá	701	Sololá	2	El tablón	12	Diciembre	2023-12-17T00:00:00	2024-11-08T14:00:00	2	Temperatura media	16
8422	7	Sololá	701	Sololá	2	El tablón	12	Diciembre	2023-12-17T00:00:00	2024-11-08T14:00:00	4	Temperatura máxima	17.1
8423	7	Sololá	701	Sololá	2	El tablón	12	Diciembre	2023-12-17T00:00:00	2024-11-08T14:00:00	3	Temperatura mínima	16
8424	7	Sololá	701	Sololá	2	El tablón	12	Diciembre	2023-12-17T00:00:00	2024-11-08T14:00:00	5	Humedad	71
8425	7	Sololá	701	Sololá	2	El tablón	12	Diciembre	2023-12-17T00:00:00	2024-11-08T14:00:00	6	Velocidad del viento	12.9
8426	7	Sololá	701	Sololá	2	El tablón	12	Diciembre	2023-12-17T00:00:00	2024-11-08T14:00:00	7	Dirección del viento	12.87
8427	7	Sololá	701	Sololá	2	El tablón	12	Diciembre	2023-12-17T00:00:00	2024-11-08T14:00:00	1	Precipitación	0
8428	7	Sololá	701	Sololá	2	El tablón	12	Diciembre	2023-12-17T00:00:00	2024-11-08T14:00:00	8	Radiación solar	666
8429	7	Sololá	701	Sololá	2	El tablón	12	Diciembre	2023-12-17T00:00:00	2024-11-08T15:00:00	2	Temperatura media	15.7
8430	7	Sololá	701	Sololá	2	El tablón	12	Diciembre	2023-12-17T00:00:00	2024-11-08T15:00:00	4	Temperatura máxima	16.6
8431	7	Sololá	701	Sololá	2	El tablón	12	Diciembre	2023-12-17T00:00:00	2024-11-08T15:00:00	3	Temperatura mínima	15.4
8432	7	Sololá	701	Sololá	2	El tablón	12	Diciembre	2023-12-17T00:00:00	2024-11-08T15:00:00	5	Humedad	75
8433	7	Sololá	701	Sololá	2	El tablón	12	Diciembre	2023-12-17T00:00:00	2024-11-08T15:00:00	6	Velocidad del viento	11.3
8434	7	Sololá	701	Sololá	2	El tablón	12	Diciembre	2023-12-17T00:00:00	2024-11-08T15:00:00	7	Dirección del viento	11.27
8435	7	Sololá	701	Sololá	2	El tablón	12	Diciembre	2023-12-17T00:00:00	2024-11-08T15:00:00	1	Precipitación	0
8436	7	Sololá	701	Sololá	2	El tablón	12	Diciembre	2023-12-17T00:00:00	2024-11-08T15:00:00	8	Radiación solar	487
8437	7	Sololá	701	Sololá	2	El tablón	12	Diciembre	2023-12-17T00:00:00	2024-11-08T16:00:00	2	Temperatura media	14
8438	7	Sololá	701	Sololá	2	El tablón	12	Diciembre	2023-12-17T00:00:00	2024-11-08T16:00:00	4	Temperatura máxima	15.8
8439	7	Sololá	701	Sololá	2	El tablón	12	Diciembre	2023-12-17T00:00:00	2024-11-08T16:00:00	3	Temperatura mínima	14
8440	7	Sololá	701	Sololá	2	El tablón	12	Diciembre	2023-12-17T00:00:00	2024-11-08T16:00:00	5	Humedad	81
8441	7	Sololá	701	Sololá	2	El tablón	12	Diciembre	2023-12-17T00:00:00	2024-11-08T16:00:00	6	Velocidad del viento	12.9
8442	7	Sololá	701	Sololá	2	El tablón	12	Diciembre	2023-12-17T00:00:00	2024-11-08T16:00:00	7	Dirección del viento	12.87
8443	7	Sololá	701	Sololá	2	El tablón	12	Diciembre	2023-12-17T00:00:00	2024-11-08T16:00:00	1	Precipitación	0
8444	7	Sololá	701	Sololá	2	El tablón	12	Diciembre	2023-12-17T00:00:00	2024-11-08T16:00:00	8	Radiación solar	296
8445	7	Sololá	701	Sololá	2	El tablón	12	Diciembre	2023-12-17T00:00:00	2024-11-08T17:00:00	2	Temperatura media	12.1
8446	7	Sololá	701	Sololá	2	El tablón	12	Diciembre	2023-12-17T00:00:00	2024-11-08T17:00:00	4	Temperatura máxima	14
8447	7	Sololá	701	Sololá	2	El tablón	12	Diciembre	2023-12-17T00:00:00	2024-11-08T17:00:00	3	Temperatura mínima	12.1
8448	7	Sololá	701	Sololá	2	El tablón	12	Diciembre	2023-12-17T00:00:00	2024-11-08T17:00:00	5	Humedad	85
8449	7	Sololá	701	Sololá	2	El tablón	12	Diciembre	2023-12-17T00:00:00	2024-11-08T17:00:00	6	Velocidad del viento	12.9
8450	7	Sololá	701	Sololá	2	El tablón	12	Diciembre	2023-12-17T00:00:00	2024-11-08T17:00:00	7	Dirección del viento	12.87
8451	7	Sololá	701	Sololá	2	El tablón	12	Diciembre	2023-12-17T00:00:00	2024-11-08T17:00:00	1	Precipitación	0
8452	7	Sololá	701	Sololá	2	El tablón	12	Diciembre	2023-12-17T00:00:00	2024-11-08T17:00:00	8	Radiación solar	115
8453	7	Sololá	701	Sololá	2	El tablón	12	Diciembre	2023-12-17T00:00:00	2024-11-08T18:00:00	2	Temperatura media	11.7
8454	7	Sololá	701	Sololá	2	El tablón	12	Diciembre	2023-12-17T00:00:00	2024-11-08T18:00:00	4	Temperatura máxima	12.1
8455	7	Sololá	701	Sololá	2	El tablón	12	Diciembre	2023-12-17T00:00:00	2024-11-08T18:00:00	3	Temperatura mínima	11.4
8456	7	Sololá	701	Sololá	2	El tablón	12	Diciembre	2023-12-17T00:00:00	2024-11-08T18:00:00	5	Humedad	86
8457	7	Sololá	701	Sololá	2	El tablón	12	Diciembre	2023-12-17T00:00:00	2024-11-08T18:00:00	6	Velocidad del viento	11.3
8458	7	Sololá	701	Sololá	2	El tablón	12	Diciembre	2023-12-17T00:00:00	2024-11-08T18:00:00	7	Dirección del viento	11.27
8459	7	Sololá	701	Sololá	2	El tablón	12	Diciembre	2023-12-17T00:00:00	2024-11-08T18:00:00	1	Precipitación	0
8460	7	Sololá	701	Sololá	2	El tablón	12	Diciembre	2023-12-17T00:00:00	2024-11-08T18:00:00	8	Radiación solar	9
8461	7	Sololá	701	Sololá	2	El tablón	12	Diciembre	2023-12-17T00:00:00	2024-11-08T19:00:00	2	Temperatura media	11
8462	7	Sololá	701	Sololá	2	El tablón	12	Diciembre	2023-12-17T00:00:00	2024-11-08T19:00:00	4	Temperatura máxima	11.7
8463	7	Sololá	701	Sololá	2	El tablón	12	Diciembre	2023-12-17T00:00:00	2024-11-08T19:00:00	3	Temperatura mínima	10.9
8464	7	Sololá	701	Sololá	2	El tablón	12	Diciembre	2023-12-17T00:00:00	2024-11-08T19:00:00	5	Humedad	87
8465	7	Sololá	701	Sololá	2	El tablón	12	Diciembre	2023-12-17T00:00:00	2024-11-08T19:00:00	6	Velocidad del viento	12.9
8466	7	Sololá	701	Sololá	2	El tablón	12	Diciembre	2023-12-17T00:00:00	2024-11-08T19:00:00	7	Dirección del viento	12.87
8467	7	Sololá	701	Sololá	2	El tablón	12	Diciembre	2023-12-17T00:00:00	2024-11-08T19:00:00	1	Precipitación	0
8468	7	Sololá	701	Sololá	2	El tablón	12	Diciembre	2023-12-17T00:00:00	2024-11-08T19:00:00	8	Radiación solar	0
8469	7	Sololá	701	Sololá	2	El tablón	12	Diciembre	2023-12-17T00:00:00	2024-11-08T20:00:00	2	Temperatura media	10.9
8470	7	Sololá	701	Sololá	2	El tablón	12	Diciembre	2023-12-17T00:00:00	2024-11-08T20:00:00	4	Temperatura máxima	11.2
8471	7	Sololá	701	Sololá	2	El tablón	12	Diciembre	2023-12-17T00:00:00	2024-11-08T20:00:00	3	Temperatura mínima	10.9
8472	7	Sololá	701	Sololá	2	El tablón	12	Diciembre	2023-12-17T00:00:00	2024-11-08T20:00:00	5	Humedad	87
8473	7	Sololá	701	Sololá	2	El tablón	12	Diciembre	2023-12-17T00:00:00	2024-11-08T20:00:00	6	Velocidad del viento	14.5
8474	7	Sololá	701	Sololá	2	El tablón	12	Diciembre	2023-12-17T00:00:00	2024-11-08T20:00:00	7	Dirección del viento	14.48
8475	7	Sololá	701	Sololá	2	El tablón	12	Diciembre	2023-12-17T00:00:00	2024-11-08T20:00:00	1	Precipitación	0
8476	7	Sololá	701	Sololá	2	El tablón	12	Diciembre	2023-12-17T00:00:00	2024-11-08T20:00:00	8	Radiación solar	0
8477	7	Sololá	701	Sololá	2	El tablón	12	Diciembre	2023-12-17T00:00:00	2024-11-08T21:00:00	2	Temperatura media	10.7
8478	7	Sololá	701	Sololá	2	El tablón	12	Diciembre	2023-12-17T00:00:00	2024-11-08T21:00:00	4	Temperatura máxima	10.9
8479	7	Sololá	701	Sololá	2	El tablón	12	Diciembre	2023-12-17T00:00:00	2024-11-08T21:00:00	3	Temperatura mínima	10.6
8480	7	Sololá	701	Sololá	2	El tablón	12	Diciembre	2023-12-17T00:00:00	2024-11-08T21:00:00	5	Humedad	87
8481	7	Sololá	701	Sololá	2	El tablón	12	Diciembre	2023-12-17T00:00:00	2024-11-08T21:00:00	6	Velocidad del viento	14.5
8482	7	Sololá	701	Sololá	2	El tablón	12	Diciembre	2023-12-17T00:00:00	2024-11-08T21:00:00	7	Dirección del viento	14.48
8483	7	Sololá	701	Sololá	2	El tablón	12	Diciembre	2023-12-17T00:00:00	2024-11-08T21:00:00	1	Precipitación	0
8484	7	Sololá	701	Sololá	2	El tablón	12	Diciembre	2023-12-17T00:00:00	2024-11-08T21:00:00	8	Radiación solar	0
8485	7	Sololá	701	Sololá	2	El tablón	12	Diciembre	2023-12-17T00:00:00	2024-11-08T22:00:00	2	Temperatura media	10.8
8486	7	Sololá	701	Sololá	2	El tablón	12	Diciembre	2023-12-17T00:00:00	2024-11-08T22:00:00	4	Temperatura máxima	10.8
8487	7	Sololá	701	Sololá	2	El tablón	12	Diciembre	2023-12-17T00:00:00	2024-11-08T22:00:00	3	Temperatura mínima	10.7
8488	7	Sololá	701	Sololá	2	El tablón	12	Diciembre	2023-12-17T00:00:00	2024-11-08T22:00:00	5	Humedad	85
8489	7	Sololá	701	Sololá	2	El tablón	12	Diciembre	2023-12-17T00:00:00	2024-11-08T22:00:00	6	Velocidad del viento	14.5
8490	7	Sololá	701	Sololá	2	El tablón	12	Diciembre	2023-12-17T00:00:00	2024-11-08T22:00:00	7	Dirección del viento	14.48
8491	7	Sololá	701	Sololá	2	El tablón	12	Diciembre	2023-12-17T00:00:00	2024-11-08T22:00:00	1	Precipitación	0
8492	7	Sololá	701	Sololá	2	El tablón	12	Diciembre	2023-12-17T00:00:00	2024-11-08T22:00:00	8	Radiación solar	0
8493	7	Sololá	701	Sololá	2	El tablón	12	Diciembre	2023-12-17T00:00:00	2024-11-08T23:00:00	2	Temperatura media	10.2
8494	7	Sololá	701	Sololá	2	El tablón	12	Diciembre	2023-12-17T00:00:00	2024-11-08T23:00:00	4	Temperatura máxima	10.8
8495	7	Sololá	701	Sololá	2	El tablón	12	Diciembre	2023-12-17T00:00:00	2024-11-08T23:00:00	3	Temperatura mínima	10.2
8496	7	Sololá	701	Sololá	2	El tablón	12	Diciembre	2023-12-17T00:00:00	2024-11-08T23:00:00	5	Humedad	85
8497	7	Sololá	701	Sololá	2	El tablón	12	Diciembre	2023-12-17T00:00:00	2024-11-08T23:00:00	6	Velocidad del viento	11.3
8498	7	Sololá	701	Sololá	2	El tablón	12	Diciembre	2023-12-17T00:00:00	2024-11-08T23:00:00	7	Dirección del viento	11.27
8499	7	Sololá	701	Sololá	2	El tablón	12	Diciembre	2023-12-17T00:00:00	2024-11-08T23:00:00	1	Precipitación	0
8500	7	Sololá	701	Sololá	2	El tablón	12	Diciembre	2023-12-17T00:00:00	2024-11-08T23:00:00	8	Radiación solar	0
8501	7	Sololá	701	Sololá	2	El tablón	12	Diciembre	2023-12-18T00:00:00	2024-11-08T00:00:00	2	Temperatura media	9.1
8502	7	Sololá	701	Sololá	2	El tablón	12	Diciembre	2023-12-18T00:00:00	2024-11-08T00:00:00	4	Temperatura máxima	10.2
8503	7	Sololá	701	Sololá	2	El tablón	12	Diciembre	2023-12-18T00:00:00	2024-11-08T00:00:00	3	Temperatura mínima	9.1
8504	7	Sololá	701	Sololá	2	El tablón	12	Diciembre	2023-12-18T00:00:00	2024-11-08T00:00:00	5	Humedad	82
8505	7	Sololá	701	Sololá	2	El tablón	12	Diciembre	2023-12-18T00:00:00	2024-11-08T00:00:00	6	Velocidad del viento	8
8506	7	Sololá	701	Sololá	2	El tablón	12	Diciembre	2023-12-18T00:00:00	2024-11-08T00:00:00	7	Dirección del viento	8.05
8507	7	Sololá	701	Sololá	2	El tablón	12	Diciembre	2023-12-18T00:00:00	2024-11-08T00:00:00	1	Precipitación	0
8508	7	Sololá	701	Sololá	2	El tablón	12	Diciembre	2023-12-18T00:00:00	2024-11-08T00:00:00	8	Radiación solar	0
8509	7	Sololá	701	Sololá	2	El tablón	12	Diciembre	2023-12-18T00:00:00	2024-11-08T01:00:00	2	Temperatura media	9.6
8510	7	Sololá	701	Sololá	2	El tablón	12	Diciembre	2023-12-18T00:00:00	2024-11-08T01:00:00	4	Temperatura máxima	10.2
8511	7	Sololá	701	Sololá	2	El tablón	12	Diciembre	2023-12-18T00:00:00	2024-11-08T01:00:00	3	Temperatura mínima	9
8512	7	Sololá	701	Sololá	2	El tablón	12	Diciembre	2023-12-18T00:00:00	2024-11-08T01:00:00	5	Humedad	60
8513	7	Sololá	701	Sololá	2	El tablón	12	Diciembre	2023-12-18T00:00:00	2024-11-08T01:00:00	6	Velocidad del viento	4.8
8514	7	Sololá	701	Sololá	2	El tablón	12	Diciembre	2023-12-18T00:00:00	2024-11-08T01:00:00	7	Dirección del viento	4.83
8515	7	Sololá	701	Sololá	2	El tablón	12	Diciembre	2023-12-18T00:00:00	2024-11-08T01:00:00	1	Precipitación	0
8516	7	Sololá	701	Sololá	2	El tablón	12	Diciembre	2023-12-18T00:00:00	2024-11-08T01:00:00	8	Radiación solar	0
8517	7	Sololá	701	Sololá	2	El tablón	12	Diciembre	2023-12-18T00:00:00	2024-11-08T02:00:00	2	Temperatura media	10.4
8518	7	Sololá	701	Sololá	2	El tablón	12	Diciembre	2023-12-18T00:00:00	2024-11-08T02:00:00	4	Temperatura máxima	10.8
8519	7	Sololá	701	Sololá	2	El tablón	12	Diciembre	2023-12-18T00:00:00	2024-11-08T02:00:00	3	Temperatura mínima	8.8
8520	7	Sololá	701	Sololá	2	El tablón	12	Diciembre	2023-12-18T00:00:00	2024-11-08T02:00:00	5	Humedad	48
8521	7	Sololá	701	Sololá	2	El tablón	12	Diciembre	2023-12-18T00:00:00	2024-11-08T02:00:00	6	Velocidad del viento	3.2
8522	7	Sololá	701	Sololá	2	El tablón	12	Diciembre	2023-12-18T00:00:00	2024-11-08T02:00:00	7	Dirección del viento	3.22
8523	7	Sololá	701	Sololá	2	El tablón	12	Diciembre	2023-12-18T00:00:00	2024-11-08T02:00:00	1	Precipitación	0
8524	7	Sololá	701	Sololá	2	El tablón	12	Diciembre	2023-12-18T00:00:00	2024-11-08T02:00:00	8	Radiación solar	0
8525	7	Sololá	701	Sololá	2	El tablón	12	Diciembre	2023-12-18T00:00:00	2024-11-08T03:00:00	2	Temperatura media	9.7
8526	7	Sololá	701	Sololá	2	El tablón	12	Diciembre	2023-12-18T00:00:00	2024-11-08T03:00:00	4	Temperatura máxima	10.4
8527	7	Sololá	701	Sololá	2	El tablón	12	Diciembre	2023-12-18T00:00:00	2024-11-08T03:00:00	3	Temperatura mínima	9.4
8528	7	Sololá	701	Sololá	2	El tablón	12	Diciembre	2023-12-18T00:00:00	2024-11-08T03:00:00	5	Humedad	46
8529	7	Sololá	701	Sololá	2	El tablón	12	Diciembre	2023-12-18T00:00:00	2024-11-08T03:00:00	6	Velocidad del viento	4.8
8530	7	Sololá	701	Sololá	2	El tablón	12	Diciembre	2023-12-18T00:00:00	2024-11-08T03:00:00	7	Dirección del viento	4.83
8531	7	Sololá	701	Sololá	2	El tablón	12	Diciembre	2023-12-18T00:00:00	2024-11-08T03:00:00	1	Precipitación	0
8532	7	Sololá	701	Sololá	2	El tablón	12	Diciembre	2023-12-18T00:00:00	2024-11-08T03:00:00	8	Radiación solar	0
8533	7	Sololá	701	Sololá	2	El tablón	12	Diciembre	2023-12-18T00:00:00	2024-11-08T04:00:00	2	Temperatura media	9.4
8534	7	Sololá	701	Sololá	2	El tablón	12	Diciembre	2023-12-18T00:00:00	2024-11-08T04:00:00	4	Temperatura máxima	9.7
8535	7	Sololá	701	Sololá	2	El tablón	12	Diciembre	2023-12-18T00:00:00	2024-11-08T04:00:00	3	Temperatura mínima	8.8
8536	7	Sololá	701	Sololá	2	El tablón	12	Diciembre	2023-12-18T00:00:00	2024-11-08T04:00:00	5	Humedad	61
8537	7	Sololá	701	Sololá	2	El tablón	12	Diciembre	2023-12-18T00:00:00	2024-11-08T04:00:00	6	Velocidad del viento	4.8
8538	7	Sololá	701	Sololá	2	El tablón	12	Diciembre	2023-12-18T00:00:00	2024-11-08T04:00:00	7	Dirección del viento	4.83
8539	7	Sololá	701	Sololá	2	El tablón	12	Diciembre	2023-12-18T00:00:00	2024-11-08T04:00:00	1	Precipitación	0
8540	7	Sololá	701	Sololá	2	El tablón	12	Diciembre	2023-12-18T00:00:00	2024-11-08T04:00:00	8	Radiación solar	0
8541	7	Sololá	701	Sololá	2	El tablón	12	Diciembre	2023-12-18T00:00:00	2024-11-08T05:00:00	2	Temperatura media	9.1
8542	7	Sololá	701	Sololá	2	El tablón	12	Diciembre	2023-12-18T00:00:00	2024-11-08T05:00:00	4	Temperatura máxima	9.5
8543	7	Sololá	701	Sololá	2	El tablón	12	Diciembre	2023-12-18T00:00:00	2024-11-08T05:00:00	3	Temperatura mínima	9.1
8544	7	Sololá	701	Sololá	2	El tablón	12	Diciembre	2023-12-18T00:00:00	2024-11-08T05:00:00	5	Humedad	63
8545	7	Sololá	701	Sololá	2	El tablón	12	Diciembre	2023-12-18T00:00:00	2024-11-08T05:00:00	6	Velocidad del viento	4.8
8546	7	Sololá	701	Sololá	2	El tablón	12	Diciembre	2023-12-18T00:00:00	2024-11-08T05:00:00	7	Dirección del viento	4.83
8547	7	Sololá	701	Sololá	2	El tablón	12	Diciembre	2023-12-18T00:00:00	2024-11-08T05:00:00	1	Precipitación	0
8548	7	Sololá	701	Sololá	2	El tablón	12	Diciembre	2023-12-18T00:00:00	2024-11-08T05:00:00	8	Radiación solar	0
8549	7	Sololá	701	Sololá	2	El tablón	12	Diciembre	2023-12-18T00:00:00	2024-11-08T06:00:00	2	Temperatura media	8.8
8550	7	Sololá	701	Sololá	2	El tablón	12	Diciembre	2023-12-18T00:00:00	2024-11-08T06:00:00	4	Temperatura máxima	9.1
8551	7	Sololá	701	Sololá	2	El tablón	12	Diciembre	2023-12-18T00:00:00	2024-11-08T06:00:00	3	Temperatura mínima	8.6
8552	7	Sololá	701	Sololá	2	El tablón	12	Diciembre	2023-12-18T00:00:00	2024-11-08T06:00:00	5	Humedad	43
8553	7	Sololá	701	Sololá	2	El tablón	12	Diciembre	2023-12-18T00:00:00	2024-11-08T06:00:00	6	Velocidad del viento	4.8
8554	7	Sololá	701	Sololá	2	El tablón	12	Diciembre	2023-12-18T00:00:00	2024-11-08T06:00:00	7	Dirección del viento	4.83
8555	7	Sololá	701	Sololá	2	El tablón	12	Diciembre	2023-12-18T00:00:00	2024-11-08T06:00:00	1	Precipitación	0
8556	7	Sololá	701	Sololá	2	El tablón	12	Diciembre	2023-12-18T00:00:00	2024-11-08T06:00:00	8	Radiación solar	0
8557	7	Sololá	701	Sololá	2	El tablón	12	Diciembre	2023-12-18T00:00:00	2024-11-08T07:00:00	2	Temperatura media	10.1
8558	7	Sololá	701	Sololá	2	El tablón	12	Diciembre	2023-12-18T00:00:00	2024-11-08T07:00:00	4	Temperatura máxima	10.1
8559	7	Sololá	701	Sololá	2	El tablón	12	Diciembre	2023-12-18T00:00:00	2024-11-08T07:00:00	3	Temperatura mínima	8.7
8560	7	Sololá	701	Sololá	2	El tablón	12	Diciembre	2023-12-18T00:00:00	2024-11-08T07:00:00	5	Humedad	36
8561	7	Sololá	701	Sololá	2	El tablón	12	Diciembre	2023-12-18T00:00:00	2024-11-08T07:00:00	6	Velocidad del viento	4.8
8562	7	Sololá	701	Sololá	2	El tablón	12	Diciembre	2023-12-18T00:00:00	2024-11-08T07:00:00	7	Dirección del viento	4.83
8563	7	Sololá	701	Sololá	2	El tablón	12	Diciembre	2023-12-18T00:00:00	2024-11-08T07:00:00	1	Precipitación	0
8564	7	Sololá	701	Sololá	2	El tablón	12	Diciembre	2023-12-18T00:00:00	2024-11-08T07:00:00	8	Radiación solar	11
8565	7	Sololá	701	Sololá	2	El tablón	12	Diciembre	2023-12-18T00:00:00	2024-11-08T08:00:00	2	Temperatura media	13.4
8566	7	Sololá	701	Sololá	2	El tablón	12	Diciembre	2023-12-18T00:00:00	2024-11-08T08:00:00	4	Temperatura máxima	13.4
8567	7	Sololá	701	Sololá	2	El tablón	12	Diciembre	2023-12-18T00:00:00	2024-11-08T08:00:00	3	Temperatura mínima	10.1
8568	7	Sololá	701	Sololá	2	El tablón	12	Diciembre	2023-12-18T00:00:00	2024-11-08T08:00:00	5	Humedad	28
8569	7	Sololá	701	Sololá	2	El tablón	12	Diciembre	2023-12-18T00:00:00	2024-11-08T08:00:00	6	Velocidad del viento	4.8
8570	7	Sololá	701	Sololá	2	El tablón	12	Diciembre	2023-12-18T00:00:00	2024-11-08T08:00:00	7	Dirección del viento	4.83
8571	7	Sololá	701	Sololá	2	El tablón	12	Diciembre	2023-12-18T00:00:00	2024-11-08T08:00:00	1	Precipitación	0
8572	7	Sololá	701	Sololá	2	El tablón	12	Diciembre	2023-12-18T00:00:00	2024-11-08T08:00:00	8	Radiación solar	154
8573	7	Sololá	701	Sololá	2	El tablón	12	Diciembre	2023-12-18T00:00:00	2024-11-08T09:00:00	2	Temperatura media	17.3
8574	7	Sololá	701	Sololá	2	El tablón	12	Diciembre	2023-12-18T00:00:00	2024-11-08T09:00:00	4	Temperatura máxima	17.3
8575	7	Sololá	701	Sololá	2	El tablón	12	Diciembre	2023-12-18T00:00:00	2024-11-08T09:00:00	3	Temperatura mínima	13.4
8576	7	Sololá	701	Sololá	2	El tablón	12	Diciembre	2023-12-18T00:00:00	2024-11-08T09:00:00	5	Humedad	11
8577	7	Sololá	701	Sololá	2	El tablón	12	Diciembre	2023-12-18T00:00:00	2024-11-08T09:00:00	6	Velocidad del viento	8
8578	7	Sololá	701	Sololá	2	El tablón	12	Diciembre	2023-12-18T00:00:00	2024-11-08T09:00:00	7	Dirección del viento	8.05
8579	7	Sololá	701	Sololá	2	El tablón	12	Diciembre	2023-12-18T00:00:00	2024-11-08T09:00:00	1	Precipitación	0
8580	7	Sololá	701	Sololá	2	El tablón	12	Diciembre	2023-12-18T00:00:00	2024-11-08T09:00:00	8	Radiación solar	393
8581	7	Sololá	701	Sololá	2	El tablón	12	Diciembre	2023-12-18T00:00:00	2024-11-08T10:00:00	2	Temperatura media	18.3
8582	7	Sololá	701	Sololá	2	El tablón	12	Diciembre	2023-12-18T00:00:00	2024-11-08T10:00:00	4	Temperatura máxima	18.9
8583	7	Sololá	701	Sololá	2	El tablón	12	Diciembre	2023-12-18T00:00:00	2024-11-08T10:00:00	3	Temperatura mínima	17.3
8584	7	Sololá	701	Sololá	2	El tablón	12	Diciembre	2023-12-18T00:00:00	2024-11-08T10:00:00	5	Humedad	10
8585	7	Sololá	701	Sololá	2	El tablón	12	Diciembre	2023-12-18T00:00:00	2024-11-08T10:00:00	6	Velocidad del viento	8
8586	7	Sololá	701	Sololá	2	El tablón	12	Diciembre	2023-12-18T00:00:00	2024-11-08T10:00:00	7	Dirección del viento	8.05
8587	7	Sololá	701	Sololá	2	El tablón	12	Diciembre	2023-12-18T00:00:00	2024-11-08T10:00:00	1	Precipitación	0
8588	7	Sololá	701	Sololá	2	El tablón	12	Diciembre	2023-12-18T00:00:00	2024-11-08T10:00:00	8	Radiación solar	587
8589	7	Sololá	701	Sololá	2	El tablón	12	Diciembre	2023-12-18T00:00:00	2024-11-08T11:00:00	2	Temperatura media	18.5
8590	7	Sololá	701	Sololá	2	El tablón	12	Diciembre	2023-12-18T00:00:00	2024-11-08T11:00:00	4	Temperatura máxima	19.2
8591	7	Sololá	701	Sololá	2	El tablón	12	Diciembre	2023-12-18T00:00:00	2024-11-08T11:00:00	3	Temperatura mínima	18.3
8592	7	Sololá	701	Sololá	2	El tablón	12	Diciembre	2023-12-18T00:00:00	2024-11-08T11:00:00	5	Humedad	21
8593	7	Sololá	701	Sololá	2	El tablón	12	Diciembre	2023-12-18T00:00:00	2024-11-08T11:00:00	6	Velocidad del viento	11.3
8594	7	Sololá	701	Sololá	2	El tablón	12	Diciembre	2023-12-18T00:00:00	2024-11-08T11:00:00	7	Dirección del viento	11.27
8595	7	Sololá	701	Sololá	2	El tablón	12	Diciembre	2023-12-18T00:00:00	2024-11-08T11:00:00	1	Precipitación	0
8596	7	Sololá	701	Sololá	2	El tablón	12	Diciembre	2023-12-18T00:00:00	2024-11-08T11:00:00	8	Radiación solar	719
8597	7	Sololá	701	Sololá	2	El tablón	12	Diciembre	2023-12-18T00:00:00	2024-11-08T12:00:00	2	Temperatura media	17.8
8598	7	Sololá	701	Sololá	2	El tablón	12	Diciembre	2023-12-18T00:00:00	2024-11-08T12:00:00	4	Temperatura máxima	18.6
8599	7	Sololá	701	Sololá	2	El tablón	12	Diciembre	2023-12-18T00:00:00	2024-11-08T12:00:00	3	Temperatura mínima	17.8
8600	7	Sololá	701	Sololá	2	El tablón	12	Diciembre	2023-12-18T00:00:00	2024-11-08T12:00:00	5	Humedad	29
8601	7	Sololá	701	Sololá	2	El tablón	12	Diciembre	2023-12-18T00:00:00	2024-11-08T12:00:00	6	Velocidad del viento	16.1
8602	7	Sololá	701	Sololá	2	El tablón	12	Diciembre	2023-12-18T00:00:00	2024-11-08T12:00:00	7	Dirección del viento	16.09
8603	7	Sololá	701	Sololá	2	El tablón	12	Diciembre	2023-12-18T00:00:00	2024-11-08T12:00:00	1	Precipitación	0
8604	7	Sololá	701	Sololá	2	El tablón	12	Diciembre	2023-12-18T00:00:00	2024-11-08T12:00:00	8	Radiación solar	688
8605	7	Sololá	701	Sololá	2	El tablón	12	Diciembre	2023-12-18T00:00:00	2024-11-08T13:00:00	2	Temperatura media	18.3
8606	7	Sololá	701	Sololá	2	El tablón	12	Diciembre	2023-12-18T00:00:00	2024-11-08T13:00:00	4	Temperatura máxima	18.3
8607	7	Sololá	701	Sololá	2	El tablón	12	Diciembre	2023-12-18T00:00:00	2024-11-08T13:00:00	3	Temperatura mínima	17.8
8608	7	Sololá	701	Sololá	2	El tablón	12	Diciembre	2023-12-18T00:00:00	2024-11-08T13:00:00	5	Humedad	41
8609	7	Sololá	701	Sololá	2	El tablón	12	Diciembre	2023-12-18T00:00:00	2024-11-08T13:00:00	6	Velocidad del viento	14.5
8610	7	Sololá	701	Sololá	2	El tablón	12	Diciembre	2023-12-18T00:00:00	2024-11-08T13:00:00	7	Dirección del viento	14.48
8611	7	Sololá	701	Sololá	2	El tablón	12	Diciembre	2023-12-18T00:00:00	2024-11-08T13:00:00	1	Precipitación	0
8612	7	Sololá	701	Sololá	2	El tablón	12	Diciembre	2023-12-18T00:00:00	2024-11-08T13:00:00	8	Radiación solar	738
8613	7	Sololá	701	Sololá	2	El tablón	12	Diciembre	2023-12-18T00:00:00	2024-11-08T14:00:00	2	Temperatura media	17.1
8614	7	Sololá	701	Sololá	2	El tablón	12	Diciembre	2023-12-18T00:00:00	2024-11-08T14:00:00	4	Temperatura máxima	18.7
8615	7	Sololá	701	Sololá	2	El tablón	12	Diciembre	2023-12-18T00:00:00	2024-11-08T14:00:00	3	Temperatura mínima	17.1
8616	7	Sololá	701	Sololá	2	El tablón	12	Diciembre	2023-12-18T00:00:00	2024-11-08T14:00:00	5	Humedad	31
8617	7	Sololá	701	Sololá	2	El tablón	12	Diciembre	2023-12-18T00:00:00	2024-11-08T14:00:00	6	Velocidad del viento	14.5
8618	7	Sololá	701	Sololá	2	El tablón	12	Diciembre	2023-12-18T00:00:00	2024-11-08T14:00:00	7	Dirección del viento	14.48
8619	7	Sololá	701	Sololá	2	El tablón	12	Diciembre	2023-12-18T00:00:00	2024-11-08T14:00:00	1	Precipitación	0
8620	7	Sololá	701	Sololá	2	El tablón	12	Diciembre	2023-12-18T00:00:00	2024-11-08T14:00:00	8	Radiación solar	718
8621	7	Sololá	701	Sololá	2	El tablón	12	Diciembre	2023-12-18T00:00:00	2024-11-08T15:00:00	2	Temperatura media	16.4
8622	7	Sololá	701	Sololá	2	El tablón	12	Diciembre	2023-12-18T00:00:00	2024-11-08T15:00:00	4	Temperatura máxima	17.8
8623	7	Sololá	701	Sololá	2	El tablón	12	Diciembre	2023-12-18T00:00:00	2024-11-08T15:00:00	3	Temperatura mínima	16.4
8624	7	Sololá	701	Sololá	2	El tablón	12	Diciembre	2023-12-18T00:00:00	2024-11-08T15:00:00	5	Humedad	36
8625	7	Sololá	701	Sololá	2	El tablón	12	Diciembre	2023-12-18T00:00:00	2024-11-08T15:00:00	6	Velocidad del viento	12.9
8626	7	Sololá	701	Sololá	2	El tablón	12	Diciembre	2023-12-18T00:00:00	2024-11-08T15:00:00	7	Dirección del viento	12.87
8627	7	Sololá	701	Sololá	2	El tablón	12	Diciembre	2023-12-18T00:00:00	2024-11-08T15:00:00	1	Precipitación	0
8628	7	Sololá	701	Sololá	2	El tablón	12	Diciembre	2023-12-18T00:00:00	2024-11-08T15:00:00	8	Radiación solar	599
8629	7	Sololá	701	Sololá	2	El tablón	12	Diciembre	2023-12-18T00:00:00	2024-11-08T16:00:00	2	Temperatura media	15.7
8630	7	Sololá	701	Sololá	2	El tablón	12	Diciembre	2023-12-18T00:00:00	2024-11-08T16:00:00	4	Temperatura máxima	16.7
8631	7	Sololá	701	Sololá	2	El tablón	12	Diciembre	2023-12-18T00:00:00	2024-11-08T16:00:00	3	Temperatura mínima	15.6
8632	7	Sololá	701	Sololá	2	El tablón	12	Diciembre	2023-12-18T00:00:00	2024-11-08T16:00:00	5	Humedad	33
8633	7	Sololá	701	Sololá	2	El tablón	12	Diciembre	2023-12-18T00:00:00	2024-11-08T16:00:00	6	Velocidad del viento	12.9
8634	7	Sololá	701	Sololá	2	El tablón	12	Diciembre	2023-12-18T00:00:00	2024-11-08T16:00:00	7	Dirección del viento	12.87
8635	7	Sololá	701	Sololá	2	El tablón	12	Diciembre	2023-12-18T00:00:00	2024-11-08T16:00:00	1	Precipitación	0
8636	7	Sololá	701	Sololá	2	El tablón	12	Diciembre	2023-12-18T00:00:00	2024-11-08T16:00:00	8	Radiación solar	427
8637	7	Sololá	701	Sololá	2	El tablón	12	Diciembre	2023-12-18T00:00:00	2024-11-08T17:00:00	2	Temperatura media	14.3
8638	7	Sololá	701	Sololá	2	El tablón	12	Diciembre	2023-12-18T00:00:00	2024-11-08T17:00:00	4	Temperatura máxima	15.8
8639	7	Sololá	701	Sololá	2	El tablón	12	Diciembre	2023-12-18T00:00:00	2024-11-08T17:00:00	3	Temperatura mínima	14.3
8640	7	Sololá	701	Sololá	2	El tablón	12	Diciembre	2023-12-18T00:00:00	2024-11-08T17:00:00	5	Humedad	37
8641	7	Sololá	701	Sololá	2	El tablón	12	Diciembre	2023-12-18T00:00:00	2024-11-08T17:00:00	6	Velocidad del viento	9.7
8642	7	Sololá	701	Sololá	2	El tablón	12	Diciembre	2023-12-18T00:00:00	2024-11-08T17:00:00	7	Dirección del viento	9.66
8643	7	Sololá	701	Sololá	2	El tablón	12	Diciembre	2023-12-18T00:00:00	2024-11-08T17:00:00	1	Precipitación	0
8644	7	Sololá	701	Sololá	2	El tablón	12	Diciembre	2023-12-18T00:00:00	2024-11-08T17:00:00	8	Radiación solar	211
8645	7	Sololá	701	Sololá	2	El tablón	12	Diciembre	2023-12-18T00:00:00	2024-11-08T18:00:00	2	Temperatura media	11.1
8646	7	Sololá	701	Sololá	2	El tablón	12	Diciembre	2023-12-18T00:00:00	2024-11-08T18:00:00	4	Temperatura máxima	14.2
8647	7	Sololá	701	Sololá	2	El tablón	12	Diciembre	2023-12-18T00:00:00	2024-11-08T18:00:00	3	Temperatura mínima	11.1
8648	7	Sololá	701	Sololá	2	El tablón	12	Diciembre	2023-12-18T00:00:00	2024-11-08T18:00:00	5	Humedad	48
8649	7	Sololá	701	Sololá	2	El tablón	12	Diciembre	2023-12-18T00:00:00	2024-11-08T18:00:00	6	Velocidad del viento	11.3
8650	7	Sololá	701	Sololá	2	El tablón	12	Diciembre	2023-12-18T00:00:00	2024-11-08T18:00:00	7	Dirección del viento	11.27
8651	7	Sololá	701	Sololá	2	El tablón	12	Diciembre	2023-12-18T00:00:00	2024-11-08T18:00:00	1	Precipitación	0
8652	7	Sololá	701	Sololá	2	El tablón	12	Diciembre	2023-12-18T00:00:00	2024-11-08T18:00:00	8	Radiación solar	19
8653	7	Sololá	701	Sololá	2	El tablón	12	Diciembre	2023-12-18T00:00:00	2024-11-08T19:00:00	2	Temperatura media	9.7
8654	7	Sololá	701	Sololá	2	El tablón	12	Diciembre	2023-12-18T00:00:00	2024-11-08T19:00:00	4	Temperatura máxima	11.1
8655	7	Sololá	701	Sololá	2	El tablón	12	Diciembre	2023-12-18T00:00:00	2024-11-08T19:00:00	3	Temperatura mínima	9.7
8656	7	Sololá	701	Sololá	2	El tablón	12	Diciembre	2023-12-18T00:00:00	2024-11-08T19:00:00	5	Humedad	46
8657	7	Sololá	701	Sololá	2	El tablón	12	Diciembre	2023-12-18T00:00:00	2024-11-08T19:00:00	6	Velocidad del viento	9.7
8658	7	Sololá	701	Sololá	2	El tablón	12	Diciembre	2023-12-18T00:00:00	2024-11-08T19:00:00	7	Dirección del viento	9.66
8659	7	Sololá	701	Sololá	2	El tablón	12	Diciembre	2023-12-18T00:00:00	2024-11-08T19:00:00	1	Precipitación	0
8660	7	Sololá	701	Sololá	2	El tablón	12	Diciembre	2023-12-18T00:00:00	2024-11-08T19:00:00	8	Radiación solar	0
8661	7	Sololá	701	Sololá	2	El tablón	12	Diciembre	2023-12-18T00:00:00	2024-11-08T20:00:00	2	Temperatura media	8.9
8662	7	Sololá	701	Sololá	2	El tablón	12	Diciembre	2023-12-18T00:00:00	2024-11-08T20:00:00	4	Temperatura máxima	9.7
8663	7	Sololá	701	Sololá	2	El tablón	12	Diciembre	2023-12-18T00:00:00	2024-11-08T20:00:00	3	Temperatura mínima	8.8
8664	7	Sololá	701	Sololá	2	El tablón	12	Diciembre	2023-12-18T00:00:00	2024-11-08T20:00:00	5	Humedad	41
8665	7	Sololá	701	Sololá	2	El tablón	12	Diciembre	2023-12-18T00:00:00	2024-11-08T20:00:00	6	Velocidad del viento	12.9
8666	7	Sololá	701	Sololá	2	El tablón	12	Diciembre	2023-12-18T00:00:00	2024-11-08T20:00:00	7	Dirección del viento	12.87
8667	7	Sololá	701	Sololá	2	El tablón	12	Diciembre	2023-12-18T00:00:00	2024-11-08T20:00:00	1	Precipitación	0
8668	7	Sololá	701	Sololá	2	El tablón	12	Diciembre	2023-12-18T00:00:00	2024-11-08T20:00:00	8	Radiación solar	0
8669	7	Sololá	701	Sololá	2	El tablón	12	Diciembre	2023-12-18T00:00:00	2024-11-08T21:00:00	2	Temperatura media	9
8670	7	Sololá	701	Sololá	2	El tablón	12	Diciembre	2023-12-18T00:00:00	2024-11-08T21:00:00	4	Temperatura máxima	9.2
8671	7	Sololá	701	Sololá	2	El tablón	12	Diciembre	2023-12-18T00:00:00	2024-11-08T21:00:00	3	Temperatura mínima	8.8
8672	7	Sololá	701	Sololá	2	El tablón	12	Diciembre	2023-12-18T00:00:00	2024-11-08T21:00:00	5	Humedad	29
8673	7	Sololá	701	Sololá	2	El tablón	12	Diciembre	2023-12-18T00:00:00	2024-11-08T21:00:00	6	Velocidad del viento	14.5
8674	7	Sololá	701	Sololá	2	El tablón	12	Diciembre	2023-12-18T00:00:00	2024-11-08T21:00:00	7	Dirección del viento	14.48
8675	7	Sololá	701	Sololá	2	El tablón	12	Diciembre	2023-12-18T00:00:00	2024-11-08T21:00:00	1	Precipitación	0
8676	7	Sololá	701	Sololá	2	El tablón	12	Diciembre	2023-12-18T00:00:00	2024-11-08T21:00:00	8	Radiación solar	0
8677	7	Sololá	701	Sololá	2	El tablón	12	Diciembre	2023-12-18T00:00:00	2024-11-08T22:00:00	2	Temperatura media	8.3
8678	7	Sololá	701	Sololá	2	El tablón	12	Diciembre	2023-12-18T00:00:00	2024-11-08T22:00:00	4	Temperatura máxima	9.1
8679	7	Sololá	701	Sololá	2	El tablón	12	Diciembre	2023-12-18T00:00:00	2024-11-08T22:00:00	3	Temperatura mínima	8.3
8680	7	Sololá	701	Sololá	2	El tablón	12	Diciembre	2023-12-18T00:00:00	2024-11-08T22:00:00	5	Humedad	32
8681	7	Sololá	701	Sololá	2	El tablón	12	Diciembre	2023-12-18T00:00:00	2024-11-08T22:00:00	6	Velocidad del viento	16.1
8682	7	Sololá	701	Sololá	2	El tablón	12	Diciembre	2023-12-18T00:00:00	2024-11-08T22:00:00	7	Dirección del viento	16.09
8683	7	Sololá	701	Sololá	2	El tablón	12	Diciembre	2023-12-18T00:00:00	2024-11-08T22:00:00	1	Precipitación	0
8684	7	Sololá	701	Sololá	2	El tablón	12	Diciembre	2023-12-18T00:00:00	2024-11-08T22:00:00	8	Radiación solar	0
8685	7	Sololá	701	Sololá	2	El tablón	12	Diciembre	2023-12-18T00:00:00	2024-11-08T23:00:00	2	Temperatura media	8.7
8686	7	Sololá	701	Sololá	2	El tablón	12	Diciembre	2023-12-18T00:00:00	2024-11-08T23:00:00	4	Temperatura máxima	8.7
8687	7	Sololá	701	Sololá	2	El tablón	12	Diciembre	2023-12-18T00:00:00	2024-11-08T23:00:00	3	Temperatura mínima	8.2
8688	7	Sololá	701	Sololá	2	El tablón	12	Diciembre	2023-12-18T00:00:00	2024-11-08T23:00:00	5	Humedad	22
8689	7	Sololá	701	Sololá	2	El tablón	12	Diciembre	2023-12-18T00:00:00	2024-11-08T23:00:00	6	Velocidad del viento	14.5
8690	7	Sololá	701	Sololá	2	El tablón	12	Diciembre	2023-12-18T00:00:00	2024-11-08T23:00:00	7	Dirección del viento	14.48
8691	7	Sololá	701	Sololá	2	El tablón	12	Diciembre	2023-12-18T00:00:00	2024-11-08T23:00:00	1	Precipitación	0
8692	7	Sololá	701	Sololá	2	El tablón	12	Diciembre	2023-12-18T00:00:00	2024-11-08T23:00:00	8	Radiación solar	0
8693	7	Sololá	701	Sololá	2	El tablón	12	Diciembre	2023-12-19T00:00:00	2024-11-08T00:00:00	2	Temperatura media	8.9
8694	7	Sololá	701	Sololá	2	El tablón	12	Diciembre	2023-12-19T00:00:00	2024-11-08T00:00:00	4	Temperatura máxima	8.9
8695	7	Sololá	701	Sololá	2	El tablón	12	Diciembre	2023-12-19T00:00:00	2024-11-08T00:00:00	3	Temperatura mínima	8.6
8696	7	Sololá	701	Sololá	2	El tablón	12	Diciembre	2023-12-19T00:00:00	2024-11-08T00:00:00	5	Humedad	16
8697	7	Sololá	701	Sololá	2	El tablón	12	Diciembre	2023-12-19T00:00:00	2024-11-08T00:00:00	6	Velocidad del viento	12.9
8698	7	Sololá	701	Sololá	2	El tablón	12	Diciembre	2023-12-19T00:00:00	2024-11-08T00:00:00	7	Dirección del viento	12.87
8699	7	Sololá	701	Sololá	2	El tablón	12	Diciembre	2023-12-19T00:00:00	2024-11-08T00:00:00	1	Precipitación	0
8700	7	Sololá	701	Sololá	2	El tablón	12	Diciembre	2023-12-19T00:00:00	2024-11-08T00:00:00	8	Radiación solar	0
8701	7	Sololá	701	Sololá	2	El tablón	12	Diciembre	2023-12-19T00:00:00	2024-11-08T01:00:00	2	Temperatura media	8.4
8702	7	Sololá	701	Sololá	2	El tablón	12	Diciembre	2023-12-19T00:00:00	2024-11-08T01:00:00	4	Temperatura máxima	8.9
8703	7	Sololá	701	Sololá	2	El tablón	12	Diciembre	2023-12-19T00:00:00	2024-11-08T01:00:00	3	Temperatura mínima	8.4
8704	7	Sololá	701	Sololá	2	El tablón	12	Diciembre	2023-12-19T00:00:00	2024-11-08T01:00:00	5	Humedad	18
8705	7	Sololá	701	Sololá	2	El tablón	12	Diciembre	2023-12-19T00:00:00	2024-11-08T01:00:00	6	Velocidad del viento	14.5
8706	7	Sololá	701	Sololá	2	El tablón	12	Diciembre	2023-12-19T00:00:00	2024-11-08T01:00:00	7	Dirección del viento	14.48
8707	7	Sololá	701	Sololá	2	El tablón	12	Diciembre	2023-12-19T00:00:00	2024-11-08T01:00:00	1	Precipitación	0
8708	7	Sololá	701	Sololá	2	El tablón	12	Diciembre	2023-12-19T00:00:00	2024-11-08T01:00:00	8	Radiación solar	0
8709	7	Sololá	701	Sololá	2	El tablón	12	Diciembre	2023-12-19T00:00:00	2024-11-08T02:00:00	2	Temperatura media	8.6
8710	7	Sololá	701	Sololá	2	El tablón	12	Diciembre	2023-12-19T00:00:00	2024-11-08T02:00:00	4	Temperatura máxima	8.6
8711	7	Sololá	701	Sololá	2	El tablón	12	Diciembre	2023-12-19T00:00:00	2024-11-08T02:00:00	3	Temperatura mínima	8.1
8712	7	Sololá	701	Sololá	2	El tablón	12	Diciembre	2023-12-19T00:00:00	2024-11-08T02:00:00	5	Humedad	17
8713	7	Sololá	701	Sololá	2	El tablón	12	Diciembre	2023-12-19T00:00:00	2024-11-08T02:00:00	6	Velocidad del viento	12.9
8714	7	Sololá	701	Sololá	2	El tablón	12	Diciembre	2023-12-19T00:00:00	2024-11-08T02:00:00	7	Dirección del viento	12.87
8715	7	Sololá	701	Sololá	2	El tablón	12	Diciembre	2023-12-19T00:00:00	2024-11-08T02:00:00	1	Precipitación	0
8716	7	Sololá	701	Sololá	2	El tablón	12	Diciembre	2023-12-19T00:00:00	2024-11-08T02:00:00	8	Radiación solar	0
8717	7	Sololá	701	Sololá	2	El tablón	12	Diciembre	2023-12-19T00:00:00	2024-11-08T03:00:00	2	Temperatura media	9.1
8718	7	Sololá	701	Sololá	2	El tablón	12	Diciembre	2023-12-19T00:00:00	2024-11-08T03:00:00	4	Temperatura máxima	9.3
8719	7	Sololá	701	Sololá	2	El tablón	12	Diciembre	2023-12-19T00:00:00	2024-11-08T03:00:00	3	Temperatura mínima	8.6
8720	7	Sololá	701	Sololá	2	El tablón	12	Diciembre	2023-12-19T00:00:00	2024-11-08T03:00:00	5	Humedad	15
8721	7	Sololá	701	Sololá	2	El tablón	12	Diciembre	2023-12-19T00:00:00	2024-11-08T03:00:00	6	Velocidad del viento	11.3
8722	7	Sololá	701	Sololá	2	El tablón	12	Diciembre	2023-12-19T00:00:00	2024-11-08T03:00:00	7	Dirección del viento	11.27
8723	7	Sololá	701	Sololá	2	El tablón	12	Diciembre	2023-12-19T00:00:00	2024-11-08T03:00:00	1	Precipitación	0
8724	7	Sololá	701	Sololá	2	El tablón	12	Diciembre	2023-12-19T00:00:00	2024-11-08T03:00:00	8	Radiación solar	0
8725	7	Sololá	701	Sololá	2	El tablón	12	Diciembre	2023-12-19T00:00:00	2024-11-08T04:00:00	2	Temperatura media	9.1
8726	7	Sololá	701	Sololá	2	El tablón	12	Diciembre	2023-12-19T00:00:00	2024-11-08T04:00:00	4	Temperatura máxima	9.1
8727	7	Sololá	701	Sololá	2	El tablón	12	Diciembre	2023-12-19T00:00:00	2024-11-08T04:00:00	3	Temperatura mínima	8.8
8728	7	Sololá	701	Sololá	2	El tablón	12	Diciembre	2023-12-19T00:00:00	2024-11-08T04:00:00	5	Humedad	14
8729	7	Sololá	701	Sololá	2	El tablón	12	Diciembre	2023-12-19T00:00:00	2024-11-08T04:00:00	6	Velocidad del viento	8
8730	7	Sololá	701	Sololá	2	El tablón	12	Diciembre	2023-12-19T00:00:00	2024-11-08T04:00:00	7	Dirección del viento	8.05
8731	7	Sololá	701	Sololá	2	El tablón	12	Diciembre	2023-12-19T00:00:00	2024-11-08T04:00:00	1	Precipitación	0
8732	7	Sololá	701	Sololá	2	El tablón	12	Diciembre	2023-12-19T00:00:00	2024-11-08T04:00:00	8	Radiación solar	0
8733	7	Sololá	701	Sololá	2	El tablón	12	Diciembre	2023-12-19T00:00:00	2024-11-08T05:00:00	2	Temperatura media	9.9
8734	7	Sololá	701	Sololá	2	El tablón	12	Diciembre	2023-12-19T00:00:00	2024-11-08T05:00:00	4	Temperatura máxima	9.9
8735	7	Sololá	701	Sololá	2	El tablón	12	Diciembre	2023-12-19T00:00:00	2024-11-08T05:00:00	3	Temperatura mínima	8.9
8736	7	Sololá	701	Sololá	2	El tablón	12	Diciembre	2023-12-19T00:00:00	2024-11-08T05:00:00	5	Humedad	11
8737	7	Sololá	701	Sololá	2	El tablón	12	Diciembre	2023-12-19T00:00:00	2024-11-08T05:00:00	6	Velocidad del viento	8
8738	7	Sololá	701	Sololá	2	El tablón	12	Diciembre	2023-12-19T00:00:00	2024-11-08T05:00:00	7	Dirección del viento	8.05
8739	7	Sololá	701	Sololá	2	El tablón	12	Diciembre	2023-12-19T00:00:00	2024-11-08T05:00:00	1	Precipitación	0
8740	7	Sololá	701	Sololá	2	El tablón	12	Diciembre	2023-12-19T00:00:00	2024-11-08T05:00:00	8	Radiación solar	0
8741	7	Sololá	701	Sololá	2	El tablón	12	Diciembre	2023-12-19T00:00:00	2024-11-08T06:00:00	2	Temperatura media	10.2
8742	7	Sololá	701	Sololá	2	El tablón	12	Diciembre	2023-12-19T00:00:00	2024-11-08T06:00:00	4	Temperatura máxima	10.3
8743	7	Sololá	701	Sololá	2	El tablón	12	Diciembre	2023-12-19T00:00:00	2024-11-08T06:00:00	3	Temperatura mínima	9.9
8744	7	Sololá	701	Sololá	2	El tablón	12	Diciembre	2023-12-19T00:00:00	2024-11-08T06:00:00	5	Humedad	11
8745	7	Sololá	701	Sololá	2	El tablón	12	Diciembre	2023-12-19T00:00:00	2024-11-08T06:00:00	6	Velocidad del viento	11.3
8746	7	Sololá	701	Sololá	2	El tablón	12	Diciembre	2023-12-19T00:00:00	2024-11-08T06:00:00	7	Dirección del viento	11.27
8747	7	Sololá	701	Sololá	2	El tablón	12	Diciembre	2023-12-19T00:00:00	2024-11-08T06:00:00	1	Precipitación	0
8748	7	Sololá	701	Sololá	2	El tablón	12	Diciembre	2023-12-19T00:00:00	2024-11-08T06:00:00	8	Radiación solar	0
8749	7	Sololá	701	Sololá	2	El tablón	12	Diciembre	2023-12-19T00:00:00	2024-11-08T07:00:00	2	Temperatura media	11.2
8750	7	Sololá	701	Sololá	2	El tablón	12	Diciembre	2023-12-19T00:00:00	2024-11-08T07:00:00	4	Temperatura máxima	11.2
8751	7	Sololá	701	Sololá	2	El tablón	12	Diciembre	2023-12-19T00:00:00	2024-11-08T07:00:00	3	Temperatura mínima	10.2
8752	7	Sololá	701	Sololá	2	El tablón	12	Diciembre	2023-12-19T00:00:00	2024-11-08T07:00:00	5	Humedad	10
8753	7	Sololá	701	Sololá	2	El tablón	12	Diciembre	2023-12-19T00:00:00	2024-11-08T07:00:00	6	Velocidad del viento	14.5
8754	7	Sololá	701	Sololá	2	El tablón	12	Diciembre	2023-12-19T00:00:00	2024-11-08T07:00:00	7	Dirección del viento	14.48
8755	7	Sololá	701	Sololá	2	El tablón	12	Diciembre	2023-12-19T00:00:00	2024-11-08T07:00:00	1	Precipitación	0
8756	7	Sololá	701	Sololá	2	El tablón	12	Diciembre	2023-12-19T00:00:00	2024-11-08T07:00:00	8	Radiación solar	11
8757	7	Sololá	701	Sololá	2	El tablón	12	Diciembre	2023-12-19T00:00:00	2024-11-08T08:00:00	2	Temperatura media	13.2
8758	7	Sololá	701	Sololá	2	El tablón	12	Diciembre	2023-12-19T00:00:00	2024-11-08T08:00:00	4	Temperatura máxima	13.2
8759	7	Sololá	701	Sololá	2	El tablón	12	Diciembre	2023-12-19T00:00:00	2024-11-08T08:00:00	3	Temperatura mínima	11.2
8760	7	Sololá	701	Sololá	2	El tablón	12	Diciembre	2023-12-19T00:00:00	2024-11-08T08:00:00	5	Humedad	11
8761	7	Sololá	701	Sololá	2	El tablón	12	Diciembre	2023-12-19T00:00:00	2024-11-08T08:00:00	6	Velocidad del viento	12.9
8762	7	Sololá	701	Sololá	2	El tablón	12	Diciembre	2023-12-19T00:00:00	2024-11-08T08:00:00	7	Dirección del viento	12.87
8763	7	Sololá	701	Sololá	2	El tablón	12	Diciembre	2023-12-19T00:00:00	2024-11-08T08:00:00	1	Precipitación	0
8764	7	Sololá	701	Sololá	2	El tablón	12	Diciembre	2023-12-19T00:00:00	2024-11-08T08:00:00	8	Radiación solar	159
8765	7	Sololá	701	Sololá	2	El tablón	12	Diciembre	2023-12-19T00:00:00	2024-11-08T09:00:00	2	Temperatura media	14.6
8766	7	Sololá	701	Sololá	2	El tablón	12	Diciembre	2023-12-19T00:00:00	2024-11-08T09:00:00	4	Temperatura máxima	14.6
8767	7	Sololá	701	Sololá	2	El tablón	12	Diciembre	2023-12-19T00:00:00	2024-11-08T09:00:00	3	Temperatura mínima	13.2
8768	7	Sololá	701	Sololá	2	El tablón	12	Diciembre	2023-12-19T00:00:00	2024-11-08T09:00:00	5	Humedad	10
8769	7	Sololá	701	Sololá	2	El tablón	12	Diciembre	2023-12-19T00:00:00	2024-11-08T09:00:00	6	Velocidad del viento	14.5
8770	7	Sololá	701	Sololá	2	El tablón	12	Diciembre	2023-12-19T00:00:00	2024-11-08T09:00:00	7	Dirección del viento	14.48
8771	7	Sololá	701	Sololá	2	El tablón	12	Diciembre	2023-12-19T00:00:00	2024-11-08T09:00:00	1	Precipitación	0
8772	7	Sololá	701	Sololá	2	El tablón	12	Diciembre	2023-12-19T00:00:00	2024-11-08T09:00:00	8	Radiación solar	398
8773	7	Sololá	701	Sololá	2	El tablón	12	Diciembre	2023-12-19T00:00:00	2024-11-08T10:00:00	2	Temperatura media	15.3
8774	7	Sololá	701	Sololá	2	El tablón	12	Diciembre	2023-12-19T00:00:00	2024-11-08T10:00:00	4	Temperatura máxima	15.3
8775	7	Sololá	701	Sololá	2	El tablón	12	Diciembre	2023-12-19T00:00:00	2024-11-08T10:00:00	3	Temperatura mínima	14.6
8776	7	Sololá	701	Sololá	2	El tablón	12	Diciembre	2023-12-19T00:00:00	2024-11-08T10:00:00	5	Humedad	11
8777	7	Sololá	701	Sololá	2	El tablón	12	Diciembre	2023-12-19T00:00:00	2024-11-08T10:00:00	6	Velocidad del viento	16.1
8778	7	Sololá	701	Sololá	2	El tablón	12	Diciembre	2023-12-19T00:00:00	2024-11-08T10:00:00	7	Dirección del viento	16.09
8779	7	Sololá	701	Sololá	2	El tablón	12	Diciembre	2023-12-19T00:00:00	2024-11-08T10:00:00	1	Precipitación	0
8780	7	Sololá	701	Sololá	2	El tablón	12	Diciembre	2023-12-19T00:00:00	2024-11-08T10:00:00	8	Radiación solar	586
8781	7	Sololá	701	Sololá	2	El tablón	12	Diciembre	2023-12-19T00:00:00	2024-11-08T11:00:00	2	Temperatura media	15.8
8782	7	Sololá	701	Sololá	2	El tablón	12	Diciembre	2023-12-19T00:00:00	2024-11-08T11:00:00	4	Temperatura máxima	15.9
8783	7	Sololá	701	Sololá	2	El tablón	12	Diciembre	2023-12-19T00:00:00	2024-11-08T11:00:00	3	Temperatura mínima	15.3
8784	7	Sololá	701	Sololá	2	El tablón	12	Diciembre	2023-12-19T00:00:00	2024-11-08T11:00:00	5	Humedad	14
8785	7	Sololá	701	Sololá	2	El tablón	12	Diciembre	2023-12-19T00:00:00	2024-11-08T11:00:00	6	Velocidad del viento	16.1
8786	7	Sololá	701	Sololá	2	El tablón	12	Diciembre	2023-12-19T00:00:00	2024-11-08T11:00:00	7	Dirección del viento	16.09
8787	7	Sololá	701	Sololá	2	El tablón	12	Diciembre	2023-12-19T00:00:00	2024-11-08T11:00:00	1	Precipitación	0
8788	7	Sololá	701	Sololá	2	El tablón	12	Diciembre	2023-12-19T00:00:00	2024-11-08T11:00:00	8	Radiación solar	722
8789	7	Sololá	701	Sololá	2	El tablón	12	Diciembre	2023-12-19T00:00:00	2024-11-08T12:00:00	2	Temperatura media	16.4
8790	7	Sololá	701	Sololá	2	El tablón	12	Diciembre	2023-12-19T00:00:00	2024-11-08T12:00:00	4	Temperatura máxima	16.5
8791	7	Sololá	701	Sololá	2	El tablón	12	Diciembre	2023-12-19T00:00:00	2024-11-08T12:00:00	3	Temperatura mínima	15.8
8792	7	Sololá	701	Sololá	2	El tablón	12	Diciembre	2023-12-19T00:00:00	2024-11-08T12:00:00	5	Humedad	18
8793	7	Sololá	701	Sololá	2	El tablón	12	Diciembre	2023-12-19T00:00:00	2024-11-08T12:00:00	6	Velocidad del viento	14.5
8794	7	Sololá	701	Sololá	2	El tablón	12	Diciembre	2023-12-19T00:00:00	2024-11-08T12:00:00	7	Dirección del viento	14.48
8795	7	Sololá	701	Sololá	2	El tablón	12	Diciembre	2023-12-19T00:00:00	2024-11-08T12:00:00	1	Precipitación	0
8796	7	Sololá	701	Sololá	2	El tablón	12	Diciembre	2023-12-19T00:00:00	2024-11-08T12:00:00	8	Radiación solar	696
8797	7	Sololá	701	Sololá	2	El tablón	12	Diciembre	2023-12-19T00:00:00	2024-11-08T13:00:00	2	Temperatura media	16.6
8798	7	Sololá	701	Sololá	2	El tablón	12	Diciembre	2023-12-19T00:00:00	2024-11-08T13:00:00	4	Temperatura máxima	16.6
8799	7	Sololá	701	Sololá	2	El tablón	12	Diciembre	2023-12-19T00:00:00	2024-11-08T13:00:00	3	Temperatura mínima	16.2
8800	7	Sololá	701	Sololá	2	El tablón	12	Diciembre	2023-12-19T00:00:00	2024-11-08T13:00:00	5	Humedad	22
8801	7	Sololá	701	Sololá	2	El tablón	12	Diciembre	2023-12-19T00:00:00	2024-11-08T13:00:00	6	Velocidad del viento	14.5
8802	7	Sololá	701	Sololá	2	El tablón	12	Diciembre	2023-12-19T00:00:00	2024-11-08T13:00:00	7	Dirección del viento	14.48
8803	7	Sololá	701	Sololá	2	El tablón	12	Diciembre	2023-12-19T00:00:00	2024-11-08T13:00:00	1	Precipitación	0
8804	7	Sololá	701	Sololá	2	El tablón	12	Diciembre	2023-12-19T00:00:00	2024-11-08T13:00:00	8	Radiación solar	752
8805	7	Sololá	701	Sololá	2	El tablón	12	Diciembre	2023-12-19T00:00:00	2024-11-08T14:00:00	2	Temperatura media	17.4
8806	7	Sololá	701	Sololá	2	El tablón	12	Diciembre	2023-12-19T00:00:00	2024-11-08T14:00:00	4	Temperatura máxima	17.5
8807	7	Sololá	701	Sololá	2	El tablón	12	Diciembre	2023-12-19T00:00:00	2024-11-08T14:00:00	3	Temperatura mínima	16.6
8808	7	Sololá	701	Sololá	2	El tablón	12	Diciembre	2023-12-19T00:00:00	2024-11-08T14:00:00	5	Humedad	20
8809	7	Sololá	701	Sololá	2	El tablón	12	Diciembre	2023-12-19T00:00:00	2024-11-08T14:00:00	6	Velocidad del viento	12.9
8810	7	Sololá	701	Sololá	2	El tablón	12	Diciembre	2023-12-19T00:00:00	2024-11-08T14:00:00	7	Dirección del viento	12.87
8811	7	Sololá	701	Sololá	2	El tablón	12	Diciembre	2023-12-19T00:00:00	2024-11-08T14:00:00	1	Precipitación	0
8812	7	Sololá	701	Sololá	2	El tablón	12	Diciembre	2023-12-19T00:00:00	2024-11-08T14:00:00	8	Radiación solar	741
8813	7	Sololá	701	Sololá	2	El tablón	12	Diciembre	2023-12-19T00:00:00	2024-11-08T15:00:00	2	Temperatura media	16.8
8814	7	Sololá	701	Sololá	2	El tablón	12	Diciembre	2023-12-19T00:00:00	2024-11-08T15:00:00	4	Temperatura máxima	17.6
8815	7	Sololá	701	Sololá	2	El tablón	12	Diciembre	2023-12-19T00:00:00	2024-11-08T15:00:00	3	Temperatura mínima	16.8
8816	7	Sololá	701	Sololá	2	El tablón	12	Diciembre	2023-12-19T00:00:00	2024-11-08T15:00:00	5	Humedad	34
8817	7	Sololá	701	Sololá	2	El tablón	12	Diciembre	2023-12-19T00:00:00	2024-11-08T15:00:00	6	Velocidad del viento	11.3
8818	7	Sololá	701	Sololá	2	El tablón	12	Diciembre	2023-12-19T00:00:00	2024-11-08T15:00:00	7	Dirección del viento	11.27
8819	7	Sololá	701	Sololá	2	El tablón	12	Diciembre	2023-12-19T00:00:00	2024-11-08T15:00:00	1	Precipitación	0
8820	7	Sololá	701	Sololá	2	El tablón	12	Diciembre	2023-12-19T00:00:00	2024-11-08T15:00:00	8	Radiación solar	619
8821	7	Sololá	701	Sololá	2	El tablón	12	Diciembre	2023-12-19T00:00:00	2024-11-08T16:00:00	2	Temperatura media	15.3
8822	7	Sololá	701	Sololá	2	El tablón	12	Diciembre	2023-12-19T00:00:00	2024-11-08T16:00:00	4	Temperatura máxima	16.9
8823	7	Sololá	701	Sololá	2	El tablón	12	Diciembre	2023-12-19T00:00:00	2024-11-08T16:00:00	3	Temperatura mínima	15.3
8824	7	Sololá	701	Sololá	2	El tablón	12	Diciembre	2023-12-19T00:00:00	2024-11-08T16:00:00	5	Humedad	47
8825	7	Sololá	701	Sololá	2	El tablón	12	Diciembre	2023-12-19T00:00:00	2024-11-08T16:00:00	6	Velocidad del viento	9.7
8826	7	Sololá	701	Sololá	2	El tablón	12	Diciembre	2023-12-19T00:00:00	2024-11-08T16:00:00	7	Dirección del viento	9.66
8827	7	Sololá	701	Sololá	2	El tablón	12	Diciembre	2023-12-19T00:00:00	2024-11-08T16:00:00	1	Precipitación	0
8828	7	Sololá	701	Sololá	2	El tablón	12	Diciembre	2023-12-19T00:00:00	2024-11-08T16:00:00	8	Radiación solar	438
8829	7	Sololá	701	Sololá	2	El tablón	12	Diciembre	2023-12-19T00:00:00	2024-11-08T17:00:00	2	Temperatura media	12.7
8830	7	Sololá	701	Sololá	2	El tablón	12	Diciembre	2023-12-19T00:00:00	2024-11-08T17:00:00	4	Temperatura máxima	15.3
8831	7	Sololá	701	Sololá	2	El tablón	12	Diciembre	2023-12-19T00:00:00	2024-11-08T17:00:00	3	Temperatura mínima	12.7
8832	7	Sololá	701	Sololá	2	El tablón	12	Diciembre	2023-12-19T00:00:00	2024-11-08T17:00:00	5	Humedad	62
8833	7	Sololá	701	Sololá	2	El tablón	12	Diciembre	2023-12-19T00:00:00	2024-11-08T17:00:00	6	Velocidad del viento	9.7
8834	7	Sololá	701	Sololá	2	El tablón	12	Diciembre	2023-12-19T00:00:00	2024-11-08T17:00:00	7	Dirección del viento	9.66
8835	7	Sololá	701	Sololá	2	El tablón	12	Diciembre	2023-12-19T00:00:00	2024-11-08T17:00:00	1	Precipitación	0
8836	7	Sololá	701	Sololá	2	El tablón	12	Diciembre	2023-12-19T00:00:00	2024-11-08T17:00:00	8	Radiación solar	221
8837	7	Sololá	701	Sololá	2	El tablón	12	Diciembre	2023-12-19T00:00:00	2024-11-08T18:00:00	2	Temperatura media	9.3
8838	7	Sololá	701	Sololá	2	El tablón	12	Diciembre	2023-12-19T00:00:00	2024-11-08T18:00:00	4	Temperatura máxima	12.7
8839	7	Sololá	701	Sololá	2	El tablón	12	Diciembre	2023-12-19T00:00:00	2024-11-08T18:00:00	3	Temperatura mínima	9.3
8840	7	Sololá	701	Sololá	2	El tablón	12	Diciembre	2023-12-19T00:00:00	2024-11-08T18:00:00	5	Humedad	74
8841	7	Sololá	701	Sololá	2	El tablón	12	Diciembre	2023-12-19T00:00:00	2024-11-08T18:00:00	6	Velocidad del viento	11.3
8842	7	Sololá	701	Sololá	2	El tablón	12	Diciembre	2023-12-19T00:00:00	2024-11-08T18:00:00	7	Dirección del viento	11.27
8843	7	Sololá	701	Sololá	2	El tablón	12	Diciembre	2023-12-19T00:00:00	2024-11-08T18:00:00	1	Precipitación	0
8844	7	Sololá	701	Sololá	2	El tablón	12	Diciembre	2023-12-19T00:00:00	2024-11-08T18:00:00	8	Radiación solar	22
8845	7	Sololá	701	Sololá	2	El tablón	12	Diciembre	2023-12-19T00:00:00	2024-11-08T19:00:00	2	Temperatura media	8.1
8846	7	Sololá	701	Sololá	2	El tablón	12	Diciembre	2023-12-19T00:00:00	2024-11-08T19:00:00	4	Temperatura máxima	9.3
8847	7	Sololá	701	Sololá	2	El tablón	12	Diciembre	2023-12-19T00:00:00	2024-11-08T19:00:00	3	Temperatura mínima	8
8848	7	Sololá	701	Sololá	2	El tablón	12	Diciembre	2023-12-19T00:00:00	2024-11-08T19:00:00	5	Humedad	77
8849	7	Sololá	701	Sololá	2	El tablón	12	Diciembre	2023-12-19T00:00:00	2024-11-08T19:00:00	6	Velocidad del viento	9.7
8850	7	Sololá	701	Sololá	2	El tablón	12	Diciembre	2023-12-19T00:00:00	2024-11-08T19:00:00	7	Dirección del viento	9.66
8851	7	Sololá	701	Sololá	2	El tablón	12	Diciembre	2023-12-19T00:00:00	2024-11-08T19:00:00	1	Precipitación	0
8852	7	Sololá	701	Sololá	2	El tablón	12	Diciembre	2023-12-19T00:00:00	2024-11-08T19:00:00	8	Radiación solar	0
8853	7	Sololá	701	Sololá	2	El tablón	12	Diciembre	2023-12-19T00:00:00	2024-11-08T20:00:00	2	Temperatura media	7.3
8854	7	Sololá	701	Sololá	2	El tablón	12	Diciembre	2023-12-19T00:00:00	2024-11-08T20:00:00	4	Temperatura máxima	8.1
8855	7	Sololá	701	Sololá	2	El tablón	12	Diciembre	2023-12-19T00:00:00	2024-11-08T20:00:00	3	Temperatura mínima	7.3
8856	7	Sololá	701	Sololá	2	El tablón	12	Diciembre	2023-12-19T00:00:00	2024-11-08T20:00:00	5	Humedad	74
8857	7	Sololá	701	Sololá	2	El tablón	12	Diciembre	2023-12-19T00:00:00	2024-11-08T20:00:00	6	Velocidad del viento	9.7
8858	7	Sololá	701	Sololá	2	El tablón	12	Diciembre	2023-12-19T00:00:00	2024-11-08T20:00:00	7	Dirección del viento	9.66
8859	7	Sololá	701	Sololá	2	El tablón	12	Diciembre	2023-12-19T00:00:00	2024-11-08T20:00:00	1	Precipitación	0
8860	7	Sololá	701	Sololá	2	El tablón	12	Diciembre	2023-12-19T00:00:00	2024-11-08T20:00:00	8	Radiación solar	0
8861	7	Sololá	701	Sololá	2	El tablón	12	Diciembre	2023-12-19T00:00:00	2024-11-08T21:00:00	2	Temperatura media	6.7
8862	7	Sololá	701	Sololá	2	El tablón	12	Diciembre	2023-12-19T00:00:00	2024-11-08T21:00:00	4	Temperatura máxima	7.3
8863	7	Sololá	701	Sololá	2	El tablón	12	Diciembre	2023-12-19T00:00:00	2024-11-08T21:00:00	3	Temperatura mínima	6.4
8864	7	Sololá	701	Sololá	2	El tablón	12	Diciembre	2023-12-19T00:00:00	2024-11-08T21:00:00	5	Humedad	69
8865	7	Sololá	701	Sololá	2	El tablón	12	Diciembre	2023-12-19T00:00:00	2024-11-08T21:00:00	6	Velocidad del viento	9.7
8866	7	Sololá	701	Sololá	2	El tablón	12	Diciembre	2023-12-19T00:00:00	2024-11-08T21:00:00	7	Dirección del viento	9.66
8867	7	Sololá	701	Sololá	2	El tablón	12	Diciembre	2023-12-19T00:00:00	2024-11-08T21:00:00	1	Precipitación	0
8868	7	Sololá	701	Sololá	2	El tablón	12	Diciembre	2023-12-19T00:00:00	2024-11-08T21:00:00	8	Radiación solar	0
8869	7	Sololá	701	Sololá	2	El tablón	12	Diciembre	2023-12-19T00:00:00	2024-11-08T22:00:00	2	Temperatura media	7.8
8870	7	Sololá	701	Sololá	2	El tablón	12	Diciembre	2023-12-19T00:00:00	2024-11-08T22:00:00	4	Temperatura máxima	7.9
8871	7	Sololá	701	Sololá	2	El tablón	12	Diciembre	2023-12-19T00:00:00	2024-11-08T22:00:00	3	Temperatura mínima	6.6
8872	7	Sololá	701	Sololá	2	El tablón	12	Diciembre	2023-12-19T00:00:00	2024-11-08T22:00:00	5	Humedad	51
8873	7	Sololá	701	Sololá	2	El tablón	12	Diciembre	2023-12-19T00:00:00	2024-11-08T22:00:00	6	Velocidad del viento	9.7
8874	7	Sololá	701	Sololá	2	El tablón	12	Diciembre	2023-12-19T00:00:00	2024-11-08T22:00:00	7	Dirección del viento	9.66
8875	7	Sololá	701	Sololá	2	El tablón	12	Diciembre	2023-12-19T00:00:00	2024-11-08T22:00:00	1	Precipitación	0
8876	7	Sololá	701	Sololá	2	El tablón	12	Diciembre	2023-12-19T00:00:00	2024-11-08T22:00:00	8	Radiación solar	0
8877	7	Sololá	701	Sololá	2	El tablón	12	Diciembre	2023-12-19T00:00:00	2024-11-08T23:00:00	2	Temperatura media	7.2
8878	7	Sololá	701	Sololá	2	El tablón	12	Diciembre	2023-12-19T00:00:00	2024-11-08T23:00:00	4	Temperatura máxima	7.8
8879	7	Sololá	701	Sololá	2	El tablón	12	Diciembre	2023-12-19T00:00:00	2024-11-08T23:00:00	3	Temperatura mínima	6.9
8880	7	Sololá	701	Sololá	2	El tablón	12	Diciembre	2023-12-19T00:00:00	2024-11-08T23:00:00	5	Humedad	48
8881	7	Sololá	701	Sololá	2	El tablón	12	Diciembre	2023-12-19T00:00:00	2024-11-08T23:00:00	6	Velocidad del viento	11.3
8882	7	Sololá	701	Sololá	2	El tablón	12	Diciembre	2023-12-19T00:00:00	2024-11-08T23:00:00	7	Dirección del viento	11.27
8883	7	Sololá	701	Sololá	2	El tablón	12	Diciembre	2023-12-19T00:00:00	2024-11-08T23:00:00	1	Precipitación	0
8884	7	Sololá	701	Sololá	2	El tablón	12	Diciembre	2023-12-19T00:00:00	2024-11-08T23:00:00	8	Radiación solar	0
8885	7	Sololá	701	Sololá	2	El tablón	12	Diciembre	2023-12-20T00:00:00	2024-11-08T00:00:00	2	Temperatura media	5.8
8886	7	Sololá	701	Sololá	2	El tablón	12	Diciembre	2023-12-20T00:00:00	2024-11-08T00:00:00	4	Temperatura máxima	7.4
8887	7	Sololá	701	Sololá	2	El tablón	12	Diciembre	2023-12-20T00:00:00	2024-11-08T00:00:00	3	Temperatura mínima	5.8
8888	7	Sololá	701	Sololá	2	El tablón	12	Diciembre	2023-12-20T00:00:00	2024-11-08T00:00:00	5	Humedad	60
8889	7	Sololá	701	Sololá	2	El tablón	12	Diciembre	2023-12-20T00:00:00	2024-11-08T00:00:00	6	Velocidad del viento	6.4
8890	7	Sololá	701	Sololá	2	El tablón	12	Diciembre	2023-12-20T00:00:00	2024-11-08T00:00:00	7	Dirección del viento	6.44
8891	7	Sololá	701	Sololá	2	El tablón	12	Diciembre	2023-12-20T00:00:00	2024-11-08T00:00:00	1	Precipitación	0
8892	7	Sololá	701	Sololá	2	El tablón	12	Diciembre	2023-12-20T00:00:00	2024-11-08T00:00:00	8	Radiación solar	0
8893	7	Sololá	701	Sololá	2	El tablón	12	Diciembre	2023-12-20T00:00:00	2024-11-08T01:00:00	2	Temperatura media	5.1
8894	7	Sololá	701	Sololá	2	El tablón	12	Diciembre	2023-12-20T00:00:00	2024-11-08T01:00:00	4	Temperatura máxima	5.8
8895	7	Sololá	701	Sololá	2	El tablón	12	Diciembre	2023-12-20T00:00:00	2024-11-08T01:00:00	3	Temperatura mínima	5.1
8896	7	Sololá	701	Sololá	2	El tablón	12	Diciembre	2023-12-20T00:00:00	2024-11-08T01:00:00	5	Humedad	57
8897	7	Sololá	701	Sololá	2	El tablón	12	Diciembre	2023-12-20T00:00:00	2024-11-08T01:00:00	6	Velocidad del viento	4.8
8898	7	Sololá	701	Sololá	2	El tablón	12	Diciembre	2023-12-20T00:00:00	2024-11-08T01:00:00	7	Dirección del viento	4.83
8899	7	Sololá	701	Sololá	2	El tablón	12	Diciembre	2023-12-20T00:00:00	2024-11-08T01:00:00	1	Precipitación	0
8900	7	Sololá	701	Sololá	2	El tablón	12	Diciembre	2023-12-20T00:00:00	2024-11-08T01:00:00	8	Radiación solar	0
8901	7	Sololá	701	Sololá	2	El tablón	12	Diciembre	2023-12-20T00:00:00	2024-11-08T02:00:00	2	Temperatura media	5.7
8902	7	Sololá	701	Sololá	2	El tablón	12	Diciembre	2023-12-20T00:00:00	2024-11-08T02:00:00	4	Temperatura máxima	6.1
8903	7	Sololá	701	Sololá	2	El tablón	12	Diciembre	2023-12-20T00:00:00	2024-11-08T02:00:00	3	Temperatura mínima	5.1
8904	7	Sololá	701	Sololá	2	El tablón	12	Diciembre	2023-12-20T00:00:00	2024-11-08T02:00:00	5	Humedad	49
8905	7	Sololá	701	Sololá	2	El tablón	12	Diciembre	2023-12-20T00:00:00	2024-11-08T02:00:00	6	Velocidad del viento	6.4
8906	7	Sololá	701	Sololá	2	El tablón	12	Diciembre	2023-12-20T00:00:00	2024-11-08T02:00:00	7	Dirección del viento	6.44
8907	7	Sololá	701	Sololá	2	El tablón	12	Diciembre	2023-12-20T00:00:00	2024-11-08T02:00:00	1	Precipitación	0
8908	7	Sololá	701	Sololá	2	El tablón	12	Diciembre	2023-12-20T00:00:00	2024-11-08T02:00:00	8	Radiación solar	0
8909	7	Sololá	701	Sololá	2	El tablón	12	Diciembre	2023-12-20T00:00:00	2024-11-08T03:00:00	2	Temperatura media	5.1
8910	7	Sololá	701	Sololá	2	El tablón	12	Diciembre	2023-12-20T00:00:00	2024-11-08T03:00:00	4	Temperatura máxima	5.7
8911	7	Sololá	701	Sololá	2	El tablón	12	Diciembre	2023-12-20T00:00:00	2024-11-08T03:00:00	3	Temperatura mínima	4.8
8912	7	Sololá	701	Sololá	2	El tablón	12	Diciembre	2023-12-20T00:00:00	2024-11-08T03:00:00	5	Humedad	58
8913	7	Sololá	701	Sololá	2	El tablón	12	Diciembre	2023-12-20T00:00:00	2024-11-08T03:00:00	6	Velocidad del viento	6.4
8914	7	Sololá	701	Sololá	2	El tablón	12	Diciembre	2023-12-20T00:00:00	2024-11-08T03:00:00	7	Dirección del viento	6.44
8915	7	Sololá	701	Sololá	2	El tablón	12	Diciembre	2023-12-20T00:00:00	2024-11-08T03:00:00	1	Precipitación	0
8916	7	Sololá	701	Sololá	2	El tablón	12	Diciembre	2023-12-20T00:00:00	2024-11-08T03:00:00	8	Radiación solar	0
8917	7	Sololá	701	Sololá	2	El tablón	12	Diciembre	2023-12-20T00:00:00	2024-11-08T04:00:00	2	Temperatura media	6.6
8918	7	Sololá	701	Sololá	2	El tablón	12	Diciembre	2023-12-20T00:00:00	2024-11-08T04:00:00	4	Temperatura máxima	6.8
8919	7	Sololá	701	Sololá	2	El tablón	12	Diciembre	2023-12-20T00:00:00	2024-11-08T04:00:00	3	Temperatura mínima	5.1
8920	7	Sololá	701	Sololá	2	El tablón	12	Diciembre	2023-12-20T00:00:00	2024-11-08T04:00:00	5	Humedad	40
8921	7	Sololá	701	Sololá	2	El tablón	12	Diciembre	2023-12-20T00:00:00	2024-11-08T04:00:00	6	Velocidad del viento	6.4
8922	7	Sololá	701	Sololá	2	El tablón	12	Diciembre	2023-12-20T00:00:00	2024-11-08T04:00:00	7	Dirección del viento	6.44
8923	7	Sololá	701	Sololá	2	El tablón	12	Diciembre	2023-12-20T00:00:00	2024-11-08T04:00:00	1	Precipitación	0
8924	7	Sololá	701	Sololá	2	El tablón	12	Diciembre	2023-12-20T00:00:00	2024-11-08T04:00:00	8	Radiación solar	0
8925	7	Sololá	701	Sololá	2	El tablón	12	Diciembre	2023-12-20T00:00:00	2024-11-08T05:00:00	2	Temperatura media	7.6
8926	7	Sololá	701	Sololá	2	El tablón	12	Diciembre	2023-12-20T00:00:00	2024-11-08T05:00:00	4	Temperatura máxima	7.8
8927	7	Sololá	701	Sololá	2	El tablón	12	Diciembre	2023-12-20T00:00:00	2024-11-08T05:00:00	3	Temperatura mínima	6.6
8928	7	Sololá	701	Sololá	2	El tablón	12	Diciembre	2023-12-20T00:00:00	2024-11-08T05:00:00	5	Humedad	38
8929	7	Sololá	701	Sololá	2	El tablón	12	Diciembre	2023-12-20T00:00:00	2024-11-08T05:00:00	6	Velocidad del viento	4.8
8930	7	Sololá	701	Sololá	2	El tablón	12	Diciembre	2023-12-20T00:00:00	2024-11-08T05:00:00	7	Dirección del viento	4.83
8931	7	Sololá	701	Sololá	2	El tablón	12	Diciembre	2023-12-20T00:00:00	2024-11-08T05:00:00	1	Precipitación	0
8932	7	Sololá	701	Sololá	2	El tablón	12	Diciembre	2023-12-20T00:00:00	2024-11-08T05:00:00	8	Radiación solar	0
8933	7	Sololá	701	Sololá	2	El tablón	12	Diciembre	2023-12-20T00:00:00	2024-11-08T06:00:00	2	Temperatura media	7.5
8934	7	Sololá	701	Sololá	2	El tablón	12	Diciembre	2023-12-20T00:00:00	2024-11-08T06:00:00	4	Temperatura máxima	8.2
8935	7	Sololá	701	Sololá	2	El tablón	12	Diciembre	2023-12-20T00:00:00	2024-11-08T06:00:00	3	Temperatura mínima	7.4
8936	7	Sololá	701	Sololá	2	El tablón	12	Diciembre	2023-12-20T00:00:00	2024-11-08T06:00:00	5	Humedad	38
8937	7	Sololá	701	Sololá	2	El tablón	12	Diciembre	2023-12-20T00:00:00	2024-11-08T06:00:00	6	Velocidad del viento	4.8
8938	7	Sololá	701	Sololá	2	El tablón	12	Diciembre	2023-12-20T00:00:00	2024-11-08T06:00:00	7	Dirección del viento	4.83
8939	7	Sololá	701	Sololá	2	El tablón	12	Diciembre	2023-12-20T00:00:00	2024-11-08T06:00:00	1	Precipitación	0
8940	7	Sololá	701	Sololá	2	El tablón	12	Diciembre	2023-12-20T00:00:00	2024-11-08T06:00:00	8	Radiación solar	0
8941	7	Sololá	701	Sololá	2	El tablón	12	Diciembre	2023-12-20T00:00:00	2024-11-08T07:00:00	2	Temperatura media	8.1
8942	7	Sololá	701	Sololá	2	El tablón	12	Diciembre	2023-12-20T00:00:00	2024-11-08T07:00:00	4	Temperatura máxima	8.1
8943	7	Sololá	701	Sololá	2	El tablón	12	Diciembre	2023-12-20T00:00:00	2024-11-08T07:00:00	3	Temperatura mínima	7.1
8944	7	Sololá	701	Sololá	2	El tablón	12	Diciembre	2023-12-20T00:00:00	2024-11-08T07:00:00	5	Humedad	35
8945	7	Sololá	701	Sololá	2	El tablón	12	Diciembre	2023-12-20T00:00:00	2024-11-08T07:00:00	6	Velocidad del viento	1.6
8946	7	Sololá	701	Sololá	2	El tablón	12	Diciembre	2023-12-20T00:00:00	2024-11-08T07:00:00	7	Dirección del viento	1.61
8947	7	Sololá	701	Sololá	2	El tablón	12	Diciembre	2023-12-20T00:00:00	2024-11-08T07:00:00	1	Precipitación	0
8948	7	Sololá	701	Sololá	2	El tablón	12	Diciembre	2023-12-20T00:00:00	2024-11-08T07:00:00	8	Radiación solar	12
8949	7	Sololá	701	Sololá	2	El tablón	12	Diciembre	2023-12-20T00:00:00	2024-11-08T08:00:00	2	Temperatura media	12.3
8950	7	Sololá	701	Sololá	2	El tablón	12	Diciembre	2023-12-20T00:00:00	2024-11-08T08:00:00	4	Temperatura máxima	12.3
8951	7	Sololá	701	Sololá	2	El tablón	12	Diciembre	2023-12-20T00:00:00	2024-11-08T08:00:00	3	Temperatura mínima	8.1
8952	7	Sololá	701	Sololá	2	El tablón	12	Diciembre	2023-12-20T00:00:00	2024-11-08T08:00:00	5	Humedad	32
8953	7	Sololá	701	Sololá	2	El tablón	12	Diciembre	2023-12-20T00:00:00	2024-11-08T08:00:00	6	Velocidad del viento	1.6
8954	7	Sololá	701	Sololá	2	El tablón	12	Diciembre	2023-12-20T00:00:00	2024-11-08T08:00:00	7	Dirección del viento	1.61
8955	7	Sololá	701	Sololá	2	El tablón	12	Diciembre	2023-12-20T00:00:00	2024-11-08T08:00:00	1	Precipitación	0
8956	7	Sololá	701	Sololá	2	El tablón	12	Diciembre	2023-12-20T00:00:00	2024-11-08T08:00:00	8	Radiación solar	153
8957	7	Sololá	701	Sololá	2	El tablón	12	Diciembre	2023-12-20T00:00:00	2024-11-08T09:00:00	2	Temperatura media	17.6
8958	7	Sololá	701	Sololá	2	El tablón	12	Diciembre	2023-12-20T00:00:00	2024-11-08T09:00:00	4	Temperatura máxima	17.6
8959	7	Sololá	701	Sololá	2	El tablón	12	Diciembre	2023-12-20T00:00:00	2024-11-08T09:00:00	3	Temperatura mínima	12.3
8960	7	Sololá	701	Sololá	2	El tablón	12	Diciembre	2023-12-20T00:00:00	2024-11-08T09:00:00	5	Humedad	26
8961	7	Sololá	701	Sololá	2	El tablón	12	Diciembre	2023-12-20T00:00:00	2024-11-08T09:00:00	6	Velocidad del viento	1.6
8962	7	Sololá	701	Sololá	2	El tablón	12	Diciembre	2023-12-20T00:00:00	2024-11-08T09:00:00	7	Dirección del viento	1.61
8963	7	Sololá	701	Sololá	2	El tablón	12	Diciembre	2023-12-20T00:00:00	2024-11-08T09:00:00	1	Precipitación	0
8964	7	Sololá	701	Sololá	2	El tablón	12	Diciembre	2023-12-20T00:00:00	2024-11-08T09:00:00	8	Radiación solar	382
8965	7	Sololá	701	Sololá	2	El tablón	12	Diciembre	2023-12-20T00:00:00	2024-11-08T10:00:00	2	Temperatura media	18.8
8966	7	Sololá	701	Sololá	2	El tablón	12	Diciembre	2023-12-20T00:00:00	2024-11-08T10:00:00	4	Temperatura máxima	19.1
8967	7	Sololá	701	Sololá	2	El tablón	12	Diciembre	2023-12-20T00:00:00	2024-11-08T10:00:00	3	Temperatura mínima	17.6
8968	7	Sololá	701	Sololá	2	El tablón	12	Diciembre	2023-12-20T00:00:00	2024-11-08T10:00:00	5	Humedad	19
8969	7	Sololá	701	Sololá	2	El tablón	12	Diciembre	2023-12-20T00:00:00	2024-11-08T10:00:00	6	Velocidad del viento	3.2
8970	7	Sololá	701	Sololá	2	El tablón	12	Diciembre	2023-12-20T00:00:00	2024-11-08T10:00:00	7	Dirección del viento	3.22
8971	7	Sololá	701	Sololá	2	El tablón	12	Diciembre	2023-12-20T00:00:00	2024-11-08T10:00:00	1	Precipitación	0
8972	7	Sololá	701	Sololá	2	El tablón	12	Diciembre	2023-12-20T00:00:00	2024-11-08T10:00:00	8	Radiación solar	572
8973	7	Sololá	701	Sololá	2	El tablón	12	Diciembre	2023-12-20T00:00:00	2024-11-08T11:00:00	2	Temperatura media	19.9
8974	7	Sololá	701	Sololá	2	El tablón	12	Diciembre	2023-12-20T00:00:00	2024-11-08T11:00:00	4	Temperatura máxima	19.9
8975	7	Sololá	701	Sololá	2	El tablón	12	Diciembre	2023-12-20T00:00:00	2024-11-08T11:00:00	3	Temperatura mínima	18.6
8976	7	Sololá	701	Sololá	2	El tablón	12	Diciembre	2023-12-20T00:00:00	2024-11-08T11:00:00	5	Humedad	13
8977	7	Sololá	701	Sololá	2	El tablón	12	Diciembre	2023-12-20T00:00:00	2024-11-08T11:00:00	6	Velocidad del viento	8
8978	7	Sololá	701	Sololá	2	El tablón	12	Diciembre	2023-12-20T00:00:00	2024-11-08T11:00:00	7	Dirección del viento	8.05
8979	7	Sololá	701	Sololá	2	El tablón	12	Diciembre	2023-12-20T00:00:00	2024-11-08T11:00:00	1	Precipitación	0
8980	7	Sololá	701	Sololá	2	El tablón	12	Diciembre	2023-12-20T00:00:00	2024-11-08T11:00:00	8	Radiación solar	711
8981	7	Sololá	701	Sololá	2	El tablón	12	Diciembre	2023-12-20T00:00:00	2024-11-08T12:00:00	2	Temperatura media	19.3
8982	7	Sololá	701	Sololá	2	El tablón	12	Diciembre	2023-12-20T00:00:00	2024-11-08T12:00:00	4	Temperatura máxima	20.1
8983	7	Sololá	701	Sololá	2	El tablón	12	Diciembre	2023-12-20T00:00:00	2024-11-08T12:00:00	3	Temperatura mínima	18.3
8984	7	Sololá	701	Sololá	2	El tablón	12	Diciembre	2023-12-20T00:00:00	2024-11-08T12:00:00	5	Humedad	21
8985	7	Sololá	701	Sololá	2	El tablón	12	Diciembre	2023-12-20T00:00:00	2024-11-08T12:00:00	6	Velocidad del viento	6.4
8986	7	Sololá	701	Sololá	2	El tablón	12	Diciembre	2023-12-20T00:00:00	2024-11-08T12:00:00	7	Dirección del viento	6.44
8987	7	Sololá	701	Sololá	2	El tablón	12	Diciembre	2023-12-20T00:00:00	2024-11-08T12:00:00	1	Precipitación	0
8988	7	Sololá	701	Sololá	2	El tablón	12	Diciembre	2023-12-20T00:00:00	2024-11-08T12:00:00	8	Radiación solar	691
8989	7	Sololá	701	Sololá	2	El tablón	12	Diciembre	2023-12-20T00:00:00	2024-11-08T13:00:00	2	Temperatura media	19.5
8990	7	Sololá	701	Sololá	2	El tablón	12	Diciembre	2023-12-20T00:00:00	2024-11-08T13:00:00	4	Temperatura máxima	19.6
8991	7	Sololá	701	Sololá	2	El tablón	12	Diciembre	2023-12-20T00:00:00	2024-11-08T13:00:00	3	Temperatura mínima	18.4
8992	7	Sololá	701	Sololá	2	El tablón	12	Diciembre	2023-12-20T00:00:00	2024-11-08T13:00:00	5	Humedad	21
8993	7	Sololá	701	Sololá	2	El tablón	12	Diciembre	2023-12-20T00:00:00	2024-11-08T13:00:00	6	Velocidad del viento	11.3
8994	7	Sololá	701	Sololá	2	El tablón	12	Diciembre	2023-12-20T00:00:00	2024-11-08T13:00:00	7	Dirección del viento	11.27
8995	7	Sololá	701	Sololá	2	El tablón	12	Diciembre	2023-12-20T00:00:00	2024-11-08T13:00:00	1	Precipitación	0
8996	7	Sololá	701	Sololá	2	El tablón	12	Diciembre	2023-12-20T00:00:00	2024-11-08T13:00:00	8	Radiación solar	748
8997	7	Sololá	701	Sololá	2	El tablón	12	Diciembre	2023-12-20T00:00:00	2024-11-08T14:00:00	2	Temperatura media	19.1
8998	7	Sololá	701	Sololá	2	El tablón	12	Diciembre	2023-12-20T00:00:00	2024-11-08T14:00:00	4	Temperatura máxima	19.6
8999	7	Sololá	701	Sololá	2	El tablón	12	Diciembre	2023-12-20T00:00:00	2024-11-08T14:00:00	3	Temperatura mínima	18.9
9000	7	Sololá	701	Sololá	2	El tablón	12	Diciembre	2023-12-20T00:00:00	2024-11-08T14:00:00	5	Humedad	19
9001	7	Sololá	701	Sololá	2	El tablón	12	Diciembre	2023-12-20T00:00:00	2024-11-08T14:00:00	6	Velocidad del viento	9.7
9002	7	Sololá	701	Sololá	2	El tablón	12	Diciembre	2023-12-20T00:00:00	2024-11-08T14:00:00	7	Dirección del viento	9.66
9003	7	Sololá	701	Sololá	2	El tablón	12	Diciembre	2023-12-20T00:00:00	2024-11-08T14:00:00	1	Precipitación	0
9004	7	Sololá	701	Sololá	2	El tablón	12	Diciembre	2023-12-20T00:00:00	2024-11-08T14:00:00	8	Radiación solar	736
9005	7	Sololá	701	Sololá	2	El tablón	12	Diciembre	2023-12-20T00:00:00	2024-11-08T15:00:00	2	Temperatura media	18.9
9006	7	Sololá	701	Sololá	2	El tablón	12	Diciembre	2023-12-20T00:00:00	2024-11-08T15:00:00	4	Temperatura máxima	19.4
9007	7	Sololá	701	Sololá	2	El tablón	12	Diciembre	2023-12-20T00:00:00	2024-11-08T15:00:00	3	Temperatura mínima	18.9
9008	7	Sololá	701	Sololá	2	El tablón	12	Diciembre	2023-12-20T00:00:00	2024-11-08T15:00:00	5	Humedad	19
9009	7	Sololá	701	Sololá	2	El tablón	12	Diciembre	2023-12-20T00:00:00	2024-11-08T15:00:00	6	Velocidad del viento	6.4
9010	7	Sololá	701	Sololá	2	El tablón	12	Diciembre	2023-12-20T00:00:00	2024-11-08T15:00:00	7	Dirección del viento	6.44
9011	7	Sololá	701	Sololá	2	El tablón	12	Diciembre	2023-12-20T00:00:00	2024-11-08T15:00:00	1	Precipitación	0
9012	7	Sololá	701	Sololá	2	El tablón	12	Diciembre	2023-12-20T00:00:00	2024-11-08T15:00:00	8	Radiación solar	614
9013	7	Sololá	701	Sololá	2	El tablón	12	Diciembre	2023-12-20T00:00:00	2024-11-08T16:00:00	2	Temperatura media	17.9
9014	7	Sololá	701	Sololá	2	El tablón	12	Diciembre	2023-12-20T00:00:00	2024-11-08T16:00:00	4	Temperatura máxima	18.9
9015	7	Sololá	701	Sololá	2	El tablón	12	Diciembre	2023-12-20T00:00:00	2024-11-08T16:00:00	3	Temperatura mínima	17.9
9016	7	Sololá	701	Sololá	2	El tablón	12	Diciembre	2023-12-20T00:00:00	2024-11-08T16:00:00	5	Humedad	26
9017	7	Sololá	701	Sololá	2	El tablón	12	Diciembre	2023-12-20T00:00:00	2024-11-08T16:00:00	6	Velocidad del viento	8
9018	7	Sololá	701	Sololá	2	El tablón	12	Diciembre	2023-12-20T00:00:00	2024-11-08T16:00:00	7	Dirección del viento	8.05
9019	7	Sololá	701	Sololá	2	El tablón	12	Diciembre	2023-12-20T00:00:00	2024-11-08T16:00:00	1	Precipitación	0
9020	7	Sololá	701	Sololá	2	El tablón	12	Diciembre	2023-12-20T00:00:00	2024-11-08T16:00:00	8	Radiación solar	439
9021	7	Sololá	701	Sololá	2	El tablón	12	Diciembre	2023-12-20T00:00:00	2024-11-08T17:00:00	2	Temperatura media	15.6
9022	7	Sololá	701	Sololá	2	El tablón	12	Diciembre	2023-12-20T00:00:00	2024-11-08T17:00:00	4	Temperatura máxima	18
9023	7	Sololá	701	Sololá	2	El tablón	12	Diciembre	2023-12-20T00:00:00	2024-11-08T17:00:00	3	Temperatura mínima	15.6
9024	7	Sololá	701	Sololá	2	El tablón	12	Diciembre	2023-12-20T00:00:00	2024-11-08T17:00:00	5	Humedad	41
9025	7	Sololá	701	Sololá	2	El tablón	12	Diciembre	2023-12-20T00:00:00	2024-11-08T17:00:00	6	Velocidad del viento	6.4
9026	7	Sololá	701	Sololá	2	El tablón	12	Diciembre	2023-12-20T00:00:00	2024-11-08T17:00:00	7	Dirección del viento	6.44
9027	7	Sololá	701	Sololá	2	El tablón	12	Diciembre	2023-12-20T00:00:00	2024-11-08T17:00:00	1	Precipitación	0
9028	7	Sololá	701	Sololá	2	El tablón	12	Diciembre	2023-12-20T00:00:00	2024-11-08T17:00:00	8	Radiación solar	219
9029	7	Sololá	701	Sololá	2	El tablón	12	Diciembre	2023-12-20T00:00:00	2024-11-08T18:00:00	2	Temperatura media	11.9
9030	7	Sololá	701	Sololá	2	El tablón	12	Diciembre	2023-12-20T00:00:00	2024-11-08T18:00:00	4	Temperatura máxima	15.6
9031	7	Sololá	701	Sololá	2	El tablón	12	Diciembre	2023-12-20T00:00:00	2024-11-08T18:00:00	3	Temperatura mínima	11.9
9032	7	Sololá	701	Sololá	2	El tablón	12	Diciembre	2023-12-20T00:00:00	2024-11-08T18:00:00	5	Humedad	60
9033	7	Sololá	701	Sololá	2	El tablón	12	Diciembre	2023-12-20T00:00:00	2024-11-08T18:00:00	6	Velocidad del viento	4.8
9034	7	Sololá	701	Sololá	2	El tablón	12	Diciembre	2023-12-20T00:00:00	2024-11-08T18:00:00	7	Dirección del viento	4.83
9035	7	Sololá	701	Sololá	2	El tablón	12	Diciembre	2023-12-20T00:00:00	2024-11-08T18:00:00	1	Precipitación	0
9036	7	Sololá	701	Sololá	2	El tablón	12	Diciembre	2023-12-20T00:00:00	2024-11-08T18:00:00	8	Radiación solar	23
9037	7	Sololá	701	Sololá	2	El tablón	12	Diciembre	2023-12-20T00:00:00	2024-11-08T19:00:00	2	Temperatura media	9.6
9038	7	Sololá	701	Sololá	2	El tablón	12	Diciembre	2023-12-20T00:00:00	2024-11-08T19:00:00	4	Temperatura máxima	11.9
9039	7	Sololá	701	Sololá	2	El tablón	12	Diciembre	2023-12-20T00:00:00	2024-11-08T19:00:00	3	Temperatura mínima	9.6
9040	7	Sololá	701	Sololá	2	El tablón	12	Diciembre	2023-12-20T00:00:00	2024-11-08T19:00:00	5	Humedad	77
9041	7	Sololá	701	Sololá	2	El tablón	12	Diciembre	2023-12-20T00:00:00	2024-11-08T19:00:00	6	Velocidad del viento	9.7
9042	7	Sololá	701	Sololá	2	El tablón	12	Diciembre	2023-12-20T00:00:00	2024-11-08T19:00:00	7	Dirección del viento	9.66
9043	7	Sololá	701	Sololá	2	El tablón	12	Diciembre	2023-12-20T00:00:00	2024-11-08T19:00:00	1	Precipitación	0
9044	7	Sololá	701	Sololá	2	El tablón	12	Diciembre	2023-12-20T00:00:00	2024-11-08T19:00:00	8	Radiación solar	0
9045	7	Sololá	701	Sololá	2	El tablón	12	Diciembre	2023-12-20T00:00:00	2024-11-08T20:00:00	2	Temperatura media	8.6
9046	7	Sololá	701	Sololá	2	El tablón	12	Diciembre	2023-12-20T00:00:00	2024-11-08T20:00:00	4	Temperatura máxima	9.6
9047	7	Sololá	701	Sololá	2	El tablón	12	Diciembre	2023-12-20T00:00:00	2024-11-08T20:00:00	3	Temperatura mínima	8.6
9048	7	Sololá	701	Sololá	2	El tablón	12	Diciembre	2023-12-20T00:00:00	2024-11-08T20:00:00	5	Humedad	81
9049	7	Sololá	701	Sololá	2	El tablón	12	Diciembre	2023-12-20T00:00:00	2024-11-08T20:00:00	6	Velocidad del viento	9.7
9050	7	Sololá	701	Sololá	2	El tablón	12	Diciembre	2023-12-20T00:00:00	2024-11-08T20:00:00	7	Dirección del viento	9.66
9051	7	Sololá	701	Sololá	2	El tablón	12	Diciembre	2023-12-20T00:00:00	2024-11-08T20:00:00	1	Precipitación	0
9052	7	Sololá	701	Sololá	2	El tablón	12	Diciembre	2023-12-20T00:00:00	2024-11-08T20:00:00	8	Radiación solar	0
9053	7	Sololá	701	Sololá	2	El tablón	12	Diciembre	2023-12-20T00:00:00	2024-11-08T21:00:00	2	Temperatura media	7.8
9054	7	Sololá	701	Sololá	2	El tablón	12	Diciembre	2023-12-20T00:00:00	2024-11-08T21:00:00	4	Temperatura máxima	8.6
9055	7	Sololá	701	Sololá	2	El tablón	12	Diciembre	2023-12-20T00:00:00	2024-11-08T21:00:00	3	Temperatura mínima	7.7
9056	7	Sololá	701	Sololá	2	El tablón	12	Diciembre	2023-12-20T00:00:00	2024-11-08T21:00:00	5	Humedad	82
9057	7	Sololá	701	Sololá	2	El tablón	12	Diciembre	2023-12-20T00:00:00	2024-11-08T21:00:00	6	Velocidad del viento	8
9058	7	Sololá	701	Sololá	2	El tablón	12	Diciembre	2023-12-20T00:00:00	2024-11-08T21:00:00	7	Dirección del viento	8.05
9059	7	Sololá	701	Sololá	2	El tablón	12	Diciembre	2023-12-20T00:00:00	2024-11-08T21:00:00	1	Precipitación	0
9060	7	Sololá	701	Sololá	2	El tablón	12	Diciembre	2023-12-20T00:00:00	2024-11-08T21:00:00	8	Radiación solar	0
9061	7	Sololá	701	Sololá	2	El tablón	12	Diciembre	2023-12-20T00:00:00	2024-11-08T22:00:00	2	Temperatura media	6.9
9062	7	Sololá	701	Sololá	2	El tablón	12	Diciembre	2023-12-20T00:00:00	2024-11-08T22:00:00	4	Temperatura máxima	7.8
9063	7	Sololá	701	Sololá	2	El tablón	12	Diciembre	2023-12-20T00:00:00	2024-11-08T22:00:00	3	Temperatura mínima	6.9
9064	7	Sololá	701	Sololá	2	El tablón	12	Diciembre	2023-12-20T00:00:00	2024-11-08T22:00:00	5	Humedad	87
9065	7	Sololá	701	Sololá	2	El tablón	12	Diciembre	2023-12-20T00:00:00	2024-11-08T22:00:00	6	Velocidad del viento	16.1
9066	7	Sololá	701	Sololá	2	El tablón	12	Diciembre	2023-12-20T00:00:00	2024-11-08T22:00:00	7	Dirección del viento	16.09
9067	7	Sololá	701	Sololá	2	El tablón	12	Diciembre	2023-12-20T00:00:00	2024-11-08T22:00:00	1	Precipitación	0
9068	7	Sololá	701	Sololá	2	El tablón	12	Diciembre	2023-12-20T00:00:00	2024-11-08T22:00:00	8	Radiación solar	0
9069	7	Sololá	701	Sololá	2	El tablón	12	Diciembre	2023-12-20T00:00:00	2024-11-08T23:00:00	2	Temperatura media	6.3
9070	7	Sololá	701	Sololá	2	El tablón	12	Diciembre	2023-12-20T00:00:00	2024-11-08T23:00:00	4	Temperatura máxima	6.9
9071	7	Sololá	701	Sololá	2	El tablón	12	Diciembre	2023-12-20T00:00:00	2024-11-08T23:00:00	3	Temperatura mínima	6.3
9072	7	Sololá	701	Sololá	2	El tablón	12	Diciembre	2023-12-20T00:00:00	2024-11-08T23:00:00	5	Humedad	86
9073	7	Sololá	701	Sololá	2	El tablón	12	Diciembre	2023-12-20T00:00:00	2024-11-08T23:00:00	6	Velocidad del viento	17.7
9074	7	Sololá	701	Sololá	2	El tablón	12	Diciembre	2023-12-20T00:00:00	2024-11-08T23:00:00	7	Dirección del viento	17.7
9075	7	Sololá	701	Sololá	2	El tablón	12	Diciembre	2023-12-20T00:00:00	2024-11-08T23:00:00	1	Precipitación	0
9076	7	Sololá	701	Sololá	2	El tablón	12	Diciembre	2023-12-20T00:00:00	2024-11-08T23:00:00	8	Radiación solar	0
9077	7	Sololá	701	Sololá	2	El tablón	12	Diciembre	2023-12-21T00:00:00	2024-11-08T00:00:00	2	Temperatura media	5.9
9078	7	Sololá	701	Sololá	2	El tablón	12	Diciembre	2023-12-21T00:00:00	2024-11-08T00:00:00	4	Temperatura máxima	6.3
9079	7	Sololá	701	Sololá	2	El tablón	12	Diciembre	2023-12-21T00:00:00	2024-11-08T00:00:00	3	Temperatura mínima	5.9
9080	7	Sololá	701	Sololá	2	El tablón	12	Diciembre	2023-12-21T00:00:00	2024-11-08T00:00:00	5	Humedad	85
9081	7	Sololá	701	Sololá	2	El tablón	12	Diciembre	2023-12-21T00:00:00	2024-11-08T00:00:00	6	Velocidad del viento	17.7
9082	7	Sololá	701	Sololá	2	El tablón	12	Diciembre	2023-12-21T00:00:00	2024-11-08T00:00:00	7	Dirección del viento	17.7
9083	7	Sololá	701	Sololá	2	El tablón	12	Diciembre	2023-12-21T00:00:00	2024-11-08T00:00:00	1	Precipitación	0
9084	7	Sololá	701	Sololá	2	El tablón	12	Diciembre	2023-12-21T00:00:00	2024-11-08T00:00:00	8	Radiación solar	0
9085	7	Sololá	701	Sololá	2	El tablón	12	Diciembre	2023-12-21T00:00:00	2024-11-08T01:00:00	2	Temperatura media	5.7
9086	7	Sololá	701	Sololá	2	El tablón	12	Diciembre	2023-12-21T00:00:00	2024-11-08T01:00:00	4	Temperatura máxima	5.9
9087	7	Sololá	701	Sololá	2	El tablón	12	Diciembre	2023-12-21T00:00:00	2024-11-08T01:00:00	3	Temperatura mínima	5.7
9088	7	Sololá	701	Sololá	2	El tablón	12	Diciembre	2023-12-21T00:00:00	2024-11-08T01:00:00	5	Humedad	85
9089	7	Sololá	701	Sololá	2	El tablón	12	Diciembre	2023-12-21T00:00:00	2024-11-08T01:00:00	6	Velocidad del viento	17.7
9090	7	Sololá	701	Sololá	2	El tablón	12	Diciembre	2023-12-21T00:00:00	2024-11-08T01:00:00	7	Dirección del viento	17.7
9091	7	Sololá	701	Sololá	2	El tablón	12	Diciembre	2023-12-21T00:00:00	2024-11-08T01:00:00	1	Precipitación	0
9092	7	Sololá	701	Sololá	2	El tablón	12	Diciembre	2023-12-21T00:00:00	2024-11-08T01:00:00	8	Radiación solar	0
9093	7	Sololá	701	Sololá	2	El tablón	12	Diciembre	2023-12-21T00:00:00	2024-11-08T02:00:00	2	Temperatura media	6.1
9094	7	Sololá	701	Sololá	2	El tablón	12	Diciembre	2023-12-21T00:00:00	2024-11-08T02:00:00	4	Temperatura máxima	6.2
9095	7	Sololá	701	Sololá	2	El tablón	12	Diciembre	2023-12-21T00:00:00	2024-11-08T02:00:00	3	Temperatura mínima	5.6
9096	7	Sololá	701	Sololá	2	El tablón	12	Diciembre	2023-12-21T00:00:00	2024-11-08T02:00:00	5	Humedad	76
9097	7	Sololá	701	Sololá	2	El tablón	12	Diciembre	2023-12-21T00:00:00	2024-11-08T02:00:00	6	Velocidad del viento	14.5
9098	7	Sololá	701	Sololá	2	El tablón	12	Diciembre	2023-12-21T00:00:00	2024-11-08T02:00:00	7	Dirección del viento	14.48
9099	7	Sololá	701	Sololá	2	El tablón	12	Diciembre	2023-12-21T00:00:00	2024-11-08T02:00:00	1	Precipitación	0
9100	7	Sololá	701	Sololá	2	El tablón	12	Diciembre	2023-12-21T00:00:00	2024-11-08T02:00:00	8	Radiación solar	0
9101	7	Sololá	701	Sololá	2	El tablón	12	Diciembre	2023-12-21T00:00:00	2024-11-08T03:00:00	2	Temperatura media	6.8
9102	7	Sololá	701	Sololá	2	El tablón	12	Diciembre	2023-12-21T00:00:00	2024-11-08T03:00:00	4	Temperatura máxima	6.8
9103	7	Sololá	701	Sololá	2	El tablón	12	Diciembre	2023-12-21T00:00:00	2024-11-08T03:00:00	3	Temperatura mínima	5.9
9104	7	Sololá	701	Sololá	2	El tablón	12	Diciembre	2023-12-21T00:00:00	2024-11-08T03:00:00	5	Humedad	71
9105	7	Sololá	701	Sololá	2	El tablón	12	Diciembre	2023-12-21T00:00:00	2024-11-08T03:00:00	6	Velocidad del viento	11.3
9106	7	Sololá	701	Sololá	2	El tablón	12	Diciembre	2023-12-21T00:00:00	2024-11-08T03:00:00	7	Dirección del viento	11.27
9107	7	Sololá	701	Sololá	2	El tablón	12	Diciembre	2023-12-21T00:00:00	2024-11-08T03:00:00	1	Precipitación	0
9108	7	Sololá	701	Sololá	2	El tablón	12	Diciembre	2023-12-21T00:00:00	2024-11-08T03:00:00	8	Radiación solar	0
9109	7	Sololá	701	Sololá	2	El tablón	12	Diciembre	2023-12-21T00:00:00	2024-11-08T04:00:00	2	Temperatura media	6.7
9110	7	Sololá	701	Sololá	2	El tablón	12	Diciembre	2023-12-21T00:00:00	2024-11-08T04:00:00	4	Temperatura máxima	6.9
9111	7	Sololá	701	Sololá	2	El tablón	12	Diciembre	2023-12-21T00:00:00	2024-11-08T04:00:00	3	Temperatura mínima	6.3
9112	7	Sololá	701	Sololá	2	El tablón	12	Diciembre	2023-12-21T00:00:00	2024-11-08T04:00:00	5	Humedad	78
9113	7	Sololá	701	Sololá	2	El tablón	12	Diciembre	2023-12-21T00:00:00	2024-11-08T04:00:00	6	Velocidad del viento	14.5
9114	7	Sololá	701	Sololá	2	El tablón	12	Diciembre	2023-12-21T00:00:00	2024-11-08T04:00:00	7	Dirección del viento	14.48
9115	7	Sololá	701	Sololá	2	El tablón	12	Diciembre	2023-12-21T00:00:00	2024-11-08T04:00:00	1	Precipitación	0
9116	7	Sololá	701	Sololá	2	El tablón	12	Diciembre	2023-12-21T00:00:00	2024-11-08T04:00:00	8	Radiación solar	0
9117	7	Sololá	701	Sololá	2	El tablón	12	Diciembre	2023-12-21T00:00:00	2024-11-08T05:00:00	2	Temperatura media	7.6
9118	7	Sololá	701	Sololá	2	El tablón	12	Diciembre	2023-12-21T00:00:00	2024-11-08T05:00:00	4	Temperatura máxima	7.6
9119	7	Sololá	701	Sololá	2	El tablón	12	Diciembre	2023-12-21T00:00:00	2024-11-08T05:00:00	3	Temperatura mínima	6.5
9120	7	Sololá	701	Sololá	2	El tablón	12	Diciembre	2023-12-21T00:00:00	2024-11-08T05:00:00	5	Humedad	67
9121	7	Sololá	701	Sololá	2	El tablón	12	Diciembre	2023-12-21T00:00:00	2024-11-08T05:00:00	6	Velocidad del viento	14.5
9122	7	Sololá	701	Sololá	2	El tablón	12	Diciembre	2023-12-21T00:00:00	2024-11-08T05:00:00	7	Dirección del viento	14.48
9123	7	Sololá	701	Sololá	2	El tablón	12	Diciembre	2023-12-21T00:00:00	2024-11-08T05:00:00	1	Precipitación	0
9124	7	Sololá	701	Sololá	2	El tablón	12	Diciembre	2023-12-21T00:00:00	2024-11-08T05:00:00	8	Radiación solar	0
9125	7	Sololá	701	Sololá	2	El tablón	12	Diciembre	2023-12-21T00:00:00	2024-11-08T06:00:00	2	Temperatura media	8.4
9126	7	Sololá	701	Sololá	2	El tablón	12	Diciembre	2023-12-21T00:00:00	2024-11-08T06:00:00	4	Temperatura máxima	8.4
9127	7	Sololá	701	Sololá	2	El tablón	12	Diciembre	2023-12-21T00:00:00	2024-11-08T06:00:00	3	Temperatura mínima	7.6
9128	7	Sololá	701	Sololá	2	El tablón	12	Diciembre	2023-12-21T00:00:00	2024-11-08T06:00:00	5	Humedad	52
9129	7	Sololá	701	Sololá	2	El tablón	12	Diciembre	2023-12-21T00:00:00	2024-11-08T06:00:00	6	Velocidad del viento	14.5
9130	7	Sololá	701	Sololá	2	El tablón	12	Diciembre	2023-12-21T00:00:00	2024-11-08T06:00:00	7	Dirección del viento	14.48
9131	7	Sololá	701	Sololá	2	El tablón	12	Diciembre	2023-12-21T00:00:00	2024-11-08T06:00:00	1	Precipitación	0
9132	7	Sololá	701	Sololá	2	El tablón	12	Diciembre	2023-12-21T00:00:00	2024-11-08T06:00:00	8	Radiación solar	0
9133	7	Sololá	701	Sololá	2	El tablón	12	Diciembre	2023-12-21T00:00:00	2024-11-08T07:00:00	2	Temperatura media	8.8
9134	7	Sololá	701	Sololá	2	El tablón	12	Diciembre	2023-12-21T00:00:00	2024-11-08T07:00:00	4	Temperatura máxima	9.2
9135	7	Sololá	701	Sololá	2	El tablón	12	Diciembre	2023-12-21T00:00:00	2024-11-08T07:00:00	3	Temperatura mínima	8.4
9136	7	Sololá	701	Sololá	2	El tablón	12	Diciembre	2023-12-21T00:00:00	2024-11-08T07:00:00	5	Humedad	56
9137	7	Sololá	701	Sololá	2	El tablón	12	Diciembre	2023-12-21T00:00:00	2024-11-08T07:00:00	6	Velocidad del viento	11.3
9138	7	Sololá	701	Sololá	2	El tablón	12	Diciembre	2023-12-21T00:00:00	2024-11-08T07:00:00	7	Dirección del viento	11.27
9139	7	Sololá	701	Sololá	2	El tablón	12	Diciembre	2023-12-21T00:00:00	2024-11-08T07:00:00	1	Precipitación	0
9140	7	Sololá	701	Sololá	2	El tablón	12	Diciembre	2023-12-21T00:00:00	2024-11-08T07:00:00	8	Radiación solar	10
9141	7	Sololá	701	Sololá	2	El tablón	12	Diciembre	2023-12-21T00:00:00	2024-11-08T08:00:00	2	Temperatura media	11.1
9142	7	Sololá	701	Sololá	2	El tablón	12	Diciembre	2023-12-21T00:00:00	2024-11-08T08:00:00	4	Temperatura máxima	11.1
9143	7	Sololá	701	Sololá	2	El tablón	12	Diciembre	2023-12-21T00:00:00	2024-11-08T08:00:00	3	Temperatura mínima	8.8
9144	7	Sololá	701	Sololá	2	El tablón	12	Diciembre	2023-12-21T00:00:00	2024-11-08T08:00:00	5	Humedad	50
9145	7	Sololá	701	Sololá	2	El tablón	12	Diciembre	2023-12-21T00:00:00	2024-11-08T08:00:00	6	Velocidad del viento	9.7
9146	7	Sololá	701	Sololá	2	El tablón	12	Diciembre	2023-12-21T00:00:00	2024-11-08T08:00:00	7	Dirección del viento	9.66
9147	7	Sololá	701	Sololá	2	El tablón	12	Diciembre	2023-12-21T00:00:00	2024-11-08T08:00:00	1	Precipitación	0
9148	7	Sololá	701	Sololá	2	El tablón	12	Diciembre	2023-12-21T00:00:00	2024-11-08T08:00:00	8	Radiación solar	154
9149	7	Sololá	701	Sololá	2	El tablón	12	Diciembre	2023-12-21T00:00:00	2024-11-08T09:00:00	2	Temperatura media	14.2
9150	7	Sololá	701	Sololá	2	El tablón	12	Diciembre	2023-12-21T00:00:00	2024-11-08T09:00:00	4	Temperatura máxima	14.2
9151	7	Sololá	701	Sololá	2	El tablón	12	Diciembre	2023-12-21T00:00:00	2024-11-08T09:00:00	3	Temperatura mínima	11
9152	7	Sololá	701	Sololá	2	El tablón	12	Diciembre	2023-12-21T00:00:00	2024-11-08T09:00:00	5	Humedad	35
9153	7	Sololá	701	Sololá	2	El tablón	12	Diciembre	2023-12-21T00:00:00	2024-11-08T09:00:00	6	Velocidad del viento	9.7
9154	7	Sololá	701	Sololá	2	El tablón	12	Diciembre	2023-12-21T00:00:00	2024-11-08T09:00:00	7	Dirección del viento	9.66
9155	7	Sololá	701	Sololá	2	El tablón	12	Diciembre	2023-12-21T00:00:00	2024-11-08T09:00:00	1	Precipitación	0
9156	7	Sololá	701	Sololá	2	El tablón	12	Diciembre	2023-12-21T00:00:00	2024-11-08T09:00:00	8	Radiación solar	390
9157	7	Sololá	701	Sololá	2	El tablón	12	Diciembre	2023-12-21T00:00:00	2024-11-08T10:00:00	2	Temperatura media	15.2
9158	7	Sololá	701	Sololá	2	El tablón	12	Diciembre	2023-12-21T00:00:00	2024-11-08T10:00:00	4	Temperatura máxima	15.5
9159	7	Sololá	701	Sololá	2	El tablón	12	Diciembre	2023-12-21T00:00:00	2024-11-08T10:00:00	3	Temperatura mínima	14.2
9160	7	Sololá	701	Sololá	2	El tablón	12	Diciembre	2023-12-21T00:00:00	2024-11-08T10:00:00	5	Humedad	33
9161	7	Sololá	701	Sololá	2	El tablón	12	Diciembre	2023-12-21T00:00:00	2024-11-08T10:00:00	6	Velocidad del viento	12.9
9162	7	Sololá	701	Sololá	2	El tablón	12	Diciembre	2023-12-21T00:00:00	2024-11-08T10:00:00	7	Dirección del viento	12.87
9163	7	Sololá	701	Sololá	2	El tablón	12	Diciembre	2023-12-21T00:00:00	2024-11-08T10:00:00	1	Precipitación	0
9164	7	Sololá	701	Sololá	2	El tablón	12	Diciembre	2023-12-21T00:00:00	2024-11-08T10:00:00	8	Radiación solar	576
9165	7	Sololá	701	Sololá	2	El tablón	12	Diciembre	2023-12-21T00:00:00	2024-11-08T11:00:00	2	Temperatura media	15
9166	7	Sololá	701	Sololá	2	El tablón	12	Diciembre	2023-12-21T00:00:00	2024-11-08T11:00:00	4	Temperatura máxima	16.1
9167	7	Sololá	701	Sololá	2	El tablón	12	Diciembre	2023-12-21T00:00:00	2024-11-08T11:00:00	3	Temperatura mínima	14.7
9168	7	Sololá	701	Sololá	2	El tablón	12	Diciembre	2023-12-21T00:00:00	2024-11-08T11:00:00	5	Humedad	45
9169	7	Sololá	701	Sololá	2	El tablón	12	Diciembre	2023-12-21T00:00:00	2024-11-08T11:00:00	6	Velocidad del viento	14.5
9170	7	Sololá	701	Sololá	2	El tablón	12	Diciembre	2023-12-21T00:00:00	2024-11-08T11:00:00	7	Dirección del viento	14.48
9171	7	Sololá	701	Sololá	2	El tablón	12	Diciembre	2023-12-21T00:00:00	2024-11-08T11:00:00	1	Precipitación	0
9172	7	Sololá	701	Sololá	2	El tablón	12	Diciembre	2023-12-21T00:00:00	2024-11-08T11:00:00	8	Radiación solar	707
9173	7	Sololá	701	Sololá	2	El tablón	12	Diciembre	2023-12-21T00:00:00	2024-11-08T12:00:00	2	Temperatura media	15.9
9174	7	Sololá	701	Sololá	2	El tablón	12	Diciembre	2023-12-21T00:00:00	2024-11-08T12:00:00	4	Temperatura máxima	16.2
9175	7	Sololá	701	Sololá	2	El tablón	12	Diciembre	2023-12-21T00:00:00	2024-11-08T12:00:00	3	Temperatura mínima	15
9176	7	Sololá	701	Sololá	2	El tablón	12	Diciembre	2023-12-21T00:00:00	2024-11-08T12:00:00	5	Humedad	42
9177	7	Sololá	701	Sololá	2	El tablón	12	Diciembre	2023-12-21T00:00:00	2024-11-08T12:00:00	6	Velocidad del viento	12.9
9178	7	Sololá	701	Sololá	2	El tablón	12	Diciembre	2023-12-21T00:00:00	2024-11-08T12:00:00	7	Dirección del viento	12.87
9179	7	Sololá	701	Sololá	2	El tablón	12	Diciembre	2023-12-21T00:00:00	2024-11-08T12:00:00	1	Precipitación	0
9180	7	Sololá	701	Sololá	2	El tablón	12	Diciembre	2023-12-21T00:00:00	2024-11-08T12:00:00	8	Radiación solar	687
9181	7	Sololá	701	Sololá	2	El tablón	12	Diciembre	2023-12-21T00:00:00	2024-11-08T13:00:00	2	Temperatura media	15.8
9182	7	Sololá	701	Sololá	2	El tablón	12	Diciembre	2023-12-21T00:00:00	2024-11-08T13:00:00	4	Temperatura máxima	16.4
9183	7	Sololá	701	Sololá	2	El tablón	12	Diciembre	2023-12-21T00:00:00	2024-11-08T13:00:00	3	Temperatura mínima	15.8
9184	7	Sololá	701	Sololá	2	El tablón	12	Diciembre	2023-12-21T00:00:00	2024-11-08T13:00:00	5	Humedad	49
9185	7	Sololá	701	Sololá	2	El tablón	12	Diciembre	2023-12-21T00:00:00	2024-11-08T13:00:00	6	Velocidad del viento	14.5
9186	7	Sololá	701	Sololá	2	El tablón	12	Diciembre	2023-12-21T00:00:00	2024-11-08T13:00:00	7	Dirección del viento	14.48
9187	7	Sololá	701	Sololá	2	El tablón	12	Diciembre	2023-12-21T00:00:00	2024-11-08T13:00:00	1	Precipitación	0
9188	7	Sololá	701	Sololá	2	El tablón	12	Diciembre	2023-12-21T00:00:00	2024-11-08T13:00:00	8	Radiación solar	745
9189	7	Sololá	701	Sololá	2	El tablón	12	Diciembre	2023-12-21T00:00:00	2024-11-08T14:00:00	2	Temperatura media	16.6
9190	7	Sololá	701	Sololá	2	El tablón	12	Diciembre	2023-12-21T00:00:00	2024-11-08T14:00:00	4	Temperatura máxima	16.6
9191	7	Sololá	701	Sololá	2	El tablón	12	Diciembre	2023-12-21T00:00:00	2024-11-08T14:00:00	3	Temperatura mínima	15.8
9192	7	Sololá	701	Sololá	2	El tablón	12	Diciembre	2023-12-21T00:00:00	2024-11-08T14:00:00	5	Humedad	54
9193	7	Sololá	701	Sololá	2	El tablón	12	Diciembre	2023-12-21T00:00:00	2024-11-08T14:00:00	6	Velocidad del viento	12.9
9194	7	Sololá	701	Sololá	2	El tablón	12	Diciembre	2023-12-21T00:00:00	2024-11-08T14:00:00	7	Dirección del viento	12.87
9195	7	Sololá	701	Sololá	2	El tablón	12	Diciembre	2023-12-21T00:00:00	2024-11-08T14:00:00	1	Precipitación	0
9196	7	Sololá	701	Sololá	2	El tablón	12	Diciembre	2023-12-21T00:00:00	2024-11-08T14:00:00	8	Radiación solar	724
9197	7	Sololá	701	Sololá	2	El tablón	12	Diciembre	2023-12-21T00:00:00	2024-11-08T15:00:00	2	Temperatura media	15.4
9198	7	Sololá	701	Sololá	2	El tablón	12	Diciembre	2023-12-21T00:00:00	2024-11-08T15:00:00	4	Temperatura máxima	16.6
9199	7	Sololá	701	Sololá	2	El tablón	12	Diciembre	2023-12-21T00:00:00	2024-11-08T15:00:00	3	Temperatura mínima	15.4
9200	7	Sololá	701	Sololá	2	El tablón	12	Diciembre	2023-12-21T00:00:00	2024-11-08T15:00:00	5	Humedad	60
9201	7	Sololá	701	Sololá	2	El tablón	12	Diciembre	2023-12-21T00:00:00	2024-11-08T15:00:00	6	Velocidad del viento	14.5
9202	7	Sololá	701	Sololá	2	El tablón	12	Diciembre	2023-12-21T00:00:00	2024-11-08T15:00:00	7	Dirección del viento	14.48
9203	7	Sololá	701	Sololá	2	El tablón	12	Diciembre	2023-12-21T00:00:00	2024-11-08T15:00:00	1	Precipitación	0
9204	7	Sololá	701	Sololá	2	El tablón	12	Diciembre	2023-12-21T00:00:00	2024-11-08T15:00:00	8	Radiación solar	602
9205	7	Sololá	701	Sololá	2	El tablón	12	Diciembre	2023-12-21T00:00:00	2024-11-08T16:00:00	2	Temperatura media	14.2
9206	7	Sololá	701	Sololá	2	El tablón	12	Diciembre	2023-12-21T00:00:00	2024-11-08T16:00:00	4	Temperatura máxima	15.4
9207	7	Sololá	701	Sololá	2	El tablón	12	Diciembre	2023-12-21T00:00:00	2024-11-08T16:00:00	3	Temperatura mínima	14.2
9208	7	Sololá	701	Sololá	2	El tablón	12	Diciembre	2023-12-21T00:00:00	2024-11-08T16:00:00	5	Humedad	66
9209	7	Sololá	701	Sololá	2	El tablón	12	Diciembre	2023-12-21T00:00:00	2024-11-08T16:00:00	6	Velocidad del viento	12.9
9210	7	Sololá	701	Sololá	2	El tablón	12	Diciembre	2023-12-21T00:00:00	2024-11-08T16:00:00	7	Dirección del viento	12.87
9211	7	Sololá	701	Sololá	2	El tablón	12	Diciembre	2023-12-21T00:00:00	2024-11-08T16:00:00	1	Precipitación	0
9212	7	Sololá	701	Sololá	2	El tablón	12	Diciembre	2023-12-21T00:00:00	2024-11-08T16:00:00	8	Radiación solar	430
9213	7	Sololá	701	Sololá	2	El tablón	12	Diciembre	2023-12-21T00:00:00	2024-11-08T17:00:00	2	Temperatura media	11.7
9214	7	Sololá	701	Sololá	2	El tablón	12	Diciembre	2023-12-21T00:00:00	2024-11-08T17:00:00	4	Temperatura máxima	14.2
9215	7	Sololá	701	Sololá	2	El tablón	12	Diciembre	2023-12-21T00:00:00	2024-11-08T17:00:00	3	Temperatura mínima	11.7
9216	7	Sololá	701	Sololá	2	El tablón	12	Diciembre	2023-12-21T00:00:00	2024-11-08T17:00:00	5	Humedad	73
9217	7	Sololá	701	Sololá	2	El tablón	12	Diciembre	2023-12-21T00:00:00	2024-11-08T17:00:00	6	Velocidad del viento	16.1
9218	7	Sololá	701	Sololá	2	El tablón	12	Diciembre	2023-12-21T00:00:00	2024-11-08T17:00:00	7	Dirección del viento	16.09
9219	7	Sololá	701	Sololá	2	El tablón	12	Diciembre	2023-12-21T00:00:00	2024-11-08T17:00:00	1	Precipitación	0
9220	7	Sololá	701	Sololá	2	El tablón	12	Diciembre	2023-12-21T00:00:00	2024-11-08T17:00:00	8	Radiación solar	211
9221	7	Sololá	701	Sololá	2	El tablón	12	Diciembre	2023-12-21T00:00:00	2024-11-08T18:00:00	2	Temperatura media	9.8
9222	7	Sololá	701	Sololá	2	El tablón	12	Diciembre	2023-12-21T00:00:00	2024-11-08T18:00:00	4	Temperatura máxima	11.7
9223	7	Sololá	701	Sololá	2	El tablón	12	Diciembre	2023-12-21T00:00:00	2024-11-08T18:00:00	3	Temperatura mínima	9.8
9224	7	Sololá	701	Sololá	2	El tablón	12	Diciembre	2023-12-21T00:00:00	2024-11-08T18:00:00	5	Humedad	79
9225	7	Sololá	701	Sololá	2	El tablón	12	Diciembre	2023-12-21T00:00:00	2024-11-08T18:00:00	6	Velocidad del viento	14.5
9226	7	Sololá	701	Sololá	2	El tablón	12	Diciembre	2023-12-21T00:00:00	2024-11-08T18:00:00	7	Dirección del viento	14.48
9227	7	Sololá	701	Sololá	2	El tablón	12	Diciembre	2023-12-21T00:00:00	2024-11-08T18:00:00	1	Precipitación	0
9228	7	Sololá	701	Sololá	2	El tablón	12	Diciembre	2023-12-21T00:00:00	2024-11-08T18:00:00	8	Radiación solar	26
9229	7	Sololá	701	Sololá	2	El tablón	12	Diciembre	2023-12-21T00:00:00	2024-11-08T19:00:00	2	Temperatura media	9.2
9230	7	Sololá	701	Sololá	2	El tablón	12	Diciembre	2023-12-21T00:00:00	2024-11-08T19:00:00	4	Temperatura máxima	9.8
9231	7	Sololá	701	Sololá	2	El tablón	12	Diciembre	2023-12-21T00:00:00	2024-11-08T19:00:00	3	Temperatura mínima	9.2
9232	7	Sololá	701	Sololá	2	El tablón	12	Diciembre	2023-12-21T00:00:00	2024-11-08T19:00:00	5	Humedad	80
9233	7	Sololá	701	Sololá	2	El tablón	12	Diciembre	2023-12-21T00:00:00	2024-11-08T19:00:00	6	Velocidad del viento	17.7
9234	7	Sololá	701	Sololá	2	El tablón	12	Diciembre	2023-12-21T00:00:00	2024-11-08T19:00:00	7	Dirección del viento	17.7
9235	7	Sololá	701	Sololá	2	El tablón	12	Diciembre	2023-12-21T00:00:00	2024-11-08T19:00:00	1	Precipitación	0
9236	7	Sololá	701	Sololá	2	El tablón	12	Diciembre	2023-12-21T00:00:00	2024-11-08T19:00:00	8	Radiación solar	0
9237	7	Sololá	701	Sololá	2	El tablón	12	Diciembre	2023-12-21T00:00:00	2024-11-08T20:00:00	2	Temperatura media	9.1
9238	7	Sololá	701	Sololá	2	El tablón	12	Diciembre	2023-12-21T00:00:00	2024-11-08T20:00:00	4	Temperatura máxima	9.2
9239	7	Sololá	701	Sololá	2	El tablón	12	Diciembre	2023-12-21T00:00:00	2024-11-08T20:00:00	3	Temperatura mínima	9
9240	7	Sololá	701	Sololá	2	El tablón	12	Diciembre	2023-12-21T00:00:00	2024-11-08T20:00:00	5	Humedad	81
9241	7	Sololá	701	Sololá	2	El tablón	12	Diciembre	2023-12-21T00:00:00	2024-11-08T20:00:00	6	Velocidad del viento	19.3
9242	7	Sololá	701	Sololá	2	El tablón	12	Diciembre	2023-12-21T00:00:00	2024-11-08T20:00:00	7	Dirección del viento	19.31
9243	7	Sololá	701	Sololá	2	El tablón	12	Diciembre	2023-12-21T00:00:00	2024-11-08T20:00:00	1	Precipitación	0
9244	7	Sololá	701	Sololá	2	El tablón	12	Diciembre	2023-12-21T00:00:00	2024-11-08T20:00:00	8	Radiación solar	0
9245	7	Sololá	701	Sololá	2	El tablón	12	Diciembre	2023-12-21T00:00:00	2024-11-08T21:00:00	2	Temperatura media	9.2
9246	7	Sololá	701	Sololá	2	El tablón	12	Diciembre	2023-12-21T00:00:00	2024-11-08T21:00:00	4	Temperatura máxima	9.2
9247	7	Sololá	701	Sololá	2	El tablón	12	Diciembre	2023-12-21T00:00:00	2024-11-08T21:00:00	3	Temperatura mínima	9.1
9248	7	Sololá	701	Sololá	2	El tablón	12	Diciembre	2023-12-21T00:00:00	2024-11-08T21:00:00	5	Humedad	81
9249	7	Sololá	701	Sololá	2	El tablón	12	Diciembre	2023-12-21T00:00:00	2024-11-08T21:00:00	6	Velocidad del viento	20.9
9250	7	Sololá	701	Sololá	2	El tablón	12	Diciembre	2023-12-21T00:00:00	2024-11-08T21:00:00	7	Dirección del viento	20.92
9251	7	Sololá	701	Sololá	2	El tablón	12	Diciembre	2023-12-21T00:00:00	2024-11-08T21:00:00	1	Precipitación	0
9252	7	Sololá	701	Sololá	2	El tablón	12	Diciembre	2023-12-21T00:00:00	2024-11-08T21:00:00	8	Radiación solar	0
9253	7	Sololá	701	Sololá	2	El tablón	12	Diciembre	2023-12-21T00:00:00	2024-11-08T22:00:00	2	Temperatura media	9.3
9254	7	Sololá	701	Sololá	2	El tablón	12	Diciembre	2023-12-21T00:00:00	2024-11-08T22:00:00	4	Temperatura máxima	9.3
9255	7	Sololá	701	Sololá	2	El tablón	12	Diciembre	2023-12-21T00:00:00	2024-11-08T22:00:00	3	Temperatura mínima	9.2
9256	7	Sololá	701	Sololá	2	El tablón	12	Diciembre	2023-12-21T00:00:00	2024-11-08T22:00:00	5	Humedad	82
9257	7	Sololá	701	Sololá	2	El tablón	12	Diciembre	2023-12-21T00:00:00	2024-11-08T22:00:00	6	Velocidad del viento	17.7
9258	7	Sololá	701	Sololá	2	El tablón	12	Diciembre	2023-12-21T00:00:00	2024-11-08T22:00:00	7	Dirección del viento	17.7
9259	7	Sololá	701	Sololá	2	El tablón	12	Diciembre	2023-12-21T00:00:00	2024-11-08T22:00:00	1	Precipitación	0
9260	7	Sololá	701	Sololá	2	El tablón	12	Diciembre	2023-12-21T00:00:00	2024-11-08T22:00:00	8	Radiación solar	0
9261	7	Sololá	701	Sololá	2	El tablón	12	Diciembre	2023-12-21T00:00:00	2024-11-08T23:00:00	2	Temperatura media	9.2
9262	7	Sololá	701	Sololá	2	El tablón	12	Diciembre	2023-12-21T00:00:00	2024-11-08T23:00:00	4	Temperatura máxima	9.3
9263	7	Sololá	701	Sololá	2	El tablón	12	Diciembre	2023-12-21T00:00:00	2024-11-08T23:00:00	3	Temperatura mínima	9.2
9264	7	Sololá	701	Sololá	2	El tablón	12	Diciembre	2023-12-21T00:00:00	2024-11-08T23:00:00	5	Humedad	82
9265	7	Sololá	701	Sololá	2	El tablón	12	Diciembre	2023-12-21T00:00:00	2024-11-08T23:00:00	6	Velocidad del viento	16.1
9266	7	Sololá	701	Sololá	2	El tablón	12	Diciembre	2023-12-21T00:00:00	2024-11-08T23:00:00	7	Dirección del viento	16.09
9267	7	Sololá	701	Sololá	2	El tablón	12	Diciembre	2023-12-21T00:00:00	2024-11-08T23:00:00	1	Precipitación	0
9268	7	Sololá	701	Sololá	2	El tablón	12	Diciembre	2023-12-21T00:00:00	2024-11-08T23:00:00	8	Radiación solar	0
9269	7	Sololá	701	Sololá	2	El tablón	12	Diciembre	2023-12-22T00:00:00	2024-11-08T00:00:00	2	Temperatura media	8.8
9270	7	Sololá	701	Sololá	2	El tablón	12	Diciembre	2023-12-22T00:00:00	2024-11-08T00:00:00	4	Temperatura máxima	9.2
9271	7	Sololá	701	Sololá	2	El tablón	12	Diciembre	2023-12-22T00:00:00	2024-11-08T00:00:00	3	Temperatura mínima	8.8
9272	7	Sololá	701	Sololá	2	El tablón	12	Diciembre	2023-12-22T00:00:00	2024-11-08T00:00:00	5	Humedad	84
9273	7	Sololá	701	Sololá	2	El tablón	12	Diciembre	2023-12-22T00:00:00	2024-11-08T00:00:00	6	Velocidad del viento	16.1
9274	7	Sololá	701	Sololá	2	El tablón	12	Diciembre	2023-12-22T00:00:00	2024-11-08T00:00:00	7	Dirección del viento	16.09
9275	7	Sololá	701	Sololá	2	El tablón	12	Diciembre	2023-12-22T00:00:00	2024-11-08T00:00:00	1	Precipitación	0
9276	7	Sololá	701	Sololá	2	El tablón	12	Diciembre	2023-12-22T00:00:00	2024-11-08T00:00:00	8	Radiación solar	0
9277	7	Sololá	701	Sololá	2	El tablón	12	Diciembre	2023-12-22T00:00:00	2024-11-08T01:00:00	2	Temperatura media	8.6
9278	7	Sololá	701	Sololá	2	El tablón	12	Diciembre	2023-12-22T00:00:00	2024-11-08T01:00:00	4	Temperatura máxima	8.9
9279	7	Sololá	701	Sololá	2	El tablón	12	Diciembre	2023-12-22T00:00:00	2024-11-08T01:00:00	3	Temperatura mínima	8.6
9280	7	Sololá	701	Sololá	2	El tablón	12	Diciembre	2023-12-22T00:00:00	2024-11-08T01:00:00	5	Humedad	85
9281	7	Sololá	701	Sololá	2	El tablón	12	Diciembre	2023-12-22T00:00:00	2024-11-08T01:00:00	6	Velocidad del viento	14.5
9282	7	Sololá	701	Sololá	2	El tablón	12	Diciembre	2023-12-22T00:00:00	2024-11-08T01:00:00	7	Dirección del viento	14.48
9283	7	Sololá	701	Sololá	2	El tablón	12	Diciembre	2023-12-22T00:00:00	2024-11-08T01:00:00	1	Precipitación	0
9284	7	Sololá	701	Sololá	2	El tablón	12	Diciembre	2023-12-22T00:00:00	2024-11-08T01:00:00	8	Radiación solar	0
9285	7	Sololá	701	Sololá	2	El tablón	12	Diciembre	2023-12-22T00:00:00	2024-11-08T02:00:00	2	Temperatura media	8.2
9286	7	Sololá	701	Sololá	2	El tablón	12	Diciembre	2023-12-22T00:00:00	2024-11-08T02:00:00	4	Temperatura máxima	8.6
9287	7	Sololá	701	Sololá	2	El tablón	12	Diciembre	2023-12-22T00:00:00	2024-11-08T02:00:00	3	Temperatura mínima	8.2
9288	7	Sololá	701	Sololá	2	El tablón	12	Diciembre	2023-12-22T00:00:00	2024-11-08T02:00:00	5	Humedad	85
9289	7	Sololá	701	Sololá	2	El tablón	12	Diciembre	2023-12-22T00:00:00	2024-11-08T02:00:00	6	Velocidad del viento	12.9
9290	7	Sololá	701	Sololá	2	El tablón	12	Diciembre	2023-12-22T00:00:00	2024-11-08T02:00:00	7	Dirección del viento	12.87
9291	7	Sololá	701	Sololá	2	El tablón	12	Diciembre	2023-12-22T00:00:00	2024-11-08T02:00:00	1	Precipitación	0
9292	7	Sololá	701	Sololá	2	El tablón	12	Diciembre	2023-12-22T00:00:00	2024-11-08T02:00:00	8	Radiación solar	0
9293	7	Sololá	701	Sololá	2	El tablón	12	Diciembre	2023-12-22T00:00:00	2024-11-08T03:00:00	2	Temperatura media	7.9
9294	7	Sololá	701	Sololá	2	El tablón	12	Diciembre	2023-12-22T00:00:00	2024-11-08T03:00:00	4	Temperatura máxima	8.2
9295	7	Sololá	701	Sololá	2	El tablón	12	Diciembre	2023-12-22T00:00:00	2024-11-08T03:00:00	3	Temperatura mínima	7.9
9296	7	Sololá	701	Sololá	2	El tablón	12	Diciembre	2023-12-22T00:00:00	2024-11-08T03:00:00	5	Humedad	87
9297	7	Sololá	701	Sololá	2	El tablón	12	Diciembre	2023-12-22T00:00:00	2024-11-08T03:00:00	6	Velocidad del viento	12.9
9298	7	Sololá	701	Sololá	2	El tablón	12	Diciembre	2023-12-22T00:00:00	2024-11-08T03:00:00	7	Dirección del viento	12.87
9299	7	Sololá	701	Sololá	2	El tablón	12	Diciembre	2023-12-22T00:00:00	2024-11-08T03:00:00	1	Precipitación	0
9300	7	Sololá	701	Sololá	2	El tablón	12	Diciembre	2023-12-22T00:00:00	2024-11-08T03:00:00	8	Radiación solar	0
9301	7	Sololá	701	Sololá	2	El tablón	12	Diciembre	2023-12-22T00:00:00	2024-11-08T04:00:00	2	Temperatura media	8.1
9302	7	Sololá	701	Sololá	2	El tablón	12	Diciembre	2023-12-22T00:00:00	2024-11-08T04:00:00	4	Temperatura máxima	8.1
9303	7	Sololá	701	Sololá	2	El tablón	12	Diciembre	2023-12-22T00:00:00	2024-11-08T04:00:00	3	Temperatura mínima	7.9
9304	7	Sololá	701	Sololá	2	El tablón	12	Diciembre	2023-12-22T00:00:00	2024-11-08T04:00:00	5	Humedad	85
9305	7	Sololá	701	Sololá	2	El tablón	12	Diciembre	2023-12-22T00:00:00	2024-11-08T04:00:00	6	Velocidad del viento	14.5
9306	7	Sololá	701	Sololá	2	El tablón	12	Diciembre	2023-12-22T00:00:00	2024-11-08T04:00:00	7	Dirección del viento	14.48
9307	7	Sololá	701	Sololá	2	El tablón	12	Diciembre	2023-12-22T00:00:00	2024-11-08T04:00:00	1	Precipitación	0
9308	7	Sololá	701	Sololá	2	El tablón	12	Diciembre	2023-12-22T00:00:00	2024-11-08T04:00:00	8	Radiación solar	0
9309	7	Sololá	701	Sololá	2	El tablón	12	Diciembre	2023-12-22T00:00:00	2024-11-08T05:00:00	2	Temperatura media	8
9310	7	Sololá	701	Sololá	2	El tablón	12	Diciembre	2023-12-22T00:00:00	2024-11-08T05:00:00	4	Temperatura máxima	8.1
9311	7	Sololá	701	Sololá	2	El tablón	12	Diciembre	2023-12-22T00:00:00	2024-11-08T05:00:00	3	Temperatura mínima	7.8
9312	7	Sololá	701	Sololá	2	El tablón	12	Diciembre	2023-12-22T00:00:00	2024-11-08T05:00:00	5	Humedad	84
9313	7	Sololá	701	Sololá	2	El tablón	12	Diciembre	2023-12-22T00:00:00	2024-11-08T05:00:00	6	Velocidad del viento	14.5
9314	7	Sololá	701	Sololá	2	El tablón	12	Diciembre	2023-12-22T00:00:00	2024-11-08T05:00:00	7	Dirección del viento	14.48
9315	7	Sololá	701	Sololá	2	El tablón	12	Diciembre	2023-12-22T00:00:00	2024-11-08T05:00:00	1	Precipitación	0
9316	7	Sololá	701	Sololá	2	El tablón	12	Diciembre	2023-12-22T00:00:00	2024-11-08T05:00:00	8	Radiación solar	0
9317	7	Sololá	701	Sololá	2	El tablón	12	Diciembre	2023-12-22T00:00:00	2024-11-08T06:00:00	2	Temperatura media	8.3
9318	7	Sololá	701	Sololá	2	El tablón	12	Diciembre	2023-12-22T00:00:00	2024-11-08T06:00:00	4	Temperatura máxima	8.4
9319	7	Sololá	701	Sololá	2	El tablón	12	Diciembre	2023-12-22T00:00:00	2024-11-08T06:00:00	3	Temperatura mínima	7.9
9320	7	Sololá	701	Sololá	2	El tablón	12	Diciembre	2023-12-22T00:00:00	2024-11-08T06:00:00	5	Humedad	80
9321	7	Sololá	701	Sololá	2	El tablón	12	Diciembre	2023-12-22T00:00:00	2024-11-08T06:00:00	6	Velocidad del viento	11.3
9322	7	Sololá	701	Sololá	2	El tablón	12	Diciembre	2023-12-22T00:00:00	2024-11-08T06:00:00	7	Dirección del viento	11.27
9323	7	Sololá	701	Sololá	2	El tablón	12	Diciembre	2023-12-22T00:00:00	2024-11-08T06:00:00	1	Precipitación	0
9324	7	Sololá	701	Sololá	2	El tablón	12	Diciembre	2023-12-22T00:00:00	2024-11-08T06:00:00	8	Radiación solar	0
9325	7	Sololá	701	Sololá	2	El tablón	12	Diciembre	2023-12-22T00:00:00	2024-11-08T07:00:00	2	Temperatura media	9.1
9326	7	Sololá	701	Sololá	2	El tablón	12	Diciembre	2023-12-22T00:00:00	2024-11-08T07:00:00	4	Temperatura máxima	9.1
9327	7	Sololá	701	Sololá	2	El tablón	12	Diciembre	2023-12-22T00:00:00	2024-11-08T07:00:00	3	Temperatura mínima	8.1
9328	7	Sololá	701	Sololá	2	El tablón	12	Diciembre	2023-12-22T00:00:00	2024-11-08T07:00:00	5	Humedad	79
9329	7	Sololá	701	Sololá	2	El tablón	12	Diciembre	2023-12-22T00:00:00	2024-11-08T07:00:00	6	Velocidad del viento	8
9330	7	Sololá	701	Sololá	2	El tablón	12	Diciembre	2023-12-22T00:00:00	2024-11-08T07:00:00	7	Dirección del viento	8.05
9331	7	Sololá	701	Sololá	2	El tablón	12	Diciembre	2023-12-22T00:00:00	2024-11-08T07:00:00	1	Precipitación	0
9332	7	Sololá	701	Sololá	2	El tablón	12	Diciembre	2023-12-22T00:00:00	2024-11-08T07:00:00	8	Radiación solar	10
9333	7	Sololá	701	Sololá	2	El tablón	12	Diciembre	2023-12-22T00:00:00	2024-11-08T08:00:00	2	Temperatura media	11.6
9334	7	Sololá	701	Sololá	2	El tablón	12	Diciembre	2023-12-22T00:00:00	2024-11-08T08:00:00	4	Temperatura máxima	11.6
9335	7	Sololá	701	Sololá	2	El tablón	12	Diciembre	2023-12-22T00:00:00	2024-11-08T08:00:00	3	Temperatura mínima	9.1
9336	7	Sololá	701	Sololá	2	El tablón	12	Diciembre	2023-12-22T00:00:00	2024-11-08T08:00:00	5	Humedad	73
9337	7	Sololá	701	Sololá	2	El tablón	12	Diciembre	2023-12-22T00:00:00	2024-11-08T08:00:00	6	Velocidad del viento	8
9338	7	Sololá	701	Sololá	2	El tablón	12	Diciembre	2023-12-22T00:00:00	2024-11-08T08:00:00	7	Dirección del viento	8.05
9339	7	Sololá	701	Sololá	2	El tablón	12	Diciembre	2023-12-22T00:00:00	2024-11-08T08:00:00	1	Precipitación	0
9340	7	Sololá	701	Sololá	2	El tablón	12	Diciembre	2023-12-22T00:00:00	2024-11-08T08:00:00	8	Radiación solar	142
9341	7	Sololá	701	Sololá	2	El tablón	12	Diciembre	2023-12-22T00:00:00	2024-11-08T09:00:00	2	Temperatura media	14.8
9342	7	Sololá	701	Sololá	2	El tablón	12	Diciembre	2023-12-22T00:00:00	2024-11-08T09:00:00	4	Temperatura máxima	14.8
9343	7	Sololá	701	Sololá	2	El tablón	12	Diciembre	2023-12-22T00:00:00	2024-11-08T09:00:00	3	Temperatura mínima	11.6
9344	7	Sololá	701	Sololá	2	El tablón	12	Diciembre	2023-12-22T00:00:00	2024-11-08T09:00:00	5	Humedad	60
9345	7	Sololá	701	Sololá	2	El tablón	12	Diciembre	2023-12-22T00:00:00	2024-11-08T09:00:00	6	Velocidad del viento	9.7
9346	7	Sololá	701	Sololá	2	El tablón	12	Diciembre	2023-12-22T00:00:00	2024-11-08T09:00:00	7	Dirección del viento	9.66
9347	7	Sololá	701	Sololá	2	El tablón	12	Diciembre	2023-12-22T00:00:00	2024-11-08T09:00:00	1	Precipitación	0
9348	7	Sololá	701	Sololá	2	El tablón	12	Diciembre	2023-12-22T00:00:00	2024-11-08T09:00:00	8	Radiación solar	370
9349	7	Sololá	701	Sololá	2	El tablón	12	Diciembre	2023-12-22T00:00:00	2024-11-08T10:00:00	2	Temperatura media	15.7
9350	7	Sololá	701	Sololá	2	El tablón	12	Diciembre	2023-12-22T00:00:00	2024-11-08T10:00:00	4	Temperatura máxima	15.8
9351	7	Sololá	701	Sololá	2	El tablón	12	Diciembre	2023-12-22T00:00:00	2024-11-08T10:00:00	3	Temperatura mínima	14.8
9352	7	Sololá	701	Sololá	2	El tablón	12	Diciembre	2023-12-22T00:00:00	2024-11-08T10:00:00	5	Humedad	61
9353	7	Sololá	701	Sololá	2	El tablón	12	Diciembre	2023-12-22T00:00:00	2024-11-08T10:00:00	6	Velocidad del viento	9.7
9354	7	Sololá	701	Sololá	2	El tablón	12	Diciembre	2023-12-22T00:00:00	2024-11-08T10:00:00	7	Dirección del viento	9.66
9355	7	Sololá	701	Sololá	2	El tablón	12	Diciembre	2023-12-22T00:00:00	2024-11-08T10:00:00	1	Precipitación	0
9356	7	Sololá	701	Sololá	2	El tablón	12	Diciembre	2023-12-22T00:00:00	2024-11-08T10:00:00	8	Radiación solar	548
9357	7	Sololá	701	Sololá	2	El tablón	12	Diciembre	2023-12-22T00:00:00	2024-11-08T11:00:00	2	Temperatura media	17.2
9358	7	Sololá	701	Sololá	2	El tablón	12	Diciembre	2023-12-22T00:00:00	2024-11-08T11:00:00	4	Temperatura máxima	17.2
9359	7	Sololá	701	Sololá	2	El tablón	12	Diciembre	2023-12-22T00:00:00	2024-11-08T11:00:00	3	Temperatura mínima	15.7
9360	7	Sololá	701	Sololá	2	El tablón	12	Diciembre	2023-12-22T00:00:00	2024-11-08T11:00:00	5	Humedad	58
9361	7	Sololá	701	Sololá	2	El tablón	12	Diciembre	2023-12-22T00:00:00	2024-11-08T11:00:00	6	Velocidad del viento	9.7
9362	7	Sololá	701	Sololá	2	El tablón	12	Diciembre	2023-12-22T00:00:00	2024-11-08T11:00:00	7	Dirección del viento	9.66
9363	7	Sololá	701	Sololá	2	El tablón	12	Diciembre	2023-12-22T00:00:00	2024-11-08T11:00:00	1	Precipitación	0
9364	7	Sololá	701	Sololá	2	El tablón	12	Diciembre	2023-12-22T00:00:00	2024-11-08T11:00:00	8	Radiación solar	680
9365	7	Sololá	701	Sololá	2	El tablón	12	Diciembre	2023-12-22T00:00:00	2024-11-08T12:00:00	2	Temperatura media	18.2
9366	7	Sololá	701	Sololá	2	El tablón	12	Diciembre	2023-12-22T00:00:00	2024-11-08T12:00:00	4	Temperatura máxima	18.2
9367	7	Sololá	701	Sololá	2	El tablón	12	Diciembre	2023-12-22T00:00:00	2024-11-08T12:00:00	3	Temperatura mínima	17.2
9368	7	Sololá	701	Sololá	2	El tablón	12	Diciembre	2023-12-22T00:00:00	2024-11-08T12:00:00	5	Humedad	56
9369	7	Sololá	701	Sololá	2	El tablón	12	Diciembre	2023-12-22T00:00:00	2024-11-08T12:00:00	6	Velocidad del viento	6.4
9370	7	Sololá	701	Sololá	2	El tablón	12	Diciembre	2023-12-22T00:00:00	2024-11-08T12:00:00	7	Dirección del viento	6.44
9371	7	Sololá	701	Sololá	2	El tablón	12	Diciembre	2023-12-22T00:00:00	2024-11-08T12:00:00	1	Precipitación	0
9372	7	Sololá	701	Sololá	2	El tablón	12	Diciembre	2023-12-22T00:00:00	2024-11-08T12:00:00	8	Radiación solar	661
9373	7	Sololá	701	Sololá	2	El tablón	12	Diciembre	2023-12-22T00:00:00	2024-11-08T13:00:00	2	Temperatura media	19.1
9374	7	Sololá	701	Sololá	2	El tablón	12	Diciembre	2023-12-22T00:00:00	2024-11-08T13:00:00	4	Temperatura máxima	19.3
9375	7	Sololá	701	Sololá	2	El tablón	12	Diciembre	2023-12-22T00:00:00	2024-11-08T13:00:00	3	Temperatura mínima	18.2
9376	7	Sololá	701	Sololá	2	El tablón	12	Diciembre	2023-12-22T00:00:00	2024-11-08T13:00:00	5	Humedad	53
9377	7	Sololá	701	Sololá	2	El tablón	12	Diciembre	2023-12-22T00:00:00	2024-11-08T13:00:00	6	Velocidad del viento	4.8
9378	7	Sololá	701	Sololá	2	El tablón	12	Diciembre	2023-12-22T00:00:00	2024-11-08T13:00:00	7	Dirección del viento	4.83
9379	7	Sololá	701	Sololá	2	El tablón	12	Diciembre	2023-12-22T00:00:00	2024-11-08T13:00:00	1	Precipitación	0
9380	7	Sololá	701	Sololá	2	El tablón	12	Diciembre	2023-12-22T00:00:00	2024-11-08T13:00:00	8	Radiación solar	706
9381	7	Sololá	701	Sololá	2	El tablón	12	Diciembre	2023-12-22T00:00:00	2024-11-08T14:00:00	2	Temperatura media	19.6
9382	7	Sololá	701	Sololá	2	El tablón	12	Diciembre	2023-12-22T00:00:00	2024-11-08T14:00:00	4	Temperatura máxima	19.6
9383	7	Sololá	701	Sololá	2	El tablón	12	Diciembre	2023-12-22T00:00:00	2024-11-08T14:00:00	3	Temperatura mínima	18.3
9384	7	Sololá	701	Sololá	2	El tablón	12	Diciembre	2023-12-22T00:00:00	2024-11-08T14:00:00	5	Humedad	52
9385	7	Sololá	701	Sololá	2	El tablón	12	Diciembre	2023-12-22T00:00:00	2024-11-08T14:00:00	6	Velocidad del viento	6.4
9386	7	Sololá	701	Sololá	2	El tablón	12	Diciembre	2023-12-22T00:00:00	2024-11-08T14:00:00	7	Dirección del viento	6.44
9387	7	Sololá	701	Sololá	2	El tablón	12	Diciembre	2023-12-22T00:00:00	2024-11-08T14:00:00	1	Precipitación	0
9388	7	Sololá	701	Sololá	2	El tablón	12	Diciembre	2023-12-22T00:00:00	2024-11-08T14:00:00	8	Radiación solar	752
9389	7	Sololá	701	Sololá	2	El tablón	12	Diciembre	2023-12-22T00:00:00	2024-11-08T15:00:00	2	Temperatura media	19.1
9390	7	Sololá	701	Sololá	2	El tablón	12	Diciembre	2023-12-22T00:00:00	2024-11-08T15:00:00	4	Temperatura máxima	19.9
9391	7	Sololá	701	Sololá	2	El tablón	12	Diciembre	2023-12-22T00:00:00	2024-11-08T15:00:00	3	Temperatura mínima	19.1
9392	7	Sololá	701	Sololá	2	El tablón	12	Diciembre	2023-12-22T00:00:00	2024-11-08T15:00:00	5	Humedad	57
9393	7	Sololá	701	Sololá	2	El tablón	12	Diciembre	2023-12-22T00:00:00	2024-11-08T15:00:00	6	Velocidad del viento	4.8
9394	7	Sololá	701	Sololá	2	El tablón	12	Diciembre	2023-12-22T00:00:00	2024-11-08T15:00:00	7	Dirección del viento	4.83
9395	7	Sololá	701	Sololá	2	El tablón	12	Diciembre	2023-12-22T00:00:00	2024-11-08T15:00:00	1	Precipitación	0
9396	7	Sololá	701	Sololá	2	El tablón	12	Diciembre	2023-12-22T00:00:00	2024-11-08T15:00:00	8	Radiación solar	648
9397	7	Sololá	701	Sololá	2	El tablón	12	Diciembre	2023-12-22T00:00:00	2024-11-08T16:00:00	2	Temperatura media	16.4
9398	7	Sololá	701	Sololá	2	El tablón	12	Diciembre	2023-12-22T00:00:00	2024-11-08T16:00:00	4	Temperatura máxima	19.1
9399	7	Sololá	701	Sololá	2	El tablón	12	Diciembre	2023-12-22T00:00:00	2024-11-08T16:00:00	3	Temperatura mínima	16.4
9400	7	Sololá	701	Sololá	2	El tablón	12	Diciembre	2023-12-22T00:00:00	2024-11-08T16:00:00	5	Humedad	71
9401	7	Sololá	701	Sololá	2	El tablón	12	Diciembre	2023-12-22T00:00:00	2024-11-08T16:00:00	6	Velocidad del viento	6.4
9402	7	Sololá	701	Sololá	2	El tablón	12	Diciembre	2023-12-22T00:00:00	2024-11-08T16:00:00	7	Dirección del viento	6.44
9403	7	Sololá	701	Sololá	2	El tablón	12	Diciembre	2023-12-22T00:00:00	2024-11-08T16:00:00	1	Precipitación	0
9404	7	Sololá	701	Sololá	2	El tablón	12	Diciembre	2023-12-22T00:00:00	2024-11-08T16:00:00	8	Radiación solar	487
9405	7	Sololá	701	Sololá	2	El tablón	12	Diciembre	2023-12-22T00:00:00	2024-11-08T17:00:00	2	Temperatura media	14.3
9406	7	Sololá	701	Sololá	2	El tablón	12	Diciembre	2023-12-22T00:00:00	2024-11-08T17:00:00	4	Temperatura máxima	16.4
9407	7	Sololá	701	Sololá	2	El tablón	12	Diciembre	2023-12-22T00:00:00	2024-11-08T17:00:00	3	Temperatura mínima	14.3
9408	7	Sololá	701	Sololá	2	El tablón	12	Diciembre	2023-12-22T00:00:00	2024-11-08T17:00:00	5	Humedad	78
9409	7	Sololá	701	Sololá	2	El tablón	12	Diciembre	2023-12-22T00:00:00	2024-11-08T17:00:00	6	Velocidad del viento	9.7
9410	7	Sololá	701	Sololá	2	El tablón	12	Diciembre	2023-12-22T00:00:00	2024-11-08T17:00:00	7	Dirección del viento	9.66
9411	7	Sololá	701	Sololá	2	El tablón	12	Diciembre	2023-12-22T00:00:00	2024-11-08T17:00:00	1	Precipitación	0
9412	7	Sololá	701	Sololá	2	El tablón	12	Diciembre	2023-12-22T00:00:00	2024-11-08T17:00:00	8	Radiación solar	100
9413	7	Sololá	701	Sololá	2	El tablón	12	Diciembre	2023-12-22T00:00:00	2024-11-08T18:00:00	2	Temperatura media	12.7
9414	7	Sololá	701	Sololá	2	El tablón	12	Diciembre	2023-12-22T00:00:00	2024-11-08T18:00:00	4	Temperatura máxima	14.4
9415	7	Sololá	701	Sololá	2	El tablón	12	Diciembre	2023-12-22T00:00:00	2024-11-08T18:00:00	3	Temperatura mínima	12.7
9416	7	Sololá	701	Sololá	2	El tablón	12	Diciembre	2023-12-22T00:00:00	2024-11-08T18:00:00	5	Humedad	83
9417	7	Sololá	701	Sololá	2	El tablón	12	Diciembre	2023-12-22T00:00:00	2024-11-08T18:00:00	6	Velocidad del viento	8
9418	7	Sololá	701	Sololá	2	El tablón	12	Diciembre	2023-12-22T00:00:00	2024-11-08T18:00:00	7	Dirección del viento	8.05
9419	7	Sololá	701	Sololá	2	El tablón	12	Diciembre	2023-12-22T00:00:00	2024-11-08T18:00:00	1	Precipitación	0
9420	7	Sololá	701	Sololá	2	El tablón	12	Diciembre	2023-12-22T00:00:00	2024-11-08T18:00:00	8	Radiación solar	32
9421	7	Sololá	701	Sololá	2	El tablón	12	Diciembre	2023-12-22T00:00:00	2024-11-08T19:00:00	2	Temperatura media	11.8
9422	7	Sololá	701	Sololá	2	El tablón	12	Diciembre	2023-12-22T00:00:00	2024-11-08T19:00:00	4	Temperatura máxima	12.7
9423	7	Sololá	701	Sololá	2	El tablón	12	Diciembre	2023-12-22T00:00:00	2024-11-08T19:00:00	3	Temperatura mínima	11.8
9424	7	Sololá	701	Sololá	2	El tablón	12	Diciembre	2023-12-22T00:00:00	2024-11-08T19:00:00	5	Humedad	86
9425	7	Sololá	701	Sololá	2	El tablón	12	Diciembre	2023-12-22T00:00:00	2024-11-08T19:00:00	6	Velocidad del viento	8
9426	7	Sololá	701	Sololá	2	El tablón	12	Diciembre	2023-12-22T00:00:00	2024-11-08T19:00:00	7	Dirección del viento	8.05
9427	7	Sololá	701	Sololá	2	El tablón	12	Diciembre	2023-12-22T00:00:00	2024-11-08T19:00:00	1	Precipitación	0
9428	7	Sololá	701	Sololá	2	El tablón	12	Diciembre	2023-12-22T00:00:00	2024-11-08T19:00:00	8	Radiación solar	0
9429	7	Sololá	701	Sololá	2	El tablón	12	Diciembre	2023-12-22T00:00:00	2024-11-08T20:00:00	2	Temperatura media	11.7
9430	7	Sololá	701	Sololá	2	El tablón	12	Diciembre	2023-12-22T00:00:00	2024-11-08T20:00:00	4	Temperatura máxima	12.1
9431	7	Sololá	701	Sololá	2	El tablón	12	Diciembre	2023-12-22T00:00:00	2024-11-08T20:00:00	3	Temperatura mínima	11.7
9432	7	Sololá	701	Sololá	2	El tablón	12	Diciembre	2023-12-22T00:00:00	2024-11-08T20:00:00	5	Humedad	87
9433	7	Sololá	701	Sololá	2	El tablón	12	Diciembre	2023-12-22T00:00:00	2024-11-08T20:00:00	6	Velocidad del viento	9.7
9434	7	Sololá	701	Sololá	2	El tablón	12	Diciembre	2023-12-22T00:00:00	2024-11-08T20:00:00	7	Dirección del viento	9.66
9435	7	Sololá	701	Sololá	2	El tablón	12	Diciembre	2023-12-22T00:00:00	2024-11-08T20:00:00	1	Precipitación	0
9436	7	Sololá	701	Sololá	2	El tablón	12	Diciembre	2023-12-22T00:00:00	2024-11-08T20:00:00	8	Radiación solar	0
9437	7	Sololá	701	Sololá	2	El tablón	12	Diciembre	2023-12-22T00:00:00	2024-11-08T21:00:00	2	Temperatura media	11.7
9438	7	Sololá	701	Sololá	2	El tablón	12	Diciembre	2023-12-22T00:00:00	2024-11-08T21:00:00	4	Temperatura máxima	11.8
9439	7	Sololá	701	Sololá	2	El tablón	12	Diciembre	2023-12-22T00:00:00	2024-11-08T21:00:00	3	Temperatura mínima	11.7
9440	7	Sololá	701	Sololá	2	El tablón	12	Diciembre	2023-12-22T00:00:00	2024-11-08T21:00:00	5	Humedad	86
9441	7	Sololá	701	Sololá	2	El tablón	12	Diciembre	2023-12-22T00:00:00	2024-11-08T21:00:00	6	Velocidad del viento	9.7
9442	7	Sololá	701	Sololá	2	El tablón	12	Diciembre	2023-12-22T00:00:00	2024-11-08T21:00:00	7	Dirección del viento	9.66
9443	7	Sololá	701	Sololá	2	El tablón	12	Diciembre	2023-12-22T00:00:00	2024-11-08T21:00:00	1	Precipitación	0
9444	7	Sololá	701	Sololá	2	El tablón	12	Diciembre	2023-12-22T00:00:00	2024-11-08T21:00:00	8	Radiación solar	0
9445	7	Sololá	701	Sololá	2	El tablón	12	Diciembre	2023-12-22T00:00:00	2024-11-08T22:00:00	2	Temperatura media	11.8
9446	7	Sololá	701	Sololá	2	El tablón	12	Diciembre	2023-12-22T00:00:00	2024-11-08T22:00:00	4	Temperatura máxima	11.8
9447	7	Sololá	701	Sololá	2	El tablón	12	Diciembre	2023-12-22T00:00:00	2024-11-08T22:00:00	3	Temperatura mínima	11.6
9448	7	Sololá	701	Sololá	2	El tablón	12	Diciembre	2023-12-22T00:00:00	2024-11-08T22:00:00	5	Humedad	86
9449	7	Sololá	701	Sololá	2	El tablón	12	Diciembre	2023-12-22T00:00:00	2024-11-08T22:00:00	6	Velocidad del viento	8
9450	7	Sololá	701	Sololá	2	El tablón	12	Diciembre	2023-12-22T00:00:00	2024-11-08T22:00:00	7	Dirección del viento	8.05
9451	7	Sololá	701	Sololá	2	El tablón	12	Diciembre	2023-12-22T00:00:00	2024-11-08T22:00:00	1	Precipitación	0
9452	7	Sololá	701	Sololá	2	El tablón	12	Diciembre	2023-12-22T00:00:00	2024-11-08T22:00:00	8	Radiación solar	0
9453	7	Sololá	701	Sololá	2	El tablón	12	Diciembre	2023-12-22T00:00:00	2024-11-08T23:00:00	2	Temperatura media	12.3
9454	7	Sololá	701	Sololá	2	El tablón	12	Diciembre	2023-12-22T00:00:00	2024-11-08T23:00:00	4	Temperatura máxima	12.3
9455	7	Sololá	701	Sololá	2	El tablón	12	Diciembre	2023-12-22T00:00:00	2024-11-08T23:00:00	3	Temperatura mínima	11.8
9456	7	Sololá	701	Sololá	2	El tablón	12	Diciembre	2023-12-22T00:00:00	2024-11-08T23:00:00	5	Humedad	84
9457	7	Sololá	701	Sololá	2	El tablón	12	Diciembre	2023-12-22T00:00:00	2024-11-08T23:00:00	6	Velocidad del viento	8
9458	7	Sololá	701	Sololá	2	El tablón	12	Diciembre	2023-12-22T00:00:00	2024-11-08T23:00:00	7	Dirección del viento	8.05
9459	7	Sololá	701	Sololá	2	El tablón	12	Diciembre	2023-12-22T00:00:00	2024-11-08T23:00:00	1	Precipitación	0
9460	7	Sololá	701	Sololá	2	El tablón	12	Diciembre	2023-12-22T00:00:00	2024-11-08T23:00:00	8	Radiación solar	0
9461	7	Sololá	701	Sololá	2	El tablón	12	Diciembre	2023-12-23T00:00:00	2024-11-08T00:00:00	2	Temperatura media	11.9
9462	7	Sololá	701	Sololá	2	El tablón	12	Diciembre	2023-12-23T00:00:00	2024-11-08T00:00:00	4	Temperatura máxima	12.3
9463	7	Sololá	701	Sololá	2	El tablón	12	Diciembre	2023-12-23T00:00:00	2024-11-08T00:00:00	3	Temperatura mínima	11.9
9464	7	Sololá	701	Sololá	2	El tablón	12	Diciembre	2023-12-23T00:00:00	2024-11-08T00:00:00	5	Humedad	84
9465	7	Sololá	701	Sololá	2	El tablón	12	Diciembre	2023-12-23T00:00:00	2024-11-08T00:00:00	6	Velocidad del viento	8
9466	7	Sololá	701	Sololá	2	El tablón	12	Diciembre	2023-12-23T00:00:00	2024-11-08T00:00:00	7	Dirección del viento	8.05
9467	7	Sololá	701	Sololá	2	El tablón	12	Diciembre	2023-12-23T00:00:00	2024-11-08T00:00:00	1	Precipitación	0
9468	7	Sololá	701	Sololá	2	El tablón	12	Diciembre	2023-12-23T00:00:00	2024-11-08T00:00:00	8	Radiación solar	0
9469	7	Sololá	701	Sololá	2	El tablón	12	Diciembre	2023-12-23T00:00:00	2024-11-08T01:00:00	2	Temperatura media	11.1
9470	7	Sololá	701	Sololá	2	El tablón	12	Diciembre	2023-12-23T00:00:00	2024-11-08T01:00:00	4	Temperatura máxima	11.9
9471	7	Sololá	701	Sololá	2	El tablón	12	Diciembre	2023-12-23T00:00:00	2024-11-08T01:00:00	3	Temperatura mínima	11.1
9472	7	Sololá	701	Sololá	2	El tablón	12	Diciembre	2023-12-23T00:00:00	2024-11-08T01:00:00	5	Humedad	87
9473	7	Sololá	701	Sololá	2	El tablón	12	Diciembre	2023-12-23T00:00:00	2024-11-08T01:00:00	6	Velocidad del viento	6.4
9474	7	Sololá	701	Sololá	2	El tablón	12	Diciembre	2023-12-23T00:00:00	2024-11-08T01:00:00	7	Dirección del viento	6.44
9475	7	Sololá	701	Sololá	2	El tablón	12	Diciembre	2023-12-23T00:00:00	2024-11-08T01:00:00	1	Precipitación	0
9476	7	Sololá	701	Sololá	2	El tablón	12	Diciembre	2023-12-23T00:00:00	2024-11-08T01:00:00	8	Radiación solar	0
9477	7	Sololá	701	Sololá	2	El tablón	12	Diciembre	2023-12-23T00:00:00	2024-11-08T02:00:00	2	Temperatura media	10.5
9478	7	Sololá	701	Sololá	2	El tablón	12	Diciembre	2023-12-23T00:00:00	2024-11-08T02:00:00	4	Temperatura máxima	11.1
9479	7	Sololá	701	Sololá	2	El tablón	12	Diciembre	2023-12-23T00:00:00	2024-11-08T02:00:00	3	Temperatura mínima	10.5
9480	7	Sololá	701	Sololá	2	El tablón	12	Diciembre	2023-12-23T00:00:00	2024-11-08T02:00:00	5	Humedad	88
9481	7	Sololá	701	Sololá	2	El tablón	12	Diciembre	2023-12-23T00:00:00	2024-11-08T02:00:00	6	Velocidad del viento	8
9482	7	Sololá	701	Sololá	2	El tablón	12	Diciembre	2023-12-23T00:00:00	2024-11-08T02:00:00	7	Dirección del viento	8.05
9483	7	Sololá	701	Sololá	2	El tablón	12	Diciembre	2023-12-23T00:00:00	2024-11-08T02:00:00	1	Precipitación	0
9484	7	Sololá	701	Sololá	2	El tablón	12	Diciembre	2023-12-23T00:00:00	2024-11-08T02:00:00	8	Radiación solar	0
9485	7	Sololá	701	Sololá	2	El tablón	12	Diciembre	2023-12-23T00:00:00	2024-11-08T03:00:00	2	Temperatura media	10.4
9486	7	Sololá	701	Sololá	2	El tablón	12	Diciembre	2023-12-23T00:00:00	2024-11-08T03:00:00	4	Temperatura máxima	10.6
9487	7	Sololá	701	Sololá	2	El tablón	12	Diciembre	2023-12-23T00:00:00	2024-11-08T03:00:00	3	Temperatura mínima	10.4
9488	7	Sololá	701	Sololá	2	El tablón	12	Diciembre	2023-12-23T00:00:00	2024-11-08T03:00:00	5	Humedad	88
9489	7	Sololá	701	Sololá	2	El tablón	12	Diciembre	2023-12-23T00:00:00	2024-11-08T03:00:00	6	Velocidad del viento	8
9490	7	Sololá	701	Sololá	2	El tablón	12	Diciembre	2023-12-23T00:00:00	2024-11-08T03:00:00	7	Dirección del viento	8.05
9491	7	Sololá	701	Sololá	2	El tablón	12	Diciembre	2023-12-23T00:00:00	2024-11-08T03:00:00	1	Precipitación	0
9492	7	Sololá	701	Sololá	2	El tablón	12	Diciembre	2023-12-23T00:00:00	2024-11-08T03:00:00	8	Radiación solar	0
9493	7	Sololá	701	Sololá	2	El tablón	12	Diciembre	2023-12-23T00:00:00	2024-11-08T04:00:00	2	Temperatura media	9.9
9494	7	Sololá	701	Sololá	2	El tablón	12	Diciembre	2023-12-23T00:00:00	2024-11-08T04:00:00	4	Temperatura máxima	10.4
9495	7	Sololá	701	Sololá	2	El tablón	12	Diciembre	2023-12-23T00:00:00	2024-11-08T04:00:00	3	Temperatura mínima	9.9
9496	7	Sololá	701	Sololá	2	El tablón	12	Diciembre	2023-12-23T00:00:00	2024-11-08T04:00:00	5	Humedad	88
9497	7	Sololá	701	Sololá	2	El tablón	12	Diciembre	2023-12-23T00:00:00	2024-11-08T04:00:00	6	Velocidad del viento	6.4
9498	7	Sololá	701	Sololá	2	El tablón	12	Diciembre	2023-12-23T00:00:00	2024-11-08T04:00:00	7	Dirección del viento	6.44
9499	7	Sololá	701	Sololá	2	El tablón	12	Diciembre	2023-12-23T00:00:00	2024-11-08T04:00:00	1	Precipitación	0
9500	7	Sololá	701	Sololá	2	El tablón	12	Diciembre	2023-12-23T00:00:00	2024-11-08T04:00:00	8	Radiación solar	0
9501	7	Sololá	701	Sololá	2	El tablón	12	Diciembre	2023-12-23T00:00:00	2024-11-08T05:00:00	2	Temperatura media	10.1
9502	7	Sololá	701	Sololá	2	El tablón	12	Diciembre	2023-12-23T00:00:00	2024-11-08T05:00:00	4	Temperatura máxima	10.2
9503	7	Sololá	701	Sololá	2	El tablón	12	Diciembre	2023-12-23T00:00:00	2024-11-08T05:00:00	3	Temperatura mínima	9.8
9504	7	Sololá	701	Sololá	2	El tablón	12	Diciembre	2023-12-23T00:00:00	2024-11-08T05:00:00	5	Humedad	89
9505	7	Sololá	701	Sololá	2	El tablón	12	Diciembre	2023-12-23T00:00:00	2024-11-08T05:00:00	6	Velocidad del viento	8
9506	7	Sololá	701	Sololá	2	El tablón	12	Diciembre	2023-12-23T00:00:00	2024-11-08T05:00:00	7	Dirección del viento	8.05
9507	7	Sololá	701	Sololá	2	El tablón	12	Diciembre	2023-12-23T00:00:00	2024-11-08T05:00:00	1	Precipitación	0
9508	7	Sololá	701	Sololá	2	El tablón	12	Diciembre	2023-12-23T00:00:00	2024-11-08T05:00:00	8	Radiación solar	0
9509	7	Sololá	701	Sololá	2	El tablón	12	Diciembre	2023-12-23T00:00:00	2024-11-08T06:00:00	2	Temperatura media	10
9510	7	Sololá	701	Sololá	2	El tablón	12	Diciembre	2023-12-23T00:00:00	2024-11-08T06:00:00	4	Temperatura máxima	10.1
9511	7	Sololá	701	Sololá	2	El tablón	12	Diciembre	2023-12-23T00:00:00	2024-11-08T06:00:00	3	Temperatura mínima	9.9
9512	7	Sololá	701	Sololá	2	El tablón	12	Diciembre	2023-12-23T00:00:00	2024-11-08T06:00:00	5	Humedad	89
9513	7	Sololá	701	Sololá	2	El tablón	12	Diciembre	2023-12-23T00:00:00	2024-11-08T06:00:00	6	Velocidad del viento	9.7
9514	7	Sololá	701	Sololá	2	El tablón	12	Diciembre	2023-12-23T00:00:00	2024-11-08T06:00:00	7	Dirección del viento	9.66
9515	7	Sololá	701	Sololá	2	El tablón	12	Diciembre	2023-12-23T00:00:00	2024-11-08T06:00:00	1	Precipitación	0
9516	7	Sololá	701	Sololá	2	El tablón	12	Diciembre	2023-12-23T00:00:00	2024-11-08T06:00:00	8	Radiación solar	0
9517	7	Sololá	701	Sololá	2	El tablón	12	Diciembre	2023-12-23T00:00:00	2024-11-08T07:00:00	2	Temperatura media	10.3
9518	7	Sololá	701	Sololá	2	El tablón	12	Diciembre	2023-12-23T00:00:00	2024-11-08T07:00:00	4	Temperatura máxima	10.3
9519	7	Sololá	701	Sololá	2	El tablón	12	Diciembre	2023-12-23T00:00:00	2024-11-08T07:00:00	3	Temperatura mínima	9.9
9520	7	Sololá	701	Sololá	2	El tablón	12	Diciembre	2023-12-23T00:00:00	2024-11-08T07:00:00	5	Humedad	89
9521	7	Sololá	701	Sololá	2	El tablón	12	Diciembre	2023-12-23T00:00:00	2024-11-08T07:00:00	6	Velocidad del viento	9.7
9522	7	Sololá	701	Sololá	2	El tablón	12	Diciembre	2023-12-23T00:00:00	2024-11-08T07:00:00	7	Dirección del viento	9.66
9523	7	Sololá	701	Sololá	2	El tablón	12	Diciembre	2023-12-23T00:00:00	2024-11-08T07:00:00	1	Precipitación	0
9524	7	Sololá	701	Sololá	2	El tablón	12	Diciembre	2023-12-23T00:00:00	2024-11-08T07:00:00	8	Radiación solar	9
9525	7	Sololá	701	Sololá	2	El tablón	12	Diciembre	2023-12-23T00:00:00	2024-11-08T08:00:00	2	Temperatura media	12.3
9526	7	Sololá	701	Sololá	2	El tablón	12	Diciembre	2023-12-23T00:00:00	2024-11-08T08:00:00	4	Temperatura máxima	12.3
9527	7	Sololá	701	Sololá	2	El tablón	12	Diciembre	2023-12-23T00:00:00	2024-11-08T08:00:00	3	Temperatura mínima	10.3
9528	7	Sololá	701	Sololá	2	El tablón	12	Diciembre	2023-12-23T00:00:00	2024-11-08T08:00:00	5	Humedad	85
9529	7	Sololá	701	Sololá	2	El tablón	12	Diciembre	2023-12-23T00:00:00	2024-11-08T08:00:00	6	Velocidad del viento	6.4
9530	7	Sololá	701	Sololá	2	El tablón	12	Diciembre	2023-12-23T00:00:00	2024-11-08T08:00:00	7	Dirección del viento	6.44
9531	7	Sololá	701	Sololá	2	El tablón	12	Diciembre	2023-12-23T00:00:00	2024-11-08T08:00:00	1	Precipitación	0
9532	7	Sololá	701	Sololá	2	El tablón	12	Diciembre	2023-12-23T00:00:00	2024-11-08T08:00:00	8	Radiación solar	138
9533	7	Sololá	701	Sololá	2	El tablón	12	Diciembre	2023-12-23T00:00:00	2024-11-08T09:00:00	2	Temperatura media	14.5
9534	7	Sololá	701	Sololá	2	El tablón	12	Diciembre	2023-12-23T00:00:00	2024-11-08T09:00:00	4	Temperatura máxima	14.7
9535	7	Sololá	701	Sololá	2	El tablón	12	Diciembre	2023-12-23T00:00:00	2024-11-08T09:00:00	3	Temperatura mínima	12.3
9536	7	Sololá	701	Sololá	2	El tablón	12	Diciembre	2023-12-23T00:00:00	2024-11-08T09:00:00	5	Humedad	79
9537	7	Sololá	701	Sololá	2	El tablón	12	Diciembre	2023-12-23T00:00:00	2024-11-08T09:00:00	6	Velocidad del viento	6.4
9538	7	Sololá	701	Sololá	2	El tablón	12	Diciembre	2023-12-23T00:00:00	2024-11-08T09:00:00	7	Dirección del viento	6.44
9539	7	Sololá	701	Sololá	2	El tablón	12	Diciembre	2023-12-23T00:00:00	2024-11-08T09:00:00	1	Precipitación	0
9540	7	Sololá	701	Sololá	2	El tablón	12	Diciembre	2023-12-23T00:00:00	2024-11-08T09:00:00	8	Radiación solar	362
9541	7	Sololá	701	Sololá	2	El tablón	12	Diciembre	2023-12-23T00:00:00	2024-11-08T10:00:00	2	Temperatura media	17.6
9542	7	Sololá	701	Sololá	2	El tablón	12	Diciembre	2023-12-23T00:00:00	2024-11-08T10:00:00	4	Temperatura máxima	17.6
9543	7	Sololá	701	Sololá	2	El tablón	12	Diciembre	2023-12-23T00:00:00	2024-11-08T10:00:00	3	Temperatura mínima	14.5
9544	7	Sololá	701	Sololá	2	El tablón	12	Diciembre	2023-12-23T00:00:00	2024-11-08T10:00:00	5	Humedad	67
9545	7	Sololá	701	Sololá	2	El tablón	12	Diciembre	2023-12-23T00:00:00	2024-11-08T10:00:00	6	Velocidad del viento	4.8
9546	7	Sololá	701	Sololá	2	El tablón	12	Diciembre	2023-12-23T00:00:00	2024-11-08T10:00:00	7	Dirección del viento	4.83
9547	7	Sololá	701	Sololá	2	El tablón	12	Diciembre	2023-12-23T00:00:00	2024-11-08T10:00:00	1	Precipitación	0
9548	7	Sololá	701	Sololá	2	El tablón	12	Diciembre	2023-12-23T00:00:00	2024-11-08T10:00:00	8	Radiación solar	548
9549	7	Sololá	701	Sololá	2	El tablón	12	Diciembre	2023-12-23T00:00:00	2024-11-08T11:00:00	2	Temperatura media	17.7
9550	7	Sololá	701	Sololá	2	El tablón	12	Diciembre	2023-12-23T00:00:00	2024-11-08T11:00:00	4	Temperatura máxima	18.7
9551	7	Sololá	701	Sololá	2	El tablón	12	Diciembre	2023-12-23T00:00:00	2024-11-08T11:00:00	3	Temperatura mínima	17.3
9552	7	Sololá	701	Sololá	2	El tablón	12	Diciembre	2023-12-23T00:00:00	2024-11-08T11:00:00	5	Humedad	68
9553	7	Sololá	701	Sololá	2	El tablón	12	Diciembre	2023-12-23T00:00:00	2024-11-08T11:00:00	6	Velocidad del viento	4.8
9554	7	Sololá	701	Sololá	2	El tablón	12	Diciembre	2023-12-23T00:00:00	2024-11-08T11:00:00	7	Dirección del viento	4.83
9555	7	Sololá	701	Sololá	2	El tablón	12	Diciembre	2023-12-23T00:00:00	2024-11-08T11:00:00	1	Precipitación	0
9556	7	Sololá	701	Sololá	2	El tablón	12	Diciembre	2023-12-23T00:00:00	2024-11-08T11:00:00	8	Radiación solar	605
9557	7	Sololá	701	Sololá	2	El tablón	12	Diciembre	2023-12-23T00:00:00	2024-11-08T12:00:00	2	Temperatura media	18.5
9558	7	Sololá	701	Sololá	2	El tablón	12	Diciembre	2023-12-23T00:00:00	2024-11-08T12:00:00	4	Temperatura máxima	18.5
9559	7	Sololá	701	Sololá	2	El tablón	12	Diciembre	2023-12-23T00:00:00	2024-11-08T12:00:00	3	Temperatura mínima	17.2
9560	7	Sololá	701	Sololá	2	El tablón	12	Diciembre	2023-12-23T00:00:00	2024-11-08T12:00:00	5	Humedad	68
9561	7	Sololá	701	Sololá	2	El tablón	12	Diciembre	2023-12-23T00:00:00	2024-11-08T12:00:00	6	Velocidad del viento	4.8
9562	7	Sololá	701	Sololá	2	El tablón	12	Diciembre	2023-12-23T00:00:00	2024-11-08T12:00:00	7	Dirección del viento	4.83
9563	7	Sololá	701	Sololá	2	El tablón	12	Diciembre	2023-12-23T00:00:00	2024-11-08T12:00:00	1	Precipitación	0
9564	7	Sololá	701	Sololá	2	El tablón	12	Diciembre	2023-12-23T00:00:00	2024-11-08T12:00:00	8	Radiación solar	499
9565	7	Sololá	701	Sololá	2	El tablón	12	Diciembre	2023-12-23T00:00:00	2024-11-08T13:00:00	2	Temperatura media	18.8
9566	7	Sololá	701	Sololá	2	El tablón	12	Diciembre	2023-12-23T00:00:00	2024-11-08T13:00:00	4	Temperatura máxima	19.4
9567	7	Sololá	701	Sololá	2	El tablón	12	Diciembre	2023-12-23T00:00:00	2024-11-08T13:00:00	3	Temperatura mínima	18.5
9568	7	Sololá	701	Sololá	2	El tablón	12	Diciembre	2023-12-23T00:00:00	2024-11-08T13:00:00	5	Humedad	65
9569	7	Sololá	701	Sololá	2	El tablón	12	Diciembre	2023-12-23T00:00:00	2024-11-08T13:00:00	6	Velocidad del viento	4.8
9570	7	Sololá	701	Sololá	2	El tablón	12	Diciembre	2023-12-23T00:00:00	2024-11-08T13:00:00	7	Dirección del viento	4.83
9571	7	Sololá	701	Sololá	2	El tablón	12	Diciembre	2023-12-23T00:00:00	2024-11-08T13:00:00	1	Precipitación	0
9572	7	Sololá	701	Sololá	2	El tablón	12	Diciembre	2023-12-23T00:00:00	2024-11-08T13:00:00	8	Radiación solar	737
9573	7	Sololá	701	Sololá	2	El tablón	12	Diciembre	2023-12-23T00:00:00	2024-11-08T14:00:00	2	Temperatura media	17.2
9574	7	Sololá	701	Sololá	2	El tablón	12	Diciembre	2023-12-23T00:00:00	2024-11-08T14:00:00	4	Temperatura máxima	18.8
9575	7	Sololá	701	Sololá	2	El tablón	12	Diciembre	2023-12-23T00:00:00	2024-11-08T14:00:00	3	Temperatura mínima	17.2
9576	7	Sololá	701	Sololá	2	El tablón	12	Diciembre	2023-12-23T00:00:00	2024-11-08T14:00:00	5	Humedad	80
9577	7	Sololá	701	Sololá	2	El tablón	12	Diciembre	2023-12-23T00:00:00	2024-11-08T14:00:00	6	Velocidad del viento	6.4
9578	7	Sololá	701	Sololá	2	El tablón	12	Diciembre	2023-12-23T00:00:00	2024-11-08T14:00:00	7	Dirección del viento	6.44
9579	7	Sololá	701	Sololá	2	El tablón	12	Diciembre	2023-12-23T00:00:00	2024-11-08T14:00:00	1	Precipitación	0
9580	7	Sololá	701	Sololá	2	El tablón	12	Diciembre	2023-12-23T00:00:00	2024-11-08T14:00:00	8	Radiación solar	267
9581	7	Sololá	701	Sololá	2	El tablón	12	Diciembre	2023-12-23T00:00:00	2024-11-08T15:00:00	2	Temperatura media	15.8
9582	7	Sololá	701	Sololá	2	El tablón	12	Diciembre	2023-12-23T00:00:00	2024-11-08T15:00:00	4	Temperatura máxima	17.2
9583	7	Sololá	701	Sololá	2	El tablón	12	Diciembre	2023-12-23T00:00:00	2024-11-08T15:00:00	3	Temperatura mínima	15.8
9584	7	Sololá	701	Sololá	2	El tablón	12	Diciembre	2023-12-23T00:00:00	2024-11-08T15:00:00	5	Humedad	79
9585	7	Sololá	701	Sololá	2	El tablón	12	Diciembre	2023-12-23T00:00:00	2024-11-08T15:00:00	6	Velocidad del viento	4.8
9586	7	Sololá	701	Sololá	2	El tablón	12	Diciembre	2023-12-23T00:00:00	2024-11-08T15:00:00	7	Dirección del viento	4.83
9587	7	Sololá	701	Sololá	2	El tablón	12	Diciembre	2023-12-23T00:00:00	2024-11-08T15:00:00	1	Precipitación	0
9588	7	Sololá	701	Sololá	2	El tablón	12	Diciembre	2023-12-23T00:00:00	2024-11-08T15:00:00	8	Radiación solar	149
9589	7	Sololá	701	Sololá	2	El tablón	12	Diciembre	2023-12-23T00:00:00	2024-11-08T16:00:00	2	Temperatura media	15.1
9590	7	Sololá	701	Sololá	2	El tablón	12	Diciembre	2023-12-23T00:00:00	2024-11-08T16:00:00	4	Temperatura máxima	15.8
9591	7	Sololá	701	Sololá	2	El tablón	12	Diciembre	2023-12-23T00:00:00	2024-11-08T16:00:00	3	Temperatura mínima	15.1
9592	7	Sololá	701	Sololá	2	El tablón	12	Diciembre	2023-12-23T00:00:00	2024-11-08T16:00:00	5	Humedad	81
9593	7	Sololá	701	Sololá	2	El tablón	12	Diciembre	2023-12-23T00:00:00	2024-11-08T16:00:00	6	Velocidad del viento	3.2
9594	7	Sololá	701	Sololá	2	El tablón	12	Diciembre	2023-12-23T00:00:00	2024-11-08T16:00:00	7	Dirección del viento	3.22
9595	7	Sololá	701	Sololá	2	El tablón	12	Diciembre	2023-12-23T00:00:00	2024-11-08T16:00:00	1	Precipitación	0
9596	7	Sololá	701	Sololá	2	El tablón	12	Diciembre	2023-12-23T00:00:00	2024-11-08T16:00:00	8	Radiación solar	71
9597	7	Sololá	701	Sololá	2	El tablón	12	Diciembre	2023-12-23T00:00:00	2024-11-08T17:00:00	2	Temperatura media	13.8
9598	7	Sololá	701	Sololá	2	El tablón	12	Diciembre	2023-12-23T00:00:00	2024-11-08T17:00:00	4	Temperatura máxima	15.1
9599	7	Sololá	701	Sololá	2	El tablón	12	Diciembre	2023-12-23T00:00:00	2024-11-08T17:00:00	3	Temperatura mínima	13.8
9600	7	Sololá	701	Sololá	2	El tablón	12	Diciembre	2023-12-23T00:00:00	2024-11-08T17:00:00	5	Humedad	85
9601	7	Sololá	701	Sololá	2	El tablón	12	Diciembre	2023-12-23T00:00:00	2024-11-08T17:00:00	6	Velocidad del viento	4.8
9602	7	Sololá	701	Sololá	2	El tablón	12	Diciembre	2023-12-23T00:00:00	2024-11-08T17:00:00	7	Dirección del viento	4.83
9603	7	Sololá	701	Sololá	2	El tablón	12	Diciembre	2023-12-23T00:00:00	2024-11-08T17:00:00	1	Precipitación	0
9604	7	Sololá	701	Sololá	2	El tablón	12	Diciembre	2023-12-23T00:00:00	2024-11-08T17:00:00	8	Radiación solar	43
9605	7	Sololá	701	Sololá	2	El tablón	12	Diciembre	2023-12-23T00:00:00	2024-11-08T18:00:00	2	Temperatura media	12.8
9606	7	Sololá	701	Sololá	2	El tablón	12	Diciembre	2023-12-23T00:00:00	2024-11-08T18:00:00	4	Temperatura máxima	13.9
9607	7	Sololá	701	Sololá	2	El tablón	12	Diciembre	2023-12-23T00:00:00	2024-11-08T18:00:00	3	Temperatura mínima	12.8
9608	7	Sololá	701	Sololá	2	El tablón	12	Diciembre	2023-12-23T00:00:00	2024-11-08T18:00:00	5	Humedad	87
9609	7	Sololá	701	Sololá	2	El tablón	12	Diciembre	2023-12-23T00:00:00	2024-11-08T18:00:00	6	Velocidad del viento	4.8
9610	7	Sololá	701	Sololá	2	El tablón	12	Diciembre	2023-12-23T00:00:00	2024-11-08T18:00:00	7	Dirección del viento	4.83
9611	7	Sololá	701	Sololá	2	El tablón	12	Diciembre	2023-12-23T00:00:00	2024-11-08T18:00:00	1	Precipitación	0
9612	7	Sololá	701	Sololá	2	El tablón	12	Diciembre	2023-12-23T00:00:00	2024-11-08T18:00:00	8	Radiación solar	10
9613	7	Sololá	701	Sololá	2	El tablón	12	Diciembre	2023-12-23T00:00:00	2024-11-08T19:00:00	2	Temperatura media	12.2
9614	7	Sololá	701	Sololá	2	El tablón	12	Diciembre	2023-12-23T00:00:00	2024-11-08T19:00:00	4	Temperatura máxima	12.8
9615	7	Sololá	701	Sololá	2	El tablón	12	Diciembre	2023-12-23T00:00:00	2024-11-08T19:00:00	3	Temperatura mínima	12.1
9616	7	Sololá	701	Sololá	2	El tablón	12	Diciembre	2023-12-23T00:00:00	2024-11-08T19:00:00	5	Humedad	88
9617	7	Sololá	701	Sololá	2	El tablón	12	Diciembre	2023-12-23T00:00:00	2024-11-08T19:00:00	6	Velocidad del viento	6.4
9618	7	Sololá	701	Sololá	2	El tablón	12	Diciembre	2023-12-23T00:00:00	2024-11-08T19:00:00	7	Dirección del viento	6.44
9619	7	Sololá	701	Sololá	2	El tablón	12	Diciembre	2023-12-23T00:00:00	2024-11-08T19:00:00	1	Precipitación	0
9620	7	Sololá	701	Sololá	2	El tablón	12	Diciembre	2023-12-23T00:00:00	2024-11-08T19:00:00	8	Radiación solar	0
9621	7	Sololá	701	Sololá	2	El tablón	12	Diciembre	2023-12-23T00:00:00	2024-11-08T20:00:00	2	Temperatura media	12.3
9622	7	Sololá	701	Sololá	2	El tablón	12	Diciembre	2023-12-23T00:00:00	2024-11-08T20:00:00	4	Temperatura máxima	12.3
9623	7	Sololá	701	Sololá	2	El tablón	12	Diciembre	2023-12-23T00:00:00	2024-11-08T20:00:00	3	Temperatura mínima	12.1
9624	7	Sololá	701	Sololá	2	El tablón	12	Diciembre	2023-12-23T00:00:00	2024-11-08T20:00:00	5	Humedad	87
9625	7	Sololá	701	Sololá	2	El tablón	12	Diciembre	2023-12-23T00:00:00	2024-11-08T20:00:00	6	Velocidad del viento	8
9626	7	Sololá	701	Sololá	2	El tablón	12	Diciembre	2023-12-23T00:00:00	2024-11-08T20:00:00	7	Dirección del viento	8.05
9627	7	Sololá	701	Sololá	2	El tablón	12	Diciembre	2023-12-23T00:00:00	2024-11-08T20:00:00	1	Precipitación	0
9628	7	Sololá	701	Sololá	2	El tablón	12	Diciembre	2023-12-23T00:00:00	2024-11-08T20:00:00	8	Radiación solar	0
9629	7	Sololá	701	Sololá	2	El tablón	12	Diciembre	2023-12-23T00:00:00	2024-11-08T21:00:00	2	Temperatura media	11.5
9630	7	Sololá	701	Sololá	2	El tablón	12	Diciembre	2023-12-23T00:00:00	2024-11-08T21:00:00	4	Temperatura máxima	12.3
9631	7	Sololá	701	Sololá	2	El tablón	12	Diciembre	2023-12-23T00:00:00	2024-11-08T21:00:00	3	Temperatura mínima	11.5
9632	7	Sololá	701	Sololá	2	El tablón	12	Diciembre	2023-12-23T00:00:00	2024-11-08T21:00:00	5	Humedad	88
9633	7	Sololá	701	Sololá	2	El tablón	12	Diciembre	2023-12-23T00:00:00	2024-11-08T21:00:00	6	Velocidad del viento	6.4
9634	7	Sololá	701	Sololá	2	El tablón	12	Diciembre	2023-12-23T00:00:00	2024-11-08T21:00:00	7	Dirección del viento	6.44
9635	7	Sololá	701	Sololá	2	El tablón	12	Diciembre	2023-12-23T00:00:00	2024-11-08T21:00:00	1	Precipitación	0
9636	7	Sololá	701	Sololá	2	El tablón	12	Diciembre	2023-12-23T00:00:00	2024-11-08T21:00:00	8	Radiación solar	0
9637	7	Sololá	701	Sololá	2	El tablón	12	Diciembre	2023-12-23T00:00:00	2024-11-08T22:00:00	2	Temperatura media	11.4
9638	7	Sololá	701	Sololá	2	El tablón	12	Diciembre	2023-12-23T00:00:00	2024-11-08T22:00:00	4	Temperatura máxima	11.5
9639	7	Sololá	701	Sololá	2	El tablón	12	Diciembre	2023-12-23T00:00:00	2024-11-08T22:00:00	3	Temperatura mínima	11.2
9640	7	Sololá	701	Sololá	2	El tablón	12	Diciembre	2023-12-23T00:00:00	2024-11-08T22:00:00	5	Humedad	88
9641	7	Sololá	701	Sololá	2	El tablón	12	Diciembre	2023-12-23T00:00:00	2024-11-08T22:00:00	6	Velocidad del viento	4.8
9642	7	Sololá	701	Sololá	2	El tablón	12	Diciembre	2023-12-23T00:00:00	2024-11-08T22:00:00	7	Dirección del viento	4.83
9643	7	Sololá	701	Sololá	2	El tablón	12	Diciembre	2023-12-23T00:00:00	2024-11-08T22:00:00	1	Precipitación	0
9644	7	Sololá	701	Sololá	2	El tablón	12	Diciembre	2023-12-23T00:00:00	2024-11-08T22:00:00	8	Radiación solar	0
9645	7	Sololá	701	Sololá	2	El tablón	12	Diciembre	2023-12-23T00:00:00	2024-11-08T23:00:00	2	Temperatura media	10.6
9646	7	Sololá	701	Sololá	2	El tablón	12	Diciembre	2023-12-23T00:00:00	2024-11-08T23:00:00	4	Temperatura máxima	11.4
9647	7	Sololá	701	Sololá	2	El tablón	12	Diciembre	2023-12-23T00:00:00	2024-11-08T23:00:00	3	Temperatura mínima	10.6
9648	7	Sololá	701	Sololá	2	El tablón	12	Diciembre	2023-12-23T00:00:00	2024-11-08T23:00:00	5	Humedad	88
9649	7	Sololá	701	Sololá	2	El tablón	12	Diciembre	2023-12-23T00:00:00	2024-11-08T23:00:00	6	Velocidad del viento	3.2
9650	7	Sololá	701	Sololá	2	El tablón	12	Diciembre	2023-12-23T00:00:00	2024-11-08T23:00:00	7	Dirección del viento	3.22
9651	7	Sololá	701	Sololá	2	El tablón	12	Diciembre	2023-12-23T00:00:00	2024-11-08T23:00:00	1	Precipitación	0
9652	7	Sololá	701	Sololá	2	El tablón	12	Diciembre	2023-12-23T00:00:00	2024-11-08T23:00:00	8	Radiación solar	0
9653	7	Sololá	701	Sololá	2	El tablón	12	Diciembre	2023-12-24T00:00:00	2024-11-08T00:00:00	2	Temperatura media	11.5
9654	7	Sololá	701	Sololá	2	El tablón	12	Diciembre	2023-12-24T00:00:00	2024-11-08T00:00:00	4	Temperatura máxima	11.5
9655	7	Sololá	701	Sololá	2	El tablón	12	Diciembre	2023-12-24T00:00:00	2024-11-08T00:00:00	3	Temperatura mínima	10.3
9656	7	Sololá	701	Sololá	2	El tablón	12	Diciembre	2023-12-24T00:00:00	2024-11-08T00:00:00	5	Humedad	86
9657	7	Sololá	701	Sololá	2	El tablón	12	Diciembre	2023-12-24T00:00:00	2024-11-08T00:00:00	6	Velocidad del viento	4.8
9658	7	Sololá	701	Sololá	2	El tablón	12	Diciembre	2023-12-24T00:00:00	2024-11-08T00:00:00	7	Dirección del viento	4.83
9659	7	Sololá	701	Sololá	2	El tablón	12	Diciembre	2023-12-24T00:00:00	2024-11-08T00:00:00	1	Precipitación	0
9660	7	Sololá	701	Sololá	2	El tablón	12	Diciembre	2023-12-24T00:00:00	2024-11-08T00:00:00	8	Radiación solar	0
9661	7	Sololá	701	Sololá	2	El tablón	12	Diciembre	2023-12-24T00:00:00	2024-11-08T01:00:00	2	Temperatura media	11.2
9662	7	Sololá	701	Sololá	2	El tablón	12	Diciembre	2023-12-24T00:00:00	2024-11-08T01:00:00	4	Temperatura máxima	11.9
9663	7	Sololá	701	Sololá	2	El tablón	12	Diciembre	2023-12-24T00:00:00	2024-11-08T01:00:00	3	Temperatura mínima	11.2
9664	7	Sololá	701	Sololá	2	El tablón	12	Diciembre	2023-12-24T00:00:00	2024-11-08T01:00:00	5	Humedad	84
9665	7	Sololá	701	Sololá	2	El tablón	12	Diciembre	2023-12-24T00:00:00	2024-11-08T01:00:00	6	Velocidad del viento	1.6
9666	7	Sololá	701	Sololá	2	El tablón	12	Diciembre	2023-12-24T00:00:00	2024-11-08T01:00:00	7	Dirección del viento	1.61
9667	7	Sololá	701	Sololá	2	El tablón	12	Diciembre	2023-12-24T00:00:00	2024-11-08T01:00:00	1	Precipitación	0
9668	7	Sololá	701	Sololá	2	El tablón	12	Diciembre	2023-12-24T00:00:00	2024-11-08T01:00:00	8	Radiación solar	0
9669	7	Sololá	701	Sololá	2	El tablón	12	Diciembre	2023-12-24T00:00:00	2024-11-08T02:00:00	2	Temperatura media	11.1
9670	7	Sololá	701	Sololá	2	El tablón	12	Diciembre	2023-12-24T00:00:00	2024-11-08T02:00:00	4	Temperatura máxima	11.9
9671	7	Sololá	701	Sololá	2	El tablón	12	Diciembre	2023-12-24T00:00:00	2024-11-08T02:00:00	3	Temperatura mínima	11.1
9672	7	Sololá	701	Sololá	2	El tablón	12	Diciembre	2023-12-24T00:00:00	2024-11-08T02:00:00	5	Humedad	83
9673	7	Sololá	701	Sololá	2	El tablón	12	Diciembre	2023-12-24T00:00:00	2024-11-08T02:00:00	6	Velocidad del viento	0
9674	7	Sololá	701	Sololá	2	El tablón	12	Diciembre	2023-12-24T00:00:00	2024-11-08T02:00:00	7	Dirección del viento	0
9675	7	Sololá	701	Sololá	2	El tablón	12	Diciembre	2023-12-24T00:00:00	2024-11-08T02:00:00	1	Precipitación	0
9676	7	Sololá	701	Sololá	2	El tablón	12	Diciembre	2023-12-24T00:00:00	2024-11-08T02:00:00	8	Radiación solar	0
9677	7	Sololá	701	Sololá	2	El tablón	12	Diciembre	2023-12-24T00:00:00	2024-11-08T03:00:00	2	Temperatura media	10.6
9678	7	Sololá	701	Sololá	2	El tablón	12	Diciembre	2023-12-24T00:00:00	2024-11-08T03:00:00	4	Temperatura máxima	11
9679	7	Sololá	701	Sololá	2	El tablón	12	Diciembre	2023-12-24T00:00:00	2024-11-08T03:00:00	3	Temperatura mínima	10.3
9680	7	Sololá	701	Sololá	2	El tablón	12	Diciembre	2023-12-24T00:00:00	2024-11-08T03:00:00	5	Humedad	85
9681	7	Sololá	701	Sololá	2	El tablón	12	Diciembre	2023-12-24T00:00:00	2024-11-08T03:00:00	6	Velocidad del viento	1.6
9682	7	Sololá	701	Sololá	2	El tablón	12	Diciembre	2023-12-24T00:00:00	2024-11-08T03:00:00	7	Dirección del viento	1.61
9683	7	Sololá	701	Sololá	2	El tablón	12	Diciembre	2023-12-24T00:00:00	2024-11-08T03:00:00	1	Precipitación	0
9684	7	Sololá	701	Sololá	2	El tablón	12	Diciembre	2023-12-24T00:00:00	2024-11-08T03:00:00	8	Radiación solar	0
9685	7	Sololá	701	Sololá	2	El tablón	12	Diciembre	2023-12-24T00:00:00	2024-11-08T04:00:00	2	Temperatura media	10.8
9686	7	Sololá	701	Sololá	2	El tablón	12	Diciembre	2023-12-24T00:00:00	2024-11-08T04:00:00	4	Temperatura máxima	10.8
9687	7	Sololá	701	Sololá	2	El tablón	12	Diciembre	2023-12-24T00:00:00	2024-11-08T04:00:00	3	Temperatura mínima	10.3
9688	7	Sololá	701	Sololá	2	El tablón	12	Diciembre	2023-12-24T00:00:00	2024-11-08T04:00:00	5	Humedad	86
9689	7	Sololá	701	Sololá	2	El tablón	12	Diciembre	2023-12-24T00:00:00	2024-11-08T04:00:00	6	Velocidad del viento	0
9690	7	Sololá	701	Sololá	2	El tablón	12	Diciembre	2023-12-24T00:00:00	2024-11-08T04:00:00	7	Dirección del viento	0
9691	7	Sololá	701	Sololá	2	El tablón	12	Diciembre	2023-12-24T00:00:00	2024-11-08T04:00:00	1	Precipitación	0
9692	7	Sololá	701	Sololá	2	El tablón	12	Diciembre	2023-12-24T00:00:00	2024-11-08T04:00:00	8	Radiación solar	0
9693	7	Sololá	701	Sololá	2	El tablón	12	Diciembre	2023-12-24T00:00:00	2024-11-08T05:00:00	2	Temperatura media	10.5
9694	7	Sololá	701	Sololá	2	El tablón	12	Diciembre	2023-12-24T00:00:00	2024-11-08T05:00:00	4	Temperatura máxima	10.9
9695	7	Sololá	701	Sololá	2	El tablón	12	Diciembre	2023-12-24T00:00:00	2024-11-08T05:00:00	3	Temperatura mínima	10.4
9696	7	Sololá	701	Sololá	2	El tablón	12	Diciembre	2023-12-24T00:00:00	2024-11-08T05:00:00	5	Humedad	87
9697	7	Sololá	701	Sololá	2	El tablón	12	Diciembre	2023-12-24T00:00:00	2024-11-08T05:00:00	6	Velocidad del viento	1.6
9698	7	Sololá	701	Sololá	2	El tablón	12	Diciembre	2023-12-24T00:00:00	2024-11-08T05:00:00	7	Dirección del viento	1.61
9699	7	Sololá	701	Sololá	2	El tablón	12	Diciembre	2023-12-24T00:00:00	2024-11-08T05:00:00	1	Precipitación	0
9700	7	Sololá	701	Sololá	2	El tablón	12	Diciembre	2023-12-24T00:00:00	2024-11-08T05:00:00	8	Radiación solar	0
9701	7	Sololá	701	Sololá	2	El tablón	12	Diciembre	2023-12-24T00:00:00	2024-11-08T06:00:00	2	Temperatura media	10.4
9702	7	Sololá	701	Sololá	2	El tablón	12	Diciembre	2023-12-24T00:00:00	2024-11-08T06:00:00	4	Temperatura máxima	10.5
9703	7	Sololá	701	Sololá	2	El tablón	12	Diciembre	2023-12-24T00:00:00	2024-11-08T06:00:00	3	Temperatura mínima	10.1
9704	7	Sololá	701	Sololá	2	El tablón	12	Diciembre	2023-12-24T00:00:00	2024-11-08T06:00:00	5	Humedad	88
9705	7	Sololá	701	Sololá	2	El tablón	12	Diciembre	2023-12-24T00:00:00	2024-11-08T06:00:00	6	Velocidad del viento	3.2
9706	7	Sololá	701	Sololá	2	El tablón	12	Diciembre	2023-12-24T00:00:00	2024-11-08T06:00:00	7	Dirección del viento	3.22
9707	7	Sololá	701	Sololá	2	El tablón	12	Diciembre	2023-12-24T00:00:00	2024-11-08T06:00:00	1	Precipitación	0
9708	7	Sololá	701	Sololá	2	El tablón	12	Diciembre	2023-12-24T00:00:00	2024-11-08T06:00:00	8	Radiación solar	0
9709	7	Sololá	701	Sololá	2	El tablón	12	Diciembre	2023-12-24T00:00:00	2024-11-08T07:00:00	2	Temperatura media	11
9710	7	Sololá	701	Sololá	2	El tablón	12	Diciembre	2023-12-24T00:00:00	2024-11-08T07:00:00	4	Temperatura máxima	11
9711	7	Sololá	701	Sololá	2	El tablón	12	Diciembre	2023-12-24T00:00:00	2024-11-08T07:00:00	3	Temperatura mínima	10.3
9712	7	Sololá	701	Sololá	2	El tablón	12	Diciembre	2023-12-24T00:00:00	2024-11-08T07:00:00	5	Humedad	87
9713	7	Sololá	701	Sololá	2	El tablón	12	Diciembre	2023-12-24T00:00:00	2024-11-08T07:00:00	6	Velocidad del viento	3.2
9714	7	Sololá	701	Sololá	2	El tablón	12	Diciembre	2023-12-24T00:00:00	2024-11-08T07:00:00	7	Dirección del viento	3.22
9715	7	Sololá	701	Sololá	2	El tablón	12	Diciembre	2023-12-24T00:00:00	2024-11-08T07:00:00	1	Precipitación	0
9716	7	Sololá	701	Sololá	2	El tablón	12	Diciembre	2023-12-24T00:00:00	2024-11-08T07:00:00	8	Radiación solar	10
9717	7	Sololá	701	Sololá	2	El tablón	12	Diciembre	2023-12-24T00:00:00	2024-11-08T08:00:00	2	Temperatura media	14.3
9718	7	Sololá	701	Sololá	2	El tablón	12	Diciembre	2023-12-24T00:00:00	2024-11-08T08:00:00	4	Temperatura máxima	14.3
9719	7	Sololá	701	Sololá	2	El tablón	12	Diciembre	2023-12-24T00:00:00	2024-11-08T08:00:00	3	Temperatura mínima	10.9
9720	7	Sololá	701	Sololá	2	El tablón	12	Diciembre	2023-12-24T00:00:00	2024-11-08T08:00:00	5	Humedad	84
9721	7	Sololá	701	Sololá	2	El tablón	12	Diciembre	2023-12-24T00:00:00	2024-11-08T08:00:00	6	Velocidad del viento	1.6
9722	7	Sololá	701	Sololá	2	El tablón	12	Diciembre	2023-12-24T00:00:00	2024-11-08T08:00:00	7	Dirección del viento	1.61
9723	7	Sololá	701	Sololá	2	El tablón	12	Diciembre	2023-12-24T00:00:00	2024-11-08T08:00:00	1	Precipitación	0
9724	7	Sololá	701	Sololá	2	El tablón	12	Diciembre	2023-12-24T00:00:00	2024-11-08T08:00:00	8	Radiación solar	134
9725	7	Sololá	701	Sololá	2	El tablón	12	Diciembre	2023-12-24T00:00:00	2024-11-08T09:00:00	2	Temperatura media	15.7
9726	7	Sololá	701	Sololá	2	El tablón	12	Diciembre	2023-12-24T00:00:00	2024-11-08T09:00:00	4	Temperatura máxima	15.7
9727	7	Sololá	701	Sololá	2	El tablón	12	Diciembre	2023-12-24T00:00:00	2024-11-08T09:00:00	3	Temperatura mínima	14.3
9728	7	Sololá	701	Sololá	2	El tablón	12	Diciembre	2023-12-24T00:00:00	2024-11-08T09:00:00	5	Humedad	78
9729	7	Sololá	701	Sololá	2	El tablón	12	Diciembre	2023-12-24T00:00:00	2024-11-08T09:00:00	6	Velocidad del viento	3.2
9730	7	Sololá	701	Sololá	2	El tablón	12	Diciembre	2023-12-24T00:00:00	2024-11-08T09:00:00	7	Dirección del viento	3.22
9731	7	Sololá	701	Sololá	2	El tablón	12	Diciembre	2023-12-24T00:00:00	2024-11-08T09:00:00	1	Precipitación	0
9732	7	Sololá	701	Sololá	2	El tablón	12	Diciembre	2023-12-24T00:00:00	2024-11-08T09:00:00	8	Radiación solar	348
9733	7	Sololá	701	Sololá	2	El tablón	12	Diciembre	2023-12-24T00:00:00	2024-11-08T10:00:00	2	Temperatura media	16.8
9734	7	Sololá	701	Sololá	2	El tablón	12	Diciembre	2023-12-24T00:00:00	2024-11-08T10:00:00	4	Temperatura máxima	16.8
9735	7	Sololá	701	Sololá	2	El tablón	12	Diciembre	2023-12-24T00:00:00	2024-11-08T10:00:00	3	Temperatura mínima	15.7
9736	7	Sololá	701	Sololá	2	El tablón	12	Diciembre	2023-12-24T00:00:00	2024-11-08T10:00:00	5	Humedad	78
9737	7	Sololá	701	Sololá	2	El tablón	12	Diciembre	2023-12-24T00:00:00	2024-11-08T10:00:00	6	Velocidad del viento	6.4
9738	7	Sololá	701	Sololá	2	El tablón	12	Diciembre	2023-12-24T00:00:00	2024-11-08T10:00:00	7	Dirección del viento	6.44
9739	7	Sololá	701	Sololá	2	El tablón	12	Diciembre	2023-12-24T00:00:00	2024-11-08T10:00:00	1	Precipitación	0
9740	7	Sololá	701	Sololá	2	El tablón	12	Diciembre	2023-12-24T00:00:00	2024-11-08T10:00:00	8	Radiación solar	546
9741	7	Sololá	701	Sololá	2	El tablón	12	Diciembre	2023-12-24T00:00:00	2024-11-08T11:00:00	2	Temperatura media	16.9
9742	7	Sololá	701	Sololá	2	El tablón	12	Diciembre	2023-12-24T00:00:00	2024-11-08T11:00:00	4	Temperatura máxima	16.9
9743	7	Sololá	701	Sololá	2	El tablón	12	Diciembre	2023-12-24T00:00:00	2024-11-08T11:00:00	3	Temperatura mínima	16.3
9744	7	Sololá	701	Sololá	2	El tablón	12	Diciembre	2023-12-24T00:00:00	2024-11-08T11:00:00	5	Humedad	78
9745	7	Sololá	701	Sololá	2	El tablón	12	Diciembre	2023-12-24T00:00:00	2024-11-08T11:00:00	6	Velocidad del viento	8
9746	7	Sololá	701	Sololá	2	El tablón	12	Diciembre	2023-12-24T00:00:00	2024-11-08T11:00:00	7	Dirección del viento	8.05
9747	7	Sololá	701	Sololá	2	El tablón	12	Diciembre	2023-12-24T00:00:00	2024-11-08T11:00:00	1	Precipitación	0
9748	7	Sololá	701	Sololá	2	El tablón	12	Diciembre	2023-12-24T00:00:00	2024-11-08T11:00:00	8	Radiación solar	684
9749	7	Sololá	701	Sololá	2	El tablón	12	Diciembre	2023-12-24T00:00:00	2024-11-08T12:00:00	2	Temperatura media	16.7
9750	7	Sololá	701	Sololá	2	El tablón	12	Diciembre	2023-12-24T00:00:00	2024-11-08T12:00:00	4	Temperatura máxima	17
9751	7	Sololá	701	Sololá	2	El tablón	12	Diciembre	2023-12-24T00:00:00	2024-11-08T12:00:00	3	Temperatura mínima	16.4
9752	7	Sololá	701	Sololá	2	El tablón	12	Diciembre	2023-12-24T00:00:00	2024-11-08T12:00:00	5	Humedad	80
9753	7	Sololá	701	Sololá	2	El tablón	12	Diciembre	2023-12-24T00:00:00	2024-11-08T12:00:00	6	Velocidad del viento	9.7
9754	7	Sololá	701	Sololá	2	El tablón	12	Diciembre	2023-12-24T00:00:00	2024-11-08T12:00:00	7	Dirección del viento	9.66
9755	7	Sololá	701	Sololá	2	El tablón	12	Diciembre	2023-12-24T00:00:00	2024-11-08T12:00:00	1	Precipitación	0
9756	7	Sololá	701	Sololá	2	El tablón	12	Diciembre	2023-12-24T00:00:00	2024-11-08T12:00:00	8	Radiación solar	666
9757	7	Sololá	701	Sololá	2	El tablón	12	Diciembre	2023-12-24T00:00:00	2024-11-08T13:00:00	2	Temperatura media	16.9
9758	7	Sololá	701	Sololá	2	El tablón	12	Diciembre	2023-12-24T00:00:00	2024-11-08T13:00:00	4	Temperatura máxima	17.4
9759	7	Sololá	701	Sololá	2	El tablón	12	Diciembre	2023-12-24T00:00:00	2024-11-08T13:00:00	3	Temperatura mínima	16.6
9760	7	Sololá	701	Sololá	2	El tablón	12	Diciembre	2023-12-24T00:00:00	2024-11-08T13:00:00	5	Humedad	81
9761	7	Sololá	701	Sololá	2	El tablón	12	Diciembre	2023-12-24T00:00:00	2024-11-08T13:00:00	6	Velocidad del viento	8
9762	7	Sololá	701	Sololá	2	El tablón	12	Diciembre	2023-12-24T00:00:00	2024-11-08T13:00:00	7	Dirección del viento	8.05
9763	7	Sololá	701	Sololá	2	El tablón	12	Diciembre	2023-12-24T00:00:00	2024-11-08T13:00:00	1	Precipitación	0
9764	7	Sololá	701	Sololá	2	El tablón	12	Diciembre	2023-12-24T00:00:00	2024-11-08T13:00:00	8	Radiación solar	671
9765	7	Sololá	701	Sololá	2	El tablón	12	Diciembre	2023-12-24T00:00:00	2024-11-08T14:00:00	2	Temperatura media	16.1
9766	7	Sololá	701	Sololá	2	El tablón	12	Diciembre	2023-12-24T00:00:00	2024-11-08T14:00:00	4	Temperatura máxima	16.9
9767	7	Sololá	701	Sololá	2	El tablón	12	Diciembre	2023-12-24T00:00:00	2024-11-08T14:00:00	3	Temperatura mínima	15.8
9768	7	Sololá	701	Sololá	2	El tablón	12	Diciembre	2023-12-24T00:00:00	2024-11-08T14:00:00	5	Humedad	83
9769	7	Sololá	701	Sololá	2	El tablón	12	Diciembre	2023-12-24T00:00:00	2024-11-08T14:00:00	6	Velocidad del viento	8
9770	7	Sololá	701	Sololá	2	El tablón	12	Diciembre	2023-12-24T00:00:00	2024-11-08T14:00:00	7	Dirección del viento	8.05
9771	7	Sololá	701	Sololá	2	El tablón	12	Diciembre	2023-12-24T00:00:00	2024-11-08T14:00:00	1	Precipitación	0
9772	7	Sololá	701	Sololá	2	El tablón	12	Diciembre	2023-12-24T00:00:00	2024-11-08T14:00:00	8	Radiación solar	259
9773	7	Sololá	701	Sololá	2	El tablón	12	Diciembre	2023-12-24T00:00:00	2024-11-08T15:00:00	2	Temperatura media	15.6
9774	7	Sololá	701	Sololá	2	El tablón	12	Diciembre	2023-12-24T00:00:00	2024-11-08T15:00:00	4	Temperatura máxima	16
9775	7	Sololá	701	Sololá	2	El tablón	12	Diciembre	2023-12-24T00:00:00	2024-11-08T15:00:00	3	Temperatura mínima	15.2
9776	7	Sololá	701	Sololá	2	El tablón	12	Diciembre	2023-12-24T00:00:00	2024-11-08T15:00:00	5	Humedad	86
9777	7	Sololá	701	Sololá	2	El tablón	12	Diciembre	2023-12-24T00:00:00	2024-11-08T15:00:00	6	Velocidad del viento	8
9778	7	Sololá	701	Sololá	2	El tablón	12	Diciembre	2023-12-24T00:00:00	2024-11-08T15:00:00	7	Dirección del viento	8.05
9779	7	Sololá	701	Sololá	2	El tablón	12	Diciembre	2023-12-24T00:00:00	2024-11-08T15:00:00	1	Precipitación	0
9780	7	Sololá	701	Sololá	2	El tablón	12	Diciembre	2023-12-24T00:00:00	2024-11-08T15:00:00	8	Radiación solar	247
9781	7	Sololá	701	Sololá	2	El tablón	12	Diciembre	2023-12-24T00:00:00	2024-11-08T16:00:00	2	Temperatura media	15.3
9782	7	Sololá	701	Sololá	2	El tablón	12	Diciembre	2023-12-24T00:00:00	2024-11-08T16:00:00	4	Temperatura máxima	15.6
9783	7	Sololá	701	Sololá	2	El tablón	12	Diciembre	2023-12-24T00:00:00	2024-11-08T16:00:00	3	Temperatura mínima	15.2
9784	7	Sololá	701	Sololá	2	El tablón	12	Diciembre	2023-12-24T00:00:00	2024-11-08T16:00:00	5	Humedad	86
9785	7	Sololá	701	Sololá	2	El tablón	12	Diciembre	2023-12-24T00:00:00	2024-11-08T16:00:00	6	Velocidad del viento	6.4
9786	7	Sololá	701	Sololá	2	El tablón	12	Diciembre	2023-12-24T00:00:00	2024-11-08T16:00:00	7	Dirección del viento	6.44
9787	7	Sololá	701	Sololá	2	El tablón	12	Diciembre	2023-12-24T00:00:00	2024-11-08T16:00:00	1	Precipitación	0
9788	7	Sololá	701	Sololá	2	El tablón	12	Diciembre	2023-12-24T00:00:00	2024-11-08T16:00:00	8	Radiación solar	204
9789	7	Sololá	701	Sololá	2	El tablón	12	Diciembre	2023-12-24T00:00:00	2024-11-08T17:00:00	2	Temperatura media	14.3
9790	7	Sololá	701	Sololá	2	El tablón	12	Diciembre	2023-12-24T00:00:00	2024-11-08T17:00:00	4	Temperatura máxima	15.3
9791	7	Sololá	701	Sololá	2	El tablón	12	Diciembre	2023-12-24T00:00:00	2024-11-08T17:00:00	3	Temperatura mínima	14.3
9792	7	Sololá	701	Sololá	2	El tablón	12	Diciembre	2023-12-24T00:00:00	2024-11-08T17:00:00	5	Humedad	88
9793	7	Sololá	701	Sololá	2	El tablón	12	Diciembre	2023-12-24T00:00:00	2024-11-08T17:00:00	6	Velocidad del viento	4.8
9794	7	Sololá	701	Sololá	2	El tablón	12	Diciembre	2023-12-24T00:00:00	2024-11-08T17:00:00	7	Dirección del viento	4.83
9795	7	Sololá	701	Sololá	2	El tablón	12	Diciembre	2023-12-24T00:00:00	2024-11-08T17:00:00	1	Precipitación	0
9796	7	Sololá	701	Sololá	2	El tablón	12	Diciembre	2023-12-24T00:00:00	2024-11-08T17:00:00	8	Radiación solar	97
9797	7	Sololá	701	Sololá	2	El tablón	12	Diciembre	2023-12-24T00:00:00	2024-11-08T18:00:00	2	Temperatura media	13.8
9798	7	Sololá	701	Sololá	2	El tablón	12	Diciembre	2023-12-24T00:00:00	2024-11-08T18:00:00	4	Temperatura máxima	14.3
9799	7	Sololá	701	Sololá	2	El tablón	12	Diciembre	2023-12-24T00:00:00	2024-11-08T18:00:00	3	Temperatura mínima	13.8
9800	7	Sololá	701	Sololá	2	El tablón	12	Diciembre	2023-12-24T00:00:00	2024-11-08T18:00:00	5	Humedad	88
9801	7	Sololá	701	Sololá	2	El tablón	12	Diciembre	2023-12-24T00:00:00	2024-11-08T18:00:00	6	Velocidad del viento	3.2
9802	7	Sololá	701	Sololá	2	El tablón	12	Diciembre	2023-12-24T00:00:00	2024-11-08T18:00:00	7	Dirección del viento	3.22
9803	7	Sololá	701	Sololá	2	El tablón	12	Diciembre	2023-12-24T00:00:00	2024-11-08T18:00:00	1	Precipitación	0
9804	7	Sololá	701	Sololá	2	El tablón	12	Diciembre	2023-12-24T00:00:00	2024-11-08T18:00:00	8	Radiación solar	17
9805	7	Sololá	701	Sololá	2	El tablón	12	Diciembre	2023-12-24T00:00:00	2024-11-08T19:00:00	2	Temperatura media	12.8
9806	7	Sololá	701	Sololá	2	El tablón	12	Diciembre	2023-12-24T00:00:00	2024-11-08T19:00:00	4	Temperatura máxima	13.8
9807	7	Sololá	701	Sololá	2	El tablón	12	Diciembre	2023-12-24T00:00:00	2024-11-08T19:00:00	3	Temperatura mínima	12.8
9808	7	Sololá	701	Sololá	2	El tablón	12	Diciembre	2023-12-24T00:00:00	2024-11-08T19:00:00	5	Humedad	88
9809	7	Sololá	701	Sololá	2	El tablón	12	Diciembre	2023-12-24T00:00:00	2024-11-08T19:00:00	6	Velocidad del viento	1.6
9810	7	Sololá	701	Sololá	2	El tablón	12	Diciembre	2023-12-24T00:00:00	2024-11-08T19:00:00	7	Dirección del viento	1.61
9811	7	Sololá	701	Sololá	2	El tablón	12	Diciembre	2023-12-24T00:00:00	2024-11-08T19:00:00	1	Precipitación	0
9812	7	Sololá	701	Sololá	2	El tablón	12	Diciembre	2023-12-24T00:00:00	2024-11-08T19:00:00	8	Radiación solar	0
9813	7	Sololá	701	Sololá	2	El tablón	12	Diciembre	2023-12-24T00:00:00	2024-11-08T20:00:00	2	Temperatura media	11.2
9814	7	Sololá	701	Sololá	2	El tablón	12	Diciembre	2023-12-24T00:00:00	2024-11-08T20:00:00	4	Temperatura máxima	12.8
9815	7	Sololá	701	Sololá	2	El tablón	12	Diciembre	2023-12-24T00:00:00	2024-11-08T20:00:00	3	Temperatura mínima	11.2
9816	7	Sololá	701	Sololá	2	El tablón	12	Diciembre	2023-12-24T00:00:00	2024-11-08T20:00:00	5	Humedad	88
9817	7	Sololá	701	Sololá	2	El tablón	12	Diciembre	2023-12-24T00:00:00	2024-11-08T20:00:00	6	Velocidad del viento	0
9818	7	Sololá	701	Sololá	2	El tablón	12	Diciembre	2023-12-24T00:00:00	2024-11-08T20:00:00	7	Dirección del viento	0
9819	7	Sololá	701	Sololá	2	El tablón	12	Diciembre	2023-12-24T00:00:00	2024-11-08T20:00:00	1	Precipitación	0
9820	7	Sololá	701	Sololá	2	El tablón	12	Diciembre	2023-12-24T00:00:00	2024-11-08T20:00:00	8	Radiación solar	0
9821	7	Sololá	701	Sololá	2	El tablón	12	Diciembre	2023-12-24T00:00:00	2024-11-08T21:00:00	2	Temperatura media	10.5
9822	7	Sololá	701	Sololá	2	El tablón	12	Diciembre	2023-12-24T00:00:00	2024-11-08T21:00:00	4	Temperatura máxima	11.2
9823	7	Sololá	701	Sololá	2	El tablón	12	Diciembre	2023-12-24T00:00:00	2024-11-08T21:00:00	3	Temperatura mínima	10.5
9824	7	Sololá	701	Sololá	2	El tablón	12	Diciembre	2023-12-24T00:00:00	2024-11-08T21:00:00	5	Humedad	87
9825	7	Sololá	701	Sololá	2	El tablón	12	Diciembre	2023-12-24T00:00:00	2024-11-08T21:00:00	6	Velocidad del viento	1.6
9826	7	Sololá	701	Sololá	2	El tablón	12	Diciembre	2023-12-24T00:00:00	2024-11-08T21:00:00	7	Dirección del viento	1.61
9827	7	Sololá	701	Sololá	2	El tablón	12	Diciembre	2023-12-24T00:00:00	2024-11-08T21:00:00	1	Precipitación	0
9828	7	Sololá	701	Sololá	2	El tablón	12	Diciembre	2023-12-24T00:00:00	2024-11-08T21:00:00	8	Radiación solar	0
9829	7	Sololá	701	Sololá	2	El tablón	12	Diciembre	2023-12-24T00:00:00	2024-11-08T22:00:00	2	Temperatura media	9.9
9830	7	Sololá	701	Sololá	2	El tablón	12	Diciembre	2023-12-24T00:00:00	2024-11-08T22:00:00	4	Temperatura máxima	10.5
9831	7	Sololá	701	Sololá	2	El tablón	12	Diciembre	2023-12-24T00:00:00	2024-11-08T22:00:00	3	Temperatura mínima	9.6
9832	7	Sololá	701	Sololá	2	El tablón	12	Diciembre	2023-12-24T00:00:00	2024-11-08T22:00:00	5	Humedad	87
9833	7	Sololá	701	Sololá	2	El tablón	12	Diciembre	2023-12-24T00:00:00	2024-11-08T22:00:00	6	Velocidad del viento	3.2
9834	7	Sololá	701	Sololá	2	El tablón	12	Diciembre	2023-12-24T00:00:00	2024-11-08T22:00:00	7	Dirección del viento	3.22
9835	7	Sololá	701	Sololá	2	El tablón	12	Diciembre	2023-12-24T00:00:00	2024-11-08T22:00:00	1	Precipitación	0
9836	7	Sololá	701	Sololá	2	El tablón	12	Diciembre	2023-12-24T00:00:00	2024-11-08T22:00:00	8	Radiación solar	0
9837	7	Sololá	701	Sololá	2	El tablón	12	Diciembre	2023-12-24T00:00:00	2024-11-08T23:00:00	2	Temperatura media	9.9
9838	7	Sololá	701	Sololá	2	El tablón	12	Diciembre	2023-12-24T00:00:00	2024-11-08T23:00:00	4	Temperatura máxima	10.2
9839	7	Sololá	701	Sololá	2	El tablón	12	Diciembre	2023-12-24T00:00:00	2024-11-08T23:00:00	3	Temperatura mínima	9.9
9840	7	Sololá	701	Sololá	2	El tablón	12	Diciembre	2023-12-24T00:00:00	2024-11-08T23:00:00	5	Humedad	84
9841	7	Sololá	701	Sololá	2	El tablón	12	Diciembre	2023-12-24T00:00:00	2024-11-08T23:00:00	6	Velocidad del viento	3.2
9842	7	Sololá	701	Sololá	2	El tablón	12	Diciembre	2023-12-24T00:00:00	2024-11-08T23:00:00	7	Dirección del viento	3.22
9843	7	Sololá	701	Sololá	2	El tablón	12	Diciembre	2023-12-24T00:00:00	2024-11-08T23:00:00	1	Precipitación	0
9844	7	Sololá	701	Sololá	2	El tablón	12	Diciembre	2023-12-24T00:00:00	2024-11-08T23:00:00	8	Radiación solar	0
9845	7	Sololá	701	Sololá	2	El tablón	12	Diciembre	2023-12-25T00:00:00	2024-11-08T00:00:00	2	Temperatura media	9.7
9846	7	Sololá	701	Sololá	2	El tablón	12	Diciembre	2023-12-25T00:00:00	2024-11-08T00:00:00	4	Temperatura máxima	10
9847	7	Sololá	701	Sololá	2	El tablón	12	Diciembre	2023-12-25T00:00:00	2024-11-08T00:00:00	3	Temperatura mínima	9.6
9848	7	Sololá	701	Sololá	2	El tablón	12	Diciembre	2023-12-25T00:00:00	2024-11-08T00:00:00	5	Humedad	78
9849	7	Sololá	701	Sololá	2	El tablón	12	Diciembre	2023-12-25T00:00:00	2024-11-08T00:00:00	6	Velocidad del viento	3.2
9850	7	Sololá	701	Sololá	2	El tablón	12	Diciembre	2023-12-25T00:00:00	2024-11-08T00:00:00	7	Dirección del viento	3.22
9851	7	Sololá	701	Sololá	2	El tablón	12	Diciembre	2023-12-25T00:00:00	2024-11-08T00:00:00	1	Precipitación	0
9852	7	Sololá	701	Sololá	2	El tablón	12	Diciembre	2023-12-25T00:00:00	2024-11-08T00:00:00	8	Radiación solar	0
9853	7	Sololá	701	Sololá	2	El tablón	12	Diciembre	2023-12-25T00:00:00	2024-11-08T01:00:00	2	Temperatura media	9.8
9854	7	Sololá	701	Sololá	2	El tablón	12	Diciembre	2023-12-25T00:00:00	2024-11-08T01:00:00	4	Temperatura máxima	9.8
9855	7	Sololá	701	Sololá	2	El tablón	12	Diciembre	2023-12-25T00:00:00	2024-11-08T01:00:00	3	Temperatura mínima	9.4
9856	7	Sololá	701	Sololá	2	El tablón	12	Diciembre	2023-12-25T00:00:00	2024-11-08T01:00:00	5	Humedad	78
9857	7	Sololá	701	Sololá	2	El tablón	12	Diciembre	2023-12-25T00:00:00	2024-11-08T01:00:00	6	Velocidad del viento	1.6
9858	7	Sololá	701	Sololá	2	El tablón	12	Diciembre	2023-12-25T00:00:00	2024-11-08T01:00:00	7	Dirección del viento	1.61
9859	7	Sololá	701	Sololá	2	El tablón	12	Diciembre	2023-12-25T00:00:00	2024-11-08T01:00:00	1	Precipitación	0
9860	7	Sololá	701	Sololá	2	El tablón	12	Diciembre	2023-12-25T00:00:00	2024-11-08T01:00:00	8	Radiación solar	0
9861	7	Sololá	701	Sololá	2	El tablón	12	Diciembre	2023-12-25T00:00:00	2024-11-08T02:00:00	2	Temperatura media	10
9862	7	Sololá	701	Sololá	2	El tablón	12	Diciembre	2023-12-25T00:00:00	2024-11-08T02:00:00	4	Temperatura máxima	10.7
9863	7	Sololá	701	Sololá	2	El tablón	12	Diciembre	2023-12-25T00:00:00	2024-11-08T02:00:00	3	Temperatura mínima	9.9
9864	7	Sololá	701	Sololá	2	El tablón	12	Diciembre	2023-12-25T00:00:00	2024-11-08T02:00:00	5	Humedad	78
9865	7	Sololá	701	Sololá	2	El tablón	12	Diciembre	2023-12-25T00:00:00	2024-11-08T02:00:00	6	Velocidad del viento	3.2
9866	7	Sololá	701	Sololá	2	El tablón	12	Diciembre	2023-12-25T00:00:00	2024-11-08T02:00:00	7	Dirección del viento	3.22
9867	7	Sololá	701	Sololá	2	El tablón	12	Diciembre	2023-12-25T00:00:00	2024-11-08T02:00:00	1	Precipitación	0
9868	7	Sololá	701	Sololá	2	El tablón	12	Diciembre	2023-12-25T00:00:00	2024-11-08T02:00:00	8	Radiación solar	0
9869	7	Sololá	701	Sololá	2	El tablón	12	Diciembre	2023-12-25T00:00:00	2024-11-08T03:00:00	2	Temperatura media	9.8
9870	7	Sololá	701	Sololá	2	El tablón	12	Diciembre	2023-12-25T00:00:00	2024-11-08T03:00:00	4	Temperatura máxima	10.2
9871	7	Sololá	701	Sololá	2	El tablón	12	Diciembre	2023-12-25T00:00:00	2024-11-08T03:00:00	3	Temperatura mínima	9.6
9872	7	Sololá	701	Sololá	2	El tablón	12	Diciembre	2023-12-25T00:00:00	2024-11-08T03:00:00	5	Humedad	81
9873	7	Sololá	701	Sololá	2	El tablón	12	Diciembre	2023-12-25T00:00:00	2024-11-08T03:00:00	6	Velocidad del viento	1.6
9874	7	Sololá	701	Sololá	2	El tablón	12	Diciembre	2023-12-25T00:00:00	2024-11-08T03:00:00	7	Dirección del viento	1.61
9875	7	Sololá	701	Sololá	2	El tablón	12	Diciembre	2023-12-25T00:00:00	2024-11-08T03:00:00	1	Precipitación	0
9876	7	Sololá	701	Sololá	2	El tablón	12	Diciembre	2023-12-25T00:00:00	2024-11-08T03:00:00	8	Radiación solar	0
9877	7	Sololá	701	Sololá	2	El tablón	12	Diciembre	2023-12-25T00:00:00	2024-11-08T04:00:00	2	Temperatura media	10.8
9878	7	Sololá	701	Sololá	2	El tablón	12	Diciembre	2023-12-25T00:00:00	2024-11-08T04:00:00	4	Temperatura máxima	10.8
9879	7	Sololá	701	Sololá	2	El tablón	12	Diciembre	2023-12-25T00:00:00	2024-11-08T04:00:00	3	Temperatura mínima	9.8
9880	7	Sololá	701	Sololá	2	El tablón	12	Diciembre	2023-12-25T00:00:00	2024-11-08T04:00:00	5	Humedad	88
9881	7	Sololá	701	Sololá	2	El tablón	12	Diciembre	2023-12-25T00:00:00	2024-11-08T04:00:00	6	Velocidad del viento	1.6
9882	7	Sololá	701	Sololá	2	El tablón	12	Diciembre	2023-12-25T00:00:00	2024-11-08T04:00:00	7	Dirección del viento	1.61
9883	7	Sololá	701	Sololá	2	El tablón	12	Diciembre	2023-12-25T00:00:00	2024-11-08T04:00:00	1	Precipitación	0
9884	7	Sololá	701	Sololá	2	El tablón	12	Diciembre	2023-12-25T00:00:00	2024-11-08T04:00:00	8	Radiación solar	0
9885	7	Sololá	701	Sololá	2	El tablón	12	Diciembre	2023-12-25T00:00:00	2024-11-08T05:00:00	2	Temperatura media	8.4
9886	7	Sololá	701	Sololá	2	El tablón	12	Diciembre	2023-12-25T00:00:00	2024-11-08T05:00:00	4	Temperatura máxima	10.8
9887	7	Sololá	701	Sololá	2	El tablón	12	Diciembre	2023-12-25T00:00:00	2024-11-08T05:00:00	3	Temperatura mínima	8.4
9888	7	Sololá	701	Sololá	2	El tablón	12	Diciembre	2023-12-25T00:00:00	2024-11-08T05:00:00	5	Humedad	89
9889	7	Sololá	701	Sololá	2	El tablón	12	Diciembre	2023-12-25T00:00:00	2024-11-08T05:00:00	6	Velocidad del viento	3.2
9890	7	Sololá	701	Sololá	2	El tablón	12	Diciembre	2023-12-25T00:00:00	2024-11-08T05:00:00	7	Dirección del viento	3.22
9891	7	Sololá	701	Sololá	2	El tablón	12	Diciembre	2023-12-25T00:00:00	2024-11-08T05:00:00	1	Precipitación	0
9892	7	Sololá	701	Sololá	2	El tablón	12	Diciembre	2023-12-25T00:00:00	2024-11-08T05:00:00	8	Radiación solar	0
9893	7	Sololá	701	Sololá	2	El tablón	12	Diciembre	2023-12-25T00:00:00	2024-11-08T06:00:00	2	Temperatura media	8.8
9894	7	Sololá	701	Sololá	2	El tablón	12	Diciembre	2023-12-25T00:00:00	2024-11-08T06:00:00	4	Temperatura máxima	9
9895	7	Sololá	701	Sololá	2	El tablón	12	Diciembre	2023-12-25T00:00:00	2024-11-08T06:00:00	3	Temperatura mínima	8.3
9896	7	Sololá	701	Sololá	2	El tablón	12	Diciembre	2023-12-25T00:00:00	2024-11-08T06:00:00	5	Humedad	86
9897	7	Sololá	701	Sololá	2	El tablón	12	Diciembre	2023-12-25T00:00:00	2024-11-08T06:00:00	6	Velocidad del viento	1.6
9898	7	Sololá	701	Sololá	2	El tablón	12	Diciembre	2023-12-25T00:00:00	2024-11-08T06:00:00	7	Dirección del viento	1.61
9899	7	Sololá	701	Sololá	2	El tablón	12	Diciembre	2023-12-25T00:00:00	2024-11-08T06:00:00	1	Precipitación	0
9900	7	Sololá	701	Sololá	2	El tablón	12	Diciembre	2023-12-25T00:00:00	2024-11-08T06:00:00	8	Radiación solar	0
9901	7	Sololá	701	Sololá	2	El tablón	12	Diciembre	2023-12-25T00:00:00	2024-11-08T07:00:00	2	Temperatura media	9.5
9902	7	Sololá	701	Sololá	2	El tablón	12	Diciembre	2023-12-25T00:00:00	2024-11-08T07:00:00	4	Temperatura máxima	9.7
9903	7	Sololá	701	Sololá	2	El tablón	12	Diciembre	2023-12-25T00:00:00	2024-11-08T07:00:00	3	Temperatura mínima	8.8
9904	7	Sololá	701	Sololá	2	El tablón	12	Diciembre	2023-12-25T00:00:00	2024-11-08T07:00:00	5	Humedad	88
9905	7	Sololá	701	Sololá	2	El tablón	12	Diciembre	2023-12-25T00:00:00	2024-11-08T07:00:00	6	Velocidad del viento	0
9906	7	Sololá	701	Sololá	2	El tablón	12	Diciembre	2023-12-25T00:00:00	2024-11-08T07:00:00	7	Dirección del viento	0
9907	7	Sololá	701	Sololá	2	El tablón	12	Diciembre	2023-12-25T00:00:00	2024-11-08T07:00:00	1	Precipitación	0
9908	7	Sololá	701	Sololá	2	El tablón	12	Diciembre	2023-12-25T00:00:00	2024-11-08T07:00:00	8	Radiación solar	4
9909	7	Sololá	701	Sololá	2	El tablón	12	Diciembre	2023-12-25T00:00:00	2024-11-08T08:00:00	2	Temperatura media	10.7
9910	7	Sololá	701	Sololá	2	El tablón	12	Diciembre	2023-12-25T00:00:00	2024-11-08T08:00:00	4	Temperatura máxima	10.7
9911	7	Sololá	701	Sololá	2	El tablón	12	Diciembre	2023-12-25T00:00:00	2024-11-08T08:00:00	3	Temperatura mínima	9.5
9912	7	Sololá	701	Sololá	2	El tablón	12	Diciembre	2023-12-25T00:00:00	2024-11-08T08:00:00	5	Humedad	89
9913	7	Sololá	701	Sololá	2	El tablón	12	Diciembre	2023-12-25T00:00:00	2024-11-08T08:00:00	6	Velocidad del viento	0
9914	7	Sololá	701	Sololá	2	El tablón	12	Diciembre	2023-12-25T00:00:00	2024-11-08T08:00:00	7	Dirección del viento	0
9915	7	Sololá	701	Sololá	2	El tablón	12	Diciembre	2023-12-25T00:00:00	2024-11-08T08:00:00	1	Precipitación	0
9916	7	Sololá	701	Sololá	2	El tablón	12	Diciembre	2023-12-25T00:00:00	2024-11-08T08:00:00	8	Radiación solar	80
9917	7	Sololá	701	Sololá	2	El tablón	12	Diciembre	2023-12-25T00:00:00	2024-11-08T09:00:00	2	Temperatura media	14.2
9918	7	Sololá	701	Sololá	2	El tablón	12	Diciembre	2023-12-25T00:00:00	2024-11-08T09:00:00	4	Temperatura máxima	14.2
9919	7	Sololá	701	Sololá	2	El tablón	12	Diciembre	2023-12-25T00:00:00	2024-11-08T09:00:00	3	Temperatura mínima	10.7
9920	7	Sololá	701	Sololá	2	El tablón	12	Diciembre	2023-12-25T00:00:00	2024-11-08T09:00:00	5	Humedad	82
9921	7	Sololá	701	Sololá	2	El tablón	12	Diciembre	2023-12-25T00:00:00	2024-11-08T09:00:00	6	Velocidad del viento	3.2
9922	7	Sololá	701	Sololá	2	El tablón	12	Diciembre	2023-12-25T00:00:00	2024-11-08T09:00:00	7	Dirección del viento	3.22
9923	7	Sololá	701	Sololá	2	El tablón	12	Diciembre	2023-12-25T00:00:00	2024-11-08T09:00:00	1	Precipitación	0
9924	7	Sololá	701	Sololá	2	El tablón	12	Diciembre	2023-12-25T00:00:00	2024-11-08T09:00:00	8	Radiación solar	368
9925	7	Sololá	701	Sololá	2	El tablón	12	Diciembre	2023-12-25T00:00:00	2024-11-08T10:00:00	2	Temperatura media	14.9
9926	7	Sololá	701	Sololá	2	El tablón	12	Diciembre	2023-12-25T00:00:00	2024-11-08T10:00:00	4	Temperatura máxima	15.1
9927	7	Sololá	701	Sololá	2	El tablón	12	Diciembre	2023-12-25T00:00:00	2024-11-08T10:00:00	3	Temperatura mínima	13.7
9928	7	Sololá	701	Sololá	2	El tablón	12	Diciembre	2023-12-25T00:00:00	2024-11-08T10:00:00	5	Humedad	80
9929	7	Sololá	701	Sololá	2	El tablón	12	Diciembre	2023-12-25T00:00:00	2024-11-08T10:00:00	6	Velocidad del viento	4.8
9930	7	Sololá	701	Sololá	2	El tablón	12	Diciembre	2023-12-25T00:00:00	2024-11-08T10:00:00	7	Dirección del viento	4.83
9931	7	Sololá	701	Sololá	2	El tablón	12	Diciembre	2023-12-25T00:00:00	2024-11-08T10:00:00	1	Precipitación	0
9932	7	Sololá	701	Sololá	2	El tablón	12	Diciembre	2023-12-25T00:00:00	2024-11-08T10:00:00	8	Radiación solar	370
9933	7	Sololá	701	Sololá	2	El tablón	12	Diciembre	2023-12-25T00:00:00	2024-11-08T11:00:00	2	Temperatura media	16.2
9934	7	Sololá	701	Sololá	2	El tablón	12	Diciembre	2023-12-25T00:00:00	2024-11-08T11:00:00	4	Temperatura máxima	16.4
9935	7	Sololá	701	Sololá	2	El tablón	12	Diciembre	2023-12-25T00:00:00	2024-11-08T11:00:00	3	Temperatura mínima	14.8
9936	7	Sololá	701	Sololá	2	El tablón	12	Diciembre	2023-12-25T00:00:00	2024-11-08T11:00:00	5	Humedad	74
9937	7	Sololá	701	Sololá	2	El tablón	12	Diciembre	2023-12-25T00:00:00	2024-11-08T11:00:00	6	Velocidad del viento	6.4
9938	7	Sololá	701	Sololá	2	El tablón	12	Diciembre	2023-12-25T00:00:00	2024-11-08T11:00:00	7	Dirección del viento	6.44
9939	7	Sololá	701	Sololá	2	El tablón	12	Diciembre	2023-12-25T00:00:00	2024-11-08T11:00:00	1	Precipitación	0
9940	7	Sololá	701	Sololá	2	El tablón	12	Diciembre	2023-12-25T00:00:00	2024-11-08T11:00:00	8	Radiación solar	702
9941	7	Sololá	701	Sololá	2	El tablón	12	Diciembre	2023-12-25T00:00:00	2024-11-08T12:00:00	2	Temperatura media	16.6
9942	7	Sololá	701	Sololá	2	El tablón	12	Diciembre	2023-12-25T00:00:00	2024-11-08T12:00:00	4	Temperatura máxima	16.7
9943	7	Sololá	701	Sololá	2	El tablón	12	Diciembre	2023-12-25T00:00:00	2024-11-08T12:00:00	3	Temperatura mínima	15.9
9944	7	Sololá	701	Sololá	2	El tablón	12	Diciembre	2023-12-25T00:00:00	2024-11-08T12:00:00	5	Humedad	72
9945	7	Sololá	701	Sololá	2	El tablón	12	Diciembre	2023-12-25T00:00:00	2024-11-08T12:00:00	6	Velocidad del viento	8
9946	7	Sololá	701	Sololá	2	El tablón	12	Diciembre	2023-12-25T00:00:00	2024-11-08T12:00:00	7	Dirección del viento	8.05
9947	7	Sololá	701	Sololá	2	El tablón	12	Diciembre	2023-12-25T00:00:00	2024-11-08T12:00:00	1	Precipitación	0
9948	7	Sololá	701	Sololá	2	El tablón	12	Diciembre	2023-12-25T00:00:00	2024-11-08T12:00:00	8	Radiación solar	704
9949	7	Sololá	701	Sololá	2	El tablón	12	Diciembre	2023-12-25T00:00:00	2024-11-08T13:00:00	2	Temperatura media	16.4
9950	7	Sololá	701	Sololá	2	El tablón	12	Diciembre	2023-12-25T00:00:00	2024-11-08T13:00:00	4	Temperatura máxima	17.1
9951	7	Sololá	701	Sololá	2	El tablón	12	Diciembre	2023-12-25T00:00:00	2024-11-08T13:00:00	3	Temperatura mínima	16.3
9952	7	Sololá	701	Sololá	2	El tablón	12	Diciembre	2023-12-25T00:00:00	2024-11-08T13:00:00	5	Humedad	76
9953	7	Sololá	701	Sololá	2	El tablón	12	Diciembre	2023-12-25T00:00:00	2024-11-08T13:00:00	6	Velocidad del viento	8
9954	7	Sololá	701	Sololá	2	El tablón	12	Diciembre	2023-12-25T00:00:00	2024-11-08T13:00:00	7	Dirección del viento	8.05
9955	7	Sololá	701	Sololá	2	El tablón	12	Diciembre	2023-12-25T00:00:00	2024-11-08T13:00:00	1	Precipitación	0
9956	7	Sololá	701	Sololá	2	El tablón	12	Diciembre	2023-12-25T00:00:00	2024-11-08T13:00:00	8	Radiación solar	729
9957	7	Sololá	701	Sololá	2	El tablón	12	Diciembre	2023-12-25T00:00:00	2024-11-08T14:00:00	2	Temperatura media	16.5
9958	7	Sololá	701	Sololá	2	El tablón	12	Diciembre	2023-12-25T00:00:00	2024-11-08T14:00:00	4	Temperatura máxima	16.9
9959	7	Sololá	701	Sololá	2	El tablón	12	Diciembre	2023-12-25T00:00:00	2024-11-08T14:00:00	3	Temperatura mínima	16.2
9960	7	Sololá	701	Sololá	2	El tablón	12	Diciembre	2023-12-25T00:00:00	2024-11-08T14:00:00	5	Humedad	76
9961	7	Sololá	701	Sololá	2	El tablón	12	Diciembre	2023-12-25T00:00:00	2024-11-08T14:00:00	6	Velocidad del viento	9.7
9962	7	Sololá	701	Sololá	2	El tablón	12	Diciembre	2023-12-25T00:00:00	2024-11-08T14:00:00	7	Dirección del viento	9.66
9963	7	Sololá	701	Sololá	2	El tablón	12	Diciembre	2023-12-25T00:00:00	2024-11-08T14:00:00	1	Precipitación	0
9964	7	Sololá	701	Sololá	2	El tablón	12	Diciembre	2023-12-25T00:00:00	2024-11-08T14:00:00	8	Radiación solar	705
9965	7	Sololá	701	Sololá	2	El tablón	12	Diciembre	2023-12-25T00:00:00	2024-11-08T15:00:00	2	Temperatura media	16.9
9966	7	Sololá	701	Sololá	2	El tablón	12	Diciembre	2023-12-25T00:00:00	2024-11-08T15:00:00	4	Temperatura máxima	17.2
9967	7	Sololá	701	Sololá	2	El tablón	12	Diciembre	2023-12-25T00:00:00	2024-11-08T15:00:00	3	Temperatura mínima	16.4
9968	7	Sololá	701	Sololá	2	El tablón	12	Diciembre	2023-12-25T00:00:00	2024-11-08T15:00:00	5	Humedad	77
9969	7	Sololá	701	Sololá	2	El tablón	12	Diciembre	2023-12-25T00:00:00	2024-11-08T15:00:00	6	Velocidad del viento	8
9970	7	Sololá	701	Sololá	2	El tablón	12	Diciembre	2023-12-25T00:00:00	2024-11-08T15:00:00	7	Dirección del viento	8.05
9971	7	Sololá	701	Sololá	2	El tablón	12	Diciembre	2023-12-25T00:00:00	2024-11-08T15:00:00	1	Precipitación	0
9972	7	Sololá	701	Sololá	2	El tablón	12	Diciembre	2023-12-25T00:00:00	2024-11-08T15:00:00	8	Radiación solar	593
9973	7	Sololá	701	Sololá	2	El tablón	12	Diciembre	2023-12-25T00:00:00	2024-11-08T16:00:00	2	Temperatura media	15.7
9974	7	Sololá	701	Sololá	2	El tablón	12	Diciembre	2023-12-25T00:00:00	2024-11-08T16:00:00	4	Temperatura máxima	16.9
9975	7	Sololá	701	Sololá	2	El tablón	12	Diciembre	2023-12-25T00:00:00	2024-11-08T16:00:00	3	Temperatura mínima	15.7
9976	7	Sololá	701	Sololá	2	El tablón	12	Diciembre	2023-12-25T00:00:00	2024-11-08T16:00:00	5	Humedad	83
9977	7	Sololá	701	Sololá	2	El tablón	12	Diciembre	2023-12-25T00:00:00	2024-11-08T16:00:00	6	Velocidad del viento	4.8
9978	7	Sololá	701	Sololá	2	El tablón	12	Diciembre	2023-12-25T00:00:00	2024-11-08T16:00:00	7	Dirección del viento	4.83
9979	7	Sololá	701	Sololá	2	El tablón	12	Diciembre	2023-12-25T00:00:00	2024-11-08T16:00:00	1	Precipitación	0
9980	7	Sololá	701	Sololá	2	El tablón	12	Diciembre	2023-12-25T00:00:00	2024-11-08T16:00:00	8	Radiación solar	317
9981	7	Sololá	701	Sololá	2	El tablón	12	Diciembre	2023-12-25T00:00:00	2024-11-08T17:00:00	2	Temperatura media	14.3
9982	7	Sololá	701	Sololá	2	El tablón	12	Diciembre	2023-12-25T00:00:00	2024-11-08T17:00:00	4	Temperatura máxima	15.8
9983	7	Sololá	701	Sololá	2	El tablón	12	Diciembre	2023-12-25T00:00:00	2024-11-08T17:00:00	3	Temperatura mínima	14.3
9984	7	Sololá	701	Sololá	2	El tablón	12	Diciembre	2023-12-25T00:00:00	2024-11-08T17:00:00	5	Humedad	87
9985	7	Sololá	701	Sololá	2	El tablón	12	Diciembre	2023-12-25T00:00:00	2024-11-08T17:00:00	6	Velocidad del viento	4.8
9986	7	Sololá	701	Sololá	2	El tablón	12	Diciembre	2023-12-25T00:00:00	2024-11-08T17:00:00	7	Dirección del viento	4.83
9987	7	Sololá	701	Sololá	2	El tablón	12	Diciembre	2023-12-25T00:00:00	2024-11-08T17:00:00	1	Precipitación	0
9988	7	Sololá	701	Sololá	2	El tablón	12	Diciembre	2023-12-25T00:00:00	2024-11-08T17:00:00	8	Radiación solar	133
9989	7	Sololá	701	Sololá	2	El tablón	12	Diciembre	2023-12-25T00:00:00	2024-11-08T18:00:00	2	Temperatura media	13.8
9990	7	Sololá	701	Sololá	2	El tablón	12	Diciembre	2023-12-25T00:00:00	2024-11-08T18:00:00	4	Temperatura máxima	14.4
9991	7	Sololá	701	Sololá	2	El tablón	12	Diciembre	2023-12-25T00:00:00	2024-11-08T18:00:00	3	Temperatura mínima	13.8
9992	7	Sololá	701	Sololá	2	El tablón	12	Diciembre	2023-12-25T00:00:00	2024-11-08T18:00:00	5	Humedad	88
9993	7	Sololá	701	Sololá	2	El tablón	12	Diciembre	2023-12-25T00:00:00	2024-11-08T18:00:00	6	Velocidad del viento	1.6
9994	7	Sololá	701	Sololá	2	El tablón	12	Diciembre	2023-12-25T00:00:00	2024-11-08T18:00:00	7	Dirección del viento	1.61
9995	7	Sololá	701	Sololá	2	El tablón	12	Diciembre	2023-12-25T00:00:00	2024-11-08T18:00:00	1	Precipitación	0
9996	7	Sololá	701	Sololá	2	El tablón	12	Diciembre	2023-12-25T00:00:00	2024-11-08T18:00:00	8	Radiación solar	20
9997	7	Sololá	701	Sololá	2	El tablón	12	Diciembre	2023-12-25T00:00:00	2024-11-08T19:00:00	2	Temperatura media	12.4
9998	7	Sololá	701	Sololá	2	El tablón	12	Diciembre	2023-12-25T00:00:00	2024-11-08T19:00:00	4	Temperatura máxima	13.8
9999	7	Sololá	701	Sololá	2	El tablón	12	Diciembre	2023-12-25T00:00:00	2024-11-08T19:00:00	3	Temperatura mínima	12.4
10000	7	Sololá	701	Sololá	2	El tablón	12	Diciembre	2023-12-25T00:00:00	2024-11-08T19:00:00	5	Humedad	88
10001	7	Sololá	701	Sololá	2	El tablón	12	Diciembre	2023-12-25T00:00:00	2024-11-08T19:00:00	6	Velocidad del viento	1.6
10002	7	Sololá	701	Sololá	2	El tablón	12	Diciembre	2023-12-25T00:00:00	2024-11-08T19:00:00	7	Dirección del viento	1.61
10003	7	Sololá	701	Sololá	2	El tablón	12	Diciembre	2023-12-25T00:00:00	2024-11-08T19:00:00	1	Precipitación	0
10004	7	Sololá	701	Sololá	2	El tablón	12	Diciembre	2023-12-25T00:00:00	2024-11-08T19:00:00	8	Radiación solar	0
10005	7	Sololá	701	Sololá	2	El tablón	12	Diciembre	2023-12-25T00:00:00	2024-11-08T20:00:00	2	Temperatura media	11.7
10006	7	Sololá	701	Sololá	2	El tablón	12	Diciembre	2023-12-25T00:00:00	2024-11-08T20:00:00	4	Temperatura máxima	12.4
10007	7	Sololá	701	Sololá	2	El tablón	12	Diciembre	2023-12-25T00:00:00	2024-11-08T20:00:00	3	Temperatura mínima	11.7
10008	7	Sololá	701	Sololá	2	El tablón	12	Diciembre	2023-12-25T00:00:00	2024-11-08T20:00:00	5	Humedad	88
10009	7	Sololá	701	Sololá	2	El tablón	12	Diciembre	2023-12-25T00:00:00	2024-11-08T20:00:00	6	Velocidad del viento	1.6
10010	7	Sololá	701	Sololá	2	El tablón	12	Diciembre	2023-12-25T00:00:00	2024-11-08T20:00:00	7	Dirección del viento	1.61
10011	7	Sololá	701	Sololá	2	El tablón	12	Diciembre	2023-12-25T00:00:00	2024-11-08T20:00:00	1	Precipitación	0
10012	7	Sololá	701	Sololá	2	El tablón	12	Diciembre	2023-12-25T00:00:00	2024-11-08T20:00:00	8	Radiación solar	0
10013	7	Sololá	701	Sololá	2	El tablón	12	Diciembre	2023-12-25T00:00:00	2024-11-08T21:00:00	2	Temperatura media	10.9
10014	7	Sololá	701	Sololá	2	El tablón	12	Diciembre	2023-12-25T00:00:00	2024-11-08T21:00:00	4	Temperatura máxima	11.7
10015	7	Sololá	701	Sololá	2	El tablón	12	Diciembre	2023-12-25T00:00:00	2024-11-08T21:00:00	3	Temperatura mínima	10.8
10016	7	Sololá	701	Sololá	2	El tablón	12	Diciembre	2023-12-25T00:00:00	2024-11-08T21:00:00	5	Humedad	89
10017	7	Sololá	701	Sololá	2	El tablón	12	Diciembre	2023-12-25T00:00:00	2024-11-08T21:00:00	6	Velocidad del viento	4.8
10018	7	Sololá	701	Sololá	2	El tablón	12	Diciembre	2023-12-25T00:00:00	2024-11-08T21:00:00	7	Dirección del viento	4.83
10019	7	Sololá	701	Sololá	2	El tablón	12	Diciembre	2023-12-25T00:00:00	2024-11-08T21:00:00	1	Precipitación	0
10020	7	Sololá	701	Sololá	2	El tablón	12	Diciembre	2023-12-25T00:00:00	2024-11-08T21:00:00	8	Radiación solar	0
10021	7	Sololá	701	Sololá	2	El tablón	12	Diciembre	2023-12-25T00:00:00	2024-11-08T22:00:00	2	Temperatura media	11.8
10022	7	Sololá	701	Sololá	2	El tablón	12	Diciembre	2023-12-25T00:00:00	2024-11-08T22:00:00	4	Temperatura máxima	11.9
10023	7	Sololá	701	Sololá	2	El tablón	12	Diciembre	2023-12-25T00:00:00	2024-11-08T22:00:00	3	Temperatura mínima	10.9
10024	7	Sololá	701	Sololá	2	El tablón	12	Diciembre	2023-12-25T00:00:00	2024-11-08T22:00:00	5	Humedad	86
10025	7	Sololá	701	Sololá	2	El tablón	12	Diciembre	2023-12-25T00:00:00	2024-11-08T22:00:00	6	Velocidad del viento	3.2
10026	7	Sololá	701	Sololá	2	El tablón	12	Diciembre	2023-12-25T00:00:00	2024-11-08T22:00:00	7	Dirección del viento	3.22
10027	7	Sololá	701	Sololá	2	El tablón	12	Diciembre	2023-12-25T00:00:00	2024-11-08T22:00:00	1	Precipitación	0
10028	7	Sololá	701	Sololá	2	El tablón	12	Diciembre	2023-12-25T00:00:00	2024-11-08T22:00:00	8	Radiación solar	0
10029	7	Sololá	701	Sololá	2	El tablón	12	Diciembre	2023-12-25T00:00:00	2024-11-08T23:00:00	2	Temperatura media	11.7
10030	7	Sololá	701	Sololá	2	El tablón	12	Diciembre	2023-12-25T00:00:00	2024-11-08T23:00:00	4	Temperatura máxima	11.8
10031	7	Sololá	701	Sololá	2	El tablón	12	Diciembre	2023-12-25T00:00:00	2024-11-08T23:00:00	3	Temperatura mínima	10.8
10032	7	Sololá	701	Sololá	2	El tablón	12	Diciembre	2023-12-25T00:00:00	2024-11-08T23:00:00	5	Humedad	87
10033	7	Sololá	701	Sololá	2	El tablón	12	Diciembre	2023-12-25T00:00:00	2024-11-08T23:00:00	6	Velocidad del viento	3.2
10034	7	Sololá	701	Sololá	2	El tablón	12	Diciembre	2023-12-25T00:00:00	2024-11-08T23:00:00	7	Dirección del viento	3.22
10035	7	Sololá	701	Sololá	2	El tablón	12	Diciembre	2023-12-25T00:00:00	2024-11-08T23:00:00	1	Precipitación	0
10036	7	Sololá	701	Sololá	2	El tablón	12	Diciembre	2023-12-25T00:00:00	2024-11-08T23:00:00	8	Radiación solar	0
10037	7	Sololá	701	Sololá	2	El tablón	12	Diciembre	2023-12-26T00:00:00	2024-11-08T00:00:00	2	Temperatura media	11.5
10038	7	Sololá	701	Sololá	2	El tablón	12	Diciembre	2023-12-26T00:00:00	2024-11-08T00:00:00	4	Temperatura máxima	12
10039	7	Sololá	701	Sololá	2	El tablón	12	Diciembre	2023-12-26T00:00:00	2024-11-08T00:00:00	3	Temperatura mínima	11.5
10040	7	Sololá	701	Sololá	2	El tablón	12	Diciembre	2023-12-26T00:00:00	2024-11-08T00:00:00	5	Humedad	87
10041	7	Sololá	701	Sololá	2	El tablón	12	Diciembre	2023-12-26T00:00:00	2024-11-08T00:00:00	6	Velocidad del viento	4.8
10042	7	Sololá	701	Sololá	2	El tablón	12	Diciembre	2023-12-26T00:00:00	2024-11-08T00:00:00	7	Dirección del viento	4.83
10043	7	Sololá	701	Sololá	2	El tablón	12	Diciembre	2023-12-26T00:00:00	2024-11-08T00:00:00	1	Precipitación	0
10044	7	Sololá	701	Sololá	2	El tablón	12	Diciembre	2023-12-26T00:00:00	2024-11-08T00:00:00	8	Radiación solar	0
10045	7	Sololá	701	Sololá	2	El tablón	12	Diciembre	2023-12-26T00:00:00	2024-11-08T01:00:00	2	Temperatura media	9.7
10046	7	Sololá	701	Sololá	2	El tablón	12	Diciembre	2023-12-26T00:00:00	2024-11-08T01:00:00	4	Temperatura máxima	11.5
10047	7	Sololá	701	Sololá	2	El tablón	12	Diciembre	2023-12-26T00:00:00	2024-11-08T01:00:00	3	Temperatura mínima	9.7
10048	7	Sololá	701	Sololá	2	El tablón	12	Diciembre	2023-12-26T00:00:00	2024-11-08T01:00:00	5	Humedad	89
10049	7	Sololá	701	Sololá	2	El tablón	12	Diciembre	2023-12-26T00:00:00	2024-11-08T01:00:00	6	Velocidad del viento	1.6
10050	7	Sololá	701	Sololá	2	El tablón	12	Diciembre	2023-12-26T00:00:00	2024-11-08T01:00:00	7	Dirección del viento	1.61
10051	7	Sololá	701	Sololá	2	El tablón	12	Diciembre	2023-12-26T00:00:00	2024-11-08T01:00:00	1	Precipitación	0
10052	7	Sololá	701	Sololá	2	El tablón	12	Diciembre	2023-12-26T00:00:00	2024-11-08T01:00:00	8	Radiación solar	0
10053	7	Sololá	701	Sololá	2	El tablón	12	Diciembre	2023-12-26T00:00:00	2024-11-08T02:00:00	2	Temperatura media	9.6
10054	7	Sololá	701	Sololá	2	El tablón	12	Diciembre	2023-12-26T00:00:00	2024-11-08T02:00:00	4	Temperatura máxima	9.8
10055	7	Sololá	701	Sololá	2	El tablón	12	Diciembre	2023-12-26T00:00:00	2024-11-08T02:00:00	3	Temperatura mínima	9.4
10056	7	Sololá	701	Sololá	2	El tablón	12	Diciembre	2023-12-26T00:00:00	2024-11-08T02:00:00	5	Humedad	89
10057	7	Sololá	701	Sololá	2	El tablón	12	Diciembre	2023-12-26T00:00:00	2024-11-08T02:00:00	6	Velocidad del viento	3.2
10058	7	Sololá	701	Sololá	2	El tablón	12	Diciembre	2023-12-26T00:00:00	2024-11-08T02:00:00	7	Dirección del viento	3.22
10059	7	Sololá	701	Sololá	2	El tablón	12	Diciembre	2023-12-26T00:00:00	2024-11-08T02:00:00	1	Precipitación	0
10060	7	Sololá	701	Sololá	2	El tablón	12	Diciembre	2023-12-26T00:00:00	2024-11-08T02:00:00	8	Radiación solar	0
10061	7	Sololá	701	Sololá	2	El tablón	12	Diciembre	2023-12-26T00:00:00	2024-11-08T03:00:00	2	Temperatura media	9.2
10062	7	Sololá	701	Sololá	2	El tablón	12	Diciembre	2023-12-26T00:00:00	2024-11-08T03:00:00	4	Temperatura máxima	9.6
10063	7	Sololá	701	Sololá	2	El tablón	12	Diciembre	2023-12-26T00:00:00	2024-11-08T03:00:00	3	Temperatura mínima	9.2
10064	7	Sololá	701	Sololá	2	El tablón	12	Diciembre	2023-12-26T00:00:00	2024-11-08T03:00:00	5	Humedad	89
10065	7	Sololá	701	Sololá	2	El tablón	12	Diciembre	2023-12-26T00:00:00	2024-11-08T03:00:00	6	Velocidad del viento	3.2
10066	7	Sololá	701	Sololá	2	El tablón	12	Diciembre	2023-12-26T00:00:00	2024-11-08T03:00:00	7	Dirección del viento	3.22
10067	7	Sololá	701	Sololá	2	El tablón	12	Diciembre	2023-12-26T00:00:00	2024-11-08T03:00:00	1	Precipitación	0
10068	7	Sololá	701	Sololá	2	El tablón	12	Diciembre	2023-12-26T00:00:00	2024-11-08T03:00:00	8	Radiación solar	0
10069	7	Sololá	701	Sololá	2	El tablón	12	Diciembre	2023-12-26T00:00:00	2024-11-08T04:00:00	2	Temperatura media	9.1
10070	7	Sololá	701	Sololá	2	El tablón	12	Diciembre	2023-12-26T00:00:00	2024-11-08T04:00:00	4	Temperatura máxima	9.2
10071	7	Sololá	701	Sololá	2	El tablón	12	Diciembre	2023-12-26T00:00:00	2024-11-08T04:00:00	3	Temperatura mínima	9
10072	7	Sololá	701	Sololá	2	El tablón	12	Diciembre	2023-12-26T00:00:00	2024-11-08T04:00:00	5	Humedad	89
10073	7	Sololá	701	Sololá	2	El tablón	12	Diciembre	2023-12-26T00:00:00	2024-11-08T04:00:00	6	Velocidad del viento	4.8
10074	7	Sololá	701	Sololá	2	El tablón	12	Diciembre	2023-12-26T00:00:00	2024-11-08T04:00:00	7	Dirección del viento	4.83
10075	7	Sololá	701	Sololá	2	El tablón	12	Diciembre	2023-12-26T00:00:00	2024-11-08T04:00:00	1	Precipitación	0
10076	7	Sololá	701	Sololá	2	El tablón	12	Diciembre	2023-12-26T00:00:00	2024-11-08T04:00:00	8	Radiación solar	0
10077	7	Sololá	701	Sololá	2	El tablón	12	Diciembre	2023-12-26T00:00:00	2024-11-08T05:00:00	2	Temperatura media	9
10078	7	Sololá	701	Sololá	2	El tablón	12	Diciembre	2023-12-26T00:00:00	2024-11-08T05:00:00	4	Temperatura máxima	9.1
10079	7	Sololá	701	Sololá	2	El tablón	12	Diciembre	2023-12-26T00:00:00	2024-11-08T05:00:00	3	Temperatura mínima	8.8
10080	7	Sololá	701	Sololá	2	El tablón	12	Diciembre	2023-12-26T00:00:00	2024-11-08T05:00:00	5	Humedad	89
10081	7	Sololá	701	Sololá	2	El tablón	12	Diciembre	2023-12-26T00:00:00	2024-11-08T05:00:00	6	Velocidad del viento	3.2
10082	7	Sololá	701	Sololá	2	El tablón	12	Diciembre	2023-12-26T00:00:00	2024-11-08T05:00:00	7	Dirección del viento	3.22
10083	7	Sololá	701	Sololá	2	El tablón	12	Diciembre	2023-12-26T00:00:00	2024-11-08T05:00:00	1	Precipitación	0
10084	7	Sololá	701	Sololá	2	El tablón	12	Diciembre	2023-12-26T00:00:00	2024-11-08T05:00:00	8	Radiación solar	0
10085	7	Sololá	701	Sololá	2	El tablón	12	Diciembre	2023-12-26T00:00:00	2024-11-08T06:00:00	2	Temperatura media	8.3
10086	7	Sololá	701	Sololá	2	El tablón	12	Diciembre	2023-12-26T00:00:00	2024-11-08T06:00:00	4	Temperatura máxima	9
10087	7	Sololá	701	Sololá	2	El tablón	12	Diciembre	2023-12-26T00:00:00	2024-11-08T06:00:00	3	Temperatura mínima	8.3
10088	7	Sololá	701	Sololá	2	El tablón	12	Diciembre	2023-12-26T00:00:00	2024-11-08T06:00:00	5	Humedad	89
10089	7	Sololá	701	Sololá	2	El tablón	12	Diciembre	2023-12-26T00:00:00	2024-11-08T06:00:00	6	Velocidad del viento	4.8
10090	7	Sololá	701	Sololá	2	El tablón	12	Diciembre	2023-12-26T00:00:00	2024-11-08T06:00:00	7	Dirección del viento	4.83
10091	7	Sololá	701	Sololá	2	El tablón	12	Diciembre	2023-12-26T00:00:00	2024-11-08T06:00:00	1	Precipitación	0
10092	7	Sololá	701	Sololá	2	El tablón	12	Diciembre	2023-12-26T00:00:00	2024-11-08T06:00:00	8	Radiación solar	0
10093	7	Sololá	701	Sololá	2	El tablón	12	Diciembre	2023-12-26T00:00:00	2024-11-08T07:00:00	2	Temperatura media	9.2
10094	7	Sololá	701	Sololá	2	El tablón	12	Diciembre	2023-12-26T00:00:00	2024-11-08T07:00:00	4	Temperatura máxima	9.2
10095	7	Sololá	701	Sololá	2	El tablón	12	Diciembre	2023-12-26T00:00:00	2024-11-08T07:00:00	3	Temperatura mínima	8.3
10096	7	Sololá	701	Sololá	2	El tablón	12	Diciembre	2023-12-26T00:00:00	2024-11-08T07:00:00	5	Humedad	88
10097	7	Sololá	701	Sololá	2	El tablón	12	Diciembre	2023-12-26T00:00:00	2024-11-08T07:00:00	6	Velocidad del viento	4.8
10098	7	Sololá	701	Sololá	2	El tablón	12	Diciembre	2023-12-26T00:00:00	2024-11-08T07:00:00	7	Dirección del viento	4.83
10099	7	Sololá	701	Sololá	2	El tablón	12	Diciembre	2023-12-26T00:00:00	2024-11-08T07:00:00	1	Precipitación	0
10100	7	Sololá	701	Sololá	2	El tablón	12	Diciembre	2023-12-26T00:00:00	2024-11-08T07:00:00	8	Radiación solar	12
10101	7	Sololá	701	Sololá	2	El tablón	12	Diciembre	2023-12-26T00:00:00	2024-11-08T08:00:00	2	Temperatura media	12.2
10102	7	Sololá	701	Sololá	2	El tablón	12	Diciembre	2023-12-26T00:00:00	2024-11-08T08:00:00	4	Temperatura máxima	12.2
10103	7	Sololá	701	Sololá	2	El tablón	12	Diciembre	2023-12-26T00:00:00	2024-11-08T08:00:00	3	Temperatura mínima	9.1
10104	7	Sololá	701	Sololá	2	El tablón	12	Diciembre	2023-12-26T00:00:00	2024-11-08T08:00:00	5	Humedad	82
10105	7	Sololá	701	Sololá	2	El tablón	12	Diciembre	2023-12-26T00:00:00	2024-11-08T08:00:00	6	Velocidad del viento	3.2
10106	7	Sololá	701	Sololá	2	El tablón	12	Diciembre	2023-12-26T00:00:00	2024-11-08T08:00:00	7	Dirección del viento	3.22
10107	7	Sololá	701	Sololá	2	El tablón	12	Diciembre	2023-12-26T00:00:00	2024-11-08T08:00:00	1	Precipitación	0
10108	7	Sololá	701	Sololá	2	El tablón	12	Diciembre	2023-12-26T00:00:00	2024-11-08T08:00:00	8	Radiación solar	138
10109	7	Sololá	701	Sololá	2	El tablón	12	Diciembre	2023-12-26T00:00:00	2024-11-08T09:00:00	2	Temperatura media	15.6
10110	7	Sololá	701	Sololá	2	El tablón	12	Diciembre	2023-12-26T00:00:00	2024-11-08T09:00:00	4	Temperatura máxima	15.6
10111	7	Sololá	701	Sololá	2	El tablón	12	Diciembre	2023-12-26T00:00:00	2024-11-08T09:00:00	3	Temperatura mínima	12.2
10112	7	Sololá	701	Sololá	2	El tablón	12	Diciembre	2023-12-26T00:00:00	2024-11-08T09:00:00	5	Humedad	66
10113	7	Sololá	701	Sololá	2	El tablón	12	Diciembre	2023-12-26T00:00:00	2024-11-08T09:00:00	6	Velocidad del viento	1.6
10114	7	Sololá	701	Sololá	2	El tablón	12	Diciembre	2023-12-26T00:00:00	2024-11-08T09:00:00	7	Dirección del viento	1.61
10115	7	Sololá	701	Sololá	2	El tablón	12	Diciembre	2023-12-26T00:00:00	2024-11-08T09:00:00	1	Precipitación	0
10116	7	Sololá	701	Sololá	2	El tablón	12	Diciembre	2023-12-26T00:00:00	2024-11-08T09:00:00	8	Radiación solar	361
10117	7	Sololá	701	Sololá	2	El tablón	12	Diciembre	2023-12-26T00:00:00	2024-11-08T10:00:00	2	Temperatura media	16.6
10118	7	Sololá	701	Sololá	2	El tablón	12	Diciembre	2023-12-26T00:00:00	2024-11-08T10:00:00	4	Temperatura máxima	16.8
10119	7	Sololá	701	Sololá	2	El tablón	12	Diciembre	2023-12-26T00:00:00	2024-11-08T10:00:00	3	Temperatura mínima	15.6
10120	7	Sololá	701	Sololá	2	El tablón	12	Diciembre	2023-12-26T00:00:00	2024-11-08T10:00:00	5	Humedad	67
10121	7	Sololá	701	Sololá	2	El tablón	12	Diciembre	2023-12-26T00:00:00	2024-11-08T10:00:00	6	Velocidad del viento	3.2
10122	7	Sololá	701	Sololá	2	El tablón	12	Diciembre	2023-12-26T00:00:00	2024-11-08T10:00:00	7	Dirección del viento	3.22
10123	7	Sololá	701	Sololá	2	El tablón	12	Diciembre	2023-12-26T00:00:00	2024-11-08T10:00:00	1	Precipitación	0
10124	7	Sololá	701	Sololá	2	El tablón	12	Diciembre	2023-12-26T00:00:00	2024-11-08T10:00:00	8	Radiación solar	541
10125	7	Sololá	701	Sololá	2	El tablón	12	Diciembre	2023-12-26T00:00:00	2024-11-08T11:00:00	2	Temperatura media	17.6
10126	7	Sololá	701	Sololá	2	El tablón	12	Diciembre	2023-12-26T00:00:00	2024-11-08T11:00:00	4	Temperatura máxima	17.6
10127	7	Sololá	701	Sololá	2	El tablón	12	Diciembre	2023-12-26T00:00:00	2024-11-08T11:00:00	3	Temperatura mínima	16.6
10128	7	Sololá	701	Sololá	2	El tablón	12	Diciembre	2023-12-26T00:00:00	2024-11-08T11:00:00	5	Humedad	61
10129	7	Sololá	701	Sololá	2	El tablón	12	Diciembre	2023-12-26T00:00:00	2024-11-08T11:00:00	6	Velocidad del viento	6.4
10130	7	Sololá	701	Sololá	2	El tablón	12	Diciembre	2023-12-26T00:00:00	2024-11-08T11:00:00	7	Dirección del viento	6.44
10131	7	Sololá	701	Sololá	2	El tablón	12	Diciembre	2023-12-26T00:00:00	2024-11-08T11:00:00	1	Precipitación	0
10132	7	Sololá	701	Sololá	2	El tablón	12	Diciembre	2023-12-26T00:00:00	2024-11-08T11:00:00	8	Radiación solar	680
10133	7	Sololá	701	Sololá	2	El tablón	12	Diciembre	2023-12-26T00:00:00	2024-11-08T12:00:00	2	Temperatura media	17.4
10134	7	Sololá	701	Sololá	2	El tablón	12	Diciembre	2023-12-26T00:00:00	2024-11-08T12:00:00	4	Temperatura máxima	18.1
10135	7	Sololá	701	Sololá	2	El tablón	12	Diciembre	2023-12-26T00:00:00	2024-11-08T12:00:00	3	Temperatura mínima	17.4
10136	7	Sololá	701	Sololá	2	El tablón	12	Diciembre	2023-12-26T00:00:00	2024-11-08T12:00:00	5	Humedad	59
10137	7	Sololá	701	Sololá	2	El tablón	12	Diciembre	2023-12-26T00:00:00	2024-11-08T12:00:00	6	Velocidad del viento	8
10138	7	Sololá	701	Sololá	2	El tablón	12	Diciembre	2023-12-26T00:00:00	2024-11-08T12:00:00	7	Dirección del viento	8.05
10139	7	Sololá	701	Sololá	2	El tablón	12	Diciembre	2023-12-26T00:00:00	2024-11-08T12:00:00	1	Precipitación	0
10140	7	Sololá	701	Sololá	2	El tablón	12	Diciembre	2023-12-26T00:00:00	2024-11-08T12:00:00	8	Radiación solar	675
10141	7	Sololá	701	Sololá	2	El tablón	12	Diciembre	2023-12-26T00:00:00	2024-11-08T13:00:00	2	Temperatura media	17.2
10142	7	Sololá	701	Sololá	2	El tablón	12	Diciembre	2023-12-26T00:00:00	2024-11-08T13:00:00	4	Temperatura máxima	18.1
10143	7	Sololá	701	Sololá	2	El tablón	12	Diciembre	2023-12-26T00:00:00	2024-11-08T13:00:00	3	Temperatura mínima	17
10144	7	Sololá	701	Sololá	2	El tablón	12	Diciembre	2023-12-26T00:00:00	2024-11-08T13:00:00	5	Humedad	71
10145	7	Sololá	701	Sololá	2	El tablón	12	Diciembre	2023-12-26T00:00:00	2024-11-08T13:00:00	6	Velocidad del viento	8
10146	7	Sololá	701	Sololá	2	El tablón	12	Diciembre	2023-12-26T00:00:00	2024-11-08T13:00:00	7	Dirección del viento	8.05
10147	7	Sololá	701	Sololá	2	El tablón	12	Diciembre	2023-12-26T00:00:00	2024-11-08T13:00:00	1	Precipitación	0
10148	7	Sololá	701	Sololá	2	El tablón	12	Diciembre	2023-12-26T00:00:00	2024-11-08T13:00:00	8	Radiación solar	726
10149	7	Sololá	701	Sololá	2	El tablón	12	Diciembre	2023-12-26T00:00:00	2024-11-08T14:00:00	2	Temperatura media	16.9
10150	7	Sololá	701	Sololá	2	El tablón	12	Diciembre	2023-12-26T00:00:00	2024-11-08T14:00:00	4	Temperatura máxima	17.4
10151	7	Sololá	701	Sololá	2	El tablón	12	Diciembre	2023-12-26T00:00:00	2024-11-08T14:00:00	3	Temperatura mínima	16.7
10152	7	Sololá	701	Sololá	2	El tablón	12	Diciembre	2023-12-26T00:00:00	2024-11-08T14:00:00	5	Humedad	78
10153	7	Sololá	701	Sololá	2	El tablón	12	Diciembre	2023-12-26T00:00:00	2024-11-08T14:00:00	6	Velocidad del viento	9.7
10154	7	Sololá	701	Sololá	2	El tablón	12	Diciembre	2023-12-26T00:00:00	2024-11-08T14:00:00	7	Dirección del viento	9.66
10155	7	Sololá	701	Sololá	2	El tablón	12	Diciembre	2023-12-26T00:00:00	2024-11-08T14:00:00	1	Precipitación	0
10156	7	Sololá	701	Sololá	2	El tablón	12	Diciembre	2023-12-26T00:00:00	2024-11-08T14:00:00	8	Radiación solar	712
10157	7	Sololá	701	Sololá	2	El tablón	12	Diciembre	2023-12-26T00:00:00	2024-11-08T15:00:00	2	Temperatura media	16.3
10158	7	Sololá	701	Sololá	2	El tablón	12	Diciembre	2023-12-26T00:00:00	2024-11-08T15:00:00	4	Temperatura máxima	16.9
10159	7	Sololá	701	Sololá	2	El tablón	12	Diciembre	2023-12-26T00:00:00	2024-11-08T15:00:00	3	Temperatura mínima	16.1
10160	7	Sololá	701	Sololá	2	El tablón	12	Diciembre	2023-12-26T00:00:00	2024-11-08T15:00:00	5	Humedad	81
10161	7	Sololá	701	Sololá	2	El tablón	12	Diciembre	2023-12-26T00:00:00	2024-11-08T15:00:00	6	Velocidad del viento	8
10162	7	Sololá	701	Sololá	2	El tablón	12	Diciembre	2023-12-26T00:00:00	2024-11-08T15:00:00	7	Dirección del viento	8.05
10163	7	Sololá	701	Sololá	2	El tablón	12	Diciembre	2023-12-26T00:00:00	2024-11-08T15:00:00	1	Precipitación	0
10164	7	Sololá	701	Sololá	2	El tablón	12	Diciembre	2023-12-26T00:00:00	2024-11-08T15:00:00	8	Radiación solar	562
10165	7	Sololá	701	Sololá	2	El tablón	12	Diciembre	2023-12-26T00:00:00	2024-11-08T16:00:00	2	Temperatura media	15.3
10166	7	Sololá	701	Sololá	2	El tablón	12	Diciembre	2023-12-26T00:00:00	2024-11-08T16:00:00	4	Temperatura máxima	16.4
10167	7	Sololá	701	Sololá	2	El tablón	12	Diciembre	2023-12-26T00:00:00	2024-11-08T16:00:00	3	Temperatura mínima	15.3
10168	7	Sololá	701	Sololá	2	El tablón	12	Diciembre	2023-12-26T00:00:00	2024-11-08T16:00:00	5	Humedad	85
10169	7	Sololá	701	Sololá	2	El tablón	12	Diciembre	2023-12-26T00:00:00	2024-11-08T16:00:00	6	Velocidad del viento	6.4
10170	7	Sololá	701	Sololá	2	El tablón	12	Diciembre	2023-12-26T00:00:00	2024-11-08T16:00:00	7	Dirección del viento	6.44
10171	7	Sololá	701	Sololá	2	El tablón	12	Diciembre	2023-12-26T00:00:00	2024-11-08T16:00:00	1	Precipitación	0
10172	7	Sololá	701	Sololá	2	El tablón	12	Diciembre	2023-12-26T00:00:00	2024-11-08T16:00:00	8	Radiación solar	322
10173	7	Sololá	701	Sololá	2	El tablón	12	Diciembre	2023-12-26T00:00:00	2024-11-08T17:00:00	2	Temperatura media	14.8
10174	7	Sololá	701	Sololá	2	El tablón	12	Diciembre	2023-12-26T00:00:00	2024-11-08T17:00:00	4	Temperatura máxima	15.5
10175	7	Sololá	701	Sololá	2	El tablón	12	Diciembre	2023-12-26T00:00:00	2024-11-08T17:00:00	3	Temperatura mínima	14.8
10176	7	Sololá	701	Sololá	2	El tablón	12	Diciembre	2023-12-26T00:00:00	2024-11-08T17:00:00	5	Humedad	87
10177	7	Sololá	701	Sololá	2	El tablón	12	Diciembre	2023-12-26T00:00:00	2024-11-08T17:00:00	6	Velocidad del viento	6.4
10178	7	Sololá	701	Sololá	2	El tablón	12	Diciembre	2023-12-26T00:00:00	2024-11-08T17:00:00	7	Dirección del viento	6.44
10179	7	Sololá	701	Sololá	2	El tablón	12	Diciembre	2023-12-26T00:00:00	2024-11-08T17:00:00	1	Precipitación	0
10180	7	Sololá	701	Sololá	2	El tablón	12	Diciembre	2023-12-26T00:00:00	2024-11-08T17:00:00	8	Radiación solar	181
10181	7	Sololá	701	Sololá	2	El tablón	12	Diciembre	2023-12-26T00:00:00	2024-11-08T18:00:00	2	Temperatura media	13.6
10182	7	Sololá	701	Sololá	2	El tablón	12	Diciembre	2023-12-26T00:00:00	2024-11-08T18:00:00	4	Temperatura máxima	14.8
10183	7	Sololá	701	Sololá	2	El tablón	12	Diciembre	2023-12-26T00:00:00	2024-11-08T18:00:00	3	Temperatura mínima	13.6
10184	7	Sololá	701	Sololá	2	El tablón	12	Diciembre	2023-12-26T00:00:00	2024-11-08T18:00:00	5	Humedad	88
10185	7	Sololá	701	Sololá	2	El tablón	12	Diciembre	2023-12-26T00:00:00	2024-11-08T18:00:00	6	Velocidad del viento	0
10186	7	Sololá	701	Sololá	2	El tablón	12	Diciembre	2023-12-26T00:00:00	2024-11-08T18:00:00	7	Dirección del viento	0
10187	7	Sololá	701	Sololá	2	El tablón	12	Diciembre	2023-12-26T00:00:00	2024-11-08T18:00:00	1	Precipitación	0
10188	7	Sololá	701	Sololá	2	El tablón	12	Diciembre	2023-12-26T00:00:00	2024-11-08T18:00:00	8	Radiación solar	17
10189	7	Sololá	701	Sololá	2	El tablón	12	Diciembre	2023-12-26T00:00:00	2024-11-08T19:00:00	2	Temperatura media	12.5
10190	7	Sololá	701	Sololá	2	El tablón	12	Diciembre	2023-12-26T00:00:00	2024-11-08T19:00:00	4	Temperatura máxima	13.6
10191	7	Sololá	701	Sololá	2	El tablón	12	Diciembre	2023-12-26T00:00:00	2024-11-08T19:00:00	3	Temperatura mínima	12.5
10192	7	Sololá	701	Sololá	2	El tablón	12	Diciembre	2023-12-26T00:00:00	2024-11-08T19:00:00	5	Humedad	88
10193	7	Sololá	701	Sololá	2	El tablón	12	Diciembre	2023-12-26T00:00:00	2024-11-08T19:00:00	6	Velocidad del viento	0
10194	7	Sololá	701	Sololá	2	El tablón	12	Diciembre	2023-12-26T00:00:00	2024-11-08T19:00:00	7	Dirección del viento	0
10195	7	Sololá	701	Sololá	2	El tablón	12	Diciembre	2023-12-26T00:00:00	2024-11-08T19:00:00	1	Precipitación	0
10196	7	Sololá	701	Sololá	2	El tablón	12	Diciembre	2023-12-26T00:00:00	2024-11-08T19:00:00	8	Radiación solar	0
10197	7	Sololá	701	Sololá	2	El tablón	12	Diciembre	2023-12-26T00:00:00	2024-11-08T20:00:00	2	Temperatura media	11.8
10198	7	Sololá	701	Sololá	2	El tablón	12	Diciembre	2023-12-26T00:00:00	2024-11-08T20:00:00	4	Temperatura máxima	12.5
10199	7	Sololá	701	Sololá	2	El tablón	12	Diciembre	2023-12-26T00:00:00	2024-11-08T20:00:00	3	Temperatura mínima	11.8
10200	7	Sololá	701	Sololá	2	El tablón	12	Diciembre	2023-12-26T00:00:00	2024-11-08T20:00:00	5	Humedad	87
10201	7	Sololá	701	Sololá	2	El tablón	12	Diciembre	2023-12-26T00:00:00	2024-11-08T20:00:00	6	Velocidad del viento	0
10202	7	Sololá	701	Sololá	2	El tablón	12	Diciembre	2023-12-26T00:00:00	2024-11-08T20:00:00	7	Dirección del viento	0
10203	7	Sololá	701	Sololá	2	El tablón	12	Diciembre	2023-12-26T00:00:00	2024-11-08T20:00:00	1	Precipitación	0
10204	7	Sololá	701	Sololá	2	El tablón	12	Diciembre	2023-12-26T00:00:00	2024-11-08T20:00:00	8	Radiación solar	0
10205	7	Sololá	701	Sololá	2	El tablón	12	Diciembre	2023-12-26T00:00:00	2024-11-08T21:00:00	2	Temperatura media	11.7
10206	7	Sololá	701	Sololá	2	El tablón	12	Diciembre	2023-12-26T00:00:00	2024-11-08T21:00:00	4	Temperatura máxima	12.1
10207	7	Sololá	701	Sololá	2	El tablón	12	Diciembre	2023-12-26T00:00:00	2024-11-08T21:00:00	3	Temperatura mínima	11.7
10208	7	Sololá	701	Sololá	2	El tablón	12	Diciembre	2023-12-26T00:00:00	2024-11-08T21:00:00	5	Humedad	88
10209	7	Sololá	701	Sololá	2	El tablón	12	Diciembre	2023-12-26T00:00:00	2024-11-08T21:00:00	6	Velocidad del viento	1.6
10210	7	Sololá	701	Sololá	2	El tablón	12	Diciembre	2023-12-26T00:00:00	2024-11-08T21:00:00	7	Dirección del viento	1.61
10211	7	Sololá	701	Sololá	2	El tablón	12	Diciembre	2023-12-26T00:00:00	2024-11-08T21:00:00	1	Precipitación	0
10212	7	Sololá	701	Sololá	2	El tablón	12	Diciembre	2023-12-26T00:00:00	2024-11-08T21:00:00	8	Radiación solar	0
10213	7	Sololá	701	Sololá	2	El tablón	12	Diciembre	2023-12-26T00:00:00	2024-11-08T22:00:00	2	Temperatura media	11.3
10214	7	Sololá	701	Sololá	2	El tablón	12	Diciembre	2023-12-26T00:00:00	2024-11-08T22:00:00	4	Temperatura máxima	11.7
10215	7	Sololá	701	Sololá	2	El tablón	12	Diciembre	2023-12-26T00:00:00	2024-11-08T22:00:00	3	Temperatura mínima	10.9
10216	7	Sololá	701	Sololá	2	El tablón	12	Diciembre	2023-12-26T00:00:00	2024-11-08T22:00:00	5	Humedad	88
10217	7	Sololá	701	Sololá	2	El tablón	12	Diciembre	2023-12-26T00:00:00	2024-11-08T22:00:00	6	Velocidad del viento	3.2
10218	7	Sololá	701	Sololá	2	El tablón	12	Diciembre	2023-12-26T00:00:00	2024-11-08T22:00:00	7	Dirección del viento	3.22
10219	7	Sololá	701	Sololá	2	El tablón	12	Diciembre	2023-12-26T00:00:00	2024-11-08T22:00:00	1	Precipitación	0
10220	7	Sololá	701	Sololá	2	El tablón	12	Diciembre	2023-12-26T00:00:00	2024-11-08T22:00:00	8	Radiación solar	0
10221	7	Sololá	701	Sololá	2	El tablón	12	Diciembre	2023-12-26T00:00:00	2024-11-08T23:00:00	2	Temperatura media	11.2
10222	7	Sololá	701	Sololá	2	El tablón	12	Diciembre	2023-12-26T00:00:00	2024-11-08T23:00:00	4	Temperatura máxima	11.3
10223	7	Sololá	701	Sololá	2	El tablón	12	Diciembre	2023-12-26T00:00:00	2024-11-08T23:00:00	3	Temperatura mínima	11.1
10224	7	Sololá	701	Sololá	2	El tablón	12	Diciembre	2023-12-26T00:00:00	2024-11-08T23:00:00	5	Humedad	88
10225	7	Sololá	701	Sololá	2	El tablón	12	Diciembre	2023-12-26T00:00:00	2024-11-08T23:00:00	6	Velocidad del viento	3.2
10226	7	Sololá	701	Sololá	2	El tablón	12	Diciembre	2023-12-26T00:00:00	2024-11-08T23:00:00	7	Dirección del viento	3.22
10227	7	Sololá	701	Sololá	2	El tablón	12	Diciembre	2023-12-26T00:00:00	2024-11-08T23:00:00	1	Precipitación	0
10228	7	Sololá	701	Sololá	2	El tablón	12	Diciembre	2023-12-26T00:00:00	2024-11-08T23:00:00	8	Radiación solar	0
10229	7	Sololá	701	Sololá	2	El tablón	12	Diciembre	2023-12-27T00:00:00	2024-11-08T00:00:00	2	Temperatura media	10.7
10230	7	Sololá	701	Sololá	2	El tablón	12	Diciembre	2023-12-27T00:00:00	2024-11-08T00:00:00	4	Temperatura máxima	11.2
10231	7	Sololá	701	Sololá	2	El tablón	12	Diciembre	2023-12-27T00:00:00	2024-11-08T00:00:00	3	Temperatura mínima	10.7
10232	7	Sololá	701	Sololá	2	El tablón	12	Diciembre	2023-12-27T00:00:00	2024-11-08T00:00:00	5	Humedad	88
10233	7	Sololá	701	Sololá	2	El tablón	12	Diciembre	2023-12-27T00:00:00	2024-11-08T00:00:00	6	Velocidad del viento	0
10234	7	Sololá	701	Sololá	2	El tablón	12	Diciembre	2023-12-27T00:00:00	2024-11-08T00:00:00	7	Dirección del viento	0
10235	7	Sololá	701	Sololá	2	El tablón	12	Diciembre	2023-12-27T00:00:00	2024-11-08T00:00:00	1	Precipitación	0
10236	7	Sololá	701	Sololá	2	El tablón	12	Diciembre	2023-12-27T00:00:00	2024-11-08T00:00:00	8	Radiación solar	0
10237	7	Sololá	701	Sololá	2	El tablón	12	Diciembre	2023-12-27T00:00:00	2024-11-08T01:00:00	2	Temperatura media	10.2
10238	7	Sololá	701	Sololá	2	El tablón	12	Diciembre	2023-12-27T00:00:00	2024-11-08T01:00:00	4	Temperatura máxima	10.7
10239	7	Sololá	701	Sololá	2	El tablón	12	Diciembre	2023-12-27T00:00:00	2024-11-08T01:00:00	3	Temperatura mínima	10.1
10240	7	Sololá	701	Sololá	2	El tablón	12	Diciembre	2023-12-27T00:00:00	2024-11-08T01:00:00	5	Humedad	89
10241	7	Sololá	701	Sololá	2	El tablón	12	Diciembre	2023-12-27T00:00:00	2024-11-08T01:00:00	6	Velocidad del viento	0
10242	7	Sololá	701	Sololá	2	El tablón	12	Diciembre	2023-12-27T00:00:00	2024-11-08T01:00:00	7	Dirección del viento	0
10243	7	Sololá	701	Sololá	2	El tablón	12	Diciembre	2023-12-27T00:00:00	2024-11-08T01:00:00	1	Precipitación	0
10244	7	Sololá	701	Sololá	2	El tablón	12	Diciembre	2023-12-27T00:00:00	2024-11-08T01:00:00	8	Radiación solar	0
10245	7	Sololá	701	Sololá	2	El tablón	12	Diciembre	2023-12-27T00:00:00	2024-11-08T02:00:00	2	Temperatura media	9.8
10246	7	Sololá	701	Sololá	2	El tablón	12	Diciembre	2023-12-27T00:00:00	2024-11-08T02:00:00	4	Temperatura máxima	10.3
10247	7	Sololá	701	Sololá	2	El tablón	12	Diciembre	2023-12-27T00:00:00	2024-11-08T02:00:00	3	Temperatura mínima	9.6
10248	7	Sololá	701	Sololá	2	El tablón	12	Diciembre	2023-12-27T00:00:00	2024-11-08T02:00:00	5	Humedad	88
10249	7	Sololá	701	Sololá	2	El tablón	12	Diciembre	2023-12-27T00:00:00	2024-11-08T02:00:00	6	Velocidad del viento	1.6
10250	7	Sololá	701	Sololá	2	El tablón	12	Diciembre	2023-12-27T00:00:00	2024-11-08T02:00:00	7	Dirección del viento	1.61
10251	7	Sololá	701	Sololá	2	El tablón	12	Diciembre	2023-12-27T00:00:00	2024-11-08T02:00:00	1	Precipitación	0
10252	7	Sololá	701	Sololá	2	El tablón	12	Diciembre	2023-12-27T00:00:00	2024-11-08T02:00:00	8	Radiación solar	0
10253	7	Sololá	701	Sololá	2	El tablón	12	Diciembre	2023-12-27T00:00:00	2024-11-08T03:00:00	2	Temperatura media	8.7
10254	7	Sololá	701	Sololá	2	El tablón	12	Diciembre	2023-12-27T00:00:00	2024-11-08T03:00:00	4	Temperatura máxima	9.8
10255	7	Sololá	701	Sololá	2	El tablón	12	Diciembre	2023-12-27T00:00:00	2024-11-08T03:00:00	3	Temperatura mínima	8.4
10256	7	Sololá	701	Sololá	2	El tablón	12	Diciembre	2023-12-27T00:00:00	2024-11-08T03:00:00	5	Humedad	87
10257	7	Sololá	701	Sololá	2	El tablón	12	Diciembre	2023-12-27T00:00:00	2024-11-08T03:00:00	6	Velocidad del viento	1.6
10258	7	Sololá	701	Sololá	2	El tablón	12	Diciembre	2023-12-27T00:00:00	2024-11-08T03:00:00	7	Dirección del viento	1.61
10259	7	Sololá	701	Sololá	2	El tablón	12	Diciembre	2023-12-27T00:00:00	2024-11-08T03:00:00	1	Precipitación	0
10260	7	Sololá	701	Sololá	2	El tablón	12	Diciembre	2023-12-27T00:00:00	2024-11-08T03:00:00	8	Radiación solar	0
10261	7	Sololá	701	Sololá	2	El tablón	12	Diciembre	2023-12-27T00:00:00	2024-11-08T04:00:00	2	Temperatura media	9.6
10262	7	Sololá	701	Sololá	2	El tablón	12	Diciembre	2023-12-27T00:00:00	2024-11-08T04:00:00	4	Temperatura máxima	9.8
10263	7	Sololá	701	Sololá	2	El tablón	12	Diciembre	2023-12-27T00:00:00	2024-11-08T04:00:00	3	Temperatura mínima	8.7
10264	7	Sololá	701	Sololá	2	El tablón	12	Diciembre	2023-12-27T00:00:00	2024-11-08T04:00:00	5	Humedad	74
10265	7	Sololá	701	Sololá	2	El tablón	12	Diciembre	2023-12-27T00:00:00	2024-11-08T04:00:00	6	Velocidad del viento	3.2
10266	7	Sololá	701	Sololá	2	El tablón	12	Diciembre	2023-12-27T00:00:00	2024-11-08T04:00:00	7	Dirección del viento	3.22
10267	7	Sololá	701	Sololá	2	El tablón	12	Diciembre	2023-12-27T00:00:00	2024-11-08T04:00:00	1	Precipitación	0
10268	7	Sololá	701	Sololá	2	El tablón	12	Diciembre	2023-12-27T00:00:00	2024-11-08T04:00:00	8	Radiación solar	0
10269	7	Sololá	701	Sololá	2	El tablón	12	Diciembre	2023-12-27T00:00:00	2024-11-08T05:00:00	2	Temperatura media	8.3
10270	7	Sololá	701	Sololá	2	El tablón	12	Diciembre	2023-12-27T00:00:00	2024-11-08T05:00:00	4	Temperatura máxima	9.7
10271	7	Sololá	701	Sololá	2	El tablón	12	Diciembre	2023-12-27T00:00:00	2024-11-08T05:00:00	3	Temperatura mínima	8.3
10272	7	Sololá	701	Sololá	2	El tablón	12	Diciembre	2023-12-27T00:00:00	2024-11-08T05:00:00	5	Humedad	76
10273	7	Sololá	701	Sololá	2	El tablón	12	Diciembre	2023-12-27T00:00:00	2024-11-08T05:00:00	6	Velocidad del viento	1.6
10274	7	Sololá	701	Sololá	2	El tablón	12	Diciembre	2023-12-27T00:00:00	2024-11-08T05:00:00	7	Dirección del viento	1.61
10275	7	Sololá	701	Sololá	2	El tablón	12	Diciembre	2023-12-27T00:00:00	2024-11-08T05:00:00	1	Precipitación	0
10276	7	Sololá	701	Sololá	2	El tablón	12	Diciembre	2023-12-27T00:00:00	2024-11-08T05:00:00	8	Radiación solar	0
10277	7	Sololá	701	Sololá	2	El tablón	12	Diciembre	2023-12-27T00:00:00	2024-11-08T06:00:00	2	Temperatura media	8.7
10278	7	Sololá	701	Sololá	2	El tablón	12	Diciembre	2023-12-27T00:00:00	2024-11-08T06:00:00	4	Temperatura máxima	8.8
10279	7	Sololá	701	Sololá	2	El tablón	12	Diciembre	2023-12-27T00:00:00	2024-11-08T06:00:00	3	Temperatura mínima	7.9
10280	7	Sololá	701	Sololá	2	El tablón	12	Diciembre	2023-12-27T00:00:00	2024-11-08T06:00:00	5	Humedad	72
10281	7	Sololá	701	Sololá	2	El tablón	12	Diciembre	2023-12-27T00:00:00	2024-11-08T06:00:00	6	Velocidad del viento	1.6
10282	7	Sololá	701	Sololá	2	El tablón	12	Diciembre	2023-12-27T00:00:00	2024-11-08T06:00:00	7	Dirección del viento	1.61
10283	7	Sololá	701	Sololá	2	El tablón	12	Diciembre	2023-12-27T00:00:00	2024-11-08T06:00:00	1	Precipitación	0
10284	7	Sololá	701	Sololá	2	El tablón	12	Diciembre	2023-12-27T00:00:00	2024-11-08T06:00:00	8	Radiación solar	0
10285	7	Sololá	701	Sololá	2	El tablón	12	Diciembre	2023-12-27T00:00:00	2024-11-08T07:00:00	2	Temperatura media	9
10286	7	Sololá	701	Sololá	2	El tablón	12	Diciembre	2023-12-27T00:00:00	2024-11-08T07:00:00	4	Temperatura máxima	9
10287	7	Sololá	701	Sololá	2	El tablón	12	Diciembre	2023-12-27T00:00:00	2024-11-08T07:00:00	3	Temperatura mínima	8.3
10288	7	Sololá	701	Sololá	2	El tablón	12	Diciembre	2023-12-27T00:00:00	2024-11-08T07:00:00	5	Humedad	69
10289	7	Sololá	701	Sololá	2	El tablón	12	Diciembre	2023-12-27T00:00:00	2024-11-08T07:00:00	6	Velocidad del viento	1.6
10290	7	Sololá	701	Sololá	2	El tablón	12	Diciembre	2023-12-27T00:00:00	2024-11-08T07:00:00	7	Dirección del viento	1.61
10291	7	Sololá	701	Sololá	2	El tablón	12	Diciembre	2023-12-27T00:00:00	2024-11-08T07:00:00	1	Precipitación	0
10292	7	Sololá	701	Sololá	2	El tablón	12	Diciembre	2023-12-27T00:00:00	2024-11-08T07:00:00	8	Radiación solar	8
10293	7	Sololá	701	Sololá	2	El tablón	12	Diciembre	2023-12-27T00:00:00	2024-11-08T08:00:00	2	Temperatura media	12.1
10294	7	Sololá	701	Sololá	2	El tablón	12	Diciembre	2023-12-27T00:00:00	2024-11-08T08:00:00	4	Temperatura máxima	12.1
10295	7	Sololá	701	Sololá	2	El tablón	12	Diciembre	2023-12-27T00:00:00	2024-11-08T08:00:00	3	Temperatura mínima	9
10296	7	Sololá	701	Sololá	2	El tablón	12	Diciembre	2023-12-27T00:00:00	2024-11-08T08:00:00	5	Humedad	65
10297	7	Sololá	701	Sololá	2	El tablón	12	Diciembre	2023-12-27T00:00:00	2024-11-08T08:00:00	6	Velocidad del viento	0
10298	7	Sololá	701	Sololá	2	El tablón	12	Diciembre	2023-12-27T00:00:00	2024-11-08T08:00:00	7	Dirección del viento	0
10299	7	Sololá	701	Sololá	2	El tablón	12	Diciembre	2023-12-27T00:00:00	2024-11-08T08:00:00	1	Precipitación	0
10300	7	Sololá	701	Sololá	2	El tablón	12	Diciembre	2023-12-27T00:00:00	2024-11-08T08:00:00	8	Radiación solar	134
10301	7	Sololá	701	Sololá	2	El tablón	12	Diciembre	2023-12-27T00:00:00	2024-11-08T09:00:00	2	Temperatura media	14.9
10302	7	Sololá	701	Sololá	2	El tablón	12	Diciembre	2023-12-27T00:00:00	2024-11-08T09:00:00	4	Temperatura máxima	14.9
10303	7	Sololá	701	Sololá	2	El tablón	12	Diciembre	2023-12-27T00:00:00	2024-11-08T09:00:00	3	Temperatura mínima	12.1
10304	7	Sololá	701	Sololá	2	El tablón	12	Diciembre	2023-12-27T00:00:00	2024-11-08T09:00:00	5	Humedad	59
10305	7	Sololá	701	Sololá	2	El tablón	12	Diciembre	2023-12-27T00:00:00	2024-11-08T09:00:00	6	Velocidad del viento	1.6
10306	7	Sololá	701	Sololá	2	El tablón	12	Diciembre	2023-12-27T00:00:00	2024-11-08T09:00:00	7	Dirección del viento	1.61
10307	7	Sololá	701	Sololá	2	El tablón	12	Diciembre	2023-12-27T00:00:00	2024-11-08T09:00:00	1	Precipitación	0
10308	7	Sololá	701	Sololá	2	El tablón	12	Diciembre	2023-12-27T00:00:00	2024-11-08T09:00:00	8	Radiación solar	375
10309	7	Sololá	701	Sololá	2	El tablón	12	Diciembre	2023-12-27T00:00:00	2024-11-08T10:00:00	2	Temperatura media	14.8
10310	7	Sololá	701	Sololá	2	El tablón	12	Diciembre	2023-12-27T00:00:00	2024-11-08T10:00:00	4	Temperatura máxima	15.7
10311	7	Sololá	701	Sololá	2	El tablón	12	Diciembre	2023-12-27T00:00:00	2024-11-08T10:00:00	3	Temperatura mínima	14.8
10312	7	Sololá	701	Sololá	2	El tablón	12	Diciembre	2023-12-27T00:00:00	2024-11-08T10:00:00	5	Humedad	66
10313	7	Sololá	701	Sololá	2	El tablón	12	Diciembre	2023-12-27T00:00:00	2024-11-08T10:00:00	6	Velocidad del viento	4.8
10314	7	Sololá	701	Sololá	2	El tablón	12	Diciembre	2023-12-27T00:00:00	2024-11-08T10:00:00	7	Dirección del viento	4.83
10315	7	Sololá	701	Sololá	2	El tablón	12	Diciembre	2023-12-27T00:00:00	2024-11-08T10:00:00	1	Precipitación	0
10316	7	Sololá	701	Sololá	2	El tablón	12	Diciembre	2023-12-27T00:00:00	2024-11-08T10:00:00	8	Radiación solar	441
10317	7	Sololá	701	Sololá	2	El tablón	12	Diciembre	2023-12-27T00:00:00	2024-11-08T11:00:00	2	Temperatura media	14.9
10318	7	Sololá	701	Sololá	2	El tablón	12	Diciembre	2023-12-27T00:00:00	2024-11-08T11:00:00	4	Temperatura máxima	15.7
10319	7	Sololá	701	Sololá	2	El tablón	12	Diciembre	2023-12-27T00:00:00	2024-11-08T11:00:00	3	Temperatura mínima	14.8
10320	7	Sololá	701	Sololá	2	El tablón	12	Diciembre	2023-12-27T00:00:00	2024-11-08T11:00:00	5	Humedad	70
10321	7	Sololá	701	Sololá	2	El tablón	12	Diciembre	2023-12-27T00:00:00	2024-11-08T11:00:00	6	Velocidad del viento	6.4
10322	7	Sololá	701	Sololá	2	El tablón	12	Diciembre	2023-12-27T00:00:00	2024-11-08T11:00:00	7	Dirección del viento	6.44
10323	7	Sololá	701	Sololá	2	El tablón	12	Diciembre	2023-12-27T00:00:00	2024-11-08T11:00:00	1	Precipitación	0
10324	7	Sololá	701	Sololá	2	El tablón	12	Diciembre	2023-12-27T00:00:00	2024-11-08T11:00:00	8	Radiación solar	487
10325	7	Sololá	701	Sololá	2	El tablón	12	Diciembre	2023-12-27T00:00:00	2024-11-08T12:00:00	2	Temperatura media	16.9
10326	7	Sololá	701	Sololá	2	El tablón	12	Diciembre	2023-12-27T00:00:00	2024-11-08T12:00:00	4	Temperatura máxima	17
10327	7	Sololá	701	Sololá	2	El tablón	12	Diciembre	2023-12-27T00:00:00	2024-11-08T12:00:00	3	Temperatura mínima	14.9
10328	7	Sololá	701	Sololá	2	El tablón	12	Diciembre	2023-12-27T00:00:00	2024-11-08T12:00:00	5	Humedad	63
10329	7	Sololá	701	Sololá	2	El tablón	12	Diciembre	2023-12-27T00:00:00	2024-11-08T12:00:00	6	Velocidad del viento	8
10330	7	Sololá	701	Sololá	2	El tablón	12	Diciembre	2023-12-27T00:00:00	2024-11-08T12:00:00	7	Dirección del viento	8.05
10331	7	Sololá	701	Sololá	2	El tablón	12	Diciembre	2023-12-27T00:00:00	2024-11-08T12:00:00	1	Precipitación	0
10332	7	Sololá	701	Sololá	2	El tablón	12	Diciembre	2023-12-27T00:00:00	2024-11-08T12:00:00	8	Radiación solar	688
10333	7	Sololá	701	Sololá	2	El tablón	12	Diciembre	2023-12-27T00:00:00	2024-11-08T13:00:00	2	Temperatura media	16.8
10334	7	Sololá	701	Sololá	2	El tablón	12	Diciembre	2023-12-27T00:00:00	2024-11-08T13:00:00	4	Temperatura máxima	17.1
10335	7	Sololá	701	Sololá	2	El tablón	12	Diciembre	2023-12-27T00:00:00	2024-11-08T13:00:00	3	Temperatura mínima	16.4
10336	7	Sololá	701	Sololá	2	El tablón	12	Diciembre	2023-12-27T00:00:00	2024-11-08T13:00:00	5	Humedad	70
10337	7	Sololá	701	Sololá	2	El tablón	12	Diciembre	2023-12-27T00:00:00	2024-11-08T13:00:00	6	Velocidad del viento	8
10338	7	Sololá	701	Sololá	2	El tablón	12	Diciembre	2023-12-27T00:00:00	2024-11-08T13:00:00	7	Dirección del viento	8.05
10339	7	Sololá	701	Sololá	2	El tablón	12	Diciembre	2023-12-27T00:00:00	2024-11-08T13:00:00	1	Precipitación	0
10340	7	Sololá	701	Sololá	2	El tablón	12	Diciembre	2023-12-27T00:00:00	2024-11-08T13:00:00	8	Radiación solar	752
10341	7	Sololá	701	Sololá	2	El tablón	12	Diciembre	2023-12-27T00:00:00	2024-11-08T14:00:00	2	Temperatura media	17.1
10342	7	Sololá	701	Sololá	2	El tablón	12	Diciembre	2023-12-27T00:00:00	2024-11-08T14:00:00	4	Temperatura máxima	17.4
10343	7	Sololá	701	Sololá	2	El tablón	12	Diciembre	2023-12-27T00:00:00	2024-11-08T14:00:00	3	Temperatura mínima	16.6
10344	7	Sololá	701	Sololá	2	El tablón	12	Diciembre	2023-12-27T00:00:00	2024-11-08T14:00:00	5	Humedad	70
10345	7	Sololá	701	Sololá	2	El tablón	12	Diciembre	2023-12-27T00:00:00	2024-11-08T14:00:00	6	Velocidad del viento	9.7
10346	7	Sololá	701	Sololá	2	El tablón	12	Diciembre	2023-12-27T00:00:00	2024-11-08T14:00:00	7	Dirección del viento	9.66
10347	7	Sololá	701	Sololá	2	El tablón	12	Diciembre	2023-12-27T00:00:00	2024-11-08T14:00:00	1	Precipitación	0
10348	7	Sololá	701	Sololá	2	El tablón	12	Diciembre	2023-12-27T00:00:00	2024-11-08T14:00:00	8	Radiación solar	720
10349	7	Sololá	701	Sololá	2	El tablón	12	Diciembre	2023-12-27T00:00:00	2024-11-08T15:00:00	2	Temperatura media	16.1
10350	7	Sololá	701	Sololá	2	El tablón	12	Diciembre	2023-12-27T00:00:00	2024-11-08T15:00:00	4	Temperatura máxima	17.2
10351	7	Sololá	701	Sololá	2	El tablón	12	Diciembre	2023-12-27T00:00:00	2024-11-08T15:00:00	3	Temperatura mínima	16.1
10352	7	Sololá	701	Sololá	2	El tablón	12	Diciembre	2023-12-27T00:00:00	2024-11-08T15:00:00	5	Humedad	75
10353	7	Sololá	701	Sololá	2	El tablón	12	Diciembre	2023-12-27T00:00:00	2024-11-08T15:00:00	6	Velocidad del viento	9.7
10354	7	Sololá	701	Sololá	2	El tablón	12	Diciembre	2023-12-27T00:00:00	2024-11-08T15:00:00	7	Dirección del viento	9.66
10355	7	Sololá	701	Sololá	2	El tablón	12	Diciembre	2023-12-27T00:00:00	2024-11-08T15:00:00	1	Precipitación	0
10356	7	Sololá	701	Sololá	2	El tablón	12	Diciembre	2023-12-27T00:00:00	2024-11-08T15:00:00	8	Radiación solar	580
10357	7	Sololá	701	Sololá	2	El tablón	12	Diciembre	2023-12-27T00:00:00	2024-11-08T16:00:00	2	Temperatura media	15.5
10358	7	Sololá	701	Sololá	2	El tablón	12	Diciembre	2023-12-27T00:00:00	2024-11-08T16:00:00	4	Temperatura máxima	16.1
10359	7	Sololá	701	Sololá	2	El tablón	12	Diciembre	2023-12-27T00:00:00	2024-11-08T16:00:00	3	Temperatura mínima	15.4
10360	7	Sololá	701	Sololá	2	El tablón	12	Diciembre	2023-12-27T00:00:00	2024-11-08T16:00:00	5	Humedad	81
10361	7	Sololá	701	Sololá	2	El tablón	12	Diciembre	2023-12-27T00:00:00	2024-11-08T16:00:00	6	Velocidad del viento	8
10362	7	Sololá	701	Sololá	2	El tablón	12	Diciembre	2023-12-27T00:00:00	2024-11-08T16:00:00	7	Dirección del viento	8.05
10363	7	Sololá	701	Sololá	2	El tablón	12	Diciembre	2023-12-27T00:00:00	2024-11-08T16:00:00	1	Precipitación	0
10364	7	Sololá	701	Sololá	2	El tablón	12	Diciembre	2023-12-27T00:00:00	2024-11-08T16:00:00	8	Radiación solar	322
10365	7	Sololá	701	Sololá	2	El tablón	12	Diciembre	2023-12-27T00:00:00	2024-11-08T17:00:00	2	Temperatura media	13.7
10366	7	Sololá	701	Sololá	2	El tablón	12	Diciembre	2023-12-27T00:00:00	2024-11-08T17:00:00	4	Temperatura máxima	15.4
10367	7	Sololá	701	Sololá	2	El tablón	12	Diciembre	2023-12-27T00:00:00	2024-11-08T17:00:00	3	Temperatura mínima	13.7
10368	7	Sololá	701	Sololá	2	El tablón	12	Diciembre	2023-12-27T00:00:00	2024-11-08T17:00:00	5	Humedad	87
10369	7	Sololá	701	Sololá	2	El tablón	12	Diciembre	2023-12-27T00:00:00	2024-11-08T17:00:00	6	Velocidad del viento	6.4
10370	7	Sololá	701	Sololá	2	El tablón	12	Diciembre	2023-12-27T00:00:00	2024-11-08T17:00:00	7	Dirección del viento	6.44
10371	7	Sololá	701	Sololá	2	El tablón	12	Diciembre	2023-12-27T00:00:00	2024-11-08T17:00:00	1	Precipitación	0
10372	7	Sololá	701	Sololá	2	El tablón	12	Diciembre	2023-12-27T00:00:00	2024-11-08T17:00:00	8	Radiación solar	144
10373	7	Sololá	701	Sololá	2	El tablón	12	Diciembre	2023-12-27T00:00:00	2024-11-08T18:00:00	2	Temperatura media	13.1
10374	7	Sololá	701	Sololá	2	El tablón	12	Diciembre	2023-12-27T00:00:00	2024-11-08T18:00:00	4	Temperatura máxima	13.7
10375	7	Sololá	701	Sololá	2	El tablón	12	Diciembre	2023-12-27T00:00:00	2024-11-08T18:00:00	3	Temperatura mínima	13.1
10376	7	Sololá	701	Sololá	2	El tablón	12	Diciembre	2023-12-27T00:00:00	2024-11-08T18:00:00	5	Humedad	88
10377	7	Sololá	701	Sololá	2	El tablón	12	Diciembre	2023-12-27T00:00:00	2024-11-08T18:00:00	6	Velocidad del viento	3.2
10378	7	Sololá	701	Sololá	2	El tablón	12	Diciembre	2023-12-27T00:00:00	2024-11-08T18:00:00	7	Dirección del viento	3.22
10379	7	Sololá	701	Sololá	2	El tablón	12	Diciembre	2023-12-27T00:00:00	2024-11-08T18:00:00	1	Precipitación	0
10380	7	Sololá	701	Sololá	2	El tablón	12	Diciembre	2023-12-27T00:00:00	2024-11-08T18:00:00	8	Radiación solar	20
10381	7	Sololá	701	Sololá	2	El tablón	12	Diciembre	2023-12-27T00:00:00	2024-11-08T19:00:00	2	Temperatura media	12.7
10382	7	Sololá	701	Sololá	2	El tablón	12	Diciembre	2023-12-27T00:00:00	2024-11-08T19:00:00	4	Temperatura máxima	13.1
10383	7	Sololá	701	Sololá	2	El tablón	12	Diciembre	2023-12-27T00:00:00	2024-11-08T19:00:00	3	Temperatura mínima	12.7
10384	7	Sololá	701	Sololá	2	El tablón	12	Diciembre	2023-12-27T00:00:00	2024-11-08T19:00:00	5	Humedad	88
10385	7	Sololá	701	Sololá	2	El tablón	12	Diciembre	2023-12-27T00:00:00	2024-11-08T19:00:00	6	Velocidad del viento	1.6
10386	7	Sololá	701	Sololá	2	El tablón	12	Diciembre	2023-12-27T00:00:00	2024-11-08T19:00:00	7	Dirección del viento	1.61
10387	7	Sololá	701	Sololá	2	El tablón	12	Diciembre	2023-12-27T00:00:00	2024-11-08T19:00:00	1	Precipitación	0
10388	7	Sololá	701	Sololá	2	El tablón	12	Diciembre	2023-12-27T00:00:00	2024-11-08T19:00:00	8	Radiación solar	0
10389	7	Sololá	701	Sololá	2	El tablón	12	Diciembre	2023-12-27T00:00:00	2024-11-08T20:00:00	2	Temperatura media	12
10390	7	Sololá	701	Sololá	2	El tablón	12	Diciembre	2023-12-27T00:00:00	2024-11-08T20:00:00	4	Temperatura máxima	12.7
10391	7	Sololá	701	Sololá	2	El tablón	12	Diciembre	2023-12-27T00:00:00	2024-11-08T20:00:00	3	Temperatura mínima	12
10392	7	Sololá	701	Sololá	2	El tablón	12	Diciembre	2023-12-27T00:00:00	2024-11-08T20:00:00	5	Humedad	88
10393	7	Sololá	701	Sololá	2	El tablón	12	Diciembre	2023-12-27T00:00:00	2024-11-08T20:00:00	6	Velocidad del viento	0
10394	7	Sololá	701	Sololá	2	El tablón	12	Diciembre	2023-12-27T00:00:00	2024-11-08T20:00:00	7	Dirección del viento	0
10395	7	Sololá	701	Sololá	2	El tablón	12	Diciembre	2023-12-27T00:00:00	2024-11-08T20:00:00	1	Precipitación	0
10396	7	Sololá	701	Sololá	2	El tablón	12	Diciembre	2023-12-27T00:00:00	2024-11-08T20:00:00	8	Radiación solar	0
10397	7	Sololá	701	Sololá	2	El tablón	12	Diciembre	2023-12-27T00:00:00	2024-11-08T21:00:00	2	Temperatura media	11
10398	7	Sololá	701	Sololá	2	El tablón	12	Diciembre	2023-12-27T00:00:00	2024-11-08T21:00:00	4	Temperatura máxima	12
10399	7	Sololá	701	Sololá	2	El tablón	12	Diciembre	2023-12-27T00:00:00	2024-11-08T21:00:00	3	Temperatura mínima	10.8
10400	7	Sololá	701	Sololá	2	El tablón	12	Diciembre	2023-12-27T00:00:00	2024-11-08T21:00:00	5	Humedad	89
10401	7	Sololá	701	Sololá	2	El tablón	12	Diciembre	2023-12-27T00:00:00	2024-11-08T21:00:00	6	Velocidad del viento	1.6
10402	7	Sololá	701	Sololá	2	El tablón	12	Diciembre	2023-12-27T00:00:00	2024-11-08T21:00:00	7	Dirección del viento	1.61
10403	7	Sololá	701	Sololá	2	El tablón	12	Diciembre	2023-12-27T00:00:00	2024-11-08T21:00:00	1	Precipitación	0
10404	7	Sololá	701	Sololá	2	El tablón	12	Diciembre	2023-12-27T00:00:00	2024-11-08T21:00:00	8	Radiación solar	0
10405	7	Sololá	701	Sololá	2	El tablón	12	Diciembre	2023-12-27T00:00:00	2024-11-08T22:00:00	2	Temperatura media	10.6
10406	7	Sololá	701	Sololá	2	El tablón	12	Diciembre	2023-12-27T00:00:00	2024-11-08T22:00:00	4	Temperatura máxima	11
10407	7	Sololá	701	Sololá	2	El tablón	12	Diciembre	2023-12-27T00:00:00	2024-11-08T22:00:00	3	Temperatura mínima	10.6
10408	7	Sololá	701	Sololá	2	El tablón	12	Diciembre	2023-12-27T00:00:00	2024-11-08T22:00:00	5	Humedad	89
10409	7	Sololá	701	Sololá	2	El tablón	12	Diciembre	2023-12-27T00:00:00	2024-11-08T22:00:00	6	Velocidad del viento	1.6
10410	7	Sololá	701	Sololá	2	El tablón	12	Diciembre	2023-12-27T00:00:00	2024-11-08T22:00:00	7	Dirección del viento	1.61
10411	7	Sololá	701	Sololá	2	El tablón	12	Diciembre	2023-12-27T00:00:00	2024-11-08T22:00:00	1	Precipitación	0
10412	7	Sololá	701	Sololá	2	El tablón	12	Diciembre	2023-12-27T00:00:00	2024-11-08T22:00:00	8	Radiación solar	0
10413	7	Sololá	701	Sololá	2	El tablón	12	Diciembre	2023-12-27T00:00:00	2024-11-08T23:00:00	2	Temperatura media	10.1
10414	7	Sololá	701	Sololá	2	El tablón	12	Diciembre	2023-12-27T00:00:00	2024-11-08T23:00:00	4	Temperatura máxima	10.6
10415	7	Sololá	701	Sololá	2	El tablón	12	Diciembre	2023-12-27T00:00:00	2024-11-08T23:00:00	3	Temperatura mínima	9.9
10416	7	Sololá	701	Sololá	2	El tablón	12	Diciembre	2023-12-27T00:00:00	2024-11-08T23:00:00	5	Humedad	88
10417	7	Sololá	701	Sololá	2	El tablón	12	Diciembre	2023-12-27T00:00:00	2024-11-08T23:00:00	6	Velocidad del viento	1.6
10418	7	Sololá	701	Sololá	2	El tablón	12	Diciembre	2023-12-27T00:00:00	2024-11-08T23:00:00	7	Dirección del viento	1.61
10419	7	Sololá	701	Sololá	2	El tablón	12	Diciembre	2023-12-27T00:00:00	2024-11-08T23:00:00	1	Precipitación	0
10420	7	Sololá	701	Sololá	2	El tablón	12	Diciembre	2023-12-27T00:00:00	2024-11-08T23:00:00	8	Radiación solar	0
10421	7	Sololá	701	Sololá	2	El tablón	12	Diciembre	2023-12-28T00:00:00	2024-11-08T00:00:00	2	Temperatura media	10.1
10422	7	Sololá	701	Sololá	2	El tablón	12	Diciembre	2023-12-28T00:00:00	2024-11-08T00:00:00	4	Temperatura máxima	10.1
10423	7	Sololá	701	Sololá	2	El tablón	12	Diciembre	2023-12-28T00:00:00	2024-11-08T00:00:00	3	Temperatura mínima	9.2
10424	7	Sololá	701	Sololá	2	El tablón	12	Diciembre	2023-12-28T00:00:00	2024-11-08T00:00:00	5	Humedad	88
10425	7	Sololá	701	Sololá	2	El tablón	12	Diciembre	2023-12-28T00:00:00	2024-11-08T00:00:00	6	Velocidad del viento	3.2
10426	7	Sololá	701	Sololá	2	El tablón	12	Diciembre	2023-12-28T00:00:00	2024-11-08T00:00:00	7	Dirección del viento	3.22
10427	7	Sololá	701	Sololá	2	El tablón	12	Diciembre	2023-12-28T00:00:00	2024-11-08T00:00:00	1	Precipitación	0
10428	7	Sololá	701	Sololá	2	El tablón	12	Diciembre	2023-12-28T00:00:00	2024-11-08T00:00:00	8	Radiación solar	0
10429	7	Sololá	701	Sololá	2	El tablón	12	Diciembre	2023-12-28T00:00:00	2024-11-08T01:00:00	2	Temperatura media	8.7
10430	7	Sololá	701	Sololá	2	El tablón	12	Diciembre	2023-12-28T00:00:00	2024-11-08T01:00:00	4	Temperatura máxima	10.1
10431	7	Sololá	701	Sololá	2	El tablón	12	Diciembre	2023-12-28T00:00:00	2024-11-08T01:00:00	3	Temperatura mínima	8.7
10432	7	Sololá	701	Sololá	2	El tablón	12	Diciembre	2023-12-28T00:00:00	2024-11-08T01:00:00	5	Humedad	89
10433	7	Sololá	701	Sololá	2	El tablón	12	Diciembre	2023-12-28T00:00:00	2024-11-08T01:00:00	6	Velocidad del viento	3.2
10434	7	Sololá	701	Sololá	2	El tablón	12	Diciembre	2023-12-28T00:00:00	2024-11-08T01:00:00	7	Dirección del viento	3.22
10435	7	Sololá	701	Sololá	2	El tablón	12	Diciembre	2023-12-28T00:00:00	2024-11-08T01:00:00	1	Precipitación	0
10436	7	Sololá	701	Sololá	2	El tablón	12	Diciembre	2023-12-28T00:00:00	2024-11-08T01:00:00	8	Radiación solar	0
10437	7	Sololá	701	Sololá	2	El tablón	12	Diciembre	2023-12-28T00:00:00	2024-11-08T02:00:00	2	Temperatura media	9.4
10438	7	Sololá	701	Sololá	2	El tablón	12	Diciembre	2023-12-28T00:00:00	2024-11-08T02:00:00	4	Temperatura máxima	9.4
10439	7	Sololá	701	Sololá	2	El tablón	12	Diciembre	2023-12-28T00:00:00	2024-11-08T02:00:00	3	Temperatura mínima	8.6
10440	7	Sololá	701	Sololá	2	El tablón	12	Diciembre	2023-12-28T00:00:00	2024-11-08T02:00:00	5	Humedad	86
10441	7	Sololá	701	Sololá	2	El tablón	12	Diciembre	2023-12-28T00:00:00	2024-11-08T02:00:00	6	Velocidad del viento	1.6
10442	7	Sololá	701	Sololá	2	El tablón	12	Diciembre	2023-12-28T00:00:00	2024-11-08T02:00:00	7	Dirección del viento	1.61
10443	7	Sololá	701	Sololá	2	El tablón	12	Diciembre	2023-12-28T00:00:00	2024-11-08T02:00:00	1	Precipitación	0
10444	7	Sololá	701	Sololá	2	El tablón	12	Diciembre	2023-12-28T00:00:00	2024-11-08T02:00:00	8	Radiación solar	0
10445	7	Sololá	701	Sololá	2	El tablón	12	Diciembre	2023-12-28T00:00:00	2024-11-08T03:00:00	2	Temperatura media	9.3
10446	7	Sololá	701	Sololá	2	El tablón	12	Diciembre	2023-12-28T00:00:00	2024-11-08T03:00:00	4	Temperatura máxima	9.4
10447	7	Sololá	701	Sololá	2	El tablón	12	Diciembre	2023-12-28T00:00:00	2024-11-08T03:00:00	3	Temperatura mínima	7.7
10448	7	Sololá	701	Sololá	2	El tablón	12	Diciembre	2023-12-28T00:00:00	2024-11-08T03:00:00	5	Humedad	77
10449	7	Sololá	701	Sololá	2	El tablón	12	Diciembre	2023-12-28T00:00:00	2024-11-08T03:00:00	6	Velocidad del viento	4.8
10450	7	Sololá	701	Sololá	2	El tablón	12	Diciembre	2023-12-28T00:00:00	2024-11-08T03:00:00	7	Dirección del viento	4.83
10451	7	Sololá	701	Sololá	2	El tablón	12	Diciembre	2023-12-28T00:00:00	2024-11-08T03:00:00	1	Precipitación	0
10452	7	Sololá	701	Sololá	2	El tablón	12	Diciembre	2023-12-28T00:00:00	2024-11-08T03:00:00	8	Radiación solar	0
10453	7	Sololá	701	Sololá	2	El tablón	12	Diciembre	2023-12-28T00:00:00	2024-11-08T04:00:00	2	Temperatura media	8.9
10454	7	Sololá	701	Sololá	2	El tablón	12	Diciembre	2023-12-28T00:00:00	2024-11-08T04:00:00	4	Temperatura máxima	9.6
10455	7	Sololá	701	Sololá	2	El tablón	12	Diciembre	2023-12-28T00:00:00	2024-11-08T04:00:00	3	Temperatura mínima	8.8
10456	7	Sololá	701	Sololá	2	El tablón	12	Diciembre	2023-12-28T00:00:00	2024-11-08T04:00:00	5	Humedad	72
10457	7	Sololá	701	Sololá	2	El tablón	12	Diciembre	2023-12-28T00:00:00	2024-11-08T04:00:00	6	Velocidad del viento	1.6
10458	7	Sololá	701	Sololá	2	El tablón	12	Diciembre	2023-12-28T00:00:00	2024-11-08T04:00:00	7	Dirección del viento	1.61
10459	7	Sololá	701	Sololá	2	El tablón	12	Diciembre	2023-12-28T00:00:00	2024-11-08T04:00:00	1	Precipitación	0
10460	7	Sololá	701	Sololá	2	El tablón	12	Diciembre	2023-12-28T00:00:00	2024-11-08T04:00:00	8	Radiación solar	0
10461	7	Sololá	701	Sololá	2	El tablón	12	Diciembre	2023-12-28T00:00:00	2024-11-08T05:00:00	2	Temperatura media	8
10462	7	Sololá	701	Sololá	2	El tablón	12	Diciembre	2023-12-28T00:00:00	2024-11-08T05:00:00	4	Temperatura máxima	9.1
10463	7	Sololá	701	Sololá	2	El tablón	12	Diciembre	2023-12-28T00:00:00	2024-11-08T05:00:00	3	Temperatura mínima	7.9
10464	7	Sololá	701	Sololá	2	El tablón	12	Diciembre	2023-12-28T00:00:00	2024-11-08T05:00:00	5	Humedad	69
10465	7	Sololá	701	Sololá	2	El tablón	12	Diciembre	2023-12-28T00:00:00	2024-11-08T05:00:00	6	Velocidad del viento	3.2
10466	7	Sololá	701	Sololá	2	El tablón	12	Diciembre	2023-12-28T00:00:00	2024-11-08T05:00:00	7	Dirección del viento	3.22
10467	7	Sololá	701	Sololá	2	El tablón	12	Diciembre	2023-12-28T00:00:00	2024-11-08T05:00:00	1	Precipitación	0
10468	7	Sololá	701	Sololá	2	El tablón	12	Diciembre	2023-12-28T00:00:00	2024-11-08T05:00:00	8	Radiación solar	0
10469	7	Sololá	701	Sololá	2	El tablón	12	Diciembre	2023-12-28T00:00:00	2024-11-08T06:00:00	2	Temperatura media	8.6
10470	7	Sololá	701	Sololá	2	El tablón	12	Diciembre	2023-12-28T00:00:00	2024-11-08T06:00:00	4	Temperatura máxima	9.3
10471	7	Sololá	701	Sololá	2	El tablón	12	Diciembre	2023-12-28T00:00:00	2024-11-08T06:00:00	3	Temperatura mínima	8
10472	7	Sololá	701	Sololá	2	El tablón	12	Diciembre	2023-12-28T00:00:00	2024-11-08T06:00:00	5	Humedad	60
10473	7	Sololá	701	Sololá	2	El tablón	12	Diciembre	2023-12-28T00:00:00	2024-11-08T06:00:00	6	Velocidad del viento	1.6
10474	7	Sololá	701	Sololá	2	El tablón	12	Diciembre	2023-12-28T00:00:00	2024-11-08T06:00:00	7	Dirección del viento	1.61
10475	7	Sololá	701	Sololá	2	El tablón	12	Diciembre	2023-12-28T00:00:00	2024-11-08T06:00:00	1	Precipitación	0
10476	7	Sololá	701	Sololá	2	El tablón	12	Diciembre	2023-12-28T00:00:00	2024-11-08T06:00:00	8	Radiación solar	0
10477	7	Sololá	701	Sololá	2	El tablón	12	Diciembre	2023-12-28T00:00:00	2024-11-08T07:00:00	2	Temperatura media	9.7
10478	7	Sololá	701	Sololá	2	El tablón	12	Diciembre	2023-12-28T00:00:00	2024-11-08T07:00:00	4	Temperatura máxima	10.4
10479	7	Sololá	701	Sololá	2	El tablón	12	Diciembre	2023-12-28T00:00:00	2024-11-08T07:00:00	3	Temperatura mínima	8.2
10480	7	Sololá	701	Sololá	2	El tablón	12	Diciembre	2023-12-28T00:00:00	2024-11-08T07:00:00	5	Humedad	56
10481	7	Sololá	701	Sololá	2	El tablón	12	Diciembre	2023-12-28T00:00:00	2024-11-08T07:00:00	6	Velocidad del viento	3.2
10482	7	Sololá	701	Sololá	2	El tablón	12	Diciembre	2023-12-28T00:00:00	2024-11-08T07:00:00	7	Dirección del viento	3.22
10483	7	Sololá	701	Sololá	2	El tablón	12	Diciembre	2023-12-28T00:00:00	2024-11-08T07:00:00	1	Precipitación	0
10484	7	Sololá	701	Sololá	2	El tablón	12	Diciembre	2023-12-28T00:00:00	2024-11-08T07:00:00	8	Radiación solar	8
10485	7	Sololá	701	Sololá	2	El tablón	12	Diciembre	2023-12-28T00:00:00	2024-11-08T08:00:00	2	Temperatura media	15.2
10486	7	Sololá	701	Sololá	2	El tablón	12	Diciembre	2023-12-28T00:00:00	2024-11-08T08:00:00	4	Temperatura máxima	15.2
10487	7	Sololá	701	Sololá	2	El tablón	12	Diciembre	2023-12-28T00:00:00	2024-11-08T08:00:00	3	Temperatura mínima	9.7
10488	7	Sololá	701	Sololá	2	El tablón	12	Diciembre	2023-12-28T00:00:00	2024-11-08T08:00:00	5	Humedad	47
10489	7	Sololá	701	Sololá	2	El tablón	12	Diciembre	2023-12-28T00:00:00	2024-11-08T08:00:00	6	Velocidad del viento	1.6
10490	7	Sololá	701	Sololá	2	El tablón	12	Diciembre	2023-12-28T00:00:00	2024-11-08T08:00:00	7	Dirección del viento	1.61
10491	7	Sololá	701	Sololá	2	El tablón	12	Diciembre	2023-12-28T00:00:00	2024-11-08T08:00:00	1	Precipitación	0
10492	7	Sololá	701	Sololá	2	El tablón	12	Diciembre	2023-12-28T00:00:00	2024-11-08T08:00:00	8	Radiación solar	125
10493	7	Sololá	701	Sololá	2	El tablón	12	Diciembre	2023-12-28T00:00:00	2024-11-08T09:00:00	2	Temperatura media	17.4
10494	7	Sololá	701	Sololá	2	El tablón	12	Diciembre	2023-12-28T00:00:00	2024-11-08T09:00:00	4	Temperatura máxima	17.5
10495	7	Sololá	701	Sololá	2	El tablón	12	Diciembre	2023-12-28T00:00:00	2024-11-08T09:00:00	3	Temperatura mínima	15.2
10496	7	Sololá	701	Sololá	2	El tablón	12	Diciembre	2023-12-28T00:00:00	2024-11-08T09:00:00	5	Humedad	46
10497	7	Sololá	701	Sololá	2	El tablón	12	Diciembre	2023-12-28T00:00:00	2024-11-08T09:00:00	6	Velocidad del viento	1.6
10498	7	Sololá	701	Sololá	2	El tablón	12	Diciembre	2023-12-28T00:00:00	2024-11-08T09:00:00	7	Dirección del viento	1.61
10499	7	Sololá	701	Sololá	2	El tablón	12	Diciembre	2023-12-28T00:00:00	2024-11-08T09:00:00	1	Precipitación	0
10500	7	Sololá	701	Sololá	2	El tablón	12	Diciembre	2023-12-28T00:00:00	2024-11-08T09:00:00	8	Radiación solar	354
10501	7	Sololá	701	Sololá	2	El tablón	12	Diciembre	2023-12-28T00:00:00	2024-11-08T10:00:00	2	Temperatura media	17.1
10502	7	Sololá	701	Sololá	2	El tablón	12	Diciembre	2023-12-28T00:00:00	2024-11-08T10:00:00	4	Temperatura máxima	17.7
10503	7	Sololá	701	Sololá	2	El tablón	12	Diciembre	2023-12-28T00:00:00	2024-11-08T10:00:00	3	Temperatura mínima	17
10504	7	Sololá	701	Sololá	2	El tablón	12	Diciembre	2023-12-28T00:00:00	2024-11-08T10:00:00	5	Humedad	47
10505	7	Sololá	701	Sololá	2	El tablón	12	Diciembre	2023-12-28T00:00:00	2024-11-08T10:00:00	6	Velocidad del viento	4.8
10506	7	Sololá	701	Sololá	2	El tablón	12	Diciembre	2023-12-28T00:00:00	2024-11-08T10:00:00	7	Dirección del viento	4.83
10507	7	Sololá	701	Sololá	2	El tablón	12	Diciembre	2023-12-28T00:00:00	2024-11-08T10:00:00	1	Precipitación	0
10508	7	Sololá	701	Sololá	2	El tablón	12	Diciembre	2023-12-28T00:00:00	2024-11-08T10:00:00	8	Radiación solar	528
10509	7	Sololá	701	Sololá	2	El tablón	12	Diciembre	2023-12-28T00:00:00	2024-11-08T11:00:00	2	Temperatura media	17.7
10510	7	Sololá	701	Sololá	2	El tablón	12	Diciembre	2023-12-28T00:00:00	2024-11-08T11:00:00	4	Temperatura máxima	17.9
10511	7	Sololá	701	Sololá	2	El tablón	12	Diciembre	2023-12-28T00:00:00	2024-11-08T11:00:00	3	Temperatura mínima	17
10512	7	Sololá	701	Sololá	2	El tablón	12	Diciembre	2023-12-28T00:00:00	2024-11-08T11:00:00	5	Humedad	44
10513	7	Sololá	701	Sololá	2	El tablón	12	Diciembre	2023-12-28T00:00:00	2024-11-08T11:00:00	6	Velocidad del viento	6.4
10514	7	Sololá	701	Sololá	2	El tablón	12	Diciembre	2023-12-28T00:00:00	2024-11-08T11:00:00	7	Dirección del viento	6.44
10515	7	Sololá	701	Sololá	2	El tablón	12	Diciembre	2023-12-28T00:00:00	2024-11-08T11:00:00	1	Precipitación	0
10516	7	Sololá	701	Sololá	2	El tablón	12	Diciembre	2023-12-28T00:00:00	2024-11-08T11:00:00	8	Radiación solar	676
10517	7	Sololá	701	Sololá	2	El tablón	12	Diciembre	2023-12-28T00:00:00	2024-11-08T12:00:00	2	Temperatura media	18
10518	7	Sololá	701	Sololá	2	El tablón	12	Diciembre	2023-12-28T00:00:00	2024-11-08T12:00:00	4	Temperatura máxima	18.2
10519	7	Sololá	701	Sololá	2	El tablón	12	Diciembre	2023-12-28T00:00:00	2024-11-08T12:00:00	3	Temperatura mínima	17.3
10520	7	Sololá	701	Sololá	2	El tablón	12	Diciembre	2023-12-28T00:00:00	2024-11-08T12:00:00	5	Humedad	42
10521	7	Sololá	701	Sololá	2	El tablón	12	Diciembre	2023-12-28T00:00:00	2024-11-08T12:00:00	6	Velocidad del viento	8
10522	7	Sololá	701	Sololá	2	El tablón	12	Diciembre	2023-12-28T00:00:00	2024-11-08T12:00:00	7	Dirección del viento	8.05
10523	7	Sololá	701	Sololá	2	El tablón	12	Diciembre	2023-12-28T00:00:00	2024-11-08T12:00:00	1	Precipitación	0
10524	7	Sololá	701	Sololá	2	El tablón	12	Diciembre	2023-12-28T00:00:00	2024-11-08T12:00:00	8	Radiación solar	668
10525	7	Sololá	701	Sololá	2	El tablón	12	Diciembre	2023-12-28T00:00:00	2024-11-08T13:00:00	2	Temperatura media	17.3
10526	7	Sololá	701	Sololá	2	El tablón	12	Diciembre	2023-12-28T00:00:00	2024-11-08T13:00:00	4	Temperatura máxima	18.2
10527	7	Sololá	701	Sololá	2	El tablón	12	Diciembre	2023-12-28T00:00:00	2024-11-08T13:00:00	3	Temperatura mínima	17.3
10528	7	Sololá	701	Sololá	2	El tablón	12	Diciembre	2023-12-28T00:00:00	2024-11-08T13:00:00	5	Humedad	64
10529	7	Sololá	701	Sololá	2	El tablón	12	Diciembre	2023-12-28T00:00:00	2024-11-08T13:00:00	6	Velocidad del viento	8
10530	7	Sololá	701	Sololá	2	El tablón	12	Diciembre	2023-12-28T00:00:00	2024-11-08T13:00:00	7	Dirección del viento	8.05
10531	7	Sololá	701	Sololá	2	El tablón	12	Diciembre	2023-12-28T00:00:00	2024-11-08T13:00:00	1	Precipitación	0
10532	7	Sololá	701	Sololá	2	El tablón	12	Diciembre	2023-12-28T00:00:00	2024-11-08T13:00:00	8	Radiación solar	703
10533	7	Sololá	701	Sololá	2	El tablón	12	Diciembre	2023-12-28T00:00:00	2024-11-08T14:00:00	2	Temperatura media	17.3
10534	7	Sololá	701	Sololá	2	El tablón	12	Diciembre	2023-12-28T00:00:00	2024-11-08T14:00:00	4	Temperatura máxima	17.5
10535	7	Sololá	701	Sololá	2	El tablón	12	Diciembre	2023-12-28T00:00:00	2024-11-08T14:00:00	3	Temperatura mínima	17.1
10536	7	Sololá	701	Sololá	2	El tablón	12	Diciembre	2023-12-28T00:00:00	2024-11-08T14:00:00	5	Humedad	67
10537	7	Sololá	701	Sololá	2	El tablón	12	Diciembre	2023-12-28T00:00:00	2024-11-08T14:00:00	6	Velocidad del viento	8
10538	7	Sololá	701	Sololá	2	El tablón	12	Diciembre	2023-12-28T00:00:00	2024-11-08T14:00:00	7	Dirección del viento	8.05
10539	7	Sololá	701	Sololá	2	El tablón	12	Diciembre	2023-12-28T00:00:00	2024-11-08T14:00:00	1	Precipitación	0
10540	7	Sololá	701	Sololá	2	El tablón	12	Diciembre	2023-12-28T00:00:00	2024-11-08T14:00:00	8	Radiación solar	698
10541	7	Sololá	701	Sololá	2	El tablón	12	Diciembre	2023-12-28T00:00:00	2024-11-08T15:00:00	2	Temperatura media	17.2
10542	7	Sololá	701	Sololá	2	El tablón	12	Diciembre	2023-12-28T00:00:00	2024-11-08T15:00:00	4	Temperatura máxima	17.3
10543	7	Sololá	701	Sololá	2	El tablón	12	Diciembre	2023-12-28T00:00:00	2024-11-08T15:00:00	3	Temperatura mínima	16.8
10544	7	Sololá	701	Sololá	2	El tablón	12	Diciembre	2023-12-28T00:00:00	2024-11-08T15:00:00	5	Humedad	70
10545	7	Sololá	701	Sololá	2	El tablón	12	Diciembre	2023-12-28T00:00:00	2024-11-08T15:00:00	6	Velocidad del viento	8
10546	7	Sololá	701	Sololá	2	El tablón	12	Diciembre	2023-12-28T00:00:00	2024-11-08T15:00:00	7	Dirección del viento	8.05
10547	7	Sololá	701	Sololá	2	El tablón	12	Diciembre	2023-12-28T00:00:00	2024-11-08T15:00:00	1	Precipitación	0
10548	7	Sololá	701	Sololá	2	El tablón	12	Diciembre	2023-12-28T00:00:00	2024-11-08T15:00:00	8	Radiación solar	587
10549	7	Sololá	701	Sololá	2	El tablón	12	Diciembre	2023-12-28T00:00:00	2024-11-08T16:00:00	2	Temperatura media	15.6
10550	7	Sololá	701	Sololá	2	El tablón	12	Diciembre	2023-12-28T00:00:00	2024-11-08T16:00:00	4	Temperatura máxima	17.2
10551	7	Sololá	701	Sololá	2	El tablón	12	Diciembre	2023-12-28T00:00:00	2024-11-08T16:00:00	3	Temperatura mínima	15.6
10552	7	Sololá	701	Sololá	2	El tablón	12	Diciembre	2023-12-28T00:00:00	2024-11-08T16:00:00	5	Humedad	82
10553	7	Sololá	701	Sololá	2	El tablón	12	Diciembre	2023-12-28T00:00:00	2024-11-08T16:00:00	6	Velocidad del viento	8
10554	7	Sololá	701	Sololá	2	El tablón	12	Diciembre	2023-12-28T00:00:00	2024-11-08T16:00:00	7	Dirección del viento	8.05
10555	7	Sololá	701	Sololá	2	El tablón	12	Diciembre	2023-12-28T00:00:00	2024-11-08T16:00:00	1	Precipitación	0
10556	7	Sololá	701	Sololá	2	El tablón	12	Diciembre	2023-12-28T00:00:00	2024-11-08T16:00:00	8	Radiación solar	451
10557	7	Sololá	701	Sololá	2	El tablón	12	Diciembre	2023-12-28T00:00:00	2024-11-08T17:00:00	2	Temperatura media	13.9
10558	7	Sololá	701	Sololá	2	El tablón	12	Diciembre	2023-12-28T00:00:00	2024-11-08T17:00:00	4	Temperatura máxima	15.6
10559	7	Sololá	701	Sololá	2	El tablón	12	Diciembre	2023-12-28T00:00:00	2024-11-08T17:00:00	3	Temperatura mínima	13.9
10560	7	Sololá	701	Sololá	2	El tablón	12	Diciembre	2023-12-28T00:00:00	2024-11-08T17:00:00	5	Humedad	87
10561	7	Sololá	701	Sololá	2	El tablón	12	Diciembre	2023-12-28T00:00:00	2024-11-08T17:00:00	6	Velocidad del viento	4.8
10562	7	Sololá	701	Sololá	2	El tablón	12	Diciembre	2023-12-28T00:00:00	2024-11-08T17:00:00	7	Dirección del viento	4.83
10563	7	Sololá	701	Sololá	2	El tablón	12	Diciembre	2023-12-28T00:00:00	2024-11-08T17:00:00	1	Precipitación	0
10564	7	Sololá	701	Sololá	2	El tablón	12	Diciembre	2023-12-28T00:00:00	2024-11-08T17:00:00	8	Radiación solar	88
10565	7	Sololá	701	Sololá	2	El tablón	12	Diciembre	2023-12-28T00:00:00	2024-11-08T18:00:00	2	Temperatura media	13.6
10566	7	Sololá	701	Sololá	2	El tablón	12	Diciembre	2023-12-28T00:00:00	2024-11-08T18:00:00	4	Temperatura máxima	13.9
10567	7	Sololá	701	Sololá	2	El tablón	12	Diciembre	2023-12-28T00:00:00	2024-11-08T18:00:00	3	Temperatura mínima	13.5
10568	7	Sololá	701	Sololá	2	El tablón	12	Diciembre	2023-12-28T00:00:00	2024-11-08T18:00:00	5	Humedad	88
10569	7	Sololá	701	Sololá	2	El tablón	12	Diciembre	2023-12-28T00:00:00	2024-11-08T18:00:00	6	Velocidad del viento	1.6
10570	7	Sololá	701	Sololá	2	El tablón	12	Diciembre	2023-12-28T00:00:00	2024-11-08T18:00:00	7	Dirección del viento	1.61
10571	7	Sololá	701	Sololá	2	El tablón	12	Diciembre	2023-12-28T00:00:00	2024-11-08T18:00:00	1	Precipitación	0
10572	7	Sololá	701	Sololá	2	El tablón	12	Diciembre	2023-12-28T00:00:00	2024-11-08T18:00:00	8	Radiación solar	11
10573	7	Sololá	701	Sololá	2	El tablón	12	Diciembre	2023-12-28T00:00:00	2024-11-08T19:00:00	2	Temperatura media	12.7
10574	7	Sololá	701	Sololá	2	El tablón	12	Diciembre	2023-12-28T00:00:00	2024-11-08T19:00:00	4	Temperatura máxima	13.6
10575	7	Sololá	701	Sololá	2	El tablón	12	Diciembre	2023-12-28T00:00:00	2024-11-08T19:00:00	3	Temperatura mínima	12.7
10576	7	Sololá	701	Sololá	2	El tablón	12	Diciembre	2023-12-28T00:00:00	2024-11-08T19:00:00	5	Humedad	88
10577	7	Sololá	701	Sololá	2	El tablón	12	Diciembre	2023-12-28T00:00:00	2024-11-08T19:00:00	6	Velocidad del viento	0
10578	7	Sololá	701	Sololá	2	El tablón	12	Diciembre	2023-12-28T00:00:00	2024-11-08T19:00:00	7	Dirección del viento	0
10579	7	Sololá	701	Sololá	2	El tablón	12	Diciembre	2023-12-28T00:00:00	2024-11-08T19:00:00	1	Precipitación	0
10580	7	Sololá	701	Sololá	2	El tablón	12	Diciembre	2023-12-28T00:00:00	2024-11-08T19:00:00	8	Radiación solar	0
10581	7	Sololá	701	Sololá	2	El tablón	12	Diciembre	2023-12-28T00:00:00	2024-11-08T20:00:00	2	Temperatura media	12.7
10582	7	Sololá	701	Sololá	2	El tablón	12	Diciembre	2023-12-28T00:00:00	2024-11-08T20:00:00	4	Temperatura máxima	12.7
10583	7	Sololá	701	Sololá	2	El tablón	12	Diciembre	2023-12-28T00:00:00	2024-11-08T20:00:00	3	Temperatura mínima	12.3
10584	7	Sololá	701	Sololá	2	El tablón	12	Diciembre	2023-12-28T00:00:00	2024-11-08T20:00:00	5	Humedad	82
10585	7	Sololá	701	Sololá	2	El tablón	12	Diciembre	2023-12-28T00:00:00	2024-11-08T20:00:00	6	Velocidad del viento	1.6
10586	7	Sololá	701	Sololá	2	El tablón	12	Diciembre	2023-12-28T00:00:00	2024-11-08T20:00:00	7	Dirección del viento	1.61
10587	7	Sololá	701	Sololá	2	El tablón	12	Diciembre	2023-12-28T00:00:00	2024-11-08T20:00:00	1	Precipitación	0
10588	7	Sololá	701	Sololá	2	El tablón	12	Diciembre	2023-12-28T00:00:00	2024-11-08T20:00:00	8	Radiación solar	0
10589	7	Sololá	701	Sololá	2	El tablón	12	Diciembre	2023-12-28T00:00:00	2024-11-08T21:00:00	2	Temperatura media	12.7
10590	7	Sololá	701	Sololá	2	El tablón	12	Diciembre	2023-12-28T00:00:00	2024-11-08T21:00:00	4	Temperatura máxima	13.2
10591	7	Sololá	701	Sololá	2	El tablón	12	Diciembre	2023-12-28T00:00:00	2024-11-08T21:00:00	3	Temperatura mínima	12.7
10592	7	Sololá	701	Sololá	2	El tablón	12	Diciembre	2023-12-28T00:00:00	2024-11-08T21:00:00	5	Humedad	82
10593	7	Sololá	701	Sololá	2	El tablón	12	Diciembre	2023-12-28T00:00:00	2024-11-08T21:00:00	6	Velocidad del viento	3.2
10594	7	Sololá	701	Sololá	2	El tablón	12	Diciembre	2023-12-28T00:00:00	2024-11-08T21:00:00	7	Dirección del viento	3.22
10595	7	Sololá	701	Sololá	2	El tablón	12	Diciembre	2023-12-28T00:00:00	2024-11-08T21:00:00	1	Precipitación	0
10596	7	Sololá	701	Sololá	2	El tablón	12	Diciembre	2023-12-28T00:00:00	2024-11-08T21:00:00	8	Radiación solar	0
10597	7	Sololá	701	Sololá	2	El tablón	12	Diciembre	2023-12-28T00:00:00	2024-11-08T22:00:00	2	Temperatura media	12.7
10598	7	Sololá	701	Sololá	2	El tablón	12	Diciembre	2023-12-28T00:00:00	2024-11-08T22:00:00	4	Temperatura máxima	12.7
10599	7	Sololá	701	Sololá	2	El tablón	12	Diciembre	2023-12-28T00:00:00	2024-11-08T22:00:00	3	Temperatura mínima	12.4
10600	7	Sololá	701	Sololá	2	El tablón	12	Diciembre	2023-12-28T00:00:00	2024-11-08T22:00:00	5	Humedad	85
10601	7	Sololá	701	Sololá	2	El tablón	12	Diciembre	2023-12-28T00:00:00	2024-11-08T22:00:00	6	Velocidad del viento	3.2
10602	7	Sololá	701	Sololá	2	El tablón	12	Diciembre	2023-12-28T00:00:00	2024-11-08T22:00:00	7	Dirección del viento	3.22
10603	7	Sololá	701	Sololá	2	El tablón	12	Diciembre	2023-12-28T00:00:00	2024-11-08T22:00:00	1	Precipitación	0
10604	7	Sololá	701	Sololá	2	El tablón	12	Diciembre	2023-12-28T00:00:00	2024-11-08T22:00:00	8	Radiación solar	0
10605	7	Sololá	701	Sololá	2	El tablón	12	Diciembre	2023-12-28T00:00:00	2024-11-08T23:00:00	2	Temperatura media	12.2
10606	7	Sololá	701	Sololá	2	El tablón	12	Diciembre	2023-12-28T00:00:00	2024-11-08T23:00:00	4	Temperatura máxima	12.8
10607	7	Sololá	701	Sololá	2	El tablón	12	Diciembre	2023-12-28T00:00:00	2024-11-08T23:00:00	3	Temperatura mínima	12.2
10608	7	Sololá	701	Sololá	2	El tablón	12	Diciembre	2023-12-28T00:00:00	2024-11-08T23:00:00	5	Humedad	86
10609	7	Sololá	701	Sololá	2	El tablón	12	Diciembre	2023-12-28T00:00:00	2024-11-08T23:00:00	6	Velocidad del viento	1.6
10610	7	Sololá	701	Sololá	2	El tablón	12	Diciembre	2023-12-28T00:00:00	2024-11-08T23:00:00	7	Dirección del viento	1.61
10611	7	Sololá	701	Sololá	2	El tablón	12	Diciembre	2023-12-28T00:00:00	2024-11-08T23:00:00	1	Precipitación	0
10612	7	Sololá	701	Sololá	2	El tablón	12	Diciembre	2023-12-28T00:00:00	2024-11-08T23:00:00	8	Radiación solar	0
10613	7	Sololá	701	Sololá	2	El tablón	12	Diciembre	2023-12-29T00:00:00	2024-11-08T00:00:00	2	Temperatura media	11.4
10614	7	Sololá	701	Sololá	2	El tablón	12	Diciembre	2023-12-29T00:00:00	2024-11-08T00:00:00	4	Temperatura máxima	12.2
10615	7	Sololá	701	Sololá	2	El tablón	12	Diciembre	2023-12-29T00:00:00	2024-11-08T00:00:00	3	Temperatura mínima	11.4
10616	7	Sololá	701	Sololá	2	El tablón	12	Diciembre	2023-12-29T00:00:00	2024-11-08T00:00:00	5	Humedad	87
10617	7	Sololá	701	Sololá	2	El tablón	12	Diciembre	2023-12-29T00:00:00	2024-11-08T00:00:00	6	Velocidad del viento	1.6
10618	7	Sololá	701	Sololá	2	El tablón	12	Diciembre	2023-12-29T00:00:00	2024-11-08T00:00:00	7	Dirección del viento	1.61
10619	7	Sololá	701	Sololá	2	El tablón	12	Diciembre	2023-12-29T00:00:00	2024-11-08T00:00:00	1	Precipitación	0
10620	7	Sololá	701	Sololá	2	El tablón	12	Diciembre	2023-12-29T00:00:00	2024-11-08T00:00:00	8	Radiación solar	0
10621	7	Sololá	701	Sololá	2	El tablón	12	Diciembre	2023-12-29T00:00:00	2024-11-08T01:00:00	2	Temperatura media	11.3
10622	7	Sololá	701	Sololá	2	El tablón	12	Diciembre	2023-12-29T00:00:00	2024-11-08T01:00:00	4	Temperatura máxima	11.6
10623	7	Sololá	701	Sololá	2	El tablón	12	Diciembre	2023-12-29T00:00:00	2024-11-08T01:00:00	3	Temperatura mínima	11.2
10624	7	Sololá	701	Sololá	2	El tablón	12	Diciembre	2023-12-29T00:00:00	2024-11-08T01:00:00	5	Humedad	88
10625	7	Sololá	701	Sololá	2	El tablón	12	Diciembre	2023-12-29T00:00:00	2024-11-08T01:00:00	6	Velocidad del viento	0
10626	7	Sololá	701	Sololá	2	El tablón	12	Diciembre	2023-12-29T00:00:00	2024-11-08T01:00:00	7	Dirección del viento	0
10627	7	Sololá	701	Sololá	2	El tablón	12	Diciembre	2023-12-29T00:00:00	2024-11-08T01:00:00	1	Precipitación	0
10628	7	Sololá	701	Sololá	2	El tablón	12	Diciembre	2023-12-29T00:00:00	2024-11-08T01:00:00	8	Radiación solar	0
10629	7	Sololá	701	Sololá	2	El tablón	12	Diciembre	2023-12-29T00:00:00	2024-11-08T02:00:00	2	Temperatura media	11.3
10630	7	Sololá	701	Sololá	2	El tablón	12	Diciembre	2023-12-29T00:00:00	2024-11-08T02:00:00	4	Temperatura máxima	11.3
10631	7	Sololá	701	Sololá	2	El tablón	12	Diciembre	2023-12-29T00:00:00	2024-11-08T02:00:00	3	Temperatura mínima	11.2
10632	7	Sololá	701	Sololá	2	El tablón	12	Diciembre	2023-12-29T00:00:00	2024-11-08T02:00:00	5	Humedad	88
10633	7	Sololá	701	Sololá	2	El tablón	12	Diciembre	2023-12-29T00:00:00	2024-11-08T02:00:00	6	Velocidad del viento	1.6
10634	7	Sololá	701	Sololá	2	El tablón	12	Diciembre	2023-12-29T00:00:00	2024-11-08T02:00:00	7	Dirección del viento	1.61
10635	7	Sololá	701	Sololá	2	El tablón	12	Diciembre	2023-12-29T00:00:00	2024-11-08T02:00:00	1	Precipitación	0
10636	7	Sololá	701	Sololá	2	El tablón	12	Diciembre	2023-12-29T00:00:00	2024-11-08T02:00:00	8	Radiación solar	0
10637	7	Sololá	701	Sololá	2	El tablón	12	Diciembre	2023-12-29T00:00:00	2024-11-08T03:00:00	2	Temperatura media	10.9
10638	7	Sololá	701	Sololá	2	El tablón	12	Diciembre	2023-12-29T00:00:00	2024-11-08T03:00:00	4	Temperatura máxima	11.3
10639	7	Sololá	701	Sololá	2	El tablón	12	Diciembre	2023-12-29T00:00:00	2024-11-08T03:00:00	3	Temperatura mínima	10.9
10640	7	Sololá	701	Sololá	2	El tablón	12	Diciembre	2023-12-29T00:00:00	2024-11-08T03:00:00	5	Humedad	88
10641	7	Sololá	701	Sololá	2	El tablón	12	Diciembre	2023-12-29T00:00:00	2024-11-08T03:00:00	6	Velocidad del viento	1.6
10642	7	Sololá	701	Sololá	2	El tablón	12	Diciembre	2023-12-29T00:00:00	2024-11-08T03:00:00	7	Dirección del viento	1.61
10643	7	Sololá	701	Sololá	2	El tablón	12	Diciembre	2023-12-29T00:00:00	2024-11-08T03:00:00	1	Precipitación	0
10644	7	Sololá	701	Sololá	2	El tablón	12	Diciembre	2023-12-29T00:00:00	2024-11-08T03:00:00	8	Radiación solar	0
10645	7	Sololá	701	Sololá	2	El tablón	12	Diciembre	2023-12-29T00:00:00	2024-11-08T04:00:00	2	Temperatura media	10.7
10646	7	Sololá	701	Sololá	2	El tablón	12	Diciembre	2023-12-29T00:00:00	2024-11-08T04:00:00	4	Temperatura máxima	11
10647	7	Sololá	701	Sololá	2	El tablón	12	Diciembre	2023-12-29T00:00:00	2024-11-08T04:00:00	3	Temperatura mínima	10.6
10648	7	Sololá	701	Sololá	2	El tablón	12	Diciembre	2023-12-29T00:00:00	2024-11-08T04:00:00	5	Humedad	88
10649	7	Sololá	701	Sololá	2	El tablón	12	Diciembre	2023-12-29T00:00:00	2024-11-08T04:00:00	6	Velocidad del viento	1.6
10650	7	Sololá	701	Sololá	2	El tablón	12	Diciembre	2023-12-29T00:00:00	2024-11-08T04:00:00	7	Dirección del viento	1.61
10651	7	Sololá	701	Sololá	2	El tablón	12	Diciembre	2023-12-29T00:00:00	2024-11-08T04:00:00	1	Precipitación	0
10652	7	Sololá	701	Sololá	2	El tablón	12	Diciembre	2023-12-29T00:00:00	2024-11-08T04:00:00	8	Radiación solar	0
10653	7	Sololá	701	Sololá	2	El tablón	12	Diciembre	2023-12-29T00:00:00	2024-11-08T05:00:00	2	Temperatura media	10.7
10654	7	Sololá	701	Sololá	2	El tablón	12	Diciembre	2023-12-29T00:00:00	2024-11-08T05:00:00	4	Temperatura máxima	10.7
10655	7	Sololá	701	Sololá	2	El tablón	12	Diciembre	2023-12-29T00:00:00	2024-11-08T05:00:00	3	Temperatura mínima	10.4
10656	7	Sololá	701	Sololá	2	El tablón	12	Diciembre	2023-12-29T00:00:00	2024-11-08T05:00:00	5	Humedad	89
10657	7	Sololá	701	Sololá	2	El tablón	12	Diciembre	2023-12-29T00:00:00	2024-11-08T05:00:00	6	Velocidad del viento	3.2
10658	7	Sololá	701	Sololá	2	El tablón	12	Diciembre	2023-12-29T00:00:00	2024-11-08T05:00:00	7	Dirección del viento	3.22
10659	7	Sololá	701	Sololá	2	El tablón	12	Diciembre	2023-12-29T00:00:00	2024-11-08T05:00:00	1	Precipitación	0
10660	7	Sololá	701	Sololá	2	El tablón	12	Diciembre	2023-12-29T00:00:00	2024-11-08T05:00:00	8	Radiación solar	0
10661	7	Sololá	701	Sololá	2	El tablón	12	Diciembre	2023-12-29T00:00:00	2024-11-08T06:00:00	2	Temperatura media	10.7
10662	7	Sololá	701	Sololá	2	El tablón	12	Diciembre	2023-12-29T00:00:00	2024-11-08T06:00:00	4	Temperatura máxima	10.8
10663	7	Sololá	701	Sololá	2	El tablón	12	Diciembre	2023-12-29T00:00:00	2024-11-08T06:00:00	3	Temperatura mínima	10.6
10664	7	Sololá	701	Sololá	2	El tablón	12	Diciembre	2023-12-29T00:00:00	2024-11-08T06:00:00	5	Humedad	89
10665	7	Sololá	701	Sololá	2	El tablón	12	Diciembre	2023-12-29T00:00:00	2024-11-08T06:00:00	6	Velocidad del viento	3.2
10666	7	Sololá	701	Sololá	2	El tablón	12	Diciembre	2023-12-29T00:00:00	2024-11-08T06:00:00	7	Dirección del viento	3.22
10667	7	Sololá	701	Sololá	2	El tablón	12	Diciembre	2023-12-29T00:00:00	2024-11-08T06:00:00	1	Precipitación	0
10668	7	Sololá	701	Sololá	2	El tablón	12	Diciembre	2023-12-29T00:00:00	2024-11-08T06:00:00	8	Radiación solar	0
10669	7	Sololá	701	Sololá	2	El tablón	12	Diciembre	2023-12-29T00:00:00	2024-11-08T07:00:00	2	Temperatura media	10.3
10670	7	Sololá	701	Sololá	2	El tablón	12	Diciembre	2023-12-29T00:00:00	2024-11-08T07:00:00	4	Temperatura máxima	10.7
10671	7	Sololá	701	Sololá	2	El tablón	12	Diciembre	2023-12-29T00:00:00	2024-11-08T07:00:00	3	Temperatura mínima	10
10672	7	Sololá	701	Sololá	2	El tablón	12	Diciembre	2023-12-29T00:00:00	2024-11-08T07:00:00	5	Humedad	89
10673	7	Sololá	701	Sololá	2	El tablón	12	Diciembre	2023-12-29T00:00:00	2024-11-08T07:00:00	6	Velocidad del viento	3.2
10674	7	Sololá	701	Sololá	2	El tablón	12	Diciembre	2023-12-29T00:00:00	2024-11-08T07:00:00	7	Dirección del viento	3.22
10675	7	Sololá	701	Sololá	2	El tablón	12	Diciembre	2023-12-29T00:00:00	2024-11-08T07:00:00	1	Precipitación	0
10676	7	Sololá	701	Sololá	2	El tablón	12	Diciembre	2023-12-29T00:00:00	2024-11-08T07:00:00	8	Radiación solar	7
10677	7	Sololá	701	Sololá	2	El tablón	12	Diciembre	2023-12-29T00:00:00	2024-11-08T08:00:00	2	Temperatura media	11.4
10678	7	Sololá	701	Sololá	2	El tablón	12	Diciembre	2023-12-29T00:00:00	2024-11-08T08:00:00	4	Temperatura máxima	11.4
10679	7	Sololá	701	Sololá	2	El tablón	12	Diciembre	2023-12-29T00:00:00	2024-11-08T08:00:00	3	Temperatura mínima	10.3
10680	7	Sololá	701	Sololá	2	El tablón	12	Diciembre	2023-12-29T00:00:00	2024-11-08T08:00:00	5	Humedad	88
10681	7	Sololá	701	Sololá	2	El tablón	12	Diciembre	2023-12-29T00:00:00	2024-11-08T08:00:00	6	Velocidad del viento	3.2
10682	7	Sololá	701	Sololá	2	El tablón	12	Diciembre	2023-12-29T00:00:00	2024-11-08T08:00:00	7	Dirección del viento	3.22
10683	7	Sololá	701	Sololá	2	El tablón	12	Diciembre	2023-12-29T00:00:00	2024-11-08T08:00:00	1	Precipitación	0
10684	7	Sololá	701	Sololá	2	El tablón	12	Diciembre	2023-12-29T00:00:00	2024-11-08T08:00:00	8	Radiación solar	58
10685	7	Sololá	701	Sololá	2	El tablón	12	Diciembre	2023-12-29T00:00:00	2024-11-08T09:00:00	2	Temperatura media	15
10686	7	Sololá	701	Sololá	2	El tablón	12	Diciembre	2023-12-29T00:00:00	2024-11-08T09:00:00	4	Temperatura máxima	15
10687	7	Sololá	701	Sololá	2	El tablón	12	Diciembre	2023-12-29T00:00:00	2024-11-08T09:00:00	3	Temperatura mínima	11.4
10688	7	Sololá	701	Sololá	2	El tablón	12	Diciembre	2023-12-29T00:00:00	2024-11-08T09:00:00	5	Humedad	81
10689	7	Sololá	701	Sololá	2	El tablón	12	Diciembre	2023-12-29T00:00:00	2024-11-08T09:00:00	6	Velocidad del viento	1.6
10690	7	Sololá	701	Sololá	2	El tablón	12	Diciembre	2023-12-29T00:00:00	2024-11-08T09:00:00	7	Dirección del viento	1.61
10691	7	Sololá	701	Sololá	2	El tablón	12	Diciembre	2023-12-29T00:00:00	2024-11-08T09:00:00	1	Precipitación	0
10692	7	Sololá	701	Sololá	2	El tablón	12	Diciembre	2023-12-29T00:00:00	2024-11-08T09:00:00	8	Radiación solar	270
10693	7	Sololá	701	Sololá	2	El tablón	12	Diciembre	2023-12-29T00:00:00	2024-11-08T10:00:00	2	Temperatura media	14.9
10694	7	Sololá	701	Sololá	2	El tablón	12	Diciembre	2023-12-29T00:00:00	2024-11-08T10:00:00	4	Temperatura máxima	15.3
10695	7	Sololá	701	Sololá	2	El tablón	12	Diciembre	2023-12-29T00:00:00	2024-11-08T10:00:00	3	Temperatura mínima	14.9
10696	7	Sololá	701	Sololá	2	El tablón	12	Diciembre	2023-12-29T00:00:00	2024-11-08T10:00:00	5	Humedad	78
10697	7	Sololá	701	Sololá	2	El tablón	12	Diciembre	2023-12-29T00:00:00	2024-11-08T10:00:00	6	Velocidad del viento	3.2
10698	7	Sololá	701	Sololá	2	El tablón	12	Diciembre	2023-12-29T00:00:00	2024-11-08T10:00:00	7	Dirección del viento	3.22
10699	7	Sololá	701	Sololá	2	El tablón	12	Diciembre	2023-12-29T00:00:00	2024-11-08T10:00:00	1	Precipitación	0
10700	7	Sololá	701	Sololá	2	El tablón	12	Diciembre	2023-12-29T00:00:00	2024-11-08T10:00:00	8	Radiación solar	313
10701	7	Sololá	701	Sololá	2	El tablón	12	Diciembre	2023-12-29T00:00:00	2024-11-08T11:00:00	2	Temperatura media	16.8
10702	7	Sololá	701	Sololá	2	El tablón	12	Diciembre	2023-12-29T00:00:00	2024-11-08T11:00:00	4	Temperatura máxima	16.8
10703	7	Sololá	701	Sololá	2	El tablón	12	Diciembre	2023-12-29T00:00:00	2024-11-08T11:00:00	3	Temperatura mínima	14.9
10704	7	Sololá	701	Sololá	2	El tablón	12	Diciembre	2023-12-29T00:00:00	2024-11-08T11:00:00	5	Humedad	68
10705	7	Sololá	701	Sololá	2	El tablón	12	Diciembre	2023-12-29T00:00:00	2024-11-08T11:00:00	6	Velocidad del viento	4.8
10706	7	Sololá	701	Sololá	2	El tablón	12	Diciembre	2023-12-29T00:00:00	2024-11-08T11:00:00	7	Dirección del viento	4.83
10707	7	Sololá	701	Sololá	2	El tablón	12	Diciembre	2023-12-29T00:00:00	2024-11-08T11:00:00	1	Precipitación	0
10708	7	Sololá	701	Sololá	2	El tablón	12	Diciembre	2023-12-29T00:00:00	2024-11-08T11:00:00	8	Radiación solar	545
10709	7	Sololá	701	Sololá	2	El tablón	12	Diciembre	2023-12-29T00:00:00	2024-11-08T12:00:00	2	Temperatura media	16.6
10710	7	Sololá	701	Sololá	2	El tablón	12	Diciembre	2023-12-29T00:00:00	2024-11-08T12:00:00	4	Temperatura máxima	17
10711	7	Sololá	701	Sololá	2	El tablón	12	Diciembre	2023-12-29T00:00:00	2024-11-08T12:00:00	3	Temperatura mínima	16.6
10712	7	Sololá	701	Sololá	2	El tablón	12	Diciembre	2023-12-29T00:00:00	2024-11-08T12:00:00	5	Humedad	71
10713	7	Sololá	701	Sololá	2	El tablón	12	Diciembre	2023-12-29T00:00:00	2024-11-08T12:00:00	6	Velocidad del viento	6.4
10714	7	Sololá	701	Sololá	2	El tablón	12	Diciembre	2023-12-29T00:00:00	2024-11-08T12:00:00	7	Dirección del viento	6.44
10715	7	Sololá	701	Sololá	2	El tablón	12	Diciembre	2023-12-29T00:00:00	2024-11-08T12:00:00	1	Precipitación	0
10716	7	Sololá	701	Sololá	2	El tablón	12	Diciembre	2023-12-29T00:00:00	2024-11-08T12:00:00	8	Radiación solar	606
10717	7	Sololá	701	Sololá	2	El tablón	12	Diciembre	2023-12-29T00:00:00	2024-11-08T13:00:00	2	Temperatura media	16.9
10718	7	Sololá	701	Sololá	2	El tablón	12	Diciembre	2023-12-29T00:00:00	2024-11-08T13:00:00	4	Temperatura máxima	17.4
10719	7	Sololá	701	Sololá	2	El tablón	12	Diciembre	2023-12-29T00:00:00	2024-11-08T13:00:00	3	Temperatura mínima	16.5
10720	7	Sololá	701	Sololá	2	El tablón	12	Diciembre	2023-12-29T00:00:00	2024-11-08T13:00:00	5	Humedad	74
10721	7	Sololá	701	Sololá	2	El tablón	12	Diciembre	2023-12-29T00:00:00	2024-11-08T13:00:00	6	Velocidad del viento	6.4
10722	7	Sololá	701	Sololá	2	El tablón	12	Diciembre	2023-12-29T00:00:00	2024-11-08T13:00:00	7	Dirección del viento	6.44
10723	7	Sololá	701	Sololá	2	El tablón	12	Diciembre	2023-12-29T00:00:00	2024-11-08T13:00:00	1	Precipitación	0
10724	7	Sololá	701	Sololá	2	El tablón	12	Diciembre	2023-12-29T00:00:00	2024-11-08T13:00:00	8	Radiación solar	718
10725	7	Sololá	701	Sololá	2	El tablón	12	Diciembre	2023-12-29T00:00:00	2024-11-08T14:00:00	2	Temperatura media	16
10726	7	Sololá	701	Sololá	2	El tablón	12	Diciembre	2023-12-29T00:00:00	2024-11-08T14:00:00	4	Temperatura máxima	17.2
10727	7	Sololá	701	Sololá	2	El tablón	12	Diciembre	2023-12-29T00:00:00	2024-11-08T14:00:00	3	Temperatura mínima	16
10728	7	Sololá	701	Sololá	2	El tablón	12	Diciembre	2023-12-29T00:00:00	2024-11-08T14:00:00	5	Humedad	77
10729	7	Sololá	701	Sololá	2	El tablón	12	Diciembre	2023-12-29T00:00:00	2024-11-08T14:00:00	6	Velocidad del viento	8
10730	7	Sololá	701	Sololá	2	El tablón	12	Diciembre	2023-12-29T00:00:00	2024-11-08T14:00:00	7	Dirección del viento	8.05
10731	7	Sololá	701	Sololá	2	El tablón	12	Diciembre	2023-12-29T00:00:00	2024-11-08T14:00:00	1	Precipitación	0
10732	7	Sololá	701	Sololá	2	El tablón	12	Diciembre	2023-12-29T00:00:00	2024-11-08T14:00:00	8	Radiación solar	542
10733	7	Sololá	701	Sololá	2	El tablón	12	Diciembre	2023-12-29T00:00:00	2024-11-08T15:00:00	2	Temperatura media	15.9
10734	7	Sololá	701	Sololá	2	El tablón	12	Diciembre	2023-12-29T00:00:00	2024-11-08T15:00:00	4	Temperatura máxima	16
10735	7	Sololá	701	Sololá	2	El tablón	12	Diciembre	2023-12-29T00:00:00	2024-11-08T15:00:00	3	Temperatura mínima	15.2
10736	7	Sololá	701	Sololá	2	El tablón	12	Diciembre	2023-12-29T00:00:00	2024-11-08T15:00:00	5	Humedad	78
10737	7	Sololá	701	Sololá	2	El tablón	12	Diciembre	2023-12-29T00:00:00	2024-11-08T15:00:00	6	Velocidad del viento	8
10738	7	Sololá	701	Sololá	2	El tablón	12	Diciembre	2023-12-29T00:00:00	2024-11-08T15:00:00	7	Dirección del viento	8.05
10739	7	Sololá	701	Sololá	2	El tablón	12	Diciembre	2023-12-29T00:00:00	2024-11-08T15:00:00	1	Precipitación	0
10740	7	Sololá	701	Sololá	2	El tablón	12	Diciembre	2023-12-29T00:00:00	2024-11-08T15:00:00	8	Radiación solar	371
10741	7	Sololá	701	Sololá	2	El tablón	12	Diciembre	2023-12-29T00:00:00	2024-11-08T16:00:00	2	Temperatura media	15.2
10742	7	Sololá	701	Sololá	2	El tablón	12	Diciembre	2023-12-29T00:00:00	2024-11-08T16:00:00	4	Temperatura máxima	16.5
10743	7	Sololá	701	Sololá	2	El tablón	12	Diciembre	2023-12-29T00:00:00	2024-11-08T16:00:00	3	Temperatura mínima	15.1
10744	7	Sololá	701	Sololá	2	El tablón	12	Diciembre	2023-12-29T00:00:00	2024-11-08T16:00:00	5	Humedad	83
10745	7	Sololá	701	Sololá	2	El tablón	12	Diciembre	2023-12-29T00:00:00	2024-11-08T16:00:00	6	Velocidad del viento	6.4
10746	7	Sololá	701	Sololá	2	El tablón	12	Diciembre	2023-12-29T00:00:00	2024-11-08T16:00:00	7	Dirección del viento	6.44
10747	7	Sololá	701	Sololá	2	El tablón	12	Diciembre	2023-12-29T00:00:00	2024-11-08T16:00:00	1	Precipitación	0
10748	7	Sololá	701	Sololá	2	El tablón	12	Diciembre	2023-12-29T00:00:00	2024-11-08T16:00:00	8	Radiación solar	353
10749	7	Sololá	701	Sololá	2	El tablón	12	Diciembre	2023-12-29T00:00:00	2024-11-08T17:00:00	2	Temperatura media	15
10750	7	Sololá	701	Sololá	2	El tablón	12	Diciembre	2023-12-29T00:00:00	2024-11-08T17:00:00	4	Temperatura máxima	15.9
10751	7	Sololá	701	Sololá	2	El tablón	12	Diciembre	2023-12-29T00:00:00	2024-11-08T17:00:00	3	Temperatura mínima	15
10752	7	Sololá	701	Sololá	2	El tablón	12	Diciembre	2023-12-29T00:00:00	2024-11-08T17:00:00	5	Humedad	81
10753	7	Sololá	701	Sololá	2	El tablón	12	Diciembre	2023-12-29T00:00:00	2024-11-08T17:00:00	6	Velocidad del viento	4.8
10754	7	Sololá	701	Sololá	2	El tablón	12	Diciembre	2023-12-29T00:00:00	2024-11-08T17:00:00	7	Dirección del viento	4.83
10755	7	Sololá	701	Sololá	2	El tablón	12	Diciembre	2023-12-29T00:00:00	2024-11-08T17:00:00	1	Precipitación	0
10756	7	Sololá	701	Sololá	2	El tablón	12	Diciembre	2023-12-29T00:00:00	2024-11-08T17:00:00	8	Radiación solar	210
10757	7	Sololá	701	Sololá	2	El tablón	12	Diciembre	2023-12-29T00:00:00	2024-11-08T18:00:00	2	Temperatura media	13.3
10758	7	Sololá	701	Sololá	2	El tablón	12	Diciembre	2023-12-29T00:00:00	2024-11-08T18:00:00	4	Temperatura máxima	15
10759	7	Sololá	701	Sololá	2	El tablón	12	Diciembre	2023-12-29T00:00:00	2024-11-08T18:00:00	3	Temperatura mínima	13.2
10760	7	Sololá	701	Sololá	2	El tablón	12	Diciembre	2023-12-29T00:00:00	2024-11-08T18:00:00	5	Humedad	88
10761	7	Sololá	701	Sololá	2	El tablón	12	Diciembre	2023-12-29T00:00:00	2024-11-08T18:00:00	6	Velocidad del viento	3.2
10762	7	Sololá	701	Sololá	2	El tablón	12	Diciembre	2023-12-29T00:00:00	2024-11-08T18:00:00	7	Dirección del viento	3.22
10763	7	Sololá	701	Sololá	2	El tablón	12	Diciembre	2023-12-29T00:00:00	2024-11-08T18:00:00	1	Precipitación	0
10764	7	Sololá	701	Sololá	2	El tablón	12	Diciembre	2023-12-29T00:00:00	2024-11-08T18:00:00	8	Radiación solar	30
10765	7	Sololá	701	Sololá	2	El tablón	12	Diciembre	2023-12-29T00:00:00	2024-11-08T19:00:00	2	Temperatura media	12.4
10766	7	Sololá	701	Sololá	2	El tablón	12	Diciembre	2023-12-29T00:00:00	2024-11-08T19:00:00	4	Temperatura máxima	13.3
10767	7	Sololá	701	Sololá	2	El tablón	12	Diciembre	2023-12-29T00:00:00	2024-11-08T19:00:00	3	Temperatura mínima	12.4
10768	7	Sololá	701	Sololá	2	El tablón	12	Diciembre	2023-12-29T00:00:00	2024-11-08T19:00:00	5	Humedad	88
10769	7	Sololá	701	Sololá	2	El tablón	12	Diciembre	2023-12-29T00:00:00	2024-11-08T19:00:00	6	Velocidad del viento	0
10770	7	Sololá	701	Sololá	2	El tablón	12	Diciembre	2023-12-29T00:00:00	2024-11-08T19:00:00	7	Dirección del viento	0
10771	7	Sololá	701	Sololá	2	El tablón	12	Diciembre	2023-12-29T00:00:00	2024-11-08T19:00:00	1	Precipitación	0
10772	7	Sololá	701	Sololá	2	El tablón	12	Diciembre	2023-12-29T00:00:00	2024-11-08T19:00:00	8	Radiación solar	0
10773	7	Sololá	701	Sololá	2	El tablón	12	Diciembre	2023-12-29T00:00:00	2024-11-08T20:00:00	2	Temperatura media	12.2
10774	7	Sololá	701	Sololá	2	El tablón	12	Diciembre	2023-12-29T00:00:00	2024-11-08T20:00:00	4	Temperatura máxima	12.4
10775	7	Sololá	701	Sololá	2	El tablón	12	Diciembre	2023-12-29T00:00:00	2024-11-08T20:00:00	3	Temperatura mínima	12.2
10776	7	Sololá	701	Sololá	2	El tablón	12	Diciembre	2023-12-29T00:00:00	2024-11-08T20:00:00	5	Humedad	88
10777	7	Sololá	701	Sololá	2	El tablón	12	Diciembre	2023-12-29T00:00:00	2024-11-08T20:00:00	6	Velocidad del viento	0
10778	7	Sololá	701	Sololá	2	El tablón	12	Diciembre	2023-12-29T00:00:00	2024-11-08T20:00:00	7	Dirección del viento	0
10779	7	Sololá	701	Sololá	2	El tablón	12	Diciembre	2023-12-29T00:00:00	2024-11-08T20:00:00	1	Precipitación	0
10780	7	Sololá	701	Sololá	2	El tablón	12	Diciembre	2023-12-29T00:00:00	2024-11-08T20:00:00	8	Radiación solar	0
10781	7	Sololá	701	Sololá	2	El tablón	12	Diciembre	2023-12-29T00:00:00	2024-11-08T21:00:00	2	Temperatura media	11.2
10782	7	Sololá	701	Sololá	2	El tablón	12	Diciembre	2023-12-29T00:00:00	2024-11-08T21:00:00	4	Temperatura máxima	12.2
10783	7	Sololá	701	Sololá	2	El tablón	12	Diciembre	2023-12-29T00:00:00	2024-11-08T21:00:00	3	Temperatura mínima	11.1
10784	7	Sololá	701	Sololá	2	El tablón	12	Diciembre	2023-12-29T00:00:00	2024-11-08T21:00:00	5	Humedad	87
10785	7	Sololá	701	Sololá	2	El tablón	12	Diciembre	2023-12-29T00:00:00	2024-11-08T21:00:00	6	Velocidad del viento	0
10786	7	Sololá	701	Sololá	2	El tablón	12	Diciembre	2023-12-29T00:00:00	2024-11-08T21:00:00	7	Dirección del viento	0
10787	7	Sololá	701	Sololá	2	El tablón	12	Diciembre	2023-12-29T00:00:00	2024-11-08T21:00:00	1	Precipitación	0
10788	7	Sololá	701	Sololá	2	El tablón	12	Diciembre	2023-12-29T00:00:00	2024-11-08T21:00:00	8	Radiación solar	0
10789	7	Sololá	701	Sololá	2	El tablón	12	Diciembre	2023-12-29T00:00:00	2024-11-08T22:00:00	2	Temperatura media	10
10790	7	Sololá	701	Sololá	2	El tablón	12	Diciembre	2023-12-29T00:00:00	2024-11-08T22:00:00	4	Temperatura máxima	11.3
10791	7	Sololá	701	Sololá	2	El tablón	12	Diciembre	2023-12-29T00:00:00	2024-11-08T22:00:00	3	Temperatura mínima	10
10792	7	Sololá	701	Sololá	2	El tablón	12	Diciembre	2023-12-29T00:00:00	2024-11-08T22:00:00	5	Humedad	88
10793	7	Sololá	701	Sololá	2	El tablón	12	Diciembre	2023-12-29T00:00:00	2024-11-08T22:00:00	6	Velocidad del viento	1.6
10794	7	Sololá	701	Sololá	2	El tablón	12	Diciembre	2023-12-29T00:00:00	2024-11-08T22:00:00	7	Dirección del viento	1.61
10795	7	Sololá	701	Sololá	2	El tablón	12	Diciembre	2023-12-29T00:00:00	2024-11-08T22:00:00	1	Precipitación	0
10796	7	Sololá	701	Sololá	2	El tablón	12	Diciembre	2023-12-29T00:00:00	2024-11-08T22:00:00	8	Radiación solar	0
10797	7	Sololá	701	Sololá	2	El tablón	12	Diciembre	2023-12-29T00:00:00	2024-11-08T23:00:00	2	Temperatura media	9.7
10798	7	Sololá	701	Sololá	2	El tablón	12	Diciembre	2023-12-29T00:00:00	2024-11-08T23:00:00	4	Temperatura máxima	10.1
10799	7	Sololá	701	Sololá	2	El tablón	12	Diciembre	2023-12-29T00:00:00	2024-11-08T23:00:00	3	Temperatura mínima	9.7
10800	7	Sololá	701	Sololá	2	El tablón	12	Diciembre	2023-12-29T00:00:00	2024-11-08T23:00:00	5	Humedad	83
10801	7	Sololá	701	Sololá	2	El tablón	12	Diciembre	2023-12-29T00:00:00	2024-11-08T23:00:00	6	Velocidad del viento	4.8
10802	7	Sololá	701	Sololá	2	El tablón	12	Diciembre	2023-12-29T00:00:00	2024-11-08T23:00:00	7	Dirección del viento	4.83
10803	7	Sololá	701	Sololá	2	El tablón	12	Diciembre	2023-12-29T00:00:00	2024-11-08T23:00:00	1	Precipitación	0
10804	7	Sololá	701	Sololá	2	El tablón	12	Diciembre	2023-12-29T00:00:00	2024-11-08T23:00:00	8	Radiación solar	0
10805	7	Sololá	701	Sololá	2	El tablón	12	Diciembre	2023-12-30T00:00:00	2024-11-08T00:00:00	2	Temperatura media	9.5
10806	7	Sololá	701	Sololá	2	El tablón	12	Diciembre	2023-12-30T00:00:00	2024-11-08T00:00:00	4	Temperatura máxima	9.7
10807	7	Sololá	701	Sololá	2	El tablón	12	Diciembre	2023-12-30T00:00:00	2024-11-08T00:00:00	3	Temperatura mínima	9.2
10808	7	Sololá	701	Sololá	2	El tablón	12	Diciembre	2023-12-30T00:00:00	2024-11-08T00:00:00	5	Humedad	79
10809	7	Sololá	701	Sololá	2	El tablón	12	Diciembre	2023-12-30T00:00:00	2024-11-08T00:00:00	6	Velocidad del viento	1.6
10810	7	Sololá	701	Sololá	2	El tablón	12	Diciembre	2023-12-30T00:00:00	2024-11-08T00:00:00	7	Dirección del viento	1.61
10811	7	Sololá	701	Sololá	2	El tablón	12	Diciembre	2023-12-30T00:00:00	2024-11-08T00:00:00	1	Precipitación	0
10812	7	Sololá	701	Sololá	2	El tablón	12	Diciembre	2023-12-30T00:00:00	2024-11-08T00:00:00	8	Radiación solar	0
10813	7	Sololá	701	Sololá	2	El tablón	12	Diciembre	2023-12-30T00:00:00	2024-11-08T01:00:00	2	Temperatura media	8.9
10814	7	Sololá	701	Sololá	2	El tablón	12	Diciembre	2023-12-30T00:00:00	2024-11-08T01:00:00	4	Temperatura máxima	9.7
10815	7	Sololá	701	Sololá	2	El tablón	12	Diciembre	2023-12-30T00:00:00	2024-11-08T01:00:00	3	Temperatura mínima	8.9
10816	7	Sololá	701	Sololá	2	El tablón	12	Diciembre	2023-12-30T00:00:00	2024-11-08T01:00:00	5	Humedad	81
10817	7	Sololá	701	Sololá	2	El tablón	12	Diciembre	2023-12-30T00:00:00	2024-11-08T01:00:00	6	Velocidad del viento	1.6
10818	7	Sololá	701	Sololá	2	El tablón	12	Diciembre	2023-12-30T00:00:00	2024-11-08T01:00:00	7	Dirección del viento	1.61
10819	7	Sololá	701	Sololá	2	El tablón	12	Diciembre	2023-12-30T00:00:00	2024-11-08T01:00:00	1	Precipitación	0
10820	7	Sololá	701	Sololá	2	El tablón	12	Diciembre	2023-12-30T00:00:00	2024-11-08T01:00:00	8	Radiación solar	0
10821	7	Sololá	701	Sololá	2	El tablón	12	Diciembre	2023-12-30T00:00:00	2024-11-08T02:00:00	2	Temperatura media	8.5
10822	7	Sololá	701	Sololá	2	El tablón	12	Diciembre	2023-12-30T00:00:00	2024-11-08T02:00:00	4	Temperatura máxima	8.9
10823	7	Sololá	701	Sololá	2	El tablón	12	Diciembre	2023-12-30T00:00:00	2024-11-08T02:00:00	3	Temperatura mínima	8.3
10824	7	Sololá	701	Sololá	2	El tablón	12	Diciembre	2023-12-30T00:00:00	2024-11-08T02:00:00	5	Humedad	82
10825	7	Sololá	701	Sololá	2	El tablón	12	Diciembre	2023-12-30T00:00:00	2024-11-08T02:00:00	6	Velocidad del viento	3.2
10826	7	Sololá	701	Sololá	2	El tablón	12	Diciembre	2023-12-30T00:00:00	2024-11-08T02:00:00	7	Dirección del viento	3.22
10827	7	Sololá	701	Sololá	2	El tablón	12	Diciembre	2023-12-30T00:00:00	2024-11-08T02:00:00	1	Precipitación	0
10828	7	Sololá	701	Sololá	2	El tablón	12	Diciembre	2023-12-30T00:00:00	2024-11-08T02:00:00	8	Radiación solar	0
10829	7	Sololá	701	Sololá	2	El tablón	12	Diciembre	2023-12-30T00:00:00	2024-11-08T03:00:00	2	Temperatura media	8.4
10830	7	Sololá	701	Sololá	2	El tablón	12	Diciembre	2023-12-30T00:00:00	2024-11-08T03:00:00	4	Temperatura máxima	8.6
10831	7	Sololá	701	Sololá	2	El tablón	12	Diciembre	2023-12-30T00:00:00	2024-11-08T03:00:00	3	Temperatura mínima	8.4
10832	7	Sololá	701	Sololá	2	El tablón	12	Diciembre	2023-12-30T00:00:00	2024-11-08T03:00:00	5	Humedad	82
10833	7	Sololá	701	Sololá	2	El tablón	12	Diciembre	2023-12-30T00:00:00	2024-11-08T03:00:00	6	Velocidad del viento	3.2
10834	7	Sololá	701	Sololá	2	El tablón	12	Diciembre	2023-12-30T00:00:00	2024-11-08T03:00:00	7	Dirección del viento	3.22
10835	7	Sololá	701	Sololá	2	El tablón	12	Diciembre	2023-12-30T00:00:00	2024-11-08T03:00:00	1	Precipitación	0
10836	7	Sololá	701	Sololá	2	El tablón	12	Diciembre	2023-12-30T00:00:00	2024-11-08T03:00:00	8	Radiación solar	0
10837	7	Sololá	701	Sololá	2	El tablón	12	Diciembre	2023-12-30T00:00:00	2024-11-08T04:00:00	2	Temperatura media	8.6
10838	7	Sololá	701	Sololá	2	El tablón	12	Diciembre	2023-12-30T00:00:00	2024-11-08T04:00:00	4	Temperatura máxima	8.6
10839	7	Sololá	701	Sololá	2	El tablón	12	Diciembre	2023-12-30T00:00:00	2024-11-08T04:00:00	3	Temperatura mínima	8.1
10840	7	Sololá	701	Sololá	2	El tablón	12	Diciembre	2023-12-30T00:00:00	2024-11-08T04:00:00	5	Humedad	86
10841	7	Sololá	701	Sololá	2	El tablón	12	Diciembre	2023-12-30T00:00:00	2024-11-08T04:00:00	6	Velocidad del viento	4.8
10842	7	Sololá	701	Sololá	2	El tablón	12	Diciembre	2023-12-30T00:00:00	2024-11-08T04:00:00	7	Dirección del viento	4.83
10843	7	Sololá	701	Sololá	2	El tablón	12	Diciembre	2023-12-30T00:00:00	2024-11-08T04:00:00	1	Precipitación	0
10844	7	Sololá	701	Sololá	2	El tablón	12	Diciembre	2023-12-30T00:00:00	2024-11-08T04:00:00	8	Radiación solar	0
10845	7	Sololá	701	Sololá	2	El tablón	12	Diciembre	2023-12-30T00:00:00	2024-11-08T05:00:00	2	Temperatura media	8.7
10846	7	Sololá	701	Sololá	2	El tablón	12	Diciembre	2023-12-30T00:00:00	2024-11-08T05:00:00	4	Temperatura máxima	8.9
10847	7	Sololá	701	Sololá	2	El tablón	12	Diciembre	2023-12-30T00:00:00	2024-11-08T05:00:00	3	Temperatura mínima	8.3
10848	7	Sololá	701	Sololá	2	El tablón	12	Diciembre	2023-12-30T00:00:00	2024-11-08T05:00:00	5	Humedad	87
10849	7	Sololá	701	Sololá	2	El tablón	12	Diciembre	2023-12-30T00:00:00	2024-11-08T05:00:00	6	Velocidad del viento	3.2
10850	7	Sololá	701	Sololá	2	El tablón	12	Diciembre	2023-12-30T00:00:00	2024-11-08T05:00:00	7	Dirección del viento	3.22
10851	7	Sololá	701	Sololá	2	El tablón	12	Diciembre	2023-12-30T00:00:00	2024-11-08T05:00:00	1	Precipitación	0
10852	7	Sololá	701	Sololá	2	El tablón	12	Diciembre	2023-12-30T00:00:00	2024-11-08T05:00:00	8	Radiación solar	0
10853	7	Sololá	701	Sololá	2	El tablón	12	Diciembre	2023-12-30T00:00:00	2024-11-08T06:00:00	2	Temperatura media	8.8
10854	7	Sololá	701	Sololá	2	El tablón	12	Diciembre	2023-12-30T00:00:00	2024-11-08T06:00:00	4	Temperatura máxima	9
10855	7	Sololá	701	Sololá	2	El tablón	12	Diciembre	2023-12-30T00:00:00	2024-11-08T06:00:00	3	Temperatura mínima	8.7
10856	7	Sololá	701	Sololá	2	El tablón	12	Diciembre	2023-12-30T00:00:00	2024-11-08T06:00:00	5	Humedad	87
10857	7	Sololá	701	Sololá	2	El tablón	12	Diciembre	2023-12-30T00:00:00	2024-11-08T06:00:00	6	Velocidad del viento	4.8
10858	7	Sololá	701	Sololá	2	El tablón	12	Diciembre	2023-12-30T00:00:00	2024-11-08T06:00:00	7	Dirección del viento	4.83
10859	7	Sololá	701	Sololá	2	El tablón	12	Diciembre	2023-12-30T00:00:00	2024-11-08T06:00:00	1	Precipitación	0
10860	7	Sololá	701	Sololá	2	El tablón	12	Diciembre	2023-12-30T00:00:00	2024-11-08T06:00:00	8	Radiación solar	0
10861	7	Sololá	701	Sololá	2	El tablón	12	Diciembre	2023-12-30T00:00:00	2024-11-08T07:00:00	2	Temperatura media	10.4
10862	7	Sololá	701	Sololá	2	El tablón	12	Diciembre	2023-12-30T00:00:00	2024-11-08T07:00:00	4	Temperatura máxima	10.4
10863	7	Sololá	701	Sololá	2	El tablón	12	Diciembre	2023-12-30T00:00:00	2024-11-08T07:00:00	3	Temperatura mínima	8.8
10864	7	Sololá	701	Sololá	2	El tablón	12	Diciembre	2023-12-30T00:00:00	2024-11-08T07:00:00	5	Humedad	86
10865	7	Sololá	701	Sololá	2	El tablón	12	Diciembre	2023-12-30T00:00:00	2024-11-08T07:00:00	6	Velocidad del viento	6.4
10866	7	Sololá	701	Sololá	2	El tablón	12	Diciembre	2023-12-30T00:00:00	2024-11-08T07:00:00	7	Dirección del viento	6.44
10867	7	Sololá	701	Sololá	2	El tablón	12	Diciembre	2023-12-30T00:00:00	2024-11-08T07:00:00	1	Precipitación	0
10868	7	Sololá	701	Sololá	2	El tablón	12	Diciembre	2023-12-30T00:00:00	2024-11-08T07:00:00	8	Radiación solar	7
10869	7	Sololá	701	Sololá	2	El tablón	12	Diciembre	2023-12-30T00:00:00	2024-11-08T08:00:00	2	Temperatura media	12.7
10870	7	Sololá	701	Sololá	2	El tablón	12	Diciembre	2023-12-30T00:00:00	2024-11-08T08:00:00	4	Temperatura máxima	12.7
10871	7	Sololá	701	Sololá	2	El tablón	12	Diciembre	2023-12-30T00:00:00	2024-11-08T08:00:00	3	Temperatura mínima	10.4
10872	7	Sololá	701	Sololá	2	El tablón	12	Diciembre	2023-12-30T00:00:00	2024-11-08T08:00:00	5	Humedad	79
10873	7	Sololá	701	Sololá	2	El tablón	12	Diciembre	2023-12-30T00:00:00	2024-11-08T08:00:00	6	Velocidad del viento	8
10874	7	Sololá	701	Sololá	2	El tablón	12	Diciembre	2023-12-30T00:00:00	2024-11-08T08:00:00	7	Dirección del viento	8.05
10875	7	Sololá	701	Sololá	2	El tablón	12	Diciembre	2023-12-30T00:00:00	2024-11-08T08:00:00	1	Precipitación	0
10876	7	Sololá	701	Sololá	2	El tablón	12	Diciembre	2023-12-30T00:00:00	2024-11-08T08:00:00	8	Radiación solar	124
10877	7	Sololá	701	Sololá	2	El tablón	12	Diciembre	2023-12-30T00:00:00	2024-11-08T09:00:00	2	Temperatura media	14.8
10878	7	Sololá	701	Sololá	2	El tablón	12	Diciembre	2023-12-30T00:00:00	2024-11-08T09:00:00	4	Temperatura máxima	14.8
10879	7	Sololá	701	Sololá	2	El tablón	12	Diciembre	2023-12-30T00:00:00	2024-11-08T09:00:00	3	Temperatura mínima	12.7
10880	7	Sololá	701	Sololá	2	El tablón	12	Diciembre	2023-12-30T00:00:00	2024-11-08T09:00:00	5	Humedad	72
10881	7	Sololá	701	Sololá	2	El tablón	12	Diciembre	2023-12-30T00:00:00	2024-11-08T09:00:00	6	Velocidad del viento	8
10882	7	Sololá	701	Sololá	2	El tablón	12	Diciembre	2023-12-30T00:00:00	2024-11-08T09:00:00	7	Dirección del viento	8.05
10883	7	Sololá	701	Sololá	2	El tablón	12	Diciembre	2023-12-30T00:00:00	2024-11-08T09:00:00	1	Precipitación	0
10884	7	Sololá	701	Sololá	2	El tablón	12	Diciembre	2023-12-30T00:00:00	2024-11-08T09:00:00	8	Radiación solar	346
10885	7	Sololá	701	Sololá	2	El tablón	12	Diciembre	2023-12-30T00:00:00	2024-11-08T10:00:00	2	Temperatura media	16.1
10886	7	Sololá	701	Sololá	2	El tablón	12	Diciembre	2023-12-30T00:00:00	2024-11-08T10:00:00	4	Temperatura máxima	16.1
10887	7	Sololá	701	Sololá	2	El tablón	12	Diciembre	2023-12-30T00:00:00	2024-11-08T10:00:00	3	Temperatura mínima	14.8
10888	7	Sololá	701	Sololá	2	El tablón	12	Diciembre	2023-12-30T00:00:00	2024-11-08T10:00:00	5	Humedad	66
10889	7	Sololá	701	Sololá	2	El tablón	12	Diciembre	2023-12-30T00:00:00	2024-11-08T10:00:00	6	Velocidad del viento	8
10890	7	Sololá	701	Sololá	2	El tablón	12	Diciembre	2023-12-30T00:00:00	2024-11-08T10:00:00	7	Dirección del viento	8.05
10891	7	Sololá	701	Sololá	2	El tablón	12	Diciembre	2023-12-30T00:00:00	2024-11-08T10:00:00	1	Precipitación	0
10892	7	Sololá	701	Sololá	2	El tablón	12	Diciembre	2023-12-30T00:00:00	2024-11-08T10:00:00	8	Radiación solar	526
10893	7	Sololá	701	Sololá	2	El tablón	12	Diciembre	2023-12-30T00:00:00	2024-11-08T11:00:00	2	Temperatura media	16.9
10894	7	Sololá	701	Sololá	2	El tablón	12	Diciembre	2023-12-30T00:00:00	2024-11-08T11:00:00	4	Temperatura máxima	17.2
10895	7	Sololá	701	Sololá	2	El tablón	12	Diciembre	2023-12-30T00:00:00	2024-11-08T11:00:00	3	Temperatura mínima	16.1
10896	7	Sololá	701	Sololá	2	El tablón	12	Diciembre	2023-12-30T00:00:00	2024-11-08T11:00:00	5	Humedad	60
10897	7	Sololá	701	Sololá	2	El tablón	12	Diciembre	2023-12-30T00:00:00	2024-11-08T11:00:00	6	Velocidad del viento	8
10898	7	Sololá	701	Sololá	2	El tablón	12	Diciembre	2023-12-30T00:00:00	2024-11-08T11:00:00	7	Dirección del viento	8.05
10899	7	Sololá	701	Sololá	2	El tablón	12	Diciembre	2023-12-30T00:00:00	2024-11-08T11:00:00	1	Precipitación	0
10900	7	Sololá	701	Sololá	2	El tablón	12	Diciembre	2023-12-30T00:00:00	2024-11-08T11:00:00	8	Radiación solar	677
10901	7	Sololá	701	Sololá	2	El tablón	12	Diciembre	2023-12-30T00:00:00	2024-11-08T12:00:00	2	Temperatura media	17.6
10902	7	Sololá	701	Sololá	2	El tablón	12	Diciembre	2023-12-30T00:00:00	2024-11-08T12:00:00	4	Temperatura máxima	17.6
10903	7	Sololá	701	Sololá	2	El tablón	12	Diciembre	2023-12-30T00:00:00	2024-11-08T12:00:00	3	Temperatura mínima	16.6
10904	7	Sololá	701	Sololá	2	El tablón	12	Diciembre	2023-12-30T00:00:00	2024-11-08T12:00:00	5	Humedad	65
10905	7	Sololá	701	Sololá	2	El tablón	12	Diciembre	2023-12-30T00:00:00	2024-11-08T12:00:00	6	Velocidad del viento	6.4
10906	7	Sololá	701	Sololá	2	El tablón	12	Diciembre	2023-12-30T00:00:00	2024-11-08T12:00:00	7	Dirección del viento	6.44
10907	7	Sololá	701	Sololá	2	El tablón	12	Diciembre	2023-12-30T00:00:00	2024-11-08T12:00:00	1	Precipitación	0
10908	7	Sololá	701	Sololá	2	El tablón	12	Diciembre	2023-12-30T00:00:00	2024-11-08T12:00:00	8	Radiación solar	618
10909	7	Sololá	701	Sololá	2	El tablón	12	Diciembre	2023-12-30T00:00:00	2024-11-08T13:00:00	2	Temperatura media	18.3
10910	7	Sololá	701	Sololá	2	El tablón	12	Diciembre	2023-12-30T00:00:00	2024-11-08T13:00:00	4	Temperatura máxima	18.3
10911	7	Sololá	701	Sololá	2	El tablón	12	Diciembre	2023-12-30T00:00:00	2024-11-08T13:00:00	3	Temperatura mínima	17.6
10912	7	Sololá	701	Sololá	2	El tablón	12	Diciembre	2023-12-30T00:00:00	2024-11-08T13:00:00	5	Humedad	68
10913	7	Sololá	701	Sololá	2	El tablón	12	Diciembre	2023-12-30T00:00:00	2024-11-08T13:00:00	6	Velocidad del viento	6.4
10914	7	Sololá	701	Sololá	2	El tablón	12	Diciembre	2023-12-30T00:00:00	2024-11-08T13:00:00	7	Dirección del viento	6.44
10915	7	Sololá	701	Sololá	2	El tablón	12	Diciembre	2023-12-30T00:00:00	2024-11-08T13:00:00	1	Precipitación	0
10916	7	Sololá	701	Sololá	2	El tablón	12	Diciembre	2023-12-30T00:00:00	2024-11-08T13:00:00	8	Radiación solar	776
10917	7	Sololá	701	Sololá	2	El tablón	12	Diciembre	2023-12-30T00:00:00	2024-11-08T14:00:00	2	Temperatura media	17.7
10918	7	Sololá	701	Sololá	2	El tablón	12	Diciembre	2023-12-30T00:00:00	2024-11-08T14:00:00	4	Temperatura máxima	18.8
10919	7	Sololá	701	Sololá	2	El tablón	12	Diciembre	2023-12-30T00:00:00	2024-11-08T14:00:00	3	Temperatura mínima	17.7
10920	7	Sololá	701	Sololá	2	El tablón	12	Diciembre	2023-12-30T00:00:00	2024-11-08T14:00:00	5	Humedad	79
10921	7	Sololá	701	Sololá	2	El tablón	12	Diciembre	2023-12-30T00:00:00	2024-11-08T14:00:00	6	Velocidad del viento	8
10922	7	Sololá	701	Sololá	2	El tablón	12	Diciembre	2023-12-30T00:00:00	2024-11-08T14:00:00	7	Dirección del viento	8.05
10923	7	Sololá	701	Sololá	2	El tablón	12	Diciembre	2023-12-30T00:00:00	2024-11-08T14:00:00	1	Precipitación	0
10924	7	Sololá	701	Sololá	2	El tablón	12	Diciembre	2023-12-30T00:00:00	2024-11-08T14:00:00	8	Radiación solar	711
10925	7	Sololá	701	Sololá	2	El tablón	12	Diciembre	2023-12-30T00:00:00	2024-11-08T15:00:00	2	Temperatura media	17.8
10926	7	Sololá	701	Sololá	2	El tablón	12	Diciembre	2023-12-30T00:00:00	2024-11-08T15:00:00	4	Temperatura máxima	18.3
10927	7	Sololá	701	Sololá	2	El tablón	12	Diciembre	2023-12-30T00:00:00	2024-11-08T15:00:00	3	Temperatura mínima	17.6
10928	7	Sololá	701	Sololá	2	El tablón	12	Diciembre	2023-12-30T00:00:00	2024-11-08T15:00:00	5	Humedad	79
10929	7	Sololá	701	Sololá	2	El tablón	12	Diciembre	2023-12-30T00:00:00	2024-11-08T15:00:00	6	Velocidad del viento	6.4
10930	7	Sololá	701	Sololá	2	El tablón	12	Diciembre	2023-12-30T00:00:00	2024-11-08T15:00:00	7	Dirección del viento	6.44
10931	7	Sololá	701	Sololá	2	El tablón	12	Diciembre	2023-12-30T00:00:00	2024-11-08T15:00:00	1	Precipitación	0
10932	7	Sololá	701	Sololá	2	El tablón	12	Diciembre	2023-12-30T00:00:00	2024-11-08T15:00:00	8	Radiación solar	589
10933	7	Sololá	701	Sololá	2	El tablón	12	Diciembre	2023-12-30T00:00:00	2024-11-08T16:00:00	2	Temperatura media	15.7
10934	7	Sololá	701	Sololá	2	El tablón	12	Diciembre	2023-12-30T00:00:00	2024-11-08T16:00:00	4	Temperatura máxima	17.8
10935	7	Sololá	701	Sololá	2	El tablón	12	Diciembre	2023-12-30T00:00:00	2024-11-08T16:00:00	3	Temperatura mínima	15.7
10936	7	Sololá	701	Sololá	2	El tablón	12	Diciembre	2023-12-30T00:00:00	2024-11-08T16:00:00	5	Humedad	85
10937	7	Sololá	701	Sololá	2	El tablón	12	Diciembre	2023-12-30T00:00:00	2024-11-08T16:00:00	6	Velocidad del viento	6.4
10938	7	Sololá	701	Sololá	2	El tablón	12	Diciembre	2023-12-30T00:00:00	2024-11-08T16:00:00	7	Dirección del viento	6.44
10939	7	Sololá	701	Sololá	2	El tablón	12	Diciembre	2023-12-30T00:00:00	2024-11-08T16:00:00	1	Precipitación	0
10940	7	Sololá	701	Sololá	2	El tablón	12	Diciembre	2023-12-30T00:00:00	2024-11-08T16:00:00	8	Radiación solar	306
10941	7	Sololá	701	Sololá	2	El tablón	12	Diciembre	2023-12-30T00:00:00	2024-11-08T17:00:00	2	Temperatura media	15.1
10942	7	Sololá	701	Sololá	2	El tablón	12	Diciembre	2023-12-30T00:00:00	2024-11-08T17:00:00	4	Temperatura máxima	15.8
10943	7	Sololá	701	Sololá	2	El tablón	12	Diciembre	2023-12-30T00:00:00	2024-11-08T17:00:00	3	Temperatura mínima	15.1
10944	7	Sololá	701	Sololá	2	El tablón	12	Diciembre	2023-12-30T00:00:00	2024-11-08T17:00:00	5	Humedad	81
10945	7	Sololá	701	Sololá	2	El tablón	12	Diciembre	2023-12-30T00:00:00	2024-11-08T17:00:00	6	Velocidad del viento	3.2
10946	7	Sololá	701	Sololá	2	El tablón	12	Diciembre	2023-12-30T00:00:00	2024-11-08T17:00:00	7	Dirección del viento	3.22
10947	7	Sololá	701	Sololá	2	El tablón	12	Diciembre	2023-12-30T00:00:00	2024-11-08T17:00:00	1	Precipitación	0
10948	7	Sololá	701	Sololá	2	El tablón	12	Diciembre	2023-12-30T00:00:00	2024-11-08T17:00:00	8	Radiación solar	85
10949	7	Sololá	701	Sololá	2	El tablón	12	Diciembre	2023-12-30T00:00:00	2024-11-08T18:00:00	2	Temperatura media	13.7
10950	7	Sololá	701	Sololá	2	El tablón	12	Diciembre	2023-12-30T00:00:00	2024-11-08T18:00:00	4	Temperatura máxima	15.2
10951	7	Sololá	701	Sololá	2	El tablón	12	Diciembre	2023-12-30T00:00:00	2024-11-08T18:00:00	3	Temperatura mínima	13.7
10952	7	Sololá	701	Sololá	2	El tablón	12	Diciembre	2023-12-30T00:00:00	2024-11-08T18:00:00	5	Humedad	84
10953	7	Sololá	701	Sololá	2	El tablón	12	Diciembre	2023-12-30T00:00:00	2024-11-08T18:00:00	6	Velocidad del viento	4.8
10954	7	Sololá	701	Sololá	2	El tablón	12	Diciembre	2023-12-30T00:00:00	2024-11-08T18:00:00	7	Dirección del viento	4.83
10955	7	Sololá	701	Sololá	2	El tablón	12	Diciembre	2023-12-30T00:00:00	2024-11-08T18:00:00	1	Precipitación	0
10956	7	Sololá	701	Sololá	2	El tablón	12	Diciembre	2023-12-30T00:00:00	2024-11-08T18:00:00	8	Radiación solar	26
10957	7	Sololá	701	Sololá	2	El tablón	12	Diciembre	2023-12-30T00:00:00	2024-11-08T19:00:00	2	Temperatura media	12.4
10958	7	Sololá	701	Sololá	2	El tablón	12	Diciembre	2023-12-30T00:00:00	2024-11-08T19:00:00	4	Temperatura máxima	13.7
10959	7	Sololá	701	Sololá	2	El tablón	12	Diciembre	2023-12-30T00:00:00	2024-11-08T19:00:00	3	Temperatura mínima	12.3
10960	7	Sololá	701	Sololá	2	El tablón	12	Diciembre	2023-12-30T00:00:00	2024-11-08T19:00:00	5	Humedad	86
10961	7	Sololá	701	Sololá	2	El tablón	12	Diciembre	2023-12-30T00:00:00	2024-11-08T19:00:00	6	Velocidad del viento	4.8
10962	7	Sololá	701	Sololá	2	El tablón	12	Diciembre	2023-12-30T00:00:00	2024-11-08T19:00:00	7	Dirección del viento	4.83
10963	7	Sololá	701	Sololá	2	El tablón	12	Diciembre	2023-12-30T00:00:00	2024-11-08T19:00:00	1	Precipitación	0
10964	7	Sololá	701	Sololá	2	El tablón	12	Diciembre	2023-12-30T00:00:00	2024-11-08T19:00:00	8	Radiación solar	0
10965	7	Sololá	701	Sololá	2	El tablón	12	Diciembre	2023-12-30T00:00:00	2024-11-08T20:00:00	2	Temperatura media	11.9
10966	7	Sololá	701	Sololá	2	El tablón	12	Diciembre	2023-12-30T00:00:00	2024-11-08T20:00:00	4	Temperatura máxima	12.4
10967	7	Sololá	701	Sololá	2	El tablón	12	Diciembre	2023-12-30T00:00:00	2024-11-08T20:00:00	3	Temperatura mínima	11.9
10968	7	Sololá	701	Sololá	2	El tablón	12	Diciembre	2023-12-30T00:00:00	2024-11-08T20:00:00	5	Humedad	87
10969	7	Sololá	701	Sololá	2	El tablón	12	Diciembre	2023-12-30T00:00:00	2024-11-08T20:00:00	6	Velocidad del viento	4.8
10970	7	Sololá	701	Sololá	2	El tablón	12	Diciembre	2023-12-30T00:00:00	2024-11-08T20:00:00	7	Dirección del viento	4.83
10971	7	Sololá	701	Sololá	2	El tablón	12	Diciembre	2023-12-30T00:00:00	2024-11-08T20:00:00	1	Precipitación	0
10972	7	Sololá	701	Sololá	2	El tablón	12	Diciembre	2023-12-30T00:00:00	2024-11-08T20:00:00	8	Radiación solar	0
10973	7	Sololá	701	Sololá	2	El tablón	12	Diciembre	2023-12-30T00:00:00	2024-11-08T21:00:00	2	Temperatura media	11.5
10974	7	Sololá	701	Sololá	2	El tablón	12	Diciembre	2023-12-30T00:00:00	2024-11-08T21:00:00	4	Temperatura máxima	11.9
10975	7	Sololá	701	Sololá	2	El tablón	12	Diciembre	2023-12-30T00:00:00	2024-11-08T21:00:00	3	Temperatura mínima	11.5
10976	7	Sololá	701	Sololá	2	El tablón	12	Diciembre	2023-12-30T00:00:00	2024-11-08T21:00:00	5	Humedad	87
10977	7	Sololá	701	Sololá	2	El tablón	12	Diciembre	2023-12-30T00:00:00	2024-11-08T21:00:00	6	Velocidad del viento	8
10978	7	Sololá	701	Sololá	2	El tablón	12	Diciembre	2023-12-30T00:00:00	2024-11-08T21:00:00	7	Dirección del viento	8.05
10979	7	Sololá	701	Sololá	2	El tablón	12	Diciembre	2023-12-30T00:00:00	2024-11-08T21:00:00	1	Precipitación	0
10980	7	Sololá	701	Sololá	2	El tablón	12	Diciembre	2023-12-30T00:00:00	2024-11-08T21:00:00	8	Radiación solar	0
10981	7	Sololá	701	Sololá	2	El tablón	12	Diciembre	2023-12-30T00:00:00	2024-11-08T22:00:00	2	Temperatura media	11.1
10982	7	Sololá	701	Sololá	2	El tablón	12	Diciembre	2023-12-30T00:00:00	2024-11-08T22:00:00	4	Temperatura máxima	11.5
10983	7	Sololá	701	Sololá	2	El tablón	12	Diciembre	2023-12-30T00:00:00	2024-11-08T22:00:00	3	Temperatura mínima	11.1
10984	7	Sololá	701	Sololá	2	El tablón	12	Diciembre	2023-12-30T00:00:00	2024-11-08T22:00:00	5	Humedad	87
10985	7	Sololá	701	Sololá	2	El tablón	12	Diciembre	2023-12-30T00:00:00	2024-11-08T22:00:00	6	Velocidad del viento	9.7
10986	7	Sololá	701	Sololá	2	El tablón	12	Diciembre	2023-12-30T00:00:00	2024-11-08T22:00:00	7	Dirección del viento	9.66
10987	7	Sololá	701	Sololá	2	El tablón	12	Diciembre	2023-12-30T00:00:00	2024-11-08T22:00:00	1	Precipitación	0
10988	7	Sololá	701	Sololá	2	El tablón	12	Diciembre	2023-12-30T00:00:00	2024-11-08T22:00:00	8	Radiación solar	0
10989	7	Sololá	701	Sololá	2	El tablón	12	Diciembre	2023-12-30T00:00:00	2024-11-08T23:00:00	2	Temperatura media	10.7
10990	7	Sololá	701	Sololá	2	El tablón	12	Diciembre	2023-12-30T00:00:00	2024-11-08T23:00:00	4	Temperatura máxima	11.1
10991	7	Sololá	701	Sololá	2	El tablón	12	Diciembre	2023-12-30T00:00:00	2024-11-08T23:00:00	3	Temperatura mínima	10.7
10992	7	Sololá	701	Sololá	2	El tablón	12	Diciembre	2023-12-30T00:00:00	2024-11-08T23:00:00	5	Humedad	87
10993	7	Sololá	701	Sololá	2	El tablón	12	Diciembre	2023-12-30T00:00:00	2024-11-08T23:00:00	6	Velocidad del viento	9.7
10994	7	Sololá	701	Sololá	2	El tablón	12	Diciembre	2023-12-30T00:00:00	2024-11-08T23:00:00	7	Dirección del viento	9.66
10995	7	Sololá	701	Sololá	2	El tablón	12	Diciembre	2023-12-30T00:00:00	2024-11-08T23:00:00	1	Precipitación	0
10996	7	Sololá	701	Sololá	2	El tablón	12	Diciembre	2023-12-30T00:00:00	2024-11-08T23:00:00	8	Radiación solar	0
10997	7	Sololá	701	Sololá	2	El tablón	12	Diciembre	2023-12-31T00:00:00	2024-11-08T00:00:00	2	Temperatura media	10.1
10998	7	Sololá	701	Sololá	2	El tablón	12	Diciembre	2023-12-31T00:00:00	2024-11-08T00:00:00	4	Temperatura máxima	10.7
10999	7	Sololá	701	Sololá	2	El tablón	12	Diciembre	2023-12-31T00:00:00	2024-11-08T00:00:00	3	Temperatura mínima	10.1
11000	7	Sololá	701	Sololá	2	El tablón	12	Diciembre	2023-12-31T00:00:00	2024-11-08T00:00:00	5	Humedad	88
11001	7	Sololá	701	Sololá	2	El tablón	12	Diciembre	2023-12-31T00:00:00	2024-11-08T00:00:00	6	Velocidad del viento	9.7
11002	7	Sololá	701	Sololá	2	El tablón	12	Diciembre	2023-12-31T00:00:00	2024-11-08T00:00:00	7	Dirección del viento	9.66
11003	7	Sololá	701	Sololá	2	El tablón	12	Diciembre	2023-12-31T00:00:00	2024-11-08T00:00:00	1	Precipitación	0
11004	7	Sololá	701	Sololá	2	El tablón	12	Diciembre	2023-12-31T00:00:00	2024-11-08T00:00:00	8	Radiación solar	0
11005	7	Sololá	701	Sololá	2	El tablón	12	Diciembre	2023-12-31T00:00:00	2024-11-08T01:00:00	2	Temperatura media	10.1
11006	7	Sololá	701	Sololá	2	El tablón	12	Diciembre	2023-12-31T00:00:00	2024-11-08T01:00:00	4	Temperatura máxima	10.3
11007	7	Sololá	701	Sololá	2	El tablón	12	Diciembre	2023-12-31T00:00:00	2024-11-08T01:00:00	3	Temperatura mínima	9.8
11008	7	Sololá	701	Sololá	2	El tablón	12	Diciembre	2023-12-31T00:00:00	2024-11-08T01:00:00	5	Humedad	87
11009	7	Sololá	701	Sololá	2	El tablón	12	Diciembre	2023-12-31T00:00:00	2024-11-08T01:00:00	6	Velocidad del viento	9.7
11010	7	Sololá	701	Sololá	2	El tablón	12	Diciembre	2023-12-31T00:00:00	2024-11-08T01:00:00	7	Dirección del viento	9.66
11011	7	Sololá	701	Sololá	2	El tablón	12	Diciembre	2023-12-31T00:00:00	2024-11-08T01:00:00	1	Precipitación	0
11012	7	Sololá	701	Sololá	2	El tablón	12	Diciembre	2023-12-31T00:00:00	2024-11-08T01:00:00	8	Radiación solar	0
11013	7	Sololá	701	Sololá	2	El tablón	12	Diciembre	2023-12-31T00:00:00	2024-11-08T02:00:00	2	Temperatura media	9.9
11014	7	Sololá	701	Sololá	2	El tablón	12	Diciembre	2023-12-31T00:00:00	2024-11-08T02:00:00	4	Temperatura máxima	10.3
11015	7	Sololá	701	Sololá	2	El tablón	12	Diciembre	2023-12-31T00:00:00	2024-11-08T02:00:00	3	Temperatura mínima	9.9
11016	7	Sololá	701	Sololá	2	El tablón	12	Diciembre	2023-12-31T00:00:00	2024-11-08T02:00:00	5	Humedad	86
11017	7	Sololá	701	Sololá	2	El tablón	12	Diciembre	2023-12-31T00:00:00	2024-11-08T02:00:00	6	Velocidad del viento	9.7
11018	7	Sololá	701	Sololá	2	El tablón	12	Diciembre	2023-12-31T00:00:00	2024-11-08T02:00:00	7	Dirección del viento	9.66
11019	7	Sololá	701	Sololá	2	El tablón	12	Diciembre	2023-12-31T00:00:00	2024-11-08T02:00:00	1	Precipitación	0
11020	7	Sololá	701	Sololá	2	El tablón	12	Diciembre	2023-12-31T00:00:00	2024-11-08T02:00:00	8	Radiación solar	0
11021	7	Sololá	701	Sololá	2	El tablón	12	Diciembre	2023-12-31T00:00:00	2024-11-08T03:00:00	2	Temperatura media	9.2
11022	7	Sololá	701	Sololá	2	El tablón	12	Diciembre	2023-12-31T00:00:00	2024-11-08T03:00:00	4	Temperatura máxima	9.9
11023	7	Sololá	701	Sololá	2	El tablón	12	Diciembre	2023-12-31T00:00:00	2024-11-08T03:00:00	3	Temperatura mínima	9.2
11024	7	Sololá	701	Sololá	2	El tablón	12	Diciembre	2023-12-31T00:00:00	2024-11-08T03:00:00	5	Humedad	88
11025	7	Sololá	701	Sololá	2	El tablón	12	Diciembre	2023-12-31T00:00:00	2024-11-08T03:00:00	6	Velocidad del viento	6.4
11026	7	Sololá	701	Sololá	2	El tablón	12	Diciembre	2023-12-31T00:00:00	2024-11-08T03:00:00	7	Dirección del viento	6.44
11027	7	Sololá	701	Sololá	2	El tablón	12	Diciembre	2023-12-31T00:00:00	2024-11-08T03:00:00	1	Precipitación	0
11028	7	Sololá	701	Sololá	2	El tablón	12	Diciembre	2023-12-31T00:00:00	2024-11-08T03:00:00	8	Radiación solar	0
11029	7	Sololá	701	Sololá	2	El tablón	12	Diciembre	2023-12-31T00:00:00	2024-11-08T04:00:00	2	Temperatura media	9.3
11030	7	Sololá	701	Sololá	2	El tablón	12	Diciembre	2023-12-31T00:00:00	2024-11-08T04:00:00	4	Temperatura máxima	9.3
11031	7	Sololá	701	Sololá	2	El tablón	12	Diciembre	2023-12-31T00:00:00	2024-11-08T04:00:00	3	Temperatura mínima	9.1
11032	7	Sololá	701	Sololá	2	El tablón	12	Diciembre	2023-12-31T00:00:00	2024-11-08T04:00:00	5	Humedad	86
11033	7	Sololá	701	Sololá	2	El tablón	12	Diciembre	2023-12-31T00:00:00	2024-11-08T04:00:00	6	Velocidad del viento	9.7
11034	7	Sololá	701	Sololá	2	El tablón	12	Diciembre	2023-12-31T00:00:00	2024-11-08T04:00:00	7	Dirección del viento	9.66
11035	7	Sololá	701	Sololá	2	El tablón	12	Diciembre	2023-12-31T00:00:00	2024-11-08T04:00:00	1	Precipitación	0
11036	7	Sololá	701	Sololá	2	El tablón	12	Diciembre	2023-12-31T00:00:00	2024-11-08T04:00:00	8	Radiación solar	0
11037	7	Sololá	701	Sololá	2	El tablón	12	Diciembre	2023-12-31T00:00:00	2024-11-08T05:00:00	2	Temperatura media	8.9
11038	7	Sololá	701	Sololá	2	El tablón	12	Diciembre	2023-12-31T00:00:00	2024-11-08T05:00:00	4	Temperatura máxima	9.4
11039	7	Sololá	701	Sololá	2	El tablón	12	Diciembre	2023-12-31T00:00:00	2024-11-08T05:00:00	3	Temperatura mínima	8.9
11040	7	Sololá	701	Sololá	2	El tablón	12	Diciembre	2023-12-31T00:00:00	2024-11-08T05:00:00	5	Humedad	88
11041	7	Sololá	701	Sololá	2	El tablón	12	Diciembre	2023-12-31T00:00:00	2024-11-08T05:00:00	6	Velocidad del viento	8
11042	7	Sololá	701	Sololá	2	El tablón	12	Diciembre	2023-12-31T00:00:00	2024-11-08T05:00:00	7	Dirección del viento	8.05
11043	7	Sololá	701	Sololá	2	El tablón	12	Diciembre	2023-12-31T00:00:00	2024-11-08T05:00:00	1	Precipitación	0
11044	7	Sololá	701	Sololá	2	El tablón	12	Diciembre	2023-12-31T00:00:00	2024-11-08T05:00:00	8	Radiación solar	0
11045	7	Sololá	701	Sololá	2	El tablón	12	Diciembre	2023-12-31T00:00:00	2024-11-08T06:00:00	2	Temperatura media	8.9
11046	7	Sololá	701	Sololá	2	El tablón	12	Diciembre	2023-12-31T00:00:00	2024-11-08T06:00:00	4	Temperatura máxima	9
11047	7	Sololá	701	Sololá	2	El tablón	12	Diciembre	2023-12-31T00:00:00	2024-11-08T06:00:00	3	Temperatura mínima	8.8
11048	7	Sololá	701	Sololá	2	El tablón	12	Diciembre	2023-12-31T00:00:00	2024-11-08T06:00:00	5	Humedad	87
11049	7	Sololá	701	Sololá	2	El tablón	12	Diciembre	2023-12-31T00:00:00	2024-11-08T06:00:00	6	Velocidad del viento	8
11050	7	Sololá	701	Sololá	2	El tablón	12	Diciembre	2023-12-31T00:00:00	2024-11-08T06:00:00	7	Dirección del viento	8.05
11051	7	Sololá	701	Sololá	2	El tablón	12	Diciembre	2023-12-31T00:00:00	2024-11-08T06:00:00	1	Precipitación	0
11052	7	Sololá	701	Sololá	2	El tablón	12	Diciembre	2023-12-31T00:00:00	2024-11-08T06:00:00	8	Radiación solar	0
11053	7	Sololá	701	Sololá	2	El tablón	12	Diciembre	2023-12-31T00:00:00	2024-11-08T07:00:00	2	Temperatura media	9.2
11054	7	Sololá	701	Sololá	2	El tablón	12	Diciembre	2023-12-31T00:00:00	2024-11-08T07:00:00	4	Temperatura máxima	9.2
11055	7	Sololá	701	Sololá	2	El tablón	12	Diciembre	2023-12-31T00:00:00	2024-11-08T07:00:00	3	Temperatura mínima	8.9
11056	7	Sololá	701	Sololá	2	El tablón	12	Diciembre	2023-12-31T00:00:00	2024-11-08T07:00:00	5	Humedad	87
11057	7	Sololá	701	Sololá	2	El tablón	12	Diciembre	2023-12-31T00:00:00	2024-11-08T07:00:00	6	Velocidad del viento	6.4
11058	7	Sololá	701	Sololá	2	El tablón	12	Diciembre	2023-12-31T00:00:00	2024-11-08T07:00:00	7	Dirección del viento	6.44
11059	7	Sololá	701	Sololá	2	El tablón	12	Diciembre	2023-12-31T00:00:00	2024-11-08T07:00:00	1	Precipitación	0
11060	7	Sololá	701	Sololá	2	El tablón	12	Diciembre	2023-12-31T00:00:00	2024-11-08T07:00:00	8	Radiación solar	7
11061	7	Sololá	701	Sololá	2	El tablón	12	Diciembre	2023-12-31T00:00:00	2024-11-08T08:00:00	2	Temperatura media	10.4
11062	7	Sololá	701	Sololá	2	El tablón	12	Diciembre	2023-12-31T00:00:00	2024-11-08T08:00:00	4	Temperatura máxima	10.4
11063	7	Sololá	701	Sololá	2	El tablón	12	Diciembre	2023-12-31T00:00:00	2024-11-08T08:00:00	3	Temperatura mínima	9.2
11064	7	Sololá	701	Sololá	2	El tablón	12	Diciembre	2023-12-31T00:00:00	2024-11-08T08:00:00	5	Humedad	86
11065	7	Sololá	701	Sololá	2	El tablón	12	Diciembre	2023-12-31T00:00:00	2024-11-08T08:00:00	6	Velocidad del viento	8
11066	7	Sololá	701	Sololá	2	El tablón	12	Diciembre	2023-12-31T00:00:00	2024-11-08T08:00:00	7	Dirección del viento	8.05
11067	7	Sololá	701	Sololá	2	El tablón	12	Diciembre	2023-12-31T00:00:00	2024-11-08T08:00:00	1	Precipitación	0
11068	7	Sololá	701	Sololá	2	El tablón	12	Diciembre	2023-12-31T00:00:00	2024-11-08T08:00:00	8	Radiación solar	127
11069	7	Sololá	701	Sololá	2	El tablón	12	Diciembre	2023-12-31T00:00:00	2024-11-08T09:00:00	2	Temperatura media	14.1
11070	7	Sololá	701	Sololá	2	El tablón	12	Diciembre	2023-12-31T00:00:00	2024-11-08T09:00:00	4	Temperatura máxima	14.1
11071	7	Sololá	701	Sololá	2	El tablón	12	Diciembre	2023-12-31T00:00:00	2024-11-08T09:00:00	3	Temperatura mínima	10.4
11072	7	Sololá	701	Sololá	2	El tablón	12	Diciembre	2023-12-31T00:00:00	2024-11-08T09:00:00	5	Humedad	74
11073	7	Sololá	701	Sololá	2	El tablón	12	Diciembre	2023-12-31T00:00:00	2024-11-08T09:00:00	6	Velocidad del viento	6.4
11074	7	Sololá	701	Sololá	2	El tablón	12	Diciembre	2023-12-31T00:00:00	2024-11-08T09:00:00	7	Dirección del viento	6.44
11075	7	Sololá	701	Sololá	2	El tablón	12	Diciembre	2023-12-31T00:00:00	2024-11-08T09:00:00	1	Precipitación	0
11076	7	Sololá	701	Sololá	2	El tablón	12	Diciembre	2023-12-31T00:00:00	2024-11-08T09:00:00	8	Radiación solar	353
11077	7	Sololá	701	Sololá	2	El tablón	12	Diciembre	2023-12-31T00:00:00	2024-11-08T10:00:00	2	Temperatura media	16.2
11078	7	Sololá	701	Sololá	2	El tablón	12	Diciembre	2023-12-31T00:00:00	2024-11-08T10:00:00	4	Temperatura máxima	16.2
11079	7	Sololá	701	Sololá	2	El tablón	12	Diciembre	2023-12-31T00:00:00	2024-11-08T10:00:00	3	Temperatura mínima	14.2
11080	7	Sololá	701	Sololá	2	El tablón	12	Diciembre	2023-12-31T00:00:00	2024-11-08T10:00:00	5	Humedad	64
11081	7	Sololá	701	Sololá	2	El tablón	12	Diciembre	2023-12-31T00:00:00	2024-11-08T10:00:00	6	Velocidad del viento	6.4
11082	7	Sololá	701	Sololá	2	El tablón	12	Diciembre	2023-12-31T00:00:00	2024-11-08T10:00:00	7	Dirección del viento	6.44
11083	7	Sololá	701	Sololá	2	El tablón	12	Diciembre	2023-12-31T00:00:00	2024-11-08T10:00:00	1	Precipitación	0
11084	7	Sololá	701	Sololá	2	El tablón	12	Diciembre	2023-12-31T00:00:00	2024-11-08T10:00:00	8	Radiación solar	542
11085	7	Sololá	701	Sololá	2	El tablón	12	Diciembre	2023-12-31T00:00:00	2024-11-08T11:00:00	2	Temperatura media	18.1
11086	7	Sololá	701	Sololá	2	El tablón	12	Diciembre	2023-12-31T00:00:00	2024-11-08T11:00:00	4	Temperatura máxima	18.2
11087	7	Sololá	701	Sololá	2	El tablón	12	Diciembre	2023-12-31T00:00:00	2024-11-08T11:00:00	3	Temperatura mínima	16.3
11088	7	Sololá	701	Sololá	2	El tablón	12	Diciembre	2023-12-31T00:00:00	2024-11-08T11:00:00	5	Humedad	55
11089	7	Sololá	701	Sololá	2	El tablón	12	Diciembre	2023-12-31T00:00:00	2024-11-08T11:00:00	6	Velocidad del viento	4.8
11090	7	Sololá	701	Sololá	2	El tablón	12	Diciembre	2023-12-31T00:00:00	2024-11-08T11:00:00	7	Dirección del viento	4.83
11091	7	Sololá	701	Sololá	2	El tablón	12	Diciembre	2023-12-31T00:00:00	2024-11-08T11:00:00	1	Precipitación	0
11092	7	Sololá	701	Sololá	2	El tablón	12	Diciembre	2023-12-31T00:00:00	2024-11-08T11:00:00	8	Radiación solar	644
11093	7	Sololá	701	Sololá	2	El tablón	12	Diciembre	2023-12-31T00:00:00	2024-11-08T12:00:00	2	Temperatura media	18.7
11094	7	Sololá	701	Sololá	2	El tablón	12	Diciembre	2023-12-31T00:00:00	2024-11-08T12:00:00	4	Temperatura máxima	18.7
11095	7	Sololá	701	Sololá	2	El tablón	12	Diciembre	2023-12-31T00:00:00	2024-11-08T12:00:00	3	Temperatura mínima	16.9
11096	7	Sololá	701	Sololá	2	El tablón	12	Diciembre	2023-12-31T00:00:00	2024-11-08T12:00:00	5	Humedad	57
11097	7	Sololá	701	Sololá	2	El tablón	12	Diciembre	2023-12-31T00:00:00	2024-11-08T12:00:00	6	Velocidad del viento	4.8
11098	7	Sololá	701	Sololá	2	El tablón	12	Diciembre	2023-12-31T00:00:00	2024-11-08T12:00:00	7	Dirección del viento	4.83
11099	7	Sololá	701	Sololá	2	El tablón	12	Diciembre	2023-12-31T00:00:00	2024-11-08T12:00:00	1	Precipitación	0
11100	7	Sololá	701	Sololá	2	El tablón	12	Diciembre	2023-12-31T00:00:00	2024-11-08T12:00:00	8	Radiación solar	592
11101	7	Sololá	701	Sololá	2	El tablón	12	Diciembre	2023-12-31T00:00:00	2024-11-08T13:00:00	2	Temperatura media	18
11102	7	Sololá	701	Sololá	2	El tablón	12	Diciembre	2023-12-31T00:00:00	2024-11-08T13:00:00	4	Temperatura máxima	18.8
11103	7	Sololá	701	Sololá	2	El tablón	12	Diciembre	2023-12-31T00:00:00	2024-11-08T13:00:00	3	Temperatura mínima	18
11104	7	Sololá	701	Sololá	2	El tablón	12	Diciembre	2023-12-31T00:00:00	2024-11-08T13:00:00	5	Humedad	68
11105	7	Sololá	701	Sololá	2	El tablón	12	Diciembre	2023-12-31T00:00:00	2024-11-08T13:00:00	6	Velocidad del viento	8
11106	7	Sololá	701	Sololá	2	El tablón	12	Diciembre	2023-12-31T00:00:00	2024-11-08T13:00:00	7	Dirección del viento	8.05
11107	7	Sololá	701	Sololá	2	El tablón	12	Diciembre	2023-12-31T00:00:00	2024-11-08T13:00:00	1	Precipitación	0
11108	7	Sololá	701	Sololá	2	El tablón	12	Diciembre	2023-12-31T00:00:00	2024-11-08T13:00:00	8	Radiación solar	749
11109	7	Sololá	701	Sololá	2	El tablón	12	Diciembre	2023-12-31T00:00:00	2024-11-08T14:00:00	2	Temperatura media	17.3
11110	7	Sololá	701	Sololá	2	El tablón	12	Diciembre	2023-12-31T00:00:00	2024-11-08T14:00:00	4	Temperatura máxima	18.2
11111	7	Sololá	701	Sololá	2	El tablón	12	Diciembre	2023-12-31T00:00:00	2024-11-08T14:00:00	3	Temperatura mínima	17.1
11112	7	Sololá	701	Sololá	2	El tablón	12	Diciembre	2023-12-31T00:00:00	2024-11-08T14:00:00	5	Humedad	76
11113	7	Sololá	701	Sololá	2	El tablón	12	Diciembre	2023-12-31T00:00:00	2024-11-08T14:00:00	6	Velocidad del viento	8
11114	7	Sololá	701	Sololá	2	El tablón	12	Diciembre	2023-12-31T00:00:00	2024-11-08T14:00:00	7	Dirección del viento	8.05
11115	7	Sololá	701	Sololá	2	El tablón	12	Diciembre	2023-12-31T00:00:00	2024-11-08T14:00:00	1	Precipitación	0
11116	7	Sololá	701	Sololá	2	El tablón	12	Diciembre	2023-12-31T00:00:00	2024-11-08T14:00:00	8	Radiación solar	753
11117	7	Sololá	701	Sololá	2	El tablón	12	Diciembre	2023-12-31T00:00:00	2024-11-08T15:00:00	2	Temperatura media	16.5
11118	7	Sololá	701	Sololá	2	El tablón	12	Diciembre	2023-12-31T00:00:00	2024-11-08T15:00:00	4	Temperatura máxima	17.7
11119	7	Sololá	701	Sololá	2	El tablón	12	Diciembre	2023-12-31T00:00:00	2024-11-08T15:00:00	3	Temperatura mínima	16.4
11120	7	Sololá	701	Sololá	2	El tablón	12	Diciembre	2023-12-31T00:00:00	2024-11-08T15:00:00	5	Humedad	78
11121	7	Sololá	701	Sololá	2	El tablón	12	Diciembre	2023-12-31T00:00:00	2024-11-08T15:00:00	6	Velocidad del viento	6.4
11122	7	Sololá	701	Sololá	2	El tablón	12	Diciembre	2023-12-31T00:00:00	2024-11-08T15:00:00	7	Dirección del viento	6.44
11123	7	Sololá	701	Sololá	2	El tablón	12	Diciembre	2023-12-31T00:00:00	2024-11-08T15:00:00	1	Precipitación	0
11124	7	Sololá	701	Sololá	2	El tablón	12	Diciembre	2023-12-31T00:00:00	2024-11-08T15:00:00	8	Radiación solar	440
11125	7	Sololá	701	Sololá	2	El tablón	12	Diciembre	2023-12-31T00:00:00	2024-11-08T16:00:00	2	Temperatura media	15.1
11126	7	Sololá	701	Sololá	2	El tablón	12	Diciembre	2023-12-31T00:00:00	2024-11-08T16:00:00	4	Temperatura máxima	16.8
11127	7	Sololá	701	Sololá	2	El tablón	12	Diciembre	2023-12-31T00:00:00	2024-11-08T16:00:00	3	Temperatura mínima	15.1
11128	7	Sololá	701	Sololá	2	El tablón	12	Diciembre	2023-12-31T00:00:00	2024-11-08T16:00:00	5	Humedad	85
11129	7	Sololá	701	Sololá	2	El tablón	12	Diciembre	2023-12-31T00:00:00	2024-11-08T16:00:00	6	Velocidad del viento	6.4
11130	7	Sololá	701	Sololá	2	El tablón	12	Diciembre	2023-12-31T00:00:00	2024-11-08T16:00:00	7	Dirección del viento	6.44
11131	7	Sololá	701	Sololá	2	El tablón	12	Diciembre	2023-12-31T00:00:00	2024-11-08T16:00:00	1	Precipitación	0
11132	7	Sololá	701	Sololá	2	El tablón	12	Diciembre	2023-12-31T00:00:00	2024-11-08T16:00:00	8	Radiación solar	209
11133	7	Sololá	701	Sololá	2	El tablón	12	Diciembre	2023-12-31T00:00:00	2024-11-08T17:00:00	2	Temperatura media	14.4
11134	7	Sololá	701	Sololá	2	El tablón	12	Diciembre	2023-12-31T00:00:00	2024-11-08T17:00:00	4	Temperatura máxima	15.1
11135	7	Sololá	701	Sololá	2	El tablón	12	Diciembre	2023-12-31T00:00:00	2024-11-08T17:00:00	3	Temperatura mínima	14.4
11136	7	Sololá	701	Sololá	2	El tablón	12	Diciembre	2023-12-31T00:00:00	2024-11-08T17:00:00	5	Humedad	81
11137	7	Sololá	701	Sololá	2	El tablón	12	Diciembre	2023-12-31T00:00:00	2024-11-08T17:00:00	6	Velocidad del viento	3.2
11138	7	Sololá	701	Sololá	2	El tablón	12	Diciembre	2023-12-31T00:00:00	2024-11-08T17:00:00	7	Dirección del viento	3.22
11139	7	Sololá	701	Sololá	2	El tablón	12	Diciembre	2023-12-31T00:00:00	2024-11-08T17:00:00	1	Precipitación	0
11140	7	Sololá	701	Sololá	2	El tablón	12	Diciembre	2023-12-31T00:00:00	2024-11-08T17:00:00	8	Radiación solar	87
11141	7	Sololá	701	Sololá	2	El tablón	12	Diciembre	2023-12-31T00:00:00	2024-11-08T18:00:00	2	Temperatura media	12.6
11142	7	Sololá	701	Sololá	2	El tablón	12	Diciembre	2023-12-31T00:00:00	2024-11-08T18:00:00	4	Temperatura máxima	14.4
11143	7	Sololá	701	Sololá	2	El tablón	12	Diciembre	2023-12-31T00:00:00	2024-11-08T18:00:00	3	Temperatura mínima	12.6
11144	7	Sololá	701	Sololá	2	El tablón	12	Diciembre	2023-12-31T00:00:00	2024-11-08T18:00:00	5	Humedad	84
11145	7	Sololá	701	Sololá	2	El tablón	12	Diciembre	2023-12-31T00:00:00	2024-11-08T18:00:00	6	Velocidad del viento	4.8
11146	7	Sololá	701	Sololá	2	El tablón	12	Diciembre	2023-12-31T00:00:00	2024-11-08T18:00:00	7	Dirección del viento	4.83
11147	7	Sololá	701	Sololá	2	El tablón	12	Diciembre	2023-12-31T00:00:00	2024-11-08T18:00:00	1	Precipitación	0
11148	7	Sololá	701	Sololá	2	El tablón	12	Diciembre	2023-12-31T00:00:00	2024-11-08T18:00:00	8	Radiación solar	12
11149	7	Sololá	701	Sololá	2	El tablón	12	Diciembre	2023-12-31T00:00:00	2024-11-08T19:00:00	2	Temperatura media	11.1
11150	7	Sololá	701	Sololá	2	El tablón	12	Diciembre	2023-12-31T00:00:00	2024-11-08T19:00:00	4	Temperatura máxima	12.6
11151	7	Sololá	701	Sololá	2	El tablón	12	Diciembre	2023-12-31T00:00:00	2024-11-08T19:00:00	3	Temperatura mínima	11.1
11152	7	Sololá	701	Sololá	2	El tablón	12	Diciembre	2023-12-31T00:00:00	2024-11-08T19:00:00	5	Humedad	86
11153	7	Sololá	701	Sololá	2	El tablón	12	Diciembre	2023-12-31T00:00:00	2024-11-08T19:00:00	6	Velocidad del viento	6.4
11154	7	Sololá	701	Sololá	2	El tablón	12	Diciembre	2023-12-31T00:00:00	2024-11-08T19:00:00	7	Dirección del viento	6.44
11155	7	Sololá	701	Sololá	2	El tablón	12	Diciembre	2023-12-31T00:00:00	2024-11-08T19:00:00	1	Precipitación	0
11156	7	Sololá	701	Sololá	2	El tablón	12	Diciembre	2023-12-31T00:00:00	2024-11-08T19:00:00	8	Radiación solar	0
11157	7	Sololá	701	Sololá	2	El tablón	12	Diciembre	2023-12-31T00:00:00	2024-11-08T20:00:00	2	Temperatura media	10.9
11158	7	Sololá	701	Sololá	2	El tablón	12	Diciembre	2023-12-31T00:00:00	2024-11-08T20:00:00	4	Temperatura máxima	11.1
11159	7	Sololá	701	Sololá	2	El tablón	12	Diciembre	2023-12-31T00:00:00	2024-11-08T20:00:00	3	Temperatura mínima	10.8
11160	7	Sololá	701	Sololá	2	El tablón	12	Diciembre	2023-12-31T00:00:00	2024-11-08T20:00:00	5	Humedad	86
11161	7	Sololá	701	Sololá	2	El tablón	12	Diciembre	2023-12-31T00:00:00	2024-11-08T20:00:00	6	Velocidad del viento	6.4
11162	7	Sololá	701	Sololá	2	El tablón	12	Diciembre	2023-12-31T00:00:00	2024-11-08T20:00:00	7	Dirección del viento	6.44
11163	7	Sololá	701	Sololá	2	El tablón	12	Diciembre	2023-12-31T00:00:00	2024-11-08T20:00:00	1	Precipitación	0
11164	7	Sololá	701	Sololá	2	El tablón	12	Diciembre	2023-12-31T00:00:00	2024-11-08T20:00:00	8	Radiación solar	0
11165	7	Sololá	701	Sololá	2	El tablón	12	Diciembre	2023-12-31T00:00:00	2024-11-08T21:00:00	2	Temperatura media	10.7
11166	7	Sololá	701	Sololá	2	El tablón	12	Diciembre	2023-12-31T00:00:00	2024-11-08T21:00:00	4	Temperatura máxima	10.9
11167	7	Sololá	701	Sololá	2	El tablón	12	Diciembre	2023-12-31T00:00:00	2024-11-08T21:00:00	3	Temperatura mínima	10.7
11168	7	Sololá	701	Sololá	2	El tablón	12	Diciembre	2023-12-31T00:00:00	2024-11-08T21:00:00	5	Humedad	87
11169	7	Sololá	701	Sololá	2	El tablón	12	Diciembre	2023-12-31T00:00:00	2024-11-08T21:00:00	6	Velocidad del viento	8
11170	7	Sololá	701	Sololá	2	El tablón	12	Diciembre	2023-12-31T00:00:00	2024-11-08T21:00:00	7	Dirección del viento	8.05
11171	7	Sololá	701	Sololá	2	El tablón	12	Diciembre	2023-12-31T00:00:00	2024-11-08T21:00:00	1	Precipitación	0
11172	7	Sololá	701	Sololá	2	El tablón	12	Diciembre	2023-12-31T00:00:00	2024-11-08T21:00:00	8	Radiación solar	0
11173	7	Sololá	701	Sololá	2	El tablón	12	Diciembre	2023-12-31T00:00:00	2024-11-08T22:00:00	2	Temperatura media	10.5
11174	7	Sololá	701	Sololá	2	El tablón	12	Diciembre	2023-12-31T00:00:00	2024-11-08T22:00:00	4	Temperatura máxima	10.7
11175	7	Sololá	701	Sololá	2	El tablón	12	Diciembre	2023-12-31T00:00:00	2024-11-08T22:00:00	3	Temperatura mínima	10.5
11176	7	Sololá	701	Sololá	2	El tablón	12	Diciembre	2023-12-31T00:00:00	2024-11-08T22:00:00	5	Humedad	88
11177	7	Sololá	701	Sololá	2	El tablón	12	Diciembre	2023-12-31T00:00:00	2024-11-08T22:00:00	6	Velocidad del viento	8
11178	7	Sololá	701	Sololá	2	El tablón	12	Diciembre	2023-12-31T00:00:00	2024-11-08T22:00:00	7	Dirección del viento	8.05
11179	7	Sololá	701	Sololá	2	El tablón	12	Diciembre	2023-12-31T00:00:00	2024-11-08T22:00:00	1	Precipitación	0
11180	7	Sololá	701	Sololá	2	El tablón	12	Diciembre	2023-12-31T00:00:00	2024-11-08T22:00:00	8	Radiación solar	0
11181	7	Sololá	701	Sololá	2	El tablón	12	Diciembre	2023-12-31T00:00:00	2024-11-08T23:00:00	2	Temperatura media	10.2
11182	7	Sololá	701	Sololá	2	El tablón	12	Diciembre	2023-12-31T00:00:00	2024-11-08T23:00:00	4	Temperatura máxima	10.5
11183	7	Sololá	701	Sololá	2	El tablón	12	Diciembre	2023-12-31T00:00:00	2024-11-08T23:00:00	3	Temperatura mínima	10.2
11184	7	Sololá	701	Sololá	2	El tablón	12	Diciembre	2023-12-31T00:00:00	2024-11-08T23:00:00	5	Humedad	88
11185	7	Sololá	701	Sololá	2	El tablón	12	Diciembre	2023-12-31T00:00:00	2024-11-08T23:00:00	6	Velocidad del viento	9.7
11186	7	Sololá	701	Sololá	2	El tablón	12	Diciembre	2023-12-31T00:00:00	2024-11-08T23:00:00	7	Dirección del viento	9.66
11187	7	Sololá	701	Sololá	2	El tablón	12	Diciembre	2023-12-31T00:00:00	2024-11-08T23:00:00	1	Precipitación	0
11188	7	Sololá	701	Sololá	2	El tablón	12	Diciembre	2023-12-31T00:00:00	2024-11-08T23:00:00	8	Radiación solar	0
11189	7	Sololá	710	Panajachel	8	Panajachel	1	Enero	2023-01-01T00:00:00	2024-11-08T00:00:00	2	Temperatura media	16.5
11190	7	Sololá	710	Panajachel	8	Panajachel	1	Enero	2023-01-01T00:00:00	2024-11-08T00:00:00	4	Temperatura máxima	17.3
11191	7	Sololá	710	Panajachel	8	Panajachel	1	Enero	2023-01-01T00:00:00	2024-11-08T00:00:00	3	Temperatura mínima	16.1
11192	7	Sololá	710	Panajachel	8	Panajachel	1	Enero	2023-01-01T00:00:00	2024-11-08T00:00:00	5	Humedad	81
11193	7	Sololá	710	Panajachel	8	Panajachel	1	Enero	2023-01-01T00:00:00	2024-11-08T00:00:00	6	Velocidad del viento	0
11194	7	Sololá	710	Panajachel	8	Panajachel	1	Enero	2023-01-01T00:00:00	2024-11-08T00:00:00	7	Dirección del viento	0
11195	7	Sololá	710	Panajachel	8	Panajachel	1	Enero	2023-01-01T00:00:00	2024-11-08T00:00:00	1	Precipitación	0
11196	7	Sololá	710	Panajachel	8	Panajachel	1	Enero	2023-01-01T00:00:00	2024-11-08T00:00:00	8	Radiación solar	0
11197	7	Sololá	710	Panajachel	8	Panajachel	1	Enero	2023-01-01T00:00:00	2024-11-08T01:00:00	2	Temperatura media	16.6
11198	7	Sololá	710	Panajachel	8	Panajachel	1	Enero	2023-01-01T00:00:00	2024-11-08T01:00:00	4	Temperatura máxima	16.9
11199	7	Sololá	710	Panajachel	8	Panajachel	1	Enero	2023-01-01T00:00:00	2024-11-08T01:00:00	3	Temperatura mínima	16.3
11200	7	Sololá	710	Panajachel	8	Panajachel	1	Enero	2023-01-01T00:00:00	2024-11-08T01:00:00	5	Humedad	79
11201	7	Sololá	710	Panajachel	8	Panajachel	1	Enero	2023-01-01T00:00:00	2024-11-08T01:00:00	6	Velocidad del viento	3.2
11202	7	Sololá	710	Panajachel	8	Panajachel	1	Enero	2023-01-01T00:00:00	2024-11-08T01:00:00	7	Dirección del viento	3.22
11203	7	Sololá	710	Panajachel	8	Panajachel	1	Enero	2023-01-01T00:00:00	2024-11-08T01:00:00	1	Precipitación	0
11204	7	Sololá	710	Panajachel	8	Panajachel	1	Enero	2023-01-01T00:00:00	2024-11-08T01:00:00	8	Radiación solar	0
11205	7	Sololá	710	Panajachel	8	Panajachel	1	Enero	2023-01-01T00:00:00	2024-11-08T02:00:00	2	Temperatura media	15.8
11206	7	Sololá	710	Panajachel	8	Panajachel	1	Enero	2023-01-01T00:00:00	2024-11-08T02:00:00	4	Temperatura máxima	16.5
11207	7	Sololá	710	Panajachel	8	Panajachel	1	Enero	2023-01-01T00:00:00	2024-11-08T02:00:00	3	Temperatura mínima	15.7
11208	7	Sololá	710	Panajachel	8	Panajachel	1	Enero	2023-01-01T00:00:00	2024-11-08T02:00:00	5	Humedad	80
11209	7	Sololá	710	Panajachel	8	Panajachel	1	Enero	2023-01-01T00:00:00	2024-11-08T02:00:00	6	Velocidad del viento	1.6
11210	7	Sololá	710	Panajachel	8	Panajachel	1	Enero	2023-01-01T00:00:00	2024-11-08T02:00:00	7	Dirección del viento	1.61
11211	7	Sololá	710	Panajachel	8	Panajachel	1	Enero	2023-01-01T00:00:00	2024-11-08T02:00:00	1	Precipitación	0
11212	7	Sololá	710	Panajachel	8	Panajachel	1	Enero	2023-01-01T00:00:00	2024-11-08T02:00:00	8	Radiación solar	0
11213	7	Sololá	710	Panajachel	8	Panajachel	1	Enero	2023-01-01T00:00:00	2024-11-08T03:00:00	2	Temperatura media	15.6
11214	7	Sololá	710	Panajachel	8	Panajachel	1	Enero	2023-01-01T00:00:00	2024-11-08T03:00:00	4	Temperatura máxima	15.9
11215	7	Sololá	710	Panajachel	8	Panajachel	1	Enero	2023-01-01T00:00:00	2024-11-08T03:00:00	3	Temperatura mínima	15.4
11216	7	Sololá	710	Panajachel	8	Panajachel	1	Enero	2023-01-01T00:00:00	2024-11-08T03:00:00	5	Humedad	82
11217	7	Sololá	710	Panajachel	8	Panajachel	1	Enero	2023-01-01T00:00:00	2024-11-08T03:00:00	6	Velocidad del viento	1.6
11218	7	Sololá	710	Panajachel	8	Panajachel	1	Enero	2023-01-01T00:00:00	2024-11-08T03:00:00	7	Dirección del viento	1.61
11219	7	Sololá	710	Panajachel	8	Panajachel	1	Enero	2023-01-01T00:00:00	2024-11-08T03:00:00	1	Precipitación	0
11220	7	Sololá	710	Panajachel	8	Panajachel	1	Enero	2023-01-01T00:00:00	2024-11-08T03:00:00	8	Radiación solar	0
11221	7	Sololá	710	Panajachel	8	Panajachel	1	Enero	2023-01-01T00:00:00	2024-11-08T04:00:00	2	Temperatura media	15.8
11222	7	Sololá	710	Panajachel	8	Panajachel	1	Enero	2023-01-01T00:00:00	2024-11-08T04:00:00	4	Temperatura máxima	15.8
11223	7	Sololá	710	Panajachel	8	Panajachel	1	Enero	2023-01-01T00:00:00	2024-11-08T04:00:00	3	Temperatura mínima	15.4
11224	7	Sololá	710	Panajachel	8	Panajachel	1	Enero	2023-01-01T00:00:00	2024-11-08T04:00:00	5	Humedad	80
11225	7	Sololá	710	Panajachel	8	Panajachel	1	Enero	2023-01-01T00:00:00	2024-11-08T04:00:00	6	Velocidad del viento	1.6
11226	7	Sololá	710	Panajachel	8	Panajachel	1	Enero	2023-01-01T00:00:00	2024-11-08T04:00:00	7	Dirección del viento	1.61
11227	7	Sololá	710	Panajachel	8	Panajachel	1	Enero	2023-01-01T00:00:00	2024-11-08T04:00:00	1	Precipitación	0
11228	7	Sololá	710	Panajachel	8	Panajachel	1	Enero	2023-01-01T00:00:00	2024-11-08T04:00:00	8	Radiación solar	0
11229	7	Sololá	710	Panajachel	8	Panajachel	1	Enero	2023-01-01T00:00:00	2024-11-08T05:00:00	2	Temperatura media	14.8
11230	7	Sololá	710	Panajachel	8	Panajachel	1	Enero	2023-01-01T00:00:00	2024-11-08T05:00:00	4	Temperatura máxima	16.1
11231	7	Sololá	710	Panajachel	8	Panajachel	1	Enero	2023-01-01T00:00:00	2024-11-08T05:00:00	3	Temperatura mínima	14.8
11232	7	Sololá	710	Panajachel	8	Panajachel	1	Enero	2023-01-01T00:00:00	2024-11-08T05:00:00	5	Humedad	85
11233	7	Sololá	710	Panajachel	8	Panajachel	1	Enero	2023-01-01T00:00:00	2024-11-08T05:00:00	6	Velocidad del viento	1.6
11234	7	Sololá	710	Panajachel	8	Panajachel	1	Enero	2023-01-01T00:00:00	2024-11-08T05:00:00	7	Dirección del viento	1.61
11235	7	Sololá	710	Panajachel	8	Panajachel	1	Enero	2023-01-01T00:00:00	2024-11-08T05:00:00	1	Precipitación	0
11236	7	Sololá	710	Panajachel	8	Panajachel	1	Enero	2023-01-01T00:00:00	2024-11-08T05:00:00	8	Radiación solar	0
11237	7	Sololá	710	Panajachel	8	Panajachel	1	Enero	2023-01-01T00:00:00	2024-11-08T06:00:00	2	Temperatura media	15.5
11238	7	Sololá	710	Panajachel	8	Panajachel	1	Enero	2023-01-01T00:00:00	2024-11-08T06:00:00	4	Temperatura máxima	15.5
11239	7	Sololá	710	Panajachel	8	Panajachel	1	Enero	2023-01-01T00:00:00	2024-11-08T06:00:00	3	Temperatura mínima	14.8
11240	7	Sololá	710	Panajachel	8	Panajachel	1	Enero	2023-01-01T00:00:00	2024-11-08T06:00:00	5	Humedad	80
11241	7	Sololá	710	Panajachel	8	Panajachel	1	Enero	2023-01-01T00:00:00	2024-11-08T06:00:00	6	Velocidad del viento	3.2
11242	7	Sololá	710	Panajachel	8	Panajachel	1	Enero	2023-01-01T00:00:00	2024-11-08T06:00:00	7	Dirección del viento	3.22
11243	7	Sololá	710	Panajachel	8	Panajachel	1	Enero	2023-01-01T00:00:00	2024-11-08T06:00:00	1	Precipitación	0
11244	7	Sololá	710	Panajachel	8	Panajachel	1	Enero	2023-01-01T00:00:00	2024-11-08T06:00:00	8	Radiación solar	0
11245	7	Sololá	710	Panajachel	8	Panajachel	1	Enero	2023-01-01T00:00:00	2024-11-08T07:00:00	2	Temperatura media	14.9
11246	7	Sololá	710	Panajachel	8	Panajachel	1	Enero	2023-01-01T00:00:00	2024-11-08T07:00:00	4	Temperatura máxima	15.5
11247	7	Sololá	710	Panajachel	8	Panajachel	1	Enero	2023-01-01T00:00:00	2024-11-08T07:00:00	3	Temperatura mínima	14.7
11248	7	Sololá	710	Panajachel	8	Panajachel	1	Enero	2023-01-01T00:00:00	2024-11-08T07:00:00	5	Humedad	82
11249	7	Sololá	710	Panajachel	8	Panajachel	1	Enero	2023-01-01T00:00:00	2024-11-08T07:00:00	6	Velocidad del viento	1.6
11250	7	Sololá	710	Panajachel	8	Panajachel	1	Enero	2023-01-01T00:00:00	2024-11-08T07:00:00	7	Dirección del viento	1.61
11251	7	Sololá	710	Panajachel	8	Panajachel	1	Enero	2023-01-01T00:00:00	2024-11-08T07:00:00	1	Precipitación	0
11252	7	Sololá	710	Panajachel	8	Panajachel	1	Enero	2023-01-01T00:00:00	2024-11-08T07:00:00	8	Radiación solar	5
11253	7	Sololá	710	Panajachel	8	Panajachel	1	Enero	2023-01-01T00:00:00	2024-11-08T08:00:00	2	Temperatura media	16.8
11254	7	Sololá	710	Panajachel	8	Panajachel	1	Enero	2023-01-01T00:00:00	2024-11-08T08:00:00	4	Temperatura máxima	16.8
11255	7	Sololá	710	Panajachel	8	Panajachel	1	Enero	2023-01-01T00:00:00	2024-11-08T08:00:00	3	Temperatura mínima	14.9
11256	7	Sololá	710	Panajachel	8	Panajachel	1	Enero	2023-01-01T00:00:00	2024-11-08T08:00:00	5	Humedad	79
11257	7	Sololá	710	Panajachel	8	Panajachel	1	Enero	2023-01-01T00:00:00	2024-11-08T08:00:00	6	Velocidad del viento	4.8
11258	7	Sololá	710	Panajachel	8	Panajachel	1	Enero	2023-01-01T00:00:00	2024-11-08T08:00:00	7	Dirección del viento	4.83
11259	7	Sololá	710	Panajachel	8	Panajachel	1	Enero	2023-01-01T00:00:00	2024-11-08T08:00:00	1	Precipitación	0
11260	7	Sololá	710	Panajachel	8	Panajachel	1	Enero	2023-01-01T00:00:00	2024-11-08T08:00:00	8	Radiación solar	69
11261	7	Sololá	710	Panajachel	8	Panajachel	1	Enero	2023-01-01T00:00:00	2024-11-08T09:00:00	2	Temperatura media	19.9
11262	7	Sololá	710	Panajachel	8	Panajachel	1	Enero	2023-01-01T00:00:00	2024-11-08T09:00:00	4	Temperatura máxima	19.9
11263	7	Sololá	710	Panajachel	8	Panajachel	1	Enero	2023-01-01T00:00:00	2024-11-08T09:00:00	3	Temperatura mínima	16.8
11264	7	Sololá	710	Panajachel	8	Panajachel	1	Enero	2023-01-01T00:00:00	2024-11-08T09:00:00	5	Humedad	74
11265	7	Sololá	710	Panajachel	8	Panajachel	1	Enero	2023-01-01T00:00:00	2024-11-08T09:00:00	6	Velocidad del viento	3.2
11266	7	Sololá	710	Panajachel	8	Panajachel	1	Enero	2023-01-01T00:00:00	2024-11-08T09:00:00	7	Dirección del viento	3.22
11267	7	Sololá	710	Panajachel	8	Panajachel	1	Enero	2023-01-01T00:00:00	2024-11-08T09:00:00	1	Precipitación	0
11268	7	Sololá	710	Panajachel	8	Panajachel	1	Enero	2023-01-01T00:00:00	2024-11-08T09:00:00	8	Radiación solar	335
11269	7	Sololá	710	Panajachel	8	Panajachel	1	Enero	2023-01-01T00:00:00	2024-11-08T10:00:00	2	Temperatura media	21.3
11270	7	Sololá	710	Panajachel	8	Panajachel	1	Enero	2023-01-01T00:00:00	2024-11-08T10:00:00	4	Temperatura máxima	21.3
11271	7	Sololá	710	Panajachel	8	Panajachel	1	Enero	2023-01-01T00:00:00	2024-11-08T10:00:00	3	Temperatura mínima	19.9
11272	7	Sololá	710	Panajachel	8	Panajachel	1	Enero	2023-01-01T00:00:00	2024-11-08T10:00:00	5	Humedad	72
11273	7	Sololá	710	Panajachel	8	Panajachel	1	Enero	2023-01-01T00:00:00	2024-11-08T10:00:00	6	Velocidad del viento	3.2
11274	7	Sololá	710	Panajachel	8	Panajachel	1	Enero	2023-01-01T00:00:00	2024-11-08T10:00:00	7	Dirección del viento	3.22
11275	7	Sololá	710	Panajachel	8	Panajachel	1	Enero	2023-01-01T00:00:00	2024-11-08T10:00:00	1	Precipitación	0
11276	7	Sololá	710	Panajachel	8	Panajachel	1	Enero	2023-01-01T00:00:00	2024-11-08T10:00:00	8	Radiación solar	546
11277	7	Sololá	710	Panajachel	8	Panajachel	1	Enero	2023-01-01T00:00:00	2024-11-08T11:00:00	2	Temperatura media	21.2
11278	7	Sololá	710	Panajachel	8	Panajachel	1	Enero	2023-01-01T00:00:00	2024-11-08T11:00:00	4	Temperatura máxima	22
11279	7	Sololá	710	Panajachel	8	Panajachel	1	Enero	2023-01-01T00:00:00	2024-11-08T11:00:00	3	Temperatura mínima	21.1
11280	7	Sololá	710	Panajachel	8	Panajachel	1	Enero	2023-01-01T00:00:00	2024-11-08T11:00:00	5	Humedad	71
11281	7	Sololá	710	Panajachel	8	Panajachel	1	Enero	2023-01-01T00:00:00	2024-11-08T11:00:00	6	Velocidad del viento	3.2
11282	7	Sololá	710	Panajachel	8	Panajachel	1	Enero	2023-01-01T00:00:00	2024-11-08T11:00:00	7	Dirección del viento	3.22
11283	7	Sololá	710	Panajachel	8	Panajachel	1	Enero	2023-01-01T00:00:00	2024-11-08T11:00:00	1	Precipitación	0
11284	7	Sololá	710	Panajachel	8	Panajachel	1	Enero	2023-01-01T00:00:00	2024-11-08T11:00:00	8	Radiación solar	504
11285	7	Sololá	710	Panajachel	8	Panajachel	1	Enero	2023-01-01T00:00:00	2024-11-08T12:00:00	2	Temperatura media	22.4
11286	7	Sololá	710	Panajachel	8	Panajachel	1	Enero	2023-01-01T00:00:00	2024-11-08T12:00:00	4	Temperatura máxima	22.7
11287	7	Sololá	710	Panajachel	8	Panajachel	1	Enero	2023-01-01T00:00:00	2024-11-08T12:00:00	3	Temperatura mínima	21.2
11288	7	Sololá	710	Panajachel	8	Panajachel	1	Enero	2023-01-01T00:00:00	2024-11-08T12:00:00	5	Humedad	69
11289	7	Sololá	710	Panajachel	8	Panajachel	1	Enero	2023-01-01T00:00:00	2024-11-08T12:00:00	6	Velocidad del viento	1.6
11290	7	Sololá	710	Panajachel	8	Panajachel	1	Enero	2023-01-01T00:00:00	2024-11-08T12:00:00	7	Dirección del viento	1.61
11291	7	Sololá	710	Panajachel	8	Panajachel	1	Enero	2023-01-01T00:00:00	2024-11-08T12:00:00	1	Precipitación	0
11292	7	Sololá	710	Panajachel	8	Panajachel	1	Enero	2023-01-01T00:00:00	2024-11-08T12:00:00	8	Radiación solar	380
11293	7	Sololá	710	Panajachel	8	Panajachel	1	Enero	2023-01-01T00:00:00	2024-11-08T13:00:00	2	Temperatura media	22.4
11294	7	Sololá	710	Panajachel	8	Panajachel	1	Enero	2023-01-01T00:00:00	2024-11-08T13:00:00	4	Temperatura máxima	23.1
11295	7	Sololá	710	Panajachel	8	Panajachel	1	Enero	2023-01-01T00:00:00	2024-11-08T13:00:00	3	Temperatura mínima	21.7
11296	7	Sololá	710	Panajachel	8	Panajachel	1	Enero	2023-01-01T00:00:00	2024-11-08T13:00:00	5	Humedad	72
11297	7	Sololá	710	Panajachel	8	Panajachel	1	Enero	2023-01-01T00:00:00	2024-11-08T13:00:00	6	Velocidad del viento	1.6
11298	7	Sololá	710	Panajachel	8	Panajachel	1	Enero	2023-01-01T00:00:00	2024-11-08T13:00:00	7	Dirección del viento	1.61
11299	7	Sololá	710	Panajachel	8	Panajachel	1	Enero	2023-01-01T00:00:00	2024-11-08T13:00:00	1	Precipitación	0
11300	7	Sololá	710	Panajachel	8	Panajachel	1	Enero	2023-01-01T00:00:00	2024-11-08T13:00:00	8	Radiación solar	374
11301	7	Sololá	710	Panajachel	8	Panajachel	1	Enero	2023-01-01T00:00:00	2024-11-08T14:00:00	2	Temperatura media	24.1
11302	7	Sololá	710	Panajachel	8	Panajachel	1	Enero	2023-01-01T00:00:00	2024-11-08T14:00:00	4	Temperatura máxima	24.4
11303	7	Sololá	710	Panajachel	8	Panajachel	1	Enero	2023-01-01T00:00:00	2024-11-08T14:00:00	3	Temperatura mínima	22.3
11304	7	Sololá	710	Panajachel	8	Panajachel	1	Enero	2023-01-01T00:00:00	2024-11-08T14:00:00	5	Humedad	72
11305	7	Sololá	710	Panajachel	8	Panajachel	1	Enero	2023-01-01T00:00:00	2024-11-08T14:00:00	6	Velocidad del viento	3.2
11306	7	Sololá	710	Panajachel	8	Panajachel	1	Enero	2023-01-01T00:00:00	2024-11-08T14:00:00	7	Dirección del viento	3.22
11307	7	Sololá	710	Panajachel	8	Panajachel	1	Enero	2023-01-01T00:00:00	2024-11-08T14:00:00	1	Precipitación	0
11308	7	Sololá	710	Panajachel	8	Panajachel	1	Enero	2023-01-01T00:00:00	2024-11-08T14:00:00	8	Radiación solar	653
11309	7	Sololá	710	Panajachel	8	Panajachel	1	Enero	2023-01-01T00:00:00	2024-11-08T15:00:00	2	Temperatura media	22.1
11310	7	Sololá	710	Panajachel	8	Panajachel	1	Enero	2023-01-01T00:00:00	2024-11-08T15:00:00	4	Temperatura máxima	24.1
11311	7	Sololá	710	Panajachel	8	Panajachel	1	Enero	2023-01-01T00:00:00	2024-11-08T15:00:00	3	Temperatura mínima	22.1
11312	7	Sololá	710	Panajachel	8	Panajachel	1	Enero	2023-01-01T00:00:00	2024-11-08T15:00:00	5	Humedad	79
11313	7	Sololá	710	Panajachel	8	Panajachel	1	Enero	2023-01-01T00:00:00	2024-11-08T15:00:00	6	Velocidad del viento	4.8
11314	7	Sololá	710	Panajachel	8	Panajachel	1	Enero	2023-01-01T00:00:00	2024-11-08T15:00:00	7	Dirección del viento	4.83
11315	7	Sololá	710	Panajachel	8	Panajachel	1	Enero	2023-01-01T00:00:00	2024-11-08T15:00:00	1	Precipitación	0
11316	7	Sololá	710	Panajachel	8	Panajachel	1	Enero	2023-01-01T00:00:00	2024-11-08T15:00:00	8	Radiación solar	311
11317	7	Sololá	710	Panajachel	8	Panajachel	1	Enero	2023-01-01T00:00:00	2024-11-08T16:00:00	2	Temperatura media	21.9
11318	7	Sololá	710	Panajachel	8	Panajachel	1	Enero	2023-01-01T00:00:00	2024-11-08T16:00:00	4	Temperatura máxima	22.2
11319	7	Sololá	710	Panajachel	8	Panajachel	1	Enero	2023-01-01T00:00:00	2024-11-08T16:00:00	3	Temperatura mínima	21.9
11320	7	Sololá	710	Panajachel	8	Panajachel	1	Enero	2023-01-01T00:00:00	2024-11-08T16:00:00	5	Humedad	81
11321	7	Sololá	710	Panajachel	8	Panajachel	1	Enero	2023-01-01T00:00:00	2024-11-08T16:00:00	6	Velocidad del viento	3.2
11322	7	Sololá	710	Panajachel	8	Panajachel	1	Enero	2023-01-01T00:00:00	2024-11-08T16:00:00	7	Dirección del viento	3.22
11323	7	Sololá	710	Panajachel	8	Panajachel	1	Enero	2023-01-01T00:00:00	2024-11-08T16:00:00	1	Precipitación	0
11324	7	Sololá	710	Panajachel	8	Panajachel	1	Enero	2023-01-01T00:00:00	2024-11-08T16:00:00	8	Radiación solar	163
11325	7	Sololá	710	Panajachel	8	Panajachel	1	Enero	2023-01-01T00:00:00	2024-11-08T17:00:00	2	Temperatura media	20.9
11326	7	Sololá	710	Panajachel	8	Panajachel	1	Enero	2023-01-01T00:00:00	2024-11-08T17:00:00	4	Temperatura máxima	21.9
11327	7	Sololá	710	Panajachel	8	Panajachel	1	Enero	2023-01-01T00:00:00	2024-11-08T17:00:00	3	Temperatura mínima	20.9
11328	7	Sololá	710	Panajachel	8	Panajachel	1	Enero	2023-01-01T00:00:00	2024-11-08T17:00:00	5	Humedad	85
11329	7	Sololá	710	Panajachel	8	Panajachel	1	Enero	2023-01-01T00:00:00	2024-11-08T17:00:00	6	Velocidad del viento	4.8
11330	7	Sololá	710	Panajachel	8	Panajachel	1	Enero	2023-01-01T00:00:00	2024-11-08T17:00:00	7	Dirección del viento	4.83
11331	7	Sololá	710	Panajachel	8	Panajachel	1	Enero	2023-01-01T00:00:00	2024-11-08T17:00:00	1	Precipitación	0
11332	7	Sololá	710	Panajachel	8	Panajachel	1	Enero	2023-01-01T00:00:00	2024-11-08T17:00:00	8	Radiación solar	113
11333	7	Sololá	710	Panajachel	8	Panajachel	1	Enero	2023-01-01T00:00:00	2024-11-08T18:00:00	2	Temperatura media	20.1
11334	7	Sololá	710	Panajachel	8	Panajachel	1	Enero	2023-01-01T00:00:00	2024-11-08T18:00:00	4	Temperatura máxima	21.2
11335	7	Sololá	710	Panajachel	8	Panajachel	1	Enero	2023-01-01T00:00:00	2024-11-08T18:00:00	3	Temperatura mínima	20.1
11336	7	Sololá	710	Panajachel	8	Panajachel	1	Enero	2023-01-01T00:00:00	2024-11-08T18:00:00	5	Humedad	86
11337	7	Sololá	710	Panajachel	8	Panajachel	1	Enero	2023-01-01T00:00:00	2024-11-08T18:00:00	6	Velocidad del viento	1.6
11338	7	Sololá	710	Panajachel	8	Panajachel	1	Enero	2023-01-01T00:00:00	2024-11-08T18:00:00	7	Dirección del viento	1.61
11339	7	Sololá	710	Panajachel	8	Panajachel	1	Enero	2023-01-01T00:00:00	2024-11-08T18:00:00	1	Precipitación	0
11340	7	Sololá	710	Panajachel	8	Panajachel	1	Enero	2023-01-01T00:00:00	2024-11-08T18:00:00	8	Radiación solar	26
11341	7	Sololá	710	Panajachel	8	Panajachel	1	Enero	2023-01-01T00:00:00	2024-11-08T19:00:00	2	Temperatura media	19.4
11342	7	Sololá	710	Panajachel	8	Panajachel	1	Enero	2023-01-01T00:00:00	2024-11-08T19:00:00	4	Temperatura máxima	20.1
11343	7	Sololá	710	Panajachel	8	Panajachel	1	Enero	2023-01-01T00:00:00	2024-11-08T19:00:00	3	Temperatura mínima	19.4
11344	7	Sololá	710	Panajachel	8	Panajachel	1	Enero	2023-01-01T00:00:00	2024-11-08T19:00:00	5	Humedad	89
11345	7	Sololá	710	Panajachel	8	Panajachel	1	Enero	2023-01-01T00:00:00	2024-11-08T19:00:00	6	Velocidad del viento	0
11346	7	Sololá	710	Panajachel	8	Panajachel	1	Enero	2023-01-01T00:00:00	2024-11-08T19:00:00	7	Dirección del viento	0
11347	7	Sololá	710	Panajachel	8	Panajachel	1	Enero	2023-01-01T00:00:00	2024-11-08T19:00:00	1	Precipitación	0
11348	7	Sololá	710	Panajachel	8	Panajachel	1	Enero	2023-01-01T00:00:00	2024-11-08T19:00:00	8	Radiación solar	0
11349	7	Sololá	710	Panajachel	8	Panajachel	1	Enero	2023-01-01T00:00:00	2024-11-08T20:00:00	2	Temperatura media	17.8
11350	7	Sololá	710	Panajachel	8	Panajachel	1	Enero	2023-01-01T00:00:00	2024-11-08T20:00:00	4	Temperatura máxima	19.4
11351	7	Sololá	710	Panajachel	8	Panajachel	1	Enero	2023-01-01T00:00:00	2024-11-08T20:00:00	3	Temperatura mínima	17.8
11352	7	Sololá	710	Panajachel	8	Panajachel	1	Enero	2023-01-01T00:00:00	2024-11-08T20:00:00	5	Humedad	86
11353	7	Sololá	710	Panajachel	8	Panajachel	1	Enero	2023-01-01T00:00:00	2024-11-08T20:00:00	6	Velocidad del viento	0
11354	7	Sololá	710	Panajachel	8	Panajachel	1	Enero	2023-01-01T00:00:00	2024-11-08T20:00:00	7	Dirección del viento	0
11355	7	Sololá	710	Panajachel	8	Panajachel	1	Enero	2023-01-01T00:00:00	2024-11-08T20:00:00	1	Precipitación	0
11356	7	Sololá	710	Panajachel	8	Panajachel	1	Enero	2023-01-01T00:00:00	2024-11-08T20:00:00	8	Radiación solar	0
11357	7	Sololá	710	Panajachel	8	Panajachel	1	Enero	2023-01-01T00:00:00	2024-11-08T21:00:00	2	Temperatura media	16.9
11358	7	Sololá	710	Panajachel	8	Panajachel	1	Enero	2023-01-01T00:00:00	2024-11-08T21:00:00	4	Temperatura máxima	17.9
11359	7	Sololá	710	Panajachel	8	Panajachel	1	Enero	2023-01-01T00:00:00	2024-11-08T21:00:00	3	Temperatura mínima	16.9
11360	7	Sololá	710	Panajachel	8	Panajachel	1	Enero	2023-01-01T00:00:00	2024-11-08T21:00:00	5	Humedad	83
11361	7	Sololá	710	Panajachel	8	Panajachel	1	Enero	2023-01-01T00:00:00	2024-11-08T21:00:00	6	Velocidad del viento	3.2
11362	7	Sololá	710	Panajachel	8	Panajachel	1	Enero	2023-01-01T00:00:00	2024-11-08T21:00:00	7	Dirección del viento	3.22
11363	7	Sololá	710	Panajachel	8	Panajachel	1	Enero	2023-01-01T00:00:00	2024-11-08T21:00:00	1	Precipitación	0
11364	7	Sololá	710	Panajachel	8	Panajachel	1	Enero	2023-01-01T00:00:00	2024-11-08T21:00:00	8	Radiación solar	0
11365	7	Sololá	710	Panajachel	8	Panajachel	1	Enero	2023-01-01T00:00:00	2024-11-08T22:00:00	2	Temperatura media	16.7
11366	7	Sololá	710	Panajachel	8	Panajachel	1	Enero	2023-01-01T00:00:00	2024-11-08T22:00:00	4	Temperatura máxima	16.9
11367	7	Sololá	710	Panajachel	8	Panajachel	1	Enero	2023-01-01T00:00:00	2024-11-08T22:00:00	3	Temperatura mínima	16.6
11368	7	Sololá	710	Panajachel	8	Panajachel	1	Enero	2023-01-01T00:00:00	2024-11-08T22:00:00	5	Humedad	83
11369	7	Sololá	710	Panajachel	8	Panajachel	1	Enero	2023-01-01T00:00:00	2024-11-08T22:00:00	6	Velocidad del viento	1.6
11370	7	Sololá	710	Panajachel	8	Panajachel	1	Enero	2023-01-01T00:00:00	2024-11-08T22:00:00	7	Dirección del viento	1.61
11371	7	Sololá	710	Panajachel	8	Panajachel	1	Enero	2023-01-01T00:00:00	2024-11-08T22:00:00	1	Precipitación	0
11372	7	Sololá	710	Panajachel	8	Panajachel	1	Enero	2023-01-01T00:00:00	2024-11-08T22:00:00	8	Radiación solar	0
11373	7	Sololá	710	Panajachel	8	Panajachel	1	Enero	2023-01-01T00:00:00	2024-11-08T23:00:00	2	Temperatura media	16.1
11374	7	Sololá	710	Panajachel	8	Panajachel	1	Enero	2023-01-01T00:00:00	2024-11-08T23:00:00	4	Temperatura máxima	16.7
11375	7	Sololá	710	Panajachel	8	Panajachel	1	Enero	2023-01-01T00:00:00	2024-11-08T23:00:00	3	Temperatura mínima	16.1
11376	7	Sololá	710	Panajachel	8	Panajachel	1	Enero	2023-01-01T00:00:00	2024-11-08T23:00:00	5	Humedad	83
11377	7	Sololá	710	Panajachel	8	Panajachel	1	Enero	2023-01-01T00:00:00	2024-11-08T23:00:00	6	Velocidad del viento	4.8
11378	7	Sololá	710	Panajachel	8	Panajachel	1	Enero	2023-01-01T00:00:00	2024-11-08T23:00:00	7	Dirección del viento	4.83
11379	7	Sololá	710	Panajachel	8	Panajachel	1	Enero	2023-01-01T00:00:00	2024-11-08T23:00:00	1	Precipitación	0
11380	7	Sololá	710	Panajachel	8	Panajachel	1	Enero	2023-01-01T00:00:00	2024-11-08T23:00:00	8	Radiación solar	0
11381	7	Sololá	710	Panajachel	8	Panajachel	1	Enero	2023-02-01T00:00:00	2024-11-08T00:00:00	2	Temperatura media	15.6
11382	7	Sololá	710	Panajachel	8	Panajachel	1	Enero	2023-02-01T00:00:00	2024-11-08T00:00:00	4	Temperatura máxima	16.1
11383	7	Sololá	710	Panajachel	8	Panajachel	1	Enero	2023-02-01T00:00:00	2024-11-08T00:00:00	3	Temperatura mínima	15.6
11384	7	Sololá	710	Panajachel	8	Panajachel	1	Enero	2023-02-01T00:00:00	2024-11-08T00:00:00	5	Humedad	85
11385	7	Sololá	710	Panajachel	8	Panajachel	1	Enero	2023-02-01T00:00:00	2024-11-08T00:00:00	6	Velocidad del viento	3.2
11386	7	Sololá	710	Panajachel	8	Panajachel	1	Enero	2023-02-01T00:00:00	2024-11-08T00:00:00	7	Dirección del viento	3.22
11387	7	Sololá	710	Panajachel	8	Panajachel	1	Enero	2023-02-01T00:00:00	2024-11-08T00:00:00	1	Precipitación	0
11388	7	Sololá	710	Panajachel	8	Panajachel	1	Enero	2023-02-01T00:00:00	2024-11-08T00:00:00	8	Radiación solar	0
11389	7	Sololá	710	Panajachel	8	Panajachel	1	Enero	2023-02-01T00:00:00	2024-11-08T01:00:00	2	Temperatura media	15.2
11390	7	Sololá	710	Panajachel	8	Panajachel	1	Enero	2023-02-01T00:00:00	2024-11-08T01:00:00	4	Temperatura máxima	15.6
11391	7	Sololá	710	Panajachel	8	Panajachel	1	Enero	2023-02-01T00:00:00	2024-11-08T01:00:00	3	Temperatura mínima	15
11392	7	Sololá	710	Panajachel	8	Panajachel	1	Enero	2023-02-01T00:00:00	2024-11-08T01:00:00	5	Humedad	84
11393	7	Sololá	710	Panajachel	8	Panajachel	1	Enero	2023-02-01T00:00:00	2024-11-08T01:00:00	6	Velocidad del viento	4.8
11394	7	Sololá	710	Panajachel	8	Panajachel	1	Enero	2023-02-01T00:00:00	2024-11-08T01:00:00	7	Dirección del viento	4.83
11395	7	Sololá	710	Panajachel	8	Panajachel	1	Enero	2023-02-01T00:00:00	2024-11-08T01:00:00	1	Precipitación	0
11396	7	Sololá	710	Panajachel	8	Panajachel	1	Enero	2023-02-01T00:00:00	2024-11-08T01:00:00	8	Radiación solar	0
11397	7	Sololá	710	Panajachel	8	Panajachel	1	Enero	2023-02-01T00:00:00	2024-11-08T02:00:00	2	Temperatura media	15.3
11398	7	Sololá	710	Panajachel	8	Panajachel	1	Enero	2023-02-01T00:00:00	2024-11-08T02:00:00	4	Temperatura máxima	15.3
11399	7	Sololá	710	Panajachel	8	Panajachel	1	Enero	2023-02-01T00:00:00	2024-11-08T02:00:00	3	Temperatura mínima	15.1
11400	7	Sololá	710	Panajachel	8	Panajachel	1	Enero	2023-02-01T00:00:00	2024-11-08T02:00:00	5	Humedad	82
11401	7	Sololá	710	Panajachel	8	Panajachel	1	Enero	2023-02-01T00:00:00	2024-11-08T02:00:00	6	Velocidad del viento	1.6
11402	7	Sololá	710	Panajachel	8	Panajachel	1	Enero	2023-02-01T00:00:00	2024-11-08T02:00:00	7	Dirección del viento	1.61
11403	7	Sololá	710	Panajachel	8	Panajachel	1	Enero	2023-02-01T00:00:00	2024-11-08T02:00:00	1	Precipitación	0
11404	7	Sololá	710	Panajachel	8	Panajachel	1	Enero	2023-02-01T00:00:00	2024-11-08T02:00:00	8	Radiación solar	0
11405	7	Sololá	710	Panajachel	8	Panajachel	1	Enero	2023-02-01T00:00:00	2024-11-08T03:00:00	2	Temperatura media	14.8
11406	7	Sololá	710	Panajachel	8	Panajachel	1	Enero	2023-02-01T00:00:00	2024-11-08T03:00:00	4	Temperatura máxima	15.3
11407	7	Sololá	710	Panajachel	8	Panajachel	1	Enero	2023-02-01T00:00:00	2024-11-08T03:00:00	3	Temperatura mínima	14.8
11408	7	Sololá	710	Panajachel	8	Panajachel	1	Enero	2023-02-01T00:00:00	2024-11-08T03:00:00	5	Humedad	82
11409	7	Sololá	710	Panajachel	8	Panajachel	1	Enero	2023-02-01T00:00:00	2024-11-08T03:00:00	6	Velocidad del viento	3.2
11410	7	Sololá	710	Panajachel	8	Panajachel	1	Enero	2023-02-01T00:00:00	2024-11-08T03:00:00	7	Dirección del viento	3.22
11411	7	Sololá	710	Panajachel	8	Panajachel	1	Enero	2023-02-01T00:00:00	2024-11-08T03:00:00	1	Precipitación	0
11412	7	Sololá	710	Panajachel	8	Panajachel	1	Enero	2023-02-01T00:00:00	2024-11-08T03:00:00	8	Radiación solar	0
11413	7	Sololá	710	Panajachel	8	Panajachel	1	Enero	2023-02-01T00:00:00	2024-11-08T04:00:00	2	Temperatura media	14.5
11414	7	Sololá	710	Panajachel	8	Panajachel	1	Enero	2023-02-01T00:00:00	2024-11-08T04:00:00	4	Temperatura máxima	15
11415	7	Sololá	710	Panajachel	8	Panajachel	1	Enero	2023-02-01T00:00:00	2024-11-08T04:00:00	3	Temperatura mínima	14.5
11416	7	Sololá	710	Panajachel	8	Panajachel	1	Enero	2023-02-01T00:00:00	2024-11-08T04:00:00	5	Humedad	83
11417	7	Sololá	710	Panajachel	8	Panajachel	1	Enero	2023-02-01T00:00:00	2024-11-08T04:00:00	6	Velocidad del viento	1.6
11418	7	Sololá	710	Panajachel	8	Panajachel	1	Enero	2023-02-01T00:00:00	2024-11-08T04:00:00	7	Dirección del viento	1.61
11419	7	Sololá	710	Panajachel	8	Panajachel	1	Enero	2023-02-01T00:00:00	2024-11-08T04:00:00	1	Precipitación	0
11420	7	Sololá	710	Panajachel	8	Panajachel	1	Enero	2023-02-01T00:00:00	2024-11-08T04:00:00	8	Radiación solar	0
11421	7	Sololá	710	Panajachel	8	Panajachel	1	Enero	2023-02-01T00:00:00	2024-11-08T05:00:00	2	Temperatura media	14
11422	7	Sololá	710	Panajachel	8	Panajachel	1	Enero	2023-02-01T00:00:00	2024-11-08T05:00:00	4	Temperatura máxima	14.5
11423	7	Sololá	710	Panajachel	8	Panajachel	1	Enero	2023-02-01T00:00:00	2024-11-08T05:00:00	3	Temperatura mínima	13.9
11424	7	Sololá	710	Panajachel	8	Panajachel	1	Enero	2023-02-01T00:00:00	2024-11-08T05:00:00	5	Humedad	83
11425	7	Sololá	710	Panajachel	8	Panajachel	1	Enero	2023-02-01T00:00:00	2024-11-08T05:00:00	6	Velocidad del viento	3.2
11426	7	Sololá	710	Panajachel	8	Panajachel	1	Enero	2023-02-01T00:00:00	2024-11-08T05:00:00	7	Dirección del viento	3.22
11427	7	Sololá	710	Panajachel	8	Panajachel	1	Enero	2023-02-01T00:00:00	2024-11-08T05:00:00	1	Precipitación	0
11428	7	Sololá	710	Panajachel	8	Panajachel	1	Enero	2023-02-01T00:00:00	2024-11-08T05:00:00	8	Radiación solar	0
11429	7	Sololá	710	Panajachel	8	Panajachel	1	Enero	2023-02-01T00:00:00	2024-11-08T06:00:00	2	Temperatura media	13.6
11430	7	Sololá	710	Panajachel	8	Panajachel	1	Enero	2023-02-01T00:00:00	2024-11-08T06:00:00	4	Temperatura máxima	14.3
11431	7	Sololá	710	Panajachel	8	Panajachel	1	Enero	2023-02-01T00:00:00	2024-11-08T06:00:00	3	Temperatura mínima	13.6
11432	7	Sololá	710	Panajachel	8	Panajachel	1	Enero	2023-02-01T00:00:00	2024-11-08T06:00:00	5	Humedad	83
11433	7	Sololá	710	Panajachel	8	Panajachel	1	Enero	2023-02-01T00:00:00	2024-11-08T06:00:00	6	Velocidad del viento	3.2
11434	7	Sololá	710	Panajachel	8	Panajachel	1	Enero	2023-02-01T00:00:00	2024-11-08T06:00:00	7	Dirección del viento	3.22
11435	7	Sololá	710	Panajachel	8	Panajachel	1	Enero	2023-02-01T00:00:00	2024-11-08T06:00:00	1	Precipitación	0
11436	7	Sololá	710	Panajachel	8	Panajachel	1	Enero	2023-02-01T00:00:00	2024-11-08T06:00:00	8	Radiación solar	0
11437	7	Sololá	710	Panajachel	8	Panajachel	1	Enero	2023-02-01T00:00:00	2024-11-08T07:00:00	2	Temperatura media	13.6
11438	7	Sololá	710	Panajachel	8	Panajachel	1	Enero	2023-02-01T00:00:00	2024-11-08T07:00:00	4	Temperatura máxima	13.7
11439	7	Sololá	710	Panajachel	8	Panajachel	1	Enero	2023-02-01T00:00:00	2024-11-08T07:00:00	3	Temperatura mínima	13.3
11440	7	Sololá	710	Panajachel	8	Panajachel	1	Enero	2023-02-01T00:00:00	2024-11-08T07:00:00	5	Humedad	82
11441	7	Sololá	710	Panajachel	8	Panajachel	1	Enero	2023-02-01T00:00:00	2024-11-08T07:00:00	6	Velocidad del viento	3.2
11442	7	Sololá	710	Panajachel	8	Panajachel	1	Enero	2023-02-01T00:00:00	2024-11-08T07:00:00	7	Dirección del viento	3.22
11443	7	Sololá	710	Panajachel	8	Panajachel	1	Enero	2023-02-01T00:00:00	2024-11-08T07:00:00	1	Precipitación	0
11444	7	Sololá	710	Panajachel	8	Panajachel	1	Enero	2023-02-01T00:00:00	2024-11-08T07:00:00	8	Radiación solar	5
11445	7	Sololá	710	Panajachel	8	Panajachel	1	Enero	2023-02-01T00:00:00	2024-11-08T08:00:00	2	Temperatura media	15.5
11446	7	Sololá	710	Panajachel	8	Panajachel	1	Enero	2023-02-01T00:00:00	2024-11-08T08:00:00	4	Temperatura máxima	15.5
11447	7	Sololá	710	Panajachel	8	Panajachel	1	Enero	2023-02-01T00:00:00	2024-11-08T08:00:00	3	Temperatura mínima	13.6
11448	7	Sololá	710	Panajachel	8	Panajachel	1	Enero	2023-02-01T00:00:00	2024-11-08T08:00:00	5	Humedad	77
11449	7	Sololá	710	Panajachel	8	Panajachel	1	Enero	2023-02-01T00:00:00	2024-11-08T08:00:00	6	Velocidad del viento	3.2
11450	7	Sololá	710	Panajachel	8	Panajachel	1	Enero	2023-02-01T00:00:00	2024-11-08T08:00:00	7	Dirección del viento	3.22
11451	7	Sololá	710	Panajachel	8	Panajachel	1	Enero	2023-02-01T00:00:00	2024-11-08T08:00:00	1	Precipitación	0
11452	7	Sololá	710	Panajachel	8	Panajachel	1	Enero	2023-02-01T00:00:00	2024-11-08T08:00:00	8	Radiación solar	74
11453	7	Sololá	710	Panajachel	8	Panajachel	1	Enero	2023-02-01T00:00:00	2024-11-08T09:00:00	2	Temperatura media	19.1
11454	7	Sololá	710	Panajachel	8	Panajachel	1	Enero	2023-02-01T00:00:00	2024-11-08T09:00:00	4	Temperatura máxima	19.2
11455	7	Sololá	710	Panajachel	8	Panajachel	1	Enero	2023-02-01T00:00:00	2024-11-08T09:00:00	3	Temperatura mínima	15.5
11456	7	Sololá	710	Panajachel	8	Panajachel	1	Enero	2023-02-01T00:00:00	2024-11-08T09:00:00	5	Humedad	77
11457	7	Sololá	710	Panajachel	8	Panajachel	1	Enero	2023-02-01T00:00:00	2024-11-08T09:00:00	6	Velocidad del viento	1.6
11458	7	Sololá	710	Panajachel	8	Panajachel	1	Enero	2023-02-01T00:00:00	2024-11-08T09:00:00	7	Dirección del viento	1.61
11459	7	Sololá	710	Panajachel	8	Panajachel	1	Enero	2023-02-01T00:00:00	2024-11-08T09:00:00	1	Precipitación	0
11460	7	Sololá	710	Panajachel	8	Panajachel	1	Enero	2023-02-01T00:00:00	2024-11-08T09:00:00	8	Radiación solar	410
11461	7	Sololá	710	Panajachel	8	Panajachel	1	Enero	2023-02-01T00:00:00	2024-11-08T10:00:00	2	Temperatura media	20.1
11462	7	Sololá	710	Panajachel	8	Panajachel	1	Enero	2023-02-01T00:00:00	2024-11-08T10:00:00	4	Temperatura máxima	20.2
11463	7	Sololá	710	Panajachel	8	Panajachel	1	Enero	2023-02-01T00:00:00	2024-11-08T10:00:00	3	Temperatura mínima	19.1
11464	7	Sololá	710	Panajachel	8	Panajachel	1	Enero	2023-02-01T00:00:00	2024-11-08T10:00:00	5	Humedad	74
11465	7	Sololá	710	Panajachel	8	Panajachel	1	Enero	2023-02-01T00:00:00	2024-11-08T10:00:00	6	Velocidad del viento	3.2
11466	7	Sololá	710	Panajachel	8	Panajachel	1	Enero	2023-02-01T00:00:00	2024-11-08T10:00:00	7	Dirección del viento	3.22
11467	7	Sololá	710	Panajachel	8	Panajachel	1	Enero	2023-02-01T00:00:00	2024-11-08T10:00:00	1	Precipitación	0
11468	7	Sololá	710	Panajachel	8	Panajachel	1	Enero	2023-02-01T00:00:00	2024-11-08T10:00:00	8	Radiación solar	563
11469	7	Sololá	710	Panajachel	8	Panajachel	1	Enero	2023-02-01T00:00:00	2024-11-08T11:00:00	2	Temperatura media	20.3
11470	7	Sololá	710	Panajachel	8	Panajachel	1	Enero	2023-02-01T00:00:00	2024-11-08T11:00:00	4	Temperatura máxima	20.5
11471	7	Sololá	710	Panajachel	8	Panajachel	1	Enero	2023-02-01T00:00:00	2024-11-08T11:00:00	3	Temperatura mínima	19.9
11472	7	Sololá	710	Panajachel	8	Panajachel	1	Enero	2023-02-01T00:00:00	2024-11-08T11:00:00	5	Humedad	73
11473	7	Sololá	710	Panajachel	8	Panajachel	1	Enero	2023-02-01T00:00:00	2024-11-08T11:00:00	6	Velocidad del viento	3.2
11474	7	Sololá	710	Panajachel	8	Panajachel	1	Enero	2023-02-01T00:00:00	2024-11-08T11:00:00	7	Dirección del viento	3.22
11475	7	Sololá	710	Panajachel	8	Panajachel	1	Enero	2023-02-01T00:00:00	2024-11-08T11:00:00	1	Precipitación	0
11476	7	Sololá	710	Panajachel	8	Panajachel	1	Enero	2023-02-01T00:00:00	2024-11-08T11:00:00	8	Radiación solar	489
11477	7	Sololá	710	Panajachel	8	Panajachel	1	Enero	2023-02-01T00:00:00	2024-11-08T12:00:00	2	Temperatura media	21.8
11478	7	Sololá	710	Panajachel	8	Panajachel	1	Enero	2023-02-01T00:00:00	2024-11-08T12:00:00	4	Temperatura máxima	21.9
11479	7	Sololá	710	Panajachel	8	Panajachel	1	Enero	2023-02-01T00:00:00	2024-11-08T12:00:00	3	Temperatura mínima	20.3
11480	7	Sololá	710	Panajachel	8	Panajachel	1	Enero	2023-02-01T00:00:00	2024-11-08T12:00:00	5	Humedad	69
11481	7	Sololá	710	Panajachel	8	Panajachel	1	Enero	2023-02-01T00:00:00	2024-11-08T12:00:00	6	Velocidad del viento	3.2
11482	7	Sololá	710	Panajachel	8	Panajachel	1	Enero	2023-02-01T00:00:00	2024-11-08T12:00:00	7	Dirección del viento	3.22
11483	7	Sololá	710	Panajachel	8	Panajachel	1	Enero	2023-02-01T00:00:00	2024-11-08T12:00:00	1	Precipitación	0
11484	7	Sololá	710	Panajachel	8	Panajachel	1	Enero	2023-02-01T00:00:00	2024-11-08T12:00:00	8	Radiación solar	745
11485	7	Sololá	710	Panajachel	8	Panajachel	1	Enero	2023-02-01T00:00:00	2024-11-08T13:00:00	2	Temperatura media	22.6
11486	7	Sololá	710	Panajachel	8	Panajachel	1	Enero	2023-02-01T00:00:00	2024-11-08T13:00:00	4	Temperatura máxima	22.6
11487	7	Sololá	710	Panajachel	8	Panajachel	1	Enero	2023-02-01T00:00:00	2024-11-08T13:00:00	3	Temperatura mínima	21.8
11488	7	Sololá	710	Panajachel	8	Panajachel	1	Enero	2023-02-01T00:00:00	2024-11-08T13:00:00	5	Humedad	72
11489	7	Sololá	710	Panajachel	8	Panajachel	1	Enero	2023-02-01T00:00:00	2024-11-08T13:00:00	6	Velocidad del viento	3.2
11490	7	Sololá	710	Panajachel	8	Panajachel	1	Enero	2023-02-01T00:00:00	2024-11-08T13:00:00	7	Dirección del viento	3.22
11491	7	Sololá	710	Panajachel	8	Panajachel	1	Enero	2023-02-01T00:00:00	2024-11-08T13:00:00	1	Precipitación	0
11492	7	Sololá	710	Panajachel	8	Panajachel	1	Enero	2023-02-01T00:00:00	2024-11-08T13:00:00	8	Radiación solar	619
11493	7	Sololá	710	Panajachel	8	Panajachel	1	Enero	2023-02-01T00:00:00	2024-11-08T14:00:00	2	Temperatura media	23.2
11494	7	Sololá	710	Panajachel	8	Panajachel	1	Enero	2023-02-01T00:00:00	2024-11-08T14:00:00	4	Temperatura máxima	23.2
11495	7	Sololá	710	Panajachel	8	Panajachel	1	Enero	2023-02-01T00:00:00	2024-11-08T14:00:00	3	Temperatura mínima	22.4
11496	7	Sololá	710	Panajachel	8	Panajachel	1	Enero	2023-02-01T00:00:00	2024-11-08T14:00:00	5	Humedad	71
11497	7	Sololá	710	Panajachel	8	Panajachel	1	Enero	2023-02-01T00:00:00	2024-11-08T14:00:00	6	Velocidad del viento	3.2
11498	7	Sololá	710	Panajachel	8	Panajachel	1	Enero	2023-02-01T00:00:00	2024-11-08T14:00:00	7	Dirección del viento	3.22
11499	7	Sololá	710	Panajachel	8	Panajachel	1	Enero	2023-02-01T00:00:00	2024-11-08T14:00:00	1	Precipitación	0
11500	7	Sololá	710	Panajachel	8	Panajachel	1	Enero	2023-02-01T00:00:00	2024-11-08T14:00:00	8	Radiación solar	704
11501	7	Sololá	710	Panajachel	8	Panajachel	1	Enero	2023-02-01T00:00:00	2024-11-08T15:00:00	2	Temperatura media	23.2
11502	7	Sololá	710	Panajachel	8	Panajachel	1	Enero	2023-02-01T00:00:00	2024-11-08T15:00:00	4	Temperatura máxima	23.6
11503	7	Sololá	710	Panajachel	8	Panajachel	1	Enero	2023-02-01T00:00:00	2024-11-08T15:00:00	3	Temperatura mínima	22.8
11504	7	Sololá	710	Panajachel	8	Panajachel	1	Enero	2023-02-01T00:00:00	2024-11-08T15:00:00	5	Humedad	70
11505	7	Sololá	710	Panajachel	8	Panajachel	1	Enero	2023-02-01T00:00:00	2024-11-08T15:00:00	6	Velocidad del viento	4.8
11506	7	Sololá	710	Panajachel	8	Panajachel	1	Enero	2023-02-01T00:00:00	2024-11-08T15:00:00	7	Dirección del viento	4.83
11507	7	Sololá	710	Panajachel	8	Panajachel	1	Enero	2023-02-01T00:00:00	2024-11-08T15:00:00	1	Precipitación	0
11508	7	Sololá	710	Panajachel	8	Panajachel	1	Enero	2023-02-01T00:00:00	2024-11-08T15:00:00	8	Radiación solar	576
11509	7	Sololá	710	Panajachel	8	Panajachel	1	Enero	2023-02-01T00:00:00	2024-11-08T16:00:00	2	Temperatura media	21.7
11510	7	Sololá	710	Panajachel	8	Panajachel	1	Enero	2023-02-01T00:00:00	2024-11-08T16:00:00	4	Temperatura máxima	23.1
11511	7	Sololá	710	Panajachel	8	Panajachel	1	Enero	2023-02-01T00:00:00	2024-11-08T16:00:00	3	Temperatura mínima	21.7
11512	7	Sololá	710	Panajachel	8	Panajachel	1	Enero	2023-02-01T00:00:00	2024-11-08T16:00:00	5	Humedad	79
11513	7	Sololá	710	Panajachel	8	Panajachel	1	Enero	2023-02-01T00:00:00	2024-11-08T16:00:00	6	Velocidad del viento	3.2
11514	7	Sololá	710	Panajachel	8	Panajachel	1	Enero	2023-02-01T00:00:00	2024-11-08T16:00:00	7	Dirección del viento	3.22
11515	7	Sololá	710	Panajachel	8	Panajachel	1	Enero	2023-02-01T00:00:00	2024-11-08T16:00:00	1	Precipitación	0
11516	7	Sololá	710	Panajachel	8	Panajachel	1	Enero	2023-02-01T00:00:00	2024-11-08T16:00:00	8	Radiación solar	261
11517	7	Sololá	710	Panajachel	8	Panajachel	1	Enero	2023-02-01T00:00:00	2024-11-08T17:00:00	2	Temperatura media	21.1
11518	7	Sololá	710	Panajachel	8	Panajachel	1	Enero	2023-02-01T00:00:00	2024-11-08T17:00:00	4	Temperatura máxima	22.3
11519	7	Sololá	710	Panajachel	8	Panajachel	1	Enero	2023-02-01T00:00:00	2024-11-08T17:00:00	3	Temperatura mínima	21.1
11520	7	Sololá	710	Panajachel	8	Panajachel	1	Enero	2023-02-01T00:00:00	2024-11-08T17:00:00	5	Humedad	82
11521	7	Sololá	710	Panajachel	8	Panajachel	1	Enero	2023-02-01T00:00:00	2024-11-08T17:00:00	6	Velocidad del viento	1.6
11522	7	Sololá	710	Panajachel	8	Panajachel	1	Enero	2023-02-01T00:00:00	2024-11-08T17:00:00	7	Dirección del viento	1.61
11523	7	Sololá	710	Panajachel	8	Panajachel	1	Enero	2023-02-01T00:00:00	2024-11-08T17:00:00	1	Precipitación	0
11524	7	Sololá	710	Panajachel	8	Panajachel	1	Enero	2023-02-01T00:00:00	2024-11-08T17:00:00	8	Radiación solar	161
11525	7	Sololá	710	Panajachel	8	Panajachel	1	Enero	2023-02-01T00:00:00	2024-11-08T18:00:00	2	Temperatura media	19.8
11526	7	Sololá	710	Panajachel	8	Panajachel	1	Enero	2023-02-01T00:00:00	2024-11-08T18:00:00	4	Temperatura máxima	21.1
11527	7	Sololá	710	Panajachel	8	Panajachel	1	Enero	2023-02-01T00:00:00	2024-11-08T18:00:00	3	Temperatura mínima	19.8
11528	7	Sololá	710	Panajachel	8	Panajachel	1	Enero	2023-02-01T00:00:00	2024-11-08T18:00:00	5	Humedad	84
11529	7	Sololá	710	Panajachel	8	Panajachel	1	Enero	2023-02-01T00:00:00	2024-11-08T18:00:00	6	Velocidad del viento	1.6
11530	7	Sololá	710	Panajachel	8	Panajachel	1	Enero	2023-02-01T00:00:00	2024-11-08T18:00:00	7	Dirección del viento	1.61
11531	7	Sololá	710	Panajachel	8	Panajachel	1	Enero	2023-02-01T00:00:00	2024-11-08T18:00:00	1	Precipitación	0
11532	7	Sololá	710	Panajachel	8	Panajachel	1	Enero	2023-02-01T00:00:00	2024-11-08T18:00:00	8	Radiación solar	19
11533	7	Sololá	710	Panajachel	8	Panajachel	1	Enero	2023-02-01T00:00:00	2024-11-08T19:00:00	2	Temperatura media	19.2
11534	7	Sololá	710	Panajachel	8	Panajachel	1	Enero	2023-02-01T00:00:00	2024-11-08T19:00:00	4	Temperatura máxima	19.8
11535	7	Sololá	710	Panajachel	8	Panajachel	1	Enero	2023-02-01T00:00:00	2024-11-08T19:00:00	3	Temperatura mínima	19.1
11536	7	Sololá	710	Panajachel	8	Panajachel	1	Enero	2023-02-01T00:00:00	2024-11-08T19:00:00	5	Humedad	88
11537	7	Sololá	710	Panajachel	8	Panajachel	1	Enero	2023-02-01T00:00:00	2024-11-08T19:00:00	6	Velocidad del viento	0
11538	7	Sololá	710	Panajachel	8	Panajachel	1	Enero	2023-02-01T00:00:00	2024-11-08T19:00:00	7	Dirección del viento	0
11539	7	Sololá	710	Panajachel	8	Panajachel	1	Enero	2023-02-01T00:00:00	2024-11-08T19:00:00	1	Precipitación	0
11540	7	Sololá	710	Panajachel	8	Panajachel	1	Enero	2023-02-01T00:00:00	2024-11-08T19:00:00	8	Radiación solar	0
11541	7	Sololá	710	Panajachel	8	Panajachel	1	Enero	2023-02-01T00:00:00	2024-11-08T20:00:00	2	Temperatura media	18.4
11542	7	Sololá	710	Panajachel	8	Panajachel	1	Enero	2023-02-01T00:00:00	2024-11-08T20:00:00	4	Temperatura máxima	19.2
11543	7	Sololá	710	Panajachel	8	Panajachel	1	Enero	2023-02-01T00:00:00	2024-11-08T20:00:00	3	Temperatura mínima	18.4
11544	7	Sololá	710	Panajachel	8	Panajachel	1	Enero	2023-02-01T00:00:00	2024-11-08T20:00:00	5	Humedad	86
11545	7	Sololá	710	Panajachel	8	Panajachel	1	Enero	2023-02-01T00:00:00	2024-11-08T20:00:00	6	Velocidad del viento	0
11546	7	Sololá	710	Panajachel	8	Panajachel	1	Enero	2023-02-01T00:00:00	2024-11-08T20:00:00	7	Dirección del viento	0
11547	7	Sololá	710	Panajachel	8	Panajachel	1	Enero	2023-02-01T00:00:00	2024-11-08T20:00:00	1	Precipitación	0
11548	7	Sololá	710	Panajachel	8	Panajachel	1	Enero	2023-02-01T00:00:00	2024-11-08T20:00:00	8	Radiación solar	0
11549	7	Sololá	710	Panajachel	8	Panajachel	1	Enero	2023-02-01T00:00:00	2024-11-08T21:00:00	2	Temperatura media	17.2
11550	7	Sololá	710	Panajachel	8	Panajachel	1	Enero	2023-02-01T00:00:00	2024-11-08T21:00:00	4	Temperatura máxima	18.5
11551	7	Sololá	710	Panajachel	8	Panajachel	1	Enero	2023-02-01T00:00:00	2024-11-08T21:00:00	3	Temperatura mínima	17.2
11552	7	Sololá	710	Panajachel	8	Panajachel	1	Enero	2023-02-01T00:00:00	2024-11-08T21:00:00	5	Humedad	76
11553	7	Sololá	710	Panajachel	8	Panajachel	1	Enero	2023-02-01T00:00:00	2024-11-08T21:00:00	6	Velocidad del viento	6.4
11554	7	Sololá	710	Panajachel	8	Panajachel	1	Enero	2023-02-01T00:00:00	2024-11-08T21:00:00	7	Dirección del viento	6.44
11555	7	Sololá	710	Panajachel	8	Panajachel	1	Enero	2023-02-01T00:00:00	2024-11-08T21:00:00	1	Precipitación	0
11556	7	Sololá	710	Panajachel	8	Panajachel	1	Enero	2023-02-01T00:00:00	2024-11-08T21:00:00	8	Radiación solar	0
11557	7	Sololá	710	Panajachel	8	Panajachel	1	Enero	2023-02-01T00:00:00	2024-11-08T22:00:00	2	Temperatura media	16.3
11558	7	Sololá	710	Panajachel	8	Panajachel	1	Enero	2023-02-01T00:00:00	2024-11-08T22:00:00	4	Temperatura máxima	17.2
11559	7	Sololá	710	Panajachel	8	Panajachel	1	Enero	2023-02-01T00:00:00	2024-11-08T22:00:00	3	Temperatura mínima	16.3
11560	7	Sololá	710	Panajachel	8	Panajachel	1	Enero	2023-02-01T00:00:00	2024-11-08T22:00:00	5	Humedad	77
11561	7	Sololá	710	Panajachel	8	Panajachel	1	Enero	2023-02-01T00:00:00	2024-11-08T22:00:00	6	Velocidad del viento	6.4
11562	7	Sololá	710	Panajachel	8	Panajachel	1	Enero	2023-02-01T00:00:00	2024-11-08T22:00:00	7	Dirección del viento	6.44
11563	7	Sololá	710	Panajachel	8	Panajachel	1	Enero	2023-02-01T00:00:00	2024-11-08T22:00:00	1	Precipitación	0
11564	7	Sololá	710	Panajachel	8	Panajachel	1	Enero	2023-02-01T00:00:00	2024-11-08T22:00:00	8	Radiación solar	0
11565	7	Sololá	710	Panajachel	8	Panajachel	1	Enero	2023-02-01T00:00:00	2024-11-08T23:00:00	2	Temperatura media	15.9
11566	7	Sololá	710	Panajachel	8	Panajachel	1	Enero	2023-02-01T00:00:00	2024-11-08T23:00:00	4	Temperatura máxima	16.3
11567	7	Sololá	710	Panajachel	8	Panajachel	1	Enero	2023-02-01T00:00:00	2024-11-08T23:00:00	3	Temperatura mínima	15.9
11568	7	Sololá	710	Panajachel	8	Panajachel	1	Enero	2023-02-01T00:00:00	2024-11-08T23:00:00	5	Humedad	78
11569	7	Sololá	710	Panajachel	8	Panajachel	1	Enero	2023-02-01T00:00:00	2024-11-08T23:00:00	6	Velocidad del viento	6.4
11570	7	Sololá	710	Panajachel	8	Panajachel	1	Enero	2023-02-01T00:00:00	2024-11-08T23:00:00	7	Dirección del viento	6.44
11571	7	Sololá	710	Panajachel	8	Panajachel	1	Enero	2023-02-01T00:00:00	2024-11-08T23:00:00	1	Precipitación	0
11572	7	Sololá	710	Panajachel	8	Panajachel	1	Enero	2023-02-01T00:00:00	2024-11-08T23:00:00	8	Radiación solar	0
11573	7	Sololá	710	Panajachel	8	Panajachel	1	Enero	2023-03-01T00:00:00	2024-11-08T00:00:00	2	Temperatura media	15.2
11574	7	Sololá	710	Panajachel	8	Panajachel	1	Enero	2023-03-01T00:00:00	2024-11-08T00:00:00	4	Temperatura máxima	15.9
11575	7	Sololá	710	Panajachel	8	Panajachel	1	Enero	2023-03-01T00:00:00	2024-11-08T00:00:00	3	Temperatura mínima	15.2
11576	7	Sololá	710	Panajachel	8	Panajachel	1	Enero	2023-03-01T00:00:00	2024-11-08T00:00:00	5	Humedad	77
11577	7	Sololá	710	Panajachel	8	Panajachel	1	Enero	2023-03-01T00:00:00	2024-11-08T00:00:00	6	Velocidad del viento	4.8
11578	7	Sololá	710	Panajachel	8	Panajachel	1	Enero	2023-03-01T00:00:00	2024-11-08T00:00:00	7	Dirección del viento	4.83
11579	7	Sololá	710	Panajachel	8	Panajachel	1	Enero	2023-03-01T00:00:00	2024-11-08T00:00:00	1	Precipitación	0
11580	7	Sololá	710	Panajachel	8	Panajachel	1	Enero	2023-03-01T00:00:00	2024-11-08T00:00:00	8	Radiación solar	0
11581	7	Sololá	710	Panajachel	8	Panajachel	1	Enero	2023-03-01T00:00:00	2024-11-08T01:00:00	2	Temperatura media	15.2
11582	7	Sololá	710	Panajachel	8	Panajachel	1	Enero	2023-03-01T00:00:00	2024-11-08T01:00:00	4	Temperatura máxima	15.2
11583	7	Sololá	710	Panajachel	8	Panajachel	1	Enero	2023-03-01T00:00:00	2024-11-08T01:00:00	3	Temperatura mínima	15.1
11584	7	Sololá	710	Panajachel	8	Panajachel	1	Enero	2023-03-01T00:00:00	2024-11-08T01:00:00	5	Humedad	77
11585	7	Sololá	710	Panajachel	8	Panajachel	1	Enero	2023-03-01T00:00:00	2024-11-08T01:00:00	6	Velocidad del viento	6.4
11586	7	Sololá	710	Panajachel	8	Panajachel	1	Enero	2023-03-01T00:00:00	2024-11-08T01:00:00	7	Dirección del viento	6.44
11587	7	Sololá	710	Panajachel	8	Panajachel	1	Enero	2023-03-01T00:00:00	2024-11-08T01:00:00	1	Precipitación	0
11588	7	Sololá	710	Panajachel	8	Panajachel	1	Enero	2023-03-01T00:00:00	2024-11-08T01:00:00	8	Radiación solar	0
11589	7	Sololá	710	Panajachel	8	Panajachel	1	Enero	2023-03-01T00:00:00	2024-11-08T02:00:00	2	Temperatura media	14.8
11590	7	Sololá	710	Panajachel	8	Panajachel	1	Enero	2023-03-01T00:00:00	2024-11-08T02:00:00	4	Temperatura máxima	15.2
11591	7	Sololá	710	Panajachel	8	Panajachel	1	Enero	2023-03-01T00:00:00	2024-11-08T02:00:00	3	Temperatura mínima	14.7
11592	7	Sololá	710	Panajachel	8	Panajachel	1	Enero	2023-03-01T00:00:00	2024-11-08T02:00:00	5	Humedad	78
11593	7	Sololá	710	Panajachel	8	Panajachel	1	Enero	2023-03-01T00:00:00	2024-11-08T02:00:00	6	Velocidad del viento	4.8
11594	7	Sololá	710	Panajachel	8	Panajachel	1	Enero	2023-03-01T00:00:00	2024-11-08T02:00:00	7	Dirección del viento	4.83
11595	7	Sololá	710	Panajachel	8	Panajachel	1	Enero	2023-03-01T00:00:00	2024-11-08T02:00:00	1	Precipitación	0
11596	7	Sololá	710	Panajachel	8	Panajachel	1	Enero	2023-03-01T00:00:00	2024-11-08T02:00:00	8	Radiación solar	0
11597	7	Sololá	710	Panajachel	8	Panajachel	1	Enero	2023-03-01T00:00:00	2024-11-08T03:00:00	2	Temperatura media	14.4
11598	7	Sololá	710	Panajachel	8	Panajachel	1	Enero	2023-03-01T00:00:00	2024-11-08T03:00:00	4	Temperatura máxima	14.8
11599	7	Sololá	710	Panajachel	8	Panajachel	1	Enero	2023-03-01T00:00:00	2024-11-08T03:00:00	3	Temperatura mínima	14.4
11600	7	Sololá	710	Panajachel	8	Panajachel	1	Enero	2023-03-01T00:00:00	2024-11-08T03:00:00	5	Humedad	78
11601	7	Sololá	710	Panajachel	8	Panajachel	1	Enero	2023-03-01T00:00:00	2024-11-08T03:00:00	6	Velocidad del viento	3.2
11602	7	Sololá	710	Panajachel	8	Panajachel	1	Enero	2023-03-01T00:00:00	2024-11-08T03:00:00	7	Dirección del viento	3.22
11603	7	Sololá	710	Panajachel	8	Panajachel	1	Enero	2023-03-01T00:00:00	2024-11-08T03:00:00	1	Precipitación	0
11604	7	Sololá	710	Panajachel	8	Panajachel	1	Enero	2023-03-01T00:00:00	2024-11-08T03:00:00	8	Radiación solar	0
11605	7	Sololá	710	Panajachel	8	Panajachel	1	Enero	2023-03-01T00:00:00	2024-11-08T04:00:00	2	Temperatura media	14
11606	7	Sololá	710	Panajachel	8	Panajachel	1	Enero	2023-03-01T00:00:00	2024-11-08T04:00:00	4	Temperatura máxima	14.4
11607	7	Sololá	710	Panajachel	8	Panajachel	1	Enero	2023-03-01T00:00:00	2024-11-08T04:00:00	3	Temperatura mínima	14
11608	7	Sololá	710	Panajachel	8	Panajachel	1	Enero	2023-03-01T00:00:00	2024-11-08T04:00:00	5	Humedad	78
11609	7	Sololá	710	Panajachel	8	Panajachel	1	Enero	2023-03-01T00:00:00	2024-11-08T04:00:00	6	Velocidad del viento	4.8
11610	7	Sololá	710	Panajachel	8	Panajachel	1	Enero	2023-03-01T00:00:00	2024-11-08T04:00:00	7	Dirección del viento	4.83
11611	7	Sololá	710	Panajachel	8	Panajachel	1	Enero	2023-03-01T00:00:00	2024-11-08T04:00:00	1	Precipitación	0
11612	7	Sololá	710	Panajachel	8	Panajachel	1	Enero	2023-03-01T00:00:00	2024-11-08T04:00:00	8	Radiación solar	0
11613	7	Sololá	710	Panajachel	8	Panajachel	1	Enero	2023-03-01T00:00:00	2024-11-08T05:00:00	2	Temperatura media	14.3
11614	7	Sololá	710	Panajachel	8	Panajachel	1	Enero	2023-03-01T00:00:00	2024-11-08T05:00:00	4	Temperatura máxima	14.3
11615	7	Sololá	710	Panajachel	8	Panajachel	1	Enero	2023-03-01T00:00:00	2024-11-08T05:00:00	3	Temperatura mínima	13.6
11616	7	Sololá	710	Panajachel	8	Panajachel	1	Enero	2023-03-01T00:00:00	2024-11-08T05:00:00	5	Humedad	76
11617	7	Sololá	710	Panajachel	8	Panajachel	1	Enero	2023-03-01T00:00:00	2024-11-08T05:00:00	6	Velocidad del viento	6.4
11618	7	Sololá	710	Panajachel	8	Panajachel	1	Enero	2023-03-01T00:00:00	2024-11-08T05:00:00	7	Dirección del viento	6.44
11619	7	Sololá	710	Panajachel	8	Panajachel	1	Enero	2023-03-01T00:00:00	2024-11-08T05:00:00	1	Precipitación	0
11620	7	Sololá	710	Panajachel	8	Panajachel	1	Enero	2023-03-01T00:00:00	2024-11-08T05:00:00	8	Radiación solar	0
11621	7	Sololá	710	Panajachel	8	Panajachel	1	Enero	2023-03-01T00:00:00	2024-11-08T06:00:00	2	Temperatura media	13.5
11622	7	Sololá	710	Panajachel	8	Panajachel	1	Enero	2023-03-01T00:00:00	2024-11-08T06:00:00	4	Temperatura máxima	14.3
11623	7	Sololá	710	Panajachel	8	Panajachel	1	Enero	2023-03-01T00:00:00	2024-11-08T06:00:00	3	Temperatura mínima	13.4
11624	7	Sololá	710	Panajachel	8	Panajachel	1	Enero	2023-03-01T00:00:00	2024-11-08T06:00:00	5	Humedad	80
11625	7	Sololá	710	Panajachel	8	Panajachel	1	Enero	2023-03-01T00:00:00	2024-11-08T06:00:00	6	Velocidad del viento	0
11626	7	Sololá	710	Panajachel	8	Panajachel	1	Enero	2023-03-01T00:00:00	2024-11-08T06:00:00	7	Dirección del viento	0
11627	7	Sololá	710	Panajachel	8	Panajachel	1	Enero	2023-03-01T00:00:00	2024-11-08T06:00:00	1	Precipitación	0
11628	7	Sololá	710	Panajachel	8	Panajachel	1	Enero	2023-03-01T00:00:00	2024-11-08T06:00:00	8	Radiación solar	0
11629	7	Sololá	710	Panajachel	8	Panajachel	1	Enero	2023-03-01T00:00:00	2024-11-08T07:00:00	2	Temperatura media	13.8
11630	7	Sololá	710	Panajachel	8	Panajachel	1	Enero	2023-03-01T00:00:00	2024-11-08T07:00:00	4	Temperatura máxima	13.8
11631	7	Sololá	710	Panajachel	8	Panajachel	1	Enero	2023-03-01T00:00:00	2024-11-08T07:00:00	3	Temperatura mínima	13.4
11632	7	Sololá	710	Panajachel	8	Panajachel	1	Enero	2023-03-01T00:00:00	2024-11-08T07:00:00	5	Humedad	78
11633	7	Sololá	710	Panajachel	8	Panajachel	1	Enero	2023-03-01T00:00:00	2024-11-08T07:00:00	6	Velocidad del viento	3.2
11634	7	Sololá	710	Panajachel	8	Panajachel	1	Enero	2023-03-01T00:00:00	2024-11-08T07:00:00	7	Dirección del viento	3.22
11635	7	Sololá	710	Panajachel	8	Panajachel	1	Enero	2023-03-01T00:00:00	2024-11-08T07:00:00	1	Precipitación	0
11636	7	Sololá	710	Panajachel	8	Panajachel	1	Enero	2023-03-01T00:00:00	2024-11-08T07:00:00	8	Radiación solar	7
11637	7	Sololá	710	Panajachel	8	Panajachel	1	Enero	2023-03-01T00:00:00	2024-11-08T08:00:00	2	Temperatura media	15.6
11638	7	Sololá	710	Panajachel	8	Panajachel	1	Enero	2023-03-01T00:00:00	2024-11-08T08:00:00	4	Temperatura máxima	15.7
11639	7	Sololá	710	Panajachel	8	Panajachel	1	Enero	2023-03-01T00:00:00	2024-11-08T08:00:00	3	Temperatura mínima	13.7
11640	7	Sololá	710	Panajachel	8	Panajachel	1	Enero	2023-03-01T00:00:00	2024-11-08T08:00:00	5	Humedad	72
11641	7	Sololá	710	Panajachel	8	Panajachel	1	Enero	2023-03-01T00:00:00	2024-11-08T08:00:00	6	Velocidad del viento	3.2
11642	7	Sololá	710	Panajachel	8	Panajachel	1	Enero	2023-03-01T00:00:00	2024-11-08T08:00:00	7	Dirección del viento	3.22
11643	7	Sololá	710	Panajachel	8	Panajachel	1	Enero	2023-03-01T00:00:00	2024-11-08T08:00:00	1	Precipitación	0
11644	7	Sololá	710	Panajachel	8	Panajachel	1	Enero	2023-03-01T00:00:00	2024-11-08T08:00:00	8	Radiación solar	72
11645	7	Sololá	710	Panajachel	8	Panajachel	1	Enero	2023-03-01T00:00:00	2024-11-08T09:00:00	2	Temperatura media	17.9
11646	7	Sololá	710	Panajachel	8	Panajachel	1	Enero	2023-03-01T00:00:00	2024-11-08T09:00:00	4	Temperatura máxima	18
11647	7	Sololá	710	Panajachel	8	Panajachel	1	Enero	2023-03-01T00:00:00	2024-11-08T09:00:00	3	Temperatura mínima	15.7
11648	7	Sololá	710	Panajachel	8	Panajachel	1	Enero	2023-03-01T00:00:00	2024-11-08T09:00:00	5	Humedad	77
11649	7	Sololá	710	Panajachel	8	Panajachel	1	Enero	2023-03-01T00:00:00	2024-11-08T09:00:00	6	Velocidad del viento	0
11650	7	Sololá	710	Panajachel	8	Panajachel	1	Enero	2023-03-01T00:00:00	2024-11-08T09:00:00	7	Dirección del viento	0
11651	7	Sololá	710	Panajachel	8	Panajachel	1	Enero	2023-03-01T00:00:00	2024-11-08T09:00:00	1	Precipitación	0
11652	7	Sololá	710	Panajachel	8	Panajachel	1	Enero	2023-03-01T00:00:00	2024-11-08T09:00:00	8	Radiación solar	257
11653	7	Sololá	710	Panajachel	8	Panajachel	1	Enero	2023-03-01T00:00:00	2024-11-08T10:00:00	2	Temperatura media	19.3
11654	7	Sololá	710	Panajachel	8	Panajachel	1	Enero	2023-03-01T00:00:00	2024-11-08T10:00:00	4	Temperatura máxima	19.3
11655	7	Sololá	710	Panajachel	8	Panajachel	1	Enero	2023-03-01T00:00:00	2024-11-08T10:00:00	3	Temperatura mínima	17.9
11656	7	Sololá	710	Panajachel	8	Panajachel	1	Enero	2023-03-01T00:00:00	2024-11-08T10:00:00	5	Humedad	75
11657	7	Sololá	710	Panajachel	8	Panajachel	1	Enero	2023-03-01T00:00:00	2024-11-08T10:00:00	6	Velocidad del viento	1.6
11658	7	Sololá	710	Panajachel	8	Panajachel	1	Enero	2023-03-01T00:00:00	2024-11-08T10:00:00	7	Dirección del viento	1.61
11659	7	Sololá	710	Panajachel	8	Panajachel	1	Enero	2023-03-01T00:00:00	2024-11-08T10:00:00	1	Precipitación	0
11660	7	Sololá	710	Panajachel	8	Panajachel	1	Enero	2023-03-01T00:00:00	2024-11-08T10:00:00	8	Radiación solar	416
11661	7	Sololá	710	Panajachel	8	Panajachel	1	Enero	2023-03-01T00:00:00	2024-11-08T11:00:00	2	Temperatura media	20.8
11662	7	Sololá	710	Panajachel	8	Panajachel	1	Enero	2023-03-01T00:00:00	2024-11-08T11:00:00	4	Temperatura máxima	20.8
11663	7	Sololá	710	Panajachel	8	Panajachel	1	Enero	2023-03-01T00:00:00	2024-11-08T11:00:00	3	Temperatura mínima	19.3
11664	7	Sololá	710	Panajachel	8	Panajachel	1	Enero	2023-03-01T00:00:00	2024-11-08T11:00:00	5	Humedad	69
11665	7	Sololá	710	Panajachel	8	Panajachel	1	Enero	2023-03-01T00:00:00	2024-11-08T11:00:00	6	Velocidad del viento	4.8
11666	7	Sololá	710	Panajachel	8	Panajachel	1	Enero	2023-03-01T00:00:00	2024-11-08T11:00:00	7	Dirección del viento	4.83
11667	7	Sololá	710	Panajachel	8	Panajachel	1	Enero	2023-03-01T00:00:00	2024-11-08T11:00:00	1	Precipitación	0
11668	7	Sololá	710	Panajachel	8	Panajachel	1	Enero	2023-03-01T00:00:00	2024-11-08T11:00:00	8	Radiación solar	686
11669	7	Sololá	710	Panajachel	8	Panajachel	1	Enero	2023-03-01T00:00:00	2024-11-08T12:00:00	2	Temperatura media	21.1
11670	7	Sololá	710	Panajachel	8	Panajachel	1	Enero	2023-03-01T00:00:00	2024-11-08T12:00:00	4	Temperatura máxima	21.1
11671	7	Sololá	710	Panajachel	8	Panajachel	1	Enero	2023-03-01T00:00:00	2024-11-08T12:00:00	3	Temperatura mínima	20.4
11672	7	Sololá	710	Panajachel	8	Panajachel	1	Enero	2023-03-01T00:00:00	2024-11-08T12:00:00	5	Humedad	67
11673	7	Sololá	710	Panajachel	8	Panajachel	1	Enero	2023-03-01T00:00:00	2024-11-08T12:00:00	6	Velocidad del viento	1.6
11674	7	Sololá	710	Panajachel	8	Panajachel	1	Enero	2023-03-01T00:00:00	2024-11-08T12:00:00	7	Dirección del viento	1.61
11675	7	Sololá	710	Panajachel	8	Panajachel	1	Enero	2023-03-01T00:00:00	2024-11-08T12:00:00	1	Precipitación	0
11676	7	Sololá	710	Panajachel	8	Panajachel	1	Enero	2023-03-01T00:00:00	2024-11-08T12:00:00	8	Radiación solar	458
11677	7	Sololá	710	Panajachel	8	Panajachel	1	Enero	2023-03-01T00:00:00	2024-11-08T13:00:00	2	Temperatura media	22.4
11678	7	Sololá	710	Panajachel	8	Panajachel	1	Enero	2023-03-01T00:00:00	2024-11-08T13:00:00	4	Temperatura máxima	22.8
11679	7	Sololá	710	Panajachel	8	Panajachel	1	Enero	2023-03-01T00:00:00	2024-11-08T13:00:00	3	Temperatura mínima	20.6
11680	7	Sololá	710	Panajachel	8	Panajachel	1	Enero	2023-03-01T00:00:00	2024-11-08T13:00:00	5	Humedad	68
11681	7	Sololá	710	Panajachel	8	Panajachel	1	Enero	2023-03-01T00:00:00	2024-11-08T13:00:00	6	Velocidad del viento	3.2
11682	7	Sololá	710	Panajachel	8	Panajachel	1	Enero	2023-03-01T00:00:00	2024-11-08T13:00:00	7	Dirección del viento	3.22
11683	7	Sololá	710	Panajachel	8	Panajachel	1	Enero	2023-03-01T00:00:00	2024-11-08T13:00:00	1	Precipitación	0
11684	7	Sololá	710	Panajachel	8	Panajachel	1	Enero	2023-03-01T00:00:00	2024-11-08T13:00:00	8	Radiación solar	664
11685	7	Sololá	710	Panajachel	8	Panajachel	1	Enero	2023-03-01T00:00:00	2024-11-08T14:00:00	2	Temperatura media	23.2
11686	7	Sololá	710	Panajachel	8	Panajachel	1	Enero	2023-03-01T00:00:00	2024-11-08T14:00:00	4	Temperatura máxima	23.2
11687	7	Sololá	710	Panajachel	8	Panajachel	1	Enero	2023-03-01T00:00:00	2024-11-08T14:00:00	3	Temperatura mínima	22.1
11688	7	Sololá	710	Panajachel	8	Panajachel	1	Enero	2023-03-01T00:00:00	2024-11-08T14:00:00	5	Humedad	62
11689	7	Sololá	710	Panajachel	8	Panajachel	1	Enero	2023-03-01T00:00:00	2024-11-08T14:00:00	6	Velocidad del viento	4.8
11690	7	Sololá	710	Panajachel	8	Panajachel	1	Enero	2023-03-01T00:00:00	2024-11-08T14:00:00	7	Dirección del viento	4.83
11691	7	Sololá	710	Panajachel	8	Panajachel	1	Enero	2023-03-01T00:00:00	2024-11-08T14:00:00	1	Precipitación	0
11692	7	Sololá	710	Panajachel	8	Panajachel	1	Enero	2023-03-01T00:00:00	2024-11-08T14:00:00	8	Radiación solar	646
11693	7	Sololá	710	Panajachel	8	Panajachel	1	Enero	2023-03-01T00:00:00	2024-11-08T15:00:00	2	Temperatura media	23.3
11694	7	Sololá	710	Panajachel	8	Panajachel	1	Enero	2023-03-01T00:00:00	2024-11-08T15:00:00	4	Temperatura máxima	23.5
11695	7	Sololá	710	Panajachel	8	Panajachel	1	Enero	2023-03-01T00:00:00	2024-11-08T15:00:00	3	Temperatura mínima	22.2
11696	7	Sololá	710	Panajachel	8	Panajachel	1	Enero	2023-03-01T00:00:00	2024-11-08T15:00:00	5	Humedad	66
11697	7	Sololá	710	Panajachel	8	Panajachel	1	Enero	2023-03-01T00:00:00	2024-11-08T15:00:00	6	Velocidad del viento	3.2
11698	7	Sololá	710	Panajachel	8	Panajachel	1	Enero	2023-03-01T00:00:00	2024-11-08T15:00:00	7	Dirección del viento	3.22
11699	7	Sololá	710	Panajachel	8	Panajachel	1	Enero	2023-03-01T00:00:00	2024-11-08T15:00:00	1	Precipitación	0
11700	7	Sololá	710	Panajachel	8	Panajachel	1	Enero	2023-03-01T00:00:00	2024-11-08T15:00:00	8	Radiación solar	471
11701	7	Sololá	710	Panajachel	8	Panajachel	1	Enero	2023-03-01T00:00:00	2024-11-08T16:00:00	2	Temperatura media	22.5
11702	7	Sololá	710	Panajachel	8	Panajachel	1	Enero	2023-03-01T00:00:00	2024-11-08T16:00:00	4	Temperatura máxima	23.7
11703	7	Sololá	710	Panajachel	8	Panajachel	1	Enero	2023-03-01T00:00:00	2024-11-08T16:00:00	3	Temperatura mínima	22.4
11704	7	Sololá	710	Panajachel	8	Panajachel	1	Enero	2023-03-01T00:00:00	2024-11-08T16:00:00	5	Humedad	77
11705	7	Sololá	710	Panajachel	8	Panajachel	1	Enero	2023-03-01T00:00:00	2024-11-08T16:00:00	6	Velocidad del viento	4.8
11706	7	Sololá	710	Panajachel	8	Panajachel	1	Enero	2023-03-01T00:00:00	2024-11-08T16:00:00	7	Dirección del viento	4.83
11707	7	Sololá	710	Panajachel	8	Panajachel	1	Enero	2023-03-01T00:00:00	2024-11-08T16:00:00	1	Precipitación	0
11708	7	Sololá	710	Panajachel	8	Panajachel	1	Enero	2023-03-01T00:00:00	2024-11-08T16:00:00	8	Radiación solar	388
11709	7	Sololá	710	Panajachel	8	Panajachel	1	Enero	2023-03-01T00:00:00	2024-11-08T17:00:00	2	Temperatura media	21.2
11710	7	Sololá	710	Panajachel	8	Panajachel	1	Enero	2023-03-01T00:00:00	2024-11-08T17:00:00	4	Temperatura máxima	22.5
11711	7	Sololá	710	Panajachel	8	Panajachel	1	Enero	2023-03-01T00:00:00	2024-11-08T17:00:00	3	Temperatura mínima	21.2
11712	7	Sololá	710	Panajachel	8	Panajachel	1	Enero	2023-03-01T00:00:00	2024-11-08T17:00:00	5	Humedad	82
11713	7	Sololá	710	Panajachel	8	Panajachel	1	Enero	2023-03-01T00:00:00	2024-11-08T17:00:00	6	Velocidad del viento	1.6
11714	7	Sololá	710	Panajachel	8	Panajachel	1	Enero	2023-03-01T00:00:00	2024-11-08T17:00:00	7	Dirección del viento	1.61
11715	7	Sololá	710	Panajachel	8	Panajachel	1	Enero	2023-03-01T00:00:00	2024-11-08T17:00:00	1	Precipitación	0
11716	7	Sololá	710	Panajachel	8	Panajachel	1	Enero	2023-03-01T00:00:00	2024-11-08T17:00:00	8	Radiación solar	140
11717	7	Sololá	710	Panajachel	8	Panajachel	1	Enero	2023-03-01T00:00:00	2024-11-08T18:00:00	2	Temperatura media	19.8
11718	7	Sololá	710	Panajachel	8	Panajachel	1	Enero	2023-03-01T00:00:00	2024-11-08T18:00:00	4	Temperatura máxima	21.2
11719	7	Sololá	710	Panajachel	8	Panajachel	1	Enero	2023-03-01T00:00:00	2024-11-08T18:00:00	3	Temperatura mínima	19.8
11720	7	Sololá	710	Panajachel	8	Panajachel	1	Enero	2023-03-01T00:00:00	2024-11-08T18:00:00	5	Humedad	86
11721	7	Sololá	710	Panajachel	8	Panajachel	1	Enero	2023-03-01T00:00:00	2024-11-08T18:00:00	6	Velocidad del viento	0
11722	7	Sololá	710	Panajachel	8	Panajachel	1	Enero	2023-03-01T00:00:00	2024-11-08T18:00:00	7	Dirección del viento	0
11723	7	Sololá	710	Panajachel	8	Panajachel	1	Enero	2023-03-01T00:00:00	2024-11-08T18:00:00	1	Precipitación	0
11724	7	Sololá	710	Panajachel	8	Panajachel	1	Enero	2023-03-01T00:00:00	2024-11-08T18:00:00	8	Radiación solar	21
11725	7	Sololá	710	Panajachel	8	Panajachel	1	Enero	2023-03-01T00:00:00	2024-11-08T19:00:00	2	Temperatura media	19.2
11726	7	Sololá	710	Panajachel	8	Panajachel	1	Enero	2023-03-01T00:00:00	2024-11-08T19:00:00	4	Temperatura máxima	19.8
11727	7	Sololá	710	Panajachel	8	Panajachel	1	Enero	2023-03-01T00:00:00	2024-11-08T19:00:00	3	Temperatura mínima	19.2
11728	7	Sololá	710	Panajachel	8	Panajachel	1	Enero	2023-03-01T00:00:00	2024-11-08T19:00:00	5	Humedad	88
11729	7	Sololá	710	Panajachel	8	Panajachel	1	Enero	2023-03-01T00:00:00	2024-11-08T19:00:00	6	Velocidad del viento	0
11730	7	Sololá	710	Panajachel	8	Panajachel	1	Enero	2023-03-01T00:00:00	2024-11-08T19:00:00	7	Dirección del viento	0
11731	7	Sololá	710	Panajachel	8	Panajachel	1	Enero	2023-03-01T00:00:00	2024-11-08T19:00:00	1	Precipitación	0
11732	7	Sololá	710	Panajachel	8	Panajachel	1	Enero	2023-03-01T00:00:00	2024-11-08T19:00:00	8	Radiación solar	0
11733	7	Sololá	710	Panajachel	8	Panajachel	1	Enero	2023-03-01T00:00:00	2024-11-08T20:00:00	2	Temperatura media	18.4
11734	7	Sololá	710	Panajachel	8	Panajachel	1	Enero	2023-03-01T00:00:00	2024-11-08T20:00:00	4	Temperatura máxima	19.2
11735	7	Sololá	710	Panajachel	8	Panajachel	1	Enero	2023-03-01T00:00:00	2024-11-08T20:00:00	3	Temperatura mínima	18.4
11736	7	Sololá	710	Panajachel	8	Panajachel	1	Enero	2023-03-01T00:00:00	2024-11-08T20:00:00	5	Humedad	87
11737	7	Sololá	710	Panajachel	8	Panajachel	1	Enero	2023-03-01T00:00:00	2024-11-08T20:00:00	6	Velocidad del viento	0
11738	7	Sololá	710	Panajachel	8	Panajachel	1	Enero	2023-03-01T00:00:00	2024-11-08T20:00:00	7	Dirección del viento	0
11739	7	Sololá	710	Panajachel	8	Panajachel	1	Enero	2023-03-01T00:00:00	2024-11-08T20:00:00	1	Precipitación	0
11740	7	Sololá	710	Panajachel	8	Panajachel	1	Enero	2023-03-01T00:00:00	2024-11-08T20:00:00	8	Radiación solar	0
11741	7	Sololá	710	Panajachel	8	Panajachel	1	Enero	2023-03-01T00:00:00	2024-11-08T21:00:00	2	Temperatura media	17.4
11742	7	Sololá	710	Panajachel	8	Panajachel	1	Enero	2023-03-01T00:00:00	2024-11-08T21:00:00	4	Temperatura máxima	18.4
11743	7	Sololá	710	Panajachel	8	Panajachel	1	Enero	2023-03-01T00:00:00	2024-11-08T21:00:00	3	Temperatura mínima	17.4
11744	7	Sololá	710	Panajachel	8	Panajachel	1	Enero	2023-03-01T00:00:00	2024-11-08T21:00:00	5	Humedad	86
11745	7	Sololá	710	Panajachel	8	Panajachel	1	Enero	2023-03-01T00:00:00	2024-11-08T21:00:00	6	Velocidad del viento	3.2
11746	7	Sololá	710	Panajachel	8	Panajachel	1	Enero	2023-03-01T00:00:00	2024-11-08T21:00:00	7	Dirección del viento	3.22
11747	7	Sololá	710	Panajachel	8	Panajachel	1	Enero	2023-03-01T00:00:00	2024-11-08T21:00:00	1	Precipitación	0
11748	7	Sololá	710	Panajachel	8	Panajachel	1	Enero	2023-03-01T00:00:00	2024-11-08T21:00:00	8	Radiación solar	0
11749	7	Sololá	710	Panajachel	8	Panajachel	1	Enero	2023-03-01T00:00:00	2024-11-08T22:00:00	2	Temperatura media	17
11750	7	Sololá	710	Panajachel	8	Panajachel	1	Enero	2023-03-01T00:00:00	2024-11-08T22:00:00	4	Temperatura máxima	17.4
11751	7	Sololá	710	Panajachel	8	Panajachel	1	Enero	2023-03-01T00:00:00	2024-11-08T22:00:00	3	Temperatura mínima	16.9
11752	7	Sololá	710	Panajachel	8	Panajachel	1	Enero	2023-03-01T00:00:00	2024-11-08T22:00:00	5	Humedad	85
11753	7	Sololá	710	Panajachel	8	Panajachel	1	Enero	2023-03-01T00:00:00	2024-11-08T22:00:00	6	Velocidad del viento	4.8
11754	7	Sololá	710	Panajachel	8	Panajachel	1	Enero	2023-03-01T00:00:00	2024-11-08T22:00:00	7	Dirección del viento	4.83
11755	7	Sololá	710	Panajachel	8	Panajachel	1	Enero	2023-03-01T00:00:00	2024-11-08T22:00:00	1	Precipitación	0
11756	7	Sololá	710	Panajachel	8	Panajachel	1	Enero	2023-03-01T00:00:00	2024-11-08T22:00:00	8	Radiación solar	0
11757	7	Sololá	710	Panajachel	8	Panajachel	1	Enero	2023-03-01T00:00:00	2024-11-08T23:00:00	2	Temperatura media	16.3
11758	7	Sololá	710	Panajachel	8	Panajachel	1	Enero	2023-03-01T00:00:00	2024-11-08T23:00:00	4	Temperatura máxima	17
11759	7	Sololá	710	Panajachel	8	Panajachel	1	Enero	2023-03-01T00:00:00	2024-11-08T23:00:00	3	Temperatura mínima	16.1
11760	7	Sololá	710	Panajachel	8	Panajachel	1	Enero	2023-03-01T00:00:00	2024-11-08T23:00:00	5	Humedad	85
11761	7	Sololá	710	Panajachel	8	Panajachel	1	Enero	2023-03-01T00:00:00	2024-11-08T23:00:00	6	Velocidad del viento	6.4
11762	7	Sololá	710	Panajachel	8	Panajachel	1	Enero	2023-03-01T00:00:00	2024-11-08T23:00:00	7	Dirección del viento	6.44
11763	7	Sololá	710	Panajachel	8	Panajachel	1	Enero	2023-03-01T00:00:00	2024-11-08T23:00:00	1	Precipitación	0
11764	7	Sololá	710	Panajachel	8	Panajachel	1	Enero	2023-03-01T00:00:00	2024-11-08T23:00:00	8	Radiación solar	0
11765	7	Sololá	710	Panajachel	8	Panajachel	1	Enero	2023-04-01T00:00:00	2024-11-08T00:00:00	2	Temperatura media	15.6
11766	7	Sololá	710	Panajachel	8	Panajachel	1	Enero	2023-04-01T00:00:00	2024-11-08T00:00:00	4	Temperatura máxima	16.3
11767	7	Sololá	710	Panajachel	8	Panajachel	1	Enero	2023-04-01T00:00:00	2024-11-08T00:00:00	3	Temperatura mínima	15.6
11768	7	Sololá	710	Panajachel	8	Panajachel	1	Enero	2023-04-01T00:00:00	2024-11-08T00:00:00	5	Humedad	85
11769	7	Sololá	710	Panajachel	8	Panajachel	1	Enero	2023-04-01T00:00:00	2024-11-08T00:00:00	6	Velocidad del viento	4.8
11770	7	Sololá	710	Panajachel	8	Panajachel	1	Enero	2023-04-01T00:00:00	2024-11-08T00:00:00	7	Dirección del viento	4.83
11771	7	Sololá	710	Panajachel	8	Panajachel	1	Enero	2023-04-01T00:00:00	2024-11-08T00:00:00	1	Precipitación	0
11772	7	Sololá	710	Panajachel	8	Panajachel	1	Enero	2023-04-01T00:00:00	2024-11-08T00:00:00	8	Radiación solar	0
11773	7	Sololá	710	Panajachel	8	Panajachel	1	Enero	2023-04-01T00:00:00	2024-11-08T01:00:00	2	Temperatura media	15.3
11774	7	Sololá	710	Panajachel	8	Panajachel	1	Enero	2023-04-01T00:00:00	2024-11-08T01:00:00	4	Temperatura máxima	15.8
11775	7	Sololá	710	Panajachel	8	Panajachel	1	Enero	2023-04-01T00:00:00	2024-11-08T01:00:00	3	Temperatura mínima	15.2
11776	7	Sololá	710	Panajachel	8	Panajachel	1	Enero	2023-04-01T00:00:00	2024-11-08T01:00:00	5	Humedad	85
11777	7	Sololá	710	Panajachel	8	Panajachel	1	Enero	2023-04-01T00:00:00	2024-11-08T01:00:00	6	Velocidad del viento	6.4
11778	7	Sololá	710	Panajachel	8	Panajachel	1	Enero	2023-04-01T00:00:00	2024-11-08T01:00:00	7	Dirección del viento	6.44
11779	7	Sololá	710	Panajachel	8	Panajachel	1	Enero	2023-04-01T00:00:00	2024-11-08T01:00:00	1	Precipitación	0
11780	7	Sololá	710	Panajachel	8	Panajachel	1	Enero	2023-04-01T00:00:00	2024-11-08T01:00:00	8	Radiación solar	0
11781	7	Sololá	710	Panajachel	8	Panajachel	1	Enero	2023-04-01T00:00:00	2024-11-08T02:00:00	2	Temperatura media	15.2
11782	7	Sololá	710	Panajachel	8	Panajachel	1	Enero	2023-04-01T00:00:00	2024-11-08T02:00:00	4	Temperatura máxima	15.4
11783	7	Sololá	710	Panajachel	8	Panajachel	1	Enero	2023-04-01T00:00:00	2024-11-08T02:00:00	3	Temperatura mínima	15.2
11784	7	Sololá	710	Panajachel	8	Panajachel	1	Enero	2023-04-01T00:00:00	2024-11-08T02:00:00	5	Humedad	85
11785	7	Sololá	710	Panajachel	8	Panajachel	1	Enero	2023-04-01T00:00:00	2024-11-08T02:00:00	6	Velocidad del viento	4.8
11786	7	Sololá	710	Panajachel	8	Panajachel	1	Enero	2023-04-01T00:00:00	2024-11-08T02:00:00	7	Dirección del viento	4.83
11787	7	Sololá	710	Panajachel	8	Panajachel	1	Enero	2023-04-01T00:00:00	2024-11-08T02:00:00	1	Precipitación	0
11788	7	Sololá	710	Panajachel	8	Panajachel	1	Enero	2023-04-01T00:00:00	2024-11-08T02:00:00	8	Radiación solar	0
11789	7	Sololá	710	Panajachel	8	Panajachel	1	Enero	2023-04-01T00:00:00	2024-11-08T03:00:00	2	Temperatura media	15.3
11790	7	Sololá	710	Panajachel	8	Panajachel	1	Enero	2023-04-01T00:00:00	2024-11-08T03:00:00	4	Temperatura máxima	15.3
11791	7	Sololá	710	Panajachel	8	Panajachel	1	Enero	2023-04-01T00:00:00	2024-11-08T03:00:00	3	Temperatura mínima	15
11792	7	Sololá	710	Panajachel	8	Panajachel	1	Enero	2023-04-01T00:00:00	2024-11-08T03:00:00	5	Humedad	82
11793	7	Sololá	710	Panajachel	8	Panajachel	1	Enero	2023-04-01T00:00:00	2024-11-08T03:00:00	6	Velocidad del viento	4.8
11794	7	Sololá	710	Panajachel	8	Panajachel	1	Enero	2023-04-01T00:00:00	2024-11-08T03:00:00	7	Dirección del viento	4.83
11795	7	Sololá	710	Panajachel	8	Panajachel	1	Enero	2023-04-01T00:00:00	2024-11-08T03:00:00	1	Precipitación	0
11796	7	Sololá	710	Panajachel	8	Panajachel	1	Enero	2023-04-01T00:00:00	2024-11-08T03:00:00	8	Radiación solar	0
11797	7	Sololá	710	Panajachel	8	Panajachel	1	Enero	2023-04-01T00:00:00	2024-11-08T04:00:00	2	Temperatura media	14.5
11798	7	Sololá	710	Panajachel	8	Panajachel	1	Enero	2023-04-01T00:00:00	2024-11-08T04:00:00	4	Temperatura máxima	15.3
11799	7	Sololá	710	Panajachel	8	Panajachel	1	Enero	2023-04-01T00:00:00	2024-11-08T04:00:00	3	Temperatura mínima	14.4
11800	7	Sololá	710	Panajachel	8	Panajachel	1	Enero	2023-04-01T00:00:00	2024-11-08T04:00:00	5	Humedad	83
11801	7	Sololá	710	Panajachel	8	Panajachel	1	Enero	2023-04-01T00:00:00	2024-11-08T04:00:00	6	Velocidad del viento	3.2
11802	7	Sololá	710	Panajachel	8	Panajachel	1	Enero	2023-04-01T00:00:00	2024-11-08T04:00:00	7	Dirección del viento	3.22
11803	7	Sololá	710	Panajachel	8	Panajachel	1	Enero	2023-04-01T00:00:00	2024-11-08T04:00:00	1	Precipitación	0
11804	7	Sololá	710	Panajachel	8	Panajachel	1	Enero	2023-04-01T00:00:00	2024-11-08T04:00:00	8	Radiación solar	0
11805	7	Sololá	710	Panajachel	8	Panajachel	1	Enero	2023-04-01T00:00:00	2024-11-08T05:00:00	2	Temperatura media	14.4
11806	7	Sololá	710	Panajachel	8	Panajachel	1	Enero	2023-04-01T00:00:00	2024-11-08T05:00:00	4	Temperatura máxima	14.7
11807	7	Sololá	710	Panajachel	8	Panajachel	1	Enero	2023-04-01T00:00:00	2024-11-08T05:00:00	3	Temperatura mínima	14.3
11808	7	Sololá	710	Panajachel	8	Panajachel	1	Enero	2023-04-01T00:00:00	2024-11-08T05:00:00	5	Humedad	82
11809	7	Sololá	710	Panajachel	8	Panajachel	1	Enero	2023-04-01T00:00:00	2024-11-08T05:00:00	6	Velocidad del viento	4.8
11810	7	Sololá	710	Panajachel	8	Panajachel	1	Enero	2023-04-01T00:00:00	2024-11-08T05:00:00	7	Dirección del viento	4.83
11811	7	Sololá	710	Panajachel	8	Panajachel	1	Enero	2023-04-01T00:00:00	2024-11-08T05:00:00	1	Precipitación	0
11812	7	Sololá	710	Panajachel	8	Panajachel	1	Enero	2023-04-01T00:00:00	2024-11-08T05:00:00	8	Radiación solar	0
11813	7	Sololá	710	Panajachel	8	Panajachel	1	Enero	2023-04-01T00:00:00	2024-11-08T06:00:00	2	Temperatura media	13.8
11814	7	Sololá	710	Panajachel	8	Panajachel	1	Enero	2023-04-01T00:00:00	2024-11-08T06:00:00	4	Temperatura máxima	14.4
11815	7	Sololá	710	Panajachel	8	Panajachel	1	Enero	2023-04-01T00:00:00	2024-11-08T06:00:00	3	Temperatura mínima	13.8
11816	7	Sololá	710	Panajachel	8	Panajachel	1	Enero	2023-04-01T00:00:00	2024-11-08T06:00:00	5	Humedad	84
11817	7	Sololá	710	Panajachel	8	Panajachel	1	Enero	2023-04-01T00:00:00	2024-11-08T06:00:00	6	Velocidad del viento	3.2
11818	7	Sololá	710	Panajachel	8	Panajachel	1	Enero	2023-04-01T00:00:00	2024-11-08T06:00:00	7	Dirección del viento	3.22
11819	7	Sololá	710	Panajachel	8	Panajachel	1	Enero	2023-04-01T00:00:00	2024-11-08T06:00:00	1	Precipitación	0
11820	7	Sololá	710	Panajachel	8	Panajachel	1	Enero	2023-04-01T00:00:00	2024-11-08T06:00:00	8	Radiación solar	0
11821	7	Sololá	710	Panajachel	8	Panajachel	1	Enero	2023-04-01T00:00:00	2024-11-08T07:00:00	2	Temperatura media	13.6
11822	7	Sololá	710	Panajachel	8	Panajachel	1	Enero	2023-04-01T00:00:00	2024-11-08T07:00:00	4	Temperatura máxima	13.8
11823	7	Sololá	710	Panajachel	8	Panajachel	1	Enero	2023-04-01T00:00:00	2024-11-08T07:00:00	3	Temperatura mínima	13.4
11824	7	Sololá	710	Panajachel	8	Panajachel	1	Enero	2023-04-01T00:00:00	2024-11-08T07:00:00	5	Humedad	84
11825	7	Sololá	710	Panajachel	8	Panajachel	1	Enero	2023-04-01T00:00:00	2024-11-08T07:00:00	6	Velocidad del viento	1.6
11826	7	Sololá	710	Panajachel	8	Panajachel	1	Enero	2023-04-01T00:00:00	2024-11-08T07:00:00	7	Dirección del viento	1.61
11827	7	Sololá	710	Panajachel	8	Panajachel	1	Enero	2023-04-01T00:00:00	2024-11-08T07:00:00	1	Precipitación	0
11828	7	Sololá	710	Panajachel	8	Panajachel	1	Enero	2023-04-01T00:00:00	2024-11-08T07:00:00	8	Radiación solar	4
11829	7	Sololá	710	Panajachel	8	Panajachel	1	Enero	2023-04-01T00:00:00	2024-11-08T08:00:00	2	Temperatura media	15
11830	7	Sololá	710	Panajachel	8	Panajachel	1	Enero	2023-04-01T00:00:00	2024-11-08T08:00:00	4	Temperatura máxima	15.1
11831	7	Sololá	710	Panajachel	8	Panajachel	1	Enero	2023-04-01T00:00:00	2024-11-08T08:00:00	3	Temperatura mínima	13.4
11832	7	Sololá	710	Panajachel	8	Panajachel	1	Enero	2023-04-01T00:00:00	2024-11-08T08:00:00	5	Humedad	81
11833	7	Sololá	710	Panajachel	8	Panajachel	1	Enero	2023-04-01T00:00:00	2024-11-08T08:00:00	6	Velocidad del viento	1.6
11834	7	Sololá	710	Panajachel	8	Panajachel	1	Enero	2023-04-01T00:00:00	2024-11-08T08:00:00	7	Dirección del viento	1.61
11835	7	Sololá	710	Panajachel	8	Panajachel	1	Enero	2023-04-01T00:00:00	2024-11-08T08:00:00	1	Precipitación	0
11836	7	Sololá	710	Panajachel	8	Panajachel	1	Enero	2023-04-01T00:00:00	2024-11-08T08:00:00	8	Radiación solar	52
11837	7	Sololá	710	Panajachel	8	Panajachel	1	Enero	2023-04-01T00:00:00	2024-11-08T09:00:00	2	Temperatura media	18.6
11838	7	Sololá	710	Panajachel	8	Panajachel	1	Enero	2023-04-01T00:00:00	2024-11-08T09:00:00	4	Temperatura máxima	18.6
11839	7	Sololá	710	Panajachel	8	Panajachel	1	Enero	2023-04-01T00:00:00	2024-11-08T09:00:00	3	Temperatura mínima	15.1
11840	7	Sololá	710	Panajachel	8	Panajachel	1	Enero	2023-04-01T00:00:00	2024-11-08T09:00:00	5	Humedad	77
11841	7	Sololá	710	Panajachel	8	Panajachel	1	Enero	2023-04-01T00:00:00	2024-11-08T09:00:00	6	Velocidad del viento	1.6
11842	7	Sololá	710	Panajachel	8	Panajachel	1	Enero	2023-04-01T00:00:00	2024-11-08T09:00:00	7	Dirección del viento	1.61
11843	7	Sololá	710	Panajachel	8	Panajachel	1	Enero	2023-04-01T00:00:00	2024-11-08T09:00:00	1	Precipitación	0
11844	7	Sololá	710	Panajachel	8	Panajachel	1	Enero	2023-04-01T00:00:00	2024-11-08T09:00:00	8	Radiación solar	354
11845	7	Sololá	710	Panajachel	8	Panajachel	1	Enero	2023-04-01T00:00:00	2024-11-08T10:00:00	2	Temperatura media	19.7
11846	7	Sololá	710	Panajachel	8	Panajachel	1	Enero	2023-04-01T00:00:00	2024-11-08T10:00:00	4	Temperatura máxima	19.7
11847	7	Sololá	710	Panajachel	8	Panajachel	1	Enero	2023-04-01T00:00:00	2024-11-08T10:00:00	3	Temperatura mínima	18.5
11848	7	Sololá	710	Panajachel	8	Panajachel	1	Enero	2023-04-01T00:00:00	2024-11-08T10:00:00	5	Humedad	78
11849	7	Sololá	710	Panajachel	8	Panajachel	1	Enero	2023-04-01T00:00:00	2024-11-08T10:00:00	6	Velocidad del viento	3.2
11850	7	Sololá	710	Panajachel	8	Panajachel	1	Enero	2023-04-01T00:00:00	2024-11-08T10:00:00	7	Dirección del viento	3.22
11851	7	Sololá	710	Panajachel	8	Panajachel	1	Enero	2023-04-01T00:00:00	2024-11-08T10:00:00	1	Precipitación	0
11852	7	Sololá	710	Panajachel	8	Panajachel	1	Enero	2023-04-01T00:00:00	2024-11-08T10:00:00	8	Radiación solar	541
11853	7	Sololá	710	Panajachel	8	Panajachel	1	Enero	2023-04-01T00:00:00	2024-11-08T11:00:00	2	Temperatura media	21
11854	7	Sololá	710	Panajachel	8	Panajachel	1	Enero	2023-04-01T00:00:00	2024-11-08T11:00:00	4	Temperatura máxima	21
11855	7	Sololá	710	Panajachel	8	Panajachel	1	Enero	2023-04-01T00:00:00	2024-11-08T11:00:00	3	Temperatura mínima	19.6
11856	7	Sololá	710	Panajachel	8	Panajachel	1	Enero	2023-04-01T00:00:00	2024-11-08T11:00:00	5	Humedad	72
11857	7	Sololá	710	Panajachel	8	Panajachel	1	Enero	2023-04-01T00:00:00	2024-11-08T11:00:00	6	Velocidad del viento	4.8
11858	7	Sololá	710	Panajachel	8	Panajachel	1	Enero	2023-04-01T00:00:00	2024-11-08T11:00:00	7	Dirección del viento	4.83
11859	7	Sololá	710	Panajachel	8	Panajachel	1	Enero	2023-04-01T00:00:00	2024-11-08T11:00:00	1	Precipitación	0
11860	7	Sololá	710	Panajachel	8	Panajachel	1	Enero	2023-04-01T00:00:00	2024-11-08T11:00:00	8	Radiación solar	689
11861	7	Sololá	710	Panajachel	8	Panajachel	1	Enero	2023-04-01T00:00:00	2024-11-08T12:00:00	2	Temperatura media	22.1
11862	7	Sololá	710	Panajachel	8	Panajachel	1	Enero	2023-04-01T00:00:00	2024-11-08T12:00:00	4	Temperatura máxima	22.1
11863	7	Sololá	710	Panajachel	8	Panajachel	1	Enero	2023-04-01T00:00:00	2024-11-08T12:00:00	3	Temperatura mínima	20.8
11864	7	Sololá	710	Panajachel	8	Panajachel	1	Enero	2023-04-01T00:00:00	2024-11-08T12:00:00	5	Humedad	71
11865	7	Sololá	710	Panajachel	8	Panajachel	1	Enero	2023-04-01T00:00:00	2024-11-08T12:00:00	6	Velocidad del viento	3.2
11866	7	Sololá	710	Panajachel	8	Panajachel	1	Enero	2023-04-01T00:00:00	2024-11-08T12:00:00	7	Dirección del viento	3.22
11867	7	Sololá	710	Panajachel	8	Panajachel	1	Enero	2023-04-01T00:00:00	2024-11-08T12:00:00	1	Precipitación	0
11868	7	Sololá	710	Panajachel	8	Panajachel	1	Enero	2023-04-01T00:00:00	2024-11-08T12:00:00	8	Radiación solar	763
11869	7	Sololá	710	Panajachel	8	Panajachel	1	Enero	2023-04-01T00:00:00	2024-11-08T13:00:00	2	Temperatura media	23.1
11870	7	Sololá	710	Panajachel	8	Panajachel	1	Enero	2023-04-01T00:00:00	2024-11-08T13:00:00	4	Temperatura máxima	23.8
11871	7	Sololá	710	Panajachel	8	Panajachel	1	Enero	2023-04-01T00:00:00	2024-11-08T13:00:00	3	Temperatura mínima	22.1
11872	7	Sololá	710	Panajachel	8	Panajachel	1	Enero	2023-04-01T00:00:00	2024-11-08T13:00:00	5	Humedad	73
11873	7	Sololá	710	Panajachel	8	Panajachel	1	Enero	2023-04-01T00:00:00	2024-11-08T13:00:00	6	Velocidad del viento	4.8
11874	7	Sololá	710	Panajachel	8	Panajachel	1	Enero	2023-04-01T00:00:00	2024-11-08T13:00:00	7	Dirección del viento	4.83
11875	7	Sololá	710	Panajachel	8	Panajachel	1	Enero	2023-04-01T00:00:00	2024-11-08T13:00:00	1	Precipitación	0
11876	7	Sololá	710	Panajachel	8	Panajachel	1	Enero	2023-04-01T00:00:00	2024-11-08T13:00:00	8	Radiación solar	765
11877	7	Sololá	710	Panajachel	8	Panajachel	1	Enero	2023-04-01T00:00:00	2024-11-08T14:00:00	2	Temperatura media	23.8
11878	7	Sololá	710	Panajachel	8	Panajachel	1	Enero	2023-04-01T00:00:00	2024-11-08T14:00:00	4	Temperatura máxima	23.8
11879	7	Sololá	710	Panajachel	8	Panajachel	1	Enero	2023-04-01T00:00:00	2024-11-08T14:00:00	3	Temperatura mínima	23.1
11880	7	Sololá	710	Panajachel	8	Panajachel	1	Enero	2023-04-01T00:00:00	2024-11-08T14:00:00	5	Humedad	75
11881	7	Sololá	710	Panajachel	8	Panajachel	1	Enero	2023-04-01T00:00:00	2024-11-08T14:00:00	6	Velocidad del viento	4.8
11882	7	Sololá	710	Panajachel	8	Panajachel	1	Enero	2023-04-01T00:00:00	2024-11-08T14:00:00	7	Dirección del viento	4.83
11883	7	Sololá	710	Panajachel	8	Panajachel	1	Enero	2023-04-01T00:00:00	2024-11-08T14:00:00	1	Precipitación	0
11884	7	Sololá	710	Panajachel	8	Panajachel	1	Enero	2023-04-01T00:00:00	2024-11-08T14:00:00	8	Radiación solar	710
11885	7	Sololá	710	Panajachel	8	Panajachel	1	Enero	2023-04-01T00:00:00	2024-11-08T15:00:00	2	Temperatura media	22.9
11886	7	Sololá	710	Panajachel	8	Panajachel	1	Enero	2023-04-01T00:00:00	2024-11-08T15:00:00	4	Temperatura máxima	24.1
11887	7	Sololá	710	Panajachel	8	Panajachel	1	Enero	2023-04-01T00:00:00	2024-11-08T15:00:00	3	Temperatura mínima	22.8
11888	7	Sololá	710	Panajachel	8	Panajachel	1	Enero	2023-04-01T00:00:00	2024-11-08T15:00:00	5	Humedad	77
11889	7	Sololá	710	Panajachel	8	Panajachel	1	Enero	2023-04-01T00:00:00	2024-11-08T15:00:00	6	Velocidad del viento	4.8
11890	7	Sololá	710	Panajachel	8	Panajachel	1	Enero	2023-04-01T00:00:00	2024-11-08T15:00:00	7	Dirección del viento	4.83
11891	7	Sololá	710	Panajachel	8	Panajachel	1	Enero	2023-04-01T00:00:00	2024-11-08T15:00:00	1	Precipitación	0
11892	7	Sololá	710	Panajachel	8	Panajachel	1	Enero	2023-04-01T00:00:00	2024-11-08T15:00:00	8	Radiación solar	592
11893	7	Sololá	710	Panajachel	8	Panajachel	1	Enero	2023-04-01T00:00:00	2024-11-08T16:00:00	2	Temperatura media	22.8
11894	7	Sololá	710	Panajachel	8	Panajachel	1	Enero	2023-04-01T00:00:00	2024-11-08T16:00:00	4	Temperatura máxima	22.9
11895	7	Sololá	710	Panajachel	8	Panajachel	1	Enero	2023-04-01T00:00:00	2024-11-08T16:00:00	3	Temperatura mínima	22.5
11896	7	Sololá	710	Panajachel	8	Panajachel	1	Enero	2023-04-01T00:00:00	2024-11-08T16:00:00	5	Humedad	76
11897	7	Sololá	710	Panajachel	8	Panajachel	1	Enero	2023-04-01T00:00:00	2024-11-08T16:00:00	6	Velocidad del viento	3.2
11898	7	Sololá	710	Panajachel	8	Panajachel	1	Enero	2023-04-01T00:00:00	2024-11-08T16:00:00	7	Dirección del viento	3.22
11899	7	Sololá	710	Panajachel	8	Panajachel	1	Enero	2023-04-01T00:00:00	2024-11-08T16:00:00	1	Precipitación	0
11900	7	Sololá	710	Panajachel	8	Panajachel	1	Enero	2023-04-01T00:00:00	2024-11-08T16:00:00	8	Radiación solar	407
11901	7	Sololá	710	Panajachel	8	Panajachel	1	Enero	2023-04-01T00:00:00	2024-11-08T17:00:00	2	Temperatura media	22.3
11902	7	Sololá	710	Panajachel	8	Panajachel	1	Enero	2023-04-01T00:00:00	2024-11-08T17:00:00	4	Temperatura máxima	22.8
11903	7	Sololá	710	Panajachel	8	Panajachel	1	Enero	2023-04-01T00:00:00	2024-11-08T17:00:00	3	Temperatura mínima	21.9
11904	7	Sololá	710	Panajachel	8	Panajachel	1	Enero	2023-04-01T00:00:00	2024-11-08T17:00:00	5	Humedad	79
11905	7	Sololá	710	Panajachel	8	Panajachel	1	Enero	2023-04-01T00:00:00	2024-11-08T17:00:00	6	Velocidad del viento	3.2
11906	7	Sololá	710	Panajachel	8	Panajachel	1	Enero	2023-04-01T00:00:00	2024-11-08T17:00:00	7	Dirección del viento	3.22
11907	7	Sololá	710	Panajachel	8	Panajachel	1	Enero	2023-04-01T00:00:00	2024-11-08T17:00:00	1	Precipitación	0
11908	7	Sololá	710	Panajachel	8	Panajachel	1	Enero	2023-04-01T00:00:00	2024-11-08T17:00:00	8	Radiación solar	180
11909	7	Sololá	710	Panajachel	8	Panajachel	1	Enero	2023-04-01T00:00:00	2024-11-08T18:00:00	2	Temperatura media	20.3
11910	7	Sololá	710	Panajachel	8	Panajachel	1	Enero	2023-04-01T00:00:00	2024-11-08T18:00:00	4	Temperatura máxima	22.3
11911	7	Sololá	710	Panajachel	8	Panajachel	1	Enero	2023-04-01T00:00:00	2024-11-08T18:00:00	3	Temperatura mínima	20.3
11912	7	Sololá	710	Panajachel	8	Panajachel	1	Enero	2023-04-01T00:00:00	2024-11-08T18:00:00	5	Humedad	84
11913	7	Sololá	710	Panajachel	8	Panajachel	1	Enero	2023-04-01T00:00:00	2024-11-08T18:00:00	6	Velocidad del viento	0
11914	7	Sololá	710	Panajachel	8	Panajachel	1	Enero	2023-04-01T00:00:00	2024-11-08T18:00:00	7	Dirección del viento	0
11915	7	Sololá	710	Panajachel	8	Panajachel	1	Enero	2023-04-01T00:00:00	2024-11-08T18:00:00	1	Precipitación	0
11916	7	Sololá	710	Panajachel	8	Panajachel	1	Enero	2023-04-01T00:00:00	2024-11-08T18:00:00	8	Radiación solar	30
11917	7	Sololá	710	Panajachel	8	Panajachel	1	Enero	2023-04-01T00:00:00	2024-11-08T19:00:00	2	Temperatura media	18.2
11918	7	Sololá	710	Panajachel	8	Panajachel	1	Enero	2023-04-01T00:00:00	2024-11-08T19:00:00	4	Temperatura máxima	20.3
11919	7	Sololá	710	Panajachel	8	Panajachel	1	Enero	2023-04-01T00:00:00	2024-11-08T19:00:00	3	Temperatura mínima	18.2
11920	7	Sololá	710	Panajachel	8	Panajachel	1	Enero	2023-04-01T00:00:00	2024-11-08T19:00:00	5	Humedad	84
11921	7	Sololá	710	Panajachel	8	Panajachel	1	Enero	2023-04-01T00:00:00	2024-11-08T19:00:00	6	Velocidad del viento	0
11922	7	Sololá	710	Panajachel	8	Panajachel	1	Enero	2023-04-01T00:00:00	2024-11-08T19:00:00	7	Dirección del viento	0
11923	7	Sololá	710	Panajachel	8	Panajachel	1	Enero	2023-04-01T00:00:00	2024-11-08T19:00:00	1	Precipitación	0
11924	7	Sololá	710	Panajachel	8	Panajachel	1	Enero	2023-04-01T00:00:00	2024-11-08T19:00:00	8	Radiación solar	0
11925	7	Sololá	710	Panajachel	8	Panajachel	1	Enero	2023-04-01T00:00:00	2024-11-08T20:00:00	2	Temperatura media	16.7
11926	7	Sololá	710	Panajachel	8	Panajachel	1	Enero	2023-04-01T00:00:00	2024-11-08T20:00:00	4	Temperatura máxima	18.1
11927	7	Sololá	710	Panajachel	8	Panajachel	1	Enero	2023-04-01T00:00:00	2024-11-08T20:00:00	3	Temperatura mínima	16.7
11928	7	Sololá	710	Panajachel	8	Panajachel	1	Enero	2023-04-01T00:00:00	2024-11-08T20:00:00	5	Humedad	77
11929	7	Sololá	710	Panajachel	8	Panajachel	1	Enero	2023-04-01T00:00:00	2024-11-08T20:00:00	6	Velocidad del viento	3.2
11930	7	Sololá	710	Panajachel	8	Panajachel	1	Enero	2023-04-01T00:00:00	2024-11-08T20:00:00	7	Dirección del viento	3.22
11931	7	Sololá	710	Panajachel	8	Panajachel	1	Enero	2023-04-01T00:00:00	2024-11-08T20:00:00	1	Precipitación	0
11932	7	Sololá	710	Panajachel	8	Panajachel	1	Enero	2023-04-01T00:00:00	2024-11-08T20:00:00	8	Radiación solar	0
11933	7	Sololá	710	Panajachel	8	Panajachel	1	Enero	2023-04-01T00:00:00	2024-11-08T21:00:00	2	Temperatura media	16.2
11934	7	Sololá	710	Panajachel	8	Panajachel	1	Enero	2023-04-01T00:00:00	2024-11-08T21:00:00	4	Temperatura máxima	16.7
11935	7	Sololá	710	Panajachel	8	Panajachel	1	Enero	2023-04-01T00:00:00	2024-11-08T21:00:00	3	Temperatura mínima	16.2
11936	7	Sololá	710	Panajachel	8	Panajachel	1	Enero	2023-04-01T00:00:00	2024-11-08T21:00:00	5	Humedad	71
11937	7	Sololá	710	Panajachel	8	Panajachel	1	Enero	2023-04-01T00:00:00	2024-11-08T21:00:00	6	Velocidad del viento	4.8
11938	7	Sololá	710	Panajachel	8	Panajachel	1	Enero	2023-04-01T00:00:00	2024-11-08T21:00:00	7	Dirección del viento	4.83
11939	7	Sololá	710	Panajachel	8	Panajachel	1	Enero	2023-04-01T00:00:00	2024-11-08T21:00:00	1	Precipitación	0
11940	7	Sololá	710	Panajachel	8	Panajachel	1	Enero	2023-04-01T00:00:00	2024-11-08T21:00:00	8	Radiación solar	0
11941	7	Sololá	710	Panajachel	8	Panajachel	1	Enero	2023-04-01T00:00:00	2024-11-08T22:00:00	2	Temperatura media	17.6
11942	7	Sololá	710	Panajachel	8	Panajachel	1	Enero	2023-04-01T00:00:00	2024-11-08T22:00:00	4	Temperatura máxima	18.3
11943	7	Sololá	710	Panajachel	8	Panajachel	1	Enero	2023-04-01T00:00:00	2024-11-08T22:00:00	3	Temperatura mínima	16.1
11944	7	Sololá	710	Panajachel	8	Panajachel	1	Enero	2023-04-01T00:00:00	2024-11-08T22:00:00	5	Humedad	63
11945	7	Sololá	710	Panajachel	8	Panajachel	1	Enero	2023-04-01T00:00:00	2024-11-08T22:00:00	6	Velocidad del viento	4.8
11946	7	Sololá	710	Panajachel	8	Panajachel	1	Enero	2023-04-01T00:00:00	2024-11-08T22:00:00	7	Dirección del viento	4.83
11947	7	Sololá	710	Panajachel	8	Panajachel	1	Enero	2023-04-01T00:00:00	2024-11-08T22:00:00	1	Precipitación	0
11948	7	Sololá	710	Panajachel	8	Panajachel	1	Enero	2023-04-01T00:00:00	2024-11-08T22:00:00	8	Radiación solar	0
11949	7	Sololá	710	Panajachel	8	Panajachel	1	Enero	2023-04-01T00:00:00	2024-11-08T23:00:00	2	Temperatura media	18.1
11950	7	Sololá	710	Panajachel	8	Panajachel	1	Enero	2023-04-01T00:00:00	2024-11-08T23:00:00	4	Temperatura máxima	18.4
11951	7	Sololá	710	Panajachel	8	Panajachel	1	Enero	2023-04-01T00:00:00	2024-11-08T23:00:00	3	Temperatura mínima	17.6
11952	7	Sololá	710	Panajachel	8	Panajachel	1	Enero	2023-04-01T00:00:00	2024-11-08T23:00:00	5	Humedad	61
11953	7	Sololá	710	Panajachel	8	Panajachel	1	Enero	2023-04-01T00:00:00	2024-11-08T23:00:00	6	Velocidad del viento	6.4
11954	7	Sololá	710	Panajachel	8	Panajachel	1	Enero	2023-04-01T00:00:00	2024-11-08T23:00:00	7	Dirección del viento	6.44
11955	7	Sololá	710	Panajachel	8	Panajachel	1	Enero	2023-04-01T00:00:00	2024-11-08T23:00:00	1	Precipitación	0
11956	7	Sololá	710	Panajachel	8	Panajachel	1	Enero	2023-04-01T00:00:00	2024-11-08T23:00:00	8	Radiación solar	0
11957	7	Sololá	710	Panajachel	8	Panajachel	1	Enero	2023-05-01T00:00:00	2024-11-08T00:00:00	2	Temperatura media	17.4
11958	7	Sololá	710	Panajachel	8	Panajachel	1	Enero	2023-05-01T00:00:00	2024-11-08T00:00:00	4	Temperatura máxima	18.1
11959	7	Sololá	710	Panajachel	8	Panajachel	1	Enero	2023-05-01T00:00:00	2024-11-08T00:00:00	3	Temperatura mínima	17.4
11960	7	Sololá	710	Panajachel	8	Panajachel	1	Enero	2023-05-01T00:00:00	2024-11-08T00:00:00	5	Humedad	60
11961	7	Sololá	710	Panajachel	8	Panajachel	1	Enero	2023-05-01T00:00:00	2024-11-08T00:00:00	6	Velocidad del viento	4.8
11962	7	Sololá	710	Panajachel	8	Panajachel	1	Enero	2023-05-01T00:00:00	2024-11-08T00:00:00	7	Dirección del viento	4.83
11963	7	Sololá	710	Panajachel	8	Panajachel	1	Enero	2023-05-01T00:00:00	2024-11-08T00:00:00	1	Precipitación	0
11964	7	Sololá	710	Panajachel	8	Panajachel	1	Enero	2023-05-01T00:00:00	2024-11-08T00:00:00	8	Radiación solar	0
11965	7	Sololá	710	Panajachel	8	Panajachel	1	Enero	2023-05-01T00:00:00	2024-11-08T01:00:00	2	Temperatura media	14.9
11966	7	Sololá	710	Panajachel	8	Panajachel	1	Enero	2023-05-01T00:00:00	2024-11-08T01:00:00	4	Temperatura máxima	17.4
11967	7	Sololá	710	Panajachel	8	Panajachel	1	Enero	2023-05-01T00:00:00	2024-11-08T01:00:00	3	Temperatura mínima	14.9
11968	7	Sololá	710	Panajachel	8	Panajachel	1	Enero	2023-05-01T00:00:00	2024-11-08T01:00:00	5	Humedad	67
11969	7	Sololá	710	Panajachel	8	Panajachel	1	Enero	2023-05-01T00:00:00	2024-11-08T01:00:00	6	Velocidad del viento	3.2
11970	7	Sololá	710	Panajachel	8	Panajachel	1	Enero	2023-05-01T00:00:00	2024-11-08T01:00:00	7	Dirección del viento	3.22
11971	7	Sololá	710	Panajachel	8	Panajachel	1	Enero	2023-05-01T00:00:00	2024-11-08T01:00:00	1	Precipitación	0
11972	7	Sololá	710	Panajachel	8	Panajachel	1	Enero	2023-05-01T00:00:00	2024-11-08T01:00:00	8	Radiación solar	0
11973	7	Sololá	710	Panajachel	8	Panajachel	1	Enero	2023-05-01T00:00:00	2024-11-08T02:00:00	2	Temperatura media	13.8
11974	7	Sololá	710	Panajachel	8	Panajachel	1	Enero	2023-05-01T00:00:00	2024-11-08T02:00:00	4	Temperatura máxima	14.9
11975	7	Sololá	710	Panajachel	8	Panajachel	1	Enero	2023-05-01T00:00:00	2024-11-08T02:00:00	3	Temperatura mínima	13.7
11976	7	Sololá	710	Panajachel	8	Panajachel	1	Enero	2023-05-01T00:00:00	2024-11-08T02:00:00	5	Humedad	70
11977	7	Sololá	710	Panajachel	8	Panajachel	1	Enero	2023-05-01T00:00:00	2024-11-08T02:00:00	6	Velocidad del viento	1.6
11978	7	Sololá	710	Panajachel	8	Panajachel	1	Enero	2023-05-01T00:00:00	2024-11-08T02:00:00	7	Dirección del viento	1.61
11979	7	Sololá	710	Panajachel	8	Panajachel	1	Enero	2023-05-01T00:00:00	2024-11-08T02:00:00	1	Precipitación	0
11980	7	Sololá	710	Panajachel	8	Panajachel	1	Enero	2023-05-01T00:00:00	2024-11-08T02:00:00	8	Radiación solar	0
11981	7	Sololá	710	Panajachel	8	Panajachel	1	Enero	2023-05-01T00:00:00	2024-11-08T03:00:00	2	Temperatura media	14.4
11982	7	Sololá	710	Panajachel	8	Panajachel	1	Enero	2023-05-01T00:00:00	2024-11-08T03:00:00	4	Temperatura máxima	14.4
11983	7	Sololá	710	Panajachel	8	Panajachel	1	Enero	2023-05-01T00:00:00	2024-11-08T03:00:00	3	Temperatura mínima	13.8
11984	7	Sololá	710	Panajachel	8	Panajachel	1	Enero	2023-05-01T00:00:00	2024-11-08T03:00:00	5	Humedad	71
11985	7	Sololá	710	Panajachel	8	Panajachel	1	Enero	2023-05-01T00:00:00	2024-11-08T03:00:00	6	Velocidad del viento	0
11986	7	Sololá	710	Panajachel	8	Panajachel	1	Enero	2023-05-01T00:00:00	2024-11-08T03:00:00	7	Dirección del viento	0
11987	7	Sololá	710	Panajachel	8	Panajachel	1	Enero	2023-05-01T00:00:00	2024-11-08T03:00:00	1	Precipitación	0
11988	7	Sololá	710	Panajachel	8	Panajachel	1	Enero	2023-05-01T00:00:00	2024-11-08T03:00:00	8	Radiación solar	0
11989	7	Sololá	710	Panajachel	8	Panajachel	1	Enero	2023-05-01T00:00:00	2024-11-08T04:00:00	2	Temperatura media	14.4
11990	7	Sololá	710	Panajachel	8	Panajachel	1	Enero	2023-05-01T00:00:00	2024-11-08T04:00:00	4	Temperatura máxima	14.4
11991	7	Sololá	710	Panajachel	8	Panajachel	1	Enero	2023-05-01T00:00:00	2024-11-08T04:00:00	3	Temperatura mínima	14.2
11992	7	Sololá	710	Panajachel	8	Panajachel	1	Enero	2023-05-01T00:00:00	2024-11-08T04:00:00	5	Humedad	69
11993	7	Sololá	710	Panajachel	8	Panajachel	1	Enero	2023-05-01T00:00:00	2024-11-08T04:00:00	6	Velocidad del viento	1.6
11994	7	Sololá	710	Panajachel	8	Panajachel	1	Enero	2023-05-01T00:00:00	2024-11-08T04:00:00	7	Dirección del viento	1.61
11995	7	Sololá	710	Panajachel	8	Panajachel	1	Enero	2023-05-01T00:00:00	2024-11-08T04:00:00	1	Precipitación	0
11996	7	Sololá	710	Panajachel	8	Panajachel	1	Enero	2023-05-01T00:00:00	2024-11-08T04:00:00	8	Radiación solar	0
11997	7	Sololá	710	Panajachel	8	Panajachel	1	Enero	2023-05-01T00:00:00	2024-11-08T05:00:00	2	Temperatura media	15.1
11998	7	Sololá	710	Panajachel	8	Panajachel	1	Enero	2023-05-01T00:00:00	2024-11-08T05:00:00	4	Temperatura máxima	15.1
11999	7	Sololá	710	Panajachel	8	Panajachel	1	Enero	2023-05-01T00:00:00	2024-11-08T05:00:00	3	Temperatura mínima	14.3
12000	7	Sololá	710	Panajachel	8	Panajachel	1	Enero	2023-05-01T00:00:00	2024-11-08T05:00:00	5	Humedad	68
12001	7	Sololá	710	Panajachel	8	Panajachel	1	Enero	2023-05-01T00:00:00	2024-11-08T05:00:00	6	Velocidad del viento	0
12002	7	Sololá	710	Panajachel	8	Panajachel	1	Enero	2023-05-01T00:00:00	2024-11-08T05:00:00	7	Dirección del viento	0
12003	7	Sololá	710	Panajachel	8	Panajachel	1	Enero	2023-05-01T00:00:00	2024-11-08T05:00:00	1	Precipitación	0
12004	7	Sololá	710	Panajachel	8	Panajachel	1	Enero	2023-05-01T00:00:00	2024-11-08T05:00:00	8	Radiación solar	0
12005	7	Sololá	710	Panajachel	8	Panajachel	1	Enero	2023-05-01T00:00:00	2024-11-08T06:00:00	2	Temperatura media	15.1
12006	7	Sololá	710	Panajachel	8	Panajachel	1	Enero	2023-05-01T00:00:00	2024-11-08T06:00:00	4	Temperatura máxima	15.1
12007	7	Sololá	710	Panajachel	8	Panajachel	1	Enero	2023-05-01T00:00:00	2024-11-08T06:00:00	3	Temperatura mínima	14.7
12008	7	Sololá	710	Panajachel	8	Panajachel	1	Enero	2023-05-01T00:00:00	2024-11-08T06:00:00	5	Humedad	68
12009	7	Sololá	710	Panajachel	8	Panajachel	1	Enero	2023-05-01T00:00:00	2024-11-08T06:00:00	6	Velocidad del viento	1.6
12010	7	Sololá	710	Panajachel	8	Panajachel	1	Enero	2023-05-01T00:00:00	2024-11-08T06:00:00	7	Dirección del viento	1.61
12011	7	Sololá	710	Panajachel	8	Panajachel	1	Enero	2023-05-01T00:00:00	2024-11-08T06:00:00	1	Precipitación	0
12012	7	Sololá	710	Panajachel	8	Panajachel	1	Enero	2023-05-01T00:00:00	2024-11-08T06:00:00	8	Radiación solar	0
12013	7	Sololá	710	Panajachel	8	Panajachel	1	Enero	2023-05-01T00:00:00	2024-11-08T07:00:00	2	Temperatura media	16.8
12014	7	Sololá	710	Panajachel	8	Panajachel	1	Enero	2023-05-01T00:00:00	2024-11-08T07:00:00	4	Temperatura máxima	17.2
12015	7	Sololá	710	Panajachel	8	Panajachel	1	Enero	2023-05-01T00:00:00	2024-11-08T07:00:00	3	Temperatura mínima	15.1
12016	7	Sololá	710	Panajachel	8	Panajachel	1	Enero	2023-05-01T00:00:00	2024-11-08T07:00:00	5	Humedad	72
12017	7	Sololá	710	Panajachel	8	Panajachel	1	Enero	2023-05-01T00:00:00	2024-11-08T07:00:00	6	Velocidad del viento	6.4
12018	7	Sololá	710	Panajachel	8	Panajachel	1	Enero	2023-05-01T00:00:00	2024-11-08T07:00:00	7	Dirección del viento	6.44
12019	7	Sololá	710	Panajachel	8	Panajachel	1	Enero	2023-05-01T00:00:00	2024-11-08T07:00:00	1	Precipitación	0
12020	7	Sololá	710	Panajachel	8	Panajachel	1	Enero	2023-05-01T00:00:00	2024-11-08T07:00:00	8	Radiación solar	3
12021	7	Sololá	710	Panajachel	8	Panajachel	1	Enero	2023-05-01T00:00:00	2024-11-08T08:00:00	2	Temperatura media	16.9
12022	7	Sololá	710	Panajachel	8	Panajachel	1	Enero	2023-05-01T00:00:00	2024-11-08T08:00:00	4	Temperatura máxima	17
12023	7	Sololá	710	Panajachel	8	Panajachel	1	Enero	2023-05-01T00:00:00	2024-11-08T08:00:00	3	Temperatura mínima	16.7
12024	7	Sololá	710	Panajachel	8	Panajachel	1	Enero	2023-05-01T00:00:00	2024-11-08T08:00:00	5	Humedad	74
12025	7	Sololá	710	Panajachel	8	Panajachel	1	Enero	2023-05-01T00:00:00	2024-11-08T08:00:00	6	Velocidad del viento	8
12026	7	Sololá	710	Panajachel	8	Panajachel	1	Enero	2023-05-01T00:00:00	2024-11-08T08:00:00	7	Dirección del viento	8.05
12027	7	Sololá	710	Panajachel	8	Panajachel	1	Enero	2023-05-01T00:00:00	2024-11-08T08:00:00	1	Precipitación	0
12028	7	Sololá	710	Panajachel	8	Panajachel	1	Enero	2023-05-01T00:00:00	2024-11-08T08:00:00	8	Radiación solar	44
12029	7	Sololá	710	Panajachel	8	Panajachel	1	Enero	2023-05-01T00:00:00	2024-11-08T09:00:00	2	Temperatura media	17.7
12030	7	Sololá	710	Panajachel	8	Panajachel	1	Enero	2023-05-01T00:00:00	2024-11-08T09:00:00	4	Temperatura máxima	17.7
12031	7	Sololá	710	Panajachel	8	Panajachel	1	Enero	2023-05-01T00:00:00	2024-11-08T09:00:00	3	Temperatura mínima	16.9
12032	7	Sololá	710	Panajachel	8	Panajachel	1	Enero	2023-05-01T00:00:00	2024-11-08T09:00:00	5	Humedad	74
12033	7	Sololá	710	Panajachel	8	Panajachel	1	Enero	2023-05-01T00:00:00	2024-11-08T09:00:00	6	Velocidad del viento	4.8
12034	7	Sololá	710	Panajachel	8	Panajachel	1	Enero	2023-05-01T00:00:00	2024-11-08T09:00:00	7	Dirección del viento	4.83
12035	7	Sololá	710	Panajachel	8	Panajachel	1	Enero	2023-05-01T00:00:00	2024-11-08T09:00:00	1	Precipitación	0
12036	7	Sololá	710	Panajachel	8	Panajachel	1	Enero	2023-05-01T00:00:00	2024-11-08T09:00:00	8	Radiación solar	106
12037	7	Sololá	710	Panajachel	8	Panajachel	1	Enero	2023-05-01T00:00:00	2024-11-08T10:00:00	2	Temperatura media	20.8
12038	7	Sololá	710	Panajachel	8	Panajachel	1	Enero	2023-05-01T00:00:00	2024-11-08T10:00:00	4	Temperatura máxima	20.8
12039	7	Sololá	710	Panajachel	8	Panajachel	1	Enero	2023-05-01T00:00:00	2024-11-08T10:00:00	3	Temperatura mínima	17.7
12040	7	Sololá	710	Panajachel	8	Panajachel	1	Enero	2023-05-01T00:00:00	2024-11-08T10:00:00	5	Humedad	62
12041	7	Sololá	710	Panajachel	8	Panajachel	1	Enero	2023-05-01T00:00:00	2024-11-08T10:00:00	6	Velocidad del viento	4.8
12042	7	Sololá	710	Panajachel	8	Panajachel	1	Enero	2023-05-01T00:00:00	2024-11-08T10:00:00	7	Dirección del viento	4.83
12043	7	Sololá	710	Panajachel	8	Panajachel	1	Enero	2023-05-01T00:00:00	2024-11-08T10:00:00	1	Precipitación	0
12044	7	Sololá	710	Panajachel	8	Panajachel	1	Enero	2023-05-01T00:00:00	2024-11-08T10:00:00	8	Radiación solar	436
12045	7	Sololá	710	Panajachel	8	Panajachel	1	Enero	2023-05-01T00:00:00	2024-11-08T11:00:00	2	Temperatura media	21.2
12046	7	Sololá	710	Panajachel	8	Panajachel	1	Enero	2023-05-01T00:00:00	2024-11-08T11:00:00	4	Temperatura máxima	21.4
12047	7	Sololá	710	Panajachel	8	Panajachel	1	Enero	2023-05-01T00:00:00	2024-11-08T11:00:00	3	Temperatura mínima	20.4
12048	7	Sololá	710	Panajachel	8	Panajachel	1	Enero	2023-05-01T00:00:00	2024-11-08T11:00:00	5	Humedad	55
12049	7	Sololá	710	Panajachel	8	Panajachel	1	Enero	2023-05-01T00:00:00	2024-11-08T11:00:00	6	Velocidad del viento	11.3
12050	7	Sololá	710	Panajachel	8	Panajachel	1	Enero	2023-05-01T00:00:00	2024-11-08T11:00:00	7	Dirección del viento	11.27
12051	7	Sololá	710	Panajachel	8	Panajachel	1	Enero	2023-05-01T00:00:00	2024-11-08T11:00:00	1	Precipitación	0
12052	7	Sololá	710	Panajachel	8	Panajachel	1	Enero	2023-05-01T00:00:00	2024-11-08T11:00:00	8	Radiación solar	691
12053	7	Sololá	710	Panajachel	8	Panajachel	1	Enero	2023-05-01T00:00:00	2024-11-08T12:00:00	2	Temperatura media	20.9
12054	7	Sololá	710	Panajachel	8	Panajachel	1	Enero	2023-05-01T00:00:00	2024-11-08T12:00:00	4	Temperatura máxima	21.8
12055	7	Sololá	710	Panajachel	8	Panajachel	1	Enero	2023-05-01T00:00:00	2024-11-08T12:00:00	3	Temperatura mínima	20.8
12056	7	Sololá	710	Panajachel	8	Panajachel	1	Enero	2023-05-01T00:00:00	2024-11-08T12:00:00	5	Humedad	58
12057	7	Sololá	710	Panajachel	8	Panajachel	1	Enero	2023-05-01T00:00:00	2024-11-08T12:00:00	6	Velocidad del viento	9.7
12058	7	Sololá	710	Panajachel	8	Panajachel	1	Enero	2023-05-01T00:00:00	2024-11-08T12:00:00	7	Dirección del viento	9.66
12059	7	Sololá	710	Panajachel	8	Panajachel	1	Enero	2023-05-01T00:00:00	2024-11-08T12:00:00	1	Precipitación	0
12060	7	Sololá	710	Panajachel	8	Panajachel	1	Enero	2023-05-01T00:00:00	2024-11-08T12:00:00	8	Radiación solar	341
12061	7	Sololá	710	Panajachel	8	Panajachel	1	Enero	2023-05-01T00:00:00	2024-11-08T13:00:00	2	Temperatura media	20.9
12062	7	Sololá	710	Panajachel	8	Panajachel	1	Enero	2023-05-01T00:00:00	2024-11-08T13:00:00	4	Temperatura máxima	21.2
12063	7	Sololá	710	Panajachel	8	Panajachel	1	Enero	2023-05-01T00:00:00	2024-11-08T13:00:00	3	Temperatura mínima	20.8
12064	7	Sololá	710	Panajachel	8	Panajachel	1	Enero	2023-05-01T00:00:00	2024-11-08T13:00:00	5	Humedad	58
12065	7	Sololá	710	Panajachel	8	Panajachel	1	Enero	2023-05-01T00:00:00	2024-11-08T13:00:00	6	Velocidad del viento	8
12066	7	Sololá	710	Panajachel	8	Panajachel	1	Enero	2023-05-01T00:00:00	2024-11-08T13:00:00	7	Dirección del viento	8.05
12067	7	Sololá	710	Panajachel	8	Panajachel	1	Enero	2023-05-01T00:00:00	2024-11-08T13:00:00	1	Precipitación	0
12068	7	Sololá	710	Panajachel	8	Panajachel	1	Enero	2023-05-01T00:00:00	2024-11-08T13:00:00	8	Radiación solar	296
12069	7	Sololá	710	Panajachel	8	Panajachel	1	Enero	2023-05-01T00:00:00	2024-11-08T14:00:00	2	Temperatura media	20.2
12070	7	Sololá	710	Panajachel	8	Panajachel	1	Enero	2023-05-01T00:00:00	2024-11-08T14:00:00	4	Temperatura máxima	21.3
12071	7	Sololá	710	Panajachel	8	Panajachel	1	Enero	2023-05-01T00:00:00	2024-11-08T14:00:00	3	Temperatura mínima	20.2
12072	7	Sololá	710	Panajachel	8	Panajachel	1	Enero	2023-05-01T00:00:00	2024-11-08T14:00:00	5	Humedad	63
12073	7	Sololá	710	Panajachel	8	Panajachel	1	Enero	2023-05-01T00:00:00	2024-11-08T14:00:00	6	Velocidad del viento	9.7
12074	7	Sololá	710	Panajachel	8	Panajachel	1	Enero	2023-05-01T00:00:00	2024-11-08T14:00:00	7	Dirección del viento	9.66
12075	7	Sololá	710	Panajachel	8	Panajachel	1	Enero	2023-05-01T00:00:00	2024-11-08T14:00:00	1	Precipitación	0
12076	7	Sololá	710	Panajachel	8	Panajachel	1	Enero	2023-05-01T00:00:00	2024-11-08T14:00:00	8	Radiación solar	265
12077	7	Sololá	710	Panajachel	8	Panajachel	1	Enero	2023-05-01T00:00:00	2024-11-08T15:00:00	2	Temperatura media	19.7
12078	7	Sololá	710	Panajachel	8	Panajachel	1	Enero	2023-05-01T00:00:00	2024-11-08T15:00:00	4	Temperatura máxima	20.3
12079	7	Sololá	710	Panajachel	8	Panajachel	1	Enero	2023-05-01T00:00:00	2024-11-08T15:00:00	3	Temperatura mínima	19.4
12080	7	Sololá	710	Panajachel	8	Panajachel	1	Enero	2023-05-01T00:00:00	2024-11-08T15:00:00	5	Humedad	63
12081	7	Sololá	710	Panajachel	8	Panajachel	1	Enero	2023-05-01T00:00:00	2024-11-08T15:00:00	6	Velocidad del viento	9.7
12082	7	Sololá	710	Panajachel	8	Panajachel	1	Enero	2023-05-01T00:00:00	2024-11-08T15:00:00	7	Dirección del viento	9.66
12083	7	Sololá	710	Panajachel	8	Panajachel	1	Enero	2023-05-01T00:00:00	2024-11-08T15:00:00	1	Precipitación	0
12084	7	Sololá	710	Panajachel	8	Panajachel	1	Enero	2023-05-01T00:00:00	2024-11-08T15:00:00	8	Radiación solar	230
12085	7	Sololá	710	Panajachel	8	Panajachel	1	Enero	2023-05-01T00:00:00	2024-11-08T16:00:00	2	Temperatura media	19.2
12086	7	Sololá	710	Panajachel	8	Panajachel	1	Enero	2023-05-01T00:00:00	2024-11-08T16:00:00	4	Temperatura máxima	20.9
12087	7	Sololá	710	Panajachel	8	Panajachel	1	Enero	2023-05-01T00:00:00	2024-11-08T16:00:00	3	Temperatura mínima	19.1
12088	7	Sololá	710	Panajachel	8	Panajachel	1	Enero	2023-05-01T00:00:00	2024-11-08T16:00:00	5	Humedad	67
12089	7	Sololá	710	Panajachel	8	Panajachel	1	Enero	2023-05-01T00:00:00	2024-11-08T16:00:00	6	Velocidad del viento	6.4
12090	7	Sololá	710	Panajachel	8	Panajachel	1	Enero	2023-05-01T00:00:00	2024-11-08T16:00:00	7	Dirección del viento	6.44
12091	7	Sololá	710	Panajachel	8	Panajachel	1	Enero	2023-05-01T00:00:00	2024-11-08T16:00:00	1	Precipitación	0
12092	7	Sololá	710	Panajachel	8	Panajachel	1	Enero	2023-05-01T00:00:00	2024-11-08T16:00:00	8	Radiación solar	200
12093	7	Sololá	710	Panajachel	8	Panajachel	1	Enero	2023-05-01T00:00:00	2024-11-08T17:00:00	2	Temperatura media	18.1
12094	7	Sololá	710	Panajachel	8	Panajachel	1	Enero	2023-05-01T00:00:00	2024-11-08T17:00:00	4	Temperatura máxima	19.4
12095	7	Sololá	710	Panajachel	8	Panajachel	1	Enero	2023-05-01T00:00:00	2024-11-08T17:00:00	3	Temperatura mínima	18.1
12096	7	Sololá	710	Panajachel	8	Panajachel	1	Enero	2023-05-01T00:00:00	2024-11-08T17:00:00	5	Humedad	70
12097	7	Sololá	710	Panajachel	8	Panajachel	1	Enero	2023-05-01T00:00:00	2024-11-08T17:00:00	6	Velocidad del viento	3.2
12098	7	Sololá	710	Panajachel	8	Panajachel	1	Enero	2023-05-01T00:00:00	2024-11-08T17:00:00	7	Dirección del viento	3.22
12099	7	Sololá	710	Panajachel	8	Panajachel	1	Enero	2023-05-01T00:00:00	2024-11-08T17:00:00	1	Precipitación	0
12100	7	Sololá	710	Panajachel	8	Panajachel	1	Enero	2023-05-01T00:00:00	2024-11-08T17:00:00	8	Radiación solar	73
12101	7	Sololá	710	Panajachel	8	Panajachel	1	Enero	2023-05-01T00:00:00	2024-11-08T18:00:00	2	Temperatura media	17.6
12102	7	Sololá	710	Panajachel	8	Panajachel	1	Enero	2023-05-01T00:00:00	2024-11-08T18:00:00	4	Temperatura máxima	18.1
12103	7	Sololá	710	Panajachel	8	Panajachel	1	Enero	2023-05-01T00:00:00	2024-11-08T18:00:00	3	Temperatura mínima	17.6
12104	7	Sololá	710	Panajachel	8	Panajachel	1	Enero	2023-05-01T00:00:00	2024-11-08T18:00:00	5	Humedad	69
12105	7	Sololá	710	Panajachel	8	Panajachel	1	Enero	2023-05-01T00:00:00	2024-11-08T18:00:00	6	Velocidad del viento	4.8
12106	7	Sololá	710	Panajachel	8	Panajachel	1	Enero	2023-05-01T00:00:00	2024-11-08T18:00:00	7	Dirección del viento	4.83
12107	7	Sololá	710	Panajachel	8	Panajachel	1	Enero	2023-05-01T00:00:00	2024-11-08T18:00:00	1	Precipitación	0
12108	7	Sololá	710	Panajachel	8	Panajachel	1	Enero	2023-05-01T00:00:00	2024-11-08T18:00:00	8	Radiación solar	10
12109	7	Sololá	710	Panajachel	8	Panajachel	1	Enero	2023-05-01T00:00:00	2024-11-08T19:00:00	2	Temperatura media	17.8
12110	7	Sololá	710	Panajachel	8	Panajachel	1	Enero	2023-05-01T00:00:00	2024-11-08T19:00:00	4	Temperatura máxima	17.8
12111	7	Sololá	710	Panajachel	8	Panajachel	1	Enero	2023-05-01T00:00:00	2024-11-08T19:00:00	3	Temperatura mínima	17.6
12112	7	Sololá	710	Panajachel	8	Panajachel	1	Enero	2023-05-01T00:00:00	2024-11-08T19:00:00	5	Humedad	68
12113	7	Sololá	710	Panajachel	8	Panajachel	1	Enero	2023-05-01T00:00:00	2024-11-08T19:00:00	6	Velocidad del viento	3.2
12114	7	Sololá	710	Panajachel	8	Panajachel	1	Enero	2023-05-01T00:00:00	2024-11-08T19:00:00	7	Dirección del viento	3.22
12115	7	Sololá	710	Panajachel	8	Panajachel	1	Enero	2023-05-01T00:00:00	2024-11-08T19:00:00	1	Precipitación	0
12116	7	Sololá	710	Panajachel	8	Panajachel	1	Enero	2023-05-01T00:00:00	2024-11-08T19:00:00	8	Radiación solar	0
12117	7	Sololá	710	Panajachel	8	Panajachel	1	Enero	2023-05-01T00:00:00	2024-11-08T20:00:00	2	Temperatura media	17.8
12118	7	Sololá	710	Panajachel	8	Panajachel	1	Enero	2023-05-01T00:00:00	2024-11-08T20:00:00	4	Temperatura máxima	18
12119	7	Sololá	710	Panajachel	8	Panajachel	1	Enero	2023-05-01T00:00:00	2024-11-08T20:00:00	3	Temperatura mínima	17.8
12120	7	Sololá	710	Panajachel	8	Panajachel	1	Enero	2023-05-01T00:00:00	2024-11-08T20:00:00	5	Humedad	68
12121	7	Sololá	710	Panajachel	8	Panajachel	1	Enero	2023-05-01T00:00:00	2024-11-08T20:00:00	6	Velocidad del viento	6.4
12122	7	Sololá	710	Panajachel	8	Panajachel	1	Enero	2023-05-01T00:00:00	2024-11-08T20:00:00	7	Dirección del viento	6.44
12123	7	Sololá	710	Panajachel	8	Panajachel	1	Enero	2023-05-01T00:00:00	2024-11-08T20:00:00	1	Precipitación	0
12124	7	Sololá	710	Panajachel	8	Panajachel	1	Enero	2023-05-01T00:00:00	2024-11-08T20:00:00	8	Radiación solar	0
12125	7	Sololá	710	Panajachel	8	Panajachel	1	Enero	2023-05-01T00:00:00	2024-11-08T21:00:00	2	Temperatura media	17.5
12126	7	Sololá	710	Panajachel	8	Panajachel	1	Enero	2023-05-01T00:00:00	2024-11-08T21:00:00	4	Temperatura máxima	17.8
12127	7	Sololá	710	Panajachel	8	Panajachel	1	Enero	2023-05-01T00:00:00	2024-11-08T21:00:00	3	Temperatura mínima	17.4
12128	7	Sololá	710	Panajachel	8	Panajachel	1	Enero	2023-05-01T00:00:00	2024-11-08T21:00:00	5	Humedad	66
12129	7	Sololá	710	Panajachel	8	Panajachel	1	Enero	2023-05-01T00:00:00	2024-11-08T21:00:00	6	Velocidad del viento	3.2
12130	7	Sololá	710	Panajachel	8	Panajachel	1	Enero	2023-05-01T00:00:00	2024-11-08T21:00:00	7	Dirección del viento	3.22
12131	7	Sololá	710	Panajachel	8	Panajachel	1	Enero	2023-05-01T00:00:00	2024-11-08T21:00:00	1	Precipitación	0
12132	7	Sololá	710	Panajachel	8	Panajachel	1	Enero	2023-05-01T00:00:00	2024-11-08T21:00:00	8	Radiación solar	0
12133	7	Sololá	710	Panajachel	8	Panajachel	1	Enero	2023-05-01T00:00:00	2024-11-08T22:00:00	2	Temperatura media	16.8
12134	7	Sololá	710	Panajachel	8	Panajachel	1	Enero	2023-05-01T00:00:00	2024-11-08T22:00:00	4	Temperatura máxima	17.6
12135	7	Sololá	710	Panajachel	8	Panajachel	1	Enero	2023-05-01T00:00:00	2024-11-08T22:00:00	3	Temperatura mínima	16.8
12136	7	Sololá	710	Panajachel	8	Panajachel	1	Enero	2023-05-01T00:00:00	2024-11-08T22:00:00	5	Humedad	67
12137	7	Sololá	710	Panajachel	8	Panajachel	1	Enero	2023-05-01T00:00:00	2024-11-08T22:00:00	6	Velocidad del viento	1.6
12138	7	Sololá	710	Panajachel	8	Panajachel	1	Enero	2023-05-01T00:00:00	2024-11-08T22:00:00	7	Dirección del viento	1.61
12139	7	Sololá	710	Panajachel	8	Panajachel	1	Enero	2023-05-01T00:00:00	2024-11-08T22:00:00	1	Precipitación	0
12140	7	Sololá	710	Panajachel	8	Panajachel	1	Enero	2023-05-01T00:00:00	2024-11-08T22:00:00	8	Radiación solar	0
12141	7	Sololá	710	Panajachel	8	Panajachel	1	Enero	2023-05-01T00:00:00	2024-11-08T23:00:00	2	Temperatura media	15.6
12142	7	Sololá	710	Panajachel	8	Panajachel	1	Enero	2023-05-01T00:00:00	2024-11-08T23:00:00	4	Temperatura máxima	16.9
12143	7	Sololá	710	Panajachel	8	Panajachel	1	Enero	2023-05-01T00:00:00	2024-11-08T23:00:00	3	Temperatura mínima	15.6
12144	7	Sololá	710	Panajachel	8	Panajachel	1	Enero	2023-05-01T00:00:00	2024-11-08T23:00:00	5	Humedad	69
12145	7	Sololá	710	Panajachel	8	Panajachel	1	Enero	2023-05-01T00:00:00	2024-11-08T23:00:00	6	Velocidad del viento	1.6
12146	7	Sololá	710	Panajachel	8	Panajachel	1	Enero	2023-05-01T00:00:00	2024-11-08T23:00:00	7	Dirección del viento	1.61
12147	7	Sololá	710	Panajachel	8	Panajachel	1	Enero	2023-05-01T00:00:00	2024-11-08T23:00:00	1	Precipitación	0
12148	7	Sololá	710	Panajachel	8	Panajachel	1	Enero	2023-05-01T00:00:00	2024-11-08T23:00:00	8	Radiación solar	0
12149	7	Sololá	710	Panajachel	8	Panajachel	1	Enero	2023-06-01T00:00:00	2024-11-08T00:00:00	2	Temperatura media	16.9
12150	7	Sololá	710	Panajachel	8	Panajachel	1	Enero	2023-06-01T00:00:00	2024-11-08T00:00:00	4	Temperatura máxima	16.9
12151	7	Sololá	710	Panajachel	8	Panajachel	1	Enero	2023-06-01T00:00:00	2024-11-08T00:00:00	3	Temperatura mínima	15.3
12152	7	Sololá	710	Panajachel	8	Panajachel	1	Enero	2023-06-01T00:00:00	2024-11-08T00:00:00	5	Humedad	60
12153	7	Sololá	710	Panajachel	8	Panajachel	1	Enero	2023-06-01T00:00:00	2024-11-08T00:00:00	6	Velocidad del viento	3.2
12154	7	Sololá	710	Panajachel	8	Panajachel	1	Enero	2023-06-01T00:00:00	2024-11-08T00:00:00	7	Dirección del viento	3.22
12155	7	Sololá	710	Panajachel	8	Panajachel	1	Enero	2023-06-01T00:00:00	2024-11-08T00:00:00	1	Precipitación	0
12156	7	Sololá	710	Panajachel	8	Panajachel	1	Enero	2023-06-01T00:00:00	2024-11-08T00:00:00	8	Radiación solar	0
12157	7	Sololá	710	Panajachel	8	Panajachel	1	Enero	2023-06-01T00:00:00	2024-11-08T01:00:00	2	Temperatura media	16.2
12158	7	Sololá	710	Panajachel	8	Panajachel	1	Enero	2023-06-01T00:00:00	2024-11-08T01:00:00	4	Temperatura máxima	16.9
12159	7	Sololá	710	Panajachel	8	Panajachel	1	Enero	2023-06-01T00:00:00	2024-11-08T01:00:00	3	Temperatura mínima	16.1
12160	7	Sololá	710	Panajachel	8	Panajachel	1	Enero	2023-06-01T00:00:00	2024-11-08T01:00:00	5	Humedad	63
12161	7	Sololá	710	Panajachel	8	Panajachel	1	Enero	2023-06-01T00:00:00	2024-11-08T01:00:00	6	Velocidad del viento	4.8
12162	7	Sololá	710	Panajachel	8	Panajachel	1	Enero	2023-06-01T00:00:00	2024-11-08T01:00:00	7	Dirección del viento	4.83
12163	7	Sololá	710	Panajachel	8	Panajachel	1	Enero	2023-06-01T00:00:00	2024-11-08T01:00:00	1	Precipitación	0
12164	7	Sololá	710	Panajachel	8	Panajachel	1	Enero	2023-06-01T00:00:00	2024-11-08T01:00:00	8	Radiación solar	0
12165	7	Sololá	710	Panajachel	8	Panajachel	1	Enero	2023-06-01T00:00:00	2024-11-08T02:00:00	2	Temperatura media	16.4
12166	7	Sololá	710	Panajachel	8	Panajachel	1	Enero	2023-06-01T00:00:00	2024-11-08T02:00:00	4	Temperatura máxima	16.5
12167	7	Sololá	710	Panajachel	8	Panajachel	1	Enero	2023-06-01T00:00:00	2024-11-08T02:00:00	3	Temperatura mínima	15.9
12168	7	Sololá	710	Panajachel	8	Panajachel	1	Enero	2023-06-01T00:00:00	2024-11-08T02:00:00	5	Humedad	58
12169	7	Sololá	710	Panajachel	8	Panajachel	1	Enero	2023-06-01T00:00:00	2024-11-08T02:00:00	6	Velocidad del viento	8
12170	7	Sololá	710	Panajachel	8	Panajachel	1	Enero	2023-06-01T00:00:00	2024-11-08T02:00:00	7	Dirección del viento	8.05
12171	7	Sololá	710	Panajachel	8	Panajachel	1	Enero	2023-06-01T00:00:00	2024-11-08T02:00:00	1	Precipitación	0
12172	7	Sololá	710	Panajachel	8	Panajachel	1	Enero	2023-06-01T00:00:00	2024-11-08T02:00:00	8	Radiación solar	0
12173	7	Sololá	710	Panajachel	8	Panajachel	1	Enero	2023-06-01T00:00:00	2024-11-08T03:00:00	2	Temperatura media	16.4
12174	7	Sololá	710	Panajachel	8	Panajachel	1	Enero	2023-06-01T00:00:00	2024-11-08T03:00:00	4	Temperatura máxima	16.6
12175	7	Sololá	710	Panajachel	8	Panajachel	1	Enero	2023-06-01T00:00:00	2024-11-08T03:00:00	3	Temperatura mínima	16.2
12176	7	Sololá	710	Panajachel	8	Panajachel	1	Enero	2023-06-01T00:00:00	2024-11-08T03:00:00	5	Humedad	54
12177	7	Sololá	710	Panajachel	8	Panajachel	1	Enero	2023-06-01T00:00:00	2024-11-08T03:00:00	6	Velocidad del viento	12.9
12178	7	Sololá	710	Panajachel	8	Panajachel	1	Enero	2023-06-01T00:00:00	2024-11-08T03:00:00	7	Dirección del viento	12.87
12179	7	Sololá	710	Panajachel	8	Panajachel	1	Enero	2023-06-01T00:00:00	2024-11-08T03:00:00	1	Precipitación	0
12180	7	Sololá	710	Panajachel	8	Panajachel	1	Enero	2023-06-01T00:00:00	2024-11-08T03:00:00	8	Radiación solar	0
12181	7	Sololá	710	Panajachel	8	Panajachel	1	Enero	2023-06-01T00:00:00	2024-11-08T04:00:00	2	Temperatura media	15.3
12182	7	Sololá	710	Panajachel	8	Panajachel	1	Enero	2023-06-01T00:00:00	2024-11-08T04:00:00	4	Temperatura máxima	16.4
12183	7	Sololá	710	Panajachel	8	Panajachel	1	Enero	2023-06-01T00:00:00	2024-11-08T04:00:00	3	Temperatura mínima	15.3
12184	7	Sololá	710	Panajachel	8	Panajachel	1	Enero	2023-06-01T00:00:00	2024-11-08T04:00:00	5	Humedad	60
12185	7	Sololá	710	Panajachel	8	Panajachel	1	Enero	2023-06-01T00:00:00	2024-11-08T04:00:00	6	Velocidad del viento	9.7
12186	7	Sololá	710	Panajachel	8	Panajachel	1	Enero	2023-06-01T00:00:00	2024-11-08T04:00:00	7	Dirección del viento	9.66
12187	7	Sololá	710	Panajachel	8	Panajachel	1	Enero	2023-06-01T00:00:00	2024-11-08T04:00:00	1	Precipitación	0
12188	7	Sololá	710	Panajachel	8	Panajachel	1	Enero	2023-06-01T00:00:00	2024-11-08T04:00:00	8	Radiación solar	0
12189	7	Sololá	710	Panajachel	8	Panajachel	1	Enero	2023-06-01T00:00:00	2024-11-08T05:00:00	2	Temperatura media	16.2
12190	7	Sololá	710	Panajachel	8	Panajachel	1	Enero	2023-06-01T00:00:00	2024-11-08T05:00:00	4	Temperatura máxima	16.2
12191	7	Sololá	710	Panajachel	8	Panajachel	1	Enero	2023-06-01T00:00:00	2024-11-08T05:00:00	3	Temperatura mínima	15.2
12192	7	Sololá	710	Panajachel	8	Panajachel	1	Enero	2023-06-01T00:00:00	2024-11-08T05:00:00	5	Humedad	55
12193	7	Sololá	710	Panajachel	8	Panajachel	1	Enero	2023-06-01T00:00:00	2024-11-08T05:00:00	6	Velocidad del viento	11.3
12194	7	Sololá	710	Panajachel	8	Panajachel	1	Enero	2023-06-01T00:00:00	2024-11-08T05:00:00	7	Dirección del viento	11.27
12195	7	Sololá	710	Panajachel	8	Panajachel	1	Enero	2023-06-01T00:00:00	2024-11-08T05:00:00	1	Precipitación	0
12196	7	Sololá	710	Panajachel	8	Panajachel	1	Enero	2023-06-01T00:00:00	2024-11-08T05:00:00	8	Radiación solar	0
12197	7	Sololá	710	Panajachel	8	Panajachel	1	Enero	2023-06-01T00:00:00	2024-11-08T06:00:00	2	Temperatura media	15.7
12198	7	Sololá	710	Panajachel	8	Panajachel	1	Enero	2023-06-01T00:00:00	2024-11-08T06:00:00	4	Temperatura máxima	16.2
12199	7	Sololá	710	Panajachel	8	Panajachel	1	Enero	2023-06-01T00:00:00	2024-11-08T06:00:00	3	Temperatura mínima	15.7
12200	7	Sololá	710	Panajachel	8	Panajachel	1	Enero	2023-06-01T00:00:00	2024-11-08T06:00:00	5	Humedad	57
12201	7	Sololá	710	Panajachel	8	Panajachel	1	Enero	2023-06-01T00:00:00	2024-11-08T06:00:00	6	Velocidad del viento	17.7
12202	7	Sololá	710	Panajachel	8	Panajachel	1	Enero	2023-06-01T00:00:00	2024-11-08T06:00:00	7	Dirección del viento	17.7
12203	7	Sololá	710	Panajachel	8	Panajachel	1	Enero	2023-06-01T00:00:00	2024-11-08T06:00:00	1	Precipitación	0
12204	7	Sololá	710	Panajachel	8	Panajachel	1	Enero	2023-06-01T00:00:00	2024-11-08T06:00:00	8	Radiación solar	0
12205	7	Sololá	710	Panajachel	8	Panajachel	1	Enero	2023-06-01T00:00:00	2024-11-08T07:00:00	2	Temperatura media	15.6
12206	7	Sololá	710	Panajachel	8	Panajachel	1	Enero	2023-06-01T00:00:00	2024-11-08T07:00:00	4	Temperatura máxima	15.8
12207	7	Sololá	710	Panajachel	8	Panajachel	1	Enero	2023-06-01T00:00:00	2024-11-08T07:00:00	3	Temperatura mínima	15.6
12208	7	Sololá	710	Panajachel	8	Panajachel	1	Enero	2023-06-01T00:00:00	2024-11-08T07:00:00	5	Humedad	59
12209	7	Sololá	710	Panajachel	8	Panajachel	1	Enero	2023-06-01T00:00:00	2024-11-08T07:00:00	6	Velocidad del viento	9.7
12210	7	Sololá	710	Panajachel	8	Panajachel	1	Enero	2023-06-01T00:00:00	2024-11-08T07:00:00	7	Dirección del viento	9.66
12211	7	Sololá	710	Panajachel	8	Panajachel	1	Enero	2023-06-01T00:00:00	2024-11-08T07:00:00	1	Precipitación	0
12212	7	Sololá	710	Panajachel	8	Panajachel	1	Enero	2023-06-01T00:00:00	2024-11-08T07:00:00	8	Radiación solar	4
12213	7	Sololá	710	Panajachel	8	Panajachel	1	Enero	2023-06-01T00:00:00	2024-11-08T08:00:00	2	Temperatura media	16.4
12214	7	Sololá	710	Panajachel	8	Panajachel	1	Enero	2023-06-01T00:00:00	2024-11-08T08:00:00	4	Temperatura máxima	16.4
12215	7	Sololá	710	Panajachel	8	Panajachel	1	Enero	2023-06-01T00:00:00	2024-11-08T08:00:00	3	Temperatura mínima	15.3
12216	7	Sololá	710	Panajachel	8	Panajachel	1	Enero	2023-06-01T00:00:00	2024-11-08T08:00:00	5	Humedad	58
12217	7	Sololá	710	Panajachel	8	Panajachel	1	Enero	2023-06-01T00:00:00	2024-11-08T08:00:00	6	Velocidad del viento	8
12218	7	Sololá	710	Panajachel	8	Panajachel	1	Enero	2023-06-01T00:00:00	2024-11-08T08:00:00	7	Dirección del viento	8.05
12219	7	Sololá	710	Panajachel	8	Panajachel	1	Enero	2023-06-01T00:00:00	2024-11-08T08:00:00	1	Precipitación	0
12220	7	Sololá	710	Panajachel	8	Panajachel	1	Enero	2023-06-01T00:00:00	2024-11-08T08:00:00	8	Radiación solar	31
12221	7	Sololá	710	Panajachel	8	Panajachel	1	Enero	2023-06-01T00:00:00	2024-11-08T09:00:00	2	Temperatura media	18.4
12222	7	Sololá	710	Panajachel	8	Panajachel	1	Enero	2023-06-01T00:00:00	2024-11-08T09:00:00	4	Temperatura máxima	18.5
12223	7	Sololá	710	Panajachel	8	Panajachel	1	Enero	2023-06-01T00:00:00	2024-11-08T09:00:00	3	Temperatura mínima	16.4
12224	7	Sololá	710	Panajachel	8	Panajachel	1	Enero	2023-06-01T00:00:00	2024-11-08T09:00:00	5	Humedad	53
12225	7	Sololá	710	Panajachel	8	Panajachel	1	Enero	2023-06-01T00:00:00	2024-11-08T09:00:00	6	Velocidad del viento	9.7
12226	7	Sololá	710	Panajachel	8	Panajachel	1	Enero	2023-06-01T00:00:00	2024-11-08T09:00:00	7	Dirección del viento	9.66
12227	7	Sololá	710	Panajachel	8	Panajachel	1	Enero	2023-06-01T00:00:00	2024-11-08T09:00:00	1	Precipitación	0
12228	7	Sololá	710	Panajachel	8	Panajachel	1	Enero	2023-06-01T00:00:00	2024-11-08T09:00:00	8	Radiación solar	365
12229	7	Sololá	710	Panajachel	8	Panajachel	1	Enero	2023-06-01T00:00:00	2024-11-08T10:00:00	2	Temperatura media	19.7
12230	7	Sololá	710	Panajachel	8	Panajachel	1	Enero	2023-06-01T00:00:00	2024-11-08T10:00:00	4	Temperatura máxima	19.7
12231	7	Sololá	710	Panajachel	8	Panajachel	1	Enero	2023-06-01T00:00:00	2024-11-08T10:00:00	3	Temperatura mínima	18.4
12232	7	Sololá	710	Panajachel	8	Panajachel	1	Enero	2023-06-01T00:00:00	2024-11-08T10:00:00	5	Humedad	57
12233	7	Sololá	710	Panajachel	8	Panajachel	1	Enero	2023-06-01T00:00:00	2024-11-08T10:00:00	6	Velocidad del viento	11.3
12234	7	Sololá	710	Panajachel	8	Panajachel	1	Enero	2023-06-01T00:00:00	2024-11-08T10:00:00	7	Dirección del viento	11.27
12235	7	Sololá	710	Panajachel	8	Panajachel	1	Enero	2023-06-01T00:00:00	2024-11-08T10:00:00	1	Precipitación	0
12236	7	Sololá	710	Panajachel	8	Panajachel	1	Enero	2023-06-01T00:00:00	2024-11-08T10:00:00	8	Radiación solar	558
12237	7	Sololá	710	Panajachel	8	Panajachel	1	Enero	2023-06-01T00:00:00	2024-11-08T11:00:00	2	Temperatura media	21.1
12238	7	Sololá	710	Panajachel	8	Panajachel	1	Enero	2023-06-01T00:00:00	2024-11-08T11:00:00	4	Temperatura máxima	21.2
12239	7	Sololá	710	Panajachel	8	Panajachel	1	Enero	2023-06-01T00:00:00	2024-11-08T11:00:00	3	Temperatura mínima	19.7
12240	7	Sololá	710	Panajachel	8	Panajachel	1	Enero	2023-06-01T00:00:00	2024-11-08T11:00:00	5	Humedad	55
12241	7	Sololá	710	Panajachel	8	Panajachel	1	Enero	2023-06-01T00:00:00	2024-11-08T11:00:00	6	Velocidad del viento	9.7
12242	7	Sololá	710	Panajachel	8	Panajachel	1	Enero	2023-06-01T00:00:00	2024-11-08T11:00:00	7	Dirección del viento	9.66
12243	7	Sololá	710	Panajachel	8	Panajachel	1	Enero	2023-06-01T00:00:00	2024-11-08T11:00:00	1	Precipitación	0
12244	7	Sololá	710	Panajachel	8	Panajachel	1	Enero	2023-06-01T00:00:00	2024-11-08T11:00:00	8	Radiación solar	698
12245	7	Sololá	710	Panajachel	8	Panajachel	1	Enero	2023-06-01T00:00:00	2024-11-08T12:00:00	2	Temperatura media	21.9
12246	7	Sololá	710	Panajachel	8	Panajachel	1	Enero	2023-06-01T00:00:00	2024-11-08T12:00:00	4	Temperatura máxima	21.9
12247	7	Sololá	710	Panajachel	8	Panajachel	1	Enero	2023-06-01T00:00:00	2024-11-08T12:00:00	3	Temperatura mínima	21.2
12248	7	Sololá	710	Panajachel	8	Panajachel	1	Enero	2023-06-01T00:00:00	2024-11-08T12:00:00	5	Humedad	54
12249	7	Sololá	710	Panajachel	8	Panajachel	1	Enero	2023-06-01T00:00:00	2024-11-08T12:00:00	6	Velocidad del viento	9.7
12250	7	Sololá	710	Panajachel	8	Panajachel	1	Enero	2023-06-01T00:00:00	2024-11-08T12:00:00	7	Dirección del viento	9.66
12251	7	Sololá	710	Panajachel	8	Panajachel	1	Enero	2023-06-01T00:00:00	2024-11-08T12:00:00	1	Precipitación	0
12252	7	Sololá	710	Panajachel	8	Panajachel	1	Enero	2023-06-01T00:00:00	2024-11-08T12:00:00	8	Radiación solar	776
12253	7	Sololá	710	Panajachel	8	Panajachel	1	Enero	2023-06-01T00:00:00	2024-11-08T13:00:00	2	Temperatura media	22.8
12254	7	Sololá	710	Panajachel	8	Panajachel	1	Enero	2023-06-01T00:00:00	2024-11-08T13:00:00	4	Temperatura máxima	22.8
12255	7	Sololá	710	Panajachel	8	Panajachel	1	Enero	2023-06-01T00:00:00	2024-11-08T13:00:00	3	Temperatura mínima	21.4
12256	7	Sololá	710	Panajachel	8	Panajachel	1	Enero	2023-06-01T00:00:00	2024-11-08T13:00:00	5	Humedad	51
12257	7	Sololá	710	Panajachel	8	Panajachel	1	Enero	2023-06-01T00:00:00	2024-11-08T13:00:00	6	Velocidad del viento	9.7
12258	7	Sololá	710	Panajachel	8	Panajachel	1	Enero	2023-06-01T00:00:00	2024-11-08T13:00:00	7	Dirección del viento	9.66
12259	7	Sololá	710	Panajachel	8	Panajachel	1	Enero	2023-06-01T00:00:00	2024-11-08T13:00:00	1	Precipitación	0
12260	7	Sololá	710	Panajachel	8	Panajachel	1	Enero	2023-06-01T00:00:00	2024-11-08T13:00:00	8	Radiación solar	786
12261	7	Sololá	710	Panajachel	8	Panajachel	1	Enero	2023-06-01T00:00:00	2024-11-08T14:00:00	2	Temperatura media	23.3
12262	7	Sololá	710	Panajachel	8	Panajachel	1	Enero	2023-06-01T00:00:00	2024-11-08T14:00:00	4	Temperatura máxima	23.3
12263	7	Sololá	710	Panajachel	8	Panajachel	1	Enero	2023-06-01T00:00:00	2024-11-08T14:00:00	3	Temperatura mínima	22.8
12264	7	Sololá	710	Panajachel	8	Panajachel	1	Enero	2023-06-01T00:00:00	2024-11-08T14:00:00	5	Humedad	47
12265	7	Sololá	710	Panajachel	8	Panajachel	1	Enero	2023-06-01T00:00:00	2024-11-08T14:00:00	6	Velocidad del viento	8
12266	7	Sololá	710	Panajachel	8	Panajachel	1	Enero	2023-06-01T00:00:00	2024-11-08T14:00:00	7	Dirección del viento	8.05
12267	7	Sololá	710	Panajachel	8	Panajachel	1	Enero	2023-06-01T00:00:00	2024-11-08T14:00:00	1	Precipitación	0
12268	7	Sololá	710	Panajachel	8	Panajachel	1	Enero	2023-06-01T00:00:00	2024-11-08T14:00:00	8	Radiación solar	730
12269	7	Sololá	710	Panajachel	8	Panajachel	1	Enero	2023-06-01T00:00:00	2024-11-08T15:00:00	2	Temperatura media	22.9
12270	7	Sololá	710	Panajachel	8	Panajachel	1	Enero	2023-06-01T00:00:00	2024-11-08T15:00:00	4	Temperatura máxima	23.7
12271	7	Sololá	710	Panajachel	8	Panajachel	1	Enero	2023-06-01T00:00:00	2024-11-08T15:00:00	3	Temperatura mínima	22.9
12272	7	Sololá	710	Panajachel	8	Panajachel	1	Enero	2023-06-01T00:00:00	2024-11-08T15:00:00	5	Humedad	49
12273	7	Sololá	710	Panajachel	8	Panajachel	1	Enero	2023-06-01T00:00:00	2024-11-08T15:00:00	6	Velocidad del viento	6.4
12274	7	Sololá	710	Panajachel	8	Panajachel	1	Enero	2023-06-01T00:00:00	2024-11-08T15:00:00	7	Dirección del viento	6.44
12275	7	Sololá	710	Panajachel	8	Panajachel	1	Enero	2023-06-01T00:00:00	2024-11-08T15:00:00	1	Precipitación	0
12276	7	Sololá	710	Panajachel	8	Panajachel	1	Enero	2023-06-01T00:00:00	2024-11-08T15:00:00	8	Radiación solar	600
12277	7	Sololá	710	Panajachel	8	Panajachel	1	Enero	2023-06-01T00:00:00	2024-11-08T16:00:00	2	Temperatura media	22.1
12278	7	Sololá	710	Panajachel	8	Panajachel	1	Enero	2023-06-01T00:00:00	2024-11-08T16:00:00	4	Temperatura máxima	22.9
12279	7	Sololá	710	Panajachel	8	Panajachel	1	Enero	2023-06-01T00:00:00	2024-11-08T16:00:00	3	Temperatura mínima	21.6
12280	7	Sololá	710	Panajachel	8	Panajachel	1	Enero	2023-06-01T00:00:00	2024-11-08T16:00:00	5	Humedad	54
12281	7	Sololá	710	Panajachel	8	Panajachel	1	Enero	2023-06-01T00:00:00	2024-11-08T16:00:00	6	Velocidad del viento	8
12282	7	Sololá	710	Panajachel	8	Panajachel	1	Enero	2023-06-01T00:00:00	2024-11-08T16:00:00	7	Dirección del viento	8.05
12283	7	Sololá	710	Panajachel	8	Panajachel	1	Enero	2023-06-01T00:00:00	2024-11-08T16:00:00	1	Precipitación	0
12284	7	Sololá	710	Panajachel	8	Panajachel	1	Enero	2023-06-01T00:00:00	2024-11-08T16:00:00	8	Radiación solar	278
12285	7	Sololá	710	Panajachel	8	Panajachel	1	Enero	2023-06-01T00:00:00	2024-11-08T17:00:00	2	Temperatura media	19.9
12286	7	Sololá	710	Panajachel	8	Panajachel	1	Enero	2023-06-01T00:00:00	2024-11-08T17:00:00	4	Temperatura máxima	22.1
12287	7	Sololá	710	Panajachel	8	Panajachel	1	Enero	2023-06-01T00:00:00	2024-11-08T17:00:00	3	Temperatura mínima	19.9
12288	7	Sololá	710	Panajachel	8	Panajachel	1	Enero	2023-06-01T00:00:00	2024-11-08T17:00:00	5	Humedad	60
12289	7	Sololá	710	Panajachel	8	Panajachel	1	Enero	2023-06-01T00:00:00	2024-11-08T17:00:00	6	Velocidad del viento	9.7
12290	7	Sololá	710	Panajachel	8	Panajachel	1	Enero	2023-06-01T00:00:00	2024-11-08T17:00:00	7	Dirección del viento	9.66
12291	7	Sololá	710	Panajachel	8	Panajachel	1	Enero	2023-06-01T00:00:00	2024-11-08T17:00:00	1	Precipitación	0
12292	7	Sololá	710	Panajachel	8	Panajachel	1	Enero	2023-06-01T00:00:00	2024-11-08T17:00:00	8	Radiación solar	201
12293	7	Sololá	710	Panajachel	8	Panajachel	1	Enero	2023-06-01T00:00:00	2024-11-08T18:00:00	2	Temperatura media	18.7
12294	7	Sololá	710	Panajachel	8	Panajachel	1	Enero	2023-06-01T00:00:00	2024-11-08T18:00:00	4	Temperatura máxima	19.9
12295	7	Sololá	710	Panajachel	8	Panajachel	1	Enero	2023-06-01T00:00:00	2024-11-08T18:00:00	3	Temperatura mínima	18.7
12296	7	Sololá	710	Panajachel	8	Panajachel	1	Enero	2023-06-01T00:00:00	2024-11-08T18:00:00	5	Humedad	61
12297	7	Sololá	710	Panajachel	8	Panajachel	1	Enero	2023-06-01T00:00:00	2024-11-08T18:00:00	6	Velocidad del viento	8
12298	7	Sololá	710	Panajachel	8	Panajachel	1	Enero	2023-06-01T00:00:00	2024-11-08T18:00:00	7	Dirección del viento	8.05
12299	7	Sololá	710	Panajachel	8	Panajachel	1	Enero	2023-06-01T00:00:00	2024-11-08T18:00:00	1	Precipitación	0
12300	7	Sololá	710	Panajachel	8	Panajachel	1	Enero	2023-06-01T00:00:00	2024-11-08T18:00:00	8	Radiación solar	17
12301	7	Sololá	710	Panajachel	8	Panajachel	1	Enero	2023-06-01T00:00:00	2024-11-08T19:00:00	2	Temperatura media	17.8
12302	7	Sololá	710	Panajachel	8	Panajachel	1	Enero	2023-06-01T00:00:00	2024-11-08T19:00:00	4	Temperatura máxima	18.7
12303	7	Sololá	710	Panajachel	8	Panajachel	1	Enero	2023-06-01T00:00:00	2024-11-08T19:00:00	3	Temperatura mínima	17.8
12304	7	Sololá	710	Panajachel	8	Panajachel	1	Enero	2023-06-01T00:00:00	2024-11-08T19:00:00	5	Humedad	67
12305	7	Sololá	710	Panajachel	8	Panajachel	1	Enero	2023-06-01T00:00:00	2024-11-08T19:00:00	6	Velocidad del viento	4.8
12306	7	Sololá	710	Panajachel	8	Panajachel	1	Enero	2023-06-01T00:00:00	2024-11-08T19:00:00	7	Dirección del viento	4.83
12307	7	Sololá	710	Panajachel	8	Panajachel	1	Enero	2023-06-01T00:00:00	2024-11-08T19:00:00	1	Precipitación	0
12308	7	Sololá	710	Panajachel	8	Panajachel	1	Enero	2023-06-01T00:00:00	2024-11-08T19:00:00	8	Radiación solar	0
12309	7	Sololá	710	Panajachel	8	Panajachel	1	Enero	2023-06-01T00:00:00	2024-11-08T20:00:00	2	Temperatura media	17.6
12310	7	Sololá	710	Panajachel	8	Panajachel	1	Enero	2023-06-01T00:00:00	2024-11-08T20:00:00	4	Temperatura máxima	18
12311	7	Sololá	710	Panajachel	8	Panajachel	1	Enero	2023-06-01T00:00:00	2024-11-08T20:00:00	3	Temperatura mínima	17.5
12312	7	Sololá	710	Panajachel	8	Panajachel	1	Enero	2023-06-01T00:00:00	2024-11-08T20:00:00	5	Humedad	68
12313	7	Sololá	710	Panajachel	8	Panajachel	1	Enero	2023-06-01T00:00:00	2024-11-08T20:00:00	6	Velocidad del viento	11.3
12314	7	Sololá	710	Panajachel	8	Panajachel	1	Enero	2023-06-01T00:00:00	2024-11-08T20:00:00	7	Dirección del viento	11.27
12315	7	Sololá	710	Panajachel	8	Panajachel	1	Enero	2023-06-01T00:00:00	2024-11-08T20:00:00	1	Precipitación	0
12316	7	Sololá	710	Panajachel	8	Panajachel	1	Enero	2023-06-01T00:00:00	2024-11-08T20:00:00	8	Radiación solar	0
12317	7	Sololá	710	Panajachel	8	Panajachel	1	Enero	2023-06-01T00:00:00	2024-11-08T21:00:00	2	Temperatura media	17.4
12318	7	Sololá	710	Panajachel	8	Panajachel	1	Enero	2023-06-01T00:00:00	2024-11-08T21:00:00	4	Temperatura máxima	17.6
12319	7	Sololá	710	Panajachel	8	Panajachel	1	Enero	2023-06-01T00:00:00	2024-11-08T21:00:00	3	Temperatura mínima	17.4
12320	7	Sololá	710	Panajachel	8	Panajachel	1	Enero	2023-06-01T00:00:00	2024-11-08T21:00:00	5	Humedad	68
12321	7	Sololá	710	Panajachel	8	Panajachel	1	Enero	2023-06-01T00:00:00	2024-11-08T21:00:00	6	Velocidad del viento	9.7
12322	7	Sololá	710	Panajachel	8	Panajachel	1	Enero	2023-06-01T00:00:00	2024-11-08T21:00:00	7	Dirección del viento	9.66
12323	7	Sololá	710	Panajachel	8	Panajachel	1	Enero	2023-06-01T00:00:00	2024-11-08T21:00:00	1	Precipitación	0
12324	7	Sololá	710	Panajachel	8	Panajachel	1	Enero	2023-06-01T00:00:00	2024-11-08T21:00:00	8	Radiación solar	0
12325	7	Sololá	710	Panajachel	8	Panajachel	1	Enero	2023-06-01T00:00:00	2024-11-08T22:00:00	2	Temperatura media	17.3
12326	7	Sololá	710	Panajachel	8	Panajachel	1	Enero	2023-06-01T00:00:00	2024-11-08T22:00:00	4	Temperatura máxima	17.4
12327	7	Sololá	710	Panajachel	8	Panajachel	1	Enero	2023-06-01T00:00:00	2024-11-08T22:00:00	3	Temperatura mínima	17.2
12328	7	Sololá	710	Panajachel	8	Panajachel	1	Enero	2023-06-01T00:00:00	2024-11-08T22:00:00	5	Humedad	68
12329	7	Sololá	710	Panajachel	8	Panajachel	1	Enero	2023-06-01T00:00:00	2024-11-08T22:00:00	6	Velocidad del viento	4.8
12330	7	Sololá	710	Panajachel	8	Panajachel	1	Enero	2023-06-01T00:00:00	2024-11-08T22:00:00	7	Dirección del viento	4.83
12331	7	Sololá	710	Panajachel	8	Panajachel	1	Enero	2023-06-01T00:00:00	2024-11-08T22:00:00	1	Precipitación	0
12332	7	Sololá	710	Panajachel	8	Panajachel	1	Enero	2023-06-01T00:00:00	2024-11-08T22:00:00	8	Radiación solar	0
12333	7	Sololá	710	Panajachel	8	Panajachel	1	Enero	2023-06-01T00:00:00	2024-11-08T23:00:00	2	Temperatura media	16.9
12334	7	Sololá	710	Panajachel	8	Panajachel	1	Enero	2023-06-01T00:00:00	2024-11-08T23:00:00	4	Temperatura máxima	17.3
12335	7	Sololá	710	Panajachel	8	Panajachel	1	Enero	2023-06-01T00:00:00	2024-11-08T23:00:00	3	Temperatura mínima	16.8
12336	7	Sololá	710	Panajachel	8	Panajachel	1	Enero	2023-06-01T00:00:00	2024-11-08T23:00:00	5	Humedad	70
12337	7	Sololá	710	Panajachel	8	Panajachel	1	Enero	2023-06-01T00:00:00	2024-11-08T23:00:00	6	Velocidad del viento	4.8
12338	7	Sololá	710	Panajachel	8	Panajachel	1	Enero	2023-06-01T00:00:00	2024-11-08T23:00:00	7	Dirección del viento	4.83
12339	7	Sololá	710	Panajachel	8	Panajachel	1	Enero	2023-06-01T00:00:00	2024-11-08T23:00:00	1	Precipitación	0
12340	7	Sololá	710	Panajachel	8	Panajachel	1	Enero	2023-06-01T00:00:00	2024-11-08T23:00:00	8	Radiación solar	0
12341	7	Sololá	710	Panajachel	8	Panajachel	1	Enero	2023-07-01T00:00:00	2024-11-08T00:00:00	2	Temperatura media	17.2
12342	7	Sololá	710	Panajachel	8	Panajachel	1	Enero	2023-07-01T00:00:00	2024-11-08T00:00:00	4	Temperatura máxima	17.2
12343	7	Sololá	710	Panajachel	8	Panajachel	1	Enero	2023-07-01T00:00:00	2024-11-08T00:00:00	3	Temperatura mínima	16.8
12344	7	Sololá	710	Panajachel	8	Panajachel	1	Enero	2023-07-01T00:00:00	2024-11-08T00:00:00	5	Humedad	69
12345	7	Sololá	710	Panajachel	8	Panajachel	1	Enero	2023-07-01T00:00:00	2024-11-08T00:00:00	6	Velocidad del viento	9.7
12346	7	Sololá	710	Panajachel	8	Panajachel	1	Enero	2023-07-01T00:00:00	2024-11-08T00:00:00	7	Dirección del viento	9.66
12347	7	Sololá	710	Panajachel	8	Panajachel	1	Enero	2023-07-01T00:00:00	2024-11-08T00:00:00	1	Precipitación	0
12348	7	Sololá	710	Panajachel	8	Panajachel	1	Enero	2023-07-01T00:00:00	2024-11-08T00:00:00	8	Radiación solar	0
12349	7	Sololá	710	Panajachel	8	Panajachel	1	Enero	2023-07-01T00:00:00	2024-11-08T01:00:00	2	Temperatura media	17.4
12350	7	Sololá	710	Panajachel	8	Panajachel	1	Enero	2023-07-01T00:00:00	2024-11-08T01:00:00	4	Temperatura máxima	17.4
12351	7	Sololá	710	Panajachel	8	Panajachel	1	Enero	2023-07-01T00:00:00	2024-11-08T01:00:00	3	Temperatura mínima	16.8
12352	7	Sololá	710	Panajachel	8	Panajachel	1	Enero	2023-07-01T00:00:00	2024-11-08T01:00:00	5	Humedad	69
12353	7	Sololá	710	Panajachel	8	Panajachel	1	Enero	2023-07-01T00:00:00	2024-11-08T01:00:00	6	Velocidad del viento	6.4
12354	7	Sololá	710	Panajachel	8	Panajachel	1	Enero	2023-07-01T00:00:00	2024-11-08T01:00:00	7	Dirección del viento	6.44
12355	7	Sololá	710	Panajachel	8	Panajachel	1	Enero	2023-07-01T00:00:00	2024-11-08T01:00:00	1	Precipitación	0
12356	7	Sololá	710	Panajachel	8	Panajachel	1	Enero	2023-07-01T00:00:00	2024-11-08T01:00:00	8	Radiación solar	0
12357	7	Sololá	710	Panajachel	8	Panajachel	1	Enero	2023-07-01T00:00:00	2024-11-08T02:00:00	2	Temperatura media	17.3
12358	7	Sololá	710	Panajachel	8	Panajachel	1	Enero	2023-07-01T00:00:00	2024-11-08T02:00:00	4	Temperatura máxima	17.4
12359	7	Sololá	710	Panajachel	8	Panajachel	1	Enero	2023-07-01T00:00:00	2024-11-08T02:00:00	3	Temperatura mínima	17.3
12360	7	Sololá	710	Panajachel	8	Panajachel	1	Enero	2023-07-01T00:00:00	2024-11-08T02:00:00	5	Humedad	70
12361	7	Sololá	710	Panajachel	8	Panajachel	1	Enero	2023-07-01T00:00:00	2024-11-08T02:00:00	6	Velocidad del viento	8
12362	7	Sololá	710	Panajachel	8	Panajachel	1	Enero	2023-07-01T00:00:00	2024-11-08T02:00:00	7	Dirección del viento	8.05
12363	7	Sololá	710	Panajachel	8	Panajachel	1	Enero	2023-07-01T00:00:00	2024-11-08T02:00:00	1	Precipitación	0
12364	7	Sololá	710	Panajachel	8	Panajachel	1	Enero	2023-07-01T00:00:00	2024-11-08T02:00:00	8	Radiación solar	0
12365	7	Sololá	710	Panajachel	8	Panajachel	1	Enero	2023-07-01T00:00:00	2024-11-08T03:00:00	2	Temperatura media	16.2
12366	7	Sololá	710	Panajachel	8	Panajachel	1	Enero	2023-07-01T00:00:00	2024-11-08T03:00:00	4	Temperatura máxima	17.3
12367	7	Sololá	710	Panajachel	8	Panajachel	1	Enero	2023-07-01T00:00:00	2024-11-08T03:00:00	3	Temperatura mínima	16.2
12368	7	Sololá	710	Panajachel	8	Panajachel	1	Enero	2023-07-01T00:00:00	2024-11-08T03:00:00	5	Humedad	75
12369	7	Sololá	710	Panajachel	8	Panajachel	1	Enero	2023-07-01T00:00:00	2024-11-08T03:00:00	6	Velocidad del viento	4.8
12370	7	Sololá	710	Panajachel	8	Panajachel	1	Enero	2023-07-01T00:00:00	2024-11-08T03:00:00	7	Dirección del viento	4.83
12371	7	Sololá	710	Panajachel	8	Panajachel	1	Enero	2023-07-01T00:00:00	2024-11-08T03:00:00	1	Precipitación	0
12372	7	Sololá	710	Panajachel	8	Panajachel	1	Enero	2023-07-01T00:00:00	2024-11-08T03:00:00	8	Radiación solar	0
12373	7	Sololá	710	Panajachel	8	Panajachel	1	Enero	2023-07-01T00:00:00	2024-11-08T04:00:00	2	Temperatura media	16.2
12374	7	Sololá	710	Panajachel	8	Panajachel	1	Enero	2023-07-01T00:00:00	2024-11-08T04:00:00	4	Temperatura máxima	16.7
12375	7	Sololá	710	Panajachel	8	Panajachel	1	Enero	2023-07-01T00:00:00	2024-11-08T04:00:00	3	Temperatura mínima	15.8
12376	7	Sololá	710	Panajachel	8	Panajachel	1	Enero	2023-07-01T00:00:00	2024-11-08T04:00:00	5	Humedad	75
12377	7	Sololá	710	Panajachel	8	Panajachel	1	Enero	2023-07-01T00:00:00	2024-11-08T04:00:00	6	Velocidad del viento	1.6
12378	7	Sololá	710	Panajachel	8	Panajachel	1	Enero	2023-07-01T00:00:00	2024-11-08T04:00:00	7	Dirección del viento	1.61
12379	7	Sololá	710	Panajachel	8	Panajachel	1	Enero	2023-07-01T00:00:00	2024-11-08T04:00:00	1	Precipitación	0
12380	7	Sololá	710	Panajachel	8	Panajachel	1	Enero	2023-07-01T00:00:00	2024-11-08T04:00:00	8	Radiación solar	0
12381	7	Sololá	710	Panajachel	8	Panajachel	1	Enero	2023-07-01T00:00:00	2024-11-08T05:00:00	2	Temperatura media	16.5
12382	7	Sololá	710	Panajachel	8	Panajachel	1	Enero	2023-07-01T00:00:00	2024-11-08T05:00:00	4	Temperatura máxima	16.6
12383	7	Sololá	710	Panajachel	8	Panajachel	1	Enero	2023-07-01T00:00:00	2024-11-08T05:00:00	3	Temperatura mínima	15.9
12384	7	Sololá	710	Panajachel	8	Panajachel	1	Enero	2023-07-01T00:00:00	2024-11-08T05:00:00	5	Humedad	74
12385	7	Sololá	710	Panajachel	8	Panajachel	1	Enero	2023-07-01T00:00:00	2024-11-08T05:00:00	6	Velocidad del viento	1.6
12386	7	Sololá	710	Panajachel	8	Panajachel	1	Enero	2023-07-01T00:00:00	2024-11-08T05:00:00	7	Dirección del viento	1.61
12387	7	Sololá	710	Panajachel	8	Panajachel	1	Enero	2023-07-01T00:00:00	2024-11-08T05:00:00	1	Precipitación	0
12388	7	Sololá	710	Panajachel	8	Panajachel	1	Enero	2023-07-01T00:00:00	2024-11-08T05:00:00	8	Radiación solar	0
12389	7	Sololá	710	Panajachel	8	Panajachel	1	Enero	2023-07-01T00:00:00	2024-11-08T06:00:00	2	Temperatura media	16.7
12390	7	Sololá	710	Panajachel	8	Panajachel	1	Enero	2023-07-01T00:00:00	2024-11-08T06:00:00	4	Temperatura máxima	16.9
12391	7	Sololá	710	Panajachel	8	Panajachel	1	Enero	2023-07-01T00:00:00	2024-11-08T06:00:00	3	Temperatura mínima	16.5
12392	7	Sololá	710	Panajachel	8	Panajachel	1	Enero	2023-07-01T00:00:00	2024-11-08T06:00:00	5	Humedad	72
12393	7	Sololá	710	Panajachel	8	Panajachel	1	Enero	2023-07-01T00:00:00	2024-11-08T06:00:00	6	Velocidad del viento	11.3
12394	7	Sololá	710	Panajachel	8	Panajachel	1	Enero	2023-07-01T00:00:00	2024-11-08T06:00:00	7	Dirección del viento	11.27
12395	7	Sololá	710	Panajachel	8	Panajachel	1	Enero	2023-07-01T00:00:00	2024-11-08T06:00:00	1	Precipitación	0
12396	7	Sololá	710	Panajachel	8	Panajachel	1	Enero	2023-07-01T00:00:00	2024-11-08T06:00:00	8	Radiación solar	0
12397	7	Sololá	710	Panajachel	8	Panajachel	1	Enero	2023-07-01T00:00:00	2024-11-08T07:00:00	2	Temperatura media	17.1
12398	7	Sololá	710	Panajachel	8	Panajachel	1	Enero	2023-07-01T00:00:00	2024-11-08T07:00:00	4	Temperatura máxima	17.2
12399	7	Sololá	710	Panajachel	8	Panajachel	1	Enero	2023-07-01T00:00:00	2024-11-08T07:00:00	3	Temperatura mínima	16.7
12400	7	Sololá	710	Panajachel	8	Panajachel	1	Enero	2023-07-01T00:00:00	2024-11-08T07:00:00	5	Humedad	69
12401	7	Sololá	710	Panajachel	8	Panajachel	1	Enero	2023-07-01T00:00:00	2024-11-08T07:00:00	6	Velocidad del viento	14.5
12402	7	Sololá	710	Panajachel	8	Panajachel	1	Enero	2023-07-01T00:00:00	2024-11-08T07:00:00	7	Dirección del viento	14.48
12403	7	Sololá	710	Panajachel	8	Panajachel	1	Enero	2023-07-01T00:00:00	2024-11-08T07:00:00	1	Precipitación	0
12404	7	Sololá	710	Panajachel	8	Panajachel	1	Enero	2023-07-01T00:00:00	2024-11-08T07:00:00	8	Radiación solar	7
12405	7	Sololá	710	Panajachel	8	Panajachel	1	Enero	2023-07-01T00:00:00	2024-11-08T08:00:00	2	Temperatura media	18.3
12406	7	Sololá	710	Panajachel	8	Panajachel	1	Enero	2023-07-01T00:00:00	2024-11-08T08:00:00	4	Temperatura máxima	18.3
12407	7	Sololá	710	Panajachel	8	Panajachel	1	Enero	2023-07-01T00:00:00	2024-11-08T08:00:00	3	Temperatura mínima	17.1
12408	7	Sololá	710	Panajachel	8	Panajachel	1	Enero	2023-07-01T00:00:00	2024-11-08T08:00:00	5	Humedad	66
12409	7	Sololá	710	Panajachel	8	Panajachel	1	Enero	2023-07-01T00:00:00	2024-11-08T08:00:00	6	Velocidad del viento	14.5
12410	7	Sololá	710	Panajachel	8	Panajachel	1	Enero	2023-07-01T00:00:00	2024-11-08T08:00:00	7	Dirección del viento	14.48
12411	7	Sololá	710	Panajachel	8	Panajachel	1	Enero	2023-07-01T00:00:00	2024-11-08T08:00:00	1	Precipitación	0
12412	7	Sololá	710	Panajachel	8	Panajachel	1	Enero	2023-07-01T00:00:00	2024-11-08T08:00:00	8	Radiación solar	69
12413	7	Sololá	710	Panajachel	8	Panajachel	1	Enero	2023-07-01T00:00:00	2024-11-08T09:00:00	2	Temperatura media	20.1
12414	7	Sololá	710	Panajachel	8	Panajachel	1	Enero	2023-07-01T00:00:00	2024-11-08T09:00:00	4	Temperatura máxima	20.2
12415	7	Sololá	710	Panajachel	8	Panajachel	1	Enero	2023-07-01T00:00:00	2024-11-08T09:00:00	3	Temperatura mínima	18.3
12416	7	Sololá	710	Panajachel	8	Panajachel	1	Enero	2023-07-01T00:00:00	2024-11-08T09:00:00	5	Humedad	56
12417	7	Sololá	710	Panajachel	8	Panajachel	1	Enero	2023-07-01T00:00:00	2024-11-08T09:00:00	6	Velocidad del viento	14.5
12418	7	Sololá	710	Panajachel	8	Panajachel	1	Enero	2023-07-01T00:00:00	2024-11-08T09:00:00	7	Dirección del viento	14.48
12419	7	Sololá	710	Panajachel	8	Panajachel	1	Enero	2023-07-01T00:00:00	2024-11-08T09:00:00	1	Precipitación	0
12420	7	Sololá	710	Panajachel	8	Panajachel	1	Enero	2023-07-01T00:00:00	2024-11-08T09:00:00	8	Radiación solar	477
12421	7	Sololá	710	Panajachel	8	Panajachel	1	Enero	2023-07-01T00:00:00	2024-11-08T10:00:00	2	Temperatura media	21.2
12422	7	Sololá	710	Panajachel	8	Panajachel	1	Enero	2023-07-01T00:00:00	2024-11-08T10:00:00	4	Temperatura máxima	21.3
12423	7	Sololá	710	Panajachel	8	Panajachel	1	Enero	2023-07-01T00:00:00	2024-11-08T10:00:00	3	Temperatura mínima	19.8
12424	7	Sololá	710	Panajachel	8	Panajachel	1	Enero	2023-07-01T00:00:00	2024-11-08T10:00:00	5	Humedad	56
12425	7	Sololá	710	Panajachel	8	Panajachel	1	Enero	2023-07-01T00:00:00	2024-11-08T10:00:00	6	Velocidad del viento	16.1
12426	7	Sololá	710	Panajachel	8	Panajachel	1	Enero	2023-07-01T00:00:00	2024-11-08T10:00:00	7	Dirección del viento	16.09
12427	7	Sololá	710	Panajachel	8	Panajachel	1	Enero	2023-07-01T00:00:00	2024-11-08T10:00:00	1	Precipitación	0
12428	7	Sololá	710	Panajachel	8	Panajachel	1	Enero	2023-07-01T00:00:00	2024-11-08T10:00:00	8	Radiación solar	600
12429	7	Sololá	710	Panajachel	8	Panajachel	1	Enero	2023-07-01T00:00:00	2024-11-08T11:00:00	2	Temperatura media	22.2
12430	7	Sololá	710	Panajachel	8	Panajachel	1	Enero	2023-07-01T00:00:00	2024-11-08T11:00:00	4	Temperatura máxima	22.3
12431	7	Sololá	710	Panajachel	8	Panajachel	1	Enero	2023-07-01T00:00:00	2024-11-08T11:00:00	3	Temperatura mínima	21.2
12432	7	Sololá	710	Panajachel	8	Panajachel	1	Enero	2023-07-01T00:00:00	2024-11-08T11:00:00	5	Humedad	52
12433	7	Sololá	710	Panajachel	8	Panajachel	1	Enero	2023-07-01T00:00:00	2024-11-08T11:00:00	6	Velocidad del viento	14.5
12434	7	Sololá	710	Panajachel	8	Panajachel	1	Enero	2023-07-01T00:00:00	2024-11-08T11:00:00	7	Dirección del viento	14.48
12435	7	Sololá	710	Panajachel	8	Panajachel	1	Enero	2023-07-01T00:00:00	2024-11-08T11:00:00	1	Precipitación	0
12436	7	Sololá	710	Panajachel	8	Panajachel	1	Enero	2023-07-01T00:00:00	2024-11-08T11:00:00	8	Radiación solar	780
12437	7	Sololá	710	Panajachel	8	Panajachel	1	Enero	2023-07-01T00:00:00	2024-11-08T12:00:00	2	Temperatura media	23.2
12438	7	Sololá	710	Panajachel	8	Panajachel	1	Enero	2023-07-01T00:00:00	2024-11-08T12:00:00	4	Temperatura máxima	23.2
12439	7	Sololá	710	Panajachel	8	Panajachel	1	Enero	2023-07-01T00:00:00	2024-11-08T12:00:00	3	Temperatura mínima	22.1
12440	7	Sololá	710	Panajachel	8	Panajachel	1	Enero	2023-07-01T00:00:00	2024-11-08T12:00:00	5	Humedad	51
12441	7	Sololá	710	Panajachel	8	Panajachel	1	Enero	2023-07-01T00:00:00	2024-11-08T12:00:00	6	Velocidad del viento	9.7
12442	7	Sololá	710	Panajachel	8	Panajachel	1	Enero	2023-07-01T00:00:00	2024-11-08T12:00:00	7	Dirección del viento	9.66
12443	7	Sololá	710	Panajachel	8	Panajachel	1	Enero	2023-07-01T00:00:00	2024-11-08T12:00:00	1	Precipitación	0
12444	7	Sololá	710	Panajachel	8	Panajachel	1	Enero	2023-07-01T00:00:00	2024-11-08T12:00:00	8	Radiación solar	815
12445	7	Sololá	710	Panajachel	8	Panajachel	1	Enero	2023-07-01T00:00:00	2024-11-08T13:00:00	2	Temperatura media	22.8
12446	7	Sololá	710	Panajachel	8	Panajachel	1	Enero	2023-07-01T00:00:00	2024-11-08T13:00:00	4	Temperatura máxima	23.6
12447	7	Sololá	710	Panajachel	8	Panajachel	1	Enero	2023-07-01T00:00:00	2024-11-08T13:00:00	3	Temperatura mínima	22.7
12448	7	Sololá	710	Panajachel	8	Panajachel	1	Enero	2023-07-01T00:00:00	2024-11-08T13:00:00	5	Humedad	52
12449	7	Sololá	710	Panajachel	8	Panajachel	1	Enero	2023-07-01T00:00:00	2024-11-08T13:00:00	6	Velocidad del viento	9.7
12450	7	Sololá	710	Panajachel	8	Panajachel	1	Enero	2023-07-01T00:00:00	2024-11-08T13:00:00	7	Dirección del viento	9.66
12451	7	Sololá	710	Panajachel	8	Panajachel	1	Enero	2023-07-01T00:00:00	2024-11-08T13:00:00	1	Precipitación	0
12452	7	Sololá	710	Panajachel	8	Panajachel	1	Enero	2023-07-01T00:00:00	2024-11-08T13:00:00	8	Radiación solar	633
12453	7	Sololá	710	Panajachel	8	Panajachel	1	Enero	2023-07-01T00:00:00	2024-11-08T14:00:00	2	Temperatura media	22
12454	7	Sololá	710	Panajachel	8	Panajachel	1	Enero	2023-07-01T00:00:00	2024-11-08T14:00:00	4	Temperatura máxima	22.8
12455	7	Sololá	710	Panajachel	8	Panajachel	1	Enero	2023-07-01T00:00:00	2024-11-08T14:00:00	3	Temperatura mínima	21.6
12456	7	Sololá	710	Panajachel	8	Panajachel	1	Enero	2023-07-01T00:00:00	2024-11-08T14:00:00	5	Humedad	55
12457	7	Sololá	710	Panajachel	8	Panajachel	1	Enero	2023-07-01T00:00:00	2024-11-08T14:00:00	6	Velocidad del viento	11.3
12458	7	Sololá	710	Panajachel	8	Panajachel	1	Enero	2023-07-01T00:00:00	2024-11-08T14:00:00	7	Dirección del viento	11.27
12459	7	Sololá	710	Panajachel	8	Panajachel	1	Enero	2023-07-01T00:00:00	2024-11-08T14:00:00	1	Precipitación	0
12460	7	Sololá	710	Panajachel	8	Panajachel	1	Enero	2023-07-01T00:00:00	2024-11-08T14:00:00	8	Radiación solar	325
12461	7	Sololá	710	Panajachel	8	Panajachel	1	Enero	2023-07-01T00:00:00	2024-11-08T15:00:00	2	Temperatura media	21.1
12462	7	Sololá	710	Panajachel	8	Panajachel	1	Enero	2023-07-01T00:00:00	2024-11-08T15:00:00	4	Temperatura máxima	22.2
12463	7	Sololá	710	Panajachel	8	Panajachel	1	Enero	2023-07-01T00:00:00	2024-11-08T15:00:00	3	Temperatura mínima	20.8
12464	7	Sololá	710	Panajachel	8	Panajachel	1	Enero	2023-07-01T00:00:00	2024-11-08T15:00:00	5	Humedad	59
12465	7	Sololá	710	Panajachel	8	Panajachel	1	Enero	2023-07-01T00:00:00	2024-11-08T15:00:00	6	Velocidad del viento	9.7
12466	7	Sololá	710	Panajachel	8	Panajachel	1	Enero	2023-07-01T00:00:00	2024-11-08T15:00:00	7	Dirección del viento	9.66
12467	7	Sololá	710	Panajachel	8	Panajachel	1	Enero	2023-07-01T00:00:00	2024-11-08T15:00:00	1	Precipitación	0
12468	7	Sololá	710	Panajachel	8	Panajachel	1	Enero	2023-07-01T00:00:00	2024-11-08T15:00:00	8	Radiación solar	245
12469	7	Sololá	710	Panajachel	8	Panajachel	1	Enero	2023-07-01T00:00:00	2024-11-08T16:00:00	2	Temperatura media	21.5
12470	7	Sololá	710	Panajachel	8	Panajachel	1	Enero	2023-07-01T00:00:00	2024-11-08T16:00:00	4	Temperatura máxima	21.5
12471	7	Sololá	710	Panajachel	8	Panajachel	1	Enero	2023-07-01T00:00:00	2024-11-08T16:00:00	3	Temperatura mínima	20.3
12472	7	Sololá	710	Panajachel	8	Panajachel	1	Enero	2023-07-01T00:00:00	2024-11-08T16:00:00	5	Humedad	58
12473	7	Sololá	710	Panajachel	8	Panajachel	1	Enero	2023-07-01T00:00:00	2024-11-08T16:00:00	6	Velocidad del viento	9.7
12474	7	Sololá	710	Panajachel	8	Panajachel	1	Enero	2023-07-01T00:00:00	2024-11-08T16:00:00	7	Dirección del viento	9.66
12475	7	Sololá	710	Panajachel	8	Panajachel	1	Enero	2023-07-01T00:00:00	2024-11-08T16:00:00	1	Precipitación	0
12476	7	Sololá	710	Panajachel	8	Panajachel	1	Enero	2023-07-01T00:00:00	2024-11-08T16:00:00	8	Radiación solar	220
12477	7	Sololá	710	Panajachel	8	Panajachel	1	Enero	2023-07-01T00:00:00	2024-11-08T17:00:00	2	Temperatura media	21.6
12478	7	Sololá	710	Panajachel	8	Panajachel	1	Enero	2023-07-01T00:00:00	2024-11-08T17:00:00	4	Temperatura máxima	21.8
12479	7	Sololá	710	Panajachel	8	Panajachel	1	Enero	2023-07-01T00:00:00	2024-11-08T17:00:00	3	Temperatura mínima	21.3
12480	7	Sololá	710	Panajachel	8	Panajachel	1	Enero	2023-07-01T00:00:00	2024-11-08T17:00:00	5	Humedad	58
12481	7	Sololá	710	Panajachel	8	Panajachel	1	Enero	2023-07-01T00:00:00	2024-11-08T17:00:00	6	Velocidad del viento	4.8
12482	7	Sololá	710	Panajachel	8	Panajachel	1	Enero	2023-07-01T00:00:00	2024-11-08T17:00:00	7	Dirección del viento	4.83
12483	7	Sololá	710	Panajachel	8	Panajachel	1	Enero	2023-07-01T00:00:00	2024-11-08T17:00:00	1	Precipitación	0
12484	7	Sololá	710	Panajachel	8	Panajachel	1	Enero	2023-07-01T00:00:00	2024-11-08T17:00:00	8	Radiación solar	258
12485	7	Sololá	710	Panajachel	8	Panajachel	1	Enero	2023-07-01T00:00:00	2024-11-08T18:00:00	2	Temperatura media	19.6
12486	7	Sololá	710	Panajachel	8	Panajachel	1	Enero	2023-07-01T00:00:00	2024-11-08T18:00:00	4	Temperatura máxima	21.6
12487	7	Sololá	710	Panajachel	8	Panajachel	1	Enero	2023-07-01T00:00:00	2024-11-08T18:00:00	3	Temperatura mínima	19.6
12488	7	Sololá	710	Panajachel	8	Panajachel	1	Enero	2023-07-01T00:00:00	2024-11-08T18:00:00	5	Humedad	64
12489	7	Sololá	710	Panajachel	8	Panajachel	1	Enero	2023-07-01T00:00:00	2024-11-08T18:00:00	6	Velocidad del viento	3.2
12490	7	Sololá	710	Panajachel	8	Panajachel	1	Enero	2023-07-01T00:00:00	2024-11-08T18:00:00	7	Dirección del viento	3.22
12491	7	Sololá	710	Panajachel	8	Panajachel	1	Enero	2023-07-01T00:00:00	2024-11-08T18:00:00	1	Precipitación	0
12492	7	Sololá	710	Panajachel	8	Panajachel	1	Enero	2023-07-01T00:00:00	2024-11-08T18:00:00	8	Radiación solar	38
12493	7	Sololá	710	Panajachel	8	Panajachel	1	Enero	2023-07-01T00:00:00	2024-11-08T19:00:00	2	Temperatura media	18.8
12494	7	Sololá	710	Panajachel	8	Panajachel	1	Enero	2023-07-01T00:00:00	2024-11-08T19:00:00	4	Temperatura máxima	19.6
12495	7	Sololá	710	Panajachel	8	Panajachel	1	Enero	2023-07-01T00:00:00	2024-11-08T19:00:00	3	Temperatura mínima	18.8
12496	7	Sololá	710	Panajachel	8	Panajachel	1	Enero	2023-07-01T00:00:00	2024-11-08T19:00:00	5	Humedad	67
12497	7	Sololá	710	Panajachel	8	Panajachel	1	Enero	2023-07-01T00:00:00	2024-11-08T19:00:00	6	Velocidad del viento	6.4
12498	7	Sololá	710	Panajachel	8	Panajachel	1	Enero	2023-07-01T00:00:00	2024-11-08T19:00:00	7	Dirección del viento	6.44
12499	7	Sololá	710	Panajachel	8	Panajachel	1	Enero	2023-07-01T00:00:00	2024-11-08T19:00:00	1	Precipitación	0
12500	7	Sololá	710	Panajachel	8	Panajachel	1	Enero	2023-07-01T00:00:00	2024-11-08T19:00:00	8	Radiación solar	0
12501	7	Sololá	710	Panajachel	8	Panajachel	1	Enero	2023-07-01T00:00:00	2024-11-08T20:00:00	2	Temperatura media	18.2
12502	7	Sololá	710	Panajachel	8	Panajachel	1	Enero	2023-07-01T00:00:00	2024-11-08T20:00:00	4	Temperatura máxima	18.8
12503	7	Sololá	710	Panajachel	8	Panajachel	1	Enero	2023-07-01T00:00:00	2024-11-08T20:00:00	3	Temperatura mínima	18.2
12504	7	Sololá	710	Panajachel	8	Panajachel	1	Enero	2023-07-01T00:00:00	2024-11-08T20:00:00	5	Humedad	68
12505	7	Sololá	710	Panajachel	8	Panajachel	1	Enero	2023-07-01T00:00:00	2024-11-08T20:00:00	6	Velocidad del viento	3.2
12506	7	Sololá	710	Panajachel	8	Panajachel	1	Enero	2023-07-01T00:00:00	2024-11-08T20:00:00	7	Dirección del viento	3.22
12507	7	Sololá	710	Panajachel	8	Panajachel	1	Enero	2023-07-01T00:00:00	2024-11-08T20:00:00	1	Precipitación	0
12508	7	Sololá	710	Panajachel	8	Panajachel	1	Enero	2023-07-01T00:00:00	2024-11-08T20:00:00	8	Radiación solar	0
12509	7	Sololá	710	Panajachel	8	Panajachel	1	Enero	2023-07-01T00:00:00	2024-11-08T21:00:00	2	Temperatura media	18.5
12510	7	Sololá	710	Panajachel	8	Panajachel	1	Enero	2023-07-01T00:00:00	2024-11-08T21:00:00	4	Temperatura máxima	18.6
12511	7	Sololá	710	Panajachel	8	Panajachel	1	Enero	2023-07-01T00:00:00	2024-11-08T21:00:00	3	Temperatura mínima	18.1
12512	7	Sololá	710	Panajachel	8	Panajachel	1	Enero	2023-07-01T00:00:00	2024-11-08T21:00:00	5	Humedad	65
12513	7	Sololá	710	Panajachel	8	Panajachel	1	Enero	2023-07-01T00:00:00	2024-11-08T21:00:00	6	Velocidad del viento	8
12514	7	Sololá	710	Panajachel	8	Panajachel	1	Enero	2023-07-01T00:00:00	2024-11-08T21:00:00	7	Dirección del viento	8.05
12515	7	Sololá	710	Panajachel	8	Panajachel	1	Enero	2023-07-01T00:00:00	2024-11-08T21:00:00	1	Precipitación	0
12516	7	Sololá	710	Panajachel	8	Panajachel	1	Enero	2023-07-01T00:00:00	2024-11-08T21:00:00	8	Radiación solar	0
12517	7	Sololá	710	Panajachel	8	Panajachel	1	Enero	2023-07-01T00:00:00	2024-11-08T22:00:00	2	Temperatura media	18.2
12518	7	Sololá	710	Panajachel	8	Panajachel	1	Enero	2023-07-01T00:00:00	2024-11-08T22:00:00	4	Temperatura máxima	18.6
12519	7	Sololá	710	Panajachel	8	Panajachel	1	Enero	2023-07-01T00:00:00	2024-11-08T22:00:00	3	Temperatura mínima	18.2
12520	7	Sololá	710	Panajachel	8	Panajachel	1	Enero	2023-07-01T00:00:00	2024-11-08T22:00:00	5	Humedad	66
12521	7	Sololá	710	Panajachel	8	Panajachel	1	Enero	2023-07-01T00:00:00	2024-11-08T22:00:00	6	Velocidad del viento	8
12522	7	Sololá	710	Panajachel	8	Panajachel	1	Enero	2023-07-01T00:00:00	2024-11-08T22:00:00	7	Dirección del viento	8.05
12523	7	Sololá	710	Panajachel	8	Panajachel	1	Enero	2023-07-01T00:00:00	2024-11-08T22:00:00	1	Precipitación	0
12524	7	Sololá	710	Panajachel	8	Panajachel	1	Enero	2023-07-01T00:00:00	2024-11-08T22:00:00	8	Radiación solar	0
12525	7	Sololá	710	Panajachel	8	Panajachel	1	Enero	2023-07-01T00:00:00	2024-11-08T23:00:00	2	Temperatura media	18.2
12526	7	Sololá	710	Panajachel	8	Panajachel	1	Enero	2023-07-01T00:00:00	2024-11-08T23:00:00	4	Temperatura máxima	18.5
12527	7	Sololá	710	Panajachel	8	Panajachel	1	Enero	2023-07-01T00:00:00	2024-11-08T23:00:00	3	Temperatura mínima	18.2
12528	7	Sololá	710	Panajachel	8	Panajachel	1	Enero	2023-07-01T00:00:00	2024-11-08T23:00:00	5	Humedad	66
12529	7	Sololá	710	Panajachel	8	Panajachel	1	Enero	2023-07-01T00:00:00	2024-11-08T23:00:00	6	Velocidad del viento	8
12530	7	Sololá	710	Panajachel	8	Panajachel	1	Enero	2023-07-01T00:00:00	2024-11-08T23:00:00	7	Dirección del viento	8.05
12531	7	Sololá	710	Panajachel	8	Panajachel	1	Enero	2023-07-01T00:00:00	2024-11-08T23:00:00	1	Precipitación	0
12532	7	Sololá	710	Panajachel	8	Panajachel	1	Enero	2023-07-01T00:00:00	2024-11-08T23:00:00	8	Radiación solar	0
12533	7	Sololá	710	Panajachel	8	Panajachel	1	Enero	2023-08-01T00:00:00	2024-11-08T00:00:00	2	Temperatura media	18.7
12534	7	Sololá	710	Panajachel	8	Panajachel	1	Enero	2023-08-01T00:00:00	2024-11-08T00:00:00	4	Temperatura máxima	18.8
12535	7	Sololá	710	Panajachel	8	Panajachel	1	Enero	2023-08-01T00:00:00	2024-11-08T00:00:00	3	Temperatura mínima	18.2
12536	7	Sololá	710	Panajachel	8	Panajachel	1	Enero	2023-08-01T00:00:00	2024-11-08T00:00:00	5	Humedad	65
12537	7	Sololá	710	Panajachel	8	Panajachel	1	Enero	2023-08-01T00:00:00	2024-11-08T00:00:00	6	Velocidad del viento	6.4
12538	7	Sololá	710	Panajachel	8	Panajachel	1	Enero	2023-08-01T00:00:00	2024-11-08T00:00:00	7	Dirección del viento	6.44
12539	7	Sololá	710	Panajachel	8	Panajachel	1	Enero	2023-08-01T00:00:00	2024-11-08T00:00:00	1	Precipitación	0
12540	7	Sololá	710	Panajachel	8	Panajachel	1	Enero	2023-08-01T00:00:00	2024-11-08T00:00:00	8	Radiación solar	0
12541	7	Sololá	710	Panajachel	8	Panajachel	1	Enero	2023-08-01T00:00:00	2024-11-08T01:00:00	2	Temperatura media	18.4
12542	7	Sololá	710	Panajachel	8	Panajachel	1	Enero	2023-08-01T00:00:00	2024-11-08T01:00:00	4	Temperatura máxima	18.7
12543	7	Sololá	710	Panajachel	8	Panajachel	1	Enero	2023-08-01T00:00:00	2024-11-08T01:00:00	3	Temperatura mínima	18.3
12544	7	Sololá	710	Panajachel	8	Panajachel	1	Enero	2023-08-01T00:00:00	2024-11-08T01:00:00	5	Humedad	67
12545	7	Sololá	710	Panajachel	8	Panajachel	1	Enero	2023-08-01T00:00:00	2024-11-08T01:00:00	6	Velocidad del viento	8
12546	7	Sololá	710	Panajachel	8	Panajachel	1	Enero	2023-08-01T00:00:00	2024-11-08T01:00:00	7	Dirección del viento	8.05
12547	7	Sololá	710	Panajachel	8	Panajachel	1	Enero	2023-08-01T00:00:00	2024-11-08T01:00:00	1	Precipitación	0
12548	7	Sololá	710	Panajachel	8	Panajachel	1	Enero	2023-08-01T00:00:00	2024-11-08T01:00:00	8	Radiación solar	0
12549	7	Sololá	710	Panajachel	8	Panajachel	1	Enero	2023-08-01T00:00:00	2024-11-08T02:00:00	2	Temperatura media	17.3
12550	7	Sololá	710	Panajachel	8	Panajachel	1	Enero	2023-08-01T00:00:00	2024-11-08T02:00:00	4	Temperatura máxima	18.4
12551	7	Sololá	710	Panajachel	8	Panajachel	1	Enero	2023-08-01T00:00:00	2024-11-08T02:00:00	3	Temperatura mínima	17.3
12552	7	Sololá	710	Panajachel	8	Panajachel	1	Enero	2023-08-01T00:00:00	2024-11-08T02:00:00	5	Humedad	70
12553	7	Sololá	710	Panajachel	8	Panajachel	1	Enero	2023-08-01T00:00:00	2024-11-08T02:00:00	6	Velocidad del viento	9.7
12554	7	Sololá	710	Panajachel	8	Panajachel	1	Enero	2023-08-01T00:00:00	2024-11-08T02:00:00	7	Dirección del viento	9.66
12555	7	Sololá	710	Panajachel	8	Panajachel	1	Enero	2023-08-01T00:00:00	2024-11-08T02:00:00	1	Precipitación	0
12556	7	Sololá	710	Panajachel	8	Panajachel	1	Enero	2023-08-01T00:00:00	2024-11-08T02:00:00	8	Radiación solar	0
12557	7	Sololá	710	Panajachel	8	Panajachel	1	Enero	2023-08-01T00:00:00	2024-11-08T03:00:00	2	Temperatura media	17.4
12558	7	Sololá	710	Panajachel	8	Panajachel	1	Enero	2023-08-01T00:00:00	2024-11-08T03:00:00	4	Temperatura máxima	17.9
12559	7	Sololá	710	Panajachel	8	Panajachel	1	Enero	2023-08-01T00:00:00	2024-11-08T03:00:00	3	Temperatura mínima	17.3
12560	7	Sololá	710	Panajachel	8	Panajachel	1	Enero	2023-08-01T00:00:00	2024-11-08T03:00:00	5	Humedad	70
12561	7	Sololá	710	Panajachel	8	Panajachel	1	Enero	2023-08-01T00:00:00	2024-11-08T03:00:00	6	Velocidad del viento	4.8
12562	7	Sololá	710	Panajachel	8	Panajachel	1	Enero	2023-08-01T00:00:00	2024-11-08T03:00:00	7	Dirección del viento	4.83
12563	7	Sololá	710	Panajachel	8	Panajachel	1	Enero	2023-08-01T00:00:00	2024-11-08T03:00:00	1	Precipitación	0
12564	7	Sololá	710	Panajachel	8	Panajachel	1	Enero	2023-08-01T00:00:00	2024-11-08T03:00:00	8	Radiación solar	0
12565	7	Sololá	710	Panajachel	8	Panajachel	1	Enero	2023-08-01T00:00:00	2024-11-08T04:00:00	2	Temperatura media	16.1
12566	7	Sololá	710	Panajachel	8	Panajachel	1	Enero	2023-08-01T00:00:00	2024-11-08T04:00:00	4	Temperatura máxima	17.4
12567	7	Sololá	710	Panajachel	8	Panajachel	1	Enero	2023-08-01T00:00:00	2024-11-08T04:00:00	3	Temperatura mínima	16.1
12568	7	Sololá	710	Panajachel	8	Panajachel	1	Enero	2023-08-01T00:00:00	2024-11-08T04:00:00	5	Humedad	74
12569	7	Sololá	710	Panajachel	8	Panajachel	1	Enero	2023-08-01T00:00:00	2024-11-08T04:00:00	6	Velocidad del viento	1.6
12570	7	Sololá	710	Panajachel	8	Panajachel	1	Enero	2023-08-01T00:00:00	2024-11-08T04:00:00	7	Dirección del viento	1.61
12571	7	Sololá	710	Panajachel	8	Panajachel	1	Enero	2023-08-01T00:00:00	2024-11-08T04:00:00	1	Precipitación	0
12572	7	Sololá	710	Panajachel	8	Panajachel	1	Enero	2023-08-01T00:00:00	2024-11-08T04:00:00	8	Radiación solar	0
12573	7	Sololá	710	Panajachel	8	Panajachel	1	Enero	2023-08-01T00:00:00	2024-11-08T05:00:00	2	Temperatura media	16.1
12574	7	Sololá	710	Panajachel	8	Panajachel	1	Enero	2023-08-01T00:00:00	2024-11-08T05:00:00	4	Temperatura máxima	16.2
12575	7	Sololá	710	Panajachel	8	Panajachel	1	Enero	2023-08-01T00:00:00	2024-11-08T05:00:00	3	Temperatura mínima	15.8
12576	7	Sololá	710	Panajachel	8	Panajachel	1	Enero	2023-08-01T00:00:00	2024-11-08T05:00:00	5	Humedad	75
12577	7	Sololá	710	Panajachel	8	Panajachel	1	Enero	2023-08-01T00:00:00	2024-11-08T05:00:00	6	Velocidad del viento	1.6
12578	7	Sololá	710	Panajachel	8	Panajachel	1	Enero	2023-08-01T00:00:00	2024-11-08T05:00:00	7	Dirección del viento	1.61
12579	7	Sololá	710	Panajachel	8	Panajachel	1	Enero	2023-08-01T00:00:00	2024-11-08T05:00:00	1	Precipitación	0
12580	7	Sololá	710	Panajachel	8	Panajachel	1	Enero	2023-08-01T00:00:00	2024-11-08T05:00:00	8	Radiación solar	0
12581	7	Sololá	710	Panajachel	8	Panajachel	1	Enero	2023-08-01T00:00:00	2024-11-08T06:00:00	2	Temperatura media	15.8
12582	7	Sololá	710	Panajachel	8	Panajachel	1	Enero	2023-08-01T00:00:00	2024-11-08T06:00:00	4	Temperatura máxima	16.1
12583	7	Sololá	710	Panajachel	8	Panajachel	1	Enero	2023-08-01T00:00:00	2024-11-08T06:00:00	3	Temperatura mínima	15.6
12584	7	Sololá	710	Panajachel	8	Panajachel	1	Enero	2023-08-01T00:00:00	2024-11-08T06:00:00	5	Humedad	76
12585	7	Sololá	710	Panajachel	8	Panajachel	1	Enero	2023-08-01T00:00:00	2024-11-08T06:00:00	6	Velocidad del viento	1.6
12586	7	Sololá	710	Panajachel	8	Panajachel	1	Enero	2023-08-01T00:00:00	2024-11-08T06:00:00	7	Dirección del viento	1.61
12587	7	Sololá	710	Panajachel	8	Panajachel	1	Enero	2023-08-01T00:00:00	2024-11-08T06:00:00	1	Precipitación	0
12588	7	Sololá	710	Panajachel	8	Panajachel	1	Enero	2023-08-01T00:00:00	2024-11-08T06:00:00	8	Radiación solar	0
12589	7	Sololá	710	Panajachel	8	Panajachel	1	Enero	2023-08-01T00:00:00	2024-11-08T07:00:00	2	Temperatura media	15.7
12590	7	Sololá	710	Panajachel	8	Panajachel	1	Enero	2023-08-01T00:00:00	2024-11-08T07:00:00	4	Temperatura máxima	15.9
12591	7	Sololá	710	Panajachel	8	Panajachel	1	Enero	2023-08-01T00:00:00	2024-11-08T07:00:00	3	Temperatura mínima	15.5
12592	7	Sololá	710	Panajachel	8	Panajachel	1	Enero	2023-08-01T00:00:00	2024-11-08T07:00:00	5	Humedad	77
12593	7	Sololá	710	Panajachel	8	Panajachel	1	Enero	2023-08-01T00:00:00	2024-11-08T07:00:00	6	Velocidad del viento	0
12594	7	Sololá	710	Panajachel	8	Panajachel	1	Enero	2023-08-01T00:00:00	2024-11-08T07:00:00	7	Dirección del viento	0
12595	7	Sololá	710	Panajachel	8	Panajachel	1	Enero	2023-08-01T00:00:00	2024-11-08T07:00:00	1	Precipitación	0
12596	7	Sololá	710	Panajachel	8	Panajachel	1	Enero	2023-08-01T00:00:00	2024-11-08T07:00:00	8	Radiación solar	4
12597	7	Sololá	710	Panajachel	8	Panajachel	1	Enero	2023-08-01T00:00:00	2024-11-08T08:00:00	2	Temperatura media	17.5
12598	7	Sololá	710	Panajachel	8	Panajachel	1	Enero	2023-08-01T00:00:00	2024-11-08T08:00:00	4	Temperatura máxima	17.5
12599	7	Sololá	710	Panajachel	8	Panajachel	1	Enero	2023-08-01T00:00:00	2024-11-08T08:00:00	3	Temperatura mínima	15.6
12600	7	Sololá	710	Panajachel	8	Panajachel	1	Enero	2023-08-01T00:00:00	2024-11-08T08:00:00	5	Humedad	74
12601	7	Sololá	710	Panajachel	8	Panajachel	1	Enero	2023-08-01T00:00:00	2024-11-08T08:00:00	6	Velocidad del viento	1.6
12602	7	Sololá	710	Panajachel	8	Panajachel	1	Enero	2023-08-01T00:00:00	2024-11-08T08:00:00	7	Dirección del viento	1.61
12603	7	Sololá	710	Panajachel	8	Panajachel	1	Enero	2023-08-01T00:00:00	2024-11-08T08:00:00	1	Precipitación	0
12604	7	Sololá	710	Panajachel	8	Panajachel	1	Enero	2023-08-01T00:00:00	2024-11-08T08:00:00	8	Radiación solar	48
12605	7	Sololá	710	Panajachel	8	Panajachel	1	Enero	2023-08-01T00:00:00	2024-11-08T09:00:00	2	Temperatura media	20.5
12606	7	Sololá	710	Panajachel	8	Panajachel	1	Enero	2023-08-01T00:00:00	2024-11-08T09:00:00	4	Temperatura máxima	20.5
12607	7	Sololá	710	Panajachel	8	Panajachel	1	Enero	2023-08-01T00:00:00	2024-11-08T09:00:00	3	Temperatura mínima	17.6
12608	7	Sololá	710	Panajachel	8	Panajachel	1	Enero	2023-08-01T00:00:00	2024-11-08T09:00:00	5	Humedad	70
12609	7	Sololá	710	Panajachel	8	Panajachel	1	Enero	2023-08-01T00:00:00	2024-11-08T09:00:00	6	Velocidad del viento	1.6
12610	7	Sololá	710	Panajachel	8	Panajachel	1	Enero	2023-08-01T00:00:00	2024-11-08T09:00:00	7	Dirección del viento	1.61
12611	7	Sololá	710	Panajachel	8	Panajachel	1	Enero	2023-08-01T00:00:00	2024-11-08T09:00:00	1	Precipitación	0
12612	7	Sololá	710	Panajachel	8	Panajachel	1	Enero	2023-08-01T00:00:00	2024-11-08T09:00:00	8	Radiación solar	358
12613	7	Sololá	710	Panajachel	8	Panajachel	1	Enero	2023-08-01T00:00:00	2024-11-08T10:00:00	2	Temperatura media	20.9
12614	7	Sololá	710	Panajachel	8	Panajachel	1	Enero	2023-08-01T00:00:00	2024-11-08T10:00:00	4	Temperatura máxima	21.2
12615	7	Sololá	710	Panajachel	8	Panajachel	1	Enero	2023-08-01T00:00:00	2024-11-08T10:00:00	3	Temperatura mínima	20.3
12616	7	Sololá	710	Panajachel	8	Panajachel	1	Enero	2023-08-01T00:00:00	2024-11-08T10:00:00	5	Humedad	70
12617	7	Sololá	710	Panajachel	8	Panajachel	1	Enero	2023-08-01T00:00:00	2024-11-08T10:00:00	6	Velocidad del viento	4.8
12618	7	Sololá	710	Panajachel	8	Panajachel	1	Enero	2023-08-01T00:00:00	2024-11-08T10:00:00	7	Dirección del viento	4.83
12619	7	Sololá	710	Panajachel	8	Panajachel	1	Enero	2023-08-01T00:00:00	2024-11-08T10:00:00	1	Precipitación	0
12620	7	Sololá	710	Panajachel	8	Panajachel	1	Enero	2023-08-01T00:00:00	2024-11-08T10:00:00	8	Radiación solar	533
12621	7	Sololá	710	Panajachel	8	Panajachel	1	Enero	2023-08-01T00:00:00	2024-11-08T11:00:00	2	Temperatura media	22.2
12622	7	Sololá	710	Panajachel	8	Panajachel	1	Enero	2023-08-01T00:00:00	2024-11-08T11:00:00	4	Temperatura máxima	22.6
12623	7	Sololá	710	Panajachel	8	Panajachel	1	Enero	2023-08-01T00:00:00	2024-11-08T11:00:00	3	Temperatura mínima	20.9
12624	7	Sololá	710	Panajachel	8	Panajachel	1	Enero	2023-08-01T00:00:00	2024-11-08T11:00:00	5	Humedad	65
12625	7	Sololá	710	Panajachel	8	Panajachel	1	Enero	2023-08-01T00:00:00	2024-11-08T11:00:00	6	Velocidad del viento	3.2
12626	7	Sololá	710	Panajachel	8	Panajachel	1	Enero	2023-08-01T00:00:00	2024-11-08T11:00:00	7	Dirección del viento	3.22
12627	7	Sololá	710	Panajachel	8	Panajachel	1	Enero	2023-08-01T00:00:00	2024-11-08T11:00:00	1	Precipitación	0
12628	7	Sololá	710	Panajachel	8	Panajachel	1	Enero	2023-08-01T00:00:00	2024-11-08T11:00:00	8	Radiación solar	701
12629	7	Sololá	710	Panajachel	8	Panajachel	1	Enero	2023-08-01T00:00:00	2024-11-08T12:00:00	2	Temperatura media	22.6
12630	7	Sololá	710	Panajachel	8	Panajachel	1	Enero	2023-08-01T00:00:00	2024-11-08T12:00:00	4	Temperatura máxima	23.3
12631	7	Sololá	710	Panajachel	8	Panajachel	1	Enero	2023-08-01T00:00:00	2024-11-08T12:00:00	3	Temperatura mínima	22.2
12632	7	Sololá	710	Panajachel	8	Panajachel	1	Enero	2023-08-01T00:00:00	2024-11-08T12:00:00	5	Humedad	63
12633	7	Sololá	710	Panajachel	8	Panajachel	1	Enero	2023-08-01T00:00:00	2024-11-08T12:00:00	6	Velocidad del viento	3.2
12634	7	Sololá	710	Panajachel	8	Panajachel	1	Enero	2023-08-01T00:00:00	2024-11-08T12:00:00	7	Dirección del viento	3.22
12635	7	Sololá	710	Panajachel	8	Panajachel	1	Enero	2023-08-01T00:00:00	2024-11-08T12:00:00	1	Precipitación	0
12636	7	Sololá	710	Panajachel	8	Panajachel	1	Enero	2023-08-01T00:00:00	2024-11-08T12:00:00	8	Radiación solar	840
12637	7	Sololá	710	Panajachel	8	Panajachel	1	Enero	2023-08-01T00:00:00	2024-11-08T13:00:00	2	Temperatura media	24.7
12638	7	Sololá	710	Panajachel	8	Panajachel	1	Enero	2023-08-01T00:00:00	2024-11-08T13:00:00	4	Temperatura máxima	24.7
12639	7	Sololá	710	Panajachel	8	Panajachel	1	Enero	2023-08-01T00:00:00	2024-11-08T13:00:00	3	Temperatura mínima	22.6
12640	7	Sololá	710	Panajachel	8	Panajachel	1	Enero	2023-08-01T00:00:00	2024-11-08T13:00:00	5	Humedad	70
12641	7	Sololá	710	Panajachel	8	Panajachel	1	Enero	2023-08-01T00:00:00	2024-11-08T13:00:00	6	Velocidad del viento	3.2
12642	7	Sololá	710	Panajachel	8	Panajachel	1	Enero	2023-08-01T00:00:00	2024-11-08T13:00:00	7	Dirección del viento	3.22
12643	7	Sololá	710	Panajachel	8	Panajachel	1	Enero	2023-08-01T00:00:00	2024-11-08T13:00:00	1	Precipitación	0
12644	7	Sololá	710	Panajachel	8	Panajachel	1	Enero	2023-08-01T00:00:00	2024-11-08T13:00:00	8	Radiación solar	834
12645	7	Sololá	710	Panajachel	8	Panajachel	1	Enero	2023-08-01T00:00:00	2024-11-08T14:00:00	2	Temperatura media	22.8
12646	7	Sololá	710	Panajachel	8	Panajachel	1	Enero	2023-08-01T00:00:00	2024-11-08T14:00:00	4	Temperatura máxima	25.3
12647	7	Sololá	710	Panajachel	8	Panajachel	1	Enero	2023-08-01T00:00:00	2024-11-08T14:00:00	3	Temperatura mínima	22.7
12648	7	Sololá	710	Panajachel	8	Panajachel	1	Enero	2023-08-01T00:00:00	2024-11-08T14:00:00	5	Humedad	74
12649	7	Sololá	710	Panajachel	8	Panajachel	1	Enero	2023-08-01T00:00:00	2024-11-08T14:00:00	6	Velocidad del viento	4.8
12650	7	Sololá	710	Panajachel	8	Panajachel	1	Enero	2023-08-01T00:00:00	2024-11-08T14:00:00	7	Dirección del viento	4.83
12651	7	Sololá	710	Panajachel	8	Panajachel	1	Enero	2023-08-01T00:00:00	2024-11-08T14:00:00	1	Precipitación	0
12652	7	Sololá	710	Panajachel	8	Panajachel	1	Enero	2023-08-01T00:00:00	2024-11-08T14:00:00	8	Radiación solar	500
12653	7	Sololá	710	Panajachel	8	Panajachel	1	Enero	2023-08-01T00:00:00	2024-11-08T15:00:00	2	Temperatura media	22.4
12654	7	Sololá	710	Panajachel	8	Panajachel	1	Enero	2023-08-01T00:00:00	2024-11-08T15:00:00	4	Temperatura máxima	22.8
12655	7	Sololá	710	Panajachel	8	Panajachel	1	Enero	2023-08-01T00:00:00	2024-11-08T15:00:00	3	Temperatura mínima	21.9
12656	7	Sololá	710	Panajachel	8	Panajachel	1	Enero	2023-08-01T00:00:00	2024-11-08T15:00:00	5	Humedad	74
12657	7	Sololá	710	Panajachel	8	Panajachel	1	Enero	2023-08-01T00:00:00	2024-11-08T15:00:00	6	Velocidad del viento	3.2
12658	7	Sololá	710	Panajachel	8	Panajachel	1	Enero	2023-08-01T00:00:00	2024-11-08T15:00:00	7	Dirección del viento	3.22
12659	7	Sololá	710	Panajachel	8	Panajachel	1	Enero	2023-08-01T00:00:00	2024-11-08T15:00:00	1	Precipitación	0
12660	7	Sololá	710	Panajachel	8	Panajachel	1	Enero	2023-08-01T00:00:00	2024-11-08T15:00:00	8	Radiación solar	155
12661	7	Sololá	710	Panajachel	8	Panajachel	1	Enero	2023-08-01T00:00:00	2024-11-08T16:00:00	2	Temperatura media	20.6
12662	7	Sololá	710	Panajachel	8	Panajachel	1	Enero	2023-08-01T00:00:00	2024-11-08T16:00:00	4	Temperatura máxima	23.2
12663	7	Sololá	710	Panajachel	8	Panajachel	1	Enero	2023-08-01T00:00:00	2024-11-08T16:00:00	3	Temperatura mínima	20.6
12664	7	Sololá	710	Panajachel	8	Panajachel	1	Enero	2023-08-01T00:00:00	2024-11-08T16:00:00	5	Humedad	82
12665	7	Sololá	710	Panajachel	8	Panajachel	1	Enero	2023-08-01T00:00:00	2024-11-08T16:00:00	6	Velocidad del viento	6.4
12666	7	Sololá	710	Panajachel	8	Panajachel	1	Enero	2023-08-01T00:00:00	2024-11-08T16:00:00	7	Dirección del viento	6.44
12667	7	Sololá	710	Panajachel	8	Panajachel	1	Enero	2023-08-01T00:00:00	2024-11-08T16:00:00	1	Precipitación	0
12668	7	Sololá	710	Panajachel	8	Panajachel	1	Enero	2023-08-01T00:00:00	2024-11-08T16:00:00	8	Radiación solar	194
12669	7	Sololá	710	Panajachel	8	Panajachel	1	Enero	2023-08-01T00:00:00	2024-11-08T17:00:00	2	Temperatura media	19.7
12670	7	Sololá	710	Panajachel	8	Panajachel	1	Enero	2023-08-01T00:00:00	2024-11-08T17:00:00	4	Temperatura máxima	20.6
12671	7	Sololá	710	Panajachel	8	Panajachel	1	Enero	2023-08-01T00:00:00	2024-11-08T17:00:00	3	Temperatura mínima	19.7
12672	7	Sololá	710	Panajachel	8	Panajachel	1	Enero	2023-08-01T00:00:00	2024-11-08T17:00:00	5	Humedad	84
12673	7	Sololá	710	Panajachel	8	Panajachel	1	Enero	2023-08-01T00:00:00	2024-11-08T17:00:00	6	Velocidad del viento	8
12674	7	Sololá	710	Panajachel	8	Panajachel	1	Enero	2023-08-01T00:00:00	2024-11-08T17:00:00	7	Dirección del viento	8.05
12675	7	Sololá	710	Panajachel	8	Panajachel	1	Enero	2023-08-01T00:00:00	2024-11-08T17:00:00	1	Precipitación	0
12676	7	Sololá	710	Panajachel	8	Panajachel	1	Enero	2023-08-01T00:00:00	2024-11-08T17:00:00	8	Radiación solar	11
12677	7	Sololá	710	Panajachel	8	Panajachel	1	Enero	2023-08-01T00:00:00	2024-11-08T18:00:00	2	Temperatura media	18.2
12678	7	Sololá	710	Panajachel	8	Panajachel	1	Enero	2023-08-01T00:00:00	2024-11-08T18:00:00	4	Temperatura máxima	19.8
12679	7	Sololá	710	Panajachel	8	Panajachel	1	Enero	2023-08-01T00:00:00	2024-11-08T18:00:00	3	Temperatura mínima	18.2
12680	7	Sololá	710	Panajachel	8	Panajachel	1	Enero	2023-08-01T00:00:00	2024-11-08T18:00:00	5	Humedad	93
12681	7	Sololá	710	Panajachel	8	Panajachel	1	Enero	2023-08-01T00:00:00	2024-11-08T18:00:00	6	Velocidad del viento	1.6
12682	7	Sololá	710	Panajachel	8	Panajachel	1	Enero	2023-08-01T00:00:00	2024-11-08T18:00:00	7	Dirección del viento	1.61
12683	7	Sololá	710	Panajachel	8	Panajachel	1	Enero	2023-08-01T00:00:00	2024-11-08T18:00:00	1	Precipitación	6.4
12684	7	Sololá	710	Panajachel	8	Panajachel	1	Enero	2023-08-01T00:00:00	2024-11-08T18:00:00	8	Radiación solar	0
12685	7	Sololá	710	Panajachel	8	Panajachel	1	Enero	2023-08-01T00:00:00	2024-11-08T19:00:00	2	Temperatura media	17.1
12686	7	Sololá	710	Panajachel	8	Panajachel	1	Enero	2023-08-01T00:00:00	2024-11-08T19:00:00	4	Temperatura máxima	18.2
12687	7	Sololá	710	Panajachel	8	Panajachel	1	Enero	2023-08-01T00:00:00	2024-11-08T19:00:00	3	Temperatura mínima	17.1
12688	7	Sololá	710	Panajachel	8	Panajachel	1	Enero	2023-08-01T00:00:00	2024-11-08T19:00:00	5	Humedad	93
12689	7	Sololá	710	Panajachel	8	Panajachel	1	Enero	2023-08-01T00:00:00	2024-11-08T19:00:00	6	Velocidad del viento	0
12690	7	Sololá	710	Panajachel	8	Panajachel	1	Enero	2023-08-01T00:00:00	2024-11-08T19:00:00	7	Dirección del viento	0
12691	7	Sololá	710	Panajachel	8	Panajachel	1	Enero	2023-08-01T00:00:00	2024-11-08T19:00:00	1	Precipitación	0
12692	7	Sololá	710	Panajachel	8	Panajachel	1	Enero	2023-08-01T00:00:00	2024-11-08T19:00:00	8	Radiación solar	0
12693	7	Sololá	710	Panajachel	8	Panajachel	1	Enero	2023-08-01T00:00:00	2024-11-08T20:00:00	2	Temperatura media	16.1
12694	7	Sololá	710	Panajachel	8	Panajachel	1	Enero	2023-08-01T00:00:00	2024-11-08T20:00:00	4	Temperatura máxima	17.1
12695	7	Sololá	710	Panajachel	8	Panajachel	1	Enero	2023-08-01T00:00:00	2024-11-08T20:00:00	3	Temperatura mínima	16.1
12696	7	Sololá	710	Panajachel	8	Panajachel	1	Enero	2023-08-01T00:00:00	2024-11-08T20:00:00	5	Humedad	88
12697	7	Sololá	710	Panajachel	8	Panajachel	1	Enero	2023-08-01T00:00:00	2024-11-08T20:00:00	6	Velocidad del viento	1.6
12698	7	Sololá	710	Panajachel	8	Panajachel	1	Enero	2023-08-01T00:00:00	2024-11-08T20:00:00	7	Dirección del viento	1.61
12699	7	Sololá	710	Panajachel	8	Panajachel	1	Enero	2023-08-01T00:00:00	2024-11-08T20:00:00	1	Precipitación	0
12700	7	Sololá	710	Panajachel	8	Panajachel	1	Enero	2023-08-01T00:00:00	2024-11-08T20:00:00	8	Radiación solar	0
12701	7	Sololá	710	Panajachel	8	Panajachel	1	Enero	2023-08-01T00:00:00	2024-11-08T21:00:00	2	Temperatura media	15.7
12702	7	Sololá	710	Panajachel	8	Panajachel	1	Enero	2023-08-01T00:00:00	2024-11-08T21:00:00	4	Temperatura máxima	16.1
12703	7	Sololá	710	Panajachel	8	Panajachel	1	Enero	2023-08-01T00:00:00	2024-11-08T21:00:00	3	Temperatura mínima	15.6
12704	7	Sololá	710	Panajachel	8	Panajachel	1	Enero	2023-08-01T00:00:00	2024-11-08T21:00:00	5	Humedad	88
12705	7	Sololá	710	Panajachel	8	Panajachel	1	Enero	2023-08-01T00:00:00	2024-11-08T21:00:00	6	Velocidad del viento	1.6
12706	7	Sololá	710	Panajachel	8	Panajachel	1	Enero	2023-08-01T00:00:00	2024-11-08T21:00:00	7	Dirección del viento	1.61
12707	7	Sololá	710	Panajachel	8	Panajachel	1	Enero	2023-08-01T00:00:00	2024-11-08T21:00:00	1	Precipitación	0
12708	7	Sololá	710	Panajachel	8	Panajachel	1	Enero	2023-08-01T00:00:00	2024-11-08T21:00:00	8	Radiación solar	0
12709	7	Sololá	710	Panajachel	8	Panajachel	1	Enero	2023-08-01T00:00:00	2024-11-08T22:00:00	2	Temperatura media	18.1
12710	7	Sololá	710	Panajachel	8	Panajachel	1	Enero	2023-08-01T00:00:00	2024-11-08T22:00:00	4	Temperatura máxima	18.7
12711	7	Sololá	710	Panajachel	8	Panajachel	1	Enero	2023-08-01T00:00:00	2024-11-08T22:00:00	3	Temperatura mínima	15.7
12712	7	Sololá	710	Panajachel	8	Panajachel	1	Enero	2023-08-01T00:00:00	2024-11-08T22:00:00	5	Humedad	75
12713	7	Sololá	710	Panajachel	8	Panajachel	1	Enero	2023-08-01T00:00:00	2024-11-08T22:00:00	6	Velocidad del viento	4.8
12714	7	Sololá	710	Panajachel	8	Panajachel	1	Enero	2023-08-01T00:00:00	2024-11-08T22:00:00	7	Dirección del viento	4.83
12715	7	Sololá	710	Panajachel	8	Panajachel	1	Enero	2023-08-01T00:00:00	2024-11-08T22:00:00	1	Precipitación	0
12716	7	Sololá	710	Panajachel	8	Panajachel	1	Enero	2023-08-01T00:00:00	2024-11-08T22:00:00	8	Radiación solar	0
12717	7	Sololá	710	Panajachel	8	Panajachel	1	Enero	2023-08-01T00:00:00	2024-11-08T23:00:00	2	Temperatura media	16.9
12718	7	Sololá	710	Panajachel	8	Panajachel	1	Enero	2023-08-01T00:00:00	2024-11-08T23:00:00	4	Temperatura máxima	18.1
12719	7	Sololá	710	Panajachel	8	Panajachel	1	Enero	2023-08-01T00:00:00	2024-11-08T23:00:00	3	Temperatura mínima	16.8
12720	7	Sololá	710	Panajachel	8	Panajachel	1	Enero	2023-08-01T00:00:00	2024-11-08T23:00:00	5	Humedad	79
12721	7	Sololá	710	Panajachel	8	Panajachel	1	Enero	2023-08-01T00:00:00	2024-11-08T23:00:00	6	Velocidad del viento	3.2
12722	7	Sololá	710	Panajachel	8	Panajachel	1	Enero	2023-08-01T00:00:00	2024-11-08T23:00:00	7	Dirección del viento	3.22
12723	7	Sololá	710	Panajachel	8	Panajachel	1	Enero	2023-08-01T00:00:00	2024-11-08T23:00:00	1	Precipitación	0
12724	7	Sololá	710	Panajachel	8	Panajachel	1	Enero	2023-08-01T00:00:00	2024-11-08T23:00:00	8	Radiación solar	0
12725	7	Sololá	710	Panajachel	8	Panajachel	1	Enero	2023-09-01T00:00:00	2024-11-08T00:00:00	2	Temperatura media	17.5
12726	7	Sololá	710	Panajachel	8	Panajachel	1	Enero	2023-09-01T00:00:00	2024-11-08T00:00:00	4	Temperatura máxima	17.9
12727	7	Sololá	710	Panajachel	8	Panajachel	1	Enero	2023-09-01T00:00:00	2024-11-08T00:00:00	3	Temperatura mínima	16.5
12728	7	Sololá	710	Panajachel	8	Panajachel	1	Enero	2023-09-01T00:00:00	2024-11-08T00:00:00	5	Humedad	77
12729	7	Sololá	710	Panajachel	8	Panajachel	1	Enero	2023-09-01T00:00:00	2024-11-08T00:00:00	6	Velocidad del viento	3.2
12730	7	Sololá	710	Panajachel	8	Panajachel	1	Enero	2023-09-01T00:00:00	2024-11-08T00:00:00	7	Dirección del viento	3.22
12731	7	Sololá	710	Panajachel	8	Panajachel	1	Enero	2023-09-01T00:00:00	2024-11-08T00:00:00	1	Precipitación	0
12732	7	Sololá	710	Panajachel	8	Panajachel	1	Enero	2023-09-01T00:00:00	2024-11-08T00:00:00	8	Radiación solar	0
12733	7	Sololá	710	Panajachel	8	Panajachel	1	Enero	2023-09-01T00:00:00	2024-11-08T01:00:00	2	Temperatura media	16.6
12734	7	Sololá	710	Panajachel	8	Panajachel	1	Enero	2023-09-01T00:00:00	2024-11-08T01:00:00	4	Temperatura máxima	17.5
12735	7	Sololá	710	Panajachel	8	Panajachel	1	Enero	2023-09-01T00:00:00	2024-11-08T01:00:00	3	Temperatura mínima	15.7
12736	7	Sololá	710	Panajachel	8	Panajachel	1	Enero	2023-09-01T00:00:00	2024-11-08T01:00:00	5	Humedad	79
12737	7	Sololá	710	Panajachel	8	Panajachel	1	Enero	2023-09-01T00:00:00	2024-11-08T01:00:00	6	Velocidad del viento	1.6
12738	7	Sololá	710	Panajachel	8	Panajachel	1	Enero	2023-09-01T00:00:00	2024-11-08T01:00:00	7	Dirección del viento	1.61
12739	7	Sololá	710	Panajachel	8	Panajachel	1	Enero	2023-09-01T00:00:00	2024-11-08T01:00:00	1	Precipitación	0
12740	7	Sololá	710	Panajachel	8	Panajachel	1	Enero	2023-09-01T00:00:00	2024-11-08T01:00:00	8	Radiación solar	0
12741	7	Sololá	710	Panajachel	8	Panajachel	1	Enero	2023-09-01T00:00:00	2024-11-08T02:00:00	2	Temperatura media	17.1
12742	7	Sololá	710	Panajachel	8	Panajachel	1	Enero	2023-09-01T00:00:00	2024-11-08T02:00:00	4	Temperatura máxima	17.2
12743	7	Sololá	710	Panajachel	8	Panajachel	1	Enero	2023-09-01T00:00:00	2024-11-08T02:00:00	3	Temperatura mínima	16.6
12744	7	Sololá	710	Panajachel	8	Panajachel	1	Enero	2023-09-01T00:00:00	2024-11-08T02:00:00	5	Humedad	76
12745	7	Sololá	710	Panajachel	8	Panajachel	1	Enero	2023-09-01T00:00:00	2024-11-08T02:00:00	6	Velocidad del viento	1.6
12746	7	Sololá	710	Panajachel	8	Panajachel	1	Enero	2023-09-01T00:00:00	2024-11-08T02:00:00	7	Dirección del viento	1.61
12747	7	Sololá	710	Panajachel	8	Panajachel	1	Enero	2023-09-01T00:00:00	2024-11-08T02:00:00	1	Precipitación	0
12748	7	Sololá	710	Panajachel	8	Panajachel	1	Enero	2023-09-01T00:00:00	2024-11-08T02:00:00	8	Radiación solar	0
12749	7	Sololá	710	Panajachel	8	Panajachel	1	Enero	2023-09-01T00:00:00	2024-11-08T03:00:00	2	Temperatura media	16.3
12750	7	Sololá	710	Panajachel	8	Panajachel	1	Enero	2023-09-01T00:00:00	2024-11-08T03:00:00	4	Temperatura máxima	17.3
12751	7	Sololá	710	Panajachel	8	Panajachel	1	Enero	2023-09-01T00:00:00	2024-11-08T03:00:00	3	Temperatura mínima	16.3
12752	7	Sololá	710	Panajachel	8	Panajachel	1	Enero	2023-09-01T00:00:00	2024-11-08T03:00:00	5	Humedad	77
12753	7	Sololá	710	Panajachel	8	Panajachel	1	Enero	2023-09-01T00:00:00	2024-11-08T03:00:00	6	Velocidad del viento	3.2
12754	7	Sololá	710	Panajachel	8	Panajachel	1	Enero	2023-09-01T00:00:00	2024-11-08T03:00:00	7	Dirección del viento	3.22
12755	7	Sololá	710	Panajachel	8	Panajachel	1	Enero	2023-09-01T00:00:00	2024-11-08T03:00:00	1	Precipitación	0
12756	7	Sololá	710	Panajachel	8	Panajachel	1	Enero	2023-09-01T00:00:00	2024-11-08T03:00:00	8	Radiación solar	0
12757	7	Sololá	710	Panajachel	8	Panajachel	1	Enero	2023-09-01T00:00:00	2024-11-08T04:00:00	2	Temperatura media	14.8
12758	7	Sololá	710	Panajachel	8	Panajachel	1	Enero	2023-09-01T00:00:00	2024-11-08T04:00:00	4	Temperatura máxima	16.3
12759	7	Sololá	710	Panajachel	8	Panajachel	1	Enero	2023-09-01T00:00:00	2024-11-08T04:00:00	3	Temperatura mínima	14.8
12760	7	Sololá	710	Panajachel	8	Panajachel	1	Enero	2023-09-01T00:00:00	2024-11-08T04:00:00	5	Humedad	83
12761	7	Sololá	710	Panajachel	8	Panajachel	1	Enero	2023-09-01T00:00:00	2024-11-08T04:00:00	6	Velocidad del viento	0
12762	7	Sololá	710	Panajachel	8	Panajachel	1	Enero	2023-09-01T00:00:00	2024-11-08T04:00:00	7	Dirección del viento	0
12763	7	Sololá	710	Panajachel	8	Panajachel	1	Enero	2023-09-01T00:00:00	2024-11-08T04:00:00	1	Precipitación	0
12764	7	Sololá	710	Panajachel	8	Panajachel	1	Enero	2023-09-01T00:00:00	2024-11-08T04:00:00	8	Radiación solar	0
12765	7	Sololá	710	Panajachel	8	Panajachel	1	Enero	2023-09-01T00:00:00	2024-11-08T05:00:00	2	Temperatura media	13.7
12766	7	Sololá	710	Panajachel	8	Panajachel	1	Enero	2023-09-01T00:00:00	2024-11-08T05:00:00	4	Temperatura máxima	14.9
12767	7	Sololá	710	Panajachel	8	Panajachel	1	Enero	2023-09-01T00:00:00	2024-11-08T05:00:00	3	Temperatura mínima	13.7
12768	7	Sololá	710	Panajachel	8	Panajachel	1	Enero	2023-09-01T00:00:00	2024-11-08T05:00:00	5	Humedad	86
12769	7	Sololá	710	Panajachel	8	Panajachel	1	Enero	2023-09-01T00:00:00	2024-11-08T05:00:00	6	Velocidad del viento	0
12770	7	Sololá	710	Panajachel	8	Panajachel	1	Enero	2023-09-01T00:00:00	2024-11-08T05:00:00	7	Dirección del viento	0
12771	7	Sololá	710	Panajachel	8	Panajachel	1	Enero	2023-09-01T00:00:00	2024-11-08T05:00:00	1	Precipitación	0
12772	7	Sololá	710	Panajachel	8	Panajachel	1	Enero	2023-09-01T00:00:00	2024-11-08T05:00:00	8	Radiación solar	0
12773	7	Sololá	710	Panajachel	8	Panajachel	1	Enero	2023-09-01T00:00:00	2024-11-08T06:00:00	2	Temperatura media	13.4
12774	7	Sololá	710	Panajachel	8	Panajachel	1	Enero	2023-09-01T00:00:00	2024-11-08T06:00:00	4	Temperatura máxima	13.8
12775	7	Sololá	710	Panajachel	8	Panajachel	1	Enero	2023-09-01T00:00:00	2024-11-08T06:00:00	3	Temperatura mínima	13.2
12776	7	Sololá	710	Panajachel	8	Panajachel	1	Enero	2023-09-01T00:00:00	2024-11-08T06:00:00	5	Humedad	86
12777	7	Sololá	710	Panajachel	8	Panajachel	1	Enero	2023-09-01T00:00:00	2024-11-08T06:00:00	6	Velocidad del viento	0
12778	7	Sololá	710	Panajachel	8	Panajachel	1	Enero	2023-09-01T00:00:00	2024-11-08T06:00:00	7	Dirección del viento	0
12779	7	Sololá	710	Panajachel	8	Panajachel	1	Enero	2023-09-01T00:00:00	2024-11-08T06:00:00	1	Precipitación	0
12780	7	Sololá	710	Panajachel	8	Panajachel	1	Enero	2023-09-01T00:00:00	2024-11-08T06:00:00	8	Radiación solar	0
12781	7	Sololá	710	Panajachel	8	Panajachel	1	Enero	2023-09-01T00:00:00	2024-11-08T07:00:00	2	Temperatura media	13.4
12782	7	Sololá	710	Panajachel	8	Panajachel	1	Enero	2023-09-01T00:00:00	2024-11-08T07:00:00	4	Temperatura máxima	13.4
12783	7	Sololá	710	Panajachel	8	Panajachel	1	Enero	2023-09-01T00:00:00	2024-11-08T07:00:00	3	Temperatura mínima	13.1
12784	7	Sololá	710	Panajachel	8	Panajachel	1	Enero	2023-09-01T00:00:00	2024-11-08T07:00:00	5	Humedad	84
12785	7	Sololá	710	Panajachel	8	Panajachel	1	Enero	2023-09-01T00:00:00	2024-11-08T07:00:00	6	Velocidad del viento	0
12786	7	Sololá	710	Panajachel	8	Panajachel	1	Enero	2023-09-01T00:00:00	2024-11-08T07:00:00	7	Dirección del viento	0
12787	7	Sololá	710	Panajachel	8	Panajachel	1	Enero	2023-09-01T00:00:00	2024-11-08T07:00:00	1	Precipitación	0
12788	7	Sololá	710	Panajachel	8	Panajachel	1	Enero	2023-09-01T00:00:00	2024-11-08T07:00:00	8	Radiación solar	4
12789	7	Sololá	710	Panajachel	8	Panajachel	1	Enero	2023-09-01T00:00:00	2024-11-08T08:00:00	2	Temperatura media	16
12790	7	Sololá	710	Panajachel	8	Panajachel	1	Enero	2023-09-01T00:00:00	2024-11-08T08:00:00	4	Temperatura máxima	16
12791	7	Sololá	710	Panajachel	8	Panajachel	1	Enero	2023-09-01T00:00:00	2024-11-08T08:00:00	3	Temperatura mínima	13.4
12792	7	Sololá	710	Panajachel	8	Panajachel	1	Enero	2023-09-01T00:00:00	2024-11-08T08:00:00	5	Humedad	80
12793	7	Sololá	710	Panajachel	8	Panajachel	1	Enero	2023-09-01T00:00:00	2024-11-08T08:00:00	6	Velocidad del viento	0
12794	7	Sololá	710	Panajachel	8	Panajachel	1	Enero	2023-09-01T00:00:00	2024-11-08T08:00:00	7	Dirección del viento	0
12795	7	Sololá	710	Panajachel	8	Panajachel	1	Enero	2023-09-01T00:00:00	2024-11-08T08:00:00	1	Precipitación	0
12796	7	Sololá	710	Panajachel	8	Panajachel	1	Enero	2023-09-01T00:00:00	2024-11-08T08:00:00	8	Radiación solar	44
12797	7	Sololá	710	Panajachel	8	Panajachel	1	Enero	2023-09-01T00:00:00	2024-11-08T09:00:00	2	Temperatura media	18.4
12798	7	Sololá	710	Panajachel	8	Panajachel	1	Enero	2023-09-01T00:00:00	2024-11-08T09:00:00	4	Temperatura máxima	18.4
12799	7	Sololá	710	Panajachel	8	Panajachel	1	Enero	2023-09-01T00:00:00	2024-11-08T09:00:00	3	Temperatura mínima	16
12800	7	Sololá	710	Panajachel	8	Panajachel	1	Enero	2023-09-01T00:00:00	2024-11-08T09:00:00	5	Humedad	79
12801	7	Sololá	710	Panajachel	8	Panajachel	1	Enero	2023-09-01T00:00:00	2024-11-08T09:00:00	6	Velocidad del viento	1.6
12802	7	Sololá	710	Panajachel	8	Panajachel	1	Enero	2023-09-01T00:00:00	2024-11-08T09:00:00	7	Dirección del viento	1.61
12803	7	Sololá	710	Panajachel	8	Panajachel	1	Enero	2023-09-01T00:00:00	2024-11-08T09:00:00	1	Precipitación	0
12804	7	Sololá	710	Panajachel	8	Panajachel	1	Enero	2023-09-01T00:00:00	2024-11-08T09:00:00	8	Radiación solar	363
12805	7	Sololá	710	Panajachel	8	Panajachel	1	Enero	2023-09-01T00:00:00	2024-11-08T10:00:00	2	Temperatura media	20.1
12806	7	Sololá	710	Panajachel	8	Panajachel	1	Enero	2023-09-01T00:00:00	2024-11-08T10:00:00	4	Temperatura máxima	20.1
12807	7	Sololá	710	Panajachel	8	Panajachel	1	Enero	2023-09-01T00:00:00	2024-11-08T10:00:00	3	Temperatura mínima	18.5
12808	7	Sololá	710	Panajachel	8	Panajachel	1	Enero	2023-09-01T00:00:00	2024-11-08T10:00:00	5	Humedad	75
12809	7	Sololá	710	Panajachel	8	Panajachel	1	Enero	2023-09-01T00:00:00	2024-11-08T10:00:00	6	Velocidad del viento	3.2
12810	7	Sololá	710	Panajachel	8	Panajachel	1	Enero	2023-09-01T00:00:00	2024-11-08T10:00:00	7	Dirección del viento	3.22
12811	7	Sololá	710	Panajachel	8	Panajachel	1	Enero	2023-09-01T00:00:00	2024-11-08T10:00:00	1	Precipitación	0
12812	7	Sololá	710	Panajachel	8	Panajachel	1	Enero	2023-09-01T00:00:00	2024-11-08T10:00:00	8	Radiación solar	553
12813	7	Sololá	710	Panajachel	8	Panajachel	1	Enero	2023-09-01T00:00:00	2024-11-08T11:00:00	2	Temperatura media	22.3
12814	7	Sololá	710	Panajachel	8	Panajachel	1	Enero	2023-09-01T00:00:00	2024-11-08T11:00:00	4	Temperatura máxima	22.3
12815	7	Sololá	710	Panajachel	8	Panajachel	1	Enero	2023-09-01T00:00:00	2024-11-08T11:00:00	3	Temperatura mínima	19.9
12816	7	Sololá	710	Panajachel	8	Panajachel	1	Enero	2023-09-01T00:00:00	2024-11-08T11:00:00	5	Humedad	65
12817	7	Sololá	710	Panajachel	8	Panajachel	1	Enero	2023-09-01T00:00:00	2024-11-08T11:00:00	6	Velocidad del viento	4.8
12818	7	Sololá	710	Panajachel	8	Panajachel	1	Enero	2023-09-01T00:00:00	2024-11-08T11:00:00	7	Dirección del viento	4.83
12819	7	Sololá	710	Panajachel	8	Panajachel	1	Enero	2023-09-01T00:00:00	2024-11-08T11:00:00	1	Precipitación	0
12820	7	Sololá	710	Panajachel	8	Panajachel	1	Enero	2023-09-01T00:00:00	2024-11-08T11:00:00	8	Radiación solar	701
12821	7	Sololá	710	Panajachel	8	Panajachel	1	Enero	2023-09-01T00:00:00	2024-11-08T12:00:00	2	Temperatura media	22.6
12822	7	Sololá	710	Panajachel	8	Panajachel	1	Enero	2023-09-01T00:00:00	2024-11-08T12:00:00	4	Temperatura máxima	22.6
12823	7	Sololá	710	Panajachel	8	Panajachel	1	Enero	2023-09-01T00:00:00	2024-11-08T12:00:00	3	Temperatura mínima	21.3
12824	7	Sololá	710	Panajachel	8	Panajachel	1	Enero	2023-09-01T00:00:00	2024-11-08T12:00:00	5	Humedad	69
12825	7	Sololá	710	Panajachel	8	Panajachel	1	Enero	2023-09-01T00:00:00	2024-11-08T12:00:00	6	Velocidad del viento	6.4
12826	7	Sololá	710	Panajachel	8	Panajachel	1	Enero	2023-09-01T00:00:00	2024-11-08T12:00:00	7	Dirección del viento	6.44
12827	7	Sololá	710	Panajachel	8	Panajachel	1	Enero	2023-09-01T00:00:00	2024-11-08T12:00:00	1	Precipitación	0
12828	7	Sololá	710	Panajachel	8	Panajachel	1	Enero	2023-09-01T00:00:00	2024-11-08T12:00:00	8	Radiación solar	794
12829	7	Sololá	710	Panajachel	8	Panajachel	1	Enero	2023-09-01T00:00:00	2024-11-08T13:00:00	2	Temperatura media	23.7
12830	7	Sololá	710	Panajachel	8	Panajachel	1	Enero	2023-09-01T00:00:00	2024-11-08T13:00:00	4	Temperatura máxima	23.7
12831	7	Sololá	710	Panajachel	8	Panajachel	1	Enero	2023-09-01T00:00:00	2024-11-08T13:00:00	3	Temperatura mínima	21.8
12832	7	Sololá	710	Panajachel	8	Panajachel	1	Enero	2023-09-01T00:00:00	2024-11-08T13:00:00	5	Humedad	75
12833	7	Sololá	710	Panajachel	8	Panajachel	1	Enero	2023-09-01T00:00:00	2024-11-08T13:00:00	6	Velocidad del viento	6.4
12834	7	Sololá	710	Panajachel	8	Panajachel	1	Enero	2023-09-01T00:00:00	2024-11-08T13:00:00	7	Dirección del viento	6.44
12835	7	Sololá	710	Panajachel	8	Panajachel	1	Enero	2023-09-01T00:00:00	2024-11-08T13:00:00	1	Precipitación	0
12836	7	Sololá	710	Panajachel	8	Panajachel	1	Enero	2023-09-01T00:00:00	2024-11-08T13:00:00	8	Radiación solar	843
12837	7	Sololá	710	Panajachel	8	Panajachel	1	Enero	2023-09-01T00:00:00	2024-11-08T14:00:00	2	Temperatura media	22.7
12838	7	Sololá	710	Panajachel	8	Panajachel	1	Enero	2023-09-01T00:00:00	2024-11-08T14:00:00	4	Temperatura máxima	23.9
12839	7	Sololá	710	Panajachel	8	Panajachel	1	Enero	2023-09-01T00:00:00	2024-11-08T14:00:00	3	Temperatura mínima	22.2
12840	7	Sololá	710	Panajachel	8	Panajachel	1	Enero	2023-09-01T00:00:00	2024-11-08T14:00:00	5	Humedad	75
12841	7	Sololá	710	Panajachel	8	Panajachel	1	Enero	2023-09-01T00:00:00	2024-11-08T14:00:00	6	Velocidad del viento	6.4
12842	7	Sololá	710	Panajachel	8	Panajachel	1	Enero	2023-09-01T00:00:00	2024-11-08T14:00:00	7	Dirección del viento	6.44
12843	7	Sololá	710	Panajachel	8	Panajachel	1	Enero	2023-09-01T00:00:00	2024-11-08T14:00:00	1	Precipitación	0
12844	7	Sololá	710	Panajachel	8	Panajachel	1	Enero	2023-09-01T00:00:00	2024-11-08T14:00:00	8	Radiación solar	604
12845	7	Sololá	710	Panajachel	8	Panajachel	1	Enero	2023-09-01T00:00:00	2024-11-08T15:00:00	2	Temperatura media	22
12846	7	Sololá	710	Panajachel	8	Panajachel	1	Enero	2023-09-01T00:00:00	2024-11-08T15:00:00	4	Temperatura máxima	22.7
12847	7	Sololá	710	Panajachel	8	Panajachel	1	Enero	2023-09-01T00:00:00	2024-11-08T15:00:00	3	Temperatura mínima	20.7
12848	7	Sololá	710	Panajachel	8	Panajachel	1	Enero	2023-09-01T00:00:00	2024-11-08T15:00:00	5	Humedad	76
12849	7	Sololá	710	Panajachel	8	Panajachel	1	Enero	2023-09-01T00:00:00	2024-11-08T15:00:00	6	Velocidad del viento	4.8
12850	7	Sololá	710	Panajachel	8	Panajachel	1	Enero	2023-09-01T00:00:00	2024-11-08T15:00:00	7	Dirección del viento	4.83
12851	7	Sololá	710	Panajachel	8	Panajachel	1	Enero	2023-09-01T00:00:00	2024-11-08T15:00:00	1	Precipitación	0
12852	7	Sololá	710	Panajachel	8	Panajachel	1	Enero	2023-09-01T00:00:00	2024-11-08T15:00:00	8	Radiación solar	265
12853	7	Sololá	710	Panajachel	8	Panajachel	1	Enero	2023-09-01T00:00:00	2024-11-08T16:00:00	2	Temperatura media	22.2
12854	7	Sololá	710	Panajachel	8	Panajachel	1	Enero	2023-09-01T00:00:00	2024-11-08T16:00:00	4	Temperatura máxima	22.7
12855	7	Sololá	710	Panajachel	8	Panajachel	1	Enero	2023-09-01T00:00:00	2024-11-08T16:00:00	3	Temperatura mínima	22
12856	7	Sololá	710	Panajachel	8	Panajachel	1	Enero	2023-09-01T00:00:00	2024-11-08T16:00:00	5	Humedad	76
12857	7	Sololá	710	Panajachel	8	Panajachel	1	Enero	2023-09-01T00:00:00	2024-11-08T16:00:00	6	Velocidad del viento	4.8
12858	7	Sololá	710	Panajachel	8	Panajachel	1	Enero	2023-09-01T00:00:00	2024-11-08T16:00:00	7	Dirección del viento	4.83
12859	7	Sololá	710	Panajachel	8	Panajachel	1	Enero	2023-09-01T00:00:00	2024-11-08T16:00:00	1	Precipitación	0
12860	7	Sololá	710	Panajachel	8	Panajachel	1	Enero	2023-09-01T00:00:00	2024-11-08T16:00:00	8	Radiación solar	494
12861	7	Sololá	710	Panajachel	8	Panajachel	1	Enero	2023-09-01T00:00:00	2024-11-08T17:00:00	2	Temperatura media	21.4
12862	7	Sololá	710	Panajachel	8	Panajachel	1	Enero	2023-09-01T00:00:00	2024-11-08T17:00:00	4	Temperatura máxima	22.3
12863	7	Sololá	710	Panajachel	8	Panajachel	1	Enero	2023-09-01T00:00:00	2024-11-08T17:00:00	3	Temperatura mínima	21.4
12864	7	Sololá	710	Panajachel	8	Panajachel	1	Enero	2023-09-01T00:00:00	2024-11-08T17:00:00	5	Humedad	78
12865	7	Sololá	710	Panajachel	8	Panajachel	1	Enero	2023-09-01T00:00:00	2024-11-08T17:00:00	6	Velocidad del viento	3.2
12866	7	Sololá	710	Panajachel	8	Panajachel	1	Enero	2023-09-01T00:00:00	2024-11-08T17:00:00	7	Dirección del viento	3.22
12867	7	Sololá	710	Panajachel	8	Panajachel	1	Enero	2023-09-01T00:00:00	2024-11-08T17:00:00	1	Precipitación	0
12868	7	Sololá	710	Panajachel	8	Panajachel	1	Enero	2023-09-01T00:00:00	2024-11-08T17:00:00	8	Radiación solar	239
12869	7	Sololá	710	Panajachel	8	Panajachel	1	Enero	2023-09-01T00:00:00	2024-11-08T18:00:00	2	Temperatura media	19.4
12870	7	Sololá	710	Panajachel	8	Panajachel	1	Enero	2023-09-01T00:00:00	2024-11-08T18:00:00	4	Temperatura máxima	21.3
12871	7	Sololá	710	Panajachel	8	Panajachel	1	Enero	2023-09-01T00:00:00	2024-11-08T18:00:00	3	Temperatura mínima	19.4
12872	7	Sololá	710	Panajachel	8	Panajachel	1	Enero	2023-09-01T00:00:00	2024-11-08T18:00:00	5	Humedad	83
12873	7	Sololá	710	Panajachel	8	Panajachel	1	Enero	2023-09-01T00:00:00	2024-11-08T18:00:00	6	Velocidad del viento	0
12874	7	Sololá	710	Panajachel	8	Panajachel	1	Enero	2023-09-01T00:00:00	2024-11-08T18:00:00	7	Dirección del viento	0
12875	7	Sololá	710	Panajachel	8	Panajachel	1	Enero	2023-09-01T00:00:00	2024-11-08T18:00:00	1	Precipitación	0
12876	7	Sololá	710	Panajachel	8	Panajachel	1	Enero	2023-09-01T00:00:00	2024-11-08T18:00:00	8	Radiación solar	39
12877	7	Sololá	710	Panajachel	8	Panajachel	1	Enero	2023-09-01T00:00:00	2024-11-08T19:00:00	2	Temperatura media	18
12878	7	Sololá	710	Panajachel	8	Panajachel	1	Enero	2023-09-01T00:00:00	2024-11-08T19:00:00	4	Temperatura máxima	19.4
12879	7	Sololá	710	Panajachel	8	Panajachel	1	Enero	2023-09-01T00:00:00	2024-11-08T19:00:00	3	Temperatura mínima	17.9
12880	7	Sololá	710	Panajachel	8	Panajachel	1	Enero	2023-09-01T00:00:00	2024-11-08T19:00:00	5	Humedad	86
12881	7	Sololá	710	Panajachel	8	Panajachel	1	Enero	2023-09-01T00:00:00	2024-11-08T19:00:00	6	Velocidad del viento	0
12882	7	Sololá	710	Panajachel	8	Panajachel	1	Enero	2023-09-01T00:00:00	2024-11-08T19:00:00	7	Dirección del viento	0
12883	7	Sololá	710	Panajachel	8	Panajachel	1	Enero	2023-09-01T00:00:00	2024-11-08T19:00:00	1	Precipitación	0
12884	7	Sololá	710	Panajachel	8	Panajachel	1	Enero	2023-09-01T00:00:00	2024-11-08T19:00:00	8	Radiación solar	0
12885	7	Sololá	710	Panajachel	8	Panajachel	1	Enero	2023-09-01T00:00:00	2024-11-08T20:00:00	2	Temperatura media	17.7
12886	7	Sololá	710	Panajachel	8	Panajachel	1	Enero	2023-09-01T00:00:00	2024-11-08T20:00:00	4	Temperatura máxima	17.9
12887	7	Sololá	710	Panajachel	8	Panajachel	1	Enero	2023-09-01T00:00:00	2024-11-08T20:00:00	3	Temperatura mínima	17.5
12888	7	Sololá	710	Panajachel	8	Panajachel	1	Enero	2023-09-01T00:00:00	2024-11-08T20:00:00	5	Humedad	79
12889	7	Sololá	710	Panajachel	8	Panajachel	1	Enero	2023-09-01T00:00:00	2024-11-08T20:00:00	6	Velocidad del viento	1.6
12890	7	Sololá	710	Panajachel	8	Panajachel	1	Enero	2023-09-01T00:00:00	2024-11-08T20:00:00	7	Dirección del viento	1.61
12891	7	Sololá	710	Panajachel	8	Panajachel	1	Enero	2023-09-01T00:00:00	2024-11-08T20:00:00	1	Precipitación	0
12892	7	Sololá	710	Panajachel	8	Panajachel	1	Enero	2023-09-01T00:00:00	2024-11-08T20:00:00	8	Radiación solar	0
12893	7	Sololá	710	Panajachel	8	Panajachel	1	Enero	2023-09-01T00:00:00	2024-11-08T21:00:00	2	Temperatura media	17.2
12894	7	Sololá	710	Panajachel	8	Panajachel	1	Enero	2023-09-01T00:00:00	2024-11-08T21:00:00	4	Temperatura máxima	17.6
12895	7	Sololá	710	Panajachel	8	Panajachel	1	Enero	2023-09-01T00:00:00	2024-11-08T21:00:00	3	Temperatura mínima	17.2
12896	7	Sololá	710	Panajachel	8	Panajachel	1	Enero	2023-09-01T00:00:00	2024-11-08T21:00:00	5	Humedad	78
12897	7	Sololá	710	Panajachel	8	Panajachel	1	Enero	2023-09-01T00:00:00	2024-11-08T21:00:00	6	Velocidad del viento	1.6
12898	7	Sololá	710	Panajachel	8	Panajachel	1	Enero	2023-09-01T00:00:00	2024-11-08T21:00:00	7	Dirección del viento	1.61
12899	7	Sololá	710	Panajachel	8	Panajachel	1	Enero	2023-09-01T00:00:00	2024-11-08T21:00:00	1	Precipitación	0
12900	7	Sololá	710	Panajachel	8	Panajachel	1	Enero	2023-09-01T00:00:00	2024-11-08T21:00:00	8	Radiación solar	0
12901	7	Sololá	710	Panajachel	8	Panajachel	1	Enero	2023-09-01T00:00:00	2024-11-08T22:00:00	2	Temperatura media	18.7
12902	7	Sololá	710	Panajachel	8	Panajachel	1	Enero	2023-09-01T00:00:00	2024-11-08T22:00:00	4	Temperatura máxima	18.7
12903	7	Sololá	710	Panajachel	8	Panajachel	1	Enero	2023-09-01T00:00:00	2024-11-08T22:00:00	3	Temperatura mínima	17
12904	7	Sololá	710	Panajachel	8	Panajachel	1	Enero	2023-09-01T00:00:00	2024-11-08T22:00:00	5	Humedad	73
12905	7	Sololá	710	Panajachel	8	Panajachel	1	Enero	2023-09-01T00:00:00	2024-11-08T22:00:00	6	Velocidad del viento	3.2
12906	7	Sololá	710	Panajachel	8	Panajachel	1	Enero	2023-09-01T00:00:00	2024-11-08T22:00:00	7	Dirección del viento	3.22
12907	7	Sololá	710	Panajachel	8	Panajachel	1	Enero	2023-09-01T00:00:00	2024-11-08T22:00:00	1	Precipitación	0
12908	7	Sololá	710	Panajachel	8	Panajachel	1	Enero	2023-09-01T00:00:00	2024-11-08T22:00:00	8	Radiación solar	0
12909	7	Sololá	710	Panajachel	8	Panajachel	1	Enero	2023-09-01T00:00:00	2024-11-08T23:00:00	2	Temperatura media	18.3
12910	7	Sololá	710	Panajachel	8	Panajachel	1	Enero	2023-09-01T00:00:00	2024-11-08T23:00:00	4	Temperatura máxima	18.9
12911	7	Sololá	710	Panajachel	8	Panajachel	1	Enero	2023-09-01T00:00:00	2024-11-08T23:00:00	3	Temperatura mínima	18.1
12912	7	Sololá	710	Panajachel	8	Panajachel	1	Enero	2023-09-01T00:00:00	2024-11-08T23:00:00	5	Humedad	74
12913	7	Sololá	710	Panajachel	8	Panajachel	1	Enero	2023-09-01T00:00:00	2024-11-08T23:00:00	6	Velocidad del viento	8
12914	7	Sololá	710	Panajachel	8	Panajachel	1	Enero	2023-09-01T00:00:00	2024-11-08T23:00:00	7	Dirección del viento	8.05
12915	7	Sololá	710	Panajachel	8	Panajachel	1	Enero	2023-09-01T00:00:00	2024-11-08T23:00:00	1	Precipitación	0
12916	7	Sololá	710	Panajachel	8	Panajachel	1	Enero	2023-09-01T00:00:00	2024-11-08T23:00:00	8	Radiación solar	0
12917	7	Sololá	710	Panajachel	8	Panajachel	1	Enero	2023-10-01T00:00:00	2024-11-08T00:00:00	2	Temperatura media	17.4
12918	7	Sololá	710	Panajachel	8	Panajachel	1	Enero	2023-10-01T00:00:00	2024-11-08T00:00:00	4	Temperatura máxima	18.3
12919	7	Sololá	710	Panajachel	8	Panajachel	1	Enero	2023-10-01T00:00:00	2024-11-08T00:00:00	3	Temperatura mínima	17.4
12920	7	Sololá	710	Panajachel	8	Panajachel	1	Enero	2023-10-01T00:00:00	2024-11-08T00:00:00	5	Humedad	77
12921	7	Sololá	710	Panajachel	8	Panajachel	1	Enero	2023-10-01T00:00:00	2024-11-08T00:00:00	6	Velocidad del viento	3.2
12922	7	Sololá	710	Panajachel	8	Panajachel	1	Enero	2023-10-01T00:00:00	2024-11-08T00:00:00	7	Dirección del viento	3.22
12923	7	Sololá	710	Panajachel	8	Panajachel	1	Enero	2023-10-01T00:00:00	2024-11-08T00:00:00	1	Precipitación	0
12924	7	Sololá	710	Panajachel	8	Panajachel	1	Enero	2023-10-01T00:00:00	2024-11-08T00:00:00	8	Radiación solar	0
12925	7	Sololá	710	Panajachel	8	Panajachel	1	Enero	2023-10-01T00:00:00	2024-11-08T01:00:00	2	Temperatura media	17.9
12926	7	Sololá	710	Panajachel	8	Panajachel	1	Enero	2023-10-01T00:00:00	2024-11-08T01:00:00	4	Temperatura máxima	17.9
12927	7	Sololá	710	Panajachel	8	Panajachel	1	Enero	2023-10-01T00:00:00	2024-11-08T01:00:00	3	Temperatura mínima	17.4
12928	7	Sololá	710	Panajachel	8	Panajachel	1	Enero	2023-10-01T00:00:00	2024-11-08T01:00:00	5	Humedad	74
12929	7	Sololá	710	Panajachel	8	Panajachel	1	Enero	2023-10-01T00:00:00	2024-11-08T01:00:00	6	Velocidad del viento	4.8
12930	7	Sololá	710	Panajachel	8	Panajachel	1	Enero	2023-10-01T00:00:00	2024-11-08T01:00:00	7	Dirección del viento	4.83
12931	7	Sololá	710	Panajachel	8	Panajachel	1	Enero	2023-10-01T00:00:00	2024-11-08T01:00:00	1	Precipitación	0
12932	7	Sololá	710	Panajachel	8	Panajachel	1	Enero	2023-10-01T00:00:00	2024-11-08T01:00:00	8	Radiación solar	0
12933	7	Sololá	710	Panajachel	8	Panajachel	1	Enero	2023-10-01T00:00:00	2024-11-08T02:00:00	2	Temperatura media	16.1
12934	7	Sololá	710	Panajachel	8	Panajachel	1	Enero	2023-10-01T00:00:00	2024-11-08T02:00:00	4	Temperatura máxima	18
12935	7	Sololá	710	Panajachel	8	Panajachel	1	Enero	2023-10-01T00:00:00	2024-11-08T02:00:00	3	Temperatura mínima	16.1
12936	7	Sololá	710	Panajachel	8	Panajachel	1	Enero	2023-10-01T00:00:00	2024-11-08T02:00:00	5	Humedad	80
12937	7	Sololá	710	Panajachel	8	Panajachel	1	Enero	2023-10-01T00:00:00	2024-11-08T02:00:00	6	Velocidad del viento	0
12938	7	Sololá	710	Panajachel	8	Panajachel	1	Enero	2023-10-01T00:00:00	2024-11-08T02:00:00	7	Dirección del viento	0
12939	7	Sololá	710	Panajachel	8	Panajachel	1	Enero	2023-10-01T00:00:00	2024-11-08T02:00:00	1	Precipitación	0
12940	7	Sololá	710	Panajachel	8	Panajachel	1	Enero	2023-10-01T00:00:00	2024-11-08T02:00:00	8	Radiación solar	0
12941	7	Sololá	710	Panajachel	8	Panajachel	1	Enero	2023-10-01T00:00:00	2024-11-08T03:00:00	2	Temperatura media	15.6
12942	7	Sololá	710	Panajachel	8	Panajachel	1	Enero	2023-10-01T00:00:00	2024-11-08T03:00:00	4	Temperatura máxima	16.1
12943	7	Sololá	710	Panajachel	8	Panajachel	1	Enero	2023-10-01T00:00:00	2024-11-08T03:00:00	3	Temperatura mínima	15.4
12944	7	Sololá	710	Panajachel	8	Panajachel	1	Enero	2023-10-01T00:00:00	2024-11-08T03:00:00	5	Humedad	80
12945	7	Sololá	710	Panajachel	8	Panajachel	1	Enero	2023-10-01T00:00:00	2024-11-08T03:00:00	6	Velocidad del viento	0
12946	7	Sololá	710	Panajachel	8	Panajachel	1	Enero	2023-10-01T00:00:00	2024-11-08T03:00:00	7	Dirección del viento	0
12947	7	Sololá	710	Panajachel	8	Panajachel	1	Enero	2023-10-01T00:00:00	2024-11-08T03:00:00	1	Precipitación	0
12948	7	Sololá	710	Panajachel	8	Panajachel	1	Enero	2023-10-01T00:00:00	2024-11-08T03:00:00	8	Radiación solar	0
12949	7	Sololá	710	Panajachel	8	Panajachel	1	Enero	2023-10-01T00:00:00	2024-11-08T04:00:00	2	Temperatura media	14.1
12950	7	Sololá	710	Panajachel	8	Panajachel	1	Enero	2023-10-01T00:00:00	2024-11-08T04:00:00	4	Temperatura máxima	15.6
12951	7	Sololá	710	Panajachel	8	Panajachel	1	Enero	2023-10-01T00:00:00	2024-11-08T04:00:00	3	Temperatura mínima	14.1
12952	7	Sololá	710	Panajachel	8	Panajachel	1	Enero	2023-10-01T00:00:00	2024-11-08T04:00:00	5	Humedad	84
12953	7	Sololá	710	Panajachel	8	Panajachel	1	Enero	2023-10-01T00:00:00	2024-11-08T04:00:00	6	Velocidad del viento	0
12954	7	Sololá	710	Panajachel	8	Panajachel	1	Enero	2023-10-01T00:00:00	2024-11-08T04:00:00	7	Dirección del viento	0
12955	7	Sololá	710	Panajachel	8	Panajachel	1	Enero	2023-10-01T00:00:00	2024-11-08T04:00:00	1	Precipitación	0
12956	7	Sololá	710	Panajachel	8	Panajachel	1	Enero	2023-10-01T00:00:00	2024-11-08T04:00:00	8	Radiación solar	0
12957	7	Sololá	710	Panajachel	8	Panajachel	1	Enero	2023-10-01T00:00:00	2024-11-08T05:00:00	2	Temperatura media	13.7
12958	7	Sololá	710	Panajachel	8	Panajachel	1	Enero	2023-10-01T00:00:00	2024-11-08T05:00:00	4	Temperatura máxima	14.1
12959	7	Sololá	710	Panajachel	8	Panajachel	1	Enero	2023-10-01T00:00:00	2024-11-08T05:00:00	3	Temperatura mínima	13.6
12960	7	Sololá	710	Panajachel	8	Panajachel	1	Enero	2023-10-01T00:00:00	2024-11-08T05:00:00	5	Humedad	84
12961	7	Sololá	710	Panajachel	8	Panajachel	1	Enero	2023-10-01T00:00:00	2024-11-08T05:00:00	6	Velocidad del viento	0
12962	7	Sololá	710	Panajachel	8	Panajachel	1	Enero	2023-10-01T00:00:00	2024-11-08T05:00:00	7	Dirección del viento	0
12963	7	Sololá	710	Panajachel	8	Panajachel	1	Enero	2023-10-01T00:00:00	2024-11-08T05:00:00	1	Precipitación	0
12964	7	Sololá	710	Panajachel	8	Panajachel	1	Enero	2023-10-01T00:00:00	2024-11-08T05:00:00	8	Radiación solar	0
12965	7	Sololá	710	Panajachel	8	Panajachel	1	Enero	2023-10-01T00:00:00	2024-11-08T06:00:00	2	Temperatura media	13.6
12966	7	Sololá	710	Panajachel	8	Panajachel	1	Enero	2023-10-01T00:00:00	2024-11-08T06:00:00	4	Temperatura máxima	13.8
12967	7	Sololá	710	Panajachel	8	Panajachel	1	Enero	2023-10-01T00:00:00	2024-11-08T06:00:00	3	Temperatura mínima	13.5
12968	7	Sololá	710	Panajachel	8	Panajachel	1	Enero	2023-10-01T00:00:00	2024-11-08T06:00:00	5	Humedad	84
12969	7	Sololá	710	Panajachel	8	Panajachel	1	Enero	2023-10-01T00:00:00	2024-11-08T06:00:00	6	Velocidad del viento	0
12970	7	Sololá	710	Panajachel	8	Panajachel	1	Enero	2023-10-01T00:00:00	2024-11-08T06:00:00	7	Dirección del viento	0
12971	7	Sololá	710	Panajachel	8	Panajachel	1	Enero	2023-10-01T00:00:00	2024-11-08T06:00:00	1	Precipitación	0
12972	7	Sololá	710	Panajachel	8	Panajachel	1	Enero	2023-10-01T00:00:00	2024-11-08T06:00:00	8	Radiación solar	0
12973	7	Sololá	710	Panajachel	8	Panajachel	1	Enero	2023-10-01T00:00:00	2024-11-08T07:00:00	2	Temperatura media	13.6
12974	7	Sololá	710	Panajachel	8	Panajachel	1	Enero	2023-10-01T00:00:00	2024-11-08T07:00:00	4	Temperatura máxima	13.7
12975	7	Sololá	710	Panajachel	8	Panajachel	1	Enero	2023-10-01T00:00:00	2024-11-08T07:00:00	3	Temperatura mínima	13.4
12976	7	Sololá	710	Panajachel	8	Panajachel	1	Enero	2023-10-01T00:00:00	2024-11-08T07:00:00	5	Humedad	84
12977	7	Sololá	710	Panajachel	8	Panajachel	1	Enero	2023-10-01T00:00:00	2024-11-08T07:00:00	6	Velocidad del viento	0
12978	7	Sololá	710	Panajachel	8	Panajachel	1	Enero	2023-10-01T00:00:00	2024-11-08T07:00:00	7	Dirección del viento	0
12979	7	Sololá	710	Panajachel	8	Panajachel	1	Enero	2023-10-01T00:00:00	2024-11-08T07:00:00	1	Precipitación	0
12980	7	Sololá	710	Panajachel	8	Panajachel	1	Enero	2023-10-01T00:00:00	2024-11-08T07:00:00	8	Radiación solar	4
12981	7	Sololá	710	Panajachel	8	Panajachel	1	Enero	2023-10-01T00:00:00	2024-11-08T08:00:00	2	Temperatura media	15.6
12982	7	Sololá	710	Panajachel	8	Panajachel	1	Enero	2023-10-01T00:00:00	2024-11-08T08:00:00	4	Temperatura máxima	15.6
12983	7	Sololá	710	Panajachel	8	Panajachel	1	Enero	2023-10-01T00:00:00	2024-11-08T08:00:00	3	Temperatura mínima	13.5
12984	7	Sololá	710	Panajachel	8	Panajachel	1	Enero	2023-10-01T00:00:00	2024-11-08T08:00:00	5	Humedad	78
12985	7	Sololá	710	Panajachel	8	Panajachel	1	Enero	2023-10-01T00:00:00	2024-11-08T08:00:00	6	Velocidad del viento	0
12986	7	Sololá	710	Panajachel	8	Panajachel	1	Enero	2023-10-01T00:00:00	2024-11-08T08:00:00	7	Dirección del viento	0
12987	7	Sololá	710	Panajachel	8	Panajachel	1	Enero	2023-10-01T00:00:00	2024-11-08T08:00:00	1	Precipitación	0
12988	7	Sololá	710	Panajachel	8	Panajachel	1	Enero	2023-10-01T00:00:00	2024-11-08T08:00:00	8	Radiación solar	36
12989	7	Sololá	710	Panajachel	8	Panajachel	1	Enero	2023-10-01T00:00:00	2024-11-08T09:00:00	2	Temperatura media	18.7
12990	7	Sololá	710	Panajachel	8	Panajachel	1	Enero	2023-10-01T00:00:00	2024-11-08T09:00:00	4	Temperatura máxima	18.7
12991	7	Sololá	710	Panajachel	8	Panajachel	1	Enero	2023-10-01T00:00:00	2024-11-08T09:00:00	3	Temperatura mínima	15.6
12992	7	Sololá	710	Panajachel	8	Panajachel	1	Enero	2023-10-01T00:00:00	2024-11-08T09:00:00	5	Humedad	77
12993	7	Sololá	710	Panajachel	8	Panajachel	1	Enero	2023-10-01T00:00:00	2024-11-08T09:00:00	6	Velocidad del viento	1.6
12994	7	Sololá	710	Panajachel	8	Panajachel	1	Enero	2023-10-01T00:00:00	2024-11-08T09:00:00	7	Dirección del viento	1.61
12995	7	Sololá	710	Panajachel	8	Panajachel	1	Enero	2023-10-01T00:00:00	2024-11-08T09:00:00	1	Precipitación	0
12996	7	Sololá	710	Panajachel	8	Panajachel	1	Enero	2023-10-01T00:00:00	2024-11-08T09:00:00	8	Radiación solar	357
12997	7	Sololá	710	Panajachel	8	Panajachel	1	Enero	2023-10-01T00:00:00	2024-11-08T10:00:00	2	Temperatura media	20
12998	7	Sololá	710	Panajachel	8	Panajachel	1	Enero	2023-10-01T00:00:00	2024-11-08T10:00:00	4	Temperatura máxima	20
12999	7	Sololá	710	Panajachel	8	Panajachel	1	Enero	2023-10-01T00:00:00	2024-11-08T10:00:00	3	Temperatura mínima	18.7
13000	7	Sololá	710	Panajachel	8	Panajachel	1	Enero	2023-10-01T00:00:00	2024-11-08T10:00:00	5	Humedad	75
13001	7	Sololá	710	Panajachel	8	Panajachel	1	Enero	2023-10-01T00:00:00	2024-11-08T10:00:00	6	Velocidad del viento	3.2
13002	7	Sololá	710	Panajachel	8	Panajachel	1	Enero	2023-10-01T00:00:00	2024-11-08T10:00:00	7	Dirección del viento	3.22
13003	7	Sololá	710	Panajachel	8	Panajachel	1	Enero	2023-10-01T00:00:00	2024-11-08T10:00:00	1	Precipitación	0
13004	7	Sololá	710	Panajachel	8	Panajachel	1	Enero	2023-10-01T00:00:00	2024-11-08T10:00:00	8	Radiación solar	546
13005	7	Sololá	710	Panajachel	8	Panajachel	1	Enero	2023-10-01T00:00:00	2024-11-08T11:00:00	2	Temperatura media	21.2
13006	7	Sololá	710	Panajachel	8	Panajachel	1	Enero	2023-10-01T00:00:00	2024-11-08T11:00:00	4	Temperatura máxima	21.2
13007	7	Sololá	710	Panajachel	8	Panajachel	1	Enero	2023-10-01T00:00:00	2024-11-08T11:00:00	3	Temperatura mínima	19.9
13008	7	Sololá	710	Panajachel	8	Panajachel	1	Enero	2023-10-01T00:00:00	2024-11-08T11:00:00	5	Humedad	70
13009	7	Sololá	710	Panajachel	8	Panajachel	1	Enero	2023-10-01T00:00:00	2024-11-08T11:00:00	6	Velocidad del viento	3.2
13010	7	Sololá	710	Panajachel	8	Panajachel	1	Enero	2023-10-01T00:00:00	2024-11-08T11:00:00	7	Dirección del viento	3.22
13011	7	Sololá	710	Panajachel	8	Panajachel	1	Enero	2023-10-01T00:00:00	2024-11-08T11:00:00	1	Precipitación	0
13012	7	Sololá	710	Panajachel	8	Panajachel	1	Enero	2023-10-01T00:00:00	2024-11-08T11:00:00	8	Radiación solar	696
13013	7	Sololá	710	Panajachel	8	Panajachel	1	Enero	2023-10-01T00:00:00	2024-11-08T12:00:00	2	Temperatura media	22.8
13014	7	Sololá	710	Panajachel	8	Panajachel	1	Enero	2023-10-01T00:00:00	2024-11-08T12:00:00	4	Temperatura máxima	23.1
13015	7	Sololá	710	Panajachel	8	Panajachel	1	Enero	2023-10-01T00:00:00	2024-11-08T12:00:00	3	Temperatura mínima	21.1
13016	7	Sololá	710	Panajachel	8	Panajachel	1	Enero	2023-10-01T00:00:00	2024-11-08T12:00:00	5	Humedad	65
13017	7	Sololá	710	Panajachel	8	Panajachel	1	Enero	2023-10-01T00:00:00	2024-11-08T12:00:00	6	Velocidad del viento	4.8
13018	7	Sololá	710	Panajachel	8	Panajachel	1	Enero	2023-10-01T00:00:00	2024-11-08T12:00:00	7	Dirección del viento	4.83
13019	7	Sololá	710	Panajachel	8	Panajachel	1	Enero	2023-10-01T00:00:00	2024-11-08T12:00:00	1	Precipitación	0
13020	7	Sololá	710	Panajachel	8	Panajachel	1	Enero	2023-10-01T00:00:00	2024-11-08T12:00:00	8	Radiación solar	790
13021	7	Sololá	710	Panajachel	8	Panajachel	1	Enero	2023-10-01T00:00:00	2024-11-08T13:00:00	2	Temperatura media	23.3
13022	7	Sololá	710	Panajachel	8	Panajachel	1	Enero	2023-10-01T00:00:00	2024-11-08T13:00:00	4	Temperatura máxima	23.5
13023	7	Sololá	710	Panajachel	8	Panajachel	1	Enero	2023-10-01T00:00:00	2024-11-08T13:00:00	3	Temperatura mínima	22.7
13024	7	Sololá	710	Panajachel	8	Panajachel	1	Enero	2023-10-01T00:00:00	2024-11-08T13:00:00	5	Humedad	76
13025	7	Sololá	710	Panajachel	8	Panajachel	1	Enero	2023-10-01T00:00:00	2024-11-08T13:00:00	6	Velocidad del viento	4.8
13026	7	Sololá	710	Panajachel	8	Panajachel	1	Enero	2023-10-01T00:00:00	2024-11-08T13:00:00	7	Dirección del viento	4.83
13027	7	Sololá	710	Panajachel	8	Panajachel	1	Enero	2023-10-01T00:00:00	2024-11-08T13:00:00	1	Precipitación	0
13028	7	Sololá	710	Panajachel	8	Panajachel	1	Enero	2023-10-01T00:00:00	2024-11-08T13:00:00	8	Radiación solar	828
13029	7	Sololá	710	Panajachel	8	Panajachel	1	Enero	2023-10-01T00:00:00	2024-11-08T14:00:00	2	Temperatura media	22.4
13030	7	Sololá	710	Panajachel	8	Panajachel	1	Enero	2023-10-01T00:00:00	2024-11-08T14:00:00	4	Temperatura máxima	23.3
13031	7	Sololá	710	Panajachel	8	Panajachel	1	Enero	2023-10-01T00:00:00	2024-11-08T14:00:00	3	Temperatura mínima	22.3
13032	7	Sololá	710	Panajachel	8	Panajachel	1	Enero	2023-10-01T00:00:00	2024-11-08T14:00:00	5	Humedad	78
13033	7	Sololá	710	Panajachel	8	Panajachel	1	Enero	2023-10-01T00:00:00	2024-11-08T14:00:00	6	Velocidad del viento	4.8
13034	7	Sololá	710	Panajachel	8	Panajachel	1	Enero	2023-10-01T00:00:00	2024-11-08T14:00:00	7	Dirección del viento	4.83
13035	7	Sololá	710	Panajachel	8	Panajachel	1	Enero	2023-10-01T00:00:00	2024-11-08T14:00:00	1	Precipitación	0
13036	7	Sololá	710	Panajachel	8	Panajachel	1	Enero	2023-10-01T00:00:00	2024-11-08T14:00:00	8	Radiación solar	835
13037	7	Sololá	710	Panajachel	8	Panajachel	1	Enero	2023-10-01T00:00:00	2024-11-08T15:00:00	2	Temperatura media	21.8
13038	7	Sololá	710	Panajachel	8	Panajachel	1	Enero	2023-10-01T00:00:00	2024-11-08T15:00:00	4	Temperatura máxima	22.4
13039	7	Sololá	710	Panajachel	8	Panajachel	1	Enero	2023-10-01T00:00:00	2024-11-08T15:00:00	3	Temperatura mínima	21.7
13040	7	Sololá	710	Panajachel	8	Panajachel	1	Enero	2023-10-01T00:00:00	2024-11-08T15:00:00	5	Humedad	80
13041	7	Sololá	710	Panajachel	8	Panajachel	1	Enero	2023-10-01T00:00:00	2024-11-08T15:00:00	6	Velocidad del viento	6.4
13042	7	Sololá	710	Panajachel	8	Panajachel	1	Enero	2023-10-01T00:00:00	2024-11-08T15:00:00	7	Dirección del viento	6.44
13043	7	Sololá	710	Panajachel	8	Panajachel	1	Enero	2023-10-01T00:00:00	2024-11-08T15:00:00	1	Precipitación	0
13044	7	Sololá	710	Panajachel	8	Panajachel	1	Enero	2023-10-01T00:00:00	2024-11-08T15:00:00	8	Radiación solar	592
13045	7	Sololá	710	Panajachel	8	Panajachel	1	Enero	2023-10-01T00:00:00	2024-11-08T16:00:00	2	Temperatura media	21
13046	7	Sololá	710	Panajachel	8	Panajachel	1	Enero	2023-10-01T00:00:00	2024-11-08T16:00:00	4	Temperatura máxima	22
13047	7	Sololá	710	Panajachel	8	Panajachel	1	Enero	2023-10-01T00:00:00	2024-11-08T16:00:00	3	Temperatura mínima	20.8
13048	7	Sololá	710	Panajachel	8	Panajachel	1	Enero	2023-10-01T00:00:00	2024-11-08T16:00:00	5	Humedad	83
13049	7	Sololá	710	Panajachel	8	Panajachel	1	Enero	2023-10-01T00:00:00	2024-11-08T16:00:00	6	Velocidad del viento	3.2
13050	7	Sololá	710	Panajachel	8	Panajachel	1	Enero	2023-10-01T00:00:00	2024-11-08T16:00:00	7	Dirección del viento	3.22
13051	7	Sololá	710	Panajachel	8	Panajachel	1	Enero	2023-10-01T00:00:00	2024-11-08T16:00:00	1	Precipitación	0
13052	7	Sololá	710	Panajachel	8	Panajachel	1	Enero	2023-10-01T00:00:00	2024-11-08T16:00:00	8	Radiación solar	238
13053	7	Sololá	710	Panajachel	8	Panajachel	1	Enero	2023-10-01T00:00:00	2024-11-08T17:00:00	2	Temperatura media	20.7
13054	7	Sololá	710	Panajachel	8	Panajachel	1	Enero	2023-10-01T00:00:00	2024-11-08T17:00:00	4	Temperatura máxima	21.2
13055	7	Sololá	710	Panajachel	8	Panajachel	1	Enero	2023-10-01T00:00:00	2024-11-08T17:00:00	3	Temperatura mínima	20.6
13056	7	Sololá	710	Panajachel	8	Panajachel	1	Enero	2023-10-01T00:00:00	2024-11-08T17:00:00	5	Humedad	81
13057	7	Sololá	710	Panajachel	8	Panajachel	1	Enero	2023-10-01T00:00:00	2024-11-08T17:00:00	6	Velocidad del viento	3.2
13058	7	Sololá	710	Panajachel	8	Panajachel	1	Enero	2023-10-01T00:00:00	2024-11-08T17:00:00	7	Dirección del viento	3.22
13059	7	Sololá	710	Panajachel	8	Panajachel	1	Enero	2023-10-01T00:00:00	2024-11-08T17:00:00	1	Precipitación	0
13060	7	Sololá	710	Panajachel	8	Panajachel	1	Enero	2023-10-01T00:00:00	2024-11-08T17:00:00	8	Radiación solar	203
13061	7	Sololá	710	Panajachel	8	Panajachel	1	Enero	2023-10-01T00:00:00	2024-11-08T18:00:00	2	Temperatura media	19.7
13062	7	Sololá	710	Panajachel	8	Panajachel	1	Enero	2023-10-01T00:00:00	2024-11-08T18:00:00	4	Temperatura máxima	20.8
13063	7	Sololá	710	Panajachel	8	Panajachel	1	Enero	2023-10-01T00:00:00	2024-11-08T18:00:00	3	Temperatura mínima	19.7
13064	7	Sololá	710	Panajachel	8	Panajachel	1	Enero	2023-10-01T00:00:00	2024-11-08T18:00:00	5	Humedad	84
13065	7	Sololá	710	Panajachel	8	Panajachel	1	Enero	2023-10-01T00:00:00	2024-11-08T18:00:00	6	Velocidad del viento	0
13066	7	Sololá	710	Panajachel	8	Panajachel	1	Enero	2023-10-01T00:00:00	2024-11-08T18:00:00	7	Dirección del viento	0
13067	7	Sololá	710	Panajachel	8	Panajachel	1	Enero	2023-10-01T00:00:00	2024-11-08T18:00:00	1	Precipitación	0
13068	7	Sololá	710	Panajachel	8	Panajachel	1	Enero	2023-10-01T00:00:00	2024-11-08T18:00:00	8	Radiación solar	26
13069	7	Sololá	710	Panajachel	8	Panajachel	1	Enero	2023-10-01T00:00:00	2024-11-08T19:00:00	2	Temperatura media	18.9
13070	7	Sololá	710	Panajachel	8	Panajachel	1	Enero	2023-10-01T00:00:00	2024-11-08T19:00:00	4	Temperatura máxima	19.7
13071	7	Sololá	710	Panajachel	8	Panajachel	1	Enero	2023-10-01T00:00:00	2024-11-08T19:00:00	3	Temperatura mínima	18.9
13072	7	Sololá	710	Panajachel	8	Panajachel	1	Enero	2023-10-01T00:00:00	2024-11-08T19:00:00	5	Humedad	74
13073	7	Sololá	710	Panajachel	8	Panajachel	1	Enero	2023-10-01T00:00:00	2024-11-08T19:00:00	6	Velocidad del viento	1.6
13074	7	Sololá	710	Panajachel	8	Panajachel	1	Enero	2023-10-01T00:00:00	2024-11-08T19:00:00	7	Dirección del viento	1.61
13075	7	Sololá	710	Panajachel	8	Panajachel	1	Enero	2023-10-01T00:00:00	2024-11-08T19:00:00	1	Precipitación	0
13076	7	Sololá	710	Panajachel	8	Panajachel	1	Enero	2023-10-01T00:00:00	2024-11-08T19:00:00	8	Radiación solar	0
13077	7	Sololá	710	Panajachel	8	Panajachel	1	Enero	2023-10-01T00:00:00	2024-11-08T20:00:00	2	Temperatura media	17.4
13078	7	Sololá	710	Panajachel	8	Panajachel	1	Enero	2023-10-01T00:00:00	2024-11-08T20:00:00	4	Temperatura máxima	18.9
13079	7	Sololá	710	Panajachel	8	Panajachel	1	Enero	2023-10-01T00:00:00	2024-11-08T20:00:00	3	Temperatura mínima	17.4
13080	7	Sololá	710	Panajachel	8	Panajachel	1	Enero	2023-10-01T00:00:00	2024-11-08T20:00:00	5	Humedad	78
13081	7	Sololá	710	Panajachel	8	Panajachel	1	Enero	2023-10-01T00:00:00	2024-11-08T20:00:00	6	Velocidad del viento	0
13082	7	Sololá	710	Panajachel	8	Panajachel	1	Enero	2023-10-01T00:00:00	2024-11-08T20:00:00	7	Dirección del viento	0
13083	7	Sololá	710	Panajachel	8	Panajachel	1	Enero	2023-10-01T00:00:00	2024-11-08T20:00:00	1	Precipitación	0
13084	7	Sololá	710	Panajachel	8	Panajachel	1	Enero	2023-10-01T00:00:00	2024-11-08T20:00:00	8	Radiación solar	0
13085	7	Sololá	710	Panajachel	8	Panajachel	1	Enero	2023-10-01T00:00:00	2024-11-08T21:00:00	2	Temperatura media	17.2
13086	7	Sololá	710	Panajachel	8	Panajachel	1	Enero	2023-10-01T00:00:00	2024-11-08T21:00:00	4	Temperatura máxima	17.5
13087	7	Sololá	710	Panajachel	8	Panajachel	1	Enero	2023-10-01T00:00:00	2024-11-08T21:00:00	3	Temperatura mínima	17.2
13088	7	Sololá	710	Panajachel	8	Panajachel	1	Enero	2023-10-01T00:00:00	2024-11-08T21:00:00	5	Humedad	78
13089	7	Sololá	710	Panajachel	8	Panajachel	1	Enero	2023-10-01T00:00:00	2024-11-08T21:00:00	6	Velocidad del viento	0
13090	7	Sololá	710	Panajachel	8	Panajachel	1	Enero	2023-10-01T00:00:00	2024-11-08T21:00:00	7	Dirección del viento	0
13091	7	Sololá	710	Panajachel	8	Panajachel	1	Enero	2023-10-01T00:00:00	2024-11-08T21:00:00	1	Precipitación	0
13092	7	Sololá	710	Panajachel	8	Panajachel	1	Enero	2023-10-01T00:00:00	2024-11-08T21:00:00	8	Radiación solar	0
13093	7	Sololá	710	Panajachel	8	Panajachel	1	Enero	2023-10-01T00:00:00	2024-11-08T22:00:00	2	Temperatura media	18.4
13094	7	Sololá	710	Panajachel	8	Panajachel	1	Enero	2023-10-01T00:00:00	2024-11-08T22:00:00	4	Temperatura máxima	18.4
13095	7	Sololá	710	Panajachel	8	Panajachel	1	Enero	2023-10-01T00:00:00	2024-11-08T22:00:00	3	Temperatura mínima	16.9
13096	7	Sololá	710	Panajachel	8	Panajachel	1	Enero	2023-10-01T00:00:00	2024-11-08T22:00:00	5	Humedad	73
13097	7	Sololá	710	Panajachel	8	Panajachel	1	Enero	2023-10-01T00:00:00	2024-11-08T22:00:00	6	Velocidad del viento	3.2
13098	7	Sololá	710	Panajachel	8	Panajachel	1	Enero	2023-10-01T00:00:00	2024-11-08T22:00:00	7	Dirección del viento	3.22
13099	7	Sololá	710	Panajachel	8	Panajachel	1	Enero	2023-10-01T00:00:00	2024-11-08T22:00:00	1	Precipitación	0
13100	7	Sololá	710	Panajachel	8	Panajachel	1	Enero	2023-10-01T00:00:00	2024-11-08T22:00:00	8	Radiación solar	0
13101	7	Sololá	710	Panajachel	8	Panajachel	1	Enero	2023-10-01T00:00:00	2024-11-08T23:00:00	2	Temperatura media	17
13102	7	Sololá	710	Panajachel	8	Panajachel	1	Enero	2023-10-01T00:00:00	2024-11-08T23:00:00	4	Temperatura máxima	18.7
13103	7	Sololá	710	Panajachel	8	Panajachel	1	Enero	2023-10-01T00:00:00	2024-11-08T23:00:00	3	Temperatura mínima	17
13104	7	Sololá	710	Panajachel	8	Panajachel	1	Enero	2023-10-01T00:00:00	2024-11-08T23:00:00	5	Humedad	79
13105	7	Sololá	710	Panajachel	8	Panajachel	1	Enero	2023-10-01T00:00:00	2024-11-08T23:00:00	6	Velocidad del viento	1.6
13106	7	Sololá	710	Panajachel	8	Panajachel	1	Enero	2023-10-01T00:00:00	2024-11-08T23:00:00	7	Dirección del viento	1.61
13107	7	Sololá	710	Panajachel	8	Panajachel	1	Enero	2023-10-01T00:00:00	2024-11-08T23:00:00	1	Precipitación	0
13108	7	Sololá	710	Panajachel	8	Panajachel	1	Enero	2023-10-01T00:00:00	2024-11-08T23:00:00	8	Radiación solar	0
13109	7	Sololá	710	Panajachel	8	Panajachel	1	Enero	2023-11-01T00:00:00	2024-11-08T00:00:00	2	Temperatura media	15.9
13110	7	Sololá	710	Panajachel	8	Panajachel	1	Enero	2023-11-01T00:00:00	2024-11-08T00:00:00	4	Temperatura máxima	17
13111	7	Sololá	710	Panajachel	8	Panajachel	1	Enero	2023-11-01T00:00:00	2024-11-08T00:00:00	3	Temperatura mínima	15.9
13112	7	Sololá	710	Panajachel	8	Panajachel	1	Enero	2023-11-01T00:00:00	2024-11-08T00:00:00	5	Humedad	81
13113	7	Sololá	710	Panajachel	8	Panajachel	1	Enero	2023-11-01T00:00:00	2024-11-08T00:00:00	6	Velocidad del viento	0
13114	7	Sololá	710	Panajachel	8	Panajachel	1	Enero	2023-11-01T00:00:00	2024-11-08T00:00:00	7	Dirección del viento	0
13115	7	Sololá	710	Panajachel	8	Panajachel	1	Enero	2023-11-01T00:00:00	2024-11-08T00:00:00	1	Precipitación	0
13116	7	Sololá	710	Panajachel	8	Panajachel	1	Enero	2023-11-01T00:00:00	2024-11-08T00:00:00	8	Radiación solar	0
13117	7	Sololá	710	Panajachel	8	Panajachel	1	Enero	2023-11-01T00:00:00	2024-11-08T01:00:00	2	Temperatura media	17
13118	7	Sololá	710	Panajachel	8	Panajachel	1	Enero	2023-11-01T00:00:00	2024-11-08T01:00:00	4	Temperatura máxima	17.2
13119	7	Sololá	710	Panajachel	8	Panajachel	1	Enero	2023-11-01T00:00:00	2024-11-08T01:00:00	3	Temperatura mínima	15.8
13120	7	Sololá	710	Panajachel	8	Panajachel	1	Enero	2023-11-01T00:00:00	2024-11-08T01:00:00	5	Humedad	78
13121	7	Sololá	710	Panajachel	8	Panajachel	1	Enero	2023-11-01T00:00:00	2024-11-08T01:00:00	6	Velocidad del viento	1.6
13122	7	Sololá	710	Panajachel	8	Panajachel	1	Enero	2023-11-01T00:00:00	2024-11-08T01:00:00	7	Dirección del viento	1.61
13123	7	Sololá	710	Panajachel	8	Panajachel	1	Enero	2023-11-01T00:00:00	2024-11-08T01:00:00	1	Precipitación	0
13124	7	Sololá	710	Panajachel	8	Panajachel	1	Enero	2023-11-01T00:00:00	2024-11-08T01:00:00	8	Radiación solar	0
13125	7	Sololá	710	Panajachel	8	Panajachel	1	Enero	2023-11-01T00:00:00	2024-11-08T02:00:00	2	Temperatura media	17.8
13126	7	Sololá	710	Panajachel	8	Panajachel	1	Enero	2023-11-01T00:00:00	2024-11-08T02:00:00	4	Temperatura máxima	17.9
13127	7	Sololá	710	Panajachel	8	Panajachel	1	Enero	2023-11-01T00:00:00	2024-11-08T02:00:00	3	Temperatura mínima	16.9
13128	7	Sololá	710	Panajachel	8	Panajachel	1	Enero	2023-11-01T00:00:00	2024-11-08T02:00:00	5	Humedad	75
13129	7	Sololá	710	Panajachel	8	Panajachel	1	Enero	2023-11-01T00:00:00	2024-11-08T02:00:00	6	Velocidad del viento	4.8
13130	7	Sololá	710	Panajachel	8	Panajachel	1	Enero	2023-11-01T00:00:00	2024-11-08T02:00:00	7	Dirección del viento	4.83
13131	7	Sololá	710	Panajachel	8	Panajachel	1	Enero	2023-11-01T00:00:00	2024-11-08T02:00:00	1	Precipitación	0
13132	7	Sololá	710	Panajachel	8	Panajachel	1	Enero	2023-11-01T00:00:00	2024-11-08T02:00:00	8	Radiación solar	0
13133	7	Sololá	710	Panajachel	8	Panajachel	1	Enero	2023-11-01T00:00:00	2024-11-08T03:00:00	2	Temperatura media	15.9
13134	7	Sololá	710	Panajachel	8	Panajachel	1	Enero	2023-11-01T00:00:00	2024-11-08T03:00:00	4	Temperatura máxima	17.8
13135	7	Sololá	710	Panajachel	8	Panajachel	1	Enero	2023-11-01T00:00:00	2024-11-08T03:00:00	3	Temperatura mínima	15.9
13136	7	Sololá	710	Panajachel	8	Panajachel	1	Enero	2023-11-01T00:00:00	2024-11-08T03:00:00	5	Humedad	83
13137	7	Sololá	710	Panajachel	8	Panajachel	1	Enero	2023-11-01T00:00:00	2024-11-08T03:00:00	6	Velocidad del viento	0
13138	7	Sololá	710	Panajachel	8	Panajachel	1	Enero	2023-11-01T00:00:00	2024-11-08T03:00:00	7	Dirección del viento	0
13139	7	Sololá	710	Panajachel	8	Panajachel	1	Enero	2023-11-01T00:00:00	2024-11-08T03:00:00	1	Precipitación	0
13140	7	Sololá	710	Panajachel	8	Panajachel	1	Enero	2023-11-01T00:00:00	2024-11-08T03:00:00	8	Radiación solar	0
13141	7	Sololá	710	Panajachel	8	Panajachel	1	Enero	2023-11-01T00:00:00	2024-11-08T04:00:00	2	Temperatura media	16.8
13142	7	Sololá	710	Panajachel	8	Panajachel	1	Enero	2023-11-01T00:00:00	2024-11-08T04:00:00	4	Temperatura máxima	16.8
13143	7	Sololá	710	Panajachel	8	Panajachel	1	Enero	2023-11-01T00:00:00	2024-11-08T04:00:00	3	Temperatura mínima	15.6
13144	7	Sololá	710	Panajachel	8	Panajachel	1	Enero	2023-11-01T00:00:00	2024-11-08T04:00:00	5	Humedad	79
13145	7	Sololá	710	Panajachel	8	Panajachel	1	Enero	2023-11-01T00:00:00	2024-11-08T04:00:00	6	Velocidad del viento	1.6
13146	7	Sololá	710	Panajachel	8	Panajachel	1	Enero	2023-11-01T00:00:00	2024-11-08T04:00:00	7	Dirección del viento	1.61
13147	7	Sololá	710	Panajachel	8	Panajachel	1	Enero	2023-11-01T00:00:00	2024-11-08T04:00:00	1	Precipitación	0
13148	7	Sololá	710	Panajachel	8	Panajachel	1	Enero	2023-11-01T00:00:00	2024-11-08T04:00:00	8	Radiación solar	0
13149	7	Sololá	710	Panajachel	8	Panajachel	1	Enero	2023-11-01T00:00:00	2024-11-08T05:00:00	2	Temperatura media	16.2
13150	7	Sololá	710	Panajachel	8	Panajachel	1	Enero	2023-11-01T00:00:00	2024-11-08T05:00:00	4	Temperatura máxima	17.3
13151	7	Sololá	710	Panajachel	8	Panajachel	1	Enero	2023-11-01T00:00:00	2024-11-08T05:00:00	3	Temperatura mínima	16.2
13152	7	Sololá	710	Panajachel	8	Panajachel	1	Enero	2023-11-01T00:00:00	2024-11-08T05:00:00	5	Humedad	81
13153	7	Sololá	710	Panajachel	8	Panajachel	1	Enero	2023-11-01T00:00:00	2024-11-08T05:00:00	6	Velocidad del viento	1.6
13154	7	Sololá	710	Panajachel	8	Panajachel	1	Enero	2023-11-01T00:00:00	2024-11-08T05:00:00	7	Dirección del viento	1.61
13155	7	Sololá	710	Panajachel	8	Panajachel	1	Enero	2023-11-01T00:00:00	2024-11-08T05:00:00	1	Precipitación	0
13156	7	Sololá	710	Panajachel	8	Panajachel	1	Enero	2023-11-01T00:00:00	2024-11-08T05:00:00	8	Radiación solar	0
13157	7	Sololá	710	Panajachel	8	Panajachel	1	Enero	2023-11-01T00:00:00	2024-11-08T06:00:00	2	Temperatura media	15.7
13158	7	Sololá	710	Panajachel	8	Panajachel	1	Enero	2023-11-01T00:00:00	2024-11-08T06:00:00	4	Temperatura máxima	16.2
13159	7	Sololá	710	Panajachel	8	Panajachel	1	Enero	2023-11-01T00:00:00	2024-11-08T06:00:00	3	Temperatura mínima	15.3
13160	7	Sololá	710	Panajachel	8	Panajachel	1	Enero	2023-11-01T00:00:00	2024-11-08T06:00:00	5	Humedad	82
13161	7	Sololá	710	Panajachel	8	Panajachel	1	Enero	2023-11-01T00:00:00	2024-11-08T06:00:00	6	Velocidad del viento	0
13162	7	Sololá	710	Panajachel	8	Panajachel	1	Enero	2023-11-01T00:00:00	2024-11-08T06:00:00	7	Dirección del viento	0
13163	7	Sololá	710	Panajachel	8	Panajachel	1	Enero	2023-11-01T00:00:00	2024-11-08T06:00:00	1	Precipitación	0
13164	7	Sololá	710	Panajachel	8	Panajachel	1	Enero	2023-11-01T00:00:00	2024-11-08T06:00:00	8	Radiación solar	0
13165	7	Sololá	710	Panajachel	8	Panajachel	1	Enero	2023-11-01T00:00:00	2024-11-08T07:00:00	2	Temperatura media	16.5
13166	7	Sololá	710	Panajachel	8	Panajachel	1	Enero	2023-11-01T00:00:00	2024-11-08T07:00:00	4	Temperatura máxima	17
13167	7	Sololá	710	Panajachel	8	Panajachel	1	Enero	2023-11-01T00:00:00	2024-11-08T07:00:00	3	Temperatura mínima	15.7
13168	7	Sololá	710	Panajachel	8	Panajachel	1	Enero	2023-11-01T00:00:00	2024-11-08T07:00:00	5	Humedad	78
13169	7	Sololá	710	Panajachel	8	Panajachel	1	Enero	2023-11-01T00:00:00	2024-11-08T07:00:00	6	Velocidad del viento	1.6
13170	7	Sololá	710	Panajachel	8	Panajachel	1	Enero	2023-11-01T00:00:00	2024-11-08T07:00:00	7	Dirección del viento	1.61
13171	7	Sololá	710	Panajachel	8	Panajachel	1	Enero	2023-11-01T00:00:00	2024-11-08T07:00:00	1	Precipitación	0
13172	7	Sololá	710	Panajachel	8	Panajachel	1	Enero	2023-11-01T00:00:00	2024-11-08T07:00:00	8	Radiación solar	5
13173	7	Sololá	710	Panajachel	8	Panajachel	1	Enero	2023-11-01T00:00:00	2024-11-08T08:00:00	2	Temperatura media	17.6
13174	7	Sololá	710	Panajachel	8	Panajachel	1	Enero	2023-11-01T00:00:00	2024-11-08T08:00:00	4	Temperatura máxima	17.6
13175	7	Sololá	710	Panajachel	8	Panajachel	1	Enero	2023-11-01T00:00:00	2024-11-08T08:00:00	3	Temperatura mínima	16.6
13176	7	Sololá	710	Panajachel	8	Panajachel	1	Enero	2023-11-01T00:00:00	2024-11-08T08:00:00	5	Humedad	76
13177	7	Sololá	710	Panajachel	8	Panajachel	1	Enero	2023-11-01T00:00:00	2024-11-08T08:00:00	6	Velocidad del viento	3.2
13178	7	Sololá	710	Panajachel	8	Panajachel	1	Enero	2023-11-01T00:00:00	2024-11-08T08:00:00	7	Dirección del viento	3.22
13179	7	Sololá	710	Panajachel	8	Panajachel	1	Enero	2023-11-01T00:00:00	2024-11-08T08:00:00	1	Precipitación	0
13180	7	Sololá	710	Panajachel	8	Panajachel	1	Enero	2023-11-01T00:00:00	2024-11-08T08:00:00	8	Radiación solar	38
13181	7	Sololá	710	Panajachel	8	Panajachel	1	Enero	2023-11-01T00:00:00	2024-11-08T09:00:00	2	Temperatura media	19.3
13182	7	Sololá	710	Panajachel	8	Panajachel	1	Enero	2023-11-01T00:00:00	2024-11-08T09:00:00	4	Temperatura máxima	19.3
13183	7	Sololá	710	Panajachel	8	Panajachel	1	Enero	2023-11-01T00:00:00	2024-11-08T09:00:00	3	Temperatura mínima	17.6
13184	7	Sololá	710	Panajachel	8	Panajachel	1	Enero	2023-11-01T00:00:00	2024-11-08T09:00:00	5	Humedad	74
13185	7	Sololá	710	Panajachel	8	Panajachel	1	Enero	2023-11-01T00:00:00	2024-11-08T09:00:00	6	Velocidad del viento	3.2
13186	7	Sololá	710	Panajachel	8	Panajachel	1	Enero	2023-11-01T00:00:00	2024-11-08T09:00:00	7	Dirección del viento	3.22
13187	7	Sololá	710	Panajachel	8	Panajachel	1	Enero	2023-11-01T00:00:00	2024-11-08T09:00:00	1	Precipitación	0
13188	7	Sololá	710	Panajachel	8	Panajachel	1	Enero	2023-11-01T00:00:00	2024-11-08T09:00:00	8	Radiación solar	365
13189	7	Sololá	710	Panajachel	8	Panajachel	1	Enero	2023-11-01T00:00:00	2024-11-08T10:00:00	2	Temperatura media	20.8
13190	7	Sololá	710	Panajachel	8	Panajachel	1	Enero	2023-11-01T00:00:00	2024-11-08T10:00:00	4	Temperatura máxima	20.8
13191	7	Sololá	710	Panajachel	8	Panajachel	1	Enero	2023-11-01T00:00:00	2024-11-08T10:00:00	3	Temperatura mínima	19.3
13192	7	Sololá	710	Panajachel	8	Panajachel	1	Enero	2023-11-01T00:00:00	2024-11-08T10:00:00	5	Humedad	72
13193	7	Sololá	710	Panajachel	8	Panajachel	1	Enero	2023-11-01T00:00:00	2024-11-08T10:00:00	6	Velocidad del viento	4.8
13194	7	Sololá	710	Panajachel	8	Panajachel	1	Enero	2023-11-01T00:00:00	2024-11-08T10:00:00	7	Dirección del viento	4.83
13195	7	Sololá	710	Panajachel	8	Panajachel	1	Enero	2023-11-01T00:00:00	2024-11-08T10:00:00	1	Precipitación	0
13196	7	Sololá	710	Panajachel	8	Panajachel	1	Enero	2023-11-01T00:00:00	2024-11-08T10:00:00	8	Radiación solar	556
13197	7	Sololá	710	Panajachel	8	Panajachel	1	Enero	2023-11-01T00:00:00	2024-11-08T11:00:00	2	Temperatura media	23.6
13198	7	Sololá	710	Panajachel	8	Panajachel	1	Enero	2023-11-01T00:00:00	2024-11-08T11:00:00	4	Temperatura máxima	23.6
13199	7	Sololá	710	Panajachel	8	Panajachel	1	Enero	2023-11-01T00:00:00	2024-11-08T11:00:00	3	Temperatura mínima	20.8
13200	7	Sololá	710	Panajachel	8	Panajachel	1	Enero	2023-11-01T00:00:00	2024-11-08T11:00:00	5	Humedad	58
13201	7	Sololá	710	Panajachel	8	Panajachel	1	Enero	2023-11-01T00:00:00	2024-11-08T11:00:00	6	Velocidad del viento	4.8
13202	7	Sololá	710	Panajachel	8	Panajachel	1	Enero	2023-11-01T00:00:00	2024-11-08T11:00:00	7	Dirección del viento	4.83
13203	7	Sololá	710	Panajachel	8	Panajachel	1	Enero	2023-11-01T00:00:00	2024-11-08T11:00:00	1	Precipitación	0
13204	7	Sololá	710	Panajachel	8	Panajachel	1	Enero	2023-11-01T00:00:00	2024-11-08T11:00:00	8	Radiación solar	706
13205	7	Sololá	710	Panajachel	8	Panajachel	1	Enero	2023-11-01T00:00:00	2024-11-08T12:00:00	2	Temperatura media	24.6
13206	7	Sololá	710	Panajachel	8	Panajachel	1	Enero	2023-11-01T00:00:00	2024-11-08T12:00:00	4	Temperatura máxima	24.6
13207	7	Sololá	710	Panajachel	8	Panajachel	1	Enero	2023-11-01T00:00:00	2024-11-08T12:00:00	3	Temperatura mínima	23.5
13208	7	Sololá	710	Panajachel	8	Panajachel	1	Enero	2023-11-01T00:00:00	2024-11-08T12:00:00	5	Humedad	53
13209	7	Sololá	710	Panajachel	8	Panajachel	1	Enero	2023-11-01T00:00:00	2024-11-08T12:00:00	6	Velocidad del viento	6.4
13210	7	Sololá	710	Panajachel	8	Panajachel	1	Enero	2023-11-01T00:00:00	2024-11-08T12:00:00	7	Dirección del viento	6.44
13211	7	Sololá	710	Panajachel	8	Panajachel	1	Enero	2023-11-01T00:00:00	2024-11-08T12:00:00	1	Precipitación	0
13212	7	Sololá	710	Panajachel	8	Panajachel	1	Enero	2023-11-01T00:00:00	2024-11-08T12:00:00	8	Radiación solar	805
13213	7	Sololá	710	Panajachel	8	Panajachel	1	Enero	2023-11-01T00:00:00	2024-11-08T13:00:00	2	Temperatura media	23.9
13214	7	Sololá	710	Panajachel	8	Panajachel	1	Enero	2023-11-01T00:00:00	2024-11-08T13:00:00	4	Temperatura máxima	24.9
13215	7	Sololá	710	Panajachel	8	Panajachel	1	Enero	2023-11-01T00:00:00	2024-11-08T13:00:00	3	Temperatura mínima	23.9
13216	7	Sololá	710	Panajachel	8	Panajachel	1	Enero	2023-11-01T00:00:00	2024-11-08T13:00:00	5	Humedad	72
13217	7	Sololá	710	Panajachel	8	Panajachel	1	Enero	2023-11-01T00:00:00	2024-11-08T13:00:00	6	Velocidad del viento	3.2
13218	7	Sololá	710	Panajachel	8	Panajachel	1	Enero	2023-11-01T00:00:00	2024-11-08T13:00:00	7	Dirección del viento	3.22
13219	7	Sololá	710	Panajachel	8	Panajachel	1	Enero	2023-11-01T00:00:00	2024-11-08T13:00:00	1	Precipitación	0
13220	7	Sololá	710	Panajachel	8	Panajachel	1	Enero	2023-11-01T00:00:00	2024-11-08T13:00:00	8	Radiación solar	735
13221	7	Sololá	710	Panajachel	8	Panajachel	1	Enero	2023-11-01T00:00:00	2024-11-08T14:00:00	2	Temperatura media	23.8
13222	7	Sololá	710	Panajachel	8	Panajachel	1	Enero	2023-11-01T00:00:00	2024-11-08T14:00:00	4	Temperatura máxima	24
13223	7	Sololá	710	Panajachel	8	Panajachel	1	Enero	2023-11-01T00:00:00	2024-11-08T14:00:00	3	Temperatura mínima	23.1
13224	7	Sololá	710	Panajachel	8	Panajachel	1	Enero	2023-11-01T00:00:00	2024-11-08T14:00:00	5	Humedad	75
13225	7	Sololá	710	Panajachel	8	Panajachel	1	Enero	2023-11-01T00:00:00	2024-11-08T14:00:00	6	Velocidad del viento	3.2
13226	7	Sololá	710	Panajachel	8	Panajachel	1	Enero	2023-11-01T00:00:00	2024-11-08T14:00:00	7	Dirección del viento	3.22
13227	7	Sololá	710	Panajachel	8	Panajachel	1	Enero	2023-11-01T00:00:00	2024-11-08T14:00:00	1	Precipitación	0
13228	7	Sololá	710	Panajachel	8	Panajachel	1	Enero	2023-11-01T00:00:00	2024-11-08T14:00:00	8	Radiación solar	496
13229	7	Sololá	710	Panajachel	8	Panajachel	1	Enero	2023-11-01T00:00:00	2024-11-08T15:00:00	2	Temperatura media	21.8
13230	7	Sololá	710	Panajachel	8	Panajachel	1	Enero	2023-11-01T00:00:00	2024-11-08T15:00:00	4	Temperatura máxima	23.8
13231	7	Sololá	710	Panajachel	8	Panajachel	1	Enero	2023-11-01T00:00:00	2024-11-08T15:00:00	3	Temperatura mínima	21.7
13232	7	Sololá	710	Panajachel	8	Panajachel	1	Enero	2023-11-01T00:00:00	2024-11-08T15:00:00	5	Humedad	78
13233	7	Sololá	710	Panajachel	8	Panajachel	1	Enero	2023-11-01T00:00:00	2024-11-08T15:00:00	6	Velocidad del viento	3.2
13234	7	Sololá	710	Panajachel	8	Panajachel	1	Enero	2023-11-01T00:00:00	2024-11-08T15:00:00	7	Dirección del viento	3.22
13235	7	Sololá	710	Panajachel	8	Panajachel	1	Enero	2023-11-01T00:00:00	2024-11-08T15:00:00	1	Precipitación	0
13236	7	Sololá	710	Panajachel	8	Panajachel	1	Enero	2023-11-01T00:00:00	2024-11-08T15:00:00	8	Radiación solar	254
13237	7	Sololá	710	Panajachel	8	Panajachel	1	Enero	2023-11-01T00:00:00	2024-11-08T16:00:00	2	Temperatura media	21.7
13238	7	Sololá	710	Panajachel	8	Panajachel	1	Enero	2023-11-01T00:00:00	2024-11-08T16:00:00	4	Temperatura máxima	23.6
13239	7	Sololá	710	Panajachel	8	Panajachel	1	Enero	2023-11-01T00:00:00	2024-11-08T16:00:00	3	Temperatura mínima	21.7
13240	7	Sololá	710	Panajachel	8	Panajachel	1	Enero	2023-11-01T00:00:00	2024-11-08T16:00:00	5	Humedad	80
13241	7	Sololá	710	Panajachel	8	Panajachel	1	Enero	2023-11-01T00:00:00	2024-11-08T16:00:00	6	Velocidad del viento	4.8
13242	7	Sololá	710	Panajachel	8	Panajachel	1	Enero	2023-11-01T00:00:00	2024-11-08T16:00:00	7	Dirección del viento	4.83
13243	7	Sololá	710	Panajachel	8	Panajachel	1	Enero	2023-11-01T00:00:00	2024-11-08T16:00:00	1	Precipitación	0
13244	7	Sololá	710	Panajachel	8	Panajachel	1	Enero	2023-11-01T00:00:00	2024-11-08T16:00:00	8	Radiación solar	372
13245	7	Sololá	710	Panajachel	8	Panajachel	1	Enero	2023-11-01T00:00:00	2024-11-08T17:00:00	2	Temperatura media	21.4
13246	7	Sololá	710	Panajachel	8	Panajachel	1	Enero	2023-11-01T00:00:00	2024-11-08T17:00:00	4	Temperatura máxima	21.8
13247	7	Sololá	710	Panajachel	8	Panajachel	1	Enero	2023-11-01T00:00:00	2024-11-08T17:00:00	3	Temperatura mínima	21.2
13248	7	Sololá	710	Panajachel	8	Panajachel	1	Enero	2023-11-01T00:00:00	2024-11-08T17:00:00	5	Humedad	75
13249	7	Sololá	710	Panajachel	8	Panajachel	1	Enero	2023-11-01T00:00:00	2024-11-08T17:00:00	6	Velocidad del viento	3.2
13250	7	Sololá	710	Panajachel	8	Panajachel	1	Enero	2023-11-01T00:00:00	2024-11-08T17:00:00	7	Dirección del viento	3.22
13251	7	Sololá	710	Panajachel	8	Panajachel	1	Enero	2023-11-01T00:00:00	2024-11-08T17:00:00	1	Precipitación	0
13252	7	Sololá	710	Panajachel	8	Panajachel	1	Enero	2023-11-01T00:00:00	2024-11-08T17:00:00	8	Radiación solar	109
13253	7	Sololá	710	Panajachel	8	Panajachel	1	Enero	2023-11-01T00:00:00	2024-11-08T18:00:00	2	Temperatura media	20.4
13254	7	Sololá	710	Panajachel	8	Panajachel	1	Enero	2023-11-01T00:00:00	2024-11-08T18:00:00	4	Temperatura máxima	21.7
13255	7	Sololá	710	Panajachel	8	Panajachel	1	Enero	2023-11-01T00:00:00	2024-11-08T18:00:00	3	Temperatura mínima	20.4
13256	7	Sololá	710	Panajachel	8	Panajachel	1	Enero	2023-11-01T00:00:00	2024-11-08T18:00:00	5	Humedad	67
13257	7	Sololá	710	Panajachel	8	Panajachel	1	Enero	2023-11-01T00:00:00	2024-11-08T18:00:00	6	Velocidad del viento	1.6
13258	7	Sololá	710	Panajachel	8	Panajachel	1	Enero	2023-11-01T00:00:00	2024-11-08T18:00:00	7	Dirección del viento	1.61
13259	7	Sololá	710	Panajachel	8	Panajachel	1	Enero	2023-11-01T00:00:00	2024-11-08T18:00:00	1	Precipitación	0
13260	7	Sololá	710	Panajachel	8	Panajachel	1	Enero	2023-11-01T00:00:00	2024-11-08T18:00:00	8	Radiación solar	36
13261	7	Sololá	710	Panajachel	8	Panajachel	1	Enero	2023-11-01T00:00:00	2024-11-08T19:00:00	2	Temperatura media	19.6
13262	7	Sololá	710	Panajachel	8	Panajachel	1	Enero	2023-11-01T00:00:00	2024-11-08T19:00:00	4	Temperatura máxima	20.4
13263	7	Sololá	710	Panajachel	8	Panajachel	1	Enero	2023-11-01T00:00:00	2024-11-08T19:00:00	3	Temperatura mínima	19.5
13264	7	Sololá	710	Panajachel	8	Panajachel	1	Enero	2023-11-01T00:00:00	2024-11-08T19:00:00	5	Humedad	69
13265	7	Sololá	710	Panajachel	8	Panajachel	1	Enero	2023-11-01T00:00:00	2024-11-08T19:00:00	6	Velocidad del viento	6.4
13266	7	Sololá	710	Panajachel	8	Panajachel	1	Enero	2023-11-01T00:00:00	2024-11-08T19:00:00	7	Dirección del viento	6.44
13267	7	Sololá	710	Panajachel	8	Panajachel	1	Enero	2023-11-01T00:00:00	2024-11-08T19:00:00	1	Precipitación	0
13268	7	Sololá	710	Panajachel	8	Panajachel	1	Enero	2023-11-01T00:00:00	2024-11-08T19:00:00	8	Radiación solar	0
13269	7	Sololá	710	Panajachel	8	Panajachel	1	Enero	2023-11-01T00:00:00	2024-11-08T20:00:00	2	Temperatura media	19.7
13270	7	Sololá	710	Panajachel	8	Panajachel	1	Enero	2023-11-01T00:00:00	2024-11-08T20:00:00	4	Temperatura máxima	19.7
13271	7	Sololá	710	Panajachel	8	Panajachel	1	Enero	2023-11-01T00:00:00	2024-11-08T20:00:00	3	Temperatura mínima	19.5
13272	7	Sololá	710	Panajachel	8	Panajachel	1	Enero	2023-11-01T00:00:00	2024-11-08T20:00:00	5	Humedad	69
13273	7	Sololá	710	Panajachel	8	Panajachel	1	Enero	2023-11-01T00:00:00	2024-11-08T20:00:00	6	Velocidad del viento	6.4
13274	7	Sololá	710	Panajachel	8	Panajachel	1	Enero	2023-11-01T00:00:00	2024-11-08T20:00:00	7	Dirección del viento	6.44
13275	7	Sololá	710	Panajachel	8	Panajachel	1	Enero	2023-11-01T00:00:00	2024-11-08T20:00:00	1	Precipitación	0
13276	7	Sololá	710	Panajachel	8	Panajachel	1	Enero	2023-11-01T00:00:00	2024-11-08T20:00:00	8	Radiación solar	0
13277	7	Sololá	710	Panajachel	8	Panajachel	1	Enero	2023-11-01T00:00:00	2024-11-08T21:00:00	2	Temperatura media	19.2
13278	7	Sololá	710	Panajachel	8	Panajachel	1	Enero	2023-11-01T00:00:00	2024-11-08T21:00:00	4	Temperatura máxima	19.7
13279	7	Sololá	710	Panajachel	8	Panajachel	1	Enero	2023-11-01T00:00:00	2024-11-08T21:00:00	3	Temperatura mínima	19.1
13280	7	Sololá	710	Panajachel	8	Panajachel	1	Enero	2023-11-01T00:00:00	2024-11-08T21:00:00	5	Humedad	71
13281	7	Sololá	710	Panajachel	8	Panajachel	1	Enero	2023-11-01T00:00:00	2024-11-08T21:00:00	6	Velocidad del viento	3.2
13282	7	Sololá	710	Panajachel	8	Panajachel	1	Enero	2023-11-01T00:00:00	2024-11-08T21:00:00	7	Dirección del viento	3.22
13283	7	Sololá	710	Panajachel	8	Panajachel	1	Enero	2023-11-01T00:00:00	2024-11-08T21:00:00	1	Precipitación	0
13284	7	Sololá	710	Panajachel	8	Panajachel	1	Enero	2023-11-01T00:00:00	2024-11-08T21:00:00	8	Radiación solar	0
13285	7	Sololá	710	Panajachel	8	Panajachel	1	Enero	2023-11-01T00:00:00	2024-11-08T22:00:00	2	Temperatura media	17.8
13286	7	Sololá	710	Panajachel	8	Panajachel	1	Enero	2023-11-01T00:00:00	2024-11-08T22:00:00	4	Temperatura máxima	19.2
13287	7	Sololá	710	Panajachel	8	Panajachel	1	Enero	2023-11-01T00:00:00	2024-11-08T22:00:00	3	Temperatura mínima	17.8
13288	7	Sololá	710	Panajachel	8	Panajachel	1	Enero	2023-11-01T00:00:00	2024-11-08T22:00:00	5	Humedad	74
13289	7	Sololá	710	Panajachel	8	Panajachel	1	Enero	2023-11-01T00:00:00	2024-11-08T22:00:00	6	Velocidad del viento	3.2
13290	7	Sololá	710	Panajachel	8	Panajachel	1	Enero	2023-11-01T00:00:00	2024-11-08T22:00:00	7	Dirección del viento	3.22
13291	7	Sololá	710	Panajachel	8	Panajachel	1	Enero	2023-11-01T00:00:00	2024-11-08T22:00:00	1	Precipitación	0
13292	7	Sololá	710	Panajachel	8	Panajachel	1	Enero	2023-11-01T00:00:00	2024-11-08T22:00:00	8	Radiación solar	0
13293	7	Sololá	710	Panajachel	8	Panajachel	1	Enero	2023-11-01T00:00:00	2024-11-08T23:00:00	2	Temperatura media	16.8
13294	7	Sololá	710	Panajachel	8	Panajachel	1	Enero	2023-11-01T00:00:00	2024-11-08T23:00:00	4	Temperatura máxima	17.8
13295	7	Sololá	710	Panajachel	8	Panajachel	1	Enero	2023-11-01T00:00:00	2024-11-08T23:00:00	3	Temperatura mínima	16.6
13296	7	Sololá	710	Panajachel	8	Panajachel	1	Enero	2023-11-01T00:00:00	2024-11-08T23:00:00	5	Humedad	77
13297	7	Sololá	710	Panajachel	8	Panajachel	1	Enero	2023-11-01T00:00:00	2024-11-08T23:00:00	6	Velocidad del viento	1.6
13298	7	Sololá	710	Panajachel	8	Panajachel	1	Enero	2023-11-01T00:00:00	2024-11-08T23:00:00	7	Dirección del viento	1.61
13299	7	Sololá	710	Panajachel	8	Panajachel	1	Enero	2023-11-01T00:00:00	2024-11-08T23:00:00	1	Precipitación	0
13300	7	Sololá	710	Panajachel	8	Panajachel	1	Enero	2023-11-01T00:00:00	2024-11-08T23:00:00	8	Radiación solar	0
13301	7	Sololá	710	Panajachel	8	Panajachel	1	Enero	2023-12-01T00:00:00	2024-11-08T00:00:00	2	Temperatura media	16.2
13302	7	Sololá	710	Panajachel	8	Panajachel	1	Enero	2023-12-01T00:00:00	2024-11-08T00:00:00	4	Temperatura máxima	16.8
13303	7	Sololá	710	Panajachel	8	Panajachel	1	Enero	2023-12-01T00:00:00	2024-11-08T00:00:00	3	Temperatura mínima	16.1
13304	7	Sololá	710	Panajachel	8	Panajachel	1	Enero	2023-12-01T00:00:00	2024-11-08T00:00:00	5	Humedad	78
13305	7	Sololá	710	Panajachel	8	Panajachel	1	Enero	2023-12-01T00:00:00	2024-11-08T00:00:00	6	Velocidad del viento	1.6
13306	7	Sololá	710	Panajachel	8	Panajachel	1	Enero	2023-12-01T00:00:00	2024-11-08T00:00:00	7	Dirección del viento	1.61
13307	7	Sololá	710	Panajachel	8	Panajachel	1	Enero	2023-12-01T00:00:00	2024-11-08T00:00:00	1	Precipitación	0
13308	7	Sololá	710	Panajachel	8	Panajachel	1	Enero	2023-12-01T00:00:00	2024-11-08T00:00:00	8	Radiación solar	0
13309	7	Sololá	710	Panajachel	8	Panajachel	1	Enero	2023-12-01T00:00:00	2024-11-08T01:00:00	2	Temperatura media	15.7
13310	7	Sololá	710	Panajachel	8	Panajachel	1	Enero	2023-12-01T00:00:00	2024-11-08T01:00:00	4	Temperatura máxima	16.4
13311	7	Sololá	710	Panajachel	8	Panajachel	1	Enero	2023-12-01T00:00:00	2024-11-08T01:00:00	3	Temperatura mínima	15.7
13312	7	Sololá	710	Panajachel	8	Panajachel	1	Enero	2023-12-01T00:00:00	2024-11-08T01:00:00	5	Humedad	79
13313	7	Sololá	710	Panajachel	8	Panajachel	1	Enero	2023-12-01T00:00:00	2024-11-08T01:00:00	6	Velocidad del viento	3.2
13314	7	Sololá	710	Panajachel	8	Panajachel	1	Enero	2023-12-01T00:00:00	2024-11-08T01:00:00	7	Dirección del viento	3.22
13315	7	Sololá	710	Panajachel	8	Panajachel	1	Enero	2023-12-01T00:00:00	2024-11-08T01:00:00	1	Precipitación	0
13316	7	Sololá	710	Panajachel	8	Panajachel	1	Enero	2023-12-01T00:00:00	2024-11-08T01:00:00	8	Radiación solar	0
13317	7	Sololá	710	Panajachel	8	Panajachel	1	Enero	2023-12-01T00:00:00	2024-11-08T02:00:00	2	Temperatura media	15.4
13318	7	Sololá	710	Panajachel	8	Panajachel	1	Enero	2023-12-01T00:00:00	2024-11-08T02:00:00	4	Temperatura máxima	15.7
13319	7	Sololá	710	Panajachel	8	Panajachel	1	Enero	2023-12-01T00:00:00	2024-11-08T02:00:00	3	Temperatura mínima	15.4
13320	7	Sololá	710	Panajachel	8	Panajachel	1	Enero	2023-12-01T00:00:00	2024-11-08T02:00:00	5	Humedad	79
13321	7	Sololá	710	Panajachel	8	Panajachel	1	Enero	2023-12-01T00:00:00	2024-11-08T02:00:00	6	Velocidad del viento	3.2
13322	7	Sololá	710	Panajachel	8	Panajachel	1	Enero	2023-12-01T00:00:00	2024-11-08T02:00:00	7	Dirección del viento	3.22
13323	7	Sololá	710	Panajachel	8	Panajachel	1	Enero	2023-12-01T00:00:00	2024-11-08T02:00:00	1	Precipitación	0
13324	7	Sololá	710	Panajachel	8	Panajachel	1	Enero	2023-12-01T00:00:00	2024-11-08T02:00:00	8	Radiación solar	0
13325	7	Sololá	710	Panajachel	8	Panajachel	1	Enero	2023-12-01T00:00:00	2024-11-08T03:00:00	2	Temperatura media	14.9
13326	7	Sololá	710	Panajachel	8	Panajachel	1	Enero	2023-12-01T00:00:00	2024-11-08T03:00:00	4	Temperatura máxima	15.5
13327	7	Sololá	710	Panajachel	8	Panajachel	1	Enero	2023-12-01T00:00:00	2024-11-08T03:00:00	3	Temperatura mínima	14.9
13328	7	Sololá	710	Panajachel	8	Panajachel	1	Enero	2023-12-01T00:00:00	2024-11-08T03:00:00	5	Humedad	80
13329	7	Sololá	710	Panajachel	8	Panajachel	1	Enero	2023-12-01T00:00:00	2024-11-08T03:00:00	6	Velocidad del viento	1.6
13330	7	Sololá	710	Panajachel	8	Panajachel	1	Enero	2023-12-01T00:00:00	2024-11-08T03:00:00	7	Dirección del viento	1.61
13331	7	Sololá	710	Panajachel	8	Panajachel	1	Enero	2023-12-01T00:00:00	2024-11-08T03:00:00	1	Precipitación	0
13332	7	Sololá	710	Panajachel	8	Panajachel	1	Enero	2023-12-01T00:00:00	2024-11-08T03:00:00	8	Radiación solar	0
13333	7	Sololá	710	Panajachel	8	Panajachel	1	Enero	2023-12-01T00:00:00	2024-11-08T04:00:00	2	Temperatura media	14.4
13334	7	Sololá	710	Panajachel	8	Panajachel	1	Enero	2023-12-01T00:00:00	2024-11-08T04:00:00	4	Temperatura máxima	15.3
13335	7	Sololá	710	Panajachel	8	Panajachel	1	Enero	2023-12-01T00:00:00	2024-11-08T04:00:00	3	Temperatura mínima	14.3
13336	7	Sololá	710	Panajachel	8	Panajachel	1	Enero	2023-12-01T00:00:00	2024-11-08T04:00:00	5	Humedad	81
13337	7	Sololá	710	Panajachel	8	Panajachel	1	Enero	2023-12-01T00:00:00	2024-11-08T04:00:00	6	Velocidad del viento	3.2
13338	7	Sololá	710	Panajachel	8	Panajachel	1	Enero	2023-12-01T00:00:00	2024-11-08T04:00:00	7	Dirección del viento	3.22
13339	7	Sololá	710	Panajachel	8	Panajachel	1	Enero	2023-12-01T00:00:00	2024-11-08T04:00:00	1	Precipitación	0
13340	7	Sololá	710	Panajachel	8	Panajachel	1	Enero	2023-12-01T00:00:00	2024-11-08T04:00:00	8	Radiación solar	0
13341	7	Sololá	710	Panajachel	8	Panajachel	1	Enero	2023-12-01T00:00:00	2024-11-08T05:00:00	2	Temperatura media	14.6
13342	7	Sololá	710	Panajachel	8	Panajachel	1	Enero	2023-12-01T00:00:00	2024-11-08T05:00:00	4	Temperatura máxima	14.6
13343	7	Sololá	710	Panajachel	8	Panajachel	1	Enero	2023-12-01T00:00:00	2024-11-08T05:00:00	3	Temperatura mínima	14.2
13344	7	Sololá	710	Panajachel	8	Panajachel	1	Enero	2023-12-01T00:00:00	2024-11-08T05:00:00	5	Humedad	80
13345	7	Sololá	710	Panajachel	8	Panajachel	1	Enero	2023-12-01T00:00:00	2024-11-08T05:00:00	6	Velocidad del viento	1.6
13346	7	Sololá	710	Panajachel	8	Panajachel	1	Enero	2023-12-01T00:00:00	2024-11-08T05:00:00	7	Dirección del viento	1.61
13347	7	Sololá	710	Panajachel	8	Panajachel	1	Enero	2023-12-01T00:00:00	2024-11-08T05:00:00	1	Precipitación	0
13348	7	Sololá	710	Panajachel	8	Panajachel	1	Enero	2023-12-01T00:00:00	2024-11-08T05:00:00	8	Radiación solar	0
13349	7	Sololá	710	Panajachel	8	Panajachel	1	Enero	2023-12-01T00:00:00	2024-11-08T06:00:00	2	Temperatura media	14.3
13350	7	Sololá	710	Panajachel	8	Panajachel	1	Enero	2023-12-01T00:00:00	2024-11-08T06:00:00	4	Temperatura máxima	14.8
13351	7	Sololá	710	Panajachel	8	Panajachel	1	Enero	2023-12-01T00:00:00	2024-11-08T06:00:00	3	Temperatura mínima	14.3
13352	7	Sololá	710	Panajachel	8	Panajachel	1	Enero	2023-12-01T00:00:00	2024-11-08T06:00:00	5	Humedad	79
13353	7	Sololá	710	Panajachel	8	Panajachel	1	Enero	2023-12-01T00:00:00	2024-11-08T06:00:00	6	Velocidad del viento	1.6
13354	7	Sololá	710	Panajachel	8	Panajachel	1	Enero	2023-12-01T00:00:00	2024-11-08T06:00:00	7	Dirección del viento	1.61
13355	7	Sololá	710	Panajachel	8	Panajachel	1	Enero	2023-12-01T00:00:00	2024-11-08T06:00:00	1	Precipitación	0
13356	7	Sololá	710	Panajachel	8	Panajachel	1	Enero	2023-12-01T00:00:00	2024-11-08T06:00:00	8	Radiación solar	0
13357	7	Sololá	710	Panajachel	8	Panajachel	1	Enero	2023-12-01T00:00:00	2024-11-08T07:00:00	2	Temperatura media	13.8
13358	7	Sololá	710	Panajachel	8	Panajachel	1	Enero	2023-12-01T00:00:00	2024-11-08T07:00:00	4	Temperatura máxima	14.3
13359	7	Sololá	710	Panajachel	8	Panajachel	1	Enero	2023-12-01T00:00:00	2024-11-08T07:00:00	3	Temperatura mínima	13.8
13360	7	Sololá	710	Panajachel	8	Panajachel	1	Enero	2023-12-01T00:00:00	2024-11-08T07:00:00	5	Humedad	81
13361	7	Sololá	710	Panajachel	8	Panajachel	1	Enero	2023-12-01T00:00:00	2024-11-08T07:00:00	6	Velocidad del viento	1.6
13362	7	Sololá	710	Panajachel	8	Panajachel	1	Enero	2023-12-01T00:00:00	2024-11-08T07:00:00	7	Dirección del viento	1.61
13363	7	Sololá	710	Panajachel	8	Panajachel	1	Enero	2023-12-01T00:00:00	2024-11-08T07:00:00	1	Precipitación	0
13364	7	Sololá	710	Panajachel	8	Panajachel	1	Enero	2023-12-01T00:00:00	2024-11-08T07:00:00	8	Radiación solar	3
13365	7	Sololá	710	Panajachel	8	Panajachel	1	Enero	2023-12-01T00:00:00	2024-11-08T08:00:00	2	Temperatura media	15.4
13366	7	Sololá	710	Panajachel	8	Panajachel	1	Enero	2023-12-01T00:00:00	2024-11-08T08:00:00	4	Temperatura máxima	15.4
13367	7	Sololá	710	Panajachel	8	Panajachel	1	Enero	2023-12-01T00:00:00	2024-11-08T08:00:00	3	Temperatura mínima	13.7
13368	7	Sololá	710	Panajachel	8	Panajachel	1	Enero	2023-12-01T00:00:00	2024-11-08T08:00:00	5	Humedad	77
13369	7	Sololá	710	Panajachel	8	Panajachel	1	Enero	2023-12-01T00:00:00	2024-11-08T08:00:00	6	Velocidad del viento	1.6
13370	7	Sololá	710	Panajachel	8	Panajachel	1	Enero	2023-12-01T00:00:00	2024-11-08T08:00:00	7	Dirección del viento	1.61
13371	7	Sololá	710	Panajachel	8	Panajachel	1	Enero	2023-12-01T00:00:00	2024-11-08T08:00:00	1	Precipitación	0
13372	7	Sololá	710	Panajachel	8	Panajachel	1	Enero	2023-12-01T00:00:00	2024-11-08T08:00:00	8	Radiación solar	29
13373	7	Sololá	710	Panajachel	8	Panajachel	1	Enero	2023-12-01T00:00:00	2024-11-08T09:00:00	2	Temperatura media	18.6
13374	7	Sololá	710	Panajachel	8	Panajachel	1	Enero	2023-12-01T00:00:00	2024-11-08T09:00:00	4	Temperatura máxima	18.6
13375	7	Sololá	710	Panajachel	8	Panajachel	1	Enero	2023-12-01T00:00:00	2024-11-08T09:00:00	3	Temperatura mínima	15.4
13376	7	Sololá	710	Panajachel	8	Panajachel	1	Enero	2023-12-01T00:00:00	2024-11-08T09:00:00	5	Humedad	74
13377	7	Sololá	710	Panajachel	8	Panajachel	1	Enero	2023-12-01T00:00:00	2024-11-08T09:00:00	6	Velocidad del viento	1.6
13378	7	Sololá	710	Panajachel	8	Panajachel	1	Enero	2023-12-01T00:00:00	2024-11-08T09:00:00	7	Dirección del viento	1.61
13379	7	Sololá	710	Panajachel	8	Panajachel	1	Enero	2023-12-01T00:00:00	2024-11-08T09:00:00	1	Precipitación	0
13380	7	Sololá	710	Panajachel	8	Panajachel	1	Enero	2023-12-01T00:00:00	2024-11-08T09:00:00	8	Radiación solar	355
13381	7	Sololá	710	Panajachel	8	Panajachel	1	Enero	2023-12-01T00:00:00	2024-11-08T10:00:00	2	Temperatura media	19.8
13382	7	Sololá	710	Panajachel	8	Panajachel	1	Enero	2023-12-01T00:00:00	2024-11-08T10:00:00	4	Temperatura máxima	19.8
13383	7	Sololá	710	Panajachel	8	Panajachel	1	Enero	2023-12-01T00:00:00	2024-11-08T10:00:00	3	Temperatura mínima	18.6
13384	7	Sololá	710	Panajachel	8	Panajachel	1	Enero	2023-12-01T00:00:00	2024-11-08T10:00:00	5	Humedad	72
13385	7	Sololá	710	Panajachel	8	Panajachel	1	Enero	2023-12-01T00:00:00	2024-11-08T10:00:00	6	Velocidad del viento	3.2
13386	7	Sololá	710	Panajachel	8	Panajachel	1	Enero	2023-12-01T00:00:00	2024-11-08T10:00:00	7	Dirección del viento	3.22
13387	7	Sololá	710	Panajachel	8	Panajachel	1	Enero	2023-12-01T00:00:00	2024-11-08T10:00:00	1	Precipitación	0
13388	7	Sololá	710	Panajachel	8	Panajachel	1	Enero	2023-12-01T00:00:00	2024-11-08T10:00:00	8	Radiación solar	554
13389	7	Sololá	710	Panajachel	8	Panajachel	1	Enero	2023-12-01T00:00:00	2024-11-08T11:00:00	2	Temperatura media	21.1
13390	7	Sololá	710	Panajachel	8	Panajachel	1	Enero	2023-12-01T00:00:00	2024-11-08T11:00:00	4	Temperatura máxima	21.1
13391	7	Sololá	710	Panajachel	8	Panajachel	1	Enero	2023-12-01T00:00:00	2024-11-08T11:00:00	3	Temperatura mínima	19.6
13392	7	Sololá	710	Panajachel	8	Panajachel	1	Enero	2023-12-01T00:00:00	2024-11-08T11:00:00	5	Humedad	65
13393	7	Sololá	710	Panajachel	8	Panajachel	1	Enero	2023-12-01T00:00:00	2024-11-08T11:00:00	6	Velocidad del viento	4.8
13394	7	Sololá	710	Panajachel	8	Panajachel	1	Enero	2023-12-01T00:00:00	2024-11-08T11:00:00	7	Dirección del viento	4.83
13395	7	Sololá	710	Panajachel	8	Panajachel	1	Enero	2023-12-01T00:00:00	2024-11-08T11:00:00	1	Precipitación	0
13396	7	Sololá	710	Panajachel	8	Panajachel	1	Enero	2023-12-01T00:00:00	2024-11-08T11:00:00	8	Radiación solar	695
13397	7	Sololá	710	Panajachel	8	Panajachel	1	Enero	2023-12-01T00:00:00	2024-11-08T12:00:00	2	Temperatura media	22.5
13398	7	Sololá	710	Panajachel	8	Panajachel	1	Enero	2023-12-01T00:00:00	2024-11-08T12:00:00	4	Temperatura máxima	22.5
13399	7	Sololá	710	Panajachel	8	Panajachel	1	Enero	2023-12-01T00:00:00	2024-11-08T12:00:00	3	Temperatura mínima	21.1
13400	7	Sololá	710	Panajachel	8	Panajachel	1	Enero	2023-12-01T00:00:00	2024-11-08T12:00:00	5	Humedad	62
13401	7	Sololá	710	Panajachel	8	Panajachel	1	Enero	2023-12-01T00:00:00	2024-11-08T12:00:00	6	Velocidad del viento	3.2
13402	7	Sololá	710	Panajachel	8	Panajachel	1	Enero	2023-12-01T00:00:00	2024-11-08T12:00:00	7	Dirección del viento	3.22
13403	7	Sololá	710	Panajachel	8	Panajachel	1	Enero	2023-12-01T00:00:00	2024-11-08T12:00:00	1	Precipitación	0
13404	7	Sololá	710	Panajachel	8	Panajachel	1	Enero	2023-12-01T00:00:00	2024-11-08T12:00:00	8	Radiación solar	776
13405	7	Sololá	710	Panajachel	8	Panajachel	1	Enero	2023-12-01T00:00:00	2024-11-08T13:00:00	2	Temperatura media	22.6
13406	7	Sololá	710	Panajachel	8	Panajachel	1	Enero	2023-12-01T00:00:00	2024-11-08T13:00:00	4	Temperatura máxima	23.1
13407	7	Sololá	710	Panajachel	8	Panajachel	1	Enero	2023-12-01T00:00:00	2024-11-08T13:00:00	3	Temperatura mínima	22.3
13408	7	Sololá	710	Panajachel	8	Panajachel	1	Enero	2023-12-01T00:00:00	2024-11-08T13:00:00	5	Humedad	73
13409	7	Sololá	710	Panajachel	8	Panajachel	1	Enero	2023-12-01T00:00:00	2024-11-08T13:00:00	6	Velocidad del viento	4.8
13410	7	Sololá	710	Panajachel	8	Panajachel	1	Enero	2023-12-01T00:00:00	2024-11-08T13:00:00	7	Dirección del viento	4.83
13411	7	Sololá	710	Panajachel	8	Panajachel	1	Enero	2023-12-01T00:00:00	2024-11-08T13:00:00	1	Precipitación	0
13412	7	Sololá	710	Panajachel	8	Panajachel	1	Enero	2023-12-01T00:00:00	2024-11-08T13:00:00	8	Radiación solar	800
13413	7	Sololá	710	Panajachel	8	Panajachel	1	Enero	2023-12-01T00:00:00	2024-11-08T14:00:00	2	Temperatura media	22.9
13414	7	Sololá	710	Panajachel	8	Panajachel	1	Enero	2023-12-01T00:00:00	2024-11-08T14:00:00	4	Temperatura máxima	23.6
13415	7	Sololá	710	Panajachel	8	Panajachel	1	Enero	2023-12-01T00:00:00	2024-11-08T14:00:00	3	Temperatura mínima	22.4
13416	7	Sololá	710	Panajachel	8	Panajachel	1	Enero	2023-12-01T00:00:00	2024-11-08T14:00:00	5	Humedad	74
13417	7	Sololá	710	Panajachel	8	Panajachel	1	Enero	2023-12-01T00:00:00	2024-11-08T14:00:00	6	Velocidad del viento	4.8
13418	7	Sololá	710	Panajachel	8	Panajachel	1	Enero	2023-12-01T00:00:00	2024-11-08T14:00:00	7	Dirección del viento	4.83
13419	7	Sololá	710	Panajachel	8	Panajachel	1	Enero	2023-12-01T00:00:00	2024-11-08T14:00:00	1	Precipitación	0
13420	7	Sololá	710	Panajachel	8	Panajachel	1	Enero	2023-12-01T00:00:00	2024-11-08T14:00:00	8	Radiación solar	747
13421	7	Sololá	710	Panajachel	8	Panajachel	1	Enero	2023-12-01T00:00:00	2024-11-08T15:00:00	2	Temperatura media	21.8
13422	7	Sololá	710	Panajachel	8	Panajachel	1	Enero	2023-12-01T00:00:00	2024-11-08T15:00:00	4	Temperatura máxima	22.8
13423	7	Sololá	710	Panajachel	8	Panajachel	1	Enero	2023-12-01T00:00:00	2024-11-08T15:00:00	3	Temperatura mínima	21.7
13424	7	Sololá	710	Panajachel	8	Panajachel	1	Enero	2023-12-01T00:00:00	2024-11-08T15:00:00	5	Humedad	79
13425	7	Sololá	710	Panajachel	8	Panajachel	1	Enero	2023-12-01T00:00:00	2024-11-08T15:00:00	6	Velocidad del viento	3.2
13426	7	Sololá	710	Panajachel	8	Panajachel	1	Enero	2023-12-01T00:00:00	2024-11-08T15:00:00	7	Dirección del viento	3.22
13427	7	Sololá	710	Panajachel	8	Panajachel	1	Enero	2023-12-01T00:00:00	2024-11-08T15:00:00	1	Precipitación	0
13428	7	Sololá	710	Panajachel	8	Panajachel	1	Enero	2023-12-01T00:00:00	2024-11-08T15:00:00	8	Radiación solar	260
13429	7	Sololá	710	Panajachel	8	Panajachel	1	Enero	2023-12-01T00:00:00	2024-11-08T16:00:00	2	Temperatura media	21.2
13430	7	Sololá	710	Panajachel	8	Panajachel	1	Enero	2023-12-01T00:00:00	2024-11-08T16:00:00	4	Temperatura máxima	22.8
13431	7	Sololá	710	Panajachel	8	Panajachel	1	Enero	2023-12-01T00:00:00	2024-11-08T16:00:00	3	Temperatura mínima	21.2
13432	7	Sololá	710	Panajachel	8	Panajachel	1	Enero	2023-12-01T00:00:00	2024-11-08T16:00:00	5	Humedad	79
13433	7	Sololá	710	Panajachel	8	Panajachel	1	Enero	2023-12-01T00:00:00	2024-11-08T16:00:00	6	Velocidad del viento	1.6
13434	7	Sololá	710	Panajachel	8	Panajachel	1	Enero	2023-12-01T00:00:00	2024-11-08T16:00:00	7	Dirección del viento	1.61
13435	7	Sololá	710	Panajachel	8	Panajachel	1	Enero	2023-12-01T00:00:00	2024-11-08T16:00:00	1	Precipitación	0
13436	7	Sololá	710	Panajachel	8	Panajachel	1	Enero	2023-12-01T00:00:00	2024-11-08T16:00:00	8	Radiación solar	214
13437	7	Sololá	710	Panajachel	8	Panajachel	1	Enero	2023-12-01T00:00:00	2024-11-08T17:00:00	2	Temperatura media	20.8
13438	7	Sololá	710	Panajachel	8	Panajachel	1	Enero	2023-12-01T00:00:00	2024-11-08T17:00:00	4	Temperatura máxima	21.3
13439	7	Sololá	710	Panajachel	8	Panajachel	1	Enero	2023-12-01T00:00:00	2024-11-08T17:00:00	3	Temperatura mínima	20.8
13440	7	Sololá	710	Panajachel	8	Panajachel	1	Enero	2023-12-01T00:00:00	2024-11-08T17:00:00	5	Humedad	81
13441	7	Sololá	710	Panajachel	8	Panajachel	1	Enero	2023-12-01T00:00:00	2024-11-08T17:00:00	6	Velocidad del viento	0
13442	7	Sololá	710	Panajachel	8	Panajachel	1	Enero	2023-12-01T00:00:00	2024-11-08T17:00:00	7	Dirección del viento	0
13443	7	Sololá	710	Panajachel	8	Panajachel	1	Enero	2023-12-01T00:00:00	2024-11-08T17:00:00	1	Precipitación	0
13444	7	Sololá	710	Panajachel	8	Panajachel	1	Enero	2023-12-01T00:00:00	2024-11-08T17:00:00	8	Radiación solar	112
13445	7	Sololá	710	Panajachel	8	Panajachel	1	Enero	2023-12-01T00:00:00	2024-11-08T18:00:00	2	Temperatura media	19.6
13446	7	Sololá	710	Panajachel	8	Panajachel	1	Enero	2023-12-01T00:00:00	2024-11-08T18:00:00	4	Temperatura máxima	20.9
13447	7	Sololá	710	Panajachel	8	Panajachel	1	Enero	2023-12-01T00:00:00	2024-11-08T18:00:00	3	Temperatura mínima	19.6
13448	7	Sololá	710	Panajachel	8	Panajachel	1	Enero	2023-12-01T00:00:00	2024-11-08T18:00:00	5	Humedad	85
13449	7	Sololá	710	Panajachel	8	Panajachel	1	Enero	2023-12-01T00:00:00	2024-11-08T18:00:00	6	Velocidad del viento	0
13450	7	Sololá	710	Panajachel	8	Panajachel	1	Enero	2023-12-01T00:00:00	2024-11-08T18:00:00	7	Dirección del viento	0
13451	7	Sololá	710	Panajachel	8	Panajachel	1	Enero	2023-12-01T00:00:00	2024-11-08T18:00:00	1	Precipitación	0
13452	7	Sololá	710	Panajachel	8	Panajachel	1	Enero	2023-12-01T00:00:00	2024-11-08T18:00:00	8	Radiación solar	23
13453	7	Sololá	710	Panajachel	8	Panajachel	1	Enero	2023-12-01T00:00:00	2024-11-08T19:00:00	2	Temperatura media	18.7
13454	7	Sololá	710	Panajachel	8	Panajachel	1	Enero	2023-12-01T00:00:00	2024-11-08T19:00:00	4	Temperatura máxima	19.6
13455	7	Sololá	710	Panajachel	8	Panajachel	1	Enero	2023-12-01T00:00:00	2024-11-08T19:00:00	3	Temperatura mínima	18.7
13456	7	Sololá	710	Panajachel	8	Panajachel	1	Enero	2023-12-01T00:00:00	2024-11-08T19:00:00	5	Humedad	87
13457	7	Sololá	710	Panajachel	8	Panajachel	1	Enero	2023-12-01T00:00:00	2024-11-08T19:00:00	6	Velocidad del viento	0
13458	7	Sololá	710	Panajachel	8	Panajachel	1	Enero	2023-12-01T00:00:00	2024-11-08T19:00:00	7	Dirección del viento	0
13459	7	Sololá	710	Panajachel	8	Panajachel	1	Enero	2023-12-01T00:00:00	2024-11-08T19:00:00	1	Precipitación	0
13460	7	Sololá	710	Panajachel	8	Panajachel	1	Enero	2023-12-01T00:00:00	2024-11-08T19:00:00	8	Radiación solar	0
13461	7	Sololá	710	Panajachel	8	Panajachel	1	Enero	2023-12-01T00:00:00	2024-11-08T20:00:00	2	Temperatura media	17.8
13462	7	Sololá	710	Panajachel	8	Panajachel	1	Enero	2023-12-01T00:00:00	2024-11-08T20:00:00	4	Temperatura máxima	18.7
13463	7	Sololá	710	Panajachel	8	Panajachel	1	Enero	2023-12-01T00:00:00	2024-11-08T20:00:00	3	Temperatura mínima	17.7
13464	7	Sololá	710	Panajachel	8	Panajachel	1	Enero	2023-12-01T00:00:00	2024-11-08T20:00:00	5	Humedad	88
13465	7	Sololá	710	Panajachel	8	Panajachel	1	Enero	2023-12-01T00:00:00	2024-11-08T20:00:00	6	Velocidad del viento	1.6
13466	7	Sololá	710	Panajachel	8	Panajachel	1	Enero	2023-12-01T00:00:00	2024-11-08T20:00:00	7	Dirección del viento	1.61
13467	7	Sololá	710	Panajachel	8	Panajachel	1	Enero	2023-12-01T00:00:00	2024-11-08T20:00:00	1	Precipitación	0
13468	7	Sololá	710	Panajachel	8	Panajachel	1	Enero	2023-12-01T00:00:00	2024-11-08T20:00:00	8	Radiación solar	0
13469	7	Sololá	710	Panajachel	8	Panajachel	1	Enero	2023-12-01T00:00:00	2024-11-08T21:00:00	2	Temperatura media	18.3
13470	7	Sololá	710	Panajachel	8	Panajachel	1	Enero	2023-12-01T00:00:00	2024-11-08T21:00:00	4	Temperatura máxima	18.3
13471	7	Sololá	710	Panajachel	8	Panajachel	1	Enero	2023-12-01T00:00:00	2024-11-08T21:00:00	3	Temperatura mínima	17.7
13472	7	Sololá	710	Panajachel	8	Panajachel	1	Enero	2023-12-01T00:00:00	2024-11-08T21:00:00	5	Humedad	86
13473	7	Sololá	710	Panajachel	8	Panajachel	1	Enero	2023-12-01T00:00:00	2024-11-08T21:00:00	6	Velocidad del viento	3.2
13474	7	Sololá	710	Panajachel	8	Panajachel	1	Enero	2023-12-01T00:00:00	2024-11-08T21:00:00	7	Dirección del viento	3.22
13475	7	Sololá	710	Panajachel	8	Panajachel	1	Enero	2023-12-01T00:00:00	2024-11-08T21:00:00	1	Precipitación	0
13476	7	Sololá	710	Panajachel	8	Panajachel	1	Enero	2023-12-01T00:00:00	2024-11-08T21:00:00	8	Radiación solar	0
13477	7	Sololá	710	Panajachel	8	Panajachel	1	Enero	2023-12-01T00:00:00	2024-11-08T22:00:00	2	Temperatura media	17.7
13478	7	Sololá	710	Panajachel	8	Panajachel	1	Enero	2023-12-01T00:00:00	2024-11-08T22:00:00	4	Temperatura máxima	19
13479	7	Sololá	710	Panajachel	8	Panajachel	1	Enero	2023-12-01T00:00:00	2024-11-08T22:00:00	3	Temperatura mínima	17.7
13480	7	Sololá	710	Panajachel	8	Panajachel	1	Enero	2023-12-01T00:00:00	2024-11-08T22:00:00	5	Humedad	82
13481	7	Sololá	710	Panajachel	8	Panajachel	1	Enero	2023-12-01T00:00:00	2024-11-08T22:00:00	6	Velocidad del viento	1.6
13482	7	Sololá	710	Panajachel	8	Panajachel	1	Enero	2023-12-01T00:00:00	2024-11-08T22:00:00	7	Dirección del viento	1.61
13483	7	Sololá	710	Panajachel	8	Panajachel	1	Enero	2023-12-01T00:00:00	2024-11-08T22:00:00	1	Precipitación	0
13484	7	Sololá	710	Panajachel	8	Panajachel	1	Enero	2023-12-01T00:00:00	2024-11-08T22:00:00	8	Radiación solar	0
13485	7	Sololá	710	Panajachel	8	Panajachel	1	Enero	2023-12-01T00:00:00	2024-11-08T23:00:00	2	Temperatura media	17
13486	7	Sololá	710	Panajachel	8	Panajachel	1	Enero	2023-12-01T00:00:00	2024-11-08T23:00:00	4	Temperatura máxima	17.9
13487	7	Sololá	710	Panajachel	8	Panajachel	1	Enero	2023-12-01T00:00:00	2024-11-08T23:00:00	3	Temperatura mínima	17
13488	7	Sololá	710	Panajachel	8	Panajachel	1	Enero	2023-12-01T00:00:00	2024-11-08T23:00:00	5	Humedad	81
13489	7	Sololá	710	Panajachel	8	Panajachel	1	Enero	2023-12-01T00:00:00	2024-11-08T23:00:00	6	Velocidad del viento	1.6
13490	7	Sololá	710	Panajachel	8	Panajachel	1	Enero	2023-12-01T00:00:00	2024-11-08T23:00:00	7	Dirección del viento	1.61
13491	7	Sololá	710	Panajachel	8	Panajachel	1	Enero	2023-12-01T00:00:00	2024-11-08T23:00:00	1	Precipitación	0
13492	7	Sololá	710	Panajachel	8	Panajachel	1	Enero	2023-12-01T00:00:00	2024-11-08T23:00:00	8	Radiación solar	0
13493	7	Sololá	710	Panajachel	8	Panajachel	1	Enero	2023-01-13T00:00:00	2024-11-08T00:00:00	2	Temperatura media	16.1
13494	7	Sololá	710	Panajachel	8	Panajachel	1	Enero	2023-01-13T00:00:00	2024-11-08T00:00:00	4	Temperatura máxima	17
13495	7	Sololá	710	Panajachel	8	Panajachel	1	Enero	2023-01-13T00:00:00	2024-11-08T00:00:00	3	Temperatura mínima	16.1
13496	7	Sololá	710	Panajachel	8	Panajachel	1	Enero	2023-01-13T00:00:00	2024-11-08T00:00:00	5	Humedad	83
13497	7	Sololá	710	Panajachel	8	Panajachel	1	Enero	2023-01-13T00:00:00	2024-11-08T00:00:00	6	Velocidad del viento	1.6
13498	7	Sololá	710	Panajachel	8	Panajachel	1	Enero	2023-01-13T00:00:00	2024-11-08T00:00:00	7	Dirección del viento	1.61
13499	7	Sololá	710	Panajachel	8	Panajachel	1	Enero	2023-01-13T00:00:00	2024-11-08T00:00:00	1	Precipitación	0
13500	7	Sololá	710	Panajachel	8	Panajachel	1	Enero	2023-01-13T00:00:00	2024-11-08T00:00:00	8	Radiación solar	0
13501	7	Sololá	710	Panajachel	8	Panajachel	1	Enero	2023-01-13T00:00:00	2024-11-08T01:00:00	2	Temperatura media	18.4
13502	7	Sololá	710	Panajachel	8	Panajachel	1	Enero	2023-01-13T00:00:00	2024-11-08T01:00:00	4	Temperatura máxima	18.4
13503	7	Sololá	710	Panajachel	8	Panajachel	1	Enero	2023-01-13T00:00:00	2024-11-08T01:00:00	3	Temperatura mínima	16.1
13504	7	Sololá	710	Panajachel	8	Panajachel	1	Enero	2023-01-13T00:00:00	2024-11-08T01:00:00	5	Humedad	72
13505	7	Sololá	710	Panajachel	8	Panajachel	1	Enero	2023-01-13T00:00:00	2024-11-08T01:00:00	6	Velocidad del viento	1.6
13506	7	Sololá	710	Panajachel	8	Panajachel	1	Enero	2023-01-13T00:00:00	2024-11-08T01:00:00	7	Dirección del viento	1.61
13507	7	Sololá	710	Panajachel	8	Panajachel	1	Enero	2023-01-13T00:00:00	2024-11-08T01:00:00	1	Precipitación	0
13508	7	Sololá	710	Panajachel	8	Panajachel	1	Enero	2023-01-13T00:00:00	2024-11-08T01:00:00	8	Radiación solar	0
13509	7	Sololá	710	Panajachel	8	Panajachel	1	Enero	2023-01-13T00:00:00	2024-11-08T02:00:00	2	Temperatura media	17.7
13510	7	Sololá	710	Panajachel	8	Panajachel	1	Enero	2023-01-13T00:00:00	2024-11-08T02:00:00	4	Temperatura máxima	18.6
13511	7	Sololá	710	Panajachel	8	Panajachel	1	Enero	2023-01-13T00:00:00	2024-11-08T02:00:00	3	Temperatura mínima	17.3
13512	7	Sololá	710	Panajachel	8	Panajachel	1	Enero	2023-01-13T00:00:00	2024-11-08T02:00:00	5	Humedad	72
13513	7	Sololá	710	Panajachel	8	Panajachel	1	Enero	2023-01-13T00:00:00	2024-11-08T02:00:00	6	Velocidad del viento	3.2
13514	7	Sololá	710	Panajachel	8	Panajachel	1	Enero	2023-01-13T00:00:00	2024-11-08T02:00:00	7	Dirección del viento	3.22
13515	7	Sololá	710	Panajachel	8	Panajachel	1	Enero	2023-01-13T00:00:00	2024-11-08T02:00:00	1	Precipitación	0
13516	7	Sololá	710	Panajachel	8	Panajachel	1	Enero	2023-01-13T00:00:00	2024-11-08T02:00:00	8	Radiación solar	0
13517	7	Sololá	710	Panajachel	8	Panajachel	1	Enero	2023-01-13T00:00:00	2024-11-08T03:00:00	2	Temperatura media	17.8
13518	7	Sololá	710	Panajachel	8	Panajachel	1	Enero	2023-01-13T00:00:00	2024-11-08T03:00:00	4	Temperatura máxima	18
13519	7	Sololá	710	Panajachel	8	Panajachel	1	Enero	2023-01-13T00:00:00	2024-11-08T03:00:00	3	Temperatura mínima	17.5
13520	7	Sololá	710	Panajachel	8	Panajachel	1	Enero	2023-01-13T00:00:00	2024-11-08T03:00:00	5	Humedad	71
13521	7	Sololá	710	Panajachel	8	Panajachel	1	Enero	2023-01-13T00:00:00	2024-11-08T03:00:00	6	Velocidad del viento	6.4
13522	7	Sololá	710	Panajachel	8	Panajachel	1	Enero	2023-01-13T00:00:00	2024-11-08T03:00:00	7	Dirección del viento	6.44
13523	7	Sololá	710	Panajachel	8	Panajachel	1	Enero	2023-01-13T00:00:00	2024-11-08T03:00:00	1	Precipitación	0
13524	7	Sololá	710	Panajachel	8	Panajachel	1	Enero	2023-01-13T00:00:00	2024-11-08T03:00:00	8	Radiación solar	0
13525	7	Sololá	710	Panajachel	8	Panajachel	1	Enero	2023-01-13T00:00:00	2024-11-08T04:00:00	2	Temperatura media	17.9
13526	7	Sololá	710	Panajachel	8	Panajachel	1	Enero	2023-01-13T00:00:00	2024-11-08T04:00:00	4	Temperatura máxima	18.1
13527	7	Sololá	710	Panajachel	8	Panajachel	1	Enero	2023-01-13T00:00:00	2024-11-08T04:00:00	3	Temperatura mínima	17.7
13528	7	Sololá	710	Panajachel	8	Panajachel	1	Enero	2023-01-13T00:00:00	2024-11-08T04:00:00	5	Humedad	68
13529	7	Sololá	710	Panajachel	8	Panajachel	1	Enero	2023-01-13T00:00:00	2024-11-08T04:00:00	6	Velocidad del viento	8
13530	7	Sololá	710	Panajachel	8	Panajachel	1	Enero	2023-01-13T00:00:00	2024-11-08T04:00:00	7	Dirección del viento	8.05
13531	7	Sololá	710	Panajachel	8	Panajachel	1	Enero	2023-01-13T00:00:00	2024-11-08T04:00:00	1	Precipitación	0
13532	7	Sololá	710	Panajachel	8	Panajachel	1	Enero	2023-01-13T00:00:00	2024-11-08T04:00:00	8	Radiación solar	0
13533	7	Sololá	710	Panajachel	8	Panajachel	1	Enero	2023-01-13T00:00:00	2024-11-08T05:00:00	2	Temperatura media	17.6
13534	7	Sololá	710	Panajachel	8	Panajachel	1	Enero	2023-01-13T00:00:00	2024-11-08T05:00:00	4	Temperatura máxima	17.9
13535	7	Sololá	710	Panajachel	8	Panajachel	1	Enero	2023-01-13T00:00:00	2024-11-08T05:00:00	3	Temperatura mínima	17.5
13536	7	Sololá	710	Panajachel	8	Panajachel	1	Enero	2023-01-13T00:00:00	2024-11-08T05:00:00	5	Humedad	69
13537	7	Sololá	710	Panajachel	8	Panajachel	1	Enero	2023-01-13T00:00:00	2024-11-08T05:00:00	6	Velocidad del viento	6.4
13538	7	Sololá	710	Panajachel	8	Panajachel	1	Enero	2023-01-13T00:00:00	2024-11-08T05:00:00	7	Dirección del viento	6.44
13539	7	Sololá	710	Panajachel	8	Panajachel	1	Enero	2023-01-13T00:00:00	2024-11-08T05:00:00	1	Precipitación	0
13540	7	Sololá	710	Panajachel	8	Panajachel	1	Enero	2023-01-13T00:00:00	2024-11-08T05:00:00	8	Radiación solar	0
13541	7	Sololá	710	Panajachel	8	Panajachel	1	Enero	2023-01-13T00:00:00	2024-11-08T06:00:00	2	Temperatura media	17.6
13542	7	Sololá	710	Panajachel	8	Panajachel	1	Enero	2023-01-13T00:00:00	2024-11-08T06:00:00	4	Temperatura máxima	17.7
13543	7	Sololá	710	Panajachel	8	Panajachel	1	Enero	2023-01-13T00:00:00	2024-11-08T06:00:00	3	Temperatura mínima	17.5
13544	7	Sololá	710	Panajachel	8	Panajachel	1	Enero	2023-01-13T00:00:00	2024-11-08T06:00:00	5	Humedad	69
13545	7	Sololá	710	Panajachel	8	Panajachel	1	Enero	2023-01-13T00:00:00	2024-11-08T06:00:00	6	Velocidad del viento	9.7
13546	7	Sololá	710	Panajachel	8	Panajachel	1	Enero	2023-01-13T00:00:00	2024-11-08T06:00:00	7	Dirección del viento	9.66
13547	7	Sololá	710	Panajachel	8	Panajachel	1	Enero	2023-01-13T00:00:00	2024-11-08T06:00:00	1	Precipitación	0
13548	7	Sololá	710	Panajachel	8	Panajachel	1	Enero	2023-01-13T00:00:00	2024-11-08T06:00:00	8	Radiación solar	0
13549	7	Sololá	710	Panajachel	8	Panajachel	1	Enero	2023-01-13T00:00:00	2024-11-08T07:00:00	2	Temperatura media	17.7
13550	7	Sololá	710	Panajachel	8	Panajachel	1	Enero	2023-01-13T00:00:00	2024-11-08T07:00:00	4	Temperatura máxima	17.8
13551	7	Sololá	710	Panajachel	8	Panajachel	1	Enero	2023-01-13T00:00:00	2024-11-08T07:00:00	3	Temperatura mínima	17.6
13552	7	Sololá	710	Panajachel	8	Panajachel	1	Enero	2023-01-13T00:00:00	2024-11-08T07:00:00	5	Humedad	68
13553	7	Sololá	710	Panajachel	8	Panajachel	1	Enero	2023-01-13T00:00:00	2024-11-08T07:00:00	6	Velocidad del viento	8
13554	7	Sololá	710	Panajachel	8	Panajachel	1	Enero	2023-01-13T00:00:00	2024-11-08T07:00:00	7	Dirección del viento	8.05
13555	7	Sololá	710	Panajachel	8	Panajachel	1	Enero	2023-01-13T00:00:00	2024-11-08T07:00:00	1	Precipitación	0
13556	7	Sololá	710	Panajachel	8	Panajachel	1	Enero	2023-01-13T00:00:00	2024-11-08T07:00:00	8	Radiación solar	4
13557	7	Sololá	710	Panajachel	8	Panajachel	1	Enero	2023-01-13T00:00:00	2024-11-08T08:00:00	2	Temperatura media	18.5
13558	7	Sololá	710	Panajachel	8	Panajachel	1	Enero	2023-01-13T00:00:00	2024-11-08T08:00:00	4	Temperatura máxima	18.5
13559	7	Sololá	710	Panajachel	8	Panajachel	1	Enero	2023-01-13T00:00:00	2024-11-08T08:00:00	3	Temperatura mínima	17.6
13560	7	Sololá	710	Panajachel	8	Panajachel	1	Enero	2023-01-13T00:00:00	2024-11-08T08:00:00	5	Humedad	68
13561	7	Sololá	710	Panajachel	8	Panajachel	1	Enero	2023-01-13T00:00:00	2024-11-08T08:00:00	6	Velocidad del viento	9.7
13562	7	Sololá	710	Panajachel	8	Panajachel	1	Enero	2023-01-13T00:00:00	2024-11-08T08:00:00	7	Dirección del viento	9.66
13563	7	Sololá	710	Panajachel	8	Panajachel	1	Enero	2023-01-13T00:00:00	2024-11-08T08:00:00	1	Precipitación	0
13564	7	Sololá	710	Panajachel	8	Panajachel	1	Enero	2023-01-13T00:00:00	2024-11-08T08:00:00	8	Radiación solar	35
13565	7	Sololá	710	Panajachel	8	Panajachel	1	Enero	2023-01-13T00:00:00	2024-11-08T09:00:00	2	Temperatura media	19.7
13566	7	Sololá	710	Panajachel	8	Panajachel	1	Enero	2023-01-13T00:00:00	2024-11-08T09:00:00	4	Temperatura máxima	19.8
13567	7	Sololá	710	Panajachel	8	Panajachel	1	Enero	2023-01-13T00:00:00	2024-11-08T09:00:00	3	Temperatura mínima	18.5
13568	7	Sololá	710	Panajachel	8	Panajachel	1	Enero	2023-01-13T00:00:00	2024-11-08T09:00:00	5	Humedad	66
13569	7	Sololá	710	Panajachel	8	Panajachel	1	Enero	2023-01-13T00:00:00	2024-11-08T09:00:00	6	Velocidad del viento	11.3
13570	7	Sololá	710	Panajachel	8	Panajachel	1	Enero	2023-01-13T00:00:00	2024-11-08T09:00:00	7	Dirección del viento	11.27
13571	7	Sololá	710	Panajachel	8	Panajachel	1	Enero	2023-01-13T00:00:00	2024-11-08T09:00:00	1	Precipitación	0
13572	7	Sololá	710	Panajachel	8	Panajachel	1	Enero	2023-01-13T00:00:00	2024-11-08T09:00:00	8	Radiación solar	371
13573	7	Sololá	710	Panajachel	8	Panajachel	1	Enero	2023-01-13T00:00:00	2024-11-08T10:00:00	2	Temperatura media	20.6
13574	7	Sololá	710	Panajachel	8	Panajachel	1	Enero	2023-01-13T00:00:00	2024-11-08T10:00:00	4	Temperatura máxima	20.6
13575	7	Sololá	710	Panajachel	8	Panajachel	1	Enero	2023-01-13T00:00:00	2024-11-08T10:00:00	3	Temperatura mínima	19.7
13576	7	Sololá	710	Panajachel	8	Panajachel	1	Enero	2023-01-13T00:00:00	2024-11-08T10:00:00	5	Humedad	64
13577	7	Sololá	710	Panajachel	8	Panajachel	1	Enero	2023-01-13T00:00:00	2024-11-08T10:00:00	6	Velocidad del viento	16.1
13578	7	Sololá	710	Panajachel	8	Panajachel	1	Enero	2023-01-13T00:00:00	2024-11-08T10:00:00	7	Dirección del viento	16.09
13579	7	Sololá	710	Panajachel	8	Panajachel	1	Enero	2023-01-13T00:00:00	2024-11-08T10:00:00	1	Precipitación	0
13580	7	Sololá	710	Panajachel	8	Panajachel	1	Enero	2023-01-13T00:00:00	2024-11-08T10:00:00	8	Radiación solar	568
13581	7	Sololá	710	Panajachel	8	Panajachel	1	Enero	2023-01-13T00:00:00	2024-11-08T11:00:00	2	Temperatura media	20.8
13582	7	Sololá	710	Panajachel	8	Panajachel	1	Enero	2023-01-13T00:00:00	2024-11-08T11:00:00	4	Temperatura máxima	21.4
13583	7	Sololá	710	Panajachel	8	Panajachel	1	Enero	2023-01-13T00:00:00	2024-11-08T11:00:00	3	Temperatura mínima	20.6
13584	7	Sololá	710	Panajachel	8	Panajachel	1	Enero	2023-01-13T00:00:00	2024-11-08T11:00:00	5	Humedad	64
13585	7	Sololá	710	Panajachel	8	Panajachel	1	Enero	2023-01-13T00:00:00	2024-11-08T11:00:00	6	Velocidad del viento	14.5
13586	7	Sololá	710	Panajachel	8	Panajachel	1	Enero	2023-01-13T00:00:00	2024-11-08T11:00:00	7	Dirección del viento	14.48
13587	7	Sololá	710	Panajachel	8	Panajachel	1	Enero	2023-01-13T00:00:00	2024-11-08T11:00:00	1	Precipitación	0
13588	7	Sololá	710	Panajachel	8	Panajachel	1	Enero	2023-01-13T00:00:00	2024-11-08T11:00:00	8	Radiación solar	719
13589	7	Sololá	710	Panajachel	8	Panajachel	1	Enero	2023-01-13T00:00:00	2024-11-08T12:00:00	2	Temperatura media	21.5
13590	7	Sololá	710	Panajachel	8	Panajachel	1	Enero	2023-01-13T00:00:00	2024-11-08T12:00:00	4	Temperatura máxima	21.9
13591	7	Sololá	710	Panajachel	8	Panajachel	1	Enero	2023-01-13T00:00:00	2024-11-08T12:00:00	3	Temperatura mínima	20.5
13592	7	Sololá	710	Panajachel	8	Panajachel	1	Enero	2023-01-13T00:00:00	2024-11-08T12:00:00	5	Humedad	60
13593	7	Sololá	710	Panajachel	8	Panajachel	1	Enero	2023-01-13T00:00:00	2024-11-08T12:00:00	6	Velocidad del viento	14.5
13594	7	Sololá	710	Panajachel	8	Panajachel	1	Enero	2023-01-13T00:00:00	2024-11-08T12:00:00	7	Dirección del viento	14.48
13595	7	Sololá	710	Panajachel	8	Panajachel	1	Enero	2023-01-13T00:00:00	2024-11-08T12:00:00	1	Precipitación	0
13596	7	Sololá	710	Panajachel	8	Panajachel	1	Enero	2023-01-13T00:00:00	2024-11-08T12:00:00	8	Radiación solar	799
13597	7	Sololá	710	Panajachel	8	Panajachel	1	Enero	2023-01-13T00:00:00	2024-11-08T13:00:00	2	Temperatura media	22.7
13598	7	Sololá	710	Panajachel	8	Panajachel	1	Enero	2023-01-13T00:00:00	2024-11-08T13:00:00	4	Temperatura máxima	22.9
13599	7	Sololá	710	Panajachel	8	Panajachel	1	Enero	2023-01-13T00:00:00	2024-11-08T13:00:00	3	Temperatura mínima	21.5
13600	7	Sololá	710	Panajachel	8	Panajachel	1	Enero	2023-01-13T00:00:00	2024-11-08T13:00:00	5	Humedad	56
13601	7	Sololá	710	Panajachel	8	Panajachel	1	Enero	2023-01-13T00:00:00	2024-11-08T13:00:00	6	Velocidad del viento	12.9
13602	7	Sololá	710	Panajachel	8	Panajachel	1	Enero	2023-01-13T00:00:00	2024-11-08T13:00:00	7	Dirección del viento	12.87
13603	7	Sololá	710	Panajachel	8	Panajachel	1	Enero	2023-01-13T00:00:00	2024-11-08T13:00:00	1	Precipitación	0
13604	7	Sololá	710	Panajachel	8	Panajachel	1	Enero	2023-01-13T00:00:00	2024-11-08T13:00:00	8	Radiación solar	813
13605	7	Sololá	710	Panajachel	8	Panajachel	1	Enero	2023-01-13T00:00:00	2024-11-08T14:00:00	2	Temperatura media	23.1
13606	7	Sololá	710	Panajachel	8	Panajachel	1	Enero	2023-01-13T00:00:00	2024-11-08T14:00:00	4	Temperatura máxima	23.1
13607	7	Sololá	710	Panajachel	8	Panajachel	1	Enero	2023-01-13T00:00:00	2024-11-08T14:00:00	3	Temperatura mínima	22.4
13608	7	Sololá	710	Panajachel	8	Panajachel	1	Enero	2023-01-13T00:00:00	2024-11-08T14:00:00	5	Humedad	55
13609	7	Sololá	710	Panajachel	8	Panajachel	1	Enero	2023-01-13T00:00:00	2024-11-08T14:00:00	6	Velocidad del viento	11.3
13610	7	Sololá	710	Panajachel	8	Panajachel	1	Enero	2023-01-13T00:00:00	2024-11-08T14:00:00	7	Dirección del viento	11.27
13611	7	Sololá	710	Panajachel	8	Panajachel	1	Enero	2023-01-13T00:00:00	2024-11-08T14:00:00	1	Precipitación	0
13612	7	Sololá	710	Panajachel	8	Panajachel	1	Enero	2023-01-13T00:00:00	2024-11-08T14:00:00	8	Radiación solar	759
13613	7	Sololá	710	Panajachel	8	Panajachel	1	Enero	2023-01-13T00:00:00	2024-11-08T15:00:00	2	Temperatura media	22.4
13614	7	Sololá	710	Panajachel	8	Panajachel	1	Enero	2023-01-13T00:00:00	2024-11-08T15:00:00	4	Temperatura máxima	23.3
13615	7	Sololá	710	Panajachel	8	Panajachel	1	Enero	2023-01-13T00:00:00	2024-11-08T15:00:00	3	Temperatura mínima	22.2
13616	7	Sololá	710	Panajachel	8	Panajachel	1	Enero	2023-01-13T00:00:00	2024-11-08T15:00:00	5	Humedad	55
13617	7	Sololá	710	Panajachel	8	Panajachel	1	Enero	2023-01-13T00:00:00	2024-11-08T15:00:00	6	Velocidad del viento	12.9
13618	7	Sololá	710	Panajachel	8	Panajachel	1	Enero	2023-01-13T00:00:00	2024-11-08T15:00:00	7	Dirección del viento	12.87
13619	7	Sololá	710	Panajachel	8	Panajachel	1	Enero	2023-01-13T00:00:00	2024-11-08T15:00:00	1	Precipitación	0
13620	7	Sololá	710	Panajachel	8	Panajachel	1	Enero	2023-01-13T00:00:00	2024-11-08T15:00:00	8	Radiación solar	635
13621	7	Sololá	710	Panajachel	8	Panajachel	1	Enero	2023-01-13T00:00:00	2024-11-08T16:00:00	2	Temperatura media	22.6
13622	7	Sololá	710	Panajachel	8	Panajachel	1	Enero	2023-01-13T00:00:00	2024-11-08T16:00:00	4	Temperatura máxima	22.6
13623	7	Sololá	710	Panajachel	8	Panajachel	1	Enero	2023-01-13T00:00:00	2024-11-08T16:00:00	3	Temperatura mínima	22.2
13624	7	Sololá	710	Panajachel	8	Panajachel	1	Enero	2023-01-13T00:00:00	2024-11-08T16:00:00	5	Humedad	55
13625	7	Sololá	710	Panajachel	8	Panajachel	1	Enero	2023-01-13T00:00:00	2024-11-08T16:00:00	6	Velocidad del viento	9.7
13626	7	Sololá	710	Panajachel	8	Panajachel	1	Enero	2023-01-13T00:00:00	2024-11-08T16:00:00	7	Dirección del viento	9.66
13627	7	Sololá	710	Panajachel	8	Panajachel	1	Enero	2023-01-13T00:00:00	2024-11-08T16:00:00	1	Precipitación	0
13628	7	Sololá	710	Panajachel	8	Panajachel	1	Enero	2023-01-13T00:00:00	2024-11-08T16:00:00	8	Radiación solar	479
13629	7	Sololá	710	Panajachel	8	Panajachel	1	Enero	2023-01-13T00:00:00	2024-11-08T17:00:00	2	Temperatura media	19.1
13630	7	Sololá	710	Panajachel	8	Panajachel	1	Enero	2023-01-13T00:00:00	2024-11-08T17:00:00	4	Temperatura máxima	22.6
13631	7	Sololá	710	Panajachel	8	Panajachel	1	Enero	2023-01-13T00:00:00	2024-11-08T17:00:00	3	Temperatura mínima	19.1
13632	7	Sololá	710	Panajachel	8	Panajachel	1	Enero	2023-01-13T00:00:00	2024-11-08T17:00:00	5	Humedad	68
13633	7	Sololá	710	Panajachel	8	Panajachel	1	Enero	2023-01-13T00:00:00	2024-11-08T17:00:00	6	Velocidad del viento	11.3
13634	7	Sololá	710	Panajachel	8	Panajachel	1	Enero	2023-01-13T00:00:00	2024-11-08T17:00:00	7	Dirección del viento	11.27
13635	7	Sololá	710	Panajachel	8	Panajachel	1	Enero	2023-01-13T00:00:00	2024-11-08T17:00:00	1	Precipitación	0
13636	7	Sololá	710	Panajachel	8	Panajachel	1	Enero	2023-01-13T00:00:00	2024-11-08T17:00:00	8	Radiación solar	131
13637	7	Sololá	710	Panajachel	8	Panajachel	1	Enero	2023-01-13T00:00:00	2024-11-08T18:00:00	2	Temperatura media	18.2
13638	7	Sololá	710	Panajachel	8	Panajachel	1	Enero	2023-01-13T00:00:00	2024-11-08T18:00:00	4	Temperatura máxima	19.1
13639	7	Sololá	710	Panajachel	8	Panajachel	1	Enero	2023-01-13T00:00:00	2024-11-08T18:00:00	3	Temperatura mínima	18.2
13640	7	Sololá	710	Panajachel	8	Panajachel	1	Enero	2023-01-13T00:00:00	2024-11-08T18:00:00	5	Humedad	69
13641	7	Sololá	710	Panajachel	8	Panajachel	1	Enero	2023-01-13T00:00:00	2024-11-08T18:00:00	6	Velocidad del viento	8
13642	7	Sololá	710	Panajachel	8	Panajachel	1	Enero	2023-01-13T00:00:00	2024-11-08T18:00:00	7	Dirección del viento	8.05
13643	7	Sololá	710	Panajachel	8	Panajachel	1	Enero	2023-01-13T00:00:00	2024-11-08T18:00:00	1	Precipitación	0
13644	7	Sololá	710	Panajachel	8	Panajachel	1	Enero	2023-01-13T00:00:00	2024-11-08T18:00:00	8	Radiación solar	18
13645	7	Sololá	710	Panajachel	8	Panajachel	1	Enero	2023-01-13T00:00:00	2024-11-08T19:00:00	2	Temperatura media	18.1
13646	7	Sololá	710	Panajachel	8	Panajachel	1	Enero	2023-01-13T00:00:00	2024-11-08T19:00:00	4	Temperatura máxima	18.2
13647	7	Sololá	710	Panajachel	8	Panajachel	1	Enero	2023-01-13T00:00:00	2024-11-08T19:00:00	3	Temperatura mínima	17.9
13648	7	Sololá	710	Panajachel	8	Panajachel	1	Enero	2023-01-13T00:00:00	2024-11-08T19:00:00	5	Humedad	69
13649	7	Sololá	710	Panajachel	8	Panajachel	1	Enero	2023-01-13T00:00:00	2024-11-08T19:00:00	6	Velocidad del viento	8
13650	7	Sololá	710	Panajachel	8	Panajachel	1	Enero	2023-01-13T00:00:00	2024-11-08T19:00:00	7	Dirección del viento	8.05
13651	7	Sololá	710	Panajachel	8	Panajachel	1	Enero	2023-01-13T00:00:00	2024-11-08T19:00:00	1	Precipitación	0
13652	7	Sololá	710	Panajachel	8	Panajachel	1	Enero	2023-01-13T00:00:00	2024-11-08T19:00:00	8	Radiación solar	0
13653	7	Sololá	710	Panajachel	8	Panajachel	1	Enero	2023-01-13T00:00:00	2024-11-08T20:00:00	2	Temperatura media	17.6
13654	7	Sololá	710	Panajachel	8	Panajachel	1	Enero	2023-01-13T00:00:00	2024-11-08T20:00:00	4	Temperatura máxima	18.1
13655	7	Sololá	710	Panajachel	8	Panajachel	1	Enero	2023-01-13T00:00:00	2024-11-08T20:00:00	3	Temperatura mínima	17.4
13656	7	Sololá	710	Panajachel	8	Panajachel	1	Enero	2023-01-13T00:00:00	2024-11-08T20:00:00	5	Humedad	70
13657	7	Sololá	710	Panajachel	8	Panajachel	1	Enero	2023-01-13T00:00:00	2024-11-08T20:00:00	6	Velocidad del viento	4.8
13658	7	Sololá	710	Panajachel	8	Panajachel	1	Enero	2023-01-13T00:00:00	2024-11-08T20:00:00	7	Dirección del viento	4.83
13659	7	Sololá	710	Panajachel	8	Panajachel	1	Enero	2023-01-13T00:00:00	2024-11-08T20:00:00	1	Precipitación	0
13660	7	Sololá	710	Panajachel	8	Panajachel	1	Enero	2023-01-13T00:00:00	2024-11-08T20:00:00	8	Radiación solar	0
13661	7	Sololá	710	Panajachel	8	Panajachel	1	Enero	2023-01-13T00:00:00	2024-11-08T21:00:00	2	Temperatura media	17.1
13662	7	Sololá	710	Panajachel	8	Panajachel	1	Enero	2023-01-13T00:00:00	2024-11-08T21:00:00	4	Temperatura máxima	17.6
13663	7	Sololá	710	Panajachel	8	Panajachel	1	Enero	2023-01-13T00:00:00	2024-11-08T21:00:00	3	Temperatura mínima	17.1
13664	7	Sololá	710	Panajachel	8	Panajachel	1	Enero	2023-01-13T00:00:00	2024-11-08T21:00:00	5	Humedad	69
13665	7	Sololá	710	Panajachel	8	Panajachel	1	Enero	2023-01-13T00:00:00	2024-11-08T21:00:00	6	Velocidad del viento	16.1
13666	7	Sololá	710	Panajachel	8	Panajachel	1	Enero	2023-01-13T00:00:00	2024-11-08T21:00:00	7	Dirección del viento	16.09
13667	7	Sololá	710	Panajachel	8	Panajachel	1	Enero	2023-01-13T00:00:00	2024-11-08T21:00:00	1	Precipitación	0
13668	7	Sololá	710	Panajachel	8	Panajachel	1	Enero	2023-01-13T00:00:00	2024-11-08T21:00:00	8	Radiación solar	0
13669	7	Sololá	710	Panajachel	8	Panajachel	1	Enero	2023-01-13T00:00:00	2024-11-08T22:00:00	2	Temperatura media	16.9
13670	7	Sololá	710	Panajachel	8	Panajachel	1	Enero	2023-01-13T00:00:00	2024-11-08T22:00:00	4	Temperatura máxima	17.1
13671	7	Sololá	710	Panajachel	8	Panajachel	1	Enero	2023-01-13T00:00:00	2024-11-08T22:00:00	3	Temperatura mínima	16.8
13672	7	Sololá	710	Panajachel	8	Panajachel	1	Enero	2023-01-13T00:00:00	2024-11-08T22:00:00	5	Humedad	67
13673	7	Sololá	710	Panajachel	8	Panajachel	1	Enero	2023-01-13T00:00:00	2024-11-08T22:00:00	6	Velocidad del viento	16.1
13674	7	Sololá	710	Panajachel	8	Panajachel	1	Enero	2023-01-13T00:00:00	2024-11-08T22:00:00	7	Dirección del viento	16.09
13675	7	Sololá	710	Panajachel	8	Panajachel	1	Enero	2023-01-13T00:00:00	2024-11-08T22:00:00	1	Precipitación	0
13676	7	Sololá	710	Panajachel	8	Panajachel	1	Enero	2023-01-13T00:00:00	2024-11-08T22:00:00	8	Radiación solar	0
13677	7	Sololá	710	Panajachel	8	Panajachel	1	Enero	2023-01-13T00:00:00	2024-11-08T23:00:00	2	Temperatura media	17.2
13678	7	Sololá	710	Panajachel	8	Panajachel	1	Enero	2023-01-13T00:00:00	2024-11-08T23:00:00	4	Temperatura máxima	17.2
13679	7	Sololá	710	Panajachel	8	Panajachel	1	Enero	2023-01-13T00:00:00	2024-11-08T23:00:00	3	Temperatura mínima	16.8
13680	7	Sololá	710	Panajachel	8	Panajachel	1	Enero	2023-01-13T00:00:00	2024-11-08T23:00:00	5	Humedad	66
13681	7	Sololá	710	Panajachel	8	Panajachel	1	Enero	2023-01-13T00:00:00	2024-11-08T23:00:00	6	Velocidad del viento	9.7
13682	7	Sololá	710	Panajachel	8	Panajachel	1	Enero	2023-01-13T00:00:00	2024-11-08T23:00:00	7	Dirección del viento	9.66
13683	7	Sololá	710	Panajachel	8	Panajachel	1	Enero	2023-01-13T00:00:00	2024-11-08T23:00:00	1	Precipitación	0
13684	7	Sololá	710	Panajachel	8	Panajachel	1	Enero	2023-01-13T00:00:00	2024-11-08T23:00:00	8	Radiación solar	0
13685	7	Sololá	710	Panajachel	8	Panajachel	1	Enero	2023-01-14T00:00:00	2024-11-08T00:00:00	2	Temperatura media	17.2
13686	7	Sololá	710	Panajachel	8	Panajachel	1	Enero	2023-01-14T00:00:00	2024-11-08T00:00:00	4	Temperatura máxima	17.3
13687	7	Sololá	710	Panajachel	8	Panajachel	1	Enero	2023-01-14T00:00:00	2024-11-08T00:00:00	3	Temperatura mínima	17.2
13688	7	Sololá	710	Panajachel	8	Panajachel	1	Enero	2023-01-14T00:00:00	2024-11-08T00:00:00	5	Humedad	65
13689	7	Sololá	710	Panajachel	8	Panajachel	1	Enero	2023-01-14T00:00:00	2024-11-08T00:00:00	6	Velocidad del viento	8
13690	7	Sololá	710	Panajachel	8	Panajachel	1	Enero	2023-01-14T00:00:00	2024-11-08T00:00:00	7	Dirección del viento	8.05
13691	7	Sololá	710	Panajachel	8	Panajachel	1	Enero	2023-01-14T00:00:00	2024-11-08T00:00:00	1	Precipitación	0
13692	7	Sololá	710	Panajachel	8	Panajachel	1	Enero	2023-01-14T00:00:00	2024-11-08T00:00:00	8	Radiación solar	0
13693	7	Sololá	710	Panajachel	8	Panajachel	1	Enero	2023-01-14T00:00:00	2024-11-08T01:00:00	2	Temperatura media	17.2
13694	7	Sololá	710	Panajachel	8	Panajachel	1	Enero	2023-01-14T00:00:00	2024-11-08T01:00:00	4	Temperatura máxima	17.2
13695	7	Sololá	710	Panajachel	8	Panajachel	1	Enero	2023-01-14T00:00:00	2024-11-08T01:00:00	3	Temperatura mínima	17
13696	7	Sololá	710	Panajachel	8	Panajachel	1	Enero	2023-01-14T00:00:00	2024-11-08T01:00:00	5	Humedad	65
13697	7	Sololá	710	Panajachel	8	Panajachel	1	Enero	2023-01-14T00:00:00	2024-11-08T01:00:00	6	Velocidad del viento	6.4
13698	7	Sololá	710	Panajachel	8	Panajachel	1	Enero	2023-01-14T00:00:00	2024-11-08T01:00:00	7	Dirección del viento	6.44
13699	7	Sololá	710	Panajachel	8	Panajachel	1	Enero	2023-01-14T00:00:00	2024-11-08T01:00:00	1	Precipitación	0
13700	7	Sololá	710	Panajachel	8	Panajachel	1	Enero	2023-01-14T00:00:00	2024-11-08T01:00:00	8	Radiación solar	0
13701	7	Sololá	710	Panajachel	8	Panajachel	1	Enero	2023-01-14T00:00:00	2024-11-08T02:00:00	2	Temperatura media	16.9
13702	7	Sololá	710	Panajachel	8	Panajachel	1	Enero	2023-01-14T00:00:00	2024-11-08T02:00:00	4	Temperatura máxima	17.3
13703	7	Sololá	710	Panajachel	8	Panajachel	1	Enero	2023-01-14T00:00:00	2024-11-08T02:00:00	3	Temperatura mínima	16.9
13704	7	Sololá	710	Panajachel	8	Panajachel	1	Enero	2023-01-14T00:00:00	2024-11-08T02:00:00	5	Humedad	66
13705	7	Sololá	710	Panajachel	8	Panajachel	1	Enero	2023-01-14T00:00:00	2024-11-08T02:00:00	6	Velocidad del viento	9.7
13706	7	Sololá	710	Panajachel	8	Panajachel	1	Enero	2023-01-14T00:00:00	2024-11-08T02:00:00	7	Dirección del viento	9.66
13707	7	Sololá	710	Panajachel	8	Panajachel	1	Enero	2023-01-14T00:00:00	2024-11-08T02:00:00	1	Precipitación	0
13708	7	Sololá	710	Panajachel	8	Panajachel	1	Enero	2023-01-14T00:00:00	2024-11-08T02:00:00	8	Radiación solar	0
13709	7	Sololá	710	Panajachel	8	Panajachel	1	Enero	2023-01-14T00:00:00	2024-11-08T03:00:00	2	Temperatura media	16.7
13710	7	Sololá	710	Panajachel	8	Panajachel	1	Enero	2023-01-14T00:00:00	2024-11-08T03:00:00	4	Temperatura máxima	17.1
13711	7	Sololá	710	Panajachel	8	Panajachel	1	Enero	2023-01-14T00:00:00	2024-11-08T03:00:00	3	Temperatura mínima	16.7
13712	7	Sololá	710	Panajachel	8	Panajachel	1	Enero	2023-01-14T00:00:00	2024-11-08T03:00:00	5	Humedad	64
13713	7	Sololá	710	Panajachel	8	Panajachel	1	Enero	2023-01-14T00:00:00	2024-11-08T03:00:00	6	Velocidad del viento	16.1
13714	7	Sololá	710	Panajachel	8	Panajachel	1	Enero	2023-01-14T00:00:00	2024-11-08T03:00:00	7	Dirección del viento	16.09
13715	7	Sololá	710	Panajachel	8	Panajachel	1	Enero	2023-01-14T00:00:00	2024-11-08T03:00:00	1	Precipitación	0
13716	7	Sololá	710	Panajachel	8	Panajachel	1	Enero	2023-01-14T00:00:00	2024-11-08T03:00:00	8	Radiación solar	0
13717	7	Sololá	710	Panajachel	8	Panajachel	1	Enero	2023-01-14T00:00:00	2024-11-08T04:00:00	2	Temperatura media	17
13718	7	Sololá	710	Panajachel	8	Panajachel	1	Enero	2023-01-14T00:00:00	2024-11-08T04:00:00	4	Temperatura máxima	17
13719	7	Sololá	710	Panajachel	8	Panajachel	1	Enero	2023-01-14T00:00:00	2024-11-08T04:00:00	3	Temperatura mínima	16.7
13720	7	Sololá	710	Panajachel	8	Panajachel	1	Enero	2023-01-14T00:00:00	2024-11-08T04:00:00	5	Humedad	64
13721	7	Sololá	710	Panajachel	8	Panajachel	1	Enero	2023-01-14T00:00:00	2024-11-08T04:00:00	6	Velocidad del viento	17.7
13722	7	Sololá	710	Panajachel	8	Panajachel	1	Enero	2023-01-14T00:00:00	2024-11-08T04:00:00	7	Dirección del viento	17.7
13723	7	Sololá	710	Panajachel	8	Panajachel	1	Enero	2023-01-14T00:00:00	2024-11-08T04:00:00	1	Precipitación	0
13724	7	Sololá	710	Panajachel	8	Panajachel	1	Enero	2023-01-14T00:00:00	2024-11-08T04:00:00	8	Radiación solar	0
13725	7	Sololá	710	Panajachel	8	Panajachel	1	Enero	2023-01-14T00:00:00	2024-11-08T05:00:00	2	Temperatura media	16.6
13726	7	Sololá	710	Panajachel	8	Panajachel	1	Enero	2023-01-14T00:00:00	2024-11-08T05:00:00	4	Temperatura máxima	17.1
13727	7	Sololá	710	Panajachel	8	Panajachel	1	Enero	2023-01-14T00:00:00	2024-11-08T05:00:00	3	Temperatura mínima	16.6
13728	7	Sololá	710	Panajachel	8	Panajachel	1	Enero	2023-01-14T00:00:00	2024-11-08T05:00:00	5	Humedad	67
13729	7	Sololá	710	Panajachel	8	Panajachel	1	Enero	2023-01-14T00:00:00	2024-11-08T05:00:00	6	Velocidad del viento	17.7
13730	7	Sololá	710	Panajachel	8	Panajachel	1	Enero	2023-01-14T00:00:00	2024-11-08T05:00:00	7	Dirección del viento	17.7
13731	7	Sololá	710	Panajachel	8	Panajachel	1	Enero	2023-01-14T00:00:00	2024-11-08T05:00:00	1	Precipitación	0
13732	7	Sololá	710	Panajachel	8	Panajachel	1	Enero	2023-01-14T00:00:00	2024-11-08T05:00:00	8	Radiación solar	0
13733	7	Sololá	710	Panajachel	8	Panajachel	1	Enero	2023-01-14T00:00:00	2024-11-08T06:00:00	2	Temperatura media	15.9
13734	7	Sololá	710	Panajachel	8	Panajachel	1	Enero	2023-01-14T00:00:00	2024-11-08T06:00:00	4	Temperatura máxima	16.6
13735	7	Sololá	710	Panajachel	8	Panajachel	1	Enero	2023-01-14T00:00:00	2024-11-08T06:00:00	3	Temperatura mínima	15.9
13736	7	Sololá	710	Panajachel	8	Panajachel	1	Enero	2023-01-14T00:00:00	2024-11-08T06:00:00	5	Humedad	70
13737	7	Sololá	710	Panajachel	8	Panajachel	1	Enero	2023-01-14T00:00:00	2024-11-08T06:00:00	6	Velocidad del viento	19.3
13738	7	Sololá	710	Panajachel	8	Panajachel	1	Enero	2023-01-14T00:00:00	2024-11-08T06:00:00	7	Dirección del viento	19.31
13739	7	Sololá	710	Panajachel	8	Panajachel	1	Enero	2023-01-14T00:00:00	2024-11-08T06:00:00	1	Precipitación	0
13740	7	Sololá	710	Panajachel	8	Panajachel	1	Enero	2023-01-14T00:00:00	2024-11-08T06:00:00	8	Radiación solar	0
13741	7	Sololá	710	Panajachel	8	Panajachel	1	Enero	2023-01-14T00:00:00	2024-11-08T07:00:00	2	Temperatura media	15.6
13742	7	Sololá	710	Panajachel	8	Panajachel	1	Enero	2023-01-14T00:00:00	2024-11-08T07:00:00	4	Temperatura máxima	16
13743	7	Sololá	710	Panajachel	8	Panajachel	1	Enero	2023-01-14T00:00:00	2024-11-08T07:00:00	3	Temperatura mínima	15.6
13744	7	Sololá	710	Panajachel	8	Panajachel	1	Enero	2023-01-14T00:00:00	2024-11-08T07:00:00	5	Humedad	71
13745	7	Sololá	710	Panajachel	8	Panajachel	1	Enero	2023-01-14T00:00:00	2024-11-08T07:00:00	6	Velocidad del viento	20.9
13746	7	Sololá	710	Panajachel	8	Panajachel	1	Enero	2023-01-14T00:00:00	2024-11-08T07:00:00	7	Dirección del viento	20.92
13747	7	Sololá	710	Panajachel	8	Panajachel	1	Enero	2023-01-14T00:00:00	2024-11-08T07:00:00	1	Precipitación	0
13748	7	Sololá	710	Panajachel	8	Panajachel	1	Enero	2023-01-14T00:00:00	2024-11-08T07:00:00	8	Radiación solar	3
13749	7	Sololá	710	Panajachel	8	Panajachel	1	Enero	2023-01-14T00:00:00	2024-11-08T08:00:00	2	Temperatura media	16.6
13750	7	Sololá	710	Panajachel	8	Panajachel	1	Enero	2023-01-14T00:00:00	2024-11-08T08:00:00	4	Temperatura máxima	16.6
13751	7	Sololá	710	Panajachel	8	Panajachel	1	Enero	2023-01-14T00:00:00	2024-11-08T08:00:00	3	Temperatura mínima	15.6
13752	7	Sololá	710	Panajachel	8	Panajachel	1	Enero	2023-01-14T00:00:00	2024-11-08T08:00:00	5	Humedad	67
13753	7	Sololá	710	Panajachel	8	Panajachel	1	Enero	2023-01-14T00:00:00	2024-11-08T08:00:00	6	Velocidad del viento	17.7
13754	7	Sololá	710	Panajachel	8	Panajachel	1	Enero	2023-01-14T00:00:00	2024-11-08T08:00:00	7	Dirección del viento	17.7
13755	7	Sololá	710	Panajachel	8	Panajachel	1	Enero	2023-01-14T00:00:00	2024-11-08T08:00:00	1	Precipitación	0
13756	7	Sololá	710	Panajachel	8	Panajachel	1	Enero	2023-01-14T00:00:00	2024-11-08T08:00:00	8	Radiación solar	25
13757	7	Sololá	710	Panajachel	8	Panajachel	1	Enero	2023-01-14T00:00:00	2024-11-08T09:00:00	2	Temperatura media	18.1
13758	7	Sololá	710	Panajachel	8	Panajachel	1	Enero	2023-01-14T00:00:00	2024-11-08T09:00:00	4	Temperatura máxima	18.1
13759	7	Sololá	710	Panajachel	8	Panajachel	1	Enero	2023-01-14T00:00:00	2024-11-08T09:00:00	3	Temperatura mínima	16.7
13760	7	Sololá	710	Panajachel	8	Panajachel	1	Enero	2023-01-14T00:00:00	2024-11-08T09:00:00	5	Humedad	63
13761	7	Sololá	710	Panajachel	8	Panajachel	1	Enero	2023-01-14T00:00:00	2024-11-08T09:00:00	6	Velocidad del viento	16.1
13762	7	Sololá	710	Panajachel	8	Panajachel	1	Enero	2023-01-14T00:00:00	2024-11-08T09:00:00	7	Dirección del viento	16.09
13763	7	Sololá	710	Panajachel	8	Panajachel	1	Enero	2023-01-14T00:00:00	2024-11-08T09:00:00	1	Precipitación	0
13764	7	Sololá	710	Panajachel	8	Panajachel	1	Enero	2023-01-14T00:00:00	2024-11-08T09:00:00	8	Radiación solar	370
13765	7	Sololá	710	Panajachel	8	Panajachel	1	Enero	2023-01-14T00:00:00	2024-11-08T10:00:00	2	Temperatura media	19.7
13766	7	Sololá	710	Panajachel	8	Panajachel	1	Enero	2023-01-14T00:00:00	2024-11-08T10:00:00	4	Temperatura máxima	19.8
13767	7	Sololá	710	Panajachel	8	Panajachel	1	Enero	2023-01-14T00:00:00	2024-11-08T10:00:00	3	Temperatura mínima	18.1
13768	7	Sololá	710	Panajachel	8	Panajachel	1	Enero	2023-01-14T00:00:00	2024-11-08T10:00:00	5	Humedad	57
13769	7	Sololá	710	Panajachel	8	Panajachel	1	Enero	2023-01-14T00:00:00	2024-11-08T10:00:00	6	Velocidad del viento	14.5
13770	7	Sololá	710	Panajachel	8	Panajachel	1	Enero	2023-01-14T00:00:00	2024-11-08T10:00:00	7	Dirección del viento	14.48
13771	7	Sololá	710	Panajachel	8	Panajachel	1	Enero	2023-01-14T00:00:00	2024-11-08T10:00:00	1	Precipitación	0
13772	7	Sololá	710	Panajachel	8	Panajachel	1	Enero	2023-01-14T00:00:00	2024-11-08T10:00:00	8	Radiación solar	566
13773	7	Sololá	710	Panajachel	8	Panajachel	1	Enero	2023-01-14T00:00:00	2024-11-08T11:00:00	2	Temperatura media	21
13774	7	Sololá	710	Panajachel	8	Panajachel	1	Enero	2023-01-14T00:00:00	2024-11-08T11:00:00	4	Temperatura máxima	21.1
13775	7	Sololá	710	Panajachel	8	Panajachel	1	Enero	2023-01-14T00:00:00	2024-11-08T11:00:00	3	Temperatura mínima	19.7
13776	7	Sololá	710	Panajachel	8	Panajachel	1	Enero	2023-01-14T00:00:00	2024-11-08T11:00:00	5	Humedad	53
13777	7	Sololá	710	Panajachel	8	Panajachel	1	Enero	2023-01-14T00:00:00	2024-11-08T11:00:00	6	Velocidad del viento	16.1
13778	7	Sololá	710	Panajachel	8	Panajachel	1	Enero	2023-01-14T00:00:00	2024-11-08T11:00:00	7	Dirección del viento	16.09
13779	7	Sololá	710	Panajachel	8	Panajachel	1	Enero	2023-01-14T00:00:00	2024-11-08T11:00:00	1	Precipitación	0
13780	7	Sololá	710	Panajachel	8	Panajachel	1	Enero	2023-01-14T00:00:00	2024-11-08T11:00:00	8	Radiación solar	716
13781	7	Sololá	710	Panajachel	8	Panajachel	1	Enero	2023-01-14T00:00:00	2024-11-08T12:00:00	2	Temperatura media	22.8
13782	7	Sololá	710	Panajachel	8	Panajachel	1	Enero	2023-01-14T00:00:00	2024-11-08T12:00:00	4	Temperatura máxima	22.9
13783	7	Sololá	710	Panajachel	8	Panajachel	1	Enero	2023-01-14T00:00:00	2024-11-08T12:00:00	3	Temperatura mínima	21
13784	7	Sololá	710	Panajachel	8	Panajachel	1	Enero	2023-01-14T00:00:00	2024-11-08T12:00:00	5	Humedad	43
13785	7	Sololá	710	Panajachel	8	Panajachel	1	Enero	2023-01-14T00:00:00	2024-11-08T12:00:00	6	Velocidad del viento	14.5
13786	7	Sololá	710	Panajachel	8	Panajachel	1	Enero	2023-01-14T00:00:00	2024-11-08T12:00:00	7	Dirección del viento	14.48
13787	7	Sololá	710	Panajachel	8	Panajachel	1	Enero	2023-01-14T00:00:00	2024-11-08T12:00:00	1	Precipitación	0
13788	7	Sololá	710	Panajachel	8	Panajachel	1	Enero	2023-01-14T00:00:00	2024-11-08T12:00:00	8	Radiación solar	804
13789	7	Sololá	710	Panajachel	8	Panajachel	1	Enero	2023-01-14T00:00:00	2024-11-08T13:00:00	2	Temperatura media	24.5
13790	7	Sololá	710	Panajachel	8	Panajachel	1	Enero	2023-01-14T00:00:00	2024-11-08T13:00:00	4	Temperatura máxima	24.5
13791	7	Sololá	710	Panajachel	8	Panajachel	1	Enero	2023-01-14T00:00:00	2024-11-08T13:00:00	3	Temperatura mínima	22.8
13792	7	Sololá	710	Panajachel	8	Panajachel	1	Enero	2023-01-14T00:00:00	2024-11-08T13:00:00	5	Humedad	36
13793	7	Sololá	710	Panajachel	8	Panajachel	1	Enero	2023-01-14T00:00:00	2024-11-08T13:00:00	6	Velocidad del viento	8
13794	7	Sololá	710	Panajachel	8	Panajachel	1	Enero	2023-01-14T00:00:00	2024-11-08T13:00:00	7	Dirección del viento	8.05
13795	7	Sololá	710	Panajachel	8	Panajachel	1	Enero	2023-01-14T00:00:00	2024-11-08T13:00:00	1	Precipitación	0
13796	7	Sololá	710	Panajachel	8	Panajachel	1	Enero	2023-01-14T00:00:00	2024-11-08T13:00:00	8	Radiación solar	824
13797	7	Sololá	710	Panajachel	8	Panajachel	1	Enero	2023-01-14T00:00:00	2024-11-08T14:00:00	2	Temperatura media	25.5
13798	7	Sololá	710	Panajachel	8	Panajachel	1	Enero	2023-01-14T00:00:00	2024-11-08T14:00:00	4	Temperatura máxima	25.6
13799	7	Sololá	710	Panajachel	8	Panajachel	1	Enero	2023-01-14T00:00:00	2024-11-08T14:00:00	3	Temperatura mínima	24.3
13800	7	Sololá	710	Panajachel	8	Panajachel	1	Enero	2023-01-14T00:00:00	2024-11-08T14:00:00	5	Humedad	38
13801	7	Sololá	710	Panajachel	8	Panajachel	1	Enero	2023-01-14T00:00:00	2024-11-08T14:00:00	6	Velocidad del viento	4.8
13802	7	Sololá	710	Panajachel	8	Panajachel	1	Enero	2023-01-14T00:00:00	2024-11-08T14:00:00	7	Dirección del viento	4.83
13803	7	Sololá	710	Panajachel	8	Panajachel	1	Enero	2023-01-14T00:00:00	2024-11-08T14:00:00	1	Precipitación	0
13804	7	Sololá	710	Panajachel	8	Panajachel	1	Enero	2023-01-14T00:00:00	2024-11-08T14:00:00	8	Radiación solar	766
13805	7	Sololá	710	Panajachel	8	Panajachel	1	Enero	2023-01-14T00:00:00	2024-11-08T15:00:00	2	Temperatura media	23.4
13806	7	Sololá	710	Panajachel	8	Panajachel	1	Enero	2023-01-14T00:00:00	2024-11-08T15:00:00	4	Temperatura máxima	25.7
13807	7	Sololá	710	Panajachel	8	Panajachel	1	Enero	2023-01-14T00:00:00	2024-11-08T15:00:00	3	Temperatura mínima	23.4
13808	7	Sololá	710	Panajachel	8	Panajachel	1	Enero	2023-01-14T00:00:00	2024-11-08T15:00:00	5	Humedad	66
13809	7	Sololá	710	Panajachel	8	Panajachel	1	Enero	2023-01-14T00:00:00	2024-11-08T15:00:00	6	Velocidad del viento	4.8
13810	7	Sololá	710	Panajachel	8	Panajachel	1	Enero	2023-01-14T00:00:00	2024-11-08T15:00:00	7	Dirección del viento	4.83
13811	7	Sololá	710	Panajachel	8	Panajachel	1	Enero	2023-01-14T00:00:00	2024-11-08T15:00:00	1	Precipitación	0
13812	7	Sololá	710	Panajachel	8	Panajachel	1	Enero	2023-01-14T00:00:00	2024-11-08T15:00:00	8	Radiación solar	646
13813	7	Sololá	710	Panajachel	8	Panajachel	1	Enero	2023-01-14T00:00:00	2024-11-08T16:00:00	2	Temperatura media	23.8
13814	7	Sololá	710	Panajachel	8	Panajachel	1	Enero	2023-01-14T00:00:00	2024-11-08T16:00:00	4	Temperatura máxima	23.9
13815	7	Sololá	710	Panajachel	8	Panajachel	1	Enero	2023-01-14T00:00:00	2024-11-08T16:00:00	3	Temperatura mínima	23.2
13816	7	Sololá	710	Panajachel	8	Panajachel	1	Enero	2023-01-14T00:00:00	2024-11-08T16:00:00	5	Humedad	66
13817	7	Sololá	710	Panajachel	8	Panajachel	1	Enero	2023-01-14T00:00:00	2024-11-08T16:00:00	6	Velocidad del viento	3.2
13818	7	Sololá	710	Panajachel	8	Panajachel	1	Enero	2023-01-14T00:00:00	2024-11-08T16:00:00	7	Dirección del viento	3.22
13819	7	Sololá	710	Panajachel	8	Panajachel	1	Enero	2023-01-14T00:00:00	2024-11-08T16:00:00	1	Precipitación	0
13820	7	Sololá	710	Panajachel	8	Panajachel	1	Enero	2023-01-14T00:00:00	2024-11-08T16:00:00	8	Radiación solar	489
13821	7	Sololá	710	Panajachel	8	Panajachel	1	Enero	2023-01-14T00:00:00	2024-11-08T17:00:00	2	Temperatura media	22.7
13822	7	Sololá	710	Panajachel	8	Panajachel	1	Enero	2023-01-14T00:00:00	2024-11-08T17:00:00	4	Temperatura máxima	23.8
13823	7	Sololá	710	Panajachel	8	Panajachel	1	Enero	2023-01-14T00:00:00	2024-11-08T17:00:00	3	Temperatura mínima	22.7
13824	7	Sololá	710	Panajachel	8	Panajachel	1	Enero	2023-01-14T00:00:00	2024-11-08T17:00:00	5	Humedad	52
13825	7	Sololá	710	Panajachel	8	Panajachel	1	Enero	2023-01-14T00:00:00	2024-11-08T17:00:00	6	Velocidad del viento	3.2
13826	7	Sololá	710	Panajachel	8	Panajachel	1	Enero	2023-01-14T00:00:00	2024-11-08T17:00:00	7	Dirección del viento	3.22
13827	7	Sololá	710	Panajachel	8	Panajachel	1	Enero	2023-01-14T00:00:00	2024-11-08T17:00:00	1	Precipitación	0
13828	7	Sololá	710	Panajachel	8	Panajachel	1	Enero	2023-01-14T00:00:00	2024-11-08T17:00:00	8	Radiación solar	265
13829	7	Sololá	710	Panajachel	8	Panajachel	1	Enero	2023-01-14T00:00:00	2024-11-08T18:00:00	2	Temperatura media	19.7
13830	7	Sololá	710	Panajachel	8	Panajachel	1	Enero	2023-01-14T00:00:00	2024-11-08T18:00:00	4	Temperatura máxima	22.7
13831	7	Sololá	710	Panajachel	8	Panajachel	1	Enero	2023-01-14T00:00:00	2024-11-08T18:00:00	3	Temperatura mínima	19.7
13832	7	Sololá	710	Panajachel	8	Panajachel	1	Enero	2023-01-14T00:00:00	2024-11-08T18:00:00	5	Humedad	51
13833	7	Sololá	710	Panajachel	8	Panajachel	1	Enero	2023-01-14T00:00:00	2024-11-08T18:00:00	6	Velocidad del viento	6.4
13834	7	Sololá	710	Panajachel	8	Panajachel	1	Enero	2023-01-14T00:00:00	2024-11-08T18:00:00	7	Dirección del viento	6.44
13835	7	Sololá	710	Panajachel	8	Panajachel	1	Enero	2023-01-14T00:00:00	2024-11-08T18:00:00	1	Precipitación	0
13836	7	Sololá	710	Panajachel	8	Panajachel	1	Enero	2023-01-14T00:00:00	2024-11-08T18:00:00	8	Radiación solar	37
13837	7	Sololá	710	Panajachel	8	Panajachel	1	Enero	2023-01-14T00:00:00	2024-11-08T19:00:00	2	Temperatura media	18.1
13838	7	Sololá	710	Panajachel	8	Panajachel	1	Enero	2023-01-14T00:00:00	2024-11-08T19:00:00	4	Temperatura máxima	19.7
13839	7	Sololá	710	Panajachel	8	Panajachel	1	Enero	2023-01-14T00:00:00	2024-11-08T19:00:00	3	Temperatura mínima	18.1
13840	7	Sololá	710	Panajachel	8	Panajachel	1	Enero	2023-01-14T00:00:00	2024-11-08T19:00:00	5	Humedad	57
13841	7	Sololá	710	Panajachel	8	Panajachel	1	Enero	2023-01-14T00:00:00	2024-11-08T19:00:00	6	Velocidad del viento	8
13842	7	Sololá	710	Panajachel	8	Panajachel	1	Enero	2023-01-14T00:00:00	2024-11-08T19:00:00	7	Dirección del viento	8.05
13843	7	Sololá	710	Panajachel	8	Panajachel	1	Enero	2023-01-14T00:00:00	2024-11-08T19:00:00	1	Precipitación	0
13844	7	Sololá	710	Panajachel	8	Panajachel	1	Enero	2023-01-14T00:00:00	2024-11-08T19:00:00	8	Radiación solar	0
13845	7	Sololá	710	Panajachel	8	Panajachel	1	Enero	2023-01-14T00:00:00	2024-11-08T20:00:00	2	Temperatura media	16.7
13846	7	Sololá	710	Panajachel	8	Panajachel	1	Enero	2023-01-14T00:00:00	2024-11-08T20:00:00	4	Temperatura máxima	18.1
13847	7	Sololá	710	Panajachel	8	Panajachel	1	Enero	2023-01-14T00:00:00	2024-11-08T20:00:00	3	Temperatura mínima	16.7
13848	7	Sololá	710	Panajachel	8	Panajachel	1	Enero	2023-01-14T00:00:00	2024-11-08T20:00:00	5	Humedad	56
13849	7	Sololá	710	Panajachel	8	Panajachel	1	Enero	2023-01-14T00:00:00	2024-11-08T20:00:00	6	Velocidad del viento	8
13850	7	Sololá	710	Panajachel	8	Panajachel	1	Enero	2023-01-14T00:00:00	2024-11-08T20:00:00	7	Dirección del viento	8.05
13851	7	Sololá	710	Panajachel	8	Panajachel	1	Enero	2023-01-14T00:00:00	2024-11-08T20:00:00	1	Precipitación	0
13852	7	Sololá	710	Panajachel	8	Panajachel	1	Enero	2023-01-14T00:00:00	2024-11-08T20:00:00	8	Radiación solar	0
13853	7	Sololá	710	Panajachel	8	Panajachel	1	Enero	2023-01-14T00:00:00	2024-11-08T21:00:00	2	Temperatura media	16.2
13854	7	Sololá	710	Panajachel	8	Panajachel	1	Enero	2023-01-14T00:00:00	2024-11-08T21:00:00	4	Temperatura máxima	16.7
13855	7	Sololá	710	Panajachel	8	Panajachel	1	Enero	2023-01-14T00:00:00	2024-11-08T21:00:00	3	Temperatura mínima	16.2
13856	7	Sololá	710	Panajachel	8	Panajachel	1	Enero	2023-01-14T00:00:00	2024-11-08T21:00:00	5	Humedad	51
13857	7	Sololá	710	Panajachel	8	Panajachel	1	Enero	2023-01-14T00:00:00	2024-11-08T21:00:00	6	Velocidad del viento	9.7
13858	7	Sololá	710	Panajachel	8	Panajachel	1	Enero	2023-01-14T00:00:00	2024-11-08T21:00:00	7	Dirección del viento	9.66
13859	7	Sololá	710	Panajachel	8	Panajachel	1	Enero	2023-01-14T00:00:00	2024-11-08T21:00:00	1	Precipitación	0
13860	7	Sololá	710	Panajachel	8	Panajachel	1	Enero	2023-01-14T00:00:00	2024-11-08T21:00:00	8	Radiación solar	0
13861	7	Sololá	710	Panajachel	8	Panajachel	1	Enero	2023-01-14T00:00:00	2024-11-08T22:00:00	2	Temperatura media	14.9
13862	7	Sololá	710	Panajachel	8	Panajachel	1	Enero	2023-01-14T00:00:00	2024-11-08T22:00:00	4	Temperatura máxima	16.2
13863	7	Sololá	710	Panajachel	8	Panajachel	1	Enero	2023-01-14T00:00:00	2024-11-08T22:00:00	3	Temperatura mínima	14.9
13864	7	Sololá	710	Panajachel	8	Panajachel	1	Enero	2023-01-14T00:00:00	2024-11-08T22:00:00	5	Humedad	55
13865	7	Sololá	710	Panajachel	8	Panajachel	1	Enero	2023-01-14T00:00:00	2024-11-08T22:00:00	6	Velocidad del viento	9.7
13866	7	Sololá	710	Panajachel	8	Panajachel	1	Enero	2023-01-14T00:00:00	2024-11-08T22:00:00	7	Dirección del viento	9.66
13867	7	Sololá	710	Panajachel	8	Panajachel	1	Enero	2023-01-14T00:00:00	2024-11-08T22:00:00	1	Precipitación	0
13868	7	Sololá	710	Panajachel	8	Panajachel	1	Enero	2023-01-14T00:00:00	2024-11-08T22:00:00	8	Radiación solar	0
13869	7	Sololá	710	Panajachel	8	Panajachel	1	Enero	2023-01-14T00:00:00	2024-11-08T23:00:00	2	Temperatura media	14.1
13870	7	Sololá	710	Panajachel	8	Panajachel	1	Enero	2023-01-14T00:00:00	2024-11-08T23:00:00	4	Temperatura máxima	15
13871	7	Sololá	710	Panajachel	8	Panajachel	1	Enero	2023-01-14T00:00:00	2024-11-08T23:00:00	3	Temperatura mínima	14.1
13872	7	Sololá	710	Panajachel	8	Panajachel	1	Enero	2023-01-14T00:00:00	2024-11-08T23:00:00	5	Humedad	58
13873	7	Sololá	710	Panajachel	8	Panajachel	1	Enero	2023-01-14T00:00:00	2024-11-08T23:00:00	6	Velocidad del viento	6.4
13874	7	Sololá	710	Panajachel	8	Panajachel	1	Enero	2023-01-14T00:00:00	2024-11-08T23:00:00	7	Dirección del viento	6.44
13875	7	Sololá	710	Panajachel	8	Panajachel	1	Enero	2023-01-14T00:00:00	2024-11-08T23:00:00	1	Precipitación	0
13876	7	Sololá	710	Panajachel	8	Panajachel	1	Enero	2023-01-14T00:00:00	2024-11-08T23:00:00	8	Radiación solar	0
13877	7	Sololá	710	Panajachel	8	Panajachel	1	Enero	2023-01-15T00:00:00	2024-11-08T00:00:00	2	Temperatura media	13.1
13878	7	Sololá	710	Panajachel	8	Panajachel	1	Enero	2023-01-15T00:00:00	2024-11-08T00:00:00	4	Temperatura máxima	14.1
13879	7	Sololá	710	Panajachel	8	Panajachel	1	Enero	2023-01-15T00:00:00	2024-11-08T00:00:00	3	Temperatura mínima	13.1
13880	7	Sololá	710	Panajachel	8	Panajachel	1	Enero	2023-01-15T00:00:00	2024-11-08T00:00:00	5	Humedad	58
13881	7	Sololá	710	Panajachel	8	Panajachel	1	Enero	2023-01-15T00:00:00	2024-11-08T00:00:00	6	Velocidad del viento	6.4
13882	7	Sololá	710	Panajachel	8	Panajachel	1	Enero	2023-01-15T00:00:00	2024-11-08T00:00:00	7	Dirección del viento	6.44
13883	7	Sololá	710	Panajachel	8	Panajachel	1	Enero	2023-01-15T00:00:00	2024-11-08T00:00:00	1	Precipitación	0
13884	7	Sololá	710	Panajachel	8	Panajachel	1	Enero	2023-01-15T00:00:00	2024-11-08T00:00:00	8	Radiación solar	0
13885	7	Sololá	710	Panajachel	8	Panajachel	1	Enero	2023-01-15T00:00:00	2024-11-08T01:00:00	2	Temperatura media	12.5
13886	7	Sololá	710	Panajachel	8	Panajachel	1	Enero	2023-01-15T00:00:00	2024-11-08T01:00:00	4	Temperatura máxima	13.1
13887	7	Sololá	710	Panajachel	8	Panajachel	1	Enero	2023-01-15T00:00:00	2024-11-08T01:00:00	3	Temperatura mínima	12.5
13888	7	Sololá	710	Panajachel	8	Panajachel	1	Enero	2023-01-15T00:00:00	2024-11-08T01:00:00	5	Humedad	53
13889	7	Sololá	710	Panajachel	8	Panajachel	1	Enero	2023-01-15T00:00:00	2024-11-08T01:00:00	6	Velocidad del viento	6.4
13890	7	Sololá	710	Panajachel	8	Panajachel	1	Enero	2023-01-15T00:00:00	2024-11-08T01:00:00	7	Dirección del viento	6.44
13891	7	Sololá	710	Panajachel	8	Panajachel	1	Enero	2023-01-15T00:00:00	2024-11-08T01:00:00	1	Precipitación	0
13892	7	Sololá	710	Panajachel	8	Panajachel	1	Enero	2023-01-15T00:00:00	2024-11-08T01:00:00	8	Radiación solar	0
13893	7	Sololá	710	Panajachel	8	Panajachel	1	Enero	2023-01-15T00:00:00	2024-11-08T02:00:00	2	Temperatura media	12.2
13894	7	Sololá	710	Panajachel	8	Panajachel	1	Enero	2023-01-15T00:00:00	2024-11-08T02:00:00	4	Temperatura máxima	12.5
13895	7	Sololá	710	Panajachel	8	Panajachel	1	Enero	2023-01-15T00:00:00	2024-11-08T02:00:00	3	Temperatura mínima	12.2
13896	7	Sololá	710	Panajachel	8	Panajachel	1	Enero	2023-01-15T00:00:00	2024-11-08T02:00:00	5	Humedad	55
13897	7	Sololá	710	Panajachel	8	Panajachel	1	Enero	2023-01-15T00:00:00	2024-11-08T02:00:00	6	Velocidad del viento	3.2
13898	7	Sololá	710	Panajachel	8	Panajachel	1	Enero	2023-01-15T00:00:00	2024-11-08T02:00:00	7	Dirección del viento	3.22
13899	7	Sololá	710	Panajachel	8	Panajachel	1	Enero	2023-01-15T00:00:00	2024-11-08T02:00:00	1	Precipitación	0
13900	7	Sololá	710	Panajachel	8	Panajachel	1	Enero	2023-01-15T00:00:00	2024-11-08T02:00:00	8	Radiación solar	0
13901	7	Sololá	710	Panajachel	8	Panajachel	1	Enero	2023-01-15T00:00:00	2024-11-08T03:00:00	2	Temperatura media	11.7
13902	7	Sololá	710	Panajachel	8	Panajachel	1	Enero	2023-01-15T00:00:00	2024-11-08T03:00:00	4	Temperatura máxima	12.2
13903	7	Sololá	710	Panajachel	8	Panajachel	1	Enero	2023-01-15T00:00:00	2024-11-08T03:00:00	3	Temperatura mínima	11.7
13904	7	Sololá	710	Panajachel	8	Panajachel	1	Enero	2023-01-15T00:00:00	2024-11-08T03:00:00	5	Humedad	55
13905	7	Sololá	710	Panajachel	8	Panajachel	1	Enero	2023-01-15T00:00:00	2024-11-08T03:00:00	6	Velocidad del viento	4.8
13906	7	Sololá	710	Panajachel	8	Panajachel	1	Enero	2023-01-15T00:00:00	2024-11-08T03:00:00	7	Dirección del viento	4.83
13907	7	Sololá	710	Panajachel	8	Panajachel	1	Enero	2023-01-15T00:00:00	2024-11-08T03:00:00	1	Precipitación	0
13908	7	Sololá	710	Panajachel	8	Panajachel	1	Enero	2023-01-15T00:00:00	2024-11-08T03:00:00	8	Radiación solar	0
13909	7	Sololá	710	Panajachel	8	Panajachel	1	Enero	2023-01-15T00:00:00	2024-11-08T04:00:00	2	Temperatura media	12.2
13910	7	Sololá	710	Panajachel	8	Panajachel	1	Enero	2023-01-15T00:00:00	2024-11-08T04:00:00	4	Temperatura máxima	12.4
13911	7	Sololá	710	Panajachel	8	Panajachel	1	Enero	2023-01-15T00:00:00	2024-11-08T04:00:00	3	Temperatura mínima	11.7
13912	7	Sololá	710	Panajachel	8	Panajachel	1	Enero	2023-01-15T00:00:00	2024-11-08T04:00:00	5	Humedad	54
13913	7	Sololá	710	Panajachel	8	Panajachel	1	Enero	2023-01-15T00:00:00	2024-11-08T04:00:00	6	Velocidad del viento	4.8
13914	7	Sololá	710	Panajachel	8	Panajachel	1	Enero	2023-01-15T00:00:00	2024-11-08T04:00:00	7	Dirección del viento	4.83
13915	7	Sololá	710	Panajachel	8	Panajachel	1	Enero	2023-01-15T00:00:00	2024-11-08T04:00:00	1	Precipitación	0
13916	7	Sololá	710	Panajachel	8	Panajachel	1	Enero	2023-01-15T00:00:00	2024-11-08T04:00:00	8	Radiación solar	0
13917	7	Sololá	710	Panajachel	8	Panajachel	1	Enero	2023-01-15T00:00:00	2024-11-08T05:00:00	2	Temperatura media	11.6
13918	7	Sololá	710	Panajachel	8	Panajachel	1	Enero	2023-01-15T00:00:00	2024-11-08T05:00:00	4	Temperatura máxima	12.2
13919	7	Sololá	710	Panajachel	8	Panajachel	1	Enero	2023-01-15T00:00:00	2024-11-08T05:00:00	3	Temperatura mínima	11.6
13920	7	Sololá	710	Panajachel	8	Panajachel	1	Enero	2023-01-15T00:00:00	2024-11-08T05:00:00	5	Humedad	56
13921	7	Sololá	710	Panajachel	8	Panajachel	1	Enero	2023-01-15T00:00:00	2024-11-08T05:00:00	6	Velocidad del viento	3.2
13922	7	Sololá	710	Panajachel	8	Panajachel	1	Enero	2023-01-15T00:00:00	2024-11-08T05:00:00	7	Dirección del viento	3.22
13923	7	Sololá	710	Panajachel	8	Panajachel	1	Enero	2023-01-15T00:00:00	2024-11-08T05:00:00	1	Precipitación	0
13924	7	Sololá	710	Panajachel	8	Panajachel	1	Enero	2023-01-15T00:00:00	2024-11-08T05:00:00	8	Radiación solar	0
13925	7	Sololá	710	Panajachel	8	Panajachel	1	Enero	2023-01-15T00:00:00	2024-11-08T06:00:00	2	Temperatura media	11.9
13926	7	Sololá	710	Panajachel	8	Panajachel	1	Enero	2023-01-15T00:00:00	2024-11-08T06:00:00	4	Temperatura máxima	11.9
13927	7	Sololá	710	Panajachel	8	Panajachel	1	Enero	2023-01-15T00:00:00	2024-11-08T06:00:00	3	Temperatura mínima	11.3
13928	7	Sololá	710	Panajachel	8	Panajachel	1	Enero	2023-01-15T00:00:00	2024-11-08T06:00:00	5	Humedad	53
13929	7	Sololá	710	Panajachel	8	Panajachel	1	Enero	2023-01-15T00:00:00	2024-11-08T06:00:00	6	Velocidad del viento	3.2
13930	7	Sololá	710	Panajachel	8	Panajachel	1	Enero	2023-01-15T00:00:00	2024-11-08T06:00:00	7	Dirección del viento	3.22
13931	7	Sololá	710	Panajachel	8	Panajachel	1	Enero	2023-01-15T00:00:00	2024-11-08T06:00:00	1	Precipitación	0
13932	7	Sololá	710	Panajachel	8	Panajachel	1	Enero	2023-01-15T00:00:00	2024-11-08T06:00:00	8	Radiación solar	0
13933	7	Sololá	710	Panajachel	8	Panajachel	1	Enero	2023-01-15T00:00:00	2024-11-08T07:00:00	2	Temperatura media	11.1
13934	7	Sololá	710	Panajachel	8	Panajachel	1	Enero	2023-01-15T00:00:00	2024-11-08T07:00:00	4	Temperatura máxima	12.3
13935	7	Sololá	710	Panajachel	8	Panajachel	1	Enero	2023-01-15T00:00:00	2024-11-08T07:00:00	3	Temperatura mínima	10.9
13936	7	Sololá	710	Panajachel	8	Panajachel	1	Enero	2023-01-15T00:00:00	2024-11-08T07:00:00	5	Humedad	59
13937	7	Sololá	710	Panajachel	8	Panajachel	1	Enero	2023-01-15T00:00:00	2024-11-08T07:00:00	6	Velocidad del viento	1.6
13938	7	Sololá	710	Panajachel	8	Panajachel	1	Enero	2023-01-15T00:00:00	2024-11-08T07:00:00	7	Dirección del viento	1.61
13939	7	Sololá	710	Panajachel	8	Panajachel	1	Enero	2023-01-15T00:00:00	2024-11-08T07:00:00	1	Precipitación	0
13940	7	Sololá	710	Panajachel	8	Panajachel	1	Enero	2023-01-15T00:00:00	2024-11-08T07:00:00	8	Radiación solar	3
13941	7	Sololá	710	Panajachel	8	Panajachel	1	Enero	2023-01-15T00:00:00	2024-11-08T08:00:00	2	Temperatura media	13.6
13942	7	Sololá	710	Panajachel	8	Panajachel	1	Enero	2023-01-15T00:00:00	2024-11-08T08:00:00	4	Temperatura máxima	13.6
13943	7	Sololá	710	Panajachel	8	Panajachel	1	Enero	2023-01-15T00:00:00	2024-11-08T08:00:00	3	Temperatura mínima	11.1
13944	7	Sololá	710	Panajachel	8	Panajachel	1	Enero	2023-01-15T00:00:00	2024-11-08T08:00:00	5	Humedad	56
13945	7	Sololá	710	Panajachel	8	Panajachel	1	Enero	2023-01-15T00:00:00	2024-11-08T08:00:00	6	Velocidad del viento	3.2
13946	7	Sololá	710	Panajachel	8	Panajachel	1	Enero	2023-01-15T00:00:00	2024-11-08T08:00:00	7	Dirección del viento	3.22
13947	7	Sololá	710	Panajachel	8	Panajachel	1	Enero	2023-01-15T00:00:00	2024-11-08T08:00:00	1	Precipitación	0
13948	7	Sololá	710	Panajachel	8	Panajachel	1	Enero	2023-01-15T00:00:00	2024-11-08T08:00:00	8	Radiación solar	35
13949	7	Sololá	710	Panajachel	8	Panajachel	1	Enero	2023-01-15T00:00:00	2024-11-08T09:00:00	2	Temperatura media	17
13950	7	Sololá	710	Panajachel	8	Panajachel	1	Enero	2023-01-15T00:00:00	2024-11-08T09:00:00	4	Temperatura máxima	17
13951	7	Sololá	710	Panajachel	8	Panajachel	1	Enero	2023-01-15T00:00:00	2024-11-08T09:00:00	3	Temperatura mínima	13.6
13952	7	Sololá	710	Panajachel	8	Panajachel	1	Enero	2023-01-15T00:00:00	2024-11-08T09:00:00	5	Humedad	60
13953	7	Sololá	710	Panajachel	8	Panajachel	1	Enero	2023-01-15T00:00:00	2024-11-08T09:00:00	6	Velocidad del viento	1.6
13954	7	Sololá	710	Panajachel	8	Panajachel	1	Enero	2023-01-15T00:00:00	2024-11-08T09:00:00	7	Dirección del viento	1.61
13955	7	Sololá	710	Panajachel	8	Panajachel	1	Enero	2023-01-15T00:00:00	2024-11-08T09:00:00	1	Precipitación	0
13956	7	Sololá	710	Panajachel	8	Panajachel	1	Enero	2023-01-15T00:00:00	2024-11-08T09:00:00	8	Radiación solar	369
13957	7	Sololá	710	Panajachel	8	Panajachel	1	Enero	2023-01-15T00:00:00	2024-11-08T10:00:00	2	Temperatura media	18.3
13958	7	Sololá	710	Panajachel	8	Panajachel	1	Enero	2023-01-15T00:00:00	2024-11-08T10:00:00	4	Temperatura máxima	18.3
13959	7	Sololá	710	Panajachel	8	Panajachel	1	Enero	2023-01-15T00:00:00	2024-11-08T10:00:00	3	Temperatura mínima	16.9
13960	7	Sololá	710	Panajachel	8	Panajachel	1	Enero	2023-01-15T00:00:00	2024-11-08T10:00:00	5	Humedad	59
13961	7	Sololá	710	Panajachel	8	Panajachel	1	Enero	2023-01-15T00:00:00	2024-11-08T10:00:00	6	Velocidad del viento	3.2
13962	7	Sololá	710	Panajachel	8	Panajachel	1	Enero	2023-01-15T00:00:00	2024-11-08T10:00:00	7	Dirección del viento	3.22
13963	7	Sololá	710	Panajachel	8	Panajachel	1	Enero	2023-01-15T00:00:00	2024-11-08T10:00:00	1	Precipitación	0
13964	7	Sololá	710	Panajachel	8	Panajachel	1	Enero	2023-01-15T00:00:00	2024-11-08T10:00:00	8	Radiación solar	566
13965	7	Sololá	710	Panajachel	8	Panajachel	1	Enero	2023-01-15T00:00:00	2024-11-08T11:00:00	2	Temperatura media	19.7
13966	7	Sololá	710	Panajachel	8	Panajachel	1	Enero	2023-01-15T00:00:00	2024-11-08T11:00:00	4	Temperatura máxima	19.7
13967	7	Sololá	710	Panajachel	8	Panajachel	1	Enero	2023-01-15T00:00:00	2024-11-08T11:00:00	3	Temperatura mínima	18.2
13968	7	Sololá	710	Panajachel	8	Panajachel	1	Enero	2023-01-15T00:00:00	2024-11-08T11:00:00	5	Humedad	57
13969	7	Sololá	710	Panajachel	8	Panajachel	1	Enero	2023-01-15T00:00:00	2024-11-08T11:00:00	6	Velocidad del viento	4.8
13970	7	Sololá	710	Panajachel	8	Panajachel	1	Enero	2023-01-15T00:00:00	2024-11-08T11:00:00	7	Dirección del viento	4.83
13971	7	Sololá	710	Panajachel	8	Panajachel	1	Enero	2023-01-15T00:00:00	2024-11-08T11:00:00	1	Precipitación	0
13972	7	Sololá	710	Panajachel	8	Panajachel	1	Enero	2023-01-15T00:00:00	2024-11-08T11:00:00	8	Radiación solar	722
13973	7	Sololá	710	Panajachel	8	Panajachel	1	Enero	2023-01-15T00:00:00	2024-11-08T12:00:00	2	Temperatura media	22.3
13974	7	Sololá	710	Panajachel	8	Panajachel	1	Enero	2023-01-15T00:00:00	2024-11-08T12:00:00	4	Temperatura máxima	22.3
13975	7	Sololá	710	Panajachel	8	Panajachel	1	Enero	2023-01-15T00:00:00	2024-11-08T12:00:00	3	Temperatura mínima	19.7
13976	7	Sololá	710	Panajachel	8	Panajachel	1	Enero	2023-01-15T00:00:00	2024-11-08T12:00:00	5	Humedad	44
13977	7	Sololá	710	Panajachel	8	Panajachel	1	Enero	2023-01-15T00:00:00	2024-11-08T12:00:00	6	Velocidad del viento	3.2
13978	7	Sololá	710	Panajachel	8	Panajachel	1	Enero	2023-01-15T00:00:00	2024-11-08T12:00:00	7	Dirección del viento	3.22
13979	7	Sololá	710	Panajachel	8	Panajachel	1	Enero	2023-01-15T00:00:00	2024-11-08T12:00:00	1	Precipitación	0
13980	7	Sololá	710	Panajachel	8	Panajachel	1	Enero	2023-01-15T00:00:00	2024-11-08T12:00:00	8	Radiación solar	811
13981	7	Sololá	710	Panajachel	8	Panajachel	1	Enero	2023-01-15T00:00:00	2024-11-08T13:00:00	2	Temperatura media	23.1
13982	7	Sololá	710	Panajachel	8	Panajachel	1	Enero	2023-01-15T00:00:00	2024-11-08T13:00:00	4	Temperatura máxima	23.3
13983	7	Sololá	710	Panajachel	8	Panajachel	1	Enero	2023-01-15T00:00:00	2024-11-08T13:00:00	3	Temperatura mínima	22.2
13984	7	Sololá	710	Panajachel	8	Panajachel	1	Enero	2023-01-15T00:00:00	2024-11-08T13:00:00	5	Humedad	62
13985	7	Sololá	710	Panajachel	8	Panajachel	1	Enero	2023-01-15T00:00:00	2024-11-08T13:00:00	6	Velocidad del viento	4.8
13986	7	Sololá	710	Panajachel	8	Panajachel	1	Enero	2023-01-15T00:00:00	2024-11-08T13:00:00	7	Dirección del viento	4.83
13987	7	Sololá	710	Panajachel	8	Panajachel	1	Enero	2023-01-15T00:00:00	2024-11-08T13:00:00	1	Precipitación	0
13988	7	Sololá	710	Panajachel	8	Panajachel	1	Enero	2023-01-15T00:00:00	2024-11-08T13:00:00	8	Radiación solar	816
13989	7	Sololá	710	Panajachel	8	Panajachel	1	Enero	2023-01-15T00:00:00	2024-11-08T14:00:00	2	Temperatura media	22.7
13990	7	Sololá	710	Panajachel	8	Panajachel	1	Enero	2023-01-15T00:00:00	2024-11-08T14:00:00	4	Temperatura máxima	23.1
13991	7	Sololá	710	Panajachel	8	Panajachel	1	Enero	2023-01-15T00:00:00	2024-11-08T14:00:00	3	Temperatura mínima	22.3
13992	7	Sololá	710	Panajachel	8	Panajachel	1	Enero	2023-01-15T00:00:00	2024-11-08T14:00:00	5	Humedad	69
13993	7	Sololá	710	Panajachel	8	Panajachel	1	Enero	2023-01-15T00:00:00	2024-11-08T14:00:00	6	Velocidad del viento	4.8
13994	7	Sololá	710	Panajachel	8	Panajachel	1	Enero	2023-01-15T00:00:00	2024-11-08T14:00:00	7	Dirección del viento	4.83
13995	7	Sololá	710	Panajachel	8	Panajachel	1	Enero	2023-01-15T00:00:00	2024-11-08T14:00:00	1	Precipitación	0
13996	7	Sololá	710	Panajachel	8	Panajachel	1	Enero	2023-01-15T00:00:00	2024-11-08T14:00:00	8	Radiación solar	759
13997	7	Sololá	710	Panajachel	8	Panajachel	1	Enero	2023-01-15T00:00:00	2024-11-08T15:00:00	2	Temperatura media	21.9
13998	7	Sololá	710	Panajachel	8	Panajachel	1	Enero	2023-01-15T00:00:00	2024-11-08T15:00:00	4	Temperatura máxima	22.9
13999	7	Sololá	710	Panajachel	8	Panajachel	1	Enero	2023-01-15T00:00:00	2024-11-08T15:00:00	3	Temperatura mínima	21.9
14000	7	Sololá	710	Panajachel	8	Panajachel	1	Enero	2023-01-15T00:00:00	2024-11-08T15:00:00	5	Humedad	71
14001	7	Sololá	710	Panajachel	8	Panajachel	1	Enero	2023-01-15T00:00:00	2024-11-08T15:00:00	6	Velocidad del viento	4.8
14002	7	Sololá	710	Panajachel	8	Panajachel	1	Enero	2023-01-15T00:00:00	2024-11-08T15:00:00	7	Dirección del viento	4.83
14003	7	Sololá	710	Panajachel	8	Panajachel	1	Enero	2023-01-15T00:00:00	2024-11-08T15:00:00	1	Precipitación	0
14004	7	Sololá	710	Panajachel	8	Panajachel	1	Enero	2023-01-15T00:00:00	2024-11-08T15:00:00	8	Radiación solar	706
14005	7	Sololá	710	Panajachel	8	Panajachel	1	Enero	2023-01-15T00:00:00	2024-11-08T16:00:00	2	Temperatura media	21.3
14006	7	Sololá	710	Panajachel	8	Panajachel	1	Enero	2023-01-15T00:00:00	2024-11-08T16:00:00	4	Temperatura máxima	22.4
14007	7	Sololá	710	Panajachel	8	Panajachel	1	Enero	2023-01-15T00:00:00	2024-11-08T16:00:00	3	Temperatura mínima	21.3
14008	7	Sololá	710	Panajachel	8	Panajachel	1	Enero	2023-01-15T00:00:00	2024-11-08T16:00:00	5	Humedad	74
14009	7	Sololá	710	Panajachel	8	Panajachel	1	Enero	2023-01-15T00:00:00	2024-11-08T16:00:00	6	Velocidad del viento	4.8
14010	7	Sololá	710	Panajachel	8	Panajachel	1	Enero	2023-01-15T00:00:00	2024-11-08T16:00:00	7	Dirección del viento	4.83
14011	7	Sololá	710	Panajachel	8	Panajachel	1	Enero	2023-01-15T00:00:00	2024-11-08T16:00:00	1	Precipitación	0
14012	7	Sololá	710	Panajachel	8	Panajachel	1	Enero	2023-01-15T00:00:00	2024-11-08T16:00:00	8	Radiación solar	405
14013	7	Sololá	710	Panajachel	8	Panajachel	1	Enero	2023-01-15T00:00:00	2024-11-08T17:00:00	2	Temperatura media	20.7
14014	7	Sololá	710	Panajachel	8	Panajachel	1	Enero	2023-01-15T00:00:00	2024-11-08T17:00:00	4	Temperatura máxima	21.3
14015	7	Sololá	710	Panajachel	8	Panajachel	1	Enero	2023-01-15T00:00:00	2024-11-08T17:00:00	3	Temperatura mínima	20.7
14016	7	Sololá	710	Panajachel	8	Panajachel	1	Enero	2023-01-15T00:00:00	2024-11-08T17:00:00	5	Humedad	77
14017	7	Sololá	710	Panajachel	8	Panajachel	1	Enero	2023-01-15T00:00:00	2024-11-08T17:00:00	6	Velocidad del viento	1.6
14018	7	Sololá	710	Panajachel	8	Panajachel	1	Enero	2023-01-15T00:00:00	2024-11-08T17:00:00	7	Dirección del viento	1.61
14019	7	Sololá	710	Panajachel	8	Panajachel	1	Enero	2023-01-15T00:00:00	2024-11-08T17:00:00	1	Precipitación	0
14020	7	Sololá	710	Panajachel	8	Panajachel	1	Enero	2023-01-15T00:00:00	2024-11-08T17:00:00	8	Radiación solar	179
14021	7	Sololá	710	Panajachel	8	Panajachel	1	Enero	2023-01-15T00:00:00	2024-11-08T18:00:00	2	Temperatura media	18.9
14022	7	Sololá	710	Panajachel	8	Panajachel	1	Enero	2023-01-15T00:00:00	2024-11-08T18:00:00	4	Temperatura máxima	20.7
14023	7	Sololá	710	Panajachel	8	Panajachel	1	Enero	2023-01-15T00:00:00	2024-11-08T18:00:00	3	Temperatura mínima	18.9
14024	7	Sololá	710	Panajachel	8	Panajachel	1	Enero	2023-01-15T00:00:00	2024-11-08T18:00:00	5	Humedad	82
14025	7	Sololá	710	Panajachel	8	Panajachel	1	Enero	2023-01-15T00:00:00	2024-11-08T18:00:00	6	Velocidad del viento	0
14026	7	Sololá	710	Panajachel	8	Panajachel	1	Enero	2023-01-15T00:00:00	2024-11-08T18:00:00	7	Dirección del viento	0
14027	7	Sololá	710	Panajachel	8	Panajachel	1	Enero	2023-01-15T00:00:00	2024-11-08T18:00:00	1	Precipitación	0
14028	7	Sololá	710	Panajachel	8	Panajachel	1	Enero	2023-01-15T00:00:00	2024-11-08T18:00:00	8	Radiación solar	39
14029	7	Sololá	710	Panajachel	8	Panajachel	1	Enero	2023-01-15T00:00:00	2024-11-08T19:00:00	2	Temperatura media	18.1
14030	7	Sololá	710	Panajachel	8	Panajachel	1	Enero	2023-01-15T00:00:00	2024-11-08T19:00:00	4	Temperatura máxima	18.9
14031	7	Sololá	710	Panajachel	8	Panajachel	1	Enero	2023-01-15T00:00:00	2024-11-08T19:00:00	3	Temperatura mínima	18
14032	7	Sololá	710	Panajachel	8	Panajachel	1	Enero	2023-01-15T00:00:00	2024-11-08T19:00:00	5	Humedad	85
14033	7	Sololá	710	Panajachel	8	Panajachel	1	Enero	2023-01-15T00:00:00	2024-11-08T19:00:00	6	Velocidad del viento	0
14034	7	Sololá	710	Panajachel	8	Panajachel	1	Enero	2023-01-15T00:00:00	2024-11-08T19:00:00	7	Dirección del viento	0
14035	7	Sololá	710	Panajachel	8	Panajachel	1	Enero	2023-01-15T00:00:00	2024-11-08T19:00:00	1	Precipitación	0
14036	7	Sololá	710	Panajachel	8	Panajachel	1	Enero	2023-01-15T00:00:00	2024-11-08T19:00:00	8	Radiación solar	0
14037	7	Sololá	710	Panajachel	8	Panajachel	1	Enero	2023-01-15T00:00:00	2024-11-08T20:00:00	2	Temperatura media	16.9
14038	7	Sololá	710	Panajachel	8	Panajachel	1	Enero	2023-01-15T00:00:00	2024-11-08T20:00:00	4	Temperatura máxima	18
14039	7	Sololá	710	Panajachel	8	Panajachel	1	Enero	2023-01-15T00:00:00	2024-11-08T20:00:00	3	Temperatura mínima	16.9
14040	7	Sololá	710	Panajachel	8	Panajachel	1	Enero	2023-01-15T00:00:00	2024-11-08T20:00:00	5	Humedad	85
14041	7	Sololá	710	Panajachel	8	Panajachel	1	Enero	2023-01-15T00:00:00	2024-11-08T20:00:00	6	Velocidad del viento	0
14042	7	Sololá	710	Panajachel	8	Panajachel	1	Enero	2023-01-15T00:00:00	2024-11-08T20:00:00	7	Dirección del viento	0
14043	7	Sololá	710	Panajachel	8	Panajachel	1	Enero	2023-01-15T00:00:00	2024-11-08T20:00:00	1	Precipitación	0
14044	7	Sololá	710	Panajachel	8	Panajachel	1	Enero	2023-01-15T00:00:00	2024-11-08T20:00:00	8	Radiación solar	0
14045	7	Sololá	710	Panajachel	8	Panajachel	1	Enero	2023-01-15T00:00:00	2024-11-08T21:00:00	2	Temperatura media	16.6
14046	7	Sololá	710	Panajachel	8	Panajachel	1	Enero	2023-01-15T00:00:00	2024-11-08T21:00:00	4	Temperatura máxima	16.9
14047	7	Sololá	710	Panajachel	8	Panajachel	1	Enero	2023-01-15T00:00:00	2024-11-08T21:00:00	3	Temperatura mínima	16.6
14048	7	Sololá	710	Panajachel	8	Panajachel	1	Enero	2023-01-15T00:00:00	2024-11-08T21:00:00	5	Humedad	85
14049	7	Sololá	710	Panajachel	8	Panajachel	1	Enero	2023-01-15T00:00:00	2024-11-08T21:00:00	6	Velocidad del viento	3.2
14050	7	Sololá	710	Panajachel	8	Panajachel	1	Enero	2023-01-15T00:00:00	2024-11-08T21:00:00	7	Dirección del viento	3.22
14051	7	Sololá	710	Panajachel	8	Panajachel	1	Enero	2023-01-15T00:00:00	2024-11-08T21:00:00	1	Precipitación	0
14052	7	Sololá	710	Panajachel	8	Panajachel	1	Enero	2023-01-15T00:00:00	2024-11-08T21:00:00	8	Radiación solar	0
14053	7	Sololá	710	Panajachel	8	Panajachel	1	Enero	2023-01-15T00:00:00	2024-11-08T22:00:00	2	Temperatura media	16.4
14054	7	Sololá	710	Panajachel	8	Panajachel	1	Enero	2023-01-15T00:00:00	2024-11-08T22:00:00	4	Temperatura máxima	16.6
14055	7	Sololá	710	Panajachel	8	Panajachel	1	Enero	2023-01-15T00:00:00	2024-11-08T22:00:00	3	Temperatura mínima	16.2
14056	7	Sololá	710	Panajachel	8	Panajachel	1	Enero	2023-01-15T00:00:00	2024-11-08T22:00:00	5	Humedad	84
14057	7	Sololá	710	Panajachel	8	Panajachel	1	Enero	2023-01-15T00:00:00	2024-11-08T22:00:00	6	Velocidad del viento	3.2
14058	7	Sololá	710	Panajachel	8	Panajachel	1	Enero	2023-01-15T00:00:00	2024-11-08T22:00:00	7	Dirección del viento	3.22
14059	7	Sololá	710	Panajachel	8	Panajachel	1	Enero	2023-01-15T00:00:00	2024-11-08T22:00:00	1	Precipitación	0
14060	7	Sololá	710	Panajachel	8	Panajachel	1	Enero	2023-01-15T00:00:00	2024-11-08T22:00:00	8	Radiación solar	0
14061	7	Sololá	710	Panajachel	8	Panajachel	1	Enero	2023-01-15T00:00:00	2024-11-08T23:00:00	2	Temperatura media	16.8
14062	7	Sololá	710	Panajachel	8	Panajachel	1	Enero	2023-01-15T00:00:00	2024-11-08T23:00:00	4	Temperatura máxima	16.9
14063	7	Sololá	710	Panajachel	8	Panajachel	1	Enero	2023-01-15T00:00:00	2024-11-08T23:00:00	3	Temperatura mínima	16.4
14064	7	Sololá	710	Panajachel	8	Panajachel	1	Enero	2023-01-15T00:00:00	2024-11-08T23:00:00	5	Humedad	84
14065	7	Sololá	710	Panajachel	8	Panajachel	1	Enero	2023-01-15T00:00:00	2024-11-08T23:00:00	6	Velocidad del viento	3.2
14066	7	Sololá	710	Panajachel	8	Panajachel	1	Enero	2023-01-15T00:00:00	2024-11-08T23:00:00	7	Dirección del viento	3.22
14067	7	Sololá	710	Panajachel	8	Panajachel	1	Enero	2023-01-15T00:00:00	2024-11-08T23:00:00	1	Precipitación	0
14068	7	Sololá	710	Panajachel	8	Panajachel	1	Enero	2023-01-15T00:00:00	2024-11-08T23:00:00	8	Radiación solar	0
14069	7	Sololá	710	Panajachel	8	Panajachel	1	Enero	2023-01-16T00:00:00	2024-11-08T00:00:00	2	Temperatura media	16.9
14070	7	Sololá	710	Panajachel	8	Panajachel	1	Enero	2023-01-16T00:00:00	2024-11-08T00:00:00	4	Temperatura máxima	17.1
14071	7	Sololá	710	Panajachel	8	Panajachel	1	Enero	2023-01-16T00:00:00	2024-11-08T00:00:00	3	Temperatura mínima	16.8
14072	7	Sololá	710	Panajachel	8	Panajachel	1	Enero	2023-01-16T00:00:00	2024-11-08T00:00:00	5	Humedad	82
14073	7	Sololá	710	Panajachel	8	Panajachel	1	Enero	2023-01-16T00:00:00	2024-11-08T00:00:00	6	Velocidad del viento	1.6
14074	7	Sololá	710	Panajachel	8	Panajachel	1	Enero	2023-01-16T00:00:00	2024-11-08T00:00:00	7	Dirección del viento	1.61
14075	7	Sololá	710	Panajachel	8	Panajachel	1	Enero	2023-01-16T00:00:00	2024-11-08T00:00:00	1	Precipitación	0
14076	7	Sololá	710	Panajachel	8	Panajachel	1	Enero	2023-01-16T00:00:00	2024-11-08T00:00:00	8	Radiación solar	0
14077	7	Sololá	710	Panajachel	8	Panajachel	1	Enero	2023-01-16T00:00:00	2024-11-08T01:00:00	2	Temperatura media	16.6
14078	7	Sololá	710	Panajachel	8	Panajachel	1	Enero	2023-01-16T00:00:00	2024-11-08T01:00:00	4	Temperatura máxima	16.9
14079	7	Sololá	710	Panajachel	8	Panajachel	1	Enero	2023-01-16T00:00:00	2024-11-08T01:00:00	3	Temperatura mínima	16.6
14080	7	Sololá	710	Panajachel	8	Panajachel	1	Enero	2023-01-16T00:00:00	2024-11-08T01:00:00	5	Humedad	83
14081	7	Sololá	710	Panajachel	8	Panajachel	1	Enero	2023-01-16T00:00:00	2024-11-08T01:00:00	6	Velocidad del viento	3.2
14082	7	Sololá	710	Panajachel	8	Panajachel	1	Enero	2023-01-16T00:00:00	2024-11-08T01:00:00	7	Dirección del viento	3.22
14083	7	Sololá	710	Panajachel	8	Panajachel	1	Enero	2023-01-16T00:00:00	2024-11-08T01:00:00	1	Precipitación	0
14084	7	Sololá	710	Panajachel	8	Panajachel	1	Enero	2023-01-16T00:00:00	2024-11-08T01:00:00	8	Radiación solar	0
14085	7	Sololá	710	Panajachel	8	Panajachel	1	Enero	2023-01-16T00:00:00	2024-11-08T02:00:00	2	Temperatura media	15.9
14086	7	Sololá	710	Panajachel	8	Panajachel	1	Enero	2023-01-16T00:00:00	2024-11-08T02:00:00	4	Temperatura máxima	16.6
14087	7	Sololá	710	Panajachel	8	Panajachel	1	Enero	2023-01-16T00:00:00	2024-11-08T02:00:00	3	Temperatura mínima	15.9
14088	7	Sololá	710	Panajachel	8	Panajachel	1	Enero	2023-01-16T00:00:00	2024-11-08T02:00:00	5	Humedad	82
14089	7	Sololá	710	Panajachel	8	Panajachel	1	Enero	2023-01-16T00:00:00	2024-11-08T02:00:00	6	Velocidad del viento	3.2
14090	7	Sololá	710	Panajachel	8	Panajachel	1	Enero	2023-01-16T00:00:00	2024-11-08T02:00:00	7	Dirección del viento	3.22
14091	7	Sololá	710	Panajachel	8	Panajachel	1	Enero	2023-01-16T00:00:00	2024-11-08T02:00:00	1	Precipitación	0
14092	7	Sololá	710	Panajachel	8	Panajachel	1	Enero	2023-01-16T00:00:00	2024-11-08T02:00:00	8	Radiación solar	0
14093	7	Sololá	710	Panajachel	8	Panajachel	1	Enero	2023-01-16T00:00:00	2024-11-08T03:00:00	2	Temperatura media	15.3
14094	7	Sololá	710	Panajachel	8	Panajachel	1	Enero	2023-01-16T00:00:00	2024-11-08T03:00:00	4	Temperatura máxima	15.9
14095	7	Sololá	710	Panajachel	8	Panajachel	1	Enero	2023-01-16T00:00:00	2024-11-08T03:00:00	3	Temperatura mínima	15.3
14096	7	Sololá	710	Panajachel	8	Panajachel	1	Enero	2023-01-16T00:00:00	2024-11-08T03:00:00	5	Humedad	81
14097	7	Sololá	710	Panajachel	8	Panajachel	1	Enero	2023-01-16T00:00:00	2024-11-08T03:00:00	6	Velocidad del viento	3.2
14098	7	Sololá	710	Panajachel	8	Panajachel	1	Enero	2023-01-16T00:00:00	2024-11-08T03:00:00	7	Dirección del viento	3.22
14099	7	Sololá	710	Panajachel	8	Panajachel	1	Enero	2023-01-16T00:00:00	2024-11-08T03:00:00	1	Precipitación	0
14100	7	Sololá	710	Panajachel	8	Panajachel	1	Enero	2023-01-16T00:00:00	2024-11-08T03:00:00	8	Radiación solar	0
14101	7	Sololá	710	Panajachel	8	Panajachel	1	Enero	2023-01-16T00:00:00	2024-11-08T04:00:00	2	Temperatura media	14.7
14102	7	Sololá	710	Panajachel	8	Panajachel	1	Enero	2023-01-16T00:00:00	2024-11-08T04:00:00	4	Temperatura máxima	15.3
14103	7	Sololá	710	Panajachel	8	Panajachel	1	Enero	2023-01-16T00:00:00	2024-11-08T04:00:00	3	Temperatura mínima	14.7
14104	7	Sololá	710	Panajachel	8	Panajachel	1	Enero	2023-01-16T00:00:00	2024-11-08T04:00:00	5	Humedad	80
14105	7	Sololá	710	Panajachel	8	Panajachel	1	Enero	2023-01-16T00:00:00	2024-11-08T04:00:00	6	Velocidad del viento	3.2
14106	7	Sololá	710	Panajachel	8	Panajachel	1	Enero	2023-01-16T00:00:00	2024-11-08T04:00:00	7	Dirección del viento	3.22
14107	7	Sololá	710	Panajachel	8	Panajachel	1	Enero	2023-01-16T00:00:00	2024-11-08T04:00:00	1	Precipitación	0
14108	7	Sololá	710	Panajachel	8	Panajachel	1	Enero	2023-01-16T00:00:00	2024-11-08T04:00:00	8	Radiación solar	0
14109	7	Sololá	710	Panajachel	8	Panajachel	1	Enero	2023-01-16T00:00:00	2024-11-08T05:00:00	2	Temperatura media	13.8
14110	7	Sololá	710	Panajachel	8	Panajachel	1	Enero	2023-01-16T00:00:00	2024-11-08T05:00:00	4	Temperatura máxima	14.8
14111	7	Sololá	710	Panajachel	8	Panajachel	1	Enero	2023-01-16T00:00:00	2024-11-08T05:00:00	3	Temperatura mínima	13.8
14112	7	Sololá	710	Panajachel	8	Panajachel	1	Enero	2023-01-16T00:00:00	2024-11-08T05:00:00	5	Humedad	81
14113	7	Sololá	710	Panajachel	8	Panajachel	1	Enero	2023-01-16T00:00:00	2024-11-08T05:00:00	6	Velocidad del viento	3.2
14114	7	Sololá	710	Panajachel	8	Panajachel	1	Enero	2023-01-16T00:00:00	2024-11-08T05:00:00	7	Dirección del viento	3.22
14115	7	Sololá	710	Panajachel	8	Panajachel	1	Enero	2023-01-16T00:00:00	2024-11-08T05:00:00	1	Precipitación	0
14116	7	Sololá	710	Panajachel	8	Panajachel	1	Enero	2023-01-16T00:00:00	2024-11-08T05:00:00	8	Radiación solar	0
14117	7	Sololá	710	Panajachel	8	Panajachel	1	Enero	2023-01-16T00:00:00	2024-11-08T06:00:00	2	Temperatura media	13.8
14118	7	Sololá	710	Panajachel	8	Panajachel	1	Enero	2023-01-16T00:00:00	2024-11-08T06:00:00	4	Temperatura máxima	13.9
14119	7	Sololá	710	Panajachel	8	Panajachel	1	Enero	2023-01-16T00:00:00	2024-11-08T06:00:00	3	Temperatura mínima	13.7
14120	7	Sololá	710	Panajachel	8	Panajachel	1	Enero	2023-01-16T00:00:00	2024-11-08T06:00:00	5	Humedad	79
14121	7	Sololá	710	Panajachel	8	Panajachel	1	Enero	2023-01-16T00:00:00	2024-11-08T06:00:00	6	Velocidad del viento	3.2
14122	7	Sololá	710	Panajachel	8	Panajachel	1	Enero	2023-01-16T00:00:00	2024-11-08T06:00:00	7	Dirección del viento	3.22
14123	7	Sololá	710	Panajachel	8	Panajachel	1	Enero	2023-01-16T00:00:00	2024-11-08T06:00:00	1	Precipitación	0
14124	7	Sololá	710	Panajachel	8	Panajachel	1	Enero	2023-01-16T00:00:00	2024-11-08T06:00:00	8	Radiación solar	0
14125	7	Sololá	710	Panajachel	8	Panajachel	1	Enero	2023-01-16T00:00:00	2024-11-08T07:00:00	2	Temperatura media	13.6
14126	7	Sololá	710	Panajachel	8	Panajachel	1	Enero	2023-01-16T00:00:00	2024-11-08T07:00:00	4	Temperatura máxima	13.8
14127	7	Sololá	710	Panajachel	8	Panajachel	1	Enero	2023-01-16T00:00:00	2024-11-08T07:00:00	3	Temperatura mínima	13.3
14128	7	Sololá	710	Panajachel	8	Panajachel	1	Enero	2023-01-16T00:00:00	2024-11-08T07:00:00	5	Humedad	79
14129	7	Sololá	710	Panajachel	8	Panajachel	1	Enero	2023-01-16T00:00:00	2024-11-08T07:00:00	6	Velocidad del viento	3.2
14130	7	Sololá	710	Panajachel	8	Panajachel	1	Enero	2023-01-16T00:00:00	2024-11-08T07:00:00	7	Dirección del viento	3.22
14131	7	Sololá	710	Panajachel	8	Panajachel	1	Enero	2023-01-16T00:00:00	2024-11-08T07:00:00	1	Precipitación	0
14132	7	Sololá	710	Panajachel	8	Panajachel	1	Enero	2023-01-16T00:00:00	2024-11-08T07:00:00	8	Radiación solar	5
14133	7	Sololá	710	Panajachel	8	Panajachel	1	Enero	2023-01-16T00:00:00	2024-11-08T08:00:00	2	Temperatura media	14.7
14134	7	Sololá	710	Panajachel	8	Panajachel	1	Enero	2023-01-16T00:00:00	2024-11-08T08:00:00	4	Temperatura máxima	14.8
14135	7	Sololá	710	Panajachel	8	Panajachel	1	Enero	2023-01-16T00:00:00	2024-11-08T08:00:00	3	Temperatura mínima	13.6
14136	7	Sololá	710	Panajachel	8	Panajachel	1	Enero	2023-01-16T00:00:00	2024-11-08T08:00:00	5	Humedad	76
14137	7	Sololá	710	Panajachel	8	Panajachel	1	Enero	2023-01-16T00:00:00	2024-11-08T08:00:00	6	Velocidad del viento	4.8
14138	7	Sololá	710	Panajachel	8	Panajachel	1	Enero	2023-01-16T00:00:00	2024-11-08T08:00:00	7	Dirección del viento	4.83
14139	7	Sololá	710	Panajachel	8	Panajachel	1	Enero	2023-01-16T00:00:00	2024-11-08T08:00:00	1	Precipitación	0
14140	7	Sololá	710	Panajachel	8	Panajachel	1	Enero	2023-01-16T00:00:00	2024-11-08T08:00:00	8	Radiación solar	47
14141	7	Sololá	710	Panajachel	8	Panajachel	1	Enero	2023-01-16T00:00:00	2024-11-08T09:00:00	2	Temperatura media	17.6
14142	7	Sololá	710	Panajachel	8	Panajachel	1	Enero	2023-01-16T00:00:00	2024-11-08T09:00:00	4	Temperatura máxima	17.9
14143	7	Sololá	710	Panajachel	8	Panajachel	1	Enero	2023-01-16T00:00:00	2024-11-08T09:00:00	3	Temperatura mínima	14.8
14144	7	Sololá	710	Panajachel	8	Panajachel	1	Enero	2023-01-16T00:00:00	2024-11-08T09:00:00	5	Humedad	74
14145	7	Sololá	710	Panajachel	8	Panajachel	1	Enero	2023-01-16T00:00:00	2024-11-08T09:00:00	6	Velocidad del viento	1.6
14146	7	Sololá	710	Panajachel	8	Panajachel	1	Enero	2023-01-16T00:00:00	2024-11-08T09:00:00	7	Dirección del viento	1.61
14147	7	Sololá	710	Panajachel	8	Panajachel	1	Enero	2023-01-16T00:00:00	2024-11-08T09:00:00	1	Precipitación	0
14148	7	Sololá	710	Panajachel	8	Panajachel	1	Enero	2023-01-16T00:00:00	2024-11-08T09:00:00	8	Radiación solar	359
14149	7	Sololá	710	Panajachel	8	Panajachel	1	Enero	2023-01-16T00:00:00	2024-11-08T10:00:00	2	Temperatura media	19.2
14150	7	Sololá	710	Panajachel	8	Panajachel	1	Enero	2023-01-16T00:00:00	2024-11-08T10:00:00	4	Temperatura máxima	19.3
14151	7	Sololá	710	Panajachel	8	Panajachel	1	Enero	2023-01-16T00:00:00	2024-11-08T10:00:00	3	Temperatura mínima	17.6
14152	7	Sololá	710	Panajachel	8	Panajachel	1	Enero	2023-01-16T00:00:00	2024-11-08T10:00:00	5	Humedad	76
14153	7	Sololá	710	Panajachel	8	Panajachel	1	Enero	2023-01-16T00:00:00	2024-11-08T10:00:00	6	Velocidad del viento	3.2
14154	7	Sololá	710	Panajachel	8	Panajachel	1	Enero	2023-01-16T00:00:00	2024-11-08T10:00:00	7	Dirección del viento	3.22
14155	7	Sololá	710	Panajachel	8	Panajachel	1	Enero	2023-01-16T00:00:00	2024-11-08T10:00:00	1	Precipitación	0
14156	7	Sololá	710	Panajachel	8	Panajachel	1	Enero	2023-01-16T00:00:00	2024-11-08T10:00:00	8	Radiación solar	559
14157	7	Sololá	710	Panajachel	8	Panajachel	1	Enero	2023-01-16T00:00:00	2024-11-08T11:00:00	2	Temperatura media	20.7
14158	7	Sololá	710	Panajachel	8	Panajachel	1	Enero	2023-01-16T00:00:00	2024-11-08T11:00:00	4	Temperatura máxima	20.7
14159	7	Sololá	710	Panajachel	8	Panajachel	1	Enero	2023-01-16T00:00:00	2024-11-08T11:00:00	3	Temperatura mínima	19.2
14160	7	Sololá	710	Panajachel	8	Panajachel	1	Enero	2023-01-16T00:00:00	2024-11-08T11:00:00	5	Humedad	66
14161	7	Sololá	710	Panajachel	8	Panajachel	1	Enero	2023-01-16T00:00:00	2024-11-08T11:00:00	6	Velocidad del viento	3.2
14162	7	Sololá	710	Panajachel	8	Panajachel	1	Enero	2023-01-16T00:00:00	2024-11-08T11:00:00	7	Dirección del viento	3.22
14163	7	Sololá	710	Panajachel	8	Panajachel	1	Enero	2023-01-16T00:00:00	2024-11-08T11:00:00	1	Precipitación	0
14164	7	Sololá	710	Panajachel	8	Panajachel	1	Enero	2023-01-16T00:00:00	2024-11-08T11:00:00	8	Radiación solar	707
14165	7	Sololá	710	Panajachel	8	Panajachel	1	Enero	2023-01-16T00:00:00	2024-11-08T12:00:00	2	Temperatura media	21.9
14166	7	Sololá	710	Panajachel	8	Panajachel	1	Enero	2023-01-16T00:00:00	2024-11-08T12:00:00	4	Temperatura máxima	22
14167	7	Sololá	710	Panajachel	8	Panajachel	1	Enero	2023-01-16T00:00:00	2024-11-08T12:00:00	3	Temperatura mínima	20.7
14168	7	Sololá	710	Panajachel	8	Panajachel	1	Enero	2023-01-16T00:00:00	2024-11-08T12:00:00	5	Humedad	56
14169	7	Sololá	710	Panajachel	8	Panajachel	1	Enero	2023-01-16T00:00:00	2024-11-08T12:00:00	6	Velocidad del viento	3.2
14170	7	Sololá	710	Panajachel	8	Panajachel	1	Enero	2023-01-16T00:00:00	2024-11-08T12:00:00	7	Dirección del viento	3.22
14171	7	Sololá	710	Panajachel	8	Panajachel	1	Enero	2023-01-16T00:00:00	2024-11-08T12:00:00	1	Precipitación	0
14172	7	Sololá	710	Panajachel	8	Panajachel	1	Enero	2023-01-16T00:00:00	2024-11-08T12:00:00	8	Radiación solar	792
14173	7	Sololá	710	Panajachel	8	Panajachel	1	Enero	2023-01-16T00:00:00	2024-11-08T13:00:00	2	Temperatura media	22.8
14174	7	Sololá	710	Panajachel	8	Panajachel	1	Enero	2023-01-16T00:00:00	2024-11-08T13:00:00	4	Temperatura máxima	22.8
14175	7	Sololá	710	Panajachel	8	Panajachel	1	Enero	2023-01-16T00:00:00	2024-11-08T13:00:00	3	Temperatura mínima	21.9
14176	7	Sololá	710	Panajachel	8	Panajachel	1	Enero	2023-01-16T00:00:00	2024-11-08T13:00:00	5	Humedad	60
14177	7	Sololá	710	Panajachel	8	Panajachel	1	Enero	2023-01-16T00:00:00	2024-11-08T13:00:00	6	Velocidad del viento	3.2
14178	7	Sololá	710	Panajachel	8	Panajachel	1	Enero	2023-01-16T00:00:00	2024-11-08T13:00:00	7	Dirección del viento	3.22
14179	7	Sololá	710	Panajachel	8	Panajachel	1	Enero	2023-01-16T00:00:00	2024-11-08T13:00:00	1	Precipitación	0
14180	7	Sololá	710	Panajachel	8	Panajachel	1	Enero	2023-01-16T00:00:00	2024-11-08T13:00:00	8	Radiación solar	803
14181	7	Sololá	710	Panajachel	8	Panajachel	1	Enero	2023-01-16T00:00:00	2024-11-08T14:00:00	2	Temperatura media	22.1
14182	7	Sololá	710	Panajachel	8	Panajachel	1	Enero	2023-01-16T00:00:00	2024-11-08T14:00:00	4	Temperatura máxima	22.8
14183	7	Sololá	710	Panajachel	8	Panajachel	1	Enero	2023-01-16T00:00:00	2024-11-08T14:00:00	3	Temperatura mínima	21.9
14184	7	Sololá	710	Panajachel	8	Panajachel	1	Enero	2023-01-16T00:00:00	2024-11-08T14:00:00	5	Humedad	76
14185	7	Sololá	710	Panajachel	8	Panajachel	1	Enero	2023-01-16T00:00:00	2024-11-08T14:00:00	6	Velocidad del viento	3.2
14186	7	Sololá	710	Panajachel	8	Panajachel	1	Enero	2023-01-16T00:00:00	2024-11-08T14:00:00	7	Dirección del viento	3.22
14187	7	Sololá	710	Panajachel	8	Panajachel	1	Enero	2023-01-16T00:00:00	2024-11-08T14:00:00	1	Precipitación	0
14188	7	Sololá	710	Panajachel	8	Panajachel	1	Enero	2023-01-16T00:00:00	2024-11-08T14:00:00	8	Radiación solar	697
14189	7	Sololá	710	Panajachel	8	Panajachel	1	Enero	2023-01-16T00:00:00	2024-11-08T15:00:00	2	Temperatura media	22.3
14190	7	Sololá	710	Panajachel	8	Panajachel	1	Enero	2023-01-16T00:00:00	2024-11-08T15:00:00	4	Temperatura máxima	22.3
14191	7	Sololá	710	Panajachel	8	Panajachel	1	Enero	2023-01-16T00:00:00	2024-11-08T15:00:00	3	Temperatura mínima	21.6
14192	7	Sololá	710	Panajachel	8	Panajachel	1	Enero	2023-01-16T00:00:00	2024-11-08T15:00:00	5	Humedad	75
14193	7	Sololá	710	Panajachel	8	Panajachel	1	Enero	2023-01-16T00:00:00	2024-11-08T15:00:00	6	Velocidad del viento	4.8
14194	7	Sololá	710	Panajachel	8	Panajachel	1	Enero	2023-01-16T00:00:00	2024-11-08T15:00:00	7	Dirección del viento	4.83
14195	7	Sololá	710	Panajachel	8	Panajachel	1	Enero	2023-01-16T00:00:00	2024-11-08T15:00:00	1	Precipitación	0
14196	7	Sololá	710	Panajachel	8	Panajachel	1	Enero	2023-01-16T00:00:00	2024-11-08T15:00:00	8	Radiación solar	628
14197	7	Sololá	710	Panajachel	8	Panajachel	1	Enero	2023-01-16T00:00:00	2024-11-08T16:00:00	2	Temperatura media	21.6
14198	7	Sololá	710	Panajachel	8	Panajachel	1	Enero	2023-01-16T00:00:00	2024-11-08T16:00:00	4	Temperatura máxima	22.6
14199	7	Sololá	710	Panajachel	8	Panajachel	1	Enero	2023-01-16T00:00:00	2024-11-08T16:00:00	3	Temperatura mínima	21.6
14200	7	Sololá	710	Panajachel	8	Panajachel	1	Enero	2023-01-16T00:00:00	2024-11-08T16:00:00	5	Humedad	77
14201	7	Sololá	710	Panajachel	8	Panajachel	1	Enero	2023-01-16T00:00:00	2024-11-08T16:00:00	6	Velocidad del viento	1.6
14202	7	Sololá	710	Panajachel	8	Panajachel	1	Enero	2023-01-16T00:00:00	2024-11-08T16:00:00	7	Dirección del viento	1.61
14203	7	Sololá	710	Panajachel	8	Panajachel	1	Enero	2023-01-16T00:00:00	2024-11-08T16:00:00	1	Precipitación	0
14204	7	Sololá	710	Panajachel	8	Panajachel	1	Enero	2023-01-16T00:00:00	2024-11-08T16:00:00	8	Radiación solar	337
14205	7	Sololá	710	Panajachel	8	Panajachel	1	Enero	2023-01-16T00:00:00	2024-11-08T17:00:00	2	Temperatura media	20.1
14206	7	Sololá	710	Panajachel	8	Panajachel	1	Enero	2023-01-16T00:00:00	2024-11-08T17:00:00	4	Temperatura máxima	21.6
14207	7	Sololá	710	Panajachel	8	Panajachel	1	Enero	2023-01-16T00:00:00	2024-11-08T17:00:00	3	Temperatura mínima	20.1
14208	7	Sololá	710	Panajachel	8	Panajachel	1	Enero	2023-01-16T00:00:00	2024-11-08T17:00:00	5	Humedad	81
14209	7	Sololá	710	Panajachel	8	Panajachel	1	Enero	2023-01-16T00:00:00	2024-11-08T17:00:00	6	Velocidad del viento	0
14210	7	Sololá	710	Panajachel	8	Panajachel	1	Enero	2023-01-16T00:00:00	2024-11-08T17:00:00	7	Dirección del viento	0
14211	7	Sololá	710	Panajachel	8	Panajachel	1	Enero	2023-01-16T00:00:00	2024-11-08T17:00:00	1	Precipitación	0
14212	7	Sololá	710	Panajachel	8	Panajachel	1	Enero	2023-01-16T00:00:00	2024-11-08T17:00:00	8	Radiación solar	141
14213	7	Sololá	710	Panajachel	8	Panajachel	1	Enero	2023-01-16T00:00:00	2024-11-08T18:00:00	2	Temperatura media	19.3
14214	7	Sololá	710	Panajachel	8	Panajachel	1	Enero	2023-01-16T00:00:00	2024-11-08T18:00:00	4	Temperatura máxima	20.1
14215	7	Sololá	710	Panajachel	8	Panajachel	1	Enero	2023-01-16T00:00:00	2024-11-08T18:00:00	3	Temperatura mínima	19.3
14216	7	Sololá	710	Panajachel	8	Panajachel	1	Enero	2023-01-16T00:00:00	2024-11-08T18:00:00	5	Humedad	85
14217	7	Sololá	710	Panajachel	8	Panajachel	1	Enero	2023-01-16T00:00:00	2024-11-08T18:00:00	6	Velocidad del viento	0
14218	7	Sololá	710	Panajachel	8	Panajachel	1	Enero	2023-01-16T00:00:00	2024-11-08T18:00:00	7	Dirección del viento	0
14219	7	Sololá	710	Panajachel	8	Panajachel	1	Enero	2023-01-16T00:00:00	2024-11-08T18:00:00	1	Precipitación	0
14220	7	Sololá	710	Panajachel	8	Panajachel	1	Enero	2023-01-16T00:00:00	2024-11-08T18:00:00	8	Radiación solar	13
14221	7	Sololá	710	Panajachel	8	Panajachel	1	Enero	2023-01-16T00:00:00	2024-11-08T19:00:00	2	Temperatura media	18.9
14222	7	Sololá	710	Panajachel	8	Panajachel	1	Enero	2023-01-16T00:00:00	2024-11-08T19:00:00	4	Temperatura máxima	19.4
14223	7	Sololá	710	Panajachel	8	Panajachel	1	Enero	2023-01-16T00:00:00	2024-11-08T19:00:00	3	Temperatura mínima	18.8
14224	7	Sololá	710	Panajachel	8	Panajachel	1	Enero	2023-01-16T00:00:00	2024-11-08T19:00:00	5	Humedad	85
14225	7	Sololá	710	Panajachel	8	Panajachel	1	Enero	2023-01-16T00:00:00	2024-11-08T19:00:00	6	Velocidad del viento	0
14226	7	Sololá	710	Panajachel	8	Panajachel	1	Enero	2023-01-16T00:00:00	2024-11-08T19:00:00	7	Dirección del viento	0
14227	7	Sololá	710	Panajachel	8	Panajachel	1	Enero	2023-01-16T00:00:00	2024-11-08T19:00:00	1	Precipitación	0
14228	7	Sololá	710	Panajachel	8	Panajachel	1	Enero	2023-01-16T00:00:00	2024-11-08T19:00:00	8	Radiación solar	0
14229	7	Sololá	710	Panajachel	8	Panajachel	1	Enero	2023-01-16T00:00:00	2024-11-08T20:00:00	2	Temperatura media	18.6
14230	7	Sololá	710	Panajachel	8	Panajachel	1	Enero	2023-01-16T00:00:00	2024-11-08T20:00:00	4	Temperatura máxima	18.9
14231	7	Sololá	710	Panajachel	8	Panajachel	1	Enero	2023-01-16T00:00:00	2024-11-08T20:00:00	3	Temperatura mínima	18.5
14232	7	Sololá	710	Panajachel	8	Panajachel	1	Enero	2023-01-16T00:00:00	2024-11-08T20:00:00	5	Humedad	87
14233	7	Sololá	710	Panajachel	8	Panajachel	1	Enero	2023-01-16T00:00:00	2024-11-08T20:00:00	6	Velocidad del viento	0
14234	7	Sololá	710	Panajachel	8	Panajachel	1	Enero	2023-01-16T00:00:00	2024-11-08T20:00:00	7	Dirección del viento	0
14235	7	Sololá	710	Panajachel	8	Panajachel	1	Enero	2023-01-16T00:00:00	2024-11-08T20:00:00	1	Precipitación	0
14236	7	Sololá	710	Panajachel	8	Panajachel	1	Enero	2023-01-16T00:00:00	2024-11-08T20:00:00	8	Radiación solar	0
14237	7	Sololá	710	Panajachel	8	Panajachel	1	Enero	2023-01-16T00:00:00	2024-11-08T21:00:00	2	Temperatura media	18
14238	7	Sololá	710	Panajachel	8	Panajachel	1	Enero	2023-01-16T00:00:00	2024-11-08T21:00:00	4	Temperatura máxima	18.6
14239	7	Sololá	710	Panajachel	8	Panajachel	1	Enero	2023-01-16T00:00:00	2024-11-08T21:00:00	3	Temperatura mínima	18
14240	7	Sololá	710	Panajachel	8	Panajachel	1	Enero	2023-01-16T00:00:00	2024-11-08T21:00:00	5	Humedad	87
14241	7	Sololá	710	Panajachel	8	Panajachel	1	Enero	2023-01-16T00:00:00	2024-11-08T21:00:00	6	Velocidad del viento	0
14242	7	Sololá	710	Panajachel	8	Panajachel	1	Enero	2023-01-16T00:00:00	2024-11-08T21:00:00	7	Dirección del viento	0
14243	7	Sololá	710	Panajachel	8	Panajachel	1	Enero	2023-01-16T00:00:00	2024-11-08T21:00:00	1	Precipitación	0
14244	7	Sololá	710	Panajachel	8	Panajachel	1	Enero	2023-01-16T00:00:00	2024-11-08T21:00:00	8	Radiación solar	0
14245	7	Sololá	710	Panajachel	8	Panajachel	1	Enero	2023-01-16T00:00:00	2024-11-08T22:00:00	2	Temperatura media	16.7
14246	7	Sololá	710	Panajachel	8	Panajachel	1	Enero	2023-01-16T00:00:00	2024-11-08T22:00:00	4	Temperatura máxima	18.1
14247	7	Sololá	710	Panajachel	8	Panajachel	1	Enero	2023-01-16T00:00:00	2024-11-08T22:00:00	3	Temperatura mínima	16.7
14248	7	Sololá	710	Panajachel	8	Panajachel	1	Enero	2023-01-16T00:00:00	2024-11-08T22:00:00	5	Humedad	87
14249	7	Sololá	710	Panajachel	8	Panajachel	1	Enero	2023-01-16T00:00:00	2024-11-08T22:00:00	6	Velocidad del viento	1.6
14250	7	Sololá	710	Panajachel	8	Panajachel	1	Enero	2023-01-16T00:00:00	2024-11-08T22:00:00	7	Dirección del viento	1.61
14251	7	Sololá	710	Panajachel	8	Panajachel	1	Enero	2023-01-16T00:00:00	2024-11-08T22:00:00	1	Precipitación	0
14252	7	Sololá	710	Panajachel	8	Panajachel	1	Enero	2023-01-16T00:00:00	2024-11-08T22:00:00	8	Radiación solar	0
14253	7	Sololá	710	Panajachel	8	Panajachel	1	Enero	2023-01-16T00:00:00	2024-11-08T23:00:00	2	Temperatura media	16.4
14254	7	Sololá	710	Panajachel	8	Panajachel	1	Enero	2023-01-16T00:00:00	2024-11-08T23:00:00	4	Temperatura máxima	16.7
14255	7	Sololá	710	Panajachel	8	Panajachel	1	Enero	2023-01-16T00:00:00	2024-11-08T23:00:00	3	Temperatura mínima	16.2
14256	7	Sololá	710	Panajachel	8	Panajachel	1	Enero	2023-01-16T00:00:00	2024-11-08T23:00:00	5	Humedad	83
14257	7	Sololá	710	Panajachel	8	Panajachel	1	Enero	2023-01-16T00:00:00	2024-11-08T23:00:00	6	Velocidad del viento	3.2
14258	7	Sololá	710	Panajachel	8	Panajachel	1	Enero	2023-01-16T00:00:00	2024-11-08T23:00:00	7	Dirección del viento	3.22
14259	7	Sololá	710	Panajachel	8	Panajachel	1	Enero	2023-01-16T00:00:00	2024-11-08T23:00:00	1	Precipitación	0
14260	7	Sololá	710	Panajachel	8	Panajachel	1	Enero	2023-01-16T00:00:00	2024-11-08T23:00:00	8	Radiación solar	0
14261	7	Sololá	710	Panajachel	8	Panajachel	1	Enero	2023-01-17T00:00:00	2024-11-08T00:00:00	2	Temperatura media	16.4
14262	7	Sololá	710	Panajachel	8	Panajachel	1	Enero	2023-01-17T00:00:00	2024-11-08T00:00:00	4	Temperatura máxima	16.4
14263	7	Sololá	710	Panajachel	8	Panajachel	1	Enero	2023-01-17T00:00:00	2024-11-08T00:00:00	3	Temperatura mínima	16.1
14264	7	Sololá	710	Panajachel	8	Panajachel	1	Enero	2023-01-17T00:00:00	2024-11-08T00:00:00	5	Humedad	81
14265	7	Sololá	710	Panajachel	8	Panajachel	1	Enero	2023-01-17T00:00:00	2024-11-08T00:00:00	6	Velocidad del viento	4.8
14266	7	Sololá	710	Panajachel	8	Panajachel	1	Enero	2023-01-17T00:00:00	2024-11-08T00:00:00	7	Dirección del viento	4.83
14267	7	Sololá	710	Panajachel	8	Panajachel	1	Enero	2023-01-17T00:00:00	2024-11-08T00:00:00	1	Precipitación	0
14268	7	Sololá	710	Panajachel	8	Panajachel	1	Enero	2023-01-17T00:00:00	2024-11-08T00:00:00	8	Radiación solar	0
14269	7	Sololá	710	Panajachel	8	Panajachel	1	Enero	2023-01-17T00:00:00	2024-11-08T01:00:00	2	Temperatura media	16.6
14270	7	Sololá	710	Panajachel	8	Panajachel	1	Enero	2023-01-17T00:00:00	2024-11-08T01:00:00	4	Temperatura máxima	16.7
14271	7	Sololá	710	Panajachel	8	Panajachel	1	Enero	2023-01-17T00:00:00	2024-11-08T01:00:00	3	Temperatura mínima	16.4
14272	7	Sololá	710	Panajachel	8	Panajachel	1	Enero	2023-01-17T00:00:00	2024-11-08T01:00:00	5	Humedad	81
14273	7	Sololá	710	Panajachel	8	Panajachel	1	Enero	2023-01-17T00:00:00	2024-11-08T01:00:00	6	Velocidad del viento	3.2
14274	7	Sololá	710	Panajachel	8	Panajachel	1	Enero	2023-01-17T00:00:00	2024-11-08T01:00:00	7	Dirección del viento	3.22
14275	7	Sololá	710	Panajachel	8	Panajachel	1	Enero	2023-01-17T00:00:00	2024-11-08T01:00:00	1	Precipitación	0
14276	7	Sololá	710	Panajachel	8	Panajachel	1	Enero	2023-01-17T00:00:00	2024-11-08T01:00:00	8	Radiación solar	0
14277	7	Sololá	710	Panajachel	8	Panajachel	1	Enero	2023-01-17T00:00:00	2024-11-08T02:00:00	2	Temperatura media	16.8
14278	7	Sololá	710	Panajachel	8	Panajachel	1	Enero	2023-01-17T00:00:00	2024-11-08T02:00:00	4	Temperatura máxima	16.8
14279	7	Sololá	710	Panajachel	8	Panajachel	1	Enero	2023-01-17T00:00:00	2024-11-08T02:00:00	3	Temperatura mínima	16.6
14280	7	Sololá	710	Panajachel	8	Panajachel	1	Enero	2023-01-17T00:00:00	2024-11-08T02:00:00	5	Humedad	82
14281	7	Sololá	710	Panajachel	8	Panajachel	1	Enero	2023-01-17T00:00:00	2024-11-08T02:00:00	6	Velocidad del viento	0
14282	7	Sololá	710	Panajachel	8	Panajachel	1	Enero	2023-01-17T00:00:00	2024-11-08T02:00:00	7	Dirección del viento	0
14283	7	Sololá	710	Panajachel	8	Panajachel	1	Enero	2023-01-17T00:00:00	2024-11-08T02:00:00	1	Precipitación	0
14284	7	Sololá	710	Panajachel	8	Panajachel	1	Enero	2023-01-17T00:00:00	2024-11-08T02:00:00	8	Radiación solar	0
14285	7	Sololá	710	Panajachel	8	Panajachel	1	Enero	2023-01-17T00:00:00	2024-11-08T03:00:00	2	Temperatura media	16.8
14286	7	Sololá	710	Panajachel	8	Panajachel	1	Enero	2023-01-17T00:00:00	2024-11-08T03:00:00	4	Temperatura máxima	16.9
14287	7	Sololá	710	Panajachel	8	Panajachel	1	Enero	2023-01-17T00:00:00	2024-11-08T03:00:00	3	Temperatura mínima	16.8
14288	7	Sololá	710	Panajachel	8	Panajachel	1	Enero	2023-01-17T00:00:00	2024-11-08T03:00:00	5	Humedad	83
14289	7	Sololá	710	Panajachel	8	Panajachel	1	Enero	2023-01-17T00:00:00	2024-11-08T03:00:00	6	Velocidad del viento	0
14290	7	Sololá	710	Panajachel	8	Panajachel	1	Enero	2023-01-17T00:00:00	2024-11-08T03:00:00	7	Dirección del viento	0
14291	7	Sololá	710	Panajachel	8	Panajachel	1	Enero	2023-01-17T00:00:00	2024-11-08T03:00:00	1	Precipitación	0
14292	7	Sololá	710	Panajachel	8	Panajachel	1	Enero	2023-01-17T00:00:00	2024-11-08T03:00:00	8	Radiación solar	0
14293	7	Sololá	710	Panajachel	8	Panajachel	1	Enero	2023-01-17T00:00:00	2024-11-08T04:00:00	2	Temperatura media	15.5
14294	7	Sololá	710	Panajachel	8	Panajachel	1	Enero	2023-01-17T00:00:00	2024-11-08T04:00:00	4	Temperatura máxima	16.8
14295	7	Sololá	710	Panajachel	8	Panajachel	1	Enero	2023-01-17T00:00:00	2024-11-08T04:00:00	3	Temperatura mínima	15.5
14296	7	Sololá	710	Panajachel	8	Panajachel	1	Enero	2023-01-17T00:00:00	2024-11-08T04:00:00	5	Humedad	87
14297	7	Sololá	710	Panajachel	8	Panajachel	1	Enero	2023-01-17T00:00:00	2024-11-08T04:00:00	6	Velocidad del viento	0
14298	7	Sololá	710	Panajachel	8	Panajachel	1	Enero	2023-01-17T00:00:00	2024-11-08T04:00:00	7	Dirección del viento	0
14299	7	Sololá	710	Panajachel	8	Panajachel	1	Enero	2023-01-17T00:00:00	2024-11-08T04:00:00	1	Precipitación	0
14300	7	Sololá	710	Panajachel	8	Panajachel	1	Enero	2023-01-17T00:00:00	2024-11-08T04:00:00	8	Radiación solar	0
14301	7	Sololá	710	Panajachel	8	Panajachel	1	Enero	2023-01-17T00:00:00	2024-11-08T05:00:00	2	Temperatura media	15
14302	7	Sololá	710	Panajachel	8	Panajachel	1	Enero	2023-01-17T00:00:00	2024-11-08T05:00:00	4	Temperatura máxima	15.4
14303	7	Sololá	710	Panajachel	8	Panajachel	1	Enero	2023-01-17T00:00:00	2024-11-08T05:00:00	3	Temperatura mínima	15
14304	7	Sololá	710	Panajachel	8	Panajachel	1	Enero	2023-01-17T00:00:00	2024-11-08T05:00:00	5	Humedad	84
14305	7	Sololá	710	Panajachel	8	Panajachel	1	Enero	2023-01-17T00:00:00	2024-11-08T05:00:00	6	Velocidad del viento	0
14306	7	Sololá	710	Panajachel	8	Panajachel	1	Enero	2023-01-17T00:00:00	2024-11-08T05:00:00	7	Dirección del viento	0
14307	7	Sololá	710	Panajachel	8	Panajachel	1	Enero	2023-01-17T00:00:00	2024-11-08T05:00:00	1	Precipitación	0
14308	7	Sololá	710	Panajachel	8	Panajachel	1	Enero	2023-01-17T00:00:00	2024-11-08T05:00:00	8	Radiación solar	0
14309	7	Sololá	710	Panajachel	8	Panajachel	1	Enero	2023-01-17T00:00:00	2024-11-08T06:00:00	2	Temperatura media	14.1
14310	7	Sololá	710	Panajachel	8	Panajachel	1	Enero	2023-01-17T00:00:00	2024-11-08T06:00:00	4	Temperatura máxima	15.1
14311	7	Sololá	710	Panajachel	8	Panajachel	1	Enero	2023-01-17T00:00:00	2024-11-08T06:00:00	3	Temperatura mínima	14.1
14312	7	Sololá	710	Panajachel	8	Panajachel	1	Enero	2023-01-17T00:00:00	2024-11-08T06:00:00	5	Humedad	84
14313	7	Sololá	710	Panajachel	8	Panajachel	1	Enero	2023-01-17T00:00:00	2024-11-08T06:00:00	6	Velocidad del viento	1.6
14314	7	Sololá	710	Panajachel	8	Panajachel	1	Enero	2023-01-17T00:00:00	2024-11-08T06:00:00	7	Dirección del viento	1.61
14315	7	Sololá	710	Panajachel	8	Panajachel	1	Enero	2023-01-17T00:00:00	2024-11-08T06:00:00	1	Precipitación	0
14316	7	Sololá	710	Panajachel	8	Panajachel	1	Enero	2023-01-17T00:00:00	2024-11-08T06:00:00	8	Radiación solar	0
14317	7	Sololá	710	Panajachel	8	Panajachel	1	Enero	2023-01-17T00:00:00	2024-11-08T07:00:00	2	Temperatura media	13.9
14318	7	Sololá	710	Panajachel	8	Panajachel	1	Enero	2023-01-17T00:00:00	2024-11-08T07:00:00	4	Temperatura máxima	14.1
14319	7	Sololá	710	Panajachel	8	Panajachel	1	Enero	2023-01-17T00:00:00	2024-11-08T07:00:00	3	Temperatura mínima	13.7
14320	7	Sololá	710	Panajachel	8	Panajachel	1	Enero	2023-01-17T00:00:00	2024-11-08T07:00:00	5	Humedad	83
14321	7	Sololá	710	Panajachel	8	Panajachel	1	Enero	2023-01-17T00:00:00	2024-11-08T07:00:00	6	Velocidad del viento	1.6
14322	7	Sololá	710	Panajachel	8	Panajachel	1	Enero	2023-01-17T00:00:00	2024-11-08T07:00:00	7	Dirección del viento	1.61
14323	7	Sololá	710	Panajachel	8	Panajachel	1	Enero	2023-01-17T00:00:00	2024-11-08T07:00:00	1	Precipitación	0
14324	7	Sololá	710	Panajachel	8	Panajachel	1	Enero	2023-01-17T00:00:00	2024-11-08T07:00:00	8	Radiación solar	5
14325	7	Sololá	710	Panajachel	8	Panajachel	1	Enero	2023-01-17T00:00:00	2024-11-08T08:00:00	2	Temperatura media	15.3
14326	7	Sololá	710	Panajachel	8	Panajachel	1	Enero	2023-01-17T00:00:00	2024-11-08T08:00:00	4	Temperatura máxima	15.3
14327	7	Sololá	710	Panajachel	8	Panajachel	1	Enero	2023-01-17T00:00:00	2024-11-08T08:00:00	3	Temperatura mínima	13.8
14328	7	Sololá	710	Panajachel	8	Panajachel	1	Enero	2023-01-17T00:00:00	2024-11-08T08:00:00	5	Humedad	78
14329	7	Sololá	710	Panajachel	8	Panajachel	1	Enero	2023-01-17T00:00:00	2024-11-08T08:00:00	6	Velocidad del viento	1.6
14330	7	Sololá	710	Panajachel	8	Panajachel	1	Enero	2023-01-17T00:00:00	2024-11-08T08:00:00	7	Dirección del viento	1.61
14331	7	Sololá	710	Panajachel	8	Panajachel	1	Enero	2023-01-17T00:00:00	2024-11-08T08:00:00	1	Precipitación	0
14332	7	Sololá	710	Panajachel	8	Panajachel	1	Enero	2023-01-17T00:00:00	2024-11-08T08:00:00	8	Radiación solar	56
14333	7	Sololá	710	Panajachel	8	Panajachel	1	Enero	2023-01-17T00:00:00	2024-11-08T09:00:00	2	Temperatura media	17.9
14334	7	Sololá	710	Panajachel	8	Panajachel	1	Enero	2023-01-17T00:00:00	2024-11-08T09:00:00	4	Temperatura máxima	18.1
14335	7	Sololá	710	Panajachel	8	Panajachel	1	Enero	2023-01-17T00:00:00	2024-11-08T09:00:00	3	Temperatura mínima	15.3
14336	7	Sololá	710	Panajachel	8	Panajachel	1	Enero	2023-01-17T00:00:00	2024-11-08T09:00:00	5	Humedad	79
14337	7	Sololá	710	Panajachel	8	Panajachel	1	Enero	2023-01-17T00:00:00	2024-11-08T09:00:00	6	Velocidad del viento	1.6
14338	7	Sololá	710	Panajachel	8	Panajachel	1	Enero	2023-01-17T00:00:00	2024-11-08T09:00:00	7	Dirección del viento	1.61
14339	7	Sololá	710	Panajachel	8	Panajachel	1	Enero	2023-01-17T00:00:00	2024-11-08T09:00:00	1	Precipitación	0
14340	7	Sololá	710	Panajachel	8	Panajachel	1	Enero	2023-01-17T00:00:00	2024-11-08T09:00:00	8	Radiación solar	324
14341	7	Sololá	710	Panajachel	8	Panajachel	1	Enero	2023-01-17T00:00:00	2024-11-08T10:00:00	2	Temperatura media	19.4
14342	7	Sololá	710	Panajachel	8	Panajachel	1	Enero	2023-01-17T00:00:00	2024-11-08T10:00:00	4	Temperatura máxima	19.4
14343	7	Sololá	710	Panajachel	8	Panajachel	1	Enero	2023-01-17T00:00:00	2024-11-08T10:00:00	3	Temperatura mínima	17.9
14344	7	Sololá	710	Panajachel	8	Panajachel	1	Enero	2023-01-17T00:00:00	2024-11-08T10:00:00	5	Humedad	78
14345	7	Sololá	710	Panajachel	8	Panajachel	1	Enero	2023-01-17T00:00:00	2024-11-08T10:00:00	6	Velocidad del viento	3.2
14346	7	Sololá	710	Panajachel	8	Panajachel	1	Enero	2023-01-17T00:00:00	2024-11-08T10:00:00	7	Dirección del viento	3.22
14347	7	Sololá	710	Panajachel	8	Panajachel	1	Enero	2023-01-17T00:00:00	2024-11-08T10:00:00	1	Precipitación	0
14348	7	Sololá	710	Panajachel	8	Panajachel	1	Enero	2023-01-17T00:00:00	2024-11-08T10:00:00	8	Radiación solar	524
14349	7	Sololá	710	Panajachel	8	Panajachel	1	Enero	2023-01-17T00:00:00	2024-11-08T11:00:00	2	Temperatura media	20.8
14350	7	Sololá	710	Panajachel	8	Panajachel	1	Enero	2023-01-17T00:00:00	2024-11-08T11:00:00	4	Temperatura máxima	20.8
14351	7	Sololá	710	Panajachel	8	Panajachel	1	Enero	2023-01-17T00:00:00	2024-11-08T11:00:00	3	Temperatura mínima	19.4
14352	7	Sololá	710	Panajachel	8	Panajachel	1	Enero	2023-01-17T00:00:00	2024-11-08T11:00:00	5	Humedad	71
14353	7	Sololá	710	Panajachel	8	Panajachel	1	Enero	2023-01-17T00:00:00	2024-11-08T11:00:00	6	Velocidad del viento	3.2
14354	7	Sololá	710	Panajachel	8	Panajachel	1	Enero	2023-01-17T00:00:00	2024-11-08T11:00:00	7	Dirección del viento	3.22
14355	7	Sololá	710	Panajachel	8	Panajachel	1	Enero	2023-01-17T00:00:00	2024-11-08T11:00:00	1	Precipitación	0
14356	7	Sololá	710	Panajachel	8	Panajachel	1	Enero	2023-01-17T00:00:00	2024-11-08T11:00:00	8	Radiación solar	681
14357	7	Sololá	710	Panajachel	8	Panajachel	1	Enero	2023-01-17T00:00:00	2024-11-08T12:00:00	2	Temperatura media	21.6
14358	7	Sololá	710	Panajachel	8	Panajachel	1	Enero	2023-01-17T00:00:00	2024-11-08T12:00:00	4	Temperatura máxima	21.7
14359	7	Sololá	710	Panajachel	8	Panajachel	1	Enero	2023-01-17T00:00:00	2024-11-08T12:00:00	3	Temperatura mínima	20.4
14360	7	Sololá	710	Panajachel	8	Panajachel	1	Enero	2023-01-17T00:00:00	2024-11-08T12:00:00	5	Humedad	70
14361	7	Sololá	710	Panajachel	8	Panajachel	1	Enero	2023-01-17T00:00:00	2024-11-08T12:00:00	6	Velocidad del viento	1.6
14362	7	Sololá	710	Panajachel	8	Panajachel	1	Enero	2023-01-17T00:00:00	2024-11-08T12:00:00	7	Dirección del viento	1.61
14363	7	Sololá	710	Panajachel	8	Panajachel	1	Enero	2023-01-17T00:00:00	2024-11-08T12:00:00	1	Precipitación	0
14364	7	Sololá	710	Panajachel	8	Panajachel	1	Enero	2023-01-17T00:00:00	2024-11-08T12:00:00	8	Radiación solar	752
14365	7	Sololá	710	Panajachel	8	Panajachel	1	Enero	2023-01-17T00:00:00	2024-11-08T13:00:00	2	Temperatura media	22.3
14366	7	Sololá	710	Panajachel	8	Panajachel	1	Enero	2023-01-17T00:00:00	2024-11-08T13:00:00	4	Temperatura máxima	22.3
14367	7	Sololá	710	Panajachel	8	Panajachel	1	Enero	2023-01-17T00:00:00	2024-11-08T13:00:00	3	Temperatura mínima	21.6
14368	7	Sololá	710	Panajachel	8	Panajachel	1	Enero	2023-01-17T00:00:00	2024-11-08T13:00:00	5	Humedad	72
14369	7	Sololá	710	Panajachel	8	Panajachel	1	Enero	2023-01-17T00:00:00	2024-11-08T13:00:00	6	Velocidad del viento	3.2
14370	7	Sololá	710	Panajachel	8	Panajachel	1	Enero	2023-01-17T00:00:00	2024-11-08T13:00:00	7	Dirección del viento	3.22
14371	7	Sololá	710	Panajachel	8	Panajachel	1	Enero	2023-01-17T00:00:00	2024-11-08T13:00:00	1	Precipitación	0
14372	7	Sololá	710	Panajachel	8	Panajachel	1	Enero	2023-01-17T00:00:00	2024-11-08T13:00:00	8	Radiación solar	625
14373	7	Sololá	710	Panajachel	8	Panajachel	1	Enero	2023-01-17T00:00:00	2024-11-08T14:00:00	2	Temperatura media	21.1
14374	7	Sololá	710	Panajachel	8	Panajachel	1	Enero	2023-01-17T00:00:00	2024-11-08T14:00:00	4	Temperatura máxima	22.3
14375	7	Sololá	710	Panajachel	8	Panajachel	1	Enero	2023-01-17T00:00:00	2024-11-08T14:00:00	3	Temperatura mínima	21.1
14376	7	Sololá	710	Panajachel	8	Panajachel	1	Enero	2023-01-17T00:00:00	2024-11-08T14:00:00	5	Humedad	78
14377	7	Sololá	710	Panajachel	8	Panajachel	1	Enero	2023-01-17T00:00:00	2024-11-08T14:00:00	6	Velocidad del viento	3.2
14378	7	Sololá	710	Panajachel	8	Panajachel	1	Enero	2023-01-17T00:00:00	2024-11-08T14:00:00	7	Dirección del viento	3.22
14379	7	Sololá	710	Panajachel	8	Panajachel	1	Enero	2023-01-17T00:00:00	2024-11-08T14:00:00	1	Precipitación	0
14380	7	Sololá	710	Panajachel	8	Panajachel	1	Enero	2023-01-17T00:00:00	2024-11-08T14:00:00	8	Radiación solar	418
14381	7	Sololá	710	Panajachel	8	Panajachel	1	Enero	2023-01-17T00:00:00	2024-11-08T15:00:00	2	Temperatura media	20.5
14382	7	Sololá	710	Panajachel	8	Panajachel	1	Enero	2023-01-17T00:00:00	2024-11-08T15:00:00	4	Temperatura máxima	21.2
14383	7	Sololá	710	Panajachel	8	Panajachel	1	Enero	2023-01-17T00:00:00	2024-11-08T15:00:00	3	Temperatura mínima	20.5
14384	7	Sololá	710	Panajachel	8	Panajachel	1	Enero	2023-01-17T00:00:00	2024-11-08T15:00:00	5	Humedad	82
14385	7	Sololá	710	Panajachel	8	Panajachel	1	Enero	2023-01-17T00:00:00	2024-11-08T15:00:00	6	Velocidad del viento	1.6
14386	7	Sololá	710	Panajachel	8	Panajachel	1	Enero	2023-01-17T00:00:00	2024-11-08T15:00:00	7	Dirección del viento	1.61
14387	7	Sololá	710	Panajachel	8	Panajachel	1	Enero	2023-01-17T00:00:00	2024-11-08T15:00:00	1	Precipitación	0
14388	7	Sololá	710	Panajachel	8	Panajachel	1	Enero	2023-01-17T00:00:00	2024-11-08T15:00:00	8	Radiación solar	242
14389	7	Sololá	710	Panajachel	8	Panajachel	1	Enero	2023-01-17T00:00:00	2024-11-08T16:00:00	2	Temperatura media	19.4
14390	7	Sololá	710	Panajachel	8	Panajachel	1	Enero	2023-01-17T00:00:00	2024-11-08T16:00:00	4	Temperatura máxima	20.6
14391	7	Sololá	710	Panajachel	8	Panajachel	1	Enero	2023-01-17T00:00:00	2024-11-08T16:00:00	3	Temperatura mínima	19.4
14392	7	Sololá	710	Panajachel	8	Panajachel	1	Enero	2023-01-17T00:00:00	2024-11-08T16:00:00	5	Humedad	86
14393	7	Sololá	710	Panajachel	8	Panajachel	1	Enero	2023-01-17T00:00:00	2024-11-08T16:00:00	6	Velocidad del viento	4.8
14394	7	Sololá	710	Panajachel	8	Panajachel	1	Enero	2023-01-17T00:00:00	2024-11-08T16:00:00	7	Dirección del viento	4.83
14395	7	Sololá	710	Panajachel	8	Panajachel	1	Enero	2023-01-17T00:00:00	2024-11-08T16:00:00	1	Precipitación	0
14396	7	Sololá	710	Panajachel	8	Panajachel	1	Enero	2023-01-17T00:00:00	2024-11-08T16:00:00	8	Radiación solar	79
14397	7	Sololá	710	Panajachel	8	Panajachel	1	Enero	2023-01-17T00:00:00	2024-11-08T17:00:00	2	Temperatura media	19.6
14398	7	Sololá	710	Panajachel	8	Panajachel	1	Enero	2023-01-17T00:00:00	2024-11-08T17:00:00	4	Temperatura máxima	19.7
14399	7	Sololá	710	Panajachel	8	Panajachel	1	Enero	2023-01-17T00:00:00	2024-11-08T17:00:00	3	Temperatura mínima	19.4
14400	7	Sololá	710	Panajachel	8	Panajachel	1	Enero	2023-01-17T00:00:00	2024-11-08T17:00:00	5	Humedad	84
14401	7	Sololá	710	Panajachel	8	Panajachel	1	Enero	2023-01-17T00:00:00	2024-11-08T17:00:00	6	Velocidad del viento	3.2
14402	7	Sololá	710	Panajachel	8	Panajachel	1	Enero	2023-01-17T00:00:00	2024-11-08T17:00:00	7	Dirección del viento	3.22
14403	7	Sololá	710	Panajachel	8	Panajachel	1	Enero	2023-01-17T00:00:00	2024-11-08T17:00:00	1	Precipitación	0
14404	7	Sololá	710	Panajachel	8	Panajachel	1	Enero	2023-01-17T00:00:00	2024-11-08T17:00:00	8	Radiación solar	70
14405	7	Sololá	710	Panajachel	8	Panajachel	1	Enero	2023-01-17T00:00:00	2024-11-08T18:00:00	2	Temperatura media	18.6
14406	7	Sololá	710	Panajachel	8	Panajachel	1	Enero	2023-01-17T00:00:00	2024-11-08T18:00:00	4	Temperatura máxima	19.7
14407	7	Sololá	710	Panajachel	8	Panajachel	1	Enero	2023-01-17T00:00:00	2024-11-08T18:00:00	3	Temperatura mínima	18.6
14408	7	Sololá	710	Panajachel	8	Panajachel	1	Enero	2023-01-17T00:00:00	2024-11-08T18:00:00	5	Humedad	86
14409	7	Sololá	710	Panajachel	8	Panajachel	1	Enero	2023-01-17T00:00:00	2024-11-08T18:00:00	6	Velocidad del viento	0
14410	7	Sololá	710	Panajachel	8	Panajachel	1	Enero	2023-01-17T00:00:00	2024-11-08T18:00:00	7	Dirección del viento	0
14411	7	Sololá	710	Panajachel	8	Panajachel	1	Enero	2023-01-17T00:00:00	2024-11-08T18:00:00	1	Precipitación	0
14412	7	Sololá	710	Panajachel	8	Panajachel	1	Enero	2023-01-17T00:00:00	2024-11-08T18:00:00	8	Radiación solar	23
14413	7	Sololá	710	Panajachel	8	Panajachel	1	Enero	2023-01-17T00:00:00	2024-11-08T19:00:00	2	Temperatura media	17.7
14414	7	Sololá	710	Panajachel	8	Panajachel	1	Enero	2023-01-17T00:00:00	2024-11-08T19:00:00	4	Temperatura máxima	18.6
14415	7	Sololá	710	Panajachel	8	Panajachel	1	Enero	2023-01-17T00:00:00	2024-11-08T19:00:00	3	Temperatura mínima	17.7
14416	7	Sololá	710	Panajachel	8	Panajachel	1	Enero	2023-01-17T00:00:00	2024-11-08T19:00:00	5	Humedad	87
14417	7	Sololá	710	Panajachel	8	Panajachel	1	Enero	2023-01-17T00:00:00	2024-11-08T19:00:00	6	Velocidad del viento	0
14418	7	Sololá	710	Panajachel	8	Panajachel	1	Enero	2023-01-17T00:00:00	2024-11-08T19:00:00	7	Dirección del viento	0
14419	7	Sololá	710	Panajachel	8	Panajachel	1	Enero	2023-01-17T00:00:00	2024-11-08T19:00:00	1	Precipitación	0
14420	7	Sololá	710	Panajachel	8	Panajachel	1	Enero	2023-01-17T00:00:00	2024-11-08T19:00:00	8	Radiación solar	0
14421	7	Sololá	710	Panajachel	8	Panajachel	1	Enero	2023-01-17T00:00:00	2024-11-08T20:00:00	2	Temperatura media	16.8
14422	7	Sololá	710	Panajachel	8	Panajachel	1	Enero	2023-01-17T00:00:00	2024-11-08T20:00:00	4	Temperatura máxima	17.7
14423	7	Sololá	710	Panajachel	8	Panajachel	1	Enero	2023-01-17T00:00:00	2024-11-08T20:00:00	3	Temperatura mínima	16.8
14424	7	Sololá	710	Panajachel	8	Panajachel	1	Enero	2023-01-17T00:00:00	2024-11-08T20:00:00	5	Humedad	86
14425	7	Sololá	710	Panajachel	8	Panajachel	1	Enero	2023-01-17T00:00:00	2024-11-08T20:00:00	6	Velocidad del viento	1.6
14426	7	Sololá	710	Panajachel	8	Panajachel	1	Enero	2023-01-17T00:00:00	2024-11-08T20:00:00	7	Dirección del viento	1.61
14427	7	Sololá	710	Panajachel	8	Panajachel	1	Enero	2023-01-17T00:00:00	2024-11-08T20:00:00	1	Precipitación	0
14428	7	Sololá	710	Panajachel	8	Panajachel	1	Enero	2023-01-17T00:00:00	2024-11-08T20:00:00	8	Radiación solar	0
14429	7	Sololá	710	Panajachel	8	Panajachel	1	Enero	2023-01-17T00:00:00	2024-11-08T21:00:00	2	Temperatura media	16.1
14430	7	Sololá	710	Panajachel	8	Panajachel	1	Enero	2023-01-17T00:00:00	2024-11-08T21:00:00	4	Temperatura máxima	16.9
14431	7	Sololá	710	Panajachel	8	Panajachel	1	Enero	2023-01-17T00:00:00	2024-11-08T21:00:00	3	Temperatura mínima	16.1
14432	7	Sololá	710	Panajachel	8	Panajachel	1	Enero	2023-01-17T00:00:00	2024-11-08T21:00:00	5	Humedad	86
14433	7	Sololá	710	Panajachel	8	Panajachel	1	Enero	2023-01-17T00:00:00	2024-11-08T21:00:00	6	Velocidad del viento	1.6
14434	7	Sololá	710	Panajachel	8	Panajachel	1	Enero	2023-01-17T00:00:00	2024-11-08T21:00:00	7	Dirección del viento	1.61
14435	7	Sololá	710	Panajachel	8	Panajachel	1	Enero	2023-01-17T00:00:00	2024-11-08T21:00:00	1	Precipitación	0
14436	7	Sololá	710	Panajachel	8	Panajachel	1	Enero	2023-01-17T00:00:00	2024-11-08T21:00:00	8	Radiación solar	0
14437	7	Sololá	710	Panajachel	8	Panajachel	1	Enero	2023-01-17T00:00:00	2024-11-08T22:00:00	2	Temperatura media	16
14438	7	Sololá	710	Panajachel	8	Panajachel	1	Enero	2023-01-17T00:00:00	2024-11-08T22:00:00	4	Temperatura máxima	16.1
14439	7	Sololá	710	Panajachel	8	Panajachel	1	Enero	2023-01-17T00:00:00	2024-11-08T22:00:00	3	Temperatura mínima	15.8
14440	7	Sololá	710	Panajachel	8	Panajachel	1	Enero	2023-01-17T00:00:00	2024-11-08T22:00:00	5	Humedad	84
14441	7	Sololá	710	Panajachel	8	Panajachel	1	Enero	2023-01-17T00:00:00	2024-11-08T22:00:00	6	Velocidad del viento	6.4
14442	7	Sololá	710	Panajachel	8	Panajachel	1	Enero	2023-01-17T00:00:00	2024-11-08T22:00:00	7	Dirección del viento	6.44
14443	7	Sololá	710	Panajachel	8	Panajachel	1	Enero	2023-01-17T00:00:00	2024-11-08T22:00:00	1	Precipitación	0
14444	7	Sololá	710	Panajachel	8	Panajachel	1	Enero	2023-01-17T00:00:00	2024-11-08T22:00:00	8	Radiación solar	0
14445	7	Sololá	710	Panajachel	8	Panajachel	1	Enero	2023-01-17T00:00:00	2024-11-08T23:00:00	2	Temperatura media	16.1
14446	7	Sololá	710	Panajachel	8	Panajachel	1	Enero	2023-01-17T00:00:00	2024-11-08T23:00:00	4	Temperatura máxima	16.1
14447	7	Sololá	710	Panajachel	8	Panajachel	1	Enero	2023-01-17T00:00:00	2024-11-08T23:00:00	3	Temperatura mínima	15.9
14448	7	Sololá	710	Panajachel	8	Panajachel	1	Enero	2023-01-17T00:00:00	2024-11-08T23:00:00	5	Humedad	82
14449	7	Sololá	710	Panajachel	8	Panajachel	1	Enero	2023-01-17T00:00:00	2024-11-08T23:00:00	6	Velocidad del viento	4.8
14450	7	Sololá	710	Panajachel	8	Panajachel	1	Enero	2023-01-17T00:00:00	2024-11-08T23:00:00	7	Dirección del viento	4.83
14451	7	Sololá	710	Panajachel	8	Panajachel	1	Enero	2023-01-17T00:00:00	2024-11-08T23:00:00	1	Precipitación	0
14452	7	Sololá	710	Panajachel	8	Panajachel	1	Enero	2023-01-17T00:00:00	2024-11-08T23:00:00	8	Radiación solar	0
14453	7	Sololá	710	Panajachel	8	Panajachel	1	Enero	2023-01-18T00:00:00	2024-11-08T00:00:00	2	Temperatura media	16.4
14454	7	Sololá	710	Panajachel	8	Panajachel	1	Enero	2023-01-18T00:00:00	2024-11-08T00:00:00	4	Temperatura máxima	16.5
14455	7	Sololá	710	Panajachel	8	Panajachel	1	Enero	2023-01-18T00:00:00	2024-11-08T00:00:00	3	Temperatura mínima	15.9
14456	7	Sololá	710	Panajachel	8	Panajachel	1	Enero	2023-01-18T00:00:00	2024-11-08T00:00:00	5	Humedad	82
14457	7	Sololá	710	Panajachel	8	Panajachel	1	Enero	2023-01-18T00:00:00	2024-11-08T00:00:00	6	Velocidad del viento	3.2
14458	7	Sololá	710	Panajachel	8	Panajachel	1	Enero	2023-01-18T00:00:00	2024-11-08T00:00:00	7	Dirección del viento	3.22
14459	7	Sololá	710	Panajachel	8	Panajachel	1	Enero	2023-01-18T00:00:00	2024-11-08T00:00:00	1	Precipitación	0
14460	7	Sololá	710	Panajachel	8	Panajachel	1	Enero	2023-01-18T00:00:00	2024-11-08T00:00:00	8	Radiación solar	0
14461	7	Sololá	710	Panajachel	8	Panajachel	1	Enero	2023-01-18T00:00:00	2024-11-08T01:00:00	2	Temperatura media	16.6
14462	7	Sololá	710	Panajachel	8	Panajachel	1	Enero	2023-01-18T00:00:00	2024-11-08T01:00:00	4	Temperatura máxima	16.6
14463	7	Sololá	710	Panajachel	8	Panajachel	1	Enero	2023-01-18T00:00:00	2024-11-08T01:00:00	3	Temperatura mínima	16.4
14464	7	Sololá	710	Panajachel	8	Panajachel	1	Enero	2023-01-18T00:00:00	2024-11-08T01:00:00	5	Humedad	87
14465	7	Sololá	710	Panajachel	8	Panajachel	1	Enero	2023-01-18T00:00:00	2024-11-08T01:00:00	6	Velocidad del viento	1.6
14466	7	Sololá	710	Panajachel	8	Panajachel	1	Enero	2023-01-18T00:00:00	2024-11-08T01:00:00	7	Dirección del viento	1.61
14467	7	Sololá	710	Panajachel	8	Panajachel	1	Enero	2023-01-18T00:00:00	2024-11-08T01:00:00	1	Precipitación	0
14468	7	Sololá	710	Panajachel	8	Panajachel	1	Enero	2023-01-18T00:00:00	2024-11-08T01:00:00	8	Radiación solar	0
14469	7	Sololá	710	Panajachel	8	Panajachel	1	Enero	2023-01-18T00:00:00	2024-11-08T02:00:00	2	Temperatura media	15.1
14470	7	Sololá	710	Panajachel	8	Panajachel	1	Enero	2023-01-18T00:00:00	2024-11-08T02:00:00	4	Temperatura máxima	16.7
14471	7	Sololá	710	Panajachel	8	Panajachel	1	Enero	2023-01-18T00:00:00	2024-11-08T02:00:00	3	Temperatura mínima	15.1
14472	7	Sololá	710	Panajachel	8	Panajachel	1	Enero	2023-01-18T00:00:00	2024-11-08T02:00:00	5	Humedad	85
14473	7	Sololá	710	Panajachel	8	Panajachel	1	Enero	2023-01-18T00:00:00	2024-11-08T02:00:00	6	Velocidad del viento	0
14474	7	Sololá	710	Panajachel	8	Panajachel	1	Enero	2023-01-18T00:00:00	2024-11-08T02:00:00	7	Dirección del viento	0
14475	7	Sololá	710	Panajachel	8	Panajachel	1	Enero	2023-01-18T00:00:00	2024-11-08T02:00:00	1	Precipitación	0
14476	7	Sololá	710	Panajachel	8	Panajachel	1	Enero	2023-01-18T00:00:00	2024-11-08T02:00:00	8	Radiación solar	0
14477	7	Sololá	710	Panajachel	8	Panajachel	1	Enero	2023-01-18T00:00:00	2024-11-08T03:00:00	2	Temperatura media	14.6
14478	7	Sololá	710	Panajachel	8	Panajachel	1	Enero	2023-01-18T00:00:00	2024-11-08T03:00:00	4	Temperatura máxima	15.2
14479	7	Sololá	710	Panajachel	8	Panajachel	1	Enero	2023-01-18T00:00:00	2024-11-08T03:00:00	3	Temperatura mínima	14.5
14480	7	Sololá	710	Panajachel	8	Panajachel	1	Enero	2023-01-18T00:00:00	2024-11-08T03:00:00	5	Humedad	84
14481	7	Sololá	710	Panajachel	8	Panajachel	1	Enero	2023-01-18T00:00:00	2024-11-08T03:00:00	6	Velocidad del viento	1.6
14482	7	Sololá	710	Panajachel	8	Panajachel	1	Enero	2023-01-18T00:00:00	2024-11-08T03:00:00	7	Dirección del viento	1.61
14483	7	Sololá	710	Panajachel	8	Panajachel	1	Enero	2023-01-18T00:00:00	2024-11-08T03:00:00	1	Precipitación	0
14484	7	Sololá	710	Panajachel	8	Panajachel	1	Enero	2023-01-18T00:00:00	2024-11-08T03:00:00	8	Radiación solar	0
14485	7	Sololá	710	Panajachel	8	Panajachel	1	Enero	2023-01-18T00:00:00	2024-11-08T04:00:00	2	Temperatura media	14.3
14486	7	Sololá	710	Panajachel	8	Panajachel	1	Enero	2023-01-18T00:00:00	2024-11-08T04:00:00	4	Temperatura máxima	14.6
14487	7	Sololá	710	Panajachel	8	Panajachel	1	Enero	2023-01-18T00:00:00	2024-11-08T04:00:00	3	Temperatura mínima	14.2
14488	7	Sololá	710	Panajachel	8	Panajachel	1	Enero	2023-01-18T00:00:00	2024-11-08T04:00:00	5	Humedad	82
14489	7	Sololá	710	Panajachel	8	Panajachel	1	Enero	2023-01-18T00:00:00	2024-11-08T04:00:00	6	Velocidad del viento	4.8
14490	7	Sololá	710	Panajachel	8	Panajachel	1	Enero	2023-01-18T00:00:00	2024-11-08T04:00:00	7	Dirección del viento	4.83
14491	7	Sololá	710	Panajachel	8	Panajachel	1	Enero	2023-01-18T00:00:00	2024-11-08T04:00:00	1	Precipitación	0
14492	7	Sololá	710	Panajachel	8	Panajachel	1	Enero	2023-01-18T00:00:00	2024-11-08T04:00:00	8	Radiación solar	0
14493	7	Sololá	710	Panajachel	8	Panajachel	1	Enero	2023-01-18T00:00:00	2024-11-08T05:00:00	2	Temperatura media	13.7
14494	7	Sololá	710	Panajachel	8	Panajachel	1	Enero	2023-01-18T00:00:00	2024-11-08T05:00:00	4	Temperatura máxima	14.4
14495	7	Sololá	710	Panajachel	8	Panajachel	1	Enero	2023-01-18T00:00:00	2024-11-08T05:00:00	3	Temperatura mínima	13.6
14496	7	Sololá	710	Panajachel	8	Panajachel	1	Enero	2023-01-18T00:00:00	2024-11-08T05:00:00	5	Humedad	82
14497	7	Sololá	710	Panajachel	8	Panajachel	1	Enero	2023-01-18T00:00:00	2024-11-08T05:00:00	6	Velocidad del viento	4.8
14498	7	Sololá	710	Panajachel	8	Panajachel	1	Enero	2023-01-18T00:00:00	2024-11-08T05:00:00	7	Dirección del viento	4.83
14499	7	Sololá	710	Panajachel	8	Panajachel	1	Enero	2023-01-18T00:00:00	2024-11-08T05:00:00	1	Precipitación	0
14500	7	Sololá	710	Panajachel	8	Panajachel	1	Enero	2023-01-18T00:00:00	2024-11-08T05:00:00	8	Radiación solar	0
14501	7	Sololá	710	Panajachel	8	Panajachel	1	Enero	2023-01-18T00:00:00	2024-11-08T06:00:00	2	Temperatura media	13.4
14502	7	Sololá	710	Panajachel	8	Panajachel	1	Enero	2023-01-18T00:00:00	2024-11-08T06:00:00	4	Temperatura máxima	13.8
14503	7	Sololá	710	Panajachel	8	Panajachel	1	Enero	2023-01-18T00:00:00	2024-11-08T06:00:00	3	Temperatura mínima	13.4
14504	7	Sololá	710	Panajachel	8	Panajachel	1	Enero	2023-01-18T00:00:00	2024-11-08T06:00:00	5	Humedad	82
14505	7	Sololá	710	Panajachel	8	Panajachel	1	Enero	2023-01-18T00:00:00	2024-11-08T06:00:00	6	Velocidad del viento	4.8
14506	7	Sololá	710	Panajachel	8	Panajachel	1	Enero	2023-01-18T00:00:00	2024-11-08T06:00:00	7	Dirección del viento	4.83
14507	7	Sololá	710	Panajachel	8	Panajachel	1	Enero	2023-01-18T00:00:00	2024-11-08T06:00:00	1	Precipitación	0
14508	7	Sololá	710	Panajachel	8	Panajachel	1	Enero	2023-01-18T00:00:00	2024-11-08T06:00:00	8	Radiación solar	0
14509	7	Sololá	710	Panajachel	8	Panajachel	1	Enero	2023-01-18T00:00:00	2024-11-08T07:00:00	2	Temperatura media	13.4
14510	7	Sololá	710	Panajachel	8	Panajachel	1	Enero	2023-01-18T00:00:00	2024-11-08T07:00:00	4	Temperatura máxima	13.6
14511	7	Sololá	710	Panajachel	8	Panajachel	1	Enero	2023-01-18T00:00:00	2024-11-08T07:00:00	3	Temperatura mínima	13.3
14512	7	Sololá	710	Panajachel	8	Panajachel	1	Enero	2023-01-18T00:00:00	2024-11-08T07:00:00	5	Humedad	82
14513	7	Sololá	710	Panajachel	8	Panajachel	1	Enero	2023-01-18T00:00:00	2024-11-08T07:00:00	6	Velocidad del viento	4.8
14514	7	Sololá	710	Panajachel	8	Panajachel	1	Enero	2023-01-18T00:00:00	2024-11-08T07:00:00	7	Dirección del viento	4.83
14515	7	Sololá	710	Panajachel	8	Panajachel	1	Enero	2023-01-18T00:00:00	2024-11-08T07:00:00	1	Precipitación	0
14516	7	Sololá	710	Panajachel	8	Panajachel	1	Enero	2023-01-18T00:00:00	2024-11-08T07:00:00	8	Radiación solar	5
14517	7	Sololá	710	Panajachel	8	Panajachel	1	Enero	2023-01-18T00:00:00	2024-11-08T08:00:00	2	Temperatura media	14.8
14518	7	Sololá	710	Panajachel	8	Panajachel	1	Enero	2023-01-18T00:00:00	2024-11-08T08:00:00	4	Temperatura máxima	14.8
14519	7	Sololá	710	Panajachel	8	Panajachel	1	Enero	2023-01-18T00:00:00	2024-11-08T08:00:00	3	Temperatura mínima	13.4
14520	7	Sololá	710	Panajachel	8	Panajachel	1	Enero	2023-01-18T00:00:00	2024-11-08T08:00:00	5	Humedad	80
14521	7	Sololá	710	Panajachel	8	Panajachel	1	Enero	2023-01-18T00:00:00	2024-11-08T08:00:00	6	Velocidad del viento	3.2
14522	7	Sololá	710	Panajachel	8	Panajachel	1	Enero	2023-01-18T00:00:00	2024-11-08T08:00:00	7	Dirección del viento	3.22
14523	7	Sololá	710	Panajachel	8	Panajachel	1	Enero	2023-01-18T00:00:00	2024-11-08T08:00:00	1	Precipitación	0
14524	7	Sololá	710	Panajachel	8	Panajachel	1	Enero	2023-01-18T00:00:00	2024-11-08T08:00:00	8	Radiación solar	64
14525	7	Sololá	710	Panajachel	8	Panajachel	1	Enero	2023-01-18T00:00:00	2024-11-08T09:00:00	2	Temperatura media	17.8
14526	7	Sololá	710	Panajachel	8	Panajachel	1	Enero	2023-01-18T00:00:00	2024-11-08T09:00:00	4	Temperatura máxima	17.9
14527	7	Sololá	710	Panajachel	8	Panajachel	1	Enero	2023-01-18T00:00:00	2024-11-08T09:00:00	3	Temperatura mínima	14.8
14528	7	Sololá	710	Panajachel	8	Panajachel	1	Enero	2023-01-18T00:00:00	2024-11-08T09:00:00	5	Humedad	75
14529	7	Sololá	710	Panajachel	8	Panajachel	1	Enero	2023-01-18T00:00:00	2024-11-08T09:00:00	6	Velocidad del viento	1.6
14530	7	Sololá	710	Panajachel	8	Panajachel	1	Enero	2023-01-18T00:00:00	2024-11-08T09:00:00	7	Dirección del viento	1.61
14531	7	Sololá	710	Panajachel	8	Panajachel	1	Enero	2023-01-18T00:00:00	2024-11-08T09:00:00	1	Precipitación	0
14532	7	Sololá	710	Panajachel	8	Panajachel	1	Enero	2023-01-18T00:00:00	2024-11-08T09:00:00	8	Radiación solar	333
14533	7	Sololá	710	Panajachel	8	Panajachel	1	Enero	2023-01-18T00:00:00	2024-11-08T10:00:00	2	Temperatura media	19.2
14534	7	Sololá	710	Panajachel	8	Panajachel	1	Enero	2023-01-18T00:00:00	2024-11-08T10:00:00	4	Temperatura máxima	19.2
14535	7	Sololá	710	Panajachel	8	Panajachel	1	Enero	2023-01-18T00:00:00	2024-11-08T10:00:00	3	Temperatura mínima	17.8
14536	7	Sololá	710	Panajachel	8	Panajachel	1	Enero	2023-01-18T00:00:00	2024-11-08T10:00:00	5	Humedad	73
14537	7	Sololá	710	Panajachel	8	Panajachel	1	Enero	2023-01-18T00:00:00	2024-11-08T10:00:00	6	Velocidad del viento	3.2
14538	7	Sololá	710	Panajachel	8	Panajachel	1	Enero	2023-01-18T00:00:00	2024-11-08T10:00:00	7	Dirección del viento	3.22
14539	7	Sololá	710	Panajachel	8	Panajachel	1	Enero	2023-01-18T00:00:00	2024-11-08T10:00:00	1	Precipitación	0
14540	7	Sololá	710	Panajachel	8	Panajachel	1	Enero	2023-01-18T00:00:00	2024-11-08T10:00:00	8	Radiación solar	544
14541	7	Sololá	710	Panajachel	8	Panajachel	1	Enero	2023-01-18T00:00:00	2024-11-08T11:00:00	2	Temperatura media	20.1
14542	7	Sololá	710	Panajachel	8	Panajachel	1	Enero	2023-01-18T00:00:00	2024-11-08T11:00:00	4	Temperatura máxima	20.1
14543	7	Sololá	710	Panajachel	8	Panajachel	1	Enero	2023-01-18T00:00:00	2024-11-08T11:00:00	3	Temperatura mínima	19.2
14544	7	Sololá	710	Panajachel	8	Panajachel	1	Enero	2023-01-18T00:00:00	2024-11-08T11:00:00	5	Humedad	72
14545	7	Sololá	710	Panajachel	8	Panajachel	1	Enero	2023-01-18T00:00:00	2024-11-08T11:00:00	6	Velocidad del viento	3.2
14546	7	Sololá	710	Panajachel	8	Panajachel	1	Enero	2023-01-18T00:00:00	2024-11-08T11:00:00	7	Dirección del viento	3.22
14547	7	Sololá	710	Panajachel	8	Panajachel	1	Enero	2023-01-18T00:00:00	2024-11-08T11:00:00	1	Precipitación	0
14548	7	Sololá	710	Panajachel	8	Panajachel	1	Enero	2023-01-18T00:00:00	2024-11-08T11:00:00	8	Radiación solar	702
14549	7	Sololá	710	Panajachel	8	Panajachel	1	Enero	2023-01-18T00:00:00	2024-11-08T12:00:00	2	Temperatura media	21.3
14550	7	Sololá	710	Panajachel	8	Panajachel	1	Enero	2023-01-18T00:00:00	2024-11-08T12:00:00	4	Temperatura máxima	21.3
14551	7	Sololá	710	Panajachel	8	Panajachel	1	Enero	2023-01-18T00:00:00	2024-11-08T12:00:00	3	Temperatura mínima	20.1
14552	7	Sololá	710	Panajachel	8	Panajachel	1	Enero	2023-01-18T00:00:00	2024-11-08T12:00:00	5	Humedad	72
14553	7	Sololá	710	Panajachel	8	Panajachel	1	Enero	2023-01-18T00:00:00	2024-11-08T12:00:00	6	Velocidad del viento	3.2
14554	7	Sololá	710	Panajachel	8	Panajachel	1	Enero	2023-01-18T00:00:00	2024-11-08T12:00:00	7	Dirección del viento	3.22
14555	7	Sololá	710	Panajachel	8	Panajachel	1	Enero	2023-01-18T00:00:00	2024-11-08T12:00:00	1	Precipitación	0
14556	7	Sololá	710	Panajachel	8	Panajachel	1	Enero	2023-01-18T00:00:00	2024-11-08T12:00:00	8	Radiación solar	783
14557	7	Sololá	710	Panajachel	8	Panajachel	1	Enero	2023-01-18T00:00:00	2024-11-08T13:00:00	2	Temperatura media	22.8
14558	7	Sololá	710	Panajachel	8	Panajachel	1	Enero	2023-01-18T00:00:00	2024-11-08T13:00:00	4	Temperatura máxima	22.8
14559	7	Sololá	710	Panajachel	8	Panajachel	1	Enero	2023-01-18T00:00:00	2024-11-08T13:00:00	3	Temperatura mínima	21.3
14560	7	Sololá	710	Panajachel	8	Panajachel	1	Enero	2023-01-18T00:00:00	2024-11-08T13:00:00	5	Humedad	71
14561	7	Sololá	710	Panajachel	8	Panajachel	1	Enero	2023-01-18T00:00:00	2024-11-08T13:00:00	6	Velocidad del viento	4.8
14562	7	Sololá	710	Panajachel	8	Panajachel	1	Enero	2023-01-18T00:00:00	2024-11-08T13:00:00	7	Dirección del viento	4.83
14563	7	Sololá	710	Panajachel	8	Panajachel	1	Enero	2023-01-18T00:00:00	2024-11-08T13:00:00	1	Precipitación	0
14564	7	Sololá	710	Panajachel	8	Panajachel	1	Enero	2023-01-18T00:00:00	2024-11-08T13:00:00	8	Radiación solar	802
14565	7	Sololá	710	Panajachel	8	Panajachel	1	Enero	2023-01-18T00:00:00	2024-11-08T14:00:00	2	Temperatura media	21.7
14566	7	Sololá	710	Panajachel	8	Panajachel	1	Enero	2023-01-18T00:00:00	2024-11-08T14:00:00	4	Temperatura máxima	23.1
14567	7	Sololá	710	Panajachel	8	Panajachel	1	Enero	2023-01-18T00:00:00	2024-11-08T14:00:00	3	Temperatura mínima	21.7
14568	7	Sololá	710	Panajachel	8	Panajachel	1	Enero	2023-01-18T00:00:00	2024-11-08T14:00:00	5	Humedad	75
14569	7	Sololá	710	Panajachel	8	Panajachel	1	Enero	2023-01-18T00:00:00	2024-11-08T14:00:00	6	Velocidad del viento	4.8
14570	7	Sololá	710	Panajachel	8	Panajachel	1	Enero	2023-01-18T00:00:00	2024-11-08T14:00:00	7	Dirección del viento	4.83
14571	7	Sololá	710	Panajachel	8	Panajachel	1	Enero	2023-01-18T00:00:00	2024-11-08T14:00:00	1	Precipitación	0
14572	7	Sololá	710	Panajachel	8	Panajachel	1	Enero	2023-01-18T00:00:00	2024-11-08T14:00:00	8	Radiación solar	710
14573	7	Sololá	710	Panajachel	8	Panajachel	1	Enero	2023-01-18T00:00:00	2024-11-08T15:00:00	2	Temperatura media	20.9
14574	7	Sololá	710	Panajachel	8	Panajachel	1	Enero	2023-01-18T00:00:00	2024-11-08T15:00:00	4	Temperatura máxima	22.2
14575	7	Sololá	710	Panajachel	8	Panajachel	1	Enero	2023-01-18T00:00:00	2024-11-08T15:00:00	3	Temperatura mínima	20.8
14576	7	Sololá	710	Panajachel	8	Panajachel	1	Enero	2023-01-18T00:00:00	2024-11-08T15:00:00	5	Humedad	81
14577	7	Sololá	710	Panajachel	8	Panajachel	1	Enero	2023-01-18T00:00:00	2024-11-08T15:00:00	6	Velocidad del viento	1.6
14578	7	Sololá	710	Panajachel	8	Panajachel	1	Enero	2023-01-18T00:00:00	2024-11-08T15:00:00	7	Dirección del viento	1.61
14579	7	Sololá	710	Panajachel	8	Panajachel	1	Enero	2023-01-18T00:00:00	2024-11-08T15:00:00	1	Precipitación	0
14580	7	Sololá	710	Panajachel	8	Panajachel	1	Enero	2023-01-18T00:00:00	2024-11-08T15:00:00	8	Radiación solar	334
14581	7	Sololá	710	Panajachel	8	Panajachel	1	Enero	2023-01-18T00:00:00	2024-11-08T16:00:00	2	Temperatura media	20.2
14582	7	Sololá	710	Panajachel	8	Panajachel	1	Enero	2023-01-18T00:00:00	2024-11-08T16:00:00	4	Temperatura máxima	21.1
14583	7	Sololá	710	Panajachel	8	Panajachel	1	Enero	2023-01-18T00:00:00	2024-11-08T16:00:00	3	Temperatura mínima	20.2
14584	7	Sololá	710	Panajachel	8	Panajachel	1	Enero	2023-01-18T00:00:00	2024-11-08T16:00:00	5	Humedad	82
14585	7	Sololá	710	Panajachel	8	Panajachel	1	Enero	2023-01-18T00:00:00	2024-11-08T16:00:00	6	Velocidad del viento	1.6
14586	7	Sololá	710	Panajachel	8	Panajachel	1	Enero	2023-01-18T00:00:00	2024-11-08T16:00:00	7	Dirección del viento	1.61
14587	7	Sololá	710	Panajachel	8	Panajachel	1	Enero	2023-01-18T00:00:00	2024-11-08T16:00:00	1	Precipitación	0
14588	7	Sololá	710	Panajachel	8	Panajachel	1	Enero	2023-01-18T00:00:00	2024-11-08T16:00:00	8	Radiación solar	209
14589	7	Sololá	710	Panajachel	8	Panajachel	1	Enero	2023-01-18T00:00:00	2024-11-08T17:00:00	2	Temperatura media	19.5
14590	7	Sololá	710	Panajachel	8	Panajachel	1	Enero	2023-01-18T00:00:00	2024-11-08T17:00:00	4	Temperatura máxima	20.2
14591	7	Sololá	710	Panajachel	8	Panajachel	1	Enero	2023-01-18T00:00:00	2024-11-08T17:00:00	3	Temperatura mínima	19.5
14592	7	Sololá	710	Panajachel	8	Panajachel	1	Enero	2023-01-18T00:00:00	2024-11-08T17:00:00	5	Humedad	83
14593	7	Sololá	710	Panajachel	8	Panajachel	1	Enero	2023-01-18T00:00:00	2024-11-08T17:00:00	6	Velocidad del viento	0
14594	7	Sololá	710	Panajachel	8	Panajachel	1	Enero	2023-01-18T00:00:00	2024-11-08T17:00:00	7	Dirección del viento	0
14595	7	Sololá	710	Panajachel	8	Panajachel	1	Enero	2023-01-18T00:00:00	2024-11-08T17:00:00	1	Precipitación	0
14596	7	Sololá	710	Panajachel	8	Panajachel	1	Enero	2023-01-18T00:00:00	2024-11-08T17:00:00	8	Radiación solar	63
14597	7	Sololá	710	Panajachel	8	Panajachel	1	Enero	2023-01-18T00:00:00	2024-11-08T18:00:00	2	Temperatura media	18.7
14598	7	Sololá	710	Panajachel	8	Panajachel	1	Enero	2023-01-18T00:00:00	2024-11-08T18:00:00	4	Temperatura máxima	19.5
14599	7	Sololá	710	Panajachel	8	Panajachel	1	Enero	2023-01-18T00:00:00	2024-11-08T18:00:00	3	Temperatura mínima	18.7
14600	7	Sololá	710	Panajachel	8	Panajachel	1	Enero	2023-01-18T00:00:00	2024-11-08T18:00:00	5	Humedad	87
14601	7	Sololá	710	Panajachel	8	Panajachel	1	Enero	2023-01-18T00:00:00	2024-11-08T18:00:00	6	Velocidad del viento	0
14602	7	Sololá	710	Panajachel	8	Panajachel	1	Enero	2023-01-18T00:00:00	2024-11-08T18:00:00	7	Dirección del viento	0
14603	7	Sololá	710	Panajachel	8	Panajachel	1	Enero	2023-01-18T00:00:00	2024-11-08T18:00:00	1	Precipitación	0
14604	7	Sololá	710	Panajachel	8	Panajachel	1	Enero	2023-01-18T00:00:00	2024-11-08T18:00:00	8	Radiación solar	10
14605	7	Sololá	710	Panajachel	8	Panajachel	1	Enero	2023-01-18T00:00:00	2024-11-08T19:00:00	2	Temperatura media	18.2
14606	7	Sololá	710	Panajachel	8	Panajachel	1	Enero	2023-01-18T00:00:00	2024-11-08T19:00:00	4	Temperatura máxima	18.7
14607	7	Sololá	710	Panajachel	8	Panajachel	1	Enero	2023-01-18T00:00:00	2024-11-08T19:00:00	3	Temperatura mínima	18.1
14608	7	Sololá	710	Panajachel	8	Panajachel	1	Enero	2023-01-18T00:00:00	2024-11-08T19:00:00	5	Humedad	86
14609	7	Sololá	710	Panajachel	8	Panajachel	1	Enero	2023-01-18T00:00:00	2024-11-08T19:00:00	6	Velocidad del viento	0
14610	7	Sololá	710	Panajachel	8	Panajachel	1	Enero	2023-01-18T00:00:00	2024-11-08T19:00:00	7	Dirección del viento	0
14611	7	Sololá	710	Panajachel	8	Panajachel	1	Enero	2023-01-18T00:00:00	2024-11-08T19:00:00	1	Precipitación	0
14612	7	Sololá	710	Panajachel	8	Panajachel	1	Enero	2023-01-18T00:00:00	2024-11-08T19:00:00	8	Radiación solar	0
14613	7	Sololá	710	Panajachel	8	Panajachel	1	Enero	2023-01-18T00:00:00	2024-11-08T20:00:00	2	Temperatura media	17.9
14614	7	Sololá	710	Panajachel	8	Panajachel	1	Enero	2023-01-18T00:00:00	2024-11-08T20:00:00	4	Temperatura máxima	18.2
14615	7	Sololá	710	Panajachel	8	Panajachel	1	Enero	2023-01-18T00:00:00	2024-11-08T20:00:00	3	Temperatura mínima	17.8
14616	7	Sololá	710	Panajachel	8	Panajachel	1	Enero	2023-01-18T00:00:00	2024-11-08T20:00:00	5	Humedad	88
14617	7	Sololá	710	Panajachel	8	Panajachel	1	Enero	2023-01-18T00:00:00	2024-11-08T20:00:00	6	Velocidad del viento	0
14618	7	Sololá	710	Panajachel	8	Panajachel	1	Enero	2023-01-18T00:00:00	2024-11-08T20:00:00	7	Dirección del viento	0
14619	7	Sololá	710	Panajachel	8	Panajachel	1	Enero	2023-01-18T00:00:00	2024-11-08T20:00:00	1	Precipitación	0
14620	7	Sololá	710	Panajachel	8	Panajachel	1	Enero	2023-01-18T00:00:00	2024-11-08T20:00:00	8	Radiación solar	0
14621	7	Sololá	710	Panajachel	8	Panajachel	1	Enero	2023-01-18T00:00:00	2024-11-08T21:00:00	2	Temperatura media	17.6
14622	7	Sololá	710	Panajachel	8	Panajachel	1	Enero	2023-01-18T00:00:00	2024-11-08T21:00:00	4	Temperatura máxima	17.9
14623	7	Sololá	710	Panajachel	8	Panajachel	1	Enero	2023-01-18T00:00:00	2024-11-08T21:00:00	3	Temperatura mínima	17.6
14624	7	Sololá	710	Panajachel	8	Panajachel	1	Enero	2023-01-18T00:00:00	2024-11-08T21:00:00	5	Humedad	89
14625	7	Sololá	710	Panajachel	8	Panajachel	1	Enero	2023-01-18T00:00:00	2024-11-08T21:00:00	6	Velocidad del viento	0
14626	7	Sololá	710	Panajachel	8	Panajachel	1	Enero	2023-01-18T00:00:00	2024-11-08T21:00:00	7	Dirección del viento	0
14627	7	Sololá	710	Panajachel	8	Panajachel	1	Enero	2023-01-18T00:00:00	2024-11-08T21:00:00	1	Precipitación	0
14628	7	Sololá	710	Panajachel	8	Panajachel	1	Enero	2023-01-18T00:00:00	2024-11-08T21:00:00	8	Radiación solar	0
14629	7	Sololá	710	Panajachel	8	Panajachel	1	Enero	2023-01-18T00:00:00	2024-11-08T22:00:00	2	Temperatura media	16.7
14630	7	Sololá	710	Panajachel	8	Panajachel	1	Enero	2023-01-18T00:00:00	2024-11-08T22:00:00	4	Temperatura máxima	17.7
14631	7	Sololá	710	Panajachel	8	Panajachel	1	Enero	2023-01-18T00:00:00	2024-11-08T22:00:00	3	Temperatura mínima	16.7
14632	7	Sololá	710	Panajachel	8	Panajachel	1	Enero	2023-01-18T00:00:00	2024-11-08T22:00:00	5	Humedad	88
14633	7	Sololá	710	Panajachel	8	Panajachel	1	Enero	2023-01-18T00:00:00	2024-11-08T22:00:00	6	Velocidad del viento	0
14634	7	Sololá	710	Panajachel	8	Panajachel	1	Enero	2023-01-18T00:00:00	2024-11-08T22:00:00	7	Dirección del viento	0
14635	7	Sololá	710	Panajachel	8	Panajachel	1	Enero	2023-01-18T00:00:00	2024-11-08T22:00:00	1	Precipitación	0
14636	7	Sololá	710	Panajachel	8	Panajachel	1	Enero	2023-01-18T00:00:00	2024-11-08T22:00:00	8	Radiación solar	0
14637	7	Sololá	710	Panajachel	8	Panajachel	1	Enero	2023-01-18T00:00:00	2024-11-08T23:00:00	2	Temperatura media	15.7
14638	7	Sololá	710	Panajachel	8	Panajachel	1	Enero	2023-01-18T00:00:00	2024-11-08T23:00:00	4	Temperatura máxima	16.7
14639	7	Sololá	710	Panajachel	8	Panajachel	1	Enero	2023-01-18T00:00:00	2024-11-08T23:00:00	3	Temperatura mínima	15.7
14640	7	Sololá	710	Panajachel	8	Panajachel	1	Enero	2023-01-18T00:00:00	2024-11-08T23:00:00	5	Humedad	85
14641	7	Sololá	710	Panajachel	8	Panajachel	1	Enero	2023-01-18T00:00:00	2024-11-08T23:00:00	6	Velocidad del viento	3.2
14642	7	Sololá	710	Panajachel	8	Panajachel	1	Enero	2023-01-18T00:00:00	2024-11-08T23:00:00	7	Dirección del viento	3.22
14643	7	Sololá	710	Panajachel	8	Panajachel	1	Enero	2023-01-18T00:00:00	2024-11-08T23:00:00	1	Precipitación	0
14644	7	Sololá	710	Panajachel	8	Panajachel	1	Enero	2023-01-18T00:00:00	2024-11-08T23:00:00	8	Radiación solar	0
14645	7	Sololá	710	Panajachel	8	Panajachel	1	Enero	2023-01-19T00:00:00	2024-11-08T00:00:00	2	Temperatura media	14.8
14646	7	Sololá	710	Panajachel	8	Panajachel	1	Enero	2023-01-19T00:00:00	2024-11-08T00:00:00	4	Temperatura máxima	15.8
14647	7	Sololá	710	Panajachel	8	Panajachel	1	Enero	2023-01-19T00:00:00	2024-11-08T00:00:00	3	Temperatura mínima	14.8
14648	7	Sololá	710	Panajachel	8	Panajachel	1	Enero	2023-01-19T00:00:00	2024-11-08T00:00:00	5	Humedad	84
14649	7	Sololá	710	Panajachel	8	Panajachel	1	Enero	2023-01-19T00:00:00	2024-11-08T00:00:00	6	Velocidad del viento	4.8
14650	7	Sololá	710	Panajachel	8	Panajachel	1	Enero	2023-01-19T00:00:00	2024-11-08T00:00:00	7	Dirección del viento	4.83
14651	7	Sololá	710	Panajachel	8	Panajachel	1	Enero	2023-01-19T00:00:00	2024-11-08T00:00:00	1	Precipitación	0
14652	7	Sololá	710	Panajachel	8	Panajachel	1	Enero	2023-01-19T00:00:00	2024-11-08T00:00:00	8	Radiación solar	0
14653	7	Sololá	710	Panajachel	8	Panajachel	1	Enero	2023-01-19T00:00:00	2024-11-08T01:00:00	2	Temperatura media	14.6
14654	7	Sololá	710	Panajachel	8	Panajachel	1	Enero	2023-01-19T00:00:00	2024-11-08T01:00:00	4	Temperatura máxima	14.9
14655	7	Sololá	710	Panajachel	8	Panajachel	1	Enero	2023-01-19T00:00:00	2024-11-08T01:00:00	3	Temperatura mínima	14.4
14656	7	Sololá	710	Panajachel	8	Panajachel	1	Enero	2023-01-19T00:00:00	2024-11-08T01:00:00	5	Humedad	82
14657	7	Sololá	710	Panajachel	8	Panajachel	1	Enero	2023-01-19T00:00:00	2024-11-08T01:00:00	6	Velocidad del viento	6.4
14658	7	Sololá	710	Panajachel	8	Panajachel	1	Enero	2023-01-19T00:00:00	2024-11-08T01:00:00	7	Dirección del viento	6.44
14659	7	Sololá	710	Panajachel	8	Panajachel	1	Enero	2023-01-19T00:00:00	2024-11-08T01:00:00	1	Precipitación	0
14660	7	Sololá	710	Panajachel	8	Panajachel	1	Enero	2023-01-19T00:00:00	2024-11-08T01:00:00	8	Radiación solar	0
14661	7	Sololá	710	Panajachel	8	Panajachel	1	Enero	2023-01-19T00:00:00	2024-11-08T02:00:00	2	Temperatura media	13.8
14662	7	Sololá	710	Panajachel	8	Panajachel	1	Enero	2023-01-19T00:00:00	2024-11-08T02:00:00	4	Temperatura máxima	14.7
14663	7	Sololá	710	Panajachel	8	Panajachel	1	Enero	2023-01-19T00:00:00	2024-11-08T02:00:00	3	Temperatura mínima	13.8
14664	7	Sololá	710	Panajachel	8	Panajachel	1	Enero	2023-01-19T00:00:00	2024-11-08T02:00:00	5	Humedad	82
14665	7	Sololá	710	Panajachel	8	Panajachel	1	Enero	2023-01-19T00:00:00	2024-11-08T02:00:00	6	Velocidad del viento	6.4
14666	7	Sololá	710	Panajachel	8	Panajachel	1	Enero	2023-01-19T00:00:00	2024-11-08T02:00:00	7	Dirección del viento	6.44
14667	7	Sololá	710	Panajachel	8	Panajachel	1	Enero	2023-01-19T00:00:00	2024-11-08T02:00:00	1	Precipitación	0
14668	7	Sololá	710	Panajachel	8	Panajachel	1	Enero	2023-01-19T00:00:00	2024-11-08T02:00:00	8	Radiación solar	0
14669	7	Sololá	710	Panajachel	8	Panajachel	1	Enero	2023-01-19T00:00:00	2024-11-08T03:00:00	2	Temperatura media	13.2
14670	7	Sololá	710	Panajachel	8	Panajachel	1	Enero	2023-01-19T00:00:00	2024-11-08T03:00:00	4	Temperatura máxima	13.9
14671	7	Sololá	710	Panajachel	8	Panajachel	1	Enero	2023-01-19T00:00:00	2024-11-08T03:00:00	3	Temperatura mínima	13.1
14672	7	Sololá	710	Panajachel	8	Panajachel	1	Enero	2023-01-19T00:00:00	2024-11-08T03:00:00	5	Humedad	78
14673	7	Sololá	710	Panajachel	8	Panajachel	1	Enero	2023-01-19T00:00:00	2024-11-08T03:00:00	6	Velocidad del viento	6.4
14674	7	Sololá	710	Panajachel	8	Panajachel	1	Enero	2023-01-19T00:00:00	2024-11-08T03:00:00	7	Dirección del viento	6.44
14675	7	Sololá	710	Panajachel	8	Panajachel	1	Enero	2023-01-19T00:00:00	2024-11-08T03:00:00	1	Precipitación	0
14676	7	Sololá	710	Panajachel	8	Panajachel	1	Enero	2023-01-19T00:00:00	2024-11-08T03:00:00	8	Radiación solar	0
14677	7	Sololá	710	Panajachel	8	Panajachel	1	Enero	2023-01-19T00:00:00	2024-11-08T04:00:00	2	Temperatura media	13.2
14678	7	Sololá	710	Panajachel	8	Panajachel	1	Enero	2023-01-19T00:00:00	2024-11-08T04:00:00	4	Temperatura máxima	13.2
14679	7	Sololá	710	Panajachel	8	Panajachel	1	Enero	2023-01-19T00:00:00	2024-11-08T04:00:00	3	Temperatura mínima	12.9
14680	7	Sololá	710	Panajachel	8	Panajachel	1	Enero	2023-01-19T00:00:00	2024-11-08T04:00:00	5	Humedad	69
14681	7	Sololá	710	Panajachel	8	Panajachel	1	Enero	2023-01-19T00:00:00	2024-11-08T04:00:00	6	Velocidad del viento	8
14682	7	Sololá	710	Panajachel	8	Panajachel	1	Enero	2023-01-19T00:00:00	2024-11-08T04:00:00	7	Dirección del viento	8.05
14683	7	Sololá	710	Panajachel	8	Panajachel	1	Enero	2023-01-19T00:00:00	2024-11-08T04:00:00	1	Precipitación	0
14684	7	Sololá	710	Panajachel	8	Panajachel	1	Enero	2023-01-19T00:00:00	2024-11-08T04:00:00	8	Radiación solar	0
14685	7	Sololá	710	Panajachel	8	Panajachel	1	Enero	2023-01-19T00:00:00	2024-11-08T05:00:00	2	Temperatura media	12.4
14686	7	Sololá	710	Panajachel	8	Panajachel	1	Enero	2023-01-19T00:00:00	2024-11-08T05:00:00	4	Temperatura máxima	13.2
14687	7	Sololá	710	Panajachel	8	Panajachel	1	Enero	2023-01-19T00:00:00	2024-11-08T05:00:00	3	Temperatura mínima	12.3
14688	7	Sololá	710	Panajachel	8	Panajachel	1	Enero	2023-01-19T00:00:00	2024-11-08T05:00:00	5	Humedad	65
14689	7	Sololá	710	Panajachel	8	Panajachel	1	Enero	2023-01-19T00:00:00	2024-11-08T05:00:00	6	Velocidad del viento	8
14690	7	Sololá	710	Panajachel	8	Panajachel	1	Enero	2023-01-19T00:00:00	2024-11-08T05:00:00	7	Dirección del viento	8.05
14691	7	Sololá	710	Panajachel	8	Panajachel	1	Enero	2023-01-19T00:00:00	2024-11-08T05:00:00	1	Precipitación	0
14692	7	Sololá	710	Panajachel	8	Panajachel	1	Enero	2023-01-19T00:00:00	2024-11-08T05:00:00	8	Radiación solar	0
14693	7	Sololá	710	Panajachel	8	Panajachel	1	Enero	2023-01-19T00:00:00	2024-11-08T06:00:00	2	Temperatura media	12
14694	7	Sololá	710	Panajachel	8	Panajachel	1	Enero	2023-01-19T00:00:00	2024-11-08T06:00:00	4	Temperatura máxima	12.6
14695	7	Sololá	710	Panajachel	8	Panajachel	1	Enero	2023-01-19T00:00:00	2024-11-08T06:00:00	3	Temperatura mínima	11.9
14696	7	Sololá	710	Panajachel	8	Panajachel	1	Enero	2023-01-19T00:00:00	2024-11-08T06:00:00	5	Humedad	58
14697	7	Sololá	710	Panajachel	8	Panajachel	1	Enero	2023-01-19T00:00:00	2024-11-08T06:00:00	6	Velocidad del viento	6.4
14698	7	Sololá	710	Panajachel	8	Panajachel	1	Enero	2023-01-19T00:00:00	2024-11-08T06:00:00	7	Dirección del viento	6.44
14699	7	Sololá	710	Panajachel	8	Panajachel	1	Enero	2023-01-19T00:00:00	2024-11-08T06:00:00	1	Precipitación	0
14700	7	Sololá	710	Panajachel	8	Panajachel	1	Enero	2023-01-19T00:00:00	2024-11-08T06:00:00	8	Radiación solar	0
14701	7	Sololá	710	Panajachel	8	Panajachel	1	Enero	2023-01-19T00:00:00	2024-11-08T07:00:00	2	Temperatura media	11.4
14702	7	Sololá	710	Panajachel	8	Panajachel	1	Enero	2023-01-19T00:00:00	2024-11-08T07:00:00	4	Temperatura máxima	12.1
14703	7	Sololá	710	Panajachel	8	Panajachel	1	Enero	2023-01-19T00:00:00	2024-11-08T07:00:00	3	Temperatura mínima	11.4
14704	7	Sololá	710	Panajachel	8	Panajachel	1	Enero	2023-01-19T00:00:00	2024-11-08T07:00:00	5	Humedad	57
14705	7	Sololá	710	Panajachel	8	Panajachel	1	Enero	2023-01-19T00:00:00	2024-11-08T07:00:00	6	Velocidad del viento	4.8
14706	7	Sololá	710	Panajachel	8	Panajachel	1	Enero	2023-01-19T00:00:00	2024-11-08T07:00:00	7	Dirección del viento	4.83
14707	7	Sololá	710	Panajachel	8	Panajachel	1	Enero	2023-01-19T00:00:00	2024-11-08T07:00:00	1	Precipitación	0
14708	7	Sololá	710	Panajachel	8	Panajachel	1	Enero	2023-01-19T00:00:00	2024-11-08T07:00:00	8	Radiación solar	4
14709	7	Sololá	710	Panajachel	8	Panajachel	1	Enero	2023-01-19T00:00:00	2024-11-08T08:00:00	2	Temperatura media	12.8
14710	7	Sololá	710	Panajachel	8	Panajachel	1	Enero	2023-01-19T00:00:00	2024-11-08T08:00:00	4	Temperatura máxima	12.8
14711	7	Sololá	710	Panajachel	8	Panajachel	1	Enero	2023-01-19T00:00:00	2024-11-08T08:00:00	3	Temperatura mínima	11.2
14712	7	Sololá	710	Panajachel	8	Panajachel	1	Enero	2023-01-19T00:00:00	2024-11-08T08:00:00	5	Humedad	50
14713	7	Sololá	710	Panajachel	8	Panajachel	1	Enero	2023-01-19T00:00:00	2024-11-08T08:00:00	6	Velocidad del viento	6.4
14714	7	Sololá	710	Panajachel	8	Panajachel	1	Enero	2023-01-19T00:00:00	2024-11-08T08:00:00	7	Dirección del viento	6.44
14715	7	Sololá	710	Panajachel	8	Panajachel	1	Enero	2023-01-19T00:00:00	2024-11-08T08:00:00	1	Precipitación	0
14716	7	Sololá	710	Panajachel	8	Panajachel	1	Enero	2023-01-19T00:00:00	2024-11-08T08:00:00	8	Radiación solar	49
14717	7	Sololá	710	Panajachel	8	Panajachel	1	Enero	2023-01-19T00:00:00	2024-11-08T09:00:00	2	Temperatura media	17.4
14718	7	Sololá	710	Panajachel	8	Panajachel	1	Enero	2023-01-19T00:00:00	2024-11-08T09:00:00	4	Temperatura máxima	17.4
14719	7	Sololá	710	Panajachel	8	Panajachel	1	Enero	2023-01-19T00:00:00	2024-11-08T09:00:00	3	Temperatura mínima	12.8
14720	7	Sololá	710	Panajachel	8	Panajachel	1	Enero	2023-01-19T00:00:00	2024-11-08T09:00:00	5	Humedad	51
14721	7	Sololá	710	Panajachel	8	Panajachel	1	Enero	2023-01-19T00:00:00	2024-11-08T09:00:00	6	Velocidad del viento	4.8
14722	7	Sololá	710	Panajachel	8	Panajachel	1	Enero	2023-01-19T00:00:00	2024-11-08T09:00:00	7	Dirección del viento	4.83
14723	7	Sololá	710	Panajachel	8	Panajachel	1	Enero	2023-01-19T00:00:00	2024-11-08T09:00:00	1	Precipitación	0
14724	7	Sololá	710	Panajachel	8	Panajachel	1	Enero	2023-01-19T00:00:00	2024-11-08T09:00:00	8	Radiación solar	371
14725	7	Sololá	710	Panajachel	8	Panajachel	1	Enero	2023-01-19T00:00:00	2024-11-08T10:00:00	2	Temperatura media	18.9
14726	7	Sololá	710	Panajachel	8	Panajachel	1	Enero	2023-01-19T00:00:00	2024-11-08T10:00:00	4	Temperatura máxima	18.9
14727	7	Sololá	710	Panajachel	8	Panajachel	1	Enero	2023-01-19T00:00:00	2024-11-08T10:00:00	3	Temperatura mínima	17.4
14728	7	Sololá	710	Panajachel	8	Panajachel	1	Enero	2023-01-19T00:00:00	2024-11-08T10:00:00	5	Humedad	56
14729	7	Sololá	710	Panajachel	8	Panajachel	1	Enero	2023-01-19T00:00:00	2024-11-08T10:00:00	6	Velocidad del viento	1.6
14730	7	Sololá	710	Panajachel	8	Panajachel	1	Enero	2023-01-19T00:00:00	2024-11-08T10:00:00	7	Dirección del viento	1.61
14731	7	Sololá	710	Panajachel	8	Panajachel	1	Enero	2023-01-19T00:00:00	2024-11-08T10:00:00	1	Precipitación	0
14732	7	Sololá	710	Panajachel	8	Panajachel	1	Enero	2023-01-19T00:00:00	2024-11-08T10:00:00	8	Radiación solar	579
14733	7	Sololá	710	Panajachel	8	Panajachel	1	Enero	2023-01-19T00:00:00	2024-11-08T11:00:00	2	Temperatura media	19.7
14734	7	Sololá	710	Panajachel	8	Panajachel	1	Enero	2023-01-19T00:00:00	2024-11-08T11:00:00	4	Temperatura máxima	19.7
14735	7	Sololá	710	Panajachel	8	Panajachel	1	Enero	2023-01-19T00:00:00	2024-11-08T11:00:00	3	Temperatura mínima	18.6
14736	7	Sololá	710	Panajachel	8	Panajachel	1	Enero	2023-01-19T00:00:00	2024-11-08T11:00:00	5	Humedad	57
14737	7	Sololá	710	Panajachel	8	Panajachel	1	Enero	2023-01-19T00:00:00	2024-11-08T11:00:00	6	Velocidad del viento	3.2
14738	7	Sololá	710	Panajachel	8	Panajachel	1	Enero	2023-01-19T00:00:00	2024-11-08T11:00:00	7	Dirección del viento	3.22
14739	7	Sololá	710	Panajachel	8	Panajachel	1	Enero	2023-01-19T00:00:00	2024-11-08T11:00:00	1	Precipitación	0
14740	7	Sololá	710	Panajachel	8	Panajachel	1	Enero	2023-01-19T00:00:00	2024-11-08T11:00:00	8	Radiación solar	729
14741	7	Sololá	710	Panajachel	8	Panajachel	1	Enero	2023-01-19T00:00:00	2024-11-08T12:00:00	2	Temperatura media	20.6
14742	7	Sololá	710	Panajachel	8	Panajachel	1	Enero	2023-01-19T00:00:00	2024-11-08T12:00:00	4	Temperatura máxima	20.6
14743	7	Sololá	710	Panajachel	8	Panajachel	1	Enero	2023-01-19T00:00:00	2024-11-08T12:00:00	3	Temperatura mínima	19.7
14744	7	Sololá	710	Panajachel	8	Panajachel	1	Enero	2023-01-19T00:00:00	2024-11-08T12:00:00	5	Humedad	56
14745	7	Sololá	710	Panajachel	8	Panajachel	1	Enero	2023-01-19T00:00:00	2024-11-08T12:00:00	6	Velocidad del viento	3.2
14746	7	Sololá	710	Panajachel	8	Panajachel	1	Enero	2023-01-19T00:00:00	2024-11-08T12:00:00	7	Dirección del viento	3.22
14747	7	Sololá	710	Panajachel	8	Panajachel	1	Enero	2023-01-19T00:00:00	2024-11-08T12:00:00	1	Precipitación	0
14748	7	Sololá	710	Panajachel	8	Panajachel	1	Enero	2023-01-19T00:00:00	2024-11-08T12:00:00	8	Radiación solar	804
14749	7	Sololá	710	Panajachel	8	Panajachel	1	Enero	2023-01-19T00:00:00	2024-11-08T13:00:00	2	Temperatura media	21.8
14750	7	Sololá	710	Panajachel	8	Panajachel	1	Enero	2023-01-19T00:00:00	2024-11-08T13:00:00	4	Temperatura máxima	21.8
14751	7	Sololá	710	Panajachel	8	Panajachel	1	Enero	2023-01-19T00:00:00	2024-11-08T13:00:00	3	Temperatura mínima	20.4
14752	7	Sololá	710	Panajachel	8	Panajachel	1	Enero	2023-01-19T00:00:00	2024-11-08T13:00:00	5	Humedad	56
14753	7	Sololá	710	Panajachel	8	Panajachel	1	Enero	2023-01-19T00:00:00	2024-11-08T13:00:00	6	Velocidad del viento	4.8
14754	7	Sololá	710	Panajachel	8	Panajachel	1	Enero	2023-01-19T00:00:00	2024-11-08T13:00:00	7	Dirección del viento	4.83
14755	7	Sololá	710	Panajachel	8	Panajachel	1	Enero	2023-01-19T00:00:00	2024-11-08T13:00:00	1	Precipitación	0
14756	7	Sololá	710	Panajachel	8	Panajachel	1	Enero	2023-01-19T00:00:00	2024-11-08T13:00:00	8	Radiación solar	817
14757	7	Sololá	710	Panajachel	8	Panajachel	1	Enero	2023-01-19T00:00:00	2024-11-08T14:00:00	2	Temperatura media	22.1
14758	7	Sololá	710	Panajachel	8	Panajachel	1	Enero	2023-01-19T00:00:00	2024-11-08T14:00:00	4	Temperatura máxima	22.5
14759	7	Sololá	710	Panajachel	8	Panajachel	1	Enero	2023-01-19T00:00:00	2024-11-08T14:00:00	3	Temperatura mínima	21.7
14760	7	Sololá	710	Panajachel	8	Panajachel	1	Enero	2023-01-19T00:00:00	2024-11-08T14:00:00	5	Humedad	64
14761	7	Sololá	710	Panajachel	8	Panajachel	1	Enero	2023-01-19T00:00:00	2024-11-08T14:00:00	6	Velocidad del viento	3.2
14762	7	Sololá	710	Panajachel	8	Panajachel	1	Enero	2023-01-19T00:00:00	2024-11-08T14:00:00	7	Dirección del viento	3.22
14763	7	Sololá	710	Panajachel	8	Panajachel	1	Enero	2023-01-19T00:00:00	2024-11-08T14:00:00	1	Precipitación	0
14764	7	Sololá	710	Panajachel	8	Panajachel	1	Enero	2023-01-19T00:00:00	2024-11-08T14:00:00	8	Radiación solar	755
14765	7	Sololá	710	Panajachel	8	Panajachel	1	Enero	2023-01-19T00:00:00	2024-11-08T15:00:00	2	Temperatura media	21.3
14766	7	Sololá	710	Panajachel	8	Panajachel	1	Enero	2023-01-19T00:00:00	2024-11-08T15:00:00	4	Temperatura máxima	22.3
14767	7	Sololá	710	Panajachel	8	Panajachel	1	Enero	2023-01-19T00:00:00	2024-11-08T15:00:00	3	Temperatura mínima	21.3
14768	7	Sololá	710	Panajachel	8	Panajachel	1	Enero	2023-01-19T00:00:00	2024-11-08T15:00:00	5	Humedad	69
14769	7	Sololá	710	Panajachel	8	Panajachel	1	Enero	2023-01-19T00:00:00	2024-11-08T15:00:00	6	Velocidad del viento	4.8
14770	7	Sololá	710	Panajachel	8	Panajachel	1	Enero	2023-01-19T00:00:00	2024-11-08T15:00:00	7	Dirección del viento	4.83
14771	7	Sololá	710	Panajachel	8	Panajachel	1	Enero	2023-01-19T00:00:00	2024-11-08T15:00:00	1	Precipitación	0
14772	7	Sololá	710	Panajachel	8	Panajachel	1	Enero	2023-01-19T00:00:00	2024-11-08T15:00:00	8	Radiación solar	648
14773	7	Sololá	710	Panajachel	8	Panajachel	1	Enero	2023-01-19T00:00:00	2024-11-08T16:00:00	2	Temperatura media	21.8
14774	7	Sololá	710	Panajachel	8	Panajachel	1	Enero	2023-01-19T00:00:00	2024-11-08T16:00:00	4	Temperatura máxima	22.1
14775	7	Sololá	710	Panajachel	8	Panajachel	1	Enero	2023-01-19T00:00:00	2024-11-08T16:00:00	3	Temperatura mínima	20.8
14776	7	Sololá	710	Panajachel	8	Panajachel	1	Enero	2023-01-19T00:00:00	2024-11-08T16:00:00	5	Humedad	71
14777	7	Sololá	710	Panajachel	8	Panajachel	1	Enero	2023-01-19T00:00:00	2024-11-08T16:00:00	6	Velocidad del viento	4.8
14778	7	Sololá	710	Panajachel	8	Panajachel	1	Enero	2023-01-19T00:00:00	2024-11-08T16:00:00	7	Dirección del viento	4.83
14779	7	Sololá	710	Panajachel	8	Panajachel	1	Enero	2023-01-19T00:00:00	2024-11-08T16:00:00	1	Precipitación	0
14780	7	Sololá	710	Panajachel	8	Panajachel	1	Enero	2023-01-19T00:00:00	2024-11-08T16:00:00	8	Radiación solar	460
14781	7	Sololá	710	Panajachel	8	Panajachel	1	Enero	2023-01-19T00:00:00	2024-11-08T17:00:00	2	Temperatura media	20.7
14782	7	Sololá	710	Panajachel	8	Panajachel	1	Enero	2023-01-19T00:00:00	2024-11-08T17:00:00	4	Temperatura máxima	21.9
14783	7	Sololá	710	Panajachel	8	Panajachel	1	Enero	2023-01-19T00:00:00	2024-11-08T17:00:00	3	Temperatura mínima	20.7
14784	7	Sololá	710	Panajachel	8	Panajachel	1	Enero	2023-01-19T00:00:00	2024-11-08T17:00:00	5	Humedad	72
14785	7	Sololá	710	Panajachel	8	Panajachel	1	Enero	2023-01-19T00:00:00	2024-11-08T17:00:00	6	Velocidad del viento	1.6
14786	7	Sololá	710	Panajachel	8	Panajachel	1	Enero	2023-01-19T00:00:00	2024-11-08T17:00:00	7	Dirección del viento	1.61
14787	7	Sololá	710	Panajachel	8	Panajachel	1	Enero	2023-01-19T00:00:00	2024-11-08T17:00:00	1	Precipitación	0
14788	7	Sololá	710	Panajachel	8	Panajachel	1	Enero	2023-01-19T00:00:00	2024-11-08T17:00:00	8	Radiación solar	236
14789	7	Sololá	710	Panajachel	8	Panajachel	1	Enero	2023-01-19T00:00:00	2024-11-08T18:00:00	2	Temperatura media	18.6
14790	7	Sololá	710	Panajachel	8	Panajachel	1	Enero	2023-01-19T00:00:00	2024-11-08T18:00:00	4	Temperatura máxima	20.9
14791	7	Sololá	710	Panajachel	8	Panajachel	1	Enero	2023-01-19T00:00:00	2024-11-08T18:00:00	3	Temperatura mínima	18.6
14792	7	Sololá	710	Panajachel	8	Panajachel	1	Enero	2023-01-19T00:00:00	2024-11-08T18:00:00	5	Humedad	78
14793	7	Sololá	710	Panajachel	8	Panajachel	1	Enero	2023-01-19T00:00:00	2024-11-08T18:00:00	6	Velocidad del viento	1.6
14794	7	Sololá	710	Panajachel	8	Panajachel	1	Enero	2023-01-19T00:00:00	2024-11-08T18:00:00	7	Dirección del viento	1.61
14795	7	Sololá	710	Panajachel	8	Panajachel	1	Enero	2023-01-19T00:00:00	2024-11-08T18:00:00	1	Precipitación	0
14796	7	Sololá	710	Panajachel	8	Panajachel	1	Enero	2023-01-19T00:00:00	2024-11-08T18:00:00	8	Radiación solar	55
14797	7	Sololá	710	Panajachel	8	Panajachel	1	Enero	2023-01-19T00:00:00	2024-11-08T19:00:00	2	Temperatura media	17.5
14798	7	Sololá	710	Panajachel	8	Panajachel	1	Enero	2023-01-19T00:00:00	2024-11-08T19:00:00	4	Temperatura máxima	18.6
14799	7	Sololá	710	Panajachel	8	Panajachel	1	Enero	2023-01-19T00:00:00	2024-11-08T19:00:00	3	Temperatura mínima	17.5
14800	7	Sololá	710	Panajachel	8	Panajachel	1	Enero	2023-01-19T00:00:00	2024-11-08T19:00:00	5	Humedad	81
14801	7	Sololá	710	Panajachel	8	Panajachel	1	Enero	2023-01-19T00:00:00	2024-11-08T19:00:00	6	Velocidad del viento	0
14802	7	Sololá	710	Panajachel	8	Panajachel	1	Enero	2023-01-19T00:00:00	2024-11-08T19:00:00	7	Dirección del viento	0
14803	7	Sololá	710	Panajachel	8	Panajachel	1	Enero	2023-01-19T00:00:00	2024-11-08T19:00:00	1	Precipitación	0
14804	7	Sololá	710	Panajachel	8	Panajachel	1	Enero	2023-01-19T00:00:00	2024-11-08T19:00:00	8	Radiación solar	0
14805	7	Sololá	710	Panajachel	8	Panajachel	1	Enero	2023-01-19T00:00:00	2024-11-08T20:00:00	2	Temperatura media	15.4
14806	7	Sololá	710	Panajachel	8	Panajachel	1	Enero	2023-01-19T00:00:00	2024-11-08T20:00:00	4	Temperatura máxima	17.5
14807	7	Sololá	710	Panajachel	8	Panajachel	1	Enero	2023-01-19T00:00:00	2024-11-08T20:00:00	3	Temperatura mínima	15.4
14808	7	Sololá	710	Panajachel	8	Panajachel	1	Enero	2023-01-19T00:00:00	2024-11-08T20:00:00	5	Humedad	78
14809	7	Sololá	710	Panajachel	8	Panajachel	1	Enero	2023-01-19T00:00:00	2024-11-08T20:00:00	6	Velocidad del viento	4.8
14810	7	Sololá	710	Panajachel	8	Panajachel	1	Enero	2023-01-19T00:00:00	2024-11-08T20:00:00	7	Dirección del viento	4.83
14811	7	Sololá	710	Panajachel	8	Panajachel	1	Enero	2023-01-19T00:00:00	2024-11-08T20:00:00	1	Precipitación	0
14812	7	Sololá	710	Panajachel	8	Panajachel	1	Enero	2023-01-19T00:00:00	2024-11-08T20:00:00	8	Radiación solar	0
14813	7	Sololá	710	Panajachel	8	Panajachel	1	Enero	2023-01-19T00:00:00	2024-11-08T21:00:00	2	Temperatura media	14.8
14814	7	Sololá	710	Panajachel	8	Panajachel	1	Enero	2023-01-19T00:00:00	2024-11-08T21:00:00	4	Temperatura máxima	15.5
14815	7	Sololá	710	Panajachel	8	Panajachel	1	Enero	2023-01-19T00:00:00	2024-11-08T21:00:00	3	Temperatura mínima	14.8
14816	7	Sololá	710	Panajachel	8	Panajachel	1	Enero	2023-01-19T00:00:00	2024-11-08T21:00:00	5	Humedad	72
14817	7	Sololá	710	Panajachel	8	Panajachel	1	Enero	2023-01-19T00:00:00	2024-11-08T21:00:00	6	Velocidad del viento	4.8
14818	7	Sololá	710	Panajachel	8	Panajachel	1	Enero	2023-01-19T00:00:00	2024-11-08T21:00:00	7	Dirección del viento	4.83
14819	7	Sololá	710	Panajachel	8	Panajachel	1	Enero	2023-01-19T00:00:00	2024-11-08T21:00:00	1	Precipitación	0
14820	7	Sololá	710	Panajachel	8	Panajachel	1	Enero	2023-01-19T00:00:00	2024-11-08T21:00:00	8	Radiación solar	0
14821	7	Sololá	710	Panajachel	8	Panajachel	1	Enero	2023-01-19T00:00:00	2024-11-08T22:00:00	2	Temperatura media	14.2
14822	7	Sololá	710	Panajachel	8	Panajachel	1	Enero	2023-01-19T00:00:00	2024-11-08T22:00:00	4	Temperatura máxima	14.8
14823	7	Sololá	710	Panajachel	8	Panajachel	1	Enero	2023-01-19T00:00:00	2024-11-08T22:00:00	3	Temperatura mínima	14.2
14824	7	Sololá	710	Panajachel	8	Panajachel	1	Enero	2023-01-19T00:00:00	2024-11-08T22:00:00	5	Humedad	77
14825	7	Sololá	710	Panajachel	8	Panajachel	1	Enero	2023-01-19T00:00:00	2024-11-08T22:00:00	6	Velocidad del viento	0
14826	7	Sololá	710	Panajachel	8	Panajachel	1	Enero	2023-01-19T00:00:00	2024-11-08T22:00:00	7	Dirección del viento	0
14827	7	Sololá	710	Panajachel	8	Panajachel	1	Enero	2023-01-19T00:00:00	2024-11-08T22:00:00	1	Precipitación	0
14828	7	Sololá	710	Panajachel	8	Panajachel	1	Enero	2023-01-19T00:00:00	2024-11-08T22:00:00	8	Radiación solar	0
14829	7	Sololá	710	Panajachel	8	Panajachel	1	Enero	2023-01-19T00:00:00	2024-11-08T23:00:00	2	Temperatura media	14.1
14830	7	Sololá	710	Panajachel	8	Panajachel	1	Enero	2023-01-19T00:00:00	2024-11-08T23:00:00	4	Temperatura máxima	14.6
14831	7	Sololá	710	Panajachel	8	Panajachel	1	Enero	2023-01-19T00:00:00	2024-11-08T23:00:00	3	Temperatura mínima	14.1
14832	7	Sololá	710	Panajachel	8	Panajachel	1	Enero	2023-01-19T00:00:00	2024-11-08T23:00:00	5	Humedad	76
14833	7	Sololá	710	Panajachel	8	Panajachel	1	Enero	2023-01-19T00:00:00	2024-11-08T23:00:00	6	Velocidad del viento	1.6
14834	7	Sololá	710	Panajachel	8	Panajachel	1	Enero	2023-01-19T00:00:00	2024-11-08T23:00:00	7	Dirección del viento	1.61
14835	7	Sololá	710	Panajachel	8	Panajachel	1	Enero	2023-01-19T00:00:00	2024-11-08T23:00:00	1	Precipitación	0
14836	7	Sololá	710	Panajachel	8	Panajachel	1	Enero	2023-01-19T00:00:00	2024-11-08T23:00:00	8	Radiación solar	0
14837	7	Sololá	710	Panajachel	8	Panajachel	1	Enero	2023-01-20T00:00:00	2024-11-08T00:00:00	2	Temperatura media	14.3
14838	7	Sololá	710	Panajachel	8	Panajachel	1	Enero	2023-01-20T00:00:00	2024-11-08T00:00:00	4	Temperatura máxima	14.7
14839	7	Sololá	710	Panajachel	8	Panajachel	1	Enero	2023-01-20T00:00:00	2024-11-08T00:00:00	3	Temperatura mínima	14.1
14840	7	Sololá	710	Panajachel	8	Panajachel	1	Enero	2023-01-20T00:00:00	2024-11-08T00:00:00	5	Humedad	78
14841	7	Sololá	710	Panajachel	8	Panajachel	1	Enero	2023-01-20T00:00:00	2024-11-08T00:00:00	6	Velocidad del viento	1.6
14842	7	Sololá	710	Panajachel	8	Panajachel	1	Enero	2023-01-20T00:00:00	2024-11-08T00:00:00	7	Dirección del viento	1.61
14843	7	Sololá	710	Panajachel	8	Panajachel	1	Enero	2023-01-20T00:00:00	2024-11-08T00:00:00	1	Precipitación	0
14844	7	Sololá	710	Panajachel	8	Panajachel	1	Enero	2023-01-20T00:00:00	2024-11-08T00:00:00	8	Radiación solar	0
14845	7	Sololá	710	Panajachel	8	Panajachel	1	Enero	2023-01-20T00:00:00	2024-11-08T01:00:00	2	Temperatura media	14
14846	7	Sololá	710	Panajachel	8	Panajachel	1	Enero	2023-01-20T00:00:00	2024-11-08T01:00:00	4	Temperatura máxima	14.6
14847	7	Sololá	710	Panajachel	8	Panajachel	1	Enero	2023-01-20T00:00:00	2024-11-08T01:00:00	3	Temperatura mínima	14
14848	7	Sololá	710	Panajachel	8	Panajachel	1	Enero	2023-01-20T00:00:00	2024-11-08T01:00:00	5	Humedad	79
14849	7	Sololá	710	Panajachel	8	Panajachel	1	Enero	2023-01-20T00:00:00	2024-11-08T01:00:00	6	Velocidad del viento	0
14850	7	Sololá	710	Panajachel	8	Panajachel	1	Enero	2023-01-20T00:00:00	2024-11-08T01:00:00	7	Dirección del viento	0
14851	7	Sololá	710	Panajachel	8	Panajachel	1	Enero	2023-01-20T00:00:00	2024-11-08T01:00:00	1	Precipitación	0
14852	7	Sololá	710	Panajachel	8	Panajachel	1	Enero	2023-01-20T00:00:00	2024-11-08T01:00:00	8	Radiación solar	0
14853	7	Sololá	710	Panajachel	8	Panajachel	1	Enero	2023-01-20T00:00:00	2024-11-08T02:00:00	2	Temperatura media	14.2
14854	7	Sololá	710	Panajachel	8	Panajachel	1	Enero	2023-01-20T00:00:00	2024-11-08T02:00:00	4	Temperatura máxima	14.2
14855	7	Sololá	710	Panajachel	8	Panajachel	1	Enero	2023-01-20T00:00:00	2024-11-08T02:00:00	3	Temperatura mínima	13.3
14856	7	Sololá	710	Panajachel	8	Panajachel	1	Enero	2023-01-20T00:00:00	2024-11-08T02:00:00	5	Humedad	80
14857	7	Sololá	710	Panajachel	8	Panajachel	1	Enero	2023-01-20T00:00:00	2024-11-08T02:00:00	6	Velocidad del viento	0
14858	7	Sololá	710	Panajachel	8	Panajachel	1	Enero	2023-01-20T00:00:00	2024-11-08T02:00:00	7	Dirección del viento	0
14859	7	Sololá	710	Panajachel	8	Panajachel	1	Enero	2023-01-20T00:00:00	2024-11-08T02:00:00	1	Precipitación	0
14860	7	Sololá	710	Panajachel	8	Panajachel	1	Enero	2023-01-20T00:00:00	2024-11-08T02:00:00	8	Radiación solar	0
14861	7	Sololá	710	Panajachel	8	Panajachel	1	Enero	2023-01-20T00:00:00	2024-11-08T03:00:00	2	Temperatura media	13.3
14862	7	Sololá	710	Panajachel	8	Panajachel	1	Enero	2023-01-20T00:00:00	2024-11-08T03:00:00	4	Temperatura máxima	14.2
14863	7	Sololá	710	Panajachel	8	Panajachel	1	Enero	2023-01-20T00:00:00	2024-11-08T03:00:00	3	Temperatura mínima	13.2
14864	7	Sololá	710	Panajachel	8	Panajachel	1	Enero	2023-01-20T00:00:00	2024-11-08T03:00:00	5	Humedad	81
14865	7	Sololá	710	Panajachel	8	Panajachel	1	Enero	2023-01-20T00:00:00	2024-11-08T03:00:00	6	Velocidad del viento	0
14866	7	Sololá	710	Panajachel	8	Panajachel	1	Enero	2023-01-20T00:00:00	2024-11-08T03:00:00	7	Dirección del viento	0
14867	7	Sololá	710	Panajachel	8	Panajachel	1	Enero	2023-01-20T00:00:00	2024-11-08T03:00:00	1	Precipitación	0
14868	7	Sololá	710	Panajachel	8	Panajachel	1	Enero	2023-01-20T00:00:00	2024-11-08T03:00:00	8	Radiación solar	0
14869	7	Sololá	710	Panajachel	8	Panajachel	1	Enero	2023-01-20T00:00:00	2024-11-08T04:00:00	2	Temperatura media	13.2
14870	7	Sololá	710	Panajachel	8	Panajachel	1	Enero	2023-01-20T00:00:00	2024-11-08T04:00:00	4	Temperatura máxima	13.8
14871	7	Sololá	710	Panajachel	8	Panajachel	1	Enero	2023-01-20T00:00:00	2024-11-08T04:00:00	3	Temperatura mínima	13.2
14872	7	Sololá	710	Panajachel	8	Panajachel	1	Enero	2023-01-20T00:00:00	2024-11-08T04:00:00	5	Humedad	77
14873	7	Sololá	710	Panajachel	8	Panajachel	1	Enero	2023-01-20T00:00:00	2024-11-08T04:00:00	6	Velocidad del viento	3.2
14874	7	Sololá	710	Panajachel	8	Panajachel	1	Enero	2023-01-20T00:00:00	2024-11-08T04:00:00	7	Dirección del viento	3.22
14875	7	Sololá	710	Panajachel	8	Panajachel	1	Enero	2023-01-20T00:00:00	2024-11-08T04:00:00	1	Precipitación	0
14876	7	Sololá	710	Panajachel	8	Panajachel	1	Enero	2023-01-20T00:00:00	2024-11-08T04:00:00	8	Radiación solar	0
14877	7	Sololá	710	Panajachel	8	Panajachel	1	Enero	2023-01-20T00:00:00	2024-11-08T05:00:00	2	Temperatura media	12.4
14878	7	Sololá	710	Panajachel	8	Panajachel	1	Enero	2023-01-20T00:00:00	2024-11-08T05:00:00	4	Temperatura máxima	13.3
14879	7	Sololá	710	Panajachel	8	Panajachel	1	Enero	2023-01-20T00:00:00	2024-11-08T05:00:00	3	Temperatura mínima	12.4
14880	7	Sololá	710	Panajachel	8	Panajachel	1	Enero	2023-01-20T00:00:00	2024-11-08T05:00:00	5	Humedad	79
14881	7	Sololá	710	Panajachel	8	Panajachel	1	Enero	2023-01-20T00:00:00	2024-11-08T05:00:00	6	Velocidad del viento	0
14882	7	Sololá	710	Panajachel	8	Panajachel	1	Enero	2023-01-20T00:00:00	2024-11-08T05:00:00	7	Dirección del viento	0
14883	7	Sololá	710	Panajachel	8	Panajachel	1	Enero	2023-01-20T00:00:00	2024-11-08T05:00:00	1	Precipitación	0
14884	7	Sololá	710	Panajachel	8	Panajachel	1	Enero	2023-01-20T00:00:00	2024-11-08T05:00:00	8	Radiación solar	0
14885	7	Sololá	710	Panajachel	8	Panajachel	1	Enero	2023-01-20T00:00:00	2024-11-08T06:00:00	2	Temperatura media	12.3
14886	7	Sololá	710	Panajachel	8	Panajachel	1	Enero	2023-01-20T00:00:00	2024-11-08T06:00:00	4	Temperatura máxima	12.4
14887	7	Sololá	710	Panajachel	8	Panajachel	1	Enero	2023-01-20T00:00:00	2024-11-08T06:00:00	3	Temperatura mínima	12.1
14888	7	Sololá	710	Panajachel	8	Panajachel	1	Enero	2023-01-20T00:00:00	2024-11-08T06:00:00	5	Humedad	79
14889	7	Sololá	710	Panajachel	8	Panajachel	1	Enero	2023-01-20T00:00:00	2024-11-08T06:00:00	6	Velocidad del viento	1.6
14890	7	Sololá	710	Panajachel	8	Panajachel	1	Enero	2023-01-20T00:00:00	2024-11-08T06:00:00	7	Dirección del viento	1.61
14891	7	Sololá	710	Panajachel	8	Panajachel	1	Enero	2023-01-20T00:00:00	2024-11-08T06:00:00	1	Precipitación	0
14892	7	Sololá	710	Panajachel	8	Panajachel	1	Enero	2023-01-20T00:00:00	2024-11-08T06:00:00	8	Radiación solar	0
14893	7	Sololá	710	Panajachel	8	Panajachel	1	Enero	2023-01-20T00:00:00	2024-11-08T07:00:00	2	Temperatura media	12.7
14894	7	Sololá	710	Panajachel	8	Panajachel	1	Enero	2023-01-20T00:00:00	2024-11-08T07:00:00	4	Temperatura máxima	12.7
14895	7	Sololá	710	Panajachel	8	Panajachel	1	Enero	2023-01-20T00:00:00	2024-11-08T07:00:00	3	Temperatura mínima	12.2
14896	7	Sololá	710	Panajachel	8	Panajachel	1	Enero	2023-01-20T00:00:00	2024-11-08T07:00:00	5	Humedad	76
14897	7	Sololá	710	Panajachel	8	Panajachel	1	Enero	2023-01-20T00:00:00	2024-11-08T07:00:00	6	Velocidad del viento	1.6
14898	7	Sololá	710	Panajachel	8	Panajachel	1	Enero	2023-01-20T00:00:00	2024-11-08T07:00:00	7	Dirección del viento	1.61
14899	7	Sololá	710	Panajachel	8	Panajachel	1	Enero	2023-01-20T00:00:00	2024-11-08T07:00:00	1	Precipitación	0
14900	7	Sololá	710	Panajachel	8	Panajachel	1	Enero	2023-01-20T00:00:00	2024-11-08T07:00:00	8	Radiación solar	3
14901	7	Sololá	710	Panajachel	8	Panajachel	1	Enero	2023-01-20T00:00:00	2024-11-08T08:00:00	2	Temperatura media	14.7
14902	7	Sololá	710	Panajachel	8	Panajachel	1	Enero	2023-01-20T00:00:00	2024-11-08T08:00:00	4	Temperatura máxima	14.7
14903	7	Sololá	710	Panajachel	8	Panajachel	1	Enero	2023-01-20T00:00:00	2024-11-08T08:00:00	3	Temperatura mínima	12.3
14904	7	Sololá	710	Panajachel	8	Panajachel	1	Enero	2023-01-20T00:00:00	2024-11-08T08:00:00	5	Humedad	74
14905	7	Sololá	710	Panajachel	8	Panajachel	1	Enero	2023-01-20T00:00:00	2024-11-08T08:00:00	6	Velocidad del viento	0
14906	7	Sololá	710	Panajachel	8	Panajachel	1	Enero	2023-01-20T00:00:00	2024-11-08T08:00:00	7	Dirección del viento	0
14907	7	Sololá	710	Panajachel	8	Panajachel	1	Enero	2023-01-20T00:00:00	2024-11-08T08:00:00	1	Precipitación	0
14908	7	Sololá	710	Panajachel	8	Panajachel	1	Enero	2023-01-20T00:00:00	2024-11-08T08:00:00	8	Radiación solar	49
14909	7	Sololá	710	Panajachel	8	Panajachel	1	Enero	2023-01-20T00:00:00	2024-11-08T09:00:00	2	Temperatura media	18.3
14910	7	Sololá	710	Panajachel	8	Panajachel	1	Enero	2023-01-20T00:00:00	2024-11-08T09:00:00	4	Temperatura máxima	18.3
14911	7	Sololá	710	Panajachel	8	Panajachel	1	Enero	2023-01-20T00:00:00	2024-11-08T09:00:00	3	Temperatura mínima	14.7
14912	7	Sololá	710	Panajachel	8	Panajachel	1	Enero	2023-01-20T00:00:00	2024-11-08T09:00:00	5	Humedad	72
14913	7	Sololá	710	Panajachel	8	Panajachel	1	Enero	2023-01-20T00:00:00	2024-11-08T09:00:00	6	Velocidad del viento	0
14914	7	Sololá	710	Panajachel	8	Panajachel	1	Enero	2023-01-20T00:00:00	2024-11-08T09:00:00	7	Dirección del viento	0
14915	7	Sololá	710	Panajachel	8	Panajachel	1	Enero	2023-01-20T00:00:00	2024-11-08T09:00:00	1	Precipitación	0
14916	7	Sololá	710	Panajachel	8	Panajachel	1	Enero	2023-01-20T00:00:00	2024-11-08T09:00:00	8	Radiación solar	361
14917	7	Sololá	710	Panajachel	8	Panajachel	1	Enero	2023-01-20T00:00:00	2024-11-08T10:00:00	2	Temperatura media	20.3
14918	7	Sololá	710	Panajachel	8	Panajachel	1	Enero	2023-01-20T00:00:00	2024-11-08T10:00:00	4	Temperatura máxima	20.3
14919	7	Sololá	710	Panajachel	8	Panajachel	1	Enero	2023-01-20T00:00:00	2024-11-08T10:00:00	3	Temperatura mínima	18.2
14920	7	Sololá	710	Panajachel	8	Panajachel	1	Enero	2023-01-20T00:00:00	2024-11-08T10:00:00	5	Humedad	68
14921	7	Sololá	710	Panajachel	8	Panajachel	1	Enero	2023-01-20T00:00:00	2024-11-08T10:00:00	6	Velocidad del viento	1.6
14922	7	Sololá	710	Panajachel	8	Panajachel	1	Enero	2023-01-20T00:00:00	2024-11-08T10:00:00	7	Dirección del viento	1.61
14923	7	Sololá	710	Panajachel	8	Panajachel	1	Enero	2023-01-20T00:00:00	2024-11-08T10:00:00	1	Precipitación	0
14924	7	Sololá	710	Panajachel	8	Panajachel	1	Enero	2023-01-20T00:00:00	2024-11-08T10:00:00	8	Radiación solar	564
14925	7	Sololá	710	Panajachel	8	Panajachel	1	Enero	2023-01-20T00:00:00	2024-11-08T11:00:00	2	Temperatura media	22.3
14926	7	Sololá	710	Panajachel	8	Panajachel	1	Enero	2023-01-20T00:00:00	2024-11-08T11:00:00	4	Temperatura máxima	22.3
14927	7	Sololá	710	Panajachel	8	Panajachel	1	Enero	2023-01-20T00:00:00	2024-11-08T11:00:00	3	Temperatura mínima	20.3
14928	7	Sololá	710	Panajachel	8	Panajachel	1	Enero	2023-01-20T00:00:00	2024-11-08T11:00:00	5	Humedad	60
14929	7	Sololá	710	Panajachel	8	Panajachel	1	Enero	2023-01-20T00:00:00	2024-11-08T11:00:00	6	Velocidad del viento	3.2
14930	7	Sololá	710	Panajachel	8	Panajachel	1	Enero	2023-01-20T00:00:00	2024-11-08T11:00:00	7	Dirección del viento	3.22
14931	7	Sololá	710	Panajachel	8	Panajachel	1	Enero	2023-01-20T00:00:00	2024-11-08T11:00:00	1	Precipitación	0
14932	7	Sololá	710	Panajachel	8	Panajachel	1	Enero	2023-01-20T00:00:00	2024-11-08T11:00:00	8	Radiación solar	712
14933	7	Sololá	710	Panajachel	8	Panajachel	1	Enero	2023-01-20T00:00:00	2024-11-08T12:00:00	2	Temperatura media	26.3
14934	7	Sololá	710	Panajachel	8	Panajachel	1	Enero	2023-01-20T00:00:00	2024-11-08T12:00:00	4	Temperatura máxima	26.3
14935	7	Sololá	710	Panajachel	8	Panajachel	1	Enero	2023-01-20T00:00:00	2024-11-08T12:00:00	3	Temperatura mínima	22.3
14936	7	Sololá	710	Panajachel	8	Panajachel	1	Enero	2023-01-20T00:00:00	2024-11-08T12:00:00	5	Humedad	40
14937	7	Sololá	710	Panajachel	8	Panajachel	1	Enero	2023-01-20T00:00:00	2024-11-08T12:00:00	6	Velocidad del viento	4.8
14938	7	Sololá	710	Panajachel	8	Panajachel	1	Enero	2023-01-20T00:00:00	2024-11-08T12:00:00	7	Dirección del viento	4.83
14939	7	Sololá	710	Panajachel	8	Panajachel	1	Enero	2023-01-20T00:00:00	2024-11-08T12:00:00	1	Precipitación	0
14940	7	Sololá	710	Panajachel	8	Panajachel	1	Enero	2023-01-20T00:00:00	2024-11-08T12:00:00	8	Radiación solar	800
14941	7	Sololá	710	Panajachel	8	Panajachel	1	Enero	2023-01-20T00:00:00	2024-11-08T13:00:00	2	Temperatura media	26.2
14942	7	Sololá	710	Panajachel	8	Panajachel	1	Enero	2023-01-20T00:00:00	2024-11-08T13:00:00	4	Temperatura máxima	26.6
14943	7	Sololá	710	Panajachel	8	Panajachel	1	Enero	2023-01-20T00:00:00	2024-11-08T13:00:00	3	Temperatura mínima	25.8
14944	7	Sololá	710	Panajachel	8	Panajachel	1	Enero	2023-01-20T00:00:00	2024-11-08T13:00:00	5	Humedad	50
14945	7	Sololá	710	Panajachel	8	Panajachel	1	Enero	2023-01-20T00:00:00	2024-11-08T13:00:00	6	Velocidad del viento	4.8
14946	7	Sololá	710	Panajachel	8	Panajachel	1	Enero	2023-01-20T00:00:00	2024-11-08T13:00:00	7	Dirección del viento	4.83
14947	7	Sololá	710	Panajachel	8	Panajachel	1	Enero	2023-01-20T00:00:00	2024-11-08T13:00:00	1	Precipitación	0
14948	7	Sololá	710	Panajachel	8	Panajachel	1	Enero	2023-01-20T00:00:00	2024-11-08T13:00:00	8	Radiación solar	819
14949	7	Sololá	710	Panajachel	8	Panajachel	1	Enero	2023-01-20T00:00:00	2024-11-08T14:00:00	2	Temperatura media	23.7
14950	7	Sololá	710	Panajachel	8	Panajachel	1	Enero	2023-01-20T00:00:00	2024-11-08T14:00:00	4	Temperatura máxima	26.2
14951	7	Sololá	710	Panajachel	8	Panajachel	1	Enero	2023-01-20T00:00:00	2024-11-08T14:00:00	3	Temperatura mínima	23.6
14952	7	Sololá	710	Panajachel	8	Panajachel	1	Enero	2023-01-20T00:00:00	2024-11-08T14:00:00	5	Humedad	68
14953	7	Sololá	710	Panajachel	8	Panajachel	1	Enero	2023-01-20T00:00:00	2024-11-08T14:00:00	6	Velocidad del viento	3.2
14954	7	Sololá	710	Panajachel	8	Panajachel	1	Enero	2023-01-20T00:00:00	2024-11-08T14:00:00	7	Dirección del viento	3.22
14955	7	Sololá	710	Panajachel	8	Panajachel	1	Enero	2023-01-20T00:00:00	2024-11-08T14:00:00	1	Precipitación	0
14956	7	Sololá	710	Panajachel	8	Panajachel	1	Enero	2023-01-20T00:00:00	2024-11-08T14:00:00	8	Radiación solar	761
14957	7	Sololá	710	Panajachel	8	Panajachel	1	Enero	2023-01-20T00:00:00	2024-11-08T15:00:00	2	Temperatura media	22.8
14958	7	Sololá	710	Panajachel	8	Panajachel	1	Enero	2023-01-20T00:00:00	2024-11-08T15:00:00	4	Temperatura máxima	23.8
14959	7	Sololá	710	Panajachel	8	Panajachel	1	Enero	2023-01-20T00:00:00	2024-11-08T15:00:00	3	Temperatura mínima	22.8
14960	7	Sololá	710	Panajachel	8	Panajachel	1	Enero	2023-01-20T00:00:00	2024-11-08T15:00:00	5	Humedad	71
14961	7	Sololá	710	Panajachel	8	Panajachel	1	Enero	2023-01-20T00:00:00	2024-11-08T15:00:00	6	Velocidad del viento	3.2
14962	7	Sololá	710	Panajachel	8	Panajachel	1	Enero	2023-01-20T00:00:00	2024-11-08T15:00:00	7	Dirección del viento	3.22
14963	7	Sololá	710	Panajachel	8	Panajachel	1	Enero	2023-01-20T00:00:00	2024-11-08T15:00:00	1	Precipitación	0
14964	7	Sololá	710	Panajachel	8	Panajachel	1	Enero	2023-01-20T00:00:00	2024-11-08T15:00:00	8	Radiación solar	624
14965	7	Sololá	710	Panajachel	8	Panajachel	1	Enero	2023-01-20T00:00:00	2024-11-08T16:00:00	2	Temperatura media	22.2
14966	7	Sololá	710	Panajachel	8	Panajachel	1	Enero	2023-01-20T00:00:00	2024-11-08T16:00:00	4	Temperatura máxima	22.9
14967	7	Sololá	710	Panajachel	8	Panajachel	1	Enero	2023-01-20T00:00:00	2024-11-08T16:00:00	3	Temperatura mínima	21.9
14968	7	Sololá	710	Panajachel	8	Panajachel	1	Enero	2023-01-20T00:00:00	2024-11-08T16:00:00	5	Humedad	71
14969	7	Sololá	710	Panajachel	8	Panajachel	1	Enero	2023-01-20T00:00:00	2024-11-08T16:00:00	6	Velocidad del viento	4.8
14970	7	Sololá	710	Panajachel	8	Panajachel	1	Enero	2023-01-20T00:00:00	2024-11-08T16:00:00	7	Dirección del viento	4.83
14971	7	Sololá	710	Panajachel	8	Panajachel	1	Enero	2023-01-20T00:00:00	2024-11-08T16:00:00	1	Precipitación	0
14972	7	Sololá	710	Panajachel	8	Panajachel	1	Enero	2023-01-20T00:00:00	2024-11-08T16:00:00	8	Radiación solar	451
14973	7	Sololá	710	Panajachel	8	Panajachel	1	Enero	2023-01-20T00:00:00	2024-11-08T17:00:00	2	Temperatura media	20.6
14974	7	Sololá	710	Panajachel	8	Panajachel	1	Enero	2023-01-20T00:00:00	2024-11-08T17:00:00	4	Temperatura máxima	22.3
14975	7	Sololá	710	Panajachel	8	Panajachel	1	Enero	2023-01-20T00:00:00	2024-11-08T17:00:00	3	Temperatura mínima	20.5
14976	7	Sololá	710	Panajachel	8	Panajachel	1	Enero	2023-01-20T00:00:00	2024-11-08T17:00:00	5	Humedad	78
14977	7	Sololá	710	Panajachel	8	Panajachel	1	Enero	2023-01-20T00:00:00	2024-11-08T17:00:00	6	Velocidad del viento	6.4
14978	7	Sololá	710	Panajachel	8	Panajachel	1	Enero	2023-01-20T00:00:00	2024-11-08T17:00:00	7	Dirección del viento	6.44
14979	7	Sololá	710	Panajachel	8	Panajachel	1	Enero	2023-01-20T00:00:00	2024-11-08T17:00:00	1	Precipitación	0
14980	7	Sololá	710	Panajachel	8	Panajachel	1	Enero	2023-01-20T00:00:00	2024-11-08T17:00:00	8	Radiación solar	234
14981	7	Sololá	710	Panajachel	8	Panajachel	1	Enero	2023-01-20T00:00:00	2024-11-08T18:00:00	2	Temperatura media	19.6
14982	7	Sololá	710	Panajachel	8	Panajachel	1	Enero	2023-01-20T00:00:00	2024-11-08T18:00:00	4	Temperatura máxima	20.6
14983	7	Sololá	710	Panajachel	8	Panajachel	1	Enero	2023-01-20T00:00:00	2024-11-08T18:00:00	3	Temperatura mínima	19.6
14984	7	Sololá	710	Panajachel	8	Panajachel	1	Enero	2023-01-20T00:00:00	2024-11-08T18:00:00	5	Humedad	81
14985	7	Sololá	710	Panajachel	8	Panajachel	1	Enero	2023-01-20T00:00:00	2024-11-08T18:00:00	6	Velocidad del viento	1.6
14986	7	Sololá	710	Panajachel	8	Panajachel	1	Enero	2023-01-20T00:00:00	2024-11-08T18:00:00	7	Dirección del viento	1.61
14987	7	Sololá	710	Panajachel	8	Panajachel	1	Enero	2023-01-20T00:00:00	2024-11-08T18:00:00	1	Precipitación	0
14988	7	Sololá	710	Panajachel	8	Panajachel	1	Enero	2023-01-20T00:00:00	2024-11-08T18:00:00	8	Radiación solar	54
14989	7	Sololá	710	Panajachel	8	Panajachel	1	Enero	2023-01-20T00:00:00	2024-11-08T19:00:00	2	Temperatura media	17.8
14990	7	Sololá	710	Panajachel	8	Panajachel	1	Enero	2023-01-20T00:00:00	2024-11-08T19:00:00	4	Temperatura máxima	19.6
14991	7	Sololá	710	Panajachel	8	Panajachel	1	Enero	2023-01-20T00:00:00	2024-11-08T19:00:00	3	Temperatura mínima	17.8
14992	7	Sololá	710	Panajachel	8	Panajachel	1	Enero	2023-01-20T00:00:00	2024-11-08T19:00:00	5	Humedad	85
14993	7	Sololá	710	Panajachel	8	Panajachel	1	Enero	2023-01-20T00:00:00	2024-11-08T19:00:00	6	Velocidad del viento	0
14994	7	Sololá	710	Panajachel	8	Panajachel	1	Enero	2023-01-20T00:00:00	2024-11-08T19:00:00	7	Dirección del viento	0
14995	7	Sololá	710	Panajachel	8	Panajachel	1	Enero	2023-01-20T00:00:00	2024-11-08T19:00:00	1	Precipitación	0
14996	7	Sololá	710	Panajachel	8	Panajachel	1	Enero	2023-01-20T00:00:00	2024-11-08T19:00:00	8	Radiación solar	0
14997	7	Sololá	710	Panajachel	8	Panajachel	1	Enero	2023-01-20T00:00:00	2024-11-08T20:00:00	2	Temperatura media	16.8
14998	7	Sololá	710	Panajachel	8	Panajachel	1	Enero	2023-01-20T00:00:00	2024-11-08T20:00:00	4	Temperatura máxima	17.8
14999	7	Sololá	710	Panajachel	8	Panajachel	1	Enero	2023-01-20T00:00:00	2024-11-08T20:00:00	3	Temperatura mínima	16.7
15000	7	Sololá	710	Panajachel	8	Panajachel	1	Enero	2023-01-20T00:00:00	2024-11-08T20:00:00	5	Humedad	76
15001	7	Sololá	710	Panajachel	8	Panajachel	1	Enero	2023-01-20T00:00:00	2024-11-08T20:00:00	6	Velocidad del viento	1.6
15002	7	Sololá	710	Panajachel	8	Panajachel	1	Enero	2023-01-20T00:00:00	2024-11-08T20:00:00	7	Dirección del viento	1.61
15003	7	Sololá	710	Panajachel	8	Panajachel	1	Enero	2023-01-20T00:00:00	2024-11-08T20:00:00	1	Precipitación	0
15004	7	Sololá	710	Panajachel	8	Panajachel	1	Enero	2023-01-20T00:00:00	2024-11-08T20:00:00	8	Radiación solar	0
15005	7	Sololá	710	Panajachel	8	Panajachel	1	Enero	2023-01-20T00:00:00	2024-11-08T21:00:00	2	Temperatura media	16.6
15006	7	Sololá	710	Panajachel	8	Panajachel	1	Enero	2023-01-20T00:00:00	2024-11-08T21:00:00	4	Temperatura máxima	16.8
15007	7	Sololá	710	Panajachel	8	Panajachel	1	Enero	2023-01-20T00:00:00	2024-11-08T21:00:00	3	Temperatura mínima	16.6
15008	7	Sololá	710	Panajachel	8	Panajachel	1	Enero	2023-01-20T00:00:00	2024-11-08T21:00:00	5	Humedad	77
15009	7	Sololá	710	Panajachel	8	Panajachel	1	Enero	2023-01-20T00:00:00	2024-11-08T21:00:00	6	Velocidad del viento	1.6
15010	7	Sololá	710	Panajachel	8	Panajachel	1	Enero	2023-01-20T00:00:00	2024-11-08T21:00:00	7	Dirección del viento	1.61
15011	7	Sololá	710	Panajachel	8	Panajachel	1	Enero	2023-01-20T00:00:00	2024-11-08T21:00:00	1	Precipitación	0
15012	7	Sololá	710	Panajachel	8	Panajachel	1	Enero	2023-01-20T00:00:00	2024-11-08T21:00:00	8	Radiación solar	0
15013	7	Sololá	710	Panajachel	8	Panajachel	1	Enero	2023-01-20T00:00:00	2024-11-08T22:00:00	2	Temperatura media	17
15014	7	Sololá	710	Panajachel	8	Panajachel	1	Enero	2023-01-20T00:00:00	2024-11-08T22:00:00	4	Temperatura máxima	17.1
15015	7	Sololá	710	Panajachel	8	Panajachel	1	Enero	2023-01-20T00:00:00	2024-11-08T22:00:00	3	Temperatura mínima	16.4
15016	7	Sololá	710	Panajachel	8	Panajachel	1	Enero	2023-01-20T00:00:00	2024-11-08T22:00:00	5	Humedad	78
15017	7	Sololá	710	Panajachel	8	Panajachel	1	Enero	2023-01-20T00:00:00	2024-11-08T22:00:00	6	Velocidad del viento	1.6
15018	7	Sololá	710	Panajachel	8	Panajachel	1	Enero	2023-01-20T00:00:00	2024-11-08T22:00:00	7	Dirección del viento	1.61
15019	7	Sololá	710	Panajachel	8	Panajachel	1	Enero	2023-01-20T00:00:00	2024-11-08T22:00:00	1	Precipitación	0
15020	7	Sololá	710	Panajachel	8	Panajachel	1	Enero	2023-01-20T00:00:00	2024-11-08T22:00:00	8	Radiación solar	0
15021	7	Sololá	710	Panajachel	8	Panajachel	1	Enero	2023-01-20T00:00:00	2024-11-08T23:00:00	2	Temperatura media	17.3
15022	7	Sololá	710	Panajachel	8	Panajachel	1	Enero	2023-01-20T00:00:00	2024-11-08T23:00:00	4	Temperatura máxima	17.3
15023	7	Sololá	710	Panajachel	8	Panajachel	1	Enero	2023-01-20T00:00:00	2024-11-08T23:00:00	3	Temperatura mínima	16.5
15024	7	Sololá	710	Panajachel	8	Panajachel	1	Enero	2023-01-20T00:00:00	2024-11-08T23:00:00	5	Humedad	77
15025	7	Sololá	710	Panajachel	8	Panajachel	1	Enero	2023-01-20T00:00:00	2024-11-08T23:00:00	6	Velocidad del viento	0
15026	7	Sololá	710	Panajachel	8	Panajachel	1	Enero	2023-01-20T00:00:00	2024-11-08T23:00:00	7	Dirección del viento	0
15027	7	Sololá	710	Panajachel	8	Panajachel	1	Enero	2023-01-20T00:00:00	2024-11-08T23:00:00	1	Precipitación	0
15028	7	Sololá	710	Panajachel	8	Panajachel	1	Enero	2023-01-20T00:00:00	2024-11-08T23:00:00	8	Radiación solar	0
15029	7	Sololá	710	Panajachel	8	Panajachel	1	Enero	2023-01-21T00:00:00	2024-11-08T00:00:00	2	Temperatura media	16.9
15030	7	Sololá	710	Panajachel	8	Panajachel	1	Enero	2023-01-21T00:00:00	2024-11-08T00:00:00	4	Temperatura máxima	17.3
15031	7	Sololá	710	Panajachel	8	Panajachel	1	Enero	2023-01-21T00:00:00	2024-11-08T00:00:00	3	Temperatura mínima	16.7
15032	7	Sololá	710	Panajachel	8	Panajachel	1	Enero	2023-01-21T00:00:00	2024-11-08T00:00:00	5	Humedad	77
15033	7	Sololá	710	Panajachel	8	Panajachel	1	Enero	2023-01-21T00:00:00	2024-11-08T00:00:00	6	Velocidad del viento	0
15034	7	Sololá	710	Panajachel	8	Panajachel	1	Enero	2023-01-21T00:00:00	2024-11-08T00:00:00	7	Dirección del viento	0
15035	7	Sololá	710	Panajachel	8	Panajachel	1	Enero	2023-01-21T00:00:00	2024-11-08T00:00:00	1	Precipitación	0
15036	7	Sololá	710	Panajachel	8	Panajachel	1	Enero	2023-01-21T00:00:00	2024-11-08T00:00:00	8	Radiación solar	0
15037	7	Sololá	710	Panajachel	8	Panajachel	1	Enero	2023-01-21T00:00:00	2024-11-08T01:00:00	2	Temperatura media	16.3
15038	7	Sololá	710	Panajachel	8	Panajachel	1	Enero	2023-01-21T00:00:00	2024-11-08T01:00:00	4	Temperatura máxima	17.2
15039	7	Sololá	710	Panajachel	8	Panajachel	1	Enero	2023-01-21T00:00:00	2024-11-08T01:00:00	3	Temperatura mínima	16.3
15040	7	Sololá	710	Panajachel	8	Panajachel	1	Enero	2023-01-21T00:00:00	2024-11-08T01:00:00	5	Humedad	79
15041	7	Sololá	710	Panajachel	8	Panajachel	1	Enero	2023-01-21T00:00:00	2024-11-08T01:00:00	6	Velocidad del viento	0
15042	7	Sololá	710	Panajachel	8	Panajachel	1	Enero	2023-01-21T00:00:00	2024-11-08T01:00:00	7	Dirección del viento	0
15043	7	Sololá	710	Panajachel	8	Panajachel	1	Enero	2023-01-21T00:00:00	2024-11-08T01:00:00	1	Precipitación	0
15044	7	Sololá	710	Panajachel	8	Panajachel	1	Enero	2023-01-21T00:00:00	2024-11-08T01:00:00	8	Radiación solar	0
15045	7	Sololá	710	Panajachel	8	Panajachel	1	Enero	2023-01-21T00:00:00	2024-11-08T02:00:00	2	Temperatura media	15.4
15046	7	Sololá	710	Panajachel	8	Panajachel	1	Enero	2023-01-21T00:00:00	2024-11-08T02:00:00	4	Temperatura máxima	16.5
15047	7	Sololá	710	Panajachel	8	Panajachel	1	Enero	2023-01-21T00:00:00	2024-11-08T02:00:00	3	Temperatura mínima	15.4
15048	7	Sololá	710	Panajachel	8	Panajachel	1	Enero	2023-01-21T00:00:00	2024-11-08T02:00:00	5	Humedad	81
15049	7	Sololá	710	Panajachel	8	Panajachel	1	Enero	2023-01-21T00:00:00	2024-11-08T02:00:00	6	Velocidad del viento	0
15050	7	Sololá	710	Panajachel	8	Panajachel	1	Enero	2023-01-21T00:00:00	2024-11-08T02:00:00	7	Dirección del viento	0
15051	7	Sololá	710	Panajachel	8	Panajachel	1	Enero	2023-01-21T00:00:00	2024-11-08T02:00:00	1	Precipitación	0
15052	7	Sololá	710	Panajachel	8	Panajachel	1	Enero	2023-01-21T00:00:00	2024-11-08T02:00:00	8	Radiación solar	0
15053	7	Sololá	710	Panajachel	8	Panajachel	1	Enero	2023-01-21T00:00:00	2024-11-08T03:00:00	2	Temperatura media	14.5
15054	7	Sololá	710	Panajachel	8	Panajachel	1	Enero	2023-01-21T00:00:00	2024-11-08T03:00:00	4	Temperatura máxima	15.4
15055	7	Sololá	710	Panajachel	8	Panajachel	1	Enero	2023-01-21T00:00:00	2024-11-08T03:00:00	3	Temperatura mínima	14.4
15056	7	Sololá	710	Panajachel	8	Panajachel	1	Enero	2023-01-21T00:00:00	2024-11-08T03:00:00	5	Humedad	83
15057	7	Sololá	710	Panajachel	8	Panajachel	1	Enero	2023-01-21T00:00:00	2024-11-08T03:00:00	6	Velocidad del viento	0
15058	7	Sololá	710	Panajachel	8	Panajachel	1	Enero	2023-01-21T00:00:00	2024-11-08T03:00:00	7	Dirección del viento	0
15059	7	Sololá	710	Panajachel	8	Panajachel	1	Enero	2023-01-21T00:00:00	2024-11-08T03:00:00	1	Precipitación	0
15060	7	Sololá	710	Panajachel	8	Panajachel	1	Enero	2023-01-21T00:00:00	2024-11-08T03:00:00	8	Radiación solar	0
15061	7	Sololá	710	Panajachel	8	Panajachel	1	Enero	2023-01-21T00:00:00	2024-11-08T04:00:00	2	Temperatura media	14.3
15062	7	Sololá	710	Panajachel	8	Panajachel	1	Enero	2023-01-21T00:00:00	2024-11-08T04:00:00	4	Temperatura máxima	14.6
15063	7	Sololá	710	Panajachel	8	Panajachel	1	Enero	2023-01-21T00:00:00	2024-11-08T04:00:00	3	Temperatura mínima	14.2
15064	7	Sololá	710	Panajachel	8	Panajachel	1	Enero	2023-01-21T00:00:00	2024-11-08T04:00:00	5	Humedad	83
15065	7	Sololá	710	Panajachel	8	Panajachel	1	Enero	2023-01-21T00:00:00	2024-11-08T04:00:00	6	Velocidad del viento	0
15066	7	Sololá	710	Panajachel	8	Panajachel	1	Enero	2023-01-21T00:00:00	2024-11-08T04:00:00	7	Dirección del viento	0
15067	7	Sololá	710	Panajachel	8	Panajachel	1	Enero	2023-01-21T00:00:00	2024-11-08T04:00:00	1	Precipitación	0
15068	7	Sololá	710	Panajachel	8	Panajachel	1	Enero	2023-01-21T00:00:00	2024-11-08T04:00:00	8	Radiación solar	0
15069	7	Sololá	710	Panajachel	8	Panajachel	1	Enero	2023-01-21T00:00:00	2024-11-08T05:00:00	2	Temperatura media	14.7
15070	7	Sololá	710	Panajachel	8	Panajachel	1	Enero	2023-01-21T00:00:00	2024-11-08T05:00:00	4	Temperatura máxima	15.2
15071	7	Sololá	710	Panajachel	8	Panajachel	1	Enero	2023-01-21T00:00:00	2024-11-08T05:00:00	3	Temperatura mínima	14.3
15072	7	Sololá	710	Panajachel	8	Panajachel	1	Enero	2023-01-21T00:00:00	2024-11-08T05:00:00	5	Humedad	81
15073	7	Sololá	710	Panajachel	8	Panajachel	1	Enero	2023-01-21T00:00:00	2024-11-08T05:00:00	6	Velocidad del viento	1.6
15074	7	Sololá	710	Panajachel	8	Panajachel	1	Enero	2023-01-21T00:00:00	2024-11-08T05:00:00	7	Dirección del viento	1.61
15075	7	Sololá	710	Panajachel	8	Panajachel	1	Enero	2023-01-21T00:00:00	2024-11-08T05:00:00	1	Precipitación	0
15076	7	Sololá	710	Panajachel	8	Panajachel	1	Enero	2023-01-21T00:00:00	2024-11-08T05:00:00	8	Radiación solar	0
15077	7	Sololá	710	Panajachel	8	Panajachel	1	Enero	2023-01-21T00:00:00	2024-11-08T06:00:00	2	Temperatura media	14.2
15078	7	Sololá	710	Panajachel	8	Panajachel	1	Enero	2023-01-21T00:00:00	2024-11-08T06:00:00	4	Temperatura máxima	14.8
15079	7	Sololá	710	Panajachel	8	Panajachel	1	Enero	2023-01-21T00:00:00	2024-11-08T06:00:00	3	Temperatura mínima	14.1
15080	7	Sololá	710	Panajachel	8	Panajachel	1	Enero	2023-01-21T00:00:00	2024-11-08T06:00:00	5	Humedad	81
15081	7	Sololá	710	Panajachel	8	Panajachel	1	Enero	2023-01-21T00:00:00	2024-11-08T06:00:00	6	Velocidad del viento	1.6
15082	7	Sololá	710	Panajachel	8	Panajachel	1	Enero	2023-01-21T00:00:00	2024-11-08T06:00:00	7	Dirección del viento	1.61
15083	7	Sololá	710	Panajachel	8	Panajachel	1	Enero	2023-01-21T00:00:00	2024-11-08T06:00:00	1	Precipitación	0
15084	7	Sololá	710	Panajachel	8	Panajachel	1	Enero	2023-01-21T00:00:00	2024-11-08T06:00:00	8	Radiación solar	0
15085	7	Sololá	710	Panajachel	8	Panajachel	1	Enero	2023-01-21T00:00:00	2024-11-08T07:00:00	2	Temperatura media	14.1
15086	7	Sololá	710	Panajachel	8	Panajachel	1	Enero	2023-01-21T00:00:00	2024-11-08T07:00:00	4	Temperatura máxima	14.2
15087	7	Sololá	710	Panajachel	8	Panajachel	1	Enero	2023-01-21T00:00:00	2024-11-08T07:00:00	3	Temperatura mínima	13.8
15088	7	Sololá	710	Panajachel	8	Panajachel	1	Enero	2023-01-21T00:00:00	2024-11-08T07:00:00	5	Humedad	82
15089	7	Sololá	710	Panajachel	8	Panajachel	1	Enero	2023-01-21T00:00:00	2024-11-08T07:00:00	6	Velocidad del viento	4.8
15090	7	Sololá	710	Panajachel	8	Panajachel	1	Enero	2023-01-21T00:00:00	2024-11-08T07:00:00	7	Dirección del viento	4.83
15091	7	Sololá	710	Panajachel	8	Panajachel	1	Enero	2023-01-21T00:00:00	2024-11-08T07:00:00	1	Precipitación	0
15092	7	Sololá	710	Panajachel	8	Panajachel	1	Enero	2023-01-21T00:00:00	2024-11-08T07:00:00	8	Radiación solar	3
15093	7	Sololá	710	Panajachel	8	Panajachel	1	Enero	2023-01-21T00:00:00	2024-11-08T08:00:00	2	Temperatura media	15.1
15094	7	Sololá	710	Panajachel	8	Panajachel	1	Enero	2023-01-21T00:00:00	2024-11-08T08:00:00	4	Temperatura máxima	15.1
15095	7	Sololá	710	Panajachel	8	Panajachel	1	Enero	2023-01-21T00:00:00	2024-11-08T08:00:00	3	Temperatura mínima	14.1
15096	7	Sololá	710	Panajachel	8	Panajachel	1	Enero	2023-01-21T00:00:00	2024-11-08T08:00:00	5	Humedad	79
15097	7	Sololá	710	Panajachel	8	Panajachel	1	Enero	2023-01-21T00:00:00	2024-11-08T08:00:00	6	Velocidad del viento	9.7
15098	7	Sololá	710	Panajachel	8	Panajachel	1	Enero	2023-01-21T00:00:00	2024-11-08T08:00:00	7	Dirección del viento	9.66
15099	7	Sololá	710	Panajachel	8	Panajachel	1	Enero	2023-01-21T00:00:00	2024-11-08T08:00:00	1	Precipitación	0
15100	7	Sololá	710	Panajachel	8	Panajachel	1	Enero	2023-01-21T00:00:00	2024-11-08T08:00:00	8	Radiación solar	34
15101	7	Sololá	710	Panajachel	8	Panajachel	1	Enero	2023-01-21T00:00:00	2024-11-08T09:00:00	2	Temperatura media	19.1
15102	7	Sololá	710	Panajachel	8	Panajachel	1	Enero	2023-01-21T00:00:00	2024-11-08T09:00:00	4	Temperatura máxima	19.1
15103	7	Sololá	710	Panajachel	8	Panajachel	1	Enero	2023-01-21T00:00:00	2024-11-08T09:00:00	3	Temperatura mínima	15
15104	7	Sololá	710	Panajachel	8	Panajachel	1	Enero	2023-01-21T00:00:00	2024-11-08T09:00:00	5	Humedad	72
15105	7	Sololá	710	Panajachel	8	Panajachel	1	Enero	2023-01-21T00:00:00	2024-11-08T09:00:00	6	Velocidad del viento	3.2
15106	7	Sololá	710	Panajachel	8	Panajachel	1	Enero	2023-01-21T00:00:00	2024-11-08T09:00:00	7	Dirección del viento	3.22
15107	7	Sololá	710	Panajachel	8	Panajachel	1	Enero	2023-01-21T00:00:00	2024-11-08T09:00:00	1	Precipitación	0
15108	7	Sololá	710	Panajachel	8	Panajachel	1	Enero	2023-01-21T00:00:00	2024-11-08T09:00:00	8	Radiación solar	342
15109	7	Sololá	710	Panajachel	8	Panajachel	1	Enero	2023-01-21T00:00:00	2024-11-08T10:00:00	2	Temperatura media	20
15110	7	Sololá	710	Panajachel	8	Panajachel	1	Enero	2023-01-21T00:00:00	2024-11-08T10:00:00	4	Temperatura máxima	20
15111	7	Sololá	710	Panajachel	8	Panajachel	1	Enero	2023-01-21T00:00:00	2024-11-08T10:00:00	3	Temperatura mínima	18.9
15112	7	Sololá	710	Panajachel	8	Panajachel	1	Enero	2023-01-21T00:00:00	2024-11-08T10:00:00	5	Humedad	70
15113	7	Sololá	710	Panajachel	8	Panajachel	1	Enero	2023-01-21T00:00:00	2024-11-08T10:00:00	6	Velocidad del viento	1.6
15114	7	Sololá	710	Panajachel	8	Panajachel	1	Enero	2023-01-21T00:00:00	2024-11-08T10:00:00	7	Dirección del viento	1.61
15115	7	Sololá	710	Panajachel	8	Panajachel	1	Enero	2023-01-21T00:00:00	2024-11-08T10:00:00	1	Precipitación	0
15116	7	Sololá	710	Panajachel	8	Panajachel	1	Enero	2023-01-21T00:00:00	2024-11-08T10:00:00	8	Radiación solar	547
15117	7	Sololá	710	Panajachel	8	Panajachel	1	Enero	2023-01-21T00:00:00	2024-11-08T11:00:00	2	Temperatura media	20.8
15118	7	Sololá	710	Panajachel	8	Panajachel	1	Enero	2023-01-21T00:00:00	2024-11-08T11:00:00	4	Temperatura máxima	21.1
15119	7	Sololá	710	Panajachel	8	Panajachel	1	Enero	2023-01-21T00:00:00	2024-11-08T11:00:00	3	Temperatura mínima	20
15120	7	Sololá	710	Panajachel	8	Panajachel	1	Enero	2023-01-21T00:00:00	2024-11-08T11:00:00	5	Humedad	70
15121	7	Sololá	710	Panajachel	8	Panajachel	1	Enero	2023-01-21T00:00:00	2024-11-08T11:00:00	6	Velocidad del viento	4.8
15122	7	Sololá	710	Panajachel	8	Panajachel	1	Enero	2023-01-21T00:00:00	2024-11-08T11:00:00	7	Dirección del viento	4.83
15123	7	Sololá	710	Panajachel	8	Panajachel	1	Enero	2023-01-21T00:00:00	2024-11-08T11:00:00	1	Precipitación	0
15124	7	Sololá	710	Panajachel	8	Panajachel	1	Enero	2023-01-21T00:00:00	2024-11-08T11:00:00	8	Radiación solar	699
15125	7	Sololá	710	Panajachel	8	Panajachel	1	Enero	2023-01-21T00:00:00	2024-11-08T12:00:00	2	Temperatura media	22.1
15126	7	Sololá	710	Panajachel	8	Panajachel	1	Enero	2023-01-21T00:00:00	2024-11-08T12:00:00	4	Temperatura máxima	22.2
15127	7	Sololá	710	Panajachel	8	Panajachel	1	Enero	2023-01-21T00:00:00	2024-11-08T12:00:00	3	Temperatura mínima	20.8
15128	7	Sololá	710	Panajachel	8	Panajachel	1	Enero	2023-01-21T00:00:00	2024-11-08T12:00:00	5	Humedad	69
15129	7	Sololá	710	Panajachel	8	Panajachel	1	Enero	2023-01-21T00:00:00	2024-11-08T12:00:00	6	Velocidad del viento	3.2
15130	7	Sololá	710	Panajachel	8	Panajachel	1	Enero	2023-01-21T00:00:00	2024-11-08T12:00:00	7	Dirección del viento	3.22
15131	7	Sololá	710	Panajachel	8	Panajachel	1	Enero	2023-01-21T00:00:00	2024-11-08T12:00:00	1	Precipitación	0
15132	7	Sololá	710	Panajachel	8	Panajachel	1	Enero	2023-01-21T00:00:00	2024-11-08T12:00:00	8	Radiación solar	772
15133	7	Sololá	710	Panajachel	8	Panajachel	1	Enero	2023-01-21T00:00:00	2024-11-08T13:00:00	2	Temperatura media	22.7
15134	7	Sololá	710	Panajachel	8	Panajachel	1	Enero	2023-01-21T00:00:00	2024-11-08T13:00:00	4	Temperatura máxima	22.9
15135	7	Sololá	710	Panajachel	8	Panajachel	1	Enero	2023-01-21T00:00:00	2024-11-08T13:00:00	3	Temperatura mínima	21.9
15136	7	Sololá	710	Panajachel	8	Panajachel	1	Enero	2023-01-21T00:00:00	2024-11-08T13:00:00	5	Humedad	73
15137	7	Sololá	710	Panajachel	8	Panajachel	1	Enero	2023-01-21T00:00:00	2024-11-08T13:00:00	6	Velocidad del viento	4.8
15138	7	Sololá	710	Panajachel	8	Panajachel	1	Enero	2023-01-21T00:00:00	2024-11-08T13:00:00	7	Dirección del viento	4.83
15139	7	Sololá	710	Panajachel	8	Panajachel	1	Enero	2023-01-21T00:00:00	2024-11-08T13:00:00	1	Precipitación	0
15140	7	Sololá	710	Panajachel	8	Panajachel	1	Enero	2023-01-21T00:00:00	2024-11-08T13:00:00	8	Radiación solar	792
15141	7	Sololá	710	Panajachel	8	Panajachel	1	Enero	2023-01-21T00:00:00	2024-11-08T14:00:00	2	Temperatura media	21.9
15142	7	Sololá	710	Panajachel	8	Panajachel	1	Enero	2023-01-21T00:00:00	2024-11-08T14:00:00	4	Temperatura máxima	23.3
15143	7	Sololá	710	Panajachel	8	Panajachel	1	Enero	2023-01-21T00:00:00	2024-11-08T14:00:00	3	Temperatura mínima	21.4
15144	7	Sololá	710	Panajachel	8	Panajachel	1	Enero	2023-01-21T00:00:00	2024-11-08T14:00:00	5	Humedad	78
15145	7	Sololá	710	Panajachel	8	Panajachel	1	Enero	2023-01-21T00:00:00	2024-11-08T14:00:00	6	Velocidad del viento	4.8
15146	7	Sololá	710	Panajachel	8	Panajachel	1	Enero	2023-01-21T00:00:00	2024-11-08T14:00:00	7	Dirección del viento	4.83
15147	7	Sololá	710	Panajachel	8	Panajachel	1	Enero	2023-01-21T00:00:00	2024-11-08T14:00:00	1	Precipitación	0
15148	7	Sololá	710	Panajachel	8	Panajachel	1	Enero	2023-01-21T00:00:00	2024-11-08T14:00:00	8	Radiación solar	617
15149	7	Sololá	710	Panajachel	8	Panajachel	1	Enero	2023-01-21T00:00:00	2024-11-08T15:00:00	2	Temperatura media	20.7
15150	7	Sololá	710	Panajachel	8	Panajachel	1	Enero	2023-01-21T00:00:00	2024-11-08T15:00:00	4	Temperatura máxima	21.9
15151	7	Sololá	710	Panajachel	8	Panajachel	1	Enero	2023-01-21T00:00:00	2024-11-08T15:00:00	3	Temperatura mínima	20.6
15152	7	Sololá	710	Panajachel	8	Panajachel	1	Enero	2023-01-21T00:00:00	2024-11-08T15:00:00	5	Humedad	79
15153	7	Sololá	710	Panajachel	8	Panajachel	1	Enero	2023-01-21T00:00:00	2024-11-08T15:00:00	6	Velocidad del viento	6.4
15154	7	Sololá	710	Panajachel	8	Panajachel	1	Enero	2023-01-21T00:00:00	2024-11-08T15:00:00	7	Dirección del viento	6.44
15155	7	Sololá	710	Panajachel	8	Panajachel	1	Enero	2023-01-21T00:00:00	2024-11-08T15:00:00	1	Precipitación	0
15156	7	Sololá	710	Panajachel	8	Panajachel	1	Enero	2023-01-21T00:00:00	2024-11-08T15:00:00	8	Radiación solar	186
15157	7	Sololá	710	Panajachel	8	Panajachel	1	Enero	2023-01-21T00:00:00	2024-11-08T16:00:00	2	Temperatura media	20.8
15158	7	Sololá	710	Panajachel	8	Panajachel	1	Enero	2023-01-21T00:00:00	2024-11-08T16:00:00	4	Temperatura máxima	21.2
15159	7	Sololá	710	Panajachel	8	Panajachel	1	Enero	2023-01-21T00:00:00	2024-11-08T16:00:00	3	Temperatura mínima	20.6
15160	7	Sololá	710	Panajachel	8	Panajachel	1	Enero	2023-01-21T00:00:00	2024-11-08T16:00:00	5	Humedad	79
15161	7	Sololá	710	Panajachel	8	Panajachel	1	Enero	2023-01-21T00:00:00	2024-11-08T16:00:00	6	Velocidad del viento	4.8
15162	7	Sololá	710	Panajachel	8	Panajachel	1	Enero	2023-01-21T00:00:00	2024-11-08T16:00:00	7	Dirección del viento	4.83
15163	7	Sololá	710	Panajachel	8	Panajachel	1	Enero	2023-01-21T00:00:00	2024-11-08T16:00:00	1	Precipitación	0
15164	7	Sololá	710	Panajachel	8	Panajachel	1	Enero	2023-01-21T00:00:00	2024-11-08T16:00:00	8	Radiación solar	159
15165	7	Sololá	710	Panajachel	8	Panajachel	1	Enero	2023-01-21T00:00:00	2024-11-08T17:00:00	2	Temperatura media	19.7
15166	7	Sololá	710	Panajachel	8	Panajachel	1	Enero	2023-01-21T00:00:00	2024-11-08T17:00:00	4	Temperatura máxima	20.9
15167	7	Sololá	710	Panajachel	8	Panajachel	1	Enero	2023-01-21T00:00:00	2024-11-08T17:00:00	3	Temperatura mínima	19.7
15168	7	Sololá	710	Panajachel	8	Panajachel	1	Enero	2023-01-21T00:00:00	2024-11-08T17:00:00	5	Humedad	83
15169	7	Sololá	710	Panajachel	8	Panajachel	1	Enero	2023-01-21T00:00:00	2024-11-08T17:00:00	6	Velocidad del viento	4.8
15170	7	Sololá	710	Panajachel	8	Panajachel	1	Enero	2023-01-21T00:00:00	2024-11-08T17:00:00	7	Dirección del viento	4.83
15171	7	Sololá	710	Panajachel	8	Panajachel	1	Enero	2023-01-21T00:00:00	2024-11-08T17:00:00	1	Precipitación	0
15172	7	Sololá	710	Panajachel	8	Panajachel	1	Enero	2023-01-21T00:00:00	2024-11-08T17:00:00	8	Radiación solar	93
15173	7	Sololá	710	Panajachel	8	Panajachel	1	Enero	2023-01-21T00:00:00	2024-11-08T18:00:00	2	Temperatura media	19.4
15174	7	Sololá	710	Panajachel	8	Panajachel	1	Enero	2023-01-21T00:00:00	2024-11-08T18:00:00	4	Temperatura máxima	19.7
15175	7	Sololá	710	Panajachel	8	Panajachel	1	Enero	2023-01-21T00:00:00	2024-11-08T18:00:00	3	Temperatura mínima	19.4
15176	7	Sololá	710	Panajachel	8	Panajachel	1	Enero	2023-01-21T00:00:00	2024-11-08T18:00:00	5	Humedad	85
15177	7	Sololá	710	Panajachel	8	Panajachel	1	Enero	2023-01-21T00:00:00	2024-11-08T18:00:00	6	Velocidad del viento	1.6
15178	7	Sololá	710	Panajachel	8	Panajachel	1	Enero	2023-01-21T00:00:00	2024-11-08T18:00:00	7	Dirección del viento	1.61
15179	7	Sololá	710	Panajachel	8	Panajachel	1	Enero	2023-01-21T00:00:00	2024-11-08T18:00:00	1	Precipitación	0
15180	7	Sololá	710	Panajachel	8	Panajachel	1	Enero	2023-01-21T00:00:00	2024-11-08T18:00:00	8	Radiación solar	28
15181	7	Sololá	710	Panajachel	8	Panajachel	1	Enero	2023-01-21T00:00:00	2024-11-08T19:00:00	2	Temperatura media	18.3
15182	7	Sololá	710	Panajachel	8	Panajachel	1	Enero	2023-01-21T00:00:00	2024-11-08T19:00:00	4	Temperatura máxima	19.4
15183	7	Sololá	710	Panajachel	8	Panajachel	1	Enero	2023-01-21T00:00:00	2024-11-08T19:00:00	3	Temperatura mínima	18.3
15184	7	Sololá	710	Panajachel	8	Panajachel	1	Enero	2023-01-21T00:00:00	2024-11-08T19:00:00	5	Humedad	88
15185	7	Sololá	710	Panajachel	8	Panajachel	1	Enero	2023-01-21T00:00:00	2024-11-08T19:00:00	6	Velocidad del viento	0
15186	7	Sololá	710	Panajachel	8	Panajachel	1	Enero	2023-01-21T00:00:00	2024-11-08T19:00:00	7	Dirección del viento	0
15187	7	Sololá	710	Panajachel	8	Panajachel	1	Enero	2023-01-21T00:00:00	2024-11-08T19:00:00	1	Precipitación	0
15188	7	Sololá	710	Panajachel	8	Panajachel	1	Enero	2023-01-21T00:00:00	2024-11-08T19:00:00	8	Radiación solar	0
15189	7	Sololá	710	Panajachel	8	Panajachel	1	Enero	2023-01-21T00:00:00	2024-11-08T20:00:00	2	Temperatura media	17.9
15190	7	Sololá	710	Panajachel	8	Panajachel	1	Enero	2023-01-21T00:00:00	2024-11-08T20:00:00	4	Temperatura máxima	18.3
15191	7	Sololá	710	Panajachel	8	Panajachel	1	Enero	2023-01-21T00:00:00	2024-11-08T20:00:00	3	Temperatura mínima	17.9
15192	7	Sololá	710	Panajachel	8	Panajachel	1	Enero	2023-01-21T00:00:00	2024-11-08T20:00:00	5	Humedad	90
15193	7	Sololá	710	Panajachel	8	Panajachel	1	Enero	2023-01-21T00:00:00	2024-11-08T20:00:00	6	Velocidad del viento	0
15194	7	Sololá	710	Panajachel	8	Panajachel	1	Enero	2023-01-21T00:00:00	2024-11-08T20:00:00	7	Dirección del viento	0
15195	7	Sololá	710	Panajachel	8	Panajachel	1	Enero	2023-01-21T00:00:00	2024-11-08T20:00:00	1	Precipitación	0
15196	7	Sololá	710	Panajachel	8	Panajachel	1	Enero	2023-01-21T00:00:00	2024-11-08T20:00:00	8	Radiación solar	0
15197	7	Sololá	710	Panajachel	8	Panajachel	1	Enero	2023-01-21T00:00:00	2024-11-08T21:00:00	2	Temperatura media	17
15198	7	Sololá	710	Panajachel	8	Panajachel	1	Enero	2023-01-21T00:00:00	2024-11-08T21:00:00	4	Temperatura máxima	17.9
15199	7	Sololá	710	Panajachel	8	Panajachel	1	Enero	2023-01-21T00:00:00	2024-11-08T21:00:00	3	Temperatura mínima	16.9
15200	7	Sololá	710	Panajachel	8	Panajachel	1	Enero	2023-01-21T00:00:00	2024-11-08T21:00:00	5	Humedad	87
15201	7	Sololá	710	Panajachel	8	Panajachel	1	Enero	2023-01-21T00:00:00	2024-11-08T21:00:00	6	Velocidad del viento	0
15202	7	Sololá	710	Panajachel	8	Panajachel	1	Enero	2023-01-21T00:00:00	2024-11-08T21:00:00	7	Dirección del viento	0
15203	7	Sololá	710	Panajachel	8	Panajachel	1	Enero	2023-01-21T00:00:00	2024-11-08T21:00:00	1	Precipitación	0
15204	7	Sololá	710	Panajachel	8	Panajachel	1	Enero	2023-01-21T00:00:00	2024-11-08T21:00:00	8	Radiación solar	0
15205	7	Sololá	710	Panajachel	8	Panajachel	1	Enero	2023-01-21T00:00:00	2024-11-08T22:00:00	2	Temperatura media	16.3
15206	7	Sololá	710	Panajachel	8	Panajachel	1	Enero	2023-01-21T00:00:00	2024-11-08T22:00:00	4	Temperatura máxima	16.9
15207	7	Sololá	710	Panajachel	8	Panajachel	1	Enero	2023-01-21T00:00:00	2024-11-08T22:00:00	3	Temperatura mínima	16.3
15208	7	Sololá	710	Panajachel	8	Panajachel	1	Enero	2023-01-21T00:00:00	2024-11-08T22:00:00	5	Humedad	83
15209	7	Sololá	710	Panajachel	8	Panajachel	1	Enero	2023-01-21T00:00:00	2024-11-08T22:00:00	6	Velocidad del viento	1.6
15210	7	Sololá	710	Panajachel	8	Panajachel	1	Enero	2023-01-21T00:00:00	2024-11-08T22:00:00	7	Dirección del viento	1.61
15211	7	Sololá	710	Panajachel	8	Panajachel	1	Enero	2023-01-21T00:00:00	2024-11-08T22:00:00	1	Precipitación	0
15212	7	Sololá	710	Panajachel	8	Panajachel	1	Enero	2023-01-21T00:00:00	2024-11-08T22:00:00	8	Radiación solar	0
15213	7	Sololá	710	Panajachel	8	Panajachel	1	Enero	2023-01-21T00:00:00	2024-11-08T23:00:00	2	Temperatura media	15.3
15214	7	Sololá	710	Panajachel	8	Panajachel	1	Enero	2023-01-21T00:00:00	2024-11-08T23:00:00	4	Temperatura máxima	16.3
15215	7	Sololá	710	Panajachel	8	Panajachel	1	Enero	2023-01-21T00:00:00	2024-11-08T23:00:00	3	Temperatura mínima	15.3
15216	7	Sololá	710	Panajachel	8	Panajachel	1	Enero	2023-01-21T00:00:00	2024-11-08T23:00:00	5	Humedad	80
15217	7	Sololá	710	Panajachel	8	Panajachel	1	Enero	2023-01-21T00:00:00	2024-11-08T23:00:00	6	Velocidad del viento	3.2
15218	7	Sololá	710	Panajachel	8	Panajachel	1	Enero	2023-01-21T00:00:00	2024-11-08T23:00:00	7	Dirección del viento	3.22
15219	7	Sololá	710	Panajachel	8	Panajachel	1	Enero	2023-01-21T00:00:00	2024-11-08T23:00:00	1	Precipitación	0
15220	7	Sololá	710	Panajachel	8	Panajachel	1	Enero	2023-01-21T00:00:00	2024-11-08T23:00:00	8	Radiación solar	0
15221	7	Sololá	710	Panajachel	8	Panajachel	1	Enero	2023-01-22T00:00:00	2024-11-08T00:00:00	2	Temperatura media	14.7
15222	7	Sololá	710	Panajachel	8	Panajachel	1	Enero	2023-01-22T00:00:00	2024-11-08T00:00:00	4	Temperatura máxima	15.4
15223	7	Sololá	710	Panajachel	8	Panajachel	1	Enero	2023-01-22T00:00:00	2024-11-08T00:00:00	3	Temperatura mínima	14.7
15224	7	Sololá	710	Panajachel	8	Panajachel	1	Enero	2023-01-22T00:00:00	2024-11-08T00:00:00	5	Humedad	75
15225	7	Sololá	710	Panajachel	8	Panajachel	1	Enero	2023-01-22T00:00:00	2024-11-08T00:00:00	6	Velocidad del viento	4.8
15226	7	Sololá	710	Panajachel	8	Panajachel	1	Enero	2023-01-22T00:00:00	2024-11-08T00:00:00	7	Dirección del viento	4.83
15227	7	Sololá	710	Panajachel	8	Panajachel	1	Enero	2023-01-22T00:00:00	2024-11-08T00:00:00	1	Precipitación	0
15228	7	Sololá	710	Panajachel	8	Panajachel	1	Enero	2023-01-22T00:00:00	2024-11-08T00:00:00	8	Radiación solar	0
15229	7	Sololá	710	Panajachel	8	Panajachel	1	Enero	2023-01-22T00:00:00	2024-11-08T01:00:00	2	Temperatura media	14.3
15230	7	Sololá	710	Panajachel	8	Panajachel	1	Enero	2023-01-22T00:00:00	2024-11-08T01:00:00	4	Temperatura máxima	14.8
15231	7	Sololá	710	Panajachel	8	Panajachel	1	Enero	2023-01-22T00:00:00	2024-11-08T01:00:00	3	Temperatura mínima	14.2
15232	7	Sololá	710	Panajachel	8	Panajachel	1	Enero	2023-01-22T00:00:00	2024-11-08T01:00:00	5	Humedad	75
15233	7	Sololá	710	Panajachel	8	Panajachel	1	Enero	2023-01-22T00:00:00	2024-11-08T01:00:00	6	Velocidad del viento	4.8
15234	7	Sololá	710	Panajachel	8	Panajachel	1	Enero	2023-01-22T00:00:00	2024-11-08T01:00:00	7	Dirección del viento	4.83
15235	7	Sololá	710	Panajachel	8	Panajachel	1	Enero	2023-01-22T00:00:00	2024-11-08T01:00:00	1	Precipitación	0
15236	7	Sololá	710	Panajachel	8	Panajachel	1	Enero	2023-01-22T00:00:00	2024-11-08T01:00:00	8	Radiación solar	0
15237	7	Sololá	710	Panajachel	8	Panajachel	1	Enero	2023-01-22T00:00:00	2024-11-08T02:00:00	2	Temperatura media	14
15238	7	Sololá	710	Panajachel	8	Panajachel	1	Enero	2023-01-22T00:00:00	2024-11-08T02:00:00	4	Temperatura máxima	14.3
15239	7	Sololá	710	Panajachel	8	Panajachel	1	Enero	2023-01-22T00:00:00	2024-11-08T02:00:00	3	Temperatura mínima	13.9
15240	7	Sololá	710	Panajachel	8	Panajachel	1	Enero	2023-01-22T00:00:00	2024-11-08T02:00:00	5	Humedad	76
15241	7	Sololá	710	Panajachel	8	Panajachel	1	Enero	2023-01-22T00:00:00	2024-11-08T02:00:00	6	Velocidad del viento	4.8
15242	7	Sololá	710	Panajachel	8	Panajachel	1	Enero	2023-01-22T00:00:00	2024-11-08T02:00:00	7	Dirección del viento	4.83
15243	7	Sololá	710	Panajachel	8	Panajachel	1	Enero	2023-01-22T00:00:00	2024-11-08T02:00:00	1	Precipitación	0
15244	7	Sololá	710	Panajachel	8	Panajachel	1	Enero	2023-01-22T00:00:00	2024-11-08T02:00:00	8	Radiación solar	0
15245	7	Sololá	710	Panajachel	8	Panajachel	1	Enero	2023-01-22T00:00:00	2024-11-08T03:00:00	2	Temperatura media	13.8
15246	7	Sololá	710	Panajachel	8	Panajachel	1	Enero	2023-01-22T00:00:00	2024-11-08T03:00:00	4	Temperatura máxima	14.1
15247	7	Sololá	710	Panajachel	8	Panajachel	1	Enero	2023-01-22T00:00:00	2024-11-08T03:00:00	3	Temperatura mínima	13.6
15248	7	Sololá	710	Panajachel	8	Panajachel	1	Enero	2023-01-22T00:00:00	2024-11-08T03:00:00	5	Humedad	76
15249	7	Sololá	710	Panajachel	8	Panajachel	1	Enero	2023-01-22T00:00:00	2024-11-08T03:00:00	6	Velocidad del viento	1.6
15250	7	Sololá	710	Panajachel	8	Panajachel	1	Enero	2023-01-22T00:00:00	2024-11-08T03:00:00	7	Dirección del viento	1.61
15251	7	Sololá	710	Panajachel	8	Panajachel	1	Enero	2023-01-22T00:00:00	2024-11-08T03:00:00	1	Precipitación	0
15252	7	Sololá	710	Panajachel	8	Panajachel	1	Enero	2023-01-22T00:00:00	2024-11-08T03:00:00	8	Radiación solar	0
15253	7	Sololá	710	Panajachel	8	Panajachel	1	Enero	2023-01-22T00:00:00	2024-11-08T04:00:00	2	Temperatura media	13.4
15254	7	Sololá	710	Panajachel	8	Panajachel	1	Enero	2023-01-22T00:00:00	2024-11-08T04:00:00	4	Temperatura máxima	13.8
15255	7	Sololá	710	Panajachel	8	Panajachel	1	Enero	2023-01-22T00:00:00	2024-11-08T04:00:00	3	Temperatura mínima	13.3
15256	7	Sololá	710	Panajachel	8	Panajachel	1	Enero	2023-01-22T00:00:00	2024-11-08T04:00:00	5	Humedad	77
15257	7	Sololá	710	Panajachel	8	Panajachel	1	Enero	2023-01-22T00:00:00	2024-11-08T04:00:00	6	Velocidad del viento	1.6
15258	7	Sololá	710	Panajachel	8	Panajachel	1	Enero	2023-01-22T00:00:00	2024-11-08T04:00:00	7	Dirección del viento	1.61
15259	7	Sololá	710	Panajachel	8	Panajachel	1	Enero	2023-01-22T00:00:00	2024-11-08T04:00:00	1	Precipitación	0
15260	7	Sololá	710	Panajachel	8	Panajachel	1	Enero	2023-01-22T00:00:00	2024-11-08T04:00:00	8	Radiación solar	0
15261	7	Sololá	710	Panajachel	8	Panajachel	1	Enero	2023-01-22T00:00:00	2024-11-08T05:00:00	2	Temperatura media	13
15262	7	Sololá	710	Panajachel	8	Panajachel	1	Enero	2023-01-22T00:00:00	2024-11-08T05:00:00	4	Temperatura máxima	13.4
15263	7	Sololá	710	Panajachel	8	Panajachel	1	Enero	2023-01-22T00:00:00	2024-11-08T05:00:00	3	Temperatura mínima	12.9
15264	7	Sololá	710	Panajachel	8	Panajachel	1	Enero	2023-01-22T00:00:00	2024-11-08T05:00:00	5	Humedad	79
15265	7	Sololá	710	Panajachel	8	Panajachel	1	Enero	2023-01-22T00:00:00	2024-11-08T05:00:00	6	Velocidad del viento	1.6
15266	7	Sololá	710	Panajachel	8	Panajachel	1	Enero	2023-01-22T00:00:00	2024-11-08T05:00:00	7	Dirección del viento	1.61
15267	7	Sololá	710	Panajachel	8	Panajachel	1	Enero	2023-01-22T00:00:00	2024-11-08T05:00:00	1	Precipitación	0
15268	7	Sololá	710	Panajachel	8	Panajachel	1	Enero	2023-01-22T00:00:00	2024-11-08T05:00:00	8	Radiación solar	0
15269	7	Sololá	710	Panajachel	8	Panajachel	1	Enero	2023-01-22T00:00:00	2024-11-08T06:00:00	2	Temperatura media	12.7
15270	7	Sololá	710	Panajachel	8	Panajachel	1	Enero	2023-01-22T00:00:00	2024-11-08T06:00:00	4	Temperatura máxima	13
15271	7	Sololá	710	Panajachel	8	Panajachel	1	Enero	2023-01-22T00:00:00	2024-11-08T06:00:00	3	Temperatura mínima	12.6
15272	7	Sololá	710	Panajachel	8	Panajachel	1	Enero	2023-01-22T00:00:00	2024-11-08T06:00:00	5	Humedad	78
15273	7	Sololá	710	Panajachel	8	Panajachel	1	Enero	2023-01-22T00:00:00	2024-11-08T06:00:00	6	Velocidad del viento	3.2
15274	7	Sololá	710	Panajachel	8	Panajachel	1	Enero	2023-01-22T00:00:00	2024-11-08T06:00:00	7	Dirección del viento	3.22
15275	7	Sololá	710	Panajachel	8	Panajachel	1	Enero	2023-01-22T00:00:00	2024-11-08T06:00:00	1	Precipitación	0
15276	7	Sololá	710	Panajachel	8	Panajachel	1	Enero	2023-01-22T00:00:00	2024-11-08T06:00:00	8	Radiación solar	0
15277	7	Sololá	710	Panajachel	8	Panajachel	1	Enero	2023-01-22T00:00:00	2024-11-08T07:00:00	2	Temperatura media	12.5
15278	7	Sololá	710	Panajachel	8	Panajachel	1	Enero	2023-01-22T00:00:00	2024-11-08T07:00:00	4	Temperatura máxima	12.7
15279	7	Sololá	710	Panajachel	8	Panajachel	1	Enero	2023-01-22T00:00:00	2024-11-08T07:00:00	3	Temperatura mínima	12.3
15280	7	Sololá	710	Panajachel	8	Panajachel	1	Enero	2023-01-22T00:00:00	2024-11-08T07:00:00	5	Humedad	79
15281	7	Sololá	710	Panajachel	8	Panajachel	1	Enero	2023-01-22T00:00:00	2024-11-08T07:00:00	6	Velocidad del viento	1.6
15282	7	Sololá	710	Panajachel	8	Panajachel	1	Enero	2023-01-22T00:00:00	2024-11-08T07:00:00	7	Dirección del viento	1.61
15283	7	Sololá	710	Panajachel	8	Panajachel	1	Enero	2023-01-22T00:00:00	2024-11-08T07:00:00	1	Precipitación	0
15284	7	Sololá	710	Panajachel	8	Panajachel	1	Enero	2023-01-22T00:00:00	2024-11-08T07:00:00	8	Radiación solar	4
15285	7	Sololá	710	Panajachel	8	Panajachel	1	Enero	2023-01-22T00:00:00	2024-11-08T08:00:00	2	Temperatura media	14.4
15286	7	Sololá	710	Panajachel	8	Panajachel	1	Enero	2023-01-22T00:00:00	2024-11-08T08:00:00	4	Temperatura máxima	14.4
15287	7	Sololá	710	Panajachel	8	Panajachel	1	Enero	2023-01-22T00:00:00	2024-11-08T08:00:00	3	Temperatura mínima	12.4
15288	7	Sololá	710	Panajachel	8	Panajachel	1	Enero	2023-01-22T00:00:00	2024-11-08T08:00:00	5	Humedad	75
15289	7	Sololá	710	Panajachel	8	Panajachel	1	Enero	2023-01-22T00:00:00	2024-11-08T08:00:00	6	Velocidad del viento	4.8
15290	7	Sololá	710	Panajachel	8	Panajachel	1	Enero	2023-01-22T00:00:00	2024-11-08T08:00:00	7	Dirección del viento	4.83
15291	7	Sololá	710	Panajachel	8	Panajachel	1	Enero	2023-01-22T00:00:00	2024-11-08T08:00:00	1	Precipitación	0
15292	7	Sololá	710	Panajachel	8	Panajachel	1	Enero	2023-01-22T00:00:00	2024-11-08T08:00:00	8	Radiación solar	48
15293	7	Sololá	710	Panajachel	8	Panajachel	1	Enero	2023-01-22T00:00:00	2024-11-08T09:00:00	2	Temperatura media	17.6
15294	7	Sololá	710	Panajachel	8	Panajachel	1	Enero	2023-01-22T00:00:00	2024-11-08T09:00:00	4	Temperatura máxima	17.6
15295	7	Sololá	710	Panajachel	8	Panajachel	1	Enero	2023-01-22T00:00:00	2024-11-08T09:00:00	3	Temperatura mínima	14.4
15296	7	Sololá	710	Panajachel	8	Panajachel	1	Enero	2023-01-22T00:00:00	2024-11-08T09:00:00	5	Humedad	74
15297	7	Sololá	710	Panajachel	8	Panajachel	1	Enero	2023-01-22T00:00:00	2024-11-08T09:00:00	6	Velocidad del viento	0
15298	7	Sololá	710	Panajachel	8	Panajachel	1	Enero	2023-01-22T00:00:00	2024-11-08T09:00:00	7	Dirección del viento	0
15299	7	Sololá	710	Panajachel	8	Panajachel	1	Enero	2023-01-22T00:00:00	2024-11-08T09:00:00	1	Precipitación	0
15300	7	Sololá	710	Panajachel	8	Panajachel	1	Enero	2023-01-22T00:00:00	2024-11-08T09:00:00	8	Radiación solar	364
15301	7	Sololá	710	Panajachel	8	Panajachel	1	Enero	2023-01-22T00:00:00	2024-11-08T10:00:00	2	Temperatura media	19.1
15302	7	Sololá	710	Panajachel	8	Panajachel	1	Enero	2023-01-22T00:00:00	2024-11-08T10:00:00	4	Temperatura máxima	19.1
15303	7	Sololá	710	Panajachel	8	Panajachel	1	Enero	2023-01-22T00:00:00	2024-11-08T10:00:00	3	Temperatura mínima	17.5
15304	7	Sololá	710	Panajachel	8	Panajachel	1	Enero	2023-01-22T00:00:00	2024-11-08T10:00:00	5	Humedad	74
15305	7	Sololá	710	Panajachel	8	Panajachel	1	Enero	2023-01-22T00:00:00	2024-11-08T10:00:00	6	Velocidad del viento	1.6
15306	7	Sololá	710	Panajachel	8	Panajachel	1	Enero	2023-01-22T00:00:00	2024-11-08T10:00:00	7	Dirección del viento	1.61
15307	7	Sololá	710	Panajachel	8	Panajachel	1	Enero	2023-01-22T00:00:00	2024-11-08T10:00:00	1	Precipitación	0
15308	7	Sololá	710	Panajachel	8	Panajachel	1	Enero	2023-01-22T00:00:00	2024-11-08T10:00:00	8	Radiación solar	569
15309	7	Sololá	710	Panajachel	8	Panajachel	1	Enero	2023-01-22T00:00:00	2024-11-08T11:00:00	2	Temperatura media	20.1
15310	7	Sololá	710	Panajachel	8	Panajachel	1	Enero	2023-01-22T00:00:00	2024-11-08T11:00:00	4	Temperatura máxima	20.3
15311	7	Sololá	710	Panajachel	8	Panajachel	1	Enero	2023-01-22T00:00:00	2024-11-08T11:00:00	3	Temperatura mínima	19
15312	7	Sololá	710	Panajachel	8	Panajachel	1	Enero	2023-01-22T00:00:00	2024-11-08T11:00:00	5	Humedad	64
15313	7	Sololá	710	Panajachel	8	Panajachel	1	Enero	2023-01-22T00:00:00	2024-11-08T11:00:00	6	Velocidad del viento	1.6
15314	7	Sololá	710	Panajachel	8	Panajachel	1	Enero	2023-01-22T00:00:00	2024-11-08T11:00:00	7	Dirección del viento	1.61
15315	7	Sololá	710	Panajachel	8	Panajachel	1	Enero	2023-01-22T00:00:00	2024-11-08T11:00:00	1	Precipitación	0
15316	7	Sololá	710	Panajachel	8	Panajachel	1	Enero	2023-01-22T00:00:00	2024-11-08T11:00:00	8	Radiación solar	732
15317	7	Sololá	710	Panajachel	8	Panajachel	1	Enero	2023-01-22T00:00:00	2024-11-08T12:00:00	2	Temperatura media	21.7
15318	7	Sololá	710	Panajachel	8	Panajachel	1	Enero	2023-01-22T00:00:00	2024-11-08T12:00:00	4	Temperatura máxima	21.9
15319	7	Sololá	710	Panajachel	8	Panajachel	1	Enero	2023-01-22T00:00:00	2024-11-08T12:00:00	3	Temperatura mínima	20
15320	7	Sololá	710	Panajachel	8	Panajachel	1	Enero	2023-01-22T00:00:00	2024-11-08T12:00:00	5	Humedad	51
15321	7	Sololá	710	Panajachel	8	Panajachel	1	Enero	2023-01-22T00:00:00	2024-11-08T12:00:00	6	Velocidad del viento	1.6
15322	7	Sololá	710	Panajachel	8	Panajachel	1	Enero	2023-01-22T00:00:00	2024-11-08T12:00:00	7	Dirección del viento	1.61
15323	7	Sololá	710	Panajachel	8	Panajachel	1	Enero	2023-01-22T00:00:00	2024-11-08T12:00:00	1	Precipitación	0
15324	7	Sololá	710	Panajachel	8	Panajachel	1	Enero	2023-01-22T00:00:00	2024-11-08T12:00:00	8	Radiación solar	828
15325	7	Sololá	710	Panajachel	8	Panajachel	1	Enero	2023-01-22T00:00:00	2024-11-08T13:00:00	2	Temperatura media	22.8
15326	7	Sololá	710	Panajachel	8	Panajachel	1	Enero	2023-01-22T00:00:00	2024-11-08T13:00:00	4	Temperatura máxima	22.8
15327	7	Sololá	710	Panajachel	8	Panajachel	1	Enero	2023-01-22T00:00:00	2024-11-08T13:00:00	3	Temperatura mínima	21.7
15328	7	Sololá	710	Panajachel	8	Panajachel	1	Enero	2023-01-22T00:00:00	2024-11-08T13:00:00	5	Humedad	52
15329	7	Sololá	710	Panajachel	8	Panajachel	1	Enero	2023-01-22T00:00:00	2024-11-08T13:00:00	6	Velocidad del viento	1.6
15330	7	Sololá	710	Panajachel	8	Panajachel	1	Enero	2023-01-22T00:00:00	2024-11-08T13:00:00	7	Dirección del viento	1.61
15331	7	Sololá	710	Panajachel	8	Panajachel	1	Enero	2023-01-22T00:00:00	2024-11-08T13:00:00	1	Precipitación	0
15332	7	Sololá	710	Panajachel	8	Panajachel	1	Enero	2023-01-22T00:00:00	2024-11-08T13:00:00	8	Radiación solar	840
15333	7	Sololá	710	Panajachel	8	Panajachel	1	Enero	2023-01-22T00:00:00	2024-11-08T14:00:00	2	Temperatura media	22.3
15334	7	Sololá	710	Panajachel	8	Panajachel	1	Enero	2023-01-22T00:00:00	2024-11-08T14:00:00	4	Temperatura máxima	23
15335	7	Sololá	710	Panajachel	8	Panajachel	1	Enero	2023-01-22T00:00:00	2024-11-08T14:00:00	3	Temperatura mínima	22.3
15336	7	Sololá	710	Panajachel	8	Panajachel	1	Enero	2023-01-22T00:00:00	2024-11-08T14:00:00	5	Humedad	65
15337	7	Sololá	710	Panajachel	8	Panajachel	1	Enero	2023-01-22T00:00:00	2024-11-08T14:00:00	6	Velocidad del viento	3.2
15338	7	Sololá	710	Panajachel	8	Panajachel	1	Enero	2023-01-22T00:00:00	2024-11-08T14:00:00	7	Dirección del viento	3.22
15339	7	Sololá	710	Panajachel	8	Panajachel	1	Enero	2023-01-22T00:00:00	2024-11-08T14:00:00	1	Precipitación	0
15340	7	Sololá	710	Panajachel	8	Panajachel	1	Enero	2023-01-22T00:00:00	2024-11-08T14:00:00	8	Radiación solar	765
15341	7	Sololá	710	Panajachel	8	Panajachel	1	Enero	2023-01-22T00:00:00	2024-11-08T15:00:00	2	Temperatura media	23.4
15342	7	Sololá	710	Panajachel	8	Panajachel	1	Enero	2023-01-22T00:00:00	2024-11-08T15:00:00	4	Temperatura máxima	23.4
15343	7	Sololá	710	Panajachel	8	Panajachel	1	Enero	2023-01-22T00:00:00	2024-11-08T15:00:00	3	Temperatura mínima	22.3
15344	7	Sololá	710	Panajachel	8	Panajachel	1	Enero	2023-01-22T00:00:00	2024-11-08T15:00:00	5	Humedad	68
15345	7	Sololá	710	Panajachel	8	Panajachel	1	Enero	2023-01-22T00:00:00	2024-11-08T15:00:00	6	Velocidad del viento	3.2
15346	7	Sololá	710	Panajachel	8	Panajachel	1	Enero	2023-01-22T00:00:00	2024-11-08T15:00:00	7	Dirección del viento	3.22
15347	7	Sololá	710	Panajachel	8	Panajachel	1	Enero	2023-01-22T00:00:00	2024-11-08T15:00:00	1	Precipitación	0
15348	7	Sololá	710	Panajachel	8	Panajachel	1	Enero	2023-01-22T00:00:00	2024-11-08T15:00:00	8	Radiación solar	667
15349	7	Sololá	710	Panajachel	8	Panajachel	1	Enero	2023-01-22T00:00:00	2024-11-08T16:00:00	2	Temperatura media	22.8
15350	7	Sololá	710	Panajachel	8	Panajachel	1	Enero	2023-01-22T00:00:00	2024-11-08T16:00:00	4	Temperatura máxima	23.7
15351	7	Sololá	710	Panajachel	8	Panajachel	1	Enero	2023-01-22T00:00:00	2024-11-08T16:00:00	3	Temperatura mínima	22.8
15352	7	Sololá	710	Panajachel	8	Panajachel	1	Enero	2023-01-22T00:00:00	2024-11-08T16:00:00	5	Humedad	69
15353	7	Sololá	710	Panajachel	8	Panajachel	1	Enero	2023-01-22T00:00:00	2024-11-08T16:00:00	6	Velocidad del viento	3.2
15354	7	Sololá	710	Panajachel	8	Panajachel	1	Enero	2023-01-22T00:00:00	2024-11-08T16:00:00	7	Dirección del viento	3.22
15355	7	Sololá	710	Panajachel	8	Panajachel	1	Enero	2023-01-22T00:00:00	2024-11-08T16:00:00	1	Precipitación	0
15356	7	Sololá	710	Panajachel	8	Panajachel	1	Enero	2023-01-22T00:00:00	2024-11-08T16:00:00	8	Radiación solar	499
15357	7	Sololá	710	Panajachel	8	Panajachel	1	Enero	2023-01-22T00:00:00	2024-11-08T17:00:00	2	Temperatura media	20.8
15358	7	Sololá	710	Panajachel	8	Panajachel	1	Enero	2023-01-22T00:00:00	2024-11-08T17:00:00	4	Temperatura máxima	22.8
15359	7	Sololá	710	Panajachel	8	Panajachel	1	Enero	2023-01-22T00:00:00	2024-11-08T17:00:00	3	Temperatura mínima	20.8
15360	7	Sololá	710	Panajachel	8	Panajachel	1	Enero	2023-01-22T00:00:00	2024-11-08T17:00:00	5	Humedad	77
15361	7	Sololá	710	Panajachel	8	Panajachel	1	Enero	2023-01-22T00:00:00	2024-11-08T17:00:00	6	Velocidad del viento	1.6
15362	7	Sololá	710	Panajachel	8	Panajachel	1	Enero	2023-01-22T00:00:00	2024-11-08T17:00:00	7	Dirección del viento	1.61
15363	7	Sololá	710	Panajachel	8	Panajachel	1	Enero	2023-01-22T00:00:00	2024-11-08T17:00:00	1	Precipitación	0
15364	7	Sololá	710	Panajachel	8	Panajachel	1	Enero	2023-01-22T00:00:00	2024-11-08T17:00:00	8	Radiación solar	195
15365	7	Sololá	710	Panajachel	8	Panajachel	1	Enero	2023-01-22T00:00:00	2024-11-08T18:00:00	2	Temperatura media	19.6
15366	7	Sololá	710	Panajachel	8	Panajachel	1	Enero	2023-01-22T00:00:00	2024-11-08T18:00:00	4	Temperatura máxima	20.8
15367	7	Sololá	710	Panajachel	8	Panajachel	1	Enero	2023-01-22T00:00:00	2024-11-08T18:00:00	3	Temperatura mínima	19.6
15368	7	Sololá	710	Panajachel	8	Panajachel	1	Enero	2023-01-22T00:00:00	2024-11-08T18:00:00	5	Humedad	82
15369	7	Sololá	710	Panajachel	8	Panajachel	1	Enero	2023-01-22T00:00:00	2024-11-08T18:00:00	6	Velocidad del viento	0
15370	7	Sololá	710	Panajachel	8	Panajachel	1	Enero	2023-01-22T00:00:00	2024-11-08T18:00:00	7	Dirección del viento	0
15371	7	Sololá	710	Panajachel	8	Panajachel	1	Enero	2023-01-22T00:00:00	2024-11-08T18:00:00	1	Precipitación	0
15372	7	Sololá	710	Panajachel	8	Panajachel	1	Enero	2023-01-22T00:00:00	2024-11-08T18:00:00	8	Radiación solar	44
15373	7	Sololá	710	Panajachel	8	Panajachel	1	Enero	2023-01-22T00:00:00	2024-11-08T19:00:00	2	Temperatura media	18.3
15374	7	Sololá	710	Panajachel	8	Panajachel	1	Enero	2023-01-22T00:00:00	2024-11-08T19:00:00	4	Temperatura máxima	19.6
15375	7	Sololá	710	Panajachel	8	Panajachel	1	Enero	2023-01-22T00:00:00	2024-11-08T19:00:00	3	Temperatura mínima	18.3
15376	7	Sololá	710	Panajachel	8	Panajachel	1	Enero	2023-01-22T00:00:00	2024-11-08T19:00:00	5	Humedad	84
15377	7	Sololá	710	Panajachel	8	Panajachel	1	Enero	2023-01-22T00:00:00	2024-11-08T19:00:00	6	Velocidad del viento	0
15378	7	Sololá	710	Panajachel	8	Panajachel	1	Enero	2023-01-22T00:00:00	2024-11-08T19:00:00	7	Dirección del viento	0
15379	7	Sololá	710	Panajachel	8	Panajachel	1	Enero	2023-01-22T00:00:00	2024-11-08T19:00:00	1	Precipitación	0
15380	7	Sololá	710	Panajachel	8	Panajachel	1	Enero	2023-01-22T00:00:00	2024-11-08T19:00:00	8	Radiación solar	0
15381	7	Sololá	710	Panajachel	8	Panajachel	1	Enero	2023-01-22T00:00:00	2024-11-08T20:00:00	2	Temperatura media	16.6
15382	7	Sololá	710	Panajachel	8	Panajachel	1	Enero	2023-01-22T00:00:00	2024-11-08T20:00:00	4	Temperatura máxima	18.3
15383	7	Sololá	710	Panajachel	8	Panajachel	1	Enero	2023-01-22T00:00:00	2024-11-08T20:00:00	3	Temperatura mínima	16.6
15384	7	Sololá	710	Panajachel	8	Panajachel	1	Enero	2023-01-22T00:00:00	2024-11-08T20:00:00	5	Humedad	83
15385	7	Sololá	710	Panajachel	8	Panajachel	1	Enero	2023-01-22T00:00:00	2024-11-08T20:00:00	6	Velocidad del viento	4.8
15386	7	Sololá	710	Panajachel	8	Panajachel	1	Enero	2023-01-22T00:00:00	2024-11-08T20:00:00	7	Dirección del viento	4.83
15387	7	Sololá	710	Panajachel	8	Panajachel	1	Enero	2023-01-22T00:00:00	2024-11-08T20:00:00	1	Precipitación	0
15388	7	Sololá	710	Panajachel	8	Panajachel	1	Enero	2023-01-22T00:00:00	2024-11-08T20:00:00	8	Radiación solar	0
15389	7	Sololá	710	Panajachel	8	Panajachel	1	Enero	2023-01-22T00:00:00	2024-11-08T21:00:00	2	Temperatura media	15.8
15390	7	Sololá	710	Panajachel	8	Panajachel	1	Enero	2023-01-22T00:00:00	2024-11-08T21:00:00	4	Temperatura máxima	16.6
15391	7	Sololá	710	Panajachel	8	Panajachel	1	Enero	2023-01-22T00:00:00	2024-11-08T21:00:00	3	Temperatura mínima	15.8
15392	7	Sololá	710	Panajachel	8	Panajachel	1	Enero	2023-01-22T00:00:00	2024-11-08T21:00:00	5	Humedad	82
15393	7	Sololá	710	Panajachel	8	Panajachel	1	Enero	2023-01-22T00:00:00	2024-11-08T21:00:00	6	Velocidad del viento	4.8
15394	7	Sololá	710	Panajachel	8	Panajachel	1	Enero	2023-01-22T00:00:00	2024-11-08T21:00:00	7	Dirección del viento	4.83
15395	7	Sololá	710	Panajachel	8	Panajachel	1	Enero	2023-01-22T00:00:00	2024-11-08T21:00:00	1	Precipitación	0
15396	7	Sololá	710	Panajachel	8	Panajachel	1	Enero	2023-01-22T00:00:00	2024-11-08T21:00:00	8	Radiación solar	0
15397	7	Sololá	710	Panajachel	8	Panajachel	1	Enero	2023-01-22T00:00:00	2024-11-08T22:00:00	2	Temperatura media	15.8
15398	7	Sololá	710	Panajachel	8	Panajachel	1	Enero	2023-01-22T00:00:00	2024-11-08T22:00:00	4	Temperatura máxima	15.8
15399	7	Sololá	710	Panajachel	8	Panajachel	1	Enero	2023-01-22T00:00:00	2024-11-08T22:00:00	3	Temperatura mínima	15.4
15400	7	Sololá	710	Panajachel	8	Panajachel	1	Enero	2023-01-22T00:00:00	2024-11-08T22:00:00	5	Humedad	81
15401	7	Sololá	710	Panajachel	8	Panajachel	1	Enero	2023-01-22T00:00:00	2024-11-08T22:00:00	6	Velocidad del viento	3.2
15402	7	Sololá	710	Panajachel	8	Panajachel	1	Enero	2023-01-22T00:00:00	2024-11-08T22:00:00	7	Dirección del viento	3.22
15403	7	Sololá	710	Panajachel	8	Panajachel	1	Enero	2023-01-22T00:00:00	2024-11-08T22:00:00	1	Precipitación	0
15404	7	Sololá	710	Panajachel	8	Panajachel	1	Enero	2023-01-22T00:00:00	2024-11-08T22:00:00	8	Radiación solar	0
15405	7	Sololá	710	Panajachel	8	Panajachel	1	Enero	2023-01-22T00:00:00	2024-11-08T23:00:00	2	Temperatura media	15.8
15406	7	Sololá	710	Panajachel	8	Panajachel	1	Enero	2023-01-22T00:00:00	2024-11-08T23:00:00	4	Temperatura máxima	15.8
15407	7	Sololá	710	Panajachel	8	Panajachel	1	Enero	2023-01-22T00:00:00	2024-11-08T23:00:00	3	Temperatura mínima	15.6
15408	7	Sololá	710	Panajachel	8	Panajachel	1	Enero	2023-01-22T00:00:00	2024-11-08T23:00:00	5	Humedad	75
15409	7	Sololá	710	Panajachel	8	Panajachel	1	Enero	2023-01-22T00:00:00	2024-11-08T23:00:00	6	Velocidad del viento	3.2
15410	7	Sololá	710	Panajachel	8	Panajachel	1	Enero	2023-01-22T00:00:00	2024-11-08T23:00:00	7	Dirección del viento	3.22
15411	7	Sololá	710	Panajachel	8	Panajachel	1	Enero	2023-01-22T00:00:00	2024-11-08T23:00:00	1	Precipitación	0
15412	7	Sololá	710	Panajachel	8	Panajachel	1	Enero	2023-01-22T00:00:00	2024-11-08T23:00:00	8	Radiación solar	0
15413	7	Sololá	710	Panajachel	8	Panajachel	1	Enero	2023-01-23T00:00:00	2024-11-08T00:00:00	2	Temperatura media	15.2
15414	7	Sololá	710	Panajachel	8	Panajachel	1	Enero	2023-01-23T00:00:00	2024-11-08T00:00:00	4	Temperatura máxima	15.8
15415	7	Sololá	710	Panajachel	8	Panajachel	1	Enero	2023-01-23T00:00:00	2024-11-08T00:00:00	3	Temperatura mínima	15.2
15416	7	Sololá	710	Panajachel	8	Panajachel	1	Enero	2023-01-23T00:00:00	2024-11-08T00:00:00	5	Humedad	76
15417	7	Sololá	710	Panajachel	8	Panajachel	1	Enero	2023-01-23T00:00:00	2024-11-08T00:00:00	6	Velocidad del viento	4.8
15418	7	Sololá	710	Panajachel	8	Panajachel	1	Enero	2023-01-23T00:00:00	2024-11-08T00:00:00	7	Dirección del viento	4.83
15419	7	Sololá	710	Panajachel	8	Panajachel	1	Enero	2023-01-23T00:00:00	2024-11-08T00:00:00	1	Precipitación	0
15420	7	Sololá	710	Panajachel	8	Panajachel	1	Enero	2023-01-23T00:00:00	2024-11-08T00:00:00	8	Radiación solar	0
15421	7	Sololá	710	Panajachel	8	Panajachel	1	Enero	2023-01-23T00:00:00	2024-11-08T01:00:00	2	Temperatura media	14.5
15422	7	Sololá	710	Panajachel	8	Panajachel	1	Enero	2023-01-23T00:00:00	2024-11-08T01:00:00	4	Temperatura máxima	15.2
15423	7	Sololá	710	Panajachel	8	Panajachel	1	Enero	2023-01-23T00:00:00	2024-11-08T01:00:00	3	Temperatura mínima	14.5
15424	7	Sololá	710	Panajachel	8	Panajachel	1	Enero	2023-01-23T00:00:00	2024-11-08T01:00:00	5	Humedad	79
15425	7	Sololá	710	Panajachel	8	Panajachel	1	Enero	2023-01-23T00:00:00	2024-11-08T01:00:00	6	Velocidad del viento	6.4
15426	7	Sololá	710	Panajachel	8	Panajachel	1	Enero	2023-01-23T00:00:00	2024-11-08T01:00:00	7	Dirección del viento	6.44
15427	7	Sololá	710	Panajachel	8	Panajachel	1	Enero	2023-01-23T00:00:00	2024-11-08T01:00:00	1	Precipitación	0
15428	7	Sololá	710	Panajachel	8	Panajachel	1	Enero	2023-01-23T00:00:00	2024-11-08T01:00:00	8	Radiación solar	0
15429	7	Sololá	710	Panajachel	8	Panajachel	1	Enero	2023-01-23T00:00:00	2024-11-08T02:00:00	2	Temperatura media	14.4
15430	7	Sololá	710	Panajachel	8	Panajachel	1	Enero	2023-01-23T00:00:00	2024-11-08T02:00:00	4	Temperatura máxima	14.9
15431	7	Sololá	710	Panajachel	8	Panajachel	1	Enero	2023-01-23T00:00:00	2024-11-08T02:00:00	3	Temperatura mínima	14.4
15432	7	Sololá	710	Panajachel	8	Panajachel	1	Enero	2023-01-23T00:00:00	2024-11-08T02:00:00	5	Humedad	80
15433	7	Sololá	710	Panajachel	8	Panajachel	1	Enero	2023-01-23T00:00:00	2024-11-08T02:00:00	6	Velocidad del viento	3.2
15434	7	Sololá	710	Panajachel	8	Panajachel	1	Enero	2023-01-23T00:00:00	2024-11-08T02:00:00	7	Dirección del viento	3.22
15435	7	Sololá	710	Panajachel	8	Panajachel	1	Enero	2023-01-23T00:00:00	2024-11-08T02:00:00	1	Precipitación	0
15436	7	Sololá	710	Panajachel	8	Panajachel	1	Enero	2023-01-23T00:00:00	2024-11-08T02:00:00	8	Radiación solar	0
15437	7	Sololá	710	Panajachel	8	Panajachel	1	Enero	2023-01-23T00:00:00	2024-11-08T03:00:00	2	Temperatura media	14.3
15438	7	Sololá	710	Panajachel	8	Panajachel	1	Enero	2023-01-23T00:00:00	2024-11-08T03:00:00	4	Temperatura máxima	14.7
15439	7	Sololá	710	Panajachel	8	Panajachel	1	Enero	2023-01-23T00:00:00	2024-11-08T03:00:00	3	Temperatura mínima	14.2
15440	7	Sololá	710	Panajachel	8	Panajachel	1	Enero	2023-01-23T00:00:00	2024-11-08T03:00:00	5	Humedad	82
15441	7	Sololá	710	Panajachel	8	Panajachel	1	Enero	2023-01-23T00:00:00	2024-11-08T03:00:00	6	Velocidad del viento	1.6
15442	7	Sololá	710	Panajachel	8	Panajachel	1	Enero	2023-01-23T00:00:00	2024-11-08T03:00:00	7	Dirección del viento	1.61
15443	7	Sololá	710	Panajachel	8	Panajachel	1	Enero	2023-01-23T00:00:00	2024-11-08T03:00:00	1	Precipitación	0
15444	7	Sololá	710	Panajachel	8	Panajachel	1	Enero	2023-01-23T00:00:00	2024-11-08T03:00:00	8	Radiación solar	0
15445	7	Sololá	710	Panajachel	8	Panajachel	1	Enero	2023-01-23T00:00:00	2024-11-08T04:00:00	2	Temperatura media	13.4
15446	7	Sololá	710	Panajachel	8	Panajachel	1	Enero	2023-01-23T00:00:00	2024-11-08T04:00:00	4	Temperatura máxima	14.4
15447	7	Sololá	710	Panajachel	8	Panajachel	1	Enero	2023-01-23T00:00:00	2024-11-08T04:00:00	3	Temperatura mínima	13.4
15448	7	Sololá	710	Panajachel	8	Panajachel	1	Enero	2023-01-23T00:00:00	2024-11-08T04:00:00	5	Humedad	84
15449	7	Sololá	710	Panajachel	8	Panajachel	1	Enero	2023-01-23T00:00:00	2024-11-08T04:00:00	6	Velocidad del viento	0
15450	7	Sololá	710	Panajachel	8	Panajachel	1	Enero	2023-01-23T00:00:00	2024-11-08T04:00:00	7	Dirección del viento	0
15451	7	Sololá	710	Panajachel	8	Panajachel	1	Enero	2023-01-23T00:00:00	2024-11-08T04:00:00	1	Precipitación	0
15452	7	Sololá	710	Panajachel	8	Panajachel	1	Enero	2023-01-23T00:00:00	2024-11-08T04:00:00	8	Radiación solar	0
15453	7	Sololá	710	Panajachel	8	Panajachel	1	Enero	2023-01-23T00:00:00	2024-11-08T05:00:00	2	Temperatura media	14.1
15454	7	Sololá	710	Panajachel	8	Panajachel	1	Enero	2023-01-23T00:00:00	2024-11-08T05:00:00	4	Temperatura máxima	14.1
15455	7	Sololá	710	Panajachel	8	Panajachel	1	Enero	2023-01-23T00:00:00	2024-11-08T05:00:00	3	Temperatura mínima	13.4
15456	7	Sololá	710	Panajachel	8	Panajachel	1	Enero	2023-01-23T00:00:00	2024-11-08T05:00:00	5	Humedad	78
15457	7	Sololá	710	Panajachel	8	Panajachel	1	Enero	2023-01-23T00:00:00	2024-11-08T05:00:00	6	Velocidad del viento	1.6
15458	7	Sololá	710	Panajachel	8	Panajachel	1	Enero	2023-01-23T00:00:00	2024-11-08T05:00:00	7	Dirección del viento	1.61
15459	7	Sololá	710	Panajachel	8	Panajachel	1	Enero	2023-01-23T00:00:00	2024-11-08T05:00:00	1	Precipitación	0
15460	7	Sololá	710	Panajachel	8	Panajachel	1	Enero	2023-01-23T00:00:00	2024-11-08T05:00:00	8	Radiación solar	0
15461	7	Sololá	710	Panajachel	8	Panajachel	1	Enero	2023-01-23T00:00:00	2024-11-08T06:00:00	2	Temperatura media	14.2
15462	7	Sololá	710	Panajachel	8	Panajachel	1	Enero	2023-01-23T00:00:00	2024-11-08T06:00:00	4	Temperatura máxima	14.2
15463	7	Sololá	710	Panajachel	8	Panajachel	1	Enero	2023-01-23T00:00:00	2024-11-08T06:00:00	3	Temperatura mínima	13.4
15464	7	Sololá	710	Panajachel	8	Panajachel	1	Enero	2023-01-23T00:00:00	2024-11-08T06:00:00	5	Humedad	77
15465	7	Sololá	710	Panajachel	8	Panajachel	1	Enero	2023-01-23T00:00:00	2024-11-08T06:00:00	6	Velocidad del viento	0
15466	7	Sololá	710	Panajachel	8	Panajachel	1	Enero	2023-01-23T00:00:00	2024-11-08T06:00:00	7	Dirección del viento	0
15467	7	Sololá	710	Panajachel	8	Panajachel	1	Enero	2023-01-23T00:00:00	2024-11-08T06:00:00	1	Precipitación	0
15468	7	Sololá	710	Panajachel	8	Panajachel	1	Enero	2023-01-23T00:00:00	2024-11-08T06:00:00	8	Radiación solar	0
15469	7	Sololá	710	Panajachel	8	Panajachel	1	Enero	2023-01-23T00:00:00	2024-11-08T07:00:00	2	Temperatura media	16.8
15470	7	Sololá	710	Panajachel	8	Panajachel	1	Enero	2023-01-23T00:00:00	2024-11-08T07:00:00	4	Temperatura máxima	16.8
15471	7	Sololá	710	Panajachel	8	Panajachel	1	Enero	2023-01-23T00:00:00	2024-11-08T07:00:00	3	Temperatura mínima	14.2
15472	7	Sololá	710	Panajachel	8	Panajachel	1	Enero	2023-01-23T00:00:00	2024-11-08T07:00:00	5	Humedad	69
15473	7	Sololá	710	Panajachel	8	Panajachel	1	Enero	2023-01-23T00:00:00	2024-11-08T07:00:00	6	Velocidad del viento	3.2
15474	7	Sololá	710	Panajachel	8	Panajachel	1	Enero	2023-01-23T00:00:00	2024-11-08T07:00:00	7	Dirección del viento	3.22
15475	7	Sololá	710	Panajachel	8	Panajachel	1	Enero	2023-01-23T00:00:00	2024-11-08T07:00:00	1	Precipitación	0
15476	7	Sololá	710	Panajachel	8	Panajachel	1	Enero	2023-01-23T00:00:00	2024-11-08T07:00:00	8	Radiación solar	4
15477	7	Sololá	710	Panajachel	8	Panajachel	1	Enero	2023-01-23T00:00:00	2024-11-08T08:00:00	2	Temperatura media	18
15478	7	Sololá	710	Panajachel	8	Panajachel	1	Enero	2023-01-23T00:00:00	2024-11-08T08:00:00	4	Temperatura máxima	18
15479	7	Sololá	710	Panajachel	8	Panajachel	1	Enero	2023-01-23T00:00:00	2024-11-08T08:00:00	3	Temperatura mínima	16.7
15480	7	Sololá	710	Panajachel	8	Panajachel	1	Enero	2023-01-23T00:00:00	2024-11-08T08:00:00	5	Humedad	66
15481	7	Sololá	710	Panajachel	8	Panajachel	1	Enero	2023-01-23T00:00:00	2024-11-08T08:00:00	6	Velocidad del viento	6.4
15482	7	Sololá	710	Panajachel	8	Panajachel	1	Enero	2023-01-23T00:00:00	2024-11-08T08:00:00	7	Dirección del viento	6.44
15483	7	Sololá	710	Panajachel	8	Panajachel	1	Enero	2023-01-23T00:00:00	2024-11-08T08:00:00	1	Precipitación	0
15484	7	Sololá	710	Panajachel	8	Panajachel	1	Enero	2023-01-23T00:00:00	2024-11-08T08:00:00	8	Radiación solar	43
15485	7	Sololá	710	Panajachel	8	Panajachel	1	Enero	2023-01-23T00:00:00	2024-11-08T09:00:00	2	Temperatura media	19.2
15486	7	Sololá	710	Panajachel	8	Panajachel	1	Enero	2023-01-23T00:00:00	2024-11-08T09:00:00	4	Temperatura máxima	19.2
15487	7	Sololá	710	Panajachel	8	Panajachel	1	Enero	2023-01-23T00:00:00	2024-11-08T09:00:00	3	Temperatura mínima	18
15488	7	Sololá	710	Panajachel	8	Panajachel	1	Enero	2023-01-23T00:00:00	2024-11-08T09:00:00	5	Humedad	67
15489	7	Sololá	710	Panajachel	8	Panajachel	1	Enero	2023-01-23T00:00:00	2024-11-08T09:00:00	6	Velocidad del viento	1.6
15490	7	Sololá	710	Panajachel	8	Panajachel	1	Enero	2023-01-23T00:00:00	2024-11-08T09:00:00	7	Dirección del viento	1.61
15491	7	Sololá	710	Panajachel	8	Panajachel	1	Enero	2023-01-23T00:00:00	2024-11-08T09:00:00	1	Precipitación	0
15492	7	Sololá	710	Panajachel	8	Panajachel	1	Enero	2023-01-23T00:00:00	2024-11-08T09:00:00	8	Radiación solar	367
15493	7	Sololá	710	Panajachel	8	Panajachel	1	Enero	2023-01-23T00:00:00	2024-11-08T10:00:00	2	Temperatura media	22.3
15494	7	Sololá	710	Panajachel	8	Panajachel	1	Enero	2023-01-23T00:00:00	2024-11-08T10:00:00	4	Temperatura máxima	22.3
15495	7	Sololá	710	Panajachel	8	Panajachel	1	Enero	2023-01-23T00:00:00	2024-11-08T10:00:00	3	Temperatura mínima	19.2
15496	7	Sololá	710	Panajachel	8	Panajachel	1	Enero	2023-01-23T00:00:00	2024-11-08T10:00:00	5	Humedad	49
15497	7	Sololá	710	Panajachel	8	Panajachel	1	Enero	2023-01-23T00:00:00	2024-11-08T10:00:00	6	Velocidad del viento	6.4
15498	7	Sololá	710	Panajachel	8	Panajachel	1	Enero	2023-01-23T00:00:00	2024-11-08T10:00:00	7	Dirección del viento	6.44
15499	7	Sololá	710	Panajachel	8	Panajachel	1	Enero	2023-01-23T00:00:00	2024-11-08T10:00:00	1	Precipitación	0
15500	7	Sololá	710	Panajachel	8	Panajachel	1	Enero	2023-01-23T00:00:00	2024-11-08T10:00:00	8	Radiación solar	569
15501	7	Sololá	710	Panajachel	8	Panajachel	1	Enero	2023-01-23T00:00:00	2024-11-08T11:00:00	2	Temperatura media	23.7
15502	7	Sololá	710	Panajachel	8	Panajachel	1	Enero	2023-01-23T00:00:00	2024-11-08T11:00:00	4	Temperatura máxima	23.8
15503	7	Sololá	710	Panajachel	8	Panajachel	1	Enero	2023-01-23T00:00:00	2024-11-08T11:00:00	3	Temperatura mínima	22.3
15504	7	Sololá	710	Panajachel	8	Panajachel	1	Enero	2023-01-23T00:00:00	2024-11-08T11:00:00	5	Humedad	42
15505	7	Sololá	710	Panajachel	8	Panajachel	1	Enero	2023-01-23T00:00:00	2024-11-08T11:00:00	6	Velocidad del viento	6.4
15506	7	Sololá	710	Panajachel	8	Panajachel	1	Enero	2023-01-23T00:00:00	2024-11-08T11:00:00	7	Dirección del viento	6.44
15507	7	Sololá	710	Panajachel	8	Panajachel	1	Enero	2023-01-23T00:00:00	2024-11-08T11:00:00	1	Precipitación	0
15508	7	Sololá	710	Panajachel	8	Panajachel	1	Enero	2023-01-23T00:00:00	2024-11-08T11:00:00	8	Radiación solar	723
15509	7	Sololá	710	Panajachel	8	Panajachel	1	Enero	2023-01-23T00:00:00	2024-11-08T12:00:00	2	Temperatura media	24.2
15510	7	Sololá	710	Panajachel	8	Panajachel	1	Enero	2023-01-23T00:00:00	2024-11-08T12:00:00	4	Temperatura máxima	24.8
15511	7	Sololá	710	Panajachel	8	Panajachel	1	Enero	2023-01-23T00:00:00	2024-11-08T12:00:00	3	Temperatura mínima	23.7
15512	7	Sololá	710	Panajachel	8	Panajachel	1	Enero	2023-01-23T00:00:00	2024-11-08T12:00:00	5	Humedad	42
15513	7	Sololá	710	Panajachel	8	Panajachel	1	Enero	2023-01-23T00:00:00	2024-11-08T12:00:00	6	Velocidad del viento	3.2
15514	7	Sololá	710	Panajachel	8	Panajachel	1	Enero	2023-01-23T00:00:00	2024-11-08T12:00:00	7	Dirección del viento	3.22
15515	7	Sololá	710	Panajachel	8	Panajachel	1	Enero	2023-01-23T00:00:00	2024-11-08T12:00:00	1	Precipitación	0
15516	7	Sololá	710	Panajachel	8	Panajachel	1	Enero	2023-01-23T00:00:00	2024-11-08T12:00:00	8	Radiación solar	811
15517	7	Sololá	710	Panajachel	8	Panajachel	1	Enero	2023-01-23T00:00:00	2024-11-08T13:00:00	2	Temperatura media	24.9
15518	7	Sololá	710	Panajachel	8	Panajachel	1	Enero	2023-01-23T00:00:00	2024-11-08T13:00:00	4	Temperatura máxima	25
15519	7	Sololá	710	Panajachel	8	Panajachel	1	Enero	2023-01-23T00:00:00	2024-11-08T13:00:00	3	Temperatura mínima	23.6
15520	7	Sololá	710	Panajachel	8	Panajachel	1	Enero	2023-01-23T00:00:00	2024-11-08T13:00:00	5	Humedad	59
15521	7	Sololá	710	Panajachel	8	Panajachel	1	Enero	2023-01-23T00:00:00	2024-11-08T13:00:00	6	Velocidad del viento	1.6
15522	7	Sololá	710	Panajachel	8	Panajachel	1	Enero	2023-01-23T00:00:00	2024-11-08T13:00:00	7	Dirección del viento	1.61
15523	7	Sololá	710	Panajachel	8	Panajachel	1	Enero	2023-01-23T00:00:00	2024-11-08T13:00:00	1	Precipitación	0
15524	7	Sololá	710	Panajachel	8	Panajachel	1	Enero	2023-01-23T00:00:00	2024-11-08T13:00:00	8	Radiación solar	806
15525	7	Sololá	710	Panajachel	8	Panajachel	1	Enero	2023-01-23T00:00:00	2024-11-08T14:00:00	2	Temperatura media	24.4
15526	7	Sololá	710	Panajachel	8	Panajachel	1	Enero	2023-01-23T00:00:00	2024-11-08T14:00:00	4	Temperatura máxima	24.9
15527	7	Sololá	710	Panajachel	8	Panajachel	1	Enero	2023-01-23T00:00:00	2024-11-08T14:00:00	3	Temperatura mínima	23.8
15528	7	Sololá	710	Panajachel	8	Panajachel	1	Enero	2023-01-23T00:00:00	2024-11-08T14:00:00	5	Humedad	66
15529	7	Sololá	710	Panajachel	8	Panajachel	1	Enero	2023-01-23T00:00:00	2024-11-08T14:00:00	6	Velocidad del viento	1.6
15530	7	Sololá	710	Panajachel	8	Panajachel	1	Enero	2023-01-23T00:00:00	2024-11-08T14:00:00	7	Dirección del viento	1.61
15531	7	Sololá	710	Panajachel	8	Panajachel	1	Enero	2023-01-23T00:00:00	2024-11-08T14:00:00	1	Precipitación	0
15532	7	Sololá	710	Panajachel	8	Panajachel	1	Enero	2023-01-23T00:00:00	2024-11-08T14:00:00	8	Radiación solar	793
15533	7	Sololá	710	Panajachel	8	Panajachel	1	Enero	2023-01-23T00:00:00	2024-11-08T15:00:00	2	Temperatura media	24.8
15534	7	Sololá	710	Panajachel	8	Panajachel	1	Enero	2023-01-23T00:00:00	2024-11-08T15:00:00	4	Temperatura máxima	24.8
15535	7	Sololá	710	Panajachel	8	Panajachel	1	Enero	2023-01-23T00:00:00	2024-11-08T15:00:00	3	Temperatura mínima	23.9
15536	7	Sololá	710	Panajachel	8	Panajachel	1	Enero	2023-01-23T00:00:00	2024-11-08T15:00:00	5	Humedad	65
15537	7	Sololá	710	Panajachel	8	Panajachel	1	Enero	2023-01-23T00:00:00	2024-11-08T15:00:00	6	Velocidad del viento	3.2
15538	7	Sololá	710	Panajachel	8	Panajachel	1	Enero	2023-01-23T00:00:00	2024-11-08T15:00:00	7	Dirección del viento	3.22
15539	7	Sololá	710	Panajachel	8	Panajachel	1	Enero	2023-01-23T00:00:00	2024-11-08T15:00:00	1	Precipitación	0
15540	7	Sololá	710	Panajachel	8	Panajachel	1	Enero	2023-01-23T00:00:00	2024-11-08T15:00:00	8	Radiación solar	692
15541	7	Sololá	710	Panajachel	8	Panajachel	1	Enero	2023-01-23T00:00:00	2024-11-08T16:00:00	2	Temperatura media	23.7
15542	7	Sololá	710	Panajachel	8	Panajachel	1	Enero	2023-01-23T00:00:00	2024-11-08T16:00:00	4	Temperatura máxima	25.1
15543	7	Sololá	710	Panajachel	8	Panajachel	1	Enero	2023-01-23T00:00:00	2024-11-08T16:00:00	3	Temperatura mínima	23.6
15544	7	Sololá	710	Panajachel	8	Panajachel	1	Enero	2023-01-23T00:00:00	2024-11-08T16:00:00	5	Humedad	69
15545	7	Sololá	710	Panajachel	8	Panajachel	1	Enero	2023-01-23T00:00:00	2024-11-08T16:00:00	6	Velocidad del viento	1.6
15546	7	Sololá	710	Panajachel	8	Panajachel	1	Enero	2023-01-23T00:00:00	2024-11-08T16:00:00	7	Dirección del viento	1.61
15547	7	Sololá	710	Panajachel	8	Panajachel	1	Enero	2023-01-23T00:00:00	2024-11-08T16:00:00	1	Precipitación	0
15548	7	Sololá	710	Panajachel	8	Panajachel	1	Enero	2023-01-23T00:00:00	2024-11-08T16:00:00	8	Radiación solar	501
15549	7	Sololá	710	Panajachel	8	Panajachel	1	Enero	2023-01-23T00:00:00	2024-11-08T17:00:00	2	Temperatura media	24.3
15550	7	Sololá	710	Panajachel	8	Panajachel	1	Enero	2023-01-23T00:00:00	2024-11-08T17:00:00	4	Temperatura máxima	24.4
15551	7	Sololá	710	Panajachel	8	Panajachel	1	Enero	2023-01-23T00:00:00	2024-11-08T17:00:00	3	Temperatura mínima	23.3
15552	7	Sololá	710	Panajachel	8	Panajachel	1	Enero	2023-01-23T00:00:00	2024-11-08T17:00:00	5	Humedad	45
15553	7	Sololá	710	Panajachel	8	Panajachel	1	Enero	2023-01-23T00:00:00	2024-11-08T17:00:00	6	Velocidad del viento	1.6
15554	7	Sololá	710	Panajachel	8	Panajachel	1	Enero	2023-01-23T00:00:00	2024-11-08T17:00:00	7	Dirección del viento	1.61
15555	7	Sololá	710	Panajachel	8	Panajachel	1	Enero	2023-01-23T00:00:00	2024-11-08T17:00:00	1	Precipitación	0
15556	7	Sololá	710	Panajachel	8	Panajachel	1	Enero	2023-01-23T00:00:00	2024-11-08T17:00:00	8	Radiación solar	287
15557	7	Sololá	710	Panajachel	8	Panajachel	1	Enero	2023-01-23T00:00:00	2024-11-08T18:00:00	2	Temperatura media	21.9
15558	7	Sololá	710	Panajachel	8	Panajachel	1	Enero	2023-01-23T00:00:00	2024-11-08T18:00:00	4	Temperatura máxima	24.2
15559	7	Sololá	710	Panajachel	8	Panajachel	1	Enero	2023-01-23T00:00:00	2024-11-08T18:00:00	3	Temperatura mínima	21.9
15560	7	Sololá	710	Panajachel	8	Panajachel	1	Enero	2023-01-23T00:00:00	2024-11-08T18:00:00	5	Humedad	56
15561	7	Sololá	710	Panajachel	8	Panajachel	1	Enero	2023-01-23T00:00:00	2024-11-08T18:00:00	6	Velocidad del viento	1.6
15562	7	Sololá	710	Panajachel	8	Panajachel	1	Enero	2023-01-23T00:00:00	2024-11-08T18:00:00	7	Dirección del viento	1.61
15563	7	Sololá	710	Panajachel	8	Panajachel	1	Enero	2023-01-23T00:00:00	2024-11-08T18:00:00	1	Precipitación	0
15564	7	Sololá	710	Panajachel	8	Panajachel	1	Enero	2023-01-23T00:00:00	2024-11-08T18:00:00	8	Radiación solar	69
15565	7	Sololá	710	Panajachel	8	Panajachel	1	Enero	2023-01-23T00:00:00	2024-11-08T19:00:00	2	Temperatura media	20.1
15566	7	Sololá	710	Panajachel	8	Panajachel	1	Enero	2023-01-23T00:00:00	2024-11-08T19:00:00	4	Temperatura máxima	21.9
15567	7	Sololá	710	Panajachel	8	Panajachel	1	Enero	2023-01-23T00:00:00	2024-11-08T19:00:00	3	Temperatura mínima	20.1
15568	7	Sololá	710	Panajachel	8	Panajachel	1	Enero	2023-01-23T00:00:00	2024-11-08T19:00:00	5	Humedad	63
15569	7	Sololá	710	Panajachel	8	Panajachel	1	Enero	2023-01-23T00:00:00	2024-11-08T19:00:00	6	Velocidad del viento	1.6
15570	7	Sololá	710	Panajachel	8	Panajachel	1	Enero	2023-01-23T00:00:00	2024-11-08T19:00:00	7	Dirección del viento	1.61
15571	7	Sololá	710	Panajachel	8	Panajachel	1	Enero	2023-01-23T00:00:00	2024-11-08T19:00:00	1	Precipitación	0
15572	7	Sololá	710	Panajachel	8	Panajachel	1	Enero	2023-01-23T00:00:00	2024-11-08T19:00:00	8	Radiación solar	0
15573	7	Sololá	710	Panajachel	8	Panajachel	1	Enero	2023-01-23T00:00:00	2024-11-08T20:00:00	2	Temperatura media	19.4
15574	7	Sololá	710	Panajachel	8	Panajachel	1	Enero	2023-01-23T00:00:00	2024-11-08T20:00:00	4	Temperatura máxima	20.1
15575	7	Sololá	710	Panajachel	8	Panajachel	1	Enero	2023-01-23T00:00:00	2024-11-08T20:00:00	3	Temperatura mínima	19.4
15576	7	Sololá	710	Panajachel	8	Panajachel	1	Enero	2023-01-23T00:00:00	2024-11-08T20:00:00	5	Humedad	64
15577	7	Sololá	710	Panajachel	8	Panajachel	1	Enero	2023-01-23T00:00:00	2024-11-08T20:00:00	6	Velocidad del viento	0
15578	7	Sololá	710	Panajachel	8	Panajachel	1	Enero	2023-01-23T00:00:00	2024-11-08T20:00:00	7	Dirección del viento	0
15579	7	Sololá	710	Panajachel	8	Panajachel	1	Enero	2023-01-23T00:00:00	2024-11-08T20:00:00	1	Precipitación	0
15580	7	Sololá	710	Panajachel	8	Panajachel	1	Enero	2023-01-23T00:00:00	2024-11-08T20:00:00	8	Radiación solar	0
15581	7	Sololá	710	Panajachel	8	Panajachel	1	Enero	2023-01-23T00:00:00	2024-11-08T21:00:00	2	Temperatura media	18.1
15582	7	Sololá	710	Panajachel	8	Panajachel	1	Enero	2023-01-23T00:00:00	2024-11-08T21:00:00	4	Temperatura máxima	19.4
15583	7	Sololá	710	Panajachel	8	Panajachel	1	Enero	2023-01-23T00:00:00	2024-11-08T21:00:00	3	Temperatura mínima	18.1
15584	7	Sololá	710	Panajachel	8	Panajachel	1	Enero	2023-01-23T00:00:00	2024-11-08T21:00:00	5	Humedad	69
15585	7	Sololá	710	Panajachel	8	Panajachel	1	Enero	2023-01-23T00:00:00	2024-11-08T21:00:00	6	Velocidad del viento	0
15586	7	Sololá	710	Panajachel	8	Panajachel	1	Enero	2023-01-23T00:00:00	2024-11-08T21:00:00	7	Dirección del viento	0
15587	7	Sololá	710	Panajachel	8	Panajachel	1	Enero	2023-01-23T00:00:00	2024-11-08T21:00:00	1	Precipitación	0
15588	7	Sololá	710	Panajachel	8	Panajachel	1	Enero	2023-01-23T00:00:00	2024-11-08T21:00:00	8	Radiación solar	0
15589	7	Sololá	710	Panajachel	8	Panajachel	1	Enero	2023-01-23T00:00:00	2024-11-08T22:00:00	2	Temperatura media	18.4
15590	7	Sololá	710	Panajachel	8	Panajachel	1	Enero	2023-01-23T00:00:00	2024-11-08T22:00:00	4	Temperatura máxima	18.5
15591	7	Sololá	710	Panajachel	8	Panajachel	1	Enero	2023-01-23T00:00:00	2024-11-08T22:00:00	3	Temperatura mínima	17.9
15592	7	Sololá	710	Panajachel	8	Panajachel	1	Enero	2023-01-23T00:00:00	2024-11-08T22:00:00	5	Humedad	67
15593	7	Sololá	710	Panajachel	8	Panajachel	1	Enero	2023-01-23T00:00:00	2024-11-08T22:00:00	6	Velocidad del viento	3.2
15594	7	Sololá	710	Panajachel	8	Panajachel	1	Enero	2023-01-23T00:00:00	2024-11-08T22:00:00	7	Dirección del viento	3.22
15595	7	Sololá	710	Panajachel	8	Panajachel	1	Enero	2023-01-23T00:00:00	2024-11-08T22:00:00	1	Precipitación	0
15596	7	Sololá	710	Panajachel	8	Panajachel	1	Enero	2023-01-23T00:00:00	2024-11-08T22:00:00	8	Radiación solar	0
15597	7	Sololá	710	Panajachel	8	Panajachel	1	Enero	2023-01-23T00:00:00	2024-11-08T23:00:00	2	Temperatura media	17.9
15598	7	Sololá	710	Panajachel	8	Panajachel	1	Enero	2023-01-23T00:00:00	2024-11-08T23:00:00	4	Temperatura máxima	18.4
15599	7	Sololá	710	Panajachel	8	Panajachel	1	Enero	2023-01-23T00:00:00	2024-11-08T23:00:00	3	Temperatura mínima	17.9
15600	7	Sololá	710	Panajachel	8	Panajachel	1	Enero	2023-01-23T00:00:00	2024-11-08T23:00:00	5	Humedad	66
15601	7	Sololá	710	Panajachel	8	Panajachel	1	Enero	2023-01-23T00:00:00	2024-11-08T23:00:00	6	Velocidad del viento	11.3
15602	7	Sololá	710	Panajachel	8	Panajachel	1	Enero	2023-01-23T00:00:00	2024-11-08T23:00:00	7	Dirección del viento	11.27
15603	7	Sololá	710	Panajachel	8	Panajachel	1	Enero	2023-01-23T00:00:00	2024-11-08T23:00:00	1	Precipitación	0
15604	7	Sololá	710	Panajachel	8	Panajachel	1	Enero	2023-01-23T00:00:00	2024-11-08T23:00:00	8	Radiación solar	0
15605	7	Sololá	710	Panajachel	8	Panajachel	1	Enero	2023-01-24T00:00:00	2024-11-08T00:00:00	2	Temperatura media	17.7
15606	7	Sololá	710	Panajachel	8	Panajachel	1	Enero	2023-01-24T00:00:00	2024-11-08T00:00:00	4	Temperatura máxima	18.1
15607	7	Sololá	710	Panajachel	8	Panajachel	1	Enero	2023-01-24T00:00:00	2024-11-08T00:00:00	3	Temperatura mínima	17.7
15608	7	Sololá	710	Panajachel	8	Panajachel	1	Enero	2023-01-24T00:00:00	2024-11-08T00:00:00	5	Humedad	62
15609	7	Sololá	710	Panajachel	8	Panajachel	1	Enero	2023-01-24T00:00:00	2024-11-08T00:00:00	6	Velocidad del viento	4.8
15610	7	Sololá	710	Panajachel	8	Panajachel	1	Enero	2023-01-24T00:00:00	2024-11-08T00:00:00	7	Dirección del viento	4.83
15611	7	Sololá	710	Panajachel	8	Panajachel	1	Enero	2023-01-24T00:00:00	2024-11-08T00:00:00	1	Precipitación	0
15612	7	Sololá	710	Panajachel	8	Panajachel	1	Enero	2023-01-24T00:00:00	2024-11-08T00:00:00	8	Radiación solar	0
15613	7	Sololá	710	Panajachel	8	Panajachel	1	Enero	2023-01-24T00:00:00	2024-11-08T01:00:00	2	Temperatura media	16.3
15614	7	Sololá	710	Panajachel	8	Panajachel	1	Enero	2023-01-24T00:00:00	2024-11-08T01:00:00	4	Temperatura máxima	17.7
15615	7	Sololá	710	Panajachel	8	Panajachel	1	Enero	2023-01-24T00:00:00	2024-11-08T01:00:00	3	Temperatura mínima	16.2
15616	7	Sololá	710	Panajachel	8	Panajachel	1	Enero	2023-01-24T00:00:00	2024-11-08T01:00:00	5	Humedad	58
15617	7	Sololá	710	Panajachel	8	Panajachel	1	Enero	2023-01-24T00:00:00	2024-11-08T01:00:00	6	Velocidad del viento	1.6
15618	7	Sololá	710	Panajachel	8	Panajachel	1	Enero	2023-01-24T00:00:00	2024-11-08T01:00:00	7	Dirección del viento	1.61
15619	7	Sololá	710	Panajachel	8	Panajachel	1	Enero	2023-01-24T00:00:00	2024-11-08T01:00:00	1	Precipitación	0
15620	7	Sololá	710	Panajachel	8	Panajachel	1	Enero	2023-01-24T00:00:00	2024-11-08T01:00:00	8	Radiación solar	0
15621	7	Sololá	710	Panajachel	8	Panajachel	1	Enero	2023-01-24T00:00:00	2024-11-08T02:00:00	2	Temperatura media	14.9
15622	7	Sololá	710	Panajachel	8	Panajachel	1	Enero	2023-01-24T00:00:00	2024-11-08T02:00:00	4	Temperatura máxima	16.3
15623	7	Sololá	710	Panajachel	8	Panajachel	1	Enero	2023-01-24T00:00:00	2024-11-08T02:00:00	3	Temperatura mínima	14.9
15624	7	Sololá	710	Panajachel	8	Panajachel	1	Enero	2023-01-24T00:00:00	2024-11-08T02:00:00	5	Humedad	57
15625	7	Sololá	710	Panajachel	8	Panajachel	1	Enero	2023-01-24T00:00:00	2024-11-08T02:00:00	6	Velocidad del viento	1.6
15626	7	Sololá	710	Panajachel	8	Panajachel	1	Enero	2023-01-24T00:00:00	2024-11-08T02:00:00	7	Dirección del viento	1.61
15627	7	Sololá	710	Panajachel	8	Panajachel	1	Enero	2023-01-24T00:00:00	2024-11-08T02:00:00	1	Precipitación	0
15628	7	Sololá	710	Panajachel	8	Panajachel	1	Enero	2023-01-24T00:00:00	2024-11-08T02:00:00	8	Radiación solar	0
15629	7	Sololá	710	Panajachel	8	Panajachel	1	Enero	2023-01-24T00:00:00	2024-11-08T03:00:00	2	Temperatura media	14.6
15630	7	Sololá	710	Panajachel	8	Panajachel	1	Enero	2023-01-24T00:00:00	2024-11-08T03:00:00	4	Temperatura máxima	15.6
15631	7	Sololá	710	Panajachel	8	Panajachel	1	Enero	2023-01-24T00:00:00	2024-11-08T03:00:00	3	Temperatura mínima	14.6
15632	7	Sololá	710	Panajachel	8	Panajachel	1	Enero	2023-01-24T00:00:00	2024-11-08T03:00:00	5	Humedad	53
15633	7	Sololá	710	Panajachel	8	Panajachel	1	Enero	2023-01-24T00:00:00	2024-11-08T03:00:00	6	Velocidad del viento	0
15634	7	Sololá	710	Panajachel	8	Panajachel	1	Enero	2023-01-24T00:00:00	2024-11-08T03:00:00	7	Dirección del viento	0
15635	7	Sololá	710	Panajachel	8	Panajachel	1	Enero	2023-01-24T00:00:00	2024-11-08T03:00:00	1	Precipitación	0
15636	7	Sololá	710	Panajachel	8	Panajachel	1	Enero	2023-01-24T00:00:00	2024-11-08T03:00:00	8	Radiación solar	0
15637	7	Sololá	710	Panajachel	8	Panajachel	1	Enero	2023-01-24T00:00:00	2024-11-08T04:00:00	2	Temperatura media	15.3
15638	7	Sololá	710	Panajachel	8	Panajachel	1	Enero	2023-01-24T00:00:00	2024-11-08T04:00:00	4	Temperatura máxima	15.3
15639	7	Sololá	710	Panajachel	8	Panajachel	1	Enero	2023-01-24T00:00:00	2024-11-08T04:00:00	3	Temperatura mínima	14.4
15640	7	Sololá	710	Panajachel	8	Panajachel	1	Enero	2023-01-24T00:00:00	2024-11-08T04:00:00	5	Humedad	51
15641	7	Sololá	710	Panajachel	8	Panajachel	1	Enero	2023-01-24T00:00:00	2024-11-08T04:00:00	6	Velocidad del viento	1.6
15642	7	Sololá	710	Panajachel	8	Panajachel	1	Enero	2023-01-24T00:00:00	2024-11-08T04:00:00	7	Dirección del viento	1.61
15643	7	Sololá	710	Panajachel	8	Panajachel	1	Enero	2023-01-24T00:00:00	2024-11-08T04:00:00	1	Precipitación	0
15644	7	Sololá	710	Panajachel	8	Panajachel	1	Enero	2023-01-24T00:00:00	2024-11-08T04:00:00	8	Radiación solar	0
15645	7	Sololá	710	Panajachel	8	Panajachel	1	Enero	2023-01-24T00:00:00	2024-11-08T05:00:00	2	Temperatura media	13.2
15646	7	Sololá	710	Panajachel	8	Panajachel	1	Enero	2023-01-24T00:00:00	2024-11-08T05:00:00	4	Temperatura máxima	15.3
15647	7	Sololá	710	Panajachel	8	Panajachel	1	Enero	2023-01-24T00:00:00	2024-11-08T05:00:00	3	Temperatura mínima	13.2
15648	7	Sololá	710	Panajachel	8	Panajachel	1	Enero	2023-01-24T00:00:00	2024-11-08T05:00:00	5	Humedad	57
15649	7	Sololá	710	Panajachel	8	Panajachel	1	Enero	2023-01-24T00:00:00	2024-11-08T05:00:00	6	Velocidad del viento	0
15650	7	Sololá	710	Panajachel	8	Panajachel	1	Enero	2023-01-24T00:00:00	2024-11-08T05:00:00	7	Dirección del viento	0
15651	7	Sololá	710	Panajachel	8	Panajachel	1	Enero	2023-01-24T00:00:00	2024-11-08T05:00:00	1	Precipitación	0
15652	7	Sololá	710	Panajachel	8	Panajachel	1	Enero	2023-01-24T00:00:00	2024-11-08T05:00:00	8	Radiación solar	0
15653	7	Sololá	710	Panajachel	8	Panajachel	1	Enero	2023-01-24T00:00:00	2024-11-08T06:00:00	2	Temperatura media	13.6
15654	7	Sololá	710	Panajachel	8	Panajachel	1	Enero	2023-01-24T00:00:00	2024-11-08T06:00:00	4	Temperatura máxima	14.1
15655	7	Sololá	710	Panajachel	8	Panajachel	1	Enero	2023-01-24T00:00:00	2024-11-08T06:00:00	3	Temperatura mínima	12.8
15656	7	Sololá	710	Panajachel	8	Panajachel	1	Enero	2023-01-24T00:00:00	2024-11-08T06:00:00	5	Humedad	57
15657	7	Sololá	710	Panajachel	8	Panajachel	1	Enero	2023-01-24T00:00:00	2024-11-08T06:00:00	6	Velocidad del viento	1.6
15658	7	Sololá	710	Panajachel	8	Panajachel	1	Enero	2023-01-24T00:00:00	2024-11-08T06:00:00	7	Dirección del viento	1.61
15659	7	Sololá	710	Panajachel	8	Panajachel	1	Enero	2023-01-24T00:00:00	2024-11-08T06:00:00	1	Precipitación	0
15660	7	Sololá	710	Panajachel	8	Panajachel	1	Enero	2023-01-24T00:00:00	2024-11-08T06:00:00	8	Radiación solar	0
15661	7	Sololá	710	Panajachel	8	Panajachel	1	Enero	2023-01-24T00:00:00	2024-11-08T07:00:00	2	Temperatura media	13.7
15662	7	Sololá	710	Panajachel	8	Panajachel	1	Enero	2023-01-24T00:00:00	2024-11-08T07:00:00	4	Temperatura máxima	13.9
15663	7	Sololá	710	Panajachel	8	Panajachel	1	Enero	2023-01-24T00:00:00	2024-11-08T07:00:00	3	Temperatura mínima	12.9
15664	7	Sololá	710	Panajachel	8	Panajachel	1	Enero	2023-01-24T00:00:00	2024-11-08T07:00:00	5	Humedad	62
15665	7	Sololá	710	Panajachel	8	Panajachel	1	Enero	2023-01-24T00:00:00	2024-11-08T07:00:00	6	Velocidad del viento	0
15666	7	Sololá	710	Panajachel	8	Panajachel	1	Enero	2023-01-24T00:00:00	2024-11-08T07:00:00	7	Dirección del viento	0
15667	7	Sololá	710	Panajachel	8	Panajachel	1	Enero	2023-01-24T00:00:00	2024-11-08T07:00:00	1	Precipitación	0
15668	7	Sololá	710	Panajachel	8	Panajachel	1	Enero	2023-01-24T00:00:00	2024-11-08T07:00:00	8	Radiación solar	3
15669	7	Sololá	710	Panajachel	8	Panajachel	1	Enero	2023-01-24T00:00:00	2024-11-08T08:00:00	2	Temperatura media	15.7
15670	7	Sololá	710	Panajachel	8	Panajachel	1	Enero	2023-01-24T00:00:00	2024-11-08T08:00:00	4	Temperatura máxima	15.7
15671	7	Sololá	710	Panajachel	8	Panajachel	1	Enero	2023-01-24T00:00:00	2024-11-08T08:00:00	3	Temperatura mínima	13.6
15672	7	Sololá	710	Panajachel	8	Panajachel	1	Enero	2023-01-24T00:00:00	2024-11-08T08:00:00	5	Humedad	60
15673	7	Sololá	710	Panajachel	8	Panajachel	1	Enero	2023-01-24T00:00:00	2024-11-08T08:00:00	6	Velocidad del viento	0
15674	7	Sololá	710	Panajachel	8	Panajachel	1	Enero	2023-01-24T00:00:00	2024-11-08T08:00:00	7	Dirección del viento	0
15675	7	Sololá	710	Panajachel	8	Panajachel	1	Enero	2023-01-24T00:00:00	2024-11-08T08:00:00	1	Precipitación	0
15676	7	Sololá	710	Panajachel	8	Panajachel	1	Enero	2023-01-24T00:00:00	2024-11-08T08:00:00	8	Radiación solar	50
15677	7	Sololá	710	Panajachel	8	Panajachel	1	Enero	2023-01-24T00:00:00	2024-11-08T09:00:00	2	Temperatura media	19.3
15678	7	Sololá	710	Panajachel	8	Panajachel	1	Enero	2023-01-24T00:00:00	2024-11-08T09:00:00	4	Temperatura máxima	19.3
15679	7	Sololá	710	Panajachel	8	Panajachel	1	Enero	2023-01-24T00:00:00	2024-11-08T09:00:00	3	Temperatura mínima	15.7
15680	7	Sololá	710	Panajachel	8	Panajachel	1	Enero	2023-01-24T00:00:00	2024-11-08T09:00:00	5	Humedad	57
15681	7	Sololá	710	Panajachel	8	Panajachel	1	Enero	2023-01-24T00:00:00	2024-11-08T09:00:00	6	Velocidad del viento	0
15682	7	Sololá	710	Panajachel	8	Panajachel	1	Enero	2023-01-24T00:00:00	2024-11-08T09:00:00	7	Dirección del viento	0
15683	7	Sololá	710	Panajachel	8	Panajachel	1	Enero	2023-01-24T00:00:00	2024-11-08T09:00:00	1	Precipitación	0
15684	7	Sololá	710	Panajachel	8	Panajachel	1	Enero	2023-01-24T00:00:00	2024-11-08T09:00:00	8	Radiación solar	382
15685	7	Sololá	710	Panajachel	8	Panajachel	1	Enero	2023-01-24T00:00:00	2024-11-08T10:00:00	2	Temperatura media	20.9
15686	7	Sololá	710	Panajachel	8	Panajachel	1	Enero	2023-01-24T00:00:00	2024-11-08T10:00:00	4	Temperatura máxima	20.9
15687	7	Sololá	710	Panajachel	8	Panajachel	1	Enero	2023-01-24T00:00:00	2024-11-08T10:00:00	3	Temperatura mínima	19.3
15688	7	Sololá	710	Panajachel	8	Panajachel	1	Enero	2023-01-24T00:00:00	2024-11-08T10:00:00	5	Humedad	50
15689	7	Sololá	710	Panajachel	8	Panajachel	1	Enero	2023-01-24T00:00:00	2024-11-08T10:00:00	6	Velocidad del viento	1.6
15690	7	Sololá	710	Panajachel	8	Panajachel	1	Enero	2023-01-24T00:00:00	2024-11-08T10:00:00	7	Dirección del viento	1.61
15691	7	Sololá	710	Panajachel	8	Panajachel	1	Enero	2023-01-24T00:00:00	2024-11-08T10:00:00	1	Precipitación	0
15692	7	Sololá	710	Panajachel	8	Panajachel	1	Enero	2023-01-24T00:00:00	2024-11-08T10:00:00	8	Radiación solar	583
15693	7	Sololá	710	Panajachel	8	Panajachel	1	Enero	2023-01-24T00:00:00	2024-11-08T11:00:00	2	Temperatura media	22.3
15694	7	Sololá	710	Panajachel	8	Panajachel	1	Enero	2023-01-24T00:00:00	2024-11-08T11:00:00	4	Temperatura máxima	22.4
15695	7	Sololá	710	Panajachel	8	Panajachel	1	Enero	2023-01-24T00:00:00	2024-11-08T11:00:00	3	Temperatura mínima	20.8
15696	7	Sololá	710	Panajachel	8	Panajachel	1	Enero	2023-01-24T00:00:00	2024-11-08T11:00:00	5	Humedad	49
15697	7	Sololá	710	Panajachel	8	Panajachel	1	Enero	2023-01-24T00:00:00	2024-11-08T11:00:00	6	Velocidad del viento	3.2
15698	7	Sololá	710	Panajachel	8	Panajachel	1	Enero	2023-01-24T00:00:00	2024-11-08T11:00:00	7	Dirección del viento	3.22
15699	7	Sololá	710	Panajachel	8	Panajachel	1	Enero	2023-01-24T00:00:00	2024-11-08T11:00:00	1	Precipitación	0
15700	7	Sololá	710	Panajachel	8	Panajachel	1	Enero	2023-01-24T00:00:00	2024-11-08T11:00:00	8	Radiación solar	731
15701	7	Sololá	710	Panajachel	8	Panajachel	1	Enero	2023-01-24T00:00:00	2024-11-08T12:00:00	2	Temperatura media	23.3
15702	7	Sololá	710	Panajachel	8	Panajachel	1	Enero	2023-01-24T00:00:00	2024-11-08T12:00:00	4	Temperatura máxima	23.4
15703	7	Sololá	710	Panajachel	8	Panajachel	1	Enero	2023-01-24T00:00:00	2024-11-08T12:00:00	3	Temperatura mínima	22.3
15704	7	Sololá	710	Panajachel	8	Panajachel	1	Enero	2023-01-24T00:00:00	2024-11-08T12:00:00	5	Humedad	46
15705	7	Sololá	710	Panajachel	8	Panajachel	1	Enero	2023-01-24T00:00:00	2024-11-08T12:00:00	6	Velocidad del viento	3.2
15706	7	Sololá	710	Panajachel	8	Panajachel	1	Enero	2023-01-24T00:00:00	2024-11-08T12:00:00	7	Dirección del viento	3.22
15707	7	Sololá	710	Panajachel	8	Panajachel	1	Enero	2023-01-24T00:00:00	2024-11-08T12:00:00	1	Precipitación	0
15708	7	Sololá	710	Panajachel	8	Panajachel	1	Enero	2023-01-24T00:00:00	2024-11-08T12:00:00	8	Radiación solar	820
15709	7	Sololá	710	Panajachel	8	Panajachel	1	Enero	2023-01-24T00:00:00	2024-11-08T13:00:00	2	Temperatura media	23.7
15710	7	Sololá	710	Panajachel	8	Panajachel	1	Enero	2023-01-24T00:00:00	2024-11-08T13:00:00	4	Temperatura máxima	23.7
15711	7	Sololá	710	Panajachel	8	Panajachel	1	Enero	2023-01-24T00:00:00	2024-11-08T13:00:00	3	Temperatura mínima	23.2
15712	7	Sololá	710	Panajachel	8	Panajachel	1	Enero	2023-01-24T00:00:00	2024-11-08T13:00:00	5	Humedad	50
15713	7	Sololá	710	Panajachel	8	Panajachel	1	Enero	2023-01-24T00:00:00	2024-11-08T13:00:00	6	Velocidad del viento	3.2
15714	7	Sololá	710	Panajachel	8	Panajachel	1	Enero	2023-01-24T00:00:00	2024-11-08T13:00:00	7	Dirección del viento	3.22
15715	7	Sololá	710	Panajachel	8	Panajachel	1	Enero	2023-01-24T00:00:00	2024-11-08T13:00:00	1	Precipitación	0
15716	7	Sololá	710	Panajachel	8	Panajachel	1	Enero	2023-01-24T00:00:00	2024-11-08T13:00:00	8	Radiación solar	837
15717	7	Sololá	710	Panajachel	8	Panajachel	1	Enero	2023-01-24T00:00:00	2024-11-08T14:00:00	2	Temperatura media	23.9
15718	7	Sololá	710	Panajachel	8	Panajachel	1	Enero	2023-01-24T00:00:00	2024-11-08T14:00:00	4	Temperatura máxima	24.7
15719	7	Sololá	710	Panajachel	8	Panajachel	1	Enero	2023-01-24T00:00:00	2024-11-08T14:00:00	3	Temperatura mínima	23.7
15720	7	Sololá	710	Panajachel	8	Panajachel	1	Enero	2023-01-24T00:00:00	2024-11-08T14:00:00	5	Humedad	68
15721	7	Sololá	710	Panajachel	8	Panajachel	1	Enero	2023-01-24T00:00:00	2024-11-08T14:00:00	6	Velocidad del viento	3.2
15722	7	Sololá	710	Panajachel	8	Panajachel	1	Enero	2023-01-24T00:00:00	2024-11-08T14:00:00	7	Dirección del viento	3.22
15723	7	Sololá	710	Panajachel	8	Panajachel	1	Enero	2023-01-24T00:00:00	2024-11-08T14:00:00	1	Precipitación	0
15724	7	Sololá	710	Panajachel	8	Panajachel	1	Enero	2023-01-24T00:00:00	2024-11-08T14:00:00	8	Radiación solar	777
15725	7	Sololá	710	Panajachel	8	Panajachel	1	Enero	2023-01-24T00:00:00	2024-11-08T15:00:00	2	Temperatura media	23.1
15726	7	Sololá	710	Panajachel	8	Panajachel	1	Enero	2023-01-24T00:00:00	2024-11-08T15:00:00	4	Temperatura máxima	23.9
15727	7	Sololá	710	Panajachel	8	Panajachel	1	Enero	2023-01-24T00:00:00	2024-11-08T15:00:00	3	Temperatura mínima	22.9
15728	7	Sololá	710	Panajachel	8	Panajachel	1	Enero	2023-01-24T00:00:00	2024-11-08T15:00:00	5	Humedad	71
15729	7	Sololá	710	Panajachel	8	Panajachel	1	Enero	2023-01-24T00:00:00	2024-11-08T15:00:00	6	Velocidad del viento	4.8
15730	7	Sololá	710	Panajachel	8	Panajachel	1	Enero	2023-01-24T00:00:00	2024-11-08T15:00:00	7	Dirección del viento	4.83
15731	7	Sololá	710	Panajachel	8	Panajachel	1	Enero	2023-01-24T00:00:00	2024-11-08T15:00:00	1	Precipitación	0
15732	7	Sololá	710	Panajachel	8	Panajachel	1	Enero	2023-01-24T00:00:00	2024-11-08T15:00:00	8	Radiación solar	647
15733	7	Sololá	710	Panajachel	8	Panajachel	1	Enero	2023-01-24T00:00:00	2024-11-08T16:00:00	2	Temperatura media	21.4
15734	7	Sololá	710	Panajachel	8	Panajachel	1	Enero	2023-01-24T00:00:00	2024-11-08T16:00:00	4	Temperatura máxima	23.3
15735	7	Sololá	710	Panajachel	8	Panajachel	1	Enero	2023-01-24T00:00:00	2024-11-08T16:00:00	3	Temperatura mínima	21.4
15736	7	Sololá	710	Panajachel	8	Panajachel	1	Enero	2023-01-24T00:00:00	2024-11-08T16:00:00	5	Humedad	75
15737	7	Sololá	710	Panajachel	8	Panajachel	1	Enero	2023-01-24T00:00:00	2024-11-08T16:00:00	6	Velocidad del viento	3.2
15738	7	Sololá	710	Panajachel	8	Panajachel	1	Enero	2023-01-24T00:00:00	2024-11-08T16:00:00	7	Dirección del viento	3.22
15739	7	Sololá	710	Panajachel	8	Panajachel	1	Enero	2023-01-24T00:00:00	2024-11-08T16:00:00	1	Precipitación	0
15740	7	Sololá	710	Panajachel	8	Panajachel	1	Enero	2023-01-24T00:00:00	2024-11-08T16:00:00	8	Radiación solar	321
15741	7	Sololá	710	Panajachel	8	Panajachel	1	Enero	2023-01-24T00:00:00	2024-11-08T17:00:00	2	Temperatura media	20.9
15742	7	Sololá	710	Panajachel	8	Panajachel	1	Enero	2023-01-24T00:00:00	2024-11-08T17:00:00	4	Temperatura máxima	21.4
15743	7	Sololá	710	Panajachel	8	Panajachel	1	Enero	2023-01-24T00:00:00	2024-11-08T17:00:00	3	Temperatura mínima	20.7
15744	7	Sololá	710	Panajachel	8	Panajachel	1	Enero	2023-01-24T00:00:00	2024-11-08T17:00:00	5	Humedad	78
15745	7	Sololá	710	Panajachel	8	Panajachel	1	Enero	2023-01-24T00:00:00	2024-11-08T17:00:00	6	Velocidad del viento	1.6
15746	7	Sololá	710	Panajachel	8	Panajachel	1	Enero	2023-01-24T00:00:00	2024-11-08T17:00:00	7	Dirección del viento	1.61
15747	7	Sololá	710	Panajachel	8	Panajachel	1	Enero	2023-01-24T00:00:00	2024-11-08T17:00:00	1	Precipitación	0
15748	7	Sololá	710	Panajachel	8	Panajachel	1	Enero	2023-01-24T00:00:00	2024-11-08T17:00:00	8	Radiación solar	107
15749	7	Sololá	710	Panajachel	8	Panajachel	1	Enero	2023-01-24T00:00:00	2024-11-08T18:00:00	2	Temperatura media	20.1
15750	7	Sololá	710	Panajachel	8	Panajachel	1	Enero	2023-01-24T00:00:00	2024-11-08T18:00:00	4	Temperatura máxima	20.9
15751	7	Sololá	710	Panajachel	8	Panajachel	1	Enero	2023-01-24T00:00:00	2024-11-08T18:00:00	3	Temperatura mínima	20.1
15752	7	Sololá	710	Panajachel	8	Panajachel	1	Enero	2023-01-24T00:00:00	2024-11-08T18:00:00	5	Humedad	79
15753	7	Sololá	710	Panajachel	8	Panajachel	1	Enero	2023-01-24T00:00:00	2024-11-08T18:00:00	6	Velocidad del viento	0
15754	7	Sololá	710	Panajachel	8	Panajachel	1	Enero	2023-01-24T00:00:00	2024-11-08T18:00:00	7	Dirección del viento	0
15755	7	Sololá	710	Panajachel	8	Panajachel	1	Enero	2023-01-24T00:00:00	2024-11-08T18:00:00	1	Precipitación	0
15756	7	Sololá	710	Panajachel	8	Panajachel	1	Enero	2023-01-24T00:00:00	2024-11-08T18:00:00	8	Radiación solar	42
15757	7	Sololá	710	Panajachel	8	Panajachel	1	Enero	2023-01-24T00:00:00	2024-11-08T19:00:00	2	Temperatura media	18.6
15758	7	Sololá	710	Panajachel	8	Panajachel	1	Enero	2023-01-24T00:00:00	2024-11-08T19:00:00	4	Temperatura máxima	20.1
15759	7	Sololá	710	Panajachel	8	Panajachel	1	Enero	2023-01-24T00:00:00	2024-11-08T19:00:00	3	Temperatura mínima	18.6
15760	7	Sololá	710	Panajachel	8	Panajachel	1	Enero	2023-01-24T00:00:00	2024-11-08T19:00:00	5	Humedad	87
15761	7	Sololá	710	Panajachel	8	Panajachel	1	Enero	2023-01-24T00:00:00	2024-11-08T19:00:00	6	Velocidad del viento	0
15762	7	Sololá	710	Panajachel	8	Panajachel	1	Enero	2023-01-24T00:00:00	2024-11-08T19:00:00	7	Dirección del viento	0
15763	7	Sololá	710	Panajachel	8	Panajachel	1	Enero	2023-01-24T00:00:00	2024-11-08T19:00:00	1	Precipitación	0
15764	7	Sololá	710	Panajachel	8	Panajachel	1	Enero	2023-01-24T00:00:00	2024-11-08T19:00:00	8	Radiación solar	0
15765	7	Sololá	710	Panajachel	8	Panajachel	1	Enero	2023-01-24T00:00:00	2024-11-08T20:00:00	2	Temperatura media	17.1
15766	7	Sololá	710	Panajachel	8	Panajachel	1	Enero	2023-01-24T00:00:00	2024-11-08T20:00:00	4	Temperatura máxima	18.6
15767	7	Sololá	710	Panajachel	8	Panajachel	1	Enero	2023-01-24T00:00:00	2024-11-08T20:00:00	3	Temperatura mínima	17.1
15768	7	Sololá	710	Panajachel	8	Panajachel	1	Enero	2023-01-24T00:00:00	2024-11-08T20:00:00	5	Humedad	84
15769	7	Sololá	710	Panajachel	8	Panajachel	1	Enero	2023-01-24T00:00:00	2024-11-08T20:00:00	6	Velocidad del viento	1.6
15770	7	Sololá	710	Panajachel	8	Panajachel	1	Enero	2023-01-24T00:00:00	2024-11-08T20:00:00	7	Dirección del viento	1.61
15771	7	Sololá	710	Panajachel	8	Panajachel	1	Enero	2023-01-24T00:00:00	2024-11-08T20:00:00	1	Precipitación	0
15772	7	Sololá	710	Panajachel	8	Panajachel	1	Enero	2023-01-24T00:00:00	2024-11-08T20:00:00	8	Radiación solar	0
15773	7	Sololá	710	Panajachel	8	Panajachel	1	Enero	2023-01-24T00:00:00	2024-11-08T21:00:00	2	Temperatura media	16.3
15774	7	Sololá	710	Panajachel	8	Panajachel	1	Enero	2023-01-24T00:00:00	2024-11-08T21:00:00	4	Temperatura máxima	17.1
15775	7	Sololá	710	Panajachel	8	Panajachel	1	Enero	2023-01-24T00:00:00	2024-11-08T21:00:00	3	Temperatura mínima	16.3
15776	7	Sololá	710	Panajachel	8	Panajachel	1	Enero	2023-01-24T00:00:00	2024-11-08T21:00:00	5	Humedad	82
15777	7	Sololá	710	Panajachel	8	Panajachel	1	Enero	2023-01-24T00:00:00	2024-11-08T21:00:00	6	Velocidad del viento	3.2
15778	7	Sololá	710	Panajachel	8	Panajachel	1	Enero	2023-01-24T00:00:00	2024-11-08T21:00:00	7	Dirección del viento	3.22
15779	7	Sololá	710	Panajachel	8	Panajachel	1	Enero	2023-01-24T00:00:00	2024-11-08T21:00:00	1	Precipitación	0
15780	7	Sololá	710	Panajachel	8	Panajachel	1	Enero	2023-01-24T00:00:00	2024-11-08T21:00:00	8	Radiación solar	0
15781	7	Sololá	710	Panajachel	8	Panajachel	1	Enero	2023-01-24T00:00:00	2024-11-08T22:00:00	2	Temperatura media	15.5
15782	7	Sololá	710	Panajachel	8	Panajachel	1	Enero	2023-01-24T00:00:00	2024-11-08T22:00:00	4	Temperatura máxima	16.3
15783	7	Sololá	710	Panajachel	8	Panajachel	1	Enero	2023-01-24T00:00:00	2024-11-08T22:00:00	3	Temperatura mínima	15.4
15784	7	Sololá	710	Panajachel	8	Panajachel	1	Enero	2023-01-24T00:00:00	2024-11-08T22:00:00	5	Humedad	78
15785	7	Sololá	710	Panajachel	8	Panajachel	1	Enero	2023-01-24T00:00:00	2024-11-08T22:00:00	6	Velocidad del viento	4.8
15786	7	Sololá	710	Panajachel	8	Panajachel	1	Enero	2023-01-24T00:00:00	2024-11-08T22:00:00	7	Dirección del viento	4.83
15787	7	Sololá	710	Panajachel	8	Panajachel	1	Enero	2023-01-24T00:00:00	2024-11-08T22:00:00	1	Precipitación	0
15788	7	Sololá	710	Panajachel	8	Panajachel	1	Enero	2023-01-24T00:00:00	2024-11-08T22:00:00	8	Radiación solar	0
15789	7	Sololá	710	Panajachel	8	Panajachel	1	Enero	2023-01-24T00:00:00	2024-11-08T23:00:00	2	Temperatura media	15.1
15790	7	Sololá	710	Panajachel	8	Panajachel	1	Enero	2023-01-24T00:00:00	2024-11-08T23:00:00	4	Temperatura máxima	15.4
15791	7	Sololá	710	Panajachel	8	Panajachel	1	Enero	2023-01-24T00:00:00	2024-11-08T23:00:00	3	Temperatura mínima	15.1
15792	7	Sololá	710	Panajachel	8	Panajachel	1	Enero	2023-01-24T00:00:00	2024-11-08T23:00:00	5	Humedad	76
15793	7	Sololá	710	Panajachel	8	Panajachel	1	Enero	2023-01-24T00:00:00	2024-11-08T23:00:00	6	Velocidad del viento	4.8
15794	7	Sololá	710	Panajachel	8	Panajachel	1	Enero	2023-01-24T00:00:00	2024-11-08T23:00:00	7	Dirección del viento	4.83
15795	7	Sololá	710	Panajachel	8	Panajachel	1	Enero	2023-01-24T00:00:00	2024-11-08T23:00:00	1	Precipitación	0
15796	7	Sololá	710	Panajachel	8	Panajachel	1	Enero	2023-01-24T00:00:00	2024-11-08T23:00:00	8	Radiación solar	0
15797	7	Sololá	710	Panajachel	8	Panajachel	1	Enero	2023-01-25T00:00:00	2024-11-08T00:00:00	2	Temperatura media	14.6
15798	7	Sololá	710	Panajachel	8	Panajachel	1	Enero	2023-01-25T00:00:00	2024-11-08T00:00:00	4	Temperatura máxima	15.1
15799	7	Sololá	710	Panajachel	8	Panajachel	1	Enero	2023-01-25T00:00:00	2024-11-08T00:00:00	3	Temperatura mínima	14.5
15800	7	Sololá	710	Panajachel	8	Panajachel	1	Enero	2023-01-25T00:00:00	2024-11-08T00:00:00	5	Humedad	77
15801	7	Sololá	710	Panajachel	8	Panajachel	1	Enero	2023-01-25T00:00:00	2024-11-08T00:00:00	6	Velocidad del viento	4.8
15802	7	Sololá	710	Panajachel	8	Panajachel	1	Enero	2023-01-25T00:00:00	2024-11-08T00:00:00	7	Dirección del viento	4.83
15803	7	Sololá	710	Panajachel	8	Panajachel	1	Enero	2023-01-25T00:00:00	2024-11-08T00:00:00	1	Precipitación	0
15804	7	Sololá	710	Panajachel	8	Panajachel	1	Enero	2023-01-25T00:00:00	2024-11-08T00:00:00	8	Radiación solar	0
15805	7	Sololá	710	Panajachel	8	Panajachel	1	Enero	2023-01-25T00:00:00	2024-11-08T01:00:00	2	Temperatura media	14.3
15806	7	Sololá	710	Panajachel	8	Panajachel	1	Enero	2023-01-25T00:00:00	2024-11-08T01:00:00	4	Temperatura máxima	14.6
15807	7	Sololá	710	Panajachel	8	Panajachel	1	Enero	2023-01-25T00:00:00	2024-11-08T01:00:00	3	Temperatura mínima	14.2
15808	7	Sololá	710	Panajachel	8	Panajachel	1	Enero	2023-01-25T00:00:00	2024-11-08T01:00:00	5	Humedad	79
15809	7	Sololá	710	Panajachel	8	Panajachel	1	Enero	2023-01-25T00:00:00	2024-11-08T01:00:00	6	Velocidad del viento	3.2
15810	7	Sololá	710	Panajachel	8	Panajachel	1	Enero	2023-01-25T00:00:00	2024-11-08T01:00:00	7	Dirección del viento	3.22
15811	7	Sololá	710	Panajachel	8	Panajachel	1	Enero	2023-01-25T00:00:00	2024-11-08T01:00:00	1	Precipitación	0
15812	7	Sololá	710	Panajachel	8	Panajachel	1	Enero	2023-01-25T00:00:00	2024-11-08T01:00:00	8	Radiación solar	0
15813	7	Sololá	710	Panajachel	8	Panajachel	1	Enero	2023-01-25T00:00:00	2024-11-08T02:00:00	2	Temperatura media	14
15814	7	Sololá	710	Panajachel	8	Panajachel	1	Enero	2023-01-25T00:00:00	2024-11-08T02:00:00	4	Temperatura máxima	14.3
15815	7	Sololá	710	Panajachel	8	Panajachel	1	Enero	2023-01-25T00:00:00	2024-11-08T02:00:00	3	Temperatura mínima	13.9
15816	7	Sololá	710	Panajachel	8	Panajachel	1	Enero	2023-01-25T00:00:00	2024-11-08T02:00:00	5	Humedad	81
15817	7	Sololá	710	Panajachel	8	Panajachel	1	Enero	2023-01-25T00:00:00	2024-11-08T02:00:00	6	Velocidad del viento	1.6
15818	7	Sololá	710	Panajachel	8	Panajachel	1	Enero	2023-01-25T00:00:00	2024-11-08T02:00:00	7	Dirección del viento	1.61
15819	7	Sololá	710	Panajachel	8	Panajachel	1	Enero	2023-01-25T00:00:00	2024-11-08T02:00:00	1	Precipitación	0
15820	7	Sololá	710	Panajachel	8	Panajachel	1	Enero	2023-01-25T00:00:00	2024-11-08T02:00:00	8	Radiación solar	0
15821	7	Sololá	710	Panajachel	8	Panajachel	1	Enero	2023-01-25T00:00:00	2024-11-08T03:00:00	2	Temperatura media	13.8
15822	7	Sololá	710	Panajachel	8	Panajachel	1	Enero	2023-01-25T00:00:00	2024-11-08T03:00:00	4	Temperatura máxima	14
15823	7	Sololá	710	Panajachel	8	Panajachel	1	Enero	2023-01-25T00:00:00	2024-11-08T03:00:00	3	Temperatura mínima	13.7
15824	7	Sololá	710	Panajachel	8	Panajachel	1	Enero	2023-01-25T00:00:00	2024-11-08T03:00:00	5	Humedad	83
15825	7	Sololá	710	Panajachel	8	Panajachel	1	Enero	2023-01-25T00:00:00	2024-11-08T03:00:00	6	Velocidad del viento	1.6
15826	7	Sololá	710	Panajachel	8	Panajachel	1	Enero	2023-01-25T00:00:00	2024-11-08T03:00:00	7	Dirección del viento	1.61
15827	7	Sololá	710	Panajachel	8	Panajachel	1	Enero	2023-01-25T00:00:00	2024-11-08T03:00:00	1	Precipitación	0
15828	7	Sololá	710	Panajachel	8	Panajachel	1	Enero	2023-01-25T00:00:00	2024-11-08T03:00:00	8	Radiación solar	0
15829	7	Sololá	710	Panajachel	8	Panajachel	1	Enero	2023-01-25T00:00:00	2024-11-08T04:00:00	2	Temperatura media	13.4
15830	7	Sololá	710	Panajachel	8	Panajachel	1	Enero	2023-01-25T00:00:00	2024-11-08T04:00:00	4	Temperatura máxima	13.9
15831	7	Sololá	710	Panajachel	8	Panajachel	1	Enero	2023-01-25T00:00:00	2024-11-08T04:00:00	3	Temperatura mínima	13.3
15832	7	Sololá	710	Panajachel	8	Panajachel	1	Enero	2023-01-25T00:00:00	2024-11-08T04:00:00	5	Humedad	84
15833	7	Sololá	710	Panajachel	8	Panajachel	1	Enero	2023-01-25T00:00:00	2024-11-08T04:00:00	6	Velocidad del viento	1.6
15834	7	Sololá	710	Panajachel	8	Panajachel	1	Enero	2023-01-25T00:00:00	2024-11-08T04:00:00	7	Dirección del viento	1.61
15835	7	Sololá	710	Panajachel	8	Panajachel	1	Enero	2023-01-25T00:00:00	2024-11-08T04:00:00	1	Precipitación	0
15836	7	Sololá	710	Panajachel	8	Panajachel	1	Enero	2023-01-25T00:00:00	2024-11-08T04:00:00	8	Radiación solar	0
15837	7	Sololá	710	Panajachel	8	Panajachel	1	Enero	2023-01-25T00:00:00	2024-11-08T05:00:00	2	Temperatura media	13.3
15838	7	Sololá	710	Panajachel	8	Panajachel	1	Enero	2023-01-25T00:00:00	2024-11-08T05:00:00	4	Temperatura máxima	13.5
15839	7	Sololá	710	Panajachel	8	Panajachel	1	Enero	2023-01-25T00:00:00	2024-11-08T05:00:00	3	Temperatura mínima	13.2
15840	7	Sololá	710	Panajachel	8	Panajachel	1	Enero	2023-01-25T00:00:00	2024-11-08T05:00:00	5	Humedad	84
15841	7	Sololá	710	Panajachel	8	Panajachel	1	Enero	2023-01-25T00:00:00	2024-11-08T05:00:00	6	Velocidad del viento	3.2
15842	7	Sololá	710	Panajachel	8	Panajachel	1	Enero	2023-01-25T00:00:00	2024-11-08T05:00:00	7	Dirección del viento	3.22
15843	7	Sololá	710	Panajachel	8	Panajachel	1	Enero	2023-01-25T00:00:00	2024-11-08T05:00:00	1	Precipitación	0
15844	7	Sololá	710	Panajachel	8	Panajachel	1	Enero	2023-01-25T00:00:00	2024-11-08T05:00:00	8	Radiación solar	0
15845	7	Sololá	710	Panajachel	8	Panajachel	1	Enero	2023-01-25T00:00:00	2024-11-08T06:00:00	2	Temperatura media	13.4
15846	7	Sololá	710	Panajachel	8	Panajachel	1	Enero	2023-01-25T00:00:00	2024-11-08T06:00:00	4	Temperatura máxima	13.5
15847	7	Sololá	710	Panajachel	8	Panajachel	1	Enero	2023-01-25T00:00:00	2024-11-08T06:00:00	3	Temperatura mínima	12.9
15848	7	Sololá	710	Panajachel	8	Panajachel	1	Enero	2023-01-25T00:00:00	2024-11-08T06:00:00	5	Humedad	81
15849	7	Sololá	710	Panajachel	8	Panajachel	1	Enero	2023-01-25T00:00:00	2024-11-08T06:00:00	6	Velocidad del viento	1.6
15850	7	Sololá	710	Panajachel	8	Panajachel	1	Enero	2023-01-25T00:00:00	2024-11-08T06:00:00	7	Dirección del viento	1.61
15851	7	Sololá	710	Panajachel	8	Panajachel	1	Enero	2023-01-25T00:00:00	2024-11-08T06:00:00	1	Precipitación	0
15852	7	Sololá	710	Panajachel	8	Panajachel	1	Enero	2023-01-25T00:00:00	2024-11-08T06:00:00	8	Radiación solar	0
15853	7	Sololá	710	Panajachel	8	Panajachel	1	Enero	2023-01-25T00:00:00	2024-11-08T07:00:00	2	Temperatura media	13
15854	7	Sololá	710	Panajachel	8	Panajachel	1	Enero	2023-01-25T00:00:00	2024-11-08T07:00:00	4	Temperatura máxima	13.6
15855	7	Sololá	710	Panajachel	8	Panajachel	1	Enero	2023-01-25T00:00:00	2024-11-08T07:00:00	3	Temperatura mínima	12.9
15856	7	Sololá	710	Panajachel	8	Panajachel	1	Enero	2023-01-25T00:00:00	2024-11-08T07:00:00	5	Humedad	82
15857	7	Sololá	710	Panajachel	8	Panajachel	1	Enero	2023-01-25T00:00:00	2024-11-08T07:00:00	6	Velocidad del viento	1.6
15858	7	Sololá	710	Panajachel	8	Panajachel	1	Enero	2023-01-25T00:00:00	2024-11-08T07:00:00	7	Dirección del viento	1.61
15859	7	Sololá	710	Panajachel	8	Panajachel	1	Enero	2023-01-25T00:00:00	2024-11-08T07:00:00	1	Precipitación	0
15860	7	Sololá	710	Panajachel	8	Panajachel	1	Enero	2023-01-25T00:00:00	2024-11-08T07:00:00	8	Radiación solar	3
15861	7	Sololá	710	Panajachel	8	Panajachel	1	Enero	2023-01-25T00:00:00	2024-11-08T08:00:00	2	Temperatura media	15.5
15862	7	Sololá	710	Panajachel	8	Panajachel	1	Enero	2023-01-25T00:00:00	2024-11-08T08:00:00	4	Temperatura máxima	15.5
15863	7	Sololá	710	Panajachel	8	Panajachel	1	Enero	2023-01-25T00:00:00	2024-11-08T08:00:00	3	Temperatura mínima	13
15864	7	Sololá	710	Panajachel	8	Panajachel	1	Enero	2023-01-25T00:00:00	2024-11-08T08:00:00	5	Humedad	75
15865	7	Sololá	710	Panajachel	8	Panajachel	1	Enero	2023-01-25T00:00:00	2024-11-08T08:00:00	6	Velocidad del viento	1.6
15866	7	Sololá	710	Panajachel	8	Panajachel	1	Enero	2023-01-25T00:00:00	2024-11-08T08:00:00	7	Dirección del viento	1.61
15867	7	Sololá	710	Panajachel	8	Panajachel	1	Enero	2023-01-25T00:00:00	2024-11-08T08:00:00	1	Precipitación	0
15868	7	Sololá	710	Panajachel	8	Panajachel	1	Enero	2023-01-25T00:00:00	2024-11-08T08:00:00	8	Radiación solar	44
15869	7	Sololá	710	Panajachel	8	Panajachel	1	Enero	2023-01-25T00:00:00	2024-11-08T09:00:00	2	Temperatura media	17.9
15870	7	Sololá	710	Panajachel	8	Panajachel	1	Enero	2023-01-25T00:00:00	2024-11-08T09:00:00	4	Temperatura máxima	17.9
15871	7	Sololá	710	Panajachel	8	Panajachel	1	Enero	2023-01-25T00:00:00	2024-11-08T09:00:00	3	Temperatura mínima	15.5
15872	7	Sololá	710	Panajachel	8	Panajachel	1	Enero	2023-01-25T00:00:00	2024-11-08T09:00:00	5	Humedad	78
15873	7	Sololá	710	Panajachel	8	Panajachel	1	Enero	2023-01-25T00:00:00	2024-11-08T09:00:00	6	Velocidad del viento	1.6
15874	7	Sololá	710	Panajachel	8	Panajachel	1	Enero	2023-01-25T00:00:00	2024-11-08T09:00:00	7	Dirección del viento	1.61
15875	7	Sololá	710	Panajachel	8	Panajachel	1	Enero	2023-01-25T00:00:00	2024-11-08T09:00:00	1	Precipitación	0
15876	7	Sololá	710	Panajachel	8	Panajachel	1	Enero	2023-01-25T00:00:00	2024-11-08T09:00:00	8	Radiación solar	366
15877	7	Sololá	710	Panajachel	8	Panajachel	1	Enero	2023-01-25T00:00:00	2024-11-08T10:00:00	2	Temperatura media	19.2
15878	7	Sololá	710	Panajachel	8	Panajachel	1	Enero	2023-01-25T00:00:00	2024-11-08T10:00:00	4	Temperatura máxima	19.3
15879	7	Sololá	710	Panajachel	8	Panajachel	1	Enero	2023-01-25T00:00:00	2024-11-08T10:00:00	3	Temperatura mínima	17.9
15880	7	Sololá	710	Panajachel	8	Panajachel	1	Enero	2023-01-25T00:00:00	2024-11-08T10:00:00	5	Humedad	76
15881	7	Sololá	710	Panajachel	8	Panajachel	1	Enero	2023-01-25T00:00:00	2024-11-08T10:00:00	6	Velocidad del viento	3.2
15882	7	Sololá	710	Panajachel	8	Panajachel	1	Enero	2023-01-25T00:00:00	2024-11-08T10:00:00	7	Dirección del viento	3.22
15883	7	Sololá	710	Panajachel	8	Panajachel	1	Enero	2023-01-25T00:00:00	2024-11-08T10:00:00	1	Precipitación	0
15884	7	Sololá	710	Panajachel	8	Panajachel	1	Enero	2023-01-25T00:00:00	2024-11-08T10:00:00	8	Radiación solar	570
15885	7	Sololá	710	Panajachel	8	Panajachel	1	Enero	2023-01-25T00:00:00	2024-11-08T11:00:00	2	Temperatura media	19.9
15886	7	Sololá	710	Panajachel	8	Panajachel	1	Enero	2023-01-25T00:00:00	2024-11-08T11:00:00	4	Temperatura máxima	20.4
15887	7	Sololá	710	Panajachel	8	Panajachel	1	Enero	2023-01-25T00:00:00	2024-11-08T11:00:00	3	Temperatura mínima	19.2
15888	7	Sololá	710	Panajachel	8	Panajachel	1	Enero	2023-01-25T00:00:00	2024-11-08T11:00:00	5	Humedad	75
15889	7	Sololá	710	Panajachel	8	Panajachel	1	Enero	2023-01-25T00:00:00	2024-11-08T11:00:00	6	Velocidad del viento	4.8
15890	7	Sololá	710	Panajachel	8	Panajachel	1	Enero	2023-01-25T00:00:00	2024-11-08T11:00:00	7	Dirección del viento	4.83
15891	7	Sololá	710	Panajachel	8	Panajachel	1	Enero	2023-01-25T00:00:00	2024-11-08T11:00:00	1	Precipitación	0
15892	7	Sololá	710	Panajachel	8	Panajachel	1	Enero	2023-01-25T00:00:00	2024-11-08T11:00:00	8	Radiación solar	728
15893	7	Sololá	710	Panajachel	8	Panajachel	1	Enero	2023-01-25T00:00:00	2024-11-08T12:00:00	2	Temperatura media	22.3
15894	7	Sololá	710	Panajachel	8	Panajachel	1	Enero	2023-01-25T00:00:00	2024-11-08T12:00:00	4	Temperatura máxima	22.3
15895	7	Sololá	710	Panajachel	8	Panajachel	1	Enero	2023-01-25T00:00:00	2024-11-08T12:00:00	3	Temperatura mínima	19.9
15896	7	Sololá	710	Panajachel	8	Panajachel	1	Enero	2023-01-25T00:00:00	2024-11-08T12:00:00	5	Humedad	64
15897	7	Sololá	710	Panajachel	8	Panajachel	1	Enero	2023-01-25T00:00:00	2024-11-08T12:00:00	6	Velocidad del viento	3.2
15898	7	Sololá	710	Panajachel	8	Panajachel	1	Enero	2023-01-25T00:00:00	2024-11-08T12:00:00	7	Dirección del viento	3.22
15899	7	Sololá	710	Panajachel	8	Panajachel	1	Enero	2023-01-25T00:00:00	2024-11-08T12:00:00	1	Precipitación	0
15900	7	Sololá	710	Panajachel	8	Panajachel	1	Enero	2023-01-25T00:00:00	2024-11-08T12:00:00	8	Radiación solar	815
15901	7	Sololá	710	Panajachel	8	Panajachel	1	Enero	2023-01-25T00:00:00	2024-11-08T13:00:00	2	Temperatura media	23.7
15902	7	Sololá	710	Panajachel	8	Panajachel	1	Enero	2023-01-25T00:00:00	2024-11-08T13:00:00	4	Temperatura máxima	23.9
15903	7	Sololá	710	Panajachel	8	Panajachel	1	Enero	2023-01-25T00:00:00	2024-11-08T13:00:00	3	Temperatura mínima	22.3
15904	7	Sololá	710	Panajachel	8	Panajachel	1	Enero	2023-01-25T00:00:00	2024-11-08T13:00:00	5	Humedad	69
15905	7	Sololá	710	Panajachel	8	Panajachel	1	Enero	2023-01-25T00:00:00	2024-11-08T13:00:00	6	Velocidad del viento	4.8
15906	7	Sololá	710	Panajachel	8	Panajachel	1	Enero	2023-01-25T00:00:00	2024-11-08T13:00:00	7	Dirección del viento	4.83
15907	7	Sololá	710	Panajachel	8	Panajachel	1	Enero	2023-01-25T00:00:00	2024-11-08T13:00:00	1	Precipitación	0
15908	7	Sololá	710	Panajachel	8	Panajachel	1	Enero	2023-01-25T00:00:00	2024-11-08T13:00:00	8	Radiación solar	815
15909	7	Sololá	710	Panajachel	8	Panajachel	1	Enero	2023-01-25T00:00:00	2024-11-08T14:00:00	2	Temperatura media	23.9
15910	7	Sololá	710	Panajachel	8	Panajachel	1	Enero	2023-01-25T00:00:00	2024-11-08T14:00:00	4	Temperatura máxima	23.9
15911	7	Sololá	710	Panajachel	8	Panajachel	1	Enero	2023-01-25T00:00:00	2024-11-08T14:00:00	3	Temperatura mínima	23.6
15912	7	Sololá	710	Panajachel	8	Panajachel	1	Enero	2023-01-25T00:00:00	2024-11-08T14:00:00	5	Humedad	65
15913	7	Sololá	710	Panajachel	8	Panajachel	1	Enero	2023-01-25T00:00:00	2024-11-08T14:00:00	6	Velocidad del viento	6.4
15914	7	Sololá	710	Panajachel	8	Panajachel	1	Enero	2023-01-25T00:00:00	2024-11-08T14:00:00	7	Dirección del viento	6.44
15915	7	Sololá	710	Panajachel	8	Panajachel	1	Enero	2023-01-25T00:00:00	2024-11-08T14:00:00	1	Precipitación	0
15916	7	Sololá	710	Panajachel	8	Panajachel	1	Enero	2023-01-25T00:00:00	2024-11-08T14:00:00	8	Radiación solar	761
15917	7	Sololá	710	Panajachel	8	Panajachel	1	Enero	2023-01-25T00:00:00	2024-11-08T15:00:00	2	Temperatura media	23.8
15918	7	Sololá	710	Panajachel	8	Panajachel	1	Enero	2023-01-25T00:00:00	2024-11-08T15:00:00	4	Temperatura máxima	24.1
15919	7	Sololá	710	Panajachel	8	Panajachel	1	Enero	2023-01-25T00:00:00	2024-11-08T15:00:00	3	Temperatura mínima	23.7
15920	7	Sololá	710	Panajachel	8	Panajachel	1	Enero	2023-01-25T00:00:00	2024-11-08T15:00:00	5	Humedad	71
15921	7	Sololá	710	Panajachel	8	Panajachel	1	Enero	2023-01-25T00:00:00	2024-11-08T15:00:00	6	Velocidad del viento	4.8
15922	7	Sololá	710	Panajachel	8	Panajachel	1	Enero	2023-01-25T00:00:00	2024-11-08T15:00:00	7	Dirección del viento	4.83
15923	7	Sololá	710	Panajachel	8	Panajachel	1	Enero	2023-01-25T00:00:00	2024-11-08T15:00:00	1	Precipitación	0
15924	7	Sololá	710	Panajachel	8	Panajachel	1	Enero	2023-01-25T00:00:00	2024-11-08T15:00:00	8	Radiación solar	647
15925	7	Sololá	710	Panajachel	8	Panajachel	1	Enero	2023-01-25T00:00:00	2024-11-08T16:00:00	2	Temperatura media	23.1
15926	7	Sololá	710	Panajachel	8	Panajachel	1	Enero	2023-01-25T00:00:00	2024-11-08T16:00:00	4	Temperatura máxima	23.9
15927	7	Sololá	710	Panajachel	8	Panajachel	1	Enero	2023-01-25T00:00:00	2024-11-08T16:00:00	3	Temperatura mínima	23
15928	7	Sololá	710	Panajachel	8	Panajachel	1	Enero	2023-01-25T00:00:00	2024-11-08T16:00:00	5	Humedad	74
15929	7	Sololá	710	Panajachel	8	Panajachel	1	Enero	2023-01-25T00:00:00	2024-11-08T16:00:00	6	Velocidad del viento	6.4
15930	7	Sololá	710	Panajachel	8	Panajachel	1	Enero	2023-01-25T00:00:00	2024-11-08T16:00:00	7	Dirección del viento	6.44
15931	7	Sololá	710	Panajachel	8	Panajachel	1	Enero	2023-01-25T00:00:00	2024-11-08T16:00:00	1	Precipitación	0
15932	7	Sololá	710	Panajachel	8	Panajachel	1	Enero	2023-01-25T00:00:00	2024-11-08T16:00:00	8	Radiación solar	509
15933	7	Sololá	710	Panajachel	8	Panajachel	1	Enero	2023-01-25T00:00:00	2024-11-08T17:00:00	2	Temperatura media	22.3
15934	7	Sololá	710	Panajachel	8	Panajachel	1	Enero	2023-01-25T00:00:00	2024-11-08T17:00:00	4	Temperatura máxima	23.2
15935	7	Sololá	710	Panajachel	8	Panajachel	1	Enero	2023-01-25T00:00:00	2024-11-08T17:00:00	3	Temperatura mínima	22.2
15936	7	Sololá	710	Panajachel	8	Panajachel	1	Enero	2023-01-25T00:00:00	2024-11-08T17:00:00	5	Humedad	77
15937	7	Sololá	710	Panajachel	8	Panajachel	1	Enero	2023-01-25T00:00:00	2024-11-08T17:00:00	6	Velocidad del viento	6.4
15938	7	Sololá	710	Panajachel	8	Panajachel	1	Enero	2023-01-25T00:00:00	2024-11-08T17:00:00	7	Dirección del viento	6.44
15939	7	Sololá	710	Panajachel	8	Panajachel	1	Enero	2023-01-25T00:00:00	2024-11-08T17:00:00	1	Precipitación	0
15940	7	Sololá	710	Panajachel	8	Panajachel	1	Enero	2023-01-25T00:00:00	2024-11-08T17:00:00	8	Radiación solar	272
15941	7	Sololá	710	Panajachel	8	Panajachel	1	Enero	2023-01-25T00:00:00	2024-11-08T18:00:00	2	Temperatura media	20.6
15942	7	Sololá	710	Panajachel	8	Panajachel	1	Enero	2023-01-25T00:00:00	2024-11-08T18:00:00	4	Temperatura máxima	22.3
15943	7	Sololá	710	Panajachel	8	Panajachel	1	Enero	2023-01-25T00:00:00	2024-11-08T18:00:00	3	Temperatura mínima	20.6
15944	7	Sololá	710	Panajachel	8	Panajachel	1	Enero	2023-01-25T00:00:00	2024-11-08T18:00:00	5	Humedad	81
15945	7	Sololá	710	Panajachel	8	Panajachel	1	Enero	2023-01-25T00:00:00	2024-11-08T18:00:00	6	Velocidad del viento	3.2
15946	7	Sololá	710	Panajachel	8	Panajachel	1	Enero	2023-01-25T00:00:00	2024-11-08T18:00:00	7	Dirección del viento	3.22
15947	7	Sololá	710	Panajachel	8	Panajachel	1	Enero	2023-01-25T00:00:00	2024-11-08T18:00:00	1	Precipitación	0
15948	7	Sololá	710	Panajachel	8	Panajachel	1	Enero	2023-01-25T00:00:00	2024-11-08T18:00:00	8	Radiación solar	62
15949	7	Sololá	710	Panajachel	8	Panajachel	1	Enero	2023-01-25T00:00:00	2024-11-08T19:00:00	2	Temperatura media	19.7
15950	7	Sololá	710	Panajachel	8	Panajachel	1	Enero	2023-01-25T00:00:00	2024-11-08T19:00:00	4	Temperatura máxima	20.7
15951	7	Sololá	710	Panajachel	8	Panajachel	1	Enero	2023-01-25T00:00:00	2024-11-08T19:00:00	3	Temperatura mínima	19.6
15952	7	Sololá	710	Panajachel	8	Panajachel	1	Enero	2023-01-25T00:00:00	2024-11-08T19:00:00	5	Humedad	87
15953	7	Sololá	710	Panajachel	8	Panajachel	1	Enero	2023-01-25T00:00:00	2024-11-08T19:00:00	6	Velocidad del viento	0
15954	7	Sololá	710	Panajachel	8	Panajachel	1	Enero	2023-01-25T00:00:00	2024-11-08T19:00:00	7	Dirección del viento	0
15955	7	Sololá	710	Panajachel	8	Panajachel	1	Enero	2023-01-25T00:00:00	2024-11-08T19:00:00	1	Precipitación	0
15956	7	Sololá	710	Panajachel	8	Panajachel	1	Enero	2023-01-25T00:00:00	2024-11-08T19:00:00	8	Radiación solar	0
15957	7	Sololá	710	Panajachel	8	Panajachel	1	Enero	2023-01-25T00:00:00	2024-11-08T20:00:00	2	Temperatura media	17.9
15958	7	Sololá	710	Panajachel	8	Panajachel	1	Enero	2023-01-25T00:00:00	2024-11-08T20:00:00	4	Temperatura máxima	19.7
15959	7	Sololá	710	Panajachel	8	Panajachel	1	Enero	2023-01-25T00:00:00	2024-11-08T20:00:00	3	Temperatura mínima	17.9
15960	7	Sololá	710	Panajachel	8	Panajachel	1	Enero	2023-01-25T00:00:00	2024-11-08T20:00:00	5	Humedad	75
15961	7	Sololá	710	Panajachel	8	Panajachel	1	Enero	2023-01-25T00:00:00	2024-11-08T20:00:00	6	Velocidad del viento	3.2
15962	7	Sololá	710	Panajachel	8	Panajachel	1	Enero	2023-01-25T00:00:00	2024-11-08T20:00:00	7	Dirección del viento	3.22
15963	7	Sololá	710	Panajachel	8	Panajachel	1	Enero	2023-01-25T00:00:00	2024-11-08T20:00:00	1	Precipitación	0
15964	7	Sololá	710	Panajachel	8	Panajachel	1	Enero	2023-01-25T00:00:00	2024-11-08T20:00:00	8	Radiación solar	0
15965	7	Sololá	710	Panajachel	8	Panajachel	1	Enero	2023-01-25T00:00:00	2024-11-08T21:00:00	2	Temperatura media	19.7
15966	7	Sololá	710	Panajachel	8	Panajachel	1	Enero	2023-01-25T00:00:00	2024-11-08T21:00:00	4	Temperatura máxima	20.1
15967	7	Sololá	710	Panajachel	8	Panajachel	1	Enero	2023-01-25T00:00:00	2024-11-08T21:00:00	3	Temperatura mínima	17.9
15968	7	Sololá	710	Panajachel	8	Panajachel	1	Enero	2023-01-25T00:00:00	2024-11-08T21:00:00	5	Humedad	53
15969	7	Sololá	710	Panajachel	8	Panajachel	1	Enero	2023-01-25T00:00:00	2024-11-08T21:00:00	6	Velocidad del viento	8
15970	7	Sololá	710	Panajachel	8	Panajachel	1	Enero	2023-01-25T00:00:00	2024-11-08T21:00:00	7	Dirección del viento	8.05
15971	7	Sololá	710	Panajachel	8	Panajachel	1	Enero	2023-01-25T00:00:00	2024-11-08T21:00:00	1	Precipitación	0
15972	7	Sololá	710	Panajachel	8	Panajachel	1	Enero	2023-01-25T00:00:00	2024-11-08T21:00:00	8	Radiación solar	0
15973	7	Sololá	710	Panajachel	8	Panajachel	1	Enero	2023-01-25T00:00:00	2024-11-08T22:00:00	2	Temperatura media	19.4
15974	7	Sololá	710	Panajachel	8	Panajachel	1	Enero	2023-01-25T00:00:00	2024-11-08T22:00:00	4	Temperatura máxima	19.7
15975	7	Sololá	710	Panajachel	8	Panajachel	1	Enero	2023-01-25T00:00:00	2024-11-08T22:00:00	3	Temperatura mínima	19.4
15976	7	Sololá	710	Panajachel	8	Panajachel	1	Enero	2023-01-25T00:00:00	2024-11-08T22:00:00	5	Humedad	55
15977	7	Sololá	710	Panajachel	8	Panajachel	1	Enero	2023-01-25T00:00:00	2024-11-08T22:00:00	6	Velocidad del viento	8
15978	7	Sololá	710	Panajachel	8	Panajachel	1	Enero	2023-01-25T00:00:00	2024-11-08T22:00:00	7	Dirección del viento	8.05
15979	7	Sololá	710	Panajachel	8	Panajachel	1	Enero	2023-01-25T00:00:00	2024-11-08T22:00:00	1	Precipitación	0
15980	7	Sololá	710	Panajachel	8	Panajachel	1	Enero	2023-01-25T00:00:00	2024-11-08T22:00:00	8	Radiación solar	0
15981	7	Sololá	710	Panajachel	8	Panajachel	1	Enero	2023-01-25T00:00:00	2024-11-08T23:00:00	2	Temperatura media	18.9
15982	7	Sololá	710	Panajachel	8	Panajachel	1	Enero	2023-01-25T00:00:00	2024-11-08T23:00:00	4	Temperatura máxima	19.4
15983	7	Sololá	710	Panajachel	8	Panajachel	1	Enero	2023-01-25T00:00:00	2024-11-08T23:00:00	3	Temperatura mínima	18.9
15984	7	Sololá	710	Panajachel	8	Panajachel	1	Enero	2023-01-25T00:00:00	2024-11-08T23:00:00	5	Humedad	63
15985	7	Sololá	710	Panajachel	8	Panajachel	1	Enero	2023-01-25T00:00:00	2024-11-08T23:00:00	6	Velocidad del viento	8
15986	7	Sololá	710	Panajachel	8	Panajachel	1	Enero	2023-01-25T00:00:00	2024-11-08T23:00:00	7	Dirección del viento	8.05
15987	7	Sololá	710	Panajachel	8	Panajachel	1	Enero	2023-01-25T00:00:00	2024-11-08T23:00:00	1	Precipitación	0
15988	7	Sololá	710	Panajachel	8	Panajachel	1	Enero	2023-01-25T00:00:00	2024-11-08T23:00:00	8	Radiación solar	0
15989	7	Sololá	710	Panajachel	8	Panajachel	1	Enero	2023-01-26T00:00:00	2024-11-08T00:00:00	2	Temperatura media	18.6
15990	7	Sololá	710	Panajachel	8	Panajachel	1	Enero	2023-01-26T00:00:00	2024-11-08T00:00:00	4	Temperatura máxima	19
15991	7	Sololá	710	Panajachel	8	Panajachel	1	Enero	2023-01-26T00:00:00	2024-11-08T00:00:00	3	Temperatura mínima	18.6
15992	7	Sololá	710	Panajachel	8	Panajachel	1	Enero	2023-01-26T00:00:00	2024-11-08T00:00:00	5	Humedad	67
15993	7	Sololá	710	Panajachel	8	Panajachel	1	Enero	2023-01-26T00:00:00	2024-11-08T00:00:00	6	Velocidad del viento	12.9
15994	7	Sololá	710	Panajachel	8	Panajachel	1	Enero	2023-01-26T00:00:00	2024-11-08T00:00:00	7	Dirección del viento	12.87
15995	7	Sololá	710	Panajachel	8	Panajachel	1	Enero	2023-01-26T00:00:00	2024-11-08T00:00:00	1	Precipitación	0
15996	7	Sololá	710	Panajachel	8	Panajachel	1	Enero	2023-01-26T00:00:00	2024-11-08T00:00:00	8	Radiación solar	0
15997	7	Sololá	710	Panajachel	8	Panajachel	1	Enero	2023-01-26T00:00:00	2024-11-08T01:00:00	2	Temperatura media	18.4
15998	7	Sololá	710	Panajachel	8	Panajachel	1	Enero	2023-01-26T00:00:00	2024-11-08T01:00:00	4	Temperatura máxima	18.7
15999	7	Sololá	710	Panajachel	8	Panajachel	1	Enero	2023-01-26T00:00:00	2024-11-08T01:00:00	3	Temperatura mínima	18.1
16000	7	Sololá	710	Panajachel	8	Panajachel	1	Enero	2023-01-26T00:00:00	2024-11-08T01:00:00	5	Humedad	68
16001	7	Sololá	710	Panajachel	8	Panajachel	1	Enero	2023-01-26T00:00:00	2024-11-08T01:00:00	6	Velocidad del viento	9.7
16002	7	Sololá	710	Panajachel	8	Panajachel	1	Enero	2023-01-26T00:00:00	2024-11-08T01:00:00	7	Dirección del viento	9.66
16003	7	Sololá	710	Panajachel	8	Panajachel	1	Enero	2023-01-26T00:00:00	2024-11-08T01:00:00	1	Precipitación	0
16004	7	Sololá	710	Panajachel	8	Panajachel	1	Enero	2023-01-26T00:00:00	2024-11-08T01:00:00	8	Radiación solar	0
16005	7	Sololá	710	Panajachel	8	Panajachel	1	Enero	2023-01-26T00:00:00	2024-11-08T02:00:00	2	Temperatura media	18.1
16006	7	Sololá	710	Panajachel	8	Panajachel	1	Enero	2023-01-26T00:00:00	2024-11-08T02:00:00	4	Temperatura máxima	18.4
16007	7	Sololá	710	Panajachel	8	Panajachel	1	Enero	2023-01-26T00:00:00	2024-11-08T02:00:00	3	Temperatura mínima	17.9
16008	7	Sololá	710	Panajachel	8	Panajachel	1	Enero	2023-01-26T00:00:00	2024-11-08T02:00:00	5	Humedad	69
16009	7	Sololá	710	Panajachel	8	Panajachel	1	Enero	2023-01-26T00:00:00	2024-11-08T02:00:00	6	Velocidad del viento	8
16010	7	Sololá	710	Panajachel	8	Panajachel	1	Enero	2023-01-26T00:00:00	2024-11-08T02:00:00	7	Dirección del viento	8.05
16011	7	Sololá	710	Panajachel	8	Panajachel	1	Enero	2023-01-26T00:00:00	2024-11-08T02:00:00	1	Precipitación	0
16012	7	Sololá	710	Panajachel	8	Panajachel	1	Enero	2023-01-26T00:00:00	2024-11-08T02:00:00	8	Radiación solar	0
16013	7	Sololá	710	Panajachel	8	Panajachel	1	Enero	2023-01-26T00:00:00	2024-11-08T03:00:00	2	Temperatura media	17.9
16014	7	Sololá	710	Panajachel	8	Panajachel	1	Enero	2023-01-26T00:00:00	2024-11-08T03:00:00	4	Temperatura máxima	18.3
16015	7	Sololá	710	Panajachel	8	Panajachel	1	Enero	2023-01-26T00:00:00	2024-11-08T03:00:00	3	Temperatura mínima	17.8
16016	7	Sololá	710	Panajachel	8	Panajachel	1	Enero	2023-01-26T00:00:00	2024-11-08T03:00:00	5	Humedad	70
16017	7	Sololá	710	Panajachel	8	Panajachel	1	Enero	2023-01-26T00:00:00	2024-11-08T03:00:00	6	Velocidad del viento	8
16018	7	Sololá	710	Panajachel	8	Panajachel	1	Enero	2023-01-26T00:00:00	2024-11-08T03:00:00	7	Dirección del viento	8.05
16019	7	Sololá	710	Panajachel	8	Panajachel	1	Enero	2023-01-26T00:00:00	2024-11-08T03:00:00	1	Precipitación	0
16020	7	Sololá	710	Panajachel	8	Panajachel	1	Enero	2023-01-26T00:00:00	2024-11-08T03:00:00	8	Radiación solar	0
16021	7	Sololá	710	Panajachel	8	Panajachel	1	Enero	2023-01-26T00:00:00	2024-11-08T04:00:00	2	Temperatura media	18.4
16022	7	Sololá	710	Panajachel	8	Panajachel	1	Enero	2023-01-26T00:00:00	2024-11-08T04:00:00	4	Temperatura máxima	18.4
16023	7	Sololá	710	Panajachel	8	Panajachel	1	Enero	2023-01-26T00:00:00	2024-11-08T04:00:00	3	Temperatura mínima	17.8
16024	7	Sololá	710	Panajachel	8	Panajachel	1	Enero	2023-01-26T00:00:00	2024-11-08T04:00:00	5	Humedad	67
16025	7	Sololá	710	Panajachel	8	Panajachel	1	Enero	2023-01-26T00:00:00	2024-11-08T04:00:00	6	Velocidad del viento	9.7
16026	7	Sololá	710	Panajachel	8	Panajachel	1	Enero	2023-01-26T00:00:00	2024-11-08T04:00:00	7	Dirección del viento	9.66
16027	7	Sololá	710	Panajachel	8	Panajachel	1	Enero	2023-01-26T00:00:00	2024-11-08T04:00:00	1	Precipitación	0
16028	7	Sololá	710	Panajachel	8	Panajachel	1	Enero	2023-01-26T00:00:00	2024-11-08T04:00:00	8	Radiación solar	0
16029	7	Sololá	710	Panajachel	8	Panajachel	1	Enero	2023-01-26T00:00:00	2024-11-08T05:00:00	2	Temperatura media	18.5
16030	7	Sololá	710	Panajachel	8	Panajachel	1	Enero	2023-01-26T00:00:00	2024-11-08T05:00:00	4	Temperatura máxima	18.6
16031	7	Sololá	710	Panajachel	8	Panajachel	1	Enero	2023-01-26T00:00:00	2024-11-08T05:00:00	3	Temperatura mínima	18.3
16032	7	Sololá	710	Panajachel	8	Panajachel	1	Enero	2023-01-26T00:00:00	2024-11-08T05:00:00	5	Humedad	67
16033	7	Sololá	710	Panajachel	8	Panajachel	1	Enero	2023-01-26T00:00:00	2024-11-08T05:00:00	6	Velocidad del viento	9.7
16034	7	Sololá	710	Panajachel	8	Panajachel	1	Enero	2023-01-26T00:00:00	2024-11-08T05:00:00	7	Dirección del viento	9.66
16035	7	Sololá	710	Panajachel	8	Panajachel	1	Enero	2023-01-26T00:00:00	2024-11-08T05:00:00	1	Precipitación	0
16036	7	Sololá	710	Panajachel	8	Panajachel	1	Enero	2023-01-26T00:00:00	2024-11-08T05:00:00	8	Radiación solar	0
16037	7	Sololá	710	Panajachel	8	Panajachel	1	Enero	2023-01-26T00:00:00	2024-11-08T06:00:00	2	Temperatura media	18.8
16038	7	Sololá	710	Panajachel	8	Panajachel	1	Enero	2023-01-26T00:00:00	2024-11-08T06:00:00	4	Temperatura máxima	19
16039	7	Sololá	710	Panajachel	8	Panajachel	1	Enero	2023-01-26T00:00:00	2024-11-08T06:00:00	3	Temperatura mínima	18.5
16040	7	Sololá	710	Panajachel	8	Panajachel	1	Enero	2023-01-26T00:00:00	2024-11-08T06:00:00	5	Humedad	65
16041	7	Sololá	710	Panajachel	8	Panajachel	1	Enero	2023-01-26T00:00:00	2024-11-08T06:00:00	6	Velocidad del viento	17.7
16042	7	Sololá	710	Panajachel	8	Panajachel	1	Enero	2023-01-26T00:00:00	2024-11-08T06:00:00	7	Dirección del viento	17.7
16043	7	Sololá	710	Panajachel	8	Panajachel	1	Enero	2023-01-26T00:00:00	2024-11-08T06:00:00	1	Precipitación	0
16044	7	Sololá	710	Panajachel	8	Panajachel	1	Enero	2023-01-26T00:00:00	2024-11-08T06:00:00	8	Radiación solar	0
16045	7	Sololá	710	Panajachel	8	Panajachel	1	Enero	2023-01-26T00:00:00	2024-11-08T07:00:00	2	Temperatura media	19.2
16046	7	Sololá	710	Panajachel	8	Panajachel	1	Enero	2023-01-26T00:00:00	2024-11-08T07:00:00	4	Temperatura máxima	19.2
16047	7	Sololá	710	Panajachel	8	Panajachel	1	Enero	2023-01-26T00:00:00	2024-11-08T07:00:00	3	Temperatura mínima	18.7
16048	7	Sololá	710	Panajachel	8	Panajachel	1	Enero	2023-01-26T00:00:00	2024-11-08T07:00:00	5	Humedad	65
16049	7	Sololá	710	Panajachel	8	Panajachel	1	Enero	2023-01-26T00:00:00	2024-11-08T07:00:00	6	Velocidad del viento	14.5
16050	7	Sololá	710	Panajachel	8	Panajachel	1	Enero	2023-01-26T00:00:00	2024-11-08T07:00:00	7	Dirección del viento	14.48
16051	7	Sololá	710	Panajachel	8	Panajachel	1	Enero	2023-01-26T00:00:00	2024-11-08T07:00:00	1	Precipitación	0
16052	7	Sololá	710	Panajachel	8	Panajachel	1	Enero	2023-01-26T00:00:00	2024-11-08T07:00:00	8	Radiación solar	4
16053	7	Sololá	710	Panajachel	8	Panajachel	1	Enero	2023-01-26T00:00:00	2024-11-08T08:00:00	2	Temperatura media	19.8
16054	7	Sololá	710	Panajachel	8	Panajachel	1	Enero	2023-01-26T00:00:00	2024-11-08T08:00:00	4	Temperatura máxima	19.8
16055	7	Sololá	710	Panajachel	8	Panajachel	1	Enero	2023-01-26T00:00:00	2024-11-08T08:00:00	3	Temperatura mínima	19.1
16056	7	Sololá	710	Panajachel	8	Panajachel	1	Enero	2023-01-26T00:00:00	2024-11-08T08:00:00	5	Humedad	65
16057	7	Sololá	710	Panajachel	8	Panajachel	1	Enero	2023-01-26T00:00:00	2024-11-08T08:00:00	6	Velocidad del viento	14.5
16058	7	Sololá	710	Panajachel	8	Panajachel	1	Enero	2023-01-26T00:00:00	2024-11-08T08:00:00	7	Dirección del viento	14.48
16059	7	Sololá	710	Panajachel	8	Panajachel	1	Enero	2023-01-26T00:00:00	2024-11-08T08:00:00	1	Precipitación	0
16060	7	Sololá	710	Panajachel	8	Panajachel	1	Enero	2023-01-26T00:00:00	2024-11-08T08:00:00	8	Radiación solar	33
16061	7	Sololá	710	Panajachel	8	Panajachel	1	Enero	2023-01-26T00:00:00	2024-11-08T09:00:00	2	Temperatura media	21.2
16062	7	Sololá	710	Panajachel	8	Panajachel	1	Enero	2023-01-26T00:00:00	2024-11-08T09:00:00	4	Temperatura máxima	21.2
16063	7	Sololá	710	Panajachel	8	Panajachel	1	Enero	2023-01-26T00:00:00	2024-11-08T09:00:00	3	Temperatura mínima	19.8
16064	7	Sololá	710	Panajachel	8	Panajachel	1	Enero	2023-01-26T00:00:00	2024-11-08T09:00:00	5	Humedad	63
16065	7	Sololá	710	Panajachel	8	Panajachel	1	Enero	2023-01-26T00:00:00	2024-11-08T09:00:00	6	Velocidad del viento	12.9
16066	7	Sololá	710	Panajachel	8	Panajachel	1	Enero	2023-01-26T00:00:00	2024-11-08T09:00:00	7	Dirección del viento	12.87
16067	7	Sololá	710	Panajachel	8	Panajachel	1	Enero	2023-01-26T00:00:00	2024-11-08T09:00:00	1	Precipitación	0
16068	7	Sololá	710	Panajachel	8	Panajachel	1	Enero	2023-01-26T00:00:00	2024-11-08T09:00:00	8	Radiación solar	374
16069	7	Sololá	710	Panajachel	8	Panajachel	1	Enero	2023-01-26T00:00:00	2024-11-08T10:00:00	2	Temperatura media	22.2
16070	7	Sololá	710	Panajachel	8	Panajachel	1	Enero	2023-01-26T00:00:00	2024-11-08T10:00:00	4	Temperatura máxima	22.3
16071	7	Sololá	710	Panajachel	8	Panajachel	1	Enero	2023-01-26T00:00:00	2024-11-08T10:00:00	3	Temperatura mínima	21.2
16072	7	Sololá	710	Panajachel	8	Panajachel	1	Enero	2023-01-26T00:00:00	2024-11-08T10:00:00	5	Humedad	58
16073	7	Sololá	710	Panajachel	8	Panajachel	1	Enero	2023-01-26T00:00:00	2024-11-08T10:00:00	6	Velocidad del viento	16.1
16074	7	Sololá	710	Panajachel	8	Panajachel	1	Enero	2023-01-26T00:00:00	2024-11-08T10:00:00	7	Dirección del viento	16.09
16075	7	Sololá	710	Panajachel	8	Panajachel	1	Enero	2023-01-26T00:00:00	2024-11-08T10:00:00	1	Precipitación	0
16076	7	Sololá	710	Panajachel	8	Panajachel	1	Enero	2023-01-26T00:00:00	2024-11-08T10:00:00	8	Radiación solar	569
16077	7	Sololá	710	Panajachel	8	Panajachel	1	Enero	2023-01-26T00:00:00	2024-11-08T11:00:00	2	Temperatura media	23.6
16078	7	Sololá	710	Panajachel	8	Panajachel	1	Enero	2023-01-26T00:00:00	2024-11-08T11:00:00	4	Temperatura máxima	23.7
16079	7	Sololá	710	Panajachel	8	Panajachel	1	Enero	2023-01-26T00:00:00	2024-11-08T11:00:00	3	Temperatura mínima	22.2
16080	7	Sololá	710	Panajachel	8	Panajachel	1	Enero	2023-01-26T00:00:00	2024-11-08T11:00:00	5	Humedad	52
16081	7	Sololá	710	Panajachel	8	Panajachel	1	Enero	2023-01-26T00:00:00	2024-11-08T11:00:00	6	Velocidad del viento	16.1
16082	7	Sololá	710	Panajachel	8	Panajachel	1	Enero	2023-01-26T00:00:00	2024-11-08T11:00:00	7	Dirección del viento	16.09
16083	7	Sololá	710	Panajachel	8	Panajachel	1	Enero	2023-01-26T00:00:00	2024-11-08T11:00:00	1	Precipitación	0
16084	7	Sololá	710	Panajachel	8	Panajachel	1	Enero	2023-01-26T00:00:00	2024-11-08T11:00:00	8	Radiación solar	726
16085	7	Sololá	710	Panajachel	8	Panajachel	1	Enero	2023-01-26T00:00:00	2024-11-08T12:00:00	2	Temperatura media	23.9
16086	7	Sololá	710	Panajachel	8	Panajachel	1	Enero	2023-01-26T00:00:00	2024-11-08T12:00:00	4	Temperatura máxima	24.4
16087	7	Sololá	710	Panajachel	8	Panajachel	1	Enero	2023-01-26T00:00:00	2024-11-08T12:00:00	3	Temperatura mínima	23.5
16088	7	Sololá	710	Panajachel	8	Panajachel	1	Enero	2023-01-26T00:00:00	2024-11-08T12:00:00	5	Humedad	51
16089	7	Sololá	710	Panajachel	8	Panajachel	1	Enero	2023-01-26T00:00:00	2024-11-08T12:00:00	6	Velocidad del viento	14.5
16090	7	Sololá	710	Panajachel	8	Panajachel	1	Enero	2023-01-26T00:00:00	2024-11-08T12:00:00	7	Dirección del viento	14.48
16091	7	Sololá	710	Panajachel	8	Panajachel	1	Enero	2023-01-26T00:00:00	2024-11-08T12:00:00	1	Precipitación	0
16092	7	Sololá	710	Panajachel	8	Panajachel	1	Enero	2023-01-26T00:00:00	2024-11-08T12:00:00	8	Radiación solar	815
16093	7	Sololá	710	Panajachel	8	Panajachel	1	Enero	2023-01-26T00:00:00	2024-11-08T13:00:00	2	Temperatura media	24.5
16094	7	Sololá	710	Panajachel	8	Panajachel	1	Enero	2023-01-26T00:00:00	2024-11-08T13:00:00	4	Temperatura máxima	24.7
16095	7	Sololá	710	Panajachel	8	Panajachel	1	Enero	2023-01-26T00:00:00	2024-11-08T13:00:00	3	Temperatura mínima	23.9
16096	7	Sololá	710	Panajachel	8	Panajachel	1	Enero	2023-01-26T00:00:00	2024-11-08T13:00:00	5	Humedad	51
16097	7	Sololá	710	Panajachel	8	Panajachel	1	Enero	2023-01-26T00:00:00	2024-11-08T13:00:00	6	Velocidad del viento	12.9
16098	7	Sololá	710	Panajachel	8	Panajachel	1	Enero	2023-01-26T00:00:00	2024-11-08T13:00:00	7	Dirección del viento	12.87
16099	7	Sololá	710	Panajachel	8	Panajachel	1	Enero	2023-01-26T00:00:00	2024-11-08T13:00:00	1	Precipitación	0
16100	7	Sololá	710	Panajachel	8	Panajachel	1	Enero	2023-01-26T00:00:00	2024-11-08T13:00:00	8	Radiación solar	827
16101	7	Sololá	710	Panajachel	8	Panajachel	1	Enero	2023-01-26T00:00:00	2024-11-08T14:00:00	2	Temperatura media	24.8
16102	7	Sololá	710	Panajachel	8	Panajachel	1	Enero	2023-01-26T00:00:00	2024-11-08T14:00:00	4	Temperatura máxima	24.9
16103	7	Sololá	710	Panajachel	8	Panajachel	1	Enero	2023-01-26T00:00:00	2024-11-08T14:00:00	3	Temperatura mínima	24.3
16104	7	Sololá	710	Panajachel	8	Panajachel	1	Enero	2023-01-26T00:00:00	2024-11-08T14:00:00	5	Humedad	48
16105	7	Sololá	710	Panajachel	8	Panajachel	1	Enero	2023-01-26T00:00:00	2024-11-08T14:00:00	6	Velocidad del viento	12.9
16106	7	Sololá	710	Panajachel	8	Panajachel	1	Enero	2023-01-26T00:00:00	2024-11-08T14:00:00	7	Dirección del viento	12.87
16107	7	Sololá	710	Panajachel	8	Panajachel	1	Enero	2023-01-26T00:00:00	2024-11-08T14:00:00	1	Precipitación	0
16108	7	Sololá	710	Panajachel	8	Panajachel	1	Enero	2023-01-26T00:00:00	2024-11-08T14:00:00	8	Radiación solar	778
16109	7	Sololá	710	Panajachel	8	Panajachel	1	Enero	2023-01-26T00:00:00	2024-11-08T15:00:00	2	Temperatura media	25
16110	7	Sololá	710	Panajachel	8	Panajachel	1	Enero	2023-01-26T00:00:00	2024-11-08T15:00:00	4	Temperatura máxima	25.3
16111	7	Sololá	710	Panajachel	8	Panajachel	1	Enero	2023-01-26T00:00:00	2024-11-08T15:00:00	3	Temperatura mínima	24.7
16112	7	Sololá	710	Panajachel	8	Panajachel	1	Enero	2023-01-26T00:00:00	2024-11-08T15:00:00	5	Humedad	44
16113	7	Sololá	710	Panajachel	8	Panajachel	1	Enero	2023-01-26T00:00:00	2024-11-08T15:00:00	6	Velocidad del viento	9.7
16114	7	Sololá	710	Panajachel	8	Panajachel	1	Enero	2023-01-26T00:00:00	2024-11-08T15:00:00	7	Dirección del viento	9.66
16115	7	Sololá	710	Panajachel	8	Panajachel	1	Enero	2023-01-26T00:00:00	2024-11-08T15:00:00	1	Precipitación	0
16116	7	Sololá	710	Panajachel	8	Panajachel	1	Enero	2023-01-26T00:00:00	2024-11-08T15:00:00	8	Radiación solar	664
16117	7	Sololá	710	Panajachel	8	Panajachel	1	Enero	2023-01-26T00:00:00	2024-11-08T16:00:00	2	Temperatura media	23.4
16118	7	Sololá	710	Panajachel	8	Panajachel	1	Enero	2023-01-26T00:00:00	2024-11-08T16:00:00	4	Temperatura máxima	25
16119	7	Sololá	710	Panajachel	8	Panajachel	1	Enero	2023-01-26T00:00:00	2024-11-08T16:00:00	3	Temperatura mínima	23.3
16120	7	Sololá	710	Panajachel	8	Panajachel	1	Enero	2023-01-26T00:00:00	2024-11-08T16:00:00	5	Humedad	52
16121	7	Sololá	710	Panajachel	8	Panajachel	1	Enero	2023-01-26T00:00:00	2024-11-08T16:00:00	6	Velocidad del viento	11.3
16122	7	Sololá	710	Panajachel	8	Panajachel	1	Enero	2023-01-26T00:00:00	2024-11-08T16:00:00	7	Dirección del viento	11.27
16123	7	Sololá	710	Panajachel	8	Panajachel	1	Enero	2023-01-26T00:00:00	2024-11-08T16:00:00	1	Precipitación	0
16124	7	Sololá	710	Panajachel	8	Panajachel	1	Enero	2023-01-26T00:00:00	2024-11-08T16:00:00	8	Radiación solar	490
16125	7	Sololá	710	Panajachel	8	Panajachel	1	Enero	2023-01-26T00:00:00	2024-11-08T17:00:00	2	Temperatura media	21.7
16126	7	Sololá	710	Panajachel	8	Panajachel	1	Enero	2023-01-26T00:00:00	2024-11-08T17:00:00	4	Temperatura máxima	23.4
16127	7	Sololá	710	Panajachel	8	Panajachel	1	Enero	2023-01-26T00:00:00	2024-11-08T17:00:00	3	Temperatura mínima	21.7
16128	7	Sololá	710	Panajachel	8	Panajachel	1	Enero	2023-01-26T00:00:00	2024-11-08T17:00:00	5	Humedad	54
16129	7	Sololá	710	Panajachel	8	Panajachel	1	Enero	2023-01-26T00:00:00	2024-11-08T17:00:00	6	Velocidad del viento	12.9
16130	7	Sololá	710	Panajachel	8	Panajachel	1	Enero	2023-01-26T00:00:00	2024-11-08T17:00:00	7	Dirección del viento	12.87
16131	7	Sololá	710	Panajachel	8	Panajachel	1	Enero	2023-01-26T00:00:00	2024-11-08T17:00:00	1	Precipitación	0
16132	7	Sololá	710	Panajachel	8	Panajachel	1	Enero	2023-01-26T00:00:00	2024-11-08T17:00:00	8	Radiación solar	262
16133	7	Sololá	710	Panajachel	8	Panajachel	1	Enero	2023-01-26T00:00:00	2024-11-08T18:00:00	2	Temperatura media	19.8
16134	7	Sololá	710	Panajachel	8	Panajachel	1	Enero	2023-01-26T00:00:00	2024-11-08T18:00:00	4	Temperatura máxima	21.7
16135	7	Sololá	710	Panajachel	8	Panajachel	1	Enero	2023-01-26T00:00:00	2024-11-08T18:00:00	3	Temperatura mínima	19.8
16136	7	Sololá	710	Panajachel	8	Panajachel	1	Enero	2023-01-26T00:00:00	2024-11-08T18:00:00	5	Humedad	61
16137	7	Sololá	710	Panajachel	8	Panajachel	1	Enero	2023-01-26T00:00:00	2024-11-08T18:00:00	6	Velocidad del viento	16.1
16138	7	Sololá	710	Panajachel	8	Panajachel	1	Enero	2023-01-26T00:00:00	2024-11-08T18:00:00	7	Dirección del viento	16.09
16139	7	Sololá	710	Panajachel	8	Panajachel	1	Enero	2023-01-26T00:00:00	2024-11-08T18:00:00	1	Precipitación	0
16140	7	Sololá	710	Panajachel	8	Panajachel	1	Enero	2023-01-26T00:00:00	2024-11-08T18:00:00	8	Radiación solar	26
16141	7	Sololá	710	Panajachel	8	Panajachel	1	Enero	2023-01-26T00:00:00	2024-11-08T19:00:00	2	Temperatura media	18.9
16142	7	Sololá	710	Panajachel	8	Panajachel	1	Enero	2023-01-26T00:00:00	2024-11-08T19:00:00	4	Temperatura máxima	19.8
16143	7	Sololá	710	Panajachel	8	Panajachel	1	Enero	2023-01-26T00:00:00	2024-11-08T19:00:00	3	Temperatura mínima	18.9
16144	7	Sololá	710	Panajachel	8	Panajachel	1	Enero	2023-01-26T00:00:00	2024-11-08T19:00:00	5	Humedad	64
16145	7	Sololá	710	Panajachel	8	Panajachel	1	Enero	2023-01-26T00:00:00	2024-11-08T19:00:00	6	Velocidad del viento	20.9
16146	7	Sololá	710	Panajachel	8	Panajachel	1	Enero	2023-01-26T00:00:00	2024-11-08T19:00:00	7	Dirección del viento	20.92
16147	7	Sololá	710	Panajachel	8	Panajachel	1	Enero	2023-01-26T00:00:00	2024-11-08T19:00:00	1	Precipitación	0
16148	7	Sololá	710	Panajachel	8	Panajachel	1	Enero	2023-01-26T00:00:00	2024-11-08T19:00:00	8	Radiación solar	0
16149	7	Sololá	710	Panajachel	8	Panajachel	1	Enero	2023-01-26T00:00:00	2024-11-08T20:00:00	2	Temperatura media	18.7
16150	7	Sololá	710	Panajachel	8	Panajachel	1	Enero	2023-01-26T00:00:00	2024-11-08T20:00:00	4	Temperatura máxima	19
16151	7	Sololá	710	Panajachel	8	Panajachel	1	Enero	2023-01-26T00:00:00	2024-11-08T20:00:00	3	Temperatura mínima	18.7
16152	7	Sololá	710	Panajachel	8	Panajachel	1	Enero	2023-01-26T00:00:00	2024-11-08T20:00:00	5	Humedad	64
16153	7	Sololá	710	Panajachel	8	Panajachel	1	Enero	2023-01-26T00:00:00	2024-11-08T20:00:00	6	Velocidad del viento	17.7
16154	7	Sololá	710	Panajachel	8	Panajachel	1	Enero	2023-01-26T00:00:00	2024-11-08T20:00:00	7	Dirección del viento	17.7
16155	7	Sololá	710	Panajachel	8	Panajachel	1	Enero	2023-01-26T00:00:00	2024-11-08T20:00:00	1	Precipitación	0
16156	7	Sololá	710	Panajachel	8	Panajachel	1	Enero	2023-01-26T00:00:00	2024-11-08T20:00:00	8	Radiación solar	0
16157	7	Sololá	710	Panajachel	8	Panajachel	1	Enero	2023-01-26T00:00:00	2024-11-08T21:00:00	2	Temperatura media	18.4
16158	7	Sololá	710	Panajachel	8	Panajachel	1	Enero	2023-01-26T00:00:00	2024-11-08T21:00:00	4	Temperatura máxima	18.7
16159	7	Sololá	710	Panajachel	8	Panajachel	1	Enero	2023-01-26T00:00:00	2024-11-08T21:00:00	3	Temperatura mínima	18.4
16160	7	Sololá	710	Panajachel	8	Panajachel	1	Enero	2023-01-26T00:00:00	2024-11-08T21:00:00	5	Humedad	65
16161	7	Sololá	710	Panajachel	8	Panajachel	1	Enero	2023-01-26T00:00:00	2024-11-08T21:00:00	6	Velocidad del viento	14.5
16162	7	Sololá	710	Panajachel	8	Panajachel	1	Enero	2023-01-26T00:00:00	2024-11-08T21:00:00	7	Dirección del viento	14.48
16163	7	Sololá	710	Panajachel	8	Panajachel	1	Enero	2023-01-26T00:00:00	2024-11-08T21:00:00	1	Precipitación	0
16164	7	Sololá	710	Panajachel	8	Panajachel	1	Enero	2023-01-26T00:00:00	2024-11-08T21:00:00	8	Radiación solar	0
16165	7	Sololá	710	Panajachel	8	Panajachel	1	Enero	2023-01-26T00:00:00	2024-11-08T22:00:00	2	Temperatura media	18.2
16166	7	Sololá	710	Panajachel	8	Panajachel	1	Enero	2023-01-26T00:00:00	2024-11-08T22:00:00	4	Temperatura máxima	18.4
16167	7	Sololá	710	Panajachel	8	Panajachel	1	Enero	2023-01-26T00:00:00	2024-11-08T22:00:00	3	Temperatura mínima	18.1
16168	7	Sololá	710	Panajachel	8	Panajachel	1	Enero	2023-01-26T00:00:00	2024-11-08T22:00:00	5	Humedad	66
16169	7	Sololá	710	Panajachel	8	Panajachel	1	Enero	2023-01-26T00:00:00	2024-11-08T22:00:00	6	Velocidad del viento	17.7
16170	7	Sololá	710	Panajachel	8	Panajachel	1	Enero	2023-01-26T00:00:00	2024-11-08T22:00:00	7	Dirección del viento	17.7
16171	7	Sololá	710	Panajachel	8	Panajachel	1	Enero	2023-01-26T00:00:00	2024-11-08T22:00:00	1	Precipitación	0
16172	7	Sololá	710	Panajachel	8	Panajachel	1	Enero	2023-01-26T00:00:00	2024-11-08T22:00:00	8	Radiación solar	0
16173	7	Sololá	710	Panajachel	8	Panajachel	1	Enero	2023-01-26T00:00:00	2024-11-08T23:00:00	2	Temperatura media	18.1
16174	7	Sololá	710	Panajachel	8	Panajachel	1	Enero	2023-01-26T00:00:00	2024-11-08T23:00:00	4	Temperatura máxima	18.2
16175	7	Sololá	710	Panajachel	8	Panajachel	1	Enero	2023-01-26T00:00:00	2024-11-08T23:00:00	3	Temperatura mínima	17.9
16176	7	Sololá	710	Panajachel	8	Panajachel	1	Enero	2023-01-26T00:00:00	2024-11-08T23:00:00	5	Humedad	66
16177	7	Sololá	710	Panajachel	8	Panajachel	1	Enero	2023-01-26T00:00:00	2024-11-08T23:00:00	6	Velocidad del viento	16.1
16178	7	Sololá	710	Panajachel	8	Panajachel	1	Enero	2023-01-26T00:00:00	2024-11-08T23:00:00	7	Dirección del viento	16.09
16179	7	Sololá	710	Panajachel	8	Panajachel	1	Enero	2023-01-26T00:00:00	2024-11-08T23:00:00	1	Precipitación	0
16180	7	Sololá	710	Panajachel	8	Panajachel	1	Enero	2023-01-26T00:00:00	2024-11-08T23:00:00	8	Radiación solar	0
16181	7	Sololá	710	Panajachel	8	Panajachel	1	Enero	2023-01-27T00:00:00	2024-11-08T00:00:00	2	Temperatura media	18
16182	7	Sololá	710	Panajachel	8	Panajachel	1	Enero	2023-01-27T00:00:00	2024-11-08T00:00:00	4	Temperatura máxima	18.2
16183	7	Sololá	710	Panajachel	8	Panajachel	1	Enero	2023-01-27T00:00:00	2024-11-08T00:00:00	3	Temperatura mínima	17.8
16184	7	Sololá	710	Panajachel	8	Panajachel	1	Enero	2023-01-27T00:00:00	2024-11-08T00:00:00	5	Humedad	67
16185	7	Sololá	710	Panajachel	8	Panajachel	1	Enero	2023-01-27T00:00:00	2024-11-08T00:00:00	6	Velocidad del viento	12.9
16186	7	Sololá	710	Panajachel	8	Panajachel	1	Enero	2023-01-27T00:00:00	2024-11-08T00:00:00	7	Dirección del viento	12.87
16187	7	Sololá	710	Panajachel	8	Panajachel	1	Enero	2023-01-27T00:00:00	2024-11-08T00:00:00	1	Precipitación	0
16188	7	Sololá	710	Panajachel	8	Panajachel	1	Enero	2023-01-27T00:00:00	2024-11-08T00:00:00	8	Radiación solar	0
16189	7	Sololá	710	Panajachel	8	Panajachel	1	Enero	2023-01-27T00:00:00	2024-11-08T01:00:00	2	Temperatura media	18.2
16190	7	Sololá	710	Panajachel	8	Panajachel	1	Enero	2023-01-27T00:00:00	2024-11-08T01:00:00	4	Temperatura máxima	18.2
16191	7	Sololá	710	Panajachel	8	Panajachel	1	Enero	2023-01-27T00:00:00	2024-11-08T01:00:00	3	Temperatura mínima	17.7
16192	7	Sololá	710	Panajachel	8	Panajachel	1	Enero	2023-01-27T00:00:00	2024-11-08T01:00:00	5	Humedad	67
16193	7	Sololá	710	Panajachel	8	Panajachel	1	Enero	2023-01-27T00:00:00	2024-11-08T01:00:00	6	Velocidad del viento	11.3
16194	7	Sololá	710	Panajachel	8	Panajachel	1	Enero	2023-01-27T00:00:00	2024-11-08T01:00:00	7	Dirección del viento	11.27
16195	7	Sololá	710	Panajachel	8	Panajachel	1	Enero	2023-01-27T00:00:00	2024-11-08T01:00:00	1	Precipitación	0
16196	7	Sololá	710	Panajachel	8	Panajachel	1	Enero	2023-01-27T00:00:00	2024-11-08T01:00:00	8	Radiación solar	0
16197	7	Sololá	710	Panajachel	8	Panajachel	1	Enero	2023-01-27T00:00:00	2024-11-08T02:00:00	2	Temperatura media	18.1
16198	7	Sololá	710	Panajachel	8	Panajachel	1	Enero	2023-01-27T00:00:00	2024-11-08T02:00:00	4	Temperatura máxima	18.3
16199	7	Sololá	710	Panajachel	8	Panajachel	1	Enero	2023-01-27T00:00:00	2024-11-08T02:00:00	3	Temperatura mínima	18
16200	7	Sololá	710	Panajachel	8	Panajachel	1	Enero	2023-01-27T00:00:00	2024-11-08T02:00:00	5	Humedad	70
16201	7	Sololá	710	Panajachel	8	Panajachel	1	Enero	2023-01-27T00:00:00	2024-11-08T02:00:00	6	Velocidad del viento	8
16202	7	Sololá	710	Panajachel	8	Panajachel	1	Enero	2023-01-27T00:00:00	2024-11-08T02:00:00	7	Dirección del viento	8.05
16203	7	Sololá	710	Panajachel	8	Panajachel	1	Enero	2023-01-27T00:00:00	2024-11-08T02:00:00	1	Precipitación	0
16204	7	Sololá	710	Panajachel	8	Panajachel	1	Enero	2023-01-27T00:00:00	2024-11-08T02:00:00	8	Radiación solar	0
16205	7	Sololá	710	Panajachel	8	Panajachel	1	Enero	2023-01-27T00:00:00	2024-11-08T03:00:00	2	Temperatura media	18.1
16206	7	Sololá	710	Panajachel	8	Panajachel	1	Enero	2023-01-27T00:00:00	2024-11-08T03:00:00	4	Temperatura máxima	18.2
16207	7	Sololá	710	Panajachel	8	Panajachel	1	Enero	2023-01-27T00:00:00	2024-11-08T03:00:00	3	Temperatura mínima	17.9
16208	7	Sololá	710	Panajachel	8	Panajachel	1	Enero	2023-01-27T00:00:00	2024-11-08T03:00:00	5	Humedad	70
16209	7	Sololá	710	Panajachel	8	Panajachel	1	Enero	2023-01-27T00:00:00	2024-11-08T03:00:00	6	Velocidad del viento	8
16210	7	Sololá	710	Panajachel	8	Panajachel	1	Enero	2023-01-27T00:00:00	2024-11-08T03:00:00	7	Dirección del viento	8.05
16211	7	Sololá	710	Panajachel	8	Panajachel	1	Enero	2023-01-27T00:00:00	2024-11-08T03:00:00	1	Precipitación	0
16212	7	Sololá	710	Panajachel	8	Panajachel	1	Enero	2023-01-27T00:00:00	2024-11-08T03:00:00	8	Radiación solar	0
16213	7	Sololá	710	Panajachel	8	Panajachel	1	Enero	2023-01-27T00:00:00	2024-11-08T04:00:00	2	Temperatura media	18.2
16214	7	Sololá	710	Panajachel	8	Panajachel	1	Enero	2023-01-27T00:00:00	2024-11-08T04:00:00	4	Temperatura máxima	18.3
16215	7	Sololá	710	Panajachel	8	Panajachel	1	Enero	2023-01-27T00:00:00	2024-11-08T04:00:00	3	Temperatura mínima	18
16216	7	Sololá	710	Panajachel	8	Panajachel	1	Enero	2023-01-27T00:00:00	2024-11-08T04:00:00	5	Humedad	70
16217	7	Sololá	710	Panajachel	8	Panajachel	1	Enero	2023-01-27T00:00:00	2024-11-08T04:00:00	6	Velocidad del viento	8
16218	7	Sololá	710	Panajachel	8	Panajachel	1	Enero	2023-01-27T00:00:00	2024-11-08T04:00:00	7	Dirección del viento	8.05
16219	7	Sololá	710	Panajachel	8	Panajachel	1	Enero	2023-01-27T00:00:00	2024-11-08T04:00:00	1	Precipitación	0
16220	7	Sololá	710	Panajachel	8	Panajachel	1	Enero	2023-01-27T00:00:00	2024-11-08T04:00:00	8	Radiación solar	0
16221	7	Sololá	710	Panajachel	8	Panajachel	1	Enero	2023-01-27T00:00:00	2024-11-08T05:00:00	2	Temperatura media	18
16222	7	Sololá	710	Panajachel	8	Panajachel	1	Enero	2023-01-27T00:00:00	2024-11-08T05:00:00	4	Temperatura máxima	18.2
16223	7	Sololá	710	Panajachel	8	Panajachel	1	Enero	2023-01-27T00:00:00	2024-11-08T05:00:00	3	Temperatura mínima	17.8
16224	7	Sololá	710	Panajachel	8	Panajachel	1	Enero	2023-01-27T00:00:00	2024-11-08T05:00:00	5	Humedad	72
16225	7	Sololá	710	Panajachel	8	Panajachel	1	Enero	2023-01-27T00:00:00	2024-11-08T05:00:00	6	Velocidad del viento	9.7
16226	7	Sololá	710	Panajachel	8	Panajachel	1	Enero	2023-01-27T00:00:00	2024-11-08T05:00:00	7	Dirección del viento	9.66
16227	7	Sololá	710	Panajachel	8	Panajachel	1	Enero	2023-01-27T00:00:00	2024-11-08T05:00:00	1	Precipitación	0
16228	7	Sololá	710	Panajachel	8	Panajachel	1	Enero	2023-01-27T00:00:00	2024-11-08T05:00:00	8	Radiación solar	0
16229	7	Sololá	710	Panajachel	8	Panajachel	1	Enero	2023-01-27T00:00:00	2024-11-08T06:00:00	2	Temperatura media	17.8
16230	7	Sololá	710	Panajachel	8	Panajachel	1	Enero	2023-01-27T00:00:00	2024-11-08T06:00:00	4	Temperatura máxima	18.1
16231	7	Sololá	710	Panajachel	8	Panajachel	1	Enero	2023-01-27T00:00:00	2024-11-08T06:00:00	3	Temperatura mínima	17.8
16232	7	Sololá	710	Panajachel	8	Panajachel	1	Enero	2023-01-27T00:00:00	2024-11-08T06:00:00	5	Humedad	72
16233	7	Sololá	710	Panajachel	8	Panajachel	1	Enero	2023-01-27T00:00:00	2024-11-08T06:00:00	6	Velocidad del viento	11.3
16234	7	Sololá	710	Panajachel	8	Panajachel	1	Enero	2023-01-27T00:00:00	2024-11-08T06:00:00	7	Dirección del viento	11.27
16235	7	Sololá	710	Panajachel	8	Panajachel	1	Enero	2023-01-27T00:00:00	2024-11-08T06:00:00	1	Precipitación	0
16236	7	Sololá	710	Panajachel	8	Panajachel	1	Enero	2023-01-27T00:00:00	2024-11-08T06:00:00	8	Radiación solar	0
16237	7	Sololá	710	Panajachel	8	Panajachel	1	Enero	2023-01-27T00:00:00	2024-11-08T07:00:00	2	Temperatura media	17.9
16238	7	Sololá	710	Panajachel	8	Panajachel	1	Enero	2023-01-27T00:00:00	2024-11-08T07:00:00	4	Temperatura máxima	18.1
16239	7	Sololá	710	Panajachel	8	Panajachel	1	Enero	2023-01-27T00:00:00	2024-11-08T07:00:00	3	Temperatura mínima	17.8
16240	7	Sololá	710	Panajachel	8	Panajachel	1	Enero	2023-01-27T00:00:00	2024-11-08T07:00:00	5	Humedad	69
16241	7	Sololá	710	Panajachel	8	Panajachel	1	Enero	2023-01-27T00:00:00	2024-11-08T07:00:00	6	Velocidad del viento	9.7
16242	7	Sololá	710	Panajachel	8	Panajachel	1	Enero	2023-01-27T00:00:00	2024-11-08T07:00:00	7	Dirección del viento	9.66
16243	7	Sololá	710	Panajachel	8	Panajachel	1	Enero	2023-01-27T00:00:00	2024-11-08T07:00:00	1	Precipitación	0
16244	7	Sololá	710	Panajachel	8	Panajachel	1	Enero	2023-01-27T00:00:00	2024-11-08T07:00:00	8	Radiación solar	6
16245	7	Sololá	710	Panajachel	8	Panajachel	1	Enero	2023-01-27T00:00:00	2024-11-08T08:00:00	2	Temperatura media	18.8
16246	7	Sololá	710	Panajachel	8	Panajachel	1	Enero	2023-01-27T00:00:00	2024-11-08T08:00:00	4	Temperatura máxima	18.8
16247	7	Sololá	710	Panajachel	8	Panajachel	1	Enero	2023-01-27T00:00:00	2024-11-08T08:00:00	3	Temperatura mínima	17.9
16248	7	Sololá	710	Panajachel	8	Panajachel	1	Enero	2023-01-27T00:00:00	2024-11-08T08:00:00	5	Humedad	67
16249	7	Sololá	710	Panajachel	8	Panajachel	1	Enero	2023-01-27T00:00:00	2024-11-08T08:00:00	6	Velocidad del viento	9.7
16250	7	Sololá	710	Panajachel	8	Panajachel	1	Enero	2023-01-27T00:00:00	2024-11-08T08:00:00	7	Dirección del viento	9.66
16251	7	Sololá	710	Panajachel	8	Panajachel	1	Enero	2023-01-27T00:00:00	2024-11-08T08:00:00	1	Precipitación	0
16252	7	Sololá	710	Panajachel	8	Panajachel	1	Enero	2023-01-27T00:00:00	2024-11-08T08:00:00	8	Radiación solar	39
16253	7	Sololá	710	Panajachel	8	Panajachel	1	Enero	2023-01-27T00:00:00	2024-11-08T09:00:00	2	Temperatura media	20.3
16254	7	Sololá	710	Panajachel	8	Panajachel	1	Enero	2023-01-27T00:00:00	2024-11-08T09:00:00	4	Temperatura máxima	20.3
16255	7	Sololá	710	Panajachel	8	Panajachel	1	Enero	2023-01-27T00:00:00	2024-11-08T09:00:00	3	Temperatura mínima	18.8
16256	7	Sololá	710	Panajachel	8	Panajachel	1	Enero	2023-01-27T00:00:00	2024-11-08T09:00:00	5	Humedad	64
16257	7	Sololá	710	Panajachel	8	Panajachel	1	Enero	2023-01-27T00:00:00	2024-11-08T09:00:00	6	Velocidad del viento	11.3
16258	7	Sololá	710	Panajachel	8	Panajachel	1	Enero	2023-01-27T00:00:00	2024-11-08T09:00:00	7	Dirección del viento	11.27
16259	7	Sololá	710	Panajachel	8	Panajachel	1	Enero	2023-01-27T00:00:00	2024-11-08T09:00:00	1	Precipitación	0
16260	7	Sololá	710	Panajachel	8	Panajachel	1	Enero	2023-01-27T00:00:00	2024-11-08T09:00:00	8	Radiación solar	371
16261	7	Sololá	710	Panajachel	8	Panajachel	1	Enero	2023-01-27T00:00:00	2024-11-08T10:00:00	2	Temperatura media	21.1
16262	7	Sololá	710	Panajachel	8	Panajachel	1	Enero	2023-01-27T00:00:00	2024-11-08T10:00:00	4	Temperatura máxima	21.3
16263	7	Sololá	710	Panajachel	8	Panajachel	1	Enero	2023-01-27T00:00:00	2024-11-08T10:00:00	3	Temperatura mínima	20.3
16264	7	Sololá	710	Panajachel	8	Panajachel	1	Enero	2023-01-27T00:00:00	2024-11-08T10:00:00	5	Humedad	62
16265	7	Sololá	710	Panajachel	8	Panajachel	1	Enero	2023-01-27T00:00:00	2024-11-08T10:00:00	6	Velocidad del viento	11.3
16266	7	Sololá	710	Panajachel	8	Panajachel	1	Enero	2023-01-27T00:00:00	2024-11-08T10:00:00	7	Dirección del viento	11.27
16267	7	Sololá	710	Panajachel	8	Panajachel	1	Enero	2023-01-27T00:00:00	2024-11-08T10:00:00	1	Precipitación	0
16268	7	Sololá	710	Panajachel	8	Panajachel	1	Enero	2023-01-27T00:00:00	2024-11-08T10:00:00	8	Radiación solar	582
16269	7	Sololá	710	Panajachel	8	Panajachel	1	Enero	2023-01-27T00:00:00	2024-11-08T11:00:00	2	Temperatura media	21.8
16270	7	Sololá	710	Panajachel	8	Panajachel	1	Enero	2023-01-27T00:00:00	2024-11-08T11:00:00	4	Temperatura máxima	22.3
16271	7	Sololá	710	Panajachel	8	Panajachel	1	Enero	2023-01-27T00:00:00	2024-11-08T11:00:00	3	Temperatura mínima	20.8
16272	7	Sololá	710	Panajachel	8	Panajachel	1	Enero	2023-01-27T00:00:00	2024-11-08T11:00:00	5	Humedad	62
16273	7	Sololá	710	Panajachel	8	Panajachel	1	Enero	2023-01-27T00:00:00	2024-11-08T11:00:00	6	Velocidad del viento	9.7
16274	7	Sololá	710	Panajachel	8	Panajachel	1	Enero	2023-01-27T00:00:00	2024-11-08T11:00:00	7	Dirección del viento	9.66
16275	7	Sololá	710	Panajachel	8	Panajachel	1	Enero	2023-01-27T00:00:00	2024-11-08T11:00:00	1	Precipitación	0
16276	7	Sololá	710	Panajachel	8	Panajachel	1	Enero	2023-01-27T00:00:00	2024-11-08T11:00:00	8	Radiación solar	741
16277	7	Sololá	710	Panajachel	8	Panajachel	1	Enero	2023-01-27T00:00:00	2024-11-08T12:00:00	2	Temperatura media	22.7
16278	7	Sololá	710	Panajachel	8	Panajachel	1	Enero	2023-01-27T00:00:00	2024-11-08T12:00:00	4	Temperatura máxima	23.2
16279	7	Sololá	710	Panajachel	8	Panajachel	1	Enero	2023-01-27T00:00:00	2024-11-08T12:00:00	3	Temperatura mínima	21.8
16280	7	Sololá	710	Panajachel	8	Panajachel	1	Enero	2023-01-27T00:00:00	2024-11-08T12:00:00	5	Humedad	58
16281	7	Sololá	710	Panajachel	8	Panajachel	1	Enero	2023-01-27T00:00:00	2024-11-08T12:00:00	6	Velocidad del viento	8
16282	7	Sololá	710	Panajachel	8	Panajachel	1	Enero	2023-01-27T00:00:00	2024-11-08T12:00:00	7	Dirección del viento	8.05
16283	7	Sololá	710	Panajachel	8	Panajachel	1	Enero	2023-01-27T00:00:00	2024-11-08T12:00:00	1	Precipitación	0
16284	7	Sololá	710	Panajachel	8	Panajachel	1	Enero	2023-01-27T00:00:00	2024-11-08T12:00:00	8	Radiación solar	808
16285	7	Sololá	710	Panajachel	8	Panajachel	1	Enero	2023-01-27T00:00:00	2024-11-08T13:00:00	2	Temperatura media	21.7
16286	7	Sololá	710	Panajachel	8	Panajachel	1	Enero	2023-01-27T00:00:00	2024-11-08T13:00:00	4	Temperatura máxima	22.9
16287	7	Sololá	710	Panajachel	8	Panajachel	1	Enero	2023-01-27T00:00:00	2024-11-08T13:00:00	3	Temperatura mínima	21.6
16288	7	Sololá	710	Panajachel	8	Panajachel	1	Enero	2023-01-27T00:00:00	2024-11-08T13:00:00	5	Humedad	61
16289	7	Sololá	710	Panajachel	8	Panajachel	1	Enero	2023-01-27T00:00:00	2024-11-08T13:00:00	6	Velocidad del viento	8
16290	7	Sololá	710	Panajachel	8	Panajachel	1	Enero	2023-01-27T00:00:00	2024-11-08T13:00:00	7	Dirección del viento	8.05
16291	7	Sololá	710	Panajachel	8	Panajachel	1	Enero	2023-01-27T00:00:00	2024-11-08T13:00:00	1	Precipitación	0
16292	7	Sololá	710	Panajachel	8	Panajachel	1	Enero	2023-01-27T00:00:00	2024-11-08T13:00:00	8	Radiación solar	395
16293	7	Sololá	710	Panajachel	8	Panajachel	1	Enero	2023-01-27T00:00:00	2024-11-08T14:00:00	2	Temperatura media	21.6
16294	7	Sololá	710	Panajachel	8	Panajachel	1	Enero	2023-01-27T00:00:00	2024-11-08T14:00:00	4	Temperatura máxima	21.9
16295	7	Sololá	710	Panajachel	8	Panajachel	1	Enero	2023-01-27T00:00:00	2024-11-08T14:00:00	3	Temperatura mínima	20.9
16296	7	Sololá	710	Panajachel	8	Panajachel	1	Enero	2023-01-27T00:00:00	2024-11-08T14:00:00	5	Humedad	62
16297	7	Sololá	710	Panajachel	8	Panajachel	1	Enero	2023-01-27T00:00:00	2024-11-08T14:00:00	6	Velocidad del viento	8
16298	7	Sololá	710	Panajachel	8	Panajachel	1	Enero	2023-01-27T00:00:00	2024-11-08T14:00:00	7	Dirección del viento	8.05
16299	7	Sololá	710	Panajachel	8	Panajachel	1	Enero	2023-01-27T00:00:00	2024-11-08T14:00:00	1	Precipitación	0
16300	7	Sololá	710	Panajachel	8	Panajachel	1	Enero	2023-01-27T00:00:00	2024-11-08T14:00:00	8	Radiación solar	359
16301	7	Sololá	710	Panajachel	8	Panajachel	1	Enero	2023-01-27T00:00:00	2024-11-08T15:00:00	2	Temperatura media	21.6
16302	7	Sololá	710	Panajachel	8	Panajachel	1	Enero	2023-01-27T00:00:00	2024-11-08T15:00:00	4	Temperatura máxima	21.7
16303	7	Sololá	710	Panajachel	8	Panajachel	1	Enero	2023-01-27T00:00:00	2024-11-08T15:00:00	3	Temperatura mínima	21.1
16304	7	Sololá	710	Panajachel	8	Panajachel	1	Enero	2023-01-27T00:00:00	2024-11-08T15:00:00	5	Humedad	63
16305	7	Sololá	710	Panajachel	8	Panajachel	1	Enero	2023-01-27T00:00:00	2024-11-08T15:00:00	6	Velocidad del viento	6.4
16306	7	Sololá	710	Panajachel	8	Panajachel	1	Enero	2023-01-27T00:00:00	2024-11-08T15:00:00	7	Dirección del viento	6.44
16307	7	Sololá	710	Panajachel	8	Panajachel	1	Enero	2023-01-27T00:00:00	2024-11-08T15:00:00	1	Precipitación	0
16308	7	Sololá	710	Panajachel	8	Panajachel	1	Enero	2023-01-27T00:00:00	2024-11-08T15:00:00	8	Radiación solar	318
16309	7	Sololá	710	Panajachel	8	Panajachel	1	Enero	2023-01-27T00:00:00	2024-11-08T16:00:00	2	Temperatura media	21.4
16310	7	Sololá	710	Panajachel	8	Panajachel	1	Enero	2023-01-27T00:00:00	2024-11-08T16:00:00	4	Temperatura máxima	21.8
16311	7	Sololá	710	Panajachel	8	Panajachel	1	Enero	2023-01-27T00:00:00	2024-11-08T16:00:00	3	Temperatura mínima	21.3
16312	7	Sololá	710	Panajachel	8	Panajachel	1	Enero	2023-01-27T00:00:00	2024-11-08T16:00:00	5	Humedad	64
16313	7	Sololá	710	Panajachel	8	Panajachel	1	Enero	2023-01-27T00:00:00	2024-11-08T16:00:00	6	Velocidad del viento	8
16314	7	Sololá	710	Panajachel	8	Panajachel	1	Enero	2023-01-27T00:00:00	2024-11-08T16:00:00	7	Dirección del viento	8.05
16315	7	Sololá	710	Panajachel	8	Panajachel	1	Enero	2023-01-27T00:00:00	2024-11-08T16:00:00	1	Precipitación	0
16316	7	Sololá	710	Panajachel	8	Panajachel	1	Enero	2023-01-27T00:00:00	2024-11-08T16:00:00	8	Radiación solar	237
16317	7	Sololá	710	Panajachel	8	Panajachel	1	Enero	2023-01-27T00:00:00	2024-11-08T17:00:00	2	Temperatura media	21.2
16318	7	Sololá	710	Panajachel	8	Panajachel	1	Enero	2023-01-27T00:00:00	2024-11-08T17:00:00	4	Temperatura máxima	21.6
16319	7	Sololá	710	Panajachel	8	Panajachel	1	Enero	2023-01-27T00:00:00	2024-11-08T17:00:00	3	Temperatura mínima	21.2
16320	7	Sololá	710	Panajachel	8	Panajachel	1	Enero	2023-01-27T00:00:00	2024-11-08T17:00:00	5	Humedad	63
16321	7	Sololá	710	Panajachel	8	Panajachel	1	Enero	2023-01-27T00:00:00	2024-11-08T17:00:00	6	Velocidad del viento	4.8
16322	7	Sololá	710	Panajachel	8	Panajachel	1	Enero	2023-01-27T00:00:00	2024-11-08T17:00:00	7	Dirección del viento	4.83
16323	7	Sololá	710	Panajachel	8	Panajachel	1	Enero	2023-01-27T00:00:00	2024-11-08T17:00:00	1	Precipitación	0
16324	7	Sololá	710	Panajachel	8	Panajachel	1	Enero	2023-01-27T00:00:00	2024-11-08T17:00:00	8	Radiación solar	180
16325	7	Sololá	710	Panajachel	8	Panajachel	1	Enero	2023-01-27T00:00:00	2024-11-08T18:00:00	2	Temperatura media	19.5
16326	7	Sololá	710	Panajachel	8	Panajachel	1	Enero	2023-01-27T00:00:00	2024-11-08T18:00:00	4	Temperatura máxima	21.2
16327	7	Sololá	710	Panajachel	8	Panajachel	1	Enero	2023-01-27T00:00:00	2024-11-08T18:00:00	3	Temperatura mínima	19.5
16328	7	Sololá	710	Panajachel	8	Panajachel	1	Enero	2023-01-27T00:00:00	2024-11-08T18:00:00	5	Humedad	69
16329	7	Sololá	710	Panajachel	8	Panajachel	1	Enero	2023-01-27T00:00:00	2024-11-08T18:00:00	6	Velocidad del viento	9.7
16330	7	Sololá	710	Panajachel	8	Panajachel	1	Enero	2023-01-27T00:00:00	2024-11-08T18:00:00	7	Dirección del viento	9.66
16331	7	Sololá	710	Panajachel	8	Panajachel	1	Enero	2023-01-27T00:00:00	2024-11-08T18:00:00	1	Precipitación	0
16332	7	Sololá	710	Panajachel	8	Panajachel	1	Enero	2023-01-27T00:00:00	2024-11-08T18:00:00	8	Radiación solar	74
16333	7	Sololá	710	Panajachel	8	Panajachel	1	Enero	2023-01-27T00:00:00	2024-11-08T19:00:00	2	Temperatura media	18.8
16334	7	Sololá	710	Panajachel	8	Panajachel	1	Enero	2023-01-27T00:00:00	2024-11-08T19:00:00	4	Temperatura máxima	19.6
16335	7	Sololá	710	Panajachel	8	Panajachel	1	Enero	2023-01-27T00:00:00	2024-11-08T19:00:00	3	Temperatura mínima	18.8
16336	7	Sololá	710	Panajachel	8	Panajachel	1	Enero	2023-01-27T00:00:00	2024-11-08T19:00:00	5	Humedad	71
16337	7	Sololá	710	Panajachel	8	Panajachel	1	Enero	2023-01-27T00:00:00	2024-11-08T19:00:00	6	Velocidad del viento	6.4
16338	7	Sololá	710	Panajachel	8	Panajachel	1	Enero	2023-01-27T00:00:00	2024-11-08T19:00:00	7	Dirección del viento	6.44
16339	7	Sololá	710	Panajachel	8	Panajachel	1	Enero	2023-01-27T00:00:00	2024-11-08T19:00:00	1	Precipitación	0
16340	7	Sololá	710	Panajachel	8	Panajachel	1	Enero	2023-01-27T00:00:00	2024-11-08T19:00:00	8	Radiación solar	0
16341	7	Sololá	710	Panajachel	8	Panajachel	1	Enero	2023-01-27T00:00:00	2024-11-08T20:00:00	2	Temperatura media	18.5
16342	7	Sololá	710	Panajachel	8	Panajachel	1	Enero	2023-01-27T00:00:00	2024-11-08T20:00:00	4	Temperatura máxima	18.8
16343	7	Sololá	710	Panajachel	8	Panajachel	1	Enero	2023-01-27T00:00:00	2024-11-08T20:00:00	3	Temperatura mínima	18.4
16344	7	Sololá	710	Panajachel	8	Panajachel	1	Enero	2023-01-27T00:00:00	2024-11-08T20:00:00	5	Humedad	72
16345	7	Sololá	710	Panajachel	8	Panajachel	1	Enero	2023-01-27T00:00:00	2024-11-08T20:00:00	6	Velocidad del viento	4.8
16346	7	Sololá	710	Panajachel	8	Panajachel	1	Enero	2023-01-27T00:00:00	2024-11-08T20:00:00	7	Dirección del viento	4.83
16347	7	Sololá	710	Panajachel	8	Panajachel	1	Enero	2023-01-27T00:00:00	2024-11-08T20:00:00	1	Precipitación	0
16348	7	Sololá	710	Panajachel	8	Panajachel	1	Enero	2023-01-27T00:00:00	2024-11-08T20:00:00	8	Radiación solar	0
16349	7	Sololá	710	Panajachel	8	Panajachel	1	Enero	2023-01-27T00:00:00	2024-11-08T21:00:00	2	Temperatura media	18.1
16350	7	Sololá	710	Panajachel	8	Panajachel	1	Enero	2023-01-27T00:00:00	2024-11-08T21:00:00	4	Temperatura máxima	18.5
16351	7	Sololá	710	Panajachel	8	Panajachel	1	Enero	2023-01-27T00:00:00	2024-11-08T21:00:00	3	Temperatura mínima	18
16352	7	Sololá	710	Panajachel	8	Panajachel	1	Enero	2023-01-27T00:00:00	2024-11-08T21:00:00	5	Humedad	74
16353	7	Sololá	710	Panajachel	8	Panajachel	1	Enero	2023-01-27T00:00:00	2024-11-08T21:00:00	6	Velocidad del viento	9.7
16354	7	Sololá	710	Panajachel	8	Panajachel	1	Enero	2023-01-27T00:00:00	2024-11-08T21:00:00	7	Dirección del viento	9.66
16355	7	Sololá	710	Panajachel	8	Panajachel	1	Enero	2023-01-27T00:00:00	2024-11-08T21:00:00	1	Precipitación	0
16356	7	Sololá	710	Panajachel	8	Panajachel	1	Enero	2023-01-27T00:00:00	2024-11-08T21:00:00	8	Radiación solar	0
16357	7	Sololá	710	Panajachel	8	Panajachel	1	Enero	2023-01-27T00:00:00	2024-11-08T22:00:00	2	Temperatura media	18
16358	7	Sololá	710	Panajachel	8	Panajachel	1	Enero	2023-01-27T00:00:00	2024-11-08T22:00:00	4	Temperatura máxima	18.1
16359	7	Sololá	710	Panajachel	8	Panajachel	1	Enero	2023-01-27T00:00:00	2024-11-08T22:00:00	3	Temperatura mínima	17.9
16360	7	Sololá	710	Panajachel	8	Panajachel	1	Enero	2023-01-27T00:00:00	2024-11-08T22:00:00	5	Humedad	64
16361	7	Sololá	710	Panajachel	8	Panajachel	1	Enero	2023-01-27T00:00:00	2024-11-08T22:00:00	6	Velocidad del viento	8
16362	7	Sololá	710	Panajachel	8	Panajachel	1	Enero	2023-01-27T00:00:00	2024-11-08T22:00:00	7	Dirección del viento	8.05
16363	7	Sololá	710	Panajachel	8	Panajachel	1	Enero	2023-01-27T00:00:00	2024-11-08T22:00:00	1	Precipitación	0
16364	7	Sololá	710	Panajachel	8	Panajachel	1	Enero	2023-01-27T00:00:00	2024-11-08T22:00:00	8	Radiación solar	0
16365	7	Sololá	710	Panajachel	8	Panajachel	1	Enero	2023-01-27T00:00:00	2024-11-08T23:00:00	2	Temperatura media	17.1
16366	7	Sololá	710	Panajachel	8	Panajachel	1	Enero	2023-01-27T00:00:00	2024-11-08T23:00:00	4	Temperatura máxima	18.1
16367	7	Sololá	710	Panajachel	8	Panajachel	1	Enero	2023-01-27T00:00:00	2024-11-08T23:00:00	3	Temperatura mínima	17.1
16368	7	Sololá	710	Panajachel	8	Panajachel	1	Enero	2023-01-27T00:00:00	2024-11-08T23:00:00	5	Humedad	64
16369	7	Sololá	710	Panajachel	8	Panajachel	1	Enero	2023-01-27T00:00:00	2024-11-08T23:00:00	6	Velocidad del viento	9.7
16370	7	Sololá	710	Panajachel	8	Panajachel	1	Enero	2023-01-27T00:00:00	2024-11-08T23:00:00	7	Dirección del viento	9.66
16371	7	Sololá	710	Panajachel	8	Panajachel	1	Enero	2023-01-27T00:00:00	2024-11-08T23:00:00	1	Precipitación	0
16372	7	Sololá	710	Panajachel	8	Panajachel	1	Enero	2023-01-27T00:00:00	2024-11-08T23:00:00	8	Radiación solar	0
16373	7	Sololá	710	Panajachel	8	Panajachel	1	Enero	2023-01-28T00:00:00	2024-11-08T00:00:00	2	Temperatura media	16.5
16374	7	Sololá	710	Panajachel	8	Panajachel	1	Enero	2023-01-28T00:00:00	2024-11-08T00:00:00	4	Temperatura máxima	17.1
16375	7	Sololá	710	Panajachel	8	Panajachel	1	Enero	2023-01-28T00:00:00	2024-11-08T00:00:00	3	Temperatura mínima	16.5
16376	7	Sololá	710	Panajachel	8	Panajachel	1	Enero	2023-01-28T00:00:00	2024-11-08T00:00:00	5	Humedad	60
16377	7	Sololá	710	Panajachel	8	Panajachel	1	Enero	2023-01-28T00:00:00	2024-11-08T00:00:00	6	Velocidad del viento	11.3
16378	7	Sololá	710	Panajachel	8	Panajachel	1	Enero	2023-01-28T00:00:00	2024-11-08T00:00:00	7	Dirección del viento	11.27
16379	7	Sololá	710	Panajachel	8	Panajachel	1	Enero	2023-01-28T00:00:00	2024-11-08T00:00:00	1	Precipitación	0
16380	7	Sololá	710	Panajachel	8	Panajachel	1	Enero	2023-01-28T00:00:00	2024-11-08T00:00:00	8	Radiación solar	0
16381	7	Sololá	710	Panajachel	8	Panajachel	1	Enero	2023-01-28T00:00:00	2024-11-08T01:00:00	2	Temperatura media	16.4
16382	7	Sololá	710	Panajachel	8	Panajachel	1	Enero	2023-01-28T00:00:00	2024-11-08T01:00:00	4	Temperatura máxima	16.6
16383	7	Sololá	710	Panajachel	8	Panajachel	1	Enero	2023-01-28T00:00:00	2024-11-08T01:00:00	3	Temperatura mínima	16.3
16384	7	Sololá	710	Panajachel	8	Panajachel	1	Enero	2023-01-28T00:00:00	2024-11-08T01:00:00	5	Humedad	52
16385	7	Sololá	710	Panajachel	8	Panajachel	1	Enero	2023-01-28T00:00:00	2024-11-08T01:00:00	6	Velocidad del viento	16.1
16386	7	Sololá	710	Panajachel	8	Panajachel	1	Enero	2023-01-28T00:00:00	2024-11-08T01:00:00	7	Dirección del viento	16.09
16387	7	Sololá	710	Panajachel	8	Panajachel	1	Enero	2023-01-28T00:00:00	2024-11-08T01:00:00	1	Precipitación	0
16388	7	Sololá	710	Panajachel	8	Panajachel	1	Enero	2023-01-28T00:00:00	2024-11-08T01:00:00	8	Radiación solar	0
16389	7	Sololá	710	Panajachel	8	Panajachel	1	Enero	2023-01-28T00:00:00	2024-11-08T02:00:00	2	Temperatura media	17.2
16390	7	Sololá	710	Panajachel	8	Panajachel	1	Enero	2023-01-28T00:00:00	2024-11-08T02:00:00	4	Temperatura máxima	17.3
16391	7	Sololá	710	Panajachel	8	Panajachel	1	Enero	2023-01-28T00:00:00	2024-11-08T02:00:00	3	Temperatura mínima	16.4
16392	7	Sololá	710	Panajachel	8	Panajachel	1	Enero	2023-01-28T00:00:00	2024-11-08T02:00:00	5	Humedad	50
16393	7	Sololá	710	Panajachel	8	Panajachel	1	Enero	2023-01-28T00:00:00	2024-11-08T02:00:00	6	Velocidad del viento	14.5
16394	7	Sololá	710	Panajachel	8	Panajachel	1	Enero	2023-01-28T00:00:00	2024-11-08T02:00:00	7	Dirección del viento	14.48
16395	7	Sololá	710	Panajachel	8	Panajachel	1	Enero	2023-01-28T00:00:00	2024-11-08T02:00:00	1	Precipitación	0
16396	7	Sololá	710	Panajachel	8	Panajachel	1	Enero	2023-01-28T00:00:00	2024-11-08T02:00:00	8	Radiación solar	0
16397	7	Sololá	710	Panajachel	8	Panajachel	1	Enero	2023-01-28T00:00:00	2024-11-08T03:00:00	2	Temperatura media	17.2
16398	7	Sololá	710	Panajachel	8	Panajachel	1	Enero	2023-01-28T00:00:00	2024-11-08T03:00:00	4	Temperatura máxima	17.3
16399	7	Sololá	710	Panajachel	8	Panajachel	1	Enero	2023-01-28T00:00:00	2024-11-08T03:00:00	3	Temperatura mínima	16.9
16400	7	Sololá	710	Panajachel	8	Panajachel	1	Enero	2023-01-28T00:00:00	2024-11-08T03:00:00	5	Humedad	54
16401	7	Sololá	710	Panajachel	8	Panajachel	1	Enero	2023-01-28T00:00:00	2024-11-08T03:00:00	6	Velocidad del viento	8
16402	7	Sololá	710	Panajachel	8	Panajachel	1	Enero	2023-01-28T00:00:00	2024-11-08T03:00:00	7	Dirección del viento	8.05
16403	7	Sololá	710	Panajachel	8	Panajachel	1	Enero	2023-01-28T00:00:00	2024-11-08T03:00:00	1	Precipitación	0
16404	7	Sololá	710	Panajachel	8	Panajachel	1	Enero	2023-01-28T00:00:00	2024-11-08T03:00:00	8	Radiación solar	0
16405	7	Sololá	710	Panajachel	8	Panajachel	1	Enero	2023-01-28T00:00:00	2024-11-08T04:00:00	2	Temperatura media	16.8
16406	7	Sololá	710	Panajachel	8	Panajachel	1	Enero	2023-01-28T00:00:00	2024-11-08T04:00:00	4	Temperatura máxima	17.2
16407	7	Sololá	710	Panajachel	8	Panajachel	1	Enero	2023-01-28T00:00:00	2024-11-08T04:00:00	3	Temperatura mínima	16.6
16408	7	Sololá	710	Panajachel	8	Panajachel	1	Enero	2023-01-28T00:00:00	2024-11-08T04:00:00	5	Humedad	66
16409	7	Sololá	710	Panajachel	8	Panajachel	1	Enero	2023-01-28T00:00:00	2024-11-08T04:00:00	6	Velocidad del viento	9.7
16410	7	Sololá	710	Panajachel	8	Panajachel	1	Enero	2023-01-28T00:00:00	2024-11-08T04:00:00	7	Dirección del viento	9.66
16411	7	Sololá	710	Panajachel	8	Panajachel	1	Enero	2023-01-28T00:00:00	2024-11-08T04:00:00	1	Precipitación	0
16412	7	Sololá	710	Panajachel	8	Panajachel	1	Enero	2023-01-28T00:00:00	2024-11-08T04:00:00	8	Radiación solar	0
16413	7	Sololá	710	Panajachel	8	Panajachel	1	Enero	2023-01-28T00:00:00	2024-11-08T05:00:00	2	Temperatura media	16.7
16414	7	Sololá	710	Panajachel	8	Panajachel	1	Enero	2023-01-28T00:00:00	2024-11-08T05:00:00	4	Temperatura máxima	17
16415	7	Sololá	710	Panajachel	8	Panajachel	1	Enero	2023-01-28T00:00:00	2024-11-08T05:00:00	3	Temperatura mínima	16.7
16416	7	Sololá	710	Panajachel	8	Panajachel	1	Enero	2023-01-28T00:00:00	2024-11-08T05:00:00	5	Humedad	70
16417	7	Sololá	710	Panajachel	8	Panajachel	1	Enero	2023-01-28T00:00:00	2024-11-08T05:00:00	6	Velocidad del viento	9.7
16418	7	Sololá	710	Panajachel	8	Panajachel	1	Enero	2023-01-28T00:00:00	2024-11-08T05:00:00	7	Dirección del viento	9.66
16419	7	Sololá	710	Panajachel	8	Panajachel	1	Enero	2023-01-28T00:00:00	2024-11-08T05:00:00	1	Precipitación	0
16420	7	Sololá	710	Panajachel	8	Panajachel	1	Enero	2023-01-28T00:00:00	2024-11-08T05:00:00	8	Radiación solar	0
16421	7	Sololá	710	Panajachel	8	Panajachel	1	Enero	2023-01-28T00:00:00	2024-11-08T06:00:00	2	Temperatura media	16.9
16422	7	Sololá	710	Panajachel	8	Panajachel	1	Enero	2023-01-28T00:00:00	2024-11-08T06:00:00	4	Temperatura máxima	16.9
16423	7	Sololá	710	Panajachel	8	Panajachel	1	Enero	2023-01-28T00:00:00	2024-11-08T06:00:00	3	Temperatura mínima	16.7
16424	7	Sololá	710	Panajachel	8	Panajachel	1	Enero	2023-01-28T00:00:00	2024-11-08T06:00:00	5	Humedad	70
16425	7	Sololá	710	Panajachel	8	Panajachel	1	Enero	2023-01-28T00:00:00	2024-11-08T06:00:00	6	Velocidad del viento	12.9
16426	7	Sololá	710	Panajachel	8	Panajachel	1	Enero	2023-01-28T00:00:00	2024-11-08T06:00:00	7	Dirección del viento	12.87
16427	7	Sololá	710	Panajachel	8	Panajachel	1	Enero	2023-01-28T00:00:00	2024-11-08T06:00:00	1	Precipitación	0
16428	7	Sololá	710	Panajachel	8	Panajachel	1	Enero	2023-01-28T00:00:00	2024-11-08T06:00:00	8	Radiación solar	0
16429	7	Sololá	710	Panajachel	8	Panajachel	1	Enero	2023-01-28T00:00:00	2024-11-08T07:00:00	2	Temperatura media	17.6
16430	7	Sololá	710	Panajachel	8	Panajachel	1	Enero	2023-01-28T00:00:00	2024-11-08T07:00:00	4	Temperatura máxima	17.6
16431	7	Sololá	710	Panajachel	8	Panajachel	1	Enero	2023-01-28T00:00:00	2024-11-08T07:00:00	3	Temperatura mínima	16.9
16432	7	Sololá	710	Panajachel	8	Panajachel	1	Enero	2023-01-28T00:00:00	2024-11-08T07:00:00	5	Humedad	69
16433	7	Sololá	710	Panajachel	8	Panajachel	1	Enero	2023-01-28T00:00:00	2024-11-08T07:00:00	6	Velocidad del viento	12.9
16434	7	Sololá	710	Panajachel	8	Panajachel	1	Enero	2023-01-28T00:00:00	2024-11-08T07:00:00	7	Dirección del viento	12.87
16435	7	Sololá	710	Panajachel	8	Panajachel	1	Enero	2023-01-28T00:00:00	2024-11-08T07:00:00	1	Precipitación	0
16436	7	Sololá	710	Panajachel	8	Panajachel	1	Enero	2023-01-28T00:00:00	2024-11-08T07:00:00	8	Radiación solar	3
16437	7	Sololá	710	Panajachel	8	Panajachel	1	Enero	2023-01-28T00:00:00	2024-11-08T08:00:00	2	Temperatura media	18.7
16438	7	Sololá	710	Panajachel	8	Panajachel	1	Enero	2023-01-28T00:00:00	2024-11-08T08:00:00	4	Temperatura máxima	18.7
16439	7	Sololá	710	Panajachel	8	Panajachel	1	Enero	2023-01-28T00:00:00	2024-11-08T08:00:00	3	Temperatura mínima	17.6
16440	7	Sololá	710	Panajachel	8	Panajachel	1	Enero	2023-01-28T00:00:00	2024-11-08T08:00:00	5	Humedad	67
16441	7	Sololá	710	Panajachel	8	Panajachel	1	Enero	2023-01-28T00:00:00	2024-11-08T08:00:00	6	Velocidad del viento	8
16442	7	Sololá	710	Panajachel	8	Panajachel	1	Enero	2023-01-28T00:00:00	2024-11-08T08:00:00	7	Dirección del viento	8.05
16443	7	Sololá	710	Panajachel	8	Panajachel	1	Enero	2023-01-28T00:00:00	2024-11-08T08:00:00	1	Precipitación	0
16444	7	Sololá	710	Panajachel	8	Panajachel	1	Enero	2023-01-28T00:00:00	2024-11-08T08:00:00	8	Radiación solar	31
16445	7	Sololá	710	Panajachel	8	Panajachel	1	Enero	2023-01-28T00:00:00	2024-11-08T09:00:00	2	Temperatura media	20.9
16446	7	Sololá	710	Panajachel	8	Panajachel	1	Enero	2023-01-28T00:00:00	2024-11-08T09:00:00	4	Temperatura máxima	21
16447	7	Sololá	710	Panajachel	8	Panajachel	1	Enero	2023-01-28T00:00:00	2024-11-08T09:00:00	3	Temperatura mínima	18.7
16448	7	Sololá	710	Panajachel	8	Panajachel	1	Enero	2023-01-28T00:00:00	2024-11-08T09:00:00	5	Humedad	49
16449	7	Sololá	710	Panajachel	8	Panajachel	1	Enero	2023-01-28T00:00:00	2024-11-08T09:00:00	6	Velocidad del viento	8
16450	7	Sololá	710	Panajachel	8	Panajachel	1	Enero	2023-01-28T00:00:00	2024-11-08T09:00:00	7	Dirección del viento	8.05
16451	7	Sololá	710	Panajachel	8	Panajachel	1	Enero	2023-01-28T00:00:00	2024-11-08T09:00:00	1	Precipitación	0
16452	7	Sololá	710	Panajachel	8	Panajachel	1	Enero	2023-01-28T00:00:00	2024-11-08T09:00:00	8	Radiación solar	382
16453	7	Sololá	710	Panajachel	8	Panajachel	1	Enero	2023-01-28T00:00:00	2024-11-08T10:00:00	2	Temperatura media	22.4
16454	7	Sololá	710	Panajachel	8	Panajachel	1	Enero	2023-01-28T00:00:00	2024-11-08T10:00:00	4	Temperatura máxima	22.6
16455	7	Sololá	710	Panajachel	8	Panajachel	1	Enero	2023-01-28T00:00:00	2024-11-08T10:00:00	3	Temperatura mínima	20.9
16456	7	Sololá	710	Panajachel	8	Panajachel	1	Enero	2023-01-28T00:00:00	2024-11-08T10:00:00	5	Humedad	41
16457	7	Sololá	710	Panajachel	8	Panajachel	1	Enero	2023-01-28T00:00:00	2024-11-08T10:00:00	6	Velocidad del viento	6.4
16458	7	Sololá	710	Panajachel	8	Panajachel	1	Enero	2023-01-28T00:00:00	2024-11-08T10:00:00	7	Dirección del viento	6.44
16459	7	Sololá	710	Panajachel	8	Panajachel	1	Enero	2023-01-28T00:00:00	2024-11-08T10:00:00	1	Precipitación	0
16460	7	Sololá	710	Panajachel	8	Panajachel	1	Enero	2023-01-28T00:00:00	2024-11-08T10:00:00	8	Radiación solar	592
16461	7	Sololá	710	Panajachel	8	Panajachel	1	Enero	2023-01-28T00:00:00	2024-11-08T11:00:00	2	Temperatura media	23.9
16462	7	Sololá	710	Panajachel	8	Panajachel	1	Enero	2023-01-28T00:00:00	2024-11-08T11:00:00	4	Temperatura máxima	23.9
16463	7	Sololá	710	Panajachel	8	Panajachel	1	Enero	2023-01-28T00:00:00	2024-11-08T11:00:00	3	Temperatura mínima	22.4
16464	7	Sololá	710	Panajachel	8	Panajachel	1	Enero	2023-01-28T00:00:00	2024-11-08T11:00:00	5	Humedad	35
16465	7	Sololá	710	Panajachel	8	Panajachel	1	Enero	2023-01-28T00:00:00	2024-11-08T11:00:00	6	Velocidad del viento	9.7
16466	7	Sololá	710	Panajachel	8	Panajachel	1	Enero	2023-01-28T00:00:00	2024-11-08T11:00:00	7	Dirección del viento	9.66
16467	7	Sololá	710	Panajachel	8	Panajachel	1	Enero	2023-01-28T00:00:00	2024-11-08T11:00:00	1	Precipitación	0
16468	7	Sololá	710	Panajachel	8	Panajachel	1	Enero	2023-01-28T00:00:00	2024-11-08T11:00:00	8	Radiación solar	746
16469	7	Sololá	710	Panajachel	8	Panajachel	1	Enero	2023-01-28T00:00:00	2024-11-08T12:00:00	2	Temperatura media	25
16470	7	Sololá	710	Panajachel	8	Panajachel	1	Enero	2023-01-28T00:00:00	2024-11-08T12:00:00	4	Temperatura máxima	25.3
16471	7	Sololá	710	Panajachel	8	Panajachel	1	Enero	2023-01-28T00:00:00	2024-11-08T12:00:00	3	Temperatura mínima	23.9
16472	7	Sololá	710	Panajachel	8	Panajachel	1	Enero	2023-01-28T00:00:00	2024-11-08T12:00:00	5	Humedad	38
16473	7	Sololá	710	Panajachel	8	Panajachel	1	Enero	2023-01-28T00:00:00	2024-11-08T12:00:00	6	Velocidad del viento	6.4
16474	7	Sololá	710	Panajachel	8	Panajachel	1	Enero	2023-01-28T00:00:00	2024-11-08T12:00:00	7	Dirección del viento	6.44
16475	7	Sololá	710	Panajachel	8	Panajachel	1	Enero	2023-01-28T00:00:00	2024-11-08T12:00:00	1	Precipitación	0
16476	7	Sololá	710	Panajachel	8	Panajachel	1	Enero	2023-01-28T00:00:00	2024-11-08T12:00:00	8	Radiación solar	835
16477	7	Sololá	710	Panajachel	8	Panajachel	1	Enero	2023-01-28T00:00:00	2024-11-08T13:00:00	2	Temperatura media	26.3
16478	7	Sololá	710	Panajachel	8	Panajachel	1	Enero	2023-01-28T00:00:00	2024-11-08T13:00:00	4	Temperatura máxima	26.3
16479	7	Sololá	710	Panajachel	8	Panajachel	1	Enero	2023-01-28T00:00:00	2024-11-08T13:00:00	3	Temperatura mínima	24.7
16480	7	Sololá	710	Panajachel	8	Panajachel	1	Enero	2023-01-28T00:00:00	2024-11-08T13:00:00	5	Humedad	29
16481	7	Sololá	710	Panajachel	8	Panajachel	1	Enero	2023-01-28T00:00:00	2024-11-08T13:00:00	6	Velocidad del viento	4.8
16482	7	Sololá	710	Panajachel	8	Panajachel	1	Enero	2023-01-28T00:00:00	2024-11-08T13:00:00	7	Dirección del viento	4.83
16483	7	Sololá	710	Panajachel	8	Panajachel	1	Enero	2023-01-28T00:00:00	2024-11-08T13:00:00	1	Precipitación	0
16484	7	Sololá	710	Panajachel	8	Panajachel	1	Enero	2023-01-28T00:00:00	2024-11-08T13:00:00	8	Radiación solar	859
16485	7	Sololá	710	Panajachel	8	Panajachel	1	Enero	2023-01-28T00:00:00	2024-11-08T14:00:00	2	Temperatura media	26.8
16486	7	Sololá	710	Panajachel	8	Panajachel	1	Enero	2023-01-28T00:00:00	2024-11-08T14:00:00	4	Temperatura máxima	27.2
16487	7	Sololá	710	Panajachel	8	Panajachel	1	Enero	2023-01-28T00:00:00	2024-11-08T14:00:00	3	Temperatura mínima	26.2
16488	7	Sololá	710	Panajachel	8	Panajachel	1	Enero	2023-01-28T00:00:00	2024-11-08T14:00:00	5	Humedad	25
16489	7	Sololá	710	Panajachel	8	Panajachel	1	Enero	2023-01-28T00:00:00	2024-11-08T14:00:00	6	Velocidad del viento	4.8
16490	7	Sololá	710	Panajachel	8	Panajachel	1	Enero	2023-01-28T00:00:00	2024-11-08T14:00:00	7	Dirección del viento	4.83
16491	7	Sololá	710	Panajachel	8	Panajachel	1	Enero	2023-01-28T00:00:00	2024-11-08T14:00:00	1	Precipitación	0
16492	7	Sololá	710	Panajachel	8	Panajachel	1	Enero	2023-01-28T00:00:00	2024-11-08T14:00:00	8	Radiación solar	807
16493	7	Sololá	710	Panajachel	8	Panajachel	1	Enero	2023-01-28T00:00:00	2024-11-08T15:00:00	2	Temperatura media	26.6
16494	7	Sololá	710	Panajachel	8	Panajachel	1	Enero	2023-01-28T00:00:00	2024-11-08T15:00:00	4	Temperatura máxima	27.1
16495	7	Sololá	710	Panajachel	8	Panajachel	1	Enero	2023-01-28T00:00:00	2024-11-08T15:00:00	3	Temperatura mínima	26.4
16496	7	Sololá	710	Panajachel	8	Panajachel	1	Enero	2023-01-28T00:00:00	2024-11-08T15:00:00	5	Humedad	27
16497	7	Sololá	710	Panajachel	8	Panajachel	1	Enero	2023-01-28T00:00:00	2024-11-08T15:00:00	6	Velocidad del viento	4.8
16498	7	Sololá	710	Panajachel	8	Panajachel	1	Enero	2023-01-28T00:00:00	2024-11-08T15:00:00	7	Dirección del viento	4.83
16499	7	Sololá	710	Panajachel	8	Panajachel	1	Enero	2023-01-28T00:00:00	2024-11-08T15:00:00	1	Precipitación	0
16500	7	Sololá	710	Panajachel	8	Panajachel	1	Enero	2023-01-28T00:00:00	2024-11-08T15:00:00	8	Radiación solar	689
16501	7	Sololá	710	Panajachel	8	Panajachel	1	Enero	2023-01-28T00:00:00	2024-11-08T16:00:00	2	Temperatura media	26
16502	7	Sololá	710	Panajachel	8	Panajachel	1	Enero	2023-01-28T00:00:00	2024-11-08T16:00:00	4	Temperatura máxima	27.2
16503	7	Sololá	710	Panajachel	8	Panajachel	1	Enero	2023-01-28T00:00:00	2024-11-08T16:00:00	3	Temperatura mínima	25.6
16504	7	Sololá	710	Panajachel	8	Panajachel	1	Enero	2023-01-28T00:00:00	2024-11-08T16:00:00	5	Humedad	33
16505	7	Sololá	710	Panajachel	8	Panajachel	1	Enero	2023-01-28T00:00:00	2024-11-08T16:00:00	6	Velocidad del viento	3.2
16506	7	Sololá	710	Panajachel	8	Panajachel	1	Enero	2023-01-28T00:00:00	2024-11-08T16:00:00	7	Dirección del viento	3.22
16507	7	Sololá	710	Panajachel	8	Panajachel	1	Enero	2023-01-28T00:00:00	2024-11-08T16:00:00	1	Precipitación	0
16508	7	Sololá	710	Panajachel	8	Panajachel	1	Enero	2023-01-28T00:00:00	2024-11-08T16:00:00	8	Radiación solar	509
16509	7	Sololá	710	Panajachel	8	Panajachel	1	Enero	2023-01-28T00:00:00	2024-11-08T17:00:00	2	Temperatura media	23.7
16510	7	Sololá	710	Panajachel	8	Panajachel	1	Enero	2023-01-28T00:00:00	2024-11-08T17:00:00	4	Temperatura máxima	26.1
16511	7	Sololá	710	Panajachel	8	Panajachel	1	Enero	2023-01-28T00:00:00	2024-11-08T17:00:00	3	Temperatura mínima	23.7
16512	7	Sololá	710	Panajachel	8	Panajachel	1	Enero	2023-01-28T00:00:00	2024-11-08T17:00:00	5	Humedad	40
16513	7	Sololá	710	Panajachel	8	Panajachel	1	Enero	2023-01-28T00:00:00	2024-11-08T17:00:00	6	Velocidad del viento	8
16514	7	Sololá	710	Panajachel	8	Panajachel	1	Enero	2023-01-28T00:00:00	2024-11-08T17:00:00	7	Dirección del viento	8.05
16515	7	Sololá	710	Panajachel	8	Panajachel	1	Enero	2023-01-28T00:00:00	2024-11-08T17:00:00	1	Precipitación	0
16516	7	Sololá	710	Panajachel	8	Panajachel	1	Enero	2023-01-28T00:00:00	2024-11-08T17:00:00	8	Radiación solar	299
16517	7	Sololá	710	Panajachel	8	Panajachel	1	Enero	2023-01-28T00:00:00	2024-11-08T18:00:00	2	Temperatura media	21.4
16518	7	Sololá	710	Panajachel	8	Panajachel	1	Enero	2023-01-28T00:00:00	2024-11-08T18:00:00	4	Temperatura máxima	23.7
16519	7	Sololá	710	Panajachel	8	Panajachel	1	Enero	2023-01-28T00:00:00	2024-11-08T18:00:00	3	Temperatura mínima	21.4
16520	7	Sololá	710	Panajachel	8	Panajachel	1	Enero	2023-01-28T00:00:00	2024-11-08T18:00:00	5	Humedad	40
16521	7	Sololá	710	Panajachel	8	Panajachel	1	Enero	2023-01-28T00:00:00	2024-11-08T18:00:00	6	Velocidad del viento	6.4
16522	7	Sololá	710	Panajachel	8	Panajachel	1	Enero	2023-01-28T00:00:00	2024-11-08T18:00:00	7	Dirección del viento	6.44
16523	7	Sololá	710	Panajachel	8	Panajachel	1	Enero	2023-01-28T00:00:00	2024-11-08T18:00:00	1	Precipitación	0
16524	7	Sololá	710	Panajachel	8	Panajachel	1	Enero	2023-01-28T00:00:00	2024-11-08T18:00:00	8	Radiación solar	70
16525	7	Sololá	710	Panajachel	8	Panajachel	1	Enero	2023-01-28T00:00:00	2024-11-08T19:00:00	2	Temperatura media	19.7
16526	7	Sololá	710	Panajachel	8	Panajachel	1	Enero	2023-01-28T00:00:00	2024-11-08T19:00:00	4	Temperatura máxima	21.4
16527	7	Sololá	710	Panajachel	8	Panajachel	1	Enero	2023-01-28T00:00:00	2024-11-08T19:00:00	3	Temperatura mínima	19.7
16528	7	Sololá	710	Panajachel	8	Panajachel	1	Enero	2023-01-28T00:00:00	2024-11-08T19:00:00	5	Humedad	53
16529	7	Sololá	710	Panajachel	8	Panajachel	1	Enero	2023-01-28T00:00:00	2024-11-08T19:00:00	6	Velocidad del viento	3.2
16530	7	Sololá	710	Panajachel	8	Panajachel	1	Enero	2023-01-28T00:00:00	2024-11-08T19:00:00	7	Dirección del viento	3.22
16531	7	Sololá	710	Panajachel	8	Panajachel	1	Enero	2023-01-28T00:00:00	2024-11-08T19:00:00	1	Precipitación	0
16532	7	Sololá	710	Panajachel	8	Panajachel	1	Enero	2023-01-28T00:00:00	2024-11-08T19:00:00	8	Radiación solar	0
16533	7	Sololá	710	Panajachel	8	Panajachel	1	Enero	2023-01-28T00:00:00	2024-11-08T20:00:00	2	Temperatura media	18.9
16534	7	Sololá	710	Panajachel	8	Panajachel	1	Enero	2023-01-28T00:00:00	2024-11-08T20:00:00	4	Temperatura máxima	19.7
16535	7	Sololá	710	Panajachel	8	Panajachel	1	Enero	2023-01-28T00:00:00	2024-11-08T20:00:00	3	Temperatura mínima	18.9
16536	7	Sololá	710	Panajachel	8	Panajachel	1	Enero	2023-01-28T00:00:00	2024-11-08T20:00:00	5	Humedad	60
16537	7	Sololá	710	Panajachel	8	Panajachel	1	Enero	2023-01-28T00:00:00	2024-11-08T20:00:00	6	Velocidad del viento	6.4
16538	7	Sololá	710	Panajachel	8	Panajachel	1	Enero	2023-01-28T00:00:00	2024-11-08T20:00:00	7	Dirección del viento	6.44
16539	7	Sololá	710	Panajachel	8	Panajachel	1	Enero	2023-01-28T00:00:00	2024-11-08T20:00:00	1	Precipitación	0
16540	7	Sololá	710	Panajachel	8	Panajachel	1	Enero	2023-01-28T00:00:00	2024-11-08T20:00:00	8	Radiación solar	0
16541	7	Sololá	710	Panajachel	8	Panajachel	1	Enero	2023-01-28T00:00:00	2024-11-08T21:00:00	2	Temperatura media	18.3
16542	7	Sololá	710	Panajachel	8	Panajachel	1	Enero	2023-01-28T00:00:00	2024-11-08T21:00:00	4	Temperatura máxima	18.9
16543	7	Sololá	710	Panajachel	8	Panajachel	1	Enero	2023-01-28T00:00:00	2024-11-08T21:00:00	3	Temperatura mínima	18.2
16544	7	Sololá	710	Panajachel	8	Panajachel	1	Enero	2023-01-28T00:00:00	2024-11-08T21:00:00	5	Humedad	64
16545	7	Sololá	710	Panajachel	8	Panajachel	1	Enero	2023-01-28T00:00:00	2024-11-08T21:00:00	6	Velocidad del viento	6.4
16546	7	Sololá	710	Panajachel	8	Panajachel	1	Enero	2023-01-28T00:00:00	2024-11-08T21:00:00	7	Dirección del viento	6.44
16547	7	Sololá	710	Panajachel	8	Panajachel	1	Enero	2023-01-28T00:00:00	2024-11-08T21:00:00	1	Precipitación	0
16548	7	Sololá	710	Panajachel	8	Panajachel	1	Enero	2023-01-28T00:00:00	2024-11-08T21:00:00	8	Radiación solar	0
16549	7	Sololá	710	Panajachel	8	Panajachel	1	Enero	2023-01-28T00:00:00	2024-11-08T22:00:00	2	Temperatura media	18.2
16550	7	Sololá	710	Panajachel	8	Panajachel	1	Enero	2023-01-28T00:00:00	2024-11-08T22:00:00	4	Temperatura máxima	18.4
16551	7	Sololá	710	Panajachel	8	Panajachel	1	Enero	2023-01-28T00:00:00	2024-11-08T22:00:00	3	Temperatura mínima	18.1
16552	7	Sololá	710	Panajachel	8	Panajachel	1	Enero	2023-01-28T00:00:00	2024-11-08T22:00:00	5	Humedad	64
16553	7	Sololá	710	Panajachel	8	Panajachel	1	Enero	2023-01-28T00:00:00	2024-11-08T22:00:00	6	Velocidad del viento	9.7
16554	7	Sololá	710	Panajachel	8	Panajachel	1	Enero	2023-01-28T00:00:00	2024-11-08T22:00:00	7	Dirección del viento	9.66
16555	7	Sololá	710	Panajachel	8	Panajachel	1	Enero	2023-01-28T00:00:00	2024-11-08T22:00:00	1	Precipitación	0
16556	7	Sololá	710	Panajachel	8	Panajachel	1	Enero	2023-01-28T00:00:00	2024-11-08T22:00:00	8	Radiación solar	0
16557	7	Sololá	710	Panajachel	8	Panajachel	1	Enero	2023-01-28T00:00:00	2024-11-08T23:00:00	2	Temperatura media	18
16558	7	Sololá	710	Panajachel	8	Panajachel	1	Enero	2023-01-28T00:00:00	2024-11-08T23:00:00	4	Temperatura máxima	18.2
16559	7	Sololá	710	Panajachel	8	Panajachel	1	Enero	2023-01-28T00:00:00	2024-11-08T23:00:00	3	Temperatura mínima	18
16560	7	Sololá	710	Panajachel	8	Panajachel	1	Enero	2023-01-28T00:00:00	2024-11-08T23:00:00	5	Humedad	58
16561	7	Sololá	710	Panajachel	8	Panajachel	1	Enero	2023-01-28T00:00:00	2024-11-08T23:00:00	6	Velocidad del viento	6.4
16562	7	Sololá	710	Panajachel	8	Panajachel	1	Enero	2023-01-28T00:00:00	2024-11-08T23:00:00	7	Dirección del viento	6.44
16563	7	Sololá	710	Panajachel	8	Panajachel	1	Enero	2023-01-28T00:00:00	2024-11-08T23:00:00	1	Precipitación	0
16564	7	Sololá	710	Panajachel	8	Panajachel	1	Enero	2023-01-28T00:00:00	2024-11-08T23:00:00	8	Radiación solar	0
16565	7	Sololá	710	Panajachel	8	Panajachel	1	Enero	2023-01-29T00:00:00	2024-11-08T00:00:00	2	Temperatura media	17.6
16566	7	Sololá	710	Panajachel	8	Panajachel	1	Enero	2023-01-29T00:00:00	2024-11-08T00:00:00	4	Temperatura máxima	18.4
16567	7	Sololá	710	Panajachel	8	Panajachel	1	Enero	2023-01-29T00:00:00	2024-11-08T00:00:00	3	Temperatura mínima	17.6
16568	7	Sololá	710	Panajachel	8	Panajachel	1	Enero	2023-01-29T00:00:00	2024-11-08T00:00:00	5	Humedad	51
16569	7	Sololá	710	Panajachel	8	Panajachel	1	Enero	2023-01-29T00:00:00	2024-11-08T00:00:00	6	Velocidad del viento	4.8
16570	7	Sololá	710	Panajachel	8	Panajachel	1	Enero	2023-01-29T00:00:00	2024-11-08T00:00:00	7	Dirección del viento	4.83
16571	7	Sololá	710	Panajachel	8	Panajachel	1	Enero	2023-01-29T00:00:00	2024-11-08T00:00:00	1	Precipitación	0
16572	7	Sololá	710	Panajachel	8	Panajachel	1	Enero	2023-01-29T00:00:00	2024-11-08T00:00:00	8	Radiación solar	0
16573	7	Sololá	710	Panajachel	8	Panajachel	1	Enero	2023-01-29T00:00:00	2024-11-08T01:00:00	2	Temperatura media	15.8
16574	7	Sololá	710	Panajachel	8	Panajachel	1	Enero	2023-01-29T00:00:00	2024-11-08T01:00:00	4	Temperatura máxima	17.6
16575	7	Sololá	710	Panajachel	8	Panajachel	1	Enero	2023-01-29T00:00:00	2024-11-08T01:00:00	3	Temperatura mínima	15.6
16576	7	Sololá	710	Panajachel	8	Panajachel	1	Enero	2023-01-29T00:00:00	2024-11-08T01:00:00	5	Humedad	37
16577	7	Sololá	710	Panajachel	8	Panajachel	1	Enero	2023-01-29T00:00:00	2024-11-08T01:00:00	6	Velocidad del viento	3.2
16578	7	Sololá	710	Panajachel	8	Panajachel	1	Enero	2023-01-29T00:00:00	2024-11-08T01:00:00	7	Dirección del viento	3.22
16579	7	Sololá	710	Panajachel	8	Panajachel	1	Enero	2023-01-29T00:00:00	2024-11-08T01:00:00	1	Precipitación	0
16580	7	Sololá	710	Panajachel	8	Panajachel	1	Enero	2023-01-29T00:00:00	2024-11-08T01:00:00	8	Radiación solar	0
16581	7	Sololá	710	Panajachel	8	Panajachel	1	Enero	2023-01-29T00:00:00	2024-11-08T02:00:00	2	Temperatura media	15.7
16582	7	Sololá	710	Panajachel	8	Panajachel	1	Enero	2023-01-29T00:00:00	2024-11-08T02:00:00	4	Temperatura máxima	15.9
16583	7	Sololá	710	Panajachel	8	Panajachel	1	Enero	2023-01-29T00:00:00	2024-11-08T02:00:00	3	Temperatura mínima	15
16584	7	Sololá	710	Panajachel	8	Panajachel	1	Enero	2023-01-29T00:00:00	2024-11-08T02:00:00	5	Humedad	34
16585	7	Sololá	710	Panajachel	8	Panajachel	1	Enero	2023-01-29T00:00:00	2024-11-08T02:00:00	6	Velocidad del viento	1.6
16586	7	Sololá	710	Panajachel	8	Panajachel	1	Enero	2023-01-29T00:00:00	2024-11-08T02:00:00	7	Dirección del viento	1.61
16587	7	Sololá	710	Panajachel	8	Panajachel	1	Enero	2023-01-29T00:00:00	2024-11-08T02:00:00	1	Precipitación	0
16588	7	Sololá	710	Panajachel	8	Panajachel	1	Enero	2023-01-29T00:00:00	2024-11-08T02:00:00	8	Radiación solar	0
16589	7	Sololá	710	Panajachel	8	Panajachel	1	Enero	2023-01-29T00:00:00	2024-11-08T03:00:00	2	Temperatura media	15.7
16590	7	Sololá	710	Panajachel	8	Panajachel	1	Enero	2023-01-29T00:00:00	2024-11-08T03:00:00	4	Temperatura máxima	16.6
16591	7	Sololá	710	Panajachel	8	Panajachel	1	Enero	2023-01-29T00:00:00	2024-11-08T03:00:00	3	Temperatura mínima	15.5
16592	7	Sololá	710	Panajachel	8	Panajachel	1	Enero	2023-01-29T00:00:00	2024-11-08T03:00:00	5	Humedad	38
16593	7	Sololá	710	Panajachel	8	Panajachel	1	Enero	2023-01-29T00:00:00	2024-11-08T03:00:00	6	Velocidad del viento	6.4
16594	7	Sololá	710	Panajachel	8	Panajachel	1	Enero	2023-01-29T00:00:00	2024-11-08T03:00:00	7	Dirección del viento	6.44
16595	7	Sololá	710	Panajachel	8	Panajachel	1	Enero	2023-01-29T00:00:00	2024-11-08T03:00:00	1	Precipitación	0
16596	7	Sololá	710	Panajachel	8	Panajachel	1	Enero	2023-01-29T00:00:00	2024-11-08T03:00:00	8	Radiación solar	0
16597	7	Sololá	710	Panajachel	8	Panajachel	1	Enero	2023-01-29T00:00:00	2024-11-08T04:00:00	2	Temperatura media	15.3
16598	7	Sololá	710	Panajachel	8	Panajachel	1	Enero	2023-01-29T00:00:00	2024-11-08T04:00:00	4	Temperatura máxima	15.8
16599	7	Sololá	710	Panajachel	8	Panajachel	1	Enero	2023-01-29T00:00:00	2024-11-08T04:00:00	3	Temperatura mínima	15.3
16600	7	Sololá	710	Panajachel	8	Panajachel	1	Enero	2023-01-29T00:00:00	2024-11-08T04:00:00	5	Humedad	44
16601	7	Sololá	710	Panajachel	8	Panajachel	1	Enero	2023-01-29T00:00:00	2024-11-08T04:00:00	6	Velocidad del viento	6.4
16602	7	Sololá	710	Panajachel	8	Panajachel	1	Enero	2023-01-29T00:00:00	2024-11-08T04:00:00	7	Dirección del viento	6.44
16603	7	Sololá	710	Panajachel	8	Panajachel	1	Enero	2023-01-29T00:00:00	2024-11-08T04:00:00	1	Precipitación	0
16604	7	Sololá	710	Panajachel	8	Panajachel	1	Enero	2023-01-29T00:00:00	2024-11-08T04:00:00	8	Radiación solar	0
16605	7	Sololá	710	Panajachel	8	Panajachel	1	Enero	2023-01-29T00:00:00	2024-11-08T05:00:00	2	Temperatura media	15.4
16606	7	Sololá	710	Panajachel	8	Panajachel	1	Enero	2023-01-29T00:00:00	2024-11-08T05:00:00	4	Temperatura máxima	15.6
16607	7	Sololá	710	Panajachel	8	Panajachel	1	Enero	2023-01-29T00:00:00	2024-11-08T05:00:00	3	Temperatura mínima	15.2
16608	7	Sololá	710	Panajachel	8	Panajachel	1	Enero	2023-01-29T00:00:00	2024-11-08T05:00:00	5	Humedad	43
16609	7	Sololá	710	Panajachel	8	Panajachel	1	Enero	2023-01-29T00:00:00	2024-11-08T05:00:00	6	Velocidad del viento	8
16610	7	Sololá	710	Panajachel	8	Panajachel	1	Enero	2023-01-29T00:00:00	2024-11-08T05:00:00	7	Dirección del viento	8.05
16611	7	Sololá	710	Panajachel	8	Panajachel	1	Enero	2023-01-29T00:00:00	2024-11-08T05:00:00	1	Precipitación	0
16612	7	Sololá	710	Panajachel	8	Panajachel	1	Enero	2023-01-29T00:00:00	2024-11-08T05:00:00	8	Radiación solar	0
16613	7	Sololá	710	Panajachel	8	Panajachel	1	Enero	2023-01-29T00:00:00	2024-11-08T06:00:00	2	Temperatura media	14.4
16614	7	Sololá	710	Panajachel	8	Panajachel	1	Enero	2023-01-29T00:00:00	2024-11-08T06:00:00	4	Temperatura máxima	15.4
16615	7	Sololá	710	Panajachel	8	Panajachel	1	Enero	2023-01-29T00:00:00	2024-11-08T06:00:00	3	Temperatura mínima	14.3
16616	7	Sololá	710	Panajachel	8	Panajachel	1	Enero	2023-01-29T00:00:00	2024-11-08T06:00:00	5	Humedad	44
16617	7	Sololá	710	Panajachel	8	Panajachel	1	Enero	2023-01-29T00:00:00	2024-11-08T06:00:00	6	Velocidad del viento	3.2
16618	7	Sololá	710	Panajachel	8	Panajachel	1	Enero	2023-01-29T00:00:00	2024-11-08T06:00:00	7	Dirección del viento	3.22
16619	7	Sololá	710	Panajachel	8	Panajachel	1	Enero	2023-01-29T00:00:00	2024-11-08T06:00:00	1	Precipitación	0
16620	7	Sololá	710	Panajachel	8	Panajachel	1	Enero	2023-01-29T00:00:00	2024-11-08T06:00:00	8	Radiación solar	0
16621	7	Sololá	710	Panajachel	8	Panajachel	1	Enero	2023-01-29T00:00:00	2024-11-08T07:00:00	2	Temperatura media	14.2
16622	7	Sololá	710	Panajachel	8	Panajachel	1	Enero	2023-01-29T00:00:00	2024-11-08T07:00:00	4	Temperatura máxima	14.7
16623	7	Sololá	710	Panajachel	8	Panajachel	1	Enero	2023-01-29T00:00:00	2024-11-08T07:00:00	3	Temperatura mínima	14.2
16624	7	Sololá	710	Panajachel	8	Panajachel	1	Enero	2023-01-29T00:00:00	2024-11-08T07:00:00	5	Humedad	52
16625	7	Sololá	710	Panajachel	8	Panajachel	1	Enero	2023-01-29T00:00:00	2024-11-08T07:00:00	6	Velocidad del viento	1.6
16626	7	Sololá	710	Panajachel	8	Panajachel	1	Enero	2023-01-29T00:00:00	2024-11-08T07:00:00	7	Dirección del viento	1.61
16627	7	Sololá	710	Panajachel	8	Panajachel	1	Enero	2023-01-29T00:00:00	2024-11-08T07:00:00	1	Precipitación	0
16628	7	Sololá	710	Panajachel	8	Panajachel	1	Enero	2023-01-29T00:00:00	2024-11-08T07:00:00	8	Radiación solar	3
16629	7	Sololá	710	Panajachel	8	Panajachel	1	Enero	2023-01-29T00:00:00	2024-11-08T08:00:00	2	Temperatura media	16.3
16630	7	Sololá	710	Panajachel	8	Panajachel	1	Enero	2023-01-29T00:00:00	2024-11-08T08:00:00	4	Temperatura máxima	16.3
16631	7	Sololá	710	Panajachel	8	Panajachel	1	Enero	2023-01-29T00:00:00	2024-11-08T08:00:00	3	Temperatura mínima	13.7
16632	7	Sololá	710	Panajachel	8	Panajachel	1	Enero	2023-01-29T00:00:00	2024-11-08T08:00:00	5	Humedad	43
16633	7	Sololá	710	Panajachel	8	Panajachel	1	Enero	2023-01-29T00:00:00	2024-11-08T08:00:00	6	Velocidad del viento	3.2
16634	7	Sololá	710	Panajachel	8	Panajachel	1	Enero	2023-01-29T00:00:00	2024-11-08T08:00:00	7	Dirección del viento	3.22
16635	7	Sololá	710	Panajachel	8	Panajachel	1	Enero	2023-01-29T00:00:00	2024-11-08T08:00:00	1	Precipitación	0
16636	7	Sololá	710	Panajachel	8	Panajachel	1	Enero	2023-01-29T00:00:00	2024-11-08T08:00:00	8	Radiación solar	23
16637	7	Sololá	710	Panajachel	8	Panajachel	1	Enero	2023-01-29T00:00:00	2024-11-08T09:00:00	2	Temperatura media	19.1
16638	7	Sololá	710	Panajachel	8	Panajachel	1	Enero	2023-01-29T00:00:00	2024-11-08T09:00:00	4	Temperatura máxima	19.1
16639	7	Sololá	710	Panajachel	8	Panajachel	1	Enero	2023-01-29T00:00:00	2024-11-08T09:00:00	3	Temperatura mínima	16.3
16640	7	Sololá	710	Panajachel	8	Panajachel	1	Enero	2023-01-29T00:00:00	2024-11-08T09:00:00	5	Humedad	45
16641	7	Sololá	710	Panajachel	8	Panajachel	1	Enero	2023-01-29T00:00:00	2024-11-08T09:00:00	6	Velocidad del viento	1.6
16642	7	Sololá	710	Panajachel	8	Panajachel	1	Enero	2023-01-29T00:00:00	2024-11-08T09:00:00	7	Dirección del viento	1.61
16643	7	Sololá	710	Panajachel	8	Panajachel	1	Enero	2023-01-29T00:00:00	2024-11-08T09:00:00	1	Precipitación	0
16644	7	Sololá	710	Panajachel	8	Panajachel	1	Enero	2023-01-29T00:00:00	2024-11-08T09:00:00	8	Radiación solar	389
16645	7	Sololá	710	Panajachel	8	Panajachel	1	Enero	2023-01-29T00:00:00	2024-11-08T10:00:00	2	Temperatura media	21
16646	7	Sololá	710	Panajachel	8	Panajachel	1	Enero	2023-01-29T00:00:00	2024-11-08T10:00:00	4	Temperatura máxima	21.1
16647	7	Sololá	710	Panajachel	8	Panajachel	1	Enero	2023-01-29T00:00:00	2024-11-08T10:00:00	3	Temperatura mínima	19.1
16648	7	Sololá	710	Panajachel	8	Panajachel	1	Enero	2023-01-29T00:00:00	2024-11-08T10:00:00	5	Humedad	47
16649	7	Sololá	710	Panajachel	8	Panajachel	1	Enero	2023-01-29T00:00:00	2024-11-08T10:00:00	6	Velocidad del viento	1.6
16650	7	Sololá	710	Panajachel	8	Panajachel	1	Enero	2023-01-29T00:00:00	2024-11-08T10:00:00	7	Dirección del viento	1.61
16651	7	Sololá	710	Panajachel	8	Panajachel	1	Enero	2023-01-29T00:00:00	2024-11-08T10:00:00	1	Precipitación	0
16652	7	Sololá	710	Panajachel	8	Panajachel	1	Enero	2023-01-29T00:00:00	2024-11-08T10:00:00	8	Radiación solar	594
16653	7	Sololá	710	Panajachel	8	Panajachel	1	Enero	2023-01-29T00:00:00	2024-11-08T11:00:00	2	Temperatura media	22.6
16654	7	Sololá	710	Panajachel	8	Panajachel	1	Enero	2023-01-29T00:00:00	2024-11-08T11:00:00	4	Temperatura máxima	22.8
16655	7	Sololá	710	Panajachel	8	Panajachel	1	Enero	2023-01-29T00:00:00	2024-11-08T11:00:00	3	Temperatura mínima	20.6
16656	7	Sololá	710	Panajachel	8	Panajachel	1	Enero	2023-01-29T00:00:00	2024-11-08T11:00:00	5	Humedad	43
16657	7	Sololá	710	Panajachel	8	Panajachel	1	Enero	2023-01-29T00:00:00	2024-11-08T11:00:00	6	Velocidad del viento	3.2
16658	7	Sololá	710	Panajachel	8	Panajachel	1	Enero	2023-01-29T00:00:00	2024-11-08T11:00:00	7	Dirección del viento	3.22
16659	7	Sololá	710	Panajachel	8	Panajachel	1	Enero	2023-01-29T00:00:00	2024-11-08T11:00:00	1	Precipitación	0
16660	7	Sololá	710	Panajachel	8	Panajachel	1	Enero	2023-01-29T00:00:00	2024-11-08T11:00:00	8	Radiación solar	750
16661	7	Sololá	710	Panajachel	8	Panajachel	1	Enero	2023-01-29T00:00:00	2024-11-08T12:00:00	2	Temperatura media	23.9
16662	7	Sololá	710	Panajachel	8	Panajachel	1	Enero	2023-01-29T00:00:00	2024-11-08T12:00:00	4	Temperatura máxima	23.9
16663	7	Sololá	710	Panajachel	8	Panajachel	1	Enero	2023-01-29T00:00:00	2024-11-08T12:00:00	3	Temperatura mínima	22.3
16664	7	Sololá	710	Panajachel	8	Panajachel	1	Enero	2023-01-29T00:00:00	2024-11-08T12:00:00	5	Humedad	41
16665	7	Sololá	710	Panajachel	8	Panajachel	1	Enero	2023-01-29T00:00:00	2024-11-08T12:00:00	6	Velocidad del viento	3.2
16666	7	Sololá	710	Panajachel	8	Panajachel	1	Enero	2023-01-29T00:00:00	2024-11-08T12:00:00	7	Dirección del viento	3.22
16667	7	Sololá	710	Panajachel	8	Panajachel	1	Enero	2023-01-29T00:00:00	2024-11-08T12:00:00	1	Precipitación	0
16668	7	Sololá	710	Panajachel	8	Panajachel	1	Enero	2023-01-29T00:00:00	2024-11-08T12:00:00	8	Radiación solar	844
16669	7	Sololá	710	Panajachel	8	Panajachel	1	Enero	2023-01-29T00:00:00	2024-11-08T13:00:00	2	Temperatura media	26.8
16670	7	Sololá	710	Panajachel	8	Panajachel	1	Enero	2023-01-29T00:00:00	2024-11-08T13:00:00	4	Temperatura máxima	27.2
16671	7	Sololá	710	Panajachel	8	Panajachel	1	Enero	2023-01-29T00:00:00	2024-11-08T13:00:00	3	Temperatura mínima	23.9
16672	7	Sololá	710	Panajachel	8	Panajachel	1	Enero	2023-01-29T00:00:00	2024-11-08T13:00:00	5	Humedad	31
16673	7	Sololá	710	Panajachel	8	Panajachel	1	Enero	2023-01-29T00:00:00	2024-11-08T13:00:00	6	Velocidad del viento	4.8
16674	7	Sololá	710	Panajachel	8	Panajachel	1	Enero	2023-01-29T00:00:00	2024-11-08T13:00:00	7	Dirección del viento	4.83
16675	7	Sololá	710	Panajachel	8	Panajachel	1	Enero	2023-01-29T00:00:00	2024-11-08T13:00:00	1	Precipitación	0
16676	7	Sololá	710	Panajachel	8	Panajachel	1	Enero	2023-01-29T00:00:00	2024-11-08T13:00:00	8	Radiación solar	865
16677	7	Sololá	710	Panajachel	8	Panajachel	1	Enero	2023-01-29T00:00:00	2024-11-08T14:00:00	2	Temperatura media	25.1
16678	7	Sololá	710	Panajachel	8	Panajachel	1	Enero	2023-01-29T00:00:00	2024-11-08T14:00:00	4	Temperatura máxima	26.9
16679	7	Sololá	710	Panajachel	8	Panajachel	1	Enero	2023-01-29T00:00:00	2024-11-08T14:00:00	3	Temperatura mínima	25.1
16680	7	Sololá	710	Panajachel	8	Panajachel	1	Enero	2023-01-29T00:00:00	2024-11-08T14:00:00	5	Humedad	58
16681	7	Sololá	710	Panajachel	8	Panajachel	1	Enero	2023-01-29T00:00:00	2024-11-08T14:00:00	6	Velocidad del viento	4.8
16682	7	Sololá	710	Panajachel	8	Panajachel	1	Enero	2023-01-29T00:00:00	2024-11-08T14:00:00	7	Dirección del viento	4.83
16683	7	Sololá	710	Panajachel	8	Panajachel	1	Enero	2023-01-29T00:00:00	2024-11-08T14:00:00	1	Precipitación	0
16684	7	Sololá	710	Panajachel	8	Panajachel	1	Enero	2023-01-29T00:00:00	2024-11-08T14:00:00	8	Radiación solar	806
16685	7	Sololá	710	Panajachel	8	Panajachel	1	Enero	2023-01-29T00:00:00	2024-11-08T15:00:00	2	Temperatura media	23.4
16686	7	Sololá	710	Panajachel	8	Panajachel	1	Enero	2023-01-29T00:00:00	2024-11-08T15:00:00	4	Temperatura máxima	25.2
16687	7	Sololá	710	Panajachel	8	Panajachel	1	Enero	2023-01-29T00:00:00	2024-11-08T15:00:00	3	Temperatura mínima	23.4
16688	7	Sololá	710	Panajachel	8	Panajachel	1	Enero	2023-01-29T00:00:00	2024-11-08T15:00:00	5	Humedad	61
16689	7	Sololá	710	Panajachel	8	Panajachel	1	Enero	2023-01-29T00:00:00	2024-11-08T15:00:00	6	Velocidad del viento	4.8
16690	7	Sololá	710	Panajachel	8	Panajachel	1	Enero	2023-01-29T00:00:00	2024-11-08T15:00:00	7	Dirección del viento	4.83
16691	7	Sololá	710	Panajachel	8	Panajachel	1	Enero	2023-01-29T00:00:00	2024-11-08T15:00:00	1	Precipitación	0
16692	7	Sololá	710	Panajachel	8	Panajachel	1	Enero	2023-01-29T00:00:00	2024-11-08T15:00:00	8	Radiación solar	670
16693	7	Sololá	710	Panajachel	8	Panajachel	1	Enero	2023-01-29T00:00:00	2024-11-08T16:00:00	2	Temperatura media	23.1
16694	7	Sololá	710	Panajachel	8	Panajachel	1	Enero	2023-01-29T00:00:00	2024-11-08T16:00:00	4	Temperatura máxima	23.4
16695	7	Sololá	710	Panajachel	8	Panajachel	1	Enero	2023-01-29T00:00:00	2024-11-08T16:00:00	3	Temperatura mínima	22.8
16696	7	Sololá	710	Panajachel	8	Panajachel	1	Enero	2023-01-29T00:00:00	2024-11-08T16:00:00	5	Humedad	61
16697	7	Sololá	710	Panajachel	8	Panajachel	1	Enero	2023-01-29T00:00:00	2024-11-08T16:00:00	6	Velocidad del viento	8
16698	7	Sololá	710	Panajachel	8	Panajachel	1	Enero	2023-01-29T00:00:00	2024-11-08T16:00:00	7	Dirección del viento	8.05
16699	7	Sololá	710	Panajachel	8	Panajachel	1	Enero	2023-01-29T00:00:00	2024-11-08T16:00:00	1	Precipitación	0
16700	7	Sololá	710	Panajachel	8	Panajachel	1	Enero	2023-01-29T00:00:00	2024-11-08T16:00:00	8	Radiación solar	490
16701	7	Sololá	710	Panajachel	8	Panajachel	1	Enero	2023-01-29T00:00:00	2024-11-08T17:00:00	2	Temperatura media	23.6
16702	7	Sololá	710	Panajachel	8	Panajachel	1	Enero	2023-01-29T00:00:00	2024-11-08T17:00:00	4	Temperatura máxima	23.8
16703	7	Sololá	710	Panajachel	8	Panajachel	1	Enero	2023-01-29T00:00:00	2024-11-08T17:00:00	3	Temperatura mínima	22.3
16704	7	Sololá	710	Panajachel	8	Panajachel	1	Enero	2023-01-29T00:00:00	2024-11-08T17:00:00	5	Humedad	56
16705	7	Sololá	710	Panajachel	8	Panajachel	1	Enero	2023-01-29T00:00:00	2024-11-08T17:00:00	6	Velocidad del viento	4.8
16706	7	Sololá	710	Panajachel	8	Panajachel	1	Enero	2023-01-29T00:00:00	2024-11-08T17:00:00	7	Dirección del viento	4.83
16707	7	Sololá	710	Panajachel	8	Panajachel	1	Enero	2023-01-29T00:00:00	2024-11-08T17:00:00	1	Precipitación	0
16708	7	Sololá	710	Panajachel	8	Panajachel	1	Enero	2023-01-29T00:00:00	2024-11-08T17:00:00	8	Radiación solar	283
16709	7	Sololá	710	Panajachel	8	Panajachel	1	Enero	2023-01-29T00:00:00	2024-11-08T18:00:00	2	Temperatura media	21.2
16710	7	Sololá	710	Panajachel	8	Panajachel	1	Enero	2023-01-29T00:00:00	2024-11-08T18:00:00	4	Temperatura máxima	23.6
16711	7	Sololá	710	Panajachel	8	Panajachel	1	Enero	2023-01-29T00:00:00	2024-11-08T18:00:00	3	Temperatura mínima	21.2
16712	7	Sololá	710	Panajachel	8	Panajachel	1	Enero	2023-01-29T00:00:00	2024-11-08T18:00:00	5	Humedad	66
16713	7	Sololá	710	Panajachel	8	Panajachel	1	Enero	2023-01-29T00:00:00	2024-11-08T18:00:00	6	Velocidad del viento	1.6
16714	7	Sololá	710	Panajachel	8	Panajachel	1	Enero	2023-01-29T00:00:00	2024-11-08T18:00:00	7	Dirección del viento	1.61
16715	7	Sololá	710	Panajachel	8	Panajachel	1	Enero	2023-01-29T00:00:00	2024-11-08T18:00:00	1	Precipitación	0
16716	7	Sololá	710	Panajachel	8	Panajachel	1	Enero	2023-01-29T00:00:00	2024-11-08T18:00:00	8	Radiación solar	68
16717	7	Sololá	710	Panajachel	8	Panajachel	1	Enero	2023-01-29T00:00:00	2024-11-08T19:00:00	2	Temperatura media	18.9
16718	7	Sololá	710	Panajachel	8	Panajachel	1	Enero	2023-01-29T00:00:00	2024-11-08T19:00:00	4	Temperatura máxima	21.2
16719	7	Sololá	710	Panajachel	8	Panajachel	1	Enero	2023-01-29T00:00:00	2024-11-08T19:00:00	3	Temperatura mínima	18.8
16720	7	Sololá	710	Panajachel	8	Panajachel	1	Enero	2023-01-29T00:00:00	2024-11-08T19:00:00	5	Humedad	62
16721	7	Sololá	710	Panajachel	8	Panajachel	1	Enero	2023-01-29T00:00:00	2024-11-08T19:00:00	6	Velocidad del viento	0
16722	7	Sololá	710	Panajachel	8	Panajachel	1	Enero	2023-01-29T00:00:00	2024-11-08T19:00:00	7	Dirección del viento	0
16723	7	Sololá	710	Panajachel	8	Panajachel	1	Enero	2023-01-29T00:00:00	2024-11-08T19:00:00	1	Precipitación	0
16724	7	Sololá	710	Panajachel	8	Panajachel	1	Enero	2023-01-29T00:00:00	2024-11-08T19:00:00	8	Radiación solar	0
16725	7	Sololá	710	Panajachel	8	Panajachel	1	Enero	2023-01-29T00:00:00	2024-11-08T20:00:00	2	Temperatura media	18.1
16726	7	Sololá	710	Panajachel	8	Panajachel	1	Enero	2023-01-29T00:00:00	2024-11-08T20:00:00	4	Temperatura máxima	18.9
16727	7	Sololá	710	Panajachel	8	Panajachel	1	Enero	2023-01-29T00:00:00	2024-11-08T20:00:00	3	Temperatura mínima	18
16728	7	Sololá	710	Panajachel	8	Panajachel	1	Enero	2023-01-29T00:00:00	2024-11-08T20:00:00	5	Humedad	65
16729	7	Sololá	710	Panajachel	8	Panajachel	1	Enero	2023-01-29T00:00:00	2024-11-08T20:00:00	6	Velocidad del viento	3.2
16730	7	Sololá	710	Panajachel	8	Panajachel	1	Enero	2023-01-29T00:00:00	2024-11-08T20:00:00	7	Dirección del viento	3.22
16731	7	Sololá	710	Panajachel	8	Panajachel	1	Enero	2023-01-29T00:00:00	2024-11-08T20:00:00	1	Precipitación	0
16732	7	Sololá	710	Panajachel	8	Panajachel	1	Enero	2023-01-29T00:00:00	2024-11-08T20:00:00	8	Radiación solar	0
16733	7	Sololá	710	Panajachel	8	Panajachel	1	Enero	2023-01-29T00:00:00	2024-11-08T21:00:00	2	Temperatura media	17.6
16734	7	Sololá	710	Panajachel	8	Panajachel	1	Enero	2023-01-29T00:00:00	2024-11-08T21:00:00	4	Temperatura máxima	18.3
16735	7	Sololá	710	Panajachel	8	Panajachel	1	Enero	2023-01-29T00:00:00	2024-11-08T21:00:00	3	Temperatura mínima	17.6
16736	7	Sololá	710	Panajachel	8	Panajachel	1	Enero	2023-01-29T00:00:00	2024-11-08T21:00:00	5	Humedad	66
16737	7	Sololá	710	Panajachel	8	Panajachel	1	Enero	2023-01-29T00:00:00	2024-11-08T21:00:00	6	Velocidad del viento	6.4
16738	7	Sololá	710	Panajachel	8	Panajachel	1	Enero	2023-01-29T00:00:00	2024-11-08T21:00:00	7	Dirección del viento	6.44
16739	7	Sololá	710	Panajachel	8	Panajachel	1	Enero	2023-01-29T00:00:00	2024-11-08T21:00:00	1	Precipitación	0
16740	7	Sololá	710	Panajachel	8	Panajachel	1	Enero	2023-01-29T00:00:00	2024-11-08T21:00:00	8	Radiación solar	0
16741	7	Sololá	710	Panajachel	8	Panajachel	1	Enero	2023-01-29T00:00:00	2024-11-08T22:00:00	2	Temperatura media	16.9
16742	7	Sololá	710	Panajachel	8	Panajachel	1	Enero	2023-01-29T00:00:00	2024-11-08T22:00:00	4	Temperatura máxima	17.7
16743	7	Sololá	710	Panajachel	8	Panajachel	1	Enero	2023-01-29T00:00:00	2024-11-08T22:00:00	3	Temperatura mínima	16.9
16744	7	Sololá	710	Panajachel	8	Panajachel	1	Enero	2023-01-29T00:00:00	2024-11-08T22:00:00	5	Humedad	68
16745	7	Sololá	710	Panajachel	8	Panajachel	1	Enero	2023-01-29T00:00:00	2024-11-08T22:00:00	6	Velocidad del viento	3.2
16746	7	Sololá	710	Panajachel	8	Panajachel	1	Enero	2023-01-29T00:00:00	2024-11-08T22:00:00	7	Dirección del viento	3.22
16747	7	Sololá	710	Panajachel	8	Panajachel	1	Enero	2023-01-29T00:00:00	2024-11-08T22:00:00	1	Precipitación	0
16748	7	Sololá	710	Panajachel	8	Panajachel	1	Enero	2023-01-29T00:00:00	2024-11-08T22:00:00	8	Radiación solar	0
16749	7	Sololá	710	Panajachel	8	Panajachel	1	Enero	2023-01-29T00:00:00	2024-11-08T23:00:00	2	Temperatura media	15.8
16750	7	Sololá	710	Panajachel	8	Panajachel	1	Enero	2023-01-29T00:00:00	2024-11-08T23:00:00	4	Temperatura máxima	16.9
16751	7	Sololá	710	Panajachel	8	Panajachel	1	Enero	2023-01-29T00:00:00	2024-11-08T23:00:00	3	Temperatura mínima	15.8
16752	7	Sololá	710	Panajachel	8	Panajachel	1	Enero	2023-01-29T00:00:00	2024-11-08T23:00:00	5	Humedad	71
16753	7	Sololá	710	Panajachel	8	Panajachel	1	Enero	2023-01-29T00:00:00	2024-11-08T23:00:00	6	Velocidad del viento	4.8
16754	7	Sololá	710	Panajachel	8	Panajachel	1	Enero	2023-01-29T00:00:00	2024-11-08T23:00:00	7	Dirección del viento	4.83
16755	7	Sololá	710	Panajachel	8	Panajachel	1	Enero	2023-01-29T00:00:00	2024-11-08T23:00:00	1	Precipitación	0
16756	7	Sololá	710	Panajachel	8	Panajachel	1	Enero	2023-01-29T00:00:00	2024-11-08T23:00:00	8	Radiación solar	0
16757	7	Sololá	710	Panajachel	8	Panajachel	1	Enero	2023-01-30T00:00:00	2024-11-08T00:00:00	2	Temperatura media	15.9
16758	7	Sololá	710	Panajachel	8	Panajachel	1	Enero	2023-01-30T00:00:00	2024-11-08T00:00:00	4	Temperatura máxima	16.2
16759	7	Sololá	710	Panajachel	8	Panajachel	1	Enero	2023-01-30T00:00:00	2024-11-08T00:00:00	3	Temperatura mínima	15.6
16760	7	Sololá	710	Panajachel	8	Panajachel	1	Enero	2023-01-30T00:00:00	2024-11-08T00:00:00	5	Humedad	69
16761	7	Sololá	710	Panajachel	8	Panajachel	1	Enero	2023-01-30T00:00:00	2024-11-08T00:00:00	6	Velocidad del viento	4.8
16762	7	Sololá	710	Panajachel	8	Panajachel	1	Enero	2023-01-30T00:00:00	2024-11-08T00:00:00	7	Dirección del viento	4.83
16763	7	Sololá	710	Panajachel	8	Panajachel	1	Enero	2023-01-30T00:00:00	2024-11-08T00:00:00	1	Precipitación	0
16764	7	Sololá	710	Panajachel	8	Panajachel	1	Enero	2023-01-30T00:00:00	2024-11-08T00:00:00	8	Radiación solar	0
16765	7	Sololá	710	Panajachel	8	Panajachel	1	Enero	2023-01-30T00:00:00	2024-11-08T01:00:00	2	Temperatura media	15.2
16766	7	Sololá	710	Panajachel	8	Panajachel	1	Enero	2023-01-30T00:00:00	2024-11-08T01:00:00	4	Temperatura máxima	15.9
16767	7	Sololá	710	Panajachel	8	Panajachel	1	Enero	2023-01-30T00:00:00	2024-11-08T01:00:00	3	Temperatura mínima	15.2
16768	7	Sololá	710	Panajachel	8	Panajachel	1	Enero	2023-01-30T00:00:00	2024-11-08T01:00:00	5	Humedad	69
16769	7	Sololá	710	Panajachel	8	Panajachel	1	Enero	2023-01-30T00:00:00	2024-11-08T01:00:00	6	Velocidad del viento	3.2
16770	7	Sololá	710	Panajachel	8	Panajachel	1	Enero	2023-01-30T00:00:00	2024-11-08T01:00:00	7	Dirección del viento	3.22
16771	7	Sololá	710	Panajachel	8	Panajachel	1	Enero	2023-01-30T00:00:00	2024-11-08T01:00:00	1	Precipitación	0
16772	7	Sololá	710	Panajachel	8	Panajachel	1	Enero	2023-01-30T00:00:00	2024-11-08T01:00:00	8	Radiación solar	0
16773	7	Sololá	710	Panajachel	8	Panajachel	1	Enero	2023-01-30T00:00:00	2024-11-08T02:00:00	2	Temperatura media	14.3
16774	7	Sololá	710	Panajachel	8	Panajachel	1	Enero	2023-01-30T00:00:00	2024-11-08T02:00:00	4	Temperatura máxima	15.2
16775	7	Sololá	710	Panajachel	8	Panajachel	1	Enero	2023-01-30T00:00:00	2024-11-08T02:00:00	3	Temperatura mínima	14.3
16776	7	Sololá	710	Panajachel	8	Panajachel	1	Enero	2023-01-30T00:00:00	2024-11-08T02:00:00	5	Humedad	69
16777	7	Sololá	710	Panajachel	8	Panajachel	1	Enero	2023-01-30T00:00:00	2024-11-08T02:00:00	6	Velocidad del viento	1.6
16778	7	Sololá	710	Panajachel	8	Panajachel	1	Enero	2023-01-30T00:00:00	2024-11-08T02:00:00	7	Dirección del viento	1.61
16779	7	Sololá	710	Panajachel	8	Panajachel	1	Enero	2023-01-30T00:00:00	2024-11-08T02:00:00	1	Precipitación	0
16780	7	Sololá	710	Panajachel	8	Panajachel	1	Enero	2023-01-30T00:00:00	2024-11-08T02:00:00	8	Radiación solar	0
16781	7	Sololá	710	Panajachel	8	Panajachel	1	Enero	2023-01-30T00:00:00	2024-11-08T03:00:00	2	Temperatura media	13.9
16782	7	Sololá	710	Panajachel	8	Panajachel	1	Enero	2023-01-30T00:00:00	2024-11-08T03:00:00	4	Temperatura máxima	14.3
16783	7	Sololá	710	Panajachel	8	Panajachel	1	Enero	2023-01-30T00:00:00	2024-11-08T03:00:00	3	Temperatura mínima	13.9
16784	7	Sololá	710	Panajachel	8	Panajachel	1	Enero	2023-01-30T00:00:00	2024-11-08T03:00:00	5	Humedad	65
16785	7	Sololá	710	Panajachel	8	Panajachel	1	Enero	2023-01-30T00:00:00	2024-11-08T03:00:00	6	Velocidad del viento	4.8
16786	7	Sololá	710	Panajachel	8	Panajachel	1	Enero	2023-01-30T00:00:00	2024-11-08T03:00:00	7	Dirección del viento	4.83
16787	7	Sololá	710	Panajachel	8	Panajachel	1	Enero	2023-01-30T00:00:00	2024-11-08T03:00:00	1	Precipitación	0
16788	7	Sololá	710	Panajachel	8	Panajachel	1	Enero	2023-01-30T00:00:00	2024-11-08T03:00:00	8	Radiación solar	0
16789	7	Sololá	710	Panajachel	8	Panajachel	1	Enero	2023-01-30T00:00:00	2024-11-08T04:00:00	2	Temperatura media	13.2
16790	7	Sololá	710	Panajachel	8	Panajachel	1	Enero	2023-01-30T00:00:00	2024-11-08T04:00:00	4	Temperatura máxima	13.9
16791	7	Sololá	710	Panajachel	8	Panajachel	1	Enero	2023-01-30T00:00:00	2024-11-08T04:00:00	3	Temperatura mínima	13.2
16792	7	Sololá	710	Panajachel	8	Panajachel	1	Enero	2023-01-30T00:00:00	2024-11-08T04:00:00	5	Humedad	67
16793	7	Sololá	710	Panajachel	8	Panajachel	1	Enero	2023-01-30T00:00:00	2024-11-08T04:00:00	6	Velocidad del viento	3.2
16794	7	Sololá	710	Panajachel	8	Panajachel	1	Enero	2023-01-30T00:00:00	2024-11-08T04:00:00	7	Dirección del viento	3.22
16795	7	Sololá	710	Panajachel	8	Panajachel	1	Enero	2023-01-30T00:00:00	2024-11-08T04:00:00	1	Precipitación	0
16796	7	Sololá	710	Panajachel	8	Panajachel	1	Enero	2023-01-30T00:00:00	2024-11-08T04:00:00	8	Radiación solar	0
16797	7	Sololá	710	Panajachel	8	Panajachel	1	Enero	2023-01-30T00:00:00	2024-11-08T05:00:00	2	Temperatura media	12.8
16798	7	Sololá	710	Panajachel	8	Panajachel	1	Enero	2023-01-30T00:00:00	2024-11-08T05:00:00	4	Temperatura máxima	13.4
16799	7	Sololá	710	Panajachel	8	Panajachel	1	Enero	2023-01-30T00:00:00	2024-11-08T05:00:00	3	Temperatura mínima	12.8
16800	7	Sololá	710	Panajachel	8	Panajachel	1	Enero	2023-01-30T00:00:00	2024-11-08T05:00:00	5	Humedad	66
16801	7	Sololá	710	Panajachel	8	Panajachel	1	Enero	2023-01-30T00:00:00	2024-11-08T05:00:00	6	Velocidad del viento	1.6
16802	7	Sololá	710	Panajachel	8	Panajachel	1	Enero	2023-01-30T00:00:00	2024-11-08T05:00:00	7	Dirección del viento	1.61
16803	7	Sololá	710	Panajachel	8	Panajachel	1	Enero	2023-01-30T00:00:00	2024-11-08T05:00:00	1	Precipitación	0
16804	7	Sololá	710	Panajachel	8	Panajachel	1	Enero	2023-01-30T00:00:00	2024-11-08T05:00:00	8	Radiación solar	0
16805	7	Sololá	710	Panajachel	8	Panajachel	1	Enero	2023-01-30T00:00:00	2024-11-08T06:00:00	2	Temperatura media	12.7
16806	7	Sololá	710	Panajachel	8	Panajachel	1	Enero	2023-01-30T00:00:00	2024-11-08T06:00:00	4	Temperatura máxima	13
16807	7	Sololá	710	Panajachel	8	Panajachel	1	Enero	2023-01-30T00:00:00	2024-11-08T06:00:00	3	Temperatura mínima	12.7
16808	7	Sololá	710	Panajachel	8	Panajachel	1	Enero	2023-01-30T00:00:00	2024-11-08T06:00:00	5	Humedad	65
16809	7	Sololá	710	Panajachel	8	Panajachel	1	Enero	2023-01-30T00:00:00	2024-11-08T06:00:00	6	Velocidad del viento	3.2
16810	7	Sololá	710	Panajachel	8	Panajachel	1	Enero	2023-01-30T00:00:00	2024-11-08T06:00:00	7	Dirección del viento	3.22
16811	7	Sololá	710	Panajachel	8	Panajachel	1	Enero	2023-01-30T00:00:00	2024-11-08T06:00:00	1	Precipitación	0
16812	7	Sololá	710	Panajachel	8	Panajachel	1	Enero	2023-01-30T00:00:00	2024-11-08T06:00:00	8	Radiación solar	0
16813	7	Sololá	710	Panajachel	8	Panajachel	1	Enero	2023-01-30T00:00:00	2024-11-08T07:00:00	2	Temperatura media	13.1
16814	7	Sololá	710	Panajachel	8	Panajachel	1	Enero	2023-01-30T00:00:00	2024-11-08T07:00:00	4	Temperatura máxima	13.1
16815	7	Sololá	710	Panajachel	8	Panajachel	1	Enero	2023-01-30T00:00:00	2024-11-08T07:00:00	3	Temperatura mínima	12.5
16816	7	Sololá	710	Panajachel	8	Panajachel	1	Enero	2023-01-30T00:00:00	2024-11-08T07:00:00	5	Humedad	64
16817	7	Sololá	710	Panajachel	8	Panajachel	1	Enero	2023-01-30T00:00:00	2024-11-08T07:00:00	6	Velocidad del viento	3.2
16818	7	Sololá	710	Panajachel	8	Panajachel	1	Enero	2023-01-30T00:00:00	2024-11-08T07:00:00	7	Dirección del viento	3.22
16819	7	Sololá	710	Panajachel	8	Panajachel	1	Enero	2023-01-30T00:00:00	2024-11-08T07:00:00	1	Precipitación	0
16820	7	Sololá	710	Panajachel	8	Panajachel	1	Enero	2023-01-30T00:00:00	2024-11-08T07:00:00	8	Radiación solar	4
16821	7	Sololá	710	Panajachel	8	Panajachel	1	Enero	2023-01-30T00:00:00	2024-11-08T08:00:00	2	Temperatura media	14.6
16822	7	Sololá	710	Panajachel	8	Panajachel	1	Enero	2023-01-30T00:00:00	2024-11-08T08:00:00	4	Temperatura máxima	14.6
16823	7	Sololá	710	Panajachel	8	Panajachel	1	Enero	2023-01-30T00:00:00	2024-11-08T08:00:00	3	Temperatura mínima	12.8
16824	7	Sololá	710	Panajachel	8	Panajachel	1	Enero	2023-01-30T00:00:00	2024-11-08T08:00:00	5	Humedad	64
16825	7	Sololá	710	Panajachel	8	Panajachel	1	Enero	2023-01-30T00:00:00	2024-11-08T08:00:00	6	Velocidad del viento	3.2
16826	7	Sololá	710	Panajachel	8	Panajachel	1	Enero	2023-01-30T00:00:00	2024-11-08T08:00:00	7	Dirección del viento	3.22
16827	7	Sololá	710	Panajachel	8	Panajachel	1	Enero	2023-01-30T00:00:00	2024-11-08T08:00:00	1	Precipitación	0
16828	7	Sololá	710	Panajachel	8	Panajachel	1	Enero	2023-01-30T00:00:00	2024-11-08T08:00:00	8	Radiación solar	29
16829	7	Sololá	710	Panajachel	8	Panajachel	1	Enero	2023-01-30T00:00:00	2024-11-08T09:00:00	2	Temperatura media	17.7
16830	7	Sololá	710	Panajachel	8	Panajachel	1	Enero	2023-01-30T00:00:00	2024-11-08T09:00:00	4	Temperatura máxima	17.7
16831	7	Sololá	710	Panajachel	8	Panajachel	1	Enero	2023-01-30T00:00:00	2024-11-08T09:00:00	3	Temperatura mínima	14.6
16832	7	Sololá	710	Panajachel	8	Panajachel	1	Enero	2023-01-30T00:00:00	2024-11-08T09:00:00	5	Humedad	66
16833	7	Sololá	710	Panajachel	8	Panajachel	1	Enero	2023-01-30T00:00:00	2024-11-08T09:00:00	6	Velocidad del viento	0
16834	7	Sololá	710	Panajachel	8	Panajachel	1	Enero	2023-01-30T00:00:00	2024-11-08T09:00:00	7	Dirección del viento	0
16835	7	Sololá	710	Panajachel	8	Panajachel	1	Enero	2023-01-30T00:00:00	2024-11-08T09:00:00	1	Precipitación	0
16836	7	Sololá	710	Panajachel	8	Panajachel	1	Enero	2023-01-30T00:00:00	2024-11-08T09:00:00	8	Radiación solar	376
16837	7	Sololá	710	Panajachel	8	Panajachel	1	Enero	2023-01-30T00:00:00	2024-11-08T10:00:00	2	Temperatura media	19.4
16838	7	Sololá	710	Panajachel	8	Panajachel	1	Enero	2023-01-30T00:00:00	2024-11-08T10:00:00	4	Temperatura máxima	19.4
16839	7	Sololá	710	Panajachel	8	Panajachel	1	Enero	2023-01-30T00:00:00	2024-11-08T10:00:00	3	Temperatura mínima	17.7
16840	7	Sololá	710	Panajachel	8	Panajachel	1	Enero	2023-01-30T00:00:00	2024-11-08T10:00:00	5	Humedad	62
16841	7	Sololá	710	Panajachel	8	Panajachel	1	Enero	2023-01-30T00:00:00	2024-11-08T10:00:00	6	Velocidad del viento	3.2
16842	7	Sololá	710	Panajachel	8	Panajachel	1	Enero	2023-01-30T00:00:00	2024-11-08T10:00:00	7	Dirección del viento	3.22
16843	7	Sololá	710	Panajachel	8	Panajachel	1	Enero	2023-01-30T00:00:00	2024-11-08T10:00:00	1	Precipitación	0
16844	7	Sololá	710	Panajachel	8	Panajachel	1	Enero	2023-01-30T00:00:00	2024-11-08T10:00:00	8	Radiación solar	584
16845	7	Sololá	710	Panajachel	8	Panajachel	1	Enero	2023-01-30T00:00:00	2024-11-08T11:00:00	2	Temperatura media	20.6
16846	7	Sololá	710	Panajachel	8	Panajachel	1	Enero	2023-01-30T00:00:00	2024-11-08T11:00:00	4	Temperatura máxima	20.6
16847	7	Sololá	710	Panajachel	8	Panajachel	1	Enero	2023-01-30T00:00:00	2024-11-08T11:00:00	3	Temperatura mínima	19.4
16848	7	Sololá	710	Panajachel	8	Panajachel	1	Enero	2023-01-30T00:00:00	2024-11-08T11:00:00	5	Humedad	60
16849	7	Sololá	710	Panajachel	8	Panajachel	1	Enero	2023-01-30T00:00:00	2024-11-08T11:00:00	6	Velocidad del viento	3.2
16850	7	Sololá	710	Panajachel	8	Panajachel	1	Enero	2023-01-30T00:00:00	2024-11-08T11:00:00	7	Dirección del viento	3.22
16851	7	Sololá	710	Panajachel	8	Panajachel	1	Enero	2023-01-30T00:00:00	2024-11-08T11:00:00	1	Precipitación	0
16852	7	Sololá	710	Panajachel	8	Panajachel	1	Enero	2023-01-30T00:00:00	2024-11-08T11:00:00	8	Radiación solar	735
16853	7	Sololá	710	Panajachel	8	Panajachel	1	Enero	2023-01-30T00:00:00	2024-11-08T12:00:00	2	Temperatura media	22.2
16854	7	Sololá	710	Panajachel	8	Panajachel	1	Enero	2023-01-30T00:00:00	2024-11-08T12:00:00	4	Temperatura máxima	22.3
16855	7	Sololá	710	Panajachel	8	Panajachel	1	Enero	2023-01-30T00:00:00	2024-11-08T12:00:00	3	Temperatura mínima	20.6
16856	7	Sololá	710	Panajachel	8	Panajachel	1	Enero	2023-01-30T00:00:00	2024-11-08T12:00:00	5	Humedad	55
16857	7	Sololá	710	Panajachel	8	Panajachel	1	Enero	2023-01-30T00:00:00	2024-11-08T12:00:00	6	Velocidad del viento	3.2
16858	7	Sololá	710	Panajachel	8	Panajachel	1	Enero	2023-01-30T00:00:00	2024-11-08T12:00:00	7	Dirección del viento	3.22
16859	7	Sololá	710	Panajachel	8	Panajachel	1	Enero	2023-01-30T00:00:00	2024-11-08T12:00:00	1	Precipitación	0
16860	7	Sololá	710	Panajachel	8	Panajachel	1	Enero	2023-01-30T00:00:00	2024-11-08T12:00:00	8	Radiación solar	826
16861	7	Sololá	710	Panajachel	8	Panajachel	1	Enero	2023-01-30T00:00:00	2024-11-08T13:00:00	2	Temperatura media	23.4
16862	7	Sololá	710	Panajachel	8	Panajachel	1	Enero	2023-01-30T00:00:00	2024-11-08T13:00:00	4	Temperatura máxima	23.8
16863	7	Sololá	710	Panajachel	8	Panajachel	1	Enero	2023-01-30T00:00:00	2024-11-08T13:00:00	3	Temperatura mínima	22.1
16864	7	Sololá	710	Panajachel	8	Panajachel	1	Enero	2023-01-30T00:00:00	2024-11-08T13:00:00	5	Humedad	52
16865	7	Sololá	710	Panajachel	8	Panajachel	1	Enero	2023-01-30T00:00:00	2024-11-08T13:00:00	6	Velocidad del viento	3.2
16866	7	Sololá	710	Panajachel	8	Panajachel	1	Enero	2023-01-30T00:00:00	2024-11-08T13:00:00	7	Dirección del viento	3.22
16867	7	Sololá	710	Panajachel	8	Panajachel	1	Enero	2023-01-30T00:00:00	2024-11-08T13:00:00	1	Precipitación	0
16868	7	Sololá	710	Panajachel	8	Panajachel	1	Enero	2023-01-30T00:00:00	2024-11-08T13:00:00	8	Radiación solar	845
16869	7	Sololá	710	Panajachel	8	Panajachel	1	Enero	2023-01-30T00:00:00	2024-11-08T14:00:00	2	Temperatura media	24
16870	7	Sololá	710	Panajachel	8	Panajachel	1	Enero	2023-01-30T00:00:00	2024-11-08T14:00:00	4	Temperatura máxima	24.2
16871	7	Sololá	710	Panajachel	8	Panajachel	1	Enero	2023-01-30T00:00:00	2024-11-08T14:00:00	3	Temperatura mínima	23.3
16872	7	Sololá	710	Panajachel	8	Panajachel	1	Enero	2023-01-30T00:00:00	2024-11-08T14:00:00	5	Humedad	59
16873	7	Sololá	710	Panajachel	8	Panajachel	1	Enero	2023-01-30T00:00:00	2024-11-08T14:00:00	6	Velocidad del viento	3.2
16874	7	Sololá	710	Panajachel	8	Panajachel	1	Enero	2023-01-30T00:00:00	2024-11-08T14:00:00	7	Dirección del viento	3.22
16875	7	Sololá	710	Panajachel	8	Panajachel	1	Enero	2023-01-30T00:00:00	2024-11-08T14:00:00	1	Precipitación	0
16876	7	Sololá	710	Panajachel	8	Panajachel	1	Enero	2023-01-30T00:00:00	2024-11-08T14:00:00	8	Radiación solar	785
16877	7	Sololá	710	Panajachel	8	Panajachel	1	Enero	2023-01-30T00:00:00	2024-11-08T15:00:00	2	Temperatura media	23.8
16878	7	Sololá	710	Panajachel	8	Panajachel	1	Enero	2023-01-30T00:00:00	2024-11-08T15:00:00	4	Temperatura máxima	24.1
16879	7	Sololá	710	Panajachel	8	Panajachel	1	Enero	2023-01-30T00:00:00	2024-11-08T15:00:00	3	Temperatura mínima	23.6
16880	7	Sololá	710	Panajachel	8	Panajachel	1	Enero	2023-01-30T00:00:00	2024-11-08T15:00:00	5	Humedad	62
16881	7	Sololá	710	Panajachel	8	Panajachel	1	Enero	2023-01-30T00:00:00	2024-11-08T15:00:00	6	Velocidad del viento	4.8
16882	7	Sololá	710	Panajachel	8	Panajachel	1	Enero	2023-01-30T00:00:00	2024-11-08T15:00:00	7	Dirección del viento	4.83
16883	7	Sololá	710	Panajachel	8	Panajachel	1	Enero	2023-01-30T00:00:00	2024-11-08T15:00:00	1	Precipitación	0
16884	7	Sololá	710	Panajachel	8	Panajachel	1	Enero	2023-01-30T00:00:00	2024-11-08T15:00:00	8	Radiación solar	662
16885	7	Sololá	710	Panajachel	8	Panajachel	1	Enero	2023-01-30T00:00:00	2024-11-08T16:00:00	2	Temperatura media	22.9
16886	7	Sololá	710	Panajachel	8	Panajachel	1	Enero	2023-01-30T00:00:00	2024-11-08T16:00:00	4	Temperatura máxima	23.9
16887	7	Sololá	710	Panajachel	8	Panajachel	1	Enero	2023-01-30T00:00:00	2024-11-08T16:00:00	3	Temperatura mínima	22.9
16888	7	Sololá	710	Panajachel	8	Panajachel	1	Enero	2023-01-30T00:00:00	2024-11-08T16:00:00	5	Humedad	67
16889	7	Sololá	710	Panajachel	8	Panajachel	1	Enero	2023-01-30T00:00:00	2024-11-08T16:00:00	6	Velocidad del viento	6.4
16890	7	Sololá	710	Panajachel	8	Panajachel	1	Enero	2023-01-30T00:00:00	2024-11-08T16:00:00	7	Dirección del viento	6.44
16891	7	Sololá	710	Panajachel	8	Panajachel	1	Enero	2023-01-30T00:00:00	2024-11-08T16:00:00	1	Precipitación	0
16892	7	Sololá	710	Panajachel	8	Panajachel	1	Enero	2023-01-30T00:00:00	2024-11-08T16:00:00	8	Radiación solar	485
16893	7	Sololá	710	Panajachel	8	Panajachel	1	Enero	2023-01-30T00:00:00	2024-11-08T17:00:00	2	Temperatura media	21.9
16894	7	Sololá	710	Panajachel	8	Panajachel	1	Enero	2023-01-30T00:00:00	2024-11-08T17:00:00	4	Temperatura máxima	22.9
16895	7	Sololá	710	Panajachel	8	Panajachel	1	Enero	2023-01-30T00:00:00	2024-11-08T17:00:00	3	Temperatura mínima	21.9
16896	7	Sololá	710	Panajachel	8	Panajachel	1	Enero	2023-01-30T00:00:00	2024-11-08T17:00:00	5	Humedad	70
16897	7	Sololá	710	Panajachel	8	Panajachel	1	Enero	2023-01-30T00:00:00	2024-11-08T17:00:00	6	Velocidad del viento	6.4
16898	7	Sololá	710	Panajachel	8	Panajachel	1	Enero	2023-01-30T00:00:00	2024-11-08T17:00:00	7	Dirección del viento	6.44
16899	7	Sololá	710	Panajachel	8	Panajachel	1	Enero	2023-01-30T00:00:00	2024-11-08T17:00:00	1	Precipitación	0
16900	7	Sololá	710	Panajachel	8	Panajachel	1	Enero	2023-01-30T00:00:00	2024-11-08T17:00:00	8	Radiación solar	280
16901	7	Sololá	710	Panajachel	8	Panajachel	1	Enero	2023-01-30T00:00:00	2024-11-08T18:00:00	2	Temperatura media	20.9
16902	7	Sololá	710	Panajachel	8	Panajachel	1	Enero	2023-01-30T00:00:00	2024-11-08T18:00:00	4	Temperatura máxima	21.9
16903	7	Sololá	710	Panajachel	8	Panajachel	1	Enero	2023-01-30T00:00:00	2024-11-08T18:00:00	3	Temperatura mínima	20.9
16904	7	Sololá	710	Panajachel	8	Panajachel	1	Enero	2023-01-30T00:00:00	2024-11-08T18:00:00	5	Humedad	71
16905	7	Sololá	710	Panajachel	8	Panajachel	1	Enero	2023-01-30T00:00:00	2024-11-08T18:00:00	6	Velocidad del viento	3.2
16906	7	Sololá	710	Panajachel	8	Panajachel	1	Enero	2023-01-30T00:00:00	2024-11-08T18:00:00	7	Dirección del viento	3.22
16907	7	Sololá	710	Panajachel	8	Panajachel	1	Enero	2023-01-30T00:00:00	2024-11-08T18:00:00	1	Precipitación	0
16908	7	Sololá	710	Panajachel	8	Panajachel	1	Enero	2023-01-30T00:00:00	2024-11-08T18:00:00	8	Radiación solar	63
16909	7	Sololá	710	Panajachel	8	Panajachel	1	Enero	2023-01-30T00:00:00	2024-11-08T19:00:00	2	Temperatura media	18.8
16910	7	Sololá	710	Panajachel	8	Panajachel	1	Enero	2023-01-30T00:00:00	2024-11-08T19:00:00	4	Temperatura máxima	20.9
16911	7	Sololá	710	Panajachel	8	Panajachel	1	Enero	2023-01-30T00:00:00	2024-11-08T19:00:00	3	Temperatura mínima	18.8
16912	7	Sololá	710	Panajachel	8	Panajachel	1	Enero	2023-01-30T00:00:00	2024-11-08T19:00:00	5	Humedad	76
16913	7	Sololá	710	Panajachel	8	Panajachel	1	Enero	2023-01-30T00:00:00	2024-11-08T19:00:00	6	Velocidad del viento	0
16914	7	Sololá	710	Panajachel	8	Panajachel	1	Enero	2023-01-30T00:00:00	2024-11-08T19:00:00	7	Dirección del viento	0
16915	7	Sololá	710	Panajachel	8	Panajachel	1	Enero	2023-01-30T00:00:00	2024-11-08T19:00:00	1	Precipitación	0
16916	7	Sololá	710	Panajachel	8	Panajachel	1	Enero	2023-01-30T00:00:00	2024-11-08T19:00:00	8	Radiación solar	0
16917	7	Sololá	710	Panajachel	8	Panajachel	1	Enero	2023-01-30T00:00:00	2024-11-08T20:00:00	2	Temperatura media	17.1
16918	7	Sololá	710	Panajachel	8	Panajachel	1	Enero	2023-01-30T00:00:00	2024-11-08T20:00:00	4	Temperatura máxima	18.7
16919	7	Sololá	710	Panajachel	8	Panajachel	1	Enero	2023-01-30T00:00:00	2024-11-08T20:00:00	3	Temperatura mínima	17.1
16920	7	Sololá	710	Panajachel	8	Panajachel	1	Enero	2023-01-30T00:00:00	2024-11-08T20:00:00	5	Humedad	77
16921	7	Sololá	710	Panajachel	8	Panajachel	1	Enero	2023-01-30T00:00:00	2024-11-08T20:00:00	6	Velocidad del viento	3.2
16922	7	Sololá	710	Panajachel	8	Panajachel	1	Enero	2023-01-30T00:00:00	2024-11-08T20:00:00	7	Dirección del viento	3.22
16923	7	Sololá	710	Panajachel	8	Panajachel	1	Enero	2023-01-30T00:00:00	2024-11-08T20:00:00	1	Precipitación	0
16924	7	Sololá	710	Panajachel	8	Panajachel	1	Enero	2023-01-30T00:00:00	2024-11-08T20:00:00	8	Radiación solar	0
16925	7	Sololá	710	Panajachel	8	Panajachel	1	Enero	2023-01-30T00:00:00	2024-11-08T21:00:00	2	Temperatura media	16.8
16926	7	Sololá	710	Panajachel	8	Panajachel	1	Enero	2023-01-30T00:00:00	2024-11-08T21:00:00	4	Temperatura máxima	17.1
16927	7	Sololá	710	Panajachel	8	Panajachel	1	Enero	2023-01-30T00:00:00	2024-11-08T21:00:00	3	Temperatura mínima	16.8
16928	7	Sololá	710	Panajachel	8	Panajachel	1	Enero	2023-01-30T00:00:00	2024-11-08T21:00:00	5	Humedad	75
16929	7	Sololá	710	Panajachel	8	Panajachel	1	Enero	2023-01-30T00:00:00	2024-11-08T21:00:00	6	Velocidad del viento	1.6
16930	7	Sololá	710	Panajachel	8	Panajachel	1	Enero	2023-01-30T00:00:00	2024-11-08T21:00:00	7	Dirección del viento	1.61
16931	7	Sololá	710	Panajachel	8	Panajachel	1	Enero	2023-01-30T00:00:00	2024-11-08T21:00:00	1	Precipitación	0
16932	7	Sololá	710	Panajachel	8	Panajachel	1	Enero	2023-01-30T00:00:00	2024-11-08T21:00:00	8	Radiación solar	0
16933	7	Sololá	710	Panajachel	8	Panajachel	1	Enero	2023-01-30T00:00:00	2024-11-08T22:00:00	2	Temperatura media	17.3
16934	7	Sololá	710	Panajachel	8	Panajachel	1	Enero	2023-01-30T00:00:00	2024-11-08T22:00:00	4	Temperatura máxima	17.3
16935	7	Sololá	710	Panajachel	8	Panajachel	1	Enero	2023-01-30T00:00:00	2024-11-08T22:00:00	3	Temperatura mínima	16.4
16936	7	Sololá	710	Panajachel	8	Panajachel	1	Enero	2023-01-30T00:00:00	2024-11-08T22:00:00	5	Humedad	73
16937	7	Sololá	710	Panajachel	8	Panajachel	1	Enero	2023-01-30T00:00:00	2024-11-08T22:00:00	6	Velocidad del viento	1.6
16938	7	Sololá	710	Panajachel	8	Panajachel	1	Enero	2023-01-30T00:00:00	2024-11-08T22:00:00	7	Dirección del viento	1.61
16939	7	Sololá	710	Panajachel	8	Panajachel	1	Enero	2023-01-30T00:00:00	2024-11-08T22:00:00	1	Precipitación	0
16940	7	Sololá	710	Panajachel	8	Panajachel	1	Enero	2023-01-30T00:00:00	2024-11-08T22:00:00	8	Radiación solar	0
16941	7	Sololá	710	Panajachel	8	Panajachel	1	Enero	2023-01-30T00:00:00	2024-11-08T23:00:00	2	Temperatura media	18.3
16942	7	Sololá	710	Panajachel	8	Panajachel	1	Enero	2023-01-30T00:00:00	2024-11-08T23:00:00	4	Temperatura máxima	18.5
16943	7	Sololá	710	Panajachel	8	Panajachel	1	Enero	2023-01-30T00:00:00	2024-11-08T23:00:00	3	Temperatura mínima	17.2
16944	7	Sololá	710	Panajachel	8	Panajachel	1	Enero	2023-01-30T00:00:00	2024-11-08T23:00:00	5	Humedad	67
16945	7	Sololá	710	Panajachel	8	Panajachel	1	Enero	2023-01-30T00:00:00	2024-11-08T23:00:00	6	Velocidad del viento	4.8
16946	7	Sololá	710	Panajachel	8	Panajachel	1	Enero	2023-01-30T00:00:00	2024-11-08T23:00:00	7	Dirección del viento	4.83
16947	7	Sololá	710	Panajachel	8	Panajachel	1	Enero	2023-01-30T00:00:00	2024-11-08T23:00:00	1	Precipitación	0
16948	7	Sololá	710	Panajachel	8	Panajachel	1	Enero	2023-01-30T00:00:00	2024-11-08T23:00:00	8	Radiación solar	0
16949	7	Sololá	710	Panajachel	8	Panajachel	1	Enero	2023-01-31T00:00:00	2024-11-08T00:00:00	2	Temperatura media	17.9
16950	7	Sololá	710	Panajachel	8	Panajachel	1	Enero	2023-01-31T00:00:00	2024-11-08T00:00:00	4	Temperatura máxima	18.3
16951	7	Sololá	710	Panajachel	8	Panajachel	1	Enero	2023-01-31T00:00:00	2024-11-08T00:00:00	3	Temperatura mínima	17.9
16952	7	Sololá	710	Panajachel	8	Panajachel	1	Enero	2023-01-31T00:00:00	2024-11-08T00:00:00	5	Humedad	66
16953	7	Sololá	710	Panajachel	8	Panajachel	1	Enero	2023-01-31T00:00:00	2024-11-08T00:00:00	6	Velocidad del viento	8
16954	7	Sololá	710	Panajachel	8	Panajachel	1	Enero	2023-01-31T00:00:00	2024-11-08T00:00:00	7	Dirección del viento	8.05
16955	7	Sololá	710	Panajachel	8	Panajachel	1	Enero	2023-01-31T00:00:00	2024-11-08T00:00:00	1	Precipitación	0
16956	7	Sololá	710	Panajachel	8	Panajachel	1	Enero	2023-01-31T00:00:00	2024-11-08T00:00:00	8	Radiación solar	0
16957	7	Sololá	710	Panajachel	8	Panajachel	1	Enero	2023-01-31T00:00:00	2024-11-08T01:00:00	2	Temperatura media	17.6
16958	7	Sololá	710	Panajachel	8	Panajachel	1	Enero	2023-01-31T00:00:00	2024-11-08T01:00:00	4	Temperatura máxima	17.9
16959	7	Sololá	710	Panajachel	8	Panajachel	1	Enero	2023-01-31T00:00:00	2024-11-08T01:00:00	3	Temperatura mínima	17.6
16960	7	Sololá	710	Panajachel	8	Panajachel	1	Enero	2023-01-31T00:00:00	2024-11-08T01:00:00	5	Humedad	65
16961	7	Sololá	710	Panajachel	8	Panajachel	1	Enero	2023-01-31T00:00:00	2024-11-08T01:00:00	6	Velocidad del viento	9.7
16962	7	Sololá	710	Panajachel	8	Panajachel	1	Enero	2023-01-31T00:00:00	2024-11-08T01:00:00	7	Dirección del viento	9.66
16963	7	Sololá	710	Panajachel	8	Panajachel	1	Enero	2023-01-31T00:00:00	2024-11-08T01:00:00	1	Precipitación	0
16964	7	Sololá	710	Panajachel	8	Panajachel	1	Enero	2023-01-31T00:00:00	2024-11-08T01:00:00	8	Radiación solar	0
16965	7	Sololá	710	Panajachel	8	Panajachel	1	Enero	2023-01-31T00:00:00	2024-11-08T02:00:00	2	Temperatura media	17.3
16966	7	Sololá	710	Panajachel	8	Panajachel	1	Enero	2023-01-31T00:00:00	2024-11-08T02:00:00	4	Temperatura máxima	17.6
16967	7	Sololá	710	Panajachel	8	Panajachel	1	Enero	2023-01-31T00:00:00	2024-11-08T02:00:00	3	Temperatura mínima	17.3
16968	7	Sololá	710	Panajachel	8	Panajachel	1	Enero	2023-01-31T00:00:00	2024-11-08T02:00:00	5	Humedad	64
16969	7	Sololá	710	Panajachel	8	Panajachel	1	Enero	2023-01-31T00:00:00	2024-11-08T02:00:00	6	Velocidad del viento	9.7
16970	7	Sololá	710	Panajachel	8	Panajachel	1	Enero	2023-01-31T00:00:00	2024-11-08T02:00:00	7	Dirección del viento	9.66
16971	7	Sololá	710	Panajachel	8	Panajachel	1	Enero	2023-01-31T00:00:00	2024-11-08T02:00:00	1	Precipitación	0
16972	7	Sololá	710	Panajachel	8	Panajachel	1	Enero	2023-01-31T00:00:00	2024-11-08T02:00:00	8	Radiación solar	0
16973	7	Sololá	710	Panajachel	8	Panajachel	1	Enero	2023-01-31T00:00:00	2024-11-08T03:00:00	2	Temperatura media	15.6
16974	7	Sololá	710	Panajachel	8	Panajachel	1	Enero	2023-01-31T00:00:00	2024-11-08T03:00:00	4	Temperatura máxima	17.2
16975	7	Sololá	710	Panajachel	8	Panajachel	1	Enero	2023-01-31T00:00:00	2024-11-08T03:00:00	3	Temperatura mínima	15.5
16976	7	Sololá	710	Panajachel	8	Panajachel	1	Enero	2023-01-31T00:00:00	2024-11-08T03:00:00	5	Humedad	70
16977	7	Sololá	710	Panajachel	8	Panajachel	1	Enero	2023-01-31T00:00:00	2024-11-08T03:00:00	6	Velocidad del viento	1.6
16978	7	Sololá	710	Panajachel	8	Panajachel	1	Enero	2023-01-31T00:00:00	2024-11-08T03:00:00	7	Dirección del viento	1.61
16979	7	Sololá	710	Panajachel	8	Panajachel	1	Enero	2023-01-31T00:00:00	2024-11-08T03:00:00	1	Precipitación	0
16980	7	Sololá	710	Panajachel	8	Panajachel	1	Enero	2023-01-31T00:00:00	2024-11-08T03:00:00	8	Radiación solar	0
16981	7	Sololá	710	Panajachel	8	Panajachel	1	Enero	2023-01-31T00:00:00	2024-11-08T04:00:00	2	Temperatura media	14.4
16982	7	Sololá	710	Panajachel	8	Panajachel	1	Enero	2023-01-31T00:00:00	2024-11-08T04:00:00	4	Temperatura máxima	15.5
16983	7	Sololá	710	Panajachel	8	Panajachel	1	Enero	2023-01-31T00:00:00	2024-11-08T04:00:00	3	Temperatura mínima	14.4
16984	7	Sololá	710	Panajachel	8	Panajachel	1	Enero	2023-01-31T00:00:00	2024-11-08T04:00:00	5	Humedad	74
16985	7	Sololá	710	Panajachel	8	Panajachel	1	Enero	2023-01-31T00:00:00	2024-11-08T04:00:00	6	Velocidad del viento	0
16986	7	Sololá	710	Panajachel	8	Panajachel	1	Enero	2023-01-31T00:00:00	2024-11-08T04:00:00	7	Dirección del viento	0
16987	7	Sololá	710	Panajachel	8	Panajachel	1	Enero	2023-01-31T00:00:00	2024-11-08T04:00:00	1	Precipitación	0
16988	7	Sololá	710	Panajachel	8	Panajachel	1	Enero	2023-01-31T00:00:00	2024-11-08T04:00:00	8	Radiación solar	0
16989	7	Sololá	710	Panajachel	8	Panajachel	1	Enero	2023-01-31T00:00:00	2024-11-08T05:00:00	2	Temperatura media	14.2
16990	7	Sololá	710	Panajachel	8	Panajachel	1	Enero	2023-01-31T00:00:00	2024-11-08T05:00:00	4	Temperatura máxima	14.4
16991	7	Sololá	710	Panajachel	8	Panajachel	1	Enero	2023-01-31T00:00:00	2024-11-08T05:00:00	3	Temperatura mínima	13.7
16992	7	Sololá	710	Panajachel	8	Panajachel	1	Enero	2023-01-31T00:00:00	2024-11-08T05:00:00	5	Humedad	75
16993	7	Sololá	710	Panajachel	8	Panajachel	1	Enero	2023-01-31T00:00:00	2024-11-08T05:00:00	6	Velocidad del viento	1.6
16994	7	Sololá	710	Panajachel	8	Panajachel	1	Enero	2023-01-31T00:00:00	2024-11-08T05:00:00	7	Dirección del viento	1.61
16995	7	Sololá	710	Panajachel	8	Panajachel	1	Enero	2023-01-31T00:00:00	2024-11-08T05:00:00	1	Precipitación	0
16996	7	Sololá	710	Panajachel	8	Panajachel	1	Enero	2023-01-31T00:00:00	2024-11-08T05:00:00	8	Radiación solar	0
16997	7	Sololá	710	Panajachel	8	Panajachel	1	Enero	2023-01-31T00:00:00	2024-11-08T06:00:00	2	Temperatura media	14.1
16998	7	Sololá	710	Panajachel	8	Panajachel	1	Enero	2023-01-31T00:00:00	2024-11-08T06:00:00	4	Temperatura máxima	14.7
16999	7	Sololá	710	Panajachel	8	Panajachel	1	Enero	2023-01-31T00:00:00	2024-11-08T06:00:00	3	Temperatura mínima	14.1
17000	7	Sololá	710	Panajachel	8	Panajachel	1	Enero	2023-01-31T00:00:00	2024-11-08T06:00:00	5	Humedad	75
17001	7	Sololá	710	Panajachel	8	Panajachel	1	Enero	2023-01-31T00:00:00	2024-11-08T06:00:00	6	Velocidad del viento	3.2
17002	7	Sololá	710	Panajachel	8	Panajachel	1	Enero	2023-01-31T00:00:00	2024-11-08T06:00:00	7	Dirección del viento	3.22
17003	7	Sololá	710	Panajachel	8	Panajachel	1	Enero	2023-01-31T00:00:00	2024-11-08T06:00:00	1	Precipitación	0
17004	7	Sololá	710	Panajachel	8	Panajachel	1	Enero	2023-01-31T00:00:00	2024-11-08T06:00:00	8	Radiación solar	0
17005	7	Sololá	710	Panajachel	8	Panajachel	1	Enero	2023-01-31T00:00:00	2024-11-08T07:00:00	2	Temperatura media	14.7
17006	7	Sololá	710	Panajachel	8	Panajachel	1	Enero	2023-01-31T00:00:00	2024-11-08T07:00:00	4	Temperatura máxima	14.7
17007	7	Sololá	710	Panajachel	8	Panajachel	1	Enero	2023-01-31T00:00:00	2024-11-08T07:00:00	3	Temperatura mínima	13.2
17008	7	Sololá	710	Panajachel	8	Panajachel	1	Enero	2023-01-31T00:00:00	2024-11-08T07:00:00	5	Humedad	73
17009	7	Sololá	710	Panajachel	8	Panajachel	1	Enero	2023-01-31T00:00:00	2024-11-08T07:00:00	6	Velocidad del viento	4.8
17010	7	Sololá	710	Panajachel	8	Panajachel	1	Enero	2023-01-31T00:00:00	2024-11-08T07:00:00	7	Dirección del viento	4.83
17011	7	Sololá	710	Panajachel	8	Panajachel	1	Enero	2023-01-31T00:00:00	2024-11-08T07:00:00	1	Precipitación	0
17012	7	Sololá	710	Panajachel	8	Panajachel	1	Enero	2023-01-31T00:00:00	2024-11-08T07:00:00	8	Radiación solar	3
17013	7	Sololá	710	Panajachel	8	Panajachel	1	Enero	2023-01-31T00:00:00	2024-11-08T08:00:00	2	Temperatura media	16.3
17014	7	Sololá	710	Panajachel	8	Panajachel	1	Enero	2023-01-31T00:00:00	2024-11-08T08:00:00	4	Temperatura máxima	16.3
17015	7	Sololá	710	Panajachel	8	Panajachel	1	Enero	2023-01-31T00:00:00	2024-11-08T08:00:00	3	Temperatura mínima	14.7
17016	7	Sololá	710	Panajachel	8	Panajachel	1	Enero	2023-01-31T00:00:00	2024-11-08T08:00:00	5	Humedad	69
17017	7	Sololá	710	Panajachel	8	Panajachel	1	Enero	2023-01-31T00:00:00	2024-11-08T08:00:00	6	Velocidad del viento	3.2
17018	7	Sololá	710	Panajachel	8	Panajachel	1	Enero	2023-01-31T00:00:00	2024-11-08T08:00:00	7	Dirección del viento	3.22
17019	7	Sololá	710	Panajachel	8	Panajachel	1	Enero	2023-01-31T00:00:00	2024-11-08T08:00:00	1	Precipitación	0
17020	7	Sololá	710	Panajachel	8	Panajachel	1	Enero	2023-01-31T00:00:00	2024-11-08T08:00:00	8	Radiación solar	30
17021	7	Sololá	710	Panajachel	8	Panajachel	1	Enero	2023-01-31T00:00:00	2024-11-08T09:00:00	2	Temperatura media	19.2
17022	7	Sololá	710	Panajachel	8	Panajachel	1	Enero	2023-01-31T00:00:00	2024-11-08T09:00:00	4	Temperatura máxima	19.2
17023	7	Sololá	710	Panajachel	8	Panajachel	1	Enero	2023-01-31T00:00:00	2024-11-08T09:00:00	3	Temperatura mínima	16.2
17024	7	Sololá	710	Panajachel	8	Panajachel	1	Enero	2023-01-31T00:00:00	2024-11-08T09:00:00	5	Humedad	63
17025	7	Sololá	710	Panajachel	8	Panajachel	1	Enero	2023-01-31T00:00:00	2024-11-08T09:00:00	6	Velocidad del viento	1.6
17026	7	Sololá	710	Panajachel	8	Panajachel	1	Enero	2023-01-31T00:00:00	2024-11-08T09:00:00	7	Dirección del viento	1.61
17027	7	Sololá	710	Panajachel	8	Panajachel	1	Enero	2023-01-31T00:00:00	2024-11-08T09:00:00	1	Precipitación	0
17028	7	Sololá	710	Panajachel	8	Panajachel	1	Enero	2023-01-31T00:00:00	2024-11-08T09:00:00	8	Radiación solar	378
17029	7	Sololá	710	Panajachel	8	Panajachel	1	Enero	2023-01-31T00:00:00	2024-11-08T10:00:00	2	Temperatura media	20.7
17030	7	Sololá	710	Panajachel	8	Panajachel	1	Enero	2023-01-31T00:00:00	2024-11-08T10:00:00	4	Temperatura máxima	20.7
17031	7	Sololá	710	Panajachel	8	Panajachel	1	Enero	2023-01-31T00:00:00	2024-11-08T10:00:00	3	Temperatura mínima	19.2
17032	7	Sololá	710	Panajachel	8	Panajachel	1	Enero	2023-01-31T00:00:00	2024-11-08T10:00:00	5	Humedad	61
17033	7	Sololá	710	Panajachel	8	Panajachel	1	Enero	2023-01-31T00:00:00	2024-11-08T10:00:00	6	Velocidad del viento	3.2
17034	7	Sololá	710	Panajachel	8	Panajachel	1	Enero	2023-01-31T00:00:00	2024-11-08T10:00:00	7	Dirección del viento	3.22
17035	7	Sololá	710	Panajachel	8	Panajachel	1	Enero	2023-01-31T00:00:00	2024-11-08T10:00:00	1	Precipitación	0
17036	7	Sololá	710	Panajachel	8	Panajachel	1	Enero	2023-01-31T00:00:00	2024-11-08T10:00:00	8	Radiación solar	584
17037	7	Sololá	710	Panajachel	8	Panajachel	1	Enero	2023-01-31T00:00:00	2024-11-08T11:00:00	2	Temperatura media	22.3
17038	7	Sololá	710	Panajachel	8	Panajachel	1	Enero	2023-01-31T00:00:00	2024-11-08T11:00:00	4	Temperatura máxima	22.3
17039	7	Sololá	710	Panajachel	8	Panajachel	1	Enero	2023-01-31T00:00:00	2024-11-08T11:00:00	3	Temperatura mínima	20.7
17040	7	Sololá	710	Panajachel	8	Panajachel	1	Enero	2023-01-31T00:00:00	2024-11-08T11:00:00	5	Humedad	58
17041	7	Sololá	710	Panajachel	8	Panajachel	1	Enero	2023-01-31T00:00:00	2024-11-08T11:00:00	6	Velocidad del viento	3.2
17042	7	Sololá	710	Panajachel	8	Panajachel	1	Enero	2023-01-31T00:00:00	2024-11-08T11:00:00	7	Dirección del viento	3.22
17043	7	Sololá	710	Panajachel	8	Panajachel	1	Enero	2023-01-31T00:00:00	2024-11-08T11:00:00	1	Precipitación	0
17044	7	Sololá	710	Panajachel	8	Panajachel	1	Enero	2023-01-31T00:00:00	2024-11-08T11:00:00	8	Radiación solar	740
17045	7	Sololá	710	Panajachel	8	Panajachel	1	Enero	2023-01-31T00:00:00	2024-11-08T12:00:00	2	Temperatura media	23.8
17046	7	Sololá	710	Panajachel	8	Panajachel	1	Enero	2023-01-31T00:00:00	2024-11-08T12:00:00	4	Temperatura máxima	23.8
17047	7	Sololá	710	Panajachel	8	Panajachel	1	Enero	2023-01-31T00:00:00	2024-11-08T12:00:00	3	Temperatura mínima	22.3
17048	7	Sololá	710	Panajachel	8	Panajachel	1	Enero	2023-01-31T00:00:00	2024-11-08T12:00:00	5	Humedad	56
17049	7	Sololá	710	Panajachel	8	Panajachel	1	Enero	2023-01-31T00:00:00	2024-11-08T12:00:00	6	Velocidad del viento	4.8
17050	7	Sololá	710	Panajachel	8	Panajachel	1	Enero	2023-01-31T00:00:00	2024-11-08T12:00:00	7	Dirección del viento	4.83
17051	7	Sololá	710	Panajachel	8	Panajachel	1	Enero	2023-01-31T00:00:00	2024-11-08T12:00:00	1	Precipitación	0
17052	7	Sololá	710	Panajachel	8	Panajachel	1	Enero	2023-01-31T00:00:00	2024-11-08T12:00:00	8	Radiación solar	842
17053	7	Sololá	710	Panajachel	8	Panajachel	1	Enero	2023-01-31T00:00:00	2024-11-08T13:00:00	2	Temperatura media	25.1
17054	7	Sololá	710	Panajachel	8	Panajachel	1	Enero	2023-01-31T00:00:00	2024-11-08T13:00:00	4	Temperatura máxima	25.1
17055	7	Sololá	710	Panajachel	8	Panajachel	1	Enero	2023-01-31T00:00:00	2024-11-08T13:00:00	3	Temperatura mínima	23.7
17056	7	Sololá	710	Panajachel	8	Panajachel	1	Enero	2023-01-31T00:00:00	2024-11-08T13:00:00	5	Humedad	52
17057	7	Sololá	710	Panajachel	8	Panajachel	1	Enero	2023-01-31T00:00:00	2024-11-08T13:00:00	6	Velocidad del viento	6.4
17058	7	Sololá	710	Panajachel	8	Panajachel	1	Enero	2023-01-31T00:00:00	2024-11-08T13:00:00	7	Dirección del viento	6.44
17059	7	Sololá	710	Panajachel	8	Panajachel	1	Enero	2023-01-31T00:00:00	2024-11-08T13:00:00	1	Precipitación	0
17060	7	Sololá	710	Panajachel	8	Panajachel	1	Enero	2023-01-31T00:00:00	2024-11-08T13:00:00	8	Radiación solar	869
17061	7	Sololá	710	Panajachel	8	Panajachel	1	Enero	2023-01-31T00:00:00	2024-11-08T14:00:00	2	Temperatura media	24.7
17062	7	Sololá	710	Panajachel	8	Panajachel	1	Enero	2023-01-31T00:00:00	2024-11-08T14:00:00	4	Temperatura máxima	25.8
17063	7	Sololá	710	Panajachel	8	Panajachel	1	Enero	2023-01-31T00:00:00	2024-11-08T14:00:00	3	Temperatura mínima	24.3
17064	7	Sololá	710	Panajachel	8	Panajachel	1	Enero	2023-01-31T00:00:00	2024-11-08T14:00:00	5	Humedad	59
17065	7	Sololá	710	Panajachel	8	Panajachel	1	Enero	2023-01-31T00:00:00	2024-11-08T14:00:00	6	Velocidad del viento	6.4
17066	7	Sololá	710	Panajachel	8	Panajachel	1	Enero	2023-01-31T00:00:00	2024-11-08T14:00:00	7	Dirección del viento	6.44
17067	7	Sololá	710	Panajachel	8	Panajachel	1	Enero	2023-01-31T00:00:00	2024-11-08T14:00:00	1	Precipitación	0
17068	7	Sololá	710	Panajachel	8	Panajachel	1	Enero	2023-01-31T00:00:00	2024-11-08T14:00:00	8	Radiación solar	812
17069	7	Sololá	710	Panajachel	8	Panajachel	1	Enero	2023-01-31T00:00:00	2024-11-08T15:00:00	2	Temperatura media	25.3
17070	7	Sololá	710	Panajachel	8	Panajachel	1	Enero	2023-01-31T00:00:00	2024-11-08T15:00:00	4	Temperatura máxima	25.3
17071	7	Sololá	710	Panajachel	8	Panajachel	1	Enero	2023-01-31T00:00:00	2024-11-08T15:00:00	3	Temperatura mínima	24.4
17072	7	Sololá	710	Panajachel	8	Panajachel	1	Enero	2023-01-31T00:00:00	2024-11-08T15:00:00	5	Humedad	65
17073	7	Sololá	710	Panajachel	8	Panajachel	1	Enero	2023-01-31T00:00:00	2024-11-08T15:00:00	6	Velocidad del viento	4.8
17074	7	Sololá	710	Panajachel	8	Panajachel	1	Enero	2023-01-31T00:00:00	2024-11-08T15:00:00	7	Dirección del viento	4.83
17075	7	Sololá	710	Panajachel	8	Panajachel	1	Enero	2023-01-31T00:00:00	2024-11-08T15:00:00	1	Precipitación	0
17076	7	Sololá	710	Panajachel	8	Panajachel	1	Enero	2023-01-31T00:00:00	2024-11-08T15:00:00	8	Radiación solar	676
17077	7	Sololá	710	Panajachel	8	Panajachel	1	Enero	2023-01-31T00:00:00	2024-11-08T16:00:00	2	Temperatura media	23.4
17078	7	Sololá	710	Panajachel	8	Panajachel	1	Enero	2023-01-31T00:00:00	2024-11-08T16:00:00	4	Temperatura máxima	25.4
17079	7	Sololá	710	Panajachel	8	Panajachel	1	Enero	2023-01-31T00:00:00	2024-11-08T16:00:00	3	Temperatura mínima	23.4
17080	7	Sololá	710	Panajachel	8	Panajachel	1	Enero	2023-01-31T00:00:00	2024-11-08T16:00:00	5	Humedad	71
17081	7	Sololá	710	Panajachel	8	Panajachel	1	Enero	2023-01-31T00:00:00	2024-11-08T16:00:00	6	Velocidad del viento	3.2
17082	7	Sololá	710	Panajachel	8	Panajachel	1	Enero	2023-01-31T00:00:00	2024-11-08T16:00:00	7	Dirección del viento	3.22
17083	7	Sololá	710	Panajachel	8	Panajachel	1	Enero	2023-01-31T00:00:00	2024-11-08T16:00:00	1	Precipitación	0
17084	7	Sololá	710	Panajachel	8	Panajachel	1	Enero	2023-01-31T00:00:00	2024-11-08T16:00:00	8	Radiación solar	491
17085	7	Sololá	710	Panajachel	8	Panajachel	1	Enero	2023-01-31T00:00:00	2024-11-08T17:00:00	2	Temperatura media	22.7
17086	7	Sololá	710	Panajachel	8	Panajachel	1	Enero	2023-01-31T00:00:00	2024-11-08T17:00:00	4	Temperatura máxima	23.4
17087	7	Sololá	710	Panajachel	8	Panajachel	1	Enero	2023-01-31T00:00:00	2024-11-08T17:00:00	3	Temperatura mínima	22.7
17088	7	Sololá	710	Panajachel	8	Panajachel	1	Enero	2023-01-31T00:00:00	2024-11-08T17:00:00	5	Humedad	71
17089	7	Sololá	710	Panajachel	8	Panajachel	1	Enero	2023-01-31T00:00:00	2024-11-08T17:00:00	6	Velocidad del viento	4.8
17090	7	Sololá	710	Panajachel	8	Panajachel	1	Enero	2023-01-31T00:00:00	2024-11-08T17:00:00	7	Dirección del viento	4.83
17091	7	Sololá	710	Panajachel	8	Panajachel	1	Enero	2023-01-31T00:00:00	2024-11-08T17:00:00	1	Precipitación	0
17092	7	Sololá	710	Panajachel	8	Panajachel	1	Enero	2023-01-31T00:00:00	2024-11-08T17:00:00	8	Radiación solar	279
17093	7	Sololá	710	Panajachel	8	Panajachel	1	Enero	2023-01-31T00:00:00	2024-11-08T18:00:00	2	Temperatura media	21.9
17094	7	Sololá	710	Panajachel	8	Panajachel	1	Enero	2023-01-31T00:00:00	2024-11-08T18:00:00	4	Temperatura máxima	22.7
17095	7	Sololá	710	Panajachel	8	Panajachel	1	Enero	2023-01-31T00:00:00	2024-11-08T18:00:00	3	Temperatura mínima	21.9
17096	7	Sololá	710	Panajachel	8	Panajachel	1	Enero	2023-01-31T00:00:00	2024-11-08T18:00:00	5	Humedad	76
17097	7	Sololá	710	Panajachel	8	Panajachel	1	Enero	2023-01-31T00:00:00	2024-11-08T18:00:00	6	Velocidad del viento	1.6
17098	7	Sololá	710	Panajachel	8	Panajachel	1	Enero	2023-01-31T00:00:00	2024-11-08T18:00:00	7	Dirección del viento	1.61
17099	7	Sololá	710	Panajachel	8	Panajachel	1	Enero	2023-01-31T00:00:00	2024-11-08T18:00:00	1	Precipitación	0
17100	7	Sololá	710	Panajachel	8	Panajachel	1	Enero	2023-01-31T00:00:00	2024-11-08T18:00:00	8	Radiación solar	66
17101	7	Sololá	710	Panajachel	8	Panajachel	1	Enero	2023-01-31T00:00:00	2024-11-08T19:00:00	2	Temperatura media	19.1
17102	7	Sololá	710	Panajachel	8	Panajachel	1	Enero	2023-01-31T00:00:00	2024-11-08T19:00:00	4	Temperatura máxima	21.9
17103	7	Sololá	710	Panajachel	8	Panajachel	1	Enero	2023-01-31T00:00:00	2024-11-08T19:00:00	3	Temperatura mínima	19.1
17104	7	Sololá	710	Panajachel	8	Panajachel	1	Enero	2023-01-31T00:00:00	2024-11-08T19:00:00	5	Humedad	60
17105	7	Sololá	710	Panajachel	8	Panajachel	1	Enero	2023-01-31T00:00:00	2024-11-08T19:00:00	6	Velocidad del viento	1.6
17106	7	Sololá	710	Panajachel	8	Panajachel	1	Enero	2023-01-31T00:00:00	2024-11-08T19:00:00	7	Dirección del viento	1.61
17107	7	Sololá	710	Panajachel	8	Panajachel	1	Enero	2023-01-31T00:00:00	2024-11-08T19:00:00	1	Precipitación	0
17108	7	Sololá	710	Panajachel	8	Panajachel	1	Enero	2023-01-31T00:00:00	2024-11-08T19:00:00	8	Radiación solar	0
17109	7	Sololá	710	Panajachel	8	Panajachel	1	Enero	2023-01-31T00:00:00	2024-11-08T20:00:00	2	Temperatura media	18.1
17110	7	Sololá	710	Panajachel	8	Panajachel	1	Enero	2023-01-31T00:00:00	2024-11-08T20:00:00	4	Temperatura máxima	19.1
17111	7	Sololá	710	Panajachel	8	Panajachel	1	Enero	2023-01-31T00:00:00	2024-11-08T20:00:00	3	Temperatura mínima	17.9
17112	7	Sololá	710	Panajachel	8	Panajachel	1	Enero	2023-01-31T00:00:00	2024-11-08T20:00:00	5	Humedad	64
17113	7	Sololá	710	Panajachel	8	Panajachel	1	Enero	2023-01-31T00:00:00	2024-11-08T20:00:00	6	Velocidad del viento	3.2
17114	7	Sololá	710	Panajachel	8	Panajachel	1	Enero	2023-01-31T00:00:00	2024-11-08T20:00:00	7	Dirección del viento	3.22
17115	7	Sololá	710	Panajachel	8	Panajachel	1	Enero	2023-01-31T00:00:00	2024-11-08T20:00:00	1	Precipitación	0
17116	7	Sololá	710	Panajachel	8	Panajachel	1	Enero	2023-01-31T00:00:00	2024-11-08T20:00:00	8	Radiación solar	0
17117	7	Sololá	710	Panajachel	8	Panajachel	1	Enero	2023-01-31T00:00:00	2024-11-08T21:00:00	2	Temperatura media	18
17118	7	Sololá	710	Panajachel	8	Panajachel	1	Enero	2023-01-31T00:00:00	2024-11-08T21:00:00	4	Temperatura máxima	18.2
17119	7	Sololá	710	Panajachel	8	Panajachel	1	Enero	2023-01-31T00:00:00	2024-11-08T21:00:00	3	Temperatura mínima	17.7
17120	7	Sololá	710	Panajachel	8	Panajachel	1	Enero	2023-01-31T00:00:00	2024-11-08T21:00:00	5	Humedad	69
17121	7	Sololá	710	Panajachel	8	Panajachel	1	Enero	2023-01-31T00:00:00	2024-11-08T21:00:00	6	Velocidad del viento	3.2
17122	7	Sololá	710	Panajachel	8	Panajachel	1	Enero	2023-01-31T00:00:00	2024-11-08T21:00:00	7	Dirección del viento	3.22
17123	7	Sololá	710	Panajachel	8	Panajachel	1	Enero	2023-01-31T00:00:00	2024-11-08T21:00:00	1	Precipitación	0
17124	7	Sololá	710	Panajachel	8	Panajachel	1	Enero	2023-01-31T00:00:00	2024-11-08T21:00:00	8	Radiación solar	0
17125	7	Sololá	710	Panajachel	8	Panajachel	1	Enero	2023-01-31T00:00:00	2024-11-08T22:00:00	2	Temperatura media	19.1
17126	7	Sololá	710	Panajachel	8	Panajachel	1	Enero	2023-01-31T00:00:00	2024-11-08T22:00:00	4	Temperatura máxima	19.2
17127	7	Sololá	710	Panajachel	8	Panajachel	1	Enero	2023-01-31T00:00:00	2024-11-08T22:00:00	3	Temperatura mínima	18
17128	7	Sololá	710	Panajachel	8	Panajachel	1	Enero	2023-01-31T00:00:00	2024-11-08T22:00:00	5	Humedad	66
17129	7	Sololá	710	Panajachel	8	Panajachel	1	Enero	2023-01-31T00:00:00	2024-11-08T22:00:00	6	Velocidad del viento	1.6
17130	7	Sololá	710	Panajachel	8	Panajachel	1	Enero	2023-01-31T00:00:00	2024-11-08T22:00:00	7	Dirección del viento	1.61
17131	7	Sololá	710	Panajachel	8	Panajachel	1	Enero	2023-01-31T00:00:00	2024-11-08T22:00:00	1	Precipitación	0
17132	7	Sololá	710	Panajachel	8	Panajachel	1	Enero	2023-01-31T00:00:00	2024-11-08T22:00:00	8	Radiación solar	0
17133	7	Sololá	710	Panajachel	8	Panajachel	1	Enero	2023-01-31T00:00:00	2024-11-08T23:00:00	2	Temperatura media	18.1
17134	7	Sololá	710	Panajachel	8	Panajachel	1	Enero	2023-01-31T00:00:00	2024-11-08T23:00:00	4	Temperatura máxima	19.1
17135	7	Sololá	710	Panajachel	8	Panajachel	1	Enero	2023-01-31T00:00:00	2024-11-08T23:00:00	3	Temperatura mínima	18.1
17136	7	Sololá	710	Panajachel	8	Panajachel	1	Enero	2023-01-31T00:00:00	2024-11-08T23:00:00	5	Humedad	67
17137	7	Sololá	710	Panajachel	8	Panajachel	1	Enero	2023-01-31T00:00:00	2024-11-08T23:00:00	6	Velocidad del viento	1.6
17138	7	Sololá	710	Panajachel	8	Panajachel	1	Enero	2023-01-31T00:00:00	2024-11-08T23:00:00	7	Dirección del viento	1.61
17139	7	Sololá	710	Panajachel	8	Panajachel	1	Enero	2023-01-31T00:00:00	2024-11-08T23:00:00	1	Precipitación	0
17140	7	Sololá	710	Panajachel	8	Panajachel	1	Enero	2023-01-31T00:00:00	2024-11-08T23:00:00	8	Radiación solar	0
17141	7	Sololá	710	Panajachel	8	Panajachel	2	Febrero	2023-01-02T00:00:00	2024-11-08T00:00:00	2	Temperatura media	18.7
17142	7	Sololá	710	Panajachel	8	Panajachel	2	Febrero	2023-01-02T00:00:00	2024-11-08T00:00:00	4	Temperatura máxima	18.8
17143	7	Sololá	710	Panajachel	8	Panajachel	2	Febrero	2023-01-02T00:00:00	2024-11-08T00:00:00	3	Temperatura mínima	17.9
17144	7	Sololá	710	Panajachel	8	Panajachel	2	Febrero	2023-01-02T00:00:00	2024-11-08T00:00:00	5	Humedad	61
17145	7	Sololá	710	Panajachel	8	Panajachel	2	Febrero	2023-01-02T00:00:00	2024-11-08T00:00:00	6	Velocidad del viento	3.2
17146	7	Sololá	710	Panajachel	8	Panajachel	2	Febrero	2023-01-02T00:00:00	2024-11-08T00:00:00	7	Dirección del viento	3.22
17147	7	Sololá	710	Panajachel	8	Panajachel	2	Febrero	2023-01-02T00:00:00	2024-11-08T00:00:00	1	Precipitación	0
17148	7	Sololá	710	Panajachel	8	Panajachel	2	Febrero	2023-01-02T00:00:00	2024-11-08T00:00:00	8	Radiación solar	0
17149	7	Sololá	710	Panajachel	8	Panajachel	2	Febrero	2023-01-02T00:00:00	2024-11-08T01:00:00	2	Temperatura media	17.4
17150	7	Sololá	710	Panajachel	8	Panajachel	2	Febrero	2023-01-02T00:00:00	2024-11-08T01:00:00	4	Temperatura máxima	18.7
17151	7	Sololá	710	Panajachel	8	Panajachel	2	Febrero	2023-01-02T00:00:00	2024-11-08T01:00:00	3	Temperatura mínima	17.2
17152	7	Sololá	710	Panajachel	8	Panajachel	2	Febrero	2023-01-02T00:00:00	2024-11-08T01:00:00	5	Humedad	67
17153	7	Sololá	710	Panajachel	8	Panajachel	2	Febrero	2023-01-02T00:00:00	2024-11-08T01:00:00	6	Velocidad del viento	1.6
17154	7	Sololá	710	Panajachel	8	Panajachel	2	Febrero	2023-01-02T00:00:00	2024-11-08T01:00:00	7	Dirección del viento	1.61
17155	7	Sololá	710	Panajachel	8	Panajachel	2	Febrero	2023-01-02T00:00:00	2024-11-08T01:00:00	1	Precipitación	0
17156	7	Sololá	710	Panajachel	8	Panajachel	2	Febrero	2023-01-02T00:00:00	2024-11-08T01:00:00	8	Radiación solar	0
17157	7	Sololá	710	Panajachel	8	Panajachel	2	Febrero	2023-01-02T00:00:00	2024-11-08T02:00:00	2	Temperatura media	17.4
17158	7	Sololá	710	Panajachel	8	Panajachel	2	Febrero	2023-01-02T00:00:00	2024-11-08T02:00:00	4	Temperatura máxima	17.6
17159	7	Sololá	710	Panajachel	8	Panajachel	2	Febrero	2023-01-02T00:00:00	2024-11-08T02:00:00	3	Temperatura mínima	17.1
17160	7	Sololá	710	Panajachel	8	Panajachel	2	Febrero	2023-01-02T00:00:00	2024-11-08T02:00:00	5	Humedad	66
17161	7	Sololá	710	Panajachel	8	Panajachel	2	Febrero	2023-01-02T00:00:00	2024-11-08T02:00:00	6	Velocidad del viento	4.8
17162	7	Sololá	710	Panajachel	8	Panajachel	2	Febrero	2023-01-02T00:00:00	2024-11-08T02:00:00	7	Dirección del viento	4.83
17163	7	Sololá	710	Panajachel	8	Panajachel	2	Febrero	2023-01-02T00:00:00	2024-11-08T02:00:00	1	Precipitación	0
17164	7	Sololá	710	Panajachel	8	Panajachel	2	Febrero	2023-01-02T00:00:00	2024-11-08T02:00:00	8	Radiación solar	0
17165	7	Sololá	710	Panajachel	8	Panajachel	2	Febrero	2023-01-02T00:00:00	2024-11-08T03:00:00	2	Temperatura media	16.6
17166	7	Sololá	710	Panajachel	8	Panajachel	2	Febrero	2023-01-02T00:00:00	2024-11-08T03:00:00	4	Temperatura máxima	17.4
17167	7	Sololá	710	Panajachel	8	Panajachel	2	Febrero	2023-01-02T00:00:00	2024-11-08T03:00:00	3	Temperatura mínima	16.5
17168	7	Sololá	710	Panajachel	8	Panajachel	2	Febrero	2023-01-02T00:00:00	2024-11-08T03:00:00	5	Humedad	70
17169	7	Sololá	710	Panajachel	8	Panajachel	2	Febrero	2023-01-02T00:00:00	2024-11-08T03:00:00	6	Velocidad del viento	3.2
17170	7	Sololá	710	Panajachel	8	Panajachel	2	Febrero	2023-01-02T00:00:00	2024-11-08T03:00:00	7	Dirección del viento	3.22
17171	7	Sololá	710	Panajachel	8	Panajachel	2	Febrero	2023-01-02T00:00:00	2024-11-08T03:00:00	1	Precipitación	0
17172	7	Sololá	710	Panajachel	8	Panajachel	2	Febrero	2023-01-02T00:00:00	2024-11-08T03:00:00	8	Radiación solar	0
17173	7	Sololá	710	Panajachel	8	Panajachel	2	Febrero	2023-01-02T00:00:00	2024-11-08T04:00:00	2	Temperatura media	16.2
17174	7	Sololá	710	Panajachel	8	Panajachel	2	Febrero	2023-01-02T00:00:00	2024-11-08T04:00:00	4	Temperatura máxima	17.2
17175	7	Sololá	710	Panajachel	8	Panajachel	2	Febrero	2023-01-02T00:00:00	2024-11-08T04:00:00	3	Temperatura mínima	16.2
17176	7	Sololá	710	Panajachel	8	Panajachel	2	Febrero	2023-01-02T00:00:00	2024-11-08T04:00:00	5	Humedad	70
17177	7	Sololá	710	Panajachel	8	Panajachel	2	Febrero	2023-01-02T00:00:00	2024-11-08T04:00:00	6	Velocidad del viento	1.6
17178	7	Sololá	710	Panajachel	8	Panajachel	2	Febrero	2023-01-02T00:00:00	2024-11-08T04:00:00	7	Dirección del viento	1.61
17179	7	Sololá	710	Panajachel	8	Panajachel	2	Febrero	2023-01-02T00:00:00	2024-11-08T04:00:00	1	Precipitación	0
17180	7	Sololá	710	Panajachel	8	Panajachel	2	Febrero	2023-01-02T00:00:00	2024-11-08T04:00:00	8	Radiación solar	0
17181	7	Sololá	710	Panajachel	8	Panajachel	2	Febrero	2023-01-02T00:00:00	2024-11-08T05:00:00	2	Temperatura media	15.3
17182	7	Sololá	710	Panajachel	8	Panajachel	2	Febrero	2023-01-02T00:00:00	2024-11-08T05:00:00	4	Temperatura máxima	16.3
17183	7	Sololá	710	Panajachel	8	Panajachel	2	Febrero	2023-01-02T00:00:00	2024-11-08T05:00:00	3	Temperatura mínima	15.3
17184	7	Sololá	710	Panajachel	8	Panajachel	2	Febrero	2023-01-02T00:00:00	2024-11-08T05:00:00	5	Humedad	73
17185	7	Sololá	710	Panajachel	8	Panajachel	2	Febrero	2023-01-02T00:00:00	2024-11-08T05:00:00	6	Velocidad del viento	1.6
17186	7	Sololá	710	Panajachel	8	Panajachel	2	Febrero	2023-01-02T00:00:00	2024-11-08T05:00:00	7	Dirección del viento	1.61
17187	7	Sololá	710	Panajachel	8	Panajachel	2	Febrero	2023-01-02T00:00:00	2024-11-08T05:00:00	1	Precipitación	0
17188	7	Sololá	710	Panajachel	8	Panajachel	2	Febrero	2023-01-02T00:00:00	2024-11-08T05:00:00	8	Radiación solar	0
17189	7	Sololá	710	Panajachel	8	Panajachel	2	Febrero	2023-01-02T00:00:00	2024-11-08T06:00:00	2	Temperatura media	14.8
17190	7	Sololá	710	Panajachel	8	Panajachel	2	Febrero	2023-01-02T00:00:00	2024-11-08T06:00:00	4	Temperatura máxima	15.3
17191	7	Sololá	710	Panajachel	8	Panajachel	2	Febrero	2023-01-02T00:00:00	2024-11-08T06:00:00	3	Temperatura mínima	14.3
17192	7	Sololá	710	Panajachel	8	Panajachel	2	Febrero	2023-01-02T00:00:00	2024-11-08T06:00:00	5	Humedad	76
17193	7	Sololá	710	Panajachel	8	Panajachel	2	Febrero	2023-01-02T00:00:00	2024-11-08T06:00:00	6	Velocidad del viento	0
17194	7	Sololá	710	Panajachel	8	Panajachel	2	Febrero	2023-01-02T00:00:00	2024-11-08T06:00:00	7	Dirección del viento	0
17195	7	Sololá	710	Panajachel	8	Panajachel	2	Febrero	2023-01-02T00:00:00	2024-11-08T06:00:00	1	Precipitación	0
17196	7	Sololá	710	Panajachel	8	Panajachel	2	Febrero	2023-01-02T00:00:00	2024-11-08T06:00:00	8	Radiación solar	0
17197	7	Sololá	710	Panajachel	8	Panajachel	2	Febrero	2023-01-02T00:00:00	2024-11-08T07:00:00	2	Temperatura media	14.5
17198	7	Sololá	710	Panajachel	8	Panajachel	2	Febrero	2023-01-02T00:00:00	2024-11-08T07:00:00	4	Temperatura máxima	15.1
17199	7	Sololá	710	Panajachel	8	Panajachel	2	Febrero	2023-01-02T00:00:00	2024-11-08T07:00:00	3	Temperatura mínima	14.5
17200	7	Sololá	710	Panajachel	8	Panajachel	2	Febrero	2023-01-02T00:00:00	2024-11-08T07:00:00	5	Humedad	76
17201	7	Sololá	710	Panajachel	8	Panajachel	2	Febrero	2023-01-02T00:00:00	2024-11-08T07:00:00	6	Velocidad del viento	0
17202	7	Sololá	710	Panajachel	8	Panajachel	2	Febrero	2023-01-02T00:00:00	2024-11-08T07:00:00	7	Dirección del viento	0
17203	7	Sololá	710	Panajachel	8	Panajachel	2	Febrero	2023-01-02T00:00:00	2024-11-08T07:00:00	1	Precipitación	0
17204	7	Sololá	710	Panajachel	8	Panajachel	2	Febrero	2023-01-02T00:00:00	2024-11-08T07:00:00	8	Radiación solar	3
17205	7	Sololá	710	Panajachel	8	Panajachel	2	Febrero	2023-01-02T00:00:00	2024-11-08T08:00:00	2	Temperatura media	16.3
17206	7	Sololá	710	Panajachel	8	Panajachel	2	Febrero	2023-01-02T00:00:00	2024-11-08T08:00:00	4	Temperatura máxima	16.3
17207	7	Sololá	710	Panajachel	8	Panajachel	2	Febrero	2023-01-02T00:00:00	2024-11-08T08:00:00	3	Temperatura mínima	14.4
17208	7	Sololá	710	Panajachel	8	Panajachel	2	Febrero	2023-01-02T00:00:00	2024-11-08T08:00:00	5	Humedad	72
17209	7	Sololá	710	Panajachel	8	Panajachel	2	Febrero	2023-01-02T00:00:00	2024-11-08T08:00:00	6	Velocidad del viento	0
17210	7	Sololá	710	Panajachel	8	Panajachel	2	Febrero	2023-01-02T00:00:00	2024-11-08T08:00:00	7	Dirección del viento	0
17211	7	Sololá	710	Panajachel	8	Panajachel	2	Febrero	2023-01-02T00:00:00	2024-11-08T08:00:00	1	Precipitación	0
17212	7	Sololá	710	Panajachel	8	Panajachel	2	Febrero	2023-01-02T00:00:00	2024-11-08T08:00:00	8	Radiación solar	32
17213	7	Sololá	710	Panajachel	8	Panajachel	2	Febrero	2023-01-02T00:00:00	2024-11-08T09:00:00	2	Temperatura media	19.6
17214	7	Sololá	710	Panajachel	8	Panajachel	2	Febrero	2023-01-02T00:00:00	2024-11-08T09:00:00	4	Temperatura máxima	19.6
17215	7	Sololá	710	Panajachel	8	Panajachel	2	Febrero	2023-01-02T00:00:00	2024-11-08T09:00:00	3	Temperatura mínima	16.3
17216	7	Sololá	710	Panajachel	8	Panajachel	2	Febrero	2023-01-02T00:00:00	2024-11-08T09:00:00	5	Humedad	69
17217	7	Sololá	710	Panajachel	8	Panajachel	2	Febrero	2023-01-02T00:00:00	2024-11-08T09:00:00	6	Velocidad del viento	1.6
17218	7	Sololá	710	Panajachel	8	Panajachel	2	Febrero	2023-01-02T00:00:00	2024-11-08T09:00:00	7	Dirección del viento	1.61
17219	7	Sololá	710	Panajachel	8	Panajachel	2	Febrero	2023-01-02T00:00:00	2024-11-08T09:00:00	1	Precipitación	0
17220	7	Sololá	710	Panajachel	8	Panajachel	2	Febrero	2023-01-02T00:00:00	2024-11-08T09:00:00	8	Radiación solar	382
17221	7	Sololá	710	Panajachel	8	Panajachel	2	Febrero	2023-01-02T00:00:00	2024-11-08T10:00:00	2	Temperatura media	20.5
17222	7	Sololá	710	Panajachel	8	Panajachel	2	Febrero	2023-01-02T00:00:00	2024-11-08T10:00:00	4	Temperatura máxima	20.7
17223	7	Sololá	710	Panajachel	8	Panajachel	2	Febrero	2023-01-02T00:00:00	2024-11-08T10:00:00	3	Temperatura mínima	19.6
17224	7	Sololá	710	Panajachel	8	Panajachel	2	Febrero	2023-01-02T00:00:00	2024-11-08T10:00:00	5	Humedad	65
17225	7	Sololá	710	Panajachel	8	Panajachel	2	Febrero	2023-01-02T00:00:00	2024-11-08T10:00:00	6	Velocidad del viento	4.8
17226	7	Sololá	710	Panajachel	8	Panajachel	2	Febrero	2023-01-02T00:00:00	2024-11-08T10:00:00	7	Dirección del viento	4.83
17227	7	Sololá	710	Panajachel	8	Panajachel	2	Febrero	2023-01-02T00:00:00	2024-11-08T10:00:00	1	Precipitación	0
17228	7	Sololá	710	Panajachel	8	Panajachel	2	Febrero	2023-01-02T00:00:00	2024-11-08T10:00:00	8	Radiación solar	582
17229	7	Sololá	710	Panajachel	8	Panajachel	2	Febrero	2023-01-02T00:00:00	2024-11-08T11:00:00	2	Temperatura media	22.6
17230	7	Sololá	710	Panajachel	8	Panajachel	2	Febrero	2023-01-02T00:00:00	2024-11-08T11:00:00	4	Temperatura máxima	22.6
17231	7	Sololá	710	Panajachel	8	Panajachel	2	Febrero	2023-01-02T00:00:00	2024-11-08T11:00:00	3	Temperatura mínima	20.4
17232	7	Sololá	710	Panajachel	8	Panajachel	2	Febrero	2023-01-02T00:00:00	2024-11-08T11:00:00	5	Humedad	60
17233	7	Sololá	710	Panajachel	8	Panajachel	2	Febrero	2023-01-02T00:00:00	2024-11-08T11:00:00	6	Velocidad del viento	3.2
17234	7	Sololá	710	Panajachel	8	Panajachel	2	Febrero	2023-01-02T00:00:00	2024-11-08T11:00:00	7	Dirección del viento	3.22
17235	7	Sololá	710	Panajachel	8	Panajachel	2	Febrero	2023-01-02T00:00:00	2024-11-08T11:00:00	1	Precipitación	0
17236	7	Sololá	710	Panajachel	8	Panajachel	2	Febrero	2023-01-02T00:00:00	2024-11-08T11:00:00	8	Radiación solar	737
17237	7	Sololá	710	Panajachel	8	Panajachel	2	Febrero	2023-01-02T00:00:00	2024-11-08T12:00:00	2	Temperatura media	23.7
17238	7	Sololá	710	Panajachel	8	Panajachel	2	Febrero	2023-01-02T00:00:00	2024-11-08T12:00:00	4	Temperatura máxima	23.7
17239	7	Sololá	710	Panajachel	8	Panajachel	2	Febrero	2023-01-02T00:00:00	2024-11-08T12:00:00	3	Temperatura mínima	22.2
17240	7	Sololá	710	Panajachel	8	Panajachel	2	Febrero	2023-01-02T00:00:00	2024-11-08T12:00:00	5	Humedad	56
17241	7	Sololá	710	Panajachel	8	Panajachel	2	Febrero	2023-01-02T00:00:00	2024-11-08T12:00:00	6	Velocidad del viento	3.2
17242	7	Sololá	710	Panajachel	8	Panajachel	2	Febrero	2023-01-02T00:00:00	2024-11-08T12:00:00	7	Dirección del viento	3.22
17243	7	Sololá	710	Panajachel	8	Panajachel	2	Febrero	2023-01-02T00:00:00	2024-11-08T12:00:00	1	Precipitación	0
17244	7	Sololá	710	Panajachel	8	Panajachel	2	Febrero	2023-01-02T00:00:00	2024-11-08T12:00:00	8	Radiación solar	830
17245	7	Sololá	710	Panajachel	8	Panajachel	2	Febrero	2023-01-02T00:00:00	2024-11-08T13:00:00	2	Temperatura media	25.2
17246	7	Sololá	710	Panajachel	8	Panajachel	2	Febrero	2023-01-02T00:00:00	2024-11-08T13:00:00	4	Temperatura máxima	25.7
17247	7	Sololá	710	Panajachel	8	Panajachel	2	Febrero	2023-01-02T00:00:00	2024-11-08T13:00:00	3	Temperatura mínima	23.8
17248	7	Sololá	710	Panajachel	8	Panajachel	2	Febrero	2023-01-02T00:00:00	2024-11-08T13:00:00	5	Humedad	51
17249	7	Sololá	710	Panajachel	8	Panajachel	2	Febrero	2023-01-02T00:00:00	2024-11-08T13:00:00	6	Velocidad del viento	4.8
17250	7	Sololá	710	Panajachel	8	Panajachel	2	Febrero	2023-01-02T00:00:00	2024-11-08T13:00:00	7	Dirección del viento	4.83
17251	7	Sololá	710	Panajachel	8	Panajachel	2	Febrero	2023-01-02T00:00:00	2024-11-08T13:00:00	1	Precipitación	0
17252	7	Sololá	710	Panajachel	8	Panajachel	2	Febrero	2023-01-02T00:00:00	2024-11-08T13:00:00	8	Radiación solar	873
17253	7	Sololá	710	Panajachel	8	Panajachel	2	Febrero	2023-01-02T00:00:00	2024-11-08T14:00:00	2	Temperatura media	24.3
17254	7	Sololá	710	Panajachel	8	Panajachel	2	Febrero	2023-01-02T00:00:00	2024-11-08T14:00:00	4	Temperatura máxima	25.8
17255	7	Sololá	710	Panajachel	8	Panajachel	2	Febrero	2023-01-02T00:00:00	2024-11-08T14:00:00	3	Temperatura mínima	23.9
17256	7	Sololá	710	Panajachel	8	Panajachel	2	Febrero	2023-01-02T00:00:00	2024-11-08T14:00:00	5	Humedad	69
17257	7	Sololá	710	Panajachel	8	Panajachel	2	Febrero	2023-01-02T00:00:00	2024-11-08T14:00:00	6	Velocidad del viento	4.8
17258	7	Sololá	710	Panajachel	8	Panajachel	2	Febrero	2023-01-02T00:00:00	2024-11-08T14:00:00	7	Dirección del viento	4.83
17259	7	Sololá	710	Panajachel	8	Panajachel	2	Febrero	2023-01-02T00:00:00	2024-11-08T14:00:00	1	Precipitación	0
17260	7	Sololá	710	Panajachel	8	Panajachel	2	Febrero	2023-01-02T00:00:00	2024-11-08T14:00:00	8	Radiación solar	706
17261	7	Sololá	710	Panajachel	8	Panajachel	2	Febrero	2023-01-02T00:00:00	2024-11-08T15:00:00	2	Temperatura media	24.7
17262	7	Sololá	710	Panajachel	8	Panajachel	2	Febrero	2023-01-02T00:00:00	2024-11-08T15:00:00	4	Temperatura máxima	24.9
17263	7	Sololá	710	Panajachel	8	Panajachel	2	Febrero	2023-01-02T00:00:00	2024-11-08T15:00:00	3	Temperatura mínima	24.1
17264	7	Sololá	710	Panajachel	8	Panajachel	2	Febrero	2023-01-02T00:00:00	2024-11-08T15:00:00	5	Humedad	70
17265	7	Sololá	710	Panajachel	8	Panajachel	2	Febrero	2023-01-02T00:00:00	2024-11-08T15:00:00	6	Velocidad del viento	4.8
17266	7	Sololá	710	Panajachel	8	Panajachel	2	Febrero	2023-01-02T00:00:00	2024-11-08T15:00:00	7	Dirección del viento	4.83
17267	7	Sololá	710	Panajachel	8	Panajachel	2	Febrero	2023-01-02T00:00:00	2024-11-08T15:00:00	1	Precipitación	0
17268	7	Sololá	710	Panajachel	8	Panajachel	2	Febrero	2023-01-02T00:00:00	2024-11-08T15:00:00	8	Radiación solar	603
17269	7	Sololá	710	Panajachel	8	Panajachel	2	Febrero	2023-01-02T00:00:00	2024-11-08T16:00:00	2	Temperatura media	23.6
17270	7	Sololá	710	Panajachel	8	Panajachel	2	Febrero	2023-01-02T00:00:00	2024-11-08T16:00:00	4	Temperatura máxima	24.9
17271	7	Sololá	710	Panajachel	8	Panajachel	2	Febrero	2023-01-02T00:00:00	2024-11-08T16:00:00	3	Temperatura mínima	23.5
17272	7	Sololá	710	Panajachel	8	Panajachel	2	Febrero	2023-01-02T00:00:00	2024-11-08T16:00:00	5	Humedad	71
17273	7	Sololá	710	Panajachel	8	Panajachel	2	Febrero	2023-01-02T00:00:00	2024-11-08T16:00:00	6	Velocidad del viento	4.8
17274	7	Sololá	710	Panajachel	8	Panajachel	2	Febrero	2023-01-02T00:00:00	2024-11-08T16:00:00	7	Dirección del viento	4.83
17275	7	Sololá	710	Panajachel	8	Panajachel	2	Febrero	2023-01-02T00:00:00	2024-11-08T16:00:00	1	Precipitación	0
17276	7	Sololá	710	Panajachel	8	Panajachel	2	Febrero	2023-01-02T00:00:00	2024-11-08T16:00:00	8	Radiación solar	508
17277	7	Sololá	710	Panajachel	8	Panajachel	2	Febrero	2023-01-02T00:00:00	2024-11-08T17:00:00	2	Temperatura media	22.5
17278	7	Sololá	710	Panajachel	8	Panajachel	2	Febrero	2023-01-02T00:00:00	2024-11-08T17:00:00	4	Temperatura máxima	23.7
17279	7	Sololá	710	Panajachel	8	Panajachel	2	Febrero	2023-01-02T00:00:00	2024-11-08T17:00:00	3	Temperatura mínima	21.9
17280	7	Sololá	710	Panajachel	8	Panajachel	2	Febrero	2023-01-02T00:00:00	2024-11-08T17:00:00	5	Humedad	75
17281	7	Sololá	710	Panajachel	8	Panajachel	2	Febrero	2023-01-02T00:00:00	2024-11-08T17:00:00	6	Velocidad del viento	3.2
17282	7	Sololá	710	Panajachel	8	Panajachel	2	Febrero	2023-01-02T00:00:00	2024-11-08T17:00:00	7	Dirección del viento	3.22
17283	7	Sololá	710	Panajachel	8	Panajachel	2	Febrero	2023-01-02T00:00:00	2024-11-08T17:00:00	1	Precipitación	0
17284	7	Sololá	710	Panajachel	8	Panajachel	2	Febrero	2023-01-02T00:00:00	2024-11-08T17:00:00	8	Radiación solar	229
17285	7	Sololá	710	Panajachel	8	Panajachel	2	Febrero	2023-01-02T00:00:00	2024-11-08T18:00:00	2	Temperatura media	21.3
17286	7	Sololá	710	Panajachel	8	Panajachel	2	Febrero	2023-01-02T00:00:00	2024-11-08T18:00:00	4	Temperatura máxima	22.9
17287	7	Sololá	710	Panajachel	8	Panajachel	2	Febrero	2023-01-02T00:00:00	2024-11-08T18:00:00	3	Temperatura mínima	21.3
17288	7	Sololá	710	Panajachel	8	Panajachel	2	Febrero	2023-01-02T00:00:00	2024-11-08T18:00:00	5	Humedad	77
17289	7	Sololá	710	Panajachel	8	Panajachel	2	Febrero	2023-01-02T00:00:00	2024-11-08T18:00:00	6	Velocidad del viento	1.6
17290	7	Sololá	710	Panajachel	8	Panajachel	2	Febrero	2023-01-02T00:00:00	2024-11-08T18:00:00	7	Dirección del viento	1.61
17291	7	Sololá	710	Panajachel	8	Panajachel	2	Febrero	2023-01-02T00:00:00	2024-11-08T18:00:00	1	Precipitación	0
17292	7	Sololá	710	Panajachel	8	Panajachel	2	Febrero	2023-01-02T00:00:00	2024-11-08T18:00:00	8	Radiación solar	72
17293	7	Sololá	710	Panajachel	8	Panajachel	2	Febrero	2023-01-02T00:00:00	2024-11-08T19:00:00	2	Temperatura media	19.1
17294	7	Sololá	710	Panajachel	8	Panajachel	2	Febrero	2023-01-02T00:00:00	2024-11-08T19:00:00	4	Temperatura máxima	21.3
17295	7	Sololá	710	Panajachel	8	Panajachel	2	Febrero	2023-01-02T00:00:00	2024-11-08T19:00:00	3	Temperatura mínima	19.1
17296	7	Sololá	710	Panajachel	8	Panajachel	2	Febrero	2023-01-02T00:00:00	2024-11-08T19:00:00	5	Humedad	80
17297	7	Sololá	710	Panajachel	8	Panajachel	2	Febrero	2023-01-02T00:00:00	2024-11-08T19:00:00	6	Velocidad del viento	0
17298	7	Sololá	710	Panajachel	8	Panajachel	2	Febrero	2023-01-02T00:00:00	2024-11-08T19:00:00	7	Dirección del viento	0
17299	7	Sololá	710	Panajachel	8	Panajachel	2	Febrero	2023-01-02T00:00:00	2024-11-08T19:00:00	1	Precipitación	0
17300	7	Sololá	710	Panajachel	8	Panajachel	2	Febrero	2023-01-02T00:00:00	2024-11-08T19:00:00	8	Radiación solar	0
17301	7	Sololá	710	Panajachel	8	Panajachel	2	Febrero	2023-01-02T00:00:00	2024-11-08T20:00:00	2	Temperatura media	18.4
17302	7	Sololá	710	Panajachel	8	Panajachel	2	Febrero	2023-01-02T00:00:00	2024-11-08T20:00:00	4	Temperatura máxima	19.1
17303	7	Sololá	710	Panajachel	8	Panajachel	2	Febrero	2023-01-02T00:00:00	2024-11-08T20:00:00	3	Temperatura mínima	18.4
17304	7	Sololá	710	Panajachel	8	Panajachel	2	Febrero	2023-01-02T00:00:00	2024-11-08T20:00:00	5	Humedad	71
17305	7	Sololá	710	Panajachel	8	Panajachel	2	Febrero	2023-01-02T00:00:00	2024-11-08T20:00:00	6	Velocidad del viento	0
17306	7	Sololá	710	Panajachel	8	Panajachel	2	Febrero	2023-01-02T00:00:00	2024-11-08T20:00:00	7	Dirección del viento	0
17307	7	Sololá	710	Panajachel	8	Panajachel	2	Febrero	2023-01-02T00:00:00	2024-11-08T20:00:00	1	Precipitación	0
17308	7	Sololá	710	Panajachel	8	Panajachel	2	Febrero	2023-01-02T00:00:00	2024-11-08T20:00:00	8	Radiación solar	0
17309	7	Sololá	710	Panajachel	8	Panajachel	2	Febrero	2023-01-02T00:00:00	2024-11-08T21:00:00	2	Temperatura media	19.6
17310	7	Sololá	710	Panajachel	8	Panajachel	2	Febrero	2023-01-02T00:00:00	2024-11-08T21:00:00	4	Temperatura máxima	19.7
17311	7	Sololá	710	Panajachel	8	Panajachel	2	Febrero	2023-01-02T00:00:00	2024-11-08T21:00:00	3	Temperatura mínima	18.4
17312	7	Sololá	710	Panajachel	8	Panajachel	2	Febrero	2023-01-02T00:00:00	2024-11-08T21:00:00	5	Humedad	64
17313	7	Sololá	710	Panajachel	8	Panajachel	2	Febrero	2023-01-02T00:00:00	2024-11-08T21:00:00	6	Velocidad del viento	9.7
17314	7	Sololá	710	Panajachel	8	Panajachel	2	Febrero	2023-01-02T00:00:00	2024-11-08T21:00:00	7	Dirección del viento	9.66
17315	7	Sololá	710	Panajachel	8	Panajachel	2	Febrero	2023-01-02T00:00:00	2024-11-08T21:00:00	1	Precipitación	0
17316	7	Sololá	710	Panajachel	8	Panajachel	2	Febrero	2023-01-02T00:00:00	2024-11-08T21:00:00	8	Radiación solar	0
17317	7	Sololá	710	Panajachel	8	Panajachel	2	Febrero	2023-01-02T00:00:00	2024-11-08T22:00:00	2	Temperatura media	19.1
17318	7	Sololá	710	Panajachel	8	Panajachel	2	Febrero	2023-01-02T00:00:00	2024-11-08T22:00:00	4	Temperatura máxima	19.6
17319	7	Sololá	710	Panajachel	8	Panajachel	2	Febrero	2023-01-02T00:00:00	2024-11-08T22:00:00	3	Temperatura mínima	19.1
17320	7	Sololá	710	Panajachel	8	Panajachel	2	Febrero	2023-01-02T00:00:00	2024-11-08T22:00:00	5	Humedad	65
17321	7	Sololá	710	Panajachel	8	Panajachel	2	Febrero	2023-01-02T00:00:00	2024-11-08T22:00:00	6	Velocidad del viento	14.5
17322	7	Sololá	710	Panajachel	8	Panajachel	2	Febrero	2023-01-02T00:00:00	2024-11-08T22:00:00	7	Dirección del viento	14.48
17323	7	Sololá	710	Panajachel	8	Panajachel	2	Febrero	2023-01-02T00:00:00	2024-11-08T22:00:00	1	Precipitación	0
17324	7	Sololá	710	Panajachel	8	Panajachel	2	Febrero	2023-01-02T00:00:00	2024-11-08T22:00:00	8	Radiación solar	0
17325	7	Sololá	710	Panajachel	8	Panajachel	2	Febrero	2023-01-02T00:00:00	2024-11-08T23:00:00	2	Temperatura media	18.6
17326	7	Sololá	710	Panajachel	8	Panajachel	2	Febrero	2023-01-02T00:00:00	2024-11-08T23:00:00	4	Temperatura máxima	19.1
17327	7	Sololá	710	Panajachel	8	Panajachel	2	Febrero	2023-01-02T00:00:00	2024-11-08T23:00:00	3	Temperatura mínima	18.5
17328	7	Sololá	710	Panajachel	8	Panajachel	2	Febrero	2023-01-02T00:00:00	2024-11-08T23:00:00	5	Humedad	65
17329	7	Sololá	710	Panajachel	8	Panajachel	2	Febrero	2023-01-02T00:00:00	2024-11-08T23:00:00	6	Velocidad del viento	11.3
17330	7	Sololá	710	Panajachel	8	Panajachel	2	Febrero	2023-01-02T00:00:00	2024-11-08T23:00:00	7	Dirección del viento	11.27
17331	7	Sololá	710	Panajachel	8	Panajachel	2	Febrero	2023-01-02T00:00:00	2024-11-08T23:00:00	1	Precipitación	0
17332	7	Sololá	710	Panajachel	8	Panajachel	2	Febrero	2023-01-02T00:00:00	2024-11-08T23:00:00	8	Radiación solar	0
17333	7	Sololá	710	Panajachel	8	Panajachel	2	Febrero	2023-02-02T00:00:00	2024-11-08T00:00:00	2	Temperatura media	18.2
17334	7	Sololá	710	Panajachel	8	Panajachel	2	Febrero	2023-02-02T00:00:00	2024-11-08T00:00:00	4	Temperatura máxima	18.7
17335	7	Sololá	710	Panajachel	8	Panajachel	2	Febrero	2023-02-02T00:00:00	2024-11-08T00:00:00	3	Temperatura mínima	18.2
17336	7	Sololá	710	Panajachel	8	Panajachel	2	Febrero	2023-02-02T00:00:00	2024-11-08T00:00:00	5	Humedad	65
17337	7	Sololá	710	Panajachel	8	Panajachel	2	Febrero	2023-02-02T00:00:00	2024-11-08T00:00:00	6	Velocidad del viento	6.4
17338	7	Sololá	710	Panajachel	8	Panajachel	2	Febrero	2023-02-02T00:00:00	2024-11-08T00:00:00	7	Dirección del viento	6.44
17339	7	Sololá	710	Panajachel	8	Panajachel	2	Febrero	2023-02-02T00:00:00	2024-11-08T00:00:00	1	Precipitación	0
17340	7	Sololá	710	Panajachel	8	Panajachel	2	Febrero	2023-02-02T00:00:00	2024-11-08T00:00:00	8	Radiación solar	0
17341	7	Sololá	710	Panajachel	8	Panajachel	2	Febrero	2023-02-02T00:00:00	2024-11-08T01:00:00	2	Temperatura media	17.1
17342	7	Sololá	710	Panajachel	8	Panajachel	2	Febrero	2023-02-02T00:00:00	2024-11-08T01:00:00	4	Temperatura máxima	18.2
17343	7	Sololá	710	Panajachel	8	Panajachel	2	Febrero	2023-02-02T00:00:00	2024-11-08T01:00:00	3	Temperatura mínima	17.1
17344	7	Sololá	710	Panajachel	8	Panajachel	2	Febrero	2023-02-02T00:00:00	2024-11-08T01:00:00	5	Humedad	68
17345	7	Sololá	710	Panajachel	8	Panajachel	2	Febrero	2023-02-02T00:00:00	2024-11-08T01:00:00	6	Velocidad del viento	1.6
17346	7	Sololá	710	Panajachel	8	Panajachel	2	Febrero	2023-02-02T00:00:00	2024-11-08T01:00:00	7	Dirección del viento	1.61
17347	7	Sololá	710	Panajachel	8	Panajachel	2	Febrero	2023-02-02T00:00:00	2024-11-08T01:00:00	1	Precipitación	0
17348	7	Sololá	710	Panajachel	8	Panajachel	2	Febrero	2023-02-02T00:00:00	2024-11-08T01:00:00	8	Radiación solar	0
17349	7	Sololá	710	Panajachel	8	Panajachel	2	Febrero	2023-02-02T00:00:00	2024-11-08T02:00:00	2	Temperatura media	17.2
17350	7	Sololá	710	Panajachel	8	Panajachel	2	Febrero	2023-02-02T00:00:00	2024-11-08T02:00:00	4	Temperatura máxima	17.4
17351	7	Sololá	710	Panajachel	8	Panajachel	2	Febrero	2023-02-02T00:00:00	2024-11-08T02:00:00	3	Temperatura mínima	16.9
17352	7	Sololá	710	Panajachel	8	Panajachel	2	Febrero	2023-02-02T00:00:00	2024-11-08T02:00:00	5	Humedad	66
17353	7	Sololá	710	Panajachel	8	Panajachel	2	Febrero	2023-02-02T00:00:00	2024-11-08T02:00:00	6	Velocidad del viento	3.2
17354	7	Sololá	710	Panajachel	8	Panajachel	2	Febrero	2023-02-02T00:00:00	2024-11-08T02:00:00	7	Dirección del viento	3.22
17355	7	Sololá	710	Panajachel	8	Panajachel	2	Febrero	2023-02-02T00:00:00	2024-11-08T02:00:00	1	Precipitación	0
17356	7	Sololá	710	Panajachel	8	Panajachel	2	Febrero	2023-02-02T00:00:00	2024-11-08T02:00:00	8	Radiación solar	0
17357	7	Sololá	710	Panajachel	8	Panajachel	2	Febrero	2023-02-02T00:00:00	2024-11-08T03:00:00	2	Temperatura media	16.3
17358	7	Sololá	710	Panajachel	8	Panajachel	2	Febrero	2023-02-02T00:00:00	2024-11-08T03:00:00	4	Temperatura máxima	17.2
17359	7	Sololá	710	Panajachel	8	Panajachel	2	Febrero	2023-02-02T00:00:00	2024-11-08T03:00:00	3	Temperatura mínima	16.2
17360	7	Sololá	710	Panajachel	8	Panajachel	2	Febrero	2023-02-02T00:00:00	2024-11-08T03:00:00	5	Humedad	67
17361	7	Sololá	710	Panajachel	8	Panajachel	2	Febrero	2023-02-02T00:00:00	2024-11-08T03:00:00	6	Velocidad del viento	1.6
17362	7	Sololá	710	Panajachel	8	Panajachel	2	Febrero	2023-02-02T00:00:00	2024-11-08T03:00:00	7	Dirección del viento	1.61
17363	7	Sololá	710	Panajachel	8	Panajachel	2	Febrero	2023-02-02T00:00:00	2024-11-08T03:00:00	1	Precipitación	0
17364	7	Sololá	710	Panajachel	8	Panajachel	2	Febrero	2023-02-02T00:00:00	2024-11-08T03:00:00	8	Radiación solar	0
17365	7	Sololá	710	Panajachel	8	Panajachel	2	Febrero	2023-02-02T00:00:00	2024-11-08T04:00:00	2	Temperatura media	15.6
17366	7	Sololá	710	Panajachel	8	Panajachel	2	Febrero	2023-02-02T00:00:00	2024-11-08T04:00:00	4	Temperatura máxima	16.4
17367	7	Sololá	710	Panajachel	8	Panajachel	2	Febrero	2023-02-02T00:00:00	2024-11-08T04:00:00	3	Temperatura mínima	15.5
17368	7	Sololá	710	Panajachel	8	Panajachel	2	Febrero	2023-02-02T00:00:00	2024-11-08T04:00:00	5	Humedad	68
17369	7	Sololá	710	Panajachel	8	Panajachel	2	Febrero	2023-02-02T00:00:00	2024-11-08T04:00:00	6	Velocidad del viento	1.6
17370	7	Sololá	710	Panajachel	8	Panajachel	2	Febrero	2023-02-02T00:00:00	2024-11-08T04:00:00	7	Dirección del viento	1.61
17371	7	Sololá	710	Panajachel	8	Panajachel	2	Febrero	2023-02-02T00:00:00	2024-11-08T04:00:00	1	Precipitación	0
17372	7	Sololá	710	Panajachel	8	Panajachel	2	Febrero	2023-02-02T00:00:00	2024-11-08T04:00:00	8	Radiación solar	0
17373	7	Sololá	710	Panajachel	8	Panajachel	2	Febrero	2023-02-02T00:00:00	2024-11-08T05:00:00	2	Temperatura media	15.2
17374	7	Sololá	710	Panajachel	8	Panajachel	2	Febrero	2023-02-02T00:00:00	2024-11-08T05:00:00	4	Temperatura máxima	16.1
17375	7	Sololá	710	Panajachel	8	Panajachel	2	Febrero	2023-02-02T00:00:00	2024-11-08T05:00:00	3	Temperatura mínima	15.1
17376	7	Sololá	710	Panajachel	8	Panajachel	2	Febrero	2023-02-02T00:00:00	2024-11-08T05:00:00	5	Humedad	70
17377	7	Sololá	710	Panajachel	8	Panajachel	2	Febrero	2023-02-02T00:00:00	2024-11-08T05:00:00	6	Velocidad del viento	1.6
17378	7	Sololá	710	Panajachel	8	Panajachel	2	Febrero	2023-02-02T00:00:00	2024-11-08T05:00:00	7	Dirección del viento	1.61
17379	7	Sololá	710	Panajachel	8	Panajachel	2	Febrero	2023-02-02T00:00:00	2024-11-08T05:00:00	1	Precipitación	0
17380	7	Sololá	710	Panajachel	8	Panajachel	2	Febrero	2023-02-02T00:00:00	2024-11-08T05:00:00	8	Radiación solar	0
17381	7	Sololá	710	Panajachel	8	Panajachel	2	Febrero	2023-02-02T00:00:00	2024-11-08T06:00:00	2	Temperatura media	15.1
17382	7	Sololá	710	Panajachel	8	Panajachel	2	Febrero	2023-02-02T00:00:00	2024-11-08T06:00:00	4	Temperatura máxima	15.2
17383	7	Sololá	710	Panajachel	8	Panajachel	2	Febrero	2023-02-02T00:00:00	2024-11-08T06:00:00	3	Temperatura mínima	14.9
17384	7	Sololá	710	Panajachel	8	Panajachel	2	Febrero	2023-02-02T00:00:00	2024-11-08T06:00:00	5	Humedad	66
17385	7	Sololá	710	Panajachel	8	Panajachel	2	Febrero	2023-02-02T00:00:00	2024-11-08T06:00:00	6	Velocidad del viento	0
17386	7	Sololá	710	Panajachel	8	Panajachel	2	Febrero	2023-02-02T00:00:00	2024-11-08T06:00:00	7	Dirección del viento	0
17387	7	Sololá	710	Panajachel	8	Panajachel	2	Febrero	2023-02-02T00:00:00	2024-11-08T06:00:00	1	Precipitación	0
17388	7	Sololá	710	Panajachel	8	Panajachel	2	Febrero	2023-02-02T00:00:00	2024-11-08T06:00:00	8	Radiación solar	0
17389	7	Sololá	710	Panajachel	8	Panajachel	2	Febrero	2023-02-02T00:00:00	2024-11-08T07:00:00	2	Temperatura media	13.3
17390	7	Sololá	710	Panajachel	8	Panajachel	2	Febrero	2023-02-02T00:00:00	2024-11-08T07:00:00	4	Temperatura máxima	15.2
17391	7	Sololá	710	Panajachel	8	Panajachel	2	Febrero	2023-02-02T00:00:00	2024-11-08T07:00:00	3	Temperatura mínima	13.3
17392	7	Sololá	710	Panajachel	8	Panajachel	2	Febrero	2023-02-02T00:00:00	2024-11-08T07:00:00	5	Humedad	71
17393	7	Sololá	710	Panajachel	8	Panajachel	2	Febrero	2023-02-02T00:00:00	2024-11-08T07:00:00	6	Velocidad del viento	1.6
17394	7	Sololá	710	Panajachel	8	Panajachel	2	Febrero	2023-02-02T00:00:00	2024-11-08T07:00:00	7	Dirección del viento	1.61
17395	7	Sololá	710	Panajachel	8	Panajachel	2	Febrero	2023-02-02T00:00:00	2024-11-08T07:00:00	1	Precipitación	0
17396	7	Sololá	710	Panajachel	8	Panajachel	2	Febrero	2023-02-02T00:00:00	2024-11-08T07:00:00	8	Radiación solar	3
17397	7	Sololá	710	Panajachel	8	Panajachel	2	Febrero	2023-02-02T00:00:00	2024-11-08T08:00:00	2	Temperatura media	15.2
17398	7	Sololá	710	Panajachel	8	Panajachel	2	Febrero	2023-02-02T00:00:00	2024-11-08T08:00:00	4	Temperatura máxima	15.2
17399	7	Sololá	710	Panajachel	8	Panajachel	2	Febrero	2023-02-02T00:00:00	2024-11-08T08:00:00	3	Temperatura mínima	13.1
17400	7	Sololá	710	Panajachel	8	Panajachel	2	Febrero	2023-02-02T00:00:00	2024-11-08T08:00:00	5	Humedad	64
17401	7	Sololá	710	Panajachel	8	Panajachel	2	Febrero	2023-02-02T00:00:00	2024-11-08T08:00:00	6	Velocidad del viento	0
17402	7	Sololá	710	Panajachel	8	Panajachel	2	Febrero	2023-02-02T00:00:00	2024-11-08T08:00:00	7	Dirección del viento	0
17403	7	Sololá	710	Panajachel	8	Panajachel	2	Febrero	2023-02-02T00:00:00	2024-11-08T08:00:00	1	Precipitación	0
17404	7	Sololá	710	Panajachel	8	Panajachel	2	Febrero	2023-02-02T00:00:00	2024-11-08T08:00:00	8	Radiación solar	28
17405	7	Sololá	710	Panajachel	8	Panajachel	2	Febrero	2023-02-02T00:00:00	2024-11-08T09:00:00	2	Temperatura media	18.7
17406	7	Sololá	710	Panajachel	8	Panajachel	2	Febrero	2023-02-02T00:00:00	2024-11-08T09:00:00	4	Temperatura máxima	18.7
17407	7	Sololá	710	Panajachel	8	Panajachel	2	Febrero	2023-02-02T00:00:00	2024-11-08T09:00:00	3	Temperatura mínima	15.2
17408	7	Sololá	710	Panajachel	8	Panajachel	2	Febrero	2023-02-02T00:00:00	2024-11-08T09:00:00	5	Humedad	67
17409	7	Sololá	710	Panajachel	8	Panajachel	2	Febrero	2023-02-02T00:00:00	2024-11-08T09:00:00	6	Velocidad del viento	1.6
17410	7	Sololá	710	Panajachel	8	Panajachel	2	Febrero	2023-02-02T00:00:00	2024-11-08T09:00:00	7	Dirección del viento	1.61
17411	7	Sololá	710	Panajachel	8	Panajachel	2	Febrero	2023-02-02T00:00:00	2024-11-08T09:00:00	1	Precipitación	0
17412	7	Sololá	710	Panajachel	8	Panajachel	2	Febrero	2023-02-02T00:00:00	2024-11-08T09:00:00	8	Radiación solar	388
17413	7	Sololá	710	Panajachel	8	Panajachel	2	Febrero	2023-02-02T00:00:00	2024-11-08T10:00:00	2	Temperatura media	20.4
17414	7	Sololá	710	Panajachel	8	Panajachel	2	Febrero	2023-02-02T00:00:00	2024-11-08T10:00:00	4	Temperatura máxima	20.4
17415	7	Sololá	710	Panajachel	8	Panajachel	2	Febrero	2023-02-02T00:00:00	2024-11-08T10:00:00	3	Temperatura mínima	18.7
17416	7	Sololá	710	Panajachel	8	Panajachel	2	Febrero	2023-02-02T00:00:00	2024-11-08T10:00:00	5	Humedad	60
17417	7	Sololá	710	Panajachel	8	Panajachel	2	Febrero	2023-02-02T00:00:00	2024-11-08T10:00:00	6	Velocidad del viento	3.2
17418	7	Sololá	710	Panajachel	8	Panajachel	2	Febrero	2023-02-02T00:00:00	2024-11-08T10:00:00	7	Dirección del viento	3.22
17419	7	Sololá	710	Panajachel	8	Panajachel	2	Febrero	2023-02-02T00:00:00	2024-11-08T10:00:00	1	Precipitación	0
17420	7	Sololá	710	Panajachel	8	Panajachel	2	Febrero	2023-02-02T00:00:00	2024-11-08T10:00:00	8	Radiación solar	592
17421	7	Sololá	710	Panajachel	8	Panajachel	2	Febrero	2023-02-02T00:00:00	2024-11-08T11:00:00	2	Temperatura media	22.2
17422	7	Sololá	710	Panajachel	8	Panajachel	2	Febrero	2023-02-02T00:00:00	2024-11-08T11:00:00	4	Temperatura máxima	22.3
17423	7	Sololá	710	Panajachel	8	Panajachel	2	Febrero	2023-02-02T00:00:00	2024-11-08T11:00:00	3	Temperatura mínima	20.4
17424	7	Sololá	710	Panajachel	8	Panajachel	2	Febrero	2023-02-02T00:00:00	2024-11-08T11:00:00	5	Humedad	55
17425	7	Sololá	710	Panajachel	8	Panajachel	2	Febrero	2023-02-02T00:00:00	2024-11-08T11:00:00	6	Velocidad del viento	3.2
17426	7	Sololá	710	Panajachel	8	Panajachel	2	Febrero	2023-02-02T00:00:00	2024-11-08T11:00:00	7	Dirección del viento	3.22
17427	7	Sololá	710	Panajachel	8	Panajachel	2	Febrero	2023-02-02T00:00:00	2024-11-08T11:00:00	1	Precipitación	0
17428	7	Sololá	710	Panajachel	8	Panajachel	2	Febrero	2023-02-02T00:00:00	2024-11-08T11:00:00	8	Radiación solar	753
17429	7	Sololá	710	Panajachel	8	Panajachel	2	Febrero	2023-02-02T00:00:00	2024-11-08T12:00:00	2	Temperatura media	24.6
17430	7	Sololá	710	Panajachel	8	Panajachel	2	Febrero	2023-02-02T00:00:00	2024-11-08T12:00:00	4	Temperatura máxima	24.7
17431	7	Sololá	710	Panajachel	8	Panajachel	2	Febrero	2023-02-02T00:00:00	2024-11-08T12:00:00	3	Temperatura mínima	22.2
17432	7	Sololá	710	Panajachel	8	Panajachel	2	Febrero	2023-02-02T00:00:00	2024-11-08T12:00:00	5	Humedad	47
17433	7	Sololá	710	Panajachel	8	Panajachel	2	Febrero	2023-02-02T00:00:00	2024-11-08T12:00:00	6	Velocidad del viento	3.2
17434	7	Sololá	710	Panajachel	8	Panajachel	2	Febrero	2023-02-02T00:00:00	2024-11-08T12:00:00	7	Dirección del viento	3.22
17435	7	Sololá	710	Panajachel	8	Panajachel	2	Febrero	2023-02-02T00:00:00	2024-11-08T12:00:00	1	Precipitación	0
17436	7	Sololá	710	Panajachel	8	Panajachel	2	Febrero	2023-02-02T00:00:00	2024-11-08T12:00:00	8	Radiación solar	847
17437	7	Sololá	710	Panajachel	8	Panajachel	2	Febrero	2023-02-02T00:00:00	2024-11-08T13:00:00	2	Temperatura media	24.9
17438	7	Sololá	710	Panajachel	8	Panajachel	2	Febrero	2023-02-02T00:00:00	2024-11-08T13:00:00	4	Temperatura máxima	25.9
17439	7	Sololá	710	Panajachel	8	Panajachel	2	Febrero	2023-02-02T00:00:00	2024-11-08T13:00:00	3	Temperatura mínima	24.6
17440	7	Sololá	710	Panajachel	8	Panajachel	2	Febrero	2023-02-02T00:00:00	2024-11-08T13:00:00	5	Humedad	45
17441	7	Sololá	710	Panajachel	8	Panajachel	2	Febrero	2023-02-02T00:00:00	2024-11-08T13:00:00	6	Velocidad del viento	3.2
17442	7	Sololá	710	Panajachel	8	Panajachel	2	Febrero	2023-02-02T00:00:00	2024-11-08T13:00:00	7	Dirección del viento	3.22
17443	7	Sololá	710	Panajachel	8	Panajachel	2	Febrero	2023-02-02T00:00:00	2024-11-08T13:00:00	1	Precipitación	0
17444	7	Sololá	710	Panajachel	8	Panajachel	2	Febrero	2023-02-02T00:00:00	2024-11-08T13:00:00	8	Radiación solar	862
17445	7	Sololá	710	Panajachel	8	Panajachel	2	Febrero	2023-02-02T00:00:00	2024-11-08T14:00:00	2	Temperatura media	24.9
17446	7	Sololá	710	Panajachel	8	Panajachel	2	Febrero	2023-02-02T00:00:00	2024-11-08T14:00:00	4	Temperatura máxima	25.6
17447	7	Sololá	710	Panajachel	8	Panajachel	2	Febrero	2023-02-02T00:00:00	2024-11-08T14:00:00	3	Temperatura mínima	24.8
17448	7	Sololá	710	Panajachel	8	Panajachel	2	Febrero	2023-02-02T00:00:00	2024-11-08T14:00:00	5	Humedad	59
17449	7	Sololá	710	Panajachel	8	Panajachel	2	Febrero	2023-02-02T00:00:00	2024-11-08T14:00:00	6	Velocidad del viento	4.8
17450	7	Sololá	710	Panajachel	8	Panajachel	2	Febrero	2023-02-02T00:00:00	2024-11-08T14:00:00	7	Dirección del viento	4.83
17451	7	Sololá	710	Panajachel	8	Panajachel	2	Febrero	2023-02-02T00:00:00	2024-11-08T14:00:00	1	Precipitación	0
17452	7	Sololá	710	Panajachel	8	Panajachel	2	Febrero	2023-02-02T00:00:00	2024-11-08T14:00:00	8	Radiación solar	801
17453	7	Sololá	710	Panajachel	8	Panajachel	2	Febrero	2023-02-02T00:00:00	2024-11-08T15:00:00	2	Temperatura media	24.3
17454	7	Sololá	710	Panajachel	8	Panajachel	2	Febrero	2023-02-02T00:00:00	2024-11-08T15:00:00	4	Temperatura máxima	24.9
17455	7	Sololá	710	Panajachel	8	Panajachel	2	Febrero	2023-02-02T00:00:00	2024-11-08T15:00:00	3	Temperatura mínima	24
17456	7	Sololá	710	Panajachel	8	Panajachel	2	Febrero	2023-02-02T00:00:00	2024-11-08T15:00:00	5	Humedad	59
17457	7	Sololá	710	Panajachel	8	Panajachel	2	Febrero	2023-02-02T00:00:00	2024-11-08T15:00:00	6	Velocidad del viento	6.4
17458	7	Sololá	710	Panajachel	8	Panajachel	2	Febrero	2023-02-02T00:00:00	2024-11-08T15:00:00	7	Dirección del viento	6.44
17459	7	Sololá	710	Panajachel	8	Panajachel	2	Febrero	2023-02-02T00:00:00	2024-11-08T15:00:00	1	Precipitación	0
17460	7	Sololá	710	Panajachel	8	Panajachel	2	Febrero	2023-02-02T00:00:00	2024-11-08T15:00:00	8	Radiación solar	670
17461	7	Sololá	710	Panajachel	8	Panajachel	2	Febrero	2023-02-02T00:00:00	2024-11-08T16:00:00	2	Temperatura media	23.1
17462	7	Sololá	710	Panajachel	8	Panajachel	2	Febrero	2023-02-02T00:00:00	2024-11-08T16:00:00	4	Temperatura máxima	24.8
17463	7	Sololá	710	Panajachel	8	Panajachel	2	Febrero	2023-02-02T00:00:00	2024-11-08T16:00:00	3	Temperatura mínima	23
17464	7	Sololá	710	Panajachel	8	Panajachel	2	Febrero	2023-02-02T00:00:00	2024-11-08T16:00:00	5	Humedad	67
17465	7	Sololá	710	Panajachel	8	Panajachel	2	Febrero	2023-02-02T00:00:00	2024-11-08T16:00:00	6	Velocidad del viento	6.4
17466	7	Sololá	710	Panajachel	8	Panajachel	2	Febrero	2023-02-02T00:00:00	2024-11-08T16:00:00	7	Dirección del viento	6.44
17467	7	Sololá	710	Panajachel	8	Panajachel	2	Febrero	2023-02-02T00:00:00	2024-11-08T16:00:00	1	Precipitación	0
17468	7	Sololá	710	Panajachel	8	Panajachel	2	Febrero	2023-02-02T00:00:00	2024-11-08T16:00:00	8	Radiación solar	491
17469	7	Sololá	710	Panajachel	8	Panajachel	2	Febrero	2023-02-02T00:00:00	2024-11-08T17:00:00	2	Temperatura media	22.7
17470	7	Sololá	710	Panajachel	8	Panajachel	2	Febrero	2023-02-02T00:00:00	2024-11-08T17:00:00	4	Temperatura máxima	23.1
17471	7	Sololá	710	Panajachel	8	Panajachel	2	Febrero	2023-02-02T00:00:00	2024-11-08T17:00:00	3	Temperatura mínima	22.3
17472	7	Sololá	710	Panajachel	8	Panajachel	2	Febrero	2023-02-02T00:00:00	2024-11-08T17:00:00	5	Humedad	71
17473	7	Sololá	710	Panajachel	8	Panajachel	2	Febrero	2023-02-02T00:00:00	2024-11-08T17:00:00	6	Velocidad del viento	4.8
17474	7	Sololá	710	Panajachel	8	Panajachel	2	Febrero	2023-02-02T00:00:00	2024-11-08T17:00:00	7	Dirección del viento	4.83
17475	7	Sololá	710	Panajachel	8	Panajachel	2	Febrero	2023-02-02T00:00:00	2024-11-08T17:00:00	1	Precipitación	0
17476	7	Sololá	710	Panajachel	8	Panajachel	2	Febrero	2023-02-02T00:00:00	2024-11-08T17:00:00	8	Radiación solar	277
17477	7	Sololá	710	Panajachel	8	Panajachel	2	Febrero	2023-02-02T00:00:00	2024-11-08T18:00:00	2	Temperatura media	20.9
17478	7	Sololá	710	Panajachel	8	Panajachel	2	Febrero	2023-02-02T00:00:00	2024-11-08T18:00:00	4	Temperatura máxima	22.7
17479	7	Sololá	710	Panajachel	8	Panajachel	2	Febrero	2023-02-02T00:00:00	2024-11-08T18:00:00	3	Temperatura mínima	20.9
17480	7	Sololá	710	Panajachel	8	Panajachel	2	Febrero	2023-02-02T00:00:00	2024-11-08T18:00:00	5	Humedad	76
17481	7	Sololá	710	Panajachel	8	Panajachel	2	Febrero	2023-02-02T00:00:00	2024-11-08T18:00:00	6	Velocidad del viento	3.2
17482	7	Sololá	710	Panajachel	8	Panajachel	2	Febrero	2023-02-02T00:00:00	2024-11-08T18:00:00	7	Dirección del viento	3.22
17483	7	Sololá	710	Panajachel	8	Panajachel	2	Febrero	2023-02-02T00:00:00	2024-11-08T18:00:00	1	Precipitación	0
17484	7	Sololá	710	Panajachel	8	Panajachel	2	Febrero	2023-02-02T00:00:00	2024-11-08T18:00:00	8	Radiación solar	68
17485	7	Sololá	710	Panajachel	8	Panajachel	2	Febrero	2023-02-02T00:00:00	2024-11-08T19:00:00	2	Temperatura media	18.7
17486	7	Sololá	710	Panajachel	8	Panajachel	2	Febrero	2023-02-02T00:00:00	2024-11-08T19:00:00	4	Temperatura máxima	20.9
17487	7	Sololá	710	Panajachel	8	Panajachel	2	Febrero	2023-02-02T00:00:00	2024-11-08T19:00:00	3	Temperatura mínima	18.7
17488	7	Sololá	710	Panajachel	8	Panajachel	2	Febrero	2023-02-02T00:00:00	2024-11-08T19:00:00	5	Humedad	75
17489	7	Sololá	710	Panajachel	8	Panajachel	2	Febrero	2023-02-02T00:00:00	2024-11-08T19:00:00	6	Velocidad del viento	0
17490	7	Sololá	710	Panajachel	8	Panajachel	2	Febrero	2023-02-02T00:00:00	2024-11-08T19:00:00	7	Dirección del viento	0
17491	7	Sololá	710	Panajachel	8	Panajachel	2	Febrero	2023-02-02T00:00:00	2024-11-08T19:00:00	1	Precipitación	0
17492	7	Sololá	710	Panajachel	8	Panajachel	2	Febrero	2023-02-02T00:00:00	2024-11-08T19:00:00	8	Radiación solar	0
17493	7	Sololá	710	Panajachel	8	Panajachel	2	Febrero	2023-02-02T00:00:00	2024-11-08T20:00:00	2	Temperatura media	17.5
17494	7	Sololá	710	Panajachel	8	Panajachel	2	Febrero	2023-02-02T00:00:00	2024-11-08T20:00:00	4	Temperatura máxima	18.7
17495	7	Sololá	710	Panajachel	8	Panajachel	2	Febrero	2023-02-02T00:00:00	2024-11-08T20:00:00	3	Temperatura mínima	17.5
17496	7	Sololá	710	Panajachel	8	Panajachel	2	Febrero	2023-02-02T00:00:00	2024-11-08T20:00:00	5	Humedad	75
17497	7	Sololá	710	Panajachel	8	Panajachel	2	Febrero	2023-02-02T00:00:00	2024-11-08T20:00:00	6	Velocidad del viento	1.6
17498	7	Sololá	710	Panajachel	8	Panajachel	2	Febrero	2023-02-02T00:00:00	2024-11-08T20:00:00	7	Dirección del viento	1.61
17499	7	Sololá	710	Panajachel	8	Panajachel	2	Febrero	2023-02-02T00:00:00	2024-11-08T20:00:00	1	Precipitación	0
17500	7	Sololá	710	Panajachel	8	Panajachel	2	Febrero	2023-02-02T00:00:00	2024-11-08T20:00:00	8	Radiación solar	0
17501	7	Sololá	710	Panajachel	8	Panajachel	2	Febrero	2023-02-02T00:00:00	2024-11-08T21:00:00	2	Temperatura media	17.6
17502	7	Sololá	710	Panajachel	8	Panajachel	2	Febrero	2023-02-02T00:00:00	2024-11-08T21:00:00	4	Temperatura máxima	17.8
17503	7	Sololá	710	Panajachel	8	Panajachel	2	Febrero	2023-02-02T00:00:00	2024-11-08T21:00:00	3	Temperatura mínima	17.1
17504	7	Sololá	710	Panajachel	8	Panajachel	2	Febrero	2023-02-02T00:00:00	2024-11-08T21:00:00	5	Humedad	71
17505	7	Sololá	710	Panajachel	8	Panajachel	2	Febrero	2023-02-02T00:00:00	2024-11-08T21:00:00	6	Velocidad del viento	1.6
17506	7	Sololá	710	Panajachel	8	Panajachel	2	Febrero	2023-02-02T00:00:00	2024-11-08T21:00:00	7	Dirección del viento	1.61
17507	7	Sololá	710	Panajachel	8	Panajachel	2	Febrero	2023-02-02T00:00:00	2024-11-08T21:00:00	1	Precipitación	0
17508	7	Sololá	710	Panajachel	8	Panajachel	2	Febrero	2023-02-02T00:00:00	2024-11-08T21:00:00	8	Radiación solar	0
17509	7	Sololá	710	Panajachel	8	Panajachel	2	Febrero	2023-02-02T00:00:00	2024-11-08T22:00:00	2	Temperatura media	17.9
17510	7	Sololá	710	Panajachel	8	Panajachel	2	Febrero	2023-02-02T00:00:00	2024-11-08T22:00:00	4	Temperatura máxima	18
17511	7	Sololá	710	Panajachel	8	Panajachel	2	Febrero	2023-02-02T00:00:00	2024-11-08T22:00:00	3	Temperatura mínima	17.2
17512	7	Sololá	710	Panajachel	8	Panajachel	2	Febrero	2023-02-02T00:00:00	2024-11-08T22:00:00	5	Humedad	69
17513	7	Sololá	710	Panajachel	8	Panajachel	2	Febrero	2023-02-02T00:00:00	2024-11-08T22:00:00	6	Velocidad del viento	3.2
17514	7	Sololá	710	Panajachel	8	Panajachel	2	Febrero	2023-02-02T00:00:00	2024-11-08T22:00:00	7	Dirección del viento	3.22
17515	7	Sololá	710	Panajachel	8	Panajachel	2	Febrero	2023-02-02T00:00:00	2024-11-08T22:00:00	1	Precipitación	0
17516	7	Sololá	710	Panajachel	8	Panajachel	2	Febrero	2023-02-02T00:00:00	2024-11-08T22:00:00	8	Radiación solar	0
17517	7	Sololá	710	Panajachel	8	Panajachel	2	Febrero	2023-02-02T00:00:00	2024-11-08T23:00:00	2	Temperatura media	17.8
17518	7	Sololá	710	Panajachel	8	Panajachel	2	Febrero	2023-02-02T00:00:00	2024-11-08T23:00:00	4	Temperatura máxima	17.9
17519	7	Sololá	710	Panajachel	8	Panajachel	2	Febrero	2023-02-02T00:00:00	2024-11-08T23:00:00	3	Temperatura mínima	17.7
17520	7	Sololá	710	Panajachel	8	Panajachel	2	Febrero	2023-02-02T00:00:00	2024-11-08T23:00:00	5	Humedad	67
17521	7	Sololá	710	Panajachel	8	Panajachel	2	Febrero	2023-02-02T00:00:00	2024-11-08T23:00:00	6	Velocidad del viento	3.2
17522	7	Sololá	710	Panajachel	8	Panajachel	2	Febrero	2023-02-02T00:00:00	2024-11-08T23:00:00	7	Dirección del viento	3.22
17523	7	Sololá	710	Panajachel	8	Panajachel	2	Febrero	2023-02-02T00:00:00	2024-11-08T23:00:00	1	Precipitación	0
17524	7	Sololá	710	Panajachel	8	Panajachel	2	Febrero	2023-02-02T00:00:00	2024-11-08T23:00:00	8	Radiación solar	0
17525	7	Sololá	710	Panajachel	8	Panajachel	2	Febrero	2023-03-02T00:00:00	2024-11-08T00:00:00	2	Temperatura media	17.3
17526	7	Sololá	710	Panajachel	8	Panajachel	2	Febrero	2023-03-02T00:00:00	2024-11-08T00:00:00	4	Temperatura máxima	17.8
17527	7	Sololá	710	Panajachel	8	Panajachel	2	Febrero	2023-03-02T00:00:00	2024-11-08T00:00:00	3	Temperatura mínima	17.3
17528	7	Sololá	710	Panajachel	8	Panajachel	2	Febrero	2023-03-02T00:00:00	2024-11-08T00:00:00	5	Humedad	67
17529	7	Sololá	710	Panajachel	8	Panajachel	2	Febrero	2023-03-02T00:00:00	2024-11-08T00:00:00	6	Velocidad del viento	4.8
17530	7	Sololá	710	Panajachel	8	Panajachel	2	Febrero	2023-03-02T00:00:00	2024-11-08T00:00:00	7	Dirección del viento	4.83
17531	7	Sololá	710	Panajachel	8	Panajachel	2	Febrero	2023-03-02T00:00:00	2024-11-08T00:00:00	1	Precipitación	0
17532	7	Sololá	710	Panajachel	8	Panajachel	2	Febrero	2023-03-02T00:00:00	2024-11-08T00:00:00	8	Radiación solar	0
17533	7	Sololá	710	Panajachel	8	Panajachel	2	Febrero	2023-03-02T00:00:00	2024-11-08T01:00:00	2	Temperatura media	16.5
17534	7	Sololá	710	Panajachel	8	Panajachel	2	Febrero	2023-03-02T00:00:00	2024-11-08T01:00:00	4	Temperatura máxima	17.4
17535	7	Sololá	710	Panajachel	8	Panajachel	2	Febrero	2023-03-02T00:00:00	2024-11-08T01:00:00	3	Temperatura mínima	16.5
17536	7	Sololá	710	Panajachel	8	Panajachel	2	Febrero	2023-03-02T00:00:00	2024-11-08T01:00:00	5	Humedad	68
17537	7	Sololá	710	Panajachel	8	Panajachel	2	Febrero	2023-03-02T00:00:00	2024-11-08T01:00:00	6	Velocidad del viento	6.4
17538	7	Sololá	710	Panajachel	8	Panajachel	2	Febrero	2023-03-02T00:00:00	2024-11-08T01:00:00	7	Dirección del viento	6.44
17539	7	Sololá	710	Panajachel	8	Panajachel	2	Febrero	2023-03-02T00:00:00	2024-11-08T01:00:00	1	Precipitación	0
17540	7	Sololá	710	Panajachel	8	Panajachel	2	Febrero	2023-03-02T00:00:00	2024-11-08T01:00:00	8	Radiación solar	0
17541	7	Sololá	710	Panajachel	8	Panajachel	2	Febrero	2023-03-02T00:00:00	2024-11-08T02:00:00	2	Temperatura media	16.7
17542	7	Sololá	710	Panajachel	8	Panajachel	2	Febrero	2023-03-02T00:00:00	2024-11-08T02:00:00	4	Temperatura máxima	16.8
17543	7	Sololá	710	Panajachel	8	Panajachel	2	Febrero	2023-03-02T00:00:00	2024-11-08T02:00:00	3	Temperatura mínima	16.5
17544	7	Sololá	710	Panajachel	8	Panajachel	2	Febrero	2023-03-02T00:00:00	2024-11-08T02:00:00	5	Humedad	65
17545	7	Sololá	710	Panajachel	8	Panajachel	2	Febrero	2023-03-02T00:00:00	2024-11-08T02:00:00	6	Velocidad del viento	6.4
17546	7	Sololá	710	Panajachel	8	Panajachel	2	Febrero	2023-03-02T00:00:00	2024-11-08T02:00:00	7	Dirección del viento	6.44
17547	7	Sololá	710	Panajachel	8	Panajachel	2	Febrero	2023-03-02T00:00:00	2024-11-08T02:00:00	1	Precipitación	0
17548	7	Sololá	710	Panajachel	8	Panajachel	2	Febrero	2023-03-02T00:00:00	2024-11-08T02:00:00	8	Radiación solar	0
17549	7	Sololá	710	Panajachel	8	Panajachel	2	Febrero	2023-03-02T00:00:00	2024-11-08T03:00:00	2	Temperatura media	16.8
17550	7	Sololá	710	Panajachel	8	Panajachel	2	Febrero	2023-03-02T00:00:00	2024-11-08T03:00:00	4	Temperatura máxima	16.8
17551	7	Sololá	710	Panajachel	8	Panajachel	2	Febrero	2023-03-02T00:00:00	2024-11-08T03:00:00	3	Temperatura mínima	16.6
17552	7	Sololá	710	Panajachel	8	Panajachel	2	Febrero	2023-03-02T00:00:00	2024-11-08T03:00:00	5	Humedad	62
17553	7	Sololá	710	Panajachel	8	Panajachel	2	Febrero	2023-03-02T00:00:00	2024-11-08T03:00:00	6	Velocidad del viento	8
17554	7	Sololá	710	Panajachel	8	Panajachel	2	Febrero	2023-03-02T00:00:00	2024-11-08T03:00:00	7	Dirección del viento	8.05
17555	7	Sololá	710	Panajachel	8	Panajachel	2	Febrero	2023-03-02T00:00:00	2024-11-08T03:00:00	1	Precipitación	0
17556	7	Sololá	710	Panajachel	8	Panajachel	2	Febrero	2023-03-02T00:00:00	2024-11-08T03:00:00	8	Radiación solar	0
17557	7	Sololá	710	Panajachel	8	Panajachel	2	Febrero	2023-03-02T00:00:00	2024-11-08T04:00:00	2	Temperatura media	16.9
17558	7	Sololá	710	Panajachel	8	Panajachel	2	Febrero	2023-03-02T00:00:00	2024-11-08T04:00:00	4	Temperatura máxima	17
17559	7	Sololá	710	Panajachel	8	Panajachel	2	Febrero	2023-03-02T00:00:00	2024-11-08T04:00:00	3	Temperatura mínima	16.6
17560	7	Sololá	710	Panajachel	8	Panajachel	2	Febrero	2023-03-02T00:00:00	2024-11-08T04:00:00	5	Humedad	62
17561	7	Sololá	710	Panajachel	8	Panajachel	2	Febrero	2023-03-02T00:00:00	2024-11-08T04:00:00	6	Velocidad del viento	11.3
17562	7	Sololá	710	Panajachel	8	Panajachel	2	Febrero	2023-03-02T00:00:00	2024-11-08T04:00:00	7	Dirección del viento	11.27
17563	7	Sololá	710	Panajachel	8	Panajachel	2	Febrero	2023-03-02T00:00:00	2024-11-08T04:00:00	1	Precipitación	0
17564	7	Sololá	710	Panajachel	8	Panajachel	2	Febrero	2023-03-02T00:00:00	2024-11-08T04:00:00	8	Radiación solar	0
17565	7	Sololá	710	Panajachel	8	Panajachel	2	Febrero	2023-03-02T00:00:00	2024-11-08T05:00:00	2	Temperatura media	16.9
17566	7	Sololá	710	Panajachel	8	Panajachel	2	Febrero	2023-03-02T00:00:00	2024-11-08T05:00:00	4	Temperatura máxima	17
17567	7	Sololá	710	Panajachel	8	Panajachel	2	Febrero	2023-03-02T00:00:00	2024-11-08T05:00:00	3	Temperatura mínima	16.7
17568	7	Sololá	710	Panajachel	8	Panajachel	2	Febrero	2023-03-02T00:00:00	2024-11-08T05:00:00	5	Humedad	63
17569	7	Sololá	710	Panajachel	8	Panajachel	2	Febrero	2023-03-02T00:00:00	2024-11-08T05:00:00	6	Velocidad del viento	14.5
17570	7	Sololá	710	Panajachel	8	Panajachel	2	Febrero	2023-03-02T00:00:00	2024-11-08T05:00:00	7	Dirección del viento	14.48
17571	7	Sololá	710	Panajachel	8	Panajachel	2	Febrero	2023-03-02T00:00:00	2024-11-08T05:00:00	1	Precipitación	0
17572	7	Sololá	710	Panajachel	8	Panajachel	2	Febrero	2023-03-02T00:00:00	2024-11-08T05:00:00	8	Radiación solar	0
17573	7	Sololá	710	Panajachel	8	Panajachel	2	Febrero	2023-03-02T00:00:00	2024-11-08T06:00:00	2	Temperatura media	16.9
17574	7	Sololá	710	Panajachel	8	Panajachel	2	Febrero	2023-03-02T00:00:00	2024-11-08T06:00:00	4	Temperatura máxima	16.9
17575	7	Sololá	710	Panajachel	8	Panajachel	2	Febrero	2023-03-02T00:00:00	2024-11-08T06:00:00	3	Temperatura mínima	16.5
17576	7	Sololá	710	Panajachel	8	Panajachel	2	Febrero	2023-03-02T00:00:00	2024-11-08T06:00:00	5	Humedad	63
17577	7	Sololá	710	Panajachel	8	Panajachel	2	Febrero	2023-03-02T00:00:00	2024-11-08T06:00:00	6	Velocidad del viento	8
17578	7	Sololá	710	Panajachel	8	Panajachel	2	Febrero	2023-03-02T00:00:00	2024-11-08T06:00:00	7	Dirección del viento	8.05
17579	7	Sololá	710	Panajachel	8	Panajachel	2	Febrero	2023-03-02T00:00:00	2024-11-08T06:00:00	1	Precipitación	0
17580	7	Sololá	710	Panajachel	8	Panajachel	2	Febrero	2023-03-02T00:00:00	2024-11-08T06:00:00	8	Radiación solar	0
17581	7	Sololá	710	Panajachel	8	Panajachel	2	Febrero	2023-03-02T00:00:00	2024-11-08T07:00:00	2	Temperatura media	16.6
17582	7	Sololá	710	Panajachel	8	Panajachel	2	Febrero	2023-03-02T00:00:00	2024-11-08T07:00:00	4	Temperatura máxima	16.9
17583	7	Sololá	710	Panajachel	8	Panajachel	2	Febrero	2023-03-02T00:00:00	2024-11-08T07:00:00	3	Temperatura mínima	16.4
17584	7	Sololá	710	Panajachel	8	Panajachel	2	Febrero	2023-03-02T00:00:00	2024-11-08T07:00:00	5	Humedad	66
17585	7	Sololá	710	Panajachel	8	Panajachel	2	Febrero	2023-03-02T00:00:00	2024-11-08T07:00:00	6	Velocidad del viento	6.4
17586	7	Sololá	710	Panajachel	8	Panajachel	2	Febrero	2023-03-02T00:00:00	2024-11-08T07:00:00	7	Dirección del viento	6.44
17587	7	Sololá	710	Panajachel	8	Panajachel	2	Febrero	2023-03-02T00:00:00	2024-11-08T07:00:00	1	Precipitación	0
17588	7	Sololá	710	Panajachel	8	Panajachel	2	Febrero	2023-03-02T00:00:00	2024-11-08T07:00:00	8	Radiación solar	4
17589	7	Sololá	710	Panajachel	8	Panajachel	2	Febrero	2023-03-02T00:00:00	2024-11-08T08:00:00	2	Temperatura media	18.1
17590	7	Sololá	710	Panajachel	8	Panajachel	2	Febrero	2023-03-02T00:00:00	2024-11-08T08:00:00	4	Temperatura máxima	18.1
17591	7	Sololá	710	Panajachel	8	Panajachel	2	Febrero	2023-03-02T00:00:00	2024-11-08T08:00:00	3	Temperatura mínima	16.4
17592	7	Sololá	710	Panajachel	8	Panajachel	2	Febrero	2023-03-02T00:00:00	2024-11-08T08:00:00	5	Humedad	59
17593	7	Sololá	710	Panajachel	8	Panajachel	2	Febrero	2023-03-02T00:00:00	2024-11-08T08:00:00	6	Velocidad del viento	4.8
17594	7	Sololá	710	Panajachel	8	Panajachel	2	Febrero	2023-03-02T00:00:00	2024-11-08T08:00:00	7	Dirección del viento	4.83
17595	7	Sololá	710	Panajachel	8	Panajachel	2	Febrero	2023-03-02T00:00:00	2024-11-08T08:00:00	1	Precipitación	0
17596	7	Sololá	710	Panajachel	8	Panajachel	2	Febrero	2023-03-02T00:00:00	2024-11-08T08:00:00	8	Radiación solar	39
17597	7	Sololá	710	Panajachel	8	Panajachel	2	Febrero	2023-03-02T00:00:00	2024-11-08T09:00:00	2	Temperatura media	20.2
17598	7	Sololá	710	Panajachel	8	Panajachel	2	Febrero	2023-03-02T00:00:00	2024-11-08T09:00:00	4	Temperatura máxima	20.2
17599	7	Sololá	710	Panajachel	8	Panajachel	2	Febrero	2023-03-02T00:00:00	2024-11-08T09:00:00	3	Temperatura mínima	18.1
17600	7	Sololá	710	Panajachel	8	Panajachel	2	Febrero	2023-03-02T00:00:00	2024-11-08T09:00:00	5	Humedad	55
17601	7	Sololá	710	Panajachel	8	Panajachel	2	Febrero	2023-03-02T00:00:00	2024-11-08T09:00:00	6	Velocidad del viento	8
17602	7	Sololá	710	Panajachel	8	Panajachel	2	Febrero	2023-03-02T00:00:00	2024-11-08T09:00:00	7	Dirección del viento	8.05
17603	7	Sololá	710	Panajachel	8	Panajachel	2	Febrero	2023-03-02T00:00:00	2024-11-08T09:00:00	1	Precipitación	0
17604	7	Sololá	710	Panajachel	8	Panajachel	2	Febrero	2023-03-02T00:00:00	2024-11-08T09:00:00	8	Radiación solar	382
17605	7	Sololá	710	Panajachel	8	Panajachel	2	Febrero	2023-03-02T00:00:00	2024-11-08T10:00:00	2	Temperatura media	20.5
17606	7	Sololá	710	Panajachel	8	Panajachel	2	Febrero	2023-03-02T00:00:00	2024-11-08T10:00:00	4	Temperatura máxima	20.7
17607	7	Sololá	710	Panajachel	8	Panajachel	2	Febrero	2023-03-02T00:00:00	2024-11-08T10:00:00	3	Temperatura mínima	20.2
17608	7	Sololá	710	Panajachel	8	Panajachel	2	Febrero	2023-03-02T00:00:00	2024-11-08T10:00:00	5	Humedad	56
17609	7	Sololá	710	Panajachel	8	Panajachel	2	Febrero	2023-03-02T00:00:00	2024-11-08T10:00:00	6	Velocidad del viento	11.3
17610	7	Sololá	710	Panajachel	8	Panajachel	2	Febrero	2023-03-02T00:00:00	2024-11-08T10:00:00	7	Dirección del viento	11.27
17611	7	Sololá	710	Panajachel	8	Panajachel	2	Febrero	2023-03-02T00:00:00	2024-11-08T10:00:00	1	Precipitación	0
17612	7	Sololá	710	Panajachel	8	Panajachel	2	Febrero	2023-03-02T00:00:00	2024-11-08T10:00:00	8	Radiación solar	595
17613	7	Sololá	710	Panajachel	8	Panajachel	2	Febrero	2023-03-02T00:00:00	2024-11-08T11:00:00	2	Temperatura media	21.6
17614	7	Sololá	710	Panajachel	8	Panajachel	2	Febrero	2023-03-02T00:00:00	2024-11-08T11:00:00	4	Temperatura máxima	21.6
17615	7	Sololá	710	Panajachel	8	Panajachel	2	Febrero	2023-03-02T00:00:00	2024-11-08T11:00:00	3	Temperatura mínima	20.5
17616	7	Sololá	710	Panajachel	8	Panajachel	2	Febrero	2023-03-02T00:00:00	2024-11-08T11:00:00	5	Humedad	57
17617	7	Sololá	710	Panajachel	8	Panajachel	2	Febrero	2023-03-02T00:00:00	2024-11-08T11:00:00	6	Velocidad del viento	14.5
17618	7	Sololá	710	Panajachel	8	Panajachel	2	Febrero	2023-03-02T00:00:00	2024-11-08T11:00:00	7	Dirección del viento	14.48
17619	7	Sololá	710	Panajachel	8	Panajachel	2	Febrero	2023-03-02T00:00:00	2024-11-08T11:00:00	1	Precipitación	0
17620	7	Sololá	710	Panajachel	8	Panajachel	2	Febrero	2023-03-02T00:00:00	2024-11-08T11:00:00	8	Radiación solar	750
17621	7	Sololá	710	Panajachel	8	Panajachel	2	Febrero	2023-03-02T00:00:00	2024-11-08T12:00:00	2	Temperatura media	20.7
17622	7	Sololá	710	Panajachel	8	Panajachel	2	Febrero	2023-03-02T00:00:00	2024-11-08T12:00:00	4	Temperatura máxima	21.6
17623	7	Sololá	710	Panajachel	8	Panajachel	2	Febrero	2023-03-02T00:00:00	2024-11-08T12:00:00	3	Temperatura mínima	20.6
17624	7	Sololá	710	Panajachel	8	Panajachel	2	Febrero	2023-03-02T00:00:00	2024-11-08T12:00:00	5	Humedad	62
17625	7	Sololá	710	Panajachel	8	Panajachel	2	Febrero	2023-03-02T00:00:00	2024-11-08T12:00:00	6	Velocidad del viento	20.9
17626	7	Sololá	710	Panajachel	8	Panajachel	2	Febrero	2023-03-02T00:00:00	2024-11-08T12:00:00	7	Dirección del viento	20.92
17627	7	Sololá	710	Panajachel	8	Panajachel	2	Febrero	2023-03-02T00:00:00	2024-11-08T12:00:00	1	Precipitación	0
17628	7	Sololá	710	Panajachel	8	Panajachel	2	Febrero	2023-03-02T00:00:00	2024-11-08T12:00:00	8	Radiación solar	856
17629	7	Sololá	710	Panajachel	8	Panajachel	2	Febrero	2023-03-02T00:00:00	2024-11-08T13:00:00	2	Temperatura media	20.7
17630	7	Sololá	710	Panajachel	8	Panajachel	2	Febrero	2023-03-02T00:00:00	2024-11-08T13:00:00	4	Temperatura máxima	21.3
17631	7	Sololá	710	Panajachel	8	Panajachel	2	Febrero	2023-03-02T00:00:00	2024-11-08T13:00:00	3	Temperatura mínima	20.3
17632	7	Sololá	710	Panajachel	8	Panajachel	2	Febrero	2023-03-02T00:00:00	2024-11-08T13:00:00	5	Humedad	63
17633	7	Sololá	710	Panajachel	8	Panajachel	2	Febrero	2023-03-02T00:00:00	2024-11-08T13:00:00	6	Velocidad del viento	16.1
17634	7	Sololá	710	Panajachel	8	Panajachel	2	Febrero	2023-03-02T00:00:00	2024-11-08T13:00:00	7	Dirección del viento	16.09
17635	7	Sololá	710	Panajachel	8	Panajachel	2	Febrero	2023-03-02T00:00:00	2024-11-08T13:00:00	1	Precipitación	0
17636	7	Sololá	710	Panajachel	8	Panajachel	2	Febrero	2023-03-02T00:00:00	2024-11-08T13:00:00	8	Radiación solar	906
17637	7	Sololá	710	Panajachel	8	Panajachel	2	Febrero	2023-03-02T00:00:00	2024-11-08T14:00:00	2	Temperatura media	19.3
17638	7	Sololá	710	Panajachel	8	Panajachel	2	Febrero	2023-03-02T00:00:00	2024-11-08T14:00:00	4	Temperatura máxima	21.1
17639	7	Sololá	710	Panajachel	8	Panajachel	2	Febrero	2023-03-02T00:00:00	2024-11-08T14:00:00	3	Temperatura mínima	19.1
17640	7	Sololá	710	Panajachel	8	Panajachel	2	Febrero	2023-03-02T00:00:00	2024-11-08T14:00:00	5	Humedad	66
17641	7	Sololá	710	Panajachel	8	Panajachel	2	Febrero	2023-03-02T00:00:00	2024-11-08T14:00:00	6	Velocidad del viento	11.3
17642	7	Sololá	710	Panajachel	8	Panajachel	2	Febrero	2023-03-02T00:00:00	2024-11-08T14:00:00	7	Dirección del viento	11.27
17643	7	Sololá	710	Panajachel	8	Panajachel	2	Febrero	2023-03-02T00:00:00	2024-11-08T14:00:00	1	Precipitación	0
17644	7	Sololá	710	Panajachel	8	Panajachel	2	Febrero	2023-03-02T00:00:00	2024-11-08T14:00:00	8	Radiación solar	540
17645	7	Sololá	710	Panajachel	8	Panajachel	2	Febrero	2023-03-02T00:00:00	2024-11-08T15:00:00	2	Temperatura media	19.6
17646	7	Sololá	710	Panajachel	8	Panajachel	2	Febrero	2023-03-02T00:00:00	2024-11-08T15:00:00	4	Temperatura máxima	20.3
17647	7	Sololá	710	Panajachel	8	Panajachel	2	Febrero	2023-03-02T00:00:00	2024-11-08T15:00:00	3	Temperatura mínima	18.7
17648	7	Sololá	710	Panajachel	8	Panajachel	2	Febrero	2023-03-02T00:00:00	2024-11-08T15:00:00	5	Humedad	63
17649	7	Sololá	710	Panajachel	8	Panajachel	2	Febrero	2023-03-02T00:00:00	2024-11-08T15:00:00	6	Velocidad del viento	9.7
17650	7	Sololá	710	Panajachel	8	Panajachel	2	Febrero	2023-03-02T00:00:00	2024-11-08T15:00:00	7	Dirección del viento	9.66
17651	7	Sololá	710	Panajachel	8	Panajachel	2	Febrero	2023-03-02T00:00:00	2024-11-08T15:00:00	1	Precipitación	0
17652	7	Sololá	710	Panajachel	8	Panajachel	2	Febrero	2023-03-02T00:00:00	2024-11-08T15:00:00	8	Radiación solar	472
17653	7	Sololá	710	Panajachel	8	Panajachel	2	Febrero	2023-03-02T00:00:00	2024-11-08T16:00:00	2	Temperatura media	19.4
17654	7	Sololá	710	Panajachel	8	Panajachel	2	Febrero	2023-03-02T00:00:00	2024-11-08T16:00:00	4	Temperatura máxima	19.8
17655	7	Sololá	710	Panajachel	8	Panajachel	2	Febrero	2023-03-02T00:00:00	2024-11-08T16:00:00	3	Temperatura mínima	19.2
17656	7	Sololá	710	Panajachel	8	Panajachel	2	Febrero	2023-03-02T00:00:00	2024-11-08T16:00:00	5	Humedad	62
17657	7	Sololá	710	Panajachel	8	Panajachel	2	Febrero	2023-03-02T00:00:00	2024-11-08T16:00:00	6	Velocidad del viento	11.3
17658	7	Sololá	710	Panajachel	8	Panajachel	2	Febrero	2023-03-02T00:00:00	2024-11-08T16:00:00	7	Dirección del viento	11.27
17659	7	Sololá	710	Panajachel	8	Panajachel	2	Febrero	2023-03-02T00:00:00	2024-11-08T16:00:00	1	Precipitación	0
17660	7	Sololá	710	Panajachel	8	Panajachel	2	Febrero	2023-03-02T00:00:00	2024-11-08T16:00:00	8	Radiación solar	632
17661	7	Sololá	710	Panajachel	8	Panajachel	2	Febrero	2023-03-02T00:00:00	2024-11-08T17:00:00	2	Temperatura media	18.8
17662	7	Sololá	710	Panajachel	8	Panajachel	2	Febrero	2023-03-02T00:00:00	2024-11-08T17:00:00	4	Temperatura máxima	19.4
17663	7	Sololá	710	Panajachel	8	Panajachel	2	Febrero	2023-03-02T00:00:00	2024-11-08T17:00:00	3	Temperatura mínima	18.4
17664	7	Sololá	710	Panajachel	8	Panajachel	2	Febrero	2023-03-02T00:00:00	2024-11-08T17:00:00	5	Humedad	61
17665	7	Sololá	710	Panajachel	8	Panajachel	2	Febrero	2023-03-02T00:00:00	2024-11-08T17:00:00	6	Velocidad del viento	6.4
17666	7	Sololá	710	Panajachel	8	Panajachel	2	Febrero	2023-03-02T00:00:00	2024-11-08T17:00:00	7	Dirección del viento	6.44
17667	7	Sololá	710	Panajachel	8	Panajachel	2	Febrero	2023-03-02T00:00:00	2024-11-08T17:00:00	1	Precipitación	0
17668	7	Sololá	710	Panajachel	8	Panajachel	2	Febrero	2023-03-02T00:00:00	2024-11-08T17:00:00	8	Radiación solar	110
17669	7	Sololá	710	Panajachel	8	Panajachel	2	Febrero	2023-03-02T00:00:00	2024-11-08T18:00:00	2	Temperatura media	17.7
17670	7	Sololá	710	Panajachel	8	Panajachel	2	Febrero	2023-03-02T00:00:00	2024-11-08T18:00:00	4	Temperatura máxima	18.8
17671	7	Sololá	710	Panajachel	8	Panajachel	2	Febrero	2023-03-02T00:00:00	2024-11-08T18:00:00	3	Temperatura mínima	17.7
17672	7	Sololá	710	Panajachel	8	Panajachel	2	Febrero	2023-03-02T00:00:00	2024-11-08T18:00:00	5	Humedad	67
17673	7	Sololá	710	Panajachel	8	Panajachel	2	Febrero	2023-03-02T00:00:00	2024-11-08T18:00:00	6	Velocidad del viento	6.4
17674	7	Sololá	710	Panajachel	8	Panajachel	2	Febrero	2023-03-02T00:00:00	2024-11-08T18:00:00	7	Dirección del viento	6.44
17675	7	Sololá	710	Panajachel	8	Panajachel	2	Febrero	2023-03-02T00:00:00	2024-11-08T18:00:00	1	Precipitación	0
17676	7	Sololá	710	Panajachel	8	Panajachel	2	Febrero	2023-03-02T00:00:00	2024-11-08T18:00:00	8	Radiación solar	51
17677	7	Sololá	710	Panajachel	8	Panajachel	2	Febrero	2023-03-02T00:00:00	2024-11-08T19:00:00	2	Temperatura media	17.3
17678	7	Sololá	710	Panajachel	8	Panajachel	2	Febrero	2023-03-02T00:00:00	2024-11-08T19:00:00	4	Temperatura máxima	17.7
17679	7	Sololá	710	Panajachel	8	Panajachel	2	Febrero	2023-03-02T00:00:00	2024-11-08T19:00:00	3	Temperatura mínima	17.1
17680	7	Sololá	710	Panajachel	8	Panajachel	2	Febrero	2023-03-02T00:00:00	2024-11-08T19:00:00	5	Humedad	67
17681	7	Sololá	710	Panajachel	8	Panajachel	2	Febrero	2023-03-02T00:00:00	2024-11-08T19:00:00	6	Velocidad del viento	6.4
17682	7	Sololá	710	Panajachel	8	Panajachel	2	Febrero	2023-03-02T00:00:00	2024-11-08T19:00:00	7	Dirección del viento	6.44
17683	7	Sololá	710	Panajachel	8	Panajachel	2	Febrero	2023-03-02T00:00:00	2024-11-08T19:00:00	1	Precipitación	0
17684	7	Sololá	710	Panajachel	8	Panajachel	2	Febrero	2023-03-02T00:00:00	2024-11-08T19:00:00	8	Radiación solar	0
17685	7	Sololá	710	Panajachel	8	Panajachel	2	Febrero	2023-03-02T00:00:00	2024-11-08T20:00:00	2	Temperatura media	17.1
17686	7	Sololá	710	Panajachel	8	Panajachel	2	Febrero	2023-03-02T00:00:00	2024-11-08T20:00:00	4	Temperatura máxima	17.3
17687	7	Sololá	710	Panajachel	8	Panajachel	2	Febrero	2023-03-02T00:00:00	2024-11-08T20:00:00	3	Temperatura mínima	17
17688	7	Sololá	710	Panajachel	8	Panajachel	2	Febrero	2023-03-02T00:00:00	2024-11-08T20:00:00	5	Humedad	68
17689	7	Sololá	710	Panajachel	8	Panajachel	2	Febrero	2023-03-02T00:00:00	2024-11-08T20:00:00	6	Velocidad del viento	9.7
17690	7	Sololá	710	Panajachel	8	Panajachel	2	Febrero	2023-03-02T00:00:00	2024-11-08T20:00:00	7	Dirección del viento	9.66
17691	7	Sololá	710	Panajachel	8	Panajachel	2	Febrero	2023-03-02T00:00:00	2024-11-08T20:00:00	1	Precipitación	0
17692	7	Sololá	710	Panajachel	8	Panajachel	2	Febrero	2023-03-02T00:00:00	2024-11-08T20:00:00	8	Radiación solar	0
17693	7	Sololá	710	Panajachel	8	Panajachel	2	Febrero	2023-03-02T00:00:00	2024-11-08T21:00:00	2	Temperatura media	17.2
17694	7	Sololá	710	Panajachel	8	Panajachel	2	Febrero	2023-03-02T00:00:00	2024-11-08T21:00:00	4	Temperatura máxima	17.3
17695	7	Sololá	710	Panajachel	8	Panajachel	2	Febrero	2023-03-02T00:00:00	2024-11-08T21:00:00	3	Temperatura mínima	16.8
17696	7	Sololá	710	Panajachel	8	Panajachel	2	Febrero	2023-03-02T00:00:00	2024-11-08T21:00:00	5	Humedad	67
17697	7	Sololá	710	Panajachel	8	Panajachel	2	Febrero	2023-03-02T00:00:00	2024-11-08T21:00:00	6	Velocidad del viento	4.8
17698	7	Sololá	710	Panajachel	8	Panajachel	2	Febrero	2023-03-02T00:00:00	2024-11-08T21:00:00	7	Dirección del viento	4.83
17699	7	Sololá	710	Panajachel	8	Panajachel	2	Febrero	2023-03-02T00:00:00	2024-11-08T21:00:00	1	Precipitación	0
17700	7	Sololá	710	Panajachel	8	Panajachel	2	Febrero	2023-03-02T00:00:00	2024-11-08T21:00:00	8	Radiación solar	0
17701	7	Sololá	710	Panajachel	8	Panajachel	2	Febrero	2023-03-02T00:00:00	2024-11-08T22:00:00	2	Temperatura media	16.9
17702	7	Sololá	710	Panajachel	8	Panajachel	2	Febrero	2023-03-02T00:00:00	2024-11-08T22:00:00	4	Temperatura máxima	17.2
17703	7	Sololá	710	Panajachel	8	Panajachel	2	Febrero	2023-03-02T00:00:00	2024-11-08T22:00:00	3	Temperatura mínima	16.8
17704	7	Sololá	710	Panajachel	8	Panajachel	2	Febrero	2023-03-02T00:00:00	2024-11-08T22:00:00	5	Humedad	69
17705	7	Sololá	710	Panajachel	8	Panajachel	2	Febrero	2023-03-02T00:00:00	2024-11-08T22:00:00	6	Velocidad del viento	6.4
17706	7	Sololá	710	Panajachel	8	Panajachel	2	Febrero	2023-03-02T00:00:00	2024-11-08T22:00:00	7	Dirección del viento	6.44
17707	7	Sololá	710	Panajachel	8	Panajachel	2	Febrero	2023-03-02T00:00:00	2024-11-08T22:00:00	1	Precipitación	0
17708	7	Sololá	710	Panajachel	8	Panajachel	2	Febrero	2023-03-02T00:00:00	2024-11-08T22:00:00	8	Radiación solar	0
17709	7	Sololá	710	Panajachel	8	Panajachel	2	Febrero	2023-03-02T00:00:00	2024-11-08T23:00:00	2	Temperatura media	16.6
17710	7	Sololá	710	Panajachel	8	Panajachel	2	Febrero	2023-03-02T00:00:00	2024-11-08T23:00:00	4	Temperatura máxima	16.9
17711	7	Sololá	710	Panajachel	8	Panajachel	2	Febrero	2023-03-02T00:00:00	2024-11-08T23:00:00	3	Temperatura mínima	16.6
17712	7	Sololá	710	Panajachel	8	Panajachel	2	Febrero	2023-03-02T00:00:00	2024-11-08T23:00:00	5	Humedad	73
17713	7	Sololá	710	Panajachel	8	Panajachel	2	Febrero	2023-03-02T00:00:00	2024-11-08T23:00:00	6	Velocidad del viento	3.2
17714	7	Sololá	710	Panajachel	8	Panajachel	2	Febrero	2023-03-02T00:00:00	2024-11-08T23:00:00	7	Dirección del viento	3.22
17715	7	Sololá	710	Panajachel	8	Panajachel	2	Febrero	2023-03-02T00:00:00	2024-11-08T23:00:00	1	Precipitación	0
17716	7	Sololá	710	Panajachel	8	Panajachel	2	Febrero	2023-03-02T00:00:00	2024-11-08T23:00:00	8	Radiación solar	0
17717	7	Sololá	710	Panajachel	8	Panajachel	2	Febrero	2023-04-02T00:00:00	2024-11-08T00:00:00	2	Temperatura media	16.7
17718	7	Sololá	710	Panajachel	8	Panajachel	2	Febrero	2023-04-02T00:00:00	2024-11-08T00:00:00	4	Temperatura máxima	16.7
17719	7	Sololá	710	Panajachel	8	Panajachel	2	Febrero	2023-04-02T00:00:00	2024-11-08T00:00:00	3	Temperatura mínima	16.3
17720	7	Sololá	710	Panajachel	8	Panajachel	2	Febrero	2023-04-02T00:00:00	2024-11-08T00:00:00	5	Humedad	74
17721	7	Sololá	710	Panajachel	8	Panajachel	2	Febrero	2023-04-02T00:00:00	2024-11-08T00:00:00	6	Velocidad del viento	4.8
17722	7	Sololá	710	Panajachel	8	Panajachel	2	Febrero	2023-04-02T00:00:00	2024-11-08T00:00:00	7	Dirección del viento	4.83
17723	7	Sololá	710	Panajachel	8	Panajachel	2	Febrero	2023-04-02T00:00:00	2024-11-08T00:00:00	1	Precipitación	0
17724	7	Sololá	710	Panajachel	8	Panajachel	2	Febrero	2023-04-02T00:00:00	2024-11-08T00:00:00	8	Radiación solar	0
17725	7	Sololá	710	Panajachel	8	Panajachel	2	Febrero	2023-04-02T00:00:00	2024-11-08T01:00:00	2	Temperatura media	17.3
17726	7	Sololá	710	Panajachel	8	Panajachel	2	Febrero	2023-04-02T00:00:00	2024-11-08T01:00:00	4	Temperatura máxima	17.3
17727	7	Sololá	710	Panajachel	8	Panajachel	2	Febrero	2023-04-02T00:00:00	2024-11-08T01:00:00	3	Temperatura mínima	16.6
17728	7	Sololá	710	Panajachel	8	Panajachel	2	Febrero	2023-04-02T00:00:00	2024-11-08T01:00:00	5	Humedad	73
17729	7	Sololá	710	Panajachel	8	Panajachel	2	Febrero	2023-04-02T00:00:00	2024-11-08T01:00:00	6	Velocidad del viento	4.8
17730	7	Sololá	710	Panajachel	8	Panajachel	2	Febrero	2023-04-02T00:00:00	2024-11-08T01:00:00	7	Dirección del viento	4.83
17731	7	Sololá	710	Panajachel	8	Panajachel	2	Febrero	2023-04-02T00:00:00	2024-11-08T01:00:00	1	Precipitación	0
17732	7	Sololá	710	Panajachel	8	Panajachel	2	Febrero	2023-04-02T00:00:00	2024-11-08T01:00:00	8	Radiación solar	0
17733	7	Sololá	710	Panajachel	8	Panajachel	2	Febrero	2023-04-02T00:00:00	2024-11-08T02:00:00	2	Temperatura media	17.1
17734	7	Sololá	710	Panajachel	8	Panajachel	2	Febrero	2023-04-02T00:00:00	2024-11-08T02:00:00	4	Temperatura máxima	17.4
17735	7	Sololá	710	Panajachel	8	Panajachel	2	Febrero	2023-04-02T00:00:00	2024-11-08T02:00:00	3	Temperatura mínima	17
17736	7	Sololá	710	Panajachel	8	Panajachel	2	Febrero	2023-04-02T00:00:00	2024-11-08T02:00:00	5	Humedad	74
17737	7	Sololá	710	Panajachel	8	Panajachel	2	Febrero	2023-04-02T00:00:00	2024-11-08T02:00:00	6	Velocidad del viento	4.8
17738	7	Sololá	710	Panajachel	8	Panajachel	2	Febrero	2023-04-02T00:00:00	2024-11-08T02:00:00	7	Dirección del viento	4.83
17739	7	Sololá	710	Panajachel	8	Panajachel	2	Febrero	2023-04-02T00:00:00	2024-11-08T02:00:00	1	Precipitación	0
17740	7	Sololá	710	Panajachel	8	Panajachel	2	Febrero	2023-04-02T00:00:00	2024-11-08T02:00:00	8	Radiación solar	0
17741	7	Sololá	710	Panajachel	8	Panajachel	2	Febrero	2023-04-02T00:00:00	2024-11-08T03:00:00	2	Temperatura media	16.8
17742	7	Sololá	710	Panajachel	8	Panajachel	2	Febrero	2023-04-02T00:00:00	2024-11-08T03:00:00	4	Temperatura máxima	17.2
17743	7	Sololá	710	Panajachel	8	Panajachel	2	Febrero	2023-04-02T00:00:00	2024-11-08T03:00:00	3	Temperatura mínima	16.7
17744	7	Sololá	710	Panajachel	8	Panajachel	2	Febrero	2023-04-02T00:00:00	2024-11-08T03:00:00	5	Humedad	74
17745	7	Sololá	710	Panajachel	8	Panajachel	2	Febrero	2023-04-02T00:00:00	2024-11-08T03:00:00	6	Velocidad del viento	6.4
17746	7	Sololá	710	Panajachel	8	Panajachel	2	Febrero	2023-04-02T00:00:00	2024-11-08T03:00:00	7	Dirección del viento	6.44
17747	7	Sololá	710	Panajachel	8	Panajachel	2	Febrero	2023-04-02T00:00:00	2024-11-08T03:00:00	1	Precipitación	0
17748	7	Sololá	710	Panajachel	8	Panajachel	2	Febrero	2023-04-02T00:00:00	2024-11-08T03:00:00	8	Radiación solar	0
17749	7	Sololá	710	Panajachel	8	Panajachel	2	Febrero	2023-04-02T00:00:00	2024-11-08T04:00:00	2	Temperatura media	17.1
17750	7	Sololá	710	Panajachel	8	Panajachel	2	Febrero	2023-04-02T00:00:00	2024-11-08T04:00:00	4	Temperatura máxima	17.2
17751	7	Sololá	710	Panajachel	8	Panajachel	2	Febrero	2023-04-02T00:00:00	2024-11-08T04:00:00	3	Temperatura mínima	16.7
17752	7	Sololá	710	Panajachel	8	Panajachel	2	Febrero	2023-04-02T00:00:00	2024-11-08T04:00:00	5	Humedad	73
17753	7	Sololá	710	Panajachel	8	Panajachel	2	Febrero	2023-04-02T00:00:00	2024-11-08T04:00:00	6	Velocidad del viento	6.4
17754	7	Sololá	710	Panajachel	8	Panajachel	2	Febrero	2023-04-02T00:00:00	2024-11-08T04:00:00	7	Dirección del viento	6.44
17755	7	Sololá	710	Panajachel	8	Panajachel	2	Febrero	2023-04-02T00:00:00	2024-11-08T04:00:00	1	Precipitación	0
17756	7	Sololá	710	Panajachel	8	Panajachel	2	Febrero	2023-04-02T00:00:00	2024-11-08T04:00:00	8	Radiación solar	0
17757	7	Sololá	710	Panajachel	8	Panajachel	2	Febrero	2023-04-02T00:00:00	2024-11-08T05:00:00	2	Temperatura media	16.8
17758	7	Sololá	710	Panajachel	8	Panajachel	2	Febrero	2023-04-02T00:00:00	2024-11-08T05:00:00	4	Temperatura máxima	17.2
17759	7	Sololá	710	Panajachel	8	Panajachel	2	Febrero	2023-04-02T00:00:00	2024-11-08T05:00:00	3	Temperatura mínima	16.8
17760	7	Sololá	710	Panajachel	8	Panajachel	2	Febrero	2023-04-02T00:00:00	2024-11-08T05:00:00	5	Humedad	74
17761	7	Sololá	710	Panajachel	8	Panajachel	2	Febrero	2023-04-02T00:00:00	2024-11-08T05:00:00	6	Velocidad del viento	6.4
17762	7	Sololá	710	Panajachel	8	Panajachel	2	Febrero	2023-04-02T00:00:00	2024-11-08T05:00:00	7	Dirección del viento	6.44
17763	7	Sololá	710	Panajachel	8	Panajachel	2	Febrero	2023-04-02T00:00:00	2024-11-08T05:00:00	1	Precipitación	0
17764	7	Sololá	710	Panajachel	8	Panajachel	2	Febrero	2023-04-02T00:00:00	2024-11-08T05:00:00	8	Radiación solar	0
17765	7	Sololá	710	Panajachel	8	Panajachel	2	Febrero	2023-04-02T00:00:00	2024-11-08T06:00:00	2	Temperatura media	16.6
17766	7	Sololá	710	Panajachel	8	Panajachel	2	Febrero	2023-04-02T00:00:00	2024-11-08T06:00:00	4	Temperatura máxima	16.8
17767	7	Sololá	710	Panajachel	8	Panajachel	2	Febrero	2023-04-02T00:00:00	2024-11-08T06:00:00	3	Temperatura mínima	16.6
17768	7	Sololá	710	Panajachel	8	Panajachel	2	Febrero	2023-04-02T00:00:00	2024-11-08T06:00:00	5	Humedad	74
17769	7	Sololá	710	Panajachel	8	Panajachel	2	Febrero	2023-04-02T00:00:00	2024-11-08T06:00:00	6	Velocidad del viento	4.8
17770	7	Sololá	710	Panajachel	8	Panajachel	2	Febrero	2023-04-02T00:00:00	2024-11-08T06:00:00	7	Dirección del viento	4.83
17771	7	Sololá	710	Panajachel	8	Panajachel	2	Febrero	2023-04-02T00:00:00	2024-11-08T06:00:00	1	Precipitación	0
17772	7	Sololá	710	Panajachel	8	Panajachel	2	Febrero	2023-04-02T00:00:00	2024-11-08T06:00:00	8	Radiación solar	0
17773	7	Sololá	710	Panajachel	8	Panajachel	2	Febrero	2023-04-02T00:00:00	2024-11-08T07:00:00	2	Temperatura media	16.8
17774	7	Sololá	710	Panajachel	8	Panajachel	2	Febrero	2023-04-02T00:00:00	2024-11-08T07:00:00	4	Temperatura máxima	16.8
17775	7	Sololá	710	Panajachel	8	Panajachel	2	Febrero	2023-04-02T00:00:00	2024-11-08T07:00:00	3	Temperatura mínima	16.5
17776	7	Sololá	710	Panajachel	8	Panajachel	2	Febrero	2023-04-02T00:00:00	2024-11-08T07:00:00	5	Humedad	73
17777	7	Sololá	710	Panajachel	8	Panajachel	2	Febrero	2023-04-02T00:00:00	2024-11-08T07:00:00	6	Velocidad del viento	4.8
17778	7	Sololá	710	Panajachel	8	Panajachel	2	Febrero	2023-04-02T00:00:00	2024-11-08T07:00:00	7	Dirección del viento	4.83
17779	7	Sololá	710	Panajachel	8	Panajachel	2	Febrero	2023-04-02T00:00:00	2024-11-08T07:00:00	1	Precipitación	0
17780	7	Sololá	710	Panajachel	8	Panajachel	2	Febrero	2023-04-02T00:00:00	2024-11-08T07:00:00	8	Radiación solar	3
17781	7	Sololá	710	Panajachel	8	Panajachel	2	Febrero	2023-04-02T00:00:00	2024-11-08T08:00:00	2	Temperatura media	16.7
17782	7	Sololá	710	Panajachel	8	Panajachel	2	Febrero	2023-04-02T00:00:00	2024-11-08T08:00:00	4	Temperatura máxima	16.8
17783	7	Sololá	710	Panajachel	8	Panajachel	2	Febrero	2023-04-02T00:00:00	2024-11-08T08:00:00	3	Temperatura mínima	16.4
17784	7	Sololá	710	Panajachel	8	Panajachel	2	Febrero	2023-04-02T00:00:00	2024-11-08T08:00:00	5	Humedad	71
17785	7	Sololá	710	Panajachel	8	Panajachel	2	Febrero	2023-04-02T00:00:00	2024-11-08T08:00:00	6	Velocidad del viento	9.7
17786	7	Sololá	710	Panajachel	8	Panajachel	2	Febrero	2023-04-02T00:00:00	2024-11-08T08:00:00	7	Dirección del viento	9.66
17787	7	Sololá	710	Panajachel	8	Panajachel	2	Febrero	2023-04-02T00:00:00	2024-11-08T08:00:00	1	Precipitación	0
17788	7	Sololá	710	Panajachel	8	Panajachel	2	Febrero	2023-04-02T00:00:00	2024-11-08T08:00:00	8	Radiación solar	37
17789	7	Sololá	710	Panajachel	8	Panajachel	2	Febrero	2023-04-02T00:00:00	2024-11-08T09:00:00	2	Temperatura media	18.6
17790	7	Sololá	710	Panajachel	8	Panajachel	2	Febrero	2023-04-02T00:00:00	2024-11-08T09:00:00	4	Temperatura máxima	18.6
17791	7	Sololá	710	Panajachel	8	Panajachel	2	Febrero	2023-04-02T00:00:00	2024-11-08T09:00:00	3	Temperatura mínima	16.7
17792	7	Sololá	710	Panajachel	8	Panajachel	2	Febrero	2023-04-02T00:00:00	2024-11-08T09:00:00	5	Humedad	62
17793	7	Sololá	710	Panajachel	8	Panajachel	2	Febrero	2023-04-02T00:00:00	2024-11-08T09:00:00	6	Velocidad del viento	11.3
17794	7	Sololá	710	Panajachel	8	Panajachel	2	Febrero	2023-04-02T00:00:00	2024-11-08T09:00:00	7	Dirección del viento	11.27
17795	7	Sololá	710	Panajachel	8	Panajachel	2	Febrero	2023-04-02T00:00:00	2024-11-08T09:00:00	1	Precipitación	0
17796	7	Sololá	710	Panajachel	8	Panajachel	2	Febrero	2023-04-02T00:00:00	2024-11-08T09:00:00	8	Radiación solar	390
17797	7	Sololá	710	Panajachel	8	Panajachel	2	Febrero	2023-04-02T00:00:00	2024-11-08T10:00:00	2	Temperatura media	19.6
17798	7	Sololá	710	Panajachel	8	Panajachel	2	Febrero	2023-04-02T00:00:00	2024-11-08T10:00:00	4	Temperatura máxima	19.6
17799	7	Sololá	710	Panajachel	8	Panajachel	2	Febrero	2023-04-02T00:00:00	2024-11-08T10:00:00	3	Temperatura mínima	18.6
17800	7	Sololá	710	Panajachel	8	Panajachel	2	Febrero	2023-04-02T00:00:00	2024-11-08T10:00:00	5	Humedad	58
17801	7	Sololá	710	Panajachel	8	Panajachel	2	Febrero	2023-04-02T00:00:00	2024-11-08T10:00:00	6	Velocidad del viento	16.1
17802	7	Sololá	710	Panajachel	8	Panajachel	2	Febrero	2023-04-02T00:00:00	2024-11-08T10:00:00	7	Dirección del viento	16.09
17803	7	Sololá	710	Panajachel	8	Panajachel	2	Febrero	2023-04-02T00:00:00	2024-11-08T10:00:00	1	Precipitación	0
17804	7	Sololá	710	Panajachel	8	Panajachel	2	Febrero	2023-04-02T00:00:00	2024-11-08T10:00:00	8	Radiación solar	598
17805	7	Sololá	710	Panajachel	8	Panajachel	2	Febrero	2023-04-02T00:00:00	2024-11-08T11:00:00	2	Temperatura media	21.2
17806	7	Sololá	710	Panajachel	8	Panajachel	2	Febrero	2023-04-02T00:00:00	2024-11-08T11:00:00	4	Temperatura máxima	21.2
17807	7	Sololá	710	Panajachel	8	Panajachel	2	Febrero	2023-04-02T00:00:00	2024-11-08T11:00:00	3	Temperatura mínima	19.6
17808	7	Sololá	710	Panajachel	8	Panajachel	2	Febrero	2023-04-02T00:00:00	2024-11-08T11:00:00	5	Humedad	59
17809	7	Sololá	710	Panajachel	8	Panajachel	2	Febrero	2023-04-02T00:00:00	2024-11-08T11:00:00	6	Velocidad del viento	14.5
17810	7	Sololá	710	Panajachel	8	Panajachel	2	Febrero	2023-04-02T00:00:00	2024-11-08T11:00:00	7	Dirección del viento	14.48
17811	7	Sololá	710	Panajachel	8	Panajachel	2	Febrero	2023-04-02T00:00:00	2024-11-08T11:00:00	1	Precipitación	0
17812	7	Sololá	710	Panajachel	8	Panajachel	2	Febrero	2023-04-02T00:00:00	2024-11-08T11:00:00	8	Radiación solar	783
17813	7	Sololá	710	Panajachel	8	Panajachel	2	Febrero	2023-04-02T00:00:00	2024-11-08T12:00:00	2	Temperatura media	22.6
17814	7	Sololá	710	Panajachel	8	Panajachel	2	Febrero	2023-04-02T00:00:00	2024-11-08T12:00:00	4	Temperatura máxima	22.6
17815	7	Sololá	710	Panajachel	8	Panajachel	2	Febrero	2023-04-02T00:00:00	2024-11-08T12:00:00	3	Temperatura mínima	21.2
17816	7	Sololá	710	Panajachel	8	Panajachel	2	Febrero	2023-04-02T00:00:00	2024-11-08T12:00:00	5	Humedad	55
17817	7	Sololá	710	Panajachel	8	Panajachel	2	Febrero	2023-04-02T00:00:00	2024-11-08T12:00:00	6	Velocidad del viento	12.9
17818	7	Sololá	710	Panajachel	8	Panajachel	2	Febrero	2023-04-02T00:00:00	2024-11-08T12:00:00	7	Dirección del viento	12.87
17819	7	Sololá	710	Panajachel	8	Panajachel	2	Febrero	2023-04-02T00:00:00	2024-11-08T12:00:00	1	Precipitación	0
17820	7	Sololá	710	Panajachel	8	Panajachel	2	Febrero	2023-04-02T00:00:00	2024-11-08T12:00:00	8	Radiación solar	862
17821	7	Sololá	710	Panajachel	8	Panajachel	2	Febrero	2023-04-02T00:00:00	2024-11-08T13:00:00	2	Temperatura media	22.3
17822	7	Sololá	710	Panajachel	8	Panajachel	2	Febrero	2023-04-02T00:00:00	2024-11-08T13:00:00	4	Temperatura máxima	22.9
17823	7	Sololá	710	Panajachel	8	Panajachel	2	Febrero	2023-04-02T00:00:00	2024-11-08T13:00:00	3	Temperatura mínima	21.9
17824	7	Sololá	710	Panajachel	8	Panajachel	2	Febrero	2023-04-02T00:00:00	2024-11-08T13:00:00	5	Humedad	57
17825	7	Sololá	710	Panajachel	8	Panajachel	2	Febrero	2023-04-02T00:00:00	2024-11-08T13:00:00	6	Velocidad del viento	9.7
17826	7	Sololá	710	Panajachel	8	Panajachel	2	Febrero	2023-04-02T00:00:00	2024-11-08T13:00:00	7	Dirección del viento	9.66
17827	7	Sololá	710	Panajachel	8	Panajachel	2	Febrero	2023-04-02T00:00:00	2024-11-08T13:00:00	1	Precipitación	0
17828	7	Sololá	710	Panajachel	8	Panajachel	2	Febrero	2023-04-02T00:00:00	2024-11-08T13:00:00	8	Radiación solar	867
17829	7	Sololá	710	Panajachel	8	Panajachel	2	Febrero	2023-04-02T00:00:00	2024-11-08T14:00:00	2	Temperatura media	23.4
17830	7	Sololá	710	Panajachel	8	Panajachel	2	Febrero	2023-04-02T00:00:00	2024-11-08T14:00:00	4	Temperatura máxima	23.6
17831	7	Sololá	710	Panajachel	8	Panajachel	2	Febrero	2023-04-02T00:00:00	2024-11-08T14:00:00	3	Temperatura mínima	22.3
17832	7	Sololá	710	Panajachel	8	Panajachel	2	Febrero	2023-04-02T00:00:00	2024-11-08T14:00:00	5	Humedad	55
17833	7	Sololá	710	Panajachel	8	Panajachel	2	Febrero	2023-04-02T00:00:00	2024-11-08T14:00:00	6	Velocidad del viento	9.7
17834	7	Sololá	710	Panajachel	8	Panajachel	2	Febrero	2023-04-02T00:00:00	2024-11-08T14:00:00	7	Dirección del viento	9.66
17835	7	Sololá	710	Panajachel	8	Panajachel	2	Febrero	2023-04-02T00:00:00	2024-11-08T14:00:00	1	Precipitación	0
17836	7	Sololá	710	Panajachel	8	Panajachel	2	Febrero	2023-04-02T00:00:00	2024-11-08T14:00:00	8	Radiación solar	864
17837	7	Sololá	710	Panajachel	8	Panajachel	2	Febrero	2023-04-02T00:00:00	2024-11-08T15:00:00	2	Temperatura media	23.6
17838	7	Sololá	710	Panajachel	8	Panajachel	2	Febrero	2023-04-02T00:00:00	2024-11-08T15:00:00	4	Temperatura máxima	24.1
17839	7	Sololá	710	Panajachel	8	Panajachel	2	Febrero	2023-04-02T00:00:00	2024-11-08T15:00:00	3	Temperatura mínima	23.2
17840	7	Sololá	710	Panajachel	8	Panajachel	2	Febrero	2023-04-02T00:00:00	2024-11-08T15:00:00	5	Humedad	53
17841	7	Sololá	710	Panajachel	8	Panajachel	2	Febrero	2023-04-02T00:00:00	2024-11-08T15:00:00	6	Velocidad del viento	9.7
17842	7	Sololá	710	Panajachel	8	Panajachel	2	Febrero	2023-04-02T00:00:00	2024-11-08T15:00:00	7	Dirección del viento	9.66
17843	7	Sololá	710	Panajachel	8	Panajachel	2	Febrero	2023-04-02T00:00:00	2024-11-08T15:00:00	1	Precipitación	0
17844	7	Sololá	710	Panajachel	8	Panajachel	2	Febrero	2023-04-02T00:00:00	2024-11-08T15:00:00	8	Radiación solar	718
17845	7	Sololá	710	Panajachel	8	Panajachel	2	Febrero	2023-04-02T00:00:00	2024-11-08T16:00:00	2	Temperatura media	22.8
17846	7	Sololá	710	Panajachel	8	Panajachel	2	Febrero	2023-04-02T00:00:00	2024-11-08T16:00:00	4	Temperatura máxima	23.7
17847	7	Sololá	710	Panajachel	8	Panajachel	2	Febrero	2023-04-02T00:00:00	2024-11-08T16:00:00	3	Temperatura mínima	22.8
17848	7	Sololá	710	Panajachel	8	Panajachel	2	Febrero	2023-04-02T00:00:00	2024-11-08T16:00:00	5	Humedad	55
17849	7	Sololá	710	Panajachel	8	Panajachel	2	Febrero	2023-04-02T00:00:00	2024-11-08T16:00:00	6	Velocidad del viento	9.7
17850	7	Sololá	710	Panajachel	8	Panajachel	2	Febrero	2023-04-02T00:00:00	2024-11-08T16:00:00	7	Dirección del viento	9.66
17851	7	Sololá	710	Panajachel	8	Panajachel	2	Febrero	2023-04-02T00:00:00	2024-11-08T16:00:00	1	Precipitación	0
17852	7	Sololá	710	Panajachel	8	Panajachel	2	Febrero	2023-04-02T00:00:00	2024-11-08T16:00:00	8	Radiación solar	540
17853	7	Sololá	710	Panajachel	8	Panajachel	2	Febrero	2023-04-02T00:00:00	2024-11-08T17:00:00	2	Temperatura media	22.5
17854	7	Sololá	710	Panajachel	8	Panajachel	2	Febrero	2023-04-02T00:00:00	2024-11-08T17:00:00	4	Temperatura máxima	23.4
17855	7	Sololá	710	Panajachel	8	Panajachel	2	Febrero	2023-04-02T00:00:00	2024-11-08T17:00:00	3	Temperatura mínima	22.3
17856	7	Sololá	710	Panajachel	8	Panajachel	2	Febrero	2023-04-02T00:00:00	2024-11-08T17:00:00	5	Humedad	56
17857	7	Sololá	710	Panajachel	8	Panajachel	2	Febrero	2023-04-02T00:00:00	2024-11-08T17:00:00	6	Velocidad del viento	6.4
17858	7	Sololá	710	Panajachel	8	Panajachel	2	Febrero	2023-04-02T00:00:00	2024-11-08T17:00:00	7	Dirección del viento	6.44
17859	7	Sololá	710	Panajachel	8	Panajachel	2	Febrero	2023-04-02T00:00:00	2024-11-08T17:00:00	1	Precipitación	0
17860	7	Sololá	710	Panajachel	8	Panajachel	2	Febrero	2023-04-02T00:00:00	2024-11-08T17:00:00	8	Radiación solar	323
17861	7	Sololá	710	Panajachel	8	Panajachel	2	Febrero	2023-04-02T00:00:00	2024-11-08T18:00:00	2	Temperatura media	20.2
17862	7	Sololá	710	Panajachel	8	Panajachel	2	Febrero	2023-04-02T00:00:00	2024-11-08T18:00:00	4	Temperatura máxima	22.5
17863	7	Sololá	710	Panajachel	8	Panajachel	2	Febrero	2023-04-02T00:00:00	2024-11-08T18:00:00	3	Temperatura mínima	20.2
17864	7	Sololá	710	Panajachel	8	Panajachel	2	Febrero	2023-04-02T00:00:00	2024-11-08T18:00:00	5	Humedad	62
17865	7	Sololá	710	Panajachel	8	Panajachel	2	Febrero	2023-04-02T00:00:00	2024-11-08T18:00:00	6	Velocidad del viento	9.7
17866	7	Sololá	710	Panajachel	8	Panajachel	2	Febrero	2023-04-02T00:00:00	2024-11-08T18:00:00	7	Dirección del viento	9.66
17867	7	Sololá	710	Panajachel	8	Panajachel	2	Febrero	2023-04-02T00:00:00	2024-11-08T18:00:00	1	Precipitación	0
17868	7	Sololá	710	Panajachel	8	Panajachel	2	Febrero	2023-04-02T00:00:00	2024-11-08T18:00:00	8	Radiación solar	81
17869	7	Sololá	710	Panajachel	8	Panajachel	2	Febrero	2023-04-02T00:00:00	2024-11-08T19:00:00	2	Temperatura media	19.1
17870	7	Sololá	710	Panajachel	8	Panajachel	2	Febrero	2023-04-02T00:00:00	2024-11-08T19:00:00	4	Temperatura máxima	20.2
17871	7	Sololá	710	Panajachel	8	Panajachel	2	Febrero	2023-04-02T00:00:00	2024-11-08T19:00:00	3	Temperatura mínima	19
17872	7	Sololá	710	Panajachel	8	Panajachel	2	Febrero	2023-04-02T00:00:00	2024-11-08T19:00:00	5	Humedad	68
17873	7	Sololá	710	Panajachel	8	Panajachel	2	Febrero	2023-04-02T00:00:00	2024-11-08T19:00:00	6	Velocidad del viento	11.3
17874	7	Sololá	710	Panajachel	8	Panajachel	2	Febrero	2023-04-02T00:00:00	2024-11-08T19:00:00	7	Dirección del viento	11.27
17875	7	Sololá	710	Panajachel	8	Panajachel	2	Febrero	2023-04-02T00:00:00	2024-11-08T19:00:00	1	Precipitación	0
17876	7	Sololá	710	Panajachel	8	Panajachel	2	Febrero	2023-04-02T00:00:00	2024-11-08T19:00:00	8	Radiación solar	0
17877	7	Sololá	710	Panajachel	8	Panajachel	2	Febrero	2023-04-02T00:00:00	2024-11-08T20:00:00	2	Temperatura media	18.8
17878	7	Sololá	710	Panajachel	8	Panajachel	2	Febrero	2023-04-02T00:00:00	2024-11-08T20:00:00	4	Temperatura máxima	19.2
17879	7	Sololá	710	Panajachel	8	Panajachel	2	Febrero	2023-04-02T00:00:00	2024-11-08T20:00:00	3	Temperatura mínima	18.8
17880	7	Sololá	710	Panajachel	8	Panajachel	2	Febrero	2023-04-02T00:00:00	2024-11-08T20:00:00	5	Humedad	67
17881	7	Sololá	710	Panajachel	8	Panajachel	2	Febrero	2023-04-02T00:00:00	2024-11-08T20:00:00	6	Velocidad del viento	14.5
17882	7	Sololá	710	Panajachel	8	Panajachel	2	Febrero	2023-04-02T00:00:00	2024-11-08T20:00:00	7	Dirección del viento	14.48
17883	7	Sololá	710	Panajachel	8	Panajachel	2	Febrero	2023-04-02T00:00:00	2024-11-08T20:00:00	1	Precipitación	0
17884	7	Sololá	710	Panajachel	8	Panajachel	2	Febrero	2023-04-02T00:00:00	2024-11-08T20:00:00	8	Radiación solar	0
17885	7	Sololá	710	Panajachel	8	Panajachel	2	Febrero	2023-04-02T00:00:00	2024-11-08T21:00:00	2	Temperatura media	18.9
17886	7	Sololá	710	Panajachel	8	Panajachel	2	Febrero	2023-04-02T00:00:00	2024-11-08T21:00:00	4	Temperatura máxima	18.9
17887	7	Sololá	710	Panajachel	8	Panajachel	2	Febrero	2023-04-02T00:00:00	2024-11-08T21:00:00	3	Temperatura mínima	18.8
17888	7	Sololá	710	Panajachel	8	Panajachel	2	Febrero	2023-04-02T00:00:00	2024-11-08T21:00:00	5	Humedad	64
17889	7	Sololá	710	Panajachel	8	Panajachel	2	Febrero	2023-04-02T00:00:00	2024-11-08T21:00:00	6	Velocidad del viento	14.5
17890	7	Sololá	710	Panajachel	8	Panajachel	2	Febrero	2023-04-02T00:00:00	2024-11-08T21:00:00	7	Dirección del viento	14.48
17891	7	Sololá	710	Panajachel	8	Panajachel	2	Febrero	2023-04-02T00:00:00	2024-11-08T21:00:00	1	Precipitación	0
17892	7	Sololá	710	Panajachel	8	Panajachel	2	Febrero	2023-04-02T00:00:00	2024-11-08T21:00:00	8	Radiación solar	0
17893	7	Sololá	710	Panajachel	8	Panajachel	2	Febrero	2023-04-02T00:00:00	2024-11-08T22:00:00	2	Temperatura media	18.6
17894	7	Sololá	710	Panajachel	8	Panajachel	2	Febrero	2023-04-02T00:00:00	2024-11-08T22:00:00	4	Temperatura máxima	19
17895	7	Sololá	710	Panajachel	8	Panajachel	2	Febrero	2023-04-02T00:00:00	2024-11-08T22:00:00	3	Temperatura mínima	18.5
17896	7	Sololá	710	Panajachel	8	Panajachel	2	Febrero	2023-04-02T00:00:00	2024-11-08T22:00:00	5	Humedad	66
17897	7	Sololá	710	Panajachel	8	Panajachel	2	Febrero	2023-04-02T00:00:00	2024-11-08T22:00:00	6	Velocidad del viento	11.3
17898	7	Sololá	710	Panajachel	8	Panajachel	2	Febrero	2023-04-02T00:00:00	2024-11-08T22:00:00	7	Dirección del viento	11.27
17899	7	Sololá	710	Panajachel	8	Panajachel	2	Febrero	2023-04-02T00:00:00	2024-11-08T22:00:00	1	Precipitación	0
17900	7	Sololá	710	Panajachel	8	Panajachel	2	Febrero	2023-04-02T00:00:00	2024-11-08T22:00:00	8	Radiación solar	0
17901	7	Sololá	710	Panajachel	8	Panajachel	2	Febrero	2023-04-02T00:00:00	2024-11-08T23:00:00	2	Temperatura media	18.5
17902	7	Sololá	710	Panajachel	8	Panajachel	2	Febrero	2023-04-02T00:00:00	2024-11-08T23:00:00	4	Temperatura máxima	18.6
17903	7	Sololá	710	Panajachel	8	Panajachel	2	Febrero	2023-04-02T00:00:00	2024-11-08T23:00:00	3	Temperatura mínima	18.4
17904	7	Sololá	710	Panajachel	8	Panajachel	2	Febrero	2023-04-02T00:00:00	2024-11-08T23:00:00	5	Humedad	66
17905	7	Sololá	710	Panajachel	8	Panajachel	2	Febrero	2023-04-02T00:00:00	2024-11-08T23:00:00	6	Velocidad del viento	11.3
17906	7	Sololá	710	Panajachel	8	Panajachel	2	Febrero	2023-04-02T00:00:00	2024-11-08T23:00:00	7	Dirección del viento	11.27
17907	7	Sololá	710	Panajachel	8	Panajachel	2	Febrero	2023-04-02T00:00:00	2024-11-08T23:00:00	1	Precipitación	0
17908	7	Sololá	710	Panajachel	8	Panajachel	2	Febrero	2023-04-02T00:00:00	2024-11-08T23:00:00	8	Radiación solar	0
17909	7	Sololá	710	Panajachel	8	Panajachel	2	Febrero	2023-05-02T00:00:00	2024-11-08T00:00:00	2	Temperatura media	18.2
17910	7	Sololá	710	Panajachel	8	Panajachel	2	Febrero	2023-05-02T00:00:00	2024-11-08T00:00:00	4	Temperatura máxima	18.6
17911	7	Sololá	710	Panajachel	8	Panajachel	2	Febrero	2023-05-02T00:00:00	2024-11-08T00:00:00	3	Temperatura mínima	18.2
17912	7	Sololá	710	Panajachel	8	Panajachel	2	Febrero	2023-05-02T00:00:00	2024-11-08T00:00:00	5	Humedad	69
17913	7	Sololá	710	Panajachel	8	Panajachel	2	Febrero	2023-05-02T00:00:00	2024-11-08T00:00:00	6	Velocidad del viento	9.7
17914	7	Sololá	710	Panajachel	8	Panajachel	2	Febrero	2023-05-02T00:00:00	2024-11-08T00:00:00	7	Dirección del viento	9.66
17915	7	Sololá	710	Panajachel	8	Panajachel	2	Febrero	2023-05-02T00:00:00	2024-11-08T00:00:00	1	Precipitación	0
17916	7	Sololá	710	Panajachel	8	Panajachel	2	Febrero	2023-05-02T00:00:00	2024-11-08T00:00:00	8	Radiación solar	0
17917	7	Sololá	710	Panajachel	8	Panajachel	2	Febrero	2023-05-02T00:00:00	2024-11-08T01:00:00	2	Temperatura media	18.2
17918	7	Sololá	710	Panajachel	8	Panajachel	2	Febrero	2023-05-02T00:00:00	2024-11-08T01:00:00	4	Temperatura máxima	18.2
17919	7	Sololá	710	Panajachel	8	Panajachel	2	Febrero	2023-05-02T00:00:00	2024-11-08T01:00:00	3	Temperatura mínima	18.1
17920	7	Sololá	710	Panajachel	8	Panajachel	2	Febrero	2023-05-02T00:00:00	2024-11-08T01:00:00	5	Humedad	69
17921	7	Sololá	710	Panajachel	8	Panajachel	2	Febrero	2023-05-02T00:00:00	2024-11-08T01:00:00	6	Velocidad del viento	12.9
17922	7	Sololá	710	Panajachel	8	Panajachel	2	Febrero	2023-05-02T00:00:00	2024-11-08T01:00:00	7	Dirección del viento	12.87
17923	7	Sololá	710	Panajachel	8	Panajachel	2	Febrero	2023-05-02T00:00:00	2024-11-08T01:00:00	1	Precipitación	0
17924	7	Sololá	710	Panajachel	8	Panajachel	2	Febrero	2023-05-02T00:00:00	2024-11-08T01:00:00	8	Radiación solar	0
17925	7	Sololá	710	Panajachel	8	Panajachel	2	Febrero	2023-05-02T00:00:00	2024-11-08T02:00:00	2	Temperatura media	17.8
17926	7	Sololá	710	Panajachel	8	Panajachel	2	Febrero	2023-05-02T00:00:00	2024-11-08T02:00:00	4	Temperatura máxima	18.2
17927	7	Sololá	710	Panajachel	8	Panajachel	2	Febrero	2023-05-02T00:00:00	2024-11-08T02:00:00	3	Temperatura mínima	17.6
17928	7	Sololá	710	Panajachel	8	Panajachel	2	Febrero	2023-05-02T00:00:00	2024-11-08T02:00:00	5	Humedad	70
17929	7	Sololá	710	Panajachel	8	Panajachel	2	Febrero	2023-05-02T00:00:00	2024-11-08T02:00:00	6	Velocidad del viento	9.7
17930	7	Sololá	710	Panajachel	8	Panajachel	2	Febrero	2023-05-02T00:00:00	2024-11-08T02:00:00	7	Dirección del viento	9.66
17931	7	Sololá	710	Panajachel	8	Panajachel	2	Febrero	2023-05-02T00:00:00	2024-11-08T02:00:00	1	Precipitación	0
17932	7	Sololá	710	Panajachel	8	Panajachel	2	Febrero	2023-05-02T00:00:00	2024-11-08T02:00:00	8	Radiación solar	0
17933	7	Sololá	710	Panajachel	8	Panajachel	2	Febrero	2023-05-02T00:00:00	2024-11-08T03:00:00	2	Temperatura media	17.6
17934	7	Sololá	710	Panajachel	8	Panajachel	2	Febrero	2023-05-02T00:00:00	2024-11-08T03:00:00	4	Temperatura máxima	17.8
17935	7	Sololá	710	Panajachel	8	Panajachel	2	Febrero	2023-05-02T00:00:00	2024-11-08T03:00:00	3	Temperatura mínima	17.5
17936	7	Sololá	710	Panajachel	8	Panajachel	2	Febrero	2023-05-02T00:00:00	2024-11-08T03:00:00	5	Humedad	71
17937	7	Sololá	710	Panajachel	8	Panajachel	2	Febrero	2023-05-02T00:00:00	2024-11-08T03:00:00	6	Velocidad del viento	6.4
17938	7	Sololá	710	Panajachel	8	Panajachel	2	Febrero	2023-05-02T00:00:00	2024-11-08T03:00:00	7	Dirección del viento	6.44
17939	7	Sololá	710	Panajachel	8	Panajachel	2	Febrero	2023-05-02T00:00:00	2024-11-08T03:00:00	1	Precipitación	0
17940	7	Sololá	710	Panajachel	8	Panajachel	2	Febrero	2023-05-02T00:00:00	2024-11-08T03:00:00	8	Radiación solar	0
17941	7	Sololá	710	Panajachel	8	Panajachel	2	Febrero	2023-05-02T00:00:00	2024-11-08T04:00:00	2	Temperatura media	17.3
17942	7	Sololá	710	Panajachel	8	Panajachel	2	Febrero	2023-05-02T00:00:00	2024-11-08T04:00:00	4	Temperatura máxima	17.8
17943	7	Sololá	710	Panajachel	8	Panajachel	2	Febrero	2023-05-02T00:00:00	2024-11-08T04:00:00	3	Temperatura mínima	17.2
17944	7	Sololá	710	Panajachel	8	Panajachel	2	Febrero	2023-05-02T00:00:00	2024-11-08T04:00:00	5	Humedad	72
17945	7	Sololá	710	Panajachel	8	Panajachel	2	Febrero	2023-05-02T00:00:00	2024-11-08T04:00:00	6	Velocidad del viento	3.2
17946	7	Sololá	710	Panajachel	8	Panajachel	2	Febrero	2023-05-02T00:00:00	2024-11-08T04:00:00	7	Dirección del viento	3.22
17947	7	Sololá	710	Panajachel	8	Panajachel	2	Febrero	2023-05-02T00:00:00	2024-11-08T04:00:00	1	Precipitación	0
17948	7	Sololá	710	Panajachel	8	Panajachel	2	Febrero	2023-05-02T00:00:00	2024-11-08T04:00:00	8	Radiación solar	0
17949	7	Sololá	710	Panajachel	8	Panajachel	2	Febrero	2023-05-02T00:00:00	2024-11-08T05:00:00	2	Temperatura media	17.3
17950	7	Sololá	710	Panajachel	8	Panajachel	2	Febrero	2023-05-02T00:00:00	2024-11-08T05:00:00	4	Temperatura máxima	17.6
17951	7	Sololá	710	Panajachel	8	Panajachel	2	Febrero	2023-05-02T00:00:00	2024-11-08T05:00:00	3	Temperatura mínima	17.3
17952	7	Sololá	710	Panajachel	8	Panajachel	2	Febrero	2023-05-02T00:00:00	2024-11-08T05:00:00	5	Humedad	72
17953	7	Sololá	710	Panajachel	8	Panajachel	2	Febrero	2023-05-02T00:00:00	2024-11-08T05:00:00	6	Velocidad del viento	4.8
17954	7	Sololá	710	Panajachel	8	Panajachel	2	Febrero	2023-05-02T00:00:00	2024-11-08T05:00:00	7	Dirección del viento	4.83
17955	7	Sololá	710	Panajachel	8	Panajachel	2	Febrero	2023-05-02T00:00:00	2024-11-08T05:00:00	1	Precipitación	0
17956	7	Sololá	710	Panajachel	8	Panajachel	2	Febrero	2023-05-02T00:00:00	2024-11-08T05:00:00	8	Radiación solar	0
17957	7	Sololá	710	Panajachel	8	Panajachel	2	Febrero	2023-05-02T00:00:00	2024-11-08T06:00:00	2	Temperatura media	17.2
17958	7	Sololá	710	Panajachel	8	Panajachel	2	Febrero	2023-05-02T00:00:00	2024-11-08T06:00:00	4	Temperatura máxima	17.5
17959	7	Sololá	710	Panajachel	8	Panajachel	2	Febrero	2023-05-02T00:00:00	2024-11-08T06:00:00	3	Temperatura mínima	17.1
17960	7	Sololá	710	Panajachel	8	Panajachel	2	Febrero	2023-05-02T00:00:00	2024-11-08T06:00:00	5	Humedad	71
17961	7	Sololá	710	Panajachel	8	Panajachel	2	Febrero	2023-05-02T00:00:00	2024-11-08T06:00:00	6	Velocidad del viento	6.4
17962	7	Sololá	710	Panajachel	8	Panajachel	2	Febrero	2023-05-02T00:00:00	2024-11-08T06:00:00	7	Dirección del viento	6.44
17963	7	Sololá	710	Panajachel	8	Panajachel	2	Febrero	2023-05-02T00:00:00	2024-11-08T06:00:00	1	Precipitación	0
17964	7	Sololá	710	Panajachel	8	Panajachel	2	Febrero	2023-05-02T00:00:00	2024-11-08T06:00:00	8	Radiación solar	0
17965	7	Sololá	710	Panajachel	8	Panajachel	2	Febrero	2023-05-02T00:00:00	2024-11-08T07:00:00	2	Temperatura media	17.3
17966	7	Sololá	710	Panajachel	8	Panajachel	2	Febrero	2023-05-02T00:00:00	2024-11-08T07:00:00	4	Temperatura máxima	17.4
17967	7	Sololá	710	Panajachel	8	Panajachel	2	Febrero	2023-05-02T00:00:00	2024-11-08T07:00:00	3	Temperatura mínima	17.2
17968	7	Sololá	710	Panajachel	8	Panajachel	2	Febrero	2023-05-02T00:00:00	2024-11-08T07:00:00	5	Humedad	68
17969	7	Sololá	710	Panajachel	8	Panajachel	2	Febrero	2023-05-02T00:00:00	2024-11-08T07:00:00	6	Velocidad del viento	9.7
17970	7	Sololá	710	Panajachel	8	Panajachel	2	Febrero	2023-05-02T00:00:00	2024-11-08T07:00:00	7	Dirección del viento	9.66
17971	7	Sololá	710	Panajachel	8	Panajachel	2	Febrero	2023-05-02T00:00:00	2024-11-08T07:00:00	1	Precipitación	0
17972	7	Sololá	710	Panajachel	8	Panajachel	2	Febrero	2023-05-02T00:00:00	2024-11-08T07:00:00	8	Radiación solar	4
17973	7	Sololá	710	Panajachel	8	Panajachel	2	Febrero	2023-05-02T00:00:00	2024-11-08T08:00:00	2	Temperatura media	18.4
17974	7	Sololá	710	Panajachel	8	Panajachel	2	Febrero	2023-05-02T00:00:00	2024-11-08T08:00:00	4	Temperatura máxima	18.4
17975	7	Sololá	710	Panajachel	8	Panajachel	2	Febrero	2023-05-02T00:00:00	2024-11-08T08:00:00	3	Temperatura mínima	17.2
17976	7	Sololá	710	Panajachel	8	Panajachel	2	Febrero	2023-05-02T00:00:00	2024-11-08T08:00:00	5	Humedad	66
17977	7	Sololá	710	Panajachel	8	Panajachel	2	Febrero	2023-05-02T00:00:00	2024-11-08T08:00:00	6	Velocidad del viento	8
17978	7	Sololá	710	Panajachel	8	Panajachel	2	Febrero	2023-05-02T00:00:00	2024-11-08T08:00:00	7	Dirección del viento	8.05
17979	7	Sololá	710	Panajachel	8	Panajachel	2	Febrero	2023-05-02T00:00:00	2024-11-08T08:00:00	1	Precipitación	0
17980	7	Sololá	710	Panajachel	8	Panajachel	2	Febrero	2023-05-02T00:00:00	2024-11-08T08:00:00	8	Radiación solar	65
17981	7	Sololá	710	Panajachel	8	Panajachel	2	Febrero	2023-05-02T00:00:00	2024-11-08T09:00:00	2	Temperatura media	20
17982	7	Sololá	710	Panajachel	8	Panajachel	2	Febrero	2023-05-02T00:00:00	2024-11-08T09:00:00	4	Temperatura máxima	20.1
17983	7	Sololá	710	Panajachel	8	Panajachel	2	Febrero	2023-05-02T00:00:00	2024-11-08T09:00:00	3	Temperatura mínima	18.4
17984	7	Sololá	710	Panajachel	8	Panajachel	2	Febrero	2023-05-02T00:00:00	2024-11-08T09:00:00	5	Humedad	60
17985	7	Sololá	710	Panajachel	8	Panajachel	2	Febrero	2023-05-02T00:00:00	2024-11-08T09:00:00	6	Velocidad del viento	8
17986	7	Sololá	710	Panajachel	8	Panajachel	2	Febrero	2023-05-02T00:00:00	2024-11-08T09:00:00	7	Dirección del viento	8.05
17987	7	Sololá	710	Panajachel	8	Panajachel	2	Febrero	2023-05-02T00:00:00	2024-11-08T09:00:00	1	Precipitación	0
17988	7	Sololá	710	Panajachel	8	Panajachel	2	Febrero	2023-05-02T00:00:00	2024-11-08T09:00:00	8	Radiación solar	396
17989	7	Sololá	710	Panajachel	8	Panajachel	2	Febrero	2023-05-02T00:00:00	2024-11-08T10:00:00	2	Temperatura media	21
17990	7	Sololá	710	Panajachel	8	Panajachel	2	Febrero	2023-05-02T00:00:00	2024-11-08T10:00:00	4	Temperatura máxima	21.1
17991	7	Sololá	710	Panajachel	8	Panajachel	2	Febrero	2023-05-02T00:00:00	2024-11-08T10:00:00	3	Temperatura mínima	20.1
17992	7	Sololá	710	Panajachel	8	Panajachel	2	Febrero	2023-05-02T00:00:00	2024-11-08T10:00:00	5	Humedad	56
17993	7	Sololá	710	Panajachel	8	Panajachel	2	Febrero	2023-05-02T00:00:00	2024-11-08T10:00:00	6	Velocidad del viento	11.3
17994	7	Sololá	710	Panajachel	8	Panajachel	2	Febrero	2023-05-02T00:00:00	2024-11-08T10:00:00	7	Dirección del viento	11.27
17995	7	Sololá	710	Panajachel	8	Panajachel	2	Febrero	2023-05-02T00:00:00	2024-11-08T10:00:00	1	Precipitación	0
17996	7	Sololá	710	Panajachel	8	Panajachel	2	Febrero	2023-05-02T00:00:00	2024-11-08T10:00:00	8	Radiación solar	596
17997	7	Sololá	710	Panajachel	8	Panajachel	2	Febrero	2023-05-02T00:00:00	2024-11-08T11:00:00	2	Temperatura media	22.8
17998	7	Sololá	710	Panajachel	8	Panajachel	2	Febrero	2023-05-02T00:00:00	2024-11-08T11:00:00	4	Temperatura máxima	22.8
17999	7	Sololá	710	Panajachel	8	Panajachel	2	Febrero	2023-05-02T00:00:00	2024-11-08T11:00:00	3	Temperatura mínima	21.1
18000	7	Sololá	710	Panajachel	8	Panajachel	2	Febrero	2023-05-02T00:00:00	2024-11-08T11:00:00	5	Humedad	50
18001	7	Sololá	710	Panajachel	8	Panajachel	2	Febrero	2023-05-02T00:00:00	2024-11-08T11:00:00	6	Velocidad del viento	9.7
18002	7	Sololá	710	Panajachel	8	Panajachel	2	Febrero	2023-05-02T00:00:00	2024-11-08T11:00:00	7	Dirección del viento	9.66
18003	7	Sololá	710	Panajachel	8	Panajachel	2	Febrero	2023-05-02T00:00:00	2024-11-08T11:00:00	1	Precipitación	0
18004	7	Sololá	710	Panajachel	8	Panajachel	2	Febrero	2023-05-02T00:00:00	2024-11-08T11:00:00	8	Radiación solar	753
18005	7	Sololá	710	Panajachel	8	Panajachel	2	Febrero	2023-05-02T00:00:00	2024-11-08T12:00:00	2	Temperatura media	24.6
18006	7	Sololá	710	Panajachel	8	Panajachel	2	Febrero	2023-05-02T00:00:00	2024-11-08T12:00:00	4	Temperatura máxima	24.6
18007	7	Sololá	710	Panajachel	8	Panajachel	2	Febrero	2023-05-02T00:00:00	2024-11-08T12:00:00	3	Temperatura mínima	22.8
18008	7	Sololá	710	Panajachel	8	Panajachel	2	Febrero	2023-05-02T00:00:00	2024-11-08T12:00:00	5	Humedad	40
18009	7	Sololá	710	Panajachel	8	Panajachel	2	Febrero	2023-05-02T00:00:00	2024-11-08T12:00:00	6	Velocidad del viento	8
18010	7	Sololá	710	Panajachel	8	Panajachel	2	Febrero	2023-05-02T00:00:00	2024-11-08T12:00:00	7	Dirección del viento	8.05
18011	7	Sololá	710	Panajachel	8	Panajachel	2	Febrero	2023-05-02T00:00:00	2024-11-08T12:00:00	1	Precipitación	0
18012	7	Sololá	710	Panajachel	8	Panajachel	2	Febrero	2023-05-02T00:00:00	2024-11-08T12:00:00	8	Radiación solar	848
18013	7	Sololá	710	Panajachel	8	Panajachel	2	Febrero	2023-05-02T00:00:00	2024-11-08T13:00:00	2	Temperatura media	25.1
18014	7	Sololá	710	Panajachel	8	Panajachel	2	Febrero	2023-05-02T00:00:00	2024-11-08T13:00:00	4	Temperatura máxima	25.4
18015	7	Sololá	710	Panajachel	8	Panajachel	2	Febrero	2023-05-02T00:00:00	2024-11-08T13:00:00	3	Temperatura mínima	24.4
18016	7	Sololá	710	Panajachel	8	Panajachel	2	Febrero	2023-05-02T00:00:00	2024-11-08T13:00:00	5	Humedad	36
18017	7	Sololá	710	Panajachel	8	Panajachel	2	Febrero	2023-05-02T00:00:00	2024-11-08T13:00:00	6	Velocidad del viento	8
18018	7	Sololá	710	Panajachel	8	Panajachel	2	Febrero	2023-05-02T00:00:00	2024-11-08T13:00:00	7	Dirección del viento	8.05
18019	7	Sololá	710	Panajachel	8	Panajachel	2	Febrero	2023-05-02T00:00:00	2024-11-08T13:00:00	1	Precipitación	0
18020	7	Sololá	710	Panajachel	8	Panajachel	2	Febrero	2023-05-02T00:00:00	2024-11-08T13:00:00	8	Radiación solar	872
18021	7	Sololá	710	Panajachel	8	Panajachel	2	Febrero	2023-05-02T00:00:00	2024-11-08T14:00:00	2	Temperatura media	24.3
18022	7	Sololá	710	Panajachel	8	Panajachel	2	Febrero	2023-05-02T00:00:00	2024-11-08T14:00:00	4	Temperatura máxima	25.5
18023	7	Sololá	710	Panajachel	8	Panajachel	2	Febrero	2023-05-02T00:00:00	2024-11-08T14:00:00	3	Temperatura mínima	23.8
18024	7	Sololá	710	Panajachel	8	Panajachel	2	Febrero	2023-05-02T00:00:00	2024-11-08T14:00:00	5	Humedad	63
18025	7	Sololá	710	Panajachel	8	Panajachel	2	Febrero	2023-05-02T00:00:00	2024-11-08T14:00:00	6	Velocidad del viento	4.8
18026	7	Sololá	710	Panajachel	8	Panajachel	2	Febrero	2023-05-02T00:00:00	2024-11-08T14:00:00	7	Dirección del viento	4.83
18027	7	Sololá	710	Panajachel	8	Panajachel	2	Febrero	2023-05-02T00:00:00	2024-11-08T14:00:00	1	Precipitación	0
18028	7	Sololá	710	Panajachel	8	Panajachel	2	Febrero	2023-05-02T00:00:00	2024-11-08T14:00:00	8	Radiación solar	820
18029	7	Sololá	710	Panajachel	8	Panajachel	2	Febrero	2023-05-02T00:00:00	2024-11-08T15:00:00	2	Temperatura media	25.9
18030	7	Sololá	710	Panajachel	8	Panajachel	2	Febrero	2023-05-02T00:00:00	2024-11-08T15:00:00	4	Temperatura máxima	25.9
18031	7	Sololá	710	Panajachel	8	Panajachel	2	Febrero	2023-05-02T00:00:00	2024-11-08T15:00:00	3	Temperatura mínima	24.3
18032	7	Sololá	710	Panajachel	8	Panajachel	2	Febrero	2023-05-02T00:00:00	2024-11-08T15:00:00	5	Humedad	41
18033	7	Sololá	710	Panajachel	8	Panajachel	2	Febrero	2023-05-02T00:00:00	2024-11-08T15:00:00	6	Velocidad del viento	6.4
18034	7	Sololá	710	Panajachel	8	Panajachel	2	Febrero	2023-05-02T00:00:00	2024-11-08T15:00:00	7	Dirección del viento	6.44
18035	7	Sololá	710	Panajachel	8	Panajachel	2	Febrero	2023-05-02T00:00:00	2024-11-08T15:00:00	1	Precipitación	0
18036	7	Sololá	710	Panajachel	8	Panajachel	2	Febrero	2023-05-02T00:00:00	2024-11-08T15:00:00	8	Radiación solar	721
18037	7	Sololá	710	Panajachel	8	Panajachel	2	Febrero	2023-05-02T00:00:00	2024-11-08T16:00:00	2	Temperatura media	24.9
18038	7	Sololá	710	Panajachel	8	Panajachel	2	Febrero	2023-05-02T00:00:00	2024-11-08T16:00:00	4	Temperatura máxima	26
18039	7	Sololá	710	Panajachel	8	Panajachel	2	Febrero	2023-05-02T00:00:00	2024-11-08T16:00:00	3	Temperatura mínima	24.8
18040	7	Sololá	710	Panajachel	8	Panajachel	2	Febrero	2023-05-02T00:00:00	2024-11-08T16:00:00	5	Humedad	41
18041	7	Sololá	710	Panajachel	8	Panajachel	2	Febrero	2023-05-02T00:00:00	2024-11-08T16:00:00	6	Velocidad del viento	6.4
18042	7	Sololá	710	Panajachel	8	Panajachel	2	Febrero	2023-05-02T00:00:00	2024-11-08T16:00:00	7	Dirección del viento	6.44
18043	7	Sololá	710	Panajachel	8	Panajachel	2	Febrero	2023-05-02T00:00:00	2024-11-08T16:00:00	1	Precipitación	0
18044	7	Sololá	710	Panajachel	8	Panajachel	2	Febrero	2023-05-02T00:00:00	2024-11-08T16:00:00	8	Radiación solar	535
18045	7	Sololá	710	Panajachel	8	Panajachel	2	Febrero	2023-05-02T00:00:00	2024-11-08T17:00:00	2	Temperatura media	23.4
18046	7	Sololá	710	Panajachel	8	Panajachel	2	Febrero	2023-05-02T00:00:00	2024-11-08T17:00:00	4	Temperatura máxima	24.9
18047	7	Sololá	710	Panajachel	8	Panajachel	2	Febrero	2023-05-02T00:00:00	2024-11-08T17:00:00	3	Temperatura mínima	23.4
18048	7	Sololá	710	Panajachel	8	Panajachel	2	Febrero	2023-05-02T00:00:00	2024-11-08T17:00:00	5	Humedad	45
18049	7	Sololá	710	Panajachel	8	Panajachel	2	Febrero	2023-05-02T00:00:00	2024-11-08T17:00:00	6	Velocidad del viento	8
18050	7	Sololá	710	Panajachel	8	Panajachel	2	Febrero	2023-05-02T00:00:00	2024-11-08T17:00:00	7	Dirección del viento	8.05
18051	7	Sololá	710	Panajachel	8	Panajachel	2	Febrero	2023-05-02T00:00:00	2024-11-08T17:00:00	1	Precipitación	0
18052	7	Sololá	710	Panajachel	8	Panajachel	2	Febrero	2023-05-02T00:00:00	2024-11-08T17:00:00	8	Radiación solar	304
18053	7	Sololá	710	Panajachel	8	Panajachel	2	Febrero	2023-05-02T00:00:00	2024-11-08T18:00:00	2	Temperatura media	21.3
18054	7	Sololá	710	Panajachel	8	Panajachel	2	Febrero	2023-05-02T00:00:00	2024-11-08T18:00:00	4	Temperatura máxima	23.5
18055	7	Sololá	710	Panajachel	8	Panajachel	2	Febrero	2023-05-02T00:00:00	2024-11-08T18:00:00	3	Temperatura mínima	21.3
18056	7	Sololá	710	Panajachel	8	Panajachel	2	Febrero	2023-05-02T00:00:00	2024-11-08T18:00:00	5	Humedad	55
18057	7	Sololá	710	Panajachel	8	Panajachel	2	Febrero	2023-05-02T00:00:00	2024-11-08T18:00:00	6	Velocidad del viento	6.4
18058	7	Sololá	710	Panajachel	8	Panajachel	2	Febrero	2023-05-02T00:00:00	2024-11-08T18:00:00	7	Dirección del viento	6.44
18059	7	Sololá	710	Panajachel	8	Panajachel	2	Febrero	2023-05-02T00:00:00	2024-11-08T18:00:00	1	Precipitación	0
18060	7	Sololá	710	Panajachel	8	Panajachel	2	Febrero	2023-05-02T00:00:00	2024-11-08T18:00:00	8	Radiación solar	83
18061	7	Sololá	710	Panajachel	8	Panajachel	2	Febrero	2023-05-02T00:00:00	2024-11-08T19:00:00	2	Temperatura media	19.1
18062	7	Sololá	710	Panajachel	8	Panajachel	2	Febrero	2023-05-02T00:00:00	2024-11-08T19:00:00	4	Temperatura máxima	21.3
18063	7	Sololá	710	Panajachel	8	Panajachel	2	Febrero	2023-05-02T00:00:00	2024-11-08T19:00:00	3	Temperatura mínima	19.1
18064	7	Sololá	710	Panajachel	8	Panajachel	2	Febrero	2023-05-02T00:00:00	2024-11-08T19:00:00	5	Humedad	63
18065	7	Sololá	710	Panajachel	8	Panajachel	2	Febrero	2023-05-02T00:00:00	2024-11-08T19:00:00	6	Velocidad del viento	6.4
18066	7	Sololá	710	Panajachel	8	Panajachel	2	Febrero	2023-05-02T00:00:00	2024-11-08T19:00:00	7	Dirección del viento	6.44
18067	7	Sololá	710	Panajachel	8	Panajachel	2	Febrero	2023-05-02T00:00:00	2024-11-08T19:00:00	1	Precipitación	0
18068	7	Sololá	710	Panajachel	8	Panajachel	2	Febrero	2023-05-02T00:00:00	2024-11-08T19:00:00	8	Radiación solar	0
18069	7	Sololá	710	Panajachel	8	Panajachel	2	Febrero	2023-05-02T00:00:00	2024-11-08T20:00:00	2	Temperatura media	18.3
18070	7	Sololá	710	Panajachel	8	Panajachel	2	Febrero	2023-05-02T00:00:00	2024-11-08T20:00:00	4	Temperatura máxima	19.1
18071	7	Sololá	710	Panajachel	8	Panajachel	2	Febrero	2023-05-02T00:00:00	2024-11-08T20:00:00	3	Temperatura mínima	18.3
18072	7	Sololá	710	Panajachel	8	Panajachel	2	Febrero	2023-05-02T00:00:00	2024-11-08T20:00:00	5	Humedad	64
18073	7	Sololá	710	Panajachel	8	Panajachel	2	Febrero	2023-05-02T00:00:00	2024-11-08T20:00:00	6	Velocidad del viento	8
18074	7	Sololá	710	Panajachel	8	Panajachel	2	Febrero	2023-05-02T00:00:00	2024-11-08T20:00:00	7	Dirección del viento	8.05
18075	7	Sololá	710	Panajachel	8	Panajachel	2	Febrero	2023-05-02T00:00:00	2024-11-08T20:00:00	1	Precipitación	0
18076	7	Sololá	710	Panajachel	8	Panajachel	2	Febrero	2023-05-02T00:00:00	2024-11-08T20:00:00	8	Radiación solar	0
18077	7	Sololá	710	Panajachel	8	Panajachel	2	Febrero	2023-05-02T00:00:00	2024-11-08T21:00:00	2	Temperatura media	18
18078	7	Sololá	710	Panajachel	8	Panajachel	2	Febrero	2023-05-02T00:00:00	2024-11-08T21:00:00	4	Temperatura máxima	18.3
18079	7	Sololá	710	Panajachel	8	Panajachel	2	Febrero	2023-05-02T00:00:00	2024-11-08T21:00:00	3	Temperatura mínima	17.9
18080	7	Sololá	710	Panajachel	8	Panajachel	2	Febrero	2023-05-02T00:00:00	2024-11-08T21:00:00	5	Humedad	63
18081	7	Sololá	710	Panajachel	8	Panajachel	2	Febrero	2023-05-02T00:00:00	2024-11-08T21:00:00	6	Velocidad del viento	12.9
18082	7	Sololá	710	Panajachel	8	Panajachel	2	Febrero	2023-05-02T00:00:00	2024-11-08T21:00:00	7	Dirección del viento	12.87
18083	7	Sololá	710	Panajachel	8	Panajachel	2	Febrero	2023-05-02T00:00:00	2024-11-08T21:00:00	1	Precipitación	0
18084	7	Sololá	710	Panajachel	8	Panajachel	2	Febrero	2023-05-02T00:00:00	2024-11-08T21:00:00	8	Radiación solar	0
18085	7	Sololá	710	Panajachel	8	Panajachel	2	Febrero	2023-05-02T00:00:00	2024-11-08T22:00:00	2	Temperatura media	17.6
18086	7	Sololá	710	Panajachel	8	Panajachel	2	Febrero	2023-05-02T00:00:00	2024-11-08T22:00:00	4	Temperatura máxima	18.1
18087	7	Sololá	710	Panajachel	8	Panajachel	2	Febrero	2023-05-02T00:00:00	2024-11-08T22:00:00	3	Temperatura mínima	17.6
18088	7	Sololá	710	Panajachel	8	Panajachel	2	Febrero	2023-05-02T00:00:00	2024-11-08T22:00:00	5	Humedad	64
18089	7	Sololá	710	Panajachel	8	Panajachel	2	Febrero	2023-05-02T00:00:00	2024-11-08T22:00:00	6	Velocidad del viento	14.5
18090	7	Sololá	710	Panajachel	8	Panajachel	2	Febrero	2023-05-02T00:00:00	2024-11-08T22:00:00	7	Dirección del viento	14.48
18091	7	Sololá	710	Panajachel	8	Panajachel	2	Febrero	2023-05-02T00:00:00	2024-11-08T22:00:00	1	Precipitación	0
18092	7	Sololá	710	Panajachel	8	Panajachel	2	Febrero	2023-05-02T00:00:00	2024-11-08T22:00:00	8	Radiación solar	0
18093	7	Sololá	710	Panajachel	8	Panajachel	2	Febrero	2023-05-02T00:00:00	2024-11-08T23:00:00	2	Temperatura media	17.1
18094	7	Sololá	710	Panajachel	8	Panajachel	2	Febrero	2023-05-02T00:00:00	2024-11-08T23:00:00	4	Temperatura máxima	17.7
18095	7	Sololá	710	Panajachel	8	Panajachel	2	Febrero	2023-05-02T00:00:00	2024-11-08T23:00:00	3	Temperatura mínima	17.1
18096	7	Sololá	710	Panajachel	8	Panajachel	2	Febrero	2023-05-02T00:00:00	2024-11-08T23:00:00	5	Humedad	65
18097	7	Sololá	710	Panajachel	8	Panajachel	2	Febrero	2023-05-02T00:00:00	2024-11-08T23:00:00	6	Velocidad del viento	12.9
18098	7	Sololá	710	Panajachel	8	Panajachel	2	Febrero	2023-05-02T00:00:00	2024-11-08T23:00:00	7	Dirección del viento	12.87
18099	7	Sololá	710	Panajachel	8	Panajachel	2	Febrero	2023-05-02T00:00:00	2024-11-08T23:00:00	1	Precipitación	0
18100	7	Sololá	710	Panajachel	8	Panajachel	2	Febrero	2023-05-02T00:00:00	2024-11-08T23:00:00	8	Radiación solar	0
18101	7	Sololá	710	Panajachel	8	Panajachel	2	Febrero	2023-06-02T00:00:00	2024-11-08T00:00:00	2	Temperatura media	17.1
18102	7	Sololá	710	Panajachel	8	Panajachel	2	Febrero	2023-06-02T00:00:00	2024-11-08T00:00:00	4	Temperatura máxima	17.2
18103	7	Sololá	710	Panajachel	8	Panajachel	2	Febrero	2023-06-02T00:00:00	2024-11-08T00:00:00	3	Temperatura mínima	16.9
18104	7	Sololá	710	Panajachel	8	Panajachel	2	Febrero	2023-06-02T00:00:00	2024-11-08T00:00:00	5	Humedad	65
18105	7	Sololá	710	Panajachel	8	Panajachel	2	Febrero	2023-06-02T00:00:00	2024-11-08T00:00:00	6	Velocidad del viento	11.3
18106	7	Sololá	710	Panajachel	8	Panajachel	2	Febrero	2023-06-02T00:00:00	2024-11-08T00:00:00	7	Dirección del viento	11.27
18107	7	Sololá	710	Panajachel	8	Panajachel	2	Febrero	2023-06-02T00:00:00	2024-11-08T00:00:00	1	Precipitación	0
18108	7	Sololá	710	Panajachel	8	Panajachel	2	Febrero	2023-06-02T00:00:00	2024-11-08T00:00:00	8	Radiación solar	0
18109	7	Sololá	710	Panajachel	8	Panajachel	2	Febrero	2023-06-02T00:00:00	2024-11-08T01:00:00	2	Temperatura media	17.1
18110	7	Sololá	710	Panajachel	8	Panajachel	2	Febrero	2023-06-02T00:00:00	2024-11-08T01:00:00	4	Temperatura máxima	17.3
18111	7	Sololá	710	Panajachel	8	Panajachel	2	Febrero	2023-06-02T00:00:00	2024-11-08T01:00:00	3	Temperatura mínima	17
18112	7	Sololá	710	Panajachel	8	Panajachel	2	Febrero	2023-06-02T00:00:00	2024-11-08T01:00:00	5	Humedad	64
18113	7	Sololá	710	Panajachel	8	Panajachel	2	Febrero	2023-06-02T00:00:00	2024-11-08T01:00:00	6	Velocidad del viento	12.9
18114	7	Sololá	710	Panajachel	8	Panajachel	2	Febrero	2023-06-02T00:00:00	2024-11-08T01:00:00	7	Dirección del viento	12.87
18115	7	Sololá	710	Panajachel	8	Panajachel	2	Febrero	2023-06-02T00:00:00	2024-11-08T01:00:00	1	Precipitación	0
18116	7	Sololá	710	Panajachel	8	Panajachel	2	Febrero	2023-06-02T00:00:00	2024-11-08T01:00:00	8	Radiación solar	0
18117	7	Sololá	710	Panajachel	8	Panajachel	2	Febrero	2023-06-02T00:00:00	2024-11-08T02:00:00	2	Temperatura media	16.6
18118	7	Sololá	710	Panajachel	8	Panajachel	2	Febrero	2023-06-02T00:00:00	2024-11-08T02:00:00	4	Temperatura máxima	17.1
18119	7	Sololá	710	Panajachel	8	Panajachel	2	Febrero	2023-06-02T00:00:00	2024-11-08T02:00:00	3	Temperatura mínima	16.6
18120	7	Sololá	710	Panajachel	8	Panajachel	2	Febrero	2023-06-02T00:00:00	2024-11-08T02:00:00	5	Humedad	65
18121	7	Sololá	710	Panajachel	8	Panajachel	2	Febrero	2023-06-02T00:00:00	2024-11-08T02:00:00	6	Velocidad del viento	8
18122	7	Sololá	710	Panajachel	8	Panajachel	2	Febrero	2023-06-02T00:00:00	2024-11-08T02:00:00	7	Dirección del viento	8.05
18123	7	Sololá	710	Panajachel	8	Panajachel	2	Febrero	2023-06-02T00:00:00	2024-11-08T02:00:00	1	Precipitación	0
18124	7	Sololá	710	Panajachel	8	Panajachel	2	Febrero	2023-06-02T00:00:00	2024-11-08T02:00:00	8	Radiación solar	0
18125	7	Sololá	710	Panajachel	8	Panajachel	2	Febrero	2023-06-02T00:00:00	2024-11-08T03:00:00	2	Temperatura media	16.7
18126	7	Sololá	710	Panajachel	8	Panajachel	2	Febrero	2023-06-02T00:00:00	2024-11-08T03:00:00	4	Temperatura máxima	16.8
18127	7	Sololá	710	Panajachel	8	Panajachel	2	Febrero	2023-06-02T00:00:00	2024-11-08T03:00:00	3	Temperatura mínima	16.5
18128	7	Sololá	710	Panajachel	8	Panajachel	2	Febrero	2023-06-02T00:00:00	2024-11-08T03:00:00	5	Humedad	57
18129	7	Sololá	710	Panajachel	8	Panajachel	2	Febrero	2023-06-02T00:00:00	2024-11-08T03:00:00	6	Velocidad del viento	14.5
18130	7	Sololá	710	Panajachel	8	Panajachel	2	Febrero	2023-06-02T00:00:00	2024-11-08T03:00:00	7	Dirección del viento	14.48
18131	7	Sololá	710	Panajachel	8	Panajachel	2	Febrero	2023-06-02T00:00:00	2024-11-08T03:00:00	1	Precipitación	0
18132	7	Sololá	710	Panajachel	8	Panajachel	2	Febrero	2023-06-02T00:00:00	2024-11-08T03:00:00	8	Radiación solar	0
18133	7	Sololá	710	Panajachel	8	Panajachel	2	Febrero	2023-06-02T00:00:00	2024-11-08T04:00:00	2	Temperatura media	16.6
18134	7	Sololá	710	Panajachel	8	Panajachel	2	Febrero	2023-06-02T00:00:00	2024-11-08T04:00:00	4	Temperatura máxima	16.7
18135	7	Sololá	710	Panajachel	8	Panajachel	2	Febrero	2023-06-02T00:00:00	2024-11-08T04:00:00	3	Temperatura mínima	16.6
18136	7	Sololá	710	Panajachel	8	Panajachel	2	Febrero	2023-06-02T00:00:00	2024-11-08T04:00:00	5	Humedad	58
18137	7	Sololá	710	Panajachel	8	Panajachel	2	Febrero	2023-06-02T00:00:00	2024-11-08T04:00:00	6	Velocidad del viento	14.5
18138	7	Sololá	710	Panajachel	8	Panajachel	2	Febrero	2023-06-02T00:00:00	2024-11-08T04:00:00	7	Dirección del viento	14.48
18139	7	Sololá	710	Panajachel	8	Panajachel	2	Febrero	2023-06-02T00:00:00	2024-11-08T04:00:00	1	Precipitación	0
18140	7	Sololá	710	Panajachel	8	Panajachel	2	Febrero	2023-06-02T00:00:00	2024-11-08T04:00:00	8	Radiación solar	0
18141	7	Sololá	710	Panajachel	8	Panajachel	2	Febrero	2023-06-02T00:00:00	2024-11-08T05:00:00	2	Temperatura media	16.4
18142	7	Sololá	710	Panajachel	8	Panajachel	2	Febrero	2023-06-02T00:00:00	2024-11-08T05:00:00	4	Temperatura máxima	16.6
18143	7	Sololá	710	Panajachel	8	Panajachel	2	Febrero	2023-06-02T00:00:00	2024-11-08T05:00:00	3	Temperatura mínima	16.3
18144	7	Sololá	710	Panajachel	8	Panajachel	2	Febrero	2023-06-02T00:00:00	2024-11-08T05:00:00	5	Humedad	60
18145	7	Sololá	710	Panajachel	8	Panajachel	2	Febrero	2023-06-02T00:00:00	2024-11-08T05:00:00	6	Velocidad del viento	9.7
18146	7	Sololá	710	Panajachel	8	Panajachel	2	Febrero	2023-06-02T00:00:00	2024-11-08T05:00:00	7	Dirección del viento	9.66
18147	7	Sololá	710	Panajachel	8	Panajachel	2	Febrero	2023-06-02T00:00:00	2024-11-08T05:00:00	1	Precipitación	0
18148	7	Sololá	710	Panajachel	8	Panajachel	2	Febrero	2023-06-02T00:00:00	2024-11-08T05:00:00	8	Radiación solar	0
18149	7	Sololá	710	Panajachel	8	Panajachel	2	Febrero	2023-06-02T00:00:00	2024-11-08T06:00:00	2	Temperatura media	16.3
18150	7	Sololá	710	Panajachel	8	Panajachel	2	Febrero	2023-06-02T00:00:00	2024-11-08T06:00:00	4	Temperatura máxima	16.8
18151	7	Sololá	710	Panajachel	8	Panajachel	2	Febrero	2023-06-02T00:00:00	2024-11-08T06:00:00	3	Temperatura mínima	16.3
18152	7	Sololá	710	Panajachel	8	Panajachel	2	Febrero	2023-06-02T00:00:00	2024-11-08T06:00:00	5	Humedad	50
18153	7	Sololá	710	Panajachel	8	Panajachel	2	Febrero	2023-06-02T00:00:00	2024-11-08T06:00:00	6	Velocidad del viento	9.7
18154	7	Sololá	710	Panajachel	8	Panajachel	2	Febrero	2023-06-02T00:00:00	2024-11-08T06:00:00	7	Dirección del viento	9.66
18155	7	Sololá	710	Panajachel	8	Panajachel	2	Febrero	2023-06-02T00:00:00	2024-11-08T06:00:00	1	Precipitación	0
18156	7	Sololá	710	Panajachel	8	Panajachel	2	Febrero	2023-06-02T00:00:00	2024-11-08T06:00:00	8	Radiación solar	0
18157	7	Sololá	710	Panajachel	8	Panajachel	2	Febrero	2023-06-02T00:00:00	2024-11-08T07:00:00	2	Temperatura media	16.3
18158	7	Sololá	710	Panajachel	8	Panajachel	2	Febrero	2023-06-02T00:00:00	2024-11-08T07:00:00	4	Temperatura máxima	16.5
18159	7	Sololá	710	Panajachel	8	Panajachel	2	Febrero	2023-06-02T00:00:00	2024-11-08T07:00:00	3	Temperatura mínima	16.2
18160	7	Sololá	710	Panajachel	8	Panajachel	2	Febrero	2023-06-02T00:00:00	2024-11-08T07:00:00	5	Humedad	58
18161	7	Sololá	710	Panajachel	8	Panajachel	2	Febrero	2023-06-02T00:00:00	2024-11-08T07:00:00	6	Velocidad del viento	14.5
18162	7	Sololá	710	Panajachel	8	Panajachel	2	Febrero	2023-06-02T00:00:00	2024-11-08T07:00:00	7	Dirección del viento	14.48
18163	7	Sololá	710	Panajachel	8	Panajachel	2	Febrero	2023-06-02T00:00:00	2024-11-08T07:00:00	1	Precipitación	0
18164	7	Sololá	710	Panajachel	8	Panajachel	2	Febrero	2023-06-02T00:00:00	2024-11-08T07:00:00	8	Radiación solar	4
18165	7	Sololá	710	Panajachel	8	Panajachel	2	Febrero	2023-06-02T00:00:00	2024-11-08T08:00:00	2	Temperatura media	17.6
18166	7	Sololá	710	Panajachel	8	Panajachel	2	Febrero	2023-06-02T00:00:00	2024-11-08T08:00:00	4	Temperatura máxima	17.6
18167	7	Sololá	710	Panajachel	8	Panajachel	2	Febrero	2023-06-02T00:00:00	2024-11-08T08:00:00	3	Temperatura mínima	16.2
18168	7	Sololá	710	Panajachel	8	Panajachel	2	Febrero	2023-06-02T00:00:00	2024-11-08T08:00:00	5	Humedad	59
18169	7	Sololá	710	Panajachel	8	Panajachel	2	Febrero	2023-06-02T00:00:00	2024-11-08T08:00:00	6	Velocidad del viento	17.7
18170	7	Sololá	710	Panajachel	8	Panajachel	2	Febrero	2023-06-02T00:00:00	2024-11-08T08:00:00	7	Dirección del viento	17.7
18171	7	Sololá	710	Panajachel	8	Panajachel	2	Febrero	2023-06-02T00:00:00	2024-11-08T08:00:00	1	Precipitación	0
18172	7	Sololá	710	Panajachel	8	Panajachel	2	Febrero	2023-06-02T00:00:00	2024-11-08T08:00:00	8	Radiación solar	74
18173	7	Sololá	710	Panajachel	8	Panajachel	2	Febrero	2023-06-02T00:00:00	2024-11-08T09:00:00	2	Temperatura media	19.4
18174	7	Sololá	710	Panajachel	8	Panajachel	2	Febrero	2023-06-02T00:00:00	2024-11-08T09:00:00	4	Temperatura máxima	19.4
18175	7	Sololá	710	Panajachel	8	Panajachel	2	Febrero	2023-06-02T00:00:00	2024-11-08T09:00:00	3	Temperatura mínima	17.6
18176	7	Sololá	710	Panajachel	8	Panajachel	2	Febrero	2023-06-02T00:00:00	2024-11-08T09:00:00	5	Humedad	56
18177	7	Sololá	710	Panajachel	8	Panajachel	2	Febrero	2023-06-02T00:00:00	2024-11-08T09:00:00	6	Velocidad del viento	11.3
18178	7	Sololá	710	Panajachel	8	Panajachel	2	Febrero	2023-06-02T00:00:00	2024-11-08T09:00:00	7	Dirección del viento	11.27
18179	7	Sololá	710	Panajachel	8	Panajachel	2	Febrero	2023-06-02T00:00:00	2024-11-08T09:00:00	1	Precipitación	0
18180	7	Sololá	710	Panajachel	8	Panajachel	2	Febrero	2023-06-02T00:00:00	2024-11-08T09:00:00	8	Radiación solar	392
18181	7	Sololá	710	Panajachel	8	Panajachel	2	Febrero	2023-06-02T00:00:00	2024-11-08T10:00:00	2	Temperatura media	21.6
18182	7	Sololá	710	Panajachel	8	Panajachel	2	Febrero	2023-06-02T00:00:00	2024-11-08T10:00:00	4	Temperatura máxima	21.6
18183	7	Sololá	710	Panajachel	8	Panajachel	2	Febrero	2023-06-02T00:00:00	2024-11-08T10:00:00	3	Temperatura mínima	19.4
18184	7	Sololá	710	Panajachel	8	Panajachel	2	Febrero	2023-06-02T00:00:00	2024-11-08T10:00:00	5	Humedad	51
18185	7	Sololá	710	Panajachel	8	Panajachel	2	Febrero	2023-06-02T00:00:00	2024-11-08T10:00:00	6	Velocidad del viento	6.4
18186	7	Sololá	710	Panajachel	8	Panajachel	2	Febrero	2023-06-02T00:00:00	2024-11-08T10:00:00	7	Dirección del viento	6.44
18187	7	Sololá	710	Panajachel	8	Panajachel	2	Febrero	2023-06-02T00:00:00	2024-11-08T10:00:00	1	Precipitación	0
18188	7	Sololá	710	Panajachel	8	Panajachel	2	Febrero	2023-06-02T00:00:00	2024-11-08T10:00:00	8	Radiación solar	588
18189	7	Sololá	710	Panajachel	8	Panajachel	2	Febrero	2023-06-02T00:00:00	2024-11-08T11:00:00	2	Temperatura media	22.9
18190	7	Sololá	710	Panajachel	8	Panajachel	2	Febrero	2023-06-02T00:00:00	2024-11-08T11:00:00	4	Temperatura máxima	22.9
18191	7	Sololá	710	Panajachel	8	Panajachel	2	Febrero	2023-06-02T00:00:00	2024-11-08T11:00:00	3	Temperatura mínima	21.6
18192	7	Sololá	710	Panajachel	8	Panajachel	2	Febrero	2023-06-02T00:00:00	2024-11-08T11:00:00	5	Humedad	45
18193	7	Sololá	710	Panajachel	8	Panajachel	2	Febrero	2023-06-02T00:00:00	2024-11-08T11:00:00	6	Velocidad del viento	8
18194	7	Sololá	710	Panajachel	8	Panajachel	2	Febrero	2023-06-02T00:00:00	2024-11-08T11:00:00	7	Dirección del viento	8.05
18195	7	Sololá	710	Panajachel	8	Panajachel	2	Febrero	2023-06-02T00:00:00	2024-11-08T11:00:00	1	Precipitación	0
18196	7	Sololá	710	Panajachel	8	Panajachel	2	Febrero	2023-06-02T00:00:00	2024-11-08T11:00:00	8	Radiación solar	753
18197	7	Sololá	710	Panajachel	8	Panajachel	2	Febrero	2023-06-02T00:00:00	2024-11-08T12:00:00	2	Temperatura media	23.8
18198	7	Sololá	710	Panajachel	8	Panajachel	2	Febrero	2023-06-02T00:00:00	2024-11-08T12:00:00	4	Temperatura máxima	24.2
18199	7	Sololá	710	Panajachel	8	Panajachel	2	Febrero	2023-06-02T00:00:00	2024-11-08T12:00:00	3	Temperatura mínima	22.6
18200	7	Sololá	710	Panajachel	8	Panajachel	2	Febrero	2023-06-02T00:00:00	2024-11-08T12:00:00	5	Humedad	47
18201	7	Sololá	710	Panajachel	8	Panajachel	2	Febrero	2023-06-02T00:00:00	2024-11-08T12:00:00	6	Velocidad del viento	6.4
18202	7	Sololá	710	Panajachel	8	Panajachel	2	Febrero	2023-06-02T00:00:00	2024-11-08T12:00:00	7	Dirección del viento	6.44
18203	7	Sololá	710	Panajachel	8	Panajachel	2	Febrero	2023-06-02T00:00:00	2024-11-08T12:00:00	1	Precipitación	0
18204	7	Sololá	710	Panajachel	8	Panajachel	2	Febrero	2023-06-02T00:00:00	2024-11-08T12:00:00	8	Radiación solar	849
18205	7	Sololá	710	Panajachel	8	Panajachel	2	Febrero	2023-06-02T00:00:00	2024-11-08T13:00:00	2	Temperatura media	24.7
18206	7	Sololá	710	Panajachel	8	Panajachel	2	Febrero	2023-06-02T00:00:00	2024-11-08T13:00:00	4	Temperatura máxima	24.8
18207	7	Sololá	710	Panajachel	8	Panajachel	2	Febrero	2023-06-02T00:00:00	2024-11-08T13:00:00	3	Temperatura mínima	23.7
18208	7	Sololá	710	Panajachel	8	Panajachel	2	Febrero	2023-06-02T00:00:00	2024-11-08T13:00:00	5	Humedad	46
18209	7	Sololá	710	Panajachel	8	Panajachel	2	Febrero	2023-06-02T00:00:00	2024-11-08T13:00:00	6	Velocidad del viento	4.8
18210	7	Sololá	710	Panajachel	8	Panajachel	2	Febrero	2023-06-02T00:00:00	2024-11-08T13:00:00	7	Dirección del viento	4.83
18211	7	Sololá	710	Panajachel	8	Panajachel	2	Febrero	2023-06-02T00:00:00	2024-11-08T13:00:00	1	Precipitación	0
18212	7	Sololá	710	Panajachel	8	Panajachel	2	Febrero	2023-06-02T00:00:00	2024-11-08T13:00:00	8	Radiación solar	869
18213	7	Sololá	710	Panajachel	8	Panajachel	2	Febrero	2023-06-02T00:00:00	2024-11-08T14:00:00	2	Temperatura media	24.9
18214	7	Sololá	710	Panajachel	8	Panajachel	2	Febrero	2023-06-02T00:00:00	2024-11-08T14:00:00	4	Temperatura máxima	25.3
18215	7	Sololá	710	Panajachel	8	Panajachel	2	Febrero	2023-06-02T00:00:00	2024-11-08T14:00:00	3	Temperatura mínima	24.2
18216	7	Sololá	710	Panajachel	8	Panajachel	2	Febrero	2023-06-02T00:00:00	2024-11-08T14:00:00	5	Humedad	45
18217	7	Sololá	710	Panajachel	8	Panajachel	2	Febrero	2023-06-02T00:00:00	2024-11-08T14:00:00	6	Velocidad del viento	8
18218	7	Sololá	710	Panajachel	8	Panajachel	2	Febrero	2023-06-02T00:00:00	2024-11-08T14:00:00	7	Dirección del viento	8.05
18219	7	Sololá	710	Panajachel	8	Panajachel	2	Febrero	2023-06-02T00:00:00	2024-11-08T14:00:00	1	Precipitación	0
18220	7	Sololá	710	Panajachel	8	Panajachel	2	Febrero	2023-06-02T00:00:00	2024-11-08T14:00:00	8	Radiación solar	862
18221	7	Sololá	710	Panajachel	8	Panajachel	2	Febrero	2023-06-02T00:00:00	2024-11-08T15:00:00	2	Temperatura media	25.2
18222	7	Sololá	710	Panajachel	8	Panajachel	2	Febrero	2023-06-02T00:00:00	2024-11-08T15:00:00	4	Temperatura máxima	25.6
18223	7	Sololá	710	Panajachel	8	Panajachel	2	Febrero	2023-06-02T00:00:00	2024-11-08T15:00:00	3	Temperatura mínima	24.7
18224	7	Sololá	710	Panajachel	8	Panajachel	2	Febrero	2023-06-02T00:00:00	2024-11-08T15:00:00	5	Humedad	44
18225	7	Sololá	710	Panajachel	8	Panajachel	2	Febrero	2023-06-02T00:00:00	2024-11-08T15:00:00	6	Velocidad del viento	6.4
18226	7	Sololá	710	Panajachel	8	Panajachel	2	Febrero	2023-06-02T00:00:00	2024-11-08T15:00:00	7	Dirección del viento	6.44
18227	7	Sololá	710	Panajachel	8	Panajachel	2	Febrero	2023-06-02T00:00:00	2024-11-08T15:00:00	1	Precipitación	0
18228	7	Sololá	710	Panajachel	8	Panajachel	2	Febrero	2023-06-02T00:00:00	2024-11-08T15:00:00	8	Radiación solar	745
18229	7	Sololá	710	Panajachel	8	Panajachel	2	Febrero	2023-06-02T00:00:00	2024-11-08T16:00:00	2	Temperatura media	24.8
18230	7	Sololá	710	Panajachel	8	Panajachel	2	Febrero	2023-06-02T00:00:00	2024-11-08T16:00:00	4	Temperatura máxima	25.9
18231	7	Sololá	710	Panajachel	8	Panajachel	2	Febrero	2023-06-02T00:00:00	2024-11-08T16:00:00	3	Temperatura mínima	23.9
18232	7	Sololá	710	Panajachel	8	Panajachel	2	Febrero	2023-06-02T00:00:00	2024-11-08T16:00:00	5	Humedad	56
18233	7	Sololá	710	Panajachel	8	Panajachel	2	Febrero	2023-06-02T00:00:00	2024-11-08T16:00:00	6	Velocidad del viento	4.8
18234	7	Sololá	710	Panajachel	8	Panajachel	2	Febrero	2023-06-02T00:00:00	2024-11-08T16:00:00	7	Dirección del viento	4.83
18235	7	Sololá	710	Panajachel	8	Panajachel	2	Febrero	2023-06-02T00:00:00	2024-11-08T16:00:00	1	Precipitación	0
18236	7	Sololá	710	Panajachel	8	Panajachel	2	Febrero	2023-06-02T00:00:00	2024-11-08T16:00:00	8	Radiación solar	567
18237	7	Sololá	710	Panajachel	8	Panajachel	2	Febrero	2023-06-02T00:00:00	2024-11-08T17:00:00	2	Temperatura media	23.5
18238	7	Sololá	710	Panajachel	8	Panajachel	2	Febrero	2023-06-02T00:00:00	2024-11-08T17:00:00	4	Temperatura máxima	24.9
18239	7	Sololá	710	Panajachel	8	Panajachel	2	Febrero	2023-06-02T00:00:00	2024-11-08T17:00:00	3	Temperatura mínima	23.5
18240	7	Sololá	710	Panajachel	8	Panajachel	2	Febrero	2023-06-02T00:00:00	2024-11-08T17:00:00	5	Humedad	48
18241	7	Sololá	710	Panajachel	8	Panajachel	2	Febrero	2023-06-02T00:00:00	2024-11-08T17:00:00	6	Velocidad del viento	4.8
18242	7	Sololá	710	Panajachel	8	Panajachel	2	Febrero	2023-06-02T00:00:00	2024-11-08T17:00:00	7	Dirección del viento	4.83
18243	7	Sololá	710	Panajachel	8	Panajachel	2	Febrero	2023-06-02T00:00:00	2024-11-08T17:00:00	1	Precipitación	0
18244	7	Sololá	710	Panajachel	8	Panajachel	2	Febrero	2023-06-02T00:00:00	2024-11-08T17:00:00	8	Radiación solar	350
18245	7	Sololá	710	Panajachel	8	Panajachel	2	Febrero	2023-06-02T00:00:00	2024-11-08T18:00:00	2	Temperatura media	20.1
18246	7	Sololá	710	Panajachel	8	Panajachel	2	Febrero	2023-06-02T00:00:00	2024-11-08T18:00:00	4	Temperatura máxima	23.4
18247	7	Sololá	710	Panajachel	8	Panajachel	2	Febrero	2023-06-02T00:00:00	2024-11-08T18:00:00	3	Temperatura mínima	20.1
18248	7	Sololá	710	Panajachel	8	Panajachel	2	Febrero	2023-06-02T00:00:00	2024-11-08T18:00:00	5	Humedad	58
18249	7	Sololá	710	Panajachel	8	Panajachel	2	Febrero	2023-06-02T00:00:00	2024-11-08T18:00:00	6	Velocidad del viento	8
18250	7	Sololá	710	Panajachel	8	Panajachel	2	Febrero	2023-06-02T00:00:00	2024-11-08T18:00:00	7	Dirección del viento	8.05
18251	7	Sololá	710	Panajachel	8	Panajachel	2	Febrero	2023-06-02T00:00:00	2024-11-08T18:00:00	1	Precipitación	0
18252	7	Sololá	710	Panajachel	8	Panajachel	2	Febrero	2023-06-02T00:00:00	2024-11-08T18:00:00	8	Radiación solar	86
18253	7	Sololá	710	Panajachel	8	Panajachel	2	Febrero	2023-06-02T00:00:00	2024-11-08T19:00:00	2	Temperatura media	18.8
18254	7	Sololá	710	Panajachel	8	Panajachel	2	Febrero	2023-06-02T00:00:00	2024-11-08T19:00:00	4	Temperatura máxima	20.2
18255	7	Sololá	710	Panajachel	8	Panajachel	2	Febrero	2023-06-02T00:00:00	2024-11-08T19:00:00	3	Temperatura mínima	18.8
18256	7	Sololá	710	Panajachel	8	Panajachel	2	Febrero	2023-06-02T00:00:00	2024-11-08T19:00:00	5	Humedad	60
18257	7	Sololá	710	Panajachel	8	Panajachel	2	Febrero	2023-06-02T00:00:00	2024-11-08T19:00:00	6	Velocidad del viento	12.9
18258	7	Sololá	710	Panajachel	8	Panajachel	2	Febrero	2023-06-02T00:00:00	2024-11-08T19:00:00	7	Dirección del viento	12.87
18259	7	Sololá	710	Panajachel	8	Panajachel	2	Febrero	2023-06-02T00:00:00	2024-11-08T19:00:00	1	Precipitación	0
18260	7	Sololá	710	Panajachel	8	Panajachel	2	Febrero	2023-06-02T00:00:00	2024-11-08T19:00:00	8	Radiación solar	0
18261	7	Sololá	710	Panajachel	8	Panajachel	2	Febrero	2023-06-02T00:00:00	2024-11-08T20:00:00	2	Temperatura media	17.9
18262	7	Sololá	710	Panajachel	8	Panajachel	2	Febrero	2023-06-02T00:00:00	2024-11-08T20:00:00	4	Temperatura máxima	18.8
18263	7	Sololá	710	Panajachel	8	Panajachel	2	Febrero	2023-06-02T00:00:00	2024-11-08T20:00:00	3	Temperatura mínima	17.9
18264	7	Sololá	710	Panajachel	8	Panajachel	2	Febrero	2023-06-02T00:00:00	2024-11-08T20:00:00	5	Humedad	62
18265	7	Sololá	710	Panajachel	8	Panajachel	2	Febrero	2023-06-02T00:00:00	2024-11-08T20:00:00	6	Velocidad del viento	14.5
18266	7	Sololá	710	Panajachel	8	Panajachel	2	Febrero	2023-06-02T00:00:00	2024-11-08T20:00:00	7	Dirección del viento	14.48
18267	7	Sololá	710	Panajachel	8	Panajachel	2	Febrero	2023-06-02T00:00:00	2024-11-08T20:00:00	1	Precipitación	0
18268	7	Sololá	710	Panajachel	8	Panajachel	2	Febrero	2023-06-02T00:00:00	2024-11-08T20:00:00	8	Radiación solar	0
18269	7	Sololá	710	Panajachel	8	Panajachel	2	Febrero	2023-06-02T00:00:00	2024-11-08T21:00:00	2	Temperatura media	17.7
18270	7	Sololá	710	Panajachel	8	Panajachel	2	Febrero	2023-06-02T00:00:00	2024-11-08T21:00:00	4	Temperatura máxima	17.9
18271	7	Sololá	710	Panajachel	8	Panajachel	2	Febrero	2023-06-02T00:00:00	2024-11-08T21:00:00	3	Temperatura mínima	17.6
18272	7	Sololá	710	Panajachel	8	Panajachel	2	Febrero	2023-06-02T00:00:00	2024-11-08T21:00:00	5	Humedad	60
18273	7	Sololá	710	Panajachel	8	Panajachel	2	Febrero	2023-06-02T00:00:00	2024-11-08T21:00:00	6	Velocidad del viento	16.1
18274	7	Sololá	710	Panajachel	8	Panajachel	2	Febrero	2023-06-02T00:00:00	2024-11-08T21:00:00	7	Dirección del viento	16.09
18275	7	Sololá	710	Panajachel	8	Panajachel	2	Febrero	2023-06-02T00:00:00	2024-11-08T21:00:00	1	Precipitación	0
18276	7	Sololá	710	Panajachel	8	Panajachel	2	Febrero	2023-06-02T00:00:00	2024-11-08T21:00:00	8	Radiación solar	0
18277	7	Sololá	710	Panajachel	8	Panajachel	2	Febrero	2023-06-02T00:00:00	2024-11-08T22:00:00	2	Temperatura media	17.3
18278	7	Sololá	710	Panajachel	8	Panajachel	2	Febrero	2023-06-02T00:00:00	2024-11-08T22:00:00	4	Temperatura máxima	17.7
18279	7	Sololá	710	Panajachel	8	Panajachel	2	Febrero	2023-06-02T00:00:00	2024-11-08T22:00:00	3	Temperatura mínima	17.3
18280	7	Sololá	710	Panajachel	8	Panajachel	2	Febrero	2023-06-02T00:00:00	2024-11-08T22:00:00	5	Humedad	61
18281	7	Sololá	710	Panajachel	8	Panajachel	2	Febrero	2023-06-02T00:00:00	2024-11-08T22:00:00	6	Velocidad del viento	14.5
18282	7	Sololá	710	Panajachel	8	Panajachel	2	Febrero	2023-06-02T00:00:00	2024-11-08T22:00:00	7	Dirección del viento	14.48
18283	7	Sololá	710	Panajachel	8	Panajachel	2	Febrero	2023-06-02T00:00:00	2024-11-08T22:00:00	1	Precipitación	0
18284	7	Sololá	710	Panajachel	8	Panajachel	2	Febrero	2023-06-02T00:00:00	2024-11-08T22:00:00	8	Radiación solar	0
18285	7	Sololá	710	Panajachel	8	Panajachel	2	Febrero	2023-06-02T00:00:00	2024-11-08T23:00:00	2	Temperatura media	17.1
18286	7	Sololá	710	Panajachel	8	Panajachel	2	Febrero	2023-06-02T00:00:00	2024-11-08T23:00:00	4	Temperatura máxima	17.4
18287	7	Sololá	710	Panajachel	8	Panajachel	2	Febrero	2023-06-02T00:00:00	2024-11-08T23:00:00	3	Temperatura mínima	17
18288	7	Sololá	710	Panajachel	8	Panajachel	2	Febrero	2023-06-02T00:00:00	2024-11-08T23:00:00	5	Humedad	61
18289	7	Sololá	710	Panajachel	8	Panajachel	2	Febrero	2023-06-02T00:00:00	2024-11-08T23:00:00	6	Velocidad del viento	11.3
18290	7	Sololá	710	Panajachel	8	Panajachel	2	Febrero	2023-06-02T00:00:00	2024-11-08T23:00:00	7	Dirección del viento	11.27
18291	7	Sololá	710	Panajachel	8	Panajachel	2	Febrero	2023-06-02T00:00:00	2024-11-08T23:00:00	1	Precipitación	0
18292	7	Sololá	710	Panajachel	8	Panajachel	2	Febrero	2023-06-02T00:00:00	2024-11-08T23:00:00	8	Radiación solar	0
18293	7	Sololá	710	Panajachel	8	Panajachel	2	Febrero	2023-07-02T00:00:00	2024-11-08T00:00:00	2	Temperatura media	16.4
18294	7	Sololá	710	Panajachel	8	Panajachel	2	Febrero	2023-07-02T00:00:00	2024-11-08T00:00:00	4	Temperatura máxima	17.2
18295	7	Sololá	710	Panajachel	8	Panajachel	2	Febrero	2023-07-02T00:00:00	2024-11-08T00:00:00	3	Temperatura mínima	16.4
18296	7	Sololá	710	Panajachel	8	Panajachel	2	Febrero	2023-07-02T00:00:00	2024-11-08T00:00:00	5	Humedad	62
18297	7	Sololá	710	Panajachel	8	Panajachel	2	Febrero	2023-07-02T00:00:00	2024-11-08T00:00:00	6	Velocidad del viento	8
18298	7	Sololá	710	Panajachel	8	Panajachel	2	Febrero	2023-07-02T00:00:00	2024-11-08T00:00:00	7	Dirección del viento	8.05
18299	7	Sololá	710	Panajachel	8	Panajachel	2	Febrero	2023-07-02T00:00:00	2024-11-08T00:00:00	1	Precipitación	0
18300	7	Sololá	710	Panajachel	8	Panajachel	2	Febrero	2023-07-02T00:00:00	2024-11-08T00:00:00	8	Radiación solar	0
18301	7	Sololá	710	Panajachel	8	Panajachel	2	Febrero	2023-07-02T00:00:00	2024-11-08T01:00:00	2	Temperatura media	16.1
18302	7	Sololá	710	Panajachel	8	Panajachel	2	Febrero	2023-07-02T00:00:00	2024-11-08T01:00:00	4	Temperatura máxima	16.4
18303	7	Sololá	710	Panajachel	8	Panajachel	2	Febrero	2023-07-02T00:00:00	2024-11-08T01:00:00	3	Temperatura mínima	15.9
18304	7	Sololá	710	Panajachel	8	Panajachel	2	Febrero	2023-07-02T00:00:00	2024-11-08T01:00:00	5	Humedad	63
18305	7	Sololá	710	Panajachel	8	Panajachel	2	Febrero	2023-07-02T00:00:00	2024-11-08T01:00:00	6	Velocidad del viento	3.2
18306	7	Sololá	710	Panajachel	8	Panajachel	2	Febrero	2023-07-02T00:00:00	2024-11-08T01:00:00	7	Dirección del viento	3.22
18307	7	Sololá	710	Panajachel	8	Panajachel	2	Febrero	2023-07-02T00:00:00	2024-11-08T01:00:00	1	Precipitación	0
18308	7	Sololá	710	Panajachel	8	Panajachel	2	Febrero	2023-07-02T00:00:00	2024-11-08T01:00:00	8	Radiación solar	0
18309	7	Sololá	710	Panajachel	8	Panajachel	2	Febrero	2023-07-02T00:00:00	2024-11-08T02:00:00	2	Temperatura media	15.6
18310	7	Sololá	710	Panajachel	8	Panajachel	2	Febrero	2023-07-02T00:00:00	2024-11-08T02:00:00	4	Temperatura máxima	16.1
18311	7	Sololá	710	Panajachel	8	Panajachel	2	Febrero	2023-07-02T00:00:00	2024-11-08T02:00:00	3	Temperatura mínima	15.6
18312	7	Sololá	710	Panajachel	8	Panajachel	2	Febrero	2023-07-02T00:00:00	2024-11-08T02:00:00	5	Humedad	65
18313	7	Sololá	710	Panajachel	8	Panajachel	2	Febrero	2023-07-02T00:00:00	2024-11-08T02:00:00	6	Velocidad del viento	3.2
18314	7	Sololá	710	Panajachel	8	Panajachel	2	Febrero	2023-07-02T00:00:00	2024-11-08T02:00:00	7	Dirección del viento	3.22
18315	7	Sololá	710	Panajachel	8	Panajachel	2	Febrero	2023-07-02T00:00:00	2024-11-08T02:00:00	1	Precipitación	0
18316	7	Sololá	710	Panajachel	8	Panajachel	2	Febrero	2023-07-02T00:00:00	2024-11-08T02:00:00	8	Radiación solar	0
18317	7	Sololá	710	Panajachel	8	Panajachel	2	Febrero	2023-07-02T00:00:00	2024-11-08T03:00:00	2	Temperatura media	15.3
18318	7	Sololá	710	Panajachel	8	Panajachel	2	Febrero	2023-07-02T00:00:00	2024-11-08T03:00:00	4	Temperatura máxima	15.6
18319	7	Sololá	710	Panajachel	8	Panajachel	2	Febrero	2023-07-02T00:00:00	2024-11-08T03:00:00	3	Temperatura mínima	15.1
18320	7	Sololá	710	Panajachel	8	Panajachel	2	Febrero	2023-07-02T00:00:00	2024-11-08T03:00:00	5	Humedad	67
18321	7	Sololá	710	Panajachel	8	Panajachel	2	Febrero	2023-07-02T00:00:00	2024-11-08T03:00:00	6	Velocidad del viento	3.2
18322	7	Sololá	710	Panajachel	8	Panajachel	2	Febrero	2023-07-02T00:00:00	2024-11-08T03:00:00	7	Dirección del viento	3.22
18323	7	Sololá	710	Panajachel	8	Panajachel	2	Febrero	2023-07-02T00:00:00	2024-11-08T03:00:00	1	Precipitación	0
18324	7	Sololá	710	Panajachel	8	Panajachel	2	Febrero	2023-07-02T00:00:00	2024-11-08T03:00:00	8	Radiación solar	0
18325	7	Sololá	710	Panajachel	8	Panajachel	2	Febrero	2023-07-02T00:00:00	2024-11-08T04:00:00	2	Temperatura media	15.7
18326	7	Sololá	710	Panajachel	8	Panajachel	2	Febrero	2023-07-02T00:00:00	2024-11-08T04:00:00	4	Temperatura máxima	15.7
18327	7	Sololá	710	Panajachel	8	Panajachel	2	Febrero	2023-07-02T00:00:00	2024-11-08T04:00:00	3	Temperatura mínima	15.1
18328	7	Sololá	710	Panajachel	8	Panajachel	2	Febrero	2023-07-02T00:00:00	2024-11-08T04:00:00	5	Humedad	63
18329	7	Sololá	710	Panajachel	8	Panajachel	2	Febrero	2023-07-02T00:00:00	2024-11-08T04:00:00	6	Velocidad del viento	3.2
18330	7	Sololá	710	Panajachel	8	Panajachel	2	Febrero	2023-07-02T00:00:00	2024-11-08T04:00:00	7	Dirección del viento	3.22
18331	7	Sololá	710	Panajachel	8	Panajachel	2	Febrero	2023-07-02T00:00:00	2024-11-08T04:00:00	1	Precipitación	0
18332	7	Sololá	710	Panajachel	8	Panajachel	2	Febrero	2023-07-02T00:00:00	2024-11-08T04:00:00	8	Radiación solar	0
18333	7	Sololá	710	Panajachel	8	Panajachel	2	Febrero	2023-07-02T00:00:00	2024-11-08T05:00:00	2	Temperatura media	15.1
18334	7	Sololá	710	Panajachel	8	Panajachel	2	Febrero	2023-07-02T00:00:00	2024-11-08T05:00:00	4	Temperatura máxima	15.7
18335	7	Sololá	710	Panajachel	8	Panajachel	2	Febrero	2023-07-02T00:00:00	2024-11-08T05:00:00	3	Temperatura mínima	15.1
18336	7	Sololá	710	Panajachel	8	Panajachel	2	Febrero	2023-07-02T00:00:00	2024-11-08T05:00:00	5	Humedad	63
18337	7	Sololá	710	Panajachel	8	Panajachel	2	Febrero	2023-07-02T00:00:00	2024-11-08T05:00:00	6	Velocidad del viento	4.8
18338	7	Sololá	710	Panajachel	8	Panajachel	2	Febrero	2023-07-02T00:00:00	2024-11-08T05:00:00	7	Dirección del viento	4.83
18339	7	Sololá	710	Panajachel	8	Panajachel	2	Febrero	2023-07-02T00:00:00	2024-11-08T05:00:00	1	Precipitación	0
18340	7	Sololá	710	Panajachel	8	Panajachel	2	Febrero	2023-07-02T00:00:00	2024-11-08T05:00:00	8	Radiación solar	0
18341	7	Sololá	710	Panajachel	8	Panajachel	2	Febrero	2023-07-02T00:00:00	2024-11-08T06:00:00	2	Temperatura media	14
18342	7	Sololá	710	Panajachel	8	Panajachel	2	Febrero	2023-07-02T00:00:00	2024-11-08T06:00:00	4	Temperatura máxima	15.2
18343	7	Sololá	710	Panajachel	8	Panajachel	2	Febrero	2023-07-02T00:00:00	2024-11-08T06:00:00	3	Temperatura mínima	14
18344	7	Sololá	710	Panajachel	8	Panajachel	2	Febrero	2023-07-02T00:00:00	2024-11-08T06:00:00	5	Humedad	65
18345	7	Sololá	710	Panajachel	8	Panajachel	2	Febrero	2023-07-02T00:00:00	2024-11-08T06:00:00	6	Velocidad del viento	3.2
18346	7	Sololá	710	Panajachel	8	Panajachel	2	Febrero	2023-07-02T00:00:00	2024-11-08T06:00:00	7	Dirección del viento	3.22
18347	7	Sololá	710	Panajachel	8	Panajachel	2	Febrero	2023-07-02T00:00:00	2024-11-08T06:00:00	1	Precipitación	0
18348	7	Sololá	710	Panajachel	8	Panajachel	2	Febrero	2023-07-02T00:00:00	2024-11-08T06:00:00	8	Radiación solar	0
18349	7	Sololá	710	Panajachel	8	Panajachel	2	Febrero	2023-07-02T00:00:00	2024-11-08T07:00:00	2	Temperatura media	14.1
18350	7	Sololá	710	Panajachel	8	Panajachel	2	Febrero	2023-07-02T00:00:00	2024-11-08T07:00:00	4	Temperatura máxima	14.2
18351	7	Sololá	710	Panajachel	8	Panajachel	2	Febrero	2023-07-02T00:00:00	2024-11-08T07:00:00	3	Temperatura mínima	13.5
18352	7	Sololá	710	Panajachel	8	Panajachel	2	Febrero	2023-07-02T00:00:00	2024-11-08T07:00:00	5	Humedad	65
18353	7	Sololá	710	Panajachel	8	Panajachel	2	Febrero	2023-07-02T00:00:00	2024-11-08T07:00:00	6	Velocidad del viento	1.6
18354	7	Sololá	710	Panajachel	8	Panajachel	2	Febrero	2023-07-02T00:00:00	2024-11-08T07:00:00	7	Dirección del viento	1.61
18355	7	Sololá	710	Panajachel	8	Panajachel	2	Febrero	2023-07-02T00:00:00	2024-11-08T07:00:00	1	Precipitación	0
18356	7	Sololá	710	Panajachel	8	Panajachel	2	Febrero	2023-07-02T00:00:00	2024-11-08T07:00:00	8	Radiación solar	4
18357	7	Sololá	710	Panajachel	8	Panajachel	2	Febrero	2023-07-02T00:00:00	2024-11-08T08:00:00	2	Temperatura media	15.5
18358	7	Sololá	710	Panajachel	8	Panajachel	2	Febrero	2023-07-02T00:00:00	2024-11-08T08:00:00	4	Temperatura máxima	15.5
18359	7	Sololá	710	Panajachel	8	Panajachel	2	Febrero	2023-07-02T00:00:00	2024-11-08T08:00:00	3	Temperatura mínima	14.1
18360	7	Sololá	710	Panajachel	8	Panajachel	2	Febrero	2023-07-02T00:00:00	2024-11-08T08:00:00	5	Humedad	63
18361	7	Sololá	710	Panajachel	8	Panajachel	2	Febrero	2023-07-02T00:00:00	2024-11-08T08:00:00	6	Velocidad del viento	1.6
18362	7	Sololá	710	Panajachel	8	Panajachel	2	Febrero	2023-07-02T00:00:00	2024-11-08T08:00:00	7	Dirección del viento	1.61
18363	7	Sololá	710	Panajachel	8	Panajachel	2	Febrero	2023-07-02T00:00:00	2024-11-08T08:00:00	1	Precipitación	0
18364	7	Sololá	710	Panajachel	8	Panajachel	2	Febrero	2023-07-02T00:00:00	2024-11-08T08:00:00	8	Radiación solar	57
18365	7	Sololá	710	Panajachel	8	Panajachel	2	Febrero	2023-07-02T00:00:00	2024-11-08T09:00:00	2	Temperatura media	18.4
18366	7	Sololá	710	Panajachel	8	Panajachel	2	Febrero	2023-07-02T00:00:00	2024-11-08T09:00:00	4	Temperatura máxima	18.4
18367	7	Sololá	710	Panajachel	8	Panajachel	2	Febrero	2023-07-02T00:00:00	2024-11-08T09:00:00	3	Temperatura mínima	15.5
18368	7	Sololá	710	Panajachel	8	Panajachel	2	Febrero	2023-07-02T00:00:00	2024-11-08T09:00:00	5	Humedad	63
18369	7	Sololá	710	Panajachel	8	Panajachel	2	Febrero	2023-07-02T00:00:00	2024-11-08T09:00:00	6	Velocidad del viento	3.2
18370	7	Sololá	710	Panajachel	8	Panajachel	2	Febrero	2023-07-02T00:00:00	2024-11-08T09:00:00	7	Dirección del viento	3.22
18371	7	Sololá	710	Panajachel	8	Panajachel	2	Febrero	2023-07-02T00:00:00	2024-11-08T09:00:00	1	Precipitación	0
18372	7	Sololá	710	Panajachel	8	Panajachel	2	Febrero	2023-07-02T00:00:00	2024-11-08T09:00:00	8	Radiación solar	394
18373	7	Sololá	710	Panajachel	8	Panajachel	2	Febrero	2023-07-02T00:00:00	2024-11-08T10:00:00	2	Temperatura media	20.2
18374	7	Sololá	710	Panajachel	8	Panajachel	2	Febrero	2023-07-02T00:00:00	2024-11-08T10:00:00	4	Temperatura máxima	20.3
18375	7	Sololá	710	Panajachel	8	Panajachel	2	Febrero	2023-07-02T00:00:00	2024-11-08T10:00:00	3	Temperatura mínima	18.4
18376	7	Sololá	710	Panajachel	8	Panajachel	2	Febrero	2023-07-02T00:00:00	2024-11-08T10:00:00	5	Humedad	57
18377	7	Sololá	710	Panajachel	8	Panajachel	2	Febrero	2023-07-02T00:00:00	2024-11-08T10:00:00	6	Velocidad del viento	3.2
18378	7	Sololá	710	Panajachel	8	Panajachel	2	Febrero	2023-07-02T00:00:00	2024-11-08T10:00:00	7	Dirección del viento	3.22
18379	7	Sololá	710	Panajachel	8	Panajachel	2	Febrero	2023-07-02T00:00:00	2024-11-08T10:00:00	1	Precipitación	0
18380	7	Sololá	710	Panajachel	8	Panajachel	2	Febrero	2023-07-02T00:00:00	2024-11-08T10:00:00	8	Radiación solar	596
18381	7	Sololá	710	Panajachel	8	Panajachel	2	Febrero	2023-07-02T00:00:00	2024-11-08T11:00:00	2	Temperatura media	21.7
18382	7	Sololá	710	Panajachel	8	Panajachel	2	Febrero	2023-07-02T00:00:00	2024-11-08T11:00:00	4	Temperatura máxima	21.7
18383	7	Sololá	710	Panajachel	8	Panajachel	2	Febrero	2023-07-02T00:00:00	2024-11-08T11:00:00	3	Temperatura mínima	19.9
18384	7	Sololá	710	Panajachel	8	Panajachel	2	Febrero	2023-07-02T00:00:00	2024-11-08T11:00:00	5	Humedad	53
18385	7	Sololá	710	Panajachel	8	Panajachel	2	Febrero	2023-07-02T00:00:00	2024-11-08T11:00:00	6	Velocidad del viento	3.2
18386	7	Sololá	710	Panajachel	8	Panajachel	2	Febrero	2023-07-02T00:00:00	2024-11-08T11:00:00	7	Dirección del viento	3.22
18387	7	Sololá	710	Panajachel	8	Panajachel	2	Febrero	2023-07-02T00:00:00	2024-11-08T11:00:00	1	Precipitación	0
18388	7	Sololá	710	Panajachel	8	Panajachel	2	Febrero	2023-07-02T00:00:00	2024-11-08T11:00:00	8	Radiación solar	755
18389	7	Sololá	710	Panajachel	8	Panajachel	2	Febrero	2023-07-02T00:00:00	2024-11-08T12:00:00	2	Temperatura media	23.8
18390	7	Sololá	710	Panajachel	8	Panajachel	2	Febrero	2023-07-02T00:00:00	2024-11-08T12:00:00	4	Temperatura máxima	23.8
18391	7	Sololá	710	Panajachel	8	Panajachel	2	Febrero	2023-07-02T00:00:00	2024-11-08T12:00:00	3	Temperatura mínima	21.7
18392	7	Sololá	710	Panajachel	8	Panajachel	2	Febrero	2023-07-02T00:00:00	2024-11-08T12:00:00	5	Humedad	50
18393	7	Sololá	710	Panajachel	8	Panajachel	2	Febrero	2023-07-02T00:00:00	2024-11-08T12:00:00	6	Velocidad del viento	3.2
18394	7	Sololá	710	Panajachel	8	Panajachel	2	Febrero	2023-07-02T00:00:00	2024-11-08T12:00:00	7	Dirección del viento	3.22
18395	7	Sololá	710	Panajachel	8	Panajachel	2	Febrero	2023-07-02T00:00:00	2024-11-08T12:00:00	1	Precipitación	0
18396	7	Sololá	710	Panajachel	8	Panajachel	2	Febrero	2023-07-02T00:00:00	2024-11-08T12:00:00	8	Radiación solar	849
18397	7	Sololá	710	Panajachel	8	Panajachel	2	Febrero	2023-07-02T00:00:00	2024-11-08T13:00:00	2	Temperatura media	23.3
18398	7	Sololá	710	Panajachel	8	Panajachel	2	Febrero	2023-07-02T00:00:00	2024-11-08T13:00:00	4	Temperatura máxima	24.1
18399	7	Sololá	710	Panajachel	8	Panajachel	2	Febrero	2023-07-02T00:00:00	2024-11-08T13:00:00	3	Temperatura mínima	22.7
18400	7	Sololá	710	Panajachel	8	Panajachel	2	Febrero	2023-07-02T00:00:00	2024-11-08T13:00:00	5	Humedad	50
18401	7	Sololá	710	Panajachel	8	Panajachel	2	Febrero	2023-07-02T00:00:00	2024-11-08T13:00:00	6	Velocidad del viento	3.2
18402	7	Sololá	710	Panajachel	8	Panajachel	2	Febrero	2023-07-02T00:00:00	2024-11-08T13:00:00	7	Dirección del viento	3.22
18403	7	Sololá	710	Panajachel	8	Panajachel	2	Febrero	2023-07-02T00:00:00	2024-11-08T13:00:00	1	Precipitación	0
18404	7	Sololá	710	Panajachel	8	Panajachel	2	Febrero	2023-07-02T00:00:00	2024-11-08T13:00:00	8	Radiación solar	866
18405	7	Sololá	710	Panajachel	8	Panajachel	2	Febrero	2023-07-02T00:00:00	2024-11-08T14:00:00	2	Temperatura media	24.6
18406	7	Sololá	710	Panajachel	8	Panajachel	2	Febrero	2023-07-02T00:00:00	2024-11-08T14:00:00	4	Temperatura máxima	24.6
18407	7	Sololá	710	Panajachel	8	Panajachel	2	Febrero	2023-07-02T00:00:00	2024-11-08T14:00:00	3	Temperatura mínima	23.2
18408	7	Sololá	710	Panajachel	8	Panajachel	2	Febrero	2023-07-02T00:00:00	2024-11-08T14:00:00	5	Humedad	60
18409	7	Sololá	710	Panajachel	8	Panajachel	2	Febrero	2023-07-02T00:00:00	2024-11-08T14:00:00	6	Velocidad del viento	3.2
18410	7	Sololá	710	Panajachel	8	Panajachel	2	Febrero	2023-07-02T00:00:00	2024-11-08T14:00:00	7	Dirección del viento	3.22
18411	7	Sololá	710	Panajachel	8	Panajachel	2	Febrero	2023-07-02T00:00:00	2024-11-08T14:00:00	1	Precipitación	0
18412	7	Sololá	710	Panajachel	8	Panajachel	2	Febrero	2023-07-02T00:00:00	2024-11-08T14:00:00	8	Radiación solar	811
18413	7	Sololá	710	Panajachel	8	Panajachel	2	Febrero	2023-07-02T00:00:00	2024-11-08T15:00:00	2	Temperatura media	23.1
18414	7	Sololá	710	Panajachel	8	Panajachel	2	Febrero	2023-07-02T00:00:00	2024-11-08T15:00:00	4	Temperatura máxima	25.1
18415	7	Sololá	710	Panajachel	8	Panajachel	2	Febrero	2023-07-02T00:00:00	2024-11-08T15:00:00	3	Temperatura mínima	23.1
18416	7	Sololá	710	Panajachel	8	Panajachel	2	Febrero	2023-07-02T00:00:00	2024-11-08T15:00:00	5	Humedad	64
18417	7	Sololá	710	Panajachel	8	Panajachel	2	Febrero	2023-07-02T00:00:00	2024-11-08T15:00:00	6	Velocidad del viento	6.4
18418	7	Sololá	710	Panajachel	8	Panajachel	2	Febrero	2023-07-02T00:00:00	2024-11-08T15:00:00	7	Dirección del viento	6.44
18419	7	Sololá	710	Panajachel	8	Panajachel	2	Febrero	2023-07-02T00:00:00	2024-11-08T15:00:00	1	Precipitación	0
18420	7	Sololá	710	Panajachel	8	Panajachel	2	Febrero	2023-07-02T00:00:00	2024-11-08T15:00:00	8	Radiación solar	687
18421	7	Sololá	710	Panajachel	8	Panajachel	2	Febrero	2023-07-02T00:00:00	2024-11-08T16:00:00	2	Temperatura media	23.2
18422	7	Sololá	710	Panajachel	8	Panajachel	2	Febrero	2023-07-02T00:00:00	2024-11-08T16:00:00	4	Temperatura máxima	23.7
18423	7	Sololá	710	Panajachel	8	Panajachel	2	Febrero	2023-07-02T00:00:00	2024-11-08T16:00:00	3	Temperatura mínima	22.8
18424	7	Sololá	710	Panajachel	8	Panajachel	2	Febrero	2023-07-02T00:00:00	2024-11-08T16:00:00	5	Humedad	65
18425	7	Sololá	710	Panajachel	8	Panajachel	2	Febrero	2023-07-02T00:00:00	2024-11-08T16:00:00	6	Velocidad del viento	8
18426	7	Sololá	710	Panajachel	8	Panajachel	2	Febrero	2023-07-02T00:00:00	2024-11-08T16:00:00	7	Dirección del viento	8.05
18427	7	Sololá	710	Panajachel	8	Panajachel	2	Febrero	2023-07-02T00:00:00	2024-11-08T16:00:00	1	Precipitación	0
18428	7	Sololá	710	Panajachel	8	Panajachel	2	Febrero	2023-07-02T00:00:00	2024-11-08T16:00:00	8	Radiación solar	505
18429	7	Sololá	710	Panajachel	8	Panajachel	2	Febrero	2023-07-02T00:00:00	2024-11-08T17:00:00	2	Temperatura media	22.8
18430	7	Sololá	710	Panajachel	8	Panajachel	2	Febrero	2023-07-02T00:00:00	2024-11-08T17:00:00	4	Temperatura máxima	23.2
18431	7	Sololá	710	Panajachel	8	Panajachel	2	Febrero	2023-07-02T00:00:00	2024-11-08T17:00:00	3	Temperatura mínima	22.6
18432	7	Sololá	710	Panajachel	8	Panajachel	2	Febrero	2023-07-02T00:00:00	2024-11-08T17:00:00	5	Humedad	71
18433	7	Sololá	710	Panajachel	8	Panajachel	2	Febrero	2023-07-02T00:00:00	2024-11-08T17:00:00	6	Velocidad del viento	4.8
18434	7	Sololá	710	Panajachel	8	Panajachel	2	Febrero	2023-07-02T00:00:00	2024-11-08T17:00:00	7	Dirección del viento	4.83
18435	7	Sololá	710	Panajachel	8	Panajachel	2	Febrero	2023-07-02T00:00:00	2024-11-08T17:00:00	1	Precipitación	0
18436	7	Sololá	710	Panajachel	8	Panajachel	2	Febrero	2023-07-02T00:00:00	2024-11-08T17:00:00	8	Radiación solar	276
18437	7	Sololá	710	Panajachel	8	Panajachel	2	Febrero	2023-07-02T00:00:00	2024-11-08T18:00:00	2	Temperatura media	20.8
18438	7	Sololá	710	Panajachel	8	Panajachel	2	Febrero	2023-07-02T00:00:00	2024-11-08T18:00:00	4	Temperatura máxima	22.8
18439	7	Sololá	710	Panajachel	8	Panajachel	2	Febrero	2023-07-02T00:00:00	2024-11-08T18:00:00	3	Temperatura mínima	20.8
18440	7	Sololá	710	Panajachel	8	Panajachel	2	Febrero	2023-07-02T00:00:00	2024-11-08T18:00:00	5	Humedad	78
18441	7	Sololá	710	Panajachel	8	Panajachel	2	Febrero	2023-07-02T00:00:00	2024-11-08T18:00:00	6	Velocidad del viento	1.6
18442	7	Sololá	710	Panajachel	8	Panajachel	2	Febrero	2023-07-02T00:00:00	2024-11-08T18:00:00	7	Dirección del viento	1.61
18443	7	Sololá	710	Panajachel	8	Panajachel	2	Febrero	2023-07-02T00:00:00	2024-11-08T18:00:00	1	Precipitación	0
18444	7	Sololá	710	Panajachel	8	Panajachel	2	Febrero	2023-07-02T00:00:00	2024-11-08T18:00:00	8	Radiación solar	74
18445	7	Sololá	710	Panajachel	8	Panajachel	2	Febrero	2023-07-02T00:00:00	2024-11-08T19:00:00	2	Temperatura media	19.1
18446	7	Sololá	710	Panajachel	8	Panajachel	2	Febrero	2023-07-02T00:00:00	2024-11-08T19:00:00	4	Temperatura máxima	20.8
18447	7	Sololá	710	Panajachel	8	Panajachel	2	Febrero	2023-07-02T00:00:00	2024-11-08T19:00:00	3	Temperatura mínima	19.1
18448	7	Sololá	710	Panajachel	8	Panajachel	2	Febrero	2023-07-02T00:00:00	2024-11-08T19:00:00	5	Humedad	82
18449	7	Sololá	710	Panajachel	8	Panajachel	2	Febrero	2023-07-02T00:00:00	2024-11-08T19:00:00	6	Velocidad del viento	1.6
18450	7	Sololá	710	Panajachel	8	Panajachel	2	Febrero	2023-07-02T00:00:00	2024-11-08T19:00:00	7	Dirección del viento	1.61
18451	7	Sololá	710	Panajachel	8	Panajachel	2	Febrero	2023-07-02T00:00:00	2024-11-08T19:00:00	1	Precipitación	0
18452	7	Sololá	710	Panajachel	8	Panajachel	2	Febrero	2023-07-02T00:00:00	2024-11-08T19:00:00	8	Radiación solar	0
18453	7	Sololá	710	Panajachel	8	Panajachel	2	Febrero	2023-07-02T00:00:00	2024-11-08T20:00:00	2	Temperatura media	18.3
18454	7	Sololá	710	Panajachel	8	Panajachel	2	Febrero	2023-07-02T00:00:00	2024-11-08T20:00:00	4	Temperatura máxima	19.1
18455	7	Sololá	710	Panajachel	8	Panajachel	2	Febrero	2023-07-02T00:00:00	2024-11-08T20:00:00	3	Temperatura mínima	18.2
18456	7	Sololá	710	Panajachel	8	Panajachel	2	Febrero	2023-07-02T00:00:00	2024-11-08T20:00:00	5	Humedad	80
18457	7	Sololá	710	Panajachel	8	Panajachel	2	Febrero	2023-07-02T00:00:00	2024-11-08T20:00:00	6	Velocidad del viento	1.6
18458	7	Sololá	710	Panajachel	8	Panajachel	2	Febrero	2023-07-02T00:00:00	2024-11-08T20:00:00	7	Dirección del viento	1.61
18459	7	Sololá	710	Panajachel	8	Panajachel	2	Febrero	2023-07-02T00:00:00	2024-11-08T20:00:00	1	Precipitación	0
18460	7	Sololá	710	Panajachel	8	Panajachel	2	Febrero	2023-07-02T00:00:00	2024-11-08T20:00:00	8	Radiación solar	0
18461	7	Sololá	710	Panajachel	8	Panajachel	2	Febrero	2023-07-02T00:00:00	2024-11-08T21:00:00	2	Temperatura media	17.9
18462	7	Sololá	710	Panajachel	8	Panajachel	2	Febrero	2023-07-02T00:00:00	2024-11-08T21:00:00	4	Temperatura máxima	18.4
18463	7	Sololá	710	Panajachel	8	Panajachel	2	Febrero	2023-07-02T00:00:00	2024-11-08T21:00:00	3	Temperatura mínima	17.9
18464	7	Sololá	710	Panajachel	8	Panajachel	2	Febrero	2023-07-02T00:00:00	2024-11-08T21:00:00	5	Humedad	76
18465	7	Sololá	710	Panajachel	8	Panajachel	2	Febrero	2023-07-02T00:00:00	2024-11-08T21:00:00	6	Velocidad del viento	1.6
18466	7	Sololá	710	Panajachel	8	Panajachel	2	Febrero	2023-07-02T00:00:00	2024-11-08T21:00:00	7	Dirección del viento	1.61
18467	7	Sololá	710	Panajachel	8	Panajachel	2	Febrero	2023-07-02T00:00:00	2024-11-08T21:00:00	1	Precipitación	0
18468	7	Sololá	710	Panajachel	8	Panajachel	2	Febrero	2023-07-02T00:00:00	2024-11-08T21:00:00	8	Radiación solar	0
18469	7	Sololá	710	Panajachel	8	Panajachel	2	Febrero	2023-07-02T00:00:00	2024-11-08T22:00:00	2	Temperatura media	17.8
18470	7	Sololá	710	Panajachel	8	Panajachel	2	Febrero	2023-07-02T00:00:00	2024-11-08T22:00:00	4	Temperatura máxima	17.9
18471	7	Sololá	710	Panajachel	8	Panajachel	2	Febrero	2023-07-02T00:00:00	2024-11-08T22:00:00	3	Temperatura mínima	17.4
18472	7	Sololá	710	Panajachel	8	Panajachel	2	Febrero	2023-07-02T00:00:00	2024-11-08T22:00:00	5	Humedad	73
18473	7	Sololá	710	Panajachel	8	Panajachel	2	Febrero	2023-07-02T00:00:00	2024-11-08T22:00:00	6	Velocidad del viento	4.8
18474	7	Sololá	710	Panajachel	8	Panajachel	2	Febrero	2023-07-02T00:00:00	2024-11-08T22:00:00	7	Dirección del viento	4.83
18475	7	Sololá	710	Panajachel	8	Panajachel	2	Febrero	2023-07-02T00:00:00	2024-11-08T22:00:00	1	Precipitación	0
18476	7	Sololá	710	Panajachel	8	Panajachel	2	Febrero	2023-07-02T00:00:00	2024-11-08T22:00:00	8	Radiación solar	0
18477	7	Sololá	710	Panajachel	8	Panajachel	2	Febrero	2023-07-02T00:00:00	2024-11-08T23:00:00	2	Temperatura media	17.6
18478	7	Sololá	710	Panajachel	8	Panajachel	2	Febrero	2023-07-02T00:00:00	2024-11-08T23:00:00	4	Temperatura máxima	18.1
18479	7	Sololá	710	Panajachel	8	Panajachel	2	Febrero	2023-07-02T00:00:00	2024-11-08T23:00:00	3	Temperatura mínima	17.6
18480	7	Sololá	710	Panajachel	8	Panajachel	2	Febrero	2023-07-02T00:00:00	2024-11-08T23:00:00	5	Humedad	72
18481	7	Sololá	710	Panajachel	8	Panajachel	2	Febrero	2023-07-02T00:00:00	2024-11-08T23:00:00	6	Velocidad del viento	4.8
18482	7	Sololá	710	Panajachel	8	Panajachel	2	Febrero	2023-07-02T00:00:00	2024-11-08T23:00:00	7	Dirección del viento	4.83
18483	7	Sololá	710	Panajachel	8	Panajachel	2	Febrero	2023-07-02T00:00:00	2024-11-08T23:00:00	1	Precipitación	0
18484	7	Sololá	710	Panajachel	8	Panajachel	2	Febrero	2023-07-02T00:00:00	2024-11-08T23:00:00	8	Radiación solar	0
18485	7	Sololá	710	Panajachel	8	Panajachel	2	Febrero	2023-08-02T00:00:00	2024-11-08T00:00:00	2	Temperatura media	16.7
18486	7	Sololá	710	Panajachel	8	Panajachel	2	Febrero	2023-08-02T00:00:00	2024-11-08T00:00:00	4	Temperatura máxima	17.6
18487	7	Sololá	710	Panajachel	8	Panajachel	2	Febrero	2023-08-02T00:00:00	2024-11-08T00:00:00	3	Temperatura mínima	16.7
18488	7	Sololá	710	Panajachel	8	Panajachel	2	Febrero	2023-08-02T00:00:00	2024-11-08T00:00:00	5	Humedad	76
18489	7	Sololá	710	Panajachel	8	Panajachel	2	Febrero	2023-08-02T00:00:00	2024-11-08T00:00:00	6	Velocidad del viento	4.8
18490	7	Sololá	710	Panajachel	8	Panajachel	2	Febrero	2023-08-02T00:00:00	2024-11-08T00:00:00	7	Dirección del viento	4.83
18491	7	Sololá	710	Panajachel	8	Panajachel	2	Febrero	2023-08-02T00:00:00	2024-11-08T00:00:00	1	Precipitación	0
18492	7	Sololá	710	Panajachel	8	Panajachel	2	Febrero	2023-08-02T00:00:00	2024-11-08T00:00:00	8	Radiación solar	0
18493	7	Sololá	710	Panajachel	8	Panajachel	2	Febrero	2023-08-02T00:00:00	2024-11-08T01:00:00	2	Temperatura media	16.1
18494	7	Sololá	710	Panajachel	8	Panajachel	2	Febrero	2023-08-02T00:00:00	2024-11-08T01:00:00	4	Temperatura máxima	17.1
18495	7	Sololá	710	Panajachel	8	Panajachel	2	Febrero	2023-08-02T00:00:00	2024-11-08T01:00:00	3	Temperatura mínima	16.1
18496	7	Sololá	710	Panajachel	8	Panajachel	2	Febrero	2023-08-02T00:00:00	2024-11-08T01:00:00	5	Humedad	75
18497	7	Sololá	710	Panajachel	8	Panajachel	2	Febrero	2023-08-02T00:00:00	2024-11-08T01:00:00	6	Velocidad del viento	3.2
18498	7	Sololá	710	Panajachel	8	Panajachel	2	Febrero	2023-08-02T00:00:00	2024-11-08T01:00:00	7	Dirección del viento	3.22
18499	7	Sololá	710	Panajachel	8	Panajachel	2	Febrero	2023-08-02T00:00:00	2024-11-08T01:00:00	1	Precipitación	0
18500	7	Sololá	710	Panajachel	8	Panajachel	2	Febrero	2023-08-02T00:00:00	2024-11-08T01:00:00	8	Radiación solar	0
18501	7	Sololá	710	Panajachel	8	Panajachel	2	Febrero	2023-08-02T00:00:00	2024-11-08T02:00:00	2	Temperatura media	15.7
18502	7	Sololá	710	Panajachel	8	Panajachel	2	Febrero	2023-08-02T00:00:00	2024-11-08T02:00:00	4	Temperatura máxima	16.2
18503	7	Sololá	710	Panajachel	8	Panajachel	2	Febrero	2023-08-02T00:00:00	2024-11-08T02:00:00	3	Temperatura mínima	15.4
18504	7	Sololá	710	Panajachel	8	Panajachel	2	Febrero	2023-08-02T00:00:00	2024-11-08T02:00:00	5	Humedad	76
18505	7	Sololá	710	Panajachel	8	Panajachel	2	Febrero	2023-08-02T00:00:00	2024-11-08T02:00:00	6	Velocidad del viento	6.4
18506	7	Sololá	710	Panajachel	8	Panajachel	2	Febrero	2023-08-02T00:00:00	2024-11-08T02:00:00	7	Dirección del viento	6.44
18507	7	Sololá	710	Panajachel	8	Panajachel	2	Febrero	2023-08-02T00:00:00	2024-11-08T02:00:00	1	Precipitación	0
18508	7	Sololá	710	Panajachel	8	Panajachel	2	Febrero	2023-08-02T00:00:00	2024-11-08T02:00:00	8	Radiación solar	0
18509	7	Sololá	710	Panajachel	8	Panajachel	2	Febrero	2023-08-02T00:00:00	2024-11-08T03:00:00	2	Temperatura media	14.8
18510	7	Sololá	710	Panajachel	8	Panajachel	2	Febrero	2023-08-02T00:00:00	2024-11-08T03:00:00	4	Temperatura máxima	15.8
18511	7	Sololá	710	Panajachel	8	Panajachel	2	Febrero	2023-08-02T00:00:00	2024-11-08T03:00:00	3	Temperatura mínima	14.7
18512	7	Sololá	710	Panajachel	8	Panajachel	2	Febrero	2023-08-02T00:00:00	2024-11-08T03:00:00	5	Humedad	78
18513	7	Sololá	710	Panajachel	8	Panajachel	2	Febrero	2023-08-02T00:00:00	2024-11-08T03:00:00	6	Velocidad del viento	3.2
18514	7	Sololá	710	Panajachel	8	Panajachel	2	Febrero	2023-08-02T00:00:00	2024-11-08T03:00:00	7	Dirección del viento	3.22
18515	7	Sololá	710	Panajachel	8	Panajachel	2	Febrero	2023-08-02T00:00:00	2024-11-08T03:00:00	1	Precipitación	0
18516	7	Sololá	710	Panajachel	8	Panajachel	2	Febrero	2023-08-02T00:00:00	2024-11-08T03:00:00	8	Radiación solar	0
18517	7	Sololá	710	Panajachel	8	Panajachel	2	Febrero	2023-08-02T00:00:00	2024-11-08T04:00:00	2	Temperatura media	15.2
18518	7	Sololá	710	Panajachel	8	Panajachel	2	Febrero	2023-08-02T00:00:00	2024-11-08T04:00:00	4	Temperatura máxima	15.2
18519	7	Sololá	710	Panajachel	8	Panajachel	2	Febrero	2023-08-02T00:00:00	2024-11-08T04:00:00	3	Temperatura mínima	14.6
18520	7	Sololá	710	Panajachel	8	Panajachel	2	Febrero	2023-08-02T00:00:00	2024-11-08T04:00:00	5	Humedad	75
18521	7	Sololá	710	Panajachel	8	Panajachel	2	Febrero	2023-08-02T00:00:00	2024-11-08T04:00:00	6	Velocidad del viento	1.6
18522	7	Sololá	710	Panajachel	8	Panajachel	2	Febrero	2023-08-02T00:00:00	2024-11-08T04:00:00	7	Dirección del viento	1.61
18523	7	Sololá	710	Panajachel	8	Panajachel	2	Febrero	2023-08-02T00:00:00	2024-11-08T04:00:00	1	Precipitación	0
18524	7	Sololá	710	Panajachel	8	Panajachel	2	Febrero	2023-08-02T00:00:00	2024-11-08T04:00:00	8	Radiación solar	0
18525	7	Sololá	710	Panajachel	8	Panajachel	2	Febrero	2023-08-02T00:00:00	2024-11-08T05:00:00	2	Temperatura media	15
18526	7	Sololá	710	Panajachel	8	Panajachel	2	Febrero	2023-08-02T00:00:00	2024-11-08T05:00:00	4	Temperatura máxima	15.2
18527	7	Sololá	710	Panajachel	8	Panajachel	2	Febrero	2023-08-02T00:00:00	2024-11-08T05:00:00	3	Temperatura mínima	14.7
18528	7	Sololá	710	Panajachel	8	Panajachel	2	Febrero	2023-08-02T00:00:00	2024-11-08T05:00:00	5	Humedad	74
18529	7	Sololá	710	Panajachel	8	Panajachel	2	Febrero	2023-08-02T00:00:00	2024-11-08T05:00:00	6	Velocidad del viento	1.6
18530	7	Sololá	710	Panajachel	8	Panajachel	2	Febrero	2023-08-02T00:00:00	2024-11-08T05:00:00	7	Dirección del viento	1.61
18531	7	Sololá	710	Panajachel	8	Panajachel	2	Febrero	2023-08-02T00:00:00	2024-11-08T05:00:00	1	Precipitación	0
18532	7	Sololá	710	Panajachel	8	Panajachel	2	Febrero	2023-08-02T00:00:00	2024-11-08T05:00:00	8	Radiación solar	0
18533	7	Sololá	710	Panajachel	8	Panajachel	2	Febrero	2023-08-02T00:00:00	2024-11-08T06:00:00	2	Temperatura media	15.6
18534	7	Sololá	710	Panajachel	8	Panajachel	2	Febrero	2023-08-02T00:00:00	2024-11-08T06:00:00	4	Temperatura máxima	15.6
18535	7	Sololá	710	Panajachel	8	Panajachel	2	Febrero	2023-08-02T00:00:00	2024-11-08T06:00:00	3	Temperatura mínima	14.9
18536	7	Sololá	710	Panajachel	8	Panajachel	2	Febrero	2023-08-02T00:00:00	2024-11-08T06:00:00	5	Humedad	74
18537	7	Sololá	710	Panajachel	8	Panajachel	2	Febrero	2023-08-02T00:00:00	2024-11-08T06:00:00	6	Velocidad del viento	1.6
18538	7	Sololá	710	Panajachel	8	Panajachel	2	Febrero	2023-08-02T00:00:00	2024-11-08T06:00:00	7	Dirección del viento	1.61
18539	7	Sololá	710	Panajachel	8	Panajachel	2	Febrero	2023-08-02T00:00:00	2024-11-08T06:00:00	1	Precipitación	0
18540	7	Sololá	710	Panajachel	8	Panajachel	2	Febrero	2023-08-02T00:00:00	2024-11-08T06:00:00	8	Radiación solar	0
18541	7	Sololá	710	Panajachel	8	Panajachel	2	Febrero	2023-08-02T00:00:00	2024-11-08T07:00:00	2	Temperatura media	15.1
18542	7	Sololá	710	Panajachel	8	Panajachel	2	Febrero	2023-08-02T00:00:00	2024-11-08T07:00:00	4	Temperatura máxima	15.6
18543	7	Sololá	710	Panajachel	8	Panajachel	2	Febrero	2023-08-02T00:00:00	2024-11-08T07:00:00	3	Temperatura mínima	15.1
18544	7	Sololá	710	Panajachel	8	Panajachel	2	Febrero	2023-08-02T00:00:00	2024-11-08T07:00:00	5	Humedad	75
18545	7	Sololá	710	Panajachel	8	Panajachel	2	Febrero	2023-08-02T00:00:00	2024-11-08T07:00:00	6	Velocidad del viento	1.6
18546	7	Sololá	710	Panajachel	8	Panajachel	2	Febrero	2023-08-02T00:00:00	2024-11-08T07:00:00	7	Dirección del viento	1.61
18547	7	Sololá	710	Panajachel	8	Panajachel	2	Febrero	2023-08-02T00:00:00	2024-11-08T07:00:00	1	Precipitación	0
18548	7	Sololá	710	Panajachel	8	Panajachel	2	Febrero	2023-08-02T00:00:00	2024-11-08T07:00:00	8	Radiación solar	4
18549	7	Sololá	710	Panajachel	8	Panajachel	2	Febrero	2023-08-02T00:00:00	2024-11-08T08:00:00	2	Temperatura media	16.3
18550	7	Sololá	710	Panajachel	8	Panajachel	2	Febrero	2023-08-02T00:00:00	2024-11-08T08:00:00	4	Temperatura máxima	16.4
18551	7	Sololá	710	Panajachel	8	Panajachel	2	Febrero	2023-08-02T00:00:00	2024-11-08T08:00:00	3	Temperatura mínima	14.7
18552	7	Sololá	710	Panajachel	8	Panajachel	2	Febrero	2023-08-02T00:00:00	2024-11-08T08:00:00	5	Humedad	70
18553	7	Sololá	710	Panajachel	8	Panajachel	2	Febrero	2023-08-02T00:00:00	2024-11-08T08:00:00	6	Velocidad del viento	1.6
18554	7	Sololá	710	Panajachel	8	Panajachel	2	Febrero	2023-08-02T00:00:00	2024-11-08T08:00:00	7	Dirección del viento	1.61
18555	7	Sololá	710	Panajachel	8	Panajachel	2	Febrero	2023-08-02T00:00:00	2024-11-08T08:00:00	1	Precipitación	0
18556	7	Sololá	710	Panajachel	8	Panajachel	2	Febrero	2023-08-02T00:00:00	2024-11-08T08:00:00	8	Radiación solar	67
18557	7	Sololá	710	Panajachel	8	Panajachel	2	Febrero	2023-08-02T00:00:00	2024-11-08T09:00:00	2	Temperatura media	19.3
18558	7	Sololá	710	Panajachel	8	Panajachel	2	Febrero	2023-08-02T00:00:00	2024-11-08T09:00:00	4	Temperatura máxima	19.3
18559	7	Sololá	710	Panajachel	8	Panajachel	2	Febrero	2023-08-02T00:00:00	2024-11-08T09:00:00	3	Temperatura mínima	16.2
18560	7	Sololá	710	Panajachel	8	Panajachel	2	Febrero	2023-08-02T00:00:00	2024-11-08T09:00:00	5	Humedad	70
18561	7	Sololá	710	Panajachel	8	Panajachel	2	Febrero	2023-08-02T00:00:00	2024-11-08T09:00:00	6	Velocidad del viento	1.6
18562	7	Sololá	710	Panajachel	8	Panajachel	2	Febrero	2023-08-02T00:00:00	2024-11-08T09:00:00	7	Dirección del viento	1.61
18563	7	Sololá	710	Panajachel	8	Panajachel	2	Febrero	2023-08-02T00:00:00	2024-11-08T09:00:00	1	Precipitación	0
18564	7	Sololá	710	Panajachel	8	Panajachel	2	Febrero	2023-08-02T00:00:00	2024-11-08T09:00:00	8	Radiación solar	381
18565	7	Sololá	710	Panajachel	8	Panajachel	2	Febrero	2023-08-02T00:00:00	2024-11-08T10:00:00	2	Temperatura media	20.3
18566	7	Sololá	710	Panajachel	8	Panajachel	2	Febrero	2023-08-02T00:00:00	2024-11-08T10:00:00	4	Temperatura máxima	20.3
18567	7	Sololá	710	Panajachel	8	Panajachel	2	Febrero	2023-08-02T00:00:00	2024-11-08T10:00:00	3	Temperatura mínima	19.1
18568	7	Sololá	710	Panajachel	8	Panajachel	2	Febrero	2023-08-02T00:00:00	2024-11-08T10:00:00	5	Humedad	68
18569	7	Sololá	710	Panajachel	8	Panajachel	2	Febrero	2023-08-02T00:00:00	2024-11-08T10:00:00	6	Velocidad del viento	3.2
18570	7	Sololá	710	Panajachel	8	Panajachel	2	Febrero	2023-08-02T00:00:00	2024-11-08T10:00:00	7	Dirección del viento	3.22
18571	7	Sololá	710	Panajachel	8	Panajachel	2	Febrero	2023-08-02T00:00:00	2024-11-08T10:00:00	1	Precipitación	0
18572	7	Sololá	710	Panajachel	8	Panajachel	2	Febrero	2023-08-02T00:00:00	2024-11-08T10:00:00	8	Radiación solar	586
18573	7	Sololá	710	Panajachel	8	Panajachel	2	Febrero	2023-08-02T00:00:00	2024-11-08T11:00:00	2	Temperatura media	21.7
18574	7	Sololá	710	Panajachel	8	Panajachel	2	Febrero	2023-08-02T00:00:00	2024-11-08T11:00:00	4	Temperatura máxima	21.8
18575	7	Sololá	710	Panajachel	8	Panajachel	2	Febrero	2023-08-02T00:00:00	2024-11-08T11:00:00	3	Temperatura mínima	19.8
18576	7	Sololá	710	Panajachel	8	Panajachel	2	Febrero	2023-08-02T00:00:00	2024-11-08T11:00:00	5	Humedad	58
18577	7	Sololá	710	Panajachel	8	Panajachel	2	Febrero	2023-08-02T00:00:00	2024-11-08T11:00:00	6	Velocidad del viento	4.8
18578	7	Sololá	710	Panajachel	8	Panajachel	2	Febrero	2023-08-02T00:00:00	2024-11-08T11:00:00	7	Dirección del viento	4.83
18579	7	Sololá	710	Panajachel	8	Panajachel	2	Febrero	2023-08-02T00:00:00	2024-11-08T11:00:00	1	Precipitación	0
18580	7	Sololá	710	Panajachel	8	Panajachel	2	Febrero	2023-08-02T00:00:00	2024-11-08T11:00:00	8	Radiación solar	737
18581	7	Sololá	710	Panajachel	8	Panajachel	2	Febrero	2023-08-02T00:00:00	2024-11-08T12:00:00	2	Temperatura media	22.6
18582	7	Sololá	710	Panajachel	8	Panajachel	2	Febrero	2023-08-02T00:00:00	2024-11-08T12:00:00	4	Temperatura máxima	22.9
18583	7	Sololá	710	Panajachel	8	Panajachel	2	Febrero	2023-08-02T00:00:00	2024-11-08T12:00:00	3	Temperatura mínima	21.6
18584	7	Sololá	710	Panajachel	8	Panajachel	2	Febrero	2023-08-02T00:00:00	2024-11-08T12:00:00	5	Humedad	62
18585	7	Sololá	710	Panajachel	8	Panajachel	2	Febrero	2023-08-02T00:00:00	2024-11-08T12:00:00	6	Velocidad del viento	4.8
18586	7	Sololá	710	Panajachel	8	Panajachel	2	Febrero	2023-08-02T00:00:00	2024-11-08T12:00:00	7	Dirección del viento	4.83
18587	7	Sololá	710	Panajachel	8	Panajachel	2	Febrero	2023-08-02T00:00:00	2024-11-08T12:00:00	1	Precipitación	0
18588	7	Sololá	710	Panajachel	8	Panajachel	2	Febrero	2023-08-02T00:00:00	2024-11-08T12:00:00	8	Radiación solar	835
18589	7	Sololá	710	Panajachel	8	Panajachel	2	Febrero	2023-08-02T00:00:00	2024-11-08T13:00:00	2	Temperatura media	23.5
18590	7	Sololá	710	Panajachel	8	Panajachel	2	Febrero	2023-08-02T00:00:00	2024-11-08T13:00:00	4	Temperatura máxima	23.7
18591	7	Sololá	710	Panajachel	8	Panajachel	2	Febrero	2023-08-02T00:00:00	2024-11-08T13:00:00	3	Temperatura mínima	22.5
18592	7	Sololá	710	Panajachel	8	Panajachel	2	Febrero	2023-08-02T00:00:00	2024-11-08T13:00:00	5	Humedad	63
18593	7	Sololá	710	Panajachel	8	Panajachel	2	Febrero	2023-08-02T00:00:00	2024-11-08T13:00:00	6	Velocidad del viento	3.2
18594	7	Sololá	710	Panajachel	8	Panajachel	2	Febrero	2023-08-02T00:00:00	2024-11-08T13:00:00	7	Dirección del viento	3.22
18595	7	Sololá	710	Panajachel	8	Panajachel	2	Febrero	2023-08-02T00:00:00	2024-11-08T13:00:00	1	Precipitación	0
18596	7	Sololá	710	Panajachel	8	Panajachel	2	Febrero	2023-08-02T00:00:00	2024-11-08T13:00:00	8	Radiación solar	882
18597	7	Sololá	710	Panajachel	8	Panajachel	2	Febrero	2023-08-02T00:00:00	2024-11-08T14:00:00	2	Temperatura media	24.2
18598	7	Sololá	710	Panajachel	8	Panajachel	2	Febrero	2023-08-02T00:00:00	2024-11-08T14:00:00	4	Temperatura máxima	24.4
18599	7	Sololá	710	Panajachel	8	Panajachel	2	Febrero	2023-08-02T00:00:00	2024-11-08T14:00:00	3	Temperatura mínima	23.4
18600	7	Sololá	710	Panajachel	8	Panajachel	2	Febrero	2023-08-02T00:00:00	2024-11-08T14:00:00	5	Humedad	64
18601	7	Sololá	710	Panajachel	8	Panajachel	2	Febrero	2023-08-02T00:00:00	2024-11-08T14:00:00	6	Velocidad del viento	3.2
18602	7	Sololá	710	Panajachel	8	Panajachel	2	Febrero	2023-08-02T00:00:00	2024-11-08T14:00:00	7	Dirección del viento	3.22
18603	7	Sololá	710	Panajachel	8	Panajachel	2	Febrero	2023-08-02T00:00:00	2024-11-08T14:00:00	1	Precipitación	0
18604	7	Sololá	710	Panajachel	8	Panajachel	2	Febrero	2023-08-02T00:00:00	2024-11-08T14:00:00	8	Radiación solar	896
18605	7	Sololá	710	Panajachel	8	Panajachel	2	Febrero	2023-08-02T00:00:00	2024-11-08T15:00:00	2	Temperatura media	24.3
18606	7	Sololá	710	Panajachel	8	Panajachel	2	Febrero	2023-08-02T00:00:00	2024-11-08T15:00:00	4	Temperatura máxima	24.9
18607	7	Sololá	710	Panajachel	8	Panajachel	2	Febrero	2023-08-02T00:00:00	2024-11-08T15:00:00	3	Temperatura mínima	24.1
18608	7	Sololá	710	Panajachel	8	Panajachel	2	Febrero	2023-08-02T00:00:00	2024-11-08T15:00:00	5	Humedad	68
18609	7	Sololá	710	Panajachel	8	Panajachel	2	Febrero	2023-08-02T00:00:00	2024-11-08T15:00:00	6	Velocidad del viento	4.8
18610	7	Sololá	710	Panajachel	8	Panajachel	2	Febrero	2023-08-02T00:00:00	2024-11-08T15:00:00	7	Dirección del viento	4.83
18611	7	Sololá	710	Panajachel	8	Panajachel	2	Febrero	2023-08-02T00:00:00	2024-11-08T15:00:00	1	Precipitación	0
18612	7	Sololá	710	Panajachel	8	Panajachel	2	Febrero	2023-08-02T00:00:00	2024-11-08T15:00:00	8	Radiación solar	736
18613	7	Sololá	710	Panajachel	8	Panajachel	2	Febrero	2023-08-02T00:00:00	2024-11-08T16:00:00	2	Temperatura media	22.1
18614	7	Sololá	710	Panajachel	8	Panajachel	2	Febrero	2023-08-02T00:00:00	2024-11-08T16:00:00	4	Temperatura máxima	24.4
18615	7	Sololá	710	Panajachel	8	Panajachel	2	Febrero	2023-08-02T00:00:00	2024-11-08T16:00:00	3	Temperatura mínima	22
18616	7	Sololá	710	Panajachel	8	Panajachel	2	Febrero	2023-08-02T00:00:00	2024-11-08T16:00:00	5	Humedad	72
18617	7	Sololá	710	Panajachel	8	Panajachel	2	Febrero	2023-08-02T00:00:00	2024-11-08T16:00:00	6	Velocidad del viento	8
18618	7	Sololá	710	Panajachel	8	Panajachel	2	Febrero	2023-08-02T00:00:00	2024-11-08T16:00:00	7	Dirección del viento	8.05
18619	7	Sololá	710	Panajachel	8	Panajachel	2	Febrero	2023-08-02T00:00:00	2024-11-08T16:00:00	1	Precipitación	0
18620	7	Sololá	710	Panajachel	8	Panajachel	2	Febrero	2023-08-02T00:00:00	2024-11-08T16:00:00	8	Radiación solar	392
18621	7	Sololá	710	Panajachel	8	Panajachel	2	Febrero	2023-08-02T00:00:00	2024-11-08T17:00:00	2	Temperatura media	22.2
18622	7	Sololá	710	Panajachel	8	Panajachel	2	Febrero	2023-08-02T00:00:00	2024-11-08T17:00:00	4	Temperatura máxima	22.6
18623	7	Sololá	710	Panajachel	8	Panajachel	2	Febrero	2023-08-02T00:00:00	2024-11-08T17:00:00	3	Temperatura mínima	22
18624	7	Sololá	710	Panajachel	8	Panajachel	2	Febrero	2023-08-02T00:00:00	2024-11-08T17:00:00	5	Humedad	73
18625	7	Sololá	710	Panajachel	8	Panajachel	2	Febrero	2023-08-02T00:00:00	2024-11-08T17:00:00	6	Velocidad del viento	1.6
18626	7	Sololá	710	Panajachel	8	Panajachel	2	Febrero	2023-08-02T00:00:00	2024-11-08T17:00:00	7	Dirección del viento	1.61
18627	7	Sololá	710	Panajachel	8	Panajachel	2	Febrero	2023-08-02T00:00:00	2024-11-08T17:00:00	1	Precipitación	0
18628	7	Sololá	710	Panajachel	8	Panajachel	2	Febrero	2023-08-02T00:00:00	2024-11-08T17:00:00	8	Radiación solar	177
18629	7	Sololá	710	Panajachel	8	Panajachel	2	Febrero	2023-08-02T00:00:00	2024-11-08T18:00:00	2	Temperatura media	21.3
18630	7	Sololá	710	Panajachel	8	Panajachel	2	Febrero	2023-08-02T00:00:00	2024-11-08T18:00:00	4	Temperatura máxima	22.3
18631	7	Sololá	710	Panajachel	8	Panajachel	2	Febrero	2023-08-02T00:00:00	2024-11-08T18:00:00	3	Temperatura mínima	21.3
18632	7	Sololá	710	Panajachel	8	Panajachel	2	Febrero	2023-08-02T00:00:00	2024-11-08T18:00:00	5	Humedad	77
18633	7	Sololá	710	Panajachel	8	Panajachel	2	Febrero	2023-08-02T00:00:00	2024-11-08T18:00:00	6	Velocidad del viento	1.6
18634	7	Sololá	710	Panajachel	8	Panajachel	2	Febrero	2023-08-02T00:00:00	2024-11-08T18:00:00	7	Dirección del viento	1.61
18635	7	Sololá	710	Panajachel	8	Panajachel	2	Febrero	2023-08-02T00:00:00	2024-11-08T18:00:00	1	Precipitación	0
18636	7	Sololá	710	Panajachel	8	Panajachel	2	Febrero	2023-08-02T00:00:00	2024-11-08T18:00:00	8	Radiación solar	73
18637	7	Sololá	710	Panajachel	8	Panajachel	2	Febrero	2023-08-02T00:00:00	2024-11-08T19:00:00	2	Temperatura media	19.6
18638	7	Sololá	710	Panajachel	8	Panajachel	2	Febrero	2023-08-02T00:00:00	2024-11-08T19:00:00	4	Temperatura máxima	21.3
18639	7	Sololá	710	Panajachel	8	Panajachel	2	Febrero	2023-08-02T00:00:00	2024-11-08T19:00:00	3	Temperatura mínima	19.6
18640	7	Sololá	710	Panajachel	8	Panajachel	2	Febrero	2023-08-02T00:00:00	2024-11-08T19:00:00	5	Humedad	82
18641	7	Sololá	710	Panajachel	8	Panajachel	2	Febrero	2023-08-02T00:00:00	2024-11-08T19:00:00	6	Velocidad del viento	0
18642	7	Sololá	710	Panajachel	8	Panajachel	2	Febrero	2023-08-02T00:00:00	2024-11-08T19:00:00	7	Dirección del viento	0
18643	7	Sololá	710	Panajachel	8	Panajachel	2	Febrero	2023-08-02T00:00:00	2024-11-08T19:00:00	1	Precipitación	0
18644	7	Sololá	710	Panajachel	8	Panajachel	2	Febrero	2023-08-02T00:00:00	2024-11-08T19:00:00	8	Radiación solar	0
18645	7	Sololá	710	Panajachel	8	Panajachel	2	Febrero	2023-08-02T00:00:00	2024-11-08T20:00:00	2	Temperatura media	18.6
18646	7	Sololá	710	Panajachel	8	Panajachel	2	Febrero	2023-08-02T00:00:00	2024-11-08T20:00:00	4	Temperatura máxima	19.6
18647	7	Sololá	710	Panajachel	8	Panajachel	2	Febrero	2023-08-02T00:00:00	2024-11-08T20:00:00	3	Temperatura mínima	18.6
18648	7	Sololá	710	Panajachel	8	Panajachel	2	Febrero	2023-08-02T00:00:00	2024-11-08T20:00:00	5	Humedad	74
18649	7	Sololá	710	Panajachel	8	Panajachel	2	Febrero	2023-08-02T00:00:00	2024-11-08T20:00:00	6	Velocidad del viento	3.2
18650	7	Sololá	710	Panajachel	8	Panajachel	2	Febrero	2023-08-02T00:00:00	2024-11-08T20:00:00	7	Dirección del viento	3.22
18651	7	Sololá	710	Panajachel	8	Panajachel	2	Febrero	2023-08-02T00:00:00	2024-11-08T20:00:00	1	Precipitación	0
18652	7	Sololá	710	Panajachel	8	Panajachel	2	Febrero	2023-08-02T00:00:00	2024-11-08T20:00:00	8	Radiación solar	0
18653	7	Sololá	710	Panajachel	8	Panajachel	2	Febrero	2023-08-02T00:00:00	2024-11-08T21:00:00	2	Temperatura media	19.2
18654	7	Sololá	710	Panajachel	8	Panajachel	2	Febrero	2023-08-02T00:00:00	2024-11-08T21:00:00	4	Temperatura máxima	19.2
18655	7	Sololá	710	Panajachel	8	Panajachel	2	Febrero	2023-08-02T00:00:00	2024-11-08T21:00:00	3	Temperatura mínima	18.4
18656	7	Sololá	710	Panajachel	8	Panajachel	2	Febrero	2023-08-02T00:00:00	2024-11-08T21:00:00	5	Humedad	72
18657	7	Sololá	710	Panajachel	8	Panajachel	2	Febrero	2023-08-02T00:00:00	2024-11-08T21:00:00	6	Velocidad del viento	1.6
18658	7	Sololá	710	Panajachel	8	Panajachel	2	Febrero	2023-08-02T00:00:00	2024-11-08T21:00:00	7	Dirección del viento	1.61
18659	7	Sololá	710	Panajachel	8	Panajachel	2	Febrero	2023-08-02T00:00:00	2024-11-08T21:00:00	1	Precipitación	0
18660	7	Sololá	710	Panajachel	8	Panajachel	2	Febrero	2023-08-02T00:00:00	2024-11-08T21:00:00	8	Radiación solar	0
18661	7	Sololá	710	Panajachel	8	Panajachel	2	Febrero	2023-08-02T00:00:00	2024-11-08T22:00:00	2	Temperatura media	19
18662	7	Sololá	710	Panajachel	8	Panajachel	2	Febrero	2023-08-02T00:00:00	2024-11-08T22:00:00	4	Temperatura máxima	19.3
18663	7	Sololá	710	Panajachel	8	Panajachel	2	Febrero	2023-08-02T00:00:00	2024-11-08T22:00:00	3	Temperatura mínima	18.8
18664	7	Sololá	710	Panajachel	8	Panajachel	2	Febrero	2023-08-02T00:00:00	2024-11-08T22:00:00	5	Humedad	74
18665	7	Sololá	710	Panajachel	8	Panajachel	2	Febrero	2023-08-02T00:00:00	2024-11-08T22:00:00	6	Velocidad del viento	3.2
18666	7	Sololá	710	Panajachel	8	Panajachel	2	Febrero	2023-08-02T00:00:00	2024-11-08T22:00:00	7	Dirección del viento	3.22
18667	7	Sololá	710	Panajachel	8	Panajachel	2	Febrero	2023-08-02T00:00:00	2024-11-08T22:00:00	1	Precipitación	0
18668	7	Sololá	710	Panajachel	8	Panajachel	2	Febrero	2023-08-02T00:00:00	2024-11-08T22:00:00	8	Radiación solar	0
18669	7	Sololá	710	Panajachel	8	Panajachel	2	Febrero	2023-08-02T00:00:00	2024-11-08T23:00:00	2	Temperatura media	19
18670	7	Sololá	710	Panajachel	8	Panajachel	2	Febrero	2023-08-02T00:00:00	2024-11-08T23:00:00	4	Temperatura máxima	19.2
18671	7	Sololá	710	Panajachel	8	Panajachel	2	Febrero	2023-08-02T00:00:00	2024-11-08T23:00:00	3	Temperatura mínima	18.9
18672	7	Sololá	710	Panajachel	8	Panajachel	2	Febrero	2023-08-02T00:00:00	2024-11-08T23:00:00	5	Humedad	73
18673	7	Sololá	710	Panajachel	8	Panajachel	2	Febrero	2023-08-02T00:00:00	2024-11-08T23:00:00	6	Velocidad del viento	1.6
18674	7	Sololá	710	Panajachel	8	Panajachel	2	Febrero	2023-08-02T00:00:00	2024-11-08T23:00:00	7	Dirección del viento	1.61
18675	7	Sololá	710	Panajachel	8	Panajachel	2	Febrero	2023-08-02T00:00:00	2024-11-08T23:00:00	1	Precipitación	0
18676	7	Sololá	710	Panajachel	8	Panajachel	2	Febrero	2023-08-02T00:00:00	2024-11-08T23:00:00	8	Radiación solar	0
18677	7	Sololá	710	Panajachel	8	Panajachel	2	Febrero	2023-09-02T00:00:00	2024-11-08T00:00:00	2	Temperatura media	18.4
18678	7	Sololá	710	Panajachel	8	Panajachel	2	Febrero	2023-09-02T00:00:00	2024-11-08T00:00:00	4	Temperatura máxima	18.9
18679	7	Sololá	710	Panajachel	8	Panajachel	2	Febrero	2023-09-02T00:00:00	2024-11-08T00:00:00	3	Temperatura mínima	18.4
18680	7	Sololá	710	Panajachel	8	Panajachel	2	Febrero	2023-09-02T00:00:00	2024-11-08T00:00:00	5	Humedad	73
18681	7	Sololá	710	Panajachel	8	Panajachel	2	Febrero	2023-09-02T00:00:00	2024-11-08T00:00:00	6	Velocidad del viento	1.6
18682	7	Sololá	710	Panajachel	8	Panajachel	2	Febrero	2023-09-02T00:00:00	2024-11-08T00:00:00	7	Dirección del viento	1.61
18683	7	Sololá	710	Panajachel	8	Panajachel	2	Febrero	2023-09-02T00:00:00	2024-11-08T00:00:00	1	Precipitación	0
18684	7	Sololá	710	Panajachel	8	Panajachel	2	Febrero	2023-09-02T00:00:00	2024-11-08T00:00:00	8	Radiación solar	0
18685	7	Sololá	710	Panajachel	8	Panajachel	2	Febrero	2023-09-02T00:00:00	2024-11-08T01:00:00	2	Temperatura media	18.4
18686	7	Sololá	710	Panajachel	8	Panajachel	2	Febrero	2023-09-02T00:00:00	2024-11-08T01:00:00	4	Temperatura máxima	18.7
18687	7	Sololá	710	Panajachel	8	Panajachel	2	Febrero	2023-09-02T00:00:00	2024-11-08T01:00:00	3	Temperatura mínima	18.3
18688	7	Sololá	710	Panajachel	8	Panajachel	2	Febrero	2023-09-02T00:00:00	2024-11-08T01:00:00	5	Humedad	71
18689	7	Sololá	710	Panajachel	8	Panajachel	2	Febrero	2023-09-02T00:00:00	2024-11-08T01:00:00	6	Velocidad del viento	1.6
18690	7	Sololá	710	Panajachel	8	Panajachel	2	Febrero	2023-09-02T00:00:00	2024-11-08T01:00:00	7	Dirección del viento	1.61
18691	7	Sololá	710	Panajachel	8	Panajachel	2	Febrero	2023-09-02T00:00:00	2024-11-08T01:00:00	1	Precipitación	0
18692	7	Sololá	710	Panajachel	8	Panajachel	2	Febrero	2023-09-02T00:00:00	2024-11-08T01:00:00	8	Radiación solar	0
18693	7	Sololá	710	Panajachel	8	Panajachel	2	Febrero	2023-09-02T00:00:00	2024-11-08T02:00:00	2	Temperatura media	17.6
18694	7	Sololá	710	Panajachel	8	Panajachel	2	Febrero	2023-09-02T00:00:00	2024-11-08T02:00:00	4	Temperatura máxima	18.4
18695	7	Sololá	710	Panajachel	8	Panajachel	2	Febrero	2023-09-02T00:00:00	2024-11-08T02:00:00	3	Temperatura mínima	17.5
18696	7	Sololá	710	Panajachel	8	Panajachel	2	Febrero	2023-09-02T00:00:00	2024-11-08T02:00:00	5	Humedad	72
18697	7	Sololá	710	Panajachel	8	Panajachel	2	Febrero	2023-09-02T00:00:00	2024-11-08T02:00:00	6	Velocidad del viento	0
18698	7	Sololá	710	Panajachel	8	Panajachel	2	Febrero	2023-09-02T00:00:00	2024-11-08T02:00:00	7	Dirección del viento	0
18699	7	Sololá	710	Panajachel	8	Panajachel	2	Febrero	2023-09-02T00:00:00	2024-11-08T02:00:00	1	Precipitación	0
18700	7	Sololá	710	Panajachel	8	Panajachel	2	Febrero	2023-09-02T00:00:00	2024-11-08T02:00:00	8	Radiación solar	0
18701	7	Sololá	710	Panajachel	8	Panajachel	2	Febrero	2023-09-02T00:00:00	2024-11-08T03:00:00	2	Temperatura media	15.4
18702	7	Sololá	710	Panajachel	8	Panajachel	2	Febrero	2023-09-02T00:00:00	2024-11-08T03:00:00	4	Temperatura máxima	17.5
18703	7	Sololá	710	Panajachel	8	Panajachel	2	Febrero	2023-09-02T00:00:00	2024-11-08T03:00:00	3	Temperatura mínima	15.4
18704	7	Sololá	710	Panajachel	8	Panajachel	2	Febrero	2023-09-02T00:00:00	2024-11-08T03:00:00	5	Humedad	79
18705	7	Sololá	710	Panajachel	8	Panajachel	2	Febrero	2023-09-02T00:00:00	2024-11-08T03:00:00	6	Velocidad del viento	0
18706	7	Sololá	710	Panajachel	8	Panajachel	2	Febrero	2023-09-02T00:00:00	2024-11-08T03:00:00	7	Dirección del viento	0
18707	7	Sololá	710	Panajachel	8	Panajachel	2	Febrero	2023-09-02T00:00:00	2024-11-08T03:00:00	1	Precipitación	0
18708	7	Sololá	710	Panajachel	8	Panajachel	2	Febrero	2023-09-02T00:00:00	2024-11-08T03:00:00	8	Radiación solar	0
18709	7	Sololá	710	Panajachel	8	Panajachel	2	Febrero	2023-09-02T00:00:00	2024-11-08T04:00:00	2	Temperatura media	14.9
18710	7	Sololá	710	Panajachel	8	Panajachel	2	Febrero	2023-09-02T00:00:00	2024-11-08T04:00:00	4	Temperatura máxima	15.4
18711	7	Sololá	710	Panajachel	8	Panajachel	2	Febrero	2023-09-02T00:00:00	2024-11-08T04:00:00	3	Temperatura mínima	14.9
18712	7	Sololá	710	Panajachel	8	Panajachel	2	Febrero	2023-09-02T00:00:00	2024-11-08T04:00:00	5	Humedad	78
18713	7	Sololá	710	Panajachel	8	Panajachel	2	Febrero	2023-09-02T00:00:00	2024-11-08T04:00:00	6	Velocidad del viento	1.6
18714	7	Sololá	710	Panajachel	8	Panajachel	2	Febrero	2023-09-02T00:00:00	2024-11-08T04:00:00	7	Dirección del viento	1.61
18715	7	Sololá	710	Panajachel	8	Panajachel	2	Febrero	2023-09-02T00:00:00	2024-11-08T04:00:00	1	Precipitación	0
18716	7	Sololá	710	Panajachel	8	Panajachel	2	Febrero	2023-09-02T00:00:00	2024-11-08T04:00:00	8	Radiación solar	0
18717	7	Sololá	710	Panajachel	8	Panajachel	2	Febrero	2023-09-02T00:00:00	2024-11-08T05:00:00	2	Temperatura media	14.5
18718	7	Sololá	710	Panajachel	8	Panajachel	2	Febrero	2023-09-02T00:00:00	2024-11-08T05:00:00	4	Temperatura máxima	14.9
18719	7	Sololá	710	Panajachel	8	Panajachel	2	Febrero	2023-09-02T00:00:00	2024-11-08T05:00:00	3	Temperatura mínima	14.4
18720	7	Sololá	710	Panajachel	8	Panajachel	2	Febrero	2023-09-02T00:00:00	2024-11-08T05:00:00	5	Humedad	78
18721	7	Sololá	710	Panajachel	8	Panajachel	2	Febrero	2023-09-02T00:00:00	2024-11-08T05:00:00	6	Velocidad del viento	1.6
18722	7	Sololá	710	Panajachel	8	Panajachel	2	Febrero	2023-09-02T00:00:00	2024-11-08T05:00:00	7	Dirección del viento	1.61
18723	7	Sololá	710	Panajachel	8	Panajachel	2	Febrero	2023-09-02T00:00:00	2024-11-08T05:00:00	1	Precipitación	0
18724	7	Sololá	710	Panajachel	8	Panajachel	2	Febrero	2023-09-02T00:00:00	2024-11-08T05:00:00	8	Radiación solar	0
18725	7	Sololá	710	Panajachel	8	Panajachel	2	Febrero	2023-09-02T00:00:00	2024-11-08T06:00:00	2	Temperatura media	14.5
18726	7	Sololá	710	Panajachel	8	Panajachel	2	Febrero	2023-09-02T00:00:00	2024-11-08T06:00:00	4	Temperatura máxima	14.6
18727	7	Sololá	710	Panajachel	8	Panajachel	2	Febrero	2023-09-02T00:00:00	2024-11-08T06:00:00	3	Temperatura mínima	14.4
18728	7	Sololá	710	Panajachel	8	Panajachel	2	Febrero	2023-09-02T00:00:00	2024-11-08T06:00:00	5	Humedad	76
18729	7	Sololá	710	Panajachel	8	Panajachel	2	Febrero	2023-09-02T00:00:00	2024-11-08T06:00:00	6	Velocidad del viento	3.2
18730	7	Sololá	710	Panajachel	8	Panajachel	2	Febrero	2023-09-02T00:00:00	2024-11-08T06:00:00	7	Dirección del viento	3.22
18731	7	Sololá	710	Panajachel	8	Panajachel	2	Febrero	2023-09-02T00:00:00	2024-11-08T06:00:00	1	Precipitación	0
18732	7	Sololá	710	Panajachel	8	Panajachel	2	Febrero	2023-09-02T00:00:00	2024-11-08T06:00:00	8	Radiación solar	0
18733	7	Sololá	710	Panajachel	8	Panajachel	2	Febrero	2023-09-02T00:00:00	2024-11-08T07:00:00	2	Temperatura media	14.2
18734	7	Sololá	710	Panajachel	8	Panajachel	2	Febrero	2023-09-02T00:00:00	2024-11-08T07:00:00	4	Temperatura máxima	14.5
18735	7	Sololá	710	Panajachel	8	Panajachel	2	Febrero	2023-09-02T00:00:00	2024-11-08T07:00:00	3	Temperatura mínima	14.2
18736	7	Sololá	710	Panajachel	8	Panajachel	2	Febrero	2023-09-02T00:00:00	2024-11-08T07:00:00	5	Humedad	76
18737	7	Sololá	710	Panajachel	8	Panajachel	2	Febrero	2023-09-02T00:00:00	2024-11-08T07:00:00	6	Velocidad del viento	3.2
18738	7	Sololá	710	Panajachel	8	Panajachel	2	Febrero	2023-09-02T00:00:00	2024-11-08T07:00:00	7	Dirección del viento	3.22
18739	7	Sololá	710	Panajachel	8	Panajachel	2	Febrero	2023-09-02T00:00:00	2024-11-08T07:00:00	1	Precipitación	0
18740	7	Sololá	710	Panajachel	8	Panajachel	2	Febrero	2023-09-02T00:00:00	2024-11-08T07:00:00	8	Radiación solar	5
18741	7	Sololá	710	Panajachel	8	Panajachel	2	Febrero	2023-09-02T00:00:00	2024-11-08T08:00:00	2	Temperatura media	16.3
18742	7	Sololá	710	Panajachel	8	Panajachel	2	Febrero	2023-09-02T00:00:00	2024-11-08T08:00:00	4	Temperatura máxima	16.3
18743	7	Sololá	710	Panajachel	8	Panajachel	2	Febrero	2023-09-02T00:00:00	2024-11-08T08:00:00	3	Temperatura mínima	14.1
18744	7	Sololá	710	Panajachel	8	Panajachel	2	Febrero	2023-09-02T00:00:00	2024-11-08T08:00:00	5	Humedad	71
18745	7	Sololá	710	Panajachel	8	Panajachel	2	Febrero	2023-09-02T00:00:00	2024-11-08T08:00:00	6	Velocidad del viento	3.2
18746	7	Sololá	710	Panajachel	8	Panajachel	2	Febrero	2023-09-02T00:00:00	2024-11-08T08:00:00	7	Dirección del viento	3.22
18747	7	Sololá	710	Panajachel	8	Panajachel	2	Febrero	2023-09-02T00:00:00	2024-11-08T08:00:00	1	Precipitación	0
18748	7	Sololá	710	Panajachel	8	Panajachel	2	Febrero	2023-09-02T00:00:00	2024-11-08T08:00:00	8	Radiación solar	72
18749	7	Sololá	710	Panajachel	8	Panajachel	2	Febrero	2023-09-02T00:00:00	2024-11-08T09:00:00	2	Temperatura media	18.8
18750	7	Sololá	710	Panajachel	8	Panajachel	2	Febrero	2023-09-02T00:00:00	2024-11-08T09:00:00	4	Temperatura máxima	18.8
18751	7	Sololá	710	Panajachel	8	Panajachel	2	Febrero	2023-09-02T00:00:00	2024-11-08T09:00:00	3	Temperatura mínima	16.3
18752	7	Sololá	710	Panajachel	8	Panajachel	2	Febrero	2023-09-02T00:00:00	2024-11-08T09:00:00	5	Humedad	75
18753	7	Sololá	710	Panajachel	8	Panajachel	2	Febrero	2023-09-02T00:00:00	2024-11-08T09:00:00	6	Velocidad del viento	1.6
18754	7	Sololá	710	Panajachel	8	Panajachel	2	Febrero	2023-09-02T00:00:00	2024-11-08T09:00:00	7	Dirección del viento	1.61
18755	7	Sololá	710	Panajachel	8	Panajachel	2	Febrero	2023-09-02T00:00:00	2024-11-08T09:00:00	1	Precipitación	0
18756	7	Sololá	710	Panajachel	8	Panajachel	2	Febrero	2023-09-02T00:00:00	2024-11-08T09:00:00	8	Radiación solar	379
18757	7	Sololá	710	Panajachel	8	Panajachel	2	Febrero	2023-09-02T00:00:00	2024-11-08T10:00:00	2	Temperatura media	20.1
18758	7	Sololá	710	Panajachel	8	Panajachel	2	Febrero	2023-09-02T00:00:00	2024-11-08T10:00:00	4	Temperatura máxima	20.1
18759	7	Sololá	710	Panajachel	8	Panajachel	2	Febrero	2023-09-02T00:00:00	2024-11-08T10:00:00	3	Temperatura mínima	18.8
18760	7	Sololá	710	Panajachel	8	Panajachel	2	Febrero	2023-09-02T00:00:00	2024-11-08T10:00:00	5	Humedad	74
18761	7	Sololá	710	Panajachel	8	Panajachel	2	Febrero	2023-09-02T00:00:00	2024-11-08T10:00:00	6	Velocidad del viento	3.2
18762	7	Sololá	710	Panajachel	8	Panajachel	2	Febrero	2023-09-02T00:00:00	2024-11-08T10:00:00	7	Dirección del viento	3.22
18763	7	Sololá	710	Panajachel	8	Panajachel	2	Febrero	2023-09-02T00:00:00	2024-11-08T10:00:00	1	Precipitación	0
18764	7	Sololá	710	Panajachel	8	Panajachel	2	Febrero	2023-09-02T00:00:00	2024-11-08T10:00:00	8	Radiación solar	586
18765	7	Sololá	710	Panajachel	8	Panajachel	2	Febrero	2023-09-02T00:00:00	2024-11-08T11:00:00	2	Temperatura media	21.2
18766	7	Sololá	710	Panajachel	8	Panajachel	2	Febrero	2023-09-02T00:00:00	2024-11-08T11:00:00	4	Temperatura máxima	21.2
18767	7	Sololá	710	Panajachel	8	Panajachel	2	Febrero	2023-09-02T00:00:00	2024-11-08T11:00:00	3	Temperatura mínima	20.1
18768	7	Sololá	710	Panajachel	8	Panajachel	2	Febrero	2023-09-02T00:00:00	2024-11-08T11:00:00	5	Humedad	70
18769	7	Sololá	710	Panajachel	8	Panajachel	2	Febrero	2023-09-02T00:00:00	2024-11-08T11:00:00	6	Velocidad del viento	3.2
18770	7	Sololá	710	Panajachel	8	Panajachel	2	Febrero	2023-09-02T00:00:00	2024-11-08T11:00:00	7	Dirección del viento	3.22
18771	7	Sololá	710	Panajachel	8	Panajachel	2	Febrero	2023-09-02T00:00:00	2024-11-08T11:00:00	1	Precipitación	0
18772	7	Sololá	710	Panajachel	8	Panajachel	2	Febrero	2023-09-02T00:00:00	2024-11-08T11:00:00	8	Radiación solar	749
18773	7	Sololá	710	Panajachel	8	Panajachel	2	Febrero	2023-09-02T00:00:00	2024-11-08T12:00:00	2	Temperatura media	22.4
18774	7	Sololá	710	Panajachel	8	Panajachel	2	Febrero	2023-09-02T00:00:00	2024-11-08T12:00:00	4	Temperatura máxima	22.4
18775	7	Sololá	710	Panajachel	8	Panajachel	2	Febrero	2023-09-02T00:00:00	2024-11-08T12:00:00	3	Temperatura mínima	20.9
18776	7	Sololá	710	Panajachel	8	Panajachel	2	Febrero	2023-09-02T00:00:00	2024-11-08T12:00:00	5	Humedad	63
18777	7	Sololá	710	Panajachel	8	Panajachel	2	Febrero	2023-09-02T00:00:00	2024-11-08T12:00:00	6	Velocidad del viento	6.4
18778	7	Sololá	710	Panajachel	8	Panajachel	2	Febrero	2023-09-02T00:00:00	2024-11-08T12:00:00	7	Dirección del viento	6.44
18779	7	Sololá	710	Panajachel	8	Panajachel	2	Febrero	2023-09-02T00:00:00	2024-11-08T12:00:00	1	Precipitación	0
18780	7	Sololá	710	Panajachel	8	Panajachel	2	Febrero	2023-09-02T00:00:00	2024-11-08T12:00:00	8	Radiación solar	841
18781	7	Sololá	710	Panajachel	8	Panajachel	2	Febrero	2023-09-02T00:00:00	2024-11-08T13:00:00	2	Temperatura media	24.3
18782	7	Sololá	710	Panajachel	8	Panajachel	2	Febrero	2023-09-02T00:00:00	2024-11-08T13:00:00	4	Temperatura máxima	24.4
18783	7	Sololá	710	Panajachel	8	Panajachel	2	Febrero	2023-09-02T00:00:00	2024-11-08T13:00:00	3	Temperatura mínima	22.4
18784	7	Sololá	710	Panajachel	8	Panajachel	2	Febrero	2023-09-02T00:00:00	2024-11-08T13:00:00	5	Humedad	71
18785	7	Sololá	710	Panajachel	8	Panajachel	2	Febrero	2023-09-02T00:00:00	2024-11-08T13:00:00	6	Velocidad del viento	6.4
18786	7	Sololá	710	Panajachel	8	Panajachel	2	Febrero	2023-09-02T00:00:00	2024-11-08T13:00:00	7	Dirección del viento	6.44
18787	7	Sololá	710	Panajachel	8	Panajachel	2	Febrero	2023-09-02T00:00:00	2024-11-08T13:00:00	1	Precipitación	0
18788	7	Sololá	710	Panajachel	8	Panajachel	2	Febrero	2023-09-02T00:00:00	2024-11-08T13:00:00	8	Radiación solar	862
18789	7	Sololá	710	Panajachel	8	Panajachel	2	Febrero	2023-09-02T00:00:00	2024-11-08T14:00:00	2	Temperatura media	23.2
18790	7	Sololá	710	Panajachel	8	Panajachel	2	Febrero	2023-09-02T00:00:00	2024-11-08T14:00:00	4	Temperatura máxima	24.3
18791	7	Sololá	710	Panajachel	8	Panajachel	2	Febrero	2023-09-02T00:00:00	2024-11-08T14:00:00	3	Temperatura mínima	23.2
18792	7	Sololá	710	Panajachel	8	Panajachel	2	Febrero	2023-09-02T00:00:00	2024-11-08T14:00:00	5	Humedad	72
18793	7	Sololá	710	Panajachel	8	Panajachel	2	Febrero	2023-09-02T00:00:00	2024-11-08T14:00:00	6	Velocidad del viento	6.4
18794	7	Sololá	710	Panajachel	8	Panajachel	2	Febrero	2023-09-02T00:00:00	2024-11-08T14:00:00	7	Dirección del viento	6.44
18795	7	Sololá	710	Panajachel	8	Panajachel	2	Febrero	2023-09-02T00:00:00	2024-11-08T14:00:00	1	Precipitación	0
18796	7	Sololá	710	Panajachel	8	Panajachel	2	Febrero	2023-09-02T00:00:00	2024-11-08T14:00:00	8	Radiación solar	808
18797	7	Sololá	710	Panajachel	8	Panajachel	2	Febrero	2023-09-02T00:00:00	2024-11-08T15:00:00	2	Temperatura media	23.2
18798	7	Sololá	710	Panajachel	8	Panajachel	2	Febrero	2023-09-02T00:00:00	2024-11-08T15:00:00	4	Temperatura máxima	23.4
18799	7	Sololá	710	Panajachel	8	Panajachel	2	Febrero	2023-09-02T00:00:00	2024-11-08T15:00:00	3	Temperatura mínima	23.1
18800	7	Sololá	710	Panajachel	8	Panajachel	2	Febrero	2023-09-02T00:00:00	2024-11-08T15:00:00	5	Humedad	73
18801	7	Sololá	710	Panajachel	8	Panajachel	2	Febrero	2023-09-02T00:00:00	2024-11-08T15:00:00	6	Velocidad del viento	6.4
18802	7	Sololá	710	Panajachel	8	Panajachel	2	Febrero	2023-09-02T00:00:00	2024-11-08T15:00:00	7	Dirección del viento	6.44
18803	7	Sololá	710	Panajachel	8	Panajachel	2	Febrero	2023-09-02T00:00:00	2024-11-08T15:00:00	1	Precipitación	0
18804	7	Sololá	710	Panajachel	8	Panajachel	2	Febrero	2023-09-02T00:00:00	2024-11-08T15:00:00	8	Radiación solar	706
18805	7	Sololá	710	Panajachel	8	Panajachel	2	Febrero	2023-09-02T00:00:00	2024-11-08T16:00:00	2	Temperatura media	23
18806	7	Sololá	710	Panajachel	8	Panajachel	2	Febrero	2023-09-02T00:00:00	2024-11-08T16:00:00	4	Temperatura máxima	23.7
18807	7	Sololá	710	Panajachel	8	Panajachel	2	Febrero	2023-09-02T00:00:00	2024-11-08T16:00:00	3	Temperatura mínima	23
18808	7	Sololá	710	Panajachel	8	Panajachel	2	Febrero	2023-09-02T00:00:00	2024-11-08T16:00:00	5	Humedad	72
18809	7	Sololá	710	Panajachel	8	Panajachel	2	Febrero	2023-09-02T00:00:00	2024-11-08T16:00:00	6	Velocidad del viento	4.8
18810	7	Sololá	710	Panajachel	8	Panajachel	2	Febrero	2023-09-02T00:00:00	2024-11-08T16:00:00	7	Dirección del viento	4.83
18811	7	Sololá	710	Panajachel	8	Panajachel	2	Febrero	2023-09-02T00:00:00	2024-11-08T16:00:00	1	Precipitación	0
18812	7	Sololá	710	Panajachel	8	Panajachel	2	Febrero	2023-09-02T00:00:00	2024-11-08T16:00:00	8	Radiación solar	563
18813	7	Sololá	710	Panajachel	8	Panajachel	2	Febrero	2023-09-02T00:00:00	2024-11-08T17:00:00	2	Temperatura media	22.4
18814	7	Sololá	710	Panajachel	8	Panajachel	2	Febrero	2023-09-02T00:00:00	2024-11-08T17:00:00	4	Temperatura máxima	23.1
18815	7	Sololá	710	Panajachel	8	Panajachel	2	Febrero	2023-09-02T00:00:00	2024-11-08T17:00:00	3	Temperatura mínima	22.2
18816	7	Sololá	710	Panajachel	8	Panajachel	2	Febrero	2023-09-02T00:00:00	2024-11-08T17:00:00	5	Humedad	76
18817	7	Sololá	710	Panajachel	8	Panajachel	2	Febrero	2023-09-02T00:00:00	2024-11-08T17:00:00	6	Velocidad del viento	4.8
18818	7	Sololá	710	Panajachel	8	Panajachel	2	Febrero	2023-09-02T00:00:00	2024-11-08T17:00:00	7	Dirección del viento	4.83
18819	7	Sololá	710	Panajachel	8	Panajachel	2	Febrero	2023-09-02T00:00:00	2024-11-08T17:00:00	1	Precipitación	0
18820	7	Sololá	710	Panajachel	8	Panajachel	2	Febrero	2023-09-02T00:00:00	2024-11-08T17:00:00	8	Radiación solar	315
18821	7	Sololá	710	Panajachel	8	Panajachel	2	Febrero	2023-09-02T00:00:00	2024-11-08T18:00:00	2	Temperatura media	21.3
18822	7	Sololá	710	Panajachel	8	Panajachel	2	Febrero	2023-09-02T00:00:00	2024-11-08T18:00:00	4	Temperatura máxima	22.6
18823	7	Sololá	710	Panajachel	8	Panajachel	2	Febrero	2023-09-02T00:00:00	2024-11-08T18:00:00	3	Temperatura mínima	21.3
18824	7	Sololá	710	Panajachel	8	Panajachel	2	Febrero	2023-09-02T00:00:00	2024-11-08T18:00:00	5	Humedad	81
18825	7	Sololá	710	Panajachel	8	Panajachel	2	Febrero	2023-09-02T00:00:00	2024-11-08T18:00:00	6	Velocidad del viento	1.6
18826	7	Sololá	710	Panajachel	8	Panajachel	2	Febrero	2023-09-02T00:00:00	2024-11-08T18:00:00	7	Dirección del viento	1.61
18827	7	Sololá	710	Panajachel	8	Panajachel	2	Febrero	2023-09-02T00:00:00	2024-11-08T18:00:00	1	Precipitación	0
18828	7	Sololá	710	Panajachel	8	Panajachel	2	Febrero	2023-09-02T00:00:00	2024-11-08T18:00:00	8	Radiación solar	94
18829	7	Sololá	710	Panajachel	8	Panajachel	2	Febrero	2023-09-02T00:00:00	2024-11-08T19:00:00	2	Temperatura media	20.3
18830	7	Sololá	710	Panajachel	8	Panajachel	2	Febrero	2023-09-02T00:00:00	2024-11-08T19:00:00	4	Temperatura máxima	21.3
18831	7	Sololá	710	Panajachel	8	Panajachel	2	Febrero	2023-09-02T00:00:00	2024-11-08T19:00:00	3	Temperatura mínima	20.1
18832	7	Sololá	710	Panajachel	8	Panajachel	2	Febrero	2023-09-02T00:00:00	2024-11-08T19:00:00	5	Humedad	60
18833	7	Sololá	710	Panajachel	8	Panajachel	2	Febrero	2023-09-02T00:00:00	2024-11-08T19:00:00	6	Velocidad del viento	1.6
18834	7	Sololá	710	Panajachel	8	Panajachel	2	Febrero	2023-09-02T00:00:00	2024-11-08T19:00:00	7	Dirección del viento	1.61
18835	7	Sololá	710	Panajachel	8	Panajachel	2	Febrero	2023-09-02T00:00:00	2024-11-08T19:00:00	1	Precipitación	0
18836	7	Sololá	710	Panajachel	8	Panajachel	2	Febrero	2023-09-02T00:00:00	2024-11-08T19:00:00	8	Radiación solar	0
18837	7	Sololá	710	Panajachel	8	Panajachel	2	Febrero	2023-09-02T00:00:00	2024-11-08T20:00:00	2	Temperatura media	19.6
18838	7	Sololá	710	Panajachel	8	Panajachel	2	Febrero	2023-09-02T00:00:00	2024-11-08T20:00:00	4	Temperatura máxima	20.3
18839	7	Sololá	710	Panajachel	8	Panajachel	2	Febrero	2023-09-02T00:00:00	2024-11-08T20:00:00	3	Temperatura mínima	19.6
18840	7	Sololá	710	Panajachel	8	Panajachel	2	Febrero	2023-09-02T00:00:00	2024-11-08T20:00:00	5	Humedad	64
18841	7	Sololá	710	Panajachel	8	Panajachel	2	Febrero	2023-09-02T00:00:00	2024-11-08T20:00:00	6	Velocidad del viento	4.8
18842	7	Sololá	710	Panajachel	8	Panajachel	2	Febrero	2023-09-02T00:00:00	2024-11-08T20:00:00	7	Dirección del viento	4.83
18843	7	Sololá	710	Panajachel	8	Panajachel	2	Febrero	2023-09-02T00:00:00	2024-11-08T20:00:00	1	Precipitación	0
18844	7	Sololá	710	Panajachel	8	Panajachel	2	Febrero	2023-09-02T00:00:00	2024-11-08T20:00:00	8	Radiación solar	0
18845	7	Sololá	710	Panajachel	8	Panajachel	2	Febrero	2023-09-02T00:00:00	2024-11-08T21:00:00	2	Temperatura media	18.9
18846	7	Sololá	710	Panajachel	8	Panajachel	2	Febrero	2023-09-02T00:00:00	2024-11-08T21:00:00	4	Temperatura máxima	19.6
18847	7	Sololá	710	Panajachel	8	Panajachel	2	Febrero	2023-09-02T00:00:00	2024-11-08T21:00:00	3	Temperatura mínima	18.9
18848	7	Sololá	710	Panajachel	8	Panajachel	2	Febrero	2023-09-02T00:00:00	2024-11-08T21:00:00	5	Humedad	69
18849	7	Sololá	710	Panajachel	8	Panajachel	2	Febrero	2023-09-02T00:00:00	2024-11-08T21:00:00	6	Velocidad del viento	4.8
18850	7	Sololá	710	Panajachel	8	Panajachel	2	Febrero	2023-09-02T00:00:00	2024-11-08T21:00:00	7	Dirección del viento	4.83
18851	7	Sololá	710	Panajachel	8	Panajachel	2	Febrero	2023-09-02T00:00:00	2024-11-08T21:00:00	1	Precipitación	0
18852	7	Sololá	710	Panajachel	8	Panajachel	2	Febrero	2023-09-02T00:00:00	2024-11-08T21:00:00	8	Radiación solar	0
18853	7	Sololá	710	Panajachel	8	Panajachel	2	Febrero	2023-09-02T00:00:00	2024-11-08T22:00:00	2	Temperatura media	16.9
18854	7	Sololá	710	Panajachel	8	Panajachel	2	Febrero	2023-09-02T00:00:00	2024-11-08T22:00:00	4	Temperatura máxima	18.9
18855	7	Sololá	710	Panajachel	8	Panajachel	2	Febrero	2023-09-02T00:00:00	2024-11-08T22:00:00	3	Temperatura mínima	16.9
18856	7	Sololá	710	Panajachel	8	Panajachel	2	Febrero	2023-09-02T00:00:00	2024-11-08T22:00:00	5	Humedad	74
18857	7	Sololá	710	Panajachel	8	Panajachel	2	Febrero	2023-09-02T00:00:00	2024-11-08T22:00:00	6	Velocidad del viento	0
18858	7	Sololá	710	Panajachel	8	Panajachel	2	Febrero	2023-09-02T00:00:00	2024-11-08T22:00:00	7	Dirección del viento	0
18859	7	Sololá	710	Panajachel	8	Panajachel	2	Febrero	2023-09-02T00:00:00	2024-11-08T22:00:00	1	Precipitación	0
18860	7	Sololá	710	Panajachel	8	Panajachel	2	Febrero	2023-09-02T00:00:00	2024-11-08T22:00:00	8	Radiación solar	0
18861	7	Sololá	710	Panajachel	8	Panajachel	2	Febrero	2023-09-02T00:00:00	2024-11-08T23:00:00	2	Temperatura media	16.8
18862	7	Sololá	710	Panajachel	8	Panajachel	2	Febrero	2023-09-02T00:00:00	2024-11-08T23:00:00	4	Temperatura máxima	17.3
18863	7	Sololá	710	Panajachel	8	Panajachel	2	Febrero	2023-09-02T00:00:00	2024-11-08T23:00:00	3	Temperatura mínima	16.8
18864	7	Sololá	710	Panajachel	8	Panajachel	2	Febrero	2023-09-02T00:00:00	2024-11-08T23:00:00	5	Humedad	73
18865	7	Sololá	710	Panajachel	8	Panajachel	2	Febrero	2023-09-02T00:00:00	2024-11-08T23:00:00	6	Velocidad del viento	0
18866	7	Sololá	710	Panajachel	8	Panajachel	2	Febrero	2023-09-02T00:00:00	2024-11-08T23:00:00	7	Dirección del viento	0
18867	7	Sololá	710	Panajachel	8	Panajachel	2	Febrero	2023-09-02T00:00:00	2024-11-08T23:00:00	1	Precipitación	0
18868	7	Sololá	710	Panajachel	8	Panajachel	2	Febrero	2023-09-02T00:00:00	2024-11-08T23:00:00	8	Radiación solar	0
18869	7	Sololá	710	Panajachel	8	Panajachel	2	Febrero	2023-10-02T00:00:00	2024-11-08T00:00:00	2	Temperatura media	15.8
18870	7	Sololá	710	Panajachel	8	Panajachel	2	Febrero	2023-10-02T00:00:00	2024-11-08T00:00:00	4	Temperatura máxima	16.8
18871	7	Sololá	710	Panajachel	8	Panajachel	2	Febrero	2023-10-02T00:00:00	2024-11-08T00:00:00	3	Temperatura mínima	15.8
18872	7	Sololá	710	Panajachel	8	Panajachel	2	Febrero	2023-10-02T00:00:00	2024-11-08T00:00:00	5	Humedad	77
18873	7	Sololá	710	Panajachel	8	Panajachel	2	Febrero	2023-10-02T00:00:00	2024-11-08T00:00:00	6	Velocidad del viento	0
18874	7	Sololá	710	Panajachel	8	Panajachel	2	Febrero	2023-10-02T00:00:00	2024-11-08T00:00:00	7	Dirección del viento	0
18875	7	Sololá	710	Panajachel	8	Panajachel	2	Febrero	2023-10-02T00:00:00	2024-11-08T00:00:00	1	Precipitación	0
18876	7	Sololá	710	Panajachel	8	Panajachel	2	Febrero	2023-10-02T00:00:00	2024-11-08T00:00:00	8	Radiación solar	0
18877	7	Sololá	710	Panajachel	8	Panajachel	2	Febrero	2023-10-02T00:00:00	2024-11-08T01:00:00	2	Temperatura media	15.6
18878	7	Sololá	710	Panajachel	8	Panajachel	2	Febrero	2023-10-02T00:00:00	2024-11-08T01:00:00	4	Temperatura máxima	15.8
18879	7	Sololá	710	Panajachel	8	Panajachel	2	Febrero	2023-10-02T00:00:00	2024-11-08T01:00:00	3	Temperatura mínima	15.4
18880	7	Sololá	710	Panajachel	8	Panajachel	2	Febrero	2023-10-02T00:00:00	2024-11-08T01:00:00	5	Humedad	79
18881	7	Sololá	710	Panajachel	8	Panajachel	2	Febrero	2023-10-02T00:00:00	2024-11-08T01:00:00	6	Velocidad del viento	1.6
18882	7	Sololá	710	Panajachel	8	Panajachel	2	Febrero	2023-10-02T00:00:00	2024-11-08T01:00:00	7	Dirección del viento	1.61
18883	7	Sololá	710	Panajachel	8	Panajachel	2	Febrero	2023-10-02T00:00:00	2024-11-08T01:00:00	1	Precipitación	0
18884	7	Sololá	710	Panajachel	8	Panajachel	2	Febrero	2023-10-02T00:00:00	2024-11-08T01:00:00	8	Radiación solar	0
18885	7	Sololá	710	Panajachel	8	Panajachel	2	Febrero	2023-10-02T00:00:00	2024-11-08T02:00:00	2	Temperatura media	15.2
18886	7	Sololá	710	Panajachel	8	Panajachel	2	Febrero	2023-10-02T00:00:00	2024-11-08T02:00:00	4	Temperatura máxima	15.7
18887	7	Sololá	710	Panajachel	8	Panajachel	2	Febrero	2023-10-02T00:00:00	2024-11-08T02:00:00	3	Temperatura mínima	15.1
18888	7	Sololá	710	Panajachel	8	Panajachel	2	Febrero	2023-10-02T00:00:00	2024-11-08T02:00:00	5	Humedad	79
18889	7	Sololá	710	Panajachel	8	Panajachel	2	Febrero	2023-10-02T00:00:00	2024-11-08T02:00:00	6	Velocidad del viento	3.2
18890	7	Sololá	710	Panajachel	8	Panajachel	2	Febrero	2023-10-02T00:00:00	2024-11-08T02:00:00	7	Dirección del viento	3.22
18891	7	Sololá	710	Panajachel	8	Panajachel	2	Febrero	2023-10-02T00:00:00	2024-11-08T02:00:00	1	Precipitación	0
18892	7	Sololá	710	Panajachel	8	Panajachel	2	Febrero	2023-10-02T00:00:00	2024-11-08T02:00:00	8	Radiación solar	0
18893	7	Sololá	710	Panajachel	8	Panajachel	2	Febrero	2023-10-02T00:00:00	2024-11-08T03:00:00	2	Temperatura media	16.8
18894	7	Sololá	710	Panajachel	8	Panajachel	2	Febrero	2023-10-02T00:00:00	2024-11-08T03:00:00	4	Temperatura máxima	16.8
18895	7	Sololá	710	Panajachel	8	Panajachel	2	Febrero	2023-10-02T00:00:00	2024-11-08T03:00:00	3	Temperatura mínima	15.1
18896	7	Sololá	710	Panajachel	8	Panajachel	2	Febrero	2023-10-02T00:00:00	2024-11-08T03:00:00	5	Humedad	74
18897	7	Sololá	710	Panajachel	8	Panajachel	2	Febrero	2023-10-02T00:00:00	2024-11-08T03:00:00	6	Velocidad del viento	3.2
18898	7	Sololá	710	Panajachel	8	Panajachel	2	Febrero	2023-10-02T00:00:00	2024-11-08T03:00:00	7	Dirección del viento	3.22
18899	7	Sololá	710	Panajachel	8	Panajachel	2	Febrero	2023-10-02T00:00:00	2024-11-08T03:00:00	1	Precipitación	0
18900	7	Sololá	710	Panajachel	8	Panajachel	2	Febrero	2023-10-02T00:00:00	2024-11-08T03:00:00	8	Radiación solar	0
18901	7	Sololá	710	Panajachel	8	Panajachel	2	Febrero	2023-10-02T00:00:00	2024-11-08T04:00:00	2	Temperatura media	15.7
18902	7	Sololá	710	Panajachel	8	Panajachel	2	Febrero	2023-10-02T00:00:00	2024-11-08T04:00:00	4	Temperatura máxima	17.2
18903	7	Sololá	710	Panajachel	8	Panajachel	2	Febrero	2023-10-02T00:00:00	2024-11-08T04:00:00	3	Temperatura mínima	15.7
18904	7	Sololá	710	Panajachel	8	Panajachel	2	Febrero	2023-10-02T00:00:00	2024-11-08T04:00:00	5	Humedad	76
18905	7	Sololá	710	Panajachel	8	Panajachel	2	Febrero	2023-10-02T00:00:00	2024-11-08T04:00:00	6	Velocidad del viento	3.2
18906	7	Sololá	710	Panajachel	8	Panajachel	2	Febrero	2023-10-02T00:00:00	2024-11-08T04:00:00	7	Dirección del viento	3.22
18907	7	Sololá	710	Panajachel	8	Panajachel	2	Febrero	2023-10-02T00:00:00	2024-11-08T04:00:00	1	Precipitación	0
18908	7	Sololá	710	Panajachel	8	Panajachel	2	Febrero	2023-10-02T00:00:00	2024-11-08T04:00:00	8	Radiación solar	0
18909	7	Sololá	710	Panajachel	8	Panajachel	2	Febrero	2023-10-02T00:00:00	2024-11-08T05:00:00	2	Temperatura media	15.3
18910	7	Sololá	710	Panajachel	8	Panajachel	2	Febrero	2023-10-02T00:00:00	2024-11-08T05:00:00	4	Temperatura máxima	15.7
18911	7	Sololá	710	Panajachel	8	Panajachel	2	Febrero	2023-10-02T00:00:00	2024-11-08T05:00:00	3	Temperatura mínima	14.9
18912	7	Sololá	710	Panajachel	8	Panajachel	2	Febrero	2023-10-02T00:00:00	2024-11-08T05:00:00	5	Humedad	75
18913	7	Sololá	710	Panajachel	8	Panajachel	2	Febrero	2023-10-02T00:00:00	2024-11-08T05:00:00	6	Velocidad del viento	1.6
18914	7	Sololá	710	Panajachel	8	Panajachel	2	Febrero	2023-10-02T00:00:00	2024-11-08T05:00:00	7	Dirección del viento	1.61
18915	7	Sololá	710	Panajachel	8	Panajachel	2	Febrero	2023-10-02T00:00:00	2024-11-08T05:00:00	1	Precipitación	0
18916	7	Sololá	710	Panajachel	8	Panajachel	2	Febrero	2023-10-02T00:00:00	2024-11-08T05:00:00	8	Radiación solar	0
18917	7	Sololá	710	Panajachel	8	Panajachel	2	Febrero	2023-10-02T00:00:00	2024-11-08T06:00:00	2	Temperatura media	14.2
18918	7	Sololá	710	Panajachel	8	Panajachel	2	Febrero	2023-10-02T00:00:00	2024-11-08T06:00:00	4	Temperatura máxima	15.4
18919	7	Sololá	710	Panajachel	8	Panajachel	2	Febrero	2023-10-02T00:00:00	2024-11-08T06:00:00	3	Temperatura mínima	14.2
18920	7	Sololá	710	Panajachel	8	Panajachel	2	Febrero	2023-10-02T00:00:00	2024-11-08T06:00:00	5	Humedad	80
18921	7	Sololá	710	Panajachel	8	Panajachel	2	Febrero	2023-10-02T00:00:00	2024-11-08T06:00:00	6	Velocidad del viento	0
18922	7	Sololá	710	Panajachel	8	Panajachel	2	Febrero	2023-10-02T00:00:00	2024-11-08T06:00:00	7	Dirección del viento	0
18923	7	Sololá	710	Panajachel	8	Panajachel	2	Febrero	2023-10-02T00:00:00	2024-11-08T06:00:00	1	Precipitación	0
18924	7	Sololá	710	Panajachel	8	Panajachel	2	Febrero	2023-10-02T00:00:00	2024-11-08T06:00:00	8	Radiación solar	0
18925	7	Sololá	710	Panajachel	8	Panajachel	2	Febrero	2023-10-02T00:00:00	2024-11-08T07:00:00	2	Temperatura media	14.3
18926	7	Sololá	710	Panajachel	8	Panajachel	2	Febrero	2023-10-02T00:00:00	2024-11-08T07:00:00	4	Temperatura máxima	14.3
18927	7	Sololá	710	Panajachel	8	Panajachel	2	Febrero	2023-10-02T00:00:00	2024-11-08T07:00:00	3	Temperatura mínima	13.8
18928	7	Sololá	710	Panajachel	8	Panajachel	2	Febrero	2023-10-02T00:00:00	2024-11-08T07:00:00	5	Humedad	79
18929	7	Sololá	710	Panajachel	8	Panajachel	2	Febrero	2023-10-02T00:00:00	2024-11-08T07:00:00	6	Velocidad del viento	0
18930	7	Sololá	710	Panajachel	8	Panajachel	2	Febrero	2023-10-02T00:00:00	2024-11-08T07:00:00	7	Dirección del viento	0
18931	7	Sololá	710	Panajachel	8	Panajachel	2	Febrero	2023-10-02T00:00:00	2024-11-08T07:00:00	1	Precipitación	0
18932	7	Sololá	710	Panajachel	8	Panajachel	2	Febrero	2023-10-02T00:00:00	2024-11-08T07:00:00	8	Radiación solar	4
18933	7	Sololá	710	Panajachel	8	Panajachel	2	Febrero	2023-10-02T00:00:00	2024-11-08T08:00:00	2	Temperatura media	16.3
18934	7	Sololá	710	Panajachel	8	Panajachel	2	Febrero	2023-10-02T00:00:00	2024-11-08T08:00:00	4	Temperatura máxima	16.3
18935	7	Sololá	710	Panajachel	8	Panajachel	2	Febrero	2023-10-02T00:00:00	2024-11-08T08:00:00	3	Temperatura mínima	14.2
18936	7	Sololá	710	Panajachel	8	Panajachel	2	Febrero	2023-10-02T00:00:00	2024-11-08T08:00:00	5	Humedad	71
18937	7	Sololá	710	Panajachel	8	Panajachel	2	Febrero	2023-10-02T00:00:00	2024-11-08T08:00:00	6	Velocidad del viento	1.6
18938	7	Sololá	710	Panajachel	8	Panajachel	2	Febrero	2023-10-02T00:00:00	2024-11-08T08:00:00	7	Dirección del viento	1.61
18939	7	Sololá	710	Panajachel	8	Panajachel	2	Febrero	2023-10-02T00:00:00	2024-11-08T08:00:00	1	Precipitación	0
18940	7	Sololá	710	Panajachel	8	Panajachel	2	Febrero	2023-10-02T00:00:00	2024-11-08T08:00:00	8	Radiación solar	76
18941	7	Sololá	710	Panajachel	8	Panajachel	2	Febrero	2023-10-02T00:00:00	2024-11-08T09:00:00	2	Temperatura media	19.1
18942	7	Sololá	710	Panajachel	8	Panajachel	2	Febrero	2023-10-02T00:00:00	2024-11-08T09:00:00	4	Temperatura máxima	19.1
18943	7	Sololá	710	Panajachel	8	Panajachel	2	Febrero	2023-10-02T00:00:00	2024-11-08T09:00:00	3	Temperatura mínima	16.3
18944	7	Sololá	710	Panajachel	8	Panajachel	2	Febrero	2023-10-02T00:00:00	2024-11-08T09:00:00	5	Humedad	74
18945	7	Sololá	710	Panajachel	8	Panajachel	2	Febrero	2023-10-02T00:00:00	2024-11-08T09:00:00	6	Velocidad del viento	1.6
18946	7	Sololá	710	Panajachel	8	Panajachel	2	Febrero	2023-10-02T00:00:00	2024-11-08T09:00:00	7	Dirección del viento	1.61
18947	7	Sololá	710	Panajachel	8	Panajachel	2	Febrero	2023-10-02T00:00:00	2024-11-08T09:00:00	1	Precipitación	0
18948	7	Sololá	710	Panajachel	8	Panajachel	2	Febrero	2023-10-02T00:00:00	2024-11-08T09:00:00	8	Radiación solar	386
18949	7	Sololá	710	Panajachel	8	Panajachel	2	Febrero	2023-10-02T00:00:00	2024-11-08T10:00:00	2	Temperatura media	20.9
18950	7	Sololá	710	Panajachel	8	Panajachel	2	Febrero	2023-10-02T00:00:00	2024-11-08T10:00:00	4	Temperatura máxima	22.6
18951	7	Sololá	710	Panajachel	8	Panajachel	2	Febrero	2023-10-02T00:00:00	2024-11-08T10:00:00	3	Temperatura mínima	19.1
18952	7	Sololá	710	Panajachel	8	Panajachel	2	Febrero	2023-10-02T00:00:00	2024-11-08T10:00:00	5	Humedad	66
18953	7	Sololá	710	Panajachel	8	Panajachel	2	Febrero	2023-10-02T00:00:00	2024-11-08T10:00:00	6	Velocidad del viento	1.6
18954	7	Sololá	710	Panajachel	8	Panajachel	2	Febrero	2023-10-02T00:00:00	2024-11-08T10:00:00	7	Dirección del viento	1.61
18955	7	Sololá	710	Panajachel	8	Panajachel	2	Febrero	2023-10-02T00:00:00	2024-11-08T10:00:00	1	Precipitación	0
18956	7	Sololá	710	Panajachel	8	Panajachel	2	Febrero	2023-10-02T00:00:00	2024-11-08T10:00:00	8	Radiación solar	585
18957	7	Sololá	710	Panajachel	8	Panajachel	2	Febrero	2023-10-02T00:00:00	2024-11-08T11:00:00	2	Temperatura media	21.9
18958	7	Sololá	710	Panajachel	8	Panajachel	2	Febrero	2023-10-02T00:00:00	2024-11-08T11:00:00	4	Temperatura máxima	22.1
18959	7	Sololá	710	Panajachel	8	Panajachel	2	Febrero	2023-10-02T00:00:00	2024-11-08T11:00:00	3	Temperatura mínima	20.9
18960	7	Sololá	710	Panajachel	8	Panajachel	2	Febrero	2023-10-02T00:00:00	2024-11-08T11:00:00	5	Humedad	64
18961	7	Sololá	710	Panajachel	8	Panajachel	2	Febrero	2023-10-02T00:00:00	2024-11-08T11:00:00	6	Velocidad del viento	3.2
18962	7	Sololá	710	Panajachel	8	Panajachel	2	Febrero	2023-10-02T00:00:00	2024-11-08T11:00:00	7	Dirección del viento	3.22
18963	7	Sololá	710	Panajachel	8	Panajachel	2	Febrero	2023-10-02T00:00:00	2024-11-08T11:00:00	1	Precipitación	0
18964	7	Sololá	710	Panajachel	8	Panajachel	2	Febrero	2023-10-02T00:00:00	2024-11-08T11:00:00	8	Radiación solar	771
18965	7	Sololá	710	Panajachel	8	Panajachel	2	Febrero	2023-10-02T00:00:00	2024-11-08T12:00:00	2	Temperatura media	23.3
18966	7	Sololá	710	Panajachel	8	Panajachel	2	Febrero	2023-10-02T00:00:00	2024-11-08T12:00:00	4	Temperatura máxima	23.4
18967	7	Sololá	710	Panajachel	8	Panajachel	2	Febrero	2023-10-02T00:00:00	2024-11-08T12:00:00	3	Temperatura mínima	21.6
18968	7	Sololá	710	Panajachel	8	Panajachel	2	Febrero	2023-10-02T00:00:00	2024-11-08T12:00:00	5	Humedad	53
18969	7	Sololá	710	Panajachel	8	Panajachel	2	Febrero	2023-10-02T00:00:00	2024-11-08T12:00:00	6	Velocidad del viento	3.2
18970	7	Sololá	710	Panajachel	8	Panajachel	2	Febrero	2023-10-02T00:00:00	2024-11-08T12:00:00	7	Dirección del viento	3.22
18971	7	Sololá	710	Panajachel	8	Panajachel	2	Febrero	2023-10-02T00:00:00	2024-11-08T12:00:00	1	Precipitación	0
18972	7	Sololá	710	Panajachel	8	Panajachel	2	Febrero	2023-10-02T00:00:00	2024-11-08T12:00:00	8	Radiación solar	864
18973	7	Sololá	710	Panajachel	8	Panajachel	2	Febrero	2023-10-02T00:00:00	2024-11-08T13:00:00	2	Temperatura media	23.9
18974	7	Sololá	710	Panajachel	8	Panajachel	2	Febrero	2023-10-02T00:00:00	2024-11-08T13:00:00	4	Temperatura máxima	24.2
18975	7	Sololá	710	Panajachel	8	Panajachel	2	Febrero	2023-10-02T00:00:00	2024-11-08T13:00:00	3	Temperatura mínima	23.3
18976	7	Sololá	710	Panajachel	8	Panajachel	2	Febrero	2023-10-02T00:00:00	2024-11-08T13:00:00	5	Humedad	71
18977	7	Sololá	710	Panajachel	8	Panajachel	2	Febrero	2023-10-02T00:00:00	2024-11-08T13:00:00	6	Velocidad del viento	4.8
18978	7	Sololá	710	Panajachel	8	Panajachel	2	Febrero	2023-10-02T00:00:00	2024-11-08T13:00:00	7	Dirección del viento	4.83
18979	7	Sololá	710	Panajachel	8	Panajachel	2	Febrero	2023-10-02T00:00:00	2024-11-08T13:00:00	1	Precipitación	0
18980	7	Sololá	710	Panajachel	8	Panajachel	2	Febrero	2023-10-02T00:00:00	2024-11-08T13:00:00	8	Radiación solar	871
18981	7	Sololá	710	Panajachel	8	Panajachel	2	Febrero	2023-10-02T00:00:00	2024-11-08T14:00:00	2	Temperatura media	23.1
18982	7	Sololá	710	Panajachel	8	Panajachel	2	Febrero	2023-10-02T00:00:00	2024-11-08T14:00:00	4	Temperatura máxima	24.6
18983	7	Sololá	710	Panajachel	8	Panajachel	2	Febrero	2023-10-02T00:00:00	2024-11-08T14:00:00	3	Temperatura mínima	22.9
18984	7	Sololá	710	Panajachel	8	Panajachel	2	Febrero	2023-10-02T00:00:00	2024-11-08T14:00:00	5	Humedad	71
18985	7	Sololá	710	Panajachel	8	Panajachel	2	Febrero	2023-10-02T00:00:00	2024-11-08T14:00:00	6	Velocidad del viento	6.4
18986	7	Sololá	710	Panajachel	8	Panajachel	2	Febrero	2023-10-02T00:00:00	2024-11-08T14:00:00	7	Dirección del viento	6.44
18987	7	Sololá	710	Panajachel	8	Panajachel	2	Febrero	2023-10-02T00:00:00	2024-11-08T14:00:00	1	Precipitación	0
18988	7	Sololá	710	Panajachel	8	Panajachel	2	Febrero	2023-10-02T00:00:00	2024-11-08T14:00:00	8	Radiación solar	806
18989	7	Sololá	710	Panajachel	8	Panajachel	2	Febrero	2023-10-02T00:00:00	2024-11-08T15:00:00	2	Temperatura media	23.6
18990	7	Sololá	710	Panajachel	8	Panajachel	2	Febrero	2023-10-02T00:00:00	2024-11-08T15:00:00	4	Temperatura máxima	23.6
18991	7	Sololá	710	Panajachel	8	Panajachel	2	Febrero	2023-10-02T00:00:00	2024-11-08T15:00:00	3	Temperatura mínima	22.8
18992	7	Sololá	710	Panajachel	8	Panajachel	2	Febrero	2023-10-02T00:00:00	2024-11-08T15:00:00	5	Humedad	71
18993	7	Sololá	710	Panajachel	8	Panajachel	2	Febrero	2023-10-02T00:00:00	2024-11-08T15:00:00	6	Velocidad del viento	8
18994	7	Sololá	710	Panajachel	8	Panajachel	2	Febrero	2023-10-02T00:00:00	2024-11-08T15:00:00	7	Dirección del viento	8.05
18995	7	Sololá	710	Panajachel	8	Panajachel	2	Febrero	2023-10-02T00:00:00	2024-11-08T15:00:00	1	Precipitación	0
18996	7	Sololá	710	Panajachel	8	Panajachel	2	Febrero	2023-10-02T00:00:00	2024-11-08T15:00:00	8	Radiación solar	719
18997	7	Sololá	710	Panajachel	8	Panajachel	2	Febrero	2023-10-02T00:00:00	2024-11-08T16:00:00	2	Temperatura media	23.1
18998	7	Sololá	710	Panajachel	8	Panajachel	2	Febrero	2023-10-02T00:00:00	2024-11-08T16:00:00	4	Temperatura máxima	24.2
18999	7	Sololá	710	Panajachel	8	Panajachel	2	Febrero	2023-10-02T00:00:00	2024-11-08T16:00:00	3	Temperatura mínima	22.6
19000	7	Sololá	710	Panajachel	8	Panajachel	2	Febrero	2023-10-02T00:00:00	2024-11-08T16:00:00	5	Humedad	70
19001	7	Sololá	710	Panajachel	8	Panajachel	2	Febrero	2023-10-02T00:00:00	2024-11-08T16:00:00	6	Velocidad del viento	4.8
19002	7	Sololá	710	Panajachel	8	Panajachel	2	Febrero	2023-10-02T00:00:00	2024-11-08T16:00:00	7	Dirección del viento	4.83
19003	7	Sololá	710	Panajachel	8	Panajachel	2	Febrero	2023-10-02T00:00:00	2024-11-08T16:00:00	1	Precipitación	0
19004	7	Sololá	710	Panajachel	8	Panajachel	2	Febrero	2023-10-02T00:00:00	2024-11-08T16:00:00	8	Radiación solar	535
19005	7	Sololá	710	Panajachel	8	Panajachel	2	Febrero	2023-10-02T00:00:00	2024-11-08T17:00:00	2	Temperatura media	22.6
19006	7	Sololá	710	Panajachel	8	Panajachel	2	Febrero	2023-10-02T00:00:00	2024-11-08T17:00:00	4	Temperatura máxima	23.2
19007	7	Sololá	710	Panajachel	8	Panajachel	2	Febrero	2023-10-02T00:00:00	2024-11-08T17:00:00	3	Temperatura mínima	22.2
19008	7	Sololá	710	Panajachel	8	Panajachel	2	Febrero	2023-10-02T00:00:00	2024-11-08T17:00:00	5	Humedad	74
19009	7	Sololá	710	Panajachel	8	Panajachel	2	Febrero	2023-10-02T00:00:00	2024-11-08T17:00:00	6	Velocidad del viento	1.6
19010	7	Sololá	710	Panajachel	8	Panajachel	2	Febrero	2023-10-02T00:00:00	2024-11-08T17:00:00	7	Dirección del viento	1.61
19011	7	Sololá	710	Panajachel	8	Panajachel	2	Febrero	2023-10-02T00:00:00	2024-11-08T17:00:00	1	Precipitación	0
19012	7	Sololá	710	Panajachel	8	Panajachel	2	Febrero	2023-10-02T00:00:00	2024-11-08T17:00:00	8	Radiación solar	256
19013	7	Sololá	710	Panajachel	8	Panajachel	2	Febrero	2023-10-02T00:00:00	2024-11-08T18:00:00	2	Temperatura media	20.8
19014	7	Sololá	710	Panajachel	8	Panajachel	2	Febrero	2023-10-02T00:00:00	2024-11-08T18:00:00	4	Temperatura máxima	22.7
19015	7	Sololá	710	Panajachel	8	Panajachel	2	Febrero	2023-10-02T00:00:00	2024-11-08T18:00:00	3	Temperatura mínima	20.8
19016	7	Sololá	710	Panajachel	8	Panajachel	2	Febrero	2023-10-02T00:00:00	2024-11-08T18:00:00	5	Humedad	81
19017	7	Sololá	710	Panajachel	8	Panajachel	2	Febrero	2023-10-02T00:00:00	2024-11-08T18:00:00	6	Velocidad del viento	1.6
19018	7	Sololá	710	Panajachel	8	Panajachel	2	Febrero	2023-10-02T00:00:00	2024-11-08T18:00:00	7	Dirección del viento	1.61
19019	7	Sololá	710	Panajachel	8	Panajachel	2	Febrero	2023-10-02T00:00:00	2024-11-08T18:00:00	1	Precipitación	0
19020	7	Sololá	710	Panajachel	8	Panajachel	2	Febrero	2023-10-02T00:00:00	2024-11-08T18:00:00	8	Radiación solar	81
19021	7	Sololá	710	Panajachel	8	Panajachel	2	Febrero	2023-10-02T00:00:00	2024-11-08T19:00:00	2	Temperatura media	19.6
19022	7	Sololá	710	Panajachel	8	Panajachel	2	Febrero	2023-10-02T00:00:00	2024-11-08T19:00:00	4	Temperatura máxima	20.9
19023	7	Sololá	710	Panajachel	8	Panajachel	2	Febrero	2023-10-02T00:00:00	2024-11-08T19:00:00	3	Temperatura mínima	19.5
19024	7	Sololá	710	Panajachel	8	Panajachel	2	Febrero	2023-10-02T00:00:00	2024-11-08T19:00:00	5	Humedad	85
19025	7	Sololá	710	Panajachel	8	Panajachel	2	Febrero	2023-10-02T00:00:00	2024-11-08T19:00:00	6	Velocidad del viento	0
19026	7	Sololá	710	Panajachel	8	Panajachel	2	Febrero	2023-10-02T00:00:00	2024-11-08T19:00:00	7	Dirección del viento	0
19027	7	Sololá	710	Panajachel	8	Panajachel	2	Febrero	2023-10-02T00:00:00	2024-11-08T19:00:00	1	Precipitación	0
19028	7	Sololá	710	Panajachel	8	Panajachel	2	Febrero	2023-10-02T00:00:00	2024-11-08T19:00:00	8	Radiación solar	0
19029	7	Sololá	710	Panajachel	8	Panajachel	2	Febrero	2023-10-02T00:00:00	2024-11-08T20:00:00	2	Temperatura media	18.2
19030	7	Sololá	710	Panajachel	8	Panajachel	2	Febrero	2023-10-02T00:00:00	2024-11-08T20:00:00	4	Temperatura máxima	19.6
19031	7	Sololá	710	Panajachel	8	Panajachel	2	Febrero	2023-10-02T00:00:00	2024-11-08T20:00:00	3	Temperatura mínima	18.2
19032	7	Sololá	710	Panajachel	8	Panajachel	2	Febrero	2023-10-02T00:00:00	2024-11-08T20:00:00	5	Humedad	83
19033	7	Sololá	710	Panajachel	8	Panajachel	2	Febrero	2023-10-02T00:00:00	2024-11-08T20:00:00	6	Velocidad del viento	0
19034	7	Sololá	710	Panajachel	8	Panajachel	2	Febrero	2023-10-02T00:00:00	2024-11-08T20:00:00	7	Dirección del viento	0
19035	7	Sololá	710	Panajachel	8	Panajachel	2	Febrero	2023-10-02T00:00:00	2024-11-08T20:00:00	1	Precipitación	0
19036	7	Sololá	710	Panajachel	8	Panajachel	2	Febrero	2023-10-02T00:00:00	2024-11-08T20:00:00	8	Radiación solar	0
19037	7	Sololá	710	Panajachel	8	Panajachel	2	Febrero	2023-10-02T00:00:00	2024-11-08T21:00:00	2	Temperatura media	17.5
19038	7	Sololá	710	Panajachel	8	Panajachel	2	Febrero	2023-10-02T00:00:00	2024-11-08T21:00:00	4	Temperatura máxima	18.2
19039	7	Sololá	710	Panajachel	8	Panajachel	2	Febrero	2023-10-02T00:00:00	2024-11-08T21:00:00	3	Temperatura mínima	17.5
19040	7	Sololá	710	Panajachel	8	Panajachel	2	Febrero	2023-10-02T00:00:00	2024-11-08T21:00:00	5	Humedad	80
19041	7	Sololá	710	Panajachel	8	Panajachel	2	Febrero	2023-10-02T00:00:00	2024-11-08T21:00:00	6	Velocidad del viento	0
19042	7	Sololá	710	Panajachel	8	Panajachel	2	Febrero	2023-10-02T00:00:00	2024-11-08T21:00:00	7	Dirección del viento	0
19043	7	Sololá	710	Panajachel	8	Panajachel	2	Febrero	2023-10-02T00:00:00	2024-11-08T21:00:00	1	Precipitación	0
19044	7	Sololá	710	Panajachel	8	Panajachel	2	Febrero	2023-10-02T00:00:00	2024-11-08T21:00:00	8	Radiación solar	0
19045	7	Sololá	710	Panajachel	8	Panajachel	2	Febrero	2023-10-02T00:00:00	2024-11-08T22:00:00	2	Temperatura media	17.8
19046	7	Sololá	710	Panajachel	8	Panajachel	2	Febrero	2023-10-02T00:00:00	2024-11-08T22:00:00	4	Temperatura máxima	17.9
19047	7	Sololá	710	Panajachel	8	Panajachel	2	Febrero	2023-10-02T00:00:00	2024-11-08T22:00:00	3	Temperatura mínima	17.3
19048	7	Sololá	710	Panajachel	8	Panajachel	2	Febrero	2023-10-02T00:00:00	2024-11-08T22:00:00	5	Humedad	75
19049	7	Sololá	710	Panajachel	8	Panajachel	2	Febrero	2023-10-02T00:00:00	2024-11-08T22:00:00	6	Velocidad del viento	0
19050	7	Sololá	710	Panajachel	8	Panajachel	2	Febrero	2023-10-02T00:00:00	2024-11-08T22:00:00	7	Dirección del viento	0
19051	7	Sololá	710	Panajachel	8	Panajachel	2	Febrero	2023-10-02T00:00:00	2024-11-08T22:00:00	1	Precipitación	0
19052	7	Sololá	710	Panajachel	8	Panajachel	2	Febrero	2023-10-02T00:00:00	2024-11-08T22:00:00	8	Radiación solar	0
19053	7	Sololá	710	Panajachel	8	Panajachel	2	Febrero	2023-10-02T00:00:00	2024-11-08T23:00:00	2	Temperatura media	16.7
19054	7	Sololá	710	Panajachel	8	Panajachel	2	Febrero	2023-10-02T00:00:00	2024-11-08T23:00:00	4	Temperatura máxima	17.8
19055	7	Sololá	710	Panajachel	8	Panajachel	2	Febrero	2023-10-02T00:00:00	2024-11-08T23:00:00	3	Temperatura mínima	16.4
19056	7	Sololá	710	Panajachel	8	Panajachel	2	Febrero	2023-10-02T00:00:00	2024-11-08T23:00:00	5	Humedad	76
19057	7	Sololá	710	Panajachel	8	Panajachel	2	Febrero	2023-10-02T00:00:00	2024-11-08T23:00:00	6	Velocidad del viento	0
19058	7	Sololá	710	Panajachel	8	Panajachel	2	Febrero	2023-10-02T00:00:00	2024-11-08T23:00:00	7	Dirección del viento	0
19059	7	Sololá	710	Panajachel	8	Panajachel	2	Febrero	2023-10-02T00:00:00	2024-11-08T23:00:00	1	Precipitación	0
19060	7	Sololá	710	Panajachel	8	Panajachel	2	Febrero	2023-10-02T00:00:00	2024-11-08T23:00:00	8	Radiación solar	0
19061	7	Sololá	710	Panajachel	8	Panajachel	2	Febrero	2023-11-02T00:00:00	2024-11-08T00:00:00	2	Temperatura media	18.3
19062	7	Sololá	710	Panajachel	8	Panajachel	2	Febrero	2023-11-02T00:00:00	2024-11-08T00:00:00	4	Temperatura máxima	18.3
19063	7	Sololá	710	Panajachel	8	Panajachel	2	Febrero	2023-11-02T00:00:00	2024-11-08T00:00:00	3	Temperatura mínima	16.7
19064	7	Sololá	710	Panajachel	8	Panajachel	2	Febrero	2023-11-02T00:00:00	2024-11-08T00:00:00	5	Humedad	69
19065	7	Sololá	710	Panajachel	8	Panajachel	2	Febrero	2023-11-02T00:00:00	2024-11-08T00:00:00	6	Velocidad del viento	6.4
19066	7	Sololá	710	Panajachel	8	Panajachel	2	Febrero	2023-11-02T00:00:00	2024-11-08T00:00:00	7	Dirección del viento	6.44
19067	7	Sololá	710	Panajachel	8	Panajachel	2	Febrero	2023-11-02T00:00:00	2024-11-08T00:00:00	1	Precipitación	0
19068	7	Sololá	710	Panajachel	8	Panajachel	2	Febrero	2023-11-02T00:00:00	2024-11-08T00:00:00	8	Radiación solar	0
19069	7	Sololá	710	Panajachel	8	Panajachel	2	Febrero	2023-11-02T00:00:00	2024-11-08T01:00:00	2	Temperatura media	17.8
19070	7	Sololá	710	Panajachel	8	Panajachel	2	Febrero	2023-11-02T00:00:00	2024-11-08T01:00:00	4	Temperatura máxima	18.4
19071	7	Sololá	710	Panajachel	8	Panajachel	2	Febrero	2023-11-02T00:00:00	2024-11-08T01:00:00	3	Temperatura mínima	17.8
19072	7	Sololá	710	Panajachel	8	Panajachel	2	Febrero	2023-11-02T00:00:00	2024-11-08T01:00:00	5	Humedad	70
19073	7	Sololá	710	Panajachel	8	Panajachel	2	Febrero	2023-11-02T00:00:00	2024-11-08T01:00:00	6	Velocidad del viento	9.7
19074	7	Sololá	710	Panajachel	8	Panajachel	2	Febrero	2023-11-02T00:00:00	2024-11-08T01:00:00	7	Dirección del viento	9.66
19075	7	Sololá	710	Panajachel	8	Panajachel	2	Febrero	2023-11-02T00:00:00	2024-11-08T01:00:00	1	Precipitación	0
19076	7	Sololá	710	Panajachel	8	Panajachel	2	Febrero	2023-11-02T00:00:00	2024-11-08T01:00:00	8	Radiación solar	0
19077	7	Sololá	710	Panajachel	8	Panajachel	2	Febrero	2023-11-02T00:00:00	2024-11-08T02:00:00	2	Temperatura media	17.5
19078	7	Sololá	710	Panajachel	8	Panajachel	2	Febrero	2023-11-02T00:00:00	2024-11-08T02:00:00	4	Temperatura máxima	17.9
19079	7	Sololá	710	Panajachel	8	Panajachel	2	Febrero	2023-11-02T00:00:00	2024-11-08T02:00:00	3	Temperatura mínima	17.5
19080	7	Sololá	710	Panajachel	8	Panajachel	2	Febrero	2023-11-02T00:00:00	2024-11-08T02:00:00	5	Humedad	71
19081	7	Sololá	710	Panajachel	8	Panajachel	2	Febrero	2023-11-02T00:00:00	2024-11-08T02:00:00	6	Velocidad del viento	8
19082	7	Sololá	710	Panajachel	8	Panajachel	2	Febrero	2023-11-02T00:00:00	2024-11-08T02:00:00	7	Dirección del viento	8.05
19083	7	Sololá	710	Panajachel	8	Panajachel	2	Febrero	2023-11-02T00:00:00	2024-11-08T02:00:00	1	Precipitación	0
19084	7	Sololá	710	Panajachel	8	Panajachel	2	Febrero	2023-11-02T00:00:00	2024-11-08T02:00:00	8	Radiación solar	0
19085	7	Sololá	710	Panajachel	8	Panajachel	2	Febrero	2023-11-02T00:00:00	2024-11-08T03:00:00	2	Temperatura media	17.3
19086	7	Sololá	710	Panajachel	8	Panajachel	2	Febrero	2023-11-02T00:00:00	2024-11-08T03:00:00	4	Temperatura máxima	17.7
19087	7	Sololá	710	Panajachel	8	Panajachel	2	Febrero	2023-11-02T00:00:00	2024-11-08T03:00:00	3	Temperatura mínima	17.3
19088	7	Sololá	710	Panajachel	8	Panajachel	2	Febrero	2023-11-02T00:00:00	2024-11-08T03:00:00	5	Humedad	71
19089	7	Sololá	710	Panajachel	8	Panajachel	2	Febrero	2023-11-02T00:00:00	2024-11-08T03:00:00	6	Velocidad del viento	8
19090	7	Sololá	710	Panajachel	8	Panajachel	2	Febrero	2023-11-02T00:00:00	2024-11-08T03:00:00	7	Dirección del viento	8.05
19091	7	Sololá	710	Panajachel	8	Panajachel	2	Febrero	2023-11-02T00:00:00	2024-11-08T03:00:00	1	Precipitación	0
19092	7	Sololá	710	Panajachel	8	Panajachel	2	Febrero	2023-11-02T00:00:00	2024-11-08T03:00:00	8	Radiación solar	0
19093	7	Sololá	710	Panajachel	8	Panajachel	2	Febrero	2023-11-02T00:00:00	2024-11-08T04:00:00	2	Temperatura media	16.2
19094	7	Sololá	710	Panajachel	8	Panajachel	2	Febrero	2023-11-02T00:00:00	2024-11-08T04:00:00	4	Temperatura máxima	17.4
19095	7	Sololá	710	Panajachel	8	Panajachel	2	Febrero	2023-11-02T00:00:00	2024-11-08T04:00:00	3	Temperatura mínima	16.2
19096	7	Sololá	710	Panajachel	8	Panajachel	2	Febrero	2023-11-02T00:00:00	2024-11-08T04:00:00	5	Humedad	73
19097	7	Sololá	710	Panajachel	8	Panajachel	2	Febrero	2023-11-02T00:00:00	2024-11-08T04:00:00	6	Velocidad del viento	8
19098	7	Sololá	710	Panajachel	8	Panajachel	2	Febrero	2023-11-02T00:00:00	2024-11-08T04:00:00	7	Dirección del viento	8.05
19099	7	Sololá	710	Panajachel	8	Panajachel	2	Febrero	2023-11-02T00:00:00	2024-11-08T04:00:00	1	Precipitación	0
19100	7	Sololá	710	Panajachel	8	Panajachel	2	Febrero	2023-11-02T00:00:00	2024-11-08T04:00:00	8	Radiación solar	0
19101	7	Sololá	710	Panajachel	8	Panajachel	2	Febrero	2023-11-02T00:00:00	2024-11-08T05:00:00	2	Temperatura media	15.6
19102	7	Sololá	710	Panajachel	8	Panajachel	2	Febrero	2023-11-02T00:00:00	2024-11-08T05:00:00	4	Temperatura máxima	16.3
19103	7	Sololá	710	Panajachel	8	Panajachel	2	Febrero	2023-11-02T00:00:00	2024-11-08T05:00:00	3	Temperatura mínima	15.5
19104	7	Sololá	710	Panajachel	8	Panajachel	2	Febrero	2023-11-02T00:00:00	2024-11-08T05:00:00	5	Humedad	73
19105	7	Sololá	710	Panajachel	8	Panajachel	2	Febrero	2023-11-02T00:00:00	2024-11-08T05:00:00	6	Velocidad del viento	4.8
19106	7	Sololá	710	Panajachel	8	Panajachel	2	Febrero	2023-11-02T00:00:00	2024-11-08T05:00:00	7	Dirección del viento	4.83
19107	7	Sololá	710	Panajachel	8	Panajachel	2	Febrero	2023-11-02T00:00:00	2024-11-08T05:00:00	1	Precipitación	0
19108	7	Sololá	710	Panajachel	8	Panajachel	2	Febrero	2023-11-02T00:00:00	2024-11-08T05:00:00	8	Radiación solar	0
19109	7	Sololá	710	Panajachel	8	Panajachel	2	Febrero	2023-11-02T00:00:00	2024-11-08T06:00:00	2	Temperatura media	15.3
19110	7	Sololá	710	Panajachel	8	Panajachel	2	Febrero	2023-11-02T00:00:00	2024-11-08T06:00:00	4	Temperatura máxima	15.6
19111	7	Sololá	710	Panajachel	8	Panajachel	2	Febrero	2023-11-02T00:00:00	2024-11-08T06:00:00	3	Temperatura mínima	14.7
19112	7	Sololá	710	Panajachel	8	Panajachel	2	Febrero	2023-11-02T00:00:00	2024-11-08T06:00:00	5	Humedad	73
19113	7	Sololá	710	Panajachel	8	Panajachel	2	Febrero	2023-11-02T00:00:00	2024-11-08T06:00:00	6	Velocidad del viento	1.6
19114	7	Sololá	710	Panajachel	8	Panajachel	2	Febrero	2023-11-02T00:00:00	2024-11-08T06:00:00	7	Dirección del viento	1.61
19115	7	Sololá	710	Panajachel	8	Panajachel	2	Febrero	2023-11-02T00:00:00	2024-11-08T06:00:00	1	Precipitación	0
19116	7	Sololá	710	Panajachel	8	Panajachel	2	Febrero	2023-11-02T00:00:00	2024-11-08T06:00:00	8	Radiación solar	0
19117	7	Sololá	710	Panajachel	8	Panajachel	2	Febrero	2023-11-02T00:00:00	2024-11-08T07:00:00	2	Temperatura media	15.2
19118	7	Sololá	710	Panajachel	8	Panajachel	2	Febrero	2023-11-02T00:00:00	2024-11-08T07:00:00	4	Temperatura máxima	15.3
19119	7	Sololá	710	Panajachel	8	Panajachel	2	Febrero	2023-11-02T00:00:00	2024-11-08T07:00:00	3	Temperatura mínima	14.7
19120	7	Sololá	710	Panajachel	8	Panajachel	2	Febrero	2023-11-02T00:00:00	2024-11-08T07:00:00	5	Humedad	74
19121	7	Sololá	710	Panajachel	8	Panajachel	2	Febrero	2023-11-02T00:00:00	2024-11-08T07:00:00	6	Velocidad del viento	0
19122	7	Sololá	710	Panajachel	8	Panajachel	2	Febrero	2023-11-02T00:00:00	2024-11-08T07:00:00	7	Dirección del viento	0
19123	7	Sololá	710	Panajachel	8	Panajachel	2	Febrero	2023-11-02T00:00:00	2024-11-08T07:00:00	1	Precipitación	0
19124	7	Sololá	710	Panajachel	8	Panajachel	2	Febrero	2023-11-02T00:00:00	2024-11-08T07:00:00	8	Radiación solar	4
19125	7	Sololá	710	Panajachel	8	Panajachel	2	Febrero	2023-11-02T00:00:00	2024-11-08T08:00:00	2	Temperatura media	19.4
19126	7	Sololá	710	Panajachel	8	Panajachel	2	Febrero	2023-11-02T00:00:00	2024-11-08T08:00:00	4	Temperatura máxima	19.5
19127	7	Sololá	710	Panajachel	8	Panajachel	2	Febrero	2023-11-02T00:00:00	2024-11-08T08:00:00	3	Temperatura mínima	15.2
19128	7	Sololá	710	Panajachel	8	Panajachel	2	Febrero	2023-11-02T00:00:00	2024-11-08T08:00:00	5	Humedad	52
19129	7	Sololá	710	Panajachel	8	Panajachel	2	Febrero	2023-11-02T00:00:00	2024-11-08T08:00:00	6	Velocidad del viento	4.8
19130	7	Sololá	710	Panajachel	8	Panajachel	2	Febrero	2023-11-02T00:00:00	2024-11-08T08:00:00	7	Dirección del viento	4.83
19131	7	Sololá	710	Panajachel	8	Panajachel	2	Febrero	2023-11-02T00:00:00	2024-11-08T08:00:00	1	Precipitación	0
19132	7	Sololá	710	Panajachel	8	Panajachel	2	Febrero	2023-11-02T00:00:00	2024-11-08T08:00:00	8	Radiación solar	100
19133	7	Sololá	710	Panajachel	8	Panajachel	2	Febrero	2023-11-02T00:00:00	2024-11-08T09:00:00	2	Temperatura media	20.9
19134	7	Sololá	710	Panajachel	8	Panajachel	2	Febrero	2023-11-02T00:00:00	2024-11-08T09:00:00	4	Temperatura máxima	20.9
19135	7	Sololá	710	Panajachel	8	Panajachel	2	Febrero	2023-11-02T00:00:00	2024-11-08T09:00:00	3	Temperatura mínima	19.4
19136	7	Sololá	710	Panajachel	8	Panajachel	2	Febrero	2023-11-02T00:00:00	2024-11-08T09:00:00	5	Humedad	45
19137	7	Sololá	710	Panajachel	8	Panajachel	2	Febrero	2023-11-02T00:00:00	2024-11-08T09:00:00	6	Velocidad del viento	9.7
19138	7	Sololá	710	Panajachel	8	Panajachel	2	Febrero	2023-11-02T00:00:00	2024-11-08T09:00:00	7	Dirección del viento	9.66
19139	7	Sololá	710	Panajachel	8	Panajachel	2	Febrero	2023-11-02T00:00:00	2024-11-08T09:00:00	1	Precipitación	0
19140	7	Sololá	710	Panajachel	8	Panajachel	2	Febrero	2023-11-02T00:00:00	2024-11-08T09:00:00	8	Radiación solar	424
19141	7	Sololá	710	Panajachel	8	Panajachel	2	Febrero	2023-11-02T00:00:00	2024-11-08T10:00:00	2	Temperatura media	22.7
19142	7	Sololá	710	Panajachel	8	Panajachel	2	Febrero	2023-11-02T00:00:00	2024-11-08T10:00:00	4	Temperatura máxima	22.7
19143	7	Sololá	710	Panajachel	8	Panajachel	2	Febrero	2023-11-02T00:00:00	2024-11-08T10:00:00	3	Temperatura mínima	20.9
19144	7	Sololá	710	Panajachel	8	Panajachel	2	Febrero	2023-11-02T00:00:00	2024-11-08T10:00:00	5	Humedad	43
19145	7	Sololá	710	Panajachel	8	Panajachel	2	Febrero	2023-11-02T00:00:00	2024-11-08T10:00:00	6	Velocidad del viento	11.3
19146	7	Sololá	710	Panajachel	8	Panajachel	2	Febrero	2023-11-02T00:00:00	2024-11-08T10:00:00	7	Dirección del viento	11.27
19147	7	Sololá	710	Panajachel	8	Panajachel	2	Febrero	2023-11-02T00:00:00	2024-11-08T10:00:00	1	Precipitación	0
19148	7	Sololá	710	Panajachel	8	Panajachel	2	Febrero	2023-11-02T00:00:00	2024-11-08T10:00:00	8	Radiación solar	630
19149	7	Sololá	710	Panajachel	8	Panajachel	2	Febrero	2023-11-02T00:00:00	2024-11-08T11:00:00	2	Temperatura media	23.4
19150	7	Sololá	710	Panajachel	8	Panajachel	2	Febrero	2023-11-02T00:00:00	2024-11-08T11:00:00	4	Temperatura máxima	23.5
19151	7	Sololá	710	Panajachel	8	Panajachel	2	Febrero	2023-11-02T00:00:00	2024-11-08T11:00:00	3	Temperatura mínima	22.6
19152	7	Sololá	710	Panajachel	8	Panajachel	2	Febrero	2023-11-02T00:00:00	2024-11-08T11:00:00	5	Humedad	43
19153	7	Sololá	710	Panajachel	8	Panajachel	2	Febrero	2023-11-02T00:00:00	2024-11-08T11:00:00	6	Velocidad del viento	12.9
19154	7	Sololá	710	Panajachel	8	Panajachel	2	Febrero	2023-11-02T00:00:00	2024-11-08T11:00:00	7	Dirección del viento	12.87
19155	7	Sololá	710	Panajachel	8	Panajachel	2	Febrero	2023-11-02T00:00:00	2024-11-08T11:00:00	1	Precipitación	0
19156	7	Sololá	710	Panajachel	8	Panajachel	2	Febrero	2023-11-02T00:00:00	2024-11-08T11:00:00	8	Radiación solar	787
19157	7	Sololá	710	Panajachel	8	Panajachel	2	Febrero	2023-11-02T00:00:00	2024-11-08T12:00:00	2	Temperatura media	24.6
19158	7	Sololá	710	Panajachel	8	Panajachel	2	Febrero	2023-11-02T00:00:00	2024-11-08T12:00:00	4	Temperatura máxima	24.7
19159	7	Sololá	710	Panajachel	8	Panajachel	2	Febrero	2023-11-02T00:00:00	2024-11-08T12:00:00	3	Temperatura mínima	23.4
19160	7	Sololá	710	Panajachel	8	Panajachel	2	Febrero	2023-11-02T00:00:00	2024-11-08T12:00:00	5	Humedad	38
19161	7	Sololá	710	Panajachel	8	Panajachel	2	Febrero	2023-11-02T00:00:00	2024-11-08T12:00:00	6	Velocidad del viento	14.5
19162	7	Sololá	710	Panajachel	8	Panajachel	2	Febrero	2023-11-02T00:00:00	2024-11-08T12:00:00	7	Dirección del viento	14.48
19163	7	Sololá	710	Panajachel	8	Panajachel	2	Febrero	2023-11-02T00:00:00	2024-11-08T12:00:00	1	Precipitación	0
19164	7	Sololá	710	Panajachel	8	Panajachel	2	Febrero	2023-11-02T00:00:00	2024-11-08T12:00:00	8	Radiación solar	879
19165	7	Sololá	710	Panajachel	8	Panajachel	2	Febrero	2023-11-02T00:00:00	2024-11-08T13:00:00	2	Temperatura media	25.1
19166	7	Sololá	710	Panajachel	8	Panajachel	2	Febrero	2023-11-02T00:00:00	2024-11-08T13:00:00	4	Temperatura máxima	25.6
19167	7	Sololá	710	Panajachel	8	Panajachel	2	Febrero	2023-11-02T00:00:00	2024-11-08T13:00:00	3	Temperatura mínima	24.5
19168	7	Sololá	710	Panajachel	8	Panajachel	2	Febrero	2023-11-02T00:00:00	2024-11-08T13:00:00	5	Humedad	41
19169	7	Sololá	710	Panajachel	8	Panajachel	2	Febrero	2023-11-02T00:00:00	2024-11-08T13:00:00	6	Velocidad del viento	9.7
19170	7	Sololá	710	Panajachel	8	Panajachel	2	Febrero	2023-11-02T00:00:00	2024-11-08T13:00:00	7	Dirección del viento	9.66
19171	7	Sololá	710	Panajachel	8	Panajachel	2	Febrero	2023-11-02T00:00:00	2024-11-08T13:00:00	1	Precipitación	0
19172	7	Sololá	710	Panajachel	8	Panajachel	2	Febrero	2023-11-02T00:00:00	2024-11-08T13:00:00	8	Radiación solar	902
19173	7	Sololá	710	Panajachel	8	Panajachel	2	Febrero	2023-11-02T00:00:00	2024-11-08T14:00:00	2	Temperatura media	25.1
19174	7	Sololá	710	Panajachel	8	Panajachel	2	Febrero	2023-11-02T00:00:00	2024-11-08T14:00:00	4	Temperatura máxima	25.7
19175	7	Sololá	710	Panajachel	8	Panajachel	2	Febrero	2023-11-02T00:00:00	2024-11-08T14:00:00	3	Temperatura mínima	24.9
19176	7	Sololá	710	Panajachel	8	Panajachel	2	Febrero	2023-11-02T00:00:00	2024-11-08T14:00:00	5	Humedad	43
19177	7	Sololá	710	Panajachel	8	Panajachel	2	Febrero	2023-11-02T00:00:00	2024-11-08T14:00:00	6	Velocidad del viento	9.7
19178	7	Sololá	710	Panajachel	8	Panajachel	2	Febrero	2023-11-02T00:00:00	2024-11-08T14:00:00	7	Dirección del viento	9.66
19179	7	Sololá	710	Panajachel	8	Panajachel	2	Febrero	2023-11-02T00:00:00	2024-11-08T14:00:00	1	Precipitación	0
19180	7	Sololá	710	Panajachel	8	Panajachel	2	Febrero	2023-11-02T00:00:00	2024-11-08T14:00:00	8	Radiación solar	844
19181	7	Sololá	710	Panajachel	8	Panajachel	2	Febrero	2023-11-02T00:00:00	2024-11-08T15:00:00	2	Temperatura media	24.9
19182	7	Sololá	710	Panajachel	8	Panajachel	2	Febrero	2023-11-02T00:00:00	2024-11-08T15:00:00	4	Temperatura máxima	25.3
19183	7	Sololá	710	Panajachel	8	Panajachel	2	Febrero	2023-11-02T00:00:00	2024-11-08T15:00:00	3	Temperatura mínima	24.5
19184	7	Sololá	710	Panajachel	8	Panajachel	2	Febrero	2023-11-02T00:00:00	2024-11-08T15:00:00	5	Humedad	44
19185	7	Sololá	710	Panajachel	8	Panajachel	2	Febrero	2023-11-02T00:00:00	2024-11-08T15:00:00	6	Velocidad del viento	11.3
19186	7	Sololá	710	Panajachel	8	Panajachel	2	Febrero	2023-11-02T00:00:00	2024-11-08T15:00:00	7	Dirección del viento	11.27
19187	7	Sololá	710	Panajachel	8	Panajachel	2	Febrero	2023-11-02T00:00:00	2024-11-08T15:00:00	1	Precipitación	0
19188	7	Sololá	710	Panajachel	8	Panajachel	2	Febrero	2023-11-02T00:00:00	2024-11-08T15:00:00	8	Radiación solar	726
19189	7	Sololá	710	Panajachel	8	Panajachel	2	Febrero	2023-11-02T00:00:00	2024-11-08T16:00:00	2	Temperatura media	24.1
19190	7	Sololá	710	Panajachel	8	Panajachel	2	Febrero	2023-11-02T00:00:00	2024-11-08T16:00:00	4	Temperatura máxima	25.1
19191	7	Sololá	710	Panajachel	8	Panajachel	2	Febrero	2023-11-02T00:00:00	2024-11-08T16:00:00	3	Temperatura mínima	24.1
19192	7	Sololá	710	Panajachel	8	Panajachel	2	Febrero	2023-11-02T00:00:00	2024-11-08T16:00:00	5	Humedad	44
19193	7	Sololá	710	Panajachel	8	Panajachel	2	Febrero	2023-11-02T00:00:00	2024-11-08T16:00:00	6	Velocidad del viento	11.3
19194	7	Sololá	710	Panajachel	8	Panajachel	2	Febrero	2023-11-02T00:00:00	2024-11-08T16:00:00	7	Dirección del viento	11.27
19195	7	Sololá	710	Panajachel	8	Panajachel	2	Febrero	2023-11-02T00:00:00	2024-11-08T16:00:00	1	Precipitación	0
19196	7	Sololá	710	Panajachel	8	Panajachel	2	Febrero	2023-11-02T00:00:00	2024-11-08T16:00:00	8	Radiación solar	559
19197	7	Sololá	710	Panajachel	8	Panajachel	2	Febrero	2023-11-02T00:00:00	2024-11-08T17:00:00	2	Temperatura media	22.3
19198	7	Sololá	710	Panajachel	8	Panajachel	2	Febrero	2023-11-02T00:00:00	2024-11-08T17:00:00	4	Temperatura máxima	24.1
19199	7	Sololá	710	Panajachel	8	Panajachel	2	Febrero	2023-11-02T00:00:00	2024-11-08T17:00:00	3	Temperatura mínima	22.3
19200	7	Sololá	710	Panajachel	8	Panajachel	2	Febrero	2023-11-02T00:00:00	2024-11-08T17:00:00	5	Humedad	51
19201	7	Sololá	710	Panajachel	8	Panajachel	2	Febrero	2023-11-02T00:00:00	2024-11-08T17:00:00	6	Velocidad del viento	9.7
19202	7	Sololá	710	Panajachel	8	Panajachel	2	Febrero	2023-11-02T00:00:00	2024-11-08T17:00:00	7	Dirección del viento	9.66
19203	7	Sololá	710	Panajachel	8	Panajachel	2	Febrero	2023-11-02T00:00:00	2024-11-08T17:00:00	1	Precipitación	0
19204	7	Sololá	710	Panajachel	8	Panajachel	2	Febrero	2023-11-02T00:00:00	2024-11-08T17:00:00	8	Radiación solar	261
19205	7	Sololá	710	Panajachel	8	Panajachel	2	Febrero	2023-11-02T00:00:00	2024-11-08T18:00:00	2	Temperatura media	20.8
19206	7	Sololá	710	Panajachel	8	Panajachel	2	Febrero	2023-11-02T00:00:00	2024-11-08T18:00:00	4	Temperatura máxima	22.3
19207	7	Sololá	710	Panajachel	8	Panajachel	2	Febrero	2023-11-02T00:00:00	2024-11-08T18:00:00	3	Temperatura mínima	20.8
19208	7	Sololá	710	Panajachel	8	Panajachel	2	Febrero	2023-11-02T00:00:00	2024-11-08T18:00:00	5	Humedad	57
19209	7	Sololá	710	Panajachel	8	Panajachel	2	Febrero	2023-11-02T00:00:00	2024-11-08T18:00:00	6	Velocidad del viento	9.7
19210	7	Sololá	710	Panajachel	8	Panajachel	2	Febrero	2023-11-02T00:00:00	2024-11-08T18:00:00	7	Dirección del viento	9.66
19211	7	Sololá	710	Panajachel	8	Panajachel	2	Febrero	2023-11-02T00:00:00	2024-11-08T18:00:00	1	Precipitación	0
19212	7	Sololá	710	Panajachel	8	Panajachel	2	Febrero	2023-11-02T00:00:00	2024-11-08T18:00:00	8	Radiación solar	88
19213	7	Sololá	710	Panajachel	8	Panajachel	2	Febrero	2023-11-02T00:00:00	2024-11-08T19:00:00	2	Temperatura media	19.8
19214	7	Sololá	710	Panajachel	8	Panajachel	2	Febrero	2023-11-02T00:00:00	2024-11-08T19:00:00	4	Temperatura máxima	20.8
19215	7	Sololá	710	Panajachel	8	Panajachel	2	Febrero	2023-11-02T00:00:00	2024-11-08T19:00:00	3	Temperatura mínima	19.8
19216	7	Sololá	710	Panajachel	8	Panajachel	2	Febrero	2023-11-02T00:00:00	2024-11-08T19:00:00	5	Humedad	63
19217	7	Sololá	710	Panajachel	8	Panajachel	2	Febrero	2023-11-02T00:00:00	2024-11-08T19:00:00	6	Velocidad del viento	6.4
19218	7	Sololá	710	Panajachel	8	Panajachel	2	Febrero	2023-11-02T00:00:00	2024-11-08T19:00:00	7	Dirección del viento	6.44
19219	7	Sololá	710	Panajachel	8	Panajachel	2	Febrero	2023-11-02T00:00:00	2024-11-08T19:00:00	1	Precipitación	0
19220	7	Sololá	710	Panajachel	8	Panajachel	2	Febrero	2023-11-02T00:00:00	2024-11-08T19:00:00	8	Radiación solar	0
19221	7	Sololá	710	Panajachel	8	Panajachel	2	Febrero	2023-11-02T00:00:00	2024-11-08T20:00:00	2	Temperatura media	18.9
19222	7	Sololá	710	Panajachel	8	Panajachel	2	Febrero	2023-11-02T00:00:00	2024-11-08T20:00:00	4	Temperatura máxima	19.8
19223	7	Sololá	710	Panajachel	8	Panajachel	2	Febrero	2023-11-02T00:00:00	2024-11-08T20:00:00	3	Temperatura mínima	18.9
19224	7	Sololá	710	Panajachel	8	Panajachel	2	Febrero	2023-11-02T00:00:00	2024-11-08T20:00:00	5	Humedad	69
19225	7	Sololá	710	Panajachel	8	Panajachel	2	Febrero	2023-11-02T00:00:00	2024-11-08T20:00:00	6	Velocidad del viento	6.4
19226	7	Sololá	710	Panajachel	8	Panajachel	2	Febrero	2023-11-02T00:00:00	2024-11-08T20:00:00	7	Dirección del viento	6.44
19227	7	Sololá	710	Panajachel	8	Panajachel	2	Febrero	2023-11-02T00:00:00	2024-11-08T20:00:00	1	Precipitación	0
19228	7	Sololá	710	Panajachel	8	Panajachel	2	Febrero	2023-11-02T00:00:00	2024-11-08T20:00:00	8	Radiación solar	0
19229	7	Sololá	710	Panajachel	8	Panajachel	2	Febrero	2023-11-02T00:00:00	2024-11-08T21:00:00	2	Temperatura media	18.7
19230	7	Sololá	710	Panajachel	8	Panajachel	2	Febrero	2023-11-02T00:00:00	2024-11-08T21:00:00	4	Temperatura máxima	18.9
19231	7	Sololá	710	Panajachel	8	Panajachel	2	Febrero	2023-11-02T00:00:00	2024-11-08T21:00:00	3	Temperatura mínima	18.6
19232	7	Sololá	710	Panajachel	8	Panajachel	2	Febrero	2023-11-02T00:00:00	2024-11-08T21:00:00	5	Humedad	72
19233	7	Sololá	710	Panajachel	8	Panajachel	2	Febrero	2023-11-02T00:00:00	2024-11-08T21:00:00	6	Velocidad del viento	6.4
19234	7	Sololá	710	Panajachel	8	Panajachel	2	Febrero	2023-11-02T00:00:00	2024-11-08T21:00:00	7	Dirección del viento	6.44
19235	7	Sololá	710	Panajachel	8	Panajachel	2	Febrero	2023-11-02T00:00:00	2024-11-08T21:00:00	1	Precipitación	0
19236	7	Sololá	710	Panajachel	8	Panajachel	2	Febrero	2023-11-02T00:00:00	2024-11-08T21:00:00	8	Radiación solar	0
19237	7	Sololá	710	Panajachel	8	Panajachel	2	Febrero	2023-11-02T00:00:00	2024-11-08T22:00:00	2	Temperatura media	18.7
19238	7	Sololá	710	Panajachel	8	Panajachel	2	Febrero	2023-11-02T00:00:00	2024-11-08T22:00:00	4	Temperatura máxima	18.8
19239	7	Sololá	710	Panajachel	8	Panajachel	2	Febrero	2023-11-02T00:00:00	2024-11-08T22:00:00	3	Temperatura mínima	18.6
19240	7	Sololá	710	Panajachel	8	Panajachel	2	Febrero	2023-11-02T00:00:00	2024-11-08T22:00:00	5	Humedad	72
19241	7	Sololá	710	Panajachel	8	Panajachel	2	Febrero	2023-11-02T00:00:00	2024-11-08T22:00:00	6	Velocidad del viento	8
19242	7	Sololá	710	Panajachel	8	Panajachel	2	Febrero	2023-11-02T00:00:00	2024-11-08T22:00:00	7	Dirección del viento	8.05
19243	7	Sololá	710	Panajachel	8	Panajachel	2	Febrero	2023-11-02T00:00:00	2024-11-08T22:00:00	1	Precipitación	0
19244	7	Sololá	710	Panajachel	8	Panajachel	2	Febrero	2023-11-02T00:00:00	2024-11-08T22:00:00	8	Radiación solar	0
19245	7	Sololá	710	Panajachel	8	Panajachel	2	Febrero	2023-11-02T00:00:00	2024-11-08T23:00:00	2	Temperatura media	18.4
19246	7	Sololá	710	Panajachel	8	Panajachel	2	Febrero	2023-11-02T00:00:00	2024-11-08T23:00:00	4	Temperatura máxima	18.7
19247	7	Sololá	710	Panajachel	8	Panajachel	2	Febrero	2023-11-02T00:00:00	2024-11-08T23:00:00	3	Temperatura mínima	18.4
19248	7	Sololá	710	Panajachel	8	Panajachel	2	Febrero	2023-11-02T00:00:00	2024-11-08T23:00:00	5	Humedad	71
19249	7	Sololá	710	Panajachel	8	Panajachel	2	Febrero	2023-11-02T00:00:00	2024-11-08T23:00:00	6	Velocidad del viento	9.7
19250	7	Sololá	710	Panajachel	8	Panajachel	2	Febrero	2023-11-02T00:00:00	2024-11-08T23:00:00	7	Dirección del viento	9.66
19251	7	Sololá	710	Panajachel	8	Panajachel	2	Febrero	2023-11-02T00:00:00	2024-11-08T23:00:00	1	Precipitación	0
19252	7	Sololá	710	Panajachel	8	Panajachel	2	Febrero	2023-11-02T00:00:00	2024-11-08T23:00:00	8	Radiación solar	0
19253	7	Sololá	710	Panajachel	8	Panajachel	2	Febrero	2023-12-02T00:00:00	2024-11-08T00:00:00	2	Temperatura media	18.2
19254	7	Sololá	710	Panajachel	8	Panajachel	2	Febrero	2023-12-02T00:00:00	2024-11-08T00:00:00	4	Temperatura máxima	18.4
19255	7	Sololá	710	Panajachel	8	Panajachel	2	Febrero	2023-12-02T00:00:00	2024-11-08T00:00:00	3	Temperatura mínima	18.2
19256	7	Sololá	710	Panajachel	8	Panajachel	2	Febrero	2023-12-02T00:00:00	2024-11-08T00:00:00	5	Humedad	71
19257	7	Sololá	710	Panajachel	8	Panajachel	2	Febrero	2023-12-02T00:00:00	2024-11-08T00:00:00	6	Velocidad del viento	8
19258	7	Sololá	710	Panajachel	8	Panajachel	2	Febrero	2023-12-02T00:00:00	2024-11-08T00:00:00	7	Dirección del viento	8.05
19259	7	Sololá	710	Panajachel	8	Panajachel	2	Febrero	2023-12-02T00:00:00	2024-11-08T00:00:00	1	Precipitación	0
19260	7	Sololá	710	Panajachel	8	Panajachel	2	Febrero	2023-12-02T00:00:00	2024-11-08T00:00:00	8	Radiación solar	0
19261	7	Sololá	710	Panajachel	8	Panajachel	2	Febrero	2023-12-02T00:00:00	2024-11-08T01:00:00	2	Temperatura media	17.6
19262	7	Sololá	710	Panajachel	8	Panajachel	2	Febrero	2023-12-02T00:00:00	2024-11-08T01:00:00	4	Temperatura máxima	18.2
19263	7	Sololá	710	Panajachel	8	Panajachel	2	Febrero	2023-12-02T00:00:00	2024-11-08T01:00:00	3	Temperatura mínima	17.5
19264	7	Sololá	710	Panajachel	8	Panajachel	2	Febrero	2023-12-02T00:00:00	2024-11-08T01:00:00	5	Humedad	71
19265	7	Sololá	710	Panajachel	8	Panajachel	2	Febrero	2023-12-02T00:00:00	2024-11-08T01:00:00	6	Velocidad del viento	9.7
19266	7	Sololá	710	Panajachel	8	Panajachel	2	Febrero	2023-12-02T00:00:00	2024-11-08T01:00:00	7	Dirección del viento	9.66
19267	7	Sololá	710	Panajachel	8	Panajachel	2	Febrero	2023-12-02T00:00:00	2024-11-08T01:00:00	1	Precipitación	0
19268	7	Sololá	710	Panajachel	8	Panajachel	2	Febrero	2023-12-02T00:00:00	2024-11-08T01:00:00	8	Radiación solar	0
19269	7	Sololá	710	Panajachel	8	Panajachel	2	Febrero	2023-12-02T00:00:00	2024-11-08T02:00:00	2	Temperatura media	17.2
19270	7	Sololá	710	Panajachel	8	Panajachel	2	Febrero	2023-12-02T00:00:00	2024-11-08T02:00:00	4	Temperatura máxima	17.6
19271	7	Sololá	710	Panajachel	8	Panajachel	2	Febrero	2023-12-02T00:00:00	2024-11-08T02:00:00	3	Temperatura mínima	17.2
19272	7	Sololá	710	Panajachel	8	Panajachel	2	Febrero	2023-12-02T00:00:00	2024-11-08T02:00:00	5	Humedad	71
19273	7	Sololá	710	Panajachel	8	Panajachel	2	Febrero	2023-12-02T00:00:00	2024-11-08T02:00:00	6	Velocidad del viento	4.8
19274	7	Sololá	710	Panajachel	8	Panajachel	2	Febrero	2023-12-02T00:00:00	2024-11-08T02:00:00	7	Dirección del viento	4.83
19275	7	Sololá	710	Panajachel	8	Panajachel	2	Febrero	2023-12-02T00:00:00	2024-11-08T02:00:00	1	Precipitación	0
19276	7	Sololá	710	Panajachel	8	Panajachel	2	Febrero	2023-12-02T00:00:00	2024-11-08T02:00:00	8	Radiación solar	0
19277	7	Sololá	710	Panajachel	8	Panajachel	2	Febrero	2023-12-02T00:00:00	2024-11-08T03:00:00	2	Temperatura media	16.7
19278	7	Sololá	710	Panajachel	8	Panajachel	2	Febrero	2023-12-02T00:00:00	2024-11-08T03:00:00	4	Temperatura máxima	17.3
19279	7	Sololá	710	Panajachel	8	Panajachel	2	Febrero	2023-12-02T00:00:00	2024-11-08T03:00:00	3	Temperatura mínima	16.7
19280	7	Sololá	710	Panajachel	8	Panajachel	2	Febrero	2023-12-02T00:00:00	2024-11-08T03:00:00	5	Humedad	70
19281	7	Sololá	710	Panajachel	8	Panajachel	2	Febrero	2023-12-02T00:00:00	2024-11-08T03:00:00	6	Velocidad del viento	6.4
19282	7	Sololá	710	Panajachel	8	Panajachel	2	Febrero	2023-12-02T00:00:00	2024-11-08T03:00:00	7	Dirección del viento	6.44
19283	7	Sololá	710	Panajachel	8	Panajachel	2	Febrero	2023-12-02T00:00:00	2024-11-08T03:00:00	1	Precipitación	0
19284	7	Sololá	710	Panajachel	8	Panajachel	2	Febrero	2023-12-02T00:00:00	2024-11-08T03:00:00	8	Radiación solar	0
19285	7	Sololá	710	Panajachel	8	Panajachel	2	Febrero	2023-12-02T00:00:00	2024-11-08T04:00:00	2	Temperatura media	16.4
19286	7	Sololá	710	Panajachel	8	Panajachel	2	Febrero	2023-12-02T00:00:00	2024-11-08T04:00:00	4	Temperatura máxima	16.8
19287	7	Sololá	710	Panajachel	8	Panajachel	2	Febrero	2023-12-02T00:00:00	2024-11-08T04:00:00	3	Temperatura mínima	16.4
19288	7	Sololá	710	Panajachel	8	Panajachel	2	Febrero	2023-12-02T00:00:00	2024-11-08T04:00:00	5	Humedad	70
19289	7	Sololá	710	Panajachel	8	Panajachel	2	Febrero	2023-12-02T00:00:00	2024-11-08T04:00:00	6	Velocidad del viento	16.1
19290	7	Sololá	710	Panajachel	8	Panajachel	2	Febrero	2023-12-02T00:00:00	2024-11-08T04:00:00	7	Dirección del viento	16.09
19291	7	Sololá	710	Panajachel	8	Panajachel	2	Febrero	2023-12-02T00:00:00	2024-11-08T04:00:00	1	Precipitación	0
19292	7	Sololá	710	Panajachel	8	Panajachel	2	Febrero	2023-12-02T00:00:00	2024-11-08T04:00:00	8	Radiación solar	0
19293	7	Sololá	710	Panajachel	8	Panajachel	2	Febrero	2023-12-02T00:00:00	2024-11-08T05:00:00	2	Temperatura media	16.4
19294	7	Sololá	710	Panajachel	8	Panajachel	2	Febrero	2023-12-02T00:00:00	2024-11-08T05:00:00	4	Temperatura máxima	16.6
19295	7	Sololá	710	Panajachel	8	Panajachel	2	Febrero	2023-12-02T00:00:00	2024-11-08T05:00:00	3	Temperatura mínima	16.4
19296	7	Sololá	710	Panajachel	8	Panajachel	2	Febrero	2023-12-02T00:00:00	2024-11-08T05:00:00	5	Humedad	69
19297	7	Sololá	710	Panajachel	8	Panajachel	2	Febrero	2023-12-02T00:00:00	2024-11-08T05:00:00	6	Velocidad del viento	17.7
19298	7	Sololá	710	Panajachel	8	Panajachel	2	Febrero	2023-12-02T00:00:00	2024-11-08T05:00:00	7	Dirección del viento	17.7
19299	7	Sololá	710	Panajachel	8	Panajachel	2	Febrero	2023-12-02T00:00:00	2024-11-08T05:00:00	1	Precipitación	0
19300	7	Sololá	710	Panajachel	8	Panajachel	2	Febrero	2023-12-02T00:00:00	2024-11-08T05:00:00	8	Radiación solar	0
19301	7	Sololá	710	Panajachel	8	Panajachel	2	Febrero	2023-12-02T00:00:00	2024-11-08T06:00:00	2	Temperatura media	16.7
19302	7	Sololá	710	Panajachel	8	Panajachel	2	Febrero	2023-12-02T00:00:00	2024-11-08T06:00:00	4	Temperatura máxima	16.8
19303	7	Sololá	710	Panajachel	8	Panajachel	2	Febrero	2023-12-02T00:00:00	2024-11-08T06:00:00	3	Temperatura mínima	16.3
19304	7	Sololá	710	Panajachel	8	Panajachel	2	Febrero	2023-12-02T00:00:00	2024-11-08T06:00:00	5	Humedad	66
19305	7	Sololá	710	Panajachel	8	Panajachel	2	Febrero	2023-12-02T00:00:00	2024-11-08T06:00:00	6	Velocidad del viento	12.9
19306	7	Sololá	710	Panajachel	8	Panajachel	2	Febrero	2023-12-02T00:00:00	2024-11-08T06:00:00	7	Dirección del viento	12.87
19307	7	Sololá	710	Panajachel	8	Panajachel	2	Febrero	2023-12-02T00:00:00	2024-11-08T06:00:00	1	Precipitación	0
19308	7	Sololá	710	Panajachel	8	Panajachel	2	Febrero	2023-12-02T00:00:00	2024-11-08T06:00:00	8	Radiación solar	0
19309	7	Sololá	710	Panajachel	8	Panajachel	2	Febrero	2023-12-02T00:00:00	2024-11-08T07:00:00	2	Temperatura media	16.9
19310	7	Sololá	710	Panajachel	8	Panajachel	2	Febrero	2023-12-02T00:00:00	2024-11-08T07:00:00	4	Temperatura máxima	16.9
19311	7	Sololá	710	Panajachel	8	Panajachel	2	Febrero	2023-12-02T00:00:00	2024-11-08T07:00:00	3	Temperatura mínima	16.6
19312	7	Sololá	710	Panajachel	8	Panajachel	2	Febrero	2023-12-02T00:00:00	2024-11-08T07:00:00	5	Humedad	64
19313	7	Sololá	710	Panajachel	8	Panajachel	2	Febrero	2023-12-02T00:00:00	2024-11-08T07:00:00	6	Velocidad del viento	14.5
19314	7	Sololá	710	Panajachel	8	Panajachel	2	Febrero	2023-12-02T00:00:00	2024-11-08T07:00:00	7	Dirección del viento	14.48
19315	7	Sololá	710	Panajachel	8	Panajachel	2	Febrero	2023-12-02T00:00:00	2024-11-08T07:00:00	1	Precipitación	0
19316	7	Sololá	710	Panajachel	8	Panajachel	2	Febrero	2023-12-02T00:00:00	2024-11-08T07:00:00	8	Radiación solar	4
19317	7	Sololá	710	Panajachel	8	Panajachel	2	Febrero	2023-12-02T00:00:00	2024-11-08T08:00:00	2	Temperatura media	18.8
19318	7	Sololá	710	Panajachel	8	Panajachel	2	Febrero	2023-12-02T00:00:00	2024-11-08T08:00:00	4	Temperatura máxima	18.8
19319	7	Sololá	710	Panajachel	8	Panajachel	2	Febrero	2023-12-02T00:00:00	2024-11-08T08:00:00	3	Temperatura mínima	16.8
19320	7	Sololá	710	Panajachel	8	Panajachel	2	Febrero	2023-12-02T00:00:00	2024-11-08T08:00:00	5	Humedad	58
19321	7	Sololá	710	Panajachel	8	Panajachel	2	Febrero	2023-12-02T00:00:00	2024-11-08T08:00:00	6	Velocidad del viento	14.5
19322	7	Sololá	710	Panajachel	8	Panajachel	2	Febrero	2023-12-02T00:00:00	2024-11-08T08:00:00	7	Dirección del viento	14.48
19323	7	Sololá	710	Panajachel	8	Panajachel	2	Febrero	2023-12-02T00:00:00	2024-11-08T08:00:00	1	Precipitación	0
19324	7	Sololá	710	Panajachel	8	Panajachel	2	Febrero	2023-12-02T00:00:00	2024-11-08T08:00:00	8	Radiación solar	109
19325	7	Sololá	710	Panajachel	8	Panajachel	2	Febrero	2023-12-02T00:00:00	2024-11-08T09:00:00	2	Temperatura media	20
19326	7	Sololá	710	Panajachel	8	Panajachel	2	Febrero	2023-12-02T00:00:00	2024-11-08T09:00:00	4	Temperatura máxima	20
19327	7	Sololá	710	Panajachel	8	Panajachel	2	Febrero	2023-12-02T00:00:00	2024-11-08T09:00:00	3	Temperatura mínima	18.8
19328	7	Sololá	710	Panajachel	8	Panajachel	2	Febrero	2023-12-02T00:00:00	2024-11-08T09:00:00	5	Humedad	55
19329	7	Sololá	710	Panajachel	8	Panajachel	2	Febrero	2023-12-02T00:00:00	2024-11-08T09:00:00	6	Velocidad del viento	12.9
19330	7	Sololá	710	Panajachel	8	Panajachel	2	Febrero	2023-12-02T00:00:00	2024-11-08T09:00:00	7	Dirección del viento	12.87
19331	7	Sololá	710	Panajachel	8	Panajachel	2	Febrero	2023-12-02T00:00:00	2024-11-08T09:00:00	1	Precipitación	0
19332	7	Sololá	710	Panajachel	8	Panajachel	2	Febrero	2023-12-02T00:00:00	2024-11-08T09:00:00	8	Radiación solar	412
19333	7	Sololá	710	Panajachel	8	Panajachel	2	Febrero	2023-12-02T00:00:00	2024-11-08T10:00:00	2	Temperatura media	21.1
19334	7	Sololá	710	Panajachel	8	Panajachel	2	Febrero	2023-12-02T00:00:00	2024-11-08T10:00:00	4	Temperatura máxima	21.1
19335	7	Sololá	710	Panajachel	8	Panajachel	2	Febrero	2023-12-02T00:00:00	2024-11-08T10:00:00	3	Temperatura mínima	19.9
19336	7	Sololá	710	Panajachel	8	Panajachel	2	Febrero	2023-12-02T00:00:00	2024-11-08T10:00:00	5	Humedad	55
19337	7	Sololá	710	Panajachel	8	Panajachel	2	Febrero	2023-12-02T00:00:00	2024-11-08T10:00:00	6	Velocidad del viento	16.1
19338	7	Sololá	710	Panajachel	8	Panajachel	2	Febrero	2023-12-02T00:00:00	2024-11-08T10:00:00	7	Dirección del viento	16.09
19339	7	Sololá	710	Panajachel	8	Panajachel	2	Febrero	2023-12-02T00:00:00	2024-11-08T10:00:00	1	Precipitación	0
19340	7	Sololá	710	Panajachel	8	Panajachel	2	Febrero	2023-12-02T00:00:00	2024-11-08T10:00:00	8	Radiación solar	617
19341	7	Sololá	710	Panajachel	8	Panajachel	2	Febrero	2023-12-02T00:00:00	2024-11-08T11:00:00	2	Temperatura media	22.2
19342	7	Sololá	710	Panajachel	8	Panajachel	2	Febrero	2023-12-02T00:00:00	2024-11-08T11:00:00	4	Temperatura máxima	22.2
19343	7	Sololá	710	Panajachel	8	Panajachel	2	Febrero	2023-12-02T00:00:00	2024-11-08T11:00:00	3	Temperatura mínima	20.9
19344	7	Sololá	710	Panajachel	8	Panajachel	2	Febrero	2023-12-02T00:00:00	2024-11-08T11:00:00	5	Humedad	53
19345	7	Sololá	710	Panajachel	8	Panajachel	2	Febrero	2023-12-02T00:00:00	2024-11-08T11:00:00	6	Velocidad del viento	16.1
19346	7	Sololá	710	Panajachel	8	Panajachel	2	Febrero	2023-12-02T00:00:00	2024-11-08T11:00:00	7	Dirección del viento	16.09
19347	7	Sololá	710	Panajachel	8	Panajachel	2	Febrero	2023-12-02T00:00:00	2024-11-08T11:00:00	1	Precipitación	0
19348	7	Sololá	710	Panajachel	8	Panajachel	2	Febrero	2023-12-02T00:00:00	2024-11-08T11:00:00	8	Radiación solar	776
19349	7	Sololá	710	Panajachel	8	Panajachel	2	Febrero	2023-12-02T00:00:00	2024-11-08T12:00:00	2	Temperatura media	23.3
19350	7	Sololá	710	Panajachel	8	Panajachel	2	Febrero	2023-12-02T00:00:00	2024-11-08T12:00:00	4	Temperatura máxima	23.8
19351	7	Sololá	710	Panajachel	8	Panajachel	2	Febrero	2023-12-02T00:00:00	2024-11-08T12:00:00	3	Temperatura mínima	21.8
19352	7	Sololá	710	Panajachel	8	Panajachel	2	Febrero	2023-12-02T00:00:00	2024-11-08T12:00:00	5	Humedad	49
19353	7	Sololá	710	Panajachel	8	Panajachel	2	Febrero	2023-12-02T00:00:00	2024-11-08T12:00:00	6	Velocidad del viento	14.5
19354	7	Sololá	710	Panajachel	8	Panajachel	2	Febrero	2023-12-02T00:00:00	2024-11-08T12:00:00	7	Dirección del viento	14.48
19355	7	Sololá	710	Panajachel	8	Panajachel	2	Febrero	2023-12-02T00:00:00	2024-11-08T12:00:00	1	Precipitación	0
19356	7	Sololá	710	Panajachel	8	Panajachel	2	Febrero	2023-12-02T00:00:00	2024-11-08T12:00:00	8	Radiación solar	871
19357	7	Sololá	710	Panajachel	8	Panajachel	2	Febrero	2023-12-02T00:00:00	2024-11-08T13:00:00	2	Temperatura media	24.4
19358	7	Sololá	710	Panajachel	8	Panajachel	2	Febrero	2023-12-02T00:00:00	2024-11-08T13:00:00	4	Temperatura máxima	24.4
19359	7	Sololá	710	Panajachel	8	Panajachel	2	Febrero	2023-12-02T00:00:00	2024-11-08T13:00:00	3	Temperatura mínima	23.2
19360	7	Sololá	710	Panajachel	8	Panajachel	2	Febrero	2023-12-02T00:00:00	2024-11-08T13:00:00	5	Humedad	47
19361	7	Sololá	710	Panajachel	8	Panajachel	2	Febrero	2023-12-02T00:00:00	2024-11-08T13:00:00	6	Velocidad del viento	14.5
19362	7	Sololá	710	Panajachel	8	Panajachel	2	Febrero	2023-12-02T00:00:00	2024-11-08T13:00:00	7	Dirección del viento	14.48
19363	7	Sololá	710	Panajachel	8	Panajachel	2	Febrero	2023-12-02T00:00:00	2024-11-08T13:00:00	1	Precipitación	0
19364	7	Sololá	710	Panajachel	8	Panajachel	2	Febrero	2023-12-02T00:00:00	2024-11-08T13:00:00	8	Radiación solar	893
19365	7	Sololá	710	Panajachel	8	Panajachel	2	Febrero	2023-12-02T00:00:00	2024-11-08T14:00:00	2	Temperatura media	25.3
19366	7	Sololá	710	Panajachel	8	Panajachel	2	Febrero	2023-12-02T00:00:00	2024-11-08T14:00:00	4	Temperatura máxima	25.3
19367	7	Sololá	710	Panajachel	8	Panajachel	2	Febrero	2023-12-02T00:00:00	2024-11-08T14:00:00	3	Temperatura mínima	24.1
19368	7	Sololá	710	Panajachel	8	Panajachel	2	Febrero	2023-12-02T00:00:00	2024-11-08T14:00:00	5	Humedad	44
19369	7	Sololá	710	Panajachel	8	Panajachel	2	Febrero	2023-12-02T00:00:00	2024-11-08T14:00:00	6	Velocidad del viento	9.7
19370	7	Sololá	710	Panajachel	8	Panajachel	2	Febrero	2023-12-02T00:00:00	2024-11-08T14:00:00	7	Dirección del viento	9.66
19371	7	Sololá	710	Panajachel	8	Panajachel	2	Febrero	2023-12-02T00:00:00	2024-11-08T14:00:00	1	Precipitación	0
19372	7	Sololá	710	Panajachel	8	Panajachel	2	Febrero	2023-12-02T00:00:00	2024-11-08T14:00:00	8	Radiación solar	845
19373	7	Sololá	710	Panajachel	8	Panajachel	2	Febrero	2023-12-02T00:00:00	2024-11-08T15:00:00	2	Temperatura media	25.1
19374	7	Sololá	710	Panajachel	8	Panajachel	2	Febrero	2023-12-02T00:00:00	2024-11-08T15:00:00	4	Temperatura máxima	25.8
19375	7	Sololá	710	Panajachel	8	Panajachel	2	Febrero	2023-12-02T00:00:00	2024-11-08T15:00:00	3	Temperatura mínima	25.1
19376	7	Sololá	710	Panajachel	8	Panajachel	2	Febrero	2023-12-02T00:00:00	2024-11-08T15:00:00	5	Humedad	44
19377	7	Sololá	710	Panajachel	8	Panajachel	2	Febrero	2023-12-02T00:00:00	2024-11-08T15:00:00	6	Velocidad del viento	9.7
19378	7	Sololá	710	Panajachel	8	Panajachel	2	Febrero	2023-12-02T00:00:00	2024-11-08T15:00:00	7	Dirección del viento	9.66
19379	7	Sololá	710	Panajachel	8	Panajachel	2	Febrero	2023-12-02T00:00:00	2024-11-08T15:00:00	1	Precipitación	0
19380	7	Sololá	710	Panajachel	8	Panajachel	2	Febrero	2023-12-02T00:00:00	2024-11-08T15:00:00	8	Radiación solar	729
19381	7	Sololá	710	Panajachel	8	Panajachel	2	Febrero	2023-12-02T00:00:00	2024-11-08T16:00:00	2	Temperatura media	24.6
19382	7	Sololá	710	Panajachel	8	Panajachel	2	Febrero	2023-12-02T00:00:00	2024-11-08T16:00:00	4	Temperatura máxima	25.3
19383	7	Sololá	710	Panajachel	8	Panajachel	2	Febrero	2023-12-02T00:00:00	2024-11-08T16:00:00	3	Temperatura mínima	24.6
19384	7	Sololá	710	Panajachel	8	Panajachel	2	Febrero	2023-12-02T00:00:00	2024-11-08T16:00:00	5	Humedad	47
19385	7	Sololá	710	Panajachel	8	Panajachel	2	Febrero	2023-12-02T00:00:00	2024-11-08T16:00:00	6	Velocidad del viento	9.7
19386	7	Sololá	710	Panajachel	8	Panajachel	2	Febrero	2023-12-02T00:00:00	2024-11-08T16:00:00	7	Dirección del viento	9.66
19387	7	Sololá	710	Panajachel	8	Panajachel	2	Febrero	2023-12-02T00:00:00	2024-11-08T16:00:00	1	Precipitación	0
19388	7	Sololá	710	Panajachel	8	Panajachel	2	Febrero	2023-12-02T00:00:00	2024-11-08T16:00:00	8	Radiación solar	551
19389	7	Sololá	710	Panajachel	8	Panajachel	2	Febrero	2023-12-02T00:00:00	2024-11-08T17:00:00	2	Temperatura media	23.6
19390	7	Sololá	710	Panajachel	8	Panajachel	2	Febrero	2023-12-02T00:00:00	2024-11-08T17:00:00	4	Temperatura máxima	24.7
19391	7	Sololá	710	Panajachel	8	Panajachel	2	Febrero	2023-12-02T00:00:00	2024-11-08T17:00:00	3	Temperatura mínima	23.6
19392	7	Sololá	710	Panajachel	8	Panajachel	2	Febrero	2023-12-02T00:00:00	2024-11-08T17:00:00	5	Humedad	49
19393	7	Sololá	710	Panajachel	8	Panajachel	2	Febrero	2023-12-02T00:00:00	2024-11-08T17:00:00	6	Velocidad del viento	8
19394	7	Sololá	710	Panajachel	8	Panajachel	2	Febrero	2023-12-02T00:00:00	2024-11-08T17:00:00	7	Dirección del viento	8.05
19395	7	Sololá	710	Panajachel	8	Panajachel	2	Febrero	2023-12-02T00:00:00	2024-11-08T17:00:00	1	Precipitación	0
19396	7	Sololá	710	Panajachel	8	Panajachel	2	Febrero	2023-12-02T00:00:00	2024-11-08T17:00:00	8	Radiación solar	334
19397	7	Sololá	710	Panajachel	8	Panajachel	2	Febrero	2023-12-02T00:00:00	2024-11-08T18:00:00	2	Temperatura media	21.7
19398	7	Sololá	710	Panajachel	8	Panajachel	2	Febrero	2023-12-02T00:00:00	2024-11-08T18:00:00	4	Temperatura máxima	23.7
19399	7	Sololá	710	Panajachel	8	Panajachel	2	Febrero	2023-12-02T00:00:00	2024-11-08T18:00:00	3	Temperatura mínima	21.7
19400	7	Sololá	710	Panajachel	8	Panajachel	2	Febrero	2023-12-02T00:00:00	2024-11-08T18:00:00	5	Humedad	53
19401	7	Sololá	710	Panajachel	8	Panajachel	2	Febrero	2023-12-02T00:00:00	2024-11-08T18:00:00	6	Velocidad del viento	4.8
19402	7	Sololá	710	Panajachel	8	Panajachel	2	Febrero	2023-12-02T00:00:00	2024-11-08T18:00:00	7	Dirección del viento	4.83
19403	7	Sololá	710	Panajachel	8	Panajachel	2	Febrero	2023-12-02T00:00:00	2024-11-08T18:00:00	1	Precipitación	0
19404	7	Sololá	710	Panajachel	8	Panajachel	2	Febrero	2023-12-02T00:00:00	2024-11-08T18:00:00	8	Radiación solar	92
19405	7	Sololá	710	Panajachel	8	Panajachel	2	Febrero	2023-12-02T00:00:00	2024-11-08T19:00:00	2	Temperatura media	19.4
19406	7	Sololá	710	Panajachel	8	Panajachel	2	Febrero	2023-12-02T00:00:00	2024-11-08T19:00:00	4	Temperatura máxima	21.7
19407	7	Sololá	710	Panajachel	8	Panajachel	2	Febrero	2023-12-02T00:00:00	2024-11-08T19:00:00	3	Temperatura mínima	19.4
19408	7	Sololá	710	Panajachel	8	Panajachel	2	Febrero	2023-12-02T00:00:00	2024-11-08T19:00:00	5	Humedad	60
19409	7	Sololá	710	Panajachel	8	Panajachel	2	Febrero	2023-12-02T00:00:00	2024-11-08T19:00:00	6	Velocidad del viento	8
19410	7	Sololá	710	Panajachel	8	Panajachel	2	Febrero	2023-12-02T00:00:00	2024-11-08T19:00:00	7	Dirección del viento	8.05
19411	7	Sololá	710	Panajachel	8	Panajachel	2	Febrero	2023-12-02T00:00:00	2024-11-08T19:00:00	1	Precipitación	0
19412	7	Sololá	710	Panajachel	8	Panajachel	2	Febrero	2023-12-02T00:00:00	2024-11-08T19:00:00	8	Radiación solar	0
19413	7	Sololá	710	Panajachel	8	Panajachel	2	Febrero	2023-12-02T00:00:00	2024-11-08T20:00:00	2	Temperatura media	18.1
19414	7	Sololá	710	Panajachel	8	Panajachel	2	Febrero	2023-12-02T00:00:00	2024-11-08T20:00:00	4	Temperatura máxima	19.4
19415	7	Sololá	710	Panajachel	8	Panajachel	2	Febrero	2023-12-02T00:00:00	2024-11-08T20:00:00	3	Temperatura mínima	18
19416	7	Sololá	710	Panajachel	8	Panajachel	2	Febrero	2023-12-02T00:00:00	2024-11-08T20:00:00	5	Humedad	63
19417	7	Sololá	710	Panajachel	8	Panajachel	2	Febrero	2023-12-02T00:00:00	2024-11-08T20:00:00	6	Velocidad del viento	9.7
19418	7	Sololá	710	Panajachel	8	Panajachel	2	Febrero	2023-12-02T00:00:00	2024-11-08T20:00:00	7	Dirección del viento	9.66
19419	7	Sololá	710	Panajachel	8	Panajachel	2	Febrero	2023-12-02T00:00:00	2024-11-08T20:00:00	1	Precipitación	0
19420	7	Sololá	710	Panajachel	8	Panajachel	2	Febrero	2023-12-02T00:00:00	2024-11-08T20:00:00	8	Radiación solar	0
19421	7	Sololá	710	Panajachel	8	Panajachel	2	Febrero	2023-12-02T00:00:00	2024-11-08T21:00:00	2	Temperatura media	17.1
19422	7	Sololá	710	Panajachel	8	Panajachel	2	Febrero	2023-12-02T00:00:00	2024-11-08T21:00:00	4	Temperatura máxima	18.1
19423	7	Sololá	710	Panajachel	8	Panajachel	2	Febrero	2023-12-02T00:00:00	2024-11-08T21:00:00	3	Temperatura mínima	17
19424	7	Sololá	710	Panajachel	8	Panajachel	2	Febrero	2023-12-02T00:00:00	2024-11-08T21:00:00	5	Humedad	66
19425	7	Sololá	710	Panajachel	8	Panajachel	2	Febrero	2023-12-02T00:00:00	2024-11-08T21:00:00	6	Velocidad del viento	9.7
19426	7	Sololá	710	Panajachel	8	Panajachel	2	Febrero	2023-12-02T00:00:00	2024-11-08T21:00:00	7	Dirección del viento	9.66
19427	7	Sololá	710	Panajachel	8	Panajachel	2	Febrero	2023-12-02T00:00:00	2024-11-08T21:00:00	1	Precipitación	0
19428	7	Sololá	710	Panajachel	8	Panajachel	2	Febrero	2023-12-02T00:00:00	2024-11-08T21:00:00	8	Radiación solar	0
19429	7	Sololá	710	Panajachel	8	Panajachel	2	Febrero	2023-12-02T00:00:00	2024-11-08T22:00:00	2	Temperatura media	17
19430	7	Sololá	710	Panajachel	8	Panajachel	2	Febrero	2023-12-02T00:00:00	2024-11-08T22:00:00	4	Temperatura máxima	17.1
19431	7	Sololá	710	Panajachel	8	Panajachel	2	Febrero	2023-12-02T00:00:00	2024-11-08T22:00:00	3	Temperatura mínima	16.8
19432	7	Sololá	710	Panajachel	8	Panajachel	2	Febrero	2023-12-02T00:00:00	2024-11-08T22:00:00	5	Humedad	67
19433	7	Sololá	710	Panajachel	8	Panajachel	2	Febrero	2023-12-02T00:00:00	2024-11-08T22:00:00	6	Velocidad del viento	8
19434	7	Sololá	710	Panajachel	8	Panajachel	2	Febrero	2023-12-02T00:00:00	2024-11-08T22:00:00	7	Dirección del viento	8.05
19435	7	Sololá	710	Panajachel	8	Panajachel	2	Febrero	2023-12-02T00:00:00	2024-11-08T22:00:00	1	Precipitación	0
19436	7	Sololá	710	Panajachel	8	Panajachel	2	Febrero	2023-12-02T00:00:00	2024-11-08T22:00:00	8	Radiación solar	0
19437	7	Sololá	710	Panajachel	8	Panajachel	2	Febrero	2023-12-02T00:00:00	2024-11-08T23:00:00	2	Temperatura media	16.4
19438	7	Sololá	710	Panajachel	8	Panajachel	2	Febrero	2023-12-02T00:00:00	2024-11-08T23:00:00	4	Temperatura máxima	16.9
19439	7	Sololá	710	Panajachel	8	Panajachel	2	Febrero	2023-12-02T00:00:00	2024-11-08T23:00:00	3	Temperatura mínima	16.4
19440	7	Sololá	710	Panajachel	8	Panajachel	2	Febrero	2023-12-02T00:00:00	2024-11-08T23:00:00	5	Humedad	70
19441	7	Sololá	710	Panajachel	8	Panajachel	2	Febrero	2023-12-02T00:00:00	2024-11-08T23:00:00	6	Velocidad del viento	4.8
19442	7	Sololá	710	Panajachel	8	Panajachel	2	Febrero	2023-12-02T00:00:00	2024-11-08T23:00:00	7	Dirección del viento	4.83
19443	7	Sololá	710	Panajachel	8	Panajachel	2	Febrero	2023-12-02T00:00:00	2024-11-08T23:00:00	1	Precipitación	0
19444	7	Sololá	710	Panajachel	8	Panajachel	2	Febrero	2023-12-02T00:00:00	2024-11-08T23:00:00	8	Radiación solar	0
19445	7	Sololá	710	Panajachel	8	Panajachel	2	Febrero	2023-02-13T00:00:00	2024-11-08T00:00:00	2	Temperatura media	16.2
19446	7	Sololá	710	Panajachel	8	Panajachel	2	Febrero	2023-02-13T00:00:00	2024-11-08T00:00:00	4	Temperatura máxima	16.7
19447	7	Sololá	710	Panajachel	8	Panajachel	2	Febrero	2023-02-13T00:00:00	2024-11-08T00:00:00	3	Temperatura mínima	16.2
19448	7	Sololá	710	Panajachel	8	Panajachel	2	Febrero	2023-02-13T00:00:00	2024-11-08T00:00:00	5	Humedad	70
19449	7	Sololá	710	Panajachel	8	Panajachel	2	Febrero	2023-02-13T00:00:00	2024-11-08T00:00:00	6	Velocidad del viento	1.6
19450	7	Sololá	710	Panajachel	8	Panajachel	2	Febrero	2023-02-13T00:00:00	2024-11-08T00:00:00	7	Dirección del viento	1.61
19451	7	Sololá	710	Panajachel	8	Panajachel	2	Febrero	2023-02-13T00:00:00	2024-11-08T00:00:00	1	Precipitación	0
19452	7	Sololá	710	Panajachel	8	Panajachel	2	Febrero	2023-02-13T00:00:00	2024-11-08T00:00:00	8	Radiación solar	0
19453	7	Sololá	710	Panajachel	8	Panajachel	2	Febrero	2023-02-13T00:00:00	2024-11-08T01:00:00	2	Temperatura media	15.4
19454	7	Sololá	710	Panajachel	8	Panajachel	2	Febrero	2023-02-13T00:00:00	2024-11-08T01:00:00	4	Temperatura máxima	16.4
19455	7	Sololá	710	Panajachel	8	Panajachel	2	Febrero	2023-02-13T00:00:00	2024-11-08T01:00:00	3	Temperatura mínima	15.4
19456	7	Sololá	710	Panajachel	8	Panajachel	2	Febrero	2023-02-13T00:00:00	2024-11-08T01:00:00	5	Humedad	73
19457	7	Sololá	710	Panajachel	8	Panajachel	2	Febrero	2023-02-13T00:00:00	2024-11-08T01:00:00	6	Velocidad del viento	0
19458	7	Sololá	710	Panajachel	8	Panajachel	2	Febrero	2023-02-13T00:00:00	2024-11-08T01:00:00	7	Dirección del viento	0
19459	7	Sololá	710	Panajachel	8	Panajachel	2	Febrero	2023-02-13T00:00:00	2024-11-08T01:00:00	1	Precipitación	0
19460	7	Sololá	710	Panajachel	8	Panajachel	2	Febrero	2023-02-13T00:00:00	2024-11-08T01:00:00	8	Radiación solar	0
19461	7	Sololá	710	Panajachel	8	Panajachel	2	Febrero	2023-02-13T00:00:00	2024-11-08T02:00:00	2	Temperatura media	14.9
19462	7	Sololá	710	Panajachel	8	Panajachel	2	Febrero	2023-02-13T00:00:00	2024-11-08T02:00:00	4	Temperatura máxima	15.4
19463	7	Sololá	710	Panajachel	8	Panajachel	2	Febrero	2023-02-13T00:00:00	2024-11-08T02:00:00	3	Temperatura mínima	14.8
19464	7	Sololá	710	Panajachel	8	Panajachel	2	Febrero	2023-02-13T00:00:00	2024-11-08T02:00:00	5	Humedad	75
19465	7	Sololá	710	Panajachel	8	Panajachel	2	Febrero	2023-02-13T00:00:00	2024-11-08T02:00:00	6	Velocidad del viento	0
19466	7	Sololá	710	Panajachel	8	Panajachel	2	Febrero	2023-02-13T00:00:00	2024-11-08T02:00:00	7	Dirección del viento	0
19467	7	Sololá	710	Panajachel	8	Panajachel	2	Febrero	2023-02-13T00:00:00	2024-11-08T02:00:00	1	Precipitación	0
19468	7	Sololá	710	Panajachel	8	Panajachel	2	Febrero	2023-02-13T00:00:00	2024-11-08T02:00:00	8	Radiación solar	0
19469	7	Sololá	710	Panajachel	8	Panajachel	2	Febrero	2023-02-13T00:00:00	2024-11-08T03:00:00	2	Temperatura media	17.4
19470	7	Sololá	710	Panajachel	8	Panajachel	2	Febrero	2023-02-13T00:00:00	2024-11-08T03:00:00	4	Temperatura máxima	17.5
19471	7	Sololá	710	Panajachel	8	Panajachel	2	Febrero	2023-02-13T00:00:00	2024-11-08T03:00:00	3	Temperatura mínima	14.9
19472	7	Sololá	710	Panajachel	8	Panajachel	2	Febrero	2023-02-13T00:00:00	2024-11-08T03:00:00	5	Humedad	67
19473	7	Sololá	710	Panajachel	8	Panajachel	2	Febrero	2023-02-13T00:00:00	2024-11-08T03:00:00	6	Velocidad del viento	6.4
19474	7	Sololá	710	Panajachel	8	Panajachel	2	Febrero	2023-02-13T00:00:00	2024-11-08T03:00:00	7	Dirección del viento	6.44
19475	7	Sololá	710	Panajachel	8	Panajachel	2	Febrero	2023-02-13T00:00:00	2024-11-08T03:00:00	1	Precipitación	0
19476	7	Sololá	710	Panajachel	8	Panajachel	2	Febrero	2023-02-13T00:00:00	2024-11-08T03:00:00	8	Radiación solar	0
19477	7	Sololá	710	Panajachel	8	Panajachel	2	Febrero	2023-02-13T00:00:00	2024-11-08T04:00:00	2	Temperatura media	16.4
19478	7	Sololá	710	Panajachel	8	Panajachel	2	Febrero	2023-02-13T00:00:00	2024-11-08T04:00:00	4	Temperatura máxima	17.4
19479	7	Sololá	710	Panajachel	8	Panajachel	2	Febrero	2023-02-13T00:00:00	2024-11-08T04:00:00	3	Temperatura mínima	16.3
19480	7	Sololá	710	Panajachel	8	Panajachel	2	Febrero	2023-02-13T00:00:00	2024-11-08T04:00:00	5	Humedad	70
19481	7	Sololá	710	Panajachel	8	Panajachel	2	Febrero	2023-02-13T00:00:00	2024-11-08T04:00:00	6	Velocidad del viento	3.2
19482	7	Sololá	710	Panajachel	8	Panajachel	2	Febrero	2023-02-13T00:00:00	2024-11-08T04:00:00	7	Dirección del viento	3.22
19483	7	Sololá	710	Panajachel	8	Panajachel	2	Febrero	2023-02-13T00:00:00	2024-11-08T04:00:00	1	Precipitación	0
19484	7	Sololá	710	Panajachel	8	Panajachel	2	Febrero	2023-02-13T00:00:00	2024-11-08T04:00:00	8	Radiación solar	0
19485	7	Sololá	710	Panajachel	8	Panajachel	2	Febrero	2023-02-13T00:00:00	2024-11-08T05:00:00	2	Temperatura media	16.8
19486	7	Sololá	710	Panajachel	8	Panajachel	2	Febrero	2023-02-13T00:00:00	2024-11-08T05:00:00	4	Temperatura máxima	16.8
19487	7	Sololá	710	Panajachel	8	Panajachel	2	Febrero	2023-02-13T00:00:00	2024-11-08T05:00:00	3	Temperatura mínima	16.1
19488	7	Sololá	710	Panajachel	8	Panajachel	2	Febrero	2023-02-13T00:00:00	2024-11-08T05:00:00	5	Humedad	69
19489	7	Sololá	710	Panajachel	8	Panajachel	2	Febrero	2023-02-13T00:00:00	2024-11-08T05:00:00	6	Velocidad del viento	1.6
19490	7	Sololá	710	Panajachel	8	Panajachel	2	Febrero	2023-02-13T00:00:00	2024-11-08T05:00:00	7	Dirección del viento	1.61
19491	7	Sololá	710	Panajachel	8	Panajachel	2	Febrero	2023-02-13T00:00:00	2024-11-08T05:00:00	1	Precipitación	0
19492	7	Sololá	710	Panajachel	8	Panajachel	2	Febrero	2023-02-13T00:00:00	2024-11-08T05:00:00	8	Radiación solar	0
19493	7	Sololá	710	Panajachel	8	Panajachel	2	Febrero	2023-02-13T00:00:00	2024-11-08T06:00:00	2	Temperatura media	16.5
19494	7	Sololá	710	Panajachel	8	Panajachel	2	Febrero	2023-02-13T00:00:00	2024-11-08T06:00:00	4	Temperatura máxima	16.9
19495	7	Sololá	710	Panajachel	8	Panajachel	2	Febrero	2023-02-13T00:00:00	2024-11-08T06:00:00	3	Temperatura mínima	16.4
19496	7	Sololá	710	Panajachel	8	Panajachel	2	Febrero	2023-02-13T00:00:00	2024-11-08T06:00:00	5	Humedad	71
19497	7	Sololá	710	Panajachel	8	Panajachel	2	Febrero	2023-02-13T00:00:00	2024-11-08T06:00:00	6	Velocidad del viento	4.8
19498	7	Sololá	710	Panajachel	8	Panajachel	2	Febrero	2023-02-13T00:00:00	2024-11-08T06:00:00	7	Dirección del viento	4.83
19499	7	Sololá	710	Panajachel	8	Panajachel	2	Febrero	2023-02-13T00:00:00	2024-11-08T06:00:00	1	Precipitación	0
19500	7	Sololá	710	Panajachel	8	Panajachel	2	Febrero	2023-02-13T00:00:00	2024-11-08T06:00:00	8	Radiación solar	0
19501	7	Sololá	710	Panajachel	8	Panajachel	2	Febrero	2023-02-13T00:00:00	2024-11-08T07:00:00	2	Temperatura media	17.3
19502	7	Sololá	710	Panajachel	8	Panajachel	2	Febrero	2023-02-13T00:00:00	2024-11-08T07:00:00	4	Temperatura máxima	17.3
19503	7	Sololá	710	Panajachel	8	Panajachel	2	Febrero	2023-02-13T00:00:00	2024-11-08T07:00:00	3	Temperatura mínima	16.5
19504	7	Sololá	710	Panajachel	8	Panajachel	2	Febrero	2023-02-13T00:00:00	2024-11-08T07:00:00	5	Humedad	67
19505	7	Sololá	710	Panajachel	8	Panajachel	2	Febrero	2023-02-13T00:00:00	2024-11-08T07:00:00	6	Velocidad del viento	6.4
19506	7	Sololá	710	Panajachel	8	Panajachel	2	Febrero	2023-02-13T00:00:00	2024-11-08T07:00:00	7	Dirección del viento	6.44
19507	7	Sololá	710	Panajachel	8	Panajachel	2	Febrero	2023-02-13T00:00:00	2024-11-08T07:00:00	1	Precipitación	0
19508	7	Sololá	710	Panajachel	8	Panajachel	2	Febrero	2023-02-13T00:00:00	2024-11-08T07:00:00	8	Radiación solar	4
19509	7	Sololá	710	Panajachel	8	Panajachel	2	Febrero	2023-02-13T00:00:00	2024-11-08T08:00:00	2	Temperatura media	18.2
19510	7	Sololá	710	Panajachel	8	Panajachel	2	Febrero	2023-02-13T00:00:00	2024-11-08T08:00:00	4	Temperatura máxima	18.2
19511	7	Sololá	710	Panajachel	8	Panajachel	2	Febrero	2023-02-13T00:00:00	2024-11-08T08:00:00	3	Temperatura mínima	17.2
19512	7	Sololá	710	Panajachel	8	Panajachel	2	Febrero	2023-02-13T00:00:00	2024-11-08T08:00:00	5	Humedad	67
19513	7	Sololá	710	Panajachel	8	Panajachel	2	Febrero	2023-02-13T00:00:00	2024-11-08T08:00:00	6	Velocidad del viento	9.7
19514	7	Sololá	710	Panajachel	8	Panajachel	2	Febrero	2023-02-13T00:00:00	2024-11-08T08:00:00	7	Dirección del viento	9.66
19515	7	Sololá	710	Panajachel	8	Panajachel	2	Febrero	2023-02-13T00:00:00	2024-11-08T08:00:00	1	Precipitación	0
19516	7	Sololá	710	Panajachel	8	Panajachel	2	Febrero	2023-02-13T00:00:00	2024-11-08T08:00:00	8	Radiación solar	114
19517	7	Sololá	710	Panajachel	8	Panajachel	2	Febrero	2023-02-13T00:00:00	2024-11-08T09:00:00	2	Temperatura media	20.2
19518	7	Sololá	710	Panajachel	8	Panajachel	2	Febrero	2023-02-13T00:00:00	2024-11-08T09:00:00	4	Temperatura máxima	20.2
19519	7	Sololá	710	Panajachel	8	Panajachel	2	Febrero	2023-02-13T00:00:00	2024-11-08T09:00:00	3	Temperatura mínima	18.2
19520	7	Sololá	710	Panajachel	8	Panajachel	2	Febrero	2023-02-13T00:00:00	2024-11-08T09:00:00	5	Humedad	61
19521	7	Sololá	710	Panajachel	8	Panajachel	2	Febrero	2023-02-13T00:00:00	2024-11-08T09:00:00	6	Velocidad del viento	12.9
19522	7	Sololá	710	Panajachel	8	Panajachel	2	Febrero	2023-02-13T00:00:00	2024-11-08T09:00:00	7	Dirección del viento	12.87
19523	7	Sololá	710	Panajachel	8	Panajachel	2	Febrero	2023-02-13T00:00:00	2024-11-08T09:00:00	1	Precipitación	0
19524	7	Sololá	710	Panajachel	8	Panajachel	2	Febrero	2023-02-13T00:00:00	2024-11-08T09:00:00	8	Radiación solar	419
19525	7	Sololá	710	Panajachel	8	Panajachel	2	Febrero	2023-02-13T00:00:00	2024-11-08T10:00:00	2	Temperatura media	21.2
19526	7	Sololá	710	Panajachel	8	Panajachel	2	Febrero	2023-02-13T00:00:00	2024-11-08T10:00:00	4	Temperatura máxima	21.2
19527	7	Sololá	710	Panajachel	8	Panajachel	2	Febrero	2023-02-13T00:00:00	2024-11-08T10:00:00	3	Temperatura mínima	20.1
19528	7	Sololá	710	Panajachel	8	Panajachel	2	Febrero	2023-02-13T00:00:00	2024-11-08T10:00:00	5	Humedad	58
19529	7	Sololá	710	Panajachel	8	Panajachel	2	Febrero	2023-02-13T00:00:00	2024-11-08T10:00:00	6	Velocidad del viento	11.3
19530	7	Sololá	710	Panajachel	8	Panajachel	2	Febrero	2023-02-13T00:00:00	2024-11-08T10:00:00	7	Dirección del viento	11.27
19531	7	Sololá	710	Panajachel	8	Panajachel	2	Febrero	2023-02-13T00:00:00	2024-11-08T10:00:00	1	Precipitación	0
19532	7	Sololá	710	Panajachel	8	Panajachel	2	Febrero	2023-02-13T00:00:00	2024-11-08T10:00:00	8	Radiación solar	629
19533	7	Sololá	710	Panajachel	8	Panajachel	2	Febrero	2023-02-13T00:00:00	2024-11-08T11:00:00	2	Temperatura media	23.1
19534	7	Sololá	710	Panajachel	8	Panajachel	2	Febrero	2023-02-13T00:00:00	2024-11-08T11:00:00	4	Temperatura máxima	23.1
19535	7	Sololá	710	Panajachel	8	Panajachel	2	Febrero	2023-02-13T00:00:00	2024-11-08T11:00:00	3	Temperatura mínima	21.2
19536	7	Sololá	710	Panajachel	8	Panajachel	2	Febrero	2023-02-13T00:00:00	2024-11-08T11:00:00	5	Humedad	53
19537	7	Sololá	710	Panajachel	8	Panajachel	2	Febrero	2023-02-13T00:00:00	2024-11-08T11:00:00	6	Velocidad del viento	9.7
19538	7	Sololá	710	Panajachel	8	Panajachel	2	Febrero	2023-02-13T00:00:00	2024-11-08T11:00:00	7	Dirección del viento	9.66
19539	7	Sololá	710	Panajachel	8	Panajachel	2	Febrero	2023-02-13T00:00:00	2024-11-08T11:00:00	1	Precipitación	0
19540	7	Sololá	710	Panajachel	8	Panajachel	2	Febrero	2023-02-13T00:00:00	2024-11-08T11:00:00	8	Radiación solar	787
19541	7	Sololá	710	Panajachel	8	Panajachel	2	Febrero	2023-02-13T00:00:00	2024-11-08T12:00:00	2	Temperatura media	24.8
19542	7	Sololá	710	Panajachel	8	Panajachel	2	Febrero	2023-02-13T00:00:00	2024-11-08T12:00:00	4	Temperatura máxima	25.2
19543	7	Sololá	710	Panajachel	8	Panajachel	2	Febrero	2023-02-13T00:00:00	2024-11-08T12:00:00	3	Temperatura mínima	23.1
19544	7	Sololá	710	Panajachel	8	Panajachel	2	Febrero	2023-02-13T00:00:00	2024-11-08T12:00:00	5	Humedad	48
19545	7	Sololá	710	Panajachel	8	Panajachel	2	Febrero	2023-02-13T00:00:00	2024-11-08T12:00:00	6	Velocidad del viento	6.4
19546	7	Sololá	710	Panajachel	8	Panajachel	2	Febrero	2023-02-13T00:00:00	2024-11-08T12:00:00	7	Dirección del viento	6.44
19547	7	Sololá	710	Panajachel	8	Panajachel	2	Febrero	2023-02-13T00:00:00	2024-11-08T12:00:00	1	Precipitación	0
19548	7	Sololá	710	Panajachel	8	Panajachel	2	Febrero	2023-02-13T00:00:00	2024-11-08T12:00:00	8	Radiación solar	999
19549	7	Sololá	710	Panajachel	8	Panajachel	2	Febrero	2023-02-13T00:00:00	2024-11-08T13:00:00	2	Temperatura media	25.2
19550	7	Sololá	710	Panajachel	8	Panajachel	2	Febrero	2023-02-13T00:00:00	2024-11-08T13:00:00	4	Temperatura máxima	25.2
19551	7	Sololá	710	Panajachel	8	Panajachel	2	Febrero	2023-02-13T00:00:00	2024-11-08T13:00:00	3	Temperatura mínima	23.8
19552	7	Sololá	710	Panajachel	8	Panajachel	2	Febrero	2023-02-13T00:00:00	2024-11-08T13:00:00	5	Humedad	45
19553	7	Sololá	710	Panajachel	8	Panajachel	2	Febrero	2023-02-13T00:00:00	2024-11-08T13:00:00	6	Velocidad del viento	6.4
19554	7	Sololá	710	Panajachel	8	Panajachel	2	Febrero	2023-02-13T00:00:00	2024-11-08T13:00:00	7	Dirección del viento	6.44
19555	7	Sololá	710	Panajachel	8	Panajachel	2	Febrero	2023-02-13T00:00:00	2024-11-08T13:00:00	1	Precipitación	0
19556	7	Sololá	710	Panajachel	8	Panajachel	2	Febrero	2023-02-13T00:00:00	2024-11-08T13:00:00	8	Radiación solar	773
19557	7	Sololá	710	Panajachel	8	Panajachel	2	Febrero	2023-02-13T00:00:00	2024-11-08T14:00:00	2	Temperatura media	25
19558	7	Sololá	710	Panajachel	8	Panajachel	2	Febrero	2023-02-13T00:00:00	2024-11-08T14:00:00	4	Temperatura máxima	26
19559	7	Sololá	710	Panajachel	8	Panajachel	2	Febrero	2023-02-13T00:00:00	2024-11-08T14:00:00	3	Temperatura mínima	24.9
19560	7	Sololá	710	Panajachel	8	Panajachel	2	Febrero	2023-02-13T00:00:00	2024-11-08T14:00:00	5	Humedad	43
19561	7	Sololá	710	Panajachel	8	Panajachel	2	Febrero	2023-02-13T00:00:00	2024-11-08T14:00:00	6	Velocidad del viento	9.7
19562	7	Sololá	710	Panajachel	8	Panajachel	2	Febrero	2023-02-13T00:00:00	2024-11-08T14:00:00	7	Dirección del viento	9.66
19563	7	Sololá	710	Panajachel	8	Panajachel	2	Febrero	2023-02-13T00:00:00	2024-11-08T14:00:00	1	Precipitación	0
19564	7	Sololá	710	Panajachel	8	Panajachel	2	Febrero	2023-02-13T00:00:00	2024-11-08T14:00:00	8	Radiación solar	854
19565	7	Sololá	710	Panajachel	8	Panajachel	2	Febrero	2023-02-13T00:00:00	2024-11-08T15:00:00	2	Temperatura media	26
19566	7	Sololá	710	Panajachel	8	Panajachel	2	Febrero	2023-02-13T00:00:00	2024-11-08T15:00:00	4	Temperatura máxima	26
19567	7	Sololá	710	Panajachel	8	Panajachel	2	Febrero	2023-02-13T00:00:00	2024-11-08T15:00:00	3	Temperatura mínima	25.1
19568	7	Sololá	710	Panajachel	8	Panajachel	2	Febrero	2023-02-13T00:00:00	2024-11-08T15:00:00	5	Humedad	41
19569	7	Sololá	710	Panajachel	8	Panajachel	2	Febrero	2023-02-13T00:00:00	2024-11-08T15:00:00	6	Velocidad del viento	8
19570	7	Sololá	710	Panajachel	8	Panajachel	2	Febrero	2023-02-13T00:00:00	2024-11-08T15:00:00	7	Dirección del viento	8.05
19571	7	Sololá	710	Panajachel	8	Panajachel	2	Febrero	2023-02-13T00:00:00	2024-11-08T15:00:00	1	Precipitación	0
19572	7	Sololá	710	Panajachel	8	Panajachel	2	Febrero	2023-02-13T00:00:00	2024-11-08T15:00:00	8	Radiación solar	698
19573	7	Sololá	710	Panajachel	8	Panajachel	2	Febrero	2023-02-13T00:00:00	2024-11-08T16:00:00	2	Temperatura media	26.3
19574	7	Sololá	710	Panajachel	8	Panajachel	2	Febrero	2023-02-13T00:00:00	2024-11-08T16:00:00	4	Temperatura máxima	26.7
19575	7	Sololá	710	Panajachel	8	Panajachel	2	Febrero	2023-02-13T00:00:00	2024-11-08T16:00:00	3	Temperatura mínima	25.6
19576	7	Sololá	710	Panajachel	8	Panajachel	2	Febrero	2023-02-13T00:00:00	2024-11-08T16:00:00	5	Humedad	39
19577	7	Sololá	710	Panajachel	8	Panajachel	2	Febrero	2023-02-13T00:00:00	2024-11-08T16:00:00	6	Velocidad del viento	4.8
19578	7	Sololá	710	Panajachel	8	Panajachel	2	Febrero	2023-02-13T00:00:00	2024-11-08T16:00:00	7	Dirección del viento	4.83
19579	7	Sololá	710	Panajachel	8	Panajachel	2	Febrero	2023-02-13T00:00:00	2024-11-08T16:00:00	1	Precipitación	0
19580	7	Sololá	710	Panajachel	8	Panajachel	2	Febrero	2023-02-13T00:00:00	2024-11-08T16:00:00	8	Radiación solar	569
19581	7	Sololá	710	Panajachel	8	Panajachel	2	Febrero	2023-02-13T00:00:00	2024-11-08T17:00:00	2	Temperatura media	25.2
19582	7	Sololá	710	Panajachel	8	Panajachel	2	Febrero	2023-02-13T00:00:00	2024-11-08T17:00:00	4	Temperatura máxima	26.3
19583	7	Sololá	710	Panajachel	8	Panajachel	2	Febrero	2023-02-13T00:00:00	2024-11-08T17:00:00	3	Temperatura mínima	25.2
19584	7	Sololá	710	Panajachel	8	Panajachel	2	Febrero	2023-02-13T00:00:00	2024-11-08T17:00:00	5	Humedad	41
19585	7	Sololá	710	Panajachel	8	Panajachel	2	Febrero	2023-02-13T00:00:00	2024-11-08T17:00:00	6	Velocidad del viento	4.8
19586	7	Sololá	710	Panajachel	8	Panajachel	2	Febrero	2023-02-13T00:00:00	2024-11-08T17:00:00	7	Dirección del viento	4.83
19587	7	Sololá	710	Panajachel	8	Panajachel	2	Febrero	2023-02-13T00:00:00	2024-11-08T17:00:00	1	Precipitación	0
19588	7	Sololá	710	Panajachel	8	Panajachel	2	Febrero	2023-02-13T00:00:00	2024-11-08T17:00:00	8	Radiación solar	334
19589	7	Sololá	710	Panajachel	8	Panajachel	2	Febrero	2023-02-13T00:00:00	2024-11-08T18:00:00	2	Temperatura media	22.3
19590	7	Sololá	710	Panajachel	8	Panajachel	2	Febrero	2023-02-13T00:00:00	2024-11-08T18:00:00	4	Temperatura máxima	25.2
19591	7	Sololá	710	Panajachel	8	Panajachel	2	Febrero	2023-02-13T00:00:00	2024-11-08T18:00:00	3	Temperatura mínima	22.3
19592	7	Sololá	710	Panajachel	8	Panajachel	2	Febrero	2023-02-13T00:00:00	2024-11-08T18:00:00	5	Humedad	52
19593	7	Sololá	710	Panajachel	8	Panajachel	2	Febrero	2023-02-13T00:00:00	2024-11-08T18:00:00	6	Velocidad del viento	4.8
19594	7	Sololá	710	Panajachel	8	Panajachel	2	Febrero	2023-02-13T00:00:00	2024-11-08T18:00:00	7	Dirección del viento	4.83
19595	7	Sololá	710	Panajachel	8	Panajachel	2	Febrero	2023-02-13T00:00:00	2024-11-08T18:00:00	1	Precipitación	0
19596	7	Sololá	710	Panajachel	8	Panajachel	2	Febrero	2023-02-13T00:00:00	2024-11-08T18:00:00	8	Radiación solar	91
19597	7	Sololá	710	Panajachel	8	Panajachel	2	Febrero	2023-02-13T00:00:00	2024-11-08T19:00:00	2	Temperatura media	20.5
19598	7	Sololá	710	Panajachel	8	Panajachel	2	Febrero	2023-02-13T00:00:00	2024-11-08T19:00:00	4	Temperatura máxima	22.3
19599	7	Sololá	710	Panajachel	8	Panajachel	2	Febrero	2023-02-13T00:00:00	2024-11-08T19:00:00	3	Temperatura mínima	20.5
19600	7	Sololá	710	Panajachel	8	Panajachel	2	Febrero	2023-02-13T00:00:00	2024-11-08T19:00:00	5	Humedad	59
19601	7	Sololá	710	Panajachel	8	Panajachel	2	Febrero	2023-02-13T00:00:00	2024-11-08T19:00:00	6	Velocidad del viento	3.2
19602	7	Sololá	710	Panajachel	8	Panajachel	2	Febrero	2023-02-13T00:00:00	2024-11-08T19:00:00	7	Dirección del viento	3.22
19603	7	Sololá	710	Panajachel	8	Panajachel	2	Febrero	2023-02-13T00:00:00	2024-11-08T19:00:00	1	Precipitación	0
19604	7	Sololá	710	Panajachel	8	Panajachel	2	Febrero	2023-02-13T00:00:00	2024-11-08T19:00:00	8	Radiación solar	0
19605	7	Sololá	710	Panajachel	8	Panajachel	2	Febrero	2023-02-13T00:00:00	2024-11-08T20:00:00	2	Temperatura media	19.8
19606	7	Sololá	710	Panajachel	8	Panajachel	2	Febrero	2023-02-13T00:00:00	2024-11-08T20:00:00	4	Temperatura máxima	20.5
19607	7	Sololá	710	Panajachel	8	Panajachel	2	Febrero	2023-02-13T00:00:00	2024-11-08T20:00:00	3	Temperatura mínima	19.5
19608	7	Sololá	710	Panajachel	8	Panajachel	2	Febrero	2023-02-13T00:00:00	2024-11-08T20:00:00	5	Humedad	62
19609	7	Sololá	710	Panajachel	8	Panajachel	2	Febrero	2023-02-13T00:00:00	2024-11-08T20:00:00	6	Velocidad del viento	3.2
19610	7	Sololá	710	Panajachel	8	Panajachel	2	Febrero	2023-02-13T00:00:00	2024-11-08T20:00:00	7	Dirección del viento	3.22
19611	7	Sololá	710	Panajachel	8	Panajachel	2	Febrero	2023-02-13T00:00:00	2024-11-08T20:00:00	1	Precipitación	0
19612	7	Sololá	710	Panajachel	8	Panajachel	2	Febrero	2023-02-13T00:00:00	2024-11-08T20:00:00	8	Radiación solar	0
19613	7	Sololá	710	Panajachel	8	Panajachel	2	Febrero	2023-02-13T00:00:00	2024-11-08T21:00:00	2	Temperatura media	19.3
19614	7	Sololá	710	Panajachel	8	Panajachel	2	Febrero	2023-02-13T00:00:00	2024-11-08T21:00:00	4	Temperatura máxima	19.8
19615	7	Sololá	710	Panajachel	8	Panajachel	2	Febrero	2023-02-13T00:00:00	2024-11-08T21:00:00	3	Temperatura mínima	18.8
19616	7	Sololá	710	Panajachel	8	Panajachel	2	Febrero	2023-02-13T00:00:00	2024-11-08T21:00:00	5	Humedad	62
19617	7	Sololá	710	Panajachel	8	Panajachel	2	Febrero	2023-02-13T00:00:00	2024-11-08T21:00:00	6	Velocidad del viento	3.2
19618	7	Sololá	710	Panajachel	8	Panajachel	2	Febrero	2023-02-13T00:00:00	2024-11-08T21:00:00	7	Dirección del viento	3.22
19619	7	Sololá	710	Panajachel	8	Panajachel	2	Febrero	2023-02-13T00:00:00	2024-11-08T21:00:00	1	Precipitación	0
19620	7	Sololá	710	Panajachel	8	Panajachel	2	Febrero	2023-02-13T00:00:00	2024-11-08T21:00:00	8	Radiación solar	0
19621	7	Sololá	710	Panajachel	8	Panajachel	2	Febrero	2023-02-13T00:00:00	2024-11-08T22:00:00	2	Temperatura media	17.6
19622	7	Sololá	710	Panajachel	8	Panajachel	2	Febrero	2023-02-13T00:00:00	2024-11-08T22:00:00	4	Temperatura máxima	19.3
19623	7	Sololá	710	Panajachel	8	Panajachel	2	Febrero	2023-02-13T00:00:00	2024-11-08T22:00:00	3	Temperatura mínima	17.6
19624	7	Sololá	710	Panajachel	8	Panajachel	2	Febrero	2023-02-13T00:00:00	2024-11-08T22:00:00	5	Humedad	67
19625	7	Sololá	710	Panajachel	8	Panajachel	2	Febrero	2023-02-13T00:00:00	2024-11-08T22:00:00	6	Velocidad del viento	4.8
19626	7	Sololá	710	Panajachel	8	Panajachel	2	Febrero	2023-02-13T00:00:00	2024-11-08T22:00:00	7	Dirección del viento	4.83
19627	7	Sololá	710	Panajachel	8	Panajachel	2	Febrero	2023-02-13T00:00:00	2024-11-08T22:00:00	1	Precipitación	0
19628	7	Sololá	710	Panajachel	8	Panajachel	2	Febrero	2023-02-13T00:00:00	2024-11-08T22:00:00	8	Radiación solar	0
19629	7	Sololá	710	Panajachel	8	Panajachel	2	Febrero	2023-02-13T00:00:00	2024-11-08T23:00:00	2	Temperatura media	16.8
19630	7	Sololá	710	Panajachel	8	Panajachel	2	Febrero	2023-02-13T00:00:00	2024-11-08T23:00:00	4	Temperatura máxima	17.7
19631	7	Sololá	710	Panajachel	8	Panajachel	2	Febrero	2023-02-13T00:00:00	2024-11-08T23:00:00	3	Temperatura mínima	16.8
19632	7	Sololá	710	Panajachel	8	Panajachel	2	Febrero	2023-02-13T00:00:00	2024-11-08T23:00:00	5	Humedad	68
19633	7	Sololá	710	Panajachel	8	Panajachel	2	Febrero	2023-02-13T00:00:00	2024-11-08T23:00:00	6	Velocidad del viento	8
19634	7	Sololá	710	Panajachel	8	Panajachel	2	Febrero	2023-02-13T00:00:00	2024-11-08T23:00:00	7	Dirección del viento	8.05
19635	7	Sololá	710	Panajachel	8	Panajachel	2	Febrero	2023-02-13T00:00:00	2024-11-08T23:00:00	1	Precipitación	0
19636	7	Sololá	710	Panajachel	8	Panajachel	2	Febrero	2023-02-13T00:00:00	2024-11-08T23:00:00	8	Radiación solar	0
19637	7	Sololá	710	Panajachel	8	Panajachel	2	Febrero	2023-02-14T00:00:00	2024-11-08T00:00:00	2	Temperatura media	16.4
19638	7	Sololá	710	Panajachel	8	Panajachel	2	Febrero	2023-02-14T00:00:00	2024-11-08T00:00:00	4	Temperatura máxima	16.9
19639	7	Sololá	710	Panajachel	8	Panajachel	2	Febrero	2023-02-14T00:00:00	2024-11-08T00:00:00	3	Temperatura mínima	16.4
19640	7	Sololá	710	Panajachel	8	Panajachel	2	Febrero	2023-02-14T00:00:00	2024-11-08T00:00:00	5	Humedad	67
19641	7	Sololá	710	Panajachel	8	Panajachel	2	Febrero	2023-02-14T00:00:00	2024-11-08T00:00:00	6	Velocidad del viento	4.8
19642	7	Sololá	710	Panajachel	8	Panajachel	2	Febrero	2023-02-14T00:00:00	2024-11-08T00:00:00	7	Dirección del viento	4.83
19643	7	Sololá	710	Panajachel	8	Panajachel	2	Febrero	2023-02-14T00:00:00	2024-11-08T00:00:00	1	Precipitación	0
19644	7	Sololá	710	Panajachel	8	Panajachel	2	Febrero	2023-02-14T00:00:00	2024-11-08T00:00:00	8	Radiación solar	0
19645	7	Sololá	710	Panajachel	8	Panajachel	2	Febrero	2023-02-14T00:00:00	2024-11-08T01:00:00	2	Temperatura media	14.9
19646	7	Sololá	710	Panajachel	8	Panajachel	2	Febrero	2023-02-14T00:00:00	2024-11-08T01:00:00	4	Temperatura máxima	16.4
19647	7	Sololá	710	Panajachel	8	Panajachel	2	Febrero	2023-02-14T00:00:00	2024-11-08T01:00:00	3	Temperatura mínima	14.9
19648	7	Sololá	710	Panajachel	8	Panajachel	2	Febrero	2023-02-14T00:00:00	2024-11-08T01:00:00	5	Humedad	68
19649	7	Sololá	710	Panajachel	8	Panajachel	2	Febrero	2023-02-14T00:00:00	2024-11-08T01:00:00	6	Velocidad del viento	6.4
19650	7	Sololá	710	Panajachel	8	Panajachel	2	Febrero	2023-02-14T00:00:00	2024-11-08T01:00:00	7	Dirección del viento	6.44
19651	7	Sololá	710	Panajachel	8	Panajachel	2	Febrero	2023-02-14T00:00:00	2024-11-08T01:00:00	1	Precipitación	0
19652	7	Sololá	710	Panajachel	8	Panajachel	2	Febrero	2023-02-14T00:00:00	2024-11-08T01:00:00	8	Radiación solar	0
19653	7	Sololá	710	Panajachel	8	Panajachel	2	Febrero	2023-02-14T00:00:00	2024-11-08T02:00:00	2	Temperatura media	14.6
19654	7	Sololá	710	Panajachel	8	Panajachel	2	Febrero	2023-02-14T00:00:00	2024-11-08T02:00:00	4	Temperatura máxima	14.9
19655	7	Sololá	710	Panajachel	8	Panajachel	2	Febrero	2023-02-14T00:00:00	2024-11-08T02:00:00	3	Temperatura mínima	14.6
19656	7	Sololá	710	Panajachel	8	Panajachel	2	Febrero	2023-02-14T00:00:00	2024-11-08T02:00:00	5	Humedad	68
19657	7	Sololá	710	Panajachel	8	Panajachel	2	Febrero	2023-02-14T00:00:00	2024-11-08T02:00:00	6	Velocidad del viento	3.2
19658	7	Sololá	710	Panajachel	8	Panajachel	2	Febrero	2023-02-14T00:00:00	2024-11-08T02:00:00	7	Dirección del viento	3.22
19659	7	Sololá	710	Panajachel	8	Panajachel	2	Febrero	2023-02-14T00:00:00	2024-11-08T02:00:00	1	Precipitación	0
19660	7	Sololá	710	Panajachel	8	Panajachel	2	Febrero	2023-02-14T00:00:00	2024-11-08T02:00:00	8	Radiación solar	0
19661	7	Sololá	710	Panajachel	8	Panajachel	2	Febrero	2023-02-14T00:00:00	2024-11-08T03:00:00	2	Temperatura media	14.3
19662	7	Sololá	710	Panajachel	8	Panajachel	2	Febrero	2023-02-14T00:00:00	2024-11-08T03:00:00	4	Temperatura máxima	14.9
19663	7	Sololá	710	Panajachel	8	Panajachel	2	Febrero	2023-02-14T00:00:00	2024-11-08T03:00:00	3	Temperatura mínima	14.3
19664	7	Sololá	710	Panajachel	8	Panajachel	2	Febrero	2023-02-14T00:00:00	2024-11-08T03:00:00	5	Humedad	68
19665	7	Sololá	710	Panajachel	8	Panajachel	2	Febrero	2023-02-14T00:00:00	2024-11-08T03:00:00	6	Velocidad del viento	4.8
19666	7	Sololá	710	Panajachel	8	Panajachel	2	Febrero	2023-02-14T00:00:00	2024-11-08T03:00:00	7	Dirección del viento	4.83
19667	7	Sololá	710	Panajachel	8	Panajachel	2	Febrero	2023-02-14T00:00:00	2024-11-08T03:00:00	1	Precipitación	0
19668	7	Sololá	710	Panajachel	8	Panajachel	2	Febrero	2023-02-14T00:00:00	2024-11-08T03:00:00	8	Radiación solar	0
19669	7	Sololá	710	Panajachel	8	Panajachel	2	Febrero	2023-02-14T00:00:00	2024-11-08T04:00:00	2	Temperatura media	14.6
19670	7	Sololá	710	Panajachel	8	Panajachel	2	Febrero	2023-02-14T00:00:00	2024-11-08T04:00:00	4	Temperatura máxima	14.6
19671	7	Sololá	710	Panajachel	8	Panajachel	2	Febrero	2023-02-14T00:00:00	2024-11-08T04:00:00	3	Temperatura mínima	14.1
19672	7	Sololá	710	Panajachel	8	Panajachel	2	Febrero	2023-02-14T00:00:00	2024-11-08T04:00:00	5	Humedad	66
19673	7	Sololá	710	Panajachel	8	Panajachel	2	Febrero	2023-02-14T00:00:00	2024-11-08T04:00:00	6	Velocidad del viento	4.8
19674	7	Sololá	710	Panajachel	8	Panajachel	2	Febrero	2023-02-14T00:00:00	2024-11-08T04:00:00	7	Dirección del viento	4.83
19675	7	Sololá	710	Panajachel	8	Panajachel	2	Febrero	2023-02-14T00:00:00	2024-11-08T04:00:00	1	Precipitación	0
19676	7	Sololá	710	Panajachel	8	Panajachel	2	Febrero	2023-02-14T00:00:00	2024-11-08T04:00:00	8	Radiación solar	0
19677	7	Sololá	710	Panajachel	8	Panajachel	2	Febrero	2023-02-14T00:00:00	2024-11-08T05:00:00	2	Temperatura media	14.2
19678	7	Sololá	710	Panajachel	8	Panajachel	2	Febrero	2023-02-14T00:00:00	2024-11-08T05:00:00	4	Temperatura máxima	14.7
19679	7	Sololá	710	Panajachel	8	Panajachel	2	Febrero	2023-02-14T00:00:00	2024-11-08T05:00:00	3	Temperatura mínima	14.2
19680	7	Sololá	710	Panajachel	8	Panajachel	2	Febrero	2023-02-14T00:00:00	2024-11-08T05:00:00	5	Humedad	69
19681	7	Sololá	710	Panajachel	8	Panajachel	2	Febrero	2023-02-14T00:00:00	2024-11-08T05:00:00	6	Velocidad del viento	3.2
19682	7	Sololá	710	Panajachel	8	Panajachel	2	Febrero	2023-02-14T00:00:00	2024-11-08T05:00:00	7	Dirección del viento	3.22
19683	7	Sololá	710	Panajachel	8	Panajachel	2	Febrero	2023-02-14T00:00:00	2024-11-08T05:00:00	1	Precipitación	0
19684	7	Sololá	710	Panajachel	8	Panajachel	2	Febrero	2023-02-14T00:00:00	2024-11-08T05:00:00	8	Radiación solar	0
19685	7	Sololá	710	Panajachel	8	Panajachel	2	Febrero	2023-02-14T00:00:00	2024-11-08T06:00:00	2	Temperatura media	13.9
19686	7	Sololá	710	Panajachel	8	Panajachel	2	Febrero	2023-02-14T00:00:00	2024-11-08T06:00:00	4	Temperatura máxima	14.2
19687	7	Sololá	710	Panajachel	8	Panajachel	2	Febrero	2023-02-14T00:00:00	2024-11-08T06:00:00	3	Temperatura mínima	13.7
19688	7	Sololá	710	Panajachel	8	Panajachel	2	Febrero	2023-02-14T00:00:00	2024-11-08T06:00:00	5	Humedad	72
19689	7	Sololá	710	Panajachel	8	Panajachel	2	Febrero	2023-02-14T00:00:00	2024-11-08T06:00:00	6	Velocidad del viento	1.6
19690	7	Sololá	710	Panajachel	8	Panajachel	2	Febrero	2023-02-14T00:00:00	2024-11-08T06:00:00	7	Dirección del viento	1.61
19691	7	Sololá	710	Panajachel	8	Panajachel	2	Febrero	2023-02-14T00:00:00	2024-11-08T06:00:00	1	Precipitación	0
19692	7	Sololá	710	Panajachel	8	Panajachel	2	Febrero	2023-02-14T00:00:00	2024-11-08T06:00:00	8	Radiación solar	0
19693	7	Sololá	710	Panajachel	8	Panajachel	2	Febrero	2023-02-14T00:00:00	2024-11-08T07:00:00	2	Temperatura media	13.8
19694	7	Sololá	710	Panajachel	8	Panajachel	2	Febrero	2023-02-14T00:00:00	2024-11-08T07:00:00	4	Temperatura máxima	13.9
19695	7	Sololá	710	Panajachel	8	Panajachel	2	Febrero	2023-02-14T00:00:00	2024-11-08T07:00:00	3	Temperatura mínima	13.6
19696	7	Sololá	710	Panajachel	8	Panajachel	2	Febrero	2023-02-14T00:00:00	2024-11-08T07:00:00	5	Humedad	73
19697	7	Sololá	710	Panajachel	8	Panajachel	2	Febrero	2023-02-14T00:00:00	2024-11-08T07:00:00	6	Velocidad del viento	1.6
19698	7	Sololá	710	Panajachel	8	Panajachel	2	Febrero	2023-02-14T00:00:00	2024-11-08T07:00:00	7	Dirección del viento	1.61
19699	7	Sololá	710	Panajachel	8	Panajachel	2	Febrero	2023-02-14T00:00:00	2024-11-08T07:00:00	1	Precipitación	0
19700	7	Sololá	710	Panajachel	8	Panajachel	2	Febrero	2023-02-14T00:00:00	2024-11-08T07:00:00	8	Radiación solar	4
19701	7	Sololá	710	Panajachel	8	Panajachel	2	Febrero	2023-02-14T00:00:00	2024-11-08T08:00:00	2	Temperatura media	17
19702	7	Sololá	710	Panajachel	8	Panajachel	2	Febrero	2023-02-14T00:00:00	2024-11-08T08:00:00	4	Temperatura máxima	17
19703	7	Sololá	710	Panajachel	8	Panajachel	2	Febrero	2023-02-14T00:00:00	2024-11-08T08:00:00	3	Temperatura mínima	13.7
19704	7	Sololá	710	Panajachel	8	Panajachel	2	Febrero	2023-02-14T00:00:00	2024-11-08T08:00:00	5	Humedad	69
19705	7	Sololá	710	Panajachel	8	Panajachel	2	Febrero	2023-02-14T00:00:00	2024-11-08T08:00:00	6	Velocidad del viento	1.6
19706	7	Sololá	710	Panajachel	8	Panajachel	2	Febrero	2023-02-14T00:00:00	2024-11-08T08:00:00	7	Dirección del viento	1.61
19707	7	Sololá	710	Panajachel	8	Panajachel	2	Febrero	2023-02-14T00:00:00	2024-11-08T08:00:00	1	Precipitación	0
19708	7	Sololá	710	Panajachel	8	Panajachel	2	Febrero	2023-02-14T00:00:00	2024-11-08T08:00:00	8	Radiación solar	124
19709	7	Sololá	710	Panajachel	8	Panajachel	2	Febrero	2023-02-14T00:00:00	2024-11-08T09:00:00	2	Temperatura media	18.4
19710	7	Sololá	710	Panajachel	8	Panajachel	2	Febrero	2023-02-14T00:00:00	2024-11-08T09:00:00	4	Temperatura máxima	18.4
19711	7	Sololá	710	Panajachel	8	Panajachel	2	Febrero	2023-02-14T00:00:00	2024-11-08T09:00:00	3	Temperatura mínima	17
19712	7	Sololá	710	Panajachel	8	Panajachel	2	Febrero	2023-02-14T00:00:00	2024-11-08T09:00:00	5	Humedad	71
19713	7	Sololá	710	Panajachel	8	Panajachel	2	Febrero	2023-02-14T00:00:00	2024-11-08T09:00:00	6	Velocidad del viento	1.6
19714	7	Sololá	710	Panajachel	8	Panajachel	2	Febrero	2023-02-14T00:00:00	2024-11-08T09:00:00	7	Dirección del viento	1.61
19715	7	Sololá	710	Panajachel	8	Panajachel	2	Febrero	2023-02-14T00:00:00	2024-11-08T09:00:00	1	Precipitación	0
19716	7	Sololá	710	Panajachel	8	Panajachel	2	Febrero	2023-02-14T00:00:00	2024-11-08T09:00:00	8	Radiación solar	413
19717	7	Sololá	710	Panajachel	8	Panajachel	2	Febrero	2023-02-14T00:00:00	2024-11-08T10:00:00	2	Temperatura media	20.4
19718	7	Sololá	710	Panajachel	8	Panajachel	2	Febrero	2023-02-14T00:00:00	2024-11-08T10:00:00	4	Temperatura máxima	20.5
19719	7	Sololá	710	Panajachel	8	Panajachel	2	Febrero	2023-02-14T00:00:00	2024-11-08T10:00:00	3	Temperatura mínima	18.4
19720	7	Sololá	710	Panajachel	8	Panajachel	2	Febrero	2023-02-14T00:00:00	2024-11-08T10:00:00	5	Humedad	65
19721	7	Sololá	710	Panajachel	8	Panajachel	2	Febrero	2023-02-14T00:00:00	2024-11-08T10:00:00	6	Velocidad del viento	3.2
19722	7	Sololá	710	Panajachel	8	Panajachel	2	Febrero	2023-02-14T00:00:00	2024-11-08T10:00:00	7	Dirección del viento	3.22
19723	7	Sololá	710	Panajachel	8	Panajachel	2	Febrero	2023-02-14T00:00:00	2024-11-08T10:00:00	1	Precipitación	0
19724	7	Sololá	710	Panajachel	8	Panajachel	2	Febrero	2023-02-14T00:00:00	2024-11-08T10:00:00	8	Radiación solar	624
19725	7	Sololá	710	Panajachel	8	Panajachel	2	Febrero	2023-02-14T00:00:00	2024-11-08T11:00:00	2	Temperatura media	21.8
19726	7	Sololá	710	Panajachel	8	Panajachel	2	Febrero	2023-02-14T00:00:00	2024-11-08T11:00:00	4	Temperatura máxima	21.8
19727	7	Sololá	710	Panajachel	8	Panajachel	2	Febrero	2023-02-14T00:00:00	2024-11-08T11:00:00	3	Temperatura mínima	20.4
19728	7	Sololá	710	Panajachel	8	Panajachel	2	Febrero	2023-02-14T00:00:00	2024-11-08T11:00:00	5	Humedad	61
19729	7	Sololá	710	Panajachel	8	Panajachel	2	Febrero	2023-02-14T00:00:00	2024-11-08T11:00:00	6	Velocidad del viento	3.2
19730	7	Sololá	710	Panajachel	8	Panajachel	2	Febrero	2023-02-14T00:00:00	2024-11-08T11:00:00	7	Dirección del viento	3.22
19731	7	Sololá	710	Panajachel	8	Panajachel	2	Febrero	2023-02-14T00:00:00	2024-11-08T11:00:00	1	Precipitación	0
19732	7	Sololá	710	Panajachel	8	Panajachel	2	Febrero	2023-02-14T00:00:00	2024-11-08T11:00:00	8	Radiación solar	783
19733	7	Sololá	710	Panajachel	8	Panajachel	2	Febrero	2023-02-14T00:00:00	2024-11-08T12:00:00	2	Temperatura media	22.8
19734	7	Sololá	710	Panajachel	8	Panajachel	2	Febrero	2023-02-14T00:00:00	2024-11-08T12:00:00	4	Temperatura máxima	22.8
19735	7	Sololá	710	Panajachel	8	Panajachel	2	Febrero	2023-02-14T00:00:00	2024-11-08T12:00:00	3	Temperatura mínima	21.3
19736	7	Sololá	710	Panajachel	8	Panajachel	2	Febrero	2023-02-14T00:00:00	2024-11-08T12:00:00	5	Humedad	59
19737	7	Sololá	710	Panajachel	8	Panajachel	2	Febrero	2023-02-14T00:00:00	2024-11-08T12:00:00	6	Velocidad del viento	3.2
19738	7	Sololá	710	Panajachel	8	Panajachel	2	Febrero	2023-02-14T00:00:00	2024-11-08T12:00:00	7	Dirección del viento	3.22
19739	7	Sololá	710	Panajachel	8	Panajachel	2	Febrero	2023-02-14T00:00:00	2024-11-08T12:00:00	1	Precipitación	0
19740	7	Sololá	710	Panajachel	8	Panajachel	2	Febrero	2023-02-14T00:00:00	2024-11-08T12:00:00	8	Radiación solar	873
19741	7	Sololá	710	Panajachel	8	Panajachel	2	Febrero	2023-02-14T00:00:00	2024-11-08T13:00:00	2	Temperatura media	23.6
19742	7	Sololá	710	Panajachel	8	Panajachel	2	Febrero	2023-02-14T00:00:00	2024-11-08T13:00:00	4	Temperatura máxima	23.6
19743	7	Sololá	710	Panajachel	8	Panajachel	2	Febrero	2023-02-14T00:00:00	2024-11-08T13:00:00	3	Temperatura mínima	22.8
19744	7	Sololá	710	Panajachel	8	Panajachel	2	Febrero	2023-02-14T00:00:00	2024-11-08T13:00:00	5	Humedad	64
19745	7	Sololá	710	Panajachel	8	Panajachel	2	Febrero	2023-02-14T00:00:00	2024-11-08T13:00:00	6	Velocidad del viento	4.8
19746	7	Sololá	710	Panajachel	8	Panajachel	2	Febrero	2023-02-14T00:00:00	2024-11-08T13:00:00	7	Dirección del viento	4.83
19747	7	Sololá	710	Panajachel	8	Panajachel	2	Febrero	2023-02-14T00:00:00	2024-11-08T13:00:00	1	Precipitación	0
19748	7	Sololá	710	Panajachel	8	Panajachel	2	Febrero	2023-02-14T00:00:00	2024-11-08T13:00:00	8	Radiación solar	891
19749	7	Sololá	710	Panajachel	8	Panajachel	2	Febrero	2023-02-14T00:00:00	2024-11-08T14:00:00	2	Temperatura media	24.3
19750	7	Sololá	710	Panajachel	8	Panajachel	2	Febrero	2023-02-14T00:00:00	2024-11-08T14:00:00	4	Temperatura máxima	24.4
19751	7	Sololá	710	Panajachel	8	Panajachel	2	Febrero	2023-02-14T00:00:00	2024-11-08T14:00:00	3	Temperatura mínima	23.3
19752	7	Sololá	710	Panajachel	8	Panajachel	2	Febrero	2023-02-14T00:00:00	2024-11-08T14:00:00	5	Humedad	65
19753	7	Sololá	710	Panajachel	8	Panajachel	2	Febrero	2023-02-14T00:00:00	2024-11-08T14:00:00	6	Velocidad del viento	4.8
19754	7	Sololá	710	Panajachel	8	Panajachel	2	Febrero	2023-02-14T00:00:00	2024-11-08T14:00:00	7	Dirección del viento	4.83
19755	7	Sololá	710	Panajachel	8	Panajachel	2	Febrero	2023-02-14T00:00:00	2024-11-08T14:00:00	1	Precipitación	0
19756	7	Sololá	710	Panajachel	8	Panajachel	2	Febrero	2023-02-14T00:00:00	2024-11-08T14:00:00	8	Radiación solar	842
19757	7	Sololá	710	Panajachel	8	Panajachel	2	Febrero	2023-02-14T00:00:00	2024-11-08T15:00:00	2	Temperatura media	22.6
19758	7	Sololá	710	Panajachel	8	Panajachel	2	Febrero	2023-02-14T00:00:00	2024-11-08T15:00:00	4	Temperatura máxima	24.3
19759	7	Sololá	710	Panajachel	8	Panajachel	2	Febrero	2023-02-14T00:00:00	2024-11-08T15:00:00	3	Temperatura mínima	22.6
19760	7	Sololá	710	Panajachel	8	Panajachel	2	Febrero	2023-02-14T00:00:00	2024-11-08T15:00:00	5	Humedad	74
19761	7	Sololá	710	Panajachel	8	Panajachel	2	Febrero	2023-02-14T00:00:00	2024-11-08T15:00:00	6	Velocidad del viento	9.7
19762	7	Sololá	710	Panajachel	8	Panajachel	2	Febrero	2023-02-14T00:00:00	2024-11-08T15:00:00	7	Dirección del viento	9.66
19763	7	Sololá	710	Panajachel	8	Panajachel	2	Febrero	2023-02-14T00:00:00	2024-11-08T15:00:00	1	Precipitación	0
19764	7	Sololá	710	Panajachel	8	Panajachel	2	Febrero	2023-02-14T00:00:00	2024-11-08T15:00:00	8	Radiación solar	718
19765	7	Sololá	710	Panajachel	8	Panajachel	2	Febrero	2023-02-14T00:00:00	2024-11-08T16:00:00	2	Temperatura media	22.6
19766	7	Sololá	710	Panajachel	8	Panajachel	2	Febrero	2023-02-14T00:00:00	2024-11-08T16:00:00	4	Temperatura máxima	23.1
19767	7	Sololá	710	Panajachel	8	Panajachel	2	Febrero	2023-02-14T00:00:00	2024-11-08T16:00:00	3	Temperatura mínima	22.4
19768	7	Sololá	710	Panajachel	8	Panajachel	2	Febrero	2023-02-14T00:00:00	2024-11-08T16:00:00	5	Humedad	73
19769	7	Sololá	710	Panajachel	8	Panajachel	2	Febrero	2023-02-14T00:00:00	2024-11-08T16:00:00	6	Velocidad del viento	8
19770	7	Sololá	710	Panajachel	8	Panajachel	2	Febrero	2023-02-14T00:00:00	2024-11-08T16:00:00	7	Dirección del viento	8.05
19771	7	Sololá	710	Panajachel	8	Panajachel	2	Febrero	2023-02-14T00:00:00	2024-11-08T16:00:00	1	Precipitación	0
19772	7	Sololá	710	Panajachel	8	Panajachel	2	Febrero	2023-02-14T00:00:00	2024-11-08T16:00:00	8	Radiación solar	535
19773	7	Sololá	710	Panajachel	8	Panajachel	2	Febrero	2023-02-14T00:00:00	2024-11-08T17:00:00	2	Temperatura media	21.9
19774	7	Sololá	710	Panajachel	8	Panajachel	2	Febrero	2023-02-14T00:00:00	2024-11-08T17:00:00	4	Temperatura máxima	22.8
19775	7	Sololá	710	Panajachel	8	Panajachel	2	Febrero	2023-02-14T00:00:00	2024-11-08T17:00:00	3	Temperatura mínima	21.9
19776	7	Sololá	710	Panajachel	8	Panajachel	2	Febrero	2023-02-14T00:00:00	2024-11-08T17:00:00	5	Humedad	75
19777	7	Sololá	710	Panajachel	8	Panajachel	2	Febrero	2023-02-14T00:00:00	2024-11-08T17:00:00	6	Velocidad del viento	6.4
19778	7	Sololá	710	Panajachel	8	Panajachel	2	Febrero	2023-02-14T00:00:00	2024-11-08T17:00:00	7	Dirección del viento	6.44
19779	7	Sololá	710	Panajachel	8	Panajachel	2	Febrero	2023-02-14T00:00:00	2024-11-08T17:00:00	1	Precipitación	0
19780	7	Sololá	710	Panajachel	8	Panajachel	2	Febrero	2023-02-14T00:00:00	2024-11-08T17:00:00	8	Radiación solar	313
19781	7	Sololá	710	Panajachel	8	Panajachel	2	Febrero	2023-02-14T00:00:00	2024-11-08T18:00:00	2	Temperatura media	20.9
19782	7	Sololá	710	Panajachel	8	Panajachel	2	Febrero	2023-02-14T00:00:00	2024-11-08T18:00:00	4	Temperatura máxima	21.9
19783	7	Sololá	710	Panajachel	8	Panajachel	2	Febrero	2023-02-14T00:00:00	2024-11-08T18:00:00	3	Temperatura mínima	20.9
19784	7	Sololá	710	Panajachel	8	Panajachel	2	Febrero	2023-02-14T00:00:00	2024-11-08T18:00:00	5	Humedad	78
19785	7	Sololá	710	Panajachel	8	Panajachel	2	Febrero	2023-02-14T00:00:00	2024-11-08T18:00:00	6	Velocidad del viento	3.2
19786	7	Sololá	710	Panajachel	8	Panajachel	2	Febrero	2023-02-14T00:00:00	2024-11-08T18:00:00	7	Dirección del viento	3.22
19787	7	Sololá	710	Panajachel	8	Panajachel	2	Febrero	2023-02-14T00:00:00	2024-11-08T18:00:00	1	Precipitación	0
19788	7	Sololá	710	Panajachel	8	Panajachel	2	Febrero	2023-02-14T00:00:00	2024-11-08T18:00:00	8	Radiación solar	72
19789	7	Sololá	710	Panajachel	8	Panajachel	2	Febrero	2023-02-14T00:00:00	2024-11-08T19:00:00	2	Temperatura media	19.5
19790	7	Sololá	710	Panajachel	8	Panajachel	2	Febrero	2023-02-14T00:00:00	2024-11-08T19:00:00	4	Temperatura máxima	20.9
19791	7	Sololá	710	Panajachel	8	Panajachel	2	Febrero	2023-02-14T00:00:00	2024-11-08T19:00:00	3	Temperatura mínima	19.4
19792	7	Sololá	710	Panajachel	8	Panajachel	2	Febrero	2023-02-14T00:00:00	2024-11-08T19:00:00	5	Humedad	84
19793	7	Sololá	710	Panajachel	8	Panajachel	2	Febrero	2023-02-14T00:00:00	2024-11-08T19:00:00	6	Velocidad del viento	0
19794	7	Sololá	710	Panajachel	8	Panajachel	2	Febrero	2023-02-14T00:00:00	2024-11-08T19:00:00	7	Dirección del viento	0
19795	7	Sololá	710	Panajachel	8	Panajachel	2	Febrero	2023-02-14T00:00:00	2024-11-08T19:00:00	1	Precipitación	0
19796	7	Sololá	710	Panajachel	8	Panajachel	2	Febrero	2023-02-14T00:00:00	2024-11-08T19:00:00	8	Radiación solar	0
19797	7	Sololá	710	Panajachel	8	Panajachel	2	Febrero	2023-02-14T00:00:00	2024-11-08T20:00:00	2	Temperatura media	17.8
19798	7	Sololá	710	Panajachel	8	Panajachel	2	Febrero	2023-02-14T00:00:00	2024-11-08T20:00:00	4	Temperatura máxima	19.5
19799	7	Sololá	710	Panajachel	8	Panajachel	2	Febrero	2023-02-14T00:00:00	2024-11-08T20:00:00	3	Temperatura mínima	17.8
19800	7	Sololá	710	Panajachel	8	Panajachel	2	Febrero	2023-02-14T00:00:00	2024-11-08T20:00:00	5	Humedad	84
19801	7	Sololá	710	Panajachel	8	Panajachel	2	Febrero	2023-02-14T00:00:00	2024-11-08T20:00:00	6	Velocidad del viento	3.2
19802	7	Sololá	710	Panajachel	8	Panajachel	2	Febrero	2023-02-14T00:00:00	2024-11-08T20:00:00	7	Dirección del viento	3.22
19803	7	Sololá	710	Panajachel	8	Panajachel	2	Febrero	2023-02-14T00:00:00	2024-11-08T20:00:00	1	Precipitación	0
19804	7	Sololá	710	Panajachel	8	Panajachel	2	Febrero	2023-02-14T00:00:00	2024-11-08T20:00:00	8	Radiación solar	0
19805	7	Sololá	710	Panajachel	8	Panajachel	2	Febrero	2023-02-14T00:00:00	2024-11-08T21:00:00	2	Temperatura media	17.3
19806	7	Sololá	710	Panajachel	8	Panajachel	2	Febrero	2023-02-14T00:00:00	2024-11-08T21:00:00	4	Temperatura máxima	17.8
19807	7	Sololá	710	Panajachel	8	Panajachel	2	Febrero	2023-02-14T00:00:00	2024-11-08T21:00:00	3	Temperatura mínima	17.3
19808	7	Sololá	710	Panajachel	8	Panajachel	2	Febrero	2023-02-14T00:00:00	2024-11-08T21:00:00	5	Humedad	79
19809	7	Sololá	710	Panajachel	8	Panajachel	2	Febrero	2023-02-14T00:00:00	2024-11-08T21:00:00	6	Velocidad del viento	4.8
19810	7	Sololá	710	Panajachel	8	Panajachel	2	Febrero	2023-02-14T00:00:00	2024-11-08T21:00:00	7	Dirección del viento	4.83
19811	7	Sololá	710	Panajachel	8	Panajachel	2	Febrero	2023-02-14T00:00:00	2024-11-08T21:00:00	1	Precipitación	0
19812	7	Sololá	710	Panajachel	8	Panajachel	2	Febrero	2023-02-14T00:00:00	2024-11-08T21:00:00	8	Radiación solar	0
19813	7	Sololá	710	Panajachel	8	Panajachel	2	Febrero	2023-02-14T00:00:00	2024-11-08T22:00:00	2	Temperatura media	16.8
19814	7	Sololá	710	Panajachel	8	Panajachel	2	Febrero	2023-02-14T00:00:00	2024-11-08T22:00:00	4	Temperatura máxima	17.3
19815	7	Sololá	710	Panajachel	8	Panajachel	2	Febrero	2023-02-14T00:00:00	2024-11-08T22:00:00	3	Temperatura mínima	16.8
19816	7	Sololá	710	Panajachel	8	Panajachel	2	Febrero	2023-02-14T00:00:00	2024-11-08T22:00:00	5	Humedad	74
19817	7	Sololá	710	Panajachel	8	Panajachel	2	Febrero	2023-02-14T00:00:00	2024-11-08T22:00:00	6	Velocidad del viento	6.4
19818	7	Sololá	710	Panajachel	8	Panajachel	2	Febrero	2023-02-14T00:00:00	2024-11-08T22:00:00	7	Dirección del viento	6.44
19819	7	Sololá	710	Panajachel	8	Panajachel	2	Febrero	2023-02-14T00:00:00	2024-11-08T22:00:00	1	Precipitación	0
19820	7	Sololá	710	Panajachel	8	Panajachel	2	Febrero	2023-02-14T00:00:00	2024-11-08T22:00:00	8	Radiación solar	0
19821	7	Sololá	710	Panajachel	8	Panajachel	2	Febrero	2023-02-14T00:00:00	2024-11-08T23:00:00	2	Temperatura media	16.4
19822	7	Sololá	710	Panajachel	8	Panajachel	2	Febrero	2023-02-14T00:00:00	2024-11-08T23:00:00	4	Temperatura máxima	17
19823	7	Sololá	710	Panajachel	8	Panajachel	2	Febrero	2023-02-14T00:00:00	2024-11-08T23:00:00	3	Temperatura mínima	16.3
19824	7	Sololá	710	Panajachel	8	Panajachel	2	Febrero	2023-02-14T00:00:00	2024-11-08T23:00:00	5	Humedad	74
19825	7	Sololá	710	Panajachel	8	Panajachel	2	Febrero	2023-02-14T00:00:00	2024-11-08T23:00:00	6	Velocidad del viento	1.6
19826	7	Sololá	710	Panajachel	8	Panajachel	2	Febrero	2023-02-14T00:00:00	2024-11-08T23:00:00	7	Dirección del viento	1.61
19827	7	Sololá	710	Panajachel	8	Panajachel	2	Febrero	2023-02-14T00:00:00	2024-11-08T23:00:00	1	Precipitación	0
19828	7	Sololá	710	Panajachel	8	Panajachel	2	Febrero	2023-02-14T00:00:00	2024-11-08T23:00:00	8	Radiación solar	0
19829	7	Sololá	710	Panajachel	8	Panajachel	2	Febrero	2023-02-15T00:00:00	2024-11-08T00:00:00	2	Temperatura media	15.9
19830	7	Sololá	710	Panajachel	8	Panajachel	2	Febrero	2023-02-15T00:00:00	2024-11-08T00:00:00	4	Temperatura máxima	16.4
19831	7	Sololá	710	Panajachel	8	Panajachel	2	Febrero	2023-02-15T00:00:00	2024-11-08T00:00:00	3	Temperatura mínima	15.9
19832	7	Sololá	710	Panajachel	8	Panajachel	2	Febrero	2023-02-15T00:00:00	2024-11-08T00:00:00	5	Humedad	74
19833	7	Sololá	710	Panajachel	8	Panajachel	2	Febrero	2023-02-15T00:00:00	2024-11-08T00:00:00	6	Velocidad del viento	3.2
19834	7	Sololá	710	Panajachel	8	Panajachel	2	Febrero	2023-02-15T00:00:00	2024-11-08T00:00:00	7	Dirección del viento	3.22
19835	7	Sololá	710	Panajachel	8	Panajachel	2	Febrero	2023-02-15T00:00:00	2024-11-08T00:00:00	1	Precipitación	0
19836	7	Sololá	710	Panajachel	8	Panajachel	2	Febrero	2023-02-15T00:00:00	2024-11-08T00:00:00	8	Radiación solar	0
19837	7	Sololá	710	Panajachel	8	Panajachel	2	Febrero	2023-02-15T00:00:00	2024-11-08T01:00:00	2	Temperatura media	15.4
19838	7	Sololá	710	Panajachel	8	Panajachel	2	Febrero	2023-02-15T00:00:00	2024-11-08T01:00:00	4	Temperatura máxima	16
19839	7	Sololá	710	Panajachel	8	Panajachel	2	Febrero	2023-02-15T00:00:00	2024-11-08T01:00:00	3	Temperatura mínima	15.4
19840	7	Sololá	710	Panajachel	8	Panajachel	2	Febrero	2023-02-15T00:00:00	2024-11-08T01:00:00	5	Humedad	78
19841	7	Sololá	710	Panajachel	8	Panajachel	2	Febrero	2023-02-15T00:00:00	2024-11-08T01:00:00	6	Velocidad del viento	3.2
19842	7	Sololá	710	Panajachel	8	Panajachel	2	Febrero	2023-02-15T00:00:00	2024-11-08T01:00:00	7	Dirección del viento	3.22
19843	7	Sololá	710	Panajachel	8	Panajachel	2	Febrero	2023-02-15T00:00:00	2024-11-08T01:00:00	1	Precipitación	0
19844	7	Sololá	710	Panajachel	8	Panajachel	2	Febrero	2023-02-15T00:00:00	2024-11-08T01:00:00	8	Radiación solar	0
19845	7	Sololá	710	Panajachel	8	Panajachel	2	Febrero	2023-02-15T00:00:00	2024-11-08T02:00:00	2	Temperatura media	15.1
19846	7	Sololá	710	Panajachel	8	Panajachel	2	Febrero	2023-02-15T00:00:00	2024-11-08T02:00:00	4	Temperatura máxima	15.5
19847	7	Sololá	710	Panajachel	8	Panajachel	2	Febrero	2023-02-15T00:00:00	2024-11-08T02:00:00	3	Temperatura mínima	15
19848	7	Sololá	710	Panajachel	8	Panajachel	2	Febrero	2023-02-15T00:00:00	2024-11-08T02:00:00	5	Humedad	80
19849	7	Sololá	710	Panajachel	8	Panajachel	2	Febrero	2023-02-15T00:00:00	2024-11-08T02:00:00	6	Velocidad del viento	1.6
19850	7	Sololá	710	Panajachel	8	Panajachel	2	Febrero	2023-02-15T00:00:00	2024-11-08T02:00:00	7	Dirección del viento	1.61
19851	7	Sololá	710	Panajachel	8	Panajachel	2	Febrero	2023-02-15T00:00:00	2024-11-08T02:00:00	1	Precipitación	0
19852	7	Sololá	710	Panajachel	8	Panajachel	2	Febrero	2023-02-15T00:00:00	2024-11-08T02:00:00	8	Radiación solar	0
19853	7	Sololá	710	Panajachel	8	Panajachel	2	Febrero	2023-02-15T00:00:00	2024-11-08T03:00:00	2	Temperatura media	14.5
19854	7	Sololá	710	Panajachel	8	Panajachel	2	Febrero	2023-02-15T00:00:00	2024-11-08T03:00:00	4	Temperatura máxima	15.2
19855	7	Sololá	710	Panajachel	8	Panajachel	2	Febrero	2023-02-15T00:00:00	2024-11-08T03:00:00	3	Temperatura mínima	14.5
19856	7	Sololá	710	Panajachel	8	Panajachel	2	Febrero	2023-02-15T00:00:00	2024-11-08T03:00:00	5	Humedad	81
19857	7	Sololá	710	Panajachel	8	Panajachel	2	Febrero	2023-02-15T00:00:00	2024-11-08T03:00:00	6	Velocidad del viento	1.6
19858	7	Sololá	710	Panajachel	8	Panajachel	2	Febrero	2023-02-15T00:00:00	2024-11-08T03:00:00	7	Dirección del viento	1.61
19859	7	Sololá	710	Panajachel	8	Panajachel	2	Febrero	2023-02-15T00:00:00	2024-11-08T03:00:00	1	Precipitación	0
19860	7	Sololá	710	Panajachel	8	Panajachel	2	Febrero	2023-02-15T00:00:00	2024-11-08T03:00:00	8	Radiación solar	0
19861	7	Sololá	710	Panajachel	8	Panajachel	2	Febrero	2023-02-15T00:00:00	2024-11-08T04:00:00	2	Temperatura media	14.3
19862	7	Sololá	710	Panajachel	8	Panajachel	2	Febrero	2023-02-15T00:00:00	2024-11-08T04:00:00	4	Temperatura máxima	14.6
19863	7	Sololá	710	Panajachel	8	Panajachel	2	Febrero	2023-02-15T00:00:00	2024-11-08T04:00:00	3	Temperatura mínima	14.3
19864	7	Sololá	710	Panajachel	8	Panajachel	2	Febrero	2023-02-15T00:00:00	2024-11-08T04:00:00	5	Humedad	79
19865	7	Sololá	710	Panajachel	8	Panajachel	2	Febrero	2023-02-15T00:00:00	2024-11-08T04:00:00	6	Velocidad del viento	1.6
19866	7	Sololá	710	Panajachel	8	Panajachel	2	Febrero	2023-02-15T00:00:00	2024-11-08T04:00:00	7	Dirección del viento	1.61
19867	7	Sololá	710	Panajachel	8	Panajachel	2	Febrero	2023-02-15T00:00:00	2024-11-08T04:00:00	1	Precipitación	0
19868	7	Sololá	710	Panajachel	8	Panajachel	2	Febrero	2023-02-15T00:00:00	2024-11-08T04:00:00	8	Radiación solar	0
19869	7	Sololá	710	Panajachel	8	Panajachel	2	Febrero	2023-02-15T00:00:00	2024-11-08T05:00:00	2	Temperatura media	13.8
19870	7	Sololá	710	Panajachel	8	Panajachel	2	Febrero	2023-02-15T00:00:00	2024-11-08T05:00:00	4	Temperatura máxima	14.3
19871	7	Sololá	710	Panajachel	8	Panajachel	2	Febrero	2023-02-15T00:00:00	2024-11-08T05:00:00	3	Temperatura mínima	13.8
19872	7	Sololá	710	Panajachel	8	Panajachel	2	Febrero	2023-02-15T00:00:00	2024-11-08T05:00:00	5	Humedad	79
19873	7	Sololá	710	Panajachel	8	Panajachel	2	Febrero	2023-02-15T00:00:00	2024-11-08T05:00:00	6	Velocidad del viento	0
19874	7	Sololá	710	Panajachel	8	Panajachel	2	Febrero	2023-02-15T00:00:00	2024-11-08T05:00:00	7	Dirección del viento	0
19875	7	Sololá	710	Panajachel	8	Panajachel	2	Febrero	2023-02-15T00:00:00	2024-11-08T05:00:00	1	Precipitación	0
19876	7	Sololá	710	Panajachel	8	Panajachel	2	Febrero	2023-02-15T00:00:00	2024-11-08T05:00:00	8	Radiación solar	0
19877	7	Sololá	710	Panajachel	8	Panajachel	2	Febrero	2023-02-15T00:00:00	2024-11-08T06:00:00	2	Temperatura media	13.6
19878	7	Sololá	710	Panajachel	8	Panajachel	2	Febrero	2023-02-15T00:00:00	2024-11-08T06:00:00	4	Temperatura máxima	13.8
19879	7	Sololá	710	Panajachel	8	Panajachel	2	Febrero	2023-02-15T00:00:00	2024-11-08T06:00:00	3	Temperatura mínima	13.5
19880	7	Sololá	710	Panajachel	8	Panajachel	2	Febrero	2023-02-15T00:00:00	2024-11-08T06:00:00	5	Humedad	79
19881	7	Sololá	710	Panajachel	8	Panajachel	2	Febrero	2023-02-15T00:00:00	2024-11-08T06:00:00	6	Velocidad del viento	1.6
19882	7	Sololá	710	Panajachel	8	Panajachel	2	Febrero	2023-02-15T00:00:00	2024-11-08T06:00:00	7	Dirección del viento	1.61
19883	7	Sololá	710	Panajachel	8	Panajachel	2	Febrero	2023-02-15T00:00:00	2024-11-08T06:00:00	1	Precipitación	0
19884	7	Sololá	710	Panajachel	8	Panajachel	2	Febrero	2023-02-15T00:00:00	2024-11-08T06:00:00	8	Radiación solar	0
19885	7	Sololá	710	Panajachel	8	Panajachel	2	Febrero	2023-02-15T00:00:00	2024-11-08T07:00:00	2	Temperatura media	13.7
19886	7	Sololá	710	Panajachel	8	Panajachel	2	Febrero	2023-02-15T00:00:00	2024-11-08T07:00:00	4	Temperatura máxima	13.7
19887	7	Sololá	710	Panajachel	8	Panajachel	2	Febrero	2023-02-15T00:00:00	2024-11-08T07:00:00	3	Temperatura mínima	13.3
19888	7	Sololá	710	Panajachel	8	Panajachel	2	Febrero	2023-02-15T00:00:00	2024-11-08T07:00:00	5	Humedad	80
19889	7	Sololá	710	Panajachel	8	Panajachel	2	Febrero	2023-02-15T00:00:00	2024-11-08T07:00:00	6	Velocidad del viento	0
19890	7	Sololá	710	Panajachel	8	Panajachel	2	Febrero	2023-02-15T00:00:00	2024-11-08T07:00:00	7	Dirección del viento	0
19891	7	Sololá	710	Panajachel	8	Panajachel	2	Febrero	2023-02-15T00:00:00	2024-11-08T07:00:00	1	Precipitación	0
19892	7	Sololá	710	Panajachel	8	Panajachel	2	Febrero	2023-02-15T00:00:00	2024-11-08T07:00:00	8	Radiación solar	7
19893	7	Sololá	710	Panajachel	8	Panajachel	2	Febrero	2023-02-15T00:00:00	2024-11-08T08:00:00	2	Temperatura media	16.3
19894	7	Sololá	710	Panajachel	8	Panajachel	2	Febrero	2023-02-15T00:00:00	2024-11-08T08:00:00	4	Temperatura máxima	16.3
19895	7	Sololá	710	Panajachel	8	Panajachel	2	Febrero	2023-02-15T00:00:00	2024-11-08T08:00:00	3	Temperatura mínima	13.6
19896	7	Sololá	710	Panajachel	8	Panajachel	2	Febrero	2023-02-15T00:00:00	2024-11-08T08:00:00	5	Humedad	75
19897	7	Sololá	710	Panajachel	8	Panajachel	2	Febrero	2023-02-15T00:00:00	2024-11-08T08:00:00	6	Velocidad del viento	0
19898	7	Sololá	710	Panajachel	8	Panajachel	2	Febrero	2023-02-15T00:00:00	2024-11-08T08:00:00	7	Dirección del viento	0
19899	7	Sololá	710	Panajachel	8	Panajachel	2	Febrero	2023-02-15T00:00:00	2024-11-08T08:00:00	1	Precipitación	0
19900	7	Sololá	710	Panajachel	8	Panajachel	2	Febrero	2023-02-15T00:00:00	2024-11-08T08:00:00	8	Radiación solar	131
19901	7	Sololá	710	Panajachel	8	Panajachel	2	Febrero	2023-02-15T00:00:00	2024-11-08T09:00:00	2	Temperatura media	18.5
19902	7	Sololá	710	Panajachel	8	Panajachel	2	Febrero	2023-02-15T00:00:00	2024-11-08T09:00:00	4	Temperatura máxima	18.5
19903	7	Sololá	710	Panajachel	8	Panajachel	2	Febrero	2023-02-15T00:00:00	2024-11-08T09:00:00	3	Temperatura mínima	16.3
19904	7	Sololá	710	Panajachel	8	Panajachel	2	Febrero	2023-02-15T00:00:00	2024-11-08T09:00:00	5	Humedad	77
19905	7	Sololá	710	Panajachel	8	Panajachel	2	Febrero	2023-02-15T00:00:00	2024-11-08T09:00:00	6	Velocidad del viento	1.6
19906	7	Sololá	710	Panajachel	8	Panajachel	2	Febrero	2023-02-15T00:00:00	2024-11-08T09:00:00	7	Dirección del viento	1.61
19907	7	Sololá	710	Panajachel	8	Panajachel	2	Febrero	2023-02-15T00:00:00	2024-11-08T09:00:00	1	Precipitación	0
19908	7	Sololá	710	Panajachel	8	Panajachel	2	Febrero	2023-02-15T00:00:00	2024-11-08T09:00:00	8	Radiación solar	401
19909	7	Sololá	710	Panajachel	8	Panajachel	2	Febrero	2023-02-15T00:00:00	2024-11-08T10:00:00	2	Temperatura media	19.8
19910	7	Sololá	710	Panajachel	8	Panajachel	2	Febrero	2023-02-15T00:00:00	2024-11-08T10:00:00	4	Temperatura máxima	19.8
19911	7	Sololá	710	Panajachel	8	Panajachel	2	Febrero	2023-02-15T00:00:00	2024-11-08T10:00:00	3	Temperatura mínima	18.5
19912	7	Sololá	710	Panajachel	8	Panajachel	2	Febrero	2023-02-15T00:00:00	2024-11-08T10:00:00	5	Humedad	73
19913	7	Sololá	710	Panajachel	8	Panajachel	2	Febrero	2023-02-15T00:00:00	2024-11-08T10:00:00	6	Velocidad del viento	3.2
19914	7	Sololá	710	Panajachel	8	Panajachel	2	Febrero	2023-02-15T00:00:00	2024-11-08T10:00:00	7	Dirección del viento	3.22
19915	7	Sololá	710	Panajachel	8	Panajachel	2	Febrero	2023-02-15T00:00:00	2024-11-08T10:00:00	1	Precipitación	0
19916	7	Sololá	710	Panajachel	8	Panajachel	2	Febrero	2023-02-15T00:00:00	2024-11-08T10:00:00	8	Radiación solar	618
19917	7	Sololá	710	Panajachel	8	Panajachel	2	Febrero	2023-02-15T00:00:00	2024-11-08T11:00:00	2	Temperatura media	21.2
19918	7	Sololá	710	Panajachel	8	Panajachel	2	Febrero	2023-02-15T00:00:00	2024-11-08T11:00:00	4	Temperatura máxima	21.2
19919	7	Sololá	710	Panajachel	8	Panajachel	2	Febrero	2023-02-15T00:00:00	2024-11-08T11:00:00	3	Temperatura mínima	19.8
19920	7	Sololá	710	Panajachel	8	Panajachel	2	Febrero	2023-02-15T00:00:00	2024-11-08T11:00:00	5	Humedad	67
19921	7	Sololá	710	Panajachel	8	Panajachel	2	Febrero	2023-02-15T00:00:00	2024-11-08T11:00:00	6	Velocidad del viento	3.2
19922	7	Sololá	710	Panajachel	8	Panajachel	2	Febrero	2023-02-15T00:00:00	2024-11-08T11:00:00	7	Dirección del viento	3.22
19923	7	Sololá	710	Panajachel	8	Panajachel	2	Febrero	2023-02-15T00:00:00	2024-11-08T11:00:00	1	Precipitación	0
19924	7	Sololá	710	Panajachel	8	Panajachel	2	Febrero	2023-02-15T00:00:00	2024-11-08T11:00:00	8	Radiación solar	780
19925	7	Sololá	710	Panajachel	8	Panajachel	2	Febrero	2023-02-15T00:00:00	2024-11-08T12:00:00	2	Temperatura media	22.9
19926	7	Sololá	710	Panajachel	8	Panajachel	2	Febrero	2023-02-15T00:00:00	2024-11-08T12:00:00	4	Temperatura máxima	23.1
19927	7	Sololá	710	Panajachel	8	Panajachel	2	Febrero	2023-02-15T00:00:00	2024-11-08T12:00:00	3	Temperatura mínima	21.2
19928	7	Sololá	710	Panajachel	8	Panajachel	2	Febrero	2023-02-15T00:00:00	2024-11-08T12:00:00	5	Humedad	63
19929	7	Sololá	710	Panajachel	8	Panajachel	2	Febrero	2023-02-15T00:00:00	2024-11-08T12:00:00	6	Velocidad del viento	3.2
19930	7	Sololá	710	Panajachel	8	Panajachel	2	Febrero	2023-02-15T00:00:00	2024-11-08T12:00:00	7	Dirección del viento	3.22
19931	7	Sololá	710	Panajachel	8	Panajachel	2	Febrero	2023-02-15T00:00:00	2024-11-08T12:00:00	1	Precipitación	0
19932	7	Sololá	710	Panajachel	8	Panajachel	2	Febrero	2023-02-15T00:00:00	2024-11-08T12:00:00	8	Radiación solar	867
19933	7	Sololá	710	Panajachel	8	Panajachel	2	Febrero	2023-02-15T00:00:00	2024-11-08T13:00:00	2	Temperatura media	23.4
19934	7	Sololá	710	Panajachel	8	Panajachel	2	Febrero	2023-02-15T00:00:00	2024-11-08T13:00:00	4	Temperatura máxima	23.6
19935	7	Sololá	710	Panajachel	8	Panajachel	2	Febrero	2023-02-15T00:00:00	2024-11-08T13:00:00	3	Temperatura mínima	22.7
19936	7	Sololá	710	Panajachel	8	Panajachel	2	Febrero	2023-02-15T00:00:00	2024-11-08T13:00:00	5	Humedad	70
19937	7	Sololá	710	Panajachel	8	Panajachel	2	Febrero	2023-02-15T00:00:00	2024-11-08T13:00:00	6	Velocidad del viento	4.8
19938	7	Sololá	710	Panajachel	8	Panajachel	2	Febrero	2023-02-15T00:00:00	2024-11-08T13:00:00	7	Dirección del viento	4.83
19939	7	Sololá	710	Panajachel	8	Panajachel	2	Febrero	2023-02-15T00:00:00	2024-11-08T13:00:00	1	Precipitación	0
19940	7	Sololá	710	Panajachel	8	Panajachel	2	Febrero	2023-02-15T00:00:00	2024-11-08T13:00:00	8	Radiación solar	882
19941	7	Sololá	710	Panajachel	8	Panajachel	2	Febrero	2023-02-15T00:00:00	2024-11-08T14:00:00	2	Temperatura media	22.3
19942	7	Sololá	710	Panajachel	8	Panajachel	2	Febrero	2023-02-15T00:00:00	2024-11-08T14:00:00	4	Temperatura máxima	24.2
19943	7	Sololá	710	Panajachel	8	Panajachel	2	Febrero	2023-02-15T00:00:00	2024-11-08T14:00:00	3	Temperatura mínima	22.3
19944	7	Sololá	710	Panajachel	8	Panajachel	2	Febrero	2023-02-15T00:00:00	2024-11-08T14:00:00	5	Humedad	73
19945	7	Sololá	710	Panajachel	8	Panajachel	2	Febrero	2023-02-15T00:00:00	2024-11-08T14:00:00	6	Velocidad del viento	4.8
19946	7	Sololá	710	Panajachel	8	Panajachel	2	Febrero	2023-02-15T00:00:00	2024-11-08T14:00:00	7	Dirección del viento	4.83
19947	7	Sololá	710	Panajachel	8	Panajachel	2	Febrero	2023-02-15T00:00:00	2024-11-08T14:00:00	1	Precipitación	0
19948	7	Sololá	710	Panajachel	8	Panajachel	2	Febrero	2023-02-15T00:00:00	2024-11-08T14:00:00	8	Radiación solar	638
19949	7	Sololá	710	Panajachel	8	Panajachel	2	Febrero	2023-02-15T00:00:00	2024-11-08T15:00:00	2	Temperatura media	22.9
19950	7	Sololá	710	Panajachel	8	Panajachel	2	Febrero	2023-02-15T00:00:00	2024-11-08T15:00:00	4	Temperatura máxima	22.9
19951	7	Sololá	710	Panajachel	8	Panajachel	2	Febrero	2023-02-15T00:00:00	2024-11-08T15:00:00	3	Temperatura mínima	22.1
19952	7	Sololá	710	Panajachel	8	Panajachel	2	Febrero	2023-02-15T00:00:00	2024-11-08T15:00:00	5	Humedad	74
19953	7	Sololá	710	Panajachel	8	Panajachel	2	Febrero	2023-02-15T00:00:00	2024-11-08T15:00:00	6	Velocidad del viento	4.8
19954	7	Sololá	710	Panajachel	8	Panajachel	2	Febrero	2023-02-15T00:00:00	2024-11-08T15:00:00	7	Dirección del viento	4.83
19955	7	Sololá	710	Panajachel	8	Panajachel	2	Febrero	2023-02-15T00:00:00	2024-11-08T15:00:00	1	Precipitación	0
19956	7	Sololá	710	Panajachel	8	Panajachel	2	Febrero	2023-02-15T00:00:00	2024-11-08T15:00:00	8	Radiación solar	432
19957	7	Sololá	710	Panajachel	8	Panajachel	2	Febrero	2023-02-15T00:00:00	2024-11-08T16:00:00	2	Temperatura media	22.3
19958	7	Sololá	710	Panajachel	8	Panajachel	2	Febrero	2023-02-15T00:00:00	2024-11-08T16:00:00	4	Temperatura máxima	23.4
19959	7	Sololá	710	Panajachel	8	Panajachel	2	Febrero	2023-02-15T00:00:00	2024-11-08T16:00:00	3	Temperatura mínima	22.2
19960	7	Sololá	710	Panajachel	8	Panajachel	2	Febrero	2023-02-15T00:00:00	2024-11-08T16:00:00	5	Humedad	76
19961	7	Sololá	710	Panajachel	8	Panajachel	2	Febrero	2023-02-15T00:00:00	2024-11-08T16:00:00	6	Velocidad del viento	4.8
19962	7	Sololá	710	Panajachel	8	Panajachel	2	Febrero	2023-02-15T00:00:00	2024-11-08T16:00:00	7	Dirección del viento	4.83
19963	7	Sololá	710	Panajachel	8	Panajachel	2	Febrero	2023-02-15T00:00:00	2024-11-08T16:00:00	1	Precipitación	0
19964	7	Sololá	710	Panajachel	8	Panajachel	2	Febrero	2023-02-15T00:00:00	2024-11-08T16:00:00	8	Radiación solar	465
19965	7	Sololá	710	Panajachel	8	Panajachel	2	Febrero	2023-02-15T00:00:00	2024-11-08T17:00:00	2	Temperatura media	21.3
19966	7	Sololá	710	Panajachel	8	Panajachel	2	Febrero	2023-02-15T00:00:00	2024-11-08T17:00:00	4	Temperatura máxima	22.4
19967	7	Sololá	710	Panajachel	8	Panajachel	2	Febrero	2023-02-15T00:00:00	2024-11-08T17:00:00	3	Temperatura mínima	21.3
19968	7	Sololá	710	Panajachel	8	Panajachel	2	Febrero	2023-02-15T00:00:00	2024-11-08T17:00:00	5	Humedad	80
19969	7	Sololá	710	Panajachel	8	Panajachel	2	Febrero	2023-02-15T00:00:00	2024-11-08T17:00:00	6	Velocidad del viento	3.2
19970	7	Sololá	710	Panajachel	8	Panajachel	2	Febrero	2023-02-15T00:00:00	2024-11-08T17:00:00	7	Dirección del viento	3.22
19971	7	Sololá	710	Panajachel	8	Panajachel	2	Febrero	2023-02-15T00:00:00	2024-11-08T17:00:00	1	Precipitación	0
19972	7	Sololá	710	Panajachel	8	Panajachel	2	Febrero	2023-02-15T00:00:00	2024-11-08T17:00:00	8	Radiación solar	313
19973	7	Sololá	710	Panajachel	8	Panajachel	2	Febrero	2023-02-15T00:00:00	2024-11-08T18:00:00	2	Temperatura media	19.9
19974	7	Sololá	710	Panajachel	8	Panajachel	2	Febrero	2023-02-15T00:00:00	2024-11-08T18:00:00	4	Temperatura máxima	21.4
19975	7	Sololá	710	Panajachel	8	Panajachel	2	Febrero	2023-02-15T00:00:00	2024-11-08T18:00:00	3	Temperatura mínima	19.9
19976	7	Sololá	710	Panajachel	8	Panajachel	2	Febrero	2023-02-15T00:00:00	2024-11-08T18:00:00	5	Humedad	84
19977	7	Sololá	710	Panajachel	8	Panajachel	2	Febrero	2023-02-15T00:00:00	2024-11-08T18:00:00	6	Velocidad del viento	0
19978	7	Sololá	710	Panajachel	8	Panajachel	2	Febrero	2023-02-15T00:00:00	2024-11-08T18:00:00	7	Dirección del viento	0
19979	7	Sololá	710	Panajachel	8	Panajachel	2	Febrero	2023-02-15T00:00:00	2024-11-08T18:00:00	1	Precipitación	0
19980	7	Sololá	710	Panajachel	8	Panajachel	2	Febrero	2023-02-15T00:00:00	2024-11-08T18:00:00	8	Radiación solar	72
19981	7	Sololá	710	Panajachel	8	Panajachel	2	Febrero	2023-02-15T00:00:00	2024-11-08T19:00:00	2	Temperatura media	18.9
19982	7	Sololá	710	Panajachel	8	Panajachel	2	Febrero	2023-02-15T00:00:00	2024-11-08T19:00:00	4	Temperatura máxima	19.9
19983	7	Sololá	710	Panajachel	8	Panajachel	2	Febrero	2023-02-15T00:00:00	2024-11-08T19:00:00	3	Temperatura mínima	18.9
19984	7	Sololá	710	Panajachel	8	Panajachel	2	Febrero	2023-02-15T00:00:00	2024-11-08T19:00:00	5	Humedad	90
19985	7	Sololá	710	Panajachel	8	Panajachel	2	Febrero	2023-02-15T00:00:00	2024-11-08T19:00:00	6	Velocidad del viento	1.6
19986	7	Sololá	710	Panajachel	8	Panajachel	2	Febrero	2023-02-15T00:00:00	2024-11-08T19:00:00	7	Dirección del viento	1.61
19987	7	Sololá	710	Panajachel	8	Panajachel	2	Febrero	2023-02-15T00:00:00	2024-11-08T19:00:00	1	Precipitación	0
19988	7	Sololá	710	Panajachel	8	Panajachel	2	Febrero	2023-02-15T00:00:00	2024-11-08T19:00:00	8	Radiación solar	0
19989	7	Sololá	710	Panajachel	8	Panajachel	2	Febrero	2023-02-15T00:00:00	2024-11-08T20:00:00	2	Temperatura media	18.3
19990	7	Sololá	710	Panajachel	8	Panajachel	2	Febrero	2023-02-15T00:00:00	2024-11-08T20:00:00	4	Temperatura máxima	18.9
19991	7	Sololá	710	Panajachel	8	Panajachel	2	Febrero	2023-02-15T00:00:00	2024-11-08T20:00:00	3	Temperatura mínima	18.3
19992	7	Sololá	710	Panajachel	8	Panajachel	2	Febrero	2023-02-15T00:00:00	2024-11-08T20:00:00	5	Humedad	92
19993	7	Sololá	710	Panajachel	8	Panajachel	2	Febrero	2023-02-15T00:00:00	2024-11-08T20:00:00	6	Velocidad del viento	1.6
19994	7	Sololá	710	Panajachel	8	Panajachel	2	Febrero	2023-02-15T00:00:00	2024-11-08T20:00:00	7	Dirección del viento	1.61
19995	7	Sololá	710	Panajachel	8	Panajachel	2	Febrero	2023-02-15T00:00:00	2024-11-08T20:00:00	1	Precipitación	0
19996	7	Sololá	710	Panajachel	8	Panajachel	2	Febrero	2023-02-15T00:00:00	2024-11-08T20:00:00	8	Radiación solar	0
19997	7	Sololá	710	Panajachel	8	Panajachel	2	Febrero	2023-02-15T00:00:00	2024-11-08T21:00:00	2	Temperatura media	17.9
19998	7	Sololá	710	Panajachel	8	Panajachel	2	Febrero	2023-02-15T00:00:00	2024-11-08T21:00:00	4	Temperatura máxima	18.3
19999	7	Sololá	710	Panajachel	8	Panajachel	2	Febrero	2023-02-15T00:00:00	2024-11-08T21:00:00	3	Temperatura mínima	17.9
20000	7	Sololá	710	Panajachel	8	Panajachel	2	Febrero	2023-02-15T00:00:00	2024-11-08T21:00:00	5	Humedad	93
20001	7	Sololá	710	Panajachel	8	Panajachel	2	Febrero	2023-02-15T00:00:00	2024-11-08T21:00:00	6	Velocidad del viento	0
20002	7	Sololá	710	Panajachel	8	Panajachel	2	Febrero	2023-02-15T00:00:00	2024-11-08T21:00:00	7	Dirección del viento	0
20003	7	Sololá	710	Panajachel	8	Panajachel	2	Febrero	2023-02-15T00:00:00	2024-11-08T21:00:00	1	Precipitación	0
20004	7	Sololá	710	Panajachel	8	Panajachel	2	Febrero	2023-02-15T00:00:00	2024-11-08T21:00:00	8	Radiación solar	0
20005	7	Sololá	710	Panajachel	8	Panajachel	2	Febrero	2023-02-15T00:00:00	2024-11-08T22:00:00	2	Temperatura media	17
20006	7	Sololá	710	Panajachel	8	Panajachel	2	Febrero	2023-02-15T00:00:00	2024-11-08T22:00:00	4	Temperatura máxima	17.9
20007	7	Sololá	710	Panajachel	8	Panajachel	2	Febrero	2023-02-15T00:00:00	2024-11-08T22:00:00	3	Temperatura mínima	17
20008	7	Sololá	710	Panajachel	8	Panajachel	2	Febrero	2023-02-15T00:00:00	2024-11-08T22:00:00	5	Humedad	86
20009	7	Sololá	710	Panajachel	8	Panajachel	2	Febrero	2023-02-15T00:00:00	2024-11-08T22:00:00	6	Velocidad del viento	1.6
20010	7	Sololá	710	Panajachel	8	Panajachel	2	Febrero	2023-02-15T00:00:00	2024-11-08T22:00:00	7	Dirección del viento	1.61
20011	7	Sololá	710	Panajachel	8	Panajachel	2	Febrero	2023-02-15T00:00:00	2024-11-08T22:00:00	1	Precipitación	0
20012	7	Sololá	710	Panajachel	8	Panajachel	2	Febrero	2023-02-15T00:00:00	2024-11-08T22:00:00	8	Radiación solar	0
20013	7	Sololá	710	Panajachel	8	Panajachel	2	Febrero	2023-02-15T00:00:00	2024-11-08T23:00:00	2	Temperatura media	16.5
20014	7	Sololá	710	Panajachel	8	Panajachel	2	Febrero	2023-02-15T00:00:00	2024-11-08T23:00:00	4	Temperatura máxima	17
20015	7	Sololá	710	Panajachel	8	Panajachel	2	Febrero	2023-02-15T00:00:00	2024-11-08T23:00:00	3	Temperatura mínima	16.4
20016	7	Sololá	710	Panajachel	8	Panajachel	2	Febrero	2023-02-15T00:00:00	2024-11-08T23:00:00	5	Humedad	86
20017	7	Sololá	710	Panajachel	8	Panajachel	2	Febrero	2023-02-15T00:00:00	2024-11-08T23:00:00	6	Velocidad del viento	0
20018	7	Sololá	710	Panajachel	8	Panajachel	2	Febrero	2023-02-15T00:00:00	2024-11-08T23:00:00	7	Dirección del viento	0
20019	7	Sololá	710	Panajachel	8	Panajachel	2	Febrero	2023-02-15T00:00:00	2024-11-08T23:00:00	1	Precipitación	0
20020	7	Sololá	710	Panajachel	8	Panajachel	2	Febrero	2023-02-15T00:00:00	2024-11-08T23:00:00	8	Radiación solar	0
20021	7	Sololá	710	Panajachel	8	Panajachel	2	Febrero	2023-02-16T00:00:00	2024-11-08T00:00:00	2	Temperatura media	15.8
20022	7	Sololá	710	Panajachel	8	Panajachel	2	Febrero	2023-02-16T00:00:00	2024-11-08T00:00:00	4	Temperatura máxima	16.7
20023	7	Sololá	710	Panajachel	8	Panajachel	2	Febrero	2023-02-16T00:00:00	2024-11-08T00:00:00	3	Temperatura mínima	15.7
20024	7	Sololá	710	Panajachel	8	Panajachel	2	Febrero	2023-02-16T00:00:00	2024-11-08T00:00:00	5	Humedad	84
20025	7	Sololá	710	Panajachel	8	Panajachel	2	Febrero	2023-02-16T00:00:00	2024-11-08T00:00:00	6	Velocidad del viento	0
20026	7	Sololá	710	Panajachel	8	Panajachel	2	Febrero	2023-02-16T00:00:00	2024-11-08T00:00:00	7	Dirección del viento	0
20027	7	Sololá	710	Panajachel	8	Panajachel	2	Febrero	2023-02-16T00:00:00	2024-11-08T00:00:00	1	Precipitación	0
20028	7	Sololá	710	Panajachel	8	Panajachel	2	Febrero	2023-02-16T00:00:00	2024-11-08T00:00:00	8	Radiación solar	0
20029	7	Sololá	710	Panajachel	8	Panajachel	2	Febrero	2023-02-16T00:00:00	2024-11-08T01:00:00	2	Temperatura media	15.3
20030	7	Sololá	710	Panajachel	8	Panajachel	2	Febrero	2023-02-16T00:00:00	2024-11-08T01:00:00	4	Temperatura máxima	15.8
20031	7	Sololá	710	Panajachel	8	Panajachel	2	Febrero	2023-02-16T00:00:00	2024-11-08T01:00:00	3	Temperatura mínima	15.3
20032	7	Sololá	710	Panajachel	8	Panajachel	2	Febrero	2023-02-16T00:00:00	2024-11-08T01:00:00	5	Humedad	77
20033	7	Sololá	710	Panajachel	8	Panajachel	2	Febrero	2023-02-16T00:00:00	2024-11-08T01:00:00	6	Velocidad del viento	1.6
20034	7	Sololá	710	Panajachel	8	Panajachel	2	Febrero	2023-02-16T00:00:00	2024-11-08T01:00:00	7	Dirección del viento	1.61
20035	7	Sololá	710	Panajachel	8	Panajachel	2	Febrero	2023-02-16T00:00:00	2024-11-08T01:00:00	1	Precipitación	0
20036	7	Sololá	710	Panajachel	8	Panajachel	2	Febrero	2023-02-16T00:00:00	2024-11-08T01:00:00	8	Radiación solar	0
20037	7	Sololá	710	Panajachel	8	Panajachel	2	Febrero	2023-02-16T00:00:00	2024-11-08T02:00:00	2	Temperatura media	14.6
20038	7	Sololá	710	Panajachel	8	Panajachel	2	Febrero	2023-02-16T00:00:00	2024-11-08T02:00:00	4	Temperatura máxima	15.3
20039	7	Sololá	710	Panajachel	8	Panajachel	2	Febrero	2023-02-16T00:00:00	2024-11-08T02:00:00	3	Temperatura mínima	14.6
20040	7	Sololá	710	Panajachel	8	Panajachel	2	Febrero	2023-02-16T00:00:00	2024-11-08T02:00:00	5	Humedad	69
20041	7	Sololá	710	Panajachel	8	Panajachel	2	Febrero	2023-02-16T00:00:00	2024-11-08T02:00:00	6	Velocidad del viento	4.8
20042	7	Sololá	710	Panajachel	8	Panajachel	2	Febrero	2023-02-16T00:00:00	2024-11-08T02:00:00	7	Dirección del viento	4.83
20043	7	Sololá	710	Panajachel	8	Panajachel	2	Febrero	2023-02-16T00:00:00	2024-11-08T02:00:00	1	Precipitación	0
20044	7	Sololá	710	Panajachel	8	Panajachel	2	Febrero	2023-02-16T00:00:00	2024-11-08T02:00:00	8	Radiación solar	0
20045	7	Sololá	710	Panajachel	8	Panajachel	2	Febrero	2023-02-16T00:00:00	2024-11-08T03:00:00	2	Temperatura media	13.6
20046	7	Sololá	710	Panajachel	8	Panajachel	2	Febrero	2023-02-16T00:00:00	2024-11-08T03:00:00	4	Temperatura máxima	14.7
20047	7	Sololá	710	Panajachel	8	Panajachel	2	Febrero	2023-02-16T00:00:00	2024-11-08T03:00:00	3	Temperatura mínima	13.6
20048	7	Sololá	710	Panajachel	8	Panajachel	2	Febrero	2023-02-16T00:00:00	2024-11-08T03:00:00	5	Humedad	72
20049	7	Sololá	710	Panajachel	8	Panajachel	2	Febrero	2023-02-16T00:00:00	2024-11-08T03:00:00	6	Velocidad del viento	4.8
20050	7	Sololá	710	Panajachel	8	Panajachel	2	Febrero	2023-02-16T00:00:00	2024-11-08T03:00:00	7	Dirección del viento	4.83
20051	7	Sololá	710	Panajachel	8	Panajachel	2	Febrero	2023-02-16T00:00:00	2024-11-08T03:00:00	1	Precipitación	0
20052	7	Sololá	710	Panajachel	8	Panajachel	2	Febrero	2023-02-16T00:00:00	2024-11-08T03:00:00	8	Radiación solar	0
20053	7	Sololá	710	Panajachel	8	Panajachel	2	Febrero	2023-02-16T00:00:00	2024-11-08T04:00:00	2	Temperatura media	13.6
20054	7	Sololá	710	Panajachel	8	Panajachel	2	Febrero	2023-02-16T00:00:00	2024-11-08T04:00:00	4	Temperatura máxima	13.6
20055	7	Sololá	710	Panajachel	8	Panajachel	2	Febrero	2023-02-16T00:00:00	2024-11-08T04:00:00	3	Temperatura mínima	13.3
20056	7	Sololá	710	Panajachel	8	Panajachel	2	Febrero	2023-02-16T00:00:00	2024-11-08T04:00:00	5	Humedad	70
20057	7	Sololá	710	Panajachel	8	Panajachel	2	Febrero	2023-02-16T00:00:00	2024-11-08T04:00:00	6	Velocidad del viento	8
20058	7	Sololá	710	Panajachel	8	Panajachel	2	Febrero	2023-02-16T00:00:00	2024-11-08T04:00:00	7	Dirección del viento	8.05
20059	7	Sololá	710	Panajachel	8	Panajachel	2	Febrero	2023-02-16T00:00:00	2024-11-08T04:00:00	1	Precipitación	0
20060	7	Sololá	710	Panajachel	8	Panajachel	2	Febrero	2023-02-16T00:00:00	2024-11-08T04:00:00	8	Radiación solar	0
20061	7	Sololá	710	Panajachel	8	Panajachel	2	Febrero	2023-02-16T00:00:00	2024-11-08T05:00:00	2	Temperatura media	13.8
20062	7	Sololá	710	Panajachel	8	Panajachel	2	Febrero	2023-02-16T00:00:00	2024-11-08T05:00:00	4	Temperatura máxima	14
20063	7	Sololá	710	Panajachel	8	Panajachel	2	Febrero	2023-02-16T00:00:00	2024-11-08T05:00:00	3	Temperatura mínima	13.6
20064	7	Sololá	710	Panajachel	8	Panajachel	2	Febrero	2023-02-16T00:00:00	2024-11-08T05:00:00	5	Humedad	64
20065	7	Sololá	710	Panajachel	8	Panajachel	2	Febrero	2023-02-16T00:00:00	2024-11-08T05:00:00	6	Velocidad del viento	4.8
20066	7	Sololá	710	Panajachel	8	Panajachel	2	Febrero	2023-02-16T00:00:00	2024-11-08T05:00:00	7	Dirección del viento	4.83
20067	7	Sololá	710	Panajachel	8	Panajachel	2	Febrero	2023-02-16T00:00:00	2024-11-08T05:00:00	1	Precipitación	0
20068	7	Sololá	710	Panajachel	8	Panajachel	2	Febrero	2023-02-16T00:00:00	2024-11-08T05:00:00	8	Radiación solar	0
20069	7	Sololá	710	Panajachel	8	Panajachel	2	Febrero	2023-02-16T00:00:00	2024-11-08T06:00:00	2	Temperatura media	13.6
20070	7	Sololá	710	Panajachel	8	Panajachel	2	Febrero	2023-02-16T00:00:00	2024-11-08T06:00:00	4	Temperatura máxima	13.8
20071	7	Sololá	710	Panajachel	8	Panajachel	2	Febrero	2023-02-16T00:00:00	2024-11-08T06:00:00	3	Temperatura mínima	13.4
20072	7	Sololá	710	Panajachel	8	Panajachel	2	Febrero	2023-02-16T00:00:00	2024-11-08T06:00:00	5	Humedad	68
20073	7	Sololá	710	Panajachel	8	Panajachel	2	Febrero	2023-02-16T00:00:00	2024-11-08T06:00:00	6	Velocidad del viento	4.8
20074	7	Sololá	710	Panajachel	8	Panajachel	2	Febrero	2023-02-16T00:00:00	2024-11-08T06:00:00	7	Dirección del viento	4.83
20075	7	Sololá	710	Panajachel	8	Panajachel	2	Febrero	2023-02-16T00:00:00	2024-11-08T06:00:00	1	Precipitación	0
20076	7	Sololá	710	Panajachel	8	Panajachel	2	Febrero	2023-02-16T00:00:00	2024-11-08T06:00:00	8	Radiación solar	0
20077	7	Sololá	710	Panajachel	8	Panajachel	2	Febrero	2023-02-16T00:00:00	2024-11-08T07:00:00	2	Temperatura media	12.8
20078	7	Sololá	710	Panajachel	8	Panajachel	2	Febrero	2023-02-16T00:00:00	2024-11-08T07:00:00	4	Temperatura máxima	13.6
20079	7	Sololá	710	Panajachel	8	Panajachel	2	Febrero	2023-02-16T00:00:00	2024-11-08T07:00:00	3	Temperatura mínima	12.8
20080	7	Sololá	710	Panajachel	8	Panajachel	2	Febrero	2023-02-16T00:00:00	2024-11-08T07:00:00	5	Humedad	70
20081	7	Sololá	710	Panajachel	8	Panajachel	2	Febrero	2023-02-16T00:00:00	2024-11-08T07:00:00	6	Velocidad del viento	6.4
20082	7	Sololá	710	Panajachel	8	Panajachel	2	Febrero	2023-02-16T00:00:00	2024-11-08T07:00:00	7	Dirección del viento	6.44
20083	7	Sololá	710	Panajachel	8	Panajachel	2	Febrero	2023-02-16T00:00:00	2024-11-08T07:00:00	1	Precipitación	0
20084	7	Sololá	710	Panajachel	8	Panajachel	2	Febrero	2023-02-16T00:00:00	2024-11-08T07:00:00	8	Radiación solar	7
20085	7	Sololá	710	Panajachel	8	Panajachel	2	Febrero	2023-02-16T00:00:00	2024-11-08T08:00:00	2	Temperatura media	15.2
20086	7	Sololá	710	Panajachel	8	Panajachel	2	Febrero	2023-02-16T00:00:00	2024-11-08T08:00:00	4	Temperatura máxima	15.2
20087	7	Sololá	710	Panajachel	8	Panajachel	2	Febrero	2023-02-16T00:00:00	2024-11-08T08:00:00	3	Temperatura mínima	12.7
20088	7	Sololá	710	Panajachel	8	Panajachel	2	Febrero	2023-02-16T00:00:00	2024-11-08T08:00:00	5	Humedad	62
20089	7	Sololá	710	Panajachel	8	Panajachel	2	Febrero	2023-02-16T00:00:00	2024-11-08T08:00:00	6	Velocidad del viento	6.4
20090	7	Sololá	710	Panajachel	8	Panajachel	2	Febrero	2023-02-16T00:00:00	2024-11-08T08:00:00	7	Dirección del viento	6.44
20091	7	Sololá	710	Panajachel	8	Panajachel	2	Febrero	2023-02-16T00:00:00	2024-11-08T08:00:00	1	Precipitación	0
20092	7	Sololá	710	Panajachel	8	Panajachel	2	Febrero	2023-02-16T00:00:00	2024-11-08T08:00:00	8	Radiación solar	158
20093	7	Sololá	710	Panajachel	8	Panajachel	2	Febrero	2023-02-16T00:00:00	2024-11-08T09:00:00	2	Temperatura media	18.3
20094	7	Sololá	710	Panajachel	8	Panajachel	2	Febrero	2023-02-16T00:00:00	2024-11-08T09:00:00	4	Temperatura máxima	18.3
20095	7	Sololá	710	Panajachel	8	Panajachel	2	Febrero	2023-02-16T00:00:00	2024-11-08T09:00:00	3	Temperatura mínima	15.2
20096	7	Sololá	710	Panajachel	8	Panajachel	2	Febrero	2023-02-16T00:00:00	2024-11-08T09:00:00	5	Humedad	73
20097	7	Sololá	710	Panajachel	8	Panajachel	2	Febrero	2023-02-16T00:00:00	2024-11-08T09:00:00	6	Velocidad del viento	0
20098	7	Sololá	710	Panajachel	8	Panajachel	2	Febrero	2023-02-16T00:00:00	2024-11-08T09:00:00	7	Dirección del viento	0
20099	7	Sololá	710	Panajachel	8	Panajachel	2	Febrero	2023-02-16T00:00:00	2024-11-08T09:00:00	1	Precipitación	0
20100	7	Sololá	710	Panajachel	8	Panajachel	2	Febrero	2023-02-16T00:00:00	2024-11-08T09:00:00	8	Radiación solar	336
20101	7	Sololá	710	Panajachel	8	Panajachel	2	Febrero	2023-02-16T00:00:00	2024-11-08T10:00:00	2	Temperatura media	18.9
20102	7	Sololá	710	Panajachel	8	Panajachel	2	Febrero	2023-02-16T00:00:00	2024-11-08T10:00:00	4	Temperatura máxima	19.1
20103	7	Sololá	710	Panajachel	8	Panajachel	2	Febrero	2023-02-16T00:00:00	2024-11-08T10:00:00	3	Temperatura mínima	18.1
20104	7	Sololá	710	Panajachel	8	Panajachel	2	Febrero	2023-02-16T00:00:00	2024-11-08T10:00:00	5	Humedad	75
20105	7	Sololá	710	Panajachel	8	Panajachel	2	Febrero	2023-02-16T00:00:00	2024-11-08T10:00:00	6	Velocidad del viento	1.6
20106	7	Sololá	710	Panajachel	8	Panajachel	2	Febrero	2023-02-16T00:00:00	2024-11-08T10:00:00	7	Dirección del viento	1.61
20107	7	Sololá	710	Panajachel	8	Panajachel	2	Febrero	2023-02-16T00:00:00	2024-11-08T10:00:00	1	Precipitación	0
20108	7	Sololá	710	Panajachel	8	Panajachel	2	Febrero	2023-02-16T00:00:00	2024-11-08T10:00:00	8	Radiación solar	625
20109	7	Sololá	710	Panajachel	8	Panajachel	2	Febrero	2023-02-16T00:00:00	2024-11-08T11:00:00	2	Temperatura media	18.8
20110	7	Sololá	710	Panajachel	8	Panajachel	2	Febrero	2023-02-16T00:00:00	2024-11-08T11:00:00	4	Temperatura máxima	20.2
20111	7	Sololá	710	Panajachel	8	Panajachel	2	Febrero	2023-02-16T00:00:00	2024-11-08T11:00:00	3	Temperatura mínima	18.8
20112	7	Sololá	710	Panajachel	8	Panajachel	2	Febrero	2023-02-16T00:00:00	2024-11-08T11:00:00	5	Humedad	76
20113	7	Sololá	710	Panajachel	8	Panajachel	2	Febrero	2023-02-16T00:00:00	2024-11-08T11:00:00	6	Velocidad del viento	3.2
20114	7	Sololá	710	Panajachel	8	Panajachel	2	Febrero	2023-02-16T00:00:00	2024-11-08T11:00:00	7	Dirección del viento	3.22
20115	7	Sololá	710	Panajachel	8	Panajachel	2	Febrero	2023-02-16T00:00:00	2024-11-08T11:00:00	1	Precipitación	0
20116	7	Sololá	710	Panajachel	8	Panajachel	2	Febrero	2023-02-16T00:00:00	2024-11-08T11:00:00	8	Radiación solar	781
20117	7	Sololá	710	Panajachel	8	Panajachel	2	Febrero	2023-02-16T00:00:00	2024-11-08T12:00:00	2	Temperatura media	19.9
20118	7	Sololá	710	Panajachel	8	Panajachel	2	Febrero	2023-02-16T00:00:00	2024-11-08T12:00:00	4	Temperatura máxima	20.5
20119	7	Sololá	710	Panajachel	8	Panajachel	2	Febrero	2023-02-16T00:00:00	2024-11-08T12:00:00	3	Temperatura mínima	18.8
20120	7	Sololá	710	Panajachel	8	Panajachel	2	Febrero	2023-02-16T00:00:00	2024-11-08T12:00:00	5	Humedad	73
20121	7	Sololá	710	Panajachel	8	Panajachel	2	Febrero	2023-02-16T00:00:00	2024-11-08T12:00:00	6	Velocidad del viento	3.2
20122	7	Sololá	710	Panajachel	8	Panajachel	2	Febrero	2023-02-16T00:00:00	2024-11-08T12:00:00	7	Dirección del viento	3.22
20123	7	Sololá	710	Panajachel	8	Panajachel	2	Febrero	2023-02-16T00:00:00	2024-11-08T12:00:00	1	Precipitación	0
20124	7	Sololá	710	Panajachel	8	Panajachel	2	Febrero	2023-02-16T00:00:00	2024-11-08T12:00:00	8	Radiación solar	869
20125	7	Sololá	710	Panajachel	8	Panajachel	2	Febrero	2023-02-16T00:00:00	2024-11-08T13:00:00	2	Temperatura media	21.4
20126	7	Sololá	710	Panajachel	8	Panajachel	2	Febrero	2023-02-16T00:00:00	2024-11-08T13:00:00	4	Temperatura máxima	21.4
20127	7	Sololá	710	Panajachel	8	Panajachel	2	Febrero	2023-02-16T00:00:00	2024-11-08T13:00:00	3	Temperatura mínima	19.9
20128	7	Sololá	710	Panajachel	8	Panajachel	2	Febrero	2023-02-16T00:00:00	2024-11-08T13:00:00	5	Humedad	78
20129	7	Sololá	710	Panajachel	8	Panajachel	2	Febrero	2023-02-16T00:00:00	2024-11-08T13:00:00	6	Velocidad del viento	3.2
20130	7	Sololá	710	Panajachel	8	Panajachel	2	Febrero	2023-02-16T00:00:00	2024-11-08T13:00:00	7	Dirección del viento	3.22
20131	7	Sololá	710	Panajachel	8	Panajachel	2	Febrero	2023-02-16T00:00:00	2024-11-08T13:00:00	1	Precipitación	0
20132	7	Sololá	710	Panajachel	8	Panajachel	2	Febrero	2023-02-16T00:00:00	2024-11-08T13:00:00	8	Radiación solar	878
20133	7	Sololá	710	Panajachel	8	Panajachel	2	Febrero	2023-02-16T00:00:00	2024-11-08T14:00:00	2	Temperatura media	21.4
20134	7	Sololá	710	Panajachel	8	Panajachel	2	Febrero	2023-02-16T00:00:00	2024-11-08T14:00:00	4	Temperatura máxima	21.7
20135	7	Sololá	710	Panajachel	8	Panajachel	2	Febrero	2023-02-16T00:00:00	2024-11-08T14:00:00	3	Temperatura mínima	20.7
20136	7	Sololá	710	Panajachel	8	Panajachel	2	Febrero	2023-02-16T00:00:00	2024-11-08T14:00:00	5	Humedad	75
20137	7	Sololá	710	Panajachel	8	Panajachel	2	Febrero	2023-02-16T00:00:00	2024-11-08T14:00:00	6	Velocidad del viento	4.8
20138	7	Sololá	710	Panajachel	8	Panajachel	2	Febrero	2023-02-16T00:00:00	2024-11-08T14:00:00	7	Dirección del viento	4.83
20139	7	Sololá	710	Panajachel	8	Panajachel	2	Febrero	2023-02-16T00:00:00	2024-11-08T14:00:00	1	Precipitación	0
20140	7	Sololá	710	Panajachel	8	Panajachel	2	Febrero	2023-02-16T00:00:00	2024-11-08T14:00:00	8	Radiación solar	743
20141	7	Sololá	710	Panajachel	8	Panajachel	2	Febrero	2023-02-16T00:00:00	2024-11-08T15:00:00	2	Temperatura media	21.6
20142	7	Sololá	710	Panajachel	8	Panajachel	2	Febrero	2023-02-16T00:00:00	2024-11-08T15:00:00	4	Temperatura máxima	21.6
20143	7	Sololá	710	Panajachel	8	Panajachel	2	Febrero	2023-02-16T00:00:00	2024-11-08T15:00:00	3	Temperatura mínima	20.6
20144	7	Sololá	710	Panajachel	8	Panajachel	2	Febrero	2023-02-16T00:00:00	2024-11-08T15:00:00	5	Humedad	75
20145	7	Sololá	710	Panajachel	8	Panajachel	2	Febrero	2023-02-16T00:00:00	2024-11-08T15:00:00	6	Velocidad del viento	3.2
20146	7	Sololá	710	Panajachel	8	Panajachel	2	Febrero	2023-02-16T00:00:00	2024-11-08T15:00:00	7	Dirección del viento	3.22
20147	7	Sololá	710	Panajachel	8	Panajachel	2	Febrero	2023-02-16T00:00:00	2024-11-08T15:00:00	1	Precipitación	0
20148	7	Sololá	710	Panajachel	8	Panajachel	2	Febrero	2023-02-16T00:00:00	2024-11-08T15:00:00	8	Radiación solar	458
20149	7	Sololá	710	Panajachel	8	Panajachel	2	Febrero	2023-02-16T00:00:00	2024-11-08T16:00:00	2	Temperatura media	19.9
20150	7	Sololá	710	Panajachel	8	Panajachel	2	Febrero	2023-02-16T00:00:00	2024-11-08T16:00:00	4	Temperatura máxima	21.6
20151	7	Sololá	710	Panajachel	8	Panajachel	2	Febrero	2023-02-16T00:00:00	2024-11-08T16:00:00	3	Temperatura mínima	19.8
20152	7	Sololá	710	Panajachel	8	Panajachel	2	Febrero	2023-02-16T00:00:00	2024-11-08T16:00:00	5	Humedad	82
20153	7	Sololá	710	Panajachel	8	Panajachel	2	Febrero	2023-02-16T00:00:00	2024-11-08T16:00:00	6	Velocidad del viento	3.2
20154	7	Sololá	710	Panajachel	8	Panajachel	2	Febrero	2023-02-16T00:00:00	2024-11-08T16:00:00	7	Dirección del viento	3.22
20155	7	Sololá	710	Panajachel	8	Panajachel	2	Febrero	2023-02-16T00:00:00	2024-11-08T16:00:00	1	Precipitación	0
20156	7	Sololá	710	Panajachel	8	Panajachel	2	Febrero	2023-02-16T00:00:00	2024-11-08T16:00:00	8	Radiación solar	322
20157	7	Sololá	710	Panajachel	8	Panajachel	2	Febrero	2023-02-16T00:00:00	2024-11-08T17:00:00	2	Temperatura media	19.2
20158	7	Sololá	710	Panajachel	8	Panajachel	2	Febrero	2023-02-16T00:00:00	2024-11-08T17:00:00	4	Temperatura máxima	19.9
20159	7	Sololá	710	Panajachel	8	Panajachel	2	Febrero	2023-02-16T00:00:00	2024-11-08T17:00:00	3	Temperatura mínima	19.2
20160	7	Sololá	710	Panajachel	8	Panajachel	2	Febrero	2023-02-16T00:00:00	2024-11-08T17:00:00	5	Humedad	84
20161	7	Sololá	710	Panajachel	8	Panajachel	2	Febrero	2023-02-16T00:00:00	2024-11-08T17:00:00	6	Velocidad del viento	1.6
20162	7	Sololá	710	Panajachel	8	Panajachel	2	Febrero	2023-02-16T00:00:00	2024-11-08T17:00:00	7	Dirección del viento	1.61
20163	7	Sololá	710	Panajachel	8	Panajachel	2	Febrero	2023-02-16T00:00:00	2024-11-08T17:00:00	1	Precipitación	0
20164	7	Sololá	710	Panajachel	8	Panajachel	2	Febrero	2023-02-16T00:00:00	2024-11-08T17:00:00	8	Radiación solar	65
20165	7	Sololá	710	Panajachel	8	Panajachel	2	Febrero	2023-02-16T00:00:00	2024-11-08T18:00:00	2	Temperatura media	19.3
20166	7	Sololá	710	Panajachel	8	Panajachel	2	Febrero	2023-02-16T00:00:00	2024-11-08T18:00:00	4	Temperatura máxima	19.3
20167	7	Sololá	710	Panajachel	8	Panajachel	2	Febrero	2023-02-16T00:00:00	2024-11-08T18:00:00	3	Temperatura mínima	19.1
20168	7	Sololá	710	Panajachel	8	Panajachel	2	Febrero	2023-02-16T00:00:00	2024-11-08T18:00:00	5	Humedad	82
20169	7	Sololá	710	Panajachel	8	Panajachel	2	Febrero	2023-02-16T00:00:00	2024-11-08T18:00:00	6	Velocidad del viento	0
20170	7	Sololá	710	Panajachel	8	Panajachel	2	Febrero	2023-02-16T00:00:00	2024-11-08T18:00:00	7	Dirección del viento	0
20171	7	Sololá	710	Panajachel	8	Panajachel	2	Febrero	2023-02-16T00:00:00	2024-11-08T18:00:00	1	Precipitación	0
20172	7	Sololá	710	Panajachel	8	Panajachel	2	Febrero	2023-02-16T00:00:00	2024-11-08T18:00:00	8	Radiación solar	18
20173	7	Sololá	710	Panajachel	8	Panajachel	2	Febrero	2023-02-16T00:00:00	2024-11-08T19:00:00	2	Temperatura media	19.1
20174	7	Sololá	710	Panajachel	8	Panajachel	2	Febrero	2023-02-16T00:00:00	2024-11-08T19:00:00	4	Temperatura máxima	19.3
20175	7	Sololá	710	Panajachel	8	Panajachel	2	Febrero	2023-02-16T00:00:00	2024-11-08T19:00:00	3	Temperatura mínima	19.1
20176	7	Sololá	710	Panajachel	8	Panajachel	2	Febrero	2023-02-16T00:00:00	2024-11-08T19:00:00	5	Humedad	84
20177	7	Sololá	710	Panajachel	8	Panajachel	2	Febrero	2023-02-16T00:00:00	2024-11-08T19:00:00	6	Velocidad del viento	0
20178	7	Sololá	710	Panajachel	8	Panajachel	2	Febrero	2023-02-16T00:00:00	2024-11-08T19:00:00	7	Dirección del viento	0
20179	7	Sololá	710	Panajachel	8	Panajachel	2	Febrero	2023-02-16T00:00:00	2024-11-08T19:00:00	1	Precipitación	0
20180	7	Sololá	710	Panajachel	8	Panajachel	2	Febrero	2023-02-16T00:00:00	2024-11-08T19:00:00	8	Radiación solar	0
20181	7	Sololá	710	Panajachel	8	Panajachel	2	Febrero	2023-02-16T00:00:00	2024-11-08T20:00:00	2	Temperatura media	18.6
20182	7	Sololá	710	Panajachel	8	Panajachel	2	Febrero	2023-02-16T00:00:00	2024-11-08T20:00:00	4	Temperatura máxima	19.1
20183	7	Sololá	710	Panajachel	8	Panajachel	2	Febrero	2023-02-16T00:00:00	2024-11-08T20:00:00	3	Temperatura mínima	18.6
20184	7	Sololá	710	Panajachel	8	Panajachel	2	Febrero	2023-02-16T00:00:00	2024-11-08T20:00:00	5	Humedad	84
20185	7	Sololá	710	Panajachel	8	Panajachel	2	Febrero	2023-02-16T00:00:00	2024-11-08T20:00:00	6	Velocidad del viento	0
20186	7	Sololá	710	Panajachel	8	Panajachel	2	Febrero	2023-02-16T00:00:00	2024-11-08T20:00:00	7	Dirección del viento	0
20187	7	Sololá	710	Panajachel	8	Panajachel	2	Febrero	2023-02-16T00:00:00	2024-11-08T20:00:00	1	Precipitación	0
20188	7	Sololá	710	Panajachel	8	Panajachel	2	Febrero	2023-02-16T00:00:00	2024-11-08T20:00:00	8	Radiación solar	0
20189	7	Sololá	710	Panajachel	8	Panajachel	2	Febrero	2023-02-16T00:00:00	2024-11-08T21:00:00	2	Temperatura media	16.6
20190	7	Sololá	710	Panajachel	8	Panajachel	2	Febrero	2023-02-16T00:00:00	2024-11-08T21:00:00	4	Temperatura máxima	18.6
20191	7	Sololá	710	Panajachel	8	Panajachel	2	Febrero	2023-02-16T00:00:00	2024-11-08T21:00:00	3	Temperatura mínima	16.6
20192	7	Sololá	710	Panajachel	8	Panajachel	2	Febrero	2023-02-16T00:00:00	2024-11-08T21:00:00	5	Humedad	80
20193	7	Sololá	710	Panajachel	8	Panajachel	2	Febrero	2023-02-16T00:00:00	2024-11-08T21:00:00	6	Velocidad del viento	4.8
20194	7	Sololá	710	Panajachel	8	Panajachel	2	Febrero	2023-02-16T00:00:00	2024-11-08T21:00:00	7	Dirección del viento	4.83
20195	7	Sololá	710	Panajachel	8	Panajachel	2	Febrero	2023-02-16T00:00:00	2024-11-08T21:00:00	1	Precipitación	0
20196	7	Sololá	710	Panajachel	8	Panajachel	2	Febrero	2023-02-16T00:00:00	2024-11-08T21:00:00	8	Radiación solar	0
20197	7	Sololá	710	Panajachel	8	Panajachel	2	Febrero	2023-02-16T00:00:00	2024-11-08T22:00:00	2	Temperatura media	15.8
20198	7	Sololá	710	Panajachel	8	Panajachel	2	Febrero	2023-02-16T00:00:00	2024-11-08T22:00:00	4	Temperatura máxima	16.6
20199	7	Sololá	710	Panajachel	8	Panajachel	2	Febrero	2023-02-16T00:00:00	2024-11-08T22:00:00	3	Temperatura mínima	15.8
20200	7	Sololá	710	Panajachel	8	Panajachel	2	Febrero	2023-02-16T00:00:00	2024-11-08T22:00:00	5	Humedad	82
20201	7	Sololá	710	Panajachel	8	Panajachel	2	Febrero	2023-02-16T00:00:00	2024-11-08T22:00:00	6	Velocidad del viento	6.4
20202	7	Sololá	710	Panajachel	8	Panajachel	2	Febrero	2023-02-16T00:00:00	2024-11-08T22:00:00	7	Dirección del viento	6.44
20203	7	Sololá	710	Panajachel	8	Panajachel	2	Febrero	2023-02-16T00:00:00	2024-11-08T22:00:00	1	Precipitación	0
20204	7	Sololá	710	Panajachel	8	Panajachel	2	Febrero	2023-02-16T00:00:00	2024-11-08T22:00:00	8	Radiación solar	0
20205	7	Sololá	710	Panajachel	8	Panajachel	2	Febrero	2023-02-16T00:00:00	2024-11-08T23:00:00	2	Temperatura media	15.4
20206	7	Sololá	710	Panajachel	8	Panajachel	2	Febrero	2023-02-16T00:00:00	2024-11-08T23:00:00	4	Temperatura máxima	15.9
20207	7	Sololá	710	Panajachel	8	Panajachel	2	Febrero	2023-02-16T00:00:00	2024-11-08T23:00:00	3	Temperatura mínima	15.4
20208	7	Sololá	710	Panajachel	8	Panajachel	2	Febrero	2023-02-16T00:00:00	2024-11-08T23:00:00	5	Humedad	84
20209	7	Sololá	710	Panajachel	8	Panajachel	2	Febrero	2023-02-16T00:00:00	2024-11-08T23:00:00	6	Velocidad del viento	4.8
20210	7	Sololá	710	Panajachel	8	Panajachel	2	Febrero	2023-02-16T00:00:00	2024-11-08T23:00:00	7	Dirección del viento	4.83
20211	7	Sololá	710	Panajachel	8	Panajachel	2	Febrero	2023-02-16T00:00:00	2024-11-08T23:00:00	1	Precipitación	0
20212	7	Sololá	710	Panajachel	8	Panajachel	2	Febrero	2023-02-16T00:00:00	2024-11-08T23:00:00	8	Radiación solar	0
20213	7	Sololá	710	Panajachel	8	Panajachel	2	Febrero	2023-02-17T00:00:00	2024-11-08T00:00:00	2	Temperatura media	15.4
20214	7	Sololá	710	Panajachel	8	Panajachel	2	Febrero	2023-02-17T00:00:00	2024-11-08T00:00:00	4	Temperatura máxima	15.5
20215	7	Sololá	710	Panajachel	8	Panajachel	2	Febrero	2023-02-17T00:00:00	2024-11-08T00:00:00	3	Temperatura mínima	15.2
20216	7	Sololá	710	Panajachel	8	Panajachel	2	Febrero	2023-02-17T00:00:00	2024-11-08T00:00:00	5	Humedad	85
20217	7	Sololá	710	Panajachel	8	Panajachel	2	Febrero	2023-02-17T00:00:00	2024-11-08T00:00:00	6	Velocidad del viento	3.2
20218	7	Sololá	710	Panajachel	8	Panajachel	2	Febrero	2023-02-17T00:00:00	2024-11-08T00:00:00	7	Dirección del viento	3.22
20219	7	Sololá	710	Panajachel	8	Panajachel	2	Febrero	2023-02-17T00:00:00	2024-11-08T00:00:00	1	Precipitación	0
20220	7	Sololá	710	Panajachel	8	Panajachel	2	Febrero	2023-02-17T00:00:00	2024-11-08T00:00:00	8	Radiación solar	0
20221	7	Sololá	710	Panajachel	8	Panajachel	2	Febrero	2023-02-17T00:00:00	2024-11-08T01:00:00	2	Temperatura media	15.1
20222	7	Sololá	710	Panajachel	8	Panajachel	2	Febrero	2023-02-17T00:00:00	2024-11-08T01:00:00	4	Temperatura máxima	15.7
20223	7	Sololá	710	Panajachel	8	Panajachel	2	Febrero	2023-02-17T00:00:00	2024-11-08T01:00:00	3	Temperatura mínima	15
20224	7	Sololá	710	Panajachel	8	Panajachel	2	Febrero	2023-02-17T00:00:00	2024-11-08T01:00:00	5	Humedad	86
20225	7	Sololá	710	Panajachel	8	Panajachel	2	Febrero	2023-02-17T00:00:00	2024-11-08T01:00:00	6	Velocidad del viento	1.6
20226	7	Sololá	710	Panajachel	8	Panajachel	2	Febrero	2023-02-17T00:00:00	2024-11-08T01:00:00	7	Dirección del viento	1.61
20227	7	Sololá	710	Panajachel	8	Panajachel	2	Febrero	2023-02-17T00:00:00	2024-11-08T01:00:00	1	Precipitación	0
20228	7	Sololá	710	Panajachel	8	Panajachel	2	Febrero	2023-02-17T00:00:00	2024-11-08T01:00:00	8	Radiación solar	0
20229	7	Sololá	710	Panajachel	8	Panajachel	2	Febrero	2023-02-17T00:00:00	2024-11-08T02:00:00	2	Temperatura media	14.5
20230	7	Sololá	710	Panajachel	8	Panajachel	2	Febrero	2023-02-17T00:00:00	2024-11-08T02:00:00	4	Temperatura máxima	15
20231	7	Sololá	710	Panajachel	8	Panajachel	2	Febrero	2023-02-17T00:00:00	2024-11-08T02:00:00	3	Temperatura mínima	14.5
20232	7	Sololá	710	Panajachel	8	Panajachel	2	Febrero	2023-02-17T00:00:00	2024-11-08T02:00:00	5	Humedad	86
20233	7	Sololá	710	Panajachel	8	Panajachel	2	Febrero	2023-02-17T00:00:00	2024-11-08T02:00:00	6	Velocidad del viento	1.6
20234	7	Sololá	710	Panajachel	8	Panajachel	2	Febrero	2023-02-17T00:00:00	2024-11-08T02:00:00	7	Dirección del viento	1.61
20235	7	Sololá	710	Panajachel	8	Panajachel	2	Febrero	2023-02-17T00:00:00	2024-11-08T02:00:00	1	Precipitación	0
20236	7	Sololá	710	Panajachel	8	Panajachel	2	Febrero	2023-02-17T00:00:00	2024-11-08T02:00:00	8	Radiación solar	0
20237	7	Sololá	710	Panajachel	8	Panajachel	2	Febrero	2023-02-17T00:00:00	2024-11-08T03:00:00	2	Temperatura media	14.6
20238	7	Sololá	710	Panajachel	8	Panajachel	2	Febrero	2023-02-17T00:00:00	2024-11-08T03:00:00	4	Temperatura máxima	14.7
20239	7	Sololá	710	Panajachel	8	Panajachel	2	Febrero	2023-02-17T00:00:00	2024-11-08T03:00:00	3	Temperatura mínima	14.4
20240	7	Sololá	710	Panajachel	8	Panajachel	2	Febrero	2023-02-17T00:00:00	2024-11-08T03:00:00	5	Humedad	85
20241	7	Sololá	710	Panajachel	8	Panajachel	2	Febrero	2023-02-17T00:00:00	2024-11-08T03:00:00	6	Velocidad del viento	4.8
20242	7	Sololá	710	Panajachel	8	Panajachel	2	Febrero	2023-02-17T00:00:00	2024-11-08T03:00:00	7	Dirección del viento	4.83
20243	7	Sololá	710	Panajachel	8	Panajachel	2	Febrero	2023-02-17T00:00:00	2024-11-08T03:00:00	1	Precipitación	0
20244	7	Sololá	710	Panajachel	8	Panajachel	2	Febrero	2023-02-17T00:00:00	2024-11-08T03:00:00	8	Radiación solar	0
20245	7	Sololá	710	Panajachel	8	Panajachel	2	Febrero	2023-02-17T00:00:00	2024-11-08T04:00:00	2	Temperatura media	14.1
20246	7	Sololá	710	Panajachel	8	Panajachel	2	Febrero	2023-02-17T00:00:00	2024-11-08T04:00:00	4	Temperatura máxima	14.6
20247	7	Sololá	710	Panajachel	8	Panajachel	2	Febrero	2023-02-17T00:00:00	2024-11-08T04:00:00	3	Temperatura mínima	13.9
20248	7	Sololá	710	Panajachel	8	Panajachel	2	Febrero	2023-02-17T00:00:00	2024-11-08T04:00:00	5	Humedad	84
20249	7	Sololá	710	Panajachel	8	Panajachel	2	Febrero	2023-02-17T00:00:00	2024-11-08T04:00:00	6	Velocidad del viento	3.2
20250	7	Sololá	710	Panajachel	8	Panajachel	2	Febrero	2023-02-17T00:00:00	2024-11-08T04:00:00	7	Dirección del viento	3.22
20251	7	Sololá	710	Panajachel	8	Panajachel	2	Febrero	2023-02-17T00:00:00	2024-11-08T04:00:00	1	Precipitación	0
20252	7	Sololá	710	Panajachel	8	Panajachel	2	Febrero	2023-02-17T00:00:00	2024-11-08T04:00:00	8	Radiación solar	0
20253	7	Sololá	710	Panajachel	8	Panajachel	2	Febrero	2023-02-17T00:00:00	2024-11-08T05:00:00	2	Temperatura media	13.6
20254	7	Sololá	710	Panajachel	8	Panajachel	2	Febrero	2023-02-17T00:00:00	2024-11-08T05:00:00	4	Temperatura máxima	14.2
20255	7	Sololá	710	Panajachel	8	Panajachel	2	Febrero	2023-02-17T00:00:00	2024-11-08T05:00:00	3	Temperatura mínima	13.6
20256	7	Sololá	710	Panajachel	8	Panajachel	2	Febrero	2023-02-17T00:00:00	2024-11-08T05:00:00	5	Humedad	85
20257	7	Sololá	710	Panajachel	8	Panajachel	2	Febrero	2023-02-17T00:00:00	2024-11-08T05:00:00	6	Velocidad del viento	3.2
20258	7	Sololá	710	Panajachel	8	Panajachel	2	Febrero	2023-02-17T00:00:00	2024-11-08T05:00:00	7	Dirección del viento	3.22
20259	7	Sololá	710	Panajachel	8	Panajachel	2	Febrero	2023-02-17T00:00:00	2024-11-08T05:00:00	1	Precipitación	0
20260	7	Sololá	710	Panajachel	8	Panajachel	2	Febrero	2023-02-17T00:00:00	2024-11-08T05:00:00	8	Radiación solar	0
20261	7	Sololá	710	Panajachel	8	Panajachel	2	Febrero	2023-02-17T00:00:00	2024-11-08T06:00:00	2	Temperatura media	13.2
20262	7	Sololá	710	Panajachel	8	Panajachel	2	Febrero	2023-02-17T00:00:00	2024-11-08T06:00:00	4	Temperatura máxima	14
20263	7	Sololá	710	Panajachel	8	Panajachel	2	Febrero	2023-02-17T00:00:00	2024-11-08T06:00:00	3	Temperatura mínima	13.2
20264	7	Sololá	710	Panajachel	8	Panajachel	2	Febrero	2023-02-17T00:00:00	2024-11-08T06:00:00	5	Humedad	83
20265	7	Sololá	710	Panajachel	8	Panajachel	2	Febrero	2023-02-17T00:00:00	2024-11-08T06:00:00	6	Velocidad del viento	4.8
20266	7	Sololá	710	Panajachel	8	Panajachel	2	Febrero	2023-02-17T00:00:00	2024-11-08T06:00:00	7	Dirección del viento	4.83
20267	7	Sololá	710	Panajachel	8	Panajachel	2	Febrero	2023-02-17T00:00:00	2024-11-08T06:00:00	1	Precipitación	0
20268	7	Sololá	710	Panajachel	8	Panajachel	2	Febrero	2023-02-17T00:00:00	2024-11-08T06:00:00	8	Radiación solar	0
20269	7	Sololá	710	Panajachel	8	Panajachel	2	Febrero	2023-02-17T00:00:00	2024-11-08T07:00:00	2	Temperatura media	12.8
20270	7	Sololá	710	Panajachel	8	Panajachel	2	Febrero	2023-02-17T00:00:00	2024-11-08T07:00:00	4	Temperatura máxima	13.3
20271	7	Sololá	710	Panajachel	8	Panajachel	2	Febrero	2023-02-17T00:00:00	2024-11-08T07:00:00	3	Temperatura mínima	12.8
20272	7	Sololá	710	Panajachel	8	Panajachel	2	Febrero	2023-02-17T00:00:00	2024-11-08T07:00:00	5	Humedad	81
20273	7	Sololá	710	Panajachel	8	Panajachel	2	Febrero	2023-02-17T00:00:00	2024-11-08T07:00:00	6	Velocidad del viento	3.2
20274	7	Sololá	710	Panajachel	8	Panajachel	2	Febrero	2023-02-17T00:00:00	2024-11-08T07:00:00	7	Dirección del viento	3.22
20275	7	Sololá	710	Panajachel	8	Panajachel	2	Febrero	2023-02-17T00:00:00	2024-11-08T07:00:00	1	Precipitación	0
20276	7	Sololá	710	Panajachel	8	Panajachel	2	Febrero	2023-02-17T00:00:00	2024-11-08T07:00:00	8	Radiación solar	6
20277	7	Sololá	710	Panajachel	8	Panajachel	2	Febrero	2023-02-17T00:00:00	2024-11-08T08:00:00	2	Temperatura media	16
20278	7	Sololá	710	Panajachel	8	Panajachel	2	Febrero	2023-02-17T00:00:00	2024-11-08T08:00:00	4	Temperatura máxima	16
20279	7	Sololá	710	Panajachel	8	Panajachel	2	Febrero	2023-02-17T00:00:00	2024-11-08T08:00:00	3	Temperatura mínima	12.8
20280	7	Sololá	710	Panajachel	8	Panajachel	2	Febrero	2023-02-17T00:00:00	2024-11-08T08:00:00	5	Humedad	78
20281	7	Sololá	710	Panajachel	8	Panajachel	2	Febrero	2023-02-17T00:00:00	2024-11-08T08:00:00	6	Velocidad del viento	3.2
20282	7	Sololá	710	Panajachel	8	Panajachel	2	Febrero	2023-02-17T00:00:00	2024-11-08T08:00:00	7	Dirección del viento	3.22
20283	7	Sololá	710	Panajachel	8	Panajachel	2	Febrero	2023-02-17T00:00:00	2024-11-08T08:00:00	1	Precipitación	0
20284	7	Sololá	710	Panajachel	8	Panajachel	2	Febrero	2023-02-17T00:00:00	2024-11-08T08:00:00	8	Radiación solar	159
20285	7	Sololá	710	Panajachel	8	Panajachel	2	Febrero	2023-02-17T00:00:00	2024-11-08T09:00:00	2	Temperatura media	17.9
20286	7	Sololá	710	Panajachel	8	Panajachel	2	Febrero	2023-02-17T00:00:00	2024-11-08T09:00:00	4	Temperatura máxima	18.2
20287	7	Sololá	710	Panajachel	8	Panajachel	2	Febrero	2023-02-17T00:00:00	2024-11-08T09:00:00	3	Temperatura mínima	16
20288	7	Sololá	710	Panajachel	8	Panajachel	2	Febrero	2023-02-17T00:00:00	2024-11-08T09:00:00	5	Humedad	80
20289	7	Sololá	710	Panajachel	8	Panajachel	2	Febrero	2023-02-17T00:00:00	2024-11-08T09:00:00	6	Velocidad del viento	0
20290	7	Sololá	710	Panajachel	8	Panajachel	2	Febrero	2023-02-17T00:00:00	2024-11-08T09:00:00	7	Dirección del viento	0
20291	7	Sololá	710	Panajachel	8	Panajachel	2	Febrero	2023-02-17T00:00:00	2024-11-08T09:00:00	1	Precipitación	0
20292	7	Sololá	710	Panajachel	8	Panajachel	2	Febrero	2023-02-17T00:00:00	2024-11-08T09:00:00	8	Radiación solar	402
20293	7	Sololá	710	Panajachel	8	Panajachel	2	Febrero	2023-02-17T00:00:00	2024-11-08T10:00:00	2	Temperatura media	19.2
20294	7	Sololá	710	Panajachel	8	Panajachel	2	Febrero	2023-02-17T00:00:00	2024-11-08T10:00:00	4	Temperatura máxima	19.2
20295	7	Sololá	710	Panajachel	8	Panajachel	2	Febrero	2023-02-17T00:00:00	2024-11-08T10:00:00	3	Temperatura mínima	17.7
20296	7	Sololá	710	Panajachel	8	Panajachel	2	Febrero	2023-02-17T00:00:00	2024-11-08T10:00:00	5	Humedad	77
20297	7	Sololá	710	Panajachel	8	Panajachel	2	Febrero	2023-02-17T00:00:00	2024-11-08T10:00:00	6	Velocidad del viento	3.2
20298	7	Sololá	710	Panajachel	8	Panajachel	2	Febrero	2023-02-17T00:00:00	2024-11-08T10:00:00	7	Dirección del viento	3.22
20299	7	Sololá	710	Panajachel	8	Panajachel	2	Febrero	2023-02-17T00:00:00	2024-11-08T10:00:00	1	Precipitación	0
20300	7	Sololá	710	Panajachel	8	Panajachel	2	Febrero	2023-02-17T00:00:00	2024-11-08T10:00:00	8	Radiación solar	613
20301	7	Sololá	710	Panajachel	8	Panajachel	2	Febrero	2023-02-17T00:00:00	2024-11-08T11:00:00	2	Temperatura media	20.4
20302	7	Sololá	710	Panajachel	8	Panajachel	2	Febrero	2023-02-17T00:00:00	2024-11-08T11:00:00	4	Temperatura máxima	20.7
20303	7	Sololá	710	Panajachel	8	Panajachel	2	Febrero	2023-02-17T00:00:00	2024-11-08T11:00:00	3	Temperatura mínima	18.8
20304	7	Sololá	710	Panajachel	8	Panajachel	2	Febrero	2023-02-17T00:00:00	2024-11-08T11:00:00	5	Humedad	73
20305	7	Sololá	710	Panajachel	8	Panajachel	2	Febrero	2023-02-17T00:00:00	2024-11-08T11:00:00	6	Velocidad del viento	4.8
20306	7	Sololá	710	Panajachel	8	Panajachel	2	Febrero	2023-02-17T00:00:00	2024-11-08T11:00:00	7	Dirección del viento	4.83
20307	7	Sololá	710	Panajachel	8	Panajachel	2	Febrero	2023-02-17T00:00:00	2024-11-08T11:00:00	1	Precipitación	0
20308	7	Sololá	710	Panajachel	8	Panajachel	2	Febrero	2023-02-17T00:00:00	2024-11-08T11:00:00	8	Radiación solar	775
20309	7	Sololá	710	Panajachel	8	Panajachel	2	Febrero	2023-02-17T00:00:00	2024-11-08T12:00:00	2	Temperatura media	25.6
20310	7	Sololá	710	Panajachel	8	Panajachel	2	Febrero	2023-02-17T00:00:00	2024-11-08T12:00:00	4	Temperatura máxima	25.6
20311	7	Sololá	710	Panajachel	8	Panajachel	2	Febrero	2023-02-17T00:00:00	2024-11-08T12:00:00	3	Temperatura mínima	20.4
20312	7	Sololá	710	Panajachel	8	Panajachel	2	Febrero	2023-02-17T00:00:00	2024-11-08T12:00:00	5	Humedad	42
20313	7	Sololá	710	Panajachel	8	Panajachel	2	Febrero	2023-02-17T00:00:00	2024-11-08T12:00:00	6	Velocidad del viento	9.7
20314	7	Sololá	710	Panajachel	8	Panajachel	2	Febrero	2023-02-17T00:00:00	2024-11-08T12:00:00	7	Dirección del viento	9.66
20315	7	Sololá	710	Panajachel	8	Panajachel	2	Febrero	2023-02-17T00:00:00	2024-11-08T12:00:00	1	Precipitación	0
20316	7	Sololá	710	Panajachel	8	Panajachel	2	Febrero	2023-02-17T00:00:00	2024-11-08T12:00:00	8	Radiación solar	872
20317	7	Sololá	710	Panajachel	8	Panajachel	2	Febrero	2023-02-17T00:00:00	2024-11-08T13:00:00	2	Temperatura media	25.6
20318	7	Sololá	710	Panajachel	8	Panajachel	2	Febrero	2023-02-17T00:00:00	2024-11-08T13:00:00	4	Temperatura máxima	25.9
20319	7	Sololá	710	Panajachel	8	Panajachel	2	Febrero	2023-02-17T00:00:00	2024-11-08T13:00:00	3	Temperatura mínima	25.1
20320	7	Sololá	710	Panajachel	8	Panajachel	2	Febrero	2023-02-17T00:00:00	2024-11-08T13:00:00	5	Humedad	42
20321	7	Sololá	710	Panajachel	8	Panajachel	2	Febrero	2023-02-17T00:00:00	2024-11-08T13:00:00	6	Velocidad del viento	11.3
20322	7	Sololá	710	Panajachel	8	Panajachel	2	Febrero	2023-02-17T00:00:00	2024-11-08T13:00:00	7	Dirección del viento	11.27
20323	7	Sololá	710	Panajachel	8	Panajachel	2	Febrero	2023-02-17T00:00:00	2024-11-08T13:00:00	1	Precipitación	0
20324	7	Sololá	710	Panajachel	8	Panajachel	2	Febrero	2023-02-17T00:00:00	2024-11-08T13:00:00	8	Radiación solar	894
20325	7	Sololá	710	Panajachel	8	Panajachel	2	Febrero	2023-02-17T00:00:00	2024-11-08T14:00:00	2	Temperatura media	25.7
20326	7	Sololá	710	Panajachel	8	Panajachel	2	Febrero	2023-02-17T00:00:00	2024-11-08T14:00:00	4	Temperatura máxima	25.8
20327	7	Sololá	710	Panajachel	8	Panajachel	2	Febrero	2023-02-17T00:00:00	2024-11-08T14:00:00	3	Temperatura mínima	25.2
20328	7	Sololá	710	Panajachel	8	Panajachel	2	Febrero	2023-02-17T00:00:00	2024-11-08T14:00:00	5	Humedad	40
20329	7	Sololá	710	Panajachel	8	Panajachel	2	Febrero	2023-02-17T00:00:00	2024-11-08T14:00:00	6	Velocidad del viento	12.9
20330	7	Sololá	710	Panajachel	8	Panajachel	2	Febrero	2023-02-17T00:00:00	2024-11-08T14:00:00	7	Dirección del viento	12.87
20331	7	Sololá	710	Panajachel	8	Panajachel	2	Febrero	2023-02-17T00:00:00	2024-11-08T14:00:00	1	Precipitación	0
20332	7	Sololá	710	Panajachel	8	Panajachel	2	Febrero	2023-02-17T00:00:00	2024-11-08T14:00:00	8	Radiación solar	847
20333	7	Sololá	710	Panajachel	8	Panajachel	2	Febrero	2023-02-17T00:00:00	2024-11-08T15:00:00	2	Temperatura media	25.2
20334	7	Sololá	710	Panajachel	8	Panajachel	2	Febrero	2023-02-17T00:00:00	2024-11-08T15:00:00	4	Temperatura máxima	25.9
20335	7	Sololá	710	Panajachel	8	Panajachel	2	Febrero	2023-02-17T00:00:00	2024-11-08T15:00:00	3	Temperatura mínima	24.7
20336	7	Sololá	710	Panajachel	8	Panajachel	2	Febrero	2023-02-17T00:00:00	2024-11-08T15:00:00	5	Humedad	41
20337	7	Sololá	710	Panajachel	8	Panajachel	2	Febrero	2023-02-17T00:00:00	2024-11-08T15:00:00	6	Velocidad del viento	11.3
20338	7	Sololá	710	Panajachel	8	Panajachel	2	Febrero	2023-02-17T00:00:00	2024-11-08T15:00:00	7	Dirección del viento	11.27
20339	7	Sololá	710	Panajachel	8	Panajachel	2	Febrero	2023-02-17T00:00:00	2024-11-08T15:00:00	1	Precipitación	0
20340	7	Sololá	710	Panajachel	8	Panajachel	2	Febrero	2023-02-17T00:00:00	2024-11-08T15:00:00	8	Radiación solar	743
20341	7	Sololá	710	Panajachel	8	Panajachel	2	Febrero	2023-02-17T00:00:00	2024-11-08T16:00:00	2	Temperatura media	23.8
20342	7	Sololá	710	Panajachel	8	Panajachel	2	Febrero	2023-02-17T00:00:00	2024-11-08T16:00:00	4	Temperatura máxima	25.3
20343	7	Sololá	710	Panajachel	8	Panajachel	2	Febrero	2023-02-17T00:00:00	2024-11-08T16:00:00	3	Temperatura mínima	23.8
20344	7	Sololá	710	Panajachel	8	Panajachel	2	Febrero	2023-02-17T00:00:00	2024-11-08T16:00:00	5	Humedad	48
20345	7	Sololá	710	Panajachel	8	Panajachel	2	Febrero	2023-02-17T00:00:00	2024-11-08T16:00:00	6	Velocidad del viento	12.9
20346	7	Sololá	710	Panajachel	8	Panajachel	2	Febrero	2023-02-17T00:00:00	2024-11-08T16:00:00	7	Dirección del viento	12.87
20347	7	Sololá	710	Panajachel	8	Panajachel	2	Febrero	2023-02-17T00:00:00	2024-11-08T16:00:00	1	Precipitación	0
20348	7	Sololá	710	Panajachel	8	Panajachel	2	Febrero	2023-02-17T00:00:00	2024-11-08T16:00:00	8	Radiación solar	557
20349	7	Sololá	710	Panajachel	8	Panajachel	2	Febrero	2023-02-17T00:00:00	2024-11-08T17:00:00	2	Temperatura media	22.4
20350	7	Sololá	710	Panajachel	8	Panajachel	2	Febrero	2023-02-17T00:00:00	2024-11-08T17:00:00	4	Temperatura máxima	23.9
20351	7	Sololá	710	Panajachel	8	Panajachel	2	Febrero	2023-02-17T00:00:00	2024-11-08T17:00:00	3	Temperatura mínima	22.4
20352	7	Sololá	710	Panajachel	8	Panajachel	2	Febrero	2023-02-17T00:00:00	2024-11-08T17:00:00	5	Humedad	49
20353	7	Sololá	710	Panajachel	8	Panajachel	2	Febrero	2023-02-17T00:00:00	2024-11-08T17:00:00	6	Velocidad del viento	12.9
20354	7	Sololá	710	Panajachel	8	Panajachel	2	Febrero	2023-02-17T00:00:00	2024-11-08T17:00:00	7	Dirección del viento	12.87
20355	7	Sololá	710	Panajachel	8	Panajachel	2	Febrero	2023-02-17T00:00:00	2024-11-08T17:00:00	1	Precipitación	0
20356	7	Sololá	710	Panajachel	8	Panajachel	2	Febrero	2023-02-17T00:00:00	2024-11-08T17:00:00	8	Radiación solar	343
20357	7	Sololá	710	Panajachel	8	Panajachel	2	Febrero	2023-02-17T00:00:00	2024-11-08T18:00:00	2	Temperatura media	20.6
20358	7	Sololá	710	Panajachel	8	Panajachel	2	Febrero	2023-02-17T00:00:00	2024-11-08T18:00:00	4	Temperatura máxima	22.4
20359	7	Sololá	710	Panajachel	8	Panajachel	2	Febrero	2023-02-17T00:00:00	2024-11-08T18:00:00	3	Temperatura mínima	20.6
20360	7	Sololá	710	Panajachel	8	Panajachel	2	Febrero	2023-02-17T00:00:00	2024-11-08T18:00:00	5	Humedad	56
20361	7	Sololá	710	Panajachel	8	Panajachel	2	Febrero	2023-02-17T00:00:00	2024-11-08T18:00:00	6	Velocidad del viento	9.7
20362	7	Sololá	710	Panajachel	8	Panajachel	2	Febrero	2023-02-17T00:00:00	2024-11-08T18:00:00	7	Dirección del viento	9.66
20363	7	Sololá	710	Panajachel	8	Panajachel	2	Febrero	2023-02-17T00:00:00	2024-11-08T18:00:00	1	Precipitación	0
20364	7	Sololá	710	Panajachel	8	Panajachel	2	Febrero	2023-02-17T00:00:00	2024-11-08T18:00:00	8	Radiación solar	91
20365	7	Sololá	710	Panajachel	8	Panajachel	2	Febrero	2023-02-17T00:00:00	2024-11-08T19:00:00	2	Temperatura media	19.2
20366	7	Sololá	710	Panajachel	8	Panajachel	2	Febrero	2023-02-17T00:00:00	2024-11-08T19:00:00	4	Temperatura máxima	20.6
20367	7	Sololá	710	Panajachel	8	Panajachel	2	Febrero	2023-02-17T00:00:00	2024-11-08T19:00:00	3	Temperatura mínima	19.2
20368	7	Sololá	710	Panajachel	8	Panajachel	2	Febrero	2023-02-17T00:00:00	2024-11-08T19:00:00	5	Humedad	61
20369	7	Sololá	710	Panajachel	8	Panajachel	2	Febrero	2023-02-17T00:00:00	2024-11-08T19:00:00	6	Velocidad del viento	6.4
20370	7	Sololá	710	Panajachel	8	Panajachel	2	Febrero	2023-02-17T00:00:00	2024-11-08T19:00:00	7	Dirección del viento	6.44
20371	7	Sololá	710	Panajachel	8	Panajachel	2	Febrero	2023-02-17T00:00:00	2024-11-08T19:00:00	1	Precipitación	0
20372	7	Sololá	710	Panajachel	8	Panajachel	2	Febrero	2023-02-17T00:00:00	2024-11-08T19:00:00	8	Radiación solar	0
20373	7	Sololá	710	Panajachel	8	Panajachel	2	Febrero	2023-02-17T00:00:00	2024-11-08T20:00:00	2	Temperatura media	18.9
20374	7	Sololá	710	Panajachel	8	Panajachel	2	Febrero	2023-02-17T00:00:00	2024-11-08T20:00:00	4	Temperatura máxima	19.2
20375	7	Sololá	710	Panajachel	8	Panajachel	2	Febrero	2023-02-17T00:00:00	2024-11-08T20:00:00	3	Temperatura mínima	18.8
20376	7	Sololá	710	Panajachel	8	Panajachel	2	Febrero	2023-02-17T00:00:00	2024-11-08T20:00:00	5	Humedad	64
20377	7	Sololá	710	Panajachel	8	Panajachel	2	Febrero	2023-02-17T00:00:00	2024-11-08T20:00:00	6	Velocidad del viento	8
20378	7	Sololá	710	Panajachel	8	Panajachel	2	Febrero	2023-02-17T00:00:00	2024-11-08T20:00:00	7	Dirección del viento	8.05
20379	7	Sololá	710	Panajachel	8	Panajachel	2	Febrero	2023-02-17T00:00:00	2024-11-08T20:00:00	1	Precipitación	0
20380	7	Sololá	710	Panajachel	8	Panajachel	2	Febrero	2023-02-17T00:00:00	2024-11-08T20:00:00	8	Radiación solar	0
20381	7	Sololá	710	Panajachel	8	Panajachel	2	Febrero	2023-02-17T00:00:00	2024-11-08T21:00:00	2	Temperatura media	18.6
20382	7	Sololá	710	Panajachel	8	Panajachel	2	Febrero	2023-02-17T00:00:00	2024-11-08T21:00:00	4	Temperatura máxima	18.9
20383	7	Sololá	710	Panajachel	8	Panajachel	2	Febrero	2023-02-17T00:00:00	2024-11-08T21:00:00	3	Temperatura mínima	18.5
20384	7	Sololá	710	Panajachel	8	Panajachel	2	Febrero	2023-02-17T00:00:00	2024-11-08T21:00:00	5	Humedad	65
20385	7	Sololá	710	Panajachel	8	Panajachel	2	Febrero	2023-02-17T00:00:00	2024-11-08T21:00:00	6	Velocidad del viento	8
20386	7	Sololá	710	Panajachel	8	Panajachel	2	Febrero	2023-02-17T00:00:00	2024-11-08T21:00:00	7	Dirección del viento	8.05
20387	7	Sololá	710	Panajachel	8	Panajachel	2	Febrero	2023-02-17T00:00:00	2024-11-08T21:00:00	1	Precipitación	0
20388	7	Sololá	710	Panajachel	8	Panajachel	2	Febrero	2023-02-17T00:00:00	2024-11-08T21:00:00	8	Radiación solar	0
20389	7	Sololá	710	Panajachel	8	Panajachel	2	Febrero	2023-02-17T00:00:00	2024-11-08T22:00:00	2	Temperatura media	18.7
20390	7	Sololá	710	Panajachel	8	Panajachel	2	Febrero	2023-02-17T00:00:00	2024-11-08T22:00:00	4	Temperatura máxima	18.7
20391	7	Sololá	710	Panajachel	8	Panajachel	2	Febrero	2023-02-17T00:00:00	2024-11-08T22:00:00	3	Temperatura mínima	18.6
20392	7	Sololá	710	Panajachel	8	Panajachel	2	Febrero	2023-02-17T00:00:00	2024-11-08T22:00:00	5	Humedad	65
20393	7	Sololá	710	Panajachel	8	Panajachel	2	Febrero	2023-02-17T00:00:00	2024-11-08T22:00:00	6	Velocidad del viento	6.4
20394	7	Sololá	710	Panajachel	8	Panajachel	2	Febrero	2023-02-17T00:00:00	2024-11-08T22:00:00	7	Dirección del viento	6.44
20395	7	Sololá	710	Panajachel	8	Panajachel	2	Febrero	2023-02-17T00:00:00	2024-11-08T22:00:00	1	Precipitación	0
20396	7	Sololá	710	Panajachel	8	Panajachel	2	Febrero	2023-02-17T00:00:00	2024-11-08T22:00:00	8	Radiación solar	0
20397	7	Sololá	710	Panajachel	8	Panajachel	2	Febrero	2023-02-17T00:00:00	2024-11-08T23:00:00	2	Temperatura media	18.9
20398	7	Sololá	710	Panajachel	8	Panajachel	2	Febrero	2023-02-17T00:00:00	2024-11-08T23:00:00	4	Temperatura máxima	18.9
20399	7	Sololá	710	Panajachel	8	Panajachel	2	Febrero	2023-02-17T00:00:00	2024-11-08T23:00:00	3	Temperatura mínima	18.6
20400	7	Sololá	710	Panajachel	8	Panajachel	2	Febrero	2023-02-17T00:00:00	2024-11-08T23:00:00	5	Humedad	67
20401	7	Sololá	710	Panajachel	8	Panajachel	2	Febrero	2023-02-17T00:00:00	2024-11-08T23:00:00	6	Velocidad del viento	8
20402	7	Sololá	710	Panajachel	8	Panajachel	2	Febrero	2023-02-17T00:00:00	2024-11-08T23:00:00	7	Dirección del viento	8.05
20403	7	Sololá	710	Panajachel	8	Panajachel	2	Febrero	2023-02-17T00:00:00	2024-11-08T23:00:00	1	Precipitación	0
20404	7	Sololá	710	Panajachel	8	Panajachel	2	Febrero	2023-02-17T00:00:00	2024-11-08T23:00:00	8	Radiación solar	0
20405	7	Sololá	710	Panajachel	8	Panajachel	2	Febrero	2023-02-18T00:00:00	2024-11-08T00:00:00	2	Temperatura media	18.7
20406	7	Sololá	710	Panajachel	8	Panajachel	2	Febrero	2023-02-18T00:00:00	2024-11-08T00:00:00	4	Temperatura máxima	19.1
20407	7	Sololá	710	Panajachel	8	Panajachel	2	Febrero	2023-02-18T00:00:00	2024-11-08T00:00:00	3	Temperatura mínima	18.7
20408	7	Sololá	710	Panajachel	8	Panajachel	2	Febrero	2023-02-18T00:00:00	2024-11-08T00:00:00	5	Humedad	68
20409	7	Sololá	710	Panajachel	8	Panajachel	2	Febrero	2023-02-18T00:00:00	2024-11-08T00:00:00	6	Velocidad del viento	8
20410	7	Sololá	710	Panajachel	8	Panajachel	2	Febrero	2023-02-18T00:00:00	2024-11-08T00:00:00	7	Dirección del viento	8.05
20411	7	Sololá	710	Panajachel	8	Panajachel	2	Febrero	2023-02-18T00:00:00	2024-11-08T00:00:00	1	Precipitación	0
20412	7	Sololá	710	Panajachel	8	Panajachel	2	Febrero	2023-02-18T00:00:00	2024-11-08T00:00:00	8	Radiación solar	0
20413	7	Sololá	710	Panajachel	8	Panajachel	2	Febrero	2023-02-18T00:00:00	2024-11-08T01:00:00	2	Temperatura media	18.9
20414	7	Sololá	710	Panajachel	8	Panajachel	2	Febrero	2023-02-18T00:00:00	2024-11-08T01:00:00	4	Temperatura máxima	19.1
20415	7	Sololá	710	Panajachel	8	Panajachel	2	Febrero	2023-02-18T00:00:00	2024-11-08T01:00:00	3	Temperatura mínima	18.7
20416	7	Sololá	710	Panajachel	8	Panajachel	2	Febrero	2023-02-18T00:00:00	2024-11-08T01:00:00	5	Humedad	68
20417	7	Sololá	710	Panajachel	8	Panajachel	2	Febrero	2023-02-18T00:00:00	2024-11-08T01:00:00	6	Velocidad del viento	6.4
20418	7	Sololá	710	Panajachel	8	Panajachel	2	Febrero	2023-02-18T00:00:00	2024-11-08T01:00:00	7	Dirección del viento	6.44
20419	7	Sololá	710	Panajachel	8	Panajachel	2	Febrero	2023-02-18T00:00:00	2024-11-08T01:00:00	1	Precipitación	0
20420	7	Sololá	710	Panajachel	8	Panajachel	2	Febrero	2023-02-18T00:00:00	2024-11-08T01:00:00	8	Radiación solar	0
20421	7	Sololá	710	Panajachel	8	Panajachel	2	Febrero	2023-02-18T00:00:00	2024-11-08T02:00:00	2	Temperatura media	18.1
20422	7	Sololá	710	Panajachel	8	Panajachel	2	Febrero	2023-02-18T00:00:00	2024-11-08T02:00:00	4	Temperatura máxima	19
20423	7	Sololá	710	Panajachel	8	Panajachel	2	Febrero	2023-02-18T00:00:00	2024-11-08T02:00:00	3	Temperatura mínima	18.1
20424	7	Sololá	710	Panajachel	8	Panajachel	2	Febrero	2023-02-18T00:00:00	2024-11-08T02:00:00	5	Humedad	73
20425	7	Sololá	710	Panajachel	8	Panajachel	2	Febrero	2023-02-18T00:00:00	2024-11-08T02:00:00	6	Velocidad del viento	8
20426	7	Sololá	710	Panajachel	8	Panajachel	2	Febrero	2023-02-18T00:00:00	2024-11-08T02:00:00	7	Dirección del viento	8.05
20427	7	Sololá	710	Panajachel	8	Panajachel	2	Febrero	2023-02-18T00:00:00	2024-11-08T02:00:00	1	Precipitación	0
20428	7	Sololá	710	Panajachel	8	Panajachel	2	Febrero	2023-02-18T00:00:00	2024-11-08T02:00:00	8	Radiación solar	0
20429	7	Sololá	710	Panajachel	8	Panajachel	2	Febrero	2023-02-18T00:00:00	2024-11-08T03:00:00	2	Temperatura media	17.9
20430	7	Sololá	710	Panajachel	8	Panajachel	2	Febrero	2023-02-18T00:00:00	2024-11-08T03:00:00	4	Temperatura máxima	18.1
20431	7	Sololá	710	Panajachel	8	Panajachel	2	Febrero	2023-02-18T00:00:00	2024-11-08T03:00:00	3	Temperatura mínima	17.8
20432	7	Sololá	710	Panajachel	8	Panajachel	2	Febrero	2023-02-18T00:00:00	2024-11-08T03:00:00	5	Humedad	70
20433	7	Sololá	710	Panajachel	8	Panajachel	2	Febrero	2023-02-18T00:00:00	2024-11-08T03:00:00	6	Velocidad del viento	6.4
20434	7	Sololá	710	Panajachel	8	Panajachel	2	Febrero	2023-02-18T00:00:00	2024-11-08T03:00:00	7	Dirección del viento	6.44
20435	7	Sololá	710	Panajachel	8	Panajachel	2	Febrero	2023-02-18T00:00:00	2024-11-08T03:00:00	1	Precipitación	0
20436	7	Sololá	710	Panajachel	8	Panajachel	2	Febrero	2023-02-18T00:00:00	2024-11-08T03:00:00	8	Radiación solar	0
20437	7	Sololá	710	Panajachel	8	Panajachel	2	Febrero	2023-02-18T00:00:00	2024-11-08T04:00:00	2	Temperatura media	17.3
20438	7	Sololá	710	Panajachel	8	Panajachel	2	Febrero	2023-02-18T00:00:00	2024-11-08T04:00:00	4	Temperatura máxima	18
20439	7	Sololá	710	Panajachel	8	Panajachel	2	Febrero	2023-02-18T00:00:00	2024-11-08T04:00:00	3	Temperatura mínima	17.3
20440	7	Sololá	710	Panajachel	8	Panajachel	2	Febrero	2023-02-18T00:00:00	2024-11-08T04:00:00	5	Humedad	66
20441	7	Sololá	710	Panajachel	8	Panajachel	2	Febrero	2023-02-18T00:00:00	2024-11-08T04:00:00	6	Velocidad del viento	8
20442	7	Sololá	710	Panajachel	8	Panajachel	2	Febrero	2023-02-18T00:00:00	2024-11-08T04:00:00	7	Dirección del viento	8.05
20443	7	Sololá	710	Panajachel	8	Panajachel	2	Febrero	2023-02-18T00:00:00	2024-11-08T04:00:00	1	Precipitación	0
20444	7	Sololá	710	Panajachel	8	Panajachel	2	Febrero	2023-02-18T00:00:00	2024-11-08T04:00:00	8	Radiación solar	0
20445	7	Sololá	710	Panajachel	8	Panajachel	2	Febrero	2023-02-18T00:00:00	2024-11-08T05:00:00	2	Temperatura media	16.9
20446	7	Sololá	710	Panajachel	8	Panajachel	2	Febrero	2023-02-18T00:00:00	2024-11-08T05:00:00	4	Temperatura máxima	17.4
20447	7	Sololá	710	Panajachel	8	Panajachel	2	Febrero	2023-02-18T00:00:00	2024-11-08T05:00:00	3	Temperatura mínima	16.9
20448	7	Sololá	710	Panajachel	8	Panajachel	2	Febrero	2023-02-18T00:00:00	2024-11-08T05:00:00	5	Humedad	65
20449	7	Sololá	710	Panajachel	8	Panajachel	2	Febrero	2023-02-18T00:00:00	2024-11-08T05:00:00	6	Velocidad del viento	9.7
20450	7	Sololá	710	Panajachel	8	Panajachel	2	Febrero	2023-02-18T00:00:00	2024-11-08T05:00:00	7	Dirección del viento	9.66
20451	7	Sololá	710	Panajachel	8	Panajachel	2	Febrero	2023-02-18T00:00:00	2024-11-08T05:00:00	1	Precipitación	0
20452	7	Sololá	710	Panajachel	8	Panajachel	2	Febrero	2023-02-18T00:00:00	2024-11-08T05:00:00	8	Radiación solar	0
20453	7	Sololá	710	Panajachel	8	Panajachel	2	Febrero	2023-02-18T00:00:00	2024-11-08T06:00:00	2	Temperatura media	16.7
20454	7	Sololá	710	Panajachel	8	Panajachel	2	Febrero	2023-02-18T00:00:00	2024-11-08T06:00:00	4	Temperatura máxima	17.1
20455	7	Sololá	710	Panajachel	8	Panajachel	2	Febrero	2023-02-18T00:00:00	2024-11-08T06:00:00	3	Temperatura mínima	16.7
20456	7	Sololá	710	Panajachel	8	Panajachel	2	Febrero	2023-02-18T00:00:00	2024-11-08T06:00:00	5	Humedad	66
20457	7	Sololá	710	Panajachel	8	Panajachel	2	Febrero	2023-02-18T00:00:00	2024-11-08T06:00:00	6	Velocidad del viento	6.4
20458	7	Sololá	710	Panajachel	8	Panajachel	2	Febrero	2023-02-18T00:00:00	2024-11-08T06:00:00	7	Dirección del viento	6.44
20459	7	Sololá	710	Panajachel	8	Panajachel	2	Febrero	2023-02-18T00:00:00	2024-11-08T06:00:00	1	Precipitación	0
20460	7	Sololá	710	Panajachel	8	Panajachel	2	Febrero	2023-02-18T00:00:00	2024-11-08T06:00:00	8	Radiación solar	0
20461	7	Sololá	710	Panajachel	8	Panajachel	2	Febrero	2023-02-18T00:00:00	2024-11-08T07:00:00	2	Temperatura media	16.5
20462	7	Sololá	710	Panajachel	8	Panajachel	2	Febrero	2023-02-18T00:00:00	2024-11-08T07:00:00	4	Temperatura máxima	16.8
20463	7	Sololá	710	Panajachel	8	Panajachel	2	Febrero	2023-02-18T00:00:00	2024-11-08T07:00:00	3	Temperatura mínima	16.5
20464	7	Sololá	710	Panajachel	8	Panajachel	2	Febrero	2023-02-18T00:00:00	2024-11-08T07:00:00	5	Humedad	66
20465	7	Sololá	710	Panajachel	8	Panajachel	2	Febrero	2023-02-18T00:00:00	2024-11-08T07:00:00	6	Velocidad del viento	8
20466	7	Sololá	710	Panajachel	8	Panajachel	2	Febrero	2023-02-18T00:00:00	2024-11-08T07:00:00	7	Dirección del viento	8.05
20467	7	Sololá	710	Panajachel	8	Panajachel	2	Febrero	2023-02-18T00:00:00	2024-11-08T07:00:00	1	Precipitación	0
20468	7	Sololá	710	Panajachel	8	Panajachel	2	Febrero	2023-02-18T00:00:00	2024-11-08T07:00:00	8	Radiación solar	6
20469	7	Sololá	710	Panajachel	8	Panajachel	2	Febrero	2023-02-18T00:00:00	2024-11-08T08:00:00	2	Temperatura media	18.3
20470	7	Sololá	710	Panajachel	8	Panajachel	2	Febrero	2023-02-18T00:00:00	2024-11-08T08:00:00	4	Temperatura máxima	18.3
20471	7	Sololá	710	Panajachel	8	Panajachel	2	Febrero	2023-02-18T00:00:00	2024-11-08T08:00:00	3	Temperatura mínima	16.4
20472	7	Sololá	710	Panajachel	8	Panajachel	2	Febrero	2023-02-18T00:00:00	2024-11-08T08:00:00	5	Humedad	59
20473	7	Sololá	710	Panajachel	8	Panajachel	2	Febrero	2023-02-18T00:00:00	2024-11-08T08:00:00	6	Velocidad del viento	6.4
20474	7	Sololá	710	Panajachel	8	Panajachel	2	Febrero	2023-02-18T00:00:00	2024-11-08T08:00:00	7	Dirección del viento	6.44
20475	7	Sololá	710	Panajachel	8	Panajachel	2	Febrero	2023-02-18T00:00:00	2024-11-08T08:00:00	1	Precipitación	0
20476	7	Sololá	710	Panajachel	8	Panajachel	2	Febrero	2023-02-18T00:00:00	2024-11-08T08:00:00	8	Radiación solar	169
20477	7	Sololá	710	Panajachel	8	Panajachel	2	Febrero	2023-02-18T00:00:00	2024-11-08T09:00:00	2	Temperatura media	19.8
20478	7	Sololá	710	Panajachel	8	Panajachel	2	Febrero	2023-02-18T00:00:00	2024-11-08T09:00:00	4	Temperatura máxima	19.8
20479	7	Sololá	710	Panajachel	8	Panajachel	2	Febrero	2023-02-18T00:00:00	2024-11-08T09:00:00	3	Temperatura mínima	18.3
20480	7	Sololá	710	Panajachel	8	Panajachel	2	Febrero	2023-02-18T00:00:00	2024-11-08T09:00:00	5	Humedad	56
20481	7	Sololá	710	Panajachel	8	Panajachel	2	Febrero	2023-02-18T00:00:00	2024-11-08T09:00:00	6	Velocidad del viento	8
20482	7	Sololá	710	Panajachel	8	Panajachel	2	Febrero	2023-02-18T00:00:00	2024-11-08T09:00:00	7	Dirección del viento	8.05
20483	7	Sololá	710	Panajachel	8	Panajachel	2	Febrero	2023-02-18T00:00:00	2024-11-08T09:00:00	1	Precipitación	0
20484	7	Sololá	710	Panajachel	8	Panajachel	2	Febrero	2023-02-18T00:00:00	2024-11-08T09:00:00	8	Radiación solar	429
20485	7	Sololá	710	Panajachel	8	Panajachel	2	Febrero	2023-02-18T00:00:00	2024-11-08T10:00:00	2	Temperatura media	20.9
20486	7	Sololá	710	Panajachel	8	Panajachel	2	Febrero	2023-02-18T00:00:00	2024-11-08T10:00:00	4	Temperatura máxima	21
20487	7	Sololá	710	Panajachel	8	Panajachel	2	Febrero	2023-02-18T00:00:00	2024-11-08T10:00:00	3	Temperatura mínima	19.7
20488	7	Sololá	710	Panajachel	8	Panajachel	2	Febrero	2023-02-18T00:00:00	2024-11-08T10:00:00	5	Humedad	57
20489	7	Sololá	710	Panajachel	8	Panajachel	2	Febrero	2023-02-18T00:00:00	2024-11-08T10:00:00	6	Velocidad del viento	8
20490	7	Sololá	710	Panajachel	8	Panajachel	2	Febrero	2023-02-18T00:00:00	2024-11-08T10:00:00	7	Dirección del viento	8.05
20491	7	Sololá	710	Panajachel	8	Panajachel	2	Febrero	2023-02-18T00:00:00	2024-11-08T10:00:00	1	Precipitación	0
20492	7	Sololá	710	Panajachel	8	Panajachel	2	Febrero	2023-02-18T00:00:00	2024-11-08T10:00:00	8	Radiación solar	645
20493	7	Sololá	710	Panajachel	8	Panajachel	2	Febrero	2023-02-18T00:00:00	2024-11-08T11:00:00	2	Temperatura media	21.3
20494	7	Sololá	710	Panajachel	8	Panajachel	2	Febrero	2023-02-18T00:00:00	2024-11-08T11:00:00	4	Temperatura máxima	21.4
20495	7	Sololá	710	Panajachel	8	Panajachel	2	Febrero	2023-02-18T00:00:00	2024-11-08T11:00:00	3	Temperatura mínima	20.1
20496	7	Sololá	710	Panajachel	8	Panajachel	2	Febrero	2023-02-18T00:00:00	2024-11-08T11:00:00	5	Humedad	58
20497	7	Sololá	710	Panajachel	8	Panajachel	2	Febrero	2023-02-18T00:00:00	2024-11-08T11:00:00	6	Velocidad del viento	11.3
20498	7	Sololá	710	Panajachel	8	Panajachel	2	Febrero	2023-02-18T00:00:00	2024-11-08T11:00:00	7	Dirección del viento	11.27
20499	7	Sololá	710	Panajachel	8	Panajachel	2	Febrero	2023-02-18T00:00:00	2024-11-08T11:00:00	1	Precipitación	0
20500	7	Sololá	710	Panajachel	8	Panajachel	2	Febrero	2023-02-18T00:00:00	2024-11-08T11:00:00	8	Radiación solar	834
20501	7	Sololá	710	Panajachel	8	Panajachel	2	Febrero	2023-02-18T00:00:00	2024-11-08T12:00:00	2	Temperatura media	21.9
20502	7	Sololá	710	Panajachel	8	Panajachel	2	Febrero	2023-02-18T00:00:00	2024-11-08T12:00:00	4	Temperatura máxima	21.9
20503	7	Sololá	710	Panajachel	8	Panajachel	2	Febrero	2023-02-18T00:00:00	2024-11-08T12:00:00	3	Temperatura mínima	21.1
20504	7	Sololá	710	Panajachel	8	Panajachel	2	Febrero	2023-02-18T00:00:00	2024-11-08T12:00:00	5	Humedad	58
20505	7	Sololá	710	Panajachel	8	Panajachel	2	Febrero	2023-02-18T00:00:00	2024-11-08T12:00:00	6	Velocidad del viento	11.3
20506	7	Sololá	710	Panajachel	8	Panajachel	2	Febrero	2023-02-18T00:00:00	2024-11-08T12:00:00	7	Dirección del viento	11.27
20507	7	Sololá	710	Panajachel	8	Panajachel	2	Febrero	2023-02-18T00:00:00	2024-11-08T12:00:00	1	Precipitación	0
20508	7	Sololá	710	Panajachel	8	Panajachel	2	Febrero	2023-02-18T00:00:00	2024-11-08T12:00:00	8	Radiación solar	982
20509	7	Sololá	710	Panajachel	8	Panajachel	2	Febrero	2023-02-18T00:00:00	2024-11-08T13:00:00	2	Temperatura media	21.6
20510	7	Sololá	710	Panajachel	8	Panajachel	2	Febrero	2023-02-18T00:00:00	2024-11-08T13:00:00	4	Temperatura máxima	22.1
20511	7	Sololá	710	Panajachel	8	Panajachel	2	Febrero	2023-02-18T00:00:00	2024-11-08T13:00:00	3	Temperatura mínima	20.8
20512	7	Sololá	710	Panajachel	8	Panajachel	2	Febrero	2023-02-18T00:00:00	2024-11-08T13:00:00	5	Humedad	60
20513	7	Sololá	710	Panajachel	8	Panajachel	2	Febrero	2023-02-18T00:00:00	2024-11-08T13:00:00	6	Velocidad del viento	8
20514	7	Sololá	710	Panajachel	8	Panajachel	2	Febrero	2023-02-18T00:00:00	2024-11-08T13:00:00	7	Dirección del viento	8.05
20515	7	Sololá	710	Panajachel	8	Panajachel	2	Febrero	2023-02-18T00:00:00	2024-11-08T13:00:00	1	Precipitación	0
20516	7	Sololá	710	Panajachel	8	Panajachel	2	Febrero	2023-02-18T00:00:00	2024-11-08T13:00:00	8	Radiación solar	719
20517	7	Sololá	710	Panajachel	8	Panajachel	2	Febrero	2023-02-18T00:00:00	2024-11-08T14:00:00	2	Temperatura media	21.7
20518	7	Sololá	710	Panajachel	8	Panajachel	2	Febrero	2023-02-18T00:00:00	2024-11-08T14:00:00	4	Temperatura máxima	22.2
20519	7	Sololá	710	Panajachel	8	Panajachel	2	Febrero	2023-02-18T00:00:00	2024-11-08T14:00:00	3	Temperatura mínima	21.6
20520	7	Sololá	710	Panajachel	8	Panajachel	2	Febrero	2023-02-18T00:00:00	2024-11-08T14:00:00	5	Humedad	59
20521	7	Sololá	710	Panajachel	8	Panajachel	2	Febrero	2023-02-18T00:00:00	2024-11-08T14:00:00	6	Velocidad del viento	6.4
20522	7	Sololá	710	Panajachel	8	Panajachel	2	Febrero	2023-02-18T00:00:00	2024-11-08T14:00:00	7	Dirección del viento	6.44
20523	7	Sololá	710	Panajachel	8	Panajachel	2	Febrero	2023-02-18T00:00:00	2024-11-08T14:00:00	1	Precipitación	0
20524	7	Sololá	710	Panajachel	8	Panajachel	2	Febrero	2023-02-18T00:00:00	2024-11-08T14:00:00	8	Radiación solar	552
20525	7	Sololá	710	Panajachel	8	Panajachel	2	Febrero	2023-02-18T00:00:00	2024-11-08T15:00:00	2	Temperatura media	21
20526	7	Sololá	710	Panajachel	8	Panajachel	2	Febrero	2023-02-18T00:00:00	2024-11-08T15:00:00	4	Temperatura máxima	21.7
20527	7	Sololá	710	Panajachel	8	Panajachel	2	Febrero	2023-02-18T00:00:00	2024-11-08T15:00:00	3	Temperatura mínima	20.6
20528	7	Sololá	710	Panajachel	8	Panajachel	2	Febrero	2023-02-18T00:00:00	2024-11-08T15:00:00	5	Humedad	61
20529	7	Sololá	710	Panajachel	8	Panajachel	2	Febrero	2023-02-18T00:00:00	2024-11-08T15:00:00	6	Velocidad del viento	6.4
20530	7	Sololá	710	Panajachel	8	Panajachel	2	Febrero	2023-02-18T00:00:00	2024-11-08T15:00:00	7	Dirección del viento	6.44
20531	7	Sololá	710	Panajachel	8	Panajachel	2	Febrero	2023-02-18T00:00:00	2024-11-08T15:00:00	1	Precipitación	0
20532	7	Sololá	710	Panajachel	8	Panajachel	2	Febrero	2023-02-18T00:00:00	2024-11-08T15:00:00	8	Radiación solar	391
20533	7	Sololá	710	Panajachel	8	Panajachel	2	Febrero	2023-02-18T00:00:00	2024-11-08T16:00:00	2	Temperatura media	20.8
20534	7	Sololá	710	Panajachel	8	Panajachel	2	Febrero	2023-02-18T00:00:00	2024-11-08T16:00:00	4	Temperatura máxima	21.1
20535	7	Sololá	710	Panajachel	8	Panajachel	2	Febrero	2023-02-18T00:00:00	2024-11-08T16:00:00	3	Temperatura mínima	20.6
20536	7	Sololá	710	Panajachel	8	Panajachel	2	Febrero	2023-02-18T00:00:00	2024-11-08T16:00:00	5	Humedad	60
20537	7	Sololá	710	Panajachel	8	Panajachel	2	Febrero	2023-02-18T00:00:00	2024-11-08T16:00:00	6	Velocidad del viento	9.7
20538	7	Sololá	710	Panajachel	8	Panajachel	2	Febrero	2023-02-18T00:00:00	2024-11-08T16:00:00	7	Dirección del viento	9.66
20539	7	Sololá	710	Panajachel	8	Panajachel	2	Febrero	2023-02-18T00:00:00	2024-11-08T16:00:00	1	Precipitación	0
20540	7	Sololá	710	Panajachel	8	Panajachel	2	Febrero	2023-02-18T00:00:00	2024-11-08T16:00:00	8	Radiación solar	317
20541	7	Sololá	710	Panajachel	8	Panajachel	2	Febrero	2023-02-18T00:00:00	2024-11-08T17:00:00	2	Temperatura media	20.9
20542	7	Sololá	710	Panajachel	8	Panajachel	2	Febrero	2023-02-18T00:00:00	2024-11-08T17:00:00	4	Temperatura máxima	20.9
20543	7	Sololá	710	Panajachel	8	Panajachel	2	Febrero	2023-02-18T00:00:00	2024-11-08T17:00:00	3	Temperatura mínima	19.8
20544	7	Sololá	710	Panajachel	8	Panajachel	2	Febrero	2023-02-18T00:00:00	2024-11-08T17:00:00	5	Humedad	59
20545	7	Sololá	710	Panajachel	8	Panajachel	2	Febrero	2023-02-18T00:00:00	2024-11-08T17:00:00	6	Velocidad del viento	4.8
20546	7	Sololá	710	Panajachel	8	Panajachel	2	Febrero	2023-02-18T00:00:00	2024-11-08T17:00:00	7	Dirección del viento	4.83
20547	7	Sololá	710	Panajachel	8	Panajachel	2	Febrero	2023-02-18T00:00:00	2024-11-08T17:00:00	1	Precipitación	0
20548	7	Sololá	710	Panajachel	8	Panajachel	2	Febrero	2023-02-18T00:00:00	2024-11-08T17:00:00	8	Radiación solar	218
20549	7	Sololá	710	Panajachel	8	Panajachel	2	Febrero	2023-02-18T00:00:00	2024-11-08T18:00:00	2	Temperatura media	18.7
20550	7	Sololá	710	Panajachel	8	Panajachel	2	Febrero	2023-02-18T00:00:00	2024-11-08T18:00:00	4	Temperatura máxima	21
20551	7	Sololá	710	Panajachel	8	Panajachel	2	Febrero	2023-02-18T00:00:00	2024-11-08T18:00:00	3	Temperatura mínima	18.7
20552	7	Sololá	710	Panajachel	8	Panajachel	2	Febrero	2023-02-18T00:00:00	2024-11-08T18:00:00	5	Humedad	64
20553	7	Sololá	710	Panajachel	8	Panajachel	2	Febrero	2023-02-18T00:00:00	2024-11-08T18:00:00	6	Velocidad del viento	8
20554	7	Sololá	710	Panajachel	8	Panajachel	2	Febrero	2023-02-18T00:00:00	2024-11-08T18:00:00	7	Dirección del viento	8.05
20555	7	Sololá	710	Panajachel	8	Panajachel	2	Febrero	2023-02-18T00:00:00	2024-11-08T18:00:00	1	Precipitación	0
20556	7	Sololá	710	Panajachel	8	Panajachel	2	Febrero	2023-02-18T00:00:00	2024-11-08T18:00:00	8	Radiación solar	93
20557	7	Sololá	710	Panajachel	8	Panajachel	2	Febrero	2023-02-18T00:00:00	2024-11-08T19:00:00	2	Temperatura media	17.8
20558	7	Sololá	710	Panajachel	8	Panajachel	2	Febrero	2023-02-18T00:00:00	2024-11-08T19:00:00	4	Temperatura máxima	18.7
20559	7	Sololá	710	Panajachel	8	Panajachel	2	Febrero	2023-02-18T00:00:00	2024-11-08T19:00:00	3	Temperatura mínima	17.8
20560	7	Sololá	710	Panajachel	8	Panajachel	2	Febrero	2023-02-18T00:00:00	2024-11-08T19:00:00	5	Humedad	62
20561	7	Sololá	710	Panajachel	8	Panajachel	2	Febrero	2023-02-18T00:00:00	2024-11-08T19:00:00	6	Velocidad del viento	19.3
20562	7	Sololá	710	Panajachel	8	Panajachel	2	Febrero	2023-02-18T00:00:00	2024-11-08T19:00:00	7	Dirección del viento	19.31
20563	7	Sololá	710	Panajachel	8	Panajachel	2	Febrero	2023-02-18T00:00:00	2024-11-08T19:00:00	1	Precipitación	0
20564	7	Sololá	710	Panajachel	8	Panajachel	2	Febrero	2023-02-18T00:00:00	2024-11-08T19:00:00	8	Radiación solar	0
20565	7	Sololá	710	Panajachel	8	Panajachel	2	Febrero	2023-02-18T00:00:00	2024-11-08T20:00:00	2	Temperatura media	17.4
20566	7	Sololá	710	Panajachel	8	Panajachel	2	Febrero	2023-02-18T00:00:00	2024-11-08T20:00:00	4	Temperatura máxima	17.9
20567	7	Sololá	710	Panajachel	8	Panajachel	2	Febrero	2023-02-18T00:00:00	2024-11-08T20:00:00	3	Temperatura mínima	17.4
20568	7	Sololá	710	Panajachel	8	Panajachel	2	Febrero	2023-02-18T00:00:00	2024-11-08T20:00:00	5	Humedad	65
20569	7	Sololá	710	Panajachel	8	Panajachel	2	Febrero	2023-02-18T00:00:00	2024-11-08T20:00:00	6	Velocidad del viento	11.3
20570	7	Sololá	710	Panajachel	8	Panajachel	2	Febrero	2023-02-18T00:00:00	2024-11-08T20:00:00	7	Dirección del viento	11.27
20571	7	Sololá	710	Panajachel	8	Panajachel	2	Febrero	2023-02-18T00:00:00	2024-11-08T20:00:00	1	Precipitación	0
20572	7	Sololá	710	Panajachel	8	Panajachel	2	Febrero	2023-02-18T00:00:00	2024-11-08T20:00:00	8	Radiación solar	0
20573	7	Sololá	710	Panajachel	8	Panajachel	2	Febrero	2023-02-18T00:00:00	2024-11-08T21:00:00	2	Temperatura media	17.3
20574	7	Sololá	710	Panajachel	8	Panajachel	2	Febrero	2023-02-18T00:00:00	2024-11-08T21:00:00	4	Temperatura máxima	17.4
20575	7	Sololá	710	Panajachel	8	Panajachel	2	Febrero	2023-02-18T00:00:00	2024-11-08T21:00:00	3	Temperatura mínima	17.2
20576	7	Sololá	710	Panajachel	8	Panajachel	2	Febrero	2023-02-18T00:00:00	2024-11-08T21:00:00	5	Humedad	68
20577	7	Sololá	710	Panajachel	8	Panajachel	2	Febrero	2023-02-18T00:00:00	2024-11-08T21:00:00	6	Velocidad del viento	4.8
20578	7	Sololá	710	Panajachel	8	Panajachel	2	Febrero	2023-02-18T00:00:00	2024-11-08T21:00:00	7	Dirección del viento	4.83
20579	7	Sololá	710	Panajachel	8	Panajachel	2	Febrero	2023-02-18T00:00:00	2024-11-08T21:00:00	1	Precipitación	0
20580	7	Sololá	710	Panajachel	8	Panajachel	2	Febrero	2023-02-18T00:00:00	2024-11-08T21:00:00	8	Radiación solar	0
20581	7	Sololá	710	Panajachel	8	Panajachel	2	Febrero	2023-02-18T00:00:00	2024-11-08T22:00:00	2	Temperatura media	16.8
20582	7	Sololá	710	Panajachel	8	Panajachel	2	Febrero	2023-02-18T00:00:00	2024-11-08T22:00:00	4	Temperatura máxima	17.3
20583	7	Sololá	710	Panajachel	8	Panajachel	2	Febrero	2023-02-18T00:00:00	2024-11-08T22:00:00	3	Temperatura mínima	16.7
20584	7	Sololá	710	Panajachel	8	Panajachel	2	Febrero	2023-02-18T00:00:00	2024-11-08T22:00:00	5	Humedad	71
20585	7	Sololá	710	Panajachel	8	Panajachel	2	Febrero	2023-02-18T00:00:00	2024-11-08T22:00:00	6	Velocidad del viento	6.4
20586	7	Sololá	710	Panajachel	8	Panajachel	2	Febrero	2023-02-18T00:00:00	2024-11-08T22:00:00	7	Dirección del viento	6.44
20587	7	Sololá	710	Panajachel	8	Panajachel	2	Febrero	2023-02-18T00:00:00	2024-11-08T22:00:00	1	Precipitación	0
20588	7	Sololá	710	Panajachel	8	Panajachel	2	Febrero	2023-02-18T00:00:00	2024-11-08T22:00:00	8	Radiación solar	0
20589	7	Sololá	710	Panajachel	8	Panajachel	2	Febrero	2023-02-18T00:00:00	2024-11-08T23:00:00	2	Temperatura media	17.3
20590	7	Sololá	710	Panajachel	8	Panajachel	2	Febrero	2023-02-18T00:00:00	2024-11-08T23:00:00	4	Temperatura máxima	17.3
20591	7	Sololá	710	Panajachel	8	Panajachel	2	Febrero	2023-02-18T00:00:00	2024-11-08T23:00:00	3	Temperatura mínima	16.7
20592	7	Sololá	710	Panajachel	8	Panajachel	2	Febrero	2023-02-18T00:00:00	2024-11-08T23:00:00	5	Humedad	71
20593	7	Sololá	710	Panajachel	8	Panajachel	2	Febrero	2023-02-18T00:00:00	2024-11-08T23:00:00	6	Velocidad del viento	6.4
20594	7	Sololá	710	Panajachel	8	Panajachel	2	Febrero	2023-02-18T00:00:00	2024-11-08T23:00:00	7	Dirección del viento	6.44
20595	7	Sololá	710	Panajachel	8	Panajachel	2	Febrero	2023-02-18T00:00:00	2024-11-08T23:00:00	1	Precipitación	0
20596	7	Sololá	710	Panajachel	8	Panajachel	2	Febrero	2023-02-18T00:00:00	2024-11-08T23:00:00	8	Radiación solar	0
20597	7	Sololá	710	Panajachel	8	Panajachel	2	Febrero	2023-02-19T00:00:00	2024-11-08T00:00:00	2	Temperatura media	16.9
20598	7	Sololá	710	Panajachel	8	Panajachel	2	Febrero	2023-02-19T00:00:00	2024-11-08T00:00:00	4	Temperatura máxima	17.3
20599	7	Sololá	710	Panajachel	8	Panajachel	2	Febrero	2023-02-19T00:00:00	2024-11-08T00:00:00	3	Temperatura mínima	16.8
20600	7	Sololá	710	Panajachel	8	Panajachel	2	Febrero	2023-02-19T00:00:00	2024-11-08T00:00:00	5	Humedad	72
20601	7	Sololá	710	Panajachel	8	Panajachel	2	Febrero	2023-02-19T00:00:00	2024-11-08T00:00:00	6	Velocidad del viento	8
20602	7	Sololá	710	Panajachel	8	Panajachel	2	Febrero	2023-02-19T00:00:00	2024-11-08T00:00:00	7	Dirección del viento	8.05
20603	7	Sololá	710	Panajachel	8	Panajachel	2	Febrero	2023-02-19T00:00:00	2024-11-08T00:00:00	1	Precipitación	0
20604	7	Sololá	710	Panajachel	8	Panajachel	2	Febrero	2023-02-19T00:00:00	2024-11-08T00:00:00	8	Radiación solar	0
20605	7	Sololá	710	Panajachel	8	Panajachel	2	Febrero	2023-02-19T00:00:00	2024-11-08T01:00:00	2	Temperatura media	16.7
20606	7	Sololá	710	Panajachel	8	Panajachel	2	Febrero	2023-02-19T00:00:00	2024-11-08T01:00:00	4	Temperatura máxima	17.2
20607	7	Sololá	710	Panajachel	8	Panajachel	2	Febrero	2023-02-19T00:00:00	2024-11-08T01:00:00	3	Temperatura mínima	16.7
20608	7	Sololá	710	Panajachel	8	Panajachel	2	Febrero	2023-02-19T00:00:00	2024-11-08T01:00:00	5	Humedad	73
20609	7	Sololá	710	Panajachel	8	Panajachel	2	Febrero	2023-02-19T00:00:00	2024-11-08T01:00:00	6	Velocidad del viento	11.3
20610	7	Sololá	710	Panajachel	8	Panajachel	2	Febrero	2023-02-19T00:00:00	2024-11-08T01:00:00	7	Dirección del viento	11.27
20611	7	Sololá	710	Panajachel	8	Panajachel	2	Febrero	2023-02-19T00:00:00	2024-11-08T01:00:00	1	Precipitación	0
20612	7	Sololá	710	Panajachel	8	Panajachel	2	Febrero	2023-02-19T00:00:00	2024-11-08T01:00:00	8	Radiación solar	0
20613	7	Sololá	710	Panajachel	8	Panajachel	2	Febrero	2023-02-19T00:00:00	2024-11-08T02:00:00	2	Temperatura media	16.8
20614	7	Sololá	710	Panajachel	8	Panajachel	2	Febrero	2023-02-19T00:00:00	2024-11-08T02:00:00	4	Temperatura máxima	17.2
20615	7	Sololá	710	Panajachel	8	Panajachel	2	Febrero	2023-02-19T00:00:00	2024-11-08T02:00:00	3	Temperatura mínima	16.7
20616	7	Sololá	710	Panajachel	8	Panajachel	2	Febrero	2023-02-19T00:00:00	2024-11-08T02:00:00	5	Humedad	71
20617	7	Sololá	710	Panajachel	8	Panajachel	2	Febrero	2023-02-19T00:00:00	2024-11-08T02:00:00	6	Velocidad del viento	12.9
20618	7	Sololá	710	Panajachel	8	Panajachel	2	Febrero	2023-02-19T00:00:00	2024-11-08T02:00:00	7	Dirección del viento	12.87
20619	7	Sololá	710	Panajachel	8	Panajachel	2	Febrero	2023-02-19T00:00:00	2024-11-08T02:00:00	1	Precipitación	0
20620	7	Sololá	710	Panajachel	8	Panajachel	2	Febrero	2023-02-19T00:00:00	2024-11-08T02:00:00	8	Radiación solar	0
20621	7	Sololá	710	Panajachel	8	Panajachel	2	Febrero	2023-02-19T00:00:00	2024-11-08T03:00:00	2	Temperatura media	16.7
20622	7	Sololá	710	Panajachel	8	Panajachel	2	Febrero	2023-02-19T00:00:00	2024-11-08T03:00:00	4	Temperatura máxima	16.9
20623	7	Sololá	710	Panajachel	8	Panajachel	2	Febrero	2023-02-19T00:00:00	2024-11-08T03:00:00	3	Temperatura mínima	16.6
20624	7	Sololá	710	Panajachel	8	Panajachel	2	Febrero	2023-02-19T00:00:00	2024-11-08T03:00:00	5	Humedad	71
20625	7	Sololá	710	Panajachel	8	Panajachel	2	Febrero	2023-02-19T00:00:00	2024-11-08T03:00:00	6	Velocidad del viento	8
20626	7	Sololá	710	Panajachel	8	Panajachel	2	Febrero	2023-02-19T00:00:00	2024-11-08T03:00:00	7	Dirección del viento	8.05
20627	7	Sololá	710	Panajachel	8	Panajachel	2	Febrero	2023-02-19T00:00:00	2024-11-08T03:00:00	1	Precipitación	0
20628	7	Sololá	710	Panajachel	8	Panajachel	2	Febrero	2023-02-19T00:00:00	2024-11-08T03:00:00	8	Radiación solar	0
20629	7	Sololá	710	Panajachel	8	Panajachel	2	Febrero	2023-02-19T00:00:00	2024-11-08T04:00:00	2	Temperatura media	16.4
20630	7	Sololá	710	Panajachel	8	Panajachel	2	Febrero	2023-02-19T00:00:00	2024-11-08T04:00:00	4	Temperatura máxima	16.7
20631	7	Sololá	710	Panajachel	8	Panajachel	2	Febrero	2023-02-19T00:00:00	2024-11-08T04:00:00	3	Temperatura mínima	16.3
20632	7	Sololá	710	Panajachel	8	Panajachel	2	Febrero	2023-02-19T00:00:00	2024-11-08T04:00:00	5	Humedad	73
20633	7	Sololá	710	Panajachel	8	Panajachel	2	Febrero	2023-02-19T00:00:00	2024-11-08T04:00:00	6	Velocidad del viento	8
20634	7	Sololá	710	Panajachel	8	Panajachel	2	Febrero	2023-02-19T00:00:00	2024-11-08T04:00:00	7	Dirección del viento	8.05
20635	7	Sololá	710	Panajachel	8	Panajachel	2	Febrero	2023-02-19T00:00:00	2024-11-08T04:00:00	1	Precipitación	0
20636	7	Sololá	710	Panajachel	8	Panajachel	2	Febrero	2023-02-19T00:00:00	2024-11-08T04:00:00	8	Radiación solar	0
20637	7	Sololá	710	Panajachel	8	Panajachel	2	Febrero	2023-02-19T00:00:00	2024-11-08T05:00:00	2	Temperatura media	16.2
20638	7	Sololá	710	Panajachel	8	Panajachel	2	Febrero	2023-02-19T00:00:00	2024-11-08T05:00:00	4	Temperatura máxima	16.3
20639	7	Sololá	710	Panajachel	8	Panajachel	2	Febrero	2023-02-19T00:00:00	2024-11-08T05:00:00	3	Temperatura mínima	15.9
20640	7	Sololá	710	Panajachel	8	Panajachel	2	Febrero	2023-02-19T00:00:00	2024-11-08T05:00:00	5	Humedad	75
20641	7	Sololá	710	Panajachel	8	Panajachel	2	Febrero	2023-02-19T00:00:00	2024-11-08T05:00:00	6	Velocidad del viento	6.4
20642	7	Sololá	710	Panajachel	8	Panajachel	2	Febrero	2023-02-19T00:00:00	2024-11-08T05:00:00	7	Dirección del viento	6.44
20643	7	Sololá	710	Panajachel	8	Panajachel	2	Febrero	2023-02-19T00:00:00	2024-11-08T05:00:00	1	Precipitación	0
20644	7	Sololá	710	Panajachel	8	Panajachel	2	Febrero	2023-02-19T00:00:00	2024-11-08T05:00:00	8	Radiación solar	0
20645	7	Sololá	710	Panajachel	8	Panajachel	2	Febrero	2023-02-19T00:00:00	2024-11-08T06:00:00	2	Temperatura media	16.2
20646	7	Sololá	710	Panajachel	8	Panajachel	2	Febrero	2023-02-19T00:00:00	2024-11-08T06:00:00	4	Temperatura máxima	16.4
20647	7	Sololá	710	Panajachel	8	Panajachel	2	Febrero	2023-02-19T00:00:00	2024-11-08T06:00:00	3	Temperatura mínima	16.1
20648	7	Sololá	710	Panajachel	8	Panajachel	2	Febrero	2023-02-19T00:00:00	2024-11-08T06:00:00	5	Humedad	75
20649	7	Sololá	710	Panajachel	8	Panajachel	2	Febrero	2023-02-19T00:00:00	2024-11-08T06:00:00	6	Velocidad del viento	6.4
20650	7	Sololá	710	Panajachel	8	Panajachel	2	Febrero	2023-02-19T00:00:00	2024-11-08T06:00:00	7	Dirección del viento	6.44
20651	7	Sololá	710	Panajachel	8	Panajachel	2	Febrero	2023-02-19T00:00:00	2024-11-08T06:00:00	1	Precipitación	0
20652	7	Sololá	710	Panajachel	8	Panajachel	2	Febrero	2023-02-19T00:00:00	2024-11-08T06:00:00	8	Radiación solar	0
20653	7	Sololá	710	Panajachel	8	Panajachel	2	Febrero	2023-02-19T00:00:00	2024-11-08T07:00:00	2	Temperatura media	16.4
20654	7	Sololá	710	Panajachel	8	Panajachel	2	Febrero	2023-02-19T00:00:00	2024-11-08T07:00:00	4	Temperatura máxima	16.4
20655	7	Sololá	710	Panajachel	8	Panajachel	2	Febrero	2023-02-19T00:00:00	2024-11-08T07:00:00	3	Temperatura mínima	16.1
20656	7	Sololá	710	Panajachel	8	Panajachel	2	Febrero	2023-02-19T00:00:00	2024-11-08T07:00:00	5	Humedad	74
20657	7	Sololá	710	Panajachel	8	Panajachel	2	Febrero	2023-02-19T00:00:00	2024-11-08T07:00:00	6	Velocidad del viento	6.4
20658	7	Sololá	710	Panajachel	8	Panajachel	2	Febrero	2023-02-19T00:00:00	2024-11-08T07:00:00	7	Dirección del viento	6.44
20659	7	Sololá	710	Panajachel	8	Panajachel	2	Febrero	2023-02-19T00:00:00	2024-11-08T07:00:00	1	Precipitación	0
20660	7	Sololá	710	Panajachel	8	Panajachel	2	Febrero	2023-02-19T00:00:00	2024-11-08T07:00:00	8	Radiación solar	6
20661	7	Sololá	710	Panajachel	8	Panajachel	2	Febrero	2023-02-19T00:00:00	2024-11-08T08:00:00	2	Temperatura media	17.7
20662	7	Sololá	710	Panajachel	8	Panajachel	2	Febrero	2023-02-19T00:00:00	2024-11-08T08:00:00	4	Temperatura máxima	17.7
20663	7	Sololá	710	Panajachel	8	Panajachel	2	Febrero	2023-02-19T00:00:00	2024-11-08T08:00:00	3	Temperatura mínima	16.4
20664	7	Sololá	710	Panajachel	8	Panajachel	2	Febrero	2023-02-19T00:00:00	2024-11-08T08:00:00	5	Humedad	70
20665	7	Sololá	710	Panajachel	8	Panajachel	2	Febrero	2023-02-19T00:00:00	2024-11-08T08:00:00	6	Velocidad del viento	9.7
20666	7	Sololá	710	Panajachel	8	Panajachel	2	Febrero	2023-02-19T00:00:00	2024-11-08T08:00:00	7	Dirección del viento	9.66
20667	7	Sololá	710	Panajachel	8	Panajachel	2	Febrero	2023-02-19T00:00:00	2024-11-08T08:00:00	1	Precipitación	0
20668	7	Sololá	710	Panajachel	8	Panajachel	2	Febrero	2023-02-19T00:00:00	2024-11-08T08:00:00	8	Radiación solar	105
20669	7	Sololá	710	Panajachel	8	Panajachel	2	Febrero	2023-02-19T00:00:00	2024-11-08T09:00:00	2	Temperatura media	18.3
20670	7	Sololá	710	Panajachel	8	Panajachel	2	Febrero	2023-02-19T00:00:00	2024-11-08T09:00:00	4	Temperatura máxima	19.1
20671	7	Sololá	710	Panajachel	8	Panajachel	2	Febrero	2023-02-19T00:00:00	2024-11-08T09:00:00	3	Temperatura mínima	17.7
20672	7	Sololá	710	Panajachel	8	Panajachel	2	Febrero	2023-02-19T00:00:00	2024-11-08T09:00:00	5	Humedad	68
20673	7	Sololá	710	Panajachel	8	Panajachel	2	Febrero	2023-02-19T00:00:00	2024-11-08T09:00:00	6	Velocidad del viento	12.9
20674	7	Sololá	710	Panajachel	8	Panajachel	2	Febrero	2023-02-19T00:00:00	2024-11-08T09:00:00	7	Dirección del viento	12.87
20675	7	Sololá	710	Panajachel	8	Panajachel	2	Febrero	2023-02-19T00:00:00	2024-11-08T09:00:00	1	Precipitación	0
20676	7	Sololá	710	Panajachel	8	Panajachel	2	Febrero	2023-02-19T00:00:00	2024-11-08T09:00:00	8	Radiación solar	400
20677	7	Sololá	710	Panajachel	8	Panajachel	2	Febrero	2023-02-19T00:00:00	2024-11-08T10:00:00	2	Temperatura media	19
20678	7	Sololá	710	Panajachel	8	Panajachel	2	Febrero	2023-02-19T00:00:00	2024-11-08T10:00:00	4	Temperatura máxima	19.1
20679	7	Sololá	710	Panajachel	8	Panajachel	2	Febrero	2023-02-19T00:00:00	2024-11-08T10:00:00	3	Temperatura mínima	17.8
20680	7	Sololá	710	Panajachel	8	Panajachel	2	Febrero	2023-02-19T00:00:00	2024-11-08T10:00:00	5	Humedad	68
20681	7	Sololá	710	Panajachel	8	Panajachel	2	Febrero	2023-02-19T00:00:00	2024-11-08T10:00:00	6	Velocidad del viento	11.3
20682	7	Sololá	710	Panajachel	8	Panajachel	2	Febrero	2023-02-19T00:00:00	2024-11-08T10:00:00	7	Dirección del viento	11.27
20683	7	Sololá	710	Panajachel	8	Panajachel	2	Febrero	2023-02-19T00:00:00	2024-11-08T10:00:00	1	Precipitación	0
20684	7	Sololá	710	Panajachel	8	Panajachel	2	Febrero	2023-02-19T00:00:00	2024-11-08T10:00:00	8	Radiación solar	416
20685	7	Sololá	710	Panajachel	8	Panajachel	2	Febrero	2023-02-19T00:00:00	2024-11-08T11:00:00	2	Temperatura media	20.2
20686	7	Sololá	710	Panajachel	8	Panajachel	2	Febrero	2023-02-19T00:00:00	2024-11-08T11:00:00	4	Temperatura máxima	20.2
20687	7	Sololá	710	Panajachel	8	Panajachel	2	Febrero	2023-02-19T00:00:00	2024-11-08T11:00:00	3	Temperatura mínima	19.1
20688	7	Sololá	710	Panajachel	8	Panajachel	2	Febrero	2023-02-19T00:00:00	2024-11-08T11:00:00	5	Humedad	63
20689	7	Sololá	710	Panajachel	8	Panajachel	2	Febrero	2023-02-19T00:00:00	2024-11-08T11:00:00	6	Velocidad del viento	6.4
20690	7	Sololá	710	Panajachel	8	Panajachel	2	Febrero	2023-02-19T00:00:00	2024-11-08T11:00:00	7	Dirección del viento	6.44
20691	7	Sololá	710	Panajachel	8	Panajachel	2	Febrero	2023-02-19T00:00:00	2024-11-08T11:00:00	1	Precipitación	0
20692	7	Sololá	710	Panajachel	8	Panajachel	2	Febrero	2023-02-19T00:00:00	2024-11-08T11:00:00	8	Radiación solar	555
20693	7	Sololá	710	Panajachel	8	Panajachel	2	Febrero	2023-02-19T00:00:00	2024-11-08T12:00:00	2	Temperatura media	19.1
20694	7	Sololá	710	Panajachel	8	Panajachel	2	Febrero	2023-02-19T00:00:00	2024-11-08T12:00:00	4	Temperatura máxima	20.8
20695	7	Sololá	710	Panajachel	8	Panajachel	2	Febrero	2023-02-19T00:00:00	2024-11-08T12:00:00	3	Temperatura mínima	19.1
20696	7	Sololá	710	Panajachel	8	Panajachel	2	Febrero	2023-02-19T00:00:00	2024-11-08T12:00:00	5	Humedad	66
20697	7	Sololá	710	Panajachel	8	Panajachel	2	Febrero	2023-02-19T00:00:00	2024-11-08T12:00:00	6	Velocidad del viento	12.9
20698	7	Sololá	710	Panajachel	8	Panajachel	2	Febrero	2023-02-19T00:00:00	2024-11-08T12:00:00	7	Dirección del viento	12.87
20699	7	Sololá	710	Panajachel	8	Panajachel	2	Febrero	2023-02-19T00:00:00	2024-11-08T12:00:00	1	Precipitación	0
20700	7	Sololá	710	Panajachel	8	Panajachel	2	Febrero	2023-02-19T00:00:00	2024-11-08T12:00:00	8	Radiación solar	774
20701	7	Sololá	710	Panajachel	8	Panajachel	2	Febrero	2023-02-19T00:00:00	2024-11-08T13:00:00	2	Temperatura media	20.8
20702	7	Sololá	710	Panajachel	8	Panajachel	2	Febrero	2023-02-19T00:00:00	2024-11-08T13:00:00	4	Temperatura máxima	20.8
20703	7	Sololá	710	Panajachel	8	Panajachel	2	Febrero	2023-02-19T00:00:00	2024-11-08T13:00:00	3	Temperatura mínima	18.6
20704	7	Sololá	710	Panajachel	8	Panajachel	2	Febrero	2023-02-19T00:00:00	2024-11-08T13:00:00	5	Humedad	61
20705	7	Sololá	710	Panajachel	8	Panajachel	2	Febrero	2023-02-19T00:00:00	2024-11-08T13:00:00	6	Velocidad del viento	11.3
20706	7	Sololá	710	Panajachel	8	Panajachel	2	Febrero	2023-02-19T00:00:00	2024-11-08T13:00:00	7	Dirección del viento	11.27
20707	7	Sololá	710	Panajachel	8	Panajachel	2	Febrero	2023-02-19T00:00:00	2024-11-08T13:00:00	1	Precipitación	0
20708	7	Sololá	710	Panajachel	8	Panajachel	2	Febrero	2023-02-19T00:00:00	2024-11-08T13:00:00	8	Radiación solar	776
20709	7	Sololá	710	Panajachel	8	Panajachel	2	Febrero	2023-02-19T00:00:00	2024-11-08T14:00:00	2	Temperatura media	21
20710	7	Sololá	710	Panajachel	8	Panajachel	2	Febrero	2023-02-19T00:00:00	2024-11-08T14:00:00	4	Temperatura máxima	21.4
20711	7	Sololá	710	Panajachel	8	Panajachel	2	Febrero	2023-02-19T00:00:00	2024-11-08T14:00:00	3	Temperatura mínima	20.6
20712	7	Sololá	710	Panajachel	8	Panajachel	2	Febrero	2023-02-19T00:00:00	2024-11-08T14:00:00	5	Humedad	62
20713	7	Sololá	710	Panajachel	8	Panajachel	2	Febrero	2023-02-19T00:00:00	2024-11-08T14:00:00	6	Velocidad del viento	8
20714	7	Sololá	710	Panajachel	8	Panajachel	2	Febrero	2023-02-19T00:00:00	2024-11-08T14:00:00	7	Dirección del viento	8.05
20715	7	Sololá	710	Panajachel	8	Panajachel	2	Febrero	2023-02-19T00:00:00	2024-11-08T14:00:00	1	Precipitación	0
20716	7	Sololá	710	Panajachel	8	Panajachel	2	Febrero	2023-02-19T00:00:00	2024-11-08T14:00:00	8	Radiación solar	891
20717	7	Sololá	710	Panajachel	8	Panajachel	2	Febrero	2023-02-19T00:00:00	2024-11-08T15:00:00	2	Temperatura media	21.6
20718	7	Sololá	710	Panajachel	8	Panajachel	2	Febrero	2023-02-19T00:00:00	2024-11-08T15:00:00	4	Temperatura máxima	21.8
20719	7	Sololá	710	Panajachel	8	Panajachel	2	Febrero	2023-02-19T00:00:00	2024-11-08T15:00:00	3	Temperatura mínima	21
20720	7	Sololá	710	Panajachel	8	Panajachel	2	Febrero	2023-02-19T00:00:00	2024-11-08T15:00:00	5	Humedad	59
20721	7	Sololá	710	Panajachel	8	Panajachel	2	Febrero	2023-02-19T00:00:00	2024-11-08T15:00:00	6	Velocidad del viento	11.3
20722	7	Sololá	710	Panajachel	8	Panajachel	2	Febrero	2023-02-19T00:00:00	2024-11-08T15:00:00	7	Dirección del viento	11.27
20723	7	Sololá	710	Panajachel	8	Panajachel	2	Febrero	2023-02-19T00:00:00	2024-11-08T15:00:00	1	Precipitación	0
20724	7	Sololá	710	Panajachel	8	Panajachel	2	Febrero	2023-02-19T00:00:00	2024-11-08T15:00:00	8	Radiación solar	745
20725	7	Sololá	710	Panajachel	8	Panajachel	2	Febrero	2023-02-19T00:00:00	2024-11-08T16:00:00	2	Temperatura media	22.3
20726	7	Sololá	710	Panajachel	8	Panajachel	2	Febrero	2023-02-19T00:00:00	2024-11-08T16:00:00	4	Temperatura máxima	22.3
20727	7	Sololá	710	Panajachel	8	Panajachel	2	Febrero	2023-02-19T00:00:00	2024-11-08T16:00:00	3	Temperatura mínima	21.6
20728	7	Sololá	710	Panajachel	8	Panajachel	2	Febrero	2023-02-19T00:00:00	2024-11-08T16:00:00	5	Humedad	57
20729	7	Sololá	710	Panajachel	8	Panajachel	2	Febrero	2023-02-19T00:00:00	2024-11-08T16:00:00	6	Velocidad del viento	9.7
20730	7	Sololá	710	Panajachel	8	Panajachel	2	Febrero	2023-02-19T00:00:00	2024-11-08T16:00:00	7	Dirección del viento	9.66
20731	7	Sololá	710	Panajachel	8	Panajachel	2	Febrero	2023-02-19T00:00:00	2024-11-08T16:00:00	1	Precipitación	0
20732	7	Sololá	710	Panajachel	8	Panajachel	2	Febrero	2023-02-19T00:00:00	2024-11-08T16:00:00	8	Radiación solar	564
20733	7	Sololá	710	Panajachel	8	Panajachel	2	Febrero	2023-02-19T00:00:00	2024-11-08T17:00:00	2	Temperatura media	21.6
20734	7	Sololá	710	Panajachel	8	Panajachel	2	Febrero	2023-02-19T00:00:00	2024-11-08T17:00:00	4	Temperatura máxima	22.8
20735	7	Sololá	710	Panajachel	8	Panajachel	2	Febrero	2023-02-19T00:00:00	2024-11-08T17:00:00	3	Temperatura mínima	21.4
20736	7	Sololá	710	Panajachel	8	Panajachel	2	Febrero	2023-02-19T00:00:00	2024-11-08T17:00:00	5	Humedad	58
20737	7	Sololá	710	Panajachel	8	Panajachel	2	Febrero	2023-02-19T00:00:00	2024-11-08T17:00:00	6	Velocidad del viento	9.7
20738	7	Sololá	710	Panajachel	8	Panajachel	2	Febrero	2023-02-19T00:00:00	2024-11-08T17:00:00	7	Dirección del viento	9.66
20739	7	Sololá	710	Panajachel	8	Panajachel	2	Febrero	2023-02-19T00:00:00	2024-11-08T17:00:00	1	Precipitación	0
20740	7	Sololá	710	Panajachel	8	Panajachel	2	Febrero	2023-02-19T00:00:00	2024-11-08T17:00:00	8	Radiación solar	307
20741	7	Sololá	710	Panajachel	8	Panajachel	2	Febrero	2023-02-19T00:00:00	2024-11-08T18:00:00	2	Temperatura media	20.7
20742	7	Sololá	710	Panajachel	8	Panajachel	2	Febrero	2023-02-19T00:00:00	2024-11-08T18:00:00	4	Temperatura máxima	21.8
20743	7	Sololá	710	Panajachel	8	Panajachel	2	Febrero	2023-02-19T00:00:00	2024-11-08T18:00:00	3	Temperatura mínima	20.7
20744	7	Sololá	710	Panajachel	8	Panajachel	2	Febrero	2023-02-19T00:00:00	2024-11-08T18:00:00	5	Humedad	60
20745	7	Sololá	710	Panajachel	8	Panajachel	2	Febrero	2023-02-19T00:00:00	2024-11-08T18:00:00	6	Velocidad del viento	4.8
20746	7	Sololá	710	Panajachel	8	Panajachel	2	Febrero	2023-02-19T00:00:00	2024-11-08T18:00:00	7	Dirección del viento	4.83
20747	7	Sololá	710	Panajachel	8	Panajachel	2	Febrero	2023-02-19T00:00:00	2024-11-08T18:00:00	1	Precipitación	0
20748	7	Sololá	710	Panajachel	8	Panajachel	2	Febrero	2023-02-19T00:00:00	2024-11-08T18:00:00	8	Radiación solar	94
20749	7	Sololá	710	Panajachel	8	Panajachel	2	Febrero	2023-02-19T00:00:00	2024-11-08T19:00:00	2	Temperatura media	18.3
20750	7	Sololá	710	Panajachel	8	Panajachel	2	Febrero	2023-02-19T00:00:00	2024-11-08T19:00:00	4	Temperatura máxima	20.7
20751	7	Sololá	710	Panajachel	8	Panajachel	2	Febrero	2023-02-19T00:00:00	2024-11-08T19:00:00	3	Temperatura mínima	18.3
20752	7	Sololá	710	Panajachel	8	Panajachel	2	Febrero	2023-02-19T00:00:00	2024-11-08T19:00:00	5	Humedad	67
20753	7	Sololá	710	Panajachel	8	Panajachel	2	Febrero	2023-02-19T00:00:00	2024-11-08T19:00:00	6	Velocidad del viento	6.4
20754	7	Sololá	710	Panajachel	8	Panajachel	2	Febrero	2023-02-19T00:00:00	2024-11-08T19:00:00	7	Dirección del viento	6.44
20755	7	Sololá	710	Panajachel	8	Panajachel	2	Febrero	2023-02-19T00:00:00	2024-11-08T19:00:00	1	Precipitación	0
20756	7	Sololá	710	Panajachel	8	Panajachel	2	Febrero	2023-02-19T00:00:00	2024-11-08T19:00:00	8	Radiación solar	0
20757	7	Sololá	710	Panajachel	8	Panajachel	2	Febrero	2023-02-19T00:00:00	2024-11-08T20:00:00	2	Temperatura media	17.9
20758	7	Sololá	710	Panajachel	8	Panajachel	2	Febrero	2023-02-19T00:00:00	2024-11-08T20:00:00	4	Temperatura máxima	18.3
20759	7	Sololá	710	Panajachel	8	Panajachel	2	Febrero	2023-02-19T00:00:00	2024-11-08T20:00:00	3	Temperatura mínima	17.9
20760	7	Sololá	710	Panajachel	8	Panajachel	2	Febrero	2023-02-19T00:00:00	2024-11-08T20:00:00	5	Humedad	68
20761	7	Sololá	710	Panajachel	8	Panajachel	2	Febrero	2023-02-19T00:00:00	2024-11-08T20:00:00	6	Velocidad del viento	11.3
20762	7	Sololá	710	Panajachel	8	Panajachel	2	Febrero	2023-02-19T00:00:00	2024-11-08T20:00:00	7	Dirección del viento	11.27
20763	7	Sololá	710	Panajachel	8	Panajachel	2	Febrero	2023-02-19T00:00:00	2024-11-08T20:00:00	1	Precipitación	0
20764	7	Sololá	710	Panajachel	8	Panajachel	2	Febrero	2023-02-19T00:00:00	2024-11-08T20:00:00	8	Radiación solar	0
20765	7	Sololá	710	Panajachel	8	Panajachel	2	Febrero	2023-02-19T00:00:00	2024-11-08T21:00:00	2	Temperatura media	17.8
20766	7	Sololá	710	Panajachel	8	Panajachel	2	Febrero	2023-02-19T00:00:00	2024-11-08T21:00:00	4	Temperatura máxima	18.1
20767	7	Sololá	710	Panajachel	8	Panajachel	2	Febrero	2023-02-19T00:00:00	2024-11-08T21:00:00	3	Temperatura mínima	17.8
20768	7	Sololá	710	Panajachel	8	Panajachel	2	Febrero	2023-02-19T00:00:00	2024-11-08T21:00:00	5	Humedad	67
20769	7	Sololá	710	Panajachel	8	Panajachel	2	Febrero	2023-02-19T00:00:00	2024-11-08T21:00:00	6	Velocidad del viento	8
20770	7	Sololá	710	Panajachel	8	Panajachel	2	Febrero	2023-02-19T00:00:00	2024-11-08T21:00:00	7	Dirección del viento	8.05
20771	7	Sololá	710	Panajachel	8	Panajachel	2	Febrero	2023-02-19T00:00:00	2024-11-08T21:00:00	1	Precipitación	0
20772	7	Sololá	710	Panajachel	8	Panajachel	2	Febrero	2023-02-19T00:00:00	2024-11-08T21:00:00	8	Radiación solar	0
20773	7	Sololá	710	Panajachel	8	Panajachel	2	Febrero	2023-02-19T00:00:00	2024-11-08T22:00:00	2	Temperatura media	17.6
20774	7	Sololá	710	Panajachel	8	Panajachel	2	Febrero	2023-02-19T00:00:00	2024-11-08T22:00:00	4	Temperatura máxima	17.9
20775	7	Sololá	710	Panajachel	8	Panajachel	2	Febrero	2023-02-19T00:00:00	2024-11-08T22:00:00	3	Temperatura mínima	17.5
20776	7	Sololá	710	Panajachel	8	Panajachel	2	Febrero	2023-02-19T00:00:00	2024-11-08T22:00:00	5	Humedad	66
20777	7	Sololá	710	Panajachel	8	Panajachel	2	Febrero	2023-02-19T00:00:00	2024-11-08T22:00:00	6	Velocidad del viento	11.3
20778	7	Sololá	710	Panajachel	8	Panajachel	2	Febrero	2023-02-19T00:00:00	2024-11-08T22:00:00	7	Dirección del viento	11.27
20779	7	Sololá	710	Panajachel	8	Panajachel	2	Febrero	2023-02-19T00:00:00	2024-11-08T22:00:00	1	Precipitación	0
20780	7	Sololá	710	Panajachel	8	Panajachel	2	Febrero	2023-02-19T00:00:00	2024-11-08T22:00:00	8	Radiación solar	0
20781	7	Sololá	710	Panajachel	8	Panajachel	2	Febrero	2023-02-19T00:00:00	2024-11-08T23:00:00	2	Temperatura media	17.1
20782	7	Sololá	710	Panajachel	8	Panajachel	2	Febrero	2023-02-19T00:00:00	2024-11-08T23:00:00	4	Temperatura máxima	17.6
20783	7	Sololá	710	Panajachel	8	Panajachel	2	Febrero	2023-02-19T00:00:00	2024-11-08T23:00:00	3	Temperatura mínima	17
20784	7	Sololá	710	Panajachel	8	Panajachel	2	Febrero	2023-02-19T00:00:00	2024-11-08T23:00:00	5	Humedad	65
20785	7	Sololá	710	Panajachel	8	Panajachel	2	Febrero	2023-02-19T00:00:00	2024-11-08T23:00:00	6	Velocidad del viento	8
20786	7	Sololá	710	Panajachel	8	Panajachel	2	Febrero	2023-02-19T00:00:00	2024-11-08T23:00:00	7	Dirección del viento	8.05
20787	7	Sololá	710	Panajachel	8	Panajachel	2	Febrero	2023-02-19T00:00:00	2024-11-08T23:00:00	1	Precipitación	0
20788	7	Sololá	710	Panajachel	8	Panajachel	2	Febrero	2023-02-19T00:00:00	2024-11-08T23:00:00	8	Radiación solar	0
20789	7	Sololá	710	Panajachel	8	Panajachel	2	Febrero	2023-02-20T00:00:00	2024-11-08T00:00:00	2	Temperatura media	17.2
20790	7	Sololá	710	Panajachel	8	Panajachel	2	Febrero	2023-02-20T00:00:00	2024-11-08T00:00:00	4	Temperatura máxima	17.3
20791	7	Sololá	710	Panajachel	8	Panajachel	2	Febrero	2023-02-20T00:00:00	2024-11-08T00:00:00	3	Temperatura mínima	16.8
20792	7	Sololá	710	Panajachel	8	Panajachel	2	Febrero	2023-02-20T00:00:00	2024-11-08T00:00:00	5	Humedad	62
20793	7	Sololá	710	Panajachel	8	Panajachel	2	Febrero	2023-02-20T00:00:00	2024-11-08T00:00:00	6	Velocidad del viento	12.9
20794	7	Sololá	710	Panajachel	8	Panajachel	2	Febrero	2023-02-20T00:00:00	2024-11-08T00:00:00	7	Dirección del viento	12.87
20795	7	Sololá	710	Panajachel	8	Panajachel	2	Febrero	2023-02-20T00:00:00	2024-11-08T00:00:00	1	Precipitación	0
20796	7	Sololá	710	Panajachel	8	Panajachel	2	Febrero	2023-02-20T00:00:00	2024-11-08T00:00:00	8	Radiación solar	0
20797	7	Sololá	710	Panajachel	8	Panajachel	2	Febrero	2023-02-20T00:00:00	2024-11-08T01:00:00	2	Temperatura media	16.4
20798	7	Sololá	710	Panajachel	8	Panajachel	2	Febrero	2023-02-20T00:00:00	2024-11-08T01:00:00	4	Temperatura máxima	17.2
20799	7	Sololá	710	Panajachel	8	Panajachel	2	Febrero	2023-02-20T00:00:00	2024-11-08T01:00:00	3	Temperatura mínima	16.2
20800	7	Sololá	710	Panajachel	8	Panajachel	2	Febrero	2023-02-20T00:00:00	2024-11-08T01:00:00	5	Humedad	64
20801	7	Sololá	710	Panajachel	8	Panajachel	2	Febrero	2023-02-20T00:00:00	2024-11-08T01:00:00	6	Velocidad del viento	4.8
20802	7	Sololá	710	Panajachel	8	Panajachel	2	Febrero	2023-02-20T00:00:00	2024-11-08T01:00:00	7	Dirección del viento	4.83
20803	7	Sololá	710	Panajachel	8	Panajachel	2	Febrero	2023-02-20T00:00:00	2024-11-08T01:00:00	1	Precipitación	0
20804	7	Sololá	710	Panajachel	8	Panajachel	2	Febrero	2023-02-20T00:00:00	2024-11-08T01:00:00	8	Radiación solar	0
20805	7	Sololá	710	Panajachel	8	Panajachel	2	Febrero	2023-02-20T00:00:00	2024-11-08T02:00:00	2	Temperatura media	16.5
20806	7	Sololá	710	Panajachel	8	Panajachel	2	Febrero	2023-02-20T00:00:00	2024-11-08T02:00:00	4	Temperatura máxima	16.7
20807	7	Sololá	710	Panajachel	8	Panajachel	2	Febrero	2023-02-20T00:00:00	2024-11-08T02:00:00	3	Temperatura mínima	16.3
20808	7	Sololá	710	Panajachel	8	Panajachel	2	Febrero	2023-02-20T00:00:00	2024-11-08T02:00:00	5	Humedad	64
20809	7	Sololá	710	Panajachel	8	Panajachel	2	Febrero	2023-02-20T00:00:00	2024-11-08T02:00:00	6	Velocidad del viento	6.4
20810	7	Sololá	710	Panajachel	8	Panajachel	2	Febrero	2023-02-20T00:00:00	2024-11-08T02:00:00	7	Dirección del viento	6.44
20811	7	Sololá	710	Panajachel	8	Panajachel	2	Febrero	2023-02-20T00:00:00	2024-11-08T02:00:00	1	Precipitación	0
20812	7	Sololá	710	Panajachel	8	Panajachel	2	Febrero	2023-02-20T00:00:00	2024-11-08T02:00:00	8	Radiación solar	0
20813	7	Sololá	710	Panajachel	8	Panajachel	2	Febrero	2023-02-20T00:00:00	2024-11-08T03:00:00	2	Temperatura media	15.8
20814	7	Sololá	710	Panajachel	8	Panajachel	2	Febrero	2023-02-20T00:00:00	2024-11-08T03:00:00	4	Temperatura máxima	16.6
20815	7	Sololá	710	Panajachel	8	Panajachel	2	Febrero	2023-02-20T00:00:00	2024-11-08T03:00:00	3	Temperatura mínima	15.8
20816	7	Sololá	710	Panajachel	8	Panajachel	2	Febrero	2023-02-20T00:00:00	2024-11-08T03:00:00	5	Humedad	66
20817	7	Sololá	710	Panajachel	8	Panajachel	2	Febrero	2023-02-20T00:00:00	2024-11-08T03:00:00	6	Velocidad del viento	1.6
20818	7	Sololá	710	Panajachel	8	Panajachel	2	Febrero	2023-02-20T00:00:00	2024-11-08T03:00:00	7	Dirección del viento	1.61
20819	7	Sololá	710	Panajachel	8	Panajachel	2	Febrero	2023-02-20T00:00:00	2024-11-08T03:00:00	1	Precipitación	0
20820	7	Sololá	710	Panajachel	8	Panajachel	2	Febrero	2023-02-20T00:00:00	2024-11-08T03:00:00	8	Radiación solar	0
20821	7	Sololá	710	Panajachel	8	Panajachel	2	Febrero	2023-02-20T00:00:00	2024-11-08T04:00:00	2	Temperatura media	16.6
20822	7	Sololá	710	Panajachel	8	Panajachel	2	Febrero	2023-02-20T00:00:00	2024-11-08T04:00:00	4	Temperatura máxima	16.6
20823	7	Sololá	710	Panajachel	8	Panajachel	2	Febrero	2023-02-20T00:00:00	2024-11-08T04:00:00	3	Temperatura mínima	15.3
20824	7	Sololá	710	Panajachel	8	Panajachel	2	Febrero	2023-02-20T00:00:00	2024-11-08T04:00:00	5	Humedad	63
20825	7	Sololá	710	Panajachel	8	Panajachel	2	Febrero	2023-02-20T00:00:00	2024-11-08T04:00:00	6	Velocidad del viento	4.8
20826	7	Sololá	710	Panajachel	8	Panajachel	2	Febrero	2023-02-20T00:00:00	2024-11-08T04:00:00	7	Dirección del viento	4.83
20827	7	Sololá	710	Panajachel	8	Panajachel	2	Febrero	2023-02-20T00:00:00	2024-11-08T04:00:00	1	Precipitación	0
20828	7	Sololá	710	Panajachel	8	Panajachel	2	Febrero	2023-02-20T00:00:00	2024-11-08T04:00:00	8	Radiación solar	0
20829	7	Sololá	710	Panajachel	8	Panajachel	2	Febrero	2023-02-20T00:00:00	2024-11-08T05:00:00	2	Temperatura media	16.2
20830	7	Sololá	710	Panajachel	8	Panajachel	2	Febrero	2023-02-20T00:00:00	2024-11-08T05:00:00	4	Temperatura máxima	16.7
20831	7	Sololá	710	Panajachel	8	Panajachel	2	Febrero	2023-02-20T00:00:00	2024-11-08T05:00:00	3	Temperatura mínima	16.2
20832	7	Sololá	710	Panajachel	8	Panajachel	2	Febrero	2023-02-20T00:00:00	2024-11-08T05:00:00	5	Humedad	65
20833	7	Sololá	710	Panajachel	8	Panajachel	2	Febrero	2023-02-20T00:00:00	2024-11-08T05:00:00	6	Velocidad del viento	3.2
20834	7	Sololá	710	Panajachel	8	Panajachel	2	Febrero	2023-02-20T00:00:00	2024-11-08T05:00:00	7	Dirección del viento	3.22
20835	7	Sololá	710	Panajachel	8	Panajachel	2	Febrero	2023-02-20T00:00:00	2024-11-08T05:00:00	1	Precipitación	0
20836	7	Sololá	710	Panajachel	8	Panajachel	2	Febrero	2023-02-20T00:00:00	2024-11-08T05:00:00	8	Radiación solar	0
20837	7	Sololá	710	Panajachel	8	Panajachel	2	Febrero	2023-02-20T00:00:00	2024-11-08T06:00:00	2	Temperatura media	16.2
20838	7	Sololá	710	Panajachel	8	Panajachel	2	Febrero	2023-02-20T00:00:00	2024-11-08T06:00:00	4	Temperatura máxima	16.4
20839	7	Sololá	710	Panajachel	8	Panajachel	2	Febrero	2023-02-20T00:00:00	2024-11-08T06:00:00	3	Temperatura mínima	16.1
20840	7	Sololá	710	Panajachel	8	Panajachel	2	Febrero	2023-02-20T00:00:00	2024-11-08T06:00:00	5	Humedad	64
20841	7	Sololá	710	Panajachel	8	Panajachel	2	Febrero	2023-02-20T00:00:00	2024-11-08T06:00:00	6	Velocidad del viento	4.8
20842	7	Sololá	710	Panajachel	8	Panajachel	2	Febrero	2023-02-20T00:00:00	2024-11-08T06:00:00	7	Dirección del viento	4.83
20843	7	Sololá	710	Panajachel	8	Panajachel	2	Febrero	2023-02-20T00:00:00	2024-11-08T06:00:00	1	Precipitación	0
20844	7	Sololá	710	Panajachel	8	Panajachel	2	Febrero	2023-02-20T00:00:00	2024-11-08T06:00:00	8	Radiación solar	0
20845	7	Sololá	710	Panajachel	8	Panajachel	2	Febrero	2023-02-20T00:00:00	2024-11-08T07:00:00	2	Temperatura media	16.4
20846	7	Sololá	710	Panajachel	8	Panajachel	2	Febrero	2023-02-20T00:00:00	2024-11-08T07:00:00	4	Temperatura máxima	16.4
20847	7	Sololá	710	Panajachel	8	Panajachel	2	Febrero	2023-02-20T00:00:00	2024-11-08T07:00:00	3	Temperatura mínima	16.1
20848	7	Sololá	710	Panajachel	8	Panajachel	2	Febrero	2023-02-20T00:00:00	2024-11-08T07:00:00	5	Humedad	64
20849	7	Sololá	710	Panajachel	8	Panajachel	2	Febrero	2023-02-20T00:00:00	2024-11-08T07:00:00	6	Velocidad del viento	3.2
20850	7	Sololá	710	Panajachel	8	Panajachel	2	Febrero	2023-02-20T00:00:00	2024-11-08T07:00:00	7	Dirección del viento	3.22
20851	7	Sololá	710	Panajachel	8	Panajachel	2	Febrero	2023-02-20T00:00:00	2024-11-08T07:00:00	1	Precipitación	0
20852	7	Sololá	710	Panajachel	8	Panajachel	2	Febrero	2023-02-20T00:00:00	2024-11-08T07:00:00	8	Radiación solar	6
20853	7	Sololá	710	Panajachel	8	Panajachel	2	Febrero	2023-02-20T00:00:00	2024-11-08T08:00:00	2	Temperatura media	18.6
20854	7	Sololá	710	Panajachel	8	Panajachel	2	Febrero	2023-02-20T00:00:00	2024-11-08T08:00:00	4	Temperatura máxima	18.6
20855	7	Sololá	710	Panajachel	8	Panajachel	2	Febrero	2023-02-20T00:00:00	2024-11-08T08:00:00	3	Temperatura mínima	16.4
20856	7	Sololá	710	Panajachel	8	Panajachel	2	Febrero	2023-02-20T00:00:00	2024-11-08T08:00:00	5	Humedad	58
20857	7	Sololá	710	Panajachel	8	Panajachel	2	Febrero	2023-02-20T00:00:00	2024-11-08T08:00:00	6	Velocidad del viento	3.2
20858	7	Sololá	710	Panajachel	8	Panajachel	2	Febrero	2023-02-20T00:00:00	2024-11-08T08:00:00	7	Dirección del viento	3.22
20859	7	Sololá	710	Panajachel	8	Panajachel	2	Febrero	2023-02-20T00:00:00	2024-11-08T08:00:00	1	Precipitación	0
20860	7	Sololá	710	Panajachel	8	Panajachel	2	Febrero	2023-02-20T00:00:00	2024-11-08T08:00:00	8	Radiación solar	178
20861	7	Sololá	710	Panajachel	8	Panajachel	2	Febrero	2023-02-20T00:00:00	2024-11-08T09:00:00	2	Temperatura media	20.5
20862	7	Sololá	710	Panajachel	8	Panajachel	2	Febrero	2023-02-20T00:00:00	2024-11-08T09:00:00	4	Temperatura máxima	20.5
20863	7	Sololá	710	Panajachel	8	Panajachel	2	Febrero	2023-02-20T00:00:00	2024-11-08T09:00:00	3	Temperatura mínima	18.6
20864	7	Sololá	710	Panajachel	8	Panajachel	2	Febrero	2023-02-20T00:00:00	2024-11-08T09:00:00	5	Humedad	52
20865	7	Sololá	710	Panajachel	8	Panajachel	2	Febrero	2023-02-20T00:00:00	2024-11-08T09:00:00	6	Velocidad del viento	3.2
20866	7	Sololá	710	Panajachel	8	Panajachel	2	Febrero	2023-02-20T00:00:00	2024-11-08T09:00:00	7	Dirección del viento	3.22
20867	7	Sololá	710	Panajachel	8	Panajachel	2	Febrero	2023-02-20T00:00:00	2024-11-08T09:00:00	1	Precipitación	0
20868	7	Sololá	710	Panajachel	8	Panajachel	2	Febrero	2023-02-20T00:00:00	2024-11-08T09:00:00	8	Radiación solar	438
20869	7	Sololá	710	Panajachel	8	Panajachel	2	Febrero	2023-02-20T00:00:00	2024-11-08T10:00:00	2	Temperatura media	21.6
20870	7	Sololá	710	Panajachel	8	Panajachel	2	Febrero	2023-02-20T00:00:00	2024-11-08T10:00:00	4	Temperatura máxima	21.9
20871	7	Sololá	710	Panajachel	8	Panajachel	2	Febrero	2023-02-20T00:00:00	2024-11-08T10:00:00	3	Temperatura mínima	20.5
20872	7	Sololá	710	Panajachel	8	Panajachel	2	Febrero	2023-02-20T00:00:00	2024-11-08T10:00:00	5	Humedad	51
20873	7	Sololá	710	Panajachel	8	Panajachel	2	Febrero	2023-02-20T00:00:00	2024-11-08T10:00:00	6	Velocidad del viento	3.2
20874	7	Sololá	710	Panajachel	8	Panajachel	2	Febrero	2023-02-20T00:00:00	2024-11-08T10:00:00	7	Dirección del viento	3.22
20875	7	Sololá	710	Panajachel	8	Panajachel	2	Febrero	2023-02-20T00:00:00	2024-11-08T10:00:00	1	Precipitación	0
20876	7	Sololá	710	Panajachel	8	Panajachel	2	Febrero	2023-02-20T00:00:00	2024-11-08T10:00:00	8	Radiación solar	646
20877	7	Sololá	710	Panajachel	8	Panajachel	2	Febrero	2023-02-20T00:00:00	2024-11-08T11:00:00	2	Temperatura media	23
20878	7	Sololá	710	Panajachel	8	Panajachel	2	Febrero	2023-02-20T00:00:00	2024-11-08T11:00:00	4	Temperatura máxima	23.1
20879	7	Sololá	710	Panajachel	8	Panajachel	2	Febrero	2023-02-20T00:00:00	2024-11-08T11:00:00	3	Temperatura mínima	21.6
20880	7	Sololá	710	Panajachel	8	Panajachel	2	Febrero	2023-02-20T00:00:00	2024-11-08T11:00:00	5	Humedad	55
20881	7	Sololá	710	Panajachel	8	Panajachel	2	Febrero	2023-02-20T00:00:00	2024-11-08T11:00:00	6	Velocidad del viento	3.2
20882	7	Sololá	710	Panajachel	8	Panajachel	2	Febrero	2023-02-20T00:00:00	2024-11-08T11:00:00	7	Dirección del viento	3.22
20883	7	Sololá	710	Panajachel	8	Panajachel	2	Febrero	2023-02-20T00:00:00	2024-11-08T11:00:00	1	Precipitación	0
20884	7	Sololá	710	Panajachel	8	Panajachel	2	Febrero	2023-02-20T00:00:00	2024-11-08T11:00:00	8	Radiación solar	801
20885	7	Sololá	710	Panajachel	8	Panajachel	2	Febrero	2023-02-20T00:00:00	2024-11-08T12:00:00	2	Temperatura media	23.9
20886	7	Sololá	710	Panajachel	8	Panajachel	2	Febrero	2023-02-20T00:00:00	2024-11-08T12:00:00	4	Temperatura máxima	23.9
20887	7	Sololá	710	Panajachel	8	Panajachel	2	Febrero	2023-02-20T00:00:00	2024-11-08T12:00:00	3	Temperatura mínima	22.3
20888	7	Sololá	710	Panajachel	8	Panajachel	2	Febrero	2023-02-20T00:00:00	2024-11-08T12:00:00	5	Humedad	49
20889	7	Sololá	710	Panajachel	8	Panajachel	2	Febrero	2023-02-20T00:00:00	2024-11-08T12:00:00	6	Velocidad del viento	4.8
20890	7	Sololá	710	Panajachel	8	Panajachel	2	Febrero	2023-02-20T00:00:00	2024-11-08T12:00:00	7	Dirección del viento	4.83
20891	7	Sololá	710	Panajachel	8	Panajachel	2	Febrero	2023-02-20T00:00:00	2024-11-08T12:00:00	1	Precipitación	0
20892	7	Sololá	710	Panajachel	8	Panajachel	2	Febrero	2023-02-20T00:00:00	2024-11-08T12:00:00	8	Radiación solar	898
20893	7	Sololá	710	Panajachel	8	Panajachel	2	Febrero	2023-02-20T00:00:00	2024-11-08T13:00:00	2	Temperatura media	25
20894	7	Sololá	710	Panajachel	8	Panajachel	2	Febrero	2023-02-20T00:00:00	2024-11-08T13:00:00	4	Temperatura máxima	25.5
20895	7	Sololá	710	Panajachel	8	Panajachel	2	Febrero	2023-02-20T00:00:00	2024-11-08T13:00:00	3	Temperatura mínima	23.7
20896	7	Sololá	710	Panajachel	8	Panajachel	2	Febrero	2023-02-20T00:00:00	2024-11-08T13:00:00	5	Humedad	37
20897	7	Sololá	710	Panajachel	8	Panajachel	2	Febrero	2023-02-20T00:00:00	2024-11-08T13:00:00	6	Velocidad del viento	6.4
20898	7	Sololá	710	Panajachel	8	Panajachel	2	Febrero	2023-02-20T00:00:00	2024-11-08T13:00:00	7	Dirección del viento	6.44
20899	7	Sololá	710	Panajachel	8	Panajachel	2	Febrero	2023-02-20T00:00:00	2024-11-08T13:00:00	1	Precipitación	0
20900	7	Sololá	710	Panajachel	8	Panajachel	2	Febrero	2023-02-20T00:00:00	2024-11-08T13:00:00	8	Radiación solar	920
20901	7	Sololá	710	Panajachel	8	Panajachel	2	Febrero	2023-02-20T00:00:00	2024-11-08T14:00:00	2	Temperatura media	24.7
20902	7	Sololá	710	Panajachel	8	Panajachel	2	Febrero	2023-02-20T00:00:00	2024-11-08T14:00:00	4	Temperatura máxima	25
20903	7	Sololá	710	Panajachel	8	Panajachel	2	Febrero	2023-02-20T00:00:00	2024-11-08T14:00:00	3	Temperatura mínima	24.4
20904	7	Sololá	710	Panajachel	8	Panajachel	2	Febrero	2023-02-20T00:00:00	2024-11-08T14:00:00	5	Humedad	40
20905	7	Sololá	710	Panajachel	8	Panajachel	2	Febrero	2023-02-20T00:00:00	2024-11-08T14:00:00	6	Velocidad del viento	11.3
20906	7	Sololá	710	Panajachel	8	Panajachel	2	Febrero	2023-02-20T00:00:00	2024-11-08T14:00:00	7	Dirección del viento	11.27
20907	7	Sololá	710	Panajachel	8	Panajachel	2	Febrero	2023-02-20T00:00:00	2024-11-08T14:00:00	1	Precipitación	0
20908	7	Sololá	710	Panajachel	8	Panajachel	2	Febrero	2023-02-20T00:00:00	2024-11-08T14:00:00	8	Radiación solar	867
20909	7	Sololá	710	Panajachel	8	Panajachel	2	Febrero	2023-02-20T00:00:00	2024-11-08T15:00:00	2	Temperatura media	24.9
20910	7	Sololá	710	Panajachel	8	Panajachel	2	Febrero	2023-02-20T00:00:00	2024-11-08T15:00:00	4	Temperatura máxima	25.2
20911	7	Sololá	710	Panajachel	8	Panajachel	2	Febrero	2023-02-20T00:00:00	2024-11-08T15:00:00	3	Temperatura mínima	24.4
20912	7	Sololá	710	Panajachel	8	Panajachel	2	Febrero	2023-02-20T00:00:00	2024-11-08T15:00:00	5	Humedad	41
20913	7	Sololá	710	Panajachel	8	Panajachel	2	Febrero	2023-02-20T00:00:00	2024-11-08T15:00:00	6	Velocidad del viento	11.3
20914	7	Sololá	710	Panajachel	8	Panajachel	2	Febrero	2023-02-20T00:00:00	2024-11-08T15:00:00	7	Dirección del viento	11.27
20915	7	Sololá	710	Panajachel	8	Panajachel	2	Febrero	2023-02-20T00:00:00	2024-11-08T15:00:00	1	Precipitación	0
20916	7	Sololá	710	Panajachel	8	Panajachel	2	Febrero	2023-02-20T00:00:00	2024-11-08T15:00:00	8	Radiación solar	740
20917	7	Sololá	710	Panajachel	8	Panajachel	2	Febrero	2023-02-20T00:00:00	2024-11-08T16:00:00	2	Temperatura media	24.8
20918	7	Sololá	710	Panajachel	8	Panajachel	2	Febrero	2023-02-20T00:00:00	2024-11-08T16:00:00	4	Temperatura máxima	25
20919	7	Sololá	710	Panajachel	8	Panajachel	2	Febrero	2023-02-20T00:00:00	2024-11-08T16:00:00	3	Temperatura mínima	24.5
20920	7	Sololá	710	Panajachel	8	Panajachel	2	Febrero	2023-02-20T00:00:00	2024-11-08T16:00:00	5	Humedad	36
20921	7	Sololá	710	Panajachel	8	Panajachel	2	Febrero	2023-02-20T00:00:00	2024-11-08T16:00:00	6	Velocidad del viento	9.7
20922	7	Sololá	710	Panajachel	8	Panajachel	2	Febrero	2023-02-20T00:00:00	2024-11-08T16:00:00	7	Dirección del viento	9.66
20923	7	Sololá	710	Panajachel	8	Panajachel	2	Febrero	2023-02-20T00:00:00	2024-11-08T16:00:00	1	Precipitación	0
20924	7	Sololá	710	Panajachel	8	Panajachel	2	Febrero	2023-02-20T00:00:00	2024-11-08T16:00:00	8	Radiación solar	558
20925	7	Sololá	710	Panajachel	8	Panajachel	2	Febrero	2023-02-20T00:00:00	2024-11-08T17:00:00	2	Temperatura media	23.3
20926	7	Sololá	710	Panajachel	8	Panajachel	2	Febrero	2023-02-20T00:00:00	2024-11-08T17:00:00	4	Temperatura máxima	24.9
20927	7	Sololá	710	Panajachel	8	Panajachel	2	Febrero	2023-02-20T00:00:00	2024-11-08T17:00:00	3	Temperatura mínima	23.3
20928	7	Sololá	710	Panajachel	8	Panajachel	2	Febrero	2023-02-20T00:00:00	2024-11-08T17:00:00	5	Humedad	42
20929	7	Sololá	710	Panajachel	8	Panajachel	2	Febrero	2023-02-20T00:00:00	2024-11-08T17:00:00	6	Velocidad del viento	9.7
20930	7	Sololá	710	Panajachel	8	Panajachel	2	Febrero	2023-02-20T00:00:00	2024-11-08T17:00:00	7	Dirección del viento	9.66
20931	7	Sololá	710	Panajachel	8	Panajachel	2	Febrero	2023-02-20T00:00:00	2024-11-08T17:00:00	1	Precipitación	0
20932	7	Sololá	710	Panajachel	8	Panajachel	2	Febrero	2023-02-20T00:00:00	2024-11-08T17:00:00	8	Radiación solar	334
20933	7	Sololá	710	Panajachel	8	Panajachel	2	Febrero	2023-02-20T00:00:00	2024-11-08T18:00:00	2	Temperatura media	20.8
20934	7	Sololá	710	Panajachel	8	Panajachel	2	Febrero	2023-02-20T00:00:00	2024-11-08T18:00:00	4	Temperatura máxima	23.3
20935	7	Sololá	710	Panajachel	8	Panajachel	2	Febrero	2023-02-20T00:00:00	2024-11-08T18:00:00	3	Temperatura mínima	20.8
20936	7	Sololá	710	Panajachel	8	Panajachel	2	Febrero	2023-02-20T00:00:00	2024-11-08T18:00:00	5	Humedad	54
20937	7	Sololá	710	Panajachel	8	Panajachel	2	Febrero	2023-02-20T00:00:00	2024-11-08T18:00:00	6	Velocidad del viento	9.7
20938	7	Sololá	710	Panajachel	8	Panajachel	2	Febrero	2023-02-20T00:00:00	2024-11-08T18:00:00	7	Dirección del viento	9.66
20939	7	Sololá	710	Panajachel	8	Panajachel	2	Febrero	2023-02-20T00:00:00	2024-11-08T18:00:00	1	Precipitación	0
20940	7	Sololá	710	Panajachel	8	Panajachel	2	Febrero	2023-02-20T00:00:00	2024-11-08T18:00:00	8	Radiación solar	84
20941	7	Sololá	710	Panajachel	8	Panajachel	2	Febrero	2023-02-20T00:00:00	2024-11-08T19:00:00	2	Temperatura media	19.3
20942	7	Sololá	710	Panajachel	8	Panajachel	2	Febrero	2023-02-20T00:00:00	2024-11-08T19:00:00	4	Temperatura máxima	20.8
20943	7	Sololá	710	Panajachel	8	Panajachel	2	Febrero	2023-02-20T00:00:00	2024-11-08T19:00:00	3	Temperatura mínima	19.2
20944	7	Sololá	710	Panajachel	8	Panajachel	2	Febrero	2023-02-20T00:00:00	2024-11-08T19:00:00	5	Humedad	59
20945	7	Sololá	710	Panajachel	8	Panajachel	2	Febrero	2023-02-20T00:00:00	2024-11-08T19:00:00	6	Velocidad del viento	12.9
20946	7	Sololá	710	Panajachel	8	Panajachel	2	Febrero	2023-02-20T00:00:00	2024-11-08T19:00:00	7	Dirección del viento	12.87
20947	7	Sololá	710	Panajachel	8	Panajachel	2	Febrero	2023-02-20T00:00:00	2024-11-08T19:00:00	1	Precipitación	0
20948	7	Sololá	710	Panajachel	8	Panajachel	2	Febrero	2023-02-20T00:00:00	2024-11-08T19:00:00	8	Radiación solar	0
20949	7	Sololá	710	Panajachel	8	Panajachel	2	Febrero	2023-02-20T00:00:00	2024-11-08T20:00:00	2	Temperatura media	18.8
20950	7	Sololá	710	Panajachel	8	Panajachel	2	Febrero	2023-02-20T00:00:00	2024-11-08T20:00:00	4	Temperatura máxima	19.3
20951	7	Sololá	710	Panajachel	8	Panajachel	2	Febrero	2023-02-20T00:00:00	2024-11-08T20:00:00	3	Temperatura mínima	18.6
20952	7	Sololá	710	Panajachel	8	Panajachel	2	Febrero	2023-02-20T00:00:00	2024-11-08T20:00:00	5	Humedad	60
20953	7	Sololá	710	Panajachel	8	Panajachel	2	Febrero	2023-02-20T00:00:00	2024-11-08T20:00:00	6	Velocidad del viento	12.9
20954	7	Sololá	710	Panajachel	8	Panajachel	2	Febrero	2023-02-20T00:00:00	2024-11-08T20:00:00	7	Dirección del viento	12.87
20955	7	Sololá	710	Panajachel	8	Panajachel	2	Febrero	2023-02-20T00:00:00	2024-11-08T20:00:00	1	Precipitación	0
20956	7	Sololá	710	Panajachel	8	Panajachel	2	Febrero	2023-02-20T00:00:00	2024-11-08T20:00:00	8	Radiación solar	0
20957	7	Sololá	710	Panajachel	8	Panajachel	2	Febrero	2023-02-20T00:00:00	2024-11-08T21:00:00	2	Temperatura media	18.2
20958	7	Sololá	710	Panajachel	8	Panajachel	2	Febrero	2023-02-20T00:00:00	2024-11-08T21:00:00	4	Temperatura máxima	18.8
20959	7	Sololá	710	Panajachel	8	Panajachel	2	Febrero	2023-02-20T00:00:00	2024-11-08T21:00:00	3	Temperatura mínima	18.2
20960	7	Sololá	710	Panajachel	8	Panajachel	2	Febrero	2023-02-20T00:00:00	2024-11-08T21:00:00	5	Humedad	63
20961	7	Sololá	710	Panajachel	8	Panajachel	2	Febrero	2023-02-20T00:00:00	2024-11-08T21:00:00	6	Velocidad del viento	11.3
20962	7	Sololá	710	Panajachel	8	Panajachel	2	Febrero	2023-02-20T00:00:00	2024-11-08T21:00:00	7	Dirección del viento	11.27
20963	7	Sololá	710	Panajachel	8	Panajachel	2	Febrero	2023-02-20T00:00:00	2024-11-08T21:00:00	1	Precipitación	0
20964	7	Sololá	710	Panajachel	8	Panajachel	2	Febrero	2023-02-20T00:00:00	2024-11-08T21:00:00	8	Radiación solar	0
20965	7	Sololá	710	Panajachel	8	Panajachel	2	Febrero	2023-02-20T00:00:00	2024-11-08T22:00:00	2	Temperatura media	17.8
20966	7	Sololá	710	Panajachel	8	Panajachel	2	Febrero	2023-02-20T00:00:00	2024-11-08T22:00:00	4	Temperatura máxima	18.2
20967	7	Sololá	710	Panajachel	8	Panajachel	2	Febrero	2023-02-20T00:00:00	2024-11-08T22:00:00	3	Temperatura mínima	17.8
20968	7	Sololá	710	Panajachel	8	Panajachel	2	Febrero	2023-02-20T00:00:00	2024-11-08T22:00:00	5	Humedad	63
20969	7	Sololá	710	Panajachel	8	Panajachel	2	Febrero	2023-02-20T00:00:00	2024-11-08T22:00:00	6	Velocidad del viento	9.7
20970	7	Sololá	710	Panajachel	8	Panajachel	2	Febrero	2023-02-20T00:00:00	2024-11-08T22:00:00	7	Dirección del viento	9.66
20971	7	Sololá	710	Panajachel	8	Panajachel	2	Febrero	2023-02-20T00:00:00	2024-11-08T22:00:00	1	Precipitación	0
20972	7	Sololá	710	Panajachel	8	Panajachel	2	Febrero	2023-02-20T00:00:00	2024-11-08T22:00:00	8	Radiación solar	0
20973	7	Sololá	710	Panajachel	8	Panajachel	2	Febrero	2023-02-20T00:00:00	2024-11-08T23:00:00	2	Temperatura media	17.3
20974	7	Sololá	710	Panajachel	8	Panajachel	2	Febrero	2023-02-20T00:00:00	2024-11-08T23:00:00	4	Temperatura máxima	17.8
20975	7	Sololá	710	Panajachel	8	Panajachel	2	Febrero	2023-02-20T00:00:00	2024-11-08T23:00:00	3	Temperatura mínima	17.3
20976	7	Sololá	710	Panajachel	8	Panajachel	2	Febrero	2023-02-20T00:00:00	2024-11-08T23:00:00	5	Humedad	64
20977	7	Sololá	710	Panajachel	8	Panajachel	2	Febrero	2023-02-20T00:00:00	2024-11-08T23:00:00	6	Velocidad del viento	3.2
20978	7	Sololá	710	Panajachel	8	Panajachel	2	Febrero	2023-02-20T00:00:00	2024-11-08T23:00:00	7	Dirección del viento	3.22
20979	7	Sololá	710	Panajachel	8	Panajachel	2	Febrero	2023-02-20T00:00:00	2024-11-08T23:00:00	1	Precipitación	0
20980	7	Sololá	710	Panajachel	8	Panajachel	2	Febrero	2023-02-20T00:00:00	2024-11-08T23:00:00	8	Radiación solar	0
20981	7	Sololá	710	Panajachel	8	Panajachel	2	Febrero	2023-02-21T00:00:00	2024-11-08T00:00:00	2	Temperatura media	16.6
20982	7	Sololá	710	Panajachel	8	Panajachel	2	Febrero	2023-02-21T00:00:00	2024-11-08T00:00:00	4	Temperatura máxima	17.3
20983	7	Sololá	710	Panajachel	8	Panajachel	2	Febrero	2023-02-21T00:00:00	2024-11-08T00:00:00	3	Temperatura mínima	16.6
20984	7	Sololá	710	Panajachel	8	Panajachel	2	Febrero	2023-02-21T00:00:00	2024-11-08T00:00:00	5	Humedad	66
20985	7	Sololá	710	Panajachel	8	Panajachel	2	Febrero	2023-02-21T00:00:00	2024-11-08T00:00:00	6	Velocidad del viento	3.2
20986	7	Sololá	710	Panajachel	8	Panajachel	2	Febrero	2023-02-21T00:00:00	2024-11-08T00:00:00	7	Dirección del viento	3.22
20987	7	Sololá	710	Panajachel	8	Panajachel	2	Febrero	2023-02-21T00:00:00	2024-11-08T00:00:00	1	Precipitación	0
20988	7	Sololá	710	Panajachel	8	Panajachel	2	Febrero	2023-02-21T00:00:00	2024-11-08T00:00:00	8	Radiación solar	0
20989	7	Sololá	710	Panajachel	8	Panajachel	2	Febrero	2023-02-21T00:00:00	2024-11-08T01:00:00	2	Temperatura media	16.3
20990	7	Sololá	710	Panajachel	8	Panajachel	2	Febrero	2023-02-21T00:00:00	2024-11-08T01:00:00	4	Temperatura máxima	16.7
20991	7	Sololá	710	Panajachel	8	Panajachel	2	Febrero	2023-02-21T00:00:00	2024-11-08T01:00:00	3	Temperatura mínima	16.3
20992	7	Sololá	710	Panajachel	8	Panajachel	2	Febrero	2023-02-21T00:00:00	2024-11-08T01:00:00	5	Humedad	68
20993	7	Sololá	710	Panajachel	8	Panajachel	2	Febrero	2023-02-21T00:00:00	2024-11-08T01:00:00	6	Velocidad del viento	4.8
20994	7	Sololá	710	Panajachel	8	Panajachel	2	Febrero	2023-02-21T00:00:00	2024-11-08T01:00:00	7	Dirección del viento	4.83
20995	7	Sololá	710	Panajachel	8	Panajachel	2	Febrero	2023-02-21T00:00:00	2024-11-08T01:00:00	1	Precipitación	0
20996	7	Sololá	710	Panajachel	8	Panajachel	2	Febrero	2023-02-21T00:00:00	2024-11-08T01:00:00	8	Radiación solar	0
20997	7	Sololá	710	Panajachel	8	Panajachel	2	Febrero	2023-02-21T00:00:00	2024-11-08T02:00:00	2	Temperatura media	15.7
20998	7	Sololá	710	Panajachel	8	Panajachel	2	Febrero	2023-02-21T00:00:00	2024-11-08T02:00:00	4	Temperatura máxima	16.3
20999	7	Sololá	710	Panajachel	8	Panajachel	2	Febrero	2023-02-21T00:00:00	2024-11-08T02:00:00	3	Temperatura mínima	15.7
21000	7	Sololá	710	Panajachel	8	Panajachel	2	Febrero	2023-02-21T00:00:00	2024-11-08T02:00:00	5	Humedad	69
21001	7	Sololá	710	Panajachel	8	Panajachel	2	Febrero	2023-02-21T00:00:00	2024-11-08T02:00:00	6	Velocidad del viento	3.2
21002	7	Sololá	710	Panajachel	8	Panajachel	2	Febrero	2023-02-21T00:00:00	2024-11-08T02:00:00	7	Dirección del viento	3.22
21003	7	Sololá	710	Panajachel	8	Panajachel	2	Febrero	2023-02-21T00:00:00	2024-11-08T02:00:00	1	Precipitación	0
21004	7	Sololá	710	Panajachel	8	Panajachel	2	Febrero	2023-02-21T00:00:00	2024-11-08T02:00:00	8	Radiación solar	0
21005	7	Sololá	710	Panajachel	8	Panajachel	2	Febrero	2023-02-21T00:00:00	2024-11-08T03:00:00	2	Temperatura media	14.8
21006	7	Sololá	710	Panajachel	8	Panajachel	2	Febrero	2023-02-21T00:00:00	2024-11-08T03:00:00	4	Temperatura máxima	15.7
21007	7	Sololá	710	Panajachel	8	Panajachel	2	Febrero	2023-02-21T00:00:00	2024-11-08T03:00:00	3	Temperatura mínima	14.8
21008	7	Sololá	710	Panajachel	8	Panajachel	2	Febrero	2023-02-21T00:00:00	2024-11-08T03:00:00	5	Humedad	71
21009	7	Sololá	710	Panajachel	8	Panajachel	2	Febrero	2023-02-21T00:00:00	2024-11-08T03:00:00	6	Velocidad del viento	0
21010	7	Sololá	710	Panajachel	8	Panajachel	2	Febrero	2023-02-21T00:00:00	2024-11-08T03:00:00	7	Dirección del viento	0
21011	7	Sololá	710	Panajachel	8	Panajachel	2	Febrero	2023-02-21T00:00:00	2024-11-08T03:00:00	1	Precipitación	0
21012	7	Sololá	710	Panajachel	8	Panajachel	2	Febrero	2023-02-21T00:00:00	2024-11-08T03:00:00	8	Radiación solar	0
21013	7	Sololá	710	Panajachel	8	Panajachel	2	Febrero	2023-02-21T00:00:00	2024-11-08T04:00:00	2	Temperatura media	14.7
21014	7	Sololá	710	Panajachel	8	Panajachel	2	Febrero	2023-02-21T00:00:00	2024-11-08T04:00:00	4	Temperatura máxima	14.8
21015	7	Sololá	710	Panajachel	8	Panajachel	2	Febrero	2023-02-21T00:00:00	2024-11-08T04:00:00	3	Temperatura mínima	14.7
21016	7	Sololá	710	Panajachel	8	Panajachel	2	Febrero	2023-02-21T00:00:00	2024-11-08T04:00:00	5	Humedad	71
21017	7	Sololá	710	Panajachel	8	Panajachel	2	Febrero	2023-02-21T00:00:00	2024-11-08T04:00:00	6	Velocidad del viento	0
21018	7	Sololá	710	Panajachel	8	Panajachel	2	Febrero	2023-02-21T00:00:00	2024-11-08T04:00:00	7	Dirección del viento	0
21019	7	Sololá	710	Panajachel	8	Panajachel	2	Febrero	2023-02-21T00:00:00	2024-11-08T04:00:00	1	Precipitación	0
21020	7	Sololá	710	Panajachel	8	Panajachel	2	Febrero	2023-02-21T00:00:00	2024-11-08T04:00:00	8	Radiación solar	0
21021	7	Sololá	710	Panajachel	8	Panajachel	2	Febrero	2023-02-21T00:00:00	2024-11-08T05:00:00	2	Temperatura media	14.7
21022	7	Sololá	710	Panajachel	8	Panajachel	2	Febrero	2023-02-21T00:00:00	2024-11-08T05:00:00	4	Temperatura máxima	14.7
21023	7	Sololá	710	Panajachel	8	Panajachel	2	Febrero	2023-02-21T00:00:00	2024-11-08T05:00:00	3	Temperatura mínima	14.3
21024	7	Sololá	710	Panajachel	8	Panajachel	2	Febrero	2023-02-21T00:00:00	2024-11-08T05:00:00	5	Humedad	71
21025	7	Sololá	710	Panajachel	8	Panajachel	2	Febrero	2023-02-21T00:00:00	2024-11-08T05:00:00	6	Velocidad del viento	1.6
21026	7	Sololá	710	Panajachel	8	Panajachel	2	Febrero	2023-02-21T00:00:00	2024-11-08T05:00:00	7	Dirección del viento	1.61
21027	7	Sololá	710	Panajachel	8	Panajachel	2	Febrero	2023-02-21T00:00:00	2024-11-08T05:00:00	1	Precipitación	0
21028	7	Sololá	710	Panajachel	8	Panajachel	2	Febrero	2023-02-21T00:00:00	2024-11-08T05:00:00	8	Radiación solar	0
21029	7	Sololá	710	Panajachel	8	Panajachel	2	Febrero	2023-02-21T00:00:00	2024-11-08T06:00:00	2	Temperatura media	14.3
21030	7	Sololá	710	Panajachel	8	Panajachel	2	Febrero	2023-02-21T00:00:00	2024-11-08T06:00:00	4	Temperatura máxima	14.8
21031	7	Sololá	710	Panajachel	8	Panajachel	2	Febrero	2023-02-21T00:00:00	2024-11-08T06:00:00	3	Temperatura mínima	14.3
21032	7	Sololá	710	Panajachel	8	Panajachel	2	Febrero	2023-02-21T00:00:00	2024-11-08T06:00:00	5	Humedad	73
21033	7	Sololá	710	Panajachel	8	Panajachel	2	Febrero	2023-02-21T00:00:00	2024-11-08T06:00:00	6	Velocidad del viento	1.6
21034	7	Sololá	710	Panajachel	8	Panajachel	2	Febrero	2023-02-21T00:00:00	2024-11-08T06:00:00	7	Dirección del viento	1.61
21035	7	Sololá	710	Panajachel	8	Panajachel	2	Febrero	2023-02-21T00:00:00	2024-11-08T06:00:00	1	Precipitación	0
21036	7	Sololá	710	Panajachel	8	Panajachel	2	Febrero	2023-02-21T00:00:00	2024-11-08T06:00:00	8	Radiación solar	0
21037	7	Sololá	710	Panajachel	8	Panajachel	2	Febrero	2023-02-21T00:00:00	2024-11-08T07:00:00	2	Temperatura media	14.8
21038	7	Sololá	710	Panajachel	8	Panajachel	2	Febrero	2023-02-21T00:00:00	2024-11-08T07:00:00	4	Temperatura máxima	14.8
21039	7	Sololá	710	Panajachel	8	Panajachel	2	Febrero	2023-02-21T00:00:00	2024-11-08T07:00:00	3	Temperatura mínima	14.2
21040	7	Sololá	710	Panajachel	8	Panajachel	2	Febrero	2023-02-21T00:00:00	2024-11-08T07:00:00	5	Humedad	73
21041	7	Sololá	710	Panajachel	8	Panajachel	2	Febrero	2023-02-21T00:00:00	2024-11-08T07:00:00	6	Velocidad del viento	1.6
21042	7	Sololá	710	Panajachel	8	Panajachel	2	Febrero	2023-02-21T00:00:00	2024-11-08T07:00:00	7	Dirección del viento	1.61
21043	7	Sololá	710	Panajachel	8	Panajachel	2	Febrero	2023-02-21T00:00:00	2024-11-08T07:00:00	1	Precipitación	0
21044	7	Sololá	710	Panajachel	8	Panajachel	2	Febrero	2023-02-21T00:00:00	2024-11-08T07:00:00	8	Radiación solar	13
21045	7	Sololá	710	Panajachel	8	Panajachel	2	Febrero	2023-02-21T00:00:00	2024-11-08T08:00:00	2	Temperatura media	17.7
21046	7	Sololá	710	Panajachel	8	Panajachel	2	Febrero	2023-02-21T00:00:00	2024-11-08T08:00:00	4	Temperatura máxima	17.7
21047	7	Sololá	710	Panajachel	8	Panajachel	2	Febrero	2023-02-21T00:00:00	2024-11-08T08:00:00	3	Temperatura mínima	14.7
21048	7	Sololá	710	Panajachel	8	Panajachel	2	Febrero	2023-02-21T00:00:00	2024-11-08T08:00:00	5	Humedad	69
21049	7	Sololá	710	Panajachel	8	Panajachel	2	Febrero	2023-02-21T00:00:00	2024-11-08T08:00:00	6	Velocidad del viento	1.6
21050	7	Sololá	710	Panajachel	8	Panajachel	2	Febrero	2023-02-21T00:00:00	2024-11-08T08:00:00	7	Dirección del viento	1.61
21051	7	Sololá	710	Panajachel	8	Panajachel	2	Febrero	2023-02-21T00:00:00	2024-11-08T08:00:00	1	Precipitación	0
21052	7	Sololá	710	Panajachel	8	Panajachel	2	Febrero	2023-02-21T00:00:00	2024-11-08T08:00:00	8	Radiación solar	150
21053	7	Sololá	710	Panajachel	8	Panajachel	2	Febrero	2023-02-21T00:00:00	2024-11-08T09:00:00	2	Temperatura media	18.2
21054	7	Sololá	710	Panajachel	8	Panajachel	2	Febrero	2023-02-21T00:00:00	2024-11-08T09:00:00	4	Temperatura máxima	18.4
21055	7	Sololá	710	Panajachel	8	Panajachel	2	Febrero	2023-02-21T00:00:00	2024-11-08T09:00:00	3	Temperatura mínima	17.7
21056	7	Sololá	710	Panajachel	8	Panajachel	2	Febrero	2023-02-21T00:00:00	2024-11-08T09:00:00	5	Humedad	72
21057	7	Sololá	710	Panajachel	8	Panajachel	2	Febrero	2023-02-21T00:00:00	2024-11-08T09:00:00	6	Velocidad del viento	1.6
21058	7	Sololá	710	Panajachel	8	Panajachel	2	Febrero	2023-02-21T00:00:00	2024-11-08T09:00:00	7	Dirección del viento	1.61
21059	7	Sololá	710	Panajachel	8	Panajachel	2	Febrero	2023-02-21T00:00:00	2024-11-08T09:00:00	1	Precipitación	0
21060	7	Sololá	710	Panajachel	8	Panajachel	2	Febrero	2023-02-21T00:00:00	2024-11-08T09:00:00	8	Radiación solar	356
21061	7	Sololá	710	Panajachel	8	Panajachel	2	Febrero	2023-02-21T00:00:00	2024-11-08T10:00:00	2	Temperatura media	19.1
21062	7	Sololá	710	Panajachel	8	Panajachel	2	Febrero	2023-02-21T00:00:00	2024-11-08T10:00:00	4	Temperatura máxima	19.1
21063	7	Sololá	710	Panajachel	8	Panajachel	2	Febrero	2023-02-21T00:00:00	2024-11-08T10:00:00	3	Temperatura mínima	18.2
21064	7	Sololá	710	Panajachel	8	Panajachel	2	Febrero	2023-02-21T00:00:00	2024-11-08T10:00:00	5	Humedad	68
21065	7	Sololá	710	Panajachel	8	Panajachel	2	Febrero	2023-02-21T00:00:00	2024-11-08T10:00:00	6	Velocidad del viento	4.8
21066	7	Sololá	710	Panajachel	8	Panajachel	2	Febrero	2023-02-21T00:00:00	2024-11-08T10:00:00	7	Dirección del viento	4.83
21067	7	Sololá	710	Panajachel	8	Panajachel	2	Febrero	2023-02-21T00:00:00	2024-11-08T10:00:00	1	Precipitación	0
21068	7	Sololá	710	Panajachel	8	Panajachel	2	Febrero	2023-02-21T00:00:00	2024-11-08T10:00:00	8	Radiación solar	611
21069	7	Sololá	710	Panajachel	8	Panajachel	2	Febrero	2023-02-21T00:00:00	2024-11-08T11:00:00	2	Temperatura media	21.3
21070	7	Sololá	710	Panajachel	8	Panajachel	2	Febrero	2023-02-21T00:00:00	2024-11-08T11:00:00	4	Temperatura máxima	21.3
21071	7	Sololá	710	Panajachel	8	Panajachel	2	Febrero	2023-02-21T00:00:00	2024-11-08T11:00:00	3	Temperatura mínima	19.1
21072	7	Sololá	710	Panajachel	8	Panajachel	2	Febrero	2023-02-21T00:00:00	2024-11-08T11:00:00	5	Humedad	62
21073	7	Sololá	710	Panajachel	8	Panajachel	2	Febrero	2023-02-21T00:00:00	2024-11-08T11:00:00	6	Velocidad del viento	3.2
21074	7	Sololá	710	Panajachel	8	Panajachel	2	Febrero	2023-02-21T00:00:00	2024-11-08T11:00:00	7	Dirección del viento	3.22
21075	7	Sololá	710	Panajachel	8	Panajachel	2	Febrero	2023-02-21T00:00:00	2024-11-08T11:00:00	1	Precipitación	0
21076	7	Sololá	710	Panajachel	8	Panajachel	2	Febrero	2023-02-21T00:00:00	2024-11-08T11:00:00	8	Radiación solar	785
21077	7	Sololá	710	Panajachel	8	Panajachel	2	Febrero	2023-02-21T00:00:00	2024-11-08T12:00:00	2	Temperatura media	21.9
21078	7	Sololá	710	Panajachel	8	Panajachel	2	Febrero	2023-02-21T00:00:00	2024-11-08T12:00:00	4	Temperatura máxima	21.9
21079	7	Sololá	710	Panajachel	8	Panajachel	2	Febrero	2023-02-21T00:00:00	2024-11-08T12:00:00	3	Temperatura mínima	20.4
21080	7	Sololá	710	Panajachel	8	Panajachel	2	Febrero	2023-02-21T00:00:00	2024-11-08T12:00:00	5	Humedad	59
21081	7	Sololá	710	Panajachel	8	Panajachel	2	Febrero	2023-02-21T00:00:00	2024-11-08T12:00:00	6	Velocidad del viento	3.2
21082	7	Sololá	710	Panajachel	8	Panajachel	2	Febrero	2023-02-21T00:00:00	2024-11-08T12:00:00	7	Dirección del viento	3.22
21083	7	Sololá	710	Panajachel	8	Panajachel	2	Febrero	2023-02-21T00:00:00	2024-11-08T12:00:00	1	Precipitación	0
21084	7	Sololá	710	Panajachel	8	Panajachel	2	Febrero	2023-02-21T00:00:00	2024-11-08T12:00:00	8	Radiación solar	873
21085	7	Sololá	710	Panajachel	8	Panajachel	2	Febrero	2023-02-21T00:00:00	2024-11-08T13:00:00	2	Temperatura media	22.3
21086	7	Sololá	710	Panajachel	8	Panajachel	2	Febrero	2023-02-21T00:00:00	2024-11-08T13:00:00	4	Temperatura máxima	22.6
21087	7	Sololá	710	Panajachel	8	Panajachel	2	Febrero	2023-02-21T00:00:00	2024-11-08T13:00:00	3	Temperatura mínima	21.7
21088	7	Sololá	710	Panajachel	8	Panajachel	2	Febrero	2023-02-21T00:00:00	2024-11-08T13:00:00	5	Humedad	63
21089	7	Sololá	710	Panajachel	8	Panajachel	2	Febrero	2023-02-21T00:00:00	2024-11-08T13:00:00	6	Velocidad del viento	4.8
21090	7	Sololá	710	Panajachel	8	Panajachel	2	Febrero	2023-02-21T00:00:00	2024-11-08T13:00:00	7	Dirección del viento	4.83
21091	7	Sololá	710	Panajachel	8	Panajachel	2	Febrero	2023-02-21T00:00:00	2024-11-08T13:00:00	1	Precipitación	0
21092	7	Sololá	710	Panajachel	8	Panajachel	2	Febrero	2023-02-21T00:00:00	2024-11-08T13:00:00	8	Radiación solar	889
21093	7	Sololá	710	Panajachel	8	Panajachel	2	Febrero	2023-02-21T00:00:00	2024-11-08T14:00:00	2	Temperatura media	25.1
21094	7	Sololá	710	Panajachel	8	Panajachel	2	Febrero	2023-02-21T00:00:00	2024-11-08T14:00:00	4	Temperatura máxima	25.1
21095	7	Sololá	710	Panajachel	8	Panajachel	2	Febrero	2023-02-21T00:00:00	2024-11-08T14:00:00	3	Temperatura mínima	22.3
21096	7	Sololá	710	Panajachel	8	Panajachel	2	Febrero	2023-02-21T00:00:00	2024-11-08T14:00:00	5	Humedad	62
21097	7	Sololá	710	Panajachel	8	Panajachel	2	Febrero	2023-02-21T00:00:00	2024-11-08T14:00:00	6	Velocidad del viento	4.8
21098	7	Sololá	710	Panajachel	8	Panajachel	2	Febrero	2023-02-21T00:00:00	2024-11-08T14:00:00	7	Dirección del viento	4.83
21099	7	Sololá	710	Panajachel	8	Panajachel	2	Febrero	2023-02-21T00:00:00	2024-11-08T14:00:00	1	Precipitación	0
21100	7	Sololá	710	Panajachel	8	Panajachel	2	Febrero	2023-02-21T00:00:00	2024-11-08T14:00:00	8	Radiación solar	896
21101	7	Sololá	710	Panajachel	8	Panajachel	2	Febrero	2023-02-21T00:00:00	2024-11-08T15:00:00	2	Temperatura media	24.3
21102	7	Sololá	710	Panajachel	8	Panajachel	2	Febrero	2023-02-21T00:00:00	2024-11-08T15:00:00	4	Temperatura máxima	25.2
21103	7	Sololá	710	Panajachel	8	Panajachel	2	Febrero	2023-02-21T00:00:00	2024-11-08T15:00:00	3	Temperatura mínima	23.6
21104	7	Sololá	710	Panajachel	8	Panajachel	2	Febrero	2023-02-21T00:00:00	2024-11-08T15:00:00	5	Humedad	64
21105	7	Sololá	710	Panajachel	8	Panajachel	2	Febrero	2023-02-21T00:00:00	2024-11-08T15:00:00	6	Velocidad del viento	4.8
21106	7	Sololá	710	Panajachel	8	Panajachel	2	Febrero	2023-02-21T00:00:00	2024-11-08T15:00:00	7	Dirección del viento	4.83
21107	7	Sololá	710	Panajachel	8	Panajachel	2	Febrero	2023-02-21T00:00:00	2024-11-08T15:00:00	1	Precipitación	0
21108	7	Sololá	710	Panajachel	8	Panajachel	2	Febrero	2023-02-21T00:00:00	2024-11-08T15:00:00	8	Radiación solar	743
21109	7	Sololá	710	Panajachel	8	Panajachel	2	Febrero	2023-02-21T00:00:00	2024-11-08T16:00:00	2	Temperatura media	23.1
21110	7	Sololá	710	Panajachel	8	Panajachel	2	Febrero	2023-02-21T00:00:00	2024-11-08T16:00:00	4	Temperatura máxima	24.6
21111	7	Sololá	710	Panajachel	8	Panajachel	2	Febrero	2023-02-21T00:00:00	2024-11-08T16:00:00	3	Temperatura mínima	23
21112	7	Sololá	710	Panajachel	8	Panajachel	2	Febrero	2023-02-21T00:00:00	2024-11-08T16:00:00	5	Humedad	69
21113	7	Sololá	710	Panajachel	8	Panajachel	2	Febrero	2023-02-21T00:00:00	2024-11-08T16:00:00	6	Velocidad del viento	6.4
21114	7	Sololá	710	Panajachel	8	Panajachel	2	Febrero	2023-02-21T00:00:00	2024-11-08T16:00:00	7	Dirección del viento	6.44
21115	7	Sololá	710	Panajachel	8	Panajachel	2	Febrero	2023-02-21T00:00:00	2024-11-08T16:00:00	1	Precipitación	0
21116	7	Sololá	710	Panajachel	8	Panajachel	2	Febrero	2023-02-21T00:00:00	2024-11-08T16:00:00	8	Radiación solar	535
21117	7	Sololá	710	Panajachel	8	Panajachel	2	Febrero	2023-02-21T00:00:00	2024-11-08T17:00:00	2	Temperatura media	22.3
21118	7	Sololá	710	Panajachel	8	Panajachel	2	Febrero	2023-02-21T00:00:00	2024-11-08T17:00:00	4	Temperatura máxima	23.9
21119	7	Sololá	710	Panajachel	8	Panajachel	2	Febrero	2023-02-21T00:00:00	2024-11-08T17:00:00	3	Temperatura mínima	22.3
21120	7	Sololá	710	Panajachel	8	Panajachel	2	Febrero	2023-02-21T00:00:00	2024-11-08T17:00:00	5	Humedad	75
21121	7	Sololá	710	Panajachel	8	Panajachel	2	Febrero	2023-02-21T00:00:00	2024-11-08T17:00:00	6	Velocidad del viento	3.2
21122	7	Sololá	710	Panajachel	8	Panajachel	2	Febrero	2023-02-21T00:00:00	2024-11-08T17:00:00	7	Dirección del viento	3.22
21123	7	Sololá	710	Panajachel	8	Panajachel	2	Febrero	2023-02-21T00:00:00	2024-11-08T17:00:00	1	Precipitación	0
21124	7	Sololá	710	Panajachel	8	Panajachel	2	Febrero	2023-02-21T00:00:00	2024-11-08T17:00:00	8	Radiación solar	278
21125	7	Sololá	710	Panajachel	8	Panajachel	2	Febrero	2023-02-21T00:00:00	2024-11-08T18:00:00	2	Temperatura media	19.8
21126	7	Sololá	710	Panajachel	8	Panajachel	2	Febrero	2023-02-21T00:00:00	2024-11-08T18:00:00	4	Temperatura máxima	22.3
21127	7	Sololá	710	Panajachel	8	Panajachel	2	Febrero	2023-02-21T00:00:00	2024-11-08T18:00:00	3	Temperatura mínima	19.7
21128	7	Sololá	710	Panajachel	8	Panajachel	2	Febrero	2023-02-21T00:00:00	2024-11-08T18:00:00	5	Humedad	84
21129	7	Sololá	710	Panajachel	8	Panajachel	2	Febrero	2023-02-21T00:00:00	2024-11-08T18:00:00	6	Velocidad del viento	4.8
21130	7	Sololá	710	Panajachel	8	Panajachel	2	Febrero	2023-02-21T00:00:00	2024-11-08T18:00:00	7	Dirección del viento	4.83
21131	7	Sololá	710	Panajachel	8	Panajachel	2	Febrero	2023-02-21T00:00:00	2024-11-08T18:00:00	1	Precipitación	0
21132	7	Sololá	710	Panajachel	8	Panajachel	2	Febrero	2023-02-21T00:00:00	2024-11-08T18:00:00	8	Radiación solar	85
21133	7	Sololá	710	Panajachel	8	Panajachel	2	Febrero	2023-02-21T00:00:00	2024-11-08T19:00:00	2	Temperatura media	18.8
21134	7	Sololá	710	Panajachel	8	Panajachel	2	Febrero	2023-02-21T00:00:00	2024-11-08T19:00:00	4	Temperatura máxima	19.8
21135	7	Sololá	710	Panajachel	8	Panajachel	2	Febrero	2023-02-21T00:00:00	2024-11-08T19:00:00	3	Temperatura mínima	18.8
21136	7	Sololá	710	Panajachel	8	Panajachel	2	Febrero	2023-02-21T00:00:00	2024-11-08T19:00:00	5	Humedad	87
21137	7	Sololá	710	Panajachel	8	Panajachel	2	Febrero	2023-02-21T00:00:00	2024-11-08T19:00:00	6	Velocidad del viento	1.6
21138	7	Sololá	710	Panajachel	8	Panajachel	2	Febrero	2023-02-21T00:00:00	2024-11-08T19:00:00	7	Dirección del viento	1.61
21139	7	Sololá	710	Panajachel	8	Panajachel	2	Febrero	2023-02-21T00:00:00	2024-11-08T19:00:00	1	Precipitación	0
21140	7	Sololá	710	Panajachel	8	Panajachel	2	Febrero	2023-02-21T00:00:00	2024-11-08T19:00:00	8	Radiación solar	0
21141	7	Sololá	710	Panajachel	8	Panajachel	2	Febrero	2023-02-21T00:00:00	2024-11-08T20:00:00	2	Temperatura media	18.6
21142	7	Sololá	710	Panajachel	8	Panajachel	2	Febrero	2023-02-21T00:00:00	2024-11-08T20:00:00	4	Temperatura máxima	18.9
21143	7	Sololá	710	Panajachel	8	Panajachel	2	Febrero	2023-02-21T00:00:00	2024-11-08T20:00:00	3	Temperatura mínima	18.6
21144	7	Sololá	710	Panajachel	8	Panajachel	2	Febrero	2023-02-21T00:00:00	2024-11-08T20:00:00	5	Humedad	88
21145	7	Sololá	710	Panajachel	8	Panajachel	2	Febrero	2023-02-21T00:00:00	2024-11-08T20:00:00	6	Velocidad del viento	1.6
21146	7	Sololá	710	Panajachel	8	Panajachel	2	Febrero	2023-02-21T00:00:00	2024-11-08T20:00:00	7	Dirección del viento	1.61
21147	7	Sololá	710	Panajachel	8	Panajachel	2	Febrero	2023-02-21T00:00:00	2024-11-08T20:00:00	1	Precipitación	0
21148	7	Sololá	710	Panajachel	8	Panajachel	2	Febrero	2023-02-21T00:00:00	2024-11-08T20:00:00	8	Radiación solar	0
21149	7	Sololá	710	Panajachel	8	Panajachel	2	Febrero	2023-02-21T00:00:00	2024-11-08T21:00:00	2	Temperatura media	18
21150	7	Sololá	710	Panajachel	8	Panajachel	2	Febrero	2023-02-21T00:00:00	2024-11-08T21:00:00	4	Temperatura máxima	18.6
21151	7	Sololá	710	Panajachel	8	Panajachel	2	Febrero	2023-02-21T00:00:00	2024-11-08T21:00:00	3	Temperatura mínima	18
21152	7	Sololá	710	Panajachel	8	Panajachel	2	Febrero	2023-02-21T00:00:00	2024-11-08T21:00:00	5	Humedad	87
21153	7	Sololá	710	Panajachel	8	Panajachel	2	Febrero	2023-02-21T00:00:00	2024-11-08T21:00:00	6	Velocidad del viento	0
21154	7	Sololá	710	Panajachel	8	Panajachel	2	Febrero	2023-02-21T00:00:00	2024-11-08T21:00:00	7	Dirección del viento	0
21155	7	Sololá	710	Panajachel	8	Panajachel	2	Febrero	2023-02-21T00:00:00	2024-11-08T21:00:00	1	Precipitación	0
21156	7	Sololá	710	Panajachel	8	Panajachel	2	Febrero	2023-02-21T00:00:00	2024-11-08T21:00:00	8	Radiación solar	0
21157	7	Sololá	710	Panajachel	8	Panajachel	2	Febrero	2023-02-21T00:00:00	2024-11-08T22:00:00	2	Temperatura media	17.3
21158	7	Sololá	710	Panajachel	8	Panajachel	2	Febrero	2023-02-21T00:00:00	2024-11-08T22:00:00	4	Temperatura máxima	18
21159	7	Sololá	710	Panajachel	8	Panajachel	2	Febrero	2023-02-21T00:00:00	2024-11-08T22:00:00	3	Temperatura mínima	17.3
21160	7	Sololá	710	Panajachel	8	Panajachel	2	Febrero	2023-02-21T00:00:00	2024-11-08T22:00:00	5	Humedad	84
21161	7	Sololá	710	Panajachel	8	Panajachel	2	Febrero	2023-02-21T00:00:00	2024-11-08T22:00:00	6	Velocidad del viento	1.6
21162	7	Sololá	710	Panajachel	8	Panajachel	2	Febrero	2023-02-21T00:00:00	2024-11-08T22:00:00	7	Dirección del viento	1.61
21163	7	Sololá	710	Panajachel	8	Panajachel	2	Febrero	2023-02-21T00:00:00	2024-11-08T22:00:00	1	Precipitación	0
21164	7	Sololá	710	Panajachel	8	Panajachel	2	Febrero	2023-02-21T00:00:00	2024-11-08T22:00:00	8	Radiación solar	0
21165	7	Sololá	710	Panajachel	8	Panajachel	2	Febrero	2023-02-21T00:00:00	2024-11-08T23:00:00	2	Temperatura media	16.9
21166	7	Sololá	710	Panajachel	8	Panajachel	2	Febrero	2023-02-21T00:00:00	2024-11-08T23:00:00	4	Temperatura máxima	17.3
21167	7	Sololá	710	Panajachel	8	Panajachel	2	Febrero	2023-02-21T00:00:00	2024-11-08T23:00:00	3	Temperatura mínima	16.9
21168	7	Sololá	710	Panajachel	8	Panajachel	2	Febrero	2023-02-21T00:00:00	2024-11-08T23:00:00	5	Humedad	83
21169	7	Sololá	710	Panajachel	8	Panajachel	2	Febrero	2023-02-21T00:00:00	2024-11-08T23:00:00	6	Velocidad del viento	1.6
21170	7	Sololá	710	Panajachel	8	Panajachel	2	Febrero	2023-02-21T00:00:00	2024-11-08T23:00:00	7	Dirección del viento	1.61
21171	7	Sololá	710	Panajachel	8	Panajachel	2	Febrero	2023-02-21T00:00:00	2024-11-08T23:00:00	1	Precipitación	0
21172	7	Sololá	710	Panajachel	8	Panajachel	2	Febrero	2023-02-21T00:00:00	2024-11-08T23:00:00	8	Radiación solar	0
21173	7	Sololá	710	Panajachel	8	Panajachel	2	Febrero	2023-02-22T00:00:00	2024-11-08T00:00:00	2	Temperatura media	16.8
21174	7	Sololá	710	Panajachel	8	Panajachel	2	Febrero	2023-02-22T00:00:00	2024-11-08T00:00:00	4	Temperatura máxima	17
21175	7	Sololá	710	Panajachel	8	Panajachel	2	Febrero	2023-02-22T00:00:00	2024-11-08T00:00:00	3	Temperatura mínima	16.6
21176	7	Sololá	710	Panajachel	8	Panajachel	2	Febrero	2023-02-22T00:00:00	2024-11-08T00:00:00	5	Humedad	82
21177	7	Sololá	710	Panajachel	8	Panajachel	2	Febrero	2023-02-22T00:00:00	2024-11-08T00:00:00	6	Velocidad del viento	1.6
21178	7	Sololá	710	Panajachel	8	Panajachel	2	Febrero	2023-02-22T00:00:00	2024-11-08T00:00:00	7	Dirección del viento	1.61
21179	7	Sololá	710	Panajachel	8	Panajachel	2	Febrero	2023-02-22T00:00:00	2024-11-08T00:00:00	1	Precipitación	0
21180	7	Sololá	710	Panajachel	8	Panajachel	2	Febrero	2023-02-22T00:00:00	2024-11-08T00:00:00	8	Radiación solar	0
21181	7	Sololá	710	Panajachel	8	Panajachel	2	Febrero	2023-02-22T00:00:00	2024-11-08T01:00:00	2	Temperatura media	16.3
21182	7	Sololá	710	Panajachel	8	Panajachel	2	Febrero	2023-02-22T00:00:00	2024-11-08T01:00:00	4	Temperatura máxima	16.8
21183	7	Sololá	710	Panajachel	8	Panajachel	2	Febrero	2023-02-22T00:00:00	2024-11-08T01:00:00	3	Temperatura mínima	16.3
21184	7	Sololá	710	Panajachel	8	Panajachel	2	Febrero	2023-02-22T00:00:00	2024-11-08T01:00:00	5	Humedad	84
21185	7	Sololá	710	Panajachel	8	Panajachel	2	Febrero	2023-02-22T00:00:00	2024-11-08T01:00:00	6	Velocidad del viento	1.6
21186	7	Sololá	710	Panajachel	8	Panajachel	2	Febrero	2023-02-22T00:00:00	2024-11-08T01:00:00	7	Dirección del viento	1.61
21187	7	Sololá	710	Panajachel	8	Panajachel	2	Febrero	2023-02-22T00:00:00	2024-11-08T01:00:00	1	Precipitación	0
21188	7	Sololá	710	Panajachel	8	Panajachel	2	Febrero	2023-02-22T00:00:00	2024-11-08T01:00:00	8	Radiación solar	0
21189	7	Sololá	710	Panajachel	8	Panajachel	2	Febrero	2023-02-22T00:00:00	2024-11-08T02:00:00	2	Temperatura media	16.7
21190	7	Sololá	710	Panajachel	8	Panajachel	2	Febrero	2023-02-22T00:00:00	2024-11-08T02:00:00	4	Temperatura máxima	16.7
21191	7	Sololá	710	Panajachel	8	Panajachel	2	Febrero	2023-02-22T00:00:00	2024-11-08T02:00:00	3	Temperatura mínima	16.2
21192	7	Sololá	710	Panajachel	8	Panajachel	2	Febrero	2023-02-22T00:00:00	2024-11-08T02:00:00	5	Humedad	84
21193	7	Sololá	710	Panajachel	8	Panajachel	2	Febrero	2023-02-22T00:00:00	2024-11-08T02:00:00	6	Velocidad del viento	1.6
21194	7	Sololá	710	Panajachel	8	Panajachel	2	Febrero	2023-02-22T00:00:00	2024-11-08T02:00:00	7	Dirección del viento	1.61
21195	7	Sololá	710	Panajachel	8	Panajachel	2	Febrero	2023-02-22T00:00:00	2024-11-08T02:00:00	1	Precipitación	0
21196	7	Sololá	710	Panajachel	8	Panajachel	2	Febrero	2023-02-22T00:00:00	2024-11-08T02:00:00	8	Radiación solar	0
21197	7	Sololá	710	Panajachel	8	Panajachel	2	Febrero	2023-02-22T00:00:00	2024-11-08T03:00:00	2	Temperatura media	17
21198	7	Sololá	710	Panajachel	8	Panajachel	2	Febrero	2023-02-22T00:00:00	2024-11-08T03:00:00	4	Temperatura máxima	17.1
21199	7	Sololá	710	Panajachel	8	Panajachel	2	Febrero	2023-02-22T00:00:00	2024-11-08T03:00:00	3	Temperatura mínima	16.7
21200	7	Sololá	710	Panajachel	8	Panajachel	2	Febrero	2023-02-22T00:00:00	2024-11-08T03:00:00	5	Humedad	83
21201	7	Sololá	710	Panajachel	8	Panajachel	2	Febrero	2023-02-22T00:00:00	2024-11-08T03:00:00	6	Velocidad del viento	1.6
21202	7	Sololá	710	Panajachel	8	Panajachel	2	Febrero	2023-02-22T00:00:00	2024-11-08T03:00:00	7	Dirección del viento	1.61
21203	7	Sololá	710	Panajachel	8	Panajachel	2	Febrero	2023-02-22T00:00:00	2024-11-08T03:00:00	1	Precipitación	0
21204	7	Sololá	710	Panajachel	8	Panajachel	2	Febrero	2023-02-22T00:00:00	2024-11-08T03:00:00	8	Radiación solar	0
21205	7	Sololá	710	Panajachel	8	Panajachel	2	Febrero	2023-02-22T00:00:00	2024-11-08T04:00:00	2	Temperatura media	17.4
21206	7	Sololá	710	Panajachel	8	Panajachel	2	Febrero	2023-02-22T00:00:00	2024-11-08T04:00:00	4	Temperatura máxima	17.4
21207	7	Sololá	710	Panajachel	8	Panajachel	2	Febrero	2023-02-22T00:00:00	2024-11-08T04:00:00	3	Temperatura mínima	17
21208	7	Sololá	710	Panajachel	8	Panajachel	2	Febrero	2023-02-22T00:00:00	2024-11-08T04:00:00	5	Humedad	87
21209	7	Sololá	710	Panajachel	8	Panajachel	2	Febrero	2023-02-22T00:00:00	2024-11-08T04:00:00	6	Velocidad del viento	1.6
21210	7	Sololá	710	Panajachel	8	Panajachel	2	Febrero	2023-02-22T00:00:00	2024-11-08T04:00:00	7	Dirección del viento	1.61
21211	7	Sololá	710	Panajachel	8	Panajachel	2	Febrero	2023-02-22T00:00:00	2024-11-08T04:00:00	1	Precipitación	0
21212	7	Sololá	710	Panajachel	8	Panajachel	2	Febrero	2023-02-22T00:00:00	2024-11-08T04:00:00	8	Radiación solar	0
21213	7	Sololá	710	Panajachel	8	Panajachel	2	Febrero	2023-02-22T00:00:00	2024-11-08T05:00:00	2	Temperatura media	17.1
21214	7	Sololá	710	Panajachel	8	Panajachel	2	Febrero	2023-02-22T00:00:00	2024-11-08T05:00:00	4	Temperatura máxima	17.4
21215	7	Sololá	710	Panajachel	8	Panajachel	2	Febrero	2023-02-22T00:00:00	2024-11-08T05:00:00	3	Temperatura mínima	17
21216	7	Sololá	710	Panajachel	8	Panajachel	2	Febrero	2023-02-22T00:00:00	2024-11-08T05:00:00	5	Humedad	85
21217	7	Sololá	710	Panajachel	8	Panajachel	2	Febrero	2023-02-22T00:00:00	2024-11-08T05:00:00	6	Velocidad del viento	0
21218	7	Sololá	710	Panajachel	8	Panajachel	2	Febrero	2023-02-22T00:00:00	2024-11-08T05:00:00	7	Dirección del viento	0
21219	7	Sololá	710	Panajachel	8	Panajachel	2	Febrero	2023-02-22T00:00:00	2024-11-08T05:00:00	1	Precipitación	0
21220	7	Sololá	710	Panajachel	8	Panajachel	2	Febrero	2023-02-22T00:00:00	2024-11-08T05:00:00	8	Radiación solar	0
21221	7	Sololá	710	Panajachel	8	Panajachel	2	Febrero	2023-02-22T00:00:00	2024-11-08T06:00:00	2	Temperatura media	16.6
21222	7	Sololá	710	Panajachel	8	Panajachel	2	Febrero	2023-02-22T00:00:00	2024-11-08T06:00:00	4	Temperatura máxima	17.1
21223	7	Sololá	710	Panajachel	8	Panajachel	2	Febrero	2023-02-22T00:00:00	2024-11-08T06:00:00	3	Temperatura mínima	16.6
21224	7	Sololá	710	Panajachel	8	Panajachel	2	Febrero	2023-02-22T00:00:00	2024-11-08T06:00:00	5	Humedad	88
21225	7	Sololá	710	Panajachel	8	Panajachel	2	Febrero	2023-02-22T00:00:00	2024-11-08T06:00:00	6	Velocidad del viento	0
21226	7	Sololá	710	Panajachel	8	Panajachel	2	Febrero	2023-02-22T00:00:00	2024-11-08T06:00:00	7	Dirección del viento	0
21227	7	Sololá	710	Panajachel	8	Panajachel	2	Febrero	2023-02-22T00:00:00	2024-11-08T06:00:00	1	Precipitación	0
21228	7	Sololá	710	Panajachel	8	Panajachel	2	Febrero	2023-02-22T00:00:00	2024-11-08T06:00:00	8	Radiación solar	0
21229	7	Sololá	710	Panajachel	8	Panajachel	2	Febrero	2023-02-22T00:00:00	2024-11-08T07:00:00	2	Temperatura media	16.5
21230	7	Sololá	710	Panajachel	8	Panajachel	2	Febrero	2023-02-22T00:00:00	2024-11-08T07:00:00	4	Temperatura máxima	16.6
21231	7	Sololá	710	Panajachel	8	Panajachel	2	Febrero	2023-02-22T00:00:00	2024-11-08T07:00:00	3	Temperatura mínima	16.2
21232	7	Sololá	710	Panajachel	8	Panajachel	2	Febrero	2023-02-22T00:00:00	2024-11-08T07:00:00	5	Humedad	89
21233	7	Sololá	710	Panajachel	8	Panajachel	2	Febrero	2023-02-22T00:00:00	2024-11-08T07:00:00	6	Velocidad del viento	0
21234	7	Sololá	710	Panajachel	8	Panajachel	2	Febrero	2023-02-22T00:00:00	2024-11-08T07:00:00	7	Dirección del viento	0
21235	7	Sololá	710	Panajachel	8	Panajachel	2	Febrero	2023-02-22T00:00:00	2024-11-08T07:00:00	1	Precipitación	0
21236	7	Sololá	710	Panajachel	8	Panajachel	2	Febrero	2023-02-22T00:00:00	2024-11-08T07:00:00	8	Radiación solar	15
21237	7	Sololá	710	Panajachel	8	Panajachel	2	Febrero	2023-02-22T00:00:00	2024-11-08T08:00:00	2	Temperatura media	18.4
21238	7	Sololá	710	Panajachel	8	Panajachel	2	Febrero	2023-02-22T00:00:00	2024-11-08T08:00:00	4	Temperatura máxima	18.5
21239	7	Sololá	710	Panajachel	8	Panajachel	2	Febrero	2023-02-22T00:00:00	2024-11-08T08:00:00	3	Temperatura mínima	16.5
21240	7	Sololá	710	Panajachel	8	Panajachel	2	Febrero	2023-02-22T00:00:00	2024-11-08T08:00:00	5	Humedad	83
21241	7	Sololá	710	Panajachel	8	Panajachel	2	Febrero	2023-02-22T00:00:00	2024-11-08T08:00:00	6	Velocidad del viento	0
21242	7	Sololá	710	Panajachel	8	Panajachel	2	Febrero	2023-02-22T00:00:00	2024-11-08T08:00:00	7	Dirección del viento	0
21243	7	Sololá	710	Panajachel	8	Panajachel	2	Febrero	2023-02-22T00:00:00	2024-11-08T08:00:00	1	Precipitación	0
21244	7	Sololá	710	Panajachel	8	Panajachel	2	Febrero	2023-02-22T00:00:00	2024-11-08T08:00:00	8	Radiación solar	120
21245	7	Sololá	710	Panajachel	8	Panajachel	2	Febrero	2023-02-22T00:00:00	2024-11-08T09:00:00	2	Temperatura media	18.7
21246	7	Sololá	710	Panajachel	8	Panajachel	2	Febrero	2023-02-22T00:00:00	2024-11-08T09:00:00	4	Temperatura máxima	18.8
21247	7	Sololá	710	Panajachel	8	Panajachel	2	Febrero	2023-02-22T00:00:00	2024-11-08T09:00:00	3	Temperatura mínima	18.2
21248	7	Sololá	710	Panajachel	8	Panajachel	2	Febrero	2023-02-22T00:00:00	2024-11-08T09:00:00	5	Humedad	83
21249	7	Sololá	710	Panajachel	8	Panajachel	2	Febrero	2023-02-22T00:00:00	2024-11-08T09:00:00	6	Velocidad del viento	1.6
21250	7	Sololá	710	Panajachel	8	Panajachel	2	Febrero	2023-02-22T00:00:00	2024-11-08T09:00:00	7	Dirección del viento	1.61
21251	7	Sololá	710	Panajachel	8	Panajachel	2	Febrero	2023-02-22T00:00:00	2024-11-08T09:00:00	1	Precipitación	0
21252	7	Sololá	710	Panajachel	8	Panajachel	2	Febrero	2023-02-22T00:00:00	2024-11-08T09:00:00	8	Radiación solar	239
21253	7	Sololá	710	Panajachel	8	Panajachel	2	Febrero	2023-02-22T00:00:00	2024-11-08T10:00:00	2	Temperatura media	20.1
21254	7	Sololá	710	Panajachel	8	Panajachel	2	Febrero	2023-02-22T00:00:00	2024-11-08T10:00:00	4	Temperatura máxima	20.4
21255	7	Sololá	710	Panajachel	8	Panajachel	2	Febrero	2023-02-22T00:00:00	2024-11-08T10:00:00	3	Temperatura mínima	18.6
21256	7	Sololá	710	Panajachel	8	Panajachel	2	Febrero	2023-02-22T00:00:00	2024-11-08T10:00:00	5	Humedad	82
21257	7	Sololá	710	Panajachel	8	Panajachel	2	Febrero	2023-02-22T00:00:00	2024-11-08T10:00:00	6	Velocidad del viento	3.2
21258	7	Sololá	710	Panajachel	8	Panajachel	2	Febrero	2023-02-22T00:00:00	2024-11-08T10:00:00	7	Dirección del viento	3.22
21259	7	Sololá	710	Panajachel	8	Panajachel	2	Febrero	2023-02-22T00:00:00	2024-11-08T10:00:00	1	Precipitación	0
21260	7	Sololá	710	Panajachel	8	Panajachel	2	Febrero	2023-02-22T00:00:00	2024-11-08T10:00:00	8	Radiación solar	581
21261	7	Sololá	710	Panajachel	8	Panajachel	2	Febrero	2023-02-22T00:00:00	2024-11-08T11:00:00	2	Temperatura media	19.9
21262	7	Sololá	710	Panajachel	8	Panajachel	2	Febrero	2023-02-22T00:00:00	2024-11-08T11:00:00	4	Temperatura máxima	21.2
21263	7	Sololá	710	Panajachel	8	Panajachel	2	Febrero	2023-02-22T00:00:00	2024-11-08T11:00:00	3	Temperatura mínima	19.9
21264	7	Sololá	710	Panajachel	8	Panajachel	2	Febrero	2023-02-22T00:00:00	2024-11-08T11:00:00	5	Humedad	79
21265	7	Sololá	710	Panajachel	8	Panajachel	2	Febrero	2023-02-22T00:00:00	2024-11-08T11:00:00	6	Velocidad del viento	3.2
21266	7	Sololá	710	Panajachel	8	Panajachel	2	Febrero	2023-02-22T00:00:00	2024-11-08T11:00:00	7	Dirección del viento	3.22
21267	7	Sololá	710	Panajachel	8	Panajachel	2	Febrero	2023-02-22T00:00:00	2024-11-08T11:00:00	1	Precipitación	0
21268	7	Sololá	710	Panajachel	8	Panajachel	2	Febrero	2023-02-22T00:00:00	2024-11-08T11:00:00	8	Radiación solar	818
21269	7	Sololá	710	Panajachel	8	Panajachel	2	Febrero	2023-02-22T00:00:00	2024-11-08T12:00:00	2	Temperatura media	20.4
21270	7	Sololá	710	Panajachel	8	Panajachel	2	Febrero	2023-02-22T00:00:00	2024-11-08T12:00:00	4	Temperatura máxima	20.8
21271	7	Sololá	710	Panajachel	8	Panajachel	2	Febrero	2023-02-22T00:00:00	2024-11-08T12:00:00	3	Temperatura mínima	19.8
21272	7	Sololá	710	Panajachel	8	Panajachel	2	Febrero	2023-02-22T00:00:00	2024-11-08T12:00:00	5	Humedad	78
21273	7	Sololá	710	Panajachel	8	Panajachel	2	Febrero	2023-02-22T00:00:00	2024-11-08T12:00:00	6	Velocidad del viento	4.8
21274	7	Sololá	710	Panajachel	8	Panajachel	2	Febrero	2023-02-22T00:00:00	2024-11-08T12:00:00	7	Dirección del viento	4.83
21275	7	Sololá	710	Panajachel	8	Panajachel	2	Febrero	2023-02-22T00:00:00	2024-11-08T12:00:00	1	Precipitación	0
21276	7	Sololá	710	Panajachel	8	Panajachel	2	Febrero	2023-02-22T00:00:00	2024-11-08T12:00:00	8	Radiación solar	761
21277	7	Sololá	710	Panajachel	8	Panajachel	2	Febrero	2023-02-22T00:00:00	2024-11-08T13:00:00	2	Temperatura media	22.2
21278	7	Sololá	710	Panajachel	8	Panajachel	2	Febrero	2023-02-22T00:00:00	2024-11-08T13:00:00	4	Temperatura máxima	22.2
21279	7	Sololá	710	Panajachel	8	Panajachel	2	Febrero	2023-02-22T00:00:00	2024-11-08T13:00:00	3	Temperatura mínima	20.4
21280	7	Sololá	710	Panajachel	8	Panajachel	2	Febrero	2023-02-22T00:00:00	2024-11-08T13:00:00	5	Humedad	70
21281	7	Sololá	710	Panajachel	8	Panajachel	2	Febrero	2023-02-22T00:00:00	2024-11-08T13:00:00	6	Velocidad del viento	4.8
21282	7	Sololá	710	Panajachel	8	Panajachel	2	Febrero	2023-02-22T00:00:00	2024-11-08T13:00:00	7	Dirección del viento	4.83
21283	7	Sololá	710	Panajachel	8	Panajachel	2	Febrero	2023-02-22T00:00:00	2024-11-08T13:00:00	1	Precipitación	0
21284	7	Sololá	710	Panajachel	8	Panajachel	2	Febrero	2023-02-22T00:00:00	2024-11-08T13:00:00	8	Radiación solar	792
21285	7	Sololá	710	Panajachel	8	Panajachel	2	Febrero	2023-02-22T00:00:00	2024-11-08T14:00:00	2	Temperatura media	23.7
21286	7	Sololá	710	Panajachel	8	Panajachel	2	Febrero	2023-02-22T00:00:00	2024-11-08T14:00:00	4	Temperatura máxima	23.7
21287	7	Sololá	710	Panajachel	8	Panajachel	2	Febrero	2023-02-22T00:00:00	2024-11-08T14:00:00	3	Temperatura mínima	21.9
21288	7	Sololá	710	Panajachel	8	Panajachel	2	Febrero	2023-02-22T00:00:00	2024-11-08T14:00:00	5	Humedad	67
21289	7	Sololá	710	Panajachel	8	Panajachel	2	Febrero	2023-02-22T00:00:00	2024-11-08T14:00:00	6	Velocidad del viento	4.8
21290	7	Sololá	710	Panajachel	8	Panajachel	2	Febrero	2023-02-22T00:00:00	2024-11-08T14:00:00	7	Dirección del viento	4.83
21291	7	Sololá	710	Panajachel	8	Panajachel	2	Febrero	2023-02-22T00:00:00	2024-11-08T14:00:00	1	Precipitación	0
21292	7	Sololá	710	Panajachel	8	Panajachel	2	Febrero	2023-02-22T00:00:00	2024-11-08T14:00:00	8	Radiación solar	872
21293	7	Sololá	710	Panajachel	8	Panajachel	2	Febrero	2023-02-22T00:00:00	2024-11-08T15:00:00	2	Temperatura media	23.9
21294	7	Sololá	710	Panajachel	8	Panajachel	2	Febrero	2023-02-22T00:00:00	2024-11-08T15:00:00	4	Temperatura máxima	24.1
21295	7	Sololá	710	Panajachel	8	Panajachel	2	Febrero	2023-02-22T00:00:00	2024-11-08T15:00:00	3	Temperatura mínima	21.7
21296	7	Sololá	710	Panajachel	8	Panajachel	2	Febrero	2023-02-22T00:00:00	2024-11-08T15:00:00	5	Humedad	68
21297	7	Sololá	710	Panajachel	8	Panajachel	2	Febrero	2023-02-22T00:00:00	2024-11-08T15:00:00	6	Velocidad del viento	8
21298	7	Sololá	710	Panajachel	8	Panajachel	2	Febrero	2023-02-22T00:00:00	2024-11-08T15:00:00	7	Dirección del viento	8.05
21299	7	Sololá	710	Panajachel	8	Panajachel	2	Febrero	2023-02-22T00:00:00	2024-11-08T15:00:00	1	Precipitación	0
21300	7	Sololá	710	Panajachel	8	Panajachel	2	Febrero	2023-02-22T00:00:00	2024-11-08T15:00:00	8	Radiación solar	765
21301	7	Sololá	710	Panajachel	8	Panajachel	2	Febrero	2023-02-22T00:00:00	2024-11-08T16:00:00	2	Temperatura media	21.7
21302	7	Sololá	710	Panajachel	8	Panajachel	2	Febrero	2023-02-22T00:00:00	2024-11-08T16:00:00	4	Temperatura máxima	23.9
21303	7	Sololá	710	Panajachel	8	Panajachel	2	Febrero	2023-02-22T00:00:00	2024-11-08T16:00:00	3	Temperatura mínima	21.7
21304	7	Sololá	710	Panajachel	8	Panajachel	2	Febrero	2023-02-22T00:00:00	2024-11-08T16:00:00	5	Humedad	77
21305	7	Sololá	710	Panajachel	8	Panajachel	2	Febrero	2023-02-22T00:00:00	2024-11-08T16:00:00	6	Velocidad del viento	4.8
21306	7	Sololá	710	Panajachel	8	Panajachel	2	Febrero	2023-02-22T00:00:00	2024-11-08T16:00:00	7	Dirección del viento	4.83
21307	7	Sololá	710	Panajachel	8	Panajachel	2	Febrero	2023-02-22T00:00:00	2024-11-08T16:00:00	1	Precipitación	0
21308	7	Sololá	710	Panajachel	8	Panajachel	2	Febrero	2023-02-22T00:00:00	2024-11-08T16:00:00	8	Radiación solar	377
21309	7	Sololá	710	Panajachel	8	Panajachel	2	Febrero	2023-02-22T00:00:00	2024-11-08T17:00:00	2	Temperatura media	20.3
21310	7	Sololá	710	Panajachel	8	Panajachel	2	Febrero	2023-02-22T00:00:00	2024-11-08T17:00:00	4	Temperatura máxima	21.8
21311	7	Sololá	710	Panajachel	8	Panajachel	2	Febrero	2023-02-22T00:00:00	2024-11-08T17:00:00	3	Temperatura mínima	20.3
21312	7	Sololá	710	Panajachel	8	Panajachel	2	Febrero	2023-02-22T00:00:00	2024-11-08T17:00:00	5	Humedad	79
21313	7	Sololá	710	Panajachel	8	Panajachel	2	Febrero	2023-02-22T00:00:00	2024-11-08T17:00:00	6	Velocidad del viento	3.2
21314	7	Sololá	710	Panajachel	8	Panajachel	2	Febrero	2023-02-22T00:00:00	2024-11-08T17:00:00	7	Dirección del viento	3.22
21315	7	Sololá	710	Panajachel	8	Panajachel	2	Febrero	2023-02-22T00:00:00	2024-11-08T17:00:00	1	Precipitación	0
21316	7	Sololá	710	Panajachel	8	Panajachel	2	Febrero	2023-02-22T00:00:00	2024-11-08T17:00:00	8	Radiación solar	83
21317	7	Sololá	710	Panajachel	8	Panajachel	2	Febrero	2023-02-22T00:00:00	2024-11-08T18:00:00	2	Temperatura media	20
21318	7	Sololá	710	Panajachel	8	Panajachel	2	Febrero	2023-02-22T00:00:00	2024-11-08T18:00:00	4	Temperatura máxima	20.7
21319	7	Sololá	710	Panajachel	8	Panajachel	2	Febrero	2023-02-22T00:00:00	2024-11-08T18:00:00	3	Temperatura mínima	20
21320	7	Sololá	710	Panajachel	8	Panajachel	2	Febrero	2023-02-22T00:00:00	2024-11-08T18:00:00	5	Humedad	81
21321	7	Sololá	710	Panajachel	8	Panajachel	2	Febrero	2023-02-22T00:00:00	2024-11-08T18:00:00	6	Velocidad del viento	1.6
21322	7	Sololá	710	Panajachel	8	Panajachel	2	Febrero	2023-02-22T00:00:00	2024-11-08T18:00:00	7	Dirección del viento	1.61
21323	7	Sololá	710	Panajachel	8	Panajachel	2	Febrero	2023-02-22T00:00:00	2024-11-08T18:00:00	1	Precipitación	0
21324	7	Sololá	710	Panajachel	8	Panajachel	2	Febrero	2023-02-22T00:00:00	2024-11-08T18:00:00	8	Radiación solar	55
21325	7	Sololá	710	Panajachel	8	Panajachel	2	Febrero	2023-02-22T00:00:00	2024-11-08T19:00:00	2	Temperatura media	19.2
21326	7	Sololá	710	Panajachel	8	Panajachel	2	Febrero	2023-02-22T00:00:00	2024-11-08T19:00:00	4	Temperatura máxima	20.1
21327	7	Sololá	710	Panajachel	8	Panajachel	2	Febrero	2023-02-22T00:00:00	2024-11-08T19:00:00	3	Temperatura mínima	19.2
21328	7	Sololá	710	Panajachel	8	Panajachel	2	Febrero	2023-02-22T00:00:00	2024-11-08T19:00:00	5	Humedad	86
21329	7	Sololá	710	Panajachel	8	Panajachel	2	Febrero	2023-02-22T00:00:00	2024-11-08T19:00:00	6	Velocidad del viento	0
21330	7	Sololá	710	Panajachel	8	Panajachel	2	Febrero	2023-02-22T00:00:00	2024-11-08T19:00:00	7	Dirección del viento	0
21331	7	Sololá	710	Panajachel	8	Panajachel	2	Febrero	2023-02-22T00:00:00	2024-11-08T19:00:00	1	Precipitación	0
21332	7	Sololá	710	Panajachel	8	Panajachel	2	Febrero	2023-02-22T00:00:00	2024-11-08T19:00:00	8	Radiación solar	0
21333	7	Sololá	710	Panajachel	8	Panajachel	2	Febrero	2023-02-22T00:00:00	2024-11-08T20:00:00	2	Temperatura media	19.4
21334	7	Sololá	710	Panajachel	8	Panajachel	2	Febrero	2023-02-22T00:00:00	2024-11-08T20:00:00	4	Temperatura máxima	19.4
21335	7	Sololá	710	Panajachel	8	Panajachel	2	Febrero	2023-02-22T00:00:00	2024-11-08T20:00:00	3	Temperatura mínima	19.2
21336	7	Sololá	710	Panajachel	8	Panajachel	2	Febrero	2023-02-22T00:00:00	2024-11-08T20:00:00	5	Humedad	86
21337	7	Sololá	710	Panajachel	8	Panajachel	2	Febrero	2023-02-22T00:00:00	2024-11-08T20:00:00	6	Velocidad del viento	0
21338	7	Sololá	710	Panajachel	8	Panajachel	2	Febrero	2023-02-22T00:00:00	2024-11-08T20:00:00	7	Dirección del viento	0
21339	7	Sololá	710	Panajachel	8	Panajachel	2	Febrero	2023-02-22T00:00:00	2024-11-08T20:00:00	1	Precipitación	0
21340	7	Sololá	710	Panajachel	8	Panajachel	2	Febrero	2023-02-22T00:00:00	2024-11-08T20:00:00	8	Radiación solar	0
21341	7	Sololá	710	Panajachel	8	Panajachel	2	Febrero	2023-02-22T00:00:00	2024-11-08T21:00:00	2	Temperatura media	18.8
21342	7	Sololá	710	Panajachel	8	Panajachel	2	Febrero	2023-02-22T00:00:00	2024-11-08T21:00:00	4	Temperatura máxima	19.4
21343	7	Sololá	710	Panajachel	8	Panajachel	2	Febrero	2023-02-22T00:00:00	2024-11-08T21:00:00	3	Temperatura mínima	18.6
21344	7	Sololá	710	Panajachel	8	Panajachel	2	Febrero	2023-02-22T00:00:00	2024-11-08T21:00:00	5	Humedad	86
21345	7	Sololá	710	Panajachel	8	Panajachel	2	Febrero	2023-02-22T00:00:00	2024-11-08T21:00:00	6	Velocidad del viento	1.6
21346	7	Sololá	710	Panajachel	8	Panajachel	2	Febrero	2023-02-22T00:00:00	2024-11-08T21:00:00	7	Dirección del viento	1.61
21347	7	Sololá	710	Panajachel	8	Panajachel	2	Febrero	2023-02-22T00:00:00	2024-11-08T21:00:00	1	Precipitación	0
21348	7	Sololá	710	Panajachel	8	Panajachel	2	Febrero	2023-02-22T00:00:00	2024-11-08T21:00:00	8	Radiación solar	0
21349	7	Sololá	710	Panajachel	8	Panajachel	2	Febrero	2023-02-22T00:00:00	2024-11-08T22:00:00	2	Temperatura media	18.2
21350	7	Sololá	710	Panajachel	8	Panajachel	2	Febrero	2023-02-22T00:00:00	2024-11-08T22:00:00	4	Temperatura máxima	18.8
21351	7	Sololá	710	Panajachel	8	Panajachel	2	Febrero	2023-02-22T00:00:00	2024-11-08T22:00:00	3	Temperatura mínima	18.1
21352	7	Sololá	710	Panajachel	8	Panajachel	2	Febrero	2023-02-22T00:00:00	2024-11-08T22:00:00	5	Humedad	80
21353	7	Sololá	710	Panajachel	8	Panajachel	2	Febrero	2023-02-22T00:00:00	2024-11-08T22:00:00	6	Velocidad del viento	0
21354	7	Sololá	710	Panajachel	8	Panajachel	2	Febrero	2023-02-22T00:00:00	2024-11-08T22:00:00	7	Dirección del viento	0
21355	7	Sololá	710	Panajachel	8	Panajachel	2	Febrero	2023-02-22T00:00:00	2024-11-08T22:00:00	1	Precipitación	0
21356	7	Sololá	710	Panajachel	8	Panajachel	2	Febrero	2023-02-22T00:00:00	2024-11-08T22:00:00	8	Radiación solar	0
21357	7	Sololá	710	Panajachel	8	Panajachel	2	Febrero	2023-02-22T00:00:00	2024-11-08T23:00:00	2	Temperatura media	17.9
21358	7	Sololá	710	Panajachel	8	Panajachel	2	Febrero	2023-02-22T00:00:00	2024-11-08T23:00:00	4	Temperatura máxima	18.1
21359	7	Sololá	710	Panajachel	8	Panajachel	2	Febrero	2023-02-22T00:00:00	2024-11-08T23:00:00	3	Temperatura mínima	17.8
21360	7	Sololá	710	Panajachel	8	Panajachel	2	Febrero	2023-02-22T00:00:00	2024-11-08T23:00:00	5	Humedad	80
21361	7	Sololá	710	Panajachel	8	Panajachel	2	Febrero	2023-02-22T00:00:00	2024-11-08T23:00:00	6	Velocidad del viento	1.6
21362	7	Sololá	710	Panajachel	8	Panajachel	2	Febrero	2023-02-22T00:00:00	2024-11-08T23:00:00	7	Dirección del viento	1.61
21363	7	Sololá	710	Panajachel	8	Panajachel	2	Febrero	2023-02-22T00:00:00	2024-11-08T23:00:00	1	Precipitación	0
21364	7	Sololá	710	Panajachel	8	Panajachel	2	Febrero	2023-02-22T00:00:00	2024-11-08T23:00:00	8	Radiación solar	0
21365	7	Sololá	710	Panajachel	8	Panajachel	2	Febrero	2023-02-23T00:00:00	2024-11-08T00:00:00	2	Temperatura media	17.7
21366	7	Sololá	710	Panajachel	8	Panajachel	2	Febrero	2023-02-23T00:00:00	2024-11-08T00:00:00	4	Temperatura máxima	17.9
21367	7	Sololá	710	Panajachel	8	Panajachel	2	Febrero	2023-02-23T00:00:00	2024-11-08T00:00:00	3	Temperatura mínima	17.6
21368	7	Sololá	710	Panajachel	8	Panajachel	2	Febrero	2023-02-23T00:00:00	2024-11-08T00:00:00	5	Humedad	80
21369	7	Sololá	710	Panajachel	8	Panajachel	2	Febrero	2023-02-23T00:00:00	2024-11-08T00:00:00	6	Velocidad del viento	1.6
21370	7	Sololá	710	Panajachel	8	Panajachel	2	Febrero	2023-02-23T00:00:00	2024-11-08T00:00:00	7	Dirección del viento	1.61
21371	7	Sololá	710	Panajachel	8	Panajachel	2	Febrero	2023-02-23T00:00:00	2024-11-08T00:00:00	1	Precipitación	0
21372	7	Sololá	710	Panajachel	8	Panajachel	2	Febrero	2023-02-23T00:00:00	2024-11-08T00:00:00	8	Radiación solar	0
21373	7	Sololá	710	Panajachel	8	Panajachel	2	Febrero	2023-02-23T00:00:00	2024-11-08T01:00:00	2	Temperatura media	17.6
21374	7	Sololá	710	Panajachel	8	Panajachel	2	Febrero	2023-02-23T00:00:00	2024-11-08T01:00:00	4	Temperatura máxima	17.8
21375	7	Sololá	710	Panajachel	8	Panajachel	2	Febrero	2023-02-23T00:00:00	2024-11-08T01:00:00	3	Temperatura mínima	17.6
21376	7	Sololá	710	Panajachel	8	Panajachel	2	Febrero	2023-02-23T00:00:00	2024-11-08T01:00:00	5	Humedad	83
21377	7	Sololá	710	Panajachel	8	Panajachel	2	Febrero	2023-02-23T00:00:00	2024-11-08T01:00:00	6	Velocidad del viento	1.6
21378	7	Sololá	710	Panajachel	8	Panajachel	2	Febrero	2023-02-23T00:00:00	2024-11-08T01:00:00	7	Dirección del viento	1.61
21379	7	Sololá	710	Panajachel	8	Panajachel	2	Febrero	2023-02-23T00:00:00	2024-11-08T01:00:00	1	Precipitación	0
21380	7	Sololá	710	Panajachel	8	Panajachel	2	Febrero	2023-02-23T00:00:00	2024-11-08T01:00:00	8	Radiación solar	0
21381	7	Sololá	710	Panajachel	8	Panajachel	2	Febrero	2023-02-23T00:00:00	2024-11-08T02:00:00	2	Temperatura media	16.6
21382	7	Sololá	710	Panajachel	8	Panajachel	2	Febrero	2023-02-23T00:00:00	2024-11-08T02:00:00	4	Temperatura máxima	17.6
21383	7	Sololá	710	Panajachel	8	Panajachel	2	Febrero	2023-02-23T00:00:00	2024-11-08T02:00:00	3	Temperatura mínima	16.6
21384	7	Sololá	710	Panajachel	8	Panajachel	2	Febrero	2023-02-23T00:00:00	2024-11-08T02:00:00	5	Humedad	84
21385	7	Sololá	710	Panajachel	8	Panajachel	2	Febrero	2023-02-23T00:00:00	2024-11-08T02:00:00	6	Velocidad del viento	1.6
21386	7	Sololá	710	Panajachel	8	Panajachel	2	Febrero	2023-02-23T00:00:00	2024-11-08T02:00:00	7	Dirección del viento	1.61
21387	7	Sololá	710	Panajachel	8	Panajachel	2	Febrero	2023-02-23T00:00:00	2024-11-08T02:00:00	1	Precipitación	0
21388	7	Sololá	710	Panajachel	8	Panajachel	2	Febrero	2023-02-23T00:00:00	2024-11-08T02:00:00	8	Radiación solar	0
21389	7	Sololá	710	Panajachel	8	Panajachel	2	Febrero	2023-02-23T00:00:00	2024-11-08T03:00:00	2	Temperatura media	16.7
21390	7	Sololá	710	Panajachel	8	Panajachel	2	Febrero	2023-02-23T00:00:00	2024-11-08T03:00:00	4	Temperatura máxima	16.7
21391	7	Sololá	710	Panajachel	8	Panajachel	2	Febrero	2023-02-23T00:00:00	2024-11-08T03:00:00	3	Temperatura mínima	16.4
21392	7	Sololá	710	Panajachel	8	Panajachel	2	Febrero	2023-02-23T00:00:00	2024-11-08T03:00:00	5	Humedad	86
21393	7	Sololá	710	Panajachel	8	Panajachel	2	Febrero	2023-02-23T00:00:00	2024-11-08T03:00:00	6	Velocidad del viento	0
21394	7	Sololá	710	Panajachel	8	Panajachel	2	Febrero	2023-02-23T00:00:00	2024-11-08T03:00:00	7	Dirección del viento	0
21395	7	Sololá	710	Panajachel	8	Panajachel	2	Febrero	2023-02-23T00:00:00	2024-11-08T03:00:00	1	Precipitación	0
21396	7	Sololá	710	Panajachel	8	Panajachel	2	Febrero	2023-02-23T00:00:00	2024-11-08T03:00:00	8	Radiación solar	0
21397	7	Sololá	710	Panajachel	8	Panajachel	2	Febrero	2023-02-23T00:00:00	2024-11-08T04:00:00	2	Temperatura media	16.6
21398	7	Sololá	710	Panajachel	8	Panajachel	2	Febrero	2023-02-23T00:00:00	2024-11-08T04:00:00	4	Temperatura máxima	16.9
21399	7	Sololá	710	Panajachel	8	Panajachel	2	Febrero	2023-02-23T00:00:00	2024-11-08T04:00:00	3	Temperatura mínima	16.6
21400	7	Sololá	710	Panajachel	8	Panajachel	2	Febrero	2023-02-23T00:00:00	2024-11-08T04:00:00	5	Humedad	80
21401	7	Sololá	710	Panajachel	8	Panajachel	2	Febrero	2023-02-23T00:00:00	2024-11-08T04:00:00	6	Velocidad del viento	1.6
21402	7	Sololá	710	Panajachel	8	Panajachel	2	Febrero	2023-02-23T00:00:00	2024-11-08T04:00:00	7	Dirección del viento	1.61
21403	7	Sololá	710	Panajachel	8	Panajachel	2	Febrero	2023-02-23T00:00:00	2024-11-08T04:00:00	1	Precipitación	0
21404	7	Sololá	710	Panajachel	8	Panajachel	2	Febrero	2023-02-23T00:00:00	2024-11-08T04:00:00	8	Radiación solar	0
21405	7	Sololá	710	Panajachel	8	Panajachel	2	Febrero	2023-02-23T00:00:00	2024-11-08T05:00:00	2	Temperatura media	16.1
21406	7	Sololá	710	Panajachel	8	Panajachel	2	Febrero	2023-02-23T00:00:00	2024-11-08T05:00:00	4	Temperatura máxima	16.6
21407	7	Sololá	710	Panajachel	8	Panajachel	2	Febrero	2023-02-23T00:00:00	2024-11-08T05:00:00	3	Temperatura mínima	15.9
21408	7	Sololá	710	Panajachel	8	Panajachel	2	Febrero	2023-02-23T00:00:00	2024-11-08T05:00:00	5	Humedad	82
21409	7	Sololá	710	Panajachel	8	Panajachel	2	Febrero	2023-02-23T00:00:00	2024-11-08T05:00:00	6	Velocidad del viento	1.6
21410	7	Sololá	710	Panajachel	8	Panajachel	2	Febrero	2023-02-23T00:00:00	2024-11-08T05:00:00	7	Dirección del viento	1.61
21411	7	Sololá	710	Panajachel	8	Panajachel	2	Febrero	2023-02-23T00:00:00	2024-11-08T05:00:00	1	Precipitación	0
21412	7	Sololá	710	Panajachel	8	Panajachel	2	Febrero	2023-02-23T00:00:00	2024-11-08T05:00:00	8	Radiación solar	0
21413	7	Sololá	710	Panajachel	8	Panajachel	2	Febrero	2023-02-23T00:00:00	2024-11-08T06:00:00	2	Temperatura media	15.8
21414	7	Sololá	710	Panajachel	8	Panajachel	2	Febrero	2023-02-23T00:00:00	2024-11-08T06:00:00	4	Temperatura máxima	16.1
21415	7	Sololá	710	Panajachel	8	Panajachel	2	Febrero	2023-02-23T00:00:00	2024-11-08T06:00:00	3	Temperatura mínima	15.8
21416	7	Sololá	710	Panajachel	8	Panajachel	2	Febrero	2023-02-23T00:00:00	2024-11-08T06:00:00	5	Humedad	78
21417	7	Sololá	710	Panajachel	8	Panajachel	2	Febrero	2023-02-23T00:00:00	2024-11-08T06:00:00	6	Velocidad del viento	3.2
21418	7	Sololá	710	Panajachel	8	Panajachel	2	Febrero	2023-02-23T00:00:00	2024-11-08T06:00:00	7	Dirección del viento	3.22
21419	7	Sololá	710	Panajachel	8	Panajachel	2	Febrero	2023-02-23T00:00:00	2024-11-08T06:00:00	1	Precipitación	0
21420	7	Sololá	710	Panajachel	8	Panajachel	2	Febrero	2023-02-23T00:00:00	2024-11-08T06:00:00	8	Radiación solar	0
21421	7	Sololá	710	Panajachel	8	Panajachel	2	Febrero	2023-02-23T00:00:00	2024-11-08T07:00:00	2	Temperatura media	14.8
21422	7	Sololá	710	Panajachel	8	Panajachel	2	Febrero	2023-02-23T00:00:00	2024-11-08T07:00:00	4	Temperatura máxima	15.8
21423	7	Sololá	710	Panajachel	8	Panajachel	2	Febrero	2023-02-23T00:00:00	2024-11-08T07:00:00	3	Temperatura mínima	14.7
21424	7	Sololá	710	Panajachel	8	Panajachel	2	Febrero	2023-02-23T00:00:00	2024-11-08T07:00:00	5	Humedad	81
21425	7	Sololá	710	Panajachel	8	Panajachel	2	Febrero	2023-02-23T00:00:00	2024-11-08T07:00:00	6	Velocidad del viento	3.2
21426	7	Sololá	710	Panajachel	8	Panajachel	2	Febrero	2023-02-23T00:00:00	2024-11-08T07:00:00	7	Dirección del viento	3.22
21427	7	Sololá	710	Panajachel	8	Panajachel	2	Febrero	2023-02-23T00:00:00	2024-11-08T07:00:00	1	Precipitación	0
21428	7	Sololá	710	Panajachel	8	Panajachel	2	Febrero	2023-02-23T00:00:00	2024-11-08T07:00:00	8	Radiación solar	6
21429	7	Sololá	710	Panajachel	8	Panajachel	2	Febrero	2023-02-23T00:00:00	2024-11-08T08:00:00	2	Temperatura media	17.4
21430	7	Sololá	710	Panajachel	8	Panajachel	2	Febrero	2023-02-23T00:00:00	2024-11-08T08:00:00	4	Temperatura máxima	17.4
21431	7	Sololá	710	Panajachel	8	Panajachel	2	Febrero	2023-02-23T00:00:00	2024-11-08T08:00:00	3	Temperatura mínima	14.7
21432	7	Sololá	710	Panajachel	8	Panajachel	2	Febrero	2023-02-23T00:00:00	2024-11-08T08:00:00	5	Humedad	74
21433	7	Sololá	710	Panajachel	8	Panajachel	2	Febrero	2023-02-23T00:00:00	2024-11-08T08:00:00	6	Velocidad del viento	3.2
21434	7	Sololá	710	Panajachel	8	Panajachel	2	Febrero	2023-02-23T00:00:00	2024-11-08T08:00:00	7	Dirección del viento	3.22
21435	7	Sololá	710	Panajachel	8	Panajachel	2	Febrero	2023-02-23T00:00:00	2024-11-08T08:00:00	1	Precipitación	0
21436	7	Sololá	710	Panajachel	8	Panajachel	2	Febrero	2023-02-23T00:00:00	2024-11-08T08:00:00	8	Radiación solar	144
21437	7	Sololá	710	Panajachel	8	Panajachel	2	Febrero	2023-02-23T00:00:00	2024-11-08T09:00:00	2	Temperatura media	18.3
21438	7	Sololá	710	Panajachel	8	Panajachel	2	Febrero	2023-02-23T00:00:00	2024-11-08T09:00:00	4	Temperatura máxima	18.3
21439	7	Sololá	710	Panajachel	8	Panajachel	2	Febrero	2023-02-23T00:00:00	2024-11-08T09:00:00	3	Temperatura mínima	17.4
21440	7	Sololá	710	Panajachel	8	Panajachel	2	Febrero	2023-02-23T00:00:00	2024-11-08T09:00:00	5	Humedad	73
21441	7	Sololá	710	Panajachel	8	Panajachel	2	Febrero	2023-02-23T00:00:00	2024-11-08T09:00:00	6	Velocidad del viento	1.6
21442	7	Sololá	710	Panajachel	8	Panajachel	2	Febrero	2023-02-23T00:00:00	2024-11-08T09:00:00	7	Dirección del viento	1.61
21443	7	Sololá	710	Panajachel	8	Panajachel	2	Febrero	2023-02-23T00:00:00	2024-11-08T09:00:00	1	Precipitación	0
21444	7	Sololá	710	Panajachel	8	Panajachel	2	Febrero	2023-02-23T00:00:00	2024-11-08T09:00:00	8	Radiación solar	417
21445	7	Sololá	710	Panajachel	8	Panajachel	2	Febrero	2023-02-23T00:00:00	2024-11-08T10:00:00	2	Temperatura media	19.8
21446	7	Sololá	710	Panajachel	8	Panajachel	2	Febrero	2023-02-23T00:00:00	2024-11-08T10:00:00	4	Temperatura máxima	19.8
21447	7	Sololá	710	Panajachel	8	Panajachel	2	Febrero	2023-02-23T00:00:00	2024-11-08T10:00:00	3	Temperatura mínima	18.3
21448	7	Sololá	710	Panajachel	8	Panajachel	2	Febrero	2023-02-23T00:00:00	2024-11-08T10:00:00	5	Humedad	67
21449	7	Sololá	710	Panajachel	8	Panajachel	2	Febrero	2023-02-23T00:00:00	2024-11-08T10:00:00	6	Velocidad del viento	3.2
21450	7	Sololá	710	Panajachel	8	Panajachel	2	Febrero	2023-02-23T00:00:00	2024-11-08T10:00:00	7	Dirección del viento	3.22
21451	7	Sololá	710	Panajachel	8	Panajachel	2	Febrero	2023-02-23T00:00:00	2024-11-08T10:00:00	1	Precipitación	0
21452	7	Sololá	710	Panajachel	8	Panajachel	2	Febrero	2023-02-23T00:00:00	2024-11-08T10:00:00	8	Radiación solar	629
21453	7	Sololá	710	Panajachel	8	Panajachel	2	Febrero	2023-02-23T00:00:00	2024-11-08T11:00:00	2	Temperatura media	19.7
21454	7	Sololá	710	Panajachel	8	Panajachel	2	Febrero	2023-02-23T00:00:00	2024-11-08T11:00:00	4	Temperatura máxima	19.9
21455	7	Sololá	710	Panajachel	8	Panajachel	2	Febrero	2023-02-23T00:00:00	2024-11-08T11:00:00	3	Temperatura mínima	18.9
21456	7	Sololá	710	Panajachel	8	Panajachel	2	Febrero	2023-02-23T00:00:00	2024-11-08T11:00:00	5	Humedad	71
21457	7	Sololá	710	Panajachel	8	Panajachel	2	Febrero	2023-02-23T00:00:00	2024-11-08T11:00:00	6	Velocidad del viento	3.2
21458	7	Sololá	710	Panajachel	8	Panajachel	2	Febrero	2023-02-23T00:00:00	2024-11-08T11:00:00	7	Dirección del viento	3.22
21459	7	Sololá	710	Panajachel	8	Panajachel	2	Febrero	2023-02-23T00:00:00	2024-11-08T11:00:00	1	Precipitación	0
21460	7	Sololá	710	Panajachel	8	Panajachel	2	Febrero	2023-02-23T00:00:00	2024-11-08T11:00:00	8	Radiación solar	785
21461	7	Sololá	710	Panajachel	8	Panajachel	2	Febrero	2023-02-23T00:00:00	2024-11-08T12:00:00	2	Temperatura media	22.2
21462	7	Sololá	710	Panajachel	8	Panajachel	2	Febrero	2023-02-23T00:00:00	2024-11-08T12:00:00	4	Temperatura máxima	22.2
21463	7	Sololá	710	Panajachel	8	Panajachel	2	Febrero	2023-02-23T00:00:00	2024-11-08T12:00:00	3	Temperatura mínima	19.7
21464	7	Sololá	710	Panajachel	8	Panajachel	2	Febrero	2023-02-23T00:00:00	2024-11-08T12:00:00	5	Humedad	65
21465	7	Sololá	710	Panajachel	8	Panajachel	2	Febrero	2023-02-23T00:00:00	2024-11-08T12:00:00	6	Velocidad del viento	3.2
21466	7	Sololá	710	Panajachel	8	Panajachel	2	Febrero	2023-02-23T00:00:00	2024-11-08T12:00:00	7	Dirección del viento	3.22
21467	7	Sololá	710	Panajachel	8	Panajachel	2	Febrero	2023-02-23T00:00:00	2024-11-08T12:00:00	1	Precipitación	0
21468	7	Sololá	710	Panajachel	8	Panajachel	2	Febrero	2023-02-23T00:00:00	2024-11-08T12:00:00	8	Radiación solar	876
21469	7	Sololá	710	Panajachel	8	Panajachel	2	Febrero	2023-02-23T00:00:00	2024-11-08T13:00:00	2	Temperatura media	21.9
21470	7	Sololá	710	Panajachel	8	Panajachel	2	Febrero	2023-02-23T00:00:00	2024-11-08T13:00:00	4	Temperatura máxima	22.7
21471	7	Sololá	710	Panajachel	8	Panajachel	2	Febrero	2023-02-23T00:00:00	2024-11-08T13:00:00	3	Temperatura mínima	21.5
21472	7	Sololá	710	Panajachel	8	Panajachel	2	Febrero	2023-02-23T00:00:00	2024-11-08T13:00:00	5	Humedad	72
21473	7	Sololá	710	Panajachel	8	Panajachel	2	Febrero	2023-02-23T00:00:00	2024-11-08T13:00:00	6	Velocidad del viento	4.8
21474	7	Sololá	710	Panajachel	8	Panajachel	2	Febrero	2023-02-23T00:00:00	2024-11-08T13:00:00	7	Dirección del viento	4.83
21475	7	Sololá	710	Panajachel	8	Panajachel	2	Febrero	2023-02-23T00:00:00	2024-11-08T13:00:00	1	Precipitación	0
21476	7	Sololá	710	Panajachel	8	Panajachel	2	Febrero	2023-02-23T00:00:00	2024-11-08T13:00:00	8	Radiación solar	880
21477	7	Sololá	710	Panajachel	8	Panajachel	2	Febrero	2023-02-23T00:00:00	2024-11-08T14:00:00	2	Temperatura media	21.1
21478	7	Sololá	710	Panajachel	8	Panajachel	2	Febrero	2023-02-23T00:00:00	2024-11-08T14:00:00	4	Temperatura máxima	22.2
21479	7	Sololá	710	Panajachel	8	Panajachel	2	Febrero	2023-02-23T00:00:00	2024-11-08T14:00:00	3	Temperatura mínima	21.1
21480	7	Sololá	710	Panajachel	8	Panajachel	2	Febrero	2023-02-23T00:00:00	2024-11-08T14:00:00	5	Humedad	76
21481	7	Sololá	710	Panajachel	8	Panajachel	2	Febrero	2023-02-23T00:00:00	2024-11-08T14:00:00	6	Velocidad del viento	6.4
21482	7	Sololá	710	Panajachel	8	Panajachel	2	Febrero	2023-02-23T00:00:00	2024-11-08T14:00:00	7	Dirección del viento	6.44
21483	7	Sololá	710	Panajachel	8	Panajachel	2	Febrero	2023-02-23T00:00:00	2024-11-08T14:00:00	1	Precipitación	0
21484	7	Sololá	710	Panajachel	8	Panajachel	2	Febrero	2023-02-23T00:00:00	2024-11-08T14:00:00	8	Radiación solar	745
21485	7	Sololá	710	Panajachel	8	Panajachel	2	Febrero	2023-02-23T00:00:00	2024-11-08T15:00:00	2	Temperatura media	20.9
21486	7	Sololá	710	Panajachel	8	Panajachel	2	Febrero	2023-02-23T00:00:00	2024-11-08T15:00:00	4	Temperatura máxima	21.3
21487	7	Sololá	710	Panajachel	8	Panajachel	2	Febrero	2023-02-23T00:00:00	2024-11-08T15:00:00	3	Temperatura mínima	20.3
21488	7	Sololá	710	Panajachel	8	Panajachel	2	Febrero	2023-02-23T00:00:00	2024-11-08T15:00:00	5	Humedad	79
21489	7	Sololá	710	Panajachel	8	Panajachel	2	Febrero	2023-02-23T00:00:00	2024-11-08T15:00:00	6	Velocidad del viento	4.8
21490	7	Sololá	710	Panajachel	8	Panajachel	2	Febrero	2023-02-23T00:00:00	2024-11-08T15:00:00	7	Dirección del viento	4.83
21491	7	Sololá	710	Panajachel	8	Panajachel	2	Febrero	2023-02-23T00:00:00	2024-11-08T15:00:00	1	Precipitación	0
21492	7	Sololá	710	Panajachel	8	Panajachel	2	Febrero	2023-02-23T00:00:00	2024-11-08T15:00:00	8	Radiación solar	307
21493	7	Sololá	710	Panajachel	8	Panajachel	2	Febrero	2023-02-23T00:00:00	2024-11-08T16:00:00	2	Temperatura media	20.4
21494	7	Sololá	710	Panajachel	8	Panajachel	2	Febrero	2023-02-23T00:00:00	2024-11-08T16:00:00	4	Temperatura máxima	21.1
21495	7	Sololá	710	Panajachel	8	Panajachel	2	Febrero	2023-02-23T00:00:00	2024-11-08T16:00:00	3	Temperatura mínima	20.4
21496	7	Sololá	710	Panajachel	8	Panajachel	2	Febrero	2023-02-23T00:00:00	2024-11-08T16:00:00	5	Humedad	81
21497	7	Sololá	710	Panajachel	8	Panajachel	2	Febrero	2023-02-23T00:00:00	2024-11-08T16:00:00	6	Velocidad del viento	4.8
21498	7	Sololá	710	Panajachel	8	Panajachel	2	Febrero	2023-02-23T00:00:00	2024-11-08T16:00:00	7	Dirección del viento	4.83
21499	7	Sololá	710	Panajachel	8	Panajachel	2	Febrero	2023-02-23T00:00:00	2024-11-08T16:00:00	1	Precipitación	0
21500	7	Sololá	710	Panajachel	8	Panajachel	2	Febrero	2023-02-23T00:00:00	2024-11-08T16:00:00	8	Radiación solar	228
21501	7	Sololá	710	Panajachel	8	Panajachel	2	Febrero	2023-02-23T00:00:00	2024-11-08T17:00:00	2	Temperatura media	20.6
21502	7	Sololá	710	Panajachel	8	Panajachel	2	Febrero	2023-02-23T00:00:00	2024-11-08T17:00:00	4	Temperatura máxima	20.6
21503	7	Sololá	710	Panajachel	8	Panajachel	2	Febrero	2023-02-23T00:00:00	2024-11-08T17:00:00	3	Temperatura mínima	19.9
21504	7	Sololá	710	Panajachel	8	Panajachel	2	Febrero	2023-02-23T00:00:00	2024-11-08T17:00:00	5	Humedad	82
21505	7	Sololá	710	Panajachel	8	Panajachel	2	Febrero	2023-02-23T00:00:00	2024-11-08T17:00:00	6	Velocidad del viento	3.2
21506	7	Sololá	710	Panajachel	8	Panajachel	2	Febrero	2023-02-23T00:00:00	2024-11-08T17:00:00	7	Dirección del viento	3.22
21507	7	Sololá	710	Panajachel	8	Panajachel	2	Febrero	2023-02-23T00:00:00	2024-11-08T17:00:00	1	Precipitación	0
21508	7	Sololá	710	Panajachel	8	Panajachel	2	Febrero	2023-02-23T00:00:00	2024-11-08T17:00:00	8	Radiación solar	156
21509	7	Sololá	710	Panajachel	8	Panajachel	2	Febrero	2023-02-23T00:00:00	2024-11-08T18:00:00	2	Temperatura media	19.2
21510	7	Sololá	710	Panajachel	8	Panajachel	2	Febrero	2023-02-23T00:00:00	2024-11-08T18:00:00	4	Temperatura máxima	20.7
21511	7	Sololá	710	Panajachel	8	Panajachel	2	Febrero	2023-02-23T00:00:00	2024-11-08T18:00:00	3	Temperatura mínima	19.2
21512	7	Sololá	710	Panajachel	8	Panajachel	2	Febrero	2023-02-23T00:00:00	2024-11-08T18:00:00	5	Humedad	85
21513	7	Sololá	710	Panajachel	8	Panajachel	2	Febrero	2023-02-23T00:00:00	2024-11-08T18:00:00	6	Velocidad del viento	1.6
21514	7	Sololá	710	Panajachel	8	Panajachel	2	Febrero	2023-02-23T00:00:00	2024-11-08T18:00:00	7	Dirección del viento	1.61
21515	7	Sololá	710	Panajachel	8	Panajachel	2	Febrero	2023-02-23T00:00:00	2024-11-08T18:00:00	1	Precipitación	0
21516	7	Sololá	710	Panajachel	8	Panajachel	2	Febrero	2023-02-23T00:00:00	2024-11-08T18:00:00	8	Radiación solar	62
21517	7	Sololá	710	Panajachel	8	Panajachel	2	Febrero	2023-02-23T00:00:00	2024-11-08T19:00:00	2	Temperatura media	18.3
21518	7	Sololá	710	Panajachel	8	Panajachel	2	Febrero	2023-02-23T00:00:00	2024-11-08T19:00:00	4	Temperatura máxima	19.2
21519	7	Sololá	710	Panajachel	8	Panajachel	2	Febrero	2023-02-23T00:00:00	2024-11-08T19:00:00	3	Temperatura mínima	18.3
21520	7	Sololá	710	Panajachel	8	Panajachel	2	Febrero	2023-02-23T00:00:00	2024-11-08T19:00:00	5	Humedad	88
21521	7	Sololá	710	Panajachel	8	Panajachel	2	Febrero	2023-02-23T00:00:00	2024-11-08T19:00:00	6	Velocidad del viento	0
21522	7	Sololá	710	Panajachel	8	Panajachel	2	Febrero	2023-02-23T00:00:00	2024-11-08T19:00:00	7	Dirección del viento	0
21523	7	Sololá	710	Panajachel	8	Panajachel	2	Febrero	2023-02-23T00:00:00	2024-11-08T19:00:00	1	Precipitación	0
21524	7	Sololá	710	Panajachel	8	Panajachel	2	Febrero	2023-02-23T00:00:00	2024-11-08T19:00:00	8	Radiación solar	0
21525	7	Sololá	710	Panajachel	8	Panajachel	2	Febrero	2023-02-23T00:00:00	2024-11-08T20:00:00	2	Temperatura media	18.1
21526	7	Sololá	710	Panajachel	8	Panajachel	2	Febrero	2023-02-23T00:00:00	2024-11-08T20:00:00	4	Temperatura máxima	18.4
21527	7	Sololá	710	Panajachel	8	Panajachel	2	Febrero	2023-02-23T00:00:00	2024-11-08T20:00:00	3	Temperatura mínima	18.1
21528	7	Sololá	710	Panajachel	8	Panajachel	2	Febrero	2023-02-23T00:00:00	2024-11-08T20:00:00	5	Humedad	85
21529	7	Sololá	710	Panajachel	8	Panajachel	2	Febrero	2023-02-23T00:00:00	2024-11-08T20:00:00	6	Velocidad del viento	0
21530	7	Sololá	710	Panajachel	8	Panajachel	2	Febrero	2023-02-23T00:00:00	2024-11-08T20:00:00	7	Dirección del viento	0
21531	7	Sololá	710	Panajachel	8	Panajachel	2	Febrero	2023-02-23T00:00:00	2024-11-08T20:00:00	1	Precipitación	0
21532	7	Sololá	710	Panajachel	8	Panajachel	2	Febrero	2023-02-23T00:00:00	2024-11-08T20:00:00	8	Radiación solar	0
21533	7	Sololá	710	Panajachel	8	Panajachel	2	Febrero	2023-02-23T00:00:00	2024-11-08T21:00:00	2	Temperatura media	16.9
21534	7	Sololá	710	Panajachel	8	Panajachel	2	Febrero	2023-02-23T00:00:00	2024-11-08T21:00:00	4	Temperatura máxima	18.1
21535	7	Sololá	710	Panajachel	8	Panajachel	2	Febrero	2023-02-23T00:00:00	2024-11-08T21:00:00	3	Temperatura mínima	16.9
21536	7	Sololá	710	Panajachel	8	Panajachel	2	Febrero	2023-02-23T00:00:00	2024-11-08T21:00:00	5	Humedad	75
21537	7	Sololá	710	Panajachel	8	Panajachel	2	Febrero	2023-02-23T00:00:00	2024-11-08T21:00:00	6	Velocidad del viento	3.2
21538	7	Sololá	710	Panajachel	8	Panajachel	2	Febrero	2023-02-23T00:00:00	2024-11-08T21:00:00	7	Dirección del viento	3.22
21539	7	Sololá	710	Panajachel	8	Panajachel	2	Febrero	2023-02-23T00:00:00	2024-11-08T21:00:00	1	Precipitación	0
21540	7	Sololá	710	Panajachel	8	Panajachel	2	Febrero	2023-02-23T00:00:00	2024-11-08T21:00:00	8	Radiación solar	0
21541	7	Sololá	710	Panajachel	8	Panajachel	2	Febrero	2023-02-23T00:00:00	2024-11-08T22:00:00	2	Temperatura media	16.6
21542	7	Sololá	710	Panajachel	8	Panajachel	2	Febrero	2023-02-23T00:00:00	2024-11-08T22:00:00	4	Temperatura máxima	16.9
21543	7	Sololá	710	Panajachel	8	Panajachel	2	Febrero	2023-02-23T00:00:00	2024-11-08T22:00:00	3	Temperatura mínima	16.6
21544	7	Sololá	710	Panajachel	8	Panajachel	2	Febrero	2023-02-23T00:00:00	2024-11-08T22:00:00	5	Humedad	80
21545	7	Sololá	710	Panajachel	8	Panajachel	2	Febrero	2023-02-23T00:00:00	2024-11-08T22:00:00	6	Velocidad del viento	3.2
21546	7	Sololá	710	Panajachel	8	Panajachel	2	Febrero	2023-02-23T00:00:00	2024-11-08T22:00:00	7	Dirección del viento	3.22
21547	7	Sololá	710	Panajachel	8	Panajachel	2	Febrero	2023-02-23T00:00:00	2024-11-08T22:00:00	1	Precipitación	0
21548	7	Sololá	710	Panajachel	8	Panajachel	2	Febrero	2023-02-23T00:00:00	2024-11-08T22:00:00	8	Radiación solar	0
21549	7	Sololá	710	Panajachel	8	Panajachel	2	Febrero	2023-02-23T00:00:00	2024-11-08T23:00:00	2	Temperatura media	15.9
21550	7	Sololá	710	Panajachel	8	Panajachel	2	Febrero	2023-02-23T00:00:00	2024-11-08T23:00:00	4	Temperatura máxima	16.6
21551	7	Sololá	710	Panajachel	8	Panajachel	2	Febrero	2023-02-23T00:00:00	2024-11-08T23:00:00	3	Temperatura mínima	15.8
21552	7	Sololá	710	Panajachel	8	Panajachel	2	Febrero	2023-02-23T00:00:00	2024-11-08T23:00:00	5	Humedad	76
21553	7	Sololá	710	Panajachel	8	Panajachel	2	Febrero	2023-02-23T00:00:00	2024-11-08T23:00:00	6	Velocidad del viento	3.2
21554	7	Sololá	710	Panajachel	8	Panajachel	2	Febrero	2023-02-23T00:00:00	2024-11-08T23:00:00	7	Dirección del viento	3.22
21555	7	Sololá	710	Panajachel	8	Panajachel	2	Febrero	2023-02-23T00:00:00	2024-11-08T23:00:00	1	Precipitación	0
21556	7	Sololá	710	Panajachel	8	Panajachel	2	Febrero	2023-02-23T00:00:00	2024-11-08T23:00:00	8	Radiación solar	0
21557	7	Sololá	710	Panajachel	8	Panajachel	2	Febrero	2023-02-24T00:00:00	2024-11-08T00:00:00	2	Temperatura media	15.6
21558	7	Sololá	710	Panajachel	8	Panajachel	2	Febrero	2023-02-24T00:00:00	2024-11-08T00:00:00	4	Temperatura máxima	15.9
21559	7	Sololá	710	Panajachel	8	Panajachel	2	Febrero	2023-02-24T00:00:00	2024-11-08T00:00:00	3	Temperatura mínima	15.6
21560	7	Sololá	710	Panajachel	8	Panajachel	2	Febrero	2023-02-24T00:00:00	2024-11-08T00:00:00	5	Humedad	77
21561	7	Sololá	710	Panajachel	8	Panajachel	2	Febrero	2023-02-24T00:00:00	2024-11-08T00:00:00	6	Velocidad del viento	4.8
21562	7	Sololá	710	Panajachel	8	Panajachel	2	Febrero	2023-02-24T00:00:00	2024-11-08T00:00:00	7	Dirección del viento	4.83
21563	7	Sololá	710	Panajachel	8	Panajachel	2	Febrero	2023-02-24T00:00:00	2024-11-08T00:00:00	1	Precipitación	0
21564	7	Sololá	710	Panajachel	8	Panajachel	2	Febrero	2023-02-24T00:00:00	2024-11-08T00:00:00	8	Radiación solar	0
21565	7	Sololá	710	Panajachel	8	Panajachel	2	Febrero	2023-02-24T00:00:00	2024-11-08T01:00:00	2	Temperatura media	16.4
21566	7	Sololá	710	Panajachel	8	Panajachel	2	Febrero	2023-02-24T00:00:00	2024-11-08T01:00:00	4	Temperatura máxima	16.4
21567	7	Sololá	710	Panajachel	8	Panajachel	2	Febrero	2023-02-24T00:00:00	2024-11-08T01:00:00	3	Temperatura mínima	15.6
21568	7	Sololá	710	Panajachel	8	Panajachel	2	Febrero	2023-02-24T00:00:00	2024-11-08T01:00:00	5	Humedad	75
21569	7	Sololá	710	Panajachel	8	Panajachel	2	Febrero	2023-02-24T00:00:00	2024-11-08T01:00:00	6	Velocidad del viento	3.2
21570	7	Sololá	710	Panajachel	8	Panajachel	2	Febrero	2023-02-24T00:00:00	2024-11-08T01:00:00	7	Dirección del viento	3.22
21571	7	Sololá	710	Panajachel	8	Panajachel	2	Febrero	2023-02-24T00:00:00	2024-11-08T01:00:00	1	Precipitación	0
21572	7	Sololá	710	Panajachel	8	Panajachel	2	Febrero	2023-02-24T00:00:00	2024-11-08T01:00:00	8	Radiación solar	0
21573	7	Sololá	710	Panajachel	8	Panajachel	2	Febrero	2023-02-24T00:00:00	2024-11-08T02:00:00	2	Temperatura media	15.3
21574	7	Sololá	710	Panajachel	8	Panajachel	2	Febrero	2023-02-24T00:00:00	2024-11-08T02:00:00	4	Temperatura máxima	16.4
21575	7	Sololá	710	Panajachel	8	Panajachel	2	Febrero	2023-02-24T00:00:00	2024-11-08T02:00:00	3	Temperatura mínima	15.3
21576	7	Sololá	710	Panajachel	8	Panajachel	2	Febrero	2023-02-24T00:00:00	2024-11-08T02:00:00	5	Humedad	78
21577	7	Sololá	710	Panajachel	8	Panajachel	2	Febrero	2023-02-24T00:00:00	2024-11-08T02:00:00	6	Velocidad del viento	3.2
21578	7	Sololá	710	Panajachel	8	Panajachel	2	Febrero	2023-02-24T00:00:00	2024-11-08T02:00:00	7	Dirección del viento	3.22
21579	7	Sololá	710	Panajachel	8	Panajachel	2	Febrero	2023-02-24T00:00:00	2024-11-08T02:00:00	1	Precipitación	0
21580	7	Sololá	710	Panajachel	8	Panajachel	2	Febrero	2023-02-24T00:00:00	2024-11-08T02:00:00	8	Radiación solar	0
21581	7	Sololá	710	Panajachel	8	Panajachel	2	Febrero	2023-02-24T00:00:00	2024-11-08T03:00:00	2	Temperatura media	14.8
21582	7	Sololá	710	Panajachel	8	Panajachel	2	Febrero	2023-02-24T00:00:00	2024-11-08T03:00:00	4	Temperatura máxima	15.3
21583	7	Sololá	710	Panajachel	8	Panajachel	2	Febrero	2023-02-24T00:00:00	2024-11-08T03:00:00	3	Temperatura mínima	14.8
21584	7	Sololá	710	Panajachel	8	Panajachel	2	Febrero	2023-02-24T00:00:00	2024-11-08T03:00:00	5	Humedad	78
21585	7	Sololá	710	Panajachel	8	Panajachel	2	Febrero	2023-02-24T00:00:00	2024-11-08T03:00:00	6	Velocidad del viento	4.8
21586	7	Sololá	710	Panajachel	8	Panajachel	2	Febrero	2023-02-24T00:00:00	2024-11-08T03:00:00	7	Dirección del viento	4.83
21587	7	Sololá	710	Panajachel	8	Panajachel	2	Febrero	2023-02-24T00:00:00	2024-11-08T03:00:00	1	Precipitación	0
21588	7	Sololá	710	Panajachel	8	Panajachel	2	Febrero	2023-02-24T00:00:00	2024-11-08T03:00:00	8	Radiación solar	0
21589	7	Sololá	710	Panajachel	8	Panajachel	2	Febrero	2023-02-24T00:00:00	2024-11-08T04:00:00	2	Temperatura media	14.7
21590	7	Sololá	710	Panajachel	8	Panajachel	2	Febrero	2023-02-24T00:00:00	2024-11-08T04:00:00	4	Temperatura máxima	15
21591	7	Sololá	710	Panajachel	8	Panajachel	2	Febrero	2023-02-24T00:00:00	2024-11-08T04:00:00	3	Temperatura mínima	14.5
21592	7	Sololá	710	Panajachel	8	Panajachel	2	Febrero	2023-02-24T00:00:00	2024-11-08T04:00:00	5	Humedad	76
21593	7	Sololá	710	Panajachel	8	Panajachel	2	Febrero	2023-02-24T00:00:00	2024-11-08T04:00:00	6	Velocidad del viento	3.2
21594	7	Sololá	710	Panajachel	8	Panajachel	2	Febrero	2023-02-24T00:00:00	2024-11-08T04:00:00	7	Dirección del viento	3.22
21595	7	Sololá	710	Panajachel	8	Panajachel	2	Febrero	2023-02-24T00:00:00	2024-11-08T04:00:00	1	Precipitación	0
21596	7	Sololá	710	Panajachel	8	Panajachel	2	Febrero	2023-02-24T00:00:00	2024-11-08T04:00:00	8	Radiación solar	0
21597	7	Sololá	710	Panajachel	8	Panajachel	2	Febrero	2023-02-24T00:00:00	2024-11-08T05:00:00	2	Temperatura media	13.6
21598	7	Sololá	710	Panajachel	8	Panajachel	2	Febrero	2023-02-24T00:00:00	2024-11-08T05:00:00	4	Temperatura máxima	14.7
21599	7	Sololá	710	Panajachel	8	Panajachel	2	Febrero	2023-02-24T00:00:00	2024-11-08T05:00:00	3	Temperatura mínima	13.6
21600	7	Sololá	710	Panajachel	8	Panajachel	2	Febrero	2023-02-24T00:00:00	2024-11-08T05:00:00	5	Humedad	77
21601	7	Sololá	710	Panajachel	8	Panajachel	2	Febrero	2023-02-24T00:00:00	2024-11-08T05:00:00	6	Velocidad del viento	1.6
21602	7	Sololá	710	Panajachel	8	Panajachel	2	Febrero	2023-02-24T00:00:00	2024-11-08T05:00:00	7	Dirección del viento	1.61
21603	7	Sololá	710	Panajachel	8	Panajachel	2	Febrero	2023-02-24T00:00:00	2024-11-08T05:00:00	1	Precipitación	0
21604	7	Sololá	710	Panajachel	8	Panajachel	2	Febrero	2023-02-24T00:00:00	2024-11-08T05:00:00	8	Radiación solar	0
21605	7	Sololá	710	Panajachel	8	Panajachel	2	Febrero	2023-02-24T00:00:00	2024-11-08T06:00:00	2	Temperatura media	14.8
21606	7	Sololá	710	Panajachel	8	Panajachel	2	Febrero	2023-02-24T00:00:00	2024-11-08T06:00:00	4	Temperatura máxima	14.8
21607	7	Sololá	710	Panajachel	8	Panajachel	2	Febrero	2023-02-24T00:00:00	2024-11-08T06:00:00	3	Temperatura mínima	13.6
21608	7	Sololá	710	Panajachel	8	Panajachel	2	Febrero	2023-02-24T00:00:00	2024-11-08T06:00:00	5	Humedad	69
21609	7	Sololá	710	Panajachel	8	Panajachel	2	Febrero	2023-02-24T00:00:00	2024-11-08T06:00:00	6	Velocidad del viento	3.2
21610	7	Sololá	710	Panajachel	8	Panajachel	2	Febrero	2023-02-24T00:00:00	2024-11-08T06:00:00	7	Dirección del viento	3.22
21611	7	Sololá	710	Panajachel	8	Panajachel	2	Febrero	2023-02-24T00:00:00	2024-11-08T06:00:00	1	Precipitación	0
21612	7	Sololá	710	Panajachel	8	Panajachel	2	Febrero	2023-02-24T00:00:00	2024-11-08T06:00:00	8	Radiación solar	0
21613	7	Sololá	710	Panajachel	8	Panajachel	2	Febrero	2023-02-24T00:00:00	2024-11-08T07:00:00	2	Temperatura media	15.1
21614	7	Sololá	710	Panajachel	8	Panajachel	2	Febrero	2023-02-24T00:00:00	2024-11-08T07:00:00	4	Temperatura máxima	15.3
21615	7	Sololá	710	Panajachel	8	Panajachel	2	Febrero	2023-02-24T00:00:00	2024-11-08T07:00:00	3	Temperatura mínima	14.8
21616	7	Sololá	710	Panajachel	8	Panajachel	2	Febrero	2023-02-24T00:00:00	2024-11-08T07:00:00	5	Humedad	69
21617	7	Sololá	710	Panajachel	8	Panajachel	2	Febrero	2023-02-24T00:00:00	2024-11-08T07:00:00	6	Velocidad del viento	3.2
21618	7	Sololá	710	Panajachel	8	Panajachel	2	Febrero	2023-02-24T00:00:00	2024-11-08T07:00:00	7	Dirección del viento	3.22
21619	7	Sololá	710	Panajachel	8	Panajachel	2	Febrero	2023-02-24T00:00:00	2024-11-08T07:00:00	1	Precipitación	0
21620	7	Sololá	710	Panajachel	8	Panajachel	2	Febrero	2023-02-24T00:00:00	2024-11-08T07:00:00	8	Radiación solar	7
21621	7	Sololá	710	Panajachel	8	Panajachel	2	Febrero	2023-02-24T00:00:00	2024-11-08T08:00:00	2	Temperatura media	18.4
21622	7	Sololá	710	Panajachel	8	Panajachel	2	Febrero	2023-02-24T00:00:00	2024-11-08T08:00:00	4	Temperatura máxima	18.4
21623	7	Sololá	710	Panajachel	8	Panajachel	2	Febrero	2023-02-24T00:00:00	2024-11-08T08:00:00	3	Temperatura mínima	15.1
21624	7	Sololá	710	Panajachel	8	Panajachel	2	Febrero	2023-02-24T00:00:00	2024-11-08T08:00:00	5	Humedad	57
21625	7	Sololá	710	Panajachel	8	Panajachel	2	Febrero	2023-02-24T00:00:00	2024-11-08T08:00:00	6	Velocidad del viento	3.2
21626	7	Sololá	710	Panajachel	8	Panajachel	2	Febrero	2023-02-24T00:00:00	2024-11-08T08:00:00	7	Dirección del viento	3.22
21627	7	Sololá	710	Panajachel	8	Panajachel	2	Febrero	2023-02-24T00:00:00	2024-11-08T08:00:00	1	Precipitación	0
21628	7	Sololá	710	Panajachel	8	Panajachel	2	Febrero	2023-02-24T00:00:00	2024-11-08T08:00:00	8	Radiación solar	185
21629	7	Sololá	710	Panajachel	8	Panajachel	2	Febrero	2023-02-24T00:00:00	2024-11-08T09:00:00	2	Temperatura media	20.3
21630	7	Sololá	710	Panajachel	8	Panajachel	2	Febrero	2023-02-24T00:00:00	2024-11-08T09:00:00	4	Temperatura máxima	20.5
21631	7	Sololá	710	Panajachel	8	Panajachel	2	Febrero	2023-02-24T00:00:00	2024-11-08T09:00:00	3	Temperatura mínima	18.4
21632	7	Sololá	710	Panajachel	8	Panajachel	2	Febrero	2023-02-24T00:00:00	2024-11-08T09:00:00	5	Humedad	55
21633	7	Sololá	710	Panajachel	8	Panajachel	2	Febrero	2023-02-24T00:00:00	2024-11-08T09:00:00	6	Velocidad del viento	1.6
21634	7	Sololá	710	Panajachel	8	Panajachel	2	Febrero	2023-02-24T00:00:00	2024-11-08T09:00:00	7	Dirección del viento	1.61
21635	7	Sololá	710	Panajachel	8	Panajachel	2	Febrero	2023-02-24T00:00:00	2024-11-08T09:00:00	1	Precipitación	0
21636	7	Sololá	710	Panajachel	8	Panajachel	2	Febrero	2023-02-24T00:00:00	2024-11-08T09:00:00	8	Radiación solar	436
21637	7	Sololá	710	Panajachel	8	Panajachel	2	Febrero	2023-02-24T00:00:00	2024-11-08T10:00:00	2	Temperatura media	20.9
21638	7	Sololá	710	Panajachel	8	Panajachel	2	Febrero	2023-02-24T00:00:00	2024-11-08T10:00:00	4	Temperatura máxima	21
21639	7	Sololá	710	Panajachel	8	Panajachel	2	Febrero	2023-02-24T00:00:00	2024-11-08T10:00:00	3	Temperatura mínima	19.8
21640	7	Sololá	710	Panajachel	8	Panajachel	2	Febrero	2023-02-24T00:00:00	2024-11-08T10:00:00	5	Humedad	53
21641	7	Sololá	710	Panajachel	8	Panajachel	2	Febrero	2023-02-24T00:00:00	2024-11-08T10:00:00	6	Velocidad del viento	4.8
21642	7	Sololá	710	Panajachel	8	Panajachel	2	Febrero	2023-02-24T00:00:00	2024-11-08T10:00:00	7	Dirección del viento	4.83
21643	7	Sololá	710	Panajachel	8	Panajachel	2	Febrero	2023-02-24T00:00:00	2024-11-08T10:00:00	1	Precipitación	0
21644	7	Sololá	710	Panajachel	8	Panajachel	2	Febrero	2023-02-24T00:00:00	2024-11-08T10:00:00	8	Radiación solar	639
21645	7	Sololá	710	Panajachel	8	Panajachel	2	Febrero	2023-02-24T00:00:00	2024-11-08T11:00:00	2	Temperatura media	22.2
21646	7	Sololá	710	Panajachel	8	Panajachel	2	Febrero	2023-02-24T00:00:00	2024-11-08T11:00:00	4	Temperatura máxima	22.3
21647	7	Sololá	710	Panajachel	8	Panajachel	2	Febrero	2023-02-24T00:00:00	2024-11-08T11:00:00	3	Temperatura mínima	20.8
21648	7	Sololá	710	Panajachel	8	Panajachel	2	Febrero	2023-02-24T00:00:00	2024-11-08T11:00:00	5	Humedad	52
21649	7	Sololá	710	Panajachel	8	Panajachel	2	Febrero	2023-02-24T00:00:00	2024-11-08T11:00:00	6	Velocidad del viento	6.4
21650	7	Sololá	710	Panajachel	8	Panajachel	2	Febrero	2023-02-24T00:00:00	2024-11-08T11:00:00	7	Dirección del viento	6.44
21651	7	Sololá	710	Panajachel	8	Panajachel	2	Febrero	2023-02-24T00:00:00	2024-11-08T11:00:00	1	Precipitación	0
21652	7	Sololá	710	Panajachel	8	Panajachel	2	Febrero	2023-02-24T00:00:00	2024-11-08T11:00:00	8	Radiación solar	797
21653	7	Sololá	710	Panajachel	8	Panajachel	2	Febrero	2023-02-24T00:00:00	2024-11-08T12:00:00	2	Temperatura media	23.6
21654	7	Sololá	710	Panajachel	8	Panajachel	2	Febrero	2023-02-24T00:00:00	2024-11-08T12:00:00	4	Temperatura máxima	23.8
21655	7	Sololá	710	Panajachel	8	Panajachel	2	Febrero	2023-02-24T00:00:00	2024-11-08T12:00:00	3	Temperatura mínima	22.2
21656	7	Sololá	710	Panajachel	8	Panajachel	2	Febrero	2023-02-24T00:00:00	2024-11-08T12:00:00	5	Humedad	61
21657	7	Sololá	710	Panajachel	8	Panajachel	2	Febrero	2023-02-24T00:00:00	2024-11-08T12:00:00	6	Velocidad del viento	3.2
21658	7	Sololá	710	Panajachel	8	Panajachel	2	Febrero	2023-02-24T00:00:00	2024-11-08T12:00:00	7	Dirección del viento	3.22
21659	7	Sololá	710	Panajachel	8	Panajachel	2	Febrero	2023-02-24T00:00:00	2024-11-08T12:00:00	1	Precipitación	0
21660	7	Sololá	710	Panajachel	8	Panajachel	2	Febrero	2023-02-24T00:00:00	2024-11-08T12:00:00	8	Radiación solar	881
21661	7	Sololá	710	Panajachel	8	Panajachel	2	Febrero	2023-02-24T00:00:00	2024-11-08T13:00:00	2	Temperatura media	22.6
21662	7	Sololá	710	Panajachel	8	Panajachel	2	Febrero	2023-02-24T00:00:00	2024-11-08T13:00:00	4	Temperatura máxima	23.8
21663	7	Sololá	710	Panajachel	8	Panajachel	2	Febrero	2023-02-24T00:00:00	2024-11-08T13:00:00	3	Temperatura mínima	22.4
21664	7	Sololá	710	Panajachel	8	Panajachel	2	Febrero	2023-02-24T00:00:00	2024-11-08T13:00:00	5	Humedad	71
21665	7	Sololá	710	Panajachel	8	Panajachel	2	Febrero	2023-02-24T00:00:00	2024-11-08T13:00:00	6	Velocidad del viento	6.4
21666	7	Sololá	710	Panajachel	8	Panajachel	2	Febrero	2023-02-24T00:00:00	2024-11-08T13:00:00	7	Dirección del viento	6.44
21667	7	Sololá	710	Panajachel	8	Panajachel	2	Febrero	2023-02-24T00:00:00	2024-11-08T13:00:00	1	Precipitación	0
21668	7	Sololá	710	Panajachel	8	Panajachel	2	Febrero	2023-02-24T00:00:00	2024-11-08T13:00:00	8	Radiación solar	886
21669	7	Sololá	710	Panajachel	8	Panajachel	2	Febrero	2023-02-24T00:00:00	2024-11-08T14:00:00	2	Temperatura media	22.8
21670	7	Sololá	710	Panajachel	8	Panajachel	2	Febrero	2023-02-24T00:00:00	2024-11-08T14:00:00	4	Temperatura máxima	23.1
21671	7	Sololá	710	Panajachel	8	Panajachel	2	Febrero	2023-02-24T00:00:00	2024-11-08T14:00:00	3	Temperatura mínima	22.3
21672	7	Sololá	710	Panajachel	8	Panajachel	2	Febrero	2023-02-24T00:00:00	2024-11-08T14:00:00	5	Humedad	72
21673	7	Sololá	710	Panajachel	8	Panajachel	2	Febrero	2023-02-24T00:00:00	2024-11-08T14:00:00	6	Velocidad del viento	6.4
21674	7	Sololá	710	Panajachel	8	Panajachel	2	Febrero	2023-02-24T00:00:00	2024-11-08T14:00:00	7	Dirección del viento	6.44
21675	7	Sololá	710	Panajachel	8	Panajachel	2	Febrero	2023-02-24T00:00:00	2024-11-08T14:00:00	1	Precipitación	0
21676	7	Sololá	710	Panajachel	8	Panajachel	2	Febrero	2023-02-24T00:00:00	2024-11-08T14:00:00	8	Radiación solar	821
21677	7	Sololá	710	Panajachel	8	Panajachel	2	Febrero	2023-02-24T00:00:00	2024-11-08T15:00:00	2	Temperatura media	22.4
21678	7	Sololá	710	Panajachel	8	Panajachel	2	Febrero	2023-02-24T00:00:00	2024-11-08T15:00:00	4	Temperatura máxima	22.8
21679	7	Sololá	710	Panajachel	8	Panajachel	2	Febrero	2023-02-24T00:00:00	2024-11-08T15:00:00	3	Temperatura mínima	22.3
21680	7	Sololá	710	Panajachel	8	Panajachel	2	Febrero	2023-02-24T00:00:00	2024-11-08T15:00:00	5	Humedad	72
21681	7	Sololá	710	Panajachel	8	Panajachel	2	Febrero	2023-02-24T00:00:00	2024-11-08T15:00:00	6	Velocidad del viento	6.4
21682	7	Sololá	710	Panajachel	8	Panajachel	2	Febrero	2023-02-24T00:00:00	2024-11-08T15:00:00	7	Dirección del viento	6.44
21683	7	Sololá	710	Panajachel	8	Panajachel	2	Febrero	2023-02-24T00:00:00	2024-11-08T15:00:00	1	Precipitación	0
21684	7	Sololá	710	Panajachel	8	Panajachel	2	Febrero	2023-02-24T00:00:00	2024-11-08T15:00:00	8	Radiación solar	686
21685	7	Sololá	710	Panajachel	8	Panajachel	2	Febrero	2023-02-24T00:00:00	2024-11-08T16:00:00	2	Temperatura media	22.5
21686	7	Sololá	710	Panajachel	8	Panajachel	2	Febrero	2023-02-24T00:00:00	2024-11-08T16:00:00	4	Temperatura máxima	22.9
21687	7	Sololá	710	Panajachel	8	Panajachel	2	Febrero	2023-02-24T00:00:00	2024-11-08T16:00:00	3	Temperatura mínima	22
21688	7	Sololá	710	Panajachel	8	Panajachel	2	Febrero	2023-02-24T00:00:00	2024-11-08T16:00:00	5	Humedad	73
21689	7	Sololá	710	Panajachel	8	Panajachel	2	Febrero	2023-02-24T00:00:00	2024-11-08T16:00:00	6	Velocidad del viento	4.8
21690	7	Sololá	710	Panajachel	8	Panajachel	2	Febrero	2023-02-24T00:00:00	2024-11-08T16:00:00	7	Dirección del viento	4.83
21691	7	Sololá	710	Panajachel	8	Panajachel	2	Febrero	2023-02-24T00:00:00	2024-11-08T16:00:00	1	Precipitación	0
21692	7	Sololá	710	Panajachel	8	Panajachel	2	Febrero	2023-02-24T00:00:00	2024-11-08T16:00:00	8	Radiación solar	471
21693	7	Sololá	710	Panajachel	8	Panajachel	2	Febrero	2023-02-24T00:00:00	2024-11-08T17:00:00	2	Temperatura media	21.7
21694	7	Sololá	710	Panajachel	8	Panajachel	2	Febrero	2023-02-24T00:00:00	2024-11-08T17:00:00	4	Temperatura máxima	23.2
21695	7	Sololá	710	Panajachel	8	Panajachel	2	Febrero	2023-02-24T00:00:00	2024-11-08T17:00:00	3	Temperatura mínima	21.7
21696	7	Sololá	710	Panajachel	8	Panajachel	2	Febrero	2023-02-24T00:00:00	2024-11-08T17:00:00	5	Humedad	79
21697	7	Sololá	710	Panajachel	8	Panajachel	2	Febrero	2023-02-24T00:00:00	2024-11-08T17:00:00	6	Velocidad del viento	3.2
21698	7	Sololá	710	Panajachel	8	Panajachel	2	Febrero	2023-02-24T00:00:00	2024-11-08T17:00:00	7	Dirección del viento	3.22
21699	7	Sololá	710	Panajachel	8	Panajachel	2	Febrero	2023-02-24T00:00:00	2024-11-08T17:00:00	1	Precipitación	0
21700	7	Sololá	710	Panajachel	8	Panajachel	2	Febrero	2023-02-24T00:00:00	2024-11-08T17:00:00	8	Radiación solar	298
21701	7	Sololá	710	Panajachel	8	Panajachel	2	Febrero	2023-02-24T00:00:00	2024-11-08T18:00:00	2	Temperatura media	20.1
21702	7	Sololá	710	Panajachel	8	Panajachel	2	Febrero	2023-02-24T00:00:00	2024-11-08T18:00:00	4	Temperatura máxima	21.7
21703	7	Sololá	710	Panajachel	8	Panajachel	2	Febrero	2023-02-24T00:00:00	2024-11-08T18:00:00	3	Temperatura mínima	20.1
21704	7	Sololá	710	Panajachel	8	Panajachel	2	Febrero	2023-02-24T00:00:00	2024-11-08T18:00:00	5	Humedad	83
21705	7	Sololá	710	Panajachel	8	Panajachel	2	Febrero	2023-02-24T00:00:00	2024-11-08T18:00:00	6	Velocidad del viento	3.2
21706	7	Sololá	710	Panajachel	8	Panajachel	2	Febrero	2023-02-24T00:00:00	2024-11-08T18:00:00	7	Dirección del viento	3.22
21707	7	Sololá	710	Panajachel	8	Panajachel	2	Febrero	2023-02-24T00:00:00	2024-11-08T18:00:00	1	Precipitación	0
21708	7	Sololá	710	Panajachel	8	Panajachel	2	Febrero	2023-02-24T00:00:00	2024-11-08T18:00:00	8	Radiación solar	87
21709	7	Sololá	710	Panajachel	8	Panajachel	2	Febrero	2023-02-24T00:00:00	2024-11-08T19:00:00	2	Temperatura media	19.2
21710	7	Sololá	710	Panajachel	8	Panajachel	2	Febrero	2023-02-24T00:00:00	2024-11-08T19:00:00	4	Temperatura máxima	20.1
21711	7	Sololá	710	Panajachel	8	Panajachel	2	Febrero	2023-02-24T00:00:00	2024-11-08T19:00:00	3	Temperatura mínima	19.2
21712	7	Sololá	710	Panajachel	8	Panajachel	2	Febrero	2023-02-24T00:00:00	2024-11-08T19:00:00	5	Humedad	88
21713	7	Sololá	710	Panajachel	8	Panajachel	2	Febrero	2023-02-24T00:00:00	2024-11-08T19:00:00	6	Velocidad del viento	0
21714	7	Sololá	710	Panajachel	8	Panajachel	2	Febrero	2023-02-24T00:00:00	2024-11-08T19:00:00	7	Dirección del viento	0
21715	7	Sololá	710	Panajachel	8	Panajachel	2	Febrero	2023-02-24T00:00:00	2024-11-08T19:00:00	1	Precipitación	0
21716	7	Sololá	710	Panajachel	8	Panajachel	2	Febrero	2023-02-24T00:00:00	2024-11-08T19:00:00	8	Radiación solar	0
21717	7	Sololá	710	Panajachel	8	Panajachel	2	Febrero	2023-02-24T00:00:00	2024-11-08T20:00:00	2	Temperatura media	18.1
21718	7	Sololá	710	Panajachel	8	Panajachel	2	Febrero	2023-02-24T00:00:00	2024-11-08T20:00:00	4	Temperatura máxima	19.2
21719	7	Sololá	710	Panajachel	8	Panajachel	2	Febrero	2023-02-24T00:00:00	2024-11-08T20:00:00	3	Temperatura mínima	18.1
21720	7	Sololá	710	Panajachel	8	Panajachel	2	Febrero	2023-02-24T00:00:00	2024-11-08T20:00:00	5	Humedad	80
21721	7	Sololá	710	Panajachel	8	Panajachel	2	Febrero	2023-02-24T00:00:00	2024-11-08T20:00:00	6	Velocidad del viento	0
21722	7	Sololá	710	Panajachel	8	Panajachel	2	Febrero	2023-02-24T00:00:00	2024-11-08T20:00:00	7	Dirección del viento	0
21723	7	Sololá	710	Panajachel	8	Panajachel	2	Febrero	2023-02-24T00:00:00	2024-11-08T20:00:00	1	Precipitación	0
21724	7	Sololá	710	Panajachel	8	Panajachel	2	Febrero	2023-02-24T00:00:00	2024-11-08T20:00:00	8	Radiación solar	0
21725	7	Sololá	710	Panajachel	8	Panajachel	2	Febrero	2023-02-24T00:00:00	2024-11-08T21:00:00	2	Temperatura media	19.7
21726	7	Sololá	710	Panajachel	8	Panajachel	2	Febrero	2023-02-24T00:00:00	2024-11-08T21:00:00	4	Temperatura máxima	19.7
21727	7	Sololá	710	Panajachel	8	Panajachel	2	Febrero	2023-02-24T00:00:00	2024-11-08T21:00:00	3	Temperatura mínima	17.8
21728	7	Sololá	710	Panajachel	8	Panajachel	2	Febrero	2023-02-24T00:00:00	2024-11-08T21:00:00	5	Humedad	69
21729	7	Sololá	710	Panajachel	8	Panajachel	2	Febrero	2023-02-24T00:00:00	2024-11-08T21:00:00	6	Velocidad del viento	3.2
21730	7	Sololá	710	Panajachel	8	Panajachel	2	Febrero	2023-02-24T00:00:00	2024-11-08T21:00:00	7	Dirección del viento	3.22
21731	7	Sololá	710	Panajachel	8	Panajachel	2	Febrero	2023-02-24T00:00:00	2024-11-08T21:00:00	1	Precipitación	0
21732	7	Sololá	710	Panajachel	8	Panajachel	2	Febrero	2023-02-24T00:00:00	2024-11-08T21:00:00	8	Radiación solar	0
21733	7	Sololá	710	Panajachel	8	Panajachel	2	Febrero	2023-02-24T00:00:00	2024-11-08T22:00:00	2	Temperatura media	19.7
21734	7	Sololá	710	Panajachel	8	Panajachel	2	Febrero	2023-02-24T00:00:00	2024-11-08T22:00:00	4	Temperatura máxima	20.3
21735	7	Sololá	710	Panajachel	8	Panajachel	2	Febrero	2023-02-24T00:00:00	2024-11-08T22:00:00	3	Temperatura mínima	19.6
21736	7	Sololá	710	Panajachel	8	Panajachel	2	Febrero	2023-02-24T00:00:00	2024-11-08T22:00:00	5	Humedad	69
21737	7	Sololá	710	Panajachel	8	Panajachel	2	Febrero	2023-02-24T00:00:00	2024-11-08T22:00:00	6	Velocidad del viento	6.4
21738	7	Sololá	710	Panajachel	8	Panajachel	2	Febrero	2023-02-24T00:00:00	2024-11-08T22:00:00	7	Dirección del viento	6.44
21739	7	Sololá	710	Panajachel	8	Panajachel	2	Febrero	2023-02-24T00:00:00	2024-11-08T22:00:00	1	Precipitación	0
21740	7	Sololá	710	Panajachel	8	Panajachel	2	Febrero	2023-02-24T00:00:00	2024-11-08T22:00:00	8	Radiación solar	0
21741	7	Sololá	710	Panajachel	8	Panajachel	2	Febrero	2023-02-24T00:00:00	2024-11-08T23:00:00	2	Temperatura media	18.7
21742	7	Sololá	710	Panajachel	8	Panajachel	2	Febrero	2023-02-24T00:00:00	2024-11-08T23:00:00	4	Temperatura máxima	19.7
21743	7	Sololá	710	Panajachel	8	Panajachel	2	Febrero	2023-02-24T00:00:00	2024-11-08T23:00:00	3	Temperatura mínima	18.7
21744	7	Sololá	710	Panajachel	8	Panajachel	2	Febrero	2023-02-24T00:00:00	2024-11-08T23:00:00	5	Humedad	71
21745	7	Sololá	710	Panajachel	8	Panajachel	2	Febrero	2023-02-24T00:00:00	2024-11-08T23:00:00	6	Velocidad del viento	4.8
21746	7	Sololá	710	Panajachel	8	Panajachel	2	Febrero	2023-02-24T00:00:00	2024-11-08T23:00:00	7	Dirección del viento	4.83
21747	7	Sololá	710	Panajachel	8	Panajachel	2	Febrero	2023-02-24T00:00:00	2024-11-08T23:00:00	1	Precipitación	0
21748	7	Sololá	710	Panajachel	8	Panajachel	2	Febrero	2023-02-24T00:00:00	2024-11-08T23:00:00	8	Radiación solar	0
21749	7	Sololá	710	Panajachel	8	Panajachel	2	Febrero	2023-02-25T00:00:00	2024-11-08T00:00:00	2	Temperatura media	18.3
21750	7	Sololá	710	Panajachel	8	Panajachel	2	Febrero	2023-02-25T00:00:00	2024-11-08T00:00:00	4	Temperatura máxima	18.8
21751	7	Sololá	710	Panajachel	8	Panajachel	2	Febrero	2023-02-25T00:00:00	2024-11-08T00:00:00	3	Temperatura mínima	18.3
21752	7	Sololá	710	Panajachel	8	Panajachel	2	Febrero	2023-02-25T00:00:00	2024-11-08T00:00:00	5	Humedad	72
21753	7	Sololá	710	Panajachel	8	Panajachel	2	Febrero	2023-02-25T00:00:00	2024-11-08T00:00:00	6	Velocidad del viento	8
21754	7	Sololá	710	Panajachel	8	Panajachel	2	Febrero	2023-02-25T00:00:00	2024-11-08T00:00:00	7	Dirección del viento	8.05
21755	7	Sololá	710	Panajachel	8	Panajachel	2	Febrero	2023-02-25T00:00:00	2024-11-08T00:00:00	1	Precipitación	0
21756	7	Sololá	710	Panajachel	8	Panajachel	2	Febrero	2023-02-25T00:00:00	2024-11-08T00:00:00	8	Radiación solar	0
21757	7	Sololá	710	Panajachel	8	Panajachel	2	Febrero	2023-02-25T00:00:00	2024-11-08T01:00:00	2	Temperatura media	18.1
21758	7	Sololá	710	Panajachel	8	Panajachel	2	Febrero	2023-02-25T00:00:00	2024-11-08T01:00:00	4	Temperatura máxima	18.5
21759	7	Sololá	710	Panajachel	8	Panajachel	2	Febrero	2023-02-25T00:00:00	2024-11-08T01:00:00	3	Temperatura mínima	18
21760	7	Sololá	710	Panajachel	8	Panajachel	2	Febrero	2023-02-25T00:00:00	2024-11-08T01:00:00	5	Humedad	68
21761	7	Sololá	710	Panajachel	8	Panajachel	2	Febrero	2023-02-25T00:00:00	2024-11-08T01:00:00	6	Velocidad del viento	6.4
21762	7	Sololá	710	Panajachel	8	Panajachel	2	Febrero	2023-02-25T00:00:00	2024-11-08T01:00:00	7	Dirección del viento	6.44
21763	7	Sololá	710	Panajachel	8	Panajachel	2	Febrero	2023-02-25T00:00:00	2024-11-08T01:00:00	1	Precipitación	0
21764	7	Sololá	710	Panajachel	8	Panajachel	2	Febrero	2023-02-25T00:00:00	2024-11-08T01:00:00	8	Radiación solar	0
21765	7	Sololá	710	Panajachel	8	Panajachel	2	Febrero	2023-02-25T00:00:00	2024-11-08T02:00:00	2	Temperatura media	17.7
21766	7	Sololá	710	Panajachel	8	Panajachel	2	Febrero	2023-02-25T00:00:00	2024-11-08T02:00:00	4	Temperatura máxima	18.1
21767	7	Sololá	710	Panajachel	8	Panajachel	2	Febrero	2023-02-25T00:00:00	2024-11-08T02:00:00	3	Temperatura mínima	16.9
21768	7	Sololá	710	Panajachel	8	Panajachel	2	Febrero	2023-02-25T00:00:00	2024-11-08T02:00:00	5	Humedad	68
21769	7	Sololá	710	Panajachel	8	Panajachel	2	Febrero	2023-02-25T00:00:00	2024-11-08T02:00:00	6	Velocidad del viento	1.6
21770	7	Sololá	710	Panajachel	8	Panajachel	2	Febrero	2023-02-25T00:00:00	2024-11-08T02:00:00	7	Dirección del viento	1.61
21771	7	Sololá	710	Panajachel	8	Panajachel	2	Febrero	2023-02-25T00:00:00	2024-11-08T02:00:00	1	Precipitación	0
21772	7	Sololá	710	Panajachel	8	Panajachel	2	Febrero	2023-02-25T00:00:00	2024-11-08T02:00:00	8	Radiación solar	0
21773	7	Sololá	710	Panajachel	8	Panajachel	2	Febrero	2023-02-25T00:00:00	2024-11-08T03:00:00	2	Temperatura media	16.7
21774	7	Sololá	710	Panajachel	8	Panajachel	2	Febrero	2023-02-25T00:00:00	2024-11-08T03:00:00	4	Temperatura máxima	17.7
21775	7	Sololá	710	Panajachel	8	Panajachel	2	Febrero	2023-02-25T00:00:00	2024-11-08T03:00:00	3	Temperatura mínima	16.7
21776	7	Sololá	710	Panajachel	8	Panajachel	2	Febrero	2023-02-25T00:00:00	2024-11-08T03:00:00	5	Humedad	70
21777	7	Sololá	710	Panajachel	8	Panajachel	2	Febrero	2023-02-25T00:00:00	2024-11-08T03:00:00	6	Velocidad del viento	1.6
21778	7	Sololá	710	Panajachel	8	Panajachel	2	Febrero	2023-02-25T00:00:00	2024-11-08T03:00:00	7	Dirección del viento	1.61
21779	7	Sololá	710	Panajachel	8	Panajachel	2	Febrero	2023-02-25T00:00:00	2024-11-08T03:00:00	1	Precipitación	0
21780	7	Sololá	710	Panajachel	8	Panajachel	2	Febrero	2023-02-25T00:00:00	2024-11-08T03:00:00	8	Radiación solar	0
21781	7	Sololá	710	Panajachel	8	Panajachel	2	Febrero	2023-02-25T00:00:00	2024-11-08T04:00:00	2	Temperatura media	16.7
21782	7	Sololá	710	Panajachel	8	Panajachel	2	Febrero	2023-02-25T00:00:00	2024-11-08T04:00:00	4	Temperatura máxima	17.3
21783	7	Sololá	710	Panajachel	8	Panajachel	2	Febrero	2023-02-25T00:00:00	2024-11-08T04:00:00	3	Temperatura mínima	16.6
21784	7	Sololá	710	Panajachel	8	Panajachel	2	Febrero	2023-02-25T00:00:00	2024-11-08T04:00:00	5	Humedad	67
21785	7	Sololá	710	Panajachel	8	Panajachel	2	Febrero	2023-02-25T00:00:00	2024-11-08T04:00:00	6	Velocidad del viento	1.6
21786	7	Sololá	710	Panajachel	8	Panajachel	2	Febrero	2023-02-25T00:00:00	2024-11-08T04:00:00	7	Dirección del viento	1.61
21787	7	Sololá	710	Panajachel	8	Panajachel	2	Febrero	2023-02-25T00:00:00	2024-11-08T04:00:00	1	Precipitación	0
21788	7	Sololá	710	Panajachel	8	Panajachel	2	Febrero	2023-02-25T00:00:00	2024-11-08T04:00:00	8	Radiación solar	0
21789	7	Sololá	710	Panajachel	8	Panajachel	2	Febrero	2023-02-25T00:00:00	2024-11-08T05:00:00	2	Temperatura media	16.7
21790	7	Sololá	710	Panajachel	8	Panajachel	2	Febrero	2023-02-25T00:00:00	2024-11-08T05:00:00	4	Temperatura máxima	16.9
21791	7	Sololá	710	Panajachel	8	Panajachel	2	Febrero	2023-02-25T00:00:00	2024-11-08T05:00:00	3	Temperatura mínima	16.1
21792	7	Sololá	710	Panajachel	8	Panajachel	2	Febrero	2023-02-25T00:00:00	2024-11-08T05:00:00	5	Humedad	69
21793	7	Sololá	710	Panajachel	8	Panajachel	2	Febrero	2023-02-25T00:00:00	2024-11-08T05:00:00	6	Velocidad del viento	1.6
21794	7	Sololá	710	Panajachel	8	Panajachel	2	Febrero	2023-02-25T00:00:00	2024-11-08T05:00:00	7	Dirección del viento	1.61
21795	7	Sololá	710	Panajachel	8	Panajachel	2	Febrero	2023-02-25T00:00:00	2024-11-08T05:00:00	1	Precipitación	0
21796	7	Sololá	710	Panajachel	8	Panajachel	2	Febrero	2023-02-25T00:00:00	2024-11-08T05:00:00	8	Radiación solar	0
21797	7	Sololá	710	Panajachel	8	Panajachel	2	Febrero	2023-02-25T00:00:00	2024-11-08T06:00:00	2	Temperatura media	15.4
21798	7	Sololá	710	Panajachel	8	Panajachel	2	Febrero	2023-02-25T00:00:00	2024-11-08T06:00:00	4	Temperatura máxima	16.8
21799	7	Sololá	710	Panajachel	8	Panajachel	2	Febrero	2023-02-25T00:00:00	2024-11-08T06:00:00	3	Temperatura mínima	15.4
21800	7	Sololá	710	Panajachel	8	Panajachel	2	Febrero	2023-02-25T00:00:00	2024-11-08T06:00:00	5	Humedad	73
21801	7	Sololá	710	Panajachel	8	Panajachel	2	Febrero	2023-02-25T00:00:00	2024-11-08T06:00:00	6	Velocidad del viento	0
21802	7	Sololá	710	Panajachel	8	Panajachel	2	Febrero	2023-02-25T00:00:00	2024-11-08T06:00:00	7	Dirección del viento	0
21803	7	Sololá	710	Panajachel	8	Panajachel	2	Febrero	2023-02-25T00:00:00	2024-11-08T06:00:00	1	Precipitación	0
21804	7	Sololá	710	Panajachel	8	Panajachel	2	Febrero	2023-02-25T00:00:00	2024-11-08T06:00:00	8	Radiación solar	0
21805	7	Sololá	710	Panajachel	8	Panajachel	2	Febrero	2023-02-25T00:00:00	2024-11-08T07:00:00	2	Temperatura media	15.3
21806	7	Sololá	710	Panajachel	8	Panajachel	2	Febrero	2023-02-25T00:00:00	2024-11-08T07:00:00	4	Temperatura máxima	15.6
21807	7	Sololá	710	Panajachel	8	Panajachel	2	Febrero	2023-02-25T00:00:00	2024-11-08T07:00:00	3	Temperatura mínima	15.1
21808	7	Sololá	710	Panajachel	8	Panajachel	2	Febrero	2023-02-25T00:00:00	2024-11-08T07:00:00	5	Humedad	74
21809	7	Sololá	710	Panajachel	8	Panajachel	2	Febrero	2023-02-25T00:00:00	2024-11-08T07:00:00	6	Velocidad del viento	0
21810	7	Sololá	710	Panajachel	8	Panajachel	2	Febrero	2023-02-25T00:00:00	2024-11-08T07:00:00	7	Dirección del viento	0
21811	7	Sololá	710	Panajachel	8	Panajachel	2	Febrero	2023-02-25T00:00:00	2024-11-08T07:00:00	1	Precipitación	0
21812	7	Sololá	710	Panajachel	8	Panajachel	2	Febrero	2023-02-25T00:00:00	2024-11-08T07:00:00	8	Radiación solar	7
21813	7	Sololá	710	Panajachel	8	Panajachel	2	Febrero	2023-02-25T00:00:00	2024-11-08T08:00:00	2	Temperatura media	18.3
21814	7	Sololá	710	Panajachel	8	Panajachel	2	Febrero	2023-02-25T00:00:00	2024-11-08T08:00:00	4	Temperatura máxima	18.3
21815	7	Sololá	710	Panajachel	8	Panajachel	2	Febrero	2023-02-25T00:00:00	2024-11-08T08:00:00	3	Temperatura mínima	15.3
21816	7	Sololá	710	Panajachel	8	Panajachel	2	Febrero	2023-02-25T00:00:00	2024-11-08T08:00:00	5	Humedad	65
21817	7	Sololá	710	Panajachel	8	Panajachel	2	Febrero	2023-02-25T00:00:00	2024-11-08T08:00:00	6	Velocidad del viento	0
21818	7	Sololá	710	Panajachel	8	Panajachel	2	Febrero	2023-02-25T00:00:00	2024-11-08T08:00:00	7	Dirección del viento	0
21819	7	Sololá	710	Panajachel	8	Panajachel	2	Febrero	2023-02-25T00:00:00	2024-11-08T08:00:00	1	Precipitación	0
21820	7	Sololá	710	Panajachel	8	Panajachel	2	Febrero	2023-02-25T00:00:00	2024-11-08T08:00:00	8	Radiación solar	181
21821	7	Sololá	710	Panajachel	8	Panajachel	2	Febrero	2023-02-25T00:00:00	2024-11-08T09:00:00	2	Temperatura media	18.8
21822	7	Sololá	710	Panajachel	8	Panajachel	2	Febrero	2023-02-25T00:00:00	2024-11-08T09:00:00	4	Temperatura máxima	19.2
21823	7	Sololá	710	Panajachel	8	Panajachel	2	Febrero	2023-02-25T00:00:00	2024-11-08T09:00:00	3	Temperatura mínima	18.3
21824	7	Sololá	710	Panajachel	8	Panajachel	2	Febrero	2023-02-25T00:00:00	2024-11-08T09:00:00	5	Humedad	71
21825	7	Sololá	710	Panajachel	8	Panajachel	2	Febrero	2023-02-25T00:00:00	2024-11-08T09:00:00	6	Velocidad del viento	1.6
21826	7	Sololá	710	Panajachel	8	Panajachel	2	Febrero	2023-02-25T00:00:00	2024-11-08T09:00:00	7	Dirección del viento	1.61
21827	7	Sololá	710	Panajachel	8	Panajachel	2	Febrero	2023-02-25T00:00:00	2024-11-08T09:00:00	1	Precipitación	0
21828	7	Sololá	710	Panajachel	8	Panajachel	2	Febrero	2023-02-25T00:00:00	2024-11-08T09:00:00	8	Radiación solar	435
21829	7	Sololá	710	Panajachel	8	Panajachel	2	Febrero	2023-02-25T00:00:00	2024-11-08T10:00:00	2	Temperatura media	20.4
21830	7	Sololá	710	Panajachel	8	Panajachel	2	Febrero	2023-02-25T00:00:00	2024-11-08T10:00:00	4	Temperatura máxima	20.4
21831	7	Sololá	710	Panajachel	8	Panajachel	2	Febrero	2023-02-25T00:00:00	2024-11-08T10:00:00	3	Temperatura mínima	18.8
21832	7	Sololá	710	Panajachel	8	Panajachel	2	Febrero	2023-02-25T00:00:00	2024-11-08T10:00:00	5	Humedad	66
21833	7	Sololá	710	Panajachel	8	Panajachel	2	Febrero	2023-02-25T00:00:00	2024-11-08T10:00:00	6	Velocidad del viento	3.2
21834	7	Sololá	710	Panajachel	8	Panajachel	2	Febrero	2023-02-25T00:00:00	2024-11-08T10:00:00	7	Dirección del viento	3.22
21835	7	Sololá	710	Panajachel	8	Panajachel	2	Febrero	2023-02-25T00:00:00	2024-11-08T10:00:00	1	Precipitación	0
21836	7	Sololá	710	Panajachel	8	Panajachel	2	Febrero	2023-02-25T00:00:00	2024-11-08T10:00:00	8	Radiación solar	641
21837	7	Sololá	710	Panajachel	8	Panajachel	2	Febrero	2023-02-25T00:00:00	2024-11-08T11:00:00	2	Temperatura media	22.5
21838	7	Sololá	710	Panajachel	8	Panajachel	2	Febrero	2023-02-25T00:00:00	2024-11-08T11:00:00	4	Temperatura máxima	22.8
21839	7	Sololá	710	Panajachel	8	Panajachel	2	Febrero	2023-02-25T00:00:00	2024-11-08T11:00:00	3	Temperatura mínima	20.4
21840	7	Sololá	710	Panajachel	8	Panajachel	2	Febrero	2023-02-25T00:00:00	2024-11-08T11:00:00	5	Humedad	54
21841	7	Sololá	710	Panajachel	8	Panajachel	2	Febrero	2023-02-25T00:00:00	2024-11-08T11:00:00	6	Velocidad del viento	4.8
21842	7	Sololá	710	Panajachel	8	Panajachel	2	Febrero	2023-02-25T00:00:00	2024-11-08T11:00:00	7	Dirección del viento	4.83
21843	7	Sololá	710	Panajachel	8	Panajachel	2	Febrero	2023-02-25T00:00:00	2024-11-08T11:00:00	1	Precipitación	0
21844	7	Sololá	710	Panajachel	8	Panajachel	2	Febrero	2023-02-25T00:00:00	2024-11-08T11:00:00	8	Radiación solar	801
21845	7	Sololá	710	Panajachel	8	Panajachel	2	Febrero	2023-02-25T00:00:00	2024-11-08T12:00:00	2	Temperatura media	23.8
21846	7	Sololá	710	Panajachel	8	Panajachel	2	Febrero	2023-02-25T00:00:00	2024-11-08T12:00:00	4	Temperatura máxima	23.8
21847	7	Sololá	710	Panajachel	8	Panajachel	2	Febrero	2023-02-25T00:00:00	2024-11-08T12:00:00	3	Temperatura mínima	21.4
21848	7	Sololá	710	Panajachel	8	Panajachel	2	Febrero	2023-02-25T00:00:00	2024-11-08T12:00:00	5	Humedad	48
21849	7	Sololá	710	Panajachel	8	Panajachel	2	Febrero	2023-02-25T00:00:00	2024-11-08T12:00:00	6	Velocidad del viento	3.2
21850	7	Sololá	710	Panajachel	8	Panajachel	2	Febrero	2023-02-25T00:00:00	2024-11-08T12:00:00	7	Dirección del viento	3.22
21851	7	Sololá	710	Panajachel	8	Panajachel	2	Febrero	2023-02-25T00:00:00	2024-11-08T12:00:00	1	Precipitación	0
21852	7	Sololá	710	Panajachel	8	Panajachel	2	Febrero	2023-02-25T00:00:00	2024-11-08T12:00:00	8	Radiación solar	887
21853	7	Sololá	710	Panajachel	8	Panajachel	2	Febrero	2023-02-25T00:00:00	2024-11-08T13:00:00	2	Temperatura media	25
21854	7	Sololá	710	Panajachel	8	Panajachel	2	Febrero	2023-02-25T00:00:00	2024-11-08T13:00:00	4	Temperatura máxima	25.2
21855	7	Sololá	710	Panajachel	8	Panajachel	2	Febrero	2023-02-25T00:00:00	2024-11-08T13:00:00	3	Temperatura mínima	23.8
21856	7	Sololá	710	Panajachel	8	Panajachel	2	Febrero	2023-02-25T00:00:00	2024-11-08T13:00:00	5	Humedad	63
21857	7	Sololá	710	Panajachel	8	Panajachel	2	Febrero	2023-02-25T00:00:00	2024-11-08T13:00:00	6	Velocidad del viento	3.2
21858	7	Sololá	710	Panajachel	8	Panajachel	2	Febrero	2023-02-25T00:00:00	2024-11-08T13:00:00	7	Dirección del viento	3.22
21859	7	Sololá	710	Panajachel	8	Panajachel	2	Febrero	2023-02-25T00:00:00	2024-11-08T13:00:00	1	Precipitación	0
21860	7	Sololá	710	Panajachel	8	Panajachel	2	Febrero	2023-02-25T00:00:00	2024-11-08T13:00:00	8	Radiación solar	899
21861	7	Sololá	710	Panajachel	8	Panajachel	2	Febrero	2023-02-25T00:00:00	2024-11-08T14:00:00	2	Temperatura media	24.3
21862	7	Sololá	710	Panajachel	8	Panajachel	2	Febrero	2023-02-25T00:00:00	2024-11-08T14:00:00	4	Temperatura máxima	25.1
21863	7	Sololá	710	Panajachel	8	Panajachel	2	Febrero	2023-02-25T00:00:00	2024-11-08T14:00:00	3	Temperatura mínima	24.3
21864	7	Sololá	710	Panajachel	8	Panajachel	2	Febrero	2023-02-25T00:00:00	2024-11-08T14:00:00	5	Humedad	67
21865	7	Sololá	710	Panajachel	8	Panajachel	2	Febrero	2023-02-25T00:00:00	2024-11-08T14:00:00	6	Velocidad del viento	3.2
21866	7	Sololá	710	Panajachel	8	Panajachel	2	Febrero	2023-02-25T00:00:00	2024-11-08T14:00:00	7	Dirección del viento	3.22
21867	7	Sololá	710	Panajachel	8	Panajachel	2	Febrero	2023-02-25T00:00:00	2024-11-08T14:00:00	1	Precipitación	0
21868	7	Sololá	710	Panajachel	8	Panajachel	2	Febrero	2023-02-25T00:00:00	2024-11-08T14:00:00	8	Radiación solar	837
21869	7	Sololá	710	Panajachel	8	Panajachel	2	Febrero	2023-02-25T00:00:00	2024-11-08T15:00:00	2	Temperatura media	23.1
21870	7	Sololá	710	Panajachel	8	Panajachel	2	Febrero	2023-02-25T00:00:00	2024-11-08T15:00:00	4	Temperatura máxima	24.6
21871	7	Sololá	710	Panajachel	8	Panajachel	2	Febrero	2023-02-25T00:00:00	2024-11-08T15:00:00	3	Temperatura mínima	23
21872	7	Sololá	710	Panajachel	8	Panajachel	2	Febrero	2023-02-25T00:00:00	2024-11-08T15:00:00	5	Humedad	73
21873	7	Sololá	710	Panajachel	8	Panajachel	2	Febrero	2023-02-25T00:00:00	2024-11-08T15:00:00	6	Velocidad del viento	4.8
21874	7	Sololá	710	Panajachel	8	Panajachel	2	Febrero	2023-02-25T00:00:00	2024-11-08T15:00:00	7	Dirección del viento	4.83
21875	7	Sololá	710	Panajachel	8	Panajachel	2	Febrero	2023-02-25T00:00:00	2024-11-08T15:00:00	1	Precipitación	0
21876	7	Sololá	710	Panajachel	8	Panajachel	2	Febrero	2023-02-25T00:00:00	2024-11-08T15:00:00	8	Radiación solar	705
21877	7	Sololá	710	Panajachel	8	Panajachel	2	Febrero	2023-02-25T00:00:00	2024-11-08T16:00:00	2	Temperatura media	23.1
21878	7	Sololá	710	Panajachel	8	Panajachel	2	Febrero	2023-02-25T00:00:00	2024-11-08T16:00:00	4	Temperatura máxima	23.4
21879	7	Sololá	710	Panajachel	8	Panajachel	2	Febrero	2023-02-25T00:00:00	2024-11-08T16:00:00	3	Temperatura mínima	22.7
21880	7	Sololá	710	Panajachel	8	Panajachel	2	Febrero	2023-02-25T00:00:00	2024-11-08T16:00:00	5	Humedad	71
21881	7	Sololá	710	Panajachel	8	Panajachel	2	Febrero	2023-02-25T00:00:00	2024-11-08T16:00:00	6	Velocidad del viento	9.7
21882	7	Sololá	710	Panajachel	8	Panajachel	2	Febrero	2023-02-25T00:00:00	2024-11-08T16:00:00	7	Dirección del viento	9.66
21883	7	Sololá	710	Panajachel	8	Panajachel	2	Febrero	2023-02-25T00:00:00	2024-11-08T16:00:00	1	Precipitación	0
21884	7	Sololá	710	Panajachel	8	Panajachel	2	Febrero	2023-02-25T00:00:00	2024-11-08T16:00:00	8	Radiación solar	519
21885	7	Sololá	710	Panajachel	8	Panajachel	2	Febrero	2023-02-25T00:00:00	2024-11-08T17:00:00	2	Temperatura media	23.4
21886	7	Sololá	710	Panajachel	8	Panajachel	2	Febrero	2023-02-25T00:00:00	2024-11-08T17:00:00	4	Temperatura máxima	23.8
21887	7	Sololá	710	Panajachel	8	Panajachel	2	Febrero	2023-02-25T00:00:00	2024-11-08T17:00:00	3	Temperatura mínima	22.9
21888	7	Sololá	710	Panajachel	8	Panajachel	2	Febrero	2023-02-25T00:00:00	2024-11-08T17:00:00	5	Humedad	73
21889	7	Sololá	710	Panajachel	8	Panajachel	2	Febrero	2023-02-25T00:00:00	2024-11-08T17:00:00	6	Velocidad del viento	3.2
21890	7	Sololá	710	Panajachel	8	Panajachel	2	Febrero	2023-02-25T00:00:00	2024-11-08T17:00:00	7	Dirección del viento	3.22
21891	7	Sololá	710	Panajachel	8	Panajachel	2	Febrero	2023-02-25T00:00:00	2024-11-08T17:00:00	1	Precipitación	0
21892	7	Sololá	710	Panajachel	8	Panajachel	2	Febrero	2023-02-25T00:00:00	2024-11-08T17:00:00	8	Radiación solar	305
21893	7	Sololá	710	Panajachel	8	Panajachel	2	Febrero	2023-02-25T00:00:00	2024-11-08T18:00:00	2	Temperatura media	20.8
21894	7	Sololá	710	Panajachel	8	Panajachel	2	Febrero	2023-02-25T00:00:00	2024-11-08T18:00:00	4	Temperatura máxima	23.6
21895	7	Sololá	710	Panajachel	8	Panajachel	2	Febrero	2023-02-25T00:00:00	2024-11-08T18:00:00	3	Temperatura mínima	20.8
21896	7	Sololá	710	Panajachel	8	Panajachel	2	Febrero	2023-02-25T00:00:00	2024-11-08T18:00:00	5	Humedad	85
21897	7	Sololá	710	Panajachel	8	Panajachel	2	Febrero	2023-02-25T00:00:00	2024-11-08T18:00:00	6	Velocidad del viento	3.2
21898	7	Sololá	710	Panajachel	8	Panajachel	2	Febrero	2023-02-25T00:00:00	2024-11-08T18:00:00	7	Dirección del viento	3.22
21899	7	Sololá	710	Panajachel	8	Panajachel	2	Febrero	2023-02-25T00:00:00	2024-11-08T18:00:00	1	Precipitación	0
21900	7	Sololá	710	Panajachel	8	Panajachel	2	Febrero	2023-02-25T00:00:00	2024-11-08T18:00:00	8	Radiación solar	80
21901	7	Sololá	710	Panajachel	8	Panajachel	2	Febrero	2023-02-25T00:00:00	2024-11-08T19:00:00	2	Temperatura media	19.7
21902	7	Sololá	710	Panajachel	8	Panajachel	2	Febrero	2023-02-25T00:00:00	2024-11-08T19:00:00	4	Temperatura máxima	20.8
21903	7	Sololá	710	Panajachel	8	Panajachel	2	Febrero	2023-02-25T00:00:00	2024-11-08T19:00:00	3	Temperatura mínima	19.7
21904	7	Sololá	710	Panajachel	8	Panajachel	2	Febrero	2023-02-25T00:00:00	2024-11-08T19:00:00	5	Humedad	88
21905	7	Sololá	710	Panajachel	8	Panajachel	2	Febrero	2023-02-25T00:00:00	2024-11-08T19:00:00	6	Velocidad del viento	0
21906	7	Sololá	710	Panajachel	8	Panajachel	2	Febrero	2023-02-25T00:00:00	2024-11-08T19:00:00	7	Dirección del viento	0
21907	7	Sololá	710	Panajachel	8	Panajachel	2	Febrero	2023-02-25T00:00:00	2024-11-08T19:00:00	1	Precipitación	0
21908	7	Sololá	710	Panajachel	8	Panajachel	2	Febrero	2023-02-25T00:00:00	2024-11-08T19:00:00	8	Radiación solar	0
21909	7	Sololá	710	Panajachel	8	Panajachel	2	Febrero	2023-02-25T00:00:00	2024-11-08T20:00:00	2	Temperatura media	19.6
21910	7	Sololá	710	Panajachel	8	Panajachel	2	Febrero	2023-02-25T00:00:00	2024-11-08T20:00:00	4	Temperatura máxima	19.7
21911	7	Sololá	710	Panajachel	8	Panajachel	2	Febrero	2023-02-25T00:00:00	2024-11-08T20:00:00	3	Temperatura mínima	18.8
21912	7	Sololá	710	Panajachel	8	Panajachel	2	Febrero	2023-02-25T00:00:00	2024-11-08T20:00:00	5	Humedad	71
21913	7	Sololá	710	Panajachel	8	Panajachel	2	Febrero	2023-02-25T00:00:00	2024-11-08T20:00:00	6	Velocidad del viento	1.6
21914	7	Sololá	710	Panajachel	8	Panajachel	2	Febrero	2023-02-25T00:00:00	2024-11-08T20:00:00	7	Dirección del viento	1.61
21915	7	Sololá	710	Panajachel	8	Panajachel	2	Febrero	2023-02-25T00:00:00	2024-11-08T20:00:00	1	Precipitación	0
21916	7	Sololá	710	Panajachel	8	Panajachel	2	Febrero	2023-02-25T00:00:00	2024-11-08T20:00:00	8	Radiación solar	0
21917	7	Sololá	710	Panajachel	8	Panajachel	2	Febrero	2023-02-25T00:00:00	2024-11-08T21:00:00	2	Temperatura media	19.2
21918	7	Sololá	710	Panajachel	8	Panajachel	2	Febrero	2023-02-25T00:00:00	2024-11-08T21:00:00	4	Temperatura máxima	19.7
21919	7	Sololá	710	Panajachel	8	Panajachel	2	Febrero	2023-02-25T00:00:00	2024-11-08T21:00:00	3	Temperatura mínima	19.2
21920	7	Sololá	710	Panajachel	8	Panajachel	2	Febrero	2023-02-25T00:00:00	2024-11-08T21:00:00	5	Humedad	69
21921	7	Sololá	710	Panajachel	8	Panajachel	2	Febrero	2023-02-25T00:00:00	2024-11-08T21:00:00	6	Velocidad del viento	3.2
21922	7	Sololá	710	Panajachel	8	Panajachel	2	Febrero	2023-02-25T00:00:00	2024-11-08T21:00:00	7	Dirección del viento	3.22
21923	7	Sololá	710	Panajachel	8	Panajachel	2	Febrero	2023-02-25T00:00:00	2024-11-08T21:00:00	1	Precipitación	0
21924	7	Sololá	710	Panajachel	8	Panajachel	2	Febrero	2023-02-25T00:00:00	2024-11-08T21:00:00	8	Radiación solar	0
21925	7	Sololá	710	Panajachel	8	Panajachel	2	Febrero	2023-02-25T00:00:00	2024-11-08T22:00:00	2	Temperatura media	19
21926	7	Sololá	710	Panajachel	8	Panajachel	2	Febrero	2023-02-25T00:00:00	2024-11-08T22:00:00	4	Temperatura máxima	19.4
21927	7	Sololá	710	Panajachel	8	Panajachel	2	Febrero	2023-02-25T00:00:00	2024-11-08T22:00:00	3	Temperatura mínima	19
21928	7	Sololá	710	Panajachel	8	Panajachel	2	Febrero	2023-02-25T00:00:00	2024-11-08T22:00:00	5	Humedad	66
21929	7	Sololá	710	Panajachel	8	Panajachel	2	Febrero	2023-02-25T00:00:00	2024-11-08T22:00:00	6	Velocidad del viento	11.3
21930	7	Sololá	710	Panajachel	8	Panajachel	2	Febrero	2023-02-25T00:00:00	2024-11-08T22:00:00	7	Dirección del viento	11.27
21931	7	Sololá	710	Panajachel	8	Panajachel	2	Febrero	2023-02-25T00:00:00	2024-11-08T22:00:00	1	Precipitación	0
21932	7	Sololá	710	Panajachel	8	Panajachel	2	Febrero	2023-02-25T00:00:00	2024-11-08T22:00:00	8	Radiación solar	0
21933	7	Sololá	710	Panajachel	8	Panajachel	2	Febrero	2023-02-25T00:00:00	2024-11-08T23:00:00	2	Temperatura media	18.7
21934	7	Sololá	710	Panajachel	8	Panajachel	2	Febrero	2023-02-25T00:00:00	2024-11-08T23:00:00	4	Temperatura máxima	19
21935	7	Sololá	710	Panajachel	8	Panajachel	2	Febrero	2023-02-25T00:00:00	2024-11-08T23:00:00	3	Temperatura mínima	18.6
21936	7	Sololá	710	Panajachel	8	Panajachel	2	Febrero	2023-02-25T00:00:00	2024-11-08T23:00:00	5	Humedad	65
21937	7	Sololá	710	Panajachel	8	Panajachel	2	Febrero	2023-02-25T00:00:00	2024-11-08T23:00:00	6	Velocidad del viento	8
21938	7	Sololá	710	Panajachel	8	Panajachel	2	Febrero	2023-02-25T00:00:00	2024-11-08T23:00:00	7	Dirección del viento	8.05
21939	7	Sololá	710	Panajachel	8	Panajachel	2	Febrero	2023-02-25T00:00:00	2024-11-08T23:00:00	1	Precipitación	0
21940	7	Sololá	710	Panajachel	8	Panajachel	2	Febrero	2023-02-25T00:00:00	2024-11-08T23:00:00	8	Radiación solar	0
21941	7	Sololá	710	Panajachel	8	Panajachel	2	Febrero	2023-02-26T00:00:00	2024-11-08T00:00:00	2	Temperatura media	17.6
21942	7	Sololá	710	Panajachel	8	Panajachel	2	Febrero	2023-02-26T00:00:00	2024-11-08T00:00:00	4	Temperatura máxima	18.7
21943	7	Sololá	710	Panajachel	8	Panajachel	2	Febrero	2023-02-26T00:00:00	2024-11-08T00:00:00	3	Temperatura mínima	17.6
21944	7	Sololá	710	Panajachel	8	Panajachel	2	Febrero	2023-02-26T00:00:00	2024-11-08T00:00:00	5	Humedad	68
21945	7	Sololá	710	Panajachel	8	Panajachel	2	Febrero	2023-02-26T00:00:00	2024-11-08T00:00:00	6	Velocidad del viento	1.6
21946	7	Sololá	710	Panajachel	8	Panajachel	2	Febrero	2023-02-26T00:00:00	2024-11-08T00:00:00	7	Dirección del viento	1.61
21947	7	Sololá	710	Panajachel	8	Panajachel	2	Febrero	2023-02-26T00:00:00	2024-11-08T00:00:00	1	Precipitación	0
21948	7	Sololá	710	Panajachel	8	Panajachel	2	Febrero	2023-02-26T00:00:00	2024-11-08T00:00:00	8	Radiación solar	0
21949	7	Sololá	710	Panajachel	8	Panajachel	2	Febrero	2023-02-26T00:00:00	2024-11-08T01:00:00	2	Temperatura media	17.4
21950	7	Sololá	710	Panajachel	8	Panajachel	2	Febrero	2023-02-26T00:00:00	2024-11-08T01:00:00	4	Temperatura máxima	17.6
21951	7	Sololá	710	Panajachel	8	Panajachel	2	Febrero	2023-02-26T00:00:00	2024-11-08T01:00:00	3	Temperatura mínima	17
21952	7	Sololá	710	Panajachel	8	Panajachel	2	Febrero	2023-02-26T00:00:00	2024-11-08T01:00:00	5	Humedad	66
21953	7	Sololá	710	Panajachel	8	Panajachel	2	Febrero	2023-02-26T00:00:00	2024-11-08T01:00:00	6	Velocidad del viento	1.6
21954	7	Sololá	710	Panajachel	8	Panajachel	2	Febrero	2023-02-26T00:00:00	2024-11-08T01:00:00	7	Dirección del viento	1.61
21955	7	Sololá	710	Panajachel	8	Panajachel	2	Febrero	2023-02-26T00:00:00	2024-11-08T01:00:00	1	Precipitación	0
21956	7	Sololá	710	Panajachel	8	Panajachel	2	Febrero	2023-02-26T00:00:00	2024-11-08T01:00:00	8	Radiación solar	0
21957	7	Sololá	710	Panajachel	8	Panajachel	2	Febrero	2023-02-26T00:00:00	2024-11-08T02:00:00	2	Temperatura media	17.2
21958	7	Sololá	710	Panajachel	8	Panajachel	2	Febrero	2023-02-26T00:00:00	2024-11-08T02:00:00	4	Temperatura máxima	17.6
21959	7	Sololá	710	Panajachel	8	Panajachel	2	Febrero	2023-02-26T00:00:00	2024-11-08T02:00:00	3	Temperatura mínima	17.1
21960	7	Sololá	710	Panajachel	8	Panajachel	2	Febrero	2023-02-26T00:00:00	2024-11-08T02:00:00	5	Humedad	65
21961	7	Sololá	710	Panajachel	8	Panajachel	2	Febrero	2023-02-26T00:00:00	2024-11-08T02:00:00	6	Velocidad del viento	3.2
21962	7	Sololá	710	Panajachel	8	Panajachel	2	Febrero	2023-02-26T00:00:00	2024-11-08T02:00:00	7	Dirección del viento	3.22
21963	7	Sololá	710	Panajachel	8	Panajachel	2	Febrero	2023-02-26T00:00:00	2024-11-08T02:00:00	1	Precipitación	0
21964	7	Sololá	710	Panajachel	8	Panajachel	2	Febrero	2023-02-26T00:00:00	2024-11-08T02:00:00	8	Radiación solar	0
21965	7	Sololá	710	Panajachel	8	Panajachel	2	Febrero	2023-02-26T00:00:00	2024-11-08T03:00:00	2	Temperatura media	15.7
21966	7	Sololá	710	Panajachel	8	Panajachel	2	Febrero	2023-02-26T00:00:00	2024-11-08T03:00:00	4	Temperatura máxima	17.2
21967	7	Sololá	710	Panajachel	8	Panajachel	2	Febrero	2023-02-26T00:00:00	2024-11-08T03:00:00	3	Temperatura mínima	15.7
21968	7	Sololá	710	Panajachel	8	Panajachel	2	Febrero	2023-02-26T00:00:00	2024-11-08T03:00:00	5	Humedad	70
21969	7	Sololá	710	Panajachel	8	Panajachel	2	Febrero	2023-02-26T00:00:00	2024-11-08T03:00:00	6	Velocidad del viento	0
21970	7	Sololá	710	Panajachel	8	Panajachel	2	Febrero	2023-02-26T00:00:00	2024-11-08T03:00:00	7	Dirección del viento	0
21971	7	Sololá	710	Panajachel	8	Panajachel	2	Febrero	2023-02-26T00:00:00	2024-11-08T03:00:00	1	Precipitación	0
21972	7	Sololá	710	Panajachel	8	Panajachel	2	Febrero	2023-02-26T00:00:00	2024-11-08T03:00:00	8	Radiación solar	0
21973	7	Sololá	710	Panajachel	8	Panajachel	2	Febrero	2023-02-26T00:00:00	2024-11-08T04:00:00	2	Temperatura media	15.2
21974	7	Sololá	710	Panajachel	8	Panajachel	2	Febrero	2023-02-26T00:00:00	2024-11-08T04:00:00	4	Temperatura máxima	15.7
21975	7	Sololá	710	Panajachel	8	Panajachel	2	Febrero	2023-02-26T00:00:00	2024-11-08T04:00:00	3	Temperatura mínima	15.2
21976	7	Sololá	710	Panajachel	8	Panajachel	2	Febrero	2023-02-26T00:00:00	2024-11-08T04:00:00	5	Humedad	71
21977	7	Sololá	710	Panajachel	8	Panajachel	2	Febrero	2023-02-26T00:00:00	2024-11-08T04:00:00	6	Velocidad del viento	0
21978	7	Sololá	710	Panajachel	8	Panajachel	2	Febrero	2023-02-26T00:00:00	2024-11-08T04:00:00	7	Dirección del viento	0
21979	7	Sololá	710	Panajachel	8	Panajachel	2	Febrero	2023-02-26T00:00:00	2024-11-08T04:00:00	1	Precipitación	0
21980	7	Sololá	710	Panajachel	8	Panajachel	2	Febrero	2023-02-26T00:00:00	2024-11-08T04:00:00	8	Radiación solar	0
21981	7	Sololá	710	Panajachel	8	Panajachel	2	Febrero	2023-02-26T00:00:00	2024-11-08T05:00:00	2	Temperatura media	14.9
21982	7	Sololá	710	Panajachel	8	Panajachel	2	Febrero	2023-02-26T00:00:00	2024-11-08T05:00:00	4	Temperatura máxima	15.3
21983	7	Sololá	710	Panajachel	8	Panajachel	2	Febrero	2023-02-26T00:00:00	2024-11-08T05:00:00	3	Temperatura mínima	14.9
21984	7	Sololá	710	Panajachel	8	Panajachel	2	Febrero	2023-02-26T00:00:00	2024-11-08T05:00:00	5	Humedad	74
21985	7	Sololá	710	Panajachel	8	Panajachel	2	Febrero	2023-02-26T00:00:00	2024-11-08T05:00:00	6	Velocidad del viento	1.6
21986	7	Sololá	710	Panajachel	8	Panajachel	2	Febrero	2023-02-26T00:00:00	2024-11-08T05:00:00	7	Dirección del viento	1.61
21987	7	Sololá	710	Panajachel	8	Panajachel	2	Febrero	2023-02-26T00:00:00	2024-11-08T05:00:00	1	Precipitación	0
21988	7	Sololá	710	Panajachel	8	Panajachel	2	Febrero	2023-02-26T00:00:00	2024-11-08T05:00:00	8	Radiación solar	0
21989	7	Sololá	710	Panajachel	8	Panajachel	2	Febrero	2023-02-26T00:00:00	2024-11-08T06:00:00	2	Temperatura media	14.8
21990	7	Sololá	710	Panajachel	8	Panajachel	2	Febrero	2023-02-26T00:00:00	2024-11-08T06:00:00	4	Temperatura máxima	15.1
21991	7	Sololá	710	Panajachel	8	Panajachel	2	Febrero	2023-02-26T00:00:00	2024-11-08T06:00:00	3	Temperatura mínima	14.3
21992	7	Sololá	710	Panajachel	8	Panajachel	2	Febrero	2023-02-26T00:00:00	2024-11-08T06:00:00	5	Humedad	70
21993	7	Sololá	710	Panajachel	8	Panajachel	2	Febrero	2023-02-26T00:00:00	2024-11-08T06:00:00	6	Velocidad del viento	0
21994	7	Sololá	710	Panajachel	8	Panajachel	2	Febrero	2023-02-26T00:00:00	2024-11-08T06:00:00	7	Dirección del viento	0
21995	7	Sololá	710	Panajachel	8	Panajachel	2	Febrero	2023-02-26T00:00:00	2024-11-08T06:00:00	1	Precipitación	0
21996	7	Sololá	710	Panajachel	8	Panajachel	2	Febrero	2023-02-26T00:00:00	2024-11-08T06:00:00	8	Radiación solar	0
21997	7	Sololá	710	Panajachel	8	Panajachel	2	Febrero	2023-02-26T00:00:00	2024-11-08T07:00:00	2	Temperatura media	14.2
21998	7	Sololá	710	Panajachel	8	Panajachel	2	Febrero	2023-02-26T00:00:00	2024-11-08T07:00:00	4	Temperatura máxima	14.8
21999	7	Sololá	710	Panajachel	8	Panajachel	2	Febrero	2023-02-26T00:00:00	2024-11-08T07:00:00	3	Temperatura mínima	13.9
22000	7	Sololá	710	Panajachel	8	Panajachel	2	Febrero	2023-02-26T00:00:00	2024-11-08T07:00:00	5	Humedad	73
22001	7	Sololá	710	Panajachel	8	Panajachel	2	Febrero	2023-02-26T00:00:00	2024-11-08T07:00:00	6	Velocidad del viento	0
22002	7	Sololá	710	Panajachel	8	Panajachel	2	Febrero	2023-02-26T00:00:00	2024-11-08T07:00:00	7	Dirección del viento	0
22003	7	Sololá	710	Panajachel	8	Panajachel	2	Febrero	2023-02-26T00:00:00	2024-11-08T07:00:00	1	Precipitación	0
22004	7	Sololá	710	Panajachel	8	Panajachel	2	Febrero	2023-02-26T00:00:00	2024-11-08T07:00:00	8	Radiación solar	6
22005	7	Sololá	710	Panajachel	8	Panajachel	2	Febrero	2023-02-26T00:00:00	2024-11-08T08:00:00	2	Temperatura media	17.7
22006	7	Sololá	710	Panajachel	8	Panajachel	2	Febrero	2023-02-26T00:00:00	2024-11-08T08:00:00	4	Temperatura máxima	17.7
22007	7	Sololá	710	Panajachel	8	Panajachel	2	Febrero	2023-02-26T00:00:00	2024-11-08T08:00:00	3	Temperatura mínima	13.9
22008	7	Sololá	710	Panajachel	8	Panajachel	2	Febrero	2023-02-26T00:00:00	2024-11-08T08:00:00	5	Humedad	62
22009	7	Sololá	710	Panajachel	8	Panajachel	2	Febrero	2023-02-26T00:00:00	2024-11-08T08:00:00	6	Velocidad del viento	0
22010	7	Sololá	710	Panajachel	8	Panajachel	2	Febrero	2023-02-26T00:00:00	2024-11-08T08:00:00	7	Dirección del viento	0
22011	7	Sololá	710	Panajachel	8	Panajachel	2	Febrero	2023-02-26T00:00:00	2024-11-08T08:00:00	1	Precipitación	0
22012	7	Sololá	710	Panajachel	8	Panajachel	2	Febrero	2023-02-26T00:00:00	2024-11-08T08:00:00	8	Radiación solar	189
22013	7	Sololá	710	Panajachel	8	Panajachel	2	Febrero	2023-02-26T00:00:00	2024-11-08T09:00:00	2	Temperatura media	19
22014	7	Sololá	710	Panajachel	8	Panajachel	2	Febrero	2023-02-26T00:00:00	2024-11-08T09:00:00	4	Temperatura máxima	19
22015	7	Sololá	710	Panajachel	8	Panajachel	2	Febrero	2023-02-26T00:00:00	2024-11-08T09:00:00	3	Temperatura mínima	17.7
22016	7	Sololá	710	Panajachel	8	Panajachel	2	Febrero	2023-02-26T00:00:00	2024-11-08T09:00:00	5	Humedad	64
22017	7	Sololá	710	Panajachel	8	Panajachel	2	Febrero	2023-02-26T00:00:00	2024-11-08T09:00:00	6	Velocidad del viento	1.6
22018	7	Sololá	710	Panajachel	8	Panajachel	2	Febrero	2023-02-26T00:00:00	2024-11-08T09:00:00	7	Dirección del viento	1.61
22019	7	Sololá	710	Panajachel	8	Panajachel	2	Febrero	2023-02-26T00:00:00	2024-11-08T09:00:00	1	Precipitación	0
22020	7	Sololá	710	Panajachel	8	Panajachel	2	Febrero	2023-02-26T00:00:00	2024-11-08T09:00:00	8	Radiación solar	444
22021	7	Sololá	710	Panajachel	8	Panajachel	2	Febrero	2023-02-26T00:00:00	2024-11-08T10:00:00	2	Temperatura media	18.9
22022	7	Sololá	710	Panajachel	8	Panajachel	2	Febrero	2023-02-26T00:00:00	2024-11-08T10:00:00	4	Temperatura máxima	19.4
22023	7	Sololá	710	Panajachel	8	Panajachel	2	Febrero	2023-02-26T00:00:00	2024-11-08T10:00:00	3	Temperatura mínima	18.5
22024	7	Sololá	710	Panajachel	8	Panajachel	2	Febrero	2023-02-26T00:00:00	2024-11-08T10:00:00	5	Humedad	67
22025	7	Sololá	710	Panajachel	8	Panajachel	2	Febrero	2023-02-26T00:00:00	2024-11-08T10:00:00	6	Velocidad del viento	9.7
22026	7	Sololá	710	Panajachel	8	Panajachel	2	Febrero	2023-02-26T00:00:00	2024-11-08T10:00:00	7	Dirección del viento	9.66
22027	7	Sololá	710	Panajachel	8	Panajachel	2	Febrero	2023-02-26T00:00:00	2024-11-08T10:00:00	1	Precipitación	0
22028	7	Sololá	710	Panajachel	8	Panajachel	2	Febrero	2023-02-26T00:00:00	2024-11-08T10:00:00	8	Radiación solar	647
22029	7	Sololá	710	Panajachel	8	Panajachel	2	Febrero	2023-02-26T00:00:00	2024-11-08T11:00:00	2	Temperatura media	21.1
22030	7	Sololá	710	Panajachel	8	Panajachel	2	Febrero	2023-02-26T00:00:00	2024-11-08T11:00:00	4	Temperatura máxima	21.1
22031	7	Sololá	710	Panajachel	8	Panajachel	2	Febrero	2023-02-26T00:00:00	2024-11-08T11:00:00	3	Temperatura mínima	18.9
22032	7	Sololá	710	Panajachel	8	Panajachel	2	Febrero	2023-02-26T00:00:00	2024-11-08T11:00:00	5	Humedad	59
22033	7	Sololá	710	Panajachel	8	Panajachel	2	Febrero	2023-02-26T00:00:00	2024-11-08T11:00:00	6	Velocidad del viento	4.8
22034	7	Sololá	710	Panajachel	8	Panajachel	2	Febrero	2023-02-26T00:00:00	2024-11-08T11:00:00	7	Dirección del viento	4.83
22035	7	Sololá	710	Panajachel	8	Panajachel	2	Febrero	2023-02-26T00:00:00	2024-11-08T11:00:00	1	Precipitación	0
22036	7	Sololá	710	Panajachel	8	Panajachel	2	Febrero	2023-02-26T00:00:00	2024-11-08T11:00:00	8	Radiación solar	804
22037	7	Sololá	710	Panajachel	8	Panajachel	2	Febrero	2023-02-26T00:00:00	2024-11-08T12:00:00	2	Temperatura media	22.7
22038	7	Sololá	710	Panajachel	8	Panajachel	2	Febrero	2023-02-26T00:00:00	2024-11-08T12:00:00	4	Temperatura máxima	22.8
22039	7	Sololá	710	Panajachel	8	Panajachel	2	Febrero	2023-02-26T00:00:00	2024-11-08T12:00:00	3	Temperatura mínima	20.9
22040	7	Sololá	710	Panajachel	8	Panajachel	2	Febrero	2023-02-26T00:00:00	2024-11-08T12:00:00	5	Humedad	55
22041	7	Sololá	710	Panajachel	8	Panajachel	2	Febrero	2023-02-26T00:00:00	2024-11-08T12:00:00	6	Velocidad del viento	1.6
22042	7	Sololá	710	Panajachel	8	Panajachel	2	Febrero	2023-02-26T00:00:00	2024-11-08T12:00:00	7	Dirección del viento	1.61
22043	7	Sololá	710	Panajachel	8	Panajachel	2	Febrero	2023-02-26T00:00:00	2024-11-08T12:00:00	1	Precipitación	0
22044	7	Sololá	710	Panajachel	8	Panajachel	2	Febrero	2023-02-26T00:00:00	2024-11-08T12:00:00	8	Radiación solar	901
22045	7	Sololá	710	Panajachel	8	Panajachel	2	Febrero	2023-02-26T00:00:00	2024-11-08T13:00:00	2	Temperatura media	22.9
22046	7	Sololá	710	Panajachel	8	Panajachel	2	Febrero	2023-02-26T00:00:00	2024-11-08T13:00:00	4	Temperatura máxima	23.9
22047	7	Sololá	710	Panajachel	8	Panajachel	2	Febrero	2023-02-26T00:00:00	2024-11-08T13:00:00	3	Temperatura mínima	22.8
22048	7	Sololá	710	Panajachel	8	Panajachel	2	Febrero	2023-02-26T00:00:00	2024-11-08T13:00:00	5	Humedad	61
22049	7	Sololá	710	Panajachel	8	Panajachel	2	Febrero	2023-02-26T00:00:00	2024-11-08T13:00:00	6	Velocidad del viento	4.8
22050	7	Sololá	710	Panajachel	8	Panajachel	2	Febrero	2023-02-26T00:00:00	2024-11-08T13:00:00	7	Dirección del viento	4.83
22051	7	Sololá	710	Panajachel	8	Panajachel	2	Febrero	2023-02-26T00:00:00	2024-11-08T13:00:00	1	Precipitación	0
22052	7	Sololá	710	Panajachel	8	Panajachel	2	Febrero	2023-02-26T00:00:00	2024-11-08T13:00:00	8	Radiación solar	908
22053	7	Sololá	710	Panajachel	8	Panajachel	2	Febrero	2023-02-26T00:00:00	2024-11-08T14:00:00	2	Temperatura media	22.2
22054	7	Sololá	710	Panajachel	8	Panajachel	2	Febrero	2023-02-26T00:00:00	2024-11-08T14:00:00	4	Temperatura máxima	22.9
22055	7	Sololá	710	Panajachel	8	Panajachel	2	Febrero	2023-02-26T00:00:00	2024-11-08T14:00:00	3	Temperatura mínima	22.2
22056	7	Sololá	710	Panajachel	8	Panajachel	2	Febrero	2023-02-26T00:00:00	2024-11-08T14:00:00	5	Humedad	72
22057	7	Sololá	710	Panajachel	8	Panajachel	2	Febrero	2023-02-26T00:00:00	2024-11-08T14:00:00	6	Velocidad del viento	8
22058	7	Sololá	710	Panajachel	8	Panajachel	2	Febrero	2023-02-26T00:00:00	2024-11-08T14:00:00	7	Dirección del viento	8.05
22059	7	Sololá	710	Panajachel	8	Panajachel	2	Febrero	2023-02-26T00:00:00	2024-11-08T14:00:00	1	Precipitación	0
22060	7	Sololá	710	Panajachel	8	Panajachel	2	Febrero	2023-02-26T00:00:00	2024-11-08T14:00:00	8	Radiación solar	842
22061	7	Sololá	710	Panajachel	8	Panajachel	2	Febrero	2023-02-26T00:00:00	2024-11-08T15:00:00	2	Temperatura media	21.9
22062	7	Sololá	710	Panajachel	8	Panajachel	2	Febrero	2023-02-26T00:00:00	2024-11-08T15:00:00	4	Temperatura máxima	22.3
22063	7	Sololá	710	Panajachel	8	Panajachel	2	Febrero	2023-02-26T00:00:00	2024-11-08T15:00:00	3	Temperatura mínima	21.4
22064	7	Sololá	710	Panajachel	8	Panajachel	2	Febrero	2023-02-26T00:00:00	2024-11-08T15:00:00	5	Humedad	75
22065	7	Sololá	710	Panajachel	8	Panajachel	2	Febrero	2023-02-26T00:00:00	2024-11-08T15:00:00	6	Velocidad del viento	12.9
22066	7	Sololá	710	Panajachel	8	Panajachel	2	Febrero	2023-02-26T00:00:00	2024-11-08T15:00:00	7	Dirección del viento	12.87
22067	7	Sololá	710	Panajachel	8	Panajachel	2	Febrero	2023-02-26T00:00:00	2024-11-08T15:00:00	1	Precipitación	0
22068	7	Sololá	710	Panajachel	8	Panajachel	2	Febrero	2023-02-26T00:00:00	2024-11-08T15:00:00	8	Radiación solar	707
22069	7	Sololá	710	Panajachel	8	Panajachel	2	Febrero	2023-02-26T00:00:00	2024-11-08T16:00:00	2	Temperatura media	21.6
22070	7	Sololá	710	Panajachel	8	Panajachel	2	Febrero	2023-02-26T00:00:00	2024-11-08T16:00:00	4	Temperatura máxima	22.3
22071	7	Sololá	710	Panajachel	8	Panajachel	2	Febrero	2023-02-26T00:00:00	2024-11-08T16:00:00	3	Temperatura mínima	21.4
22072	7	Sololá	710	Panajachel	8	Panajachel	2	Febrero	2023-02-26T00:00:00	2024-11-08T16:00:00	5	Humedad	77
22073	7	Sololá	710	Panajachel	8	Panajachel	2	Febrero	2023-02-26T00:00:00	2024-11-08T16:00:00	6	Velocidad del viento	9.7
22074	7	Sololá	710	Panajachel	8	Panajachel	2	Febrero	2023-02-26T00:00:00	2024-11-08T16:00:00	7	Dirección del viento	9.66
22075	7	Sololá	710	Panajachel	8	Panajachel	2	Febrero	2023-02-26T00:00:00	2024-11-08T16:00:00	1	Precipitación	0
22076	7	Sololá	710	Panajachel	8	Panajachel	2	Febrero	2023-02-26T00:00:00	2024-11-08T16:00:00	8	Radiación solar	535
22077	7	Sololá	710	Panajachel	8	Panajachel	2	Febrero	2023-02-26T00:00:00	2024-11-08T17:00:00	2	Temperatura media	20.2
22078	7	Sololá	710	Panajachel	8	Panajachel	2	Febrero	2023-02-26T00:00:00	2024-11-08T17:00:00	4	Temperatura máxima	21.6
22079	7	Sololá	710	Panajachel	8	Panajachel	2	Febrero	2023-02-26T00:00:00	2024-11-08T17:00:00	3	Temperatura mínima	20.1
22080	7	Sololá	710	Panajachel	8	Panajachel	2	Febrero	2023-02-26T00:00:00	2024-11-08T17:00:00	5	Humedad	84
22081	7	Sololá	710	Panajachel	8	Panajachel	2	Febrero	2023-02-26T00:00:00	2024-11-08T17:00:00	6	Velocidad del viento	6.4
22082	7	Sololá	710	Panajachel	8	Panajachel	2	Febrero	2023-02-26T00:00:00	2024-11-08T17:00:00	7	Dirección del viento	6.44
22083	7	Sololá	710	Panajachel	8	Panajachel	2	Febrero	2023-02-26T00:00:00	2024-11-08T17:00:00	1	Precipitación	0
22084	7	Sololá	710	Panajachel	8	Panajachel	2	Febrero	2023-02-26T00:00:00	2024-11-08T17:00:00	8	Radiación solar	147
22085	7	Sololá	710	Panajachel	8	Panajachel	2	Febrero	2023-02-26T00:00:00	2024-11-08T18:00:00	2	Temperatura media	19.3
22086	7	Sololá	710	Panajachel	8	Panajachel	2	Febrero	2023-02-26T00:00:00	2024-11-08T18:00:00	4	Temperatura máxima	20.2
22087	7	Sololá	710	Panajachel	8	Panajachel	2	Febrero	2023-02-26T00:00:00	2024-11-08T18:00:00	3	Temperatura mínima	19.3
22088	7	Sololá	710	Panajachel	8	Panajachel	2	Febrero	2023-02-26T00:00:00	2024-11-08T18:00:00	5	Humedad	88
22089	7	Sololá	710	Panajachel	8	Panajachel	2	Febrero	2023-02-26T00:00:00	2024-11-08T18:00:00	6	Velocidad del viento	3.2
22090	7	Sololá	710	Panajachel	8	Panajachel	2	Febrero	2023-02-26T00:00:00	2024-11-08T18:00:00	7	Dirección del viento	3.22
22091	7	Sololá	710	Panajachel	8	Panajachel	2	Febrero	2023-02-26T00:00:00	2024-11-08T18:00:00	1	Precipitación	0
22092	7	Sololá	710	Panajachel	8	Panajachel	2	Febrero	2023-02-26T00:00:00	2024-11-08T18:00:00	8	Radiación solar	47
22093	7	Sololá	710	Panajachel	8	Panajachel	2	Febrero	2023-02-26T00:00:00	2024-11-08T19:00:00	2	Temperatura media	18.6
22094	7	Sololá	710	Panajachel	8	Panajachel	2	Febrero	2023-02-26T00:00:00	2024-11-08T19:00:00	4	Temperatura máxima	19.3
22095	7	Sololá	710	Panajachel	8	Panajachel	2	Febrero	2023-02-26T00:00:00	2024-11-08T19:00:00	3	Temperatura mínima	18.6
22096	7	Sololá	710	Panajachel	8	Panajachel	2	Febrero	2023-02-26T00:00:00	2024-11-08T19:00:00	5	Humedad	88
22097	7	Sololá	710	Panajachel	8	Panajachel	2	Febrero	2023-02-26T00:00:00	2024-11-08T19:00:00	6	Velocidad del viento	0
22098	7	Sololá	710	Panajachel	8	Panajachel	2	Febrero	2023-02-26T00:00:00	2024-11-08T19:00:00	7	Dirección del viento	0
22099	7	Sololá	710	Panajachel	8	Panajachel	2	Febrero	2023-02-26T00:00:00	2024-11-08T19:00:00	1	Precipitación	0
22100	7	Sololá	710	Panajachel	8	Panajachel	2	Febrero	2023-02-26T00:00:00	2024-11-08T19:00:00	8	Radiación solar	0
22101	7	Sololá	710	Panajachel	8	Panajachel	2	Febrero	2023-02-26T00:00:00	2024-11-08T20:00:00	2	Temperatura media	18.4
22102	7	Sololá	710	Panajachel	8	Panajachel	2	Febrero	2023-02-26T00:00:00	2024-11-08T20:00:00	4	Temperatura máxima	18.7
22103	7	Sololá	710	Panajachel	8	Panajachel	2	Febrero	2023-02-26T00:00:00	2024-11-08T20:00:00	3	Temperatura mínima	18.3
22104	7	Sololá	710	Panajachel	8	Panajachel	2	Febrero	2023-02-26T00:00:00	2024-11-08T20:00:00	5	Humedad	89
22105	7	Sololá	710	Panajachel	8	Panajachel	2	Febrero	2023-02-26T00:00:00	2024-11-08T20:00:00	6	Velocidad del viento	1.6
22106	7	Sololá	710	Panajachel	8	Panajachel	2	Febrero	2023-02-26T00:00:00	2024-11-08T20:00:00	7	Dirección del viento	1.61
22107	7	Sololá	710	Panajachel	8	Panajachel	2	Febrero	2023-02-26T00:00:00	2024-11-08T20:00:00	1	Precipitación	0
22108	7	Sololá	710	Panajachel	8	Panajachel	2	Febrero	2023-02-26T00:00:00	2024-11-08T20:00:00	8	Radiación solar	0
22109	7	Sololá	710	Panajachel	8	Panajachel	2	Febrero	2023-02-26T00:00:00	2024-11-08T21:00:00	2	Temperatura media	17.6
22110	7	Sololá	710	Panajachel	8	Panajachel	2	Febrero	2023-02-26T00:00:00	2024-11-08T21:00:00	4	Temperatura máxima	18.4
22111	7	Sololá	710	Panajachel	8	Panajachel	2	Febrero	2023-02-26T00:00:00	2024-11-08T21:00:00	3	Temperatura mínima	17.6
22112	7	Sololá	710	Panajachel	8	Panajachel	2	Febrero	2023-02-26T00:00:00	2024-11-08T21:00:00	5	Humedad	77
22113	7	Sololá	710	Panajachel	8	Panajachel	2	Febrero	2023-02-26T00:00:00	2024-11-08T21:00:00	6	Velocidad del viento	1.6
22114	7	Sololá	710	Panajachel	8	Panajachel	2	Febrero	2023-02-26T00:00:00	2024-11-08T21:00:00	7	Dirección del viento	1.61
22115	7	Sololá	710	Panajachel	8	Panajachel	2	Febrero	2023-02-26T00:00:00	2024-11-08T21:00:00	1	Precipitación	0
22116	7	Sololá	710	Panajachel	8	Panajachel	2	Febrero	2023-02-26T00:00:00	2024-11-08T21:00:00	8	Radiación solar	0
22117	7	Sololá	710	Panajachel	8	Panajachel	2	Febrero	2023-02-26T00:00:00	2024-11-08T22:00:00	2	Temperatura media	16.6
22118	7	Sololá	710	Panajachel	8	Panajachel	2	Febrero	2023-02-26T00:00:00	2024-11-08T22:00:00	4	Temperatura máxima	17.6
22119	7	Sololá	710	Panajachel	8	Panajachel	2	Febrero	2023-02-26T00:00:00	2024-11-08T22:00:00	3	Temperatura mínima	16.5
22120	7	Sololá	710	Panajachel	8	Panajachel	2	Febrero	2023-02-26T00:00:00	2024-11-08T22:00:00	5	Humedad	75
22121	7	Sololá	710	Panajachel	8	Panajachel	2	Febrero	2023-02-26T00:00:00	2024-11-08T22:00:00	6	Velocidad del viento	3.2
22122	7	Sololá	710	Panajachel	8	Panajachel	2	Febrero	2023-02-26T00:00:00	2024-11-08T22:00:00	7	Dirección del viento	3.22
22123	7	Sololá	710	Panajachel	8	Panajachel	2	Febrero	2023-02-26T00:00:00	2024-11-08T22:00:00	1	Precipitación	0
22124	7	Sololá	710	Panajachel	8	Panajachel	2	Febrero	2023-02-26T00:00:00	2024-11-08T22:00:00	8	Radiación solar	0
22125	7	Sololá	710	Panajachel	8	Panajachel	2	Febrero	2023-02-26T00:00:00	2024-11-08T23:00:00	2	Temperatura media	16.2
22126	7	Sololá	710	Panajachel	8	Panajachel	2	Febrero	2023-02-26T00:00:00	2024-11-08T23:00:00	4	Temperatura máxima	16.6
22127	7	Sololá	710	Panajachel	8	Panajachel	2	Febrero	2023-02-26T00:00:00	2024-11-08T23:00:00	3	Temperatura mínima	16.1
22128	7	Sololá	710	Panajachel	8	Panajachel	2	Febrero	2023-02-26T00:00:00	2024-11-08T23:00:00	5	Humedad	74
22129	7	Sololá	710	Panajachel	8	Panajachel	2	Febrero	2023-02-26T00:00:00	2024-11-08T23:00:00	6	Velocidad del viento	3.2
22130	7	Sololá	710	Panajachel	8	Panajachel	2	Febrero	2023-02-26T00:00:00	2024-11-08T23:00:00	7	Dirección del viento	3.22
22131	7	Sololá	710	Panajachel	8	Panajachel	2	Febrero	2023-02-26T00:00:00	2024-11-08T23:00:00	1	Precipitación	0
22132	7	Sololá	710	Panajachel	8	Panajachel	2	Febrero	2023-02-26T00:00:00	2024-11-08T23:00:00	8	Radiación solar	0
22133	7	Sololá	710	Panajachel	8	Panajachel	2	Febrero	2023-02-27T00:00:00	2024-11-08T00:00:00	2	Temperatura media	14.9
22134	7	Sololá	710	Panajachel	8	Panajachel	2	Febrero	2023-02-27T00:00:00	2024-11-08T00:00:00	4	Temperatura máxima	16.2
22135	7	Sololá	710	Panajachel	8	Panajachel	2	Febrero	2023-02-27T00:00:00	2024-11-08T00:00:00	3	Temperatura mínima	14.9
22136	7	Sololá	710	Panajachel	8	Panajachel	2	Febrero	2023-02-27T00:00:00	2024-11-08T00:00:00	5	Humedad	75
22137	7	Sololá	710	Panajachel	8	Panajachel	2	Febrero	2023-02-27T00:00:00	2024-11-08T00:00:00	6	Velocidad del viento	4.8
22138	7	Sololá	710	Panajachel	8	Panajachel	2	Febrero	2023-02-27T00:00:00	2024-11-08T00:00:00	7	Dirección del viento	4.83
22139	7	Sololá	710	Panajachel	8	Panajachel	2	Febrero	2023-02-27T00:00:00	2024-11-08T00:00:00	1	Precipitación	0
22140	7	Sololá	710	Panajachel	8	Panajachel	2	Febrero	2023-02-27T00:00:00	2024-11-08T00:00:00	8	Radiación solar	0
22141	7	Sololá	710	Panajachel	8	Panajachel	2	Febrero	2023-02-27T00:00:00	2024-11-08T01:00:00	2	Temperatura media	14.4
22142	7	Sololá	710	Panajachel	8	Panajachel	2	Febrero	2023-02-27T00:00:00	2024-11-08T01:00:00	4	Temperatura máxima	15
22143	7	Sololá	710	Panajachel	8	Panajachel	2	Febrero	2023-02-27T00:00:00	2024-11-08T01:00:00	3	Temperatura mínima	14.2
22144	7	Sololá	710	Panajachel	8	Panajachel	2	Febrero	2023-02-27T00:00:00	2024-11-08T01:00:00	5	Humedad	75
22145	7	Sololá	710	Panajachel	8	Panajachel	2	Febrero	2023-02-27T00:00:00	2024-11-08T01:00:00	6	Velocidad del viento	6.4
22146	7	Sololá	710	Panajachel	8	Panajachel	2	Febrero	2023-02-27T00:00:00	2024-11-08T01:00:00	7	Dirección del viento	6.44
22147	7	Sololá	710	Panajachel	8	Panajachel	2	Febrero	2023-02-27T00:00:00	2024-11-08T01:00:00	1	Precipitación	0
22148	7	Sololá	710	Panajachel	8	Panajachel	2	Febrero	2023-02-27T00:00:00	2024-11-08T01:00:00	8	Radiación solar	0
22149	7	Sololá	710	Panajachel	8	Panajachel	2	Febrero	2023-02-27T00:00:00	2024-11-08T02:00:00	2	Temperatura media	14
22150	7	Sololá	710	Panajachel	8	Panajachel	2	Febrero	2023-02-27T00:00:00	2024-11-08T02:00:00	4	Temperatura máxima	14.5
22151	7	Sololá	710	Panajachel	8	Panajachel	2	Febrero	2023-02-27T00:00:00	2024-11-08T02:00:00	3	Temperatura mínima	13.9
22152	7	Sololá	710	Panajachel	8	Panajachel	2	Febrero	2023-02-27T00:00:00	2024-11-08T02:00:00	5	Humedad	74
22153	7	Sololá	710	Panajachel	8	Panajachel	2	Febrero	2023-02-27T00:00:00	2024-11-08T02:00:00	6	Velocidad del viento	6.4
22154	7	Sololá	710	Panajachel	8	Panajachel	2	Febrero	2023-02-27T00:00:00	2024-11-08T02:00:00	7	Dirección del viento	6.44
22155	7	Sololá	710	Panajachel	8	Panajachel	2	Febrero	2023-02-27T00:00:00	2024-11-08T02:00:00	1	Precipitación	0
22156	7	Sololá	710	Panajachel	8	Panajachel	2	Febrero	2023-02-27T00:00:00	2024-11-08T02:00:00	8	Radiación solar	0
22157	7	Sololá	710	Panajachel	8	Panajachel	2	Febrero	2023-02-27T00:00:00	2024-11-08T03:00:00	2	Temperatura media	13.9
22158	7	Sololá	710	Panajachel	8	Panajachel	2	Febrero	2023-02-27T00:00:00	2024-11-08T03:00:00	4	Temperatura máxima	14.2
22159	7	Sololá	710	Panajachel	8	Panajachel	2	Febrero	2023-02-27T00:00:00	2024-11-08T03:00:00	3	Temperatura mínima	13.8
22160	7	Sololá	710	Panajachel	8	Panajachel	2	Febrero	2023-02-27T00:00:00	2024-11-08T03:00:00	5	Humedad	73
22161	7	Sololá	710	Panajachel	8	Panajachel	2	Febrero	2023-02-27T00:00:00	2024-11-08T03:00:00	6	Velocidad del viento	4.8
22162	7	Sololá	710	Panajachel	8	Panajachel	2	Febrero	2023-02-27T00:00:00	2024-11-08T03:00:00	7	Dirección del viento	4.83
22163	7	Sololá	710	Panajachel	8	Panajachel	2	Febrero	2023-02-27T00:00:00	2024-11-08T03:00:00	1	Precipitación	0
22164	7	Sololá	710	Panajachel	8	Panajachel	2	Febrero	2023-02-27T00:00:00	2024-11-08T03:00:00	8	Radiación solar	0
22165	7	Sololá	710	Panajachel	8	Panajachel	2	Febrero	2023-02-27T00:00:00	2024-11-08T04:00:00	2	Temperatura media	13.6
22166	7	Sololá	710	Panajachel	8	Panajachel	2	Febrero	2023-02-27T00:00:00	2024-11-08T04:00:00	4	Temperatura máxima	13.9
22167	7	Sololá	710	Panajachel	8	Panajachel	2	Febrero	2023-02-27T00:00:00	2024-11-08T04:00:00	3	Temperatura mínima	13.6
22168	7	Sololá	710	Panajachel	8	Panajachel	2	Febrero	2023-02-27T00:00:00	2024-11-08T04:00:00	5	Humedad	73
22169	7	Sololá	710	Panajachel	8	Panajachel	2	Febrero	2023-02-27T00:00:00	2024-11-08T04:00:00	6	Velocidad del viento	1.6
22170	7	Sololá	710	Panajachel	8	Panajachel	2	Febrero	2023-02-27T00:00:00	2024-11-08T04:00:00	7	Dirección del viento	1.61
22171	7	Sololá	710	Panajachel	8	Panajachel	2	Febrero	2023-02-27T00:00:00	2024-11-08T04:00:00	1	Precipitación	0
22172	7	Sololá	710	Panajachel	8	Panajachel	2	Febrero	2023-02-27T00:00:00	2024-11-08T04:00:00	8	Radiación solar	0
22173	7	Sololá	710	Panajachel	8	Panajachel	2	Febrero	2023-02-27T00:00:00	2024-11-08T05:00:00	2	Temperatura media	13.2
22174	7	Sololá	710	Panajachel	8	Panajachel	2	Febrero	2023-02-27T00:00:00	2024-11-08T05:00:00	4	Temperatura máxima	13.6
22175	7	Sololá	710	Panajachel	8	Panajachel	2	Febrero	2023-02-27T00:00:00	2024-11-08T05:00:00	3	Temperatura mínima	13.2
22176	7	Sololá	710	Panajachel	8	Panajachel	2	Febrero	2023-02-27T00:00:00	2024-11-08T05:00:00	5	Humedad	73
22177	7	Sololá	710	Panajachel	8	Panajachel	2	Febrero	2023-02-27T00:00:00	2024-11-08T05:00:00	6	Velocidad del viento	1.6
22178	7	Sololá	710	Panajachel	8	Panajachel	2	Febrero	2023-02-27T00:00:00	2024-11-08T05:00:00	7	Dirección del viento	1.61
22179	7	Sololá	710	Panajachel	8	Panajachel	2	Febrero	2023-02-27T00:00:00	2024-11-08T05:00:00	1	Precipitación	0
22180	7	Sololá	710	Panajachel	8	Panajachel	2	Febrero	2023-02-27T00:00:00	2024-11-08T05:00:00	8	Radiación solar	0
22181	7	Sololá	710	Panajachel	8	Panajachel	2	Febrero	2023-02-27T00:00:00	2024-11-08T06:00:00	2	Temperatura media	12.8
22182	7	Sololá	710	Panajachel	8	Panajachel	2	Febrero	2023-02-27T00:00:00	2024-11-08T06:00:00	4	Temperatura máxima	13.3
22183	7	Sololá	710	Panajachel	8	Panajachel	2	Febrero	2023-02-27T00:00:00	2024-11-08T06:00:00	3	Temperatura mínima	12.7
22184	7	Sololá	710	Panajachel	8	Panajachel	2	Febrero	2023-02-27T00:00:00	2024-11-08T06:00:00	5	Humedad	75
22185	7	Sololá	710	Panajachel	8	Panajachel	2	Febrero	2023-02-27T00:00:00	2024-11-08T06:00:00	6	Velocidad del viento	0
22186	7	Sololá	710	Panajachel	8	Panajachel	2	Febrero	2023-02-27T00:00:00	2024-11-08T06:00:00	7	Dirección del viento	0
22187	7	Sololá	710	Panajachel	8	Panajachel	2	Febrero	2023-02-27T00:00:00	2024-11-08T06:00:00	1	Precipitación	0
22188	7	Sololá	710	Panajachel	8	Panajachel	2	Febrero	2023-02-27T00:00:00	2024-11-08T06:00:00	8	Radiación solar	0
22189	7	Sololá	710	Panajachel	8	Panajachel	2	Febrero	2023-02-27T00:00:00	2024-11-08T07:00:00	2	Temperatura media	12.9
22190	7	Sololá	710	Panajachel	8	Panajachel	2	Febrero	2023-02-27T00:00:00	2024-11-08T07:00:00	4	Temperatura máxima	12.9
22191	7	Sololá	710	Panajachel	8	Panajachel	2	Febrero	2023-02-27T00:00:00	2024-11-08T07:00:00	3	Temperatura mínima	12.6
22192	7	Sololá	710	Panajachel	8	Panajachel	2	Febrero	2023-02-27T00:00:00	2024-11-08T07:00:00	5	Humedad	74
22193	7	Sololá	710	Panajachel	8	Panajachel	2	Febrero	2023-02-27T00:00:00	2024-11-08T07:00:00	6	Velocidad del viento	0
22194	7	Sololá	710	Panajachel	8	Panajachel	2	Febrero	2023-02-27T00:00:00	2024-11-08T07:00:00	7	Dirección del viento	0
22195	7	Sololá	710	Panajachel	8	Panajachel	2	Febrero	2023-02-27T00:00:00	2024-11-08T07:00:00	1	Precipitación	0
22196	7	Sololá	710	Panajachel	8	Panajachel	2	Febrero	2023-02-27T00:00:00	2024-11-08T07:00:00	8	Radiación solar	8
22197	7	Sololá	710	Panajachel	8	Panajachel	2	Febrero	2023-02-27T00:00:00	2024-11-08T08:00:00	2	Temperatura media	15.9
22198	7	Sololá	710	Panajachel	8	Panajachel	2	Febrero	2023-02-27T00:00:00	2024-11-08T08:00:00	4	Temperatura máxima	15.9
22199	7	Sololá	710	Panajachel	8	Panajachel	2	Febrero	2023-02-27T00:00:00	2024-11-08T08:00:00	3	Temperatura mínima	12.9
22200	7	Sololá	710	Panajachel	8	Panajachel	2	Febrero	2023-02-27T00:00:00	2024-11-08T08:00:00	5	Humedad	69
22201	7	Sololá	710	Panajachel	8	Panajachel	2	Febrero	2023-02-27T00:00:00	2024-11-08T08:00:00	6	Velocidad del viento	1.6
22202	7	Sololá	710	Panajachel	8	Panajachel	2	Febrero	2023-02-27T00:00:00	2024-11-08T08:00:00	7	Dirección del viento	1.61
22203	7	Sololá	710	Panajachel	8	Panajachel	2	Febrero	2023-02-27T00:00:00	2024-11-08T08:00:00	1	Precipitación	0
22204	7	Sololá	710	Panajachel	8	Panajachel	2	Febrero	2023-02-27T00:00:00	2024-11-08T08:00:00	8	Radiación solar	179
22205	7	Sololá	710	Panajachel	8	Panajachel	2	Febrero	2023-02-27T00:00:00	2024-11-08T09:00:00	2	Temperatura media	17.7
22206	7	Sololá	710	Panajachel	8	Panajachel	2	Febrero	2023-02-27T00:00:00	2024-11-08T09:00:00	4	Temperatura máxima	17.7
22207	7	Sololá	710	Panajachel	8	Panajachel	2	Febrero	2023-02-27T00:00:00	2024-11-08T09:00:00	3	Temperatura mínima	15.9
22208	7	Sololá	710	Panajachel	8	Panajachel	2	Febrero	2023-02-27T00:00:00	2024-11-08T09:00:00	5	Humedad	75
22209	7	Sololá	710	Panajachel	8	Panajachel	2	Febrero	2023-02-27T00:00:00	2024-11-08T09:00:00	6	Velocidad del viento	0
22210	7	Sololá	710	Panajachel	8	Panajachel	2	Febrero	2023-02-27T00:00:00	2024-11-08T09:00:00	7	Dirección del viento	0
22211	7	Sololá	710	Panajachel	8	Panajachel	2	Febrero	2023-02-27T00:00:00	2024-11-08T09:00:00	1	Precipitación	0
22212	7	Sololá	710	Panajachel	8	Panajachel	2	Febrero	2023-02-27T00:00:00	2024-11-08T09:00:00	8	Radiación solar	432
22213	7	Sololá	710	Panajachel	8	Panajachel	2	Febrero	2023-02-27T00:00:00	2024-11-08T10:00:00	2	Temperatura media	18.8
22214	7	Sololá	710	Panajachel	8	Panajachel	2	Febrero	2023-02-27T00:00:00	2024-11-08T10:00:00	4	Temperatura máxima	18.8
22215	7	Sololá	710	Panajachel	8	Panajachel	2	Febrero	2023-02-27T00:00:00	2024-11-08T10:00:00	3	Temperatura mínima	17.7
22216	7	Sololá	710	Panajachel	8	Panajachel	2	Febrero	2023-02-27T00:00:00	2024-11-08T10:00:00	5	Humedad	72
22217	7	Sololá	710	Panajachel	8	Panajachel	2	Febrero	2023-02-27T00:00:00	2024-11-08T10:00:00	6	Velocidad del viento	0
22218	7	Sololá	710	Panajachel	8	Panajachel	2	Febrero	2023-02-27T00:00:00	2024-11-08T10:00:00	7	Dirección del viento	0
22219	7	Sololá	710	Panajachel	8	Panajachel	2	Febrero	2023-02-27T00:00:00	2024-11-08T10:00:00	1	Precipitación	0
22220	7	Sololá	710	Panajachel	8	Panajachel	2	Febrero	2023-02-27T00:00:00	2024-11-08T10:00:00	8	Radiación solar	646
22221	7	Sololá	710	Panajachel	8	Panajachel	2	Febrero	2023-02-27T00:00:00	2024-11-08T11:00:00	2	Temperatura media	20.7
22222	7	Sololá	710	Panajachel	8	Panajachel	2	Febrero	2023-02-27T00:00:00	2024-11-08T11:00:00	4	Temperatura máxima	20.7
22223	7	Sololá	710	Panajachel	8	Panajachel	2	Febrero	2023-02-27T00:00:00	2024-11-08T11:00:00	3	Temperatura mínima	18.8
22224	7	Sololá	710	Panajachel	8	Panajachel	2	Febrero	2023-02-27T00:00:00	2024-11-08T11:00:00	5	Humedad	62
22225	7	Sololá	710	Panajachel	8	Panajachel	2	Febrero	2023-02-27T00:00:00	2024-11-08T11:00:00	6	Velocidad del viento	0
22226	7	Sololá	710	Panajachel	8	Panajachel	2	Febrero	2023-02-27T00:00:00	2024-11-08T11:00:00	7	Dirección del viento	0
22227	7	Sololá	710	Panajachel	8	Panajachel	2	Febrero	2023-02-27T00:00:00	2024-11-08T11:00:00	1	Precipitación	0
22228	7	Sololá	710	Panajachel	8	Panajachel	2	Febrero	2023-02-27T00:00:00	2024-11-08T11:00:00	8	Radiación solar	809
22229	7	Sololá	710	Panajachel	8	Panajachel	2	Febrero	2023-02-27T00:00:00	2024-11-08T12:00:00	2	Temperatura media	20.8
22230	7	Sololá	710	Panajachel	8	Panajachel	2	Febrero	2023-02-27T00:00:00	2024-11-08T12:00:00	4	Temperatura máxima	21.2
22231	7	Sololá	710	Panajachel	8	Panajachel	2	Febrero	2023-02-27T00:00:00	2024-11-08T12:00:00	3	Temperatura mínima	20.2
22232	7	Sololá	710	Panajachel	8	Panajachel	2	Febrero	2023-02-27T00:00:00	2024-11-08T12:00:00	5	Humedad	63
22233	7	Sololá	710	Panajachel	8	Panajachel	2	Febrero	2023-02-27T00:00:00	2024-11-08T12:00:00	6	Velocidad del viento	1.6
22234	7	Sololá	710	Panajachel	8	Panajachel	2	Febrero	2023-02-27T00:00:00	2024-11-08T12:00:00	7	Dirección del viento	1.61
22235	7	Sololá	710	Panajachel	8	Panajachel	2	Febrero	2023-02-27T00:00:00	2024-11-08T12:00:00	1	Precipitación	0
22236	7	Sololá	710	Panajachel	8	Panajachel	2	Febrero	2023-02-27T00:00:00	2024-11-08T12:00:00	8	Radiación solar	899
22237	7	Sololá	710	Panajachel	8	Panajachel	2	Febrero	2023-02-27T00:00:00	2024-11-08T13:00:00	2	Temperatura media	21.6
22238	7	Sololá	710	Panajachel	8	Panajachel	2	Febrero	2023-02-27T00:00:00	2024-11-08T13:00:00	4	Temperatura máxima	21.6
22239	7	Sololá	710	Panajachel	8	Panajachel	2	Febrero	2023-02-27T00:00:00	2024-11-08T13:00:00	3	Temperatura mínima	20.6
22240	7	Sololá	710	Panajachel	8	Panajachel	2	Febrero	2023-02-27T00:00:00	2024-11-08T13:00:00	5	Humedad	71
22241	7	Sololá	710	Panajachel	8	Panajachel	2	Febrero	2023-02-27T00:00:00	2024-11-08T13:00:00	6	Velocidad del viento	6.4
22242	7	Sololá	710	Panajachel	8	Panajachel	2	Febrero	2023-02-27T00:00:00	2024-11-08T13:00:00	7	Dirección del viento	6.44
22243	7	Sololá	710	Panajachel	8	Panajachel	2	Febrero	2023-02-27T00:00:00	2024-11-08T13:00:00	1	Precipitación	0
22244	7	Sololá	710	Panajachel	8	Panajachel	2	Febrero	2023-02-27T00:00:00	2024-11-08T13:00:00	8	Radiación solar	913
22245	7	Sololá	710	Panajachel	8	Panajachel	2	Febrero	2023-02-27T00:00:00	2024-11-08T14:00:00	2	Temperatura media	21.9
22246	7	Sololá	710	Panajachel	8	Panajachel	2	Febrero	2023-02-27T00:00:00	2024-11-08T14:00:00	4	Temperatura máxima	22.4
22247	7	Sololá	710	Panajachel	8	Panajachel	2	Febrero	2023-02-27T00:00:00	2024-11-08T14:00:00	3	Temperatura mínima	21.4
22248	7	Sololá	710	Panajachel	8	Panajachel	2	Febrero	2023-02-27T00:00:00	2024-11-08T14:00:00	5	Humedad	76
22249	7	Sololá	710	Panajachel	8	Panajachel	2	Febrero	2023-02-27T00:00:00	2024-11-08T14:00:00	6	Velocidad del viento	9.7
22250	7	Sololá	710	Panajachel	8	Panajachel	2	Febrero	2023-02-27T00:00:00	2024-11-08T14:00:00	7	Dirección del viento	9.66
22251	7	Sololá	710	Panajachel	8	Panajachel	2	Febrero	2023-02-27T00:00:00	2024-11-08T14:00:00	1	Precipitación	0
22252	7	Sololá	710	Panajachel	8	Panajachel	2	Febrero	2023-02-27T00:00:00	2024-11-08T14:00:00	8	Radiación solar	844
22253	7	Sololá	710	Panajachel	8	Panajachel	2	Febrero	2023-02-27T00:00:00	2024-11-08T15:00:00	2	Temperatura media	21.7
22254	7	Sololá	710	Panajachel	8	Panajachel	2	Febrero	2023-02-27T00:00:00	2024-11-08T15:00:00	4	Temperatura máxima	22.5
22255	7	Sololá	710	Panajachel	8	Panajachel	2	Febrero	2023-02-27T00:00:00	2024-11-08T15:00:00	3	Temperatura mínima	21.6
22256	7	Sololá	710	Panajachel	8	Panajachel	2	Febrero	2023-02-27T00:00:00	2024-11-08T15:00:00	5	Humedad	77
22257	7	Sololá	710	Panajachel	8	Panajachel	2	Febrero	2023-02-27T00:00:00	2024-11-08T15:00:00	6	Velocidad del viento	12.9
22258	7	Sololá	710	Panajachel	8	Panajachel	2	Febrero	2023-02-27T00:00:00	2024-11-08T15:00:00	7	Dirección del viento	12.87
22259	7	Sololá	710	Panajachel	8	Panajachel	2	Febrero	2023-02-27T00:00:00	2024-11-08T15:00:00	1	Precipitación	0
22260	7	Sololá	710	Panajachel	8	Panajachel	2	Febrero	2023-02-27T00:00:00	2024-11-08T15:00:00	8	Radiación solar	724
22261	7	Sololá	710	Panajachel	8	Panajachel	2	Febrero	2023-02-27T00:00:00	2024-11-08T16:00:00	2	Temperatura media	21.4
22262	7	Sololá	710	Panajachel	8	Panajachel	2	Febrero	2023-02-27T00:00:00	2024-11-08T16:00:00	4	Temperatura máxima	22.6
22263	7	Sololá	710	Panajachel	8	Panajachel	2	Febrero	2023-02-27T00:00:00	2024-11-08T16:00:00	3	Temperatura mínima	21.4
22264	7	Sololá	710	Panajachel	8	Panajachel	2	Febrero	2023-02-27T00:00:00	2024-11-08T16:00:00	5	Humedad	75
22265	7	Sololá	710	Panajachel	8	Panajachel	2	Febrero	2023-02-27T00:00:00	2024-11-08T16:00:00	6	Velocidad del viento	8
22266	7	Sololá	710	Panajachel	8	Panajachel	2	Febrero	2023-02-27T00:00:00	2024-11-08T16:00:00	7	Dirección del viento	8.05
22267	7	Sololá	710	Panajachel	8	Panajachel	2	Febrero	2023-02-27T00:00:00	2024-11-08T16:00:00	1	Precipitación	0
22268	7	Sololá	710	Panajachel	8	Panajachel	2	Febrero	2023-02-27T00:00:00	2024-11-08T16:00:00	8	Radiación solar	396
22269	7	Sololá	710	Panajachel	8	Panajachel	2	Febrero	2023-02-27T00:00:00	2024-11-08T17:00:00	2	Temperatura media	20.8
22270	7	Sololá	710	Panajachel	8	Panajachel	2	Febrero	2023-02-27T00:00:00	2024-11-08T17:00:00	4	Temperatura máxima	21.6
22271	7	Sololá	710	Panajachel	8	Panajachel	2	Febrero	2023-02-27T00:00:00	2024-11-08T17:00:00	3	Temperatura mínima	20.6
22272	7	Sololá	710	Panajachel	8	Panajachel	2	Febrero	2023-02-27T00:00:00	2024-11-08T17:00:00	5	Humedad	80
22273	7	Sololá	710	Panajachel	8	Panajachel	2	Febrero	2023-02-27T00:00:00	2024-11-08T17:00:00	6	Velocidad del viento	4.8
22274	7	Sololá	710	Panajachel	8	Panajachel	2	Febrero	2023-02-27T00:00:00	2024-11-08T17:00:00	7	Dirección del viento	4.83
22275	7	Sololá	710	Panajachel	8	Panajachel	2	Febrero	2023-02-27T00:00:00	2024-11-08T17:00:00	1	Precipitación	0
22276	7	Sololá	710	Panajachel	8	Panajachel	2	Febrero	2023-02-27T00:00:00	2024-11-08T17:00:00	8	Radiación solar	82
22277	7	Sololá	710	Panajachel	8	Panajachel	2	Febrero	2023-02-27T00:00:00	2024-11-08T18:00:00	2	Temperatura media	20.3
22278	7	Sololá	710	Panajachel	8	Panajachel	2	Febrero	2023-02-27T00:00:00	2024-11-08T18:00:00	4	Temperatura máxima	20.8
22279	7	Sololá	710	Panajachel	8	Panajachel	2	Febrero	2023-02-27T00:00:00	2024-11-08T18:00:00	3	Temperatura mínima	20.3
22280	7	Sololá	710	Panajachel	8	Panajachel	2	Febrero	2023-02-27T00:00:00	2024-11-08T18:00:00	5	Humedad	79
22281	7	Sololá	710	Panajachel	8	Panajachel	2	Febrero	2023-02-27T00:00:00	2024-11-08T18:00:00	6	Velocidad del viento	0
22282	7	Sololá	710	Panajachel	8	Panajachel	2	Febrero	2023-02-27T00:00:00	2024-11-08T18:00:00	7	Dirección del viento	0
22283	7	Sololá	710	Panajachel	8	Panajachel	2	Febrero	2023-02-27T00:00:00	2024-11-08T18:00:00	1	Precipitación	0
22284	7	Sololá	710	Panajachel	8	Panajachel	2	Febrero	2023-02-27T00:00:00	2024-11-08T18:00:00	8	Radiación solar	35
22285	7	Sololá	710	Panajachel	8	Panajachel	2	Febrero	2023-02-27T00:00:00	2024-11-08T19:00:00	2	Temperatura media	19.3
22286	7	Sololá	710	Panajachel	8	Panajachel	2	Febrero	2023-02-27T00:00:00	2024-11-08T19:00:00	4	Temperatura máxima	20.4
22287	7	Sololá	710	Panajachel	8	Panajachel	2	Febrero	2023-02-27T00:00:00	2024-11-08T19:00:00	3	Temperatura mínima	19.3
22288	7	Sololá	710	Panajachel	8	Panajachel	2	Febrero	2023-02-27T00:00:00	2024-11-08T19:00:00	5	Humedad	83
22289	7	Sololá	710	Panajachel	8	Panajachel	2	Febrero	2023-02-27T00:00:00	2024-11-08T19:00:00	6	Velocidad del viento	0
22290	7	Sololá	710	Panajachel	8	Panajachel	2	Febrero	2023-02-27T00:00:00	2024-11-08T19:00:00	7	Dirección del viento	0
22291	7	Sololá	710	Panajachel	8	Panajachel	2	Febrero	2023-02-27T00:00:00	2024-11-08T19:00:00	1	Precipitación	0
22292	7	Sololá	710	Panajachel	8	Panajachel	2	Febrero	2023-02-27T00:00:00	2024-11-08T19:00:00	8	Radiación solar	0
22293	7	Sololá	710	Panajachel	8	Panajachel	2	Febrero	2023-02-27T00:00:00	2024-11-08T20:00:00	2	Temperatura media	18.2
22294	7	Sololá	710	Panajachel	8	Panajachel	2	Febrero	2023-02-27T00:00:00	2024-11-08T20:00:00	4	Temperatura máxima	19.3
22295	7	Sololá	710	Panajachel	8	Panajachel	2	Febrero	2023-02-27T00:00:00	2024-11-08T20:00:00	3	Temperatura mínima	18.2
22296	7	Sololá	710	Panajachel	8	Panajachel	2	Febrero	2023-02-27T00:00:00	2024-11-08T20:00:00	5	Humedad	81
22297	7	Sololá	710	Panajachel	8	Panajachel	2	Febrero	2023-02-27T00:00:00	2024-11-08T20:00:00	6	Velocidad del viento	1.6
22298	7	Sololá	710	Panajachel	8	Panajachel	2	Febrero	2023-02-27T00:00:00	2024-11-08T20:00:00	7	Dirección del viento	1.61
22299	7	Sololá	710	Panajachel	8	Panajachel	2	Febrero	2023-02-27T00:00:00	2024-11-08T20:00:00	1	Precipitación	0
22300	7	Sololá	710	Panajachel	8	Panajachel	2	Febrero	2023-02-27T00:00:00	2024-11-08T20:00:00	8	Radiación solar	0
22301	7	Sololá	710	Panajachel	8	Panajachel	2	Febrero	2023-02-27T00:00:00	2024-11-08T21:00:00	2	Temperatura media	17.7
22302	7	Sololá	710	Panajachel	8	Panajachel	2	Febrero	2023-02-27T00:00:00	2024-11-08T21:00:00	4	Temperatura máxima	18.2
22303	7	Sololá	710	Panajachel	8	Panajachel	2	Febrero	2023-02-27T00:00:00	2024-11-08T21:00:00	3	Temperatura mínima	17.7
22304	7	Sololá	710	Panajachel	8	Panajachel	2	Febrero	2023-02-27T00:00:00	2024-11-08T21:00:00	5	Humedad	79
22305	7	Sololá	710	Panajachel	8	Panajachel	2	Febrero	2023-02-27T00:00:00	2024-11-08T21:00:00	6	Velocidad del viento	1.6
22306	7	Sololá	710	Panajachel	8	Panajachel	2	Febrero	2023-02-27T00:00:00	2024-11-08T21:00:00	7	Dirección del viento	1.61
22307	7	Sololá	710	Panajachel	8	Panajachel	2	Febrero	2023-02-27T00:00:00	2024-11-08T21:00:00	1	Precipitación	0
22308	7	Sololá	710	Panajachel	8	Panajachel	2	Febrero	2023-02-27T00:00:00	2024-11-08T21:00:00	8	Radiación solar	0
22309	7	Sololá	710	Panajachel	8	Panajachel	2	Febrero	2023-02-27T00:00:00	2024-11-08T22:00:00	2	Temperatura media	16.8
22310	7	Sololá	710	Panajachel	8	Panajachel	2	Febrero	2023-02-27T00:00:00	2024-11-08T22:00:00	4	Temperatura máxima	17.7
22311	7	Sololá	710	Panajachel	8	Panajachel	2	Febrero	2023-02-27T00:00:00	2024-11-08T22:00:00	3	Temperatura mínima	16.8
22312	7	Sololá	710	Panajachel	8	Panajachel	2	Febrero	2023-02-27T00:00:00	2024-11-08T22:00:00	5	Humedad	80
22313	7	Sololá	710	Panajachel	8	Panajachel	2	Febrero	2023-02-27T00:00:00	2024-11-08T22:00:00	6	Velocidad del viento	4.8
22314	7	Sololá	710	Panajachel	8	Panajachel	2	Febrero	2023-02-27T00:00:00	2024-11-08T22:00:00	7	Dirección del viento	4.83
22315	7	Sololá	710	Panajachel	8	Panajachel	2	Febrero	2023-02-27T00:00:00	2024-11-08T22:00:00	1	Precipitación	0
22316	7	Sololá	710	Panajachel	8	Panajachel	2	Febrero	2023-02-27T00:00:00	2024-11-08T22:00:00	8	Radiación solar	0
22317	7	Sololá	710	Panajachel	8	Panajachel	2	Febrero	2023-02-27T00:00:00	2024-11-08T23:00:00	2	Temperatura media	16
22318	7	Sololá	710	Panajachel	8	Panajachel	2	Febrero	2023-02-27T00:00:00	2024-11-08T23:00:00	4	Temperatura máxima	16.9
22319	7	Sololá	710	Panajachel	8	Panajachel	2	Febrero	2023-02-27T00:00:00	2024-11-08T23:00:00	3	Temperatura mínima	16
22320	7	Sololá	710	Panajachel	8	Panajachel	2	Febrero	2023-02-27T00:00:00	2024-11-08T23:00:00	5	Humedad	80
22321	7	Sololá	710	Panajachel	8	Panajachel	2	Febrero	2023-02-27T00:00:00	2024-11-08T23:00:00	6	Velocidad del viento	3.2
22322	7	Sololá	710	Panajachel	8	Panajachel	2	Febrero	2023-02-27T00:00:00	2024-11-08T23:00:00	7	Dirección del viento	3.22
22323	7	Sololá	710	Panajachel	8	Panajachel	2	Febrero	2023-02-27T00:00:00	2024-11-08T23:00:00	1	Precipitación	0
22324	7	Sololá	710	Panajachel	8	Panajachel	2	Febrero	2023-02-27T00:00:00	2024-11-08T23:00:00	8	Radiación solar	0
22325	7	Sololá	710	Panajachel	8	Panajachel	2	Febrero	2023-02-28T00:00:00	2024-11-08T00:00:00	2	Temperatura media	15.7
22326	7	Sololá	710	Panajachel	8	Panajachel	2	Febrero	2023-02-28T00:00:00	2024-11-08T00:00:00	4	Temperatura máxima	16.2
22327	7	Sololá	710	Panajachel	8	Panajachel	2	Febrero	2023-02-28T00:00:00	2024-11-08T00:00:00	3	Temperatura mínima	15.7
22328	7	Sololá	710	Panajachel	8	Panajachel	2	Febrero	2023-02-28T00:00:00	2024-11-08T00:00:00	5	Humedad	81
22329	7	Sololá	710	Panajachel	8	Panajachel	2	Febrero	2023-02-28T00:00:00	2024-11-08T00:00:00	6	Velocidad del viento	1.6
22330	7	Sololá	710	Panajachel	8	Panajachel	2	Febrero	2023-02-28T00:00:00	2024-11-08T00:00:00	7	Dirección del viento	1.61
22331	7	Sololá	710	Panajachel	8	Panajachel	2	Febrero	2023-02-28T00:00:00	2024-11-08T00:00:00	1	Precipitación	0
22332	7	Sololá	710	Panajachel	8	Panajachel	2	Febrero	2023-02-28T00:00:00	2024-11-08T00:00:00	8	Radiación solar	0
22333	7	Sololá	710	Panajachel	8	Panajachel	2	Febrero	2023-02-28T00:00:00	2024-11-08T01:00:00	2	Temperatura media	15.5
22334	7	Sololá	710	Panajachel	8	Panajachel	2	Febrero	2023-02-28T00:00:00	2024-11-08T01:00:00	4	Temperatura máxima	15.8
22335	7	Sololá	710	Panajachel	8	Panajachel	2	Febrero	2023-02-28T00:00:00	2024-11-08T01:00:00	3	Temperatura mínima	15.5
22336	7	Sololá	710	Panajachel	8	Panajachel	2	Febrero	2023-02-28T00:00:00	2024-11-08T01:00:00	5	Humedad	78
22337	7	Sololá	710	Panajachel	8	Panajachel	2	Febrero	2023-02-28T00:00:00	2024-11-08T01:00:00	6	Velocidad del viento	1.6
22338	7	Sololá	710	Panajachel	8	Panajachel	2	Febrero	2023-02-28T00:00:00	2024-11-08T01:00:00	7	Dirección del viento	1.61
22339	7	Sololá	710	Panajachel	8	Panajachel	2	Febrero	2023-02-28T00:00:00	2024-11-08T01:00:00	1	Precipitación	0
22340	7	Sololá	710	Panajachel	8	Panajachel	2	Febrero	2023-02-28T00:00:00	2024-11-08T01:00:00	8	Radiación solar	0
22341	7	Sololá	710	Panajachel	8	Panajachel	2	Febrero	2023-02-28T00:00:00	2024-11-08T02:00:00	2	Temperatura media	15
22342	7	Sololá	710	Panajachel	8	Panajachel	2	Febrero	2023-02-28T00:00:00	2024-11-08T02:00:00	4	Temperatura máxima	15.6
22343	7	Sololá	710	Panajachel	8	Panajachel	2	Febrero	2023-02-28T00:00:00	2024-11-08T02:00:00	3	Temperatura mínima	15
22344	7	Sololá	710	Panajachel	8	Panajachel	2	Febrero	2023-02-28T00:00:00	2024-11-08T02:00:00	5	Humedad	80
22345	7	Sololá	710	Panajachel	8	Panajachel	2	Febrero	2023-02-28T00:00:00	2024-11-08T02:00:00	6	Velocidad del viento	1.6
22346	7	Sololá	710	Panajachel	8	Panajachel	2	Febrero	2023-02-28T00:00:00	2024-11-08T02:00:00	7	Dirección del viento	1.61
22347	7	Sololá	710	Panajachel	8	Panajachel	2	Febrero	2023-02-28T00:00:00	2024-11-08T02:00:00	1	Precipitación	0
22348	7	Sololá	710	Panajachel	8	Panajachel	2	Febrero	2023-02-28T00:00:00	2024-11-08T02:00:00	8	Radiación solar	0
22349	7	Sololá	710	Panajachel	8	Panajachel	2	Febrero	2023-02-28T00:00:00	2024-11-08T03:00:00	2	Temperatura media	15.1
22350	7	Sololá	710	Panajachel	8	Panajachel	2	Febrero	2023-02-28T00:00:00	2024-11-08T03:00:00	4	Temperatura máxima	15.2
22351	7	Sololá	710	Panajachel	8	Panajachel	2	Febrero	2023-02-28T00:00:00	2024-11-08T03:00:00	3	Temperatura mínima	14.9
22352	7	Sololá	710	Panajachel	8	Panajachel	2	Febrero	2023-02-28T00:00:00	2024-11-08T03:00:00	5	Humedad	76
22353	7	Sololá	710	Panajachel	8	Panajachel	2	Febrero	2023-02-28T00:00:00	2024-11-08T03:00:00	6	Velocidad del viento	1.6
22354	7	Sololá	710	Panajachel	8	Panajachel	2	Febrero	2023-02-28T00:00:00	2024-11-08T03:00:00	7	Dirección del viento	1.61
22355	7	Sololá	710	Panajachel	8	Panajachel	2	Febrero	2023-02-28T00:00:00	2024-11-08T03:00:00	1	Precipitación	0
22356	7	Sololá	710	Panajachel	8	Panajachel	2	Febrero	2023-02-28T00:00:00	2024-11-08T03:00:00	8	Radiación solar	0
22357	7	Sololá	710	Panajachel	8	Panajachel	2	Febrero	2023-02-28T00:00:00	2024-11-08T04:00:00	2	Temperatura media	14.3
22358	7	Sololá	710	Panajachel	8	Panajachel	2	Febrero	2023-02-28T00:00:00	2024-11-08T04:00:00	4	Temperatura máxima	15.1
22359	7	Sololá	710	Panajachel	8	Panajachel	2	Febrero	2023-02-28T00:00:00	2024-11-08T04:00:00	3	Temperatura mínima	14.3
22360	7	Sololá	710	Panajachel	8	Panajachel	2	Febrero	2023-02-28T00:00:00	2024-11-08T04:00:00	5	Humedad	80
22361	7	Sololá	710	Panajachel	8	Panajachel	2	Febrero	2023-02-28T00:00:00	2024-11-08T04:00:00	6	Velocidad del viento	1.6
22362	7	Sololá	710	Panajachel	8	Panajachel	2	Febrero	2023-02-28T00:00:00	2024-11-08T04:00:00	7	Dirección del viento	1.61
22363	7	Sololá	710	Panajachel	8	Panajachel	2	Febrero	2023-02-28T00:00:00	2024-11-08T04:00:00	1	Precipitación	0
22364	7	Sololá	710	Panajachel	8	Panajachel	2	Febrero	2023-02-28T00:00:00	2024-11-08T04:00:00	8	Radiación solar	0
22365	7	Sololá	710	Panajachel	8	Panajachel	2	Febrero	2023-02-28T00:00:00	2024-11-08T05:00:00	2	Temperatura media	14.3
22366	7	Sololá	710	Panajachel	8	Panajachel	2	Febrero	2023-02-28T00:00:00	2024-11-08T05:00:00	4	Temperatura máxima	14.5
22367	7	Sololá	710	Panajachel	8	Panajachel	2	Febrero	2023-02-28T00:00:00	2024-11-08T05:00:00	3	Temperatura mínima	14.3
22368	7	Sololá	710	Panajachel	8	Panajachel	2	Febrero	2023-02-28T00:00:00	2024-11-08T05:00:00	5	Humedad	79
22369	7	Sololá	710	Panajachel	8	Panajachel	2	Febrero	2023-02-28T00:00:00	2024-11-08T05:00:00	6	Velocidad del viento	1.6
22370	7	Sololá	710	Panajachel	8	Panajachel	2	Febrero	2023-02-28T00:00:00	2024-11-08T05:00:00	7	Dirección del viento	1.61
22371	7	Sololá	710	Panajachel	8	Panajachel	2	Febrero	2023-02-28T00:00:00	2024-11-08T05:00:00	1	Precipitación	0
22372	7	Sololá	710	Panajachel	8	Panajachel	2	Febrero	2023-02-28T00:00:00	2024-11-08T05:00:00	8	Radiación solar	0
22373	7	Sololá	710	Panajachel	8	Panajachel	2	Febrero	2023-02-28T00:00:00	2024-11-08T06:00:00	2	Temperatura media	13.4
22374	7	Sololá	710	Panajachel	8	Panajachel	2	Febrero	2023-02-28T00:00:00	2024-11-08T06:00:00	4	Temperatura máxima	14.4
22375	7	Sololá	710	Panajachel	8	Panajachel	2	Febrero	2023-02-28T00:00:00	2024-11-08T06:00:00	3	Temperatura mínima	13.3
22376	7	Sololá	710	Panajachel	8	Panajachel	2	Febrero	2023-02-28T00:00:00	2024-11-08T06:00:00	5	Humedad	82
22377	7	Sololá	710	Panajachel	8	Panajachel	2	Febrero	2023-02-28T00:00:00	2024-11-08T06:00:00	6	Velocidad del viento	0
22378	7	Sololá	710	Panajachel	8	Panajachel	2	Febrero	2023-02-28T00:00:00	2024-11-08T06:00:00	7	Dirección del viento	0
22379	7	Sololá	710	Panajachel	8	Panajachel	2	Febrero	2023-02-28T00:00:00	2024-11-08T06:00:00	1	Precipitación	0
22380	7	Sololá	710	Panajachel	8	Panajachel	2	Febrero	2023-02-28T00:00:00	2024-11-08T06:00:00	8	Radiación solar	0
22381	7	Sololá	710	Panajachel	8	Panajachel	2	Febrero	2023-02-28T00:00:00	2024-11-08T07:00:00	2	Temperatura media	13.7
22382	7	Sololá	710	Panajachel	8	Panajachel	2	Febrero	2023-02-28T00:00:00	2024-11-08T07:00:00	4	Temperatura máxima	13.8
22383	7	Sololá	710	Panajachel	8	Panajachel	2	Febrero	2023-02-28T00:00:00	2024-11-08T07:00:00	3	Temperatura mínima	13.3
22384	7	Sololá	710	Panajachel	8	Panajachel	2	Febrero	2023-02-28T00:00:00	2024-11-08T07:00:00	5	Humedad	78
22385	7	Sololá	710	Panajachel	8	Panajachel	2	Febrero	2023-02-28T00:00:00	2024-11-08T07:00:00	6	Velocidad del viento	1.6
22386	7	Sololá	710	Panajachel	8	Panajachel	2	Febrero	2023-02-28T00:00:00	2024-11-08T07:00:00	7	Dirección del viento	1.61
22387	7	Sololá	710	Panajachel	8	Panajachel	2	Febrero	2023-02-28T00:00:00	2024-11-08T07:00:00	1	Precipitación	0
22388	7	Sololá	710	Panajachel	8	Panajachel	2	Febrero	2023-02-28T00:00:00	2024-11-08T07:00:00	8	Radiación solar	8
22389	7	Sololá	710	Panajachel	8	Panajachel	2	Febrero	2023-02-28T00:00:00	2024-11-08T08:00:00	2	Temperatura media	16.4
22390	7	Sololá	710	Panajachel	8	Panajachel	2	Febrero	2023-02-28T00:00:00	2024-11-08T08:00:00	4	Temperatura máxima	16.4
22391	7	Sololá	710	Panajachel	8	Panajachel	2	Febrero	2023-02-28T00:00:00	2024-11-08T08:00:00	3	Temperatura mínima	13.6
22392	7	Sololá	710	Panajachel	8	Panajachel	2	Febrero	2023-02-28T00:00:00	2024-11-08T08:00:00	5	Humedad	67
22393	7	Sololá	710	Panajachel	8	Panajachel	2	Febrero	2023-02-28T00:00:00	2024-11-08T08:00:00	6	Velocidad del viento	1.6
22394	7	Sololá	710	Panajachel	8	Panajachel	2	Febrero	2023-02-28T00:00:00	2024-11-08T08:00:00	7	Dirección del viento	1.61
22395	7	Sololá	710	Panajachel	8	Panajachel	2	Febrero	2023-02-28T00:00:00	2024-11-08T08:00:00	1	Precipitación	0
22396	7	Sololá	710	Panajachel	8	Panajachel	2	Febrero	2023-02-28T00:00:00	2024-11-08T08:00:00	8	Radiación solar	170
22397	7	Sololá	710	Panajachel	8	Panajachel	2	Febrero	2023-02-28T00:00:00	2024-11-08T09:00:00	2	Temperatura media	18.4
22398	7	Sololá	710	Panajachel	8	Panajachel	2	Febrero	2023-02-28T00:00:00	2024-11-08T09:00:00	4	Temperatura máxima	18.9
22399	7	Sololá	710	Panajachel	8	Panajachel	2	Febrero	2023-02-28T00:00:00	2024-11-08T09:00:00	3	Temperatura mínima	16.5
22400	7	Sololá	710	Panajachel	8	Panajachel	2	Febrero	2023-02-28T00:00:00	2024-11-08T09:00:00	5	Humedad	74
22401	7	Sololá	710	Panajachel	8	Panajachel	2	Febrero	2023-02-28T00:00:00	2024-11-08T09:00:00	6	Velocidad del viento	0
22402	7	Sololá	710	Panajachel	8	Panajachel	2	Febrero	2023-02-28T00:00:00	2024-11-08T09:00:00	7	Dirección del viento	0
22403	7	Sololá	710	Panajachel	8	Panajachel	2	Febrero	2023-02-28T00:00:00	2024-11-08T09:00:00	1	Precipitación	0
22404	7	Sololá	710	Panajachel	8	Panajachel	2	Febrero	2023-02-28T00:00:00	2024-11-08T09:00:00	8	Radiación solar	426
22405	7	Sololá	710	Panajachel	8	Panajachel	2	Febrero	2023-02-28T00:00:00	2024-11-08T10:00:00	2	Temperatura media	18.9
22406	7	Sololá	710	Panajachel	8	Panajachel	2	Febrero	2023-02-28T00:00:00	2024-11-08T10:00:00	4	Temperatura máxima	19.2
22407	7	Sololá	710	Panajachel	8	Panajachel	2	Febrero	2023-02-28T00:00:00	2024-11-08T10:00:00	3	Temperatura mínima	18.4
22408	7	Sololá	710	Panajachel	8	Panajachel	2	Febrero	2023-02-28T00:00:00	2024-11-08T10:00:00	5	Humedad	72
22409	7	Sololá	710	Panajachel	8	Panajachel	2	Febrero	2023-02-28T00:00:00	2024-11-08T10:00:00	6	Velocidad del viento	1.6
22410	7	Sololá	710	Panajachel	8	Panajachel	2	Febrero	2023-02-28T00:00:00	2024-11-08T10:00:00	7	Dirección del viento	1.61
22411	7	Sololá	710	Panajachel	8	Panajachel	2	Febrero	2023-02-28T00:00:00	2024-11-08T10:00:00	1	Precipitación	0
22412	7	Sololá	710	Panajachel	8	Panajachel	2	Febrero	2023-02-28T00:00:00	2024-11-08T10:00:00	8	Radiación solar	641
22413	7	Sololá	710	Panajachel	8	Panajachel	2	Febrero	2023-02-28T00:00:00	2024-11-08T11:00:00	2	Temperatura media	20
22414	7	Sololá	710	Panajachel	8	Panajachel	2	Febrero	2023-02-28T00:00:00	2024-11-08T11:00:00	4	Temperatura máxima	20.1
22415	7	Sololá	710	Panajachel	8	Panajachel	2	Febrero	2023-02-28T00:00:00	2024-11-08T11:00:00	3	Temperatura mínima	18.7
22416	7	Sololá	710	Panajachel	8	Panajachel	2	Febrero	2023-02-28T00:00:00	2024-11-08T11:00:00	5	Humedad	70
22417	7	Sololá	710	Panajachel	8	Panajachel	2	Febrero	2023-02-28T00:00:00	2024-11-08T11:00:00	6	Velocidad del viento	0
22418	7	Sololá	710	Panajachel	8	Panajachel	2	Febrero	2023-02-28T00:00:00	2024-11-08T11:00:00	7	Dirección del viento	0
22419	7	Sololá	710	Panajachel	8	Panajachel	2	Febrero	2023-02-28T00:00:00	2024-11-08T11:00:00	1	Precipitación	0
22420	7	Sololá	710	Panajachel	8	Panajachel	2	Febrero	2023-02-28T00:00:00	2024-11-08T11:00:00	8	Radiación solar	805
22421	7	Sololá	710	Panajachel	8	Panajachel	2	Febrero	2023-02-28T00:00:00	2024-11-08T12:00:00	2	Temperatura media	20.8
22422	7	Sololá	710	Panajachel	8	Panajachel	2	Febrero	2023-02-28T00:00:00	2024-11-08T12:00:00	4	Temperatura máxima	20.9
22423	7	Sololá	710	Panajachel	8	Panajachel	2	Febrero	2023-02-28T00:00:00	2024-11-08T12:00:00	3	Temperatura mínima	20
22424	7	Sololá	710	Panajachel	8	Panajachel	2	Febrero	2023-02-28T00:00:00	2024-11-08T12:00:00	5	Humedad	70
22425	7	Sololá	710	Panajachel	8	Panajachel	2	Febrero	2023-02-28T00:00:00	2024-11-08T12:00:00	6	Velocidad del viento	3.2
22426	7	Sololá	710	Panajachel	8	Panajachel	2	Febrero	2023-02-28T00:00:00	2024-11-08T12:00:00	7	Dirección del viento	3.22
22427	7	Sololá	710	Panajachel	8	Panajachel	2	Febrero	2023-02-28T00:00:00	2024-11-08T12:00:00	1	Precipitación	0
22428	7	Sololá	710	Panajachel	8	Panajachel	2	Febrero	2023-02-28T00:00:00	2024-11-08T12:00:00	8	Radiación solar	872
22429	7	Sololá	710	Panajachel	8	Panajachel	2	Febrero	2023-02-28T00:00:00	2024-11-08T13:00:00	2	Temperatura media	22.3
22430	7	Sololá	710	Panajachel	8	Panajachel	2	Febrero	2023-02-28T00:00:00	2024-11-08T13:00:00	4	Temperatura máxima	22.3
22431	7	Sololá	710	Panajachel	8	Panajachel	2	Febrero	2023-02-28T00:00:00	2024-11-08T13:00:00	3	Temperatura mínima	20.8
22432	7	Sololá	710	Panajachel	8	Panajachel	2	Febrero	2023-02-28T00:00:00	2024-11-08T13:00:00	5	Humedad	72
22433	7	Sololá	710	Panajachel	8	Panajachel	2	Febrero	2023-02-28T00:00:00	2024-11-08T13:00:00	6	Velocidad del viento	3.2
22434	7	Sololá	710	Panajachel	8	Panajachel	2	Febrero	2023-02-28T00:00:00	2024-11-08T13:00:00	7	Dirección del viento	3.22
22435	7	Sololá	710	Panajachel	8	Panajachel	2	Febrero	2023-02-28T00:00:00	2024-11-08T13:00:00	1	Precipitación	0
22436	7	Sololá	710	Panajachel	8	Panajachel	2	Febrero	2023-02-28T00:00:00	2024-11-08T13:00:00	8	Radiación solar	863
22437	7	Sololá	710	Panajachel	8	Panajachel	2	Febrero	2023-02-28T00:00:00	2024-11-08T14:00:00	2	Temperatura media	23.3
22438	7	Sololá	710	Panajachel	8	Panajachel	2	Febrero	2023-02-28T00:00:00	2024-11-08T14:00:00	4	Temperatura máxima	23.8
22439	7	Sololá	710	Panajachel	8	Panajachel	2	Febrero	2023-02-28T00:00:00	2024-11-08T14:00:00	3	Temperatura mínima	22
22440	7	Sololá	710	Panajachel	8	Panajachel	2	Febrero	2023-02-28T00:00:00	2024-11-08T14:00:00	5	Humedad	73
22441	7	Sololá	710	Panajachel	8	Panajachel	2	Febrero	2023-02-28T00:00:00	2024-11-08T14:00:00	6	Velocidad del viento	4.8
22442	7	Sololá	710	Panajachel	8	Panajachel	2	Febrero	2023-02-28T00:00:00	2024-11-08T14:00:00	7	Dirección del viento	4.83
22443	7	Sololá	710	Panajachel	8	Panajachel	2	Febrero	2023-02-28T00:00:00	2024-11-08T14:00:00	1	Precipitación	0
22444	7	Sololá	710	Panajachel	8	Panajachel	2	Febrero	2023-02-28T00:00:00	2024-11-08T14:00:00	8	Radiación solar	797
22445	7	Sololá	710	Panajachel	8	Panajachel	2	Febrero	2023-02-28T00:00:00	2024-11-08T15:00:00	2	Temperatura media	23.4
22446	7	Sololá	710	Panajachel	8	Panajachel	2	Febrero	2023-02-28T00:00:00	2024-11-08T15:00:00	4	Temperatura máxima	24.1
22447	7	Sololá	710	Panajachel	8	Panajachel	2	Febrero	2023-02-28T00:00:00	2024-11-08T15:00:00	3	Temperatura mínima	22.8
22448	7	Sololá	710	Panajachel	8	Panajachel	2	Febrero	2023-02-28T00:00:00	2024-11-08T15:00:00	5	Humedad	74
22449	7	Sololá	710	Panajachel	8	Panajachel	2	Febrero	2023-02-28T00:00:00	2024-11-08T15:00:00	6	Velocidad del viento	4.8
22450	7	Sololá	710	Panajachel	8	Panajachel	2	Febrero	2023-02-28T00:00:00	2024-11-08T15:00:00	7	Dirección del viento	4.83
22451	7	Sololá	710	Panajachel	8	Panajachel	2	Febrero	2023-02-28T00:00:00	2024-11-08T15:00:00	1	Precipitación	0
22452	7	Sololá	710	Panajachel	8	Panajachel	2	Febrero	2023-02-28T00:00:00	2024-11-08T15:00:00	8	Radiación solar	659
22453	7	Sololá	710	Panajachel	8	Panajachel	2	Febrero	2023-02-28T00:00:00	2024-11-08T16:00:00	2	Temperatura media	21.6
22454	7	Sololá	710	Panajachel	8	Panajachel	2	Febrero	2023-02-28T00:00:00	2024-11-08T16:00:00	4	Temperatura máxima	23.4
22455	7	Sololá	710	Panajachel	8	Panajachel	2	Febrero	2023-02-28T00:00:00	2024-11-08T16:00:00	3	Temperatura mínima	21.6
22456	7	Sololá	710	Panajachel	8	Panajachel	2	Febrero	2023-02-28T00:00:00	2024-11-08T16:00:00	5	Humedad	81
22457	7	Sololá	710	Panajachel	8	Panajachel	2	Febrero	2023-02-28T00:00:00	2024-11-08T16:00:00	6	Velocidad del viento	4.8
22458	7	Sololá	710	Panajachel	8	Panajachel	2	Febrero	2023-02-28T00:00:00	2024-11-08T16:00:00	7	Dirección del viento	4.83
22459	7	Sololá	710	Panajachel	8	Panajachel	2	Febrero	2023-02-28T00:00:00	2024-11-08T16:00:00	1	Precipitación	0
22460	7	Sololá	710	Panajachel	8	Panajachel	2	Febrero	2023-02-28T00:00:00	2024-11-08T16:00:00	8	Radiación solar	294
22461	7	Sololá	710	Panajachel	8	Panajachel	2	Febrero	2023-02-28T00:00:00	2024-11-08T17:00:00	2	Temperatura media	21.3
22462	7	Sololá	710	Panajachel	8	Panajachel	2	Febrero	2023-02-28T00:00:00	2024-11-08T17:00:00	4	Temperatura máxima	21.6
22463	7	Sololá	710	Panajachel	8	Panajachel	2	Febrero	2023-02-28T00:00:00	2024-11-08T17:00:00	3	Temperatura mínima	21.3
22464	7	Sololá	710	Panajachel	8	Panajachel	2	Febrero	2023-02-28T00:00:00	2024-11-08T17:00:00	5	Humedad	83
22465	7	Sololá	710	Panajachel	8	Panajachel	2	Febrero	2023-02-28T00:00:00	2024-11-08T17:00:00	6	Velocidad del viento	3.2
22466	7	Sololá	710	Panajachel	8	Panajachel	2	Febrero	2023-02-28T00:00:00	2024-11-08T17:00:00	7	Dirección del viento	3.22
22467	7	Sololá	710	Panajachel	8	Panajachel	2	Febrero	2023-02-28T00:00:00	2024-11-08T17:00:00	1	Precipitación	0
22468	7	Sololá	710	Panajachel	8	Panajachel	2	Febrero	2023-02-28T00:00:00	2024-11-08T17:00:00	8	Radiación solar	188
22469	7	Sololá	710	Panajachel	8	Panajachel	2	Febrero	2023-02-28T00:00:00	2024-11-08T18:00:00	2	Temperatura media	20.3
22470	7	Sololá	710	Panajachel	8	Panajachel	2	Febrero	2023-02-28T00:00:00	2024-11-08T18:00:00	4	Temperatura máxima	21.3
22471	7	Sololá	710	Panajachel	8	Panajachel	2	Febrero	2023-02-28T00:00:00	2024-11-08T18:00:00	3	Temperatura mínima	20.3
22472	7	Sololá	710	Panajachel	8	Panajachel	2	Febrero	2023-02-28T00:00:00	2024-11-08T18:00:00	5	Humedad	86
22473	7	Sololá	710	Panajachel	8	Panajachel	2	Febrero	2023-02-28T00:00:00	2024-11-08T18:00:00	6	Velocidad del viento	3.2
22474	7	Sololá	710	Panajachel	8	Panajachel	2	Febrero	2023-02-28T00:00:00	2024-11-08T18:00:00	7	Dirección del viento	3.22
22475	7	Sololá	710	Panajachel	8	Panajachel	2	Febrero	2023-02-28T00:00:00	2024-11-08T18:00:00	1	Precipitación	0
22476	7	Sololá	710	Panajachel	8	Panajachel	2	Febrero	2023-02-28T00:00:00	2024-11-08T18:00:00	8	Radiación solar	47
22477	7	Sololá	710	Panajachel	8	Panajachel	2	Febrero	2023-02-28T00:00:00	2024-11-08T19:00:00	2	Temperatura media	20
22478	7	Sololá	710	Panajachel	8	Panajachel	2	Febrero	2023-02-28T00:00:00	2024-11-08T19:00:00	4	Temperatura máxima	20.3
22479	7	Sololá	710	Panajachel	8	Panajachel	2	Febrero	2023-02-28T00:00:00	2024-11-08T19:00:00	3	Temperatura mínima	19.9
22480	7	Sololá	710	Panajachel	8	Panajachel	2	Febrero	2023-02-28T00:00:00	2024-11-08T19:00:00	5	Humedad	88
22481	7	Sololá	710	Panajachel	8	Panajachel	2	Febrero	2023-02-28T00:00:00	2024-11-08T19:00:00	6	Velocidad del viento	1.6
22482	7	Sololá	710	Panajachel	8	Panajachel	2	Febrero	2023-02-28T00:00:00	2024-11-08T19:00:00	7	Dirección del viento	1.61
22483	7	Sololá	710	Panajachel	8	Panajachel	2	Febrero	2023-02-28T00:00:00	2024-11-08T19:00:00	1	Precipitación	0
22484	7	Sololá	710	Panajachel	8	Panajachel	2	Febrero	2023-02-28T00:00:00	2024-11-08T19:00:00	8	Radiación solar	0
22485	7	Sololá	710	Panajachel	8	Panajachel	2	Febrero	2023-02-28T00:00:00	2024-11-08T20:00:00	2	Temperatura media	19.3
22486	7	Sololá	710	Panajachel	8	Panajachel	2	Febrero	2023-02-28T00:00:00	2024-11-08T20:00:00	4	Temperatura máxima	20
22487	7	Sololá	710	Panajachel	8	Panajachel	2	Febrero	2023-02-28T00:00:00	2024-11-08T20:00:00	3	Temperatura mínima	19.3
22488	7	Sololá	710	Panajachel	8	Panajachel	2	Febrero	2023-02-28T00:00:00	2024-11-08T20:00:00	5	Humedad	89
22489	7	Sololá	710	Panajachel	8	Panajachel	2	Febrero	2023-02-28T00:00:00	2024-11-08T20:00:00	6	Velocidad del viento	0
22490	7	Sololá	710	Panajachel	8	Panajachel	2	Febrero	2023-02-28T00:00:00	2024-11-08T20:00:00	7	Dirección del viento	0
22491	7	Sololá	710	Panajachel	8	Panajachel	2	Febrero	2023-02-28T00:00:00	2024-11-08T20:00:00	1	Precipitación	0
22492	7	Sololá	710	Panajachel	8	Panajachel	2	Febrero	2023-02-28T00:00:00	2024-11-08T20:00:00	8	Radiación solar	0
22493	7	Sololá	710	Panajachel	8	Panajachel	2	Febrero	2023-02-28T00:00:00	2024-11-08T21:00:00	2	Temperatura media	18.9
22494	7	Sololá	710	Panajachel	8	Panajachel	2	Febrero	2023-02-28T00:00:00	2024-11-08T21:00:00	4	Temperatura máxima	19.3
22495	7	Sololá	710	Panajachel	8	Panajachel	2	Febrero	2023-02-28T00:00:00	2024-11-08T21:00:00	3	Temperatura mínima	18.9
22496	7	Sololá	710	Panajachel	8	Panajachel	2	Febrero	2023-02-28T00:00:00	2024-11-08T21:00:00	5	Humedad	80
22497	7	Sololá	710	Panajachel	8	Panajachel	2	Febrero	2023-02-28T00:00:00	2024-11-08T21:00:00	6	Velocidad del viento	3.2
22498	7	Sololá	710	Panajachel	8	Panajachel	2	Febrero	2023-02-28T00:00:00	2024-11-08T21:00:00	7	Dirección del viento	3.22
22499	7	Sololá	710	Panajachel	8	Panajachel	2	Febrero	2023-02-28T00:00:00	2024-11-08T21:00:00	1	Precipitación	0
22500	7	Sololá	710	Panajachel	8	Panajachel	2	Febrero	2023-02-28T00:00:00	2024-11-08T21:00:00	8	Radiación solar	0
22501	7	Sololá	710	Panajachel	8	Panajachel	2	Febrero	2023-02-28T00:00:00	2024-11-08T22:00:00	2	Temperatura media	18.2
22502	7	Sololá	710	Panajachel	8	Panajachel	2	Febrero	2023-02-28T00:00:00	2024-11-08T22:00:00	4	Temperatura máxima	18.9
22503	7	Sololá	710	Panajachel	8	Panajachel	2	Febrero	2023-02-28T00:00:00	2024-11-08T22:00:00	3	Temperatura mínima	18.2
22504	7	Sololá	710	Panajachel	8	Panajachel	2	Febrero	2023-02-28T00:00:00	2024-11-08T22:00:00	5	Humedad	78
22505	7	Sololá	710	Panajachel	8	Panajachel	2	Febrero	2023-02-28T00:00:00	2024-11-08T22:00:00	6	Velocidad del viento	4.8
22506	7	Sololá	710	Panajachel	8	Panajachel	2	Febrero	2023-02-28T00:00:00	2024-11-08T22:00:00	7	Dirección del viento	4.83
22507	7	Sololá	710	Panajachel	8	Panajachel	2	Febrero	2023-02-28T00:00:00	2024-11-08T22:00:00	1	Precipitación	0
22508	7	Sololá	710	Panajachel	8	Panajachel	2	Febrero	2023-02-28T00:00:00	2024-11-08T22:00:00	8	Radiación solar	0
22509	7	Sololá	710	Panajachel	8	Panajachel	2	Febrero	2023-02-28T00:00:00	2024-11-08T23:00:00	2	Temperatura media	17.3
22510	7	Sololá	710	Panajachel	8	Panajachel	2	Febrero	2023-02-28T00:00:00	2024-11-08T23:00:00	4	Temperatura máxima	18.2
22511	7	Sololá	710	Panajachel	8	Panajachel	2	Febrero	2023-02-28T00:00:00	2024-11-08T23:00:00	3	Temperatura mínima	17.3
22512	7	Sololá	710	Panajachel	8	Panajachel	2	Febrero	2023-02-28T00:00:00	2024-11-08T23:00:00	5	Humedad	80
22513	7	Sololá	710	Panajachel	8	Panajachel	2	Febrero	2023-02-28T00:00:00	2024-11-08T23:00:00	6	Velocidad del viento	3.2
22514	7	Sololá	710	Panajachel	8	Panajachel	2	Febrero	2023-02-28T00:00:00	2024-11-08T23:00:00	7	Dirección del viento	3.22
22515	7	Sololá	710	Panajachel	8	Panajachel	2	Febrero	2023-02-28T00:00:00	2024-11-08T23:00:00	1	Precipitación	0
22516	7	Sololá	710	Panajachel	8	Panajachel	2	Febrero	2023-02-28T00:00:00	2024-11-08T23:00:00	8	Radiación solar	0
22517	7	Sololá	710	Panajachel	8	Panajachel	3	Marzo	2023-01-03T00:00:00	2024-11-08T00:00:00	2	Temperatura media	16.7
22518	7	Sololá	710	Panajachel	8	Panajachel	3	Marzo	2023-01-03T00:00:00	2024-11-08T00:00:00	4	Temperatura máxima	17.3
22519	7	Sololá	710	Panajachel	8	Panajachel	3	Marzo	2023-01-03T00:00:00	2024-11-08T00:00:00	3	Temperatura mínima	16.7
22520	7	Sololá	710	Panajachel	8	Panajachel	3	Marzo	2023-01-03T00:00:00	2024-11-08T00:00:00	5	Humedad	77
22521	7	Sololá	710	Panajachel	8	Panajachel	3	Marzo	2023-01-03T00:00:00	2024-11-08T00:00:00	6	Velocidad del viento	3.2
22522	7	Sololá	710	Panajachel	8	Panajachel	3	Marzo	2023-01-03T00:00:00	2024-11-08T00:00:00	7	Dirección del viento	3.22
22523	7	Sololá	710	Panajachel	8	Panajachel	3	Marzo	2023-01-03T00:00:00	2024-11-08T00:00:00	1	Precipitación	0
22524	7	Sololá	710	Panajachel	8	Panajachel	3	Marzo	2023-01-03T00:00:00	2024-11-08T00:00:00	8	Radiación solar	0
22525	7	Sololá	710	Panajachel	8	Panajachel	3	Marzo	2023-01-03T00:00:00	2024-11-08T01:00:00	2	Temperatura media	16.2
22526	7	Sololá	710	Panajachel	8	Panajachel	3	Marzo	2023-01-03T00:00:00	2024-11-08T01:00:00	4	Temperatura máxima	16.8
22527	7	Sololá	710	Panajachel	8	Panajachel	3	Marzo	2023-01-03T00:00:00	2024-11-08T01:00:00	3	Temperatura mínima	16.1
22528	7	Sololá	710	Panajachel	8	Panajachel	3	Marzo	2023-01-03T00:00:00	2024-11-08T01:00:00	5	Humedad	70
22529	7	Sololá	710	Panajachel	8	Panajachel	3	Marzo	2023-01-03T00:00:00	2024-11-08T01:00:00	6	Velocidad del viento	3.2
22530	7	Sololá	710	Panajachel	8	Panajachel	3	Marzo	2023-01-03T00:00:00	2024-11-08T01:00:00	7	Dirección del viento	3.22
22531	7	Sololá	710	Panajachel	8	Panajachel	3	Marzo	2023-01-03T00:00:00	2024-11-08T01:00:00	1	Precipitación	0
22532	7	Sololá	710	Panajachel	8	Panajachel	3	Marzo	2023-01-03T00:00:00	2024-11-08T01:00:00	8	Radiación solar	0
22533	7	Sololá	710	Panajachel	8	Panajachel	3	Marzo	2023-01-03T00:00:00	2024-11-08T02:00:00	2	Temperatura media	15.4
22534	7	Sololá	710	Panajachel	8	Panajachel	3	Marzo	2023-01-03T00:00:00	2024-11-08T02:00:00	4	Temperatura máxima	16.3
22535	7	Sololá	710	Panajachel	8	Panajachel	3	Marzo	2023-01-03T00:00:00	2024-11-08T02:00:00	3	Temperatura mínima	15.4
22536	7	Sololá	710	Panajachel	8	Panajachel	3	Marzo	2023-01-03T00:00:00	2024-11-08T02:00:00	5	Humedad	65
22537	7	Sololá	710	Panajachel	8	Panajachel	3	Marzo	2023-01-03T00:00:00	2024-11-08T02:00:00	6	Velocidad del viento	3.2
22538	7	Sololá	710	Panajachel	8	Panajachel	3	Marzo	2023-01-03T00:00:00	2024-11-08T02:00:00	7	Dirección del viento	3.22
22539	7	Sololá	710	Panajachel	8	Panajachel	3	Marzo	2023-01-03T00:00:00	2024-11-08T02:00:00	1	Precipitación	0
22540	7	Sololá	710	Panajachel	8	Panajachel	3	Marzo	2023-01-03T00:00:00	2024-11-08T02:00:00	8	Radiación solar	0
22541	7	Sololá	710	Panajachel	8	Panajachel	3	Marzo	2023-01-03T00:00:00	2024-11-08T03:00:00	2	Temperatura media	14.8
22542	7	Sololá	710	Panajachel	8	Panajachel	3	Marzo	2023-01-03T00:00:00	2024-11-08T03:00:00	4	Temperatura máxima	15.4
22543	7	Sololá	710	Panajachel	8	Panajachel	3	Marzo	2023-01-03T00:00:00	2024-11-08T03:00:00	3	Temperatura mínima	14.8
22544	7	Sololá	710	Panajachel	8	Panajachel	3	Marzo	2023-01-03T00:00:00	2024-11-08T03:00:00	5	Humedad	68
22545	7	Sololá	710	Panajachel	8	Panajachel	3	Marzo	2023-01-03T00:00:00	2024-11-08T03:00:00	6	Velocidad del viento	3.2
22546	7	Sololá	710	Panajachel	8	Panajachel	3	Marzo	2023-01-03T00:00:00	2024-11-08T03:00:00	7	Dirección del viento	3.22
22547	7	Sololá	710	Panajachel	8	Panajachel	3	Marzo	2023-01-03T00:00:00	2024-11-08T03:00:00	1	Precipitación	0
22548	7	Sololá	710	Panajachel	8	Panajachel	3	Marzo	2023-01-03T00:00:00	2024-11-08T03:00:00	8	Radiación solar	0
22549	7	Sololá	710	Panajachel	8	Panajachel	3	Marzo	2023-01-03T00:00:00	2024-11-08T04:00:00	2	Temperatura media	14.3
22550	7	Sololá	710	Panajachel	8	Panajachel	3	Marzo	2023-01-03T00:00:00	2024-11-08T04:00:00	4	Temperatura máxima	15
22551	7	Sololá	710	Panajachel	8	Panajachel	3	Marzo	2023-01-03T00:00:00	2024-11-08T04:00:00	3	Temperatura mínima	14.3
22552	7	Sololá	710	Panajachel	8	Panajachel	3	Marzo	2023-01-03T00:00:00	2024-11-08T04:00:00	5	Humedad	70
22553	7	Sololá	710	Panajachel	8	Panajachel	3	Marzo	2023-01-03T00:00:00	2024-11-08T04:00:00	6	Velocidad del viento	3.2
22554	7	Sololá	710	Panajachel	8	Panajachel	3	Marzo	2023-01-03T00:00:00	2024-11-08T04:00:00	7	Dirección del viento	3.22
22555	7	Sololá	710	Panajachel	8	Panajachel	3	Marzo	2023-01-03T00:00:00	2024-11-08T04:00:00	1	Precipitación	0
22556	7	Sololá	710	Panajachel	8	Panajachel	3	Marzo	2023-01-03T00:00:00	2024-11-08T04:00:00	8	Radiación solar	0
22557	7	Sololá	710	Panajachel	8	Panajachel	3	Marzo	2023-01-03T00:00:00	2024-11-08T05:00:00	2	Temperatura media	13.9
22558	7	Sololá	710	Panajachel	8	Panajachel	3	Marzo	2023-01-03T00:00:00	2024-11-08T05:00:00	4	Temperatura máxima	14.4
22559	7	Sololá	710	Panajachel	8	Panajachel	3	Marzo	2023-01-03T00:00:00	2024-11-08T05:00:00	3	Temperatura mínima	13.9
22560	7	Sololá	710	Panajachel	8	Panajachel	3	Marzo	2023-01-03T00:00:00	2024-11-08T05:00:00	5	Humedad	71
22561	7	Sololá	710	Panajachel	8	Panajachel	3	Marzo	2023-01-03T00:00:00	2024-11-08T05:00:00	6	Velocidad del viento	3.2
22562	7	Sololá	710	Panajachel	8	Panajachel	3	Marzo	2023-01-03T00:00:00	2024-11-08T05:00:00	7	Dirección del viento	3.22
22563	7	Sololá	710	Panajachel	8	Panajachel	3	Marzo	2023-01-03T00:00:00	2024-11-08T05:00:00	1	Precipitación	0
22564	7	Sololá	710	Panajachel	8	Panajachel	3	Marzo	2023-01-03T00:00:00	2024-11-08T05:00:00	8	Radiación solar	0
22565	7	Sololá	710	Panajachel	8	Panajachel	3	Marzo	2023-01-03T00:00:00	2024-11-08T06:00:00	2	Temperatura media	14.2
22566	7	Sololá	710	Panajachel	8	Panajachel	3	Marzo	2023-01-03T00:00:00	2024-11-08T06:00:00	4	Temperatura máxima	14.2
22567	7	Sololá	710	Panajachel	8	Panajachel	3	Marzo	2023-01-03T00:00:00	2024-11-08T06:00:00	3	Temperatura mínima	13.8
22568	7	Sololá	710	Panajachel	8	Panajachel	3	Marzo	2023-01-03T00:00:00	2024-11-08T06:00:00	5	Humedad	72
22569	7	Sololá	710	Panajachel	8	Panajachel	3	Marzo	2023-01-03T00:00:00	2024-11-08T06:00:00	6	Velocidad del viento	1.6
22570	7	Sololá	710	Panajachel	8	Panajachel	3	Marzo	2023-01-03T00:00:00	2024-11-08T06:00:00	7	Dirección del viento	1.61
22571	7	Sololá	710	Panajachel	8	Panajachel	3	Marzo	2023-01-03T00:00:00	2024-11-08T06:00:00	1	Precipitación	0
22572	7	Sololá	710	Panajachel	8	Panajachel	3	Marzo	2023-01-03T00:00:00	2024-11-08T06:00:00	8	Radiación solar	0
22573	7	Sololá	710	Panajachel	8	Panajachel	3	Marzo	2023-01-03T00:00:00	2024-11-08T07:00:00	2	Temperatura media	13.5
22574	7	Sololá	710	Panajachel	8	Panajachel	3	Marzo	2023-01-03T00:00:00	2024-11-08T07:00:00	4	Temperatura máxima	14.2
22575	7	Sololá	710	Panajachel	8	Panajachel	3	Marzo	2023-01-03T00:00:00	2024-11-08T07:00:00	3	Temperatura mínima	13.4
22576	7	Sololá	710	Panajachel	8	Panajachel	3	Marzo	2023-01-03T00:00:00	2024-11-08T07:00:00	5	Humedad	75
22577	7	Sololá	710	Panajachel	8	Panajachel	3	Marzo	2023-01-03T00:00:00	2024-11-08T07:00:00	6	Velocidad del viento	0
22578	7	Sololá	710	Panajachel	8	Panajachel	3	Marzo	2023-01-03T00:00:00	2024-11-08T07:00:00	7	Dirección del viento	0
22579	7	Sololá	710	Panajachel	8	Panajachel	3	Marzo	2023-01-03T00:00:00	2024-11-08T07:00:00	1	Precipitación	0
22580	7	Sololá	710	Panajachel	8	Panajachel	3	Marzo	2023-01-03T00:00:00	2024-11-08T07:00:00	8	Radiación solar	8
22581	7	Sololá	710	Panajachel	8	Panajachel	3	Marzo	2023-01-03T00:00:00	2024-11-08T08:00:00	2	Temperatura media	17.2
22582	7	Sololá	710	Panajachel	8	Panajachel	3	Marzo	2023-01-03T00:00:00	2024-11-08T08:00:00	4	Temperatura máxima	17.2
22583	7	Sololá	710	Panajachel	8	Panajachel	3	Marzo	2023-01-03T00:00:00	2024-11-08T08:00:00	3	Temperatura mínima	13.3
22584	7	Sololá	710	Panajachel	8	Panajachel	3	Marzo	2023-01-03T00:00:00	2024-11-08T08:00:00	5	Humedad	66
22585	7	Sololá	710	Panajachel	8	Panajachel	3	Marzo	2023-01-03T00:00:00	2024-11-08T08:00:00	6	Velocidad del viento	1.6
22586	7	Sololá	710	Panajachel	8	Panajachel	3	Marzo	2023-01-03T00:00:00	2024-11-08T08:00:00	7	Dirección del viento	1.61
22587	7	Sololá	710	Panajachel	8	Panajachel	3	Marzo	2023-01-03T00:00:00	2024-11-08T08:00:00	1	Precipitación	0
22588	7	Sololá	710	Panajachel	8	Panajachel	3	Marzo	2023-01-03T00:00:00	2024-11-08T08:00:00	8	Radiación solar	186
22589	7	Sololá	710	Panajachel	8	Panajachel	3	Marzo	2023-01-03T00:00:00	2024-11-08T09:00:00	2	Temperatura media	18.7
22590	7	Sololá	710	Panajachel	8	Panajachel	3	Marzo	2023-01-03T00:00:00	2024-11-08T09:00:00	4	Temperatura máxima	18.7
22591	7	Sololá	710	Panajachel	8	Panajachel	3	Marzo	2023-01-03T00:00:00	2024-11-08T09:00:00	3	Temperatura mínima	17.3
22592	7	Sololá	710	Panajachel	8	Panajachel	3	Marzo	2023-01-03T00:00:00	2024-11-08T09:00:00	5	Humedad	75
22593	7	Sololá	710	Panajachel	8	Panajachel	3	Marzo	2023-01-03T00:00:00	2024-11-08T09:00:00	6	Velocidad del viento	1.6
22594	7	Sololá	710	Panajachel	8	Panajachel	3	Marzo	2023-01-03T00:00:00	2024-11-08T09:00:00	7	Dirección del viento	1.61
22595	7	Sololá	710	Panajachel	8	Panajachel	3	Marzo	2023-01-03T00:00:00	2024-11-08T09:00:00	1	Precipitación	0
22596	7	Sololá	710	Panajachel	8	Panajachel	3	Marzo	2023-01-03T00:00:00	2024-11-08T09:00:00	8	Radiación solar	443
22597	7	Sololá	710	Panajachel	8	Panajachel	3	Marzo	2023-01-03T00:00:00	2024-11-08T10:00:00	2	Temperatura media	20.6
22598	7	Sololá	710	Panajachel	8	Panajachel	3	Marzo	2023-01-03T00:00:00	2024-11-08T10:00:00	4	Temperatura máxima	20.6
22599	7	Sololá	710	Panajachel	8	Panajachel	3	Marzo	2023-01-03T00:00:00	2024-11-08T10:00:00	3	Temperatura mínima	18.7
22600	7	Sololá	710	Panajachel	8	Panajachel	3	Marzo	2023-01-03T00:00:00	2024-11-08T10:00:00	5	Humedad	68
22601	7	Sololá	710	Panajachel	8	Panajachel	3	Marzo	2023-01-03T00:00:00	2024-11-08T10:00:00	6	Velocidad del viento	3.2
22602	7	Sololá	710	Panajachel	8	Panajachel	3	Marzo	2023-01-03T00:00:00	2024-11-08T10:00:00	7	Dirección del viento	3.22
22603	7	Sololá	710	Panajachel	8	Panajachel	3	Marzo	2023-01-03T00:00:00	2024-11-08T10:00:00	1	Precipitación	0
22604	7	Sololá	710	Panajachel	8	Panajachel	3	Marzo	2023-01-03T00:00:00	2024-11-08T10:00:00	8	Radiación solar	659
22605	7	Sololá	710	Panajachel	8	Panajachel	3	Marzo	2023-01-03T00:00:00	2024-11-08T11:00:00	2	Temperatura media	20.8
22606	7	Sololá	710	Panajachel	8	Panajachel	3	Marzo	2023-01-03T00:00:00	2024-11-08T11:00:00	4	Temperatura máxima	22.2
22607	7	Sololá	710	Panajachel	8	Panajachel	3	Marzo	2023-01-03T00:00:00	2024-11-08T11:00:00	3	Temperatura mínima	20.3
22608	7	Sololá	710	Panajachel	8	Panajachel	3	Marzo	2023-01-03T00:00:00	2024-11-08T11:00:00	5	Humedad	65
22609	7	Sololá	710	Panajachel	8	Panajachel	3	Marzo	2023-01-03T00:00:00	2024-11-08T11:00:00	6	Velocidad del viento	3.2
22610	7	Sololá	710	Panajachel	8	Panajachel	3	Marzo	2023-01-03T00:00:00	2024-11-08T11:00:00	7	Dirección del viento	3.22
22611	7	Sololá	710	Panajachel	8	Panajachel	3	Marzo	2023-01-03T00:00:00	2024-11-08T11:00:00	1	Precipitación	0
22612	7	Sololá	710	Panajachel	8	Panajachel	3	Marzo	2023-01-03T00:00:00	2024-11-08T11:00:00	8	Radiación solar	808
22613	7	Sololá	710	Panajachel	8	Panajachel	3	Marzo	2023-01-03T00:00:00	2024-11-08T12:00:00	2	Temperatura media	22.2
22614	7	Sololá	710	Panajachel	8	Panajachel	3	Marzo	2023-01-03T00:00:00	2024-11-08T12:00:00	4	Temperatura máxima	22.2
22615	7	Sololá	710	Panajachel	8	Panajachel	3	Marzo	2023-01-03T00:00:00	2024-11-08T12:00:00	3	Temperatura mínima	20.6
22616	7	Sololá	710	Panajachel	8	Panajachel	3	Marzo	2023-01-03T00:00:00	2024-11-08T12:00:00	5	Humedad	64
22617	7	Sololá	710	Panajachel	8	Panajachel	3	Marzo	2023-01-03T00:00:00	2024-11-08T12:00:00	6	Velocidad del viento	3.2
22618	7	Sololá	710	Panajachel	8	Panajachel	3	Marzo	2023-01-03T00:00:00	2024-11-08T12:00:00	7	Dirección del viento	3.22
22619	7	Sololá	710	Panajachel	8	Panajachel	3	Marzo	2023-01-03T00:00:00	2024-11-08T12:00:00	1	Precipitación	0
22620	7	Sololá	710	Panajachel	8	Panajachel	3	Marzo	2023-01-03T00:00:00	2024-11-08T12:00:00	8	Radiación solar	882
22621	7	Sololá	710	Panajachel	8	Panajachel	3	Marzo	2023-01-03T00:00:00	2024-11-08T13:00:00	2	Temperatura media	23.1
22622	7	Sololá	710	Panajachel	8	Panajachel	3	Marzo	2023-01-03T00:00:00	2024-11-08T13:00:00	4	Temperatura máxima	23.1
22623	7	Sololá	710	Panajachel	8	Panajachel	3	Marzo	2023-01-03T00:00:00	2024-11-08T13:00:00	3	Temperatura mínima	21.6
22624	7	Sololá	710	Panajachel	8	Panajachel	3	Marzo	2023-01-03T00:00:00	2024-11-08T13:00:00	5	Humedad	73
22625	7	Sololá	710	Panajachel	8	Panajachel	3	Marzo	2023-01-03T00:00:00	2024-11-08T13:00:00	6	Velocidad del viento	6.4
22626	7	Sololá	710	Panajachel	8	Panajachel	3	Marzo	2023-01-03T00:00:00	2024-11-08T13:00:00	7	Dirección del viento	6.44
22627	7	Sololá	710	Panajachel	8	Panajachel	3	Marzo	2023-01-03T00:00:00	2024-11-08T13:00:00	1	Precipitación	0
22628	7	Sololá	710	Panajachel	8	Panajachel	3	Marzo	2023-01-03T00:00:00	2024-11-08T13:00:00	8	Radiación solar	888
22629	7	Sololá	710	Panajachel	8	Panajachel	3	Marzo	2023-01-03T00:00:00	2024-11-08T14:00:00	2	Temperatura media	23.4
22630	7	Sololá	710	Panajachel	8	Panajachel	3	Marzo	2023-01-03T00:00:00	2024-11-08T14:00:00	4	Temperatura máxima	23.9
22631	7	Sololá	710	Panajachel	8	Panajachel	3	Marzo	2023-01-03T00:00:00	2024-11-08T14:00:00	3	Temperatura mínima	22.9
22632	7	Sololá	710	Panajachel	8	Panajachel	3	Marzo	2023-01-03T00:00:00	2024-11-08T14:00:00	5	Humedad	73
22633	7	Sololá	710	Panajachel	8	Panajachel	3	Marzo	2023-01-03T00:00:00	2024-11-08T14:00:00	6	Velocidad del viento	4.8
22634	7	Sololá	710	Panajachel	8	Panajachel	3	Marzo	2023-01-03T00:00:00	2024-11-08T14:00:00	7	Dirección del viento	4.83
22635	7	Sololá	710	Panajachel	8	Panajachel	3	Marzo	2023-01-03T00:00:00	2024-11-08T14:00:00	1	Precipitación	0
22636	7	Sololá	710	Panajachel	8	Panajachel	3	Marzo	2023-01-03T00:00:00	2024-11-08T14:00:00	8	Radiación solar	818
22637	7	Sololá	710	Panajachel	8	Panajachel	3	Marzo	2023-01-03T00:00:00	2024-11-08T15:00:00	2	Temperatura media	22.5
22638	7	Sololá	710	Panajachel	8	Panajachel	3	Marzo	2023-01-03T00:00:00	2024-11-08T15:00:00	4	Temperatura máxima	23.8
22639	7	Sololá	710	Panajachel	8	Panajachel	3	Marzo	2023-01-03T00:00:00	2024-11-08T15:00:00	3	Temperatura mínima	22.2
22640	7	Sololá	710	Panajachel	8	Panajachel	3	Marzo	2023-01-03T00:00:00	2024-11-08T15:00:00	5	Humedad	77
22641	7	Sololá	710	Panajachel	8	Panajachel	3	Marzo	2023-01-03T00:00:00	2024-11-08T15:00:00	6	Velocidad del viento	4.8
22642	7	Sololá	710	Panajachel	8	Panajachel	3	Marzo	2023-01-03T00:00:00	2024-11-08T15:00:00	7	Dirección del viento	4.83
22643	7	Sololá	710	Panajachel	8	Panajachel	3	Marzo	2023-01-03T00:00:00	2024-11-08T15:00:00	1	Precipitación	0
22644	7	Sololá	710	Panajachel	8	Panajachel	3	Marzo	2023-01-03T00:00:00	2024-11-08T15:00:00	8	Radiación solar	536
22645	7	Sololá	710	Panajachel	8	Panajachel	3	Marzo	2023-01-03T00:00:00	2024-11-08T16:00:00	2	Temperatura media	22.8
22646	7	Sololá	710	Panajachel	8	Panajachel	3	Marzo	2023-01-03T00:00:00	2024-11-08T16:00:00	4	Temperatura máxima	22.9
22647	7	Sololá	710	Panajachel	8	Panajachel	3	Marzo	2023-01-03T00:00:00	2024-11-08T16:00:00	3	Temperatura mínima	21.7
22648	7	Sololá	710	Panajachel	8	Panajachel	3	Marzo	2023-01-03T00:00:00	2024-11-08T16:00:00	5	Humedad	79
22649	7	Sololá	710	Panajachel	8	Panajachel	3	Marzo	2023-01-03T00:00:00	2024-11-08T16:00:00	6	Velocidad del viento	4.8
22650	7	Sololá	710	Panajachel	8	Panajachel	3	Marzo	2023-01-03T00:00:00	2024-11-08T16:00:00	7	Dirección del viento	4.83
22651	7	Sololá	710	Panajachel	8	Panajachel	3	Marzo	2023-01-03T00:00:00	2024-11-08T16:00:00	1	Precipitación	0
22652	7	Sololá	710	Panajachel	8	Panajachel	3	Marzo	2023-01-03T00:00:00	2024-11-08T16:00:00	8	Radiación solar	380
22653	7	Sololá	710	Panajachel	8	Panajachel	3	Marzo	2023-01-03T00:00:00	2024-11-08T17:00:00	2	Temperatura media	20.8
22654	7	Sololá	710	Panajachel	8	Panajachel	3	Marzo	2023-01-03T00:00:00	2024-11-08T17:00:00	4	Temperatura máxima	22.8
22655	7	Sololá	710	Panajachel	8	Panajachel	3	Marzo	2023-01-03T00:00:00	2024-11-08T17:00:00	3	Temperatura mínima	20.8
22656	7	Sololá	710	Panajachel	8	Panajachel	3	Marzo	2023-01-03T00:00:00	2024-11-08T17:00:00	5	Humedad	84
22657	7	Sololá	710	Panajachel	8	Panajachel	3	Marzo	2023-01-03T00:00:00	2024-11-08T17:00:00	6	Velocidad del viento	3.2
22658	7	Sololá	710	Panajachel	8	Panajachel	3	Marzo	2023-01-03T00:00:00	2024-11-08T17:00:00	7	Dirección del viento	3.22
22659	7	Sololá	710	Panajachel	8	Panajachel	3	Marzo	2023-01-03T00:00:00	2024-11-08T17:00:00	1	Precipitación	0
22660	7	Sololá	710	Panajachel	8	Panajachel	3	Marzo	2023-01-03T00:00:00	2024-11-08T17:00:00	8	Radiación solar	142
22661	7	Sololá	710	Panajachel	8	Panajachel	3	Marzo	2023-01-03T00:00:00	2024-11-08T18:00:00	2	Temperatura media	20.3
22662	7	Sololá	710	Panajachel	8	Panajachel	3	Marzo	2023-01-03T00:00:00	2024-11-08T18:00:00	4	Temperatura máxima	20.9
22663	7	Sololá	710	Panajachel	8	Panajachel	3	Marzo	2023-01-03T00:00:00	2024-11-08T18:00:00	3	Temperatura mínima	20.3
22664	7	Sololá	710	Panajachel	8	Panajachel	3	Marzo	2023-01-03T00:00:00	2024-11-08T18:00:00	5	Humedad	87
22665	7	Sololá	710	Panajachel	8	Panajachel	3	Marzo	2023-01-03T00:00:00	2024-11-08T18:00:00	6	Velocidad del viento	1.6
22666	7	Sololá	710	Panajachel	8	Panajachel	3	Marzo	2023-01-03T00:00:00	2024-11-08T18:00:00	7	Dirección del viento	1.61
22667	7	Sololá	710	Panajachel	8	Panajachel	3	Marzo	2023-01-03T00:00:00	2024-11-08T18:00:00	1	Precipitación	0
22668	7	Sololá	710	Panajachel	8	Panajachel	3	Marzo	2023-01-03T00:00:00	2024-11-08T18:00:00	8	Radiación solar	33
22669	7	Sololá	710	Panajachel	8	Panajachel	3	Marzo	2023-01-03T00:00:00	2024-11-08T19:00:00	2	Temperatura media	19.7
22670	7	Sololá	710	Panajachel	8	Panajachel	3	Marzo	2023-01-03T00:00:00	2024-11-08T19:00:00	4	Temperatura máxima	20.3
22671	7	Sololá	710	Panajachel	8	Panajachel	3	Marzo	2023-01-03T00:00:00	2024-11-08T19:00:00	3	Temperatura mínima	19.7
22672	7	Sololá	710	Panajachel	8	Panajachel	3	Marzo	2023-01-03T00:00:00	2024-11-08T19:00:00	5	Humedad	88
22673	7	Sololá	710	Panajachel	8	Panajachel	3	Marzo	2023-01-03T00:00:00	2024-11-08T19:00:00	6	Velocidad del viento	0
22674	7	Sololá	710	Panajachel	8	Panajachel	3	Marzo	2023-01-03T00:00:00	2024-11-08T19:00:00	7	Dirección del viento	0
22675	7	Sololá	710	Panajachel	8	Panajachel	3	Marzo	2023-01-03T00:00:00	2024-11-08T19:00:00	1	Precipitación	0
22676	7	Sololá	710	Panajachel	8	Panajachel	3	Marzo	2023-01-03T00:00:00	2024-11-08T19:00:00	8	Radiación solar	0
22677	7	Sololá	710	Panajachel	8	Panajachel	3	Marzo	2023-01-03T00:00:00	2024-11-08T20:00:00	2	Temperatura media	19.3
22678	7	Sololá	710	Panajachel	8	Panajachel	3	Marzo	2023-01-03T00:00:00	2024-11-08T20:00:00	4	Temperatura máxima	19.7
22679	7	Sololá	710	Panajachel	8	Panajachel	3	Marzo	2023-01-03T00:00:00	2024-11-08T20:00:00	3	Temperatura mínima	19.2
22680	7	Sololá	710	Panajachel	8	Panajachel	3	Marzo	2023-01-03T00:00:00	2024-11-08T20:00:00	5	Humedad	89
22681	7	Sololá	710	Panajachel	8	Panajachel	3	Marzo	2023-01-03T00:00:00	2024-11-08T20:00:00	6	Velocidad del viento	0
22682	7	Sololá	710	Panajachel	8	Panajachel	3	Marzo	2023-01-03T00:00:00	2024-11-08T20:00:00	7	Dirección del viento	0
22683	7	Sololá	710	Panajachel	8	Panajachel	3	Marzo	2023-01-03T00:00:00	2024-11-08T20:00:00	1	Precipitación	0
22684	7	Sololá	710	Panajachel	8	Panajachel	3	Marzo	2023-01-03T00:00:00	2024-11-08T20:00:00	8	Radiación solar	0
22685	7	Sololá	710	Panajachel	8	Panajachel	3	Marzo	2023-01-03T00:00:00	2024-11-08T21:00:00	2	Temperatura media	18.8
22686	7	Sololá	710	Panajachel	8	Panajachel	3	Marzo	2023-01-03T00:00:00	2024-11-08T21:00:00	4	Temperatura máxima	19.4
22687	7	Sololá	710	Panajachel	8	Panajachel	3	Marzo	2023-01-03T00:00:00	2024-11-08T21:00:00	3	Temperatura mínima	18.8
22688	7	Sololá	710	Panajachel	8	Panajachel	3	Marzo	2023-01-03T00:00:00	2024-11-08T21:00:00	5	Humedad	86
22689	7	Sololá	710	Panajachel	8	Panajachel	3	Marzo	2023-01-03T00:00:00	2024-11-08T21:00:00	6	Velocidad del viento	0
22690	7	Sololá	710	Panajachel	8	Panajachel	3	Marzo	2023-01-03T00:00:00	2024-11-08T21:00:00	7	Dirección del viento	0
22691	7	Sololá	710	Panajachel	8	Panajachel	3	Marzo	2023-01-03T00:00:00	2024-11-08T21:00:00	1	Precipitación	0
22692	7	Sololá	710	Panajachel	8	Panajachel	3	Marzo	2023-01-03T00:00:00	2024-11-08T21:00:00	8	Radiación solar	0
22693	7	Sololá	710	Panajachel	8	Panajachel	3	Marzo	2023-01-03T00:00:00	2024-11-08T22:00:00	2	Temperatura media	18.3
22694	7	Sololá	710	Panajachel	8	Panajachel	3	Marzo	2023-01-03T00:00:00	2024-11-08T22:00:00	4	Temperatura máxima	18.9
22695	7	Sololá	710	Panajachel	8	Panajachel	3	Marzo	2023-01-03T00:00:00	2024-11-08T22:00:00	3	Temperatura mínima	18.3
22696	7	Sololá	710	Panajachel	8	Panajachel	3	Marzo	2023-01-03T00:00:00	2024-11-08T22:00:00	5	Humedad	82
22697	7	Sololá	710	Panajachel	8	Panajachel	3	Marzo	2023-01-03T00:00:00	2024-11-08T22:00:00	6	Velocidad del viento	1.6
22698	7	Sololá	710	Panajachel	8	Panajachel	3	Marzo	2023-01-03T00:00:00	2024-11-08T22:00:00	7	Dirección del viento	1.61
22699	7	Sololá	710	Panajachel	8	Panajachel	3	Marzo	2023-01-03T00:00:00	2024-11-08T22:00:00	1	Precipitación	0
22700	7	Sololá	710	Panajachel	8	Panajachel	3	Marzo	2023-01-03T00:00:00	2024-11-08T22:00:00	8	Radiación solar	0
22701	7	Sololá	710	Panajachel	8	Panajachel	3	Marzo	2023-01-03T00:00:00	2024-11-08T23:00:00	2	Temperatura media	17.3
22702	7	Sololá	710	Panajachel	8	Panajachel	3	Marzo	2023-01-03T00:00:00	2024-11-08T23:00:00	4	Temperatura máxima	18.3
22703	7	Sololá	710	Panajachel	8	Panajachel	3	Marzo	2023-01-03T00:00:00	2024-11-08T23:00:00	3	Temperatura mínima	17.3
22704	7	Sololá	710	Panajachel	8	Panajachel	3	Marzo	2023-01-03T00:00:00	2024-11-08T23:00:00	5	Humedad	81
22705	7	Sololá	710	Panajachel	8	Panajachel	3	Marzo	2023-01-03T00:00:00	2024-11-08T23:00:00	6	Velocidad del viento	3.2
22706	7	Sololá	710	Panajachel	8	Panajachel	3	Marzo	2023-01-03T00:00:00	2024-11-08T23:00:00	7	Dirección del viento	3.22
22707	7	Sololá	710	Panajachel	8	Panajachel	3	Marzo	2023-01-03T00:00:00	2024-11-08T23:00:00	1	Precipitación	0
22708	7	Sololá	710	Panajachel	8	Panajachel	3	Marzo	2023-01-03T00:00:00	2024-11-08T23:00:00	8	Radiación solar	0
22709	7	Sololá	710	Panajachel	8	Panajachel	3	Marzo	2023-02-03T00:00:00	2024-11-08T00:00:00	2	Temperatura media	16.6
22710	7	Sololá	710	Panajachel	8	Panajachel	3	Marzo	2023-02-03T00:00:00	2024-11-08T00:00:00	4	Temperatura máxima	17.4
22711	7	Sololá	710	Panajachel	8	Panajachel	3	Marzo	2023-02-03T00:00:00	2024-11-08T00:00:00	3	Temperatura mínima	16.6
22712	7	Sololá	710	Panajachel	8	Panajachel	3	Marzo	2023-02-03T00:00:00	2024-11-08T00:00:00	5	Humedad	82
22713	7	Sololá	710	Panajachel	8	Panajachel	3	Marzo	2023-02-03T00:00:00	2024-11-08T00:00:00	6	Velocidad del viento	1.6
22714	7	Sololá	710	Panajachel	8	Panajachel	3	Marzo	2023-02-03T00:00:00	2024-11-08T00:00:00	7	Dirección del viento	1.61
22715	7	Sololá	710	Panajachel	8	Panajachel	3	Marzo	2023-02-03T00:00:00	2024-11-08T00:00:00	1	Precipitación	0
22716	7	Sololá	710	Panajachel	8	Panajachel	3	Marzo	2023-02-03T00:00:00	2024-11-08T00:00:00	8	Radiación solar	0
22717	7	Sololá	710	Panajachel	8	Panajachel	3	Marzo	2023-02-03T00:00:00	2024-11-08T01:00:00	2	Temperatura media	17.3
22718	7	Sololá	710	Panajachel	8	Panajachel	3	Marzo	2023-02-03T00:00:00	2024-11-08T01:00:00	4	Temperatura máxima	17.3
22719	7	Sololá	710	Panajachel	8	Panajachel	3	Marzo	2023-02-03T00:00:00	2024-11-08T01:00:00	3	Temperatura mínima	16.6
22720	7	Sololá	710	Panajachel	8	Panajachel	3	Marzo	2023-02-03T00:00:00	2024-11-08T01:00:00	5	Humedad	77
22721	7	Sololá	710	Panajachel	8	Panajachel	3	Marzo	2023-02-03T00:00:00	2024-11-08T01:00:00	6	Velocidad del viento	3.2
22722	7	Sololá	710	Panajachel	8	Panajachel	3	Marzo	2023-02-03T00:00:00	2024-11-08T01:00:00	7	Dirección del viento	3.22
22723	7	Sololá	710	Panajachel	8	Panajachel	3	Marzo	2023-02-03T00:00:00	2024-11-08T01:00:00	1	Precipitación	0
22724	7	Sololá	710	Panajachel	8	Panajachel	3	Marzo	2023-02-03T00:00:00	2024-11-08T01:00:00	8	Radiación solar	0
22725	7	Sololá	710	Panajachel	8	Panajachel	3	Marzo	2023-02-03T00:00:00	2024-11-08T02:00:00	2	Temperatura media	17.2
22726	7	Sololá	710	Panajachel	8	Panajachel	3	Marzo	2023-02-03T00:00:00	2024-11-08T02:00:00	4	Temperatura máxima	17.6
22727	7	Sololá	710	Panajachel	8	Panajachel	3	Marzo	2023-02-03T00:00:00	2024-11-08T02:00:00	3	Temperatura mínima	17.2
22728	7	Sololá	710	Panajachel	8	Panajachel	3	Marzo	2023-02-03T00:00:00	2024-11-08T02:00:00	5	Humedad	76
22729	7	Sololá	710	Panajachel	8	Panajachel	3	Marzo	2023-02-03T00:00:00	2024-11-08T02:00:00	6	Velocidad del viento	3.2
22730	7	Sololá	710	Panajachel	8	Panajachel	3	Marzo	2023-02-03T00:00:00	2024-11-08T02:00:00	7	Dirección del viento	3.22
22731	7	Sololá	710	Panajachel	8	Panajachel	3	Marzo	2023-02-03T00:00:00	2024-11-08T02:00:00	1	Precipitación	0
22732	7	Sololá	710	Panajachel	8	Panajachel	3	Marzo	2023-02-03T00:00:00	2024-11-08T02:00:00	8	Radiación solar	0
22733	7	Sololá	710	Panajachel	8	Panajachel	3	Marzo	2023-02-03T00:00:00	2024-11-08T03:00:00	2	Temperatura media	16.2
22734	7	Sololá	710	Panajachel	8	Panajachel	3	Marzo	2023-02-03T00:00:00	2024-11-08T03:00:00	4	Temperatura máxima	17.2
22735	7	Sololá	710	Panajachel	8	Panajachel	3	Marzo	2023-02-03T00:00:00	2024-11-08T03:00:00	3	Temperatura mínima	16.2
22736	7	Sololá	710	Panajachel	8	Panajachel	3	Marzo	2023-02-03T00:00:00	2024-11-08T03:00:00	5	Humedad	81
22737	7	Sololá	710	Panajachel	8	Panajachel	3	Marzo	2023-02-03T00:00:00	2024-11-08T03:00:00	6	Velocidad del viento	3.2
22738	7	Sololá	710	Panajachel	8	Panajachel	3	Marzo	2023-02-03T00:00:00	2024-11-08T03:00:00	7	Dirección del viento	3.22
22739	7	Sololá	710	Panajachel	8	Panajachel	3	Marzo	2023-02-03T00:00:00	2024-11-08T03:00:00	1	Precipitación	0
22740	7	Sololá	710	Panajachel	8	Panajachel	3	Marzo	2023-02-03T00:00:00	2024-11-08T03:00:00	8	Radiación solar	0
22741	7	Sololá	710	Panajachel	8	Panajachel	3	Marzo	2023-02-03T00:00:00	2024-11-08T04:00:00	2	Temperatura media	16.1
22742	7	Sololá	710	Panajachel	8	Panajachel	3	Marzo	2023-02-03T00:00:00	2024-11-08T04:00:00	4	Temperatura máxima	16.3
22743	7	Sololá	710	Panajachel	8	Panajachel	3	Marzo	2023-02-03T00:00:00	2024-11-08T04:00:00	3	Temperatura mínima	16
22744	7	Sololá	710	Panajachel	8	Panajachel	3	Marzo	2023-02-03T00:00:00	2024-11-08T04:00:00	5	Humedad	82
22745	7	Sololá	710	Panajachel	8	Panajachel	3	Marzo	2023-02-03T00:00:00	2024-11-08T04:00:00	6	Velocidad del viento	3.2
22746	7	Sololá	710	Panajachel	8	Panajachel	3	Marzo	2023-02-03T00:00:00	2024-11-08T04:00:00	7	Dirección del viento	3.22
22747	7	Sololá	710	Panajachel	8	Panajachel	3	Marzo	2023-02-03T00:00:00	2024-11-08T04:00:00	1	Precipitación	0
22748	7	Sololá	710	Panajachel	8	Panajachel	3	Marzo	2023-02-03T00:00:00	2024-11-08T04:00:00	8	Radiación solar	0
22749	7	Sololá	710	Panajachel	8	Panajachel	3	Marzo	2023-02-03T00:00:00	2024-11-08T05:00:00	2	Temperatura media	16.4
22750	7	Sololá	710	Panajachel	8	Panajachel	3	Marzo	2023-02-03T00:00:00	2024-11-08T05:00:00	4	Temperatura máxima	16.4
22751	7	Sololá	710	Panajachel	8	Panajachel	3	Marzo	2023-02-03T00:00:00	2024-11-08T05:00:00	3	Temperatura mínima	16.1
22752	7	Sololá	710	Panajachel	8	Panajachel	3	Marzo	2023-02-03T00:00:00	2024-11-08T05:00:00	5	Humedad	82
22753	7	Sololá	710	Panajachel	8	Panajachel	3	Marzo	2023-02-03T00:00:00	2024-11-08T05:00:00	6	Velocidad del viento	3.2
22754	7	Sololá	710	Panajachel	8	Panajachel	3	Marzo	2023-02-03T00:00:00	2024-11-08T05:00:00	7	Dirección del viento	3.22
22755	7	Sololá	710	Panajachel	8	Panajachel	3	Marzo	2023-02-03T00:00:00	2024-11-08T05:00:00	1	Precipitación	0
22756	7	Sololá	710	Panajachel	8	Panajachel	3	Marzo	2023-02-03T00:00:00	2024-11-08T05:00:00	8	Radiación solar	0
22757	7	Sololá	710	Panajachel	8	Panajachel	3	Marzo	2023-02-03T00:00:00	2024-11-08T06:00:00	2	Temperatura media	15.7
22758	7	Sololá	710	Panajachel	8	Panajachel	3	Marzo	2023-02-03T00:00:00	2024-11-08T06:00:00	4	Temperatura máxima	16.6
22759	7	Sololá	710	Panajachel	8	Panajachel	3	Marzo	2023-02-03T00:00:00	2024-11-08T06:00:00	3	Temperatura mínima	15.7
22760	7	Sololá	710	Panajachel	8	Panajachel	3	Marzo	2023-02-03T00:00:00	2024-11-08T06:00:00	5	Humedad	85
22761	7	Sololá	710	Panajachel	8	Panajachel	3	Marzo	2023-02-03T00:00:00	2024-11-08T06:00:00	6	Velocidad del viento	1.6
22762	7	Sololá	710	Panajachel	8	Panajachel	3	Marzo	2023-02-03T00:00:00	2024-11-08T06:00:00	7	Dirección del viento	1.61
22763	7	Sololá	710	Panajachel	8	Panajachel	3	Marzo	2023-02-03T00:00:00	2024-11-08T06:00:00	1	Precipitación	0
22764	7	Sololá	710	Panajachel	8	Panajachel	3	Marzo	2023-02-03T00:00:00	2024-11-08T06:00:00	8	Radiación solar	0
22765	7	Sololá	710	Panajachel	8	Panajachel	3	Marzo	2023-02-03T00:00:00	2024-11-08T07:00:00	2	Temperatura media	15.7
22766	7	Sololá	710	Panajachel	8	Panajachel	3	Marzo	2023-02-03T00:00:00	2024-11-08T07:00:00	4	Temperatura máxima	15.7
22767	7	Sololá	710	Panajachel	8	Panajachel	3	Marzo	2023-02-03T00:00:00	2024-11-08T07:00:00	3	Temperatura mínima	15.4
22768	7	Sololá	710	Panajachel	8	Panajachel	3	Marzo	2023-02-03T00:00:00	2024-11-08T07:00:00	5	Humedad	85
22769	7	Sololá	710	Panajachel	8	Panajachel	3	Marzo	2023-02-03T00:00:00	2024-11-08T07:00:00	6	Velocidad del viento	0
22770	7	Sololá	710	Panajachel	8	Panajachel	3	Marzo	2023-02-03T00:00:00	2024-11-08T07:00:00	7	Dirección del viento	0
22771	7	Sololá	710	Panajachel	8	Panajachel	3	Marzo	2023-02-03T00:00:00	2024-11-08T07:00:00	1	Precipitación	0
22772	7	Sololá	710	Panajachel	8	Panajachel	3	Marzo	2023-02-03T00:00:00	2024-11-08T07:00:00	8	Radiación solar	14
22773	7	Sololá	710	Panajachel	8	Panajachel	3	Marzo	2023-02-03T00:00:00	2024-11-08T08:00:00	2	Temperatura media	18.1
22774	7	Sololá	710	Panajachel	8	Panajachel	3	Marzo	2023-02-03T00:00:00	2024-11-08T08:00:00	4	Temperatura máxima	18.1
22775	7	Sololá	710	Panajachel	8	Panajachel	3	Marzo	2023-02-03T00:00:00	2024-11-08T08:00:00	3	Temperatura mínima	15.7
22776	7	Sololá	710	Panajachel	8	Panajachel	3	Marzo	2023-02-03T00:00:00	2024-11-08T08:00:00	5	Humedad	76
22777	7	Sololá	710	Panajachel	8	Panajachel	3	Marzo	2023-02-03T00:00:00	2024-11-08T08:00:00	6	Velocidad del viento	3.2
22778	7	Sololá	710	Panajachel	8	Panajachel	3	Marzo	2023-02-03T00:00:00	2024-11-08T08:00:00	7	Dirección del viento	3.22
22779	7	Sololá	710	Panajachel	8	Panajachel	3	Marzo	2023-02-03T00:00:00	2024-11-08T08:00:00	1	Precipitación	0
22780	7	Sololá	710	Panajachel	8	Panajachel	3	Marzo	2023-02-03T00:00:00	2024-11-08T08:00:00	8	Radiación solar	164
22781	7	Sololá	710	Panajachel	8	Panajachel	3	Marzo	2023-02-03T00:00:00	2024-11-08T09:00:00	2	Temperatura media	19.7
22782	7	Sololá	710	Panajachel	8	Panajachel	3	Marzo	2023-02-03T00:00:00	2024-11-08T09:00:00	4	Temperatura máxima	19.7
22783	7	Sololá	710	Panajachel	8	Panajachel	3	Marzo	2023-02-03T00:00:00	2024-11-08T09:00:00	3	Temperatura mínima	18.1
22784	7	Sololá	710	Panajachel	8	Panajachel	3	Marzo	2023-02-03T00:00:00	2024-11-08T09:00:00	5	Humedad	78
22785	7	Sololá	710	Panajachel	8	Panajachel	3	Marzo	2023-02-03T00:00:00	2024-11-08T09:00:00	6	Velocidad del viento	1.6
22786	7	Sololá	710	Panajachel	8	Panajachel	3	Marzo	2023-02-03T00:00:00	2024-11-08T09:00:00	7	Dirección del viento	1.61
22787	7	Sololá	710	Panajachel	8	Panajachel	3	Marzo	2023-02-03T00:00:00	2024-11-08T09:00:00	1	Precipitación	0
22788	7	Sololá	710	Panajachel	8	Panajachel	3	Marzo	2023-02-03T00:00:00	2024-11-08T09:00:00	8	Radiación solar	407
22789	7	Sololá	710	Panajachel	8	Panajachel	3	Marzo	2023-02-03T00:00:00	2024-11-08T10:00:00	2	Temperatura media	20.2
22790	7	Sololá	710	Panajachel	8	Panajachel	3	Marzo	2023-02-03T00:00:00	2024-11-08T10:00:00	4	Temperatura máxima	20.6
22791	7	Sololá	710	Panajachel	8	Panajachel	3	Marzo	2023-02-03T00:00:00	2024-11-08T10:00:00	3	Temperatura mínima	19.7
22792	7	Sololá	710	Panajachel	8	Panajachel	3	Marzo	2023-02-03T00:00:00	2024-11-08T10:00:00	5	Humedad	77
22793	7	Sololá	710	Panajachel	8	Panajachel	3	Marzo	2023-02-03T00:00:00	2024-11-08T10:00:00	6	Velocidad del viento	1.6
22794	7	Sololá	710	Panajachel	8	Panajachel	3	Marzo	2023-02-03T00:00:00	2024-11-08T10:00:00	7	Dirección del viento	1.61
22795	7	Sololá	710	Panajachel	8	Panajachel	3	Marzo	2023-02-03T00:00:00	2024-11-08T10:00:00	1	Precipitación	0
22796	7	Sololá	710	Panajachel	8	Panajachel	3	Marzo	2023-02-03T00:00:00	2024-11-08T10:00:00	8	Radiación solar	643
22797	7	Sololá	710	Panajachel	8	Panajachel	3	Marzo	2023-02-03T00:00:00	2024-11-08T11:00:00	2	Temperatura media	22.2
22798	7	Sololá	710	Panajachel	8	Panajachel	3	Marzo	2023-02-03T00:00:00	2024-11-08T11:00:00	4	Temperatura máxima	22.2
22799	7	Sololá	710	Panajachel	8	Panajachel	3	Marzo	2023-02-03T00:00:00	2024-11-08T11:00:00	3	Temperatura mínima	20
22800	7	Sololá	710	Panajachel	8	Panajachel	3	Marzo	2023-02-03T00:00:00	2024-11-08T11:00:00	5	Humedad	67
22801	7	Sololá	710	Panajachel	8	Panajachel	3	Marzo	2023-02-03T00:00:00	2024-11-08T11:00:00	6	Velocidad del viento	3.2
22802	7	Sololá	710	Panajachel	8	Panajachel	3	Marzo	2023-02-03T00:00:00	2024-11-08T11:00:00	7	Dirección del viento	3.22
22803	7	Sololá	710	Panajachel	8	Panajachel	3	Marzo	2023-02-03T00:00:00	2024-11-08T11:00:00	1	Precipitación	0
22804	7	Sololá	710	Panajachel	8	Panajachel	3	Marzo	2023-02-03T00:00:00	2024-11-08T11:00:00	8	Radiación solar	803
22805	7	Sololá	710	Panajachel	8	Panajachel	3	Marzo	2023-02-03T00:00:00	2024-11-08T12:00:00	2	Temperatura media	22.2
22806	7	Sololá	710	Panajachel	8	Panajachel	3	Marzo	2023-02-03T00:00:00	2024-11-08T12:00:00	4	Temperatura máxima	23.2
22807	7	Sololá	710	Panajachel	8	Panajachel	3	Marzo	2023-02-03T00:00:00	2024-11-08T12:00:00	3	Temperatura mínima	21.3
22808	7	Sololá	710	Panajachel	8	Panajachel	3	Marzo	2023-02-03T00:00:00	2024-11-08T12:00:00	5	Humedad	66
22809	7	Sololá	710	Panajachel	8	Panajachel	3	Marzo	2023-02-03T00:00:00	2024-11-08T12:00:00	6	Velocidad del viento	3.2
22810	7	Sololá	710	Panajachel	8	Panajachel	3	Marzo	2023-02-03T00:00:00	2024-11-08T12:00:00	7	Dirección del viento	3.22
22811	7	Sololá	710	Panajachel	8	Panajachel	3	Marzo	2023-02-03T00:00:00	2024-11-08T12:00:00	1	Precipitación	0
22812	7	Sololá	710	Panajachel	8	Panajachel	3	Marzo	2023-02-03T00:00:00	2024-11-08T12:00:00	8	Radiación solar	909
22813	7	Sololá	710	Panajachel	8	Panajachel	3	Marzo	2023-02-03T00:00:00	2024-11-08T13:00:00	2	Temperatura media	24.1
22814	7	Sololá	710	Panajachel	8	Panajachel	3	Marzo	2023-02-03T00:00:00	2024-11-08T13:00:00	4	Temperatura máxima	24.4
22815	7	Sololá	710	Panajachel	8	Panajachel	3	Marzo	2023-02-03T00:00:00	2024-11-08T13:00:00	3	Temperatura mínima	22.2
22816	7	Sololá	710	Panajachel	8	Panajachel	3	Marzo	2023-02-03T00:00:00	2024-11-08T13:00:00	5	Humedad	61
22817	7	Sololá	710	Panajachel	8	Panajachel	3	Marzo	2023-02-03T00:00:00	2024-11-08T13:00:00	6	Velocidad del viento	4.8
22818	7	Sololá	710	Panajachel	8	Panajachel	3	Marzo	2023-02-03T00:00:00	2024-11-08T13:00:00	7	Dirección del viento	4.83
22819	7	Sololá	710	Panajachel	8	Panajachel	3	Marzo	2023-02-03T00:00:00	2024-11-08T13:00:00	1	Precipitación	0
22820	7	Sololá	710	Panajachel	8	Panajachel	3	Marzo	2023-02-03T00:00:00	2024-11-08T13:00:00	8	Radiación solar	890
22821	7	Sololá	710	Panajachel	8	Panajachel	3	Marzo	2023-02-03T00:00:00	2024-11-08T14:00:00	2	Temperatura media	23.3
22822	7	Sololá	710	Panajachel	8	Panajachel	3	Marzo	2023-02-03T00:00:00	2024-11-08T14:00:00	4	Temperatura máxima	24
22823	7	Sololá	710	Panajachel	8	Panajachel	3	Marzo	2023-02-03T00:00:00	2024-11-08T14:00:00	3	Temperatura mínima	22
22824	7	Sololá	710	Panajachel	8	Panajachel	3	Marzo	2023-02-03T00:00:00	2024-11-08T14:00:00	5	Humedad	67
22825	7	Sololá	710	Panajachel	8	Panajachel	3	Marzo	2023-02-03T00:00:00	2024-11-08T14:00:00	6	Velocidad del viento	11.3
22826	7	Sololá	710	Panajachel	8	Panajachel	3	Marzo	2023-02-03T00:00:00	2024-11-08T14:00:00	7	Dirección del viento	11.27
22827	7	Sololá	710	Panajachel	8	Panajachel	3	Marzo	2023-02-03T00:00:00	2024-11-08T14:00:00	1	Precipitación	0
22828	7	Sololá	710	Panajachel	8	Panajachel	3	Marzo	2023-02-03T00:00:00	2024-11-08T14:00:00	8	Radiación solar	837
22829	7	Sololá	710	Panajachel	8	Panajachel	3	Marzo	2023-02-03T00:00:00	2024-11-08T15:00:00	2	Temperatura media	22.6
22830	7	Sololá	710	Panajachel	8	Panajachel	3	Marzo	2023-02-03T00:00:00	2024-11-08T15:00:00	4	Temperatura máxima	23.6
22831	7	Sololá	710	Panajachel	8	Panajachel	3	Marzo	2023-02-03T00:00:00	2024-11-08T15:00:00	3	Temperatura mínima	22.6
22832	7	Sololá	710	Panajachel	8	Panajachel	3	Marzo	2023-02-03T00:00:00	2024-11-08T15:00:00	5	Humedad	75
22833	7	Sololá	710	Panajachel	8	Panajachel	3	Marzo	2023-02-03T00:00:00	2024-11-08T15:00:00	6	Velocidad del viento	9.7
22834	7	Sololá	710	Panajachel	8	Panajachel	3	Marzo	2023-02-03T00:00:00	2024-11-08T15:00:00	7	Dirección del viento	9.66
22835	7	Sololá	710	Panajachel	8	Panajachel	3	Marzo	2023-02-03T00:00:00	2024-11-08T15:00:00	1	Precipitación	0
22836	7	Sololá	710	Panajachel	8	Panajachel	3	Marzo	2023-02-03T00:00:00	2024-11-08T15:00:00	8	Radiación solar	694
22837	7	Sololá	710	Panajachel	8	Panajachel	3	Marzo	2023-02-03T00:00:00	2024-11-08T16:00:00	2	Temperatura media	22.3
22838	7	Sololá	710	Panajachel	8	Panajachel	3	Marzo	2023-02-03T00:00:00	2024-11-08T16:00:00	4	Temperatura máxima	23.4
22839	7	Sololá	710	Panajachel	8	Panajachel	3	Marzo	2023-02-03T00:00:00	2024-11-08T16:00:00	3	Temperatura mínima	22.3
22840	7	Sololá	710	Panajachel	8	Panajachel	3	Marzo	2023-02-03T00:00:00	2024-11-08T16:00:00	5	Humedad	74
22841	7	Sololá	710	Panajachel	8	Panajachel	3	Marzo	2023-02-03T00:00:00	2024-11-08T16:00:00	6	Velocidad del viento	6.4
22842	7	Sololá	710	Panajachel	8	Panajachel	3	Marzo	2023-02-03T00:00:00	2024-11-08T16:00:00	7	Dirección del viento	6.44
22843	7	Sololá	710	Panajachel	8	Panajachel	3	Marzo	2023-02-03T00:00:00	2024-11-08T16:00:00	1	Precipitación	0
22844	7	Sololá	710	Panajachel	8	Panajachel	3	Marzo	2023-02-03T00:00:00	2024-11-08T16:00:00	8	Radiación solar	481
22845	7	Sololá	710	Panajachel	8	Panajachel	3	Marzo	2023-02-03T00:00:00	2024-11-08T17:00:00	2	Temperatura media	20.9
22846	7	Sololá	710	Panajachel	8	Panajachel	3	Marzo	2023-02-03T00:00:00	2024-11-08T17:00:00	4	Temperatura máxima	22.4
22847	7	Sololá	710	Panajachel	8	Panajachel	3	Marzo	2023-02-03T00:00:00	2024-11-08T17:00:00	3	Temperatura mínima	20.8
22848	7	Sololá	710	Panajachel	8	Panajachel	3	Marzo	2023-02-03T00:00:00	2024-11-08T17:00:00	5	Humedad	78
22849	7	Sololá	710	Panajachel	8	Panajachel	3	Marzo	2023-02-03T00:00:00	2024-11-08T17:00:00	6	Velocidad del viento	6.4
22850	7	Sololá	710	Panajachel	8	Panajachel	3	Marzo	2023-02-03T00:00:00	2024-11-08T17:00:00	7	Dirección del viento	6.44
22851	7	Sololá	710	Panajachel	8	Panajachel	3	Marzo	2023-02-03T00:00:00	2024-11-08T17:00:00	1	Precipitación	0
22852	7	Sololá	710	Panajachel	8	Panajachel	3	Marzo	2023-02-03T00:00:00	2024-11-08T17:00:00	8	Radiación solar	200
22853	7	Sololá	710	Panajachel	8	Panajachel	3	Marzo	2023-02-03T00:00:00	2024-11-08T18:00:00	2	Temperatura media	20.1
22854	7	Sololá	710	Panajachel	8	Panajachel	3	Marzo	2023-02-03T00:00:00	2024-11-08T18:00:00	4	Temperatura máxima	21.1
22855	7	Sololá	710	Panajachel	8	Panajachel	3	Marzo	2023-02-03T00:00:00	2024-11-08T18:00:00	3	Temperatura mínima	20.1
22856	7	Sololá	710	Panajachel	8	Panajachel	3	Marzo	2023-02-03T00:00:00	2024-11-08T18:00:00	5	Humedad	85
22857	7	Sololá	710	Panajachel	8	Panajachel	3	Marzo	2023-02-03T00:00:00	2024-11-08T18:00:00	6	Velocidad del viento	3.2
22858	7	Sololá	710	Panajachel	8	Panajachel	3	Marzo	2023-02-03T00:00:00	2024-11-08T18:00:00	7	Dirección del viento	3.22
22859	7	Sololá	710	Panajachel	8	Panajachel	3	Marzo	2023-02-03T00:00:00	2024-11-08T18:00:00	1	Precipitación	0
22860	7	Sololá	710	Panajachel	8	Panajachel	3	Marzo	2023-02-03T00:00:00	2024-11-08T18:00:00	8	Radiación solar	42
22861	7	Sololá	710	Panajachel	8	Panajachel	3	Marzo	2023-02-03T00:00:00	2024-11-08T19:00:00	2	Temperatura media	19.1
22862	7	Sololá	710	Panajachel	8	Panajachel	3	Marzo	2023-02-03T00:00:00	2024-11-08T19:00:00	4	Temperatura máxima	20.1
22863	7	Sololá	710	Panajachel	8	Panajachel	3	Marzo	2023-02-03T00:00:00	2024-11-08T19:00:00	3	Temperatura mínima	19.1
22864	7	Sololá	710	Panajachel	8	Panajachel	3	Marzo	2023-02-03T00:00:00	2024-11-08T19:00:00	5	Humedad	88
22865	7	Sololá	710	Panajachel	8	Panajachel	3	Marzo	2023-02-03T00:00:00	2024-11-08T19:00:00	6	Velocidad del viento	4.8
22866	7	Sololá	710	Panajachel	8	Panajachel	3	Marzo	2023-02-03T00:00:00	2024-11-08T19:00:00	7	Dirección del viento	4.83
22867	7	Sololá	710	Panajachel	8	Panajachel	3	Marzo	2023-02-03T00:00:00	2024-11-08T19:00:00	1	Precipitación	0
22868	7	Sololá	710	Panajachel	8	Panajachel	3	Marzo	2023-02-03T00:00:00	2024-11-08T19:00:00	8	Radiación solar	0
22869	7	Sololá	710	Panajachel	8	Panajachel	3	Marzo	2023-02-03T00:00:00	2024-11-08T20:00:00	2	Temperatura media	18.4
22870	7	Sololá	710	Panajachel	8	Panajachel	3	Marzo	2023-02-03T00:00:00	2024-11-08T20:00:00	4	Temperatura máxima	19.1
22871	7	Sololá	710	Panajachel	8	Panajachel	3	Marzo	2023-02-03T00:00:00	2024-11-08T20:00:00	3	Temperatura mínima	18.3
22872	7	Sololá	710	Panajachel	8	Panajachel	3	Marzo	2023-02-03T00:00:00	2024-11-08T20:00:00	5	Humedad	88
22873	7	Sololá	710	Panajachel	8	Panajachel	3	Marzo	2023-02-03T00:00:00	2024-11-08T20:00:00	6	Velocidad del viento	3.2
22874	7	Sololá	710	Panajachel	8	Panajachel	3	Marzo	2023-02-03T00:00:00	2024-11-08T20:00:00	7	Dirección del viento	3.22
22875	7	Sololá	710	Panajachel	8	Panajachel	3	Marzo	2023-02-03T00:00:00	2024-11-08T20:00:00	1	Precipitación	0
22876	7	Sololá	710	Panajachel	8	Panajachel	3	Marzo	2023-02-03T00:00:00	2024-11-08T20:00:00	8	Radiación solar	0
22877	7	Sololá	710	Panajachel	8	Panajachel	3	Marzo	2023-02-03T00:00:00	2024-11-08T21:00:00	2	Temperatura media	18.1
22878	7	Sololá	710	Panajachel	8	Panajachel	3	Marzo	2023-02-03T00:00:00	2024-11-08T21:00:00	4	Temperatura máxima	18.4
22879	7	Sololá	710	Panajachel	8	Panajachel	3	Marzo	2023-02-03T00:00:00	2024-11-08T21:00:00	3	Temperatura mínima	18
22880	7	Sololá	710	Panajachel	8	Panajachel	3	Marzo	2023-02-03T00:00:00	2024-11-08T21:00:00	5	Humedad	89
22881	7	Sololá	710	Panajachel	8	Panajachel	3	Marzo	2023-02-03T00:00:00	2024-11-08T21:00:00	6	Velocidad del viento	1.6
22882	7	Sololá	710	Panajachel	8	Panajachel	3	Marzo	2023-02-03T00:00:00	2024-11-08T21:00:00	7	Dirección del viento	1.61
22883	7	Sololá	710	Panajachel	8	Panajachel	3	Marzo	2023-02-03T00:00:00	2024-11-08T21:00:00	1	Precipitación	0
22884	7	Sololá	710	Panajachel	8	Panajachel	3	Marzo	2023-02-03T00:00:00	2024-11-08T21:00:00	8	Radiación solar	0
22885	7	Sololá	710	Panajachel	8	Panajachel	3	Marzo	2023-02-03T00:00:00	2024-11-08T22:00:00	2	Temperatura media	17.8
22886	7	Sololá	710	Panajachel	8	Panajachel	3	Marzo	2023-02-03T00:00:00	2024-11-08T22:00:00	4	Temperatura máxima	18.1
22887	7	Sololá	710	Panajachel	8	Panajachel	3	Marzo	2023-02-03T00:00:00	2024-11-08T22:00:00	3	Temperatura mínima	17.7
22888	7	Sololá	710	Panajachel	8	Panajachel	3	Marzo	2023-02-03T00:00:00	2024-11-08T22:00:00	5	Humedad	87
22889	7	Sololá	710	Panajachel	8	Panajachel	3	Marzo	2023-02-03T00:00:00	2024-11-08T22:00:00	6	Velocidad del viento	0
22890	7	Sololá	710	Panajachel	8	Panajachel	3	Marzo	2023-02-03T00:00:00	2024-11-08T22:00:00	7	Dirección del viento	0
22891	7	Sololá	710	Panajachel	8	Panajachel	3	Marzo	2023-02-03T00:00:00	2024-11-08T22:00:00	1	Precipitación	0
22892	7	Sololá	710	Panajachel	8	Panajachel	3	Marzo	2023-02-03T00:00:00	2024-11-08T22:00:00	8	Radiación solar	0
22893	7	Sololá	710	Panajachel	8	Panajachel	3	Marzo	2023-02-03T00:00:00	2024-11-08T23:00:00	2	Temperatura media	16.6
22894	7	Sololá	710	Panajachel	8	Panajachel	3	Marzo	2023-02-03T00:00:00	2024-11-08T23:00:00	4	Temperatura máxima	17.8
22895	7	Sololá	710	Panajachel	8	Panajachel	3	Marzo	2023-02-03T00:00:00	2024-11-08T23:00:00	3	Temperatura mínima	16.6
22896	7	Sololá	710	Panajachel	8	Panajachel	3	Marzo	2023-02-03T00:00:00	2024-11-08T23:00:00	5	Humedad	85
22897	7	Sololá	710	Panajachel	8	Panajachel	3	Marzo	2023-02-03T00:00:00	2024-11-08T23:00:00	6	Velocidad del viento	1.6
22898	7	Sololá	710	Panajachel	8	Panajachel	3	Marzo	2023-02-03T00:00:00	2024-11-08T23:00:00	7	Dirección del viento	1.61
22899	7	Sololá	710	Panajachel	8	Panajachel	3	Marzo	2023-02-03T00:00:00	2024-11-08T23:00:00	1	Precipitación	0
22900	7	Sololá	710	Panajachel	8	Panajachel	3	Marzo	2023-02-03T00:00:00	2024-11-08T23:00:00	8	Radiación solar	0
22901	7	Sololá	710	Panajachel	8	Panajachel	3	Marzo	2023-03-03T00:00:00	2024-11-08T00:00:00	2	Temperatura media	15.2
22902	7	Sololá	710	Panajachel	8	Panajachel	3	Marzo	2023-03-03T00:00:00	2024-11-08T00:00:00	4	Temperatura máxima	16.6
22903	7	Sololá	710	Panajachel	8	Panajachel	3	Marzo	2023-03-03T00:00:00	2024-11-08T00:00:00	3	Temperatura mínima	15.2
22904	7	Sololá	710	Panajachel	8	Panajachel	3	Marzo	2023-03-03T00:00:00	2024-11-08T00:00:00	5	Humedad	75
22905	7	Sololá	710	Panajachel	8	Panajachel	3	Marzo	2023-03-03T00:00:00	2024-11-08T00:00:00	6	Velocidad del viento	4.8
22906	7	Sololá	710	Panajachel	8	Panajachel	3	Marzo	2023-03-03T00:00:00	2024-11-08T00:00:00	7	Dirección del viento	4.83
22907	7	Sololá	710	Panajachel	8	Panajachel	3	Marzo	2023-03-03T00:00:00	2024-11-08T00:00:00	1	Precipitación	0
22908	7	Sololá	710	Panajachel	8	Panajachel	3	Marzo	2023-03-03T00:00:00	2024-11-08T00:00:00	8	Radiación solar	0
22909	7	Sololá	710	Panajachel	8	Panajachel	3	Marzo	2023-03-03T00:00:00	2024-11-08T01:00:00	2	Temperatura media	13.9
22910	7	Sololá	710	Panajachel	8	Panajachel	3	Marzo	2023-03-03T00:00:00	2024-11-08T01:00:00	4	Temperatura máxima	15.2
22911	7	Sololá	710	Panajachel	8	Panajachel	3	Marzo	2023-03-03T00:00:00	2024-11-08T01:00:00	3	Temperatura mínima	13.9
22912	7	Sololá	710	Panajachel	8	Panajachel	3	Marzo	2023-03-03T00:00:00	2024-11-08T01:00:00	5	Humedad	68
22913	7	Sololá	710	Panajachel	8	Panajachel	3	Marzo	2023-03-03T00:00:00	2024-11-08T01:00:00	6	Velocidad del viento	4.8
22914	7	Sololá	710	Panajachel	8	Panajachel	3	Marzo	2023-03-03T00:00:00	2024-11-08T01:00:00	7	Dirección del viento	4.83
22915	7	Sololá	710	Panajachel	8	Panajachel	3	Marzo	2023-03-03T00:00:00	2024-11-08T01:00:00	1	Precipitación	0
22916	7	Sololá	710	Panajachel	8	Panajachel	3	Marzo	2023-03-03T00:00:00	2024-11-08T01:00:00	8	Radiación solar	0
22917	7	Sololá	710	Panajachel	8	Panajachel	3	Marzo	2023-03-03T00:00:00	2024-11-08T02:00:00	2	Temperatura media	13.4
22918	7	Sololá	710	Panajachel	8	Panajachel	3	Marzo	2023-03-03T00:00:00	2024-11-08T02:00:00	4	Temperatura máxima	13.9
22919	7	Sololá	710	Panajachel	8	Panajachel	3	Marzo	2023-03-03T00:00:00	2024-11-08T02:00:00	3	Temperatura mínima	13.4
22920	7	Sololá	710	Panajachel	8	Panajachel	3	Marzo	2023-03-03T00:00:00	2024-11-08T02:00:00	5	Humedad	63
22921	7	Sololá	710	Panajachel	8	Panajachel	3	Marzo	2023-03-03T00:00:00	2024-11-08T02:00:00	6	Velocidad del viento	4.8
22922	7	Sololá	710	Panajachel	8	Panajachel	3	Marzo	2023-03-03T00:00:00	2024-11-08T02:00:00	7	Dirección del viento	4.83
22923	7	Sololá	710	Panajachel	8	Panajachel	3	Marzo	2023-03-03T00:00:00	2024-11-08T02:00:00	1	Precipitación	0
22924	7	Sololá	710	Panajachel	8	Panajachel	3	Marzo	2023-03-03T00:00:00	2024-11-08T02:00:00	8	Radiación solar	0
22925	7	Sololá	710	Panajachel	8	Panajachel	3	Marzo	2023-03-03T00:00:00	2024-11-08T03:00:00	2	Temperatura media	13.1
22926	7	Sololá	710	Panajachel	8	Panajachel	3	Marzo	2023-03-03T00:00:00	2024-11-08T03:00:00	4	Temperatura máxima	13.4
22927	7	Sololá	710	Panajachel	8	Panajachel	3	Marzo	2023-03-03T00:00:00	2024-11-08T03:00:00	3	Temperatura mínima	13.1
22928	7	Sololá	710	Panajachel	8	Panajachel	3	Marzo	2023-03-03T00:00:00	2024-11-08T03:00:00	5	Humedad	55
22929	7	Sololá	710	Panajachel	8	Panajachel	3	Marzo	2023-03-03T00:00:00	2024-11-08T03:00:00	6	Velocidad del viento	4.8
22930	7	Sololá	710	Panajachel	8	Panajachel	3	Marzo	2023-03-03T00:00:00	2024-11-08T03:00:00	7	Dirección del viento	4.83
22931	7	Sololá	710	Panajachel	8	Panajachel	3	Marzo	2023-03-03T00:00:00	2024-11-08T03:00:00	1	Precipitación	0
22932	7	Sololá	710	Panajachel	8	Panajachel	3	Marzo	2023-03-03T00:00:00	2024-11-08T03:00:00	8	Radiación solar	0
22933	7	Sololá	710	Panajachel	8	Panajachel	3	Marzo	2023-03-03T00:00:00	2024-11-08T04:00:00	2	Temperatura media	13.2
22934	7	Sololá	710	Panajachel	8	Panajachel	3	Marzo	2023-03-03T00:00:00	2024-11-08T04:00:00	4	Temperatura máxima	13.6
22935	7	Sololá	710	Panajachel	8	Panajachel	3	Marzo	2023-03-03T00:00:00	2024-11-08T04:00:00	3	Temperatura mínima	13.1
22936	7	Sololá	710	Panajachel	8	Panajachel	3	Marzo	2023-03-03T00:00:00	2024-11-08T04:00:00	5	Humedad	55
22937	7	Sololá	710	Panajachel	8	Panajachel	3	Marzo	2023-03-03T00:00:00	2024-11-08T04:00:00	6	Velocidad del viento	4.8
22938	7	Sololá	710	Panajachel	8	Panajachel	3	Marzo	2023-03-03T00:00:00	2024-11-08T04:00:00	7	Dirección del viento	4.83
22939	7	Sololá	710	Panajachel	8	Panajachel	3	Marzo	2023-03-03T00:00:00	2024-11-08T04:00:00	1	Precipitación	0
22940	7	Sololá	710	Panajachel	8	Panajachel	3	Marzo	2023-03-03T00:00:00	2024-11-08T04:00:00	8	Radiación solar	0
22941	7	Sololá	710	Panajachel	8	Panajachel	3	Marzo	2023-03-03T00:00:00	2024-11-08T05:00:00	2	Temperatura media	13
22942	7	Sololá	710	Panajachel	8	Panajachel	3	Marzo	2023-03-03T00:00:00	2024-11-08T05:00:00	4	Temperatura máxima	13.3
22943	7	Sololá	710	Panajachel	8	Panajachel	3	Marzo	2023-03-03T00:00:00	2024-11-08T05:00:00	3	Temperatura mínima	13
22944	7	Sololá	710	Panajachel	8	Panajachel	3	Marzo	2023-03-03T00:00:00	2024-11-08T05:00:00	5	Humedad	57
22945	7	Sololá	710	Panajachel	8	Panajachel	3	Marzo	2023-03-03T00:00:00	2024-11-08T05:00:00	6	Velocidad del viento	4.8
22946	7	Sololá	710	Panajachel	8	Panajachel	3	Marzo	2023-03-03T00:00:00	2024-11-08T05:00:00	7	Dirección del viento	4.83
22947	7	Sololá	710	Panajachel	8	Panajachel	3	Marzo	2023-03-03T00:00:00	2024-11-08T05:00:00	1	Precipitación	0
22948	7	Sololá	710	Panajachel	8	Panajachel	3	Marzo	2023-03-03T00:00:00	2024-11-08T05:00:00	8	Radiación solar	0
22949	7	Sololá	710	Panajachel	8	Panajachel	3	Marzo	2023-03-03T00:00:00	2024-11-08T06:00:00	2	Temperatura media	13.1
22950	7	Sololá	710	Panajachel	8	Panajachel	3	Marzo	2023-03-03T00:00:00	2024-11-08T06:00:00	4	Temperatura máxima	13.2
22951	7	Sololá	710	Panajachel	8	Panajachel	3	Marzo	2023-03-03T00:00:00	2024-11-08T06:00:00	3	Temperatura mínima	12.9
22952	7	Sololá	710	Panajachel	8	Panajachel	3	Marzo	2023-03-03T00:00:00	2024-11-08T06:00:00	5	Humedad	57
22953	7	Sololá	710	Panajachel	8	Panajachel	3	Marzo	2023-03-03T00:00:00	2024-11-08T06:00:00	6	Velocidad del viento	3.2
22954	7	Sololá	710	Panajachel	8	Panajachel	3	Marzo	2023-03-03T00:00:00	2024-11-08T06:00:00	7	Dirección del viento	3.22
22955	7	Sololá	710	Panajachel	8	Panajachel	3	Marzo	2023-03-03T00:00:00	2024-11-08T06:00:00	1	Precipitación	0
22956	7	Sololá	710	Panajachel	8	Panajachel	3	Marzo	2023-03-03T00:00:00	2024-11-08T06:00:00	8	Radiación solar	0
22957	7	Sololá	710	Panajachel	8	Panajachel	3	Marzo	2023-03-03T00:00:00	2024-11-08T07:00:00	2	Temperatura media	13.4
22958	7	Sololá	710	Panajachel	8	Panajachel	3	Marzo	2023-03-03T00:00:00	2024-11-08T07:00:00	4	Temperatura máxima	13.8
22959	7	Sololá	710	Panajachel	8	Panajachel	3	Marzo	2023-03-03T00:00:00	2024-11-08T07:00:00	3	Temperatura mínima	13.1
22960	7	Sololá	710	Panajachel	8	Panajachel	3	Marzo	2023-03-03T00:00:00	2024-11-08T07:00:00	5	Humedad	57
22961	7	Sololá	710	Panajachel	8	Panajachel	3	Marzo	2023-03-03T00:00:00	2024-11-08T07:00:00	6	Velocidad del viento	3.2
22962	7	Sololá	710	Panajachel	8	Panajachel	3	Marzo	2023-03-03T00:00:00	2024-11-08T07:00:00	7	Dirección del viento	3.22
22963	7	Sololá	710	Panajachel	8	Panajachel	3	Marzo	2023-03-03T00:00:00	2024-11-08T07:00:00	1	Precipitación	0
22964	7	Sololá	710	Panajachel	8	Panajachel	3	Marzo	2023-03-03T00:00:00	2024-11-08T07:00:00	8	Radiación solar	7
22965	7	Sololá	710	Panajachel	8	Panajachel	3	Marzo	2023-03-03T00:00:00	2024-11-08T08:00:00	2	Temperatura media	18
22966	7	Sololá	710	Panajachel	8	Panajachel	3	Marzo	2023-03-03T00:00:00	2024-11-08T08:00:00	4	Temperatura máxima	18
22967	7	Sololá	710	Panajachel	8	Panajachel	3	Marzo	2023-03-03T00:00:00	2024-11-08T08:00:00	3	Temperatura mínima	13.3
22968	7	Sololá	710	Panajachel	8	Panajachel	3	Marzo	2023-03-03T00:00:00	2024-11-08T08:00:00	5	Humedad	68
22969	7	Sololá	710	Panajachel	8	Panajachel	3	Marzo	2023-03-03T00:00:00	2024-11-08T08:00:00	6	Velocidad del viento	3.2
22970	7	Sololá	710	Panajachel	8	Panajachel	3	Marzo	2023-03-03T00:00:00	2024-11-08T08:00:00	7	Dirección del viento	3.22
22971	7	Sololá	710	Panajachel	8	Panajachel	3	Marzo	2023-03-03T00:00:00	2024-11-08T08:00:00	1	Precipitación	0
22972	7	Sololá	710	Panajachel	8	Panajachel	3	Marzo	2023-03-03T00:00:00	2024-11-08T08:00:00	8	Radiación solar	199
22973	7	Sololá	710	Panajachel	8	Panajachel	3	Marzo	2023-03-03T00:00:00	2024-11-08T09:00:00	2	Temperatura media	17.9
22974	7	Sololá	710	Panajachel	8	Panajachel	3	Marzo	2023-03-03T00:00:00	2024-11-08T09:00:00	4	Temperatura máxima	18.4
22975	7	Sololá	710	Panajachel	8	Panajachel	3	Marzo	2023-03-03T00:00:00	2024-11-08T09:00:00	3	Temperatura mínima	17.8
22976	7	Sololá	710	Panajachel	8	Panajachel	3	Marzo	2023-03-03T00:00:00	2024-11-08T09:00:00	5	Humedad	74
22977	7	Sololá	710	Panajachel	8	Panajachel	3	Marzo	2023-03-03T00:00:00	2024-11-08T09:00:00	6	Velocidad del viento	1.6
22978	7	Sololá	710	Panajachel	8	Panajachel	3	Marzo	2023-03-03T00:00:00	2024-11-08T09:00:00	7	Dirección del viento	1.61
22979	7	Sololá	710	Panajachel	8	Panajachel	3	Marzo	2023-03-03T00:00:00	2024-11-08T09:00:00	1	Precipitación	0
22980	7	Sololá	710	Panajachel	8	Panajachel	3	Marzo	2023-03-03T00:00:00	2024-11-08T09:00:00	8	Radiación solar	453
22981	7	Sololá	710	Panajachel	8	Panajachel	3	Marzo	2023-03-03T00:00:00	2024-11-08T10:00:00	2	Temperatura media	19.8
22982	7	Sololá	710	Panajachel	8	Panajachel	3	Marzo	2023-03-03T00:00:00	2024-11-08T10:00:00	4	Temperatura máxima	19.9
22983	7	Sololá	710	Panajachel	8	Panajachel	3	Marzo	2023-03-03T00:00:00	2024-11-08T10:00:00	3	Temperatura mínima	17.8
22984	7	Sololá	710	Panajachel	8	Panajachel	3	Marzo	2023-03-03T00:00:00	2024-11-08T10:00:00	5	Humedad	71
22985	7	Sololá	710	Panajachel	8	Panajachel	3	Marzo	2023-03-03T00:00:00	2024-11-08T10:00:00	6	Velocidad del viento	3.2
22986	7	Sololá	710	Panajachel	8	Panajachel	3	Marzo	2023-03-03T00:00:00	2024-11-08T10:00:00	7	Dirección del viento	3.22
22987	7	Sololá	710	Panajachel	8	Panajachel	3	Marzo	2023-03-03T00:00:00	2024-11-08T10:00:00	1	Precipitación	0
22988	7	Sololá	710	Panajachel	8	Panajachel	3	Marzo	2023-03-03T00:00:00	2024-11-08T10:00:00	8	Radiación solar	665
22989	7	Sololá	710	Panajachel	8	Panajachel	3	Marzo	2023-03-03T00:00:00	2024-11-08T11:00:00	2	Temperatura media	21
22990	7	Sololá	710	Panajachel	8	Panajachel	3	Marzo	2023-03-03T00:00:00	2024-11-08T11:00:00	4	Temperatura máxima	21
22991	7	Sololá	710	Panajachel	8	Panajachel	3	Marzo	2023-03-03T00:00:00	2024-11-08T11:00:00	3	Temperatura mínima	19.8
22992	7	Sololá	710	Panajachel	8	Panajachel	3	Marzo	2023-03-03T00:00:00	2024-11-08T11:00:00	5	Humedad	53
22993	7	Sololá	710	Panajachel	8	Panajachel	3	Marzo	2023-03-03T00:00:00	2024-11-08T11:00:00	6	Velocidad del viento	3.2
22994	7	Sololá	710	Panajachel	8	Panajachel	3	Marzo	2023-03-03T00:00:00	2024-11-08T11:00:00	7	Dirección del viento	3.22
22995	7	Sololá	710	Panajachel	8	Panajachel	3	Marzo	2023-03-03T00:00:00	2024-11-08T11:00:00	1	Precipitación	0
22996	7	Sololá	710	Panajachel	8	Panajachel	3	Marzo	2023-03-03T00:00:00	2024-11-08T11:00:00	8	Radiación solar	823
22997	7	Sololá	710	Panajachel	8	Panajachel	3	Marzo	2023-03-03T00:00:00	2024-11-08T12:00:00	2	Temperatura media	22.6
22998	7	Sololá	710	Panajachel	8	Panajachel	3	Marzo	2023-03-03T00:00:00	2024-11-08T12:00:00	4	Temperatura máxima	22.9
22999	7	Sololá	710	Panajachel	8	Panajachel	3	Marzo	2023-03-03T00:00:00	2024-11-08T12:00:00	3	Temperatura mínima	21
23000	7	Sololá	710	Panajachel	8	Panajachel	3	Marzo	2023-03-03T00:00:00	2024-11-08T12:00:00	5	Humedad	66
23001	7	Sololá	710	Panajachel	8	Panajachel	3	Marzo	2023-03-03T00:00:00	2024-11-08T12:00:00	6	Velocidad del viento	4.8
23002	7	Sololá	710	Panajachel	8	Panajachel	3	Marzo	2023-03-03T00:00:00	2024-11-08T12:00:00	7	Dirección del viento	4.83
23003	7	Sololá	710	Panajachel	8	Panajachel	3	Marzo	2023-03-03T00:00:00	2024-11-08T12:00:00	1	Precipitación	0
23004	7	Sololá	710	Panajachel	8	Panajachel	3	Marzo	2023-03-03T00:00:00	2024-11-08T12:00:00	8	Radiación solar	907
23005	7	Sololá	710	Panajachel	8	Panajachel	3	Marzo	2023-03-03T00:00:00	2024-11-08T13:00:00	2	Temperatura media	22.9
23006	7	Sololá	710	Panajachel	8	Panajachel	3	Marzo	2023-03-03T00:00:00	2024-11-08T13:00:00	4	Temperatura máxima	22.9
23007	7	Sololá	710	Panajachel	8	Panajachel	3	Marzo	2023-03-03T00:00:00	2024-11-08T13:00:00	3	Temperatura mínima	22.1
23008	7	Sololá	710	Panajachel	8	Panajachel	3	Marzo	2023-03-03T00:00:00	2024-11-08T13:00:00	5	Humedad	72
23009	7	Sololá	710	Panajachel	8	Panajachel	3	Marzo	2023-03-03T00:00:00	2024-11-08T13:00:00	6	Velocidad del viento	8
23010	7	Sololá	710	Panajachel	8	Panajachel	3	Marzo	2023-03-03T00:00:00	2024-11-08T13:00:00	7	Dirección del viento	8.05
23011	7	Sololá	710	Panajachel	8	Panajachel	3	Marzo	2023-03-03T00:00:00	2024-11-08T13:00:00	1	Precipitación	0
23012	7	Sololá	710	Panajachel	8	Panajachel	3	Marzo	2023-03-03T00:00:00	2024-11-08T13:00:00	8	Radiación solar	916
23013	7	Sololá	710	Panajachel	8	Panajachel	3	Marzo	2023-03-03T00:00:00	2024-11-08T14:00:00	2	Temperatura media	23.3
23014	7	Sololá	710	Panajachel	8	Panajachel	3	Marzo	2023-03-03T00:00:00	2024-11-08T14:00:00	4	Temperatura máxima	23.7
23015	7	Sololá	710	Panajachel	8	Panajachel	3	Marzo	2023-03-03T00:00:00	2024-11-08T14:00:00	3	Temperatura mínima	22.7
23016	7	Sololá	710	Panajachel	8	Panajachel	3	Marzo	2023-03-03T00:00:00	2024-11-08T14:00:00	5	Humedad	71
23017	7	Sololá	710	Panajachel	8	Panajachel	3	Marzo	2023-03-03T00:00:00	2024-11-08T14:00:00	6	Velocidad del viento	6.4
23018	7	Sololá	710	Panajachel	8	Panajachel	3	Marzo	2023-03-03T00:00:00	2024-11-08T14:00:00	7	Dirección del viento	6.44
23019	7	Sololá	710	Panajachel	8	Panajachel	3	Marzo	2023-03-03T00:00:00	2024-11-08T14:00:00	1	Precipitación	0
23020	7	Sololá	710	Panajachel	8	Panajachel	3	Marzo	2023-03-03T00:00:00	2024-11-08T14:00:00	8	Radiación solar	851
23021	7	Sololá	710	Panajachel	8	Panajachel	3	Marzo	2023-03-03T00:00:00	2024-11-08T15:00:00	2	Temperatura media	23
23022	7	Sololá	710	Panajachel	8	Panajachel	3	Marzo	2023-03-03T00:00:00	2024-11-08T15:00:00	4	Temperatura máxima	23.4
23023	7	Sololá	710	Panajachel	8	Panajachel	3	Marzo	2023-03-03T00:00:00	2024-11-08T15:00:00	3	Temperatura mínima	22.8
23024	7	Sololá	710	Panajachel	8	Panajachel	3	Marzo	2023-03-03T00:00:00	2024-11-08T15:00:00	5	Humedad	71
23025	7	Sololá	710	Panajachel	8	Panajachel	3	Marzo	2023-03-03T00:00:00	2024-11-08T15:00:00	6	Velocidad del viento	6.4
23026	7	Sololá	710	Panajachel	8	Panajachel	3	Marzo	2023-03-03T00:00:00	2024-11-08T15:00:00	7	Dirección del viento	6.44
23027	7	Sololá	710	Panajachel	8	Panajachel	3	Marzo	2023-03-03T00:00:00	2024-11-08T15:00:00	1	Precipitación	0
23028	7	Sololá	710	Panajachel	8	Panajachel	3	Marzo	2023-03-03T00:00:00	2024-11-08T15:00:00	8	Radiación solar	706
23029	7	Sololá	710	Panajachel	8	Panajachel	3	Marzo	2023-03-03T00:00:00	2024-11-08T16:00:00	2	Temperatura media	22.9
23030	7	Sololá	710	Panajachel	8	Panajachel	3	Marzo	2023-03-03T00:00:00	2024-11-08T16:00:00	4	Temperatura máxima	23
23031	7	Sololá	710	Panajachel	8	Panajachel	3	Marzo	2023-03-03T00:00:00	2024-11-08T16:00:00	3	Temperatura mínima	22.2
23032	7	Sololá	710	Panajachel	8	Panajachel	3	Marzo	2023-03-03T00:00:00	2024-11-08T16:00:00	5	Humedad	71
23033	7	Sololá	710	Panajachel	8	Panajachel	3	Marzo	2023-03-03T00:00:00	2024-11-08T16:00:00	6	Velocidad del viento	4.8
23034	7	Sololá	710	Panajachel	8	Panajachel	3	Marzo	2023-03-03T00:00:00	2024-11-08T16:00:00	7	Dirección del viento	4.83
23035	7	Sololá	710	Panajachel	8	Panajachel	3	Marzo	2023-03-03T00:00:00	2024-11-08T16:00:00	1	Precipitación	0
23036	7	Sololá	710	Panajachel	8	Panajachel	3	Marzo	2023-03-03T00:00:00	2024-11-08T16:00:00	8	Radiación solar	430
23037	7	Sololá	710	Panajachel	8	Panajachel	3	Marzo	2023-03-03T00:00:00	2024-11-08T17:00:00	2	Temperatura media	22.6
23038	7	Sololá	710	Panajachel	8	Panajachel	3	Marzo	2023-03-03T00:00:00	2024-11-08T17:00:00	4	Temperatura máxima	24.1
23039	7	Sololá	710	Panajachel	8	Panajachel	3	Marzo	2023-03-03T00:00:00	2024-11-08T17:00:00	3	Temperatura mínima	22.6
23040	7	Sololá	710	Panajachel	8	Panajachel	3	Marzo	2023-03-03T00:00:00	2024-11-08T17:00:00	5	Humedad	75
23041	7	Sololá	710	Panajachel	8	Panajachel	3	Marzo	2023-03-03T00:00:00	2024-11-08T17:00:00	6	Velocidad del viento	3.2
23042	7	Sololá	710	Panajachel	8	Panajachel	3	Marzo	2023-03-03T00:00:00	2024-11-08T17:00:00	7	Dirección del viento	3.22
23043	7	Sololá	710	Panajachel	8	Panajachel	3	Marzo	2023-03-03T00:00:00	2024-11-08T17:00:00	1	Precipitación	0
23044	7	Sololá	710	Panajachel	8	Panajachel	3	Marzo	2023-03-03T00:00:00	2024-11-08T17:00:00	8	Radiación solar	349
23045	7	Sololá	710	Panajachel	8	Panajachel	3	Marzo	2023-03-03T00:00:00	2024-11-08T18:00:00	2	Temperatura media	20.4
23046	7	Sololá	710	Panajachel	8	Panajachel	3	Marzo	2023-03-03T00:00:00	2024-11-08T18:00:00	4	Temperatura máxima	22.7
23047	7	Sololá	710	Panajachel	8	Panajachel	3	Marzo	2023-03-03T00:00:00	2024-11-08T18:00:00	3	Temperatura mínima	20.4
23048	7	Sololá	710	Panajachel	8	Panajachel	3	Marzo	2023-03-03T00:00:00	2024-11-08T18:00:00	5	Humedad	83
23049	7	Sololá	710	Panajachel	8	Panajachel	3	Marzo	2023-03-03T00:00:00	2024-11-08T18:00:00	6	Velocidad del viento	3.2
23050	7	Sololá	710	Panajachel	8	Panajachel	3	Marzo	2023-03-03T00:00:00	2024-11-08T18:00:00	7	Dirección del viento	3.22
23051	7	Sololá	710	Panajachel	8	Panajachel	3	Marzo	2023-03-03T00:00:00	2024-11-08T18:00:00	1	Precipitación	0
23052	7	Sololá	710	Panajachel	8	Panajachel	3	Marzo	2023-03-03T00:00:00	2024-11-08T18:00:00	8	Radiación solar	67
23053	7	Sololá	710	Panajachel	8	Panajachel	3	Marzo	2023-03-03T00:00:00	2024-11-08T19:00:00	2	Temperatura media	19.8
23054	7	Sololá	710	Panajachel	8	Panajachel	3	Marzo	2023-03-03T00:00:00	2024-11-08T19:00:00	4	Temperatura máxima	20.5
23055	7	Sololá	710	Panajachel	8	Panajachel	3	Marzo	2023-03-03T00:00:00	2024-11-08T19:00:00	3	Temperatura mínima	19.8
23056	7	Sololá	710	Panajachel	8	Panajachel	3	Marzo	2023-03-03T00:00:00	2024-11-08T19:00:00	5	Humedad	84
23057	7	Sololá	710	Panajachel	8	Panajachel	3	Marzo	2023-03-03T00:00:00	2024-11-08T19:00:00	6	Velocidad del viento	1.6
23058	7	Sololá	710	Panajachel	8	Panajachel	3	Marzo	2023-03-03T00:00:00	2024-11-08T19:00:00	7	Dirección del viento	1.61
23059	7	Sololá	710	Panajachel	8	Panajachel	3	Marzo	2023-03-03T00:00:00	2024-11-08T19:00:00	1	Precipitación	0
23060	7	Sololá	710	Panajachel	8	Panajachel	3	Marzo	2023-03-03T00:00:00	2024-11-08T19:00:00	8	Radiación solar	0
23061	7	Sololá	710	Panajachel	8	Panajachel	3	Marzo	2023-03-03T00:00:00	2024-11-08T20:00:00	2	Temperatura media	19.3
23062	7	Sololá	710	Panajachel	8	Panajachel	3	Marzo	2023-03-03T00:00:00	2024-11-08T20:00:00	4	Temperatura máxima	19.8
23063	7	Sololá	710	Panajachel	8	Panajachel	3	Marzo	2023-03-03T00:00:00	2024-11-08T20:00:00	3	Temperatura mínima	19.3
23064	7	Sololá	710	Panajachel	8	Panajachel	3	Marzo	2023-03-03T00:00:00	2024-11-08T20:00:00	5	Humedad	89
23065	7	Sololá	710	Panajachel	8	Panajachel	3	Marzo	2023-03-03T00:00:00	2024-11-08T20:00:00	6	Velocidad del viento	0
23066	7	Sololá	710	Panajachel	8	Panajachel	3	Marzo	2023-03-03T00:00:00	2024-11-08T20:00:00	7	Dirección del viento	0
23067	7	Sololá	710	Panajachel	8	Panajachel	3	Marzo	2023-03-03T00:00:00	2024-11-08T20:00:00	1	Precipitación	0
23068	7	Sololá	710	Panajachel	8	Panajachel	3	Marzo	2023-03-03T00:00:00	2024-11-08T20:00:00	8	Radiación solar	0
23069	7	Sololá	710	Panajachel	8	Panajachel	3	Marzo	2023-03-03T00:00:00	2024-11-08T21:00:00	2	Temperatura media	19.1
23070	7	Sololá	710	Panajachel	8	Panajachel	3	Marzo	2023-03-03T00:00:00	2024-11-08T21:00:00	4	Temperatura máxima	19.3
23071	7	Sololá	710	Panajachel	8	Panajachel	3	Marzo	2023-03-03T00:00:00	2024-11-08T21:00:00	3	Temperatura mínima	19.1
23072	7	Sololá	710	Panajachel	8	Panajachel	3	Marzo	2023-03-03T00:00:00	2024-11-08T21:00:00	5	Humedad	87
23073	7	Sololá	710	Panajachel	8	Panajachel	3	Marzo	2023-03-03T00:00:00	2024-11-08T21:00:00	6	Velocidad del viento	1.6
23074	7	Sololá	710	Panajachel	8	Panajachel	3	Marzo	2023-03-03T00:00:00	2024-11-08T21:00:00	7	Dirección del viento	1.61
23075	7	Sololá	710	Panajachel	8	Panajachel	3	Marzo	2023-03-03T00:00:00	2024-11-08T21:00:00	1	Precipitación	0
23076	7	Sololá	710	Panajachel	8	Panajachel	3	Marzo	2023-03-03T00:00:00	2024-11-08T21:00:00	8	Radiación solar	0
23077	7	Sololá	710	Panajachel	8	Panajachel	3	Marzo	2023-03-03T00:00:00	2024-11-08T22:00:00	2	Temperatura media	18.2
23078	7	Sololá	710	Panajachel	8	Panajachel	3	Marzo	2023-03-03T00:00:00	2024-11-08T22:00:00	4	Temperatura máxima	19.1
23079	7	Sololá	710	Panajachel	8	Panajachel	3	Marzo	2023-03-03T00:00:00	2024-11-08T22:00:00	3	Temperatura mínima	18.2
23080	7	Sololá	710	Panajachel	8	Panajachel	3	Marzo	2023-03-03T00:00:00	2024-11-08T22:00:00	5	Humedad	91
23081	7	Sololá	710	Panajachel	8	Panajachel	3	Marzo	2023-03-03T00:00:00	2024-11-08T22:00:00	6	Velocidad del viento	3.2
23082	7	Sololá	710	Panajachel	8	Panajachel	3	Marzo	2023-03-03T00:00:00	2024-11-08T22:00:00	7	Dirección del viento	3.22
23083	7	Sololá	710	Panajachel	8	Panajachel	3	Marzo	2023-03-03T00:00:00	2024-11-08T22:00:00	1	Precipitación	0
23084	7	Sololá	710	Panajachel	8	Panajachel	3	Marzo	2023-03-03T00:00:00	2024-11-08T22:00:00	8	Radiación solar	0
23085	7	Sololá	710	Panajachel	8	Panajachel	3	Marzo	2023-03-03T00:00:00	2024-11-08T23:00:00	2	Temperatura media	17.9
23086	7	Sololá	710	Panajachel	8	Panajachel	3	Marzo	2023-03-03T00:00:00	2024-11-08T23:00:00	4	Temperatura máxima	18.2
23087	7	Sololá	710	Panajachel	8	Panajachel	3	Marzo	2023-03-03T00:00:00	2024-11-08T23:00:00	3	Temperatura mínima	17.9
23088	7	Sololá	710	Panajachel	8	Panajachel	3	Marzo	2023-03-03T00:00:00	2024-11-08T23:00:00	5	Humedad	90
23089	7	Sololá	710	Panajachel	8	Panajachel	3	Marzo	2023-03-03T00:00:00	2024-11-08T23:00:00	6	Velocidad del viento	1.6
23090	7	Sololá	710	Panajachel	8	Panajachel	3	Marzo	2023-03-03T00:00:00	2024-11-08T23:00:00	7	Dirección del viento	1.61
23091	7	Sololá	710	Panajachel	8	Panajachel	3	Marzo	2023-03-03T00:00:00	2024-11-08T23:00:00	1	Precipitación	0
23092	7	Sololá	710	Panajachel	8	Panajachel	3	Marzo	2023-03-03T00:00:00	2024-11-08T23:00:00	8	Radiación solar	0
23093	7	Sololá	710	Panajachel	8	Panajachel	3	Marzo	2023-04-03T00:00:00	2024-11-08T00:00:00	2	Temperatura media	17.7
23094	7	Sololá	710	Panajachel	8	Panajachel	3	Marzo	2023-04-03T00:00:00	2024-11-08T00:00:00	4	Temperatura máxima	17.9
23095	7	Sololá	710	Panajachel	8	Panajachel	3	Marzo	2023-04-03T00:00:00	2024-11-08T00:00:00	3	Temperatura mínima	17.7
23096	7	Sololá	710	Panajachel	8	Panajachel	3	Marzo	2023-04-03T00:00:00	2024-11-08T00:00:00	5	Humedad	91
23097	7	Sololá	710	Panajachel	8	Panajachel	3	Marzo	2023-04-03T00:00:00	2024-11-08T00:00:00	6	Velocidad del viento	0
23098	7	Sololá	710	Panajachel	8	Panajachel	3	Marzo	2023-04-03T00:00:00	2024-11-08T00:00:00	7	Dirección del viento	0
23099	7	Sololá	710	Panajachel	8	Panajachel	3	Marzo	2023-04-03T00:00:00	2024-11-08T00:00:00	1	Precipitación	0
23100	7	Sololá	710	Panajachel	8	Panajachel	3	Marzo	2023-04-03T00:00:00	2024-11-08T00:00:00	8	Radiación solar	0
23101	7	Sololá	710	Panajachel	8	Panajachel	3	Marzo	2023-04-03T00:00:00	2024-11-08T01:00:00	2	Temperatura media	16.7
23102	7	Sololá	710	Panajachel	8	Panajachel	3	Marzo	2023-04-03T00:00:00	2024-11-08T01:00:00	4	Temperatura máxima	17.8
23103	7	Sololá	710	Panajachel	8	Panajachel	3	Marzo	2023-04-03T00:00:00	2024-11-08T01:00:00	3	Temperatura mínima	16.7
23104	7	Sololá	710	Panajachel	8	Panajachel	3	Marzo	2023-04-03T00:00:00	2024-11-08T01:00:00	5	Humedad	83
23105	7	Sololá	710	Panajachel	8	Panajachel	3	Marzo	2023-04-03T00:00:00	2024-11-08T01:00:00	6	Velocidad del viento	1.6
23106	7	Sololá	710	Panajachel	8	Panajachel	3	Marzo	2023-04-03T00:00:00	2024-11-08T01:00:00	7	Dirección del viento	1.61
23107	7	Sololá	710	Panajachel	8	Panajachel	3	Marzo	2023-04-03T00:00:00	2024-11-08T01:00:00	1	Precipitación	0
23108	7	Sololá	710	Panajachel	8	Panajachel	3	Marzo	2023-04-03T00:00:00	2024-11-08T01:00:00	8	Radiación solar	0
23109	7	Sololá	710	Panajachel	8	Panajachel	3	Marzo	2023-04-03T00:00:00	2024-11-08T02:00:00	2	Temperatura media	15.5
23110	7	Sololá	710	Panajachel	8	Panajachel	3	Marzo	2023-04-03T00:00:00	2024-11-08T02:00:00	4	Temperatura máxima	16.7
23111	7	Sololá	710	Panajachel	8	Panajachel	3	Marzo	2023-04-03T00:00:00	2024-11-08T02:00:00	3	Temperatura mínima	15.5
23112	7	Sololá	710	Panajachel	8	Panajachel	3	Marzo	2023-04-03T00:00:00	2024-11-08T02:00:00	5	Humedad	83
23113	7	Sololá	710	Panajachel	8	Panajachel	3	Marzo	2023-04-03T00:00:00	2024-11-08T02:00:00	6	Velocidad del viento	1.6
23114	7	Sololá	710	Panajachel	8	Panajachel	3	Marzo	2023-04-03T00:00:00	2024-11-08T02:00:00	7	Dirección del viento	1.61
23115	7	Sololá	710	Panajachel	8	Panajachel	3	Marzo	2023-04-03T00:00:00	2024-11-08T02:00:00	1	Precipitación	0
23116	7	Sololá	710	Panajachel	8	Panajachel	3	Marzo	2023-04-03T00:00:00	2024-11-08T02:00:00	8	Radiación solar	0
23117	7	Sololá	710	Panajachel	8	Panajachel	3	Marzo	2023-04-03T00:00:00	2024-11-08T03:00:00	2	Temperatura media	15.3
23118	7	Sololá	710	Panajachel	8	Panajachel	3	Marzo	2023-04-03T00:00:00	2024-11-08T03:00:00	4	Temperatura máxima	15.6
23119	7	Sololá	710	Panajachel	8	Panajachel	3	Marzo	2023-04-03T00:00:00	2024-11-08T03:00:00	3	Temperatura mínima	15.3
23120	7	Sololá	710	Panajachel	8	Panajachel	3	Marzo	2023-04-03T00:00:00	2024-11-08T03:00:00	5	Humedad	83
23121	7	Sololá	710	Panajachel	8	Panajachel	3	Marzo	2023-04-03T00:00:00	2024-11-08T03:00:00	6	Velocidad del viento	3.2
23122	7	Sololá	710	Panajachel	8	Panajachel	3	Marzo	2023-04-03T00:00:00	2024-11-08T03:00:00	7	Dirección del viento	3.22
23123	7	Sololá	710	Panajachel	8	Panajachel	3	Marzo	2023-04-03T00:00:00	2024-11-08T03:00:00	1	Precipitación	0
23124	7	Sololá	710	Panajachel	8	Panajachel	3	Marzo	2023-04-03T00:00:00	2024-11-08T03:00:00	8	Radiación solar	0
23125	7	Sololá	710	Panajachel	8	Panajachel	3	Marzo	2023-04-03T00:00:00	2024-11-08T04:00:00	2	Temperatura media	15.2
23126	7	Sololá	710	Panajachel	8	Panajachel	3	Marzo	2023-04-03T00:00:00	2024-11-08T04:00:00	4	Temperatura máxima	15.4
23127	7	Sololá	710	Panajachel	8	Panajachel	3	Marzo	2023-04-03T00:00:00	2024-11-08T04:00:00	3	Temperatura mínima	15.1
23128	7	Sololá	710	Panajachel	8	Panajachel	3	Marzo	2023-04-03T00:00:00	2024-11-08T04:00:00	5	Humedad	84
23129	7	Sololá	710	Panajachel	8	Panajachel	3	Marzo	2023-04-03T00:00:00	2024-11-08T04:00:00	6	Velocidad del viento	3.2
23130	7	Sololá	710	Panajachel	8	Panajachel	3	Marzo	2023-04-03T00:00:00	2024-11-08T04:00:00	7	Dirección del viento	3.22
23131	7	Sololá	710	Panajachel	8	Panajachel	3	Marzo	2023-04-03T00:00:00	2024-11-08T04:00:00	1	Precipitación	0
23132	7	Sololá	710	Panajachel	8	Panajachel	3	Marzo	2023-04-03T00:00:00	2024-11-08T04:00:00	8	Radiación solar	0
23133	7	Sololá	710	Panajachel	8	Panajachel	3	Marzo	2023-04-03T00:00:00	2024-11-08T05:00:00	2	Temperatura media	14.4
23134	7	Sololá	710	Panajachel	8	Panajachel	3	Marzo	2023-04-03T00:00:00	2024-11-08T05:00:00	4	Temperatura máxima	15.2
23135	7	Sololá	710	Panajachel	8	Panajachel	3	Marzo	2023-04-03T00:00:00	2024-11-08T05:00:00	3	Temperatura mínima	14.4
23136	7	Sololá	710	Panajachel	8	Panajachel	3	Marzo	2023-04-03T00:00:00	2024-11-08T05:00:00	5	Humedad	83
23137	7	Sololá	710	Panajachel	8	Panajachel	3	Marzo	2023-04-03T00:00:00	2024-11-08T05:00:00	6	Velocidad del viento	4.8
23138	7	Sololá	710	Panajachel	8	Panajachel	3	Marzo	2023-04-03T00:00:00	2024-11-08T05:00:00	7	Dirección del viento	4.83
23139	7	Sololá	710	Panajachel	8	Panajachel	3	Marzo	2023-04-03T00:00:00	2024-11-08T05:00:00	1	Precipitación	0
23140	7	Sololá	710	Panajachel	8	Panajachel	3	Marzo	2023-04-03T00:00:00	2024-11-08T05:00:00	8	Radiación solar	0
23141	7	Sololá	710	Panajachel	8	Panajachel	3	Marzo	2023-04-03T00:00:00	2024-11-08T06:00:00	2	Temperatura media	14.2
23142	7	Sololá	710	Panajachel	8	Panajachel	3	Marzo	2023-04-03T00:00:00	2024-11-08T06:00:00	4	Temperatura máxima	14.4
23143	7	Sololá	710	Panajachel	8	Panajachel	3	Marzo	2023-04-03T00:00:00	2024-11-08T06:00:00	3	Temperatura mínima	14.2
23144	7	Sololá	710	Panajachel	8	Panajachel	3	Marzo	2023-04-03T00:00:00	2024-11-08T06:00:00	5	Humedad	84
23145	7	Sololá	710	Panajachel	8	Panajachel	3	Marzo	2023-04-03T00:00:00	2024-11-08T06:00:00	6	Velocidad del viento	4.8
23146	7	Sololá	710	Panajachel	8	Panajachel	3	Marzo	2023-04-03T00:00:00	2024-11-08T06:00:00	7	Dirección del viento	4.83
23147	7	Sololá	710	Panajachel	8	Panajachel	3	Marzo	2023-04-03T00:00:00	2024-11-08T06:00:00	1	Precipitación	0
23148	7	Sololá	710	Panajachel	8	Panajachel	3	Marzo	2023-04-03T00:00:00	2024-11-08T06:00:00	8	Radiación solar	0
23149	7	Sololá	710	Panajachel	8	Panajachel	3	Marzo	2023-04-03T00:00:00	2024-11-08T07:00:00	2	Temperatura media	14.4
23150	7	Sololá	710	Panajachel	8	Panajachel	3	Marzo	2023-04-03T00:00:00	2024-11-08T07:00:00	4	Temperatura máxima	14.4
23151	7	Sololá	710	Panajachel	8	Panajachel	3	Marzo	2023-04-03T00:00:00	2024-11-08T07:00:00	3	Temperatura mínima	14.1
23152	7	Sololá	710	Panajachel	8	Panajachel	3	Marzo	2023-04-03T00:00:00	2024-11-08T07:00:00	5	Humedad	84
23153	7	Sololá	710	Panajachel	8	Panajachel	3	Marzo	2023-04-03T00:00:00	2024-11-08T07:00:00	6	Velocidad del viento	3.2
23154	7	Sololá	710	Panajachel	8	Panajachel	3	Marzo	2023-04-03T00:00:00	2024-11-08T07:00:00	7	Dirección del viento	3.22
23155	7	Sololá	710	Panajachel	8	Panajachel	3	Marzo	2023-04-03T00:00:00	2024-11-08T07:00:00	1	Precipitación	0
23156	7	Sololá	710	Panajachel	8	Panajachel	3	Marzo	2023-04-03T00:00:00	2024-11-08T07:00:00	8	Radiación solar	12
23157	7	Sololá	710	Panajachel	8	Panajachel	3	Marzo	2023-04-03T00:00:00	2024-11-08T08:00:00	2	Temperatura media	18.3
23158	7	Sololá	710	Panajachel	8	Panajachel	3	Marzo	2023-04-03T00:00:00	2024-11-08T08:00:00	4	Temperatura máxima	18.3
23159	7	Sololá	710	Panajachel	8	Panajachel	3	Marzo	2023-04-03T00:00:00	2024-11-08T08:00:00	3	Temperatura mínima	14.3
23160	7	Sololá	710	Panajachel	8	Panajachel	3	Marzo	2023-04-03T00:00:00	2024-11-08T08:00:00	5	Humedad	78
23161	7	Sololá	710	Panajachel	8	Panajachel	3	Marzo	2023-04-03T00:00:00	2024-11-08T08:00:00	6	Velocidad del viento	1.6
23162	7	Sololá	710	Panajachel	8	Panajachel	3	Marzo	2023-04-03T00:00:00	2024-11-08T08:00:00	7	Dirección del viento	1.61
23163	7	Sololá	710	Panajachel	8	Panajachel	3	Marzo	2023-04-03T00:00:00	2024-11-08T08:00:00	1	Precipitación	0
23164	7	Sololá	710	Panajachel	8	Panajachel	3	Marzo	2023-04-03T00:00:00	2024-11-08T08:00:00	8	Radiación solar	169
23165	7	Sololá	710	Panajachel	8	Panajachel	3	Marzo	2023-04-03T00:00:00	2024-11-08T09:00:00	2	Temperatura media	18.6
23166	7	Sololá	710	Panajachel	8	Panajachel	3	Marzo	2023-04-03T00:00:00	2024-11-08T09:00:00	4	Temperatura máxima	19.2
23167	7	Sololá	710	Panajachel	8	Panajachel	3	Marzo	2023-04-03T00:00:00	2024-11-08T09:00:00	3	Temperatura mínima	18.3
23168	7	Sololá	710	Panajachel	8	Panajachel	3	Marzo	2023-04-03T00:00:00	2024-11-08T09:00:00	5	Humedad	80
23169	7	Sololá	710	Panajachel	8	Panajachel	3	Marzo	2023-04-03T00:00:00	2024-11-08T09:00:00	6	Velocidad del viento	1.6
23170	7	Sololá	710	Panajachel	8	Panajachel	3	Marzo	2023-04-03T00:00:00	2024-11-08T09:00:00	7	Dirección del viento	1.61
23171	7	Sololá	710	Panajachel	8	Panajachel	3	Marzo	2023-04-03T00:00:00	2024-11-08T09:00:00	1	Precipitación	0
23172	7	Sololá	710	Panajachel	8	Panajachel	3	Marzo	2023-04-03T00:00:00	2024-11-08T09:00:00	8	Radiación solar	411
23173	7	Sololá	710	Panajachel	8	Panajachel	3	Marzo	2023-04-03T00:00:00	2024-11-08T10:00:00	2	Temperatura media	20.8
23174	7	Sololá	710	Panajachel	8	Panajachel	3	Marzo	2023-04-03T00:00:00	2024-11-08T10:00:00	4	Temperatura máxima	20.8
23175	7	Sololá	710	Panajachel	8	Panajachel	3	Marzo	2023-04-03T00:00:00	2024-11-08T10:00:00	3	Temperatura mínima	18.7
23176	7	Sololá	710	Panajachel	8	Panajachel	3	Marzo	2023-04-03T00:00:00	2024-11-08T10:00:00	5	Humedad	76
23177	7	Sololá	710	Panajachel	8	Panajachel	3	Marzo	2023-04-03T00:00:00	2024-11-08T10:00:00	6	Velocidad del viento	3.2
23178	7	Sololá	710	Panajachel	8	Panajachel	3	Marzo	2023-04-03T00:00:00	2024-11-08T10:00:00	7	Dirección del viento	3.22
23179	7	Sololá	710	Panajachel	8	Panajachel	3	Marzo	2023-04-03T00:00:00	2024-11-08T10:00:00	1	Precipitación	0
23180	7	Sololá	710	Panajachel	8	Panajachel	3	Marzo	2023-04-03T00:00:00	2024-11-08T10:00:00	8	Radiación solar	624
23181	7	Sololá	710	Panajachel	8	Panajachel	3	Marzo	2023-04-03T00:00:00	2024-11-08T11:00:00	2	Temperatura media	23
23182	7	Sololá	710	Panajachel	8	Panajachel	3	Marzo	2023-04-03T00:00:00	2024-11-08T11:00:00	4	Temperatura máxima	23.1
23183	7	Sololá	710	Panajachel	8	Panajachel	3	Marzo	2023-04-03T00:00:00	2024-11-08T11:00:00	3	Temperatura mínima	20.8
23184	7	Sololá	710	Panajachel	8	Panajachel	3	Marzo	2023-04-03T00:00:00	2024-11-08T11:00:00	5	Humedad	69
23185	7	Sololá	710	Panajachel	8	Panajachel	3	Marzo	2023-04-03T00:00:00	2024-11-08T11:00:00	6	Velocidad del viento	3.2
23186	7	Sololá	710	Panajachel	8	Panajachel	3	Marzo	2023-04-03T00:00:00	2024-11-08T11:00:00	7	Dirección del viento	3.22
23187	7	Sololá	710	Panajachel	8	Panajachel	3	Marzo	2023-04-03T00:00:00	2024-11-08T11:00:00	1	Precipitación	0
23188	7	Sololá	710	Panajachel	8	Panajachel	3	Marzo	2023-04-03T00:00:00	2024-11-08T11:00:00	8	Radiación solar	799
23189	7	Sololá	710	Panajachel	8	Panajachel	3	Marzo	2023-04-03T00:00:00	2024-11-08T12:00:00	2	Temperatura media	24.1
23190	7	Sololá	710	Panajachel	8	Panajachel	3	Marzo	2023-04-03T00:00:00	2024-11-08T12:00:00	4	Temperatura máxima	24.1
23191	7	Sololá	710	Panajachel	8	Panajachel	3	Marzo	2023-04-03T00:00:00	2024-11-08T12:00:00	3	Temperatura mínima	22.7
23192	7	Sololá	710	Panajachel	8	Panajachel	3	Marzo	2023-04-03T00:00:00	2024-11-08T12:00:00	5	Humedad	69
23193	7	Sololá	710	Panajachel	8	Panajachel	3	Marzo	2023-04-03T00:00:00	2024-11-08T12:00:00	6	Velocidad del viento	4.8
23194	7	Sololá	710	Panajachel	8	Panajachel	3	Marzo	2023-04-03T00:00:00	2024-11-08T12:00:00	7	Dirección del viento	4.83
23195	7	Sololá	710	Panajachel	8	Panajachel	3	Marzo	2023-04-03T00:00:00	2024-11-08T12:00:00	1	Precipitación	0
23196	7	Sololá	710	Panajachel	8	Panajachel	3	Marzo	2023-04-03T00:00:00	2024-11-08T12:00:00	8	Radiación solar	857
23197	7	Sololá	710	Panajachel	8	Panajachel	3	Marzo	2023-04-03T00:00:00	2024-11-08T13:00:00	2	Temperatura media	23.3
23198	7	Sololá	710	Panajachel	8	Panajachel	3	Marzo	2023-04-03T00:00:00	2024-11-08T13:00:00	4	Temperatura máxima	24.1
23199	7	Sololá	710	Panajachel	8	Panajachel	3	Marzo	2023-04-03T00:00:00	2024-11-08T13:00:00	3	Temperatura mínima	22.6
23200	7	Sololá	710	Panajachel	8	Panajachel	3	Marzo	2023-04-03T00:00:00	2024-11-08T13:00:00	5	Humedad	72
23201	7	Sololá	710	Panajachel	8	Panajachel	3	Marzo	2023-04-03T00:00:00	2024-11-08T13:00:00	6	Velocidad del viento	8
23202	7	Sololá	710	Panajachel	8	Panajachel	3	Marzo	2023-04-03T00:00:00	2024-11-08T13:00:00	7	Dirección del viento	8.05
23203	7	Sololá	710	Panajachel	8	Panajachel	3	Marzo	2023-04-03T00:00:00	2024-11-08T13:00:00	1	Precipitación	0
23204	7	Sololá	710	Panajachel	8	Panajachel	3	Marzo	2023-04-03T00:00:00	2024-11-08T13:00:00	8	Radiación solar	899
23205	7	Sololá	710	Panajachel	8	Panajachel	3	Marzo	2023-04-03T00:00:00	2024-11-08T14:00:00	2	Temperatura media	23.2
23206	7	Sololá	710	Panajachel	8	Panajachel	3	Marzo	2023-04-03T00:00:00	2024-11-08T14:00:00	4	Temperatura máxima	23.3
23207	7	Sololá	710	Panajachel	8	Panajachel	3	Marzo	2023-04-03T00:00:00	2024-11-08T14:00:00	3	Temperatura mínima	22.6
23208	7	Sololá	710	Panajachel	8	Panajachel	3	Marzo	2023-04-03T00:00:00	2024-11-08T14:00:00	5	Humedad	73
23209	7	Sololá	710	Panajachel	8	Panajachel	3	Marzo	2023-04-03T00:00:00	2024-11-08T14:00:00	6	Velocidad del viento	4.8
23210	7	Sololá	710	Panajachel	8	Panajachel	3	Marzo	2023-04-03T00:00:00	2024-11-08T14:00:00	7	Dirección del viento	4.83
23211	7	Sololá	710	Panajachel	8	Panajachel	3	Marzo	2023-04-03T00:00:00	2024-11-08T14:00:00	1	Precipitación	0
23212	7	Sololá	710	Panajachel	8	Panajachel	3	Marzo	2023-04-03T00:00:00	2024-11-08T14:00:00	8	Radiación solar	337
23213	7	Sololá	710	Panajachel	8	Panajachel	3	Marzo	2023-04-03T00:00:00	2024-11-08T15:00:00	2	Temperatura media	23.1
23214	7	Sololá	710	Panajachel	8	Panajachel	3	Marzo	2023-04-03T00:00:00	2024-11-08T15:00:00	4	Temperatura máxima	24.1
23215	7	Sololá	710	Panajachel	8	Panajachel	3	Marzo	2023-04-03T00:00:00	2024-11-08T15:00:00	3	Temperatura mínima	22.8
23216	7	Sololá	710	Panajachel	8	Panajachel	3	Marzo	2023-04-03T00:00:00	2024-11-08T15:00:00	5	Humedad	74
23217	7	Sololá	710	Panajachel	8	Panajachel	3	Marzo	2023-04-03T00:00:00	2024-11-08T15:00:00	6	Velocidad del viento	8
23218	7	Sololá	710	Panajachel	8	Panajachel	3	Marzo	2023-04-03T00:00:00	2024-11-08T15:00:00	7	Dirección del viento	8.05
23219	7	Sololá	710	Panajachel	8	Panajachel	3	Marzo	2023-04-03T00:00:00	2024-11-08T15:00:00	1	Precipitación	0
23220	7	Sololá	710	Panajachel	8	Panajachel	3	Marzo	2023-04-03T00:00:00	2024-11-08T15:00:00	8	Radiación solar	649
23221	7	Sololá	710	Panajachel	8	Panajachel	3	Marzo	2023-04-03T00:00:00	2024-11-08T16:00:00	2	Temperatura media	23.1
23222	7	Sololá	710	Panajachel	8	Panajachel	3	Marzo	2023-04-03T00:00:00	2024-11-08T16:00:00	4	Temperatura máxima	23.9
23223	7	Sololá	710	Panajachel	8	Panajachel	3	Marzo	2023-04-03T00:00:00	2024-11-08T16:00:00	3	Temperatura mínima	23.1
23224	7	Sololá	710	Panajachel	8	Panajachel	3	Marzo	2023-04-03T00:00:00	2024-11-08T16:00:00	5	Humedad	74
23225	7	Sololá	710	Panajachel	8	Panajachel	3	Marzo	2023-04-03T00:00:00	2024-11-08T16:00:00	6	Velocidad del viento	4.8
23226	7	Sololá	710	Panajachel	8	Panajachel	3	Marzo	2023-04-03T00:00:00	2024-11-08T16:00:00	7	Dirección del viento	4.83
23227	7	Sololá	710	Panajachel	8	Panajachel	3	Marzo	2023-04-03T00:00:00	2024-11-08T16:00:00	1	Precipitación	0
23228	7	Sololá	710	Panajachel	8	Panajachel	3	Marzo	2023-04-03T00:00:00	2024-11-08T16:00:00	8	Radiación solar	416
23229	7	Sololá	710	Panajachel	8	Panajachel	3	Marzo	2023-04-03T00:00:00	2024-11-08T17:00:00	2	Temperatura media	22.2
23230	7	Sololá	710	Panajachel	8	Panajachel	3	Marzo	2023-04-03T00:00:00	2024-11-08T17:00:00	4	Temperatura máxima	23.6
23231	7	Sololá	710	Panajachel	8	Panajachel	3	Marzo	2023-04-03T00:00:00	2024-11-08T17:00:00	3	Temperatura mínima	21.9
23232	7	Sololá	710	Panajachel	8	Panajachel	3	Marzo	2023-04-03T00:00:00	2024-11-08T17:00:00	5	Humedad	79
23233	7	Sololá	710	Panajachel	8	Panajachel	3	Marzo	2023-04-03T00:00:00	2024-11-08T17:00:00	6	Velocidad del viento	4.8
23234	7	Sololá	710	Panajachel	8	Panajachel	3	Marzo	2023-04-03T00:00:00	2024-11-08T17:00:00	7	Dirección del viento	4.83
23235	7	Sololá	710	Panajachel	8	Panajachel	3	Marzo	2023-04-03T00:00:00	2024-11-08T17:00:00	1	Precipitación	0
23236	7	Sololá	710	Panajachel	8	Panajachel	3	Marzo	2023-04-03T00:00:00	2024-11-08T17:00:00	8	Radiación solar	183
23237	7	Sololá	710	Panajachel	8	Panajachel	3	Marzo	2023-04-03T00:00:00	2024-11-08T18:00:00	2	Temperatura media	20.8
23238	7	Sololá	710	Panajachel	8	Panajachel	3	Marzo	2023-04-03T00:00:00	2024-11-08T18:00:00	4	Temperatura máxima	22.2
23239	7	Sololá	710	Panajachel	8	Panajachel	3	Marzo	2023-04-03T00:00:00	2024-11-08T18:00:00	3	Temperatura mínima	20.8
23240	7	Sololá	710	Panajachel	8	Panajachel	3	Marzo	2023-04-03T00:00:00	2024-11-08T18:00:00	5	Humedad	82
23241	7	Sololá	710	Panajachel	8	Panajachel	3	Marzo	2023-04-03T00:00:00	2024-11-08T18:00:00	6	Velocidad del viento	3.2
23242	7	Sololá	710	Panajachel	8	Panajachel	3	Marzo	2023-04-03T00:00:00	2024-11-08T18:00:00	7	Dirección del viento	3.22
23243	7	Sololá	710	Panajachel	8	Panajachel	3	Marzo	2023-04-03T00:00:00	2024-11-08T18:00:00	1	Precipitación	0
23244	7	Sololá	710	Panajachel	8	Panajachel	3	Marzo	2023-04-03T00:00:00	2024-11-08T18:00:00	8	Radiación solar	54
23245	7	Sololá	710	Panajachel	8	Panajachel	3	Marzo	2023-04-03T00:00:00	2024-11-08T19:00:00	2	Temperatura media	20.1
23246	7	Sololá	710	Panajachel	8	Panajachel	3	Marzo	2023-04-03T00:00:00	2024-11-08T19:00:00	4	Temperatura máxima	20.9
23247	7	Sololá	710	Panajachel	8	Panajachel	3	Marzo	2023-04-03T00:00:00	2024-11-08T19:00:00	3	Temperatura mínima	20.1
23248	7	Sololá	710	Panajachel	8	Panajachel	3	Marzo	2023-04-03T00:00:00	2024-11-08T19:00:00	5	Humedad	87
23249	7	Sololá	710	Panajachel	8	Panajachel	3	Marzo	2023-04-03T00:00:00	2024-11-08T19:00:00	6	Velocidad del viento	0
23250	7	Sololá	710	Panajachel	8	Panajachel	3	Marzo	2023-04-03T00:00:00	2024-11-08T19:00:00	7	Dirección del viento	0
23251	7	Sololá	710	Panajachel	8	Panajachel	3	Marzo	2023-04-03T00:00:00	2024-11-08T19:00:00	1	Precipitación	0
23252	7	Sololá	710	Panajachel	8	Panajachel	3	Marzo	2023-04-03T00:00:00	2024-11-08T19:00:00	8	Radiación solar	0
23253	7	Sololá	710	Panajachel	8	Panajachel	3	Marzo	2023-04-03T00:00:00	2024-11-08T20:00:00	2	Temperatura media	19.5
23254	7	Sololá	710	Panajachel	8	Panajachel	3	Marzo	2023-04-03T00:00:00	2024-11-08T20:00:00	4	Temperatura máxima	20.1
23255	7	Sololá	710	Panajachel	8	Panajachel	3	Marzo	2023-04-03T00:00:00	2024-11-08T20:00:00	3	Temperatura mínima	19.4
23256	7	Sololá	710	Panajachel	8	Panajachel	3	Marzo	2023-04-03T00:00:00	2024-11-08T20:00:00	5	Humedad	85
23257	7	Sololá	710	Panajachel	8	Panajachel	3	Marzo	2023-04-03T00:00:00	2024-11-08T20:00:00	6	Velocidad del viento	0
23258	7	Sololá	710	Panajachel	8	Panajachel	3	Marzo	2023-04-03T00:00:00	2024-11-08T20:00:00	7	Dirección del viento	0
23259	7	Sololá	710	Panajachel	8	Panajachel	3	Marzo	2023-04-03T00:00:00	2024-11-08T20:00:00	1	Precipitación	0
23260	7	Sololá	710	Panajachel	8	Panajachel	3	Marzo	2023-04-03T00:00:00	2024-11-08T20:00:00	8	Radiación solar	0
23261	7	Sololá	710	Panajachel	8	Panajachel	3	Marzo	2023-04-03T00:00:00	2024-11-08T21:00:00	2	Temperatura media	19
23262	7	Sololá	710	Panajachel	8	Panajachel	3	Marzo	2023-04-03T00:00:00	2024-11-08T21:00:00	4	Temperatura máxima	19.5
23263	7	Sololá	710	Panajachel	8	Panajachel	3	Marzo	2023-04-03T00:00:00	2024-11-08T21:00:00	3	Temperatura mínima	18.9
23264	7	Sololá	710	Panajachel	8	Panajachel	3	Marzo	2023-04-03T00:00:00	2024-11-08T21:00:00	5	Humedad	81
23265	7	Sololá	710	Panajachel	8	Panajachel	3	Marzo	2023-04-03T00:00:00	2024-11-08T21:00:00	6	Velocidad del viento	1.6
23266	7	Sololá	710	Panajachel	8	Panajachel	3	Marzo	2023-04-03T00:00:00	2024-11-08T21:00:00	7	Dirección del viento	1.61
23267	7	Sololá	710	Panajachel	8	Panajachel	3	Marzo	2023-04-03T00:00:00	2024-11-08T21:00:00	1	Precipitación	0
23268	7	Sololá	710	Panajachel	8	Panajachel	3	Marzo	2023-04-03T00:00:00	2024-11-08T21:00:00	8	Radiación solar	0
23269	7	Sololá	710	Panajachel	8	Panajachel	3	Marzo	2023-04-03T00:00:00	2024-11-08T22:00:00	2	Temperatura media	19.2
23270	7	Sololá	710	Panajachel	8	Panajachel	3	Marzo	2023-04-03T00:00:00	2024-11-08T22:00:00	4	Temperatura máxima	19.3
23271	7	Sololá	710	Panajachel	8	Panajachel	3	Marzo	2023-04-03T00:00:00	2024-11-08T22:00:00	3	Temperatura mínima	19
23272	7	Sololá	710	Panajachel	8	Panajachel	3	Marzo	2023-04-03T00:00:00	2024-11-08T22:00:00	5	Humedad	78
23273	7	Sololá	710	Panajachel	8	Panajachel	3	Marzo	2023-04-03T00:00:00	2024-11-08T22:00:00	6	Velocidad del viento	3.2
23274	7	Sololá	710	Panajachel	8	Panajachel	3	Marzo	2023-04-03T00:00:00	2024-11-08T22:00:00	7	Dirección del viento	3.22
23275	7	Sololá	710	Panajachel	8	Panajachel	3	Marzo	2023-04-03T00:00:00	2024-11-08T22:00:00	1	Precipitación	0
23276	7	Sololá	710	Panajachel	8	Panajachel	3	Marzo	2023-04-03T00:00:00	2024-11-08T22:00:00	8	Radiación solar	0
23277	7	Sololá	710	Panajachel	8	Panajachel	3	Marzo	2023-04-03T00:00:00	2024-11-08T23:00:00	2	Temperatura media	19.9
23278	7	Sololá	710	Panajachel	8	Panajachel	3	Marzo	2023-04-03T00:00:00	2024-11-08T23:00:00	4	Temperatura máxima	19.9
23279	7	Sololá	710	Panajachel	8	Panajachel	3	Marzo	2023-04-03T00:00:00	2024-11-08T23:00:00	3	Temperatura mínima	19.2
23280	7	Sololá	710	Panajachel	8	Panajachel	3	Marzo	2023-04-03T00:00:00	2024-11-08T23:00:00	5	Humedad	73
23281	7	Sololá	710	Panajachel	8	Panajachel	3	Marzo	2023-04-03T00:00:00	2024-11-08T23:00:00	6	Velocidad del viento	1.6
23282	7	Sololá	710	Panajachel	8	Panajachel	3	Marzo	2023-04-03T00:00:00	2024-11-08T23:00:00	7	Dirección del viento	1.61
23283	7	Sololá	710	Panajachel	8	Panajachel	3	Marzo	2023-04-03T00:00:00	2024-11-08T23:00:00	1	Precipitación	0
23284	7	Sololá	710	Panajachel	8	Panajachel	3	Marzo	2023-04-03T00:00:00	2024-11-08T23:00:00	8	Radiación solar	0
23285	7	Sololá	710	Panajachel	8	Panajachel	3	Marzo	2023-05-03T00:00:00	2024-11-08T00:00:00	2	Temperatura media	19.1
23286	7	Sololá	710	Panajachel	8	Panajachel	3	Marzo	2023-05-03T00:00:00	2024-11-08T00:00:00	4	Temperatura máxima	19.9
23287	7	Sololá	710	Panajachel	8	Panajachel	3	Marzo	2023-05-03T00:00:00	2024-11-08T00:00:00	3	Temperatura mínima	19.1
23288	7	Sololá	710	Panajachel	8	Panajachel	3	Marzo	2023-05-03T00:00:00	2024-11-08T00:00:00	5	Humedad	75
23289	7	Sololá	710	Panajachel	8	Panajachel	3	Marzo	2023-05-03T00:00:00	2024-11-08T00:00:00	6	Velocidad del viento	3.2
23290	7	Sololá	710	Panajachel	8	Panajachel	3	Marzo	2023-05-03T00:00:00	2024-11-08T00:00:00	7	Dirección del viento	3.22
23291	7	Sololá	710	Panajachel	8	Panajachel	3	Marzo	2023-05-03T00:00:00	2024-11-08T00:00:00	1	Precipitación	0
23292	7	Sololá	710	Panajachel	8	Panajachel	3	Marzo	2023-05-03T00:00:00	2024-11-08T00:00:00	8	Radiación solar	0
23293	7	Sololá	710	Panajachel	8	Panajachel	3	Marzo	2023-05-03T00:00:00	2024-11-08T01:00:00	2	Temperatura media	18.3
23294	7	Sololá	710	Panajachel	8	Panajachel	3	Marzo	2023-05-03T00:00:00	2024-11-08T01:00:00	4	Temperatura máxima	19
23295	7	Sololá	710	Panajachel	8	Panajachel	3	Marzo	2023-05-03T00:00:00	2024-11-08T01:00:00	3	Temperatura mínima	18.3
23296	7	Sololá	710	Panajachel	8	Panajachel	3	Marzo	2023-05-03T00:00:00	2024-11-08T01:00:00	5	Humedad	78
23297	7	Sololá	710	Panajachel	8	Panajachel	3	Marzo	2023-05-03T00:00:00	2024-11-08T01:00:00	6	Velocidad del viento	3.2
23298	7	Sololá	710	Panajachel	8	Panajachel	3	Marzo	2023-05-03T00:00:00	2024-11-08T01:00:00	7	Dirección del viento	3.22
23299	7	Sololá	710	Panajachel	8	Panajachel	3	Marzo	2023-05-03T00:00:00	2024-11-08T01:00:00	1	Precipitación	0
23300	7	Sololá	710	Panajachel	8	Panajachel	3	Marzo	2023-05-03T00:00:00	2024-11-08T01:00:00	8	Radiación solar	0
23301	7	Sololá	710	Panajachel	8	Panajachel	3	Marzo	2023-05-03T00:00:00	2024-11-08T02:00:00	2	Temperatura media	18.7
23302	7	Sololá	710	Panajachel	8	Panajachel	3	Marzo	2023-05-03T00:00:00	2024-11-08T02:00:00	4	Temperatura máxima	18.8
23303	7	Sololá	710	Panajachel	8	Panajachel	3	Marzo	2023-05-03T00:00:00	2024-11-08T02:00:00	3	Temperatura mínima	18.2
23304	7	Sololá	710	Panajachel	8	Panajachel	3	Marzo	2023-05-03T00:00:00	2024-11-08T02:00:00	5	Humedad	75
23305	7	Sololá	710	Panajachel	8	Panajachel	3	Marzo	2023-05-03T00:00:00	2024-11-08T02:00:00	6	Velocidad del viento	1.6
23306	7	Sololá	710	Panajachel	8	Panajachel	3	Marzo	2023-05-03T00:00:00	2024-11-08T02:00:00	7	Dirección del viento	1.61
23307	7	Sololá	710	Panajachel	8	Panajachel	3	Marzo	2023-05-03T00:00:00	2024-11-08T02:00:00	1	Precipitación	0
23308	7	Sololá	710	Panajachel	8	Panajachel	3	Marzo	2023-05-03T00:00:00	2024-11-08T02:00:00	8	Radiación solar	0
23309	7	Sololá	710	Panajachel	8	Panajachel	3	Marzo	2023-05-03T00:00:00	2024-11-08T03:00:00	2	Temperatura media	17.9
23310	7	Sololá	710	Panajachel	8	Panajachel	3	Marzo	2023-05-03T00:00:00	2024-11-08T03:00:00	4	Temperatura máxima	18.8
23311	7	Sololá	710	Panajachel	8	Panajachel	3	Marzo	2023-05-03T00:00:00	2024-11-08T03:00:00	3	Temperatura mínima	17.9
23312	7	Sololá	710	Panajachel	8	Panajachel	3	Marzo	2023-05-03T00:00:00	2024-11-08T03:00:00	5	Humedad	76
23313	7	Sololá	710	Panajachel	8	Panajachel	3	Marzo	2023-05-03T00:00:00	2024-11-08T03:00:00	6	Velocidad del viento	1.6
23314	7	Sololá	710	Panajachel	8	Panajachel	3	Marzo	2023-05-03T00:00:00	2024-11-08T03:00:00	7	Dirección del viento	1.61
23315	7	Sololá	710	Panajachel	8	Panajachel	3	Marzo	2023-05-03T00:00:00	2024-11-08T03:00:00	1	Precipitación	0
23316	7	Sololá	710	Panajachel	8	Panajachel	3	Marzo	2023-05-03T00:00:00	2024-11-08T03:00:00	8	Radiación solar	0
23317	7	Sololá	710	Panajachel	8	Panajachel	3	Marzo	2023-05-03T00:00:00	2024-11-08T04:00:00	2	Temperatura media	17.3
23318	7	Sololá	710	Panajachel	8	Panajachel	3	Marzo	2023-05-03T00:00:00	2024-11-08T04:00:00	4	Temperatura máxima	17.9
23319	7	Sololá	710	Panajachel	8	Panajachel	3	Marzo	2023-05-03T00:00:00	2024-11-08T04:00:00	3	Temperatura mínima	17.2
23320	7	Sololá	710	Panajachel	8	Panajachel	3	Marzo	2023-05-03T00:00:00	2024-11-08T04:00:00	5	Humedad	75
23321	7	Sololá	710	Panajachel	8	Panajachel	3	Marzo	2023-05-03T00:00:00	2024-11-08T04:00:00	6	Velocidad del viento	0
23322	7	Sololá	710	Panajachel	8	Panajachel	3	Marzo	2023-05-03T00:00:00	2024-11-08T04:00:00	7	Dirección del viento	0
23323	7	Sololá	710	Panajachel	8	Panajachel	3	Marzo	2023-05-03T00:00:00	2024-11-08T04:00:00	1	Precipitación	0
23324	7	Sololá	710	Panajachel	8	Panajachel	3	Marzo	2023-05-03T00:00:00	2024-11-08T04:00:00	8	Radiación solar	0
23325	7	Sololá	710	Panajachel	8	Panajachel	3	Marzo	2023-05-03T00:00:00	2024-11-08T05:00:00	2	Temperatura media	16.4
23326	7	Sololá	710	Panajachel	8	Panajachel	3	Marzo	2023-05-03T00:00:00	2024-11-08T05:00:00	4	Temperatura máxima	17.4
23327	7	Sololá	710	Panajachel	8	Panajachel	3	Marzo	2023-05-03T00:00:00	2024-11-08T05:00:00	3	Temperatura mínima	16.4
23328	7	Sololá	710	Panajachel	8	Panajachel	3	Marzo	2023-05-03T00:00:00	2024-11-08T05:00:00	5	Humedad	79
23329	7	Sololá	710	Panajachel	8	Panajachel	3	Marzo	2023-05-03T00:00:00	2024-11-08T05:00:00	6	Velocidad del viento	0
23330	7	Sololá	710	Panajachel	8	Panajachel	3	Marzo	2023-05-03T00:00:00	2024-11-08T05:00:00	7	Dirección del viento	0
23331	7	Sololá	710	Panajachel	8	Panajachel	3	Marzo	2023-05-03T00:00:00	2024-11-08T05:00:00	1	Precipitación	0
23332	7	Sololá	710	Panajachel	8	Panajachel	3	Marzo	2023-05-03T00:00:00	2024-11-08T05:00:00	8	Radiación solar	0
23333	7	Sololá	710	Panajachel	8	Panajachel	3	Marzo	2023-05-03T00:00:00	2024-11-08T06:00:00	2	Temperatura media	16.6
23334	7	Sololá	710	Panajachel	8	Panajachel	3	Marzo	2023-05-03T00:00:00	2024-11-08T06:00:00	4	Temperatura máxima	17.1
23335	7	Sololá	710	Panajachel	8	Panajachel	3	Marzo	2023-05-03T00:00:00	2024-11-08T06:00:00	3	Temperatura mínima	16.2
23336	7	Sololá	710	Panajachel	8	Panajachel	3	Marzo	2023-05-03T00:00:00	2024-11-08T06:00:00	5	Humedad	74
23337	7	Sololá	710	Panajachel	8	Panajachel	3	Marzo	2023-05-03T00:00:00	2024-11-08T06:00:00	6	Velocidad del viento	0
23338	7	Sololá	710	Panajachel	8	Panajachel	3	Marzo	2023-05-03T00:00:00	2024-11-08T06:00:00	7	Dirección del viento	0
23339	7	Sololá	710	Panajachel	8	Panajachel	3	Marzo	2023-05-03T00:00:00	2024-11-08T06:00:00	1	Precipitación	0
23340	7	Sololá	710	Panajachel	8	Panajachel	3	Marzo	2023-05-03T00:00:00	2024-11-08T06:00:00	8	Radiación solar	0
23341	7	Sololá	710	Panajachel	8	Panajachel	3	Marzo	2023-05-03T00:00:00	2024-11-08T07:00:00	2	Temperatura media	16.6
23342	7	Sololá	710	Panajachel	8	Panajachel	3	Marzo	2023-05-03T00:00:00	2024-11-08T07:00:00	4	Temperatura máxima	17.5
23343	7	Sololá	710	Panajachel	8	Panajachel	3	Marzo	2023-05-03T00:00:00	2024-11-08T07:00:00	3	Temperatura mínima	16.4
23344	7	Sololá	710	Panajachel	8	Panajachel	3	Marzo	2023-05-03T00:00:00	2024-11-08T07:00:00	5	Humedad	77
23345	7	Sololá	710	Panajachel	8	Panajachel	3	Marzo	2023-05-03T00:00:00	2024-11-08T07:00:00	6	Velocidad del viento	0
23346	7	Sololá	710	Panajachel	8	Panajachel	3	Marzo	2023-05-03T00:00:00	2024-11-08T07:00:00	7	Dirección del viento	0
23347	7	Sololá	710	Panajachel	8	Panajachel	3	Marzo	2023-05-03T00:00:00	2024-11-08T07:00:00	1	Precipitación	0
23348	7	Sololá	710	Panajachel	8	Panajachel	3	Marzo	2023-05-03T00:00:00	2024-11-08T07:00:00	8	Radiación solar	12
23349	7	Sololá	710	Panajachel	8	Panajachel	3	Marzo	2023-05-03T00:00:00	2024-11-08T08:00:00	2	Temperatura media	19.2
23350	7	Sololá	710	Panajachel	8	Panajachel	3	Marzo	2023-05-03T00:00:00	2024-11-08T08:00:00	4	Temperatura máxima	19.7
23351	7	Sololá	710	Panajachel	8	Panajachel	3	Marzo	2023-05-03T00:00:00	2024-11-08T08:00:00	3	Temperatura mínima	16.6
23352	7	Sololá	710	Panajachel	8	Panajachel	3	Marzo	2023-05-03T00:00:00	2024-11-08T08:00:00	5	Humedad	70
23353	7	Sololá	710	Panajachel	8	Panajachel	3	Marzo	2023-05-03T00:00:00	2024-11-08T08:00:00	6	Velocidad del viento	0
23354	7	Sololá	710	Panajachel	8	Panajachel	3	Marzo	2023-05-03T00:00:00	2024-11-08T08:00:00	7	Dirección del viento	0
23355	7	Sololá	710	Panajachel	8	Panajachel	3	Marzo	2023-05-03T00:00:00	2024-11-08T08:00:00	1	Precipitación	0
23356	7	Sololá	710	Panajachel	8	Panajachel	3	Marzo	2023-05-03T00:00:00	2024-11-08T08:00:00	8	Radiación solar	191
23357	7	Sololá	710	Panajachel	8	Panajachel	3	Marzo	2023-05-03T00:00:00	2024-11-08T09:00:00	2	Temperatura media	20.1
23358	7	Sololá	710	Panajachel	8	Panajachel	3	Marzo	2023-05-03T00:00:00	2024-11-08T09:00:00	4	Temperatura máxima	20.6
23359	7	Sololá	710	Panajachel	8	Panajachel	3	Marzo	2023-05-03T00:00:00	2024-11-08T09:00:00	3	Temperatura mínima	19.2
23360	7	Sololá	710	Panajachel	8	Panajachel	3	Marzo	2023-05-03T00:00:00	2024-11-08T09:00:00	5	Humedad	73
23361	7	Sololá	710	Panajachel	8	Panajachel	3	Marzo	2023-05-03T00:00:00	2024-11-08T09:00:00	6	Velocidad del viento	1.6
23362	7	Sololá	710	Panajachel	8	Panajachel	3	Marzo	2023-05-03T00:00:00	2024-11-08T09:00:00	7	Dirección del viento	1.61
23363	7	Sololá	710	Panajachel	8	Panajachel	3	Marzo	2023-05-03T00:00:00	2024-11-08T09:00:00	1	Precipitación	0
23364	7	Sololá	710	Panajachel	8	Panajachel	3	Marzo	2023-05-03T00:00:00	2024-11-08T09:00:00	8	Radiación solar	437
23365	7	Sololá	710	Panajachel	8	Panajachel	3	Marzo	2023-05-03T00:00:00	2024-11-08T10:00:00	2	Temperatura media	21.2
23366	7	Sololá	710	Panajachel	8	Panajachel	3	Marzo	2023-05-03T00:00:00	2024-11-08T10:00:00	4	Temperatura máxima	21.6
23367	7	Sololá	710	Panajachel	8	Panajachel	3	Marzo	2023-05-03T00:00:00	2024-11-08T10:00:00	3	Temperatura mínima	20.1
23368	7	Sololá	710	Panajachel	8	Panajachel	3	Marzo	2023-05-03T00:00:00	2024-11-08T10:00:00	5	Humedad	70
23369	7	Sololá	710	Panajachel	8	Panajachel	3	Marzo	2023-05-03T00:00:00	2024-11-08T10:00:00	6	Velocidad del viento	3.2
23370	7	Sololá	710	Panajachel	8	Panajachel	3	Marzo	2023-05-03T00:00:00	2024-11-08T10:00:00	7	Dirección del viento	3.22
23371	7	Sololá	710	Panajachel	8	Panajachel	3	Marzo	2023-05-03T00:00:00	2024-11-08T10:00:00	1	Precipitación	0
23372	7	Sololá	710	Panajachel	8	Panajachel	3	Marzo	2023-05-03T00:00:00	2024-11-08T10:00:00	8	Radiación solar	640
23373	7	Sololá	710	Panajachel	8	Panajachel	3	Marzo	2023-05-03T00:00:00	2024-11-08T11:00:00	2	Temperatura media	23.2
23374	7	Sololá	710	Panajachel	8	Panajachel	3	Marzo	2023-05-03T00:00:00	2024-11-08T11:00:00	4	Temperatura máxima	23.2
23375	7	Sololá	710	Panajachel	8	Panajachel	3	Marzo	2023-05-03T00:00:00	2024-11-08T11:00:00	3	Temperatura mínima	21
23376	7	Sololá	710	Panajachel	8	Panajachel	3	Marzo	2023-05-03T00:00:00	2024-11-08T11:00:00	5	Humedad	65
23377	7	Sololá	710	Panajachel	8	Panajachel	3	Marzo	2023-05-03T00:00:00	2024-11-08T11:00:00	6	Velocidad del viento	4.8
23378	7	Sololá	710	Panajachel	8	Panajachel	3	Marzo	2023-05-03T00:00:00	2024-11-08T11:00:00	7	Dirección del viento	4.83
23379	7	Sololá	710	Panajachel	8	Panajachel	3	Marzo	2023-05-03T00:00:00	2024-11-08T11:00:00	1	Precipitación	0
23380	7	Sololá	710	Panajachel	8	Panajachel	3	Marzo	2023-05-03T00:00:00	2024-11-08T11:00:00	8	Radiación solar	778
23381	7	Sololá	710	Panajachel	8	Panajachel	3	Marzo	2023-05-03T00:00:00	2024-11-08T12:00:00	2	Temperatura media	24.7
23382	7	Sololá	710	Panajachel	8	Panajachel	3	Marzo	2023-05-03T00:00:00	2024-11-08T12:00:00	4	Temperatura máxima	24.7
23383	7	Sololá	710	Panajachel	8	Panajachel	3	Marzo	2023-05-03T00:00:00	2024-11-08T12:00:00	3	Temperatura mínima	22.8
23384	7	Sololá	710	Panajachel	8	Panajachel	3	Marzo	2023-05-03T00:00:00	2024-11-08T12:00:00	5	Humedad	64
23385	7	Sololá	710	Panajachel	8	Panajachel	3	Marzo	2023-05-03T00:00:00	2024-11-08T12:00:00	6	Velocidad del viento	3.2
23386	7	Sololá	710	Panajachel	8	Panajachel	3	Marzo	2023-05-03T00:00:00	2024-11-08T12:00:00	7	Dirección del viento	3.22
23387	7	Sololá	710	Panajachel	8	Panajachel	3	Marzo	2023-05-03T00:00:00	2024-11-08T12:00:00	1	Precipitación	0
23388	7	Sololá	710	Panajachel	8	Panajachel	3	Marzo	2023-05-03T00:00:00	2024-11-08T12:00:00	8	Radiación solar	873
23389	7	Sololá	710	Panajachel	8	Panajachel	3	Marzo	2023-05-03T00:00:00	2024-11-08T13:00:00	2	Temperatura media	23.7
23390	7	Sololá	710	Panajachel	8	Panajachel	3	Marzo	2023-05-03T00:00:00	2024-11-08T13:00:00	4	Temperatura máxima	25.1
23391	7	Sololá	710	Panajachel	8	Panajachel	3	Marzo	2023-05-03T00:00:00	2024-11-08T13:00:00	3	Temperatura mínima	23.6
23392	7	Sololá	710	Panajachel	8	Panajachel	3	Marzo	2023-05-03T00:00:00	2024-11-08T13:00:00	5	Humedad	77
23393	7	Sololá	710	Panajachel	8	Panajachel	3	Marzo	2023-05-03T00:00:00	2024-11-08T13:00:00	6	Velocidad del viento	4.8
23394	7	Sololá	710	Panajachel	8	Panajachel	3	Marzo	2023-05-03T00:00:00	2024-11-08T13:00:00	7	Dirección del viento	4.83
23395	7	Sololá	710	Panajachel	8	Panajachel	3	Marzo	2023-05-03T00:00:00	2024-11-08T13:00:00	1	Precipitación	0
23396	7	Sololá	710	Panajachel	8	Panajachel	3	Marzo	2023-05-03T00:00:00	2024-11-08T13:00:00	8	Radiación solar	889
23397	7	Sololá	710	Panajachel	8	Panajachel	3	Marzo	2023-05-03T00:00:00	2024-11-08T14:00:00	2	Temperatura media	23.9
23398	7	Sololá	710	Panajachel	8	Panajachel	3	Marzo	2023-05-03T00:00:00	2024-11-08T14:00:00	4	Temperatura máxima	24.8
23399	7	Sololá	710	Panajachel	8	Panajachel	3	Marzo	2023-05-03T00:00:00	2024-11-08T14:00:00	3	Temperatura mínima	23.7
23400	7	Sololá	710	Panajachel	8	Panajachel	3	Marzo	2023-05-03T00:00:00	2024-11-08T14:00:00	5	Humedad	76
23401	7	Sololá	710	Panajachel	8	Panajachel	3	Marzo	2023-05-03T00:00:00	2024-11-08T14:00:00	6	Velocidad del viento	6.4
23402	7	Sololá	710	Panajachel	8	Panajachel	3	Marzo	2023-05-03T00:00:00	2024-11-08T14:00:00	7	Dirección del viento	6.44
23403	7	Sololá	710	Panajachel	8	Panajachel	3	Marzo	2023-05-03T00:00:00	2024-11-08T14:00:00	1	Precipitación	0
23404	7	Sololá	710	Panajachel	8	Panajachel	3	Marzo	2023-05-03T00:00:00	2024-11-08T14:00:00	8	Radiación solar	845
23405	7	Sololá	710	Panajachel	8	Panajachel	3	Marzo	2023-05-03T00:00:00	2024-11-08T15:00:00	2	Temperatura media	22.7
23406	7	Sololá	710	Panajachel	8	Panajachel	3	Marzo	2023-05-03T00:00:00	2024-11-08T15:00:00	4	Temperatura máxima	24.8
23407	7	Sololá	710	Panajachel	8	Panajachel	3	Marzo	2023-05-03T00:00:00	2024-11-08T15:00:00	3	Temperatura mínima	22.7
23408	7	Sololá	710	Panajachel	8	Panajachel	3	Marzo	2023-05-03T00:00:00	2024-11-08T15:00:00	5	Humedad	80
23409	7	Sololá	710	Panajachel	8	Panajachel	3	Marzo	2023-05-03T00:00:00	2024-11-08T15:00:00	6	Velocidad del viento	6.4
23410	7	Sololá	710	Panajachel	8	Panajachel	3	Marzo	2023-05-03T00:00:00	2024-11-08T15:00:00	7	Dirección del viento	6.44
23411	7	Sololá	710	Panajachel	8	Panajachel	3	Marzo	2023-05-03T00:00:00	2024-11-08T15:00:00	1	Precipitación	0
23412	7	Sololá	710	Panajachel	8	Panajachel	3	Marzo	2023-05-03T00:00:00	2024-11-08T15:00:00	8	Radiación solar	363
23413	7	Sololá	710	Panajachel	8	Panajachel	3	Marzo	2023-05-03T00:00:00	2024-11-08T16:00:00	2	Temperatura media	22.1
23414	7	Sololá	710	Panajachel	8	Panajachel	3	Marzo	2023-05-03T00:00:00	2024-11-08T16:00:00	4	Temperatura máxima	23.1
23415	7	Sololá	710	Panajachel	8	Panajachel	3	Marzo	2023-05-03T00:00:00	2024-11-08T16:00:00	3	Temperatura mínima	22.1
23416	7	Sololá	710	Panajachel	8	Panajachel	3	Marzo	2023-05-03T00:00:00	2024-11-08T16:00:00	5	Humedad	83
23417	7	Sololá	710	Panajachel	8	Panajachel	3	Marzo	2023-05-03T00:00:00	2024-11-08T16:00:00	6	Velocidad del viento	4.8
23418	7	Sololá	710	Panajachel	8	Panajachel	3	Marzo	2023-05-03T00:00:00	2024-11-08T16:00:00	7	Dirección del viento	4.83
23419	7	Sololá	710	Panajachel	8	Panajachel	3	Marzo	2023-05-03T00:00:00	2024-11-08T16:00:00	1	Precipitación	0
23420	7	Sololá	710	Panajachel	8	Panajachel	3	Marzo	2023-05-03T00:00:00	2024-11-08T16:00:00	8	Radiación solar	227
23421	7	Sololá	710	Panajachel	8	Panajachel	3	Marzo	2023-05-03T00:00:00	2024-11-08T17:00:00	2	Temperatura media	21.2
23422	7	Sololá	710	Panajachel	8	Panajachel	3	Marzo	2023-05-03T00:00:00	2024-11-08T17:00:00	4	Temperatura máxima	22.1
23423	7	Sololá	710	Panajachel	8	Panajachel	3	Marzo	2023-05-03T00:00:00	2024-11-08T17:00:00	3	Temperatura mínima	21.2
23424	7	Sololá	710	Panajachel	8	Panajachel	3	Marzo	2023-05-03T00:00:00	2024-11-08T17:00:00	5	Humedad	85
23425	7	Sololá	710	Panajachel	8	Panajachel	3	Marzo	2023-05-03T00:00:00	2024-11-08T17:00:00	6	Velocidad del viento	4.8
23426	7	Sololá	710	Panajachel	8	Panajachel	3	Marzo	2023-05-03T00:00:00	2024-11-08T17:00:00	7	Dirección del viento	4.83
23427	7	Sololá	710	Panajachel	8	Panajachel	3	Marzo	2023-05-03T00:00:00	2024-11-08T17:00:00	1	Precipitación	0
23428	7	Sololá	710	Panajachel	8	Panajachel	3	Marzo	2023-05-03T00:00:00	2024-11-08T17:00:00	8	Radiación solar	110
23429	7	Sololá	710	Panajachel	8	Panajachel	3	Marzo	2023-05-03T00:00:00	2024-11-08T18:00:00	2	Temperatura media	20.1
23430	7	Sololá	710	Panajachel	8	Panajachel	3	Marzo	2023-05-03T00:00:00	2024-11-08T18:00:00	4	Temperatura máxima	21.2
23431	7	Sololá	710	Panajachel	8	Panajachel	3	Marzo	2023-05-03T00:00:00	2024-11-08T18:00:00	3	Temperatura mínima	20.1
23432	7	Sololá	710	Panajachel	8	Panajachel	3	Marzo	2023-05-03T00:00:00	2024-11-08T18:00:00	5	Humedad	89
23433	7	Sololá	710	Panajachel	8	Panajachel	3	Marzo	2023-05-03T00:00:00	2024-11-08T18:00:00	6	Velocidad del viento	6.4
23434	7	Sololá	710	Panajachel	8	Panajachel	3	Marzo	2023-05-03T00:00:00	2024-11-08T18:00:00	7	Dirección del viento	6.44
23435	7	Sololá	710	Panajachel	8	Panajachel	3	Marzo	2023-05-03T00:00:00	2024-11-08T18:00:00	1	Precipitación	0
23436	7	Sololá	710	Panajachel	8	Panajachel	3	Marzo	2023-05-03T00:00:00	2024-11-08T18:00:00	8	Radiación solar	57
23437	7	Sololá	710	Panajachel	8	Panajachel	3	Marzo	2023-05-03T00:00:00	2024-11-08T19:00:00	2	Temperatura media	19.2
23438	7	Sololá	710	Panajachel	8	Panajachel	3	Marzo	2023-05-03T00:00:00	2024-11-08T19:00:00	4	Temperatura máxima	20.1
23439	7	Sololá	710	Panajachel	8	Panajachel	3	Marzo	2023-05-03T00:00:00	2024-11-08T19:00:00	3	Temperatura mínima	19.1
23440	7	Sololá	710	Panajachel	8	Panajachel	3	Marzo	2023-05-03T00:00:00	2024-11-08T19:00:00	5	Humedad	89
23441	7	Sololá	710	Panajachel	8	Panajachel	3	Marzo	2023-05-03T00:00:00	2024-11-08T19:00:00	6	Velocidad del viento	3.2
23442	7	Sololá	710	Panajachel	8	Panajachel	3	Marzo	2023-05-03T00:00:00	2024-11-08T19:00:00	7	Dirección del viento	3.22
23443	7	Sololá	710	Panajachel	8	Panajachel	3	Marzo	2023-05-03T00:00:00	2024-11-08T19:00:00	1	Precipitación	0
23444	7	Sololá	710	Panajachel	8	Panajachel	3	Marzo	2023-05-03T00:00:00	2024-11-08T19:00:00	8	Radiación solar	0
23445	7	Sololá	710	Panajachel	8	Panajachel	3	Marzo	2023-05-03T00:00:00	2024-11-08T20:00:00	2	Temperatura media	18.8
23446	7	Sololá	710	Panajachel	8	Panajachel	3	Marzo	2023-05-03T00:00:00	2024-11-08T20:00:00	4	Temperatura máxima	19.2
23447	7	Sololá	710	Panajachel	8	Panajachel	3	Marzo	2023-05-03T00:00:00	2024-11-08T20:00:00	3	Temperatura mínima	18.7
23448	7	Sololá	710	Panajachel	8	Panajachel	3	Marzo	2023-05-03T00:00:00	2024-11-08T20:00:00	5	Humedad	89
23449	7	Sololá	710	Panajachel	8	Panajachel	3	Marzo	2023-05-03T00:00:00	2024-11-08T20:00:00	6	Velocidad del viento	3.2
23450	7	Sololá	710	Panajachel	8	Panajachel	3	Marzo	2023-05-03T00:00:00	2024-11-08T20:00:00	7	Dirección del viento	3.22
23451	7	Sololá	710	Panajachel	8	Panajachel	3	Marzo	2023-05-03T00:00:00	2024-11-08T20:00:00	1	Precipitación	0
23452	7	Sololá	710	Panajachel	8	Panajachel	3	Marzo	2023-05-03T00:00:00	2024-11-08T20:00:00	8	Radiación solar	0
23453	7	Sololá	710	Panajachel	8	Panajachel	3	Marzo	2023-05-03T00:00:00	2024-11-08T21:00:00	2	Temperatura media	18.6
23454	7	Sololá	710	Panajachel	8	Panajachel	3	Marzo	2023-05-03T00:00:00	2024-11-08T21:00:00	4	Temperatura máxima	18.8
23455	7	Sololá	710	Panajachel	8	Panajachel	3	Marzo	2023-05-03T00:00:00	2024-11-08T21:00:00	3	Temperatura mínima	18.6
23456	7	Sololá	710	Panajachel	8	Panajachel	3	Marzo	2023-05-03T00:00:00	2024-11-08T21:00:00	5	Humedad	90
23457	7	Sololá	710	Panajachel	8	Panajachel	3	Marzo	2023-05-03T00:00:00	2024-11-08T21:00:00	6	Velocidad del viento	0
23458	7	Sololá	710	Panajachel	8	Panajachel	3	Marzo	2023-05-03T00:00:00	2024-11-08T21:00:00	7	Dirección del viento	0
23459	7	Sololá	710	Panajachel	8	Panajachel	3	Marzo	2023-05-03T00:00:00	2024-11-08T21:00:00	1	Precipitación	0
23460	7	Sololá	710	Panajachel	8	Panajachel	3	Marzo	2023-05-03T00:00:00	2024-11-08T21:00:00	8	Radiación solar	0
23461	7	Sololá	710	Panajachel	8	Panajachel	3	Marzo	2023-05-03T00:00:00	2024-11-08T22:00:00	2	Temperatura media	17.8
23462	7	Sololá	710	Panajachel	8	Panajachel	3	Marzo	2023-05-03T00:00:00	2024-11-08T22:00:00	4	Temperatura máxima	18.6
23463	7	Sololá	710	Panajachel	8	Panajachel	3	Marzo	2023-05-03T00:00:00	2024-11-08T22:00:00	3	Temperatura mínima	17.8
23464	7	Sololá	710	Panajachel	8	Panajachel	3	Marzo	2023-05-03T00:00:00	2024-11-08T22:00:00	5	Humedad	89
23465	7	Sololá	710	Panajachel	8	Panajachel	3	Marzo	2023-05-03T00:00:00	2024-11-08T22:00:00	6	Velocidad del viento	0
23466	7	Sololá	710	Panajachel	8	Panajachel	3	Marzo	2023-05-03T00:00:00	2024-11-08T22:00:00	7	Dirección del viento	0
23467	7	Sololá	710	Panajachel	8	Panajachel	3	Marzo	2023-05-03T00:00:00	2024-11-08T22:00:00	1	Precipitación	0
23468	7	Sololá	710	Panajachel	8	Panajachel	3	Marzo	2023-05-03T00:00:00	2024-11-08T22:00:00	8	Radiación solar	0
23469	7	Sololá	710	Panajachel	8	Panajachel	3	Marzo	2023-05-03T00:00:00	2024-11-08T23:00:00	2	Temperatura media	17.1
23470	7	Sololá	710	Panajachel	8	Panajachel	3	Marzo	2023-05-03T00:00:00	2024-11-08T23:00:00	4	Temperatura máxima	17.8
23471	7	Sololá	710	Panajachel	8	Panajachel	3	Marzo	2023-05-03T00:00:00	2024-11-08T23:00:00	3	Temperatura mínima	17.1
23472	7	Sololá	710	Panajachel	8	Panajachel	3	Marzo	2023-05-03T00:00:00	2024-11-08T23:00:00	5	Humedad	86
23473	7	Sololá	710	Panajachel	8	Panajachel	3	Marzo	2023-05-03T00:00:00	2024-11-08T23:00:00	6	Velocidad del viento	1.6
23474	7	Sololá	710	Panajachel	8	Panajachel	3	Marzo	2023-05-03T00:00:00	2024-11-08T23:00:00	7	Dirección del viento	1.61
23475	7	Sololá	710	Panajachel	8	Panajachel	3	Marzo	2023-05-03T00:00:00	2024-11-08T23:00:00	1	Precipitación	0
23476	7	Sololá	710	Panajachel	8	Panajachel	3	Marzo	2023-05-03T00:00:00	2024-11-08T23:00:00	8	Radiación solar	0
23477	7	Sololá	710	Panajachel	8	Panajachel	3	Marzo	2023-06-03T00:00:00	2024-11-08T00:00:00	2	Temperatura media	17.8
23478	7	Sololá	710	Panajachel	8	Panajachel	3	Marzo	2023-06-03T00:00:00	2024-11-08T00:00:00	4	Temperatura máxima	17.8
23479	7	Sololá	710	Panajachel	8	Panajachel	3	Marzo	2023-06-03T00:00:00	2024-11-08T00:00:00	3	Temperatura mínima	16.6
23480	7	Sololá	710	Panajachel	8	Panajachel	3	Marzo	2023-06-03T00:00:00	2024-11-08T00:00:00	5	Humedad	77
23481	7	Sololá	710	Panajachel	8	Panajachel	3	Marzo	2023-06-03T00:00:00	2024-11-08T00:00:00	6	Velocidad del viento	1.6
23482	7	Sololá	710	Panajachel	8	Panajachel	3	Marzo	2023-06-03T00:00:00	2024-11-08T00:00:00	7	Dirección del viento	1.61
23483	7	Sololá	710	Panajachel	8	Panajachel	3	Marzo	2023-06-03T00:00:00	2024-11-08T00:00:00	1	Precipitación	0
23484	7	Sololá	710	Panajachel	8	Panajachel	3	Marzo	2023-06-03T00:00:00	2024-11-08T00:00:00	8	Radiación solar	0
23485	7	Sololá	710	Panajachel	8	Panajachel	3	Marzo	2023-06-03T00:00:00	2024-11-08T01:00:00	2	Temperatura media	17.9
23486	7	Sololá	710	Panajachel	8	Panajachel	3	Marzo	2023-06-03T00:00:00	2024-11-08T01:00:00	4	Temperatura máxima	18.4
23487	7	Sololá	710	Panajachel	8	Panajachel	3	Marzo	2023-06-03T00:00:00	2024-11-08T01:00:00	3	Temperatura mínima	17.8
23488	7	Sololá	710	Panajachel	8	Panajachel	3	Marzo	2023-06-03T00:00:00	2024-11-08T01:00:00	5	Humedad	74
23489	7	Sololá	710	Panajachel	8	Panajachel	3	Marzo	2023-06-03T00:00:00	2024-11-08T01:00:00	6	Velocidad del viento	1.6
23490	7	Sololá	710	Panajachel	8	Panajachel	3	Marzo	2023-06-03T00:00:00	2024-11-08T01:00:00	7	Dirección del viento	1.61
23491	7	Sololá	710	Panajachel	8	Panajachel	3	Marzo	2023-06-03T00:00:00	2024-11-08T01:00:00	1	Precipitación	0
23492	7	Sololá	710	Panajachel	8	Panajachel	3	Marzo	2023-06-03T00:00:00	2024-11-08T01:00:00	8	Radiación solar	0
23493	7	Sololá	710	Panajachel	8	Panajachel	3	Marzo	2023-06-03T00:00:00	2024-11-08T02:00:00	2	Temperatura media	16.2
23494	7	Sololá	710	Panajachel	8	Panajachel	3	Marzo	2023-06-03T00:00:00	2024-11-08T02:00:00	4	Temperatura máxima	18.1
23495	7	Sololá	710	Panajachel	8	Panajachel	3	Marzo	2023-06-03T00:00:00	2024-11-08T02:00:00	3	Temperatura mínima	16.2
23496	7	Sololá	710	Panajachel	8	Panajachel	3	Marzo	2023-06-03T00:00:00	2024-11-08T02:00:00	5	Humedad	79
23497	7	Sololá	710	Panajachel	8	Panajachel	3	Marzo	2023-06-03T00:00:00	2024-11-08T02:00:00	6	Velocidad del viento	0
23498	7	Sololá	710	Panajachel	8	Panajachel	3	Marzo	2023-06-03T00:00:00	2024-11-08T02:00:00	7	Dirección del viento	0
23499	7	Sololá	710	Panajachel	8	Panajachel	3	Marzo	2023-06-03T00:00:00	2024-11-08T02:00:00	1	Precipitación	0
23500	7	Sololá	710	Panajachel	8	Panajachel	3	Marzo	2023-06-03T00:00:00	2024-11-08T02:00:00	8	Radiación solar	0
23501	7	Sololá	710	Panajachel	8	Panajachel	3	Marzo	2023-06-03T00:00:00	2024-11-08T03:00:00	2	Temperatura media	16.3
23502	7	Sololá	710	Panajachel	8	Panajachel	3	Marzo	2023-06-03T00:00:00	2024-11-08T03:00:00	4	Temperatura máxima	16.6
23503	7	Sololá	710	Panajachel	8	Panajachel	3	Marzo	2023-06-03T00:00:00	2024-11-08T03:00:00	3	Temperatura mínima	15.9
23504	7	Sololá	710	Panajachel	8	Panajachel	3	Marzo	2023-06-03T00:00:00	2024-11-08T03:00:00	5	Humedad	78
23505	7	Sololá	710	Panajachel	8	Panajachel	3	Marzo	2023-06-03T00:00:00	2024-11-08T03:00:00	6	Velocidad del viento	1.6
23506	7	Sololá	710	Panajachel	8	Panajachel	3	Marzo	2023-06-03T00:00:00	2024-11-08T03:00:00	7	Dirección del viento	1.61
23507	7	Sololá	710	Panajachel	8	Panajachel	3	Marzo	2023-06-03T00:00:00	2024-11-08T03:00:00	1	Precipitación	0
23508	7	Sololá	710	Panajachel	8	Panajachel	3	Marzo	2023-06-03T00:00:00	2024-11-08T03:00:00	8	Radiación solar	0
23509	7	Sololá	710	Panajachel	8	Panajachel	3	Marzo	2023-06-03T00:00:00	2024-11-08T04:00:00	2	Temperatura media	15.3
23510	7	Sololá	710	Panajachel	8	Panajachel	3	Marzo	2023-06-03T00:00:00	2024-11-08T04:00:00	4	Temperatura máxima	16.3
23511	7	Sololá	710	Panajachel	8	Panajachel	3	Marzo	2023-06-03T00:00:00	2024-11-08T04:00:00	3	Temperatura mínima	15.2
23512	7	Sololá	710	Panajachel	8	Panajachel	3	Marzo	2023-06-03T00:00:00	2024-11-08T04:00:00	5	Humedad	81
23513	7	Sololá	710	Panajachel	8	Panajachel	3	Marzo	2023-06-03T00:00:00	2024-11-08T04:00:00	6	Velocidad del viento	0
23514	7	Sololá	710	Panajachel	8	Panajachel	3	Marzo	2023-06-03T00:00:00	2024-11-08T04:00:00	7	Dirección del viento	0
23515	7	Sololá	710	Panajachel	8	Panajachel	3	Marzo	2023-06-03T00:00:00	2024-11-08T04:00:00	1	Precipitación	0
23516	7	Sololá	710	Panajachel	8	Panajachel	3	Marzo	2023-06-03T00:00:00	2024-11-08T04:00:00	8	Radiación solar	0
23517	7	Sololá	710	Panajachel	8	Panajachel	3	Marzo	2023-06-03T00:00:00	2024-11-08T05:00:00	2	Temperatura media	14.8
23518	7	Sololá	710	Panajachel	8	Panajachel	3	Marzo	2023-06-03T00:00:00	2024-11-08T05:00:00	4	Temperatura máxima	15.3
23519	7	Sololá	710	Panajachel	8	Panajachel	3	Marzo	2023-06-03T00:00:00	2024-11-08T05:00:00	3	Temperatura mínima	14.8
23520	7	Sololá	710	Panajachel	8	Panajachel	3	Marzo	2023-06-03T00:00:00	2024-11-08T05:00:00	5	Humedad	82
23521	7	Sololá	710	Panajachel	8	Panajachel	3	Marzo	2023-06-03T00:00:00	2024-11-08T05:00:00	6	Velocidad del viento	0
23522	7	Sololá	710	Panajachel	8	Panajachel	3	Marzo	2023-06-03T00:00:00	2024-11-08T05:00:00	7	Dirección del viento	0
23523	7	Sololá	710	Panajachel	8	Panajachel	3	Marzo	2023-06-03T00:00:00	2024-11-08T05:00:00	1	Precipitación	0
23524	7	Sololá	710	Panajachel	8	Panajachel	3	Marzo	2023-06-03T00:00:00	2024-11-08T05:00:00	8	Radiación solar	0
23525	7	Sololá	710	Panajachel	8	Panajachel	3	Marzo	2023-06-03T00:00:00	2024-11-08T06:00:00	2	Temperatura media	14.4
23526	7	Sololá	710	Panajachel	8	Panajachel	3	Marzo	2023-06-03T00:00:00	2024-11-08T06:00:00	4	Temperatura máxima	14.8
23527	7	Sololá	710	Panajachel	8	Panajachel	3	Marzo	2023-06-03T00:00:00	2024-11-08T06:00:00	3	Temperatura mínima	14.4
23528	7	Sololá	710	Panajachel	8	Panajachel	3	Marzo	2023-06-03T00:00:00	2024-11-08T06:00:00	5	Humedad	81
23529	7	Sololá	710	Panajachel	8	Panajachel	3	Marzo	2023-06-03T00:00:00	2024-11-08T06:00:00	6	Velocidad del viento	1.6
23530	7	Sololá	710	Panajachel	8	Panajachel	3	Marzo	2023-06-03T00:00:00	2024-11-08T06:00:00	7	Dirección del viento	1.61
23531	7	Sololá	710	Panajachel	8	Panajachel	3	Marzo	2023-06-03T00:00:00	2024-11-08T06:00:00	1	Precipitación	0
23532	7	Sololá	710	Panajachel	8	Panajachel	3	Marzo	2023-06-03T00:00:00	2024-11-08T06:00:00	8	Radiación solar	0
23533	7	Sololá	710	Panajachel	8	Panajachel	3	Marzo	2023-06-03T00:00:00	2024-11-08T07:00:00	2	Temperatura media	14.7
23534	7	Sololá	710	Panajachel	8	Panajachel	3	Marzo	2023-06-03T00:00:00	2024-11-08T07:00:00	4	Temperatura máxima	14.8
23535	7	Sololá	710	Panajachel	8	Panajachel	3	Marzo	2023-06-03T00:00:00	2024-11-08T07:00:00	3	Temperatura mínima	14.3
23536	7	Sololá	710	Panajachel	8	Panajachel	3	Marzo	2023-06-03T00:00:00	2024-11-08T07:00:00	5	Humedad	80
23537	7	Sololá	710	Panajachel	8	Panajachel	3	Marzo	2023-06-03T00:00:00	2024-11-08T07:00:00	6	Velocidad del viento	1.6
23538	7	Sololá	710	Panajachel	8	Panajachel	3	Marzo	2023-06-03T00:00:00	2024-11-08T07:00:00	7	Dirección del viento	1.61
23539	7	Sololá	710	Panajachel	8	Panajachel	3	Marzo	2023-06-03T00:00:00	2024-11-08T07:00:00	1	Precipitación	0
23540	7	Sololá	710	Panajachel	8	Panajachel	3	Marzo	2023-06-03T00:00:00	2024-11-08T07:00:00	8	Radiación solar	11
23541	7	Sololá	710	Panajachel	8	Panajachel	3	Marzo	2023-06-03T00:00:00	2024-11-08T08:00:00	2	Temperatura media	18.4
23542	7	Sololá	710	Panajachel	8	Panajachel	3	Marzo	2023-06-03T00:00:00	2024-11-08T08:00:00	4	Temperatura máxima	18.4
23543	7	Sololá	710	Panajachel	8	Panajachel	3	Marzo	2023-06-03T00:00:00	2024-11-08T08:00:00	3	Temperatura mínima	14.7
23544	7	Sololá	710	Panajachel	8	Panajachel	3	Marzo	2023-06-03T00:00:00	2024-11-08T08:00:00	5	Humedad	70
23545	7	Sololá	710	Panajachel	8	Panajachel	3	Marzo	2023-06-03T00:00:00	2024-11-08T08:00:00	6	Velocidad del viento	1.6
23546	7	Sololá	710	Panajachel	8	Panajachel	3	Marzo	2023-06-03T00:00:00	2024-11-08T08:00:00	7	Dirección del viento	1.61
23547	7	Sololá	710	Panajachel	8	Panajachel	3	Marzo	2023-06-03T00:00:00	2024-11-08T08:00:00	1	Precipitación	0
23548	7	Sololá	710	Panajachel	8	Panajachel	3	Marzo	2023-06-03T00:00:00	2024-11-08T08:00:00	8	Radiación solar	189
23549	7	Sololá	710	Panajachel	8	Panajachel	3	Marzo	2023-06-03T00:00:00	2024-11-08T09:00:00	2	Temperatura media	19
23550	7	Sololá	710	Panajachel	8	Panajachel	3	Marzo	2023-06-03T00:00:00	2024-11-08T09:00:00	4	Temperatura máxima	19.5
23551	7	Sololá	710	Panajachel	8	Panajachel	3	Marzo	2023-06-03T00:00:00	2024-11-08T09:00:00	3	Temperatura mínima	18.4
23552	7	Sololá	710	Panajachel	8	Panajachel	3	Marzo	2023-06-03T00:00:00	2024-11-08T09:00:00	5	Humedad	77
23553	7	Sololá	710	Panajachel	8	Panajachel	3	Marzo	2023-06-03T00:00:00	2024-11-08T09:00:00	6	Velocidad del viento	3.2
23554	7	Sololá	710	Panajachel	8	Panajachel	3	Marzo	2023-06-03T00:00:00	2024-11-08T09:00:00	7	Dirección del viento	3.22
23555	7	Sololá	710	Panajachel	8	Panajachel	3	Marzo	2023-06-03T00:00:00	2024-11-08T09:00:00	1	Precipitación	0
23556	7	Sololá	710	Panajachel	8	Panajachel	3	Marzo	2023-06-03T00:00:00	2024-11-08T09:00:00	8	Radiación solar	432
23557	7	Sololá	710	Panajachel	8	Panajachel	3	Marzo	2023-06-03T00:00:00	2024-11-08T10:00:00	2	Temperatura media	20.3
23558	7	Sololá	710	Panajachel	8	Panajachel	3	Marzo	2023-06-03T00:00:00	2024-11-08T10:00:00	4	Temperatura máxima	20.3
23559	7	Sololá	710	Panajachel	8	Panajachel	3	Marzo	2023-06-03T00:00:00	2024-11-08T10:00:00	3	Temperatura mínima	18.9
23560	7	Sololá	710	Panajachel	8	Panajachel	3	Marzo	2023-06-03T00:00:00	2024-11-08T10:00:00	5	Humedad	73
23561	7	Sololá	710	Panajachel	8	Panajachel	3	Marzo	2023-06-03T00:00:00	2024-11-08T10:00:00	6	Velocidad del viento	3.2
23562	7	Sololá	710	Panajachel	8	Panajachel	3	Marzo	2023-06-03T00:00:00	2024-11-08T10:00:00	7	Dirección del viento	3.22
23563	7	Sololá	710	Panajachel	8	Panajachel	3	Marzo	2023-06-03T00:00:00	2024-11-08T10:00:00	1	Precipitación	0
23564	7	Sololá	710	Panajachel	8	Panajachel	3	Marzo	2023-06-03T00:00:00	2024-11-08T10:00:00	8	Radiación solar	641
23565	7	Sololá	710	Panajachel	8	Panajachel	3	Marzo	2023-06-03T00:00:00	2024-11-08T11:00:00	2	Temperatura media	21.4
23566	7	Sololá	710	Panajachel	8	Panajachel	3	Marzo	2023-06-03T00:00:00	2024-11-08T11:00:00	4	Temperatura máxima	22
23567	7	Sololá	710	Panajachel	8	Panajachel	3	Marzo	2023-06-03T00:00:00	2024-11-08T11:00:00	3	Temperatura mínima	20.3
23568	7	Sololá	710	Panajachel	8	Panajachel	3	Marzo	2023-06-03T00:00:00	2024-11-08T11:00:00	5	Humedad	65
23569	7	Sololá	710	Panajachel	8	Panajachel	3	Marzo	2023-06-03T00:00:00	2024-11-08T11:00:00	6	Velocidad del viento	3.2
23570	7	Sololá	710	Panajachel	8	Panajachel	3	Marzo	2023-06-03T00:00:00	2024-11-08T11:00:00	7	Dirección del viento	3.22
23571	7	Sololá	710	Panajachel	8	Panajachel	3	Marzo	2023-06-03T00:00:00	2024-11-08T11:00:00	1	Precipitación	0
23572	7	Sololá	710	Panajachel	8	Panajachel	3	Marzo	2023-06-03T00:00:00	2024-11-08T11:00:00	8	Radiación solar	801
23573	7	Sololá	710	Panajachel	8	Panajachel	3	Marzo	2023-06-03T00:00:00	2024-11-08T12:00:00	2	Temperatura media	23.5
23574	7	Sololá	710	Panajachel	8	Panajachel	3	Marzo	2023-06-03T00:00:00	2024-11-08T12:00:00	4	Temperatura máxima	23.5
23575	7	Sololá	710	Panajachel	8	Panajachel	3	Marzo	2023-06-03T00:00:00	2024-11-08T12:00:00	3	Temperatura mínima	21.2
23576	7	Sololá	710	Panajachel	8	Panajachel	3	Marzo	2023-06-03T00:00:00	2024-11-08T12:00:00	5	Humedad	57
23577	7	Sololá	710	Panajachel	8	Panajachel	3	Marzo	2023-06-03T00:00:00	2024-11-08T12:00:00	6	Velocidad del viento	3.2
23578	7	Sololá	710	Panajachel	8	Panajachel	3	Marzo	2023-06-03T00:00:00	2024-11-08T12:00:00	7	Dirección del viento	3.22
23579	7	Sololá	710	Panajachel	8	Panajachel	3	Marzo	2023-06-03T00:00:00	2024-11-08T12:00:00	1	Precipitación	0
23580	7	Sololá	710	Panajachel	8	Panajachel	3	Marzo	2023-06-03T00:00:00	2024-11-08T12:00:00	8	Radiación solar	872
23581	7	Sololá	710	Panajachel	8	Panajachel	3	Marzo	2023-06-03T00:00:00	2024-11-08T13:00:00	2	Temperatura media	22.7
23582	7	Sololá	710	Panajachel	8	Panajachel	3	Marzo	2023-06-03T00:00:00	2024-11-08T13:00:00	4	Temperatura máxima	23.5
23583	7	Sololá	710	Panajachel	8	Panajachel	3	Marzo	2023-06-03T00:00:00	2024-11-08T13:00:00	3	Temperatura mínima	22.6
23584	7	Sololá	710	Panajachel	8	Panajachel	3	Marzo	2023-06-03T00:00:00	2024-11-08T13:00:00	5	Humedad	71
23585	7	Sololá	710	Panajachel	8	Panajachel	3	Marzo	2023-06-03T00:00:00	2024-11-08T13:00:00	6	Velocidad del viento	8
23586	7	Sololá	710	Panajachel	8	Panajachel	3	Marzo	2023-06-03T00:00:00	2024-11-08T13:00:00	7	Dirección del viento	8.05
23587	7	Sololá	710	Panajachel	8	Panajachel	3	Marzo	2023-06-03T00:00:00	2024-11-08T13:00:00	1	Precipitación	0
23588	7	Sololá	710	Panajachel	8	Panajachel	3	Marzo	2023-06-03T00:00:00	2024-11-08T13:00:00	8	Radiación solar	885
23589	7	Sololá	710	Panajachel	8	Panajachel	3	Marzo	2023-06-03T00:00:00	2024-11-08T14:00:00	2	Temperatura media	22.9
23590	7	Sololá	710	Panajachel	8	Panajachel	3	Marzo	2023-06-03T00:00:00	2024-11-08T14:00:00	4	Temperatura máxima	23.6
23591	7	Sololá	710	Panajachel	8	Panajachel	3	Marzo	2023-06-03T00:00:00	2024-11-08T14:00:00	3	Temperatura mínima	22.5
23592	7	Sololá	710	Panajachel	8	Panajachel	3	Marzo	2023-06-03T00:00:00	2024-11-08T14:00:00	5	Humedad	73
23593	7	Sololá	710	Panajachel	8	Panajachel	3	Marzo	2023-06-03T00:00:00	2024-11-08T14:00:00	6	Velocidad del viento	8
23594	7	Sololá	710	Panajachel	8	Panajachel	3	Marzo	2023-06-03T00:00:00	2024-11-08T14:00:00	7	Dirección del viento	8.05
23595	7	Sololá	710	Panajachel	8	Panajachel	3	Marzo	2023-06-03T00:00:00	2024-11-08T14:00:00	1	Precipitación	0
23596	7	Sololá	710	Panajachel	8	Panajachel	3	Marzo	2023-06-03T00:00:00	2024-11-08T14:00:00	8	Radiación solar	807
23597	7	Sololá	710	Panajachel	8	Panajachel	3	Marzo	2023-06-03T00:00:00	2024-11-08T15:00:00	2	Temperatura media	22.7
23598	7	Sololá	710	Panajachel	8	Panajachel	3	Marzo	2023-06-03T00:00:00	2024-11-08T15:00:00	4	Temperatura máxima	23.5
23599	7	Sololá	710	Panajachel	8	Panajachel	3	Marzo	2023-06-03T00:00:00	2024-11-08T15:00:00	3	Temperatura mínima	22.6
23600	7	Sololá	710	Panajachel	8	Panajachel	3	Marzo	2023-06-03T00:00:00	2024-11-08T15:00:00	5	Humedad	76
23601	7	Sololá	710	Panajachel	8	Panajachel	3	Marzo	2023-06-03T00:00:00	2024-11-08T15:00:00	6	Velocidad del viento	11.3
23602	7	Sololá	710	Panajachel	8	Panajachel	3	Marzo	2023-06-03T00:00:00	2024-11-08T15:00:00	7	Dirección del viento	11.27
23603	7	Sololá	710	Panajachel	8	Panajachel	3	Marzo	2023-06-03T00:00:00	2024-11-08T15:00:00	1	Precipitación	0
23604	7	Sololá	710	Panajachel	8	Panajachel	3	Marzo	2023-06-03T00:00:00	2024-11-08T15:00:00	8	Radiación solar	669
23605	7	Sololá	710	Panajachel	8	Panajachel	3	Marzo	2023-06-03T00:00:00	2024-11-08T16:00:00	2	Temperatura media	22.8
23606	7	Sololá	710	Panajachel	8	Panajachel	3	Marzo	2023-06-03T00:00:00	2024-11-08T16:00:00	4	Temperatura máxima	23.3
23607	7	Sololá	710	Panajachel	8	Panajachel	3	Marzo	2023-06-03T00:00:00	2024-11-08T16:00:00	3	Temperatura mínima	22.3
23608	7	Sololá	710	Panajachel	8	Panajachel	3	Marzo	2023-06-03T00:00:00	2024-11-08T16:00:00	5	Humedad	74
23609	7	Sololá	710	Panajachel	8	Panajachel	3	Marzo	2023-06-03T00:00:00	2024-11-08T16:00:00	6	Velocidad del viento	8
23610	7	Sololá	710	Panajachel	8	Panajachel	3	Marzo	2023-06-03T00:00:00	2024-11-08T16:00:00	7	Dirección del viento	8.05
23611	7	Sololá	710	Panajachel	8	Panajachel	3	Marzo	2023-06-03T00:00:00	2024-11-08T16:00:00	1	Precipitación	0
23612	7	Sololá	710	Panajachel	8	Panajachel	3	Marzo	2023-06-03T00:00:00	2024-11-08T16:00:00	8	Radiación solar	487
23613	7	Sololá	710	Panajachel	8	Panajachel	3	Marzo	2023-06-03T00:00:00	2024-11-08T17:00:00	2	Temperatura media	21.9
23614	7	Sololá	710	Panajachel	8	Panajachel	3	Marzo	2023-06-03T00:00:00	2024-11-08T17:00:00	4	Temperatura máxima	23
23615	7	Sololá	710	Panajachel	8	Panajachel	3	Marzo	2023-06-03T00:00:00	2024-11-08T17:00:00	3	Temperatura mínima	21.9
23616	7	Sololá	710	Panajachel	8	Panajachel	3	Marzo	2023-06-03T00:00:00	2024-11-08T17:00:00	5	Humedad	79
23617	7	Sololá	710	Panajachel	8	Panajachel	3	Marzo	2023-06-03T00:00:00	2024-11-08T17:00:00	6	Velocidad del viento	8
23618	7	Sololá	710	Panajachel	8	Panajachel	3	Marzo	2023-06-03T00:00:00	2024-11-08T17:00:00	7	Dirección del viento	8.05
23619	7	Sololá	710	Panajachel	8	Panajachel	3	Marzo	2023-06-03T00:00:00	2024-11-08T17:00:00	1	Precipitación	0
23620	7	Sololá	710	Panajachel	8	Panajachel	3	Marzo	2023-06-03T00:00:00	2024-11-08T17:00:00	8	Radiación solar	240
23621	7	Sololá	710	Panajachel	8	Panajachel	3	Marzo	2023-06-03T00:00:00	2024-11-08T18:00:00	2	Temperatura media	20.7
23622	7	Sololá	710	Panajachel	8	Panajachel	3	Marzo	2023-06-03T00:00:00	2024-11-08T18:00:00	4	Temperatura máxima	21.9
23623	7	Sololá	710	Panajachel	8	Panajachel	3	Marzo	2023-06-03T00:00:00	2024-11-08T18:00:00	3	Temperatura mínima	20.6
23624	7	Sololá	710	Panajachel	8	Panajachel	3	Marzo	2023-06-03T00:00:00	2024-11-08T18:00:00	5	Humedad	85
23625	7	Sololá	710	Panajachel	8	Panajachel	3	Marzo	2023-06-03T00:00:00	2024-11-08T18:00:00	6	Velocidad del viento	4.8
23626	7	Sololá	710	Panajachel	8	Panajachel	3	Marzo	2023-06-03T00:00:00	2024-11-08T18:00:00	7	Dirección del viento	4.83
23627	7	Sololá	710	Panajachel	8	Panajachel	3	Marzo	2023-06-03T00:00:00	2024-11-08T18:00:00	1	Precipitación	0
23628	7	Sololá	710	Panajachel	8	Panajachel	3	Marzo	2023-06-03T00:00:00	2024-11-08T18:00:00	8	Radiación solar	58
23629	7	Sololá	710	Panajachel	8	Panajachel	3	Marzo	2023-06-03T00:00:00	2024-11-08T19:00:00	2	Temperatura media	19.7
23630	7	Sololá	710	Panajachel	8	Panajachel	3	Marzo	2023-06-03T00:00:00	2024-11-08T19:00:00	4	Temperatura máxima	20.7
23631	7	Sololá	710	Panajachel	8	Panajachel	3	Marzo	2023-06-03T00:00:00	2024-11-08T19:00:00	3	Temperatura mínima	19.6
23632	7	Sololá	710	Panajachel	8	Panajachel	3	Marzo	2023-06-03T00:00:00	2024-11-08T19:00:00	5	Humedad	87
23633	7	Sololá	710	Panajachel	8	Panajachel	3	Marzo	2023-06-03T00:00:00	2024-11-08T19:00:00	6	Velocidad del viento	3.2
23634	7	Sololá	710	Panajachel	8	Panajachel	3	Marzo	2023-06-03T00:00:00	2024-11-08T19:00:00	7	Dirección del viento	3.22
23635	7	Sololá	710	Panajachel	8	Panajachel	3	Marzo	2023-06-03T00:00:00	2024-11-08T19:00:00	1	Precipitación	0
23636	7	Sololá	710	Panajachel	8	Panajachel	3	Marzo	2023-06-03T00:00:00	2024-11-08T19:00:00	8	Radiación solar	0
23637	7	Sololá	710	Panajachel	8	Panajachel	3	Marzo	2023-06-03T00:00:00	2024-11-08T20:00:00	2	Temperatura media	18.9
23638	7	Sololá	710	Panajachel	8	Panajachel	3	Marzo	2023-06-03T00:00:00	2024-11-08T20:00:00	4	Temperatura máxima	19.7
23639	7	Sololá	710	Panajachel	8	Panajachel	3	Marzo	2023-06-03T00:00:00	2024-11-08T20:00:00	3	Temperatura mínima	18.9
23640	7	Sololá	710	Panajachel	8	Panajachel	3	Marzo	2023-06-03T00:00:00	2024-11-08T20:00:00	5	Humedad	88
23641	7	Sololá	710	Panajachel	8	Panajachel	3	Marzo	2023-06-03T00:00:00	2024-11-08T20:00:00	6	Velocidad del viento	1.6
23642	7	Sololá	710	Panajachel	8	Panajachel	3	Marzo	2023-06-03T00:00:00	2024-11-08T20:00:00	7	Dirección del viento	1.61
23643	7	Sololá	710	Panajachel	8	Panajachel	3	Marzo	2023-06-03T00:00:00	2024-11-08T20:00:00	1	Precipitación	0
23644	7	Sololá	710	Panajachel	8	Panajachel	3	Marzo	2023-06-03T00:00:00	2024-11-08T20:00:00	8	Radiación solar	0
23645	7	Sololá	710	Panajachel	8	Panajachel	3	Marzo	2023-06-03T00:00:00	2024-11-08T21:00:00	2	Temperatura media	18.3
23646	7	Sololá	710	Panajachel	8	Panajachel	3	Marzo	2023-06-03T00:00:00	2024-11-08T21:00:00	4	Temperatura máxima	19
23647	7	Sololá	710	Panajachel	8	Panajachel	3	Marzo	2023-06-03T00:00:00	2024-11-08T21:00:00	3	Temperatura mínima	18.3
23648	7	Sololá	710	Panajachel	8	Panajachel	3	Marzo	2023-06-03T00:00:00	2024-11-08T21:00:00	5	Humedad	87
23649	7	Sololá	710	Panajachel	8	Panajachel	3	Marzo	2023-06-03T00:00:00	2024-11-08T21:00:00	6	Velocidad del viento	0
23650	7	Sololá	710	Panajachel	8	Panajachel	3	Marzo	2023-06-03T00:00:00	2024-11-08T21:00:00	7	Dirección del viento	0
23651	7	Sololá	710	Panajachel	8	Panajachel	3	Marzo	2023-06-03T00:00:00	2024-11-08T21:00:00	1	Precipitación	0
23652	7	Sololá	710	Panajachel	8	Panajachel	3	Marzo	2023-06-03T00:00:00	2024-11-08T21:00:00	8	Radiación solar	0
23653	7	Sololá	710	Panajachel	8	Panajachel	3	Marzo	2023-06-03T00:00:00	2024-11-08T22:00:00	2	Temperatura media	18.3
23654	7	Sololá	710	Panajachel	8	Panajachel	3	Marzo	2023-06-03T00:00:00	2024-11-08T22:00:00	4	Temperatura máxima	18.4
23655	7	Sololá	710	Panajachel	8	Panajachel	3	Marzo	2023-06-03T00:00:00	2024-11-08T22:00:00	3	Temperatura mínima	17.6
23656	7	Sololá	710	Panajachel	8	Panajachel	3	Marzo	2023-06-03T00:00:00	2024-11-08T22:00:00	5	Humedad	76
23657	7	Sololá	710	Panajachel	8	Panajachel	3	Marzo	2023-06-03T00:00:00	2024-11-08T22:00:00	6	Velocidad del viento	3.2
23658	7	Sololá	710	Panajachel	8	Panajachel	3	Marzo	2023-06-03T00:00:00	2024-11-08T22:00:00	7	Dirección del viento	3.22
23659	7	Sololá	710	Panajachel	8	Panajachel	3	Marzo	2023-06-03T00:00:00	2024-11-08T22:00:00	1	Precipitación	0
23660	7	Sololá	710	Panajachel	8	Panajachel	3	Marzo	2023-06-03T00:00:00	2024-11-08T22:00:00	8	Radiación solar	0
23661	7	Sololá	710	Panajachel	8	Panajachel	3	Marzo	2023-06-03T00:00:00	2024-11-08T23:00:00	2	Temperatura media	18.1
23662	7	Sololá	710	Panajachel	8	Panajachel	3	Marzo	2023-06-03T00:00:00	2024-11-08T23:00:00	4	Temperatura máxima	18.9
23663	7	Sololá	710	Panajachel	8	Panajachel	3	Marzo	2023-06-03T00:00:00	2024-11-08T23:00:00	3	Temperatura mínima	18.1
23664	7	Sololá	710	Panajachel	8	Panajachel	3	Marzo	2023-06-03T00:00:00	2024-11-08T23:00:00	5	Humedad	74
23665	7	Sololá	710	Panajachel	8	Panajachel	3	Marzo	2023-06-03T00:00:00	2024-11-08T23:00:00	6	Velocidad del viento	3.2
23666	7	Sololá	710	Panajachel	8	Panajachel	3	Marzo	2023-06-03T00:00:00	2024-11-08T23:00:00	7	Dirección del viento	3.22
23667	7	Sololá	710	Panajachel	8	Panajachel	3	Marzo	2023-06-03T00:00:00	2024-11-08T23:00:00	1	Precipitación	0
23668	7	Sololá	710	Panajachel	8	Panajachel	3	Marzo	2023-06-03T00:00:00	2024-11-08T23:00:00	8	Radiación solar	0
23669	7	Sololá	710	Panajachel	8	Panajachel	3	Marzo	2023-07-03T00:00:00	2024-11-08T00:00:00	2	Temperatura media	17
23670	7	Sololá	710	Panajachel	8	Panajachel	3	Marzo	2023-07-03T00:00:00	2024-11-08T00:00:00	4	Temperatura máxima	18.3
23671	7	Sololá	710	Panajachel	8	Panajachel	3	Marzo	2023-07-03T00:00:00	2024-11-08T00:00:00	3	Temperatura mínima	17
23672	7	Sololá	710	Panajachel	8	Panajachel	3	Marzo	2023-07-03T00:00:00	2024-11-08T00:00:00	5	Humedad	77
23673	7	Sololá	710	Panajachel	8	Panajachel	3	Marzo	2023-07-03T00:00:00	2024-11-08T00:00:00	6	Velocidad del viento	1.6
23674	7	Sololá	710	Panajachel	8	Panajachel	3	Marzo	2023-07-03T00:00:00	2024-11-08T00:00:00	7	Dirección del viento	1.61
23675	7	Sololá	710	Panajachel	8	Panajachel	3	Marzo	2023-07-03T00:00:00	2024-11-08T00:00:00	1	Precipitación	0
23676	7	Sololá	710	Panajachel	8	Panajachel	3	Marzo	2023-07-03T00:00:00	2024-11-08T00:00:00	8	Radiación solar	0
23677	7	Sololá	710	Panajachel	8	Panajachel	3	Marzo	2023-07-03T00:00:00	2024-11-08T01:00:00	2	Temperatura media	16.1
23678	7	Sololá	710	Panajachel	8	Panajachel	3	Marzo	2023-07-03T00:00:00	2024-11-08T01:00:00	4	Temperatura máxima	17
23679	7	Sololá	710	Panajachel	8	Panajachel	3	Marzo	2023-07-03T00:00:00	2024-11-08T01:00:00	3	Temperatura mínima	15.9
23680	7	Sololá	710	Panajachel	8	Panajachel	3	Marzo	2023-07-03T00:00:00	2024-11-08T01:00:00	5	Humedad	78
23681	7	Sololá	710	Panajachel	8	Panajachel	3	Marzo	2023-07-03T00:00:00	2024-11-08T01:00:00	6	Velocidad del viento	3.2
23682	7	Sololá	710	Panajachel	8	Panajachel	3	Marzo	2023-07-03T00:00:00	2024-11-08T01:00:00	7	Dirección del viento	3.22
23683	7	Sololá	710	Panajachel	8	Panajachel	3	Marzo	2023-07-03T00:00:00	2024-11-08T01:00:00	1	Precipitación	0
23684	7	Sololá	710	Panajachel	8	Panajachel	3	Marzo	2023-07-03T00:00:00	2024-11-08T01:00:00	8	Radiación solar	0
23685	7	Sololá	710	Panajachel	8	Panajachel	3	Marzo	2023-07-03T00:00:00	2024-11-08T02:00:00	2	Temperatura media	15.3
23686	7	Sololá	710	Panajachel	8	Panajachel	3	Marzo	2023-07-03T00:00:00	2024-11-08T02:00:00	4	Temperatura máxima	16.1
23687	7	Sololá	710	Panajachel	8	Panajachel	3	Marzo	2023-07-03T00:00:00	2024-11-08T02:00:00	3	Temperatura mínima	15.3
23688	7	Sololá	710	Panajachel	8	Panajachel	3	Marzo	2023-07-03T00:00:00	2024-11-08T02:00:00	5	Humedad	80
23689	7	Sololá	710	Panajachel	8	Panajachel	3	Marzo	2023-07-03T00:00:00	2024-11-08T02:00:00	6	Velocidad del viento	4.8
23690	7	Sololá	710	Panajachel	8	Panajachel	3	Marzo	2023-07-03T00:00:00	2024-11-08T02:00:00	7	Dirección del viento	4.83
23691	7	Sololá	710	Panajachel	8	Panajachel	3	Marzo	2023-07-03T00:00:00	2024-11-08T02:00:00	1	Precipitación	0
23692	7	Sololá	710	Panajachel	8	Panajachel	3	Marzo	2023-07-03T00:00:00	2024-11-08T02:00:00	8	Radiación solar	0
23693	7	Sololá	710	Panajachel	8	Panajachel	3	Marzo	2023-07-03T00:00:00	2024-11-08T03:00:00	2	Temperatura media	14.7
23694	7	Sololá	710	Panajachel	8	Panajachel	3	Marzo	2023-07-03T00:00:00	2024-11-08T03:00:00	4	Temperatura máxima	15.3
23695	7	Sololá	710	Panajachel	8	Panajachel	3	Marzo	2023-07-03T00:00:00	2024-11-08T03:00:00	3	Temperatura mínima	14.7
23696	7	Sololá	710	Panajachel	8	Panajachel	3	Marzo	2023-07-03T00:00:00	2024-11-08T03:00:00	5	Humedad	79
23697	7	Sololá	710	Panajachel	8	Panajachel	3	Marzo	2023-07-03T00:00:00	2024-11-08T03:00:00	6	Velocidad del viento	4.8
23698	7	Sololá	710	Panajachel	8	Panajachel	3	Marzo	2023-07-03T00:00:00	2024-11-08T03:00:00	7	Dirección del viento	4.83
23699	7	Sololá	710	Panajachel	8	Panajachel	3	Marzo	2023-07-03T00:00:00	2024-11-08T03:00:00	1	Precipitación	0
23700	7	Sololá	710	Panajachel	8	Panajachel	3	Marzo	2023-07-03T00:00:00	2024-11-08T03:00:00	8	Radiación solar	0
23701	7	Sololá	710	Panajachel	8	Panajachel	3	Marzo	2023-07-03T00:00:00	2024-11-08T04:00:00	2	Temperatura media	14.9
23702	7	Sololá	710	Panajachel	8	Panajachel	3	Marzo	2023-07-03T00:00:00	2024-11-08T04:00:00	4	Temperatura máxima	14.9
23703	7	Sololá	710	Panajachel	8	Panajachel	3	Marzo	2023-07-03T00:00:00	2024-11-08T04:00:00	3	Temperatura mínima	14.4
23704	7	Sololá	710	Panajachel	8	Panajachel	3	Marzo	2023-07-03T00:00:00	2024-11-08T04:00:00	5	Humedad	75
23705	7	Sololá	710	Panajachel	8	Panajachel	3	Marzo	2023-07-03T00:00:00	2024-11-08T04:00:00	6	Velocidad del viento	6.4
23706	7	Sololá	710	Panajachel	8	Panajachel	3	Marzo	2023-07-03T00:00:00	2024-11-08T04:00:00	7	Dirección del viento	6.44
23707	7	Sololá	710	Panajachel	8	Panajachel	3	Marzo	2023-07-03T00:00:00	2024-11-08T04:00:00	1	Precipitación	0
23708	7	Sololá	710	Panajachel	8	Panajachel	3	Marzo	2023-07-03T00:00:00	2024-11-08T04:00:00	8	Radiación solar	0
23709	7	Sololá	710	Panajachel	8	Panajachel	3	Marzo	2023-07-03T00:00:00	2024-11-08T05:00:00	2	Temperatura media	14.5
23710	7	Sololá	710	Panajachel	8	Panajachel	3	Marzo	2023-07-03T00:00:00	2024-11-08T05:00:00	4	Temperatura máxima	15.1
23711	7	Sololá	710	Panajachel	8	Panajachel	3	Marzo	2023-07-03T00:00:00	2024-11-08T05:00:00	3	Temperatura mínima	14.3
23712	7	Sololá	710	Panajachel	8	Panajachel	3	Marzo	2023-07-03T00:00:00	2024-11-08T05:00:00	5	Humedad	77
23713	7	Sololá	710	Panajachel	8	Panajachel	3	Marzo	2023-07-03T00:00:00	2024-11-08T05:00:00	6	Velocidad del viento	4.8
23714	7	Sololá	710	Panajachel	8	Panajachel	3	Marzo	2023-07-03T00:00:00	2024-11-08T05:00:00	7	Dirección del viento	4.83
23715	7	Sololá	710	Panajachel	8	Panajachel	3	Marzo	2023-07-03T00:00:00	2024-11-08T05:00:00	1	Precipitación	0
23716	7	Sololá	710	Panajachel	8	Panajachel	3	Marzo	2023-07-03T00:00:00	2024-11-08T05:00:00	8	Radiación solar	0
23717	7	Sololá	710	Panajachel	8	Panajachel	3	Marzo	2023-07-03T00:00:00	2024-11-08T06:00:00	2	Temperatura media	14.7
23718	7	Sololá	710	Panajachel	8	Panajachel	3	Marzo	2023-07-03T00:00:00	2024-11-08T06:00:00	4	Temperatura máxima	14.9
23719	7	Sololá	710	Panajachel	8	Panajachel	3	Marzo	2023-07-03T00:00:00	2024-11-08T06:00:00	3	Temperatura mínima	14.5
23720	7	Sololá	710	Panajachel	8	Panajachel	3	Marzo	2023-07-03T00:00:00	2024-11-08T06:00:00	5	Humedad	75
23721	7	Sololá	710	Panajachel	8	Panajachel	3	Marzo	2023-07-03T00:00:00	2024-11-08T06:00:00	6	Velocidad del viento	3.2
23722	7	Sololá	710	Panajachel	8	Panajachel	3	Marzo	2023-07-03T00:00:00	2024-11-08T06:00:00	7	Dirección del viento	3.22
23723	7	Sololá	710	Panajachel	8	Panajachel	3	Marzo	2023-07-03T00:00:00	2024-11-08T06:00:00	1	Precipitación	0
23724	7	Sololá	710	Panajachel	8	Panajachel	3	Marzo	2023-07-03T00:00:00	2024-11-08T06:00:00	8	Radiación solar	0
23725	7	Sololá	710	Panajachel	8	Panajachel	3	Marzo	2023-07-03T00:00:00	2024-11-08T07:00:00	2	Temperatura media	14.8
23726	7	Sololá	710	Panajachel	8	Panajachel	3	Marzo	2023-07-03T00:00:00	2024-11-08T07:00:00	4	Temperatura máxima	14.8
23727	7	Sololá	710	Panajachel	8	Panajachel	3	Marzo	2023-07-03T00:00:00	2024-11-08T07:00:00	3	Temperatura mínima	14.4
23728	7	Sololá	710	Panajachel	8	Panajachel	3	Marzo	2023-07-03T00:00:00	2024-11-08T07:00:00	5	Humedad	74
23729	7	Sololá	710	Panajachel	8	Panajachel	3	Marzo	2023-07-03T00:00:00	2024-11-08T07:00:00	6	Velocidad del viento	0
23730	7	Sololá	710	Panajachel	8	Panajachel	3	Marzo	2023-07-03T00:00:00	2024-11-08T07:00:00	7	Dirección del viento	0
23731	7	Sololá	710	Panajachel	8	Panajachel	3	Marzo	2023-07-03T00:00:00	2024-11-08T07:00:00	1	Precipitación	0
23732	7	Sololá	710	Panajachel	8	Panajachel	3	Marzo	2023-07-03T00:00:00	2024-11-08T07:00:00	8	Radiación solar	16
23733	7	Sololá	710	Panajachel	8	Panajachel	3	Marzo	2023-07-03T00:00:00	2024-11-08T08:00:00	2	Temperatura media	16.9
23734	7	Sololá	710	Panajachel	8	Panajachel	3	Marzo	2023-07-03T00:00:00	2024-11-08T08:00:00	4	Temperatura máxima	16.9
23735	7	Sololá	710	Panajachel	8	Panajachel	3	Marzo	2023-07-03T00:00:00	2024-11-08T08:00:00	3	Temperatura mínima	14.8
23736	7	Sololá	710	Panajachel	8	Panajachel	3	Marzo	2023-07-03T00:00:00	2024-11-08T08:00:00	5	Humedad	67
23737	7	Sololá	710	Panajachel	8	Panajachel	3	Marzo	2023-07-03T00:00:00	2024-11-08T08:00:00	6	Velocidad del viento	0
23738	7	Sololá	710	Panajachel	8	Panajachel	3	Marzo	2023-07-03T00:00:00	2024-11-08T08:00:00	7	Dirección del viento	0
23739	7	Sololá	710	Panajachel	8	Panajachel	3	Marzo	2023-07-03T00:00:00	2024-11-08T08:00:00	1	Precipitación	0
23740	7	Sololá	710	Panajachel	8	Panajachel	3	Marzo	2023-07-03T00:00:00	2024-11-08T08:00:00	8	Radiación solar	140
23741	7	Sololá	710	Panajachel	8	Panajachel	3	Marzo	2023-07-03T00:00:00	2024-11-08T09:00:00	2	Temperatura media	18.9
23742	7	Sololá	710	Panajachel	8	Panajachel	3	Marzo	2023-07-03T00:00:00	2024-11-08T09:00:00	4	Temperatura máxima	18.9
23743	7	Sololá	710	Panajachel	8	Panajachel	3	Marzo	2023-07-03T00:00:00	2024-11-08T09:00:00	3	Temperatura mínima	16.9
23744	7	Sololá	710	Panajachel	8	Panajachel	3	Marzo	2023-07-03T00:00:00	2024-11-08T09:00:00	5	Humedad	72
23745	7	Sololá	710	Panajachel	8	Panajachel	3	Marzo	2023-07-03T00:00:00	2024-11-08T09:00:00	6	Velocidad del viento	0
23746	7	Sololá	710	Panajachel	8	Panajachel	3	Marzo	2023-07-03T00:00:00	2024-11-08T09:00:00	7	Dirección del viento	0
23747	7	Sololá	710	Panajachel	8	Panajachel	3	Marzo	2023-07-03T00:00:00	2024-11-08T09:00:00	1	Precipitación	0
23748	7	Sololá	710	Panajachel	8	Panajachel	3	Marzo	2023-07-03T00:00:00	2024-11-08T09:00:00	8	Radiación solar	302
23749	7	Sololá	710	Panajachel	8	Panajachel	3	Marzo	2023-07-03T00:00:00	2024-11-08T10:00:00	2	Temperatura media	20.2
23750	7	Sololá	710	Panajachel	8	Panajachel	3	Marzo	2023-07-03T00:00:00	2024-11-08T10:00:00	4	Temperatura máxima	20.3
23751	7	Sololá	710	Panajachel	8	Panajachel	3	Marzo	2023-07-03T00:00:00	2024-11-08T10:00:00	3	Temperatura mínima	18.9
23752	7	Sololá	710	Panajachel	8	Panajachel	3	Marzo	2023-07-03T00:00:00	2024-11-08T10:00:00	5	Humedad	70
23753	7	Sololá	710	Panajachel	8	Panajachel	3	Marzo	2023-07-03T00:00:00	2024-11-08T10:00:00	6	Velocidad del viento	1.6
23754	7	Sololá	710	Panajachel	8	Panajachel	3	Marzo	2023-07-03T00:00:00	2024-11-08T10:00:00	7	Dirección del viento	1.61
23755	7	Sololá	710	Panajachel	8	Panajachel	3	Marzo	2023-07-03T00:00:00	2024-11-08T10:00:00	1	Precipitación	0
23756	7	Sololá	710	Panajachel	8	Panajachel	3	Marzo	2023-07-03T00:00:00	2024-11-08T10:00:00	8	Radiación solar	598
23757	7	Sololá	710	Panajachel	8	Panajachel	3	Marzo	2023-07-03T00:00:00	2024-11-08T11:00:00	2	Temperatura media	20.9
23758	7	Sololá	710	Panajachel	8	Panajachel	3	Marzo	2023-07-03T00:00:00	2024-11-08T11:00:00	4	Temperatura máxima	28.7
23759	7	Sololá	710	Panajachel	8	Panajachel	3	Marzo	2023-07-03T00:00:00	2024-11-08T11:00:00	3	Temperatura mínima	20.2
23760	7	Sololá	710	Panajachel	8	Panajachel	3	Marzo	2023-07-03T00:00:00	2024-11-08T11:00:00	5	Humedad	65
23761	7	Sololá	710	Panajachel	8	Panajachel	3	Marzo	2023-07-03T00:00:00	2024-11-08T11:00:00	6	Velocidad del viento	3.2
23762	7	Sololá	710	Panajachel	8	Panajachel	3	Marzo	2023-07-03T00:00:00	2024-11-08T11:00:00	7	Dirección del viento	3.22
23763	7	Sololá	710	Panajachel	8	Panajachel	3	Marzo	2023-07-03T00:00:00	2024-11-08T11:00:00	1	Precipitación	0.2
23764	7	Sololá	710	Panajachel	8	Panajachel	3	Marzo	2023-07-03T00:00:00	2024-11-08T11:00:00	8	Radiación solar	660
23765	7	Sololá	710	Panajachel	8	Panajachel	3	Marzo	2023-07-03T00:00:00	2024-11-08T12:00:00	2	Temperatura media	21.4
23766	7	Sololá	710	Panajachel	8	Panajachel	3	Marzo	2023-07-03T00:00:00	2024-11-08T12:00:00	4	Temperatura máxima	21.4
23767	7	Sololá	710	Panajachel	8	Panajachel	3	Marzo	2023-07-03T00:00:00	2024-11-08T12:00:00	3	Temperatura mínima	20.3
23768	7	Sololá	710	Panajachel	8	Panajachel	3	Marzo	2023-07-03T00:00:00	2024-11-08T12:00:00	5	Humedad	76
23769	7	Sololá	710	Panajachel	8	Panajachel	3	Marzo	2023-07-03T00:00:00	2024-11-08T12:00:00	6	Velocidad del viento	8
23770	7	Sololá	710	Panajachel	8	Panajachel	3	Marzo	2023-07-03T00:00:00	2024-11-08T12:00:00	7	Dirección del viento	8.05
23771	7	Sololá	710	Panajachel	8	Panajachel	3	Marzo	2023-07-03T00:00:00	2024-11-08T12:00:00	1	Precipitación	0
23772	7	Sololá	710	Panajachel	8	Panajachel	3	Marzo	2023-07-03T00:00:00	2024-11-08T12:00:00	8	Radiación solar	867
23773	7	Sololá	710	Panajachel	8	Panajachel	3	Marzo	2023-07-03T00:00:00	2024-11-08T13:00:00	2	Temperatura media	22.3
23774	7	Sololá	710	Panajachel	8	Panajachel	3	Marzo	2023-07-03T00:00:00	2024-11-08T13:00:00	4	Temperatura máxima	22.6
23775	7	Sololá	710	Panajachel	8	Panajachel	3	Marzo	2023-07-03T00:00:00	2024-11-08T13:00:00	3	Temperatura mínima	20.9
23776	7	Sololá	710	Panajachel	8	Panajachel	3	Marzo	2023-07-03T00:00:00	2024-11-08T13:00:00	5	Humedad	69
23777	7	Sololá	710	Panajachel	8	Panajachel	3	Marzo	2023-07-03T00:00:00	2024-11-08T13:00:00	6	Velocidad del viento	4.8
23778	7	Sololá	710	Panajachel	8	Panajachel	3	Marzo	2023-07-03T00:00:00	2024-11-08T13:00:00	7	Dirección del viento	4.83
23779	7	Sololá	710	Panajachel	8	Panajachel	3	Marzo	2023-07-03T00:00:00	2024-11-08T13:00:00	1	Precipitación	0
23780	7	Sololá	710	Panajachel	8	Panajachel	3	Marzo	2023-07-03T00:00:00	2024-11-08T13:00:00	8	Radiación solar	692
23781	7	Sololá	710	Panajachel	8	Panajachel	3	Marzo	2023-07-03T00:00:00	2024-11-08T14:00:00	2	Temperatura media	22.5
23782	7	Sololá	710	Panajachel	8	Panajachel	3	Marzo	2023-07-03T00:00:00	2024-11-08T14:00:00	4	Temperatura máxima	22.9
23783	7	Sololá	710	Panajachel	8	Panajachel	3	Marzo	2023-07-03T00:00:00	2024-11-08T14:00:00	3	Temperatura mínima	22.1
23784	7	Sololá	710	Panajachel	8	Panajachel	3	Marzo	2023-07-03T00:00:00	2024-11-08T14:00:00	5	Humedad	73
23785	7	Sololá	710	Panajachel	8	Panajachel	3	Marzo	2023-07-03T00:00:00	2024-11-08T14:00:00	6	Velocidad del viento	3.2
23786	7	Sololá	710	Panajachel	8	Panajachel	3	Marzo	2023-07-03T00:00:00	2024-11-08T14:00:00	7	Dirección del viento	3.22
23787	7	Sololá	710	Panajachel	8	Panajachel	3	Marzo	2023-07-03T00:00:00	2024-11-08T14:00:00	1	Precipitación	0
23788	7	Sololá	710	Panajachel	8	Panajachel	3	Marzo	2023-07-03T00:00:00	2024-11-08T14:00:00	8	Radiación solar	545
23789	7	Sololá	710	Panajachel	8	Panajachel	3	Marzo	2023-07-03T00:00:00	2024-11-08T15:00:00	2	Temperatura media	21.2
23790	7	Sololá	710	Panajachel	8	Panajachel	3	Marzo	2023-07-03T00:00:00	2024-11-08T15:00:00	4	Temperatura máxima	22.5
23791	7	Sololá	710	Panajachel	8	Panajachel	3	Marzo	2023-07-03T00:00:00	2024-11-08T15:00:00	3	Temperatura mínima	21
23792	7	Sololá	710	Panajachel	8	Panajachel	3	Marzo	2023-07-03T00:00:00	2024-11-08T15:00:00	5	Humedad	77
23793	7	Sololá	710	Panajachel	8	Panajachel	3	Marzo	2023-07-03T00:00:00	2024-11-08T15:00:00	6	Velocidad del viento	4.8
23794	7	Sololá	710	Panajachel	8	Panajachel	3	Marzo	2023-07-03T00:00:00	2024-11-08T15:00:00	7	Dirección del viento	4.83
23795	7	Sololá	710	Panajachel	8	Panajachel	3	Marzo	2023-07-03T00:00:00	2024-11-08T15:00:00	1	Precipitación	0
23796	7	Sololá	710	Panajachel	8	Panajachel	3	Marzo	2023-07-03T00:00:00	2024-11-08T15:00:00	8	Radiación solar	306
23797	7	Sololá	710	Panajachel	8	Panajachel	3	Marzo	2023-07-03T00:00:00	2024-11-08T16:00:00	2	Temperatura media	20.4
23798	7	Sololá	710	Panajachel	8	Panajachel	3	Marzo	2023-07-03T00:00:00	2024-11-08T16:00:00	4	Temperatura máxima	22.1
23799	7	Sololá	710	Panajachel	8	Panajachel	3	Marzo	2023-07-03T00:00:00	2024-11-08T16:00:00	3	Temperatura mínima	20.3
23800	7	Sololá	710	Panajachel	8	Panajachel	3	Marzo	2023-07-03T00:00:00	2024-11-08T16:00:00	5	Humedad	83
23801	7	Sololá	710	Panajachel	8	Panajachel	3	Marzo	2023-07-03T00:00:00	2024-11-08T16:00:00	6	Velocidad del viento	8
23802	7	Sololá	710	Panajachel	8	Panajachel	3	Marzo	2023-07-03T00:00:00	2024-11-08T16:00:00	7	Dirección del viento	8.05
23803	7	Sololá	710	Panajachel	8	Panajachel	3	Marzo	2023-07-03T00:00:00	2024-11-08T16:00:00	1	Precipitación	0
23804	7	Sololá	710	Panajachel	8	Panajachel	3	Marzo	2023-07-03T00:00:00	2024-11-08T16:00:00	8	Radiación solar	290
23805	7	Sololá	710	Panajachel	8	Panajachel	3	Marzo	2023-07-03T00:00:00	2024-11-08T17:00:00	2	Temperatura media	19.8
23806	7	Sololá	710	Panajachel	8	Panajachel	3	Marzo	2023-07-03T00:00:00	2024-11-08T17:00:00	4	Temperatura máxima	20.4
23807	7	Sololá	710	Panajachel	8	Panajachel	3	Marzo	2023-07-03T00:00:00	2024-11-08T17:00:00	3	Temperatura mínima	19.8
23808	7	Sololá	710	Panajachel	8	Panajachel	3	Marzo	2023-07-03T00:00:00	2024-11-08T17:00:00	5	Humedad	85
23809	7	Sololá	710	Panajachel	8	Panajachel	3	Marzo	2023-07-03T00:00:00	2024-11-08T17:00:00	6	Velocidad del viento	4.8
23810	7	Sololá	710	Panajachel	8	Panajachel	3	Marzo	2023-07-03T00:00:00	2024-11-08T17:00:00	7	Dirección del viento	4.83
23811	7	Sololá	710	Panajachel	8	Panajachel	3	Marzo	2023-07-03T00:00:00	2024-11-08T17:00:00	1	Precipitación	0
23812	7	Sololá	710	Panajachel	8	Panajachel	3	Marzo	2023-07-03T00:00:00	2024-11-08T17:00:00	8	Radiación solar	53
23813	7	Sololá	710	Panajachel	8	Panajachel	3	Marzo	2023-07-03T00:00:00	2024-11-08T18:00:00	2	Temperatura media	19.9
23814	7	Sololá	710	Panajachel	8	Panajachel	3	Marzo	2023-07-03T00:00:00	2024-11-08T18:00:00	4	Temperatura máxima	20
23815	7	Sololá	710	Panajachel	8	Panajachel	3	Marzo	2023-07-03T00:00:00	2024-11-08T18:00:00	3	Temperatura mínima	19.8
23816	7	Sololá	710	Panajachel	8	Panajachel	3	Marzo	2023-07-03T00:00:00	2024-11-08T18:00:00	5	Humedad	83
23817	7	Sololá	710	Panajachel	8	Panajachel	3	Marzo	2023-07-03T00:00:00	2024-11-08T18:00:00	6	Velocidad del viento	1.6
23818	7	Sololá	710	Panajachel	8	Panajachel	3	Marzo	2023-07-03T00:00:00	2024-11-08T18:00:00	7	Dirección del viento	1.61
23819	7	Sololá	710	Panajachel	8	Panajachel	3	Marzo	2023-07-03T00:00:00	2024-11-08T18:00:00	1	Precipitación	0
23820	7	Sololá	710	Panajachel	8	Panajachel	3	Marzo	2023-07-03T00:00:00	2024-11-08T18:00:00	8	Radiación solar	44
23821	7	Sololá	710	Panajachel	8	Panajachel	3	Marzo	2023-07-03T00:00:00	2024-11-08T19:00:00	2	Temperatura media	19.2
23822	7	Sololá	710	Panajachel	8	Panajachel	3	Marzo	2023-07-03T00:00:00	2024-11-08T19:00:00	4	Temperatura máxima	19.9
23823	7	Sololá	710	Panajachel	8	Panajachel	3	Marzo	2023-07-03T00:00:00	2024-11-08T19:00:00	3	Temperatura mínima	19.2
23824	7	Sololá	710	Panajachel	8	Panajachel	3	Marzo	2023-07-03T00:00:00	2024-11-08T19:00:00	5	Humedad	88
23825	7	Sololá	710	Panajachel	8	Panajachel	3	Marzo	2023-07-03T00:00:00	2024-11-08T19:00:00	6	Velocidad del viento	0
23826	7	Sololá	710	Panajachel	8	Panajachel	3	Marzo	2023-07-03T00:00:00	2024-11-08T19:00:00	7	Dirección del viento	0
23827	7	Sololá	710	Panajachel	8	Panajachel	3	Marzo	2023-07-03T00:00:00	2024-11-08T19:00:00	1	Precipitación	0
23828	7	Sololá	710	Panajachel	8	Panajachel	3	Marzo	2023-07-03T00:00:00	2024-11-08T19:00:00	8	Radiación solar	0
23829	7	Sololá	710	Panajachel	8	Panajachel	3	Marzo	2023-07-03T00:00:00	2024-11-08T20:00:00	2	Temperatura media	18.9
23830	7	Sololá	710	Panajachel	8	Panajachel	3	Marzo	2023-07-03T00:00:00	2024-11-08T20:00:00	4	Temperatura máxima	19.2
23831	7	Sololá	710	Panajachel	8	Panajachel	3	Marzo	2023-07-03T00:00:00	2024-11-08T20:00:00	3	Temperatura mínima	18.7
23832	7	Sololá	710	Panajachel	8	Panajachel	3	Marzo	2023-07-03T00:00:00	2024-11-08T20:00:00	5	Humedad	90
23833	7	Sololá	710	Panajachel	8	Panajachel	3	Marzo	2023-07-03T00:00:00	2024-11-08T20:00:00	6	Velocidad del viento	0
23834	7	Sololá	710	Panajachel	8	Panajachel	3	Marzo	2023-07-03T00:00:00	2024-11-08T20:00:00	7	Dirección del viento	0
23835	7	Sololá	710	Panajachel	8	Panajachel	3	Marzo	2023-07-03T00:00:00	2024-11-08T20:00:00	1	Precipitación	0
23836	7	Sololá	710	Panajachel	8	Panajachel	3	Marzo	2023-07-03T00:00:00	2024-11-08T20:00:00	8	Radiación solar	0
23837	7	Sololá	710	Panajachel	8	Panajachel	3	Marzo	2023-07-03T00:00:00	2024-11-08T21:00:00	2	Temperatura media	18.6
23838	7	Sololá	710	Panajachel	8	Panajachel	3	Marzo	2023-07-03T00:00:00	2024-11-08T21:00:00	4	Temperatura máxima	18.9
23839	7	Sololá	710	Panajachel	8	Panajachel	3	Marzo	2023-07-03T00:00:00	2024-11-08T21:00:00	3	Temperatura mínima	18.6
23840	7	Sololá	710	Panajachel	8	Panajachel	3	Marzo	2023-07-03T00:00:00	2024-11-08T21:00:00	5	Humedad	86
23841	7	Sololá	710	Panajachel	8	Panajachel	3	Marzo	2023-07-03T00:00:00	2024-11-08T21:00:00	6	Velocidad del viento	1.6
23842	7	Sololá	710	Panajachel	8	Panajachel	3	Marzo	2023-07-03T00:00:00	2024-11-08T21:00:00	7	Dirección del viento	1.61
23843	7	Sololá	710	Panajachel	8	Panajachel	3	Marzo	2023-07-03T00:00:00	2024-11-08T21:00:00	1	Precipitación	0
23844	7	Sololá	710	Panajachel	8	Panajachel	3	Marzo	2023-07-03T00:00:00	2024-11-08T21:00:00	8	Radiación solar	0
23845	7	Sololá	710	Panajachel	8	Panajachel	3	Marzo	2023-07-03T00:00:00	2024-11-08T22:00:00	2	Temperatura media	18
23846	7	Sololá	710	Panajachel	8	Panajachel	3	Marzo	2023-07-03T00:00:00	2024-11-08T22:00:00	4	Temperatura máxima	18.6
23847	7	Sololá	710	Panajachel	8	Panajachel	3	Marzo	2023-07-03T00:00:00	2024-11-08T22:00:00	3	Temperatura mínima	17.6
23848	7	Sololá	710	Panajachel	8	Panajachel	3	Marzo	2023-07-03T00:00:00	2024-11-08T22:00:00	5	Humedad	79
23849	7	Sololá	710	Panajachel	8	Panajachel	3	Marzo	2023-07-03T00:00:00	2024-11-08T22:00:00	6	Velocidad del viento	4.8
23850	7	Sololá	710	Panajachel	8	Panajachel	3	Marzo	2023-07-03T00:00:00	2024-11-08T22:00:00	7	Dirección del viento	4.83
23851	7	Sololá	710	Panajachel	8	Panajachel	3	Marzo	2023-07-03T00:00:00	2024-11-08T22:00:00	1	Precipitación	0
23852	7	Sololá	710	Panajachel	8	Panajachel	3	Marzo	2023-07-03T00:00:00	2024-11-08T22:00:00	8	Radiación solar	0
23853	7	Sololá	710	Panajachel	8	Panajachel	3	Marzo	2023-07-03T00:00:00	2024-11-08T23:00:00	2	Temperatura media	18.9
23854	7	Sololá	710	Panajachel	8	Panajachel	3	Marzo	2023-07-03T00:00:00	2024-11-08T23:00:00	4	Temperatura máxima	18.9
23855	7	Sololá	710	Panajachel	8	Panajachel	3	Marzo	2023-07-03T00:00:00	2024-11-08T23:00:00	3	Temperatura mínima	17.9
23856	7	Sololá	710	Panajachel	8	Panajachel	3	Marzo	2023-07-03T00:00:00	2024-11-08T23:00:00	5	Humedad	73
23857	7	Sololá	710	Panajachel	8	Panajachel	3	Marzo	2023-07-03T00:00:00	2024-11-08T23:00:00	6	Velocidad del viento	3.2
23858	7	Sololá	710	Panajachel	8	Panajachel	3	Marzo	2023-07-03T00:00:00	2024-11-08T23:00:00	7	Dirección del viento	3.22
23859	7	Sololá	710	Panajachel	8	Panajachel	3	Marzo	2023-07-03T00:00:00	2024-11-08T23:00:00	1	Precipitación	0
23860	7	Sololá	710	Panajachel	8	Panajachel	3	Marzo	2023-07-03T00:00:00	2024-11-08T23:00:00	8	Radiación solar	0
23861	7	Sololá	710	Panajachel	8	Panajachel	3	Marzo	2023-08-03T00:00:00	2024-11-08T00:00:00	2	Temperatura media	18.7
23862	7	Sololá	710	Panajachel	8	Panajachel	3	Marzo	2023-08-03T00:00:00	2024-11-08T00:00:00	4	Temperatura máxima	19.3
23863	7	Sololá	710	Panajachel	8	Panajachel	3	Marzo	2023-08-03T00:00:00	2024-11-08T00:00:00	3	Temperatura mínima	18.7
23864	7	Sololá	710	Panajachel	8	Panajachel	3	Marzo	2023-08-03T00:00:00	2024-11-08T00:00:00	5	Humedad	76
23865	7	Sololá	710	Panajachel	8	Panajachel	3	Marzo	2023-08-03T00:00:00	2024-11-08T00:00:00	6	Velocidad del viento	3.2
23866	7	Sololá	710	Panajachel	8	Panajachel	3	Marzo	2023-08-03T00:00:00	2024-11-08T00:00:00	7	Dirección del viento	3.22
23867	7	Sololá	710	Panajachel	8	Panajachel	3	Marzo	2023-08-03T00:00:00	2024-11-08T00:00:00	1	Precipitación	0
23868	7	Sololá	710	Panajachel	8	Panajachel	3	Marzo	2023-08-03T00:00:00	2024-11-08T00:00:00	8	Radiación solar	0
23869	7	Sololá	710	Panajachel	8	Panajachel	3	Marzo	2023-08-03T00:00:00	2024-11-08T01:00:00	2	Temperatura media	17.4
23870	7	Sololá	710	Panajachel	8	Panajachel	3	Marzo	2023-08-03T00:00:00	2024-11-08T01:00:00	4	Temperatura máxima	18.7
23871	7	Sololá	710	Panajachel	8	Panajachel	3	Marzo	2023-08-03T00:00:00	2024-11-08T01:00:00	3	Temperatura mínima	17.4
23872	7	Sololá	710	Panajachel	8	Panajachel	3	Marzo	2023-08-03T00:00:00	2024-11-08T01:00:00	5	Humedad	80
23873	7	Sololá	710	Panajachel	8	Panajachel	3	Marzo	2023-08-03T00:00:00	2024-11-08T01:00:00	6	Velocidad del viento	1.6
23874	7	Sololá	710	Panajachel	8	Panajachel	3	Marzo	2023-08-03T00:00:00	2024-11-08T01:00:00	7	Dirección del viento	1.61
23875	7	Sololá	710	Panajachel	8	Panajachel	3	Marzo	2023-08-03T00:00:00	2024-11-08T01:00:00	1	Precipitación	0
23876	7	Sololá	710	Panajachel	8	Panajachel	3	Marzo	2023-08-03T00:00:00	2024-11-08T01:00:00	8	Radiación solar	0
23877	7	Sololá	710	Panajachel	8	Panajachel	3	Marzo	2023-08-03T00:00:00	2024-11-08T02:00:00	2	Temperatura media	17.2
23878	7	Sololá	710	Panajachel	8	Panajachel	3	Marzo	2023-08-03T00:00:00	2024-11-08T02:00:00	4	Temperatura máxima	17.8
23879	7	Sololá	710	Panajachel	8	Panajachel	3	Marzo	2023-08-03T00:00:00	2024-11-08T02:00:00	3	Temperatura mínima	17.2
23880	7	Sololá	710	Panajachel	8	Panajachel	3	Marzo	2023-08-03T00:00:00	2024-11-08T02:00:00	5	Humedad	78
23881	7	Sololá	710	Panajachel	8	Panajachel	3	Marzo	2023-08-03T00:00:00	2024-11-08T02:00:00	6	Velocidad del viento	1.6
23882	7	Sololá	710	Panajachel	8	Panajachel	3	Marzo	2023-08-03T00:00:00	2024-11-08T02:00:00	7	Dirección del viento	1.61
23883	7	Sololá	710	Panajachel	8	Panajachel	3	Marzo	2023-08-03T00:00:00	2024-11-08T02:00:00	1	Precipitación	0
23884	7	Sololá	710	Panajachel	8	Panajachel	3	Marzo	2023-08-03T00:00:00	2024-11-08T02:00:00	8	Radiación solar	0
23885	7	Sololá	710	Panajachel	8	Panajachel	3	Marzo	2023-08-03T00:00:00	2024-11-08T03:00:00	2	Temperatura media	17.1
23886	7	Sololá	710	Panajachel	8	Panajachel	3	Marzo	2023-08-03T00:00:00	2024-11-08T03:00:00	4	Temperatura máxima	17.4
23887	7	Sololá	710	Panajachel	8	Panajachel	3	Marzo	2023-08-03T00:00:00	2024-11-08T03:00:00	3	Temperatura mínima	17
23888	7	Sololá	710	Panajachel	8	Panajachel	3	Marzo	2023-08-03T00:00:00	2024-11-08T03:00:00	5	Humedad	76
23889	7	Sololá	710	Panajachel	8	Panajachel	3	Marzo	2023-08-03T00:00:00	2024-11-08T03:00:00	6	Velocidad del viento	3.2
23890	7	Sololá	710	Panajachel	8	Panajachel	3	Marzo	2023-08-03T00:00:00	2024-11-08T03:00:00	7	Dirección del viento	3.22
23891	7	Sololá	710	Panajachel	8	Panajachel	3	Marzo	2023-08-03T00:00:00	2024-11-08T03:00:00	1	Precipitación	0
23892	7	Sololá	710	Panajachel	8	Panajachel	3	Marzo	2023-08-03T00:00:00	2024-11-08T03:00:00	8	Radiación solar	0
23893	7	Sololá	710	Panajachel	8	Panajachel	3	Marzo	2023-08-03T00:00:00	2024-11-08T04:00:00	2	Temperatura media	17.1
23894	7	Sololá	710	Panajachel	8	Panajachel	3	Marzo	2023-08-03T00:00:00	2024-11-08T04:00:00	4	Temperatura máxima	17.1
23895	7	Sololá	710	Panajachel	8	Panajachel	3	Marzo	2023-08-03T00:00:00	2024-11-08T04:00:00	3	Temperatura mínima	16.9
23896	7	Sololá	710	Panajachel	8	Panajachel	3	Marzo	2023-08-03T00:00:00	2024-11-08T04:00:00	5	Humedad	76
23897	7	Sololá	710	Panajachel	8	Panajachel	3	Marzo	2023-08-03T00:00:00	2024-11-08T04:00:00	6	Velocidad del viento	3.2
23898	7	Sololá	710	Panajachel	8	Panajachel	3	Marzo	2023-08-03T00:00:00	2024-11-08T04:00:00	7	Dirección del viento	3.22
23899	7	Sololá	710	Panajachel	8	Panajachel	3	Marzo	2023-08-03T00:00:00	2024-11-08T04:00:00	1	Precipitación	0
23900	7	Sololá	710	Panajachel	8	Panajachel	3	Marzo	2023-08-03T00:00:00	2024-11-08T04:00:00	8	Radiación solar	0
23901	7	Sololá	710	Panajachel	8	Panajachel	3	Marzo	2023-08-03T00:00:00	2024-11-08T05:00:00	2	Temperatura media	17.1
23902	7	Sololá	710	Panajachel	8	Panajachel	3	Marzo	2023-08-03T00:00:00	2024-11-08T05:00:00	4	Temperatura máxima	17.2
23903	7	Sololá	710	Panajachel	8	Panajachel	3	Marzo	2023-08-03T00:00:00	2024-11-08T05:00:00	3	Temperatura mínima	16.9
23904	7	Sololá	710	Panajachel	8	Panajachel	3	Marzo	2023-08-03T00:00:00	2024-11-08T05:00:00	5	Humedad	77
23905	7	Sololá	710	Panajachel	8	Panajachel	3	Marzo	2023-08-03T00:00:00	2024-11-08T05:00:00	6	Velocidad del viento	3.2
23906	7	Sololá	710	Panajachel	8	Panajachel	3	Marzo	2023-08-03T00:00:00	2024-11-08T05:00:00	7	Dirección del viento	3.22
23907	7	Sololá	710	Panajachel	8	Panajachel	3	Marzo	2023-08-03T00:00:00	2024-11-08T05:00:00	1	Precipitación	0
23908	7	Sololá	710	Panajachel	8	Panajachel	3	Marzo	2023-08-03T00:00:00	2024-11-08T05:00:00	8	Radiación solar	0
23909	7	Sololá	710	Panajachel	8	Panajachel	3	Marzo	2023-08-03T00:00:00	2024-11-08T06:00:00	2	Temperatura media	16.4
23910	7	Sololá	710	Panajachel	8	Panajachel	3	Marzo	2023-08-03T00:00:00	2024-11-08T06:00:00	4	Temperatura máxima	17.1
23911	7	Sololá	710	Panajachel	8	Panajachel	3	Marzo	2023-08-03T00:00:00	2024-11-08T06:00:00	3	Temperatura mínima	16.4
23912	7	Sololá	710	Panajachel	8	Panajachel	3	Marzo	2023-08-03T00:00:00	2024-11-08T06:00:00	5	Humedad	78
23913	7	Sololá	710	Panajachel	8	Panajachel	3	Marzo	2023-08-03T00:00:00	2024-11-08T06:00:00	6	Velocidad del viento	3.2
23914	7	Sololá	710	Panajachel	8	Panajachel	3	Marzo	2023-08-03T00:00:00	2024-11-08T06:00:00	7	Dirección del viento	3.22
23915	7	Sololá	710	Panajachel	8	Panajachel	3	Marzo	2023-08-03T00:00:00	2024-11-08T06:00:00	1	Precipitación	0
23916	7	Sololá	710	Panajachel	8	Panajachel	3	Marzo	2023-08-03T00:00:00	2024-11-08T06:00:00	8	Radiación solar	0
23917	7	Sololá	710	Panajachel	8	Panajachel	3	Marzo	2023-08-03T00:00:00	2024-11-08T07:00:00	2	Temperatura media	15.9
23918	7	Sololá	710	Panajachel	8	Panajachel	3	Marzo	2023-08-03T00:00:00	2024-11-08T07:00:00	4	Temperatura máxima	16.4
23919	7	Sololá	710	Panajachel	8	Panajachel	3	Marzo	2023-08-03T00:00:00	2024-11-08T07:00:00	3	Temperatura mínima	15.9
23920	7	Sololá	710	Panajachel	8	Panajachel	3	Marzo	2023-08-03T00:00:00	2024-11-08T07:00:00	5	Humedad	77
23921	7	Sololá	710	Panajachel	8	Panajachel	3	Marzo	2023-08-03T00:00:00	2024-11-08T07:00:00	6	Velocidad del viento	4.8
23922	7	Sololá	710	Panajachel	8	Panajachel	3	Marzo	2023-08-03T00:00:00	2024-11-08T07:00:00	7	Dirección del viento	4.83
23923	7	Sololá	710	Panajachel	8	Panajachel	3	Marzo	2023-08-03T00:00:00	2024-11-08T07:00:00	1	Precipitación	0
23924	7	Sololá	710	Panajachel	8	Panajachel	3	Marzo	2023-08-03T00:00:00	2024-11-08T07:00:00	8	Radiación solar	5
23925	7	Sololá	710	Panajachel	8	Panajachel	3	Marzo	2023-08-03T00:00:00	2024-11-08T08:00:00	2	Temperatura media	17.2
23926	7	Sololá	710	Panajachel	8	Panajachel	3	Marzo	2023-08-03T00:00:00	2024-11-08T08:00:00	4	Temperatura máxima	17.2
23927	7	Sololá	710	Panajachel	8	Panajachel	3	Marzo	2023-08-03T00:00:00	2024-11-08T08:00:00	3	Temperatura mínima	15.9
23928	7	Sololá	710	Panajachel	8	Panajachel	3	Marzo	2023-08-03T00:00:00	2024-11-08T08:00:00	5	Humedad	74
23929	7	Sololá	710	Panajachel	8	Panajachel	3	Marzo	2023-08-03T00:00:00	2024-11-08T08:00:00	6	Velocidad del viento	4.8
23930	7	Sololá	710	Panajachel	8	Panajachel	3	Marzo	2023-08-03T00:00:00	2024-11-08T08:00:00	7	Dirección del viento	4.83
23931	7	Sololá	710	Panajachel	8	Panajachel	3	Marzo	2023-08-03T00:00:00	2024-11-08T08:00:00	1	Precipitación	0
23932	7	Sololá	710	Panajachel	8	Panajachel	3	Marzo	2023-08-03T00:00:00	2024-11-08T08:00:00	8	Radiación solar	80
23933	7	Sololá	710	Panajachel	8	Panajachel	3	Marzo	2023-08-03T00:00:00	2024-11-08T09:00:00	2	Temperatura media	18.9
23934	7	Sololá	710	Panajachel	8	Panajachel	3	Marzo	2023-08-03T00:00:00	2024-11-08T09:00:00	4	Temperatura máxima	19.5
23935	7	Sololá	710	Panajachel	8	Panajachel	3	Marzo	2023-08-03T00:00:00	2024-11-08T09:00:00	3	Temperatura mínima	17.3
23936	7	Sololá	710	Panajachel	8	Panajachel	3	Marzo	2023-08-03T00:00:00	2024-11-08T09:00:00	5	Humedad	78
23937	7	Sololá	710	Panajachel	8	Panajachel	3	Marzo	2023-08-03T00:00:00	2024-11-08T09:00:00	6	Velocidad del viento	1.6
23938	7	Sololá	710	Panajachel	8	Panajachel	3	Marzo	2023-08-03T00:00:00	2024-11-08T09:00:00	7	Dirección del viento	1.61
23939	7	Sololá	710	Panajachel	8	Panajachel	3	Marzo	2023-08-03T00:00:00	2024-11-08T09:00:00	1	Precipitación	0
23940	7	Sololá	710	Panajachel	8	Panajachel	3	Marzo	2023-08-03T00:00:00	2024-11-08T09:00:00	8	Radiación solar	321
23941	7	Sololá	710	Panajachel	8	Panajachel	3	Marzo	2023-08-03T00:00:00	2024-11-08T10:00:00	2	Temperatura media	20.4
23942	7	Sololá	710	Panajachel	8	Panajachel	3	Marzo	2023-08-03T00:00:00	2024-11-08T10:00:00	4	Temperatura máxima	20.9
23943	7	Sololá	710	Panajachel	8	Panajachel	3	Marzo	2023-08-03T00:00:00	2024-11-08T10:00:00	3	Temperatura mínima	18.9
23944	7	Sololá	710	Panajachel	8	Panajachel	3	Marzo	2023-08-03T00:00:00	2024-11-08T10:00:00	5	Humedad	74
23945	7	Sololá	710	Panajachel	8	Panajachel	3	Marzo	2023-08-03T00:00:00	2024-11-08T10:00:00	6	Velocidad del viento	3.2
23946	7	Sololá	710	Panajachel	8	Panajachel	3	Marzo	2023-08-03T00:00:00	2024-11-08T10:00:00	7	Dirección del viento	3.22
23947	7	Sololá	710	Panajachel	8	Panajachel	3	Marzo	2023-08-03T00:00:00	2024-11-08T10:00:00	1	Precipitación	0
23948	7	Sololá	710	Panajachel	8	Panajachel	3	Marzo	2023-08-03T00:00:00	2024-11-08T10:00:00	8	Radiación solar	635
23949	7	Sololá	710	Panajachel	8	Panajachel	3	Marzo	2023-08-03T00:00:00	2024-11-08T11:00:00	2	Temperatura media	21.5
23950	7	Sololá	710	Panajachel	8	Panajachel	3	Marzo	2023-08-03T00:00:00	2024-11-08T11:00:00	4	Temperatura máxima	21.5
23951	7	Sololá	710	Panajachel	8	Panajachel	3	Marzo	2023-08-03T00:00:00	2024-11-08T11:00:00	3	Temperatura mínima	20.1
23952	7	Sololá	710	Panajachel	8	Panajachel	3	Marzo	2023-08-03T00:00:00	2024-11-08T11:00:00	5	Humedad	72
23953	7	Sololá	710	Panajachel	8	Panajachel	3	Marzo	2023-08-03T00:00:00	2024-11-08T11:00:00	6	Velocidad del viento	4.8
23954	7	Sololá	710	Panajachel	8	Panajachel	3	Marzo	2023-08-03T00:00:00	2024-11-08T11:00:00	7	Dirección del viento	4.83
23955	7	Sololá	710	Panajachel	8	Panajachel	3	Marzo	2023-08-03T00:00:00	2024-11-08T11:00:00	1	Precipitación	0
23956	7	Sololá	710	Panajachel	8	Panajachel	3	Marzo	2023-08-03T00:00:00	2024-11-08T11:00:00	8	Radiación solar	804
23957	7	Sololá	710	Panajachel	8	Panajachel	3	Marzo	2023-08-03T00:00:00	2024-11-08T12:00:00	2	Temperatura media	21.7
23958	7	Sololá	710	Panajachel	8	Panajachel	3	Marzo	2023-08-03T00:00:00	2024-11-08T12:00:00	4	Temperatura máxima	22.4
23959	7	Sololá	710	Panajachel	8	Panajachel	3	Marzo	2023-08-03T00:00:00	2024-11-08T12:00:00	3	Temperatura mínima	21.3
23960	7	Sololá	710	Panajachel	8	Panajachel	3	Marzo	2023-08-03T00:00:00	2024-11-08T12:00:00	5	Humedad	75
23961	7	Sololá	710	Panajachel	8	Panajachel	3	Marzo	2023-08-03T00:00:00	2024-11-08T12:00:00	6	Velocidad del viento	6.4
23962	7	Sololá	710	Panajachel	8	Panajachel	3	Marzo	2023-08-03T00:00:00	2024-11-08T12:00:00	7	Dirección del viento	6.44
23963	7	Sololá	710	Panajachel	8	Panajachel	3	Marzo	2023-08-03T00:00:00	2024-11-08T12:00:00	1	Precipitación	0
23964	7	Sololá	710	Panajachel	8	Panajachel	3	Marzo	2023-08-03T00:00:00	2024-11-08T12:00:00	8	Radiación solar	877
23965	7	Sololá	710	Panajachel	8	Panajachel	3	Marzo	2023-08-03T00:00:00	2024-11-08T13:00:00	2	Temperatura media	22.2
23966	7	Sololá	710	Panajachel	8	Panajachel	3	Marzo	2023-08-03T00:00:00	2024-11-08T13:00:00	4	Temperatura máxima	22.2
23967	7	Sololá	710	Panajachel	8	Panajachel	3	Marzo	2023-08-03T00:00:00	2024-11-08T13:00:00	3	Temperatura mínima	20.8
23968	7	Sololá	710	Panajachel	8	Panajachel	3	Marzo	2023-08-03T00:00:00	2024-11-08T13:00:00	5	Humedad	70
23969	7	Sololá	710	Panajachel	8	Panajachel	3	Marzo	2023-08-03T00:00:00	2024-11-08T13:00:00	6	Velocidad del viento	8
23970	7	Sololá	710	Panajachel	8	Panajachel	3	Marzo	2023-08-03T00:00:00	2024-11-08T13:00:00	7	Dirección del viento	8.05
23971	7	Sololá	710	Panajachel	8	Panajachel	3	Marzo	2023-08-03T00:00:00	2024-11-08T13:00:00	1	Precipitación	0
23972	7	Sololá	710	Panajachel	8	Panajachel	3	Marzo	2023-08-03T00:00:00	2024-11-08T13:00:00	8	Radiación solar	859
23973	7	Sololá	710	Panajachel	8	Panajachel	3	Marzo	2023-08-03T00:00:00	2024-11-08T14:00:00	2	Temperatura media	20.8
23974	7	Sololá	710	Panajachel	8	Panajachel	3	Marzo	2023-08-03T00:00:00	2024-11-08T14:00:00	4	Temperatura máxima	22.7
23975	7	Sololá	710	Panajachel	8	Panajachel	3	Marzo	2023-08-03T00:00:00	2024-11-08T14:00:00	3	Temperatura mínima	20.7
23976	7	Sololá	710	Panajachel	8	Panajachel	3	Marzo	2023-08-03T00:00:00	2024-11-08T14:00:00	5	Humedad	77
23977	7	Sololá	710	Panajachel	8	Panajachel	3	Marzo	2023-08-03T00:00:00	2024-11-08T14:00:00	6	Velocidad del viento	6.4
23978	7	Sololá	710	Panajachel	8	Panajachel	3	Marzo	2023-08-03T00:00:00	2024-11-08T14:00:00	7	Dirección del viento	6.44
23979	7	Sololá	710	Panajachel	8	Panajachel	3	Marzo	2023-08-03T00:00:00	2024-11-08T14:00:00	1	Precipitación	0
23980	7	Sololá	710	Panajachel	8	Panajachel	3	Marzo	2023-08-03T00:00:00	2024-11-08T14:00:00	8	Radiación solar	467
23981	7	Sololá	710	Panajachel	8	Panajachel	3	Marzo	2023-08-03T00:00:00	2024-11-08T15:00:00	2	Temperatura media	20.1
23982	7	Sololá	710	Panajachel	8	Panajachel	3	Marzo	2023-08-03T00:00:00	2024-11-08T15:00:00	4	Temperatura máxima	20.9
23983	7	Sololá	710	Panajachel	8	Panajachel	3	Marzo	2023-08-03T00:00:00	2024-11-08T15:00:00	3	Temperatura mínima	20.1
23984	7	Sololá	710	Panajachel	8	Panajachel	3	Marzo	2023-08-03T00:00:00	2024-11-08T15:00:00	5	Humedad	78
23985	7	Sololá	710	Panajachel	8	Panajachel	3	Marzo	2023-08-03T00:00:00	2024-11-08T15:00:00	6	Velocidad del viento	6.4
23986	7	Sololá	710	Panajachel	8	Panajachel	3	Marzo	2023-08-03T00:00:00	2024-11-08T15:00:00	7	Dirección del viento	6.44
23987	7	Sololá	710	Panajachel	8	Panajachel	3	Marzo	2023-08-03T00:00:00	2024-11-08T15:00:00	1	Precipitación	0
23988	7	Sololá	710	Panajachel	8	Panajachel	3	Marzo	2023-08-03T00:00:00	2024-11-08T15:00:00	8	Radiación solar	257
23989	7	Sololá	710	Panajachel	8	Panajachel	3	Marzo	2023-08-03T00:00:00	2024-11-08T16:00:00	2	Temperatura media	20.6
23990	7	Sololá	710	Panajachel	8	Panajachel	3	Marzo	2023-08-03T00:00:00	2024-11-08T16:00:00	4	Temperatura máxima	20.7
23991	7	Sololá	710	Panajachel	8	Panajachel	3	Marzo	2023-08-03T00:00:00	2024-11-08T16:00:00	3	Temperatura mínima	19.8
23992	7	Sololá	710	Panajachel	8	Panajachel	3	Marzo	2023-08-03T00:00:00	2024-11-08T16:00:00	5	Humedad	77
23993	7	Sololá	710	Panajachel	8	Panajachel	3	Marzo	2023-08-03T00:00:00	2024-11-08T16:00:00	6	Velocidad del viento	4.8
23994	7	Sololá	710	Panajachel	8	Panajachel	3	Marzo	2023-08-03T00:00:00	2024-11-08T16:00:00	7	Dirección del viento	4.83
23995	7	Sololá	710	Panajachel	8	Panajachel	3	Marzo	2023-08-03T00:00:00	2024-11-08T16:00:00	1	Precipitación	0
23996	7	Sololá	710	Panajachel	8	Panajachel	3	Marzo	2023-08-03T00:00:00	2024-11-08T16:00:00	8	Radiación solar	245
23997	7	Sololá	710	Panajachel	8	Panajachel	3	Marzo	2023-08-03T00:00:00	2024-11-08T17:00:00	2	Temperatura media	19.4
23998	7	Sololá	710	Panajachel	8	Panajachel	3	Marzo	2023-08-03T00:00:00	2024-11-08T17:00:00	4	Temperatura máxima	20.8
23999	7	Sololá	710	Panajachel	8	Panajachel	3	Marzo	2023-08-03T00:00:00	2024-11-08T17:00:00	3	Temperatura mínima	19.4
24000	7	Sololá	710	Panajachel	8	Panajachel	3	Marzo	2023-08-03T00:00:00	2024-11-08T17:00:00	5	Humedad	86
24001	7	Sololá	710	Panajachel	8	Panajachel	3	Marzo	2023-08-03T00:00:00	2024-11-08T17:00:00	6	Velocidad del viento	3.2
24002	7	Sololá	710	Panajachel	8	Panajachel	3	Marzo	2023-08-03T00:00:00	2024-11-08T17:00:00	7	Dirección del viento	3.22
24003	7	Sololá	710	Panajachel	8	Panajachel	3	Marzo	2023-08-03T00:00:00	2024-11-08T17:00:00	1	Precipitación	0
24004	7	Sololá	710	Panajachel	8	Panajachel	3	Marzo	2023-08-03T00:00:00	2024-11-08T17:00:00	8	Radiación solar	154
24005	7	Sololá	710	Panajachel	8	Panajachel	3	Marzo	2023-08-03T00:00:00	2024-11-08T18:00:00	2	Temperatura media	18.8
24006	7	Sololá	710	Panajachel	8	Panajachel	3	Marzo	2023-08-03T00:00:00	2024-11-08T18:00:00	4	Temperatura máxima	19.4
24007	7	Sololá	710	Panajachel	8	Panajachel	3	Marzo	2023-08-03T00:00:00	2024-11-08T18:00:00	3	Temperatura mínima	18.7
24008	7	Sololá	710	Panajachel	8	Panajachel	3	Marzo	2023-08-03T00:00:00	2024-11-08T18:00:00	5	Humedad	87
24009	7	Sololá	710	Panajachel	8	Panajachel	3	Marzo	2023-08-03T00:00:00	2024-11-08T18:00:00	6	Velocidad del viento	4.8
24010	7	Sololá	710	Panajachel	8	Panajachel	3	Marzo	2023-08-03T00:00:00	2024-11-08T18:00:00	7	Dirección del viento	4.83
24011	7	Sololá	710	Panajachel	8	Panajachel	3	Marzo	2023-08-03T00:00:00	2024-11-08T18:00:00	1	Precipitación	0
24012	7	Sololá	710	Panajachel	8	Panajachel	3	Marzo	2023-08-03T00:00:00	2024-11-08T18:00:00	8	Radiación solar	52
24013	7	Sololá	710	Panajachel	8	Panajachel	3	Marzo	2023-08-03T00:00:00	2024-11-08T19:00:00	2	Temperatura media	18.4
24014	7	Sololá	710	Panajachel	8	Panajachel	3	Marzo	2023-08-03T00:00:00	2024-11-08T19:00:00	4	Temperatura máxima	18.8
24015	7	Sololá	710	Panajachel	8	Panajachel	3	Marzo	2023-08-03T00:00:00	2024-11-08T19:00:00	3	Temperatura mínima	18.4
24016	7	Sololá	710	Panajachel	8	Panajachel	3	Marzo	2023-08-03T00:00:00	2024-11-08T19:00:00	5	Humedad	88
24017	7	Sololá	710	Panajachel	8	Panajachel	3	Marzo	2023-08-03T00:00:00	2024-11-08T19:00:00	6	Velocidad del viento	3.2
24018	7	Sololá	710	Panajachel	8	Panajachel	3	Marzo	2023-08-03T00:00:00	2024-11-08T19:00:00	7	Dirección del viento	3.22
24019	7	Sololá	710	Panajachel	8	Panajachel	3	Marzo	2023-08-03T00:00:00	2024-11-08T19:00:00	1	Precipitación	0
24020	7	Sololá	710	Panajachel	8	Panajachel	3	Marzo	2023-08-03T00:00:00	2024-11-08T19:00:00	8	Radiación solar	0
24021	7	Sololá	710	Panajachel	8	Panajachel	3	Marzo	2023-08-03T00:00:00	2024-11-08T20:00:00	2	Temperatura media	18.4
24022	7	Sololá	710	Panajachel	8	Panajachel	3	Marzo	2023-08-03T00:00:00	2024-11-08T20:00:00	4	Temperatura máxima	18.4
24023	7	Sololá	710	Panajachel	8	Panajachel	3	Marzo	2023-08-03T00:00:00	2024-11-08T20:00:00	3	Temperatura mínima	18.2
24024	7	Sololá	710	Panajachel	8	Panajachel	3	Marzo	2023-08-03T00:00:00	2024-11-08T20:00:00	5	Humedad	88
24025	7	Sololá	710	Panajachel	8	Panajachel	3	Marzo	2023-08-03T00:00:00	2024-11-08T20:00:00	6	Velocidad del viento	1.6
24026	7	Sololá	710	Panajachel	8	Panajachel	3	Marzo	2023-08-03T00:00:00	2024-11-08T20:00:00	7	Dirección del viento	1.61
24027	7	Sololá	710	Panajachel	8	Panajachel	3	Marzo	2023-08-03T00:00:00	2024-11-08T20:00:00	1	Precipitación	0
24028	7	Sololá	710	Panajachel	8	Panajachel	3	Marzo	2023-08-03T00:00:00	2024-11-08T20:00:00	8	Radiación solar	0
24029	7	Sololá	710	Panajachel	8	Panajachel	3	Marzo	2023-08-03T00:00:00	2024-11-08T21:00:00	2	Temperatura media	17.8
24030	7	Sololá	710	Panajachel	8	Panajachel	3	Marzo	2023-08-03T00:00:00	2024-11-08T21:00:00	4	Temperatura máxima	18.4
24031	7	Sololá	710	Panajachel	8	Panajachel	3	Marzo	2023-08-03T00:00:00	2024-11-08T21:00:00	3	Temperatura mínima	17.8
24032	7	Sololá	710	Panajachel	8	Panajachel	3	Marzo	2023-08-03T00:00:00	2024-11-08T21:00:00	5	Humedad	87
24033	7	Sololá	710	Panajachel	8	Panajachel	3	Marzo	2023-08-03T00:00:00	2024-11-08T21:00:00	6	Velocidad del viento	0
24034	7	Sololá	710	Panajachel	8	Panajachel	3	Marzo	2023-08-03T00:00:00	2024-11-08T21:00:00	7	Dirección del viento	0
24035	7	Sololá	710	Panajachel	8	Panajachel	3	Marzo	2023-08-03T00:00:00	2024-11-08T21:00:00	1	Precipitación	0
24036	7	Sololá	710	Panajachel	8	Panajachel	3	Marzo	2023-08-03T00:00:00	2024-11-08T21:00:00	8	Radiación solar	0
24037	7	Sololá	710	Panajachel	8	Panajachel	3	Marzo	2023-08-03T00:00:00	2024-11-08T22:00:00	2	Temperatura media	17.3
24038	7	Sololá	710	Panajachel	8	Panajachel	3	Marzo	2023-08-03T00:00:00	2024-11-08T22:00:00	4	Temperatura máxima	17.8
24039	7	Sololá	710	Panajachel	8	Panajachel	3	Marzo	2023-08-03T00:00:00	2024-11-08T22:00:00	3	Temperatura mínima	17.3
24040	7	Sololá	710	Panajachel	8	Panajachel	3	Marzo	2023-08-03T00:00:00	2024-11-08T22:00:00	5	Humedad	79
24041	7	Sololá	710	Panajachel	8	Panajachel	3	Marzo	2023-08-03T00:00:00	2024-11-08T22:00:00	6	Velocidad del viento	3.2
24042	7	Sololá	710	Panajachel	8	Panajachel	3	Marzo	2023-08-03T00:00:00	2024-11-08T22:00:00	7	Dirección del viento	3.22
24043	7	Sololá	710	Panajachel	8	Panajachel	3	Marzo	2023-08-03T00:00:00	2024-11-08T22:00:00	1	Precipitación	0
24044	7	Sololá	710	Panajachel	8	Panajachel	3	Marzo	2023-08-03T00:00:00	2024-11-08T22:00:00	8	Radiación solar	0
24045	7	Sololá	710	Panajachel	8	Panajachel	3	Marzo	2023-08-03T00:00:00	2024-11-08T23:00:00	2	Temperatura media	16.8
24046	7	Sololá	710	Panajachel	8	Panajachel	3	Marzo	2023-08-03T00:00:00	2024-11-08T23:00:00	4	Temperatura máxima	17.3
24047	7	Sololá	710	Panajachel	8	Panajachel	3	Marzo	2023-08-03T00:00:00	2024-11-08T23:00:00	3	Temperatura mínima	16.7
24048	7	Sololá	710	Panajachel	8	Panajachel	3	Marzo	2023-08-03T00:00:00	2024-11-08T23:00:00	5	Humedad	80
24049	7	Sololá	710	Panajachel	8	Panajachel	3	Marzo	2023-08-03T00:00:00	2024-11-08T23:00:00	6	Velocidad del viento	3.2
24050	7	Sololá	710	Panajachel	8	Panajachel	3	Marzo	2023-08-03T00:00:00	2024-11-08T23:00:00	7	Dirección del viento	3.22
24051	7	Sololá	710	Panajachel	8	Panajachel	3	Marzo	2023-08-03T00:00:00	2024-11-08T23:00:00	1	Precipitación	0
24052	7	Sololá	710	Panajachel	8	Panajachel	3	Marzo	2023-08-03T00:00:00	2024-11-08T23:00:00	8	Radiación solar	0
24053	7	Sololá	710	Panajachel	8	Panajachel	3	Marzo	2023-09-03T00:00:00	2024-11-08T00:00:00	2	Temperatura media	16.4
24054	7	Sololá	710	Panajachel	8	Panajachel	3	Marzo	2023-09-03T00:00:00	2024-11-08T00:00:00	4	Temperatura máxima	16.8
24055	7	Sololá	710	Panajachel	8	Panajachel	3	Marzo	2023-09-03T00:00:00	2024-11-08T00:00:00	3	Temperatura mínima	16.3
24056	7	Sololá	710	Panajachel	8	Panajachel	3	Marzo	2023-09-03T00:00:00	2024-11-08T00:00:00	5	Humedad	76
24057	7	Sololá	710	Panajachel	8	Panajachel	3	Marzo	2023-09-03T00:00:00	2024-11-08T00:00:00	6	Velocidad del viento	3.2
24058	7	Sololá	710	Panajachel	8	Panajachel	3	Marzo	2023-09-03T00:00:00	2024-11-08T00:00:00	7	Dirección del viento	3.22
24059	7	Sololá	710	Panajachel	8	Panajachel	3	Marzo	2023-09-03T00:00:00	2024-11-08T00:00:00	1	Precipitación	0
24060	7	Sololá	710	Panajachel	8	Panajachel	3	Marzo	2023-09-03T00:00:00	2024-11-08T00:00:00	8	Radiación solar	0
24061	7	Sololá	710	Panajachel	8	Panajachel	3	Marzo	2023-09-03T00:00:00	2024-11-08T01:00:00	2	Temperatura media	15.7
24062	7	Sololá	710	Panajachel	8	Panajachel	3	Marzo	2023-09-03T00:00:00	2024-11-08T01:00:00	4	Temperatura máxima	16.4
24063	7	Sololá	710	Panajachel	8	Panajachel	3	Marzo	2023-09-03T00:00:00	2024-11-08T01:00:00	3	Temperatura mínima	15.7
24064	7	Sololá	710	Panajachel	8	Panajachel	3	Marzo	2023-09-03T00:00:00	2024-11-08T01:00:00	5	Humedad	73
24065	7	Sololá	710	Panajachel	8	Panajachel	3	Marzo	2023-09-03T00:00:00	2024-11-08T01:00:00	6	Velocidad del viento	4.8
24066	7	Sololá	710	Panajachel	8	Panajachel	3	Marzo	2023-09-03T00:00:00	2024-11-08T01:00:00	7	Dirección del viento	4.83
24067	7	Sololá	710	Panajachel	8	Panajachel	3	Marzo	2023-09-03T00:00:00	2024-11-08T01:00:00	1	Precipitación	0
24068	7	Sololá	710	Panajachel	8	Panajachel	3	Marzo	2023-09-03T00:00:00	2024-11-08T01:00:00	8	Radiación solar	0
24069	7	Sololá	710	Panajachel	8	Panajachel	3	Marzo	2023-09-03T00:00:00	2024-11-08T02:00:00	2	Temperatura media	15.4
24070	7	Sololá	710	Panajachel	8	Panajachel	3	Marzo	2023-09-03T00:00:00	2024-11-08T02:00:00	4	Temperatura máxima	15.7
24071	7	Sololá	710	Panajachel	8	Panajachel	3	Marzo	2023-09-03T00:00:00	2024-11-08T02:00:00	3	Temperatura mínima	15.4
24072	7	Sololá	710	Panajachel	8	Panajachel	3	Marzo	2023-09-03T00:00:00	2024-11-08T02:00:00	5	Humedad	66
24073	7	Sololá	710	Panajachel	8	Panajachel	3	Marzo	2023-09-03T00:00:00	2024-11-08T02:00:00	6	Velocidad del viento	4.8
24074	7	Sololá	710	Panajachel	8	Panajachel	3	Marzo	2023-09-03T00:00:00	2024-11-08T02:00:00	7	Dirección del viento	4.83
24075	7	Sololá	710	Panajachel	8	Panajachel	3	Marzo	2023-09-03T00:00:00	2024-11-08T02:00:00	1	Precipitación	0
24076	7	Sololá	710	Panajachel	8	Panajachel	3	Marzo	2023-09-03T00:00:00	2024-11-08T02:00:00	8	Radiación solar	0
24077	7	Sololá	710	Panajachel	8	Panajachel	3	Marzo	2023-09-03T00:00:00	2024-11-08T03:00:00	2	Temperatura media	15.4
24078	7	Sololá	710	Panajachel	8	Panajachel	3	Marzo	2023-09-03T00:00:00	2024-11-08T03:00:00	4	Temperatura máxima	15.6
24079	7	Sololá	710	Panajachel	8	Panajachel	3	Marzo	2023-09-03T00:00:00	2024-11-08T03:00:00	3	Temperatura mínima	15.3
24080	7	Sololá	710	Panajachel	8	Panajachel	3	Marzo	2023-09-03T00:00:00	2024-11-08T03:00:00	5	Humedad	67
24081	7	Sololá	710	Panajachel	8	Panajachel	3	Marzo	2023-09-03T00:00:00	2024-11-08T03:00:00	6	Velocidad del viento	4.8
24082	7	Sololá	710	Panajachel	8	Panajachel	3	Marzo	2023-09-03T00:00:00	2024-11-08T03:00:00	7	Dirección del viento	4.83
24083	7	Sololá	710	Panajachel	8	Panajachel	3	Marzo	2023-09-03T00:00:00	2024-11-08T03:00:00	1	Precipitación	0
24084	7	Sololá	710	Panajachel	8	Panajachel	3	Marzo	2023-09-03T00:00:00	2024-11-08T03:00:00	8	Radiación solar	0
24085	7	Sololá	710	Panajachel	8	Panajachel	3	Marzo	2023-09-03T00:00:00	2024-11-08T04:00:00	2	Temperatura media	15.1
24086	7	Sololá	710	Panajachel	8	Panajachel	3	Marzo	2023-09-03T00:00:00	2024-11-08T04:00:00	4	Temperatura máxima	15.4
24087	7	Sololá	710	Panajachel	8	Panajachel	3	Marzo	2023-09-03T00:00:00	2024-11-08T04:00:00	3	Temperatura mínima	15.1
24088	7	Sololá	710	Panajachel	8	Panajachel	3	Marzo	2023-09-03T00:00:00	2024-11-08T04:00:00	5	Humedad	71
24089	7	Sololá	710	Panajachel	8	Panajachel	3	Marzo	2023-09-03T00:00:00	2024-11-08T04:00:00	6	Velocidad del viento	3.2
24090	7	Sololá	710	Panajachel	8	Panajachel	3	Marzo	2023-09-03T00:00:00	2024-11-08T04:00:00	7	Dirección del viento	3.22
24091	7	Sololá	710	Panajachel	8	Panajachel	3	Marzo	2023-09-03T00:00:00	2024-11-08T04:00:00	1	Precipitación	0
24092	7	Sololá	710	Panajachel	8	Panajachel	3	Marzo	2023-09-03T00:00:00	2024-11-08T04:00:00	8	Radiación solar	0
24093	7	Sololá	710	Panajachel	8	Panajachel	3	Marzo	2023-09-03T00:00:00	2024-11-08T05:00:00	2	Temperatura media	14.6
24094	7	Sololá	710	Panajachel	8	Panajachel	3	Marzo	2023-09-03T00:00:00	2024-11-08T05:00:00	4	Temperatura máxima	15.2
24095	7	Sololá	710	Panajachel	8	Panajachel	3	Marzo	2023-09-03T00:00:00	2024-11-08T05:00:00	3	Temperatura mínima	14.6
24096	7	Sololá	710	Panajachel	8	Panajachel	3	Marzo	2023-09-03T00:00:00	2024-11-08T05:00:00	5	Humedad	72
24097	7	Sololá	710	Panajachel	8	Panajachel	3	Marzo	2023-09-03T00:00:00	2024-11-08T05:00:00	6	Velocidad del viento	6.4
24098	7	Sololá	710	Panajachel	8	Panajachel	3	Marzo	2023-09-03T00:00:00	2024-11-08T05:00:00	7	Dirección del viento	6.44
24099	7	Sololá	710	Panajachel	8	Panajachel	3	Marzo	2023-09-03T00:00:00	2024-11-08T05:00:00	1	Precipitación	0
24100	7	Sololá	710	Panajachel	8	Panajachel	3	Marzo	2023-09-03T00:00:00	2024-11-08T05:00:00	8	Radiación solar	0
24101	7	Sololá	710	Panajachel	8	Panajachel	3	Marzo	2023-09-03T00:00:00	2024-11-08T06:00:00	2	Temperatura media	14.6
24102	7	Sololá	710	Panajachel	8	Panajachel	3	Marzo	2023-09-03T00:00:00	2024-11-08T06:00:00	4	Temperatura máxima	14.6
24103	7	Sololá	710	Panajachel	8	Panajachel	3	Marzo	2023-09-03T00:00:00	2024-11-08T06:00:00	3	Temperatura mínima	14.3
24104	7	Sololá	710	Panajachel	8	Panajachel	3	Marzo	2023-09-03T00:00:00	2024-11-08T06:00:00	5	Humedad	73
24105	7	Sololá	710	Panajachel	8	Panajachel	3	Marzo	2023-09-03T00:00:00	2024-11-08T06:00:00	6	Velocidad del viento	6.4
24106	7	Sololá	710	Panajachel	8	Panajachel	3	Marzo	2023-09-03T00:00:00	2024-11-08T06:00:00	7	Dirección del viento	6.44
24107	7	Sololá	710	Panajachel	8	Panajachel	3	Marzo	2023-09-03T00:00:00	2024-11-08T06:00:00	1	Precipitación	0
24108	7	Sololá	710	Panajachel	8	Panajachel	3	Marzo	2023-09-03T00:00:00	2024-11-08T06:00:00	8	Radiación solar	0
24109	7	Sololá	710	Panajachel	8	Panajachel	3	Marzo	2023-09-03T00:00:00	2024-11-08T07:00:00	2	Temperatura media	15.2
24110	7	Sololá	710	Panajachel	8	Panajachel	3	Marzo	2023-09-03T00:00:00	2024-11-08T07:00:00	4	Temperatura máxima	15.2
24111	7	Sololá	710	Panajachel	8	Panajachel	3	Marzo	2023-09-03T00:00:00	2024-11-08T07:00:00	3	Temperatura mínima	14.4
24112	7	Sololá	710	Panajachel	8	Panajachel	3	Marzo	2023-09-03T00:00:00	2024-11-08T07:00:00	5	Humedad	73
24113	7	Sololá	710	Panajachel	8	Panajachel	3	Marzo	2023-09-03T00:00:00	2024-11-08T07:00:00	6	Velocidad del viento	4.8
24114	7	Sololá	710	Panajachel	8	Panajachel	3	Marzo	2023-09-03T00:00:00	2024-11-08T07:00:00	7	Dirección del viento	4.83
24115	7	Sololá	710	Panajachel	8	Panajachel	3	Marzo	2023-09-03T00:00:00	2024-11-08T07:00:00	1	Precipitación	0
24116	7	Sololá	710	Panajachel	8	Panajachel	3	Marzo	2023-09-03T00:00:00	2024-11-08T07:00:00	8	Radiación solar	23
24117	7	Sololá	710	Panajachel	8	Panajachel	3	Marzo	2023-09-03T00:00:00	2024-11-08T08:00:00	2	Temperatura media	16.9
24118	7	Sololá	710	Panajachel	8	Panajachel	3	Marzo	2023-09-03T00:00:00	2024-11-08T08:00:00	4	Temperatura máxima	16.9
24119	7	Sololá	710	Panajachel	8	Panajachel	3	Marzo	2023-09-03T00:00:00	2024-11-08T08:00:00	3	Temperatura mínima	15.2
24120	7	Sololá	710	Panajachel	8	Panajachel	3	Marzo	2023-09-03T00:00:00	2024-11-08T08:00:00	5	Humedad	69
24121	7	Sololá	710	Panajachel	8	Panajachel	3	Marzo	2023-09-03T00:00:00	2024-11-08T08:00:00	6	Velocidad del viento	3.2
24122	7	Sololá	710	Panajachel	8	Panajachel	3	Marzo	2023-09-03T00:00:00	2024-11-08T08:00:00	7	Dirección del viento	3.22
24123	7	Sololá	710	Panajachel	8	Panajachel	3	Marzo	2023-09-03T00:00:00	2024-11-08T08:00:00	1	Precipitación	0
24124	7	Sololá	710	Panajachel	8	Panajachel	3	Marzo	2023-09-03T00:00:00	2024-11-08T08:00:00	8	Radiación solar	130
24125	7	Sololá	710	Panajachel	8	Panajachel	3	Marzo	2023-09-03T00:00:00	2024-11-08T09:00:00	2	Temperatura media	19.6
24126	7	Sololá	710	Panajachel	8	Panajachel	3	Marzo	2023-09-03T00:00:00	2024-11-08T09:00:00	4	Temperatura máxima	19.6
24127	7	Sololá	710	Panajachel	8	Panajachel	3	Marzo	2023-09-03T00:00:00	2024-11-08T09:00:00	3	Temperatura mínima	16.9
24128	7	Sololá	710	Panajachel	8	Panajachel	3	Marzo	2023-09-03T00:00:00	2024-11-08T09:00:00	5	Humedad	69
24129	7	Sololá	710	Panajachel	8	Panajachel	3	Marzo	2023-09-03T00:00:00	2024-11-08T09:00:00	6	Velocidad del viento	0
24130	7	Sololá	710	Panajachel	8	Panajachel	3	Marzo	2023-09-03T00:00:00	2024-11-08T09:00:00	7	Dirección del viento	0
24131	7	Sololá	710	Panajachel	8	Panajachel	3	Marzo	2023-09-03T00:00:00	2024-11-08T09:00:00	1	Precipitación	0
24132	7	Sololá	710	Panajachel	8	Panajachel	3	Marzo	2023-09-03T00:00:00	2024-11-08T09:00:00	8	Radiación solar	361
24133	7	Sololá	710	Panajachel	8	Panajachel	3	Marzo	2023-09-03T00:00:00	2024-11-08T10:00:00	2	Temperatura media	20.2
24134	7	Sololá	710	Panajachel	8	Panajachel	3	Marzo	2023-09-03T00:00:00	2024-11-08T10:00:00	4	Temperatura máxima	20.3
24135	7	Sololá	710	Panajachel	8	Panajachel	3	Marzo	2023-09-03T00:00:00	2024-11-08T10:00:00	3	Temperatura mínima	19.4
24136	7	Sololá	710	Panajachel	8	Panajachel	3	Marzo	2023-09-03T00:00:00	2024-11-08T10:00:00	5	Humedad	69
24137	7	Sololá	710	Panajachel	8	Panajachel	3	Marzo	2023-09-03T00:00:00	2024-11-08T10:00:00	6	Velocidad del viento	3.2
24138	7	Sololá	710	Panajachel	8	Panajachel	3	Marzo	2023-09-03T00:00:00	2024-11-08T10:00:00	7	Dirección del viento	3.22
24139	7	Sololá	710	Panajachel	8	Panajachel	3	Marzo	2023-09-03T00:00:00	2024-11-08T10:00:00	1	Precipitación	0
24140	7	Sololá	710	Panajachel	8	Panajachel	3	Marzo	2023-09-03T00:00:00	2024-11-08T10:00:00	8	Radiación solar	615
24141	7	Sololá	710	Panajachel	8	Panajachel	3	Marzo	2023-09-03T00:00:00	2024-11-08T11:00:00	2	Temperatura media	21.2
24142	7	Sololá	710	Panajachel	8	Panajachel	3	Marzo	2023-09-03T00:00:00	2024-11-08T11:00:00	4	Temperatura máxima	21.2
24143	7	Sololá	710	Panajachel	8	Panajachel	3	Marzo	2023-09-03T00:00:00	2024-11-08T11:00:00	3	Temperatura mínima	19.7
24144	7	Sololá	710	Panajachel	8	Panajachel	3	Marzo	2023-09-03T00:00:00	2024-11-08T11:00:00	5	Humedad	69
24145	7	Sololá	710	Panajachel	8	Panajachel	3	Marzo	2023-09-03T00:00:00	2024-11-08T11:00:00	6	Velocidad del viento	3.2
24146	7	Sololá	710	Panajachel	8	Panajachel	3	Marzo	2023-09-03T00:00:00	2024-11-08T11:00:00	7	Dirección del viento	3.22
24147	7	Sololá	710	Panajachel	8	Panajachel	3	Marzo	2023-09-03T00:00:00	2024-11-08T11:00:00	1	Precipitación	0
24148	7	Sololá	710	Panajachel	8	Panajachel	3	Marzo	2023-09-03T00:00:00	2024-11-08T11:00:00	8	Radiación solar	761
24149	7	Sololá	710	Panajachel	8	Panajachel	3	Marzo	2023-09-03T00:00:00	2024-11-08T12:00:00	2	Temperatura media	20.8
24150	7	Sololá	710	Panajachel	8	Panajachel	3	Marzo	2023-09-03T00:00:00	2024-11-08T12:00:00	4	Temperatura máxima	22.4
24151	7	Sololá	710	Panajachel	8	Panajachel	3	Marzo	2023-09-03T00:00:00	2024-11-08T12:00:00	3	Temperatura mínima	20.6
24152	7	Sololá	710	Panajachel	8	Panajachel	3	Marzo	2023-09-03T00:00:00	2024-11-08T12:00:00	5	Humedad	72
24153	7	Sololá	710	Panajachel	8	Panajachel	3	Marzo	2023-09-03T00:00:00	2024-11-08T12:00:00	6	Velocidad del viento	4.8
24154	7	Sololá	710	Panajachel	8	Panajachel	3	Marzo	2023-09-03T00:00:00	2024-11-08T12:00:00	7	Dirección del viento	4.83
24155	7	Sololá	710	Panajachel	8	Panajachel	3	Marzo	2023-09-03T00:00:00	2024-11-08T12:00:00	1	Precipitación	0
24156	7	Sololá	710	Panajachel	8	Panajachel	3	Marzo	2023-09-03T00:00:00	2024-11-08T12:00:00	8	Radiación solar	876
24157	7	Sololá	710	Panajachel	8	Panajachel	3	Marzo	2023-09-03T00:00:00	2024-11-08T13:00:00	2	Temperatura media	22.1
24158	7	Sololá	710	Panajachel	8	Panajachel	3	Marzo	2023-09-03T00:00:00	2024-11-08T13:00:00	4	Temperatura máxima	22.2
24159	7	Sololá	710	Panajachel	8	Panajachel	3	Marzo	2023-09-03T00:00:00	2024-11-08T13:00:00	3	Temperatura mínima	20.8
24160	7	Sololá	710	Panajachel	8	Panajachel	3	Marzo	2023-09-03T00:00:00	2024-11-08T13:00:00	5	Humedad	75
24161	7	Sololá	710	Panajachel	8	Panajachel	3	Marzo	2023-09-03T00:00:00	2024-11-08T13:00:00	6	Velocidad del viento	6.4
24162	7	Sololá	710	Panajachel	8	Panajachel	3	Marzo	2023-09-03T00:00:00	2024-11-08T13:00:00	7	Dirección del viento	6.44
24163	7	Sololá	710	Panajachel	8	Panajachel	3	Marzo	2023-09-03T00:00:00	2024-11-08T13:00:00	1	Precipitación	0
24164	7	Sololá	710	Panajachel	8	Panajachel	3	Marzo	2023-09-03T00:00:00	2024-11-08T13:00:00	8	Radiación solar	896
24165	7	Sololá	710	Panajachel	8	Panajachel	3	Marzo	2023-09-03T00:00:00	2024-11-08T14:00:00	2	Temperatura media	21.4
24166	7	Sololá	710	Panajachel	8	Panajachel	3	Marzo	2023-09-03T00:00:00	2024-11-08T14:00:00	4	Temperatura máxima	22.2
24167	7	Sololá	710	Panajachel	8	Panajachel	3	Marzo	2023-09-03T00:00:00	2024-11-08T14:00:00	3	Temperatura mínima	21.1
24168	7	Sololá	710	Panajachel	8	Panajachel	3	Marzo	2023-09-03T00:00:00	2024-11-08T14:00:00	5	Humedad	79
24169	7	Sololá	710	Panajachel	8	Panajachel	3	Marzo	2023-09-03T00:00:00	2024-11-08T14:00:00	6	Velocidad del viento	6.4
24170	7	Sololá	710	Panajachel	8	Panajachel	3	Marzo	2023-09-03T00:00:00	2024-11-08T14:00:00	7	Dirección del viento	6.44
24171	7	Sololá	710	Panajachel	8	Panajachel	3	Marzo	2023-09-03T00:00:00	2024-11-08T14:00:00	1	Precipitación	0
24172	7	Sololá	710	Panajachel	8	Panajachel	3	Marzo	2023-09-03T00:00:00	2024-11-08T14:00:00	8	Radiación solar	457
24173	7	Sololá	710	Panajachel	8	Panajachel	3	Marzo	2023-09-03T00:00:00	2024-11-08T15:00:00	2	Temperatura media	22.3
24174	7	Sololá	710	Panajachel	8	Panajachel	3	Marzo	2023-09-03T00:00:00	2024-11-08T15:00:00	4	Temperatura máxima	22.4
24175	7	Sololá	710	Panajachel	8	Panajachel	3	Marzo	2023-09-03T00:00:00	2024-11-08T15:00:00	3	Temperatura mínima	21.4
24176	7	Sololá	710	Panajachel	8	Panajachel	3	Marzo	2023-09-03T00:00:00	2024-11-08T15:00:00	5	Humedad	75
24177	7	Sololá	710	Panajachel	8	Panajachel	3	Marzo	2023-09-03T00:00:00	2024-11-08T15:00:00	6	Velocidad del viento	4.8
24178	7	Sololá	710	Panajachel	8	Panajachel	3	Marzo	2023-09-03T00:00:00	2024-11-08T15:00:00	7	Dirección del viento	4.83
24179	7	Sololá	710	Panajachel	8	Panajachel	3	Marzo	2023-09-03T00:00:00	2024-11-08T15:00:00	1	Precipitación	0
24180	7	Sololá	710	Panajachel	8	Panajachel	3	Marzo	2023-09-03T00:00:00	2024-11-08T15:00:00	8	Radiación solar	635
24181	7	Sololá	710	Panajachel	8	Panajachel	3	Marzo	2023-09-03T00:00:00	2024-11-08T16:00:00	2	Temperatura media	21.2
24182	7	Sololá	710	Panajachel	8	Panajachel	3	Marzo	2023-09-03T00:00:00	2024-11-08T16:00:00	4	Temperatura máxima	22.3
24183	7	Sololá	710	Panajachel	8	Panajachel	3	Marzo	2023-09-03T00:00:00	2024-11-08T16:00:00	3	Temperatura mínima	21.2
24184	7	Sololá	710	Panajachel	8	Panajachel	3	Marzo	2023-09-03T00:00:00	2024-11-08T16:00:00	5	Humedad	78
24185	7	Sololá	710	Panajachel	8	Panajachel	3	Marzo	2023-09-03T00:00:00	2024-11-08T16:00:00	6	Velocidad del viento	4.8
24186	7	Sololá	710	Panajachel	8	Panajachel	3	Marzo	2023-09-03T00:00:00	2024-11-08T16:00:00	7	Dirección del viento	4.83
24187	7	Sololá	710	Panajachel	8	Panajachel	3	Marzo	2023-09-03T00:00:00	2024-11-08T16:00:00	1	Precipitación	0
24188	7	Sololá	710	Panajachel	8	Panajachel	3	Marzo	2023-09-03T00:00:00	2024-11-08T16:00:00	8	Radiación solar	298
24189	7	Sololá	710	Panajachel	8	Panajachel	3	Marzo	2023-09-03T00:00:00	2024-11-08T17:00:00	2	Temperatura media	20.8
24190	7	Sololá	710	Panajachel	8	Panajachel	3	Marzo	2023-09-03T00:00:00	2024-11-08T17:00:00	4	Temperatura máxima	21.7
24191	7	Sololá	710	Panajachel	8	Panajachel	3	Marzo	2023-09-03T00:00:00	2024-11-08T17:00:00	3	Temperatura mínima	20.8
24192	7	Sololá	710	Panajachel	8	Panajachel	3	Marzo	2023-09-03T00:00:00	2024-11-08T17:00:00	5	Humedad	82
24193	7	Sololá	710	Panajachel	8	Panajachel	3	Marzo	2023-09-03T00:00:00	2024-11-08T17:00:00	6	Velocidad del viento	3.2
24194	7	Sololá	710	Panajachel	8	Panajachel	3	Marzo	2023-09-03T00:00:00	2024-11-08T17:00:00	7	Dirección del viento	3.22
24195	7	Sololá	710	Panajachel	8	Panajachel	3	Marzo	2023-09-03T00:00:00	2024-11-08T17:00:00	1	Precipitación	0
24196	7	Sololá	710	Panajachel	8	Panajachel	3	Marzo	2023-09-03T00:00:00	2024-11-08T17:00:00	8	Radiación solar	163
24197	7	Sololá	710	Panajachel	8	Panajachel	3	Marzo	2023-09-03T00:00:00	2024-11-08T18:00:00	2	Temperatura media	20.2
24198	7	Sololá	710	Panajachel	8	Panajachel	3	Marzo	2023-09-03T00:00:00	2024-11-08T18:00:00	4	Temperatura máxima	20.8
24199	7	Sololá	710	Panajachel	8	Panajachel	3	Marzo	2023-09-03T00:00:00	2024-11-08T18:00:00	3	Temperatura mínima	20.2
24200	7	Sololá	710	Panajachel	8	Panajachel	3	Marzo	2023-09-03T00:00:00	2024-11-08T18:00:00	5	Humedad	85
24201	7	Sololá	710	Panajachel	8	Panajachel	3	Marzo	2023-09-03T00:00:00	2024-11-08T18:00:00	6	Velocidad del viento	4.8
24202	7	Sololá	710	Panajachel	8	Panajachel	3	Marzo	2023-09-03T00:00:00	2024-11-08T18:00:00	7	Dirección del viento	4.83
24203	7	Sololá	710	Panajachel	8	Panajachel	3	Marzo	2023-09-03T00:00:00	2024-11-08T18:00:00	1	Precipitación	0
24204	7	Sololá	710	Panajachel	8	Panajachel	3	Marzo	2023-09-03T00:00:00	2024-11-08T18:00:00	8	Radiación solar	59
24205	7	Sololá	710	Panajachel	8	Panajachel	3	Marzo	2023-09-03T00:00:00	2024-11-08T19:00:00	2	Temperatura media	19.3
24206	7	Sololá	710	Panajachel	8	Panajachel	3	Marzo	2023-09-03T00:00:00	2024-11-08T19:00:00	4	Temperatura máxima	20.2
24207	7	Sololá	710	Panajachel	8	Panajachel	3	Marzo	2023-09-03T00:00:00	2024-11-08T19:00:00	3	Temperatura mínima	19.3
24208	7	Sololá	710	Panajachel	8	Panajachel	3	Marzo	2023-09-03T00:00:00	2024-11-08T19:00:00	5	Humedad	89
24209	7	Sololá	710	Panajachel	8	Panajachel	3	Marzo	2023-09-03T00:00:00	2024-11-08T19:00:00	6	Velocidad del viento	3.2
24210	7	Sololá	710	Panajachel	8	Panajachel	3	Marzo	2023-09-03T00:00:00	2024-11-08T19:00:00	7	Dirección del viento	3.22
24211	7	Sololá	710	Panajachel	8	Panajachel	3	Marzo	2023-09-03T00:00:00	2024-11-08T19:00:00	1	Precipitación	0
24212	7	Sololá	710	Panajachel	8	Panajachel	3	Marzo	2023-09-03T00:00:00	2024-11-08T19:00:00	8	Radiación solar	0
24213	7	Sololá	710	Panajachel	8	Panajachel	3	Marzo	2023-09-03T00:00:00	2024-11-08T20:00:00	2	Temperatura media	18.9
24214	7	Sololá	710	Panajachel	8	Panajachel	3	Marzo	2023-09-03T00:00:00	2024-11-08T20:00:00	4	Temperatura máxima	19.3
24215	7	Sololá	710	Panajachel	8	Panajachel	3	Marzo	2023-09-03T00:00:00	2024-11-08T20:00:00	3	Temperatura mínima	18.9
24216	7	Sololá	710	Panajachel	8	Panajachel	3	Marzo	2023-09-03T00:00:00	2024-11-08T20:00:00	5	Humedad	90
24217	7	Sololá	710	Panajachel	8	Panajachel	3	Marzo	2023-09-03T00:00:00	2024-11-08T20:00:00	6	Velocidad del viento	3.2
24218	7	Sololá	710	Panajachel	8	Panajachel	3	Marzo	2023-09-03T00:00:00	2024-11-08T20:00:00	7	Dirección del viento	3.22
24219	7	Sololá	710	Panajachel	8	Panajachel	3	Marzo	2023-09-03T00:00:00	2024-11-08T20:00:00	1	Precipitación	0
24220	7	Sololá	710	Panajachel	8	Panajachel	3	Marzo	2023-09-03T00:00:00	2024-11-08T20:00:00	8	Radiación solar	0
24221	7	Sololá	710	Panajachel	8	Panajachel	3	Marzo	2023-09-03T00:00:00	2024-11-08T21:00:00	2	Temperatura media	18.4
24222	7	Sololá	710	Panajachel	8	Panajachel	3	Marzo	2023-09-03T00:00:00	2024-11-08T21:00:00	4	Temperatura máxima	18.9
24223	7	Sololá	710	Panajachel	8	Panajachel	3	Marzo	2023-09-03T00:00:00	2024-11-08T21:00:00	3	Temperatura mínima	18.4
24224	7	Sololá	710	Panajachel	8	Panajachel	3	Marzo	2023-09-03T00:00:00	2024-11-08T21:00:00	5	Humedad	89
24225	7	Sololá	710	Panajachel	8	Panajachel	3	Marzo	2023-09-03T00:00:00	2024-11-08T21:00:00	6	Velocidad del viento	3.2
24226	7	Sololá	710	Panajachel	8	Panajachel	3	Marzo	2023-09-03T00:00:00	2024-11-08T21:00:00	7	Dirección del viento	3.22
24227	7	Sololá	710	Panajachel	8	Panajachel	3	Marzo	2023-09-03T00:00:00	2024-11-08T21:00:00	1	Precipitación	0
24228	7	Sololá	710	Panajachel	8	Panajachel	3	Marzo	2023-09-03T00:00:00	2024-11-08T21:00:00	8	Radiación solar	0
24229	7	Sololá	710	Panajachel	8	Panajachel	3	Marzo	2023-09-03T00:00:00	2024-11-08T22:00:00	2	Temperatura media	18
24230	7	Sololá	710	Panajachel	8	Panajachel	3	Marzo	2023-09-03T00:00:00	2024-11-08T22:00:00	4	Temperatura máxima	18.4
24231	7	Sololá	710	Panajachel	8	Panajachel	3	Marzo	2023-09-03T00:00:00	2024-11-08T22:00:00	3	Temperatura mínima	17.9
24232	7	Sololá	710	Panajachel	8	Panajachel	3	Marzo	2023-09-03T00:00:00	2024-11-08T22:00:00	5	Humedad	89
24233	7	Sololá	710	Panajachel	8	Panajachel	3	Marzo	2023-09-03T00:00:00	2024-11-08T22:00:00	6	Velocidad del viento	1.6
24234	7	Sololá	710	Panajachel	8	Panajachel	3	Marzo	2023-09-03T00:00:00	2024-11-08T22:00:00	7	Dirección del viento	1.61
24235	7	Sololá	710	Panajachel	8	Panajachel	3	Marzo	2023-09-03T00:00:00	2024-11-08T22:00:00	1	Precipitación	0
24236	7	Sololá	710	Panajachel	8	Panajachel	3	Marzo	2023-09-03T00:00:00	2024-11-08T22:00:00	8	Radiación solar	0
24237	7	Sololá	710	Panajachel	8	Panajachel	3	Marzo	2023-09-03T00:00:00	2024-11-08T23:00:00	2	Temperatura media	16.3
24238	7	Sololá	710	Panajachel	8	Panajachel	3	Marzo	2023-09-03T00:00:00	2024-11-08T23:00:00	4	Temperatura máxima	18
24239	7	Sololá	710	Panajachel	8	Panajachel	3	Marzo	2023-09-03T00:00:00	2024-11-08T23:00:00	3	Temperatura mínima	16.3
24240	7	Sololá	710	Panajachel	8	Panajachel	3	Marzo	2023-09-03T00:00:00	2024-11-08T23:00:00	5	Humedad	81
24241	7	Sololá	710	Panajachel	8	Panajachel	3	Marzo	2023-09-03T00:00:00	2024-11-08T23:00:00	6	Velocidad del viento	3.2
24242	7	Sololá	710	Panajachel	8	Panajachel	3	Marzo	2023-09-03T00:00:00	2024-11-08T23:00:00	7	Dirección del viento	3.22
24243	7	Sololá	710	Panajachel	8	Panajachel	3	Marzo	2023-09-03T00:00:00	2024-11-08T23:00:00	1	Precipitación	0
24244	7	Sololá	710	Panajachel	8	Panajachel	3	Marzo	2023-09-03T00:00:00	2024-11-08T23:00:00	8	Radiación solar	0
24245	7	Sololá	710	Panajachel	8	Panajachel	3	Marzo	2023-10-03T00:00:00	2024-11-08T00:00:00	2	Temperatura media	16.1
24246	7	Sololá	710	Panajachel	8	Panajachel	3	Marzo	2023-10-03T00:00:00	2024-11-08T00:00:00	4	Temperatura máxima	16.3
24247	7	Sololá	710	Panajachel	8	Panajachel	3	Marzo	2023-10-03T00:00:00	2024-11-08T00:00:00	3	Temperatura mínima	15.9
24248	7	Sololá	710	Panajachel	8	Panajachel	3	Marzo	2023-10-03T00:00:00	2024-11-08T00:00:00	5	Humedad	80
24249	7	Sololá	710	Panajachel	8	Panajachel	3	Marzo	2023-10-03T00:00:00	2024-11-08T00:00:00	6	Velocidad del viento	3.2
24250	7	Sololá	710	Panajachel	8	Panajachel	3	Marzo	2023-10-03T00:00:00	2024-11-08T00:00:00	7	Dirección del viento	3.22
24251	7	Sololá	710	Panajachel	8	Panajachel	3	Marzo	2023-10-03T00:00:00	2024-11-08T00:00:00	1	Precipitación	0
24252	7	Sololá	710	Panajachel	8	Panajachel	3	Marzo	2023-10-03T00:00:00	2024-11-08T00:00:00	8	Radiación solar	0
24253	7	Sololá	710	Panajachel	8	Panajachel	3	Marzo	2023-10-03T00:00:00	2024-11-08T01:00:00	2	Temperatura media	15.3
24254	7	Sololá	710	Panajachel	8	Panajachel	3	Marzo	2023-10-03T00:00:00	2024-11-08T01:00:00	4	Temperatura máxima	16.1
24255	7	Sololá	710	Panajachel	8	Panajachel	3	Marzo	2023-10-03T00:00:00	2024-11-08T01:00:00	3	Temperatura mínima	15.3
24256	7	Sololá	710	Panajachel	8	Panajachel	3	Marzo	2023-10-03T00:00:00	2024-11-08T01:00:00	5	Humedad	83
24257	7	Sololá	710	Panajachel	8	Panajachel	3	Marzo	2023-10-03T00:00:00	2024-11-08T01:00:00	6	Velocidad del viento	3.2
24258	7	Sololá	710	Panajachel	8	Panajachel	3	Marzo	2023-10-03T00:00:00	2024-11-08T01:00:00	7	Dirección del viento	3.22
24259	7	Sololá	710	Panajachel	8	Panajachel	3	Marzo	2023-10-03T00:00:00	2024-11-08T01:00:00	1	Precipitación	0
24260	7	Sololá	710	Panajachel	8	Panajachel	3	Marzo	2023-10-03T00:00:00	2024-11-08T01:00:00	8	Radiación solar	0
24261	7	Sololá	710	Panajachel	8	Panajachel	3	Marzo	2023-10-03T00:00:00	2024-11-08T02:00:00	2	Temperatura media	15.2
24262	7	Sololá	710	Panajachel	8	Panajachel	3	Marzo	2023-10-03T00:00:00	2024-11-08T02:00:00	4	Temperatura máxima	15.4
24263	7	Sololá	710	Panajachel	8	Panajachel	3	Marzo	2023-10-03T00:00:00	2024-11-08T02:00:00	3	Temperatura mínima	15.2
24264	7	Sololá	710	Panajachel	8	Panajachel	3	Marzo	2023-10-03T00:00:00	2024-11-08T02:00:00	5	Humedad	82
24265	7	Sololá	710	Panajachel	8	Panajachel	3	Marzo	2023-10-03T00:00:00	2024-11-08T02:00:00	6	Velocidad del viento	3.2
24266	7	Sololá	710	Panajachel	8	Panajachel	3	Marzo	2023-10-03T00:00:00	2024-11-08T02:00:00	7	Dirección del viento	3.22
24267	7	Sololá	710	Panajachel	8	Panajachel	3	Marzo	2023-10-03T00:00:00	2024-11-08T02:00:00	1	Precipitación	0
24268	7	Sololá	710	Panajachel	8	Panajachel	3	Marzo	2023-10-03T00:00:00	2024-11-08T02:00:00	8	Radiación solar	0
24269	7	Sololá	710	Panajachel	8	Panajachel	3	Marzo	2023-10-03T00:00:00	2024-11-08T03:00:00	2	Temperatura media	15.3
24270	7	Sololá	710	Panajachel	8	Panajachel	3	Marzo	2023-10-03T00:00:00	2024-11-08T03:00:00	4	Temperatura máxima	15.6
24271	7	Sololá	710	Panajachel	8	Panajachel	3	Marzo	2023-10-03T00:00:00	2024-11-08T03:00:00	3	Temperatura mínima	15.1
24272	7	Sololá	710	Panajachel	8	Panajachel	3	Marzo	2023-10-03T00:00:00	2024-11-08T03:00:00	5	Humedad	81
24273	7	Sololá	710	Panajachel	8	Panajachel	3	Marzo	2023-10-03T00:00:00	2024-11-08T03:00:00	6	Velocidad del viento	3.2
24274	7	Sololá	710	Panajachel	8	Panajachel	3	Marzo	2023-10-03T00:00:00	2024-11-08T03:00:00	7	Dirección del viento	3.22
24275	7	Sololá	710	Panajachel	8	Panajachel	3	Marzo	2023-10-03T00:00:00	2024-11-08T03:00:00	1	Precipitación	0
24276	7	Sololá	710	Panajachel	8	Panajachel	3	Marzo	2023-10-03T00:00:00	2024-11-08T03:00:00	8	Radiación solar	0
24277	7	Sololá	710	Panajachel	8	Panajachel	3	Marzo	2023-10-03T00:00:00	2024-11-08T04:00:00	2	Temperatura media	15.2
24278	7	Sololá	710	Panajachel	8	Panajachel	3	Marzo	2023-10-03T00:00:00	2024-11-08T04:00:00	4	Temperatura máxima	15.3
24279	7	Sololá	710	Panajachel	8	Panajachel	3	Marzo	2023-10-03T00:00:00	2024-11-08T04:00:00	3	Temperatura mínima	14.7
24280	7	Sololá	710	Panajachel	8	Panajachel	3	Marzo	2023-10-03T00:00:00	2024-11-08T04:00:00	5	Humedad	81
24281	7	Sololá	710	Panajachel	8	Panajachel	3	Marzo	2023-10-03T00:00:00	2024-11-08T04:00:00	6	Velocidad del viento	4.8
24282	7	Sololá	710	Panajachel	8	Panajachel	3	Marzo	2023-10-03T00:00:00	2024-11-08T04:00:00	7	Dirección del viento	4.83
24283	7	Sololá	710	Panajachel	8	Panajachel	3	Marzo	2023-10-03T00:00:00	2024-11-08T04:00:00	1	Precipitación	0
24284	7	Sololá	710	Panajachel	8	Panajachel	3	Marzo	2023-10-03T00:00:00	2024-11-08T04:00:00	8	Radiación solar	0
24285	7	Sololá	710	Panajachel	8	Panajachel	3	Marzo	2023-10-03T00:00:00	2024-11-08T05:00:00	2	Temperatura media	14.6
24286	7	Sololá	710	Panajachel	8	Panajachel	3	Marzo	2023-10-03T00:00:00	2024-11-08T05:00:00	4	Temperatura máxima	15.2
24287	7	Sololá	710	Panajachel	8	Panajachel	3	Marzo	2023-10-03T00:00:00	2024-11-08T05:00:00	3	Temperatura mínima	14.5
24288	7	Sololá	710	Panajachel	8	Panajachel	3	Marzo	2023-10-03T00:00:00	2024-11-08T05:00:00	5	Humedad	81
24289	7	Sololá	710	Panajachel	8	Panajachel	3	Marzo	2023-10-03T00:00:00	2024-11-08T05:00:00	6	Velocidad del viento	4.8
24290	7	Sololá	710	Panajachel	8	Panajachel	3	Marzo	2023-10-03T00:00:00	2024-11-08T05:00:00	7	Dirección del viento	4.83
24291	7	Sololá	710	Panajachel	8	Panajachel	3	Marzo	2023-10-03T00:00:00	2024-11-08T05:00:00	1	Precipitación	0
24292	7	Sololá	710	Panajachel	8	Panajachel	3	Marzo	2023-10-03T00:00:00	2024-11-08T05:00:00	8	Radiación solar	0
24293	7	Sololá	710	Panajachel	8	Panajachel	3	Marzo	2023-10-03T00:00:00	2024-11-08T06:00:00	2	Temperatura media	14.8
24294	7	Sololá	710	Panajachel	8	Panajachel	3	Marzo	2023-10-03T00:00:00	2024-11-08T06:00:00	4	Temperatura máxima	15
24295	7	Sololá	710	Panajachel	8	Panajachel	3	Marzo	2023-10-03T00:00:00	2024-11-08T06:00:00	3	Temperatura mínima	14.4
24296	7	Sololá	710	Panajachel	8	Panajachel	3	Marzo	2023-10-03T00:00:00	2024-11-08T06:00:00	5	Humedad	80
24297	7	Sololá	710	Panajachel	8	Panajachel	3	Marzo	2023-10-03T00:00:00	2024-11-08T06:00:00	6	Velocidad del viento	6.4
24298	7	Sololá	710	Panajachel	8	Panajachel	3	Marzo	2023-10-03T00:00:00	2024-11-08T06:00:00	7	Dirección del viento	6.44
24299	7	Sololá	710	Panajachel	8	Panajachel	3	Marzo	2023-10-03T00:00:00	2024-11-08T06:00:00	1	Precipitación	0
24300	7	Sololá	710	Panajachel	8	Panajachel	3	Marzo	2023-10-03T00:00:00	2024-11-08T06:00:00	8	Radiación solar	0
24301	7	Sololá	710	Panajachel	8	Panajachel	3	Marzo	2023-10-03T00:00:00	2024-11-08T07:00:00	2	Temperatura media	16.2
24302	7	Sololá	710	Panajachel	8	Panajachel	3	Marzo	2023-10-03T00:00:00	2024-11-08T07:00:00	4	Temperatura máxima	16.2
24303	7	Sololá	710	Panajachel	8	Panajachel	3	Marzo	2023-10-03T00:00:00	2024-11-08T07:00:00	3	Temperatura mínima	14.7
24304	7	Sololá	710	Panajachel	8	Panajachel	3	Marzo	2023-10-03T00:00:00	2024-11-08T07:00:00	5	Humedad	77
24305	7	Sololá	710	Panajachel	8	Panajachel	3	Marzo	2023-10-03T00:00:00	2024-11-08T07:00:00	6	Velocidad del viento	4.8
24306	7	Sololá	710	Panajachel	8	Panajachel	3	Marzo	2023-10-03T00:00:00	2024-11-08T07:00:00	7	Dirección del viento	4.83
24307	7	Sololá	710	Panajachel	8	Panajachel	3	Marzo	2023-10-03T00:00:00	2024-11-08T07:00:00	1	Precipitación	0
24308	7	Sololá	710	Panajachel	8	Panajachel	3	Marzo	2023-10-03T00:00:00	2024-11-08T07:00:00	8	Radiación solar	9
24309	7	Sololá	710	Panajachel	8	Panajachel	3	Marzo	2023-10-03T00:00:00	2024-11-08T08:00:00	2	Temperatura media	16.9
24310	7	Sololá	710	Panajachel	8	Panajachel	3	Marzo	2023-10-03T00:00:00	2024-11-08T08:00:00	4	Temperatura máxima	16.9
24311	7	Sololá	710	Panajachel	8	Panajachel	3	Marzo	2023-10-03T00:00:00	2024-11-08T08:00:00	3	Temperatura mínima	16.1
24312	7	Sololá	710	Panajachel	8	Panajachel	3	Marzo	2023-10-03T00:00:00	2024-11-08T08:00:00	5	Humedad	77
24313	7	Sololá	710	Panajachel	8	Panajachel	3	Marzo	2023-10-03T00:00:00	2024-11-08T08:00:00	6	Velocidad del viento	0
24314	7	Sololá	710	Panajachel	8	Panajachel	3	Marzo	2023-10-03T00:00:00	2024-11-08T08:00:00	7	Dirección del viento	0
24315	7	Sololá	710	Panajachel	8	Panajachel	3	Marzo	2023-10-03T00:00:00	2024-11-08T08:00:00	1	Precipitación	0
24316	7	Sololá	710	Panajachel	8	Panajachel	3	Marzo	2023-10-03T00:00:00	2024-11-08T08:00:00	8	Radiación solar	45
24317	7	Sololá	710	Panajachel	8	Panajachel	3	Marzo	2023-10-03T00:00:00	2024-11-08T09:00:00	2	Temperatura media	17.8
24318	7	Sololá	710	Panajachel	8	Panajachel	3	Marzo	2023-10-03T00:00:00	2024-11-08T09:00:00	4	Temperatura máxima	17.9
24319	7	Sololá	710	Panajachel	8	Panajachel	3	Marzo	2023-10-03T00:00:00	2024-11-08T09:00:00	3	Temperatura mínima	16.9
24320	7	Sololá	710	Panajachel	8	Panajachel	3	Marzo	2023-10-03T00:00:00	2024-11-08T09:00:00	5	Humedad	80
24321	7	Sololá	710	Panajachel	8	Panajachel	3	Marzo	2023-10-03T00:00:00	2024-11-08T09:00:00	6	Velocidad del viento	1.6
24322	7	Sololá	710	Panajachel	8	Panajachel	3	Marzo	2023-10-03T00:00:00	2024-11-08T09:00:00	7	Dirección del viento	1.61
24323	7	Sololá	710	Panajachel	8	Panajachel	3	Marzo	2023-10-03T00:00:00	2024-11-08T09:00:00	1	Precipitación	0
24324	7	Sololá	710	Panajachel	8	Panajachel	3	Marzo	2023-10-03T00:00:00	2024-11-08T09:00:00	8	Radiación solar	81
24325	7	Sololá	710	Panajachel	8	Panajachel	3	Marzo	2023-10-03T00:00:00	2024-11-08T10:00:00	2	Temperatura media	18.9
24326	7	Sololá	710	Panajachel	8	Panajachel	3	Marzo	2023-10-03T00:00:00	2024-11-08T10:00:00	4	Temperatura máxima	18.9
24327	7	Sololá	710	Panajachel	8	Panajachel	3	Marzo	2023-10-03T00:00:00	2024-11-08T10:00:00	3	Temperatura mínima	17.8
24328	7	Sololá	710	Panajachel	8	Panajachel	3	Marzo	2023-10-03T00:00:00	2024-11-08T10:00:00	5	Humedad	76
24329	7	Sololá	710	Panajachel	8	Panajachel	3	Marzo	2023-10-03T00:00:00	2024-11-08T10:00:00	6	Velocidad del viento	0
24330	7	Sololá	710	Panajachel	8	Panajachel	3	Marzo	2023-10-03T00:00:00	2024-11-08T10:00:00	7	Dirección del viento	0
24331	7	Sololá	710	Panajachel	8	Panajachel	3	Marzo	2023-10-03T00:00:00	2024-11-08T10:00:00	1	Precipitación	0
24332	7	Sololá	710	Panajachel	8	Panajachel	3	Marzo	2023-10-03T00:00:00	2024-11-08T10:00:00	8	Radiación solar	165
24333	7	Sololá	710	Panajachel	8	Panajachel	3	Marzo	2023-10-03T00:00:00	2024-11-08T11:00:00	2	Temperatura media	20.1
24334	7	Sololá	710	Panajachel	8	Panajachel	3	Marzo	2023-10-03T00:00:00	2024-11-08T11:00:00	4	Temperatura máxima	20.2
24335	7	Sololá	710	Panajachel	8	Panajachel	3	Marzo	2023-10-03T00:00:00	2024-11-08T11:00:00	3	Temperatura mínima	18.9
24336	7	Sololá	710	Panajachel	8	Panajachel	3	Marzo	2023-10-03T00:00:00	2024-11-08T11:00:00	5	Humedad	75
24337	7	Sololá	710	Panajachel	8	Panajachel	3	Marzo	2023-10-03T00:00:00	2024-11-08T11:00:00	6	Velocidad del viento	1.6
24338	7	Sololá	710	Panajachel	8	Panajachel	3	Marzo	2023-10-03T00:00:00	2024-11-08T11:00:00	7	Dirección del viento	1.61
24339	7	Sololá	710	Panajachel	8	Panajachel	3	Marzo	2023-10-03T00:00:00	2024-11-08T11:00:00	1	Precipitación	0
24340	7	Sololá	710	Panajachel	8	Panajachel	3	Marzo	2023-10-03T00:00:00	2024-11-08T11:00:00	8	Radiación solar	373
24341	7	Sololá	710	Panajachel	8	Panajachel	3	Marzo	2023-10-03T00:00:00	2024-11-08T12:00:00	2	Temperatura media	18.7
24342	7	Sololá	710	Panajachel	8	Panajachel	3	Marzo	2023-10-03T00:00:00	2024-11-08T12:00:00	4	Temperatura máxima	20.1
24343	7	Sololá	710	Panajachel	8	Panajachel	3	Marzo	2023-10-03T00:00:00	2024-11-08T12:00:00	3	Temperatura mínima	18.6
24344	7	Sololá	710	Panajachel	8	Panajachel	3	Marzo	2023-10-03T00:00:00	2024-11-08T12:00:00	5	Humedad	80
24345	7	Sololá	710	Panajachel	8	Panajachel	3	Marzo	2023-10-03T00:00:00	2024-11-08T12:00:00	6	Velocidad del viento	4.8
24346	7	Sololá	710	Panajachel	8	Panajachel	3	Marzo	2023-10-03T00:00:00	2024-11-08T12:00:00	7	Dirección del viento	4.83
24347	7	Sololá	710	Panajachel	8	Panajachel	3	Marzo	2023-10-03T00:00:00	2024-11-08T12:00:00	1	Precipitación	0
24348	7	Sololá	710	Panajachel	8	Panajachel	3	Marzo	2023-10-03T00:00:00	2024-11-08T12:00:00	8	Radiación solar	168
24349	7	Sololá	710	Panajachel	8	Panajachel	3	Marzo	2023-10-03T00:00:00	2024-11-08T13:00:00	2	Temperatura media	19.7
24350	7	Sololá	710	Panajachel	8	Panajachel	3	Marzo	2023-10-03T00:00:00	2024-11-08T13:00:00	4	Temperatura máxima	20.1
24351	7	Sololá	710	Panajachel	8	Panajachel	3	Marzo	2023-10-03T00:00:00	2024-11-08T13:00:00	3	Temperatura mínima	18.7
24352	7	Sololá	710	Panajachel	8	Panajachel	3	Marzo	2023-10-03T00:00:00	2024-11-08T13:00:00	5	Humedad	77
24353	7	Sololá	710	Panajachel	8	Panajachel	3	Marzo	2023-10-03T00:00:00	2024-11-08T13:00:00	6	Velocidad del viento	3.2
24354	7	Sololá	710	Panajachel	8	Panajachel	3	Marzo	2023-10-03T00:00:00	2024-11-08T13:00:00	7	Dirección del viento	3.22
24355	7	Sololá	710	Panajachel	8	Panajachel	3	Marzo	2023-10-03T00:00:00	2024-11-08T13:00:00	1	Precipitación	0
24356	7	Sololá	710	Panajachel	8	Panajachel	3	Marzo	2023-10-03T00:00:00	2024-11-08T13:00:00	8	Radiación solar	439
24357	7	Sololá	710	Panajachel	8	Panajachel	3	Marzo	2023-10-03T00:00:00	2024-11-08T14:00:00	2	Temperatura media	21.5
24358	7	Sololá	710	Panajachel	8	Panajachel	3	Marzo	2023-10-03T00:00:00	2024-11-08T14:00:00	4	Temperatura máxima	21.6
24359	7	Sololá	710	Panajachel	8	Panajachel	3	Marzo	2023-10-03T00:00:00	2024-11-08T14:00:00	3	Temperatura mínima	19.7
24360	7	Sololá	710	Panajachel	8	Panajachel	3	Marzo	2023-10-03T00:00:00	2024-11-08T14:00:00	5	Humedad	73
24361	7	Sololá	710	Panajachel	8	Panajachel	3	Marzo	2023-10-03T00:00:00	2024-11-08T14:00:00	6	Velocidad del viento	3.2
24362	7	Sololá	710	Panajachel	8	Panajachel	3	Marzo	2023-10-03T00:00:00	2024-11-08T14:00:00	7	Dirección del viento	3.22
24363	7	Sololá	710	Panajachel	8	Panajachel	3	Marzo	2023-10-03T00:00:00	2024-11-08T14:00:00	1	Precipitación	0
24364	7	Sololá	710	Panajachel	8	Panajachel	3	Marzo	2023-10-03T00:00:00	2024-11-08T14:00:00	8	Radiación solar	579
24365	7	Sololá	710	Panajachel	8	Panajachel	3	Marzo	2023-10-03T00:00:00	2024-11-08T15:00:00	2	Temperatura media	21.1
24366	7	Sololá	710	Panajachel	8	Panajachel	3	Marzo	2023-10-03T00:00:00	2024-11-08T15:00:00	4	Temperatura máxima	21.7
24367	7	Sololá	710	Panajachel	8	Panajachel	3	Marzo	2023-10-03T00:00:00	2024-11-08T15:00:00	3	Temperatura mínima	21.1
24368	7	Sololá	710	Panajachel	8	Panajachel	3	Marzo	2023-10-03T00:00:00	2024-11-08T15:00:00	5	Humedad	76
24369	7	Sololá	710	Panajachel	8	Panajachel	3	Marzo	2023-10-03T00:00:00	2024-11-08T15:00:00	6	Velocidad del viento	3.2
24370	7	Sololá	710	Panajachel	8	Panajachel	3	Marzo	2023-10-03T00:00:00	2024-11-08T15:00:00	7	Dirección del viento	3.22
24371	7	Sololá	710	Panajachel	8	Panajachel	3	Marzo	2023-10-03T00:00:00	2024-11-08T15:00:00	1	Precipitación	0
24372	7	Sololá	710	Panajachel	8	Panajachel	3	Marzo	2023-10-03T00:00:00	2024-11-08T15:00:00	8	Radiación solar	609
24373	7	Sololá	710	Panajachel	8	Panajachel	3	Marzo	2023-10-03T00:00:00	2024-11-08T16:00:00	2	Temperatura media	20.8
24374	7	Sololá	710	Panajachel	8	Panajachel	3	Marzo	2023-10-03T00:00:00	2024-11-08T16:00:00	4	Temperatura máxima	21.7
24375	7	Sololá	710	Panajachel	8	Panajachel	3	Marzo	2023-10-03T00:00:00	2024-11-08T16:00:00	3	Temperatura mínima	20.2
24376	7	Sololá	710	Panajachel	8	Panajachel	3	Marzo	2023-10-03T00:00:00	2024-11-08T16:00:00	5	Humedad	78
24377	7	Sololá	710	Panajachel	8	Panajachel	3	Marzo	2023-10-03T00:00:00	2024-11-08T16:00:00	6	Velocidad del viento	4.8
24378	7	Sololá	710	Panajachel	8	Panajachel	3	Marzo	2023-10-03T00:00:00	2024-11-08T16:00:00	7	Dirección del viento	4.83
24379	7	Sololá	710	Panajachel	8	Panajachel	3	Marzo	2023-10-03T00:00:00	2024-11-08T16:00:00	1	Precipitación	0
24380	7	Sololá	710	Panajachel	8	Panajachel	3	Marzo	2023-10-03T00:00:00	2024-11-08T16:00:00	8	Radiación solar	323
24381	7	Sololá	710	Panajachel	8	Panajachel	3	Marzo	2023-10-03T00:00:00	2024-11-08T17:00:00	2	Temperatura media	20.1
24382	7	Sololá	710	Panajachel	8	Panajachel	3	Marzo	2023-10-03T00:00:00	2024-11-08T17:00:00	4	Temperatura máxima	20.8
24383	7	Sololá	710	Panajachel	8	Panajachel	3	Marzo	2023-10-03T00:00:00	2024-11-08T17:00:00	3	Temperatura mínima	20.1
24384	7	Sololá	710	Panajachel	8	Panajachel	3	Marzo	2023-10-03T00:00:00	2024-11-08T17:00:00	5	Humedad	79
24385	7	Sololá	710	Panajachel	8	Panajachel	3	Marzo	2023-10-03T00:00:00	2024-11-08T17:00:00	6	Velocidad del viento	3.2
24386	7	Sololá	710	Panajachel	8	Panajachel	3	Marzo	2023-10-03T00:00:00	2024-11-08T17:00:00	7	Dirección del viento	3.22
24387	7	Sololá	710	Panajachel	8	Panajachel	3	Marzo	2023-10-03T00:00:00	2024-11-08T17:00:00	1	Precipitación	0
24388	7	Sololá	710	Panajachel	8	Panajachel	3	Marzo	2023-10-03T00:00:00	2024-11-08T17:00:00	8	Radiación solar	182
24389	7	Sololá	710	Panajachel	8	Panajachel	3	Marzo	2023-10-03T00:00:00	2024-11-08T18:00:00	2	Temperatura media	19.6
24390	7	Sololá	710	Panajachel	8	Panajachel	3	Marzo	2023-10-03T00:00:00	2024-11-08T18:00:00	4	Temperatura máxima	20.1
24391	7	Sololá	710	Panajachel	8	Panajachel	3	Marzo	2023-10-03T00:00:00	2024-11-08T18:00:00	3	Temperatura mínima	19.5
24392	7	Sololá	710	Panajachel	8	Panajachel	3	Marzo	2023-10-03T00:00:00	2024-11-08T18:00:00	5	Humedad	82
24393	7	Sololá	710	Panajachel	8	Panajachel	3	Marzo	2023-10-03T00:00:00	2024-11-08T18:00:00	6	Velocidad del viento	3.2
24394	7	Sololá	710	Panajachel	8	Panajachel	3	Marzo	2023-10-03T00:00:00	2024-11-08T18:00:00	7	Dirección del viento	3.22
24395	7	Sololá	710	Panajachel	8	Panajachel	3	Marzo	2023-10-03T00:00:00	2024-11-08T18:00:00	1	Precipitación	0
24396	7	Sololá	710	Panajachel	8	Panajachel	3	Marzo	2023-10-03T00:00:00	2024-11-08T18:00:00	8	Radiación solar	47
24397	7	Sololá	710	Panajachel	8	Panajachel	3	Marzo	2023-10-03T00:00:00	2024-11-08T19:00:00	2	Temperatura media	19.1
24398	7	Sololá	710	Panajachel	8	Panajachel	3	Marzo	2023-10-03T00:00:00	2024-11-08T19:00:00	4	Temperatura máxima	19.6
24399	7	Sololá	710	Panajachel	8	Panajachel	3	Marzo	2023-10-03T00:00:00	2024-11-08T19:00:00	3	Temperatura mínima	19.1
24400	7	Sololá	710	Panajachel	8	Panajachel	3	Marzo	2023-10-03T00:00:00	2024-11-08T19:00:00	5	Humedad	84
24401	7	Sololá	710	Panajachel	8	Panajachel	3	Marzo	2023-10-03T00:00:00	2024-11-08T19:00:00	6	Velocidad del viento	0
24402	7	Sololá	710	Panajachel	8	Panajachel	3	Marzo	2023-10-03T00:00:00	2024-11-08T19:00:00	7	Dirección del viento	0
24403	7	Sololá	710	Panajachel	8	Panajachel	3	Marzo	2023-10-03T00:00:00	2024-11-08T19:00:00	1	Precipitación	0
24404	7	Sololá	710	Panajachel	8	Panajachel	3	Marzo	2023-10-03T00:00:00	2024-11-08T19:00:00	8	Radiación solar	0
24405	7	Sololá	710	Panajachel	8	Panajachel	3	Marzo	2023-10-03T00:00:00	2024-11-08T20:00:00	2	Temperatura media	18.7
24406	7	Sololá	710	Panajachel	8	Panajachel	3	Marzo	2023-10-03T00:00:00	2024-11-08T20:00:00	4	Temperatura máxima	19.1
24407	7	Sololá	710	Panajachel	8	Panajachel	3	Marzo	2023-10-03T00:00:00	2024-11-08T20:00:00	3	Temperatura mínima	18.7
24408	7	Sololá	710	Panajachel	8	Panajachel	3	Marzo	2023-10-03T00:00:00	2024-11-08T20:00:00	5	Humedad	83
24409	7	Sololá	710	Panajachel	8	Panajachel	3	Marzo	2023-10-03T00:00:00	2024-11-08T20:00:00	6	Velocidad del viento	0
24410	7	Sololá	710	Panajachel	8	Panajachel	3	Marzo	2023-10-03T00:00:00	2024-11-08T20:00:00	7	Dirección del viento	0
24411	7	Sololá	710	Panajachel	8	Panajachel	3	Marzo	2023-10-03T00:00:00	2024-11-08T20:00:00	1	Precipitación	0
24412	7	Sololá	710	Panajachel	8	Panajachel	3	Marzo	2023-10-03T00:00:00	2024-11-08T20:00:00	8	Radiación solar	0
24413	7	Sololá	710	Panajachel	8	Panajachel	3	Marzo	2023-10-03T00:00:00	2024-11-08T21:00:00	2	Temperatura media	18.7
24414	7	Sololá	710	Panajachel	8	Panajachel	3	Marzo	2023-10-03T00:00:00	2024-11-08T21:00:00	4	Temperatura máxima	18.8
24415	7	Sololá	710	Panajachel	8	Panajachel	3	Marzo	2023-10-03T00:00:00	2024-11-08T21:00:00	3	Temperatura mínima	18.7
24416	7	Sololá	710	Panajachel	8	Panajachel	3	Marzo	2023-10-03T00:00:00	2024-11-08T21:00:00	5	Humedad	87
24417	7	Sololá	710	Panajachel	8	Panajachel	3	Marzo	2023-10-03T00:00:00	2024-11-08T21:00:00	6	Velocidad del viento	0
24418	7	Sololá	710	Panajachel	8	Panajachel	3	Marzo	2023-10-03T00:00:00	2024-11-08T21:00:00	7	Dirección del viento	0
24419	7	Sololá	710	Panajachel	8	Panajachel	3	Marzo	2023-10-03T00:00:00	2024-11-08T21:00:00	1	Precipitación	0
24420	7	Sololá	710	Panajachel	8	Panajachel	3	Marzo	2023-10-03T00:00:00	2024-11-08T21:00:00	8	Radiación solar	0
24421	7	Sololá	710	Panajachel	8	Panajachel	3	Marzo	2023-10-03T00:00:00	2024-11-08T22:00:00	2	Temperatura media	18.5
24422	7	Sololá	710	Panajachel	8	Panajachel	3	Marzo	2023-10-03T00:00:00	2024-11-08T22:00:00	4	Temperatura máxima	18.7
24423	7	Sololá	710	Panajachel	8	Panajachel	3	Marzo	2023-10-03T00:00:00	2024-11-08T22:00:00	3	Temperatura mínima	18.4
24424	7	Sololá	710	Panajachel	8	Panajachel	3	Marzo	2023-10-03T00:00:00	2024-11-08T22:00:00	5	Humedad	88
24425	7	Sololá	710	Panajachel	8	Panajachel	3	Marzo	2023-10-03T00:00:00	2024-11-08T22:00:00	6	Velocidad del viento	1.6
24426	7	Sololá	710	Panajachel	8	Panajachel	3	Marzo	2023-10-03T00:00:00	2024-11-08T22:00:00	7	Dirección del viento	1.61
24427	7	Sololá	710	Panajachel	8	Panajachel	3	Marzo	2023-10-03T00:00:00	2024-11-08T22:00:00	1	Precipitación	0
24428	7	Sololá	710	Panajachel	8	Panajachel	3	Marzo	2023-10-03T00:00:00	2024-11-08T22:00:00	8	Radiación solar	0
24429	7	Sololá	710	Panajachel	8	Panajachel	3	Marzo	2023-10-03T00:00:00	2024-11-08T23:00:00	2	Temperatura media	17.8
24430	7	Sololá	710	Panajachel	8	Panajachel	3	Marzo	2023-10-03T00:00:00	2024-11-08T23:00:00	4	Temperatura máxima	18.6
24431	7	Sololá	710	Panajachel	8	Panajachel	3	Marzo	2023-10-03T00:00:00	2024-11-08T23:00:00	3	Temperatura mínima	17.7
24432	7	Sololá	710	Panajachel	8	Panajachel	3	Marzo	2023-10-03T00:00:00	2024-11-08T23:00:00	5	Humedad	83
24433	7	Sololá	710	Panajachel	8	Panajachel	3	Marzo	2023-10-03T00:00:00	2024-11-08T23:00:00	6	Velocidad del viento	6.4
24434	7	Sololá	710	Panajachel	8	Panajachel	3	Marzo	2023-10-03T00:00:00	2024-11-08T23:00:00	7	Dirección del viento	6.44
24435	7	Sololá	710	Panajachel	8	Panajachel	3	Marzo	2023-10-03T00:00:00	2024-11-08T23:00:00	1	Precipitación	0
24436	7	Sololá	710	Panajachel	8	Panajachel	3	Marzo	2023-10-03T00:00:00	2024-11-08T23:00:00	8	Radiación solar	0
24437	7	Sololá	710	Panajachel	8	Panajachel	3	Marzo	2023-11-03T00:00:00	2024-11-08T00:00:00	2	Temperatura media	16.8
24438	7	Sololá	710	Panajachel	8	Panajachel	3	Marzo	2023-11-03T00:00:00	2024-11-08T00:00:00	4	Temperatura máxima	17.8
24439	7	Sololá	710	Panajachel	8	Panajachel	3	Marzo	2023-11-03T00:00:00	2024-11-08T00:00:00	3	Temperatura mínima	16.8
24440	7	Sololá	710	Panajachel	8	Panajachel	3	Marzo	2023-11-03T00:00:00	2024-11-08T00:00:00	5	Humedad	83
24441	7	Sololá	710	Panajachel	8	Panajachel	3	Marzo	2023-11-03T00:00:00	2024-11-08T00:00:00	6	Velocidad del viento	6.4
24442	7	Sololá	710	Panajachel	8	Panajachel	3	Marzo	2023-11-03T00:00:00	2024-11-08T00:00:00	7	Dirección del viento	6.44
24443	7	Sololá	710	Panajachel	8	Panajachel	3	Marzo	2023-11-03T00:00:00	2024-11-08T00:00:00	1	Precipitación	0
24444	7	Sololá	710	Panajachel	8	Panajachel	3	Marzo	2023-11-03T00:00:00	2024-11-08T00:00:00	8	Radiación solar	0
24445	7	Sololá	710	Panajachel	8	Panajachel	3	Marzo	2023-11-03T00:00:00	2024-11-08T01:00:00	2	Temperatura media	17.3
24446	7	Sololá	710	Panajachel	8	Panajachel	3	Marzo	2023-11-03T00:00:00	2024-11-08T01:00:00	4	Temperatura máxima	17.4
24447	7	Sololá	710	Panajachel	8	Panajachel	3	Marzo	2023-11-03T00:00:00	2024-11-08T01:00:00	3	Temperatura mínima	17.3
24448	7	Sololá	710	Panajachel	8	Panajachel	3	Marzo	2023-11-03T00:00:00	2024-11-08T01:00:00	5	Humedad	85
24449	7	Sololá	710	Panajachel	8	Panajachel	3	Marzo	2023-11-03T00:00:00	2024-11-08T01:00:00	6	Velocidad del viento	1.6
24450	7	Sololá	710	Panajachel	8	Panajachel	3	Marzo	2023-11-03T00:00:00	2024-11-08T01:00:00	7	Dirección del viento	1.61
24451	7	Sololá	710	Panajachel	8	Panajachel	3	Marzo	2023-11-03T00:00:00	2024-11-08T01:00:00	1	Precipitación	0
24452	7	Sololá	710	Panajachel	8	Panajachel	3	Marzo	2023-11-03T00:00:00	2024-11-08T01:00:00	8	Radiación solar	0
24453	7	Sololá	710	Panajachel	8	Panajachel	3	Marzo	2023-11-03T00:00:00	2024-11-08T02:00:00	2	Temperatura media	16.3
24454	7	Sololá	710	Panajachel	8	Panajachel	3	Marzo	2023-11-03T00:00:00	2024-11-08T02:00:00	4	Temperatura máxima	17.3
24455	7	Sololá	710	Panajachel	8	Panajachel	3	Marzo	2023-11-03T00:00:00	2024-11-08T02:00:00	3	Temperatura mínima	16.3
24456	7	Sololá	710	Panajachel	8	Panajachel	3	Marzo	2023-11-03T00:00:00	2024-11-08T02:00:00	5	Humedad	85
24457	7	Sololá	710	Panajachel	8	Panajachel	3	Marzo	2023-11-03T00:00:00	2024-11-08T02:00:00	6	Velocidad del viento	1.6
24458	7	Sololá	710	Panajachel	8	Panajachel	3	Marzo	2023-11-03T00:00:00	2024-11-08T02:00:00	7	Dirección del viento	1.61
24459	7	Sololá	710	Panajachel	8	Panajachel	3	Marzo	2023-11-03T00:00:00	2024-11-08T02:00:00	1	Precipitación	0
24460	7	Sololá	710	Panajachel	8	Panajachel	3	Marzo	2023-11-03T00:00:00	2024-11-08T02:00:00	8	Radiación solar	0
24461	7	Sololá	710	Panajachel	8	Panajachel	3	Marzo	2023-11-03T00:00:00	2024-11-08T03:00:00	2	Temperatura media	16.1
24462	7	Sololá	710	Panajachel	8	Panajachel	3	Marzo	2023-11-03T00:00:00	2024-11-08T03:00:00	4	Temperatura máxima	16.4
24463	7	Sololá	710	Panajachel	8	Panajachel	3	Marzo	2023-11-03T00:00:00	2024-11-08T03:00:00	3	Temperatura mínima	16.1
24464	7	Sololá	710	Panajachel	8	Panajachel	3	Marzo	2023-11-03T00:00:00	2024-11-08T03:00:00	5	Humedad	85
24465	7	Sololá	710	Panajachel	8	Panajachel	3	Marzo	2023-11-03T00:00:00	2024-11-08T03:00:00	6	Velocidad del viento	3.2
24466	7	Sololá	710	Panajachel	8	Panajachel	3	Marzo	2023-11-03T00:00:00	2024-11-08T03:00:00	7	Dirección del viento	3.22
24467	7	Sololá	710	Panajachel	8	Panajachel	3	Marzo	2023-11-03T00:00:00	2024-11-08T03:00:00	1	Precipitación	0
24468	7	Sololá	710	Panajachel	8	Panajachel	3	Marzo	2023-11-03T00:00:00	2024-11-08T03:00:00	8	Radiación solar	0
24469	7	Sololá	710	Panajachel	8	Panajachel	3	Marzo	2023-11-03T00:00:00	2024-11-08T04:00:00	2	Temperatura media	15.7
24470	7	Sololá	710	Panajachel	8	Panajachel	3	Marzo	2023-11-03T00:00:00	2024-11-08T04:00:00	4	Temperatura máxima	16.2
24471	7	Sololá	710	Panajachel	8	Panajachel	3	Marzo	2023-11-03T00:00:00	2024-11-08T04:00:00	3	Temperatura mínima	15.7
24472	7	Sololá	710	Panajachel	8	Panajachel	3	Marzo	2023-11-03T00:00:00	2024-11-08T04:00:00	5	Humedad	83
24473	7	Sololá	710	Panajachel	8	Panajachel	3	Marzo	2023-11-03T00:00:00	2024-11-08T04:00:00	6	Velocidad del viento	3.2
24474	7	Sololá	710	Panajachel	8	Panajachel	3	Marzo	2023-11-03T00:00:00	2024-11-08T04:00:00	7	Dirección del viento	3.22
24475	7	Sololá	710	Panajachel	8	Panajachel	3	Marzo	2023-11-03T00:00:00	2024-11-08T04:00:00	1	Precipitación	0
24476	7	Sololá	710	Panajachel	8	Panajachel	3	Marzo	2023-11-03T00:00:00	2024-11-08T04:00:00	8	Radiación solar	0
24477	7	Sololá	710	Panajachel	8	Panajachel	3	Marzo	2023-11-03T00:00:00	2024-11-08T05:00:00	2	Temperatura media	15.9
24478	7	Sololá	710	Panajachel	8	Panajachel	3	Marzo	2023-11-03T00:00:00	2024-11-08T05:00:00	4	Temperatura máxima	15.9
24479	7	Sololá	710	Panajachel	8	Panajachel	3	Marzo	2023-11-03T00:00:00	2024-11-08T05:00:00	3	Temperatura mínima	15.5
24480	7	Sololá	710	Panajachel	8	Panajachel	3	Marzo	2023-11-03T00:00:00	2024-11-08T05:00:00	5	Humedad	80
24481	7	Sololá	710	Panajachel	8	Panajachel	3	Marzo	2023-11-03T00:00:00	2024-11-08T05:00:00	6	Velocidad del viento	6.4
24482	7	Sololá	710	Panajachel	8	Panajachel	3	Marzo	2023-11-03T00:00:00	2024-11-08T05:00:00	7	Dirección del viento	6.44
24483	7	Sololá	710	Panajachel	8	Panajachel	3	Marzo	2023-11-03T00:00:00	2024-11-08T05:00:00	1	Precipitación	0
24484	7	Sololá	710	Panajachel	8	Panajachel	3	Marzo	2023-11-03T00:00:00	2024-11-08T05:00:00	8	Radiación solar	0
24485	7	Sololá	710	Panajachel	8	Panajachel	3	Marzo	2023-11-03T00:00:00	2024-11-08T06:00:00	2	Temperatura media	15.9
24486	7	Sololá	710	Panajachel	8	Panajachel	3	Marzo	2023-11-03T00:00:00	2024-11-08T06:00:00	4	Temperatura máxima	16.1
24487	7	Sololá	710	Panajachel	8	Panajachel	3	Marzo	2023-11-03T00:00:00	2024-11-08T06:00:00	3	Temperatura mínima	15.9
24488	7	Sololá	710	Panajachel	8	Panajachel	3	Marzo	2023-11-03T00:00:00	2024-11-08T06:00:00	5	Humedad	79
24489	7	Sololá	710	Panajachel	8	Panajachel	3	Marzo	2023-11-03T00:00:00	2024-11-08T06:00:00	6	Velocidad del viento	3.2
24490	7	Sololá	710	Panajachel	8	Panajachel	3	Marzo	2023-11-03T00:00:00	2024-11-08T06:00:00	7	Dirección del viento	3.22
24491	7	Sololá	710	Panajachel	8	Panajachel	3	Marzo	2023-11-03T00:00:00	2024-11-08T06:00:00	1	Precipitación	0
24492	7	Sololá	710	Panajachel	8	Panajachel	3	Marzo	2023-11-03T00:00:00	2024-11-08T06:00:00	8	Radiación solar	0
24493	7	Sololá	710	Panajachel	8	Panajachel	3	Marzo	2023-11-03T00:00:00	2024-11-08T07:00:00	2	Temperatura media	16.4
24494	7	Sololá	710	Panajachel	8	Panajachel	3	Marzo	2023-11-03T00:00:00	2024-11-08T07:00:00	4	Temperatura máxima	16.4
24495	7	Sololá	710	Panajachel	8	Panajachel	3	Marzo	2023-11-03T00:00:00	2024-11-08T07:00:00	3	Temperatura mínima	15.7
24496	7	Sololá	710	Panajachel	8	Panajachel	3	Marzo	2023-11-03T00:00:00	2024-11-08T07:00:00	5	Humedad	79
24497	7	Sololá	710	Panajachel	8	Panajachel	3	Marzo	2023-11-03T00:00:00	2024-11-08T07:00:00	6	Velocidad del viento	3.2
24498	7	Sololá	710	Panajachel	8	Panajachel	3	Marzo	2023-11-03T00:00:00	2024-11-08T07:00:00	7	Dirección del viento	3.22
24499	7	Sololá	710	Panajachel	8	Panajachel	3	Marzo	2023-11-03T00:00:00	2024-11-08T07:00:00	1	Precipitación	0
24500	7	Sololá	710	Panajachel	8	Panajachel	3	Marzo	2023-11-03T00:00:00	2024-11-08T07:00:00	8	Radiación solar	18
24501	7	Sololá	710	Panajachel	8	Panajachel	3	Marzo	2023-11-03T00:00:00	2024-11-08T08:00:00	2	Temperatura media	17.2
24502	7	Sololá	710	Panajachel	8	Panajachel	3	Marzo	2023-11-03T00:00:00	2024-11-08T08:00:00	4	Temperatura máxima	17.2
24503	7	Sololá	710	Panajachel	8	Panajachel	3	Marzo	2023-11-03T00:00:00	2024-11-08T08:00:00	3	Temperatura mínima	16.4
24504	7	Sololá	710	Panajachel	8	Panajachel	3	Marzo	2023-11-03T00:00:00	2024-11-08T08:00:00	5	Humedad	79
24505	7	Sololá	710	Panajachel	8	Panajachel	3	Marzo	2023-11-03T00:00:00	2024-11-08T08:00:00	6	Velocidad del viento	1.6
24506	7	Sololá	710	Panajachel	8	Panajachel	3	Marzo	2023-11-03T00:00:00	2024-11-08T08:00:00	7	Dirección del viento	1.61
24507	7	Sololá	710	Panajachel	8	Panajachel	3	Marzo	2023-11-03T00:00:00	2024-11-08T08:00:00	1	Precipitación	0
24508	7	Sololá	710	Panajachel	8	Panajachel	3	Marzo	2023-11-03T00:00:00	2024-11-08T08:00:00	8	Radiación solar	68
24509	7	Sololá	710	Panajachel	8	Panajachel	3	Marzo	2023-11-03T00:00:00	2024-11-08T09:00:00	2	Temperatura media	18.9
24510	7	Sololá	710	Panajachel	8	Panajachel	3	Marzo	2023-11-03T00:00:00	2024-11-08T09:00:00	4	Temperatura máxima	19
24511	7	Sololá	710	Panajachel	8	Panajachel	3	Marzo	2023-11-03T00:00:00	2024-11-08T09:00:00	3	Temperatura mínima	17.2
24512	7	Sololá	710	Panajachel	8	Panajachel	3	Marzo	2023-11-03T00:00:00	2024-11-08T09:00:00	5	Humedad	82
24513	7	Sololá	710	Panajachel	8	Panajachel	3	Marzo	2023-11-03T00:00:00	2024-11-08T09:00:00	6	Velocidad del viento	1.6
24514	7	Sololá	710	Panajachel	8	Panajachel	3	Marzo	2023-11-03T00:00:00	2024-11-08T09:00:00	7	Dirección del viento	1.61
24515	7	Sololá	710	Panajachel	8	Panajachel	3	Marzo	2023-11-03T00:00:00	2024-11-08T09:00:00	1	Precipitación	0
24516	7	Sololá	710	Panajachel	8	Panajachel	3	Marzo	2023-11-03T00:00:00	2024-11-08T09:00:00	8	Radiación solar	209
24517	7	Sololá	710	Panajachel	8	Panajachel	3	Marzo	2023-11-03T00:00:00	2024-11-08T10:00:00	2	Temperatura media	19.1
24518	7	Sololá	710	Panajachel	8	Panajachel	3	Marzo	2023-11-03T00:00:00	2024-11-08T10:00:00	4	Temperatura máxima	19.2
24519	7	Sololá	710	Panajachel	8	Panajachel	3	Marzo	2023-11-03T00:00:00	2024-11-08T10:00:00	3	Temperatura mínima	18.7
24520	7	Sololá	710	Panajachel	8	Panajachel	3	Marzo	2023-11-03T00:00:00	2024-11-08T10:00:00	5	Humedad	80
24521	7	Sololá	710	Panajachel	8	Panajachel	3	Marzo	2023-11-03T00:00:00	2024-11-08T10:00:00	6	Velocidad del viento	3.2
24522	7	Sololá	710	Panajachel	8	Panajachel	3	Marzo	2023-11-03T00:00:00	2024-11-08T10:00:00	7	Dirección del viento	3.22
24523	7	Sololá	710	Panajachel	8	Panajachel	3	Marzo	2023-11-03T00:00:00	2024-11-08T10:00:00	1	Precipitación	0
24524	7	Sololá	710	Panajachel	8	Panajachel	3	Marzo	2023-11-03T00:00:00	2024-11-08T10:00:00	8	Radiación solar	242
24525	7	Sololá	710	Panajachel	8	Panajachel	3	Marzo	2023-11-03T00:00:00	2024-11-08T11:00:00	2	Temperatura media	21.1
24526	7	Sololá	710	Panajachel	8	Panajachel	3	Marzo	2023-11-03T00:00:00	2024-11-08T11:00:00	4	Temperatura máxima	21.1
24527	7	Sololá	710	Panajachel	8	Panajachel	3	Marzo	2023-11-03T00:00:00	2024-11-08T11:00:00	3	Temperatura mínima	19.1
24528	7	Sololá	710	Panajachel	8	Panajachel	3	Marzo	2023-11-03T00:00:00	2024-11-08T11:00:00	5	Humedad	77
24529	7	Sololá	710	Panajachel	8	Panajachel	3	Marzo	2023-11-03T00:00:00	2024-11-08T11:00:00	6	Velocidad del viento	3.2
24530	7	Sololá	710	Panajachel	8	Panajachel	3	Marzo	2023-11-03T00:00:00	2024-11-08T11:00:00	7	Dirección del viento	3.22
24531	7	Sololá	710	Panajachel	8	Panajachel	3	Marzo	2023-11-03T00:00:00	2024-11-08T11:00:00	1	Precipitación	0
24532	7	Sololá	710	Panajachel	8	Panajachel	3	Marzo	2023-11-03T00:00:00	2024-11-08T11:00:00	8	Radiación solar	785
24533	7	Sololá	710	Panajachel	8	Panajachel	3	Marzo	2023-11-03T00:00:00	2024-11-08T12:00:00	2	Temperatura media	21.2
24534	7	Sololá	710	Panajachel	8	Panajachel	3	Marzo	2023-11-03T00:00:00	2024-11-08T12:00:00	4	Temperatura máxima	21.5
24535	7	Sololá	710	Panajachel	8	Panajachel	3	Marzo	2023-11-03T00:00:00	2024-11-08T12:00:00	3	Temperatura mínima	20.3
24536	7	Sololá	710	Panajachel	8	Panajachel	3	Marzo	2023-11-03T00:00:00	2024-11-08T12:00:00	5	Humedad	77
24537	7	Sololá	710	Panajachel	8	Panajachel	3	Marzo	2023-11-03T00:00:00	2024-11-08T12:00:00	6	Velocidad del viento	6.4
24538	7	Sololá	710	Panajachel	8	Panajachel	3	Marzo	2023-11-03T00:00:00	2024-11-08T12:00:00	7	Dirección del viento	6.44
24539	7	Sololá	710	Panajachel	8	Panajachel	3	Marzo	2023-11-03T00:00:00	2024-11-08T12:00:00	1	Precipitación	0
24540	7	Sololá	710	Panajachel	8	Panajachel	3	Marzo	2023-11-03T00:00:00	2024-11-08T12:00:00	8	Radiación solar	871
24541	7	Sololá	710	Panajachel	8	Panajachel	3	Marzo	2023-11-03T00:00:00	2024-11-08T13:00:00	2	Temperatura media	20.8
24542	7	Sololá	710	Panajachel	8	Panajachel	3	Marzo	2023-11-03T00:00:00	2024-11-08T13:00:00	4	Temperatura máxima	21.4
24543	7	Sololá	710	Panajachel	8	Panajachel	3	Marzo	2023-11-03T00:00:00	2024-11-08T13:00:00	3	Temperatura mínima	20.2
24544	7	Sololá	710	Panajachel	8	Panajachel	3	Marzo	2023-11-03T00:00:00	2024-11-08T13:00:00	5	Humedad	77
24545	7	Sololá	710	Panajachel	8	Panajachel	3	Marzo	2023-11-03T00:00:00	2024-11-08T13:00:00	6	Velocidad del viento	4.8
24546	7	Sololá	710	Panajachel	8	Panajachel	3	Marzo	2023-11-03T00:00:00	2024-11-08T13:00:00	7	Dirección del viento	4.83
24547	7	Sololá	710	Panajachel	8	Panajachel	3	Marzo	2023-11-03T00:00:00	2024-11-08T13:00:00	1	Precipitación	0
24548	7	Sololá	710	Panajachel	8	Panajachel	3	Marzo	2023-11-03T00:00:00	2024-11-08T13:00:00	8	Radiación solar	465
24549	7	Sololá	710	Panajachel	8	Panajachel	3	Marzo	2023-11-03T00:00:00	2024-11-08T14:00:00	2	Temperatura media	20.1
24550	7	Sololá	710	Panajachel	8	Panajachel	3	Marzo	2023-11-03T00:00:00	2024-11-08T14:00:00	4	Temperatura máxima	21.1
24551	7	Sololá	710	Panajachel	8	Panajachel	3	Marzo	2023-11-03T00:00:00	2024-11-08T14:00:00	3	Temperatura mínima	19.7
24552	7	Sololá	710	Panajachel	8	Panajachel	3	Marzo	2023-11-03T00:00:00	2024-11-08T14:00:00	5	Humedad	81
24553	7	Sololá	710	Panajachel	8	Panajachel	3	Marzo	2023-11-03T00:00:00	2024-11-08T14:00:00	6	Velocidad del viento	4.8
24554	7	Sololá	710	Panajachel	8	Panajachel	3	Marzo	2023-11-03T00:00:00	2024-11-08T14:00:00	7	Dirección del viento	4.83
24555	7	Sololá	710	Panajachel	8	Panajachel	3	Marzo	2023-11-03T00:00:00	2024-11-08T14:00:00	1	Precipitación	0
24556	7	Sololá	710	Panajachel	8	Panajachel	3	Marzo	2023-11-03T00:00:00	2024-11-08T14:00:00	8	Radiación solar	211
24557	7	Sololá	710	Panajachel	8	Panajachel	3	Marzo	2023-11-03T00:00:00	2024-11-08T15:00:00	2	Temperatura media	19.5
24558	7	Sololá	710	Panajachel	8	Panajachel	3	Marzo	2023-11-03T00:00:00	2024-11-08T15:00:00	4	Temperatura máxima	20.1
24559	7	Sololá	710	Panajachel	8	Panajachel	3	Marzo	2023-11-03T00:00:00	2024-11-08T15:00:00	3	Temperatura mínima	19.4
24560	7	Sololá	710	Panajachel	8	Panajachel	3	Marzo	2023-11-03T00:00:00	2024-11-08T15:00:00	5	Humedad	86
24561	7	Sololá	710	Panajachel	8	Panajachel	3	Marzo	2023-11-03T00:00:00	2024-11-08T15:00:00	6	Velocidad del viento	4.8
24562	7	Sololá	710	Panajachel	8	Panajachel	3	Marzo	2023-11-03T00:00:00	2024-11-08T15:00:00	7	Dirección del viento	4.83
24563	7	Sololá	710	Panajachel	8	Panajachel	3	Marzo	2023-11-03T00:00:00	2024-11-08T15:00:00	1	Precipitación	0
24564	7	Sololá	710	Panajachel	8	Panajachel	3	Marzo	2023-11-03T00:00:00	2024-11-08T15:00:00	8	Radiación solar	116
24565	7	Sololá	710	Panajachel	8	Panajachel	3	Marzo	2023-11-03T00:00:00	2024-11-08T16:00:00	2	Temperatura media	19.4
24566	7	Sololá	710	Panajachel	8	Panajachel	3	Marzo	2023-11-03T00:00:00	2024-11-08T16:00:00	4	Temperatura máxima	19.6
24567	7	Sololá	710	Panajachel	8	Panajachel	3	Marzo	2023-11-03T00:00:00	2024-11-08T16:00:00	3	Temperatura mínima	19.3
24568	7	Sololá	710	Panajachel	8	Panajachel	3	Marzo	2023-11-03T00:00:00	2024-11-08T16:00:00	5	Humedad	84
24569	7	Sololá	710	Panajachel	8	Panajachel	3	Marzo	2023-11-03T00:00:00	2024-11-08T16:00:00	6	Velocidad del viento	4.8
24570	7	Sololá	710	Panajachel	8	Panajachel	3	Marzo	2023-11-03T00:00:00	2024-11-08T16:00:00	7	Dirección del viento	4.83
24571	7	Sololá	710	Panajachel	8	Panajachel	3	Marzo	2023-11-03T00:00:00	2024-11-08T16:00:00	1	Precipitación	0
24572	7	Sololá	710	Panajachel	8	Panajachel	3	Marzo	2023-11-03T00:00:00	2024-11-08T16:00:00	8	Radiación solar	100
24573	7	Sololá	710	Panajachel	8	Panajachel	3	Marzo	2023-11-03T00:00:00	2024-11-08T17:00:00	2	Temperatura media	20.3
24574	7	Sololá	710	Panajachel	8	Panajachel	3	Marzo	2023-11-03T00:00:00	2024-11-08T17:00:00	4	Temperatura máxima	20.4
24575	7	Sololá	710	Panajachel	8	Panajachel	3	Marzo	2023-11-03T00:00:00	2024-11-08T17:00:00	3	Temperatura mínima	19.4
24576	7	Sololá	710	Panajachel	8	Panajachel	3	Marzo	2023-11-03T00:00:00	2024-11-08T17:00:00	5	Humedad	81
24577	7	Sololá	710	Panajachel	8	Panajachel	3	Marzo	2023-11-03T00:00:00	2024-11-08T17:00:00	6	Velocidad del viento	1.6
24578	7	Sololá	710	Panajachel	8	Panajachel	3	Marzo	2023-11-03T00:00:00	2024-11-08T17:00:00	7	Dirección del viento	1.61
24579	7	Sololá	710	Panajachel	8	Panajachel	3	Marzo	2023-11-03T00:00:00	2024-11-08T17:00:00	1	Precipitación	0
24580	7	Sololá	710	Panajachel	8	Panajachel	3	Marzo	2023-11-03T00:00:00	2024-11-08T17:00:00	8	Radiación solar	147
24581	7	Sololá	710	Panajachel	8	Panajachel	3	Marzo	2023-11-03T00:00:00	2024-11-08T18:00:00	2	Temperatura media	19.4
24582	7	Sololá	710	Panajachel	8	Panajachel	3	Marzo	2023-11-03T00:00:00	2024-11-08T18:00:00	4	Temperatura máxima	20.3
24583	7	Sololá	710	Panajachel	8	Panajachel	3	Marzo	2023-11-03T00:00:00	2024-11-08T18:00:00	3	Temperatura mínima	19.4
24584	7	Sololá	710	Panajachel	8	Panajachel	3	Marzo	2023-11-03T00:00:00	2024-11-08T18:00:00	5	Humedad	84
24585	7	Sololá	710	Panajachel	8	Panajachel	3	Marzo	2023-11-03T00:00:00	2024-11-08T18:00:00	6	Velocidad del viento	3.2
24586	7	Sololá	710	Panajachel	8	Panajachel	3	Marzo	2023-11-03T00:00:00	2024-11-08T18:00:00	7	Dirección del viento	3.22
24587	7	Sololá	710	Panajachel	8	Panajachel	3	Marzo	2023-11-03T00:00:00	2024-11-08T18:00:00	1	Precipitación	0
24588	7	Sololá	710	Panajachel	8	Panajachel	3	Marzo	2023-11-03T00:00:00	2024-11-08T18:00:00	8	Radiación solar	61
24589	7	Sololá	710	Panajachel	8	Panajachel	3	Marzo	2023-11-03T00:00:00	2024-11-08T19:00:00	2	Temperatura media	19.1
24590	7	Sololá	710	Panajachel	8	Panajachel	3	Marzo	2023-11-03T00:00:00	2024-11-08T19:00:00	4	Temperatura máxima	19.4
24591	7	Sololá	710	Panajachel	8	Panajachel	3	Marzo	2023-11-03T00:00:00	2024-11-08T19:00:00	3	Temperatura mínima	19.1
24592	7	Sololá	710	Panajachel	8	Panajachel	3	Marzo	2023-11-03T00:00:00	2024-11-08T19:00:00	5	Humedad	87
24593	7	Sololá	710	Panajachel	8	Panajachel	3	Marzo	2023-11-03T00:00:00	2024-11-08T19:00:00	6	Velocidad del viento	1.6
24594	7	Sololá	710	Panajachel	8	Panajachel	3	Marzo	2023-11-03T00:00:00	2024-11-08T19:00:00	7	Dirección del viento	1.61
24595	7	Sololá	710	Panajachel	8	Panajachel	3	Marzo	2023-11-03T00:00:00	2024-11-08T19:00:00	1	Precipitación	0
24596	7	Sololá	710	Panajachel	8	Panajachel	3	Marzo	2023-11-03T00:00:00	2024-11-08T19:00:00	8	Radiación solar	0
24597	7	Sololá	710	Panajachel	8	Panajachel	3	Marzo	2023-11-03T00:00:00	2024-11-08T20:00:00	2	Temperatura media	18.7
24598	7	Sololá	710	Panajachel	8	Panajachel	3	Marzo	2023-11-03T00:00:00	2024-11-08T20:00:00	4	Temperatura máxima	19.1
24599	7	Sololá	710	Panajachel	8	Panajachel	3	Marzo	2023-11-03T00:00:00	2024-11-08T20:00:00	3	Temperatura mínima	18.7
24600	7	Sololá	710	Panajachel	8	Panajachel	3	Marzo	2023-11-03T00:00:00	2024-11-08T20:00:00	5	Humedad	89
24601	7	Sololá	710	Panajachel	8	Panajachel	3	Marzo	2023-11-03T00:00:00	2024-11-08T20:00:00	6	Velocidad del viento	1.6
24602	7	Sololá	710	Panajachel	8	Panajachel	3	Marzo	2023-11-03T00:00:00	2024-11-08T20:00:00	7	Dirección del viento	1.61
24603	7	Sololá	710	Panajachel	8	Panajachel	3	Marzo	2023-11-03T00:00:00	2024-11-08T20:00:00	1	Precipitación	0
24604	7	Sololá	710	Panajachel	8	Panajachel	3	Marzo	2023-11-03T00:00:00	2024-11-08T20:00:00	8	Radiación solar	0
24605	7	Sololá	710	Panajachel	8	Panajachel	3	Marzo	2023-11-03T00:00:00	2024-11-08T21:00:00	2	Temperatura media	18.2
24606	7	Sololá	710	Panajachel	8	Panajachel	3	Marzo	2023-11-03T00:00:00	2024-11-08T21:00:00	4	Temperatura máxima	18.7
24607	7	Sololá	710	Panajachel	8	Panajachel	3	Marzo	2023-11-03T00:00:00	2024-11-08T21:00:00	3	Temperatura mínima	18.2
24608	7	Sololá	710	Panajachel	8	Panajachel	3	Marzo	2023-11-03T00:00:00	2024-11-08T21:00:00	5	Humedad	92
24609	7	Sololá	710	Panajachel	8	Panajachel	3	Marzo	2023-11-03T00:00:00	2024-11-08T21:00:00	6	Velocidad del viento	3.2
24610	7	Sololá	710	Panajachel	8	Panajachel	3	Marzo	2023-11-03T00:00:00	2024-11-08T21:00:00	7	Dirección del viento	3.22
24611	7	Sololá	710	Panajachel	8	Panajachel	3	Marzo	2023-11-03T00:00:00	2024-11-08T21:00:00	1	Precipitación	0
24612	7	Sololá	710	Panajachel	8	Panajachel	3	Marzo	2023-11-03T00:00:00	2024-11-08T21:00:00	8	Radiación solar	0
24613	7	Sololá	710	Panajachel	8	Panajachel	3	Marzo	2023-11-03T00:00:00	2024-11-08T22:00:00	2	Temperatura media	16.9
24614	7	Sololá	710	Panajachel	8	Panajachel	3	Marzo	2023-11-03T00:00:00	2024-11-08T22:00:00	4	Temperatura máxima	18.2
24615	7	Sololá	710	Panajachel	8	Panajachel	3	Marzo	2023-11-03T00:00:00	2024-11-08T22:00:00	3	Temperatura mínima	16.8
24616	7	Sololá	710	Panajachel	8	Panajachel	3	Marzo	2023-11-03T00:00:00	2024-11-08T22:00:00	5	Humedad	95
24617	7	Sololá	710	Panajachel	8	Panajachel	3	Marzo	2023-11-03T00:00:00	2024-11-08T22:00:00	6	Velocidad del viento	3.2
24618	7	Sololá	710	Panajachel	8	Panajachel	3	Marzo	2023-11-03T00:00:00	2024-11-08T22:00:00	7	Dirección del viento	3.22
24619	7	Sololá	710	Panajachel	8	Panajachel	3	Marzo	2023-11-03T00:00:00	2024-11-08T22:00:00	1	Precipitación	0
24620	7	Sololá	710	Panajachel	8	Panajachel	3	Marzo	2023-11-03T00:00:00	2024-11-08T22:00:00	8	Radiación solar	0
24621	7	Sololá	710	Panajachel	8	Panajachel	3	Marzo	2023-11-03T00:00:00	2024-11-08T23:00:00	2	Temperatura media	17.1
24622	7	Sololá	710	Panajachel	8	Panajachel	3	Marzo	2023-11-03T00:00:00	2024-11-08T23:00:00	4	Temperatura máxima	17.1
24623	7	Sololá	710	Panajachel	8	Panajachel	3	Marzo	2023-11-03T00:00:00	2024-11-08T23:00:00	3	Temperatura mínima	16.7
24624	7	Sololá	710	Panajachel	8	Panajachel	3	Marzo	2023-11-03T00:00:00	2024-11-08T23:00:00	5	Humedad	93
24625	7	Sololá	710	Panajachel	8	Panajachel	3	Marzo	2023-11-03T00:00:00	2024-11-08T23:00:00	6	Velocidad del viento	1.6
24626	7	Sololá	710	Panajachel	8	Panajachel	3	Marzo	2023-11-03T00:00:00	2024-11-08T23:00:00	7	Dirección del viento	1.61
24627	7	Sololá	710	Panajachel	8	Panajachel	3	Marzo	2023-11-03T00:00:00	2024-11-08T23:00:00	1	Precipitación	0
24628	7	Sololá	710	Panajachel	8	Panajachel	3	Marzo	2023-11-03T00:00:00	2024-11-08T23:00:00	8	Radiación solar	0
24629	7	Sololá	710	Panajachel	8	Panajachel	3	Marzo	2023-12-03T00:00:00	2024-11-08T00:00:00	2	Temperatura media	17.4
24630	7	Sololá	710	Panajachel	8	Panajachel	3	Marzo	2023-12-03T00:00:00	2024-11-08T00:00:00	4	Temperatura máxima	17.4
24631	7	Sololá	710	Panajachel	8	Panajachel	3	Marzo	2023-12-03T00:00:00	2024-11-08T00:00:00	3	Temperatura mínima	17
24632	7	Sololá	710	Panajachel	8	Panajachel	3	Marzo	2023-12-03T00:00:00	2024-11-08T00:00:00	5	Humedad	91
24633	7	Sololá	710	Panajachel	8	Panajachel	3	Marzo	2023-12-03T00:00:00	2024-11-08T00:00:00	6	Velocidad del viento	0
24634	7	Sololá	710	Panajachel	8	Panajachel	3	Marzo	2023-12-03T00:00:00	2024-11-08T00:00:00	7	Dirección del viento	0
24635	7	Sololá	710	Panajachel	8	Panajachel	3	Marzo	2023-12-03T00:00:00	2024-11-08T00:00:00	1	Precipitación	0
24636	7	Sololá	710	Panajachel	8	Panajachel	3	Marzo	2023-12-03T00:00:00	2024-11-08T00:00:00	8	Radiación solar	0
24637	7	Sololá	710	Panajachel	8	Panajachel	3	Marzo	2023-12-03T00:00:00	2024-11-08T01:00:00	2	Temperatura media	17.5
24638	7	Sololá	710	Panajachel	8	Panajachel	3	Marzo	2023-12-03T00:00:00	2024-11-08T01:00:00	4	Temperatura máxima	17.5
24639	7	Sololá	710	Panajachel	8	Panajachel	3	Marzo	2023-12-03T00:00:00	2024-11-08T01:00:00	3	Temperatura mínima	17.3
24640	7	Sololá	710	Panajachel	8	Panajachel	3	Marzo	2023-12-03T00:00:00	2024-11-08T01:00:00	5	Humedad	91
24641	7	Sololá	710	Panajachel	8	Panajachel	3	Marzo	2023-12-03T00:00:00	2024-11-08T01:00:00	6	Velocidad del viento	0
24642	7	Sololá	710	Panajachel	8	Panajachel	3	Marzo	2023-12-03T00:00:00	2024-11-08T01:00:00	7	Dirección del viento	0
24643	7	Sololá	710	Panajachel	8	Panajachel	3	Marzo	2023-12-03T00:00:00	2024-11-08T01:00:00	1	Precipitación	0
24644	7	Sololá	710	Panajachel	8	Panajachel	3	Marzo	2023-12-03T00:00:00	2024-11-08T01:00:00	8	Radiación solar	0
24645	7	Sololá	710	Panajachel	8	Panajachel	3	Marzo	2023-12-03T00:00:00	2024-11-08T02:00:00	2	Temperatura media	17.4
24646	7	Sololá	710	Panajachel	8	Panajachel	3	Marzo	2023-12-03T00:00:00	2024-11-08T02:00:00	4	Temperatura máxima	17.6
24647	7	Sololá	710	Panajachel	8	Panajachel	3	Marzo	2023-12-03T00:00:00	2024-11-08T02:00:00	3	Temperatura mínima	17.4
24648	7	Sololá	710	Panajachel	8	Panajachel	3	Marzo	2023-12-03T00:00:00	2024-11-08T02:00:00	5	Humedad	91
24649	7	Sololá	710	Panajachel	8	Panajachel	3	Marzo	2023-12-03T00:00:00	2024-11-08T02:00:00	6	Velocidad del viento	0
24650	7	Sololá	710	Panajachel	8	Panajachel	3	Marzo	2023-12-03T00:00:00	2024-11-08T02:00:00	7	Dirección del viento	0
24651	7	Sololá	710	Panajachel	8	Panajachel	3	Marzo	2023-12-03T00:00:00	2024-11-08T02:00:00	1	Precipitación	0
24652	7	Sololá	710	Panajachel	8	Panajachel	3	Marzo	2023-12-03T00:00:00	2024-11-08T02:00:00	8	Radiación solar	0
24653	7	Sololá	710	Panajachel	8	Panajachel	3	Marzo	2023-12-03T00:00:00	2024-11-08T03:00:00	2	Temperatura media	17.5
24654	7	Sololá	710	Panajachel	8	Panajachel	3	Marzo	2023-12-03T00:00:00	2024-11-08T03:00:00	4	Temperatura máxima	17.5
24655	7	Sololá	710	Panajachel	8	Panajachel	3	Marzo	2023-12-03T00:00:00	2024-11-08T03:00:00	3	Temperatura mínima	17.3
24656	7	Sololá	710	Panajachel	8	Panajachel	3	Marzo	2023-12-03T00:00:00	2024-11-08T03:00:00	5	Humedad	89
24657	7	Sololá	710	Panajachel	8	Panajachel	3	Marzo	2023-12-03T00:00:00	2024-11-08T03:00:00	6	Velocidad del viento	0
24658	7	Sololá	710	Panajachel	8	Panajachel	3	Marzo	2023-12-03T00:00:00	2024-11-08T03:00:00	7	Dirección del viento	0
24659	7	Sololá	710	Panajachel	8	Panajachel	3	Marzo	2023-12-03T00:00:00	2024-11-08T03:00:00	1	Precipitación	0
24660	7	Sololá	710	Panajachel	8	Panajachel	3	Marzo	2023-12-03T00:00:00	2024-11-08T03:00:00	8	Radiación solar	0
24661	7	Sololá	710	Panajachel	8	Panajachel	3	Marzo	2023-12-03T00:00:00	2024-11-08T04:00:00	2	Temperatura media	17.4
24662	7	Sololá	710	Panajachel	8	Panajachel	3	Marzo	2023-12-03T00:00:00	2024-11-08T04:00:00	4	Temperatura máxima	17.6
24663	7	Sololá	710	Panajachel	8	Panajachel	3	Marzo	2023-12-03T00:00:00	2024-11-08T04:00:00	3	Temperatura mínima	17.4
24664	7	Sololá	710	Panajachel	8	Panajachel	3	Marzo	2023-12-03T00:00:00	2024-11-08T04:00:00	5	Humedad	88
24665	7	Sololá	710	Panajachel	8	Panajachel	3	Marzo	2023-12-03T00:00:00	2024-11-08T04:00:00	6	Velocidad del viento	1.6
24666	7	Sololá	710	Panajachel	8	Panajachel	3	Marzo	2023-12-03T00:00:00	2024-11-08T04:00:00	7	Dirección del viento	1.61
24667	7	Sololá	710	Panajachel	8	Panajachel	3	Marzo	2023-12-03T00:00:00	2024-11-08T04:00:00	1	Precipitación	0
24668	7	Sololá	710	Panajachel	8	Panajachel	3	Marzo	2023-12-03T00:00:00	2024-11-08T04:00:00	8	Radiación solar	0
24669	7	Sololá	710	Panajachel	8	Panajachel	3	Marzo	2023-12-03T00:00:00	2024-11-08T05:00:00	2	Temperatura media	17.4
24670	7	Sololá	710	Panajachel	8	Panajachel	3	Marzo	2023-12-03T00:00:00	2024-11-08T05:00:00	4	Temperatura máxima	17.6
24671	7	Sololá	710	Panajachel	8	Panajachel	3	Marzo	2023-12-03T00:00:00	2024-11-08T05:00:00	3	Temperatura mínima	17.4
24672	7	Sololá	710	Panajachel	8	Panajachel	3	Marzo	2023-12-03T00:00:00	2024-11-08T05:00:00	5	Humedad	87
24673	7	Sololá	710	Panajachel	8	Panajachel	3	Marzo	2023-12-03T00:00:00	2024-11-08T05:00:00	6	Velocidad del viento	1.6
24674	7	Sololá	710	Panajachel	8	Panajachel	3	Marzo	2023-12-03T00:00:00	2024-11-08T05:00:00	7	Dirección del viento	1.61
24675	7	Sololá	710	Panajachel	8	Panajachel	3	Marzo	2023-12-03T00:00:00	2024-11-08T05:00:00	1	Precipitación	0
24676	7	Sololá	710	Panajachel	8	Panajachel	3	Marzo	2023-12-03T00:00:00	2024-11-08T05:00:00	8	Radiación solar	0
24677	7	Sololá	710	Panajachel	8	Panajachel	3	Marzo	2023-12-03T00:00:00	2024-11-08T06:00:00	2	Temperatura media	17.3
24678	7	Sololá	710	Panajachel	8	Panajachel	3	Marzo	2023-12-03T00:00:00	2024-11-08T06:00:00	4	Temperatura máxima	17.6
24679	7	Sololá	710	Panajachel	8	Panajachel	3	Marzo	2023-12-03T00:00:00	2024-11-08T06:00:00	3	Temperatura mínima	17.3
24680	7	Sololá	710	Panajachel	8	Panajachel	3	Marzo	2023-12-03T00:00:00	2024-11-08T06:00:00	5	Humedad	88
24681	7	Sololá	710	Panajachel	8	Panajachel	3	Marzo	2023-12-03T00:00:00	2024-11-08T06:00:00	6	Velocidad del viento	3.2
24682	7	Sololá	710	Panajachel	8	Panajachel	3	Marzo	2023-12-03T00:00:00	2024-11-08T06:00:00	7	Dirección del viento	3.22
24683	7	Sololá	710	Panajachel	8	Panajachel	3	Marzo	2023-12-03T00:00:00	2024-11-08T06:00:00	1	Precipitación	0
24684	7	Sololá	710	Panajachel	8	Panajachel	3	Marzo	2023-12-03T00:00:00	2024-11-08T06:00:00	8	Radiación solar	0
24685	7	Sololá	710	Panajachel	8	Panajachel	3	Marzo	2023-12-03T00:00:00	2024-11-08T07:00:00	2	Temperatura media	17
24686	7	Sololá	710	Panajachel	8	Panajachel	3	Marzo	2023-12-03T00:00:00	2024-11-08T07:00:00	4	Temperatura máxima	17.3
24687	7	Sololá	710	Panajachel	8	Panajachel	3	Marzo	2023-12-03T00:00:00	2024-11-08T07:00:00	3	Temperatura mínima	16.9
24688	7	Sololá	710	Panajachel	8	Panajachel	3	Marzo	2023-12-03T00:00:00	2024-11-08T07:00:00	5	Humedad	87
24689	7	Sololá	710	Panajachel	8	Panajachel	3	Marzo	2023-12-03T00:00:00	2024-11-08T07:00:00	6	Velocidad del viento	1.6
24690	7	Sololá	710	Panajachel	8	Panajachel	3	Marzo	2023-12-03T00:00:00	2024-11-08T07:00:00	7	Dirección del viento	1.61
24691	7	Sololá	710	Panajachel	8	Panajachel	3	Marzo	2023-12-03T00:00:00	2024-11-08T07:00:00	1	Precipitación	0
24692	7	Sololá	710	Panajachel	8	Panajachel	3	Marzo	2023-12-03T00:00:00	2024-11-08T07:00:00	8	Radiación solar	2
24693	7	Sololá	710	Panajachel	8	Panajachel	3	Marzo	2023-12-03T00:00:00	2024-11-08T08:00:00	2	Temperatura media	17.3
24694	7	Sololá	710	Panajachel	8	Panajachel	3	Marzo	2023-12-03T00:00:00	2024-11-08T08:00:00	4	Temperatura máxima	17.4
24695	7	Sololá	710	Panajachel	8	Panajachel	3	Marzo	2023-12-03T00:00:00	2024-11-08T08:00:00	3	Temperatura mínima	16.9
24696	7	Sololá	710	Panajachel	8	Panajachel	3	Marzo	2023-12-03T00:00:00	2024-11-08T08:00:00	5	Humedad	87
24697	7	Sololá	710	Panajachel	8	Panajachel	3	Marzo	2023-12-03T00:00:00	2024-11-08T08:00:00	6	Velocidad del viento	0
24698	7	Sololá	710	Panajachel	8	Panajachel	3	Marzo	2023-12-03T00:00:00	2024-11-08T08:00:00	7	Dirección del viento	0
24699	7	Sololá	710	Panajachel	8	Panajachel	3	Marzo	2023-12-03T00:00:00	2024-11-08T08:00:00	1	Precipitación	0
24700	7	Sololá	710	Panajachel	8	Panajachel	3	Marzo	2023-12-03T00:00:00	2024-11-08T08:00:00	8	Radiación solar	36
24701	7	Sololá	710	Panajachel	8	Panajachel	3	Marzo	2023-12-03T00:00:00	2024-11-08T09:00:00	2	Temperatura media	18.3
24702	7	Sololá	710	Panajachel	8	Panajachel	3	Marzo	2023-12-03T00:00:00	2024-11-08T09:00:00	4	Temperatura máxima	18.3
24703	7	Sololá	710	Panajachel	8	Panajachel	3	Marzo	2023-12-03T00:00:00	2024-11-08T09:00:00	3	Temperatura mínima	17.3
24704	7	Sololá	710	Panajachel	8	Panajachel	3	Marzo	2023-12-03T00:00:00	2024-11-08T09:00:00	5	Humedad	83
24705	7	Sololá	710	Panajachel	8	Panajachel	3	Marzo	2023-12-03T00:00:00	2024-11-08T09:00:00	6	Velocidad del viento	1.6
24706	7	Sololá	710	Panajachel	8	Panajachel	3	Marzo	2023-12-03T00:00:00	2024-11-08T09:00:00	7	Dirección del viento	1.61
24707	7	Sololá	710	Panajachel	8	Panajachel	3	Marzo	2023-12-03T00:00:00	2024-11-08T09:00:00	1	Precipitación	0
24708	7	Sololá	710	Panajachel	8	Panajachel	3	Marzo	2023-12-03T00:00:00	2024-11-08T09:00:00	8	Radiación solar	102
24709	7	Sololá	710	Panajachel	8	Panajachel	3	Marzo	2023-12-03T00:00:00	2024-11-08T10:00:00	2	Temperatura media	18.8
24710	7	Sololá	710	Panajachel	8	Panajachel	3	Marzo	2023-12-03T00:00:00	2024-11-08T10:00:00	4	Temperatura máxima	19.1
24711	7	Sololá	710	Panajachel	8	Panajachel	3	Marzo	2023-12-03T00:00:00	2024-11-08T10:00:00	3	Temperatura mínima	18.3
24712	7	Sololá	710	Panajachel	8	Panajachel	3	Marzo	2023-12-03T00:00:00	2024-11-08T10:00:00	5	Humedad	81
24713	7	Sololá	710	Panajachel	8	Panajachel	3	Marzo	2023-12-03T00:00:00	2024-11-08T10:00:00	6	Velocidad del viento	1.6
24714	7	Sololá	710	Panajachel	8	Panajachel	3	Marzo	2023-12-03T00:00:00	2024-11-08T10:00:00	7	Dirección del viento	1.61
24715	7	Sololá	710	Panajachel	8	Panajachel	3	Marzo	2023-12-03T00:00:00	2024-11-08T10:00:00	1	Precipitación	0
24716	7	Sololá	710	Panajachel	8	Panajachel	3	Marzo	2023-12-03T00:00:00	2024-11-08T10:00:00	8	Radiación solar	316
24717	7	Sololá	710	Panajachel	8	Panajachel	3	Marzo	2023-12-03T00:00:00	2024-11-08T11:00:00	2	Temperatura media	20.1
24718	7	Sololá	710	Panajachel	8	Panajachel	3	Marzo	2023-12-03T00:00:00	2024-11-08T11:00:00	4	Temperatura máxima	20.4
24719	7	Sololá	710	Panajachel	8	Panajachel	3	Marzo	2023-12-03T00:00:00	2024-11-08T11:00:00	3	Temperatura mínima	18.8
24720	7	Sololá	710	Panajachel	8	Panajachel	3	Marzo	2023-12-03T00:00:00	2024-11-08T11:00:00	5	Humedad	78
24721	7	Sololá	710	Panajachel	8	Panajachel	3	Marzo	2023-12-03T00:00:00	2024-11-08T11:00:00	6	Velocidad del viento	3.2
24722	7	Sololá	710	Panajachel	8	Panajachel	3	Marzo	2023-12-03T00:00:00	2024-11-08T11:00:00	7	Dirección del viento	3.22
24723	7	Sololá	710	Panajachel	8	Panajachel	3	Marzo	2023-12-03T00:00:00	2024-11-08T11:00:00	1	Precipitación	0
24724	7	Sololá	710	Panajachel	8	Panajachel	3	Marzo	2023-12-03T00:00:00	2024-11-08T11:00:00	8	Radiación solar	513
24725	7	Sololá	710	Panajachel	8	Panajachel	3	Marzo	2023-12-03T00:00:00	2024-11-08T12:00:00	2	Temperatura media	20
24726	7	Sololá	710	Panajachel	8	Panajachel	3	Marzo	2023-12-03T00:00:00	2024-11-08T12:00:00	4	Temperatura máxima	20.9
24727	7	Sololá	710	Panajachel	8	Panajachel	3	Marzo	2023-12-03T00:00:00	2024-11-08T12:00:00	3	Temperatura mínima	19.7
24728	7	Sololá	710	Panajachel	8	Panajachel	3	Marzo	2023-12-03T00:00:00	2024-11-08T12:00:00	5	Humedad	78
24729	7	Sololá	710	Panajachel	8	Panajachel	3	Marzo	2023-12-03T00:00:00	2024-11-08T12:00:00	6	Velocidad del viento	3.2
24730	7	Sololá	710	Panajachel	8	Panajachel	3	Marzo	2023-12-03T00:00:00	2024-11-08T12:00:00	7	Dirección del viento	3.22
24731	7	Sololá	710	Panajachel	8	Panajachel	3	Marzo	2023-12-03T00:00:00	2024-11-08T12:00:00	1	Precipitación	0
24732	7	Sololá	710	Panajachel	8	Panajachel	3	Marzo	2023-12-03T00:00:00	2024-11-08T12:00:00	8	Radiación solar	407
24733	7	Sololá	710	Panajachel	8	Panajachel	3	Marzo	2023-12-03T00:00:00	2024-11-08T13:00:00	2	Temperatura media	20.6
24734	7	Sololá	710	Panajachel	8	Panajachel	3	Marzo	2023-12-03T00:00:00	2024-11-08T13:00:00	4	Temperatura máxima	20.6
24735	7	Sololá	710	Panajachel	8	Panajachel	3	Marzo	2023-12-03T00:00:00	2024-11-08T13:00:00	3	Temperatura mínima	19.9
24736	7	Sololá	710	Panajachel	8	Panajachel	3	Marzo	2023-12-03T00:00:00	2024-11-08T13:00:00	5	Humedad	76
24737	7	Sololá	710	Panajachel	8	Panajachel	3	Marzo	2023-12-03T00:00:00	2024-11-08T13:00:00	6	Velocidad del viento	1.6
24738	7	Sololá	710	Panajachel	8	Panajachel	3	Marzo	2023-12-03T00:00:00	2024-11-08T13:00:00	7	Dirección del viento	1.61
24739	7	Sololá	710	Panajachel	8	Panajachel	3	Marzo	2023-12-03T00:00:00	2024-11-08T13:00:00	1	Precipitación	0
24740	7	Sololá	710	Panajachel	8	Panajachel	3	Marzo	2023-12-03T00:00:00	2024-11-08T13:00:00	8	Radiación solar	254
24741	7	Sololá	710	Panajachel	8	Panajachel	3	Marzo	2023-12-03T00:00:00	2024-11-08T14:00:00	2	Temperatura media	19.6
24742	7	Sololá	710	Panajachel	8	Panajachel	3	Marzo	2023-12-03T00:00:00	2024-11-08T14:00:00	4	Temperatura máxima	20.6
24743	7	Sololá	710	Panajachel	8	Panajachel	3	Marzo	2023-12-03T00:00:00	2024-11-08T14:00:00	3	Temperatura mínima	19.6
24744	7	Sololá	710	Panajachel	8	Panajachel	3	Marzo	2023-12-03T00:00:00	2024-11-08T14:00:00	5	Humedad	82
24745	7	Sololá	710	Panajachel	8	Panajachel	3	Marzo	2023-12-03T00:00:00	2024-11-08T14:00:00	6	Velocidad del viento	3.2
24746	7	Sololá	710	Panajachel	8	Panajachel	3	Marzo	2023-12-03T00:00:00	2024-11-08T14:00:00	7	Dirección del viento	3.22
24747	7	Sololá	710	Panajachel	8	Panajachel	3	Marzo	2023-12-03T00:00:00	2024-11-08T14:00:00	1	Precipitación	0
24748	7	Sololá	710	Panajachel	8	Panajachel	3	Marzo	2023-12-03T00:00:00	2024-11-08T14:00:00	8	Radiación solar	124
24749	7	Sololá	710	Panajachel	8	Panajachel	3	Marzo	2023-12-03T00:00:00	2024-11-08T15:00:00	2	Temperatura media	20.1
24750	7	Sololá	710	Panajachel	8	Panajachel	3	Marzo	2023-12-03T00:00:00	2024-11-08T15:00:00	4	Temperatura máxima	20.5
24751	7	Sololá	710	Panajachel	8	Panajachel	3	Marzo	2023-12-03T00:00:00	2024-11-08T15:00:00	3	Temperatura mínima	19.6
24752	7	Sololá	710	Panajachel	8	Panajachel	3	Marzo	2023-12-03T00:00:00	2024-11-08T15:00:00	5	Humedad	83
24753	7	Sololá	710	Panajachel	8	Panajachel	3	Marzo	2023-12-03T00:00:00	2024-11-08T15:00:00	6	Velocidad del viento	3.2
24754	7	Sololá	710	Panajachel	8	Panajachel	3	Marzo	2023-12-03T00:00:00	2024-11-08T15:00:00	7	Dirección del viento	3.22
24755	7	Sololá	710	Panajachel	8	Panajachel	3	Marzo	2023-12-03T00:00:00	2024-11-08T15:00:00	1	Precipitación	0
24756	7	Sololá	710	Panajachel	8	Panajachel	3	Marzo	2023-12-03T00:00:00	2024-11-08T15:00:00	8	Radiación solar	304
24757	7	Sololá	710	Panajachel	8	Panajachel	3	Marzo	2023-12-03T00:00:00	2024-11-08T16:00:00	2	Temperatura media	18.8
24758	7	Sololá	710	Panajachel	8	Panajachel	3	Marzo	2023-12-03T00:00:00	2024-11-08T16:00:00	4	Temperatura máxima	20.1
24759	7	Sololá	710	Panajachel	8	Panajachel	3	Marzo	2023-12-03T00:00:00	2024-11-08T16:00:00	3	Temperatura mínima	18.8
24760	7	Sololá	710	Panajachel	8	Panajachel	3	Marzo	2023-12-03T00:00:00	2024-11-08T16:00:00	5	Humedad	85
24761	7	Sololá	710	Panajachel	8	Panajachel	3	Marzo	2023-12-03T00:00:00	2024-11-08T16:00:00	6	Velocidad del viento	4.8
24762	7	Sololá	710	Panajachel	8	Panajachel	3	Marzo	2023-12-03T00:00:00	2024-11-08T16:00:00	7	Dirección del viento	4.83
24763	7	Sololá	710	Panajachel	8	Panajachel	3	Marzo	2023-12-03T00:00:00	2024-11-08T16:00:00	1	Precipitación	0
24764	7	Sololá	710	Panajachel	8	Panajachel	3	Marzo	2023-12-03T00:00:00	2024-11-08T16:00:00	8	Radiación solar	112
24765	7	Sololá	710	Panajachel	8	Panajachel	3	Marzo	2023-12-03T00:00:00	2024-11-08T17:00:00	2	Temperatura media	18.6
24766	7	Sololá	710	Panajachel	8	Panajachel	3	Marzo	2023-12-03T00:00:00	2024-11-08T17:00:00	4	Temperatura máxima	18.8
24767	7	Sololá	710	Panajachel	8	Panajachel	3	Marzo	2023-12-03T00:00:00	2024-11-08T17:00:00	3	Temperatura mínima	18.6
24768	7	Sololá	710	Panajachel	8	Panajachel	3	Marzo	2023-12-03T00:00:00	2024-11-08T17:00:00	5	Humedad	86
24769	7	Sololá	710	Panajachel	8	Panajachel	3	Marzo	2023-12-03T00:00:00	2024-11-08T17:00:00	6	Velocidad del viento	3.2
24770	7	Sololá	710	Panajachel	8	Panajachel	3	Marzo	2023-12-03T00:00:00	2024-11-08T17:00:00	7	Dirección del viento	3.22
24771	7	Sololá	710	Panajachel	8	Panajachel	3	Marzo	2023-12-03T00:00:00	2024-11-08T17:00:00	1	Precipitación	0
24772	7	Sololá	710	Panajachel	8	Panajachel	3	Marzo	2023-12-03T00:00:00	2024-11-08T17:00:00	8	Radiación solar	18
24773	7	Sololá	710	Panajachel	8	Panajachel	3	Marzo	2023-12-03T00:00:00	2024-11-08T18:00:00	2	Temperatura media	19
24774	7	Sololá	710	Panajachel	8	Panajachel	3	Marzo	2023-12-03T00:00:00	2024-11-08T18:00:00	4	Temperatura máxima	19.1
24775	7	Sololá	710	Panajachel	8	Panajachel	3	Marzo	2023-12-03T00:00:00	2024-11-08T18:00:00	3	Temperatura mínima	18.6
24776	7	Sololá	710	Panajachel	8	Panajachel	3	Marzo	2023-12-03T00:00:00	2024-11-08T18:00:00	5	Humedad	85
24777	7	Sololá	710	Panajachel	8	Panajachel	3	Marzo	2023-12-03T00:00:00	2024-11-08T18:00:00	6	Velocidad del viento	0
24778	7	Sololá	710	Panajachel	8	Panajachel	3	Marzo	2023-12-03T00:00:00	2024-11-08T18:00:00	7	Dirección del viento	0
24779	7	Sololá	710	Panajachel	8	Panajachel	3	Marzo	2023-12-03T00:00:00	2024-11-08T18:00:00	1	Precipitación	0
24780	7	Sololá	710	Panajachel	8	Panajachel	3	Marzo	2023-12-03T00:00:00	2024-11-08T18:00:00	8	Radiación solar	30
24781	7	Sololá	710	Panajachel	8	Panajachel	3	Marzo	2023-12-03T00:00:00	2024-11-08T19:00:00	2	Temperatura media	18.7
24782	7	Sololá	710	Panajachel	8	Panajachel	3	Marzo	2023-12-03T00:00:00	2024-11-08T19:00:00	4	Temperatura máxima	19.1
24783	7	Sololá	710	Panajachel	8	Panajachel	3	Marzo	2023-12-03T00:00:00	2024-11-08T19:00:00	3	Temperatura mínima	18.7
24784	7	Sololá	710	Panajachel	8	Panajachel	3	Marzo	2023-12-03T00:00:00	2024-11-08T19:00:00	5	Humedad	86
24785	7	Sololá	710	Panajachel	8	Panajachel	3	Marzo	2023-12-03T00:00:00	2024-11-08T19:00:00	6	Velocidad del viento	0
24786	7	Sololá	710	Panajachel	8	Panajachel	3	Marzo	2023-12-03T00:00:00	2024-11-08T19:00:00	7	Dirección del viento	0
24787	7	Sololá	710	Panajachel	8	Panajachel	3	Marzo	2023-12-03T00:00:00	2024-11-08T19:00:00	1	Precipitación	0
24788	7	Sololá	710	Panajachel	8	Panajachel	3	Marzo	2023-12-03T00:00:00	2024-11-08T19:00:00	8	Radiación solar	0
24789	7	Sololá	710	Panajachel	8	Panajachel	3	Marzo	2023-12-03T00:00:00	2024-11-08T20:00:00	2	Temperatura media	18.8
24790	7	Sololá	710	Panajachel	8	Panajachel	3	Marzo	2023-12-03T00:00:00	2024-11-08T20:00:00	4	Temperatura máxima	18.8
24791	7	Sololá	710	Panajachel	8	Panajachel	3	Marzo	2023-12-03T00:00:00	2024-11-08T20:00:00	3	Temperatura mínima	18.7
24792	7	Sololá	710	Panajachel	8	Panajachel	3	Marzo	2023-12-03T00:00:00	2024-11-08T20:00:00	5	Humedad	87
24793	7	Sololá	710	Panajachel	8	Panajachel	3	Marzo	2023-12-03T00:00:00	2024-11-08T20:00:00	6	Velocidad del viento	0
24794	7	Sololá	710	Panajachel	8	Panajachel	3	Marzo	2023-12-03T00:00:00	2024-11-08T20:00:00	7	Dirección del viento	0
24795	7	Sololá	710	Panajachel	8	Panajachel	3	Marzo	2023-12-03T00:00:00	2024-11-08T20:00:00	1	Precipitación	0
24796	7	Sololá	710	Panajachel	8	Panajachel	3	Marzo	2023-12-03T00:00:00	2024-11-08T20:00:00	8	Radiación solar	0
24797	7	Sololá	710	Panajachel	8	Panajachel	3	Marzo	2023-12-03T00:00:00	2024-11-08T21:00:00	2	Temperatura media	18.8
24798	7	Sololá	710	Panajachel	8	Panajachel	3	Marzo	2023-12-03T00:00:00	2024-11-08T21:00:00	4	Temperatura máxima	18.8
24799	7	Sololá	710	Panajachel	8	Panajachel	3	Marzo	2023-12-03T00:00:00	2024-11-08T21:00:00	3	Temperatura mínima	18.7
24800	7	Sololá	710	Panajachel	8	Panajachel	3	Marzo	2023-12-03T00:00:00	2024-11-08T21:00:00	5	Humedad	88
24801	7	Sololá	710	Panajachel	8	Panajachel	3	Marzo	2023-12-03T00:00:00	2024-11-08T21:00:00	6	Velocidad del viento	0
24802	7	Sololá	710	Panajachel	8	Panajachel	3	Marzo	2023-12-03T00:00:00	2024-11-08T21:00:00	7	Dirección del viento	0
24803	7	Sololá	710	Panajachel	8	Panajachel	3	Marzo	2023-12-03T00:00:00	2024-11-08T21:00:00	1	Precipitación	0
24804	7	Sololá	710	Panajachel	8	Panajachel	3	Marzo	2023-12-03T00:00:00	2024-11-08T21:00:00	8	Radiación solar	0
24805	7	Sololá	710	Panajachel	8	Panajachel	3	Marzo	2023-12-03T00:00:00	2024-11-08T22:00:00	2	Temperatura media	18.4
24806	7	Sololá	710	Panajachel	8	Panajachel	3	Marzo	2023-12-03T00:00:00	2024-11-08T22:00:00	4	Temperatura máxima	18.8
24807	7	Sololá	710	Panajachel	8	Panajachel	3	Marzo	2023-12-03T00:00:00	2024-11-08T22:00:00	3	Temperatura mínima	18.4
24808	7	Sololá	710	Panajachel	8	Panajachel	3	Marzo	2023-12-03T00:00:00	2024-11-08T22:00:00	5	Humedad	89
24809	7	Sololá	710	Panajachel	8	Panajachel	3	Marzo	2023-12-03T00:00:00	2024-11-08T22:00:00	6	Velocidad del viento	1.6
24810	7	Sololá	710	Panajachel	8	Panajachel	3	Marzo	2023-12-03T00:00:00	2024-11-08T22:00:00	7	Dirección del viento	1.61
24811	7	Sololá	710	Panajachel	8	Panajachel	3	Marzo	2023-12-03T00:00:00	2024-11-08T22:00:00	1	Precipitación	0
24812	7	Sololá	710	Panajachel	8	Panajachel	3	Marzo	2023-12-03T00:00:00	2024-11-08T22:00:00	8	Radiación solar	0
24813	7	Sololá	710	Panajachel	8	Panajachel	3	Marzo	2023-12-03T00:00:00	2024-11-08T23:00:00	2	Temperatura media	18.3
24814	7	Sololá	710	Panajachel	8	Panajachel	3	Marzo	2023-12-03T00:00:00	2024-11-08T23:00:00	4	Temperatura máxima	18.6
24815	7	Sololá	710	Panajachel	8	Panajachel	3	Marzo	2023-12-03T00:00:00	2024-11-08T23:00:00	3	Temperatura mínima	18.3
24816	7	Sololá	710	Panajachel	8	Panajachel	3	Marzo	2023-12-03T00:00:00	2024-11-08T23:00:00	5	Humedad	84
24817	7	Sololá	710	Panajachel	8	Panajachel	3	Marzo	2023-12-03T00:00:00	2024-11-08T23:00:00	6	Velocidad del viento	4.8
24818	7	Sololá	710	Panajachel	8	Panajachel	3	Marzo	2023-12-03T00:00:00	2024-11-08T23:00:00	7	Dirección del viento	4.83
24819	7	Sololá	710	Panajachel	8	Panajachel	3	Marzo	2023-12-03T00:00:00	2024-11-08T23:00:00	1	Precipitación	0
24820	7	Sololá	710	Panajachel	8	Panajachel	3	Marzo	2023-12-03T00:00:00	2024-11-08T23:00:00	8	Radiación solar	0
24821	7	Sololá	710	Panajachel	8	Panajachel	3	Marzo	2023-03-13T00:00:00	2024-11-08T00:00:00	2	Temperatura media	18
24822	7	Sololá	710	Panajachel	8	Panajachel	3	Marzo	2023-03-13T00:00:00	2024-11-08T00:00:00	4	Temperatura máxima	18.4
24823	7	Sololá	710	Panajachel	8	Panajachel	3	Marzo	2023-03-13T00:00:00	2024-11-08T00:00:00	3	Temperatura mínima	18
24824	7	Sololá	710	Panajachel	8	Panajachel	3	Marzo	2023-03-13T00:00:00	2024-11-08T00:00:00	5	Humedad	83
24825	7	Sololá	710	Panajachel	8	Panajachel	3	Marzo	2023-03-13T00:00:00	2024-11-08T00:00:00	6	Velocidad del viento	1.6
24826	7	Sololá	710	Panajachel	8	Panajachel	3	Marzo	2023-03-13T00:00:00	2024-11-08T00:00:00	7	Dirección del viento	1.61
24827	7	Sololá	710	Panajachel	8	Panajachel	3	Marzo	2023-03-13T00:00:00	2024-11-08T00:00:00	1	Precipitación	0
24828	7	Sololá	710	Panajachel	8	Panajachel	3	Marzo	2023-03-13T00:00:00	2024-11-08T00:00:00	8	Radiación solar	0
24829	7	Sololá	710	Panajachel	8	Panajachel	3	Marzo	2023-03-13T00:00:00	2024-11-08T01:00:00	2	Temperatura media	16.9
24830	7	Sololá	710	Panajachel	8	Panajachel	3	Marzo	2023-03-13T00:00:00	2024-11-08T01:00:00	4	Temperatura máxima	18
24831	7	Sololá	710	Panajachel	8	Panajachel	3	Marzo	2023-03-13T00:00:00	2024-11-08T01:00:00	3	Temperatura mínima	16.8
24832	7	Sololá	710	Panajachel	8	Panajachel	3	Marzo	2023-03-13T00:00:00	2024-11-08T01:00:00	5	Humedad	88
24833	7	Sololá	710	Panajachel	8	Panajachel	3	Marzo	2023-03-13T00:00:00	2024-11-08T01:00:00	6	Velocidad del viento	1.6
24834	7	Sololá	710	Panajachel	8	Panajachel	3	Marzo	2023-03-13T00:00:00	2024-11-08T01:00:00	7	Dirección del viento	1.61
24835	7	Sololá	710	Panajachel	8	Panajachel	3	Marzo	2023-03-13T00:00:00	2024-11-08T01:00:00	1	Precipitación	0
24836	7	Sololá	710	Panajachel	8	Panajachel	3	Marzo	2023-03-13T00:00:00	2024-11-08T01:00:00	8	Radiación solar	0
24837	7	Sololá	710	Panajachel	8	Panajachel	3	Marzo	2023-03-13T00:00:00	2024-11-08T02:00:00	2	Temperatura media	17
24838	7	Sololá	710	Panajachel	8	Panajachel	3	Marzo	2023-03-13T00:00:00	2024-11-08T02:00:00	4	Temperatura máxima	17.1
24839	7	Sololá	710	Panajachel	8	Panajachel	3	Marzo	2023-03-13T00:00:00	2024-11-08T02:00:00	3	Temperatura mínima	16.8
24840	7	Sololá	710	Panajachel	8	Panajachel	3	Marzo	2023-03-13T00:00:00	2024-11-08T02:00:00	5	Humedad	87
24841	7	Sololá	710	Panajachel	8	Panajachel	3	Marzo	2023-03-13T00:00:00	2024-11-08T02:00:00	6	Velocidad del viento	1.6
24842	7	Sololá	710	Panajachel	8	Panajachel	3	Marzo	2023-03-13T00:00:00	2024-11-08T02:00:00	7	Dirección del viento	1.61
24843	7	Sololá	710	Panajachel	8	Panajachel	3	Marzo	2023-03-13T00:00:00	2024-11-08T02:00:00	1	Precipitación	0
24844	7	Sololá	710	Panajachel	8	Panajachel	3	Marzo	2023-03-13T00:00:00	2024-11-08T02:00:00	8	Radiación solar	0
24845	7	Sololá	710	Panajachel	8	Panajachel	3	Marzo	2023-03-13T00:00:00	2024-11-08T03:00:00	2	Temperatura media	15.7
24846	7	Sololá	710	Panajachel	8	Panajachel	3	Marzo	2023-03-13T00:00:00	2024-11-08T03:00:00	4	Temperatura máxima	17
24847	7	Sololá	710	Panajachel	8	Panajachel	3	Marzo	2023-03-13T00:00:00	2024-11-08T03:00:00	3	Temperatura mínima	15.7
24848	7	Sololá	710	Panajachel	8	Panajachel	3	Marzo	2023-03-13T00:00:00	2024-11-08T03:00:00	5	Humedad	90
24849	7	Sololá	710	Panajachel	8	Panajachel	3	Marzo	2023-03-13T00:00:00	2024-11-08T03:00:00	6	Velocidad del viento	1.6
24850	7	Sololá	710	Panajachel	8	Panajachel	3	Marzo	2023-03-13T00:00:00	2024-11-08T03:00:00	7	Dirección del viento	1.61
24851	7	Sololá	710	Panajachel	8	Panajachel	3	Marzo	2023-03-13T00:00:00	2024-11-08T03:00:00	1	Precipitación	0
24852	7	Sololá	710	Panajachel	8	Panajachel	3	Marzo	2023-03-13T00:00:00	2024-11-08T03:00:00	8	Radiación solar	0
24853	7	Sololá	710	Panajachel	8	Panajachel	3	Marzo	2023-03-13T00:00:00	2024-11-08T04:00:00	2	Temperatura media	15.2
24854	7	Sololá	710	Panajachel	8	Panajachel	3	Marzo	2023-03-13T00:00:00	2024-11-08T04:00:00	4	Temperatura máxima	15.7
24855	7	Sololá	710	Panajachel	8	Panajachel	3	Marzo	2023-03-13T00:00:00	2024-11-08T04:00:00	3	Temperatura mínima	15.2
24856	7	Sololá	710	Panajachel	8	Panajachel	3	Marzo	2023-03-13T00:00:00	2024-11-08T04:00:00	5	Humedad	90
24857	7	Sololá	710	Panajachel	8	Panajachel	3	Marzo	2023-03-13T00:00:00	2024-11-08T04:00:00	6	Velocidad del viento	1.6
24858	7	Sololá	710	Panajachel	8	Panajachel	3	Marzo	2023-03-13T00:00:00	2024-11-08T04:00:00	7	Dirección del viento	1.61
24859	7	Sololá	710	Panajachel	8	Panajachel	3	Marzo	2023-03-13T00:00:00	2024-11-08T04:00:00	1	Precipitación	0
24860	7	Sololá	710	Panajachel	8	Panajachel	3	Marzo	2023-03-13T00:00:00	2024-11-08T04:00:00	8	Radiación solar	0
24861	7	Sololá	710	Panajachel	8	Panajachel	3	Marzo	2023-03-13T00:00:00	2024-11-08T05:00:00	2	Temperatura media	15.3
24862	7	Sololá	710	Panajachel	8	Panajachel	3	Marzo	2023-03-13T00:00:00	2024-11-08T05:00:00	4	Temperatura máxima	15.3
24863	7	Sololá	710	Panajachel	8	Panajachel	3	Marzo	2023-03-13T00:00:00	2024-11-08T05:00:00	3	Temperatura mínima	15.1
24864	7	Sololá	710	Panajachel	8	Panajachel	3	Marzo	2023-03-13T00:00:00	2024-11-08T05:00:00	5	Humedad	88
24865	7	Sololá	710	Panajachel	8	Panajachel	3	Marzo	2023-03-13T00:00:00	2024-11-08T05:00:00	6	Velocidad del viento	3.2
24866	7	Sololá	710	Panajachel	8	Panajachel	3	Marzo	2023-03-13T00:00:00	2024-11-08T05:00:00	7	Dirección del viento	3.22
24867	7	Sololá	710	Panajachel	8	Panajachel	3	Marzo	2023-03-13T00:00:00	2024-11-08T05:00:00	1	Precipitación	0
24868	7	Sololá	710	Panajachel	8	Panajachel	3	Marzo	2023-03-13T00:00:00	2024-11-08T05:00:00	8	Radiación solar	0
24869	7	Sololá	710	Panajachel	8	Panajachel	3	Marzo	2023-03-13T00:00:00	2024-11-08T06:00:00	2	Temperatura media	14.7
24870	7	Sololá	710	Panajachel	8	Panajachel	3	Marzo	2023-03-13T00:00:00	2024-11-08T06:00:00	4	Temperatura máxima	15.3
24871	7	Sololá	710	Panajachel	8	Panajachel	3	Marzo	2023-03-13T00:00:00	2024-11-08T06:00:00	3	Temperatura mínima	14.7
24872	7	Sololá	710	Panajachel	8	Panajachel	3	Marzo	2023-03-13T00:00:00	2024-11-08T06:00:00	5	Humedad	90
24873	7	Sololá	710	Panajachel	8	Panajachel	3	Marzo	2023-03-13T00:00:00	2024-11-08T06:00:00	6	Velocidad del viento	1.6
24874	7	Sololá	710	Panajachel	8	Panajachel	3	Marzo	2023-03-13T00:00:00	2024-11-08T06:00:00	7	Dirección del viento	1.61
24875	7	Sololá	710	Panajachel	8	Panajachel	3	Marzo	2023-03-13T00:00:00	2024-11-08T06:00:00	1	Precipitación	0
24876	7	Sololá	710	Panajachel	8	Panajachel	3	Marzo	2023-03-13T00:00:00	2024-11-08T06:00:00	8	Radiación solar	0
24877	7	Sololá	710	Panajachel	8	Panajachel	3	Marzo	2023-03-13T00:00:00	2024-11-08T07:00:00	2	Temperatura media	14.8
24878	7	Sololá	710	Panajachel	8	Panajachel	3	Marzo	2023-03-13T00:00:00	2024-11-08T07:00:00	4	Temperatura máxima	14.8
24879	7	Sololá	710	Panajachel	8	Panajachel	3	Marzo	2023-03-13T00:00:00	2024-11-08T07:00:00	3	Temperatura mínima	14.4
24880	7	Sololá	710	Panajachel	8	Panajachel	3	Marzo	2023-03-13T00:00:00	2024-11-08T07:00:00	5	Humedad	88
24881	7	Sololá	710	Panajachel	8	Panajachel	3	Marzo	2023-03-13T00:00:00	2024-11-08T07:00:00	6	Velocidad del viento	3.2
24882	7	Sololá	710	Panajachel	8	Panajachel	3	Marzo	2023-03-13T00:00:00	2024-11-08T07:00:00	7	Dirección del viento	3.22
24883	7	Sololá	710	Panajachel	8	Panajachel	3	Marzo	2023-03-13T00:00:00	2024-11-08T07:00:00	1	Precipitación	0
24884	7	Sololá	710	Panajachel	8	Panajachel	3	Marzo	2023-03-13T00:00:00	2024-11-08T07:00:00	8	Radiación solar	18
24885	7	Sololá	710	Panajachel	8	Panajachel	3	Marzo	2023-03-13T00:00:00	2024-11-08T08:00:00	2	Temperatura media	17.9
24886	7	Sololá	710	Panajachel	8	Panajachel	3	Marzo	2023-03-13T00:00:00	2024-11-08T08:00:00	4	Temperatura máxima	17.9
24887	7	Sololá	710	Panajachel	8	Panajachel	3	Marzo	2023-03-13T00:00:00	2024-11-08T08:00:00	3	Temperatura mínima	14.8
24888	7	Sololá	710	Panajachel	8	Panajachel	3	Marzo	2023-03-13T00:00:00	2024-11-08T08:00:00	5	Humedad	82
24889	7	Sololá	710	Panajachel	8	Panajachel	3	Marzo	2023-03-13T00:00:00	2024-11-08T08:00:00	6	Velocidad del viento	3.2
24890	7	Sololá	710	Panajachel	8	Panajachel	3	Marzo	2023-03-13T00:00:00	2024-11-08T08:00:00	7	Dirección del viento	3.22
24891	7	Sololá	710	Panajachel	8	Panajachel	3	Marzo	2023-03-13T00:00:00	2024-11-08T08:00:00	1	Precipitación	0
24892	7	Sololá	710	Panajachel	8	Panajachel	3	Marzo	2023-03-13T00:00:00	2024-11-08T08:00:00	8	Radiación solar	212
24893	7	Sololá	710	Panajachel	8	Panajachel	3	Marzo	2023-03-13T00:00:00	2024-11-08T09:00:00	2	Temperatura media	19.5
24894	7	Sololá	710	Panajachel	8	Panajachel	3	Marzo	2023-03-13T00:00:00	2024-11-08T09:00:00	4	Temperatura máxima	19.5
24895	7	Sololá	710	Panajachel	8	Panajachel	3	Marzo	2023-03-13T00:00:00	2024-11-08T09:00:00	3	Temperatura mínima	17.9
24896	7	Sololá	710	Panajachel	8	Panajachel	3	Marzo	2023-03-13T00:00:00	2024-11-08T09:00:00	5	Humedad	78
24897	7	Sololá	710	Panajachel	8	Panajachel	3	Marzo	2023-03-13T00:00:00	2024-11-08T09:00:00	6	Velocidad del viento	1.6
24898	7	Sololá	710	Panajachel	8	Panajachel	3	Marzo	2023-03-13T00:00:00	2024-11-08T09:00:00	7	Dirección del viento	1.61
24899	7	Sololá	710	Panajachel	8	Panajachel	3	Marzo	2023-03-13T00:00:00	2024-11-08T09:00:00	1	Precipitación	0
24900	7	Sololá	710	Panajachel	8	Panajachel	3	Marzo	2023-03-13T00:00:00	2024-11-08T09:00:00	8	Radiación solar	449
24901	7	Sololá	710	Panajachel	8	Panajachel	3	Marzo	2023-03-13T00:00:00	2024-11-08T10:00:00	2	Temperatura media	19.8
24902	7	Sololá	710	Panajachel	8	Panajachel	3	Marzo	2023-03-13T00:00:00	2024-11-08T10:00:00	4	Temperatura máxima	20.6
24903	7	Sololá	710	Panajachel	8	Panajachel	3	Marzo	2023-03-13T00:00:00	2024-11-08T10:00:00	3	Temperatura mínima	19.4
24904	7	Sololá	710	Panajachel	8	Panajachel	3	Marzo	2023-03-13T00:00:00	2024-11-08T10:00:00	5	Humedad	77
24905	7	Sololá	710	Panajachel	8	Panajachel	3	Marzo	2023-03-13T00:00:00	2024-11-08T10:00:00	6	Velocidad del viento	3.2
24906	7	Sololá	710	Panajachel	8	Panajachel	3	Marzo	2023-03-13T00:00:00	2024-11-08T10:00:00	7	Dirección del viento	3.22
24907	7	Sololá	710	Panajachel	8	Panajachel	3	Marzo	2023-03-13T00:00:00	2024-11-08T10:00:00	1	Precipitación	0
24908	7	Sololá	710	Panajachel	8	Panajachel	3	Marzo	2023-03-13T00:00:00	2024-11-08T10:00:00	8	Radiación solar	662
24909	7	Sololá	710	Panajachel	8	Panajachel	3	Marzo	2023-03-13T00:00:00	2024-11-08T11:00:00	2	Temperatura media	20.7
24910	7	Sololá	710	Panajachel	8	Panajachel	3	Marzo	2023-03-13T00:00:00	2024-11-08T11:00:00	4	Temperatura máxima	21.2
24911	7	Sololá	710	Panajachel	8	Panajachel	3	Marzo	2023-03-13T00:00:00	2024-11-08T11:00:00	3	Temperatura mínima	19.4
24912	7	Sololá	710	Panajachel	8	Panajachel	3	Marzo	2023-03-13T00:00:00	2024-11-08T11:00:00	5	Humedad	76
24913	7	Sololá	710	Panajachel	8	Panajachel	3	Marzo	2023-03-13T00:00:00	2024-11-08T11:00:00	6	Velocidad del viento	4.8
24914	7	Sololá	710	Panajachel	8	Panajachel	3	Marzo	2023-03-13T00:00:00	2024-11-08T11:00:00	7	Dirección del viento	4.83
24915	7	Sololá	710	Panajachel	8	Panajachel	3	Marzo	2023-03-13T00:00:00	2024-11-08T11:00:00	1	Precipitación	0
24916	7	Sololá	710	Panajachel	8	Panajachel	3	Marzo	2023-03-13T00:00:00	2024-11-08T11:00:00	8	Radiación solar	824
24917	7	Sololá	710	Panajachel	8	Panajachel	3	Marzo	2023-03-13T00:00:00	2024-11-08T12:00:00	2	Temperatura media	21.8
24918	7	Sololá	710	Panajachel	8	Panajachel	3	Marzo	2023-03-13T00:00:00	2024-11-08T12:00:00	4	Temperatura máxima	21.8
24919	7	Sololá	710	Panajachel	8	Panajachel	3	Marzo	2023-03-13T00:00:00	2024-11-08T12:00:00	3	Temperatura mínima	20.6
24920	7	Sololá	710	Panajachel	8	Panajachel	3	Marzo	2023-03-13T00:00:00	2024-11-08T12:00:00	5	Humedad	78
24921	7	Sololá	710	Panajachel	8	Panajachel	3	Marzo	2023-03-13T00:00:00	2024-11-08T12:00:00	6	Velocidad del viento	4.8
24922	7	Sololá	710	Panajachel	8	Panajachel	3	Marzo	2023-03-13T00:00:00	2024-11-08T12:00:00	7	Dirección del viento	4.83
24923	7	Sololá	710	Panajachel	8	Panajachel	3	Marzo	2023-03-13T00:00:00	2024-11-08T12:00:00	1	Precipitación	0
24924	7	Sololá	710	Panajachel	8	Panajachel	3	Marzo	2023-03-13T00:00:00	2024-11-08T12:00:00	8	Radiación solar	864
24925	7	Sololá	710	Panajachel	8	Panajachel	3	Marzo	2023-03-13T00:00:00	2024-11-08T13:00:00	2	Temperatura media	21.7
24926	7	Sololá	710	Panajachel	8	Panajachel	3	Marzo	2023-03-13T00:00:00	2024-11-08T13:00:00	4	Temperatura máxima	22.2
24927	7	Sololá	710	Panajachel	8	Panajachel	3	Marzo	2023-03-13T00:00:00	2024-11-08T13:00:00	3	Temperatura mínima	21.1
24928	7	Sololá	710	Panajachel	8	Panajachel	3	Marzo	2023-03-13T00:00:00	2024-11-08T13:00:00	5	Humedad	79
24929	7	Sololá	710	Panajachel	8	Panajachel	3	Marzo	2023-03-13T00:00:00	2024-11-08T13:00:00	6	Velocidad del viento	6.4
24930	7	Sololá	710	Panajachel	8	Panajachel	3	Marzo	2023-03-13T00:00:00	2024-11-08T13:00:00	7	Dirección del viento	6.44
24931	7	Sololá	710	Panajachel	8	Panajachel	3	Marzo	2023-03-13T00:00:00	2024-11-08T13:00:00	1	Precipitación	0
24932	7	Sololá	710	Panajachel	8	Panajachel	3	Marzo	2023-03-13T00:00:00	2024-11-08T13:00:00	8	Radiación solar	524
24933	7	Sololá	710	Panajachel	8	Panajachel	3	Marzo	2023-03-13T00:00:00	2024-11-08T14:00:00	2	Temperatura media	22.7
24934	7	Sololá	710	Panajachel	8	Panajachel	3	Marzo	2023-03-13T00:00:00	2024-11-08T14:00:00	4	Temperatura máxima	22.8
24935	7	Sololá	710	Panajachel	8	Panajachel	3	Marzo	2023-03-13T00:00:00	2024-11-08T14:00:00	3	Temperatura mínima	21.3
24936	7	Sololá	710	Panajachel	8	Panajachel	3	Marzo	2023-03-13T00:00:00	2024-11-08T14:00:00	5	Humedad	77
24937	7	Sololá	710	Panajachel	8	Panajachel	3	Marzo	2023-03-13T00:00:00	2024-11-08T14:00:00	6	Velocidad del viento	6.4
24938	7	Sololá	710	Panajachel	8	Panajachel	3	Marzo	2023-03-13T00:00:00	2024-11-08T14:00:00	7	Dirección del viento	6.44
24939	7	Sololá	710	Panajachel	8	Panajachel	3	Marzo	2023-03-13T00:00:00	2024-11-08T14:00:00	1	Precipitación	0
24940	7	Sololá	710	Panajachel	8	Panajachel	3	Marzo	2023-03-13T00:00:00	2024-11-08T14:00:00	8	Radiación solar	637
24941	7	Sololá	710	Panajachel	8	Panajachel	3	Marzo	2023-03-13T00:00:00	2024-11-08T15:00:00	2	Temperatura media	20.7
24942	7	Sololá	710	Panajachel	8	Panajachel	3	Marzo	2023-03-13T00:00:00	2024-11-08T15:00:00	4	Temperatura máxima	22.7
24943	7	Sololá	710	Panajachel	8	Panajachel	3	Marzo	2023-03-13T00:00:00	2024-11-08T15:00:00	3	Temperatura mínima	20.7
24944	7	Sololá	710	Panajachel	8	Panajachel	3	Marzo	2023-03-13T00:00:00	2024-11-08T15:00:00	5	Humedad	83
24945	7	Sololá	710	Panajachel	8	Panajachel	3	Marzo	2023-03-13T00:00:00	2024-11-08T15:00:00	6	Velocidad del viento	8
24946	7	Sololá	710	Panajachel	8	Panajachel	3	Marzo	2023-03-13T00:00:00	2024-11-08T15:00:00	7	Dirección del viento	8.05
24947	7	Sololá	710	Panajachel	8	Panajachel	3	Marzo	2023-03-13T00:00:00	2024-11-08T15:00:00	1	Precipitación	0
24948	7	Sololá	710	Panajachel	8	Panajachel	3	Marzo	2023-03-13T00:00:00	2024-11-08T15:00:00	8	Radiación solar	322
24949	7	Sololá	710	Panajachel	8	Panajachel	3	Marzo	2023-03-13T00:00:00	2024-11-08T16:00:00	2	Temperatura media	19.9
24950	7	Sololá	710	Panajachel	8	Panajachel	3	Marzo	2023-03-13T00:00:00	2024-11-08T16:00:00	4	Temperatura máxima	20.7
24951	7	Sololá	710	Panajachel	8	Panajachel	3	Marzo	2023-03-13T00:00:00	2024-11-08T16:00:00	3	Temperatura mínima	19.9
24952	7	Sololá	710	Panajachel	8	Panajachel	3	Marzo	2023-03-13T00:00:00	2024-11-08T16:00:00	5	Humedad	87
24953	7	Sololá	710	Panajachel	8	Panajachel	3	Marzo	2023-03-13T00:00:00	2024-11-08T16:00:00	6	Velocidad del viento	6.4
24954	7	Sololá	710	Panajachel	8	Panajachel	3	Marzo	2023-03-13T00:00:00	2024-11-08T16:00:00	7	Dirección del viento	6.44
24955	7	Sololá	710	Panajachel	8	Panajachel	3	Marzo	2023-03-13T00:00:00	2024-11-08T16:00:00	1	Precipitación	0
24956	7	Sololá	710	Panajachel	8	Panajachel	3	Marzo	2023-03-13T00:00:00	2024-11-08T16:00:00	8	Radiación solar	150
24957	7	Sololá	710	Panajachel	8	Panajachel	3	Marzo	2023-03-13T00:00:00	2024-11-08T17:00:00	2	Temperatura media	19.8
24958	7	Sololá	710	Panajachel	8	Panajachel	3	Marzo	2023-03-13T00:00:00	2024-11-08T17:00:00	4	Temperatura máxima	20.2
24959	7	Sololá	710	Panajachel	8	Panajachel	3	Marzo	2023-03-13T00:00:00	2024-11-08T17:00:00	3	Temperatura mínima	19.8
24960	7	Sololá	710	Panajachel	8	Panajachel	3	Marzo	2023-03-13T00:00:00	2024-11-08T17:00:00	5	Humedad	87
24961	7	Sololá	710	Panajachel	8	Panajachel	3	Marzo	2023-03-13T00:00:00	2024-11-08T17:00:00	6	Velocidad del viento	3.2
24962	7	Sololá	710	Panajachel	8	Panajachel	3	Marzo	2023-03-13T00:00:00	2024-11-08T17:00:00	7	Dirección del viento	3.22
24963	7	Sololá	710	Panajachel	8	Panajachel	3	Marzo	2023-03-13T00:00:00	2024-11-08T17:00:00	1	Precipitación	0
24964	7	Sololá	710	Panajachel	8	Panajachel	3	Marzo	2023-03-13T00:00:00	2024-11-08T17:00:00	8	Radiación solar	85
24965	7	Sololá	710	Panajachel	8	Panajachel	3	Marzo	2023-03-13T00:00:00	2024-11-08T18:00:00	2	Temperatura media	19.6
24966	7	Sololá	710	Panajachel	8	Panajachel	3	Marzo	2023-03-13T00:00:00	2024-11-08T18:00:00	4	Temperatura máxima	19.8
24967	7	Sololá	710	Panajachel	8	Panajachel	3	Marzo	2023-03-13T00:00:00	2024-11-08T18:00:00	3	Temperatura mínima	19.6
24968	7	Sololá	710	Panajachel	8	Panajachel	3	Marzo	2023-03-13T00:00:00	2024-11-08T18:00:00	5	Humedad	88
24969	7	Sololá	710	Panajachel	8	Panajachel	3	Marzo	2023-03-13T00:00:00	2024-11-08T18:00:00	6	Velocidad del viento	1.6
24970	7	Sololá	710	Panajachel	8	Panajachel	3	Marzo	2023-03-13T00:00:00	2024-11-08T18:00:00	7	Dirección del viento	1.61
24971	7	Sololá	710	Panajachel	8	Panajachel	3	Marzo	2023-03-13T00:00:00	2024-11-08T18:00:00	1	Precipitación	0
24972	7	Sololá	710	Panajachel	8	Panajachel	3	Marzo	2023-03-13T00:00:00	2024-11-08T18:00:00	8	Radiación solar	36
24973	7	Sololá	710	Panajachel	8	Panajachel	3	Marzo	2023-03-13T00:00:00	2024-11-08T19:00:00	2	Temperatura media	19.3
24974	7	Sololá	710	Panajachel	8	Panajachel	3	Marzo	2023-03-13T00:00:00	2024-11-08T19:00:00	4	Temperatura máxima	19.6
24975	7	Sololá	710	Panajachel	8	Panajachel	3	Marzo	2023-03-13T00:00:00	2024-11-08T19:00:00	3	Temperatura mínima	19.3
24976	7	Sololá	710	Panajachel	8	Panajachel	3	Marzo	2023-03-13T00:00:00	2024-11-08T19:00:00	5	Humedad	88
24977	7	Sololá	710	Panajachel	8	Panajachel	3	Marzo	2023-03-13T00:00:00	2024-11-08T19:00:00	6	Velocidad del viento	0
24978	7	Sololá	710	Panajachel	8	Panajachel	3	Marzo	2023-03-13T00:00:00	2024-11-08T19:00:00	7	Dirección del viento	0
24979	7	Sololá	710	Panajachel	8	Panajachel	3	Marzo	2023-03-13T00:00:00	2024-11-08T19:00:00	1	Precipitación	0
24980	7	Sololá	710	Panajachel	8	Panajachel	3	Marzo	2023-03-13T00:00:00	2024-11-08T19:00:00	8	Radiación solar	0
24981	7	Sololá	710	Panajachel	8	Panajachel	3	Marzo	2023-03-13T00:00:00	2024-11-08T20:00:00	2	Temperatura media	19.2
24982	7	Sololá	710	Panajachel	8	Panajachel	3	Marzo	2023-03-13T00:00:00	2024-11-08T20:00:00	4	Temperatura máxima	19.3
24983	7	Sololá	710	Panajachel	8	Panajachel	3	Marzo	2023-03-13T00:00:00	2024-11-08T20:00:00	3	Temperatura mínima	19.2
24984	7	Sololá	710	Panajachel	8	Panajachel	3	Marzo	2023-03-13T00:00:00	2024-11-08T20:00:00	5	Humedad	90
24985	7	Sololá	710	Panajachel	8	Panajachel	3	Marzo	2023-03-13T00:00:00	2024-11-08T20:00:00	6	Velocidad del viento	0
24986	7	Sololá	710	Panajachel	8	Panajachel	3	Marzo	2023-03-13T00:00:00	2024-11-08T20:00:00	7	Dirección del viento	0
24987	7	Sololá	710	Panajachel	8	Panajachel	3	Marzo	2023-03-13T00:00:00	2024-11-08T20:00:00	1	Precipitación	0
24988	7	Sololá	710	Panajachel	8	Panajachel	3	Marzo	2023-03-13T00:00:00	2024-11-08T20:00:00	8	Radiación solar	0
24989	7	Sololá	710	Panajachel	8	Panajachel	3	Marzo	2023-03-13T00:00:00	2024-11-08T21:00:00	2	Temperatura media	18.7
24990	7	Sololá	710	Panajachel	8	Panajachel	3	Marzo	2023-03-13T00:00:00	2024-11-08T21:00:00	4	Temperatura máxima	19.2
24991	7	Sololá	710	Panajachel	8	Panajachel	3	Marzo	2023-03-13T00:00:00	2024-11-08T21:00:00	3	Temperatura mínima	18.7
24992	7	Sololá	710	Panajachel	8	Panajachel	3	Marzo	2023-03-13T00:00:00	2024-11-08T21:00:00	5	Humedad	92
24993	7	Sololá	710	Panajachel	8	Panajachel	3	Marzo	2023-03-13T00:00:00	2024-11-08T21:00:00	6	Velocidad del viento	3.2
24994	7	Sololá	710	Panajachel	8	Panajachel	3	Marzo	2023-03-13T00:00:00	2024-11-08T21:00:00	7	Dirección del viento	3.22
24995	7	Sololá	710	Panajachel	8	Panajachel	3	Marzo	2023-03-13T00:00:00	2024-11-08T21:00:00	1	Precipitación	0
24996	7	Sololá	710	Panajachel	8	Panajachel	3	Marzo	2023-03-13T00:00:00	2024-11-08T21:00:00	8	Radiación solar	0
24997	7	Sololá	710	Panajachel	8	Panajachel	3	Marzo	2023-03-13T00:00:00	2024-11-08T22:00:00	2	Temperatura media	18.4
24998	7	Sololá	710	Panajachel	8	Panajachel	3	Marzo	2023-03-13T00:00:00	2024-11-08T22:00:00	4	Temperatura máxima	18.7
24999	7	Sololá	710	Panajachel	8	Panajachel	3	Marzo	2023-03-13T00:00:00	2024-11-08T22:00:00	3	Temperatura mínima	18.4
25000	7	Sololá	710	Panajachel	8	Panajachel	3	Marzo	2023-03-13T00:00:00	2024-11-08T22:00:00	5	Humedad	91
25001	7	Sololá	710	Panajachel	8	Panajachel	3	Marzo	2023-03-13T00:00:00	2024-11-08T22:00:00	6	Velocidad del viento	1.6
25002	7	Sololá	710	Panajachel	8	Panajachel	3	Marzo	2023-03-13T00:00:00	2024-11-08T22:00:00	7	Dirección del viento	1.61
25003	7	Sololá	710	Panajachel	8	Panajachel	3	Marzo	2023-03-13T00:00:00	2024-11-08T22:00:00	1	Precipitación	0
25004	7	Sololá	710	Panajachel	8	Panajachel	3	Marzo	2023-03-13T00:00:00	2024-11-08T22:00:00	8	Radiación solar	0
25005	7	Sololá	710	Panajachel	8	Panajachel	3	Marzo	2023-03-13T00:00:00	2024-11-08T23:00:00	2	Temperatura media	18.4
25006	7	Sololá	710	Panajachel	8	Panajachel	3	Marzo	2023-03-13T00:00:00	2024-11-08T23:00:00	4	Temperatura máxima	18.5
25007	7	Sololá	710	Panajachel	8	Panajachel	3	Marzo	2023-03-13T00:00:00	2024-11-08T23:00:00	3	Temperatura mínima	18.3
25008	7	Sololá	710	Panajachel	8	Panajachel	3	Marzo	2023-03-13T00:00:00	2024-11-08T23:00:00	5	Humedad	91
25009	7	Sololá	710	Panajachel	8	Panajachel	3	Marzo	2023-03-13T00:00:00	2024-11-08T23:00:00	6	Velocidad del viento	0
25010	7	Sololá	710	Panajachel	8	Panajachel	3	Marzo	2023-03-13T00:00:00	2024-11-08T23:00:00	7	Dirección del viento	0
25011	7	Sololá	710	Panajachel	8	Panajachel	3	Marzo	2023-03-13T00:00:00	2024-11-08T23:00:00	1	Precipitación	0
25012	7	Sololá	710	Panajachel	8	Panajachel	3	Marzo	2023-03-13T00:00:00	2024-11-08T23:00:00	8	Radiación solar	0
25013	7	Sololá	710	Panajachel	8	Panajachel	3	Marzo	2023-03-14T00:00:00	2024-11-08T00:00:00	2	Temperatura media	17.3
25014	7	Sololá	710	Panajachel	8	Panajachel	3	Marzo	2023-03-14T00:00:00	2024-11-08T00:00:00	4	Temperatura máxima	18.4
25015	7	Sololá	710	Panajachel	8	Panajachel	3	Marzo	2023-03-14T00:00:00	2024-11-08T00:00:00	3	Temperatura mínima	17.3
25016	7	Sololá	710	Panajachel	8	Panajachel	3	Marzo	2023-03-14T00:00:00	2024-11-08T00:00:00	5	Humedad	85
25017	7	Sololá	710	Panajachel	8	Panajachel	3	Marzo	2023-03-14T00:00:00	2024-11-08T00:00:00	6	Velocidad del viento	1.6
25018	7	Sololá	710	Panajachel	8	Panajachel	3	Marzo	2023-03-14T00:00:00	2024-11-08T00:00:00	7	Dirección del viento	1.61
25019	7	Sololá	710	Panajachel	8	Panajachel	3	Marzo	2023-03-14T00:00:00	2024-11-08T00:00:00	1	Precipitación	0
25020	7	Sololá	710	Panajachel	8	Panajachel	3	Marzo	2023-03-14T00:00:00	2024-11-08T00:00:00	8	Radiación solar	0
25021	7	Sololá	710	Panajachel	8	Panajachel	3	Marzo	2023-03-14T00:00:00	2024-11-08T01:00:00	2	Temperatura media	16.9
25022	7	Sololá	710	Panajachel	8	Panajachel	3	Marzo	2023-03-14T00:00:00	2024-11-08T01:00:00	4	Temperatura máxima	17.3
25023	7	Sololá	710	Panajachel	8	Panajachel	3	Marzo	2023-03-14T00:00:00	2024-11-08T01:00:00	3	Temperatura mínima	16.9
25024	7	Sololá	710	Panajachel	8	Panajachel	3	Marzo	2023-03-14T00:00:00	2024-11-08T01:00:00	5	Humedad	83
25025	7	Sololá	710	Panajachel	8	Panajachel	3	Marzo	2023-03-14T00:00:00	2024-11-08T01:00:00	6	Velocidad del viento	1.6
25026	7	Sololá	710	Panajachel	8	Panajachel	3	Marzo	2023-03-14T00:00:00	2024-11-08T01:00:00	7	Dirección del viento	1.61
25027	7	Sololá	710	Panajachel	8	Panajachel	3	Marzo	2023-03-14T00:00:00	2024-11-08T01:00:00	1	Precipitación	0
25028	7	Sololá	710	Panajachel	8	Panajachel	3	Marzo	2023-03-14T00:00:00	2024-11-08T01:00:00	8	Radiación solar	0
25029	7	Sololá	710	Panajachel	8	Panajachel	3	Marzo	2023-03-14T00:00:00	2024-11-08T02:00:00	2	Temperatura media	16.4
25030	7	Sololá	710	Panajachel	8	Panajachel	3	Marzo	2023-03-14T00:00:00	2024-11-08T02:00:00	4	Temperatura máxima	16.9
25031	7	Sololá	710	Panajachel	8	Panajachel	3	Marzo	2023-03-14T00:00:00	2024-11-08T02:00:00	3	Temperatura mínima	16.4
25032	7	Sololá	710	Panajachel	8	Panajachel	3	Marzo	2023-03-14T00:00:00	2024-11-08T02:00:00	5	Humedad	85
25033	7	Sololá	710	Panajachel	8	Panajachel	3	Marzo	2023-03-14T00:00:00	2024-11-08T02:00:00	6	Velocidad del viento	1.6
25034	7	Sololá	710	Panajachel	8	Panajachel	3	Marzo	2023-03-14T00:00:00	2024-11-08T02:00:00	7	Dirección del viento	1.61
25035	7	Sololá	710	Panajachel	8	Panajachel	3	Marzo	2023-03-14T00:00:00	2024-11-08T02:00:00	1	Precipitación	0
25036	7	Sololá	710	Panajachel	8	Panajachel	3	Marzo	2023-03-14T00:00:00	2024-11-08T02:00:00	8	Radiación solar	0
25037	7	Sololá	710	Panajachel	8	Panajachel	3	Marzo	2023-03-14T00:00:00	2024-11-08T03:00:00	2	Temperatura media	16.8
25038	7	Sololá	710	Panajachel	8	Panajachel	3	Marzo	2023-03-14T00:00:00	2024-11-08T03:00:00	4	Temperatura máxima	16.8
25039	7	Sololá	710	Panajachel	8	Panajachel	3	Marzo	2023-03-14T00:00:00	2024-11-08T03:00:00	3	Temperatura mínima	16.4
25040	7	Sololá	710	Panajachel	8	Panajachel	3	Marzo	2023-03-14T00:00:00	2024-11-08T03:00:00	5	Humedad	83
25041	7	Sololá	710	Panajachel	8	Panajachel	3	Marzo	2023-03-14T00:00:00	2024-11-08T03:00:00	6	Velocidad del viento	1.6
25042	7	Sololá	710	Panajachel	8	Panajachel	3	Marzo	2023-03-14T00:00:00	2024-11-08T03:00:00	7	Dirección del viento	1.61
25043	7	Sololá	710	Panajachel	8	Panajachel	3	Marzo	2023-03-14T00:00:00	2024-11-08T03:00:00	1	Precipitación	0
25044	7	Sololá	710	Panajachel	8	Panajachel	3	Marzo	2023-03-14T00:00:00	2024-11-08T03:00:00	8	Radiación solar	0
25045	7	Sololá	710	Panajachel	8	Panajachel	3	Marzo	2023-03-14T00:00:00	2024-11-08T04:00:00	2	Temperatura media	16.9
25046	7	Sololá	710	Panajachel	8	Panajachel	3	Marzo	2023-03-14T00:00:00	2024-11-08T04:00:00	4	Temperatura máxima	16.9
25047	7	Sololá	710	Panajachel	8	Panajachel	3	Marzo	2023-03-14T00:00:00	2024-11-08T04:00:00	3	Temperatura mínima	16.8
25048	7	Sololá	710	Panajachel	8	Panajachel	3	Marzo	2023-03-14T00:00:00	2024-11-08T04:00:00	5	Humedad	85
25049	7	Sololá	710	Panajachel	8	Panajachel	3	Marzo	2023-03-14T00:00:00	2024-11-08T04:00:00	6	Velocidad del viento	0
25050	7	Sololá	710	Panajachel	8	Panajachel	3	Marzo	2023-03-14T00:00:00	2024-11-08T04:00:00	7	Dirección del viento	0
25051	7	Sololá	710	Panajachel	8	Panajachel	3	Marzo	2023-03-14T00:00:00	2024-11-08T04:00:00	1	Precipitación	0
25052	7	Sololá	710	Panajachel	8	Panajachel	3	Marzo	2023-03-14T00:00:00	2024-11-08T04:00:00	8	Radiación solar	0
25053	7	Sololá	710	Panajachel	8	Panajachel	3	Marzo	2023-03-14T00:00:00	2024-11-08T05:00:00	2	Temperatura media	16.5
25054	7	Sololá	710	Panajachel	8	Panajachel	3	Marzo	2023-03-14T00:00:00	2024-11-08T05:00:00	4	Temperatura máxima	17
25055	7	Sololá	710	Panajachel	8	Panajachel	3	Marzo	2023-03-14T00:00:00	2024-11-08T05:00:00	3	Temperatura mínima	16.5
25056	7	Sololá	710	Panajachel	8	Panajachel	3	Marzo	2023-03-14T00:00:00	2024-11-08T05:00:00	5	Humedad	84
25057	7	Sololá	710	Panajachel	8	Panajachel	3	Marzo	2023-03-14T00:00:00	2024-11-08T05:00:00	6	Velocidad del viento	0
25058	7	Sololá	710	Panajachel	8	Panajachel	3	Marzo	2023-03-14T00:00:00	2024-11-08T05:00:00	7	Dirección del viento	0
25059	7	Sololá	710	Panajachel	8	Panajachel	3	Marzo	2023-03-14T00:00:00	2024-11-08T05:00:00	1	Precipitación	0
25060	7	Sololá	710	Panajachel	8	Panajachel	3	Marzo	2023-03-14T00:00:00	2024-11-08T05:00:00	8	Radiación solar	0
25061	7	Sololá	710	Panajachel	8	Panajachel	3	Marzo	2023-03-14T00:00:00	2024-11-08T06:00:00	2	Temperatura media	16.2
25062	7	Sololá	710	Panajachel	8	Panajachel	3	Marzo	2023-03-14T00:00:00	2024-11-08T06:00:00	4	Temperatura máxima	16.5
25063	7	Sololá	710	Panajachel	8	Panajachel	3	Marzo	2023-03-14T00:00:00	2024-11-08T06:00:00	3	Temperatura mínima	16.1
25064	7	Sololá	710	Panajachel	8	Panajachel	3	Marzo	2023-03-14T00:00:00	2024-11-08T06:00:00	5	Humedad	84
25065	7	Sololá	710	Panajachel	8	Panajachel	3	Marzo	2023-03-14T00:00:00	2024-11-08T06:00:00	6	Velocidad del viento	1.6
25066	7	Sololá	710	Panajachel	8	Panajachel	3	Marzo	2023-03-14T00:00:00	2024-11-08T06:00:00	7	Dirección del viento	1.61
25067	7	Sololá	710	Panajachel	8	Panajachel	3	Marzo	2023-03-14T00:00:00	2024-11-08T06:00:00	1	Precipitación	0
25068	7	Sololá	710	Panajachel	8	Panajachel	3	Marzo	2023-03-14T00:00:00	2024-11-08T06:00:00	8	Radiación solar	0
25069	7	Sololá	710	Panajachel	8	Panajachel	3	Marzo	2023-03-14T00:00:00	2024-11-08T07:00:00	2	Temperatura media	17.6
25070	7	Sololá	710	Panajachel	8	Panajachel	3	Marzo	2023-03-14T00:00:00	2024-11-08T07:00:00	4	Temperatura máxima	17.6
25071	7	Sololá	710	Panajachel	8	Panajachel	3	Marzo	2023-03-14T00:00:00	2024-11-08T07:00:00	3	Temperatura mínima	16.1
25072	7	Sololá	710	Panajachel	8	Panajachel	3	Marzo	2023-03-14T00:00:00	2024-11-08T07:00:00	5	Humedad	80
25073	7	Sololá	710	Panajachel	8	Panajachel	3	Marzo	2023-03-14T00:00:00	2024-11-08T07:00:00	6	Velocidad del viento	1.6
25074	7	Sololá	710	Panajachel	8	Panajachel	3	Marzo	2023-03-14T00:00:00	2024-11-08T07:00:00	7	Dirección del viento	1.61
25075	7	Sololá	710	Panajachel	8	Panajachel	3	Marzo	2023-03-14T00:00:00	2024-11-08T07:00:00	1	Precipitación	0
25076	7	Sololá	710	Panajachel	8	Panajachel	3	Marzo	2023-03-14T00:00:00	2024-11-08T07:00:00	8	Radiación solar	20
25077	7	Sololá	710	Panajachel	8	Panajachel	3	Marzo	2023-03-14T00:00:00	2024-11-08T08:00:00	2	Temperatura media	19.9
25078	7	Sololá	710	Panajachel	8	Panajachel	3	Marzo	2023-03-14T00:00:00	2024-11-08T08:00:00	4	Temperatura máxima	20.4
25079	7	Sololá	710	Panajachel	8	Panajachel	3	Marzo	2023-03-14T00:00:00	2024-11-08T08:00:00	3	Temperatura mínima	17.6
25080	7	Sololá	710	Panajachel	8	Panajachel	3	Marzo	2023-03-14T00:00:00	2024-11-08T08:00:00	5	Humedad	75
25081	7	Sololá	710	Panajachel	8	Panajachel	3	Marzo	2023-03-14T00:00:00	2024-11-08T08:00:00	6	Velocidad del viento	0
25082	7	Sololá	710	Panajachel	8	Panajachel	3	Marzo	2023-03-14T00:00:00	2024-11-08T08:00:00	7	Dirección del viento	0
25083	7	Sololá	710	Panajachel	8	Panajachel	3	Marzo	2023-03-14T00:00:00	2024-11-08T08:00:00	1	Precipitación	0
25084	7	Sololá	710	Panajachel	8	Panajachel	3	Marzo	2023-03-14T00:00:00	2024-11-08T08:00:00	8	Radiación solar	203
25085	7	Sololá	710	Panajachel	8	Panajachel	3	Marzo	2023-03-14T00:00:00	2024-11-08T09:00:00	2	Temperatura media	20.6
25086	7	Sololá	710	Panajachel	8	Panajachel	3	Marzo	2023-03-14T00:00:00	2024-11-08T09:00:00	4	Temperatura máxima	20.6
25087	7	Sololá	710	Panajachel	8	Panajachel	3	Marzo	2023-03-14T00:00:00	2024-11-08T09:00:00	3	Temperatura mínima	19.9
25088	7	Sololá	710	Panajachel	8	Panajachel	3	Marzo	2023-03-14T00:00:00	2024-11-08T09:00:00	5	Humedad	78
25089	7	Sololá	710	Panajachel	8	Panajachel	3	Marzo	2023-03-14T00:00:00	2024-11-08T09:00:00	6	Velocidad del viento	1.6
25090	7	Sololá	710	Panajachel	8	Panajachel	3	Marzo	2023-03-14T00:00:00	2024-11-08T09:00:00	7	Dirección del viento	1.61
25091	7	Sololá	710	Panajachel	8	Panajachel	3	Marzo	2023-03-14T00:00:00	2024-11-08T09:00:00	1	Precipitación	0
25092	7	Sololá	710	Panajachel	8	Panajachel	3	Marzo	2023-03-14T00:00:00	2024-11-08T09:00:00	8	Radiación solar	440
25093	7	Sololá	710	Panajachel	8	Panajachel	3	Marzo	2023-03-14T00:00:00	2024-11-08T10:00:00	2	Temperatura media	21.9
25094	7	Sololá	710	Panajachel	8	Panajachel	3	Marzo	2023-03-14T00:00:00	2024-11-08T10:00:00	4	Temperatura máxima	21.9
25095	7	Sololá	710	Panajachel	8	Panajachel	3	Marzo	2023-03-14T00:00:00	2024-11-08T10:00:00	3	Temperatura mínima	20.3
25096	7	Sololá	710	Panajachel	8	Panajachel	3	Marzo	2023-03-14T00:00:00	2024-11-08T10:00:00	5	Humedad	74
25097	7	Sololá	710	Panajachel	8	Panajachel	3	Marzo	2023-03-14T00:00:00	2024-11-08T10:00:00	6	Velocidad del viento	3.2
25098	7	Sololá	710	Panajachel	8	Panajachel	3	Marzo	2023-03-14T00:00:00	2024-11-08T10:00:00	7	Dirección del viento	3.22
25099	7	Sololá	710	Panajachel	8	Panajachel	3	Marzo	2023-03-14T00:00:00	2024-11-08T10:00:00	1	Precipitación	0
25100	7	Sololá	710	Panajachel	8	Panajachel	3	Marzo	2023-03-14T00:00:00	2024-11-08T10:00:00	8	Radiación solar	649
25101	7	Sololá	710	Panajachel	8	Panajachel	3	Marzo	2023-03-14T00:00:00	2024-11-08T11:00:00	2	Temperatura media	21.8
25102	7	Sololá	710	Panajachel	8	Panajachel	3	Marzo	2023-03-14T00:00:00	2024-11-08T11:00:00	4	Temperatura máxima	23.2
25103	7	Sololá	710	Panajachel	8	Panajachel	3	Marzo	2023-03-14T00:00:00	2024-11-08T11:00:00	3	Temperatura mínima	21.8
25104	7	Sololá	710	Panajachel	8	Panajachel	3	Marzo	2023-03-14T00:00:00	2024-11-08T11:00:00	5	Humedad	71
25105	7	Sololá	710	Panajachel	8	Panajachel	3	Marzo	2023-03-14T00:00:00	2024-11-08T11:00:00	6	Velocidad del viento	3.2
25106	7	Sololá	710	Panajachel	8	Panajachel	3	Marzo	2023-03-14T00:00:00	2024-11-08T11:00:00	7	Dirección del viento	3.22
25107	7	Sololá	710	Panajachel	8	Panajachel	3	Marzo	2023-03-14T00:00:00	2024-11-08T11:00:00	1	Precipitación	0
25108	7	Sololá	710	Panajachel	8	Panajachel	3	Marzo	2023-03-14T00:00:00	2024-11-08T11:00:00	8	Radiación solar	809
25109	7	Sololá	710	Panajachel	8	Panajachel	3	Marzo	2023-03-14T00:00:00	2024-11-08T12:00:00	2	Temperatura media	22.4
25110	7	Sololá	710	Panajachel	8	Panajachel	3	Marzo	2023-03-14T00:00:00	2024-11-08T12:00:00	4	Temperatura máxima	22.7
25111	7	Sololá	710	Panajachel	8	Panajachel	3	Marzo	2023-03-14T00:00:00	2024-11-08T12:00:00	3	Temperatura mínima	21.8
25112	7	Sololá	710	Panajachel	8	Panajachel	3	Marzo	2023-03-14T00:00:00	2024-11-08T12:00:00	5	Humedad	74
25113	7	Sololá	710	Panajachel	8	Panajachel	3	Marzo	2023-03-14T00:00:00	2024-11-08T12:00:00	6	Velocidad del viento	4.8
25114	7	Sololá	710	Panajachel	8	Panajachel	3	Marzo	2023-03-14T00:00:00	2024-11-08T12:00:00	7	Dirección del viento	4.83
25115	7	Sololá	710	Panajachel	8	Panajachel	3	Marzo	2023-03-14T00:00:00	2024-11-08T12:00:00	1	Precipitación	0
25116	7	Sololá	710	Panajachel	8	Panajachel	3	Marzo	2023-03-14T00:00:00	2024-11-08T12:00:00	8	Radiación solar	896
25117	7	Sololá	710	Panajachel	8	Panajachel	3	Marzo	2023-03-14T00:00:00	2024-11-08T13:00:00	2	Temperatura media	23.4
25118	7	Sololá	710	Panajachel	8	Panajachel	3	Marzo	2023-03-14T00:00:00	2024-11-08T13:00:00	4	Temperatura máxima	23.4
25119	7	Sololá	710	Panajachel	8	Panajachel	3	Marzo	2023-03-14T00:00:00	2024-11-08T13:00:00	3	Temperatura mínima	22.3
25120	7	Sololá	710	Panajachel	8	Panajachel	3	Marzo	2023-03-14T00:00:00	2024-11-08T13:00:00	5	Humedad	76
25121	7	Sololá	710	Panajachel	8	Panajachel	3	Marzo	2023-03-14T00:00:00	2024-11-08T13:00:00	6	Velocidad del viento	8
25122	7	Sololá	710	Panajachel	8	Panajachel	3	Marzo	2023-03-14T00:00:00	2024-11-08T13:00:00	7	Dirección del viento	8.05
25123	7	Sololá	710	Panajachel	8	Panajachel	3	Marzo	2023-03-14T00:00:00	2024-11-08T13:00:00	1	Precipitación	0
25124	7	Sololá	710	Panajachel	8	Panajachel	3	Marzo	2023-03-14T00:00:00	2024-11-08T13:00:00	8	Radiación solar	856
25125	7	Sololá	710	Panajachel	8	Panajachel	3	Marzo	2023-03-14T00:00:00	2024-11-08T14:00:00	2	Temperatura media	22.1
25126	7	Sololá	710	Panajachel	8	Panajachel	3	Marzo	2023-03-14T00:00:00	2024-11-08T14:00:00	4	Temperatura máxima	23.8
25127	7	Sololá	710	Panajachel	8	Panajachel	3	Marzo	2023-03-14T00:00:00	2024-11-08T14:00:00	3	Temperatura mínima	22
25128	7	Sololá	710	Panajachel	8	Panajachel	3	Marzo	2023-03-14T00:00:00	2024-11-08T14:00:00	5	Humedad	82
25129	7	Sololá	710	Panajachel	8	Panajachel	3	Marzo	2023-03-14T00:00:00	2024-11-08T14:00:00	6	Velocidad del viento	4.8
25130	7	Sololá	710	Panajachel	8	Panajachel	3	Marzo	2023-03-14T00:00:00	2024-11-08T14:00:00	7	Dirección del viento	4.83
25131	7	Sololá	710	Panajachel	8	Panajachel	3	Marzo	2023-03-14T00:00:00	2024-11-08T14:00:00	1	Precipitación	0
25132	7	Sololá	710	Panajachel	8	Panajachel	3	Marzo	2023-03-14T00:00:00	2024-11-08T14:00:00	8	Radiación solar	296
25133	7	Sololá	710	Panajachel	8	Panajachel	3	Marzo	2023-03-14T00:00:00	2024-11-08T15:00:00	2	Temperatura media	21.3
25134	7	Sololá	710	Panajachel	8	Panajachel	3	Marzo	2023-03-14T00:00:00	2024-11-08T15:00:00	4	Temperatura máxima	22.1
25135	7	Sololá	710	Panajachel	8	Panajachel	3	Marzo	2023-03-14T00:00:00	2024-11-08T15:00:00	3	Temperatura mínima	21.2
25136	7	Sololá	710	Panajachel	8	Panajachel	3	Marzo	2023-03-14T00:00:00	2024-11-08T15:00:00	5	Humedad	84
25137	7	Sololá	710	Panajachel	8	Panajachel	3	Marzo	2023-03-14T00:00:00	2024-11-08T15:00:00	6	Velocidad del viento	4.8
25138	7	Sololá	710	Panajachel	8	Panajachel	3	Marzo	2023-03-14T00:00:00	2024-11-08T15:00:00	7	Dirección del viento	4.83
25139	7	Sololá	710	Panajachel	8	Panajachel	3	Marzo	2023-03-14T00:00:00	2024-11-08T15:00:00	1	Precipitación	0
25140	7	Sololá	710	Panajachel	8	Panajachel	3	Marzo	2023-03-14T00:00:00	2024-11-08T15:00:00	8	Radiación solar	171
25141	7	Sololá	710	Panajachel	8	Panajachel	3	Marzo	2023-03-14T00:00:00	2024-11-08T16:00:00	2	Temperatura media	20.7
25142	7	Sololá	710	Panajachel	8	Panajachel	3	Marzo	2023-03-14T00:00:00	2024-11-08T16:00:00	4	Temperatura máxima	21.5
25143	7	Sololá	710	Panajachel	8	Panajachel	3	Marzo	2023-03-14T00:00:00	2024-11-08T16:00:00	3	Temperatura mínima	20.7
25144	7	Sololá	710	Panajachel	8	Panajachel	3	Marzo	2023-03-14T00:00:00	2024-11-08T16:00:00	5	Humedad	85
25145	7	Sololá	710	Panajachel	8	Panajachel	3	Marzo	2023-03-14T00:00:00	2024-11-08T16:00:00	6	Velocidad del viento	4.8
25146	7	Sololá	710	Panajachel	8	Panajachel	3	Marzo	2023-03-14T00:00:00	2024-11-08T16:00:00	7	Dirección del viento	4.83
25147	7	Sololá	710	Panajachel	8	Panajachel	3	Marzo	2023-03-14T00:00:00	2024-11-08T16:00:00	1	Precipitación	0
25148	7	Sololá	710	Panajachel	8	Panajachel	3	Marzo	2023-03-14T00:00:00	2024-11-08T16:00:00	8	Radiación solar	120
25149	7	Sololá	710	Panajachel	8	Panajachel	3	Marzo	2023-03-14T00:00:00	2024-11-08T17:00:00	2	Temperatura media	21.4
25150	7	Sololá	710	Panajachel	8	Panajachel	3	Marzo	2023-03-14T00:00:00	2024-11-08T17:00:00	4	Temperatura máxima	21.8
25151	7	Sololá	710	Panajachel	8	Panajachel	3	Marzo	2023-03-14T00:00:00	2024-11-08T17:00:00	3	Temperatura mínima	20.6
25152	7	Sololá	710	Panajachel	8	Panajachel	3	Marzo	2023-03-14T00:00:00	2024-11-08T17:00:00	5	Humedad	81
25153	7	Sololá	710	Panajachel	8	Panajachel	3	Marzo	2023-03-14T00:00:00	2024-11-08T17:00:00	6	Velocidad del viento	1.6
25154	7	Sololá	710	Panajachel	8	Panajachel	3	Marzo	2023-03-14T00:00:00	2024-11-08T17:00:00	7	Dirección del viento	1.61
25155	7	Sololá	710	Panajachel	8	Panajachel	3	Marzo	2023-03-14T00:00:00	2024-11-08T17:00:00	1	Precipitación	0
25156	7	Sololá	710	Panajachel	8	Panajachel	3	Marzo	2023-03-14T00:00:00	2024-11-08T17:00:00	8	Radiación solar	151
25157	7	Sololá	710	Panajachel	8	Panajachel	3	Marzo	2023-03-14T00:00:00	2024-11-08T18:00:00	2	Temperatura media	20.5
25158	7	Sololá	710	Panajachel	8	Panajachel	3	Marzo	2023-03-14T00:00:00	2024-11-08T18:00:00	4	Temperatura máxima	21.8
25159	7	Sololá	710	Panajachel	8	Panajachel	3	Marzo	2023-03-14T00:00:00	2024-11-08T18:00:00	3	Temperatura mínima	20.5
25160	7	Sololá	710	Panajachel	8	Panajachel	3	Marzo	2023-03-14T00:00:00	2024-11-08T18:00:00	5	Humedad	86
25161	7	Sololá	710	Panajachel	8	Panajachel	3	Marzo	2023-03-14T00:00:00	2024-11-08T18:00:00	6	Velocidad del viento	3.2
25162	7	Sololá	710	Panajachel	8	Panajachel	3	Marzo	2023-03-14T00:00:00	2024-11-08T18:00:00	7	Dirección del viento	3.22
25163	7	Sololá	710	Panajachel	8	Panajachel	3	Marzo	2023-03-14T00:00:00	2024-11-08T18:00:00	1	Precipitación	0
25164	7	Sololá	710	Panajachel	8	Panajachel	3	Marzo	2023-03-14T00:00:00	2024-11-08T18:00:00	8	Radiación solar	59
25165	7	Sololá	710	Panajachel	8	Panajachel	3	Marzo	2023-03-14T00:00:00	2024-11-08T19:00:00	2	Temperatura media	19.8
25166	7	Sololá	710	Panajachel	8	Panajachel	3	Marzo	2023-03-14T00:00:00	2024-11-08T19:00:00	4	Temperatura máxima	20.5
25167	7	Sololá	710	Panajachel	8	Panajachel	3	Marzo	2023-03-14T00:00:00	2024-11-08T19:00:00	3	Temperatura mínima	19.8
25168	7	Sololá	710	Panajachel	8	Panajachel	3	Marzo	2023-03-14T00:00:00	2024-11-08T19:00:00	5	Humedad	90
25169	7	Sololá	710	Panajachel	8	Panajachel	3	Marzo	2023-03-14T00:00:00	2024-11-08T19:00:00	6	Velocidad del viento	1.6
25170	7	Sololá	710	Panajachel	8	Panajachel	3	Marzo	2023-03-14T00:00:00	2024-11-08T19:00:00	7	Dirección del viento	1.61
25171	7	Sololá	710	Panajachel	8	Panajachel	3	Marzo	2023-03-14T00:00:00	2024-11-08T19:00:00	1	Precipitación	0
25172	7	Sololá	710	Panajachel	8	Panajachel	3	Marzo	2023-03-14T00:00:00	2024-11-08T19:00:00	8	Radiación solar	0
25173	7	Sololá	710	Panajachel	8	Panajachel	3	Marzo	2023-03-14T00:00:00	2024-11-08T20:00:00	2	Temperatura media	19.3
25174	7	Sololá	710	Panajachel	8	Panajachel	3	Marzo	2023-03-14T00:00:00	2024-11-08T20:00:00	4	Temperatura máxima	19.8
25175	7	Sololá	710	Panajachel	8	Panajachel	3	Marzo	2023-03-14T00:00:00	2024-11-08T20:00:00	3	Temperatura mínima	19.3
25176	7	Sololá	710	Panajachel	8	Panajachel	3	Marzo	2023-03-14T00:00:00	2024-11-08T20:00:00	5	Humedad	91
25177	7	Sololá	710	Panajachel	8	Panajachel	3	Marzo	2023-03-14T00:00:00	2024-11-08T20:00:00	6	Velocidad del viento	1.6
25178	7	Sololá	710	Panajachel	8	Panajachel	3	Marzo	2023-03-14T00:00:00	2024-11-08T20:00:00	7	Dirección del viento	1.61
25179	7	Sololá	710	Panajachel	8	Panajachel	3	Marzo	2023-03-14T00:00:00	2024-11-08T20:00:00	1	Precipitación	0
25180	7	Sololá	710	Panajachel	8	Panajachel	3	Marzo	2023-03-14T00:00:00	2024-11-08T20:00:00	8	Radiación solar	0
25181	7	Sololá	710	Panajachel	8	Panajachel	3	Marzo	2023-03-14T00:00:00	2024-11-08T21:00:00	2	Temperatura media	18.4
25182	7	Sololá	710	Panajachel	8	Panajachel	3	Marzo	2023-03-14T00:00:00	2024-11-08T21:00:00	4	Temperatura máxima	19.3
25183	7	Sololá	710	Panajachel	8	Panajachel	3	Marzo	2023-03-14T00:00:00	2024-11-08T21:00:00	3	Temperatura mínima	18.4
25184	7	Sololá	710	Panajachel	8	Panajachel	3	Marzo	2023-03-14T00:00:00	2024-11-08T21:00:00	5	Humedad	93
25185	7	Sololá	710	Panajachel	8	Panajachel	3	Marzo	2023-03-14T00:00:00	2024-11-08T21:00:00	6	Velocidad del viento	1.6
25186	7	Sololá	710	Panajachel	8	Panajachel	3	Marzo	2023-03-14T00:00:00	2024-11-08T21:00:00	7	Dirección del viento	1.61
25187	7	Sololá	710	Panajachel	8	Panajachel	3	Marzo	2023-03-14T00:00:00	2024-11-08T21:00:00	1	Precipitación	0
25188	7	Sololá	710	Panajachel	8	Panajachel	3	Marzo	2023-03-14T00:00:00	2024-11-08T21:00:00	8	Radiación solar	0
25189	7	Sololá	710	Panajachel	8	Panajachel	3	Marzo	2023-03-14T00:00:00	2024-11-08T22:00:00	2	Temperatura media	17.5
25190	7	Sololá	710	Panajachel	8	Panajachel	3	Marzo	2023-03-14T00:00:00	2024-11-08T22:00:00	4	Temperatura máxima	18.4
25191	7	Sololá	710	Panajachel	8	Panajachel	3	Marzo	2023-03-14T00:00:00	2024-11-08T22:00:00	3	Temperatura mínima	17.5
25192	7	Sololá	710	Panajachel	8	Panajachel	3	Marzo	2023-03-14T00:00:00	2024-11-08T22:00:00	5	Humedad	88
25193	7	Sololá	710	Panajachel	8	Panajachel	3	Marzo	2023-03-14T00:00:00	2024-11-08T22:00:00	6	Velocidad del viento	1.6
25194	7	Sololá	710	Panajachel	8	Panajachel	3	Marzo	2023-03-14T00:00:00	2024-11-08T22:00:00	7	Dirección del viento	1.61
25195	7	Sololá	710	Panajachel	8	Panajachel	3	Marzo	2023-03-14T00:00:00	2024-11-08T22:00:00	1	Precipitación	0
25196	7	Sololá	710	Panajachel	8	Panajachel	3	Marzo	2023-03-14T00:00:00	2024-11-08T22:00:00	8	Radiación solar	0
25197	7	Sololá	710	Panajachel	8	Panajachel	3	Marzo	2023-03-14T00:00:00	2024-11-08T23:00:00	2	Temperatura media	17.6
25198	7	Sololá	710	Panajachel	8	Panajachel	3	Marzo	2023-03-14T00:00:00	2024-11-08T23:00:00	4	Temperatura máxima	17.6
25199	7	Sololá	710	Panajachel	8	Panajachel	3	Marzo	2023-03-14T00:00:00	2024-11-08T23:00:00	3	Temperatura mínima	17.1
25200	7	Sololá	710	Panajachel	8	Panajachel	3	Marzo	2023-03-14T00:00:00	2024-11-08T23:00:00	5	Humedad	83
25201	7	Sololá	710	Panajachel	8	Panajachel	3	Marzo	2023-03-14T00:00:00	2024-11-08T23:00:00	6	Velocidad del viento	3.2
25202	7	Sololá	710	Panajachel	8	Panajachel	3	Marzo	2023-03-14T00:00:00	2024-11-08T23:00:00	7	Dirección del viento	3.22
25203	7	Sololá	710	Panajachel	8	Panajachel	3	Marzo	2023-03-14T00:00:00	2024-11-08T23:00:00	1	Precipitación	0
25204	7	Sololá	710	Panajachel	8	Panajachel	3	Marzo	2023-03-14T00:00:00	2024-11-08T23:00:00	8	Radiación solar	0
25205	7	Sololá	710	Panajachel	8	Panajachel	3	Marzo	2023-03-15T00:00:00	2024-11-08T00:00:00	2	Temperatura media	16.2
25206	7	Sololá	710	Panajachel	8	Panajachel	3	Marzo	2023-03-15T00:00:00	2024-11-08T00:00:00	4	Temperatura máxima	17.6
25207	7	Sololá	710	Panajachel	8	Panajachel	3	Marzo	2023-03-15T00:00:00	2024-11-08T00:00:00	3	Temperatura mínima	16.1
25208	7	Sololá	710	Panajachel	8	Panajachel	3	Marzo	2023-03-15T00:00:00	2024-11-08T00:00:00	5	Humedad	86
25209	7	Sololá	710	Panajachel	8	Panajachel	3	Marzo	2023-03-15T00:00:00	2024-11-08T00:00:00	6	Velocidad del viento	3.2
25210	7	Sololá	710	Panajachel	8	Panajachel	3	Marzo	2023-03-15T00:00:00	2024-11-08T00:00:00	7	Dirección del viento	3.22
25211	7	Sololá	710	Panajachel	8	Panajachel	3	Marzo	2023-03-15T00:00:00	2024-11-08T00:00:00	1	Precipitación	0
25212	7	Sololá	710	Panajachel	8	Panajachel	3	Marzo	2023-03-15T00:00:00	2024-11-08T00:00:00	8	Radiación solar	0
25213	7	Sololá	710	Panajachel	8	Panajachel	3	Marzo	2023-03-15T00:00:00	2024-11-08T01:00:00	2	Temperatura media	16.2
25214	7	Sololá	710	Panajachel	8	Panajachel	3	Marzo	2023-03-15T00:00:00	2024-11-08T01:00:00	4	Temperatura máxima	16.4
25215	7	Sololá	710	Panajachel	8	Panajachel	3	Marzo	2023-03-15T00:00:00	2024-11-08T01:00:00	3	Temperatura mínima	15.9
25216	7	Sololá	710	Panajachel	8	Panajachel	3	Marzo	2023-03-15T00:00:00	2024-11-08T01:00:00	5	Humedad	84
25217	7	Sololá	710	Panajachel	8	Panajachel	3	Marzo	2023-03-15T00:00:00	2024-11-08T01:00:00	6	Velocidad del viento	3.2
25218	7	Sololá	710	Panajachel	8	Panajachel	3	Marzo	2023-03-15T00:00:00	2024-11-08T01:00:00	7	Dirección del viento	3.22
25219	7	Sololá	710	Panajachel	8	Panajachel	3	Marzo	2023-03-15T00:00:00	2024-11-08T01:00:00	1	Precipitación	0
25220	7	Sololá	710	Panajachel	8	Panajachel	3	Marzo	2023-03-15T00:00:00	2024-11-08T01:00:00	8	Radiación solar	0
25221	7	Sololá	710	Panajachel	8	Panajachel	3	Marzo	2023-03-15T00:00:00	2024-11-08T02:00:00	2	Temperatura media	16.1
25222	7	Sololá	710	Panajachel	8	Panajachel	3	Marzo	2023-03-15T00:00:00	2024-11-08T02:00:00	4	Temperatura máxima	16.6
25223	7	Sololá	710	Panajachel	8	Panajachel	3	Marzo	2023-03-15T00:00:00	2024-11-08T02:00:00	3	Temperatura mínima	16
25224	7	Sololá	710	Panajachel	8	Panajachel	3	Marzo	2023-03-15T00:00:00	2024-11-08T02:00:00	5	Humedad	83
25225	7	Sololá	710	Panajachel	8	Panajachel	3	Marzo	2023-03-15T00:00:00	2024-11-08T02:00:00	6	Velocidad del viento	1.6
25226	7	Sololá	710	Panajachel	8	Panajachel	3	Marzo	2023-03-15T00:00:00	2024-11-08T02:00:00	7	Dirección del viento	1.61
25227	7	Sololá	710	Panajachel	8	Panajachel	3	Marzo	2023-03-15T00:00:00	2024-11-08T02:00:00	1	Precipitación	0
25228	7	Sololá	710	Panajachel	8	Panajachel	3	Marzo	2023-03-15T00:00:00	2024-11-08T02:00:00	8	Radiación solar	0
25229	7	Sololá	710	Panajachel	8	Panajachel	3	Marzo	2023-03-15T00:00:00	2024-11-08T03:00:00	2	Temperatura media	15.4
25230	7	Sololá	710	Panajachel	8	Panajachel	3	Marzo	2023-03-15T00:00:00	2024-11-08T03:00:00	4	Temperatura máxima	16.1
25231	7	Sololá	710	Panajachel	8	Panajachel	3	Marzo	2023-03-15T00:00:00	2024-11-08T03:00:00	3	Temperatura mínima	15.4
25232	7	Sololá	710	Panajachel	8	Panajachel	3	Marzo	2023-03-15T00:00:00	2024-11-08T03:00:00	5	Humedad	84
25233	7	Sololá	710	Panajachel	8	Panajachel	3	Marzo	2023-03-15T00:00:00	2024-11-08T03:00:00	6	Velocidad del viento	0
25234	7	Sololá	710	Panajachel	8	Panajachel	3	Marzo	2023-03-15T00:00:00	2024-11-08T03:00:00	7	Dirección del viento	0
25235	7	Sololá	710	Panajachel	8	Panajachel	3	Marzo	2023-03-15T00:00:00	2024-11-08T03:00:00	1	Precipitación	0
25236	7	Sololá	710	Panajachel	8	Panajachel	3	Marzo	2023-03-15T00:00:00	2024-11-08T03:00:00	8	Radiación solar	0
25237	7	Sololá	710	Panajachel	8	Panajachel	3	Marzo	2023-03-15T00:00:00	2024-11-08T04:00:00	2	Temperatura media	15.7
25238	7	Sololá	710	Panajachel	8	Panajachel	3	Marzo	2023-03-15T00:00:00	2024-11-08T04:00:00	4	Temperatura máxima	15.7
25239	7	Sololá	710	Panajachel	8	Panajachel	3	Marzo	2023-03-15T00:00:00	2024-11-08T04:00:00	3	Temperatura mínima	15.4
25240	7	Sololá	710	Panajachel	8	Panajachel	3	Marzo	2023-03-15T00:00:00	2024-11-08T04:00:00	5	Humedad	84
25241	7	Sololá	710	Panajachel	8	Panajachel	3	Marzo	2023-03-15T00:00:00	2024-11-08T04:00:00	6	Velocidad del viento	1.6
25242	7	Sololá	710	Panajachel	8	Panajachel	3	Marzo	2023-03-15T00:00:00	2024-11-08T04:00:00	7	Dirección del viento	1.61
25243	7	Sololá	710	Panajachel	8	Panajachel	3	Marzo	2023-03-15T00:00:00	2024-11-08T04:00:00	1	Precipitación	0
25244	7	Sololá	710	Panajachel	8	Panajachel	3	Marzo	2023-03-15T00:00:00	2024-11-08T04:00:00	8	Radiación solar	0
25245	7	Sololá	710	Panajachel	8	Panajachel	3	Marzo	2023-03-15T00:00:00	2024-11-08T05:00:00	2	Temperatura media	15.8
25246	7	Sololá	710	Panajachel	8	Panajachel	3	Marzo	2023-03-15T00:00:00	2024-11-08T05:00:00	4	Temperatura máxima	15.9
25247	7	Sololá	710	Panajachel	8	Panajachel	3	Marzo	2023-03-15T00:00:00	2024-11-08T05:00:00	3	Temperatura mínima	15.5
25248	7	Sololá	710	Panajachel	8	Panajachel	3	Marzo	2023-03-15T00:00:00	2024-11-08T05:00:00	5	Humedad	85
25249	7	Sololá	710	Panajachel	8	Panajachel	3	Marzo	2023-03-15T00:00:00	2024-11-08T05:00:00	6	Velocidad del viento	1.6
25250	7	Sololá	710	Panajachel	8	Panajachel	3	Marzo	2023-03-15T00:00:00	2024-11-08T05:00:00	7	Dirección del viento	1.61
25251	7	Sololá	710	Panajachel	8	Panajachel	3	Marzo	2023-03-15T00:00:00	2024-11-08T05:00:00	1	Precipitación	0
25252	7	Sololá	710	Panajachel	8	Panajachel	3	Marzo	2023-03-15T00:00:00	2024-11-08T05:00:00	8	Radiación solar	0
25253	7	Sololá	710	Panajachel	8	Panajachel	3	Marzo	2023-03-15T00:00:00	2024-11-08T06:00:00	2	Temperatura media	15.5
25254	7	Sololá	710	Panajachel	8	Panajachel	3	Marzo	2023-03-15T00:00:00	2024-11-08T06:00:00	4	Temperatura máxima	15.9
25255	7	Sololá	710	Panajachel	8	Panajachel	3	Marzo	2023-03-15T00:00:00	2024-11-08T06:00:00	3	Temperatura mínima	15.2
25256	7	Sololá	710	Panajachel	8	Panajachel	3	Marzo	2023-03-15T00:00:00	2024-11-08T06:00:00	5	Humedad	86
25257	7	Sololá	710	Panajachel	8	Panajachel	3	Marzo	2023-03-15T00:00:00	2024-11-08T06:00:00	6	Velocidad del viento	1.6
25258	7	Sololá	710	Panajachel	8	Panajachel	3	Marzo	2023-03-15T00:00:00	2024-11-08T06:00:00	7	Dirección del viento	1.61
25259	7	Sololá	710	Panajachel	8	Panajachel	3	Marzo	2023-03-15T00:00:00	2024-11-08T06:00:00	1	Precipitación	0
25260	7	Sololá	710	Panajachel	8	Panajachel	3	Marzo	2023-03-15T00:00:00	2024-11-08T06:00:00	8	Radiación solar	0
25261	7	Sololá	710	Panajachel	8	Panajachel	3	Marzo	2023-03-15T00:00:00	2024-11-08T07:00:00	2	Temperatura media	16.2
25262	7	Sololá	710	Panajachel	8	Panajachel	3	Marzo	2023-03-15T00:00:00	2024-11-08T07:00:00	4	Temperatura máxima	16.2
25263	7	Sololá	710	Panajachel	8	Panajachel	3	Marzo	2023-03-15T00:00:00	2024-11-08T07:00:00	3	Temperatura mínima	15.5
25264	7	Sololá	710	Panajachel	8	Panajachel	3	Marzo	2023-03-15T00:00:00	2024-11-08T07:00:00	5	Humedad	85
25265	7	Sololá	710	Panajachel	8	Panajachel	3	Marzo	2023-03-15T00:00:00	2024-11-08T07:00:00	6	Velocidad del viento	1.6
25266	7	Sololá	710	Panajachel	8	Panajachel	3	Marzo	2023-03-15T00:00:00	2024-11-08T07:00:00	7	Dirección del viento	1.61
25267	7	Sololá	710	Panajachel	8	Panajachel	3	Marzo	2023-03-15T00:00:00	2024-11-08T07:00:00	1	Precipitación	0
25268	7	Sololá	710	Panajachel	8	Panajachel	3	Marzo	2023-03-15T00:00:00	2024-11-08T07:00:00	8	Radiación solar	15
25269	7	Sololá	710	Panajachel	8	Panajachel	3	Marzo	2023-03-15T00:00:00	2024-11-08T08:00:00	2	Temperatura media	18.8
25270	7	Sololá	710	Panajachel	8	Panajachel	3	Marzo	2023-03-15T00:00:00	2024-11-08T08:00:00	4	Temperatura máxima	18.8
25271	7	Sololá	710	Panajachel	8	Panajachel	3	Marzo	2023-03-15T00:00:00	2024-11-08T08:00:00	3	Temperatura mínima	16.1
25272	7	Sololá	710	Panajachel	8	Panajachel	3	Marzo	2023-03-15T00:00:00	2024-11-08T08:00:00	5	Humedad	83
25273	7	Sololá	710	Panajachel	8	Panajachel	3	Marzo	2023-03-15T00:00:00	2024-11-08T08:00:00	6	Velocidad del viento	3.2
25274	7	Sololá	710	Panajachel	8	Panajachel	3	Marzo	2023-03-15T00:00:00	2024-11-08T08:00:00	7	Dirección del viento	3.22
25275	7	Sololá	710	Panajachel	8	Panajachel	3	Marzo	2023-03-15T00:00:00	2024-11-08T08:00:00	1	Precipitación	0
25276	7	Sololá	710	Panajachel	8	Panajachel	3	Marzo	2023-03-15T00:00:00	2024-11-08T08:00:00	8	Radiación solar	223
25277	7	Sololá	710	Panajachel	8	Panajachel	3	Marzo	2023-03-15T00:00:00	2024-11-08T09:00:00	2	Temperatura media	20.8
25278	7	Sololá	710	Panajachel	8	Panajachel	3	Marzo	2023-03-15T00:00:00	2024-11-08T09:00:00	4	Temperatura máxima	20.9
25279	7	Sololá	710	Panajachel	8	Panajachel	3	Marzo	2023-03-15T00:00:00	2024-11-08T09:00:00	3	Temperatura mínima	18.8
25280	7	Sololá	710	Panajachel	8	Panajachel	3	Marzo	2023-03-15T00:00:00	2024-11-08T09:00:00	5	Humedad	78
25281	7	Sololá	710	Panajachel	8	Panajachel	3	Marzo	2023-03-15T00:00:00	2024-11-08T09:00:00	6	Velocidad del viento	3.2
25282	7	Sololá	710	Panajachel	8	Panajachel	3	Marzo	2023-03-15T00:00:00	2024-11-08T09:00:00	7	Dirección del viento	3.22
25283	7	Sololá	710	Panajachel	8	Panajachel	3	Marzo	2023-03-15T00:00:00	2024-11-08T09:00:00	1	Precipitación	0
25284	7	Sololá	710	Panajachel	8	Panajachel	3	Marzo	2023-03-15T00:00:00	2024-11-08T09:00:00	8	Radiación solar	467
25285	7	Sololá	710	Panajachel	8	Panajachel	3	Marzo	2023-03-15T00:00:00	2024-11-08T10:00:00	2	Temperatura media	23.8
25286	7	Sololá	710	Panajachel	8	Panajachel	3	Marzo	2023-03-15T00:00:00	2024-11-08T10:00:00	4	Temperatura máxima	24.3
25287	7	Sololá	710	Panajachel	8	Panajachel	3	Marzo	2023-03-15T00:00:00	2024-11-08T10:00:00	3	Temperatura mínima	20.6
25288	7	Sololá	710	Panajachel	8	Panajachel	3	Marzo	2023-03-15T00:00:00	2024-11-08T10:00:00	5	Humedad	58
25289	7	Sololá	710	Panajachel	8	Panajachel	3	Marzo	2023-03-15T00:00:00	2024-11-08T10:00:00	6	Velocidad del viento	4.8
25290	7	Sololá	710	Panajachel	8	Panajachel	3	Marzo	2023-03-15T00:00:00	2024-11-08T10:00:00	7	Dirección del viento	4.83
25291	7	Sololá	710	Panajachel	8	Panajachel	3	Marzo	2023-03-15T00:00:00	2024-11-08T10:00:00	1	Precipitación	0
25292	7	Sololá	710	Panajachel	8	Panajachel	3	Marzo	2023-03-15T00:00:00	2024-11-08T10:00:00	8	Radiación solar	753
25293	7	Sololá	710	Panajachel	8	Panajachel	3	Marzo	2023-03-15T00:00:00	2024-11-08T11:00:00	2	Temperatura media	25.1
25294	7	Sololá	710	Panajachel	8	Panajachel	3	Marzo	2023-03-15T00:00:00	2024-11-08T11:00:00	4	Temperatura máxima	25.6
25295	7	Sololá	710	Panajachel	8	Panajachel	3	Marzo	2023-03-15T00:00:00	2024-11-08T11:00:00	3	Temperatura mínima	22.5
25296	7	Sololá	710	Panajachel	8	Panajachel	3	Marzo	2023-03-15T00:00:00	2024-11-08T11:00:00	5	Humedad	49
25297	7	Sololá	710	Panajachel	8	Panajachel	3	Marzo	2023-03-15T00:00:00	2024-11-08T11:00:00	6	Velocidad del viento	8
25298	7	Sololá	710	Panajachel	8	Panajachel	3	Marzo	2023-03-15T00:00:00	2024-11-08T11:00:00	7	Dirección del viento	8.05
25299	7	Sololá	710	Panajachel	8	Panajachel	3	Marzo	2023-03-15T00:00:00	2024-11-08T11:00:00	1	Precipitación	0
25300	7	Sololá	710	Panajachel	8	Panajachel	3	Marzo	2023-03-15T00:00:00	2024-11-08T11:00:00	8	Radiación solar	885
25301	7	Sololá	710	Panajachel	8	Panajachel	3	Marzo	2023-03-15T00:00:00	2024-11-08T12:00:00	2	Temperatura media	24.4
25302	7	Sololá	710	Panajachel	8	Panajachel	3	Marzo	2023-03-15T00:00:00	2024-11-08T12:00:00	4	Temperatura máxima	25.4
25303	7	Sololá	710	Panajachel	8	Panajachel	3	Marzo	2023-03-15T00:00:00	2024-11-08T12:00:00	3	Temperatura mínima	23.3
25304	7	Sololá	710	Panajachel	8	Panajachel	3	Marzo	2023-03-15T00:00:00	2024-11-08T12:00:00	5	Humedad	72
25305	7	Sololá	710	Panajachel	8	Panajachel	3	Marzo	2023-03-15T00:00:00	2024-11-08T12:00:00	6	Velocidad del viento	4.8
25306	7	Sololá	710	Panajachel	8	Panajachel	3	Marzo	2023-03-15T00:00:00	2024-11-08T12:00:00	7	Dirección del viento	4.83
25307	7	Sololá	710	Panajachel	8	Panajachel	3	Marzo	2023-03-15T00:00:00	2024-11-08T12:00:00	1	Precipitación	0
25308	7	Sololá	710	Panajachel	8	Panajachel	3	Marzo	2023-03-15T00:00:00	2024-11-08T12:00:00	8	Radiación solar	839
25309	7	Sololá	710	Panajachel	8	Panajachel	3	Marzo	2023-03-15T00:00:00	2024-11-08T13:00:00	2	Temperatura media	24.2
25310	7	Sololá	710	Panajachel	8	Panajachel	3	Marzo	2023-03-15T00:00:00	2024-11-08T13:00:00	4	Temperatura máxima	24.6
25311	7	Sololá	710	Panajachel	8	Panajachel	3	Marzo	2023-03-15T00:00:00	2024-11-08T13:00:00	3	Temperatura mínima	23.5
25312	7	Sololá	710	Panajachel	8	Panajachel	3	Marzo	2023-03-15T00:00:00	2024-11-08T13:00:00	5	Humedad	74
25313	7	Sololá	710	Panajachel	8	Panajachel	3	Marzo	2023-03-15T00:00:00	2024-11-08T13:00:00	6	Velocidad del viento	6.4
25314	7	Sololá	710	Panajachel	8	Panajachel	3	Marzo	2023-03-15T00:00:00	2024-11-08T13:00:00	7	Dirección del viento	6.44
25315	7	Sololá	710	Panajachel	8	Panajachel	3	Marzo	2023-03-15T00:00:00	2024-11-08T13:00:00	1	Precipitación	0
25316	7	Sololá	710	Panajachel	8	Panajachel	3	Marzo	2023-03-15T00:00:00	2024-11-08T13:00:00	8	Radiación solar	889
25317	7	Sololá	710	Panajachel	8	Panajachel	3	Marzo	2023-03-15T00:00:00	2024-11-08T14:00:00	2	Temperatura media	21.5
25318	7	Sololá	710	Panajachel	8	Panajachel	3	Marzo	2023-03-15T00:00:00	2024-11-08T14:00:00	4	Temperatura máxima	24.6
25319	7	Sololá	710	Panajachel	8	Panajachel	3	Marzo	2023-03-15T00:00:00	2024-11-08T14:00:00	3	Temperatura mínima	21.5
25320	7	Sololá	710	Panajachel	8	Panajachel	3	Marzo	2023-03-15T00:00:00	2024-11-08T14:00:00	5	Humedad	85
25321	7	Sololá	710	Panajachel	8	Panajachel	3	Marzo	2023-03-15T00:00:00	2024-11-08T14:00:00	6	Velocidad del viento	8
25322	7	Sololá	710	Panajachel	8	Panajachel	3	Marzo	2023-03-15T00:00:00	2024-11-08T14:00:00	7	Dirección del viento	8.05
25323	7	Sololá	710	Panajachel	8	Panajachel	3	Marzo	2023-03-15T00:00:00	2024-11-08T14:00:00	1	Precipitación	0
25324	7	Sololá	710	Panajachel	8	Panajachel	3	Marzo	2023-03-15T00:00:00	2024-11-08T14:00:00	8	Radiación solar	364
25325	7	Sololá	710	Panajachel	8	Panajachel	3	Marzo	2023-03-15T00:00:00	2024-11-08T15:00:00	2	Temperatura media	21.8
25326	7	Sololá	710	Panajachel	8	Panajachel	3	Marzo	2023-03-15T00:00:00	2024-11-08T15:00:00	4	Temperatura máxima	21.8
25327	7	Sololá	710	Panajachel	8	Panajachel	3	Marzo	2023-03-15T00:00:00	2024-11-08T15:00:00	3	Temperatura mínima	20.7
25328	7	Sololá	710	Panajachel	8	Panajachel	3	Marzo	2023-03-15T00:00:00	2024-11-08T15:00:00	5	Humedad	85
25329	7	Sololá	710	Panajachel	8	Panajachel	3	Marzo	2023-03-15T00:00:00	2024-11-08T15:00:00	6	Velocidad del viento	4.8
25330	7	Sololá	710	Panajachel	8	Panajachel	3	Marzo	2023-03-15T00:00:00	2024-11-08T15:00:00	7	Dirección del viento	4.83
25331	7	Sololá	710	Panajachel	8	Panajachel	3	Marzo	2023-03-15T00:00:00	2024-11-08T15:00:00	1	Precipitación	0
25332	7	Sololá	710	Panajachel	8	Panajachel	3	Marzo	2023-03-15T00:00:00	2024-11-08T15:00:00	8	Radiación solar	231
25333	7	Sololá	710	Panajachel	8	Panajachel	3	Marzo	2023-03-15T00:00:00	2024-11-08T16:00:00	2	Temperatura media	20.6
25334	7	Sololá	710	Panajachel	8	Panajachel	3	Marzo	2023-03-15T00:00:00	2024-11-08T16:00:00	4	Temperatura máxima	22.4
25335	7	Sololá	710	Panajachel	8	Panajachel	3	Marzo	2023-03-15T00:00:00	2024-11-08T16:00:00	3	Temperatura mínima	20.6
25336	7	Sololá	710	Panajachel	8	Panajachel	3	Marzo	2023-03-15T00:00:00	2024-11-08T16:00:00	5	Humedad	86
25337	7	Sololá	710	Panajachel	8	Panajachel	3	Marzo	2023-03-15T00:00:00	2024-11-08T16:00:00	6	Velocidad del viento	4.8
25338	7	Sololá	710	Panajachel	8	Panajachel	3	Marzo	2023-03-15T00:00:00	2024-11-08T16:00:00	7	Dirección del viento	4.83
25339	7	Sololá	710	Panajachel	8	Panajachel	3	Marzo	2023-03-15T00:00:00	2024-11-08T16:00:00	1	Precipitación	0
25340	7	Sololá	710	Panajachel	8	Panajachel	3	Marzo	2023-03-15T00:00:00	2024-11-08T16:00:00	8	Radiación solar	211
25341	7	Sololá	710	Panajachel	8	Panajachel	3	Marzo	2023-03-15T00:00:00	2024-11-08T17:00:00	2	Temperatura media	19.6
25342	7	Sololá	710	Panajachel	8	Panajachel	3	Marzo	2023-03-15T00:00:00	2024-11-08T17:00:00	4	Temperatura máxima	20.6
25343	7	Sololá	710	Panajachel	8	Panajachel	3	Marzo	2023-03-15T00:00:00	2024-11-08T17:00:00	3	Temperatura mínima	19.6
25344	7	Sololá	710	Panajachel	8	Panajachel	3	Marzo	2023-03-15T00:00:00	2024-11-08T17:00:00	5	Humedad	92
25345	7	Sololá	710	Panajachel	8	Panajachel	3	Marzo	2023-03-15T00:00:00	2024-11-08T17:00:00	6	Velocidad del viento	0
25346	7	Sololá	710	Panajachel	8	Panajachel	3	Marzo	2023-03-15T00:00:00	2024-11-08T17:00:00	7	Dirección del viento	0
25347	7	Sololá	710	Panajachel	8	Panajachel	3	Marzo	2023-03-15T00:00:00	2024-11-08T17:00:00	1	Precipitación	0.6
25348	7	Sololá	710	Panajachel	8	Panajachel	3	Marzo	2023-03-15T00:00:00	2024-11-08T17:00:00	8	Radiación solar	21
25349	7	Sololá	710	Panajachel	8	Panajachel	3	Marzo	2023-03-15T00:00:00	2024-11-08T18:00:00	2	Temperatura media	17.6
25350	7	Sololá	710	Panajachel	8	Panajachel	3	Marzo	2023-03-15T00:00:00	2024-11-08T18:00:00	4	Temperatura máxima	19.6
25351	7	Sololá	710	Panajachel	8	Panajachel	3	Marzo	2023-03-15T00:00:00	2024-11-08T18:00:00	3	Temperatura mínima	17.6
25352	7	Sololá	710	Panajachel	8	Panajachel	3	Marzo	2023-03-15T00:00:00	2024-11-08T18:00:00	5	Humedad	93
25353	7	Sololá	710	Panajachel	8	Panajachel	3	Marzo	2023-03-15T00:00:00	2024-11-08T18:00:00	6	Velocidad del viento	4.8
25354	7	Sololá	710	Panajachel	8	Panajachel	3	Marzo	2023-03-15T00:00:00	2024-11-08T18:00:00	7	Dirección del viento	4.83
25355	7	Sololá	710	Panajachel	8	Panajachel	3	Marzo	2023-03-15T00:00:00	2024-11-08T18:00:00	1	Precipitación	2.8
25356	7	Sololá	710	Panajachel	8	Panajachel	3	Marzo	2023-03-15T00:00:00	2024-11-08T18:00:00	8	Radiación solar	10
25357	7	Sololá	710	Panajachel	8	Panajachel	3	Marzo	2023-03-15T00:00:00	2024-11-08T19:00:00	2	Temperatura media	16.8
25358	7	Sololá	710	Panajachel	8	Panajachel	3	Marzo	2023-03-15T00:00:00	2024-11-08T19:00:00	4	Temperatura máxima	17.6
25359	7	Sololá	710	Panajachel	8	Panajachel	3	Marzo	2023-03-15T00:00:00	2024-11-08T19:00:00	3	Temperatura mínima	16.8
25360	7	Sololá	710	Panajachel	8	Panajachel	3	Marzo	2023-03-15T00:00:00	2024-11-08T19:00:00	5	Humedad	89
25361	7	Sololá	710	Panajachel	8	Panajachel	3	Marzo	2023-03-15T00:00:00	2024-11-08T19:00:00	6	Velocidad del viento	3.2
25362	7	Sololá	710	Panajachel	8	Panajachel	3	Marzo	2023-03-15T00:00:00	2024-11-08T19:00:00	7	Dirección del viento	3.22
25363	7	Sololá	710	Panajachel	8	Panajachel	3	Marzo	2023-03-15T00:00:00	2024-11-08T19:00:00	1	Precipitación	0.4
25364	7	Sololá	710	Panajachel	8	Panajachel	3	Marzo	2023-03-15T00:00:00	2024-11-08T19:00:00	8	Radiación solar	0
25365	7	Sololá	710	Panajachel	8	Panajachel	3	Marzo	2023-03-15T00:00:00	2024-11-08T20:00:00	2	Temperatura media	16.4
25366	7	Sololá	710	Panajachel	8	Panajachel	3	Marzo	2023-03-15T00:00:00	2024-11-08T20:00:00	4	Temperatura máxima	17
25367	7	Sololá	710	Panajachel	8	Panajachel	3	Marzo	2023-03-15T00:00:00	2024-11-08T20:00:00	3	Temperatura mínima	16.4
25368	7	Sololá	710	Panajachel	8	Panajachel	3	Marzo	2023-03-15T00:00:00	2024-11-08T20:00:00	5	Humedad	89
25369	7	Sololá	710	Panajachel	8	Panajachel	3	Marzo	2023-03-15T00:00:00	2024-11-08T20:00:00	6	Velocidad del viento	1.6
25370	7	Sololá	710	Panajachel	8	Panajachel	3	Marzo	2023-03-15T00:00:00	2024-11-08T20:00:00	7	Dirección del viento	1.61
25371	7	Sololá	710	Panajachel	8	Panajachel	3	Marzo	2023-03-15T00:00:00	2024-11-08T20:00:00	1	Precipitación	0
25372	7	Sololá	710	Panajachel	8	Panajachel	3	Marzo	2023-03-15T00:00:00	2024-11-08T20:00:00	8	Radiación solar	0
25373	7	Sololá	710	Panajachel	8	Panajachel	3	Marzo	2023-03-15T00:00:00	2024-11-08T21:00:00	2	Temperatura media	17.2
25374	7	Sololá	710	Panajachel	8	Panajachel	3	Marzo	2023-03-15T00:00:00	2024-11-08T21:00:00	4	Temperatura máxima	18.7
25375	7	Sololá	710	Panajachel	8	Panajachel	3	Marzo	2023-03-15T00:00:00	2024-11-08T21:00:00	3	Temperatura mínima	16.3
25376	7	Sololá	710	Panajachel	8	Panajachel	3	Marzo	2023-03-15T00:00:00	2024-11-08T21:00:00	5	Humedad	81
25377	7	Sololá	710	Panajachel	8	Panajachel	3	Marzo	2023-03-15T00:00:00	2024-11-08T21:00:00	6	Velocidad del viento	4.8
25378	7	Sololá	710	Panajachel	8	Panajachel	3	Marzo	2023-03-15T00:00:00	2024-11-08T21:00:00	7	Dirección del viento	4.83
25379	7	Sololá	710	Panajachel	8	Panajachel	3	Marzo	2023-03-15T00:00:00	2024-11-08T21:00:00	1	Precipitación	0
25380	7	Sololá	710	Panajachel	8	Panajachel	3	Marzo	2023-03-15T00:00:00	2024-11-08T21:00:00	8	Radiación solar	0
25381	7	Sololá	710	Panajachel	8	Panajachel	3	Marzo	2023-03-15T00:00:00	2024-11-08T22:00:00	2	Temperatura media	17.4
25382	7	Sololá	710	Panajachel	8	Panajachel	3	Marzo	2023-03-15T00:00:00	2024-11-08T22:00:00	4	Temperatura máxima	17.4
25383	7	Sololá	710	Panajachel	8	Panajachel	3	Marzo	2023-03-15T00:00:00	2024-11-08T22:00:00	3	Temperatura mínima	16.4
25384	7	Sololá	710	Panajachel	8	Panajachel	3	Marzo	2023-03-15T00:00:00	2024-11-08T22:00:00	5	Humedad	79
25385	7	Sololá	710	Panajachel	8	Panajachel	3	Marzo	2023-03-15T00:00:00	2024-11-08T22:00:00	6	Velocidad del viento	3.2
25386	7	Sololá	710	Panajachel	8	Panajachel	3	Marzo	2023-03-15T00:00:00	2024-11-08T22:00:00	7	Dirección del viento	3.22
25387	7	Sololá	710	Panajachel	8	Panajachel	3	Marzo	2023-03-15T00:00:00	2024-11-08T22:00:00	1	Precipitación	0
25388	7	Sololá	710	Panajachel	8	Panajachel	3	Marzo	2023-03-15T00:00:00	2024-11-08T22:00:00	8	Radiación solar	0
25389	7	Sololá	710	Panajachel	8	Panajachel	3	Marzo	2023-03-15T00:00:00	2024-11-08T23:00:00	2	Temperatura media	16.9
25390	7	Sololá	710	Panajachel	8	Panajachel	3	Marzo	2023-03-15T00:00:00	2024-11-08T23:00:00	4	Temperatura máxima	18.6
25391	7	Sololá	710	Panajachel	8	Panajachel	3	Marzo	2023-03-15T00:00:00	2024-11-08T23:00:00	3	Temperatura mínima	16.9
25392	7	Sololá	710	Panajachel	8	Panajachel	3	Marzo	2023-03-15T00:00:00	2024-11-08T23:00:00	5	Humedad	82
25393	7	Sololá	710	Panajachel	8	Panajachel	3	Marzo	2023-03-15T00:00:00	2024-11-08T23:00:00	6	Velocidad del viento	3.2
25394	7	Sololá	710	Panajachel	8	Panajachel	3	Marzo	2023-03-15T00:00:00	2024-11-08T23:00:00	7	Dirección del viento	3.22
25395	7	Sololá	710	Panajachel	8	Panajachel	3	Marzo	2023-03-15T00:00:00	2024-11-08T23:00:00	1	Precipitación	0
25396	7	Sololá	710	Panajachel	8	Panajachel	3	Marzo	2023-03-15T00:00:00	2024-11-08T23:00:00	8	Radiación solar	0
25397	7	Sololá	710	Panajachel	8	Panajachel	3	Marzo	2023-03-16T00:00:00	2024-11-08T00:00:00	2	Temperatura media	15.7
25398	7	Sololá	710	Panajachel	8	Panajachel	3	Marzo	2023-03-16T00:00:00	2024-11-08T00:00:00	4	Temperatura máxima	16.9
25399	7	Sololá	710	Panajachel	8	Panajachel	3	Marzo	2023-03-16T00:00:00	2024-11-08T00:00:00	3	Temperatura mínima	15.7
25400	7	Sololá	710	Panajachel	8	Panajachel	3	Marzo	2023-03-16T00:00:00	2024-11-08T00:00:00	5	Humedad	85
25401	7	Sololá	710	Panajachel	8	Panajachel	3	Marzo	2023-03-16T00:00:00	2024-11-08T00:00:00	6	Velocidad del viento	3.2
25402	7	Sololá	710	Panajachel	8	Panajachel	3	Marzo	2023-03-16T00:00:00	2024-11-08T00:00:00	7	Dirección del viento	3.22
25403	7	Sololá	710	Panajachel	8	Panajachel	3	Marzo	2023-03-16T00:00:00	2024-11-08T00:00:00	1	Precipitación	0
25404	7	Sololá	710	Panajachel	8	Panajachel	3	Marzo	2023-03-16T00:00:00	2024-11-08T00:00:00	8	Radiación solar	0
25405	7	Sololá	710	Panajachel	8	Panajachel	3	Marzo	2023-03-16T00:00:00	2024-11-08T01:00:00	2	Temperatura media	17.5
25406	7	Sololá	710	Panajachel	8	Panajachel	3	Marzo	2023-03-16T00:00:00	2024-11-08T01:00:00	4	Temperatura máxima	17.8
25407	7	Sololá	710	Panajachel	8	Panajachel	3	Marzo	2023-03-16T00:00:00	2024-11-08T01:00:00	3	Temperatura mínima	15.3
25408	7	Sololá	710	Panajachel	8	Panajachel	3	Marzo	2023-03-16T00:00:00	2024-11-08T01:00:00	5	Humedad	77
25409	7	Sololá	710	Panajachel	8	Panajachel	3	Marzo	2023-03-16T00:00:00	2024-11-08T01:00:00	6	Velocidad del viento	3.2
25410	7	Sololá	710	Panajachel	8	Panajachel	3	Marzo	2023-03-16T00:00:00	2024-11-08T01:00:00	7	Dirección del viento	3.22
25411	7	Sololá	710	Panajachel	8	Panajachel	3	Marzo	2023-03-16T00:00:00	2024-11-08T01:00:00	1	Precipitación	0
25412	7	Sololá	710	Panajachel	8	Panajachel	3	Marzo	2023-03-16T00:00:00	2024-11-08T01:00:00	8	Radiación solar	0
25413	7	Sololá	710	Panajachel	8	Panajachel	3	Marzo	2023-03-16T00:00:00	2024-11-08T02:00:00	2	Temperatura media	16.8
25414	7	Sololá	710	Panajachel	8	Panajachel	3	Marzo	2023-03-16T00:00:00	2024-11-08T02:00:00	4	Temperatura máxima	17.6
25415	7	Sololá	710	Panajachel	8	Panajachel	3	Marzo	2023-03-16T00:00:00	2024-11-08T02:00:00	3	Temperatura mínima	16.8
25416	7	Sololá	710	Panajachel	8	Panajachel	3	Marzo	2023-03-16T00:00:00	2024-11-08T02:00:00	5	Humedad	78
25417	7	Sololá	710	Panajachel	8	Panajachel	3	Marzo	2023-03-16T00:00:00	2024-11-08T02:00:00	6	Velocidad del viento	3.2
25418	7	Sololá	710	Panajachel	8	Panajachel	3	Marzo	2023-03-16T00:00:00	2024-11-08T02:00:00	7	Dirección del viento	3.22
25419	7	Sololá	710	Panajachel	8	Panajachel	3	Marzo	2023-03-16T00:00:00	2024-11-08T02:00:00	1	Precipitación	0
25420	7	Sololá	710	Panajachel	8	Panajachel	3	Marzo	2023-03-16T00:00:00	2024-11-08T02:00:00	8	Radiación solar	0
25421	7	Sololá	710	Panajachel	8	Panajachel	3	Marzo	2023-03-16T00:00:00	2024-11-08T03:00:00	2	Temperatura media	15.2
25422	7	Sololá	710	Panajachel	8	Panajachel	3	Marzo	2023-03-16T00:00:00	2024-11-08T03:00:00	4	Temperatura máxima	17.1
25423	7	Sololá	710	Panajachel	8	Panajachel	3	Marzo	2023-03-16T00:00:00	2024-11-08T03:00:00	3	Temperatura mínima	15.2
25424	7	Sololá	710	Panajachel	8	Panajachel	3	Marzo	2023-03-16T00:00:00	2024-11-08T03:00:00	5	Humedad	83
25425	7	Sololá	710	Panajachel	8	Panajachel	3	Marzo	2023-03-16T00:00:00	2024-11-08T03:00:00	6	Velocidad del viento	1.6
25426	7	Sololá	710	Panajachel	8	Panajachel	3	Marzo	2023-03-16T00:00:00	2024-11-08T03:00:00	7	Dirección del viento	1.61
25427	7	Sololá	710	Panajachel	8	Panajachel	3	Marzo	2023-03-16T00:00:00	2024-11-08T03:00:00	1	Precipitación	0
25428	7	Sololá	710	Panajachel	8	Panajachel	3	Marzo	2023-03-16T00:00:00	2024-11-08T03:00:00	8	Radiación solar	0
25429	7	Sololá	710	Panajachel	8	Panajachel	3	Marzo	2023-03-16T00:00:00	2024-11-08T04:00:00	2	Temperatura media	14.2
25430	7	Sololá	710	Panajachel	8	Panajachel	3	Marzo	2023-03-16T00:00:00	2024-11-08T04:00:00	4	Temperatura máxima	15.3
25431	7	Sololá	710	Panajachel	8	Panajachel	3	Marzo	2023-03-16T00:00:00	2024-11-08T04:00:00	3	Temperatura mínima	14.2
25432	7	Sololá	710	Panajachel	8	Panajachel	3	Marzo	2023-03-16T00:00:00	2024-11-08T04:00:00	5	Humedad	87
25433	7	Sololá	710	Panajachel	8	Panajachel	3	Marzo	2023-03-16T00:00:00	2024-11-08T04:00:00	6	Velocidad del viento	3.2
25434	7	Sololá	710	Panajachel	8	Panajachel	3	Marzo	2023-03-16T00:00:00	2024-11-08T04:00:00	7	Dirección del viento	3.22
25435	7	Sololá	710	Panajachel	8	Panajachel	3	Marzo	2023-03-16T00:00:00	2024-11-08T04:00:00	1	Precipitación	0
25436	7	Sololá	710	Panajachel	8	Panajachel	3	Marzo	2023-03-16T00:00:00	2024-11-08T04:00:00	8	Radiación solar	0
25437	7	Sololá	710	Panajachel	8	Panajachel	3	Marzo	2023-03-16T00:00:00	2024-11-08T05:00:00	2	Temperatura media	14
25438	7	Sololá	710	Panajachel	8	Panajachel	3	Marzo	2023-03-16T00:00:00	2024-11-08T05:00:00	4	Temperatura máxima	14.2
25439	7	Sololá	710	Panajachel	8	Panajachel	3	Marzo	2023-03-16T00:00:00	2024-11-08T05:00:00	3	Temperatura mínima	13.9
25440	7	Sololá	710	Panajachel	8	Panajachel	3	Marzo	2023-03-16T00:00:00	2024-11-08T05:00:00	5	Humedad	88
25441	7	Sololá	710	Panajachel	8	Panajachel	3	Marzo	2023-03-16T00:00:00	2024-11-08T05:00:00	6	Velocidad del viento	1.6
25442	7	Sololá	710	Panajachel	8	Panajachel	3	Marzo	2023-03-16T00:00:00	2024-11-08T05:00:00	7	Dirección del viento	1.61
25443	7	Sololá	710	Panajachel	8	Panajachel	3	Marzo	2023-03-16T00:00:00	2024-11-08T05:00:00	1	Precipitación	0
25444	7	Sololá	710	Panajachel	8	Panajachel	3	Marzo	2023-03-16T00:00:00	2024-11-08T05:00:00	8	Radiación solar	0
25445	7	Sololá	710	Panajachel	8	Panajachel	3	Marzo	2023-03-16T00:00:00	2024-11-08T06:00:00	2	Temperatura media	13.7
25446	7	Sololá	710	Panajachel	8	Panajachel	3	Marzo	2023-03-16T00:00:00	2024-11-08T06:00:00	4	Temperatura máxima	14.1
25447	7	Sololá	710	Panajachel	8	Panajachel	3	Marzo	2023-03-16T00:00:00	2024-11-08T06:00:00	3	Temperatura mínima	13.7
25448	7	Sololá	710	Panajachel	8	Panajachel	3	Marzo	2023-03-16T00:00:00	2024-11-08T06:00:00	5	Humedad	89
25449	7	Sololá	710	Panajachel	8	Panajachel	3	Marzo	2023-03-16T00:00:00	2024-11-08T06:00:00	6	Velocidad del viento	3.2
25450	7	Sololá	710	Panajachel	8	Panajachel	3	Marzo	2023-03-16T00:00:00	2024-11-08T06:00:00	7	Dirección del viento	3.22
25451	7	Sololá	710	Panajachel	8	Panajachel	3	Marzo	2023-03-16T00:00:00	2024-11-08T06:00:00	1	Precipitación	0
25452	7	Sololá	710	Panajachel	8	Panajachel	3	Marzo	2023-03-16T00:00:00	2024-11-08T06:00:00	8	Radiación solar	0
25453	7	Sololá	710	Panajachel	8	Panajachel	3	Marzo	2023-03-16T00:00:00	2024-11-08T07:00:00	2	Temperatura media	14
25454	7	Sololá	710	Panajachel	8	Panajachel	3	Marzo	2023-03-16T00:00:00	2024-11-08T07:00:00	4	Temperatura máxima	14
25455	7	Sololá	710	Panajachel	8	Panajachel	3	Marzo	2023-03-16T00:00:00	2024-11-08T07:00:00	3	Temperatura mínima	13.5
25456	7	Sololá	710	Panajachel	8	Panajachel	3	Marzo	2023-03-16T00:00:00	2024-11-08T07:00:00	5	Humedad	88
25457	7	Sololá	710	Panajachel	8	Panajachel	3	Marzo	2023-03-16T00:00:00	2024-11-08T07:00:00	6	Velocidad del viento	1.6
25458	7	Sololá	710	Panajachel	8	Panajachel	3	Marzo	2023-03-16T00:00:00	2024-11-08T07:00:00	7	Dirección del viento	1.61
25459	7	Sololá	710	Panajachel	8	Panajachel	3	Marzo	2023-03-16T00:00:00	2024-11-08T07:00:00	1	Precipitación	0
25460	7	Sololá	710	Panajachel	8	Panajachel	3	Marzo	2023-03-16T00:00:00	2024-11-08T07:00:00	8	Radiación solar	15
25461	7	Sololá	710	Panajachel	8	Panajachel	3	Marzo	2023-03-16T00:00:00	2024-11-08T08:00:00	2	Temperatura media	18.8
25462	7	Sololá	710	Panajachel	8	Panajachel	3	Marzo	2023-03-16T00:00:00	2024-11-08T08:00:00	4	Temperatura máxima	18.8
25463	7	Sololá	710	Panajachel	8	Panajachel	3	Marzo	2023-03-16T00:00:00	2024-11-08T08:00:00	3	Temperatura mínima	13.9
25464	7	Sololá	710	Panajachel	8	Panajachel	3	Marzo	2023-03-16T00:00:00	2024-11-08T08:00:00	5	Humedad	76
25465	7	Sololá	710	Panajachel	8	Panajachel	3	Marzo	2023-03-16T00:00:00	2024-11-08T08:00:00	6	Velocidad del viento	1.6
25466	7	Sololá	710	Panajachel	8	Panajachel	3	Marzo	2023-03-16T00:00:00	2024-11-08T08:00:00	7	Dirección del viento	1.61
25467	7	Sololá	710	Panajachel	8	Panajachel	3	Marzo	2023-03-16T00:00:00	2024-11-08T08:00:00	1	Precipitación	0
25468	7	Sololá	710	Panajachel	8	Panajachel	3	Marzo	2023-03-16T00:00:00	2024-11-08T08:00:00	8	Radiación solar	237
25469	7	Sololá	710	Panajachel	8	Panajachel	3	Marzo	2023-03-16T00:00:00	2024-11-08T09:00:00	2	Temperatura media	18.7
25470	7	Sololá	710	Panajachel	8	Panajachel	3	Marzo	2023-03-16T00:00:00	2024-11-08T09:00:00	4	Temperatura máxima	18.8
25471	7	Sololá	710	Panajachel	8	Panajachel	3	Marzo	2023-03-16T00:00:00	2024-11-08T09:00:00	3	Temperatura mínima	18.3
25472	7	Sololá	710	Panajachel	8	Panajachel	3	Marzo	2023-03-16T00:00:00	2024-11-08T09:00:00	5	Humedad	80
25473	7	Sololá	710	Panajachel	8	Panajachel	3	Marzo	2023-03-16T00:00:00	2024-11-08T09:00:00	6	Velocidad del viento	3.2
25474	7	Sololá	710	Panajachel	8	Panajachel	3	Marzo	2023-03-16T00:00:00	2024-11-08T09:00:00	7	Dirección del viento	3.22
25475	7	Sololá	710	Panajachel	8	Panajachel	3	Marzo	2023-03-16T00:00:00	2024-11-08T09:00:00	1	Precipitación	0
25476	7	Sololá	710	Panajachel	8	Panajachel	3	Marzo	2023-03-16T00:00:00	2024-11-08T09:00:00	8	Radiación solar	472
25477	7	Sololá	710	Panajachel	8	Panajachel	3	Marzo	2023-03-16T00:00:00	2024-11-08T10:00:00	2	Temperatura media	20.3
25478	7	Sololá	710	Panajachel	8	Panajachel	3	Marzo	2023-03-16T00:00:00	2024-11-08T10:00:00	4	Temperatura máxima	20.6
25479	7	Sololá	710	Panajachel	8	Panajachel	3	Marzo	2023-03-16T00:00:00	2024-11-08T10:00:00	3	Temperatura mínima	18.7
25480	7	Sololá	710	Panajachel	8	Panajachel	3	Marzo	2023-03-16T00:00:00	2024-11-08T10:00:00	5	Humedad	74
25481	7	Sololá	710	Panajachel	8	Panajachel	3	Marzo	2023-03-16T00:00:00	2024-11-08T10:00:00	6	Velocidad del viento	3.2
25482	7	Sololá	710	Panajachel	8	Panajachel	3	Marzo	2023-03-16T00:00:00	2024-11-08T10:00:00	7	Dirección del viento	3.22
25483	7	Sololá	710	Panajachel	8	Panajachel	3	Marzo	2023-03-16T00:00:00	2024-11-08T10:00:00	1	Precipitación	0
25484	7	Sololá	710	Panajachel	8	Panajachel	3	Marzo	2023-03-16T00:00:00	2024-11-08T10:00:00	8	Radiación solar	683
25485	7	Sololá	710	Panajachel	8	Panajachel	3	Marzo	2023-03-16T00:00:00	2024-11-08T11:00:00	2	Temperatura media	21.6
25486	7	Sololá	710	Panajachel	8	Panajachel	3	Marzo	2023-03-16T00:00:00	2024-11-08T11:00:00	4	Temperatura máxima	21.7
25487	7	Sololá	710	Panajachel	8	Panajachel	3	Marzo	2023-03-16T00:00:00	2024-11-08T11:00:00	3	Temperatura mínima	20.3
25488	7	Sololá	710	Panajachel	8	Panajachel	3	Marzo	2023-03-16T00:00:00	2024-11-08T11:00:00	5	Humedad	73
25489	7	Sololá	710	Panajachel	8	Panajachel	3	Marzo	2023-03-16T00:00:00	2024-11-08T11:00:00	6	Velocidad del viento	3.2
25490	7	Sololá	710	Panajachel	8	Panajachel	3	Marzo	2023-03-16T00:00:00	2024-11-08T11:00:00	7	Dirección del viento	3.22
25491	7	Sololá	710	Panajachel	8	Panajachel	3	Marzo	2023-03-16T00:00:00	2024-11-08T11:00:00	1	Precipitación	0
25492	7	Sololá	710	Panajachel	8	Panajachel	3	Marzo	2023-03-16T00:00:00	2024-11-08T11:00:00	8	Radiación solar	833
25493	7	Sololá	710	Panajachel	8	Panajachel	3	Marzo	2023-03-16T00:00:00	2024-11-08T12:00:00	2	Temperatura media	22.7
25494	7	Sololá	710	Panajachel	8	Panajachel	3	Marzo	2023-03-16T00:00:00	2024-11-08T12:00:00	4	Temperatura máxima	22.7
25495	7	Sololá	710	Panajachel	8	Panajachel	3	Marzo	2023-03-16T00:00:00	2024-11-08T12:00:00	3	Temperatura mínima	21.1
25496	7	Sololá	710	Panajachel	8	Panajachel	3	Marzo	2023-03-16T00:00:00	2024-11-08T12:00:00	5	Humedad	76
25497	7	Sololá	710	Panajachel	8	Panajachel	3	Marzo	2023-03-16T00:00:00	2024-11-08T12:00:00	6	Velocidad del viento	3.2
25498	7	Sololá	710	Panajachel	8	Panajachel	3	Marzo	2023-03-16T00:00:00	2024-11-08T12:00:00	7	Dirección del viento	3.22
25499	7	Sololá	710	Panajachel	8	Panajachel	3	Marzo	2023-03-16T00:00:00	2024-11-08T12:00:00	1	Precipitación	0
25500	7	Sololá	710	Panajachel	8	Panajachel	3	Marzo	2023-03-16T00:00:00	2024-11-08T12:00:00	8	Radiación solar	891
25501	7	Sololá	710	Panajachel	8	Panajachel	3	Marzo	2023-03-16T00:00:00	2024-11-08T13:00:00	2	Temperatura media	22.6
25502	7	Sololá	710	Panajachel	8	Panajachel	3	Marzo	2023-03-16T00:00:00	2024-11-08T13:00:00	4	Temperatura máxima	22.7
25503	7	Sololá	710	Panajachel	8	Panajachel	3	Marzo	2023-03-16T00:00:00	2024-11-08T13:00:00	3	Temperatura mínima	21.9
25504	7	Sololá	710	Panajachel	8	Panajachel	3	Marzo	2023-03-16T00:00:00	2024-11-08T13:00:00	5	Humedad	77
25505	7	Sololá	710	Panajachel	8	Panajachel	3	Marzo	2023-03-16T00:00:00	2024-11-08T13:00:00	6	Velocidad del viento	6.4
25506	7	Sololá	710	Panajachel	8	Panajachel	3	Marzo	2023-03-16T00:00:00	2024-11-08T13:00:00	7	Dirección del viento	6.44
25507	7	Sololá	710	Panajachel	8	Panajachel	3	Marzo	2023-03-16T00:00:00	2024-11-08T13:00:00	1	Precipitación	0
25508	7	Sololá	710	Panajachel	8	Panajachel	3	Marzo	2023-03-16T00:00:00	2024-11-08T13:00:00	8	Radiación solar	899
25509	7	Sololá	710	Panajachel	8	Panajachel	3	Marzo	2023-03-16T00:00:00	2024-11-08T14:00:00	2	Temperatura media	22.2
25510	7	Sololá	710	Panajachel	8	Panajachel	3	Marzo	2023-03-16T00:00:00	2024-11-08T14:00:00	4	Temperatura máxima	23.7
25511	7	Sololá	710	Panajachel	8	Panajachel	3	Marzo	2023-03-16T00:00:00	2024-11-08T14:00:00	3	Temperatura mínima	22.2
25512	7	Sololá	710	Panajachel	8	Panajachel	3	Marzo	2023-03-16T00:00:00	2024-11-08T14:00:00	5	Humedad	78
25513	7	Sololá	710	Panajachel	8	Panajachel	3	Marzo	2023-03-16T00:00:00	2024-11-08T14:00:00	6	Velocidad del viento	4.8
25514	7	Sololá	710	Panajachel	8	Panajachel	3	Marzo	2023-03-16T00:00:00	2024-11-08T14:00:00	7	Dirección del viento	4.83
25515	7	Sololá	710	Panajachel	8	Panajachel	3	Marzo	2023-03-16T00:00:00	2024-11-08T14:00:00	1	Precipitación	0
25516	7	Sololá	710	Panajachel	8	Panajachel	3	Marzo	2023-03-16T00:00:00	2024-11-08T14:00:00	8	Radiación solar	781
25517	7	Sololá	710	Panajachel	8	Panajachel	3	Marzo	2023-03-16T00:00:00	2024-11-08T15:00:00	2	Temperatura media	21.6
25518	7	Sololá	710	Panajachel	8	Panajachel	3	Marzo	2023-03-16T00:00:00	2024-11-08T15:00:00	4	Temperatura máxima	22.3
25519	7	Sololá	710	Panajachel	8	Panajachel	3	Marzo	2023-03-16T00:00:00	2024-11-08T15:00:00	3	Temperatura mínima	21.4
25520	7	Sololá	710	Panajachel	8	Panajachel	3	Marzo	2023-03-16T00:00:00	2024-11-08T15:00:00	5	Humedad	80
25521	7	Sololá	710	Panajachel	8	Panajachel	3	Marzo	2023-03-16T00:00:00	2024-11-08T15:00:00	6	Velocidad del viento	8
25522	7	Sololá	710	Panajachel	8	Panajachel	3	Marzo	2023-03-16T00:00:00	2024-11-08T15:00:00	7	Dirección del viento	8.05
25523	7	Sololá	710	Panajachel	8	Panajachel	3	Marzo	2023-03-16T00:00:00	2024-11-08T15:00:00	1	Precipitación	0
25524	7	Sololá	710	Panajachel	8	Panajachel	3	Marzo	2023-03-16T00:00:00	2024-11-08T15:00:00	8	Radiación solar	312
25525	7	Sololá	710	Panajachel	8	Panajachel	3	Marzo	2023-03-16T00:00:00	2024-11-08T16:00:00	2	Temperatura media	20.6
25526	7	Sololá	710	Panajachel	8	Panajachel	3	Marzo	2023-03-16T00:00:00	2024-11-08T16:00:00	4	Temperatura máxima	21.6
25527	7	Sololá	710	Panajachel	8	Panajachel	3	Marzo	2023-03-16T00:00:00	2024-11-08T16:00:00	3	Temperatura mínima	20.4
25528	7	Sololá	710	Panajachel	8	Panajachel	3	Marzo	2023-03-16T00:00:00	2024-11-08T16:00:00	5	Humedad	84
25529	7	Sololá	710	Panajachel	8	Panajachel	3	Marzo	2023-03-16T00:00:00	2024-11-08T16:00:00	6	Velocidad del viento	6.4
25530	7	Sololá	710	Panajachel	8	Panajachel	3	Marzo	2023-03-16T00:00:00	2024-11-08T16:00:00	7	Dirección del viento	6.44
25531	7	Sololá	710	Panajachel	8	Panajachel	3	Marzo	2023-03-16T00:00:00	2024-11-08T16:00:00	1	Precipitación	0
25532	7	Sololá	710	Panajachel	8	Panajachel	3	Marzo	2023-03-16T00:00:00	2024-11-08T16:00:00	8	Radiación solar	66
25533	7	Sololá	710	Panajachel	8	Panajachel	3	Marzo	2023-03-16T00:00:00	2024-11-08T17:00:00	2	Temperatura media	18.8
25534	7	Sololá	710	Panajachel	8	Panajachel	3	Marzo	2023-03-16T00:00:00	2024-11-08T17:00:00	4	Temperatura máxima	20.6
25535	7	Sololá	710	Panajachel	8	Panajachel	3	Marzo	2023-03-16T00:00:00	2024-11-08T17:00:00	3	Temperatura mínima	18.6
25536	7	Sololá	710	Panajachel	8	Panajachel	3	Marzo	2023-03-16T00:00:00	2024-11-08T17:00:00	5	Humedad	74
25537	7	Sololá	710	Panajachel	8	Panajachel	3	Marzo	2023-03-16T00:00:00	2024-11-08T17:00:00	6	Velocidad del viento	6.4
25538	7	Sololá	710	Panajachel	8	Panajachel	3	Marzo	2023-03-16T00:00:00	2024-11-08T17:00:00	7	Dirección del viento	6.44
25539	7	Sololá	710	Panajachel	8	Panajachel	3	Marzo	2023-03-16T00:00:00	2024-11-08T17:00:00	1	Precipitación	0
25540	7	Sololá	710	Panajachel	8	Panajachel	3	Marzo	2023-03-16T00:00:00	2024-11-08T17:00:00	8	Radiación solar	66
25541	7	Sololá	710	Panajachel	8	Panajachel	3	Marzo	2023-03-16T00:00:00	2024-11-08T18:00:00	2	Temperatura media	17.7
25542	7	Sololá	710	Panajachel	8	Panajachel	3	Marzo	2023-03-16T00:00:00	2024-11-08T18:00:00	4	Temperatura máxima	18.8
25543	7	Sololá	710	Panajachel	8	Panajachel	3	Marzo	2023-03-16T00:00:00	2024-11-08T18:00:00	3	Temperatura mínima	17.7
25544	7	Sololá	710	Panajachel	8	Panajachel	3	Marzo	2023-03-16T00:00:00	2024-11-08T18:00:00	5	Humedad	84
25545	7	Sololá	710	Panajachel	8	Panajachel	3	Marzo	2023-03-16T00:00:00	2024-11-08T18:00:00	6	Velocidad del viento	6.4
25546	7	Sololá	710	Panajachel	8	Panajachel	3	Marzo	2023-03-16T00:00:00	2024-11-08T18:00:00	7	Dirección del viento	6.44
25547	7	Sololá	710	Panajachel	8	Panajachel	3	Marzo	2023-03-16T00:00:00	2024-11-08T18:00:00	1	Precipitación	0.6
25548	7	Sololá	710	Panajachel	8	Panajachel	3	Marzo	2023-03-16T00:00:00	2024-11-08T18:00:00	8	Radiación solar	16
25549	7	Sololá	710	Panajachel	8	Panajachel	3	Marzo	2023-03-16T00:00:00	2024-11-08T19:00:00	2	Temperatura media	16.9
25550	7	Sololá	710	Panajachel	8	Panajachel	3	Marzo	2023-03-16T00:00:00	2024-11-08T19:00:00	4	Temperatura máxima	17.8
25551	7	Sololá	710	Panajachel	8	Panajachel	3	Marzo	2023-03-16T00:00:00	2024-11-08T19:00:00	3	Temperatura mínima	16.7
25552	7	Sololá	710	Panajachel	8	Panajachel	3	Marzo	2023-03-16T00:00:00	2024-11-08T19:00:00	5	Humedad	91
25553	7	Sololá	710	Panajachel	8	Panajachel	3	Marzo	2023-03-16T00:00:00	2024-11-08T19:00:00	6	Velocidad del viento	4.8
25554	7	Sololá	710	Panajachel	8	Panajachel	3	Marzo	2023-03-16T00:00:00	2024-11-08T19:00:00	7	Dirección del viento	4.83
25555	7	Sololá	710	Panajachel	8	Panajachel	3	Marzo	2023-03-16T00:00:00	2024-11-08T19:00:00	1	Precipitación	1.4
25556	7	Sololá	710	Panajachel	8	Panajachel	3	Marzo	2023-03-16T00:00:00	2024-11-08T19:00:00	8	Radiación solar	0
25557	7	Sololá	710	Panajachel	8	Panajachel	3	Marzo	2023-03-16T00:00:00	2024-11-08T20:00:00	2	Temperatura media	16.6
25558	7	Sololá	710	Panajachel	8	Panajachel	3	Marzo	2023-03-16T00:00:00	2024-11-08T20:00:00	4	Temperatura máxima	16.9
25559	7	Sololá	710	Panajachel	8	Panajachel	3	Marzo	2023-03-16T00:00:00	2024-11-08T20:00:00	3	Temperatura mínima	16.6
25560	7	Sololá	710	Panajachel	8	Panajachel	3	Marzo	2023-03-16T00:00:00	2024-11-08T20:00:00	5	Humedad	92
25561	7	Sololá	710	Panajachel	8	Panajachel	3	Marzo	2023-03-16T00:00:00	2024-11-08T20:00:00	6	Velocidad del viento	1.6
25562	7	Sololá	710	Panajachel	8	Panajachel	3	Marzo	2023-03-16T00:00:00	2024-11-08T20:00:00	7	Dirección del viento	1.61
25563	7	Sololá	710	Panajachel	8	Panajachel	3	Marzo	2023-03-16T00:00:00	2024-11-08T20:00:00	1	Precipitación	0
25564	7	Sololá	710	Panajachel	8	Panajachel	3	Marzo	2023-03-16T00:00:00	2024-11-08T20:00:00	8	Radiación solar	0
25565	7	Sololá	710	Panajachel	8	Panajachel	3	Marzo	2023-03-16T00:00:00	2024-11-08T21:00:00	2	Temperatura media	15.8
25566	7	Sololá	710	Panajachel	8	Panajachel	3	Marzo	2023-03-16T00:00:00	2024-11-08T21:00:00	4	Temperatura máxima	16.6
25567	7	Sololá	710	Panajachel	8	Panajachel	3	Marzo	2023-03-16T00:00:00	2024-11-08T21:00:00	3	Temperatura mínima	15.8
25568	7	Sololá	710	Panajachel	8	Panajachel	3	Marzo	2023-03-16T00:00:00	2024-11-08T21:00:00	5	Humedad	89
25569	7	Sololá	710	Panajachel	8	Panajachel	3	Marzo	2023-03-16T00:00:00	2024-11-08T21:00:00	6	Velocidad del viento	4.8
25570	7	Sololá	710	Panajachel	8	Panajachel	3	Marzo	2023-03-16T00:00:00	2024-11-08T21:00:00	7	Dirección del viento	4.83
25571	7	Sololá	710	Panajachel	8	Panajachel	3	Marzo	2023-03-16T00:00:00	2024-11-08T21:00:00	1	Precipitación	0
25572	7	Sololá	710	Panajachel	8	Panajachel	3	Marzo	2023-03-16T00:00:00	2024-11-08T21:00:00	8	Radiación solar	0
25573	7	Sololá	710	Panajachel	8	Panajachel	3	Marzo	2023-03-16T00:00:00	2024-11-08T22:00:00	2	Temperatura media	16.2
25574	7	Sololá	710	Panajachel	8	Panajachel	3	Marzo	2023-03-16T00:00:00	2024-11-08T22:00:00	4	Temperatura máxima	16.2
25575	7	Sololá	710	Panajachel	8	Panajachel	3	Marzo	2023-03-16T00:00:00	2024-11-08T22:00:00	3	Temperatura mínima	15.4
25576	7	Sololá	710	Panajachel	8	Panajachel	3	Marzo	2023-03-16T00:00:00	2024-11-08T22:00:00	5	Humedad	85
25577	7	Sololá	710	Panajachel	8	Panajachel	3	Marzo	2023-03-16T00:00:00	2024-11-08T22:00:00	6	Velocidad del viento	6.4
25578	7	Sololá	710	Panajachel	8	Panajachel	3	Marzo	2023-03-16T00:00:00	2024-11-08T22:00:00	7	Dirección del viento	6.44
25579	7	Sololá	710	Panajachel	8	Panajachel	3	Marzo	2023-03-16T00:00:00	2024-11-08T22:00:00	1	Precipitación	0
25580	7	Sololá	710	Panajachel	8	Panajachel	3	Marzo	2023-03-16T00:00:00	2024-11-08T22:00:00	8	Radiación solar	0
25581	7	Sololá	710	Panajachel	8	Panajachel	3	Marzo	2023-03-16T00:00:00	2024-11-08T23:00:00	2	Temperatura media	15.8
25582	7	Sololá	710	Panajachel	8	Panajachel	3	Marzo	2023-03-16T00:00:00	2024-11-08T23:00:00	4	Temperatura máxima	16.2
25583	7	Sololá	710	Panajachel	8	Panajachel	3	Marzo	2023-03-16T00:00:00	2024-11-08T23:00:00	3	Temperatura mínima	15.6
25584	7	Sololá	710	Panajachel	8	Panajachel	3	Marzo	2023-03-16T00:00:00	2024-11-08T23:00:00	5	Humedad	87
25585	7	Sololá	710	Panajachel	8	Panajachel	3	Marzo	2023-03-16T00:00:00	2024-11-08T23:00:00	6	Velocidad del viento	4.8
25586	7	Sololá	710	Panajachel	8	Panajachel	3	Marzo	2023-03-16T00:00:00	2024-11-08T23:00:00	7	Dirección del viento	4.83
25587	7	Sololá	710	Panajachel	8	Panajachel	3	Marzo	2023-03-16T00:00:00	2024-11-08T23:00:00	1	Precipitación	0
25588	7	Sololá	710	Panajachel	8	Panajachel	3	Marzo	2023-03-16T00:00:00	2024-11-08T23:00:00	8	Radiación solar	0
25589	7	Sololá	710	Panajachel	8	Panajachel	3	Marzo	2023-03-17T00:00:00	2024-11-08T00:00:00	2	Temperatura media	15.9
25590	7	Sololá	710	Panajachel	8	Panajachel	3	Marzo	2023-03-17T00:00:00	2024-11-08T00:00:00	4	Temperatura máxima	16
25591	7	Sololá	710	Panajachel	8	Panajachel	3	Marzo	2023-03-17T00:00:00	2024-11-08T00:00:00	3	Temperatura mínima	15.7
25592	7	Sololá	710	Panajachel	8	Panajachel	3	Marzo	2023-03-17T00:00:00	2024-11-08T00:00:00	5	Humedad	86
25593	7	Sololá	710	Panajachel	8	Panajachel	3	Marzo	2023-03-17T00:00:00	2024-11-08T00:00:00	6	Velocidad del viento	4.8
25594	7	Sololá	710	Panajachel	8	Panajachel	3	Marzo	2023-03-17T00:00:00	2024-11-08T00:00:00	7	Dirección del viento	4.83
25595	7	Sololá	710	Panajachel	8	Panajachel	3	Marzo	2023-03-17T00:00:00	2024-11-08T00:00:00	1	Precipitación	0
25596	7	Sololá	710	Panajachel	8	Panajachel	3	Marzo	2023-03-17T00:00:00	2024-11-08T00:00:00	8	Radiación solar	0
25597	7	Sololá	710	Panajachel	8	Panajachel	3	Marzo	2023-03-17T00:00:00	2024-11-08T01:00:00	2	Temperatura media	15.9
25598	7	Sololá	710	Panajachel	8	Panajachel	3	Marzo	2023-03-17T00:00:00	2024-11-08T01:00:00	4	Temperatura máxima	16.4
25599	7	Sololá	710	Panajachel	8	Panajachel	3	Marzo	2023-03-17T00:00:00	2024-11-08T01:00:00	3	Temperatura mínima	15.9
25600	7	Sololá	710	Panajachel	8	Panajachel	3	Marzo	2023-03-17T00:00:00	2024-11-08T01:00:00	5	Humedad	88
25601	7	Sololá	710	Panajachel	8	Panajachel	3	Marzo	2023-03-17T00:00:00	2024-11-08T01:00:00	6	Velocidad del viento	3.2
25602	7	Sololá	710	Panajachel	8	Panajachel	3	Marzo	2023-03-17T00:00:00	2024-11-08T01:00:00	7	Dirección del viento	3.22
25603	7	Sololá	710	Panajachel	8	Panajachel	3	Marzo	2023-03-17T00:00:00	2024-11-08T01:00:00	1	Precipitación	0
25604	7	Sololá	710	Panajachel	8	Panajachel	3	Marzo	2023-03-17T00:00:00	2024-11-08T01:00:00	8	Radiación solar	0
25605	7	Sololá	710	Panajachel	8	Panajachel	3	Marzo	2023-03-17T00:00:00	2024-11-08T02:00:00	2	Temperatura media	15.6
25606	7	Sololá	710	Panajachel	8	Panajachel	3	Marzo	2023-03-17T00:00:00	2024-11-08T02:00:00	4	Temperatura máxima	15.9
25607	7	Sololá	710	Panajachel	8	Panajachel	3	Marzo	2023-03-17T00:00:00	2024-11-08T02:00:00	3	Temperatura mínima	15.2
25608	7	Sololá	710	Panajachel	8	Panajachel	3	Marzo	2023-03-17T00:00:00	2024-11-08T02:00:00	5	Humedad	88
25609	7	Sololá	710	Panajachel	8	Panajachel	3	Marzo	2023-03-17T00:00:00	2024-11-08T02:00:00	6	Velocidad del viento	4.8
25610	7	Sololá	710	Panajachel	8	Panajachel	3	Marzo	2023-03-17T00:00:00	2024-11-08T02:00:00	7	Dirección del viento	4.83
25611	7	Sololá	710	Panajachel	8	Panajachel	3	Marzo	2023-03-17T00:00:00	2024-11-08T02:00:00	1	Precipitación	0
25612	7	Sololá	710	Panajachel	8	Panajachel	3	Marzo	2023-03-17T00:00:00	2024-11-08T02:00:00	8	Radiación solar	0
25613	7	Sololá	710	Panajachel	8	Panajachel	3	Marzo	2023-03-17T00:00:00	2024-11-08T03:00:00	2	Temperatura media	15.8
25614	7	Sololá	710	Panajachel	8	Panajachel	3	Marzo	2023-03-17T00:00:00	2024-11-08T03:00:00	4	Temperatura máxima	16.1
25615	7	Sololá	710	Panajachel	8	Panajachel	3	Marzo	2023-03-17T00:00:00	2024-11-08T03:00:00	3	Temperatura mínima	15.6
25616	7	Sololá	710	Panajachel	8	Panajachel	3	Marzo	2023-03-17T00:00:00	2024-11-08T03:00:00	5	Humedad	87
25617	7	Sololá	710	Panajachel	8	Panajachel	3	Marzo	2023-03-17T00:00:00	2024-11-08T03:00:00	6	Velocidad del viento	3.2
25618	7	Sololá	710	Panajachel	8	Panajachel	3	Marzo	2023-03-17T00:00:00	2024-11-08T03:00:00	7	Dirección del viento	3.22
25619	7	Sololá	710	Panajachel	8	Panajachel	3	Marzo	2023-03-17T00:00:00	2024-11-08T03:00:00	1	Precipitación	0
25620	7	Sololá	710	Panajachel	8	Panajachel	3	Marzo	2023-03-17T00:00:00	2024-11-08T03:00:00	8	Radiación solar	0
25621	7	Sololá	710	Panajachel	8	Panajachel	3	Marzo	2023-03-17T00:00:00	2024-11-08T04:00:00	2	Temperatura media	15.2
25622	7	Sololá	710	Panajachel	8	Panajachel	3	Marzo	2023-03-17T00:00:00	2024-11-08T04:00:00	4	Temperatura máxima	15.8
25623	7	Sololá	710	Panajachel	8	Panajachel	3	Marzo	2023-03-17T00:00:00	2024-11-08T04:00:00	3	Temperatura mínima	15.2
25624	7	Sololá	710	Panajachel	8	Panajachel	3	Marzo	2023-03-17T00:00:00	2024-11-08T04:00:00	5	Humedad	87
25625	7	Sololá	710	Panajachel	8	Panajachel	3	Marzo	2023-03-17T00:00:00	2024-11-08T04:00:00	6	Velocidad del viento	3.2
25626	7	Sololá	710	Panajachel	8	Panajachel	3	Marzo	2023-03-17T00:00:00	2024-11-08T04:00:00	7	Dirección del viento	3.22
25627	7	Sololá	710	Panajachel	8	Panajachel	3	Marzo	2023-03-17T00:00:00	2024-11-08T04:00:00	1	Precipitación	0
25628	7	Sololá	710	Panajachel	8	Panajachel	3	Marzo	2023-03-17T00:00:00	2024-11-08T04:00:00	8	Radiación solar	0
25629	7	Sololá	710	Panajachel	8	Panajachel	3	Marzo	2023-03-17T00:00:00	2024-11-08T05:00:00	2	Temperatura media	15.1
25630	7	Sololá	710	Panajachel	8	Panajachel	3	Marzo	2023-03-17T00:00:00	2024-11-08T05:00:00	4	Temperatura máxima	15.3
25631	7	Sololá	710	Panajachel	8	Panajachel	3	Marzo	2023-03-17T00:00:00	2024-11-08T05:00:00	3	Temperatura mínima	14.9
25632	7	Sololá	710	Panajachel	8	Panajachel	3	Marzo	2023-03-17T00:00:00	2024-11-08T05:00:00	5	Humedad	84
25633	7	Sololá	710	Panajachel	8	Panajachel	3	Marzo	2023-03-17T00:00:00	2024-11-08T05:00:00	6	Velocidad del viento	4.8
25634	7	Sololá	710	Panajachel	8	Panajachel	3	Marzo	2023-03-17T00:00:00	2024-11-08T05:00:00	7	Dirección del viento	4.83
25635	7	Sololá	710	Panajachel	8	Panajachel	3	Marzo	2023-03-17T00:00:00	2024-11-08T05:00:00	1	Precipitación	0
25636	7	Sololá	710	Panajachel	8	Panajachel	3	Marzo	2023-03-17T00:00:00	2024-11-08T05:00:00	8	Radiación solar	0
25637	7	Sololá	710	Panajachel	8	Panajachel	3	Marzo	2023-03-17T00:00:00	2024-11-08T06:00:00	2	Temperatura media	14.7
25638	7	Sololá	710	Panajachel	8	Panajachel	3	Marzo	2023-03-17T00:00:00	2024-11-08T06:00:00	4	Temperatura máxima	15.2
25639	7	Sololá	710	Panajachel	8	Panajachel	3	Marzo	2023-03-17T00:00:00	2024-11-08T06:00:00	3	Temperatura mínima	14.7
25640	7	Sololá	710	Panajachel	8	Panajachel	3	Marzo	2023-03-17T00:00:00	2024-11-08T06:00:00	5	Humedad	84
25641	7	Sololá	710	Panajachel	8	Panajachel	3	Marzo	2023-03-17T00:00:00	2024-11-08T06:00:00	6	Velocidad del viento	4.8
25642	7	Sololá	710	Panajachel	8	Panajachel	3	Marzo	2023-03-17T00:00:00	2024-11-08T06:00:00	7	Dirección del viento	4.83
25643	7	Sololá	710	Panajachel	8	Panajachel	3	Marzo	2023-03-17T00:00:00	2024-11-08T06:00:00	1	Precipitación	0
25644	7	Sololá	710	Panajachel	8	Panajachel	3	Marzo	2023-03-17T00:00:00	2024-11-08T06:00:00	8	Radiación solar	0
25645	7	Sololá	710	Panajachel	8	Panajachel	3	Marzo	2023-03-17T00:00:00	2024-11-08T07:00:00	2	Temperatura media	15.6
25646	7	Sololá	710	Panajachel	8	Panajachel	3	Marzo	2023-03-17T00:00:00	2024-11-08T07:00:00	4	Temperatura máxima	15.8
25647	7	Sololá	710	Panajachel	8	Panajachel	3	Marzo	2023-03-17T00:00:00	2024-11-08T07:00:00	3	Temperatura mínima	14.7
25648	7	Sololá	710	Panajachel	8	Panajachel	3	Marzo	2023-03-17T00:00:00	2024-11-08T07:00:00	5	Humedad	82
25649	7	Sololá	710	Panajachel	8	Panajachel	3	Marzo	2023-03-17T00:00:00	2024-11-08T07:00:00	6	Velocidad del viento	4.8
25650	7	Sololá	710	Panajachel	8	Panajachel	3	Marzo	2023-03-17T00:00:00	2024-11-08T07:00:00	7	Dirección del viento	4.83
25651	7	Sololá	710	Panajachel	8	Panajachel	3	Marzo	2023-03-17T00:00:00	2024-11-08T07:00:00	1	Precipitación	0
25652	7	Sololá	710	Panajachel	8	Panajachel	3	Marzo	2023-03-17T00:00:00	2024-11-08T07:00:00	8	Radiación solar	26
25653	7	Sololá	710	Panajachel	8	Panajachel	3	Marzo	2023-03-17T00:00:00	2024-11-08T08:00:00	2	Temperatura media	18.6
25654	7	Sololá	710	Panajachel	8	Panajachel	3	Marzo	2023-03-17T00:00:00	2024-11-08T08:00:00	4	Temperatura máxima	18.6
25655	7	Sololá	710	Panajachel	8	Panajachel	3	Marzo	2023-03-17T00:00:00	2024-11-08T08:00:00	3	Temperatura mínima	15.2
25656	7	Sololá	710	Panajachel	8	Panajachel	3	Marzo	2023-03-17T00:00:00	2024-11-08T08:00:00	5	Humedad	75
25657	7	Sololá	710	Panajachel	8	Panajachel	3	Marzo	2023-03-17T00:00:00	2024-11-08T08:00:00	6	Velocidad del viento	4.8
25658	7	Sololá	710	Panajachel	8	Panajachel	3	Marzo	2023-03-17T00:00:00	2024-11-08T08:00:00	7	Dirección del viento	4.83
25659	7	Sololá	710	Panajachel	8	Panajachel	3	Marzo	2023-03-17T00:00:00	2024-11-08T08:00:00	1	Precipitación	0
25660	7	Sololá	710	Panajachel	8	Panajachel	3	Marzo	2023-03-17T00:00:00	2024-11-08T08:00:00	8	Radiación solar	205
25661	7	Sololá	710	Panajachel	8	Panajachel	3	Marzo	2023-03-17T00:00:00	2024-11-08T09:00:00	2	Temperatura media	19.8
25662	7	Sololá	710	Panajachel	8	Panajachel	3	Marzo	2023-03-17T00:00:00	2024-11-08T09:00:00	4	Temperatura máxima	19.9
25663	7	Sololá	710	Panajachel	8	Panajachel	3	Marzo	2023-03-17T00:00:00	2024-11-08T09:00:00	3	Temperatura mínima	18.6
25664	7	Sololá	710	Panajachel	8	Panajachel	3	Marzo	2023-03-17T00:00:00	2024-11-08T09:00:00	5	Humedad	80
25665	7	Sololá	710	Panajachel	8	Panajachel	3	Marzo	2023-03-17T00:00:00	2024-11-08T09:00:00	6	Velocidad del viento	1.6
25666	7	Sololá	710	Panajachel	8	Panajachel	3	Marzo	2023-03-17T00:00:00	2024-11-08T09:00:00	7	Dirección del viento	1.61
25667	7	Sololá	710	Panajachel	8	Panajachel	3	Marzo	2023-03-17T00:00:00	2024-11-08T09:00:00	1	Precipitación	0
25668	7	Sololá	710	Panajachel	8	Panajachel	3	Marzo	2023-03-17T00:00:00	2024-11-08T09:00:00	8	Radiación solar	439
25669	7	Sololá	710	Panajachel	8	Panajachel	3	Marzo	2023-03-17T00:00:00	2024-11-08T10:00:00	2	Temperatura media	20.7
25670	7	Sololá	710	Panajachel	8	Panajachel	3	Marzo	2023-03-17T00:00:00	2024-11-08T10:00:00	4	Temperatura máxima	20.7
25671	7	Sololá	710	Panajachel	8	Panajachel	3	Marzo	2023-03-17T00:00:00	2024-11-08T10:00:00	3	Temperatura mínima	19.8
25672	7	Sololá	710	Panajachel	8	Panajachel	3	Marzo	2023-03-17T00:00:00	2024-11-08T10:00:00	5	Humedad	78
25673	7	Sololá	710	Panajachel	8	Panajachel	3	Marzo	2023-03-17T00:00:00	2024-11-08T10:00:00	6	Velocidad del viento	3.2
25674	7	Sololá	710	Panajachel	8	Panajachel	3	Marzo	2023-03-17T00:00:00	2024-11-08T10:00:00	7	Dirección del viento	3.22
25675	7	Sololá	710	Panajachel	8	Panajachel	3	Marzo	2023-03-17T00:00:00	2024-11-08T10:00:00	1	Precipitación	0
25676	7	Sololá	710	Panajachel	8	Panajachel	3	Marzo	2023-03-17T00:00:00	2024-11-08T10:00:00	8	Radiación solar	674
25677	7	Sololá	710	Panajachel	8	Panajachel	3	Marzo	2023-03-17T00:00:00	2024-11-08T11:00:00	2	Temperatura media	20.7
25678	7	Sololá	710	Panajachel	8	Panajachel	3	Marzo	2023-03-17T00:00:00	2024-11-08T11:00:00	4	Temperatura máxima	21.6
25679	7	Sololá	710	Panajachel	8	Panajachel	3	Marzo	2023-03-17T00:00:00	2024-11-08T11:00:00	3	Temperatura mínima	20.6
25680	7	Sololá	710	Panajachel	8	Panajachel	3	Marzo	2023-03-17T00:00:00	2024-11-08T11:00:00	5	Humedad	74
25681	7	Sololá	710	Panajachel	8	Panajachel	3	Marzo	2023-03-17T00:00:00	2024-11-08T11:00:00	6	Velocidad del viento	3.2
25682	7	Sololá	710	Panajachel	8	Panajachel	3	Marzo	2023-03-17T00:00:00	2024-11-08T11:00:00	7	Dirección del viento	3.22
25683	7	Sololá	710	Panajachel	8	Panajachel	3	Marzo	2023-03-17T00:00:00	2024-11-08T11:00:00	1	Precipitación	0
25684	7	Sololá	710	Panajachel	8	Panajachel	3	Marzo	2023-03-17T00:00:00	2024-11-08T11:00:00	8	Radiación solar	825
25685	7	Sololá	710	Panajachel	8	Panajachel	3	Marzo	2023-03-17T00:00:00	2024-11-08T12:00:00	2	Temperatura media	21.8
25686	7	Sololá	710	Panajachel	8	Panajachel	3	Marzo	2023-03-17T00:00:00	2024-11-08T12:00:00	4	Temperatura máxima	22.2
25687	7	Sololá	710	Panajachel	8	Panajachel	3	Marzo	2023-03-17T00:00:00	2024-11-08T12:00:00	3	Temperatura mínima	20.7
25688	7	Sololá	710	Panajachel	8	Panajachel	3	Marzo	2023-03-17T00:00:00	2024-11-08T12:00:00	5	Humedad	74
25689	7	Sololá	710	Panajachel	8	Panajachel	3	Marzo	2023-03-17T00:00:00	2024-11-08T12:00:00	6	Velocidad del viento	4.8
25690	7	Sololá	710	Panajachel	8	Panajachel	3	Marzo	2023-03-17T00:00:00	2024-11-08T12:00:00	7	Dirección del viento	4.83
25691	7	Sololá	710	Panajachel	8	Panajachel	3	Marzo	2023-03-17T00:00:00	2024-11-08T12:00:00	1	Precipitación	0
25692	7	Sololá	710	Panajachel	8	Panajachel	3	Marzo	2023-03-17T00:00:00	2024-11-08T12:00:00	8	Radiación solar	909
25693	7	Sololá	710	Panajachel	8	Panajachel	3	Marzo	2023-03-17T00:00:00	2024-11-08T13:00:00	2	Temperatura media	22.4
25694	7	Sololá	710	Panajachel	8	Panajachel	3	Marzo	2023-03-17T00:00:00	2024-11-08T13:00:00	4	Temperatura máxima	23.2
25695	7	Sololá	710	Panajachel	8	Panajachel	3	Marzo	2023-03-17T00:00:00	2024-11-08T13:00:00	3	Temperatura mínima	21.8
25696	7	Sololá	710	Panajachel	8	Panajachel	3	Marzo	2023-03-17T00:00:00	2024-11-08T13:00:00	5	Humedad	76
25697	7	Sololá	710	Panajachel	8	Panajachel	3	Marzo	2023-03-17T00:00:00	2024-11-08T13:00:00	6	Velocidad del viento	6.4
25698	7	Sololá	710	Panajachel	8	Panajachel	3	Marzo	2023-03-17T00:00:00	2024-11-08T13:00:00	7	Dirección del viento	6.44
25699	7	Sololá	710	Panajachel	8	Panajachel	3	Marzo	2023-03-17T00:00:00	2024-11-08T13:00:00	1	Precipitación	0
25700	7	Sololá	710	Panajachel	8	Panajachel	3	Marzo	2023-03-17T00:00:00	2024-11-08T13:00:00	8	Radiación solar	932
25701	7	Sololá	710	Panajachel	8	Panajachel	3	Marzo	2023-03-17T00:00:00	2024-11-08T14:00:00	2	Temperatura media	20.6
25702	7	Sololá	710	Panajachel	8	Panajachel	3	Marzo	2023-03-17T00:00:00	2024-11-08T14:00:00	4	Temperatura máxima	23.3
25703	7	Sololá	710	Panajachel	8	Panajachel	3	Marzo	2023-03-17T00:00:00	2024-11-08T14:00:00	3	Temperatura mínima	20.6
25704	7	Sololá	710	Panajachel	8	Panajachel	3	Marzo	2023-03-17T00:00:00	2024-11-08T14:00:00	5	Humedad	85
25705	7	Sololá	710	Panajachel	8	Panajachel	3	Marzo	2023-03-17T00:00:00	2024-11-08T14:00:00	6	Velocidad del viento	6.4
25706	7	Sololá	710	Panajachel	8	Panajachel	3	Marzo	2023-03-17T00:00:00	2024-11-08T14:00:00	7	Dirección del viento	6.44
25707	7	Sololá	710	Panajachel	8	Panajachel	3	Marzo	2023-03-17T00:00:00	2024-11-08T14:00:00	1	Precipitación	0
25708	7	Sololá	710	Panajachel	8	Panajachel	3	Marzo	2023-03-17T00:00:00	2024-11-08T14:00:00	8	Radiación solar	338
25709	7	Sololá	710	Panajachel	8	Panajachel	3	Marzo	2023-03-17T00:00:00	2024-11-08T15:00:00	2	Temperatura media	18.9
25710	7	Sololá	710	Panajachel	8	Panajachel	3	Marzo	2023-03-17T00:00:00	2024-11-08T15:00:00	4	Temperatura máxima	20.6
25711	7	Sololá	710	Panajachel	8	Panajachel	3	Marzo	2023-03-17T00:00:00	2024-11-08T15:00:00	3	Temperatura mínima	18.8
25712	7	Sololá	710	Panajachel	8	Panajachel	3	Marzo	2023-03-17T00:00:00	2024-11-08T15:00:00	5	Humedad	85
25713	7	Sololá	710	Panajachel	8	Panajachel	3	Marzo	2023-03-17T00:00:00	2024-11-08T15:00:00	6	Velocidad del viento	9.7
25714	7	Sololá	710	Panajachel	8	Panajachel	3	Marzo	2023-03-17T00:00:00	2024-11-08T15:00:00	7	Dirección del viento	9.66
25715	7	Sololá	710	Panajachel	8	Panajachel	3	Marzo	2023-03-17T00:00:00	2024-11-08T15:00:00	1	Precipitación	0.4
25716	7	Sololá	710	Panajachel	8	Panajachel	3	Marzo	2023-03-17T00:00:00	2024-11-08T15:00:00	8	Radiación solar	105
25717	7	Sololá	710	Panajachel	8	Panajachel	3	Marzo	2023-03-17T00:00:00	2024-11-08T16:00:00	2	Temperatura media	20.3
25718	7	Sololá	710	Panajachel	8	Panajachel	3	Marzo	2023-03-17T00:00:00	2024-11-08T16:00:00	4	Temperatura máxima	21.1
25719	7	Sololá	710	Panajachel	8	Panajachel	3	Marzo	2023-03-17T00:00:00	2024-11-08T16:00:00	3	Temperatura mínima	18.9
25720	7	Sololá	710	Panajachel	8	Panajachel	3	Marzo	2023-03-17T00:00:00	2024-11-08T16:00:00	5	Humedad	71
25721	7	Sololá	710	Panajachel	8	Panajachel	3	Marzo	2023-03-17T00:00:00	2024-11-08T16:00:00	6	Velocidad del viento	3.2
25722	7	Sololá	710	Panajachel	8	Panajachel	3	Marzo	2023-03-17T00:00:00	2024-11-08T16:00:00	7	Dirección del viento	3.22
25723	7	Sololá	710	Panajachel	8	Panajachel	3	Marzo	2023-03-17T00:00:00	2024-11-08T16:00:00	1	Precipitación	0
25724	7	Sololá	710	Panajachel	8	Panajachel	3	Marzo	2023-03-17T00:00:00	2024-11-08T16:00:00	8	Radiación solar	364
25725	7	Sololá	710	Panajachel	8	Panajachel	3	Marzo	2023-03-17T00:00:00	2024-11-08T17:00:00	2	Temperatura media	19.7
25726	7	Sololá	710	Panajachel	8	Panajachel	3	Marzo	2023-03-17T00:00:00	2024-11-08T17:00:00	4	Temperatura máxima	20.3
25727	7	Sololá	710	Panajachel	8	Panajachel	3	Marzo	2023-03-17T00:00:00	2024-11-08T17:00:00	3	Temperatura mínima	19.7
25728	7	Sololá	710	Panajachel	8	Panajachel	3	Marzo	2023-03-17T00:00:00	2024-11-08T17:00:00	5	Humedad	80
25729	7	Sololá	710	Panajachel	8	Panajachel	3	Marzo	2023-03-17T00:00:00	2024-11-08T17:00:00	6	Velocidad del viento	3.2
25730	7	Sololá	710	Panajachel	8	Panajachel	3	Marzo	2023-03-17T00:00:00	2024-11-08T17:00:00	7	Dirección del viento	3.22
25731	7	Sololá	710	Panajachel	8	Panajachel	3	Marzo	2023-03-17T00:00:00	2024-11-08T17:00:00	1	Precipitación	0
25732	7	Sololá	710	Panajachel	8	Panajachel	3	Marzo	2023-03-17T00:00:00	2024-11-08T17:00:00	8	Radiación solar	72
25733	7	Sololá	710	Panajachel	8	Panajachel	3	Marzo	2023-03-17T00:00:00	2024-11-08T18:00:00	2	Temperatura media	18.8
25734	7	Sololá	710	Panajachel	8	Panajachel	3	Marzo	2023-03-17T00:00:00	2024-11-08T18:00:00	4	Temperatura máxima	19.8
25735	7	Sololá	710	Panajachel	8	Panajachel	3	Marzo	2023-03-17T00:00:00	2024-11-08T18:00:00	3	Temperatura mínima	18.8
25736	7	Sololá	710	Panajachel	8	Panajachel	3	Marzo	2023-03-17T00:00:00	2024-11-08T18:00:00	5	Humedad	91
25737	7	Sololá	710	Panajachel	8	Panajachel	3	Marzo	2023-03-17T00:00:00	2024-11-08T18:00:00	6	Velocidad del viento	4.8
25738	7	Sololá	710	Panajachel	8	Panajachel	3	Marzo	2023-03-17T00:00:00	2024-11-08T18:00:00	7	Dirección del viento	4.83
25739	7	Sololá	710	Panajachel	8	Panajachel	3	Marzo	2023-03-17T00:00:00	2024-11-08T18:00:00	1	Precipitación	0
25740	7	Sololá	710	Panajachel	8	Panajachel	3	Marzo	2023-03-17T00:00:00	2024-11-08T18:00:00	8	Radiación solar	27
25741	7	Sololá	710	Panajachel	8	Panajachel	3	Marzo	2023-03-17T00:00:00	2024-11-08T19:00:00	2	Temperatura media	18.3
25742	7	Sololá	710	Panajachel	8	Panajachel	3	Marzo	2023-03-17T00:00:00	2024-11-08T19:00:00	4	Temperatura máxima	18.8
25743	7	Sololá	710	Panajachel	8	Panajachel	3	Marzo	2023-03-17T00:00:00	2024-11-08T19:00:00	3	Temperatura mínima	18.2
25744	7	Sololá	710	Panajachel	8	Panajachel	3	Marzo	2023-03-17T00:00:00	2024-11-08T19:00:00	5	Humedad	91
25745	7	Sololá	710	Panajachel	8	Panajachel	3	Marzo	2023-03-17T00:00:00	2024-11-08T19:00:00	6	Velocidad del viento	1.6
25746	7	Sololá	710	Panajachel	8	Panajachel	3	Marzo	2023-03-17T00:00:00	2024-11-08T19:00:00	7	Dirección del viento	1.61
25747	7	Sololá	710	Panajachel	8	Panajachel	3	Marzo	2023-03-17T00:00:00	2024-11-08T19:00:00	1	Precipitación	0.2
25748	7	Sololá	710	Panajachel	8	Panajachel	3	Marzo	2023-03-17T00:00:00	2024-11-08T19:00:00	8	Radiación solar	0
25749	7	Sololá	710	Panajachel	8	Panajachel	3	Marzo	2023-03-17T00:00:00	2024-11-08T20:00:00	2	Temperatura media	18.2
25750	7	Sololá	710	Panajachel	8	Panajachel	3	Marzo	2023-03-17T00:00:00	2024-11-08T20:00:00	4	Temperatura máxima	18.4
25751	7	Sololá	710	Panajachel	8	Panajachel	3	Marzo	2023-03-17T00:00:00	2024-11-08T20:00:00	3	Temperatura mínima	18.2
25752	7	Sololá	710	Panajachel	8	Panajachel	3	Marzo	2023-03-17T00:00:00	2024-11-08T20:00:00	5	Humedad	90
25753	7	Sololá	710	Panajachel	8	Panajachel	3	Marzo	2023-03-17T00:00:00	2024-11-08T20:00:00	6	Velocidad del viento	1.6
25754	7	Sololá	710	Panajachel	8	Panajachel	3	Marzo	2023-03-17T00:00:00	2024-11-08T20:00:00	7	Dirección del viento	1.61
25755	7	Sololá	710	Panajachel	8	Panajachel	3	Marzo	2023-03-17T00:00:00	2024-11-08T20:00:00	1	Precipitación	0
25756	7	Sololá	710	Panajachel	8	Panajachel	3	Marzo	2023-03-17T00:00:00	2024-11-08T20:00:00	8	Radiación solar	0
25757	7	Sololá	710	Panajachel	8	Panajachel	3	Marzo	2023-03-17T00:00:00	2024-11-08T21:00:00	2	Temperatura media	18.1
25758	7	Sololá	710	Panajachel	8	Panajachel	3	Marzo	2023-03-17T00:00:00	2024-11-08T21:00:00	4	Temperatura máxima	18.3
25759	7	Sololá	710	Panajachel	8	Panajachel	3	Marzo	2023-03-17T00:00:00	2024-11-08T21:00:00	3	Temperatura mínima	18.1
25760	7	Sololá	710	Panajachel	8	Panajachel	3	Marzo	2023-03-17T00:00:00	2024-11-08T21:00:00	5	Humedad	89
25761	7	Sololá	710	Panajachel	8	Panajachel	3	Marzo	2023-03-17T00:00:00	2024-11-08T21:00:00	6	Velocidad del viento	1.6
25762	7	Sololá	710	Panajachel	8	Panajachel	3	Marzo	2023-03-17T00:00:00	2024-11-08T21:00:00	7	Dirección del viento	1.61
25763	7	Sololá	710	Panajachel	8	Panajachel	3	Marzo	2023-03-17T00:00:00	2024-11-08T21:00:00	1	Precipitación	0
25764	7	Sololá	710	Panajachel	8	Panajachel	3	Marzo	2023-03-17T00:00:00	2024-11-08T21:00:00	8	Radiación solar	0
25765	7	Sololá	710	Panajachel	8	Panajachel	3	Marzo	2023-03-17T00:00:00	2024-11-08T22:00:00	2	Temperatura media	17.8
25766	7	Sololá	710	Panajachel	8	Panajachel	3	Marzo	2023-03-17T00:00:00	2024-11-08T22:00:00	4	Temperatura máxima	18.2
25767	7	Sololá	710	Panajachel	8	Panajachel	3	Marzo	2023-03-17T00:00:00	2024-11-08T22:00:00	3	Temperatura mínima	17.8
25768	7	Sololá	710	Panajachel	8	Panajachel	3	Marzo	2023-03-17T00:00:00	2024-11-08T22:00:00	5	Humedad	90
25769	7	Sololá	710	Panajachel	8	Panajachel	3	Marzo	2023-03-17T00:00:00	2024-11-08T22:00:00	6	Velocidad del viento	1.6
25770	7	Sololá	710	Panajachel	8	Panajachel	3	Marzo	2023-03-17T00:00:00	2024-11-08T22:00:00	7	Dirección del viento	1.61
25771	7	Sololá	710	Panajachel	8	Panajachel	3	Marzo	2023-03-17T00:00:00	2024-11-08T22:00:00	1	Precipitación	0
25772	7	Sololá	710	Panajachel	8	Panajachel	3	Marzo	2023-03-17T00:00:00	2024-11-08T22:00:00	8	Radiación solar	0
25773	7	Sololá	710	Panajachel	8	Panajachel	3	Marzo	2023-03-17T00:00:00	2024-11-08T23:00:00	2	Temperatura media	17.1
25774	7	Sololá	710	Panajachel	8	Panajachel	3	Marzo	2023-03-17T00:00:00	2024-11-08T23:00:00	4	Temperatura máxima	17.8
25775	7	Sololá	710	Panajachel	8	Panajachel	3	Marzo	2023-03-17T00:00:00	2024-11-08T23:00:00	3	Temperatura mínima	17
25776	7	Sololá	710	Panajachel	8	Panajachel	3	Marzo	2023-03-17T00:00:00	2024-11-08T23:00:00	5	Humedad	88
25777	7	Sololá	710	Panajachel	8	Panajachel	3	Marzo	2023-03-17T00:00:00	2024-11-08T23:00:00	6	Velocidad del viento	3.2
25778	7	Sololá	710	Panajachel	8	Panajachel	3	Marzo	2023-03-17T00:00:00	2024-11-08T23:00:00	7	Dirección del viento	3.22
25779	7	Sololá	710	Panajachel	8	Panajachel	3	Marzo	2023-03-17T00:00:00	2024-11-08T23:00:00	1	Precipitación	0
25780	7	Sololá	710	Panajachel	8	Panajachel	3	Marzo	2023-03-17T00:00:00	2024-11-08T23:00:00	8	Radiación solar	0
25781	7	Sololá	710	Panajachel	8	Panajachel	3	Marzo	2023-03-18T00:00:00	2024-11-08T00:00:00	2	Temperatura media	17
25782	7	Sololá	710	Panajachel	8	Panajachel	3	Marzo	2023-03-18T00:00:00	2024-11-08T00:00:00	4	Temperatura máxima	17.1
25783	7	Sololá	710	Panajachel	8	Panajachel	3	Marzo	2023-03-18T00:00:00	2024-11-08T00:00:00	3	Temperatura mínima	16.9
25784	7	Sololá	710	Panajachel	8	Panajachel	3	Marzo	2023-03-18T00:00:00	2024-11-08T00:00:00	5	Humedad	87
25785	7	Sololá	710	Panajachel	8	Panajachel	3	Marzo	2023-03-18T00:00:00	2024-11-08T00:00:00	6	Velocidad del viento	3.2
25786	7	Sololá	710	Panajachel	8	Panajachel	3	Marzo	2023-03-18T00:00:00	2024-11-08T00:00:00	7	Dirección del viento	3.22
25787	7	Sololá	710	Panajachel	8	Panajachel	3	Marzo	2023-03-18T00:00:00	2024-11-08T00:00:00	1	Precipitación	0
25788	7	Sololá	710	Panajachel	8	Panajachel	3	Marzo	2023-03-18T00:00:00	2024-11-08T00:00:00	8	Radiación solar	0
25789	7	Sololá	710	Panajachel	8	Panajachel	3	Marzo	2023-03-18T00:00:00	2024-11-08T01:00:00	2	Temperatura media	16.7
25790	7	Sololá	710	Panajachel	8	Panajachel	3	Marzo	2023-03-18T00:00:00	2024-11-08T01:00:00	4	Temperatura máxima	17
25791	7	Sololá	710	Panajachel	8	Panajachel	3	Marzo	2023-03-18T00:00:00	2024-11-08T01:00:00	3	Temperatura mínima	16.7
25792	7	Sololá	710	Panajachel	8	Panajachel	3	Marzo	2023-03-18T00:00:00	2024-11-08T01:00:00	5	Humedad	85
25793	7	Sololá	710	Panajachel	8	Panajachel	3	Marzo	2023-03-18T00:00:00	2024-11-08T01:00:00	6	Velocidad del viento	3.2
25794	7	Sololá	710	Panajachel	8	Panajachel	3	Marzo	2023-03-18T00:00:00	2024-11-08T01:00:00	7	Dirección del viento	3.22
25795	7	Sololá	710	Panajachel	8	Panajachel	3	Marzo	2023-03-18T00:00:00	2024-11-08T01:00:00	1	Precipitación	0
25796	7	Sololá	710	Panajachel	8	Panajachel	3	Marzo	2023-03-18T00:00:00	2024-11-08T01:00:00	8	Radiación solar	0
25797	7	Sololá	710	Panajachel	8	Panajachel	3	Marzo	2023-03-18T00:00:00	2024-11-08T02:00:00	2	Temperatura media	16.3
25798	7	Sololá	710	Panajachel	8	Panajachel	3	Marzo	2023-03-18T00:00:00	2024-11-08T02:00:00	4	Temperatura máxima	16.8
25799	7	Sololá	710	Panajachel	8	Panajachel	3	Marzo	2023-03-18T00:00:00	2024-11-08T02:00:00	3	Temperatura mínima	16.3
25800	7	Sololá	710	Panajachel	8	Panajachel	3	Marzo	2023-03-18T00:00:00	2024-11-08T02:00:00	5	Humedad	85
25801	7	Sololá	710	Panajachel	8	Panajachel	3	Marzo	2023-03-18T00:00:00	2024-11-08T02:00:00	6	Velocidad del viento	1.6
25802	7	Sololá	710	Panajachel	8	Panajachel	3	Marzo	2023-03-18T00:00:00	2024-11-08T02:00:00	7	Dirección del viento	1.61
25803	7	Sololá	710	Panajachel	8	Panajachel	3	Marzo	2023-03-18T00:00:00	2024-11-08T02:00:00	1	Precipitación	0
25804	7	Sololá	710	Panajachel	8	Panajachel	3	Marzo	2023-03-18T00:00:00	2024-11-08T02:00:00	8	Radiación solar	0
25805	7	Sololá	710	Panajachel	8	Panajachel	3	Marzo	2023-03-18T00:00:00	2024-11-08T03:00:00	2	Temperatura media	15.5
25806	7	Sololá	710	Panajachel	8	Panajachel	3	Marzo	2023-03-18T00:00:00	2024-11-08T03:00:00	4	Temperatura máxima	16.3
25807	7	Sololá	710	Panajachel	8	Panajachel	3	Marzo	2023-03-18T00:00:00	2024-11-08T03:00:00	3	Temperatura mínima	15.4
25808	7	Sololá	710	Panajachel	8	Panajachel	3	Marzo	2023-03-18T00:00:00	2024-11-08T03:00:00	5	Humedad	84
25809	7	Sololá	710	Panajachel	8	Panajachel	3	Marzo	2023-03-18T00:00:00	2024-11-08T03:00:00	6	Velocidad del viento	3.2
25810	7	Sololá	710	Panajachel	8	Panajachel	3	Marzo	2023-03-18T00:00:00	2024-11-08T03:00:00	7	Dirección del viento	3.22
25811	7	Sololá	710	Panajachel	8	Panajachel	3	Marzo	2023-03-18T00:00:00	2024-11-08T03:00:00	1	Precipitación	0
25812	7	Sololá	710	Panajachel	8	Panajachel	3	Marzo	2023-03-18T00:00:00	2024-11-08T03:00:00	8	Radiación solar	0
25813	7	Sololá	710	Panajachel	8	Panajachel	3	Marzo	2023-03-18T00:00:00	2024-11-08T04:00:00	2	Temperatura media	14.8
25814	7	Sololá	710	Panajachel	8	Panajachel	3	Marzo	2023-03-18T00:00:00	2024-11-08T04:00:00	4	Temperatura máxima	15.5
25815	7	Sololá	710	Panajachel	8	Panajachel	3	Marzo	2023-03-18T00:00:00	2024-11-08T04:00:00	3	Temperatura mínima	14.7
25816	7	Sololá	710	Panajachel	8	Panajachel	3	Marzo	2023-03-18T00:00:00	2024-11-08T04:00:00	5	Humedad	82
25817	7	Sololá	710	Panajachel	8	Panajachel	3	Marzo	2023-03-18T00:00:00	2024-11-08T04:00:00	6	Velocidad del viento	4.8
25818	7	Sololá	710	Panajachel	8	Panajachel	3	Marzo	2023-03-18T00:00:00	2024-11-08T04:00:00	7	Dirección del viento	4.83
25819	7	Sololá	710	Panajachel	8	Panajachel	3	Marzo	2023-03-18T00:00:00	2024-11-08T04:00:00	1	Precipitación	0
25820	7	Sololá	710	Panajachel	8	Panajachel	3	Marzo	2023-03-18T00:00:00	2024-11-08T04:00:00	8	Radiación solar	0
25821	7	Sololá	710	Panajachel	8	Panajachel	3	Marzo	2023-03-18T00:00:00	2024-11-08T05:00:00	2	Temperatura media	14.4
25822	7	Sololá	710	Panajachel	8	Panajachel	3	Marzo	2023-03-18T00:00:00	2024-11-08T05:00:00	4	Temperatura máxima	14.7
25823	7	Sololá	710	Panajachel	8	Panajachel	3	Marzo	2023-03-18T00:00:00	2024-11-08T05:00:00	3	Temperatura mínima	14.4
25824	7	Sololá	710	Panajachel	8	Panajachel	3	Marzo	2023-03-18T00:00:00	2024-11-08T05:00:00	5	Humedad	80
25825	7	Sololá	710	Panajachel	8	Panajachel	3	Marzo	2023-03-18T00:00:00	2024-11-08T05:00:00	6	Velocidad del viento	6.4
25826	7	Sololá	710	Panajachel	8	Panajachel	3	Marzo	2023-03-18T00:00:00	2024-11-08T05:00:00	7	Dirección del viento	6.44
25827	7	Sololá	710	Panajachel	8	Panajachel	3	Marzo	2023-03-18T00:00:00	2024-11-08T05:00:00	1	Precipitación	0
25828	7	Sololá	710	Panajachel	8	Panajachel	3	Marzo	2023-03-18T00:00:00	2024-11-08T05:00:00	8	Radiación solar	0
25829	7	Sololá	710	Panajachel	8	Panajachel	3	Marzo	2023-03-18T00:00:00	2024-11-08T06:00:00	2	Temperatura media	14.2
25830	7	Sololá	710	Panajachel	8	Panajachel	3	Marzo	2023-03-18T00:00:00	2024-11-08T06:00:00	4	Temperatura máxima	14.7
25831	7	Sololá	710	Panajachel	8	Panajachel	3	Marzo	2023-03-18T00:00:00	2024-11-08T06:00:00	3	Temperatura mínima	14.1
25832	7	Sololá	710	Panajachel	8	Panajachel	3	Marzo	2023-03-18T00:00:00	2024-11-08T06:00:00	5	Humedad	78
25833	7	Sololá	710	Panajachel	8	Panajachel	3	Marzo	2023-03-18T00:00:00	2024-11-08T06:00:00	6	Velocidad del viento	4.8
25834	7	Sololá	710	Panajachel	8	Panajachel	3	Marzo	2023-03-18T00:00:00	2024-11-08T06:00:00	7	Dirección del viento	4.83
25835	7	Sololá	710	Panajachel	8	Panajachel	3	Marzo	2023-03-18T00:00:00	2024-11-08T06:00:00	1	Precipitación	0
25836	7	Sololá	710	Panajachel	8	Panajachel	3	Marzo	2023-03-18T00:00:00	2024-11-08T06:00:00	8	Radiación solar	0
25837	7	Sololá	710	Panajachel	8	Panajachel	3	Marzo	2023-03-18T00:00:00	2024-11-08T07:00:00	2	Temperatura media	14.5
25838	7	Sololá	710	Panajachel	8	Panajachel	3	Marzo	2023-03-18T00:00:00	2024-11-08T07:00:00	4	Temperatura máxima	14.7
25839	7	Sololá	710	Panajachel	8	Panajachel	3	Marzo	2023-03-18T00:00:00	2024-11-08T07:00:00	3	Temperatura mínima	14.2
25840	7	Sololá	710	Panajachel	8	Panajachel	3	Marzo	2023-03-18T00:00:00	2024-11-08T07:00:00	5	Humedad	74
25841	7	Sololá	710	Panajachel	8	Panajachel	3	Marzo	2023-03-18T00:00:00	2024-11-08T07:00:00	6	Velocidad del viento	3.2
25842	7	Sololá	710	Panajachel	8	Panajachel	3	Marzo	2023-03-18T00:00:00	2024-11-08T07:00:00	7	Dirección del viento	3.22
25843	7	Sololá	710	Panajachel	8	Panajachel	3	Marzo	2023-03-18T00:00:00	2024-11-08T07:00:00	1	Precipitación	0
25844	7	Sololá	710	Panajachel	8	Panajachel	3	Marzo	2023-03-18T00:00:00	2024-11-08T07:00:00	8	Radiación solar	16
25845	7	Sololá	710	Panajachel	8	Panajachel	3	Marzo	2023-03-18T00:00:00	2024-11-08T08:00:00	2	Temperatura media	18.3
25846	7	Sololá	710	Panajachel	8	Panajachel	3	Marzo	2023-03-18T00:00:00	2024-11-08T08:00:00	4	Temperatura máxima	18.3
25847	7	Sololá	710	Panajachel	8	Panajachel	3	Marzo	2023-03-18T00:00:00	2024-11-08T08:00:00	3	Temperatura mínima	14.4
25848	7	Sololá	710	Panajachel	8	Panajachel	3	Marzo	2023-03-18T00:00:00	2024-11-08T08:00:00	5	Humedad	71
25849	7	Sololá	710	Panajachel	8	Panajachel	3	Marzo	2023-03-18T00:00:00	2024-11-08T08:00:00	6	Velocidad del viento	3.2
25850	7	Sololá	710	Panajachel	8	Panajachel	3	Marzo	2023-03-18T00:00:00	2024-11-08T08:00:00	7	Dirección del viento	3.22
25851	7	Sololá	710	Panajachel	8	Panajachel	3	Marzo	2023-03-18T00:00:00	2024-11-08T08:00:00	1	Precipitación	0
25852	7	Sololá	710	Panajachel	8	Panajachel	3	Marzo	2023-03-18T00:00:00	2024-11-08T08:00:00	8	Radiación solar	242
25853	7	Sololá	710	Panajachel	8	Panajachel	3	Marzo	2023-03-18T00:00:00	2024-11-08T09:00:00	2	Temperatura media	19.1
25854	7	Sololá	710	Panajachel	8	Panajachel	3	Marzo	2023-03-18T00:00:00	2024-11-08T09:00:00	4	Temperatura máxima	19.3
25855	7	Sololá	710	Panajachel	8	Panajachel	3	Marzo	2023-03-18T00:00:00	2024-11-08T09:00:00	3	Temperatura mínima	18.3
25856	7	Sololá	710	Panajachel	8	Panajachel	3	Marzo	2023-03-18T00:00:00	2024-11-08T09:00:00	5	Humedad	79
25857	7	Sololá	710	Panajachel	8	Panajachel	3	Marzo	2023-03-18T00:00:00	2024-11-08T09:00:00	6	Velocidad del viento	1.6
25858	7	Sololá	710	Panajachel	8	Panajachel	3	Marzo	2023-03-18T00:00:00	2024-11-08T09:00:00	7	Dirección del viento	1.61
25859	7	Sololá	710	Panajachel	8	Panajachel	3	Marzo	2023-03-18T00:00:00	2024-11-08T09:00:00	1	Precipitación	0
25860	7	Sololá	710	Panajachel	8	Panajachel	3	Marzo	2023-03-18T00:00:00	2024-11-08T09:00:00	8	Radiación solar	477
25861	7	Sololá	710	Panajachel	8	Panajachel	3	Marzo	2023-03-18T00:00:00	2024-11-08T10:00:00	2	Temperatura media	20.3
25862	7	Sololá	710	Panajachel	8	Panajachel	3	Marzo	2023-03-18T00:00:00	2024-11-08T10:00:00	4	Temperatura máxima	20.3
25863	7	Sololá	710	Panajachel	8	Panajachel	3	Marzo	2023-03-18T00:00:00	2024-11-08T10:00:00	3	Temperatura mínima	19.1
25864	7	Sololá	710	Panajachel	8	Panajachel	3	Marzo	2023-03-18T00:00:00	2024-11-08T10:00:00	5	Humedad	76
25865	7	Sololá	710	Panajachel	8	Panajachel	3	Marzo	2023-03-18T00:00:00	2024-11-08T10:00:00	6	Velocidad del viento	3.2
25866	7	Sololá	710	Panajachel	8	Panajachel	3	Marzo	2023-03-18T00:00:00	2024-11-08T10:00:00	7	Dirección del viento	3.22
25867	7	Sololá	710	Panajachel	8	Panajachel	3	Marzo	2023-03-18T00:00:00	2024-11-08T10:00:00	1	Precipitación	0
25868	7	Sololá	710	Panajachel	8	Panajachel	3	Marzo	2023-03-18T00:00:00	2024-11-08T10:00:00	8	Radiación solar	677
25869	7	Sololá	710	Panajachel	8	Panajachel	3	Marzo	2023-03-18T00:00:00	2024-11-08T11:00:00	2	Temperatura media	21.7
25870	7	Sololá	710	Panajachel	8	Panajachel	3	Marzo	2023-03-18T00:00:00	2024-11-08T11:00:00	4	Temperatura máxima	21.8
25871	7	Sololá	710	Panajachel	8	Panajachel	3	Marzo	2023-03-18T00:00:00	2024-11-08T11:00:00	3	Temperatura mínima	19.9
25872	7	Sololá	710	Panajachel	8	Panajachel	3	Marzo	2023-03-18T00:00:00	2024-11-08T11:00:00	5	Humedad	72
25873	7	Sololá	710	Panajachel	8	Panajachel	3	Marzo	2023-03-18T00:00:00	2024-11-08T11:00:00	6	Velocidad del viento	3.2
25874	7	Sololá	710	Panajachel	8	Panajachel	3	Marzo	2023-03-18T00:00:00	2024-11-08T11:00:00	7	Dirección del viento	3.22
25875	7	Sololá	710	Panajachel	8	Panajachel	3	Marzo	2023-03-18T00:00:00	2024-11-08T11:00:00	1	Precipitación	0
25876	7	Sololá	710	Panajachel	8	Panajachel	3	Marzo	2023-03-18T00:00:00	2024-11-08T11:00:00	8	Radiación solar	827
25877	7	Sololá	710	Panajachel	8	Panajachel	3	Marzo	2023-03-18T00:00:00	2024-11-08T12:00:00	2	Temperatura media	21.7
25878	7	Sololá	710	Panajachel	8	Panajachel	3	Marzo	2023-03-18T00:00:00	2024-11-08T12:00:00	4	Temperatura máxima	22
25879	7	Sololá	710	Panajachel	8	Panajachel	3	Marzo	2023-03-18T00:00:00	2024-11-08T12:00:00	3	Temperatura mínima	20.9
25880	7	Sololá	710	Panajachel	8	Panajachel	3	Marzo	2023-03-18T00:00:00	2024-11-08T12:00:00	5	Humedad	75
25881	7	Sololá	710	Panajachel	8	Panajachel	3	Marzo	2023-03-18T00:00:00	2024-11-08T12:00:00	6	Velocidad del viento	4.8
25882	7	Sololá	710	Panajachel	8	Panajachel	3	Marzo	2023-03-18T00:00:00	2024-11-08T12:00:00	7	Dirección del viento	4.83
25883	7	Sololá	710	Panajachel	8	Panajachel	3	Marzo	2023-03-18T00:00:00	2024-11-08T12:00:00	1	Precipitación	0
25884	7	Sololá	710	Panajachel	8	Panajachel	3	Marzo	2023-03-18T00:00:00	2024-11-08T12:00:00	8	Radiación solar	915
25885	7	Sololá	710	Panajachel	8	Panajachel	3	Marzo	2023-03-18T00:00:00	2024-11-08T13:00:00	2	Temperatura media	23.1
25886	7	Sololá	710	Panajachel	8	Panajachel	3	Marzo	2023-03-18T00:00:00	2024-11-08T13:00:00	4	Temperatura máxima	23.1
25887	7	Sololá	710	Panajachel	8	Panajachel	3	Marzo	2023-03-18T00:00:00	2024-11-08T13:00:00	3	Temperatura mínima	21.4
25888	7	Sololá	710	Panajachel	8	Panajachel	3	Marzo	2023-03-18T00:00:00	2024-11-08T13:00:00	5	Humedad	76
25889	7	Sololá	710	Panajachel	8	Panajachel	3	Marzo	2023-03-18T00:00:00	2024-11-08T13:00:00	6	Velocidad del viento	6.4
25890	7	Sololá	710	Panajachel	8	Panajachel	3	Marzo	2023-03-18T00:00:00	2024-11-08T13:00:00	7	Dirección del viento	6.44
25891	7	Sololá	710	Panajachel	8	Panajachel	3	Marzo	2023-03-18T00:00:00	2024-11-08T13:00:00	1	Precipitación	0
25892	7	Sololá	710	Panajachel	8	Panajachel	3	Marzo	2023-03-18T00:00:00	2024-11-08T13:00:00	8	Radiación solar	852
25893	7	Sololá	710	Panajachel	8	Panajachel	3	Marzo	2023-03-18T00:00:00	2024-11-08T14:00:00	2	Temperatura media	21.9
25894	7	Sololá	710	Panajachel	8	Panajachel	3	Marzo	2023-03-18T00:00:00	2024-11-08T14:00:00	4	Temperatura máxima	23.1
25895	7	Sololá	710	Panajachel	8	Panajachel	3	Marzo	2023-03-18T00:00:00	2024-11-08T14:00:00	3	Temperatura mínima	21.7
25896	7	Sololá	710	Panajachel	8	Panajachel	3	Marzo	2023-03-18T00:00:00	2024-11-08T14:00:00	5	Humedad	79
25897	7	Sololá	710	Panajachel	8	Panajachel	3	Marzo	2023-03-18T00:00:00	2024-11-08T14:00:00	6	Velocidad del viento	6.4
25898	7	Sololá	710	Panajachel	8	Panajachel	3	Marzo	2023-03-18T00:00:00	2024-11-08T14:00:00	7	Dirección del viento	6.44
25899	7	Sololá	710	Panajachel	8	Panajachel	3	Marzo	2023-03-18T00:00:00	2024-11-08T14:00:00	1	Precipitación	0
25900	7	Sololá	710	Panajachel	8	Panajachel	3	Marzo	2023-03-18T00:00:00	2024-11-08T14:00:00	8	Radiación solar	353
25901	7	Sololá	710	Panajachel	8	Panajachel	3	Marzo	2023-03-18T00:00:00	2024-11-08T15:00:00	2	Temperatura media	21.6
25902	7	Sololá	710	Panajachel	8	Panajachel	3	Marzo	2023-03-18T00:00:00	2024-11-08T15:00:00	4	Temperatura máxima	23.1
25903	7	Sololá	710	Panajachel	8	Panajachel	3	Marzo	2023-03-18T00:00:00	2024-11-08T15:00:00	3	Temperatura mínima	21.4
25904	7	Sololá	710	Panajachel	8	Panajachel	3	Marzo	2023-03-18T00:00:00	2024-11-08T15:00:00	5	Humedad	80
25905	7	Sololá	710	Panajachel	8	Panajachel	3	Marzo	2023-03-18T00:00:00	2024-11-08T15:00:00	6	Velocidad del viento	6.4
25906	7	Sololá	710	Panajachel	8	Panajachel	3	Marzo	2023-03-18T00:00:00	2024-11-08T15:00:00	7	Dirección del viento	6.44
25907	7	Sololá	710	Panajachel	8	Panajachel	3	Marzo	2023-03-18T00:00:00	2024-11-08T15:00:00	1	Precipitación	0
25908	7	Sololá	710	Panajachel	8	Panajachel	3	Marzo	2023-03-18T00:00:00	2024-11-08T15:00:00	8	Radiación solar	332
25909	7	Sololá	710	Panajachel	8	Panajachel	3	Marzo	2023-03-18T00:00:00	2024-11-08T16:00:00	2	Temperatura media	21.9
25910	7	Sololá	710	Panajachel	8	Panajachel	3	Marzo	2023-03-18T00:00:00	2024-11-08T16:00:00	4	Temperatura máxima	22.4
25911	7	Sololá	710	Panajachel	8	Panajachel	3	Marzo	2023-03-18T00:00:00	2024-11-08T16:00:00	3	Temperatura mínima	20.9
25912	7	Sololá	710	Panajachel	8	Panajachel	3	Marzo	2023-03-18T00:00:00	2024-11-08T16:00:00	5	Humedad	76
25913	7	Sololá	710	Panajachel	8	Panajachel	3	Marzo	2023-03-18T00:00:00	2024-11-08T16:00:00	6	Velocidad del viento	6.4
25914	7	Sololá	710	Panajachel	8	Panajachel	3	Marzo	2023-03-18T00:00:00	2024-11-08T16:00:00	7	Dirección del viento	6.44
25915	7	Sololá	710	Panajachel	8	Panajachel	3	Marzo	2023-03-18T00:00:00	2024-11-08T16:00:00	1	Precipitación	0
25916	7	Sololá	710	Panajachel	8	Panajachel	3	Marzo	2023-03-18T00:00:00	2024-11-08T16:00:00	8	Radiación solar	384
25917	7	Sololá	710	Panajachel	8	Panajachel	3	Marzo	2023-03-18T00:00:00	2024-11-08T17:00:00	2	Temperatura media	19.4
25918	7	Sololá	710	Panajachel	8	Panajachel	3	Marzo	2023-03-18T00:00:00	2024-11-08T17:00:00	4	Temperatura máxima	21.9
25919	7	Sololá	710	Panajachel	8	Panajachel	3	Marzo	2023-03-18T00:00:00	2024-11-08T17:00:00	3	Temperatura mínima	19.4
25920	7	Sololá	710	Panajachel	8	Panajachel	3	Marzo	2023-03-18T00:00:00	2024-11-08T17:00:00	5	Humedad	85
25921	7	Sololá	710	Panajachel	8	Panajachel	3	Marzo	2023-03-18T00:00:00	2024-11-08T17:00:00	6	Velocidad del viento	6.4
25922	7	Sololá	710	Panajachel	8	Panajachel	3	Marzo	2023-03-18T00:00:00	2024-11-08T17:00:00	7	Dirección del viento	6.44
25923	7	Sololá	710	Panajachel	8	Panajachel	3	Marzo	2023-03-18T00:00:00	2024-11-08T17:00:00	1	Precipitación	0
25924	7	Sololá	710	Panajachel	8	Panajachel	3	Marzo	2023-03-18T00:00:00	2024-11-08T17:00:00	8	Radiación solar	57
25925	7	Sololá	710	Panajachel	8	Panajachel	3	Marzo	2023-03-18T00:00:00	2024-11-08T18:00:00	2	Temperatura media	17.1
25926	7	Sololá	710	Panajachel	8	Panajachel	3	Marzo	2023-03-18T00:00:00	2024-11-08T18:00:00	4	Temperatura máxima	19.4
25927	7	Sololá	710	Panajachel	8	Panajachel	3	Marzo	2023-03-18T00:00:00	2024-11-08T18:00:00	3	Temperatura mínima	17.1
25928	7	Sololá	710	Panajachel	8	Panajachel	3	Marzo	2023-03-18T00:00:00	2024-11-08T18:00:00	5	Humedad	91
25929	7	Sololá	710	Panajachel	8	Panajachel	3	Marzo	2023-03-18T00:00:00	2024-11-08T18:00:00	6	Velocidad del viento	11.3
25930	7	Sololá	710	Panajachel	8	Panajachel	3	Marzo	2023-03-18T00:00:00	2024-11-08T18:00:00	7	Dirección del viento	11.27
25931	7	Sololá	710	Panajachel	8	Panajachel	3	Marzo	2023-03-18T00:00:00	2024-11-08T18:00:00	1	Precipitación	1.6
25932	7	Sololá	710	Panajachel	8	Panajachel	3	Marzo	2023-03-18T00:00:00	2024-11-08T18:00:00	8	Radiación solar	19
25933	7	Sololá	710	Panajachel	8	Panajachel	3	Marzo	2023-03-18T00:00:00	2024-11-08T19:00:00	2	Temperatura media	16.9
25934	7	Sololá	710	Panajachel	8	Panajachel	3	Marzo	2023-03-18T00:00:00	2024-11-08T19:00:00	4	Temperatura máxima	17.2
25935	7	Sololá	710	Panajachel	8	Panajachel	3	Marzo	2023-03-18T00:00:00	2024-11-08T19:00:00	3	Temperatura mínima	16.9
25936	7	Sololá	710	Panajachel	8	Panajachel	3	Marzo	2023-03-18T00:00:00	2024-11-08T19:00:00	5	Humedad	93
25937	7	Sololá	710	Panajachel	8	Panajachel	3	Marzo	2023-03-18T00:00:00	2024-11-08T19:00:00	6	Velocidad del viento	1.6
25938	7	Sololá	710	Panajachel	8	Panajachel	3	Marzo	2023-03-18T00:00:00	2024-11-08T19:00:00	7	Dirección del viento	1.61
25939	7	Sololá	710	Panajachel	8	Panajachel	3	Marzo	2023-03-18T00:00:00	2024-11-08T19:00:00	1	Precipitación	0
25940	7	Sololá	710	Panajachel	8	Panajachel	3	Marzo	2023-03-18T00:00:00	2024-11-08T19:00:00	8	Radiación solar	0
25941	7	Sololá	710	Panajachel	8	Panajachel	3	Marzo	2023-03-18T00:00:00	2024-11-08T20:00:00	2	Temperatura media	16.9
25942	7	Sololá	710	Panajachel	8	Panajachel	3	Marzo	2023-03-18T00:00:00	2024-11-08T20:00:00	4	Temperatura máxima	16.9
25943	7	Sololá	710	Panajachel	8	Panajachel	3	Marzo	2023-03-18T00:00:00	2024-11-08T20:00:00	3	Temperatura mínima	16.8
25944	7	Sololá	710	Panajachel	8	Panajachel	3	Marzo	2023-03-18T00:00:00	2024-11-08T20:00:00	5	Humedad	95
25945	7	Sololá	710	Panajachel	8	Panajachel	3	Marzo	2023-03-18T00:00:00	2024-11-08T20:00:00	6	Velocidad del viento	0
25946	7	Sololá	710	Panajachel	8	Panajachel	3	Marzo	2023-03-18T00:00:00	2024-11-08T20:00:00	7	Dirección del viento	0
25947	7	Sololá	710	Panajachel	8	Panajachel	3	Marzo	2023-03-18T00:00:00	2024-11-08T20:00:00	1	Precipitación	0
25948	7	Sololá	710	Panajachel	8	Panajachel	3	Marzo	2023-03-18T00:00:00	2024-11-08T20:00:00	8	Radiación solar	0
25949	7	Sololá	710	Panajachel	8	Panajachel	3	Marzo	2023-03-18T00:00:00	2024-11-08T21:00:00	2	Temperatura media	16.4
25950	7	Sololá	710	Panajachel	8	Panajachel	3	Marzo	2023-03-18T00:00:00	2024-11-08T21:00:00	4	Temperatura máxima	16.9
25951	7	Sololá	710	Panajachel	8	Panajachel	3	Marzo	2023-03-18T00:00:00	2024-11-08T21:00:00	3	Temperatura mínima	16.3
25952	7	Sololá	710	Panajachel	8	Panajachel	3	Marzo	2023-03-18T00:00:00	2024-11-08T21:00:00	5	Humedad	95
25953	7	Sololá	710	Panajachel	8	Panajachel	3	Marzo	2023-03-18T00:00:00	2024-11-08T21:00:00	6	Velocidad del viento	1.6
25954	7	Sololá	710	Panajachel	8	Panajachel	3	Marzo	2023-03-18T00:00:00	2024-11-08T21:00:00	7	Dirección del viento	1.61
25955	7	Sololá	710	Panajachel	8	Panajachel	3	Marzo	2023-03-18T00:00:00	2024-11-08T21:00:00	1	Precipitación	0
25956	7	Sololá	710	Panajachel	8	Panajachel	3	Marzo	2023-03-18T00:00:00	2024-11-08T21:00:00	8	Radiación solar	0
25957	7	Sololá	710	Panajachel	8	Panajachel	3	Marzo	2023-03-18T00:00:00	2024-11-08T22:00:00	2	Temperatura media	16.1
25958	7	Sololá	710	Panajachel	8	Panajachel	3	Marzo	2023-03-18T00:00:00	2024-11-08T22:00:00	4	Temperatura máxima	16.4
25959	7	Sololá	710	Panajachel	8	Panajachel	3	Marzo	2023-03-18T00:00:00	2024-11-08T22:00:00	3	Temperatura mínima	16
25960	7	Sololá	710	Panajachel	8	Panajachel	3	Marzo	2023-03-18T00:00:00	2024-11-08T22:00:00	5	Humedad	93
25961	7	Sololá	710	Panajachel	8	Panajachel	3	Marzo	2023-03-18T00:00:00	2024-11-08T22:00:00	6	Velocidad del viento	1.6
25962	7	Sololá	710	Panajachel	8	Panajachel	3	Marzo	2023-03-18T00:00:00	2024-11-08T22:00:00	7	Dirección del viento	1.61
25963	7	Sololá	710	Panajachel	8	Panajachel	3	Marzo	2023-03-18T00:00:00	2024-11-08T22:00:00	1	Precipitación	0
25964	7	Sololá	710	Panajachel	8	Panajachel	3	Marzo	2023-03-18T00:00:00	2024-11-08T22:00:00	8	Radiación solar	0
25965	7	Sololá	710	Panajachel	8	Panajachel	3	Marzo	2023-03-18T00:00:00	2024-11-08T23:00:00	2	Temperatura media	15.8
25966	7	Sololá	710	Panajachel	8	Panajachel	3	Marzo	2023-03-18T00:00:00	2024-11-08T23:00:00	4	Temperatura máxima	16.1
25967	7	Sololá	710	Panajachel	8	Panajachel	3	Marzo	2023-03-18T00:00:00	2024-11-08T23:00:00	3	Temperatura mínima	15.8
25968	7	Sololá	710	Panajachel	8	Panajachel	3	Marzo	2023-03-18T00:00:00	2024-11-08T23:00:00	5	Humedad	93
25969	7	Sololá	710	Panajachel	8	Panajachel	3	Marzo	2023-03-18T00:00:00	2024-11-08T23:00:00	6	Velocidad del viento	1.6
25970	7	Sololá	710	Panajachel	8	Panajachel	3	Marzo	2023-03-18T00:00:00	2024-11-08T23:00:00	7	Dirección del viento	1.61
25971	7	Sololá	710	Panajachel	8	Panajachel	3	Marzo	2023-03-18T00:00:00	2024-11-08T23:00:00	1	Precipitación	0.2
25972	7	Sololá	710	Panajachel	8	Panajachel	3	Marzo	2023-03-18T00:00:00	2024-11-08T23:00:00	8	Radiación solar	0
25973	7	Sololá	710	Panajachel	8	Panajachel	3	Marzo	2023-03-19T00:00:00	2024-11-08T00:00:00	2	Temperatura media	16.3
25974	7	Sololá	710	Panajachel	8	Panajachel	3	Marzo	2023-03-19T00:00:00	2024-11-08T00:00:00	4	Temperatura máxima	16.4
25975	7	Sololá	710	Panajachel	8	Panajachel	3	Marzo	2023-03-19T00:00:00	2024-11-08T00:00:00	3	Temperatura mínima	15.8
25976	7	Sololá	710	Panajachel	8	Panajachel	3	Marzo	2023-03-19T00:00:00	2024-11-08T00:00:00	5	Humedad	92
25977	7	Sololá	710	Panajachel	8	Panajachel	3	Marzo	2023-03-19T00:00:00	2024-11-08T00:00:00	6	Velocidad del viento	1.6
25978	7	Sololá	710	Panajachel	8	Panajachel	3	Marzo	2023-03-19T00:00:00	2024-11-08T00:00:00	7	Dirección del viento	1.61
25979	7	Sololá	710	Panajachel	8	Panajachel	3	Marzo	2023-03-19T00:00:00	2024-11-08T00:00:00	1	Precipitación	0
25980	7	Sololá	710	Panajachel	8	Panajachel	3	Marzo	2023-03-19T00:00:00	2024-11-08T00:00:00	8	Radiación solar	0
25981	7	Sololá	710	Panajachel	8	Panajachel	3	Marzo	2023-03-19T00:00:00	2024-11-08T01:00:00	2	Temperatura media	16.3
25982	7	Sololá	710	Panajachel	8	Panajachel	3	Marzo	2023-03-19T00:00:00	2024-11-08T01:00:00	4	Temperatura máxima	16.5
25983	7	Sololá	710	Panajachel	8	Panajachel	3	Marzo	2023-03-19T00:00:00	2024-11-08T01:00:00	3	Temperatura mínima	16.2
25984	7	Sololá	710	Panajachel	8	Panajachel	3	Marzo	2023-03-19T00:00:00	2024-11-08T01:00:00	5	Humedad	94
25985	7	Sololá	710	Panajachel	8	Panajachel	3	Marzo	2023-03-19T00:00:00	2024-11-08T01:00:00	6	Velocidad del viento	0
25986	7	Sololá	710	Panajachel	8	Panajachel	3	Marzo	2023-03-19T00:00:00	2024-11-08T01:00:00	7	Dirección del viento	0
25987	7	Sololá	710	Panajachel	8	Panajachel	3	Marzo	2023-03-19T00:00:00	2024-11-08T01:00:00	1	Precipitación	0
25988	7	Sololá	710	Panajachel	8	Panajachel	3	Marzo	2023-03-19T00:00:00	2024-11-08T01:00:00	8	Radiación solar	0
25989	7	Sololá	710	Panajachel	8	Panajachel	3	Marzo	2023-03-19T00:00:00	2024-11-08T02:00:00	2	Temperatura media	16.4
25990	7	Sololá	710	Panajachel	8	Panajachel	3	Marzo	2023-03-19T00:00:00	2024-11-08T02:00:00	4	Temperatura máxima	16.5
25991	7	Sololá	710	Panajachel	8	Panajachel	3	Marzo	2023-03-19T00:00:00	2024-11-08T02:00:00	3	Temperatura mínima	16.1
25992	7	Sololá	710	Panajachel	8	Panajachel	3	Marzo	2023-03-19T00:00:00	2024-11-08T02:00:00	5	Humedad	92
25993	7	Sololá	710	Panajachel	8	Panajachel	3	Marzo	2023-03-19T00:00:00	2024-11-08T02:00:00	6	Velocidad del viento	0
25994	7	Sololá	710	Panajachel	8	Panajachel	3	Marzo	2023-03-19T00:00:00	2024-11-08T02:00:00	7	Dirección del viento	0
25995	7	Sololá	710	Panajachel	8	Panajachel	3	Marzo	2023-03-19T00:00:00	2024-11-08T02:00:00	1	Precipitación	0
25996	7	Sololá	710	Panajachel	8	Panajachel	3	Marzo	2023-03-19T00:00:00	2024-11-08T02:00:00	8	Radiación solar	0
25997	7	Sololá	710	Panajachel	8	Panajachel	3	Marzo	2023-03-19T00:00:00	2024-11-08T03:00:00	2	Temperatura media	16.4
25998	7	Sololá	710	Panajachel	8	Panajachel	3	Marzo	2023-03-19T00:00:00	2024-11-08T03:00:00	4	Temperatura máxima	16.7
25999	7	Sololá	710	Panajachel	8	Panajachel	3	Marzo	2023-03-19T00:00:00	2024-11-08T03:00:00	3	Temperatura mínima	16.4
26000	7	Sololá	710	Panajachel	8	Panajachel	3	Marzo	2023-03-19T00:00:00	2024-11-08T03:00:00	5	Humedad	92
26001	7	Sololá	710	Panajachel	8	Panajachel	3	Marzo	2023-03-19T00:00:00	2024-11-08T03:00:00	6	Velocidad del viento	0
26002	7	Sololá	710	Panajachel	8	Panajachel	3	Marzo	2023-03-19T00:00:00	2024-11-08T03:00:00	7	Dirección del viento	0
26003	7	Sololá	710	Panajachel	8	Panajachel	3	Marzo	2023-03-19T00:00:00	2024-11-08T03:00:00	1	Precipitación	0
26004	7	Sololá	710	Panajachel	8	Panajachel	3	Marzo	2023-03-19T00:00:00	2024-11-08T03:00:00	8	Radiación solar	0
26005	7	Sololá	710	Panajachel	8	Panajachel	3	Marzo	2023-03-19T00:00:00	2024-11-08T04:00:00	2	Temperatura media	16.2
26006	7	Sololá	710	Panajachel	8	Panajachel	3	Marzo	2023-03-19T00:00:00	2024-11-08T04:00:00	4	Temperatura máxima	16.5
26007	7	Sololá	710	Panajachel	8	Panajachel	3	Marzo	2023-03-19T00:00:00	2024-11-08T04:00:00	3	Temperatura mínima	16.1
26008	7	Sololá	710	Panajachel	8	Panajachel	3	Marzo	2023-03-19T00:00:00	2024-11-08T04:00:00	5	Humedad	92
26009	7	Sololá	710	Panajachel	8	Panajachel	3	Marzo	2023-03-19T00:00:00	2024-11-08T04:00:00	6	Velocidad del viento	1.6
26010	7	Sololá	710	Panajachel	8	Panajachel	3	Marzo	2023-03-19T00:00:00	2024-11-08T04:00:00	7	Dirección del viento	1.61
26011	7	Sololá	710	Panajachel	8	Panajachel	3	Marzo	2023-03-19T00:00:00	2024-11-08T04:00:00	1	Precipitación	0
26012	7	Sololá	710	Panajachel	8	Panajachel	3	Marzo	2023-03-19T00:00:00	2024-11-08T04:00:00	8	Radiación solar	0
26013	7	Sololá	710	Panajachel	8	Panajachel	3	Marzo	2023-03-19T00:00:00	2024-11-08T05:00:00	2	Temperatura media	16.3
26014	7	Sololá	710	Panajachel	8	Panajachel	3	Marzo	2023-03-19T00:00:00	2024-11-08T05:00:00	4	Temperatura máxima	16.4
26015	7	Sololá	710	Panajachel	8	Panajachel	3	Marzo	2023-03-19T00:00:00	2024-11-08T05:00:00	3	Temperatura mínima	16.1
26016	7	Sololá	710	Panajachel	8	Panajachel	3	Marzo	2023-03-19T00:00:00	2024-11-08T05:00:00	5	Humedad	90
26017	7	Sololá	710	Panajachel	8	Panajachel	3	Marzo	2023-03-19T00:00:00	2024-11-08T05:00:00	6	Velocidad del viento	1.6
26018	7	Sololá	710	Panajachel	8	Panajachel	3	Marzo	2023-03-19T00:00:00	2024-11-08T05:00:00	7	Dirección del viento	1.61
26019	7	Sololá	710	Panajachel	8	Panajachel	3	Marzo	2023-03-19T00:00:00	2024-11-08T05:00:00	1	Precipitación	0
26020	7	Sololá	710	Panajachel	8	Panajachel	3	Marzo	2023-03-19T00:00:00	2024-11-08T05:00:00	8	Radiación solar	0
26021	7	Sololá	710	Panajachel	8	Panajachel	3	Marzo	2023-03-19T00:00:00	2024-11-08T06:00:00	2	Temperatura media	15.6
26022	7	Sololá	710	Panajachel	8	Panajachel	3	Marzo	2023-03-19T00:00:00	2024-11-08T06:00:00	4	Temperatura máxima	16.3
26023	7	Sololá	710	Panajachel	8	Panajachel	3	Marzo	2023-03-19T00:00:00	2024-11-08T06:00:00	3	Temperatura mínima	15.6
26024	7	Sololá	710	Panajachel	8	Panajachel	3	Marzo	2023-03-19T00:00:00	2024-11-08T06:00:00	5	Humedad	89
26025	7	Sololá	710	Panajachel	8	Panajachel	3	Marzo	2023-03-19T00:00:00	2024-11-08T06:00:00	6	Velocidad del viento	3.2
26026	7	Sololá	710	Panajachel	8	Panajachel	3	Marzo	2023-03-19T00:00:00	2024-11-08T06:00:00	7	Dirección del viento	3.22
26027	7	Sololá	710	Panajachel	8	Panajachel	3	Marzo	2023-03-19T00:00:00	2024-11-08T06:00:00	1	Precipitación	0
26028	7	Sololá	710	Panajachel	8	Panajachel	3	Marzo	2023-03-19T00:00:00	2024-11-08T06:00:00	8	Radiación solar	0
26029	7	Sololá	710	Panajachel	8	Panajachel	3	Marzo	2023-03-19T00:00:00	2024-11-08T07:00:00	2	Temperatura media	15.8
26030	7	Sololá	710	Panajachel	8	Panajachel	3	Marzo	2023-03-19T00:00:00	2024-11-08T07:00:00	4	Temperatura máxima	15.8
26031	7	Sololá	710	Panajachel	8	Panajachel	3	Marzo	2023-03-19T00:00:00	2024-11-08T07:00:00	3	Temperatura mínima	15.4
26032	7	Sololá	710	Panajachel	8	Panajachel	3	Marzo	2023-03-19T00:00:00	2024-11-08T07:00:00	5	Humedad	87
26033	7	Sololá	710	Panajachel	8	Panajachel	3	Marzo	2023-03-19T00:00:00	2024-11-08T07:00:00	6	Velocidad del viento	3.2
26034	7	Sololá	710	Panajachel	8	Panajachel	3	Marzo	2023-03-19T00:00:00	2024-11-08T07:00:00	7	Dirección del viento	3.22
26035	7	Sololá	710	Panajachel	8	Panajachel	3	Marzo	2023-03-19T00:00:00	2024-11-08T07:00:00	1	Precipitación	0
26036	7	Sololá	710	Panajachel	8	Panajachel	3	Marzo	2023-03-19T00:00:00	2024-11-08T07:00:00	8	Radiación solar	25
26037	7	Sololá	710	Panajachel	8	Panajachel	3	Marzo	2023-03-19T00:00:00	2024-11-08T08:00:00	2	Temperatura media	19.3
26038	7	Sololá	710	Panajachel	8	Panajachel	3	Marzo	2023-03-19T00:00:00	2024-11-08T08:00:00	4	Temperatura máxima	19.3
26039	7	Sololá	710	Panajachel	8	Panajachel	3	Marzo	2023-03-19T00:00:00	2024-11-08T08:00:00	3	Temperatura mínima	15.7
26040	7	Sololá	710	Panajachel	8	Panajachel	3	Marzo	2023-03-19T00:00:00	2024-11-08T08:00:00	5	Humedad	80
26041	7	Sololá	710	Panajachel	8	Panajachel	3	Marzo	2023-03-19T00:00:00	2024-11-08T08:00:00	6	Velocidad del viento	1.6
26042	7	Sololá	710	Panajachel	8	Panajachel	3	Marzo	2023-03-19T00:00:00	2024-11-08T08:00:00	7	Dirección del viento	1.61
26043	7	Sololá	710	Panajachel	8	Panajachel	3	Marzo	2023-03-19T00:00:00	2024-11-08T08:00:00	1	Precipitación	0
26044	7	Sololá	710	Panajachel	8	Panajachel	3	Marzo	2023-03-19T00:00:00	2024-11-08T08:00:00	8	Radiación solar	238
26045	7	Sololá	710	Panajachel	8	Panajachel	3	Marzo	2023-03-19T00:00:00	2024-11-08T09:00:00	2	Temperatura media	20.4
26046	7	Sololá	710	Panajachel	8	Panajachel	3	Marzo	2023-03-19T00:00:00	2024-11-08T09:00:00	4	Temperatura máxima	20.6
26047	7	Sololá	710	Panajachel	8	Panajachel	3	Marzo	2023-03-19T00:00:00	2024-11-08T09:00:00	3	Temperatura mínima	19.3
26048	7	Sololá	710	Panajachel	8	Panajachel	3	Marzo	2023-03-19T00:00:00	2024-11-08T09:00:00	5	Humedad	80
26049	7	Sololá	710	Panajachel	8	Panajachel	3	Marzo	2023-03-19T00:00:00	2024-11-08T09:00:00	6	Velocidad del viento	1.6
26050	7	Sololá	710	Panajachel	8	Panajachel	3	Marzo	2023-03-19T00:00:00	2024-11-08T09:00:00	7	Dirección del viento	1.61
26051	7	Sololá	710	Panajachel	8	Panajachel	3	Marzo	2023-03-19T00:00:00	2024-11-08T09:00:00	1	Precipitación	0
26052	7	Sololá	710	Panajachel	8	Panajachel	3	Marzo	2023-03-19T00:00:00	2024-11-08T09:00:00	8	Radiación solar	465
26053	7	Sololá	710	Panajachel	8	Panajachel	3	Marzo	2023-03-19T00:00:00	2024-11-08T10:00:00	2	Temperatura media	20.6
26054	7	Sololá	710	Panajachel	8	Panajachel	3	Marzo	2023-03-19T00:00:00	2024-11-08T10:00:00	4	Temperatura máxima	20.7
26055	7	Sololá	710	Panajachel	8	Panajachel	3	Marzo	2023-03-19T00:00:00	2024-11-08T10:00:00	3	Temperatura mínima	19.9
26056	7	Sololá	710	Panajachel	8	Panajachel	3	Marzo	2023-03-19T00:00:00	2024-11-08T10:00:00	5	Humedad	77
26057	7	Sololá	710	Panajachel	8	Panajachel	3	Marzo	2023-03-19T00:00:00	2024-11-08T10:00:00	6	Velocidad del viento	3.2
26058	7	Sololá	710	Panajachel	8	Panajachel	3	Marzo	2023-03-19T00:00:00	2024-11-08T10:00:00	7	Dirección del viento	3.22
26059	7	Sololá	710	Panajachel	8	Panajachel	3	Marzo	2023-03-19T00:00:00	2024-11-08T10:00:00	1	Precipitación	0
26060	7	Sololá	710	Panajachel	8	Panajachel	3	Marzo	2023-03-19T00:00:00	2024-11-08T10:00:00	8	Radiación solar	677
26061	7	Sololá	710	Panajachel	8	Panajachel	3	Marzo	2023-03-19T00:00:00	2024-11-08T11:00:00	2	Temperatura media	21.4
26062	7	Sololá	710	Panajachel	8	Panajachel	3	Marzo	2023-03-19T00:00:00	2024-11-08T11:00:00	4	Temperatura máxima	22.4
26063	7	Sololá	710	Panajachel	8	Panajachel	3	Marzo	2023-03-19T00:00:00	2024-11-08T11:00:00	3	Temperatura mínima	20.5
26064	7	Sololá	710	Panajachel	8	Panajachel	3	Marzo	2023-03-19T00:00:00	2024-11-08T11:00:00	5	Humedad	74
26065	7	Sololá	710	Panajachel	8	Panajachel	3	Marzo	2023-03-19T00:00:00	2024-11-08T11:00:00	6	Velocidad del viento	3.2
26066	7	Sololá	710	Panajachel	8	Panajachel	3	Marzo	2023-03-19T00:00:00	2024-11-08T11:00:00	7	Dirección del viento	3.22
26067	7	Sololá	710	Panajachel	8	Panajachel	3	Marzo	2023-03-19T00:00:00	2024-11-08T11:00:00	1	Precipitación	0
26068	7	Sololá	710	Panajachel	8	Panajachel	3	Marzo	2023-03-19T00:00:00	2024-11-08T11:00:00	8	Radiación solar	835
26069	7	Sololá	710	Panajachel	8	Panajachel	3	Marzo	2023-03-19T00:00:00	2024-11-08T12:00:00	2	Temperatura media	22.2
26070	7	Sololá	710	Panajachel	8	Panajachel	3	Marzo	2023-03-19T00:00:00	2024-11-08T12:00:00	4	Temperatura máxima	22.2
26071	7	Sololá	710	Panajachel	8	Panajachel	3	Marzo	2023-03-19T00:00:00	2024-11-08T12:00:00	3	Temperatura mínima	21.3
26072	7	Sololá	710	Panajachel	8	Panajachel	3	Marzo	2023-03-19T00:00:00	2024-11-08T12:00:00	5	Humedad	77
26073	7	Sololá	710	Panajachel	8	Panajachel	3	Marzo	2023-03-19T00:00:00	2024-11-08T12:00:00	6	Velocidad del viento	4.8
26074	7	Sololá	710	Panajachel	8	Panajachel	3	Marzo	2023-03-19T00:00:00	2024-11-08T12:00:00	7	Dirección del viento	4.83
26075	7	Sololá	710	Panajachel	8	Panajachel	3	Marzo	2023-03-19T00:00:00	2024-11-08T12:00:00	1	Precipitación	0
26076	7	Sololá	710	Panajachel	8	Panajachel	3	Marzo	2023-03-19T00:00:00	2024-11-08T12:00:00	8	Radiación solar	968
26077	7	Sololá	710	Panajachel	8	Panajachel	3	Marzo	2023-03-19T00:00:00	2024-11-08T13:00:00	2	Temperatura media	23.4
26078	7	Sololá	710	Panajachel	8	Panajachel	3	Marzo	2023-03-19T00:00:00	2024-11-08T13:00:00	4	Temperatura máxima	23.4
26079	7	Sololá	710	Panajachel	8	Panajachel	3	Marzo	2023-03-19T00:00:00	2024-11-08T13:00:00	3	Temperatura mínima	22.2
26080	7	Sololá	710	Panajachel	8	Panajachel	3	Marzo	2023-03-19T00:00:00	2024-11-08T13:00:00	5	Humedad	75
26081	7	Sololá	710	Panajachel	8	Panajachel	3	Marzo	2023-03-19T00:00:00	2024-11-08T13:00:00	6	Velocidad del viento	4.8
26082	7	Sololá	710	Panajachel	8	Panajachel	3	Marzo	2023-03-19T00:00:00	2024-11-08T13:00:00	7	Dirección del viento	4.83
26083	7	Sololá	710	Panajachel	8	Panajachel	3	Marzo	2023-03-19T00:00:00	2024-11-08T13:00:00	1	Precipitación	0
26084	7	Sololá	710	Panajachel	8	Panajachel	3	Marzo	2023-03-19T00:00:00	2024-11-08T13:00:00	8	Radiación solar	839
26085	7	Sololá	710	Panajachel	8	Panajachel	3	Marzo	2023-03-19T00:00:00	2024-11-08T14:00:00	2	Temperatura media	20.4
26086	7	Sololá	710	Panajachel	8	Panajachel	3	Marzo	2023-03-19T00:00:00	2024-11-08T14:00:00	4	Temperatura máxima	23.3
26087	7	Sololá	710	Panajachel	8	Panajachel	3	Marzo	2023-03-19T00:00:00	2024-11-08T14:00:00	3	Temperatura mínima	20.4
26088	7	Sololá	710	Panajachel	8	Panajachel	3	Marzo	2023-03-19T00:00:00	2024-11-08T14:00:00	5	Humedad	87
26089	7	Sololá	710	Panajachel	8	Panajachel	3	Marzo	2023-03-19T00:00:00	2024-11-08T14:00:00	6	Velocidad del viento	11.3
26090	7	Sololá	710	Panajachel	8	Panajachel	3	Marzo	2023-03-19T00:00:00	2024-11-08T14:00:00	7	Dirección del viento	11.27
26091	7	Sololá	710	Panajachel	8	Panajachel	3	Marzo	2023-03-19T00:00:00	2024-11-08T14:00:00	1	Precipitación	0.2
26092	7	Sololá	710	Panajachel	8	Panajachel	3	Marzo	2023-03-19T00:00:00	2024-11-08T14:00:00	8	Radiación solar	167
26093	7	Sololá	710	Panajachel	8	Panajachel	3	Marzo	2023-03-19T00:00:00	2024-11-08T15:00:00	2	Temperatura media	20.6
26094	7	Sololá	710	Panajachel	8	Panajachel	3	Marzo	2023-03-19T00:00:00	2024-11-08T15:00:00	4	Temperatura máxima	21.8
26095	7	Sololá	710	Panajachel	8	Panajachel	3	Marzo	2023-03-19T00:00:00	2024-11-08T15:00:00	3	Temperatura mínima	20.3
26096	7	Sololá	710	Panajachel	8	Panajachel	3	Marzo	2023-03-19T00:00:00	2024-11-08T15:00:00	5	Humedad	83
26097	7	Sololá	710	Panajachel	8	Panajachel	3	Marzo	2023-03-19T00:00:00	2024-11-08T15:00:00	6	Velocidad del viento	9.7
26098	7	Sololá	710	Panajachel	8	Panajachel	3	Marzo	2023-03-19T00:00:00	2024-11-08T15:00:00	7	Dirección del viento	9.66
26099	7	Sololá	710	Panajachel	8	Panajachel	3	Marzo	2023-03-19T00:00:00	2024-11-08T15:00:00	1	Precipitación	0
26100	7	Sololá	710	Panajachel	8	Panajachel	3	Marzo	2023-03-19T00:00:00	2024-11-08T15:00:00	8	Radiación solar	467
26101	7	Sololá	710	Panajachel	8	Panajachel	3	Marzo	2023-03-19T00:00:00	2024-11-08T16:00:00	2	Temperatura media	18.3
26102	7	Sololá	710	Panajachel	8	Panajachel	3	Marzo	2023-03-19T00:00:00	2024-11-08T16:00:00	4	Temperatura máxima	20.6
26103	7	Sololá	710	Panajachel	8	Panajachel	3	Marzo	2023-03-19T00:00:00	2024-11-08T16:00:00	3	Temperatura mínima	18.3
26104	7	Sololá	710	Panajachel	8	Panajachel	3	Marzo	2023-03-19T00:00:00	2024-11-08T16:00:00	5	Humedad	92
26105	7	Sololá	710	Panajachel	8	Panajachel	3	Marzo	2023-03-19T00:00:00	2024-11-08T16:00:00	6	Velocidad del viento	6.4
26106	7	Sololá	710	Panajachel	8	Panajachel	3	Marzo	2023-03-19T00:00:00	2024-11-08T16:00:00	7	Dirección del viento	6.44
26107	7	Sololá	710	Panajachel	8	Panajachel	3	Marzo	2023-03-19T00:00:00	2024-11-08T16:00:00	1	Precipitación	2.4
26108	7	Sololá	710	Panajachel	8	Panajachel	3	Marzo	2023-03-19T00:00:00	2024-11-08T16:00:00	8	Radiación solar	36
26109	7	Sololá	710	Panajachel	8	Panajachel	3	Marzo	2023-03-19T00:00:00	2024-11-08T17:00:00	2	Temperatura media	18.6
26110	7	Sololá	710	Panajachel	8	Panajachel	3	Marzo	2023-03-19T00:00:00	2024-11-08T17:00:00	4	Temperatura máxima	18.6
26111	7	Sololá	710	Panajachel	8	Panajachel	3	Marzo	2023-03-19T00:00:00	2024-11-08T17:00:00	3	Temperatura mínima	18.3
26112	7	Sololá	710	Panajachel	8	Panajachel	3	Marzo	2023-03-19T00:00:00	2024-11-08T17:00:00	5	Humedad	93
26113	7	Sololá	710	Panajachel	8	Panajachel	3	Marzo	2023-03-19T00:00:00	2024-11-08T17:00:00	6	Velocidad del viento	1.6
26114	7	Sololá	710	Panajachel	8	Panajachel	3	Marzo	2023-03-19T00:00:00	2024-11-08T17:00:00	7	Dirección del viento	1.61
26115	7	Sololá	710	Panajachel	8	Panajachel	3	Marzo	2023-03-19T00:00:00	2024-11-08T17:00:00	1	Precipitación	0
26116	7	Sololá	710	Panajachel	8	Panajachel	3	Marzo	2023-03-19T00:00:00	2024-11-08T17:00:00	8	Radiación solar	68
26117	7	Sololá	710	Panajachel	8	Panajachel	3	Marzo	2023-03-19T00:00:00	2024-11-08T18:00:00	2	Temperatura media	18.5
26118	7	Sololá	710	Panajachel	8	Panajachel	3	Marzo	2023-03-19T00:00:00	2024-11-08T18:00:00	4	Temperatura máxima	18.8
26119	7	Sololá	710	Panajachel	8	Panajachel	3	Marzo	2023-03-19T00:00:00	2024-11-08T18:00:00	3	Temperatura mínima	18.4
26120	7	Sololá	710	Panajachel	8	Panajachel	3	Marzo	2023-03-19T00:00:00	2024-11-08T18:00:00	5	Humedad	92
26121	7	Sololá	710	Panajachel	8	Panajachel	3	Marzo	2023-03-19T00:00:00	2024-11-08T18:00:00	6	Velocidad del viento	0
26122	7	Sololá	710	Panajachel	8	Panajachel	3	Marzo	2023-03-19T00:00:00	2024-11-08T18:00:00	7	Dirección del viento	0
26123	7	Sololá	710	Panajachel	8	Panajachel	3	Marzo	2023-03-19T00:00:00	2024-11-08T18:00:00	1	Precipitación	0
26124	7	Sololá	710	Panajachel	8	Panajachel	3	Marzo	2023-03-19T00:00:00	2024-11-08T18:00:00	8	Radiación solar	47
26125	7	Sololá	710	Panajachel	8	Panajachel	3	Marzo	2023-03-19T00:00:00	2024-11-08T19:00:00	2	Temperatura media	17.7
26126	7	Sololá	710	Panajachel	8	Panajachel	3	Marzo	2023-03-19T00:00:00	2024-11-08T19:00:00	4	Temperatura máxima	18.5
26127	7	Sololá	710	Panajachel	8	Panajachel	3	Marzo	2023-03-19T00:00:00	2024-11-08T19:00:00	3	Temperatura mínima	17.7
26128	7	Sololá	710	Panajachel	8	Panajachel	3	Marzo	2023-03-19T00:00:00	2024-11-08T19:00:00	5	Humedad	92
26129	7	Sololá	710	Panajachel	8	Panajachel	3	Marzo	2023-03-19T00:00:00	2024-11-08T19:00:00	6	Velocidad del viento	1.6
26130	7	Sololá	710	Panajachel	8	Panajachel	3	Marzo	2023-03-19T00:00:00	2024-11-08T19:00:00	7	Dirección del viento	1.61
26131	7	Sololá	710	Panajachel	8	Panajachel	3	Marzo	2023-03-19T00:00:00	2024-11-08T19:00:00	1	Precipitación	0.2
26132	7	Sololá	710	Panajachel	8	Panajachel	3	Marzo	2023-03-19T00:00:00	2024-11-08T19:00:00	8	Radiación solar	0
26133	7	Sololá	710	Panajachel	8	Panajachel	3	Marzo	2023-03-19T00:00:00	2024-11-08T20:00:00	2	Temperatura media	17.7
26134	7	Sololá	710	Panajachel	8	Panajachel	3	Marzo	2023-03-19T00:00:00	2024-11-08T20:00:00	4	Temperatura máxima	17.8
26135	7	Sololá	710	Panajachel	8	Panajachel	3	Marzo	2023-03-19T00:00:00	2024-11-08T20:00:00	3	Temperatura mínima	17.4
26136	7	Sololá	710	Panajachel	8	Panajachel	3	Marzo	2023-03-19T00:00:00	2024-11-08T20:00:00	5	Humedad	84
26137	7	Sololá	710	Panajachel	8	Panajachel	3	Marzo	2023-03-19T00:00:00	2024-11-08T20:00:00	6	Velocidad del viento	3.2
26138	7	Sololá	710	Panajachel	8	Panajachel	3	Marzo	2023-03-19T00:00:00	2024-11-08T20:00:00	7	Dirección del viento	3.22
26139	7	Sololá	710	Panajachel	8	Panajachel	3	Marzo	2023-03-19T00:00:00	2024-11-08T20:00:00	1	Precipitación	0
26140	7	Sololá	710	Panajachel	8	Panajachel	3	Marzo	2023-03-19T00:00:00	2024-11-08T20:00:00	8	Radiación solar	0
26141	7	Sololá	710	Panajachel	8	Panajachel	3	Marzo	2023-03-19T00:00:00	2024-11-08T21:00:00	2	Temperatura media	17.8
26142	7	Sololá	710	Panajachel	8	Panajachel	3	Marzo	2023-03-19T00:00:00	2024-11-08T21:00:00	4	Temperatura máxima	19.4
26143	7	Sololá	710	Panajachel	8	Panajachel	3	Marzo	2023-03-19T00:00:00	2024-11-08T21:00:00	3	Temperatura mínima	17.7
26144	7	Sololá	710	Panajachel	8	Panajachel	3	Marzo	2023-03-19T00:00:00	2024-11-08T21:00:00	5	Humedad	83
26145	7	Sololá	710	Panajachel	8	Panajachel	3	Marzo	2023-03-19T00:00:00	2024-11-08T21:00:00	6	Velocidad del viento	6.4
26146	7	Sololá	710	Panajachel	8	Panajachel	3	Marzo	2023-03-19T00:00:00	2024-11-08T21:00:00	7	Dirección del viento	6.44
26147	7	Sololá	710	Panajachel	8	Panajachel	3	Marzo	2023-03-19T00:00:00	2024-11-08T21:00:00	1	Precipitación	0
26148	7	Sololá	710	Panajachel	8	Panajachel	3	Marzo	2023-03-19T00:00:00	2024-11-08T21:00:00	8	Radiación solar	0
26149	7	Sololá	710	Panajachel	8	Panajachel	3	Marzo	2023-03-19T00:00:00	2024-11-08T22:00:00	2	Temperatura media	18.3
26150	7	Sololá	710	Panajachel	8	Panajachel	3	Marzo	2023-03-19T00:00:00	2024-11-08T22:00:00	4	Temperatura máxima	19.3
26151	7	Sololá	710	Panajachel	8	Panajachel	3	Marzo	2023-03-19T00:00:00	2024-11-08T22:00:00	3	Temperatura mínima	17.9
26152	7	Sololá	710	Panajachel	8	Panajachel	3	Marzo	2023-03-19T00:00:00	2024-11-08T22:00:00	5	Humedad	80
26153	7	Sololá	710	Panajachel	8	Panajachel	3	Marzo	2023-03-19T00:00:00	2024-11-08T22:00:00	6	Velocidad del viento	3.2
26154	7	Sololá	710	Panajachel	8	Panajachel	3	Marzo	2023-03-19T00:00:00	2024-11-08T22:00:00	7	Dirección del viento	3.22
26155	7	Sololá	710	Panajachel	8	Panajachel	3	Marzo	2023-03-19T00:00:00	2024-11-08T22:00:00	1	Precipitación	0
26156	7	Sololá	710	Panajachel	8	Panajachel	3	Marzo	2023-03-19T00:00:00	2024-11-08T22:00:00	8	Radiación solar	0
26157	7	Sololá	710	Panajachel	8	Panajachel	3	Marzo	2023-03-19T00:00:00	2024-11-08T23:00:00	2	Temperatura media	17.7
26158	7	Sololá	710	Panajachel	8	Panajachel	3	Marzo	2023-03-19T00:00:00	2024-11-08T23:00:00	4	Temperatura máxima	18.7
26159	7	Sololá	710	Panajachel	8	Panajachel	3	Marzo	2023-03-19T00:00:00	2024-11-08T23:00:00	3	Temperatura mínima	17.6
26160	7	Sololá	710	Panajachel	8	Panajachel	3	Marzo	2023-03-19T00:00:00	2024-11-08T23:00:00	5	Humedad	80
26161	7	Sololá	710	Panajachel	8	Panajachel	3	Marzo	2023-03-19T00:00:00	2024-11-08T23:00:00	6	Velocidad del viento	1.6
26162	7	Sololá	710	Panajachel	8	Panajachel	3	Marzo	2023-03-19T00:00:00	2024-11-08T23:00:00	7	Dirección del viento	1.61
26163	7	Sololá	710	Panajachel	8	Panajachel	3	Marzo	2023-03-19T00:00:00	2024-11-08T23:00:00	1	Precipitación	0
26164	7	Sololá	710	Panajachel	8	Panajachel	3	Marzo	2023-03-19T00:00:00	2024-11-08T23:00:00	8	Radiación solar	0
26165	7	Sololá	710	Panajachel	8	Panajachel	3	Marzo	2023-03-20T00:00:00	2024-11-08T00:00:00	2	Temperatura media	18.8
26166	7	Sololá	710	Panajachel	8	Panajachel	3	Marzo	2023-03-20T00:00:00	2024-11-08T00:00:00	4	Temperatura máxima	19.2
26167	7	Sololá	710	Panajachel	8	Panajachel	3	Marzo	2023-03-20T00:00:00	2024-11-08T00:00:00	3	Temperatura mínima	17.7
26168	7	Sololá	710	Panajachel	8	Panajachel	3	Marzo	2023-03-20T00:00:00	2024-11-08T00:00:00	5	Humedad	74
26169	7	Sololá	710	Panajachel	8	Panajachel	3	Marzo	2023-03-20T00:00:00	2024-11-08T00:00:00	6	Velocidad del viento	6.4
26170	7	Sololá	710	Panajachel	8	Panajachel	3	Marzo	2023-03-20T00:00:00	2024-11-08T00:00:00	7	Dirección del viento	6.44
26171	7	Sololá	710	Panajachel	8	Panajachel	3	Marzo	2023-03-20T00:00:00	2024-11-08T00:00:00	1	Precipitación	0
26172	7	Sololá	710	Panajachel	8	Panajachel	3	Marzo	2023-03-20T00:00:00	2024-11-08T00:00:00	8	Radiación solar	0
26173	7	Sololá	710	Panajachel	8	Panajachel	3	Marzo	2023-03-20T00:00:00	2024-11-08T01:00:00	2	Temperatura media	18.7
26174	7	Sololá	710	Panajachel	8	Panajachel	3	Marzo	2023-03-20T00:00:00	2024-11-08T01:00:00	4	Temperatura máxima	19
26175	7	Sololá	710	Panajachel	8	Panajachel	3	Marzo	2023-03-20T00:00:00	2024-11-08T01:00:00	3	Temperatura mínima	18.7
26176	7	Sololá	710	Panajachel	8	Panajachel	3	Marzo	2023-03-20T00:00:00	2024-11-08T01:00:00	5	Humedad	75
26177	7	Sololá	710	Panajachel	8	Panajachel	3	Marzo	2023-03-20T00:00:00	2024-11-08T01:00:00	6	Velocidad del viento	4.8
26178	7	Sololá	710	Panajachel	8	Panajachel	3	Marzo	2023-03-20T00:00:00	2024-11-08T01:00:00	7	Dirección del viento	4.83
26179	7	Sololá	710	Panajachel	8	Panajachel	3	Marzo	2023-03-20T00:00:00	2024-11-08T01:00:00	1	Precipitación	0
26180	7	Sololá	710	Panajachel	8	Panajachel	3	Marzo	2023-03-20T00:00:00	2024-11-08T01:00:00	8	Radiación solar	0
26181	7	Sololá	710	Panajachel	8	Panajachel	3	Marzo	2023-03-20T00:00:00	2024-11-08T02:00:00	2	Temperatura media	18.3
26182	7	Sololá	710	Panajachel	8	Panajachel	3	Marzo	2023-03-20T00:00:00	2024-11-08T02:00:00	4	Temperatura máxima	18.7
26183	7	Sololá	710	Panajachel	8	Panajachel	3	Marzo	2023-03-20T00:00:00	2024-11-08T02:00:00	3	Temperatura mínima	18
26184	7	Sololá	710	Panajachel	8	Panajachel	3	Marzo	2023-03-20T00:00:00	2024-11-08T02:00:00	5	Humedad	80
26185	7	Sololá	710	Panajachel	8	Panajachel	3	Marzo	2023-03-20T00:00:00	2024-11-08T02:00:00	6	Velocidad del viento	3.2
26186	7	Sololá	710	Panajachel	8	Panajachel	3	Marzo	2023-03-20T00:00:00	2024-11-08T02:00:00	7	Dirección del viento	3.22
26187	7	Sololá	710	Panajachel	8	Panajachel	3	Marzo	2023-03-20T00:00:00	2024-11-08T02:00:00	1	Precipitación	0
26188	7	Sololá	710	Panajachel	8	Panajachel	3	Marzo	2023-03-20T00:00:00	2024-11-08T02:00:00	8	Radiación solar	0
26189	7	Sololá	710	Panajachel	8	Panajachel	3	Marzo	2023-03-20T00:00:00	2024-11-08T03:00:00	2	Temperatura media	18.3
26190	7	Sololá	710	Panajachel	8	Panajachel	3	Marzo	2023-03-20T00:00:00	2024-11-08T03:00:00	4	Temperatura máxima	18.4
26191	7	Sololá	710	Panajachel	8	Panajachel	3	Marzo	2023-03-20T00:00:00	2024-11-08T03:00:00	3	Temperatura mínima	17.6
26192	7	Sololá	710	Panajachel	8	Panajachel	3	Marzo	2023-03-20T00:00:00	2024-11-08T03:00:00	5	Humedad	73
26193	7	Sololá	710	Panajachel	8	Panajachel	3	Marzo	2023-03-20T00:00:00	2024-11-08T03:00:00	6	Velocidad del viento	3.2
26194	7	Sololá	710	Panajachel	8	Panajachel	3	Marzo	2023-03-20T00:00:00	2024-11-08T03:00:00	7	Dirección del viento	3.22
26195	7	Sololá	710	Panajachel	8	Panajachel	3	Marzo	2023-03-20T00:00:00	2024-11-08T03:00:00	1	Precipitación	0
26196	7	Sololá	710	Panajachel	8	Panajachel	3	Marzo	2023-03-20T00:00:00	2024-11-08T03:00:00	8	Radiación solar	0
26197	7	Sololá	710	Panajachel	8	Panajachel	3	Marzo	2023-03-20T00:00:00	2024-11-08T04:00:00	2	Temperatura media	17.4
26198	7	Sololá	710	Panajachel	8	Panajachel	3	Marzo	2023-03-20T00:00:00	2024-11-08T04:00:00	4	Temperatura máxima	18.3
26199	7	Sololá	710	Panajachel	8	Panajachel	3	Marzo	2023-03-20T00:00:00	2024-11-08T04:00:00	3	Temperatura mínima	17.4
26200	7	Sololá	710	Panajachel	8	Panajachel	3	Marzo	2023-03-20T00:00:00	2024-11-08T04:00:00	5	Humedad	78
26201	7	Sololá	710	Panajachel	8	Panajachel	3	Marzo	2023-03-20T00:00:00	2024-11-08T04:00:00	6	Velocidad del viento	1.6
26202	7	Sololá	710	Panajachel	8	Panajachel	3	Marzo	2023-03-20T00:00:00	2024-11-08T04:00:00	7	Dirección del viento	1.61
26203	7	Sololá	710	Panajachel	8	Panajachel	3	Marzo	2023-03-20T00:00:00	2024-11-08T04:00:00	1	Precipitación	0
26204	7	Sololá	710	Panajachel	8	Panajachel	3	Marzo	2023-03-20T00:00:00	2024-11-08T04:00:00	8	Radiación solar	0
26205	7	Sololá	710	Panajachel	8	Panajachel	3	Marzo	2023-03-20T00:00:00	2024-11-08T05:00:00	2	Temperatura media	17.5
26206	7	Sololá	710	Panajachel	8	Panajachel	3	Marzo	2023-03-20T00:00:00	2024-11-08T05:00:00	4	Temperatura máxima	17.6
26207	7	Sololá	710	Panajachel	8	Panajachel	3	Marzo	2023-03-20T00:00:00	2024-11-08T05:00:00	3	Temperatura mínima	17.1
26208	7	Sololá	710	Panajachel	8	Panajachel	3	Marzo	2023-03-20T00:00:00	2024-11-08T05:00:00	5	Humedad	79
26209	7	Sololá	710	Panajachel	8	Panajachel	3	Marzo	2023-03-20T00:00:00	2024-11-08T05:00:00	6	Velocidad del viento	1.6
26210	7	Sololá	710	Panajachel	8	Panajachel	3	Marzo	2023-03-20T00:00:00	2024-11-08T05:00:00	7	Dirección del viento	1.61
26211	7	Sololá	710	Panajachel	8	Panajachel	3	Marzo	2023-03-20T00:00:00	2024-11-08T05:00:00	1	Precipitación	0
26212	7	Sololá	710	Panajachel	8	Panajachel	3	Marzo	2023-03-20T00:00:00	2024-11-08T05:00:00	8	Radiación solar	0
26213	7	Sololá	710	Panajachel	8	Panajachel	3	Marzo	2023-03-20T00:00:00	2024-11-08T06:00:00	2	Temperatura media	17.1
26214	7	Sololá	710	Panajachel	8	Panajachel	3	Marzo	2023-03-20T00:00:00	2024-11-08T06:00:00	4	Temperatura máxima	17.5
26215	7	Sololá	710	Panajachel	8	Panajachel	3	Marzo	2023-03-20T00:00:00	2024-11-08T06:00:00	3	Temperatura mínima	16.8
26216	7	Sololá	710	Panajachel	8	Panajachel	3	Marzo	2023-03-20T00:00:00	2024-11-08T06:00:00	5	Humedad	78
26217	7	Sololá	710	Panajachel	8	Panajachel	3	Marzo	2023-03-20T00:00:00	2024-11-08T06:00:00	6	Velocidad del viento	1.6
26218	7	Sololá	710	Panajachel	8	Panajachel	3	Marzo	2023-03-20T00:00:00	2024-11-08T06:00:00	7	Dirección del viento	1.61
26219	7	Sololá	710	Panajachel	8	Panajachel	3	Marzo	2023-03-20T00:00:00	2024-11-08T06:00:00	1	Precipitación	0
26220	7	Sololá	710	Panajachel	8	Panajachel	3	Marzo	2023-03-20T00:00:00	2024-11-08T06:00:00	8	Radiación solar	0
26221	7	Sololá	710	Panajachel	8	Panajachel	3	Marzo	2023-03-20T00:00:00	2024-11-08T07:00:00	2	Temperatura media	18.7
26222	7	Sololá	710	Panajachel	8	Panajachel	3	Marzo	2023-03-20T00:00:00	2024-11-08T07:00:00	4	Temperatura máxima	18.8
26223	7	Sololá	710	Panajachel	8	Panajachel	3	Marzo	2023-03-20T00:00:00	2024-11-08T07:00:00	3	Temperatura mínima	17.1
26224	7	Sololá	710	Panajachel	8	Panajachel	3	Marzo	2023-03-20T00:00:00	2024-11-08T07:00:00	5	Humedad	70
26225	7	Sololá	710	Panajachel	8	Panajachel	3	Marzo	2023-03-20T00:00:00	2024-11-08T07:00:00	6	Velocidad del viento	4.8
26226	7	Sololá	710	Panajachel	8	Panajachel	3	Marzo	2023-03-20T00:00:00	2024-11-08T07:00:00	7	Dirección del viento	4.83
26227	7	Sololá	710	Panajachel	8	Panajachel	3	Marzo	2023-03-20T00:00:00	2024-11-08T07:00:00	1	Precipitación	0
26228	7	Sololá	710	Panajachel	8	Panajachel	3	Marzo	2023-03-20T00:00:00	2024-11-08T07:00:00	8	Radiación solar	14
26229	7	Sololá	710	Panajachel	8	Panajachel	3	Marzo	2023-03-20T00:00:00	2024-11-08T08:00:00	2	Temperatura media	20.7
26230	7	Sololá	710	Panajachel	8	Panajachel	3	Marzo	2023-03-20T00:00:00	2024-11-08T08:00:00	4	Temperatura máxima	20.8
26231	7	Sololá	710	Panajachel	8	Panajachel	3	Marzo	2023-03-20T00:00:00	2024-11-08T08:00:00	3	Temperatura mínima	18.7
26232	7	Sololá	710	Panajachel	8	Panajachel	3	Marzo	2023-03-20T00:00:00	2024-11-08T08:00:00	5	Humedad	65
26233	7	Sololá	710	Panajachel	8	Panajachel	3	Marzo	2023-03-20T00:00:00	2024-11-08T08:00:00	6	Velocidad del viento	6.4
26234	7	Sololá	710	Panajachel	8	Panajachel	3	Marzo	2023-03-20T00:00:00	2024-11-08T08:00:00	7	Dirección del viento	6.44
26235	7	Sololá	710	Panajachel	8	Panajachel	3	Marzo	2023-03-20T00:00:00	2024-11-08T08:00:00	1	Precipitación	0
26236	7	Sololá	710	Panajachel	8	Panajachel	3	Marzo	2023-03-20T00:00:00	2024-11-08T08:00:00	8	Radiación solar	265
26237	7	Sololá	710	Panajachel	8	Panajachel	3	Marzo	2023-03-20T00:00:00	2024-11-08T09:00:00	2	Temperatura media	21.8
26238	7	Sololá	710	Panajachel	8	Panajachel	3	Marzo	2023-03-20T00:00:00	2024-11-08T09:00:00	4	Temperatura máxima	21.8
26239	7	Sololá	710	Panajachel	8	Panajachel	3	Marzo	2023-03-20T00:00:00	2024-11-08T09:00:00	3	Temperatura mínima	20.7
26240	7	Sololá	710	Panajachel	8	Panajachel	3	Marzo	2023-03-20T00:00:00	2024-11-08T09:00:00	5	Humedad	63
26241	7	Sololá	710	Panajachel	8	Panajachel	3	Marzo	2023-03-20T00:00:00	2024-11-08T09:00:00	6	Velocidad del viento	8
26242	7	Sololá	710	Panajachel	8	Panajachel	3	Marzo	2023-03-20T00:00:00	2024-11-08T09:00:00	7	Dirección del viento	8.05
26243	7	Sololá	710	Panajachel	8	Panajachel	3	Marzo	2023-03-20T00:00:00	2024-11-08T09:00:00	1	Precipitación	0
26244	7	Sololá	710	Panajachel	8	Panajachel	3	Marzo	2023-03-20T00:00:00	2024-11-08T09:00:00	8	Radiación solar	506
26245	7	Sololá	710	Panajachel	8	Panajachel	3	Marzo	2023-03-20T00:00:00	2024-11-08T10:00:00	2	Temperatura media	22.6
26246	7	Sololá	710	Panajachel	8	Panajachel	3	Marzo	2023-03-20T00:00:00	2024-11-08T10:00:00	4	Temperatura máxima	22.7
26247	7	Sololá	710	Panajachel	8	Panajachel	3	Marzo	2023-03-20T00:00:00	2024-11-08T10:00:00	3	Temperatura mínima	21.6
26248	7	Sololá	710	Panajachel	8	Panajachel	3	Marzo	2023-03-20T00:00:00	2024-11-08T10:00:00	5	Humedad	61
26249	7	Sololá	710	Panajachel	8	Panajachel	3	Marzo	2023-03-20T00:00:00	2024-11-08T10:00:00	6	Velocidad del viento	11.3
26250	7	Sololá	710	Panajachel	8	Panajachel	3	Marzo	2023-03-20T00:00:00	2024-11-08T10:00:00	7	Dirección del viento	11.27
26251	7	Sololá	710	Panajachel	8	Panajachel	3	Marzo	2023-03-20T00:00:00	2024-11-08T10:00:00	1	Precipitación	0
26252	7	Sololá	710	Panajachel	8	Panajachel	3	Marzo	2023-03-20T00:00:00	2024-11-08T10:00:00	8	Radiación solar	712
26253	7	Sololá	710	Panajachel	8	Panajachel	3	Marzo	2023-03-20T00:00:00	2024-11-08T11:00:00	2	Temperatura media	24
26254	7	Sololá	710	Panajachel	8	Panajachel	3	Marzo	2023-03-20T00:00:00	2024-11-08T11:00:00	4	Temperatura máxima	24
26255	7	Sololá	710	Panajachel	8	Panajachel	3	Marzo	2023-03-20T00:00:00	2024-11-08T11:00:00	3	Temperatura mínima	22.4
26256	7	Sololá	710	Panajachel	8	Panajachel	3	Marzo	2023-03-20T00:00:00	2024-11-08T11:00:00	5	Humedad	58
26257	7	Sololá	710	Panajachel	8	Panajachel	3	Marzo	2023-03-20T00:00:00	2024-11-08T11:00:00	6	Velocidad del viento	12.9
26258	7	Sololá	710	Panajachel	8	Panajachel	3	Marzo	2023-03-20T00:00:00	2024-11-08T11:00:00	7	Dirección del viento	12.87
26259	7	Sololá	710	Panajachel	8	Panajachel	3	Marzo	2023-03-20T00:00:00	2024-11-08T11:00:00	1	Precipitación	0
26260	7	Sololá	710	Panajachel	8	Panajachel	3	Marzo	2023-03-20T00:00:00	2024-11-08T11:00:00	8	Radiación solar	861
26261	7	Sololá	710	Panajachel	8	Panajachel	3	Marzo	2023-03-20T00:00:00	2024-11-08T12:00:00	2	Temperatura media	25
26262	7	Sololá	710	Panajachel	8	Panajachel	3	Marzo	2023-03-20T00:00:00	2024-11-08T12:00:00	4	Temperatura máxima	25
26263	7	Sololá	710	Panajachel	8	Panajachel	3	Marzo	2023-03-20T00:00:00	2024-11-08T12:00:00	3	Temperatura mínima	23.9
26264	7	Sololá	710	Panajachel	8	Panajachel	3	Marzo	2023-03-20T00:00:00	2024-11-08T12:00:00	5	Humedad	55
26265	7	Sololá	710	Panajachel	8	Panajachel	3	Marzo	2023-03-20T00:00:00	2024-11-08T12:00:00	6	Velocidad del viento	11.3
26266	7	Sololá	710	Panajachel	8	Panajachel	3	Marzo	2023-03-20T00:00:00	2024-11-08T12:00:00	7	Dirección del viento	11.27
26267	7	Sololá	710	Panajachel	8	Panajachel	3	Marzo	2023-03-20T00:00:00	2024-11-08T12:00:00	1	Precipitación	0
26268	7	Sololá	710	Panajachel	8	Panajachel	3	Marzo	2023-03-20T00:00:00	2024-11-08T12:00:00	8	Radiación solar	943
26269	7	Sololá	710	Panajachel	8	Panajachel	3	Marzo	2023-03-20T00:00:00	2024-11-08T13:00:00	2	Temperatura media	26.2
26270	7	Sololá	710	Panajachel	8	Panajachel	3	Marzo	2023-03-20T00:00:00	2024-11-08T13:00:00	4	Temperatura máxima	26.2
26271	7	Sololá	710	Panajachel	8	Panajachel	3	Marzo	2023-03-20T00:00:00	2024-11-08T13:00:00	3	Temperatura mínima	24.8
26272	7	Sololá	710	Panajachel	8	Panajachel	3	Marzo	2023-03-20T00:00:00	2024-11-08T13:00:00	5	Humedad	52
26273	7	Sololá	710	Panajachel	8	Panajachel	3	Marzo	2023-03-20T00:00:00	2024-11-08T13:00:00	6	Velocidad del viento	9.7
26274	7	Sololá	710	Panajachel	8	Panajachel	3	Marzo	2023-03-20T00:00:00	2024-11-08T13:00:00	7	Dirección del viento	9.66
26275	7	Sololá	710	Panajachel	8	Panajachel	3	Marzo	2023-03-20T00:00:00	2024-11-08T13:00:00	1	Precipitación	0
26276	7	Sololá	710	Panajachel	8	Panajachel	3	Marzo	2023-03-20T00:00:00	2024-11-08T13:00:00	8	Radiación solar	973
26277	7	Sololá	710	Panajachel	8	Panajachel	3	Marzo	2023-03-20T00:00:00	2024-11-08T14:00:00	2	Temperatura media	26.4
26278	7	Sololá	710	Panajachel	8	Panajachel	3	Marzo	2023-03-20T00:00:00	2024-11-08T14:00:00	4	Temperatura máxima	26.6
26279	7	Sololá	710	Panajachel	8	Panajachel	3	Marzo	2023-03-20T00:00:00	2024-11-08T14:00:00	3	Temperatura mínima	25.8
26280	7	Sololá	710	Panajachel	8	Panajachel	3	Marzo	2023-03-20T00:00:00	2024-11-08T14:00:00	5	Humedad	49
26281	7	Sololá	710	Panajachel	8	Panajachel	3	Marzo	2023-03-20T00:00:00	2024-11-08T14:00:00	6	Velocidad del viento	9.7
26282	7	Sololá	710	Panajachel	8	Panajachel	3	Marzo	2023-03-20T00:00:00	2024-11-08T14:00:00	7	Dirección del viento	9.66
26283	7	Sololá	710	Panajachel	8	Panajachel	3	Marzo	2023-03-20T00:00:00	2024-11-08T14:00:00	1	Precipitación	0
26284	7	Sololá	710	Panajachel	8	Panajachel	3	Marzo	2023-03-20T00:00:00	2024-11-08T14:00:00	8	Radiación solar	948
26285	7	Sololá	710	Panajachel	8	Panajachel	3	Marzo	2023-03-20T00:00:00	2024-11-08T15:00:00	2	Temperatura media	24.7
26286	7	Sololá	710	Panajachel	8	Panajachel	3	Marzo	2023-03-20T00:00:00	2024-11-08T15:00:00	4	Temperatura máxima	26.6
26287	7	Sololá	710	Panajachel	8	Panajachel	3	Marzo	2023-03-20T00:00:00	2024-11-08T15:00:00	3	Temperatura mínima	24.7
26288	7	Sololá	710	Panajachel	8	Panajachel	3	Marzo	2023-03-20T00:00:00	2024-11-08T15:00:00	5	Humedad	68
26289	7	Sololá	710	Panajachel	8	Panajachel	3	Marzo	2023-03-20T00:00:00	2024-11-08T15:00:00	6	Velocidad del viento	6.4
26290	7	Sololá	710	Panajachel	8	Panajachel	3	Marzo	2023-03-20T00:00:00	2024-11-08T15:00:00	7	Dirección del viento	6.44
26291	7	Sololá	710	Panajachel	8	Panajachel	3	Marzo	2023-03-20T00:00:00	2024-11-08T15:00:00	1	Precipitación	0
26292	7	Sololá	710	Panajachel	8	Panajachel	3	Marzo	2023-03-20T00:00:00	2024-11-08T15:00:00	8	Radiación solar	720
26293	7	Sololá	710	Panajachel	8	Panajachel	3	Marzo	2023-03-20T00:00:00	2024-11-08T16:00:00	2	Temperatura media	22.3
26294	7	Sololá	710	Panajachel	8	Panajachel	3	Marzo	2023-03-20T00:00:00	2024-11-08T16:00:00	4	Temperatura máxima	24.6
26295	7	Sololá	710	Panajachel	8	Panajachel	3	Marzo	2023-03-20T00:00:00	2024-11-08T16:00:00	3	Temperatura mínima	22.3
26296	7	Sololá	710	Panajachel	8	Panajachel	3	Marzo	2023-03-20T00:00:00	2024-11-08T16:00:00	5	Humedad	78
26297	7	Sololá	710	Panajachel	8	Panajachel	3	Marzo	2023-03-20T00:00:00	2024-11-08T16:00:00	6	Velocidad del viento	3.2
26298	7	Sololá	710	Panajachel	8	Panajachel	3	Marzo	2023-03-20T00:00:00	2024-11-08T16:00:00	7	Dirección del viento	3.22
26299	7	Sololá	710	Panajachel	8	Panajachel	3	Marzo	2023-03-20T00:00:00	2024-11-08T16:00:00	1	Precipitación	0
26300	7	Sololá	710	Panajachel	8	Panajachel	3	Marzo	2023-03-20T00:00:00	2024-11-08T16:00:00	8	Radiación solar	185
26301	7	Sololá	710	Panajachel	8	Panajachel	3	Marzo	2023-03-20T00:00:00	2024-11-08T17:00:00	2	Temperatura media	21.9
26302	7	Sololá	710	Panajachel	8	Panajachel	3	Marzo	2023-03-20T00:00:00	2024-11-08T17:00:00	4	Temperatura máxima	22.8
26303	7	Sololá	710	Panajachel	8	Panajachel	3	Marzo	2023-03-20T00:00:00	2024-11-08T17:00:00	3	Temperatura mínima	21.8
26304	7	Sololá	710	Panajachel	8	Panajachel	3	Marzo	2023-03-20T00:00:00	2024-11-08T17:00:00	5	Humedad	63
26305	7	Sololá	710	Panajachel	8	Panajachel	3	Marzo	2023-03-20T00:00:00	2024-11-08T17:00:00	6	Velocidad del viento	6.4
26306	7	Sololá	710	Panajachel	8	Panajachel	3	Marzo	2023-03-20T00:00:00	2024-11-08T17:00:00	7	Dirección del viento	6.44
26307	7	Sololá	710	Panajachel	8	Panajachel	3	Marzo	2023-03-20T00:00:00	2024-11-08T17:00:00	1	Precipitación	0
26308	7	Sololá	710	Panajachel	8	Panajachel	3	Marzo	2023-03-20T00:00:00	2024-11-08T17:00:00	8	Radiación solar	20
26309	7	Sololá	710	Panajachel	8	Panajachel	3	Marzo	2023-03-20T00:00:00	2024-11-08T18:00:00	2	Temperatura media	21
26310	7	Sololá	710	Panajachel	8	Panajachel	3	Marzo	2023-03-20T00:00:00	2024-11-08T18:00:00	4	Temperatura máxima	21.8
26311	7	Sololá	710	Panajachel	8	Panajachel	3	Marzo	2023-03-20T00:00:00	2024-11-08T18:00:00	3	Temperatura mínima	21
26312	7	Sololá	710	Panajachel	8	Panajachel	3	Marzo	2023-03-20T00:00:00	2024-11-08T18:00:00	5	Humedad	65
26313	7	Sololá	710	Panajachel	8	Panajachel	3	Marzo	2023-03-20T00:00:00	2024-11-08T18:00:00	6	Velocidad del viento	4.8
26314	7	Sololá	710	Panajachel	8	Panajachel	3	Marzo	2023-03-20T00:00:00	2024-11-08T18:00:00	7	Dirección del viento	4.83
26315	7	Sololá	710	Panajachel	8	Panajachel	3	Marzo	2023-03-20T00:00:00	2024-11-08T18:00:00	1	Precipitación	0
26316	7	Sololá	710	Panajachel	8	Panajachel	3	Marzo	2023-03-20T00:00:00	2024-11-08T18:00:00	8	Radiación solar	11
26317	7	Sololá	710	Panajachel	8	Panajachel	3	Marzo	2023-03-20T00:00:00	2024-11-08T19:00:00	2	Temperatura media	20.1
26318	7	Sololá	710	Panajachel	8	Panajachel	3	Marzo	2023-03-20T00:00:00	2024-11-08T19:00:00	4	Temperatura máxima	21
26319	7	Sololá	710	Panajachel	8	Panajachel	3	Marzo	2023-03-20T00:00:00	2024-11-08T19:00:00	3	Temperatura mínima	20.1
26320	7	Sololá	710	Panajachel	8	Panajachel	3	Marzo	2023-03-20T00:00:00	2024-11-08T19:00:00	5	Humedad	67
26321	7	Sololá	710	Panajachel	8	Panajachel	3	Marzo	2023-03-20T00:00:00	2024-11-08T19:00:00	6	Velocidad del viento	9.7
26322	7	Sololá	710	Panajachel	8	Panajachel	3	Marzo	2023-03-20T00:00:00	2024-11-08T19:00:00	7	Dirección del viento	9.66
26323	7	Sololá	710	Panajachel	8	Panajachel	3	Marzo	2023-03-20T00:00:00	2024-11-08T19:00:00	1	Precipitación	0
26324	7	Sololá	710	Panajachel	8	Panajachel	3	Marzo	2023-03-20T00:00:00	2024-11-08T19:00:00	8	Radiación solar	0
26325	7	Sololá	710	Panajachel	8	Panajachel	3	Marzo	2023-03-20T00:00:00	2024-11-08T20:00:00	2	Temperatura media	19.6
26326	7	Sololá	710	Panajachel	8	Panajachel	3	Marzo	2023-03-20T00:00:00	2024-11-08T20:00:00	4	Temperatura máxima	20.1
26327	7	Sololá	710	Panajachel	8	Panajachel	3	Marzo	2023-03-20T00:00:00	2024-11-08T20:00:00	3	Temperatura mínima	19.6
26328	7	Sololá	710	Panajachel	8	Panajachel	3	Marzo	2023-03-20T00:00:00	2024-11-08T20:00:00	5	Humedad	68
26329	7	Sololá	710	Panajachel	8	Panajachel	3	Marzo	2023-03-20T00:00:00	2024-11-08T20:00:00	6	Velocidad del viento	9.7
26330	7	Sololá	710	Panajachel	8	Panajachel	3	Marzo	2023-03-20T00:00:00	2024-11-08T20:00:00	7	Dirección del viento	9.66
26331	7	Sololá	710	Panajachel	8	Panajachel	3	Marzo	2023-03-20T00:00:00	2024-11-08T20:00:00	1	Precipitación	0
26332	7	Sololá	710	Panajachel	8	Panajachel	3	Marzo	2023-03-20T00:00:00	2024-11-08T20:00:00	8	Radiación solar	0
26333	7	Sololá	710	Panajachel	8	Panajachel	3	Marzo	2023-03-20T00:00:00	2024-11-08T21:00:00	2	Temperatura media	19.5
26334	7	Sololá	710	Panajachel	8	Panajachel	3	Marzo	2023-03-20T00:00:00	2024-11-08T21:00:00	4	Temperatura máxima	19.7
26335	7	Sololá	710	Panajachel	8	Panajachel	3	Marzo	2023-03-20T00:00:00	2024-11-08T21:00:00	3	Temperatura mínima	19.3
26336	7	Sololá	710	Panajachel	8	Panajachel	3	Marzo	2023-03-20T00:00:00	2024-11-08T21:00:00	5	Humedad	68
26337	7	Sololá	710	Panajachel	8	Panajachel	3	Marzo	2023-03-20T00:00:00	2024-11-08T21:00:00	6	Velocidad del viento	9.7
26338	7	Sololá	710	Panajachel	8	Panajachel	3	Marzo	2023-03-20T00:00:00	2024-11-08T21:00:00	7	Dirección del viento	9.66
26339	7	Sololá	710	Panajachel	8	Panajachel	3	Marzo	2023-03-20T00:00:00	2024-11-08T21:00:00	1	Precipitación	0
26340	7	Sololá	710	Panajachel	8	Panajachel	3	Marzo	2023-03-20T00:00:00	2024-11-08T21:00:00	8	Radiación solar	0
26341	7	Sololá	710	Panajachel	8	Panajachel	3	Marzo	2023-03-20T00:00:00	2024-11-08T22:00:00	2	Temperatura media	19.5
26342	7	Sololá	710	Panajachel	8	Panajachel	3	Marzo	2023-03-20T00:00:00	2024-11-08T22:00:00	4	Temperatura máxima	19.8
26343	7	Sololá	710	Panajachel	8	Panajachel	3	Marzo	2023-03-20T00:00:00	2024-11-08T22:00:00	3	Temperatura mínima	19.3
26344	7	Sololá	710	Panajachel	8	Panajachel	3	Marzo	2023-03-20T00:00:00	2024-11-08T22:00:00	5	Humedad	69
26345	7	Sololá	710	Panajachel	8	Panajachel	3	Marzo	2023-03-20T00:00:00	2024-11-08T22:00:00	6	Velocidad del viento	9.7
26346	7	Sololá	710	Panajachel	8	Panajachel	3	Marzo	2023-03-20T00:00:00	2024-11-08T22:00:00	7	Dirección del viento	9.66
26347	7	Sololá	710	Panajachel	8	Panajachel	3	Marzo	2023-03-20T00:00:00	2024-11-08T22:00:00	1	Precipitación	0
26348	7	Sololá	710	Panajachel	8	Panajachel	3	Marzo	2023-03-20T00:00:00	2024-11-08T22:00:00	8	Radiación solar	0
26349	7	Sololá	710	Panajachel	8	Panajachel	3	Marzo	2023-03-20T00:00:00	2024-11-08T23:00:00	2	Temperatura media	19.4
26350	7	Sololá	710	Panajachel	8	Panajachel	3	Marzo	2023-03-20T00:00:00	2024-11-08T23:00:00	4	Temperatura máxima	19.5
26351	7	Sololá	710	Panajachel	8	Panajachel	3	Marzo	2023-03-20T00:00:00	2024-11-08T23:00:00	3	Temperatura mínima	19.1
26352	7	Sololá	710	Panajachel	8	Panajachel	3	Marzo	2023-03-20T00:00:00	2024-11-08T23:00:00	5	Humedad	68
26353	7	Sololá	710	Panajachel	8	Panajachel	3	Marzo	2023-03-20T00:00:00	2024-11-08T23:00:00	6	Velocidad del viento	9.7
26354	7	Sololá	710	Panajachel	8	Panajachel	3	Marzo	2023-03-20T00:00:00	2024-11-08T23:00:00	7	Dirección del viento	9.66
26355	7	Sololá	710	Panajachel	8	Panajachel	3	Marzo	2023-03-20T00:00:00	2024-11-08T23:00:00	1	Precipitación	0
26356	7	Sololá	710	Panajachel	8	Panajachel	3	Marzo	2023-03-20T00:00:00	2024-11-08T23:00:00	8	Radiación solar	0
26357	7	Sololá	710	Panajachel	8	Panajachel	3	Marzo	2023-03-21T00:00:00	2024-11-08T00:00:00	2	Temperatura media	18.3
26358	7	Sololá	710	Panajachel	8	Panajachel	3	Marzo	2023-03-21T00:00:00	2024-11-08T00:00:00	4	Temperatura máxima	19.4
26359	7	Sololá	710	Panajachel	8	Panajachel	3	Marzo	2023-03-21T00:00:00	2024-11-08T00:00:00	3	Temperatura mínima	18.3
26360	7	Sololá	710	Panajachel	8	Panajachel	3	Marzo	2023-03-21T00:00:00	2024-11-08T00:00:00	5	Humedad	73
26361	7	Sololá	710	Panajachel	8	Panajachel	3	Marzo	2023-03-21T00:00:00	2024-11-08T00:00:00	6	Velocidad del viento	3.2
26362	7	Sololá	710	Panajachel	8	Panajachel	3	Marzo	2023-03-21T00:00:00	2024-11-08T00:00:00	7	Dirección del viento	3.22
26363	7	Sololá	710	Panajachel	8	Panajachel	3	Marzo	2023-03-21T00:00:00	2024-11-08T00:00:00	1	Precipitación	0
26364	7	Sololá	710	Panajachel	8	Panajachel	3	Marzo	2023-03-21T00:00:00	2024-11-08T00:00:00	8	Radiación solar	0
26365	7	Sololá	710	Panajachel	8	Panajachel	3	Marzo	2023-03-21T00:00:00	2024-11-08T01:00:00	2	Temperatura media	18.2
26366	7	Sololá	710	Panajachel	8	Panajachel	3	Marzo	2023-03-21T00:00:00	2024-11-08T01:00:00	4	Temperatura máxima	18.3
26367	7	Sololá	710	Panajachel	8	Panajachel	3	Marzo	2023-03-21T00:00:00	2024-11-08T01:00:00	3	Temperatura mínima	17.4
26368	7	Sololá	710	Panajachel	8	Panajachel	3	Marzo	2023-03-21T00:00:00	2024-11-08T01:00:00	5	Humedad	74
26369	7	Sololá	710	Panajachel	8	Panajachel	3	Marzo	2023-03-21T00:00:00	2024-11-08T01:00:00	6	Velocidad del viento	1.6
26370	7	Sololá	710	Panajachel	8	Panajachel	3	Marzo	2023-03-21T00:00:00	2024-11-08T01:00:00	7	Dirección del viento	1.61
26371	7	Sololá	710	Panajachel	8	Panajachel	3	Marzo	2023-03-21T00:00:00	2024-11-08T01:00:00	1	Precipitación	0
26372	7	Sololá	710	Panajachel	8	Panajachel	3	Marzo	2023-03-21T00:00:00	2024-11-08T01:00:00	8	Radiación solar	0
26373	7	Sololá	710	Panajachel	8	Panajachel	3	Marzo	2023-03-21T00:00:00	2024-11-08T02:00:00	2	Temperatura media	18.9
26374	7	Sololá	710	Panajachel	8	Panajachel	3	Marzo	2023-03-21T00:00:00	2024-11-08T02:00:00	4	Temperatura máxima	19
26375	7	Sololá	710	Panajachel	8	Panajachel	3	Marzo	2023-03-21T00:00:00	2024-11-08T02:00:00	3	Temperatura mínima	18.3
26376	7	Sololá	710	Panajachel	8	Panajachel	3	Marzo	2023-03-21T00:00:00	2024-11-08T02:00:00	5	Humedad	71
26377	7	Sololá	710	Panajachel	8	Panajachel	3	Marzo	2023-03-21T00:00:00	2024-11-08T02:00:00	6	Velocidad del viento	8
26378	7	Sololá	710	Panajachel	8	Panajachel	3	Marzo	2023-03-21T00:00:00	2024-11-08T02:00:00	7	Dirección del viento	8.05
26379	7	Sololá	710	Panajachel	8	Panajachel	3	Marzo	2023-03-21T00:00:00	2024-11-08T02:00:00	1	Precipitación	0
26380	7	Sololá	710	Panajachel	8	Panajachel	3	Marzo	2023-03-21T00:00:00	2024-11-08T02:00:00	8	Radiación solar	0
26381	7	Sololá	710	Panajachel	8	Panajachel	3	Marzo	2023-03-21T00:00:00	2024-11-08T03:00:00	2	Temperatura media	18.3
26382	7	Sololá	710	Panajachel	8	Panajachel	3	Marzo	2023-03-21T00:00:00	2024-11-08T03:00:00	4	Temperatura máxima	18.9
26383	7	Sololá	710	Panajachel	8	Panajachel	3	Marzo	2023-03-21T00:00:00	2024-11-08T03:00:00	3	Temperatura mínima	18.3
26384	7	Sololá	710	Panajachel	8	Panajachel	3	Marzo	2023-03-21T00:00:00	2024-11-08T03:00:00	5	Humedad	73
26385	7	Sololá	710	Panajachel	8	Panajachel	3	Marzo	2023-03-21T00:00:00	2024-11-08T03:00:00	6	Velocidad del viento	6.4
26386	7	Sololá	710	Panajachel	8	Panajachel	3	Marzo	2023-03-21T00:00:00	2024-11-08T03:00:00	7	Dirección del viento	6.44
26387	7	Sololá	710	Panajachel	8	Panajachel	3	Marzo	2023-03-21T00:00:00	2024-11-08T03:00:00	1	Precipitación	0
26388	7	Sololá	710	Panajachel	8	Panajachel	3	Marzo	2023-03-21T00:00:00	2024-11-08T03:00:00	8	Radiación solar	0
26389	7	Sololá	710	Panajachel	8	Panajachel	3	Marzo	2023-03-21T00:00:00	2024-11-08T04:00:00	2	Temperatura media	18.8
26390	7	Sololá	710	Panajachel	8	Panajachel	3	Marzo	2023-03-21T00:00:00	2024-11-08T04:00:00	4	Temperatura máxima	18.8
26391	7	Sololá	710	Panajachel	8	Panajachel	3	Marzo	2023-03-21T00:00:00	2024-11-08T04:00:00	3	Temperatura mínima	18.3
26392	7	Sololá	710	Panajachel	8	Panajachel	3	Marzo	2023-03-21T00:00:00	2024-11-08T04:00:00	5	Humedad	70
26393	7	Sololá	710	Panajachel	8	Panajachel	3	Marzo	2023-03-21T00:00:00	2024-11-08T04:00:00	6	Velocidad del viento	11.3
26394	7	Sololá	710	Panajachel	8	Panajachel	3	Marzo	2023-03-21T00:00:00	2024-11-08T04:00:00	7	Dirección del viento	11.27
26395	7	Sololá	710	Panajachel	8	Panajachel	3	Marzo	2023-03-21T00:00:00	2024-11-08T04:00:00	1	Precipitación	0
26396	7	Sololá	710	Panajachel	8	Panajachel	3	Marzo	2023-03-21T00:00:00	2024-11-08T04:00:00	8	Radiación solar	0
26397	7	Sololá	710	Panajachel	8	Panajachel	3	Marzo	2023-03-21T00:00:00	2024-11-08T05:00:00	2	Temperatura media	19.1
26398	7	Sololá	710	Panajachel	8	Panajachel	3	Marzo	2023-03-21T00:00:00	2024-11-08T05:00:00	4	Temperatura máxima	19.1
26399	7	Sololá	710	Panajachel	8	Panajachel	3	Marzo	2023-03-21T00:00:00	2024-11-08T05:00:00	3	Temperatura mínima	18.4
26400	7	Sololá	710	Panajachel	8	Panajachel	3	Marzo	2023-03-21T00:00:00	2024-11-08T05:00:00	5	Humedad	70
26401	7	Sololá	710	Panajachel	8	Panajachel	3	Marzo	2023-03-21T00:00:00	2024-11-08T05:00:00	6	Velocidad del viento	6.4
26402	7	Sololá	710	Panajachel	8	Panajachel	3	Marzo	2023-03-21T00:00:00	2024-11-08T05:00:00	7	Dirección del viento	6.44
26403	7	Sololá	710	Panajachel	8	Panajachel	3	Marzo	2023-03-21T00:00:00	2024-11-08T05:00:00	1	Precipitación	0
26404	7	Sololá	710	Panajachel	8	Panajachel	3	Marzo	2023-03-21T00:00:00	2024-11-08T05:00:00	8	Radiación solar	0
26405	7	Sololá	710	Panajachel	8	Panajachel	3	Marzo	2023-03-21T00:00:00	2024-11-08T06:00:00	2	Temperatura media	19.2
26406	7	Sololá	710	Panajachel	8	Panajachel	3	Marzo	2023-03-21T00:00:00	2024-11-08T06:00:00	4	Temperatura máxima	19.5
26407	7	Sololá	710	Panajachel	8	Panajachel	3	Marzo	2023-03-21T00:00:00	2024-11-08T06:00:00	3	Temperatura mínima	18.9
26408	7	Sololá	710	Panajachel	8	Panajachel	3	Marzo	2023-03-21T00:00:00	2024-11-08T06:00:00	5	Humedad	68
26409	7	Sololá	710	Panajachel	8	Panajachel	3	Marzo	2023-03-21T00:00:00	2024-11-08T06:00:00	6	Velocidad del viento	9.7
26410	7	Sololá	710	Panajachel	8	Panajachel	3	Marzo	2023-03-21T00:00:00	2024-11-08T06:00:00	7	Dirección del viento	9.66
26411	7	Sololá	710	Panajachel	8	Panajachel	3	Marzo	2023-03-21T00:00:00	2024-11-08T06:00:00	1	Precipitación	0
26412	7	Sololá	710	Panajachel	8	Panajachel	3	Marzo	2023-03-21T00:00:00	2024-11-08T06:00:00	8	Radiación solar	0
26413	7	Sololá	710	Panajachel	8	Panajachel	3	Marzo	2023-03-21T00:00:00	2024-11-08T07:00:00	2	Temperatura media	19.6
26414	7	Sololá	710	Panajachel	8	Panajachel	3	Marzo	2023-03-21T00:00:00	2024-11-08T07:00:00	4	Temperatura máxima	19.6
26415	7	Sololá	710	Panajachel	8	Panajachel	3	Marzo	2023-03-21T00:00:00	2024-11-08T07:00:00	3	Temperatura mínima	19.1
26416	7	Sololá	710	Panajachel	8	Panajachel	3	Marzo	2023-03-21T00:00:00	2024-11-08T07:00:00	5	Humedad	69
26417	7	Sololá	710	Panajachel	8	Panajachel	3	Marzo	2023-03-21T00:00:00	2024-11-08T07:00:00	6	Velocidad del viento	8
26418	7	Sololá	710	Panajachel	8	Panajachel	3	Marzo	2023-03-21T00:00:00	2024-11-08T07:00:00	7	Dirección del viento	8.05
26419	7	Sololá	710	Panajachel	8	Panajachel	3	Marzo	2023-03-21T00:00:00	2024-11-08T07:00:00	1	Precipitación	0
26420	7	Sololá	710	Panajachel	8	Panajachel	3	Marzo	2023-03-21T00:00:00	2024-11-08T07:00:00	8	Radiación solar	17
26421	7	Sololá	710	Panajachel	8	Panajachel	3	Marzo	2023-03-21T00:00:00	2024-11-08T08:00:00	2	Temperatura media	21.6
26422	7	Sololá	710	Panajachel	8	Panajachel	3	Marzo	2023-03-21T00:00:00	2024-11-08T08:00:00	4	Temperatura máxima	21.7
26423	7	Sololá	710	Panajachel	8	Panajachel	3	Marzo	2023-03-21T00:00:00	2024-11-08T08:00:00	3	Temperatura mínima	19.6
26424	7	Sololá	710	Panajachel	8	Panajachel	3	Marzo	2023-03-21T00:00:00	2024-11-08T08:00:00	5	Humedad	63
26425	7	Sololá	710	Panajachel	8	Panajachel	3	Marzo	2023-03-21T00:00:00	2024-11-08T08:00:00	6	Velocidad del viento	8
26426	7	Sololá	710	Panajachel	8	Panajachel	3	Marzo	2023-03-21T00:00:00	2024-11-08T08:00:00	7	Dirección del viento	8.05
26427	7	Sololá	710	Panajachel	8	Panajachel	3	Marzo	2023-03-21T00:00:00	2024-11-08T08:00:00	1	Precipitación	0
26428	7	Sololá	710	Panajachel	8	Panajachel	3	Marzo	2023-03-21T00:00:00	2024-11-08T08:00:00	8	Radiación solar	271
26429	7	Sololá	710	Panajachel	8	Panajachel	3	Marzo	2023-03-21T00:00:00	2024-11-08T09:00:00	2	Temperatura media	21.6
26430	7	Sololá	710	Panajachel	8	Panajachel	3	Marzo	2023-03-21T00:00:00	2024-11-08T09:00:00	4	Temperatura máxima	21.9
26431	7	Sololá	710	Panajachel	8	Panajachel	3	Marzo	2023-03-21T00:00:00	2024-11-08T09:00:00	3	Temperatura mínima	21.3
26432	7	Sololá	710	Panajachel	8	Panajachel	3	Marzo	2023-03-21T00:00:00	2024-11-08T09:00:00	5	Humedad	66
26433	7	Sololá	710	Panajachel	8	Panajachel	3	Marzo	2023-03-21T00:00:00	2024-11-08T09:00:00	6	Velocidad del viento	9.7
26434	7	Sololá	710	Panajachel	8	Panajachel	3	Marzo	2023-03-21T00:00:00	2024-11-08T09:00:00	7	Dirección del viento	9.66
26435	7	Sololá	710	Panajachel	8	Panajachel	3	Marzo	2023-03-21T00:00:00	2024-11-08T09:00:00	1	Precipitación	0
26436	7	Sololá	710	Panajachel	8	Panajachel	3	Marzo	2023-03-21T00:00:00	2024-11-08T09:00:00	8	Radiación solar	504
26437	7	Sololá	710	Panajachel	8	Panajachel	3	Marzo	2023-03-21T00:00:00	2024-11-08T10:00:00	2	Temperatura media	23.4
26438	7	Sololá	710	Panajachel	8	Panajachel	3	Marzo	2023-03-21T00:00:00	2024-11-08T10:00:00	4	Temperatura máxima	23.6
26439	7	Sololá	710	Panajachel	8	Panajachel	3	Marzo	2023-03-21T00:00:00	2024-11-08T10:00:00	3	Temperatura mínima	21.6
26440	7	Sololá	710	Panajachel	8	Panajachel	3	Marzo	2023-03-21T00:00:00	2024-11-08T10:00:00	5	Humedad	57
26441	7	Sololá	710	Panajachel	8	Panajachel	3	Marzo	2023-03-21T00:00:00	2024-11-08T10:00:00	6	Velocidad del viento	6.4
26442	7	Sololá	710	Panajachel	8	Panajachel	3	Marzo	2023-03-21T00:00:00	2024-11-08T10:00:00	7	Dirección del viento	6.44
26443	7	Sololá	710	Panajachel	8	Panajachel	3	Marzo	2023-03-21T00:00:00	2024-11-08T10:00:00	1	Precipitación	0
26444	7	Sololá	710	Panajachel	8	Panajachel	3	Marzo	2023-03-21T00:00:00	2024-11-08T10:00:00	8	Radiación solar	712
26445	7	Sololá	710	Panajachel	8	Panajachel	3	Marzo	2023-03-21T00:00:00	2024-11-08T11:00:00	2	Temperatura media	23.8
26446	7	Sololá	710	Panajachel	8	Panajachel	3	Marzo	2023-03-21T00:00:00	2024-11-08T11:00:00	4	Temperatura máxima	24.3
26447	7	Sololá	710	Panajachel	8	Panajachel	3	Marzo	2023-03-21T00:00:00	2024-11-08T11:00:00	3	Temperatura mínima	23.2
26448	7	Sololá	710	Panajachel	8	Panajachel	3	Marzo	2023-03-21T00:00:00	2024-11-08T11:00:00	5	Humedad	56
26449	7	Sololá	710	Panajachel	8	Panajachel	3	Marzo	2023-03-21T00:00:00	2024-11-08T11:00:00	6	Velocidad del viento	9.7
26450	7	Sololá	710	Panajachel	8	Panajachel	3	Marzo	2023-03-21T00:00:00	2024-11-08T11:00:00	7	Dirección del viento	9.66
26451	7	Sololá	710	Panajachel	8	Panajachel	3	Marzo	2023-03-21T00:00:00	2024-11-08T11:00:00	1	Precipitación	0
26452	7	Sololá	710	Panajachel	8	Panajachel	3	Marzo	2023-03-21T00:00:00	2024-11-08T11:00:00	8	Radiación solar	869
26453	7	Sololá	710	Panajachel	8	Panajachel	3	Marzo	2023-03-21T00:00:00	2024-11-08T12:00:00	2	Temperatura media	24.9
26454	7	Sololá	710	Panajachel	8	Panajachel	3	Marzo	2023-03-21T00:00:00	2024-11-08T12:00:00	4	Temperatura máxima	24.9
26455	7	Sololá	710	Panajachel	8	Panajachel	3	Marzo	2023-03-21T00:00:00	2024-11-08T12:00:00	3	Temperatura mínima	23.8
26456	7	Sololá	710	Panajachel	8	Panajachel	3	Marzo	2023-03-21T00:00:00	2024-11-08T12:00:00	5	Humedad	51
26457	7	Sololá	710	Panajachel	8	Panajachel	3	Marzo	2023-03-21T00:00:00	2024-11-08T12:00:00	6	Velocidad del viento	9.7
26458	7	Sololá	710	Panajachel	8	Panajachel	3	Marzo	2023-03-21T00:00:00	2024-11-08T12:00:00	7	Dirección del viento	9.66
26459	7	Sololá	710	Panajachel	8	Panajachel	3	Marzo	2023-03-21T00:00:00	2024-11-08T12:00:00	1	Precipitación	0
26460	7	Sololá	710	Panajachel	8	Panajachel	3	Marzo	2023-03-21T00:00:00	2024-11-08T12:00:00	8	Radiación solar	981
26461	7	Sololá	710	Panajachel	8	Panajachel	3	Marzo	2023-03-21T00:00:00	2024-11-08T13:00:00	2	Temperatura media	25.6
26462	7	Sololá	710	Panajachel	8	Panajachel	3	Marzo	2023-03-21T00:00:00	2024-11-08T13:00:00	4	Temperatura máxima	26.1
26463	7	Sololá	710	Panajachel	8	Panajachel	3	Marzo	2023-03-21T00:00:00	2024-11-08T13:00:00	3	Temperatura mínima	24.8
26464	7	Sololá	710	Panajachel	8	Panajachel	3	Marzo	2023-03-21T00:00:00	2024-11-08T13:00:00	5	Humedad	49
26465	7	Sololá	710	Panajachel	8	Panajachel	3	Marzo	2023-03-21T00:00:00	2024-11-08T13:00:00	6	Velocidad del viento	8
26466	7	Sololá	710	Panajachel	8	Panajachel	3	Marzo	2023-03-21T00:00:00	2024-11-08T13:00:00	7	Dirección del viento	8.05
26467	7	Sololá	710	Panajachel	8	Panajachel	3	Marzo	2023-03-21T00:00:00	2024-11-08T13:00:00	1	Precipitación	0
26468	7	Sololá	710	Panajachel	8	Panajachel	3	Marzo	2023-03-21T00:00:00	2024-11-08T13:00:00	8	Radiación solar	1106
26469	7	Sololá	710	Panajachel	8	Panajachel	3	Marzo	2023-03-21T00:00:00	2024-11-08T14:00:00	2	Temperatura media	24.9
26470	7	Sololá	710	Panajachel	8	Panajachel	3	Marzo	2023-03-21T00:00:00	2024-11-08T14:00:00	4	Temperatura máxima	25.6
26471	7	Sololá	710	Panajachel	8	Panajachel	3	Marzo	2023-03-21T00:00:00	2024-11-08T14:00:00	3	Temperatura mínima	24.5
26472	7	Sololá	710	Panajachel	8	Panajachel	3	Marzo	2023-03-21T00:00:00	2024-11-08T14:00:00	5	Humedad	48
26473	7	Sololá	710	Panajachel	8	Panajachel	3	Marzo	2023-03-21T00:00:00	2024-11-08T14:00:00	6	Velocidad del viento	8
26474	7	Sololá	710	Panajachel	8	Panajachel	3	Marzo	2023-03-21T00:00:00	2024-11-08T14:00:00	7	Dirección del viento	8.05
26475	7	Sololá	710	Panajachel	8	Panajachel	3	Marzo	2023-03-21T00:00:00	2024-11-08T14:00:00	1	Precipitación	0
26476	7	Sololá	710	Panajachel	8	Panajachel	3	Marzo	2023-03-21T00:00:00	2024-11-08T14:00:00	8	Radiación solar	377
26477	7	Sololá	710	Panajachel	8	Panajachel	3	Marzo	2023-03-21T00:00:00	2024-11-08T15:00:00	2	Temperatura media	24.7
26478	7	Sololá	710	Panajachel	8	Panajachel	3	Marzo	2023-03-21T00:00:00	2024-11-08T15:00:00	4	Temperatura máxima	25.2
26479	7	Sololá	710	Panajachel	8	Panajachel	3	Marzo	2023-03-21T00:00:00	2024-11-08T15:00:00	3	Temperatura mínima	24.7
26480	7	Sololá	710	Panajachel	8	Panajachel	3	Marzo	2023-03-21T00:00:00	2024-11-08T15:00:00	5	Humedad	50
26481	7	Sololá	710	Panajachel	8	Panajachel	3	Marzo	2023-03-21T00:00:00	2024-11-08T15:00:00	6	Velocidad del viento	8
26482	7	Sololá	710	Panajachel	8	Panajachel	3	Marzo	2023-03-21T00:00:00	2024-11-08T15:00:00	7	Dirección del viento	8.05
26483	7	Sololá	710	Panajachel	8	Panajachel	3	Marzo	2023-03-21T00:00:00	2024-11-08T15:00:00	1	Precipitación	0
26484	7	Sololá	710	Panajachel	8	Panajachel	3	Marzo	2023-03-21T00:00:00	2024-11-08T15:00:00	8	Radiación solar	290
26485	7	Sololá	710	Panajachel	8	Panajachel	3	Marzo	2023-03-21T00:00:00	2024-11-08T16:00:00	2	Temperatura media	24.9
26486	7	Sololá	710	Panajachel	8	Panajachel	3	Marzo	2023-03-21T00:00:00	2024-11-08T16:00:00	4	Temperatura máxima	24.9
26487	7	Sololá	710	Panajachel	8	Panajachel	3	Marzo	2023-03-21T00:00:00	2024-11-08T16:00:00	3	Temperatura mínima	24.3
26488	7	Sololá	710	Panajachel	8	Panajachel	3	Marzo	2023-03-21T00:00:00	2024-11-08T16:00:00	5	Humedad	50
26489	7	Sololá	710	Panajachel	8	Panajachel	3	Marzo	2023-03-21T00:00:00	2024-11-08T16:00:00	6	Velocidad del viento	6.4
26490	7	Sololá	710	Panajachel	8	Panajachel	3	Marzo	2023-03-21T00:00:00	2024-11-08T16:00:00	7	Dirección del viento	6.44
26491	7	Sololá	710	Panajachel	8	Panajachel	3	Marzo	2023-03-21T00:00:00	2024-11-08T16:00:00	1	Precipitación	0
26492	7	Sololá	710	Panajachel	8	Panajachel	3	Marzo	2023-03-21T00:00:00	2024-11-08T16:00:00	8	Radiación solar	242
26493	7	Sololá	710	Panajachel	8	Panajachel	3	Marzo	2023-03-21T00:00:00	2024-11-08T17:00:00	2	Temperatura media	24.1
26494	7	Sololá	710	Panajachel	8	Panajachel	3	Marzo	2023-03-21T00:00:00	2024-11-08T17:00:00	4	Temperatura máxima	25.3
26495	7	Sololá	710	Panajachel	8	Panajachel	3	Marzo	2023-03-21T00:00:00	2024-11-08T17:00:00	3	Temperatura mínima	24.1
26496	7	Sololá	710	Panajachel	8	Panajachel	3	Marzo	2023-03-21T00:00:00	2024-11-08T17:00:00	5	Humedad	55
26497	7	Sololá	710	Panajachel	8	Panajachel	3	Marzo	2023-03-21T00:00:00	2024-11-08T17:00:00	6	Velocidad del viento	9.7
26498	7	Sololá	710	Panajachel	8	Panajachel	3	Marzo	2023-03-21T00:00:00	2024-11-08T17:00:00	7	Dirección del viento	9.66
26499	7	Sololá	710	Panajachel	8	Panajachel	3	Marzo	2023-03-21T00:00:00	2024-11-08T17:00:00	1	Precipitación	0
26500	7	Sololá	710	Panajachel	8	Panajachel	3	Marzo	2023-03-21T00:00:00	2024-11-08T17:00:00	8	Radiación solar	305
26501	7	Sololá	710	Panajachel	8	Panajachel	3	Marzo	2023-03-21T00:00:00	2024-11-08T18:00:00	2	Temperatura media	22.6
26502	7	Sololá	710	Panajachel	8	Panajachel	3	Marzo	2023-03-21T00:00:00	2024-11-08T18:00:00	4	Temperatura máxima	24.3
26503	7	Sololá	710	Panajachel	8	Panajachel	3	Marzo	2023-03-21T00:00:00	2024-11-08T18:00:00	3	Temperatura mínima	22.6
26504	7	Sololá	710	Panajachel	8	Panajachel	3	Marzo	2023-03-21T00:00:00	2024-11-08T18:00:00	5	Humedad	61
26505	7	Sololá	710	Panajachel	8	Panajachel	3	Marzo	2023-03-21T00:00:00	2024-11-08T18:00:00	6	Velocidad del viento	6.4
26506	7	Sololá	710	Panajachel	8	Panajachel	3	Marzo	2023-03-21T00:00:00	2024-11-08T18:00:00	7	Dirección del viento	6.44
26507	7	Sololá	710	Panajachel	8	Panajachel	3	Marzo	2023-03-21T00:00:00	2024-11-08T18:00:00	1	Precipitación	0
26508	7	Sololá	710	Panajachel	8	Panajachel	3	Marzo	2023-03-21T00:00:00	2024-11-08T18:00:00	8	Radiación solar	80
26509	7	Sololá	710	Panajachel	8	Panajachel	3	Marzo	2023-03-21T00:00:00	2024-11-08T19:00:00	2	Temperatura media	20.9
26510	7	Sololá	710	Panajachel	8	Panajachel	3	Marzo	2023-03-21T00:00:00	2024-11-08T19:00:00	4	Temperatura máxima	22.6
26511	7	Sololá	710	Panajachel	8	Panajachel	3	Marzo	2023-03-21T00:00:00	2024-11-08T19:00:00	3	Temperatura mínima	20.9
26512	7	Sololá	710	Panajachel	8	Panajachel	3	Marzo	2023-03-21T00:00:00	2024-11-08T19:00:00	5	Humedad	69
26513	7	Sololá	710	Panajachel	8	Panajachel	3	Marzo	2023-03-21T00:00:00	2024-11-08T19:00:00	6	Velocidad del viento	9.7
26514	7	Sololá	710	Panajachel	8	Panajachel	3	Marzo	2023-03-21T00:00:00	2024-11-08T19:00:00	7	Dirección del viento	9.66
26515	7	Sololá	710	Panajachel	8	Panajachel	3	Marzo	2023-03-21T00:00:00	2024-11-08T19:00:00	1	Precipitación	0
26516	7	Sololá	710	Panajachel	8	Panajachel	3	Marzo	2023-03-21T00:00:00	2024-11-08T19:00:00	8	Radiación solar	0
26517	7	Sololá	710	Panajachel	8	Panajachel	3	Marzo	2023-03-21T00:00:00	2024-11-08T20:00:00	2	Temperatura media	20.6
26518	7	Sololá	710	Panajachel	8	Panajachel	3	Marzo	2023-03-21T00:00:00	2024-11-08T20:00:00	4	Temperatura máxima	20.9
26519	7	Sololá	710	Panajachel	8	Panajachel	3	Marzo	2023-03-21T00:00:00	2024-11-08T20:00:00	3	Temperatura mínima	20.6
26520	7	Sololá	710	Panajachel	8	Panajachel	3	Marzo	2023-03-21T00:00:00	2024-11-08T20:00:00	5	Humedad	71
26521	7	Sololá	710	Panajachel	8	Panajachel	3	Marzo	2023-03-21T00:00:00	2024-11-08T20:00:00	6	Velocidad del viento	6.4
26522	7	Sololá	710	Panajachel	8	Panajachel	3	Marzo	2023-03-21T00:00:00	2024-11-08T20:00:00	7	Dirección del viento	6.44
26523	7	Sololá	710	Panajachel	8	Panajachel	3	Marzo	2023-03-21T00:00:00	2024-11-08T20:00:00	1	Precipitación	0
26524	7	Sololá	710	Panajachel	8	Panajachel	3	Marzo	2023-03-21T00:00:00	2024-11-08T20:00:00	8	Radiación solar	0
26525	7	Sololá	710	Panajachel	8	Panajachel	3	Marzo	2023-03-21T00:00:00	2024-11-08T21:00:00	2	Temperatura media	20.7
26526	7	Sololá	710	Panajachel	8	Panajachel	3	Marzo	2023-03-21T00:00:00	2024-11-08T21:00:00	4	Temperatura máxima	20.8
26527	7	Sololá	710	Panajachel	8	Panajachel	3	Marzo	2023-03-21T00:00:00	2024-11-08T21:00:00	3	Temperatura mínima	20.6
26528	7	Sololá	710	Panajachel	8	Panajachel	3	Marzo	2023-03-21T00:00:00	2024-11-08T21:00:00	5	Humedad	68
26529	7	Sololá	710	Panajachel	8	Panajachel	3	Marzo	2023-03-21T00:00:00	2024-11-08T21:00:00	6	Velocidad del viento	4.8
26530	7	Sololá	710	Panajachel	8	Panajachel	3	Marzo	2023-03-21T00:00:00	2024-11-08T21:00:00	7	Dirección del viento	4.83
26531	7	Sololá	710	Panajachel	8	Panajachel	3	Marzo	2023-03-21T00:00:00	2024-11-08T21:00:00	1	Precipitación	0
26532	7	Sololá	710	Panajachel	8	Panajachel	3	Marzo	2023-03-21T00:00:00	2024-11-08T21:00:00	8	Radiación solar	0
26533	7	Sololá	710	Panajachel	8	Panajachel	3	Marzo	2023-03-21T00:00:00	2024-11-08T22:00:00	2	Temperatura media	20.6
26534	7	Sololá	710	Panajachel	8	Panajachel	3	Marzo	2023-03-21T00:00:00	2024-11-08T22:00:00	4	Temperatura máxima	20.8
26535	7	Sololá	710	Panajachel	8	Panajachel	3	Marzo	2023-03-21T00:00:00	2024-11-08T22:00:00	3	Temperatura mínima	20.5
26536	7	Sololá	710	Panajachel	8	Panajachel	3	Marzo	2023-03-21T00:00:00	2024-11-08T22:00:00	5	Humedad	68
26537	7	Sololá	710	Panajachel	8	Panajachel	3	Marzo	2023-03-21T00:00:00	2024-11-08T22:00:00	6	Velocidad del viento	4.8
26538	7	Sololá	710	Panajachel	8	Panajachel	3	Marzo	2023-03-21T00:00:00	2024-11-08T22:00:00	7	Dirección del viento	4.83
26539	7	Sololá	710	Panajachel	8	Panajachel	3	Marzo	2023-03-21T00:00:00	2024-11-08T22:00:00	1	Precipitación	0
26540	7	Sololá	710	Panajachel	8	Panajachel	3	Marzo	2023-03-21T00:00:00	2024-11-08T22:00:00	8	Radiación solar	0
26541	7	Sololá	710	Panajachel	8	Panajachel	3	Marzo	2023-03-21T00:00:00	2024-11-08T23:00:00	2	Temperatura media	20.2
26542	7	Sololá	710	Panajachel	8	Panajachel	3	Marzo	2023-03-21T00:00:00	2024-11-08T23:00:00	4	Temperatura máxima	20.6
26543	7	Sololá	710	Panajachel	8	Panajachel	3	Marzo	2023-03-21T00:00:00	2024-11-08T23:00:00	3	Temperatura mínima	20.2
26544	7	Sololá	710	Panajachel	8	Panajachel	3	Marzo	2023-03-21T00:00:00	2024-11-08T23:00:00	5	Humedad	69
26545	7	Sololá	710	Panajachel	8	Panajachel	3	Marzo	2023-03-21T00:00:00	2024-11-08T23:00:00	6	Velocidad del viento	6.4
26546	7	Sololá	710	Panajachel	8	Panajachel	3	Marzo	2023-03-21T00:00:00	2024-11-08T23:00:00	7	Dirección del viento	6.44
26547	7	Sololá	710	Panajachel	8	Panajachel	3	Marzo	2023-03-21T00:00:00	2024-11-08T23:00:00	1	Precipitación	0
26548	7	Sololá	710	Panajachel	8	Panajachel	3	Marzo	2023-03-21T00:00:00	2024-11-08T23:00:00	8	Radiación solar	0
26549	7	Sololá	710	Panajachel	8	Panajachel	3	Marzo	2023-03-22T00:00:00	2024-11-08T00:00:00	2	Temperatura media	20
26550	7	Sololá	710	Panajachel	8	Panajachel	3	Marzo	2023-03-22T00:00:00	2024-11-08T00:00:00	4	Temperatura máxima	20.3
26551	7	Sololá	710	Panajachel	8	Panajachel	3	Marzo	2023-03-22T00:00:00	2024-11-08T00:00:00	3	Temperatura mínima	20
26552	7	Sololá	710	Panajachel	8	Panajachel	3	Marzo	2023-03-22T00:00:00	2024-11-08T00:00:00	5	Humedad	68
26553	7	Sololá	710	Panajachel	8	Panajachel	3	Marzo	2023-03-22T00:00:00	2024-11-08T00:00:00	6	Velocidad del viento	3.2
26554	7	Sololá	710	Panajachel	8	Panajachel	3	Marzo	2023-03-22T00:00:00	2024-11-08T00:00:00	7	Dirección del viento	3.22
26555	7	Sololá	710	Panajachel	8	Panajachel	3	Marzo	2023-03-22T00:00:00	2024-11-08T00:00:00	1	Precipitación	0
26556	7	Sololá	710	Panajachel	8	Panajachel	3	Marzo	2023-03-22T00:00:00	2024-11-08T00:00:00	8	Radiación solar	0
26557	7	Sololá	710	Panajachel	8	Panajachel	3	Marzo	2023-03-22T00:00:00	2024-11-08T01:00:00	2	Temperatura media	19.9
26558	7	Sololá	710	Panajachel	8	Panajachel	3	Marzo	2023-03-22T00:00:00	2024-11-08T01:00:00	4	Temperatura máxima	20.1
26559	7	Sololá	710	Panajachel	8	Panajachel	3	Marzo	2023-03-22T00:00:00	2024-11-08T01:00:00	3	Temperatura mínima	19.8
26560	7	Sololá	710	Panajachel	8	Panajachel	3	Marzo	2023-03-22T00:00:00	2024-11-08T01:00:00	5	Humedad	68
26561	7	Sololá	710	Panajachel	8	Panajachel	3	Marzo	2023-03-22T00:00:00	2024-11-08T01:00:00	6	Velocidad del viento	3.2
26562	7	Sololá	710	Panajachel	8	Panajachel	3	Marzo	2023-03-22T00:00:00	2024-11-08T01:00:00	7	Dirección del viento	3.22
26563	7	Sololá	710	Panajachel	8	Panajachel	3	Marzo	2023-03-22T00:00:00	2024-11-08T01:00:00	1	Precipitación	0
26564	7	Sololá	710	Panajachel	8	Panajachel	3	Marzo	2023-03-22T00:00:00	2024-11-08T01:00:00	8	Radiación solar	0
26565	7	Sololá	710	Panajachel	8	Panajachel	3	Marzo	2023-03-22T00:00:00	2024-11-08T02:00:00	2	Temperatura media	20
26566	7	Sololá	710	Panajachel	8	Panajachel	3	Marzo	2023-03-22T00:00:00	2024-11-08T02:00:00	4	Temperatura máxima	20.1
26567	7	Sololá	710	Panajachel	8	Panajachel	3	Marzo	2023-03-22T00:00:00	2024-11-08T02:00:00	3	Temperatura mínima	19.8
26568	7	Sololá	710	Panajachel	8	Panajachel	3	Marzo	2023-03-22T00:00:00	2024-11-08T02:00:00	5	Humedad	68
26569	7	Sololá	710	Panajachel	8	Panajachel	3	Marzo	2023-03-22T00:00:00	2024-11-08T02:00:00	6	Velocidad del viento	6.4
26570	7	Sololá	710	Panajachel	8	Panajachel	3	Marzo	2023-03-22T00:00:00	2024-11-08T02:00:00	7	Dirección del viento	6.44
26571	7	Sololá	710	Panajachel	8	Panajachel	3	Marzo	2023-03-22T00:00:00	2024-11-08T02:00:00	1	Precipitación	0
26572	7	Sololá	710	Panajachel	8	Panajachel	3	Marzo	2023-03-22T00:00:00	2024-11-08T02:00:00	8	Radiación solar	0
26573	7	Sololá	710	Panajachel	8	Panajachel	3	Marzo	2023-03-22T00:00:00	2024-11-08T03:00:00	2	Temperatura media	19.2
26574	7	Sololá	710	Panajachel	8	Panajachel	3	Marzo	2023-03-22T00:00:00	2024-11-08T03:00:00	4	Temperatura máxima	20.1
26575	7	Sololá	710	Panajachel	8	Panajachel	3	Marzo	2023-03-22T00:00:00	2024-11-08T03:00:00	3	Temperatura mínima	19.1
26576	7	Sololá	710	Panajachel	8	Panajachel	3	Marzo	2023-03-22T00:00:00	2024-11-08T03:00:00	5	Humedad	73
26577	7	Sololá	710	Panajachel	8	Panajachel	3	Marzo	2023-03-22T00:00:00	2024-11-08T03:00:00	6	Velocidad del viento	4.8
26578	7	Sololá	710	Panajachel	8	Panajachel	3	Marzo	2023-03-22T00:00:00	2024-11-08T03:00:00	7	Dirección del viento	4.83
26579	7	Sololá	710	Panajachel	8	Panajachel	3	Marzo	2023-03-22T00:00:00	2024-11-08T03:00:00	1	Precipitación	0
26580	7	Sololá	710	Panajachel	8	Panajachel	3	Marzo	2023-03-22T00:00:00	2024-11-08T03:00:00	8	Radiación solar	0
26581	7	Sololá	710	Panajachel	8	Panajachel	3	Marzo	2023-03-22T00:00:00	2024-11-08T04:00:00	2	Temperatura media	19.2
26582	7	Sololá	710	Panajachel	8	Panajachel	3	Marzo	2023-03-22T00:00:00	2024-11-08T04:00:00	4	Temperatura máxima	19.3
26583	7	Sololá	710	Panajachel	8	Panajachel	3	Marzo	2023-03-22T00:00:00	2024-11-08T04:00:00	3	Temperatura mínima	19.1
26584	7	Sololá	710	Panajachel	8	Panajachel	3	Marzo	2023-03-22T00:00:00	2024-11-08T04:00:00	5	Humedad	73
26585	7	Sololá	710	Panajachel	8	Panajachel	3	Marzo	2023-03-22T00:00:00	2024-11-08T04:00:00	6	Velocidad del viento	4.8
26586	7	Sololá	710	Panajachel	8	Panajachel	3	Marzo	2023-03-22T00:00:00	2024-11-08T04:00:00	7	Dirección del viento	4.83
26587	7	Sololá	710	Panajachel	8	Panajachel	3	Marzo	2023-03-22T00:00:00	2024-11-08T04:00:00	1	Precipitación	0
26588	7	Sololá	710	Panajachel	8	Panajachel	3	Marzo	2023-03-22T00:00:00	2024-11-08T04:00:00	8	Radiación solar	0
26589	7	Sololá	710	Panajachel	8	Panajachel	3	Marzo	2023-03-22T00:00:00	2024-11-08T05:00:00	2	Temperatura media	19.2
26590	7	Sololá	710	Panajachel	8	Panajachel	3	Marzo	2023-03-22T00:00:00	2024-11-08T05:00:00	4	Temperatura máxima	19.4
26591	7	Sololá	710	Panajachel	8	Panajachel	3	Marzo	2023-03-22T00:00:00	2024-11-08T05:00:00	3	Temperatura mínima	19.2
26592	7	Sololá	710	Panajachel	8	Panajachel	3	Marzo	2023-03-22T00:00:00	2024-11-08T05:00:00	5	Humedad	73
26593	7	Sololá	710	Panajachel	8	Panajachel	3	Marzo	2023-03-22T00:00:00	2024-11-08T05:00:00	6	Velocidad del viento	3.2
26594	7	Sololá	710	Panajachel	8	Panajachel	3	Marzo	2023-03-22T00:00:00	2024-11-08T05:00:00	7	Dirección del viento	3.22
26595	7	Sololá	710	Panajachel	8	Panajachel	3	Marzo	2023-03-22T00:00:00	2024-11-08T05:00:00	1	Precipitación	0
26596	7	Sololá	710	Panajachel	8	Panajachel	3	Marzo	2023-03-22T00:00:00	2024-11-08T05:00:00	8	Radiación solar	0
26597	7	Sololá	710	Panajachel	8	Panajachel	3	Marzo	2023-03-22T00:00:00	2024-11-08T06:00:00	2	Temperatura media	19.3
26598	7	Sololá	710	Panajachel	8	Panajachel	3	Marzo	2023-03-22T00:00:00	2024-11-08T06:00:00	4	Temperatura máxima	19.4
26599	7	Sololá	710	Panajachel	8	Panajachel	3	Marzo	2023-03-22T00:00:00	2024-11-08T06:00:00	3	Temperatura mínima	19.2
26600	7	Sololá	710	Panajachel	8	Panajachel	3	Marzo	2023-03-22T00:00:00	2024-11-08T06:00:00	5	Humedad	72
26601	7	Sololá	710	Panajachel	8	Panajachel	3	Marzo	2023-03-22T00:00:00	2024-11-08T06:00:00	6	Velocidad del viento	3.2
26602	7	Sololá	710	Panajachel	8	Panajachel	3	Marzo	2023-03-22T00:00:00	2024-11-08T06:00:00	7	Dirección del viento	3.22
26603	7	Sololá	710	Panajachel	8	Panajachel	3	Marzo	2023-03-22T00:00:00	2024-11-08T06:00:00	1	Precipitación	0
26604	7	Sololá	710	Panajachel	8	Panajachel	3	Marzo	2023-03-22T00:00:00	2024-11-08T06:00:00	8	Radiación solar	0
26605	7	Sololá	710	Panajachel	8	Panajachel	3	Marzo	2023-03-22T00:00:00	2024-11-08T07:00:00	2	Temperatura media	19.3
26606	7	Sololá	710	Panajachel	8	Panajachel	3	Marzo	2023-03-22T00:00:00	2024-11-08T07:00:00	4	Temperatura máxima	19.4
26607	7	Sololá	710	Panajachel	8	Panajachel	3	Marzo	2023-03-22T00:00:00	2024-11-08T07:00:00	3	Temperatura mínima	19.2
26608	7	Sololá	710	Panajachel	8	Panajachel	3	Marzo	2023-03-22T00:00:00	2024-11-08T07:00:00	5	Humedad	73
26609	7	Sololá	710	Panajachel	8	Panajachel	3	Marzo	2023-03-22T00:00:00	2024-11-08T07:00:00	6	Velocidad del viento	4.8
26610	7	Sololá	710	Panajachel	8	Panajachel	3	Marzo	2023-03-22T00:00:00	2024-11-08T07:00:00	7	Dirección del viento	4.83
26611	7	Sololá	710	Panajachel	8	Panajachel	3	Marzo	2023-03-22T00:00:00	2024-11-08T07:00:00	1	Precipitación	0
26612	7	Sololá	710	Panajachel	8	Panajachel	3	Marzo	2023-03-22T00:00:00	2024-11-08T07:00:00	8	Radiación solar	15
26613	7	Sololá	710	Panajachel	8	Panajachel	3	Marzo	2023-03-22T00:00:00	2024-11-08T08:00:00	2	Temperatura media	20.8
26614	7	Sololá	710	Panajachel	8	Panajachel	3	Marzo	2023-03-22T00:00:00	2024-11-08T08:00:00	4	Temperatura máxima	20.8
26615	7	Sololá	710	Panajachel	8	Panajachel	3	Marzo	2023-03-22T00:00:00	2024-11-08T08:00:00	3	Temperatura mínima	19.2
26616	7	Sololá	710	Panajachel	8	Panajachel	3	Marzo	2023-03-22T00:00:00	2024-11-08T08:00:00	5	Humedad	70
26617	7	Sololá	710	Panajachel	8	Panajachel	3	Marzo	2023-03-22T00:00:00	2024-11-08T08:00:00	6	Velocidad del viento	1.6
26618	7	Sololá	710	Panajachel	8	Panajachel	3	Marzo	2023-03-22T00:00:00	2024-11-08T08:00:00	7	Dirección del viento	1.61
26619	7	Sololá	710	Panajachel	8	Panajachel	3	Marzo	2023-03-22T00:00:00	2024-11-08T08:00:00	1	Precipitación	0
26620	7	Sololá	710	Panajachel	8	Panajachel	3	Marzo	2023-03-22T00:00:00	2024-11-08T08:00:00	8	Radiación solar	131
26621	7	Sololá	710	Panajachel	8	Panajachel	3	Marzo	2023-03-22T00:00:00	2024-11-08T09:00:00	2	Temperatura media	21.9
26622	7	Sololá	710	Panajachel	8	Panajachel	3	Marzo	2023-03-22T00:00:00	2024-11-08T09:00:00	4	Temperatura máxima	22.2
26623	7	Sololá	710	Panajachel	8	Panajachel	3	Marzo	2023-03-22T00:00:00	2024-11-08T09:00:00	3	Temperatura mínima	20.8
26624	7	Sololá	710	Panajachel	8	Panajachel	3	Marzo	2023-03-22T00:00:00	2024-11-08T09:00:00	5	Humedad	65
26625	7	Sololá	710	Panajachel	8	Panajachel	3	Marzo	2023-03-22T00:00:00	2024-11-08T09:00:00	6	Velocidad del viento	4.8
26626	7	Sololá	710	Panajachel	8	Panajachel	3	Marzo	2023-03-22T00:00:00	2024-11-08T09:00:00	7	Dirección del viento	4.83
26627	7	Sololá	710	Panajachel	8	Panajachel	3	Marzo	2023-03-22T00:00:00	2024-11-08T09:00:00	1	Precipitación	0
26628	7	Sololá	710	Panajachel	8	Panajachel	3	Marzo	2023-03-22T00:00:00	2024-11-08T09:00:00	8	Radiación solar	341
26629	7	Sololá	710	Panajachel	8	Panajachel	3	Marzo	2023-03-22T00:00:00	2024-11-08T10:00:00	2	Temperatura media	23.8
26630	7	Sololá	710	Panajachel	8	Panajachel	3	Marzo	2023-03-22T00:00:00	2024-11-08T10:00:00	4	Temperatura máxima	23.9
26631	7	Sololá	710	Panajachel	8	Panajachel	3	Marzo	2023-03-22T00:00:00	2024-11-08T10:00:00	3	Temperatura mínima	21.9
26632	7	Sololá	710	Panajachel	8	Panajachel	3	Marzo	2023-03-22T00:00:00	2024-11-08T10:00:00	5	Humedad	58
26633	7	Sololá	710	Panajachel	8	Panajachel	3	Marzo	2023-03-22T00:00:00	2024-11-08T10:00:00	6	Velocidad del viento	6.4
26634	7	Sololá	710	Panajachel	8	Panajachel	3	Marzo	2023-03-22T00:00:00	2024-11-08T10:00:00	7	Dirección del viento	6.44
26635	7	Sololá	710	Panajachel	8	Panajachel	3	Marzo	2023-03-22T00:00:00	2024-11-08T10:00:00	1	Precipitación	0
26636	7	Sololá	710	Panajachel	8	Panajachel	3	Marzo	2023-03-22T00:00:00	2024-11-08T10:00:00	8	Radiación solar	759
26637	7	Sololá	710	Panajachel	8	Panajachel	3	Marzo	2023-03-22T00:00:00	2024-11-08T11:00:00	2	Temperatura media	24.2
26638	7	Sololá	710	Panajachel	8	Panajachel	3	Marzo	2023-03-22T00:00:00	2024-11-08T11:00:00	4	Temperatura máxima	24.3
26639	7	Sololá	710	Panajachel	8	Panajachel	3	Marzo	2023-03-22T00:00:00	2024-11-08T11:00:00	3	Temperatura mínima	23.3
26640	7	Sololá	710	Panajachel	8	Panajachel	3	Marzo	2023-03-22T00:00:00	2024-11-08T11:00:00	5	Humedad	56
26641	7	Sololá	710	Panajachel	8	Panajachel	3	Marzo	2023-03-22T00:00:00	2024-11-08T11:00:00	6	Velocidad del viento	6.4
26642	7	Sololá	710	Panajachel	8	Panajachel	3	Marzo	2023-03-22T00:00:00	2024-11-08T11:00:00	7	Dirección del viento	6.44
26643	7	Sololá	710	Panajachel	8	Panajachel	3	Marzo	2023-03-22T00:00:00	2024-11-08T11:00:00	1	Precipitación	0
26644	7	Sololá	710	Panajachel	8	Panajachel	3	Marzo	2023-03-22T00:00:00	2024-11-08T11:00:00	8	Radiación solar	679
26645	7	Sololá	710	Panajachel	8	Panajachel	3	Marzo	2023-03-22T00:00:00	2024-11-08T12:00:00	2	Temperatura media	25.8
26646	7	Sololá	710	Panajachel	8	Panajachel	3	Marzo	2023-03-22T00:00:00	2024-11-08T12:00:00	4	Temperatura máxima	25.8
26647	7	Sololá	710	Panajachel	8	Panajachel	3	Marzo	2023-03-22T00:00:00	2024-11-08T12:00:00	3	Temperatura mínima	24.2
26648	7	Sololá	710	Panajachel	8	Panajachel	3	Marzo	2023-03-22T00:00:00	2024-11-08T12:00:00	5	Humedad	53
26649	7	Sololá	710	Panajachel	8	Panajachel	3	Marzo	2023-03-22T00:00:00	2024-11-08T12:00:00	6	Velocidad del viento	9.7
26650	7	Sololá	710	Panajachel	8	Panajachel	3	Marzo	2023-03-22T00:00:00	2024-11-08T12:00:00	7	Dirección del viento	9.66
26651	7	Sololá	710	Panajachel	8	Panajachel	3	Marzo	2023-03-22T00:00:00	2024-11-08T12:00:00	1	Precipitación	0
26652	7	Sololá	710	Panajachel	8	Panajachel	3	Marzo	2023-03-22T00:00:00	2024-11-08T12:00:00	8	Radiación solar	1018
26653	7	Sololá	710	Panajachel	8	Panajachel	3	Marzo	2023-03-22T00:00:00	2024-11-08T13:00:00	2	Temperatura media	25.7
26654	7	Sololá	710	Panajachel	8	Panajachel	3	Marzo	2023-03-22T00:00:00	2024-11-08T13:00:00	4	Temperatura máxima	25.8
26655	7	Sololá	710	Panajachel	8	Panajachel	3	Marzo	2023-03-22T00:00:00	2024-11-08T13:00:00	3	Temperatura mínima	24.6
26656	7	Sololá	710	Panajachel	8	Panajachel	3	Marzo	2023-03-22T00:00:00	2024-11-08T13:00:00	5	Humedad	53
26657	7	Sololá	710	Panajachel	8	Panajachel	3	Marzo	2023-03-22T00:00:00	2024-11-08T13:00:00	6	Velocidad del viento	11.3
26658	7	Sololá	710	Panajachel	8	Panajachel	3	Marzo	2023-03-22T00:00:00	2024-11-08T13:00:00	7	Dirección del viento	11.27
26659	7	Sololá	710	Panajachel	8	Panajachel	3	Marzo	2023-03-22T00:00:00	2024-11-08T13:00:00	1	Precipitación	0
26660	7	Sololá	710	Panajachel	8	Panajachel	3	Marzo	2023-03-22T00:00:00	2024-11-08T13:00:00	8	Radiación solar	816
26661	7	Sololá	710	Panajachel	8	Panajachel	3	Marzo	2023-03-22T00:00:00	2024-11-08T14:00:00	2	Temperatura media	26.1
26662	7	Sololá	710	Panajachel	8	Panajachel	3	Marzo	2023-03-22T00:00:00	2024-11-08T14:00:00	4	Temperatura máxima	26.7
26663	7	Sololá	710	Panajachel	8	Panajachel	3	Marzo	2023-03-22T00:00:00	2024-11-08T14:00:00	3	Temperatura mínima	25.8
26664	7	Sololá	710	Panajachel	8	Panajachel	3	Marzo	2023-03-22T00:00:00	2024-11-08T14:00:00	5	Humedad	49
26665	7	Sololá	710	Panajachel	8	Panajachel	3	Marzo	2023-03-22T00:00:00	2024-11-08T14:00:00	6	Velocidad del viento	9.7
26666	7	Sololá	710	Panajachel	8	Panajachel	3	Marzo	2023-03-22T00:00:00	2024-11-08T14:00:00	7	Dirección del viento	9.66
26667	7	Sololá	710	Panajachel	8	Panajachel	3	Marzo	2023-03-22T00:00:00	2024-11-08T14:00:00	1	Precipitación	0
26668	7	Sololá	710	Panajachel	8	Panajachel	3	Marzo	2023-03-22T00:00:00	2024-11-08T14:00:00	8	Radiación solar	902
26669	7	Sololá	710	Panajachel	8	Panajachel	3	Marzo	2023-03-22T00:00:00	2024-11-08T15:00:00	2	Temperatura media	26.6
26670	7	Sololá	710	Panajachel	8	Panajachel	3	Marzo	2023-03-22T00:00:00	2024-11-08T15:00:00	4	Temperatura máxima	27.2
26671	7	Sololá	710	Panajachel	8	Panajachel	3	Marzo	2023-03-22T00:00:00	2024-11-08T15:00:00	3	Temperatura mínima	25.7
26672	7	Sololá	710	Panajachel	8	Panajachel	3	Marzo	2023-03-22T00:00:00	2024-11-08T15:00:00	5	Humedad	41
26673	7	Sololá	710	Panajachel	8	Panajachel	3	Marzo	2023-03-22T00:00:00	2024-11-08T15:00:00	6	Velocidad del viento	11.3
26674	7	Sololá	710	Panajachel	8	Panajachel	3	Marzo	2023-03-22T00:00:00	2024-11-08T15:00:00	7	Dirección del viento	11.27
26675	7	Sololá	710	Panajachel	8	Panajachel	3	Marzo	2023-03-22T00:00:00	2024-11-08T15:00:00	1	Precipitación	0
26676	7	Sololá	710	Panajachel	8	Panajachel	3	Marzo	2023-03-22T00:00:00	2024-11-08T15:00:00	8	Radiación solar	726
26677	7	Sololá	710	Panajachel	8	Panajachel	3	Marzo	2023-03-22T00:00:00	2024-11-08T16:00:00	2	Temperatura media	26.2
26678	7	Sololá	710	Panajachel	8	Panajachel	3	Marzo	2023-03-22T00:00:00	2024-11-08T16:00:00	4	Temperatura máxima	27
26679	7	Sololá	710	Panajachel	8	Panajachel	3	Marzo	2023-03-22T00:00:00	2024-11-08T16:00:00	3	Temperatura mínima	25.7
26680	7	Sololá	710	Panajachel	8	Panajachel	3	Marzo	2023-03-22T00:00:00	2024-11-08T16:00:00	5	Humedad	42
26681	7	Sololá	710	Panajachel	8	Panajachel	3	Marzo	2023-03-22T00:00:00	2024-11-08T16:00:00	6	Velocidad del viento	11.3
26682	7	Sololá	710	Panajachel	8	Panajachel	3	Marzo	2023-03-22T00:00:00	2024-11-08T16:00:00	7	Dirección del viento	11.27
26683	7	Sololá	710	Panajachel	8	Panajachel	3	Marzo	2023-03-22T00:00:00	2024-11-08T16:00:00	1	Precipitación	0
26684	7	Sololá	710	Panajachel	8	Panajachel	3	Marzo	2023-03-22T00:00:00	2024-11-08T16:00:00	8	Radiación solar	513
26685	7	Sololá	710	Panajachel	8	Panajachel	3	Marzo	2023-03-22T00:00:00	2024-11-08T17:00:00	2	Temperatura media	25.7
26686	7	Sololá	710	Panajachel	8	Panajachel	3	Marzo	2023-03-22T00:00:00	2024-11-08T17:00:00	4	Temperatura máxima	26.8
26687	7	Sololá	710	Panajachel	8	Panajachel	3	Marzo	2023-03-22T00:00:00	2024-11-08T17:00:00	3	Temperatura mínima	25.7
26688	7	Sololá	710	Panajachel	8	Panajachel	3	Marzo	2023-03-22T00:00:00	2024-11-08T17:00:00	5	Humedad	43
26689	7	Sololá	710	Panajachel	8	Panajachel	3	Marzo	2023-03-22T00:00:00	2024-11-08T17:00:00	6	Velocidad del viento	8
26690	7	Sololá	710	Panajachel	8	Panajachel	3	Marzo	2023-03-22T00:00:00	2024-11-08T17:00:00	7	Dirección del viento	8.05
26691	7	Sololá	710	Panajachel	8	Panajachel	3	Marzo	2023-03-22T00:00:00	2024-11-08T17:00:00	1	Precipitación	0
26692	7	Sololá	710	Panajachel	8	Panajachel	3	Marzo	2023-03-22T00:00:00	2024-11-08T17:00:00	8	Radiación solar	317
26693	7	Sololá	710	Panajachel	8	Panajachel	3	Marzo	2023-03-22T00:00:00	2024-11-08T18:00:00	2	Temperatura media	23.8
26694	7	Sololá	710	Panajachel	8	Panajachel	3	Marzo	2023-03-22T00:00:00	2024-11-08T18:00:00	4	Temperatura máxima	25.7
26695	7	Sololá	710	Panajachel	8	Panajachel	3	Marzo	2023-03-22T00:00:00	2024-11-08T18:00:00	3	Temperatura mínima	23.8
26696	7	Sololá	710	Panajachel	8	Panajachel	3	Marzo	2023-03-22T00:00:00	2024-11-08T18:00:00	5	Humedad	52
26697	7	Sololá	710	Panajachel	8	Panajachel	3	Marzo	2023-03-22T00:00:00	2024-11-08T18:00:00	6	Velocidad del viento	8
26698	7	Sololá	710	Panajachel	8	Panajachel	3	Marzo	2023-03-22T00:00:00	2024-11-08T18:00:00	7	Dirección del viento	8.05
26699	7	Sololá	710	Panajachel	8	Panajachel	3	Marzo	2023-03-22T00:00:00	2024-11-08T18:00:00	1	Precipitación	0
26700	7	Sololá	710	Panajachel	8	Panajachel	3	Marzo	2023-03-22T00:00:00	2024-11-08T18:00:00	8	Radiación solar	58
26701	7	Sololá	710	Panajachel	8	Panajachel	3	Marzo	2023-03-22T00:00:00	2024-11-08T19:00:00	2	Temperatura media	21.8
26702	7	Sololá	710	Panajachel	8	Panajachel	3	Marzo	2023-03-22T00:00:00	2024-11-08T19:00:00	4	Temperatura máxima	23.8
26703	7	Sololá	710	Panajachel	8	Panajachel	3	Marzo	2023-03-22T00:00:00	2024-11-08T19:00:00	3	Temperatura mínima	21.8
26704	7	Sololá	710	Panajachel	8	Panajachel	3	Marzo	2023-03-22T00:00:00	2024-11-08T19:00:00	5	Humedad	60
26705	7	Sololá	710	Panajachel	8	Panajachel	3	Marzo	2023-03-22T00:00:00	2024-11-08T19:00:00	6	Velocidad del viento	4.8
26706	7	Sololá	710	Panajachel	8	Panajachel	3	Marzo	2023-03-22T00:00:00	2024-11-08T19:00:00	7	Dirección del viento	4.83
26707	7	Sololá	710	Panajachel	8	Panajachel	3	Marzo	2023-03-22T00:00:00	2024-11-08T19:00:00	1	Precipitación	0
26708	7	Sololá	710	Panajachel	8	Panajachel	3	Marzo	2023-03-22T00:00:00	2024-11-08T19:00:00	8	Radiación solar	0
26709	7	Sololá	710	Panajachel	8	Panajachel	3	Marzo	2023-03-22T00:00:00	2024-11-08T20:00:00	2	Temperatura media	20.8
26710	7	Sololá	710	Panajachel	8	Panajachel	3	Marzo	2023-03-22T00:00:00	2024-11-08T20:00:00	4	Temperatura máxima	21.8
26711	7	Sololá	710	Panajachel	8	Panajachel	3	Marzo	2023-03-22T00:00:00	2024-11-08T20:00:00	3	Temperatura mínima	20.7
26712	7	Sololá	710	Panajachel	8	Panajachel	3	Marzo	2023-03-22T00:00:00	2024-11-08T20:00:00	5	Humedad	63
26713	7	Sololá	710	Panajachel	8	Panajachel	3	Marzo	2023-03-22T00:00:00	2024-11-08T20:00:00	6	Velocidad del viento	3.2
26714	7	Sololá	710	Panajachel	8	Panajachel	3	Marzo	2023-03-22T00:00:00	2024-11-08T20:00:00	7	Dirección del viento	3.22
26715	7	Sololá	710	Panajachel	8	Panajachel	3	Marzo	2023-03-22T00:00:00	2024-11-08T20:00:00	1	Precipitación	0
26716	7	Sololá	710	Panajachel	8	Panajachel	3	Marzo	2023-03-22T00:00:00	2024-11-08T20:00:00	8	Radiación solar	0
26717	7	Sololá	710	Panajachel	8	Panajachel	3	Marzo	2023-03-22T00:00:00	2024-11-08T21:00:00	2	Temperatura media	19.7
26718	7	Sololá	710	Panajachel	8	Panajachel	3	Marzo	2023-03-22T00:00:00	2024-11-08T21:00:00	4	Temperatura máxima	20.8
26719	7	Sololá	710	Panajachel	8	Panajachel	3	Marzo	2023-03-22T00:00:00	2024-11-08T21:00:00	3	Temperatura mínima	19.7
26720	7	Sololá	710	Panajachel	8	Panajachel	3	Marzo	2023-03-22T00:00:00	2024-11-08T21:00:00	5	Humedad	67
26721	7	Sololá	710	Panajachel	8	Panajachel	3	Marzo	2023-03-22T00:00:00	2024-11-08T21:00:00	6	Velocidad del viento	0
26722	7	Sololá	710	Panajachel	8	Panajachel	3	Marzo	2023-03-22T00:00:00	2024-11-08T21:00:00	7	Dirección del viento	0
26723	7	Sololá	710	Panajachel	8	Panajachel	3	Marzo	2023-03-22T00:00:00	2024-11-08T21:00:00	1	Precipitación	0
26724	7	Sololá	710	Panajachel	8	Panajachel	3	Marzo	2023-03-22T00:00:00	2024-11-08T21:00:00	8	Radiación solar	0
26725	7	Sololá	710	Panajachel	8	Panajachel	3	Marzo	2023-03-22T00:00:00	2024-11-08T22:00:00	2	Temperatura media	19.5
26726	7	Sololá	710	Panajachel	8	Panajachel	3	Marzo	2023-03-22T00:00:00	2024-11-08T22:00:00	4	Temperatura máxima	19.7
26727	7	Sololá	710	Panajachel	8	Panajachel	3	Marzo	2023-03-22T00:00:00	2024-11-08T22:00:00	3	Temperatura mínima	18.6
26728	7	Sololá	710	Panajachel	8	Panajachel	3	Marzo	2023-03-22T00:00:00	2024-11-08T22:00:00	5	Humedad	67
26729	7	Sololá	710	Panajachel	8	Panajachel	3	Marzo	2023-03-22T00:00:00	2024-11-08T22:00:00	6	Velocidad del viento	1.6
26730	7	Sololá	710	Panajachel	8	Panajachel	3	Marzo	2023-03-22T00:00:00	2024-11-08T22:00:00	7	Dirección del viento	1.61
26731	7	Sololá	710	Panajachel	8	Panajachel	3	Marzo	2023-03-22T00:00:00	2024-11-08T22:00:00	1	Precipitación	0
26732	7	Sololá	710	Panajachel	8	Panajachel	3	Marzo	2023-03-22T00:00:00	2024-11-08T22:00:00	8	Radiación solar	0
26733	7	Sololá	710	Panajachel	8	Panajachel	3	Marzo	2023-03-22T00:00:00	2024-11-08T23:00:00	2	Temperatura media	19.5
26734	7	Sololá	710	Panajachel	8	Panajachel	3	Marzo	2023-03-22T00:00:00	2024-11-08T23:00:00	4	Temperatura máxima	19.7
26735	7	Sololá	710	Panajachel	8	Panajachel	3	Marzo	2023-03-22T00:00:00	2024-11-08T23:00:00	3	Temperatura mínima	19.4
26736	7	Sololá	710	Panajachel	8	Panajachel	3	Marzo	2023-03-22T00:00:00	2024-11-08T23:00:00	5	Humedad	64
26737	7	Sololá	710	Panajachel	8	Panajachel	3	Marzo	2023-03-22T00:00:00	2024-11-08T23:00:00	6	Velocidad del viento	12.9
26738	7	Sololá	710	Panajachel	8	Panajachel	3	Marzo	2023-03-22T00:00:00	2024-11-08T23:00:00	7	Dirección del viento	12.87
26739	7	Sololá	710	Panajachel	8	Panajachel	3	Marzo	2023-03-22T00:00:00	2024-11-08T23:00:00	1	Precipitación	0
26740	7	Sololá	710	Panajachel	8	Panajachel	3	Marzo	2023-03-22T00:00:00	2024-11-08T23:00:00	8	Radiación solar	0
26741	7	Sololá	710	Panajachel	8	Panajachel	3	Marzo	2023-03-23T00:00:00	2024-11-08T00:00:00	2	Temperatura media	19.2
26742	7	Sololá	710	Panajachel	8	Panajachel	3	Marzo	2023-03-23T00:00:00	2024-11-08T00:00:00	4	Temperatura máxima	19.7
26743	7	Sololá	710	Panajachel	8	Panajachel	3	Marzo	2023-03-23T00:00:00	2024-11-08T00:00:00	3	Temperatura mínima	19.2
26744	7	Sololá	710	Panajachel	8	Panajachel	3	Marzo	2023-03-23T00:00:00	2024-11-08T00:00:00	5	Humedad	64
26745	7	Sololá	710	Panajachel	8	Panajachel	3	Marzo	2023-03-23T00:00:00	2024-11-08T00:00:00	6	Velocidad del viento	9.7
26746	7	Sololá	710	Panajachel	8	Panajachel	3	Marzo	2023-03-23T00:00:00	2024-11-08T00:00:00	7	Dirección del viento	9.66
26747	7	Sololá	710	Panajachel	8	Panajachel	3	Marzo	2023-03-23T00:00:00	2024-11-08T00:00:00	1	Precipitación	0
26748	7	Sololá	710	Panajachel	8	Panajachel	3	Marzo	2023-03-23T00:00:00	2024-11-08T00:00:00	8	Radiación solar	0
26749	7	Sololá	710	Panajachel	8	Panajachel	3	Marzo	2023-03-23T00:00:00	2024-11-08T01:00:00	2	Temperatura media	17.1
26750	7	Sololá	710	Panajachel	8	Panajachel	3	Marzo	2023-03-23T00:00:00	2024-11-08T01:00:00	4	Temperatura máxima	19.1
26751	7	Sololá	710	Panajachel	8	Panajachel	3	Marzo	2023-03-23T00:00:00	2024-11-08T01:00:00	3	Temperatura mínima	17.1
26752	7	Sololá	710	Panajachel	8	Panajachel	3	Marzo	2023-03-23T00:00:00	2024-11-08T01:00:00	5	Humedad	71
26753	7	Sololá	710	Panajachel	8	Panajachel	3	Marzo	2023-03-23T00:00:00	2024-11-08T01:00:00	6	Velocidad del viento	3.2
26754	7	Sololá	710	Panajachel	8	Panajachel	3	Marzo	2023-03-23T00:00:00	2024-11-08T01:00:00	7	Dirección del viento	3.22
26755	7	Sololá	710	Panajachel	8	Panajachel	3	Marzo	2023-03-23T00:00:00	2024-11-08T01:00:00	1	Precipitación	0
26756	7	Sololá	710	Panajachel	8	Panajachel	3	Marzo	2023-03-23T00:00:00	2024-11-08T01:00:00	8	Radiación solar	0
26757	7	Sololá	710	Panajachel	8	Panajachel	3	Marzo	2023-03-23T00:00:00	2024-11-08T02:00:00	2	Temperatura media	16.7
26758	7	Sololá	710	Panajachel	8	Panajachel	3	Marzo	2023-03-23T00:00:00	2024-11-08T02:00:00	4	Temperatura máxima	17.1
26759	7	Sololá	710	Panajachel	8	Panajachel	3	Marzo	2023-03-23T00:00:00	2024-11-08T02:00:00	3	Temperatura mínima	16.4
26760	7	Sololá	710	Panajachel	8	Panajachel	3	Marzo	2023-03-23T00:00:00	2024-11-08T02:00:00	5	Humedad	72
26761	7	Sololá	710	Panajachel	8	Panajachel	3	Marzo	2023-03-23T00:00:00	2024-11-08T02:00:00	6	Velocidad del viento	1.6
26762	7	Sololá	710	Panajachel	8	Panajachel	3	Marzo	2023-03-23T00:00:00	2024-11-08T02:00:00	7	Dirección del viento	1.61
26763	7	Sololá	710	Panajachel	8	Panajachel	3	Marzo	2023-03-23T00:00:00	2024-11-08T02:00:00	1	Precipitación	0
26764	7	Sololá	710	Panajachel	8	Panajachel	3	Marzo	2023-03-23T00:00:00	2024-11-08T02:00:00	8	Radiación solar	0
26765	7	Sololá	710	Panajachel	8	Panajachel	3	Marzo	2023-03-23T00:00:00	2024-11-08T03:00:00	2	Temperatura media	17.2
26766	7	Sololá	710	Panajachel	8	Panajachel	3	Marzo	2023-03-23T00:00:00	2024-11-08T03:00:00	4	Temperatura máxima	17.2
26767	7	Sololá	710	Panajachel	8	Panajachel	3	Marzo	2023-03-23T00:00:00	2024-11-08T03:00:00	3	Temperatura mínima	16.3
26768	7	Sololá	710	Panajachel	8	Panajachel	3	Marzo	2023-03-23T00:00:00	2024-11-08T03:00:00	5	Humedad	70
26769	7	Sololá	710	Panajachel	8	Panajachel	3	Marzo	2023-03-23T00:00:00	2024-11-08T03:00:00	6	Velocidad del viento	3.2
26770	7	Sololá	710	Panajachel	8	Panajachel	3	Marzo	2023-03-23T00:00:00	2024-11-08T03:00:00	7	Dirección del viento	3.22
26771	7	Sololá	710	Panajachel	8	Panajachel	3	Marzo	2023-03-23T00:00:00	2024-11-08T03:00:00	1	Precipitación	0
26772	7	Sololá	710	Panajachel	8	Panajachel	3	Marzo	2023-03-23T00:00:00	2024-11-08T03:00:00	8	Radiación solar	0
26773	7	Sololá	710	Panajachel	8	Panajachel	3	Marzo	2023-03-23T00:00:00	2024-11-08T04:00:00	2	Temperatura media	17
26774	7	Sololá	710	Panajachel	8	Panajachel	3	Marzo	2023-03-23T00:00:00	2024-11-08T04:00:00	4	Temperatura máxima	17.2
26775	7	Sololá	710	Panajachel	8	Panajachel	3	Marzo	2023-03-23T00:00:00	2024-11-08T04:00:00	3	Temperatura mínima	16.4
26776	7	Sololá	710	Panajachel	8	Panajachel	3	Marzo	2023-03-23T00:00:00	2024-11-08T04:00:00	5	Humedad	73
26777	7	Sololá	710	Panajachel	8	Panajachel	3	Marzo	2023-03-23T00:00:00	2024-11-08T04:00:00	6	Velocidad del viento	1.6
26778	7	Sololá	710	Panajachel	8	Panajachel	3	Marzo	2023-03-23T00:00:00	2024-11-08T04:00:00	7	Dirección del viento	1.61
26779	7	Sololá	710	Panajachel	8	Panajachel	3	Marzo	2023-03-23T00:00:00	2024-11-08T04:00:00	1	Precipitación	0
26780	7	Sololá	710	Panajachel	8	Panajachel	3	Marzo	2023-03-23T00:00:00	2024-11-08T04:00:00	8	Radiación solar	0
26781	7	Sololá	710	Panajachel	8	Panajachel	3	Marzo	2023-03-23T00:00:00	2024-11-08T05:00:00	2	Temperatura media	16.8
26782	7	Sololá	710	Panajachel	8	Panajachel	3	Marzo	2023-03-23T00:00:00	2024-11-08T05:00:00	4	Temperatura máxima	17
26783	7	Sololá	710	Panajachel	8	Panajachel	3	Marzo	2023-03-23T00:00:00	2024-11-08T05:00:00	3	Temperatura mínima	16.6
26784	7	Sololá	710	Panajachel	8	Panajachel	3	Marzo	2023-03-23T00:00:00	2024-11-08T05:00:00	5	Humedad	74
26785	7	Sololá	710	Panajachel	8	Panajachel	3	Marzo	2023-03-23T00:00:00	2024-11-08T05:00:00	6	Velocidad del viento	1.6
26786	7	Sololá	710	Panajachel	8	Panajachel	3	Marzo	2023-03-23T00:00:00	2024-11-08T05:00:00	7	Dirección del viento	1.61
26787	7	Sololá	710	Panajachel	8	Panajachel	3	Marzo	2023-03-23T00:00:00	2024-11-08T05:00:00	1	Precipitación	0
26788	7	Sololá	710	Panajachel	8	Panajachel	3	Marzo	2023-03-23T00:00:00	2024-11-08T05:00:00	8	Radiación solar	0
26789	7	Sololá	710	Panajachel	8	Panajachel	3	Marzo	2023-03-23T00:00:00	2024-11-08T06:00:00	2	Temperatura media	16.2
26790	7	Sololá	710	Panajachel	8	Panajachel	3	Marzo	2023-03-23T00:00:00	2024-11-08T06:00:00	4	Temperatura máxima	17.3
26791	7	Sololá	710	Panajachel	8	Panajachel	3	Marzo	2023-03-23T00:00:00	2024-11-08T06:00:00	3	Temperatura mínima	16.2
26792	7	Sololá	710	Panajachel	8	Panajachel	3	Marzo	2023-03-23T00:00:00	2024-11-08T06:00:00	5	Humedad	75
26793	7	Sololá	710	Panajachel	8	Panajachel	3	Marzo	2023-03-23T00:00:00	2024-11-08T06:00:00	6	Velocidad del viento	1.6
26794	7	Sololá	710	Panajachel	8	Panajachel	3	Marzo	2023-03-23T00:00:00	2024-11-08T06:00:00	7	Dirección del viento	1.61
26795	7	Sololá	710	Panajachel	8	Panajachel	3	Marzo	2023-03-23T00:00:00	2024-11-08T06:00:00	1	Precipitación	0
26796	7	Sololá	710	Panajachel	8	Panajachel	3	Marzo	2023-03-23T00:00:00	2024-11-08T06:00:00	8	Radiación solar	0
26797	7	Sololá	710	Panajachel	8	Panajachel	3	Marzo	2023-03-23T00:00:00	2024-11-08T07:00:00	2	Temperatura media	16.6
26798	7	Sololá	710	Panajachel	8	Panajachel	3	Marzo	2023-03-23T00:00:00	2024-11-08T07:00:00	4	Temperatura máxima	16.6
26799	7	Sololá	710	Panajachel	8	Panajachel	3	Marzo	2023-03-23T00:00:00	2024-11-08T07:00:00	3	Temperatura mínima	15.9
26800	7	Sololá	710	Panajachel	8	Panajachel	3	Marzo	2023-03-23T00:00:00	2024-11-08T07:00:00	5	Humedad	75
26801	7	Sololá	710	Panajachel	8	Panajachel	3	Marzo	2023-03-23T00:00:00	2024-11-08T07:00:00	6	Velocidad del viento	0
26802	7	Sololá	710	Panajachel	8	Panajachel	3	Marzo	2023-03-23T00:00:00	2024-11-08T07:00:00	7	Dirección del viento	0
26803	7	Sololá	710	Panajachel	8	Panajachel	3	Marzo	2023-03-23T00:00:00	2024-11-08T07:00:00	1	Precipitación	0
26804	7	Sololá	710	Panajachel	8	Panajachel	3	Marzo	2023-03-23T00:00:00	2024-11-08T07:00:00	8	Radiación solar	23
26805	7	Sololá	710	Panajachel	8	Panajachel	3	Marzo	2023-03-23T00:00:00	2024-11-08T08:00:00	2	Temperatura media	20
26806	7	Sololá	710	Panajachel	8	Panajachel	3	Marzo	2023-03-23T00:00:00	2024-11-08T08:00:00	4	Temperatura máxima	20
26807	7	Sololá	710	Panajachel	8	Panajachel	3	Marzo	2023-03-23T00:00:00	2024-11-08T08:00:00	3	Temperatura mínima	16.6
26808	7	Sololá	710	Panajachel	8	Panajachel	3	Marzo	2023-03-23T00:00:00	2024-11-08T08:00:00	5	Humedad	67
26809	7	Sololá	710	Panajachel	8	Panajachel	3	Marzo	2023-03-23T00:00:00	2024-11-08T08:00:00	6	Velocidad del viento	0
26810	7	Sololá	710	Panajachel	8	Panajachel	3	Marzo	2023-03-23T00:00:00	2024-11-08T08:00:00	7	Dirección del viento	0
26811	7	Sololá	710	Panajachel	8	Panajachel	3	Marzo	2023-03-23T00:00:00	2024-11-08T08:00:00	1	Precipitación	0
26812	7	Sololá	710	Panajachel	8	Panajachel	3	Marzo	2023-03-23T00:00:00	2024-11-08T08:00:00	8	Radiación solar	271
26813	7	Sololá	710	Panajachel	8	Panajachel	3	Marzo	2023-03-23T00:00:00	2024-11-08T09:00:00	2	Temperatura media	20.3
26814	7	Sololá	710	Panajachel	8	Panajachel	3	Marzo	2023-03-23T00:00:00	2024-11-08T09:00:00	4	Temperatura máxima	20.9
26815	7	Sololá	710	Panajachel	8	Panajachel	3	Marzo	2023-03-23T00:00:00	2024-11-08T09:00:00	3	Temperatura mínima	20
26816	7	Sololá	710	Panajachel	8	Panajachel	3	Marzo	2023-03-23T00:00:00	2024-11-08T09:00:00	5	Humedad	70
26817	7	Sololá	710	Panajachel	8	Panajachel	3	Marzo	2023-03-23T00:00:00	2024-11-08T09:00:00	6	Velocidad del viento	1.6
26818	7	Sololá	710	Panajachel	8	Panajachel	3	Marzo	2023-03-23T00:00:00	2024-11-08T09:00:00	7	Dirección del viento	1.61
26819	7	Sololá	710	Panajachel	8	Panajachel	3	Marzo	2023-03-23T00:00:00	2024-11-08T09:00:00	1	Precipitación	0
26820	7	Sololá	710	Panajachel	8	Panajachel	3	Marzo	2023-03-23T00:00:00	2024-11-08T09:00:00	8	Radiación solar	512
26821	7	Sololá	710	Panajachel	8	Panajachel	3	Marzo	2023-03-23T00:00:00	2024-11-08T10:00:00	2	Temperatura media	21.8
26822	7	Sololá	710	Panajachel	8	Panajachel	3	Marzo	2023-03-23T00:00:00	2024-11-08T10:00:00	4	Temperatura máxima	22.2
26823	7	Sololá	710	Panajachel	8	Panajachel	3	Marzo	2023-03-23T00:00:00	2024-11-08T10:00:00	3	Temperatura mínima	20.3
26824	7	Sololá	710	Panajachel	8	Panajachel	3	Marzo	2023-03-23T00:00:00	2024-11-08T10:00:00	5	Humedad	67
26825	7	Sololá	710	Panajachel	8	Panajachel	3	Marzo	2023-03-23T00:00:00	2024-11-08T10:00:00	6	Velocidad del viento	1.6
26826	7	Sololá	710	Panajachel	8	Panajachel	3	Marzo	2023-03-23T00:00:00	2024-11-08T10:00:00	7	Dirección del viento	1.61
26827	7	Sololá	710	Panajachel	8	Panajachel	3	Marzo	2023-03-23T00:00:00	2024-11-08T10:00:00	1	Precipitación	0
26828	7	Sololá	710	Panajachel	8	Panajachel	3	Marzo	2023-03-23T00:00:00	2024-11-08T10:00:00	8	Radiación solar	732
26829	7	Sololá	710	Panajachel	8	Panajachel	3	Marzo	2023-03-23T00:00:00	2024-11-08T11:00:00	2	Temperatura media	24.6
26830	7	Sololá	710	Panajachel	8	Panajachel	3	Marzo	2023-03-23T00:00:00	2024-11-08T11:00:00	4	Temperatura máxima	25.1
26831	7	Sololá	710	Panajachel	8	Panajachel	3	Marzo	2023-03-23T00:00:00	2024-11-08T11:00:00	3	Temperatura mínima	21.8
26832	7	Sololá	710	Panajachel	8	Panajachel	3	Marzo	2023-03-23T00:00:00	2024-11-08T11:00:00	5	Humedad	51
26833	7	Sololá	710	Panajachel	8	Panajachel	3	Marzo	2023-03-23T00:00:00	2024-11-08T11:00:00	6	Velocidad del viento	4.8
26834	7	Sololá	710	Panajachel	8	Panajachel	3	Marzo	2023-03-23T00:00:00	2024-11-08T11:00:00	7	Dirección del viento	4.83
26835	7	Sololá	710	Panajachel	8	Panajachel	3	Marzo	2023-03-23T00:00:00	2024-11-08T11:00:00	1	Precipitación	0
26836	7	Sololá	710	Panajachel	8	Panajachel	3	Marzo	2023-03-23T00:00:00	2024-11-08T11:00:00	8	Radiación solar	919
26837	7	Sololá	710	Panajachel	8	Panajachel	3	Marzo	2023-03-23T00:00:00	2024-11-08T12:00:00	2	Temperatura media	25.8
26838	7	Sololá	710	Panajachel	8	Panajachel	3	Marzo	2023-03-23T00:00:00	2024-11-08T12:00:00	4	Temperatura máxima	26.2
26839	7	Sololá	710	Panajachel	8	Panajachel	3	Marzo	2023-03-23T00:00:00	2024-11-08T12:00:00	3	Temperatura mínima	24.6
26840	7	Sololá	710	Panajachel	8	Panajachel	3	Marzo	2023-03-23T00:00:00	2024-11-08T12:00:00	5	Humedad	48
26841	7	Sololá	710	Panajachel	8	Panajachel	3	Marzo	2023-03-23T00:00:00	2024-11-08T12:00:00	6	Velocidad del viento	9.7
26842	7	Sololá	710	Panajachel	8	Panajachel	3	Marzo	2023-03-23T00:00:00	2024-11-08T12:00:00	7	Dirección del viento	9.66
26843	7	Sololá	710	Panajachel	8	Panajachel	3	Marzo	2023-03-23T00:00:00	2024-11-08T12:00:00	1	Precipitación	0
26844	7	Sololá	710	Panajachel	8	Panajachel	3	Marzo	2023-03-23T00:00:00	2024-11-08T12:00:00	8	Radiación solar	1050
26845	7	Sololá	710	Panajachel	8	Panajachel	3	Marzo	2023-03-23T00:00:00	2024-11-08T13:00:00	2	Temperatura media	25.2
26846	7	Sololá	710	Panajachel	8	Panajachel	3	Marzo	2023-03-23T00:00:00	2024-11-08T13:00:00	4	Temperatura máxima	26.6
26847	7	Sololá	710	Panajachel	8	Panajachel	3	Marzo	2023-03-23T00:00:00	2024-11-08T13:00:00	3	Temperatura mínima	25.1
26848	7	Sololá	710	Panajachel	8	Panajachel	3	Marzo	2023-03-23T00:00:00	2024-11-08T13:00:00	5	Humedad	49
26849	7	Sololá	710	Panajachel	8	Panajachel	3	Marzo	2023-03-23T00:00:00	2024-11-08T13:00:00	6	Velocidad del viento	8
26850	7	Sololá	710	Panajachel	8	Panajachel	3	Marzo	2023-03-23T00:00:00	2024-11-08T13:00:00	7	Dirección del viento	8.05
26851	7	Sololá	710	Panajachel	8	Panajachel	3	Marzo	2023-03-23T00:00:00	2024-11-08T13:00:00	1	Precipitación	0
26852	7	Sololá	710	Panajachel	8	Panajachel	3	Marzo	2023-03-23T00:00:00	2024-11-08T13:00:00	8	Radiación solar	479
26853	7	Sololá	710	Panajachel	8	Panajachel	3	Marzo	2023-03-23T00:00:00	2024-11-08T14:00:00	2	Temperatura media	25.9
26854	7	Sololá	710	Panajachel	8	Panajachel	3	Marzo	2023-03-23T00:00:00	2024-11-08T14:00:00	4	Temperatura máxima	25.9
26855	7	Sololá	710	Panajachel	8	Panajachel	3	Marzo	2023-03-23T00:00:00	2024-11-08T14:00:00	3	Temperatura mínima	25
26856	7	Sololá	710	Panajachel	8	Panajachel	3	Marzo	2023-03-23T00:00:00	2024-11-08T14:00:00	5	Humedad	46
26857	7	Sololá	710	Panajachel	8	Panajachel	3	Marzo	2023-03-23T00:00:00	2024-11-08T14:00:00	6	Velocidad del viento	6.4
26858	7	Sololá	710	Panajachel	8	Panajachel	3	Marzo	2023-03-23T00:00:00	2024-11-08T14:00:00	7	Dirección del viento	6.44
26859	7	Sololá	710	Panajachel	8	Panajachel	3	Marzo	2023-03-23T00:00:00	2024-11-08T14:00:00	1	Precipitación	0
26860	7	Sololá	710	Panajachel	8	Panajachel	3	Marzo	2023-03-23T00:00:00	2024-11-08T14:00:00	8	Radiación solar	394
26861	7	Sololá	710	Panajachel	8	Panajachel	3	Marzo	2023-03-23T00:00:00	2024-11-08T15:00:00	2	Temperatura media	23.4
26862	7	Sololá	710	Panajachel	8	Panajachel	3	Marzo	2023-03-23T00:00:00	2024-11-08T15:00:00	4	Temperatura máxima	26.4
26863	7	Sololá	710	Panajachel	8	Panajachel	3	Marzo	2023-03-23T00:00:00	2024-11-08T15:00:00	3	Temperatura mínima	23
26864	7	Sololá	710	Panajachel	8	Panajachel	3	Marzo	2023-03-23T00:00:00	2024-11-08T15:00:00	5	Humedad	59
26865	7	Sololá	710	Panajachel	8	Panajachel	3	Marzo	2023-03-23T00:00:00	2024-11-08T15:00:00	6	Velocidad del viento	6.4
26866	7	Sololá	710	Panajachel	8	Panajachel	3	Marzo	2023-03-23T00:00:00	2024-11-08T15:00:00	7	Dirección del viento	6.44
26867	7	Sololá	710	Panajachel	8	Panajachel	3	Marzo	2023-03-23T00:00:00	2024-11-08T15:00:00	1	Precipitación	0
26868	7	Sololá	710	Panajachel	8	Panajachel	3	Marzo	2023-03-23T00:00:00	2024-11-08T15:00:00	8	Radiación solar	259
26869	7	Sololá	710	Panajachel	8	Panajachel	3	Marzo	2023-03-23T00:00:00	2024-11-08T16:00:00	2	Temperatura media	24.1
26870	7	Sololá	710	Panajachel	8	Panajachel	3	Marzo	2023-03-23T00:00:00	2024-11-08T16:00:00	4	Temperatura máxima	24.4
26871	7	Sololá	710	Panajachel	8	Panajachel	3	Marzo	2023-03-23T00:00:00	2024-11-08T16:00:00	3	Temperatura mínima	23.4
26872	7	Sololá	710	Panajachel	8	Panajachel	3	Marzo	2023-03-23T00:00:00	2024-11-08T16:00:00	5	Humedad	66
26873	7	Sololá	710	Panajachel	8	Panajachel	3	Marzo	2023-03-23T00:00:00	2024-11-08T16:00:00	6	Velocidad del viento	3.2
26874	7	Sololá	710	Panajachel	8	Panajachel	3	Marzo	2023-03-23T00:00:00	2024-11-08T16:00:00	7	Dirección del viento	3.22
26875	7	Sololá	710	Panajachel	8	Panajachel	3	Marzo	2023-03-23T00:00:00	2024-11-08T16:00:00	1	Precipitación	0
26876	7	Sololá	710	Panajachel	8	Panajachel	3	Marzo	2023-03-23T00:00:00	2024-11-08T16:00:00	8	Radiación solar	279
26877	7	Sololá	710	Panajachel	8	Panajachel	3	Marzo	2023-03-23T00:00:00	2024-11-08T17:00:00	2	Temperatura media	23.1
26878	7	Sololá	710	Panajachel	8	Panajachel	3	Marzo	2023-03-23T00:00:00	2024-11-08T17:00:00	4	Temperatura máxima	24.4
26879	7	Sololá	710	Panajachel	8	Panajachel	3	Marzo	2023-03-23T00:00:00	2024-11-08T17:00:00	3	Temperatura mínima	23.1
26880	7	Sololá	710	Panajachel	8	Panajachel	3	Marzo	2023-03-23T00:00:00	2024-11-08T17:00:00	5	Humedad	77
26881	7	Sololá	710	Panajachel	8	Panajachel	3	Marzo	2023-03-23T00:00:00	2024-11-08T17:00:00	6	Velocidad del viento	3.2
26882	7	Sololá	710	Panajachel	8	Panajachel	3	Marzo	2023-03-23T00:00:00	2024-11-08T17:00:00	7	Dirección del viento	3.22
26883	7	Sololá	710	Panajachel	8	Panajachel	3	Marzo	2023-03-23T00:00:00	2024-11-08T17:00:00	1	Precipitación	0
26884	7	Sololá	710	Panajachel	8	Panajachel	3	Marzo	2023-03-23T00:00:00	2024-11-08T17:00:00	8	Radiación solar	201
26885	7	Sololá	710	Panajachel	8	Panajachel	3	Marzo	2023-03-23T00:00:00	2024-11-08T18:00:00	2	Temperatura media	21.4
26886	7	Sololá	710	Panajachel	8	Panajachel	3	Marzo	2023-03-23T00:00:00	2024-11-08T18:00:00	4	Temperatura máxima	23.3
26887	7	Sololá	710	Panajachel	8	Panajachel	3	Marzo	2023-03-23T00:00:00	2024-11-08T18:00:00	3	Temperatura mínima	21.4
26888	7	Sololá	710	Panajachel	8	Panajachel	3	Marzo	2023-03-23T00:00:00	2024-11-08T18:00:00	5	Humedad	81
26889	7	Sololá	710	Panajachel	8	Panajachel	3	Marzo	2023-03-23T00:00:00	2024-11-08T18:00:00	6	Velocidad del viento	1.6
26890	7	Sololá	710	Panajachel	8	Panajachel	3	Marzo	2023-03-23T00:00:00	2024-11-08T18:00:00	7	Dirección del viento	1.61
26891	7	Sololá	710	Panajachel	8	Panajachel	3	Marzo	2023-03-23T00:00:00	2024-11-08T18:00:00	1	Precipitación	0
26892	7	Sololá	710	Panajachel	8	Panajachel	3	Marzo	2023-03-23T00:00:00	2024-11-08T18:00:00	8	Radiación solar	37
26893	7	Sololá	710	Panajachel	8	Panajachel	3	Marzo	2023-03-23T00:00:00	2024-11-08T19:00:00	2	Temperatura media	21.6
26894	7	Sololá	710	Panajachel	8	Panajachel	3	Marzo	2023-03-23T00:00:00	2024-11-08T19:00:00	4	Temperatura máxima	21.6
26895	7	Sololá	710	Panajachel	8	Panajachel	3	Marzo	2023-03-23T00:00:00	2024-11-08T19:00:00	3	Temperatura mínima	20.8
26896	7	Sololá	710	Panajachel	8	Panajachel	3	Marzo	2023-03-23T00:00:00	2024-11-08T19:00:00	5	Humedad	63
26897	7	Sololá	710	Panajachel	8	Panajachel	3	Marzo	2023-03-23T00:00:00	2024-11-08T19:00:00	6	Velocidad del viento	1.6
26898	7	Sololá	710	Panajachel	8	Panajachel	3	Marzo	2023-03-23T00:00:00	2024-11-08T19:00:00	7	Dirección del viento	1.61
26899	7	Sololá	710	Panajachel	8	Panajachel	3	Marzo	2023-03-23T00:00:00	2024-11-08T19:00:00	1	Precipitación	0
26900	7	Sololá	710	Panajachel	8	Panajachel	3	Marzo	2023-03-23T00:00:00	2024-11-08T19:00:00	8	Radiación solar	0
26901	7	Sololá	710	Panajachel	8	Panajachel	3	Marzo	2023-03-23T00:00:00	2024-11-08T20:00:00	2	Temperatura media	21.1
26902	7	Sololá	710	Panajachel	8	Panajachel	3	Marzo	2023-03-23T00:00:00	2024-11-08T20:00:00	4	Temperatura máxima	21.7
26903	7	Sololá	710	Panajachel	8	Panajachel	3	Marzo	2023-03-23T00:00:00	2024-11-08T20:00:00	3	Temperatura mínima	21.1
26904	7	Sololá	710	Panajachel	8	Panajachel	3	Marzo	2023-03-23T00:00:00	2024-11-08T20:00:00	5	Humedad	62
26905	7	Sololá	710	Panajachel	8	Panajachel	3	Marzo	2023-03-23T00:00:00	2024-11-08T20:00:00	6	Velocidad del viento	1.6
26906	7	Sololá	710	Panajachel	8	Panajachel	3	Marzo	2023-03-23T00:00:00	2024-11-08T20:00:00	7	Dirección del viento	1.61
26907	7	Sololá	710	Panajachel	8	Panajachel	3	Marzo	2023-03-23T00:00:00	2024-11-08T20:00:00	1	Precipitación	0
26908	7	Sololá	710	Panajachel	8	Panajachel	3	Marzo	2023-03-23T00:00:00	2024-11-08T20:00:00	8	Radiación solar	0
26909	7	Sololá	710	Panajachel	8	Panajachel	3	Marzo	2023-03-23T00:00:00	2024-11-08T21:00:00	2	Temperatura media	20.3
26910	7	Sololá	710	Panajachel	8	Panajachel	3	Marzo	2023-03-23T00:00:00	2024-11-08T21:00:00	4	Temperatura máxima	21.1
26911	7	Sololá	710	Panajachel	8	Panajachel	3	Marzo	2023-03-23T00:00:00	2024-11-08T21:00:00	3	Temperatura mínima	20.3
26912	7	Sololá	710	Panajachel	8	Panajachel	3	Marzo	2023-03-23T00:00:00	2024-11-08T21:00:00	5	Humedad	64
26913	7	Sololá	710	Panajachel	8	Panajachel	3	Marzo	2023-03-23T00:00:00	2024-11-08T21:00:00	6	Velocidad del viento	3.2
26914	7	Sololá	710	Panajachel	8	Panajachel	3	Marzo	2023-03-23T00:00:00	2024-11-08T21:00:00	7	Dirección del viento	3.22
26915	7	Sololá	710	Panajachel	8	Panajachel	3	Marzo	2023-03-23T00:00:00	2024-11-08T21:00:00	1	Precipitación	0
26916	7	Sololá	710	Panajachel	8	Panajachel	3	Marzo	2023-03-23T00:00:00	2024-11-08T21:00:00	8	Radiación solar	0
26917	7	Sololá	710	Panajachel	8	Panajachel	3	Marzo	2023-03-23T00:00:00	2024-11-08T22:00:00	2	Temperatura media	19.3
26918	7	Sololá	710	Panajachel	8	Panajachel	3	Marzo	2023-03-23T00:00:00	2024-11-08T22:00:00	4	Temperatura máxima	20.4
26919	7	Sololá	710	Panajachel	8	Panajachel	3	Marzo	2023-03-23T00:00:00	2024-11-08T22:00:00	3	Temperatura mínima	19.3
26920	7	Sololá	710	Panajachel	8	Panajachel	3	Marzo	2023-03-23T00:00:00	2024-11-08T22:00:00	5	Humedad	68
26921	7	Sololá	710	Panajachel	8	Panajachel	3	Marzo	2023-03-23T00:00:00	2024-11-08T22:00:00	6	Velocidad del viento	0
26922	7	Sololá	710	Panajachel	8	Panajachel	3	Marzo	2023-03-23T00:00:00	2024-11-08T22:00:00	7	Dirección del viento	0
26923	7	Sololá	710	Panajachel	8	Panajachel	3	Marzo	2023-03-23T00:00:00	2024-11-08T22:00:00	1	Precipitación	0
26924	7	Sololá	710	Panajachel	8	Panajachel	3	Marzo	2023-03-23T00:00:00	2024-11-08T22:00:00	8	Radiación solar	0
26925	7	Sololá	710	Panajachel	8	Panajachel	3	Marzo	2023-03-23T00:00:00	2024-11-08T23:00:00	2	Temperatura media	17.9
26926	7	Sololá	710	Panajachel	8	Panajachel	3	Marzo	2023-03-23T00:00:00	2024-11-08T23:00:00	4	Temperatura máxima	19.3
26927	7	Sololá	710	Panajachel	8	Panajachel	3	Marzo	2023-03-23T00:00:00	2024-11-08T23:00:00	3	Temperatura mínima	17.9
26928	7	Sololá	710	Panajachel	8	Panajachel	3	Marzo	2023-03-23T00:00:00	2024-11-08T23:00:00	5	Humedad	71
26929	7	Sololá	710	Panajachel	8	Panajachel	3	Marzo	2023-03-23T00:00:00	2024-11-08T23:00:00	6	Velocidad del viento	0
26930	7	Sololá	710	Panajachel	8	Panajachel	3	Marzo	2023-03-23T00:00:00	2024-11-08T23:00:00	7	Dirección del viento	0
26931	7	Sololá	710	Panajachel	8	Panajachel	3	Marzo	2023-03-23T00:00:00	2024-11-08T23:00:00	1	Precipitación	0
26932	7	Sololá	710	Panajachel	8	Panajachel	3	Marzo	2023-03-23T00:00:00	2024-11-08T23:00:00	8	Radiación solar	0
26933	7	Sololá	710	Panajachel	8	Panajachel	3	Marzo	2023-03-24T00:00:00	2024-11-08T00:00:00	2	Temperatura media	17.5
26934	7	Sololá	710	Panajachel	8	Panajachel	3	Marzo	2023-03-24T00:00:00	2024-11-08T00:00:00	4	Temperatura máxima	18.1
26935	7	Sololá	710	Panajachel	8	Panajachel	3	Marzo	2023-03-24T00:00:00	2024-11-08T00:00:00	3	Temperatura mínima	17.5
26936	7	Sololá	710	Panajachel	8	Panajachel	3	Marzo	2023-03-24T00:00:00	2024-11-08T00:00:00	5	Humedad	72
26937	7	Sololá	710	Panajachel	8	Panajachel	3	Marzo	2023-03-24T00:00:00	2024-11-08T00:00:00	6	Velocidad del viento	1.6
26938	7	Sololá	710	Panajachel	8	Panajachel	3	Marzo	2023-03-24T00:00:00	2024-11-08T00:00:00	7	Dirección del viento	1.61
26939	7	Sololá	710	Panajachel	8	Panajachel	3	Marzo	2023-03-24T00:00:00	2024-11-08T00:00:00	1	Precipitación	0
26940	7	Sololá	710	Panajachel	8	Panajachel	3	Marzo	2023-03-24T00:00:00	2024-11-08T00:00:00	8	Radiación solar	0
26941	7	Sololá	710	Panajachel	8	Panajachel	3	Marzo	2023-03-24T00:00:00	2024-11-08T01:00:00	2	Temperatura media	16.6
26942	7	Sololá	710	Panajachel	8	Panajachel	3	Marzo	2023-03-24T00:00:00	2024-11-08T01:00:00	4	Temperatura máxima	17.5
26943	7	Sololá	710	Panajachel	8	Panajachel	3	Marzo	2023-03-24T00:00:00	2024-11-08T01:00:00	3	Temperatura mínima	16.5
26944	7	Sololá	710	Panajachel	8	Panajachel	3	Marzo	2023-03-24T00:00:00	2024-11-08T01:00:00	5	Humedad	73
26945	7	Sololá	710	Panajachel	8	Panajachel	3	Marzo	2023-03-24T00:00:00	2024-11-08T01:00:00	6	Velocidad del viento	1.6
26946	7	Sololá	710	Panajachel	8	Panajachel	3	Marzo	2023-03-24T00:00:00	2024-11-08T01:00:00	7	Dirección del viento	1.61
26947	7	Sololá	710	Panajachel	8	Panajachel	3	Marzo	2023-03-24T00:00:00	2024-11-08T01:00:00	1	Precipitación	0
26948	7	Sololá	710	Panajachel	8	Panajachel	3	Marzo	2023-03-24T00:00:00	2024-11-08T01:00:00	8	Radiación solar	0
26949	7	Sololá	710	Panajachel	8	Panajachel	3	Marzo	2023-03-24T00:00:00	2024-11-08T02:00:00	2	Temperatura media	16.2
26950	7	Sololá	710	Panajachel	8	Panajachel	3	Marzo	2023-03-24T00:00:00	2024-11-08T02:00:00	4	Temperatura máxima	16.8
26951	7	Sololá	710	Panajachel	8	Panajachel	3	Marzo	2023-03-24T00:00:00	2024-11-08T02:00:00	3	Temperatura mínima	16.2
26952	7	Sololá	710	Panajachel	8	Panajachel	3	Marzo	2023-03-24T00:00:00	2024-11-08T02:00:00	5	Humedad	73
26953	7	Sololá	710	Panajachel	8	Panajachel	3	Marzo	2023-03-24T00:00:00	2024-11-08T02:00:00	6	Velocidad del viento	1.6
26954	7	Sololá	710	Panajachel	8	Panajachel	3	Marzo	2023-03-24T00:00:00	2024-11-08T02:00:00	7	Dirección del viento	1.61
26955	7	Sololá	710	Panajachel	8	Panajachel	3	Marzo	2023-03-24T00:00:00	2024-11-08T02:00:00	1	Precipitación	0
26956	7	Sololá	710	Panajachel	8	Panajachel	3	Marzo	2023-03-24T00:00:00	2024-11-08T02:00:00	8	Radiación solar	0
26957	7	Sololá	710	Panajachel	8	Panajachel	3	Marzo	2023-03-24T00:00:00	2024-11-08T03:00:00	2	Temperatura media	15.7
26958	7	Sololá	710	Panajachel	8	Panajachel	3	Marzo	2023-03-24T00:00:00	2024-11-08T03:00:00	4	Temperatura máxima	16.2
26959	7	Sololá	710	Panajachel	8	Panajachel	3	Marzo	2023-03-24T00:00:00	2024-11-08T03:00:00	3	Temperatura mínima	15.6
26960	7	Sololá	710	Panajachel	8	Panajachel	3	Marzo	2023-03-24T00:00:00	2024-11-08T03:00:00	5	Humedad	73
26961	7	Sololá	710	Panajachel	8	Panajachel	3	Marzo	2023-03-24T00:00:00	2024-11-08T03:00:00	6	Velocidad del viento	3.2
26962	7	Sololá	710	Panajachel	8	Panajachel	3	Marzo	2023-03-24T00:00:00	2024-11-08T03:00:00	7	Dirección del viento	3.22
26963	7	Sololá	710	Panajachel	8	Panajachel	3	Marzo	2023-03-24T00:00:00	2024-11-08T03:00:00	1	Precipitación	0
26964	7	Sololá	710	Panajachel	8	Panajachel	3	Marzo	2023-03-24T00:00:00	2024-11-08T03:00:00	8	Radiación solar	0
26965	7	Sololá	710	Panajachel	8	Panajachel	3	Marzo	2023-03-24T00:00:00	2024-11-08T04:00:00	2	Temperatura media	15.4
26966	7	Sololá	710	Panajachel	8	Panajachel	3	Marzo	2023-03-24T00:00:00	2024-11-08T04:00:00	4	Temperatura máxima	16
26967	7	Sololá	710	Panajachel	8	Panajachel	3	Marzo	2023-03-24T00:00:00	2024-11-08T04:00:00	3	Temperatura mínima	15.4
26968	7	Sololá	710	Panajachel	8	Panajachel	3	Marzo	2023-03-24T00:00:00	2024-11-08T04:00:00	5	Humedad	71
26969	7	Sololá	710	Panajachel	8	Panajachel	3	Marzo	2023-03-24T00:00:00	2024-11-08T04:00:00	6	Velocidad del viento	4.8
26970	7	Sololá	710	Panajachel	8	Panajachel	3	Marzo	2023-03-24T00:00:00	2024-11-08T04:00:00	7	Dirección del viento	4.83
26971	7	Sololá	710	Panajachel	8	Panajachel	3	Marzo	2023-03-24T00:00:00	2024-11-08T04:00:00	1	Precipitación	0
26972	7	Sololá	710	Panajachel	8	Panajachel	3	Marzo	2023-03-24T00:00:00	2024-11-08T04:00:00	8	Radiación solar	0
26973	7	Sololá	710	Panajachel	8	Panajachel	3	Marzo	2023-03-24T00:00:00	2024-11-08T05:00:00	2	Temperatura media	15.3
26974	7	Sololá	710	Panajachel	8	Panajachel	3	Marzo	2023-03-24T00:00:00	2024-11-08T05:00:00	4	Temperatura máxima	15.5
26975	7	Sololá	710	Panajachel	8	Panajachel	3	Marzo	2023-03-24T00:00:00	2024-11-08T05:00:00	3	Temperatura mínima	15.2
26976	7	Sololá	710	Panajachel	8	Panajachel	3	Marzo	2023-03-24T00:00:00	2024-11-08T05:00:00	5	Humedad	70
26977	7	Sololá	710	Panajachel	8	Panajachel	3	Marzo	2023-03-24T00:00:00	2024-11-08T05:00:00	6	Velocidad del viento	3.2
26978	7	Sololá	710	Panajachel	8	Panajachel	3	Marzo	2023-03-24T00:00:00	2024-11-08T05:00:00	7	Dirección del viento	3.22
26979	7	Sololá	710	Panajachel	8	Panajachel	3	Marzo	2023-03-24T00:00:00	2024-11-08T05:00:00	1	Precipitación	0
26980	7	Sololá	710	Panajachel	8	Panajachel	3	Marzo	2023-03-24T00:00:00	2024-11-08T05:00:00	8	Radiación solar	0
26981	7	Sololá	710	Panajachel	8	Panajachel	3	Marzo	2023-03-24T00:00:00	2024-11-08T06:00:00	2	Temperatura media	14.8
26982	7	Sololá	710	Panajachel	8	Panajachel	3	Marzo	2023-03-24T00:00:00	2024-11-08T06:00:00	4	Temperatura máxima	15.3
26983	7	Sololá	710	Panajachel	8	Panajachel	3	Marzo	2023-03-24T00:00:00	2024-11-08T06:00:00	3	Temperatura mínima	14.7
26984	7	Sololá	710	Panajachel	8	Panajachel	3	Marzo	2023-03-24T00:00:00	2024-11-08T06:00:00	5	Humedad	72
26985	7	Sololá	710	Panajachel	8	Panajachel	3	Marzo	2023-03-24T00:00:00	2024-11-08T06:00:00	6	Velocidad del viento	1.6
26986	7	Sololá	710	Panajachel	8	Panajachel	3	Marzo	2023-03-24T00:00:00	2024-11-08T06:00:00	7	Dirección del viento	1.61
26987	7	Sololá	710	Panajachel	8	Panajachel	3	Marzo	2023-03-24T00:00:00	2024-11-08T06:00:00	1	Precipitación	0
26988	7	Sololá	710	Panajachel	8	Panajachel	3	Marzo	2023-03-24T00:00:00	2024-11-08T06:00:00	8	Radiación solar	0
26989	7	Sololá	710	Panajachel	8	Panajachel	3	Marzo	2023-03-24T00:00:00	2024-11-08T07:00:00	2	Temperatura media	15.4
26990	7	Sololá	710	Panajachel	8	Panajachel	3	Marzo	2023-03-24T00:00:00	2024-11-08T07:00:00	4	Temperatura máxima	15.4
26991	7	Sololá	710	Panajachel	8	Panajachel	3	Marzo	2023-03-24T00:00:00	2024-11-08T07:00:00	3	Temperatura mínima	14.7
26992	7	Sololá	710	Panajachel	8	Panajachel	3	Marzo	2023-03-24T00:00:00	2024-11-08T07:00:00	5	Humedad	72
26993	7	Sololá	710	Panajachel	8	Panajachel	3	Marzo	2023-03-24T00:00:00	2024-11-08T07:00:00	6	Velocidad del viento	3.2
26994	7	Sololá	710	Panajachel	8	Panajachel	3	Marzo	2023-03-24T00:00:00	2024-11-08T07:00:00	7	Dirección del viento	3.22
26995	7	Sololá	710	Panajachel	8	Panajachel	3	Marzo	2023-03-24T00:00:00	2024-11-08T07:00:00	1	Precipitación	0
26996	7	Sololá	710	Panajachel	8	Panajachel	3	Marzo	2023-03-24T00:00:00	2024-11-08T07:00:00	8	Radiación solar	32
26997	7	Sololá	710	Panajachel	8	Panajachel	3	Marzo	2023-03-24T00:00:00	2024-11-08T08:00:00	2	Temperatura media	18.4
26998	7	Sololá	710	Panajachel	8	Panajachel	3	Marzo	2023-03-24T00:00:00	2024-11-08T08:00:00	4	Temperatura máxima	18.4
26999	7	Sololá	710	Panajachel	8	Panajachel	3	Marzo	2023-03-24T00:00:00	2024-11-08T08:00:00	3	Temperatura mínima	15.3
27000	7	Sololá	710	Panajachel	8	Panajachel	3	Marzo	2023-03-24T00:00:00	2024-11-08T08:00:00	5	Humedad	68
27001	7	Sololá	710	Panajachel	8	Panajachel	3	Marzo	2023-03-24T00:00:00	2024-11-08T08:00:00	6	Velocidad del viento	0
27002	7	Sololá	710	Panajachel	8	Panajachel	3	Marzo	2023-03-24T00:00:00	2024-11-08T08:00:00	7	Dirección del viento	0
27003	7	Sololá	710	Panajachel	8	Panajachel	3	Marzo	2023-03-24T00:00:00	2024-11-08T08:00:00	1	Precipitación	0
27004	7	Sololá	710	Panajachel	8	Panajachel	3	Marzo	2023-03-24T00:00:00	2024-11-08T08:00:00	8	Radiación solar	172
27005	7	Sololá	710	Panajachel	8	Panajachel	3	Marzo	2023-03-24T00:00:00	2024-11-08T09:00:00	2	Temperatura media	19.7
27006	7	Sololá	710	Panajachel	8	Panajachel	3	Marzo	2023-03-24T00:00:00	2024-11-08T09:00:00	4	Temperatura máxima	19.9
27007	7	Sololá	710	Panajachel	8	Panajachel	3	Marzo	2023-03-24T00:00:00	2024-11-08T09:00:00	3	Temperatura mínima	18.4
27008	7	Sololá	710	Panajachel	8	Panajachel	3	Marzo	2023-03-24T00:00:00	2024-11-08T09:00:00	5	Humedad	72
27009	7	Sololá	710	Panajachel	8	Panajachel	3	Marzo	2023-03-24T00:00:00	2024-11-08T09:00:00	6	Velocidad del viento	0
27010	7	Sololá	710	Panajachel	8	Panajachel	3	Marzo	2023-03-24T00:00:00	2024-11-08T09:00:00	7	Dirección del viento	0
27011	7	Sololá	710	Panajachel	8	Panajachel	3	Marzo	2023-03-24T00:00:00	2024-11-08T09:00:00	1	Precipitación	0
27012	7	Sololá	710	Panajachel	8	Panajachel	3	Marzo	2023-03-24T00:00:00	2024-11-08T09:00:00	8	Radiación solar	517
27013	7	Sololá	710	Panajachel	8	Panajachel	3	Marzo	2023-03-24T00:00:00	2024-11-08T10:00:00	2	Temperatura media	19.7
27014	7	Sololá	710	Panajachel	8	Panajachel	3	Marzo	2023-03-24T00:00:00	2024-11-08T10:00:00	4	Temperatura máxima	19.8
27015	7	Sololá	710	Panajachel	8	Panajachel	3	Marzo	2023-03-24T00:00:00	2024-11-08T10:00:00	3	Temperatura mínima	19.4
27016	7	Sololá	710	Panajachel	8	Panajachel	3	Marzo	2023-03-24T00:00:00	2024-11-08T10:00:00	5	Humedad	74
27017	7	Sololá	710	Panajachel	8	Panajachel	3	Marzo	2023-03-24T00:00:00	2024-11-08T10:00:00	6	Velocidad del viento	3.2
27018	7	Sololá	710	Panajachel	8	Panajachel	3	Marzo	2023-03-24T00:00:00	2024-11-08T10:00:00	7	Dirección del viento	3.22
27019	7	Sololá	710	Panajachel	8	Panajachel	3	Marzo	2023-03-24T00:00:00	2024-11-08T10:00:00	1	Precipitación	0
27020	7	Sololá	710	Panajachel	8	Panajachel	3	Marzo	2023-03-24T00:00:00	2024-11-08T10:00:00	8	Radiación solar	723
27021	7	Sololá	710	Panajachel	8	Panajachel	3	Marzo	2023-03-24T00:00:00	2024-11-08T11:00:00	2	Temperatura media	22.2
27022	7	Sololá	710	Panajachel	8	Panajachel	3	Marzo	2023-03-24T00:00:00	2024-11-08T11:00:00	4	Temperatura máxima	22.2
27023	7	Sololá	710	Panajachel	8	Panajachel	3	Marzo	2023-03-24T00:00:00	2024-11-08T11:00:00	3	Temperatura mínima	19.7
27024	7	Sololá	710	Panajachel	8	Panajachel	3	Marzo	2023-03-24T00:00:00	2024-11-08T11:00:00	5	Humedad	66
27025	7	Sololá	710	Panajachel	8	Panajachel	3	Marzo	2023-03-24T00:00:00	2024-11-08T11:00:00	6	Velocidad del viento	3.2
27026	7	Sololá	710	Panajachel	8	Panajachel	3	Marzo	2023-03-24T00:00:00	2024-11-08T11:00:00	7	Dirección del viento	3.22
27027	7	Sololá	710	Panajachel	8	Panajachel	3	Marzo	2023-03-24T00:00:00	2024-11-08T11:00:00	1	Precipitación	0
27028	7	Sololá	710	Panajachel	8	Panajachel	3	Marzo	2023-03-24T00:00:00	2024-11-08T11:00:00	8	Radiación solar	872
27029	7	Sololá	710	Panajachel	8	Panajachel	3	Marzo	2023-03-24T00:00:00	2024-11-08T12:00:00	2	Temperatura media	23.1
27030	7	Sololá	710	Panajachel	8	Panajachel	3	Marzo	2023-03-24T00:00:00	2024-11-08T12:00:00	4	Temperatura máxima	23.3
27031	7	Sololá	710	Panajachel	8	Panajachel	3	Marzo	2023-03-24T00:00:00	2024-11-08T12:00:00	3	Temperatura mínima	22.2
27032	7	Sololá	710	Panajachel	8	Panajachel	3	Marzo	2023-03-24T00:00:00	2024-11-08T12:00:00	5	Humedad	70
27033	7	Sololá	710	Panajachel	8	Panajachel	3	Marzo	2023-03-24T00:00:00	2024-11-08T12:00:00	6	Velocidad del viento	3.2
27034	7	Sololá	710	Panajachel	8	Panajachel	3	Marzo	2023-03-24T00:00:00	2024-11-08T12:00:00	7	Dirección del viento	3.22
27035	7	Sololá	710	Panajachel	8	Panajachel	3	Marzo	2023-03-24T00:00:00	2024-11-08T12:00:00	1	Precipitación	0
27036	7	Sololá	710	Panajachel	8	Panajachel	3	Marzo	2023-03-24T00:00:00	2024-11-08T12:00:00	8	Radiación solar	946
27037	7	Sololá	710	Panajachel	8	Panajachel	3	Marzo	2023-03-24T00:00:00	2024-11-08T13:00:00	2	Temperatura media	23.1
27038	7	Sololá	710	Panajachel	8	Panajachel	3	Marzo	2023-03-24T00:00:00	2024-11-08T13:00:00	4	Temperatura máxima	23.6
27039	7	Sololá	710	Panajachel	8	Panajachel	3	Marzo	2023-03-24T00:00:00	2024-11-08T13:00:00	3	Temperatura mínima	22.4
27040	7	Sololá	710	Panajachel	8	Panajachel	3	Marzo	2023-03-24T00:00:00	2024-11-08T13:00:00	5	Humedad	73
27041	7	Sololá	710	Panajachel	8	Panajachel	3	Marzo	2023-03-24T00:00:00	2024-11-08T13:00:00	6	Velocidad del viento	4.8
27042	7	Sololá	710	Panajachel	8	Panajachel	3	Marzo	2023-03-24T00:00:00	2024-11-08T13:00:00	7	Dirección del viento	4.83
27043	7	Sololá	710	Panajachel	8	Panajachel	3	Marzo	2023-03-24T00:00:00	2024-11-08T13:00:00	1	Precipitación	0
27044	7	Sololá	710	Panajachel	8	Panajachel	3	Marzo	2023-03-24T00:00:00	2024-11-08T13:00:00	8	Radiación solar	780
27045	7	Sololá	710	Panajachel	8	Panajachel	3	Marzo	2023-03-24T00:00:00	2024-11-08T14:00:00	2	Temperatura media	23.3
27046	7	Sololá	710	Panajachel	8	Panajachel	3	Marzo	2023-03-24T00:00:00	2024-11-08T14:00:00	4	Temperatura máxima	24.2
27047	7	Sololá	710	Panajachel	8	Panajachel	3	Marzo	2023-03-24T00:00:00	2024-11-08T14:00:00	3	Temperatura mínima	22.7
27048	7	Sololá	710	Panajachel	8	Panajachel	3	Marzo	2023-03-24T00:00:00	2024-11-08T14:00:00	5	Humedad	69
27049	7	Sololá	710	Panajachel	8	Panajachel	3	Marzo	2023-03-24T00:00:00	2024-11-08T14:00:00	6	Velocidad del viento	4.8
27050	7	Sololá	710	Panajachel	8	Panajachel	3	Marzo	2023-03-24T00:00:00	2024-11-08T14:00:00	7	Dirección del viento	4.83
27051	7	Sololá	710	Panajachel	8	Panajachel	3	Marzo	2023-03-24T00:00:00	2024-11-08T14:00:00	1	Precipitación	0
27052	7	Sololá	710	Panajachel	8	Panajachel	3	Marzo	2023-03-24T00:00:00	2024-11-08T14:00:00	8	Radiación solar	879
27053	7	Sololá	710	Panajachel	8	Panajachel	3	Marzo	2023-03-24T00:00:00	2024-11-08T15:00:00	2	Temperatura media	22.7
27054	7	Sololá	710	Panajachel	8	Panajachel	3	Marzo	2023-03-24T00:00:00	2024-11-08T15:00:00	4	Temperatura máxima	23.9
27055	7	Sololá	710	Panajachel	8	Panajachel	3	Marzo	2023-03-24T00:00:00	2024-11-08T15:00:00	3	Temperatura mínima	22.6
27056	7	Sololá	710	Panajachel	8	Panajachel	3	Marzo	2023-03-24T00:00:00	2024-11-08T15:00:00	5	Humedad	78
27057	7	Sololá	710	Panajachel	8	Panajachel	3	Marzo	2023-03-24T00:00:00	2024-11-08T15:00:00	6	Velocidad del viento	6.4
27058	7	Sololá	710	Panajachel	8	Panajachel	3	Marzo	2023-03-24T00:00:00	2024-11-08T15:00:00	7	Dirección del viento	6.44
27059	7	Sololá	710	Panajachel	8	Panajachel	3	Marzo	2023-03-24T00:00:00	2024-11-08T15:00:00	1	Precipitación	0
27060	7	Sololá	710	Panajachel	8	Panajachel	3	Marzo	2023-03-24T00:00:00	2024-11-08T15:00:00	8	Radiación solar	584
27061	7	Sololá	710	Panajachel	8	Panajachel	3	Marzo	2023-03-24T00:00:00	2024-11-08T16:00:00	2	Temperatura media	23.8
27062	7	Sololá	710	Panajachel	8	Panajachel	3	Marzo	2023-03-24T00:00:00	2024-11-08T16:00:00	4	Temperatura máxima	24.2
27063	7	Sololá	710	Panajachel	8	Panajachel	3	Marzo	2023-03-24T00:00:00	2024-11-08T16:00:00	3	Temperatura mínima	22.7
27064	7	Sololá	710	Panajachel	8	Panajachel	3	Marzo	2023-03-24T00:00:00	2024-11-08T16:00:00	5	Humedad	72
27065	7	Sololá	710	Panajachel	8	Panajachel	3	Marzo	2023-03-24T00:00:00	2024-11-08T16:00:00	6	Velocidad del viento	3.2
27066	7	Sololá	710	Panajachel	8	Panajachel	3	Marzo	2023-03-24T00:00:00	2024-11-08T16:00:00	7	Dirección del viento	3.22
27067	7	Sololá	710	Panajachel	8	Panajachel	3	Marzo	2023-03-24T00:00:00	2024-11-08T16:00:00	1	Precipitación	0
27068	7	Sololá	710	Panajachel	8	Panajachel	3	Marzo	2023-03-24T00:00:00	2024-11-08T16:00:00	8	Radiación solar	394
27069	7	Sololá	710	Panajachel	8	Panajachel	3	Marzo	2023-03-24T00:00:00	2024-11-08T17:00:00	2	Temperatura media	21.8
27070	7	Sololá	710	Panajachel	8	Panajachel	3	Marzo	2023-03-24T00:00:00	2024-11-08T17:00:00	4	Temperatura máxima	23.8
27071	7	Sololá	710	Panajachel	8	Panajachel	3	Marzo	2023-03-24T00:00:00	2024-11-08T17:00:00	3	Temperatura mínima	21.4
27072	7	Sololá	710	Panajachel	8	Panajachel	3	Marzo	2023-03-24T00:00:00	2024-11-08T17:00:00	5	Humedad	77
27073	7	Sololá	710	Panajachel	8	Panajachel	3	Marzo	2023-03-24T00:00:00	2024-11-08T17:00:00	6	Velocidad del viento	1.6
27074	7	Sololá	710	Panajachel	8	Panajachel	3	Marzo	2023-03-24T00:00:00	2024-11-08T17:00:00	7	Dirección del viento	1.61
27075	7	Sololá	710	Panajachel	8	Panajachel	3	Marzo	2023-03-24T00:00:00	2024-11-08T17:00:00	1	Precipitación	0
27076	7	Sololá	710	Panajachel	8	Panajachel	3	Marzo	2023-03-24T00:00:00	2024-11-08T17:00:00	8	Radiación solar	132
27077	7	Sololá	710	Panajachel	8	Panajachel	3	Marzo	2023-03-24T00:00:00	2024-11-08T18:00:00	2	Temperatura media	19.9
27078	7	Sololá	710	Panajachel	8	Panajachel	3	Marzo	2023-03-24T00:00:00	2024-11-08T18:00:00	4	Temperatura máxima	21.8
27079	7	Sololá	710	Panajachel	8	Panajachel	3	Marzo	2023-03-24T00:00:00	2024-11-08T18:00:00	3	Temperatura mínima	19.9
27080	7	Sololá	710	Panajachel	8	Panajachel	3	Marzo	2023-03-24T00:00:00	2024-11-08T18:00:00	5	Humedad	86
27081	7	Sololá	710	Panajachel	8	Panajachel	3	Marzo	2023-03-24T00:00:00	2024-11-08T18:00:00	6	Velocidad del viento	1.6
27082	7	Sololá	710	Panajachel	8	Panajachel	3	Marzo	2023-03-24T00:00:00	2024-11-08T18:00:00	7	Dirección del viento	1.61
27083	7	Sololá	710	Panajachel	8	Panajachel	3	Marzo	2023-03-24T00:00:00	2024-11-08T18:00:00	1	Precipitación	0
27084	7	Sololá	710	Panajachel	8	Panajachel	3	Marzo	2023-03-24T00:00:00	2024-11-08T18:00:00	8	Radiación solar	29
27085	7	Sololá	710	Panajachel	8	Panajachel	3	Marzo	2023-03-24T00:00:00	2024-11-08T19:00:00	2	Temperatura media	19.4
27086	7	Sololá	710	Panajachel	8	Panajachel	3	Marzo	2023-03-24T00:00:00	2024-11-08T19:00:00	4	Temperatura máxima	19.9
27087	7	Sololá	710	Panajachel	8	Panajachel	3	Marzo	2023-03-24T00:00:00	2024-11-08T19:00:00	3	Temperatura mínima	19.4
27088	7	Sololá	710	Panajachel	8	Panajachel	3	Marzo	2023-03-24T00:00:00	2024-11-08T19:00:00	5	Humedad	90
27089	7	Sololá	710	Panajachel	8	Panajachel	3	Marzo	2023-03-24T00:00:00	2024-11-08T19:00:00	6	Velocidad del viento	1.6
27090	7	Sololá	710	Panajachel	8	Panajachel	3	Marzo	2023-03-24T00:00:00	2024-11-08T19:00:00	7	Dirección del viento	1.61
27091	7	Sololá	710	Panajachel	8	Panajachel	3	Marzo	2023-03-24T00:00:00	2024-11-08T19:00:00	1	Precipitación	0
27092	7	Sololá	710	Panajachel	8	Panajachel	3	Marzo	2023-03-24T00:00:00	2024-11-08T19:00:00	8	Radiación solar	0
27093	7	Sololá	710	Panajachel	8	Panajachel	3	Marzo	2023-03-24T00:00:00	2024-11-08T20:00:00	2	Temperatura media	19
27094	7	Sololá	710	Panajachel	8	Panajachel	3	Marzo	2023-03-24T00:00:00	2024-11-08T20:00:00	4	Temperatura máxima	19.4
27095	7	Sololá	710	Panajachel	8	Panajachel	3	Marzo	2023-03-24T00:00:00	2024-11-08T20:00:00	3	Temperatura mínima	18.9
27096	7	Sololá	710	Panajachel	8	Panajachel	3	Marzo	2023-03-24T00:00:00	2024-11-08T20:00:00	5	Humedad	90
27097	7	Sololá	710	Panajachel	8	Panajachel	3	Marzo	2023-03-24T00:00:00	2024-11-08T20:00:00	6	Velocidad del viento	1.6
27098	7	Sololá	710	Panajachel	8	Panajachel	3	Marzo	2023-03-24T00:00:00	2024-11-08T20:00:00	7	Dirección del viento	1.61
27099	7	Sololá	710	Panajachel	8	Panajachel	3	Marzo	2023-03-24T00:00:00	2024-11-08T20:00:00	1	Precipitación	0
27100	7	Sololá	710	Panajachel	8	Panajachel	3	Marzo	2023-03-24T00:00:00	2024-11-08T20:00:00	8	Radiación solar	0
27101	7	Sololá	710	Panajachel	8	Panajachel	3	Marzo	2023-03-24T00:00:00	2024-11-08T21:00:00	2	Temperatura media	19.1
27102	7	Sololá	710	Panajachel	8	Panajachel	3	Marzo	2023-03-24T00:00:00	2024-11-08T21:00:00	4	Temperatura máxima	19.2
27103	7	Sololá	710	Panajachel	8	Panajachel	3	Marzo	2023-03-24T00:00:00	2024-11-08T21:00:00	3	Temperatura mínima	18.9
27104	7	Sololá	710	Panajachel	8	Panajachel	3	Marzo	2023-03-24T00:00:00	2024-11-08T21:00:00	5	Humedad	90
27105	7	Sololá	710	Panajachel	8	Panajachel	3	Marzo	2023-03-24T00:00:00	2024-11-08T21:00:00	6	Velocidad del viento	0
27106	7	Sololá	710	Panajachel	8	Panajachel	3	Marzo	2023-03-24T00:00:00	2024-11-08T21:00:00	7	Dirección del viento	0
27107	7	Sololá	710	Panajachel	8	Panajachel	3	Marzo	2023-03-24T00:00:00	2024-11-08T21:00:00	1	Precipitación	0
27108	7	Sololá	710	Panajachel	8	Panajachel	3	Marzo	2023-03-24T00:00:00	2024-11-08T21:00:00	8	Radiación solar	0
27109	7	Sololá	710	Panajachel	8	Panajachel	3	Marzo	2023-03-24T00:00:00	2024-11-08T22:00:00	2	Temperatura media	18.7
27110	7	Sololá	710	Panajachel	8	Panajachel	3	Marzo	2023-03-24T00:00:00	2024-11-08T22:00:00	4	Temperatura máxima	19.1
27111	7	Sololá	710	Panajachel	8	Panajachel	3	Marzo	2023-03-24T00:00:00	2024-11-08T22:00:00	3	Temperatura mínima	18.7
27112	7	Sololá	710	Panajachel	8	Panajachel	3	Marzo	2023-03-24T00:00:00	2024-11-08T22:00:00	5	Humedad	90
27113	7	Sololá	710	Panajachel	8	Panajachel	3	Marzo	2023-03-24T00:00:00	2024-11-08T22:00:00	6	Velocidad del viento	0
27114	7	Sololá	710	Panajachel	8	Panajachel	3	Marzo	2023-03-24T00:00:00	2024-11-08T22:00:00	7	Dirección del viento	0
27115	7	Sololá	710	Panajachel	8	Panajachel	3	Marzo	2023-03-24T00:00:00	2024-11-08T22:00:00	1	Precipitación	0
27116	7	Sololá	710	Panajachel	8	Panajachel	3	Marzo	2023-03-24T00:00:00	2024-11-08T22:00:00	8	Radiación solar	0
27117	7	Sololá	710	Panajachel	8	Panajachel	3	Marzo	2023-03-24T00:00:00	2024-11-08T23:00:00	2	Temperatura media	18.9
27118	7	Sololá	710	Panajachel	8	Panajachel	3	Marzo	2023-03-24T00:00:00	2024-11-08T23:00:00	4	Temperatura máxima	18.9
27119	7	Sololá	710	Panajachel	8	Panajachel	3	Marzo	2023-03-24T00:00:00	2024-11-08T23:00:00	3	Temperatura mínima	18.7
27120	7	Sololá	710	Panajachel	8	Panajachel	3	Marzo	2023-03-24T00:00:00	2024-11-08T23:00:00	5	Humedad	90
27121	7	Sololá	710	Panajachel	8	Panajachel	3	Marzo	2023-03-24T00:00:00	2024-11-08T23:00:00	6	Velocidad del viento	0
27122	7	Sololá	710	Panajachel	8	Panajachel	3	Marzo	2023-03-24T00:00:00	2024-11-08T23:00:00	7	Dirección del viento	0
27123	7	Sololá	710	Panajachel	8	Panajachel	3	Marzo	2023-03-24T00:00:00	2024-11-08T23:00:00	1	Precipitación	0
27124	7	Sololá	710	Panajachel	8	Panajachel	3	Marzo	2023-03-24T00:00:00	2024-11-08T23:00:00	8	Radiación solar	0
27125	7	Sololá	710	Panajachel	8	Panajachel	3	Marzo	2023-03-25T00:00:00	2024-11-08T00:00:00	2	Temperatura media	18.8
27126	7	Sololá	710	Panajachel	8	Panajachel	3	Marzo	2023-03-25T00:00:00	2024-11-08T00:00:00	4	Temperatura máxima	19
27127	7	Sololá	710	Panajachel	8	Panajachel	3	Marzo	2023-03-25T00:00:00	2024-11-08T00:00:00	3	Temperatura mínima	18.8
27128	7	Sololá	710	Panajachel	8	Panajachel	3	Marzo	2023-03-25T00:00:00	2024-11-08T00:00:00	5	Humedad	83
27129	7	Sololá	710	Panajachel	8	Panajachel	3	Marzo	2023-03-25T00:00:00	2024-11-08T00:00:00	6	Velocidad del viento	0
27130	7	Sololá	710	Panajachel	8	Panajachel	3	Marzo	2023-03-25T00:00:00	2024-11-08T00:00:00	7	Dirección del viento	0
27131	7	Sololá	710	Panajachel	8	Panajachel	3	Marzo	2023-03-25T00:00:00	2024-11-08T00:00:00	1	Precipitación	0
27132	7	Sololá	710	Panajachel	8	Panajachel	3	Marzo	2023-03-25T00:00:00	2024-11-08T00:00:00	8	Radiación solar	0
27133	7	Sololá	710	Panajachel	8	Panajachel	3	Marzo	2023-03-25T00:00:00	2024-11-08T01:00:00	2	Temperatura media	18.9
27134	7	Sololá	710	Panajachel	8	Panajachel	3	Marzo	2023-03-25T00:00:00	2024-11-08T01:00:00	4	Temperatura máxima	19.1
27135	7	Sololá	710	Panajachel	8	Panajachel	3	Marzo	2023-03-25T00:00:00	2024-11-08T01:00:00	3	Temperatura mínima	18.8
27136	7	Sololá	710	Panajachel	8	Panajachel	3	Marzo	2023-03-25T00:00:00	2024-11-08T01:00:00	5	Humedad	82
27137	7	Sololá	710	Panajachel	8	Panajachel	3	Marzo	2023-03-25T00:00:00	2024-11-08T01:00:00	6	Velocidad del viento	0
27138	7	Sololá	710	Panajachel	8	Panajachel	3	Marzo	2023-03-25T00:00:00	2024-11-08T01:00:00	7	Dirección del viento	0
27139	7	Sololá	710	Panajachel	8	Panajachel	3	Marzo	2023-03-25T00:00:00	2024-11-08T01:00:00	1	Precipitación	0
27140	7	Sololá	710	Panajachel	8	Panajachel	3	Marzo	2023-03-25T00:00:00	2024-11-08T01:00:00	8	Radiación solar	0
27141	7	Sololá	710	Panajachel	8	Panajachel	3	Marzo	2023-03-25T00:00:00	2024-11-08T02:00:00	2	Temperatura media	17.9
27142	7	Sololá	710	Panajachel	8	Panajachel	3	Marzo	2023-03-25T00:00:00	2024-11-08T02:00:00	4	Temperatura máxima	18.9
27143	7	Sololá	710	Panajachel	8	Panajachel	3	Marzo	2023-03-25T00:00:00	2024-11-08T02:00:00	3	Temperatura mínima	17.8
27144	7	Sololá	710	Panajachel	8	Panajachel	3	Marzo	2023-03-25T00:00:00	2024-11-08T02:00:00	5	Humedad	82
27145	7	Sololá	710	Panajachel	8	Panajachel	3	Marzo	2023-03-25T00:00:00	2024-11-08T02:00:00	6	Velocidad del viento	0
27146	7	Sololá	710	Panajachel	8	Panajachel	3	Marzo	2023-03-25T00:00:00	2024-11-08T02:00:00	7	Dirección del viento	0
27147	7	Sololá	710	Panajachel	8	Panajachel	3	Marzo	2023-03-25T00:00:00	2024-11-08T02:00:00	1	Precipitación	0
27148	7	Sololá	710	Panajachel	8	Panajachel	3	Marzo	2023-03-25T00:00:00	2024-11-08T02:00:00	8	Radiación solar	0
27149	7	Sololá	710	Panajachel	8	Panajachel	3	Marzo	2023-03-25T00:00:00	2024-11-08T03:00:00	2	Temperatura media	17.8
27150	7	Sololá	710	Panajachel	8	Panajachel	3	Marzo	2023-03-25T00:00:00	2024-11-08T03:00:00	4	Temperatura máxima	17.9
27151	7	Sololá	710	Panajachel	8	Panajachel	3	Marzo	2023-03-25T00:00:00	2024-11-08T03:00:00	3	Temperatura mínima	17.6
27152	7	Sololá	710	Panajachel	8	Panajachel	3	Marzo	2023-03-25T00:00:00	2024-11-08T03:00:00	5	Humedad	79
27153	7	Sololá	710	Panajachel	8	Panajachel	3	Marzo	2023-03-25T00:00:00	2024-11-08T03:00:00	6	Velocidad del viento	1.6
27154	7	Sololá	710	Panajachel	8	Panajachel	3	Marzo	2023-03-25T00:00:00	2024-11-08T03:00:00	7	Dirección del viento	1.61
27155	7	Sololá	710	Panajachel	8	Panajachel	3	Marzo	2023-03-25T00:00:00	2024-11-08T03:00:00	1	Precipitación	0
27156	7	Sololá	710	Panajachel	8	Panajachel	3	Marzo	2023-03-25T00:00:00	2024-11-08T03:00:00	8	Radiación solar	0
27157	7	Sololá	710	Panajachel	8	Panajachel	3	Marzo	2023-03-25T00:00:00	2024-11-08T04:00:00	2	Temperatura media	17.7
27158	7	Sololá	710	Panajachel	8	Panajachel	3	Marzo	2023-03-25T00:00:00	2024-11-08T04:00:00	4	Temperatura máxima	17.8
27159	7	Sololá	710	Panajachel	8	Panajachel	3	Marzo	2023-03-25T00:00:00	2024-11-08T04:00:00	3	Temperatura mínima	17.6
27160	7	Sololá	710	Panajachel	8	Panajachel	3	Marzo	2023-03-25T00:00:00	2024-11-08T04:00:00	5	Humedad	77
27161	7	Sololá	710	Panajachel	8	Panajachel	3	Marzo	2023-03-25T00:00:00	2024-11-08T04:00:00	6	Velocidad del viento	1.6
27162	7	Sololá	710	Panajachel	8	Panajachel	3	Marzo	2023-03-25T00:00:00	2024-11-08T04:00:00	7	Dirección del viento	1.61
27163	7	Sololá	710	Panajachel	8	Panajachel	3	Marzo	2023-03-25T00:00:00	2024-11-08T04:00:00	1	Precipitación	0
27164	7	Sololá	710	Panajachel	8	Panajachel	3	Marzo	2023-03-25T00:00:00	2024-11-08T04:00:00	8	Radiación solar	0
27165	7	Sololá	710	Panajachel	8	Panajachel	3	Marzo	2023-03-25T00:00:00	2024-11-08T05:00:00	2	Temperatura media	18.1
27166	7	Sololá	710	Panajachel	8	Panajachel	3	Marzo	2023-03-25T00:00:00	2024-11-08T05:00:00	4	Temperatura máxima	18.1
27167	7	Sololá	710	Panajachel	8	Panajachel	3	Marzo	2023-03-25T00:00:00	2024-11-08T05:00:00	3	Temperatura mínima	17.7
27168	7	Sololá	710	Panajachel	8	Panajachel	3	Marzo	2023-03-25T00:00:00	2024-11-08T05:00:00	5	Humedad	78
27169	7	Sololá	710	Panajachel	8	Panajachel	3	Marzo	2023-03-25T00:00:00	2024-11-08T05:00:00	6	Velocidad del viento	1.6
27170	7	Sololá	710	Panajachel	8	Panajachel	3	Marzo	2023-03-25T00:00:00	2024-11-08T05:00:00	7	Dirección del viento	1.61
27171	7	Sololá	710	Panajachel	8	Panajachel	3	Marzo	2023-03-25T00:00:00	2024-11-08T05:00:00	1	Precipitación	0
27172	7	Sololá	710	Panajachel	8	Panajachel	3	Marzo	2023-03-25T00:00:00	2024-11-08T05:00:00	8	Radiación solar	0
27173	7	Sololá	710	Panajachel	8	Panajachel	3	Marzo	2023-03-25T00:00:00	2024-11-08T06:00:00	2	Temperatura media	17.9
27174	7	Sololá	710	Panajachel	8	Panajachel	3	Marzo	2023-03-25T00:00:00	2024-11-08T06:00:00	4	Temperatura máxima	18.1
27175	7	Sololá	710	Panajachel	8	Panajachel	3	Marzo	2023-03-25T00:00:00	2024-11-08T06:00:00	3	Temperatura mínima	17.9
27176	7	Sololá	710	Panajachel	8	Panajachel	3	Marzo	2023-03-25T00:00:00	2024-11-08T06:00:00	5	Humedad	79
27177	7	Sololá	710	Panajachel	8	Panajachel	3	Marzo	2023-03-25T00:00:00	2024-11-08T06:00:00	6	Velocidad del viento	0
27178	7	Sololá	710	Panajachel	8	Panajachel	3	Marzo	2023-03-25T00:00:00	2024-11-08T06:00:00	7	Dirección del viento	0
27179	7	Sololá	710	Panajachel	8	Panajachel	3	Marzo	2023-03-25T00:00:00	2024-11-08T06:00:00	1	Precipitación	0
27180	7	Sololá	710	Panajachel	8	Panajachel	3	Marzo	2023-03-25T00:00:00	2024-11-08T06:00:00	8	Radiación solar	0
27181	7	Sololá	710	Panajachel	8	Panajachel	3	Marzo	2023-03-25T00:00:00	2024-11-08T07:00:00	2	Temperatura media	18.1
27182	7	Sololá	710	Panajachel	8	Panajachel	3	Marzo	2023-03-25T00:00:00	2024-11-08T07:00:00	4	Temperatura máxima	18.1
27183	7	Sololá	710	Panajachel	8	Panajachel	3	Marzo	2023-03-25T00:00:00	2024-11-08T07:00:00	3	Temperatura mínima	17.8
27184	7	Sololá	710	Panajachel	8	Panajachel	3	Marzo	2023-03-25T00:00:00	2024-11-08T07:00:00	5	Humedad	81
27185	7	Sololá	710	Panajachel	8	Panajachel	3	Marzo	2023-03-25T00:00:00	2024-11-08T07:00:00	6	Velocidad del viento	0
27186	7	Sololá	710	Panajachel	8	Panajachel	3	Marzo	2023-03-25T00:00:00	2024-11-08T07:00:00	7	Dirección del viento	0
27187	7	Sololá	710	Panajachel	8	Panajachel	3	Marzo	2023-03-25T00:00:00	2024-11-08T07:00:00	1	Precipitación	0
27188	7	Sololá	710	Panajachel	8	Panajachel	3	Marzo	2023-03-25T00:00:00	2024-11-08T07:00:00	8	Radiación solar	10
27189	7	Sololá	710	Panajachel	8	Panajachel	3	Marzo	2023-03-25T00:00:00	2024-11-08T08:00:00	2	Temperatura media	19.2
27190	7	Sololá	710	Panajachel	8	Panajachel	3	Marzo	2023-03-25T00:00:00	2024-11-08T08:00:00	4	Temperatura máxima	19.2
27191	7	Sololá	710	Panajachel	8	Panajachel	3	Marzo	2023-03-25T00:00:00	2024-11-08T08:00:00	3	Temperatura mínima	18.1
27192	7	Sololá	710	Panajachel	8	Panajachel	3	Marzo	2023-03-25T00:00:00	2024-11-08T08:00:00	5	Humedad	80
27193	7	Sololá	710	Panajachel	8	Panajachel	3	Marzo	2023-03-25T00:00:00	2024-11-08T08:00:00	6	Velocidad del viento	0
27194	7	Sololá	710	Panajachel	8	Panajachel	3	Marzo	2023-03-25T00:00:00	2024-11-08T08:00:00	7	Dirección del viento	0
27195	7	Sololá	710	Panajachel	8	Panajachel	3	Marzo	2023-03-25T00:00:00	2024-11-08T08:00:00	1	Precipitación	0
27196	7	Sololá	710	Panajachel	8	Panajachel	3	Marzo	2023-03-25T00:00:00	2024-11-08T08:00:00	8	Radiación solar	95
27197	7	Sololá	710	Panajachel	8	Panajachel	3	Marzo	2023-03-25T00:00:00	2024-11-08T09:00:00	2	Temperatura media	19.4
27198	7	Sololá	710	Panajachel	8	Panajachel	3	Marzo	2023-03-25T00:00:00	2024-11-08T09:00:00	4	Temperatura máxima	19.4
27199	7	Sololá	710	Panajachel	8	Panajachel	3	Marzo	2023-03-25T00:00:00	2024-11-08T09:00:00	3	Temperatura mínima	19
27200	7	Sololá	710	Panajachel	8	Panajachel	3	Marzo	2023-03-25T00:00:00	2024-11-08T09:00:00	5	Humedad	80
27201	7	Sololá	710	Panajachel	8	Panajachel	3	Marzo	2023-03-25T00:00:00	2024-11-08T09:00:00	6	Velocidad del viento	0
27202	7	Sololá	710	Panajachel	8	Panajachel	3	Marzo	2023-03-25T00:00:00	2024-11-08T09:00:00	7	Dirección del viento	0
27203	7	Sololá	710	Panajachel	8	Panajachel	3	Marzo	2023-03-25T00:00:00	2024-11-08T09:00:00	1	Precipitación	0
27204	7	Sololá	710	Panajachel	8	Panajachel	3	Marzo	2023-03-25T00:00:00	2024-11-08T09:00:00	8	Radiación solar	128
27205	7	Sololá	710	Panajachel	8	Panajachel	3	Marzo	2023-03-25T00:00:00	2024-11-08T10:00:00	2	Temperatura media	21.2
27206	7	Sololá	710	Panajachel	8	Panajachel	3	Marzo	2023-03-25T00:00:00	2024-11-08T10:00:00	4	Temperatura máxima	21.2
27207	7	Sololá	710	Panajachel	8	Panajachel	3	Marzo	2023-03-25T00:00:00	2024-11-08T10:00:00	3	Temperatura mínima	19.4
27208	7	Sololá	710	Panajachel	8	Panajachel	3	Marzo	2023-03-25T00:00:00	2024-11-08T10:00:00	5	Humedad	74
27209	7	Sololá	710	Panajachel	8	Panajachel	3	Marzo	2023-03-25T00:00:00	2024-11-08T10:00:00	6	Velocidad del viento	1.6
27210	7	Sololá	710	Panajachel	8	Panajachel	3	Marzo	2023-03-25T00:00:00	2024-11-08T10:00:00	7	Dirección del viento	1.61
27211	7	Sololá	710	Panajachel	8	Panajachel	3	Marzo	2023-03-25T00:00:00	2024-11-08T10:00:00	1	Precipitación	0
27212	7	Sololá	710	Panajachel	8	Panajachel	3	Marzo	2023-03-25T00:00:00	2024-11-08T10:00:00	8	Radiación solar	479
27213	7	Sololá	710	Panajachel	8	Panajachel	3	Marzo	2023-03-25T00:00:00	2024-11-08T11:00:00	2	Temperatura media	22.5
27214	7	Sololá	710	Panajachel	8	Panajachel	3	Marzo	2023-03-25T00:00:00	2024-11-08T11:00:00	4	Temperatura máxima	22.5
27215	7	Sololá	710	Panajachel	8	Panajachel	3	Marzo	2023-03-25T00:00:00	2024-11-08T11:00:00	3	Temperatura mínima	21.2
27216	7	Sololá	710	Panajachel	8	Panajachel	3	Marzo	2023-03-25T00:00:00	2024-11-08T11:00:00	5	Humedad	71
27217	7	Sololá	710	Panajachel	8	Panajachel	3	Marzo	2023-03-25T00:00:00	2024-11-08T11:00:00	6	Velocidad del viento	3.2
27218	7	Sololá	710	Panajachel	8	Panajachel	3	Marzo	2023-03-25T00:00:00	2024-11-08T11:00:00	7	Dirección del viento	3.22
27219	7	Sololá	710	Panajachel	8	Panajachel	3	Marzo	2023-03-25T00:00:00	2024-11-08T11:00:00	1	Precipitación	0
27220	7	Sololá	710	Panajachel	8	Panajachel	3	Marzo	2023-03-25T00:00:00	2024-11-08T11:00:00	8	Radiación solar	915
27221	7	Sololá	710	Panajachel	8	Panajachel	3	Marzo	2023-03-25T00:00:00	2024-11-08T12:00:00	2	Temperatura media	21.6
27222	7	Sololá	710	Panajachel	8	Panajachel	3	Marzo	2023-03-25T00:00:00	2024-11-08T12:00:00	4	Temperatura máxima	22.5
27223	7	Sololá	710	Panajachel	8	Panajachel	3	Marzo	2023-03-25T00:00:00	2024-11-08T12:00:00	3	Temperatura mínima	20.8
27224	7	Sololá	710	Panajachel	8	Panajachel	3	Marzo	2023-03-25T00:00:00	2024-11-08T12:00:00	5	Humedad	73
27225	7	Sololá	710	Panajachel	8	Panajachel	3	Marzo	2023-03-25T00:00:00	2024-11-08T12:00:00	6	Velocidad del viento	6.4
27226	7	Sololá	710	Panajachel	8	Panajachel	3	Marzo	2023-03-25T00:00:00	2024-11-08T12:00:00	7	Dirección del viento	6.44
27227	7	Sololá	710	Panajachel	8	Panajachel	3	Marzo	2023-03-25T00:00:00	2024-11-08T12:00:00	1	Precipitación	0
27228	7	Sololá	710	Panajachel	8	Panajachel	3	Marzo	2023-03-25T00:00:00	2024-11-08T12:00:00	8	Radiación solar	957
27229	7	Sololá	710	Panajachel	8	Panajachel	3	Marzo	2023-03-25T00:00:00	2024-11-08T13:00:00	2	Temperatura media	21.4
27230	7	Sololá	710	Panajachel	8	Panajachel	3	Marzo	2023-03-25T00:00:00	2024-11-08T13:00:00	4	Temperatura máxima	22
27231	7	Sololá	710	Panajachel	8	Panajachel	3	Marzo	2023-03-25T00:00:00	2024-11-08T13:00:00	3	Temperatura mínima	21.3
27232	7	Sololá	710	Panajachel	8	Panajachel	3	Marzo	2023-03-25T00:00:00	2024-11-08T13:00:00	5	Humedad	76
27233	7	Sololá	710	Panajachel	8	Panajachel	3	Marzo	2023-03-25T00:00:00	2024-11-08T13:00:00	6	Velocidad del viento	6.4
27234	7	Sololá	710	Panajachel	8	Panajachel	3	Marzo	2023-03-25T00:00:00	2024-11-08T13:00:00	7	Dirección del viento	6.44
27235	7	Sololá	710	Panajachel	8	Panajachel	3	Marzo	2023-03-25T00:00:00	2024-11-08T13:00:00	1	Precipitación	0
27236	7	Sololá	710	Panajachel	8	Panajachel	3	Marzo	2023-03-25T00:00:00	2024-11-08T13:00:00	8	Radiación solar	841
27237	7	Sololá	710	Panajachel	8	Panajachel	3	Marzo	2023-03-25T00:00:00	2024-11-08T14:00:00	2	Temperatura media	21.5
27238	7	Sololá	710	Panajachel	8	Panajachel	3	Marzo	2023-03-25T00:00:00	2024-11-08T14:00:00	4	Temperatura máxima	22.3
27239	7	Sololá	710	Panajachel	8	Panajachel	3	Marzo	2023-03-25T00:00:00	2024-11-08T14:00:00	3	Temperatura mínima	21.2
27240	7	Sololá	710	Panajachel	8	Panajachel	3	Marzo	2023-03-25T00:00:00	2024-11-08T14:00:00	5	Humedad	78
27241	7	Sololá	710	Panajachel	8	Panajachel	3	Marzo	2023-03-25T00:00:00	2024-11-08T14:00:00	6	Velocidad del viento	6.4
27242	7	Sololá	710	Panajachel	8	Panajachel	3	Marzo	2023-03-25T00:00:00	2024-11-08T14:00:00	7	Dirección del viento	6.44
27243	7	Sololá	710	Panajachel	8	Panajachel	3	Marzo	2023-03-25T00:00:00	2024-11-08T14:00:00	1	Precipitación	0
27244	7	Sololá	710	Panajachel	8	Panajachel	3	Marzo	2023-03-25T00:00:00	2024-11-08T14:00:00	8	Radiación solar	311
27245	7	Sololá	710	Panajachel	8	Panajachel	3	Marzo	2023-03-25T00:00:00	2024-11-08T15:00:00	2	Temperatura media	21.1
27246	7	Sololá	710	Panajachel	8	Panajachel	3	Marzo	2023-03-25T00:00:00	2024-11-08T15:00:00	4	Temperatura máxima	22.2
27247	7	Sololá	710	Panajachel	8	Panajachel	3	Marzo	2023-03-25T00:00:00	2024-11-08T15:00:00	3	Temperatura mínima	20.8
27248	7	Sololá	710	Panajachel	8	Panajachel	3	Marzo	2023-03-25T00:00:00	2024-11-08T15:00:00	5	Humedad	81
27249	7	Sololá	710	Panajachel	8	Panajachel	3	Marzo	2023-03-25T00:00:00	2024-11-08T15:00:00	6	Velocidad del viento	4.8
27250	7	Sololá	710	Panajachel	8	Panajachel	3	Marzo	2023-03-25T00:00:00	2024-11-08T15:00:00	7	Dirección del viento	4.83
27251	7	Sololá	710	Panajachel	8	Panajachel	3	Marzo	2023-03-25T00:00:00	2024-11-08T15:00:00	1	Precipitación	0
27252	7	Sololá	710	Panajachel	8	Panajachel	3	Marzo	2023-03-25T00:00:00	2024-11-08T15:00:00	8	Radiación solar	217
27253	7	Sololá	710	Panajachel	8	Panajachel	3	Marzo	2023-03-25T00:00:00	2024-11-08T16:00:00	2	Temperatura media	20.6
27254	7	Sololá	710	Panajachel	8	Panajachel	3	Marzo	2023-03-25T00:00:00	2024-11-08T16:00:00	4	Temperatura máxima	21.1
27255	7	Sololá	710	Panajachel	8	Panajachel	3	Marzo	2023-03-25T00:00:00	2024-11-08T16:00:00	3	Temperatura mínima	20.5
27256	7	Sololá	710	Panajachel	8	Panajachel	3	Marzo	2023-03-25T00:00:00	2024-11-08T16:00:00	5	Humedad	82
27257	7	Sololá	710	Panajachel	8	Panajachel	3	Marzo	2023-03-25T00:00:00	2024-11-08T16:00:00	6	Velocidad del viento	6.4
27258	7	Sololá	710	Panajachel	8	Panajachel	3	Marzo	2023-03-25T00:00:00	2024-11-08T16:00:00	7	Dirección del viento	6.44
27259	7	Sololá	710	Panajachel	8	Panajachel	3	Marzo	2023-03-25T00:00:00	2024-11-08T16:00:00	1	Precipitación	0
27260	7	Sololá	710	Panajachel	8	Panajachel	3	Marzo	2023-03-25T00:00:00	2024-11-08T16:00:00	8	Radiación solar	154
27261	7	Sololá	710	Panajachel	8	Panajachel	3	Marzo	2023-03-25T00:00:00	2024-11-08T17:00:00	2	Temperatura media	20.5
27262	7	Sololá	710	Panajachel	8	Panajachel	3	Marzo	2023-03-25T00:00:00	2024-11-08T17:00:00	4	Temperatura máxima	21.1
27263	7	Sololá	710	Panajachel	8	Panajachel	3	Marzo	2023-03-25T00:00:00	2024-11-08T17:00:00	3	Temperatura mínima	20.5
27264	7	Sololá	710	Panajachel	8	Panajachel	3	Marzo	2023-03-25T00:00:00	2024-11-08T17:00:00	5	Humedad	80
27265	7	Sololá	710	Panajachel	8	Panajachel	3	Marzo	2023-03-25T00:00:00	2024-11-08T17:00:00	6	Velocidad del viento	6.4
27266	7	Sololá	710	Panajachel	8	Panajachel	3	Marzo	2023-03-25T00:00:00	2024-11-08T17:00:00	7	Dirección del viento	6.44
27267	7	Sololá	710	Panajachel	8	Panajachel	3	Marzo	2023-03-25T00:00:00	2024-11-08T17:00:00	1	Precipitación	0
27268	7	Sololá	710	Panajachel	8	Panajachel	3	Marzo	2023-03-25T00:00:00	2024-11-08T17:00:00	8	Radiación solar	133
27269	7	Sololá	710	Panajachel	8	Panajachel	3	Marzo	2023-03-25T00:00:00	2024-11-08T18:00:00	2	Temperatura media	20.7
27270	7	Sololá	710	Panajachel	8	Panajachel	3	Marzo	2023-03-25T00:00:00	2024-11-08T18:00:00	4	Temperatura máxima	21.1
27271	7	Sololá	710	Panajachel	8	Panajachel	3	Marzo	2023-03-25T00:00:00	2024-11-08T18:00:00	3	Temperatura mínima	20.4
27272	7	Sololá	710	Panajachel	8	Panajachel	3	Marzo	2023-03-25T00:00:00	2024-11-08T18:00:00	5	Humedad	78
27273	7	Sololá	710	Panajachel	8	Panajachel	3	Marzo	2023-03-25T00:00:00	2024-11-08T18:00:00	6	Velocidad del viento	1.6
27274	7	Sololá	710	Panajachel	8	Panajachel	3	Marzo	2023-03-25T00:00:00	2024-11-08T18:00:00	7	Dirección del viento	1.61
27275	7	Sololá	710	Panajachel	8	Panajachel	3	Marzo	2023-03-25T00:00:00	2024-11-08T18:00:00	1	Precipitación	0
27276	7	Sololá	710	Panajachel	8	Panajachel	3	Marzo	2023-03-25T00:00:00	2024-11-08T18:00:00	8	Radiación solar	64
27277	7	Sololá	710	Panajachel	8	Panajachel	3	Marzo	2023-03-25T00:00:00	2024-11-08T19:00:00	2	Temperatura media	19.8
27278	7	Sololá	710	Panajachel	8	Panajachel	3	Marzo	2023-03-25T00:00:00	2024-11-08T19:00:00	4	Temperatura máxima	20.7
27279	7	Sololá	710	Panajachel	8	Panajachel	3	Marzo	2023-03-25T00:00:00	2024-11-08T19:00:00	3	Temperatura mínima	19.8
27280	7	Sololá	710	Panajachel	8	Panajachel	3	Marzo	2023-03-25T00:00:00	2024-11-08T19:00:00	5	Humedad	86
27281	7	Sololá	710	Panajachel	8	Panajachel	3	Marzo	2023-03-25T00:00:00	2024-11-08T19:00:00	6	Velocidad del viento	0
27282	7	Sololá	710	Panajachel	8	Panajachel	3	Marzo	2023-03-25T00:00:00	2024-11-08T19:00:00	7	Dirección del viento	0
27283	7	Sololá	710	Panajachel	8	Panajachel	3	Marzo	2023-03-25T00:00:00	2024-11-08T19:00:00	1	Precipitación	0
27284	7	Sololá	710	Panajachel	8	Panajachel	3	Marzo	2023-03-25T00:00:00	2024-11-08T19:00:00	8	Radiación solar	0
27285	7	Sololá	710	Panajachel	8	Panajachel	3	Marzo	2023-03-25T00:00:00	2024-11-08T20:00:00	2	Temperatura media	19.3
27286	7	Sololá	710	Panajachel	8	Panajachel	3	Marzo	2023-03-25T00:00:00	2024-11-08T20:00:00	4	Temperatura máxima	19.8
27287	7	Sololá	710	Panajachel	8	Panajachel	3	Marzo	2023-03-25T00:00:00	2024-11-08T20:00:00	3	Temperatura mínima	19.3
27288	7	Sololá	710	Panajachel	8	Panajachel	3	Marzo	2023-03-25T00:00:00	2024-11-08T20:00:00	5	Humedad	81
27289	7	Sololá	710	Panajachel	8	Panajachel	3	Marzo	2023-03-25T00:00:00	2024-11-08T20:00:00	6	Velocidad del viento	0
27290	7	Sololá	710	Panajachel	8	Panajachel	3	Marzo	2023-03-25T00:00:00	2024-11-08T20:00:00	7	Dirección del viento	0
27291	7	Sololá	710	Panajachel	8	Panajachel	3	Marzo	2023-03-25T00:00:00	2024-11-08T20:00:00	1	Precipitación	0
27292	7	Sololá	710	Panajachel	8	Panajachel	3	Marzo	2023-03-25T00:00:00	2024-11-08T20:00:00	8	Radiación solar	0
27293	7	Sololá	710	Panajachel	8	Panajachel	3	Marzo	2023-03-25T00:00:00	2024-11-08T21:00:00	2	Temperatura media	18.8
27294	7	Sololá	710	Panajachel	8	Panajachel	3	Marzo	2023-03-25T00:00:00	2024-11-08T21:00:00	4	Temperatura máxima	19.3
27295	7	Sololá	710	Panajachel	8	Panajachel	3	Marzo	2023-03-25T00:00:00	2024-11-08T21:00:00	3	Temperatura mínima	18.8
27296	7	Sololá	710	Panajachel	8	Panajachel	3	Marzo	2023-03-25T00:00:00	2024-11-08T21:00:00	5	Humedad	79
27297	7	Sololá	710	Panajachel	8	Panajachel	3	Marzo	2023-03-25T00:00:00	2024-11-08T21:00:00	6	Velocidad del viento	3.2
27298	7	Sololá	710	Panajachel	8	Panajachel	3	Marzo	2023-03-25T00:00:00	2024-11-08T21:00:00	7	Dirección del viento	3.22
27299	7	Sololá	710	Panajachel	8	Panajachel	3	Marzo	2023-03-25T00:00:00	2024-11-08T21:00:00	1	Precipitación	0
27300	7	Sololá	710	Panajachel	8	Panajachel	3	Marzo	2023-03-25T00:00:00	2024-11-08T21:00:00	8	Radiación solar	0
27301	7	Sololá	710	Panajachel	8	Panajachel	3	Marzo	2023-03-25T00:00:00	2024-11-08T22:00:00	2	Temperatura media	18
27302	7	Sololá	710	Panajachel	8	Panajachel	3	Marzo	2023-03-25T00:00:00	2024-11-08T22:00:00	4	Temperatura máxima	18.8
27303	7	Sololá	710	Panajachel	8	Panajachel	3	Marzo	2023-03-25T00:00:00	2024-11-08T22:00:00	3	Temperatura mínima	17.9
27304	7	Sololá	710	Panajachel	8	Panajachel	3	Marzo	2023-03-25T00:00:00	2024-11-08T22:00:00	5	Humedad	81
27305	7	Sololá	710	Panajachel	8	Panajachel	3	Marzo	2023-03-25T00:00:00	2024-11-08T22:00:00	6	Velocidad del viento	1.6
27306	7	Sololá	710	Panajachel	8	Panajachel	3	Marzo	2023-03-25T00:00:00	2024-11-08T22:00:00	7	Dirección del viento	1.61
27307	7	Sololá	710	Panajachel	8	Panajachel	3	Marzo	2023-03-25T00:00:00	2024-11-08T22:00:00	1	Precipitación	0
27308	7	Sololá	710	Panajachel	8	Panajachel	3	Marzo	2023-03-25T00:00:00	2024-11-08T22:00:00	8	Radiación solar	0
27309	7	Sololá	710	Panajachel	8	Panajachel	3	Marzo	2023-03-25T00:00:00	2024-11-08T23:00:00	2	Temperatura media	18
27310	7	Sololá	710	Panajachel	8	Panajachel	3	Marzo	2023-03-25T00:00:00	2024-11-08T23:00:00	4	Temperatura máxima	18
27311	7	Sololá	710	Panajachel	8	Panajachel	3	Marzo	2023-03-25T00:00:00	2024-11-08T23:00:00	3	Temperatura mínima	17.7
27312	7	Sololá	710	Panajachel	8	Panajachel	3	Marzo	2023-03-25T00:00:00	2024-11-08T23:00:00	5	Humedad	80
27313	7	Sololá	710	Panajachel	8	Panajachel	3	Marzo	2023-03-25T00:00:00	2024-11-08T23:00:00	6	Velocidad del viento	1.6
27314	7	Sololá	710	Panajachel	8	Panajachel	3	Marzo	2023-03-25T00:00:00	2024-11-08T23:00:00	7	Dirección del viento	1.61
27315	7	Sololá	710	Panajachel	8	Panajachel	3	Marzo	2023-03-25T00:00:00	2024-11-08T23:00:00	1	Precipitación	0
27316	7	Sololá	710	Panajachel	8	Panajachel	3	Marzo	2023-03-25T00:00:00	2024-11-08T23:00:00	8	Radiación solar	0
27317	7	Sololá	710	Panajachel	8	Panajachel	3	Marzo	2023-03-26T00:00:00	2024-11-08T00:00:00	2	Temperatura media	18.2
27318	7	Sololá	710	Panajachel	8	Panajachel	3	Marzo	2023-03-26T00:00:00	2024-11-08T00:00:00	4	Temperatura máxima	18.2
27319	7	Sololá	710	Panajachel	8	Panajachel	3	Marzo	2023-03-26T00:00:00	2024-11-08T00:00:00	3	Temperatura mínima	17.9
27320	7	Sololá	710	Panajachel	8	Panajachel	3	Marzo	2023-03-26T00:00:00	2024-11-08T00:00:00	5	Humedad	81
27321	7	Sololá	710	Panajachel	8	Panajachel	3	Marzo	2023-03-26T00:00:00	2024-11-08T00:00:00	6	Velocidad del viento	1.6
27322	7	Sololá	710	Panajachel	8	Panajachel	3	Marzo	2023-03-26T00:00:00	2024-11-08T00:00:00	7	Dirección del viento	1.61
27323	7	Sololá	710	Panajachel	8	Panajachel	3	Marzo	2023-03-26T00:00:00	2024-11-08T00:00:00	1	Precipitación	0
27324	7	Sololá	710	Panajachel	8	Panajachel	3	Marzo	2023-03-26T00:00:00	2024-11-08T00:00:00	8	Radiación solar	0
27325	7	Sololá	710	Panajachel	8	Panajachel	3	Marzo	2023-03-26T00:00:00	2024-11-08T01:00:00	2	Temperatura media	17.7
27326	7	Sololá	710	Panajachel	8	Panajachel	3	Marzo	2023-03-26T00:00:00	2024-11-08T01:00:00	4	Temperatura máxima	18.2
27327	7	Sololá	710	Panajachel	8	Panajachel	3	Marzo	2023-03-26T00:00:00	2024-11-08T01:00:00	3	Temperatura mínima	17.5
27328	7	Sololá	710	Panajachel	8	Panajachel	3	Marzo	2023-03-26T00:00:00	2024-11-08T01:00:00	5	Humedad	82
27329	7	Sololá	710	Panajachel	8	Panajachel	3	Marzo	2023-03-26T00:00:00	2024-11-08T01:00:00	6	Velocidad del viento	3.2
27330	7	Sololá	710	Panajachel	8	Panajachel	3	Marzo	2023-03-26T00:00:00	2024-11-08T01:00:00	7	Dirección del viento	3.22
27331	7	Sololá	710	Panajachel	8	Panajachel	3	Marzo	2023-03-26T00:00:00	2024-11-08T01:00:00	1	Precipitación	0
27332	7	Sololá	710	Panajachel	8	Panajachel	3	Marzo	2023-03-26T00:00:00	2024-11-08T01:00:00	8	Radiación solar	0
27333	7	Sololá	710	Panajachel	8	Panajachel	3	Marzo	2023-03-26T00:00:00	2024-11-08T02:00:00	2	Temperatura media	17.9
27334	7	Sololá	710	Panajachel	8	Panajachel	3	Marzo	2023-03-26T00:00:00	2024-11-08T02:00:00	4	Temperatura máxima	18
27335	7	Sololá	710	Panajachel	8	Panajachel	3	Marzo	2023-03-26T00:00:00	2024-11-08T02:00:00	3	Temperatura mínima	17.7
27336	7	Sololá	710	Panajachel	8	Panajachel	3	Marzo	2023-03-26T00:00:00	2024-11-08T02:00:00	5	Humedad	81
27337	7	Sololá	710	Panajachel	8	Panajachel	3	Marzo	2023-03-26T00:00:00	2024-11-08T02:00:00	6	Velocidad del viento	1.6
27338	7	Sololá	710	Panajachel	8	Panajachel	3	Marzo	2023-03-26T00:00:00	2024-11-08T02:00:00	7	Dirección del viento	1.61
27339	7	Sololá	710	Panajachel	8	Panajachel	3	Marzo	2023-03-26T00:00:00	2024-11-08T02:00:00	1	Precipitación	0
27340	7	Sololá	710	Panajachel	8	Panajachel	3	Marzo	2023-03-26T00:00:00	2024-11-08T02:00:00	8	Radiación solar	0
27341	7	Sololá	710	Panajachel	8	Panajachel	3	Marzo	2023-03-26T00:00:00	2024-11-08T03:00:00	2	Temperatura media	17.8
27342	7	Sololá	710	Panajachel	8	Panajachel	3	Marzo	2023-03-26T00:00:00	2024-11-08T03:00:00	4	Temperatura máxima	18.1
27343	7	Sololá	710	Panajachel	8	Panajachel	3	Marzo	2023-03-26T00:00:00	2024-11-08T03:00:00	3	Temperatura mínima	17.8
27344	7	Sololá	710	Panajachel	8	Panajachel	3	Marzo	2023-03-26T00:00:00	2024-11-08T03:00:00	5	Humedad	81
27345	7	Sololá	710	Panajachel	8	Panajachel	3	Marzo	2023-03-26T00:00:00	2024-11-08T03:00:00	6	Velocidad del viento	0
27346	7	Sololá	710	Panajachel	8	Panajachel	3	Marzo	2023-03-26T00:00:00	2024-11-08T03:00:00	7	Dirección del viento	0
27347	7	Sololá	710	Panajachel	8	Panajachel	3	Marzo	2023-03-26T00:00:00	2024-11-08T03:00:00	1	Precipitación	0
27348	7	Sololá	710	Panajachel	8	Panajachel	3	Marzo	2023-03-26T00:00:00	2024-11-08T03:00:00	8	Radiación solar	0
27349	7	Sololá	710	Panajachel	8	Panajachel	3	Marzo	2023-03-26T00:00:00	2024-11-08T04:00:00	2	Temperatura media	17.7
27350	7	Sololá	710	Panajachel	8	Panajachel	3	Marzo	2023-03-26T00:00:00	2024-11-08T04:00:00	4	Temperatura máxima	18
27351	7	Sololá	710	Panajachel	8	Panajachel	3	Marzo	2023-03-26T00:00:00	2024-11-08T04:00:00	3	Temperatura mínima	17.7
27352	7	Sololá	710	Panajachel	8	Panajachel	3	Marzo	2023-03-26T00:00:00	2024-11-08T04:00:00	5	Humedad	89
27353	7	Sololá	710	Panajachel	8	Panajachel	3	Marzo	2023-03-26T00:00:00	2024-11-08T04:00:00	6	Velocidad del viento	1.6
27354	7	Sololá	710	Panajachel	8	Panajachel	3	Marzo	2023-03-26T00:00:00	2024-11-08T04:00:00	7	Dirección del viento	1.61
27355	7	Sololá	710	Panajachel	8	Panajachel	3	Marzo	2023-03-26T00:00:00	2024-11-08T04:00:00	1	Precipitación	0
27356	7	Sololá	710	Panajachel	8	Panajachel	3	Marzo	2023-03-26T00:00:00	2024-11-08T04:00:00	8	Radiación solar	0
27357	7	Sololá	710	Panajachel	8	Panajachel	3	Marzo	2023-03-26T00:00:00	2024-11-08T05:00:00	2	Temperatura media	17.4
27358	7	Sololá	710	Panajachel	8	Panajachel	3	Marzo	2023-03-26T00:00:00	2024-11-08T05:00:00	4	Temperatura máxima	17.7
27359	7	Sololá	710	Panajachel	8	Panajachel	3	Marzo	2023-03-26T00:00:00	2024-11-08T05:00:00	3	Temperatura mínima	17.3
27360	7	Sololá	710	Panajachel	8	Panajachel	3	Marzo	2023-03-26T00:00:00	2024-11-08T05:00:00	5	Humedad	85
27361	7	Sololá	710	Panajachel	8	Panajachel	3	Marzo	2023-03-26T00:00:00	2024-11-08T05:00:00	6	Velocidad del viento	3.2
27362	7	Sololá	710	Panajachel	8	Panajachel	3	Marzo	2023-03-26T00:00:00	2024-11-08T05:00:00	7	Dirección del viento	3.22
27363	7	Sololá	710	Panajachel	8	Panajachel	3	Marzo	2023-03-26T00:00:00	2024-11-08T05:00:00	1	Precipitación	0
27364	7	Sololá	710	Panajachel	8	Panajachel	3	Marzo	2023-03-26T00:00:00	2024-11-08T05:00:00	8	Radiación solar	0
27365	7	Sololá	710	Panajachel	8	Panajachel	3	Marzo	2023-03-26T00:00:00	2024-11-08T06:00:00	2	Temperatura media	17.1
27366	7	Sololá	710	Panajachel	8	Panajachel	3	Marzo	2023-03-26T00:00:00	2024-11-08T06:00:00	4	Temperatura máxima	17.4
27367	7	Sololá	710	Panajachel	8	Panajachel	3	Marzo	2023-03-26T00:00:00	2024-11-08T06:00:00	3	Temperatura mínima	17.1
27368	7	Sololá	710	Panajachel	8	Panajachel	3	Marzo	2023-03-26T00:00:00	2024-11-08T06:00:00	5	Humedad	84
27369	7	Sololá	710	Panajachel	8	Panajachel	3	Marzo	2023-03-26T00:00:00	2024-11-08T06:00:00	6	Velocidad del viento	3.2
27370	7	Sololá	710	Panajachel	8	Panajachel	3	Marzo	2023-03-26T00:00:00	2024-11-08T06:00:00	7	Dirección del viento	3.22
27371	7	Sololá	710	Panajachel	8	Panajachel	3	Marzo	2023-03-26T00:00:00	2024-11-08T06:00:00	1	Precipitación	0
27372	7	Sololá	710	Panajachel	8	Panajachel	3	Marzo	2023-03-26T00:00:00	2024-11-08T06:00:00	8	Radiación solar	0
27373	7	Sololá	710	Panajachel	8	Panajachel	3	Marzo	2023-03-26T00:00:00	2024-11-08T07:00:00	2	Temperatura media	17.3
27374	7	Sololá	710	Panajachel	8	Panajachel	3	Marzo	2023-03-26T00:00:00	2024-11-08T07:00:00	4	Temperatura máxima	17.3
27375	7	Sololá	710	Panajachel	8	Panajachel	3	Marzo	2023-03-26T00:00:00	2024-11-08T07:00:00	3	Temperatura mínima	17.1
27376	7	Sololá	710	Panajachel	8	Panajachel	3	Marzo	2023-03-26T00:00:00	2024-11-08T07:00:00	5	Humedad	84
27377	7	Sololá	710	Panajachel	8	Panajachel	3	Marzo	2023-03-26T00:00:00	2024-11-08T07:00:00	6	Velocidad del viento	0
27378	7	Sololá	710	Panajachel	8	Panajachel	3	Marzo	2023-03-26T00:00:00	2024-11-08T07:00:00	7	Dirección del viento	0
27379	7	Sololá	710	Panajachel	8	Panajachel	3	Marzo	2023-03-26T00:00:00	2024-11-08T07:00:00	1	Precipitación	0
27380	7	Sololá	710	Panajachel	8	Panajachel	3	Marzo	2023-03-26T00:00:00	2024-11-08T07:00:00	8	Radiación solar	18
27381	7	Sololá	710	Panajachel	8	Panajachel	3	Marzo	2023-03-26T00:00:00	2024-11-08T08:00:00	2	Temperatura media	18.1
27382	7	Sololá	710	Panajachel	8	Panajachel	3	Marzo	2023-03-26T00:00:00	2024-11-08T08:00:00	4	Temperatura máxima	18.1
27383	7	Sololá	710	Panajachel	8	Panajachel	3	Marzo	2023-03-26T00:00:00	2024-11-08T08:00:00	3	Temperatura mínima	17.3
27384	7	Sololá	710	Panajachel	8	Panajachel	3	Marzo	2023-03-26T00:00:00	2024-11-08T08:00:00	5	Humedad	85
27385	7	Sololá	710	Panajachel	8	Panajachel	3	Marzo	2023-03-26T00:00:00	2024-11-08T08:00:00	6	Velocidad del viento	1.6
27386	7	Sololá	710	Panajachel	8	Panajachel	3	Marzo	2023-03-26T00:00:00	2024-11-08T08:00:00	7	Dirección del viento	1.61
27387	7	Sololá	710	Panajachel	8	Panajachel	3	Marzo	2023-03-26T00:00:00	2024-11-08T08:00:00	1	Precipitación	0
27388	7	Sololá	710	Panajachel	8	Panajachel	3	Marzo	2023-03-26T00:00:00	2024-11-08T08:00:00	8	Radiación solar	119
27389	7	Sololá	710	Panajachel	8	Panajachel	3	Marzo	2023-03-26T00:00:00	2024-11-08T09:00:00	2	Temperatura media	19
27390	7	Sololá	710	Panajachel	8	Panajachel	3	Marzo	2023-03-26T00:00:00	2024-11-08T09:00:00	4	Temperatura máxima	19.3
27391	7	Sololá	710	Panajachel	8	Panajachel	3	Marzo	2023-03-26T00:00:00	2024-11-08T09:00:00	3	Temperatura mínima	18.1
27392	7	Sololá	710	Panajachel	8	Panajachel	3	Marzo	2023-03-26T00:00:00	2024-11-08T09:00:00	5	Humedad	80
27393	7	Sololá	710	Panajachel	8	Panajachel	3	Marzo	2023-03-26T00:00:00	2024-11-08T09:00:00	6	Velocidad del viento	3.2
27394	7	Sololá	710	Panajachel	8	Panajachel	3	Marzo	2023-03-26T00:00:00	2024-11-08T09:00:00	7	Dirección del viento	3.22
27395	7	Sololá	710	Panajachel	8	Panajachel	3	Marzo	2023-03-26T00:00:00	2024-11-08T09:00:00	1	Precipitación	0
27396	7	Sololá	710	Panajachel	8	Panajachel	3	Marzo	2023-03-26T00:00:00	2024-11-08T09:00:00	8	Radiación solar	304
27397	7	Sololá	710	Panajachel	8	Panajachel	3	Marzo	2023-03-26T00:00:00	2024-11-08T10:00:00	2	Temperatura media	19.9
27398	7	Sololá	710	Panajachel	8	Panajachel	3	Marzo	2023-03-26T00:00:00	2024-11-08T10:00:00	4	Temperatura máxima	20.3
27399	7	Sololá	710	Panajachel	8	Panajachel	3	Marzo	2023-03-26T00:00:00	2024-11-08T10:00:00	3	Temperatura mínima	18.9
27400	7	Sololá	710	Panajachel	8	Panajachel	3	Marzo	2023-03-26T00:00:00	2024-11-08T10:00:00	5	Humedad	76
27401	7	Sololá	710	Panajachel	8	Panajachel	3	Marzo	2023-03-26T00:00:00	2024-11-08T10:00:00	6	Velocidad del viento	3.2
27402	7	Sololá	710	Panajachel	8	Panajachel	3	Marzo	2023-03-26T00:00:00	2024-11-08T10:00:00	7	Dirección del viento	3.22
27403	7	Sololá	710	Panajachel	8	Panajachel	3	Marzo	2023-03-26T00:00:00	2024-11-08T10:00:00	1	Precipitación	0
27404	7	Sololá	710	Panajachel	8	Panajachel	3	Marzo	2023-03-26T00:00:00	2024-11-08T10:00:00	8	Radiación solar	667
27405	7	Sololá	710	Panajachel	8	Panajachel	3	Marzo	2023-03-26T00:00:00	2024-11-08T11:00:00	2	Temperatura media	21.1
27406	7	Sololá	710	Panajachel	8	Panajachel	3	Marzo	2023-03-26T00:00:00	2024-11-08T11:00:00	4	Temperatura máxima	21.4
27407	7	Sololá	710	Panajachel	8	Panajachel	3	Marzo	2023-03-26T00:00:00	2024-11-08T11:00:00	3	Temperatura mínima	19.6
27408	7	Sololá	710	Panajachel	8	Panajachel	3	Marzo	2023-03-26T00:00:00	2024-11-08T11:00:00	5	Humedad	74
27409	7	Sololá	710	Panajachel	8	Panajachel	3	Marzo	2023-03-26T00:00:00	2024-11-08T11:00:00	6	Velocidad del viento	3.2
27410	7	Sololá	710	Panajachel	8	Panajachel	3	Marzo	2023-03-26T00:00:00	2024-11-08T11:00:00	7	Dirección del viento	3.22
27411	7	Sololá	710	Panajachel	8	Panajachel	3	Marzo	2023-03-26T00:00:00	2024-11-08T11:00:00	1	Precipitación	0
27412	7	Sololá	710	Panajachel	8	Panajachel	3	Marzo	2023-03-26T00:00:00	2024-11-08T11:00:00	8	Radiación solar	848
27413	7	Sololá	710	Panajachel	8	Panajachel	3	Marzo	2023-03-26T00:00:00	2024-11-08T12:00:00	2	Temperatura media	22
27414	7	Sololá	710	Panajachel	8	Panajachel	3	Marzo	2023-03-26T00:00:00	2024-11-08T12:00:00	4	Temperatura máxima	22.1
27415	7	Sololá	710	Panajachel	8	Panajachel	3	Marzo	2023-03-26T00:00:00	2024-11-08T12:00:00	3	Temperatura mínima	20.4
27416	7	Sololá	710	Panajachel	8	Panajachel	3	Marzo	2023-03-26T00:00:00	2024-11-08T12:00:00	5	Humedad	72
27417	7	Sololá	710	Panajachel	8	Panajachel	3	Marzo	2023-03-26T00:00:00	2024-11-08T12:00:00	6	Velocidad del viento	3.2
27418	7	Sololá	710	Panajachel	8	Panajachel	3	Marzo	2023-03-26T00:00:00	2024-11-08T12:00:00	7	Dirección del viento	3.22
27419	7	Sololá	710	Panajachel	8	Panajachel	3	Marzo	2023-03-26T00:00:00	2024-11-08T12:00:00	1	Precipitación	0
27420	7	Sololá	710	Panajachel	8	Panajachel	3	Marzo	2023-03-26T00:00:00	2024-11-08T12:00:00	8	Radiación solar	956
27421	7	Sololá	710	Panajachel	8	Panajachel	3	Marzo	2023-03-26T00:00:00	2024-11-08T13:00:00	2	Temperatura media	23.1
27422	7	Sololá	710	Panajachel	8	Panajachel	3	Marzo	2023-03-26T00:00:00	2024-11-08T13:00:00	4	Temperatura máxima	23.3
27423	7	Sololá	710	Panajachel	8	Panajachel	3	Marzo	2023-03-26T00:00:00	2024-11-08T13:00:00	3	Temperatura mínima	21.4
27424	7	Sololá	710	Panajachel	8	Panajachel	3	Marzo	2023-03-26T00:00:00	2024-11-08T13:00:00	5	Humedad	72
27425	7	Sololá	710	Panajachel	8	Panajachel	3	Marzo	2023-03-26T00:00:00	2024-11-08T13:00:00	6	Velocidad del viento	4.8
27426	7	Sololá	710	Panajachel	8	Panajachel	3	Marzo	2023-03-26T00:00:00	2024-11-08T13:00:00	7	Dirección del viento	4.83
27427	7	Sololá	710	Panajachel	8	Panajachel	3	Marzo	2023-03-26T00:00:00	2024-11-08T13:00:00	1	Precipitación	0
27428	7	Sololá	710	Panajachel	8	Panajachel	3	Marzo	2023-03-26T00:00:00	2024-11-08T13:00:00	8	Radiación solar	962
27429	7	Sololá	710	Panajachel	8	Panajachel	3	Marzo	2023-03-26T00:00:00	2024-11-08T14:00:00	2	Temperatura media	22.2
27430	7	Sololá	710	Panajachel	8	Panajachel	3	Marzo	2023-03-26T00:00:00	2024-11-08T14:00:00	4	Temperatura máxima	23.2
27431	7	Sololá	710	Panajachel	8	Panajachel	3	Marzo	2023-03-26T00:00:00	2024-11-08T14:00:00	3	Temperatura mínima	22.2
27432	7	Sololá	710	Panajachel	8	Panajachel	3	Marzo	2023-03-26T00:00:00	2024-11-08T14:00:00	5	Humedad	75
27433	7	Sololá	710	Panajachel	8	Panajachel	3	Marzo	2023-03-26T00:00:00	2024-11-08T14:00:00	6	Velocidad del viento	6.4
27434	7	Sololá	710	Panajachel	8	Panajachel	3	Marzo	2023-03-26T00:00:00	2024-11-08T14:00:00	7	Dirección del viento	6.44
27435	7	Sololá	710	Panajachel	8	Panajachel	3	Marzo	2023-03-26T00:00:00	2024-11-08T14:00:00	1	Precipitación	0
27436	7	Sololá	710	Panajachel	8	Panajachel	3	Marzo	2023-03-26T00:00:00	2024-11-08T14:00:00	8	Radiación solar	795
27437	7	Sololá	710	Panajachel	8	Panajachel	3	Marzo	2023-03-26T00:00:00	2024-11-08T15:00:00	2	Temperatura media	21.1
27438	7	Sololá	710	Panajachel	8	Panajachel	3	Marzo	2023-03-26T00:00:00	2024-11-08T15:00:00	4	Temperatura máxima	22.6
27439	7	Sololá	710	Panajachel	8	Panajachel	3	Marzo	2023-03-26T00:00:00	2024-11-08T15:00:00	3	Temperatura mínima	20.9
27440	7	Sololá	710	Panajachel	8	Panajachel	3	Marzo	2023-03-26T00:00:00	2024-11-08T15:00:00	5	Humedad	80
27441	7	Sololá	710	Panajachel	8	Panajachel	3	Marzo	2023-03-26T00:00:00	2024-11-08T15:00:00	6	Velocidad del viento	6.4
27442	7	Sololá	710	Panajachel	8	Panajachel	3	Marzo	2023-03-26T00:00:00	2024-11-08T15:00:00	7	Dirección del viento	6.44
27443	7	Sololá	710	Panajachel	8	Panajachel	3	Marzo	2023-03-26T00:00:00	2024-11-08T15:00:00	1	Precipitación	0
27444	7	Sololá	710	Panajachel	8	Panajachel	3	Marzo	2023-03-26T00:00:00	2024-11-08T15:00:00	8	Radiación solar	359
27445	7	Sololá	710	Panajachel	8	Panajachel	3	Marzo	2023-03-26T00:00:00	2024-11-08T16:00:00	2	Temperatura media	21.1
27446	7	Sololá	710	Panajachel	8	Panajachel	3	Marzo	2023-03-26T00:00:00	2024-11-08T16:00:00	4	Temperatura máxima	21.8
27447	7	Sololá	710	Panajachel	8	Panajachel	3	Marzo	2023-03-26T00:00:00	2024-11-08T16:00:00	3	Temperatura mínima	20.9
27448	7	Sololá	710	Panajachel	8	Panajachel	3	Marzo	2023-03-26T00:00:00	2024-11-08T16:00:00	5	Humedad	79
27449	7	Sololá	710	Panajachel	8	Panajachel	3	Marzo	2023-03-26T00:00:00	2024-11-08T16:00:00	6	Velocidad del viento	4.8
27450	7	Sololá	710	Panajachel	8	Panajachel	3	Marzo	2023-03-26T00:00:00	2024-11-08T16:00:00	7	Dirección del viento	4.83
27451	7	Sololá	710	Panajachel	8	Panajachel	3	Marzo	2023-03-26T00:00:00	2024-11-08T16:00:00	1	Precipitación	0
27452	7	Sololá	710	Panajachel	8	Panajachel	3	Marzo	2023-03-26T00:00:00	2024-11-08T16:00:00	8	Radiación solar	273
27453	7	Sololá	710	Panajachel	8	Panajachel	3	Marzo	2023-03-26T00:00:00	2024-11-08T17:00:00	2	Temperatura media	20.6
27454	7	Sololá	710	Panajachel	8	Panajachel	3	Marzo	2023-03-26T00:00:00	2024-11-08T17:00:00	4	Temperatura máxima	21.5
27455	7	Sololá	710	Panajachel	8	Panajachel	3	Marzo	2023-03-26T00:00:00	2024-11-08T17:00:00	3	Temperatura mínima	20.3
27456	7	Sololá	710	Panajachel	8	Panajachel	3	Marzo	2023-03-26T00:00:00	2024-11-08T17:00:00	5	Humedad	83
27457	7	Sololá	710	Panajachel	8	Panajachel	3	Marzo	2023-03-26T00:00:00	2024-11-08T17:00:00	6	Velocidad del viento	3.2
27458	7	Sololá	710	Panajachel	8	Panajachel	3	Marzo	2023-03-26T00:00:00	2024-11-08T17:00:00	7	Dirección del viento	3.22
27459	7	Sololá	710	Panajachel	8	Panajachel	3	Marzo	2023-03-26T00:00:00	2024-11-08T17:00:00	1	Precipitación	0
27460	7	Sololá	710	Panajachel	8	Panajachel	3	Marzo	2023-03-26T00:00:00	2024-11-08T17:00:00	8	Radiación solar	152
27461	7	Sololá	710	Panajachel	8	Panajachel	3	Marzo	2023-03-26T00:00:00	2024-11-08T18:00:00	2	Temperatura media	19.9
27462	7	Sololá	710	Panajachel	8	Panajachel	3	Marzo	2023-03-26T00:00:00	2024-11-08T18:00:00	4	Temperatura máxima	20.7
27463	7	Sololá	710	Panajachel	8	Panajachel	3	Marzo	2023-03-26T00:00:00	2024-11-08T18:00:00	3	Temperatura mínima	19.9
27464	7	Sololá	710	Panajachel	8	Panajachel	3	Marzo	2023-03-26T00:00:00	2024-11-08T18:00:00	5	Humedad	84
27465	7	Sololá	710	Panajachel	8	Panajachel	3	Marzo	2023-03-26T00:00:00	2024-11-08T18:00:00	6	Velocidad del viento	1.6
27466	7	Sololá	710	Panajachel	8	Panajachel	3	Marzo	2023-03-26T00:00:00	2024-11-08T18:00:00	7	Dirección del viento	1.61
27467	7	Sololá	710	Panajachel	8	Panajachel	3	Marzo	2023-03-26T00:00:00	2024-11-08T18:00:00	1	Precipitación	0
27468	7	Sololá	710	Panajachel	8	Panajachel	3	Marzo	2023-03-26T00:00:00	2024-11-08T18:00:00	8	Radiación solar	53
27469	7	Sololá	710	Panajachel	8	Panajachel	3	Marzo	2023-03-26T00:00:00	2024-11-08T19:00:00	2	Temperatura media	19.3
27470	7	Sololá	710	Panajachel	8	Panajachel	3	Marzo	2023-03-26T00:00:00	2024-11-08T19:00:00	4	Temperatura máxima	19.9
27471	7	Sololá	710	Panajachel	8	Panajachel	3	Marzo	2023-03-26T00:00:00	2024-11-08T19:00:00	3	Temperatura mínima	19.3
27472	7	Sololá	710	Panajachel	8	Panajachel	3	Marzo	2023-03-26T00:00:00	2024-11-08T19:00:00	5	Humedad	87
27473	7	Sololá	710	Panajachel	8	Panajachel	3	Marzo	2023-03-26T00:00:00	2024-11-08T19:00:00	6	Velocidad del viento	1.6
27474	7	Sololá	710	Panajachel	8	Panajachel	3	Marzo	2023-03-26T00:00:00	2024-11-08T19:00:00	7	Dirección del viento	1.61
27475	7	Sololá	710	Panajachel	8	Panajachel	3	Marzo	2023-03-26T00:00:00	2024-11-08T19:00:00	1	Precipitación	0
27476	7	Sololá	710	Panajachel	8	Panajachel	3	Marzo	2023-03-26T00:00:00	2024-11-08T19:00:00	8	Radiación solar	0
27477	7	Sololá	710	Panajachel	8	Panajachel	3	Marzo	2023-03-26T00:00:00	2024-11-08T20:00:00	2	Temperatura media	18.9
27478	7	Sololá	710	Panajachel	8	Panajachel	3	Marzo	2023-03-26T00:00:00	2024-11-08T20:00:00	4	Temperatura máxima	19.4
27479	7	Sololá	710	Panajachel	8	Panajachel	3	Marzo	2023-03-26T00:00:00	2024-11-08T20:00:00	3	Temperatura mínima	18.9
27480	7	Sololá	710	Panajachel	8	Panajachel	3	Marzo	2023-03-26T00:00:00	2024-11-08T20:00:00	5	Humedad	85
27481	7	Sololá	710	Panajachel	8	Panajachel	3	Marzo	2023-03-26T00:00:00	2024-11-08T20:00:00	6	Velocidad del viento	1.6
27482	7	Sololá	710	Panajachel	8	Panajachel	3	Marzo	2023-03-26T00:00:00	2024-11-08T20:00:00	7	Dirección del viento	1.61
27483	7	Sololá	710	Panajachel	8	Panajachel	3	Marzo	2023-03-26T00:00:00	2024-11-08T20:00:00	1	Precipitación	0
27484	7	Sololá	710	Panajachel	8	Panajachel	3	Marzo	2023-03-26T00:00:00	2024-11-08T20:00:00	8	Radiación solar	0
27485	7	Sololá	710	Panajachel	8	Panajachel	3	Marzo	2023-03-26T00:00:00	2024-11-08T21:00:00	2	Temperatura media	18.1
27486	7	Sololá	710	Panajachel	8	Panajachel	3	Marzo	2023-03-26T00:00:00	2024-11-08T21:00:00	4	Temperatura máxima	18.9
27487	7	Sololá	710	Panajachel	8	Panajachel	3	Marzo	2023-03-26T00:00:00	2024-11-08T21:00:00	3	Temperatura mínima	18.1
27488	7	Sololá	710	Panajachel	8	Panajachel	3	Marzo	2023-03-26T00:00:00	2024-11-08T21:00:00	5	Humedad	84
27489	7	Sololá	710	Panajachel	8	Panajachel	3	Marzo	2023-03-26T00:00:00	2024-11-08T21:00:00	6	Velocidad del viento	1.6
27490	7	Sololá	710	Panajachel	8	Panajachel	3	Marzo	2023-03-26T00:00:00	2024-11-08T21:00:00	7	Dirección del viento	1.61
27491	7	Sololá	710	Panajachel	8	Panajachel	3	Marzo	2023-03-26T00:00:00	2024-11-08T21:00:00	1	Precipitación	0
27492	7	Sololá	710	Panajachel	8	Panajachel	3	Marzo	2023-03-26T00:00:00	2024-11-08T21:00:00	8	Radiación solar	0
27493	7	Sololá	710	Panajachel	8	Panajachel	3	Marzo	2023-03-26T00:00:00	2024-11-08T22:00:00	2	Temperatura media	17.5
27494	7	Sololá	710	Panajachel	8	Panajachel	3	Marzo	2023-03-26T00:00:00	2024-11-08T22:00:00	4	Temperatura máxima	18.1
27495	7	Sololá	710	Panajachel	8	Panajachel	3	Marzo	2023-03-26T00:00:00	2024-11-08T22:00:00	3	Temperatura mínima	17.5
27496	7	Sololá	710	Panajachel	8	Panajachel	3	Marzo	2023-03-26T00:00:00	2024-11-08T22:00:00	5	Humedad	82
27497	7	Sololá	710	Panajachel	8	Panajachel	3	Marzo	2023-03-26T00:00:00	2024-11-08T22:00:00	6	Velocidad del viento	3.2
27498	7	Sololá	710	Panajachel	8	Panajachel	3	Marzo	2023-03-26T00:00:00	2024-11-08T22:00:00	7	Dirección del viento	3.22
27499	7	Sololá	710	Panajachel	8	Panajachel	3	Marzo	2023-03-26T00:00:00	2024-11-08T22:00:00	1	Precipitación	0
27500	7	Sololá	710	Panajachel	8	Panajachel	3	Marzo	2023-03-26T00:00:00	2024-11-08T22:00:00	8	Radiación solar	0
27501	7	Sololá	710	Panajachel	8	Panajachel	3	Marzo	2023-03-26T00:00:00	2024-11-08T23:00:00	2	Temperatura media	17
27502	7	Sololá	710	Panajachel	8	Panajachel	3	Marzo	2023-03-26T00:00:00	2024-11-08T23:00:00	4	Temperatura máxima	17.5
27503	7	Sololá	710	Panajachel	8	Panajachel	3	Marzo	2023-03-26T00:00:00	2024-11-08T23:00:00	3	Temperatura mínima	16.8
27504	7	Sololá	710	Panajachel	8	Panajachel	3	Marzo	2023-03-26T00:00:00	2024-11-08T23:00:00	5	Humedad	82
27505	7	Sololá	710	Panajachel	8	Panajachel	3	Marzo	2023-03-26T00:00:00	2024-11-08T23:00:00	6	Velocidad del viento	4.8
27506	7	Sololá	710	Panajachel	8	Panajachel	3	Marzo	2023-03-26T00:00:00	2024-11-08T23:00:00	7	Dirección del viento	4.83
27507	7	Sololá	710	Panajachel	8	Panajachel	3	Marzo	2023-03-26T00:00:00	2024-11-08T23:00:00	1	Precipitación	0
27508	7	Sololá	710	Panajachel	8	Panajachel	3	Marzo	2023-03-26T00:00:00	2024-11-08T23:00:00	8	Radiación solar	0
27509	7	Sololá	710	Panajachel	8	Panajachel	3	Marzo	2023-03-27T00:00:00	2024-11-08T00:00:00	2	Temperatura media	17.2
27510	7	Sololá	710	Panajachel	8	Panajachel	3	Marzo	2023-03-27T00:00:00	2024-11-08T00:00:00	4	Temperatura máxima	17.3
27511	7	Sololá	710	Panajachel	8	Panajachel	3	Marzo	2023-03-27T00:00:00	2024-11-08T00:00:00	3	Temperatura mínima	17
27512	7	Sololá	710	Panajachel	8	Panajachel	3	Marzo	2023-03-27T00:00:00	2024-11-08T00:00:00	5	Humedad	80
27513	7	Sololá	710	Panajachel	8	Panajachel	3	Marzo	2023-03-27T00:00:00	2024-11-08T00:00:00	6	Velocidad del viento	4.8
27514	7	Sololá	710	Panajachel	8	Panajachel	3	Marzo	2023-03-27T00:00:00	2024-11-08T00:00:00	7	Dirección del viento	4.83
27515	7	Sololá	710	Panajachel	8	Panajachel	3	Marzo	2023-03-27T00:00:00	2024-11-08T00:00:00	1	Precipitación	0
27516	7	Sololá	710	Panajachel	8	Panajachel	3	Marzo	2023-03-27T00:00:00	2024-11-08T00:00:00	8	Radiación solar	0
27517	7	Sololá	710	Panajachel	8	Panajachel	3	Marzo	2023-03-27T00:00:00	2024-11-08T01:00:00	2	Temperatura media	17.2
27518	7	Sololá	710	Panajachel	8	Panajachel	3	Marzo	2023-03-27T00:00:00	2024-11-08T01:00:00	4	Temperatura máxima	17.4
27519	7	Sololá	710	Panajachel	8	Panajachel	3	Marzo	2023-03-27T00:00:00	2024-11-08T01:00:00	3	Temperatura mínima	17
27520	7	Sololá	710	Panajachel	8	Panajachel	3	Marzo	2023-03-27T00:00:00	2024-11-08T01:00:00	5	Humedad	79
27521	7	Sololá	710	Panajachel	8	Panajachel	3	Marzo	2023-03-27T00:00:00	2024-11-08T01:00:00	6	Velocidad del viento	4.8
27522	7	Sololá	710	Panajachel	8	Panajachel	3	Marzo	2023-03-27T00:00:00	2024-11-08T01:00:00	7	Dirección del viento	4.83
27523	7	Sololá	710	Panajachel	8	Panajachel	3	Marzo	2023-03-27T00:00:00	2024-11-08T01:00:00	1	Precipitación	0
27524	7	Sololá	710	Panajachel	8	Panajachel	3	Marzo	2023-03-27T00:00:00	2024-11-08T01:00:00	8	Radiación solar	0
27525	7	Sololá	710	Panajachel	8	Panajachel	3	Marzo	2023-03-27T00:00:00	2024-11-08T02:00:00	2	Temperatura media	16.9
27526	7	Sololá	710	Panajachel	8	Panajachel	3	Marzo	2023-03-27T00:00:00	2024-11-08T02:00:00	4	Temperatura máxima	17.3
27527	7	Sololá	710	Panajachel	8	Panajachel	3	Marzo	2023-03-27T00:00:00	2024-11-08T02:00:00	3	Temperatura mínima	16.7
27528	7	Sololá	710	Panajachel	8	Panajachel	3	Marzo	2023-03-27T00:00:00	2024-11-08T02:00:00	5	Humedad	79
27529	7	Sololá	710	Panajachel	8	Panajachel	3	Marzo	2023-03-27T00:00:00	2024-11-08T02:00:00	6	Velocidad del viento	4.8
27530	7	Sololá	710	Panajachel	8	Panajachel	3	Marzo	2023-03-27T00:00:00	2024-11-08T02:00:00	7	Dirección del viento	4.83
27531	7	Sololá	710	Panajachel	8	Panajachel	3	Marzo	2023-03-27T00:00:00	2024-11-08T02:00:00	1	Precipitación	0
27532	7	Sololá	710	Panajachel	8	Panajachel	3	Marzo	2023-03-27T00:00:00	2024-11-08T02:00:00	8	Radiación solar	0
27533	7	Sololá	710	Panajachel	8	Panajachel	3	Marzo	2023-03-27T00:00:00	2024-11-08T03:00:00	2	Temperatura media	17.3
27534	7	Sololá	710	Panajachel	8	Panajachel	3	Marzo	2023-03-27T00:00:00	2024-11-08T03:00:00	4	Temperatura máxima	17.3
27535	7	Sololá	710	Panajachel	8	Panajachel	3	Marzo	2023-03-27T00:00:00	2024-11-08T03:00:00	3	Temperatura mínima	16.9
27536	7	Sololá	710	Panajachel	8	Panajachel	3	Marzo	2023-03-27T00:00:00	2024-11-08T03:00:00	5	Humedad	78
27537	7	Sololá	710	Panajachel	8	Panajachel	3	Marzo	2023-03-27T00:00:00	2024-11-08T03:00:00	6	Velocidad del viento	3.2
27538	7	Sololá	710	Panajachel	8	Panajachel	3	Marzo	2023-03-27T00:00:00	2024-11-08T03:00:00	7	Dirección del viento	3.22
27539	7	Sololá	710	Panajachel	8	Panajachel	3	Marzo	2023-03-27T00:00:00	2024-11-08T03:00:00	1	Precipitación	0
27540	7	Sololá	710	Panajachel	8	Panajachel	3	Marzo	2023-03-27T00:00:00	2024-11-08T03:00:00	8	Radiación solar	0
27541	7	Sololá	710	Panajachel	8	Panajachel	3	Marzo	2023-03-27T00:00:00	2024-11-08T04:00:00	2	Temperatura media	17.3
27542	7	Sololá	710	Panajachel	8	Panajachel	3	Marzo	2023-03-27T00:00:00	2024-11-08T04:00:00	4	Temperatura máxima	17.3
27543	7	Sololá	710	Panajachel	8	Panajachel	3	Marzo	2023-03-27T00:00:00	2024-11-08T04:00:00	3	Temperatura mínima	17.2
27544	7	Sololá	710	Panajachel	8	Panajachel	3	Marzo	2023-03-27T00:00:00	2024-11-08T04:00:00	5	Humedad	80
27545	7	Sololá	710	Panajachel	8	Panajachel	3	Marzo	2023-03-27T00:00:00	2024-11-08T04:00:00	6	Velocidad del viento	3.2
27546	7	Sololá	710	Panajachel	8	Panajachel	3	Marzo	2023-03-27T00:00:00	2024-11-08T04:00:00	7	Dirección del viento	3.22
27547	7	Sololá	710	Panajachel	8	Panajachel	3	Marzo	2023-03-27T00:00:00	2024-11-08T04:00:00	1	Precipitación	0
27548	7	Sololá	710	Panajachel	8	Panajachel	3	Marzo	2023-03-27T00:00:00	2024-11-08T04:00:00	8	Radiación solar	0
27549	7	Sololá	710	Panajachel	8	Panajachel	3	Marzo	2023-03-27T00:00:00	2024-11-08T05:00:00	2	Temperatura media	16.8
27550	7	Sololá	710	Panajachel	8	Panajachel	3	Marzo	2023-03-27T00:00:00	2024-11-08T05:00:00	4	Temperatura máxima	17.3
27551	7	Sololá	710	Panajachel	8	Panajachel	3	Marzo	2023-03-27T00:00:00	2024-11-08T05:00:00	3	Temperatura mínima	16.8
27552	7	Sololá	710	Panajachel	8	Panajachel	3	Marzo	2023-03-27T00:00:00	2024-11-08T05:00:00	5	Humedad	81
27553	7	Sololá	710	Panajachel	8	Panajachel	3	Marzo	2023-03-27T00:00:00	2024-11-08T05:00:00	6	Velocidad del viento	1.6
27554	7	Sololá	710	Panajachel	8	Panajachel	3	Marzo	2023-03-27T00:00:00	2024-11-08T05:00:00	7	Dirección del viento	1.61
27555	7	Sololá	710	Panajachel	8	Panajachel	3	Marzo	2023-03-27T00:00:00	2024-11-08T05:00:00	1	Precipitación	0
27556	7	Sololá	710	Panajachel	8	Panajachel	3	Marzo	2023-03-27T00:00:00	2024-11-08T05:00:00	8	Radiación solar	0
27557	7	Sololá	710	Panajachel	8	Panajachel	3	Marzo	2023-03-27T00:00:00	2024-11-08T06:00:00	2	Temperatura media	16.1
27558	7	Sololá	710	Panajachel	8	Panajachel	3	Marzo	2023-03-27T00:00:00	2024-11-08T06:00:00	4	Temperatura máxima	16.8
27559	7	Sololá	710	Panajachel	8	Panajachel	3	Marzo	2023-03-27T00:00:00	2024-11-08T06:00:00	3	Temperatura mínima	16.1
27560	7	Sololá	710	Panajachel	8	Panajachel	3	Marzo	2023-03-27T00:00:00	2024-11-08T06:00:00	5	Humedad	83
27561	7	Sololá	710	Panajachel	8	Panajachel	3	Marzo	2023-03-27T00:00:00	2024-11-08T06:00:00	6	Velocidad del viento	3.2
27562	7	Sololá	710	Panajachel	8	Panajachel	3	Marzo	2023-03-27T00:00:00	2024-11-08T06:00:00	7	Dirección del viento	3.22
27563	7	Sololá	710	Panajachel	8	Panajachel	3	Marzo	2023-03-27T00:00:00	2024-11-08T06:00:00	1	Precipitación	0
27564	7	Sololá	710	Panajachel	8	Panajachel	3	Marzo	2023-03-27T00:00:00	2024-11-08T06:00:00	8	Radiación solar	0
27565	7	Sololá	710	Panajachel	8	Panajachel	3	Marzo	2023-03-27T00:00:00	2024-11-08T07:00:00	2	Temperatura media	16.2
27566	7	Sololá	710	Panajachel	8	Panajachel	3	Marzo	2023-03-27T00:00:00	2024-11-08T07:00:00	4	Temperatura máxima	16.2
27567	7	Sololá	710	Panajachel	8	Panajachel	3	Marzo	2023-03-27T00:00:00	2024-11-08T07:00:00	3	Temperatura mínima	15.8
27568	7	Sololá	710	Panajachel	8	Panajachel	3	Marzo	2023-03-27T00:00:00	2024-11-08T07:00:00	5	Humedad	81
27569	7	Sololá	710	Panajachel	8	Panajachel	3	Marzo	2023-03-27T00:00:00	2024-11-08T07:00:00	6	Velocidad del viento	4.8
27570	7	Sololá	710	Panajachel	8	Panajachel	3	Marzo	2023-03-27T00:00:00	2024-11-08T07:00:00	7	Dirección del viento	4.83
27571	7	Sololá	710	Panajachel	8	Panajachel	3	Marzo	2023-03-27T00:00:00	2024-11-08T07:00:00	1	Precipitación	0
27572	7	Sololá	710	Panajachel	8	Panajachel	3	Marzo	2023-03-27T00:00:00	2024-11-08T07:00:00	8	Radiación solar	33
27573	7	Sololá	710	Panajachel	8	Panajachel	3	Marzo	2023-03-27T00:00:00	2024-11-08T08:00:00	2	Temperatura media	19.9
27574	7	Sololá	710	Panajachel	8	Panajachel	3	Marzo	2023-03-27T00:00:00	2024-11-08T08:00:00	4	Temperatura máxima	19.9
27575	7	Sololá	710	Panajachel	8	Panajachel	3	Marzo	2023-03-27T00:00:00	2024-11-08T08:00:00	3	Temperatura mínima	16.2
27576	7	Sololá	710	Panajachel	8	Panajachel	3	Marzo	2023-03-27T00:00:00	2024-11-08T08:00:00	5	Humedad	74
27577	7	Sololá	710	Panajachel	8	Panajachel	3	Marzo	2023-03-27T00:00:00	2024-11-08T08:00:00	6	Velocidad del viento	3.2
27578	7	Sololá	710	Panajachel	8	Panajachel	3	Marzo	2023-03-27T00:00:00	2024-11-08T08:00:00	7	Dirección del viento	3.22
27579	7	Sololá	710	Panajachel	8	Panajachel	3	Marzo	2023-03-27T00:00:00	2024-11-08T08:00:00	1	Precipitación	0
27580	7	Sololá	710	Panajachel	8	Panajachel	3	Marzo	2023-03-27T00:00:00	2024-11-08T08:00:00	8	Radiación solar	274
27581	7	Sololá	710	Panajachel	8	Panajachel	3	Marzo	2023-03-27T00:00:00	2024-11-08T09:00:00	2	Temperatura media	20.6
27582	7	Sololá	710	Panajachel	8	Panajachel	3	Marzo	2023-03-27T00:00:00	2024-11-08T09:00:00	4	Temperatura máxima	20.6
27583	7	Sololá	710	Panajachel	8	Panajachel	3	Marzo	2023-03-27T00:00:00	2024-11-08T09:00:00	3	Temperatura mínima	19.6
27584	7	Sololá	710	Panajachel	8	Panajachel	3	Marzo	2023-03-27T00:00:00	2024-11-08T09:00:00	5	Humedad	69
27585	7	Sololá	710	Panajachel	8	Panajachel	3	Marzo	2023-03-27T00:00:00	2024-11-08T09:00:00	6	Velocidad del viento	1.6
27586	7	Sololá	710	Panajachel	8	Panajachel	3	Marzo	2023-03-27T00:00:00	2024-11-08T09:00:00	7	Dirección del viento	1.61
27587	7	Sololá	710	Panajachel	8	Panajachel	3	Marzo	2023-03-27T00:00:00	2024-11-08T09:00:00	1	Precipitación	0
27588	7	Sololá	710	Panajachel	8	Panajachel	3	Marzo	2023-03-27T00:00:00	2024-11-08T09:00:00	8	Radiación solar	513
27589	7	Sololá	710	Panajachel	8	Panajachel	3	Marzo	2023-03-27T00:00:00	2024-11-08T10:00:00	2	Temperatura media	21.3
27590	7	Sololá	710	Panajachel	8	Panajachel	3	Marzo	2023-03-27T00:00:00	2024-11-08T10:00:00	4	Temperatura máxima	21.6
27591	7	Sololá	710	Panajachel	8	Panajachel	3	Marzo	2023-03-27T00:00:00	2024-11-08T10:00:00	3	Temperatura mínima	20.6
27592	7	Sololá	710	Panajachel	8	Panajachel	3	Marzo	2023-03-27T00:00:00	2024-11-08T10:00:00	5	Humedad	68
27593	7	Sololá	710	Panajachel	8	Panajachel	3	Marzo	2023-03-27T00:00:00	2024-11-08T10:00:00	6	Velocidad del viento	1.6
27594	7	Sololá	710	Panajachel	8	Panajachel	3	Marzo	2023-03-27T00:00:00	2024-11-08T10:00:00	7	Dirección del viento	1.61
27595	7	Sololá	710	Panajachel	8	Panajachel	3	Marzo	2023-03-27T00:00:00	2024-11-08T10:00:00	1	Precipitación	0
27596	7	Sololá	710	Panajachel	8	Panajachel	3	Marzo	2023-03-27T00:00:00	2024-11-08T10:00:00	8	Radiación solar	700
27597	7	Sololá	710	Panajachel	8	Panajachel	3	Marzo	2023-03-27T00:00:00	2024-11-08T11:00:00	2	Temperatura media	21.2
27598	7	Sololá	710	Panajachel	8	Panajachel	3	Marzo	2023-03-27T00:00:00	2024-11-08T11:00:00	4	Temperatura máxima	21.9
27599	7	Sololá	710	Panajachel	8	Panajachel	3	Marzo	2023-03-27T00:00:00	2024-11-08T11:00:00	3	Temperatura mínima	20.9
27600	7	Sololá	710	Panajachel	8	Panajachel	3	Marzo	2023-03-27T00:00:00	2024-11-08T11:00:00	5	Humedad	69
27601	7	Sololá	710	Panajachel	8	Panajachel	3	Marzo	2023-03-27T00:00:00	2024-11-08T11:00:00	6	Velocidad del viento	3.2
27602	7	Sololá	710	Panajachel	8	Panajachel	3	Marzo	2023-03-27T00:00:00	2024-11-08T11:00:00	7	Dirección del viento	3.22
27603	7	Sololá	710	Panajachel	8	Panajachel	3	Marzo	2023-03-27T00:00:00	2024-11-08T11:00:00	1	Precipitación	0
27604	7	Sololá	710	Panajachel	8	Panajachel	3	Marzo	2023-03-27T00:00:00	2024-11-08T11:00:00	8	Radiación solar	711
27605	7	Sololá	710	Panajachel	8	Panajachel	3	Marzo	2023-03-27T00:00:00	2024-11-08T12:00:00	2	Temperatura media	23.2
27606	7	Sololá	710	Panajachel	8	Panajachel	3	Marzo	2023-03-27T00:00:00	2024-11-08T12:00:00	4	Temperatura máxima	23.3
27607	7	Sololá	710	Panajachel	8	Panajachel	3	Marzo	2023-03-27T00:00:00	2024-11-08T12:00:00	3	Temperatura mínima	21.1
27608	7	Sololá	710	Panajachel	8	Panajachel	3	Marzo	2023-03-27T00:00:00	2024-11-08T12:00:00	5	Humedad	65
27609	7	Sololá	710	Panajachel	8	Panajachel	3	Marzo	2023-03-27T00:00:00	2024-11-08T12:00:00	6	Velocidad del viento	3.2
27610	7	Sololá	710	Panajachel	8	Panajachel	3	Marzo	2023-03-27T00:00:00	2024-11-08T12:00:00	7	Dirección del viento	3.22
27611	7	Sololá	710	Panajachel	8	Panajachel	3	Marzo	2023-03-27T00:00:00	2024-11-08T12:00:00	1	Precipitación	0
27612	7	Sololá	710	Panajachel	8	Panajachel	3	Marzo	2023-03-27T00:00:00	2024-11-08T12:00:00	8	Radiación solar	942
27613	7	Sololá	710	Panajachel	8	Panajachel	3	Marzo	2023-03-27T00:00:00	2024-11-08T13:00:00	2	Temperatura media	22.9
27614	7	Sololá	710	Panajachel	8	Panajachel	3	Marzo	2023-03-27T00:00:00	2024-11-08T13:00:00	4	Temperatura máxima	23.3
27615	7	Sololá	710	Panajachel	8	Panajachel	3	Marzo	2023-03-27T00:00:00	2024-11-08T13:00:00	3	Temperatura mínima	22.2
27616	7	Sololá	710	Panajachel	8	Panajachel	3	Marzo	2023-03-27T00:00:00	2024-11-08T13:00:00	5	Humedad	75
27617	7	Sololá	710	Panajachel	8	Panajachel	3	Marzo	2023-03-27T00:00:00	2024-11-08T13:00:00	6	Velocidad del viento	4.8
27618	7	Sololá	710	Panajachel	8	Panajachel	3	Marzo	2023-03-27T00:00:00	2024-11-08T13:00:00	7	Dirección del viento	4.83
27619	7	Sololá	710	Panajachel	8	Panajachel	3	Marzo	2023-03-27T00:00:00	2024-11-08T13:00:00	1	Precipitación	0
27620	7	Sololá	710	Panajachel	8	Panajachel	3	Marzo	2023-03-27T00:00:00	2024-11-08T13:00:00	8	Radiación solar	924
27621	7	Sololá	710	Panajachel	8	Panajachel	3	Marzo	2023-03-27T00:00:00	2024-11-08T14:00:00	2	Temperatura media	22.3
27622	7	Sololá	710	Panajachel	8	Panajachel	3	Marzo	2023-03-27T00:00:00	2024-11-08T14:00:00	4	Temperatura máxima	23.3
27623	7	Sololá	710	Panajachel	8	Panajachel	3	Marzo	2023-03-27T00:00:00	2024-11-08T14:00:00	3	Temperatura mínima	22.3
27624	7	Sololá	710	Panajachel	8	Panajachel	3	Marzo	2023-03-27T00:00:00	2024-11-08T14:00:00	5	Humedad	76
27625	7	Sololá	710	Panajachel	8	Panajachel	3	Marzo	2023-03-27T00:00:00	2024-11-08T14:00:00	6	Velocidad del viento	4.8
27626	7	Sololá	710	Panajachel	8	Panajachel	3	Marzo	2023-03-27T00:00:00	2024-11-08T14:00:00	7	Dirección del viento	4.83
27627	7	Sololá	710	Panajachel	8	Panajachel	3	Marzo	2023-03-27T00:00:00	2024-11-08T14:00:00	1	Precipitación	0
27628	7	Sololá	710	Panajachel	8	Panajachel	3	Marzo	2023-03-27T00:00:00	2024-11-08T14:00:00	8	Radiación solar	530
27629	7	Sololá	710	Panajachel	8	Panajachel	3	Marzo	2023-03-27T00:00:00	2024-11-08T15:00:00	2	Temperatura media	22
27630	7	Sololá	710	Panajachel	8	Panajachel	3	Marzo	2023-03-27T00:00:00	2024-11-08T15:00:00	4	Temperatura máxima	22.9
27631	7	Sololá	710	Panajachel	8	Panajachel	3	Marzo	2023-03-27T00:00:00	2024-11-08T15:00:00	3	Temperatura mínima	22
27632	7	Sololá	710	Panajachel	8	Panajachel	3	Marzo	2023-03-27T00:00:00	2024-11-08T15:00:00	5	Humedad	76
27633	7	Sololá	710	Panajachel	8	Panajachel	3	Marzo	2023-03-27T00:00:00	2024-11-08T15:00:00	6	Velocidad del viento	6.4
27634	7	Sololá	710	Panajachel	8	Panajachel	3	Marzo	2023-03-27T00:00:00	2024-11-08T15:00:00	7	Dirección del viento	6.44
27635	7	Sololá	710	Panajachel	8	Panajachel	3	Marzo	2023-03-27T00:00:00	2024-11-08T15:00:00	1	Precipitación	0
27636	7	Sololá	710	Panajachel	8	Panajachel	3	Marzo	2023-03-27T00:00:00	2024-11-08T15:00:00	8	Radiación solar	541
27637	7	Sololá	710	Panajachel	8	Panajachel	3	Marzo	2023-03-27T00:00:00	2024-11-08T16:00:00	2	Temperatura media	21.9
27638	7	Sololá	710	Panajachel	8	Panajachel	3	Marzo	2023-03-27T00:00:00	2024-11-08T16:00:00	4	Temperatura máxima	23.7
27639	7	Sololá	710	Panajachel	8	Panajachel	3	Marzo	2023-03-27T00:00:00	2024-11-08T16:00:00	3	Temperatura mínima	21.9
27640	7	Sololá	710	Panajachel	8	Panajachel	3	Marzo	2023-03-27T00:00:00	2024-11-08T16:00:00	5	Humedad	76
27641	7	Sololá	710	Panajachel	8	Panajachel	3	Marzo	2023-03-27T00:00:00	2024-11-08T16:00:00	6	Velocidad del viento	6.4
27642	7	Sololá	710	Panajachel	8	Panajachel	3	Marzo	2023-03-27T00:00:00	2024-11-08T16:00:00	7	Dirección del viento	6.44
27643	7	Sololá	710	Panajachel	8	Panajachel	3	Marzo	2023-03-27T00:00:00	2024-11-08T16:00:00	1	Precipitación	0
27644	7	Sololá	710	Panajachel	8	Panajachel	3	Marzo	2023-03-27T00:00:00	2024-11-08T16:00:00	8	Radiación solar	440
27645	7	Sololá	710	Panajachel	8	Panajachel	3	Marzo	2023-03-27T00:00:00	2024-11-08T17:00:00	2	Temperatura media	21.4
27646	7	Sololá	710	Panajachel	8	Panajachel	3	Marzo	2023-03-27T00:00:00	2024-11-08T17:00:00	4	Temperatura máxima	22.3
27647	7	Sololá	710	Panajachel	8	Panajachel	3	Marzo	2023-03-27T00:00:00	2024-11-08T17:00:00	3	Temperatura mínima	21.4
27648	7	Sololá	710	Panajachel	8	Panajachel	3	Marzo	2023-03-27T00:00:00	2024-11-08T17:00:00	5	Humedad	82
27649	7	Sololá	710	Panajachel	8	Panajachel	3	Marzo	2023-03-27T00:00:00	2024-11-08T17:00:00	6	Velocidad del viento	4.8
27650	7	Sololá	710	Panajachel	8	Panajachel	3	Marzo	2023-03-27T00:00:00	2024-11-08T17:00:00	7	Dirección del viento	4.83
27651	7	Sololá	710	Panajachel	8	Panajachel	3	Marzo	2023-03-27T00:00:00	2024-11-08T17:00:00	1	Precipitación	0
27652	7	Sololá	710	Panajachel	8	Panajachel	3	Marzo	2023-03-27T00:00:00	2024-11-08T17:00:00	8	Radiación solar	189
27653	7	Sololá	710	Panajachel	8	Panajachel	3	Marzo	2023-03-27T00:00:00	2024-11-08T18:00:00	2	Temperatura media	20.8
27654	7	Sololá	710	Panajachel	8	Panajachel	3	Marzo	2023-03-27T00:00:00	2024-11-08T18:00:00	4	Temperatura máxima	21.5
27655	7	Sololá	710	Panajachel	8	Panajachel	3	Marzo	2023-03-27T00:00:00	2024-11-08T18:00:00	3	Temperatura mínima	20.8
27656	7	Sololá	710	Panajachel	8	Panajachel	3	Marzo	2023-03-27T00:00:00	2024-11-08T18:00:00	5	Humedad	85
27657	7	Sololá	710	Panajachel	8	Panajachel	3	Marzo	2023-03-27T00:00:00	2024-11-08T18:00:00	6	Velocidad del viento	1.6
27658	7	Sololá	710	Panajachel	8	Panajachel	3	Marzo	2023-03-27T00:00:00	2024-11-08T18:00:00	7	Dirección del viento	1.61
27659	7	Sololá	710	Panajachel	8	Panajachel	3	Marzo	2023-03-27T00:00:00	2024-11-08T18:00:00	1	Precipitación	0
27660	7	Sololá	710	Panajachel	8	Panajachel	3	Marzo	2023-03-27T00:00:00	2024-11-08T18:00:00	8	Radiación solar	62
27661	7	Sololá	710	Panajachel	8	Panajachel	3	Marzo	2023-03-27T00:00:00	2024-11-08T19:00:00	2	Temperatura media	20.3
27662	7	Sololá	710	Panajachel	8	Panajachel	3	Marzo	2023-03-27T00:00:00	2024-11-08T19:00:00	4	Temperatura máxima	20.8
27663	7	Sololá	710	Panajachel	8	Panajachel	3	Marzo	2023-03-27T00:00:00	2024-11-08T19:00:00	3	Temperatura mínima	20.3
27664	7	Sololá	710	Panajachel	8	Panajachel	3	Marzo	2023-03-27T00:00:00	2024-11-08T19:00:00	5	Humedad	88
27665	7	Sololá	710	Panajachel	8	Panajachel	3	Marzo	2023-03-27T00:00:00	2024-11-08T19:00:00	6	Velocidad del viento	0
27666	7	Sololá	710	Panajachel	8	Panajachel	3	Marzo	2023-03-27T00:00:00	2024-11-08T19:00:00	7	Dirección del viento	0
27667	7	Sololá	710	Panajachel	8	Panajachel	3	Marzo	2023-03-27T00:00:00	2024-11-08T19:00:00	1	Precipitación	0
27668	7	Sololá	710	Panajachel	8	Panajachel	3	Marzo	2023-03-27T00:00:00	2024-11-08T19:00:00	8	Radiación solar	0
27669	7	Sololá	710	Panajachel	8	Panajachel	3	Marzo	2023-03-27T00:00:00	2024-11-08T20:00:00	2	Temperatura media	19.9
27670	7	Sololá	710	Panajachel	8	Panajachel	3	Marzo	2023-03-27T00:00:00	2024-11-08T20:00:00	4	Temperatura máxima	20.3
27671	7	Sololá	710	Panajachel	8	Panajachel	3	Marzo	2023-03-27T00:00:00	2024-11-08T20:00:00	3	Temperatura mínima	19.9
27672	7	Sololá	710	Panajachel	8	Panajachel	3	Marzo	2023-03-27T00:00:00	2024-11-08T20:00:00	5	Humedad	84
27673	7	Sololá	710	Panajachel	8	Panajachel	3	Marzo	2023-03-27T00:00:00	2024-11-08T20:00:00	6	Velocidad del viento	1.6
27674	7	Sololá	710	Panajachel	8	Panajachel	3	Marzo	2023-03-27T00:00:00	2024-11-08T20:00:00	7	Dirección del viento	1.61
27675	7	Sololá	710	Panajachel	8	Panajachel	3	Marzo	2023-03-27T00:00:00	2024-11-08T20:00:00	1	Precipitación	0
27676	7	Sololá	710	Panajachel	8	Panajachel	3	Marzo	2023-03-27T00:00:00	2024-11-08T20:00:00	8	Radiación solar	0
27677	7	Sololá	710	Panajachel	8	Panajachel	3	Marzo	2023-03-27T00:00:00	2024-11-08T21:00:00	2	Temperatura media	19.1
27678	7	Sololá	710	Panajachel	8	Panajachel	3	Marzo	2023-03-27T00:00:00	2024-11-08T21:00:00	4	Temperatura máxima	19.9
27679	7	Sololá	710	Panajachel	8	Panajachel	3	Marzo	2023-03-27T00:00:00	2024-11-08T21:00:00	3	Temperatura mínima	19.1
27680	7	Sololá	710	Panajachel	8	Panajachel	3	Marzo	2023-03-27T00:00:00	2024-11-08T21:00:00	5	Humedad	81
27681	7	Sololá	710	Panajachel	8	Panajachel	3	Marzo	2023-03-27T00:00:00	2024-11-08T21:00:00	6	Velocidad del viento	3.2
27682	7	Sololá	710	Panajachel	8	Panajachel	3	Marzo	2023-03-27T00:00:00	2024-11-08T21:00:00	7	Dirección del viento	3.22
27683	7	Sololá	710	Panajachel	8	Panajachel	3	Marzo	2023-03-27T00:00:00	2024-11-08T21:00:00	1	Precipitación	0
27684	7	Sololá	710	Panajachel	8	Panajachel	3	Marzo	2023-03-27T00:00:00	2024-11-08T21:00:00	8	Radiación solar	0
27685	7	Sololá	710	Panajachel	8	Panajachel	3	Marzo	2023-03-27T00:00:00	2024-11-08T22:00:00	2	Temperatura media	18.1
27686	7	Sololá	710	Panajachel	8	Panajachel	3	Marzo	2023-03-27T00:00:00	2024-11-08T22:00:00	4	Temperatura máxima	19.1
27687	7	Sololá	710	Panajachel	8	Panajachel	3	Marzo	2023-03-27T00:00:00	2024-11-08T22:00:00	3	Temperatura mínima	18.1
27688	7	Sololá	710	Panajachel	8	Panajachel	3	Marzo	2023-03-27T00:00:00	2024-11-08T22:00:00	5	Humedad	82
27689	7	Sololá	710	Panajachel	8	Panajachel	3	Marzo	2023-03-27T00:00:00	2024-11-08T22:00:00	6	Velocidad del viento	3.2
27690	7	Sololá	710	Panajachel	8	Panajachel	3	Marzo	2023-03-27T00:00:00	2024-11-08T22:00:00	7	Dirección del viento	3.22
27691	7	Sololá	710	Panajachel	8	Panajachel	3	Marzo	2023-03-27T00:00:00	2024-11-08T22:00:00	1	Precipitación	0
27692	7	Sololá	710	Panajachel	8	Panajachel	3	Marzo	2023-03-27T00:00:00	2024-11-08T22:00:00	8	Radiación solar	0
27693	7	Sololá	710	Panajachel	8	Panajachel	3	Marzo	2023-03-27T00:00:00	2024-11-08T23:00:00	2	Temperatura media	17.3
27694	7	Sololá	710	Panajachel	8	Panajachel	3	Marzo	2023-03-27T00:00:00	2024-11-08T23:00:00	4	Temperatura máxima	18.1
27695	7	Sololá	710	Panajachel	8	Panajachel	3	Marzo	2023-03-27T00:00:00	2024-11-08T23:00:00	3	Temperatura mínima	17.3
27696	7	Sololá	710	Panajachel	8	Panajachel	3	Marzo	2023-03-27T00:00:00	2024-11-08T23:00:00	5	Humedad	82
27697	7	Sololá	710	Panajachel	8	Panajachel	3	Marzo	2023-03-27T00:00:00	2024-11-08T23:00:00	6	Velocidad del viento	4.8
27698	7	Sololá	710	Panajachel	8	Panajachel	3	Marzo	2023-03-27T00:00:00	2024-11-08T23:00:00	7	Dirección del viento	4.83
27699	7	Sololá	710	Panajachel	8	Panajachel	3	Marzo	2023-03-27T00:00:00	2024-11-08T23:00:00	1	Precipitación	0
27700	7	Sololá	710	Panajachel	8	Panajachel	3	Marzo	2023-03-27T00:00:00	2024-11-08T23:00:00	8	Radiación solar	0
27701	7	Sololá	710	Panajachel	8	Panajachel	3	Marzo	2023-03-28T00:00:00	2024-11-08T00:00:00	2	Temperatura media	16.8
27702	7	Sololá	710	Panajachel	8	Panajachel	3	Marzo	2023-03-28T00:00:00	2024-11-08T00:00:00	4	Temperatura máxima	17.4
27703	7	Sololá	710	Panajachel	8	Panajachel	3	Marzo	2023-03-28T00:00:00	2024-11-08T00:00:00	3	Temperatura mínima	16.8
27704	7	Sololá	710	Panajachel	8	Panajachel	3	Marzo	2023-03-28T00:00:00	2024-11-08T00:00:00	5	Humedad	83
27705	7	Sololá	710	Panajachel	8	Panajachel	3	Marzo	2023-03-28T00:00:00	2024-11-08T00:00:00	6	Velocidad del viento	4.8
27706	7	Sololá	710	Panajachel	8	Panajachel	3	Marzo	2023-03-28T00:00:00	2024-11-08T00:00:00	7	Dirección del viento	4.83
27707	7	Sololá	710	Panajachel	8	Panajachel	3	Marzo	2023-03-28T00:00:00	2024-11-08T00:00:00	1	Precipitación	0
27708	7	Sololá	710	Panajachel	8	Panajachel	3	Marzo	2023-03-28T00:00:00	2024-11-08T00:00:00	8	Radiación solar	0
27709	7	Sololá	710	Panajachel	8	Panajachel	3	Marzo	2023-03-28T00:00:00	2024-11-08T01:00:00	2	Temperatura media	16.4
27710	7	Sololá	710	Panajachel	8	Panajachel	3	Marzo	2023-03-28T00:00:00	2024-11-08T01:00:00	4	Temperatura máxima	16.9
27711	7	Sololá	710	Panajachel	8	Panajachel	3	Marzo	2023-03-28T00:00:00	2024-11-08T01:00:00	3	Temperatura mínima	16.4
27712	7	Sololá	710	Panajachel	8	Panajachel	3	Marzo	2023-03-28T00:00:00	2024-11-08T01:00:00	5	Humedad	83
27713	7	Sololá	710	Panajachel	8	Panajachel	3	Marzo	2023-03-28T00:00:00	2024-11-08T01:00:00	6	Velocidad del viento	4.8
27714	7	Sololá	710	Panajachel	8	Panajachel	3	Marzo	2023-03-28T00:00:00	2024-11-08T01:00:00	7	Dirección del viento	4.83
27715	7	Sololá	710	Panajachel	8	Panajachel	3	Marzo	2023-03-28T00:00:00	2024-11-08T01:00:00	1	Precipitación	0
27716	7	Sololá	710	Panajachel	8	Panajachel	3	Marzo	2023-03-28T00:00:00	2024-11-08T01:00:00	8	Radiación solar	0
27717	7	Sololá	710	Panajachel	8	Panajachel	3	Marzo	2023-03-28T00:00:00	2024-11-08T02:00:00	2	Temperatura media	16.7
27718	7	Sololá	710	Panajachel	8	Panajachel	3	Marzo	2023-03-28T00:00:00	2024-11-08T02:00:00	4	Temperatura máxima	16.7
27719	7	Sololá	710	Panajachel	8	Panajachel	3	Marzo	2023-03-28T00:00:00	2024-11-08T02:00:00	3	Temperatura mínima	16.4
27720	7	Sololá	710	Panajachel	8	Panajachel	3	Marzo	2023-03-28T00:00:00	2024-11-08T02:00:00	5	Humedad	80
27721	7	Sololá	710	Panajachel	8	Panajachel	3	Marzo	2023-03-28T00:00:00	2024-11-08T02:00:00	6	Velocidad del viento	3.2
27722	7	Sololá	710	Panajachel	8	Panajachel	3	Marzo	2023-03-28T00:00:00	2024-11-08T02:00:00	7	Dirección del viento	3.22
27723	7	Sololá	710	Panajachel	8	Panajachel	3	Marzo	2023-03-28T00:00:00	2024-11-08T02:00:00	1	Precipitación	0
27724	7	Sololá	710	Panajachel	8	Panajachel	3	Marzo	2023-03-28T00:00:00	2024-11-08T02:00:00	8	Radiación solar	0
27725	7	Sololá	710	Panajachel	8	Panajachel	3	Marzo	2023-03-28T00:00:00	2024-11-08T03:00:00	2	Temperatura media	16.8
27726	7	Sololá	710	Panajachel	8	Panajachel	3	Marzo	2023-03-28T00:00:00	2024-11-08T03:00:00	4	Temperatura máxima	16.9
27727	7	Sololá	710	Panajachel	8	Panajachel	3	Marzo	2023-03-28T00:00:00	2024-11-08T03:00:00	3	Temperatura mínima	16.7
27728	7	Sololá	710	Panajachel	8	Panajachel	3	Marzo	2023-03-28T00:00:00	2024-11-08T03:00:00	5	Humedad	81
27729	7	Sololá	710	Panajachel	8	Panajachel	3	Marzo	2023-03-28T00:00:00	2024-11-08T03:00:00	6	Velocidad del viento	1.6
27730	7	Sololá	710	Panajachel	8	Panajachel	3	Marzo	2023-03-28T00:00:00	2024-11-08T03:00:00	7	Dirección del viento	1.61
27731	7	Sololá	710	Panajachel	8	Panajachel	3	Marzo	2023-03-28T00:00:00	2024-11-08T03:00:00	1	Precipitación	0
27732	7	Sololá	710	Panajachel	8	Panajachel	3	Marzo	2023-03-28T00:00:00	2024-11-08T03:00:00	8	Radiación solar	0
27733	7	Sololá	710	Panajachel	8	Panajachel	3	Marzo	2023-03-28T00:00:00	2024-11-08T04:00:00	2	Temperatura media	16.4
27734	7	Sololá	710	Panajachel	8	Panajachel	3	Marzo	2023-03-28T00:00:00	2024-11-08T04:00:00	4	Temperatura máxima	16.9
27735	7	Sololá	710	Panajachel	8	Panajachel	3	Marzo	2023-03-28T00:00:00	2024-11-08T04:00:00	3	Temperatura mínima	16.4
27736	7	Sololá	710	Panajachel	8	Panajachel	3	Marzo	2023-03-28T00:00:00	2024-11-08T04:00:00	5	Humedad	80
27737	7	Sololá	710	Panajachel	8	Panajachel	3	Marzo	2023-03-28T00:00:00	2024-11-08T04:00:00	6	Velocidad del viento	1.6
27738	7	Sololá	710	Panajachel	8	Panajachel	3	Marzo	2023-03-28T00:00:00	2024-11-08T04:00:00	7	Dirección del viento	1.61
27739	7	Sololá	710	Panajachel	8	Panajachel	3	Marzo	2023-03-28T00:00:00	2024-11-08T04:00:00	1	Precipitación	0
27740	7	Sololá	710	Panajachel	8	Panajachel	3	Marzo	2023-03-28T00:00:00	2024-11-08T04:00:00	8	Radiación solar	0
27741	7	Sololá	710	Panajachel	8	Panajachel	3	Marzo	2023-03-28T00:00:00	2024-11-08T05:00:00	2	Temperatura media	16.3
27742	7	Sololá	710	Panajachel	8	Panajachel	3	Marzo	2023-03-28T00:00:00	2024-11-08T05:00:00	4	Temperatura máxima	16.6
27743	7	Sololá	710	Panajachel	8	Panajachel	3	Marzo	2023-03-28T00:00:00	2024-11-08T05:00:00	3	Temperatura mínima	16.2
27744	7	Sololá	710	Panajachel	8	Panajachel	3	Marzo	2023-03-28T00:00:00	2024-11-08T05:00:00	5	Humedad	80
27745	7	Sololá	710	Panajachel	8	Panajachel	3	Marzo	2023-03-28T00:00:00	2024-11-08T05:00:00	6	Velocidad del viento	1.6
27746	7	Sololá	710	Panajachel	8	Panajachel	3	Marzo	2023-03-28T00:00:00	2024-11-08T05:00:00	7	Dirección del viento	1.61
27747	7	Sololá	710	Panajachel	8	Panajachel	3	Marzo	2023-03-28T00:00:00	2024-11-08T05:00:00	1	Precipitación	0
27748	7	Sololá	710	Panajachel	8	Panajachel	3	Marzo	2023-03-28T00:00:00	2024-11-08T05:00:00	8	Radiación solar	0
27749	7	Sololá	710	Panajachel	8	Panajachel	3	Marzo	2023-03-28T00:00:00	2024-11-08T06:00:00	2	Temperatura media	16.3
27750	7	Sololá	710	Panajachel	8	Panajachel	3	Marzo	2023-03-28T00:00:00	2024-11-08T06:00:00	4	Temperatura máxima	16.4
27751	7	Sololá	710	Panajachel	8	Panajachel	3	Marzo	2023-03-28T00:00:00	2024-11-08T06:00:00	3	Temperatura mínima	16.1
27752	7	Sololá	710	Panajachel	8	Panajachel	3	Marzo	2023-03-28T00:00:00	2024-11-08T06:00:00	5	Humedad	81
27753	7	Sololá	710	Panajachel	8	Panajachel	3	Marzo	2023-03-28T00:00:00	2024-11-08T06:00:00	6	Velocidad del viento	1.6
27754	7	Sololá	710	Panajachel	8	Panajachel	3	Marzo	2023-03-28T00:00:00	2024-11-08T06:00:00	7	Dirección del viento	1.61
27755	7	Sololá	710	Panajachel	8	Panajachel	3	Marzo	2023-03-28T00:00:00	2024-11-08T06:00:00	1	Precipitación	0
27756	7	Sololá	710	Panajachel	8	Panajachel	3	Marzo	2023-03-28T00:00:00	2024-11-08T06:00:00	8	Radiación solar	0
27757	7	Sololá	710	Panajachel	8	Panajachel	3	Marzo	2023-03-28T00:00:00	2024-11-08T07:00:00	2	Temperatura media	17
27758	7	Sololá	710	Panajachel	8	Panajachel	3	Marzo	2023-03-28T00:00:00	2024-11-08T07:00:00	4	Temperatura máxima	17
27759	7	Sololá	710	Panajachel	8	Panajachel	3	Marzo	2023-03-28T00:00:00	2024-11-08T07:00:00	3	Temperatura mínima	16.3
27760	7	Sololá	710	Panajachel	8	Panajachel	3	Marzo	2023-03-28T00:00:00	2024-11-08T07:00:00	5	Humedad	79
27761	7	Sololá	710	Panajachel	8	Panajachel	3	Marzo	2023-03-28T00:00:00	2024-11-08T07:00:00	6	Velocidad del viento	1.6
27762	7	Sololá	710	Panajachel	8	Panajachel	3	Marzo	2023-03-28T00:00:00	2024-11-08T07:00:00	7	Dirección del viento	1.61
27763	7	Sololá	710	Panajachel	8	Panajachel	3	Marzo	2023-03-28T00:00:00	2024-11-08T07:00:00	1	Precipitación	0
27764	7	Sololá	710	Panajachel	8	Panajachel	3	Marzo	2023-03-28T00:00:00	2024-11-08T07:00:00	8	Radiación solar	29
27765	7	Sololá	710	Panajachel	8	Panajachel	3	Marzo	2023-03-28T00:00:00	2024-11-08T08:00:00	2	Temperatura media	19.5
27766	7	Sololá	710	Panajachel	8	Panajachel	3	Marzo	2023-03-28T00:00:00	2024-11-08T08:00:00	4	Temperatura máxima	19.5
27767	7	Sololá	710	Panajachel	8	Panajachel	3	Marzo	2023-03-28T00:00:00	2024-11-08T08:00:00	3	Temperatura mínima	17
27768	7	Sololá	710	Panajachel	8	Panajachel	3	Marzo	2023-03-28T00:00:00	2024-11-08T08:00:00	5	Humedad	74
27769	7	Sololá	710	Panajachel	8	Panajachel	3	Marzo	2023-03-28T00:00:00	2024-11-08T08:00:00	6	Velocidad del viento	0
27770	7	Sololá	710	Panajachel	8	Panajachel	3	Marzo	2023-03-28T00:00:00	2024-11-08T08:00:00	7	Dirección del viento	0
27771	7	Sololá	710	Panajachel	8	Panajachel	3	Marzo	2023-03-28T00:00:00	2024-11-08T08:00:00	1	Precipitación	0
27772	7	Sololá	710	Panajachel	8	Panajachel	3	Marzo	2023-03-28T00:00:00	2024-11-08T08:00:00	8	Radiación solar	223
27773	7	Sololá	710	Panajachel	8	Panajachel	3	Marzo	2023-03-28T00:00:00	2024-11-08T09:00:00	2	Temperatura media	21
27774	7	Sololá	710	Panajachel	8	Panajachel	3	Marzo	2023-03-28T00:00:00	2024-11-08T09:00:00	4	Temperatura máxima	21
27775	7	Sololá	710	Panajachel	8	Panajachel	3	Marzo	2023-03-28T00:00:00	2024-11-08T09:00:00	3	Temperatura mínima	19.5
27776	7	Sololá	710	Panajachel	8	Panajachel	3	Marzo	2023-03-28T00:00:00	2024-11-08T09:00:00	5	Humedad	78
27777	7	Sololá	710	Panajachel	8	Panajachel	3	Marzo	2023-03-28T00:00:00	2024-11-08T09:00:00	6	Velocidad del viento	0
27778	7	Sololá	710	Panajachel	8	Panajachel	3	Marzo	2023-03-28T00:00:00	2024-11-08T09:00:00	7	Dirección del viento	0
27779	7	Sololá	710	Panajachel	8	Panajachel	3	Marzo	2023-03-28T00:00:00	2024-11-08T09:00:00	1	Precipitación	0
27780	7	Sololá	710	Panajachel	8	Panajachel	3	Marzo	2023-03-28T00:00:00	2024-11-08T09:00:00	8	Radiación solar	489
27781	7	Sololá	710	Panajachel	8	Panajachel	3	Marzo	2023-03-28T00:00:00	2024-11-08T10:00:00	2	Temperatura media	21.6
27782	7	Sololá	710	Panajachel	8	Panajachel	3	Marzo	2023-03-28T00:00:00	2024-11-08T10:00:00	4	Temperatura máxima	21.6
27783	7	Sololá	710	Panajachel	8	Panajachel	3	Marzo	2023-03-28T00:00:00	2024-11-08T10:00:00	3	Temperatura mínima	20.8
27784	7	Sololá	710	Panajachel	8	Panajachel	3	Marzo	2023-03-28T00:00:00	2024-11-08T10:00:00	5	Humedad	73
27785	7	Sololá	710	Panajachel	8	Panajachel	3	Marzo	2023-03-28T00:00:00	2024-11-08T10:00:00	6	Velocidad del viento	1.6
27786	7	Sololá	710	Panajachel	8	Panajachel	3	Marzo	2023-03-28T00:00:00	2024-11-08T10:00:00	7	Dirección del viento	1.61
27787	7	Sololá	710	Panajachel	8	Panajachel	3	Marzo	2023-03-28T00:00:00	2024-11-08T10:00:00	1	Precipitación	0
27788	7	Sololá	710	Panajachel	8	Panajachel	3	Marzo	2023-03-28T00:00:00	2024-11-08T10:00:00	8	Radiación solar	712
27789	7	Sololá	710	Panajachel	8	Panajachel	3	Marzo	2023-03-28T00:00:00	2024-11-08T11:00:00	2	Temperatura media	23.2
27790	7	Sololá	710	Panajachel	8	Panajachel	3	Marzo	2023-03-28T00:00:00	2024-11-08T11:00:00	4	Temperatura máxima	23.2
27791	7	Sololá	710	Panajachel	8	Panajachel	3	Marzo	2023-03-28T00:00:00	2024-11-08T11:00:00	3	Temperatura mínima	21.6
27792	7	Sololá	710	Panajachel	8	Panajachel	3	Marzo	2023-03-28T00:00:00	2024-11-08T11:00:00	5	Humedad	73
27793	7	Sololá	710	Panajachel	8	Panajachel	3	Marzo	2023-03-28T00:00:00	2024-11-08T11:00:00	6	Velocidad del viento	1.6
27794	7	Sololá	710	Panajachel	8	Panajachel	3	Marzo	2023-03-28T00:00:00	2024-11-08T11:00:00	7	Dirección del viento	1.61
27795	7	Sololá	710	Panajachel	8	Panajachel	3	Marzo	2023-03-28T00:00:00	2024-11-08T11:00:00	1	Precipitación	0
27796	7	Sololá	710	Panajachel	8	Panajachel	3	Marzo	2023-03-28T00:00:00	2024-11-08T11:00:00	8	Radiación solar	853
27797	7	Sololá	710	Panajachel	8	Panajachel	3	Marzo	2023-03-28T00:00:00	2024-11-08T12:00:00	2	Temperatura media	23.5
27798	7	Sololá	710	Panajachel	8	Panajachel	3	Marzo	2023-03-28T00:00:00	2024-11-08T12:00:00	4	Temperatura máxima	23.9
27799	7	Sololá	710	Panajachel	8	Panajachel	3	Marzo	2023-03-28T00:00:00	2024-11-08T12:00:00	3	Temperatura mínima	22.2
27800	7	Sololá	710	Panajachel	8	Panajachel	3	Marzo	2023-03-28T00:00:00	2024-11-08T12:00:00	5	Humedad	75
27801	7	Sololá	710	Panajachel	8	Panajachel	3	Marzo	2023-03-28T00:00:00	2024-11-08T12:00:00	6	Velocidad del viento	3.2
27802	7	Sololá	710	Panajachel	8	Panajachel	3	Marzo	2023-03-28T00:00:00	2024-11-08T12:00:00	7	Dirección del viento	3.22
27803	7	Sololá	710	Panajachel	8	Panajachel	3	Marzo	2023-03-28T00:00:00	2024-11-08T12:00:00	1	Precipitación	0
27804	7	Sololá	710	Panajachel	8	Panajachel	3	Marzo	2023-03-28T00:00:00	2024-11-08T12:00:00	8	Radiación solar	901
27805	7	Sololá	710	Panajachel	8	Panajachel	3	Marzo	2023-03-28T00:00:00	2024-11-08T13:00:00	2	Temperatura media	23.7
27806	7	Sololá	710	Panajachel	8	Panajachel	3	Marzo	2023-03-28T00:00:00	2024-11-08T13:00:00	4	Temperatura máxima	24.1
27807	7	Sololá	710	Panajachel	8	Panajachel	3	Marzo	2023-03-28T00:00:00	2024-11-08T13:00:00	3	Temperatura mínima	23.2
27808	7	Sololá	710	Panajachel	8	Panajachel	3	Marzo	2023-03-28T00:00:00	2024-11-08T13:00:00	5	Humedad	73
27809	7	Sololá	710	Panajachel	8	Panajachel	3	Marzo	2023-03-28T00:00:00	2024-11-08T13:00:00	6	Velocidad del viento	4.8
27810	7	Sololá	710	Panajachel	8	Panajachel	3	Marzo	2023-03-28T00:00:00	2024-11-08T13:00:00	7	Dirección del viento	4.83
27811	7	Sololá	710	Panajachel	8	Panajachel	3	Marzo	2023-03-28T00:00:00	2024-11-08T13:00:00	1	Precipitación	0
27812	7	Sololá	710	Panajachel	8	Panajachel	3	Marzo	2023-03-28T00:00:00	2024-11-08T13:00:00	8	Radiación solar	986
27813	7	Sololá	710	Panajachel	8	Panajachel	3	Marzo	2023-03-28T00:00:00	2024-11-08T14:00:00	2	Temperatura media	22.4
27814	7	Sololá	710	Panajachel	8	Panajachel	3	Marzo	2023-03-28T00:00:00	2024-11-08T14:00:00	4	Temperatura máxima	23.7
27815	7	Sololá	710	Panajachel	8	Panajachel	3	Marzo	2023-03-28T00:00:00	2024-11-08T14:00:00	3	Temperatura mínima	22.4
27816	7	Sololá	710	Panajachel	8	Panajachel	3	Marzo	2023-03-28T00:00:00	2024-11-08T14:00:00	5	Humedad	76
27817	7	Sololá	710	Panajachel	8	Panajachel	3	Marzo	2023-03-28T00:00:00	2024-11-08T14:00:00	6	Velocidad del viento	4.8
27818	7	Sololá	710	Panajachel	8	Panajachel	3	Marzo	2023-03-28T00:00:00	2024-11-08T14:00:00	7	Dirección del viento	4.83
27819	7	Sololá	710	Panajachel	8	Panajachel	3	Marzo	2023-03-28T00:00:00	2024-11-08T14:00:00	1	Precipitación	0
27820	7	Sololá	710	Panajachel	8	Panajachel	3	Marzo	2023-03-28T00:00:00	2024-11-08T14:00:00	8	Radiación solar	373
27821	7	Sololá	710	Panajachel	8	Panajachel	3	Marzo	2023-03-28T00:00:00	2024-11-08T15:00:00	2	Temperatura media	22.4
27822	7	Sololá	710	Panajachel	8	Panajachel	3	Marzo	2023-03-28T00:00:00	2024-11-08T15:00:00	4	Temperatura máxima	24.4
27823	7	Sololá	710	Panajachel	8	Panajachel	3	Marzo	2023-03-28T00:00:00	2024-11-08T15:00:00	3	Temperatura mínima	22.3
27824	7	Sololá	710	Panajachel	8	Panajachel	3	Marzo	2023-03-28T00:00:00	2024-11-08T15:00:00	5	Humedad	76
27825	7	Sololá	710	Panajachel	8	Panajachel	3	Marzo	2023-03-28T00:00:00	2024-11-08T15:00:00	6	Velocidad del viento	4.8
27826	7	Sololá	710	Panajachel	8	Panajachel	3	Marzo	2023-03-28T00:00:00	2024-11-08T15:00:00	7	Dirección del viento	4.83
27827	7	Sololá	710	Panajachel	8	Panajachel	3	Marzo	2023-03-28T00:00:00	2024-11-08T15:00:00	1	Precipitación	0
27828	7	Sololá	710	Panajachel	8	Panajachel	3	Marzo	2023-03-28T00:00:00	2024-11-08T15:00:00	8	Radiación solar	701
27829	7	Sololá	710	Panajachel	8	Panajachel	3	Marzo	2023-03-28T00:00:00	2024-11-08T16:00:00	2	Temperatura media	23.5
27830	7	Sololá	710	Panajachel	8	Panajachel	3	Marzo	2023-03-28T00:00:00	2024-11-08T16:00:00	4	Temperatura máxima	23.7
27831	7	Sololá	710	Panajachel	8	Panajachel	3	Marzo	2023-03-28T00:00:00	2024-11-08T16:00:00	3	Temperatura mínima	22.3
27832	7	Sololá	710	Panajachel	8	Panajachel	3	Marzo	2023-03-28T00:00:00	2024-11-08T16:00:00	5	Humedad	78
27833	7	Sololá	710	Panajachel	8	Panajachel	3	Marzo	2023-03-28T00:00:00	2024-11-08T16:00:00	6	Velocidad del viento	8
27834	7	Sololá	710	Panajachel	8	Panajachel	3	Marzo	2023-03-28T00:00:00	2024-11-08T16:00:00	7	Dirección del viento	8.05
27835	7	Sololá	710	Panajachel	8	Panajachel	3	Marzo	2023-03-28T00:00:00	2024-11-08T16:00:00	1	Precipitación	0
27836	7	Sololá	710	Panajachel	8	Panajachel	3	Marzo	2023-03-28T00:00:00	2024-11-08T16:00:00	8	Radiación solar	482
27837	7	Sololá	710	Panajachel	8	Panajachel	3	Marzo	2023-03-28T00:00:00	2024-11-08T17:00:00	2	Temperatura media	22.1
27838	7	Sololá	710	Panajachel	8	Panajachel	3	Marzo	2023-03-28T00:00:00	2024-11-08T17:00:00	4	Temperatura máxima	23.5
27839	7	Sololá	710	Panajachel	8	Panajachel	3	Marzo	2023-03-28T00:00:00	2024-11-08T17:00:00	3	Temperatura mínima	22.1
27840	7	Sololá	710	Panajachel	8	Panajachel	3	Marzo	2023-03-28T00:00:00	2024-11-08T17:00:00	5	Humedad	81
27841	7	Sololá	710	Panajachel	8	Panajachel	3	Marzo	2023-03-28T00:00:00	2024-11-08T17:00:00	6	Velocidad del viento	4.8
27842	7	Sololá	710	Panajachel	8	Panajachel	3	Marzo	2023-03-28T00:00:00	2024-11-08T17:00:00	7	Dirección del viento	4.83
27843	7	Sololá	710	Panajachel	8	Panajachel	3	Marzo	2023-03-28T00:00:00	2024-11-08T17:00:00	1	Precipitación	0
27844	7	Sololá	710	Panajachel	8	Panajachel	3	Marzo	2023-03-28T00:00:00	2024-11-08T17:00:00	8	Radiación solar	170
27845	7	Sololá	710	Panajachel	8	Panajachel	3	Marzo	2023-03-28T00:00:00	2024-11-08T18:00:00	2	Temperatura media	21.2
27846	7	Sololá	710	Panajachel	8	Panajachel	3	Marzo	2023-03-28T00:00:00	2024-11-08T18:00:00	4	Temperatura máxima	22.2
27847	7	Sololá	710	Panajachel	8	Panajachel	3	Marzo	2023-03-28T00:00:00	2024-11-08T18:00:00	3	Temperatura mínima	21.2
27848	7	Sololá	710	Panajachel	8	Panajachel	3	Marzo	2023-03-28T00:00:00	2024-11-08T18:00:00	5	Humedad	85
27849	7	Sololá	710	Panajachel	8	Panajachel	3	Marzo	2023-03-28T00:00:00	2024-11-08T18:00:00	6	Velocidad del viento	3.2
27850	7	Sololá	710	Panajachel	8	Panajachel	3	Marzo	2023-03-28T00:00:00	2024-11-08T18:00:00	7	Dirección del viento	3.22
27851	7	Sololá	710	Panajachel	8	Panajachel	3	Marzo	2023-03-28T00:00:00	2024-11-08T18:00:00	1	Precipitación	0
27852	7	Sololá	710	Panajachel	8	Panajachel	3	Marzo	2023-03-28T00:00:00	2024-11-08T18:00:00	8	Radiación solar	73
27853	7	Sololá	710	Panajachel	8	Panajachel	3	Marzo	2023-03-28T00:00:00	2024-11-08T19:00:00	2	Temperatura media	20.6
27854	7	Sololá	710	Panajachel	8	Panajachel	3	Marzo	2023-03-28T00:00:00	2024-11-08T19:00:00	4	Temperatura máxima	21.2
27855	7	Sololá	710	Panajachel	8	Panajachel	3	Marzo	2023-03-28T00:00:00	2024-11-08T19:00:00	3	Temperatura mínima	20.6
27856	7	Sololá	710	Panajachel	8	Panajachel	3	Marzo	2023-03-28T00:00:00	2024-11-08T19:00:00	5	Humedad	88
27857	7	Sololá	710	Panajachel	8	Panajachel	3	Marzo	2023-03-28T00:00:00	2024-11-08T19:00:00	6	Velocidad del viento	0
27858	7	Sololá	710	Panajachel	8	Panajachel	3	Marzo	2023-03-28T00:00:00	2024-11-08T19:00:00	7	Dirección del viento	0
27859	7	Sololá	710	Panajachel	8	Panajachel	3	Marzo	2023-03-28T00:00:00	2024-11-08T19:00:00	1	Precipitación	0
27860	7	Sololá	710	Panajachel	8	Panajachel	3	Marzo	2023-03-28T00:00:00	2024-11-08T19:00:00	8	Radiación solar	0
27861	7	Sololá	710	Panajachel	8	Panajachel	3	Marzo	2023-03-28T00:00:00	2024-11-08T20:00:00	2	Temperatura media	20.3
27862	7	Sololá	710	Panajachel	8	Panajachel	3	Marzo	2023-03-28T00:00:00	2024-11-08T20:00:00	4	Temperatura máxima	20.6
27863	7	Sololá	710	Panajachel	8	Panajachel	3	Marzo	2023-03-28T00:00:00	2024-11-08T20:00:00	3	Temperatura mínima	20.3
27864	7	Sololá	710	Panajachel	8	Panajachel	3	Marzo	2023-03-28T00:00:00	2024-11-08T20:00:00	5	Humedad	89
27865	7	Sololá	710	Panajachel	8	Panajachel	3	Marzo	2023-03-28T00:00:00	2024-11-08T20:00:00	6	Velocidad del viento	1.6
27866	7	Sololá	710	Panajachel	8	Panajachel	3	Marzo	2023-03-28T00:00:00	2024-11-08T20:00:00	7	Dirección del viento	1.61
27867	7	Sololá	710	Panajachel	8	Panajachel	3	Marzo	2023-03-28T00:00:00	2024-11-08T20:00:00	1	Precipitación	0
27868	7	Sololá	710	Panajachel	8	Panajachel	3	Marzo	2023-03-28T00:00:00	2024-11-08T20:00:00	8	Radiación solar	0
27869	7	Sololá	710	Panajachel	8	Panajachel	3	Marzo	2023-03-28T00:00:00	2024-11-08T21:00:00	2	Temperatura media	19.9
27870	7	Sololá	710	Panajachel	8	Panajachel	3	Marzo	2023-03-28T00:00:00	2024-11-08T21:00:00	4	Temperatura máxima	20.4
27871	7	Sololá	710	Panajachel	8	Panajachel	3	Marzo	2023-03-28T00:00:00	2024-11-08T21:00:00	3	Temperatura mínima	19.9
27872	7	Sololá	710	Panajachel	8	Panajachel	3	Marzo	2023-03-28T00:00:00	2024-11-08T21:00:00	5	Humedad	86
27873	7	Sololá	710	Panajachel	8	Panajachel	3	Marzo	2023-03-28T00:00:00	2024-11-08T21:00:00	6	Velocidad del viento	0
27874	7	Sololá	710	Panajachel	8	Panajachel	3	Marzo	2023-03-28T00:00:00	2024-11-08T21:00:00	7	Dirección del viento	0
27875	7	Sololá	710	Panajachel	8	Panajachel	3	Marzo	2023-03-28T00:00:00	2024-11-08T21:00:00	1	Precipitación	0
27876	7	Sololá	710	Panajachel	8	Panajachel	3	Marzo	2023-03-28T00:00:00	2024-11-08T21:00:00	8	Radiación solar	0
27877	7	Sololá	710	Panajachel	8	Panajachel	3	Marzo	2023-03-28T00:00:00	2024-11-08T22:00:00	2	Temperatura media	18.9
27878	7	Sololá	710	Panajachel	8	Panajachel	3	Marzo	2023-03-28T00:00:00	2024-11-08T22:00:00	4	Temperatura máxima	19.9
27879	7	Sololá	710	Panajachel	8	Panajachel	3	Marzo	2023-03-28T00:00:00	2024-11-08T22:00:00	3	Temperatura mínima	18.9
27880	7	Sololá	710	Panajachel	8	Panajachel	3	Marzo	2023-03-28T00:00:00	2024-11-08T22:00:00	5	Humedad	84
27881	7	Sololá	710	Panajachel	8	Panajachel	3	Marzo	2023-03-28T00:00:00	2024-11-08T22:00:00	6	Velocidad del viento	1.6
27882	7	Sololá	710	Panajachel	8	Panajachel	3	Marzo	2023-03-28T00:00:00	2024-11-08T22:00:00	7	Dirección del viento	1.61
27883	7	Sololá	710	Panajachel	8	Panajachel	3	Marzo	2023-03-28T00:00:00	2024-11-08T22:00:00	1	Precipitación	0
27884	7	Sololá	710	Panajachel	8	Panajachel	3	Marzo	2023-03-28T00:00:00	2024-11-08T22:00:00	8	Radiación solar	0
27885	7	Sololá	710	Panajachel	8	Panajachel	3	Marzo	2023-03-28T00:00:00	2024-11-08T23:00:00	2	Temperatura media	18.6
27886	7	Sololá	710	Panajachel	8	Panajachel	3	Marzo	2023-03-28T00:00:00	2024-11-08T23:00:00	4	Temperatura máxima	19
27887	7	Sololá	710	Panajachel	8	Panajachel	3	Marzo	2023-03-28T00:00:00	2024-11-08T23:00:00	3	Temperatura mínima	18.4
27888	7	Sololá	710	Panajachel	8	Panajachel	3	Marzo	2023-03-28T00:00:00	2024-11-08T23:00:00	5	Humedad	73
27889	7	Sololá	710	Panajachel	8	Panajachel	3	Marzo	2023-03-28T00:00:00	2024-11-08T23:00:00	6	Velocidad del viento	1.6
27890	7	Sololá	710	Panajachel	8	Panajachel	3	Marzo	2023-03-28T00:00:00	2024-11-08T23:00:00	7	Dirección del viento	1.61
27891	7	Sololá	710	Panajachel	8	Panajachel	3	Marzo	2023-03-28T00:00:00	2024-11-08T23:00:00	1	Precipitación	0
27892	7	Sololá	710	Panajachel	8	Panajachel	3	Marzo	2023-03-28T00:00:00	2024-11-08T23:00:00	8	Radiación solar	0
27893	7	Sololá	710	Panajachel	8	Panajachel	3	Marzo	2023-03-29T00:00:00	2024-11-08T00:00:00	2	Temperatura media	19.7
27894	7	Sololá	710	Panajachel	8	Panajachel	3	Marzo	2023-03-29T00:00:00	2024-11-08T00:00:00	4	Temperatura máxima	20.7
27895	7	Sololá	710	Panajachel	8	Panajachel	3	Marzo	2023-03-29T00:00:00	2024-11-08T00:00:00	3	Temperatura mínima	18.6
27896	7	Sololá	710	Panajachel	8	Panajachel	3	Marzo	2023-03-29T00:00:00	2024-11-08T00:00:00	5	Humedad	64
27897	7	Sololá	710	Panajachel	8	Panajachel	3	Marzo	2023-03-29T00:00:00	2024-11-08T00:00:00	6	Velocidad del viento	3.2
27898	7	Sololá	710	Panajachel	8	Panajachel	3	Marzo	2023-03-29T00:00:00	2024-11-08T00:00:00	7	Dirección del viento	3.22
27899	7	Sololá	710	Panajachel	8	Panajachel	3	Marzo	2023-03-29T00:00:00	2024-11-08T00:00:00	1	Precipitación	0
27900	7	Sololá	710	Panajachel	8	Panajachel	3	Marzo	2023-03-29T00:00:00	2024-11-08T00:00:00	8	Radiación solar	0
27901	7	Sololá	710	Panajachel	8	Panajachel	3	Marzo	2023-03-29T00:00:00	2024-11-08T01:00:00	2	Temperatura media	18.4
27902	7	Sololá	710	Panajachel	8	Panajachel	3	Marzo	2023-03-29T00:00:00	2024-11-08T01:00:00	4	Temperatura máxima	19.8
27903	7	Sololá	710	Panajachel	8	Panajachel	3	Marzo	2023-03-29T00:00:00	2024-11-08T01:00:00	3	Temperatura mínima	18.4
27904	7	Sololá	710	Panajachel	8	Panajachel	3	Marzo	2023-03-29T00:00:00	2024-11-08T01:00:00	5	Humedad	73
27905	7	Sololá	710	Panajachel	8	Panajachel	3	Marzo	2023-03-29T00:00:00	2024-11-08T01:00:00	6	Velocidad del viento	1.6
27906	7	Sololá	710	Panajachel	8	Panajachel	3	Marzo	2023-03-29T00:00:00	2024-11-08T01:00:00	7	Dirección del viento	1.61
27907	7	Sololá	710	Panajachel	8	Panajachel	3	Marzo	2023-03-29T00:00:00	2024-11-08T01:00:00	1	Precipitación	0
27908	7	Sololá	710	Panajachel	8	Panajachel	3	Marzo	2023-03-29T00:00:00	2024-11-08T01:00:00	8	Radiación solar	0
27909	7	Sololá	710	Panajachel	8	Panajachel	3	Marzo	2023-03-29T00:00:00	2024-11-08T02:00:00	2	Temperatura media	16.7
27910	7	Sololá	710	Panajachel	8	Panajachel	3	Marzo	2023-03-29T00:00:00	2024-11-08T02:00:00	4	Temperatura máxima	18.5
27911	7	Sololá	710	Panajachel	8	Panajachel	3	Marzo	2023-03-29T00:00:00	2024-11-08T02:00:00	3	Temperatura mínima	16.7
27912	7	Sololá	710	Panajachel	8	Panajachel	3	Marzo	2023-03-29T00:00:00	2024-11-08T02:00:00	5	Humedad	77
27913	7	Sololá	710	Panajachel	8	Panajachel	3	Marzo	2023-03-29T00:00:00	2024-11-08T02:00:00	6	Velocidad del viento	1.6
27914	7	Sololá	710	Panajachel	8	Panajachel	3	Marzo	2023-03-29T00:00:00	2024-11-08T02:00:00	7	Dirección del viento	1.61
27915	7	Sololá	710	Panajachel	8	Panajachel	3	Marzo	2023-03-29T00:00:00	2024-11-08T02:00:00	1	Precipitación	0
27916	7	Sololá	710	Panajachel	8	Panajachel	3	Marzo	2023-03-29T00:00:00	2024-11-08T02:00:00	8	Radiación solar	0
27917	7	Sololá	710	Panajachel	8	Panajachel	3	Marzo	2023-03-29T00:00:00	2024-11-08T03:00:00	2	Temperatura media	16.4
27918	7	Sololá	710	Panajachel	8	Panajachel	3	Marzo	2023-03-29T00:00:00	2024-11-08T03:00:00	4	Temperatura máxima	16.7
27919	7	Sololá	710	Panajachel	8	Panajachel	3	Marzo	2023-03-29T00:00:00	2024-11-08T03:00:00	3	Temperatura mínima	16.3
27920	7	Sololá	710	Panajachel	8	Panajachel	3	Marzo	2023-03-29T00:00:00	2024-11-08T03:00:00	5	Humedad	79
27921	7	Sololá	710	Panajachel	8	Panajachel	3	Marzo	2023-03-29T00:00:00	2024-11-08T03:00:00	6	Velocidad del viento	0
27922	7	Sololá	710	Panajachel	8	Panajachel	3	Marzo	2023-03-29T00:00:00	2024-11-08T03:00:00	7	Dirección del viento	0
27923	7	Sololá	710	Panajachel	8	Panajachel	3	Marzo	2023-03-29T00:00:00	2024-11-08T03:00:00	1	Precipitación	0
27924	7	Sololá	710	Panajachel	8	Panajachel	3	Marzo	2023-03-29T00:00:00	2024-11-08T03:00:00	8	Radiación solar	0
27925	7	Sololá	710	Panajachel	8	Panajachel	3	Marzo	2023-03-29T00:00:00	2024-11-08T04:00:00	2	Temperatura media	15.9
27926	7	Sololá	710	Panajachel	8	Panajachel	3	Marzo	2023-03-29T00:00:00	2024-11-08T04:00:00	4	Temperatura máxima	16.6
27927	7	Sololá	710	Panajachel	8	Panajachel	3	Marzo	2023-03-29T00:00:00	2024-11-08T04:00:00	3	Temperatura mínima	15.9
27928	7	Sololá	710	Panajachel	8	Panajachel	3	Marzo	2023-03-29T00:00:00	2024-11-08T04:00:00	5	Humedad	78
27929	7	Sololá	710	Panajachel	8	Panajachel	3	Marzo	2023-03-29T00:00:00	2024-11-08T04:00:00	6	Velocidad del viento	1.6
27930	7	Sololá	710	Panajachel	8	Panajachel	3	Marzo	2023-03-29T00:00:00	2024-11-08T04:00:00	7	Dirección del viento	1.61
27931	7	Sololá	710	Panajachel	8	Panajachel	3	Marzo	2023-03-29T00:00:00	2024-11-08T04:00:00	1	Precipitación	0
27932	7	Sololá	710	Panajachel	8	Panajachel	3	Marzo	2023-03-29T00:00:00	2024-11-08T04:00:00	8	Radiación solar	0
27933	7	Sololá	710	Panajachel	8	Panajachel	3	Marzo	2023-03-29T00:00:00	2024-11-08T05:00:00	2	Temperatura media	15.4
27934	7	Sololá	710	Panajachel	8	Panajachel	3	Marzo	2023-03-29T00:00:00	2024-11-08T05:00:00	4	Temperatura máxima	15.9
27935	7	Sololá	710	Panajachel	8	Panajachel	3	Marzo	2023-03-29T00:00:00	2024-11-08T05:00:00	3	Temperatura mínima	15.4
27936	7	Sololá	710	Panajachel	8	Panajachel	3	Marzo	2023-03-29T00:00:00	2024-11-08T05:00:00	5	Humedad	78
27937	7	Sololá	710	Panajachel	8	Panajachel	3	Marzo	2023-03-29T00:00:00	2024-11-08T05:00:00	6	Velocidad del viento	0
27938	7	Sololá	710	Panajachel	8	Panajachel	3	Marzo	2023-03-29T00:00:00	2024-11-08T05:00:00	7	Dirección del viento	0
27939	7	Sololá	710	Panajachel	8	Panajachel	3	Marzo	2023-03-29T00:00:00	2024-11-08T05:00:00	1	Precipitación	0
27940	7	Sololá	710	Panajachel	8	Panajachel	3	Marzo	2023-03-29T00:00:00	2024-11-08T05:00:00	8	Radiación solar	0
27941	7	Sololá	710	Panajachel	8	Panajachel	3	Marzo	2023-03-29T00:00:00	2024-11-08T06:00:00	2	Temperatura media	15.8
27942	7	Sololá	710	Panajachel	8	Panajachel	3	Marzo	2023-03-29T00:00:00	2024-11-08T06:00:00	4	Temperatura máxima	15.8
27943	7	Sololá	710	Panajachel	8	Panajachel	3	Marzo	2023-03-29T00:00:00	2024-11-08T06:00:00	3	Temperatura mínima	15.2
27944	7	Sololá	710	Panajachel	8	Panajachel	3	Marzo	2023-03-29T00:00:00	2024-11-08T06:00:00	5	Humedad	77
27945	7	Sololá	710	Panajachel	8	Panajachel	3	Marzo	2023-03-29T00:00:00	2024-11-08T06:00:00	6	Velocidad del viento	1.6
27946	7	Sololá	710	Panajachel	8	Panajachel	3	Marzo	2023-03-29T00:00:00	2024-11-08T06:00:00	7	Dirección del viento	1.61
27947	7	Sololá	710	Panajachel	8	Panajachel	3	Marzo	2023-03-29T00:00:00	2024-11-08T06:00:00	1	Precipitación	0
27948	7	Sololá	710	Panajachel	8	Panajachel	3	Marzo	2023-03-29T00:00:00	2024-11-08T06:00:00	8	Radiación solar	0
27949	7	Sololá	710	Panajachel	8	Panajachel	3	Marzo	2023-03-29T00:00:00	2024-11-08T07:00:00	2	Temperatura media	17.5
27950	7	Sololá	710	Panajachel	8	Panajachel	3	Marzo	2023-03-29T00:00:00	2024-11-08T07:00:00	4	Temperatura máxima	17.5
27951	7	Sololá	710	Panajachel	8	Panajachel	3	Marzo	2023-03-29T00:00:00	2024-11-08T07:00:00	3	Temperatura mínima	15.8
27952	7	Sololá	710	Panajachel	8	Panajachel	3	Marzo	2023-03-29T00:00:00	2024-11-08T07:00:00	5	Humedad	72
27953	7	Sololá	710	Panajachel	8	Panajachel	3	Marzo	2023-03-29T00:00:00	2024-11-08T07:00:00	6	Velocidad del viento	0
27954	7	Sololá	710	Panajachel	8	Panajachel	3	Marzo	2023-03-29T00:00:00	2024-11-08T07:00:00	7	Dirección del viento	0
27955	7	Sololá	710	Panajachel	8	Panajachel	3	Marzo	2023-03-29T00:00:00	2024-11-08T07:00:00	1	Precipitación	0
27956	7	Sololá	710	Panajachel	8	Panajachel	3	Marzo	2023-03-29T00:00:00	2024-11-08T07:00:00	8	Radiación solar	31
27957	7	Sololá	710	Panajachel	8	Panajachel	3	Marzo	2023-03-29T00:00:00	2024-11-08T08:00:00	2	Temperatura media	20.8
27958	7	Sololá	710	Panajachel	8	Panajachel	3	Marzo	2023-03-29T00:00:00	2024-11-08T08:00:00	4	Temperatura máxima	20.8
27959	7	Sololá	710	Panajachel	8	Panajachel	3	Marzo	2023-03-29T00:00:00	2024-11-08T08:00:00	3	Temperatura mínima	17.6
27960	7	Sololá	710	Panajachel	8	Panajachel	3	Marzo	2023-03-29T00:00:00	2024-11-08T08:00:00	5	Humedad	65
27961	7	Sololá	710	Panajachel	8	Panajachel	3	Marzo	2023-03-29T00:00:00	2024-11-08T08:00:00	6	Velocidad del viento	4.8
27962	7	Sololá	710	Panajachel	8	Panajachel	3	Marzo	2023-03-29T00:00:00	2024-11-08T08:00:00	7	Dirección del viento	4.83
27963	7	Sololá	710	Panajachel	8	Panajachel	3	Marzo	2023-03-29T00:00:00	2024-11-08T08:00:00	1	Precipitación	0
27964	7	Sololá	710	Panajachel	8	Panajachel	3	Marzo	2023-03-29T00:00:00	2024-11-08T08:00:00	8	Radiación solar	269
27965	7	Sololá	710	Panajachel	8	Panajachel	3	Marzo	2023-03-29T00:00:00	2024-11-08T09:00:00	2	Temperatura media	22.3
27966	7	Sololá	710	Panajachel	8	Panajachel	3	Marzo	2023-03-29T00:00:00	2024-11-08T09:00:00	4	Temperatura máxima	22.3
27967	7	Sololá	710	Panajachel	8	Panajachel	3	Marzo	2023-03-29T00:00:00	2024-11-08T09:00:00	3	Temperatura mínima	20.7
27968	7	Sololá	710	Panajachel	8	Panajachel	3	Marzo	2023-03-29T00:00:00	2024-11-08T09:00:00	5	Humedad	60
27969	7	Sololá	710	Panajachel	8	Panajachel	3	Marzo	2023-03-29T00:00:00	2024-11-08T09:00:00	6	Velocidad del viento	11.3
27970	7	Sololá	710	Panajachel	8	Panajachel	3	Marzo	2023-03-29T00:00:00	2024-11-08T09:00:00	7	Dirección del viento	11.27
27971	7	Sololá	710	Panajachel	8	Panajachel	3	Marzo	2023-03-29T00:00:00	2024-11-08T09:00:00	1	Precipitación	0
27972	7	Sololá	710	Panajachel	8	Panajachel	3	Marzo	2023-03-29T00:00:00	2024-11-08T09:00:00	8	Radiación solar	512
27973	7	Sololá	710	Panajachel	8	Panajachel	3	Marzo	2023-03-29T00:00:00	2024-11-08T10:00:00	2	Temperatura media	23.2
27974	7	Sololá	710	Panajachel	8	Panajachel	3	Marzo	2023-03-29T00:00:00	2024-11-08T10:00:00	4	Temperatura máxima	23.2
27975	7	Sololá	710	Panajachel	8	Panajachel	3	Marzo	2023-03-29T00:00:00	2024-11-08T10:00:00	3	Temperatura mínima	22.3
27976	7	Sololá	710	Panajachel	8	Panajachel	3	Marzo	2023-03-29T00:00:00	2024-11-08T10:00:00	5	Humedad	58
27977	7	Sololá	710	Panajachel	8	Panajachel	3	Marzo	2023-03-29T00:00:00	2024-11-08T10:00:00	6	Velocidad del viento	9.7
27978	7	Sololá	710	Panajachel	8	Panajachel	3	Marzo	2023-03-29T00:00:00	2024-11-08T10:00:00	7	Dirección del viento	9.66
27979	7	Sololá	710	Panajachel	8	Panajachel	3	Marzo	2023-03-29T00:00:00	2024-11-08T10:00:00	1	Precipitación	0
27980	7	Sololá	710	Panajachel	8	Panajachel	3	Marzo	2023-03-29T00:00:00	2024-11-08T10:00:00	8	Radiación solar	672
27981	7	Sololá	710	Panajachel	8	Panajachel	3	Marzo	2023-03-29T00:00:00	2024-11-08T11:00:00	2	Temperatura media	24.3
27982	7	Sololá	710	Panajachel	8	Panajachel	3	Marzo	2023-03-29T00:00:00	2024-11-08T11:00:00	4	Temperatura máxima	24.6
27983	7	Sololá	710	Panajachel	8	Panajachel	3	Marzo	2023-03-29T00:00:00	2024-11-08T11:00:00	3	Temperatura mínima	23.2
27984	7	Sololá	710	Panajachel	8	Panajachel	3	Marzo	2023-03-29T00:00:00	2024-11-08T11:00:00	5	Humedad	50
27985	7	Sololá	710	Panajachel	8	Panajachel	3	Marzo	2023-03-29T00:00:00	2024-11-08T11:00:00	6	Velocidad del viento	8
27986	7	Sololá	710	Panajachel	8	Panajachel	3	Marzo	2023-03-29T00:00:00	2024-11-08T11:00:00	7	Dirección del viento	8.05
27987	7	Sololá	710	Panajachel	8	Panajachel	3	Marzo	2023-03-29T00:00:00	2024-11-08T11:00:00	1	Precipitación	0
27988	7	Sololá	710	Panajachel	8	Panajachel	3	Marzo	2023-03-29T00:00:00	2024-11-08T11:00:00	8	Radiación solar	778
27989	7	Sololá	710	Panajachel	8	Panajachel	3	Marzo	2023-03-29T00:00:00	2024-11-08T12:00:00	2	Temperatura media	25.8
27990	7	Sololá	710	Panajachel	8	Panajachel	3	Marzo	2023-03-29T00:00:00	2024-11-08T12:00:00	4	Temperatura máxima	26.1
27991	7	Sololá	710	Panajachel	8	Panajachel	3	Marzo	2023-03-29T00:00:00	2024-11-08T12:00:00	3	Temperatura mínima	24.3
27992	7	Sololá	710	Panajachel	8	Panajachel	3	Marzo	2023-03-29T00:00:00	2024-11-08T12:00:00	5	Humedad	43
27993	7	Sololá	710	Panajachel	8	Panajachel	3	Marzo	2023-03-29T00:00:00	2024-11-08T12:00:00	6	Velocidad del viento	11.3
27994	7	Sololá	710	Panajachel	8	Panajachel	3	Marzo	2023-03-29T00:00:00	2024-11-08T12:00:00	7	Dirección del viento	11.27
27995	7	Sololá	710	Panajachel	8	Panajachel	3	Marzo	2023-03-29T00:00:00	2024-11-08T12:00:00	1	Precipitación	0
27996	7	Sololá	710	Panajachel	8	Panajachel	3	Marzo	2023-03-29T00:00:00	2024-11-08T12:00:00	8	Radiación solar	996
27997	7	Sololá	710	Panajachel	8	Panajachel	3	Marzo	2023-03-29T00:00:00	2024-11-08T13:00:00	2	Temperatura media	26.6
27998	7	Sololá	710	Panajachel	8	Panajachel	3	Marzo	2023-03-29T00:00:00	2024-11-08T13:00:00	4	Temperatura máxima	26.6
27999	7	Sololá	710	Panajachel	8	Panajachel	3	Marzo	2023-03-29T00:00:00	2024-11-08T13:00:00	3	Temperatura mínima	25.7
28000	7	Sololá	710	Panajachel	8	Panajachel	3	Marzo	2023-03-29T00:00:00	2024-11-08T13:00:00	5	Humedad	41
28001	7	Sololá	710	Panajachel	8	Panajachel	3	Marzo	2023-03-29T00:00:00	2024-11-08T13:00:00	6	Velocidad del viento	11.3
28002	7	Sololá	710	Panajachel	8	Panajachel	3	Marzo	2023-03-29T00:00:00	2024-11-08T13:00:00	7	Dirección del viento	11.27
28003	7	Sololá	710	Panajachel	8	Panajachel	3	Marzo	2023-03-29T00:00:00	2024-11-08T13:00:00	1	Precipitación	0
28004	7	Sololá	710	Panajachel	8	Panajachel	3	Marzo	2023-03-29T00:00:00	2024-11-08T13:00:00	8	Radiación solar	972
28005	7	Sololá	710	Panajachel	8	Panajachel	3	Marzo	2023-03-29T00:00:00	2024-11-08T14:00:00	2	Temperatura media	26.8
28006	7	Sololá	710	Panajachel	8	Panajachel	3	Marzo	2023-03-29T00:00:00	2024-11-08T14:00:00	4	Temperatura máxima	27.4
28007	7	Sololá	710	Panajachel	8	Panajachel	3	Marzo	2023-03-29T00:00:00	2024-11-08T14:00:00	3	Temperatura mínima	26.5
28008	7	Sololá	710	Panajachel	8	Panajachel	3	Marzo	2023-03-29T00:00:00	2024-11-08T14:00:00	5	Humedad	39
28009	7	Sololá	710	Panajachel	8	Panajachel	3	Marzo	2023-03-29T00:00:00	2024-11-08T14:00:00	6	Velocidad del viento	9.7
28010	7	Sololá	710	Panajachel	8	Panajachel	3	Marzo	2023-03-29T00:00:00	2024-11-08T14:00:00	7	Dirección del viento	9.66
28011	7	Sololá	710	Panajachel	8	Panajachel	3	Marzo	2023-03-29T00:00:00	2024-11-08T14:00:00	1	Precipitación	0
28012	7	Sololá	710	Panajachel	8	Panajachel	3	Marzo	2023-03-29T00:00:00	2024-11-08T14:00:00	8	Radiación solar	946
28013	7	Sololá	710	Panajachel	8	Panajachel	3	Marzo	2023-03-29T00:00:00	2024-11-08T15:00:00	2	Temperatura media	26.8
28014	7	Sololá	710	Panajachel	8	Panajachel	3	Marzo	2023-03-29T00:00:00	2024-11-08T15:00:00	4	Temperatura máxima	27.7
28015	7	Sololá	710	Panajachel	8	Panajachel	3	Marzo	2023-03-29T00:00:00	2024-11-08T15:00:00	3	Temperatura mínima	26.5
28016	7	Sololá	710	Panajachel	8	Panajachel	3	Marzo	2023-03-29T00:00:00	2024-11-08T15:00:00	5	Humedad	38
28017	7	Sololá	710	Panajachel	8	Panajachel	3	Marzo	2023-03-29T00:00:00	2024-11-08T15:00:00	6	Velocidad del viento	11.3
28018	7	Sololá	710	Panajachel	8	Panajachel	3	Marzo	2023-03-29T00:00:00	2024-11-08T15:00:00	7	Dirección del viento	11.27
28019	7	Sololá	710	Panajachel	8	Panajachel	3	Marzo	2023-03-29T00:00:00	2024-11-08T15:00:00	1	Precipitación	0
28020	7	Sololá	710	Panajachel	8	Panajachel	3	Marzo	2023-03-29T00:00:00	2024-11-08T15:00:00	8	Radiación solar	791
28021	7	Sololá	710	Panajachel	8	Panajachel	3	Marzo	2023-03-29T00:00:00	2024-11-08T16:00:00	2	Temperatura media	26.4
28022	7	Sololá	710	Panajachel	8	Panajachel	3	Marzo	2023-03-29T00:00:00	2024-11-08T16:00:00	4	Temperatura máxima	27.4
28023	7	Sololá	710	Panajachel	8	Panajachel	3	Marzo	2023-03-29T00:00:00	2024-11-08T16:00:00	3	Temperatura mínima	26.2
28024	7	Sololá	710	Panajachel	8	Panajachel	3	Marzo	2023-03-29T00:00:00	2024-11-08T16:00:00	5	Humedad	37
28025	7	Sololá	710	Panajachel	8	Panajachel	3	Marzo	2023-03-29T00:00:00	2024-11-08T16:00:00	6	Velocidad del viento	9.7
28026	7	Sololá	710	Panajachel	8	Panajachel	3	Marzo	2023-03-29T00:00:00	2024-11-08T16:00:00	7	Dirección del viento	9.66
28027	7	Sololá	710	Panajachel	8	Panajachel	3	Marzo	2023-03-29T00:00:00	2024-11-08T16:00:00	1	Precipitación	0
28028	7	Sololá	710	Panajachel	8	Panajachel	3	Marzo	2023-03-29T00:00:00	2024-11-08T16:00:00	8	Radiación solar	447
28029	7	Sololá	710	Panajachel	8	Panajachel	3	Marzo	2023-03-29T00:00:00	2024-11-08T17:00:00	2	Temperatura media	25.4
28030	7	Sololá	710	Panajachel	8	Panajachel	3	Marzo	2023-03-29T00:00:00	2024-11-08T17:00:00	4	Temperatura máxima	26.4
28031	7	Sololá	710	Panajachel	8	Panajachel	3	Marzo	2023-03-29T00:00:00	2024-11-08T17:00:00	3	Temperatura mínima	25.4
28032	7	Sololá	710	Panajachel	8	Panajachel	3	Marzo	2023-03-29T00:00:00	2024-11-08T17:00:00	5	Humedad	40
28033	7	Sololá	710	Panajachel	8	Panajachel	3	Marzo	2023-03-29T00:00:00	2024-11-08T17:00:00	6	Velocidad del viento	8
28034	7	Sololá	710	Panajachel	8	Panajachel	3	Marzo	2023-03-29T00:00:00	2024-11-08T17:00:00	7	Dirección del viento	8.05
28035	7	Sololá	710	Panajachel	8	Panajachel	3	Marzo	2023-03-29T00:00:00	2024-11-08T17:00:00	1	Precipitación	0
28036	7	Sololá	710	Panajachel	8	Panajachel	3	Marzo	2023-03-29T00:00:00	2024-11-08T17:00:00	8	Radiación solar	73
28037	7	Sololá	710	Panajachel	8	Panajachel	3	Marzo	2023-03-29T00:00:00	2024-11-08T18:00:00	2	Temperatura media	23.3
28038	7	Sololá	710	Panajachel	8	Panajachel	3	Marzo	2023-03-29T00:00:00	2024-11-08T18:00:00	4	Temperatura máxima	25.5
28039	7	Sololá	710	Panajachel	8	Panajachel	3	Marzo	2023-03-29T00:00:00	2024-11-08T18:00:00	3	Temperatura mínima	23.3
28040	7	Sololá	710	Panajachel	8	Panajachel	3	Marzo	2023-03-29T00:00:00	2024-11-08T18:00:00	5	Humedad	47
28041	7	Sololá	710	Panajachel	8	Panajachel	3	Marzo	2023-03-29T00:00:00	2024-11-08T18:00:00	6	Velocidad del viento	9.7
28042	7	Sololá	710	Panajachel	8	Panajachel	3	Marzo	2023-03-29T00:00:00	2024-11-08T18:00:00	7	Dirección del viento	9.66
28043	7	Sololá	710	Panajachel	8	Panajachel	3	Marzo	2023-03-29T00:00:00	2024-11-08T18:00:00	1	Precipitación	0
28044	7	Sololá	710	Panajachel	8	Panajachel	3	Marzo	2023-03-29T00:00:00	2024-11-08T18:00:00	8	Radiación solar	51
28045	7	Sololá	710	Panajachel	8	Panajachel	3	Marzo	2023-03-29T00:00:00	2024-11-08T19:00:00	2	Temperatura media	21.4
28046	7	Sololá	710	Panajachel	8	Panajachel	3	Marzo	2023-03-29T00:00:00	2024-11-08T19:00:00	4	Temperatura máxima	23.3
28047	7	Sololá	710	Panajachel	8	Panajachel	3	Marzo	2023-03-29T00:00:00	2024-11-08T19:00:00	3	Temperatura mínima	21.4
28048	7	Sololá	710	Panajachel	8	Panajachel	3	Marzo	2023-03-29T00:00:00	2024-11-08T19:00:00	5	Humedad	54
28049	7	Sololá	710	Panajachel	8	Panajachel	3	Marzo	2023-03-29T00:00:00	2024-11-08T19:00:00	6	Velocidad del viento	8
28050	7	Sololá	710	Panajachel	8	Panajachel	3	Marzo	2023-03-29T00:00:00	2024-11-08T19:00:00	7	Dirección del viento	8.05
28051	7	Sololá	710	Panajachel	8	Panajachel	3	Marzo	2023-03-29T00:00:00	2024-11-08T19:00:00	1	Precipitación	0
28052	7	Sololá	710	Panajachel	8	Panajachel	3	Marzo	2023-03-29T00:00:00	2024-11-08T19:00:00	8	Radiación solar	0
28053	7	Sololá	710	Panajachel	8	Panajachel	3	Marzo	2023-03-29T00:00:00	2024-11-08T20:00:00	2	Temperatura media	20.2
28054	7	Sololá	710	Panajachel	8	Panajachel	3	Marzo	2023-03-29T00:00:00	2024-11-08T20:00:00	4	Temperatura máxima	21.5
28055	7	Sololá	710	Panajachel	8	Panajachel	3	Marzo	2023-03-29T00:00:00	2024-11-08T20:00:00	3	Temperatura mínima	20.2
28056	7	Sololá	710	Panajachel	8	Panajachel	3	Marzo	2023-03-29T00:00:00	2024-11-08T20:00:00	5	Humedad	60
28057	7	Sololá	710	Panajachel	8	Panajachel	3	Marzo	2023-03-29T00:00:00	2024-11-08T20:00:00	6	Velocidad del viento	3.2
28058	7	Sololá	710	Panajachel	8	Panajachel	3	Marzo	2023-03-29T00:00:00	2024-11-08T20:00:00	7	Dirección del viento	3.22
28059	7	Sololá	710	Panajachel	8	Panajachel	3	Marzo	2023-03-29T00:00:00	2024-11-08T20:00:00	1	Precipitación	0
28060	7	Sololá	710	Panajachel	8	Panajachel	3	Marzo	2023-03-29T00:00:00	2024-11-08T20:00:00	8	Radiación solar	0
28061	7	Sololá	710	Panajachel	8	Panajachel	3	Marzo	2023-03-29T00:00:00	2024-11-08T21:00:00	2	Temperatura media	19.3
28062	7	Sololá	710	Panajachel	8	Panajachel	3	Marzo	2023-03-29T00:00:00	2024-11-08T21:00:00	4	Temperatura máxima	20.2
28063	7	Sololá	710	Panajachel	8	Panajachel	3	Marzo	2023-03-29T00:00:00	2024-11-08T21:00:00	3	Temperatura mínima	19.3
28064	7	Sololá	710	Panajachel	8	Panajachel	3	Marzo	2023-03-29T00:00:00	2024-11-08T21:00:00	5	Humedad	61
28065	7	Sololá	710	Panajachel	8	Panajachel	3	Marzo	2023-03-29T00:00:00	2024-11-08T21:00:00	6	Velocidad del viento	4.8
28066	7	Sololá	710	Panajachel	8	Panajachel	3	Marzo	2023-03-29T00:00:00	2024-11-08T21:00:00	7	Dirección del viento	4.83
28067	7	Sololá	710	Panajachel	8	Panajachel	3	Marzo	2023-03-29T00:00:00	2024-11-08T21:00:00	1	Precipitación	0
28068	7	Sololá	710	Panajachel	8	Panajachel	3	Marzo	2023-03-29T00:00:00	2024-11-08T21:00:00	8	Radiación solar	0
28069	7	Sololá	710	Panajachel	8	Panajachel	3	Marzo	2023-03-29T00:00:00	2024-11-08T22:00:00	2	Temperatura media	18.7
28070	7	Sololá	710	Panajachel	8	Panajachel	3	Marzo	2023-03-29T00:00:00	2024-11-08T22:00:00	4	Temperatura máxima	19.3
28071	7	Sololá	710	Panajachel	8	Panajachel	3	Marzo	2023-03-29T00:00:00	2024-11-08T22:00:00	3	Temperatura mínima	18.7
28072	7	Sololá	710	Panajachel	8	Panajachel	3	Marzo	2023-03-29T00:00:00	2024-11-08T22:00:00	5	Humedad	61
28073	7	Sololá	710	Panajachel	8	Panajachel	3	Marzo	2023-03-29T00:00:00	2024-11-08T22:00:00	6	Velocidad del viento	4.8
28074	7	Sololá	710	Panajachel	8	Panajachel	3	Marzo	2023-03-29T00:00:00	2024-11-08T22:00:00	7	Dirección del viento	4.83
28075	7	Sololá	710	Panajachel	8	Panajachel	3	Marzo	2023-03-29T00:00:00	2024-11-08T22:00:00	1	Precipitación	0
28076	7	Sololá	710	Panajachel	8	Panajachel	3	Marzo	2023-03-29T00:00:00	2024-11-08T22:00:00	8	Radiación solar	0
28077	7	Sololá	710	Panajachel	8	Panajachel	3	Marzo	2023-03-29T00:00:00	2024-11-08T23:00:00	2	Temperatura media	18.3
28078	7	Sololá	710	Panajachel	8	Panajachel	3	Marzo	2023-03-29T00:00:00	2024-11-08T23:00:00	4	Temperatura máxima	18.8
28079	7	Sololá	710	Panajachel	8	Panajachel	3	Marzo	2023-03-29T00:00:00	2024-11-08T23:00:00	3	Temperatura mínima	18.3
28080	7	Sololá	710	Panajachel	8	Panajachel	3	Marzo	2023-03-29T00:00:00	2024-11-08T23:00:00	5	Humedad	62
28081	7	Sololá	710	Panajachel	8	Panajachel	3	Marzo	2023-03-29T00:00:00	2024-11-08T23:00:00	6	Velocidad del viento	3.2
28082	7	Sololá	710	Panajachel	8	Panajachel	3	Marzo	2023-03-29T00:00:00	2024-11-08T23:00:00	7	Dirección del viento	3.22
28083	7	Sololá	710	Panajachel	8	Panajachel	3	Marzo	2023-03-29T00:00:00	2024-11-08T23:00:00	1	Precipitación	0
28084	7	Sololá	710	Panajachel	8	Panajachel	3	Marzo	2023-03-29T00:00:00	2024-11-08T23:00:00	8	Radiación solar	0
28085	7	Sololá	710	Panajachel	8	Panajachel	3	Marzo	2023-03-30T00:00:00	2024-11-08T00:00:00	2	Temperatura media	18
28086	7	Sololá	710	Panajachel	8	Panajachel	3	Marzo	2023-03-30T00:00:00	2024-11-08T00:00:00	4	Temperatura máxima	18.4
28087	7	Sololá	710	Panajachel	8	Panajachel	3	Marzo	2023-03-30T00:00:00	2024-11-08T00:00:00	3	Temperatura mínima	18
28088	7	Sololá	710	Panajachel	8	Panajachel	3	Marzo	2023-03-30T00:00:00	2024-11-08T00:00:00	5	Humedad	64
28089	7	Sololá	710	Panajachel	8	Panajachel	3	Marzo	2023-03-30T00:00:00	2024-11-08T00:00:00	6	Velocidad del viento	3.2
28090	7	Sololá	710	Panajachel	8	Panajachel	3	Marzo	2023-03-30T00:00:00	2024-11-08T00:00:00	7	Dirección del viento	3.22
28091	7	Sololá	710	Panajachel	8	Panajachel	3	Marzo	2023-03-30T00:00:00	2024-11-08T00:00:00	1	Precipitación	0
28092	7	Sololá	710	Panajachel	8	Panajachel	3	Marzo	2023-03-30T00:00:00	2024-11-08T00:00:00	8	Radiación solar	0
28093	7	Sololá	710	Panajachel	8	Panajachel	3	Marzo	2023-03-30T00:00:00	2024-11-08T01:00:00	2	Temperatura media	18.1
28094	7	Sololá	710	Panajachel	8	Panajachel	3	Marzo	2023-03-30T00:00:00	2024-11-08T01:00:00	4	Temperatura máxima	18.1
28095	7	Sololá	710	Panajachel	8	Panajachel	3	Marzo	2023-03-30T00:00:00	2024-11-08T01:00:00	3	Temperatura mínima	17.9
28096	7	Sololá	710	Panajachel	8	Panajachel	3	Marzo	2023-03-30T00:00:00	2024-11-08T01:00:00	5	Humedad	65
28097	7	Sololá	710	Panajachel	8	Panajachel	3	Marzo	2023-03-30T00:00:00	2024-11-08T01:00:00	6	Velocidad del viento	4.8
28098	7	Sololá	710	Panajachel	8	Panajachel	3	Marzo	2023-03-30T00:00:00	2024-11-08T01:00:00	7	Dirección del viento	4.83
28099	7	Sololá	710	Panajachel	8	Panajachel	3	Marzo	2023-03-30T00:00:00	2024-11-08T01:00:00	1	Precipitación	0
28100	7	Sololá	710	Panajachel	8	Panajachel	3	Marzo	2023-03-30T00:00:00	2024-11-08T01:00:00	8	Radiación solar	0
28101	7	Sololá	710	Panajachel	8	Panajachel	3	Marzo	2023-03-30T00:00:00	2024-11-08T02:00:00	2	Temperatura media	17.3
28102	7	Sololá	710	Panajachel	8	Panajachel	3	Marzo	2023-03-30T00:00:00	2024-11-08T02:00:00	4	Temperatura máxima	18.1
28103	7	Sololá	710	Panajachel	8	Panajachel	3	Marzo	2023-03-30T00:00:00	2024-11-08T02:00:00	3	Temperatura mínima	17.2
28104	7	Sololá	710	Panajachel	8	Panajachel	3	Marzo	2023-03-30T00:00:00	2024-11-08T02:00:00	5	Humedad	66
28105	7	Sololá	710	Panajachel	8	Panajachel	3	Marzo	2023-03-30T00:00:00	2024-11-08T02:00:00	6	Velocidad del viento	4.8
28106	7	Sololá	710	Panajachel	8	Panajachel	3	Marzo	2023-03-30T00:00:00	2024-11-08T02:00:00	7	Dirección del viento	4.83
28107	7	Sololá	710	Panajachel	8	Panajachel	3	Marzo	2023-03-30T00:00:00	2024-11-08T02:00:00	1	Precipitación	0
28108	7	Sololá	710	Panajachel	8	Panajachel	3	Marzo	2023-03-30T00:00:00	2024-11-08T02:00:00	8	Radiación solar	0
28109	7	Sololá	710	Panajachel	8	Panajachel	3	Marzo	2023-03-30T00:00:00	2024-11-08T03:00:00	2	Temperatura media	18.2
28110	7	Sololá	710	Panajachel	8	Panajachel	3	Marzo	2023-03-30T00:00:00	2024-11-08T03:00:00	4	Temperatura máxima	18.3
28111	7	Sololá	710	Panajachel	8	Panajachel	3	Marzo	2023-03-30T00:00:00	2024-11-08T03:00:00	3	Temperatura mínima	17.2
28112	7	Sololá	710	Panajachel	8	Panajachel	3	Marzo	2023-03-30T00:00:00	2024-11-08T03:00:00	5	Humedad	59
28113	7	Sololá	710	Panajachel	8	Panajachel	3	Marzo	2023-03-30T00:00:00	2024-11-08T03:00:00	6	Velocidad del viento	12.9
28114	7	Sololá	710	Panajachel	8	Panajachel	3	Marzo	2023-03-30T00:00:00	2024-11-08T03:00:00	7	Dirección del viento	12.87
28115	7	Sololá	710	Panajachel	8	Panajachel	3	Marzo	2023-03-30T00:00:00	2024-11-08T03:00:00	1	Precipitación	0
28116	7	Sololá	710	Panajachel	8	Panajachel	3	Marzo	2023-03-30T00:00:00	2024-11-08T03:00:00	8	Radiación solar	0
28117	7	Sololá	710	Panajachel	8	Panajachel	3	Marzo	2023-03-30T00:00:00	2024-11-08T04:00:00	2	Temperatura media	17.5
28118	7	Sololá	710	Panajachel	8	Panajachel	3	Marzo	2023-03-30T00:00:00	2024-11-08T04:00:00	4	Temperatura máxima	18.2
28119	7	Sololá	710	Panajachel	8	Panajachel	3	Marzo	2023-03-30T00:00:00	2024-11-08T04:00:00	3	Temperatura mínima	17.4
28120	7	Sololá	710	Panajachel	8	Panajachel	3	Marzo	2023-03-30T00:00:00	2024-11-08T04:00:00	5	Humedad	60
28121	7	Sololá	710	Panajachel	8	Panajachel	3	Marzo	2023-03-30T00:00:00	2024-11-08T04:00:00	6	Velocidad del viento	12.9
28122	7	Sololá	710	Panajachel	8	Panajachel	3	Marzo	2023-03-30T00:00:00	2024-11-08T04:00:00	7	Dirección del viento	12.87
28123	7	Sololá	710	Panajachel	8	Panajachel	3	Marzo	2023-03-30T00:00:00	2024-11-08T04:00:00	1	Precipitación	0
28124	7	Sololá	710	Panajachel	8	Panajachel	3	Marzo	2023-03-30T00:00:00	2024-11-08T04:00:00	8	Radiación solar	0
28125	7	Sololá	710	Panajachel	8	Panajachel	3	Marzo	2023-03-30T00:00:00	2024-11-08T05:00:00	2	Temperatura media	16.3
28126	7	Sololá	710	Panajachel	8	Panajachel	3	Marzo	2023-03-30T00:00:00	2024-11-08T05:00:00	4	Temperatura máxima	17.4
28127	7	Sololá	710	Panajachel	8	Panajachel	3	Marzo	2023-03-30T00:00:00	2024-11-08T05:00:00	3	Temperatura mínima	16.3
28128	7	Sololá	710	Panajachel	8	Panajachel	3	Marzo	2023-03-30T00:00:00	2024-11-08T05:00:00	5	Humedad	66
28129	7	Sololá	710	Panajachel	8	Panajachel	3	Marzo	2023-03-30T00:00:00	2024-11-08T05:00:00	6	Velocidad del viento	9.7
28130	7	Sololá	710	Panajachel	8	Panajachel	3	Marzo	2023-03-30T00:00:00	2024-11-08T05:00:00	7	Dirección del viento	9.66
28131	7	Sololá	710	Panajachel	8	Panajachel	3	Marzo	2023-03-30T00:00:00	2024-11-08T05:00:00	1	Precipitación	0
28132	7	Sololá	710	Panajachel	8	Panajachel	3	Marzo	2023-03-30T00:00:00	2024-11-08T05:00:00	8	Radiación solar	0
28133	7	Sololá	710	Panajachel	8	Panajachel	3	Marzo	2023-03-30T00:00:00	2024-11-08T06:00:00	2	Temperatura media	14.8
28134	7	Sololá	710	Panajachel	8	Panajachel	3	Marzo	2023-03-30T00:00:00	2024-11-08T06:00:00	4	Temperatura máxima	16.3
28135	7	Sololá	710	Panajachel	8	Panajachel	3	Marzo	2023-03-30T00:00:00	2024-11-08T06:00:00	3	Temperatura mínima	14.6
28136	7	Sololá	710	Panajachel	8	Panajachel	3	Marzo	2023-03-30T00:00:00	2024-11-08T06:00:00	5	Humedad	71
28137	7	Sololá	710	Panajachel	8	Panajachel	3	Marzo	2023-03-30T00:00:00	2024-11-08T06:00:00	6	Velocidad del viento	4.8
28138	7	Sololá	710	Panajachel	8	Panajachel	3	Marzo	2023-03-30T00:00:00	2024-11-08T06:00:00	7	Dirección del viento	4.83
28139	7	Sololá	710	Panajachel	8	Panajachel	3	Marzo	2023-03-30T00:00:00	2024-11-08T06:00:00	1	Precipitación	0
28140	7	Sololá	710	Panajachel	8	Panajachel	3	Marzo	2023-03-30T00:00:00	2024-11-08T06:00:00	8	Radiación solar	0
28141	7	Sololá	710	Panajachel	8	Panajachel	3	Marzo	2023-03-30T00:00:00	2024-11-08T07:00:00	2	Temperatura media	15.1
28142	7	Sololá	710	Panajachel	8	Panajachel	3	Marzo	2023-03-30T00:00:00	2024-11-08T07:00:00	4	Temperatura máxima	15.1
28143	7	Sololá	710	Panajachel	8	Panajachel	3	Marzo	2023-03-30T00:00:00	2024-11-08T07:00:00	3	Temperatura mínima	14.4
28144	7	Sololá	710	Panajachel	8	Panajachel	3	Marzo	2023-03-30T00:00:00	2024-11-08T07:00:00	5	Humedad	72
28145	7	Sololá	710	Panajachel	8	Panajachel	3	Marzo	2023-03-30T00:00:00	2024-11-08T07:00:00	6	Velocidad del viento	1.6
28146	7	Sololá	710	Panajachel	8	Panajachel	3	Marzo	2023-03-30T00:00:00	2024-11-08T07:00:00	7	Dirección del viento	1.61
28147	7	Sololá	710	Panajachel	8	Panajachel	3	Marzo	2023-03-30T00:00:00	2024-11-08T07:00:00	1	Precipitación	0
28148	7	Sololá	710	Panajachel	8	Panajachel	3	Marzo	2023-03-30T00:00:00	2024-11-08T07:00:00	8	Radiación solar	33
28149	7	Sololá	710	Panajachel	8	Panajachel	3	Marzo	2023-03-30T00:00:00	2024-11-08T08:00:00	2	Temperatura media	19.8
28150	7	Sololá	710	Panajachel	8	Panajachel	3	Marzo	2023-03-30T00:00:00	2024-11-08T08:00:00	4	Temperatura máxima	19.8
28151	7	Sololá	710	Panajachel	8	Panajachel	3	Marzo	2023-03-30T00:00:00	2024-11-08T08:00:00	3	Temperatura mínima	15.2
28152	7	Sololá	710	Panajachel	8	Panajachel	3	Marzo	2023-03-30T00:00:00	2024-11-08T08:00:00	5	Humedad	59
28153	7	Sololá	710	Panajachel	8	Panajachel	3	Marzo	2023-03-30T00:00:00	2024-11-08T08:00:00	6	Velocidad del viento	3.2
28154	7	Sololá	710	Panajachel	8	Panajachel	3	Marzo	2023-03-30T00:00:00	2024-11-08T08:00:00	7	Dirección del viento	3.22
28155	7	Sololá	710	Panajachel	8	Panajachel	3	Marzo	2023-03-30T00:00:00	2024-11-08T08:00:00	1	Precipitación	0
28156	7	Sololá	710	Panajachel	8	Panajachel	3	Marzo	2023-03-30T00:00:00	2024-11-08T08:00:00	8	Radiación solar	287
28157	7	Sololá	710	Panajachel	8	Panajachel	3	Marzo	2023-03-30T00:00:00	2024-11-08T09:00:00	2	Temperatura media	22.2
28158	7	Sololá	710	Panajachel	8	Panajachel	3	Marzo	2023-03-30T00:00:00	2024-11-08T09:00:00	4	Temperatura máxima	22.2
28159	7	Sololá	710	Panajachel	8	Panajachel	3	Marzo	2023-03-30T00:00:00	2024-11-08T09:00:00	3	Temperatura mínima	19.8
28160	7	Sololá	710	Panajachel	8	Panajachel	3	Marzo	2023-03-30T00:00:00	2024-11-08T09:00:00	5	Humedad	50
28161	7	Sololá	710	Panajachel	8	Panajachel	3	Marzo	2023-03-30T00:00:00	2024-11-08T09:00:00	6	Velocidad del viento	6.4
28162	7	Sololá	710	Panajachel	8	Panajachel	3	Marzo	2023-03-30T00:00:00	2024-11-08T09:00:00	7	Dirección del viento	6.44
28163	7	Sololá	710	Panajachel	8	Panajachel	3	Marzo	2023-03-30T00:00:00	2024-11-08T09:00:00	1	Precipitación	0
28164	7	Sololá	710	Panajachel	8	Panajachel	3	Marzo	2023-03-30T00:00:00	2024-11-08T09:00:00	8	Radiación solar	529
28165	7	Sololá	710	Panajachel	8	Panajachel	3	Marzo	2023-03-30T00:00:00	2024-11-08T10:00:00	2	Temperatura media	23.4
28166	7	Sololá	710	Panajachel	8	Panajachel	3	Marzo	2023-03-30T00:00:00	2024-11-08T10:00:00	4	Temperatura máxima	23.4
28167	7	Sololá	710	Panajachel	8	Panajachel	3	Marzo	2023-03-30T00:00:00	2024-11-08T10:00:00	3	Temperatura mínima	22.2
28168	7	Sololá	710	Panajachel	8	Panajachel	3	Marzo	2023-03-30T00:00:00	2024-11-08T10:00:00	5	Humedad	48
28169	7	Sololá	710	Panajachel	8	Panajachel	3	Marzo	2023-03-30T00:00:00	2024-11-08T10:00:00	6	Velocidad del viento	8
28170	7	Sololá	710	Panajachel	8	Panajachel	3	Marzo	2023-03-30T00:00:00	2024-11-08T10:00:00	7	Dirección del viento	8.05
28171	7	Sololá	710	Panajachel	8	Panajachel	3	Marzo	2023-03-30T00:00:00	2024-11-08T10:00:00	1	Precipitación	0
28172	7	Sololá	710	Panajachel	8	Panajachel	3	Marzo	2023-03-30T00:00:00	2024-11-08T10:00:00	8	Radiación solar	730
28173	7	Sololá	710	Panajachel	8	Panajachel	3	Marzo	2023-03-30T00:00:00	2024-11-08T11:00:00	2	Temperatura media	24.7
28174	7	Sololá	710	Panajachel	8	Panajachel	3	Marzo	2023-03-30T00:00:00	2024-11-08T11:00:00	4	Temperatura máxima	24.8
28175	7	Sololá	710	Panajachel	8	Panajachel	3	Marzo	2023-03-30T00:00:00	2024-11-08T11:00:00	3	Temperatura mínima	23.4
28176	7	Sololá	710	Panajachel	8	Panajachel	3	Marzo	2023-03-30T00:00:00	2024-11-08T11:00:00	5	Humedad	47
28177	7	Sololá	710	Panajachel	8	Panajachel	3	Marzo	2023-03-30T00:00:00	2024-11-08T11:00:00	6	Velocidad del viento	8
28178	7	Sololá	710	Panajachel	8	Panajachel	3	Marzo	2023-03-30T00:00:00	2024-11-08T11:00:00	7	Dirección del viento	8.05
28179	7	Sololá	710	Panajachel	8	Panajachel	3	Marzo	2023-03-30T00:00:00	2024-11-08T11:00:00	1	Precipitación	0
28180	7	Sololá	710	Panajachel	8	Panajachel	3	Marzo	2023-03-30T00:00:00	2024-11-08T11:00:00	8	Radiación solar	880
28181	7	Sololá	710	Panajachel	8	Panajachel	3	Marzo	2023-03-30T00:00:00	2024-11-08T12:00:00	2	Temperatura media	25.7
28182	7	Sololá	710	Panajachel	8	Panajachel	3	Marzo	2023-03-30T00:00:00	2024-11-08T12:00:00	4	Temperatura máxima	25.7
28183	7	Sololá	710	Panajachel	8	Panajachel	3	Marzo	2023-03-30T00:00:00	2024-11-08T12:00:00	3	Temperatura mínima	24.6
28184	7	Sololá	710	Panajachel	8	Panajachel	3	Marzo	2023-03-30T00:00:00	2024-11-08T12:00:00	5	Humedad	43
28185	7	Sololá	710	Panajachel	8	Panajachel	3	Marzo	2023-03-30T00:00:00	2024-11-08T12:00:00	6	Velocidad del viento	8
28186	7	Sololá	710	Panajachel	8	Panajachel	3	Marzo	2023-03-30T00:00:00	2024-11-08T12:00:00	7	Dirección del viento	8.05
28187	7	Sololá	710	Panajachel	8	Panajachel	3	Marzo	2023-03-30T00:00:00	2024-11-08T12:00:00	1	Precipitación	0
28188	7	Sololá	710	Panajachel	8	Panajachel	3	Marzo	2023-03-30T00:00:00	2024-11-08T12:00:00	8	Radiación solar	967
28189	7	Sololá	710	Panajachel	8	Panajachel	3	Marzo	2023-03-30T00:00:00	2024-11-08T13:00:00	2	Temperatura media	26.7
28190	7	Sololá	710	Panajachel	8	Panajachel	3	Marzo	2023-03-30T00:00:00	2024-11-08T13:00:00	4	Temperatura máxima	27
28191	7	Sololá	710	Panajachel	8	Panajachel	3	Marzo	2023-03-30T00:00:00	2024-11-08T13:00:00	3	Temperatura mínima	25.6
28192	7	Sololá	710	Panajachel	8	Panajachel	3	Marzo	2023-03-30T00:00:00	2024-11-08T13:00:00	5	Humedad	36
28193	7	Sololá	710	Panajachel	8	Panajachel	3	Marzo	2023-03-30T00:00:00	2024-11-08T13:00:00	6	Velocidad del viento	4.8
28194	7	Sololá	710	Panajachel	8	Panajachel	3	Marzo	2023-03-30T00:00:00	2024-11-08T13:00:00	7	Dirección del viento	4.83
28195	7	Sololá	710	Panajachel	8	Panajachel	3	Marzo	2023-03-30T00:00:00	2024-11-08T13:00:00	1	Precipitación	0
28196	7	Sololá	710	Panajachel	8	Panajachel	3	Marzo	2023-03-30T00:00:00	2024-11-08T13:00:00	8	Radiación solar	980
28197	7	Sololá	710	Panajachel	8	Panajachel	3	Marzo	2023-03-30T00:00:00	2024-11-08T14:00:00	2	Temperatura media	27.5
28198	7	Sololá	710	Panajachel	8	Panajachel	3	Marzo	2023-03-30T00:00:00	2024-11-08T14:00:00	4	Temperatura máxima	27.6
28199	7	Sololá	710	Panajachel	8	Panajachel	3	Marzo	2023-03-30T00:00:00	2024-11-08T14:00:00	3	Temperatura mínima	26.6
28200	7	Sololá	710	Panajachel	8	Panajachel	3	Marzo	2023-03-30T00:00:00	2024-11-08T14:00:00	5	Humedad	33
28201	7	Sololá	710	Panajachel	8	Panajachel	3	Marzo	2023-03-30T00:00:00	2024-11-08T14:00:00	6	Velocidad del viento	6.4
28202	7	Sololá	710	Panajachel	8	Panajachel	3	Marzo	2023-03-30T00:00:00	2024-11-08T14:00:00	7	Dirección del viento	6.44
28203	7	Sololá	710	Panajachel	8	Panajachel	3	Marzo	2023-03-30T00:00:00	2024-11-08T14:00:00	1	Precipitación	0
28204	7	Sololá	710	Panajachel	8	Panajachel	3	Marzo	2023-03-30T00:00:00	2024-11-08T14:00:00	8	Radiación solar	900
28205	7	Sololá	710	Panajachel	8	Panajachel	3	Marzo	2023-03-30T00:00:00	2024-11-08T15:00:00	2	Temperatura media	26.2
28206	7	Sololá	710	Panajachel	8	Panajachel	3	Marzo	2023-03-30T00:00:00	2024-11-08T15:00:00	4	Temperatura máxima	27.9
28207	7	Sololá	710	Panajachel	8	Panajachel	3	Marzo	2023-03-30T00:00:00	2024-11-08T15:00:00	3	Temperatura mínima	26.2
28208	7	Sololá	710	Panajachel	8	Panajachel	3	Marzo	2023-03-30T00:00:00	2024-11-08T15:00:00	5	Humedad	47
28209	7	Sololá	710	Panajachel	8	Panajachel	3	Marzo	2023-03-30T00:00:00	2024-11-08T15:00:00	6	Velocidad del viento	8
28210	7	Sololá	710	Panajachel	8	Panajachel	3	Marzo	2023-03-30T00:00:00	2024-11-08T15:00:00	7	Dirección del viento	8.05
28211	7	Sololá	710	Panajachel	8	Panajachel	3	Marzo	2023-03-30T00:00:00	2024-11-08T15:00:00	1	Precipitación	0
28212	7	Sololá	710	Panajachel	8	Panajachel	3	Marzo	2023-03-30T00:00:00	2024-11-08T15:00:00	8	Radiación solar	768
28213	7	Sololá	710	Panajachel	8	Panajachel	3	Marzo	2023-03-30T00:00:00	2024-11-08T16:00:00	2	Temperatura media	26
28214	7	Sololá	710	Panajachel	8	Panajachel	3	Marzo	2023-03-30T00:00:00	2024-11-08T16:00:00	4	Temperatura máxima	26.7
28215	7	Sololá	710	Panajachel	8	Panajachel	3	Marzo	2023-03-30T00:00:00	2024-11-08T16:00:00	3	Temperatura mínima	25.7
28216	7	Sololá	710	Panajachel	8	Panajachel	3	Marzo	2023-03-30T00:00:00	2024-11-08T16:00:00	5	Humedad	46
28217	7	Sololá	710	Panajachel	8	Panajachel	3	Marzo	2023-03-30T00:00:00	2024-11-08T16:00:00	6	Velocidad del viento	8
28218	7	Sololá	710	Panajachel	8	Panajachel	3	Marzo	2023-03-30T00:00:00	2024-11-08T16:00:00	7	Dirección del viento	8.05
28219	7	Sololá	710	Panajachel	8	Panajachel	3	Marzo	2023-03-30T00:00:00	2024-11-08T16:00:00	1	Precipitación	0
28220	7	Sololá	710	Panajachel	8	Panajachel	3	Marzo	2023-03-30T00:00:00	2024-11-08T16:00:00	8	Radiación solar	448
28221	7	Sololá	710	Panajachel	8	Panajachel	3	Marzo	2023-03-30T00:00:00	2024-11-08T17:00:00	2	Temperatura media	22.3
28222	7	Sololá	710	Panajachel	8	Panajachel	3	Marzo	2023-03-30T00:00:00	2024-11-08T17:00:00	4	Temperatura máxima	26
28223	7	Sololá	710	Panajachel	8	Panajachel	3	Marzo	2023-03-30T00:00:00	2024-11-08T17:00:00	3	Temperatura mínima	21.6
28224	7	Sololá	710	Panajachel	8	Panajachel	3	Marzo	2023-03-30T00:00:00	2024-11-08T17:00:00	5	Humedad	77
28225	7	Sololá	710	Panajachel	8	Panajachel	3	Marzo	2023-03-30T00:00:00	2024-11-08T17:00:00	6	Velocidad del viento	9.7
28226	7	Sololá	710	Panajachel	8	Panajachel	3	Marzo	2023-03-30T00:00:00	2024-11-08T17:00:00	7	Dirección del viento	9.66
28227	7	Sololá	710	Panajachel	8	Panajachel	3	Marzo	2023-03-30T00:00:00	2024-11-08T17:00:00	1	Precipitación	0
28228	7	Sololá	710	Panajachel	8	Panajachel	3	Marzo	2023-03-30T00:00:00	2024-11-08T17:00:00	8	Radiación solar	76
28229	7	Sololá	710	Panajachel	8	Panajachel	3	Marzo	2023-03-30T00:00:00	2024-11-08T18:00:00	2	Temperatura media	20.8
28230	7	Sololá	710	Panajachel	8	Panajachel	3	Marzo	2023-03-30T00:00:00	2024-11-08T18:00:00	4	Temperatura máxima	22.3
28231	7	Sololá	710	Panajachel	8	Panajachel	3	Marzo	2023-03-30T00:00:00	2024-11-08T18:00:00	3	Temperatura mínima	20.7
28232	7	Sololá	710	Panajachel	8	Panajachel	3	Marzo	2023-03-30T00:00:00	2024-11-08T18:00:00	5	Humedad	80
28233	7	Sololá	710	Panajachel	8	Panajachel	3	Marzo	2023-03-30T00:00:00	2024-11-08T18:00:00	6	Velocidad del viento	8
28234	7	Sololá	710	Panajachel	8	Panajachel	3	Marzo	2023-03-30T00:00:00	2024-11-08T18:00:00	7	Dirección del viento	8.05
28235	7	Sololá	710	Panajachel	8	Panajachel	3	Marzo	2023-03-30T00:00:00	2024-11-08T18:00:00	1	Precipitación	0
28236	7	Sololá	710	Panajachel	8	Panajachel	3	Marzo	2023-03-30T00:00:00	2024-11-08T18:00:00	8	Radiación solar	51
28237	7	Sololá	710	Panajachel	8	Panajachel	3	Marzo	2023-03-30T00:00:00	2024-11-08T19:00:00	2	Temperatura media	19.4
28238	7	Sololá	710	Panajachel	8	Panajachel	3	Marzo	2023-03-30T00:00:00	2024-11-08T19:00:00	4	Temperatura máxima	20.8
28239	7	Sololá	710	Panajachel	8	Panajachel	3	Marzo	2023-03-30T00:00:00	2024-11-08T19:00:00	3	Temperatura mínima	19.3
28240	7	Sololá	710	Panajachel	8	Panajachel	3	Marzo	2023-03-30T00:00:00	2024-11-08T19:00:00	5	Humedad	85
28241	7	Sololá	710	Panajachel	8	Panajachel	3	Marzo	2023-03-30T00:00:00	2024-11-08T19:00:00	6	Velocidad del viento	1.6
28242	7	Sololá	710	Panajachel	8	Panajachel	3	Marzo	2023-03-30T00:00:00	2024-11-08T19:00:00	7	Dirección del viento	1.61
28243	7	Sololá	710	Panajachel	8	Panajachel	3	Marzo	2023-03-30T00:00:00	2024-11-08T19:00:00	1	Precipitación	0
28244	7	Sololá	710	Panajachel	8	Panajachel	3	Marzo	2023-03-30T00:00:00	2024-11-08T19:00:00	8	Radiación solar	0
28245	7	Sololá	710	Panajachel	8	Panajachel	3	Marzo	2023-03-30T00:00:00	2024-11-08T20:00:00	2	Temperatura media	18.8
28246	7	Sololá	710	Panajachel	8	Panajachel	3	Marzo	2023-03-30T00:00:00	2024-11-08T20:00:00	4	Temperatura máxima	19.4
28247	7	Sololá	710	Panajachel	8	Panajachel	3	Marzo	2023-03-30T00:00:00	2024-11-08T20:00:00	3	Temperatura mínima	18.8
28248	7	Sololá	710	Panajachel	8	Panajachel	3	Marzo	2023-03-30T00:00:00	2024-11-08T20:00:00	5	Humedad	84
28249	7	Sololá	710	Panajachel	8	Panajachel	3	Marzo	2023-03-30T00:00:00	2024-11-08T20:00:00	6	Velocidad del viento	0
28250	7	Sololá	710	Panajachel	8	Panajachel	3	Marzo	2023-03-30T00:00:00	2024-11-08T20:00:00	7	Dirección del viento	0
28251	7	Sololá	710	Panajachel	8	Panajachel	3	Marzo	2023-03-30T00:00:00	2024-11-08T20:00:00	1	Precipitación	0
28252	7	Sololá	710	Panajachel	8	Panajachel	3	Marzo	2023-03-30T00:00:00	2024-11-08T20:00:00	8	Radiación solar	0
28253	7	Sololá	710	Panajachel	8	Panajachel	3	Marzo	2023-03-30T00:00:00	2024-11-08T21:00:00	2	Temperatura media	18.1
28254	7	Sololá	710	Panajachel	8	Panajachel	3	Marzo	2023-03-30T00:00:00	2024-11-08T21:00:00	4	Temperatura máxima	18.8
28255	7	Sololá	710	Panajachel	8	Panajachel	3	Marzo	2023-03-30T00:00:00	2024-11-08T21:00:00	3	Temperatura mínima	18.1
28256	7	Sololá	710	Panajachel	8	Panajachel	3	Marzo	2023-03-30T00:00:00	2024-11-08T21:00:00	5	Humedad	83
28257	7	Sololá	710	Panajachel	8	Panajachel	3	Marzo	2023-03-30T00:00:00	2024-11-08T21:00:00	6	Velocidad del viento	0
28258	7	Sololá	710	Panajachel	8	Panajachel	3	Marzo	2023-03-30T00:00:00	2024-11-08T21:00:00	7	Dirección del viento	0
28259	7	Sololá	710	Panajachel	8	Panajachel	3	Marzo	2023-03-30T00:00:00	2024-11-08T21:00:00	1	Precipitación	0
28260	7	Sololá	710	Panajachel	8	Panajachel	3	Marzo	2023-03-30T00:00:00	2024-11-08T21:00:00	8	Radiación solar	0
28261	7	Sololá	710	Panajachel	8	Panajachel	3	Marzo	2023-03-30T00:00:00	2024-11-08T22:00:00	2	Temperatura media	19.4
28262	7	Sololá	710	Panajachel	8	Panajachel	3	Marzo	2023-03-30T00:00:00	2024-11-08T22:00:00	4	Temperatura máxima	19.5
28263	7	Sololá	710	Panajachel	8	Panajachel	3	Marzo	2023-03-30T00:00:00	2024-11-08T22:00:00	3	Temperatura mínima	18
28264	7	Sololá	710	Panajachel	8	Panajachel	3	Marzo	2023-03-30T00:00:00	2024-11-08T22:00:00	5	Humedad	69
28265	7	Sololá	710	Panajachel	8	Panajachel	3	Marzo	2023-03-30T00:00:00	2024-11-08T22:00:00	6	Velocidad del viento	3.2
28266	7	Sololá	710	Panajachel	8	Panajachel	3	Marzo	2023-03-30T00:00:00	2024-11-08T22:00:00	7	Dirección del viento	3.22
28267	7	Sololá	710	Panajachel	8	Panajachel	3	Marzo	2023-03-30T00:00:00	2024-11-08T22:00:00	1	Precipitación	0
28268	7	Sololá	710	Panajachel	8	Panajachel	3	Marzo	2023-03-30T00:00:00	2024-11-08T22:00:00	8	Radiación solar	0
28269	7	Sololá	710	Panajachel	8	Panajachel	3	Marzo	2023-03-30T00:00:00	2024-11-08T23:00:00	2	Temperatura media	19.1
28270	7	Sololá	710	Panajachel	8	Panajachel	3	Marzo	2023-03-30T00:00:00	2024-11-08T23:00:00	4	Temperatura máxima	19.7
28271	7	Sololá	710	Panajachel	8	Panajachel	3	Marzo	2023-03-30T00:00:00	2024-11-08T23:00:00	3	Temperatura mínima	19.1
28272	7	Sololá	710	Panajachel	8	Panajachel	3	Marzo	2023-03-30T00:00:00	2024-11-08T23:00:00	5	Humedad	68
28273	7	Sololá	710	Panajachel	8	Panajachel	3	Marzo	2023-03-30T00:00:00	2024-11-08T23:00:00	6	Velocidad del viento	6.4
28274	7	Sololá	710	Panajachel	8	Panajachel	3	Marzo	2023-03-30T00:00:00	2024-11-08T23:00:00	7	Dirección del viento	6.44
28275	7	Sololá	710	Panajachel	8	Panajachel	3	Marzo	2023-03-30T00:00:00	2024-11-08T23:00:00	1	Precipitación	0
28276	7	Sololá	710	Panajachel	8	Panajachel	3	Marzo	2023-03-30T00:00:00	2024-11-08T23:00:00	8	Radiación solar	0
28277	7	Sololá	710	Panajachel	8	Panajachel	3	Marzo	2023-03-31T00:00:00	2024-11-08T00:00:00	2	Temperatura media	18.2
28278	7	Sololá	710	Panajachel	8	Panajachel	3	Marzo	2023-03-31T00:00:00	2024-11-08T00:00:00	4	Temperatura máxima	19.2
28279	7	Sololá	710	Panajachel	8	Panajachel	3	Marzo	2023-03-31T00:00:00	2024-11-08T00:00:00	3	Temperatura mínima	18.1
28280	7	Sololá	710	Panajachel	8	Panajachel	3	Marzo	2023-03-31T00:00:00	2024-11-08T00:00:00	5	Humedad	69
28281	7	Sololá	710	Panajachel	8	Panajachel	3	Marzo	2023-03-31T00:00:00	2024-11-08T00:00:00	6	Velocidad del viento	3.2
28282	7	Sololá	710	Panajachel	8	Panajachel	3	Marzo	2023-03-31T00:00:00	2024-11-08T00:00:00	7	Dirección del viento	3.22
28283	7	Sololá	710	Panajachel	8	Panajachel	3	Marzo	2023-03-31T00:00:00	2024-11-08T00:00:00	1	Precipitación	0
28284	7	Sololá	710	Panajachel	8	Panajachel	3	Marzo	2023-03-31T00:00:00	2024-11-08T00:00:00	8	Radiación solar	0
28285	7	Sololá	710	Panajachel	8	Panajachel	3	Marzo	2023-03-31T00:00:00	2024-11-08T01:00:00	2	Temperatura media	19.2
28286	7	Sololá	710	Panajachel	8	Panajachel	3	Marzo	2023-03-31T00:00:00	2024-11-08T01:00:00	4	Temperatura máxima	19.4
28287	7	Sololá	710	Panajachel	8	Panajachel	3	Marzo	2023-03-31T00:00:00	2024-11-08T01:00:00	3	Temperatura mínima	18.2
28288	7	Sololá	710	Panajachel	8	Panajachel	3	Marzo	2023-03-31T00:00:00	2024-11-08T01:00:00	5	Humedad	60
28289	7	Sololá	710	Panajachel	8	Panajachel	3	Marzo	2023-03-31T00:00:00	2024-11-08T01:00:00	6	Velocidad del viento	11.3
28290	7	Sololá	710	Panajachel	8	Panajachel	3	Marzo	2023-03-31T00:00:00	2024-11-08T01:00:00	7	Dirección del viento	11.27
28291	7	Sololá	710	Panajachel	8	Panajachel	3	Marzo	2023-03-31T00:00:00	2024-11-08T01:00:00	1	Precipitación	0
28292	7	Sololá	710	Panajachel	8	Panajachel	3	Marzo	2023-03-31T00:00:00	2024-11-08T01:00:00	8	Radiación solar	0
28293	7	Sololá	710	Panajachel	8	Panajachel	3	Marzo	2023-03-31T00:00:00	2024-11-08T02:00:00	2	Temperatura media	18.2
28294	7	Sololá	710	Panajachel	8	Panajachel	3	Marzo	2023-03-31T00:00:00	2024-11-08T02:00:00	4	Temperatura máxima	19.2
28295	7	Sololá	710	Panajachel	8	Panajachel	3	Marzo	2023-03-31T00:00:00	2024-11-08T02:00:00	3	Temperatura mínima	18.2
28296	7	Sololá	710	Panajachel	8	Panajachel	3	Marzo	2023-03-31T00:00:00	2024-11-08T02:00:00	5	Humedad	65
28297	7	Sololá	710	Panajachel	8	Panajachel	3	Marzo	2023-03-31T00:00:00	2024-11-08T02:00:00	6	Velocidad del viento	4.8
28298	7	Sololá	710	Panajachel	8	Panajachel	3	Marzo	2023-03-31T00:00:00	2024-11-08T02:00:00	7	Dirección del viento	4.83
28299	7	Sololá	710	Panajachel	8	Panajachel	3	Marzo	2023-03-31T00:00:00	2024-11-08T02:00:00	1	Precipitación	0
28300	7	Sololá	710	Panajachel	8	Panajachel	3	Marzo	2023-03-31T00:00:00	2024-11-08T02:00:00	8	Radiación solar	0
28301	7	Sololá	710	Panajachel	8	Panajachel	3	Marzo	2023-03-31T00:00:00	2024-11-08T03:00:00	2	Temperatura media	18.3
28302	7	Sololá	710	Panajachel	8	Panajachel	3	Marzo	2023-03-31T00:00:00	2024-11-08T03:00:00	4	Temperatura máxima	18.4
28303	7	Sololá	710	Panajachel	8	Panajachel	3	Marzo	2023-03-31T00:00:00	2024-11-08T03:00:00	3	Temperatura mínima	17.9
28304	7	Sololá	710	Panajachel	8	Panajachel	3	Marzo	2023-03-31T00:00:00	2024-11-08T03:00:00	5	Humedad	64
28305	7	Sololá	710	Panajachel	8	Panajachel	3	Marzo	2023-03-31T00:00:00	2024-11-08T03:00:00	6	Velocidad del viento	4.8
28306	7	Sololá	710	Panajachel	8	Panajachel	3	Marzo	2023-03-31T00:00:00	2024-11-08T03:00:00	7	Dirección del viento	4.83
28307	7	Sololá	710	Panajachel	8	Panajachel	3	Marzo	2023-03-31T00:00:00	2024-11-08T03:00:00	1	Precipitación	0
28308	7	Sololá	710	Panajachel	8	Panajachel	3	Marzo	2023-03-31T00:00:00	2024-11-08T03:00:00	8	Radiación solar	0
28309	7	Sololá	710	Panajachel	8	Panajachel	3	Marzo	2023-03-31T00:00:00	2024-11-08T04:00:00	2	Temperatura media	16.8
28310	7	Sololá	710	Panajachel	8	Panajachel	3	Marzo	2023-03-31T00:00:00	2024-11-08T04:00:00	4	Temperatura máxima	18.4
28311	7	Sololá	710	Panajachel	8	Panajachel	3	Marzo	2023-03-31T00:00:00	2024-11-08T04:00:00	3	Temperatura mínima	16.8
28312	7	Sololá	710	Panajachel	8	Panajachel	3	Marzo	2023-03-31T00:00:00	2024-11-08T04:00:00	5	Humedad	70
28313	7	Sololá	710	Panajachel	8	Panajachel	3	Marzo	2023-03-31T00:00:00	2024-11-08T04:00:00	6	Velocidad del viento	4.8
28314	7	Sololá	710	Panajachel	8	Panajachel	3	Marzo	2023-03-31T00:00:00	2024-11-08T04:00:00	7	Dirección del viento	4.83
28315	7	Sololá	710	Panajachel	8	Panajachel	3	Marzo	2023-03-31T00:00:00	2024-11-08T04:00:00	1	Precipitación	0
28316	7	Sololá	710	Panajachel	8	Panajachel	3	Marzo	2023-03-31T00:00:00	2024-11-08T04:00:00	8	Radiación solar	0
28317	7	Sololá	710	Panajachel	8	Panajachel	3	Marzo	2023-03-31T00:00:00	2024-11-08T05:00:00	2	Temperatura media	17
28318	7	Sololá	710	Panajachel	8	Panajachel	3	Marzo	2023-03-31T00:00:00	2024-11-08T05:00:00	4	Temperatura máxima	17.1
28319	7	Sololá	710	Panajachel	8	Panajachel	3	Marzo	2023-03-31T00:00:00	2024-11-08T05:00:00	3	Temperatura mínima	16.3
28320	7	Sololá	710	Panajachel	8	Panajachel	3	Marzo	2023-03-31T00:00:00	2024-11-08T05:00:00	5	Humedad	70
28321	7	Sololá	710	Panajachel	8	Panajachel	3	Marzo	2023-03-31T00:00:00	2024-11-08T05:00:00	6	Velocidad del viento	1.6
28322	7	Sololá	710	Panajachel	8	Panajachel	3	Marzo	2023-03-31T00:00:00	2024-11-08T05:00:00	7	Dirección del viento	1.61
28323	7	Sololá	710	Panajachel	8	Panajachel	3	Marzo	2023-03-31T00:00:00	2024-11-08T05:00:00	1	Precipitación	0
28324	7	Sololá	710	Panajachel	8	Panajachel	3	Marzo	2023-03-31T00:00:00	2024-11-08T05:00:00	8	Radiación solar	0
28325	7	Sololá	710	Panajachel	8	Panajachel	3	Marzo	2023-03-31T00:00:00	2024-11-08T06:00:00	2	Temperatura media	17.9
28326	7	Sololá	710	Panajachel	8	Panajachel	3	Marzo	2023-03-31T00:00:00	2024-11-08T06:00:00	4	Temperatura máxima	17.9
28327	7	Sololá	710	Panajachel	8	Panajachel	3	Marzo	2023-03-31T00:00:00	2024-11-08T06:00:00	3	Temperatura mínima	16.8
28328	7	Sololá	710	Panajachel	8	Panajachel	3	Marzo	2023-03-31T00:00:00	2024-11-08T06:00:00	5	Humedad	68
28329	7	Sololá	710	Panajachel	8	Panajachel	3	Marzo	2023-03-31T00:00:00	2024-11-08T06:00:00	6	Velocidad del viento	3.2
28330	7	Sololá	710	Panajachel	8	Panajachel	3	Marzo	2023-03-31T00:00:00	2024-11-08T06:00:00	7	Dirección del viento	3.22
28331	7	Sololá	710	Panajachel	8	Panajachel	3	Marzo	2023-03-31T00:00:00	2024-11-08T06:00:00	1	Precipitación	0
28332	7	Sololá	710	Panajachel	8	Panajachel	3	Marzo	2023-03-31T00:00:00	2024-11-08T06:00:00	8	Radiación solar	0
28333	7	Sololá	710	Panajachel	8	Panajachel	3	Marzo	2023-03-31T00:00:00	2024-11-08T07:00:00	2	Temperatura media	17.3
28334	7	Sololá	710	Panajachel	8	Panajachel	3	Marzo	2023-03-31T00:00:00	2024-11-08T07:00:00	4	Temperatura máxima	17.9
28335	7	Sololá	710	Panajachel	8	Panajachel	3	Marzo	2023-03-31T00:00:00	2024-11-08T07:00:00	3	Temperatura mínima	17.2
28336	7	Sololá	710	Panajachel	8	Panajachel	3	Marzo	2023-03-31T00:00:00	2024-11-08T07:00:00	5	Humedad	71
28337	7	Sololá	710	Panajachel	8	Panajachel	3	Marzo	2023-03-31T00:00:00	2024-11-08T07:00:00	6	Velocidad del viento	6.4
28338	7	Sololá	710	Panajachel	8	Panajachel	3	Marzo	2023-03-31T00:00:00	2024-11-08T07:00:00	7	Dirección del viento	6.44
28339	7	Sololá	710	Panajachel	8	Panajachel	3	Marzo	2023-03-31T00:00:00	2024-11-08T07:00:00	1	Precipitación	0
28340	7	Sololá	710	Panajachel	8	Panajachel	3	Marzo	2023-03-31T00:00:00	2024-11-08T07:00:00	8	Radiación solar	31
28341	7	Sololá	710	Panajachel	8	Panajachel	3	Marzo	2023-03-31T00:00:00	2024-11-08T08:00:00	2	Temperatura media	20.8
28342	7	Sololá	710	Panajachel	8	Panajachel	3	Marzo	2023-03-31T00:00:00	2024-11-08T08:00:00	4	Temperatura máxima	20.9
28343	7	Sololá	710	Panajachel	8	Panajachel	3	Marzo	2023-03-31T00:00:00	2024-11-08T08:00:00	3	Temperatura mínima	17.3
28344	7	Sololá	710	Panajachel	8	Panajachel	3	Marzo	2023-03-31T00:00:00	2024-11-08T08:00:00	5	Humedad	61
28345	7	Sololá	710	Panajachel	8	Panajachel	3	Marzo	2023-03-31T00:00:00	2024-11-08T08:00:00	6	Velocidad del viento	3.2
28346	7	Sololá	710	Panajachel	8	Panajachel	3	Marzo	2023-03-31T00:00:00	2024-11-08T08:00:00	7	Dirección del viento	3.22
28347	7	Sololá	710	Panajachel	8	Panajachel	3	Marzo	2023-03-31T00:00:00	2024-11-08T08:00:00	1	Precipitación	0
28348	7	Sololá	710	Panajachel	8	Panajachel	3	Marzo	2023-03-31T00:00:00	2024-11-08T08:00:00	8	Radiación solar	292
28349	7	Sololá	710	Panajachel	8	Panajachel	3	Marzo	2023-03-31T00:00:00	2024-11-08T09:00:00	2	Temperatura media	22.3
28350	7	Sololá	710	Panajachel	8	Panajachel	3	Marzo	2023-03-31T00:00:00	2024-11-08T09:00:00	4	Temperatura máxima	22.3
28351	7	Sololá	710	Panajachel	8	Panajachel	3	Marzo	2023-03-31T00:00:00	2024-11-08T09:00:00	3	Temperatura mínima	20.8
28352	7	Sololá	710	Panajachel	8	Panajachel	3	Marzo	2023-03-31T00:00:00	2024-11-08T09:00:00	5	Humedad	59
28353	7	Sololá	710	Panajachel	8	Panajachel	3	Marzo	2023-03-31T00:00:00	2024-11-08T09:00:00	6	Velocidad del viento	3.2
28354	7	Sololá	710	Panajachel	8	Panajachel	3	Marzo	2023-03-31T00:00:00	2024-11-08T09:00:00	7	Dirección del viento	3.22
28355	7	Sololá	710	Panajachel	8	Panajachel	3	Marzo	2023-03-31T00:00:00	2024-11-08T09:00:00	1	Precipitación	0
28356	7	Sololá	710	Panajachel	8	Panajachel	3	Marzo	2023-03-31T00:00:00	2024-11-08T09:00:00	8	Radiación solar	505
28357	7	Sololá	710	Panajachel	8	Panajachel	3	Marzo	2023-03-31T00:00:00	2024-11-08T10:00:00	2	Temperatura media	22.7
28358	7	Sololá	710	Panajachel	8	Panajachel	3	Marzo	2023-03-31T00:00:00	2024-11-08T10:00:00	4	Temperatura máxima	22.7
28359	7	Sololá	710	Panajachel	8	Panajachel	3	Marzo	2023-03-31T00:00:00	2024-11-08T10:00:00	3	Temperatura mínima	21.9
28360	7	Sololá	710	Panajachel	8	Panajachel	3	Marzo	2023-03-31T00:00:00	2024-11-08T10:00:00	5	Humedad	59
28361	7	Sololá	710	Panajachel	8	Panajachel	3	Marzo	2023-03-31T00:00:00	2024-11-08T10:00:00	6	Velocidad del viento	4.8
28362	7	Sololá	710	Panajachel	8	Panajachel	3	Marzo	2023-03-31T00:00:00	2024-11-08T10:00:00	7	Dirección del viento	4.83
28363	7	Sololá	710	Panajachel	8	Panajachel	3	Marzo	2023-03-31T00:00:00	2024-11-08T10:00:00	1	Precipitación	0
28364	7	Sololá	710	Panajachel	8	Panajachel	3	Marzo	2023-03-31T00:00:00	2024-11-08T10:00:00	8	Radiación solar	732
28365	7	Sololá	710	Panajachel	8	Panajachel	3	Marzo	2023-03-31T00:00:00	2024-11-08T11:00:00	2	Temperatura media	25.1
28366	7	Sololá	710	Panajachel	8	Panajachel	3	Marzo	2023-03-31T00:00:00	2024-11-08T11:00:00	4	Temperatura máxima	25.1
28367	7	Sololá	710	Panajachel	8	Panajachel	3	Marzo	2023-03-31T00:00:00	2024-11-08T11:00:00	3	Temperatura mínima	22.7
28368	7	Sololá	710	Panajachel	8	Panajachel	3	Marzo	2023-03-31T00:00:00	2024-11-08T11:00:00	5	Humedad	54
28369	7	Sololá	710	Panajachel	8	Panajachel	3	Marzo	2023-03-31T00:00:00	2024-11-08T11:00:00	6	Velocidad del viento	3.2
28370	7	Sololá	710	Panajachel	8	Panajachel	3	Marzo	2023-03-31T00:00:00	2024-11-08T11:00:00	7	Dirección del viento	3.22
28371	7	Sololá	710	Panajachel	8	Panajachel	3	Marzo	2023-03-31T00:00:00	2024-11-08T11:00:00	1	Precipitación	0
28372	7	Sololá	710	Panajachel	8	Panajachel	3	Marzo	2023-03-31T00:00:00	2024-11-08T11:00:00	8	Radiación solar	875
28373	7	Sololá	710	Panajachel	8	Panajachel	3	Marzo	2023-03-31T00:00:00	2024-11-08T12:00:00	2	Temperatura media	25.1
28374	7	Sololá	710	Panajachel	8	Panajachel	3	Marzo	2023-03-31T00:00:00	2024-11-08T12:00:00	4	Temperatura máxima	25.7
28375	7	Sololá	710	Panajachel	8	Panajachel	3	Marzo	2023-03-31T00:00:00	2024-11-08T12:00:00	3	Temperatura mínima	23.7
28376	7	Sololá	710	Panajachel	8	Panajachel	3	Marzo	2023-03-31T00:00:00	2024-11-08T12:00:00	5	Humedad	64
28377	7	Sololá	710	Panajachel	8	Panajachel	3	Marzo	2023-03-31T00:00:00	2024-11-08T12:00:00	6	Velocidad del viento	3.2
28378	7	Sololá	710	Panajachel	8	Panajachel	3	Marzo	2023-03-31T00:00:00	2024-11-08T12:00:00	7	Dirección del viento	3.22
28379	7	Sololá	710	Panajachel	8	Panajachel	3	Marzo	2023-03-31T00:00:00	2024-11-08T12:00:00	1	Precipitación	0
28380	7	Sololá	710	Panajachel	8	Panajachel	3	Marzo	2023-03-31T00:00:00	2024-11-08T12:00:00	8	Radiación solar	946
28381	7	Sololá	710	Panajachel	8	Panajachel	3	Marzo	2023-03-31T00:00:00	2024-11-08T13:00:00	2	Temperatura media	24.3
28382	7	Sololá	710	Panajachel	8	Panajachel	3	Marzo	2023-03-31T00:00:00	2024-11-08T13:00:00	4	Temperatura máxima	25.2
28383	7	Sololá	710	Panajachel	8	Panajachel	3	Marzo	2023-03-31T00:00:00	2024-11-08T13:00:00	3	Temperatura mínima	23.7
28384	7	Sololá	710	Panajachel	8	Panajachel	3	Marzo	2023-03-31T00:00:00	2024-11-08T13:00:00	5	Humedad	70
28385	7	Sololá	710	Panajachel	8	Panajachel	3	Marzo	2023-03-31T00:00:00	2024-11-08T13:00:00	6	Velocidad del viento	6.4
28386	7	Sololá	710	Panajachel	8	Panajachel	3	Marzo	2023-03-31T00:00:00	2024-11-08T13:00:00	7	Dirección del viento	6.44
28387	7	Sololá	710	Panajachel	8	Panajachel	3	Marzo	2023-03-31T00:00:00	2024-11-08T13:00:00	1	Precipitación	0
28388	7	Sololá	710	Panajachel	8	Panajachel	3	Marzo	2023-03-31T00:00:00	2024-11-08T13:00:00	8	Radiación solar	943
28389	7	Sololá	710	Panajachel	8	Panajachel	3	Marzo	2023-03-31T00:00:00	2024-11-08T14:00:00	2	Temperatura media	22.8
28390	7	Sololá	710	Panajachel	8	Panajachel	3	Marzo	2023-03-31T00:00:00	2024-11-08T14:00:00	4	Temperatura máxima	24.3
28391	7	Sololá	710	Panajachel	8	Panajachel	3	Marzo	2023-03-31T00:00:00	2024-11-08T14:00:00	3	Temperatura mínima	22.6
28392	7	Sololá	710	Panajachel	8	Panajachel	3	Marzo	2023-03-31T00:00:00	2024-11-08T14:00:00	5	Humedad	78
28393	7	Sololá	710	Panajachel	8	Panajachel	3	Marzo	2023-03-31T00:00:00	2024-11-08T14:00:00	6	Velocidad del viento	8
28394	7	Sololá	710	Panajachel	8	Panajachel	3	Marzo	2023-03-31T00:00:00	2024-11-08T14:00:00	7	Dirección del viento	8.05
28395	7	Sololá	710	Panajachel	8	Panajachel	3	Marzo	2023-03-31T00:00:00	2024-11-08T14:00:00	1	Precipitación	0
28396	7	Sololá	710	Panajachel	8	Panajachel	3	Marzo	2023-03-31T00:00:00	2024-11-08T14:00:00	8	Radiación solar	875
28397	7	Sololá	710	Panajachel	8	Panajachel	3	Marzo	2023-03-31T00:00:00	2024-11-08T15:00:00	2	Temperatura media	22.9
28398	7	Sololá	710	Panajachel	8	Panajachel	3	Marzo	2023-03-31T00:00:00	2024-11-08T15:00:00	4	Temperatura máxima	23.7
28399	7	Sololá	710	Panajachel	8	Panajachel	3	Marzo	2023-03-31T00:00:00	2024-11-08T15:00:00	3	Temperatura mínima	22.3
28400	7	Sololá	710	Panajachel	8	Panajachel	3	Marzo	2023-03-31T00:00:00	2024-11-08T15:00:00	5	Humedad	76
28401	7	Sololá	710	Panajachel	8	Panajachel	3	Marzo	2023-03-31T00:00:00	2024-11-08T15:00:00	6	Velocidad del viento	8
28402	7	Sololá	710	Panajachel	8	Panajachel	3	Marzo	2023-03-31T00:00:00	2024-11-08T15:00:00	7	Dirección del viento	8.05
28403	7	Sololá	710	Panajachel	8	Panajachel	3	Marzo	2023-03-31T00:00:00	2024-11-08T15:00:00	1	Precipitación	0
28404	7	Sololá	710	Panajachel	8	Panajachel	3	Marzo	2023-03-31T00:00:00	2024-11-08T15:00:00	8	Radiación solar	607
28405	7	Sololá	710	Panajachel	8	Panajachel	3	Marzo	2023-03-31T00:00:00	2024-11-08T16:00:00	2	Temperatura media	21.8
28406	7	Sololá	710	Panajachel	8	Panajachel	3	Marzo	2023-03-31T00:00:00	2024-11-08T16:00:00	4	Temperatura máxima	23.2
28407	7	Sololá	710	Panajachel	8	Panajachel	3	Marzo	2023-03-31T00:00:00	2024-11-08T16:00:00	3	Temperatura mínima	21.7
28408	7	Sololá	710	Panajachel	8	Panajachel	3	Marzo	2023-03-31T00:00:00	2024-11-08T16:00:00	5	Humedad	80
28409	7	Sololá	710	Panajachel	8	Panajachel	3	Marzo	2023-03-31T00:00:00	2024-11-08T16:00:00	6	Velocidad del viento	4.8
28410	7	Sololá	710	Panajachel	8	Panajachel	3	Marzo	2023-03-31T00:00:00	2024-11-08T16:00:00	7	Dirección del viento	4.83
28411	7	Sololá	710	Panajachel	8	Panajachel	3	Marzo	2023-03-31T00:00:00	2024-11-08T16:00:00	1	Precipitación	0
28412	7	Sololá	710	Panajachel	8	Panajachel	3	Marzo	2023-03-31T00:00:00	2024-11-08T16:00:00	8	Radiación solar	224
28413	7	Sololá	710	Panajachel	8	Panajachel	3	Marzo	2023-03-31T00:00:00	2024-11-08T17:00:00	2	Temperatura media	22.2
28414	7	Sololá	710	Panajachel	8	Panajachel	3	Marzo	2023-03-31T00:00:00	2024-11-08T17:00:00	4	Temperatura máxima	22.6
28415	7	Sololá	710	Panajachel	8	Panajachel	3	Marzo	2023-03-31T00:00:00	2024-11-08T17:00:00	3	Temperatura mínima	21.8
28416	7	Sololá	710	Panajachel	8	Panajachel	3	Marzo	2023-03-31T00:00:00	2024-11-08T17:00:00	5	Humedad	79
28417	7	Sololá	710	Panajachel	8	Panajachel	3	Marzo	2023-03-31T00:00:00	2024-11-08T17:00:00	6	Velocidad del viento	1.6
28418	7	Sololá	710	Panajachel	8	Panajachel	3	Marzo	2023-03-31T00:00:00	2024-11-08T17:00:00	7	Dirección del viento	1.61
28419	7	Sololá	710	Panajachel	8	Panajachel	3	Marzo	2023-03-31T00:00:00	2024-11-08T17:00:00	1	Precipitación	0
28420	7	Sololá	710	Panajachel	8	Panajachel	3	Marzo	2023-03-31T00:00:00	2024-11-08T17:00:00	8	Radiación solar	140
28421	7	Sololá	710	Panajachel	8	Panajachel	3	Marzo	2023-03-31T00:00:00	2024-11-08T18:00:00	2	Temperatura media	20.9
28422	7	Sololá	710	Panajachel	8	Panajachel	3	Marzo	2023-03-31T00:00:00	2024-11-08T18:00:00	4	Temperatura máxima	22.2
28423	7	Sololá	710	Panajachel	8	Panajachel	3	Marzo	2023-03-31T00:00:00	2024-11-08T18:00:00	3	Temperatura mínima	20.9
28424	7	Sololá	710	Panajachel	8	Panajachel	3	Marzo	2023-03-31T00:00:00	2024-11-08T18:00:00	5	Humedad	85
28425	7	Sololá	710	Panajachel	8	Panajachel	3	Marzo	2023-03-31T00:00:00	2024-11-08T18:00:00	6	Velocidad del viento	1.6
28426	7	Sololá	710	Panajachel	8	Panajachel	3	Marzo	2023-03-31T00:00:00	2024-11-08T18:00:00	7	Dirección del viento	1.61
28427	7	Sololá	710	Panajachel	8	Panajachel	3	Marzo	2023-03-31T00:00:00	2024-11-08T18:00:00	1	Precipitación	0
28428	7	Sololá	710	Panajachel	8	Panajachel	3	Marzo	2023-03-31T00:00:00	2024-11-08T18:00:00	8	Radiación solar	71
28429	7	Sololá	710	Panajachel	8	Panajachel	3	Marzo	2023-03-31T00:00:00	2024-11-08T19:00:00	2	Temperatura media	19.9
28430	7	Sololá	710	Panajachel	8	Panajachel	3	Marzo	2023-03-31T00:00:00	2024-11-08T19:00:00	4	Temperatura máxima	20.9
28431	7	Sololá	710	Panajachel	8	Panajachel	3	Marzo	2023-03-31T00:00:00	2024-11-08T19:00:00	3	Temperatura mínima	19.9
28432	7	Sololá	710	Panajachel	8	Panajachel	3	Marzo	2023-03-31T00:00:00	2024-11-08T19:00:00	5	Humedad	89
28433	7	Sololá	710	Panajachel	8	Panajachel	3	Marzo	2023-03-31T00:00:00	2024-11-08T19:00:00	6	Velocidad del viento	0
28434	7	Sololá	710	Panajachel	8	Panajachel	3	Marzo	2023-03-31T00:00:00	2024-11-08T19:00:00	7	Dirección del viento	0
28435	7	Sololá	710	Panajachel	8	Panajachel	3	Marzo	2023-03-31T00:00:00	2024-11-08T19:00:00	1	Precipitación	0
28436	7	Sololá	710	Panajachel	8	Panajachel	3	Marzo	2023-03-31T00:00:00	2024-11-08T19:00:00	8	Radiación solar	0
28437	7	Sololá	710	Panajachel	8	Panajachel	3	Marzo	2023-03-31T00:00:00	2024-11-08T20:00:00	2	Temperatura media	19.8
28438	7	Sololá	710	Panajachel	8	Panajachel	3	Marzo	2023-03-31T00:00:00	2024-11-08T20:00:00	4	Temperatura máxima	19.9
28439	7	Sololá	710	Panajachel	8	Panajachel	3	Marzo	2023-03-31T00:00:00	2024-11-08T20:00:00	3	Temperatura mínima	19.8
28440	7	Sololá	710	Panajachel	8	Panajachel	3	Marzo	2023-03-31T00:00:00	2024-11-08T20:00:00	5	Humedad	88
28441	7	Sololá	710	Panajachel	8	Panajachel	3	Marzo	2023-03-31T00:00:00	2024-11-08T20:00:00	6	Velocidad del viento	0
28442	7	Sololá	710	Panajachel	8	Panajachel	3	Marzo	2023-03-31T00:00:00	2024-11-08T20:00:00	7	Dirección del viento	0
28443	7	Sololá	710	Panajachel	8	Panajachel	3	Marzo	2023-03-31T00:00:00	2024-11-08T20:00:00	1	Precipitación	0
28444	7	Sololá	710	Panajachel	8	Panajachel	3	Marzo	2023-03-31T00:00:00	2024-11-08T20:00:00	8	Radiación solar	0
28445	7	Sololá	710	Panajachel	8	Panajachel	3	Marzo	2023-03-31T00:00:00	2024-11-08T21:00:00	2	Temperatura media	18.4
28446	7	Sololá	710	Panajachel	8	Panajachel	3	Marzo	2023-03-31T00:00:00	2024-11-08T21:00:00	4	Temperatura máxima	19.8
28447	7	Sololá	710	Panajachel	8	Panajachel	3	Marzo	2023-03-31T00:00:00	2024-11-08T21:00:00	3	Temperatura mínima	18.4
28448	7	Sololá	710	Panajachel	8	Panajachel	3	Marzo	2023-03-31T00:00:00	2024-11-08T21:00:00	5	Humedad	77
28449	7	Sololá	710	Panajachel	8	Panajachel	3	Marzo	2023-03-31T00:00:00	2024-11-08T21:00:00	6	Velocidad del viento	1.6
28450	7	Sololá	710	Panajachel	8	Panajachel	3	Marzo	2023-03-31T00:00:00	2024-11-08T21:00:00	7	Dirección del viento	1.61
28451	7	Sololá	710	Panajachel	8	Panajachel	3	Marzo	2023-03-31T00:00:00	2024-11-08T21:00:00	1	Precipitación	0
28452	7	Sololá	710	Panajachel	8	Panajachel	3	Marzo	2023-03-31T00:00:00	2024-11-08T21:00:00	8	Radiación solar	0
28453	7	Sololá	710	Panajachel	8	Panajachel	3	Marzo	2023-03-31T00:00:00	2024-11-08T22:00:00	2	Temperatura media	17.7
28454	7	Sololá	710	Panajachel	8	Panajachel	3	Marzo	2023-03-31T00:00:00	2024-11-08T22:00:00	4	Temperatura máxima	18.4
28455	7	Sololá	710	Panajachel	8	Panajachel	3	Marzo	2023-03-31T00:00:00	2024-11-08T22:00:00	3	Temperatura mínima	17.7
28456	7	Sololá	710	Panajachel	8	Panajachel	3	Marzo	2023-03-31T00:00:00	2024-11-08T22:00:00	5	Humedad	76
28457	7	Sololá	710	Panajachel	8	Panajachel	3	Marzo	2023-03-31T00:00:00	2024-11-08T22:00:00	6	Velocidad del viento	3.2
28458	7	Sololá	710	Panajachel	8	Panajachel	3	Marzo	2023-03-31T00:00:00	2024-11-08T22:00:00	7	Dirección del viento	3.22
28459	7	Sololá	710	Panajachel	8	Panajachel	3	Marzo	2023-03-31T00:00:00	2024-11-08T22:00:00	1	Precipitación	0
28460	7	Sololá	710	Panajachel	8	Panajachel	3	Marzo	2023-03-31T00:00:00	2024-11-08T22:00:00	8	Radiación solar	0
28461	7	Sololá	710	Panajachel	8	Panajachel	3	Marzo	2023-03-31T00:00:00	2024-11-08T23:00:00	2	Temperatura media	16.9
28462	7	Sololá	710	Panajachel	8	Panajachel	3	Marzo	2023-03-31T00:00:00	2024-11-08T23:00:00	4	Temperatura máxima	17.7
28463	7	Sololá	710	Panajachel	8	Panajachel	3	Marzo	2023-03-31T00:00:00	2024-11-08T23:00:00	3	Temperatura mínima	16.9
28464	7	Sololá	710	Panajachel	8	Panajachel	3	Marzo	2023-03-31T00:00:00	2024-11-08T23:00:00	5	Humedad	75
28465	7	Sololá	710	Panajachel	8	Panajachel	3	Marzo	2023-03-31T00:00:00	2024-11-08T23:00:00	6	Velocidad del viento	3.2
28466	7	Sololá	710	Panajachel	8	Panajachel	3	Marzo	2023-03-31T00:00:00	2024-11-08T23:00:00	7	Dirección del viento	3.22
28467	7	Sololá	710	Panajachel	8	Panajachel	3	Marzo	2023-03-31T00:00:00	2024-11-08T23:00:00	1	Precipitación	0
28468	7	Sololá	710	Panajachel	8	Panajachel	3	Marzo	2023-03-31T00:00:00	2024-11-08T23:00:00	8	Radiación solar	0
28469	7	Sololá	710	Panajachel	8	Panajachel	4	Abril	2023-01-04T00:00:00	2024-11-08T00:00:00	2	Temperatura media	16.3
28470	7	Sololá	710	Panajachel	8	Panajachel	4	Abril	2023-01-04T00:00:00	2024-11-08T00:00:00	4	Temperatura máxima	17
28471	7	Sololá	710	Panajachel	8	Panajachel	4	Abril	2023-01-04T00:00:00	2024-11-08T00:00:00	3	Temperatura mínima	16.3
28472	7	Sololá	710	Panajachel	8	Panajachel	4	Abril	2023-01-04T00:00:00	2024-11-08T00:00:00	5	Humedad	77
28473	7	Sololá	710	Panajachel	8	Panajachel	4	Abril	2023-01-04T00:00:00	2024-11-08T00:00:00	6	Velocidad del viento	3.2
28474	7	Sololá	710	Panajachel	8	Panajachel	4	Abril	2023-01-04T00:00:00	2024-11-08T00:00:00	7	Dirección del viento	3.22
28475	7	Sololá	710	Panajachel	8	Panajachel	4	Abril	2023-01-04T00:00:00	2024-11-08T00:00:00	1	Precipitación	0
28476	7	Sololá	710	Panajachel	8	Panajachel	4	Abril	2023-01-04T00:00:00	2024-11-08T00:00:00	8	Radiación solar	0
28477	7	Sololá	710	Panajachel	8	Panajachel	4	Abril	2023-01-04T00:00:00	2024-11-08T01:00:00	2	Temperatura media	16.4
28478	7	Sololá	710	Panajachel	8	Panajachel	4	Abril	2023-01-04T00:00:00	2024-11-08T01:00:00	4	Temperatura máxima	16.7
28479	7	Sololá	710	Panajachel	8	Panajachel	4	Abril	2023-01-04T00:00:00	2024-11-08T01:00:00	3	Temperatura mínima	16.3
28480	7	Sololá	710	Panajachel	8	Panajachel	4	Abril	2023-01-04T00:00:00	2024-11-08T01:00:00	5	Humedad	77
28481	7	Sololá	710	Panajachel	8	Panajachel	4	Abril	2023-01-04T00:00:00	2024-11-08T01:00:00	6	Velocidad del viento	1.6
28482	7	Sololá	710	Panajachel	8	Panajachel	4	Abril	2023-01-04T00:00:00	2024-11-08T01:00:00	7	Dirección del viento	1.61
28483	7	Sololá	710	Panajachel	8	Panajachel	4	Abril	2023-01-04T00:00:00	2024-11-08T01:00:00	1	Precipitación	0
28484	7	Sololá	710	Panajachel	8	Panajachel	4	Abril	2023-01-04T00:00:00	2024-11-08T01:00:00	8	Radiación solar	0
28485	7	Sololá	710	Panajachel	8	Panajachel	4	Abril	2023-01-04T00:00:00	2024-11-08T02:00:00	2	Temperatura media	16.1
28486	7	Sololá	710	Panajachel	8	Panajachel	4	Abril	2023-01-04T00:00:00	2024-11-08T02:00:00	4	Temperatura máxima	16.4
28487	7	Sololá	710	Panajachel	8	Panajachel	4	Abril	2023-01-04T00:00:00	2024-11-08T02:00:00	3	Temperatura mínima	16
28488	7	Sololá	710	Panajachel	8	Panajachel	4	Abril	2023-01-04T00:00:00	2024-11-08T02:00:00	5	Humedad	77
28489	7	Sololá	710	Panajachel	8	Panajachel	4	Abril	2023-01-04T00:00:00	2024-11-08T02:00:00	6	Velocidad del viento	3.2
28490	7	Sololá	710	Panajachel	8	Panajachel	4	Abril	2023-01-04T00:00:00	2024-11-08T02:00:00	7	Dirección del viento	3.22
28491	7	Sololá	710	Panajachel	8	Panajachel	4	Abril	2023-01-04T00:00:00	2024-11-08T02:00:00	1	Precipitación	0
28492	7	Sololá	710	Panajachel	8	Panajachel	4	Abril	2023-01-04T00:00:00	2024-11-08T02:00:00	8	Radiación solar	0
28493	7	Sololá	710	Panajachel	8	Panajachel	4	Abril	2023-01-04T00:00:00	2024-11-08T03:00:00	2	Temperatura media	15.7
28494	7	Sololá	710	Panajachel	8	Panajachel	4	Abril	2023-01-04T00:00:00	2024-11-08T03:00:00	4	Temperatura máxima	16.2
28495	7	Sololá	710	Panajachel	8	Panajachel	4	Abril	2023-01-04T00:00:00	2024-11-08T03:00:00	3	Temperatura mínima	15.6
28496	7	Sololá	710	Panajachel	8	Panajachel	4	Abril	2023-01-04T00:00:00	2024-11-08T03:00:00	5	Humedad	77
28497	7	Sololá	710	Panajachel	8	Panajachel	4	Abril	2023-01-04T00:00:00	2024-11-08T03:00:00	6	Velocidad del viento	1.6
28498	7	Sololá	710	Panajachel	8	Panajachel	4	Abril	2023-01-04T00:00:00	2024-11-08T03:00:00	7	Dirección del viento	1.61
28499	7	Sololá	710	Panajachel	8	Panajachel	4	Abril	2023-01-04T00:00:00	2024-11-08T03:00:00	1	Precipitación	0
28500	7	Sololá	710	Panajachel	8	Panajachel	4	Abril	2023-01-04T00:00:00	2024-11-08T03:00:00	8	Radiación solar	0
28501	7	Sololá	710	Panajachel	8	Panajachel	4	Abril	2023-01-04T00:00:00	2024-11-08T04:00:00	2	Temperatura media	15.5
28502	7	Sololá	710	Panajachel	8	Panajachel	4	Abril	2023-01-04T00:00:00	2024-11-08T04:00:00	4	Temperatura máxima	15.7
28503	7	Sololá	710	Panajachel	8	Panajachel	4	Abril	2023-01-04T00:00:00	2024-11-08T04:00:00	3	Temperatura mínima	15.3
28504	7	Sololá	710	Panajachel	8	Panajachel	4	Abril	2023-01-04T00:00:00	2024-11-08T04:00:00	5	Humedad	76
28505	7	Sololá	710	Panajachel	8	Panajachel	4	Abril	2023-01-04T00:00:00	2024-11-08T04:00:00	6	Velocidad del viento	1.6
28506	7	Sololá	710	Panajachel	8	Panajachel	4	Abril	2023-01-04T00:00:00	2024-11-08T04:00:00	7	Dirección del viento	1.61
28507	7	Sololá	710	Panajachel	8	Panajachel	4	Abril	2023-01-04T00:00:00	2024-11-08T04:00:00	1	Precipitación	0
28508	7	Sololá	710	Panajachel	8	Panajachel	4	Abril	2023-01-04T00:00:00	2024-11-08T04:00:00	8	Radiación solar	0
28509	7	Sololá	710	Panajachel	8	Panajachel	4	Abril	2023-01-04T00:00:00	2024-11-08T05:00:00	2	Temperatura media	15.3
28510	7	Sololá	710	Panajachel	8	Panajachel	4	Abril	2023-01-04T00:00:00	2024-11-08T05:00:00	4	Temperatura máxima	15.6
28511	7	Sololá	710	Panajachel	8	Panajachel	4	Abril	2023-01-04T00:00:00	2024-11-08T05:00:00	3	Temperatura mínima	15.2
28512	7	Sololá	710	Panajachel	8	Panajachel	4	Abril	2023-01-04T00:00:00	2024-11-08T05:00:00	5	Humedad	74
28513	7	Sololá	710	Panajachel	8	Panajachel	4	Abril	2023-01-04T00:00:00	2024-11-08T05:00:00	6	Velocidad del viento	1.6
28514	7	Sololá	710	Panajachel	8	Panajachel	4	Abril	2023-01-04T00:00:00	2024-11-08T05:00:00	7	Dirección del viento	1.61
28515	7	Sololá	710	Panajachel	8	Panajachel	4	Abril	2023-01-04T00:00:00	2024-11-08T05:00:00	1	Precipitación	0
28516	7	Sololá	710	Panajachel	8	Panajachel	4	Abril	2023-01-04T00:00:00	2024-11-08T05:00:00	8	Radiación solar	0
28517	7	Sololá	710	Panajachel	8	Panajachel	4	Abril	2023-01-04T00:00:00	2024-11-08T06:00:00	2	Temperatura media	14.8
28518	7	Sololá	710	Panajachel	8	Panajachel	4	Abril	2023-01-04T00:00:00	2024-11-08T06:00:00	4	Temperatura máxima	15.3
28519	7	Sololá	710	Panajachel	8	Panajachel	4	Abril	2023-01-04T00:00:00	2024-11-08T06:00:00	3	Temperatura mínima	14.4
28520	7	Sololá	710	Panajachel	8	Panajachel	4	Abril	2023-01-04T00:00:00	2024-11-08T06:00:00	5	Humedad	76
28521	7	Sololá	710	Panajachel	8	Panajachel	4	Abril	2023-01-04T00:00:00	2024-11-08T06:00:00	6	Velocidad del viento	1.6
28522	7	Sololá	710	Panajachel	8	Panajachel	4	Abril	2023-01-04T00:00:00	2024-11-08T06:00:00	7	Dirección del viento	1.61
28523	7	Sololá	710	Panajachel	8	Panajachel	4	Abril	2023-01-04T00:00:00	2024-11-08T06:00:00	1	Precipitación	0
28524	7	Sololá	710	Panajachel	8	Panajachel	4	Abril	2023-01-04T00:00:00	2024-11-08T06:00:00	8	Radiación solar	0
28525	7	Sololá	710	Panajachel	8	Panajachel	4	Abril	2023-01-04T00:00:00	2024-11-08T07:00:00	2	Temperatura media	15.6
28526	7	Sololá	710	Panajachel	8	Panajachel	4	Abril	2023-01-04T00:00:00	2024-11-08T07:00:00	4	Temperatura máxima	15.6
28527	7	Sololá	710	Panajachel	8	Panajachel	4	Abril	2023-01-04T00:00:00	2024-11-08T07:00:00	3	Temperatura mínima	14.8
28528	7	Sololá	710	Panajachel	8	Panajachel	4	Abril	2023-01-04T00:00:00	2024-11-08T07:00:00	5	Humedad	72
28529	7	Sololá	710	Panajachel	8	Panajachel	4	Abril	2023-01-04T00:00:00	2024-11-08T07:00:00	6	Velocidad del viento	1.6
28530	7	Sololá	710	Panajachel	8	Panajachel	4	Abril	2023-01-04T00:00:00	2024-11-08T07:00:00	7	Dirección del viento	1.61
28531	7	Sololá	710	Panajachel	8	Panajachel	4	Abril	2023-01-04T00:00:00	2024-11-08T07:00:00	1	Precipitación	0
28532	7	Sololá	710	Panajachel	8	Panajachel	4	Abril	2023-01-04T00:00:00	2024-11-08T07:00:00	8	Radiación solar	38
28533	7	Sololá	710	Panajachel	8	Panajachel	4	Abril	2023-01-04T00:00:00	2024-11-08T08:00:00	2	Temperatura media	19.4
28534	7	Sololá	710	Panajachel	8	Panajachel	4	Abril	2023-01-04T00:00:00	2024-11-08T08:00:00	4	Temperatura máxima	19.4
28535	7	Sololá	710	Panajachel	8	Panajachel	4	Abril	2023-01-04T00:00:00	2024-11-08T08:00:00	3	Temperatura mínima	15.6
28536	7	Sololá	710	Panajachel	8	Panajachel	4	Abril	2023-01-04T00:00:00	2024-11-08T08:00:00	5	Humedad	66
28537	7	Sololá	710	Panajachel	8	Panajachel	4	Abril	2023-01-04T00:00:00	2024-11-08T08:00:00	6	Velocidad del viento	0
28538	7	Sololá	710	Panajachel	8	Panajachel	4	Abril	2023-01-04T00:00:00	2024-11-08T08:00:00	7	Dirección del viento	0
28539	7	Sololá	710	Panajachel	8	Panajachel	4	Abril	2023-01-04T00:00:00	2024-11-08T08:00:00	1	Precipitación	0
28540	7	Sololá	710	Panajachel	8	Panajachel	4	Abril	2023-01-04T00:00:00	2024-11-08T08:00:00	8	Radiación solar	288
28541	7	Sololá	710	Panajachel	8	Panajachel	4	Abril	2023-01-04T00:00:00	2024-11-08T09:00:00	2	Temperatura media	19.7
28542	7	Sololá	710	Panajachel	8	Panajachel	4	Abril	2023-01-04T00:00:00	2024-11-08T09:00:00	4	Temperatura máxima	19.7
28543	7	Sololá	710	Panajachel	8	Panajachel	4	Abril	2023-01-04T00:00:00	2024-11-08T09:00:00	3	Temperatura mínima	18.9
28544	7	Sololá	710	Panajachel	8	Panajachel	4	Abril	2023-01-04T00:00:00	2024-11-08T09:00:00	5	Humedad	70
28545	7	Sololá	710	Panajachel	8	Panajachel	4	Abril	2023-01-04T00:00:00	2024-11-08T09:00:00	6	Velocidad del viento	0
28546	7	Sololá	710	Panajachel	8	Panajachel	4	Abril	2023-01-04T00:00:00	2024-11-08T09:00:00	7	Dirección del viento	0
28547	7	Sololá	710	Panajachel	8	Panajachel	4	Abril	2023-01-04T00:00:00	2024-11-08T09:00:00	1	Precipitación	0
28548	7	Sololá	710	Panajachel	8	Panajachel	4	Abril	2023-01-04T00:00:00	2024-11-08T09:00:00	8	Radiación solar	515
28549	7	Sololá	710	Panajachel	8	Panajachel	4	Abril	2023-01-04T00:00:00	2024-11-08T10:00:00	2	Temperatura media	20.9
28550	7	Sololá	710	Panajachel	8	Panajachel	4	Abril	2023-01-04T00:00:00	2024-11-08T10:00:00	4	Temperatura máxima	21
28551	7	Sololá	710	Panajachel	8	Panajachel	4	Abril	2023-01-04T00:00:00	2024-11-08T10:00:00	3	Temperatura mínima	19.7
28552	7	Sololá	710	Panajachel	8	Panajachel	4	Abril	2023-01-04T00:00:00	2024-11-08T10:00:00	5	Humedad	68
28553	7	Sololá	710	Panajachel	8	Panajachel	4	Abril	2023-01-04T00:00:00	2024-11-08T10:00:00	6	Velocidad del viento	0
28554	7	Sololá	710	Panajachel	8	Panajachel	4	Abril	2023-01-04T00:00:00	2024-11-08T10:00:00	7	Dirección del viento	0
28555	7	Sololá	710	Panajachel	8	Panajachel	4	Abril	2023-01-04T00:00:00	2024-11-08T10:00:00	1	Precipitación	0
28556	7	Sololá	710	Panajachel	8	Panajachel	4	Abril	2023-01-04T00:00:00	2024-11-08T10:00:00	8	Radiación solar	719
28557	7	Sololá	710	Panajachel	8	Panajachel	4	Abril	2023-01-04T00:00:00	2024-11-08T11:00:00	2	Temperatura media	21.9
28558	7	Sololá	710	Panajachel	8	Panajachel	4	Abril	2023-01-04T00:00:00	2024-11-08T11:00:00	4	Temperatura máxima	21.9
28559	7	Sololá	710	Panajachel	8	Panajachel	4	Abril	2023-01-04T00:00:00	2024-11-08T11:00:00	3	Temperatura mínima	20.9
28560	7	Sololá	710	Panajachel	8	Panajachel	4	Abril	2023-01-04T00:00:00	2024-11-08T11:00:00	5	Humedad	62
28561	7	Sololá	710	Panajachel	8	Panajachel	4	Abril	2023-01-04T00:00:00	2024-11-08T11:00:00	6	Velocidad del viento	0
28562	7	Sololá	710	Panajachel	8	Panajachel	4	Abril	2023-01-04T00:00:00	2024-11-08T11:00:00	7	Dirección del viento	0
28563	7	Sololá	710	Panajachel	8	Panajachel	4	Abril	2023-01-04T00:00:00	2024-11-08T11:00:00	1	Precipitación	0
28564	7	Sololá	710	Panajachel	8	Panajachel	4	Abril	2023-01-04T00:00:00	2024-11-08T11:00:00	8	Radiación solar	860
28565	7	Sololá	710	Panajachel	8	Panajachel	4	Abril	2023-01-04T00:00:00	2024-11-08T12:00:00	2	Temperatura media	22.5
28566	7	Sololá	710	Panajachel	8	Panajachel	4	Abril	2023-01-04T00:00:00	2024-11-08T12:00:00	4	Temperatura máxima	22.9
28567	7	Sololá	710	Panajachel	8	Panajachel	4	Abril	2023-01-04T00:00:00	2024-11-08T12:00:00	3	Temperatura mínima	21.9
28568	7	Sololá	710	Panajachel	8	Panajachel	4	Abril	2023-01-04T00:00:00	2024-11-08T12:00:00	5	Humedad	66
28569	7	Sololá	710	Panajachel	8	Panajachel	4	Abril	2023-01-04T00:00:00	2024-11-08T12:00:00	6	Velocidad del viento	0
28570	7	Sololá	710	Panajachel	8	Panajachel	4	Abril	2023-01-04T00:00:00	2024-11-08T12:00:00	7	Dirección del viento	0
28571	7	Sololá	710	Panajachel	8	Panajachel	4	Abril	2023-01-04T00:00:00	2024-11-08T12:00:00	1	Precipitación	0
28572	7	Sololá	710	Panajachel	8	Panajachel	4	Abril	2023-01-04T00:00:00	2024-11-08T12:00:00	8	Radiación solar	932
28573	7	Sololá	710	Panajachel	8	Panajachel	4	Abril	2023-01-04T00:00:00	2024-11-08T13:00:00	2	Temperatura media	23.3
28574	7	Sololá	710	Panajachel	8	Panajachel	4	Abril	2023-01-04T00:00:00	2024-11-08T13:00:00	4	Temperatura máxima	23.3
28575	7	Sololá	710	Panajachel	8	Panajachel	4	Abril	2023-01-04T00:00:00	2024-11-08T13:00:00	3	Temperatura mínima	22.3
28576	7	Sololá	710	Panajachel	8	Panajachel	4	Abril	2023-01-04T00:00:00	2024-11-08T13:00:00	5	Humedad	74
28577	7	Sololá	710	Panajachel	8	Panajachel	4	Abril	2023-01-04T00:00:00	2024-11-08T13:00:00	6	Velocidad del viento	1.6
28578	7	Sololá	710	Panajachel	8	Panajachel	4	Abril	2023-01-04T00:00:00	2024-11-08T13:00:00	7	Dirección del viento	1.61
28579	7	Sololá	710	Panajachel	8	Panajachel	4	Abril	2023-01-04T00:00:00	2024-11-08T13:00:00	1	Precipitación	0
28580	7	Sololá	710	Panajachel	8	Panajachel	4	Abril	2023-01-04T00:00:00	2024-11-08T13:00:00	8	Radiación solar	932
28581	7	Sololá	710	Panajachel	8	Panajachel	4	Abril	2023-01-04T00:00:00	2024-11-08T14:00:00	2	Temperatura media	22.4
28582	7	Sololá	710	Panajachel	8	Panajachel	4	Abril	2023-01-04T00:00:00	2024-11-08T14:00:00	4	Temperatura máxima	23.3
28583	7	Sololá	710	Panajachel	8	Panajachel	4	Abril	2023-01-04T00:00:00	2024-11-08T14:00:00	3	Temperatura mínima	22.4
28584	7	Sololá	710	Panajachel	8	Panajachel	4	Abril	2023-01-04T00:00:00	2024-11-08T14:00:00	5	Humedad	77
28585	7	Sololá	710	Panajachel	8	Panajachel	4	Abril	2023-01-04T00:00:00	2024-11-08T14:00:00	6	Velocidad del viento	8
28586	7	Sololá	710	Panajachel	8	Panajachel	4	Abril	2023-01-04T00:00:00	2024-11-08T14:00:00	7	Dirección del viento	8.05
28587	7	Sololá	710	Panajachel	8	Panajachel	4	Abril	2023-01-04T00:00:00	2024-11-08T14:00:00	1	Precipitación	0
28588	7	Sololá	710	Panajachel	8	Panajachel	4	Abril	2023-01-04T00:00:00	2024-11-08T14:00:00	8	Radiación solar	829
28589	7	Sololá	710	Panajachel	8	Panajachel	4	Abril	2023-01-04T00:00:00	2024-11-08T15:00:00	2	Temperatura media	23.7
28590	7	Sololá	710	Panajachel	8	Panajachel	4	Abril	2023-01-04T00:00:00	2024-11-08T15:00:00	4	Temperatura máxima	23.9
28591	7	Sololá	710	Panajachel	8	Panajachel	4	Abril	2023-01-04T00:00:00	2024-11-08T15:00:00	3	Temperatura mínima	22.4
28592	7	Sololá	710	Panajachel	8	Panajachel	4	Abril	2023-01-04T00:00:00	2024-11-08T15:00:00	5	Humedad	74
28593	7	Sololá	710	Panajachel	8	Panajachel	4	Abril	2023-01-04T00:00:00	2024-11-08T15:00:00	6	Velocidad del viento	3.2
28594	7	Sololá	710	Panajachel	8	Panajachel	4	Abril	2023-01-04T00:00:00	2024-11-08T15:00:00	7	Dirección del viento	3.22
28595	7	Sololá	710	Panajachel	8	Panajachel	4	Abril	2023-01-04T00:00:00	2024-11-08T15:00:00	1	Precipitación	0
28596	7	Sololá	710	Panajachel	8	Panajachel	4	Abril	2023-01-04T00:00:00	2024-11-08T15:00:00	8	Radiación solar	668
28597	7	Sololá	710	Panajachel	8	Panajachel	4	Abril	2023-01-04T00:00:00	2024-11-08T16:00:00	2	Temperatura media	22.7
28598	7	Sololá	710	Panajachel	8	Panajachel	4	Abril	2023-01-04T00:00:00	2024-11-08T16:00:00	4	Temperatura máxima	23.7
28599	7	Sololá	710	Panajachel	8	Panajachel	4	Abril	2023-01-04T00:00:00	2024-11-08T16:00:00	3	Temperatura mínima	22.7
28600	7	Sololá	710	Panajachel	8	Panajachel	4	Abril	2023-01-04T00:00:00	2024-11-08T16:00:00	5	Humedad	77
28601	7	Sololá	710	Panajachel	8	Panajachel	4	Abril	2023-01-04T00:00:00	2024-11-08T16:00:00	6	Velocidad del viento	3.2
28602	7	Sololá	710	Panajachel	8	Panajachel	4	Abril	2023-01-04T00:00:00	2024-11-08T16:00:00	7	Dirección del viento	3.22
28603	7	Sololá	710	Panajachel	8	Panajachel	4	Abril	2023-01-04T00:00:00	2024-11-08T16:00:00	1	Precipitación	0
28604	7	Sololá	710	Panajachel	8	Panajachel	4	Abril	2023-01-04T00:00:00	2024-11-08T16:00:00	8	Radiación solar	449
28605	7	Sololá	710	Panajachel	8	Panajachel	4	Abril	2023-01-04T00:00:00	2024-11-08T17:00:00	2	Temperatura media	22.8
28606	7	Sololá	710	Panajachel	8	Panajachel	4	Abril	2023-01-04T00:00:00	2024-11-08T17:00:00	4	Temperatura máxima	23.2
28607	7	Sololá	710	Panajachel	8	Panajachel	4	Abril	2023-01-04T00:00:00	2024-11-08T17:00:00	3	Temperatura mínima	22.6
28608	7	Sololá	710	Panajachel	8	Panajachel	4	Abril	2023-01-04T00:00:00	2024-11-08T17:00:00	5	Humedad	79
28609	7	Sololá	710	Panajachel	8	Panajachel	4	Abril	2023-01-04T00:00:00	2024-11-08T17:00:00	6	Velocidad del viento	1.6
28610	7	Sololá	710	Panajachel	8	Panajachel	4	Abril	2023-01-04T00:00:00	2024-11-08T17:00:00	7	Dirección del viento	1.61
28611	7	Sololá	710	Panajachel	8	Panajachel	4	Abril	2023-01-04T00:00:00	2024-11-08T17:00:00	1	Precipitación	0
28612	7	Sololá	710	Panajachel	8	Panajachel	4	Abril	2023-01-04T00:00:00	2024-11-08T17:00:00	8	Radiación solar	157
28613	7	Sololá	710	Panajachel	8	Panajachel	4	Abril	2023-01-04T00:00:00	2024-11-08T18:00:00	2	Temperatura media	21.3
28614	7	Sololá	710	Panajachel	8	Panajachel	4	Abril	2023-01-04T00:00:00	2024-11-08T18:00:00	4	Temperatura máxima	22.9
28615	7	Sololá	710	Panajachel	8	Panajachel	4	Abril	2023-01-04T00:00:00	2024-11-08T18:00:00	3	Temperatura mínima	21.3
28616	7	Sololá	710	Panajachel	8	Panajachel	4	Abril	2023-01-04T00:00:00	2024-11-08T18:00:00	5	Humedad	84
28617	7	Sololá	710	Panajachel	8	Panajachel	4	Abril	2023-01-04T00:00:00	2024-11-08T18:00:00	6	Velocidad del viento	0
28618	7	Sololá	710	Panajachel	8	Panajachel	4	Abril	2023-01-04T00:00:00	2024-11-08T18:00:00	7	Dirección del viento	0
28619	7	Sololá	710	Panajachel	8	Panajachel	4	Abril	2023-01-04T00:00:00	2024-11-08T18:00:00	1	Precipitación	0
28620	7	Sololá	710	Panajachel	8	Panajachel	4	Abril	2023-01-04T00:00:00	2024-11-08T18:00:00	8	Radiación solar	89
28621	7	Sololá	710	Panajachel	8	Panajachel	4	Abril	2023-01-04T00:00:00	2024-11-08T19:00:00	2	Temperatura media	20.3
28622	7	Sololá	710	Panajachel	8	Panajachel	4	Abril	2023-01-04T00:00:00	2024-11-08T19:00:00	4	Temperatura máxima	21.3
28623	7	Sololá	710	Panajachel	8	Panajachel	4	Abril	2023-01-04T00:00:00	2024-11-08T19:00:00	3	Temperatura mínima	20.3
28624	7	Sololá	710	Panajachel	8	Panajachel	4	Abril	2023-01-04T00:00:00	2024-11-08T19:00:00	5	Humedad	88
28625	7	Sololá	710	Panajachel	8	Panajachel	4	Abril	2023-01-04T00:00:00	2024-11-08T19:00:00	6	Velocidad del viento	0
28626	7	Sololá	710	Panajachel	8	Panajachel	4	Abril	2023-01-04T00:00:00	2024-11-08T19:00:00	7	Dirección del viento	0
28627	7	Sololá	710	Panajachel	8	Panajachel	4	Abril	2023-01-04T00:00:00	2024-11-08T19:00:00	1	Precipitación	0
28628	7	Sololá	710	Panajachel	8	Panajachel	4	Abril	2023-01-04T00:00:00	2024-11-08T19:00:00	8	Radiación solar	0
28629	7	Sololá	710	Panajachel	8	Panajachel	4	Abril	2023-01-04T00:00:00	2024-11-08T20:00:00	2	Temperatura media	19.9
28630	7	Sololá	710	Panajachel	8	Panajachel	4	Abril	2023-01-04T00:00:00	2024-11-08T20:00:00	4	Temperatura máxima	20.3
28631	7	Sololá	710	Panajachel	8	Panajachel	4	Abril	2023-01-04T00:00:00	2024-11-08T20:00:00	3	Temperatura mínima	19.9
28632	7	Sololá	710	Panajachel	8	Panajachel	4	Abril	2023-01-04T00:00:00	2024-11-08T20:00:00	5	Humedad	88
28633	7	Sololá	710	Panajachel	8	Panajachel	4	Abril	2023-01-04T00:00:00	2024-11-08T20:00:00	6	Velocidad del viento	0
28634	7	Sololá	710	Panajachel	8	Panajachel	4	Abril	2023-01-04T00:00:00	2024-11-08T20:00:00	7	Dirección del viento	0
28635	7	Sololá	710	Panajachel	8	Panajachel	4	Abril	2023-01-04T00:00:00	2024-11-08T20:00:00	1	Precipitación	0
28636	7	Sololá	710	Panajachel	8	Panajachel	4	Abril	2023-01-04T00:00:00	2024-11-08T20:00:00	8	Radiación solar	0
28637	7	Sololá	710	Panajachel	8	Panajachel	4	Abril	2023-01-04T00:00:00	2024-11-08T21:00:00	2	Temperatura media	18.8
28638	7	Sololá	710	Panajachel	8	Panajachel	4	Abril	2023-01-04T00:00:00	2024-11-08T21:00:00	4	Temperatura máxima	19.9
28639	7	Sololá	710	Panajachel	8	Panajachel	4	Abril	2023-01-04T00:00:00	2024-11-08T21:00:00	3	Temperatura mínima	18.8
28640	7	Sololá	710	Panajachel	8	Panajachel	4	Abril	2023-01-04T00:00:00	2024-11-08T21:00:00	5	Humedad	80
28641	7	Sololá	710	Panajachel	8	Panajachel	4	Abril	2023-01-04T00:00:00	2024-11-08T21:00:00	6	Velocidad del viento	0
28642	7	Sololá	710	Panajachel	8	Panajachel	4	Abril	2023-01-04T00:00:00	2024-11-08T21:00:00	7	Dirección del viento	0
28643	7	Sololá	710	Panajachel	8	Panajachel	4	Abril	2023-01-04T00:00:00	2024-11-08T21:00:00	1	Precipitación	0
28644	7	Sololá	710	Panajachel	8	Panajachel	4	Abril	2023-01-04T00:00:00	2024-11-08T21:00:00	8	Radiación solar	0
28645	7	Sololá	710	Panajachel	8	Panajachel	4	Abril	2023-01-04T00:00:00	2024-11-08T22:00:00	2	Temperatura media	20.1
28646	7	Sololá	710	Panajachel	8	Panajachel	4	Abril	2023-01-04T00:00:00	2024-11-08T22:00:00	4	Temperatura máxima	20.2
28647	7	Sololá	710	Panajachel	8	Panajachel	4	Abril	2023-01-04T00:00:00	2024-11-08T22:00:00	3	Temperatura mínima	18.8
28648	7	Sololá	710	Panajachel	8	Panajachel	4	Abril	2023-01-04T00:00:00	2024-11-08T22:00:00	5	Humedad	69
28649	7	Sololá	710	Panajachel	8	Panajachel	4	Abril	2023-01-04T00:00:00	2024-11-08T22:00:00	6	Velocidad del viento	3.2
28650	7	Sololá	710	Panajachel	8	Panajachel	4	Abril	2023-01-04T00:00:00	2024-11-08T22:00:00	7	Dirección del viento	3.22
28651	7	Sololá	710	Panajachel	8	Panajachel	4	Abril	2023-01-04T00:00:00	2024-11-08T22:00:00	1	Precipitación	0
28652	7	Sololá	710	Panajachel	8	Panajachel	4	Abril	2023-01-04T00:00:00	2024-11-08T22:00:00	8	Radiación solar	0
28653	7	Sololá	710	Panajachel	8	Panajachel	4	Abril	2023-01-04T00:00:00	2024-11-08T23:00:00	2	Temperatura media	19.2
28654	7	Sololá	710	Panajachel	8	Panajachel	4	Abril	2023-01-04T00:00:00	2024-11-08T23:00:00	4	Temperatura máxima	20.1
28655	7	Sololá	710	Panajachel	8	Panajachel	4	Abril	2023-01-04T00:00:00	2024-11-08T23:00:00	3	Temperatura mínima	19.1
28656	7	Sololá	710	Panajachel	8	Panajachel	4	Abril	2023-01-04T00:00:00	2024-11-08T23:00:00	5	Humedad	70
28657	7	Sololá	710	Panajachel	8	Panajachel	4	Abril	2023-01-04T00:00:00	2024-11-08T23:00:00	6	Velocidad del viento	1.6
28658	7	Sololá	710	Panajachel	8	Panajachel	4	Abril	2023-01-04T00:00:00	2024-11-08T23:00:00	7	Dirección del viento	1.61
28659	7	Sololá	710	Panajachel	8	Panajachel	4	Abril	2023-01-04T00:00:00	2024-11-08T23:00:00	1	Precipitación	0
28660	7	Sololá	710	Panajachel	8	Panajachel	4	Abril	2023-01-04T00:00:00	2024-11-08T23:00:00	8	Radiación solar	0
28661	7	Sololá	710	Panajachel	8	Panajachel	4	Abril	2023-02-04T00:00:00	2024-11-08T00:00:00	2	Temperatura media	19.1
28662	7	Sololá	710	Panajachel	8	Panajachel	4	Abril	2023-02-04T00:00:00	2024-11-08T00:00:00	4	Temperatura máxima	19.6
28663	7	Sololá	710	Panajachel	8	Panajachel	4	Abril	2023-02-04T00:00:00	2024-11-08T00:00:00	3	Temperatura mínima	19.1
28664	7	Sololá	710	Panajachel	8	Panajachel	4	Abril	2023-02-04T00:00:00	2024-11-08T00:00:00	5	Humedad	67
28665	7	Sololá	710	Panajachel	8	Panajachel	4	Abril	2023-02-04T00:00:00	2024-11-08T00:00:00	6	Velocidad del viento	1.6
28666	7	Sololá	710	Panajachel	8	Panajachel	4	Abril	2023-02-04T00:00:00	2024-11-08T00:00:00	7	Dirección del viento	1.61
28667	7	Sololá	710	Panajachel	8	Panajachel	4	Abril	2023-02-04T00:00:00	2024-11-08T00:00:00	1	Precipitación	0
28668	7	Sololá	710	Panajachel	8	Panajachel	4	Abril	2023-02-04T00:00:00	2024-11-08T00:00:00	8	Radiación solar	0
28669	7	Sololá	710	Panajachel	8	Panajachel	4	Abril	2023-02-04T00:00:00	2024-11-08T01:00:00	2	Temperatura media	17.5
28670	7	Sololá	710	Panajachel	8	Panajachel	4	Abril	2023-02-04T00:00:00	2024-11-08T01:00:00	4	Temperatura máxima	19.2
28671	7	Sololá	710	Panajachel	8	Panajachel	4	Abril	2023-02-04T00:00:00	2024-11-08T01:00:00	3	Temperatura mínima	17.5
28672	7	Sololá	710	Panajachel	8	Panajachel	4	Abril	2023-02-04T00:00:00	2024-11-08T01:00:00	5	Humedad	73
28673	7	Sololá	710	Panajachel	8	Panajachel	4	Abril	2023-02-04T00:00:00	2024-11-08T01:00:00	6	Velocidad del viento	0
28674	7	Sololá	710	Panajachel	8	Panajachel	4	Abril	2023-02-04T00:00:00	2024-11-08T01:00:00	7	Dirección del viento	0
28675	7	Sololá	710	Panajachel	8	Panajachel	4	Abril	2023-02-04T00:00:00	2024-11-08T01:00:00	1	Precipitación	0
28676	7	Sololá	710	Panajachel	8	Panajachel	4	Abril	2023-02-04T00:00:00	2024-11-08T01:00:00	8	Radiación solar	0
28677	7	Sololá	710	Panajachel	8	Panajachel	4	Abril	2023-02-04T00:00:00	2024-11-08T02:00:00	2	Temperatura media	16.4
28678	7	Sololá	710	Panajachel	8	Panajachel	4	Abril	2023-02-04T00:00:00	2024-11-08T02:00:00	4	Temperatura máxima	17.5
28679	7	Sololá	710	Panajachel	8	Panajachel	4	Abril	2023-02-04T00:00:00	2024-11-08T02:00:00	3	Temperatura mínima	16.4
28680	7	Sololá	710	Panajachel	8	Panajachel	4	Abril	2023-02-04T00:00:00	2024-11-08T02:00:00	5	Humedad	73
28681	7	Sololá	710	Panajachel	8	Panajachel	4	Abril	2023-02-04T00:00:00	2024-11-08T02:00:00	6	Velocidad del viento	0
28682	7	Sololá	710	Panajachel	8	Panajachel	4	Abril	2023-02-04T00:00:00	2024-11-08T02:00:00	7	Dirección del viento	0
28683	7	Sololá	710	Panajachel	8	Panajachel	4	Abril	2023-02-04T00:00:00	2024-11-08T02:00:00	1	Precipitación	0
28684	7	Sololá	710	Panajachel	8	Panajachel	4	Abril	2023-02-04T00:00:00	2024-11-08T02:00:00	8	Radiación solar	0
28685	7	Sololá	710	Panajachel	8	Panajachel	4	Abril	2023-02-04T00:00:00	2024-11-08T03:00:00	2	Temperatura media	15.8
28686	7	Sololá	710	Panajachel	8	Panajachel	4	Abril	2023-02-04T00:00:00	2024-11-08T03:00:00	4	Temperatura máxima	16.5
28687	7	Sololá	710	Panajachel	8	Panajachel	4	Abril	2023-02-04T00:00:00	2024-11-08T03:00:00	3	Temperatura mínima	15.8
28688	7	Sololá	710	Panajachel	8	Panajachel	4	Abril	2023-02-04T00:00:00	2024-11-08T03:00:00	5	Humedad	71
28689	7	Sololá	710	Panajachel	8	Panajachel	4	Abril	2023-02-04T00:00:00	2024-11-08T03:00:00	6	Velocidad del viento	0
28690	7	Sololá	710	Panajachel	8	Panajachel	4	Abril	2023-02-04T00:00:00	2024-11-08T03:00:00	7	Dirección del viento	0
28691	7	Sololá	710	Panajachel	8	Panajachel	4	Abril	2023-02-04T00:00:00	2024-11-08T03:00:00	1	Precipitación	0
28692	7	Sololá	710	Panajachel	8	Panajachel	4	Abril	2023-02-04T00:00:00	2024-11-08T03:00:00	8	Radiación solar	0
28693	7	Sololá	710	Panajachel	8	Panajachel	4	Abril	2023-02-04T00:00:00	2024-11-08T04:00:00	2	Temperatura media	15.2
28694	7	Sololá	710	Panajachel	8	Panajachel	4	Abril	2023-02-04T00:00:00	2024-11-08T04:00:00	4	Temperatura máxima	15.8
28695	7	Sololá	710	Panajachel	8	Panajachel	4	Abril	2023-02-04T00:00:00	2024-11-08T04:00:00	3	Temperatura mínima	15.2
28696	7	Sololá	710	Panajachel	8	Panajachel	4	Abril	2023-02-04T00:00:00	2024-11-08T04:00:00	5	Humedad	69
28697	7	Sololá	710	Panajachel	8	Panajachel	4	Abril	2023-02-04T00:00:00	2024-11-08T04:00:00	6	Velocidad del viento	0
28698	7	Sololá	710	Panajachel	8	Panajachel	4	Abril	2023-02-04T00:00:00	2024-11-08T04:00:00	7	Dirección del viento	0
28699	7	Sololá	710	Panajachel	8	Panajachel	4	Abril	2023-02-04T00:00:00	2024-11-08T04:00:00	1	Precipitación	0
28700	7	Sololá	710	Panajachel	8	Panajachel	4	Abril	2023-02-04T00:00:00	2024-11-08T04:00:00	8	Radiación solar	0
28701	7	Sololá	710	Panajachel	8	Panajachel	4	Abril	2023-02-04T00:00:00	2024-11-08T05:00:00	2	Temperatura media	15
28702	7	Sololá	710	Panajachel	8	Panajachel	4	Abril	2023-02-04T00:00:00	2024-11-08T05:00:00	4	Temperatura máxima	15.6
28703	7	Sololá	710	Panajachel	8	Panajachel	4	Abril	2023-02-04T00:00:00	2024-11-08T05:00:00	3	Temperatura mínima	15
28704	7	Sololá	710	Panajachel	8	Panajachel	4	Abril	2023-02-04T00:00:00	2024-11-08T05:00:00	5	Humedad	66
28705	7	Sololá	710	Panajachel	8	Panajachel	4	Abril	2023-02-04T00:00:00	2024-11-08T05:00:00	6	Velocidad del viento	0
28706	7	Sololá	710	Panajachel	8	Panajachel	4	Abril	2023-02-04T00:00:00	2024-11-08T05:00:00	7	Dirección del viento	0
28707	7	Sololá	710	Panajachel	8	Panajachel	4	Abril	2023-02-04T00:00:00	2024-11-08T05:00:00	1	Precipitación	0
28708	7	Sololá	710	Panajachel	8	Panajachel	4	Abril	2023-02-04T00:00:00	2024-11-08T05:00:00	8	Radiación solar	0
28709	7	Sololá	710	Panajachel	8	Panajachel	4	Abril	2023-02-04T00:00:00	2024-11-08T06:00:00	2	Temperatura media	14.8
28710	7	Sololá	710	Panajachel	8	Panajachel	4	Abril	2023-02-04T00:00:00	2024-11-08T06:00:00	4	Temperatura máxima	15.1
28711	7	Sololá	710	Panajachel	8	Panajachel	4	Abril	2023-02-04T00:00:00	2024-11-08T06:00:00	3	Temperatura mínima	14.8
28712	7	Sololá	710	Panajachel	8	Panajachel	4	Abril	2023-02-04T00:00:00	2024-11-08T06:00:00	5	Humedad	63
28713	7	Sololá	710	Panajachel	8	Panajachel	4	Abril	2023-02-04T00:00:00	2024-11-08T06:00:00	6	Velocidad del viento	0
28714	7	Sololá	710	Panajachel	8	Panajachel	4	Abril	2023-02-04T00:00:00	2024-11-08T06:00:00	7	Dirección del viento	0
28715	7	Sololá	710	Panajachel	8	Panajachel	4	Abril	2023-02-04T00:00:00	2024-11-08T06:00:00	1	Precipitación	0
28716	7	Sololá	710	Panajachel	8	Panajachel	4	Abril	2023-02-04T00:00:00	2024-11-08T06:00:00	8	Radiación solar	0
28717	7	Sololá	710	Panajachel	8	Panajachel	4	Abril	2023-02-04T00:00:00	2024-11-08T07:00:00	2	Temperatura media	15.7
28718	7	Sololá	710	Panajachel	8	Panajachel	4	Abril	2023-02-04T00:00:00	2024-11-08T07:00:00	4	Temperatura máxima	15.7
28719	7	Sololá	710	Panajachel	8	Panajachel	4	Abril	2023-02-04T00:00:00	2024-11-08T07:00:00	3	Temperatura mínima	14.7
28720	7	Sololá	710	Panajachel	8	Panajachel	4	Abril	2023-02-04T00:00:00	2024-11-08T07:00:00	5	Humedad	61
28721	7	Sololá	710	Panajachel	8	Panajachel	4	Abril	2023-02-04T00:00:00	2024-11-08T07:00:00	6	Velocidad del viento	0
28722	7	Sololá	710	Panajachel	8	Panajachel	4	Abril	2023-02-04T00:00:00	2024-11-08T07:00:00	7	Dirección del viento	0
28723	7	Sololá	710	Panajachel	8	Panajachel	4	Abril	2023-02-04T00:00:00	2024-11-08T07:00:00	1	Precipitación	0
28724	7	Sololá	710	Panajachel	8	Panajachel	4	Abril	2023-02-04T00:00:00	2024-11-08T07:00:00	8	Radiación solar	40
28725	7	Sololá	710	Panajachel	8	Panajachel	4	Abril	2023-02-04T00:00:00	2024-11-08T08:00:00	2	Temperatura media	18.6
28726	7	Sololá	710	Panajachel	8	Panajachel	4	Abril	2023-02-04T00:00:00	2024-11-08T08:00:00	4	Temperatura máxima	18.6
28727	7	Sololá	710	Panajachel	8	Panajachel	4	Abril	2023-02-04T00:00:00	2024-11-08T08:00:00	3	Temperatura mínima	15.7
28728	7	Sololá	710	Panajachel	8	Panajachel	4	Abril	2023-02-04T00:00:00	2024-11-08T08:00:00	5	Humedad	58
28729	7	Sololá	710	Panajachel	8	Panajachel	4	Abril	2023-02-04T00:00:00	2024-11-08T08:00:00	6	Velocidad del viento	0
28730	7	Sololá	710	Panajachel	8	Panajachel	4	Abril	2023-02-04T00:00:00	2024-11-08T08:00:00	7	Dirección del viento	0
28731	7	Sololá	710	Panajachel	8	Panajachel	4	Abril	2023-02-04T00:00:00	2024-11-08T08:00:00	1	Precipitación	0
28732	7	Sololá	710	Panajachel	8	Panajachel	4	Abril	2023-02-04T00:00:00	2024-11-08T08:00:00	8	Radiación solar	300
28733	7	Sololá	710	Panajachel	8	Panajachel	4	Abril	2023-02-04T00:00:00	2024-11-08T09:00:00	2	Temperatura media	19.6
28734	7	Sololá	710	Panajachel	8	Panajachel	4	Abril	2023-02-04T00:00:00	2024-11-08T09:00:00	4	Temperatura máxima	19.6
28735	7	Sololá	710	Panajachel	8	Panajachel	4	Abril	2023-02-04T00:00:00	2024-11-08T09:00:00	3	Temperatura mínima	18.5
28736	7	Sololá	710	Panajachel	8	Panajachel	4	Abril	2023-02-04T00:00:00	2024-11-08T09:00:00	5	Humedad	59
28737	7	Sololá	710	Panajachel	8	Panajachel	4	Abril	2023-02-04T00:00:00	2024-11-08T09:00:00	6	Velocidad del viento	0
28738	7	Sololá	710	Panajachel	8	Panajachel	4	Abril	2023-02-04T00:00:00	2024-11-08T09:00:00	7	Dirección del viento	0
28739	7	Sololá	710	Panajachel	8	Panajachel	4	Abril	2023-02-04T00:00:00	2024-11-08T09:00:00	1	Precipitación	0
28740	7	Sololá	710	Panajachel	8	Panajachel	4	Abril	2023-02-04T00:00:00	2024-11-08T09:00:00	8	Radiación solar	532
28741	7	Sololá	710	Panajachel	8	Panajachel	4	Abril	2023-02-04T00:00:00	2024-11-08T10:00:00	2	Temperatura media	20.7
28742	7	Sololá	710	Panajachel	8	Panajachel	4	Abril	2023-02-04T00:00:00	2024-11-08T10:00:00	4	Temperatura máxima	20.7
28743	7	Sololá	710	Panajachel	8	Panajachel	4	Abril	2023-02-04T00:00:00	2024-11-08T10:00:00	3	Temperatura mínima	19.6
28744	7	Sololá	710	Panajachel	8	Panajachel	4	Abril	2023-02-04T00:00:00	2024-11-08T10:00:00	5	Humedad	55
28745	7	Sololá	710	Panajachel	8	Panajachel	4	Abril	2023-02-04T00:00:00	2024-11-08T10:00:00	6	Velocidad del viento	0
28746	7	Sololá	710	Panajachel	8	Panajachel	4	Abril	2023-02-04T00:00:00	2024-11-08T10:00:00	7	Dirección del viento	0
28747	7	Sololá	710	Panajachel	8	Panajachel	4	Abril	2023-02-04T00:00:00	2024-11-08T10:00:00	1	Precipitación	0
28748	7	Sololá	710	Panajachel	8	Panajachel	4	Abril	2023-02-04T00:00:00	2024-11-08T10:00:00	8	Radiación solar	733
28749	7	Sololá	710	Panajachel	8	Panajachel	4	Abril	2023-02-04T00:00:00	2024-11-08T11:00:00	2	Temperatura media	23.1
28750	7	Sololá	710	Panajachel	8	Panajachel	4	Abril	2023-02-04T00:00:00	2024-11-08T11:00:00	4	Temperatura máxima	23.1
28751	7	Sololá	710	Panajachel	8	Panajachel	4	Abril	2023-02-04T00:00:00	2024-11-08T11:00:00	3	Temperatura mínima	20.8
28752	7	Sololá	710	Panajachel	8	Panajachel	4	Abril	2023-02-04T00:00:00	2024-11-08T11:00:00	5	Humedad	55
28753	7	Sololá	710	Panajachel	8	Panajachel	4	Abril	2023-02-04T00:00:00	2024-11-08T11:00:00	6	Velocidad del viento	0
28754	7	Sololá	710	Panajachel	8	Panajachel	4	Abril	2023-02-04T00:00:00	2024-11-08T11:00:00	7	Dirección del viento	0
28755	7	Sololá	710	Panajachel	8	Panajachel	4	Abril	2023-02-04T00:00:00	2024-11-08T11:00:00	1	Precipitación	0
28756	7	Sololá	710	Panajachel	8	Panajachel	4	Abril	2023-02-04T00:00:00	2024-11-08T11:00:00	8	Radiación solar	876
28757	7	Sololá	710	Panajachel	8	Panajachel	4	Abril	2023-02-04T00:00:00	2024-11-08T12:00:00	2	Temperatura media	23.3
28758	7	Sololá	710	Panajachel	8	Panajachel	4	Abril	2023-02-04T00:00:00	2024-11-08T12:00:00	4	Temperatura máxima	24.6
28759	7	Sololá	710	Panajachel	8	Panajachel	4	Abril	2023-02-04T00:00:00	2024-11-08T12:00:00	3	Temperatura mínima	23.1
28760	7	Sololá	710	Panajachel	8	Panajachel	4	Abril	2023-02-04T00:00:00	2024-11-08T12:00:00	5	Humedad	63
28761	7	Sololá	710	Panajachel	8	Panajachel	4	Abril	2023-02-04T00:00:00	2024-11-08T12:00:00	6	Velocidad del viento	3.2
28762	7	Sololá	710	Panajachel	8	Panajachel	4	Abril	2023-02-04T00:00:00	2024-11-08T12:00:00	7	Dirección del viento	3.22
28763	7	Sololá	710	Panajachel	8	Panajachel	4	Abril	2023-02-04T00:00:00	2024-11-08T12:00:00	1	Precipitación	0
28764	7	Sololá	710	Panajachel	8	Panajachel	4	Abril	2023-02-04T00:00:00	2024-11-08T12:00:00	8	Radiación solar	961
28765	7	Sololá	710	Panajachel	8	Panajachel	4	Abril	2023-02-04T00:00:00	2024-11-08T13:00:00	2	Temperatura media	23.2
28766	7	Sololá	710	Panajachel	8	Panajachel	4	Abril	2023-02-04T00:00:00	2024-11-08T13:00:00	4	Temperatura máxima	24.4
28767	7	Sololá	710	Panajachel	8	Panajachel	4	Abril	2023-02-04T00:00:00	2024-11-08T13:00:00	3	Temperatura mínima	23.1
28768	7	Sololá	710	Panajachel	8	Panajachel	4	Abril	2023-02-04T00:00:00	2024-11-08T13:00:00	5	Humedad	70
28769	7	Sololá	710	Panajachel	8	Panajachel	4	Abril	2023-02-04T00:00:00	2024-11-08T13:00:00	6	Velocidad del viento	6.4
28770	7	Sololá	710	Panajachel	8	Panajachel	4	Abril	2023-02-04T00:00:00	2024-11-08T13:00:00	7	Dirección del viento	6.44
28771	7	Sololá	710	Panajachel	8	Panajachel	4	Abril	2023-02-04T00:00:00	2024-11-08T13:00:00	1	Precipitación	0
28772	7	Sololá	710	Panajachel	8	Panajachel	4	Abril	2023-02-04T00:00:00	2024-11-08T13:00:00	8	Radiación solar	959
28773	7	Sololá	710	Panajachel	8	Panajachel	4	Abril	2023-02-04T00:00:00	2024-11-08T14:00:00	2	Temperatura media	23.3
28774	7	Sololá	710	Panajachel	8	Panajachel	4	Abril	2023-02-04T00:00:00	2024-11-08T14:00:00	4	Temperatura máxima	24.1
28775	7	Sololá	710	Panajachel	8	Panajachel	4	Abril	2023-02-04T00:00:00	2024-11-08T14:00:00	3	Temperatura mínima	23.1
28776	7	Sololá	710	Panajachel	8	Panajachel	4	Abril	2023-02-04T00:00:00	2024-11-08T14:00:00	5	Humedad	71
28777	7	Sololá	710	Panajachel	8	Panajachel	4	Abril	2023-02-04T00:00:00	2024-11-08T14:00:00	6	Velocidad del viento	8
28778	7	Sololá	710	Panajachel	8	Panajachel	4	Abril	2023-02-04T00:00:00	2024-11-08T14:00:00	7	Dirección del viento	8.05
28779	7	Sololá	710	Panajachel	8	Panajachel	4	Abril	2023-02-04T00:00:00	2024-11-08T14:00:00	1	Precipitación	0
28780	7	Sololá	710	Panajachel	8	Panajachel	4	Abril	2023-02-04T00:00:00	2024-11-08T14:00:00	8	Radiación solar	890
28781	7	Sololá	710	Panajachel	8	Panajachel	4	Abril	2023-02-04T00:00:00	2024-11-08T15:00:00	2	Temperatura media	23.6
28782	7	Sololá	710	Panajachel	8	Panajachel	4	Abril	2023-02-04T00:00:00	2024-11-08T15:00:00	4	Temperatura máxima	23.7
28783	7	Sololá	710	Panajachel	8	Panajachel	4	Abril	2023-02-04T00:00:00	2024-11-08T15:00:00	3	Temperatura mínima	23.3
28784	7	Sololá	710	Panajachel	8	Panajachel	4	Abril	2023-02-04T00:00:00	2024-11-08T15:00:00	5	Humedad	72
28785	7	Sololá	710	Panajachel	8	Panajachel	4	Abril	2023-02-04T00:00:00	2024-11-08T15:00:00	6	Velocidad del viento	8
28786	7	Sololá	710	Panajachel	8	Panajachel	4	Abril	2023-02-04T00:00:00	2024-11-08T15:00:00	7	Dirección del viento	8.05
28787	7	Sololá	710	Panajachel	8	Panajachel	4	Abril	2023-02-04T00:00:00	2024-11-08T15:00:00	1	Precipitación	0
28788	7	Sololá	710	Panajachel	8	Panajachel	4	Abril	2023-02-04T00:00:00	2024-11-08T15:00:00	8	Radiación solar	748
28789	7	Sololá	710	Panajachel	8	Panajachel	4	Abril	2023-02-04T00:00:00	2024-11-08T16:00:00	2	Temperatura media	23.4
28790	7	Sololá	710	Panajachel	8	Panajachel	4	Abril	2023-02-04T00:00:00	2024-11-08T16:00:00	4	Temperatura máxima	24.2
28791	7	Sololá	710	Panajachel	8	Panajachel	4	Abril	2023-02-04T00:00:00	2024-11-08T16:00:00	3	Temperatura mínima	23.3
28792	7	Sololá	710	Panajachel	8	Panajachel	4	Abril	2023-02-04T00:00:00	2024-11-08T16:00:00	5	Humedad	75
28793	7	Sololá	710	Panajachel	8	Panajachel	4	Abril	2023-02-04T00:00:00	2024-11-08T16:00:00	6	Velocidad del viento	4.8
28794	7	Sololá	710	Panajachel	8	Panajachel	4	Abril	2023-02-04T00:00:00	2024-11-08T16:00:00	7	Dirección del viento	4.83
28795	7	Sololá	710	Panajachel	8	Panajachel	4	Abril	2023-02-04T00:00:00	2024-11-08T16:00:00	1	Precipitación	0
28796	7	Sololá	710	Panajachel	8	Panajachel	4	Abril	2023-02-04T00:00:00	2024-11-08T16:00:00	8	Radiación solar	406
28797	7	Sololá	710	Panajachel	8	Panajachel	4	Abril	2023-02-04T00:00:00	2024-11-08T17:00:00	2	Temperatura media	22.7
28798	7	Sololá	710	Panajachel	8	Panajachel	4	Abril	2023-02-04T00:00:00	2024-11-08T17:00:00	4	Temperatura máxima	23.7
28799	7	Sololá	710	Panajachel	8	Panajachel	4	Abril	2023-02-04T00:00:00	2024-11-08T17:00:00	3	Temperatura mínima	22.7
28800	7	Sololá	710	Panajachel	8	Panajachel	4	Abril	2023-02-04T00:00:00	2024-11-08T17:00:00	5	Humedad	76
28801	7	Sololá	710	Panajachel	8	Panajachel	4	Abril	2023-02-04T00:00:00	2024-11-08T17:00:00	6	Velocidad del viento	3.2
28802	7	Sololá	710	Panajachel	8	Panajachel	4	Abril	2023-02-04T00:00:00	2024-11-08T17:00:00	7	Dirección del viento	3.22
28803	7	Sololá	710	Panajachel	8	Panajachel	4	Abril	2023-02-04T00:00:00	2024-11-08T17:00:00	1	Precipitación	0
28804	7	Sololá	710	Panajachel	8	Panajachel	4	Abril	2023-02-04T00:00:00	2024-11-08T17:00:00	8	Radiación solar	85
28805	7	Sololá	710	Panajachel	8	Panajachel	4	Abril	2023-02-04T00:00:00	2024-11-08T18:00:00	2	Temperatura media	21.7
28806	7	Sololá	710	Panajachel	8	Panajachel	4	Abril	2023-02-04T00:00:00	2024-11-08T18:00:00	4	Temperatura máxima	23.1
28807	7	Sololá	710	Panajachel	8	Panajachel	4	Abril	2023-02-04T00:00:00	2024-11-08T18:00:00	3	Temperatura mínima	21.7
28808	7	Sololá	710	Panajachel	8	Panajachel	4	Abril	2023-02-04T00:00:00	2024-11-08T18:00:00	5	Humedad	80
28809	7	Sololá	710	Panajachel	8	Panajachel	4	Abril	2023-02-04T00:00:00	2024-11-08T18:00:00	6	Velocidad del viento	1.6
28810	7	Sololá	710	Panajachel	8	Panajachel	4	Abril	2023-02-04T00:00:00	2024-11-08T18:00:00	7	Dirección del viento	1.61
28811	7	Sololá	710	Panajachel	8	Panajachel	4	Abril	2023-02-04T00:00:00	2024-11-08T18:00:00	1	Precipitación	0
28812	7	Sololá	710	Panajachel	8	Panajachel	4	Abril	2023-02-04T00:00:00	2024-11-08T18:00:00	8	Radiación solar	87
28813	7	Sololá	710	Panajachel	8	Panajachel	4	Abril	2023-02-04T00:00:00	2024-11-08T19:00:00	2	Temperatura media	20.1
28814	7	Sololá	710	Panajachel	8	Panajachel	4	Abril	2023-02-04T00:00:00	2024-11-08T19:00:00	4	Temperatura máxima	21.7
28815	7	Sololá	710	Panajachel	8	Panajachel	4	Abril	2023-02-04T00:00:00	2024-11-08T19:00:00	3	Temperatura mínima	20.1
28816	7	Sololá	710	Panajachel	8	Panajachel	4	Abril	2023-02-04T00:00:00	2024-11-08T19:00:00	5	Humedad	88
28817	7	Sololá	710	Panajachel	8	Panajachel	4	Abril	2023-02-04T00:00:00	2024-11-08T19:00:00	6	Velocidad del viento	0
28818	7	Sololá	710	Panajachel	8	Panajachel	4	Abril	2023-02-04T00:00:00	2024-11-08T19:00:00	7	Dirección del viento	0
28819	7	Sololá	710	Panajachel	8	Panajachel	4	Abril	2023-02-04T00:00:00	2024-11-08T19:00:00	1	Precipitación	0
28820	7	Sololá	710	Panajachel	8	Panajachel	4	Abril	2023-02-04T00:00:00	2024-11-08T19:00:00	8	Radiación solar	0
28821	7	Sololá	710	Panajachel	8	Panajachel	4	Abril	2023-02-04T00:00:00	2024-11-08T20:00:00	2	Temperatura media	19.4
28822	7	Sololá	710	Panajachel	8	Panajachel	4	Abril	2023-02-04T00:00:00	2024-11-08T20:00:00	4	Temperatura máxima	20.1
28823	7	Sololá	710	Panajachel	8	Panajachel	4	Abril	2023-02-04T00:00:00	2024-11-08T20:00:00	3	Temperatura mínima	19.4
28824	7	Sololá	710	Panajachel	8	Panajachel	4	Abril	2023-02-04T00:00:00	2024-11-08T20:00:00	5	Humedad	86
28825	7	Sololá	710	Panajachel	8	Panajachel	4	Abril	2023-02-04T00:00:00	2024-11-08T20:00:00	6	Velocidad del viento	0
28826	7	Sololá	710	Panajachel	8	Panajachel	4	Abril	2023-02-04T00:00:00	2024-11-08T20:00:00	7	Dirección del viento	0
28827	7	Sololá	710	Panajachel	8	Panajachel	4	Abril	2023-02-04T00:00:00	2024-11-08T20:00:00	1	Precipitación	0
28828	7	Sololá	710	Panajachel	8	Panajachel	4	Abril	2023-02-04T00:00:00	2024-11-08T20:00:00	8	Radiación solar	0
28829	7	Sololá	710	Panajachel	8	Panajachel	4	Abril	2023-02-04T00:00:00	2024-11-08T21:00:00	2	Temperatura media	18.3
28830	7	Sololá	710	Panajachel	8	Panajachel	4	Abril	2023-02-04T00:00:00	2024-11-08T21:00:00	4	Temperatura máxima	19.5
28831	7	Sololá	710	Panajachel	8	Panajachel	4	Abril	2023-02-04T00:00:00	2024-11-08T21:00:00	3	Temperatura mínima	18.3
28832	7	Sololá	710	Panajachel	8	Panajachel	4	Abril	2023-02-04T00:00:00	2024-11-08T21:00:00	5	Humedad	83
28833	7	Sololá	710	Panajachel	8	Panajachel	4	Abril	2023-02-04T00:00:00	2024-11-08T21:00:00	6	Velocidad del viento	0
28834	7	Sololá	710	Panajachel	8	Panajachel	4	Abril	2023-02-04T00:00:00	2024-11-08T21:00:00	7	Dirección del viento	0
28835	7	Sololá	710	Panajachel	8	Panajachel	4	Abril	2023-02-04T00:00:00	2024-11-08T21:00:00	1	Precipitación	0
28836	7	Sololá	710	Panajachel	8	Panajachel	4	Abril	2023-02-04T00:00:00	2024-11-08T21:00:00	8	Radiación solar	0
28837	7	Sololá	710	Panajachel	8	Panajachel	4	Abril	2023-02-04T00:00:00	2024-11-08T22:00:00	2	Temperatura media	19.4
28838	7	Sololá	710	Panajachel	8	Panajachel	4	Abril	2023-02-04T00:00:00	2024-11-08T22:00:00	4	Temperatura máxima	19.9
28839	7	Sololá	710	Panajachel	8	Panajachel	4	Abril	2023-02-04T00:00:00	2024-11-08T22:00:00	3	Temperatura mínima	18.3
28840	7	Sololá	710	Panajachel	8	Panajachel	4	Abril	2023-02-04T00:00:00	2024-11-08T22:00:00	5	Humedad	71
28841	7	Sololá	710	Panajachel	8	Panajachel	4	Abril	2023-02-04T00:00:00	2024-11-08T22:00:00	6	Velocidad del viento	1.6
28842	7	Sololá	710	Panajachel	8	Panajachel	4	Abril	2023-02-04T00:00:00	2024-11-08T22:00:00	7	Dirección del viento	1.61
28843	7	Sololá	710	Panajachel	8	Panajachel	4	Abril	2023-02-04T00:00:00	2024-11-08T22:00:00	1	Precipitación	0
28844	7	Sololá	710	Panajachel	8	Panajachel	4	Abril	2023-02-04T00:00:00	2024-11-08T22:00:00	8	Radiación solar	0
28845	7	Sololá	710	Panajachel	8	Panajachel	4	Abril	2023-02-04T00:00:00	2024-11-08T23:00:00	2	Temperatura media	18.4
28846	7	Sololá	710	Panajachel	8	Panajachel	4	Abril	2023-02-04T00:00:00	2024-11-08T23:00:00	4	Temperatura máxima	20
28847	7	Sololá	710	Panajachel	8	Panajachel	4	Abril	2023-02-04T00:00:00	2024-11-08T23:00:00	3	Temperatura mínima	18.4
28848	7	Sololá	710	Panajachel	8	Panajachel	4	Abril	2023-02-04T00:00:00	2024-11-08T23:00:00	5	Humedad	73
28849	7	Sololá	710	Panajachel	8	Panajachel	4	Abril	2023-02-04T00:00:00	2024-11-08T23:00:00	6	Velocidad del viento	0
28850	7	Sololá	710	Panajachel	8	Panajachel	4	Abril	2023-02-04T00:00:00	2024-11-08T23:00:00	7	Dirección del viento	0
28851	7	Sololá	710	Panajachel	8	Panajachel	4	Abril	2023-02-04T00:00:00	2024-11-08T23:00:00	1	Precipitación	0
28852	7	Sololá	710	Panajachel	8	Panajachel	4	Abril	2023-02-04T00:00:00	2024-11-08T23:00:00	8	Radiación solar	0
28853	7	Sololá	710	Panajachel	8	Panajachel	4	Abril	2023-03-04T00:00:00	2024-11-08T00:00:00	2	Temperatura media	17.4
28854	7	Sololá	710	Panajachel	8	Panajachel	4	Abril	2023-03-04T00:00:00	2024-11-08T00:00:00	4	Temperatura máxima	18.4
28855	7	Sololá	710	Panajachel	8	Panajachel	4	Abril	2023-03-04T00:00:00	2024-11-08T00:00:00	3	Temperatura mínima	17.4
28856	7	Sololá	710	Panajachel	8	Panajachel	4	Abril	2023-03-04T00:00:00	2024-11-08T00:00:00	5	Humedad	74
28857	7	Sololá	710	Panajachel	8	Panajachel	4	Abril	2023-03-04T00:00:00	2024-11-08T00:00:00	6	Velocidad del viento	0
28858	7	Sololá	710	Panajachel	8	Panajachel	4	Abril	2023-03-04T00:00:00	2024-11-08T00:00:00	7	Dirección del viento	0
28859	7	Sololá	710	Panajachel	8	Panajachel	4	Abril	2023-03-04T00:00:00	2024-11-08T00:00:00	1	Precipitación	0
28860	7	Sololá	710	Panajachel	8	Panajachel	4	Abril	2023-03-04T00:00:00	2024-11-08T00:00:00	8	Radiación solar	0
28861	7	Sololá	710	Panajachel	8	Panajachel	4	Abril	2023-03-04T00:00:00	2024-11-08T01:00:00	2	Temperatura media	16.8
28862	7	Sololá	710	Panajachel	8	Panajachel	4	Abril	2023-03-04T00:00:00	2024-11-08T01:00:00	4	Temperatura máxima	17.4
28863	7	Sololá	710	Panajachel	8	Panajachel	4	Abril	2023-03-04T00:00:00	2024-11-08T01:00:00	3	Temperatura mínima	16.6
28864	7	Sololá	710	Panajachel	8	Panajachel	4	Abril	2023-03-04T00:00:00	2024-11-08T01:00:00	5	Humedad	72
28865	7	Sololá	710	Panajachel	8	Panajachel	4	Abril	2023-03-04T00:00:00	2024-11-08T01:00:00	6	Velocidad del viento	0
28866	7	Sololá	710	Panajachel	8	Panajachel	4	Abril	2023-03-04T00:00:00	2024-11-08T01:00:00	7	Dirección del viento	0
28867	7	Sololá	710	Panajachel	8	Panajachel	4	Abril	2023-03-04T00:00:00	2024-11-08T01:00:00	1	Precipitación	0
28868	7	Sololá	710	Panajachel	8	Panajachel	4	Abril	2023-03-04T00:00:00	2024-11-08T01:00:00	8	Radiación solar	0
28869	7	Sololá	710	Panajachel	8	Panajachel	4	Abril	2023-03-04T00:00:00	2024-11-08T02:00:00	2	Temperatura media	16.1
28870	7	Sololá	710	Panajachel	8	Panajachel	4	Abril	2023-03-04T00:00:00	2024-11-08T02:00:00	4	Temperatura máxima	16.8
28871	7	Sololá	710	Panajachel	8	Panajachel	4	Abril	2023-03-04T00:00:00	2024-11-08T02:00:00	3	Temperatura mínima	16
28872	7	Sololá	710	Panajachel	8	Panajachel	4	Abril	2023-03-04T00:00:00	2024-11-08T02:00:00	5	Humedad	69
28873	7	Sololá	710	Panajachel	8	Panajachel	4	Abril	2023-03-04T00:00:00	2024-11-08T02:00:00	6	Velocidad del viento	1.6
28874	7	Sololá	710	Panajachel	8	Panajachel	4	Abril	2023-03-04T00:00:00	2024-11-08T02:00:00	7	Dirección del viento	1.61
28875	7	Sololá	710	Panajachel	8	Panajachel	4	Abril	2023-03-04T00:00:00	2024-11-08T02:00:00	1	Precipitación	0
28876	7	Sololá	710	Panajachel	8	Panajachel	4	Abril	2023-03-04T00:00:00	2024-11-08T02:00:00	8	Radiación solar	0
28877	7	Sololá	710	Panajachel	8	Panajachel	4	Abril	2023-03-04T00:00:00	2024-11-08T03:00:00	2	Temperatura media	15.3
28878	7	Sololá	710	Panajachel	8	Panajachel	4	Abril	2023-03-04T00:00:00	2024-11-08T03:00:00	4	Temperatura máxima	16
28879	7	Sololá	710	Panajachel	8	Panajachel	4	Abril	2023-03-04T00:00:00	2024-11-08T03:00:00	3	Temperatura mínima	15.3
28880	7	Sololá	710	Panajachel	8	Panajachel	4	Abril	2023-03-04T00:00:00	2024-11-08T03:00:00	5	Humedad	65
28881	7	Sololá	710	Panajachel	8	Panajachel	4	Abril	2023-03-04T00:00:00	2024-11-08T03:00:00	6	Velocidad del viento	1.6
28882	7	Sololá	710	Panajachel	8	Panajachel	4	Abril	2023-03-04T00:00:00	2024-11-08T03:00:00	7	Dirección del viento	1.61
28883	7	Sololá	710	Panajachel	8	Panajachel	4	Abril	2023-03-04T00:00:00	2024-11-08T03:00:00	1	Precipitación	0
28884	7	Sololá	710	Panajachel	8	Panajachel	4	Abril	2023-03-04T00:00:00	2024-11-08T03:00:00	8	Radiación solar	0
28885	7	Sololá	710	Panajachel	8	Panajachel	4	Abril	2023-03-04T00:00:00	2024-11-08T04:00:00	2	Temperatura media	15
28886	7	Sololá	710	Panajachel	8	Panajachel	4	Abril	2023-03-04T00:00:00	2024-11-08T04:00:00	4	Temperatura máxima	15.3
28887	7	Sololá	710	Panajachel	8	Panajachel	4	Abril	2023-03-04T00:00:00	2024-11-08T04:00:00	3	Temperatura mínima	15
28888	7	Sololá	710	Panajachel	8	Panajachel	4	Abril	2023-03-04T00:00:00	2024-11-08T04:00:00	5	Humedad	63
28889	7	Sololá	710	Panajachel	8	Panajachel	4	Abril	2023-03-04T00:00:00	2024-11-08T04:00:00	6	Velocidad del viento	0
28890	7	Sololá	710	Panajachel	8	Panajachel	4	Abril	2023-03-04T00:00:00	2024-11-08T04:00:00	7	Dirección del viento	0
28891	7	Sololá	710	Panajachel	8	Panajachel	4	Abril	2023-03-04T00:00:00	2024-11-08T04:00:00	1	Precipitación	0
28892	7	Sololá	710	Panajachel	8	Panajachel	4	Abril	2023-03-04T00:00:00	2024-11-08T04:00:00	8	Radiación solar	0
28893	7	Sololá	710	Panajachel	8	Panajachel	4	Abril	2023-03-04T00:00:00	2024-11-08T05:00:00	2	Temperatura media	14.8
28894	7	Sololá	710	Panajachel	8	Panajachel	4	Abril	2023-03-04T00:00:00	2024-11-08T05:00:00	4	Temperatura máxima	15
28895	7	Sololá	710	Panajachel	8	Panajachel	4	Abril	2023-03-04T00:00:00	2024-11-08T05:00:00	3	Temperatura mínima	14.8
28896	7	Sololá	710	Panajachel	8	Panajachel	4	Abril	2023-03-04T00:00:00	2024-11-08T05:00:00	5	Humedad	63
28897	7	Sololá	710	Panajachel	8	Panajachel	4	Abril	2023-03-04T00:00:00	2024-11-08T05:00:00	6	Velocidad del viento	1.6
28898	7	Sololá	710	Panajachel	8	Panajachel	4	Abril	2023-03-04T00:00:00	2024-11-08T05:00:00	7	Dirección del viento	1.61
28899	7	Sololá	710	Panajachel	8	Panajachel	4	Abril	2023-03-04T00:00:00	2024-11-08T05:00:00	1	Precipitación	0
28900	7	Sololá	710	Panajachel	8	Panajachel	4	Abril	2023-03-04T00:00:00	2024-11-08T05:00:00	8	Radiación solar	0
28901	7	Sololá	710	Panajachel	8	Panajachel	4	Abril	2023-03-04T00:00:00	2024-11-08T06:00:00	2	Temperatura media	14.6
28902	7	Sololá	710	Panajachel	8	Panajachel	4	Abril	2023-03-04T00:00:00	2024-11-08T06:00:00	4	Temperatura máxima	14.8
28903	7	Sololá	710	Panajachel	8	Panajachel	4	Abril	2023-03-04T00:00:00	2024-11-08T06:00:00	3	Temperatura mínima	14.3
28904	7	Sololá	710	Panajachel	8	Panajachel	4	Abril	2023-03-04T00:00:00	2024-11-08T06:00:00	5	Humedad	65
28905	7	Sololá	710	Panajachel	8	Panajachel	4	Abril	2023-03-04T00:00:00	2024-11-08T06:00:00	6	Velocidad del viento	0
28906	7	Sololá	710	Panajachel	8	Panajachel	4	Abril	2023-03-04T00:00:00	2024-11-08T06:00:00	7	Dirección del viento	0
28907	7	Sololá	710	Panajachel	8	Panajachel	4	Abril	2023-03-04T00:00:00	2024-11-08T06:00:00	1	Precipitación	0
28908	7	Sololá	710	Panajachel	8	Panajachel	4	Abril	2023-03-04T00:00:00	2024-11-08T06:00:00	8	Radiación solar	0
28909	7	Sololá	710	Panajachel	8	Panajachel	4	Abril	2023-03-04T00:00:00	2024-11-08T07:00:00	2	Temperatura media	15.7
28910	7	Sololá	710	Panajachel	8	Panajachel	4	Abril	2023-03-04T00:00:00	2024-11-08T07:00:00	4	Temperatura máxima	15.7
28911	7	Sololá	710	Panajachel	8	Panajachel	4	Abril	2023-03-04T00:00:00	2024-11-08T07:00:00	3	Temperatura mínima	14.4
28912	7	Sololá	710	Panajachel	8	Panajachel	4	Abril	2023-03-04T00:00:00	2024-11-08T07:00:00	5	Humedad	66
28913	7	Sololá	710	Panajachel	8	Panajachel	4	Abril	2023-03-04T00:00:00	2024-11-08T07:00:00	6	Velocidad del viento	0
28914	7	Sololá	710	Panajachel	8	Panajachel	4	Abril	2023-03-04T00:00:00	2024-11-08T07:00:00	7	Dirección del viento	0
28915	7	Sololá	710	Panajachel	8	Panajachel	4	Abril	2023-03-04T00:00:00	2024-11-08T07:00:00	1	Precipitación	0
28916	7	Sololá	710	Panajachel	8	Panajachel	4	Abril	2023-03-04T00:00:00	2024-11-08T07:00:00	8	Radiación solar	57
28917	7	Sololá	710	Panajachel	8	Panajachel	4	Abril	2023-03-04T00:00:00	2024-11-08T08:00:00	2	Temperatura media	18.9
28918	7	Sololá	710	Panajachel	8	Panajachel	4	Abril	2023-03-04T00:00:00	2024-11-08T08:00:00	4	Temperatura máxima	19.1
28919	7	Sololá	710	Panajachel	8	Panajachel	4	Abril	2023-03-04T00:00:00	2024-11-08T08:00:00	3	Temperatura mínima	15.7
28920	7	Sololá	710	Panajachel	8	Panajachel	4	Abril	2023-03-04T00:00:00	2024-11-08T08:00:00	5	Humedad	62
28921	7	Sololá	710	Panajachel	8	Panajachel	4	Abril	2023-03-04T00:00:00	2024-11-08T08:00:00	6	Velocidad del viento	0
28922	7	Sololá	710	Panajachel	8	Panajachel	4	Abril	2023-03-04T00:00:00	2024-11-08T08:00:00	7	Dirección del viento	0
28923	7	Sololá	710	Panajachel	8	Panajachel	4	Abril	2023-03-04T00:00:00	2024-11-08T08:00:00	1	Precipitación	0
28924	7	Sololá	710	Panajachel	8	Panajachel	4	Abril	2023-03-04T00:00:00	2024-11-08T08:00:00	8	Radiación solar	269
28925	7	Sololá	710	Panajachel	8	Panajachel	4	Abril	2023-03-04T00:00:00	2024-11-08T09:00:00	2	Temperatura media	19.7
28926	7	Sololá	710	Panajachel	8	Panajachel	4	Abril	2023-03-04T00:00:00	2024-11-08T09:00:00	4	Temperatura máxima	19.8
28927	7	Sololá	710	Panajachel	8	Panajachel	4	Abril	2023-03-04T00:00:00	2024-11-08T09:00:00	3	Temperatura mínima	18.8
28928	7	Sololá	710	Panajachel	8	Panajachel	4	Abril	2023-03-04T00:00:00	2024-11-08T09:00:00	5	Humedad	70
28929	7	Sololá	710	Panajachel	8	Panajachel	4	Abril	2023-03-04T00:00:00	2024-11-08T09:00:00	6	Velocidad del viento	0
28930	7	Sololá	710	Panajachel	8	Panajachel	4	Abril	2023-03-04T00:00:00	2024-11-08T09:00:00	7	Dirección del viento	0
28931	7	Sololá	710	Panajachel	8	Panajachel	4	Abril	2023-03-04T00:00:00	2024-11-08T09:00:00	1	Precipitación	0
28932	7	Sololá	710	Panajachel	8	Panajachel	4	Abril	2023-03-04T00:00:00	2024-11-08T09:00:00	8	Radiación solar	511
28933	7	Sololá	710	Panajachel	8	Panajachel	4	Abril	2023-03-04T00:00:00	2024-11-08T10:00:00	2	Temperatura media	20.3
28934	7	Sololá	710	Panajachel	8	Panajachel	4	Abril	2023-03-04T00:00:00	2024-11-08T10:00:00	4	Temperatura máxima	20.4
28935	7	Sololá	710	Panajachel	8	Panajachel	4	Abril	2023-03-04T00:00:00	2024-11-08T10:00:00	3	Temperatura mínima	19.4
28936	7	Sololá	710	Panajachel	8	Panajachel	4	Abril	2023-03-04T00:00:00	2024-11-08T10:00:00	5	Humedad	69
28937	7	Sololá	710	Panajachel	8	Panajachel	4	Abril	2023-03-04T00:00:00	2024-11-08T10:00:00	6	Velocidad del viento	0
28938	7	Sololá	710	Panajachel	8	Panajachel	4	Abril	2023-03-04T00:00:00	2024-11-08T10:00:00	7	Dirección del viento	0
28939	7	Sololá	710	Panajachel	8	Panajachel	4	Abril	2023-03-04T00:00:00	2024-11-08T10:00:00	1	Precipitación	0
28940	7	Sololá	710	Panajachel	8	Panajachel	4	Abril	2023-03-04T00:00:00	2024-11-08T10:00:00	8	Radiación solar	716
28941	7	Sololá	710	Panajachel	8	Panajachel	4	Abril	2023-03-04T00:00:00	2024-11-08T11:00:00	2	Temperatura media	21.8
28942	7	Sololá	710	Panajachel	8	Panajachel	4	Abril	2023-03-04T00:00:00	2024-11-08T11:00:00	4	Temperatura máxima	22.1
28943	7	Sololá	710	Panajachel	8	Panajachel	4	Abril	2023-03-04T00:00:00	2024-11-08T11:00:00	3	Temperatura mínima	20.2
28944	7	Sololá	710	Panajachel	8	Panajachel	4	Abril	2023-03-04T00:00:00	2024-11-08T11:00:00	5	Humedad	64
28945	7	Sololá	710	Panajachel	8	Panajachel	4	Abril	2023-03-04T00:00:00	2024-11-08T11:00:00	6	Velocidad del viento	0
28946	7	Sololá	710	Panajachel	8	Panajachel	4	Abril	2023-03-04T00:00:00	2024-11-08T11:00:00	7	Dirección del viento	0
28947	7	Sololá	710	Panajachel	8	Panajachel	4	Abril	2023-03-04T00:00:00	2024-11-08T11:00:00	1	Precipitación	0
28948	7	Sololá	710	Panajachel	8	Panajachel	4	Abril	2023-03-04T00:00:00	2024-11-08T11:00:00	8	Radiación solar	852
28949	7	Sololá	710	Panajachel	8	Panajachel	4	Abril	2023-03-04T00:00:00	2024-11-08T12:00:00	2	Temperatura media	21.8
28950	7	Sololá	710	Panajachel	8	Panajachel	4	Abril	2023-03-04T00:00:00	2024-11-08T12:00:00	4	Temperatura máxima	22.9
28951	7	Sololá	710	Panajachel	8	Panajachel	4	Abril	2023-03-04T00:00:00	2024-11-08T12:00:00	3	Temperatura mínima	21.4
28952	7	Sololá	710	Panajachel	8	Panajachel	4	Abril	2023-03-04T00:00:00	2024-11-08T12:00:00	5	Humedad	70
28953	7	Sololá	710	Panajachel	8	Panajachel	4	Abril	2023-03-04T00:00:00	2024-11-08T12:00:00	6	Velocidad del viento	0
28954	7	Sololá	710	Panajachel	8	Panajachel	4	Abril	2023-03-04T00:00:00	2024-11-08T12:00:00	7	Dirección del viento	0
28955	7	Sololá	710	Panajachel	8	Panajachel	4	Abril	2023-03-04T00:00:00	2024-11-08T12:00:00	1	Precipitación	0
28956	7	Sololá	710	Panajachel	8	Panajachel	4	Abril	2023-03-04T00:00:00	2024-11-08T12:00:00	8	Radiación solar	931
28957	7	Sololá	710	Panajachel	8	Panajachel	4	Abril	2023-03-04T00:00:00	2024-11-08T13:00:00	2	Temperatura media	23
28958	7	Sololá	710	Panajachel	8	Panajachel	4	Abril	2023-03-04T00:00:00	2024-11-08T13:00:00	4	Temperatura máxima	23.3
28959	7	Sololá	710	Panajachel	8	Panajachel	4	Abril	2023-03-04T00:00:00	2024-11-08T13:00:00	3	Temperatura mínima	21.8
28960	7	Sololá	710	Panajachel	8	Panajachel	4	Abril	2023-03-04T00:00:00	2024-11-08T13:00:00	5	Humedad	75
28961	7	Sololá	710	Panajachel	8	Panajachel	4	Abril	2023-03-04T00:00:00	2024-11-08T13:00:00	6	Velocidad del viento	1.6
28962	7	Sololá	710	Panajachel	8	Panajachel	4	Abril	2023-03-04T00:00:00	2024-11-08T13:00:00	7	Dirección del viento	1.61
28963	7	Sololá	710	Panajachel	8	Panajachel	4	Abril	2023-03-04T00:00:00	2024-11-08T13:00:00	1	Precipitación	0
28964	7	Sololá	710	Panajachel	8	Panajachel	4	Abril	2023-03-04T00:00:00	2024-11-08T13:00:00	8	Radiación solar	930
28965	7	Sololá	710	Panajachel	8	Panajachel	4	Abril	2023-03-04T00:00:00	2024-11-08T14:00:00	2	Temperatura media	22.4
28966	7	Sololá	710	Panajachel	8	Panajachel	4	Abril	2023-03-04T00:00:00	2024-11-08T14:00:00	4	Temperatura máxima	23
28967	7	Sololá	710	Panajachel	8	Panajachel	4	Abril	2023-03-04T00:00:00	2024-11-08T14:00:00	3	Temperatura mínima	21.9
28968	7	Sololá	710	Panajachel	8	Panajachel	4	Abril	2023-03-04T00:00:00	2024-11-08T14:00:00	5	Humedad	75
28969	7	Sololá	710	Panajachel	8	Panajachel	4	Abril	2023-03-04T00:00:00	2024-11-08T14:00:00	6	Velocidad del viento	8
28970	7	Sololá	710	Panajachel	8	Panajachel	4	Abril	2023-03-04T00:00:00	2024-11-08T14:00:00	7	Dirección del viento	8.05
28971	7	Sololá	710	Panajachel	8	Panajachel	4	Abril	2023-03-04T00:00:00	2024-11-08T14:00:00	1	Precipitación	0
28972	7	Sololá	710	Panajachel	8	Panajachel	4	Abril	2023-03-04T00:00:00	2024-11-08T14:00:00	8	Radiación solar	792
28973	7	Sololá	710	Panajachel	8	Panajachel	4	Abril	2023-03-04T00:00:00	2024-11-08T15:00:00	2	Temperatura media	22.1
28974	7	Sololá	710	Panajachel	8	Panajachel	4	Abril	2023-03-04T00:00:00	2024-11-08T15:00:00	4	Temperatura máxima	22.4
28975	7	Sololá	710	Panajachel	8	Panajachel	4	Abril	2023-03-04T00:00:00	2024-11-08T15:00:00	3	Temperatura mínima	21.6
28976	7	Sololá	710	Panajachel	8	Panajachel	4	Abril	2023-03-04T00:00:00	2024-11-08T15:00:00	5	Humedad	76
28977	7	Sololá	710	Panajachel	8	Panajachel	4	Abril	2023-03-04T00:00:00	2024-11-08T15:00:00	6	Velocidad del viento	8
28978	7	Sololá	710	Panajachel	8	Panajachel	4	Abril	2023-03-04T00:00:00	2024-11-08T15:00:00	7	Dirección del viento	8.05
28979	7	Sololá	710	Panajachel	8	Panajachel	4	Abril	2023-03-04T00:00:00	2024-11-08T15:00:00	1	Precipitación	0
28980	7	Sololá	710	Panajachel	8	Panajachel	4	Abril	2023-03-04T00:00:00	2024-11-08T15:00:00	8	Radiación solar	690
28981	7	Sololá	710	Panajachel	8	Panajachel	4	Abril	2023-03-04T00:00:00	2024-11-08T16:00:00	2	Temperatura media	21.7
28982	7	Sololá	710	Panajachel	8	Panajachel	4	Abril	2023-03-04T00:00:00	2024-11-08T16:00:00	4	Temperatura máxima	22.1
28983	7	Sololá	710	Panajachel	8	Panajachel	4	Abril	2023-03-04T00:00:00	2024-11-08T16:00:00	3	Temperatura mínima	21.4
28984	7	Sololá	710	Panajachel	8	Panajachel	4	Abril	2023-03-04T00:00:00	2024-11-08T16:00:00	5	Humedad	80
28985	7	Sololá	710	Panajachel	8	Panajachel	4	Abril	2023-03-04T00:00:00	2024-11-08T16:00:00	6	Velocidad del viento	9.7
28986	7	Sololá	710	Panajachel	8	Panajachel	4	Abril	2023-03-04T00:00:00	2024-11-08T16:00:00	7	Dirección del viento	9.66
28987	7	Sololá	710	Panajachel	8	Panajachel	4	Abril	2023-03-04T00:00:00	2024-11-08T16:00:00	1	Precipitación	0
28988	7	Sololá	710	Panajachel	8	Panajachel	4	Abril	2023-03-04T00:00:00	2024-11-08T16:00:00	8	Radiación solar	425
28989	7	Sololá	710	Panajachel	8	Panajachel	4	Abril	2023-03-04T00:00:00	2024-11-08T17:00:00	2	Temperatura media	21.4
28990	7	Sololá	710	Panajachel	8	Panajachel	4	Abril	2023-03-04T00:00:00	2024-11-08T17:00:00	4	Temperatura máxima	21.8
28991	7	Sololá	710	Panajachel	8	Panajachel	4	Abril	2023-03-04T00:00:00	2024-11-08T17:00:00	3	Temperatura mínima	21.1
28992	7	Sololá	710	Panajachel	8	Panajachel	4	Abril	2023-03-04T00:00:00	2024-11-08T17:00:00	5	Humedad	80
28993	7	Sololá	710	Panajachel	8	Panajachel	4	Abril	2023-03-04T00:00:00	2024-11-08T17:00:00	6	Velocidad del viento	3.2
28994	7	Sololá	710	Panajachel	8	Panajachel	4	Abril	2023-03-04T00:00:00	2024-11-08T17:00:00	7	Dirección del viento	3.22
28995	7	Sololá	710	Panajachel	8	Panajachel	4	Abril	2023-03-04T00:00:00	2024-11-08T17:00:00	1	Precipitación	0
28996	7	Sololá	710	Panajachel	8	Panajachel	4	Abril	2023-03-04T00:00:00	2024-11-08T17:00:00	8	Radiación solar	174
28997	7	Sololá	710	Panajachel	8	Panajachel	4	Abril	2023-03-04T00:00:00	2024-11-08T18:00:00	2	Temperatura media	20.8
28998	7	Sololá	710	Panajachel	8	Panajachel	4	Abril	2023-03-04T00:00:00	2024-11-08T18:00:00	4	Temperatura máxima	21.6
28999	7	Sololá	710	Panajachel	8	Panajachel	4	Abril	2023-03-04T00:00:00	2024-11-08T18:00:00	3	Temperatura mínima	20.8
29000	7	Sololá	710	Panajachel	8	Panajachel	4	Abril	2023-03-04T00:00:00	2024-11-08T18:00:00	5	Humedad	84
29001	7	Sololá	710	Panajachel	8	Panajachel	4	Abril	2023-03-04T00:00:00	2024-11-08T18:00:00	6	Velocidad del viento	0
29002	7	Sololá	710	Panajachel	8	Panajachel	4	Abril	2023-03-04T00:00:00	2024-11-08T18:00:00	7	Dirección del viento	0
29003	7	Sololá	710	Panajachel	8	Panajachel	4	Abril	2023-03-04T00:00:00	2024-11-08T18:00:00	1	Precipitación	0
29004	7	Sololá	710	Panajachel	8	Panajachel	4	Abril	2023-03-04T00:00:00	2024-11-08T18:00:00	8	Radiación solar	65
29005	7	Sololá	710	Panajachel	8	Panajachel	4	Abril	2023-03-04T00:00:00	2024-11-08T19:00:00	2	Temperatura media	19.7
29006	7	Sololá	710	Panajachel	8	Panajachel	4	Abril	2023-03-04T00:00:00	2024-11-08T19:00:00	4	Temperatura máxima	20.8
29007	7	Sololá	710	Panajachel	8	Panajachel	4	Abril	2023-03-04T00:00:00	2024-11-08T19:00:00	3	Temperatura mínima	19.7
29008	7	Sololá	710	Panajachel	8	Panajachel	4	Abril	2023-03-04T00:00:00	2024-11-08T19:00:00	5	Humedad	88
29009	7	Sololá	710	Panajachel	8	Panajachel	4	Abril	2023-03-04T00:00:00	2024-11-08T19:00:00	6	Velocidad del viento	0
29010	7	Sololá	710	Panajachel	8	Panajachel	4	Abril	2023-03-04T00:00:00	2024-11-08T19:00:00	7	Dirección del viento	0
29011	7	Sololá	710	Panajachel	8	Panajachel	4	Abril	2023-03-04T00:00:00	2024-11-08T19:00:00	1	Precipitación	0
29012	7	Sololá	710	Panajachel	8	Panajachel	4	Abril	2023-03-04T00:00:00	2024-11-08T19:00:00	8	Radiación solar	0
29013	7	Sololá	710	Panajachel	8	Panajachel	4	Abril	2023-03-04T00:00:00	2024-11-08T20:00:00	2	Temperatura media	19.4
29014	7	Sololá	710	Panajachel	8	Panajachel	4	Abril	2023-03-04T00:00:00	2024-11-08T20:00:00	4	Temperatura máxima	19.7
29015	7	Sololá	710	Panajachel	8	Panajachel	4	Abril	2023-03-04T00:00:00	2024-11-08T20:00:00	3	Temperatura mínima	19.3
29016	7	Sololá	710	Panajachel	8	Panajachel	4	Abril	2023-03-04T00:00:00	2024-11-08T20:00:00	5	Humedad	90
29017	7	Sololá	710	Panajachel	8	Panajachel	4	Abril	2023-03-04T00:00:00	2024-11-08T20:00:00	6	Velocidad del viento	0
29018	7	Sololá	710	Panajachel	8	Panajachel	4	Abril	2023-03-04T00:00:00	2024-11-08T20:00:00	7	Dirección del viento	0
29019	7	Sololá	710	Panajachel	8	Panajachel	4	Abril	2023-03-04T00:00:00	2024-11-08T20:00:00	1	Precipitación	0
29020	7	Sololá	710	Panajachel	8	Panajachel	4	Abril	2023-03-04T00:00:00	2024-11-08T20:00:00	8	Radiación solar	0
29021	7	Sololá	710	Panajachel	8	Panajachel	4	Abril	2023-03-04T00:00:00	2024-11-08T21:00:00	2	Temperatura media	19
29022	7	Sololá	710	Panajachel	8	Panajachel	4	Abril	2023-03-04T00:00:00	2024-11-08T21:00:00	4	Temperatura máxima	19.4
29023	7	Sololá	710	Panajachel	8	Panajachel	4	Abril	2023-03-04T00:00:00	2024-11-08T21:00:00	3	Temperatura mínima	19
29024	7	Sololá	710	Panajachel	8	Panajachel	4	Abril	2023-03-04T00:00:00	2024-11-08T21:00:00	5	Humedad	78
29025	7	Sololá	710	Panajachel	8	Panajachel	4	Abril	2023-03-04T00:00:00	2024-11-08T21:00:00	6	Velocidad del viento	0
29026	7	Sololá	710	Panajachel	8	Panajachel	4	Abril	2023-03-04T00:00:00	2024-11-08T21:00:00	7	Dirección del viento	0
29027	7	Sololá	710	Panajachel	8	Panajachel	4	Abril	2023-03-04T00:00:00	2024-11-08T21:00:00	1	Precipitación	0
29028	7	Sololá	710	Panajachel	8	Panajachel	4	Abril	2023-03-04T00:00:00	2024-11-08T21:00:00	8	Radiación solar	0
29029	7	Sololá	710	Panajachel	8	Panajachel	4	Abril	2023-03-04T00:00:00	2024-11-08T22:00:00	2	Temperatura media	17.8
29030	7	Sololá	710	Panajachel	8	Panajachel	4	Abril	2023-03-04T00:00:00	2024-11-08T22:00:00	4	Temperatura máxima	19
29031	7	Sololá	710	Panajachel	8	Panajachel	4	Abril	2023-03-04T00:00:00	2024-11-08T22:00:00	3	Temperatura mínima	17.7
29032	7	Sololá	710	Panajachel	8	Panajachel	4	Abril	2023-03-04T00:00:00	2024-11-08T22:00:00	5	Humedad	78
29033	7	Sololá	710	Panajachel	8	Panajachel	4	Abril	2023-03-04T00:00:00	2024-11-08T22:00:00	6	Velocidad del viento	1.6
29034	7	Sololá	710	Panajachel	8	Panajachel	4	Abril	2023-03-04T00:00:00	2024-11-08T22:00:00	7	Dirección del viento	1.61
29035	7	Sololá	710	Panajachel	8	Panajachel	4	Abril	2023-03-04T00:00:00	2024-11-08T22:00:00	1	Precipitación	0
29036	7	Sololá	710	Panajachel	8	Panajachel	4	Abril	2023-03-04T00:00:00	2024-11-08T22:00:00	8	Radiación solar	0
29037	7	Sololá	710	Panajachel	8	Panajachel	4	Abril	2023-03-04T00:00:00	2024-11-08T23:00:00	2	Temperatura media	17.3
29038	7	Sololá	710	Panajachel	8	Panajachel	4	Abril	2023-03-04T00:00:00	2024-11-08T23:00:00	4	Temperatura máxima	17.8
29039	7	Sololá	710	Panajachel	8	Panajachel	4	Abril	2023-03-04T00:00:00	2024-11-08T23:00:00	3	Temperatura mínima	17.1
29040	7	Sololá	710	Panajachel	8	Panajachel	4	Abril	2023-03-04T00:00:00	2024-11-08T23:00:00	5	Humedad	75
29041	7	Sololá	710	Panajachel	8	Panajachel	4	Abril	2023-03-04T00:00:00	2024-11-08T23:00:00	6	Velocidad del viento	1.6
29042	7	Sololá	710	Panajachel	8	Panajachel	4	Abril	2023-03-04T00:00:00	2024-11-08T23:00:00	7	Dirección del viento	1.61
29043	7	Sololá	710	Panajachel	8	Panajachel	4	Abril	2023-03-04T00:00:00	2024-11-08T23:00:00	1	Precipitación	0
29044	7	Sololá	710	Panajachel	8	Panajachel	4	Abril	2023-03-04T00:00:00	2024-11-08T23:00:00	8	Radiación solar	0
29045	7	Sololá	710	Panajachel	8	Panajachel	4	Abril	2023-04-04T00:00:00	2024-11-08T00:00:00	2	Temperatura media	16.8
29046	7	Sololá	710	Panajachel	8	Panajachel	4	Abril	2023-04-04T00:00:00	2024-11-08T00:00:00	4	Temperatura máxima	17.4
29047	7	Sololá	710	Panajachel	8	Panajachel	4	Abril	2023-04-04T00:00:00	2024-11-08T00:00:00	3	Temperatura mínima	16.8
29048	7	Sololá	710	Panajachel	8	Panajachel	4	Abril	2023-04-04T00:00:00	2024-11-08T00:00:00	5	Humedad	75
29049	7	Sololá	710	Panajachel	8	Panajachel	4	Abril	2023-04-04T00:00:00	2024-11-08T00:00:00	6	Velocidad del viento	1.6
29050	7	Sololá	710	Panajachel	8	Panajachel	4	Abril	2023-04-04T00:00:00	2024-11-08T00:00:00	7	Dirección del viento	1.61
29051	7	Sololá	710	Panajachel	8	Panajachel	4	Abril	2023-04-04T00:00:00	2024-11-08T00:00:00	1	Precipitación	0
29052	7	Sololá	710	Panajachel	8	Panajachel	4	Abril	2023-04-04T00:00:00	2024-11-08T00:00:00	8	Radiación solar	0
29053	7	Sololá	710	Panajachel	8	Panajachel	4	Abril	2023-04-04T00:00:00	2024-11-08T01:00:00	2	Temperatura media	16.7
29054	7	Sololá	710	Panajachel	8	Panajachel	4	Abril	2023-04-04T00:00:00	2024-11-08T01:00:00	4	Temperatura máxima	16.8
29055	7	Sololá	710	Panajachel	8	Panajachel	4	Abril	2023-04-04T00:00:00	2024-11-08T01:00:00	3	Temperatura mínima	16.3
29056	7	Sololá	710	Panajachel	8	Panajachel	4	Abril	2023-04-04T00:00:00	2024-11-08T01:00:00	5	Humedad	74
29057	7	Sololá	710	Panajachel	8	Panajachel	4	Abril	2023-04-04T00:00:00	2024-11-08T01:00:00	6	Velocidad del viento	0
29058	7	Sololá	710	Panajachel	8	Panajachel	4	Abril	2023-04-04T00:00:00	2024-11-08T01:00:00	7	Dirección del viento	0
29059	7	Sololá	710	Panajachel	8	Panajachel	4	Abril	2023-04-04T00:00:00	2024-11-08T01:00:00	1	Precipitación	0
29060	7	Sololá	710	Panajachel	8	Panajachel	4	Abril	2023-04-04T00:00:00	2024-11-08T01:00:00	8	Radiación solar	0
29061	7	Sololá	710	Panajachel	8	Panajachel	4	Abril	2023-04-04T00:00:00	2024-11-08T02:00:00	2	Temperatura media	15.9
29062	7	Sololá	710	Panajachel	8	Panajachel	4	Abril	2023-04-04T00:00:00	2024-11-08T02:00:00	4	Temperatura máxima	16.8
29063	7	Sololá	710	Panajachel	8	Panajachel	4	Abril	2023-04-04T00:00:00	2024-11-08T02:00:00	3	Temperatura mínima	15.9
29064	7	Sololá	710	Panajachel	8	Panajachel	4	Abril	2023-04-04T00:00:00	2024-11-08T02:00:00	5	Humedad	72
29065	7	Sololá	710	Panajachel	8	Panajachel	4	Abril	2023-04-04T00:00:00	2024-11-08T02:00:00	6	Velocidad del viento	1.6
29066	7	Sololá	710	Panajachel	8	Panajachel	4	Abril	2023-04-04T00:00:00	2024-11-08T02:00:00	7	Dirección del viento	1.61
29067	7	Sololá	710	Panajachel	8	Panajachel	4	Abril	2023-04-04T00:00:00	2024-11-08T02:00:00	1	Precipitación	0
29068	7	Sololá	710	Panajachel	8	Panajachel	4	Abril	2023-04-04T00:00:00	2024-11-08T02:00:00	8	Radiación solar	0
29069	7	Sololá	710	Panajachel	8	Panajachel	4	Abril	2023-04-04T00:00:00	2024-11-08T03:00:00	2	Temperatura media	15.7
29070	7	Sololá	710	Panajachel	8	Panajachel	4	Abril	2023-04-04T00:00:00	2024-11-08T03:00:00	4	Temperatura máxima	15.9
29071	7	Sololá	710	Panajachel	8	Panajachel	4	Abril	2023-04-04T00:00:00	2024-11-08T03:00:00	3	Temperatura mínima	15.6
29072	7	Sololá	710	Panajachel	8	Panajachel	4	Abril	2023-04-04T00:00:00	2024-11-08T03:00:00	5	Humedad	73
29073	7	Sololá	710	Panajachel	8	Panajachel	4	Abril	2023-04-04T00:00:00	2024-11-08T03:00:00	6	Velocidad del viento	0
29074	7	Sololá	710	Panajachel	8	Panajachel	4	Abril	2023-04-04T00:00:00	2024-11-08T03:00:00	7	Dirección del viento	0
29075	7	Sololá	710	Panajachel	8	Panajachel	4	Abril	2023-04-04T00:00:00	2024-11-08T03:00:00	1	Precipitación	0
29076	7	Sololá	710	Panajachel	8	Panajachel	4	Abril	2023-04-04T00:00:00	2024-11-08T03:00:00	8	Radiación solar	0
29077	7	Sololá	710	Panajachel	8	Panajachel	4	Abril	2023-04-04T00:00:00	2024-11-08T04:00:00	2	Temperatura media	15.3
29078	7	Sololá	710	Panajachel	8	Panajachel	4	Abril	2023-04-04T00:00:00	2024-11-08T04:00:00	4	Temperatura máxima	15.7
29079	7	Sololá	710	Panajachel	8	Panajachel	4	Abril	2023-04-04T00:00:00	2024-11-08T04:00:00	3	Temperatura mínima	15.2
29080	7	Sololá	710	Panajachel	8	Panajachel	4	Abril	2023-04-04T00:00:00	2024-11-08T04:00:00	5	Humedad	74
29081	7	Sololá	710	Panajachel	8	Panajachel	4	Abril	2023-04-04T00:00:00	2024-11-08T04:00:00	6	Velocidad del viento	0
29082	7	Sololá	710	Panajachel	8	Panajachel	4	Abril	2023-04-04T00:00:00	2024-11-08T04:00:00	7	Dirección del viento	0
29083	7	Sololá	710	Panajachel	8	Panajachel	4	Abril	2023-04-04T00:00:00	2024-11-08T04:00:00	1	Precipitación	0
29084	7	Sololá	710	Panajachel	8	Panajachel	4	Abril	2023-04-04T00:00:00	2024-11-08T04:00:00	8	Radiación solar	0
29085	7	Sololá	710	Panajachel	8	Panajachel	4	Abril	2023-04-04T00:00:00	2024-11-08T05:00:00	2	Temperatura media	14.8
29086	7	Sololá	710	Panajachel	8	Panajachel	4	Abril	2023-04-04T00:00:00	2024-11-08T05:00:00	4	Temperatura máxima	15.4
29087	7	Sololá	710	Panajachel	8	Panajachel	4	Abril	2023-04-04T00:00:00	2024-11-08T05:00:00	3	Temperatura mínima	14.7
29088	7	Sololá	710	Panajachel	8	Panajachel	4	Abril	2023-04-04T00:00:00	2024-11-08T05:00:00	5	Humedad	75
29089	7	Sololá	710	Panajachel	8	Panajachel	4	Abril	2023-04-04T00:00:00	2024-11-08T05:00:00	6	Velocidad del viento	0
29090	7	Sololá	710	Panajachel	8	Panajachel	4	Abril	2023-04-04T00:00:00	2024-11-08T05:00:00	7	Dirección del viento	0
29091	7	Sololá	710	Panajachel	8	Panajachel	4	Abril	2023-04-04T00:00:00	2024-11-08T05:00:00	1	Precipitación	0
29092	7	Sololá	710	Panajachel	8	Panajachel	4	Abril	2023-04-04T00:00:00	2024-11-08T05:00:00	8	Radiación solar	0
29093	7	Sololá	710	Panajachel	8	Panajachel	4	Abril	2023-04-04T00:00:00	2024-11-08T06:00:00	2	Temperatura media	14.4
29094	7	Sololá	710	Panajachel	8	Panajachel	4	Abril	2023-04-04T00:00:00	2024-11-08T06:00:00	4	Temperatura máxima	14.8
29095	7	Sololá	710	Panajachel	8	Panajachel	4	Abril	2023-04-04T00:00:00	2024-11-08T06:00:00	3	Temperatura mínima	14.4
29096	7	Sololá	710	Panajachel	8	Panajachel	4	Abril	2023-04-04T00:00:00	2024-11-08T06:00:00	5	Humedad	74
29097	7	Sololá	710	Panajachel	8	Panajachel	4	Abril	2023-04-04T00:00:00	2024-11-08T06:00:00	6	Velocidad del viento	1.6
29098	7	Sololá	710	Panajachel	8	Panajachel	4	Abril	2023-04-04T00:00:00	2024-11-08T06:00:00	7	Dirección del viento	1.61
29099	7	Sololá	710	Panajachel	8	Panajachel	4	Abril	2023-04-04T00:00:00	2024-11-08T06:00:00	1	Precipitación	0
29100	7	Sololá	710	Panajachel	8	Panajachel	4	Abril	2023-04-04T00:00:00	2024-11-08T06:00:00	8	Radiación solar	0
29101	7	Sololá	710	Panajachel	8	Panajachel	4	Abril	2023-04-04T00:00:00	2024-11-08T07:00:00	2	Temperatura media	14.6
29102	7	Sololá	710	Panajachel	8	Panajachel	4	Abril	2023-04-04T00:00:00	2024-11-08T07:00:00	4	Temperatura máxima	14.6
29103	7	Sololá	710	Panajachel	8	Panajachel	4	Abril	2023-04-04T00:00:00	2024-11-08T07:00:00	3	Temperatura mínima	14.2
29104	7	Sololá	710	Panajachel	8	Panajachel	4	Abril	2023-04-04T00:00:00	2024-11-08T07:00:00	5	Humedad	74
29105	7	Sololá	710	Panajachel	8	Panajachel	4	Abril	2023-04-04T00:00:00	2024-11-08T07:00:00	6	Velocidad del viento	0
29106	7	Sololá	710	Panajachel	8	Panajachel	4	Abril	2023-04-04T00:00:00	2024-11-08T07:00:00	7	Dirección del viento	0
29107	7	Sololá	710	Panajachel	8	Panajachel	4	Abril	2023-04-04T00:00:00	2024-11-08T07:00:00	1	Precipitación	0
29108	7	Sololá	710	Panajachel	8	Panajachel	4	Abril	2023-04-04T00:00:00	2024-11-08T07:00:00	8	Radiación solar	28
29109	7	Sololá	710	Panajachel	8	Panajachel	4	Abril	2023-04-04T00:00:00	2024-11-08T08:00:00	2	Temperatura media	17.2
29110	7	Sololá	710	Panajachel	8	Panajachel	4	Abril	2023-04-04T00:00:00	2024-11-08T08:00:00	4	Temperatura máxima	17.2
29111	7	Sololá	710	Panajachel	8	Panajachel	4	Abril	2023-04-04T00:00:00	2024-11-08T08:00:00	3	Temperatura mínima	14.6
29112	7	Sololá	710	Panajachel	8	Panajachel	4	Abril	2023-04-04T00:00:00	2024-11-08T08:00:00	5	Humedad	68
29113	7	Sololá	710	Panajachel	8	Panajachel	4	Abril	2023-04-04T00:00:00	2024-11-08T08:00:00	6	Velocidad del viento	0
29114	7	Sololá	710	Panajachel	8	Panajachel	4	Abril	2023-04-04T00:00:00	2024-11-08T08:00:00	7	Dirección del viento	0
29115	7	Sololá	710	Panajachel	8	Panajachel	4	Abril	2023-04-04T00:00:00	2024-11-08T08:00:00	1	Precipitación	0
29116	7	Sololá	710	Panajachel	8	Panajachel	4	Abril	2023-04-04T00:00:00	2024-11-08T08:00:00	8	Radiación solar	182
29117	7	Sololá	710	Panajachel	8	Panajachel	4	Abril	2023-04-04T00:00:00	2024-11-08T09:00:00	2	Temperatura media	19.8
29118	7	Sololá	710	Panajachel	8	Panajachel	4	Abril	2023-04-04T00:00:00	2024-11-08T09:00:00	4	Temperatura máxima	19.8
29119	7	Sololá	710	Panajachel	8	Panajachel	4	Abril	2023-04-04T00:00:00	2024-11-08T09:00:00	3	Temperatura mínima	17.2
29120	7	Sololá	710	Panajachel	8	Panajachel	4	Abril	2023-04-04T00:00:00	2024-11-08T09:00:00	5	Humedad	74
29121	7	Sololá	710	Panajachel	8	Panajachel	4	Abril	2023-04-04T00:00:00	2024-11-08T09:00:00	6	Velocidad del viento	0
29122	7	Sololá	710	Panajachel	8	Panajachel	4	Abril	2023-04-04T00:00:00	2024-11-08T09:00:00	7	Dirección del viento	0
29123	7	Sololá	710	Panajachel	8	Panajachel	4	Abril	2023-04-04T00:00:00	2024-11-08T09:00:00	1	Precipitación	0
29124	7	Sololá	710	Panajachel	8	Panajachel	4	Abril	2023-04-04T00:00:00	2024-11-08T09:00:00	8	Radiación solar	513
29125	7	Sololá	710	Panajachel	8	Panajachel	4	Abril	2023-04-04T00:00:00	2024-11-08T10:00:00	2	Temperatura media	20.8
29126	7	Sololá	710	Panajachel	8	Panajachel	4	Abril	2023-04-04T00:00:00	2024-11-08T10:00:00	4	Temperatura máxima	20.9
29127	7	Sololá	710	Panajachel	8	Panajachel	4	Abril	2023-04-04T00:00:00	2024-11-08T10:00:00	3	Temperatura mínima	19.8
29128	7	Sololá	710	Panajachel	8	Panajachel	4	Abril	2023-04-04T00:00:00	2024-11-08T10:00:00	5	Humedad	72
29129	7	Sololá	710	Panajachel	8	Panajachel	4	Abril	2023-04-04T00:00:00	2024-11-08T10:00:00	6	Velocidad del viento	0
29130	7	Sololá	710	Panajachel	8	Panajachel	4	Abril	2023-04-04T00:00:00	2024-11-08T10:00:00	7	Dirección del viento	0
29131	7	Sololá	710	Panajachel	8	Panajachel	4	Abril	2023-04-04T00:00:00	2024-11-08T10:00:00	1	Precipitación	0
29132	7	Sololá	710	Panajachel	8	Panajachel	4	Abril	2023-04-04T00:00:00	2024-11-08T10:00:00	8	Radiación solar	715
29133	7	Sololá	710	Panajachel	8	Panajachel	4	Abril	2023-04-04T00:00:00	2024-11-08T11:00:00	2	Temperatura media	22.6
29134	7	Sololá	710	Panajachel	8	Panajachel	4	Abril	2023-04-04T00:00:00	2024-11-08T11:00:00	4	Temperatura máxima	22.6
29135	7	Sololá	710	Panajachel	8	Panajachel	4	Abril	2023-04-04T00:00:00	2024-11-08T11:00:00	3	Temperatura mínima	20.9
29136	7	Sololá	710	Panajachel	8	Panajachel	4	Abril	2023-04-04T00:00:00	2024-11-08T11:00:00	5	Humedad	62
29137	7	Sololá	710	Panajachel	8	Panajachel	4	Abril	2023-04-04T00:00:00	2024-11-08T11:00:00	6	Velocidad del viento	0
29138	7	Sololá	710	Panajachel	8	Panajachel	4	Abril	2023-04-04T00:00:00	2024-11-08T11:00:00	7	Dirección del viento	0
29139	7	Sololá	710	Panajachel	8	Panajachel	4	Abril	2023-04-04T00:00:00	2024-11-08T11:00:00	1	Precipitación	0
29140	7	Sololá	710	Panajachel	8	Panajachel	4	Abril	2023-04-04T00:00:00	2024-11-08T11:00:00	8	Radiación solar	854
29141	7	Sololá	710	Panajachel	8	Panajachel	4	Abril	2023-04-04T00:00:00	2024-11-08T12:00:00	2	Temperatura media	22
29142	7	Sololá	710	Panajachel	8	Panajachel	4	Abril	2023-04-04T00:00:00	2024-11-08T12:00:00	4	Temperatura máxima	22.6
29143	7	Sololá	710	Panajachel	8	Panajachel	4	Abril	2023-04-04T00:00:00	2024-11-08T12:00:00	3	Temperatura mínima	21.7
29144	7	Sololá	710	Panajachel	8	Panajachel	4	Abril	2023-04-04T00:00:00	2024-11-08T12:00:00	5	Humedad	66
29145	7	Sololá	710	Panajachel	8	Panajachel	4	Abril	2023-04-04T00:00:00	2024-11-08T12:00:00	6	Velocidad del viento	0
29146	7	Sololá	710	Panajachel	8	Panajachel	4	Abril	2023-04-04T00:00:00	2024-11-08T12:00:00	7	Dirección del viento	0
29147	7	Sololá	710	Panajachel	8	Panajachel	4	Abril	2023-04-04T00:00:00	2024-11-08T12:00:00	1	Precipitación	0
29148	7	Sololá	710	Panajachel	8	Panajachel	4	Abril	2023-04-04T00:00:00	2024-11-08T12:00:00	8	Radiación solar	930
29149	7	Sololá	710	Panajachel	8	Panajachel	4	Abril	2023-04-04T00:00:00	2024-11-08T13:00:00	2	Temperatura media	23
29150	7	Sololá	710	Panajachel	8	Panajachel	4	Abril	2023-04-04T00:00:00	2024-11-08T13:00:00	4	Temperatura máxima	23.2
29151	7	Sololá	710	Panajachel	8	Panajachel	4	Abril	2023-04-04T00:00:00	2024-11-08T13:00:00	3	Temperatura mínima	21.8
29152	7	Sololá	710	Panajachel	8	Panajachel	4	Abril	2023-04-04T00:00:00	2024-11-08T13:00:00	5	Humedad	70
29153	7	Sololá	710	Panajachel	8	Panajachel	4	Abril	2023-04-04T00:00:00	2024-11-08T13:00:00	6	Velocidad del viento	1.6
29154	7	Sololá	710	Panajachel	8	Panajachel	4	Abril	2023-04-04T00:00:00	2024-11-08T13:00:00	7	Dirección del viento	1.61
29155	7	Sololá	710	Panajachel	8	Panajachel	4	Abril	2023-04-04T00:00:00	2024-11-08T13:00:00	1	Precipitación	0
29156	7	Sololá	710	Panajachel	8	Panajachel	4	Abril	2023-04-04T00:00:00	2024-11-08T13:00:00	8	Radiación solar	931
29157	7	Sololá	710	Panajachel	8	Panajachel	4	Abril	2023-04-04T00:00:00	2024-11-08T14:00:00	2	Temperatura media	22.8
29158	7	Sololá	710	Panajachel	8	Panajachel	4	Abril	2023-04-04T00:00:00	2024-11-08T14:00:00	4	Temperatura máxima	23.1
29159	7	Sololá	710	Panajachel	8	Panajachel	4	Abril	2023-04-04T00:00:00	2024-11-08T14:00:00	3	Temperatura mínima	22.6
29160	7	Sololá	710	Panajachel	8	Panajachel	4	Abril	2023-04-04T00:00:00	2024-11-08T14:00:00	5	Humedad	75
29161	7	Sololá	710	Panajachel	8	Panajachel	4	Abril	2023-04-04T00:00:00	2024-11-08T14:00:00	6	Velocidad del viento	6.4
29162	7	Sololá	710	Panajachel	8	Panajachel	4	Abril	2023-04-04T00:00:00	2024-11-08T14:00:00	7	Dirección del viento	6.44
29163	7	Sololá	710	Panajachel	8	Panajachel	4	Abril	2023-04-04T00:00:00	2024-11-08T14:00:00	1	Precipitación	0
29164	7	Sololá	710	Panajachel	8	Panajachel	4	Abril	2023-04-04T00:00:00	2024-11-08T14:00:00	8	Radiación solar	856
29165	7	Sololá	710	Panajachel	8	Panajachel	4	Abril	2023-04-04T00:00:00	2024-11-08T15:00:00	2	Temperatura media	22.1
29166	7	Sololá	710	Panajachel	8	Panajachel	4	Abril	2023-04-04T00:00:00	2024-11-08T15:00:00	4	Temperatura máxima	23
29167	7	Sololá	710	Panajachel	8	Panajachel	4	Abril	2023-04-04T00:00:00	2024-11-08T15:00:00	3	Temperatura mínima	21.7
29168	7	Sololá	710	Panajachel	8	Panajachel	4	Abril	2023-04-04T00:00:00	2024-11-08T15:00:00	5	Humedad	76
29169	7	Sololá	710	Panajachel	8	Panajachel	4	Abril	2023-04-04T00:00:00	2024-11-08T15:00:00	6	Velocidad del viento	4.8
29170	7	Sololá	710	Panajachel	8	Panajachel	4	Abril	2023-04-04T00:00:00	2024-11-08T15:00:00	7	Dirección del viento	4.83
29171	7	Sololá	710	Panajachel	8	Panajachel	4	Abril	2023-04-04T00:00:00	2024-11-08T15:00:00	1	Precipitación	0
29172	7	Sololá	710	Panajachel	8	Panajachel	4	Abril	2023-04-04T00:00:00	2024-11-08T15:00:00	8	Radiación solar	374
29173	7	Sololá	710	Panajachel	8	Panajachel	4	Abril	2023-04-04T00:00:00	2024-11-08T16:00:00	2	Temperatura media	21.2
29174	7	Sololá	710	Panajachel	8	Panajachel	4	Abril	2023-04-04T00:00:00	2024-11-08T16:00:00	4	Temperatura máxima	22.2
29175	7	Sololá	710	Panajachel	8	Panajachel	4	Abril	2023-04-04T00:00:00	2024-11-08T16:00:00	3	Temperatura mínima	20.9
29176	7	Sololá	710	Panajachel	8	Panajachel	4	Abril	2023-04-04T00:00:00	2024-11-08T16:00:00	5	Humedad	80
29177	7	Sololá	710	Panajachel	8	Panajachel	4	Abril	2023-04-04T00:00:00	2024-11-08T16:00:00	6	Velocidad del viento	6.4
29178	7	Sololá	710	Panajachel	8	Panajachel	4	Abril	2023-04-04T00:00:00	2024-11-08T16:00:00	7	Dirección del viento	6.44
29179	7	Sololá	710	Panajachel	8	Panajachel	4	Abril	2023-04-04T00:00:00	2024-11-08T16:00:00	1	Precipitación	0
29180	7	Sololá	710	Panajachel	8	Panajachel	4	Abril	2023-04-04T00:00:00	2024-11-08T16:00:00	8	Radiación solar	129
29181	7	Sololá	710	Panajachel	8	Panajachel	4	Abril	2023-04-04T00:00:00	2024-11-08T17:00:00	2	Temperatura media	21.2
29182	7	Sololá	710	Panajachel	8	Panajachel	4	Abril	2023-04-04T00:00:00	2024-11-08T17:00:00	4	Temperatura máxima	21.3
29183	7	Sololá	710	Panajachel	8	Panajachel	4	Abril	2023-04-04T00:00:00	2024-11-08T17:00:00	3	Temperatura mínima	20.9
29184	7	Sololá	710	Panajachel	8	Panajachel	4	Abril	2023-04-04T00:00:00	2024-11-08T17:00:00	5	Humedad	79
29185	7	Sololá	710	Panajachel	8	Panajachel	4	Abril	2023-04-04T00:00:00	2024-11-08T17:00:00	6	Velocidad del viento	3.2
29186	7	Sololá	710	Panajachel	8	Panajachel	4	Abril	2023-04-04T00:00:00	2024-11-08T17:00:00	7	Dirección del viento	3.22
29187	7	Sololá	710	Panajachel	8	Panajachel	4	Abril	2023-04-04T00:00:00	2024-11-08T17:00:00	1	Precipitación	0
29188	7	Sololá	710	Panajachel	8	Panajachel	4	Abril	2023-04-04T00:00:00	2024-11-08T17:00:00	8	Radiación solar	87
29189	7	Sololá	710	Panajachel	8	Panajachel	4	Abril	2023-04-04T00:00:00	2024-11-08T18:00:00	2	Temperatura media	20.7
29190	7	Sololá	710	Panajachel	8	Panajachel	4	Abril	2023-04-04T00:00:00	2024-11-08T18:00:00	4	Temperatura máxima	21.3
29191	7	Sololá	710	Panajachel	8	Panajachel	4	Abril	2023-04-04T00:00:00	2024-11-08T18:00:00	3	Temperatura mínima	20.7
29192	7	Sololá	710	Panajachel	8	Panajachel	4	Abril	2023-04-04T00:00:00	2024-11-08T18:00:00	5	Humedad	81
29193	7	Sololá	710	Panajachel	8	Panajachel	4	Abril	2023-04-04T00:00:00	2024-11-08T18:00:00	6	Velocidad del viento	0
29194	7	Sololá	710	Panajachel	8	Panajachel	4	Abril	2023-04-04T00:00:00	2024-11-08T18:00:00	7	Dirección del viento	0
29195	7	Sololá	710	Panajachel	8	Panajachel	4	Abril	2023-04-04T00:00:00	2024-11-08T18:00:00	1	Precipitación	0
29196	7	Sololá	710	Panajachel	8	Panajachel	4	Abril	2023-04-04T00:00:00	2024-11-08T18:00:00	8	Radiación solar	49
29197	7	Sololá	710	Panajachel	8	Panajachel	4	Abril	2023-04-04T00:00:00	2024-11-08T19:00:00	2	Temperatura media	20.3
29198	7	Sololá	710	Panajachel	8	Panajachel	4	Abril	2023-04-04T00:00:00	2024-11-08T19:00:00	4	Temperatura máxima	20.8
29199	7	Sololá	710	Panajachel	8	Panajachel	4	Abril	2023-04-04T00:00:00	2024-11-08T19:00:00	3	Temperatura mínima	20.3
29200	7	Sololá	710	Panajachel	8	Panajachel	4	Abril	2023-04-04T00:00:00	2024-11-08T19:00:00	5	Humedad	83
29201	7	Sololá	710	Panajachel	8	Panajachel	4	Abril	2023-04-04T00:00:00	2024-11-08T19:00:00	6	Velocidad del viento	0
29202	7	Sololá	710	Panajachel	8	Panajachel	4	Abril	2023-04-04T00:00:00	2024-11-08T19:00:00	7	Dirección del viento	0
29203	7	Sololá	710	Panajachel	8	Panajachel	4	Abril	2023-04-04T00:00:00	2024-11-08T19:00:00	1	Precipitación	0
29204	7	Sololá	710	Panajachel	8	Panajachel	4	Abril	2023-04-04T00:00:00	2024-11-08T19:00:00	8	Radiación solar	0
29205	7	Sololá	710	Panajachel	8	Panajachel	4	Abril	2023-04-04T00:00:00	2024-11-08T20:00:00	2	Temperatura media	19.9
29206	7	Sololá	710	Panajachel	8	Panajachel	4	Abril	2023-04-04T00:00:00	2024-11-08T20:00:00	4	Temperatura máxima	20.3
29207	7	Sololá	710	Panajachel	8	Panajachel	4	Abril	2023-04-04T00:00:00	2024-11-08T20:00:00	3	Temperatura mínima	19.9
29208	7	Sololá	710	Panajachel	8	Panajachel	4	Abril	2023-04-04T00:00:00	2024-11-08T20:00:00	5	Humedad	85
29209	7	Sololá	710	Panajachel	8	Panajachel	4	Abril	2023-04-04T00:00:00	2024-11-08T20:00:00	6	Velocidad del viento	0
29210	7	Sololá	710	Panajachel	8	Panajachel	4	Abril	2023-04-04T00:00:00	2024-11-08T20:00:00	7	Dirección del viento	0
29211	7	Sololá	710	Panajachel	8	Panajachel	4	Abril	2023-04-04T00:00:00	2024-11-08T20:00:00	1	Precipitación	0
29212	7	Sololá	710	Panajachel	8	Panajachel	4	Abril	2023-04-04T00:00:00	2024-11-08T20:00:00	8	Radiación solar	0
29213	7	Sololá	710	Panajachel	8	Panajachel	4	Abril	2023-04-04T00:00:00	2024-11-08T21:00:00	2	Temperatura media	18.9
29214	7	Sololá	710	Panajachel	8	Panajachel	4	Abril	2023-04-04T00:00:00	2024-11-08T21:00:00	4	Temperatura máxima	19.9
29215	7	Sololá	710	Panajachel	8	Panajachel	4	Abril	2023-04-04T00:00:00	2024-11-08T21:00:00	3	Temperatura mínima	18.9
29216	7	Sololá	710	Panajachel	8	Panajachel	4	Abril	2023-04-04T00:00:00	2024-11-08T21:00:00	5	Humedad	84
29217	7	Sololá	710	Panajachel	8	Panajachel	4	Abril	2023-04-04T00:00:00	2024-11-08T21:00:00	6	Velocidad del viento	0
29218	7	Sololá	710	Panajachel	8	Panajachel	4	Abril	2023-04-04T00:00:00	2024-11-08T21:00:00	7	Dirección del viento	0
29219	7	Sololá	710	Panajachel	8	Panajachel	4	Abril	2023-04-04T00:00:00	2024-11-08T21:00:00	1	Precipitación	0
29220	7	Sololá	710	Panajachel	8	Panajachel	4	Abril	2023-04-04T00:00:00	2024-11-08T21:00:00	8	Radiación solar	0
29221	7	Sololá	710	Panajachel	8	Panajachel	4	Abril	2023-04-04T00:00:00	2024-11-08T22:00:00	2	Temperatura media	18.1
29222	7	Sololá	710	Panajachel	8	Panajachel	4	Abril	2023-04-04T00:00:00	2024-11-08T22:00:00	4	Temperatura máxima	19
29223	7	Sololá	710	Panajachel	8	Panajachel	4	Abril	2023-04-04T00:00:00	2024-11-08T22:00:00	3	Temperatura mínima	18.1
29224	7	Sololá	710	Panajachel	8	Panajachel	4	Abril	2023-04-04T00:00:00	2024-11-08T22:00:00	5	Humedad	85
29225	7	Sololá	710	Panajachel	8	Panajachel	4	Abril	2023-04-04T00:00:00	2024-11-08T22:00:00	6	Velocidad del viento	0
29226	7	Sololá	710	Panajachel	8	Panajachel	4	Abril	2023-04-04T00:00:00	2024-11-08T22:00:00	7	Dirección del viento	0
29227	7	Sololá	710	Panajachel	8	Panajachel	4	Abril	2023-04-04T00:00:00	2024-11-08T22:00:00	1	Precipitación	0
29228	7	Sololá	710	Panajachel	8	Panajachel	4	Abril	2023-04-04T00:00:00	2024-11-08T22:00:00	8	Radiación solar	0
29229	7	Sololá	710	Panajachel	8	Panajachel	4	Abril	2023-04-04T00:00:00	2024-11-08T23:00:00	2	Temperatura media	17.7
29230	7	Sololá	710	Panajachel	8	Panajachel	4	Abril	2023-04-04T00:00:00	2024-11-08T23:00:00	4	Temperatura máxima	18.1
29231	7	Sololá	710	Panajachel	8	Panajachel	4	Abril	2023-04-04T00:00:00	2024-11-08T23:00:00	3	Temperatura mínima	17.7
29232	7	Sololá	710	Panajachel	8	Panajachel	4	Abril	2023-04-04T00:00:00	2024-11-08T23:00:00	5	Humedad	81
29233	7	Sololá	710	Panajachel	8	Panajachel	4	Abril	2023-04-04T00:00:00	2024-11-08T23:00:00	6	Velocidad del viento	0
29234	7	Sololá	710	Panajachel	8	Panajachel	4	Abril	2023-04-04T00:00:00	2024-11-08T23:00:00	7	Dirección del viento	0
29235	7	Sololá	710	Panajachel	8	Panajachel	4	Abril	2023-04-04T00:00:00	2024-11-08T23:00:00	1	Precipitación	0
29236	7	Sololá	710	Panajachel	8	Panajachel	4	Abril	2023-04-04T00:00:00	2024-11-08T23:00:00	8	Radiación solar	0
29237	7	Sololá	710	Panajachel	8	Panajachel	4	Abril	2023-05-04T00:00:00	2024-11-08T00:00:00	2	Temperatura media	17.6
29238	7	Sololá	710	Panajachel	8	Panajachel	4	Abril	2023-05-04T00:00:00	2024-11-08T00:00:00	4	Temperatura máxima	17.7
29239	7	Sololá	710	Panajachel	8	Panajachel	4	Abril	2023-05-04T00:00:00	2024-11-08T00:00:00	3	Temperatura mínima	17.4
29240	7	Sololá	710	Panajachel	8	Panajachel	4	Abril	2023-05-04T00:00:00	2024-11-08T00:00:00	5	Humedad	80
29241	7	Sololá	710	Panajachel	8	Panajachel	4	Abril	2023-05-04T00:00:00	2024-11-08T00:00:00	6	Velocidad del viento	0
29242	7	Sololá	710	Panajachel	8	Panajachel	4	Abril	2023-05-04T00:00:00	2024-11-08T00:00:00	7	Dirección del viento	0
29243	7	Sololá	710	Panajachel	8	Panajachel	4	Abril	2023-05-04T00:00:00	2024-11-08T00:00:00	1	Precipitación	0
29244	7	Sololá	710	Panajachel	8	Panajachel	4	Abril	2023-05-04T00:00:00	2024-11-08T00:00:00	8	Radiación solar	0
29245	7	Sololá	710	Panajachel	8	Panajachel	4	Abril	2023-05-04T00:00:00	2024-11-08T01:00:00	2	Temperatura media	17.3
29246	7	Sololá	710	Panajachel	8	Panajachel	4	Abril	2023-05-04T00:00:00	2024-11-08T01:00:00	4	Temperatura máxima	17.6
29247	7	Sololá	710	Panajachel	8	Panajachel	4	Abril	2023-05-04T00:00:00	2024-11-08T01:00:00	3	Temperatura mínima	17.2
29248	7	Sololá	710	Panajachel	8	Panajachel	4	Abril	2023-05-04T00:00:00	2024-11-08T01:00:00	5	Humedad	79
29249	7	Sololá	710	Panajachel	8	Panajachel	4	Abril	2023-05-04T00:00:00	2024-11-08T01:00:00	6	Velocidad del viento	0
29250	7	Sololá	710	Panajachel	8	Panajachel	4	Abril	2023-05-04T00:00:00	2024-11-08T01:00:00	7	Dirección del viento	0
29251	7	Sololá	710	Panajachel	8	Panajachel	4	Abril	2023-05-04T00:00:00	2024-11-08T01:00:00	1	Precipitación	0
29252	7	Sololá	710	Panajachel	8	Panajachel	4	Abril	2023-05-04T00:00:00	2024-11-08T01:00:00	8	Radiación solar	0
29253	7	Sololá	710	Panajachel	8	Panajachel	4	Abril	2023-05-04T00:00:00	2024-11-08T02:00:00	2	Temperatura media	16.5
29254	7	Sololá	710	Panajachel	8	Panajachel	4	Abril	2023-05-04T00:00:00	2024-11-08T02:00:00	4	Temperatura máxima	17.3
29255	7	Sololá	710	Panajachel	8	Panajachel	4	Abril	2023-05-04T00:00:00	2024-11-08T02:00:00	3	Temperatura mínima	16.5
29256	7	Sololá	710	Panajachel	8	Panajachel	4	Abril	2023-05-04T00:00:00	2024-11-08T02:00:00	5	Humedad	81
29257	7	Sololá	710	Panajachel	8	Panajachel	4	Abril	2023-05-04T00:00:00	2024-11-08T02:00:00	6	Velocidad del viento	0
29258	7	Sololá	710	Panajachel	8	Panajachel	4	Abril	2023-05-04T00:00:00	2024-11-08T02:00:00	7	Dirección del viento	0
29259	7	Sololá	710	Panajachel	8	Panajachel	4	Abril	2023-05-04T00:00:00	2024-11-08T02:00:00	1	Precipitación	0
29260	7	Sololá	710	Panajachel	8	Panajachel	4	Abril	2023-05-04T00:00:00	2024-11-08T02:00:00	8	Radiación solar	0
29261	7	Sololá	710	Panajachel	8	Panajachel	4	Abril	2023-05-04T00:00:00	2024-11-08T03:00:00	2	Temperatura media	16.2
29262	7	Sololá	710	Panajachel	8	Panajachel	4	Abril	2023-05-04T00:00:00	2024-11-08T03:00:00	4	Temperatura máxima	16.7
29263	7	Sololá	710	Panajachel	8	Panajachel	4	Abril	2023-05-04T00:00:00	2024-11-08T03:00:00	3	Temperatura mínima	16.2
29264	7	Sololá	710	Panajachel	8	Panajachel	4	Abril	2023-05-04T00:00:00	2024-11-08T03:00:00	5	Humedad	81
29265	7	Sololá	710	Panajachel	8	Panajachel	4	Abril	2023-05-04T00:00:00	2024-11-08T03:00:00	6	Velocidad del viento	0
29266	7	Sololá	710	Panajachel	8	Panajachel	4	Abril	2023-05-04T00:00:00	2024-11-08T03:00:00	7	Dirección del viento	0
29267	7	Sololá	710	Panajachel	8	Panajachel	4	Abril	2023-05-04T00:00:00	2024-11-08T03:00:00	1	Precipitación	0
29268	7	Sololá	710	Panajachel	8	Panajachel	4	Abril	2023-05-04T00:00:00	2024-11-08T03:00:00	8	Radiación solar	0
29269	7	Sololá	710	Panajachel	8	Panajachel	4	Abril	2023-05-04T00:00:00	2024-11-08T04:00:00	2	Temperatura media	15.7
29270	7	Sololá	710	Panajachel	8	Panajachel	4	Abril	2023-05-04T00:00:00	2024-11-08T04:00:00	4	Temperatura máxima	16.2
29271	7	Sololá	710	Panajachel	8	Panajachel	4	Abril	2023-05-04T00:00:00	2024-11-08T04:00:00	3	Temperatura mínima	15.7
29272	7	Sololá	710	Panajachel	8	Panajachel	4	Abril	2023-05-04T00:00:00	2024-11-08T04:00:00	5	Humedad	82
29273	7	Sololá	710	Panajachel	8	Panajachel	4	Abril	2023-05-04T00:00:00	2024-11-08T04:00:00	6	Velocidad del viento	0
29274	7	Sololá	710	Panajachel	8	Panajachel	4	Abril	2023-05-04T00:00:00	2024-11-08T04:00:00	7	Dirección del viento	0
29275	7	Sololá	710	Panajachel	8	Panajachel	4	Abril	2023-05-04T00:00:00	2024-11-08T04:00:00	1	Precipitación	0
29276	7	Sololá	710	Panajachel	8	Panajachel	4	Abril	2023-05-04T00:00:00	2024-11-08T04:00:00	8	Radiación solar	0
29277	7	Sololá	710	Panajachel	8	Panajachel	4	Abril	2023-05-04T00:00:00	2024-11-08T05:00:00	2	Temperatura media	15.7
29278	7	Sololá	710	Panajachel	8	Panajachel	4	Abril	2023-05-04T00:00:00	2024-11-08T05:00:00	4	Temperatura máxima	16.1
29279	7	Sololá	710	Panajachel	8	Panajachel	4	Abril	2023-05-04T00:00:00	2024-11-08T05:00:00	3	Temperatura mínima	15.6
29280	7	Sololá	710	Panajachel	8	Panajachel	4	Abril	2023-05-04T00:00:00	2024-11-08T05:00:00	5	Humedad	79
29281	7	Sololá	710	Panajachel	8	Panajachel	4	Abril	2023-05-04T00:00:00	2024-11-08T05:00:00	6	Velocidad del viento	0
29282	7	Sololá	710	Panajachel	8	Panajachel	4	Abril	2023-05-04T00:00:00	2024-11-08T05:00:00	7	Dirección del viento	0
29283	7	Sololá	710	Panajachel	8	Panajachel	4	Abril	2023-05-04T00:00:00	2024-11-08T05:00:00	1	Precipitación	0
29284	7	Sololá	710	Panajachel	8	Panajachel	4	Abril	2023-05-04T00:00:00	2024-11-08T05:00:00	8	Radiación solar	0
29285	7	Sololá	710	Panajachel	8	Panajachel	4	Abril	2023-05-04T00:00:00	2024-11-08T06:00:00	2	Temperatura media	15.1
29286	7	Sololá	710	Panajachel	8	Panajachel	4	Abril	2023-05-04T00:00:00	2024-11-08T06:00:00	4	Temperatura máxima	15.7
29287	7	Sololá	710	Panajachel	8	Panajachel	4	Abril	2023-05-04T00:00:00	2024-11-08T06:00:00	3	Temperatura mínima	15
29288	7	Sololá	710	Panajachel	8	Panajachel	4	Abril	2023-05-04T00:00:00	2024-11-08T06:00:00	5	Humedad	77
29289	7	Sololá	710	Panajachel	8	Panajachel	4	Abril	2023-05-04T00:00:00	2024-11-08T06:00:00	6	Velocidad del viento	0
29290	7	Sololá	710	Panajachel	8	Panajachel	4	Abril	2023-05-04T00:00:00	2024-11-08T06:00:00	7	Dirección del viento	0
29291	7	Sololá	710	Panajachel	8	Panajachel	4	Abril	2023-05-04T00:00:00	2024-11-08T06:00:00	1	Precipitación	0
29292	7	Sololá	710	Panajachel	8	Panajachel	4	Abril	2023-05-04T00:00:00	2024-11-08T06:00:00	8	Radiación solar	0
29293	7	Sololá	710	Panajachel	8	Panajachel	4	Abril	2023-05-04T00:00:00	2024-11-08T07:00:00	2	Temperatura media	16.2
29294	7	Sololá	710	Panajachel	8	Panajachel	4	Abril	2023-05-04T00:00:00	2024-11-08T07:00:00	4	Temperatura máxima	16.2
29295	7	Sololá	710	Panajachel	8	Panajachel	4	Abril	2023-05-04T00:00:00	2024-11-08T07:00:00	3	Temperatura mínima	14.8
29296	7	Sololá	710	Panajachel	8	Panajachel	4	Abril	2023-05-04T00:00:00	2024-11-08T07:00:00	5	Humedad	70
29297	7	Sololá	710	Panajachel	8	Panajachel	4	Abril	2023-05-04T00:00:00	2024-11-08T07:00:00	6	Velocidad del viento	0
29298	7	Sololá	710	Panajachel	8	Panajachel	4	Abril	2023-05-04T00:00:00	2024-11-08T07:00:00	7	Dirección del viento	0
29299	7	Sololá	710	Panajachel	8	Panajachel	4	Abril	2023-05-04T00:00:00	2024-11-08T07:00:00	1	Precipitación	0
29300	7	Sololá	710	Panajachel	8	Panajachel	4	Abril	2023-05-04T00:00:00	2024-11-08T07:00:00	8	Radiación solar	47
29301	7	Sololá	710	Panajachel	8	Panajachel	4	Abril	2023-05-04T00:00:00	2024-11-08T08:00:00	2	Temperatura media	19.7
29302	7	Sololá	710	Panajachel	8	Panajachel	4	Abril	2023-05-04T00:00:00	2024-11-08T08:00:00	4	Temperatura máxima	19.7
29303	7	Sololá	710	Panajachel	8	Panajachel	4	Abril	2023-05-04T00:00:00	2024-11-08T08:00:00	3	Temperatura mínima	16.2
29304	7	Sololá	710	Panajachel	8	Panajachel	4	Abril	2023-05-04T00:00:00	2024-11-08T08:00:00	5	Humedad	73
29305	7	Sololá	710	Panajachel	8	Panajachel	4	Abril	2023-05-04T00:00:00	2024-11-08T08:00:00	6	Velocidad del viento	0
29306	7	Sololá	710	Panajachel	8	Panajachel	4	Abril	2023-05-04T00:00:00	2024-11-08T08:00:00	7	Dirección del viento	0
29307	7	Sololá	710	Panajachel	8	Panajachel	4	Abril	2023-05-04T00:00:00	2024-11-08T08:00:00	1	Precipitación	0
29308	7	Sololá	710	Panajachel	8	Panajachel	4	Abril	2023-05-04T00:00:00	2024-11-08T08:00:00	8	Radiación solar	283
29309	7	Sololá	710	Panajachel	8	Panajachel	4	Abril	2023-05-04T00:00:00	2024-11-08T09:00:00	2	Temperatura media	19.6
29310	7	Sololá	710	Panajachel	8	Panajachel	4	Abril	2023-05-04T00:00:00	2024-11-08T09:00:00	4	Temperatura máxima	20.3
29311	7	Sololá	710	Panajachel	8	Panajachel	4	Abril	2023-05-04T00:00:00	2024-11-08T09:00:00	3	Temperatura mínima	19.3
29312	7	Sololá	710	Panajachel	8	Panajachel	4	Abril	2023-05-04T00:00:00	2024-11-08T09:00:00	5	Humedad	73
29313	7	Sololá	710	Panajachel	8	Panajachel	4	Abril	2023-05-04T00:00:00	2024-11-08T09:00:00	6	Velocidad del viento	0
29314	7	Sololá	710	Panajachel	8	Panajachel	4	Abril	2023-05-04T00:00:00	2024-11-08T09:00:00	7	Dirección del viento	0
29315	7	Sololá	710	Panajachel	8	Panajachel	4	Abril	2023-05-04T00:00:00	2024-11-08T09:00:00	1	Precipitación	0
29316	7	Sololá	710	Panajachel	8	Panajachel	4	Abril	2023-05-04T00:00:00	2024-11-08T09:00:00	8	Radiación solar	518
29317	7	Sololá	710	Panajachel	8	Panajachel	4	Abril	2023-05-04T00:00:00	2024-11-08T10:00:00	2	Temperatura media	20.6
29318	7	Sololá	710	Panajachel	8	Panajachel	4	Abril	2023-05-04T00:00:00	2024-11-08T10:00:00	4	Temperatura máxima	21.6
29319	7	Sololá	710	Panajachel	8	Panajachel	4	Abril	2023-05-04T00:00:00	2024-11-08T10:00:00	3	Temperatura mínima	19.5
29320	7	Sololá	710	Panajachel	8	Panajachel	4	Abril	2023-05-04T00:00:00	2024-11-08T10:00:00	5	Humedad	72
29321	7	Sololá	710	Panajachel	8	Panajachel	4	Abril	2023-05-04T00:00:00	2024-11-08T10:00:00	6	Velocidad del viento	0
29322	7	Sololá	710	Panajachel	8	Panajachel	4	Abril	2023-05-04T00:00:00	2024-11-08T10:00:00	7	Dirección del viento	0
29323	7	Sololá	710	Panajachel	8	Panajachel	4	Abril	2023-05-04T00:00:00	2024-11-08T10:00:00	1	Precipitación	0
29324	7	Sololá	710	Panajachel	8	Panajachel	4	Abril	2023-05-04T00:00:00	2024-11-08T10:00:00	8	Radiación solar	730
29325	7	Sololá	710	Panajachel	8	Panajachel	4	Abril	2023-05-04T00:00:00	2024-11-08T11:00:00	2	Temperatura media	22
29326	7	Sololá	710	Panajachel	8	Panajachel	4	Abril	2023-05-04T00:00:00	2024-11-08T11:00:00	4	Temperatura máxima	22
29327	7	Sololá	710	Panajachel	8	Panajachel	4	Abril	2023-05-04T00:00:00	2024-11-08T11:00:00	3	Temperatura mínima	20.6
29328	7	Sololá	710	Panajachel	8	Panajachel	4	Abril	2023-05-04T00:00:00	2024-11-08T11:00:00	5	Humedad	67
29329	7	Sololá	710	Panajachel	8	Panajachel	4	Abril	2023-05-04T00:00:00	2024-11-08T11:00:00	6	Velocidad del viento	0
29330	7	Sololá	710	Panajachel	8	Panajachel	4	Abril	2023-05-04T00:00:00	2024-11-08T11:00:00	7	Dirección del viento	0
29331	7	Sololá	710	Panajachel	8	Panajachel	4	Abril	2023-05-04T00:00:00	2024-11-08T11:00:00	1	Precipitación	0
29332	7	Sololá	710	Panajachel	8	Panajachel	4	Abril	2023-05-04T00:00:00	2024-11-08T11:00:00	8	Radiación solar	869
29333	7	Sololá	710	Panajachel	8	Panajachel	4	Abril	2023-05-04T00:00:00	2024-11-08T12:00:00	2	Temperatura media	23.2
29334	7	Sololá	710	Panajachel	8	Panajachel	4	Abril	2023-05-04T00:00:00	2024-11-08T12:00:00	4	Temperatura máxima	23.4
29335	7	Sololá	710	Panajachel	8	Panajachel	4	Abril	2023-05-04T00:00:00	2024-11-08T12:00:00	3	Temperatura mínima	22
29336	7	Sololá	710	Panajachel	8	Panajachel	4	Abril	2023-05-04T00:00:00	2024-11-08T12:00:00	5	Humedad	67
29337	7	Sololá	710	Panajachel	8	Panajachel	4	Abril	2023-05-04T00:00:00	2024-11-08T12:00:00	6	Velocidad del viento	0
29338	7	Sololá	710	Panajachel	8	Panajachel	4	Abril	2023-05-04T00:00:00	2024-11-08T12:00:00	7	Dirección del viento	0
29339	7	Sololá	710	Panajachel	8	Panajachel	4	Abril	2023-05-04T00:00:00	2024-11-08T12:00:00	1	Precipitación	0
29340	7	Sololá	710	Panajachel	8	Panajachel	4	Abril	2023-05-04T00:00:00	2024-11-08T12:00:00	8	Radiación solar	940
29341	7	Sololá	710	Panajachel	8	Panajachel	4	Abril	2023-05-04T00:00:00	2024-11-08T13:00:00	2	Temperatura media	23.1
29342	7	Sololá	710	Panajachel	8	Panajachel	4	Abril	2023-05-04T00:00:00	2024-11-08T13:00:00	4	Temperatura máxima	23.9
29343	7	Sololá	710	Panajachel	8	Panajachel	4	Abril	2023-05-04T00:00:00	2024-11-08T13:00:00	3	Temperatura mínima	22.8
29344	7	Sololá	710	Panajachel	8	Panajachel	4	Abril	2023-05-04T00:00:00	2024-11-08T13:00:00	5	Humedad	74
29345	7	Sololá	710	Panajachel	8	Panajachel	4	Abril	2023-05-04T00:00:00	2024-11-08T13:00:00	6	Velocidad del viento	3.2
29346	7	Sololá	710	Panajachel	8	Panajachel	4	Abril	2023-05-04T00:00:00	2024-11-08T13:00:00	7	Dirección del viento	3.22
29347	7	Sololá	710	Panajachel	8	Panajachel	4	Abril	2023-05-04T00:00:00	2024-11-08T13:00:00	1	Precipitación	0
29348	7	Sololá	710	Panajachel	8	Panajachel	4	Abril	2023-05-04T00:00:00	2024-11-08T13:00:00	8	Radiación solar	940
29349	7	Sololá	710	Panajachel	8	Panajachel	4	Abril	2023-05-04T00:00:00	2024-11-08T14:00:00	2	Temperatura media	24
29350	7	Sololá	710	Panajachel	8	Panajachel	4	Abril	2023-05-04T00:00:00	2024-11-08T14:00:00	4	Temperatura máxima	24.7
29351	7	Sololá	710	Panajachel	8	Panajachel	4	Abril	2023-05-04T00:00:00	2024-11-08T14:00:00	3	Temperatura mínima	22.9
29352	7	Sololá	710	Panajachel	8	Panajachel	4	Abril	2023-05-04T00:00:00	2024-11-08T14:00:00	5	Humedad	74
29353	7	Sololá	710	Panajachel	8	Panajachel	4	Abril	2023-05-04T00:00:00	2024-11-08T14:00:00	6	Velocidad del viento	3.2
29354	7	Sololá	710	Panajachel	8	Panajachel	4	Abril	2023-05-04T00:00:00	2024-11-08T14:00:00	7	Dirección del viento	3.22
29355	7	Sololá	710	Panajachel	8	Panajachel	4	Abril	2023-05-04T00:00:00	2024-11-08T14:00:00	1	Precipitación	0
29356	7	Sololá	710	Panajachel	8	Panajachel	4	Abril	2023-05-04T00:00:00	2024-11-08T14:00:00	8	Radiación solar	850
29357	7	Sololá	710	Panajachel	8	Panajachel	4	Abril	2023-05-04T00:00:00	2024-11-08T15:00:00	2	Temperatura media	23.6
29358	7	Sololá	710	Panajachel	8	Panajachel	4	Abril	2023-05-04T00:00:00	2024-11-08T15:00:00	4	Temperatura máxima	24.8
29359	7	Sololá	710	Panajachel	8	Panajachel	4	Abril	2023-05-04T00:00:00	2024-11-08T15:00:00	3	Temperatura mínima	23.6
29360	7	Sololá	710	Panajachel	8	Panajachel	4	Abril	2023-05-04T00:00:00	2024-11-08T15:00:00	5	Humedad	76
29361	7	Sololá	710	Panajachel	8	Panajachel	4	Abril	2023-05-04T00:00:00	2024-11-08T15:00:00	6	Velocidad del viento	4.8
29362	7	Sololá	710	Panajachel	8	Panajachel	4	Abril	2023-05-04T00:00:00	2024-11-08T15:00:00	7	Dirección del viento	4.83
29363	7	Sololá	710	Panajachel	8	Panajachel	4	Abril	2023-05-04T00:00:00	2024-11-08T15:00:00	1	Precipitación	0
29364	7	Sololá	710	Panajachel	8	Panajachel	4	Abril	2023-05-04T00:00:00	2024-11-08T15:00:00	8	Radiación solar	686
29365	7	Sololá	710	Panajachel	8	Panajachel	4	Abril	2023-05-04T00:00:00	2024-11-08T16:00:00	2	Temperatura media	22.7
29366	7	Sololá	710	Panajachel	8	Panajachel	4	Abril	2023-05-04T00:00:00	2024-11-08T16:00:00	4	Temperatura máxima	23.7
29367	7	Sololá	710	Panajachel	8	Panajachel	4	Abril	2023-05-04T00:00:00	2024-11-08T16:00:00	3	Temperatura mínima	22.7
29368	7	Sololá	710	Panajachel	8	Panajachel	4	Abril	2023-05-04T00:00:00	2024-11-08T16:00:00	5	Humedad	81
29369	7	Sololá	710	Panajachel	8	Panajachel	4	Abril	2023-05-04T00:00:00	2024-11-08T16:00:00	6	Velocidad del viento	4.8
29370	7	Sololá	710	Panajachel	8	Panajachel	4	Abril	2023-05-04T00:00:00	2024-11-08T16:00:00	7	Dirección del viento	4.83
29371	7	Sololá	710	Panajachel	8	Panajachel	4	Abril	2023-05-04T00:00:00	2024-11-08T16:00:00	1	Precipitación	0
29372	7	Sololá	710	Panajachel	8	Panajachel	4	Abril	2023-05-04T00:00:00	2024-11-08T16:00:00	8	Radiación solar	406
29373	7	Sololá	710	Panajachel	8	Panajachel	4	Abril	2023-05-04T00:00:00	2024-11-08T17:00:00	2	Temperatura media	21.4
29374	7	Sololá	710	Panajachel	8	Panajachel	4	Abril	2023-05-04T00:00:00	2024-11-08T17:00:00	4	Temperatura máxima	22.7
29375	7	Sololá	710	Panajachel	8	Panajachel	4	Abril	2023-05-04T00:00:00	2024-11-08T17:00:00	3	Temperatura mínima	21.4
29376	7	Sololá	710	Panajachel	8	Panajachel	4	Abril	2023-05-04T00:00:00	2024-11-08T17:00:00	5	Humedad	84
29377	7	Sololá	710	Panajachel	8	Panajachel	4	Abril	2023-05-04T00:00:00	2024-11-08T17:00:00	6	Velocidad del viento	1.6
29378	7	Sololá	710	Panajachel	8	Panajachel	4	Abril	2023-05-04T00:00:00	2024-11-08T17:00:00	7	Dirección del viento	1.61
29379	7	Sololá	710	Panajachel	8	Panajachel	4	Abril	2023-05-04T00:00:00	2024-11-08T17:00:00	1	Precipitación	0
29380	7	Sololá	710	Panajachel	8	Panajachel	4	Abril	2023-05-04T00:00:00	2024-11-08T17:00:00	8	Radiación solar	131
29381	7	Sololá	710	Panajachel	8	Panajachel	4	Abril	2023-05-04T00:00:00	2024-11-08T18:00:00	2	Temperatura media	21.2
29382	7	Sololá	710	Panajachel	8	Panajachel	4	Abril	2023-05-04T00:00:00	2024-11-08T18:00:00	4	Temperatura máxima	21.4
29383	7	Sololá	710	Panajachel	8	Panajachel	4	Abril	2023-05-04T00:00:00	2024-11-08T18:00:00	3	Temperatura mínima	21.2
29384	7	Sololá	710	Panajachel	8	Panajachel	4	Abril	2023-05-04T00:00:00	2024-11-08T18:00:00	5	Humedad	85
29385	7	Sololá	710	Panajachel	8	Panajachel	4	Abril	2023-05-04T00:00:00	2024-11-08T18:00:00	6	Velocidad del viento	0
29386	7	Sololá	710	Panajachel	8	Panajachel	4	Abril	2023-05-04T00:00:00	2024-11-08T18:00:00	7	Dirección del viento	0
29387	7	Sololá	710	Panajachel	8	Panajachel	4	Abril	2023-05-04T00:00:00	2024-11-08T18:00:00	1	Precipitación	0
29388	7	Sololá	710	Panajachel	8	Panajachel	4	Abril	2023-05-04T00:00:00	2024-11-08T18:00:00	8	Radiación solar	39
29389	7	Sololá	710	Panajachel	8	Panajachel	4	Abril	2023-05-04T00:00:00	2024-11-08T19:00:00	2	Temperatura media	20.8
29390	7	Sololá	710	Panajachel	8	Panajachel	4	Abril	2023-05-04T00:00:00	2024-11-08T19:00:00	4	Temperatura máxima	21.3
29391	7	Sololá	710	Panajachel	8	Panajachel	4	Abril	2023-05-04T00:00:00	2024-11-08T19:00:00	3	Temperatura mínima	20.8
29392	7	Sololá	710	Panajachel	8	Panajachel	4	Abril	2023-05-04T00:00:00	2024-11-08T19:00:00	5	Humedad	82
29393	7	Sololá	710	Panajachel	8	Panajachel	4	Abril	2023-05-04T00:00:00	2024-11-08T19:00:00	6	Velocidad del viento	4.8
29394	7	Sololá	710	Panajachel	8	Panajachel	4	Abril	2023-05-04T00:00:00	2024-11-08T19:00:00	7	Dirección del viento	4.83
29395	7	Sololá	710	Panajachel	8	Panajachel	4	Abril	2023-05-04T00:00:00	2024-11-08T19:00:00	1	Precipitación	0
29396	7	Sololá	710	Panajachel	8	Panajachel	4	Abril	2023-05-04T00:00:00	2024-11-08T19:00:00	8	Radiación solar	0
29397	7	Sololá	710	Panajachel	8	Panajachel	4	Abril	2023-05-04T00:00:00	2024-11-08T20:00:00	2	Temperatura media	20.6
29398	7	Sololá	710	Panajachel	8	Panajachel	4	Abril	2023-05-04T00:00:00	2024-11-08T20:00:00	4	Temperatura máxima	20.9
29399	7	Sololá	710	Panajachel	8	Panajachel	4	Abril	2023-05-04T00:00:00	2024-11-08T20:00:00	3	Temperatura mínima	20.4
29400	7	Sololá	710	Panajachel	8	Panajachel	4	Abril	2023-05-04T00:00:00	2024-11-08T20:00:00	5	Humedad	84
29401	7	Sololá	710	Panajachel	8	Panajachel	4	Abril	2023-05-04T00:00:00	2024-11-08T20:00:00	6	Velocidad del viento	0
29402	7	Sololá	710	Panajachel	8	Panajachel	4	Abril	2023-05-04T00:00:00	2024-11-08T20:00:00	7	Dirección del viento	0
29403	7	Sololá	710	Panajachel	8	Panajachel	4	Abril	2023-05-04T00:00:00	2024-11-08T20:00:00	1	Precipitación	0
29404	7	Sololá	710	Panajachel	8	Panajachel	4	Abril	2023-05-04T00:00:00	2024-11-08T20:00:00	8	Radiación solar	0
29405	7	Sololá	710	Panajachel	8	Panajachel	4	Abril	2023-05-04T00:00:00	2024-11-08T21:00:00	2	Temperatura media	20.2
29406	7	Sololá	710	Panajachel	8	Panajachel	4	Abril	2023-05-04T00:00:00	2024-11-08T21:00:00	4	Temperatura máxima	20.9
29407	7	Sololá	710	Panajachel	8	Panajachel	4	Abril	2023-05-04T00:00:00	2024-11-08T21:00:00	3	Temperatura mínima	20.2
29408	7	Sololá	710	Panajachel	8	Panajachel	4	Abril	2023-05-04T00:00:00	2024-11-08T21:00:00	5	Humedad	89
29409	7	Sololá	710	Panajachel	8	Panajachel	4	Abril	2023-05-04T00:00:00	2024-11-08T21:00:00	6	Velocidad del viento	1.6
29410	7	Sololá	710	Panajachel	8	Panajachel	4	Abril	2023-05-04T00:00:00	2024-11-08T21:00:00	7	Dirección del viento	1.61
29411	7	Sololá	710	Panajachel	8	Panajachel	4	Abril	2023-05-04T00:00:00	2024-11-08T21:00:00	1	Precipitación	0
29412	7	Sololá	710	Panajachel	8	Panajachel	4	Abril	2023-05-04T00:00:00	2024-11-08T21:00:00	8	Radiación solar	0
29413	7	Sololá	710	Panajachel	8	Panajachel	4	Abril	2023-05-04T00:00:00	2024-11-08T22:00:00	2	Temperatura media	19.8
29414	7	Sololá	710	Panajachel	8	Panajachel	4	Abril	2023-05-04T00:00:00	2024-11-08T22:00:00	4	Temperatura máxima	20.2
29415	7	Sololá	710	Panajachel	8	Panajachel	4	Abril	2023-05-04T00:00:00	2024-11-08T22:00:00	3	Temperatura mínima	19.8
29416	7	Sololá	710	Panajachel	8	Panajachel	4	Abril	2023-05-04T00:00:00	2024-11-08T22:00:00	5	Humedad	80
29417	7	Sololá	710	Panajachel	8	Panajachel	4	Abril	2023-05-04T00:00:00	2024-11-08T22:00:00	6	Velocidad del viento	1.6
29418	7	Sololá	710	Panajachel	8	Panajachel	4	Abril	2023-05-04T00:00:00	2024-11-08T22:00:00	7	Dirección del viento	1.61
29419	7	Sololá	710	Panajachel	8	Panajachel	4	Abril	2023-05-04T00:00:00	2024-11-08T22:00:00	1	Precipitación	0
29420	7	Sololá	710	Panajachel	8	Panajachel	4	Abril	2023-05-04T00:00:00	2024-11-08T22:00:00	8	Radiación solar	0
29421	7	Sololá	710	Panajachel	8	Panajachel	4	Abril	2023-05-04T00:00:00	2024-11-08T23:00:00	2	Temperatura media	19.2
29422	7	Sololá	710	Panajachel	8	Panajachel	4	Abril	2023-05-04T00:00:00	2024-11-08T23:00:00	4	Temperatura máxima	19.8
29423	7	Sololá	710	Panajachel	8	Panajachel	4	Abril	2023-05-04T00:00:00	2024-11-08T23:00:00	3	Temperatura mínima	19.2
29424	7	Sololá	710	Panajachel	8	Panajachel	4	Abril	2023-05-04T00:00:00	2024-11-08T23:00:00	5	Humedad	77
29425	7	Sololá	710	Panajachel	8	Panajachel	4	Abril	2023-05-04T00:00:00	2024-11-08T23:00:00	6	Velocidad del viento	8
29426	7	Sololá	710	Panajachel	8	Panajachel	4	Abril	2023-05-04T00:00:00	2024-11-08T23:00:00	7	Dirección del viento	8.05
29427	7	Sololá	710	Panajachel	8	Panajachel	4	Abril	2023-05-04T00:00:00	2024-11-08T23:00:00	1	Precipitación	0
29428	7	Sololá	710	Panajachel	8	Panajachel	4	Abril	2023-05-04T00:00:00	2024-11-08T23:00:00	8	Radiación solar	0
29429	7	Sololá	710	Panajachel	8	Panajachel	4	Abril	2023-06-04T00:00:00	2024-11-08T00:00:00	2	Temperatura media	18.3
29430	7	Sololá	710	Panajachel	8	Panajachel	4	Abril	2023-06-04T00:00:00	2024-11-08T00:00:00	4	Temperatura máxima	19.2
29431	7	Sololá	710	Panajachel	8	Panajachel	4	Abril	2023-06-04T00:00:00	2024-11-08T00:00:00	3	Temperatura mínima	18.3
29432	7	Sololá	710	Panajachel	8	Panajachel	4	Abril	2023-06-04T00:00:00	2024-11-08T00:00:00	5	Humedad	78
29433	7	Sololá	710	Panajachel	8	Panajachel	4	Abril	2023-06-04T00:00:00	2024-11-08T00:00:00	6	Velocidad del viento	6.4
29434	7	Sololá	710	Panajachel	8	Panajachel	4	Abril	2023-06-04T00:00:00	2024-11-08T00:00:00	7	Dirección del viento	6.44
29435	7	Sololá	710	Panajachel	8	Panajachel	4	Abril	2023-06-04T00:00:00	2024-11-08T00:00:00	1	Precipitación	0
29436	7	Sololá	710	Panajachel	8	Panajachel	4	Abril	2023-06-04T00:00:00	2024-11-08T00:00:00	8	Radiación solar	0
29437	7	Sololá	710	Panajachel	8	Panajachel	4	Abril	2023-06-04T00:00:00	2024-11-08T01:00:00	2	Temperatura media	18.4
29438	7	Sololá	710	Panajachel	8	Panajachel	4	Abril	2023-06-04T00:00:00	2024-11-08T01:00:00	4	Temperatura máxima	18.5
29439	7	Sololá	710	Panajachel	8	Panajachel	4	Abril	2023-06-04T00:00:00	2024-11-08T01:00:00	3	Temperatura mínima	18.3
29440	7	Sololá	710	Panajachel	8	Panajachel	4	Abril	2023-06-04T00:00:00	2024-11-08T01:00:00	5	Humedad	75
29441	7	Sololá	710	Panajachel	8	Panajachel	4	Abril	2023-06-04T00:00:00	2024-11-08T01:00:00	6	Velocidad del viento	9.7
29442	7	Sololá	710	Panajachel	8	Panajachel	4	Abril	2023-06-04T00:00:00	2024-11-08T01:00:00	7	Dirección del viento	9.66
29443	7	Sololá	710	Panajachel	8	Panajachel	4	Abril	2023-06-04T00:00:00	2024-11-08T01:00:00	1	Precipitación	0
29444	7	Sololá	710	Panajachel	8	Panajachel	4	Abril	2023-06-04T00:00:00	2024-11-08T01:00:00	8	Radiación solar	0
29445	7	Sololá	710	Panajachel	8	Panajachel	4	Abril	2023-06-04T00:00:00	2024-11-08T02:00:00	2	Temperatura media	17.9
29446	7	Sololá	710	Panajachel	8	Panajachel	4	Abril	2023-06-04T00:00:00	2024-11-08T02:00:00	4	Temperatura máxima	18.6
29447	7	Sololá	710	Panajachel	8	Panajachel	4	Abril	2023-06-04T00:00:00	2024-11-08T02:00:00	3	Temperatura mínima	17.9
29448	7	Sololá	710	Panajachel	8	Panajachel	4	Abril	2023-06-04T00:00:00	2024-11-08T02:00:00	5	Humedad	78
29449	7	Sololá	710	Panajachel	8	Panajachel	4	Abril	2023-06-04T00:00:00	2024-11-08T02:00:00	6	Velocidad del viento	9.7
29450	7	Sololá	710	Panajachel	8	Panajachel	4	Abril	2023-06-04T00:00:00	2024-11-08T02:00:00	7	Dirección del viento	9.66
29451	7	Sololá	710	Panajachel	8	Panajachel	4	Abril	2023-06-04T00:00:00	2024-11-08T02:00:00	1	Precipitación	0
29452	7	Sololá	710	Panajachel	8	Panajachel	4	Abril	2023-06-04T00:00:00	2024-11-08T02:00:00	8	Radiación solar	0
29453	7	Sololá	710	Panajachel	8	Panajachel	4	Abril	2023-06-04T00:00:00	2024-11-08T03:00:00	2	Temperatura media	17.3
29454	7	Sololá	710	Panajachel	8	Panajachel	4	Abril	2023-06-04T00:00:00	2024-11-08T03:00:00	4	Temperatura máxima	17.9
29455	7	Sololá	710	Panajachel	8	Panajachel	4	Abril	2023-06-04T00:00:00	2024-11-08T03:00:00	3	Temperatura mínima	17.3
29456	7	Sololá	710	Panajachel	8	Panajachel	4	Abril	2023-06-04T00:00:00	2024-11-08T03:00:00	5	Humedad	81
29457	7	Sololá	710	Panajachel	8	Panajachel	4	Abril	2023-06-04T00:00:00	2024-11-08T03:00:00	6	Velocidad del viento	9.7
29458	7	Sololá	710	Panajachel	8	Panajachel	4	Abril	2023-06-04T00:00:00	2024-11-08T03:00:00	7	Dirección del viento	9.66
29459	7	Sololá	710	Panajachel	8	Panajachel	4	Abril	2023-06-04T00:00:00	2024-11-08T03:00:00	1	Precipitación	0
29460	7	Sololá	710	Panajachel	8	Panajachel	4	Abril	2023-06-04T00:00:00	2024-11-08T03:00:00	8	Radiación solar	0
29461	7	Sololá	710	Panajachel	8	Panajachel	4	Abril	2023-06-04T00:00:00	2024-11-08T04:00:00	2	Temperatura media	17.6
29462	7	Sololá	710	Panajachel	8	Panajachel	4	Abril	2023-06-04T00:00:00	2024-11-08T04:00:00	4	Temperatura máxima	17.9
29463	7	Sololá	710	Panajachel	8	Panajachel	4	Abril	2023-06-04T00:00:00	2024-11-08T04:00:00	3	Temperatura mínima	17.3
29464	7	Sololá	710	Panajachel	8	Panajachel	4	Abril	2023-06-04T00:00:00	2024-11-08T04:00:00	5	Humedad	80
29465	7	Sololá	710	Panajachel	8	Panajachel	4	Abril	2023-06-04T00:00:00	2024-11-08T04:00:00	6	Velocidad del viento	9.7
29466	7	Sololá	710	Panajachel	8	Panajachel	4	Abril	2023-06-04T00:00:00	2024-11-08T04:00:00	7	Dirección del viento	9.66
29467	7	Sololá	710	Panajachel	8	Panajachel	4	Abril	2023-06-04T00:00:00	2024-11-08T04:00:00	1	Precipitación	0
29468	7	Sololá	710	Panajachel	8	Panajachel	4	Abril	2023-06-04T00:00:00	2024-11-08T04:00:00	8	Radiación solar	0
29469	7	Sololá	710	Panajachel	8	Panajachel	4	Abril	2023-06-04T00:00:00	2024-11-08T05:00:00	2	Temperatura media	17.4
29470	7	Sololá	710	Panajachel	8	Panajachel	4	Abril	2023-06-04T00:00:00	2024-11-08T05:00:00	4	Temperatura máxima	17.7
29471	7	Sololá	710	Panajachel	8	Panajachel	4	Abril	2023-06-04T00:00:00	2024-11-08T05:00:00	3	Temperatura mínima	17.4
29472	7	Sololá	710	Panajachel	8	Panajachel	4	Abril	2023-06-04T00:00:00	2024-11-08T05:00:00	5	Humedad	80
29473	7	Sololá	710	Panajachel	8	Panajachel	4	Abril	2023-06-04T00:00:00	2024-11-08T05:00:00	6	Velocidad del viento	8
29474	7	Sololá	710	Panajachel	8	Panajachel	4	Abril	2023-06-04T00:00:00	2024-11-08T05:00:00	7	Dirección del viento	8.05
29475	7	Sololá	710	Panajachel	8	Panajachel	4	Abril	2023-06-04T00:00:00	2024-11-08T05:00:00	1	Precipitación	0
29476	7	Sololá	710	Panajachel	8	Panajachel	4	Abril	2023-06-04T00:00:00	2024-11-08T05:00:00	8	Radiación solar	0
29477	7	Sololá	710	Panajachel	8	Panajachel	4	Abril	2023-06-04T00:00:00	2024-11-08T06:00:00	2	Temperatura media	17.5
29478	7	Sololá	710	Panajachel	8	Panajachel	4	Abril	2023-06-04T00:00:00	2024-11-08T06:00:00	4	Temperatura máxima	17.6
29479	7	Sololá	710	Panajachel	8	Panajachel	4	Abril	2023-06-04T00:00:00	2024-11-08T06:00:00	3	Temperatura mínima	17.4
29480	7	Sololá	710	Panajachel	8	Panajachel	4	Abril	2023-06-04T00:00:00	2024-11-08T06:00:00	5	Humedad	78
29481	7	Sololá	710	Panajachel	8	Panajachel	4	Abril	2023-06-04T00:00:00	2024-11-08T06:00:00	6	Velocidad del viento	9.7
29482	7	Sololá	710	Panajachel	8	Panajachel	4	Abril	2023-06-04T00:00:00	2024-11-08T06:00:00	7	Dirección del viento	9.66
29483	7	Sololá	710	Panajachel	8	Panajachel	4	Abril	2023-06-04T00:00:00	2024-11-08T06:00:00	1	Precipitación	0
29484	7	Sololá	710	Panajachel	8	Panajachel	4	Abril	2023-06-04T00:00:00	2024-11-08T06:00:00	8	Radiación solar	0
29485	7	Sololá	710	Panajachel	8	Panajachel	4	Abril	2023-06-04T00:00:00	2024-11-08T07:00:00	2	Temperatura media	18.2
29486	7	Sololá	710	Panajachel	8	Panajachel	4	Abril	2023-06-04T00:00:00	2024-11-08T07:00:00	4	Temperatura máxima	18.2
29487	7	Sololá	710	Panajachel	8	Panajachel	4	Abril	2023-06-04T00:00:00	2024-11-08T07:00:00	3	Temperatura mínima	17.5
29488	7	Sololá	710	Panajachel	8	Panajachel	4	Abril	2023-06-04T00:00:00	2024-11-08T07:00:00	5	Humedad	76
29489	7	Sololá	710	Panajachel	8	Panajachel	4	Abril	2023-06-04T00:00:00	2024-11-08T07:00:00	6	Velocidad del viento	9.7
29490	7	Sololá	710	Panajachel	8	Panajachel	4	Abril	2023-06-04T00:00:00	2024-11-08T07:00:00	7	Dirección del viento	9.66
29491	7	Sololá	710	Panajachel	8	Panajachel	4	Abril	2023-06-04T00:00:00	2024-11-08T07:00:00	1	Precipitación	0
29492	7	Sololá	710	Panajachel	8	Panajachel	4	Abril	2023-06-04T00:00:00	2024-11-08T07:00:00	8	Radiación solar	16
29493	7	Sololá	710	Panajachel	8	Panajachel	4	Abril	2023-06-04T00:00:00	2024-11-08T08:00:00	2	Temperatura media	19.4
29494	7	Sololá	710	Panajachel	8	Panajachel	4	Abril	2023-06-04T00:00:00	2024-11-08T08:00:00	4	Temperatura máxima	19.4
29495	7	Sololá	710	Panajachel	8	Panajachel	4	Abril	2023-06-04T00:00:00	2024-11-08T08:00:00	3	Temperatura mínima	18.1
29496	7	Sololá	710	Panajachel	8	Panajachel	4	Abril	2023-06-04T00:00:00	2024-11-08T08:00:00	5	Humedad	77
29497	7	Sololá	710	Panajachel	8	Panajachel	4	Abril	2023-06-04T00:00:00	2024-11-08T08:00:00	6	Velocidad del viento	4.8
29498	7	Sololá	710	Panajachel	8	Panajachel	4	Abril	2023-06-04T00:00:00	2024-11-08T08:00:00	7	Dirección del viento	4.83
29499	7	Sololá	710	Panajachel	8	Panajachel	4	Abril	2023-06-04T00:00:00	2024-11-08T08:00:00	1	Precipitación	0
29500	7	Sololá	710	Panajachel	8	Panajachel	4	Abril	2023-06-04T00:00:00	2024-11-08T08:00:00	8	Radiación solar	206
29501	7	Sololá	710	Panajachel	8	Panajachel	4	Abril	2023-06-04T00:00:00	2024-11-08T09:00:00	2	Temperatura media	21.4
29502	7	Sololá	710	Panajachel	8	Panajachel	4	Abril	2023-06-04T00:00:00	2024-11-08T09:00:00	4	Temperatura máxima	21.4
29503	7	Sololá	710	Panajachel	8	Panajachel	4	Abril	2023-06-04T00:00:00	2024-11-08T09:00:00	3	Temperatura mínima	19.4
29504	7	Sololá	710	Panajachel	8	Panajachel	4	Abril	2023-06-04T00:00:00	2024-11-08T09:00:00	5	Humedad	72
29505	7	Sololá	710	Panajachel	8	Panajachel	4	Abril	2023-06-04T00:00:00	2024-11-08T09:00:00	6	Velocidad del viento	3.2
29506	7	Sololá	710	Panajachel	8	Panajachel	4	Abril	2023-06-04T00:00:00	2024-11-08T09:00:00	7	Dirección del viento	3.22
29507	7	Sololá	710	Panajachel	8	Panajachel	4	Abril	2023-06-04T00:00:00	2024-11-08T09:00:00	1	Precipitación	0
29508	7	Sololá	710	Panajachel	8	Panajachel	4	Abril	2023-06-04T00:00:00	2024-11-08T09:00:00	8	Radiación solar	299
29509	7	Sololá	710	Panajachel	8	Panajachel	4	Abril	2023-06-04T00:00:00	2024-11-08T10:00:00	2	Temperatura media	22.8
29510	7	Sololá	710	Panajachel	8	Panajachel	4	Abril	2023-06-04T00:00:00	2024-11-08T10:00:00	4	Temperatura máxima	22.8
29511	7	Sololá	710	Panajachel	8	Panajachel	4	Abril	2023-06-04T00:00:00	2024-11-08T10:00:00	3	Temperatura mínima	21.6
29512	7	Sololá	710	Panajachel	8	Panajachel	4	Abril	2023-06-04T00:00:00	2024-11-08T10:00:00	5	Humedad	69
29513	7	Sololá	710	Panajachel	8	Panajachel	4	Abril	2023-06-04T00:00:00	2024-11-08T10:00:00	6	Velocidad del viento	4.8
29514	7	Sololá	710	Panajachel	8	Panajachel	4	Abril	2023-06-04T00:00:00	2024-11-08T10:00:00	7	Dirección del viento	4.83
29515	7	Sololá	710	Panajachel	8	Panajachel	4	Abril	2023-06-04T00:00:00	2024-11-08T10:00:00	1	Precipitación	0
29516	7	Sololá	710	Panajachel	8	Panajachel	4	Abril	2023-06-04T00:00:00	2024-11-08T10:00:00	8	Radiación solar	330
29517	7	Sololá	710	Panajachel	8	Panajachel	4	Abril	2023-06-04T00:00:00	2024-11-08T11:00:00	2	Temperatura media	23.7
29518	7	Sololá	710	Panajachel	8	Panajachel	4	Abril	2023-06-04T00:00:00	2024-11-08T11:00:00	4	Temperatura máxima	23.7
29519	7	Sololá	710	Panajachel	8	Panajachel	4	Abril	2023-06-04T00:00:00	2024-11-08T11:00:00	3	Temperatura mínima	22.8
29520	7	Sololá	710	Panajachel	8	Panajachel	4	Abril	2023-06-04T00:00:00	2024-11-08T11:00:00	5	Humedad	64
29521	7	Sololá	710	Panajachel	8	Panajachel	4	Abril	2023-06-04T00:00:00	2024-11-08T11:00:00	6	Velocidad del viento	4.8
29522	7	Sololá	710	Panajachel	8	Panajachel	4	Abril	2023-06-04T00:00:00	2024-11-08T11:00:00	7	Dirección del viento	4.83
29523	7	Sololá	710	Panajachel	8	Panajachel	4	Abril	2023-06-04T00:00:00	2024-11-08T11:00:00	1	Precipitación	0
29524	7	Sololá	710	Panajachel	8	Panajachel	4	Abril	2023-06-04T00:00:00	2024-11-08T11:00:00	8	Radiación solar	346
29525	7	Sololá	710	Panajachel	8	Panajachel	4	Abril	2023-06-04T00:00:00	2024-11-08T12:00:00	2	Temperatura media	23.8
29526	7	Sololá	710	Panajachel	8	Panajachel	4	Abril	2023-06-04T00:00:00	2024-11-08T12:00:00	4	Temperatura máxima	24.4
29527	7	Sololá	710	Panajachel	8	Panajachel	4	Abril	2023-06-04T00:00:00	2024-11-08T12:00:00	3	Temperatura mínima	23.5
29528	7	Sololá	710	Panajachel	8	Panajachel	4	Abril	2023-06-04T00:00:00	2024-11-08T12:00:00	5	Humedad	65
29529	7	Sololá	710	Panajachel	8	Panajachel	4	Abril	2023-06-04T00:00:00	2024-11-08T12:00:00	6	Velocidad del viento	6.4
29530	7	Sololá	710	Panajachel	8	Panajachel	4	Abril	2023-06-04T00:00:00	2024-11-08T12:00:00	7	Dirección del viento	6.44
29531	7	Sololá	710	Panajachel	8	Panajachel	4	Abril	2023-06-04T00:00:00	2024-11-08T12:00:00	1	Precipitación	0
29532	7	Sololá	710	Panajachel	8	Panajachel	4	Abril	2023-06-04T00:00:00	2024-11-08T12:00:00	8	Radiación solar	336
29533	7	Sololá	710	Panajachel	8	Panajachel	4	Abril	2023-06-04T00:00:00	2024-11-08T13:00:00	2	Temperatura media	24.8
29534	7	Sololá	710	Panajachel	8	Panajachel	4	Abril	2023-06-04T00:00:00	2024-11-08T13:00:00	4	Temperatura máxima	24.8
29535	7	Sololá	710	Panajachel	8	Panajachel	4	Abril	2023-06-04T00:00:00	2024-11-08T13:00:00	3	Temperatura mínima	23.9
29536	7	Sololá	710	Panajachel	8	Panajachel	4	Abril	2023-06-04T00:00:00	2024-11-08T13:00:00	5	Humedad	64
29537	7	Sololá	710	Panajachel	8	Panajachel	4	Abril	2023-06-04T00:00:00	2024-11-08T13:00:00	6	Velocidad del viento	6.4
29538	7	Sololá	710	Panajachel	8	Panajachel	4	Abril	2023-06-04T00:00:00	2024-11-08T13:00:00	7	Dirección del viento	6.44
29539	7	Sololá	710	Panajachel	8	Panajachel	4	Abril	2023-06-04T00:00:00	2024-11-08T13:00:00	1	Precipitación	0
29540	7	Sololá	710	Panajachel	8	Panajachel	4	Abril	2023-06-04T00:00:00	2024-11-08T13:00:00	8	Radiación solar	343
29541	7	Sololá	710	Panajachel	8	Panajachel	4	Abril	2023-06-04T00:00:00	2024-11-08T14:00:00	2	Temperatura media	23.4
29542	7	Sololá	710	Panajachel	8	Panajachel	4	Abril	2023-06-04T00:00:00	2024-11-08T14:00:00	4	Temperatura máxima	24.9
29543	7	Sololá	710	Panajachel	8	Panajachel	4	Abril	2023-06-04T00:00:00	2024-11-08T14:00:00	3	Temperatura mínima	23.1
29544	7	Sololá	710	Panajachel	8	Panajachel	4	Abril	2023-06-04T00:00:00	2024-11-08T14:00:00	5	Humedad	71
29545	7	Sololá	710	Panajachel	8	Panajachel	4	Abril	2023-06-04T00:00:00	2024-11-08T14:00:00	6	Velocidad del viento	6.4
29546	7	Sololá	710	Panajachel	8	Panajachel	4	Abril	2023-06-04T00:00:00	2024-11-08T14:00:00	7	Dirección del viento	6.44
29547	7	Sololá	710	Panajachel	8	Panajachel	4	Abril	2023-06-04T00:00:00	2024-11-08T14:00:00	1	Precipitación	0
29548	7	Sololá	710	Panajachel	8	Panajachel	4	Abril	2023-06-04T00:00:00	2024-11-08T14:00:00	8	Radiación solar	344
29549	7	Sololá	710	Panajachel	8	Panajachel	4	Abril	2023-06-04T00:00:00	2024-11-08T15:00:00	2	Temperatura media	22.6
29550	7	Sololá	710	Panajachel	8	Panajachel	4	Abril	2023-06-04T00:00:00	2024-11-08T15:00:00	4	Temperatura máxima	23.4
29551	7	Sololá	710	Panajachel	8	Panajachel	4	Abril	2023-06-04T00:00:00	2024-11-08T15:00:00	3	Temperatura mínima	22.2
29552	7	Sololá	710	Panajachel	8	Panajachel	4	Abril	2023-06-04T00:00:00	2024-11-08T15:00:00	5	Humedad	76
29553	7	Sololá	710	Panajachel	8	Panajachel	4	Abril	2023-06-04T00:00:00	2024-11-08T15:00:00	6	Velocidad del viento	6.4
29554	7	Sololá	710	Panajachel	8	Panajachel	4	Abril	2023-06-04T00:00:00	2024-11-08T15:00:00	7	Dirección del viento	6.44
29555	7	Sololá	710	Panajachel	8	Panajachel	4	Abril	2023-06-04T00:00:00	2024-11-08T15:00:00	1	Precipitación	0
29556	7	Sololá	710	Panajachel	8	Panajachel	4	Abril	2023-06-04T00:00:00	2024-11-08T15:00:00	8	Radiación solar	317
29557	7	Sololá	710	Panajachel	8	Panajachel	4	Abril	2023-06-04T00:00:00	2024-11-08T16:00:00	2	Temperatura media	22.4
29558	7	Sololá	710	Panajachel	8	Panajachel	4	Abril	2023-06-04T00:00:00	2024-11-08T16:00:00	4	Temperatura máxima	23.7
29559	7	Sololá	710	Panajachel	8	Panajachel	4	Abril	2023-06-04T00:00:00	2024-11-08T16:00:00	3	Temperatura mínima	22.4
29560	7	Sololá	710	Panajachel	8	Panajachel	4	Abril	2023-06-04T00:00:00	2024-11-08T16:00:00	5	Humedad	76
29561	7	Sololá	710	Panajachel	8	Panajachel	4	Abril	2023-06-04T00:00:00	2024-11-08T16:00:00	6	Velocidad del viento	6.4
29562	7	Sololá	710	Panajachel	8	Panajachel	4	Abril	2023-06-04T00:00:00	2024-11-08T16:00:00	7	Dirección del viento	6.44
29563	7	Sololá	710	Panajachel	8	Panajachel	4	Abril	2023-06-04T00:00:00	2024-11-08T16:00:00	1	Precipitación	0
29564	7	Sololá	710	Panajachel	8	Panajachel	4	Abril	2023-06-04T00:00:00	2024-11-08T16:00:00	8	Radiación solar	280
29565	7	Sololá	710	Panajachel	8	Panajachel	4	Abril	2023-06-04T00:00:00	2024-11-08T17:00:00	2	Temperatura media	21.9
29566	7	Sololá	710	Panajachel	8	Panajachel	4	Abril	2023-06-04T00:00:00	2024-11-08T17:00:00	4	Temperatura máxima	22.4
29567	7	Sololá	710	Panajachel	8	Panajachel	4	Abril	2023-06-04T00:00:00	2024-11-08T17:00:00	3	Temperatura mínima	21.9
29568	7	Sololá	710	Panajachel	8	Panajachel	4	Abril	2023-06-04T00:00:00	2024-11-08T17:00:00	5	Humedad	77
29569	7	Sololá	710	Panajachel	8	Panajachel	4	Abril	2023-06-04T00:00:00	2024-11-08T17:00:00	6	Velocidad del viento	4.8
29570	7	Sololá	710	Panajachel	8	Panajachel	4	Abril	2023-06-04T00:00:00	2024-11-08T17:00:00	7	Dirección del viento	4.83
29571	7	Sololá	710	Panajachel	8	Panajachel	4	Abril	2023-06-04T00:00:00	2024-11-08T17:00:00	1	Precipitación	0
29572	7	Sololá	710	Panajachel	8	Panajachel	4	Abril	2023-06-04T00:00:00	2024-11-08T17:00:00	8	Radiación solar	232
29573	7	Sololá	710	Panajachel	8	Panajachel	4	Abril	2023-06-04T00:00:00	2024-11-08T18:00:00	2	Temperatura media	20.9
29574	7	Sololá	710	Panajachel	8	Panajachel	4	Abril	2023-06-04T00:00:00	2024-11-08T18:00:00	4	Temperatura máxima	21.9
29575	7	Sololá	710	Panajachel	8	Panajachel	4	Abril	2023-06-04T00:00:00	2024-11-08T18:00:00	3	Temperatura mínima	20.9
29576	7	Sololá	710	Panajachel	8	Panajachel	4	Abril	2023-06-04T00:00:00	2024-11-08T18:00:00	5	Humedad	81
29577	7	Sololá	710	Panajachel	8	Panajachel	4	Abril	2023-06-04T00:00:00	2024-11-08T18:00:00	6	Velocidad del viento	4.8
29578	7	Sololá	710	Panajachel	8	Panajachel	4	Abril	2023-06-04T00:00:00	2024-11-08T18:00:00	7	Dirección del viento	4.83
29579	7	Sololá	710	Panajachel	8	Panajachel	4	Abril	2023-06-04T00:00:00	2024-11-08T18:00:00	1	Precipitación	0
29580	7	Sololá	710	Panajachel	8	Panajachel	4	Abril	2023-06-04T00:00:00	2024-11-08T18:00:00	8	Radiación solar	93
29581	7	Sololá	710	Panajachel	8	Panajachel	4	Abril	2023-06-04T00:00:00	2024-11-08T19:00:00	2	Temperatura media	20.3
29582	7	Sololá	710	Panajachel	8	Panajachel	4	Abril	2023-06-04T00:00:00	2024-11-08T19:00:00	4	Temperatura máxima	20.9
29583	7	Sololá	710	Panajachel	8	Panajachel	4	Abril	2023-06-04T00:00:00	2024-11-08T19:00:00	3	Temperatura mínima	20.2
29584	7	Sololá	710	Panajachel	8	Panajachel	4	Abril	2023-06-04T00:00:00	2024-11-08T19:00:00	5	Humedad	83
29585	7	Sololá	710	Panajachel	8	Panajachel	4	Abril	2023-06-04T00:00:00	2024-11-08T19:00:00	6	Velocidad del viento	1.6
29586	7	Sololá	710	Panajachel	8	Panajachel	4	Abril	2023-06-04T00:00:00	2024-11-08T19:00:00	7	Dirección del viento	1.61
29587	7	Sololá	710	Panajachel	8	Panajachel	4	Abril	2023-06-04T00:00:00	2024-11-08T19:00:00	1	Precipitación	0
29588	7	Sololá	710	Panajachel	8	Panajachel	4	Abril	2023-06-04T00:00:00	2024-11-08T19:00:00	8	Radiación solar	0
29589	7	Sololá	710	Panajachel	8	Panajachel	4	Abril	2023-06-04T00:00:00	2024-11-08T20:00:00	2	Temperatura media	20.2
29590	7	Sololá	710	Panajachel	8	Panajachel	4	Abril	2023-06-04T00:00:00	2024-11-08T20:00:00	4	Temperatura máxima	20.3
29591	7	Sololá	710	Panajachel	8	Panajachel	4	Abril	2023-06-04T00:00:00	2024-11-08T20:00:00	3	Temperatura mínima	20.2
29592	7	Sololá	710	Panajachel	8	Panajachel	4	Abril	2023-06-04T00:00:00	2024-11-08T20:00:00	5	Humedad	83
29593	7	Sololá	710	Panajachel	8	Panajachel	4	Abril	2023-06-04T00:00:00	2024-11-08T20:00:00	6	Velocidad del viento	1.6
29594	7	Sololá	710	Panajachel	8	Panajachel	4	Abril	2023-06-04T00:00:00	2024-11-08T20:00:00	7	Dirección del viento	1.61
29595	7	Sololá	710	Panajachel	8	Panajachel	4	Abril	2023-06-04T00:00:00	2024-11-08T20:00:00	1	Precipitación	0
29596	7	Sololá	710	Panajachel	8	Panajachel	4	Abril	2023-06-04T00:00:00	2024-11-08T20:00:00	8	Radiación solar	0
29597	7	Sololá	710	Panajachel	8	Panajachel	4	Abril	2023-06-04T00:00:00	2024-11-08T21:00:00	2	Temperatura media	19.1
29598	7	Sololá	710	Panajachel	8	Panajachel	4	Abril	2023-06-04T00:00:00	2024-11-08T21:00:00	4	Temperatura máxima	20.2
29599	7	Sololá	710	Panajachel	8	Panajachel	4	Abril	2023-06-04T00:00:00	2024-11-08T21:00:00	3	Temperatura mínima	19.1
29600	7	Sololá	710	Panajachel	8	Panajachel	4	Abril	2023-06-04T00:00:00	2024-11-08T21:00:00	5	Humedad	85
29601	7	Sololá	710	Panajachel	8	Panajachel	4	Abril	2023-06-04T00:00:00	2024-11-08T21:00:00	6	Velocidad del viento	1.6
29602	7	Sololá	710	Panajachel	8	Panajachel	4	Abril	2023-06-04T00:00:00	2024-11-08T21:00:00	7	Dirección del viento	1.61
29603	7	Sololá	710	Panajachel	8	Panajachel	4	Abril	2023-06-04T00:00:00	2024-11-08T21:00:00	1	Precipitación	0
29604	7	Sololá	710	Panajachel	8	Panajachel	4	Abril	2023-06-04T00:00:00	2024-11-08T21:00:00	8	Radiación solar	0
29605	7	Sololá	710	Panajachel	8	Panajachel	4	Abril	2023-06-04T00:00:00	2024-11-08T22:00:00	2	Temperatura media	18.1
29606	7	Sololá	710	Panajachel	8	Panajachel	4	Abril	2023-06-04T00:00:00	2024-11-08T22:00:00	4	Temperatura máxima	19.1
29607	7	Sololá	710	Panajachel	8	Panajachel	4	Abril	2023-06-04T00:00:00	2024-11-08T22:00:00	3	Temperatura mínima	18.1
29608	7	Sololá	710	Panajachel	8	Panajachel	4	Abril	2023-06-04T00:00:00	2024-11-08T22:00:00	5	Humedad	85
29609	7	Sololá	710	Panajachel	8	Panajachel	4	Abril	2023-06-04T00:00:00	2024-11-08T22:00:00	6	Velocidad del viento	3.2
29610	7	Sololá	710	Panajachel	8	Panajachel	4	Abril	2023-06-04T00:00:00	2024-11-08T22:00:00	7	Dirección del viento	3.22
29611	7	Sololá	710	Panajachel	8	Panajachel	4	Abril	2023-06-04T00:00:00	2024-11-08T22:00:00	1	Precipitación	0
29612	7	Sololá	710	Panajachel	8	Panajachel	4	Abril	2023-06-04T00:00:00	2024-11-08T22:00:00	8	Radiación solar	0
29613	7	Sololá	710	Panajachel	8	Panajachel	4	Abril	2023-06-04T00:00:00	2024-11-08T23:00:00	2	Temperatura media	17.5
29614	7	Sololá	710	Panajachel	8	Panajachel	4	Abril	2023-06-04T00:00:00	2024-11-08T23:00:00	4	Temperatura máxima	18.1
29615	7	Sololá	710	Panajachel	8	Panajachel	4	Abril	2023-06-04T00:00:00	2024-11-08T23:00:00	3	Temperatura mínima	17.5
29616	7	Sololá	710	Panajachel	8	Panajachel	4	Abril	2023-06-04T00:00:00	2024-11-08T23:00:00	5	Humedad	84
29617	7	Sololá	710	Panajachel	8	Panajachel	4	Abril	2023-06-04T00:00:00	2024-11-08T23:00:00	6	Velocidad del viento	6.4
29618	7	Sololá	710	Panajachel	8	Panajachel	4	Abril	2023-06-04T00:00:00	2024-11-08T23:00:00	7	Dirección del viento	6.44
29619	7	Sololá	710	Panajachel	8	Panajachel	4	Abril	2023-06-04T00:00:00	2024-11-08T23:00:00	1	Precipitación	0
29620	7	Sololá	710	Panajachel	8	Panajachel	4	Abril	2023-06-04T00:00:00	2024-11-08T23:00:00	8	Radiación solar	0
29621	7	Sololá	710	Panajachel	8	Panajachel	4	Abril	2023-07-04T00:00:00	2024-11-08T00:00:00	2	Temperatura media	17.3
29622	7	Sololá	710	Panajachel	8	Panajachel	4	Abril	2023-07-04T00:00:00	2024-11-08T00:00:00	4	Temperatura máxima	17.5
29623	7	Sololá	710	Panajachel	8	Panajachel	4	Abril	2023-07-04T00:00:00	2024-11-08T00:00:00	3	Temperatura mínima	17.1
29624	7	Sololá	710	Panajachel	8	Panajachel	4	Abril	2023-07-04T00:00:00	2024-11-08T00:00:00	5	Humedad	83
29625	7	Sololá	710	Panajachel	8	Panajachel	4	Abril	2023-07-04T00:00:00	2024-11-08T00:00:00	6	Velocidad del viento	8
29626	7	Sololá	710	Panajachel	8	Panajachel	4	Abril	2023-07-04T00:00:00	2024-11-08T00:00:00	7	Dirección del viento	8.05
29627	7	Sololá	710	Panajachel	8	Panajachel	4	Abril	2023-07-04T00:00:00	2024-11-08T00:00:00	1	Precipitación	0
29628	7	Sololá	710	Panajachel	8	Panajachel	4	Abril	2023-07-04T00:00:00	2024-11-08T00:00:00	8	Radiación solar	0
29629	7	Sololá	710	Panajachel	8	Panajachel	4	Abril	2023-07-04T00:00:00	2024-11-08T01:00:00	2	Temperatura media	17.6
29630	7	Sololá	710	Panajachel	8	Panajachel	4	Abril	2023-07-04T00:00:00	2024-11-08T01:00:00	4	Temperatura máxima	17.7
29631	7	Sololá	710	Panajachel	8	Panajachel	4	Abril	2023-07-04T00:00:00	2024-11-08T01:00:00	3	Temperatura mínima	17.2
29632	7	Sololá	710	Panajachel	8	Panajachel	4	Abril	2023-07-04T00:00:00	2024-11-08T01:00:00	5	Humedad	81
29633	7	Sololá	710	Panajachel	8	Panajachel	4	Abril	2023-07-04T00:00:00	2024-11-08T01:00:00	6	Velocidad del viento	6.4
29634	7	Sololá	710	Panajachel	8	Panajachel	4	Abril	2023-07-04T00:00:00	2024-11-08T01:00:00	7	Dirección del viento	6.44
29635	7	Sololá	710	Panajachel	8	Panajachel	4	Abril	2023-07-04T00:00:00	2024-11-08T01:00:00	1	Precipitación	0
29636	7	Sololá	710	Panajachel	8	Panajachel	4	Abril	2023-07-04T00:00:00	2024-11-08T01:00:00	8	Radiación solar	0
29637	7	Sololá	710	Panajachel	8	Panajachel	4	Abril	2023-07-04T00:00:00	2024-11-08T02:00:00	2	Temperatura media	17.6
29638	7	Sololá	710	Panajachel	8	Panajachel	4	Abril	2023-07-04T00:00:00	2024-11-08T02:00:00	4	Temperatura máxima	17.6
29639	7	Sololá	710	Panajachel	8	Panajachel	4	Abril	2023-07-04T00:00:00	2024-11-08T02:00:00	3	Temperatura mínima	17
29640	7	Sololá	710	Panajachel	8	Panajachel	4	Abril	2023-07-04T00:00:00	2024-11-08T02:00:00	5	Humedad	82
29641	7	Sololá	710	Panajachel	8	Panajachel	4	Abril	2023-07-04T00:00:00	2024-11-08T02:00:00	6	Velocidad del viento	6.4
29642	7	Sololá	710	Panajachel	8	Panajachel	4	Abril	2023-07-04T00:00:00	2024-11-08T02:00:00	7	Dirección del viento	6.44
29643	7	Sololá	710	Panajachel	8	Panajachel	4	Abril	2023-07-04T00:00:00	2024-11-08T02:00:00	1	Precipitación	0
29644	7	Sololá	710	Panajachel	8	Panajachel	4	Abril	2023-07-04T00:00:00	2024-11-08T02:00:00	8	Radiación solar	0
29645	7	Sololá	710	Panajachel	8	Panajachel	4	Abril	2023-07-04T00:00:00	2024-11-08T03:00:00	2	Temperatura media	16.4
29646	7	Sololá	710	Panajachel	8	Panajachel	4	Abril	2023-07-04T00:00:00	2024-11-08T03:00:00	4	Temperatura máxima	17.6
29647	7	Sololá	710	Panajachel	8	Panajachel	4	Abril	2023-07-04T00:00:00	2024-11-08T03:00:00	3	Temperatura mínima	16.3
29648	7	Sololá	710	Panajachel	8	Panajachel	4	Abril	2023-07-04T00:00:00	2024-11-08T03:00:00	5	Humedad	82
29649	7	Sololá	710	Panajachel	8	Panajachel	4	Abril	2023-07-04T00:00:00	2024-11-08T03:00:00	6	Velocidad del viento	6.4
29650	7	Sololá	710	Panajachel	8	Panajachel	4	Abril	2023-07-04T00:00:00	2024-11-08T03:00:00	7	Dirección del viento	6.44
29651	7	Sololá	710	Panajachel	8	Panajachel	4	Abril	2023-07-04T00:00:00	2024-11-08T03:00:00	1	Precipitación	0
29652	7	Sololá	710	Panajachel	8	Panajachel	4	Abril	2023-07-04T00:00:00	2024-11-08T03:00:00	8	Radiación solar	0
29653	7	Sololá	710	Panajachel	8	Panajachel	4	Abril	2023-07-04T00:00:00	2024-11-08T04:00:00	2	Temperatura media	16.8
29654	7	Sololá	710	Panajachel	8	Panajachel	4	Abril	2023-07-04T00:00:00	2024-11-08T04:00:00	4	Temperatura máxima	17.1
29655	7	Sololá	710	Panajachel	8	Panajachel	4	Abril	2023-07-04T00:00:00	2024-11-08T04:00:00	3	Temperatura mínima	16.2
29656	7	Sololá	710	Panajachel	8	Panajachel	4	Abril	2023-07-04T00:00:00	2024-11-08T04:00:00	5	Humedad	78
29657	7	Sololá	710	Panajachel	8	Panajachel	4	Abril	2023-07-04T00:00:00	2024-11-08T04:00:00	6	Velocidad del viento	8
29658	7	Sololá	710	Panajachel	8	Panajachel	4	Abril	2023-07-04T00:00:00	2024-11-08T04:00:00	7	Dirección del viento	8.05
29659	7	Sololá	710	Panajachel	8	Panajachel	4	Abril	2023-07-04T00:00:00	2024-11-08T04:00:00	1	Precipitación	0
29660	7	Sololá	710	Panajachel	8	Panajachel	4	Abril	2023-07-04T00:00:00	2024-11-08T04:00:00	8	Radiación solar	0
29661	7	Sololá	710	Panajachel	8	Panajachel	4	Abril	2023-07-04T00:00:00	2024-11-08T05:00:00	2	Temperatura media	15.8
29662	7	Sololá	710	Panajachel	8	Panajachel	4	Abril	2023-07-04T00:00:00	2024-11-08T05:00:00	4	Temperatura máxima	16.8
29663	7	Sololá	710	Panajachel	8	Panajachel	4	Abril	2023-07-04T00:00:00	2024-11-08T05:00:00	3	Temperatura mínima	15.8
29664	7	Sololá	710	Panajachel	8	Panajachel	4	Abril	2023-07-04T00:00:00	2024-11-08T05:00:00	5	Humedad	80
29665	7	Sololá	710	Panajachel	8	Panajachel	4	Abril	2023-07-04T00:00:00	2024-11-08T05:00:00	6	Velocidad del viento	11.3
29666	7	Sololá	710	Panajachel	8	Panajachel	4	Abril	2023-07-04T00:00:00	2024-11-08T05:00:00	7	Dirección del viento	11.27
29667	7	Sololá	710	Panajachel	8	Panajachel	4	Abril	2023-07-04T00:00:00	2024-11-08T05:00:00	1	Precipitación	0
29668	7	Sololá	710	Panajachel	8	Panajachel	4	Abril	2023-07-04T00:00:00	2024-11-08T05:00:00	8	Radiación solar	0
29669	7	Sololá	710	Panajachel	8	Panajachel	4	Abril	2023-07-04T00:00:00	2024-11-08T06:00:00	2	Temperatura media	15.2
29670	7	Sololá	710	Panajachel	8	Panajachel	4	Abril	2023-07-04T00:00:00	2024-11-08T06:00:00	4	Temperatura máxima	15.9
29671	7	Sololá	710	Panajachel	8	Panajachel	4	Abril	2023-07-04T00:00:00	2024-11-08T06:00:00	3	Temperatura mínima	15.2
29672	7	Sololá	710	Panajachel	8	Panajachel	4	Abril	2023-07-04T00:00:00	2024-11-08T06:00:00	5	Humedad	80
29673	7	Sololá	710	Panajachel	8	Panajachel	4	Abril	2023-07-04T00:00:00	2024-11-08T06:00:00	6	Velocidad del viento	14.5
29674	7	Sololá	710	Panajachel	8	Panajachel	4	Abril	2023-07-04T00:00:00	2024-11-08T06:00:00	7	Dirección del viento	14.48
29675	7	Sololá	710	Panajachel	8	Panajachel	4	Abril	2023-07-04T00:00:00	2024-11-08T06:00:00	1	Precipitación	0
29676	7	Sololá	710	Panajachel	8	Panajachel	4	Abril	2023-07-04T00:00:00	2024-11-08T06:00:00	8	Radiación solar	0
29677	7	Sololá	710	Panajachel	8	Panajachel	4	Abril	2023-07-04T00:00:00	2024-11-08T07:00:00	2	Temperatura media	15.6
29678	7	Sololá	710	Panajachel	8	Panajachel	4	Abril	2023-07-04T00:00:00	2024-11-08T07:00:00	4	Temperatura máxima	15.6
29679	7	Sololá	710	Panajachel	8	Panajachel	4	Abril	2023-07-04T00:00:00	2024-11-08T07:00:00	3	Temperatura mínima	15.1
29680	7	Sololá	710	Panajachel	8	Panajachel	4	Abril	2023-07-04T00:00:00	2024-11-08T07:00:00	5	Humedad	77
29681	7	Sololá	710	Panajachel	8	Panajachel	4	Abril	2023-07-04T00:00:00	2024-11-08T07:00:00	6	Velocidad del viento	12.9
29682	7	Sololá	710	Panajachel	8	Panajachel	4	Abril	2023-07-04T00:00:00	2024-11-08T07:00:00	7	Dirección del viento	12.87
29683	7	Sololá	710	Panajachel	8	Panajachel	4	Abril	2023-07-04T00:00:00	2024-11-08T07:00:00	1	Precipitación	0
29684	7	Sololá	710	Panajachel	8	Panajachel	4	Abril	2023-07-04T00:00:00	2024-11-08T07:00:00	8	Radiación solar	28
29685	7	Sololá	710	Panajachel	8	Panajachel	4	Abril	2023-07-04T00:00:00	2024-11-08T08:00:00	2	Temperatura media	18.8
29686	7	Sololá	710	Panajachel	8	Panajachel	4	Abril	2023-07-04T00:00:00	2024-11-08T08:00:00	4	Temperatura máxima	18.8
29687	7	Sololá	710	Panajachel	8	Panajachel	4	Abril	2023-07-04T00:00:00	2024-11-08T08:00:00	3	Temperatura mínima	15.6
29688	7	Sololá	710	Panajachel	8	Panajachel	4	Abril	2023-07-04T00:00:00	2024-11-08T08:00:00	5	Humedad	66
29689	7	Sololá	710	Panajachel	8	Panajachel	4	Abril	2023-07-04T00:00:00	2024-11-08T08:00:00	6	Velocidad del viento	9.7
29690	7	Sololá	710	Panajachel	8	Panajachel	4	Abril	2023-07-04T00:00:00	2024-11-08T08:00:00	7	Dirección del viento	9.66
29691	7	Sololá	710	Panajachel	8	Panajachel	4	Abril	2023-07-04T00:00:00	2024-11-08T08:00:00	1	Precipitación	0
29692	7	Sololá	710	Panajachel	8	Panajachel	4	Abril	2023-07-04T00:00:00	2024-11-08T08:00:00	8	Radiación solar	157
29693	7	Sololá	710	Panajachel	8	Panajachel	4	Abril	2023-07-04T00:00:00	2024-11-08T09:00:00	2	Temperatura media	21.3
29694	7	Sololá	710	Panajachel	8	Panajachel	4	Abril	2023-07-04T00:00:00	2024-11-08T09:00:00	4	Temperatura máxima	21.3
29695	7	Sololá	710	Panajachel	8	Panajachel	4	Abril	2023-07-04T00:00:00	2024-11-08T09:00:00	3	Temperatura mínima	18.8
29696	7	Sololá	710	Panajachel	8	Panajachel	4	Abril	2023-07-04T00:00:00	2024-11-08T09:00:00	5	Humedad	64
29697	7	Sololá	710	Panajachel	8	Panajachel	4	Abril	2023-07-04T00:00:00	2024-11-08T09:00:00	6	Velocidad del viento	1.6
29698	7	Sololá	710	Panajachel	8	Panajachel	4	Abril	2023-07-04T00:00:00	2024-11-08T09:00:00	7	Dirección del viento	1.61
29699	7	Sololá	710	Panajachel	8	Panajachel	4	Abril	2023-07-04T00:00:00	2024-11-08T09:00:00	1	Precipitación	0
29700	7	Sololá	710	Panajachel	8	Panajachel	4	Abril	2023-07-04T00:00:00	2024-11-08T09:00:00	8	Radiación solar	257
29701	7	Sololá	710	Panajachel	8	Panajachel	4	Abril	2023-07-04T00:00:00	2024-11-08T10:00:00	2	Temperatura media	21.7
29702	7	Sololá	710	Panajachel	8	Panajachel	4	Abril	2023-07-04T00:00:00	2024-11-08T10:00:00	4	Temperatura máxima	22.1
29703	7	Sololá	710	Panajachel	8	Panajachel	4	Abril	2023-07-04T00:00:00	2024-11-08T10:00:00	3	Temperatura mínima	21.3
29704	7	Sololá	710	Panajachel	8	Panajachel	4	Abril	2023-07-04T00:00:00	2024-11-08T10:00:00	5	Humedad	58
29705	7	Sololá	710	Panajachel	8	Panajachel	4	Abril	2023-07-04T00:00:00	2024-11-08T10:00:00	6	Velocidad del viento	4.8
29706	7	Sololá	710	Panajachel	8	Panajachel	4	Abril	2023-07-04T00:00:00	2024-11-08T10:00:00	7	Dirección del viento	4.83
29707	7	Sololá	710	Panajachel	8	Panajachel	4	Abril	2023-07-04T00:00:00	2024-11-08T10:00:00	1	Precipitación	0
29708	7	Sololá	710	Panajachel	8	Panajachel	4	Abril	2023-07-04T00:00:00	2024-11-08T10:00:00	8	Radiación solar	285
29709	7	Sololá	710	Panajachel	8	Panajachel	4	Abril	2023-07-04T00:00:00	2024-11-08T11:00:00	2	Temperatura media	23.9
29710	7	Sololá	710	Panajachel	8	Panajachel	4	Abril	2023-07-04T00:00:00	2024-11-08T11:00:00	4	Temperatura máxima	23.9
29711	7	Sololá	710	Panajachel	8	Panajachel	4	Abril	2023-07-04T00:00:00	2024-11-08T11:00:00	3	Temperatura mínima	21.7
29712	7	Sololá	710	Panajachel	8	Panajachel	4	Abril	2023-07-04T00:00:00	2024-11-08T11:00:00	5	Humedad	53
29713	7	Sololá	710	Panajachel	8	Panajachel	4	Abril	2023-07-04T00:00:00	2024-11-08T11:00:00	6	Velocidad del viento	6.4
29714	7	Sololá	710	Panajachel	8	Panajachel	4	Abril	2023-07-04T00:00:00	2024-11-08T11:00:00	7	Dirección del viento	6.44
29715	7	Sololá	710	Panajachel	8	Panajachel	4	Abril	2023-07-04T00:00:00	2024-11-08T11:00:00	1	Precipitación	0
29716	7	Sololá	710	Panajachel	8	Panajachel	4	Abril	2023-07-04T00:00:00	2024-11-08T11:00:00	8	Radiación solar	318
29717	7	Sololá	710	Panajachel	8	Panajachel	4	Abril	2023-07-04T00:00:00	2024-11-08T12:00:00	2	Temperatura media	24.6
29718	7	Sololá	710	Panajachel	8	Panajachel	4	Abril	2023-07-04T00:00:00	2024-11-08T12:00:00	4	Temperatura máxima	24.6
29719	7	Sololá	710	Panajachel	8	Panajachel	4	Abril	2023-07-04T00:00:00	2024-11-08T12:00:00	3	Temperatura mínima	22.9
29720	7	Sololá	710	Panajachel	8	Panajachel	4	Abril	2023-07-04T00:00:00	2024-11-08T12:00:00	5	Humedad	62
29721	7	Sololá	710	Panajachel	8	Panajachel	4	Abril	2023-07-04T00:00:00	2024-11-08T12:00:00	6	Velocidad del viento	6.4
29722	7	Sololá	710	Panajachel	8	Panajachel	4	Abril	2023-07-04T00:00:00	2024-11-08T12:00:00	7	Dirección del viento	6.44
29723	7	Sololá	710	Panajachel	8	Panajachel	4	Abril	2023-07-04T00:00:00	2024-11-08T12:00:00	1	Precipitación	0
29724	7	Sololá	710	Panajachel	8	Panajachel	4	Abril	2023-07-04T00:00:00	2024-11-08T12:00:00	8	Radiación solar	323
29725	7	Sololá	710	Panajachel	8	Panajachel	4	Abril	2023-07-04T00:00:00	2024-11-08T13:00:00	2	Temperatura media	24
29726	7	Sololá	710	Panajachel	8	Panajachel	4	Abril	2023-07-04T00:00:00	2024-11-08T13:00:00	4	Temperatura máxima	25.1
29727	7	Sololá	710	Panajachel	8	Panajachel	4	Abril	2023-07-04T00:00:00	2024-11-08T13:00:00	3	Temperatura mínima	22.8
29728	7	Sololá	710	Panajachel	8	Panajachel	4	Abril	2023-07-04T00:00:00	2024-11-08T13:00:00	5	Humedad	66
29729	7	Sololá	710	Panajachel	8	Panajachel	4	Abril	2023-07-04T00:00:00	2024-11-08T13:00:00	6	Velocidad del viento	8
29730	7	Sololá	710	Panajachel	8	Panajachel	4	Abril	2023-07-04T00:00:00	2024-11-08T13:00:00	7	Dirección del viento	8.05
29731	7	Sololá	710	Panajachel	8	Panajachel	4	Abril	2023-07-04T00:00:00	2024-11-08T13:00:00	1	Precipitación	0
29732	7	Sololá	710	Panajachel	8	Panajachel	4	Abril	2023-07-04T00:00:00	2024-11-08T13:00:00	8	Radiación solar	313
29733	7	Sololá	710	Panajachel	8	Panajachel	4	Abril	2023-07-04T00:00:00	2024-11-08T14:00:00	2	Temperatura media	22.9
29734	7	Sololá	710	Panajachel	8	Panajachel	4	Abril	2023-07-04T00:00:00	2024-11-08T14:00:00	4	Temperatura máxima	24.9
29735	7	Sololá	710	Panajachel	8	Panajachel	4	Abril	2023-07-04T00:00:00	2024-11-08T14:00:00	3	Temperatura mínima	22.9
29736	7	Sololá	710	Panajachel	8	Panajachel	4	Abril	2023-07-04T00:00:00	2024-11-08T14:00:00	5	Humedad	69
29737	7	Sololá	710	Panajachel	8	Panajachel	4	Abril	2023-07-04T00:00:00	2024-11-08T14:00:00	6	Velocidad del viento	6.4
29738	7	Sololá	710	Panajachel	8	Panajachel	4	Abril	2023-07-04T00:00:00	2024-11-08T14:00:00	7	Dirección del viento	6.44
29739	7	Sololá	710	Panajachel	8	Panajachel	4	Abril	2023-07-04T00:00:00	2024-11-08T14:00:00	1	Precipitación	0
29740	7	Sololá	710	Panajachel	8	Panajachel	4	Abril	2023-07-04T00:00:00	2024-11-08T14:00:00	8	Radiación solar	293
29741	7	Sololá	710	Panajachel	8	Panajachel	4	Abril	2023-07-04T00:00:00	2024-11-08T15:00:00	2	Temperatura media	23.7
29742	7	Sololá	710	Panajachel	8	Panajachel	4	Abril	2023-07-04T00:00:00	2024-11-08T15:00:00	4	Temperatura máxima	23.9
29743	7	Sololá	710	Panajachel	8	Panajachel	4	Abril	2023-07-04T00:00:00	2024-11-08T15:00:00	3	Temperatura mínima	22.1
29744	7	Sololá	710	Panajachel	8	Panajachel	4	Abril	2023-07-04T00:00:00	2024-11-08T15:00:00	5	Humedad	67
29745	7	Sololá	710	Panajachel	8	Panajachel	4	Abril	2023-07-04T00:00:00	2024-11-08T15:00:00	6	Velocidad del viento	6.4
29746	7	Sololá	710	Panajachel	8	Panajachel	4	Abril	2023-07-04T00:00:00	2024-11-08T15:00:00	7	Dirección del viento	6.44
29747	7	Sololá	710	Panajachel	8	Panajachel	4	Abril	2023-07-04T00:00:00	2024-11-08T15:00:00	1	Precipitación	0
29748	7	Sololá	710	Panajachel	8	Panajachel	4	Abril	2023-07-04T00:00:00	2024-11-08T15:00:00	8	Radiación solar	288
29749	7	Sololá	710	Panajachel	8	Panajachel	4	Abril	2023-07-04T00:00:00	2024-11-08T16:00:00	2	Temperatura media	22.7
29750	7	Sololá	710	Panajachel	8	Panajachel	4	Abril	2023-07-04T00:00:00	2024-11-08T16:00:00	4	Temperatura máxima	23.7
29751	7	Sololá	710	Panajachel	8	Panajachel	4	Abril	2023-07-04T00:00:00	2024-11-08T16:00:00	3	Temperatura mínima	21.8
29752	7	Sololá	710	Panajachel	8	Panajachel	4	Abril	2023-07-04T00:00:00	2024-11-08T16:00:00	5	Humedad	72
29753	7	Sololá	710	Panajachel	8	Panajachel	4	Abril	2023-07-04T00:00:00	2024-11-08T16:00:00	6	Velocidad del viento	6.4
29754	7	Sololá	710	Panajachel	8	Panajachel	4	Abril	2023-07-04T00:00:00	2024-11-08T16:00:00	7	Dirección del viento	6.44
29755	7	Sololá	710	Panajachel	8	Panajachel	4	Abril	2023-07-04T00:00:00	2024-11-08T16:00:00	1	Precipitación	0
29756	7	Sololá	710	Panajachel	8	Panajachel	4	Abril	2023-07-04T00:00:00	2024-11-08T16:00:00	8	Radiación solar	143
29757	7	Sololá	710	Panajachel	8	Panajachel	4	Abril	2023-07-04T00:00:00	2024-11-08T17:00:00	2	Temperatura media	21.8
29758	7	Sololá	710	Panajachel	8	Panajachel	4	Abril	2023-07-04T00:00:00	2024-11-08T17:00:00	4	Temperatura máxima	22.8
29759	7	Sololá	710	Panajachel	8	Panajachel	4	Abril	2023-07-04T00:00:00	2024-11-08T17:00:00	3	Temperatura mínima	21.8
29760	7	Sololá	710	Panajachel	8	Panajachel	4	Abril	2023-07-04T00:00:00	2024-11-08T17:00:00	5	Humedad	78
29761	7	Sololá	710	Panajachel	8	Panajachel	4	Abril	2023-07-04T00:00:00	2024-11-08T17:00:00	6	Velocidad del viento	4.8
29762	7	Sololá	710	Panajachel	8	Panajachel	4	Abril	2023-07-04T00:00:00	2024-11-08T17:00:00	7	Dirección del viento	4.83
29763	7	Sololá	710	Panajachel	8	Panajachel	4	Abril	2023-07-04T00:00:00	2024-11-08T17:00:00	1	Precipitación	0
29764	7	Sololá	710	Panajachel	8	Panajachel	4	Abril	2023-07-04T00:00:00	2024-11-08T17:00:00	8	Radiación solar	92
29765	7	Sololá	710	Panajachel	8	Panajachel	4	Abril	2023-07-04T00:00:00	2024-11-08T18:00:00	2	Temperatura media	21
29766	7	Sololá	710	Panajachel	8	Panajachel	4	Abril	2023-07-04T00:00:00	2024-11-08T18:00:00	4	Temperatura máxima	21.9
29767	7	Sololá	710	Panajachel	8	Panajachel	4	Abril	2023-07-04T00:00:00	2024-11-08T18:00:00	3	Temperatura mínima	20.9
29768	7	Sololá	710	Panajachel	8	Panajachel	4	Abril	2023-07-04T00:00:00	2024-11-08T18:00:00	5	Humedad	79
29769	7	Sololá	710	Panajachel	8	Panajachel	4	Abril	2023-07-04T00:00:00	2024-11-08T18:00:00	6	Velocidad del viento	3.2
29770	7	Sololá	710	Panajachel	8	Panajachel	4	Abril	2023-07-04T00:00:00	2024-11-08T18:00:00	7	Dirección del viento	3.22
29771	7	Sololá	710	Panajachel	8	Panajachel	4	Abril	2023-07-04T00:00:00	2024-11-08T18:00:00	1	Precipitación	0
29772	7	Sololá	710	Panajachel	8	Panajachel	4	Abril	2023-07-04T00:00:00	2024-11-08T18:00:00	8	Radiación solar	42
29773	7	Sololá	710	Panajachel	8	Panajachel	4	Abril	2023-07-04T00:00:00	2024-11-08T19:00:00	2	Temperatura media	20.4
29774	7	Sololá	710	Panajachel	8	Panajachel	4	Abril	2023-07-04T00:00:00	2024-11-08T19:00:00	4	Temperatura máxima	21.1
29775	7	Sololá	710	Panajachel	8	Panajachel	4	Abril	2023-07-04T00:00:00	2024-11-08T19:00:00	3	Temperatura mínima	20.4
29776	7	Sololá	710	Panajachel	8	Panajachel	4	Abril	2023-07-04T00:00:00	2024-11-08T19:00:00	5	Humedad	83
29777	7	Sololá	710	Panajachel	8	Panajachel	4	Abril	2023-07-04T00:00:00	2024-11-08T19:00:00	6	Velocidad del viento	1.6
29778	7	Sololá	710	Panajachel	8	Panajachel	4	Abril	2023-07-04T00:00:00	2024-11-08T19:00:00	7	Dirección del viento	1.61
29779	7	Sololá	710	Panajachel	8	Panajachel	4	Abril	2023-07-04T00:00:00	2024-11-08T19:00:00	1	Precipitación	0
29780	7	Sololá	710	Panajachel	8	Panajachel	4	Abril	2023-07-04T00:00:00	2024-11-08T19:00:00	8	Radiación solar	0
29781	7	Sololá	710	Panajachel	8	Panajachel	4	Abril	2023-07-04T00:00:00	2024-11-08T20:00:00	2	Temperatura media	19.7
29782	7	Sololá	710	Panajachel	8	Panajachel	4	Abril	2023-07-04T00:00:00	2024-11-08T20:00:00	4	Temperatura máxima	20.4
29783	7	Sololá	710	Panajachel	8	Panajachel	4	Abril	2023-07-04T00:00:00	2024-11-08T20:00:00	3	Temperatura mínima	19.5
29784	7	Sololá	710	Panajachel	8	Panajachel	4	Abril	2023-07-04T00:00:00	2024-11-08T20:00:00	5	Humedad	75
29785	7	Sololá	710	Panajachel	8	Panajachel	4	Abril	2023-07-04T00:00:00	2024-11-08T20:00:00	6	Velocidad del viento	4.8
29786	7	Sololá	710	Panajachel	8	Panajachel	4	Abril	2023-07-04T00:00:00	2024-11-08T20:00:00	7	Dirección del viento	4.83
29787	7	Sololá	710	Panajachel	8	Panajachel	4	Abril	2023-07-04T00:00:00	2024-11-08T20:00:00	1	Precipitación	0
29788	7	Sololá	710	Panajachel	8	Panajachel	4	Abril	2023-07-04T00:00:00	2024-11-08T20:00:00	8	Radiación solar	0
29789	7	Sololá	710	Panajachel	8	Panajachel	4	Abril	2023-07-04T00:00:00	2024-11-08T21:00:00	2	Temperatura media	19.1
29790	7	Sololá	710	Panajachel	8	Panajachel	4	Abril	2023-07-04T00:00:00	2024-11-08T21:00:00	4	Temperatura máxima	19.7
29791	7	Sololá	710	Panajachel	8	Panajachel	4	Abril	2023-07-04T00:00:00	2024-11-08T21:00:00	3	Temperatura mínima	19.1
29792	7	Sololá	710	Panajachel	8	Panajachel	4	Abril	2023-07-04T00:00:00	2024-11-08T21:00:00	5	Humedad	72
29793	7	Sololá	710	Panajachel	8	Panajachel	4	Abril	2023-07-04T00:00:00	2024-11-08T21:00:00	6	Velocidad del viento	3.2
29794	7	Sololá	710	Panajachel	8	Panajachel	4	Abril	2023-07-04T00:00:00	2024-11-08T21:00:00	7	Dirección del viento	3.22
29795	7	Sololá	710	Panajachel	8	Panajachel	4	Abril	2023-07-04T00:00:00	2024-11-08T21:00:00	1	Precipitación	0
29796	7	Sololá	710	Panajachel	8	Panajachel	4	Abril	2023-07-04T00:00:00	2024-11-08T21:00:00	8	Radiación solar	0
29797	7	Sololá	710	Panajachel	8	Panajachel	4	Abril	2023-07-04T00:00:00	2024-11-08T22:00:00	2	Temperatura media	18.7
29798	7	Sololá	710	Panajachel	8	Panajachel	4	Abril	2023-07-04T00:00:00	2024-11-08T22:00:00	4	Temperatura máxima	19.1
29799	7	Sololá	710	Panajachel	8	Panajachel	4	Abril	2023-07-04T00:00:00	2024-11-08T22:00:00	3	Temperatura mínima	18.6
29800	7	Sololá	710	Panajachel	8	Panajachel	4	Abril	2023-07-04T00:00:00	2024-11-08T22:00:00	5	Humedad	72
29801	7	Sololá	710	Panajachel	8	Panajachel	4	Abril	2023-07-04T00:00:00	2024-11-08T22:00:00	6	Velocidad del viento	3.2
29802	7	Sololá	710	Panajachel	8	Panajachel	4	Abril	2023-07-04T00:00:00	2024-11-08T22:00:00	7	Dirección del viento	3.22
29803	7	Sololá	710	Panajachel	8	Panajachel	4	Abril	2023-07-04T00:00:00	2024-11-08T22:00:00	1	Precipitación	0
29804	7	Sololá	710	Panajachel	8	Panajachel	4	Abril	2023-07-04T00:00:00	2024-11-08T22:00:00	8	Radiación solar	0
29805	7	Sololá	710	Panajachel	8	Panajachel	4	Abril	2023-07-04T00:00:00	2024-11-08T23:00:00	2	Temperatura media	18.8
29806	7	Sololá	710	Panajachel	8	Panajachel	4	Abril	2023-07-04T00:00:00	2024-11-08T23:00:00	4	Temperatura máxima	18.9
29807	7	Sololá	710	Panajachel	8	Panajachel	4	Abril	2023-07-04T00:00:00	2024-11-08T23:00:00	3	Temperatura mínima	18.4
29808	7	Sololá	710	Panajachel	8	Panajachel	4	Abril	2023-07-04T00:00:00	2024-11-08T23:00:00	5	Humedad	71
29809	7	Sololá	710	Panajachel	8	Panajachel	4	Abril	2023-07-04T00:00:00	2024-11-08T23:00:00	6	Velocidad del viento	4.8
29810	7	Sololá	710	Panajachel	8	Panajachel	4	Abril	2023-07-04T00:00:00	2024-11-08T23:00:00	7	Dirección del viento	4.83
29811	7	Sololá	710	Panajachel	8	Panajachel	4	Abril	2023-07-04T00:00:00	2024-11-08T23:00:00	1	Precipitación	0
29812	7	Sololá	710	Panajachel	8	Panajachel	4	Abril	2023-07-04T00:00:00	2024-11-08T23:00:00	8	Radiación solar	0
29813	7	Sololá	710	Panajachel	8	Panajachel	4	Abril	2023-08-04T00:00:00	2024-11-08T00:00:00	2	Temperatura media	18.5
29814	7	Sololá	710	Panajachel	8	Panajachel	4	Abril	2023-08-04T00:00:00	2024-11-08T00:00:00	4	Temperatura máxima	18.8
29815	7	Sololá	710	Panajachel	8	Panajachel	4	Abril	2023-08-04T00:00:00	2024-11-08T00:00:00	3	Temperatura mínima	18.2
29816	7	Sololá	710	Panajachel	8	Panajachel	4	Abril	2023-08-04T00:00:00	2024-11-08T00:00:00	5	Humedad	72
29817	7	Sololá	710	Panajachel	8	Panajachel	4	Abril	2023-08-04T00:00:00	2024-11-08T00:00:00	6	Velocidad del viento	4.8
29818	7	Sololá	710	Panajachel	8	Panajachel	4	Abril	2023-08-04T00:00:00	2024-11-08T00:00:00	7	Dirección del viento	4.83
29819	7	Sololá	710	Panajachel	8	Panajachel	4	Abril	2023-08-04T00:00:00	2024-11-08T00:00:00	1	Precipitación	0
29820	7	Sololá	710	Panajachel	8	Panajachel	4	Abril	2023-08-04T00:00:00	2024-11-08T00:00:00	8	Radiación solar	0
29821	7	Sololá	710	Panajachel	8	Panajachel	4	Abril	2023-08-04T00:00:00	2024-11-08T01:00:00	2	Temperatura media	18.3
29822	7	Sololá	710	Panajachel	8	Panajachel	4	Abril	2023-08-04T00:00:00	2024-11-08T01:00:00	4	Temperatura máxima	18.7
29823	7	Sololá	710	Panajachel	8	Panajachel	4	Abril	2023-08-04T00:00:00	2024-11-08T01:00:00	3	Temperatura mínima	18.3
29824	7	Sololá	710	Panajachel	8	Panajachel	4	Abril	2023-08-04T00:00:00	2024-11-08T01:00:00	5	Humedad	72
29825	7	Sololá	710	Panajachel	8	Panajachel	4	Abril	2023-08-04T00:00:00	2024-11-08T01:00:00	6	Velocidad del viento	3.2
29826	7	Sololá	710	Panajachel	8	Panajachel	4	Abril	2023-08-04T00:00:00	2024-11-08T01:00:00	7	Dirección del viento	3.22
29827	7	Sololá	710	Panajachel	8	Panajachel	4	Abril	2023-08-04T00:00:00	2024-11-08T01:00:00	1	Precipitación	0
29828	7	Sololá	710	Panajachel	8	Panajachel	4	Abril	2023-08-04T00:00:00	2024-11-08T01:00:00	8	Radiación solar	0
29829	7	Sololá	710	Panajachel	8	Panajachel	4	Abril	2023-08-04T00:00:00	2024-11-08T02:00:00	2	Temperatura media	18.7
29830	7	Sololá	710	Panajachel	8	Panajachel	4	Abril	2023-08-04T00:00:00	2024-11-08T02:00:00	4	Temperatura máxima	18.7
29831	7	Sololá	710	Panajachel	8	Panajachel	4	Abril	2023-08-04T00:00:00	2024-11-08T02:00:00	3	Temperatura mínima	18.3
29832	7	Sololá	710	Panajachel	8	Panajachel	4	Abril	2023-08-04T00:00:00	2024-11-08T02:00:00	5	Humedad	72
29833	7	Sololá	710	Panajachel	8	Panajachel	4	Abril	2023-08-04T00:00:00	2024-11-08T02:00:00	6	Velocidad del viento	0
29834	7	Sololá	710	Panajachel	8	Panajachel	4	Abril	2023-08-04T00:00:00	2024-11-08T02:00:00	7	Dirección del viento	0
29835	7	Sololá	710	Panajachel	8	Panajachel	4	Abril	2023-08-04T00:00:00	2024-11-08T02:00:00	1	Precipitación	0
29836	7	Sololá	710	Panajachel	8	Panajachel	4	Abril	2023-08-04T00:00:00	2024-11-08T02:00:00	8	Radiación solar	0
29837	7	Sololá	710	Panajachel	8	Panajachel	4	Abril	2023-08-04T00:00:00	2024-11-08T03:00:00	2	Temperatura media	18.5
29838	7	Sololá	710	Panajachel	8	Panajachel	4	Abril	2023-08-04T00:00:00	2024-11-08T03:00:00	4	Temperatura máxima	18.9
29839	7	Sololá	710	Panajachel	8	Panajachel	4	Abril	2023-08-04T00:00:00	2024-11-08T03:00:00	3	Temperatura mínima	18.5
29840	7	Sololá	710	Panajachel	8	Panajachel	4	Abril	2023-08-04T00:00:00	2024-11-08T03:00:00	5	Humedad	69
29841	7	Sololá	710	Panajachel	8	Panajachel	4	Abril	2023-08-04T00:00:00	2024-11-08T03:00:00	6	Velocidad del viento	1.6
29842	7	Sololá	710	Panajachel	8	Panajachel	4	Abril	2023-08-04T00:00:00	2024-11-08T03:00:00	7	Dirección del viento	1.61
29843	7	Sololá	710	Panajachel	8	Panajachel	4	Abril	2023-08-04T00:00:00	2024-11-08T03:00:00	1	Precipitación	0
29844	7	Sololá	710	Panajachel	8	Panajachel	4	Abril	2023-08-04T00:00:00	2024-11-08T03:00:00	8	Radiación solar	0
29845	7	Sololá	710	Panajachel	8	Panajachel	4	Abril	2023-08-04T00:00:00	2024-11-08T04:00:00	2	Temperatura media	17.8
29846	7	Sololá	710	Panajachel	8	Panajachel	4	Abril	2023-08-04T00:00:00	2024-11-08T04:00:00	4	Temperatura máxima	18.6
29847	7	Sololá	710	Panajachel	8	Panajachel	4	Abril	2023-08-04T00:00:00	2024-11-08T04:00:00	3	Temperatura mínima	17.8
29848	7	Sololá	710	Panajachel	8	Panajachel	4	Abril	2023-08-04T00:00:00	2024-11-08T04:00:00	5	Humedad	70
29849	7	Sololá	710	Panajachel	8	Panajachel	4	Abril	2023-08-04T00:00:00	2024-11-08T04:00:00	6	Velocidad del viento	3.2
29850	7	Sololá	710	Panajachel	8	Panajachel	4	Abril	2023-08-04T00:00:00	2024-11-08T04:00:00	7	Dirección del viento	3.22
29851	7	Sololá	710	Panajachel	8	Panajachel	4	Abril	2023-08-04T00:00:00	2024-11-08T04:00:00	1	Precipitación	0
29852	7	Sololá	710	Panajachel	8	Panajachel	4	Abril	2023-08-04T00:00:00	2024-11-08T04:00:00	8	Radiación solar	0
29853	7	Sololá	710	Panajachel	8	Panajachel	4	Abril	2023-08-04T00:00:00	2024-11-08T05:00:00	2	Temperatura media	16.9
29854	7	Sololá	710	Panajachel	8	Panajachel	4	Abril	2023-08-04T00:00:00	2024-11-08T05:00:00	4	Temperatura máxima	17.7
29855	7	Sololá	710	Panajachel	8	Panajachel	4	Abril	2023-08-04T00:00:00	2024-11-08T05:00:00	3	Temperatura mínima	16.8
29856	7	Sololá	710	Panajachel	8	Panajachel	4	Abril	2023-08-04T00:00:00	2024-11-08T05:00:00	5	Humedad	72
29857	7	Sololá	710	Panajachel	8	Panajachel	4	Abril	2023-08-04T00:00:00	2024-11-08T05:00:00	6	Velocidad del viento	4.8
29858	7	Sololá	710	Panajachel	8	Panajachel	4	Abril	2023-08-04T00:00:00	2024-11-08T05:00:00	7	Dirección del viento	4.83
29859	7	Sololá	710	Panajachel	8	Panajachel	4	Abril	2023-08-04T00:00:00	2024-11-08T05:00:00	1	Precipitación	0
29860	7	Sololá	710	Panajachel	8	Panajachel	4	Abril	2023-08-04T00:00:00	2024-11-08T05:00:00	8	Radiación solar	0
29861	7	Sololá	710	Panajachel	8	Panajachel	4	Abril	2023-08-04T00:00:00	2024-11-08T06:00:00	2	Temperatura media	15.6
29862	7	Sololá	710	Panajachel	8	Panajachel	4	Abril	2023-08-04T00:00:00	2024-11-08T06:00:00	4	Temperatura máxima	16.8
29863	7	Sololá	710	Panajachel	8	Panajachel	4	Abril	2023-08-04T00:00:00	2024-11-08T06:00:00	3	Temperatura mínima	15.3
29864	7	Sololá	710	Panajachel	8	Panajachel	4	Abril	2023-08-04T00:00:00	2024-11-08T06:00:00	5	Humedad	75
29865	7	Sololá	710	Panajachel	8	Panajachel	4	Abril	2023-08-04T00:00:00	2024-11-08T06:00:00	6	Velocidad del viento	9.7
29866	7	Sololá	710	Panajachel	8	Panajachel	4	Abril	2023-08-04T00:00:00	2024-11-08T06:00:00	7	Dirección del viento	9.66
29867	7	Sololá	710	Panajachel	8	Panajachel	4	Abril	2023-08-04T00:00:00	2024-11-08T06:00:00	1	Precipitación	0
29868	7	Sololá	710	Panajachel	8	Panajachel	4	Abril	2023-08-04T00:00:00	2024-11-08T06:00:00	8	Radiación solar	0
29869	7	Sololá	710	Panajachel	8	Panajachel	4	Abril	2023-08-04T00:00:00	2024-11-08T07:00:00	2	Temperatura media	15.2
29870	7	Sololá	710	Panajachel	8	Panajachel	4	Abril	2023-08-04T00:00:00	2024-11-08T07:00:00	4	Temperatura máxima	15.8
29871	7	Sololá	710	Panajachel	8	Panajachel	4	Abril	2023-08-04T00:00:00	2024-11-08T07:00:00	3	Temperatura mínima	15.1
29872	7	Sololá	710	Panajachel	8	Panajachel	4	Abril	2023-08-04T00:00:00	2024-11-08T07:00:00	5	Humedad	75
29873	7	Sololá	710	Panajachel	8	Panajachel	4	Abril	2023-08-04T00:00:00	2024-11-08T07:00:00	6	Velocidad del viento	12.9
29874	7	Sololá	710	Panajachel	8	Panajachel	4	Abril	2023-08-04T00:00:00	2024-11-08T07:00:00	7	Dirección del viento	12.87
29875	7	Sololá	710	Panajachel	8	Panajachel	4	Abril	2023-08-04T00:00:00	2024-11-08T07:00:00	1	Precipitación	0
29876	7	Sololá	710	Panajachel	8	Panajachel	4	Abril	2023-08-04T00:00:00	2024-11-08T07:00:00	8	Radiación solar	16
29877	7	Sololá	710	Panajachel	8	Panajachel	4	Abril	2023-08-04T00:00:00	2024-11-08T08:00:00	2	Temperatura media	19.2
29878	7	Sololá	710	Panajachel	8	Panajachel	4	Abril	2023-08-04T00:00:00	2024-11-08T08:00:00	4	Temperatura máxima	19.2
29879	7	Sololá	710	Panajachel	8	Panajachel	4	Abril	2023-08-04T00:00:00	2024-11-08T08:00:00	3	Temperatura mínima	15.2
29880	7	Sololá	710	Panajachel	8	Panajachel	4	Abril	2023-08-04T00:00:00	2024-11-08T08:00:00	5	Humedad	65
29881	7	Sololá	710	Panajachel	8	Panajachel	4	Abril	2023-08-04T00:00:00	2024-11-08T08:00:00	6	Velocidad del viento	8
29882	7	Sololá	710	Panajachel	8	Panajachel	4	Abril	2023-08-04T00:00:00	2024-11-08T08:00:00	7	Dirección del viento	8.05
29883	7	Sololá	710	Panajachel	8	Panajachel	4	Abril	2023-08-04T00:00:00	2024-11-08T08:00:00	1	Precipitación	0
29884	7	Sololá	710	Panajachel	8	Panajachel	4	Abril	2023-08-04T00:00:00	2024-11-08T08:00:00	8	Radiación solar	90
29885	7	Sololá	710	Panajachel	8	Panajachel	4	Abril	2023-08-04T00:00:00	2024-11-08T09:00:00	2	Temperatura media	20.7
29886	7	Sololá	710	Panajachel	8	Panajachel	4	Abril	2023-08-04T00:00:00	2024-11-08T09:00:00	4	Temperatura máxima	20.7
29887	7	Sololá	710	Panajachel	8	Panajachel	4	Abril	2023-08-04T00:00:00	2024-11-08T09:00:00	3	Temperatura mínima	19.3
29888	7	Sololá	710	Panajachel	8	Panajachel	4	Abril	2023-08-04T00:00:00	2024-11-08T09:00:00	5	Humedad	67
29889	7	Sololá	710	Panajachel	8	Panajachel	4	Abril	2023-08-04T00:00:00	2024-11-08T09:00:00	6	Velocidad del viento	4.8
29890	7	Sololá	710	Panajachel	8	Panajachel	4	Abril	2023-08-04T00:00:00	2024-11-08T09:00:00	7	Dirección del viento	4.83
29891	7	Sololá	710	Panajachel	8	Panajachel	4	Abril	2023-08-04T00:00:00	2024-11-08T09:00:00	1	Precipitación	0
29892	7	Sololá	710	Panajachel	8	Panajachel	4	Abril	2023-08-04T00:00:00	2024-11-08T09:00:00	8	Radiación solar	167
29893	7	Sololá	710	Panajachel	8	Panajachel	4	Abril	2023-08-04T00:00:00	2024-11-08T10:00:00	2	Temperatura media	21.7
29894	7	Sololá	710	Panajachel	8	Panajachel	4	Abril	2023-08-04T00:00:00	2024-11-08T10:00:00	4	Temperatura máxima	21.8
29895	7	Sololá	710	Panajachel	8	Panajachel	4	Abril	2023-08-04T00:00:00	2024-11-08T10:00:00	3	Temperatura mínima	20.6
29896	7	Sololá	710	Panajachel	8	Panajachel	4	Abril	2023-08-04T00:00:00	2024-11-08T10:00:00	5	Humedad	59
29897	7	Sololá	710	Panajachel	8	Panajachel	4	Abril	2023-08-04T00:00:00	2024-11-08T10:00:00	6	Velocidad del viento	6.4
29898	7	Sololá	710	Panajachel	8	Panajachel	4	Abril	2023-08-04T00:00:00	2024-11-08T10:00:00	7	Dirección del viento	6.44
29899	7	Sololá	710	Panajachel	8	Panajachel	4	Abril	2023-08-04T00:00:00	2024-11-08T10:00:00	1	Precipitación	0
29900	7	Sololá	710	Panajachel	8	Panajachel	4	Abril	2023-08-04T00:00:00	2024-11-08T10:00:00	8	Radiación solar	239
29901	7	Sololá	710	Panajachel	8	Panajachel	4	Abril	2023-08-04T00:00:00	2024-11-08T11:00:00	2	Temperatura media	23.3
29902	7	Sololá	710	Panajachel	8	Panajachel	4	Abril	2023-08-04T00:00:00	2024-11-08T11:00:00	4	Temperatura máxima	23.3
29903	7	Sololá	710	Panajachel	8	Panajachel	4	Abril	2023-08-04T00:00:00	2024-11-08T11:00:00	3	Temperatura mínima	21.7
29904	7	Sololá	710	Panajachel	8	Panajachel	4	Abril	2023-08-04T00:00:00	2024-11-08T11:00:00	5	Humedad	57
29905	7	Sololá	710	Panajachel	8	Panajachel	4	Abril	2023-08-04T00:00:00	2024-11-08T11:00:00	6	Velocidad del viento	6.4
29906	7	Sololá	710	Panajachel	8	Panajachel	4	Abril	2023-08-04T00:00:00	2024-11-08T11:00:00	7	Dirección del viento	6.44
29907	7	Sololá	710	Panajachel	8	Panajachel	4	Abril	2023-08-04T00:00:00	2024-11-08T11:00:00	1	Precipitación	0
29908	7	Sololá	710	Panajachel	8	Panajachel	4	Abril	2023-08-04T00:00:00	2024-11-08T11:00:00	8	Radiación solar	260
29909	7	Sololá	710	Panajachel	8	Panajachel	4	Abril	2023-08-04T00:00:00	2024-11-08T12:00:00	2	Temperatura media	23.6
29910	7	Sololá	710	Panajachel	8	Panajachel	4	Abril	2023-08-04T00:00:00	2024-11-08T12:00:00	4	Temperatura máxima	23.8
29911	7	Sololá	710	Panajachel	8	Panajachel	4	Abril	2023-08-04T00:00:00	2024-11-08T12:00:00	3	Temperatura mínima	22.2
29912	7	Sololá	710	Panajachel	8	Panajachel	4	Abril	2023-08-04T00:00:00	2024-11-08T12:00:00	5	Humedad	63
29913	7	Sololá	710	Panajachel	8	Panajachel	4	Abril	2023-08-04T00:00:00	2024-11-08T12:00:00	6	Velocidad del viento	8
29914	7	Sololá	710	Panajachel	8	Panajachel	4	Abril	2023-08-04T00:00:00	2024-11-08T12:00:00	7	Dirección del viento	8.05
29915	7	Sololá	710	Panajachel	8	Panajachel	4	Abril	2023-08-04T00:00:00	2024-11-08T12:00:00	1	Precipitación	0
29916	7	Sololá	710	Panajachel	8	Panajachel	4	Abril	2023-08-04T00:00:00	2024-11-08T12:00:00	8	Radiación solar	284
29917	7	Sololá	710	Panajachel	8	Panajachel	4	Abril	2023-08-04T00:00:00	2024-11-08T13:00:00	2	Temperatura media	24.2
29918	7	Sololá	710	Panajachel	8	Panajachel	4	Abril	2023-08-04T00:00:00	2024-11-08T13:00:00	4	Temperatura máxima	24.3
29919	7	Sololá	710	Panajachel	8	Panajachel	4	Abril	2023-08-04T00:00:00	2024-11-08T13:00:00	3	Temperatura mínima	23.3
29920	7	Sololá	710	Panajachel	8	Panajachel	4	Abril	2023-08-04T00:00:00	2024-11-08T13:00:00	5	Humedad	65
29921	7	Sololá	710	Panajachel	8	Panajachel	4	Abril	2023-08-04T00:00:00	2024-11-08T13:00:00	6	Velocidad del viento	6.4
29922	7	Sololá	710	Panajachel	8	Panajachel	4	Abril	2023-08-04T00:00:00	2024-11-08T13:00:00	7	Dirección del viento	6.44
29923	7	Sololá	710	Panajachel	8	Panajachel	4	Abril	2023-08-04T00:00:00	2024-11-08T13:00:00	1	Precipitación	0
29924	7	Sololá	710	Panajachel	8	Panajachel	4	Abril	2023-08-04T00:00:00	2024-11-08T13:00:00	8	Radiación solar	280
29925	7	Sololá	710	Panajachel	8	Panajachel	4	Abril	2023-08-04T00:00:00	2024-11-08T14:00:00	2	Temperatura media	24.3
29926	7	Sololá	710	Panajachel	8	Panajachel	4	Abril	2023-08-04T00:00:00	2024-11-08T14:00:00	4	Temperatura máxima	24.8
29927	7	Sololá	710	Panajachel	8	Panajachel	4	Abril	2023-08-04T00:00:00	2024-11-08T14:00:00	3	Temperatura mínima	23.7
29928	7	Sololá	710	Panajachel	8	Panajachel	4	Abril	2023-08-04T00:00:00	2024-11-08T14:00:00	5	Humedad	66
29929	7	Sololá	710	Panajachel	8	Panajachel	4	Abril	2023-08-04T00:00:00	2024-11-08T14:00:00	6	Velocidad del viento	6.4
29930	7	Sololá	710	Panajachel	8	Panajachel	4	Abril	2023-08-04T00:00:00	2024-11-08T14:00:00	7	Dirección del viento	6.44
29931	7	Sololá	710	Panajachel	8	Panajachel	4	Abril	2023-08-04T00:00:00	2024-11-08T14:00:00	1	Precipitación	0
29932	7	Sololá	710	Panajachel	8	Panajachel	4	Abril	2023-08-04T00:00:00	2024-11-08T14:00:00	8	Radiación solar	247
29933	7	Sololá	710	Panajachel	8	Panajachel	4	Abril	2023-08-04T00:00:00	2024-11-08T15:00:00	2	Temperatura media	24.3
29934	7	Sololá	710	Panajachel	8	Panajachel	4	Abril	2023-08-04T00:00:00	2024-11-08T15:00:00	4	Temperatura máxima	24.3
29935	7	Sololá	710	Panajachel	8	Panajachel	4	Abril	2023-08-04T00:00:00	2024-11-08T15:00:00	3	Temperatura mínima	23.6
29936	7	Sololá	710	Panajachel	8	Panajachel	4	Abril	2023-08-04T00:00:00	2024-11-08T15:00:00	5	Humedad	67
29937	7	Sololá	710	Panajachel	8	Panajachel	4	Abril	2023-08-04T00:00:00	2024-11-08T15:00:00	6	Velocidad del viento	6.4
29938	7	Sololá	710	Panajachel	8	Panajachel	4	Abril	2023-08-04T00:00:00	2024-11-08T15:00:00	7	Dirección del viento	6.44
29939	7	Sololá	710	Panajachel	8	Panajachel	4	Abril	2023-08-04T00:00:00	2024-11-08T15:00:00	1	Precipitación	0
29940	7	Sololá	710	Panajachel	8	Panajachel	4	Abril	2023-08-04T00:00:00	2024-11-08T15:00:00	8	Radiación solar	232
29941	7	Sololá	710	Panajachel	8	Panajachel	4	Abril	2023-08-04T00:00:00	2024-11-08T16:00:00	2	Temperatura media	22.7
29942	7	Sololá	710	Panajachel	8	Panajachel	4	Abril	2023-08-04T00:00:00	2024-11-08T16:00:00	4	Temperatura máxima	24.4
29943	7	Sololá	710	Panajachel	8	Panajachel	4	Abril	2023-08-04T00:00:00	2024-11-08T16:00:00	3	Temperatura mínima	22.7
29944	7	Sololá	710	Panajachel	8	Panajachel	4	Abril	2023-08-04T00:00:00	2024-11-08T16:00:00	5	Humedad	73
29945	7	Sololá	710	Panajachel	8	Panajachel	4	Abril	2023-08-04T00:00:00	2024-11-08T16:00:00	6	Velocidad del viento	4.8
29946	7	Sololá	710	Panajachel	8	Panajachel	4	Abril	2023-08-04T00:00:00	2024-11-08T16:00:00	7	Dirección del viento	4.83
29947	7	Sololá	710	Panajachel	8	Panajachel	4	Abril	2023-08-04T00:00:00	2024-11-08T16:00:00	1	Precipitación	0
29948	7	Sololá	710	Panajachel	8	Panajachel	4	Abril	2023-08-04T00:00:00	2024-11-08T16:00:00	8	Radiación solar	127
29949	7	Sololá	710	Panajachel	8	Panajachel	4	Abril	2023-08-04T00:00:00	2024-11-08T17:00:00	2	Temperatura media	22.6
29950	7	Sololá	710	Panajachel	8	Panajachel	4	Abril	2023-08-04T00:00:00	2024-11-08T17:00:00	4	Temperatura máxima	23.1
29951	7	Sololá	710	Panajachel	8	Panajachel	4	Abril	2023-08-04T00:00:00	2024-11-08T17:00:00	3	Temperatura mínima	22.5
29952	7	Sololá	710	Panajachel	8	Panajachel	4	Abril	2023-08-04T00:00:00	2024-11-08T17:00:00	5	Humedad	73
29953	7	Sololá	710	Panajachel	8	Panajachel	4	Abril	2023-08-04T00:00:00	2024-11-08T17:00:00	6	Velocidad del viento	4.8
29954	7	Sololá	710	Panajachel	8	Panajachel	4	Abril	2023-08-04T00:00:00	2024-11-08T17:00:00	7	Dirección del viento	4.83
29955	7	Sololá	710	Panajachel	8	Panajachel	4	Abril	2023-08-04T00:00:00	2024-11-08T17:00:00	1	Precipitación	0
29956	7	Sololá	710	Panajachel	8	Panajachel	4	Abril	2023-08-04T00:00:00	2024-11-08T17:00:00	8	Radiación solar	128
29957	7	Sololá	710	Panajachel	8	Panajachel	4	Abril	2023-08-04T00:00:00	2024-11-08T18:00:00	2	Temperatura media	21.4
29958	7	Sololá	710	Panajachel	8	Panajachel	4	Abril	2023-08-04T00:00:00	2024-11-08T18:00:00	4	Temperatura máxima	22.6
29959	7	Sololá	710	Panajachel	8	Panajachel	4	Abril	2023-08-04T00:00:00	2024-11-08T18:00:00	3	Temperatura mínima	21.4
29960	7	Sololá	710	Panajachel	8	Panajachel	4	Abril	2023-08-04T00:00:00	2024-11-08T18:00:00	5	Humedad	78
29961	7	Sololá	710	Panajachel	8	Panajachel	4	Abril	2023-08-04T00:00:00	2024-11-08T18:00:00	6	Velocidad del viento	3.2
29962	7	Sololá	710	Panajachel	8	Panajachel	4	Abril	2023-08-04T00:00:00	2024-11-08T18:00:00	7	Dirección del viento	3.22
29963	7	Sololá	710	Panajachel	8	Panajachel	4	Abril	2023-08-04T00:00:00	2024-11-08T18:00:00	1	Precipitación	0
29964	7	Sololá	710	Panajachel	8	Panajachel	4	Abril	2023-08-04T00:00:00	2024-11-08T18:00:00	8	Radiación solar	16
29965	7	Sololá	710	Panajachel	8	Panajachel	4	Abril	2023-08-04T00:00:00	2024-11-08T19:00:00	2	Temperatura media	20.4
29966	7	Sololá	710	Panajachel	8	Panajachel	4	Abril	2023-08-04T00:00:00	2024-11-08T19:00:00	4	Temperatura máxima	21.4
29967	7	Sololá	710	Panajachel	8	Panajachel	4	Abril	2023-08-04T00:00:00	2024-11-08T19:00:00	3	Temperatura mínima	20.2
29968	7	Sololá	710	Panajachel	8	Panajachel	4	Abril	2023-08-04T00:00:00	2024-11-08T19:00:00	5	Humedad	60
29969	7	Sololá	710	Panajachel	8	Panajachel	4	Abril	2023-08-04T00:00:00	2024-11-08T19:00:00	6	Velocidad del viento	3.2
29970	7	Sololá	710	Panajachel	8	Panajachel	4	Abril	2023-08-04T00:00:00	2024-11-08T19:00:00	7	Dirección del viento	3.22
29971	7	Sololá	710	Panajachel	8	Panajachel	4	Abril	2023-08-04T00:00:00	2024-11-08T19:00:00	1	Precipitación	0
29972	7	Sololá	710	Panajachel	8	Panajachel	4	Abril	2023-08-04T00:00:00	2024-11-08T19:00:00	8	Radiación solar	0
29973	7	Sololá	710	Panajachel	8	Panajachel	4	Abril	2023-08-04T00:00:00	2024-11-08T20:00:00	2	Temperatura media	19.7
29974	7	Sololá	710	Panajachel	8	Panajachel	4	Abril	2023-08-04T00:00:00	2024-11-08T20:00:00	4	Temperatura máxima	20.7
29975	7	Sololá	710	Panajachel	8	Panajachel	4	Abril	2023-08-04T00:00:00	2024-11-08T20:00:00	3	Temperatura mínima	19.7
29976	7	Sololá	710	Panajachel	8	Panajachel	4	Abril	2023-08-04T00:00:00	2024-11-08T20:00:00	5	Humedad	55
29977	7	Sololá	710	Panajachel	8	Panajachel	4	Abril	2023-08-04T00:00:00	2024-11-08T20:00:00	6	Velocidad del viento	9.7
29978	7	Sololá	710	Panajachel	8	Panajachel	4	Abril	2023-08-04T00:00:00	2024-11-08T20:00:00	7	Dirección del viento	9.66
29979	7	Sololá	710	Panajachel	8	Panajachel	4	Abril	2023-08-04T00:00:00	2024-11-08T20:00:00	1	Precipitación	0
29980	7	Sololá	710	Panajachel	8	Panajachel	4	Abril	2023-08-04T00:00:00	2024-11-08T20:00:00	8	Radiación solar	0
29981	7	Sololá	710	Panajachel	8	Panajachel	4	Abril	2023-08-04T00:00:00	2024-11-08T21:00:00	2	Temperatura media	18.8
29982	7	Sololá	710	Panajachel	8	Panajachel	4	Abril	2023-08-04T00:00:00	2024-11-08T21:00:00	4	Temperatura máxima	19.7
29983	7	Sololá	710	Panajachel	8	Panajachel	4	Abril	2023-08-04T00:00:00	2024-11-08T21:00:00	3	Temperatura mínima	18.8
29984	7	Sololá	710	Panajachel	8	Panajachel	4	Abril	2023-08-04T00:00:00	2024-11-08T21:00:00	5	Humedad	62
29985	7	Sololá	710	Panajachel	8	Panajachel	4	Abril	2023-08-04T00:00:00	2024-11-08T21:00:00	6	Velocidad del viento	8
29986	7	Sololá	710	Panajachel	8	Panajachel	4	Abril	2023-08-04T00:00:00	2024-11-08T21:00:00	7	Dirección del viento	8.05
29987	7	Sololá	710	Panajachel	8	Panajachel	4	Abril	2023-08-04T00:00:00	2024-11-08T21:00:00	1	Precipitación	0
29988	7	Sololá	710	Panajachel	8	Panajachel	4	Abril	2023-08-04T00:00:00	2024-11-08T21:00:00	8	Radiación solar	0
29989	7	Sololá	710	Panajachel	8	Panajachel	4	Abril	2023-08-04T00:00:00	2024-11-08T22:00:00	2	Temperatura media	18.3
29990	7	Sololá	710	Panajachel	8	Panajachel	4	Abril	2023-08-04T00:00:00	2024-11-08T22:00:00	4	Temperatura máxima	18.8
29991	7	Sololá	710	Panajachel	8	Panajachel	4	Abril	2023-08-04T00:00:00	2024-11-08T22:00:00	3	Temperatura mínima	18.3
29992	7	Sololá	710	Panajachel	8	Panajachel	4	Abril	2023-08-04T00:00:00	2024-11-08T22:00:00	5	Humedad	63
29993	7	Sololá	710	Panajachel	8	Panajachel	4	Abril	2023-08-04T00:00:00	2024-11-08T22:00:00	6	Velocidad del viento	8
29994	7	Sololá	710	Panajachel	8	Panajachel	4	Abril	2023-08-04T00:00:00	2024-11-08T22:00:00	7	Dirección del viento	8.05
29995	7	Sololá	710	Panajachel	8	Panajachel	4	Abril	2023-08-04T00:00:00	2024-11-08T22:00:00	1	Precipitación	0
29996	7	Sololá	710	Panajachel	8	Panajachel	4	Abril	2023-08-04T00:00:00	2024-11-08T22:00:00	8	Radiación solar	0
29997	7	Sololá	710	Panajachel	8	Panajachel	4	Abril	2023-08-04T00:00:00	2024-11-08T23:00:00	2	Temperatura media	17.7
29998	7	Sololá	710	Panajachel	8	Panajachel	4	Abril	2023-08-04T00:00:00	2024-11-08T23:00:00	4	Temperatura máxima	18.3
29999	7	Sololá	710	Panajachel	8	Panajachel	4	Abril	2023-08-04T00:00:00	2024-11-08T23:00:00	3	Temperatura mínima	17.7
30000	7	Sololá	710	Panajachel	8	Panajachel	4	Abril	2023-08-04T00:00:00	2024-11-08T23:00:00	5	Humedad	61
30001	7	Sololá	710	Panajachel	8	Panajachel	4	Abril	2023-08-04T00:00:00	2024-11-08T23:00:00	6	Velocidad del viento	4.8
30002	7	Sololá	710	Panajachel	8	Panajachel	4	Abril	2023-08-04T00:00:00	2024-11-08T23:00:00	7	Dirección del viento	4.83
30003	7	Sololá	710	Panajachel	8	Panajachel	4	Abril	2023-08-04T00:00:00	2024-11-08T23:00:00	1	Precipitación	0
30004	7	Sololá	710	Panajachel	8	Panajachel	4	Abril	2023-08-04T00:00:00	2024-11-08T23:00:00	8	Radiación solar	0
30005	7	Sololá	710	Panajachel	8	Panajachel	4	Abril	2023-09-04T00:00:00	2024-11-08T00:00:00	2	Temperatura media	17.1
30006	7	Sololá	710	Panajachel	8	Panajachel	4	Abril	2023-09-04T00:00:00	2024-11-08T00:00:00	4	Temperatura máxima	17.8
30007	7	Sololá	710	Panajachel	8	Panajachel	4	Abril	2023-09-04T00:00:00	2024-11-08T00:00:00	3	Temperatura mínima	17.1
30008	7	Sololá	710	Panajachel	8	Panajachel	4	Abril	2023-09-04T00:00:00	2024-11-08T00:00:00	5	Humedad	62
30009	7	Sololá	710	Panajachel	8	Panajachel	4	Abril	2023-09-04T00:00:00	2024-11-08T00:00:00	6	Velocidad del viento	6.4
30010	7	Sololá	710	Panajachel	8	Panajachel	4	Abril	2023-09-04T00:00:00	2024-11-08T00:00:00	7	Dirección del viento	6.44
30011	7	Sololá	710	Panajachel	8	Panajachel	4	Abril	2023-09-04T00:00:00	2024-11-08T00:00:00	1	Precipitación	0
30012	7	Sololá	710	Panajachel	8	Panajachel	4	Abril	2023-09-04T00:00:00	2024-11-08T00:00:00	8	Radiación solar	0
30013	7	Sololá	710	Panajachel	8	Panajachel	4	Abril	2023-09-04T00:00:00	2024-11-08T01:00:00	2	Temperatura media	16.2
30014	7	Sololá	710	Panajachel	8	Panajachel	4	Abril	2023-09-04T00:00:00	2024-11-08T01:00:00	4	Temperatura máxima	17.4
30015	7	Sololá	710	Panajachel	8	Panajachel	4	Abril	2023-09-04T00:00:00	2024-11-08T01:00:00	3	Temperatura mínima	16.2
30016	7	Sololá	710	Panajachel	8	Panajachel	4	Abril	2023-09-04T00:00:00	2024-11-08T01:00:00	5	Humedad	66
30017	7	Sololá	710	Panajachel	8	Panajachel	4	Abril	2023-09-04T00:00:00	2024-11-08T01:00:00	6	Velocidad del viento	1.6
30018	7	Sololá	710	Panajachel	8	Panajachel	4	Abril	2023-09-04T00:00:00	2024-11-08T01:00:00	7	Dirección del viento	1.61
30019	7	Sololá	710	Panajachel	8	Panajachel	4	Abril	2023-09-04T00:00:00	2024-11-08T01:00:00	1	Precipitación	0
30020	7	Sololá	710	Panajachel	8	Panajachel	4	Abril	2023-09-04T00:00:00	2024-11-08T01:00:00	8	Radiación solar	0
30021	7	Sololá	710	Panajachel	8	Panajachel	4	Abril	2023-09-04T00:00:00	2024-11-08T02:00:00	2	Temperatura media	17.7
30022	7	Sololá	710	Panajachel	8	Panajachel	4	Abril	2023-09-04T00:00:00	2024-11-08T02:00:00	4	Temperatura máxima	17.7
30023	7	Sololá	710	Panajachel	8	Panajachel	4	Abril	2023-09-04T00:00:00	2024-11-08T02:00:00	3	Temperatura mínima	16.2
30024	7	Sololá	710	Panajachel	8	Panajachel	4	Abril	2023-09-04T00:00:00	2024-11-08T02:00:00	5	Humedad	66
30025	7	Sololá	710	Panajachel	8	Panajachel	4	Abril	2023-09-04T00:00:00	2024-11-08T02:00:00	6	Velocidad del viento	6.4
30026	7	Sololá	710	Panajachel	8	Panajachel	4	Abril	2023-09-04T00:00:00	2024-11-08T02:00:00	7	Dirección del viento	6.44
30027	7	Sololá	710	Panajachel	8	Panajachel	4	Abril	2023-09-04T00:00:00	2024-11-08T02:00:00	1	Precipitación	0
30028	7	Sololá	710	Panajachel	8	Panajachel	4	Abril	2023-09-04T00:00:00	2024-11-08T02:00:00	8	Radiación solar	0
30029	7	Sololá	710	Panajachel	8	Panajachel	4	Abril	2023-09-04T00:00:00	2024-11-08T03:00:00	2	Temperatura media	16.6
30030	7	Sololá	710	Panajachel	8	Panajachel	4	Abril	2023-09-04T00:00:00	2024-11-08T03:00:00	4	Temperatura máxima	17.9
30031	7	Sololá	710	Panajachel	8	Panajachel	4	Abril	2023-09-04T00:00:00	2024-11-08T03:00:00	3	Temperatura mínima	16.6
30032	7	Sololá	710	Panajachel	8	Panajachel	4	Abril	2023-09-04T00:00:00	2024-11-08T03:00:00	5	Humedad	69
30033	7	Sololá	710	Panajachel	8	Panajachel	4	Abril	2023-09-04T00:00:00	2024-11-08T03:00:00	6	Velocidad del viento	4.8
30034	7	Sololá	710	Panajachel	8	Panajachel	4	Abril	2023-09-04T00:00:00	2024-11-08T03:00:00	7	Dirección del viento	4.83
30035	7	Sololá	710	Panajachel	8	Panajachel	4	Abril	2023-09-04T00:00:00	2024-11-08T03:00:00	1	Precipitación	0
30036	7	Sololá	710	Panajachel	8	Panajachel	4	Abril	2023-09-04T00:00:00	2024-11-08T03:00:00	8	Radiación solar	0
30037	7	Sololá	710	Panajachel	8	Panajachel	4	Abril	2023-09-04T00:00:00	2024-11-08T04:00:00	2	Temperatura media	17
30038	7	Sololá	710	Panajachel	8	Panajachel	4	Abril	2023-09-04T00:00:00	2024-11-08T04:00:00	4	Temperatura máxima	17.3
30039	7	Sololá	710	Panajachel	8	Panajachel	4	Abril	2023-09-04T00:00:00	2024-11-08T04:00:00	3	Temperatura mínima	16.4
30040	7	Sololá	710	Panajachel	8	Panajachel	4	Abril	2023-09-04T00:00:00	2024-11-08T04:00:00	5	Humedad	63
30041	7	Sololá	710	Panajachel	8	Panajachel	4	Abril	2023-09-04T00:00:00	2024-11-08T04:00:00	6	Velocidad del viento	1.6
30042	7	Sololá	710	Panajachel	8	Panajachel	4	Abril	2023-09-04T00:00:00	2024-11-08T04:00:00	7	Dirección del viento	1.61
30043	7	Sololá	710	Panajachel	8	Panajachel	4	Abril	2023-09-04T00:00:00	2024-11-08T04:00:00	1	Precipitación	0
30044	7	Sololá	710	Panajachel	8	Panajachel	4	Abril	2023-09-04T00:00:00	2024-11-08T04:00:00	8	Radiación solar	0
30045	7	Sololá	710	Panajachel	8	Panajachel	4	Abril	2023-09-04T00:00:00	2024-11-08T05:00:00	2	Temperatura media	16.7
30046	7	Sololá	710	Panajachel	8	Panajachel	4	Abril	2023-09-04T00:00:00	2024-11-08T05:00:00	4	Temperatura máxima	17
30047	7	Sololá	710	Panajachel	8	Panajachel	4	Abril	2023-09-04T00:00:00	2024-11-08T05:00:00	3	Temperatura mínima	16.6
30048	7	Sololá	710	Panajachel	8	Panajachel	4	Abril	2023-09-04T00:00:00	2024-11-08T05:00:00	5	Humedad	65
30049	7	Sololá	710	Panajachel	8	Panajachel	4	Abril	2023-09-04T00:00:00	2024-11-08T05:00:00	6	Velocidad del viento	0
30050	7	Sololá	710	Panajachel	8	Panajachel	4	Abril	2023-09-04T00:00:00	2024-11-08T05:00:00	7	Dirección del viento	0
30051	7	Sololá	710	Panajachel	8	Panajachel	4	Abril	2023-09-04T00:00:00	2024-11-08T05:00:00	1	Precipitación	0
30052	7	Sololá	710	Panajachel	8	Panajachel	4	Abril	2023-09-04T00:00:00	2024-11-08T05:00:00	8	Radiación solar	0
30053	7	Sololá	710	Panajachel	8	Panajachel	4	Abril	2023-09-04T00:00:00	2024-11-08T06:00:00	2	Temperatura media	17.2
30054	7	Sololá	710	Panajachel	8	Panajachel	4	Abril	2023-09-04T00:00:00	2024-11-08T06:00:00	4	Temperatura máxima	17.6
30055	7	Sololá	710	Panajachel	8	Panajachel	4	Abril	2023-09-04T00:00:00	2024-11-08T06:00:00	3	Temperatura mínima	16.7
30056	7	Sololá	710	Panajachel	8	Panajachel	4	Abril	2023-09-04T00:00:00	2024-11-08T06:00:00	5	Humedad	64
30057	7	Sololá	710	Panajachel	8	Panajachel	4	Abril	2023-09-04T00:00:00	2024-11-08T06:00:00	6	Velocidad del viento	6.4
30058	7	Sololá	710	Panajachel	8	Panajachel	4	Abril	2023-09-04T00:00:00	2024-11-08T06:00:00	7	Dirección del viento	6.44
30059	7	Sololá	710	Panajachel	8	Panajachel	4	Abril	2023-09-04T00:00:00	2024-11-08T06:00:00	1	Precipitación	0
30060	7	Sololá	710	Panajachel	8	Panajachel	4	Abril	2023-09-04T00:00:00	2024-11-08T06:00:00	8	Radiación solar	0
30061	7	Sololá	710	Panajachel	8	Panajachel	4	Abril	2023-09-04T00:00:00	2024-11-08T07:00:00	2	Temperatura media	18.7
30062	7	Sololá	710	Panajachel	8	Panajachel	4	Abril	2023-09-04T00:00:00	2024-11-08T07:00:00	4	Temperatura máxima	18.7
30063	7	Sololá	710	Panajachel	8	Panajachel	4	Abril	2023-09-04T00:00:00	2024-11-08T07:00:00	3	Temperatura mínima	17.2
30064	7	Sololá	710	Panajachel	8	Panajachel	4	Abril	2023-09-04T00:00:00	2024-11-08T07:00:00	5	Humedad	58
30065	7	Sololá	710	Panajachel	8	Panajachel	4	Abril	2023-09-04T00:00:00	2024-11-08T07:00:00	6	Velocidad del viento	6.4
30066	7	Sololá	710	Panajachel	8	Panajachel	4	Abril	2023-09-04T00:00:00	2024-11-08T07:00:00	7	Dirección del viento	6.44
30067	7	Sololá	710	Panajachel	8	Panajachel	4	Abril	2023-09-04T00:00:00	2024-11-08T07:00:00	1	Precipitación	0
30068	7	Sololá	710	Panajachel	8	Panajachel	4	Abril	2023-09-04T00:00:00	2024-11-08T07:00:00	8	Radiación solar	53
30069	7	Sololá	710	Panajachel	8	Panajachel	4	Abril	2023-09-04T00:00:00	2024-11-08T08:00:00	2	Temperatura media	20.9
30070	7	Sololá	710	Panajachel	8	Panajachel	4	Abril	2023-09-04T00:00:00	2024-11-08T08:00:00	4	Temperatura máxima	20.9
30071	7	Sololá	710	Panajachel	8	Panajachel	4	Abril	2023-09-04T00:00:00	2024-11-08T08:00:00	3	Temperatura mínima	18.7
30072	7	Sololá	710	Panajachel	8	Panajachel	4	Abril	2023-09-04T00:00:00	2024-11-08T08:00:00	5	Humedad	55
30073	7	Sololá	710	Panajachel	8	Panajachel	4	Abril	2023-09-04T00:00:00	2024-11-08T08:00:00	6	Velocidad del viento	4.8
30074	7	Sololá	710	Panajachel	8	Panajachel	4	Abril	2023-09-04T00:00:00	2024-11-08T08:00:00	7	Dirección del viento	4.83
30075	7	Sololá	710	Panajachel	8	Panajachel	4	Abril	2023-09-04T00:00:00	2024-11-08T08:00:00	1	Precipitación	0
30076	7	Sololá	710	Panajachel	8	Panajachel	4	Abril	2023-09-04T00:00:00	2024-11-08T08:00:00	8	Radiación solar	305
30077	7	Sololá	710	Panajachel	8	Panajachel	4	Abril	2023-09-04T00:00:00	2024-11-08T09:00:00	2	Temperatura media	22.7
30078	7	Sololá	710	Panajachel	8	Panajachel	4	Abril	2023-09-04T00:00:00	2024-11-08T09:00:00	4	Temperatura máxima	22.7
30079	7	Sololá	710	Panajachel	8	Panajachel	4	Abril	2023-09-04T00:00:00	2024-11-08T09:00:00	3	Temperatura mínima	20.9
30080	7	Sololá	710	Panajachel	8	Panajachel	4	Abril	2023-09-04T00:00:00	2024-11-08T09:00:00	5	Humedad	48
30081	7	Sololá	710	Panajachel	8	Panajachel	4	Abril	2023-09-04T00:00:00	2024-11-08T09:00:00	6	Velocidad del viento	6.4
30082	7	Sololá	710	Panajachel	8	Panajachel	4	Abril	2023-09-04T00:00:00	2024-11-08T09:00:00	7	Dirección del viento	6.44
30083	7	Sololá	710	Panajachel	8	Panajachel	4	Abril	2023-09-04T00:00:00	2024-11-08T09:00:00	1	Precipitación	0
30084	7	Sololá	710	Panajachel	8	Panajachel	4	Abril	2023-09-04T00:00:00	2024-11-08T09:00:00	8	Radiación solar	542
30085	7	Sololá	710	Panajachel	8	Panajachel	4	Abril	2023-09-04T00:00:00	2024-11-08T10:00:00	2	Temperatura media	23.4
30086	7	Sololá	710	Panajachel	8	Panajachel	4	Abril	2023-09-04T00:00:00	2024-11-08T10:00:00	4	Temperatura máxima	23.5
30087	7	Sololá	710	Panajachel	8	Panajachel	4	Abril	2023-09-04T00:00:00	2024-11-08T10:00:00	3	Temperatura mínima	22.5
30088	7	Sololá	710	Panajachel	8	Panajachel	4	Abril	2023-09-04T00:00:00	2024-11-08T10:00:00	5	Humedad	46
30089	7	Sololá	710	Panajachel	8	Panajachel	4	Abril	2023-09-04T00:00:00	2024-11-08T10:00:00	6	Velocidad del viento	9.7
30090	7	Sololá	710	Panajachel	8	Panajachel	4	Abril	2023-09-04T00:00:00	2024-11-08T10:00:00	7	Dirección del viento	9.66
30091	7	Sololá	710	Panajachel	8	Panajachel	4	Abril	2023-09-04T00:00:00	2024-11-08T10:00:00	1	Precipitación	0
30092	7	Sololá	710	Panajachel	8	Panajachel	4	Abril	2023-09-04T00:00:00	2024-11-08T10:00:00	8	Radiación solar	744
30093	7	Sololá	710	Panajachel	8	Panajachel	4	Abril	2023-09-04T00:00:00	2024-11-08T11:00:00	2	Temperatura media	24.7
30094	7	Sololá	710	Panajachel	8	Panajachel	4	Abril	2023-09-04T00:00:00	2024-11-08T11:00:00	4	Temperatura máxima	24.7
30095	7	Sololá	710	Panajachel	8	Panajachel	4	Abril	2023-09-04T00:00:00	2024-11-08T11:00:00	3	Temperatura mínima	23.3
30096	7	Sololá	710	Panajachel	8	Panajachel	4	Abril	2023-09-04T00:00:00	2024-11-08T11:00:00	5	Humedad	44
30097	7	Sololá	710	Panajachel	8	Panajachel	4	Abril	2023-09-04T00:00:00	2024-11-08T11:00:00	6	Velocidad del viento	11.3
30098	7	Sololá	710	Panajachel	8	Panajachel	4	Abril	2023-09-04T00:00:00	2024-11-08T11:00:00	7	Dirección del viento	11.27
30099	7	Sololá	710	Panajachel	8	Panajachel	4	Abril	2023-09-04T00:00:00	2024-11-08T11:00:00	1	Precipitación	0
30100	7	Sololá	710	Panajachel	8	Panajachel	4	Abril	2023-09-04T00:00:00	2024-11-08T11:00:00	8	Radiación solar	890
30101	7	Sololá	710	Panajachel	8	Panajachel	4	Abril	2023-09-04T00:00:00	2024-11-08T12:00:00	2	Temperatura media	25.6
30102	7	Sololá	710	Panajachel	8	Panajachel	4	Abril	2023-09-04T00:00:00	2024-11-08T12:00:00	4	Temperatura máxima	25.7
30103	7	Sololá	710	Panajachel	8	Panajachel	4	Abril	2023-09-04T00:00:00	2024-11-08T12:00:00	3	Temperatura mínima	24.4
30104	7	Sololá	710	Panajachel	8	Panajachel	4	Abril	2023-09-04T00:00:00	2024-11-08T12:00:00	5	Humedad	40
30105	7	Sololá	710	Panajachel	8	Panajachel	4	Abril	2023-09-04T00:00:00	2024-11-08T12:00:00	6	Velocidad del viento	9.7
30106	7	Sololá	710	Panajachel	8	Panajachel	4	Abril	2023-09-04T00:00:00	2024-11-08T12:00:00	7	Dirección del viento	9.66
30107	7	Sololá	710	Panajachel	8	Panajachel	4	Abril	2023-09-04T00:00:00	2024-11-08T12:00:00	1	Precipitación	0
30108	7	Sololá	710	Panajachel	8	Panajachel	4	Abril	2023-09-04T00:00:00	2024-11-08T12:00:00	8	Radiación solar	963
30109	7	Sololá	710	Panajachel	8	Panajachel	4	Abril	2023-09-04T00:00:00	2024-11-08T13:00:00	2	Temperatura media	25.3
30110	7	Sololá	710	Panajachel	8	Panajachel	4	Abril	2023-09-04T00:00:00	2024-11-08T13:00:00	4	Temperatura máxima	26.8
30111	7	Sololá	710	Panajachel	8	Panajachel	4	Abril	2023-09-04T00:00:00	2024-11-08T13:00:00	3	Temperatura mínima	25.3
30112	7	Sololá	710	Panajachel	8	Panajachel	4	Abril	2023-09-04T00:00:00	2024-11-08T13:00:00	5	Humedad	60
30113	7	Sololá	710	Panajachel	8	Panajachel	4	Abril	2023-09-04T00:00:00	2024-11-08T13:00:00	6	Velocidad del viento	9.7
30114	7	Sololá	710	Panajachel	8	Panajachel	4	Abril	2023-09-04T00:00:00	2024-11-08T13:00:00	7	Dirección del viento	9.66
30115	7	Sololá	710	Panajachel	8	Panajachel	4	Abril	2023-09-04T00:00:00	2024-11-08T13:00:00	1	Precipitación	0
30116	7	Sololá	710	Panajachel	8	Panajachel	4	Abril	2023-09-04T00:00:00	2024-11-08T13:00:00	8	Radiación solar	968
30117	7	Sololá	710	Panajachel	8	Panajachel	4	Abril	2023-09-04T00:00:00	2024-11-08T14:00:00	2	Temperatura media	24.3
30118	7	Sololá	710	Panajachel	8	Panajachel	4	Abril	2023-09-04T00:00:00	2024-11-08T14:00:00	4	Temperatura máxima	25.3
30119	7	Sololá	710	Panajachel	8	Panajachel	4	Abril	2023-09-04T00:00:00	2024-11-08T14:00:00	3	Temperatura mínima	23.8
30120	7	Sololá	710	Panajachel	8	Panajachel	4	Abril	2023-09-04T00:00:00	2024-11-08T14:00:00	5	Humedad	71
30121	7	Sololá	710	Panajachel	8	Panajachel	4	Abril	2023-09-04T00:00:00	2024-11-08T14:00:00	6	Velocidad del viento	11.3
30122	7	Sololá	710	Panajachel	8	Panajachel	4	Abril	2023-09-04T00:00:00	2024-11-08T14:00:00	7	Dirección del viento	11.27
30123	7	Sololá	710	Panajachel	8	Panajachel	4	Abril	2023-09-04T00:00:00	2024-11-08T14:00:00	1	Precipitación	0
30124	7	Sololá	710	Panajachel	8	Panajachel	4	Abril	2023-09-04T00:00:00	2024-11-08T14:00:00	8	Radiación solar	895
30125	7	Sololá	710	Panajachel	8	Panajachel	4	Abril	2023-09-04T00:00:00	2024-11-08T15:00:00	2	Temperatura media	23.3
30126	7	Sololá	710	Panajachel	8	Panajachel	4	Abril	2023-09-04T00:00:00	2024-11-08T15:00:00	4	Temperatura máxima	24.4
30127	7	Sololá	710	Panajachel	8	Panajachel	4	Abril	2023-09-04T00:00:00	2024-11-08T15:00:00	3	Temperatura mínima	23.1
30128	7	Sololá	710	Panajachel	8	Panajachel	4	Abril	2023-09-04T00:00:00	2024-11-08T15:00:00	5	Humedad	74
30129	7	Sololá	710	Panajachel	8	Panajachel	4	Abril	2023-09-04T00:00:00	2024-11-08T15:00:00	6	Velocidad del viento	8
30130	7	Sololá	710	Panajachel	8	Panajachel	4	Abril	2023-09-04T00:00:00	2024-11-08T15:00:00	7	Dirección del viento	8.05
30131	7	Sololá	710	Panajachel	8	Panajachel	4	Abril	2023-09-04T00:00:00	2024-11-08T15:00:00	1	Precipitación	0
30132	7	Sololá	710	Panajachel	8	Panajachel	4	Abril	2023-09-04T00:00:00	2024-11-08T15:00:00	8	Radiación solar	732
30133	7	Sololá	710	Panajachel	8	Panajachel	4	Abril	2023-09-04T00:00:00	2024-11-08T16:00:00	2	Temperatura media	22.7
30134	7	Sololá	710	Panajachel	8	Panajachel	4	Abril	2023-09-04T00:00:00	2024-11-08T16:00:00	4	Temperatura máxima	24.2
30135	7	Sololá	710	Panajachel	8	Panajachel	4	Abril	2023-09-04T00:00:00	2024-11-08T16:00:00	3	Temperatura mínima	22.3
30136	7	Sololá	710	Panajachel	8	Panajachel	4	Abril	2023-09-04T00:00:00	2024-11-08T16:00:00	5	Humedad	74
30137	7	Sololá	710	Panajachel	8	Panajachel	4	Abril	2023-09-04T00:00:00	2024-11-08T16:00:00	6	Velocidad del viento	8
30138	7	Sololá	710	Panajachel	8	Panajachel	4	Abril	2023-09-04T00:00:00	2024-11-08T16:00:00	7	Dirección del viento	8.05
30139	7	Sololá	710	Panajachel	8	Panajachel	4	Abril	2023-09-04T00:00:00	2024-11-08T16:00:00	1	Precipitación	0
30140	7	Sololá	710	Panajachel	8	Panajachel	4	Abril	2023-09-04T00:00:00	2024-11-08T16:00:00	8	Radiación solar	369
30141	7	Sololá	710	Panajachel	8	Panajachel	4	Abril	2023-09-04T00:00:00	2024-11-08T17:00:00	2	Temperatura media	22.4
30142	7	Sololá	710	Panajachel	8	Panajachel	4	Abril	2023-09-04T00:00:00	2024-11-08T17:00:00	4	Temperatura máxima	23.5
30143	7	Sololá	710	Panajachel	8	Panajachel	4	Abril	2023-09-04T00:00:00	2024-11-08T17:00:00	3	Temperatura mínima	22
30144	7	Sololá	710	Panajachel	8	Panajachel	4	Abril	2023-09-04T00:00:00	2024-11-08T17:00:00	5	Humedad	75
30145	7	Sololá	710	Panajachel	8	Panajachel	4	Abril	2023-09-04T00:00:00	2024-11-08T17:00:00	6	Velocidad del viento	4.8
30146	7	Sololá	710	Panajachel	8	Panajachel	4	Abril	2023-09-04T00:00:00	2024-11-08T17:00:00	7	Dirección del viento	4.83
30147	7	Sololá	710	Panajachel	8	Panajachel	4	Abril	2023-09-04T00:00:00	2024-11-08T17:00:00	1	Precipitación	0
30148	7	Sololá	710	Panajachel	8	Panajachel	4	Abril	2023-09-04T00:00:00	2024-11-08T17:00:00	8	Radiación solar	179
30149	7	Sololá	710	Panajachel	8	Panajachel	4	Abril	2023-09-04T00:00:00	2024-11-08T18:00:00	2	Temperatura media	21.3
30150	7	Sololá	710	Panajachel	8	Panajachel	4	Abril	2023-09-04T00:00:00	2024-11-08T18:00:00	4	Temperatura máxima	22.9
30151	7	Sololá	710	Panajachel	8	Panajachel	4	Abril	2023-09-04T00:00:00	2024-11-08T18:00:00	3	Temperatura mínima	21.3
30152	7	Sololá	710	Panajachel	8	Panajachel	4	Abril	2023-09-04T00:00:00	2024-11-08T18:00:00	5	Humedad	80
30153	7	Sololá	710	Panajachel	8	Panajachel	4	Abril	2023-09-04T00:00:00	2024-11-08T18:00:00	6	Velocidad del viento	1.6
30154	7	Sololá	710	Panajachel	8	Panajachel	4	Abril	2023-09-04T00:00:00	2024-11-08T18:00:00	7	Dirección del viento	1.61
30155	7	Sololá	710	Panajachel	8	Panajachel	4	Abril	2023-09-04T00:00:00	2024-11-08T18:00:00	1	Precipitación	0
30156	7	Sololá	710	Panajachel	8	Panajachel	4	Abril	2023-09-04T00:00:00	2024-11-08T18:00:00	8	Radiación solar	99
30157	7	Sololá	710	Panajachel	8	Panajachel	4	Abril	2023-09-04T00:00:00	2024-11-08T19:00:00	2	Temperatura media	21
30158	7	Sololá	710	Panajachel	8	Panajachel	4	Abril	2023-09-04T00:00:00	2024-11-08T19:00:00	4	Temperatura máxima	21.3
30159	7	Sololá	710	Panajachel	8	Panajachel	4	Abril	2023-09-04T00:00:00	2024-11-08T19:00:00	3	Temperatura mínima	20.4
30160	7	Sololá	710	Panajachel	8	Panajachel	4	Abril	2023-09-04T00:00:00	2024-11-08T19:00:00	5	Humedad	54
30161	7	Sololá	710	Panajachel	8	Panajachel	4	Abril	2023-09-04T00:00:00	2024-11-08T19:00:00	6	Velocidad del viento	1.6
30162	7	Sololá	710	Panajachel	8	Panajachel	4	Abril	2023-09-04T00:00:00	2024-11-08T19:00:00	7	Dirección del viento	1.61
30163	7	Sololá	710	Panajachel	8	Panajachel	4	Abril	2023-09-04T00:00:00	2024-11-08T19:00:00	1	Precipitación	0
30164	7	Sololá	710	Panajachel	8	Panajachel	4	Abril	2023-09-04T00:00:00	2024-11-08T19:00:00	8	Radiación solar	0
30165	7	Sololá	710	Panajachel	8	Panajachel	4	Abril	2023-09-04T00:00:00	2024-11-08T20:00:00	2	Temperatura media	19.6
30166	7	Sololá	710	Panajachel	8	Panajachel	4	Abril	2023-09-04T00:00:00	2024-11-08T20:00:00	4	Temperatura máxima	21.1
30167	7	Sololá	710	Panajachel	8	Panajachel	4	Abril	2023-09-04T00:00:00	2024-11-08T20:00:00	3	Temperatura mínima	19.6
30168	7	Sololá	710	Panajachel	8	Panajachel	4	Abril	2023-09-04T00:00:00	2024-11-08T20:00:00	5	Humedad	55
30169	7	Sololá	710	Panajachel	8	Panajachel	4	Abril	2023-09-04T00:00:00	2024-11-08T20:00:00	6	Velocidad del viento	4.8
30170	7	Sololá	710	Panajachel	8	Panajachel	4	Abril	2023-09-04T00:00:00	2024-11-08T20:00:00	7	Dirección del viento	4.83
30171	7	Sololá	710	Panajachel	8	Panajachel	4	Abril	2023-09-04T00:00:00	2024-11-08T20:00:00	1	Precipitación	0
30172	7	Sololá	710	Panajachel	8	Panajachel	4	Abril	2023-09-04T00:00:00	2024-11-08T20:00:00	8	Radiación solar	0
30173	7	Sololá	710	Panajachel	8	Panajachel	4	Abril	2023-09-04T00:00:00	2024-11-08T21:00:00	2	Temperatura media	19.2
30174	7	Sololá	710	Panajachel	8	Panajachel	4	Abril	2023-09-04T00:00:00	2024-11-08T21:00:00	4	Temperatura máxima	19.6
30175	7	Sololá	710	Panajachel	8	Panajachel	4	Abril	2023-09-04T00:00:00	2024-11-08T21:00:00	3	Temperatura mínima	19.2
30176	7	Sololá	710	Panajachel	8	Panajachel	4	Abril	2023-09-04T00:00:00	2024-11-08T21:00:00	5	Humedad	57
30177	7	Sololá	710	Panajachel	8	Panajachel	4	Abril	2023-09-04T00:00:00	2024-11-08T21:00:00	6	Velocidad del viento	4.8
30178	7	Sololá	710	Panajachel	8	Panajachel	4	Abril	2023-09-04T00:00:00	2024-11-08T21:00:00	7	Dirección del viento	4.83
30179	7	Sololá	710	Panajachel	8	Panajachel	4	Abril	2023-09-04T00:00:00	2024-11-08T21:00:00	1	Precipitación	0
30180	7	Sololá	710	Panajachel	8	Panajachel	4	Abril	2023-09-04T00:00:00	2024-11-08T21:00:00	8	Radiación solar	0
30181	7	Sololá	710	Panajachel	8	Panajachel	4	Abril	2023-09-04T00:00:00	2024-11-08T22:00:00	2	Temperatura media	18.4
30182	7	Sololá	710	Panajachel	8	Panajachel	4	Abril	2023-09-04T00:00:00	2024-11-08T22:00:00	4	Temperatura máxima	19.2
30183	7	Sololá	710	Panajachel	8	Panajachel	4	Abril	2023-09-04T00:00:00	2024-11-08T22:00:00	3	Temperatura mínima	18.3
30184	7	Sololá	710	Panajachel	8	Panajachel	4	Abril	2023-09-04T00:00:00	2024-11-08T22:00:00	5	Humedad	63
30185	7	Sololá	710	Panajachel	8	Panajachel	4	Abril	2023-09-04T00:00:00	2024-11-08T22:00:00	6	Velocidad del viento	1.6
30186	7	Sololá	710	Panajachel	8	Panajachel	4	Abril	2023-09-04T00:00:00	2024-11-08T22:00:00	7	Dirección del viento	1.61
30187	7	Sololá	710	Panajachel	8	Panajachel	4	Abril	2023-09-04T00:00:00	2024-11-08T22:00:00	1	Precipitación	0
30188	7	Sololá	710	Panajachel	8	Panajachel	4	Abril	2023-09-04T00:00:00	2024-11-08T22:00:00	8	Radiación solar	0
30189	7	Sololá	710	Panajachel	8	Panajachel	4	Abril	2023-09-04T00:00:00	2024-11-08T23:00:00	2	Temperatura media	18.4
30190	7	Sololá	710	Panajachel	8	Panajachel	4	Abril	2023-09-04T00:00:00	2024-11-08T23:00:00	4	Temperatura máxima	18.6
30191	7	Sololá	710	Panajachel	8	Panajachel	4	Abril	2023-09-04T00:00:00	2024-11-08T23:00:00	3	Temperatura mínima	18.3
30192	7	Sololá	710	Panajachel	8	Panajachel	4	Abril	2023-09-04T00:00:00	2024-11-08T23:00:00	5	Humedad	56
30193	7	Sololá	710	Panajachel	8	Panajachel	4	Abril	2023-09-04T00:00:00	2024-11-08T23:00:00	6	Velocidad del viento	4.8
30194	7	Sololá	710	Panajachel	8	Panajachel	4	Abril	2023-09-04T00:00:00	2024-11-08T23:00:00	7	Dirección del viento	4.83
30195	7	Sololá	710	Panajachel	8	Panajachel	4	Abril	2023-09-04T00:00:00	2024-11-08T23:00:00	1	Precipitación	0
30196	7	Sololá	710	Panajachel	8	Panajachel	4	Abril	2023-09-04T00:00:00	2024-11-08T23:00:00	8	Radiación solar	0
30197	7	Sololá	710	Panajachel	8	Panajachel	4	Abril	2023-10-04T00:00:00	2024-11-08T00:00:00	2	Temperatura media	17.8
30198	7	Sololá	710	Panajachel	8	Panajachel	4	Abril	2023-10-04T00:00:00	2024-11-08T00:00:00	4	Temperatura máxima	18.5
30199	7	Sololá	710	Panajachel	8	Panajachel	4	Abril	2023-10-04T00:00:00	2024-11-08T00:00:00	3	Temperatura mínima	17.8
30200	7	Sololá	710	Panajachel	8	Panajachel	4	Abril	2023-10-04T00:00:00	2024-11-08T00:00:00	5	Humedad	56
30201	7	Sololá	710	Panajachel	8	Panajachel	4	Abril	2023-10-04T00:00:00	2024-11-08T00:00:00	6	Velocidad del viento	1.6
30202	7	Sololá	710	Panajachel	8	Panajachel	4	Abril	2023-10-04T00:00:00	2024-11-08T00:00:00	7	Dirección del viento	1.61
30203	7	Sololá	710	Panajachel	8	Panajachel	4	Abril	2023-10-04T00:00:00	2024-11-08T00:00:00	1	Precipitación	0
30204	7	Sololá	710	Panajachel	8	Panajachel	4	Abril	2023-10-04T00:00:00	2024-11-08T00:00:00	8	Radiación solar	0
30205	7	Sololá	710	Panajachel	8	Panajachel	4	Abril	2023-10-04T00:00:00	2024-11-08T01:00:00	2	Temperatura media	17.6
30206	7	Sololá	710	Panajachel	8	Panajachel	4	Abril	2023-10-04T00:00:00	2024-11-08T01:00:00	4	Temperatura máxima	18.1
30207	7	Sololá	710	Panajachel	8	Panajachel	4	Abril	2023-10-04T00:00:00	2024-11-08T01:00:00	3	Temperatura mínima	17.5
30208	7	Sololá	710	Panajachel	8	Panajachel	4	Abril	2023-10-04T00:00:00	2024-11-08T01:00:00	5	Humedad	58
30209	7	Sololá	710	Panajachel	8	Panajachel	4	Abril	2023-10-04T00:00:00	2024-11-08T01:00:00	6	Velocidad del viento	1.6
30210	7	Sololá	710	Panajachel	8	Panajachel	4	Abril	2023-10-04T00:00:00	2024-11-08T01:00:00	7	Dirección del viento	1.61
30211	7	Sololá	710	Panajachel	8	Panajachel	4	Abril	2023-10-04T00:00:00	2024-11-08T01:00:00	1	Precipitación	0
30212	7	Sololá	710	Panajachel	8	Panajachel	4	Abril	2023-10-04T00:00:00	2024-11-08T01:00:00	8	Radiación solar	0
30213	7	Sololá	710	Panajachel	8	Panajachel	4	Abril	2023-10-04T00:00:00	2024-11-08T02:00:00	2	Temperatura media	16.7
30214	7	Sololá	710	Panajachel	8	Panajachel	4	Abril	2023-10-04T00:00:00	2024-11-08T02:00:00	4	Temperatura máxima	17.7
30215	7	Sololá	710	Panajachel	8	Panajachel	4	Abril	2023-10-04T00:00:00	2024-11-08T02:00:00	3	Temperatura mínima	16.4
30216	7	Sololá	710	Panajachel	8	Panajachel	4	Abril	2023-10-04T00:00:00	2024-11-08T02:00:00	5	Humedad	63
30217	7	Sololá	710	Panajachel	8	Panajachel	4	Abril	2023-10-04T00:00:00	2024-11-08T02:00:00	6	Velocidad del viento	0
30218	7	Sololá	710	Panajachel	8	Panajachel	4	Abril	2023-10-04T00:00:00	2024-11-08T02:00:00	7	Dirección del viento	0
30219	7	Sololá	710	Panajachel	8	Panajachel	4	Abril	2023-10-04T00:00:00	2024-11-08T02:00:00	1	Precipitación	0
30220	7	Sololá	710	Panajachel	8	Panajachel	4	Abril	2023-10-04T00:00:00	2024-11-08T02:00:00	8	Radiación solar	0
30221	7	Sololá	710	Panajachel	8	Panajachel	4	Abril	2023-10-04T00:00:00	2024-11-08T03:00:00	2	Temperatura media	17.3
30222	7	Sololá	710	Panajachel	8	Panajachel	4	Abril	2023-10-04T00:00:00	2024-11-08T03:00:00	4	Temperatura máxima	17.4
30223	7	Sololá	710	Panajachel	8	Panajachel	4	Abril	2023-10-04T00:00:00	2024-11-08T03:00:00	3	Temperatura mínima	16.5
30224	7	Sololá	710	Panajachel	8	Panajachel	4	Abril	2023-10-04T00:00:00	2024-11-08T03:00:00	5	Humedad	60
30225	7	Sololá	710	Panajachel	8	Panajachel	4	Abril	2023-10-04T00:00:00	2024-11-08T03:00:00	6	Velocidad del viento	0
30226	7	Sololá	710	Panajachel	8	Panajachel	4	Abril	2023-10-04T00:00:00	2024-11-08T03:00:00	7	Dirección del viento	0
30227	7	Sololá	710	Panajachel	8	Panajachel	4	Abril	2023-10-04T00:00:00	2024-11-08T03:00:00	1	Precipitación	0
30228	7	Sololá	710	Panajachel	8	Panajachel	4	Abril	2023-10-04T00:00:00	2024-11-08T03:00:00	8	Radiación solar	0
30229	7	Sololá	710	Panajachel	8	Panajachel	4	Abril	2023-10-04T00:00:00	2024-11-08T04:00:00	2	Temperatura media	15.9
30230	7	Sololá	710	Panajachel	8	Panajachel	4	Abril	2023-10-04T00:00:00	2024-11-08T04:00:00	4	Temperatura máxima	17.3
30231	7	Sololá	710	Panajachel	8	Panajachel	4	Abril	2023-10-04T00:00:00	2024-11-08T04:00:00	3	Temperatura mínima	15.8
30232	7	Sololá	710	Panajachel	8	Panajachel	4	Abril	2023-10-04T00:00:00	2024-11-08T04:00:00	5	Humedad	65
30233	7	Sololá	710	Panajachel	8	Panajachel	4	Abril	2023-10-04T00:00:00	2024-11-08T04:00:00	6	Velocidad del viento	0
30234	7	Sololá	710	Panajachel	8	Panajachel	4	Abril	2023-10-04T00:00:00	2024-11-08T04:00:00	7	Dirección del viento	0
30235	7	Sololá	710	Panajachel	8	Panajachel	4	Abril	2023-10-04T00:00:00	2024-11-08T04:00:00	1	Precipitación	0
30236	7	Sololá	710	Panajachel	8	Panajachel	4	Abril	2023-10-04T00:00:00	2024-11-08T04:00:00	8	Radiación solar	0
30237	7	Sololá	710	Panajachel	8	Panajachel	4	Abril	2023-10-04T00:00:00	2024-11-08T05:00:00	2	Temperatura media	17.6
30238	7	Sololá	710	Panajachel	8	Panajachel	4	Abril	2023-10-04T00:00:00	2024-11-08T05:00:00	4	Temperatura máxima	17.7
30239	7	Sololá	710	Panajachel	8	Panajachel	4	Abril	2023-10-04T00:00:00	2024-11-08T05:00:00	3	Temperatura mínima	15.9
30240	7	Sololá	710	Panajachel	8	Panajachel	4	Abril	2023-10-04T00:00:00	2024-11-08T05:00:00	5	Humedad	59
30241	7	Sololá	710	Panajachel	8	Panajachel	4	Abril	2023-10-04T00:00:00	2024-11-08T05:00:00	6	Velocidad del viento	1.6
30242	7	Sololá	710	Panajachel	8	Panajachel	4	Abril	2023-10-04T00:00:00	2024-11-08T05:00:00	7	Dirección del viento	1.61
30243	7	Sololá	710	Panajachel	8	Panajachel	4	Abril	2023-10-04T00:00:00	2024-11-08T05:00:00	1	Precipitación	0
30244	7	Sololá	710	Panajachel	8	Panajachel	4	Abril	2023-10-04T00:00:00	2024-11-08T05:00:00	8	Radiación solar	0
30245	7	Sololá	710	Panajachel	8	Panajachel	4	Abril	2023-10-04T00:00:00	2024-11-08T06:00:00	2	Temperatura media	16.4
30246	7	Sololá	710	Panajachel	8	Panajachel	4	Abril	2023-10-04T00:00:00	2024-11-08T06:00:00	4	Temperatura máxima	17.6
30247	7	Sololá	710	Panajachel	8	Panajachel	4	Abril	2023-10-04T00:00:00	2024-11-08T06:00:00	3	Temperatura mínima	16.4
30248	7	Sololá	710	Panajachel	8	Panajachel	4	Abril	2023-10-04T00:00:00	2024-11-08T06:00:00	5	Humedad	63
30249	7	Sololá	710	Panajachel	8	Panajachel	4	Abril	2023-10-04T00:00:00	2024-11-08T06:00:00	6	Velocidad del viento	1.6
30250	7	Sololá	710	Panajachel	8	Panajachel	4	Abril	2023-10-04T00:00:00	2024-11-08T06:00:00	7	Dirección del viento	1.61
30251	7	Sololá	710	Panajachel	8	Panajachel	4	Abril	2023-10-04T00:00:00	2024-11-08T06:00:00	1	Precipitación	0
30252	7	Sololá	710	Panajachel	8	Panajachel	4	Abril	2023-10-04T00:00:00	2024-11-08T06:00:00	8	Radiación solar	0
30253	7	Sololá	710	Panajachel	8	Panajachel	4	Abril	2023-10-04T00:00:00	2024-11-08T07:00:00	2	Temperatura media	18.3
30254	7	Sololá	710	Panajachel	8	Panajachel	4	Abril	2023-10-04T00:00:00	2024-11-08T07:00:00	4	Temperatura máxima	18.3
30255	7	Sololá	710	Panajachel	8	Panajachel	4	Abril	2023-10-04T00:00:00	2024-11-08T07:00:00	3	Temperatura mínima	16.1
30256	7	Sololá	710	Panajachel	8	Panajachel	4	Abril	2023-10-04T00:00:00	2024-11-08T07:00:00	5	Humedad	61
30257	7	Sololá	710	Panajachel	8	Panajachel	4	Abril	2023-10-04T00:00:00	2024-11-08T07:00:00	6	Velocidad del viento	0
30258	7	Sololá	710	Panajachel	8	Panajachel	4	Abril	2023-10-04T00:00:00	2024-11-08T07:00:00	7	Dirección del viento	0
30259	7	Sololá	710	Panajachel	8	Panajachel	4	Abril	2023-10-04T00:00:00	2024-11-08T07:00:00	1	Precipitación	0
30260	7	Sololá	710	Panajachel	8	Panajachel	4	Abril	2023-10-04T00:00:00	2024-11-08T07:00:00	8	Radiación solar	54
30261	7	Sololá	710	Panajachel	8	Panajachel	4	Abril	2023-10-04T00:00:00	2024-11-08T08:00:00	2	Temperatura media	20.1
30262	7	Sololá	710	Panajachel	8	Panajachel	4	Abril	2023-10-04T00:00:00	2024-11-08T08:00:00	4	Temperatura máxima	20.3
30263	7	Sololá	710	Panajachel	8	Panajachel	4	Abril	2023-10-04T00:00:00	2024-11-08T08:00:00	3	Temperatura mínima	18.3
30264	7	Sololá	710	Panajachel	8	Panajachel	4	Abril	2023-10-04T00:00:00	2024-11-08T08:00:00	5	Humedad	56
30265	7	Sololá	710	Panajachel	8	Panajachel	4	Abril	2023-10-04T00:00:00	2024-11-08T08:00:00	6	Velocidad del viento	3.2
30266	7	Sololá	710	Panajachel	8	Panajachel	4	Abril	2023-10-04T00:00:00	2024-11-08T08:00:00	7	Dirección del viento	3.22
30267	7	Sololá	710	Panajachel	8	Panajachel	4	Abril	2023-10-04T00:00:00	2024-11-08T08:00:00	1	Precipitación	0
30268	7	Sololá	710	Panajachel	8	Panajachel	4	Abril	2023-10-04T00:00:00	2024-11-08T08:00:00	8	Radiación solar	309
30269	7	Sololá	710	Panajachel	8	Panajachel	4	Abril	2023-10-04T00:00:00	2024-11-08T09:00:00	2	Temperatura media	21.4
30270	7	Sololá	710	Panajachel	8	Panajachel	4	Abril	2023-10-04T00:00:00	2024-11-08T09:00:00	4	Temperatura máxima	21.4
30271	7	Sololá	710	Panajachel	8	Panajachel	4	Abril	2023-10-04T00:00:00	2024-11-08T09:00:00	3	Temperatura mínima	20.1
30272	7	Sololá	710	Panajachel	8	Panajachel	4	Abril	2023-10-04T00:00:00	2024-11-08T09:00:00	5	Humedad	51
30273	7	Sololá	710	Panajachel	8	Panajachel	4	Abril	2023-10-04T00:00:00	2024-11-08T09:00:00	6	Velocidad del viento	11.3
30274	7	Sololá	710	Panajachel	8	Panajachel	4	Abril	2023-10-04T00:00:00	2024-11-08T09:00:00	7	Dirección del viento	11.27
30275	7	Sololá	710	Panajachel	8	Panajachel	4	Abril	2023-10-04T00:00:00	2024-11-08T09:00:00	1	Precipitación	0
30276	7	Sololá	710	Panajachel	8	Panajachel	4	Abril	2023-10-04T00:00:00	2024-11-08T09:00:00	8	Radiación solar	542
30277	7	Sololá	710	Panajachel	8	Panajachel	4	Abril	2023-10-04T00:00:00	2024-11-08T10:00:00	2	Temperatura media	22.9
30278	7	Sololá	710	Panajachel	8	Panajachel	4	Abril	2023-10-04T00:00:00	2024-11-08T10:00:00	4	Temperatura máxima	22.9
30279	7	Sololá	710	Panajachel	8	Panajachel	4	Abril	2023-10-04T00:00:00	2024-11-08T10:00:00	3	Temperatura mínima	21.3
30280	7	Sololá	710	Panajachel	8	Panajachel	4	Abril	2023-10-04T00:00:00	2024-11-08T10:00:00	5	Humedad	48
30281	7	Sololá	710	Panajachel	8	Panajachel	4	Abril	2023-10-04T00:00:00	2024-11-08T10:00:00	6	Velocidad del viento	9.7
30282	7	Sololá	710	Panajachel	8	Panajachel	4	Abril	2023-10-04T00:00:00	2024-11-08T10:00:00	7	Dirección del viento	9.66
30283	7	Sololá	710	Panajachel	8	Panajachel	4	Abril	2023-10-04T00:00:00	2024-11-08T10:00:00	1	Precipitación	0
30284	7	Sololá	710	Panajachel	8	Panajachel	4	Abril	2023-10-04T00:00:00	2024-11-08T10:00:00	8	Radiación solar	738
30285	7	Sololá	710	Panajachel	8	Panajachel	4	Abril	2023-10-04T00:00:00	2024-11-08T11:00:00	2	Temperatura media	24.4
30286	7	Sololá	710	Panajachel	8	Panajachel	4	Abril	2023-10-04T00:00:00	2024-11-08T11:00:00	4	Temperatura máxima	24.5
30287	7	Sololá	710	Panajachel	8	Panajachel	4	Abril	2023-10-04T00:00:00	2024-11-08T11:00:00	3	Temperatura mínima	22.8
30288	7	Sololá	710	Panajachel	8	Panajachel	4	Abril	2023-10-04T00:00:00	2024-11-08T11:00:00	5	Humedad	42
30289	7	Sololá	710	Panajachel	8	Panajachel	4	Abril	2023-10-04T00:00:00	2024-11-08T11:00:00	6	Velocidad del viento	9.7
30290	7	Sololá	710	Panajachel	8	Panajachel	4	Abril	2023-10-04T00:00:00	2024-11-08T11:00:00	7	Dirección del viento	9.66
30291	7	Sololá	710	Panajachel	8	Panajachel	4	Abril	2023-10-04T00:00:00	2024-11-08T11:00:00	1	Precipitación	0
30292	7	Sololá	710	Panajachel	8	Panajachel	4	Abril	2023-10-04T00:00:00	2024-11-08T11:00:00	8	Radiación solar	887
30293	7	Sololá	710	Panajachel	8	Panajachel	4	Abril	2023-10-04T00:00:00	2024-11-08T12:00:00	2	Temperatura media	26.2
30294	7	Sololá	710	Panajachel	8	Panajachel	4	Abril	2023-10-04T00:00:00	2024-11-08T12:00:00	4	Temperatura máxima	26.3
30295	7	Sololá	710	Panajachel	8	Panajachel	4	Abril	2023-10-04T00:00:00	2024-11-08T12:00:00	3	Temperatura mínima	24.3
30296	7	Sololá	710	Panajachel	8	Panajachel	4	Abril	2023-10-04T00:00:00	2024-11-08T12:00:00	5	Humedad	40
30297	7	Sololá	710	Panajachel	8	Panajachel	4	Abril	2023-10-04T00:00:00	2024-11-08T12:00:00	6	Velocidad del viento	8
30298	7	Sololá	710	Panajachel	8	Panajachel	4	Abril	2023-10-04T00:00:00	2024-11-08T12:00:00	7	Dirección del viento	8.05
30299	7	Sololá	710	Panajachel	8	Panajachel	4	Abril	2023-10-04T00:00:00	2024-11-08T12:00:00	1	Precipitación	0
30300	7	Sololá	710	Panajachel	8	Panajachel	4	Abril	2023-10-04T00:00:00	2024-11-08T12:00:00	8	Radiación solar	963
30301	7	Sololá	710	Panajachel	8	Panajachel	4	Abril	2023-10-04T00:00:00	2024-11-08T13:00:00	2	Temperatura media	25.7
30302	7	Sololá	710	Panajachel	8	Panajachel	4	Abril	2023-10-04T00:00:00	2024-11-08T13:00:00	4	Temperatura máxima	26.6
30303	7	Sololá	710	Panajachel	8	Panajachel	4	Abril	2023-10-04T00:00:00	2024-11-08T13:00:00	3	Temperatura mínima	25.7
30304	7	Sololá	710	Panajachel	8	Panajachel	4	Abril	2023-10-04T00:00:00	2024-11-08T13:00:00	5	Humedad	46
30305	7	Sololá	710	Panajachel	8	Panajachel	4	Abril	2023-10-04T00:00:00	2024-11-08T13:00:00	6	Velocidad del viento	8
30306	7	Sololá	710	Panajachel	8	Panajachel	4	Abril	2023-10-04T00:00:00	2024-11-08T13:00:00	7	Dirección del viento	8.05
30307	7	Sololá	710	Panajachel	8	Panajachel	4	Abril	2023-10-04T00:00:00	2024-11-08T13:00:00	1	Precipitación	0
30308	7	Sololá	710	Panajachel	8	Panajachel	4	Abril	2023-10-04T00:00:00	2024-11-08T13:00:00	8	Radiación solar	963
30309	7	Sololá	710	Panajachel	8	Panajachel	4	Abril	2023-10-04T00:00:00	2024-11-08T14:00:00	2	Temperatura media	24.8
30310	7	Sololá	710	Panajachel	8	Panajachel	4	Abril	2023-10-04T00:00:00	2024-11-08T14:00:00	4	Temperatura máxima	26.1
30311	7	Sololá	710	Panajachel	8	Panajachel	4	Abril	2023-10-04T00:00:00	2024-11-08T14:00:00	3	Temperatura mínima	24.4
30312	7	Sololá	710	Panajachel	8	Panajachel	4	Abril	2023-10-04T00:00:00	2024-11-08T14:00:00	5	Humedad	63
30313	7	Sololá	710	Panajachel	8	Panajachel	4	Abril	2023-10-04T00:00:00	2024-11-08T14:00:00	6	Velocidad del viento	9.7
30314	7	Sololá	710	Panajachel	8	Panajachel	4	Abril	2023-10-04T00:00:00	2024-11-08T14:00:00	7	Dirección del viento	9.66
30315	7	Sololá	710	Panajachel	8	Panajachel	4	Abril	2023-10-04T00:00:00	2024-11-08T14:00:00	1	Precipitación	0
30316	7	Sololá	710	Panajachel	8	Panajachel	4	Abril	2023-10-04T00:00:00	2024-11-08T14:00:00	8	Radiación solar	887
30317	7	Sololá	710	Panajachel	8	Panajachel	4	Abril	2023-10-04T00:00:00	2024-11-08T15:00:00	2	Temperatura media	24.4
30318	7	Sololá	710	Panajachel	8	Panajachel	4	Abril	2023-10-04T00:00:00	2024-11-08T15:00:00	4	Temperatura máxima	25.4
30319	7	Sololá	710	Panajachel	8	Panajachel	4	Abril	2023-10-04T00:00:00	2024-11-08T15:00:00	3	Temperatura mínima	24.3
30320	7	Sololá	710	Panajachel	8	Panajachel	4	Abril	2023-10-04T00:00:00	2024-11-08T15:00:00	5	Humedad	58
30321	7	Sololá	710	Panajachel	8	Panajachel	4	Abril	2023-10-04T00:00:00	2024-11-08T15:00:00	6	Velocidad del viento	4.8
30322	7	Sololá	710	Panajachel	8	Panajachel	4	Abril	2023-10-04T00:00:00	2024-11-08T15:00:00	7	Dirección del viento	4.83
30323	7	Sololá	710	Panajachel	8	Panajachel	4	Abril	2023-10-04T00:00:00	2024-11-08T15:00:00	1	Precipitación	0
30324	7	Sololá	710	Panajachel	8	Panajachel	4	Abril	2023-10-04T00:00:00	2024-11-08T15:00:00	8	Radiación solar	744
30325	7	Sololá	710	Panajachel	8	Panajachel	4	Abril	2023-10-04T00:00:00	2024-11-08T16:00:00	2	Temperatura media	23.6
30326	7	Sololá	710	Panajachel	8	Panajachel	4	Abril	2023-10-04T00:00:00	2024-11-08T16:00:00	4	Temperatura máxima	24.4
30327	7	Sololá	710	Panajachel	8	Panajachel	4	Abril	2023-10-04T00:00:00	2024-11-08T16:00:00	3	Temperatura mínima	22.9
30328	7	Sololá	710	Panajachel	8	Panajachel	4	Abril	2023-10-04T00:00:00	2024-11-08T16:00:00	5	Humedad	65
30329	7	Sololá	710	Panajachel	8	Panajachel	4	Abril	2023-10-04T00:00:00	2024-11-08T16:00:00	6	Velocidad del viento	6.4
30330	7	Sololá	710	Panajachel	8	Panajachel	4	Abril	2023-10-04T00:00:00	2024-11-08T16:00:00	7	Dirección del viento	6.44
30331	7	Sololá	710	Panajachel	8	Panajachel	4	Abril	2023-10-04T00:00:00	2024-11-08T16:00:00	1	Precipitación	0
30332	7	Sololá	710	Panajachel	8	Panajachel	4	Abril	2023-10-04T00:00:00	2024-11-08T16:00:00	8	Radiación solar	334
30333	7	Sololá	710	Panajachel	8	Panajachel	4	Abril	2023-10-04T00:00:00	2024-11-08T17:00:00	2	Temperatura media	22.9
30334	7	Sololá	710	Panajachel	8	Panajachel	4	Abril	2023-10-04T00:00:00	2024-11-08T17:00:00	4	Temperatura máxima	23.6
30335	7	Sololá	710	Panajachel	8	Panajachel	4	Abril	2023-10-04T00:00:00	2024-11-08T17:00:00	3	Temperatura mínima	22.5
30336	7	Sololá	710	Panajachel	8	Panajachel	4	Abril	2023-10-04T00:00:00	2024-11-08T17:00:00	5	Humedad	70
30337	7	Sololá	710	Panajachel	8	Panajachel	4	Abril	2023-10-04T00:00:00	2024-11-08T17:00:00	6	Velocidad del viento	3.2
30338	7	Sololá	710	Panajachel	8	Panajachel	4	Abril	2023-10-04T00:00:00	2024-11-08T17:00:00	7	Dirección del viento	3.22
30339	7	Sololá	710	Panajachel	8	Panajachel	4	Abril	2023-10-04T00:00:00	2024-11-08T17:00:00	1	Precipitación	0
30340	7	Sololá	710	Panajachel	8	Panajachel	4	Abril	2023-10-04T00:00:00	2024-11-08T17:00:00	8	Radiación solar	160
30341	7	Sololá	710	Panajachel	8	Panajachel	4	Abril	2023-10-04T00:00:00	2024-11-08T18:00:00	2	Temperatura media	22.1
30342	7	Sololá	710	Panajachel	8	Panajachel	4	Abril	2023-10-04T00:00:00	2024-11-08T18:00:00	4	Temperatura máxima	23.3
30343	7	Sololá	710	Panajachel	8	Panajachel	4	Abril	2023-10-04T00:00:00	2024-11-08T18:00:00	3	Temperatura mínima	22.1
30344	7	Sololá	710	Panajachel	8	Panajachel	4	Abril	2023-10-04T00:00:00	2024-11-08T18:00:00	5	Humedad	48
30345	7	Sololá	710	Panajachel	8	Panajachel	4	Abril	2023-10-04T00:00:00	2024-11-08T18:00:00	6	Velocidad del viento	9.7
30346	7	Sololá	710	Panajachel	8	Panajachel	4	Abril	2023-10-04T00:00:00	2024-11-08T18:00:00	7	Dirección del viento	9.66
30347	7	Sololá	710	Panajachel	8	Panajachel	4	Abril	2023-10-04T00:00:00	2024-11-08T18:00:00	1	Precipitación	0
30348	7	Sololá	710	Panajachel	8	Panajachel	4	Abril	2023-10-04T00:00:00	2024-11-08T18:00:00	8	Radiación solar	53
30349	7	Sololá	710	Panajachel	8	Panajachel	4	Abril	2023-10-04T00:00:00	2024-11-08T19:00:00	2	Temperatura media	20.5
30350	7	Sololá	710	Panajachel	8	Panajachel	4	Abril	2023-10-04T00:00:00	2024-11-08T19:00:00	4	Temperatura máxima	22.1
30351	7	Sololá	710	Panajachel	8	Panajachel	4	Abril	2023-10-04T00:00:00	2024-11-08T19:00:00	3	Temperatura mínima	20.5
30352	7	Sololá	710	Panajachel	8	Panajachel	4	Abril	2023-10-04T00:00:00	2024-11-08T19:00:00	5	Humedad	55
30353	7	Sololá	710	Panajachel	8	Panajachel	4	Abril	2023-10-04T00:00:00	2024-11-08T19:00:00	6	Velocidad del viento	6.4
30354	7	Sololá	710	Panajachel	8	Panajachel	4	Abril	2023-10-04T00:00:00	2024-11-08T19:00:00	7	Dirección del viento	6.44
30355	7	Sololá	710	Panajachel	8	Panajachel	4	Abril	2023-10-04T00:00:00	2024-11-08T19:00:00	1	Precipitación	0
30356	7	Sololá	710	Panajachel	8	Panajachel	4	Abril	2023-10-04T00:00:00	2024-11-08T19:00:00	8	Radiación solar	0
30357	7	Sololá	710	Panajachel	8	Panajachel	4	Abril	2023-10-04T00:00:00	2024-11-08T20:00:00	2	Temperatura media	19.3
30358	7	Sololá	710	Panajachel	8	Panajachel	4	Abril	2023-10-04T00:00:00	2024-11-08T20:00:00	4	Temperatura máxima	20.6
30359	7	Sololá	710	Panajachel	8	Panajachel	4	Abril	2023-10-04T00:00:00	2024-11-08T20:00:00	3	Temperatura mínima	19.3
30360	7	Sololá	710	Panajachel	8	Panajachel	4	Abril	2023-10-04T00:00:00	2024-11-08T20:00:00	5	Humedad	61
30361	7	Sololá	710	Panajachel	8	Panajachel	4	Abril	2023-10-04T00:00:00	2024-11-08T20:00:00	6	Velocidad del viento	6.4
30362	7	Sololá	710	Panajachel	8	Panajachel	4	Abril	2023-10-04T00:00:00	2024-11-08T20:00:00	7	Dirección del viento	6.44
30363	7	Sololá	710	Panajachel	8	Panajachel	4	Abril	2023-10-04T00:00:00	2024-11-08T20:00:00	1	Precipitación	0
30364	7	Sololá	710	Panajachel	8	Panajachel	4	Abril	2023-10-04T00:00:00	2024-11-08T20:00:00	8	Radiación solar	0
30365	7	Sololá	710	Panajachel	8	Panajachel	4	Abril	2023-10-04T00:00:00	2024-11-08T21:00:00	2	Temperatura media	18.8
30366	7	Sololá	710	Panajachel	8	Panajachel	4	Abril	2023-10-04T00:00:00	2024-11-08T21:00:00	4	Temperatura máxima	19.3
30367	7	Sololá	710	Panajachel	8	Panajachel	4	Abril	2023-10-04T00:00:00	2024-11-08T21:00:00	3	Temperatura mínima	18.8
30368	7	Sololá	710	Panajachel	8	Panajachel	4	Abril	2023-10-04T00:00:00	2024-11-08T21:00:00	5	Humedad	58
30369	7	Sololá	710	Panajachel	8	Panajachel	4	Abril	2023-10-04T00:00:00	2024-11-08T21:00:00	6	Velocidad del viento	9.7
30370	7	Sololá	710	Panajachel	8	Panajachel	4	Abril	2023-10-04T00:00:00	2024-11-08T21:00:00	7	Dirección del viento	9.66
30371	7	Sololá	710	Panajachel	8	Panajachel	4	Abril	2023-10-04T00:00:00	2024-11-08T21:00:00	1	Precipitación	0
30372	7	Sololá	710	Panajachel	8	Panajachel	4	Abril	2023-10-04T00:00:00	2024-11-08T21:00:00	8	Radiación solar	0
30373	7	Sololá	710	Panajachel	8	Panajachel	4	Abril	2023-10-04T00:00:00	2024-11-08T22:00:00	2	Temperatura media	18.8
30374	7	Sololá	710	Panajachel	8	Panajachel	4	Abril	2023-10-04T00:00:00	2024-11-08T22:00:00	4	Temperatura máxima	18.9
30375	7	Sololá	710	Panajachel	8	Panajachel	4	Abril	2023-10-04T00:00:00	2024-11-08T22:00:00	3	Temperatura mínima	18.7
30376	7	Sololá	710	Panajachel	8	Panajachel	4	Abril	2023-10-04T00:00:00	2024-11-08T22:00:00	5	Humedad	57
30377	7	Sololá	710	Panajachel	8	Panajachel	4	Abril	2023-10-04T00:00:00	2024-11-08T22:00:00	6	Velocidad del viento	11.3
30378	7	Sololá	710	Panajachel	8	Panajachel	4	Abril	2023-10-04T00:00:00	2024-11-08T22:00:00	7	Dirección del viento	11.27
30379	7	Sololá	710	Panajachel	8	Panajachel	4	Abril	2023-10-04T00:00:00	2024-11-08T22:00:00	1	Precipitación	0
30380	7	Sololá	710	Panajachel	8	Panajachel	4	Abril	2023-10-04T00:00:00	2024-11-08T22:00:00	8	Radiación solar	0
30381	7	Sololá	710	Panajachel	8	Panajachel	4	Abril	2023-10-04T00:00:00	2024-11-08T23:00:00	2	Temperatura media	18.6
30382	7	Sololá	710	Panajachel	8	Panajachel	4	Abril	2023-10-04T00:00:00	2024-11-08T23:00:00	4	Temperatura máxima	18.8
30383	7	Sololá	710	Panajachel	8	Panajachel	4	Abril	2023-10-04T00:00:00	2024-11-08T23:00:00	3	Temperatura mínima	18.6
30384	7	Sololá	710	Panajachel	8	Panajachel	4	Abril	2023-10-04T00:00:00	2024-11-08T23:00:00	5	Humedad	58
30385	7	Sololá	710	Panajachel	8	Panajachel	4	Abril	2023-10-04T00:00:00	2024-11-08T23:00:00	6	Velocidad del viento	12.9
30386	7	Sololá	710	Panajachel	8	Panajachel	4	Abril	2023-10-04T00:00:00	2024-11-08T23:00:00	7	Dirección del viento	12.87
30387	7	Sololá	710	Panajachel	8	Panajachel	4	Abril	2023-10-04T00:00:00	2024-11-08T23:00:00	1	Precipitación	0
30388	7	Sololá	710	Panajachel	8	Panajachel	4	Abril	2023-10-04T00:00:00	2024-11-08T23:00:00	8	Radiación solar	0
30389	7	Sololá	710	Panajachel	8	Panajachel	4	Abril	2023-11-04T00:00:00	2024-11-08T00:00:00	2	Temperatura media	18.6
30390	7	Sololá	710	Panajachel	8	Panajachel	4	Abril	2023-11-04T00:00:00	2024-11-08T00:00:00	4	Temperatura máxima	18.7
30391	7	Sololá	710	Panajachel	8	Panajachel	4	Abril	2023-11-04T00:00:00	2024-11-08T00:00:00	3	Temperatura mínima	18.4
30392	7	Sololá	710	Panajachel	8	Panajachel	4	Abril	2023-11-04T00:00:00	2024-11-08T00:00:00	5	Humedad	57
30393	7	Sololá	710	Panajachel	8	Panajachel	4	Abril	2023-11-04T00:00:00	2024-11-08T00:00:00	6	Velocidad del viento	9.7
30394	7	Sololá	710	Panajachel	8	Panajachel	4	Abril	2023-11-04T00:00:00	2024-11-08T00:00:00	7	Dirección del viento	9.66
30395	7	Sololá	710	Panajachel	8	Panajachel	4	Abril	2023-11-04T00:00:00	2024-11-08T00:00:00	1	Precipitación	0
30396	7	Sololá	710	Panajachel	8	Panajachel	4	Abril	2023-11-04T00:00:00	2024-11-08T00:00:00	8	Radiación solar	0
30397	7	Sololá	710	Panajachel	8	Panajachel	4	Abril	2023-11-04T00:00:00	2024-11-08T01:00:00	2	Temperatura media	18
30398	7	Sololá	710	Panajachel	8	Panajachel	4	Abril	2023-11-04T00:00:00	2024-11-08T01:00:00	4	Temperatura máxima	18.6
30399	7	Sololá	710	Panajachel	8	Panajachel	4	Abril	2023-11-04T00:00:00	2024-11-08T01:00:00	3	Temperatura mínima	17.9
30400	7	Sololá	710	Panajachel	8	Panajachel	4	Abril	2023-11-04T00:00:00	2024-11-08T01:00:00	5	Humedad	62
30401	7	Sololá	710	Panajachel	8	Panajachel	4	Abril	2023-11-04T00:00:00	2024-11-08T01:00:00	6	Velocidad del viento	12.9
30402	7	Sololá	710	Panajachel	8	Panajachel	4	Abril	2023-11-04T00:00:00	2024-11-08T01:00:00	7	Dirección del viento	12.87
30403	7	Sololá	710	Panajachel	8	Panajachel	4	Abril	2023-11-04T00:00:00	2024-11-08T01:00:00	1	Precipitación	0
30404	7	Sololá	710	Panajachel	8	Panajachel	4	Abril	2023-11-04T00:00:00	2024-11-08T01:00:00	8	Radiación solar	0
30405	7	Sololá	710	Panajachel	8	Panajachel	4	Abril	2023-11-04T00:00:00	2024-11-08T02:00:00	2	Temperatura media	17.8
30406	7	Sololá	710	Panajachel	8	Panajachel	4	Abril	2023-11-04T00:00:00	2024-11-08T02:00:00	4	Temperatura máxima	18
30407	7	Sololá	710	Panajachel	8	Panajachel	4	Abril	2023-11-04T00:00:00	2024-11-08T02:00:00	3	Temperatura mínima	17.8
30408	7	Sololá	710	Panajachel	8	Panajachel	4	Abril	2023-11-04T00:00:00	2024-11-08T02:00:00	5	Humedad	62
30409	7	Sololá	710	Panajachel	8	Panajachel	4	Abril	2023-11-04T00:00:00	2024-11-08T02:00:00	6	Velocidad del viento	9.7
30410	7	Sololá	710	Panajachel	8	Panajachel	4	Abril	2023-11-04T00:00:00	2024-11-08T02:00:00	7	Dirección del viento	9.66
30411	7	Sololá	710	Panajachel	8	Panajachel	4	Abril	2023-11-04T00:00:00	2024-11-08T02:00:00	1	Precipitación	0
30412	7	Sololá	710	Panajachel	8	Panajachel	4	Abril	2023-11-04T00:00:00	2024-11-08T02:00:00	8	Radiación solar	0
30413	7	Sololá	710	Panajachel	8	Panajachel	4	Abril	2023-11-04T00:00:00	2024-11-08T03:00:00	2	Temperatura media	17.7
30414	7	Sololá	710	Panajachel	8	Panajachel	4	Abril	2023-11-04T00:00:00	2024-11-08T03:00:00	4	Temperatura máxima	17.9
30415	7	Sololá	710	Panajachel	8	Panajachel	4	Abril	2023-11-04T00:00:00	2024-11-08T03:00:00	3	Temperatura mínima	17.6
30416	7	Sololá	710	Panajachel	8	Panajachel	4	Abril	2023-11-04T00:00:00	2024-11-08T03:00:00	5	Humedad	63
30417	7	Sololá	710	Panajachel	8	Panajachel	4	Abril	2023-11-04T00:00:00	2024-11-08T03:00:00	6	Velocidad del viento	11.3
30418	7	Sololá	710	Panajachel	8	Panajachel	4	Abril	2023-11-04T00:00:00	2024-11-08T03:00:00	7	Dirección del viento	11.27
30419	7	Sololá	710	Panajachel	8	Panajachel	4	Abril	2023-11-04T00:00:00	2024-11-08T03:00:00	1	Precipitación	0
30420	7	Sololá	710	Panajachel	8	Panajachel	4	Abril	2023-11-04T00:00:00	2024-11-08T03:00:00	8	Radiación solar	0
30421	7	Sololá	710	Panajachel	8	Panajachel	4	Abril	2023-11-04T00:00:00	2024-11-08T04:00:00	2	Temperatura media	17.7
30422	7	Sololá	710	Panajachel	8	Panajachel	4	Abril	2023-11-04T00:00:00	2024-11-08T04:00:00	4	Temperatura máxima	17.8
30423	7	Sololá	710	Panajachel	8	Panajachel	4	Abril	2023-11-04T00:00:00	2024-11-08T04:00:00	3	Temperatura mínima	17.6
30424	7	Sololá	710	Panajachel	8	Panajachel	4	Abril	2023-11-04T00:00:00	2024-11-08T04:00:00	5	Humedad	63
30425	7	Sololá	710	Panajachel	8	Panajachel	4	Abril	2023-11-04T00:00:00	2024-11-08T04:00:00	6	Velocidad del viento	8
30426	7	Sololá	710	Panajachel	8	Panajachel	4	Abril	2023-11-04T00:00:00	2024-11-08T04:00:00	7	Dirección del viento	8.05
30427	7	Sololá	710	Panajachel	8	Panajachel	4	Abril	2023-11-04T00:00:00	2024-11-08T04:00:00	1	Precipitación	0
30428	7	Sololá	710	Panajachel	8	Panajachel	4	Abril	2023-11-04T00:00:00	2024-11-08T04:00:00	8	Radiación solar	0
30429	7	Sololá	710	Panajachel	8	Panajachel	4	Abril	2023-11-04T00:00:00	2024-11-08T05:00:00	2	Temperatura media	16.9
30430	7	Sololá	710	Panajachel	8	Panajachel	4	Abril	2023-11-04T00:00:00	2024-11-08T05:00:00	4	Temperatura máxima	17.7
30431	7	Sololá	710	Panajachel	8	Panajachel	4	Abril	2023-11-04T00:00:00	2024-11-08T05:00:00	3	Temperatura mínima	16.9
30432	7	Sololá	710	Panajachel	8	Panajachel	4	Abril	2023-11-04T00:00:00	2024-11-08T05:00:00	5	Humedad	66
30433	7	Sololá	710	Panajachel	8	Panajachel	4	Abril	2023-11-04T00:00:00	2024-11-08T05:00:00	6	Velocidad del viento	3.2
30434	7	Sololá	710	Panajachel	8	Panajachel	4	Abril	2023-11-04T00:00:00	2024-11-08T05:00:00	7	Dirección del viento	3.22
30435	7	Sololá	710	Panajachel	8	Panajachel	4	Abril	2023-11-04T00:00:00	2024-11-08T05:00:00	1	Precipitación	0
30436	7	Sololá	710	Panajachel	8	Panajachel	4	Abril	2023-11-04T00:00:00	2024-11-08T05:00:00	8	Radiación solar	0
30437	7	Sololá	710	Panajachel	8	Panajachel	4	Abril	2023-11-04T00:00:00	2024-11-08T06:00:00	2	Temperatura media	17.6
30438	7	Sololá	710	Panajachel	8	Panajachel	4	Abril	2023-11-04T00:00:00	2024-11-08T06:00:00	4	Temperatura máxima	17.8
30439	7	Sololá	710	Panajachel	8	Panajachel	4	Abril	2023-11-04T00:00:00	2024-11-08T06:00:00	3	Temperatura mínima	16.8
30440	7	Sololá	710	Panajachel	8	Panajachel	4	Abril	2023-11-04T00:00:00	2024-11-08T06:00:00	5	Humedad	64
30441	7	Sololá	710	Panajachel	8	Panajachel	4	Abril	2023-11-04T00:00:00	2024-11-08T06:00:00	6	Velocidad del viento	4.8
30442	7	Sololá	710	Panajachel	8	Panajachel	4	Abril	2023-11-04T00:00:00	2024-11-08T06:00:00	7	Dirección del viento	4.83
30443	7	Sololá	710	Panajachel	8	Panajachel	4	Abril	2023-11-04T00:00:00	2024-11-08T06:00:00	1	Precipitación	0
30444	7	Sololá	710	Panajachel	8	Panajachel	4	Abril	2023-11-04T00:00:00	2024-11-08T06:00:00	8	Radiación solar	0
30445	7	Sololá	710	Panajachel	8	Panajachel	4	Abril	2023-11-04T00:00:00	2024-11-08T07:00:00	2	Temperatura media	18.5
30446	7	Sololá	710	Panajachel	8	Panajachel	4	Abril	2023-11-04T00:00:00	2024-11-08T07:00:00	4	Temperatura máxima	18.6
30447	7	Sololá	710	Panajachel	8	Panajachel	4	Abril	2023-11-04T00:00:00	2024-11-08T07:00:00	3	Temperatura mínima	17.1
30448	7	Sololá	710	Panajachel	8	Panajachel	4	Abril	2023-11-04T00:00:00	2024-11-08T07:00:00	5	Humedad	62
30449	7	Sololá	710	Panajachel	8	Panajachel	4	Abril	2023-11-04T00:00:00	2024-11-08T07:00:00	6	Velocidad del viento	1.6
30450	7	Sololá	710	Panajachel	8	Panajachel	4	Abril	2023-11-04T00:00:00	2024-11-08T07:00:00	7	Dirección del viento	1.61
30451	7	Sololá	710	Panajachel	8	Panajachel	4	Abril	2023-11-04T00:00:00	2024-11-08T07:00:00	1	Precipitación	0
30452	7	Sololá	710	Panajachel	8	Panajachel	4	Abril	2023-11-04T00:00:00	2024-11-08T07:00:00	8	Radiación solar	53
30453	7	Sololá	710	Panajachel	8	Panajachel	4	Abril	2023-11-04T00:00:00	2024-11-08T08:00:00	2	Temperatura media	20.3
30454	7	Sololá	710	Panajachel	8	Panajachel	4	Abril	2023-11-04T00:00:00	2024-11-08T08:00:00	4	Temperatura máxima	20.3
30455	7	Sololá	710	Panajachel	8	Panajachel	4	Abril	2023-11-04T00:00:00	2024-11-08T08:00:00	3	Temperatura mínima	18.6
30456	7	Sololá	710	Panajachel	8	Panajachel	4	Abril	2023-11-04T00:00:00	2024-11-08T08:00:00	5	Humedad	58
30457	7	Sololá	710	Panajachel	8	Panajachel	4	Abril	2023-11-04T00:00:00	2024-11-08T08:00:00	6	Velocidad del viento	6.4
30458	7	Sololá	710	Panajachel	8	Panajachel	4	Abril	2023-11-04T00:00:00	2024-11-08T08:00:00	7	Dirección del viento	6.44
30459	7	Sololá	710	Panajachel	8	Panajachel	4	Abril	2023-11-04T00:00:00	2024-11-08T08:00:00	1	Precipitación	0
30460	7	Sololá	710	Panajachel	8	Panajachel	4	Abril	2023-11-04T00:00:00	2024-11-08T08:00:00	8	Radiación solar	311
30461	7	Sololá	710	Panajachel	8	Panajachel	4	Abril	2023-11-04T00:00:00	2024-11-08T09:00:00	2	Temperatura media	22.4
30462	7	Sololá	710	Panajachel	8	Panajachel	4	Abril	2023-11-04T00:00:00	2024-11-08T09:00:00	4	Temperatura máxima	22.4
30463	7	Sololá	710	Panajachel	8	Panajachel	4	Abril	2023-11-04T00:00:00	2024-11-08T09:00:00	3	Temperatura mínima	20.3
30464	7	Sololá	710	Panajachel	8	Panajachel	4	Abril	2023-11-04T00:00:00	2024-11-08T09:00:00	5	Humedad	52
30465	7	Sololá	710	Panajachel	8	Panajachel	4	Abril	2023-11-04T00:00:00	2024-11-08T09:00:00	6	Velocidad del viento	6.4
30466	7	Sololá	710	Panajachel	8	Panajachel	4	Abril	2023-11-04T00:00:00	2024-11-08T09:00:00	7	Dirección del viento	6.44
30467	7	Sololá	710	Panajachel	8	Panajachel	4	Abril	2023-11-04T00:00:00	2024-11-08T09:00:00	1	Precipitación	0
30468	7	Sololá	710	Panajachel	8	Panajachel	4	Abril	2023-11-04T00:00:00	2024-11-08T09:00:00	8	Radiación solar	538
30469	7	Sololá	710	Panajachel	8	Panajachel	4	Abril	2023-11-04T00:00:00	2024-11-08T10:00:00	2	Temperatura media	23.8
30470	7	Sololá	710	Panajachel	8	Panajachel	4	Abril	2023-11-04T00:00:00	2024-11-08T10:00:00	4	Temperatura máxima	23.8
30471	7	Sololá	710	Panajachel	8	Panajachel	4	Abril	2023-11-04T00:00:00	2024-11-08T10:00:00	3	Temperatura mínima	22.4
30472	7	Sololá	710	Panajachel	8	Panajachel	4	Abril	2023-11-04T00:00:00	2024-11-08T10:00:00	5	Humedad	46
30473	7	Sololá	710	Panajachel	8	Panajachel	4	Abril	2023-11-04T00:00:00	2024-11-08T10:00:00	6	Velocidad del viento	8
30474	7	Sololá	710	Panajachel	8	Panajachel	4	Abril	2023-11-04T00:00:00	2024-11-08T10:00:00	7	Dirección del viento	8.05
30475	7	Sololá	710	Panajachel	8	Panajachel	4	Abril	2023-11-04T00:00:00	2024-11-08T10:00:00	1	Precipitación	0
30476	7	Sololá	710	Panajachel	8	Panajachel	4	Abril	2023-11-04T00:00:00	2024-11-08T10:00:00	8	Radiación solar	736
30477	7	Sololá	710	Panajachel	8	Panajachel	4	Abril	2023-11-04T00:00:00	2024-11-08T11:00:00	2	Temperatura media	25.7
30478	7	Sololá	710	Panajachel	8	Panajachel	4	Abril	2023-11-04T00:00:00	2024-11-08T11:00:00	4	Temperatura máxima	25.7
30479	7	Sololá	710	Panajachel	8	Panajachel	4	Abril	2023-11-04T00:00:00	2024-11-08T11:00:00	3	Temperatura mínima	23.8
30480	7	Sololá	710	Panajachel	8	Panajachel	4	Abril	2023-11-04T00:00:00	2024-11-08T11:00:00	5	Humedad	41
30481	7	Sololá	710	Panajachel	8	Panajachel	4	Abril	2023-11-04T00:00:00	2024-11-08T11:00:00	6	Velocidad del viento	9.7
30482	7	Sololá	710	Panajachel	8	Panajachel	4	Abril	2023-11-04T00:00:00	2024-11-08T11:00:00	7	Dirección del viento	9.66
30483	7	Sololá	710	Panajachel	8	Panajachel	4	Abril	2023-11-04T00:00:00	2024-11-08T11:00:00	1	Precipitación	0
30484	7	Sololá	710	Panajachel	8	Panajachel	4	Abril	2023-11-04T00:00:00	2024-11-08T11:00:00	8	Radiación solar	880
30485	7	Sololá	710	Panajachel	8	Panajachel	4	Abril	2023-11-04T00:00:00	2024-11-08T12:00:00	2	Temperatura media	26.2
30486	7	Sololá	710	Panajachel	8	Panajachel	4	Abril	2023-11-04T00:00:00	2024-11-08T12:00:00	4	Temperatura máxima	26.6
30487	7	Sololá	710	Panajachel	8	Panajachel	4	Abril	2023-11-04T00:00:00	2024-11-08T12:00:00	3	Temperatura mínima	25.3
30488	7	Sololá	710	Panajachel	8	Panajachel	4	Abril	2023-11-04T00:00:00	2024-11-08T12:00:00	5	Humedad	49
30489	7	Sololá	710	Panajachel	8	Panajachel	4	Abril	2023-11-04T00:00:00	2024-11-08T12:00:00	6	Velocidad del viento	8
30490	7	Sololá	710	Panajachel	8	Panajachel	4	Abril	2023-11-04T00:00:00	2024-11-08T12:00:00	7	Dirección del viento	8.05
30491	7	Sololá	710	Panajachel	8	Panajachel	4	Abril	2023-11-04T00:00:00	2024-11-08T12:00:00	1	Precipitación	0
30492	7	Sololá	710	Panajachel	8	Panajachel	4	Abril	2023-11-04T00:00:00	2024-11-08T12:00:00	8	Radiación solar	957
30493	7	Sololá	710	Panajachel	8	Panajachel	4	Abril	2023-11-04T00:00:00	2024-11-08T13:00:00	2	Temperatura media	24.8
30494	7	Sololá	710	Panajachel	8	Panajachel	4	Abril	2023-11-04T00:00:00	2024-11-08T13:00:00	4	Temperatura máxima	26.3
30495	7	Sololá	710	Panajachel	8	Panajachel	4	Abril	2023-11-04T00:00:00	2024-11-08T13:00:00	3	Temperatura mínima	24.3
30496	7	Sololá	710	Panajachel	8	Panajachel	4	Abril	2023-11-04T00:00:00	2024-11-08T13:00:00	5	Humedad	63
30497	7	Sololá	710	Panajachel	8	Panajachel	4	Abril	2023-11-04T00:00:00	2024-11-08T13:00:00	6	Velocidad del viento	9.7
30498	7	Sololá	710	Panajachel	8	Panajachel	4	Abril	2023-11-04T00:00:00	2024-11-08T13:00:00	7	Dirección del viento	9.66
30499	7	Sololá	710	Panajachel	8	Panajachel	4	Abril	2023-11-04T00:00:00	2024-11-08T13:00:00	1	Precipitación	0
30500	7	Sololá	710	Panajachel	8	Panajachel	4	Abril	2023-11-04T00:00:00	2024-11-08T13:00:00	8	Radiación solar	963
30501	7	Sololá	710	Panajachel	8	Panajachel	4	Abril	2023-11-04T00:00:00	2024-11-08T14:00:00	2	Temperatura media	24.7
30502	7	Sololá	710	Panajachel	8	Panajachel	4	Abril	2023-11-04T00:00:00	2024-11-08T14:00:00	4	Temperatura máxima	25.6
30503	7	Sololá	710	Panajachel	8	Panajachel	4	Abril	2023-11-04T00:00:00	2024-11-08T14:00:00	3	Temperatura mínima	24.4
30504	7	Sololá	710	Panajachel	8	Panajachel	4	Abril	2023-11-04T00:00:00	2024-11-08T14:00:00	5	Humedad	68
30505	7	Sololá	710	Panajachel	8	Panajachel	4	Abril	2023-11-04T00:00:00	2024-11-08T14:00:00	6	Velocidad del viento	4.8
30506	7	Sololá	710	Panajachel	8	Panajachel	4	Abril	2023-11-04T00:00:00	2024-11-08T14:00:00	7	Dirección del viento	4.83
30507	7	Sololá	710	Panajachel	8	Panajachel	4	Abril	2023-11-04T00:00:00	2024-11-08T14:00:00	1	Precipitación	0
30508	7	Sololá	710	Panajachel	8	Panajachel	4	Abril	2023-11-04T00:00:00	2024-11-08T14:00:00	8	Radiación solar	925
30509	7	Sololá	710	Panajachel	8	Panajachel	4	Abril	2023-11-04T00:00:00	2024-11-08T15:00:00	2	Temperatura media	23.9
30510	7	Sololá	710	Panajachel	8	Panajachel	4	Abril	2023-11-04T00:00:00	2024-11-08T15:00:00	4	Temperatura máxima	24.9
30511	7	Sololá	710	Panajachel	8	Panajachel	4	Abril	2023-11-04T00:00:00	2024-11-08T15:00:00	3	Temperatura mínima	23.2
30512	7	Sololá	710	Panajachel	8	Panajachel	4	Abril	2023-11-04T00:00:00	2024-11-08T15:00:00	5	Humedad	67
30513	7	Sololá	710	Panajachel	8	Panajachel	4	Abril	2023-11-04T00:00:00	2024-11-08T15:00:00	6	Velocidad del viento	8
30514	7	Sololá	710	Panajachel	8	Panajachel	4	Abril	2023-11-04T00:00:00	2024-11-08T15:00:00	7	Dirección del viento	8.05
30515	7	Sololá	710	Panajachel	8	Panajachel	4	Abril	2023-11-04T00:00:00	2024-11-08T15:00:00	1	Precipitación	0
30516	7	Sololá	710	Panajachel	8	Panajachel	4	Abril	2023-11-04T00:00:00	2024-11-08T15:00:00	8	Radiación solar	706
30517	7	Sololá	710	Panajachel	8	Panajachel	4	Abril	2023-11-04T00:00:00	2024-11-08T16:00:00	2	Temperatura media	23.2
30518	7	Sololá	710	Panajachel	8	Panajachel	4	Abril	2023-11-04T00:00:00	2024-11-08T16:00:00	4	Temperatura máxima	23.9
30519	7	Sololá	710	Panajachel	8	Panajachel	4	Abril	2023-11-04T00:00:00	2024-11-08T16:00:00	3	Temperatura mínima	22.9
30520	7	Sololá	710	Panajachel	8	Panajachel	4	Abril	2023-11-04T00:00:00	2024-11-08T16:00:00	5	Humedad	71
30521	7	Sololá	710	Panajachel	8	Panajachel	4	Abril	2023-11-04T00:00:00	2024-11-08T16:00:00	6	Velocidad del viento	9.7
30522	7	Sololá	710	Panajachel	8	Panajachel	4	Abril	2023-11-04T00:00:00	2024-11-08T16:00:00	7	Dirección del viento	9.66
30523	7	Sololá	710	Panajachel	8	Panajachel	4	Abril	2023-11-04T00:00:00	2024-11-08T16:00:00	1	Precipitación	0
30524	7	Sololá	710	Panajachel	8	Panajachel	4	Abril	2023-11-04T00:00:00	2024-11-08T16:00:00	8	Radiación solar	371
30525	7	Sololá	710	Panajachel	8	Panajachel	4	Abril	2023-11-04T00:00:00	2024-11-08T17:00:00	2	Temperatura media	22.3
30526	7	Sololá	710	Panajachel	8	Panajachel	4	Abril	2023-11-04T00:00:00	2024-11-08T17:00:00	4	Temperatura máxima	23.4
30527	7	Sololá	710	Panajachel	8	Panajachel	4	Abril	2023-11-04T00:00:00	2024-11-08T17:00:00	3	Temperatura mínima	22.3
30528	7	Sololá	710	Panajachel	8	Panajachel	4	Abril	2023-11-04T00:00:00	2024-11-08T17:00:00	5	Humedad	72
30529	7	Sololá	710	Panajachel	8	Panajachel	4	Abril	2023-11-04T00:00:00	2024-11-08T17:00:00	6	Velocidad del viento	8
30530	7	Sololá	710	Panajachel	8	Panajachel	4	Abril	2023-11-04T00:00:00	2024-11-08T17:00:00	7	Dirección del viento	8.05
30531	7	Sololá	710	Panajachel	8	Panajachel	4	Abril	2023-11-04T00:00:00	2024-11-08T17:00:00	1	Precipitación	0
30532	7	Sololá	710	Panajachel	8	Panajachel	4	Abril	2023-11-04T00:00:00	2024-11-08T17:00:00	8	Radiación solar	159
30533	7	Sololá	710	Panajachel	8	Panajachel	4	Abril	2023-11-04T00:00:00	2024-11-08T18:00:00	2	Temperatura media	21.3
30534	7	Sololá	710	Panajachel	8	Panajachel	4	Abril	2023-11-04T00:00:00	2024-11-08T18:00:00	4	Temperatura máxima	22.3
30535	7	Sololá	710	Panajachel	8	Panajachel	4	Abril	2023-11-04T00:00:00	2024-11-08T18:00:00	3	Temperatura mínima	21.3
30536	7	Sololá	710	Panajachel	8	Panajachel	4	Abril	2023-11-04T00:00:00	2024-11-08T18:00:00	5	Humedad	78
30537	7	Sololá	710	Panajachel	8	Panajachel	4	Abril	2023-11-04T00:00:00	2024-11-08T18:00:00	6	Velocidad del viento	3.2
30538	7	Sololá	710	Panajachel	8	Panajachel	4	Abril	2023-11-04T00:00:00	2024-11-08T18:00:00	7	Dirección del viento	3.22
30539	7	Sololá	710	Panajachel	8	Panajachel	4	Abril	2023-11-04T00:00:00	2024-11-08T18:00:00	1	Precipitación	0
30540	7	Sololá	710	Panajachel	8	Panajachel	4	Abril	2023-11-04T00:00:00	2024-11-08T18:00:00	8	Radiación solar	62
30541	7	Sololá	710	Panajachel	8	Panajachel	4	Abril	2023-11-04T00:00:00	2024-11-08T19:00:00	2	Temperatura media	20.4
30542	7	Sololá	710	Panajachel	8	Panajachel	4	Abril	2023-11-04T00:00:00	2024-11-08T19:00:00	4	Temperatura máxima	21.3
30543	7	Sololá	710	Panajachel	8	Panajachel	4	Abril	2023-11-04T00:00:00	2024-11-08T19:00:00	3	Temperatura mínima	20.4
30544	7	Sololá	710	Panajachel	8	Panajachel	4	Abril	2023-11-04T00:00:00	2024-11-08T19:00:00	5	Humedad	85
30545	7	Sololá	710	Panajachel	8	Panajachel	4	Abril	2023-11-04T00:00:00	2024-11-08T19:00:00	6	Velocidad del viento	1.6
30546	7	Sololá	710	Panajachel	8	Panajachel	4	Abril	2023-11-04T00:00:00	2024-11-08T19:00:00	7	Dirección del viento	1.61
30547	7	Sololá	710	Panajachel	8	Panajachel	4	Abril	2023-11-04T00:00:00	2024-11-08T19:00:00	1	Precipitación	0
30548	7	Sololá	710	Panajachel	8	Panajachel	4	Abril	2023-11-04T00:00:00	2024-11-08T19:00:00	8	Radiación solar	0
30549	7	Sololá	710	Panajachel	8	Panajachel	4	Abril	2023-11-04T00:00:00	2024-11-08T20:00:00	2	Temperatura media	19.7
30550	7	Sololá	710	Panajachel	8	Panajachel	4	Abril	2023-11-04T00:00:00	2024-11-08T20:00:00	4	Temperatura máxima	20.5
30551	7	Sololá	710	Panajachel	8	Panajachel	4	Abril	2023-11-04T00:00:00	2024-11-08T20:00:00	3	Temperatura mínima	19.7
30552	7	Sololá	710	Panajachel	8	Panajachel	4	Abril	2023-11-04T00:00:00	2024-11-08T20:00:00	5	Humedad	87
30553	7	Sololá	710	Panajachel	8	Panajachel	4	Abril	2023-11-04T00:00:00	2024-11-08T20:00:00	6	Velocidad del viento	0
30554	7	Sololá	710	Panajachel	8	Panajachel	4	Abril	2023-11-04T00:00:00	2024-11-08T20:00:00	7	Dirección del viento	0
30555	7	Sololá	710	Panajachel	8	Panajachel	4	Abril	2023-11-04T00:00:00	2024-11-08T20:00:00	1	Precipitación	0
30556	7	Sololá	710	Panajachel	8	Panajachel	4	Abril	2023-11-04T00:00:00	2024-11-08T20:00:00	8	Radiación solar	0
30557	7	Sololá	710	Panajachel	8	Panajachel	4	Abril	2023-11-04T00:00:00	2024-11-08T21:00:00	2	Temperatura media	20.2
30558	7	Sololá	710	Panajachel	8	Panajachel	4	Abril	2023-11-04T00:00:00	2024-11-08T21:00:00	4	Temperatura máxima	20.5
30559	7	Sololá	710	Panajachel	8	Panajachel	4	Abril	2023-11-04T00:00:00	2024-11-08T21:00:00	3	Temperatura mínima	19.5
30560	7	Sololá	710	Panajachel	8	Panajachel	4	Abril	2023-11-04T00:00:00	2024-11-08T21:00:00	5	Humedad	65
30561	7	Sololá	710	Panajachel	8	Panajachel	4	Abril	2023-11-04T00:00:00	2024-11-08T21:00:00	6	Velocidad del viento	3.2
30562	7	Sololá	710	Panajachel	8	Panajachel	4	Abril	2023-11-04T00:00:00	2024-11-08T21:00:00	7	Dirección del viento	3.22
30563	7	Sololá	710	Panajachel	8	Panajachel	4	Abril	2023-11-04T00:00:00	2024-11-08T21:00:00	1	Precipitación	0
30564	7	Sololá	710	Panajachel	8	Panajachel	4	Abril	2023-11-04T00:00:00	2024-11-08T21:00:00	8	Radiación solar	0
30565	7	Sololá	710	Panajachel	8	Panajachel	4	Abril	2023-11-04T00:00:00	2024-11-08T22:00:00	2	Temperatura media	19.4
30566	7	Sololá	710	Panajachel	8	Panajachel	4	Abril	2023-11-04T00:00:00	2024-11-08T22:00:00	4	Temperatura máxima	20.2
30567	7	Sololá	710	Panajachel	8	Panajachel	4	Abril	2023-11-04T00:00:00	2024-11-08T22:00:00	3	Temperatura mínima	19.4
30568	7	Sololá	710	Panajachel	8	Panajachel	4	Abril	2023-11-04T00:00:00	2024-11-08T22:00:00	5	Humedad	68
30569	7	Sololá	710	Panajachel	8	Panajachel	4	Abril	2023-11-04T00:00:00	2024-11-08T22:00:00	6	Velocidad del viento	1.6
30570	7	Sololá	710	Panajachel	8	Panajachel	4	Abril	2023-11-04T00:00:00	2024-11-08T22:00:00	7	Dirección del viento	1.61
30571	7	Sololá	710	Panajachel	8	Panajachel	4	Abril	2023-11-04T00:00:00	2024-11-08T22:00:00	1	Precipitación	0
30572	7	Sololá	710	Panajachel	8	Panajachel	4	Abril	2023-11-04T00:00:00	2024-11-08T22:00:00	8	Radiación solar	0
30573	7	Sololá	710	Panajachel	8	Panajachel	4	Abril	2023-11-04T00:00:00	2024-11-08T23:00:00	2	Temperatura media	18.6
30574	7	Sololá	710	Panajachel	8	Panajachel	4	Abril	2023-11-04T00:00:00	2024-11-08T23:00:00	4	Temperatura máxima	19.5
30575	7	Sololá	710	Panajachel	8	Panajachel	4	Abril	2023-11-04T00:00:00	2024-11-08T23:00:00	3	Temperatura mínima	18.6
30576	7	Sololá	710	Panajachel	8	Panajachel	4	Abril	2023-11-04T00:00:00	2024-11-08T23:00:00	5	Humedad	71
30577	7	Sololá	710	Panajachel	8	Panajachel	4	Abril	2023-11-04T00:00:00	2024-11-08T23:00:00	6	Velocidad del viento	1.6
30578	7	Sololá	710	Panajachel	8	Panajachel	4	Abril	2023-11-04T00:00:00	2024-11-08T23:00:00	7	Dirección del viento	1.61
30579	7	Sololá	710	Panajachel	8	Panajachel	4	Abril	2023-11-04T00:00:00	2024-11-08T23:00:00	1	Precipitación	0
30580	7	Sololá	710	Panajachel	8	Panajachel	4	Abril	2023-11-04T00:00:00	2024-11-08T23:00:00	8	Radiación solar	0
30581	7	Sololá	710	Panajachel	8	Panajachel	4	Abril	2023-12-04T00:00:00	2024-11-08T00:00:00	2	Temperatura media	18.1
30582	7	Sololá	710	Panajachel	8	Panajachel	4	Abril	2023-12-04T00:00:00	2024-11-08T00:00:00	4	Temperatura máxima	18.9
30583	7	Sololá	710	Panajachel	8	Panajachel	4	Abril	2023-12-04T00:00:00	2024-11-08T00:00:00	3	Temperatura mínima	18.1
30584	7	Sololá	710	Panajachel	8	Panajachel	4	Abril	2023-12-04T00:00:00	2024-11-08T00:00:00	5	Humedad	69
30585	7	Sololá	710	Panajachel	8	Panajachel	4	Abril	2023-12-04T00:00:00	2024-11-08T00:00:00	6	Velocidad del viento	1.6
30586	7	Sololá	710	Panajachel	8	Panajachel	4	Abril	2023-12-04T00:00:00	2024-11-08T00:00:00	7	Dirección del viento	1.61
30587	7	Sololá	710	Panajachel	8	Panajachel	4	Abril	2023-12-04T00:00:00	2024-11-08T00:00:00	1	Precipitación	0
30588	7	Sololá	710	Panajachel	8	Panajachel	4	Abril	2023-12-04T00:00:00	2024-11-08T00:00:00	8	Radiación solar	0
30589	7	Sololá	710	Panajachel	8	Panajachel	4	Abril	2023-12-04T00:00:00	2024-11-08T01:00:00	2	Temperatura media	18.3
30590	7	Sololá	710	Panajachel	8	Panajachel	4	Abril	2023-12-04T00:00:00	2024-11-08T01:00:00	4	Temperatura máxima	18.6
30591	7	Sololá	710	Panajachel	8	Panajachel	4	Abril	2023-12-04T00:00:00	2024-11-08T01:00:00	3	Temperatura mínima	18
30592	7	Sololá	710	Panajachel	8	Panajachel	4	Abril	2023-12-04T00:00:00	2024-11-08T01:00:00	5	Humedad	68
30593	7	Sololá	710	Panajachel	8	Panajachel	4	Abril	2023-12-04T00:00:00	2024-11-08T01:00:00	6	Velocidad del viento	8
30594	7	Sololá	710	Panajachel	8	Panajachel	4	Abril	2023-12-04T00:00:00	2024-11-08T01:00:00	7	Dirección del viento	8.05
30595	7	Sololá	710	Panajachel	8	Panajachel	4	Abril	2023-12-04T00:00:00	2024-11-08T01:00:00	1	Precipitación	0
30596	7	Sololá	710	Panajachel	8	Panajachel	4	Abril	2023-12-04T00:00:00	2024-11-08T01:00:00	8	Radiación solar	0
30597	7	Sololá	710	Panajachel	8	Panajachel	4	Abril	2023-12-04T00:00:00	2024-11-08T02:00:00	2	Temperatura media	18.1
30598	7	Sololá	710	Panajachel	8	Panajachel	4	Abril	2023-12-04T00:00:00	2024-11-08T02:00:00	4	Temperatura máxima	18.3
30599	7	Sololá	710	Panajachel	8	Panajachel	4	Abril	2023-12-04T00:00:00	2024-11-08T02:00:00	3	Temperatura mínima	18
30600	7	Sololá	710	Panajachel	8	Panajachel	4	Abril	2023-12-04T00:00:00	2024-11-08T02:00:00	5	Humedad	67
30601	7	Sololá	710	Panajachel	8	Panajachel	4	Abril	2023-12-04T00:00:00	2024-11-08T02:00:00	6	Velocidad del viento	4.8
30602	7	Sololá	710	Panajachel	8	Panajachel	4	Abril	2023-12-04T00:00:00	2024-11-08T02:00:00	7	Dirección del viento	4.83
30603	7	Sololá	710	Panajachel	8	Panajachel	4	Abril	2023-12-04T00:00:00	2024-11-08T02:00:00	1	Precipitación	0
30604	7	Sololá	710	Panajachel	8	Panajachel	4	Abril	2023-12-04T00:00:00	2024-11-08T02:00:00	8	Radiación solar	0
30605	7	Sololá	710	Panajachel	8	Panajachel	4	Abril	2023-12-04T00:00:00	2024-11-08T03:00:00	2	Temperatura media	17
30606	7	Sololá	710	Panajachel	8	Panajachel	4	Abril	2023-12-04T00:00:00	2024-11-08T03:00:00	4	Temperatura máxima	18.1
30607	7	Sololá	710	Panajachel	8	Panajachel	4	Abril	2023-12-04T00:00:00	2024-11-08T03:00:00	3	Temperatura mínima	17
30608	7	Sololá	710	Panajachel	8	Panajachel	4	Abril	2023-12-04T00:00:00	2024-11-08T03:00:00	5	Humedad	71
30609	7	Sololá	710	Panajachel	8	Panajachel	4	Abril	2023-12-04T00:00:00	2024-11-08T03:00:00	6	Velocidad del viento	0
30610	7	Sololá	710	Panajachel	8	Panajachel	4	Abril	2023-12-04T00:00:00	2024-11-08T03:00:00	7	Dirección del viento	0
30611	7	Sololá	710	Panajachel	8	Panajachel	4	Abril	2023-12-04T00:00:00	2024-11-08T03:00:00	1	Precipitación	0
30612	7	Sololá	710	Panajachel	8	Panajachel	4	Abril	2023-12-04T00:00:00	2024-11-08T03:00:00	8	Radiación solar	0
30613	7	Sololá	710	Panajachel	8	Panajachel	4	Abril	2023-12-04T00:00:00	2024-11-08T04:00:00	2	Temperatura media	15.2
30614	7	Sololá	710	Panajachel	8	Panajachel	4	Abril	2023-12-04T00:00:00	2024-11-08T04:00:00	4	Temperatura máxima	17
30615	7	Sololá	710	Panajachel	8	Panajachel	4	Abril	2023-12-04T00:00:00	2024-11-08T04:00:00	3	Temperatura mínima	15.1
30616	7	Sololá	710	Panajachel	8	Panajachel	4	Abril	2023-12-04T00:00:00	2024-11-08T04:00:00	5	Humedad	75
30617	7	Sololá	710	Panajachel	8	Panajachel	4	Abril	2023-12-04T00:00:00	2024-11-08T04:00:00	6	Velocidad del viento	0
30618	7	Sololá	710	Panajachel	8	Panajachel	4	Abril	2023-12-04T00:00:00	2024-11-08T04:00:00	7	Dirección del viento	0
30619	7	Sololá	710	Panajachel	8	Panajachel	4	Abril	2023-12-04T00:00:00	2024-11-08T04:00:00	1	Precipitación	0
30620	7	Sololá	710	Panajachel	8	Panajachel	4	Abril	2023-12-04T00:00:00	2024-11-08T04:00:00	8	Radiación solar	0
30621	7	Sololá	710	Panajachel	8	Panajachel	4	Abril	2023-12-04T00:00:00	2024-11-08T05:00:00	2	Temperatura media	15.4
30622	7	Sololá	710	Panajachel	8	Panajachel	4	Abril	2023-12-04T00:00:00	2024-11-08T05:00:00	4	Temperatura máxima	15.6
30623	7	Sololá	710	Panajachel	8	Panajachel	4	Abril	2023-12-04T00:00:00	2024-11-08T05:00:00	3	Temperatura mínima	15.1
30624	7	Sololá	710	Panajachel	8	Panajachel	4	Abril	2023-12-04T00:00:00	2024-11-08T05:00:00	5	Humedad	71
30625	7	Sololá	710	Panajachel	8	Panajachel	4	Abril	2023-12-04T00:00:00	2024-11-08T05:00:00	6	Velocidad del viento	0
30626	7	Sololá	710	Panajachel	8	Panajachel	4	Abril	2023-12-04T00:00:00	2024-11-08T05:00:00	7	Dirección del viento	0
30627	7	Sololá	710	Panajachel	8	Panajachel	4	Abril	2023-12-04T00:00:00	2024-11-08T05:00:00	1	Precipitación	0
30628	7	Sololá	710	Panajachel	8	Panajachel	4	Abril	2023-12-04T00:00:00	2024-11-08T05:00:00	8	Radiación solar	0
30629	7	Sololá	710	Panajachel	8	Panajachel	4	Abril	2023-12-04T00:00:00	2024-11-08T06:00:00	2	Temperatura media	16.3
30630	7	Sololá	710	Panajachel	8	Panajachel	4	Abril	2023-12-04T00:00:00	2024-11-08T06:00:00	4	Temperatura máxima	16.4
30631	7	Sololá	710	Panajachel	8	Panajachel	4	Abril	2023-12-04T00:00:00	2024-11-08T06:00:00	3	Temperatura mínima	15.4
30632	7	Sololá	710	Panajachel	8	Panajachel	4	Abril	2023-12-04T00:00:00	2024-11-08T06:00:00	5	Humedad	69
30633	7	Sololá	710	Panajachel	8	Panajachel	4	Abril	2023-12-04T00:00:00	2024-11-08T06:00:00	6	Velocidad del viento	1.6
30634	7	Sololá	710	Panajachel	8	Panajachel	4	Abril	2023-12-04T00:00:00	2024-11-08T06:00:00	7	Dirección del viento	1.61
30635	7	Sololá	710	Panajachel	8	Panajachel	4	Abril	2023-12-04T00:00:00	2024-11-08T06:00:00	1	Precipitación	0
30636	7	Sololá	710	Panajachel	8	Panajachel	4	Abril	2023-12-04T00:00:00	2024-11-08T06:00:00	8	Radiación solar	0
30637	7	Sololá	710	Panajachel	8	Panajachel	4	Abril	2023-12-04T00:00:00	2024-11-08T07:00:00	2	Temperatura media	17.2
30638	7	Sololá	710	Panajachel	8	Panajachel	4	Abril	2023-12-04T00:00:00	2024-11-08T07:00:00	4	Temperatura máxima	17.2
30639	7	Sololá	710	Panajachel	8	Panajachel	4	Abril	2023-12-04T00:00:00	2024-11-08T07:00:00	3	Temperatura mínima	16.2
30640	7	Sololá	710	Panajachel	8	Panajachel	4	Abril	2023-12-04T00:00:00	2024-11-08T07:00:00	5	Humedad	68
30641	7	Sololá	710	Panajachel	8	Panajachel	4	Abril	2023-12-04T00:00:00	2024-11-08T07:00:00	6	Velocidad del viento	0
30642	7	Sololá	710	Panajachel	8	Panajachel	4	Abril	2023-12-04T00:00:00	2024-11-08T07:00:00	7	Dirección del viento	0
30643	7	Sololá	710	Panajachel	8	Panajachel	4	Abril	2023-12-04T00:00:00	2024-11-08T07:00:00	1	Precipitación	0
30644	7	Sololá	710	Panajachel	8	Panajachel	4	Abril	2023-12-04T00:00:00	2024-11-08T07:00:00	8	Radiación solar	63
30645	7	Sololá	710	Panajachel	8	Panajachel	4	Abril	2023-12-04T00:00:00	2024-11-08T08:00:00	2	Temperatura media	19.3
30646	7	Sololá	710	Panajachel	8	Panajachel	4	Abril	2023-12-04T00:00:00	2024-11-08T08:00:00	4	Temperatura máxima	19.3
30647	7	Sololá	710	Panajachel	8	Panajachel	4	Abril	2023-12-04T00:00:00	2024-11-08T08:00:00	3	Temperatura mínima	17.2
30648	7	Sololá	710	Panajachel	8	Panajachel	4	Abril	2023-12-04T00:00:00	2024-11-08T08:00:00	5	Humedad	62
30649	7	Sololá	710	Panajachel	8	Panajachel	4	Abril	2023-12-04T00:00:00	2024-11-08T08:00:00	6	Velocidad del viento	0
30650	7	Sololá	710	Panajachel	8	Panajachel	4	Abril	2023-12-04T00:00:00	2024-11-08T08:00:00	7	Dirección del viento	0
30651	7	Sololá	710	Panajachel	8	Panajachel	4	Abril	2023-12-04T00:00:00	2024-11-08T08:00:00	1	Precipitación	0
30652	7	Sololá	710	Panajachel	8	Panajachel	4	Abril	2023-12-04T00:00:00	2024-11-08T08:00:00	8	Radiación solar	274
30653	7	Sololá	710	Panajachel	8	Panajachel	4	Abril	2023-12-04T00:00:00	2024-11-08T09:00:00	2	Temperatura media	19.4
30654	7	Sololá	710	Panajachel	8	Panajachel	4	Abril	2023-12-04T00:00:00	2024-11-08T09:00:00	4	Temperatura máxima	19.7
30655	7	Sololá	710	Panajachel	8	Panajachel	4	Abril	2023-12-04T00:00:00	2024-11-08T09:00:00	3	Temperatura mínima	19.2
30656	7	Sololá	710	Panajachel	8	Panajachel	4	Abril	2023-12-04T00:00:00	2024-11-08T09:00:00	5	Humedad	66
30657	7	Sololá	710	Panajachel	8	Panajachel	4	Abril	2023-12-04T00:00:00	2024-11-08T09:00:00	6	Velocidad del viento	0
30658	7	Sololá	710	Panajachel	8	Panajachel	4	Abril	2023-12-04T00:00:00	2024-11-08T09:00:00	7	Dirección del viento	0
30659	7	Sololá	710	Panajachel	8	Panajachel	4	Abril	2023-12-04T00:00:00	2024-11-08T09:00:00	1	Precipitación	0
30660	7	Sololá	710	Panajachel	8	Panajachel	4	Abril	2023-12-04T00:00:00	2024-11-08T09:00:00	8	Radiación solar	295
30661	7	Sololá	710	Panajachel	8	Panajachel	4	Abril	2023-12-04T00:00:00	2024-11-08T10:00:00	2	Temperatura media	21.1
30662	7	Sololá	710	Panajachel	8	Panajachel	4	Abril	2023-12-04T00:00:00	2024-11-08T10:00:00	4	Temperatura máxima	21.7
30663	7	Sololá	710	Panajachel	8	Panajachel	4	Abril	2023-12-04T00:00:00	2024-11-08T10:00:00	3	Temperatura mínima	19.4
30664	7	Sololá	710	Panajachel	8	Panajachel	4	Abril	2023-12-04T00:00:00	2024-11-08T10:00:00	5	Humedad	63
30665	7	Sololá	710	Panajachel	8	Panajachel	4	Abril	2023-12-04T00:00:00	2024-11-08T10:00:00	6	Velocidad del viento	0
30666	7	Sololá	710	Panajachel	8	Panajachel	4	Abril	2023-12-04T00:00:00	2024-11-08T10:00:00	7	Dirección del viento	0
30667	7	Sololá	710	Panajachel	8	Panajachel	4	Abril	2023-12-04T00:00:00	2024-11-08T10:00:00	1	Precipitación	0
30668	7	Sololá	710	Panajachel	8	Panajachel	4	Abril	2023-12-04T00:00:00	2024-11-08T10:00:00	8	Radiación solar	617
30669	7	Sololá	710	Panajachel	8	Panajachel	4	Abril	2023-12-04T00:00:00	2024-11-08T11:00:00	2	Temperatura media	21.6
30670	7	Sololá	710	Panajachel	8	Panajachel	4	Abril	2023-12-04T00:00:00	2024-11-08T11:00:00	4	Temperatura máxima	21.6
30671	7	Sololá	710	Panajachel	8	Panajachel	4	Abril	2023-12-04T00:00:00	2024-11-08T11:00:00	3	Temperatura mínima	20.6
30672	7	Sololá	710	Panajachel	8	Panajachel	4	Abril	2023-12-04T00:00:00	2024-11-08T11:00:00	5	Humedad	55
30673	7	Sololá	710	Panajachel	8	Panajachel	4	Abril	2023-12-04T00:00:00	2024-11-08T11:00:00	6	Velocidad del viento	0
30674	7	Sololá	710	Panajachel	8	Panajachel	4	Abril	2023-12-04T00:00:00	2024-11-08T11:00:00	7	Dirección del viento	0
30675	7	Sololá	710	Panajachel	8	Panajachel	4	Abril	2023-12-04T00:00:00	2024-11-08T11:00:00	1	Precipitación	0
30676	7	Sololá	710	Panajachel	8	Panajachel	4	Abril	2023-12-04T00:00:00	2024-11-08T11:00:00	8	Radiación solar	337
30677	7	Sololá	710	Panajachel	8	Panajachel	4	Abril	2023-12-04T00:00:00	2024-11-08T12:00:00	2	Temperatura media	23.7
30678	7	Sololá	710	Panajachel	8	Panajachel	4	Abril	2023-12-04T00:00:00	2024-11-08T12:00:00	4	Temperatura máxima	23.7
30679	7	Sololá	710	Panajachel	8	Panajachel	4	Abril	2023-12-04T00:00:00	2024-11-08T12:00:00	3	Temperatura mínima	21.6
30680	7	Sololá	710	Panajachel	8	Panajachel	4	Abril	2023-12-04T00:00:00	2024-11-08T12:00:00	5	Humedad	54
30681	7	Sololá	710	Panajachel	8	Panajachel	4	Abril	2023-12-04T00:00:00	2024-11-08T12:00:00	6	Velocidad del viento	0
30682	7	Sololá	710	Panajachel	8	Panajachel	4	Abril	2023-12-04T00:00:00	2024-11-08T12:00:00	7	Dirección del viento	0
30683	7	Sololá	710	Panajachel	8	Panajachel	4	Abril	2023-12-04T00:00:00	2024-11-08T12:00:00	1	Precipitación	0
30684	7	Sololá	710	Panajachel	8	Panajachel	4	Abril	2023-12-04T00:00:00	2024-11-08T12:00:00	8	Radiación solar	846
30685	7	Sololá	710	Panajachel	8	Panajachel	4	Abril	2023-12-04T00:00:00	2024-11-08T13:00:00	2	Temperatura media	22.3
30686	7	Sololá	710	Panajachel	8	Panajachel	4	Abril	2023-12-04T00:00:00	2024-11-08T13:00:00	4	Temperatura máxima	23.7
30687	7	Sololá	710	Panajachel	8	Panajachel	4	Abril	2023-12-04T00:00:00	2024-11-08T13:00:00	3	Temperatura mínima	21.9
30688	7	Sololá	710	Panajachel	8	Panajachel	4	Abril	2023-12-04T00:00:00	2024-11-08T13:00:00	5	Humedad	72
30689	7	Sololá	710	Panajachel	8	Panajachel	4	Abril	2023-12-04T00:00:00	2024-11-08T13:00:00	6	Velocidad del viento	6.4
30690	7	Sololá	710	Panajachel	8	Panajachel	4	Abril	2023-12-04T00:00:00	2024-11-08T13:00:00	7	Dirección del viento	6.44
30691	7	Sololá	710	Panajachel	8	Panajachel	4	Abril	2023-12-04T00:00:00	2024-11-08T13:00:00	1	Precipitación	0
30692	7	Sololá	710	Panajachel	8	Panajachel	4	Abril	2023-12-04T00:00:00	2024-11-08T13:00:00	8	Radiación solar	730
30693	7	Sololá	710	Panajachel	8	Panajachel	4	Abril	2023-12-04T00:00:00	2024-11-08T14:00:00	2	Temperatura media	22.3
30694	7	Sololá	710	Panajachel	8	Panajachel	4	Abril	2023-12-04T00:00:00	2024-11-08T14:00:00	4	Temperatura máxima	23
30695	7	Sololá	710	Panajachel	8	Panajachel	4	Abril	2023-12-04T00:00:00	2024-11-08T14:00:00	3	Temperatura mínima	21.8
30696	7	Sololá	710	Panajachel	8	Panajachel	4	Abril	2023-12-04T00:00:00	2024-11-08T14:00:00	5	Humedad	69
30697	7	Sololá	710	Panajachel	8	Panajachel	4	Abril	2023-12-04T00:00:00	2024-11-08T14:00:00	6	Velocidad del viento	9.7
30698	7	Sololá	710	Panajachel	8	Panajachel	4	Abril	2023-12-04T00:00:00	2024-11-08T14:00:00	7	Dirección del viento	9.66
30699	7	Sololá	710	Panajachel	8	Panajachel	4	Abril	2023-12-04T00:00:00	2024-11-08T14:00:00	1	Precipitación	0
30700	7	Sololá	710	Panajachel	8	Panajachel	4	Abril	2023-12-04T00:00:00	2024-11-08T14:00:00	8	Radiación solar	728
30701	7	Sololá	710	Panajachel	8	Panajachel	4	Abril	2023-12-04T00:00:00	2024-11-08T15:00:00	2	Temperatura media	23.3
30702	7	Sololá	710	Panajachel	8	Panajachel	4	Abril	2023-12-04T00:00:00	2024-11-08T15:00:00	4	Temperatura máxima	23.6
30703	7	Sololá	710	Panajachel	8	Panajachel	4	Abril	2023-12-04T00:00:00	2024-11-08T15:00:00	3	Temperatura mínima	22.3
30704	7	Sololá	710	Panajachel	8	Panajachel	4	Abril	2023-12-04T00:00:00	2024-11-08T15:00:00	5	Humedad	70
30705	7	Sololá	710	Panajachel	8	Panajachel	4	Abril	2023-12-04T00:00:00	2024-11-08T15:00:00	6	Velocidad del viento	6.4
30706	7	Sololá	710	Panajachel	8	Panajachel	4	Abril	2023-12-04T00:00:00	2024-11-08T15:00:00	7	Dirección del viento	6.44
30707	7	Sololá	710	Panajachel	8	Panajachel	4	Abril	2023-12-04T00:00:00	2024-11-08T15:00:00	1	Precipitación	0
30708	7	Sololá	710	Panajachel	8	Panajachel	4	Abril	2023-12-04T00:00:00	2024-11-08T15:00:00	8	Radiación solar	683
30709	7	Sololá	710	Panajachel	8	Panajachel	4	Abril	2023-12-04T00:00:00	2024-11-08T16:00:00	2	Temperatura media	21.9
30710	7	Sololá	710	Panajachel	8	Panajachel	4	Abril	2023-12-04T00:00:00	2024-11-08T16:00:00	4	Temperatura máxima	23.3
30711	7	Sololá	710	Panajachel	8	Panajachel	4	Abril	2023-12-04T00:00:00	2024-11-08T16:00:00	3	Temperatura mínima	21.7
30712	7	Sololá	710	Panajachel	8	Panajachel	4	Abril	2023-12-04T00:00:00	2024-11-08T16:00:00	5	Humedad	71
30713	7	Sololá	710	Panajachel	8	Panajachel	4	Abril	2023-12-04T00:00:00	2024-11-08T16:00:00	6	Velocidad del viento	1.6
30714	7	Sololá	710	Panajachel	8	Panajachel	4	Abril	2023-12-04T00:00:00	2024-11-08T16:00:00	7	Dirección del viento	1.61
30715	7	Sololá	710	Panajachel	8	Panajachel	4	Abril	2023-12-04T00:00:00	2024-11-08T16:00:00	1	Precipitación	0
30716	7	Sololá	710	Panajachel	8	Panajachel	4	Abril	2023-12-04T00:00:00	2024-11-08T16:00:00	8	Radiación solar	155
30717	7	Sololá	710	Panajachel	8	Panajachel	4	Abril	2023-12-04T00:00:00	2024-11-08T17:00:00	2	Temperatura media	21.7
30718	7	Sololá	710	Panajachel	8	Panajachel	4	Abril	2023-12-04T00:00:00	2024-11-08T17:00:00	4	Temperatura máxima	22.3
30719	7	Sololá	710	Panajachel	8	Panajachel	4	Abril	2023-12-04T00:00:00	2024-11-08T17:00:00	3	Temperatura mínima	21.7
30720	7	Sololá	710	Panajachel	8	Panajachel	4	Abril	2023-12-04T00:00:00	2024-11-08T17:00:00	5	Humedad	74
30721	7	Sololá	710	Panajachel	8	Panajachel	4	Abril	2023-12-04T00:00:00	2024-11-08T17:00:00	6	Velocidad del viento	1.6
30722	7	Sololá	710	Panajachel	8	Panajachel	4	Abril	2023-12-04T00:00:00	2024-11-08T17:00:00	7	Dirección del viento	1.61
30723	7	Sololá	710	Panajachel	8	Panajachel	4	Abril	2023-12-04T00:00:00	2024-11-08T17:00:00	1	Precipitación	0
30724	7	Sololá	710	Panajachel	8	Panajachel	4	Abril	2023-12-04T00:00:00	2024-11-08T17:00:00	8	Radiación solar	133
30725	7	Sololá	710	Panajachel	8	Panajachel	4	Abril	2023-12-04T00:00:00	2024-11-08T18:00:00	2	Temperatura media	20.8
30726	7	Sololá	710	Panajachel	8	Panajachel	4	Abril	2023-12-04T00:00:00	2024-11-08T18:00:00	4	Temperatura máxima	21.6
30727	7	Sololá	710	Panajachel	8	Panajachel	4	Abril	2023-12-04T00:00:00	2024-11-08T18:00:00	3	Temperatura mínima	20.8
30728	7	Sololá	710	Panajachel	8	Panajachel	4	Abril	2023-12-04T00:00:00	2024-11-08T18:00:00	5	Humedad	81
30729	7	Sololá	710	Panajachel	8	Panajachel	4	Abril	2023-12-04T00:00:00	2024-11-08T18:00:00	6	Velocidad del viento	1.6
30730	7	Sololá	710	Panajachel	8	Panajachel	4	Abril	2023-12-04T00:00:00	2024-11-08T18:00:00	7	Dirección del viento	1.61
30731	7	Sololá	710	Panajachel	8	Panajachel	4	Abril	2023-12-04T00:00:00	2024-11-08T18:00:00	1	Precipitación	0
30732	7	Sololá	710	Panajachel	8	Panajachel	4	Abril	2023-12-04T00:00:00	2024-11-08T18:00:00	8	Radiación solar	47
30733	7	Sololá	710	Panajachel	8	Panajachel	4	Abril	2023-12-04T00:00:00	2024-11-08T19:00:00	2	Temperatura media	20.1
30734	7	Sololá	710	Panajachel	8	Panajachel	4	Abril	2023-12-04T00:00:00	2024-11-08T19:00:00	4	Temperatura máxima	20.8
30735	7	Sololá	710	Panajachel	8	Panajachel	4	Abril	2023-12-04T00:00:00	2024-11-08T19:00:00	3	Temperatura mínima	20.1
30736	7	Sololá	710	Panajachel	8	Panajachel	4	Abril	2023-12-04T00:00:00	2024-11-08T19:00:00	5	Humedad	83
30737	7	Sololá	710	Panajachel	8	Panajachel	4	Abril	2023-12-04T00:00:00	2024-11-08T19:00:00	6	Velocidad del viento	0
30738	7	Sololá	710	Panajachel	8	Panajachel	4	Abril	2023-12-04T00:00:00	2024-11-08T19:00:00	7	Dirección del viento	0
30739	7	Sololá	710	Panajachel	8	Panajachel	4	Abril	2023-12-04T00:00:00	2024-11-08T19:00:00	1	Precipitación	0
30740	7	Sololá	710	Panajachel	8	Panajachel	4	Abril	2023-12-04T00:00:00	2024-11-08T19:00:00	8	Radiación solar	0
30741	7	Sololá	710	Panajachel	8	Panajachel	4	Abril	2023-12-04T00:00:00	2024-11-08T20:00:00	2	Temperatura media	19.6
30742	7	Sololá	710	Panajachel	8	Panajachel	4	Abril	2023-12-04T00:00:00	2024-11-08T20:00:00	4	Temperatura máxima	20.2
30743	7	Sololá	710	Panajachel	8	Panajachel	4	Abril	2023-12-04T00:00:00	2024-11-08T20:00:00	3	Temperatura mínima	19.6
30744	7	Sololá	710	Panajachel	8	Panajachel	4	Abril	2023-12-04T00:00:00	2024-11-08T20:00:00	5	Humedad	88
30745	7	Sololá	710	Panajachel	8	Panajachel	4	Abril	2023-12-04T00:00:00	2024-11-08T20:00:00	6	Velocidad del viento	0
30746	7	Sololá	710	Panajachel	8	Panajachel	4	Abril	2023-12-04T00:00:00	2024-11-08T20:00:00	7	Dirección del viento	0
30747	7	Sololá	710	Panajachel	8	Panajachel	4	Abril	2023-12-04T00:00:00	2024-11-08T20:00:00	1	Precipitación	0
30748	7	Sololá	710	Panajachel	8	Panajachel	4	Abril	2023-12-04T00:00:00	2024-11-08T20:00:00	8	Radiación solar	0
30749	7	Sololá	710	Panajachel	8	Panajachel	4	Abril	2023-12-04T00:00:00	2024-11-08T21:00:00	2	Temperatura media	19.4
30750	7	Sololá	710	Panajachel	8	Panajachel	4	Abril	2023-12-04T00:00:00	2024-11-08T21:00:00	4	Temperatura máxima	19.6
30751	7	Sololá	710	Panajachel	8	Panajachel	4	Abril	2023-12-04T00:00:00	2024-11-08T21:00:00	3	Temperatura mínima	19.3
30752	7	Sololá	710	Panajachel	8	Panajachel	4	Abril	2023-12-04T00:00:00	2024-11-08T21:00:00	5	Humedad	84
30753	7	Sololá	710	Panajachel	8	Panajachel	4	Abril	2023-12-04T00:00:00	2024-11-08T21:00:00	6	Velocidad del viento	0
30754	7	Sololá	710	Panajachel	8	Panajachel	4	Abril	2023-12-04T00:00:00	2024-11-08T21:00:00	7	Dirección del viento	0
30755	7	Sololá	710	Panajachel	8	Panajachel	4	Abril	2023-12-04T00:00:00	2024-11-08T21:00:00	1	Precipitación	0
30756	7	Sololá	710	Panajachel	8	Panajachel	4	Abril	2023-12-04T00:00:00	2024-11-08T21:00:00	8	Radiación solar	0
30757	7	Sololá	710	Panajachel	8	Panajachel	4	Abril	2023-12-04T00:00:00	2024-11-08T22:00:00	2	Temperatura media	18.9
30758	7	Sololá	710	Panajachel	8	Panajachel	4	Abril	2023-12-04T00:00:00	2024-11-08T22:00:00	4	Temperatura máxima	19.4
30759	7	Sololá	710	Panajachel	8	Panajachel	4	Abril	2023-12-04T00:00:00	2024-11-08T22:00:00	3	Temperatura mínima	18.9
30760	7	Sololá	710	Panajachel	8	Panajachel	4	Abril	2023-12-04T00:00:00	2024-11-08T22:00:00	5	Humedad	85
30761	7	Sololá	710	Panajachel	8	Panajachel	4	Abril	2023-12-04T00:00:00	2024-11-08T22:00:00	6	Velocidad del viento	0
30762	7	Sololá	710	Panajachel	8	Panajachel	4	Abril	2023-12-04T00:00:00	2024-11-08T22:00:00	7	Dirección del viento	0
30763	7	Sololá	710	Panajachel	8	Panajachel	4	Abril	2023-12-04T00:00:00	2024-11-08T22:00:00	1	Precipitación	0
30764	7	Sololá	710	Panajachel	8	Panajachel	4	Abril	2023-12-04T00:00:00	2024-11-08T22:00:00	8	Radiación solar	0
30765	7	Sololá	710	Panajachel	8	Panajachel	4	Abril	2023-12-04T00:00:00	2024-11-08T23:00:00	2	Temperatura media	18.1
30766	7	Sololá	710	Panajachel	8	Panajachel	4	Abril	2023-12-04T00:00:00	2024-11-08T23:00:00	4	Temperatura máxima	19
30767	7	Sololá	710	Panajachel	8	Panajachel	4	Abril	2023-12-04T00:00:00	2024-11-08T23:00:00	3	Temperatura mínima	18.1
30768	7	Sololá	710	Panajachel	8	Panajachel	4	Abril	2023-12-04T00:00:00	2024-11-08T23:00:00	5	Humedad	81
30769	7	Sololá	710	Panajachel	8	Panajachel	4	Abril	2023-12-04T00:00:00	2024-11-08T23:00:00	6	Velocidad del viento	0
30770	7	Sololá	710	Panajachel	8	Panajachel	4	Abril	2023-12-04T00:00:00	2024-11-08T23:00:00	7	Dirección del viento	0
30771	7	Sololá	710	Panajachel	8	Panajachel	4	Abril	2023-12-04T00:00:00	2024-11-08T23:00:00	1	Precipitación	0
30772	7	Sololá	710	Panajachel	8	Panajachel	4	Abril	2023-12-04T00:00:00	2024-11-08T23:00:00	8	Radiación solar	0
30773	7	Sololá	710	Panajachel	8	Panajachel	4	Abril	2023-04-13T00:00:00	2024-11-08T00:00:00	2	Temperatura media	19.1
30774	7	Sololá	710	Panajachel	8	Panajachel	4	Abril	2023-04-13T00:00:00	2024-11-08T00:00:00	4	Temperatura máxima	19.1
30775	7	Sololá	710	Panajachel	8	Panajachel	4	Abril	2023-04-13T00:00:00	2024-11-08T00:00:00	3	Temperatura mínima	18.1
30776	7	Sololá	710	Panajachel	8	Panajachel	4	Abril	2023-04-13T00:00:00	2024-11-08T00:00:00	5	Humedad	73
30777	7	Sololá	710	Panajachel	8	Panajachel	4	Abril	2023-04-13T00:00:00	2024-11-08T00:00:00	6	Velocidad del viento	1.6
30778	7	Sololá	710	Panajachel	8	Panajachel	4	Abril	2023-04-13T00:00:00	2024-11-08T00:00:00	7	Dirección del viento	1.61
30779	7	Sololá	710	Panajachel	8	Panajachel	4	Abril	2023-04-13T00:00:00	2024-11-08T00:00:00	1	Precipitación	0
30780	7	Sololá	710	Panajachel	8	Panajachel	4	Abril	2023-04-13T00:00:00	2024-11-08T00:00:00	8	Radiación solar	0
30781	7	Sololá	710	Panajachel	8	Panajachel	4	Abril	2023-04-13T00:00:00	2024-11-08T01:00:00	2	Temperatura media	19.2
30782	7	Sololá	710	Panajachel	8	Panajachel	4	Abril	2023-04-13T00:00:00	2024-11-08T01:00:00	4	Temperatura máxima	19.3
30783	7	Sololá	710	Panajachel	8	Panajachel	4	Abril	2023-04-13T00:00:00	2024-11-08T01:00:00	3	Temperatura mínima	18.7
30784	7	Sololá	710	Panajachel	8	Panajachel	4	Abril	2023-04-13T00:00:00	2024-11-08T01:00:00	5	Humedad	71
30785	7	Sololá	710	Panajachel	8	Panajachel	4	Abril	2023-04-13T00:00:00	2024-11-08T01:00:00	6	Velocidad del viento	0
30786	7	Sololá	710	Panajachel	8	Panajachel	4	Abril	2023-04-13T00:00:00	2024-11-08T01:00:00	7	Dirección del viento	0
30787	7	Sololá	710	Panajachel	8	Panajachel	4	Abril	2023-04-13T00:00:00	2024-11-08T01:00:00	1	Precipitación	0
30788	7	Sololá	710	Panajachel	8	Panajachel	4	Abril	2023-04-13T00:00:00	2024-11-08T01:00:00	8	Radiación solar	0
30789	7	Sololá	710	Panajachel	8	Panajachel	4	Abril	2023-04-13T00:00:00	2024-11-08T02:00:00	2	Temperatura media	17.9
30790	7	Sololá	710	Panajachel	8	Panajachel	4	Abril	2023-04-13T00:00:00	2024-11-08T02:00:00	4	Temperatura máxima	19.2
30791	7	Sololá	710	Panajachel	8	Panajachel	4	Abril	2023-04-13T00:00:00	2024-11-08T02:00:00	3	Temperatura mínima	17.9
30792	7	Sololá	710	Panajachel	8	Panajachel	4	Abril	2023-04-13T00:00:00	2024-11-08T02:00:00	5	Humedad	74
30793	7	Sololá	710	Panajachel	8	Panajachel	4	Abril	2023-04-13T00:00:00	2024-11-08T02:00:00	6	Velocidad del viento	0
30794	7	Sololá	710	Panajachel	8	Panajachel	4	Abril	2023-04-13T00:00:00	2024-11-08T02:00:00	7	Dirección del viento	0
30795	7	Sololá	710	Panajachel	8	Panajachel	4	Abril	2023-04-13T00:00:00	2024-11-08T02:00:00	1	Precipitación	0
30796	7	Sololá	710	Panajachel	8	Panajachel	4	Abril	2023-04-13T00:00:00	2024-11-08T02:00:00	8	Radiación solar	0
30797	7	Sololá	710	Panajachel	8	Panajachel	4	Abril	2023-04-13T00:00:00	2024-11-08T03:00:00	2	Temperatura media	16.7
30798	7	Sololá	710	Panajachel	8	Panajachel	4	Abril	2023-04-13T00:00:00	2024-11-08T03:00:00	4	Temperatura máxima	17.9
30799	7	Sololá	710	Panajachel	8	Panajachel	4	Abril	2023-04-13T00:00:00	2024-11-08T03:00:00	3	Temperatura mínima	16.7
30800	7	Sololá	710	Panajachel	8	Panajachel	4	Abril	2023-04-13T00:00:00	2024-11-08T03:00:00	5	Humedad	76
30801	7	Sololá	710	Panajachel	8	Panajachel	4	Abril	2023-04-13T00:00:00	2024-11-08T03:00:00	6	Velocidad del viento	0
30802	7	Sololá	710	Panajachel	8	Panajachel	4	Abril	2023-04-13T00:00:00	2024-11-08T03:00:00	7	Dirección del viento	0
30803	7	Sololá	710	Panajachel	8	Panajachel	4	Abril	2023-04-13T00:00:00	2024-11-08T03:00:00	1	Precipitación	0
30804	7	Sololá	710	Panajachel	8	Panajachel	4	Abril	2023-04-13T00:00:00	2024-11-08T03:00:00	8	Radiación solar	0
30805	7	Sololá	710	Panajachel	8	Panajachel	4	Abril	2023-04-13T00:00:00	2024-11-08T04:00:00	2	Temperatura media	16.9
30806	7	Sololá	710	Panajachel	8	Panajachel	4	Abril	2023-04-13T00:00:00	2024-11-08T04:00:00	4	Temperatura máxima	17
30807	7	Sololá	710	Panajachel	8	Panajachel	4	Abril	2023-04-13T00:00:00	2024-11-08T04:00:00	3	Temperatura mínima	16.7
30808	7	Sololá	710	Panajachel	8	Panajachel	4	Abril	2023-04-13T00:00:00	2024-11-08T04:00:00	5	Humedad	73
30809	7	Sololá	710	Panajachel	8	Panajachel	4	Abril	2023-04-13T00:00:00	2024-11-08T04:00:00	6	Velocidad del viento	0
30810	7	Sololá	710	Panajachel	8	Panajachel	4	Abril	2023-04-13T00:00:00	2024-11-08T04:00:00	7	Dirección del viento	0
30811	7	Sololá	710	Panajachel	8	Panajachel	4	Abril	2023-04-13T00:00:00	2024-11-08T04:00:00	1	Precipitación	0
30812	7	Sololá	710	Panajachel	8	Panajachel	4	Abril	2023-04-13T00:00:00	2024-11-08T04:00:00	8	Radiación solar	0
30813	7	Sololá	710	Panajachel	8	Panajachel	4	Abril	2023-04-13T00:00:00	2024-11-08T05:00:00	2	Temperatura media	16.7
30814	7	Sololá	710	Panajachel	8	Panajachel	4	Abril	2023-04-13T00:00:00	2024-11-08T05:00:00	4	Temperatura máxima	16.9
30815	7	Sololá	710	Panajachel	8	Panajachel	4	Abril	2023-04-13T00:00:00	2024-11-08T05:00:00	3	Temperatura mínima	16.6
30816	7	Sololá	710	Panajachel	8	Panajachel	4	Abril	2023-04-13T00:00:00	2024-11-08T05:00:00	5	Humedad	74
30817	7	Sololá	710	Panajachel	8	Panajachel	4	Abril	2023-04-13T00:00:00	2024-11-08T05:00:00	6	Velocidad del viento	0
30818	7	Sololá	710	Panajachel	8	Panajachel	4	Abril	2023-04-13T00:00:00	2024-11-08T05:00:00	7	Dirección del viento	0
30819	7	Sololá	710	Panajachel	8	Panajachel	4	Abril	2023-04-13T00:00:00	2024-11-08T05:00:00	1	Precipitación	0
30820	7	Sololá	710	Panajachel	8	Panajachel	4	Abril	2023-04-13T00:00:00	2024-11-08T05:00:00	8	Radiación solar	0
30821	7	Sololá	710	Panajachel	8	Panajachel	4	Abril	2023-04-13T00:00:00	2024-11-08T06:00:00	2	Temperatura media	16.1
30822	7	Sololá	710	Panajachel	8	Panajachel	4	Abril	2023-04-13T00:00:00	2024-11-08T06:00:00	4	Temperatura máxima	16.7
30823	7	Sololá	710	Panajachel	8	Panajachel	4	Abril	2023-04-13T00:00:00	2024-11-08T06:00:00	3	Temperatura mínima	16.1
30824	7	Sololá	710	Panajachel	8	Panajachel	4	Abril	2023-04-13T00:00:00	2024-11-08T06:00:00	5	Humedad	75
30825	7	Sololá	710	Panajachel	8	Panajachel	4	Abril	2023-04-13T00:00:00	2024-11-08T06:00:00	6	Velocidad del viento	1.6
30826	7	Sololá	710	Panajachel	8	Panajachel	4	Abril	2023-04-13T00:00:00	2024-11-08T06:00:00	7	Dirección del viento	1.61
30827	7	Sololá	710	Panajachel	8	Panajachel	4	Abril	2023-04-13T00:00:00	2024-11-08T06:00:00	1	Precipitación	0
30828	7	Sololá	710	Panajachel	8	Panajachel	4	Abril	2023-04-13T00:00:00	2024-11-08T06:00:00	8	Radiación solar	0
30829	7	Sololá	710	Panajachel	8	Panajachel	4	Abril	2023-04-13T00:00:00	2024-11-08T07:00:00	2	Temperatura media	17.1
30830	7	Sololá	710	Panajachel	8	Panajachel	4	Abril	2023-04-13T00:00:00	2024-11-08T07:00:00	4	Temperatura máxima	17.2
30831	7	Sololá	710	Panajachel	8	Panajachel	4	Abril	2023-04-13T00:00:00	2024-11-08T07:00:00	3	Temperatura mínima	16.1
30832	7	Sololá	710	Panajachel	8	Panajachel	4	Abril	2023-04-13T00:00:00	2024-11-08T07:00:00	5	Humedad	72
30833	7	Sololá	710	Panajachel	8	Panajachel	4	Abril	2023-04-13T00:00:00	2024-11-08T07:00:00	6	Velocidad del viento	1.6
30834	7	Sololá	710	Panajachel	8	Panajachel	4	Abril	2023-04-13T00:00:00	2024-11-08T07:00:00	7	Dirección del viento	1.61
30835	7	Sololá	710	Panajachel	8	Panajachel	4	Abril	2023-04-13T00:00:00	2024-11-08T07:00:00	1	Precipitación	0
30836	7	Sololá	710	Panajachel	8	Panajachel	4	Abril	2023-04-13T00:00:00	2024-11-08T07:00:00	8	Radiación solar	54
30837	7	Sololá	710	Panajachel	8	Panajachel	4	Abril	2023-04-13T00:00:00	2024-11-08T08:00:00	2	Temperatura media	20.4
30838	7	Sololá	710	Panajachel	8	Panajachel	4	Abril	2023-04-13T00:00:00	2024-11-08T08:00:00	4	Temperatura máxima	20.4
30839	7	Sololá	710	Panajachel	8	Panajachel	4	Abril	2023-04-13T00:00:00	2024-11-08T08:00:00	3	Temperatura mínima	17.2
30840	7	Sololá	710	Panajachel	8	Panajachel	4	Abril	2023-04-13T00:00:00	2024-11-08T08:00:00	5	Humedad	67
30841	7	Sololá	710	Panajachel	8	Panajachel	4	Abril	2023-04-13T00:00:00	2024-11-08T08:00:00	6	Velocidad del viento	0
30842	7	Sololá	710	Panajachel	8	Panajachel	4	Abril	2023-04-13T00:00:00	2024-11-08T08:00:00	7	Dirección del viento	0
30843	7	Sololá	710	Panajachel	8	Panajachel	4	Abril	2023-04-13T00:00:00	2024-11-08T08:00:00	1	Precipitación	0
30844	7	Sololá	710	Panajachel	8	Panajachel	4	Abril	2023-04-13T00:00:00	2024-11-08T08:00:00	8	Radiación solar	274
30845	7	Sololá	710	Panajachel	8	Panajachel	4	Abril	2023-04-13T00:00:00	2024-11-08T09:00:00	2	Temperatura media	21.1
30846	7	Sololá	710	Panajachel	8	Panajachel	4	Abril	2023-04-13T00:00:00	2024-11-08T09:00:00	4	Temperatura máxima	21.1
30847	7	Sololá	710	Panajachel	8	Panajachel	4	Abril	2023-04-13T00:00:00	2024-11-08T09:00:00	3	Temperatura mínima	20.1
30848	7	Sololá	710	Panajachel	8	Panajachel	4	Abril	2023-04-13T00:00:00	2024-11-08T09:00:00	5	Humedad	72
30849	7	Sololá	710	Panajachel	8	Panajachel	4	Abril	2023-04-13T00:00:00	2024-11-08T09:00:00	6	Velocidad del viento	0
30850	7	Sololá	710	Panajachel	8	Panajachel	4	Abril	2023-04-13T00:00:00	2024-11-08T09:00:00	7	Dirección del viento	0
30851	7	Sololá	710	Panajachel	8	Panajachel	4	Abril	2023-04-13T00:00:00	2024-11-08T09:00:00	1	Precipitación	0
30852	7	Sololá	710	Panajachel	8	Panajachel	4	Abril	2023-04-13T00:00:00	2024-11-08T09:00:00	8	Radiación solar	397
30853	7	Sololá	710	Panajachel	8	Panajachel	4	Abril	2023-04-13T00:00:00	2024-11-08T10:00:00	2	Temperatura media	21.9
30854	7	Sololá	710	Panajachel	8	Panajachel	4	Abril	2023-04-13T00:00:00	2024-11-08T10:00:00	4	Temperatura máxima	22.3
30855	7	Sololá	710	Panajachel	8	Panajachel	4	Abril	2023-04-13T00:00:00	2024-11-08T10:00:00	3	Temperatura mínima	20.9
30856	7	Sololá	710	Panajachel	8	Panajachel	4	Abril	2023-04-13T00:00:00	2024-11-08T10:00:00	5	Humedad	59
30857	7	Sololá	710	Panajachel	8	Panajachel	4	Abril	2023-04-13T00:00:00	2024-11-08T10:00:00	6	Velocidad del viento	4.8
30858	7	Sololá	710	Panajachel	8	Panajachel	4	Abril	2023-04-13T00:00:00	2024-11-08T10:00:00	7	Dirección del viento	4.83
30859	7	Sololá	710	Panajachel	8	Panajachel	4	Abril	2023-04-13T00:00:00	2024-11-08T10:00:00	1	Precipitación	0
30860	7	Sololá	710	Panajachel	8	Panajachel	4	Abril	2023-04-13T00:00:00	2024-11-08T10:00:00	8	Radiación solar	325
30861	7	Sololá	710	Panajachel	8	Panajachel	4	Abril	2023-04-13T00:00:00	2024-11-08T11:00:00	2	Temperatura media	23.4
30862	7	Sololá	710	Panajachel	8	Panajachel	4	Abril	2023-04-13T00:00:00	2024-11-08T11:00:00	4	Temperatura máxima	23.4
30863	7	Sololá	710	Panajachel	8	Panajachel	4	Abril	2023-04-13T00:00:00	2024-11-08T11:00:00	3	Temperatura mínima	21.9
30864	7	Sololá	710	Panajachel	8	Panajachel	4	Abril	2023-04-13T00:00:00	2024-11-08T11:00:00	5	Humedad	56
30865	7	Sololá	710	Panajachel	8	Panajachel	4	Abril	2023-04-13T00:00:00	2024-11-08T11:00:00	6	Velocidad del viento	6.4
30866	7	Sololá	710	Panajachel	8	Panajachel	4	Abril	2023-04-13T00:00:00	2024-11-08T11:00:00	7	Dirección del viento	6.44
30867	7	Sololá	710	Panajachel	8	Panajachel	4	Abril	2023-04-13T00:00:00	2024-11-08T11:00:00	1	Precipitación	0
30868	7	Sololá	710	Panajachel	8	Panajachel	4	Abril	2023-04-13T00:00:00	2024-11-08T11:00:00	8	Radiación solar	334
30869	7	Sololá	710	Panajachel	8	Panajachel	4	Abril	2023-04-13T00:00:00	2024-11-08T12:00:00	2	Temperatura media	23.3
30870	7	Sololá	710	Panajachel	8	Panajachel	4	Abril	2023-04-13T00:00:00	2024-11-08T12:00:00	4	Temperatura máxima	23.6
30871	7	Sololá	710	Panajachel	8	Panajachel	4	Abril	2023-04-13T00:00:00	2024-11-08T12:00:00	3	Temperatura mínima	22.9
30872	7	Sololá	710	Panajachel	8	Panajachel	4	Abril	2023-04-13T00:00:00	2024-11-08T12:00:00	5	Humedad	61
30873	7	Sololá	710	Panajachel	8	Panajachel	4	Abril	2023-04-13T00:00:00	2024-11-08T12:00:00	6	Velocidad del viento	8
30874	7	Sololá	710	Panajachel	8	Panajachel	4	Abril	2023-04-13T00:00:00	2024-11-08T12:00:00	7	Dirección del viento	8.05
30875	7	Sololá	710	Panajachel	8	Panajachel	4	Abril	2023-04-13T00:00:00	2024-11-08T12:00:00	1	Precipitación	0
30876	7	Sololá	710	Panajachel	8	Panajachel	4	Abril	2023-04-13T00:00:00	2024-11-08T12:00:00	8	Radiación solar	342
30877	7	Sololá	710	Panajachel	8	Panajachel	4	Abril	2023-04-13T00:00:00	2024-11-08T13:00:00	2	Temperatura media	24.2
30878	7	Sololá	710	Panajachel	8	Panajachel	4	Abril	2023-04-13T00:00:00	2024-11-08T13:00:00	4	Temperatura máxima	24.4
30879	7	Sololá	710	Panajachel	8	Panajachel	4	Abril	2023-04-13T00:00:00	2024-11-08T13:00:00	3	Temperatura mínima	23.2
30880	7	Sololá	710	Panajachel	8	Panajachel	4	Abril	2023-04-13T00:00:00	2024-11-08T13:00:00	5	Humedad	59
30881	7	Sololá	710	Panajachel	8	Panajachel	4	Abril	2023-04-13T00:00:00	2024-11-08T13:00:00	6	Velocidad del viento	9.7
30882	7	Sololá	710	Panajachel	8	Panajachel	4	Abril	2023-04-13T00:00:00	2024-11-08T13:00:00	7	Dirección del viento	9.66
30883	7	Sololá	710	Panajachel	8	Panajachel	4	Abril	2023-04-13T00:00:00	2024-11-08T13:00:00	1	Precipitación	0
30884	7	Sololá	710	Panajachel	8	Panajachel	4	Abril	2023-04-13T00:00:00	2024-11-08T13:00:00	8	Radiación solar	345
30885	7	Sololá	710	Panajachel	8	Panajachel	4	Abril	2023-04-13T00:00:00	2024-11-08T14:00:00	2	Temperatura media	22.4
30886	7	Sololá	710	Panajachel	8	Panajachel	4	Abril	2023-04-13T00:00:00	2024-11-08T14:00:00	4	Temperatura máxima	25.2
30887	7	Sololá	710	Panajachel	8	Panajachel	4	Abril	2023-04-13T00:00:00	2024-11-08T14:00:00	3	Temperatura mínima	22.4
30888	7	Sololá	710	Panajachel	8	Panajachel	4	Abril	2023-04-13T00:00:00	2024-11-08T14:00:00	5	Humedad	71
30889	7	Sololá	710	Panajachel	8	Panajachel	4	Abril	2023-04-13T00:00:00	2024-11-08T14:00:00	6	Velocidad del viento	8
30890	7	Sololá	710	Panajachel	8	Panajachel	4	Abril	2023-04-13T00:00:00	2024-11-08T14:00:00	7	Dirección del viento	8.05
30891	7	Sololá	710	Panajachel	8	Panajachel	4	Abril	2023-04-13T00:00:00	2024-11-08T14:00:00	1	Precipitación	0
30892	7	Sololá	710	Panajachel	8	Panajachel	4	Abril	2023-04-13T00:00:00	2024-11-08T14:00:00	8	Radiación solar	327
30893	7	Sololá	710	Panajachel	8	Panajachel	4	Abril	2023-04-13T00:00:00	2024-11-08T15:00:00	2	Temperatura media	23.2
30894	7	Sololá	710	Panajachel	8	Panajachel	4	Abril	2023-04-13T00:00:00	2024-11-08T15:00:00	4	Temperatura máxima	23.2
30895	7	Sololá	710	Panajachel	8	Panajachel	4	Abril	2023-04-13T00:00:00	2024-11-08T15:00:00	3	Temperatura mínima	21.9
30896	7	Sololá	710	Panajachel	8	Panajachel	4	Abril	2023-04-13T00:00:00	2024-11-08T15:00:00	5	Humedad	67
30897	7	Sololá	710	Panajachel	8	Panajachel	4	Abril	2023-04-13T00:00:00	2024-11-08T15:00:00	6	Velocidad del viento	6.4
30898	7	Sololá	710	Panajachel	8	Panajachel	4	Abril	2023-04-13T00:00:00	2024-11-08T15:00:00	7	Dirección del viento	6.44
30899	7	Sololá	710	Panajachel	8	Panajachel	4	Abril	2023-04-13T00:00:00	2024-11-08T15:00:00	1	Precipitación	0
30900	7	Sololá	710	Panajachel	8	Panajachel	4	Abril	2023-04-13T00:00:00	2024-11-08T15:00:00	8	Radiación solar	181
30901	7	Sololá	710	Panajachel	8	Panajachel	4	Abril	2023-04-13T00:00:00	2024-11-08T16:00:00	2	Temperatura media	21.7
30902	7	Sololá	710	Panajachel	8	Panajachel	4	Abril	2023-04-13T00:00:00	2024-11-08T16:00:00	4	Temperatura máxima	23.3
30903	7	Sololá	710	Panajachel	8	Panajachel	4	Abril	2023-04-13T00:00:00	2024-11-08T16:00:00	3	Temperatura mínima	21.7
30904	7	Sololá	710	Panajachel	8	Panajachel	4	Abril	2023-04-13T00:00:00	2024-11-08T16:00:00	5	Humedad	72
30905	7	Sololá	710	Panajachel	8	Panajachel	4	Abril	2023-04-13T00:00:00	2024-11-08T16:00:00	6	Velocidad del viento	4.8
30906	7	Sololá	710	Panajachel	8	Panajachel	4	Abril	2023-04-13T00:00:00	2024-11-08T16:00:00	7	Dirección del viento	4.83
30907	7	Sololá	710	Panajachel	8	Panajachel	4	Abril	2023-04-13T00:00:00	2024-11-08T16:00:00	1	Precipitación	0
30908	7	Sololá	710	Panajachel	8	Panajachel	4	Abril	2023-04-13T00:00:00	2024-11-08T16:00:00	8	Radiación solar	138
30909	7	Sololá	710	Panajachel	8	Panajachel	4	Abril	2023-04-13T00:00:00	2024-11-08T17:00:00	2	Temperatura media	22.2
30910	7	Sololá	710	Panajachel	8	Panajachel	4	Abril	2023-04-13T00:00:00	2024-11-08T17:00:00	4	Temperatura máxima	22.3
30911	7	Sololá	710	Panajachel	8	Panajachel	4	Abril	2023-04-13T00:00:00	2024-11-08T17:00:00	3	Temperatura mínima	21.4
30912	7	Sololá	710	Panajachel	8	Panajachel	4	Abril	2023-04-13T00:00:00	2024-11-08T17:00:00	5	Humedad	74
30913	7	Sololá	710	Panajachel	8	Panajachel	4	Abril	2023-04-13T00:00:00	2024-11-08T17:00:00	6	Velocidad del viento	4.8
30914	7	Sololá	710	Panajachel	8	Panajachel	4	Abril	2023-04-13T00:00:00	2024-11-08T17:00:00	7	Dirección del viento	4.83
30915	7	Sololá	710	Panajachel	8	Panajachel	4	Abril	2023-04-13T00:00:00	2024-11-08T17:00:00	1	Precipitación	0
30916	7	Sololá	710	Panajachel	8	Panajachel	4	Abril	2023-04-13T00:00:00	2024-11-08T17:00:00	8	Radiación solar	34
30917	7	Sololá	710	Panajachel	8	Panajachel	4	Abril	2023-04-13T00:00:00	2024-11-08T18:00:00	2	Temperatura media	20.8
30918	7	Sololá	710	Panajachel	8	Panajachel	4	Abril	2023-04-13T00:00:00	2024-11-08T18:00:00	4	Temperatura máxima	22.2
30919	7	Sololá	710	Panajachel	8	Panajachel	4	Abril	2023-04-13T00:00:00	2024-11-08T18:00:00	3	Temperatura mínima	20.8
30920	7	Sololá	710	Panajachel	8	Panajachel	4	Abril	2023-04-13T00:00:00	2024-11-08T18:00:00	5	Humedad	82
30921	7	Sololá	710	Panajachel	8	Panajachel	4	Abril	2023-04-13T00:00:00	2024-11-08T18:00:00	6	Velocidad del viento	3.2
30922	7	Sololá	710	Panajachel	8	Panajachel	4	Abril	2023-04-13T00:00:00	2024-11-08T18:00:00	7	Dirección del viento	3.22
30923	7	Sololá	710	Panajachel	8	Panajachel	4	Abril	2023-04-13T00:00:00	2024-11-08T18:00:00	1	Precipitación	0
30924	7	Sololá	710	Panajachel	8	Panajachel	4	Abril	2023-04-13T00:00:00	2024-11-08T18:00:00	8	Radiación solar	19
30925	7	Sololá	710	Panajachel	8	Panajachel	4	Abril	2023-04-13T00:00:00	2024-11-08T19:00:00	2	Temperatura media	20.2
30926	7	Sololá	710	Panajachel	8	Panajachel	4	Abril	2023-04-13T00:00:00	2024-11-08T19:00:00	4	Temperatura máxima	20.8
30927	7	Sololá	710	Panajachel	8	Panajachel	4	Abril	2023-04-13T00:00:00	2024-11-08T19:00:00	3	Temperatura mínima	20.2
30928	7	Sololá	710	Panajachel	8	Panajachel	4	Abril	2023-04-13T00:00:00	2024-11-08T19:00:00	5	Humedad	84
30929	7	Sololá	710	Panajachel	8	Panajachel	4	Abril	2023-04-13T00:00:00	2024-11-08T19:00:00	6	Velocidad del viento	3.2
30930	7	Sololá	710	Panajachel	8	Panajachel	4	Abril	2023-04-13T00:00:00	2024-11-08T19:00:00	7	Dirección del viento	3.22
30931	7	Sololá	710	Panajachel	8	Panajachel	4	Abril	2023-04-13T00:00:00	2024-11-08T19:00:00	1	Precipitación	0
30932	7	Sololá	710	Panajachel	8	Panajachel	4	Abril	2023-04-13T00:00:00	2024-11-08T19:00:00	8	Radiación solar	0
30933	7	Sololá	710	Panajachel	8	Panajachel	4	Abril	2023-04-13T00:00:00	2024-11-08T20:00:00	2	Temperatura media	19.8
30934	7	Sololá	710	Panajachel	8	Panajachel	4	Abril	2023-04-13T00:00:00	2024-11-08T20:00:00	4	Temperatura máxima	20.2
30935	7	Sololá	710	Panajachel	8	Panajachel	4	Abril	2023-04-13T00:00:00	2024-11-08T20:00:00	3	Temperatura mínima	19.8
30936	7	Sololá	710	Panajachel	8	Panajachel	4	Abril	2023-04-13T00:00:00	2024-11-08T20:00:00	5	Humedad	86
30937	7	Sololá	710	Panajachel	8	Panajachel	4	Abril	2023-04-13T00:00:00	2024-11-08T20:00:00	6	Velocidad del viento	1.6
30938	7	Sololá	710	Panajachel	8	Panajachel	4	Abril	2023-04-13T00:00:00	2024-11-08T20:00:00	7	Dirección del viento	1.61
30939	7	Sololá	710	Panajachel	8	Panajachel	4	Abril	2023-04-13T00:00:00	2024-11-08T20:00:00	1	Precipitación	0
30940	7	Sololá	710	Panajachel	8	Panajachel	4	Abril	2023-04-13T00:00:00	2024-11-08T20:00:00	8	Radiación solar	0
30941	7	Sololá	710	Panajachel	8	Panajachel	4	Abril	2023-04-13T00:00:00	2024-11-08T21:00:00	2	Temperatura media	19.1
30942	7	Sololá	710	Panajachel	8	Panajachel	4	Abril	2023-04-13T00:00:00	2024-11-08T21:00:00	4	Temperatura máxima	19.8
30943	7	Sololá	710	Panajachel	8	Panajachel	4	Abril	2023-04-13T00:00:00	2024-11-08T21:00:00	3	Temperatura mínima	19.1
30944	7	Sololá	710	Panajachel	8	Panajachel	4	Abril	2023-04-13T00:00:00	2024-11-08T21:00:00	5	Humedad	82
30945	7	Sololá	710	Panajachel	8	Panajachel	4	Abril	2023-04-13T00:00:00	2024-11-08T21:00:00	6	Velocidad del viento	3.2
30946	7	Sololá	710	Panajachel	8	Panajachel	4	Abril	2023-04-13T00:00:00	2024-11-08T21:00:00	7	Dirección del viento	3.22
30947	7	Sololá	710	Panajachel	8	Panajachel	4	Abril	2023-04-13T00:00:00	2024-11-08T21:00:00	1	Precipitación	0
30948	7	Sololá	710	Panajachel	8	Panajachel	4	Abril	2023-04-13T00:00:00	2024-11-08T21:00:00	8	Radiación solar	0
30949	7	Sololá	710	Panajachel	8	Panajachel	4	Abril	2023-04-13T00:00:00	2024-11-08T22:00:00	2	Temperatura media	18.2
30950	7	Sololá	710	Panajachel	8	Panajachel	4	Abril	2023-04-13T00:00:00	2024-11-08T22:00:00	4	Temperatura máxima	19.1
30951	7	Sololá	710	Panajachel	8	Panajachel	4	Abril	2023-04-13T00:00:00	2024-11-08T22:00:00	3	Temperatura mínima	18.1
30952	7	Sololá	710	Panajachel	8	Panajachel	4	Abril	2023-04-13T00:00:00	2024-11-08T22:00:00	5	Humedad	79
30953	7	Sololá	710	Panajachel	8	Panajachel	4	Abril	2023-04-13T00:00:00	2024-11-08T22:00:00	6	Velocidad del viento	8
30954	7	Sololá	710	Panajachel	8	Panajachel	4	Abril	2023-04-13T00:00:00	2024-11-08T22:00:00	7	Dirección del viento	8.05
30955	7	Sololá	710	Panajachel	8	Panajachel	4	Abril	2023-04-13T00:00:00	2024-11-08T22:00:00	1	Precipitación	0
30956	7	Sololá	710	Panajachel	8	Panajachel	4	Abril	2023-04-13T00:00:00	2024-11-08T22:00:00	8	Radiación solar	0
30957	7	Sololá	710	Panajachel	8	Panajachel	4	Abril	2023-04-13T00:00:00	2024-11-08T23:00:00	2	Temperatura media	17.4
30958	7	Sololá	710	Panajachel	8	Panajachel	4	Abril	2023-04-13T00:00:00	2024-11-08T23:00:00	4	Temperatura máxima	18.2
30959	7	Sololá	710	Panajachel	8	Panajachel	4	Abril	2023-04-13T00:00:00	2024-11-08T23:00:00	3	Temperatura mínima	17.4
30960	7	Sololá	710	Panajachel	8	Panajachel	4	Abril	2023-04-13T00:00:00	2024-11-08T23:00:00	5	Humedad	80
30961	7	Sololá	710	Panajachel	8	Panajachel	4	Abril	2023-04-13T00:00:00	2024-11-08T23:00:00	6	Velocidad del viento	9.7
30962	7	Sololá	710	Panajachel	8	Panajachel	4	Abril	2023-04-13T00:00:00	2024-11-08T23:00:00	7	Dirección del viento	9.66
30963	7	Sololá	710	Panajachel	8	Panajachel	4	Abril	2023-04-13T00:00:00	2024-11-08T23:00:00	1	Precipitación	0
30964	7	Sololá	710	Panajachel	8	Panajachel	4	Abril	2023-04-13T00:00:00	2024-11-08T23:00:00	8	Radiación solar	0
30965	7	Sololá	710	Panajachel	8	Panajachel	4	Abril	2023-04-14T00:00:00	2024-11-08T00:00:00	2	Temperatura media	17.1
30966	7	Sololá	710	Panajachel	8	Panajachel	4	Abril	2023-04-14T00:00:00	2024-11-08T00:00:00	4	Temperatura máxima	17.5
30967	7	Sololá	710	Panajachel	8	Panajachel	4	Abril	2023-04-14T00:00:00	2024-11-08T00:00:00	3	Temperatura mínima	17
30968	7	Sololá	710	Panajachel	8	Panajachel	4	Abril	2023-04-14T00:00:00	2024-11-08T00:00:00	5	Humedad	80
30969	7	Sololá	710	Panajachel	8	Panajachel	4	Abril	2023-04-14T00:00:00	2024-11-08T00:00:00	6	Velocidad del viento	11.3
30970	7	Sololá	710	Panajachel	8	Panajachel	4	Abril	2023-04-14T00:00:00	2024-11-08T00:00:00	7	Dirección del viento	11.27
30971	7	Sololá	710	Panajachel	8	Panajachel	4	Abril	2023-04-14T00:00:00	2024-11-08T00:00:00	1	Precipitación	0
30972	7	Sololá	710	Panajachel	8	Panajachel	4	Abril	2023-04-14T00:00:00	2024-11-08T00:00:00	8	Radiación solar	0
30973	7	Sololá	710	Panajachel	8	Panajachel	4	Abril	2023-04-14T00:00:00	2024-11-08T01:00:00	2	Temperatura media	16.9
30974	7	Sololá	710	Panajachel	8	Panajachel	4	Abril	2023-04-14T00:00:00	2024-11-08T01:00:00	4	Temperatura máxima	17.3
30975	7	Sololá	710	Panajachel	8	Panajachel	4	Abril	2023-04-14T00:00:00	2024-11-08T01:00:00	3	Temperatura mínima	16.7
30976	7	Sololá	710	Panajachel	8	Panajachel	4	Abril	2023-04-14T00:00:00	2024-11-08T01:00:00	5	Humedad	78
30977	7	Sololá	710	Panajachel	8	Panajachel	4	Abril	2023-04-14T00:00:00	2024-11-08T01:00:00	6	Velocidad del viento	11.3
30978	7	Sololá	710	Panajachel	8	Panajachel	4	Abril	2023-04-14T00:00:00	2024-11-08T01:00:00	7	Dirección del viento	11.27
30979	7	Sololá	710	Panajachel	8	Panajachel	4	Abril	2023-04-14T00:00:00	2024-11-08T01:00:00	1	Precipitación	0
30980	7	Sololá	710	Panajachel	8	Panajachel	4	Abril	2023-04-14T00:00:00	2024-11-08T01:00:00	8	Radiación solar	0
30981	7	Sololá	710	Panajachel	8	Panajachel	4	Abril	2023-04-14T00:00:00	2024-11-08T02:00:00	2	Temperatura media	15.9
30982	7	Sololá	710	Panajachel	8	Panajachel	4	Abril	2023-04-14T00:00:00	2024-11-08T02:00:00	4	Temperatura máxima	16.9
30983	7	Sololá	710	Panajachel	8	Panajachel	4	Abril	2023-04-14T00:00:00	2024-11-08T02:00:00	3	Temperatura mínima	15.8
30984	7	Sololá	710	Panajachel	8	Panajachel	4	Abril	2023-04-14T00:00:00	2024-11-08T02:00:00	5	Humedad	78
30985	7	Sololá	710	Panajachel	8	Panajachel	4	Abril	2023-04-14T00:00:00	2024-11-08T02:00:00	6	Velocidad del viento	12.9
30986	7	Sololá	710	Panajachel	8	Panajachel	4	Abril	2023-04-14T00:00:00	2024-11-08T02:00:00	7	Dirección del viento	12.87
30987	7	Sololá	710	Panajachel	8	Panajachel	4	Abril	2023-04-14T00:00:00	2024-11-08T02:00:00	1	Precipitación	0
30988	7	Sololá	710	Panajachel	8	Panajachel	4	Abril	2023-04-14T00:00:00	2024-11-08T02:00:00	8	Radiación solar	0
30989	7	Sololá	710	Panajachel	8	Panajachel	4	Abril	2023-04-14T00:00:00	2024-11-08T03:00:00	2	Temperatura media	15.9
30990	7	Sololá	710	Panajachel	8	Panajachel	4	Abril	2023-04-14T00:00:00	2024-11-08T03:00:00	4	Temperatura máxima	15.9
30991	7	Sololá	710	Panajachel	8	Panajachel	4	Abril	2023-04-14T00:00:00	2024-11-08T03:00:00	3	Temperatura mínima	15.3
30992	7	Sololá	710	Panajachel	8	Panajachel	4	Abril	2023-04-14T00:00:00	2024-11-08T03:00:00	5	Humedad	75
30993	7	Sololá	710	Panajachel	8	Panajachel	4	Abril	2023-04-14T00:00:00	2024-11-08T03:00:00	6	Velocidad del viento	12.9
30994	7	Sololá	710	Panajachel	8	Panajachel	4	Abril	2023-04-14T00:00:00	2024-11-08T03:00:00	7	Dirección del viento	12.87
30995	7	Sololá	710	Panajachel	8	Panajachel	4	Abril	2023-04-14T00:00:00	2024-11-08T03:00:00	1	Precipitación	0
30996	7	Sololá	710	Panajachel	8	Panajachel	4	Abril	2023-04-14T00:00:00	2024-11-08T03:00:00	8	Radiación solar	0
30997	7	Sololá	710	Panajachel	8	Panajachel	4	Abril	2023-04-14T00:00:00	2024-11-08T04:00:00	2	Temperatura media	16.4
30998	7	Sololá	710	Panajachel	8	Panajachel	4	Abril	2023-04-14T00:00:00	2024-11-08T04:00:00	4	Temperatura máxima	16.4
30999	7	Sololá	710	Panajachel	8	Panajachel	4	Abril	2023-04-14T00:00:00	2024-11-08T04:00:00	3	Temperatura mínima	15.6
31000	7	Sololá	710	Panajachel	8	Panajachel	4	Abril	2023-04-14T00:00:00	2024-11-08T04:00:00	5	Humedad	67
31001	7	Sololá	710	Panajachel	8	Panajachel	4	Abril	2023-04-14T00:00:00	2024-11-08T04:00:00	6	Velocidad del viento	11.3
31002	7	Sololá	710	Panajachel	8	Panajachel	4	Abril	2023-04-14T00:00:00	2024-11-08T04:00:00	7	Dirección del viento	11.27
31003	7	Sololá	710	Panajachel	8	Panajachel	4	Abril	2023-04-14T00:00:00	2024-11-08T04:00:00	1	Precipitación	0
31004	7	Sololá	710	Panajachel	8	Panajachel	4	Abril	2023-04-14T00:00:00	2024-11-08T04:00:00	8	Radiación solar	0
31005	7	Sololá	710	Panajachel	8	Panajachel	4	Abril	2023-04-14T00:00:00	2024-11-08T05:00:00	2	Temperatura media	16.2
31006	7	Sololá	710	Panajachel	8	Panajachel	4	Abril	2023-04-14T00:00:00	2024-11-08T05:00:00	4	Temperatura máxima	16.4
31007	7	Sololá	710	Panajachel	8	Panajachel	4	Abril	2023-04-14T00:00:00	2024-11-08T05:00:00	3	Temperatura mínima	15.6
31008	7	Sololá	710	Panajachel	8	Panajachel	4	Abril	2023-04-14T00:00:00	2024-11-08T05:00:00	5	Humedad	64
31009	7	Sololá	710	Panajachel	8	Panajachel	4	Abril	2023-04-14T00:00:00	2024-11-08T05:00:00	6	Velocidad del viento	12.9
31010	7	Sololá	710	Panajachel	8	Panajachel	4	Abril	2023-04-14T00:00:00	2024-11-08T05:00:00	7	Dirección del viento	12.87
31011	7	Sololá	710	Panajachel	8	Panajachel	4	Abril	2023-04-14T00:00:00	2024-11-08T05:00:00	1	Precipitación	0
31012	7	Sololá	710	Panajachel	8	Panajachel	4	Abril	2023-04-14T00:00:00	2024-11-08T05:00:00	8	Radiación solar	0
31013	7	Sololá	710	Panajachel	8	Panajachel	4	Abril	2023-04-14T00:00:00	2024-11-08T06:00:00	2	Temperatura media	15.7
31014	7	Sololá	710	Panajachel	8	Panajachel	4	Abril	2023-04-14T00:00:00	2024-11-08T06:00:00	4	Temperatura máxima	16.2
31015	7	Sololá	710	Panajachel	8	Panajachel	4	Abril	2023-04-14T00:00:00	2024-11-08T06:00:00	3	Temperatura mínima	15.6
31016	7	Sololá	710	Panajachel	8	Panajachel	4	Abril	2023-04-14T00:00:00	2024-11-08T06:00:00	5	Humedad	65
31017	7	Sololá	710	Panajachel	8	Panajachel	4	Abril	2023-04-14T00:00:00	2024-11-08T06:00:00	6	Velocidad del viento	11.3
31018	7	Sololá	710	Panajachel	8	Panajachel	4	Abril	2023-04-14T00:00:00	2024-11-08T06:00:00	7	Dirección del viento	11.27
31019	7	Sololá	710	Panajachel	8	Panajachel	4	Abril	2023-04-14T00:00:00	2024-11-08T06:00:00	1	Precipitación	0
31020	7	Sololá	710	Panajachel	8	Panajachel	4	Abril	2023-04-14T00:00:00	2024-11-08T06:00:00	8	Radiación solar	0
31021	7	Sololá	710	Panajachel	8	Panajachel	4	Abril	2023-04-14T00:00:00	2024-11-08T07:00:00	2	Temperatura media	16.2
31022	7	Sololá	710	Panajachel	8	Panajachel	4	Abril	2023-04-14T00:00:00	2024-11-08T07:00:00	4	Temperatura máxima	16.2
31023	7	Sololá	710	Panajachel	8	Panajachel	4	Abril	2023-04-14T00:00:00	2024-11-08T07:00:00	3	Temperatura mínima	15.4
31024	7	Sololá	710	Panajachel	8	Panajachel	4	Abril	2023-04-14T00:00:00	2024-11-08T07:00:00	5	Humedad	65
31025	7	Sololá	710	Panajachel	8	Panajachel	4	Abril	2023-04-14T00:00:00	2024-11-08T07:00:00	6	Velocidad del viento	11.3
31026	7	Sololá	710	Panajachel	8	Panajachel	4	Abril	2023-04-14T00:00:00	2024-11-08T07:00:00	7	Dirección del viento	11.27
31027	7	Sololá	710	Panajachel	8	Panajachel	4	Abril	2023-04-14T00:00:00	2024-11-08T07:00:00	1	Precipitación	0
31028	7	Sololá	710	Panajachel	8	Panajachel	4	Abril	2023-04-14T00:00:00	2024-11-08T07:00:00	8	Radiación solar	45
31029	7	Sololá	710	Panajachel	8	Panajachel	4	Abril	2023-04-14T00:00:00	2024-11-08T08:00:00	2	Temperatura media	19.4
31030	7	Sololá	710	Panajachel	8	Panajachel	4	Abril	2023-04-14T00:00:00	2024-11-08T08:00:00	4	Temperatura máxima	19.4
31031	7	Sololá	710	Panajachel	8	Panajachel	4	Abril	2023-04-14T00:00:00	2024-11-08T08:00:00	3	Temperatura mínima	16.3
31032	7	Sololá	710	Panajachel	8	Panajachel	4	Abril	2023-04-14T00:00:00	2024-11-08T08:00:00	5	Humedad	63
31033	7	Sololá	710	Panajachel	8	Panajachel	4	Abril	2023-04-14T00:00:00	2024-11-08T08:00:00	6	Velocidad del viento	6.4
31034	7	Sololá	710	Panajachel	8	Panajachel	4	Abril	2023-04-14T00:00:00	2024-11-08T08:00:00	7	Dirección del viento	6.44
31035	7	Sololá	710	Panajachel	8	Panajachel	4	Abril	2023-04-14T00:00:00	2024-11-08T08:00:00	1	Precipitación	0
31036	7	Sololá	710	Panajachel	8	Panajachel	4	Abril	2023-04-14T00:00:00	2024-11-08T08:00:00	8	Radiación solar	206
31037	7	Sololá	710	Panajachel	8	Panajachel	4	Abril	2023-04-14T00:00:00	2024-11-08T09:00:00	2	Temperatura media	20.3
31038	7	Sololá	710	Panajachel	8	Panajachel	4	Abril	2023-04-14T00:00:00	2024-11-08T09:00:00	4	Temperatura máxima	21.1
31039	7	Sololá	710	Panajachel	8	Panajachel	4	Abril	2023-04-14T00:00:00	2024-11-08T09:00:00	3	Temperatura mínima	19.4
31040	7	Sololá	710	Panajachel	8	Panajachel	4	Abril	2023-04-14T00:00:00	2024-11-08T09:00:00	5	Humedad	64
31041	7	Sololá	710	Panajachel	8	Panajachel	4	Abril	2023-04-14T00:00:00	2024-11-08T09:00:00	6	Velocidad del viento	3.2
31042	7	Sololá	710	Panajachel	8	Panajachel	4	Abril	2023-04-14T00:00:00	2024-11-08T09:00:00	7	Dirección del viento	3.22
31043	7	Sololá	710	Panajachel	8	Panajachel	4	Abril	2023-04-14T00:00:00	2024-11-08T09:00:00	1	Precipitación	0
31044	7	Sololá	710	Panajachel	8	Panajachel	4	Abril	2023-04-14T00:00:00	2024-11-08T09:00:00	8	Radiación solar	285
31045	7	Sololá	710	Panajachel	8	Panajachel	4	Abril	2023-04-14T00:00:00	2024-11-08T10:00:00	2	Temperatura media	22.8
31046	7	Sololá	710	Panajachel	8	Panajachel	4	Abril	2023-04-14T00:00:00	2024-11-08T10:00:00	4	Temperatura máxima	22.9
31047	7	Sololá	710	Panajachel	8	Panajachel	4	Abril	2023-04-14T00:00:00	2024-11-08T10:00:00	3	Temperatura mínima	20.4
31048	7	Sololá	710	Panajachel	8	Panajachel	4	Abril	2023-04-14T00:00:00	2024-11-08T10:00:00	5	Humedad	51
31049	7	Sololá	710	Panajachel	8	Panajachel	4	Abril	2023-04-14T00:00:00	2024-11-08T10:00:00	6	Velocidad del viento	4.8
31050	7	Sololá	710	Panajachel	8	Panajachel	4	Abril	2023-04-14T00:00:00	2024-11-08T10:00:00	7	Dirección del viento	4.83
31051	7	Sololá	710	Panajachel	8	Panajachel	4	Abril	2023-04-14T00:00:00	2024-11-08T10:00:00	1	Precipitación	0
31052	7	Sololá	710	Panajachel	8	Panajachel	4	Abril	2023-04-14T00:00:00	2024-11-08T10:00:00	8	Radiación solar	285
31053	7	Sololá	710	Panajachel	8	Panajachel	4	Abril	2023-04-14T00:00:00	2024-11-08T11:00:00	2	Temperatura media	24.5
31054	7	Sololá	710	Panajachel	8	Panajachel	4	Abril	2023-04-14T00:00:00	2024-11-08T11:00:00	4	Temperatura máxima	24.6
31055	7	Sololá	710	Panajachel	8	Panajachel	4	Abril	2023-04-14T00:00:00	2024-11-08T11:00:00	3	Temperatura mínima	22.9
31056	7	Sololá	710	Panajachel	8	Panajachel	4	Abril	2023-04-14T00:00:00	2024-11-08T11:00:00	5	Humedad	50
31057	7	Sololá	710	Panajachel	8	Panajachel	4	Abril	2023-04-14T00:00:00	2024-11-08T11:00:00	6	Velocidad del viento	3.2
31058	7	Sololá	710	Panajachel	8	Panajachel	4	Abril	2023-04-14T00:00:00	2024-11-08T11:00:00	7	Dirección del viento	3.22
31059	7	Sololá	710	Panajachel	8	Panajachel	4	Abril	2023-04-14T00:00:00	2024-11-08T11:00:00	1	Precipitación	0
31060	7	Sololá	710	Panajachel	8	Panajachel	4	Abril	2023-04-14T00:00:00	2024-11-08T11:00:00	8	Radiación solar	296
31061	7	Sololá	710	Panajachel	8	Panajachel	4	Abril	2023-04-14T00:00:00	2024-11-08T12:00:00	2	Temperatura media	24
31062	7	Sololá	710	Panajachel	8	Panajachel	4	Abril	2023-04-14T00:00:00	2024-11-08T12:00:00	4	Temperatura máxima	24.9
31063	7	Sololá	710	Panajachel	8	Panajachel	4	Abril	2023-04-14T00:00:00	2024-11-08T12:00:00	3	Temperatura mínima	23.9
31064	7	Sololá	710	Panajachel	8	Panajachel	4	Abril	2023-04-14T00:00:00	2024-11-08T12:00:00	5	Humedad	54
31065	7	Sololá	710	Panajachel	8	Panajachel	4	Abril	2023-04-14T00:00:00	2024-11-08T12:00:00	6	Velocidad del viento	8
31066	7	Sololá	710	Panajachel	8	Panajachel	4	Abril	2023-04-14T00:00:00	2024-11-08T12:00:00	7	Dirección del viento	8.05
31067	7	Sololá	710	Panajachel	8	Panajachel	4	Abril	2023-04-14T00:00:00	2024-11-08T12:00:00	1	Precipitación	0
31068	7	Sololá	710	Panajachel	8	Panajachel	4	Abril	2023-04-14T00:00:00	2024-11-08T12:00:00	8	Radiación solar	287
31069	7	Sololá	710	Panajachel	8	Panajachel	4	Abril	2023-04-14T00:00:00	2024-11-08T13:00:00	2	Temperatura media	24.6
31070	7	Sololá	710	Panajachel	8	Panajachel	4	Abril	2023-04-14T00:00:00	2024-11-08T13:00:00	4	Temperatura máxima	24.8
31071	7	Sololá	710	Panajachel	8	Panajachel	4	Abril	2023-04-14T00:00:00	2024-11-08T13:00:00	3	Temperatura mínima	23.6
31072	7	Sololá	710	Panajachel	8	Panajachel	4	Abril	2023-04-14T00:00:00	2024-11-08T13:00:00	5	Humedad	62
31073	7	Sololá	710	Panajachel	8	Panajachel	4	Abril	2023-04-14T00:00:00	2024-11-08T13:00:00	6	Velocidad del viento	11.3
31074	7	Sololá	710	Panajachel	8	Panajachel	4	Abril	2023-04-14T00:00:00	2024-11-08T13:00:00	7	Dirección del viento	11.27
31075	7	Sololá	710	Panajachel	8	Panajachel	4	Abril	2023-04-14T00:00:00	2024-11-08T13:00:00	1	Precipitación	0
31076	7	Sololá	710	Panajachel	8	Panajachel	4	Abril	2023-04-14T00:00:00	2024-11-08T13:00:00	8	Radiación solar	328
31077	7	Sololá	710	Panajachel	8	Panajachel	4	Abril	2023-04-14T00:00:00	2024-11-08T14:00:00	2	Temperatura media	24.7
31078	7	Sololá	710	Panajachel	8	Panajachel	4	Abril	2023-04-14T00:00:00	2024-11-08T14:00:00	4	Temperatura máxima	25.4
31079	7	Sololá	710	Panajachel	8	Panajachel	4	Abril	2023-04-14T00:00:00	2024-11-08T14:00:00	3	Temperatura mínima	24.3
31080	7	Sololá	710	Panajachel	8	Panajachel	4	Abril	2023-04-14T00:00:00	2024-11-08T14:00:00	5	Humedad	64
31081	7	Sololá	710	Panajachel	8	Panajachel	4	Abril	2023-04-14T00:00:00	2024-11-08T14:00:00	6	Velocidad del viento	8
31082	7	Sololá	710	Panajachel	8	Panajachel	4	Abril	2023-04-14T00:00:00	2024-11-08T14:00:00	7	Dirección del viento	8.05
31083	7	Sololá	710	Panajachel	8	Panajachel	4	Abril	2023-04-14T00:00:00	2024-11-08T14:00:00	1	Precipitación	0
31084	7	Sololá	710	Panajachel	8	Panajachel	4	Abril	2023-04-14T00:00:00	2024-11-08T14:00:00	8	Radiación solar	335
31085	7	Sololá	710	Panajachel	8	Panajachel	4	Abril	2023-04-14T00:00:00	2024-11-08T15:00:00	2	Temperatura media	24.6
31086	7	Sololá	710	Panajachel	8	Panajachel	4	Abril	2023-04-14T00:00:00	2024-11-08T15:00:00	4	Temperatura máxima	24.6
31087	7	Sololá	710	Panajachel	8	Panajachel	4	Abril	2023-04-14T00:00:00	2024-11-08T15:00:00	3	Temperatura mínima	23.4
31088	7	Sololá	710	Panajachel	8	Panajachel	4	Abril	2023-04-14T00:00:00	2024-11-08T15:00:00	5	Humedad	65
31089	7	Sololá	710	Panajachel	8	Panajachel	4	Abril	2023-04-14T00:00:00	2024-11-08T15:00:00	6	Velocidad del viento	9.7
31090	7	Sololá	710	Panajachel	8	Panajachel	4	Abril	2023-04-14T00:00:00	2024-11-08T15:00:00	7	Dirección del viento	9.66
31091	7	Sololá	710	Panajachel	8	Panajachel	4	Abril	2023-04-14T00:00:00	2024-11-08T15:00:00	1	Precipitación	0
31092	7	Sololá	710	Panajachel	8	Panajachel	4	Abril	2023-04-14T00:00:00	2024-11-08T15:00:00	8	Radiación solar	118
31093	7	Sololá	710	Panajachel	8	Panajachel	4	Abril	2023-04-14T00:00:00	2024-11-08T16:00:00	2	Temperatura media	23.7
31094	7	Sololá	710	Panajachel	8	Panajachel	4	Abril	2023-04-14T00:00:00	2024-11-08T16:00:00	4	Temperatura máxima	24.6
31095	7	Sololá	710	Panajachel	8	Panajachel	4	Abril	2023-04-14T00:00:00	2024-11-08T16:00:00	3	Temperatura mínima	23.3
31096	7	Sololá	710	Panajachel	8	Panajachel	4	Abril	2023-04-14T00:00:00	2024-11-08T16:00:00	5	Humedad	68
31097	7	Sololá	710	Panajachel	8	Panajachel	4	Abril	2023-04-14T00:00:00	2024-11-08T16:00:00	6	Velocidad del viento	8
31098	7	Sololá	710	Panajachel	8	Panajachel	4	Abril	2023-04-14T00:00:00	2024-11-08T16:00:00	7	Dirección del viento	8.05
31099	7	Sololá	710	Panajachel	8	Panajachel	4	Abril	2023-04-14T00:00:00	2024-11-08T16:00:00	1	Precipitación	0
31100	7	Sololá	710	Panajachel	8	Panajachel	4	Abril	2023-04-14T00:00:00	2024-11-08T16:00:00	8	Radiación solar	28
31101	7	Sololá	710	Panajachel	8	Panajachel	4	Abril	2023-04-14T00:00:00	2024-11-08T17:00:00	2	Temperatura media	22.1
31102	7	Sololá	710	Panajachel	8	Panajachel	4	Abril	2023-04-14T00:00:00	2024-11-08T17:00:00	4	Temperatura máxima	23.7
31103	7	Sololá	710	Panajachel	8	Panajachel	4	Abril	2023-04-14T00:00:00	2024-11-08T17:00:00	3	Temperatura mínima	21.9
31104	7	Sololá	710	Panajachel	8	Panajachel	4	Abril	2023-04-14T00:00:00	2024-11-08T17:00:00	5	Humedad	75
31105	7	Sololá	710	Panajachel	8	Panajachel	4	Abril	2023-04-14T00:00:00	2024-11-08T17:00:00	6	Velocidad del viento	8
31106	7	Sololá	710	Panajachel	8	Panajachel	4	Abril	2023-04-14T00:00:00	2024-11-08T17:00:00	7	Dirección del viento	8.05
31107	7	Sololá	710	Panajachel	8	Panajachel	4	Abril	2023-04-14T00:00:00	2024-11-08T17:00:00	1	Precipitación	0
31108	7	Sololá	710	Panajachel	8	Panajachel	4	Abril	2023-04-14T00:00:00	2024-11-08T17:00:00	8	Radiación solar	56
31109	7	Sololá	710	Panajachel	8	Panajachel	4	Abril	2023-04-14T00:00:00	2024-11-08T18:00:00	2	Temperatura media	21.4
31110	7	Sololá	710	Panajachel	8	Panajachel	4	Abril	2023-04-14T00:00:00	2024-11-08T18:00:00	4	Temperatura máxima	22.2
31111	7	Sololá	710	Panajachel	8	Panajachel	4	Abril	2023-04-14T00:00:00	2024-11-08T18:00:00	3	Temperatura mínima	21.4
31112	7	Sololá	710	Panajachel	8	Panajachel	4	Abril	2023-04-14T00:00:00	2024-11-08T18:00:00	5	Humedad	79
31113	7	Sololá	710	Panajachel	8	Panajachel	4	Abril	2023-04-14T00:00:00	2024-11-08T18:00:00	6	Velocidad del viento	3.2
31114	7	Sololá	710	Panajachel	8	Panajachel	4	Abril	2023-04-14T00:00:00	2024-11-08T18:00:00	7	Dirección del viento	3.22
31115	7	Sololá	710	Panajachel	8	Panajachel	4	Abril	2023-04-14T00:00:00	2024-11-08T18:00:00	1	Precipitación	0
31116	7	Sololá	710	Panajachel	8	Panajachel	4	Abril	2023-04-14T00:00:00	2024-11-08T18:00:00	8	Radiación solar	89
31117	7	Sololá	710	Panajachel	8	Panajachel	4	Abril	2023-04-14T00:00:00	2024-11-08T19:00:00	2	Temperatura media	21.1
31118	7	Sololá	710	Panajachel	8	Panajachel	4	Abril	2023-04-14T00:00:00	2024-11-08T19:00:00	4	Temperatura máxima	21.4
31119	7	Sololá	710	Panajachel	8	Panajachel	4	Abril	2023-04-14T00:00:00	2024-11-08T19:00:00	3	Temperatura mínima	21
31120	7	Sololá	710	Panajachel	8	Panajachel	4	Abril	2023-04-14T00:00:00	2024-11-08T19:00:00	5	Humedad	81
31121	7	Sololá	710	Panajachel	8	Panajachel	4	Abril	2023-04-14T00:00:00	2024-11-08T19:00:00	6	Velocidad del viento	1.6
31122	7	Sololá	710	Panajachel	8	Panajachel	4	Abril	2023-04-14T00:00:00	2024-11-08T19:00:00	7	Dirección del viento	1.61
31123	7	Sololá	710	Panajachel	8	Panajachel	4	Abril	2023-04-14T00:00:00	2024-11-08T19:00:00	1	Precipitación	0
31124	7	Sololá	710	Panajachel	8	Panajachel	4	Abril	2023-04-14T00:00:00	2024-11-08T19:00:00	8	Radiación solar	0
31125	7	Sololá	710	Panajachel	8	Panajachel	4	Abril	2023-04-14T00:00:00	2024-11-08T20:00:00	2	Temperatura media	20.7
31126	7	Sololá	710	Panajachel	8	Panajachel	4	Abril	2023-04-14T00:00:00	2024-11-08T20:00:00	4	Temperatura máxima	21.1
31127	7	Sololá	710	Panajachel	8	Panajachel	4	Abril	2023-04-14T00:00:00	2024-11-08T20:00:00	3	Temperatura mínima	20.7
31128	7	Sololá	710	Panajachel	8	Panajachel	4	Abril	2023-04-14T00:00:00	2024-11-08T20:00:00	5	Humedad	84
31129	7	Sololá	710	Panajachel	8	Panajachel	4	Abril	2023-04-14T00:00:00	2024-11-08T20:00:00	6	Velocidad del viento	1.6
31130	7	Sololá	710	Panajachel	8	Panajachel	4	Abril	2023-04-14T00:00:00	2024-11-08T20:00:00	7	Dirección del viento	1.61
31131	7	Sololá	710	Panajachel	8	Panajachel	4	Abril	2023-04-14T00:00:00	2024-11-08T20:00:00	1	Precipitación	0
31132	7	Sololá	710	Panajachel	8	Panajachel	4	Abril	2023-04-14T00:00:00	2024-11-08T20:00:00	8	Radiación solar	0
31133	7	Sololá	710	Panajachel	8	Panajachel	4	Abril	2023-04-14T00:00:00	2024-11-08T21:00:00	2	Temperatura media	20.3
31134	7	Sololá	710	Panajachel	8	Panajachel	4	Abril	2023-04-14T00:00:00	2024-11-08T21:00:00	4	Temperatura máxima	20.7
31135	7	Sololá	710	Panajachel	8	Panajachel	4	Abril	2023-04-14T00:00:00	2024-11-08T21:00:00	3	Temperatura mínima	20.3
31136	7	Sololá	710	Panajachel	8	Panajachel	4	Abril	2023-04-14T00:00:00	2024-11-08T21:00:00	5	Humedad	85
31137	7	Sololá	710	Panajachel	8	Panajachel	4	Abril	2023-04-14T00:00:00	2024-11-08T21:00:00	6	Velocidad del viento	1.6
31138	7	Sololá	710	Panajachel	8	Panajachel	4	Abril	2023-04-14T00:00:00	2024-11-08T21:00:00	7	Dirección del viento	1.61
31139	7	Sololá	710	Panajachel	8	Panajachel	4	Abril	2023-04-14T00:00:00	2024-11-08T21:00:00	1	Precipitación	0
31140	7	Sololá	710	Panajachel	8	Panajachel	4	Abril	2023-04-14T00:00:00	2024-11-08T21:00:00	8	Radiación solar	0
31141	7	Sololá	710	Panajachel	8	Panajachel	4	Abril	2023-04-14T00:00:00	2024-11-08T22:00:00	2	Temperatura media	19.3
31142	7	Sololá	710	Panajachel	8	Panajachel	4	Abril	2023-04-14T00:00:00	2024-11-08T22:00:00	4	Temperatura máxima	20.3
31143	7	Sololá	710	Panajachel	8	Panajachel	4	Abril	2023-04-14T00:00:00	2024-11-08T22:00:00	3	Temperatura mínima	19.2
31144	7	Sololá	710	Panajachel	8	Panajachel	4	Abril	2023-04-14T00:00:00	2024-11-08T22:00:00	5	Humedad	80
31145	7	Sololá	710	Panajachel	8	Panajachel	4	Abril	2023-04-14T00:00:00	2024-11-08T22:00:00	6	Velocidad del viento	6.4
31146	7	Sololá	710	Panajachel	8	Panajachel	4	Abril	2023-04-14T00:00:00	2024-11-08T22:00:00	7	Dirección del viento	6.44
31147	7	Sololá	710	Panajachel	8	Panajachel	4	Abril	2023-04-14T00:00:00	2024-11-08T22:00:00	1	Precipitación	0
31148	7	Sololá	710	Panajachel	8	Panajachel	4	Abril	2023-04-14T00:00:00	2024-11-08T22:00:00	8	Radiación solar	0
31149	7	Sololá	710	Panajachel	8	Panajachel	4	Abril	2023-04-14T00:00:00	2024-11-08T23:00:00	2	Temperatura media	19.3
31150	7	Sololá	710	Panajachel	8	Panajachel	4	Abril	2023-04-14T00:00:00	2024-11-08T23:00:00	4	Temperatura máxima	19.5
31151	7	Sololá	710	Panajachel	8	Panajachel	4	Abril	2023-04-14T00:00:00	2024-11-08T23:00:00	3	Temperatura mínima	19.3
31152	7	Sololá	710	Panajachel	8	Panajachel	4	Abril	2023-04-14T00:00:00	2024-11-08T23:00:00	5	Humedad	76
31153	7	Sololá	710	Panajachel	8	Panajachel	4	Abril	2023-04-14T00:00:00	2024-11-08T23:00:00	6	Velocidad del viento	9.7
31154	7	Sololá	710	Panajachel	8	Panajachel	4	Abril	2023-04-14T00:00:00	2024-11-08T23:00:00	7	Dirección del viento	9.66
31155	7	Sololá	710	Panajachel	8	Panajachel	4	Abril	2023-04-14T00:00:00	2024-11-08T23:00:00	1	Precipitación	0
31156	7	Sololá	710	Panajachel	8	Panajachel	4	Abril	2023-04-14T00:00:00	2024-11-08T23:00:00	8	Radiación solar	0
31157	7	Sololá	710	Panajachel	8	Panajachel	4	Abril	2023-04-15T00:00:00	2024-11-08T00:00:00	2	Temperatura media	19.1
31158	7	Sololá	710	Panajachel	8	Panajachel	4	Abril	2023-04-15T00:00:00	2024-11-08T00:00:00	4	Temperatura máxima	19.4
31159	7	Sololá	710	Panajachel	8	Panajachel	4	Abril	2023-04-15T00:00:00	2024-11-08T00:00:00	3	Temperatura mínima	19.1
31160	7	Sololá	710	Panajachel	8	Panajachel	4	Abril	2023-04-15T00:00:00	2024-11-08T00:00:00	5	Humedad	76
31161	7	Sololá	710	Panajachel	8	Panajachel	4	Abril	2023-04-15T00:00:00	2024-11-08T00:00:00	6	Velocidad del viento	8
31162	7	Sololá	710	Panajachel	8	Panajachel	4	Abril	2023-04-15T00:00:00	2024-11-08T00:00:00	7	Dirección del viento	8.05
31163	7	Sololá	710	Panajachel	8	Panajachel	4	Abril	2023-04-15T00:00:00	2024-11-08T00:00:00	1	Precipitación	0
31164	7	Sololá	710	Panajachel	8	Panajachel	4	Abril	2023-04-15T00:00:00	2024-11-08T00:00:00	8	Radiación solar	0
31165	7	Sololá	710	Panajachel	8	Panajachel	4	Abril	2023-04-15T00:00:00	2024-11-08T01:00:00	2	Temperatura media	18.9
31166	7	Sololá	710	Panajachel	8	Panajachel	4	Abril	2023-04-15T00:00:00	2024-11-08T01:00:00	4	Temperatura máxima	19.1
31167	7	Sololá	710	Panajachel	8	Panajachel	4	Abril	2023-04-15T00:00:00	2024-11-08T01:00:00	3	Temperatura mínima	18.8
31168	7	Sololá	710	Panajachel	8	Panajachel	4	Abril	2023-04-15T00:00:00	2024-11-08T01:00:00	5	Humedad	76
31169	7	Sololá	710	Panajachel	8	Panajachel	4	Abril	2023-04-15T00:00:00	2024-11-08T01:00:00	6	Velocidad del viento	6.4
31170	7	Sololá	710	Panajachel	8	Panajachel	4	Abril	2023-04-15T00:00:00	2024-11-08T01:00:00	7	Dirección del viento	6.44
31171	7	Sololá	710	Panajachel	8	Panajachel	4	Abril	2023-04-15T00:00:00	2024-11-08T01:00:00	1	Precipitación	0
31172	7	Sololá	710	Panajachel	8	Panajachel	4	Abril	2023-04-15T00:00:00	2024-11-08T01:00:00	8	Radiación solar	0
31173	7	Sololá	710	Panajachel	8	Panajachel	4	Abril	2023-04-15T00:00:00	2024-11-08T02:00:00	2	Temperatura media	19.2
31174	7	Sololá	710	Panajachel	8	Panajachel	4	Abril	2023-04-15T00:00:00	2024-11-08T02:00:00	4	Temperatura máxima	19.3
31175	7	Sololá	710	Panajachel	8	Panajachel	4	Abril	2023-04-15T00:00:00	2024-11-08T02:00:00	3	Temperatura mínima	18.9
31176	7	Sololá	710	Panajachel	8	Panajachel	4	Abril	2023-04-15T00:00:00	2024-11-08T02:00:00	5	Humedad	81
31177	7	Sololá	710	Panajachel	8	Panajachel	4	Abril	2023-04-15T00:00:00	2024-11-08T02:00:00	6	Velocidad del viento	1.6
31178	7	Sololá	710	Panajachel	8	Panajachel	4	Abril	2023-04-15T00:00:00	2024-11-08T02:00:00	7	Dirección del viento	1.61
31179	7	Sololá	710	Panajachel	8	Panajachel	4	Abril	2023-04-15T00:00:00	2024-11-08T02:00:00	1	Precipitación	0
31180	7	Sololá	710	Panajachel	8	Panajachel	4	Abril	2023-04-15T00:00:00	2024-11-08T02:00:00	8	Radiación solar	0
31181	7	Sololá	710	Panajachel	8	Panajachel	4	Abril	2023-04-15T00:00:00	2024-11-08T03:00:00	2	Temperatura media	18.7
31182	7	Sololá	710	Panajachel	8	Panajachel	4	Abril	2023-04-15T00:00:00	2024-11-08T03:00:00	4	Temperatura máxima	19.2
31183	7	Sololá	710	Panajachel	8	Panajachel	4	Abril	2023-04-15T00:00:00	2024-11-08T03:00:00	3	Temperatura mínima	18.6
31184	7	Sololá	710	Panajachel	8	Panajachel	4	Abril	2023-04-15T00:00:00	2024-11-08T03:00:00	5	Humedad	78
31185	7	Sololá	710	Panajachel	8	Panajachel	4	Abril	2023-04-15T00:00:00	2024-11-08T03:00:00	6	Velocidad del viento	4.8
31186	7	Sololá	710	Panajachel	8	Panajachel	4	Abril	2023-04-15T00:00:00	2024-11-08T03:00:00	7	Dirección del viento	4.83
31187	7	Sololá	710	Panajachel	8	Panajachel	4	Abril	2023-04-15T00:00:00	2024-11-08T03:00:00	1	Precipitación	0
31188	7	Sololá	710	Panajachel	8	Panajachel	4	Abril	2023-04-15T00:00:00	2024-11-08T03:00:00	8	Radiación solar	0
31189	7	Sololá	710	Panajachel	8	Panajachel	4	Abril	2023-04-15T00:00:00	2024-11-08T04:00:00	2	Temperatura media	17.8
31190	7	Sololá	710	Panajachel	8	Panajachel	4	Abril	2023-04-15T00:00:00	2024-11-08T04:00:00	4	Temperatura máxima	18.7
31191	7	Sololá	710	Panajachel	8	Panajachel	4	Abril	2023-04-15T00:00:00	2024-11-08T04:00:00	3	Temperatura mínima	17.8
31192	7	Sololá	710	Panajachel	8	Panajachel	4	Abril	2023-04-15T00:00:00	2024-11-08T04:00:00	5	Humedad	81
31193	7	Sololá	710	Panajachel	8	Panajachel	4	Abril	2023-04-15T00:00:00	2024-11-08T04:00:00	6	Velocidad del viento	4.8
31194	7	Sololá	710	Panajachel	8	Panajachel	4	Abril	2023-04-15T00:00:00	2024-11-08T04:00:00	7	Dirección del viento	4.83
31195	7	Sololá	710	Panajachel	8	Panajachel	4	Abril	2023-04-15T00:00:00	2024-11-08T04:00:00	1	Precipitación	0
31196	7	Sololá	710	Panajachel	8	Panajachel	4	Abril	2023-04-15T00:00:00	2024-11-08T04:00:00	8	Radiación solar	0
31197	7	Sololá	710	Panajachel	8	Panajachel	4	Abril	2023-04-15T00:00:00	2024-11-08T05:00:00	2	Temperatura media	17.3
31198	7	Sololá	710	Panajachel	8	Panajachel	4	Abril	2023-04-15T00:00:00	2024-11-08T05:00:00	4	Temperatura máxima	17.8
31199	7	Sololá	710	Panajachel	8	Panajachel	4	Abril	2023-04-15T00:00:00	2024-11-08T05:00:00	3	Temperatura mínima	17.3
31200	7	Sololá	710	Panajachel	8	Panajachel	4	Abril	2023-04-15T00:00:00	2024-11-08T05:00:00	5	Humedad	78
31201	7	Sololá	710	Panajachel	8	Panajachel	4	Abril	2023-04-15T00:00:00	2024-11-08T05:00:00	6	Velocidad del viento	9.7
31202	7	Sololá	710	Panajachel	8	Panajachel	4	Abril	2023-04-15T00:00:00	2024-11-08T05:00:00	7	Dirección del viento	9.66
31203	7	Sololá	710	Panajachel	8	Panajachel	4	Abril	2023-04-15T00:00:00	2024-11-08T05:00:00	1	Precipitación	0
31204	7	Sololá	710	Panajachel	8	Panajachel	4	Abril	2023-04-15T00:00:00	2024-11-08T05:00:00	8	Radiación solar	0
31205	7	Sololá	710	Panajachel	8	Panajachel	4	Abril	2023-04-15T00:00:00	2024-11-08T06:00:00	2	Temperatura media	16.8
31206	7	Sololá	710	Panajachel	8	Panajachel	4	Abril	2023-04-15T00:00:00	2024-11-08T06:00:00	4	Temperatura máxima	17.7
31207	7	Sololá	710	Panajachel	8	Panajachel	4	Abril	2023-04-15T00:00:00	2024-11-08T06:00:00	3	Temperatura mínima	16.8
31208	7	Sololá	710	Panajachel	8	Panajachel	4	Abril	2023-04-15T00:00:00	2024-11-08T06:00:00	5	Humedad	77
31209	7	Sololá	710	Panajachel	8	Panajachel	4	Abril	2023-04-15T00:00:00	2024-11-08T06:00:00	6	Velocidad del viento	9.7
31210	7	Sololá	710	Panajachel	8	Panajachel	4	Abril	2023-04-15T00:00:00	2024-11-08T06:00:00	7	Dirección del viento	9.66
31211	7	Sololá	710	Panajachel	8	Panajachel	4	Abril	2023-04-15T00:00:00	2024-11-08T06:00:00	1	Precipitación	0
31212	7	Sololá	710	Panajachel	8	Panajachel	4	Abril	2023-04-15T00:00:00	2024-11-08T06:00:00	8	Radiación solar	0
31213	7	Sololá	710	Panajachel	8	Panajachel	4	Abril	2023-04-15T00:00:00	2024-11-08T07:00:00	2	Temperatura media	17.4
31214	7	Sololá	710	Panajachel	8	Panajachel	4	Abril	2023-04-15T00:00:00	2024-11-08T07:00:00	4	Temperatura máxima	17.4
31215	7	Sololá	710	Panajachel	8	Panajachel	4	Abril	2023-04-15T00:00:00	2024-11-08T07:00:00	3	Temperatura mínima	16.7
31216	7	Sololá	710	Panajachel	8	Panajachel	4	Abril	2023-04-15T00:00:00	2024-11-08T07:00:00	5	Humedad	74
31217	7	Sololá	710	Panajachel	8	Panajachel	4	Abril	2023-04-15T00:00:00	2024-11-08T07:00:00	6	Velocidad del viento	11.3
31218	7	Sololá	710	Panajachel	8	Panajachel	4	Abril	2023-04-15T00:00:00	2024-11-08T07:00:00	7	Dirección del viento	11.27
31219	7	Sololá	710	Panajachel	8	Panajachel	4	Abril	2023-04-15T00:00:00	2024-11-08T07:00:00	1	Precipitación	0
31220	7	Sololá	710	Panajachel	8	Panajachel	4	Abril	2023-04-15T00:00:00	2024-11-08T07:00:00	8	Radiación solar	65
31221	7	Sololá	710	Panajachel	8	Panajachel	4	Abril	2023-04-15T00:00:00	2024-11-08T08:00:00	2	Temperatura media	20.1
31222	7	Sololá	710	Panajachel	8	Panajachel	4	Abril	2023-04-15T00:00:00	2024-11-08T08:00:00	4	Temperatura máxima	20.1
31223	7	Sololá	710	Panajachel	8	Panajachel	4	Abril	2023-04-15T00:00:00	2024-11-08T08:00:00	3	Temperatura mínima	17.4
31224	7	Sololá	710	Panajachel	8	Panajachel	4	Abril	2023-04-15T00:00:00	2024-11-08T08:00:00	5	Humedad	69
31225	7	Sololá	710	Panajachel	8	Panajachel	4	Abril	2023-04-15T00:00:00	2024-11-08T08:00:00	6	Velocidad del viento	6.4
31226	7	Sololá	710	Panajachel	8	Panajachel	4	Abril	2023-04-15T00:00:00	2024-11-08T08:00:00	7	Dirección del viento	6.44
31227	7	Sololá	710	Panajachel	8	Panajachel	4	Abril	2023-04-15T00:00:00	2024-11-08T08:00:00	1	Precipitación	0
31228	7	Sololá	710	Panajachel	8	Panajachel	4	Abril	2023-04-15T00:00:00	2024-11-08T08:00:00	8	Radiación solar	215
31229	7	Sololá	710	Panajachel	8	Panajachel	4	Abril	2023-04-15T00:00:00	2024-11-08T09:00:00	2	Temperatura media	21.5
31230	7	Sololá	710	Panajachel	8	Panajachel	4	Abril	2023-04-15T00:00:00	2024-11-08T09:00:00	4	Temperatura máxima	21.6
31231	7	Sololá	710	Panajachel	8	Panajachel	4	Abril	2023-04-15T00:00:00	2024-11-08T09:00:00	3	Temperatura mínima	20.2
31232	7	Sololá	710	Panajachel	8	Panajachel	4	Abril	2023-04-15T00:00:00	2024-11-08T09:00:00	5	Humedad	72
31233	7	Sololá	710	Panajachel	8	Panajachel	4	Abril	2023-04-15T00:00:00	2024-11-08T09:00:00	6	Velocidad del viento	3.2
31234	7	Sololá	710	Panajachel	8	Panajachel	4	Abril	2023-04-15T00:00:00	2024-11-08T09:00:00	7	Dirección del viento	3.22
31235	7	Sololá	710	Panajachel	8	Panajachel	4	Abril	2023-04-15T00:00:00	2024-11-08T09:00:00	1	Precipitación	0
31236	7	Sololá	710	Panajachel	8	Panajachel	4	Abril	2023-04-15T00:00:00	2024-11-08T09:00:00	8	Radiación solar	254
31237	7	Sololá	710	Panajachel	8	Panajachel	4	Abril	2023-04-15T00:00:00	2024-11-08T10:00:00	2	Temperatura media	23.1
31238	7	Sololá	710	Panajachel	8	Panajachel	4	Abril	2023-04-15T00:00:00	2024-11-08T10:00:00	4	Temperatura máxima	23.1
31239	7	Sololá	710	Panajachel	8	Panajachel	4	Abril	2023-04-15T00:00:00	2024-11-08T10:00:00	3	Temperatura mínima	21.5
31240	7	Sololá	710	Panajachel	8	Panajachel	4	Abril	2023-04-15T00:00:00	2024-11-08T10:00:00	5	Humedad	63
31241	7	Sololá	710	Panajachel	8	Panajachel	4	Abril	2023-04-15T00:00:00	2024-11-08T10:00:00	6	Velocidad del viento	4.8
31242	7	Sololá	710	Panajachel	8	Panajachel	4	Abril	2023-04-15T00:00:00	2024-11-08T10:00:00	7	Dirección del viento	4.83
31243	7	Sololá	710	Panajachel	8	Panajachel	4	Abril	2023-04-15T00:00:00	2024-11-08T10:00:00	1	Precipitación	0
31244	7	Sololá	710	Panajachel	8	Panajachel	4	Abril	2023-04-15T00:00:00	2024-11-08T10:00:00	8	Radiación solar	309
31245	7	Sololá	710	Panajachel	8	Panajachel	4	Abril	2023-04-15T00:00:00	2024-11-08T11:00:00	2	Temperatura media	24.2
31246	7	Sololá	710	Panajachel	8	Panajachel	4	Abril	2023-04-15T00:00:00	2024-11-08T11:00:00	4	Temperatura máxima	24.3
31247	7	Sololá	710	Panajachel	8	Panajachel	4	Abril	2023-04-15T00:00:00	2024-11-08T11:00:00	3	Temperatura mínima	23.1
31248	7	Sololá	710	Panajachel	8	Panajachel	4	Abril	2023-04-15T00:00:00	2024-11-08T11:00:00	5	Humedad	65
31249	7	Sololá	710	Panajachel	8	Panajachel	4	Abril	2023-04-15T00:00:00	2024-11-08T11:00:00	6	Velocidad del viento	4.8
31250	7	Sololá	710	Panajachel	8	Panajachel	4	Abril	2023-04-15T00:00:00	2024-11-08T11:00:00	7	Dirección del viento	4.83
31251	7	Sololá	710	Panajachel	8	Panajachel	4	Abril	2023-04-15T00:00:00	2024-11-08T11:00:00	1	Precipitación	0
31252	7	Sololá	710	Panajachel	8	Panajachel	4	Abril	2023-04-15T00:00:00	2024-11-08T11:00:00	8	Radiación solar	331
31253	7	Sololá	710	Panajachel	8	Panajachel	4	Abril	2023-04-15T00:00:00	2024-11-08T12:00:00	2	Temperatura media	24.2
31254	7	Sololá	710	Panajachel	8	Panajachel	4	Abril	2023-04-15T00:00:00	2024-11-08T12:00:00	4	Temperatura máxima	24.3
31255	7	Sololá	710	Panajachel	8	Panajachel	4	Abril	2023-04-15T00:00:00	2024-11-08T12:00:00	3	Temperatura mínima	23.6
31256	7	Sololá	710	Panajachel	8	Panajachel	4	Abril	2023-04-15T00:00:00	2024-11-08T12:00:00	5	Humedad	65
31257	7	Sololá	710	Panajachel	8	Panajachel	4	Abril	2023-04-15T00:00:00	2024-11-08T12:00:00	6	Velocidad del viento	8
31258	7	Sololá	710	Panajachel	8	Panajachel	4	Abril	2023-04-15T00:00:00	2024-11-08T12:00:00	7	Dirección del viento	8.05
31259	7	Sololá	710	Panajachel	8	Panajachel	4	Abril	2023-04-15T00:00:00	2024-11-08T12:00:00	1	Precipitación	0
31260	7	Sololá	710	Panajachel	8	Panajachel	4	Abril	2023-04-15T00:00:00	2024-11-08T12:00:00	8	Radiación solar	340
31261	7	Sololá	710	Panajachel	8	Panajachel	4	Abril	2023-04-15T00:00:00	2024-11-08T13:00:00	2	Temperatura media	25.4
31262	7	Sololá	710	Panajachel	8	Panajachel	4	Abril	2023-04-15T00:00:00	2024-11-08T13:00:00	4	Temperatura máxima	25.5
31263	7	Sololá	710	Panajachel	8	Panajachel	4	Abril	2023-04-15T00:00:00	2024-11-08T13:00:00	3	Temperatura mínima	24.1
31264	7	Sololá	710	Panajachel	8	Panajachel	4	Abril	2023-04-15T00:00:00	2024-11-08T13:00:00	5	Humedad	64
31265	7	Sololá	710	Panajachel	8	Panajachel	4	Abril	2023-04-15T00:00:00	2024-11-08T13:00:00	6	Velocidad del viento	6.4
31266	7	Sololá	710	Panajachel	8	Panajachel	4	Abril	2023-04-15T00:00:00	2024-11-08T13:00:00	7	Dirección del viento	6.44
31267	7	Sololá	710	Panajachel	8	Panajachel	4	Abril	2023-04-15T00:00:00	2024-11-08T13:00:00	1	Precipitación	0
31268	7	Sololá	710	Panajachel	8	Panajachel	4	Abril	2023-04-15T00:00:00	2024-11-08T13:00:00	8	Radiación solar	351
31269	7	Sololá	710	Panajachel	8	Panajachel	4	Abril	2023-04-15T00:00:00	2024-11-08T14:00:00	2	Temperatura media	24.8
31270	7	Sololá	710	Panajachel	8	Panajachel	4	Abril	2023-04-15T00:00:00	2024-11-08T14:00:00	4	Temperatura máxima	25.7
31271	7	Sololá	710	Panajachel	8	Panajachel	4	Abril	2023-04-15T00:00:00	2024-11-08T14:00:00	3	Temperatura mínima	24.6
31272	7	Sololá	710	Panajachel	8	Panajachel	4	Abril	2023-04-15T00:00:00	2024-11-08T14:00:00	5	Humedad	67
31273	7	Sololá	710	Panajachel	8	Panajachel	4	Abril	2023-04-15T00:00:00	2024-11-08T14:00:00	6	Velocidad del viento	6.4
31274	7	Sololá	710	Panajachel	8	Panajachel	4	Abril	2023-04-15T00:00:00	2024-11-08T14:00:00	7	Dirección del viento	6.44
31275	7	Sololá	710	Panajachel	8	Panajachel	4	Abril	2023-04-15T00:00:00	2024-11-08T14:00:00	1	Precipitación	0
31276	7	Sololá	710	Panajachel	8	Panajachel	4	Abril	2023-04-15T00:00:00	2024-11-08T14:00:00	8	Radiación solar	286
31277	7	Sololá	710	Panajachel	8	Panajachel	4	Abril	2023-04-15T00:00:00	2024-11-08T15:00:00	2	Temperatura media	23
31278	7	Sololá	710	Panajachel	8	Panajachel	4	Abril	2023-04-15T00:00:00	2024-11-08T15:00:00	4	Temperatura máxima	24.8
31279	7	Sololá	710	Panajachel	8	Panajachel	4	Abril	2023-04-15T00:00:00	2024-11-08T15:00:00	3	Temperatura mínima	23
31280	7	Sololá	710	Panajachel	8	Panajachel	4	Abril	2023-04-15T00:00:00	2024-11-08T15:00:00	5	Humedad	74
31281	7	Sololá	710	Panajachel	8	Panajachel	4	Abril	2023-04-15T00:00:00	2024-11-08T15:00:00	6	Velocidad del viento	6.4
31282	7	Sololá	710	Panajachel	8	Panajachel	4	Abril	2023-04-15T00:00:00	2024-11-08T15:00:00	7	Dirección del viento	6.44
31283	7	Sololá	710	Panajachel	8	Panajachel	4	Abril	2023-04-15T00:00:00	2024-11-08T15:00:00	1	Precipitación	0
31284	7	Sololá	710	Panajachel	8	Panajachel	4	Abril	2023-04-15T00:00:00	2024-11-08T15:00:00	8	Radiación solar	238
31285	7	Sololá	710	Panajachel	8	Panajachel	4	Abril	2023-04-15T00:00:00	2024-11-08T16:00:00	2	Temperatura media	21.9
31286	7	Sololá	710	Panajachel	8	Panajachel	4	Abril	2023-04-15T00:00:00	2024-11-08T16:00:00	4	Temperatura máxima	23
31287	7	Sololá	710	Panajachel	8	Panajachel	4	Abril	2023-04-15T00:00:00	2024-11-08T16:00:00	3	Temperatura mínima	21.9
31288	7	Sololá	710	Panajachel	8	Panajachel	4	Abril	2023-04-15T00:00:00	2024-11-08T16:00:00	5	Humedad	78
31289	7	Sololá	710	Panajachel	8	Panajachel	4	Abril	2023-04-15T00:00:00	2024-11-08T16:00:00	6	Velocidad del viento	4.8
31290	7	Sololá	710	Panajachel	8	Panajachel	4	Abril	2023-04-15T00:00:00	2024-11-08T16:00:00	7	Dirección del viento	4.83
31291	7	Sololá	710	Panajachel	8	Panajachel	4	Abril	2023-04-15T00:00:00	2024-11-08T16:00:00	1	Precipitación	0
31292	7	Sololá	710	Panajachel	8	Panajachel	4	Abril	2023-04-15T00:00:00	2024-11-08T16:00:00	8	Radiación solar	254
31293	7	Sololá	710	Panajachel	8	Panajachel	4	Abril	2023-04-15T00:00:00	2024-11-08T17:00:00	2	Temperatura media	21.5
31294	7	Sololá	710	Panajachel	8	Panajachel	4	Abril	2023-04-15T00:00:00	2024-11-08T17:00:00	4	Temperatura máxima	22.1
31295	7	Sololá	710	Panajachel	8	Panajachel	4	Abril	2023-04-15T00:00:00	2024-11-08T17:00:00	3	Temperatura mínima	21.5
31296	7	Sololá	710	Panajachel	8	Panajachel	4	Abril	2023-04-15T00:00:00	2024-11-08T17:00:00	5	Humedad	79
31297	7	Sololá	710	Panajachel	8	Panajachel	4	Abril	2023-04-15T00:00:00	2024-11-08T17:00:00	6	Velocidad del viento	4.8
31298	7	Sololá	710	Panajachel	8	Panajachel	4	Abril	2023-04-15T00:00:00	2024-11-08T17:00:00	7	Dirección del viento	4.83
31299	7	Sololá	710	Panajachel	8	Panajachel	4	Abril	2023-04-15T00:00:00	2024-11-08T17:00:00	1	Precipitación	0
31300	7	Sololá	710	Panajachel	8	Panajachel	4	Abril	2023-04-15T00:00:00	2024-11-08T17:00:00	8	Radiación solar	115
31301	7	Sololá	710	Panajachel	8	Panajachel	4	Abril	2023-04-15T00:00:00	2024-11-08T18:00:00	2	Temperatura media	21.3
31302	7	Sololá	710	Panajachel	8	Panajachel	4	Abril	2023-04-15T00:00:00	2024-11-08T18:00:00	4	Temperatura máxima	21.6
31303	7	Sololá	710	Panajachel	8	Panajachel	4	Abril	2023-04-15T00:00:00	2024-11-08T18:00:00	3	Temperatura mínima	21.3
31304	7	Sololá	710	Panajachel	8	Panajachel	4	Abril	2023-04-15T00:00:00	2024-11-08T18:00:00	5	Humedad	80
31305	7	Sololá	710	Panajachel	8	Panajachel	4	Abril	2023-04-15T00:00:00	2024-11-08T18:00:00	6	Velocidad del viento	3.2
31306	7	Sololá	710	Panajachel	8	Panajachel	4	Abril	2023-04-15T00:00:00	2024-11-08T18:00:00	7	Dirección del viento	3.22
31307	7	Sololá	710	Panajachel	8	Panajachel	4	Abril	2023-04-15T00:00:00	2024-11-08T18:00:00	1	Precipitación	0
31308	7	Sololá	710	Panajachel	8	Panajachel	4	Abril	2023-04-15T00:00:00	2024-11-08T18:00:00	8	Radiación solar	10
31309	7	Sololá	710	Panajachel	8	Panajachel	4	Abril	2023-04-15T00:00:00	2024-11-08T19:00:00	2	Temperatura media	21.1
31310	7	Sololá	710	Panajachel	8	Panajachel	4	Abril	2023-04-15T00:00:00	2024-11-08T19:00:00	4	Temperatura máxima	21.3
31311	7	Sololá	710	Panajachel	8	Panajachel	4	Abril	2023-04-15T00:00:00	2024-11-08T19:00:00	3	Temperatura mínima	21.1
31312	7	Sololá	710	Panajachel	8	Panajachel	4	Abril	2023-04-15T00:00:00	2024-11-08T19:00:00	5	Humedad	82
31313	7	Sololá	710	Panajachel	8	Panajachel	4	Abril	2023-04-15T00:00:00	2024-11-08T19:00:00	6	Velocidad del viento	1.6
31314	7	Sololá	710	Panajachel	8	Panajachel	4	Abril	2023-04-15T00:00:00	2024-11-08T19:00:00	7	Dirección del viento	1.61
31315	7	Sololá	710	Panajachel	8	Panajachel	4	Abril	2023-04-15T00:00:00	2024-11-08T19:00:00	1	Precipitación	0
31316	7	Sololá	710	Panajachel	8	Panajachel	4	Abril	2023-04-15T00:00:00	2024-11-08T19:00:00	8	Radiación solar	0
31317	7	Sololá	710	Panajachel	8	Panajachel	4	Abril	2023-04-15T00:00:00	2024-11-08T20:00:00	2	Temperatura media	21
31318	7	Sololá	710	Panajachel	8	Panajachel	4	Abril	2023-04-15T00:00:00	2024-11-08T20:00:00	4	Temperatura máxima	21.2
31319	7	Sololá	710	Panajachel	8	Panajachel	4	Abril	2023-04-15T00:00:00	2024-11-08T20:00:00	3	Temperatura mínima	20.8
31320	7	Sololá	710	Panajachel	8	Panajachel	4	Abril	2023-04-15T00:00:00	2024-11-08T20:00:00	5	Humedad	83
31321	7	Sololá	710	Panajachel	8	Panajachel	4	Abril	2023-04-15T00:00:00	2024-11-08T20:00:00	6	Velocidad del viento	1.6
31322	7	Sololá	710	Panajachel	8	Panajachel	4	Abril	2023-04-15T00:00:00	2024-11-08T20:00:00	7	Dirección del viento	1.61
31323	7	Sololá	710	Panajachel	8	Panajachel	4	Abril	2023-04-15T00:00:00	2024-11-08T20:00:00	1	Precipitación	0
31324	7	Sololá	710	Panajachel	8	Panajachel	4	Abril	2023-04-15T00:00:00	2024-11-08T20:00:00	8	Radiación solar	0
31325	7	Sololá	710	Panajachel	8	Panajachel	4	Abril	2023-04-15T00:00:00	2024-11-08T21:00:00	2	Temperatura media	20.7
31326	7	Sololá	710	Panajachel	8	Panajachel	4	Abril	2023-04-15T00:00:00	2024-11-08T21:00:00	4	Temperatura máxima	21.1
31327	7	Sololá	710	Panajachel	8	Panajachel	4	Abril	2023-04-15T00:00:00	2024-11-08T21:00:00	3	Temperatura mínima	20.7
31328	7	Sololá	710	Panajachel	8	Panajachel	4	Abril	2023-04-15T00:00:00	2024-11-08T21:00:00	5	Humedad	85
31329	7	Sololá	710	Panajachel	8	Panajachel	4	Abril	2023-04-15T00:00:00	2024-11-08T21:00:00	6	Velocidad del viento	0
31330	7	Sololá	710	Panajachel	8	Panajachel	4	Abril	2023-04-15T00:00:00	2024-11-08T21:00:00	7	Dirección del viento	0
31331	7	Sololá	710	Panajachel	8	Panajachel	4	Abril	2023-04-15T00:00:00	2024-11-08T21:00:00	1	Precipitación	0
31332	7	Sololá	710	Panajachel	8	Panajachel	4	Abril	2023-04-15T00:00:00	2024-11-08T21:00:00	8	Radiación solar	0
31333	7	Sololá	710	Panajachel	8	Panajachel	4	Abril	2023-04-15T00:00:00	2024-11-08T22:00:00	2	Temperatura media	20
31334	7	Sololá	710	Panajachel	8	Panajachel	4	Abril	2023-04-15T00:00:00	2024-11-08T22:00:00	4	Temperatura máxima	20.7
31335	7	Sololá	710	Panajachel	8	Panajachel	4	Abril	2023-04-15T00:00:00	2024-11-08T22:00:00	3	Temperatura mínima	20
31336	7	Sololá	710	Panajachel	8	Panajachel	4	Abril	2023-04-15T00:00:00	2024-11-08T22:00:00	5	Humedad	83
31337	7	Sololá	710	Panajachel	8	Panajachel	4	Abril	2023-04-15T00:00:00	2024-11-08T22:00:00	6	Velocidad del viento	1.6
31338	7	Sololá	710	Panajachel	8	Panajachel	4	Abril	2023-04-15T00:00:00	2024-11-08T22:00:00	7	Dirección del viento	1.61
31339	7	Sololá	710	Panajachel	8	Panajachel	4	Abril	2023-04-15T00:00:00	2024-11-08T22:00:00	1	Precipitación	0
31340	7	Sololá	710	Panajachel	8	Panajachel	4	Abril	2023-04-15T00:00:00	2024-11-08T22:00:00	8	Radiación solar	0
31341	7	Sololá	710	Panajachel	8	Panajachel	4	Abril	2023-04-15T00:00:00	2024-11-08T23:00:00	2	Temperatura media	19.3
31342	7	Sololá	710	Panajachel	8	Panajachel	4	Abril	2023-04-15T00:00:00	2024-11-08T23:00:00	4	Temperatura máxima	20.1
31343	7	Sololá	710	Panajachel	8	Panajachel	4	Abril	2023-04-15T00:00:00	2024-11-08T23:00:00	3	Temperatura mínima	19.3
31344	7	Sololá	710	Panajachel	8	Panajachel	4	Abril	2023-04-15T00:00:00	2024-11-08T23:00:00	5	Humedad	84
31345	7	Sololá	710	Panajachel	8	Panajachel	4	Abril	2023-04-15T00:00:00	2024-11-08T23:00:00	6	Velocidad del viento	3.2
31346	7	Sololá	710	Panajachel	8	Panajachel	4	Abril	2023-04-15T00:00:00	2024-11-08T23:00:00	7	Dirección del viento	3.22
31347	7	Sololá	710	Panajachel	8	Panajachel	4	Abril	2023-04-15T00:00:00	2024-11-08T23:00:00	1	Precipitación	0
31348	7	Sololá	710	Panajachel	8	Panajachel	4	Abril	2023-04-15T00:00:00	2024-11-08T23:00:00	8	Radiación solar	0
31349	7	Sololá	710	Panajachel	8	Panajachel	4	Abril	2023-04-16T00:00:00	2024-11-08T00:00:00	2	Temperatura media	19.1
31350	7	Sololá	710	Panajachel	8	Panajachel	4	Abril	2023-04-16T00:00:00	2024-11-08T00:00:00	4	Temperatura máxima	19.3
31351	7	Sololá	710	Panajachel	8	Panajachel	4	Abril	2023-04-16T00:00:00	2024-11-08T00:00:00	3	Temperatura mínima	18.7
31352	7	Sololá	710	Panajachel	8	Panajachel	4	Abril	2023-04-16T00:00:00	2024-11-08T00:00:00	5	Humedad	83
31353	7	Sololá	710	Panajachel	8	Panajachel	4	Abril	2023-04-16T00:00:00	2024-11-08T00:00:00	6	Velocidad del viento	8
31354	7	Sololá	710	Panajachel	8	Panajachel	4	Abril	2023-04-16T00:00:00	2024-11-08T00:00:00	7	Dirección del viento	8.05
31355	7	Sololá	710	Panajachel	8	Panajachel	4	Abril	2023-04-16T00:00:00	2024-11-08T00:00:00	1	Precipitación	0
31356	7	Sololá	710	Panajachel	8	Panajachel	4	Abril	2023-04-16T00:00:00	2024-11-08T00:00:00	8	Radiación solar	0
31357	7	Sololá	710	Panajachel	8	Panajachel	4	Abril	2023-04-16T00:00:00	2024-11-08T01:00:00	2	Temperatura media	18.3
31358	7	Sololá	710	Panajachel	8	Panajachel	4	Abril	2023-04-16T00:00:00	2024-11-08T01:00:00	4	Temperatura máxima	19.3
31359	7	Sololá	710	Panajachel	8	Panajachel	4	Abril	2023-04-16T00:00:00	2024-11-08T01:00:00	3	Temperatura mínima	18.3
31360	7	Sololá	710	Panajachel	8	Panajachel	4	Abril	2023-04-16T00:00:00	2024-11-08T01:00:00	5	Humedad	82
31361	7	Sololá	710	Panajachel	8	Panajachel	4	Abril	2023-04-16T00:00:00	2024-11-08T01:00:00	6	Velocidad del viento	4.8
31362	7	Sololá	710	Panajachel	8	Panajachel	4	Abril	2023-04-16T00:00:00	2024-11-08T01:00:00	7	Dirección del viento	4.83
31363	7	Sololá	710	Panajachel	8	Panajachel	4	Abril	2023-04-16T00:00:00	2024-11-08T01:00:00	1	Precipitación	0
31364	7	Sololá	710	Panajachel	8	Panajachel	4	Abril	2023-04-16T00:00:00	2024-11-08T01:00:00	8	Radiación solar	0
31365	7	Sololá	710	Panajachel	8	Panajachel	4	Abril	2023-04-16T00:00:00	2024-11-08T02:00:00	2	Temperatura media	17.8
31366	7	Sololá	710	Panajachel	8	Panajachel	4	Abril	2023-04-16T00:00:00	2024-11-08T02:00:00	4	Temperatura máxima	18.4
31367	7	Sololá	710	Panajachel	8	Panajachel	4	Abril	2023-04-16T00:00:00	2024-11-08T02:00:00	3	Temperatura mínima	17.8
31368	7	Sololá	710	Panajachel	8	Panajachel	4	Abril	2023-04-16T00:00:00	2024-11-08T02:00:00	5	Humedad	78
31369	7	Sololá	710	Panajachel	8	Panajachel	4	Abril	2023-04-16T00:00:00	2024-11-08T02:00:00	6	Velocidad del viento	8
31370	7	Sololá	710	Panajachel	8	Panajachel	4	Abril	2023-04-16T00:00:00	2024-11-08T02:00:00	7	Dirección del viento	8.05
31371	7	Sololá	710	Panajachel	8	Panajachel	4	Abril	2023-04-16T00:00:00	2024-11-08T02:00:00	1	Precipitación	0
31372	7	Sololá	710	Panajachel	8	Panajachel	4	Abril	2023-04-16T00:00:00	2024-11-08T02:00:00	8	Radiación solar	0
31373	7	Sololá	710	Panajachel	8	Panajachel	4	Abril	2023-04-16T00:00:00	2024-11-08T03:00:00	2	Temperatura media	17.6
31374	7	Sololá	710	Panajachel	8	Panajachel	4	Abril	2023-04-16T00:00:00	2024-11-08T03:00:00	4	Temperatura máxima	18
31375	7	Sololá	710	Panajachel	8	Panajachel	4	Abril	2023-04-16T00:00:00	2024-11-08T03:00:00	3	Temperatura mínima	17.6
31376	7	Sololá	710	Panajachel	8	Panajachel	4	Abril	2023-04-16T00:00:00	2024-11-08T03:00:00	5	Humedad	77
31377	7	Sololá	710	Panajachel	8	Panajachel	4	Abril	2023-04-16T00:00:00	2024-11-08T03:00:00	6	Velocidad del viento	11.3
31378	7	Sololá	710	Panajachel	8	Panajachel	4	Abril	2023-04-16T00:00:00	2024-11-08T03:00:00	7	Dirección del viento	11.27
31379	7	Sololá	710	Panajachel	8	Panajachel	4	Abril	2023-04-16T00:00:00	2024-11-08T03:00:00	1	Precipitación	0
31380	7	Sololá	710	Panajachel	8	Panajachel	4	Abril	2023-04-16T00:00:00	2024-11-08T03:00:00	8	Radiación solar	0
31381	7	Sololá	710	Panajachel	8	Panajachel	4	Abril	2023-04-16T00:00:00	2024-11-08T04:00:00	2	Temperatura media	17.7
31382	7	Sololá	710	Panajachel	8	Panajachel	4	Abril	2023-04-16T00:00:00	2024-11-08T04:00:00	4	Temperatura máxima	18
31383	7	Sololá	710	Panajachel	8	Panajachel	4	Abril	2023-04-16T00:00:00	2024-11-08T04:00:00	3	Temperatura mínima	17.4
31384	7	Sololá	710	Panajachel	8	Panajachel	4	Abril	2023-04-16T00:00:00	2024-11-08T04:00:00	5	Humedad	77
31385	7	Sololá	710	Panajachel	8	Panajachel	4	Abril	2023-04-16T00:00:00	2024-11-08T04:00:00	6	Velocidad del viento	12.9
31386	7	Sololá	710	Panajachel	8	Panajachel	4	Abril	2023-04-16T00:00:00	2024-11-08T04:00:00	7	Dirección del viento	12.87
31387	7	Sololá	710	Panajachel	8	Panajachel	4	Abril	2023-04-16T00:00:00	2024-11-08T04:00:00	1	Precipitación	0
31388	7	Sololá	710	Panajachel	8	Panajachel	4	Abril	2023-04-16T00:00:00	2024-11-08T04:00:00	8	Radiación solar	0
31389	7	Sololá	710	Panajachel	8	Panajachel	4	Abril	2023-04-16T00:00:00	2024-11-08T05:00:00	2	Temperatura media	17.6
31390	7	Sololá	710	Panajachel	8	Panajachel	4	Abril	2023-04-16T00:00:00	2024-11-08T05:00:00	4	Temperatura máxima	17.8
31391	7	Sololá	710	Panajachel	8	Panajachel	4	Abril	2023-04-16T00:00:00	2024-11-08T05:00:00	3	Temperatura mínima	17.3
31392	7	Sololá	710	Panajachel	8	Panajachel	4	Abril	2023-04-16T00:00:00	2024-11-08T05:00:00	5	Humedad	76
31393	7	Sololá	710	Panajachel	8	Panajachel	4	Abril	2023-04-16T00:00:00	2024-11-08T05:00:00	6	Velocidad del viento	11.3
31394	7	Sololá	710	Panajachel	8	Panajachel	4	Abril	2023-04-16T00:00:00	2024-11-08T05:00:00	7	Dirección del viento	11.27
31395	7	Sololá	710	Panajachel	8	Panajachel	4	Abril	2023-04-16T00:00:00	2024-11-08T05:00:00	1	Precipitación	0
31396	7	Sololá	710	Panajachel	8	Panajachel	4	Abril	2023-04-16T00:00:00	2024-11-08T05:00:00	8	Radiación solar	0
31397	7	Sololá	710	Panajachel	8	Panajachel	4	Abril	2023-04-16T00:00:00	2024-11-08T06:00:00	2	Temperatura media	17.2
31398	7	Sololá	710	Panajachel	8	Panajachel	4	Abril	2023-04-16T00:00:00	2024-11-08T06:00:00	4	Temperatura máxima	17.6
31399	7	Sololá	710	Panajachel	8	Panajachel	4	Abril	2023-04-16T00:00:00	2024-11-08T06:00:00	3	Temperatura mínima	17.1
31400	7	Sololá	710	Panajachel	8	Panajachel	4	Abril	2023-04-16T00:00:00	2024-11-08T06:00:00	5	Humedad	76
31401	7	Sololá	710	Panajachel	8	Panajachel	4	Abril	2023-04-16T00:00:00	2024-11-08T06:00:00	6	Velocidad del viento	11.3
31402	7	Sololá	710	Panajachel	8	Panajachel	4	Abril	2023-04-16T00:00:00	2024-11-08T06:00:00	7	Dirección del viento	11.27
31403	7	Sololá	710	Panajachel	8	Panajachel	4	Abril	2023-04-16T00:00:00	2024-11-08T06:00:00	1	Precipitación	0
31404	7	Sololá	710	Panajachel	8	Panajachel	4	Abril	2023-04-16T00:00:00	2024-11-08T06:00:00	8	Radiación solar	0
31405	7	Sololá	710	Panajachel	8	Panajachel	4	Abril	2023-04-16T00:00:00	2024-11-08T07:00:00	2	Temperatura media	17.4
31406	7	Sololá	710	Panajachel	8	Panajachel	4	Abril	2023-04-16T00:00:00	2024-11-08T07:00:00	4	Temperatura máxima	17.4
31407	7	Sololá	710	Panajachel	8	Panajachel	4	Abril	2023-04-16T00:00:00	2024-11-08T07:00:00	3	Temperatura mínima	16.8
31408	7	Sololá	710	Panajachel	8	Panajachel	4	Abril	2023-04-16T00:00:00	2024-11-08T07:00:00	5	Humedad	77
31409	7	Sololá	710	Panajachel	8	Panajachel	4	Abril	2023-04-16T00:00:00	2024-11-08T07:00:00	6	Velocidad del viento	9.7
31410	7	Sololá	710	Panajachel	8	Panajachel	4	Abril	2023-04-16T00:00:00	2024-11-08T07:00:00	7	Dirección del viento	9.66
31411	7	Sololá	710	Panajachel	8	Panajachel	4	Abril	2023-04-16T00:00:00	2024-11-08T07:00:00	1	Precipitación	0
31412	7	Sololá	710	Panajachel	8	Panajachel	4	Abril	2023-04-16T00:00:00	2024-11-08T07:00:00	8	Radiación solar	38
31413	7	Sololá	710	Panajachel	8	Panajachel	4	Abril	2023-04-16T00:00:00	2024-11-08T08:00:00	2	Temperatura media	20.2
31414	7	Sololá	710	Panajachel	8	Panajachel	4	Abril	2023-04-16T00:00:00	2024-11-08T08:00:00	4	Temperatura máxima	20.2
31415	7	Sololá	710	Panajachel	8	Panajachel	4	Abril	2023-04-16T00:00:00	2024-11-08T08:00:00	3	Temperatura mínima	17.4
31416	7	Sololá	710	Panajachel	8	Panajachel	4	Abril	2023-04-16T00:00:00	2024-11-08T08:00:00	5	Humedad	78
31417	7	Sololá	710	Panajachel	8	Panajachel	4	Abril	2023-04-16T00:00:00	2024-11-08T08:00:00	6	Velocidad del viento	4.8
31418	7	Sololá	710	Panajachel	8	Panajachel	4	Abril	2023-04-16T00:00:00	2024-11-08T08:00:00	7	Dirección del viento	4.83
31419	7	Sololá	710	Panajachel	8	Panajachel	4	Abril	2023-04-16T00:00:00	2024-11-08T08:00:00	1	Precipitación	0
31420	7	Sololá	710	Panajachel	8	Panajachel	4	Abril	2023-04-16T00:00:00	2024-11-08T08:00:00	8	Radiación solar	204
31421	7	Sololá	710	Panajachel	8	Panajachel	4	Abril	2023-04-16T00:00:00	2024-11-08T09:00:00	2	Temperatura media	21.4
31422	7	Sololá	710	Panajachel	8	Panajachel	4	Abril	2023-04-16T00:00:00	2024-11-08T09:00:00	4	Temperatura máxima	21.4
31423	7	Sololá	710	Panajachel	8	Panajachel	4	Abril	2023-04-16T00:00:00	2024-11-08T09:00:00	3	Temperatura mínima	20.1
31424	7	Sololá	710	Panajachel	8	Panajachel	4	Abril	2023-04-16T00:00:00	2024-11-08T09:00:00	5	Humedad	73
31425	7	Sololá	710	Panajachel	8	Panajachel	4	Abril	2023-04-16T00:00:00	2024-11-08T09:00:00	6	Velocidad del viento	3.2
31426	7	Sololá	710	Panajachel	8	Panajachel	4	Abril	2023-04-16T00:00:00	2024-11-08T09:00:00	7	Dirección del viento	3.22
31427	7	Sololá	710	Panajachel	8	Panajachel	4	Abril	2023-04-16T00:00:00	2024-11-08T09:00:00	1	Precipitación	0
31428	7	Sololá	710	Panajachel	8	Panajachel	4	Abril	2023-04-16T00:00:00	2024-11-08T09:00:00	8	Radiación solar	294
31429	7	Sololá	710	Panajachel	8	Panajachel	4	Abril	2023-04-16T00:00:00	2024-11-08T10:00:00	2	Temperatura media	23
31430	7	Sololá	710	Panajachel	8	Panajachel	4	Abril	2023-04-16T00:00:00	2024-11-08T10:00:00	4	Temperatura máxima	23
31431	7	Sololá	710	Panajachel	8	Panajachel	4	Abril	2023-04-16T00:00:00	2024-11-08T10:00:00	3	Temperatura mínima	21.4
31432	7	Sololá	710	Panajachel	8	Panajachel	4	Abril	2023-04-16T00:00:00	2024-11-08T10:00:00	5	Humedad	68
31433	7	Sololá	710	Panajachel	8	Panajachel	4	Abril	2023-04-16T00:00:00	2024-11-08T10:00:00	6	Velocidad del viento	4.8
31434	7	Sololá	710	Panajachel	8	Panajachel	4	Abril	2023-04-16T00:00:00	2024-11-08T10:00:00	7	Dirección del viento	4.83
31435	7	Sololá	710	Panajachel	8	Panajachel	4	Abril	2023-04-16T00:00:00	2024-11-08T10:00:00	1	Precipitación	0
31436	7	Sololá	710	Panajachel	8	Panajachel	4	Abril	2023-04-16T00:00:00	2024-11-08T10:00:00	8	Radiación solar	289
31437	7	Sololá	710	Panajachel	8	Panajachel	4	Abril	2023-04-16T00:00:00	2024-11-08T11:00:00	2	Temperatura media	23.3
31438	7	Sololá	710	Panajachel	8	Panajachel	4	Abril	2023-04-16T00:00:00	2024-11-08T11:00:00	4	Temperatura máxima	23.9
31439	7	Sololá	710	Panajachel	8	Panajachel	4	Abril	2023-04-16T00:00:00	2024-11-08T11:00:00	3	Temperatura mínima	23.1
31440	7	Sololá	710	Panajachel	8	Panajachel	4	Abril	2023-04-16T00:00:00	2024-11-08T11:00:00	5	Humedad	69
31441	7	Sololá	710	Panajachel	8	Panajachel	4	Abril	2023-04-16T00:00:00	2024-11-08T11:00:00	6	Velocidad del viento	6.4
31442	7	Sololá	710	Panajachel	8	Panajachel	4	Abril	2023-04-16T00:00:00	2024-11-08T11:00:00	7	Dirección del viento	6.44
31443	7	Sololá	710	Panajachel	8	Panajachel	4	Abril	2023-04-16T00:00:00	2024-11-08T11:00:00	1	Precipitación	0
31444	7	Sololá	710	Panajachel	8	Panajachel	4	Abril	2023-04-16T00:00:00	2024-11-08T11:00:00	8	Radiación solar	324
31445	7	Sololá	710	Panajachel	8	Panajachel	4	Abril	2023-04-16T00:00:00	2024-11-08T12:00:00	2	Temperatura media	25.4
31446	7	Sololá	710	Panajachel	8	Panajachel	4	Abril	2023-04-16T00:00:00	2024-11-08T12:00:00	4	Temperatura máxima	25.4
31447	7	Sololá	710	Panajachel	8	Panajachel	4	Abril	2023-04-16T00:00:00	2024-11-08T12:00:00	3	Temperatura mínima	23.2
31448	7	Sololá	710	Panajachel	8	Panajachel	4	Abril	2023-04-16T00:00:00	2024-11-08T12:00:00	5	Humedad	65
31449	7	Sololá	710	Panajachel	8	Panajachel	4	Abril	2023-04-16T00:00:00	2024-11-08T12:00:00	6	Velocidad del viento	8
31450	7	Sololá	710	Panajachel	8	Panajachel	4	Abril	2023-04-16T00:00:00	2024-11-08T12:00:00	7	Dirección del viento	8.05
31451	7	Sololá	710	Panajachel	8	Panajachel	4	Abril	2023-04-16T00:00:00	2024-11-08T12:00:00	1	Precipitación	0
31452	7	Sololá	710	Panajachel	8	Panajachel	4	Abril	2023-04-16T00:00:00	2024-11-08T12:00:00	8	Radiación solar	345
31453	7	Sololá	710	Panajachel	8	Panajachel	4	Abril	2023-04-16T00:00:00	2024-11-08T13:00:00	2	Temperatura media	26.2
31454	7	Sololá	710	Panajachel	8	Panajachel	4	Abril	2023-04-16T00:00:00	2024-11-08T13:00:00	4	Temperatura máxima	26.3
31455	7	Sololá	710	Panajachel	8	Panajachel	4	Abril	2023-04-16T00:00:00	2024-11-08T13:00:00	3	Temperatura mínima	24.1
31456	7	Sololá	710	Panajachel	8	Panajachel	4	Abril	2023-04-16T00:00:00	2024-11-08T13:00:00	5	Humedad	62
31457	7	Sololá	710	Panajachel	8	Panajachel	4	Abril	2023-04-16T00:00:00	2024-11-08T13:00:00	6	Velocidad del viento	8
31458	7	Sololá	710	Panajachel	8	Panajachel	4	Abril	2023-04-16T00:00:00	2024-11-08T13:00:00	7	Dirección del viento	8.05
31459	7	Sololá	710	Panajachel	8	Panajachel	4	Abril	2023-04-16T00:00:00	2024-11-08T13:00:00	1	Precipitación	0
31460	7	Sololá	710	Panajachel	8	Panajachel	4	Abril	2023-04-16T00:00:00	2024-11-08T13:00:00	8	Radiación solar	347
31461	7	Sololá	710	Panajachel	8	Panajachel	4	Abril	2023-04-16T00:00:00	2024-11-08T14:00:00	2	Temperatura media	24.5
31462	7	Sololá	710	Panajachel	8	Panajachel	4	Abril	2023-04-16T00:00:00	2024-11-08T14:00:00	4	Temperatura máxima	26.2
31463	7	Sololá	710	Panajachel	8	Panajachel	4	Abril	2023-04-16T00:00:00	2024-11-08T14:00:00	3	Temperatura mínima	24.4
31464	7	Sololá	710	Panajachel	8	Panajachel	4	Abril	2023-04-16T00:00:00	2024-11-08T14:00:00	5	Humedad	68
31465	7	Sololá	710	Panajachel	8	Panajachel	4	Abril	2023-04-16T00:00:00	2024-11-08T14:00:00	6	Velocidad del viento	9.7
31466	7	Sololá	710	Panajachel	8	Panajachel	4	Abril	2023-04-16T00:00:00	2024-11-08T14:00:00	7	Dirección del viento	9.66
31467	7	Sololá	710	Panajachel	8	Panajachel	4	Abril	2023-04-16T00:00:00	2024-11-08T14:00:00	1	Precipitación	0
31468	7	Sololá	710	Panajachel	8	Panajachel	4	Abril	2023-04-16T00:00:00	2024-11-08T14:00:00	8	Radiación solar	315
31469	7	Sololá	710	Panajachel	8	Panajachel	4	Abril	2023-04-16T00:00:00	2024-11-08T15:00:00	2	Temperatura media	23.8
31470	7	Sololá	710	Panajachel	8	Panajachel	4	Abril	2023-04-16T00:00:00	2024-11-08T15:00:00	4	Temperatura máxima	24.4
31471	7	Sololá	710	Panajachel	8	Panajachel	4	Abril	2023-04-16T00:00:00	2024-11-08T15:00:00	3	Temperatura mínima	23.5
31472	7	Sololá	710	Panajachel	8	Panajachel	4	Abril	2023-04-16T00:00:00	2024-11-08T15:00:00	5	Humedad	70
31473	7	Sololá	710	Panajachel	8	Panajachel	4	Abril	2023-04-16T00:00:00	2024-11-08T15:00:00	6	Velocidad del viento	8
31474	7	Sololá	710	Panajachel	8	Panajachel	4	Abril	2023-04-16T00:00:00	2024-11-08T15:00:00	7	Dirección del viento	8.05
31475	7	Sololá	710	Panajachel	8	Panajachel	4	Abril	2023-04-16T00:00:00	2024-11-08T15:00:00	1	Precipitación	0
31476	7	Sololá	710	Panajachel	8	Panajachel	4	Abril	2023-04-16T00:00:00	2024-11-08T15:00:00	8	Radiación solar	175
31477	7	Sololá	710	Panajachel	8	Panajachel	4	Abril	2023-04-16T00:00:00	2024-11-08T16:00:00	2	Temperatura media	22.9
31478	7	Sololá	710	Panajachel	8	Panajachel	4	Abril	2023-04-16T00:00:00	2024-11-08T16:00:00	4	Temperatura máxima	23.8
31479	7	Sololá	710	Panajachel	8	Panajachel	4	Abril	2023-04-16T00:00:00	2024-11-08T16:00:00	3	Temperatura mínima	22.6
31480	7	Sololá	710	Panajachel	8	Panajachel	4	Abril	2023-04-16T00:00:00	2024-11-08T16:00:00	5	Humedad	72
31481	7	Sololá	710	Panajachel	8	Panajachel	4	Abril	2023-04-16T00:00:00	2024-11-08T16:00:00	6	Velocidad del viento	6.4
31482	7	Sololá	710	Panajachel	8	Panajachel	4	Abril	2023-04-16T00:00:00	2024-11-08T16:00:00	7	Dirección del viento	6.44
31483	7	Sololá	710	Panajachel	8	Panajachel	4	Abril	2023-04-16T00:00:00	2024-11-08T16:00:00	1	Precipitación	0
31484	7	Sololá	710	Panajachel	8	Panajachel	4	Abril	2023-04-16T00:00:00	2024-11-08T16:00:00	8	Radiación solar	56
31485	7	Sololá	710	Panajachel	8	Panajachel	4	Abril	2023-04-16T00:00:00	2024-11-08T17:00:00	2	Temperatura media	22.7
31486	7	Sololá	710	Panajachel	8	Panajachel	4	Abril	2023-04-16T00:00:00	2024-11-08T17:00:00	4	Temperatura máxima	23.2
31487	7	Sololá	710	Panajachel	8	Panajachel	4	Abril	2023-04-16T00:00:00	2024-11-08T17:00:00	3	Temperatura mínima	22.7
31488	7	Sololá	710	Panajachel	8	Panajachel	4	Abril	2023-04-16T00:00:00	2024-11-08T17:00:00	5	Humedad	73
31489	7	Sololá	710	Panajachel	8	Panajachel	4	Abril	2023-04-16T00:00:00	2024-11-08T17:00:00	6	Velocidad del viento	3.2
31490	7	Sololá	710	Panajachel	8	Panajachel	4	Abril	2023-04-16T00:00:00	2024-11-08T17:00:00	7	Dirección del viento	3.22
31491	7	Sololá	710	Panajachel	8	Panajachel	4	Abril	2023-04-16T00:00:00	2024-11-08T17:00:00	1	Precipitación	0
31492	7	Sololá	710	Panajachel	8	Panajachel	4	Abril	2023-04-16T00:00:00	2024-11-08T17:00:00	8	Radiación solar	31
31493	7	Sololá	710	Panajachel	8	Panajachel	4	Abril	2023-04-16T00:00:00	2024-11-08T18:00:00	2	Temperatura media	21.9
31494	7	Sololá	710	Panajachel	8	Panajachel	4	Abril	2023-04-16T00:00:00	2024-11-08T18:00:00	4	Temperatura máxima	22.7
31495	7	Sololá	710	Panajachel	8	Panajachel	4	Abril	2023-04-16T00:00:00	2024-11-08T18:00:00	3	Temperatura mínima	21.9
31496	7	Sololá	710	Panajachel	8	Panajachel	4	Abril	2023-04-16T00:00:00	2024-11-08T18:00:00	5	Humedad	76
31497	7	Sololá	710	Panajachel	8	Panajachel	4	Abril	2023-04-16T00:00:00	2024-11-08T18:00:00	6	Velocidad del viento	3.2
31498	7	Sololá	710	Panajachel	8	Panajachel	4	Abril	2023-04-16T00:00:00	2024-11-08T18:00:00	7	Dirección del viento	3.22
31499	7	Sololá	710	Panajachel	8	Panajachel	4	Abril	2023-04-16T00:00:00	2024-11-08T18:00:00	1	Precipitación	0
31500	7	Sololá	710	Panajachel	8	Panajachel	4	Abril	2023-04-16T00:00:00	2024-11-08T18:00:00	8	Radiación solar	23
31501	7	Sololá	710	Panajachel	8	Panajachel	4	Abril	2023-04-16T00:00:00	2024-11-08T19:00:00	2	Temperatura media	21.4
31502	7	Sololá	710	Panajachel	8	Panajachel	4	Abril	2023-04-16T00:00:00	2024-11-08T19:00:00	4	Temperatura máxima	22
31503	7	Sololá	710	Panajachel	8	Panajachel	4	Abril	2023-04-16T00:00:00	2024-11-08T19:00:00	3	Temperatura mínima	21.4
31504	7	Sololá	710	Panajachel	8	Panajachel	4	Abril	2023-04-16T00:00:00	2024-11-08T19:00:00	5	Humedad	77
31505	7	Sololá	710	Panajachel	8	Panajachel	4	Abril	2023-04-16T00:00:00	2024-11-08T19:00:00	6	Velocidad del viento	1.6
31506	7	Sololá	710	Panajachel	8	Panajachel	4	Abril	2023-04-16T00:00:00	2024-11-08T19:00:00	7	Dirección del viento	1.61
31507	7	Sololá	710	Panajachel	8	Panajachel	4	Abril	2023-04-16T00:00:00	2024-11-08T19:00:00	1	Precipitación	0
31508	7	Sololá	710	Panajachel	8	Panajachel	4	Abril	2023-04-16T00:00:00	2024-11-08T19:00:00	8	Radiación solar	0
31509	7	Sololá	710	Panajachel	8	Panajachel	4	Abril	2023-04-16T00:00:00	2024-11-08T20:00:00	2	Temperatura media	20.1
31510	7	Sololá	710	Panajachel	8	Panajachel	4	Abril	2023-04-16T00:00:00	2024-11-08T20:00:00	4	Temperatura máxima	21.4
31511	7	Sololá	710	Panajachel	8	Panajachel	4	Abril	2023-04-16T00:00:00	2024-11-08T20:00:00	3	Temperatura mínima	20.1
31512	7	Sololá	710	Panajachel	8	Panajachel	4	Abril	2023-04-16T00:00:00	2024-11-08T20:00:00	5	Humedad	80
31513	7	Sololá	710	Panajachel	8	Panajachel	4	Abril	2023-04-16T00:00:00	2024-11-08T20:00:00	6	Velocidad del viento	3.2
31514	7	Sololá	710	Panajachel	8	Panajachel	4	Abril	2023-04-16T00:00:00	2024-11-08T20:00:00	7	Dirección del viento	3.22
31515	7	Sololá	710	Panajachel	8	Panajachel	4	Abril	2023-04-16T00:00:00	2024-11-08T20:00:00	1	Precipitación	0
31516	7	Sololá	710	Panajachel	8	Panajachel	4	Abril	2023-04-16T00:00:00	2024-11-08T20:00:00	8	Radiación solar	0
31517	7	Sololá	710	Panajachel	8	Panajachel	4	Abril	2023-04-16T00:00:00	2024-11-08T21:00:00	2	Temperatura media	18.7
31518	7	Sololá	710	Panajachel	8	Panajachel	4	Abril	2023-04-16T00:00:00	2024-11-08T21:00:00	4	Temperatura máxima	20.1
31519	7	Sololá	710	Panajachel	8	Panajachel	4	Abril	2023-04-16T00:00:00	2024-11-08T21:00:00	3	Temperatura mínima	18.7
31520	7	Sololá	710	Panajachel	8	Panajachel	4	Abril	2023-04-16T00:00:00	2024-11-08T21:00:00	5	Humedad	74
31521	7	Sololá	710	Panajachel	8	Panajachel	4	Abril	2023-04-16T00:00:00	2024-11-08T21:00:00	6	Velocidad del viento	11.3
31522	7	Sololá	710	Panajachel	8	Panajachel	4	Abril	2023-04-16T00:00:00	2024-11-08T21:00:00	7	Dirección del viento	11.27
31523	7	Sololá	710	Panajachel	8	Panajachel	4	Abril	2023-04-16T00:00:00	2024-11-08T21:00:00	1	Precipitación	0
31524	7	Sololá	710	Panajachel	8	Panajachel	4	Abril	2023-04-16T00:00:00	2024-11-08T21:00:00	8	Radiación solar	0
31525	7	Sololá	710	Panajachel	8	Panajachel	4	Abril	2023-04-16T00:00:00	2024-11-08T22:00:00	2	Temperatura media	18.7
31526	7	Sololá	710	Panajachel	8	Panajachel	4	Abril	2023-04-16T00:00:00	2024-11-08T22:00:00	4	Temperatura máxima	19.3
31527	7	Sololá	710	Panajachel	8	Panajachel	4	Abril	2023-04-16T00:00:00	2024-11-08T22:00:00	3	Temperatura mínima	18.1
31528	7	Sololá	710	Panajachel	8	Panajachel	4	Abril	2023-04-16T00:00:00	2024-11-08T22:00:00	5	Humedad	65
31529	7	Sololá	710	Panajachel	8	Panajachel	4	Abril	2023-04-16T00:00:00	2024-11-08T22:00:00	6	Velocidad del viento	11.3
31530	7	Sololá	710	Panajachel	8	Panajachel	4	Abril	2023-04-16T00:00:00	2024-11-08T22:00:00	7	Dirección del viento	11.27
31531	7	Sololá	710	Panajachel	8	Panajachel	4	Abril	2023-04-16T00:00:00	2024-11-08T22:00:00	1	Precipitación	0
31532	7	Sololá	710	Panajachel	8	Panajachel	4	Abril	2023-04-16T00:00:00	2024-11-08T22:00:00	8	Radiación solar	0
31533	7	Sololá	710	Panajachel	8	Panajachel	4	Abril	2023-04-16T00:00:00	2024-11-08T23:00:00	2	Temperatura media	18
31534	7	Sololá	710	Panajachel	8	Panajachel	4	Abril	2023-04-16T00:00:00	2024-11-08T23:00:00	4	Temperatura máxima	18.7
31535	7	Sololá	710	Panajachel	8	Panajachel	4	Abril	2023-04-16T00:00:00	2024-11-08T23:00:00	3	Temperatura mínima	18
31536	7	Sololá	710	Panajachel	8	Panajachel	4	Abril	2023-04-16T00:00:00	2024-11-08T23:00:00	5	Humedad	65
31537	7	Sololá	710	Panajachel	8	Panajachel	4	Abril	2023-04-16T00:00:00	2024-11-08T23:00:00	6	Velocidad del viento	12.9
31538	7	Sololá	710	Panajachel	8	Panajachel	4	Abril	2023-04-16T00:00:00	2024-11-08T23:00:00	7	Dirección del viento	12.87
31539	7	Sololá	710	Panajachel	8	Panajachel	4	Abril	2023-04-16T00:00:00	2024-11-08T23:00:00	1	Precipitación	0
31540	7	Sololá	710	Panajachel	8	Panajachel	4	Abril	2023-04-16T00:00:00	2024-11-08T23:00:00	8	Radiación solar	0
31541	7	Sololá	710	Panajachel	8	Panajachel	4	Abril	2023-04-17T00:00:00	2024-11-08T00:00:00	2	Temperatura media	17.6
31542	7	Sololá	710	Panajachel	8	Panajachel	4	Abril	2023-04-17T00:00:00	2024-11-08T00:00:00	4	Temperatura máxima	18.1
31543	7	Sololá	710	Panajachel	8	Panajachel	4	Abril	2023-04-17T00:00:00	2024-11-08T00:00:00	3	Temperatura mínima	17.3
31544	7	Sololá	710	Panajachel	8	Panajachel	4	Abril	2023-04-17T00:00:00	2024-11-08T00:00:00	5	Humedad	68
31545	7	Sololá	710	Panajachel	8	Panajachel	4	Abril	2023-04-17T00:00:00	2024-11-08T00:00:00	6	Velocidad del viento	8
31546	7	Sololá	710	Panajachel	8	Panajachel	4	Abril	2023-04-17T00:00:00	2024-11-08T00:00:00	7	Dirección del viento	8.05
31547	7	Sololá	710	Panajachel	8	Panajachel	4	Abril	2023-04-17T00:00:00	2024-11-08T00:00:00	1	Precipitación	0
31548	7	Sololá	710	Panajachel	8	Panajachel	4	Abril	2023-04-17T00:00:00	2024-11-08T00:00:00	8	Radiación solar	0
31549	7	Sololá	710	Panajachel	8	Panajachel	4	Abril	2023-04-17T00:00:00	2024-11-08T01:00:00	2	Temperatura media	18.1
31550	7	Sololá	710	Panajachel	8	Panajachel	4	Abril	2023-04-17T00:00:00	2024-11-08T01:00:00	4	Temperatura máxima	18.1
31551	7	Sololá	710	Panajachel	8	Panajachel	4	Abril	2023-04-17T00:00:00	2024-11-08T01:00:00	3	Temperatura mínima	17.1
31552	7	Sololá	710	Panajachel	8	Panajachel	4	Abril	2023-04-17T00:00:00	2024-11-08T01:00:00	5	Humedad	70
31553	7	Sololá	710	Panajachel	8	Panajachel	4	Abril	2023-04-17T00:00:00	2024-11-08T01:00:00	6	Velocidad del viento	9.7
31554	7	Sololá	710	Panajachel	8	Panajachel	4	Abril	2023-04-17T00:00:00	2024-11-08T01:00:00	7	Dirección del viento	9.66
31555	7	Sololá	710	Panajachel	8	Panajachel	4	Abril	2023-04-17T00:00:00	2024-11-08T01:00:00	1	Precipitación	0
31556	7	Sololá	710	Panajachel	8	Panajachel	4	Abril	2023-04-17T00:00:00	2024-11-08T01:00:00	8	Radiación solar	0
31557	7	Sololá	710	Panajachel	8	Panajachel	4	Abril	2023-04-17T00:00:00	2024-11-08T02:00:00	2	Temperatura media	16.9
31558	7	Sololá	710	Panajachel	8	Panajachel	4	Abril	2023-04-17T00:00:00	2024-11-08T02:00:00	4	Temperatura máxima	18.2
31559	7	Sololá	710	Panajachel	8	Panajachel	4	Abril	2023-04-17T00:00:00	2024-11-08T02:00:00	3	Temperatura mínima	16.9
31560	7	Sololá	710	Panajachel	8	Panajachel	4	Abril	2023-04-17T00:00:00	2024-11-08T02:00:00	5	Humedad	75
31561	7	Sololá	710	Panajachel	8	Panajachel	4	Abril	2023-04-17T00:00:00	2024-11-08T02:00:00	6	Velocidad del viento	8
31562	7	Sololá	710	Panajachel	8	Panajachel	4	Abril	2023-04-17T00:00:00	2024-11-08T02:00:00	7	Dirección del viento	8.05
31563	7	Sololá	710	Panajachel	8	Panajachel	4	Abril	2023-04-17T00:00:00	2024-11-08T02:00:00	1	Precipitación	0
31564	7	Sololá	710	Panajachel	8	Panajachel	4	Abril	2023-04-17T00:00:00	2024-11-08T02:00:00	8	Radiación solar	0
31565	7	Sololá	710	Panajachel	8	Panajachel	4	Abril	2023-04-17T00:00:00	2024-11-08T03:00:00	2	Temperatura media	16.6
31566	7	Sololá	710	Panajachel	8	Panajachel	4	Abril	2023-04-17T00:00:00	2024-11-08T03:00:00	4	Temperatura máxima	17.1
31567	7	Sololá	710	Panajachel	8	Panajachel	4	Abril	2023-04-17T00:00:00	2024-11-08T03:00:00	3	Temperatura mínima	16.5
31568	7	Sololá	710	Panajachel	8	Panajachel	4	Abril	2023-04-17T00:00:00	2024-11-08T03:00:00	5	Humedad	77
31569	7	Sololá	710	Panajachel	8	Panajachel	4	Abril	2023-04-17T00:00:00	2024-11-08T03:00:00	6	Velocidad del viento	6.4
31570	7	Sololá	710	Panajachel	8	Panajachel	4	Abril	2023-04-17T00:00:00	2024-11-08T03:00:00	7	Dirección del viento	6.44
31571	7	Sololá	710	Panajachel	8	Panajachel	4	Abril	2023-04-17T00:00:00	2024-11-08T03:00:00	1	Precipitación	0
31572	7	Sololá	710	Panajachel	8	Panajachel	4	Abril	2023-04-17T00:00:00	2024-11-08T03:00:00	8	Radiación solar	0
31573	7	Sololá	710	Panajachel	8	Panajachel	4	Abril	2023-04-17T00:00:00	2024-11-08T04:00:00	2	Temperatura media	16.2
31574	7	Sololá	710	Panajachel	8	Panajachel	4	Abril	2023-04-17T00:00:00	2024-11-08T04:00:00	4	Temperatura máxima	16.6
31575	7	Sololá	710	Panajachel	8	Panajachel	4	Abril	2023-04-17T00:00:00	2024-11-08T04:00:00	3	Temperatura mínima	16.1
31576	7	Sololá	710	Panajachel	8	Panajachel	4	Abril	2023-04-17T00:00:00	2024-11-08T04:00:00	5	Humedad	79
31577	7	Sololá	710	Panajachel	8	Panajachel	4	Abril	2023-04-17T00:00:00	2024-11-08T04:00:00	6	Velocidad del viento	8
31578	7	Sololá	710	Panajachel	8	Panajachel	4	Abril	2023-04-17T00:00:00	2024-11-08T04:00:00	7	Dirección del viento	8.05
31579	7	Sololá	710	Panajachel	8	Panajachel	4	Abril	2023-04-17T00:00:00	2024-11-08T04:00:00	1	Precipitación	0
31580	7	Sololá	710	Panajachel	8	Panajachel	4	Abril	2023-04-17T00:00:00	2024-11-08T04:00:00	8	Radiación solar	0
31581	7	Sololá	710	Panajachel	8	Panajachel	4	Abril	2023-04-17T00:00:00	2024-11-08T05:00:00	2	Temperatura media	17.2
31582	7	Sololá	710	Panajachel	8	Panajachel	4	Abril	2023-04-17T00:00:00	2024-11-08T05:00:00	4	Temperatura máxima	17.2
31583	7	Sololá	710	Panajachel	8	Panajachel	4	Abril	2023-04-17T00:00:00	2024-11-08T05:00:00	3	Temperatura mínima	16.2
31584	7	Sololá	710	Panajachel	8	Panajachel	4	Abril	2023-04-17T00:00:00	2024-11-08T05:00:00	5	Humedad	76
31585	7	Sololá	710	Panajachel	8	Panajachel	4	Abril	2023-04-17T00:00:00	2024-11-08T05:00:00	6	Velocidad del viento	4.8
31586	7	Sololá	710	Panajachel	8	Panajachel	4	Abril	2023-04-17T00:00:00	2024-11-08T05:00:00	7	Dirección del viento	4.83
31587	7	Sololá	710	Panajachel	8	Panajachel	4	Abril	2023-04-17T00:00:00	2024-11-08T05:00:00	1	Precipitación	0
31588	7	Sololá	710	Panajachel	8	Panajachel	4	Abril	2023-04-17T00:00:00	2024-11-08T05:00:00	8	Radiación solar	0
31589	7	Sololá	710	Panajachel	8	Panajachel	4	Abril	2023-04-17T00:00:00	2024-11-08T06:00:00	2	Temperatura media	18.2
31590	7	Sololá	710	Panajachel	8	Panajachel	4	Abril	2023-04-17T00:00:00	2024-11-08T06:00:00	4	Temperatura máxima	18.6
31591	7	Sololá	710	Panajachel	8	Panajachel	4	Abril	2023-04-17T00:00:00	2024-11-08T06:00:00	3	Temperatura mínima	17.3
31592	7	Sololá	710	Panajachel	8	Panajachel	4	Abril	2023-04-17T00:00:00	2024-11-08T06:00:00	5	Humedad	72
31593	7	Sololá	710	Panajachel	8	Panajachel	4	Abril	2023-04-17T00:00:00	2024-11-08T06:00:00	6	Velocidad del viento	6.4
31594	7	Sololá	710	Panajachel	8	Panajachel	4	Abril	2023-04-17T00:00:00	2024-11-08T06:00:00	7	Dirección del viento	6.44
31595	7	Sololá	710	Panajachel	8	Panajachel	4	Abril	2023-04-17T00:00:00	2024-11-08T06:00:00	1	Precipitación	0
31596	7	Sololá	710	Panajachel	8	Panajachel	4	Abril	2023-04-17T00:00:00	2024-11-08T06:00:00	8	Radiación solar	0
31597	7	Sololá	710	Panajachel	8	Panajachel	4	Abril	2023-04-17T00:00:00	2024-11-08T07:00:00	2	Temperatura media	19.3
31598	7	Sololá	710	Panajachel	8	Panajachel	4	Abril	2023-04-17T00:00:00	2024-11-08T07:00:00	4	Temperatura máxima	19.3
31599	7	Sololá	710	Panajachel	8	Panajachel	4	Abril	2023-04-17T00:00:00	2024-11-08T07:00:00	3	Temperatura mínima	18.2
31600	7	Sololá	710	Panajachel	8	Panajachel	4	Abril	2023-04-17T00:00:00	2024-11-08T07:00:00	5	Humedad	69
31601	7	Sololá	710	Panajachel	8	Panajachel	4	Abril	2023-04-17T00:00:00	2024-11-08T07:00:00	6	Velocidad del viento	11.3
31602	7	Sololá	710	Panajachel	8	Panajachel	4	Abril	2023-04-17T00:00:00	2024-11-08T07:00:00	7	Dirección del viento	11.27
31603	7	Sololá	710	Panajachel	8	Panajachel	4	Abril	2023-04-17T00:00:00	2024-11-08T07:00:00	1	Precipitación	0
31604	7	Sololá	710	Panajachel	8	Panajachel	4	Abril	2023-04-17T00:00:00	2024-11-08T07:00:00	8	Radiación solar	37
31605	7	Sololá	710	Panajachel	8	Panajachel	4	Abril	2023-04-17T00:00:00	2024-11-08T08:00:00	2	Temperatura media	20.2
31606	7	Sololá	710	Panajachel	8	Panajachel	4	Abril	2023-04-17T00:00:00	2024-11-08T08:00:00	4	Temperatura máxima	20.7
31607	7	Sololá	710	Panajachel	8	Panajachel	4	Abril	2023-04-17T00:00:00	2024-11-08T08:00:00	3	Temperatura mínima	19.3
31608	7	Sololá	710	Panajachel	8	Panajachel	4	Abril	2023-04-17T00:00:00	2024-11-08T08:00:00	5	Humedad	63
31609	7	Sololá	710	Panajachel	8	Panajachel	4	Abril	2023-04-17T00:00:00	2024-11-08T08:00:00	6	Velocidad del viento	16.1
31610	7	Sololá	710	Panajachel	8	Panajachel	4	Abril	2023-04-17T00:00:00	2024-11-08T08:00:00	7	Dirección del viento	16.09
31611	7	Sololá	710	Panajachel	8	Panajachel	4	Abril	2023-04-17T00:00:00	2024-11-08T08:00:00	1	Precipitación	0
31612	7	Sololá	710	Panajachel	8	Panajachel	4	Abril	2023-04-17T00:00:00	2024-11-08T08:00:00	8	Radiación solar	138
31613	7	Sololá	710	Panajachel	8	Panajachel	4	Abril	2023-04-17T00:00:00	2024-11-08T09:00:00	2	Temperatura media	23
31614	7	Sololá	710	Panajachel	8	Panajachel	4	Abril	2023-04-17T00:00:00	2024-11-08T09:00:00	4	Temperatura máxima	23
31615	7	Sololá	710	Panajachel	8	Panajachel	4	Abril	2023-04-17T00:00:00	2024-11-08T09:00:00	3	Temperatura mínima	20.2
31616	7	Sololá	710	Panajachel	8	Panajachel	4	Abril	2023-04-17T00:00:00	2024-11-08T09:00:00	5	Humedad	52
31617	7	Sololá	710	Panajachel	8	Panajachel	4	Abril	2023-04-17T00:00:00	2024-11-08T09:00:00	6	Velocidad del viento	16.1
31618	7	Sololá	710	Panajachel	8	Panajachel	4	Abril	2023-04-17T00:00:00	2024-11-08T09:00:00	7	Dirección del viento	16.09
31619	7	Sololá	710	Panajachel	8	Panajachel	4	Abril	2023-04-17T00:00:00	2024-11-08T09:00:00	1	Precipitación	0
31620	7	Sololá	710	Panajachel	8	Panajachel	4	Abril	2023-04-17T00:00:00	2024-11-08T09:00:00	8	Radiación solar	267
31621	7	Sololá	710	Panajachel	8	Panajachel	4	Abril	2023-04-17T00:00:00	2024-11-08T10:00:00	2	Temperatura media	23.9
31622	7	Sololá	710	Panajachel	8	Panajachel	4	Abril	2023-04-17T00:00:00	2024-11-08T10:00:00	4	Temperatura máxima	25.2
31623	7	Sololá	710	Panajachel	8	Panajachel	4	Abril	2023-04-17T00:00:00	2024-11-08T10:00:00	3	Temperatura mínima	23
31624	7	Sololá	710	Panajachel	8	Panajachel	4	Abril	2023-04-17T00:00:00	2024-11-08T10:00:00	5	Humedad	63
31625	7	Sololá	710	Panajachel	8	Panajachel	4	Abril	2023-04-17T00:00:00	2024-11-08T10:00:00	6	Velocidad del viento	8
31626	7	Sololá	710	Panajachel	8	Panajachel	4	Abril	2023-04-17T00:00:00	2024-11-08T10:00:00	7	Dirección del viento	8.05
31627	7	Sololá	710	Panajachel	8	Panajachel	4	Abril	2023-04-17T00:00:00	2024-11-08T10:00:00	1	Precipitación	0
31628	7	Sololá	710	Panajachel	8	Panajachel	4	Abril	2023-04-17T00:00:00	2024-11-08T10:00:00	8	Radiación solar	757
31629	7	Sololá	710	Panajachel	8	Panajachel	4	Abril	2023-04-17T00:00:00	2024-11-08T11:00:00	2	Temperatura media	22.6
31630	7	Sololá	710	Panajachel	8	Panajachel	4	Abril	2023-04-17T00:00:00	2024-11-08T11:00:00	4	Temperatura máxima	24.8
31631	7	Sololá	710	Panajachel	8	Panajachel	4	Abril	2023-04-17T00:00:00	2024-11-08T11:00:00	3	Temperatura mínima	22.1
31632	7	Sololá	710	Panajachel	8	Panajachel	4	Abril	2023-04-17T00:00:00	2024-11-08T11:00:00	5	Humedad	67
31633	7	Sololá	710	Panajachel	8	Panajachel	4	Abril	2023-04-17T00:00:00	2024-11-08T11:00:00	6	Velocidad del viento	11.3
31634	7	Sololá	710	Panajachel	8	Panajachel	4	Abril	2023-04-17T00:00:00	2024-11-08T11:00:00	7	Dirección del viento	11.27
31635	7	Sololá	710	Panajachel	8	Panajachel	4	Abril	2023-04-17T00:00:00	2024-11-08T11:00:00	1	Precipitación	0
31636	7	Sololá	710	Panajachel	8	Panajachel	4	Abril	2023-04-17T00:00:00	2024-11-08T11:00:00	8	Radiación solar	856
31637	7	Sololá	710	Panajachel	8	Panajachel	4	Abril	2023-04-17T00:00:00	2024-11-08T12:00:00	2	Temperatura media	23.1
31638	7	Sololá	710	Panajachel	8	Panajachel	4	Abril	2023-04-17T00:00:00	2024-11-08T12:00:00	4	Temperatura máxima	25.3
31639	7	Sololá	710	Panajachel	8	Panajachel	4	Abril	2023-04-17T00:00:00	2024-11-08T12:00:00	3	Temperatura mínima	22.5
31640	7	Sololá	710	Panajachel	8	Panajachel	4	Abril	2023-04-17T00:00:00	2024-11-08T12:00:00	5	Humedad	67
31641	7	Sololá	710	Panajachel	8	Panajachel	4	Abril	2023-04-17T00:00:00	2024-11-08T12:00:00	6	Velocidad del viento	4.8
31642	7	Sololá	710	Panajachel	8	Panajachel	4	Abril	2023-04-17T00:00:00	2024-11-08T12:00:00	7	Dirección del viento	4.83
31643	7	Sololá	710	Panajachel	8	Panajachel	4	Abril	2023-04-17T00:00:00	2024-11-08T12:00:00	1	Precipitación	0
31644	7	Sololá	710	Panajachel	8	Panajachel	4	Abril	2023-04-17T00:00:00	2024-11-08T12:00:00	8	Radiación solar	896
31645	7	Sololá	710	Panajachel	8	Panajachel	4	Abril	2023-04-17T00:00:00	2024-11-08T13:00:00	2	Temperatura media	24.6
31646	7	Sololá	710	Panajachel	8	Panajachel	4	Abril	2023-04-17T00:00:00	2024-11-08T13:00:00	4	Temperatura máxima	25.3
31647	7	Sololá	710	Panajachel	8	Panajachel	4	Abril	2023-04-17T00:00:00	2024-11-08T13:00:00	3	Temperatura mínima	23
31648	7	Sololá	710	Panajachel	8	Panajachel	4	Abril	2023-04-17T00:00:00	2024-11-08T13:00:00	5	Humedad	74
31649	7	Sololá	710	Panajachel	8	Panajachel	4	Abril	2023-04-17T00:00:00	2024-11-08T13:00:00	6	Velocidad del viento	6.4
31650	7	Sololá	710	Panajachel	8	Panajachel	4	Abril	2023-04-17T00:00:00	2024-11-08T13:00:00	7	Dirección del viento	6.44
31651	7	Sololá	710	Panajachel	8	Panajachel	4	Abril	2023-04-17T00:00:00	2024-11-08T13:00:00	1	Precipitación	0
31652	7	Sololá	710	Panajachel	8	Panajachel	4	Abril	2023-04-17T00:00:00	2024-11-08T13:00:00	8	Radiación solar	935
31653	7	Sololá	710	Panajachel	8	Panajachel	4	Abril	2023-04-17T00:00:00	2024-11-08T14:00:00	2	Temperatura media	21.9
31654	7	Sololá	710	Panajachel	8	Panajachel	4	Abril	2023-04-17T00:00:00	2024-11-08T14:00:00	4	Temperatura máxima	25
31655	7	Sololá	710	Panajachel	8	Panajachel	4	Abril	2023-04-17T00:00:00	2024-11-08T14:00:00	3	Temperatura mínima	21.6
31656	7	Sololá	710	Panajachel	8	Panajachel	4	Abril	2023-04-17T00:00:00	2024-11-08T14:00:00	5	Humedad	82
31657	7	Sololá	710	Panajachel	8	Panajachel	4	Abril	2023-04-17T00:00:00	2024-11-08T14:00:00	6	Velocidad del viento	6.4
31658	7	Sololá	710	Panajachel	8	Panajachel	4	Abril	2023-04-17T00:00:00	2024-11-08T14:00:00	7	Dirección del viento	6.44
31659	7	Sololá	710	Panajachel	8	Panajachel	4	Abril	2023-04-17T00:00:00	2024-11-08T14:00:00	1	Precipitación	0
31660	7	Sololá	710	Panajachel	8	Panajachel	4	Abril	2023-04-17T00:00:00	2024-11-08T14:00:00	8	Radiación solar	286
31661	7	Sololá	710	Panajachel	8	Panajachel	4	Abril	2023-04-17T00:00:00	2024-11-08T15:00:00	2	Temperatura media	21.1
31662	7	Sololá	710	Panajachel	8	Panajachel	4	Abril	2023-04-17T00:00:00	2024-11-08T15:00:00	4	Temperatura máxima	22
31663	7	Sololá	710	Panajachel	8	Panajachel	4	Abril	2023-04-17T00:00:00	2024-11-08T15:00:00	3	Temperatura mínima	20.9
31664	7	Sololá	710	Panajachel	8	Panajachel	4	Abril	2023-04-17T00:00:00	2024-11-08T15:00:00	5	Humedad	84
31665	7	Sololá	710	Panajachel	8	Panajachel	4	Abril	2023-04-17T00:00:00	2024-11-08T15:00:00	6	Velocidad del viento	14.5
31666	7	Sololá	710	Panajachel	8	Panajachel	4	Abril	2023-04-17T00:00:00	2024-11-08T15:00:00	7	Dirección del viento	14.48
31667	7	Sololá	710	Panajachel	8	Panajachel	4	Abril	2023-04-17T00:00:00	2024-11-08T15:00:00	1	Precipitación	0
31668	7	Sololá	710	Panajachel	8	Panajachel	4	Abril	2023-04-17T00:00:00	2024-11-08T15:00:00	8	Radiación solar	88
31669	7	Sololá	710	Panajachel	8	Panajachel	4	Abril	2023-04-17T00:00:00	2024-11-08T16:00:00	2	Temperatura media	17.9
31670	7	Sololá	710	Panajachel	8	Panajachel	4	Abril	2023-04-17T00:00:00	2024-11-08T16:00:00	4	Temperatura máxima	21
31671	7	Sololá	710	Panajachel	8	Panajachel	4	Abril	2023-04-17T00:00:00	2024-11-08T16:00:00	3	Temperatura mínima	17.9
31672	7	Sololá	710	Panajachel	8	Panajachel	4	Abril	2023-04-17T00:00:00	2024-11-08T16:00:00	5	Humedad	83
31673	7	Sololá	710	Panajachel	8	Panajachel	4	Abril	2023-04-17T00:00:00	2024-11-08T16:00:00	6	Velocidad del viento	4.8
31674	7	Sololá	710	Panajachel	8	Panajachel	4	Abril	2023-04-17T00:00:00	2024-11-08T16:00:00	7	Dirección del viento	4.83
31675	7	Sololá	710	Panajachel	8	Panajachel	4	Abril	2023-04-17T00:00:00	2024-11-08T16:00:00	1	Precipitación	0
31676	7	Sololá	710	Panajachel	8	Panajachel	4	Abril	2023-04-17T00:00:00	2024-11-08T16:00:00	8	Radiación solar	35
31677	7	Sololá	710	Panajachel	8	Panajachel	4	Abril	2023-04-17T00:00:00	2024-11-08T17:00:00	2	Temperatura media	16.9
31678	7	Sololá	710	Panajachel	8	Panajachel	4	Abril	2023-04-17T00:00:00	2024-11-08T17:00:00	4	Temperatura máxima	17.9
31679	7	Sololá	710	Panajachel	8	Panajachel	4	Abril	2023-04-17T00:00:00	2024-11-08T17:00:00	3	Temperatura mínima	16.7
31680	7	Sololá	710	Panajachel	8	Panajachel	4	Abril	2023-04-17T00:00:00	2024-11-08T17:00:00	5	Humedad	93
31681	7	Sololá	710	Panajachel	8	Panajachel	4	Abril	2023-04-17T00:00:00	2024-11-08T17:00:00	6	Velocidad del viento	1.6
31682	7	Sololá	710	Panajachel	8	Panajachel	4	Abril	2023-04-17T00:00:00	2024-11-08T17:00:00	7	Dirección del viento	1.61
31683	7	Sololá	710	Panajachel	8	Panajachel	4	Abril	2023-04-17T00:00:00	2024-11-08T17:00:00	1	Precipitación	6.2
31684	7	Sololá	710	Panajachel	8	Panajachel	4	Abril	2023-04-17T00:00:00	2024-11-08T17:00:00	8	Radiación solar	31
31685	7	Sololá	710	Panajachel	8	Panajachel	4	Abril	2023-04-17T00:00:00	2024-11-08T18:00:00	2	Temperatura media	17.6
31686	7	Sololá	710	Panajachel	8	Panajachel	4	Abril	2023-04-17T00:00:00	2024-11-08T18:00:00	4	Temperatura máxima	17.6
31687	7	Sololá	710	Panajachel	8	Panajachel	4	Abril	2023-04-17T00:00:00	2024-11-08T18:00:00	3	Temperatura mínima	16.9
31688	7	Sololá	710	Panajachel	8	Panajachel	4	Abril	2023-04-17T00:00:00	2024-11-08T18:00:00	5	Humedad	92
31689	7	Sololá	710	Panajachel	8	Panajachel	4	Abril	2023-04-17T00:00:00	2024-11-08T18:00:00	6	Velocidad del viento	0
31690	7	Sololá	710	Panajachel	8	Panajachel	4	Abril	2023-04-17T00:00:00	2024-11-08T18:00:00	7	Dirección del viento	0
31691	7	Sololá	710	Panajachel	8	Panajachel	4	Abril	2023-04-17T00:00:00	2024-11-08T18:00:00	1	Precipitación	0
31692	7	Sololá	710	Panajachel	8	Panajachel	4	Abril	2023-04-17T00:00:00	2024-11-08T18:00:00	8	Radiación solar	35
31693	7	Sololá	710	Panajachel	8	Panajachel	4	Abril	2023-04-17T00:00:00	2024-11-08T19:00:00	2	Temperatura media	17.2
31694	7	Sololá	710	Panajachel	8	Panajachel	4	Abril	2023-04-17T00:00:00	2024-11-08T19:00:00	4	Temperatura máxima	17.6
31695	7	Sololá	710	Panajachel	8	Panajachel	4	Abril	2023-04-17T00:00:00	2024-11-08T19:00:00	3	Temperatura mínima	17.2
31696	7	Sololá	710	Panajachel	8	Panajachel	4	Abril	2023-04-17T00:00:00	2024-11-08T19:00:00	5	Humedad	93
31697	7	Sololá	710	Panajachel	8	Panajachel	4	Abril	2023-04-17T00:00:00	2024-11-08T19:00:00	6	Velocidad del viento	0
31698	7	Sololá	710	Panajachel	8	Panajachel	4	Abril	2023-04-17T00:00:00	2024-11-08T19:00:00	7	Dirección del viento	0
31699	7	Sololá	710	Panajachel	8	Panajachel	4	Abril	2023-04-17T00:00:00	2024-11-08T19:00:00	1	Precipitación	0
31700	7	Sololá	710	Panajachel	8	Panajachel	4	Abril	2023-04-17T00:00:00	2024-11-08T19:00:00	8	Radiación solar	0
31701	7	Sololá	710	Panajachel	8	Panajachel	4	Abril	2023-04-17T00:00:00	2024-11-08T20:00:00	2	Temperatura media	16.9
31702	7	Sololá	710	Panajachel	8	Panajachel	4	Abril	2023-04-17T00:00:00	2024-11-08T20:00:00	4	Temperatura máxima	17.2
31703	7	Sololá	710	Panajachel	8	Panajachel	4	Abril	2023-04-17T00:00:00	2024-11-08T20:00:00	3	Temperatura mínima	16.9
31704	7	Sololá	710	Panajachel	8	Panajachel	4	Abril	2023-04-17T00:00:00	2024-11-08T20:00:00	5	Humedad	94
31705	7	Sololá	710	Panajachel	8	Panajachel	4	Abril	2023-04-17T00:00:00	2024-11-08T20:00:00	6	Velocidad del viento	0
31706	7	Sololá	710	Panajachel	8	Panajachel	4	Abril	2023-04-17T00:00:00	2024-11-08T20:00:00	7	Dirección del viento	0
31707	7	Sololá	710	Panajachel	8	Panajachel	4	Abril	2023-04-17T00:00:00	2024-11-08T20:00:00	1	Precipitación	0
31708	7	Sololá	710	Panajachel	8	Panajachel	4	Abril	2023-04-17T00:00:00	2024-11-08T20:00:00	8	Radiación solar	0
31709	7	Sololá	710	Panajachel	8	Panajachel	4	Abril	2023-04-17T00:00:00	2024-11-08T21:00:00	2	Temperatura media	18
31710	7	Sololá	710	Panajachel	8	Panajachel	4	Abril	2023-04-17T00:00:00	2024-11-08T21:00:00	4	Temperatura máxima	18
31711	7	Sololá	710	Panajachel	8	Panajachel	4	Abril	2023-04-17T00:00:00	2024-11-08T21:00:00	3	Temperatura mínima	16.8
31712	7	Sololá	710	Panajachel	8	Panajachel	4	Abril	2023-04-17T00:00:00	2024-11-08T21:00:00	5	Humedad	80
31713	7	Sololá	710	Panajachel	8	Panajachel	4	Abril	2023-04-17T00:00:00	2024-11-08T21:00:00	6	Velocidad del viento	1.6
31714	7	Sololá	710	Panajachel	8	Panajachel	4	Abril	2023-04-17T00:00:00	2024-11-08T21:00:00	7	Dirección del viento	1.61
31715	7	Sololá	710	Panajachel	8	Panajachel	4	Abril	2023-04-17T00:00:00	2024-11-08T21:00:00	1	Precipitación	0
31716	7	Sololá	710	Panajachel	8	Panajachel	4	Abril	2023-04-17T00:00:00	2024-11-08T21:00:00	8	Radiación solar	0
31717	7	Sololá	710	Panajachel	8	Panajachel	4	Abril	2023-04-17T00:00:00	2024-11-08T22:00:00	2	Temperatura media	18.5
31718	7	Sololá	710	Panajachel	8	Panajachel	4	Abril	2023-04-17T00:00:00	2024-11-08T22:00:00	4	Temperatura máxima	19.1
31719	7	Sololá	710	Panajachel	8	Panajachel	4	Abril	2023-04-17T00:00:00	2024-11-08T22:00:00	3	Temperatura mínima	18
31720	7	Sololá	710	Panajachel	8	Panajachel	4	Abril	2023-04-17T00:00:00	2024-11-08T22:00:00	5	Humedad	76
31721	7	Sololá	710	Panajachel	8	Panajachel	4	Abril	2023-04-17T00:00:00	2024-11-08T22:00:00	6	Velocidad del viento	4.8
31722	7	Sololá	710	Panajachel	8	Panajachel	4	Abril	2023-04-17T00:00:00	2024-11-08T22:00:00	7	Dirección del viento	4.83
31723	7	Sololá	710	Panajachel	8	Panajachel	4	Abril	2023-04-17T00:00:00	2024-11-08T22:00:00	1	Precipitación	0
31724	7	Sololá	710	Panajachel	8	Panajachel	4	Abril	2023-04-17T00:00:00	2024-11-08T22:00:00	8	Radiación solar	0
31725	7	Sololá	710	Panajachel	8	Panajachel	4	Abril	2023-04-17T00:00:00	2024-11-08T23:00:00	2	Temperatura media	18.6
31726	7	Sololá	710	Panajachel	8	Panajachel	4	Abril	2023-04-17T00:00:00	2024-11-08T23:00:00	4	Temperatura máxima	19.3
31727	7	Sololá	710	Panajachel	8	Panajachel	4	Abril	2023-04-17T00:00:00	2024-11-08T23:00:00	3	Temperatura mínima	18.3
31728	7	Sololá	710	Panajachel	8	Panajachel	4	Abril	2023-04-17T00:00:00	2024-11-08T23:00:00	5	Humedad	76
31729	7	Sololá	710	Panajachel	8	Panajachel	4	Abril	2023-04-17T00:00:00	2024-11-08T23:00:00	6	Velocidad del viento	3.2
31730	7	Sololá	710	Panajachel	8	Panajachel	4	Abril	2023-04-17T00:00:00	2024-11-08T23:00:00	7	Dirección del viento	3.22
31731	7	Sololá	710	Panajachel	8	Panajachel	4	Abril	2023-04-17T00:00:00	2024-11-08T23:00:00	1	Precipitación	0
31732	7	Sololá	710	Panajachel	8	Panajachel	4	Abril	2023-04-17T00:00:00	2024-11-08T23:00:00	8	Radiación solar	0
31733	7	Sololá	710	Panajachel	8	Panajachel	4	Abril	2023-04-18T00:00:00	2024-11-08T00:00:00	2	Temperatura media	18.6
31734	7	Sololá	710	Panajachel	8	Panajachel	4	Abril	2023-04-18T00:00:00	2024-11-08T00:00:00	4	Temperatura máxima	18.6
31735	7	Sololá	710	Panajachel	8	Panajachel	4	Abril	2023-04-18T00:00:00	2024-11-08T00:00:00	3	Temperatura mínima	17.3
31736	7	Sololá	710	Panajachel	8	Panajachel	4	Abril	2023-04-18T00:00:00	2024-11-08T00:00:00	5	Humedad	77
31737	7	Sololá	710	Panajachel	8	Panajachel	4	Abril	2023-04-18T00:00:00	2024-11-08T00:00:00	6	Velocidad del viento	1.6
31738	7	Sololá	710	Panajachel	8	Panajachel	4	Abril	2023-04-18T00:00:00	2024-11-08T00:00:00	7	Dirección del viento	1.61
31739	7	Sololá	710	Panajachel	8	Panajachel	4	Abril	2023-04-18T00:00:00	2024-11-08T00:00:00	1	Precipitación	0
31740	7	Sololá	710	Panajachel	8	Panajachel	4	Abril	2023-04-18T00:00:00	2024-11-08T00:00:00	8	Radiación solar	0
31741	7	Sololá	710	Panajachel	8	Panajachel	4	Abril	2023-04-18T00:00:00	2024-11-08T01:00:00	2	Temperatura media	18.6
31742	7	Sololá	710	Panajachel	8	Panajachel	4	Abril	2023-04-18T00:00:00	2024-11-08T01:00:00	4	Temperatura máxima	18.8
31743	7	Sololá	710	Panajachel	8	Panajachel	4	Abril	2023-04-18T00:00:00	2024-11-08T01:00:00	3	Temperatura mínima	18.2
31744	7	Sololá	710	Panajachel	8	Panajachel	4	Abril	2023-04-18T00:00:00	2024-11-08T01:00:00	5	Humedad	77
31745	7	Sololá	710	Panajachel	8	Panajachel	4	Abril	2023-04-18T00:00:00	2024-11-08T01:00:00	6	Velocidad del viento	1.6
31746	7	Sololá	710	Panajachel	8	Panajachel	4	Abril	2023-04-18T00:00:00	2024-11-08T01:00:00	7	Dirección del viento	1.61
31747	7	Sololá	710	Panajachel	8	Panajachel	4	Abril	2023-04-18T00:00:00	2024-11-08T01:00:00	1	Precipitación	0
31748	7	Sololá	710	Panajachel	8	Panajachel	4	Abril	2023-04-18T00:00:00	2024-11-08T01:00:00	8	Radiación solar	0
31749	7	Sololá	710	Panajachel	8	Panajachel	4	Abril	2023-04-18T00:00:00	2024-11-08T02:00:00	2	Temperatura media	18.6
31750	7	Sololá	710	Panajachel	8	Panajachel	4	Abril	2023-04-18T00:00:00	2024-11-08T02:00:00	4	Temperatura máxima	18.7
31751	7	Sololá	710	Panajachel	8	Panajachel	4	Abril	2023-04-18T00:00:00	2024-11-08T02:00:00	3	Temperatura mínima	18.1
31752	7	Sololá	710	Panajachel	8	Panajachel	4	Abril	2023-04-18T00:00:00	2024-11-08T02:00:00	5	Humedad	74
31753	7	Sololá	710	Panajachel	8	Panajachel	4	Abril	2023-04-18T00:00:00	2024-11-08T02:00:00	6	Velocidad del viento	1.6
31754	7	Sololá	710	Panajachel	8	Panajachel	4	Abril	2023-04-18T00:00:00	2024-11-08T02:00:00	7	Dirección del viento	1.61
31755	7	Sololá	710	Panajachel	8	Panajachel	4	Abril	2023-04-18T00:00:00	2024-11-08T02:00:00	1	Precipitación	0
31756	7	Sololá	710	Panajachel	8	Panajachel	4	Abril	2023-04-18T00:00:00	2024-11-08T02:00:00	8	Radiación solar	0
31757	7	Sololá	710	Panajachel	8	Panajachel	4	Abril	2023-04-18T00:00:00	2024-11-08T03:00:00	2	Temperatura media	18
31758	7	Sololá	710	Panajachel	8	Panajachel	4	Abril	2023-04-18T00:00:00	2024-11-08T03:00:00	4	Temperatura máxima	18.7
31759	7	Sololá	710	Panajachel	8	Panajachel	4	Abril	2023-04-18T00:00:00	2024-11-08T03:00:00	3	Temperatura mínima	18
31760	7	Sololá	710	Panajachel	8	Panajachel	4	Abril	2023-04-18T00:00:00	2024-11-08T03:00:00	5	Humedad	76
31761	7	Sololá	710	Panajachel	8	Panajachel	4	Abril	2023-04-18T00:00:00	2024-11-08T03:00:00	6	Velocidad del viento	1.6
31762	7	Sololá	710	Panajachel	8	Panajachel	4	Abril	2023-04-18T00:00:00	2024-11-08T03:00:00	7	Dirección del viento	1.61
31763	7	Sololá	710	Panajachel	8	Panajachel	4	Abril	2023-04-18T00:00:00	2024-11-08T03:00:00	1	Precipitación	0
31764	7	Sololá	710	Panajachel	8	Panajachel	4	Abril	2023-04-18T00:00:00	2024-11-08T03:00:00	8	Radiación solar	0
31765	7	Sololá	710	Panajachel	8	Panajachel	4	Abril	2023-04-18T00:00:00	2024-11-08T04:00:00	2	Temperatura media	17.7
31766	7	Sololá	710	Panajachel	8	Panajachel	4	Abril	2023-04-18T00:00:00	2024-11-08T04:00:00	4	Temperatura máxima	18
31767	7	Sololá	710	Panajachel	8	Panajachel	4	Abril	2023-04-18T00:00:00	2024-11-08T04:00:00	3	Temperatura mínima	17.1
31768	7	Sololá	710	Panajachel	8	Panajachel	4	Abril	2023-04-18T00:00:00	2024-11-08T04:00:00	5	Humedad	73
31769	7	Sololá	710	Panajachel	8	Panajachel	4	Abril	2023-04-18T00:00:00	2024-11-08T04:00:00	6	Velocidad del viento	3.2
31770	7	Sololá	710	Panajachel	8	Panajachel	4	Abril	2023-04-18T00:00:00	2024-11-08T04:00:00	7	Dirección del viento	3.22
31771	7	Sololá	710	Panajachel	8	Panajachel	4	Abril	2023-04-18T00:00:00	2024-11-08T04:00:00	1	Precipitación	0
31772	7	Sololá	710	Panajachel	8	Panajachel	4	Abril	2023-04-18T00:00:00	2024-11-08T04:00:00	8	Radiación solar	0
31773	7	Sololá	710	Panajachel	8	Panajachel	4	Abril	2023-04-18T00:00:00	2024-11-08T05:00:00	2	Temperatura media	18
31774	7	Sololá	710	Panajachel	8	Panajachel	4	Abril	2023-04-18T00:00:00	2024-11-08T05:00:00	4	Temperatura máxima	18.2
31775	7	Sololá	710	Panajachel	8	Panajachel	4	Abril	2023-04-18T00:00:00	2024-11-08T05:00:00	3	Temperatura mínima	17.8
31776	7	Sololá	710	Panajachel	8	Panajachel	4	Abril	2023-04-18T00:00:00	2024-11-08T05:00:00	5	Humedad	72
31777	7	Sololá	710	Panajachel	8	Panajachel	4	Abril	2023-04-18T00:00:00	2024-11-08T05:00:00	6	Velocidad del viento	8
31778	7	Sololá	710	Panajachel	8	Panajachel	4	Abril	2023-04-18T00:00:00	2024-11-08T05:00:00	7	Dirección del viento	8.05
31779	7	Sololá	710	Panajachel	8	Panajachel	4	Abril	2023-04-18T00:00:00	2024-11-08T05:00:00	1	Precipitación	0
31780	7	Sololá	710	Panajachel	8	Panajachel	4	Abril	2023-04-18T00:00:00	2024-11-08T05:00:00	8	Radiación solar	0
31781	7	Sololá	710	Panajachel	8	Panajachel	4	Abril	2023-04-18T00:00:00	2024-11-08T06:00:00	2	Temperatura media	16.9
31782	7	Sololá	710	Panajachel	8	Panajachel	4	Abril	2023-04-18T00:00:00	2024-11-08T06:00:00	4	Temperatura máxima	18
31783	7	Sololá	710	Panajachel	8	Panajachel	4	Abril	2023-04-18T00:00:00	2024-11-08T06:00:00	3	Temperatura mínima	16.8
31784	7	Sololá	710	Panajachel	8	Panajachel	4	Abril	2023-04-18T00:00:00	2024-11-08T06:00:00	5	Humedad	75
31785	7	Sololá	710	Panajachel	8	Panajachel	4	Abril	2023-04-18T00:00:00	2024-11-08T06:00:00	6	Velocidad del viento	1.6
31786	7	Sololá	710	Panajachel	8	Panajachel	4	Abril	2023-04-18T00:00:00	2024-11-08T06:00:00	7	Dirección del viento	1.61
31787	7	Sololá	710	Panajachel	8	Panajachel	4	Abril	2023-04-18T00:00:00	2024-11-08T06:00:00	1	Precipitación	0
31788	7	Sololá	710	Panajachel	8	Panajachel	4	Abril	2023-04-18T00:00:00	2024-11-08T06:00:00	8	Radiación solar	1
31789	7	Sololá	710	Panajachel	8	Panajachel	4	Abril	2023-04-18T00:00:00	2024-11-08T07:00:00	2	Temperatura media	17.8
31790	7	Sololá	710	Panajachel	8	Panajachel	4	Abril	2023-04-18T00:00:00	2024-11-08T07:00:00	4	Temperatura máxima	17.8
31791	7	Sololá	710	Panajachel	8	Panajachel	4	Abril	2023-04-18T00:00:00	2024-11-08T07:00:00	3	Temperatura mínima	16.2
31792	7	Sololá	710	Panajachel	8	Panajachel	4	Abril	2023-04-18T00:00:00	2024-11-08T07:00:00	5	Humedad	73
31793	7	Sololá	710	Panajachel	8	Panajachel	4	Abril	2023-04-18T00:00:00	2024-11-08T07:00:00	6	Velocidad del viento	3.2
31794	7	Sololá	710	Panajachel	8	Panajachel	4	Abril	2023-04-18T00:00:00	2024-11-08T07:00:00	7	Dirección del viento	3.22
31795	7	Sololá	710	Panajachel	8	Panajachel	4	Abril	2023-04-18T00:00:00	2024-11-08T07:00:00	1	Precipitación	0
31796	7	Sololá	710	Panajachel	8	Panajachel	4	Abril	2023-04-18T00:00:00	2024-11-08T07:00:00	8	Radiación solar	70
31797	7	Sololá	710	Panajachel	8	Panajachel	4	Abril	2023-04-18T00:00:00	2024-11-08T08:00:00	2	Temperatura media	20.6
31798	7	Sololá	710	Panajachel	8	Panajachel	4	Abril	2023-04-18T00:00:00	2024-11-08T08:00:00	4	Temperatura máxima	20.8
31799	7	Sololá	710	Panajachel	8	Panajachel	4	Abril	2023-04-18T00:00:00	2024-11-08T08:00:00	3	Temperatura mínima	17.8
31800	7	Sololá	710	Panajachel	8	Panajachel	4	Abril	2023-04-18T00:00:00	2024-11-08T08:00:00	5	Humedad	67
31801	7	Sololá	710	Panajachel	8	Panajachel	4	Abril	2023-04-18T00:00:00	2024-11-08T08:00:00	6	Velocidad del viento	1.6
31802	7	Sololá	710	Panajachel	8	Panajachel	4	Abril	2023-04-18T00:00:00	2024-11-08T08:00:00	7	Dirección del viento	1.61
31803	7	Sololá	710	Panajachel	8	Panajachel	4	Abril	2023-04-18T00:00:00	2024-11-08T08:00:00	1	Precipitación	0
31804	7	Sololá	710	Panajachel	8	Panajachel	4	Abril	2023-04-18T00:00:00	2024-11-08T08:00:00	8	Radiación solar	325
31805	7	Sololá	710	Panajachel	8	Panajachel	4	Abril	2023-04-18T00:00:00	2024-11-08T09:00:00	2	Temperatura media	21.1
31806	7	Sololá	710	Panajachel	8	Panajachel	4	Abril	2023-04-18T00:00:00	2024-11-08T09:00:00	4	Temperatura máxima	21.1
31807	7	Sololá	710	Panajachel	8	Panajachel	4	Abril	2023-04-18T00:00:00	2024-11-08T09:00:00	3	Temperatura mínima	20.1
31808	7	Sololá	710	Panajachel	8	Panajachel	4	Abril	2023-04-18T00:00:00	2024-11-08T09:00:00	5	Humedad	69
31809	7	Sololá	710	Panajachel	8	Panajachel	4	Abril	2023-04-18T00:00:00	2024-11-08T09:00:00	6	Velocidad del viento	1.6
31810	7	Sololá	710	Panajachel	8	Panajachel	4	Abril	2023-04-18T00:00:00	2024-11-08T09:00:00	7	Dirección del viento	1.61
31811	7	Sololá	710	Panajachel	8	Panajachel	4	Abril	2023-04-18T00:00:00	2024-11-08T09:00:00	1	Precipitación	0
31812	7	Sololá	710	Panajachel	8	Panajachel	4	Abril	2023-04-18T00:00:00	2024-11-08T09:00:00	8	Radiación solar	549
31813	7	Sololá	710	Panajachel	8	Panajachel	4	Abril	2023-04-18T00:00:00	2024-11-08T10:00:00	2	Temperatura media	21.7
31814	7	Sololá	710	Panajachel	8	Panajachel	4	Abril	2023-04-18T00:00:00	2024-11-08T10:00:00	4	Temperatura máxima	21.7
31815	7	Sololá	710	Panajachel	8	Panajachel	4	Abril	2023-04-18T00:00:00	2024-11-08T10:00:00	3	Temperatura mínima	20.4
31816	7	Sololá	710	Panajachel	8	Panajachel	4	Abril	2023-04-18T00:00:00	2024-11-08T10:00:00	5	Humedad	69
31817	7	Sololá	710	Panajachel	8	Panajachel	4	Abril	2023-04-18T00:00:00	2024-11-08T10:00:00	6	Velocidad del viento	3.2
31818	7	Sololá	710	Panajachel	8	Panajachel	4	Abril	2023-04-18T00:00:00	2024-11-08T10:00:00	7	Dirección del viento	3.22
31819	7	Sololá	710	Panajachel	8	Panajachel	4	Abril	2023-04-18T00:00:00	2024-11-08T10:00:00	1	Precipitación	0
31820	7	Sololá	710	Panajachel	8	Panajachel	4	Abril	2023-04-18T00:00:00	2024-11-08T10:00:00	8	Radiación solar	748
31821	7	Sololá	710	Panajachel	8	Panajachel	4	Abril	2023-04-18T00:00:00	2024-11-08T11:00:00	2	Temperatura media	22.9
31822	7	Sololá	710	Panajachel	8	Panajachel	4	Abril	2023-04-18T00:00:00	2024-11-08T11:00:00	4	Temperatura máxima	23.4
31823	7	Sololá	710	Panajachel	8	Panajachel	4	Abril	2023-04-18T00:00:00	2024-11-08T11:00:00	3	Temperatura mínima	21.7
31824	7	Sololá	710	Panajachel	8	Panajachel	4	Abril	2023-04-18T00:00:00	2024-11-08T11:00:00	5	Humedad	59
31825	7	Sololá	710	Panajachel	8	Panajachel	4	Abril	2023-04-18T00:00:00	2024-11-08T11:00:00	6	Velocidad del viento	3.2
31826	7	Sololá	710	Panajachel	8	Panajachel	4	Abril	2023-04-18T00:00:00	2024-11-08T11:00:00	7	Dirección del viento	3.22
31827	7	Sololá	710	Panajachel	8	Panajachel	4	Abril	2023-04-18T00:00:00	2024-11-08T11:00:00	1	Precipitación	0
31828	7	Sololá	710	Panajachel	8	Panajachel	4	Abril	2023-04-18T00:00:00	2024-11-08T11:00:00	8	Radiación solar	883
31829	7	Sololá	710	Panajachel	8	Panajachel	4	Abril	2023-04-18T00:00:00	2024-11-08T12:00:00	2	Temperatura media	22.5
31830	7	Sololá	710	Panajachel	8	Panajachel	4	Abril	2023-04-18T00:00:00	2024-11-08T12:00:00	4	Temperatura máxima	23.3
31831	7	Sololá	710	Panajachel	8	Panajachel	4	Abril	2023-04-18T00:00:00	2024-11-08T12:00:00	3	Temperatura mínima	22.2
31832	7	Sololá	710	Panajachel	8	Panajachel	4	Abril	2023-04-18T00:00:00	2024-11-08T12:00:00	5	Humedad	68
31833	7	Sololá	710	Panajachel	8	Panajachel	4	Abril	2023-04-18T00:00:00	2024-11-08T12:00:00	6	Velocidad del viento	4.8
31834	7	Sololá	710	Panajachel	8	Panajachel	4	Abril	2023-04-18T00:00:00	2024-11-08T12:00:00	7	Dirección del viento	4.83
31835	7	Sololá	710	Panajachel	8	Panajachel	4	Abril	2023-04-18T00:00:00	2024-11-08T12:00:00	1	Precipitación	0
31836	7	Sololá	710	Panajachel	8	Panajachel	4	Abril	2023-04-18T00:00:00	2024-11-08T12:00:00	8	Radiación solar	954
31837	7	Sololá	710	Panajachel	8	Panajachel	4	Abril	2023-04-18T00:00:00	2024-11-08T13:00:00	2	Temperatura media	23.9
31838	7	Sololá	710	Panajachel	8	Panajachel	4	Abril	2023-04-18T00:00:00	2024-11-08T13:00:00	4	Temperatura máxima	24.2
31839	7	Sololá	710	Panajachel	8	Panajachel	4	Abril	2023-04-18T00:00:00	2024-11-08T13:00:00	3	Temperatura mínima	22.4
31840	7	Sololá	710	Panajachel	8	Panajachel	4	Abril	2023-04-18T00:00:00	2024-11-08T13:00:00	5	Humedad	70
31841	7	Sololá	710	Panajachel	8	Panajachel	4	Abril	2023-04-18T00:00:00	2024-11-08T13:00:00	6	Velocidad del viento	6.4
31842	7	Sololá	710	Panajachel	8	Panajachel	4	Abril	2023-04-18T00:00:00	2024-11-08T13:00:00	7	Dirección del viento	6.44
31843	7	Sololá	710	Panajachel	8	Panajachel	4	Abril	2023-04-18T00:00:00	2024-11-08T13:00:00	1	Precipitación	0
31844	7	Sololá	710	Panajachel	8	Panajachel	4	Abril	2023-04-18T00:00:00	2024-11-08T13:00:00	8	Radiación solar	839
31845	7	Sololá	710	Panajachel	8	Panajachel	4	Abril	2023-04-18T00:00:00	2024-11-08T14:00:00	2	Temperatura media	22.5
31846	7	Sololá	710	Panajachel	8	Panajachel	4	Abril	2023-04-18T00:00:00	2024-11-08T14:00:00	4	Temperatura máxima	24.9
31847	7	Sololá	710	Panajachel	8	Panajachel	4	Abril	2023-04-18T00:00:00	2024-11-08T14:00:00	3	Temperatura mínima	22.3
31848	7	Sololá	710	Panajachel	8	Panajachel	4	Abril	2023-04-18T00:00:00	2024-11-08T14:00:00	5	Humedad	74
31849	7	Sololá	710	Panajachel	8	Panajachel	4	Abril	2023-04-18T00:00:00	2024-11-08T14:00:00	6	Velocidad del viento	8
31850	7	Sololá	710	Panajachel	8	Panajachel	4	Abril	2023-04-18T00:00:00	2024-11-08T14:00:00	7	Dirección del viento	8.05
31851	7	Sololá	710	Panajachel	8	Panajachel	4	Abril	2023-04-18T00:00:00	2024-11-08T14:00:00	1	Precipitación	0
31852	7	Sololá	710	Panajachel	8	Panajachel	4	Abril	2023-04-18T00:00:00	2024-11-08T14:00:00	8	Radiación solar	704
31853	7	Sololá	710	Panajachel	8	Panajachel	4	Abril	2023-04-18T00:00:00	2024-11-08T15:00:00	2	Temperatura media	23.2
31854	7	Sololá	710	Panajachel	8	Panajachel	4	Abril	2023-04-18T00:00:00	2024-11-08T15:00:00	4	Temperatura máxima	23.6
31855	7	Sololá	710	Panajachel	8	Panajachel	4	Abril	2023-04-18T00:00:00	2024-11-08T15:00:00	3	Temperatura mínima	21.9
31856	7	Sololá	710	Panajachel	8	Panajachel	4	Abril	2023-04-18T00:00:00	2024-11-08T15:00:00	5	Humedad	70
31857	7	Sololá	710	Panajachel	8	Panajachel	4	Abril	2023-04-18T00:00:00	2024-11-08T15:00:00	6	Velocidad del viento	8
31858	7	Sololá	710	Panajachel	8	Panajachel	4	Abril	2023-04-18T00:00:00	2024-11-08T15:00:00	7	Dirección del viento	8.05
31859	7	Sololá	710	Panajachel	8	Panajachel	4	Abril	2023-04-18T00:00:00	2024-11-08T15:00:00	1	Precipitación	0
31860	7	Sololá	710	Panajachel	8	Panajachel	4	Abril	2023-04-18T00:00:00	2024-11-08T15:00:00	8	Radiación solar	496
31861	7	Sololá	710	Panajachel	8	Panajachel	4	Abril	2023-04-18T00:00:00	2024-11-08T16:00:00	2	Temperatura media	22.3
31862	7	Sololá	710	Panajachel	8	Panajachel	4	Abril	2023-04-18T00:00:00	2024-11-08T16:00:00	4	Temperatura máxima	23.2
31863	7	Sololá	710	Panajachel	8	Panajachel	4	Abril	2023-04-18T00:00:00	2024-11-08T16:00:00	3	Temperatura mínima	22.3
31864	7	Sololá	710	Panajachel	8	Panajachel	4	Abril	2023-04-18T00:00:00	2024-11-08T16:00:00	5	Humedad	74
31865	7	Sololá	710	Panajachel	8	Panajachel	4	Abril	2023-04-18T00:00:00	2024-11-08T16:00:00	6	Velocidad del viento	4.8
31866	7	Sololá	710	Panajachel	8	Panajachel	4	Abril	2023-04-18T00:00:00	2024-11-08T16:00:00	7	Dirección del viento	4.83
31867	7	Sololá	710	Panajachel	8	Panajachel	4	Abril	2023-04-18T00:00:00	2024-11-08T16:00:00	1	Precipitación	0
31868	7	Sololá	710	Panajachel	8	Panajachel	4	Abril	2023-04-18T00:00:00	2024-11-08T16:00:00	8	Radiación solar	311
31869	7	Sololá	710	Panajachel	8	Panajachel	4	Abril	2023-04-18T00:00:00	2024-11-08T17:00:00	2	Temperatura media	20.8
31870	7	Sololá	710	Panajachel	8	Panajachel	4	Abril	2023-04-18T00:00:00	2024-11-08T17:00:00	4	Temperatura máxima	22.3
31871	7	Sololá	710	Panajachel	8	Panajachel	4	Abril	2023-04-18T00:00:00	2024-11-08T17:00:00	3	Temperatura mínima	20.8
31872	7	Sololá	710	Panajachel	8	Panajachel	4	Abril	2023-04-18T00:00:00	2024-11-08T17:00:00	5	Humedad	83
31873	7	Sololá	710	Panajachel	8	Panajachel	4	Abril	2023-04-18T00:00:00	2024-11-08T17:00:00	6	Velocidad del viento	3.2
31874	7	Sololá	710	Panajachel	8	Panajachel	4	Abril	2023-04-18T00:00:00	2024-11-08T17:00:00	7	Dirección del viento	3.22
31875	7	Sololá	710	Panajachel	8	Panajachel	4	Abril	2023-04-18T00:00:00	2024-11-08T17:00:00	1	Precipitación	0
31876	7	Sololá	710	Panajachel	8	Panajachel	4	Abril	2023-04-18T00:00:00	2024-11-08T17:00:00	8	Radiación solar	80
31877	7	Sololá	710	Panajachel	8	Panajachel	4	Abril	2023-04-18T00:00:00	2024-11-08T18:00:00	2	Temperatura media	20.3
31878	7	Sololá	710	Panajachel	8	Panajachel	4	Abril	2023-04-18T00:00:00	2024-11-08T18:00:00	4	Temperatura máxima	20.8
31879	7	Sololá	710	Panajachel	8	Panajachel	4	Abril	2023-04-18T00:00:00	2024-11-08T18:00:00	3	Temperatura mínima	20.3
31880	7	Sololá	710	Panajachel	8	Panajachel	4	Abril	2023-04-18T00:00:00	2024-11-08T18:00:00	5	Humedad	83
31881	7	Sololá	710	Panajachel	8	Panajachel	4	Abril	2023-04-18T00:00:00	2024-11-08T18:00:00	6	Velocidad del viento	1.6
31882	7	Sololá	710	Panajachel	8	Panajachel	4	Abril	2023-04-18T00:00:00	2024-11-08T18:00:00	7	Dirección del viento	1.61
31883	7	Sololá	710	Panajachel	8	Panajachel	4	Abril	2023-04-18T00:00:00	2024-11-08T18:00:00	1	Precipitación	0
31884	7	Sololá	710	Panajachel	8	Panajachel	4	Abril	2023-04-18T00:00:00	2024-11-08T18:00:00	8	Radiación solar	22
31885	7	Sololá	710	Panajachel	8	Panajachel	4	Abril	2023-04-18T00:00:00	2024-11-08T19:00:00	2	Temperatura media	20.1
31886	7	Sololá	710	Panajachel	8	Panajachel	4	Abril	2023-04-18T00:00:00	2024-11-08T19:00:00	4	Temperatura máxima	20.3
31887	7	Sololá	710	Panajachel	8	Panajachel	4	Abril	2023-04-18T00:00:00	2024-11-08T19:00:00	3	Temperatura mínima	20
31888	7	Sololá	710	Panajachel	8	Panajachel	4	Abril	2023-04-18T00:00:00	2024-11-08T19:00:00	5	Humedad	85
31889	7	Sololá	710	Panajachel	8	Panajachel	4	Abril	2023-04-18T00:00:00	2024-11-08T19:00:00	6	Velocidad del viento	0
31890	7	Sololá	710	Panajachel	8	Panajachel	4	Abril	2023-04-18T00:00:00	2024-11-08T19:00:00	7	Dirección del viento	0
31891	7	Sololá	710	Panajachel	8	Panajachel	4	Abril	2023-04-18T00:00:00	2024-11-08T19:00:00	1	Precipitación	0
31892	7	Sololá	710	Panajachel	8	Panajachel	4	Abril	2023-04-18T00:00:00	2024-11-08T19:00:00	8	Radiación solar	0
31893	7	Sololá	710	Panajachel	8	Panajachel	4	Abril	2023-04-18T00:00:00	2024-11-08T20:00:00	2	Temperatura media	19.9
31894	7	Sololá	710	Panajachel	8	Panajachel	4	Abril	2023-04-18T00:00:00	2024-11-08T20:00:00	4	Temperatura máxima	20.2
31895	7	Sololá	710	Panajachel	8	Panajachel	4	Abril	2023-04-18T00:00:00	2024-11-08T20:00:00	3	Temperatura mínima	19.9
31896	7	Sololá	710	Panajachel	8	Panajachel	4	Abril	2023-04-18T00:00:00	2024-11-08T20:00:00	5	Humedad	88
31897	7	Sololá	710	Panajachel	8	Panajachel	4	Abril	2023-04-18T00:00:00	2024-11-08T20:00:00	6	Velocidad del viento	1.6
31898	7	Sololá	710	Panajachel	8	Panajachel	4	Abril	2023-04-18T00:00:00	2024-11-08T20:00:00	7	Dirección del viento	1.61
31899	7	Sololá	710	Panajachel	8	Panajachel	4	Abril	2023-04-18T00:00:00	2024-11-08T20:00:00	1	Precipitación	0
31900	7	Sololá	710	Panajachel	8	Panajachel	4	Abril	2023-04-18T00:00:00	2024-11-08T20:00:00	8	Radiación solar	0
31901	7	Sololá	710	Panajachel	8	Panajachel	4	Abril	2023-04-18T00:00:00	2024-11-08T21:00:00	2	Temperatura media	19.7
31902	7	Sololá	710	Panajachel	8	Panajachel	4	Abril	2023-04-18T00:00:00	2024-11-08T21:00:00	4	Temperatura máxima	19.9
31903	7	Sololá	710	Panajachel	8	Panajachel	4	Abril	2023-04-18T00:00:00	2024-11-08T21:00:00	3	Temperatura mínima	19.7
31904	7	Sololá	710	Panajachel	8	Panajachel	4	Abril	2023-04-18T00:00:00	2024-11-08T21:00:00	5	Humedad	88
31905	7	Sololá	710	Panajachel	8	Panajachel	4	Abril	2023-04-18T00:00:00	2024-11-08T21:00:00	6	Velocidad del viento	0
31906	7	Sololá	710	Panajachel	8	Panajachel	4	Abril	2023-04-18T00:00:00	2024-11-08T21:00:00	7	Dirección del viento	0
31907	7	Sololá	710	Panajachel	8	Panajachel	4	Abril	2023-04-18T00:00:00	2024-11-08T21:00:00	1	Precipitación	0
31908	7	Sololá	710	Panajachel	8	Panajachel	4	Abril	2023-04-18T00:00:00	2024-11-08T21:00:00	8	Radiación solar	0
31909	7	Sololá	710	Panajachel	8	Panajachel	4	Abril	2023-04-18T00:00:00	2024-11-08T22:00:00	2	Temperatura media	18.9
31910	7	Sololá	710	Panajachel	8	Panajachel	4	Abril	2023-04-18T00:00:00	2024-11-08T22:00:00	4	Temperatura máxima	19.8
31911	7	Sololá	710	Panajachel	8	Panajachel	4	Abril	2023-04-18T00:00:00	2024-11-08T22:00:00	3	Temperatura mínima	18.8
31912	7	Sololá	710	Panajachel	8	Panajachel	4	Abril	2023-04-18T00:00:00	2024-11-08T22:00:00	5	Humedad	87
31913	7	Sololá	710	Panajachel	8	Panajachel	4	Abril	2023-04-18T00:00:00	2024-11-08T22:00:00	6	Velocidad del viento	0
31914	7	Sololá	710	Panajachel	8	Panajachel	4	Abril	2023-04-18T00:00:00	2024-11-08T22:00:00	7	Dirección del viento	0
31915	7	Sololá	710	Panajachel	8	Panajachel	4	Abril	2023-04-18T00:00:00	2024-11-08T22:00:00	1	Precipitación	0
31916	7	Sololá	710	Panajachel	8	Panajachel	4	Abril	2023-04-18T00:00:00	2024-11-08T22:00:00	8	Radiación solar	0
31917	7	Sololá	710	Panajachel	8	Panajachel	4	Abril	2023-04-18T00:00:00	2024-11-08T23:00:00	2	Temperatura media	17.8
31918	7	Sololá	710	Panajachel	8	Panajachel	4	Abril	2023-04-18T00:00:00	2024-11-08T23:00:00	4	Temperatura máxima	18.8
31919	7	Sololá	710	Panajachel	8	Panajachel	4	Abril	2023-04-18T00:00:00	2024-11-08T23:00:00	3	Temperatura mínima	17.8
31920	7	Sololá	710	Panajachel	8	Panajachel	4	Abril	2023-04-18T00:00:00	2024-11-08T23:00:00	5	Humedad	83
31921	7	Sololá	710	Panajachel	8	Panajachel	4	Abril	2023-04-18T00:00:00	2024-11-08T23:00:00	6	Velocidad del viento	3.2
31922	7	Sololá	710	Panajachel	8	Panajachel	4	Abril	2023-04-18T00:00:00	2024-11-08T23:00:00	7	Dirección del viento	3.22
31923	7	Sololá	710	Panajachel	8	Panajachel	4	Abril	2023-04-18T00:00:00	2024-11-08T23:00:00	1	Precipitación	0
31924	7	Sololá	710	Panajachel	8	Panajachel	4	Abril	2023-04-18T00:00:00	2024-11-08T23:00:00	8	Radiación solar	0
31925	7	Sololá	710	Panajachel	8	Panajachel	4	Abril	2023-04-19T00:00:00	2024-11-08T00:00:00	2	Temperatura media	19.9
31926	7	Sololá	710	Panajachel	8	Panajachel	4	Abril	2023-04-19T00:00:00	2024-11-08T00:00:00	4	Temperatura máxima	20.2
31927	7	Sololá	710	Panajachel	8	Panajachel	4	Abril	2023-04-19T00:00:00	2024-11-08T00:00:00	3	Temperatura mínima	17.8
31928	7	Sololá	710	Panajachel	8	Panajachel	4	Abril	2023-04-19T00:00:00	2024-11-08T00:00:00	5	Humedad	69
31929	7	Sololá	710	Panajachel	8	Panajachel	4	Abril	2023-04-19T00:00:00	2024-11-08T00:00:00	6	Velocidad del viento	8
31930	7	Sololá	710	Panajachel	8	Panajachel	4	Abril	2023-04-19T00:00:00	2024-11-08T00:00:00	7	Dirección del viento	8.05
31931	7	Sololá	710	Panajachel	8	Panajachel	4	Abril	2023-04-19T00:00:00	2024-11-08T00:00:00	1	Precipitación	0
31932	7	Sololá	710	Panajachel	8	Panajachel	4	Abril	2023-04-19T00:00:00	2024-11-08T00:00:00	8	Radiación solar	0
31933	7	Sololá	710	Panajachel	8	Panajachel	4	Abril	2023-04-19T00:00:00	2024-11-08T01:00:00	2	Temperatura media	19.6
31934	7	Sololá	710	Panajachel	8	Panajachel	4	Abril	2023-04-19T00:00:00	2024-11-08T01:00:00	4	Temperatura máxima	19.9
31935	7	Sololá	710	Panajachel	8	Panajachel	4	Abril	2023-04-19T00:00:00	2024-11-08T01:00:00	3	Temperatura mínima	19.6
31936	7	Sololá	710	Panajachel	8	Panajachel	4	Abril	2023-04-19T00:00:00	2024-11-08T01:00:00	5	Humedad	70
31937	7	Sololá	710	Panajachel	8	Panajachel	4	Abril	2023-04-19T00:00:00	2024-11-08T01:00:00	6	Velocidad del viento	9.7
31938	7	Sololá	710	Panajachel	8	Panajachel	4	Abril	2023-04-19T00:00:00	2024-11-08T01:00:00	7	Dirección del viento	9.66
31939	7	Sololá	710	Panajachel	8	Panajachel	4	Abril	2023-04-19T00:00:00	2024-11-08T01:00:00	1	Precipitación	0
31940	7	Sololá	710	Panajachel	8	Panajachel	4	Abril	2023-04-19T00:00:00	2024-11-08T01:00:00	8	Radiación solar	0
31941	7	Sololá	710	Panajachel	8	Panajachel	4	Abril	2023-04-19T00:00:00	2024-11-08T02:00:00	2	Temperatura media	18.6
31942	7	Sololá	710	Panajachel	8	Panajachel	4	Abril	2023-04-19T00:00:00	2024-11-08T02:00:00	4	Temperatura máxima	19.6
31943	7	Sololá	710	Panajachel	8	Panajachel	4	Abril	2023-04-19T00:00:00	2024-11-08T02:00:00	3	Temperatura mínima	18.2
31944	7	Sololá	710	Panajachel	8	Panajachel	4	Abril	2023-04-19T00:00:00	2024-11-08T02:00:00	5	Humedad	72
31945	7	Sololá	710	Panajachel	8	Panajachel	4	Abril	2023-04-19T00:00:00	2024-11-08T02:00:00	6	Velocidad del viento	3.2
31946	7	Sololá	710	Panajachel	8	Panajachel	4	Abril	2023-04-19T00:00:00	2024-11-08T02:00:00	7	Dirección del viento	3.22
31947	7	Sololá	710	Panajachel	8	Panajachel	4	Abril	2023-04-19T00:00:00	2024-11-08T02:00:00	1	Precipitación	0
31948	7	Sololá	710	Panajachel	8	Panajachel	4	Abril	2023-04-19T00:00:00	2024-11-08T02:00:00	8	Radiación solar	0
31949	7	Sololá	710	Panajachel	8	Panajachel	4	Abril	2023-04-19T00:00:00	2024-11-08T03:00:00	2	Temperatura media	17.7
31950	7	Sololá	710	Panajachel	8	Panajachel	4	Abril	2023-04-19T00:00:00	2024-11-08T03:00:00	4	Temperatura máxima	18.6
31951	7	Sololá	710	Panajachel	8	Panajachel	4	Abril	2023-04-19T00:00:00	2024-11-08T03:00:00	3	Temperatura mínima	17.7
31952	7	Sololá	710	Panajachel	8	Panajachel	4	Abril	2023-04-19T00:00:00	2024-11-08T03:00:00	5	Humedad	72
31953	7	Sololá	710	Panajachel	8	Panajachel	4	Abril	2023-04-19T00:00:00	2024-11-08T03:00:00	6	Velocidad del viento	3.2
31954	7	Sololá	710	Panajachel	8	Panajachel	4	Abril	2023-04-19T00:00:00	2024-11-08T03:00:00	7	Dirección del viento	3.22
31955	7	Sololá	710	Panajachel	8	Panajachel	4	Abril	2023-04-19T00:00:00	2024-11-08T03:00:00	1	Precipitación	0
31956	7	Sololá	710	Panajachel	8	Panajachel	4	Abril	2023-04-19T00:00:00	2024-11-08T03:00:00	8	Radiación solar	0
31957	7	Sololá	710	Panajachel	8	Panajachel	4	Abril	2023-04-19T00:00:00	2024-11-08T04:00:00	2	Temperatura media	15.8
31958	7	Sololá	710	Panajachel	8	Panajachel	4	Abril	2023-04-19T00:00:00	2024-11-08T04:00:00	4	Temperatura máxima	17.7
31959	7	Sololá	710	Panajachel	8	Panajachel	4	Abril	2023-04-19T00:00:00	2024-11-08T04:00:00	3	Temperatura mínima	15.8
31960	7	Sololá	710	Panajachel	8	Panajachel	4	Abril	2023-04-19T00:00:00	2024-11-08T04:00:00	5	Humedad	77
31961	7	Sololá	710	Panajachel	8	Panajachel	4	Abril	2023-04-19T00:00:00	2024-11-08T04:00:00	6	Velocidad del viento	1.6
31962	7	Sololá	710	Panajachel	8	Panajachel	4	Abril	2023-04-19T00:00:00	2024-11-08T04:00:00	7	Dirección del viento	1.61
31963	7	Sololá	710	Panajachel	8	Panajachel	4	Abril	2023-04-19T00:00:00	2024-11-08T04:00:00	1	Precipitación	0
31964	7	Sololá	710	Panajachel	8	Panajachel	4	Abril	2023-04-19T00:00:00	2024-11-08T04:00:00	8	Radiación solar	0
31965	7	Sololá	710	Panajachel	8	Panajachel	4	Abril	2023-04-19T00:00:00	2024-11-08T05:00:00	2	Temperatura media	16
31966	7	Sololá	710	Panajachel	8	Panajachel	4	Abril	2023-04-19T00:00:00	2024-11-08T05:00:00	4	Temperatura máxima	16
31967	7	Sololá	710	Panajachel	8	Panajachel	4	Abril	2023-04-19T00:00:00	2024-11-08T05:00:00	3	Temperatura mínima	15.7
31968	7	Sololá	710	Panajachel	8	Panajachel	4	Abril	2023-04-19T00:00:00	2024-11-08T05:00:00	5	Humedad	73
31969	7	Sololá	710	Panajachel	8	Panajachel	4	Abril	2023-04-19T00:00:00	2024-11-08T05:00:00	6	Velocidad del viento	3.2
31970	7	Sololá	710	Panajachel	8	Panajachel	4	Abril	2023-04-19T00:00:00	2024-11-08T05:00:00	7	Dirección del viento	3.22
31971	7	Sololá	710	Panajachel	8	Panajachel	4	Abril	2023-04-19T00:00:00	2024-11-08T05:00:00	1	Precipitación	0
31972	7	Sololá	710	Panajachel	8	Panajachel	4	Abril	2023-04-19T00:00:00	2024-11-08T05:00:00	8	Radiación solar	0
31973	7	Sololá	710	Panajachel	8	Panajachel	4	Abril	2023-04-19T00:00:00	2024-11-08T06:00:00	2	Temperatura media	15.3
31974	7	Sololá	710	Panajachel	8	Panajachel	4	Abril	2023-04-19T00:00:00	2024-11-08T06:00:00	4	Temperatura máxima	16
31975	7	Sololá	710	Panajachel	8	Panajachel	4	Abril	2023-04-19T00:00:00	2024-11-08T06:00:00	3	Temperatura mínima	15.3
31976	7	Sololá	710	Panajachel	8	Panajachel	4	Abril	2023-04-19T00:00:00	2024-11-08T06:00:00	5	Humedad	72
31977	7	Sololá	710	Panajachel	8	Panajachel	4	Abril	2023-04-19T00:00:00	2024-11-08T06:00:00	6	Velocidad del viento	3.2
31978	7	Sololá	710	Panajachel	8	Panajachel	4	Abril	2023-04-19T00:00:00	2024-11-08T06:00:00	7	Dirección del viento	3.22
31979	7	Sololá	710	Panajachel	8	Panajachel	4	Abril	2023-04-19T00:00:00	2024-11-08T06:00:00	1	Precipitación	0
31980	7	Sololá	710	Panajachel	8	Panajachel	4	Abril	2023-04-19T00:00:00	2024-11-08T06:00:00	8	Radiación solar	1
31981	7	Sololá	710	Panajachel	8	Panajachel	4	Abril	2023-04-19T00:00:00	2024-11-08T07:00:00	2	Temperatura media	16.8
31982	7	Sololá	710	Panajachel	8	Panajachel	4	Abril	2023-04-19T00:00:00	2024-11-08T07:00:00	4	Temperatura máxima	16.9
31983	7	Sololá	710	Panajachel	8	Panajachel	4	Abril	2023-04-19T00:00:00	2024-11-08T07:00:00	3	Temperatura mínima	15.2
31984	7	Sololá	710	Panajachel	8	Panajachel	4	Abril	2023-04-19T00:00:00	2024-11-08T07:00:00	5	Humedad	65
31985	7	Sololá	710	Panajachel	8	Panajachel	4	Abril	2023-04-19T00:00:00	2024-11-08T07:00:00	6	Velocidad del viento	3.2
31986	7	Sololá	710	Panajachel	8	Panajachel	4	Abril	2023-04-19T00:00:00	2024-11-08T07:00:00	7	Dirección del viento	3.22
31987	7	Sololá	710	Panajachel	8	Panajachel	4	Abril	2023-04-19T00:00:00	2024-11-08T07:00:00	1	Precipitación	0
31988	7	Sololá	710	Panajachel	8	Panajachel	4	Abril	2023-04-19T00:00:00	2024-11-08T07:00:00	8	Radiación solar	75
31989	7	Sololá	710	Panajachel	8	Panajachel	4	Abril	2023-04-19T00:00:00	2024-11-08T08:00:00	2	Temperatura media	20.4
31990	7	Sololá	710	Panajachel	8	Panajachel	4	Abril	2023-04-19T00:00:00	2024-11-08T08:00:00	4	Temperatura máxima	20.4
31991	7	Sololá	710	Panajachel	8	Panajachel	4	Abril	2023-04-19T00:00:00	2024-11-08T08:00:00	3	Temperatura mínima	16.9
31992	7	Sololá	710	Panajachel	8	Panajachel	4	Abril	2023-04-19T00:00:00	2024-11-08T08:00:00	5	Humedad	66
31993	7	Sololá	710	Panajachel	8	Panajachel	4	Abril	2023-04-19T00:00:00	2024-11-08T08:00:00	6	Velocidad del viento	0
31994	7	Sololá	710	Panajachel	8	Panajachel	4	Abril	2023-04-19T00:00:00	2024-11-08T08:00:00	7	Dirección del viento	0
31995	7	Sololá	710	Panajachel	8	Panajachel	4	Abril	2023-04-19T00:00:00	2024-11-08T08:00:00	1	Precipitación	0
31996	7	Sololá	710	Panajachel	8	Panajachel	4	Abril	2023-04-19T00:00:00	2024-11-08T08:00:00	8	Radiación solar	337
31997	7	Sololá	710	Panajachel	8	Panajachel	4	Abril	2023-04-19T00:00:00	2024-11-08T09:00:00	2	Temperatura media	20.7
31998	7	Sololá	710	Panajachel	8	Panajachel	4	Abril	2023-04-19T00:00:00	2024-11-08T09:00:00	4	Temperatura máxima	20.7
31999	7	Sololá	710	Panajachel	8	Panajachel	4	Abril	2023-04-19T00:00:00	2024-11-08T09:00:00	3	Temperatura mínima	19.8
32000	7	Sololá	710	Panajachel	8	Panajachel	4	Abril	2023-04-19T00:00:00	2024-11-08T09:00:00	5	Humedad	66
32001	7	Sololá	710	Panajachel	8	Panajachel	4	Abril	2023-04-19T00:00:00	2024-11-08T09:00:00	6	Velocidad del viento	1.6
32002	7	Sololá	710	Panajachel	8	Panajachel	4	Abril	2023-04-19T00:00:00	2024-11-08T09:00:00	7	Dirección del viento	1.61
32003	7	Sololá	710	Panajachel	8	Panajachel	4	Abril	2023-04-19T00:00:00	2024-11-08T09:00:00	1	Precipitación	0
32004	7	Sololá	710	Panajachel	8	Panajachel	4	Abril	2023-04-19T00:00:00	2024-11-08T09:00:00	8	Radiación solar	562
32005	7	Sololá	710	Panajachel	8	Panajachel	4	Abril	2023-04-19T00:00:00	2024-11-08T10:00:00	2	Temperatura media	21.2
32006	7	Sololá	710	Panajachel	8	Panajachel	4	Abril	2023-04-19T00:00:00	2024-11-08T10:00:00	4	Temperatura máxima	21.8
32007	7	Sololá	710	Panajachel	8	Panajachel	4	Abril	2023-04-19T00:00:00	2024-11-08T10:00:00	3	Temperatura mínima	20.7
32008	7	Sololá	710	Panajachel	8	Panajachel	4	Abril	2023-04-19T00:00:00	2024-11-08T10:00:00	5	Humedad	64
32009	7	Sololá	710	Panajachel	8	Panajachel	4	Abril	2023-04-19T00:00:00	2024-11-08T10:00:00	6	Velocidad del viento	3.2
32010	7	Sololá	710	Panajachel	8	Panajachel	4	Abril	2023-04-19T00:00:00	2024-11-08T10:00:00	7	Dirección del viento	3.22
32011	7	Sololá	710	Panajachel	8	Panajachel	4	Abril	2023-04-19T00:00:00	2024-11-08T10:00:00	1	Precipitación	0
32012	7	Sololá	710	Panajachel	8	Panajachel	4	Abril	2023-04-19T00:00:00	2024-11-08T10:00:00	8	Radiación solar	757
32013	7	Sololá	710	Panajachel	8	Panajachel	4	Abril	2023-04-19T00:00:00	2024-11-08T11:00:00	2	Temperatura media	23.3
32014	7	Sololá	710	Panajachel	8	Panajachel	4	Abril	2023-04-19T00:00:00	2024-11-08T11:00:00	4	Temperatura máxima	23.3
32015	7	Sololá	710	Panajachel	8	Panajachel	4	Abril	2023-04-19T00:00:00	2024-11-08T11:00:00	3	Temperatura mínima	21.2
32016	7	Sololá	710	Panajachel	8	Panajachel	4	Abril	2023-04-19T00:00:00	2024-11-08T11:00:00	5	Humedad	59
32017	7	Sololá	710	Panajachel	8	Panajachel	4	Abril	2023-04-19T00:00:00	2024-11-08T11:00:00	6	Velocidad del viento	3.2
32018	7	Sololá	710	Panajachel	8	Panajachel	4	Abril	2023-04-19T00:00:00	2024-11-08T11:00:00	7	Dirección del viento	3.22
32019	7	Sololá	710	Panajachel	8	Panajachel	4	Abril	2023-04-19T00:00:00	2024-11-08T11:00:00	1	Precipitación	0
32020	7	Sololá	710	Panajachel	8	Panajachel	4	Abril	2023-04-19T00:00:00	2024-11-08T11:00:00	8	Radiación solar	896
32021	7	Sololá	710	Panajachel	8	Panajachel	4	Abril	2023-04-19T00:00:00	2024-11-08T12:00:00	2	Temperatura media	23.6
32022	7	Sololá	710	Panajachel	8	Panajachel	4	Abril	2023-04-19T00:00:00	2024-11-08T12:00:00	4	Temperatura máxima	23.9
32023	7	Sololá	710	Panajachel	8	Panajachel	4	Abril	2023-04-19T00:00:00	2024-11-08T12:00:00	3	Temperatura mínima	22.6
32024	7	Sololá	710	Panajachel	8	Panajachel	4	Abril	2023-04-19T00:00:00	2024-11-08T12:00:00	5	Humedad	65
32025	7	Sololá	710	Panajachel	8	Panajachel	4	Abril	2023-04-19T00:00:00	2024-11-08T12:00:00	6	Velocidad del viento	4.8
32026	7	Sololá	710	Panajachel	8	Panajachel	4	Abril	2023-04-19T00:00:00	2024-11-08T12:00:00	7	Dirección del viento	4.83
32027	7	Sololá	710	Panajachel	8	Panajachel	4	Abril	2023-04-19T00:00:00	2024-11-08T12:00:00	1	Precipitación	0
32028	7	Sololá	710	Panajachel	8	Panajachel	4	Abril	2023-04-19T00:00:00	2024-11-08T12:00:00	8	Radiación solar	964
32029	7	Sololá	710	Panajachel	8	Panajachel	4	Abril	2023-04-19T00:00:00	2024-11-08T13:00:00	2	Temperatura media	23.8
32030	7	Sololá	710	Panajachel	8	Panajachel	4	Abril	2023-04-19T00:00:00	2024-11-08T13:00:00	4	Temperatura máxima	24.3
32031	7	Sololá	710	Panajachel	8	Panajachel	4	Abril	2023-04-19T00:00:00	2024-11-08T13:00:00	3	Temperatura mínima	23
32032	7	Sololá	710	Panajachel	8	Panajachel	4	Abril	2023-04-19T00:00:00	2024-11-08T13:00:00	5	Humedad	75
32033	7	Sololá	710	Panajachel	8	Panajachel	4	Abril	2023-04-19T00:00:00	2024-11-08T13:00:00	6	Velocidad del viento	6.4
32034	7	Sololá	710	Panajachel	8	Panajachel	4	Abril	2023-04-19T00:00:00	2024-11-08T13:00:00	7	Dirección del viento	6.44
32035	7	Sololá	710	Panajachel	8	Panajachel	4	Abril	2023-04-19T00:00:00	2024-11-08T13:00:00	1	Precipitación	0
32036	7	Sololá	710	Panajachel	8	Panajachel	4	Abril	2023-04-19T00:00:00	2024-11-08T13:00:00	8	Radiación solar	956
32037	7	Sololá	710	Panajachel	8	Panajachel	4	Abril	2023-04-19T00:00:00	2024-11-08T14:00:00	2	Temperatura media	23.1
32038	7	Sololá	710	Panajachel	8	Panajachel	4	Abril	2023-04-19T00:00:00	2024-11-08T14:00:00	4	Temperatura máxima	24.4
32039	7	Sololá	710	Panajachel	8	Panajachel	4	Abril	2023-04-19T00:00:00	2024-11-08T14:00:00	3	Temperatura mínima	23.1
32040	7	Sololá	710	Panajachel	8	Panajachel	4	Abril	2023-04-19T00:00:00	2024-11-08T14:00:00	5	Humedad	80
32041	7	Sololá	710	Panajachel	8	Panajachel	4	Abril	2023-04-19T00:00:00	2024-11-08T14:00:00	6	Velocidad del viento	6.4
32042	7	Sololá	710	Panajachel	8	Panajachel	4	Abril	2023-04-19T00:00:00	2024-11-08T14:00:00	7	Dirección del viento	6.44
32043	7	Sololá	710	Panajachel	8	Panajachel	4	Abril	2023-04-19T00:00:00	2024-11-08T14:00:00	1	Precipitación	0
32044	7	Sololá	710	Panajachel	8	Panajachel	4	Abril	2023-04-19T00:00:00	2024-11-08T14:00:00	8	Radiación solar	657
32045	7	Sololá	710	Panajachel	8	Panajachel	4	Abril	2023-04-19T00:00:00	2024-11-08T15:00:00	2	Temperatura media	23.6
32046	7	Sololá	710	Panajachel	8	Panajachel	4	Abril	2023-04-19T00:00:00	2024-11-08T15:00:00	4	Temperatura máxima	23.7
32047	7	Sololá	710	Panajachel	8	Panajachel	4	Abril	2023-04-19T00:00:00	2024-11-08T15:00:00	3	Temperatura mínima	22.8
32048	7	Sololá	710	Panajachel	8	Panajachel	4	Abril	2023-04-19T00:00:00	2024-11-08T15:00:00	5	Humedad	78
32049	7	Sololá	710	Panajachel	8	Panajachel	4	Abril	2023-04-19T00:00:00	2024-11-08T15:00:00	6	Velocidad del viento	4.8
32050	7	Sololá	710	Panajachel	8	Panajachel	4	Abril	2023-04-19T00:00:00	2024-11-08T15:00:00	7	Dirección del viento	4.83
32051	7	Sololá	710	Panajachel	8	Panajachel	4	Abril	2023-04-19T00:00:00	2024-11-08T15:00:00	1	Precipitación	0
32052	7	Sololá	710	Panajachel	8	Panajachel	4	Abril	2023-04-19T00:00:00	2024-11-08T15:00:00	8	Radiación solar	386
32053	7	Sololá	710	Panajachel	8	Panajachel	4	Abril	2023-04-19T00:00:00	2024-11-08T16:00:00	2	Temperatura media	22.4
32054	7	Sololá	710	Panajachel	8	Panajachel	4	Abril	2023-04-19T00:00:00	2024-11-08T16:00:00	4	Temperatura máxima	23.8
32055	7	Sololá	710	Panajachel	8	Panajachel	4	Abril	2023-04-19T00:00:00	2024-11-08T16:00:00	3	Temperatura mínima	22.4
32056	7	Sololá	710	Panajachel	8	Panajachel	4	Abril	2023-04-19T00:00:00	2024-11-08T16:00:00	5	Humedad	80
32057	7	Sololá	710	Panajachel	8	Panajachel	4	Abril	2023-04-19T00:00:00	2024-11-08T16:00:00	6	Velocidad del viento	4.8
32058	7	Sololá	710	Panajachel	8	Panajachel	4	Abril	2023-04-19T00:00:00	2024-11-08T16:00:00	7	Dirección del viento	4.83
32059	7	Sololá	710	Panajachel	8	Panajachel	4	Abril	2023-04-19T00:00:00	2024-11-08T16:00:00	1	Precipitación	0
32060	7	Sololá	710	Panajachel	8	Panajachel	4	Abril	2023-04-19T00:00:00	2024-11-08T16:00:00	8	Radiación solar	218
32061	7	Sololá	710	Panajachel	8	Panajachel	4	Abril	2023-04-19T00:00:00	2024-11-08T17:00:00	2	Temperatura media	21.9
32062	7	Sololá	710	Panajachel	8	Panajachel	4	Abril	2023-04-19T00:00:00	2024-11-08T17:00:00	4	Temperatura máxima	22.4
32063	7	Sololá	710	Panajachel	8	Panajachel	4	Abril	2023-04-19T00:00:00	2024-11-08T17:00:00	3	Temperatura mínima	21.8
32064	7	Sololá	710	Panajachel	8	Panajachel	4	Abril	2023-04-19T00:00:00	2024-11-08T17:00:00	5	Humedad	80
32065	7	Sololá	710	Panajachel	8	Panajachel	4	Abril	2023-04-19T00:00:00	2024-11-08T17:00:00	6	Velocidad del viento	4.8
32066	7	Sololá	710	Panajachel	8	Panajachel	4	Abril	2023-04-19T00:00:00	2024-11-08T17:00:00	7	Dirección del viento	4.83
32067	7	Sololá	710	Panajachel	8	Panajachel	4	Abril	2023-04-19T00:00:00	2024-11-08T17:00:00	1	Precipitación	0
32068	7	Sololá	710	Panajachel	8	Panajachel	4	Abril	2023-04-19T00:00:00	2024-11-08T17:00:00	8	Radiación solar	99
32069	7	Sololá	710	Panajachel	8	Panajachel	4	Abril	2023-04-19T00:00:00	2024-11-08T18:00:00	2	Temperatura media	20.8
32070	7	Sololá	710	Panajachel	8	Panajachel	4	Abril	2023-04-19T00:00:00	2024-11-08T18:00:00	4	Temperatura máxima	21.9
32071	7	Sololá	710	Panajachel	8	Panajachel	4	Abril	2023-04-19T00:00:00	2024-11-08T18:00:00	3	Temperatura mínima	20.8
32072	7	Sololá	710	Panajachel	8	Panajachel	4	Abril	2023-04-19T00:00:00	2024-11-08T18:00:00	5	Humedad	89
32073	7	Sololá	710	Panajachel	8	Panajachel	4	Abril	2023-04-19T00:00:00	2024-11-08T18:00:00	6	Velocidad del viento	3.2
32074	7	Sololá	710	Panajachel	8	Panajachel	4	Abril	2023-04-19T00:00:00	2024-11-08T18:00:00	7	Dirección del viento	3.22
32075	7	Sololá	710	Panajachel	8	Panajachel	4	Abril	2023-04-19T00:00:00	2024-11-08T18:00:00	1	Precipitación	0
32076	7	Sololá	710	Panajachel	8	Panajachel	4	Abril	2023-04-19T00:00:00	2024-11-08T18:00:00	8	Radiación solar	49
32077	7	Sololá	710	Panajachel	8	Panajachel	4	Abril	2023-04-19T00:00:00	2024-11-08T19:00:00	2	Temperatura media	20.1
32078	7	Sololá	710	Panajachel	8	Panajachel	4	Abril	2023-04-19T00:00:00	2024-11-08T19:00:00	4	Temperatura máxima	20.8
32079	7	Sololá	710	Panajachel	8	Panajachel	4	Abril	2023-04-19T00:00:00	2024-11-08T19:00:00	3	Temperatura mínima	20.1
32080	7	Sololá	710	Panajachel	8	Panajachel	4	Abril	2023-04-19T00:00:00	2024-11-08T19:00:00	5	Humedad	90
32081	7	Sololá	710	Panajachel	8	Panajachel	4	Abril	2023-04-19T00:00:00	2024-11-08T19:00:00	6	Velocidad del viento	3.2
32082	7	Sololá	710	Panajachel	8	Panajachel	4	Abril	2023-04-19T00:00:00	2024-11-08T19:00:00	7	Dirección del viento	3.22
32083	7	Sololá	710	Panajachel	8	Panajachel	4	Abril	2023-04-19T00:00:00	2024-11-08T19:00:00	1	Precipitación	0
32084	7	Sololá	710	Panajachel	8	Panajachel	4	Abril	2023-04-19T00:00:00	2024-11-08T19:00:00	8	Radiación solar	0
32085	7	Sololá	710	Panajachel	8	Panajachel	4	Abril	2023-04-19T00:00:00	2024-11-08T20:00:00	2	Temperatura media	20
32086	7	Sololá	710	Panajachel	8	Panajachel	4	Abril	2023-04-19T00:00:00	2024-11-08T20:00:00	4	Temperatura máxima	20.1
32087	7	Sololá	710	Panajachel	8	Panajachel	4	Abril	2023-04-19T00:00:00	2024-11-08T20:00:00	3	Temperatura mínima	19.9
32088	7	Sololá	710	Panajachel	8	Panajachel	4	Abril	2023-04-19T00:00:00	2024-11-08T20:00:00	5	Humedad	90
32089	7	Sololá	710	Panajachel	8	Panajachel	4	Abril	2023-04-19T00:00:00	2024-11-08T20:00:00	6	Velocidad del viento	0
32090	7	Sololá	710	Panajachel	8	Panajachel	4	Abril	2023-04-19T00:00:00	2024-11-08T20:00:00	7	Dirección del viento	0
32091	7	Sololá	710	Panajachel	8	Panajachel	4	Abril	2023-04-19T00:00:00	2024-11-08T20:00:00	1	Precipitación	0
32092	7	Sololá	710	Panajachel	8	Panajachel	4	Abril	2023-04-19T00:00:00	2024-11-08T20:00:00	8	Radiación solar	0
32093	7	Sololá	710	Panajachel	8	Panajachel	4	Abril	2023-04-19T00:00:00	2024-11-08T21:00:00	2	Temperatura media	20.2
32094	7	Sololá	710	Panajachel	8	Panajachel	4	Abril	2023-04-19T00:00:00	2024-11-08T21:00:00	4	Temperatura máxima	20.2
32095	7	Sololá	710	Panajachel	8	Panajachel	4	Abril	2023-04-19T00:00:00	2024-11-08T21:00:00	3	Temperatura mínima	20
32096	7	Sololá	710	Panajachel	8	Panajachel	4	Abril	2023-04-19T00:00:00	2024-11-08T21:00:00	5	Humedad	89
32097	7	Sololá	710	Panajachel	8	Panajachel	4	Abril	2023-04-19T00:00:00	2024-11-08T21:00:00	6	Velocidad del viento	0
32098	7	Sololá	710	Panajachel	8	Panajachel	4	Abril	2023-04-19T00:00:00	2024-11-08T21:00:00	7	Dirección del viento	0
32099	7	Sololá	710	Panajachel	8	Panajachel	4	Abril	2023-04-19T00:00:00	2024-11-08T21:00:00	1	Precipitación	0
32100	7	Sololá	710	Panajachel	8	Panajachel	4	Abril	2023-04-19T00:00:00	2024-11-08T21:00:00	8	Radiación solar	0
32101	7	Sololá	710	Panajachel	8	Panajachel	4	Abril	2023-04-19T00:00:00	2024-11-08T22:00:00	2	Temperatura media	19.8
32102	7	Sololá	710	Panajachel	8	Panajachel	4	Abril	2023-04-19T00:00:00	2024-11-08T22:00:00	4	Temperatura máxima	20.2
32103	7	Sololá	710	Panajachel	8	Panajachel	4	Abril	2023-04-19T00:00:00	2024-11-08T22:00:00	3	Temperatura mínima	19.8
32104	7	Sololá	710	Panajachel	8	Panajachel	4	Abril	2023-04-19T00:00:00	2024-11-08T22:00:00	5	Humedad	88
32105	7	Sololá	710	Panajachel	8	Panajachel	4	Abril	2023-04-19T00:00:00	2024-11-08T22:00:00	6	Velocidad del viento	0
32106	7	Sololá	710	Panajachel	8	Panajachel	4	Abril	2023-04-19T00:00:00	2024-11-08T22:00:00	7	Dirección del viento	0
32107	7	Sololá	710	Panajachel	8	Panajachel	4	Abril	2023-04-19T00:00:00	2024-11-08T22:00:00	1	Precipitación	0
32108	7	Sololá	710	Panajachel	8	Panajachel	4	Abril	2023-04-19T00:00:00	2024-11-08T22:00:00	8	Radiación solar	0
32109	7	Sololá	710	Panajachel	8	Panajachel	4	Abril	2023-04-19T00:00:00	2024-11-08T23:00:00	2	Temperatura media	18.8
32110	7	Sololá	710	Panajachel	8	Panajachel	4	Abril	2023-04-19T00:00:00	2024-11-08T23:00:00	4	Temperatura máxima	19.8
32111	7	Sololá	710	Panajachel	8	Panajachel	4	Abril	2023-04-19T00:00:00	2024-11-08T23:00:00	3	Temperatura mínima	18.8
32112	7	Sololá	710	Panajachel	8	Panajachel	4	Abril	2023-04-19T00:00:00	2024-11-08T23:00:00	5	Humedad	85
32113	7	Sololá	710	Panajachel	8	Panajachel	4	Abril	2023-04-19T00:00:00	2024-11-08T23:00:00	6	Velocidad del viento	1.6
32114	7	Sololá	710	Panajachel	8	Panajachel	4	Abril	2023-04-19T00:00:00	2024-11-08T23:00:00	7	Dirección del viento	1.61
32115	7	Sololá	710	Panajachel	8	Panajachel	4	Abril	2023-04-19T00:00:00	2024-11-08T23:00:00	1	Precipitación	0
32116	7	Sololá	710	Panajachel	8	Panajachel	4	Abril	2023-04-19T00:00:00	2024-11-08T23:00:00	8	Radiación solar	0
32117	7	Sololá	710	Panajachel	8	Panajachel	4	Abril	2023-04-20T00:00:00	2024-11-08T00:00:00	2	Temperatura media	18.5
32118	7	Sololá	710	Panajachel	8	Panajachel	4	Abril	2023-04-20T00:00:00	2024-11-08T00:00:00	4	Temperatura máxima	18.8
32119	7	Sololá	710	Panajachel	8	Panajachel	4	Abril	2023-04-20T00:00:00	2024-11-08T00:00:00	3	Temperatura mínima	18.3
32120	7	Sololá	710	Panajachel	8	Panajachel	4	Abril	2023-04-20T00:00:00	2024-11-08T00:00:00	5	Humedad	80
32121	7	Sololá	710	Panajachel	8	Panajachel	4	Abril	2023-04-20T00:00:00	2024-11-08T00:00:00	6	Velocidad del viento	3.2
32122	7	Sololá	710	Panajachel	8	Panajachel	4	Abril	2023-04-20T00:00:00	2024-11-08T00:00:00	7	Dirección del viento	3.22
32123	7	Sololá	710	Panajachel	8	Panajachel	4	Abril	2023-04-20T00:00:00	2024-11-08T00:00:00	1	Precipitación	0
32124	7	Sololá	710	Panajachel	8	Panajachel	4	Abril	2023-04-20T00:00:00	2024-11-08T00:00:00	8	Radiación solar	0
32125	7	Sololá	710	Panajachel	8	Panajachel	4	Abril	2023-04-20T00:00:00	2024-11-08T01:00:00	2	Temperatura media	17.2
32126	7	Sololá	710	Panajachel	8	Panajachel	4	Abril	2023-04-20T00:00:00	2024-11-08T01:00:00	4	Temperatura máxima	18.4
32127	7	Sololá	710	Panajachel	8	Panajachel	4	Abril	2023-04-20T00:00:00	2024-11-08T01:00:00	3	Temperatura mínima	17.2
32128	7	Sololá	710	Panajachel	8	Panajachel	4	Abril	2023-04-20T00:00:00	2024-11-08T01:00:00	5	Humedad	84
32129	7	Sololá	710	Panajachel	8	Panajachel	4	Abril	2023-04-20T00:00:00	2024-11-08T01:00:00	6	Velocidad del viento	3.2
32130	7	Sololá	710	Panajachel	8	Panajachel	4	Abril	2023-04-20T00:00:00	2024-11-08T01:00:00	7	Dirección del viento	3.22
32131	7	Sololá	710	Panajachel	8	Panajachel	4	Abril	2023-04-20T00:00:00	2024-11-08T01:00:00	1	Precipitación	0
32132	7	Sololá	710	Panajachel	8	Panajachel	4	Abril	2023-04-20T00:00:00	2024-11-08T01:00:00	8	Radiación solar	0
32133	7	Sololá	710	Panajachel	8	Panajachel	4	Abril	2023-04-20T00:00:00	2024-11-08T02:00:00	2	Temperatura media	16.8
32134	7	Sololá	710	Panajachel	8	Panajachel	4	Abril	2023-04-20T00:00:00	2024-11-08T02:00:00	4	Temperatura máxima	17.2
32135	7	Sololá	710	Panajachel	8	Panajachel	4	Abril	2023-04-20T00:00:00	2024-11-08T02:00:00	3	Temperatura mínima	16.8
32136	7	Sololá	710	Panajachel	8	Panajachel	4	Abril	2023-04-20T00:00:00	2024-11-08T02:00:00	5	Humedad	84
32137	7	Sololá	710	Panajachel	8	Panajachel	4	Abril	2023-04-20T00:00:00	2024-11-08T02:00:00	6	Velocidad del viento	3.2
32138	7	Sololá	710	Panajachel	8	Panajachel	4	Abril	2023-04-20T00:00:00	2024-11-08T02:00:00	7	Dirección del viento	3.22
32139	7	Sololá	710	Panajachel	8	Panajachel	4	Abril	2023-04-20T00:00:00	2024-11-08T02:00:00	1	Precipitación	0
32140	7	Sololá	710	Panajachel	8	Panajachel	4	Abril	2023-04-20T00:00:00	2024-11-08T02:00:00	8	Radiación solar	0
32141	7	Sololá	710	Panajachel	8	Panajachel	4	Abril	2023-04-20T00:00:00	2024-11-08T03:00:00	2	Temperatura media	16.7
32142	7	Sololá	710	Panajachel	8	Panajachel	4	Abril	2023-04-20T00:00:00	2024-11-08T03:00:00	4	Temperatura máxima	17
32143	7	Sololá	710	Panajachel	8	Panajachel	4	Abril	2023-04-20T00:00:00	2024-11-08T03:00:00	3	Temperatura mínima	16.6
32144	7	Sololá	710	Panajachel	8	Panajachel	4	Abril	2023-04-20T00:00:00	2024-11-08T03:00:00	5	Humedad	80
32145	7	Sololá	710	Panajachel	8	Panajachel	4	Abril	2023-04-20T00:00:00	2024-11-08T03:00:00	6	Velocidad del viento	4.8
32146	7	Sololá	710	Panajachel	8	Panajachel	4	Abril	2023-04-20T00:00:00	2024-11-08T03:00:00	7	Dirección del viento	4.83
32147	7	Sololá	710	Panajachel	8	Panajachel	4	Abril	2023-04-20T00:00:00	2024-11-08T03:00:00	1	Precipitación	0
32148	7	Sololá	710	Panajachel	8	Panajachel	4	Abril	2023-04-20T00:00:00	2024-11-08T03:00:00	8	Radiación solar	0
32149	7	Sololá	710	Panajachel	8	Panajachel	4	Abril	2023-04-20T00:00:00	2024-11-08T04:00:00	2	Temperatura media	16.9
32150	7	Sololá	710	Panajachel	8	Panajachel	4	Abril	2023-04-20T00:00:00	2024-11-08T04:00:00	4	Temperatura máxima	17.3
32151	7	Sololá	710	Panajachel	8	Panajachel	4	Abril	2023-04-20T00:00:00	2024-11-08T04:00:00	3	Temperatura mínima	16.4
32152	7	Sololá	710	Panajachel	8	Panajachel	4	Abril	2023-04-20T00:00:00	2024-11-08T04:00:00	5	Humedad	79
32153	7	Sololá	710	Panajachel	8	Panajachel	4	Abril	2023-04-20T00:00:00	2024-11-08T04:00:00	6	Velocidad del viento	4.8
32154	7	Sololá	710	Panajachel	8	Panajachel	4	Abril	2023-04-20T00:00:00	2024-11-08T04:00:00	7	Dirección del viento	4.83
32155	7	Sololá	710	Panajachel	8	Panajachel	4	Abril	2023-04-20T00:00:00	2024-11-08T04:00:00	1	Precipitación	0
32156	7	Sololá	710	Panajachel	8	Panajachel	4	Abril	2023-04-20T00:00:00	2024-11-08T04:00:00	8	Radiación solar	0
32157	7	Sololá	710	Panajachel	8	Panajachel	4	Abril	2023-04-20T00:00:00	2024-11-08T05:00:00	2	Temperatura media	16.7
32158	7	Sololá	710	Panajachel	8	Panajachel	4	Abril	2023-04-20T00:00:00	2024-11-08T05:00:00	4	Temperatura máxima	16.9
32159	7	Sololá	710	Panajachel	8	Panajachel	4	Abril	2023-04-20T00:00:00	2024-11-08T05:00:00	3	Temperatura mínima	16.5
32160	7	Sololá	710	Panajachel	8	Panajachel	4	Abril	2023-04-20T00:00:00	2024-11-08T05:00:00	5	Humedad	76
32161	7	Sololá	710	Panajachel	8	Panajachel	4	Abril	2023-04-20T00:00:00	2024-11-08T05:00:00	6	Velocidad del viento	3.2
32162	7	Sololá	710	Panajachel	8	Panajachel	4	Abril	2023-04-20T00:00:00	2024-11-08T05:00:00	7	Dirección del viento	3.22
32163	7	Sololá	710	Panajachel	8	Panajachel	4	Abril	2023-04-20T00:00:00	2024-11-08T05:00:00	1	Precipitación	0
32164	7	Sololá	710	Panajachel	8	Panajachel	4	Abril	2023-04-20T00:00:00	2024-11-08T05:00:00	8	Radiación solar	0
32165	7	Sololá	710	Panajachel	8	Panajachel	4	Abril	2023-04-20T00:00:00	2024-11-08T06:00:00	2	Temperatura media	16.1
32166	7	Sololá	710	Panajachel	8	Panajachel	4	Abril	2023-04-20T00:00:00	2024-11-08T06:00:00	4	Temperatura máxima	16.7
32167	7	Sololá	710	Panajachel	8	Panajachel	4	Abril	2023-04-20T00:00:00	2024-11-08T06:00:00	3	Temperatura mínima	15.7
32168	7	Sololá	710	Panajachel	8	Panajachel	4	Abril	2023-04-20T00:00:00	2024-11-08T06:00:00	5	Humedad	74
32169	7	Sololá	710	Panajachel	8	Panajachel	4	Abril	2023-04-20T00:00:00	2024-11-08T06:00:00	6	Velocidad del viento	4.8
32170	7	Sololá	710	Panajachel	8	Panajachel	4	Abril	2023-04-20T00:00:00	2024-11-08T06:00:00	7	Dirección del viento	4.83
32171	7	Sololá	710	Panajachel	8	Panajachel	4	Abril	2023-04-20T00:00:00	2024-11-08T06:00:00	1	Precipitación	0
32172	7	Sololá	710	Panajachel	8	Panajachel	4	Abril	2023-04-20T00:00:00	2024-11-08T06:00:00	8	Radiación solar	0
32173	7	Sololá	710	Panajachel	8	Panajachel	4	Abril	2023-04-20T00:00:00	2024-11-08T07:00:00	2	Temperatura media	16.3
32174	7	Sololá	710	Panajachel	8	Panajachel	4	Abril	2023-04-20T00:00:00	2024-11-08T07:00:00	4	Temperatura máxima	16.4
32175	7	Sololá	710	Panajachel	8	Panajachel	4	Abril	2023-04-20T00:00:00	2024-11-08T07:00:00	3	Temperatura mínima	16.1
32176	7	Sololá	710	Panajachel	8	Panajachel	4	Abril	2023-04-20T00:00:00	2024-11-08T07:00:00	5	Humedad	65
32177	7	Sololá	710	Panajachel	8	Panajachel	4	Abril	2023-04-20T00:00:00	2024-11-08T07:00:00	6	Velocidad del viento	4.8
32178	7	Sololá	710	Panajachel	8	Panajachel	4	Abril	2023-04-20T00:00:00	2024-11-08T07:00:00	7	Dirección del viento	4.83
32179	7	Sololá	710	Panajachel	8	Panajachel	4	Abril	2023-04-20T00:00:00	2024-11-08T07:00:00	1	Precipitación	0
32180	7	Sololá	710	Panajachel	8	Panajachel	4	Abril	2023-04-20T00:00:00	2024-11-08T07:00:00	8	Radiación solar	48
32181	7	Sololá	710	Panajachel	8	Panajachel	4	Abril	2023-04-20T00:00:00	2024-11-08T08:00:00	2	Temperatura media	18.7
32182	7	Sololá	710	Panajachel	8	Panajachel	4	Abril	2023-04-20T00:00:00	2024-11-08T08:00:00	4	Temperatura máxima	18.7
32183	7	Sololá	710	Panajachel	8	Panajachel	4	Abril	2023-04-20T00:00:00	2024-11-08T08:00:00	3	Temperatura mínima	16.3
32184	7	Sololá	710	Panajachel	8	Panajachel	4	Abril	2023-04-20T00:00:00	2024-11-08T08:00:00	5	Humedad	59
32185	7	Sololá	710	Panajachel	8	Panajachel	4	Abril	2023-04-20T00:00:00	2024-11-08T08:00:00	6	Velocidad del viento	1.6
32186	7	Sololá	710	Panajachel	8	Panajachel	4	Abril	2023-04-20T00:00:00	2024-11-08T08:00:00	7	Dirección del viento	1.61
32187	7	Sololá	710	Panajachel	8	Panajachel	4	Abril	2023-04-20T00:00:00	2024-11-08T08:00:00	1	Precipitación	0
32188	7	Sololá	710	Panajachel	8	Panajachel	4	Abril	2023-04-20T00:00:00	2024-11-08T08:00:00	8	Radiación solar	201
32189	7	Sololá	710	Panajachel	8	Panajachel	4	Abril	2023-04-20T00:00:00	2024-11-08T09:00:00	2	Temperatura media	20.6
32190	7	Sololá	710	Panajachel	8	Panajachel	4	Abril	2023-04-20T00:00:00	2024-11-08T09:00:00	4	Temperatura máxima	20.6
32191	7	Sololá	710	Panajachel	8	Panajachel	4	Abril	2023-04-20T00:00:00	2024-11-08T09:00:00	3	Temperatura mínima	18.7
32192	7	Sololá	710	Panajachel	8	Panajachel	4	Abril	2023-04-20T00:00:00	2024-11-08T09:00:00	5	Humedad	68
32193	7	Sololá	710	Panajachel	8	Panajachel	4	Abril	2023-04-20T00:00:00	2024-11-08T09:00:00	6	Velocidad del viento	1.6
32194	7	Sololá	710	Panajachel	8	Panajachel	4	Abril	2023-04-20T00:00:00	2024-11-08T09:00:00	7	Dirección del viento	1.61
32195	7	Sololá	710	Panajachel	8	Panajachel	4	Abril	2023-04-20T00:00:00	2024-11-08T09:00:00	1	Precipitación	0
32196	7	Sololá	710	Panajachel	8	Panajachel	4	Abril	2023-04-20T00:00:00	2024-11-08T09:00:00	8	Radiación solar	387
32197	7	Sololá	710	Panajachel	8	Panajachel	4	Abril	2023-04-20T00:00:00	2024-11-08T10:00:00	2	Temperatura media	21.3
32198	7	Sololá	710	Panajachel	8	Panajachel	4	Abril	2023-04-20T00:00:00	2024-11-08T10:00:00	4	Temperatura máxima	21.4
32199	7	Sololá	710	Panajachel	8	Panajachel	4	Abril	2023-04-20T00:00:00	2024-11-08T10:00:00	3	Temperatura mínima	20.6
32200	7	Sololá	710	Panajachel	8	Panajachel	4	Abril	2023-04-20T00:00:00	2024-11-08T10:00:00	5	Humedad	67
32201	7	Sololá	710	Panajachel	8	Panajachel	4	Abril	2023-04-20T00:00:00	2024-11-08T10:00:00	6	Velocidad del viento	1.6
32202	7	Sololá	710	Panajachel	8	Panajachel	4	Abril	2023-04-20T00:00:00	2024-11-08T10:00:00	7	Dirección del viento	1.61
32203	7	Sololá	710	Panajachel	8	Panajachel	4	Abril	2023-04-20T00:00:00	2024-11-08T10:00:00	1	Precipitación	0
32204	7	Sololá	710	Panajachel	8	Panajachel	4	Abril	2023-04-20T00:00:00	2024-11-08T10:00:00	8	Radiación solar	529
32205	7	Sololá	710	Panajachel	8	Panajachel	4	Abril	2023-04-20T00:00:00	2024-11-08T11:00:00	2	Temperatura media	20.9
32206	7	Sololá	710	Panajachel	8	Panajachel	4	Abril	2023-04-20T00:00:00	2024-11-08T11:00:00	4	Temperatura máxima	21.6
32207	7	Sololá	710	Panajachel	8	Panajachel	4	Abril	2023-04-20T00:00:00	2024-11-08T11:00:00	3	Temperatura mínima	20.6
32208	7	Sololá	710	Panajachel	8	Panajachel	4	Abril	2023-04-20T00:00:00	2024-11-08T11:00:00	5	Humedad	70
32209	7	Sololá	710	Panajachel	8	Panajachel	4	Abril	2023-04-20T00:00:00	2024-11-08T11:00:00	6	Velocidad del viento	3.2
32210	7	Sololá	710	Panajachel	8	Panajachel	4	Abril	2023-04-20T00:00:00	2024-11-08T11:00:00	7	Dirección del viento	3.22
32211	7	Sololá	710	Panajachel	8	Panajachel	4	Abril	2023-04-20T00:00:00	2024-11-08T11:00:00	1	Precipitación	0
32212	7	Sololá	710	Panajachel	8	Panajachel	4	Abril	2023-04-20T00:00:00	2024-11-08T11:00:00	8	Radiación solar	614
32213	7	Sololá	710	Panajachel	8	Panajachel	4	Abril	2023-04-20T00:00:00	2024-11-08T12:00:00	2	Temperatura media	21.2
32214	7	Sololá	710	Panajachel	8	Panajachel	4	Abril	2023-04-20T00:00:00	2024-11-08T12:00:00	4	Temperatura máxima	21.6
32215	7	Sololá	710	Panajachel	8	Panajachel	4	Abril	2023-04-20T00:00:00	2024-11-08T12:00:00	3	Temperatura mínima	21
32216	7	Sololá	710	Panajachel	8	Panajachel	4	Abril	2023-04-20T00:00:00	2024-11-08T12:00:00	5	Humedad	71
32217	7	Sololá	710	Panajachel	8	Panajachel	4	Abril	2023-04-20T00:00:00	2024-11-08T12:00:00	6	Velocidad del viento	3.2
32218	7	Sololá	710	Panajachel	8	Panajachel	4	Abril	2023-04-20T00:00:00	2024-11-08T12:00:00	7	Dirección del viento	3.22
32219	7	Sololá	710	Panajachel	8	Panajachel	4	Abril	2023-04-20T00:00:00	2024-11-08T12:00:00	1	Precipitación	0
32220	7	Sololá	710	Panajachel	8	Panajachel	4	Abril	2023-04-20T00:00:00	2024-11-08T12:00:00	8	Radiación solar	572
32221	7	Sololá	710	Panajachel	8	Panajachel	4	Abril	2023-04-20T00:00:00	2024-11-08T13:00:00	2	Temperatura media	22.2
32222	7	Sololá	710	Panajachel	8	Panajachel	4	Abril	2023-04-20T00:00:00	2024-11-08T13:00:00	4	Temperatura máxima	22.2
32223	7	Sololá	710	Panajachel	8	Panajachel	4	Abril	2023-04-20T00:00:00	2024-11-08T13:00:00	3	Temperatura mínima	21.1
32224	7	Sololá	710	Panajachel	8	Panajachel	4	Abril	2023-04-20T00:00:00	2024-11-08T13:00:00	5	Humedad	73
32225	7	Sololá	710	Panajachel	8	Panajachel	4	Abril	2023-04-20T00:00:00	2024-11-08T13:00:00	6	Velocidad del viento	4.8
32226	7	Sololá	710	Panajachel	8	Panajachel	4	Abril	2023-04-20T00:00:00	2024-11-08T13:00:00	7	Dirección del viento	4.83
32227	7	Sololá	710	Panajachel	8	Panajachel	4	Abril	2023-04-20T00:00:00	2024-11-08T13:00:00	1	Precipitación	0
32228	7	Sololá	710	Panajachel	8	Panajachel	4	Abril	2023-04-20T00:00:00	2024-11-08T13:00:00	8	Radiación solar	676
32229	7	Sololá	710	Panajachel	8	Panajachel	4	Abril	2023-04-20T00:00:00	2024-11-08T14:00:00	2	Temperatura media	23.1
32230	7	Sololá	710	Panajachel	8	Panajachel	4	Abril	2023-04-20T00:00:00	2024-11-08T14:00:00	4	Temperatura máxima	23.9
32231	7	Sololá	710	Panajachel	8	Panajachel	4	Abril	2023-04-20T00:00:00	2024-11-08T14:00:00	3	Temperatura mínima	22
32232	7	Sololá	710	Panajachel	8	Panajachel	4	Abril	2023-04-20T00:00:00	2024-11-08T14:00:00	5	Humedad	70
32233	7	Sololá	710	Panajachel	8	Panajachel	4	Abril	2023-04-20T00:00:00	2024-11-08T14:00:00	6	Velocidad del viento	3.2
32234	7	Sololá	710	Panajachel	8	Panajachel	4	Abril	2023-04-20T00:00:00	2024-11-08T14:00:00	7	Dirección del viento	3.22
32235	7	Sololá	710	Panajachel	8	Panajachel	4	Abril	2023-04-20T00:00:00	2024-11-08T14:00:00	1	Precipitación	0
32236	7	Sololá	710	Panajachel	8	Panajachel	4	Abril	2023-04-20T00:00:00	2024-11-08T14:00:00	8	Radiación solar	710
32237	7	Sololá	710	Panajachel	8	Panajachel	4	Abril	2023-04-20T00:00:00	2024-11-08T15:00:00	2	Temperatura media	22.8
32238	7	Sololá	710	Panajachel	8	Panajachel	4	Abril	2023-04-20T00:00:00	2024-11-08T15:00:00	4	Temperatura máxima	23.3
32239	7	Sololá	710	Panajachel	8	Panajachel	4	Abril	2023-04-20T00:00:00	2024-11-08T15:00:00	3	Temperatura mínima	22.7
32240	7	Sololá	710	Panajachel	8	Panajachel	4	Abril	2023-04-20T00:00:00	2024-11-08T15:00:00	5	Humedad	80
32241	7	Sololá	710	Panajachel	8	Panajachel	4	Abril	2023-04-20T00:00:00	2024-11-08T15:00:00	6	Velocidad del viento	4.8
32242	7	Sololá	710	Panajachel	8	Panajachel	4	Abril	2023-04-20T00:00:00	2024-11-08T15:00:00	7	Dirección del viento	4.83
32243	7	Sololá	710	Panajachel	8	Panajachel	4	Abril	2023-04-20T00:00:00	2024-11-08T15:00:00	1	Precipitación	0
32244	7	Sololá	710	Panajachel	8	Panajachel	4	Abril	2023-04-20T00:00:00	2024-11-08T15:00:00	8	Radiación solar	532
32245	7	Sololá	710	Panajachel	8	Panajachel	4	Abril	2023-04-20T00:00:00	2024-11-08T16:00:00	2	Temperatura media	21.6
32246	7	Sololá	710	Panajachel	8	Panajachel	4	Abril	2023-04-20T00:00:00	2024-11-08T16:00:00	4	Temperatura máxima	22.8
32247	7	Sololá	710	Panajachel	8	Panajachel	4	Abril	2023-04-20T00:00:00	2024-11-08T16:00:00	3	Temperatura mínima	21.5
32248	7	Sololá	710	Panajachel	8	Panajachel	4	Abril	2023-04-20T00:00:00	2024-11-08T16:00:00	5	Humedad	84
32249	7	Sololá	710	Panajachel	8	Panajachel	4	Abril	2023-04-20T00:00:00	2024-11-08T16:00:00	6	Velocidad del viento	6.4
32250	7	Sololá	710	Panajachel	8	Panajachel	4	Abril	2023-04-20T00:00:00	2024-11-08T16:00:00	7	Dirección del viento	6.44
32251	7	Sololá	710	Panajachel	8	Panajachel	4	Abril	2023-04-20T00:00:00	2024-11-08T16:00:00	1	Precipitación	0
32252	7	Sololá	710	Panajachel	8	Panajachel	4	Abril	2023-04-20T00:00:00	2024-11-08T16:00:00	8	Radiación solar	223
32253	7	Sololá	710	Panajachel	8	Panajachel	4	Abril	2023-04-20T00:00:00	2024-11-08T17:00:00	2	Temperatura media	21.3
32254	7	Sololá	710	Panajachel	8	Panajachel	4	Abril	2023-04-20T00:00:00	2024-11-08T17:00:00	4	Temperatura máxima	22
32255	7	Sololá	710	Panajachel	8	Panajachel	4	Abril	2023-04-20T00:00:00	2024-11-08T17:00:00	3	Temperatura mínima	21.2
32256	7	Sololá	710	Panajachel	8	Panajachel	4	Abril	2023-04-20T00:00:00	2024-11-08T17:00:00	5	Humedad	84
32257	7	Sololá	710	Panajachel	8	Panajachel	4	Abril	2023-04-20T00:00:00	2024-11-08T17:00:00	6	Velocidad del viento	4.8
32258	7	Sololá	710	Panajachel	8	Panajachel	4	Abril	2023-04-20T00:00:00	2024-11-08T17:00:00	7	Dirección del viento	4.83
32259	7	Sololá	710	Panajachel	8	Panajachel	4	Abril	2023-04-20T00:00:00	2024-11-08T17:00:00	1	Precipitación	0
32260	7	Sololá	710	Panajachel	8	Panajachel	4	Abril	2023-04-20T00:00:00	2024-11-08T17:00:00	8	Radiación solar	136
32261	7	Sololá	710	Panajachel	8	Panajachel	4	Abril	2023-04-20T00:00:00	2024-11-08T18:00:00	2	Temperatura media	20.8
32262	7	Sololá	710	Panajachel	8	Panajachel	4	Abril	2023-04-20T00:00:00	2024-11-08T18:00:00	4	Temperatura máxima	21.3
32263	7	Sololá	710	Panajachel	8	Panajachel	4	Abril	2023-04-20T00:00:00	2024-11-08T18:00:00	3	Temperatura mínima	20.8
32264	7	Sololá	710	Panajachel	8	Panajachel	4	Abril	2023-04-20T00:00:00	2024-11-08T18:00:00	5	Humedad	86
32265	7	Sololá	710	Panajachel	8	Panajachel	4	Abril	2023-04-20T00:00:00	2024-11-08T18:00:00	6	Velocidad del viento	3.2
32266	7	Sololá	710	Panajachel	8	Panajachel	4	Abril	2023-04-20T00:00:00	2024-11-08T18:00:00	7	Dirección del viento	3.22
32267	7	Sololá	710	Panajachel	8	Panajachel	4	Abril	2023-04-20T00:00:00	2024-11-08T18:00:00	1	Precipitación	0
32268	7	Sololá	710	Panajachel	8	Panajachel	4	Abril	2023-04-20T00:00:00	2024-11-08T18:00:00	8	Radiación solar	44
32269	7	Sololá	710	Panajachel	8	Panajachel	4	Abril	2023-04-20T00:00:00	2024-11-08T19:00:00	2	Temperatura media	20.2
32270	7	Sololá	710	Panajachel	8	Panajachel	4	Abril	2023-04-20T00:00:00	2024-11-08T19:00:00	4	Temperatura máxima	20.8
32271	7	Sololá	710	Panajachel	8	Panajachel	4	Abril	2023-04-20T00:00:00	2024-11-08T19:00:00	3	Temperatura mínima	20.2
32272	7	Sololá	710	Panajachel	8	Panajachel	4	Abril	2023-04-20T00:00:00	2024-11-08T19:00:00	5	Humedad	89
32273	7	Sololá	710	Panajachel	8	Panajachel	4	Abril	2023-04-20T00:00:00	2024-11-08T19:00:00	6	Velocidad del viento	1.6
32274	7	Sololá	710	Panajachel	8	Panajachel	4	Abril	2023-04-20T00:00:00	2024-11-08T19:00:00	7	Dirección del viento	1.61
32275	7	Sololá	710	Panajachel	8	Panajachel	4	Abril	2023-04-20T00:00:00	2024-11-08T19:00:00	1	Precipitación	0
32276	7	Sololá	710	Panajachel	8	Panajachel	4	Abril	2023-04-20T00:00:00	2024-11-08T19:00:00	8	Radiación solar	0
32277	7	Sololá	710	Panajachel	8	Panajachel	4	Abril	2023-04-20T00:00:00	2024-11-08T20:00:00	2	Temperatura media	19.7
32278	7	Sololá	710	Panajachel	8	Panajachel	4	Abril	2023-04-20T00:00:00	2024-11-08T20:00:00	4	Temperatura máxima	20.2
32279	7	Sololá	710	Panajachel	8	Panajachel	4	Abril	2023-04-20T00:00:00	2024-11-08T20:00:00	3	Temperatura mínima	19.7
32280	7	Sololá	710	Panajachel	8	Panajachel	4	Abril	2023-04-20T00:00:00	2024-11-08T20:00:00	5	Humedad	89
32281	7	Sololá	710	Panajachel	8	Panajachel	4	Abril	2023-04-20T00:00:00	2024-11-08T20:00:00	6	Velocidad del viento	0
32282	7	Sololá	710	Panajachel	8	Panajachel	4	Abril	2023-04-20T00:00:00	2024-11-08T20:00:00	7	Dirección del viento	0
32283	7	Sololá	710	Panajachel	8	Panajachel	4	Abril	2023-04-20T00:00:00	2024-11-08T20:00:00	1	Precipitación	0
32284	7	Sololá	710	Panajachel	8	Panajachel	4	Abril	2023-04-20T00:00:00	2024-11-08T20:00:00	8	Radiación solar	0
32285	7	Sololá	710	Panajachel	8	Panajachel	4	Abril	2023-04-20T00:00:00	2024-11-08T21:00:00	2	Temperatura media	19.1
32286	7	Sololá	710	Panajachel	8	Panajachel	4	Abril	2023-04-20T00:00:00	2024-11-08T21:00:00	4	Temperatura máxima	19.7
32287	7	Sololá	710	Panajachel	8	Panajachel	4	Abril	2023-04-20T00:00:00	2024-11-08T21:00:00	3	Temperatura mínima	19.1
32288	7	Sololá	710	Panajachel	8	Panajachel	4	Abril	2023-04-20T00:00:00	2024-11-08T21:00:00	5	Humedad	86
32289	7	Sololá	710	Panajachel	8	Panajachel	4	Abril	2023-04-20T00:00:00	2024-11-08T21:00:00	6	Velocidad del viento	1.6
32290	7	Sololá	710	Panajachel	8	Panajachel	4	Abril	2023-04-20T00:00:00	2024-11-08T21:00:00	7	Dirección del viento	1.61
32291	7	Sololá	710	Panajachel	8	Panajachel	4	Abril	2023-04-20T00:00:00	2024-11-08T21:00:00	1	Precipitación	0
32292	7	Sololá	710	Panajachel	8	Panajachel	4	Abril	2023-04-20T00:00:00	2024-11-08T21:00:00	8	Radiación solar	0
32293	7	Sololá	710	Panajachel	8	Panajachel	4	Abril	2023-04-20T00:00:00	2024-11-08T22:00:00	2	Temperatura media	18.6
32294	7	Sololá	710	Panajachel	8	Panajachel	4	Abril	2023-04-20T00:00:00	2024-11-08T22:00:00	4	Temperatura máxima	19.2
32295	7	Sololá	710	Panajachel	8	Panajachel	4	Abril	2023-04-20T00:00:00	2024-11-08T22:00:00	3	Temperatura mínima	18.6
32296	7	Sololá	710	Panajachel	8	Panajachel	4	Abril	2023-04-20T00:00:00	2024-11-08T22:00:00	5	Humedad	85
32297	7	Sololá	710	Panajachel	8	Panajachel	4	Abril	2023-04-20T00:00:00	2024-11-08T22:00:00	6	Velocidad del viento	1.6
32298	7	Sololá	710	Panajachel	8	Panajachel	4	Abril	2023-04-20T00:00:00	2024-11-08T22:00:00	7	Dirección del viento	1.61
32299	7	Sololá	710	Panajachel	8	Panajachel	4	Abril	2023-04-20T00:00:00	2024-11-08T22:00:00	1	Precipitación	0
32300	7	Sololá	710	Panajachel	8	Panajachel	4	Abril	2023-04-20T00:00:00	2024-11-08T22:00:00	8	Radiación solar	0
32301	7	Sololá	710	Panajachel	8	Panajachel	4	Abril	2023-04-20T00:00:00	2024-11-08T23:00:00	2	Temperatura media	18.1
32302	7	Sololá	710	Panajachel	8	Panajachel	4	Abril	2023-04-20T00:00:00	2024-11-08T23:00:00	4	Temperatura máxima	18.6
32303	7	Sololá	710	Panajachel	8	Panajachel	4	Abril	2023-04-20T00:00:00	2024-11-08T23:00:00	3	Temperatura mínima	18.1
32304	7	Sololá	710	Panajachel	8	Panajachel	4	Abril	2023-04-20T00:00:00	2024-11-08T23:00:00	5	Humedad	83
32305	7	Sololá	710	Panajachel	8	Panajachel	4	Abril	2023-04-20T00:00:00	2024-11-08T23:00:00	6	Velocidad del viento	3.2
32306	7	Sololá	710	Panajachel	8	Panajachel	4	Abril	2023-04-20T00:00:00	2024-11-08T23:00:00	7	Dirección del viento	3.22
32307	7	Sololá	710	Panajachel	8	Panajachel	4	Abril	2023-04-20T00:00:00	2024-11-08T23:00:00	1	Precipitación	0
32308	7	Sololá	710	Panajachel	8	Panajachel	4	Abril	2023-04-20T00:00:00	2024-11-08T23:00:00	8	Radiación solar	0
32309	7	Sololá	710	Panajachel	8	Panajachel	4	Abril	2023-04-21T00:00:00	2024-11-08T00:00:00	2	Temperatura media	17.6
32310	7	Sololá	710	Panajachel	8	Panajachel	4	Abril	2023-04-21T00:00:00	2024-11-08T00:00:00	4	Temperatura máxima	18.1
32311	7	Sololá	710	Panajachel	8	Panajachel	4	Abril	2023-04-21T00:00:00	2024-11-08T00:00:00	3	Temperatura mínima	17.6
32312	7	Sololá	710	Panajachel	8	Panajachel	4	Abril	2023-04-21T00:00:00	2024-11-08T00:00:00	5	Humedad	84
32313	7	Sololá	710	Panajachel	8	Panajachel	4	Abril	2023-04-21T00:00:00	2024-11-08T00:00:00	6	Velocidad del viento	3.2
32314	7	Sololá	710	Panajachel	8	Panajachel	4	Abril	2023-04-21T00:00:00	2024-11-08T00:00:00	7	Dirección del viento	3.22
32315	7	Sololá	710	Panajachel	8	Panajachel	4	Abril	2023-04-21T00:00:00	2024-11-08T00:00:00	1	Precipitación	0
32316	7	Sololá	710	Panajachel	8	Panajachel	4	Abril	2023-04-21T00:00:00	2024-11-08T00:00:00	8	Radiación solar	0
32317	7	Sololá	710	Panajachel	8	Panajachel	4	Abril	2023-04-21T00:00:00	2024-11-08T01:00:00	2	Temperatura media	17.6
32318	7	Sololá	710	Panajachel	8	Panajachel	4	Abril	2023-04-21T00:00:00	2024-11-08T01:00:00	4	Temperatura máxima	17.7
32319	7	Sololá	710	Panajachel	8	Panajachel	4	Abril	2023-04-21T00:00:00	2024-11-08T01:00:00	3	Temperatura mínima	17.5
32320	7	Sololá	710	Panajachel	8	Panajachel	4	Abril	2023-04-21T00:00:00	2024-11-08T01:00:00	5	Humedad	82
32321	7	Sololá	710	Panajachel	8	Panajachel	4	Abril	2023-04-21T00:00:00	2024-11-08T01:00:00	6	Velocidad del viento	3.2
32322	7	Sololá	710	Panajachel	8	Panajachel	4	Abril	2023-04-21T00:00:00	2024-11-08T01:00:00	7	Dirección del viento	3.22
32323	7	Sololá	710	Panajachel	8	Panajachel	4	Abril	2023-04-21T00:00:00	2024-11-08T01:00:00	1	Precipitación	0
32324	7	Sololá	710	Panajachel	8	Panajachel	4	Abril	2023-04-21T00:00:00	2024-11-08T01:00:00	8	Radiación solar	0
32325	7	Sololá	710	Panajachel	8	Panajachel	4	Abril	2023-04-21T00:00:00	2024-11-08T02:00:00	2	Temperatura media	17.4
32326	7	Sololá	710	Panajachel	8	Panajachel	4	Abril	2023-04-21T00:00:00	2024-11-08T02:00:00	4	Temperatura máxima	17.6
32327	7	Sololá	710	Panajachel	8	Panajachel	4	Abril	2023-04-21T00:00:00	2024-11-08T02:00:00	3	Temperatura mínima	17.2
32328	7	Sololá	710	Panajachel	8	Panajachel	4	Abril	2023-04-21T00:00:00	2024-11-08T02:00:00	5	Humedad	82
32329	7	Sololá	710	Panajachel	8	Panajachel	4	Abril	2023-04-21T00:00:00	2024-11-08T02:00:00	6	Velocidad del viento	1.6
32330	7	Sololá	710	Panajachel	8	Panajachel	4	Abril	2023-04-21T00:00:00	2024-11-08T02:00:00	7	Dirección del viento	1.61
32331	7	Sololá	710	Panajachel	8	Panajachel	4	Abril	2023-04-21T00:00:00	2024-11-08T02:00:00	1	Precipitación	0
32332	7	Sololá	710	Panajachel	8	Panajachel	4	Abril	2023-04-21T00:00:00	2024-11-08T02:00:00	8	Radiación solar	0
32333	7	Sololá	710	Panajachel	8	Panajachel	4	Abril	2023-04-21T00:00:00	2024-11-08T03:00:00	2	Temperatura media	16.4
32334	7	Sololá	710	Panajachel	8	Panajachel	4	Abril	2023-04-21T00:00:00	2024-11-08T03:00:00	4	Temperatura máxima	17.4
32335	7	Sololá	710	Panajachel	8	Panajachel	4	Abril	2023-04-21T00:00:00	2024-11-08T03:00:00	3	Temperatura mínima	16.4
32336	7	Sololá	710	Panajachel	8	Panajachel	4	Abril	2023-04-21T00:00:00	2024-11-08T03:00:00	5	Humedad	83
32337	7	Sololá	710	Panajachel	8	Panajachel	4	Abril	2023-04-21T00:00:00	2024-11-08T03:00:00	6	Velocidad del viento	3.2
32338	7	Sololá	710	Panajachel	8	Panajachel	4	Abril	2023-04-21T00:00:00	2024-11-08T03:00:00	7	Dirección del viento	3.22
32339	7	Sololá	710	Panajachel	8	Panajachel	4	Abril	2023-04-21T00:00:00	2024-11-08T03:00:00	1	Precipitación	0
32340	7	Sololá	710	Panajachel	8	Panajachel	4	Abril	2023-04-21T00:00:00	2024-11-08T03:00:00	8	Radiación solar	0
32341	7	Sololá	710	Panajachel	8	Panajachel	4	Abril	2023-04-21T00:00:00	2024-11-08T04:00:00	2	Temperatura media	16.6
32342	7	Sololá	710	Panajachel	8	Panajachel	4	Abril	2023-04-21T00:00:00	2024-11-08T04:00:00	4	Temperatura máxima	16.7
32343	7	Sololá	710	Panajachel	8	Panajachel	4	Abril	2023-04-21T00:00:00	2024-11-08T04:00:00	3	Temperatura mínima	16.3
32344	7	Sololá	710	Panajachel	8	Panajachel	4	Abril	2023-04-21T00:00:00	2024-11-08T04:00:00	5	Humedad	80
32345	7	Sololá	710	Panajachel	8	Panajachel	4	Abril	2023-04-21T00:00:00	2024-11-08T04:00:00	6	Velocidad del viento	1.6
32346	7	Sololá	710	Panajachel	8	Panajachel	4	Abril	2023-04-21T00:00:00	2024-11-08T04:00:00	7	Dirección del viento	1.61
32347	7	Sololá	710	Panajachel	8	Panajachel	4	Abril	2023-04-21T00:00:00	2024-11-08T04:00:00	1	Precipitación	0
32348	7	Sololá	710	Panajachel	8	Panajachel	4	Abril	2023-04-21T00:00:00	2024-11-08T04:00:00	8	Radiación solar	0
32349	7	Sololá	710	Panajachel	8	Panajachel	4	Abril	2023-04-21T00:00:00	2024-11-08T05:00:00	2	Temperatura media	16.7
32350	7	Sololá	710	Panajachel	8	Panajachel	4	Abril	2023-04-21T00:00:00	2024-11-08T05:00:00	4	Temperatura máxima	16.7
32351	7	Sololá	710	Panajachel	8	Panajachel	4	Abril	2023-04-21T00:00:00	2024-11-08T05:00:00	3	Temperatura mínima	16.4
32352	7	Sololá	710	Panajachel	8	Panajachel	4	Abril	2023-04-21T00:00:00	2024-11-08T05:00:00	5	Humedad	77
32353	7	Sololá	710	Panajachel	8	Panajachel	4	Abril	2023-04-21T00:00:00	2024-11-08T05:00:00	6	Velocidad del viento	4.8
32354	7	Sololá	710	Panajachel	8	Panajachel	4	Abril	2023-04-21T00:00:00	2024-11-08T05:00:00	7	Dirección del viento	4.83
32355	7	Sololá	710	Panajachel	8	Panajachel	4	Abril	2023-04-21T00:00:00	2024-11-08T05:00:00	1	Precipitación	0
32356	7	Sololá	710	Panajachel	8	Panajachel	4	Abril	2023-04-21T00:00:00	2024-11-08T05:00:00	8	Radiación solar	0
32357	7	Sololá	710	Panajachel	8	Panajachel	4	Abril	2023-04-21T00:00:00	2024-11-08T06:00:00	2	Temperatura media	16.2
32358	7	Sololá	710	Panajachel	8	Panajachel	4	Abril	2023-04-21T00:00:00	2024-11-08T06:00:00	4	Temperatura máxima	16.7
32359	7	Sololá	710	Panajachel	8	Panajachel	4	Abril	2023-04-21T00:00:00	2024-11-08T06:00:00	3	Temperatura mínima	16.2
32360	7	Sololá	710	Panajachel	8	Panajachel	4	Abril	2023-04-21T00:00:00	2024-11-08T06:00:00	5	Humedad	77
32361	7	Sololá	710	Panajachel	8	Panajachel	4	Abril	2023-04-21T00:00:00	2024-11-08T06:00:00	6	Velocidad del viento	4.8
32362	7	Sololá	710	Panajachel	8	Panajachel	4	Abril	2023-04-21T00:00:00	2024-11-08T06:00:00	7	Dirección del viento	4.83
32363	7	Sololá	710	Panajachel	8	Panajachel	4	Abril	2023-04-21T00:00:00	2024-11-08T06:00:00	1	Precipitación	0
32364	7	Sololá	710	Panajachel	8	Panajachel	4	Abril	2023-04-21T00:00:00	2024-11-08T06:00:00	8	Radiación solar	1
32365	7	Sololá	710	Panajachel	8	Panajachel	4	Abril	2023-04-21T00:00:00	2024-11-08T07:00:00	2	Temperatura media	17.5
32366	7	Sololá	710	Panajachel	8	Panajachel	4	Abril	2023-04-21T00:00:00	2024-11-08T07:00:00	4	Temperatura máxima	17.5
32367	7	Sololá	710	Panajachel	8	Panajachel	4	Abril	2023-04-21T00:00:00	2024-11-08T07:00:00	3	Temperatura mínima	16.2
32368	7	Sololá	710	Panajachel	8	Panajachel	4	Abril	2023-04-21T00:00:00	2024-11-08T07:00:00	5	Humedad	73
32369	7	Sololá	710	Panajachel	8	Panajachel	4	Abril	2023-04-21T00:00:00	2024-11-08T07:00:00	6	Velocidad del viento	3.2
32370	7	Sololá	710	Panajachel	8	Panajachel	4	Abril	2023-04-21T00:00:00	2024-11-08T07:00:00	7	Dirección del viento	3.22
32371	7	Sololá	710	Panajachel	8	Panajachel	4	Abril	2023-04-21T00:00:00	2024-11-08T07:00:00	1	Precipitación	0
32372	7	Sololá	710	Panajachel	8	Panajachel	4	Abril	2023-04-21T00:00:00	2024-11-08T07:00:00	8	Radiación solar	72
32373	7	Sololá	710	Panajachel	8	Panajachel	4	Abril	2023-04-21T00:00:00	2024-11-08T08:00:00	2	Temperatura media	20.6
32374	7	Sololá	710	Panajachel	8	Panajachel	4	Abril	2023-04-21T00:00:00	2024-11-08T08:00:00	4	Temperatura máxima	20.7
32375	7	Sololá	710	Panajachel	8	Panajachel	4	Abril	2023-04-21T00:00:00	2024-11-08T08:00:00	3	Temperatura mínima	17.5
32376	7	Sololá	710	Panajachel	8	Panajachel	4	Abril	2023-04-21T00:00:00	2024-11-08T08:00:00	5	Humedad	73
32377	7	Sololá	710	Panajachel	8	Panajachel	4	Abril	2023-04-21T00:00:00	2024-11-08T08:00:00	6	Velocidad del viento	0
32378	7	Sololá	710	Panajachel	8	Panajachel	4	Abril	2023-04-21T00:00:00	2024-11-08T08:00:00	7	Dirección del viento	0
32379	7	Sololá	710	Panajachel	8	Panajachel	4	Abril	2023-04-21T00:00:00	2024-11-08T08:00:00	1	Precipitación	0
32380	7	Sololá	710	Panajachel	8	Panajachel	4	Abril	2023-04-21T00:00:00	2024-11-08T08:00:00	8	Radiación solar	292
32381	7	Sololá	710	Panajachel	8	Panajachel	4	Abril	2023-04-21T00:00:00	2024-11-08T09:00:00	2	Temperatura media	20.3
32382	7	Sololá	710	Panajachel	8	Panajachel	4	Abril	2023-04-21T00:00:00	2024-11-08T09:00:00	4	Temperatura máxima	20.6
32383	7	Sololá	710	Panajachel	8	Panajachel	4	Abril	2023-04-21T00:00:00	2024-11-08T09:00:00	3	Temperatura mínima	19.9
32384	7	Sololá	710	Panajachel	8	Panajachel	4	Abril	2023-04-21T00:00:00	2024-11-08T09:00:00	5	Humedad	73
32385	7	Sololá	710	Panajachel	8	Panajachel	4	Abril	2023-04-21T00:00:00	2024-11-08T09:00:00	6	Velocidad del viento	3.2
32386	7	Sololá	710	Panajachel	8	Panajachel	4	Abril	2023-04-21T00:00:00	2024-11-08T09:00:00	7	Dirección del viento	3.22
32387	7	Sololá	710	Panajachel	8	Panajachel	4	Abril	2023-04-21T00:00:00	2024-11-08T09:00:00	1	Precipitación	0
32388	7	Sololá	710	Panajachel	8	Panajachel	4	Abril	2023-04-21T00:00:00	2024-11-08T09:00:00	8	Radiación solar	501
32389	7	Sololá	710	Panajachel	8	Panajachel	4	Abril	2023-04-21T00:00:00	2024-11-08T10:00:00	2	Temperatura media	21.8
32390	7	Sololá	710	Panajachel	8	Panajachel	4	Abril	2023-04-21T00:00:00	2024-11-08T10:00:00	4	Temperatura máxima	21.8
32391	7	Sololá	710	Panajachel	8	Panajachel	4	Abril	2023-04-21T00:00:00	2024-11-08T10:00:00	3	Temperatura mínima	20.3
32392	7	Sololá	710	Panajachel	8	Panajachel	4	Abril	2023-04-21T00:00:00	2024-11-08T10:00:00	5	Humedad	70
32393	7	Sololá	710	Panajachel	8	Panajachel	4	Abril	2023-04-21T00:00:00	2024-11-08T10:00:00	6	Velocidad del viento	3.2
32394	7	Sololá	710	Panajachel	8	Panajachel	4	Abril	2023-04-21T00:00:00	2024-11-08T10:00:00	7	Dirección del viento	3.22
32395	7	Sololá	710	Panajachel	8	Panajachel	4	Abril	2023-04-21T00:00:00	2024-11-08T10:00:00	1	Precipitación	0
32396	7	Sololá	710	Panajachel	8	Panajachel	4	Abril	2023-04-21T00:00:00	2024-11-08T10:00:00	8	Radiación solar	703
32397	7	Sololá	710	Panajachel	8	Panajachel	4	Abril	2023-04-21T00:00:00	2024-11-08T11:00:00	2	Temperatura media	21.7
32398	7	Sololá	710	Panajachel	8	Panajachel	4	Abril	2023-04-21T00:00:00	2024-11-08T11:00:00	4	Temperatura máxima	22.5
32399	7	Sololá	710	Panajachel	8	Panajachel	4	Abril	2023-04-21T00:00:00	2024-11-08T11:00:00	3	Temperatura mínima	21.4
32400	7	Sololá	710	Panajachel	8	Panajachel	4	Abril	2023-04-21T00:00:00	2024-11-08T11:00:00	5	Humedad	71
32401	7	Sololá	710	Panajachel	8	Panajachel	4	Abril	2023-04-21T00:00:00	2024-11-08T11:00:00	6	Velocidad del viento	4.8
32402	7	Sololá	710	Panajachel	8	Panajachel	4	Abril	2023-04-21T00:00:00	2024-11-08T11:00:00	7	Dirección del viento	4.83
32403	7	Sololá	710	Panajachel	8	Panajachel	4	Abril	2023-04-21T00:00:00	2024-11-08T11:00:00	1	Precipitación	0
32404	7	Sololá	710	Panajachel	8	Panajachel	4	Abril	2023-04-21T00:00:00	2024-11-08T11:00:00	8	Radiación solar	851
32405	7	Sololá	710	Panajachel	8	Panajachel	4	Abril	2023-04-21T00:00:00	2024-11-08T12:00:00	2	Temperatura media	22.6
32406	7	Sololá	710	Panajachel	8	Panajachel	4	Abril	2023-04-21T00:00:00	2024-11-08T12:00:00	4	Temperatura máxima	23.2
32407	7	Sololá	710	Panajachel	8	Panajachel	4	Abril	2023-04-21T00:00:00	2024-11-08T12:00:00	3	Temperatura mínima	21.7
32408	7	Sololá	710	Panajachel	8	Panajachel	4	Abril	2023-04-21T00:00:00	2024-11-08T12:00:00	5	Humedad	79
32409	7	Sololá	710	Panajachel	8	Panajachel	4	Abril	2023-04-21T00:00:00	2024-11-08T12:00:00	6	Velocidad del viento	6.4
32410	7	Sololá	710	Panajachel	8	Panajachel	4	Abril	2023-04-21T00:00:00	2024-11-08T12:00:00	7	Dirección del viento	6.44
32411	7	Sololá	710	Panajachel	8	Panajachel	4	Abril	2023-04-21T00:00:00	2024-11-08T12:00:00	1	Precipitación	0
32412	7	Sololá	710	Panajachel	8	Panajachel	4	Abril	2023-04-21T00:00:00	2024-11-08T12:00:00	8	Radiación solar	656
32413	7	Sololá	710	Panajachel	8	Panajachel	4	Abril	2023-04-21T00:00:00	2024-11-08T13:00:00	2	Temperatura media	22.6
32414	7	Sololá	710	Panajachel	8	Panajachel	4	Abril	2023-04-21T00:00:00	2024-11-08T13:00:00	4	Temperatura máxima	22.7
32415	7	Sololá	710	Panajachel	8	Panajachel	4	Abril	2023-04-21T00:00:00	2024-11-08T13:00:00	3	Temperatura mínima	22.1
32416	7	Sololá	710	Panajachel	8	Panajachel	4	Abril	2023-04-21T00:00:00	2024-11-08T13:00:00	5	Humedad	78
32417	7	Sololá	710	Panajachel	8	Panajachel	4	Abril	2023-04-21T00:00:00	2024-11-08T13:00:00	6	Velocidad del viento	6.4
32418	7	Sololá	710	Panajachel	8	Panajachel	4	Abril	2023-04-21T00:00:00	2024-11-08T13:00:00	7	Dirección del viento	6.44
32419	7	Sololá	710	Panajachel	8	Panajachel	4	Abril	2023-04-21T00:00:00	2024-11-08T13:00:00	1	Precipitación	0
32420	7	Sololá	710	Panajachel	8	Panajachel	4	Abril	2023-04-21T00:00:00	2024-11-08T13:00:00	8	Radiación solar	461
32421	7	Sololá	710	Panajachel	8	Panajachel	4	Abril	2023-04-21T00:00:00	2024-11-08T14:00:00	2	Temperatura media	23.1
32422	7	Sololá	710	Panajachel	8	Panajachel	4	Abril	2023-04-21T00:00:00	2024-11-08T14:00:00	4	Temperatura máxima	24.4
32423	7	Sololá	710	Panajachel	8	Panajachel	4	Abril	2023-04-21T00:00:00	2024-11-08T14:00:00	3	Temperatura mínima	22.6
32424	7	Sololá	710	Panajachel	8	Panajachel	4	Abril	2023-04-21T00:00:00	2024-11-08T14:00:00	5	Humedad	79
32425	7	Sololá	710	Panajachel	8	Panajachel	4	Abril	2023-04-21T00:00:00	2024-11-08T14:00:00	6	Velocidad del viento	4.8
32426	7	Sololá	710	Panajachel	8	Panajachel	4	Abril	2023-04-21T00:00:00	2024-11-08T14:00:00	7	Dirección del viento	4.83
32427	7	Sololá	710	Panajachel	8	Panajachel	4	Abril	2023-04-21T00:00:00	2024-11-08T14:00:00	1	Precipitación	0
32428	7	Sololá	710	Panajachel	8	Panajachel	4	Abril	2023-04-21T00:00:00	2024-11-08T14:00:00	8	Radiación solar	685
32429	7	Sololá	710	Panajachel	8	Panajachel	4	Abril	2023-04-21T00:00:00	2024-11-08T15:00:00	2	Temperatura media	22.3
32430	7	Sololá	710	Panajachel	8	Panajachel	4	Abril	2023-04-21T00:00:00	2024-11-08T15:00:00	4	Temperatura máxima	23.1
32431	7	Sololá	710	Panajachel	8	Panajachel	4	Abril	2023-04-21T00:00:00	2024-11-08T15:00:00	3	Temperatura mínima	22
32432	7	Sololá	710	Panajachel	8	Panajachel	4	Abril	2023-04-21T00:00:00	2024-11-08T15:00:00	5	Humedad	80
32433	7	Sololá	710	Panajachel	8	Panajachel	4	Abril	2023-04-21T00:00:00	2024-11-08T15:00:00	6	Velocidad del viento	4.8
32434	7	Sololá	710	Panajachel	8	Panajachel	4	Abril	2023-04-21T00:00:00	2024-11-08T15:00:00	7	Dirección del viento	4.83
32435	7	Sololá	710	Panajachel	8	Panajachel	4	Abril	2023-04-21T00:00:00	2024-11-08T15:00:00	1	Precipitación	0
32436	7	Sololá	710	Panajachel	8	Panajachel	4	Abril	2023-04-21T00:00:00	2024-11-08T15:00:00	8	Radiación solar	288
32437	7	Sololá	710	Panajachel	8	Panajachel	4	Abril	2023-04-21T00:00:00	2024-11-08T16:00:00	2	Temperatura media	22.5
32438	7	Sololá	710	Panajachel	8	Panajachel	4	Abril	2023-04-21T00:00:00	2024-11-08T16:00:00	4	Temperatura máxima	22.6
32439	7	Sololá	710	Panajachel	8	Panajachel	4	Abril	2023-04-21T00:00:00	2024-11-08T16:00:00	3	Temperatura mínima	21.9
32440	7	Sololá	710	Panajachel	8	Panajachel	4	Abril	2023-04-21T00:00:00	2024-11-08T16:00:00	5	Humedad	80
32441	7	Sololá	710	Panajachel	8	Panajachel	4	Abril	2023-04-21T00:00:00	2024-11-08T16:00:00	6	Velocidad del viento	8
32442	7	Sololá	710	Panajachel	8	Panajachel	4	Abril	2023-04-21T00:00:00	2024-11-08T16:00:00	7	Dirección del viento	8.05
32443	7	Sololá	710	Panajachel	8	Panajachel	4	Abril	2023-04-21T00:00:00	2024-11-08T16:00:00	1	Precipitación	0
32444	7	Sololá	710	Panajachel	8	Panajachel	4	Abril	2023-04-21T00:00:00	2024-11-08T16:00:00	8	Radiación solar	331
32445	7	Sololá	710	Panajachel	8	Panajachel	4	Abril	2023-04-21T00:00:00	2024-11-08T17:00:00	2	Temperatura media	21.4
32446	7	Sololá	710	Panajachel	8	Panajachel	4	Abril	2023-04-21T00:00:00	2024-11-08T17:00:00	4	Temperatura máxima	22.5
32447	7	Sololá	710	Panajachel	8	Panajachel	4	Abril	2023-04-21T00:00:00	2024-11-08T17:00:00	3	Temperatura mínima	21.4
32448	7	Sololá	710	Panajachel	8	Panajachel	4	Abril	2023-04-21T00:00:00	2024-11-08T17:00:00	5	Humedad	84
32449	7	Sololá	710	Panajachel	8	Panajachel	4	Abril	2023-04-21T00:00:00	2024-11-08T17:00:00	6	Velocidad del viento	3.2
32450	7	Sololá	710	Panajachel	8	Panajachel	4	Abril	2023-04-21T00:00:00	2024-11-08T17:00:00	7	Dirección del viento	3.22
32451	7	Sololá	710	Panajachel	8	Panajachel	4	Abril	2023-04-21T00:00:00	2024-11-08T17:00:00	1	Precipitación	0
32452	7	Sololá	710	Panajachel	8	Panajachel	4	Abril	2023-04-21T00:00:00	2024-11-08T17:00:00	8	Radiación solar	106
32453	7	Sololá	710	Panajachel	8	Panajachel	4	Abril	2023-04-21T00:00:00	2024-11-08T18:00:00	2	Temperatura media	21.2
32454	7	Sololá	710	Panajachel	8	Panajachel	4	Abril	2023-04-21T00:00:00	2024-11-08T18:00:00	4	Temperatura máxima	21.5
32455	7	Sololá	710	Panajachel	8	Panajachel	4	Abril	2023-04-21T00:00:00	2024-11-08T18:00:00	3	Temperatura mínima	21.2
32456	7	Sololá	710	Panajachel	8	Panajachel	4	Abril	2023-04-21T00:00:00	2024-11-08T18:00:00	5	Humedad	83
32457	7	Sololá	710	Panajachel	8	Panajachel	4	Abril	2023-04-21T00:00:00	2024-11-08T18:00:00	6	Velocidad del viento	0
32458	7	Sololá	710	Panajachel	8	Panajachel	4	Abril	2023-04-21T00:00:00	2024-11-08T18:00:00	7	Dirección del viento	0
32459	7	Sololá	710	Panajachel	8	Panajachel	4	Abril	2023-04-21T00:00:00	2024-11-08T18:00:00	1	Precipitación	0
32460	7	Sololá	710	Panajachel	8	Panajachel	4	Abril	2023-04-21T00:00:00	2024-11-08T18:00:00	8	Radiación solar	55
32461	7	Sololá	710	Panajachel	8	Panajachel	4	Abril	2023-04-21T00:00:00	2024-11-08T19:00:00	2	Temperatura media	20.9
32462	7	Sololá	710	Panajachel	8	Panajachel	4	Abril	2023-04-21T00:00:00	2024-11-08T19:00:00	4	Temperatura máxima	21.2
32463	7	Sololá	710	Panajachel	8	Panajachel	4	Abril	2023-04-21T00:00:00	2024-11-08T19:00:00	3	Temperatura mínima	20.8
32464	7	Sololá	710	Panajachel	8	Panajachel	4	Abril	2023-04-21T00:00:00	2024-11-08T19:00:00	5	Humedad	86
32465	7	Sololá	710	Panajachel	8	Panajachel	4	Abril	2023-04-21T00:00:00	2024-11-08T19:00:00	6	Velocidad del viento	0
32466	7	Sololá	710	Panajachel	8	Panajachel	4	Abril	2023-04-21T00:00:00	2024-11-08T19:00:00	7	Dirección del viento	0
32467	7	Sololá	710	Panajachel	8	Panajachel	4	Abril	2023-04-21T00:00:00	2024-11-08T19:00:00	1	Precipitación	0
32468	7	Sololá	710	Panajachel	8	Panajachel	4	Abril	2023-04-21T00:00:00	2024-11-08T19:00:00	8	Radiación solar	0
32469	7	Sololá	710	Panajachel	8	Panajachel	4	Abril	2023-04-21T00:00:00	2024-11-08T20:00:00	2	Temperatura media	20.1
32470	7	Sololá	710	Panajachel	8	Panajachel	4	Abril	2023-04-21T00:00:00	2024-11-08T20:00:00	4	Temperatura máxima	20.9
32471	7	Sololá	710	Panajachel	8	Panajachel	4	Abril	2023-04-21T00:00:00	2024-11-08T20:00:00	3	Temperatura mínima	20.1
32472	7	Sololá	710	Panajachel	8	Panajachel	4	Abril	2023-04-21T00:00:00	2024-11-08T20:00:00	5	Humedad	85
32473	7	Sololá	710	Panajachel	8	Panajachel	4	Abril	2023-04-21T00:00:00	2024-11-08T20:00:00	6	Velocidad del viento	1.6
32474	7	Sololá	710	Panajachel	8	Panajachel	4	Abril	2023-04-21T00:00:00	2024-11-08T20:00:00	7	Dirección del viento	1.61
32475	7	Sololá	710	Panajachel	8	Panajachel	4	Abril	2023-04-21T00:00:00	2024-11-08T20:00:00	1	Precipitación	0
32476	7	Sololá	710	Panajachel	8	Panajachel	4	Abril	2023-04-21T00:00:00	2024-11-08T20:00:00	8	Radiación solar	0
32477	7	Sololá	710	Panajachel	8	Panajachel	4	Abril	2023-04-21T00:00:00	2024-11-08T21:00:00	2	Temperatura media	19.1
32478	7	Sololá	710	Panajachel	8	Panajachel	4	Abril	2023-04-21T00:00:00	2024-11-08T21:00:00	4	Temperatura máxima	20.1
32479	7	Sololá	710	Panajachel	8	Panajachel	4	Abril	2023-04-21T00:00:00	2024-11-08T21:00:00	3	Temperatura mínima	19.1
32480	7	Sololá	710	Panajachel	8	Panajachel	4	Abril	2023-04-21T00:00:00	2024-11-08T21:00:00	5	Humedad	85
32481	7	Sololá	710	Panajachel	8	Panajachel	4	Abril	2023-04-21T00:00:00	2024-11-08T21:00:00	6	Velocidad del viento	1.6
32482	7	Sololá	710	Panajachel	8	Panajachel	4	Abril	2023-04-21T00:00:00	2024-11-08T21:00:00	7	Dirección del viento	1.61
32483	7	Sololá	710	Panajachel	8	Panajachel	4	Abril	2023-04-21T00:00:00	2024-11-08T21:00:00	1	Precipitación	0
32484	7	Sololá	710	Panajachel	8	Panajachel	4	Abril	2023-04-21T00:00:00	2024-11-08T21:00:00	8	Radiación solar	0
32485	7	Sololá	710	Panajachel	8	Panajachel	4	Abril	2023-04-21T00:00:00	2024-11-08T22:00:00	2	Temperatura media	18.4
32486	7	Sololá	710	Panajachel	8	Panajachel	4	Abril	2023-04-21T00:00:00	2024-11-08T22:00:00	4	Temperatura máxima	19.2
32487	7	Sololá	710	Panajachel	8	Panajachel	4	Abril	2023-04-21T00:00:00	2024-11-08T22:00:00	3	Temperatura mínima	18.4
32488	7	Sololá	710	Panajachel	8	Panajachel	4	Abril	2023-04-21T00:00:00	2024-11-08T22:00:00	5	Humedad	84
32489	7	Sololá	710	Panajachel	8	Panajachel	4	Abril	2023-04-21T00:00:00	2024-11-08T22:00:00	6	Velocidad del viento	3.2
32490	7	Sololá	710	Panajachel	8	Panajachel	4	Abril	2023-04-21T00:00:00	2024-11-08T22:00:00	7	Dirección del viento	3.22
32491	7	Sololá	710	Panajachel	8	Panajachel	4	Abril	2023-04-21T00:00:00	2024-11-08T22:00:00	1	Precipitación	0
32492	7	Sololá	710	Panajachel	8	Panajachel	4	Abril	2023-04-21T00:00:00	2024-11-08T22:00:00	8	Radiación solar	0
32493	7	Sololá	710	Panajachel	8	Panajachel	4	Abril	2023-04-21T00:00:00	2024-11-08T23:00:00	2	Temperatura media	18
32494	7	Sololá	710	Panajachel	8	Panajachel	4	Abril	2023-04-21T00:00:00	2024-11-08T23:00:00	4	Temperatura máxima	18.4
32495	7	Sololá	710	Panajachel	8	Panajachel	4	Abril	2023-04-21T00:00:00	2024-11-08T23:00:00	3	Temperatura mínima	17.9
32496	7	Sololá	710	Panajachel	8	Panajachel	4	Abril	2023-04-21T00:00:00	2024-11-08T23:00:00	5	Humedad	85
32497	7	Sololá	710	Panajachel	8	Panajachel	4	Abril	2023-04-21T00:00:00	2024-11-08T23:00:00	6	Velocidad del viento	3.2
32498	7	Sololá	710	Panajachel	8	Panajachel	4	Abril	2023-04-21T00:00:00	2024-11-08T23:00:00	7	Dirección del viento	3.22
32499	7	Sololá	710	Panajachel	8	Panajachel	4	Abril	2023-04-21T00:00:00	2024-11-08T23:00:00	1	Precipitación	0
32500	7	Sololá	710	Panajachel	8	Panajachel	4	Abril	2023-04-21T00:00:00	2024-11-08T23:00:00	8	Radiación solar	0
32501	7	Sololá	710	Panajachel	8	Panajachel	4	Abril	2023-04-22T00:00:00	2024-11-08T00:00:00	2	Temperatura media	17.8
32502	7	Sololá	710	Panajachel	8	Panajachel	4	Abril	2023-04-22T00:00:00	2024-11-08T00:00:00	4	Temperatura máxima	18
32503	7	Sololá	710	Panajachel	8	Panajachel	4	Abril	2023-04-22T00:00:00	2024-11-08T00:00:00	3	Temperatura mínima	17.7
32504	7	Sololá	710	Panajachel	8	Panajachel	4	Abril	2023-04-22T00:00:00	2024-11-08T00:00:00	5	Humedad	84
32505	7	Sololá	710	Panajachel	8	Panajachel	4	Abril	2023-04-22T00:00:00	2024-11-08T00:00:00	6	Velocidad del viento	3.2
32506	7	Sololá	710	Panajachel	8	Panajachel	4	Abril	2023-04-22T00:00:00	2024-11-08T00:00:00	7	Dirección del viento	3.22
32507	7	Sololá	710	Panajachel	8	Panajachel	4	Abril	2023-04-22T00:00:00	2024-11-08T00:00:00	1	Precipitación	0
32508	7	Sololá	710	Panajachel	8	Panajachel	4	Abril	2023-04-22T00:00:00	2024-11-08T00:00:00	8	Radiación solar	0
32509	7	Sololá	710	Panajachel	8	Panajachel	4	Abril	2023-04-22T00:00:00	2024-11-08T01:00:00	2	Temperatura media	17.7
32510	7	Sololá	710	Panajachel	8	Panajachel	4	Abril	2023-04-22T00:00:00	2024-11-08T01:00:00	4	Temperatura máxima	17.9
32511	7	Sololá	710	Panajachel	8	Panajachel	4	Abril	2023-04-22T00:00:00	2024-11-08T01:00:00	3	Temperatura mínima	17.4
32512	7	Sololá	710	Panajachel	8	Panajachel	4	Abril	2023-04-22T00:00:00	2024-11-08T01:00:00	5	Humedad	84
32513	7	Sololá	710	Panajachel	8	Panajachel	4	Abril	2023-04-22T00:00:00	2024-11-08T01:00:00	6	Velocidad del viento	3.2
32514	7	Sololá	710	Panajachel	8	Panajachel	4	Abril	2023-04-22T00:00:00	2024-11-08T01:00:00	7	Dirección del viento	3.22
32515	7	Sololá	710	Panajachel	8	Panajachel	4	Abril	2023-04-22T00:00:00	2024-11-08T01:00:00	1	Precipitación	0
32516	7	Sololá	710	Panajachel	8	Panajachel	4	Abril	2023-04-22T00:00:00	2024-11-08T01:00:00	8	Radiación solar	0
32517	7	Sololá	710	Panajachel	8	Panajachel	4	Abril	2023-04-22T00:00:00	2024-11-08T02:00:00	2	Temperatura media	17.3
32518	7	Sololá	710	Panajachel	8	Panajachel	4	Abril	2023-04-22T00:00:00	2024-11-08T02:00:00	4	Temperatura máxima	17.8
32519	7	Sololá	710	Panajachel	8	Panajachel	4	Abril	2023-04-22T00:00:00	2024-11-08T02:00:00	3	Temperatura mínima	17.3
32520	7	Sololá	710	Panajachel	8	Panajachel	4	Abril	2023-04-22T00:00:00	2024-11-08T02:00:00	5	Humedad	82
32521	7	Sololá	710	Panajachel	8	Panajachel	4	Abril	2023-04-22T00:00:00	2024-11-08T02:00:00	6	Velocidad del viento	1.6
32522	7	Sololá	710	Panajachel	8	Panajachel	4	Abril	2023-04-22T00:00:00	2024-11-08T02:00:00	7	Dirección del viento	1.61
32523	7	Sololá	710	Panajachel	8	Panajachel	4	Abril	2023-04-22T00:00:00	2024-11-08T02:00:00	1	Precipitación	0
32524	7	Sololá	710	Panajachel	8	Panajachel	4	Abril	2023-04-22T00:00:00	2024-11-08T02:00:00	8	Radiación solar	0
32525	7	Sololá	710	Panajachel	8	Panajachel	4	Abril	2023-04-22T00:00:00	2024-11-08T03:00:00	2	Temperatura media	16.4
32526	7	Sololá	710	Panajachel	8	Panajachel	4	Abril	2023-04-22T00:00:00	2024-11-08T03:00:00	4	Temperatura máxima	17.3
32527	7	Sololá	710	Panajachel	8	Panajachel	4	Abril	2023-04-22T00:00:00	2024-11-08T03:00:00	3	Temperatura mínima	16.3
32528	7	Sololá	710	Panajachel	8	Panajachel	4	Abril	2023-04-22T00:00:00	2024-11-08T03:00:00	5	Humedad	83
32529	7	Sololá	710	Panajachel	8	Panajachel	4	Abril	2023-04-22T00:00:00	2024-11-08T03:00:00	6	Velocidad del viento	3.2
32530	7	Sololá	710	Panajachel	8	Panajachel	4	Abril	2023-04-22T00:00:00	2024-11-08T03:00:00	7	Dirección del viento	3.22
32531	7	Sololá	710	Panajachel	8	Panajachel	4	Abril	2023-04-22T00:00:00	2024-11-08T03:00:00	1	Precipitación	0
32532	7	Sololá	710	Panajachel	8	Panajachel	4	Abril	2023-04-22T00:00:00	2024-11-08T03:00:00	8	Radiación solar	0
32533	7	Sololá	710	Panajachel	8	Panajachel	4	Abril	2023-04-22T00:00:00	2024-11-08T04:00:00	2	Temperatura media	16.4
32534	7	Sololá	710	Panajachel	8	Panajachel	4	Abril	2023-04-22T00:00:00	2024-11-08T04:00:00	4	Temperatura máxima	16.4
32535	7	Sololá	710	Panajachel	8	Panajachel	4	Abril	2023-04-22T00:00:00	2024-11-08T04:00:00	3	Temperatura mínima	16.2
32536	7	Sololá	710	Panajachel	8	Panajachel	4	Abril	2023-04-22T00:00:00	2024-11-08T04:00:00	5	Humedad	82
32537	7	Sololá	710	Panajachel	8	Panajachel	4	Abril	2023-04-22T00:00:00	2024-11-08T04:00:00	6	Velocidad del viento	1.6
32538	7	Sololá	710	Panajachel	8	Panajachel	4	Abril	2023-04-22T00:00:00	2024-11-08T04:00:00	7	Dirección del viento	1.61
32539	7	Sololá	710	Panajachel	8	Panajachel	4	Abril	2023-04-22T00:00:00	2024-11-08T04:00:00	1	Precipitación	0
32540	7	Sololá	710	Panajachel	8	Panajachel	4	Abril	2023-04-22T00:00:00	2024-11-08T04:00:00	8	Radiación solar	0
32541	7	Sololá	710	Panajachel	8	Panajachel	4	Abril	2023-04-22T00:00:00	2024-11-08T05:00:00	2	Temperatura media	16
32542	7	Sololá	710	Panajachel	8	Panajachel	4	Abril	2023-04-22T00:00:00	2024-11-08T05:00:00	4	Temperatura máxima	16.4
32543	7	Sololá	710	Panajachel	8	Panajachel	4	Abril	2023-04-22T00:00:00	2024-11-08T05:00:00	3	Temperatura mínima	15.9
32544	7	Sololá	710	Panajachel	8	Panajachel	4	Abril	2023-04-22T00:00:00	2024-11-08T05:00:00	5	Humedad	81
32545	7	Sololá	710	Panajachel	8	Panajachel	4	Abril	2023-04-22T00:00:00	2024-11-08T05:00:00	6	Velocidad del viento	3.2
32546	7	Sololá	710	Panajachel	8	Panajachel	4	Abril	2023-04-22T00:00:00	2024-11-08T05:00:00	7	Dirección del viento	3.22
32547	7	Sololá	710	Panajachel	8	Panajachel	4	Abril	2023-04-22T00:00:00	2024-11-08T05:00:00	1	Precipitación	0
32548	7	Sololá	710	Panajachel	8	Panajachel	4	Abril	2023-04-22T00:00:00	2024-11-08T05:00:00	8	Radiación solar	0
32549	7	Sololá	710	Panajachel	8	Panajachel	4	Abril	2023-04-22T00:00:00	2024-11-08T06:00:00	2	Temperatura media	15.9
32550	7	Sololá	710	Panajachel	8	Panajachel	4	Abril	2023-04-22T00:00:00	2024-11-08T06:00:00	4	Temperatura máxima	16.1
32551	7	Sololá	710	Panajachel	8	Panajachel	4	Abril	2023-04-22T00:00:00	2024-11-08T06:00:00	3	Temperatura mínima	15.4
32552	7	Sololá	710	Panajachel	8	Panajachel	4	Abril	2023-04-22T00:00:00	2024-11-08T06:00:00	5	Humedad	80
32553	7	Sololá	710	Panajachel	8	Panajachel	4	Abril	2023-04-22T00:00:00	2024-11-08T06:00:00	6	Velocidad del viento	3.2
32554	7	Sololá	710	Panajachel	8	Panajachel	4	Abril	2023-04-22T00:00:00	2024-11-08T06:00:00	7	Dirección del viento	3.22
32555	7	Sololá	710	Panajachel	8	Panajachel	4	Abril	2023-04-22T00:00:00	2024-11-08T06:00:00	1	Precipitación	0
32556	7	Sololá	710	Panajachel	8	Panajachel	4	Abril	2023-04-22T00:00:00	2024-11-08T06:00:00	8	Radiación solar	1
32557	7	Sololá	710	Panajachel	8	Panajachel	4	Abril	2023-04-22T00:00:00	2024-11-08T07:00:00	2	Temperatura media	17.6
32558	7	Sololá	710	Panajachel	8	Panajachel	4	Abril	2023-04-22T00:00:00	2024-11-08T07:00:00	4	Temperatura máxima	17.6
32559	7	Sololá	710	Panajachel	8	Panajachel	4	Abril	2023-04-22T00:00:00	2024-11-08T07:00:00	3	Temperatura mínima	15.9
32560	7	Sololá	710	Panajachel	8	Panajachel	4	Abril	2023-04-22T00:00:00	2024-11-08T07:00:00	5	Humedad	74
32561	7	Sololá	710	Panajachel	8	Panajachel	4	Abril	2023-04-22T00:00:00	2024-11-08T07:00:00	6	Velocidad del viento	3.2
32562	7	Sololá	710	Panajachel	8	Panajachel	4	Abril	2023-04-22T00:00:00	2024-11-08T07:00:00	7	Dirección del viento	3.22
32563	7	Sololá	710	Panajachel	8	Panajachel	4	Abril	2023-04-22T00:00:00	2024-11-08T07:00:00	1	Precipitación	0
32564	7	Sololá	710	Panajachel	8	Panajachel	4	Abril	2023-04-22T00:00:00	2024-11-08T07:00:00	8	Radiación solar	72
32565	7	Sololá	710	Panajachel	8	Panajachel	4	Abril	2023-04-22T00:00:00	2024-11-08T08:00:00	2	Temperatura media	20.6
32566	7	Sololá	710	Panajachel	8	Panajachel	4	Abril	2023-04-22T00:00:00	2024-11-08T08:00:00	4	Temperatura máxima	20.7
32567	7	Sololá	710	Panajachel	8	Panajachel	4	Abril	2023-04-22T00:00:00	2024-11-08T08:00:00	3	Temperatura mínima	17.6
32568	7	Sololá	710	Panajachel	8	Panajachel	4	Abril	2023-04-22T00:00:00	2024-11-08T08:00:00	5	Humedad	76
32569	7	Sololá	710	Panajachel	8	Panajachel	4	Abril	2023-04-22T00:00:00	2024-11-08T08:00:00	6	Velocidad del viento	1.6
32570	7	Sololá	710	Panajachel	8	Panajachel	4	Abril	2023-04-22T00:00:00	2024-11-08T08:00:00	7	Dirección del viento	1.61
32571	7	Sololá	710	Panajachel	8	Panajachel	4	Abril	2023-04-22T00:00:00	2024-11-08T08:00:00	1	Precipitación	0
32572	7	Sololá	710	Panajachel	8	Panajachel	4	Abril	2023-04-22T00:00:00	2024-11-08T08:00:00	8	Radiación solar	308
32573	7	Sololá	710	Panajachel	8	Panajachel	4	Abril	2023-04-22T00:00:00	2024-11-08T09:00:00	2	Temperatura media	21.2
32574	7	Sololá	710	Panajachel	8	Panajachel	4	Abril	2023-04-22T00:00:00	2024-11-08T09:00:00	4	Temperatura máxima	21.2
32575	7	Sololá	710	Panajachel	8	Panajachel	4	Abril	2023-04-22T00:00:00	2024-11-08T09:00:00	3	Temperatura mínima	20.2
32576	7	Sololá	710	Panajachel	8	Panajachel	4	Abril	2023-04-22T00:00:00	2024-11-08T09:00:00	5	Humedad	77
32577	7	Sololá	710	Panajachel	8	Panajachel	4	Abril	2023-04-22T00:00:00	2024-11-08T09:00:00	6	Velocidad del viento	1.6
32578	7	Sololá	710	Panajachel	8	Panajachel	4	Abril	2023-04-22T00:00:00	2024-11-08T09:00:00	7	Dirección del viento	1.61
32579	7	Sololá	710	Panajachel	8	Panajachel	4	Abril	2023-04-22T00:00:00	2024-11-08T09:00:00	1	Precipitación	0
32580	7	Sololá	710	Panajachel	8	Panajachel	4	Abril	2023-04-22T00:00:00	2024-11-08T09:00:00	8	Radiación solar	528
32581	7	Sololá	710	Panajachel	8	Panajachel	4	Abril	2023-04-22T00:00:00	2024-11-08T10:00:00	2	Temperatura media	21.3
32582	7	Sololá	710	Panajachel	8	Panajachel	4	Abril	2023-04-22T00:00:00	2024-11-08T10:00:00	4	Temperatura máxima	21.8
32583	7	Sololá	710	Panajachel	8	Panajachel	4	Abril	2023-04-22T00:00:00	2024-11-08T10:00:00	3	Temperatura mínima	21
32584	7	Sololá	710	Panajachel	8	Panajachel	4	Abril	2023-04-22T00:00:00	2024-11-08T10:00:00	5	Humedad	76
32585	7	Sololá	710	Panajachel	8	Panajachel	4	Abril	2023-04-22T00:00:00	2024-11-08T10:00:00	6	Velocidad del viento	3.2
32586	7	Sololá	710	Panajachel	8	Panajachel	4	Abril	2023-04-22T00:00:00	2024-11-08T10:00:00	7	Dirección del viento	3.22
32587	7	Sololá	710	Panajachel	8	Panajachel	4	Abril	2023-04-22T00:00:00	2024-11-08T10:00:00	1	Precipitación	0
32588	7	Sololá	710	Panajachel	8	Panajachel	4	Abril	2023-04-22T00:00:00	2024-11-08T10:00:00	8	Radiación solar	725
32589	7	Sololá	710	Panajachel	8	Panajachel	4	Abril	2023-04-22T00:00:00	2024-11-08T11:00:00	2	Temperatura media	23.6
32590	7	Sololá	710	Panajachel	8	Panajachel	4	Abril	2023-04-22T00:00:00	2024-11-08T11:00:00	4	Temperatura máxima	23.7
32591	7	Sololá	710	Panajachel	8	Panajachel	4	Abril	2023-04-22T00:00:00	2024-11-08T11:00:00	3	Temperatura mínima	21.3
32592	7	Sololá	710	Panajachel	8	Panajachel	4	Abril	2023-04-22T00:00:00	2024-11-08T11:00:00	5	Humedad	65
32593	7	Sololá	710	Panajachel	8	Panajachel	4	Abril	2023-04-22T00:00:00	2024-11-08T11:00:00	6	Velocidad del viento	3.2
32594	7	Sololá	710	Panajachel	8	Panajachel	4	Abril	2023-04-22T00:00:00	2024-11-08T11:00:00	7	Dirección del viento	3.22
32595	7	Sololá	710	Panajachel	8	Panajachel	4	Abril	2023-04-22T00:00:00	2024-11-08T11:00:00	1	Precipitación	0
32596	7	Sololá	710	Panajachel	8	Panajachel	4	Abril	2023-04-22T00:00:00	2024-11-08T11:00:00	8	Radiación solar	865
32597	7	Sololá	710	Panajachel	8	Panajachel	4	Abril	2023-04-22T00:00:00	2024-11-08T12:00:00	2	Temperatura media	24.9
32598	7	Sololá	710	Panajachel	8	Panajachel	4	Abril	2023-04-22T00:00:00	2024-11-08T12:00:00	4	Temperatura máxima	25
32599	7	Sololá	710	Panajachel	8	Panajachel	4	Abril	2023-04-22T00:00:00	2024-11-08T12:00:00	3	Temperatura mínima	23.6
32600	7	Sololá	710	Panajachel	8	Panajachel	4	Abril	2023-04-22T00:00:00	2024-11-08T12:00:00	5	Humedad	67
32601	7	Sololá	710	Panajachel	8	Panajachel	4	Abril	2023-04-22T00:00:00	2024-11-08T12:00:00	6	Velocidad del viento	3.2
32602	7	Sololá	710	Panajachel	8	Panajachel	4	Abril	2023-04-22T00:00:00	2024-11-08T12:00:00	7	Dirección del viento	3.22
32603	7	Sololá	710	Panajachel	8	Panajachel	4	Abril	2023-04-22T00:00:00	2024-11-08T12:00:00	1	Precipitación	0
32604	7	Sololá	710	Panajachel	8	Panajachel	4	Abril	2023-04-22T00:00:00	2024-11-08T12:00:00	8	Radiación solar	934
32605	7	Sololá	710	Panajachel	8	Panajachel	4	Abril	2023-04-22T00:00:00	2024-11-08T13:00:00	2	Temperatura media	25.3
32606	7	Sololá	710	Panajachel	8	Panajachel	4	Abril	2023-04-22T00:00:00	2024-11-08T13:00:00	4	Temperatura máxima	25.3
32607	7	Sololá	710	Panajachel	8	Panajachel	4	Abril	2023-04-22T00:00:00	2024-11-08T13:00:00	3	Temperatura mínima	24.3
32608	7	Sololá	710	Panajachel	8	Panajachel	4	Abril	2023-04-22T00:00:00	2024-11-08T13:00:00	5	Humedad	72
32609	7	Sololá	710	Panajachel	8	Panajachel	4	Abril	2023-04-22T00:00:00	2024-11-08T13:00:00	6	Velocidad del viento	6.4
32610	7	Sololá	710	Panajachel	8	Panajachel	4	Abril	2023-04-22T00:00:00	2024-11-08T13:00:00	7	Dirección del viento	6.44
32611	7	Sololá	710	Panajachel	8	Panajachel	4	Abril	2023-04-22T00:00:00	2024-11-08T13:00:00	1	Precipitación	0
32612	7	Sololá	710	Panajachel	8	Panajachel	4	Abril	2023-04-22T00:00:00	2024-11-08T13:00:00	8	Radiación solar	920
32613	7	Sololá	710	Panajachel	8	Panajachel	4	Abril	2023-04-22T00:00:00	2024-11-08T14:00:00	2	Temperatura media	24.5
32614	7	Sololá	710	Panajachel	8	Panajachel	4	Abril	2023-04-22T00:00:00	2024-11-08T14:00:00	4	Temperatura máxima	25.6
32615	7	Sololá	710	Panajachel	8	Panajachel	4	Abril	2023-04-22T00:00:00	2024-11-08T14:00:00	3	Temperatura mínima	24.3
32616	7	Sololá	710	Panajachel	8	Panajachel	4	Abril	2023-04-22T00:00:00	2024-11-08T14:00:00	5	Humedad	80
32617	7	Sololá	710	Panajachel	8	Panajachel	4	Abril	2023-04-22T00:00:00	2024-11-08T14:00:00	6	Velocidad del viento	6.4
32618	7	Sololá	710	Panajachel	8	Panajachel	4	Abril	2023-04-22T00:00:00	2024-11-08T14:00:00	7	Dirección del viento	6.44
32619	7	Sololá	710	Panajachel	8	Panajachel	4	Abril	2023-04-22T00:00:00	2024-11-08T14:00:00	1	Precipitación	0
32620	7	Sololá	710	Panajachel	8	Panajachel	4	Abril	2023-04-22T00:00:00	2024-11-08T14:00:00	8	Radiación solar	813
32621	7	Sololá	710	Panajachel	8	Panajachel	4	Abril	2023-04-22T00:00:00	2024-11-08T15:00:00	2	Temperatura media	24.4
32622	7	Sololá	710	Panajachel	8	Panajachel	4	Abril	2023-04-22T00:00:00	2024-11-08T15:00:00	4	Temperatura máxima	24.6
32623	7	Sololá	710	Panajachel	8	Panajachel	4	Abril	2023-04-22T00:00:00	2024-11-08T15:00:00	3	Temperatura mínima	23.7
32624	7	Sololá	710	Panajachel	8	Panajachel	4	Abril	2023-04-22T00:00:00	2024-11-08T15:00:00	5	Humedad	80
32625	7	Sololá	710	Panajachel	8	Panajachel	4	Abril	2023-04-22T00:00:00	2024-11-08T15:00:00	6	Velocidad del viento	6.4
32626	7	Sololá	710	Panajachel	8	Panajachel	4	Abril	2023-04-22T00:00:00	2024-11-08T15:00:00	7	Dirección del viento	6.44
32627	7	Sololá	710	Panajachel	8	Panajachel	4	Abril	2023-04-22T00:00:00	2024-11-08T15:00:00	1	Precipitación	0
32628	7	Sololá	710	Panajachel	8	Panajachel	4	Abril	2023-04-22T00:00:00	2024-11-08T15:00:00	8	Radiación solar	533
32629	7	Sololá	710	Panajachel	8	Panajachel	4	Abril	2023-04-22T00:00:00	2024-11-08T16:00:00	2	Temperatura media	23.1
32630	7	Sololá	710	Panajachel	8	Panajachel	4	Abril	2023-04-22T00:00:00	2024-11-08T16:00:00	4	Temperatura máxima	25
32631	7	Sololá	710	Panajachel	8	Panajachel	4	Abril	2023-04-22T00:00:00	2024-11-08T16:00:00	3	Temperatura mínima	23
32632	7	Sololá	710	Panajachel	8	Panajachel	4	Abril	2023-04-22T00:00:00	2024-11-08T16:00:00	5	Humedad	82
32633	7	Sololá	710	Panajachel	8	Panajachel	4	Abril	2023-04-22T00:00:00	2024-11-08T16:00:00	6	Velocidad del viento	4.8
32634	7	Sololá	710	Panajachel	8	Panajachel	4	Abril	2023-04-22T00:00:00	2024-11-08T16:00:00	7	Dirección del viento	4.83
32635	7	Sololá	710	Panajachel	8	Panajachel	4	Abril	2023-04-22T00:00:00	2024-11-08T16:00:00	1	Precipitación	0
32636	7	Sololá	710	Panajachel	8	Panajachel	4	Abril	2023-04-22T00:00:00	2024-11-08T16:00:00	8	Radiación solar	323
32637	7	Sololá	710	Panajachel	8	Panajachel	4	Abril	2023-04-22T00:00:00	2024-11-08T17:00:00	2	Temperatura media	22.2
32638	7	Sololá	710	Panajachel	8	Panajachel	4	Abril	2023-04-22T00:00:00	2024-11-08T17:00:00	4	Temperatura máxima	23.1
32639	7	Sololá	710	Panajachel	8	Panajachel	4	Abril	2023-04-22T00:00:00	2024-11-08T17:00:00	3	Temperatura mínima	22.1
32640	7	Sololá	710	Panajachel	8	Panajachel	4	Abril	2023-04-22T00:00:00	2024-11-08T17:00:00	5	Humedad	81
32641	7	Sololá	710	Panajachel	8	Panajachel	4	Abril	2023-04-22T00:00:00	2024-11-08T17:00:00	6	Velocidad del viento	4.8
32642	7	Sololá	710	Panajachel	8	Panajachel	4	Abril	2023-04-22T00:00:00	2024-11-08T17:00:00	7	Dirección del viento	4.83
32643	7	Sololá	710	Panajachel	8	Panajachel	4	Abril	2023-04-22T00:00:00	2024-11-08T17:00:00	1	Precipitación	0
32644	7	Sololá	710	Panajachel	8	Panajachel	4	Abril	2023-04-22T00:00:00	2024-11-08T17:00:00	8	Radiación solar	86
32645	7	Sololá	710	Panajachel	8	Panajachel	4	Abril	2023-04-22T00:00:00	2024-11-08T18:00:00	2	Temperatura media	22.1
32646	7	Sololá	710	Panajachel	8	Panajachel	4	Abril	2023-04-22T00:00:00	2024-11-08T18:00:00	4	Temperatura máxima	22.3
32647	7	Sololá	710	Panajachel	8	Panajachel	4	Abril	2023-04-22T00:00:00	2024-11-08T18:00:00	3	Temperatura mínima	22.1
32648	7	Sololá	710	Panajachel	8	Panajachel	4	Abril	2023-04-22T00:00:00	2024-11-08T18:00:00	5	Humedad	82
32649	7	Sololá	710	Panajachel	8	Panajachel	4	Abril	2023-04-22T00:00:00	2024-11-08T18:00:00	6	Velocidad del viento	0
32650	7	Sololá	710	Panajachel	8	Panajachel	4	Abril	2023-04-22T00:00:00	2024-11-08T18:00:00	7	Dirección del viento	0
32651	7	Sololá	710	Panajachel	8	Panajachel	4	Abril	2023-04-22T00:00:00	2024-11-08T18:00:00	1	Precipitación	0
32652	7	Sololá	710	Panajachel	8	Panajachel	4	Abril	2023-04-22T00:00:00	2024-11-08T18:00:00	8	Radiación solar	37
32653	7	Sololá	710	Panajachel	8	Panajachel	4	Abril	2023-04-22T00:00:00	2024-11-08T19:00:00	2	Temperatura media	21.8
32654	7	Sololá	710	Panajachel	8	Panajachel	4	Abril	2023-04-22T00:00:00	2024-11-08T19:00:00	4	Temperatura máxima	22.2
32655	7	Sololá	710	Panajachel	8	Panajachel	4	Abril	2023-04-22T00:00:00	2024-11-08T19:00:00	3	Temperatura mínima	21.8
32656	7	Sololá	710	Panajachel	8	Panajachel	4	Abril	2023-04-22T00:00:00	2024-11-08T19:00:00	5	Humedad	84
32657	7	Sololá	710	Panajachel	8	Panajachel	4	Abril	2023-04-22T00:00:00	2024-11-08T19:00:00	6	Velocidad del viento	0
32658	7	Sololá	710	Panajachel	8	Panajachel	4	Abril	2023-04-22T00:00:00	2024-11-08T19:00:00	7	Dirección del viento	0
32659	7	Sololá	710	Panajachel	8	Panajachel	4	Abril	2023-04-22T00:00:00	2024-11-08T19:00:00	1	Precipitación	0
32660	7	Sololá	710	Panajachel	8	Panajachel	4	Abril	2023-04-22T00:00:00	2024-11-08T19:00:00	8	Radiación solar	0
32661	7	Sololá	710	Panajachel	8	Panajachel	4	Abril	2023-04-22T00:00:00	2024-11-08T20:00:00	2	Temperatura media	21.2
32662	7	Sololá	710	Panajachel	8	Panajachel	4	Abril	2023-04-22T00:00:00	2024-11-08T20:00:00	4	Temperatura máxima	21.8
32663	7	Sololá	710	Panajachel	8	Panajachel	4	Abril	2023-04-22T00:00:00	2024-11-08T20:00:00	3	Temperatura mínima	21.2
32664	7	Sololá	710	Panajachel	8	Panajachel	4	Abril	2023-04-22T00:00:00	2024-11-08T20:00:00	5	Humedad	84
32665	7	Sololá	710	Panajachel	8	Panajachel	4	Abril	2023-04-22T00:00:00	2024-11-08T20:00:00	6	Velocidad del viento	0
32666	7	Sololá	710	Panajachel	8	Panajachel	4	Abril	2023-04-22T00:00:00	2024-11-08T20:00:00	7	Dirección del viento	0
32667	7	Sololá	710	Panajachel	8	Panajachel	4	Abril	2023-04-22T00:00:00	2024-11-08T20:00:00	1	Precipitación	0
32668	7	Sololá	710	Panajachel	8	Panajachel	4	Abril	2023-04-22T00:00:00	2024-11-08T20:00:00	8	Radiación solar	0
32669	7	Sololá	710	Panajachel	8	Panajachel	4	Abril	2023-04-22T00:00:00	2024-11-08T21:00:00	2	Temperatura media	20.5
32670	7	Sololá	710	Panajachel	8	Panajachel	4	Abril	2023-04-22T00:00:00	2024-11-08T21:00:00	4	Temperatura máxima	21.3
32671	7	Sololá	710	Panajachel	8	Panajachel	4	Abril	2023-04-22T00:00:00	2024-11-08T21:00:00	3	Temperatura mínima	20.4
32672	7	Sololá	710	Panajachel	8	Panajachel	4	Abril	2023-04-22T00:00:00	2024-11-08T21:00:00	5	Humedad	84
32673	7	Sololá	710	Panajachel	8	Panajachel	4	Abril	2023-04-22T00:00:00	2024-11-08T21:00:00	6	Velocidad del viento	1.6
32674	7	Sololá	710	Panajachel	8	Panajachel	4	Abril	2023-04-22T00:00:00	2024-11-08T21:00:00	7	Dirección del viento	1.61
32675	7	Sololá	710	Panajachel	8	Panajachel	4	Abril	2023-04-22T00:00:00	2024-11-08T21:00:00	1	Precipitación	0
32676	7	Sololá	710	Panajachel	8	Panajachel	4	Abril	2023-04-22T00:00:00	2024-11-08T21:00:00	8	Radiación solar	0
32677	7	Sololá	710	Panajachel	8	Panajachel	4	Abril	2023-04-22T00:00:00	2024-11-08T22:00:00	2	Temperatura media	20.2
32678	7	Sololá	710	Panajachel	8	Panajachel	4	Abril	2023-04-22T00:00:00	2024-11-08T22:00:00	4	Temperatura máxima	20.5
32679	7	Sololá	710	Panajachel	8	Panajachel	4	Abril	2023-04-22T00:00:00	2024-11-08T22:00:00	3	Temperatura mínima	20.1
32680	7	Sololá	710	Panajachel	8	Panajachel	4	Abril	2023-04-22T00:00:00	2024-11-08T22:00:00	5	Humedad	79
32681	7	Sololá	710	Panajachel	8	Panajachel	4	Abril	2023-04-22T00:00:00	2024-11-08T22:00:00	6	Velocidad del viento	3.2
32682	7	Sololá	710	Panajachel	8	Panajachel	4	Abril	2023-04-22T00:00:00	2024-11-08T22:00:00	7	Dirección del viento	3.22
32683	7	Sololá	710	Panajachel	8	Panajachel	4	Abril	2023-04-22T00:00:00	2024-11-08T22:00:00	1	Precipitación	0
32684	7	Sololá	710	Panajachel	8	Panajachel	4	Abril	2023-04-22T00:00:00	2024-11-08T22:00:00	8	Radiación solar	0
32685	7	Sololá	710	Panajachel	8	Panajachel	4	Abril	2023-04-22T00:00:00	2024-11-08T23:00:00	2	Temperatura media	19.6
32686	7	Sololá	710	Panajachel	8	Panajachel	4	Abril	2023-04-22T00:00:00	2024-11-08T23:00:00	4	Temperatura máxima	20.3
32687	7	Sololá	710	Panajachel	8	Panajachel	4	Abril	2023-04-22T00:00:00	2024-11-08T23:00:00	3	Temperatura mínima	19.6
32688	7	Sololá	710	Panajachel	8	Panajachel	4	Abril	2023-04-22T00:00:00	2024-11-08T23:00:00	5	Humedad	79
32689	7	Sololá	710	Panajachel	8	Panajachel	4	Abril	2023-04-22T00:00:00	2024-11-08T23:00:00	6	Velocidad del viento	3.2
32690	7	Sololá	710	Panajachel	8	Panajachel	4	Abril	2023-04-22T00:00:00	2024-11-08T23:00:00	7	Dirección del viento	3.22
32691	7	Sololá	710	Panajachel	8	Panajachel	4	Abril	2023-04-22T00:00:00	2024-11-08T23:00:00	1	Precipitación	0
32692	7	Sololá	710	Panajachel	8	Panajachel	4	Abril	2023-04-22T00:00:00	2024-11-08T23:00:00	8	Radiación solar	0
32693	7	Sololá	710	Panajachel	8	Panajachel	4	Abril	2023-04-23T00:00:00	2024-11-08T00:00:00	2	Temperatura media	19.4
32694	7	Sololá	710	Panajachel	8	Panajachel	4	Abril	2023-04-23T00:00:00	2024-11-08T00:00:00	4	Temperatura máxima	19.6
32695	7	Sololá	710	Panajachel	8	Panajachel	4	Abril	2023-04-23T00:00:00	2024-11-08T00:00:00	3	Temperatura mínima	19.3
32696	7	Sololá	710	Panajachel	8	Panajachel	4	Abril	2023-04-23T00:00:00	2024-11-08T00:00:00	5	Humedad	82
32697	7	Sololá	710	Panajachel	8	Panajachel	4	Abril	2023-04-23T00:00:00	2024-11-08T00:00:00	6	Velocidad del viento	3.2
32698	7	Sololá	710	Panajachel	8	Panajachel	4	Abril	2023-04-23T00:00:00	2024-11-08T00:00:00	7	Dirección del viento	3.22
32699	7	Sololá	710	Panajachel	8	Panajachel	4	Abril	2023-04-23T00:00:00	2024-11-08T00:00:00	1	Precipitación	0
32700	7	Sololá	710	Panajachel	8	Panajachel	4	Abril	2023-04-23T00:00:00	2024-11-08T00:00:00	8	Radiación solar	0
32701	7	Sololá	710	Panajachel	8	Panajachel	4	Abril	2023-04-23T00:00:00	2024-11-08T01:00:00	2	Temperatura media	18.9
32702	7	Sololá	710	Panajachel	8	Panajachel	4	Abril	2023-04-23T00:00:00	2024-11-08T01:00:00	4	Temperatura máxima	19.4
32703	7	Sololá	710	Panajachel	8	Panajachel	4	Abril	2023-04-23T00:00:00	2024-11-08T01:00:00	3	Temperatura mínima	18.9
32704	7	Sololá	710	Panajachel	8	Panajachel	4	Abril	2023-04-23T00:00:00	2024-11-08T01:00:00	5	Humedad	80
32705	7	Sololá	710	Panajachel	8	Panajachel	4	Abril	2023-04-23T00:00:00	2024-11-08T01:00:00	6	Velocidad del viento	3.2
32706	7	Sololá	710	Panajachel	8	Panajachel	4	Abril	2023-04-23T00:00:00	2024-11-08T01:00:00	7	Dirección del viento	3.22
32707	7	Sololá	710	Panajachel	8	Panajachel	4	Abril	2023-04-23T00:00:00	2024-11-08T01:00:00	1	Precipitación	0
32708	7	Sololá	710	Panajachel	8	Panajachel	4	Abril	2023-04-23T00:00:00	2024-11-08T01:00:00	8	Radiación solar	0
32709	7	Sololá	710	Panajachel	8	Panajachel	4	Abril	2023-04-23T00:00:00	2024-11-08T02:00:00	2	Temperatura media	18.4
32710	7	Sololá	710	Panajachel	8	Panajachel	4	Abril	2023-04-23T00:00:00	2024-11-08T02:00:00	4	Temperatura máxima	19
32711	7	Sololá	710	Panajachel	8	Panajachel	4	Abril	2023-04-23T00:00:00	2024-11-08T02:00:00	3	Temperatura mínima	18.4
32712	7	Sololá	710	Panajachel	8	Panajachel	4	Abril	2023-04-23T00:00:00	2024-11-08T02:00:00	5	Humedad	79
32713	7	Sololá	710	Panajachel	8	Panajachel	4	Abril	2023-04-23T00:00:00	2024-11-08T02:00:00	6	Velocidad del viento	3.2
32714	7	Sololá	710	Panajachel	8	Panajachel	4	Abril	2023-04-23T00:00:00	2024-11-08T02:00:00	7	Dirección del viento	3.22
32715	7	Sololá	710	Panajachel	8	Panajachel	4	Abril	2023-04-23T00:00:00	2024-11-08T02:00:00	1	Precipitación	0
32716	7	Sololá	710	Panajachel	8	Panajachel	4	Abril	2023-04-23T00:00:00	2024-11-08T02:00:00	8	Radiación solar	0
32717	7	Sololá	710	Panajachel	8	Panajachel	4	Abril	2023-04-23T00:00:00	2024-11-08T03:00:00	2	Temperatura media	18.2
32718	7	Sololá	710	Panajachel	8	Panajachel	4	Abril	2023-04-23T00:00:00	2024-11-08T03:00:00	4	Temperatura máxima	18.6
32719	7	Sololá	710	Panajachel	8	Panajachel	4	Abril	2023-04-23T00:00:00	2024-11-08T03:00:00	3	Temperatura mínima	18.2
32720	7	Sololá	710	Panajachel	8	Panajachel	4	Abril	2023-04-23T00:00:00	2024-11-08T03:00:00	5	Humedad	77
32721	7	Sololá	710	Panajachel	8	Panajachel	4	Abril	2023-04-23T00:00:00	2024-11-08T03:00:00	6	Velocidad del viento	3.2
32722	7	Sololá	710	Panajachel	8	Panajachel	4	Abril	2023-04-23T00:00:00	2024-11-08T03:00:00	7	Dirección del viento	3.22
32723	7	Sololá	710	Panajachel	8	Panajachel	4	Abril	2023-04-23T00:00:00	2024-11-08T03:00:00	1	Precipitación	0
32724	7	Sololá	710	Panajachel	8	Panajachel	4	Abril	2023-04-23T00:00:00	2024-11-08T03:00:00	8	Radiación solar	0
32725	7	Sololá	710	Panajachel	8	Panajachel	4	Abril	2023-04-23T00:00:00	2024-11-08T04:00:00	2	Temperatura media	17.9
32726	7	Sololá	710	Panajachel	8	Panajachel	4	Abril	2023-04-23T00:00:00	2024-11-08T04:00:00	4	Temperatura máxima	18.3
32727	7	Sololá	710	Panajachel	8	Panajachel	4	Abril	2023-04-23T00:00:00	2024-11-08T04:00:00	3	Temperatura mínima	17.8
32728	7	Sololá	710	Panajachel	8	Panajachel	4	Abril	2023-04-23T00:00:00	2024-11-08T04:00:00	5	Humedad	79
32729	7	Sololá	710	Panajachel	8	Panajachel	4	Abril	2023-04-23T00:00:00	2024-11-08T04:00:00	6	Velocidad del viento	3.2
32730	7	Sololá	710	Panajachel	8	Panajachel	4	Abril	2023-04-23T00:00:00	2024-11-08T04:00:00	7	Dirección del viento	3.22
32731	7	Sololá	710	Panajachel	8	Panajachel	4	Abril	2023-04-23T00:00:00	2024-11-08T04:00:00	1	Precipitación	0
32732	7	Sololá	710	Panajachel	8	Panajachel	4	Abril	2023-04-23T00:00:00	2024-11-08T04:00:00	8	Radiación solar	0
32733	7	Sololá	710	Panajachel	8	Panajachel	4	Abril	2023-04-23T00:00:00	2024-11-08T05:00:00	2	Temperatura media	17.1
32734	7	Sololá	710	Panajachel	8	Panajachel	4	Abril	2023-04-23T00:00:00	2024-11-08T05:00:00	4	Temperatura máxima	18.1
32735	7	Sololá	710	Panajachel	8	Panajachel	4	Abril	2023-04-23T00:00:00	2024-11-08T05:00:00	3	Temperatura mínima	17.1
32736	7	Sololá	710	Panajachel	8	Panajachel	4	Abril	2023-04-23T00:00:00	2024-11-08T05:00:00	5	Humedad	80
32737	7	Sololá	710	Panajachel	8	Panajachel	4	Abril	2023-04-23T00:00:00	2024-11-08T05:00:00	6	Velocidad del viento	3.2
32738	7	Sololá	710	Panajachel	8	Panajachel	4	Abril	2023-04-23T00:00:00	2024-11-08T05:00:00	7	Dirección del viento	3.22
32739	7	Sololá	710	Panajachel	8	Panajachel	4	Abril	2023-04-23T00:00:00	2024-11-08T05:00:00	1	Precipitación	0
32740	7	Sololá	710	Panajachel	8	Panajachel	4	Abril	2023-04-23T00:00:00	2024-11-08T05:00:00	8	Radiación solar	0
32741	7	Sololá	710	Panajachel	8	Panajachel	4	Abril	2023-04-23T00:00:00	2024-11-08T06:00:00	2	Temperatura media	16.8
32742	7	Sololá	710	Panajachel	8	Panajachel	4	Abril	2023-04-23T00:00:00	2024-11-08T06:00:00	4	Temperatura máxima	17.2
32743	7	Sololá	710	Panajachel	8	Panajachel	4	Abril	2023-04-23T00:00:00	2024-11-08T06:00:00	3	Temperatura mínima	16.6
32744	7	Sololá	710	Panajachel	8	Panajachel	4	Abril	2023-04-23T00:00:00	2024-11-08T06:00:00	5	Humedad	79
32745	7	Sololá	710	Panajachel	8	Panajachel	4	Abril	2023-04-23T00:00:00	2024-11-08T06:00:00	6	Velocidad del viento	3.2
32746	7	Sololá	710	Panajachel	8	Panajachel	4	Abril	2023-04-23T00:00:00	2024-11-08T06:00:00	7	Dirección del viento	3.22
32747	7	Sololá	710	Panajachel	8	Panajachel	4	Abril	2023-04-23T00:00:00	2024-11-08T06:00:00	1	Precipitación	0
32748	7	Sololá	710	Panajachel	8	Panajachel	4	Abril	2023-04-23T00:00:00	2024-11-08T06:00:00	8	Radiación solar	1
32749	7	Sololá	710	Panajachel	8	Panajachel	4	Abril	2023-04-23T00:00:00	2024-11-08T07:00:00	2	Temperatura media	18.2
32750	7	Sololá	710	Panajachel	8	Panajachel	4	Abril	2023-04-23T00:00:00	2024-11-08T07:00:00	4	Temperatura máxima	18.2
32751	7	Sololá	710	Panajachel	8	Panajachel	4	Abril	2023-04-23T00:00:00	2024-11-08T07:00:00	3	Temperatura mínima	16.7
32752	7	Sololá	710	Panajachel	8	Panajachel	4	Abril	2023-04-23T00:00:00	2024-11-08T07:00:00	5	Humedad	75
32753	7	Sololá	710	Panajachel	8	Panajachel	4	Abril	2023-04-23T00:00:00	2024-11-08T07:00:00	6	Velocidad del viento	4.8
32754	7	Sololá	710	Panajachel	8	Panajachel	4	Abril	2023-04-23T00:00:00	2024-11-08T07:00:00	7	Dirección del viento	4.83
32755	7	Sololá	710	Panajachel	8	Panajachel	4	Abril	2023-04-23T00:00:00	2024-11-08T07:00:00	1	Precipitación	0
32756	7	Sololá	710	Panajachel	8	Panajachel	4	Abril	2023-04-23T00:00:00	2024-11-08T07:00:00	8	Radiación solar	72
32757	7	Sololá	710	Panajachel	8	Panajachel	4	Abril	2023-04-23T00:00:00	2024-11-08T08:00:00	2	Temperatura media	21.2
32758	7	Sololá	710	Panajachel	8	Panajachel	4	Abril	2023-04-23T00:00:00	2024-11-08T08:00:00	4	Temperatura máxima	21.4
32759	7	Sololá	710	Panajachel	8	Panajachel	4	Abril	2023-04-23T00:00:00	2024-11-08T08:00:00	3	Temperatura mínima	18.2
32760	7	Sololá	710	Panajachel	8	Panajachel	4	Abril	2023-04-23T00:00:00	2024-11-08T08:00:00	5	Humedad	76
32761	7	Sololá	710	Panajachel	8	Panajachel	4	Abril	2023-04-23T00:00:00	2024-11-08T08:00:00	6	Velocidad del viento	0
32762	7	Sololá	710	Panajachel	8	Panajachel	4	Abril	2023-04-23T00:00:00	2024-11-08T08:00:00	7	Dirección del viento	0
32763	7	Sololá	710	Panajachel	8	Panajachel	4	Abril	2023-04-23T00:00:00	2024-11-08T08:00:00	1	Precipitación	0
32764	7	Sololá	710	Panajachel	8	Panajachel	4	Abril	2023-04-23T00:00:00	2024-11-08T08:00:00	8	Radiación solar	286
32765	7	Sololá	710	Panajachel	8	Panajachel	4	Abril	2023-04-23T00:00:00	2024-11-08T09:00:00	2	Temperatura media	21.3
32766	7	Sololá	710	Panajachel	8	Panajachel	4	Abril	2023-04-23T00:00:00	2024-11-08T09:00:00	4	Temperatura máxima	21.6
32767	7	Sololá	710	Panajachel	8	Panajachel	4	Abril	2023-04-23T00:00:00	2024-11-08T09:00:00	3	Temperatura mínima	21.1
32768	7	Sololá	710	Panajachel	8	Panajachel	4	Abril	2023-04-23T00:00:00	2024-11-08T09:00:00	5	Humedad	76
32769	7	Sololá	710	Panajachel	8	Panajachel	4	Abril	2023-04-23T00:00:00	2024-11-08T09:00:00	6	Velocidad del viento	1.6
32770	7	Sololá	710	Panajachel	8	Panajachel	4	Abril	2023-04-23T00:00:00	2024-11-08T09:00:00	7	Dirección del viento	1.61
32771	7	Sololá	710	Panajachel	8	Panajachel	4	Abril	2023-04-23T00:00:00	2024-11-08T09:00:00	1	Precipitación	0
32772	7	Sololá	710	Panajachel	8	Panajachel	4	Abril	2023-04-23T00:00:00	2024-11-08T09:00:00	8	Radiación solar	479
32773	7	Sololá	710	Panajachel	8	Panajachel	4	Abril	2023-04-23T00:00:00	2024-11-08T10:00:00	2	Temperatura media	21.6
32774	7	Sololá	710	Panajachel	8	Panajachel	4	Abril	2023-04-23T00:00:00	2024-11-08T10:00:00	4	Temperatura máxima	22.3
32775	7	Sololá	710	Panajachel	8	Panajachel	4	Abril	2023-04-23T00:00:00	2024-11-08T10:00:00	3	Temperatura mínima	21.3
32776	7	Sololá	710	Panajachel	8	Panajachel	4	Abril	2023-04-23T00:00:00	2024-11-08T10:00:00	5	Humedad	74
32777	7	Sololá	710	Panajachel	8	Panajachel	4	Abril	2023-04-23T00:00:00	2024-11-08T10:00:00	6	Velocidad del viento	3.2
32778	7	Sololá	710	Panajachel	8	Panajachel	4	Abril	2023-04-23T00:00:00	2024-11-08T10:00:00	7	Dirección del viento	3.22
32779	7	Sololá	710	Panajachel	8	Panajachel	4	Abril	2023-04-23T00:00:00	2024-11-08T10:00:00	1	Precipitación	0
32780	7	Sololá	710	Panajachel	8	Panajachel	4	Abril	2023-04-23T00:00:00	2024-11-08T10:00:00	8	Radiación solar	710
32781	7	Sololá	710	Panajachel	8	Panajachel	4	Abril	2023-04-23T00:00:00	2024-11-08T11:00:00	2	Temperatura media	22.7
32782	7	Sololá	710	Panajachel	8	Panajachel	4	Abril	2023-04-23T00:00:00	2024-11-08T11:00:00	4	Temperatura máxima	23.7
32783	7	Sololá	710	Panajachel	8	Panajachel	4	Abril	2023-04-23T00:00:00	2024-11-08T11:00:00	3	Temperatura mínima	21.6
32784	7	Sololá	710	Panajachel	8	Panajachel	4	Abril	2023-04-23T00:00:00	2024-11-08T11:00:00	5	Humedad	69
32785	7	Sololá	710	Panajachel	8	Panajachel	4	Abril	2023-04-23T00:00:00	2024-11-08T11:00:00	6	Velocidad del viento	3.2
32786	7	Sololá	710	Panajachel	8	Panajachel	4	Abril	2023-04-23T00:00:00	2024-11-08T11:00:00	7	Dirección del viento	3.22
32787	7	Sololá	710	Panajachel	8	Panajachel	4	Abril	2023-04-23T00:00:00	2024-11-08T11:00:00	1	Precipitación	0
32788	7	Sololá	710	Panajachel	8	Panajachel	4	Abril	2023-04-23T00:00:00	2024-11-08T11:00:00	8	Radiación solar	817
32789	7	Sololá	710	Panajachel	8	Panajachel	4	Abril	2023-04-23T00:00:00	2024-11-08T12:00:00	2	Temperatura media	23.4
32790	7	Sololá	710	Panajachel	8	Panajachel	4	Abril	2023-04-23T00:00:00	2024-11-08T12:00:00	4	Temperatura máxima	23.8
32791	7	Sololá	710	Panajachel	8	Panajachel	4	Abril	2023-04-23T00:00:00	2024-11-08T12:00:00	3	Temperatura mínima	22.7
32792	7	Sololá	710	Panajachel	8	Panajachel	4	Abril	2023-04-23T00:00:00	2024-11-08T12:00:00	5	Humedad	73
32793	7	Sololá	710	Panajachel	8	Panajachel	4	Abril	2023-04-23T00:00:00	2024-11-08T12:00:00	6	Velocidad del viento	3.2
32794	7	Sololá	710	Panajachel	8	Panajachel	4	Abril	2023-04-23T00:00:00	2024-11-08T12:00:00	7	Dirección del viento	3.22
32795	7	Sololá	710	Panajachel	8	Panajachel	4	Abril	2023-04-23T00:00:00	2024-11-08T12:00:00	1	Precipitación	0
32796	7	Sololá	710	Panajachel	8	Panajachel	4	Abril	2023-04-23T00:00:00	2024-11-08T12:00:00	8	Radiación solar	877
32797	7	Sololá	710	Panajachel	8	Panajachel	4	Abril	2023-04-23T00:00:00	2024-11-08T13:00:00	2	Temperatura media	24.4
32798	7	Sololá	710	Panajachel	8	Panajachel	4	Abril	2023-04-23T00:00:00	2024-11-08T13:00:00	4	Temperatura máxima	25.3
32799	7	Sololá	710	Panajachel	8	Panajachel	4	Abril	2023-04-23T00:00:00	2024-11-08T13:00:00	3	Temperatura mínima	23.3
32800	7	Sololá	710	Panajachel	8	Panajachel	4	Abril	2023-04-23T00:00:00	2024-11-08T13:00:00	5	Humedad	77
32801	7	Sololá	710	Panajachel	8	Panajachel	4	Abril	2023-04-23T00:00:00	2024-11-08T13:00:00	6	Velocidad del viento	4.8
32802	7	Sololá	710	Panajachel	8	Panajachel	4	Abril	2023-04-23T00:00:00	2024-11-08T13:00:00	7	Dirección del viento	4.83
32803	7	Sololá	710	Panajachel	8	Panajachel	4	Abril	2023-04-23T00:00:00	2024-11-08T13:00:00	1	Precipitación	0
32804	7	Sololá	710	Panajachel	8	Panajachel	4	Abril	2023-04-23T00:00:00	2024-11-08T13:00:00	8	Radiación solar	849
32805	7	Sololá	710	Panajachel	8	Panajachel	4	Abril	2023-04-23T00:00:00	2024-11-08T14:00:00	2	Temperatura media	22.3
32806	7	Sololá	710	Panajachel	8	Panajachel	4	Abril	2023-04-23T00:00:00	2024-11-08T14:00:00	4	Temperatura máxima	24.4
32807	7	Sololá	710	Panajachel	8	Panajachel	4	Abril	2023-04-23T00:00:00	2024-11-08T14:00:00	3	Temperatura mínima	22.3
32808	7	Sololá	710	Panajachel	8	Panajachel	4	Abril	2023-04-23T00:00:00	2024-11-08T14:00:00	5	Humedad	82
32809	7	Sololá	710	Panajachel	8	Panajachel	4	Abril	2023-04-23T00:00:00	2024-11-08T14:00:00	6	Velocidad del viento	6.4
32810	7	Sololá	710	Panajachel	8	Panajachel	4	Abril	2023-04-23T00:00:00	2024-11-08T14:00:00	7	Dirección del viento	6.44
32811	7	Sololá	710	Panajachel	8	Panajachel	4	Abril	2023-04-23T00:00:00	2024-11-08T14:00:00	1	Precipitación	0
32812	7	Sololá	710	Panajachel	8	Panajachel	4	Abril	2023-04-23T00:00:00	2024-11-08T14:00:00	8	Radiación solar	429
32813	7	Sololá	710	Panajachel	8	Panajachel	4	Abril	2023-04-23T00:00:00	2024-11-08T15:00:00	2	Temperatura media	21.7
32814	7	Sololá	710	Panajachel	8	Panajachel	4	Abril	2023-04-23T00:00:00	2024-11-08T15:00:00	4	Temperatura máxima	22.3
32815	7	Sololá	710	Panajachel	8	Panajachel	4	Abril	2023-04-23T00:00:00	2024-11-08T15:00:00	3	Temperatura mínima	21.7
32816	7	Sololá	710	Panajachel	8	Panajachel	4	Abril	2023-04-23T00:00:00	2024-11-08T15:00:00	5	Humedad	83
32817	7	Sololá	710	Panajachel	8	Panajachel	4	Abril	2023-04-23T00:00:00	2024-11-08T15:00:00	6	Velocidad del viento	6.4
32818	7	Sololá	710	Panajachel	8	Panajachel	4	Abril	2023-04-23T00:00:00	2024-11-08T15:00:00	7	Dirección del viento	6.44
32819	7	Sololá	710	Panajachel	8	Panajachel	4	Abril	2023-04-23T00:00:00	2024-11-08T15:00:00	1	Precipitación	0
32820	7	Sololá	710	Panajachel	8	Panajachel	4	Abril	2023-04-23T00:00:00	2024-11-08T15:00:00	8	Radiación solar	98
32821	7	Sololá	710	Panajachel	8	Panajachel	4	Abril	2023-04-23T00:00:00	2024-11-08T16:00:00	2	Temperatura media	21.1
32822	7	Sololá	710	Panajachel	8	Panajachel	4	Abril	2023-04-23T00:00:00	2024-11-08T16:00:00	4	Temperatura máxima	21.9
32823	7	Sololá	710	Panajachel	8	Panajachel	4	Abril	2023-04-23T00:00:00	2024-11-08T16:00:00	3	Temperatura mínima	21
32824	7	Sololá	710	Panajachel	8	Panajachel	4	Abril	2023-04-23T00:00:00	2024-11-08T16:00:00	5	Humedad	86
32825	7	Sololá	710	Panajachel	8	Panajachel	4	Abril	2023-04-23T00:00:00	2024-11-08T16:00:00	6	Velocidad del viento	8
32826	7	Sololá	710	Panajachel	8	Panajachel	4	Abril	2023-04-23T00:00:00	2024-11-08T16:00:00	7	Dirección del viento	8.05
32827	7	Sololá	710	Panajachel	8	Panajachel	4	Abril	2023-04-23T00:00:00	2024-11-08T16:00:00	1	Precipitación	0
32828	7	Sololá	710	Panajachel	8	Panajachel	4	Abril	2023-04-23T00:00:00	2024-11-08T16:00:00	8	Radiación solar	55
32829	7	Sololá	710	Panajachel	8	Panajachel	4	Abril	2023-04-23T00:00:00	2024-11-08T17:00:00	2	Temperatura media	20.8
32830	7	Sololá	710	Panajachel	8	Panajachel	4	Abril	2023-04-23T00:00:00	2024-11-08T17:00:00	4	Temperatura máxima	21.2
32831	7	Sololá	710	Panajachel	8	Panajachel	4	Abril	2023-04-23T00:00:00	2024-11-08T17:00:00	3	Temperatura mínima	20.6
32832	7	Sololá	710	Panajachel	8	Panajachel	4	Abril	2023-04-23T00:00:00	2024-11-08T17:00:00	5	Humedad	88
32833	7	Sololá	710	Panajachel	8	Panajachel	4	Abril	2023-04-23T00:00:00	2024-11-08T17:00:00	6	Velocidad del viento	4.8
32834	7	Sololá	710	Panajachel	8	Panajachel	4	Abril	2023-04-23T00:00:00	2024-11-08T17:00:00	7	Dirección del viento	4.83
32835	7	Sololá	710	Panajachel	8	Panajachel	4	Abril	2023-04-23T00:00:00	2024-11-08T17:00:00	1	Precipitación	0.2
32836	7	Sololá	710	Panajachel	8	Panajachel	4	Abril	2023-04-23T00:00:00	2024-11-08T17:00:00	8	Radiación solar	65
32837	7	Sololá	710	Panajachel	8	Panajachel	4	Abril	2023-04-23T00:00:00	2024-11-08T18:00:00	2	Temperatura media	19.8
32838	7	Sololá	710	Panajachel	8	Panajachel	4	Abril	2023-04-23T00:00:00	2024-11-08T18:00:00	4	Temperatura máxima	20.8
32839	7	Sololá	710	Panajachel	8	Panajachel	4	Abril	2023-04-23T00:00:00	2024-11-08T18:00:00	3	Temperatura mínima	19.8
32840	7	Sololá	710	Panajachel	8	Panajachel	4	Abril	2023-04-23T00:00:00	2024-11-08T18:00:00	5	Humedad	92
32841	7	Sololá	710	Panajachel	8	Panajachel	4	Abril	2023-04-23T00:00:00	2024-11-08T18:00:00	6	Velocidad del viento	3.2
32842	7	Sololá	710	Panajachel	8	Panajachel	4	Abril	2023-04-23T00:00:00	2024-11-08T18:00:00	7	Dirección del viento	3.22
32843	7	Sololá	710	Panajachel	8	Panajachel	4	Abril	2023-04-23T00:00:00	2024-11-08T18:00:00	1	Precipitación	1.4
32844	7	Sololá	710	Panajachel	8	Panajachel	4	Abril	2023-04-23T00:00:00	2024-11-08T18:00:00	8	Radiación solar	4
32845	7	Sololá	710	Panajachel	8	Panajachel	4	Abril	2023-04-23T00:00:00	2024-11-08T19:00:00	2	Temperatura media	19.2
32846	7	Sololá	710	Panajachel	8	Panajachel	4	Abril	2023-04-23T00:00:00	2024-11-08T19:00:00	4	Temperatura máxima	19.8
32847	7	Sololá	710	Panajachel	8	Panajachel	4	Abril	2023-04-23T00:00:00	2024-11-08T19:00:00	3	Temperatura mínima	19.2
32848	7	Sololá	710	Panajachel	8	Panajachel	4	Abril	2023-04-23T00:00:00	2024-11-08T19:00:00	5	Humedad	94
32849	7	Sololá	710	Panajachel	8	Panajachel	4	Abril	2023-04-23T00:00:00	2024-11-08T19:00:00	6	Velocidad del viento	0
32850	7	Sololá	710	Panajachel	8	Panajachel	4	Abril	2023-04-23T00:00:00	2024-11-08T19:00:00	7	Dirección del viento	0
32851	7	Sololá	710	Panajachel	8	Panajachel	4	Abril	2023-04-23T00:00:00	2024-11-08T19:00:00	1	Precipitación	2.4
32852	7	Sololá	710	Panajachel	8	Panajachel	4	Abril	2023-04-23T00:00:00	2024-11-08T19:00:00	8	Radiación solar	0
32853	7	Sololá	710	Panajachel	8	Panajachel	4	Abril	2023-04-23T00:00:00	2024-11-08T20:00:00	2	Temperatura media	19.1
32854	7	Sololá	710	Panajachel	8	Panajachel	4	Abril	2023-04-23T00:00:00	2024-11-08T20:00:00	4	Temperatura máxima	19.2
32855	7	Sololá	710	Panajachel	8	Panajachel	4	Abril	2023-04-23T00:00:00	2024-11-08T20:00:00	3	Temperatura mínima	18.8
32856	7	Sololá	710	Panajachel	8	Panajachel	4	Abril	2023-04-23T00:00:00	2024-11-08T20:00:00	5	Humedad	94
32857	7	Sololá	710	Panajachel	8	Panajachel	4	Abril	2023-04-23T00:00:00	2024-11-08T20:00:00	6	Velocidad del viento	0
32858	7	Sololá	710	Panajachel	8	Panajachel	4	Abril	2023-04-23T00:00:00	2024-11-08T20:00:00	7	Dirección del viento	0
32859	7	Sololá	710	Panajachel	8	Panajachel	4	Abril	2023-04-23T00:00:00	2024-11-08T20:00:00	1	Precipitación	0
32860	7	Sololá	710	Panajachel	8	Panajachel	4	Abril	2023-04-23T00:00:00	2024-11-08T20:00:00	8	Radiación solar	0
32861	7	Sololá	710	Panajachel	8	Panajachel	4	Abril	2023-04-23T00:00:00	2024-11-08T21:00:00	2	Temperatura media	18.8
32862	7	Sololá	710	Panajachel	8	Panajachel	4	Abril	2023-04-23T00:00:00	2024-11-08T21:00:00	4	Temperatura máxima	19.1
32863	7	Sololá	710	Panajachel	8	Panajachel	4	Abril	2023-04-23T00:00:00	2024-11-08T21:00:00	3	Temperatura mínima	18.7
32864	7	Sololá	710	Panajachel	8	Panajachel	4	Abril	2023-04-23T00:00:00	2024-11-08T21:00:00	5	Humedad	95
32865	7	Sololá	710	Panajachel	8	Panajachel	4	Abril	2023-04-23T00:00:00	2024-11-08T21:00:00	6	Velocidad del viento	0
32866	7	Sololá	710	Panajachel	8	Panajachel	4	Abril	2023-04-23T00:00:00	2024-11-08T21:00:00	7	Dirección del viento	0
32867	7	Sololá	710	Panajachel	8	Panajachel	4	Abril	2023-04-23T00:00:00	2024-11-08T21:00:00	1	Precipitación	0
32868	7	Sololá	710	Panajachel	8	Panajachel	4	Abril	2023-04-23T00:00:00	2024-11-08T21:00:00	8	Radiación solar	0
32869	7	Sololá	710	Panajachel	8	Panajachel	4	Abril	2023-04-23T00:00:00	2024-11-08T22:00:00	2	Temperatura media	19.1
32870	7	Sololá	710	Panajachel	8	Panajachel	4	Abril	2023-04-23T00:00:00	2024-11-08T22:00:00	4	Temperatura máxima	19.1
32871	7	Sololá	710	Panajachel	8	Panajachel	4	Abril	2023-04-23T00:00:00	2024-11-08T22:00:00	3	Temperatura mínima	18.8
32872	7	Sololá	710	Panajachel	8	Panajachel	4	Abril	2023-04-23T00:00:00	2024-11-08T22:00:00	5	Humedad	94
32873	7	Sololá	710	Panajachel	8	Panajachel	4	Abril	2023-04-23T00:00:00	2024-11-08T22:00:00	6	Velocidad del viento	1.6
32874	7	Sololá	710	Panajachel	8	Panajachel	4	Abril	2023-04-23T00:00:00	2024-11-08T22:00:00	7	Dirección del viento	1.61
32875	7	Sololá	710	Panajachel	8	Panajachel	4	Abril	2023-04-23T00:00:00	2024-11-08T22:00:00	1	Precipitación	0
32876	7	Sololá	710	Panajachel	8	Panajachel	4	Abril	2023-04-23T00:00:00	2024-11-08T22:00:00	8	Radiación solar	0
32877	7	Sololá	710	Panajachel	8	Panajachel	4	Abril	2023-04-23T00:00:00	2024-11-08T23:00:00	2	Temperatura media	18.6
32878	7	Sololá	710	Panajachel	8	Panajachel	4	Abril	2023-04-23T00:00:00	2024-11-08T23:00:00	4	Temperatura máxima	19.1
32879	7	Sololá	710	Panajachel	8	Panajachel	4	Abril	2023-04-23T00:00:00	2024-11-08T23:00:00	3	Temperatura mínima	18.6
32880	7	Sololá	710	Panajachel	8	Panajachel	4	Abril	2023-04-23T00:00:00	2024-11-08T23:00:00	5	Humedad	93
32881	7	Sololá	710	Panajachel	8	Panajachel	4	Abril	2023-04-23T00:00:00	2024-11-08T23:00:00	6	Velocidad del viento	0
32882	7	Sololá	710	Panajachel	8	Panajachel	4	Abril	2023-04-23T00:00:00	2024-11-08T23:00:00	7	Dirección del viento	0
32883	7	Sololá	710	Panajachel	8	Panajachel	4	Abril	2023-04-23T00:00:00	2024-11-08T23:00:00	1	Precipitación	0
32884	7	Sololá	710	Panajachel	8	Panajachel	4	Abril	2023-04-23T00:00:00	2024-11-08T23:00:00	8	Radiación solar	0
32885	7	Sololá	710	Panajachel	8	Panajachel	4	Abril	2023-04-24T00:00:00	2024-11-08T00:00:00	2	Temperatura media	18.1
32886	7	Sololá	710	Panajachel	8	Panajachel	4	Abril	2023-04-24T00:00:00	2024-11-08T00:00:00	4	Temperatura máxima	18.6
32887	7	Sololá	710	Panajachel	8	Panajachel	4	Abril	2023-04-24T00:00:00	2024-11-08T00:00:00	3	Temperatura mínima	18.1
32888	7	Sololá	710	Panajachel	8	Panajachel	4	Abril	2023-04-24T00:00:00	2024-11-08T00:00:00	5	Humedad	93
32889	7	Sololá	710	Panajachel	8	Panajachel	4	Abril	2023-04-24T00:00:00	2024-11-08T00:00:00	6	Velocidad del viento	1.6
32890	7	Sololá	710	Panajachel	8	Panajachel	4	Abril	2023-04-24T00:00:00	2024-11-08T00:00:00	7	Dirección del viento	1.61
32891	7	Sololá	710	Panajachel	8	Panajachel	4	Abril	2023-04-24T00:00:00	2024-11-08T00:00:00	1	Precipitación	0
32892	7	Sololá	710	Panajachel	8	Panajachel	4	Abril	2023-04-24T00:00:00	2024-11-08T00:00:00	8	Radiación solar	0
32893	7	Sololá	710	Panajachel	8	Panajachel	4	Abril	2023-04-24T00:00:00	2024-11-08T01:00:00	2	Temperatura media	17.8
32894	7	Sololá	710	Panajachel	8	Panajachel	4	Abril	2023-04-24T00:00:00	2024-11-08T01:00:00	4	Temperatura máxima	18.2
32895	7	Sololá	710	Panajachel	8	Panajachel	4	Abril	2023-04-24T00:00:00	2024-11-08T01:00:00	3	Temperatura mínima	17.8
32896	7	Sololá	710	Panajachel	8	Panajachel	4	Abril	2023-04-24T00:00:00	2024-11-08T01:00:00	5	Humedad	93
32897	7	Sololá	710	Panajachel	8	Panajachel	4	Abril	2023-04-24T00:00:00	2024-11-08T01:00:00	6	Velocidad del viento	1.6
32898	7	Sololá	710	Panajachel	8	Panajachel	4	Abril	2023-04-24T00:00:00	2024-11-08T01:00:00	7	Dirección del viento	1.61
32899	7	Sololá	710	Panajachel	8	Panajachel	4	Abril	2023-04-24T00:00:00	2024-11-08T01:00:00	1	Precipitación	0
32900	7	Sololá	710	Panajachel	8	Panajachel	4	Abril	2023-04-24T00:00:00	2024-11-08T01:00:00	8	Radiación solar	0
32901	7	Sololá	710	Panajachel	8	Panajachel	4	Abril	2023-04-24T00:00:00	2024-11-08T02:00:00	2	Temperatura media	17.4
32902	7	Sololá	710	Panajachel	8	Panajachel	4	Abril	2023-04-24T00:00:00	2024-11-08T02:00:00	4	Temperatura máxima	17.9
32903	7	Sololá	710	Panajachel	8	Panajachel	4	Abril	2023-04-24T00:00:00	2024-11-08T02:00:00	3	Temperatura mínima	17.3
32904	7	Sololá	710	Panajachel	8	Panajachel	4	Abril	2023-04-24T00:00:00	2024-11-08T02:00:00	5	Humedad	92
32905	7	Sololá	710	Panajachel	8	Panajachel	4	Abril	2023-04-24T00:00:00	2024-11-08T02:00:00	6	Velocidad del viento	1.6
32906	7	Sololá	710	Panajachel	8	Panajachel	4	Abril	2023-04-24T00:00:00	2024-11-08T02:00:00	7	Dirección del viento	1.61
32907	7	Sololá	710	Panajachel	8	Panajachel	4	Abril	2023-04-24T00:00:00	2024-11-08T02:00:00	1	Precipitación	0
32908	7	Sololá	710	Panajachel	8	Panajachel	4	Abril	2023-04-24T00:00:00	2024-11-08T02:00:00	8	Radiación solar	0
32909	7	Sololá	710	Panajachel	8	Panajachel	4	Abril	2023-04-24T00:00:00	2024-11-08T03:00:00	2	Temperatura media	17.4
32910	7	Sololá	710	Panajachel	8	Panajachel	4	Abril	2023-04-24T00:00:00	2024-11-08T03:00:00	4	Temperatura máxima	17.4
32911	7	Sololá	710	Panajachel	8	Panajachel	4	Abril	2023-04-24T00:00:00	2024-11-08T03:00:00	3	Temperatura mínima	17.2
32912	7	Sololá	710	Panajachel	8	Panajachel	4	Abril	2023-04-24T00:00:00	2024-11-08T03:00:00	5	Humedad	92
32913	7	Sololá	710	Panajachel	8	Panajachel	4	Abril	2023-04-24T00:00:00	2024-11-08T03:00:00	6	Velocidad del viento	3.2
32914	7	Sololá	710	Panajachel	8	Panajachel	4	Abril	2023-04-24T00:00:00	2024-11-08T03:00:00	7	Dirección del viento	3.22
32915	7	Sololá	710	Panajachel	8	Panajachel	4	Abril	2023-04-24T00:00:00	2024-11-08T03:00:00	1	Precipitación	0
32916	7	Sololá	710	Panajachel	8	Panajachel	4	Abril	2023-04-24T00:00:00	2024-11-08T03:00:00	8	Radiación solar	0
32917	7	Sololá	710	Panajachel	8	Panajachel	4	Abril	2023-04-24T00:00:00	2024-11-08T04:00:00	2	Temperatura media	17.5
32918	7	Sololá	710	Panajachel	8	Panajachel	4	Abril	2023-04-24T00:00:00	2024-11-08T04:00:00	4	Temperatura máxima	17.5
32919	7	Sololá	710	Panajachel	8	Panajachel	4	Abril	2023-04-24T00:00:00	2024-11-08T04:00:00	3	Temperatura mínima	17.3
32920	7	Sololá	710	Panajachel	8	Panajachel	4	Abril	2023-04-24T00:00:00	2024-11-08T04:00:00	5	Humedad	89
32921	7	Sololá	710	Panajachel	8	Panajachel	4	Abril	2023-04-24T00:00:00	2024-11-08T04:00:00	6	Velocidad del viento	1.6
32922	7	Sololá	710	Panajachel	8	Panajachel	4	Abril	2023-04-24T00:00:00	2024-11-08T04:00:00	7	Dirección del viento	1.61
32923	7	Sololá	710	Panajachel	8	Panajachel	4	Abril	2023-04-24T00:00:00	2024-11-08T04:00:00	1	Precipitación	0
32924	7	Sololá	710	Panajachel	8	Panajachel	4	Abril	2023-04-24T00:00:00	2024-11-08T04:00:00	8	Radiación solar	0
32925	7	Sololá	710	Panajachel	8	Panajachel	4	Abril	2023-04-24T00:00:00	2024-11-08T05:00:00	2	Temperatura media	17.4
32926	7	Sololá	710	Panajachel	8	Panajachel	4	Abril	2023-04-24T00:00:00	2024-11-08T05:00:00	4	Temperatura máxima	17.6
32927	7	Sololá	710	Panajachel	8	Panajachel	4	Abril	2023-04-24T00:00:00	2024-11-08T05:00:00	3	Temperatura mínima	17.3
32928	7	Sololá	710	Panajachel	8	Panajachel	4	Abril	2023-04-24T00:00:00	2024-11-08T05:00:00	5	Humedad	87
32929	7	Sololá	710	Panajachel	8	Panajachel	4	Abril	2023-04-24T00:00:00	2024-11-08T05:00:00	6	Velocidad del viento	1.6
32930	7	Sololá	710	Panajachel	8	Panajachel	4	Abril	2023-04-24T00:00:00	2024-11-08T05:00:00	7	Dirección del viento	1.61
32931	7	Sololá	710	Panajachel	8	Panajachel	4	Abril	2023-04-24T00:00:00	2024-11-08T05:00:00	1	Precipitación	0
32932	7	Sololá	710	Panajachel	8	Panajachel	4	Abril	2023-04-24T00:00:00	2024-11-08T05:00:00	8	Radiación solar	0
32933	7	Sololá	710	Panajachel	8	Panajachel	4	Abril	2023-04-24T00:00:00	2024-11-08T06:00:00	2	Temperatura media	17.4
32934	7	Sololá	710	Panajachel	8	Panajachel	4	Abril	2023-04-24T00:00:00	2024-11-08T06:00:00	4	Temperatura máxima	17.4
32935	7	Sololá	710	Panajachel	8	Panajachel	4	Abril	2023-04-24T00:00:00	2024-11-08T06:00:00	3	Temperatura mínima	17.3
32936	7	Sololá	710	Panajachel	8	Panajachel	4	Abril	2023-04-24T00:00:00	2024-11-08T06:00:00	5	Humedad	86
32937	7	Sololá	710	Panajachel	8	Panajachel	4	Abril	2023-04-24T00:00:00	2024-11-08T06:00:00	6	Velocidad del viento	1.6
32938	7	Sololá	710	Panajachel	8	Panajachel	4	Abril	2023-04-24T00:00:00	2024-11-08T06:00:00	7	Dirección del viento	1.61
32939	7	Sololá	710	Panajachel	8	Panajachel	4	Abril	2023-04-24T00:00:00	2024-11-08T06:00:00	1	Precipitación	0
32940	7	Sololá	710	Panajachel	8	Panajachel	4	Abril	2023-04-24T00:00:00	2024-11-08T06:00:00	8	Radiación solar	1
32941	7	Sololá	710	Panajachel	8	Panajachel	4	Abril	2023-04-24T00:00:00	2024-11-08T07:00:00	2	Temperatura media	18.2
32942	7	Sololá	710	Panajachel	8	Panajachel	4	Abril	2023-04-24T00:00:00	2024-11-08T07:00:00	4	Temperatura máxima	18.2
32943	7	Sololá	710	Panajachel	8	Panajachel	4	Abril	2023-04-24T00:00:00	2024-11-08T07:00:00	3	Temperatura mínima	17.4
32944	7	Sololá	710	Panajachel	8	Panajachel	4	Abril	2023-04-24T00:00:00	2024-11-08T07:00:00	5	Humedad	84
32945	7	Sololá	710	Panajachel	8	Panajachel	4	Abril	2023-04-24T00:00:00	2024-11-08T07:00:00	6	Velocidad del viento	0
32946	7	Sololá	710	Panajachel	8	Panajachel	4	Abril	2023-04-24T00:00:00	2024-11-08T07:00:00	7	Dirección del viento	0
32947	7	Sololá	710	Panajachel	8	Panajachel	4	Abril	2023-04-24T00:00:00	2024-11-08T07:00:00	1	Precipitación	0
32948	7	Sololá	710	Panajachel	8	Panajachel	4	Abril	2023-04-24T00:00:00	2024-11-08T07:00:00	8	Radiación solar	67
32949	7	Sololá	710	Panajachel	8	Panajachel	4	Abril	2023-04-24T00:00:00	2024-11-08T08:00:00	2	Temperatura media	20.1
32950	7	Sololá	710	Panajachel	8	Panajachel	4	Abril	2023-04-24T00:00:00	2024-11-08T08:00:00	4	Temperatura máxima	20.2
32951	7	Sololá	710	Panajachel	8	Panajachel	4	Abril	2023-04-24T00:00:00	2024-11-08T08:00:00	3	Temperatura mínima	18.2
32952	7	Sololá	710	Panajachel	8	Panajachel	4	Abril	2023-04-24T00:00:00	2024-11-08T08:00:00	5	Humedad	81
32953	7	Sololá	710	Panajachel	8	Panajachel	4	Abril	2023-04-24T00:00:00	2024-11-08T08:00:00	6	Velocidad del viento	0
32954	7	Sololá	710	Panajachel	8	Panajachel	4	Abril	2023-04-24T00:00:00	2024-11-08T08:00:00	7	Dirección del viento	0
32955	7	Sololá	710	Panajachel	8	Panajachel	4	Abril	2023-04-24T00:00:00	2024-11-08T08:00:00	1	Precipitación	0
32956	7	Sololá	710	Panajachel	8	Panajachel	4	Abril	2023-04-24T00:00:00	2024-11-08T08:00:00	8	Radiación solar	278
32957	7	Sololá	710	Panajachel	8	Panajachel	4	Abril	2023-04-24T00:00:00	2024-11-08T09:00:00	2	Temperatura media	21.1
32958	7	Sololá	710	Panajachel	8	Panajachel	4	Abril	2023-04-24T00:00:00	2024-11-08T09:00:00	4	Temperatura máxima	21.1
32959	7	Sololá	710	Panajachel	8	Panajachel	4	Abril	2023-04-24T00:00:00	2024-11-08T09:00:00	3	Temperatura mínima	20.1
32960	7	Sololá	710	Panajachel	8	Panajachel	4	Abril	2023-04-24T00:00:00	2024-11-08T09:00:00	5	Humedad	81
32961	7	Sololá	710	Panajachel	8	Panajachel	4	Abril	2023-04-24T00:00:00	2024-11-08T09:00:00	6	Velocidad del viento	1.6
32962	7	Sololá	710	Panajachel	8	Panajachel	4	Abril	2023-04-24T00:00:00	2024-11-08T09:00:00	7	Dirección del viento	1.61
32963	7	Sololá	710	Panajachel	8	Panajachel	4	Abril	2023-04-24T00:00:00	2024-11-08T09:00:00	1	Precipitación	0
32964	7	Sololá	710	Panajachel	8	Panajachel	4	Abril	2023-04-24T00:00:00	2024-11-08T09:00:00	8	Radiación solar	470
32965	7	Sololá	710	Panajachel	8	Panajachel	4	Abril	2023-04-24T00:00:00	2024-11-08T10:00:00	2	Temperatura media	21.7
32966	7	Sololá	710	Panajachel	8	Panajachel	4	Abril	2023-04-24T00:00:00	2024-11-08T10:00:00	4	Temperatura máxima	21.7
32967	7	Sololá	710	Panajachel	8	Panajachel	4	Abril	2023-04-24T00:00:00	2024-11-08T10:00:00	3	Temperatura mínima	20.8
32968	7	Sololá	710	Panajachel	8	Panajachel	4	Abril	2023-04-24T00:00:00	2024-11-08T10:00:00	5	Humedad	78
32969	7	Sololá	710	Panajachel	8	Panajachel	4	Abril	2023-04-24T00:00:00	2024-11-08T10:00:00	6	Velocidad del viento	3.2
32970	7	Sololá	710	Panajachel	8	Panajachel	4	Abril	2023-04-24T00:00:00	2024-11-08T10:00:00	7	Dirección del viento	3.22
32971	7	Sololá	710	Panajachel	8	Panajachel	4	Abril	2023-04-24T00:00:00	2024-11-08T10:00:00	1	Precipitación	0
32972	7	Sololá	710	Panajachel	8	Panajachel	4	Abril	2023-04-24T00:00:00	2024-11-08T10:00:00	8	Radiación solar	614
32973	7	Sololá	710	Panajachel	8	Panajachel	4	Abril	2023-04-24T00:00:00	2024-11-08T11:00:00	2	Temperatura media	21.7
32974	7	Sololá	710	Panajachel	8	Panajachel	4	Abril	2023-04-24T00:00:00	2024-11-08T11:00:00	4	Temperatura máxima	21.9
32975	7	Sololá	710	Panajachel	8	Panajachel	4	Abril	2023-04-24T00:00:00	2024-11-08T11:00:00	3	Temperatura mínima	21.4
32976	7	Sololá	710	Panajachel	8	Panajachel	4	Abril	2023-04-24T00:00:00	2024-11-08T11:00:00	5	Humedad	78
32977	7	Sololá	710	Panajachel	8	Panajachel	4	Abril	2023-04-24T00:00:00	2024-11-08T11:00:00	6	Velocidad del viento	3.2
32978	7	Sololá	710	Panajachel	8	Panajachel	4	Abril	2023-04-24T00:00:00	2024-11-08T11:00:00	7	Dirección del viento	3.22
32979	7	Sololá	710	Panajachel	8	Panajachel	4	Abril	2023-04-24T00:00:00	2024-11-08T11:00:00	1	Precipitación	0
32980	7	Sololá	710	Panajachel	8	Panajachel	4	Abril	2023-04-24T00:00:00	2024-11-08T11:00:00	8	Radiación solar	630
32981	7	Sololá	710	Panajachel	8	Panajachel	4	Abril	2023-04-24T00:00:00	2024-11-08T12:00:00	2	Temperatura media	23.4
32982	7	Sololá	710	Panajachel	8	Panajachel	4	Abril	2023-04-24T00:00:00	2024-11-08T12:00:00	4	Temperatura máxima	23.4
32983	7	Sololá	710	Panajachel	8	Panajachel	4	Abril	2023-04-24T00:00:00	2024-11-08T12:00:00	3	Temperatura mínima	21.6
32984	7	Sololá	710	Panajachel	8	Panajachel	4	Abril	2023-04-24T00:00:00	2024-11-08T12:00:00	5	Humedad	74
32985	7	Sololá	710	Panajachel	8	Panajachel	4	Abril	2023-04-24T00:00:00	2024-11-08T12:00:00	6	Velocidad del viento	4.8
32986	7	Sololá	710	Panajachel	8	Panajachel	4	Abril	2023-04-24T00:00:00	2024-11-08T12:00:00	7	Dirección del viento	4.83
32987	7	Sololá	710	Panajachel	8	Panajachel	4	Abril	2023-04-24T00:00:00	2024-11-08T12:00:00	1	Precipitación	0
32988	7	Sololá	710	Panajachel	8	Panajachel	4	Abril	2023-04-24T00:00:00	2024-11-08T12:00:00	8	Radiación solar	895
32989	7	Sololá	710	Panajachel	8	Panajachel	4	Abril	2023-04-24T00:00:00	2024-11-08T13:00:00	2	Temperatura media	23.7
32990	7	Sololá	710	Panajachel	8	Panajachel	4	Abril	2023-04-24T00:00:00	2024-11-08T13:00:00	4	Temperatura máxima	23.7
32991	7	Sololá	710	Panajachel	8	Panajachel	4	Abril	2023-04-24T00:00:00	2024-11-08T13:00:00	3	Temperatura mínima	23.1
32992	7	Sololá	710	Panajachel	8	Panajachel	4	Abril	2023-04-24T00:00:00	2024-11-08T13:00:00	5	Humedad	75
32993	7	Sololá	710	Panajachel	8	Panajachel	4	Abril	2023-04-24T00:00:00	2024-11-08T13:00:00	6	Velocidad del viento	3.2
32994	7	Sololá	710	Panajachel	8	Panajachel	4	Abril	2023-04-24T00:00:00	2024-11-08T13:00:00	7	Dirección del viento	3.22
32995	7	Sololá	710	Panajachel	8	Panajachel	4	Abril	2023-04-24T00:00:00	2024-11-08T13:00:00	1	Precipitación	0
32996	7	Sololá	710	Panajachel	8	Panajachel	4	Abril	2023-04-24T00:00:00	2024-11-08T13:00:00	8	Radiación solar	798
32997	7	Sololá	710	Panajachel	8	Panajachel	4	Abril	2023-04-24T00:00:00	2024-11-08T14:00:00	2	Temperatura media	22.2
32998	7	Sololá	710	Panajachel	8	Panajachel	4	Abril	2023-04-24T00:00:00	2024-11-08T14:00:00	4	Temperatura máxima	23.7
32999	7	Sololá	710	Panajachel	8	Panajachel	4	Abril	2023-04-24T00:00:00	2024-11-08T14:00:00	3	Temperatura mínima	22.2
33000	7	Sololá	710	Panajachel	8	Panajachel	4	Abril	2023-04-24T00:00:00	2024-11-08T14:00:00	5	Humedad	84
33001	7	Sololá	710	Panajachel	8	Panajachel	4	Abril	2023-04-24T00:00:00	2024-11-08T14:00:00	6	Velocidad del viento	6.4
33002	7	Sololá	710	Panajachel	8	Panajachel	4	Abril	2023-04-24T00:00:00	2024-11-08T14:00:00	7	Dirección del viento	6.44
33003	7	Sololá	710	Panajachel	8	Panajachel	4	Abril	2023-04-24T00:00:00	2024-11-08T14:00:00	1	Precipitación	0
33004	7	Sololá	710	Panajachel	8	Panajachel	4	Abril	2023-04-24T00:00:00	2024-11-08T14:00:00	8	Radiación solar	303
33005	7	Sololá	710	Panajachel	8	Panajachel	4	Abril	2023-04-24T00:00:00	2024-11-08T15:00:00	2	Temperatura media	20.3
33006	7	Sololá	710	Panajachel	8	Panajachel	4	Abril	2023-04-24T00:00:00	2024-11-08T15:00:00	4	Temperatura máxima	22.2
33007	7	Sololá	710	Panajachel	8	Panajachel	4	Abril	2023-04-24T00:00:00	2024-11-08T15:00:00	3	Temperatura mínima	20.3
33008	7	Sololá	710	Panajachel	8	Panajachel	4	Abril	2023-04-24T00:00:00	2024-11-08T15:00:00	5	Humedad	86
33009	7	Sololá	710	Panajachel	8	Panajachel	4	Abril	2023-04-24T00:00:00	2024-11-08T15:00:00	6	Velocidad del viento	6.4
33010	7	Sololá	710	Panajachel	8	Panajachel	4	Abril	2023-04-24T00:00:00	2024-11-08T15:00:00	7	Dirección del viento	6.44
33011	7	Sololá	710	Panajachel	8	Panajachel	4	Abril	2023-04-24T00:00:00	2024-11-08T15:00:00	1	Precipitación	0
33012	7	Sololá	710	Panajachel	8	Panajachel	4	Abril	2023-04-24T00:00:00	2024-11-08T15:00:00	8	Radiación solar	61
33013	7	Sololá	710	Panajachel	8	Panajachel	4	Abril	2023-04-24T00:00:00	2024-11-08T16:00:00	2	Temperatura media	19.5
33014	7	Sololá	710	Panajachel	8	Panajachel	4	Abril	2023-04-24T00:00:00	2024-11-08T16:00:00	4	Temperatura máxima	20.3
33015	7	Sololá	710	Panajachel	8	Panajachel	4	Abril	2023-04-24T00:00:00	2024-11-08T16:00:00	3	Temperatura mínima	19.5
33016	7	Sololá	710	Panajachel	8	Panajachel	4	Abril	2023-04-24T00:00:00	2024-11-08T16:00:00	5	Humedad	89
33017	7	Sololá	710	Panajachel	8	Panajachel	4	Abril	2023-04-24T00:00:00	2024-11-08T16:00:00	6	Velocidad del viento	3.2
33018	7	Sololá	710	Panajachel	8	Panajachel	4	Abril	2023-04-24T00:00:00	2024-11-08T16:00:00	7	Dirección del viento	3.22
33019	7	Sololá	710	Panajachel	8	Panajachel	4	Abril	2023-04-24T00:00:00	2024-11-08T16:00:00	1	Precipitación	0.2
33020	7	Sololá	710	Panajachel	8	Panajachel	4	Abril	2023-04-24T00:00:00	2024-11-08T16:00:00	8	Radiación solar	9
33021	7	Sololá	710	Panajachel	8	Panajachel	4	Abril	2023-04-24T00:00:00	2024-11-08T17:00:00	2	Temperatura media	17.2
33022	7	Sololá	710	Panajachel	8	Panajachel	4	Abril	2023-04-24T00:00:00	2024-11-08T17:00:00	4	Temperatura máxima	19.5
33023	7	Sololá	710	Panajachel	8	Panajachel	4	Abril	2023-04-24T00:00:00	2024-11-08T17:00:00	3	Temperatura mínima	17.2
33024	7	Sololá	710	Panajachel	8	Panajachel	4	Abril	2023-04-24T00:00:00	2024-11-08T17:00:00	5	Humedad	94
33025	7	Sololá	710	Panajachel	8	Panajachel	4	Abril	2023-04-24T00:00:00	2024-11-08T17:00:00	6	Velocidad del viento	3.2
33026	7	Sololá	710	Panajachel	8	Panajachel	4	Abril	2023-04-24T00:00:00	2024-11-08T17:00:00	7	Dirección del viento	3.22
33027	7	Sololá	710	Panajachel	8	Panajachel	4	Abril	2023-04-24T00:00:00	2024-11-08T17:00:00	1	Precipitación	4.6
33028	7	Sololá	710	Panajachel	8	Panajachel	4	Abril	2023-04-24T00:00:00	2024-11-08T17:00:00	8	Radiación solar	17
33029	7	Sololá	710	Panajachel	8	Panajachel	4	Abril	2023-04-24T00:00:00	2024-11-08T18:00:00	2	Temperatura media	17.5
33030	7	Sololá	710	Panajachel	8	Panajachel	4	Abril	2023-04-24T00:00:00	2024-11-08T18:00:00	4	Temperatura máxima	17.6
33031	7	Sololá	710	Panajachel	8	Panajachel	4	Abril	2023-04-24T00:00:00	2024-11-08T18:00:00	3	Temperatura mínima	17.1
33032	7	Sololá	710	Panajachel	8	Panajachel	4	Abril	2023-04-24T00:00:00	2024-11-08T18:00:00	5	Humedad	93
33033	7	Sololá	710	Panajachel	8	Panajachel	4	Abril	2023-04-24T00:00:00	2024-11-08T18:00:00	6	Velocidad del viento	3.2
33034	7	Sololá	710	Panajachel	8	Panajachel	4	Abril	2023-04-24T00:00:00	2024-11-08T18:00:00	7	Dirección del viento	3.22
33035	7	Sololá	710	Panajachel	8	Panajachel	4	Abril	2023-04-24T00:00:00	2024-11-08T18:00:00	1	Precipitación	0.4
33036	7	Sololá	710	Panajachel	8	Panajachel	4	Abril	2023-04-24T00:00:00	2024-11-08T18:00:00	8	Radiación solar	17
33037	7	Sololá	710	Panajachel	8	Panajachel	4	Abril	2023-04-24T00:00:00	2024-11-08T19:00:00	2	Temperatura media	17.3
33038	7	Sololá	710	Panajachel	8	Panajachel	4	Abril	2023-04-24T00:00:00	2024-11-08T19:00:00	4	Temperatura máxima	17.6
33039	7	Sololá	710	Panajachel	8	Panajachel	4	Abril	2023-04-24T00:00:00	2024-11-08T19:00:00	3	Temperatura mínima	17.2
33040	7	Sololá	710	Panajachel	8	Panajachel	4	Abril	2023-04-24T00:00:00	2024-11-08T19:00:00	5	Humedad	94
33041	7	Sololá	710	Panajachel	8	Panajachel	4	Abril	2023-04-24T00:00:00	2024-11-08T19:00:00	6	Velocidad del viento	0
33042	7	Sololá	710	Panajachel	8	Panajachel	4	Abril	2023-04-24T00:00:00	2024-11-08T19:00:00	7	Dirección del viento	0
33043	7	Sololá	710	Panajachel	8	Panajachel	4	Abril	2023-04-24T00:00:00	2024-11-08T19:00:00	1	Precipitación	0
33044	7	Sololá	710	Panajachel	8	Panajachel	4	Abril	2023-04-24T00:00:00	2024-11-08T19:00:00	8	Radiación solar	0
33045	7	Sololá	710	Panajachel	8	Panajachel	4	Abril	2023-04-24T00:00:00	2024-11-08T20:00:00	2	Temperatura media	17.2
33046	7	Sololá	710	Panajachel	8	Panajachel	4	Abril	2023-04-24T00:00:00	2024-11-08T20:00:00	4	Temperatura máxima	17.3
33047	7	Sololá	710	Panajachel	8	Panajachel	4	Abril	2023-04-24T00:00:00	2024-11-08T20:00:00	3	Temperatura mínima	17
33048	7	Sololá	710	Panajachel	8	Panajachel	4	Abril	2023-04-24T00:00:00	2024-11-08T20:00:00	5	Humedad	92
33049	7	Sololá	710	Panajachel	8	Panajachel	4	Abril	2023-04-24T00:00:00	2024-11-08T20:00:00	6	Velocidad del viento	1.6
33050	7	Sololá	710	Panajachel	8	Panajachel	4	Abril	2023-04-24T00:00:00	2024-11-08T20:00:00	7	Dirección del viento	1.61
33051	7	Sololá	710	Panajachel	8	Panajachel	4	Abril	2023-04-24T00:00:00	2024-11-08T20:00:00	1	Precipitación	0
33052	7	Sololá	710	Panajachel	8	Panajachel	4	Abril	2023-04-24T00:00:00	2024-11-08T20:00:00	8	Radiación solar	0
33053	7	Sololá	710	Panajachel	8	Panajachel	4	Abril	2023-04-24T00:00:00	2024-11-08T21:00:00	2	Temperatura media	16.7
33054	7	Sololá	710	Panajachel	8	Panajachel	4	Abril	2023-04-24T00:00:00	2024-11-08T21:00:00	4	Temperatura máxima	17.3
33055	7	Sololá	710	Panajachel	8	Panajachel	4	Abril	2023-04-24T00:00:00	2024-11-08T21:00:00	3	Temperatura mínima	16.7
33056	7	Sololá	710	Panajachel	8	Panajachel	4	Abril	2023-04-24T00:00:00	2024-11-08T21:00:00	5	Humedad	93
33057	7	Sololá	710	Panajachel	8	Panajachel	4	Abril	2023-04-24T00:00:00	2024-11-08T21:00:00	6	Velocidad del viento	1.6
33058	7	Sololá	710	Panajachel	8	Panajachel	4	Abril	2023-04-24T00:00:00	2024-11-08T21:00:00	7	Dirección del viento	1.61
33059	7	Sololá	710	Panajachel	8	Panajachel	4	Abril	2023-04-24T00:00:00	2024-11-08T21:00:00	1	Precipitación	0
33060	7	Sololá	710	Panajachel	8	Panajachel	4	Abril	2023-04-24T00:00:00	2024-11-08T21:00:00	8	Radiación solar	0
33061	7	Sololá	710	Panajachel	8	Panajachel	4	Abril	2023-04-24T00:00:00	2024-11-08T22:00:00	2	Temperatura media	16.8
33062	7	Sololá	710	Panajachel	8	Panajachel	4	Abril	2023-04-24T00:00:00	2024-11-08T22:00:00	4	Temperatura máxima	16.8
33063	7	Sololá	710	Panajachel	8	Panajachel	4	Abril	2023-04-24T00:00:00	2024-11-08T22:00:00	3	Temperatura mínima	16.6
33064	7	Sololá	710	Panajachel	8	Panajachel	4	Abril	2023-04-24T00:00:00	2024-11-08T22:00:00	5	Humedad	94
33065	7	Sololá	710	Panajachel	8	Panajachel	4	Abril	2023-04-24T00:00:00	2024-11-08T22:00:00	6	Velocidad del viento	3.2
33066	7	Sololá	710	Panajachel	8	Panajachel	4	Abril	2023-04-24T00:00:00	2024-11-08T22:00:00	7	Dirección del viento	3.22
33067	7	Sololá	710	Panajachel	8	Panajachel	4	Abril	2023-04-24T00:00:00	2024-11-08T22:00:00	1	Precipitación	0
33068	7	Sololá	710	Panajachel	8	Panajachel	4	Abril	2023-04-24T00:00:00	2024-11-08T22:00:00	8	Radiación solar	0
33069	7	Sololá	710	Panajachel	8	Panajachel	4	Abril	2023-04-24T00:00:00	2024-11-08T23:00:00	2	Temperatura media	16.8
33070	7	Sololá	710	Panajachel	8	Panajachel	4	Abril	2023-04-24T00:00:00	2024-11-08T23:00:00	4	Temperatura máxima	17.2
33071	7	Sololá	710	Panajachel	8	Panajachel	4	Abril	2023-04-24T00:00:00	2024-11-08T23:00:00	3	Temperatura mínima	16.7
33072	7	Sololá	710	Panajachel	8	Panajachel	4	Abril	2023-04-24T00:00:00	2024-11-08T23:00:00	5	Humedad	92
33073	7	Sololá	710	Panajachel	8	Panajachel	4	Abril	2023-04-24T00:00:00	2024-11-08T23:00:00	6	Velocidad del viento	1.6
33074	7	Sololá	710	Panajachel	8	Panajachel	4	Abril	2023-04-24T00:00:00	2024-11-08T23:00:00	7	Dirección del viento	1.61
33075	7	Sololá	710	Panajachel	8	Panajachel	4	Abril	2023-04-24T00:00:00	2024-11-08T23:00:00	1	Precipitación	0
33076	7	Sololá	710	Panajachel	8	Panajachel	4	Abril	2023-04-24T00:00:00	2024-11-08T23:00:00	8	Radiación solar	0
33077	7	Sololá	710	Panajachel	8	Panajachel	4	Abril	2023-04-25T00:00:00	2024-11-08T00:00:00	2	Temperatura media	16.4
33078	7	Sololá	710	Panajachel	8	Panajachel	4	Abril	2023-04-25T00:00:00	2024-11-08T00:00:00	4	Temperatura máxima	16.9
33079	7	Sololá	710	Panajachel	8	Panajachel	4	Abril	2023-04-25T00:00:00	2024-11-08T00:00:00	3	Temperatura mínima	16.4
33080	7	Sololá	710	Panajachel	8	Panajachel	4	Abril	2023-04-25T00:00:00	2024-11-08T00:00:00	5	Humedad	93
33081	7	Sololá	710	Panajachel	8	Panajachel	4	Abril	2023-04-25T00:00:00	2024-11-08T00:00:00	6	Velocidad del viento	3.2
33082	7	Sololá	710	Panajachel	8	Panajachel	4	Abril	2023-04-25T00:00:00	2024-11-08T00:00:00	7	Dirección del viento	3.22
33083	7	Sololá	710	Panajachel	8	Panajachel	4	Abril	2023-04-25T00:00:00	2024-11-08T00:00:00	1	Precipitación	0
33084	7	Sololá	710	Panajachel	8	Panajachel	4	Abril	2023-04-25T00:00:00	2024-11-08T00:00:00	8	Radiación solar	0
33085	7	Sololá	710	Panajachel	8	Panajachel	4	Abril	2023-04-25T00:00:00	2024-11-08T01:00:00	2	Temperatura media	16.2
33086	7	Sololá	710	Panajachel	8	Panajachel	4	Abril	2023-04-25T00:00:00	2024-11-08T01:00:00	4	Temperatura máxima	16.6
33087	7	Sololá	710	Panajachel	8	Panajachel	4	Abril	2023-04-25T00:00:00	2024-11-08T01:00:00	3	Temperatura mínima	16.2
33088	7	Sololá	710	Panajachel	8	Panajachel	4	Abril	2023-04-25T00:00:00	2024-11-08T01:00:00	5	Humedad	91
33089	7	Sololá	710	Panajachel	8	Panajachel	4	Abril	2023-04-25T00:00:00	2024-11-08T01:00:00	6	Velocidad del viento	3.2
33090	7	Sololá	710	Panajachel	8	Panajachel	4	Abril	2023-04-25T00:00:00	2024-11-08T01:00:00	7	Dirección del viento	3.22
33091	7	Sololá	710	Panajachel	8	Panajachel	4	Abril	2023-04-25T00:00:00	2024-11-08T01:00:00	1	Precipitación	0
33092	7	Sololá	710	Panajachel	8	Panajachel	4	Abril	2023-04-25T00:00:00	2024-11-08T01:00:00	8	Radiación solar	0
33093	7	Sololá	710	Panajachel	8	Panajachel	4	Abril	2023-04-25T00:00:00	2024-11-08T02:00:00	2	Temperatura media	16.1
33094	7	Sololá	710	Panajachel	8	Panajachel	4	Abril	2023-04-25T00:00:00	2024-11-08T02:00:00	4	Temperatura máxima	16.3
33095	7	Sololá	710	Panajachel	8	Panajachel	4	Abril	2023-04-25T00:00:00	2024-11-08T02:00:00	3	Temperatura mínima	16
33096	7	Sololá	710	Panajachel	8	Panajachel	4	Abril	2023-04-25T00:00:00	2024-11-08T02:00:00	5	Humedad	89
33097	7	Sololá	710	Panajachel	8	Panajachel	4	Abril	2023-04-25T00:00:00	2024-11-08T02:00:00	6	Velocidad del viento	1.6
33098	7	Sololá	710	Panajachel	8	Panajachel	4	Abril	2023-04-25T00:00:00	2024-11-08T02:00:00	7	Dirección del viento	1.61
33099	7	Sololá	710	Panajachel	8	Panajachel	4	Abril	2023-04-25T00:00:00	2024-11-08T02:00:00	1	Precipitación	0
33100	7	Sololá	710	Panajachel	8	Panajachel	4	Abril	2023-04-25T00:00:00	2024-11-08T02:00:00	8	Radiación solar	0
33101	7	Sololá	710	Panajachel	8	Panajachel	4	Abril	2023-04-25T00:00:00	2024-11-08T03:00:00	2	Temperatura media	16.1
33102	7	Sololá	710	Panajachel	8	Panajachel	4	Abril	2023-04-25T00:00:00	2024-11-08T03:00:00	4	Temperatura máxima	16.2
33103	7	Sololá	710	Panajachel	8	Panajachel	4	Abril	2023-04-25T00:00:00	2024-11-08T03:00:00	3	Temperatura mínima	15.9
33104	7	Sololá	710	Panajachel	8	Panajachel	4	Abril	2023-04-25T00:00:00	2024-11-08T03:00:00	5	Humedad	87
33105	7	Sololá	710	Panajachel	8	Panajachel	4	Abril	2023-04-25T00:00:00	2024-11-08T03:00:00	6	Velocidad del viento	3.2
33106	7	Sololá	710	Panajachel	8	Panajachel	4	Abril	2023-04-25T00:00:00	2024-11-08T03:00:00	7	Dirección del viento	3.22
33107	7	Sololá	710	Panajachel	8	Panajachel	4	Abril	2023-04-25T00:00:00	2024-11-08T03:00:00	1	Precipitación	0
33108	7	Sololá	710	Panajachel	8	Panajachel	4	Abril	2023-04-25T00:00:00	2024-11-08T03:00:00	8	Radiación solar	0
33109	7	Sololá	710	Panajachel	8	Panajachel	4	Abril	2023-04-25T00:00:00	2024-11-08T04:00:00	2	Temperatura media	15.7
33110	7	Sololá	710	Panajachel	8	Panajachel	4	Abril	2023-04-25T00:00:00	2024-11-08T04:00:00	4	Temperatura máxima	16.3
33111	7	Sololá	710	Panajachel	8	Panajachel	4	Abril	2023-04-25T00:00:00	2024-11-08T04:00:00	3	Temperatura mínima	15.6
33112	7	Sololá	710	Panajachel	8	Panajachel	4	Abril	2023-04-25T00:00:00	2024-11-08T04:00:00	5	Humedad	87
33113	7	Sololá	710	Panajachel	8	Panajachel	4	Abril	2023-04-25T00:00:00	2024-11-08T04:00:00	6	Velocidad del viento	1.6
33114	7	Sololá	710	Panajachel	8	Panajachel	4	Abril	2023-04-25T00:00:00	2024-11-08T04:00:00	7	Dirección del viento	1.61
33115	7	Sololá	710	Panajachel	8	Panajachel	4	Abril	2023-04-25T00:00:00	2024-11-08T04:00:00	1	Precipitación	0
33116	7	Sololá	710	Panajachel	8	Panajachel	4	Abril	2023-04-25T00:00:00	2024-11-08T04:00:00	8	Radiación solar	0
33117	7	Sololá	710	Panajachel	8	Panajachel	4	Abril	2023-04-25T00:00:00	2024-11-08T05:00:00	2	Temperatura media	15.6
33118	7	Sololá	710	Panajachel	8	Panajachel	4	Abril	2023-04-25T00:00:00	2024-11-08T05:00:00	4	Temperatura máxima	15.9
33119	7	Sololá	710	Panajachel	8	Panajachel	4	Abril	2023-04-25T00:00:00	2024-11-08T05:00:00	3	Temperatura mínima	15.4
33120	7	Sololá	710	Panajachel	8	Panajachel	4	Abril	2023-04-25T00:00:00	2024-11-08T05:00:00	5	Humedad	87
33121	7	Sololá	710	Panajachel	8	Panajachel	4	Abril	2023-04-25T00:00:00	2024-11-08T05:00:00	6	Velocidad del viento	3.2
33122	7	Sololá	710	Panajachel	8	Panajachel	4	Abril	2023-04-25T00:00:00	2024-11-08T05:00:00	7	Dirección del viento	3.22
33123	7	Sololá	710	Panajachel	8	Panajachel	4	Abril	2023-04-25T00:00:00	2024-11-08T05:00:00	1	Precipitación	0
33124	7	Sololá	710	Panajachel	8	Panajachel	4	Abril	2023-04-25T00:00:00	2024-11-08T05:00:00	8	Radiación solar	0
33125	7	Sololá	710	Panajachel	8	Panajachel	4	Abril	2023-04-25T00:00:00	2024-11-08T06:00:00	2	Temperatura media	15.8
33126	7	Sololá	710	Panajachel	8	Panajachel	4	Abril	2023-04-25T00:00:00	2024-11-08T06:00:00	4	Temperatura máxima	15.8
33127	7	Sololá	710	Panajachel	8	Panajachel	4	Abril	2023-04-25T00:00:00	2024-11-08T06:00:00	3	Temperatura mínima	15.1
33128	7	Sololá	710	Panajachel	8	Panajachel	4	Abril	2023-04-25T00:00:00	2024-11-08T06:00:00	5	Humedad	86
33129	7	Sololá	710	Panajachel	8	Panajachel	4	Abril	2023-04-25T00:00:00	2024-11-08T06:00:00	6	Velocidad del viento	1.6
33130	7	Sololá	710	Panajachel	8	Panajachel	4	Abril	2023-04-25T00:00:00	2024-11-08T06:00:00	7	Dirección del viento	1.61
33131	7	Sololá	710	Panajachel	8	Panajachel	4	Abril	2023-04-25T00:00:00	2024-11-08T06:00:00	1	Precipitación	0
33132	7	Sololá	710	Panajachel	8	Panajachel	4	Abril	2023-04-25T00:00:00	2024-11-08T06:00:00	8	Radiación solar	1
33133	7	Sololá	710	Panajachel	8	Panajachel	4	Abril	2023-04-25T00:00:00	2024-11-08T07:00:00	2	Temperatura media	16.9
33134	7	Sololá	710	Panajachel	8	Panajachel	4	Abril	2023-04-25T00:00:00	2024-11-08T07:00:00	4	Temperatura máxima	16.9
33135	7	Sololá	710	Panajachel	8	Panajachel	4	Abril	2023-04-25T00:00:00	2024-11-08T07:00:00	3	Temperatura mínima	15.4
33136	7	Sololá	710	Panajachel	8	Panajachel	4	Abril	2023-04-25T00:00:00	2024-11-08T07:00:00	5	Humedad	84
33137	7	Sololá	710	Panajachel	8	Panajachel	4	Abril	2023-04-25T00:00:00	2024-11-08T07:00:00	6	Velocidad del viento	3.2
33138	7	Sololá	710	Panajachel	8	Panajachel	4	Abril	2023-04-25T00:00:00	2024-11-08T07:00:00	7	Dirección del viento	3.22
33139	7	Sololá	710	Panajachel	8	Panajachel	4	Abril	2023-04-25T00:00:00	2024-11-08T07:00:00	1	Precipitación	0
33140	7	Sololá	710	Panajachel	8	Panajachel	4	Abril	2023-04-25T00:00:00	2024-11-08T07:00:00	8	Radiación solar	74
33141	7	Sololá	710	Panajachel	8	Panajachel	4	Abril	2023-04-25T00:00:00	2024-11-08T08:00:00	2	Temperatura media	19.8
33142	7	Sololá	710	Panajachel	8	Panajachel	4	Abril	2023-04-25T00:00:00	2024-11-08T08:00:00	4	Temperatura máxima	19.8
33143	7	Sololá	710	Panajachel	8	Panajachel	4	Abril	2023-04-25T00:00:00	2024-11-08T08:00:00	3	Temperatura mínima	16.9
33144	7	Sololá	710	Panajachel	8	Panajachel	4	Abril	2023-04-25T00:00:00	2024-11-08T08:00:00	5	Humedad	77
33145	7	Sololá	710	Panajachel	8	Panajachel	4	Abril	2023-04-25T00:00:00	2024-11-08T08:00:00	6	Velocidad del viento	1.6
33146	7	Sololá	710	Panajachel	8	Panajachel	4	Abril	2023-04-25T00:00:00	2024-11-08T08:00:00	7	Dirección del viento	1.61
33147	7	Sololá	710	Panajachel	8	Panajachel	4	Abril	2023-04-25T00:00:00	2024-11-08T08:00:00	1	Precipitación	0
33148	7	Sololá	710	Panajachel	8	Panajachel	4	Abril	2023-04-25T00:00:00	2024-11-08T08:00:00	8	Radiación solar	280
33149	7	Sololá	710	Panajachel	8	Panajachel	4	Abril	2023-04-25T00:00:00	2024-11-08T09:00:00	2	Temperatura media	20.7
33150	7	Sololá	710	Panajachel	8	Panajachel	4	Abril	2023-04-25T00:00:00	2024-11-08T09:00:00	4	Temperatura máxima	20.7
33151	7	Sololá	710	Panajachel	8	Panajachel	4	Abril	2023-04-25T00:00:00	2024-11-08T09:00:00	3	Temperatura mínima	19.8
33152	7	Sololá	710	Panajachel	8	Panajachel	4	Abril	2023-04-25T00:00:00	2024-11-08T09:00:00	5	Humedad	81
33153	7	Sololá	710	Panajachel	8	Panajachel	4	Abril	2023-04-25T00:00:00	2024-11-08T09:00:00	6	Velocidad del viento	1.6
33154	7	Sololá	710	Panajachel	8	Panajachel	4	Abril	2023-04-25T00:00:00	2024-11-08T09:00:00	7	Dirección del viento	1.61
33155	7	Sololá	710	Panajachel	8	Panajachel	4	Abril	2023-04-25T00:00:00	2024-11-08T09:00:00	1	Precipitación	0
33156	7	Sololá	710	Panajachel	8	Panajachel	4	Abril	2023-04-25T00:00:00	2024-11-08T09:00:00	8	Radiación solar	500
33157	7	Sololá	710	Panajachel	8	Panajachel	4	Abril	2023-04-25T00:00:00	2024-11-08T10:00:00	2	Temperatura media	20.9
33158	7	Sololá	710	Panajachel	8	Panajachel	4	Abril	2023-04-25T00:00:00	2024-11-08T10:00:00	4	Temperatura máxima	21.4
33159	7	Sololá	710	Panajachel	8	Panajachel	4	Abril	2023-04-25T00:00:00	2024-11-08T10:00:00	3	Temperatura mínima	20
33160	7	Sololá	710	Panajachel	8	Panajachel	4	Abril	2023-04-25T00:00:00	2024-11-08T10:00:00	5	Humedad	80
33161	7	Sololá	710	Panajachel	8	Panajachel	4	Abril	2023-04-25T00:00:00	2024-11-08T10:00:00	6	Velocidad del viento	3.2
33162	7	Sololá	710	Panajachel	8	Panajachel	4	Abril	2023-04-25T00:00:00	2024-11-08T10:00:00	7	Dirección del viento	3.22
33163	7	Sololá	710	Panajachel	8	Panajachel	4	Abril	2023-04-25T00:00:00	2024-11-08T10:00:00	1	Precipitación	0
33164	7	Sololá	710	Panajachel	8	Panajachel	4	Abril	2023-04-25T00:00:00	2024-11-08T10:00:00	8	Radiación solar	698
33165	7	Sololá	710	Panajachel	8	Panajachel	4	Abril	2023-04-25T00:00:00	2024-11-08T11:00:00	2	Temperatura media	22.9
33166	7	Sololá	710	Panajachel	8	Panajachel	4	Abril	2023-04-25T00:00:00	2024-11-08T11:00:00	4	Temperatura máxima	23.3
33167	7	Sololá	710	Panajachel	8	Panajachel	4	Abril	2023-04-25T00:00:00	2024-11-08T11:00:00	3	Temperatura mínima	20.8
33168	7	Sololá	710	Panajachel	8	Panajachel	4	Abril	2023-04-25T00:00:00	2024-11-08T11:00:00	5	Humedad	67
33169	7	Sololá	710	Panajachel	8	Panajachel	4	Abril	2023-04-25T00:00:00	2024-11-08T11:00:00	6	Velocidad del viento	1.6
33170	7	Sololá	710	Panajachel	8	Panajachel	4	Abril	2023-04-25T00:00:00	2024-11-08T11:00:00	7	Dirección del viento	1.61
33171	7	Sololá	710	Panajachel	8	Panajachel	4	Abril	2023-04-25T00:00:00	2024-11-08T11:00:00	1	Precipitación	0
33172	7	Sololá	710	Panajachel	8	Panajachel	4	Abril	2023-04-25T00:00:00	2024-11-08T11:00:00	8	Radiación solar	844
33173	7	Sololá	710	Panajachel	8	Panajachel	4	Abril	2023-04-25T00:00:00	2024-11-08T12:00:00	2	Temperatura media	23.9
33174	7	Sololá	710	Panajachel	8	Panajachel	4	Abril	2023-04-25T00:00:00	2024-11-08T12:00:00	4	Temperatura máxima	24.3
33175	7	Sololá	710	Panajachel	8	Panajachel	4	Abril	2023-04-25T00:00:00	2024-11-08T12:00:00	3	Temperatura mínima	22.8
33176	7	Sololá	710	Panajachel	8	Panajachel	4	Abril	2023-04-25T00:00:00	2024-11-08T12:00:00	5	Humedad	69
33177	7	Sololá	710	Panajachel	8	Panajachel	4	Abril	2023-04-25T00:00:00	2024-11-08T12:00:00	6	Velocidad del viento	3.2
33178	7	Sololá	710	Panajachel	8	Panajachel	4	Abril	2023-04-25T00:00:00	2024-11-08T12:00:00	7	Dirección del viento	3.22
33179	7	Sololá	710	Panajachel	8	Panajachel	4	Abril	2023-04-25T00:00:00	2024-11-08T12:00:00	1	Precipitación	0
33180	7	Sololá	710	Panajachel	8	Panajachel	4	Abril	2023-04-25T00:00:00	2024-11-08T12:00:00	8	Radiación solar	919
33181	7	Sololá	710	Panajachel	8	Panajachel	4	Abril	2023-04-25T00:00:00	2024-11-08T13:00:00	2	Temperatura media	24
33182	7	Sololá	710	Panajachel	8	Panajachel	4	Abril	2023-04-25T00:00:00	2024-11-08T13:00:00	4	Temperatura máxima	24.5
33183	7	Sololá	710	Panajachel	8	Panajachel	4	Abril	2023-04-25T00:00:00	2024-11-08T13:00:00	3	Temperatura mínima	23.6
33184	7	Sololá	710	Panajachel	8	Panajachel	4	Abril	2023-04-25T00:00:00	2024-11-08T13:00:00	5	Humedad	74
33185	7	Sololá	710	Panajachel	8	Panajachel	4	Abril	2023-04-25T00:00:00	2024-11-08T13:00:00	6	Velocidad del viento	4.8
33186	7	Sololá	710	Panajachel	8	Panajachel	4	Abril	2023-04-25T00:00:00	2024-11-08T13:00:00	7	Dirección del viento	4.83
33187	7	Sololá	710	Panajachel	8	Panajachel	4	Abril	2023-04-25T00:00:00	2024-11-08T13:00:00	1	Precipitación	0
33188	7	Sololá	710	Panajachel	8	Panajachel	4	Abril	2023-04-25T00:00:00	2024-11-08T13:00:00	8	Radiación solar	877
33189	7	Sololá	710	Panajachel	8	Panajachel	4	Abril	2023-04-25T00:00:00	2024-11-08T14:00:00	2	Temperatura media	23.6
33190	7	Sololá	710	Panajachel	8	Panajachel	4	Abril	2023-04-25T00:00:00	2024-11-08T14:00:00	4	Temperatura máxima	24
33191	7	Sololá	710	Panajachel	8	Panajachel	4	Abril	2023-04-25T00:00:00	2024-11-08T14:00:00	3	Temperatura mínima	23.4
33192	7	Sololá	710	Panajachel	8	Panajachel	4	Abril	2023-04-25T00:00:00	2024-11-08T14:00:00	5	Humedad	77
33193	7	Sololá	710	Panajachel	8	Panajachel	4	Abril	2023-04-25T00:00:00	2024-11-08T14:00:00	6	Velocidad del viento	8
33194	7	Sololá	710	Panajachel	8	Panajachel	4	Abril	2023-04-25T00:00:00	2024-11-08T14:00:00	7	Dirección del viento	8.05
33195	7	Sololá	710	Panajachel	8	Panajachel	4	Abril	2023-04-25T00:00:00	2024-11-08T14:00:00	1	Precipitación	0
33196	7	Sololá	710	Panajachel	8	Panajachel	4	Abril	2023-04-25T00:00:00	2024-11-08T14:00:00	8	Radiación solar	616
33197	7	Sololá	710	Panajachel	8	Panajachel	4	Abril	2023-04-25T00:00:00	2024-11-08T15:00:00	2	Temperatura media	22.8
33198	7	Sololá	710	Panajachel	8	Panajachel	4	Abril	2023-04-25T00:00:00	2024-11-08T15:00:00	4	Temperatura máxima	24.9
33199	7	Sololá	710	Panajachel	8	Panajachel	4	Abril	2023-04-25T00:00:00	2024-11-08T15:00:00	3	Temperatura mínima	22.8
33200	7	Sololá	710	Panajachel	8	Panajachel	4	Abril	2023-04-25T00:00:00	2024-11-08T15:00:00	5	Humedad	81
33201	7	Sololá	710	Panajachel	8	Panajachel	4	Abril	2023-04-25T00:00:00	2024-11-08T15:00:00	6	Velocidad del viento	4.8
33202	7	Sololá	710	Panajachel	8	Panajachel	4	Abril	2023-04-25T00:00:00	2024-11-08T15:00:00	7	Dirección del viento	4.83
33203	7	Sololá	710	Panajachel	8	Panajachel	4	Abril	2023-04-25T00:00:00	2024-11-08T15:00:00	1	Precipitación	0
33204	7	Sololá	710	Panajachel	8	Panajachel	4	Abril	2023-04-25T00:00:00	2024-11-08T15:00:00	8	Radiación solar	412
33205	7	Sololá	710	Panajachel	8	Panajachel	4	Abril	2023-04-25T00:00:00	2024-11-08T16:00:00	2	Temperatura media	21.8
33206	7	Sololá	710	Panajachel	8	Panajachel	4	Abril	2023-04-25T00:00:00	2024-11-08T16:00:00	4	Temperatura máxima	22.8
33207	7	Sololá	710	Panajachel	8	Panajachel	4	Abril	2023-04-25T00:00:00	2024-11-08T16:00:00	3	Temperatura mínima	21.8
33208	7	Sololá	710	Panajachel	8	Panajachel	4	Abril	2023-04-25T00:00:00	2024-11-08T16:00:00	5	Humedad	85
33209	7	Sololá	710	Panajachel	8	Panajachel	4	Abril	2023-04-25T00:00:00	2024-11-08T16:00:00	6	Velocidad del viento	8
33210	7	Sololá	710	Panajachel	8	Panajachel	4	Abril	2023-04-25T00:00:00	2024-11-08T16:00:00	7	Dirección del viento	8.05
33211	7	Sololá	710	Panajachel	8	Panajachel	4	Abril	2023-04-25T00:00:00	2024-11-08T16:00:00	1	Precipitación	0
33212	7	Sololá	710	Panajachel	8	Panajachel	4	Abril	2023-04-25T00:00:00	2024-11-08T16:00:00	8	Radiación solar	193
33213	7	Sololá	710	Panajachel	8	Panajachel	4	Abril	2023-04-25T00:00:00	2024-11-08T17:00:00	2	Temperatura media	21.2
33214	7	Sololá	710	Panajachel	8	Panajachel	4	Abril	2023-04-25T00:00:00	2024-11-08T17:00:00	4	Temperatura máxima	21.8
33215	7	Sololá	710	Panajachel	8	Panajachel	4	Abril	2023-04-25T00:00:00	2024-11-08T17:00:00	3	Temperatura mínima	21.2
33216	7	Sololá	710	Panajachel	8	Panajachel	4	Abril	2023-04-25T00:00:00	2024-11-08T17:00:00	5	Humedad	88
33217	7	Sololá	710	Panajachel	8	Panajachel	4	Abril	2023-04-25T00:00:00	2024-11-08T17:00:00	6	Velocidad del viento	4.8
33218	7	Sololá	710	Panajachel	8	Panajachel	4	Abril	2023-04-25T00:00:00	2024-11-08T17:00:00	7	Dirección del viento	4.83
33219	7	Sololá	710	Panajachel	8	Panajachel	4	Abril	2023-04-25T00:00:00	2024-11-08T17:00:00	1	Precipitación	0
33220	7	Sololá	710	Panajachel	8	Panajachel	4	Abril	2023-04-25T00:00:00	2024-11-08T17:00:00	8	Radiación solar	54
33221	7	Sololá	710	Panajachel	8	Panajachel	4	Abril	2023-04-25T00:00:00	2024-11-08T18:00:00	2	Temperatura media	20.6
33222	7	Sololá	710	Panajachel	8	Panajachel	4	Abril	2023-04-25T00:00:00	2024-11-08T18:00:00	4	Temperatura máxima	21.2
33223	7	Sololá	710	Panajachel	8	Panajachel	4	Abril	2023-04-25T00:00:00	2024-11-08T18:00:00	3	Temperatura mínima	20.6
33224	7	Sololá	710	Panajachel	8	Panajachel	4	Abril	2023-04-25T00:00:00	2024-11-08T18:00:00	5	Humedad	90
33225	7	Sololá	710	Panajachel	8	Panajachel	4	Abril	2023-04-25T00:00:00	2024-11-08T18:00:00	6	Velocidad del viento	1.6
33226	7	Sololá	710	Panajachel	8	Panajachel	4	Abril	2023-04-25T00:00:00	2024-11-08T18:00:00	7	Dirección del viento	1.61
33227	7	Sololá	710	Panajachel	8	Panajachel	4	Abril	2023-04-25T00:00:00	2024-11-08T18:00:00	1	Precipitación	0.2
33228	7	Sololá	710	Panajachel	8	Panajachel	4	Abril	2023-04-25T00:00:00	2024-11-08T18:00:00	8	Radiación solar	26
33229	7	Sololá	710	Panajachel	8	Panajachel	4	Abril	2023-04-25T00:00:00	2024-11-08T19:00:00	2	Temperatura media	20.4
33230	7	Sololá	710	Panajachel	8	Panajachel	4	Abril	2023-04-25T00:00:00	2024-11-08T19:00:00	4	Temperatura máxima	20.6
33231	7	Sololá	710	Panajachel	8	Panajachel	4	Abril	2023-04-25T00:00:00	2024-11-08T19:00:00	3	Temperatura mínima	20.3
33232	7	Sololá	710	Panajachel	8	Panajachel	4	Abril	2023-04-25T00:00:00	2024-11-08T19:00:00	5	Humedad	90
33233	7	Sololá	710	Panajachel	8	Panajachel	4	Abril	2023-04-25T00:00:00	2024-11-08T19:00:00	6	Velocidad del viento	0
33234	7	Sololá	710	Panajachel	8	Panajachel	4	Abril	2023-04-25T00:00:00	2024-11-08T19:00:00	7	Dirección del viento	0
33235	7	Sololá	710	Panajachel	8	Panajachel	4	Abril	2023-04-25T00:00:00	2024-11-08T19:00:00	1	Precipitación	0
33236	7	Sololá	710	Panajachel	8	Panajachel	4	Abril	2023-04-25T00:00:00	2024-11-08T19:00:00	8	Radiación solar	0
33237	7	Sololá	710	Panajachel	8	Panajachel	4	Abril	2023-04-25T00:00:00	2024-11-08T20:00:00	2	Temperatura media	19.8
33238	7	Sololá	710	Panajachel	8	Panajachel	4	Abril	2023-04-25T00:00:00	2024-11-08T20:00:00	4	Temperatura máxima	20.5
33239	7	Sololá	710	Panajachel	8	Panajachel	4	Abril	2023-04-25T00:00:00	2024-11-08T20:00:00	3	Temperatura mínima	19.8
33240	7	Sololá	710	Panajachel	8	Panajachel	4	Abril	2023-04-25T00:00:00	2024-11-08T20:00:00	5	Humedad	92
33241	7	Sololá	710	Panajachel	8	Panajachel	4	Abril	2023-04-25T00:00:00	2024-11-08T20:00:00	6	Velocidad del viento	0
33242	7	Sololá	710	Panajachel	8	Panajachel	4	Abril	2023-04-25T00:00:00	2024-11-08T20:00:00	7	Dirección del viento	0
33243	7	Sololá	710	Panajachel	8	Panajachel	4	Abril	2023-04-25T00:00:00	2024-11-08T20:00:00	1	Precipitación	0
33244	7	Sololá	710	Panajachel	8	Panajachel	4	Abril	2023-04-25T00:00:00	2024-11-08T20:00:00	8	Radiación solar	0
33245	7	Sololá	710	Panajachel	8	Panajachel	4	Abril	2023-04-25T00:00:00	2024-11-08T21:00:00	2	Temperatura media	19.1
33246	7	Sololá	710	Panajachel	8	Panajachel	4	Abril	2023-04-25T00:00:00	2024-11-08T21:00:00	4	Temperatura máxima	19.8
33247	7	Sololá	710	Panajachel	8	Panajachel	4	Abril	2023-04-25T00:00:00	2024-11-08T21:00:00	3	Temperatura mínima	19.1
33248	7	Sololá	710	Panajachel	8	Panajachel	4	Abril	2023-04-25T00:00:00	2024-11-08T21:00:00	5	Humedad	92
33249	7	Sololá	710	Panajachel	8	Panajachel	4	Abril	2023-04-25T00:00:00	2024-11-08T21:00:00	6	Velocidad del viento	0
33250	7	Sololá	710	Panajachel	8	Panajachel	4	Abril	2023-04-25T00:00:00	2024-11-08T21:00:00	7	Dirección del viento	0
33251	7	Sololá	710	Panajachel	8	Panajachel	4	Abril	2023-04-25T00:00:00	2024-11-08T21:00:00	1	Precipitación	0
33252	7	Sololá	710	Panajachel	8	Panajachel	4	Abril	2023-04-25T00:00:00	2024-11-08T21:00:00	8	Radiación solar	0
33253	7	Sololá	710	Panajachel	8	Panajachel	4	Abril	2023-04-25T00:00:00	2024-11-08T22:00:00	2	Temperatura media	18.7
33254	7	Sololá	710	Panajachel	8	Panajachel	4	Abril	2023-04-25T00:00:00	2024-11-08T22:00:00	4	Temperatura máxima	19.1
33255	7	Sololá	710	Panajachel	8	Panajachel	4	Abril	2023-04-25T00:00:00	2024-11-08T22:00:00	3	Temperatura mínima	18.6
33256	7	Sololá	710	Panajachel	8	Panajachel	4	Abril	2023-04-25T00:00:00	2024-11-08T22:00:00	5	Humedad	91
33257	7	Sololá	710	Panajachel	8	Panajachel	4	Abril	2023-04-25T00:00:00	2024-11-08T22:00:00	6	Velocidad del viento	1.6
33258	7	Sololá	710	Panajachel	8	Panajachel	4	Abril	2023-04-25T00:00:00	2024-11-08T22:00:00	7	Dirección del viento	1.61
33259	7	Sololá	710	Panajachel	8	Panajachel	4	Abril	2023-04-25T00:00:00	2024-11-08T22:00:00	1	Precipitación	0
33260	7	Sololá	710	Panajachel	8	Panajachel	4	Abril	2023-04-25T00:00:00	2024-11-08T22:00:00	8	Radiación solar	0
33261	7	Sololá	710	Panajachel	8	Panajachel	4	Abril	2023-04-25T00:00:00	2024-11-08T23:00:00	2	Temperatura media	18.6
33262	7	Sololá	710	Panajachel	8	Panajachel	4	Abril	2023-04-25T00:00:00	2024-11-08T23:00:00	4	Temperatura máxima	18.8
33263	7	Sololá	710	Panajachel	8	Panajachel	4	Abril	2023-04-25T00:00:00	2024-11-08T23:00:00	3	Temperatura mínima	18.6
33264	7	Sololá	710	Panajachel	8	Panajachel	4	Abril	2023-04-25T00:00:00	2024-11-08T23:00:00	5	Humedad	89
33265	7	Sololá	710	Panajachel	8	Panajachel	4	Abril	2023-04-25T00:00:00	2024-11-08T23:00:00	6	Velocidad del viento	1.6
33266	7	Sololá	710	Panajachel	8	Panajachel	4	Abril	2023-04-25T00:00:00	2024-11-08T23:00:00	7	Dirección del viento	1.61
33267	7	Sololá	710	Panajachel	8	Panajachel	4	Abril	2023-04-25T00:00:00	2024-11-08T23:00:00	1	Precipitación	0
33268	7	Sololá	710	Panajachel	8	Panajachel	4	Abril	2023-04-25T00:00:00	2024-11-08T23:00:00	8	Radiación solar	0
33269	7	Sololá	710	Panajachel	8	Panajachel	4	Abril	2023-04-26T00:00:00	2024-11-08T00:00:00	2	Temperatura media	18.8
33270	7	Sololá	710	Panajachel	8	Panajachel	4	Abril	2023-04-26T00:00:00	2024-11-08T00:00:00	4	Temperatura máxima	18.8
33271	7	Sololá	710	Panajachel	8	Panajachel	4	Abril	2023-04-26T00:00:00	2024-11-08T00:00:00	3	Temperatura mínima	18.6
33272	7	Sololá	710	Panajachel	8	Panajachel	4	Abril	2023-04-26T00:00:00	2024-11-08T00:00:00	5	Humedad	87
33273	7	Sololá	710	Panajachel	8	Panajachel	4	Abril	2023-04-26T00:00:00	2024-11-08T00:00:00	6	Velocidad del viento	1.6
33274	7	Sololá	710	Panajachel	8	Panajachel	4	Abril	2023-04-26T00:00:00	2024-11-08T00:00:00	7	Dirección del viento	1.61
33275	7	Sololá	710	Panajachel	8	Panajachel	4	Abril	2023-04-26T00:00:00	2024-11-08T00:00:00	1	Precipitación	0
33276	7	Sololá	710	Panajachel	8	Panajachel	4	Abril	2023-04-26T00:00:00	2024-11-08T00:00:00	8	Radiación solar	0
33277	7	Sololá	710	Panajachel	8	Panajachel	4	Abril	2023-04-26T00:00:00	2024-11-08T01:00:00	2	Temperatura media	18.8
33278	7	Sololá	710	Panajachel	8	Panajachel	4	Abril	2023-04-26T00:00:00	2024-11-08T01:00:00	4	Temperatura máxima	19.1
33279	7	Sololá	710	Panajachel	8	Panajachel	4	Abril	2023-04-26T00:00:00	2024-11-08T01:00:00	3	Temperatura mínima	18.7
33280	7	Sololá	710	Panajachel	8	Panajachel	4	Abril	2023-04-26T00:00:00	2024-11-08T01:00:00	5	Humedad	88
33281	7	Sololá	710	Panajachel	8	Panajachel	4	Abril	2023-04-26T00:00:00	2024-11-08T01:00:00	6	Velocidad del viento	0
33282	7	Sololá	710	Panajachel	8	Panajachel	4	Abril	2023-04-26T00:00:00	2024-11-08T01:00:00	7	Dirección del viento	0
33283	7	Sololá	710	Panajachel	8	Panajachel	4	Abril	2023-04-26T00:00:00	2024-11-08T01:00:00	1	Precipitación	0
33284	7	Sololá	710	Panajachel	8	Panajachel	4	Abril	2023-04-26T00:00:00	2024-11-08T01:00:00	8	Radiación solar	0
33285	7	Sololá	710	Panajachel	8	Panajachel	4	Abril	2023-04-26T00:00:00	2024-11-08T02:00:00	2	Temperatura media	18.7
33286	7	Sololá	710	Panajachel	8	Panajachel	4	Abril	2023-04-26T00:00:00	2024-11-08T02:00:00	4	Temperatura máxima	18.8
33287	7	Sololá	710	Panajachel	8	Panajachel	4	Abril	2023-04-26T00:00:00	2024-11-08T02:00:00	3	Temperatura mínima	18.7
33288	7	Sololá	710	Panajachel	8	Panajachel	4	Abril	2023-04-26T00:00:00	2024-11-08T02:00:00	5	Humedad	90
33289	7	Sololá	710	Panajachel	8	Panajachel	4	Abril	2023-04-26T00:00:00	2024-11-08T02:00:00	6	Velocidad del viento	0
33290	7	Sololá	710	Panajachel	8	Panajachel	4	Abril	2023-04-26T00:00:00	2024-11-08T02:00:00	7	Dirección del viento	0
33291	7	Sololá	710	Panajachel	8	Panajachel	4	Abril	2023-04-26T00:00:00	2024-11-08T02:00:00	1	Precipitación	0
33292	7	Sololá	710	Panajachel	8	Panajachel	4	Abril	2023-04-26T00:00:00	2024-11-08T02:00:00	8	Radiación solar	0
33293	7	Sololá	710	Panajachel	8	Panajachel	4	Abril	2023-04-26T00:00:00	2024-11-08T03:00:00	2	Temperatura media	18.7
33294	7	Sololá	710	Panajachel	8	Panajachel	4	Abril	2023-04-26T00:00:00	2024-11-08T03:00:00	4	Temperatura máxima	18.8
33295	7	Sololá	710	Panajachel	8	Panajachel	4	Abril	2023-04-26T00:00:00	2024-11-08T03:00:00	3	Temperatura mínima	18.6
33296	7	Sololá	710	Panajachel	8	Panajachel	4	Abril	2023-04-26T00:00:00	2024-11-08T03:00:00	5	Humedad	89
33297	7	Sololá	710	Panajachel	8	Panajachel	4	Abril	2023-04-26T00:00:00	2024-11-08T03:00:00	6	Velocidad del viento	0
33298	7	Sololá	710	Panajachel	8	Panajachel	4	Abril	2023-04-26T00:00:00	2024-11-08T03:00:00	7	Dirección del viento	0
33299	7	Sololá	710	Panajachel	8	Panajachel	4	Abril	2023-04-26T00:00:00	2024-11-08T03:00:00	1	Precipitación	0
33300	7	Sololá	710	Panajachel	8	Panajachel	4	Abril	2023-04-26T00:00:00	2024-11-08T03:00:00	8	Radiación solar	0
33301	7	Sololá	710	Panajachel	8	Panajachel	4	Abril	2023-04-26T00:00:00	2024-11-08T04:00:00	2	Temperatura media	18.4
33302	7	Sololá	710	Panajachel	8	Panajachel	4	Abril	2023-04-26T00:00:00	2024-11-08T04:00:00	4	Temperatura máxima	18.9
33303	7	Sololá	710	Panajachel	8	Panajachel	4	Abril	2023-04-26T00:00:00	2024-11-08T04:00:00	3	Temperatura mínima	18.4
33304	7	Sololá	710	Panajachel	8	Panajachel	4	Abril	2023-04-26T00:00:00	2024-11-08T04:00:00	5	Humedad	89
33305	7	Sololá	710	Panajachel	8	Panajachel	4	Abril	2023-04-26T00:00:00	2024-11-08T04:00:00	6	Velocidad del viento	0
33306	7	Sololá	710	Panajachel	8	Panajachel	4	Abril	2023-04-26T00:00:00	2024-11-08T04:00:00	7	Dirección del viento	0
33307	7	Sololá	710	Panajachel	8	Panajachel	4	Abril	2023-04-26T00:00:00	2024-11-08T04:00:00	1	Precipitación	0
33308	7	Sololá	710	Panajachel	8	Panajachel	4	Abril	2023-04-26T00:00:00	2024-11-08T04:00:00	8	Radiación solar	0
33309	7	Sololá	710	Panajachel	8	Panajachel	4	Abril	2023-04-26T00:00:00	2024-11-08T05:00:00	2	Temperatura media	18.4
33310	7	Sololá	710	Panajachel	8	Panajachel	4	Abril	2023-04-26T00:00:00	2024-11-08T05:00:00	4	Temperatura máxima	18.6
33311	7	Sololá	710	Panajachel	8	Panajachel	4	Abril	2023-04-26T00:00:00	2024-11-08T05:00:00	3	Temperatura mínima	18.3
33312	7	Sololá	710	Panajachel	8	Panajachel	4	Abril	2023-04-26T00:00:00	2024-11-08T05:00:00	5	Humedad	88
33313	7	Sololá	710	Panajachel	8	Panajachel	4	Abril	2023-04-26T00:00:00	2024-11-08T05:00:00	6	Velocidad del viento	1.6
33314	7	Sololá	710	Panajachel	8	Panajachel	4	Abril	2023-04-26T00:00:00	2024-11-08T05:00:00	7	Dirección del viento	1.61
33315	7	Sololá	710	Panajachel	8	Panajachel	4	Abril	2023-04-26T00:00:00	2024-11-08T05:00:00	1	Precipitación	0
33316	7	Sololá	710	Panajachel	8	Panajachel	4	Abril	2023-04-26T00:00:00	2024-11-08T05:00:00	8	Radiación solar	0
33317	7	Sololá	710	Panajachel	8	Panajachel	4	Abril	2023-04-26T00:00:00	2024-11-08T06:00:00	2	Temperatura media	17.9
33318	7	Sololá	710	Panajachel	8	Panajachel	4	Abril	2023-04-26T00:00:00	2024-11-08T06:00:00	4	Temperatura máxima	18.4
33319	7	Sololá	710	Panajachel	8	Panajachel	4	Abril	2023-04-26T00:00:00	2024-11-08T06:00:00	3	Temperatura mínima	17.9
33320	7	Sololá	710	Panajachel	8	Panajachel	4	Abril	2023-04-26T00:00:00	2024-11-08T06:00:00	5	Humedad	88
33321	7	Sololá	710	Panajachel	8	Panajachel	4	Abril	2023-04-26T00:00:00	2024-11-08T06:00:00	6	Velocidad del viento	3.2
33322	7	Sololá	710	Panajachel	8	Panajachel	4	Abril	2023-04-26T00:00:00	2024-11-08T06:00:00	7	Dirección del viento	3.22
33323	7	Sololá	710	Panajachel	8	Panajachel	4	Abril	2023-04-26T00:00:00	2024-11-08T06:00:00	1	Precipitación	0
33324	7	Sololá	710	Panajachel	8	Panajachel	4	Abril	2023-04-26T00:00:00	2024-11-08T06:00:00	8	Radiación solar	1
33325	7	Sololá	710	Panajachel	8	Panajachel	4	Abril	2023-04-26T00:00:00	2024-11-08T07:00:00	2	Temperatura media	18.9
33326	7	Sololá	710	Panajachel	8	Panajachel	4	Abril	2023-04-26T00:00:00	2024-11-08T07:00:00	4	Temperatura máxima	18.9
33327	7	Sololá	710	Panajachel	8	Panajachel	4	Abril	2023-04-26T00:00:00	2024-11-08T07:00:00	3	Temperatura mínima	17.8
33328	7	Sololá	710	Panajachel	8	Panajachel	4	Abril	2023-04-26T00:00:00	2024-11-08T07:00:00	5	Humedad	84
33329	7	Sololá	710	Panajachel	8	Panajachel	4	Abril	2023-04-26T00:00:00	2024-11-08T07:00:00	6	Velocidad del viento	1.6
33330	7	Sololá	710	Panajachel	8	Panajachel	4	Abril	2023-04-26T00:00:00	2024-11-08T07:00:00	7	Dirección del viento	1.61
33331	7	Sololá	710	Panajachel	8	Panajachel	4	Abril	2023-04-26T00:00:00	2024-11-08T07:00:00	1	Precipitación	0
33332	7	Sololá	710	Panajachel	8	Panajachel	4	Abril	2023-04-26T00:00:00	2024-11-08T07:00:00	8	Radiación solar	74
33333	7	Sololá	710	Panajachel	8	Panajachel	4	Abril	2023-04-26T00:00:00	2024-11-08T08:00:00	2	Temperatura media	21.3
33334	7	Sololá	710	Panajachel	8	Panajachel	4	Abril	2023-04-26T00:00:00	2024-11-08T08:00:00	4	Temperatura máxima	21.3
33335	7	Sololá	710	Panajachel	8	Panajachel	4	Abril	2023-04-26T00:00:00	2024-11-08T08:00:00	3	Temperatura mínima	18.9
33336	7	Sololá	710	Panajachel	8	Panajachel	4	Abril	2023-04-26T00:00:00	2024-11-08T08:00:00	5	Humedad	80
33337	7	Sololá	710	Panajachel	8	Panajachel	4	Abril	2023-04-26T00:00:00	2024-11-08T08:00:00	6	Velocidad del viento	1.6
33338	7	Sololá	710	Panajachel	8	Panajachel	4	Abril	2023-04-26T00:00:00	2024-11-08T08:00:00	7	Dirección del viento	1.61
33339	7	Sololá	710	Panajachel	8	Panajachel	4	Abril	2023-04-26T00:00:00	2024-11-08T08:00:00	1	Precipitación	0
33340	7	Sololá	710	Panajachel	8	Panajachel	4	Abril	2023-04-26T00:00:00	2024-11-08T08:00:00	8	Radiación solar	264
33341	7	Sololá	710	Panajachel	8	Panajachel	4	Abril	2023-04-26T00:00:00	2024-11-08T09:00:00	2	Temperatura media	21.8
33342	7	Sololá	710	Panajachel	8	Panajachel	4	Abril	2023-04-26T00:00:00	2024-11-08T09:00:00	4	Temperatura máxima	22
33343	7	Sololá	710	Panajachel	8	Panajachel	4	Abril	2023-04-26T00:00:00	2024-11-08T09:00:00	3	Temperatura mínima	20.9
33344	7	Sololá	710	Panajachel	8	Panajachel	4	Abril	2023-04-26T00:00:00	2024-11-08T09:00:00	5	Humedad	81
33345	7	Sololá	710	Panajachel	8	Panajachel	4	Abril	2023-04-26T00:00:00	2024-11-08T09:00:00	6	Velocidad del viento	1.6
33346	7	Sololá	710	Panajachel	8	Panajachel	4	Abril	2023-04-26T00:00:00	2024-11-08T09:00:00	7	Dirección del viento	1.61
33347	7	Sololá	710	Panajachel	8	Panajachel	4	Abril	2023-04-26T00:00:00	2024-11-08T09:00:00	1	Precipitación	0
33348	7	Sololá	710	Panajachel	8	Panajachel	4	Abril	2023-04-26T00:00:00	2024-11-08T09:00:00	8	Radiación solar	496
33349	7	Sololá	710	Panajachel	8	Panajachel	4	Abril	2023-04-26T00:00:00	2024-11-08T10:00:00	2	Temperatura media	22.9
33350	7	Sololá	710	Panajachel	8	Panajachel	4	Abril	2023-04-26T00:00:00	2024-11-08T10:00:00	4	Temperatura máxima	23.1
33351	7	Sololá	710	Panajachel	8	Panajachel	4	Abril	2023-04-26T00:00:00	2024-11-08T10:00:00	3	Temperatura mínima	21.4
33352	7	Sololá	710	Panajachel	8	Panajachel	4	Abril	2023-04-26T00:00:00	2024-11-08T10:00:00	5	Humedad	73
33353	7	Sololá	710	Panajachel	8	Panajachel	4	Abril	2023-04-26T00:00:00	2024-11-08T10:00:00	6	Velocidad del viento	1.6
33354	7	Sololá	710	Panajachel	8	Panajachel	4	Abril	2023-04-26T00:00:00	2024-11-08T10:00:00	7	Dirección del viento	1.61
33355	7	Sololá	710	Panajachel	8	Panajachel	4	Abril	2023-04-26T00:00:00	2024-11-08T10:00:00	1	Precipitación	0
33356	7	Sololá	710	Panajachel	8	Panajachel	4	Abril	2023-04-26T00:00:00	2024-11-08T10:00:00	8	Radiación solar	699
33357	7	Sololá	710	Panajachel	8	Panajachel	4	Abril	2023-04-26T00:00:00	2024-11-08T11:00:00	2	Temperatura media	22.9
33358	7	Sololá	710	Panajachel	8	Panajachel	4	Abril	2023-04-26T00:00:00	2024-11-08T11:00:00	4	Temperatura máxima	23.6
33359	7	Sololá	710	Panajachel	8	Panajachel	4	Abril	2023-04-26T00:00:00	2024-11-08T11:00:00	3	Temperatura mínima	22.6
33360	7	Sololá	710	Panajachel	8	Panajachel	4	Abril	2023-04-26T00:00:00	2024-11-08T11:00:00	5	Humedad	73
33361	7	Sololá	710	Panajachel	8	Panajachel	4	Abril	2023-04-26T00:00:00	2024-11-08T11:00:00	6	Velocidad del viento	3.2
33362	7	Sololá	710	Panajachel	8	Panajachel	4	Abril	2023-04-26T00:00:00	2024-11-08T11:00:00	7	Dirección del viento	3.22
33363	7	Sololá	710	Panajachel	8	Panajachel	4	Abril	2023-04-26T00:00:00	2024-11-08T11:00:00	1	Precipitación	0
33364	7	Sololá	710	Panajachel	8	Panajachel	4	Abril	2023-04-26T00:00:00	2024-11-08T11:00:00	8	Radiación solar	835
33365	7	Sololá	710	Panajachel	8	Panajachel	4	Abril	2023-04-26T00:00:00	2024-11-08T12:00:00	2	Temperatura media	23.6
33366	7	Sololá	710	Panajachel	8	Panajachel	4	Abril	2023-04-26T00:00:00	2024-11-08T12:00:00	4	Temperatura máxima	23.6
33367	7	Sololá	710	Panajachel	8	Panajachel	4	Abril	2023-04-26T00:00:00	2024-11-08T12:00:00	3	Temperatura mínima	22.9
33368	7	Sololá	710	Panajachel	8	Panajachel	4	Abril	2023-04-26T00:00:00	2024-11-08T12:00:00	5	Humedad	76
33369	7	Sololá	710	Panajachel	8	Panajachel	4	Abril	2023-04-26T00:00:00	2024-11-08T12:00:00	6	Velocidad del viento	6.4
33370	7	Sololá	710	Panajachel	8	Panajachel	4	Abril	2023-04-26T00:00:00	2024-11-08T12:00:00	7	Dirección del viento	6.44
33371	7	Sololá	710	Panajachel	8	Panajachel	4	Abril	2023-04-26T00:00:00	2024-11-08T12:00:00	1	Precipitación	0
33372	7	Sololá	710	Panajachel	8	Panajachel	4	Abril	2023-04-26T00:00:00	2024-11-08T12:00:00	8	Radiación solar	904
33373	7	Sololá	710	Panajachel	8	Panajachel	4	Abril	2023-04-26T00:00:00	2024-11-08T13:00:00	2	Temperatura media	22.9
33374	7	Sololá	710	Panajachel	8	Panajachel	4	Abril	2023-04-26T00:00:00	2024-11-08T13:00:00	4	Temperatura máxima	24.3
33375	7	Sololá	710	Panajachel	8	Panajachel	4	Abril	2023-04-26T00:00:00	2024-11-08T13:00:00	3	Temperatura mínima	22.9
33376	7	Sololá	710	Panajachel	8	Panajachel	4	Abril	2023-04-26T00:00:00	2024-11-08T13:00:00	5	Humedad	79
33377	7	Sololá	710	Panajachel	8	Panajachel	4	Abril	2023-04-26T00:00:00	2024-11-08T13:00:00	6	Velocidad del viento	6.4
33378	7	Sololá	710	Panajachel	8	Panajachel	4	Abril	2023-04-26T00:00:00	2024-11-08T13:00:00	7	Dirección del viento	6.44
33379	7	Sololá	710	Panajachel	8	Panajachel	4	Abril	2023-04-26T00:00:00	2024-11-08T13:00:00	1	Precipitación	0
33380	7	Sololá	710	Panajachel	8	Panajachel	4	Abril	2023-04-26T00:00:00	2024-11-08T13:00:00	8	Radiación solar	479
33381	7	Sololá	710	Panajachel	8	Panajachel	4	Abril	2023-04-26T00:00:00	2024-11-08T14:00:00	2	Temperatura media	22.4
33382	7	Sololá	710	Panajachel	8	Panajachel	4	Abril	2023-04-26T00:00:00	2024-11-08T14:00:00	4	Temperatura máxima	22.9
33383	7	Sololá	710	Panajachel	8	Panajachel	4	Abril	2023-04-26T00:00:00	2024-11-08T14:00:00	3	Temperatura mínima	22.3
33384	7	Sololá	710	Panajachel	8	Panajachel	4	Abril	2023-04-26T00:00:00	2024-11-08T14:00:00	5	Humedad	81
33385	7	Sololá	710	Panajachel	8	Panajachel	4	Abril	2023-04-26T00:00:00	2024-11-08T14:00:00	6	Velocidad del viento	6.4
33386	7	Sololá	710	Panajachel	8	Panajachel	4	Abril	2023-04-26T00:00:00	2024-11-08T14:00:00	7	Dirección del viento	6.44
33387	7	Sololá	710	Panajachel	8	Panajachel	4	Abril	2023-04-26T00:00:00	2024-11-08T14:00:00	1	Precipitación	0
33388	7	Sololá	710	Panajachel	8	Panajachel	4	Abril	2023-04-26T00:00:00	2024-11-08T14:00:00	8	Radiación solar	234
33389	7	Sololá	710	Panajachel	8	Panajachel	4	Abril	2023-04-26T00:00:00	2024-11-08T15:00:00	2	Temperatura media	21.6
33390	7	Sololá	710	Panajachel	8	Panajachel	4	Abril	2023-04-26T00:00:00	2024-11-08T15:00:00	4	Temperatura máxima	22.4
33391	7	Sololá	710	Panajachel	8	Panajachel	4	Abril	2023-04-26T00:00:00	2024-11-08T15:00:00	3	Temperatura mínima	21.2
33392	7	Sololá	710	Panajachel	8	Panajachel	4	Abril	2023-04-26T00:00:00	2024-11-08T15:00:00	5	Humedad	84
33393	7	Sololá	710	Panajachel	8	Panajachel	4	Abril	2023-04-26T00:00:00	2024-11-08T15:00:00	6	Velocidad del viento	4.8
33394	7	Sololá	710	Panajachel	8	Panajachel	4	Abril	2023-04-26T00:00:00	2024-11-08T15:00:00	7	Dirección del viento	4.83
33395	7	Sololá	710	Panajachel	8	Panajachel	4	Abril	2023-04-26T00:00:00	2024-11-08T15:00:00	1	Precipitación	0
33396	7	Sololá	710	Panajachel	8	Panajachel	4	Abril	2023-04-26T00:00:00	2024-11-08T15:00:00	8	Radiación solar	121
33397	7	Sololá	710	Panajachel	8	Panajachel	4	Abril	2023-04-26T00:00:00	2024-11-08T16:00:00	2	Temperatura media	21.8
33398	7	Sololá	710	Panajachel	8	Panajachel	4	Abril	2023-04-26T00:00:00	2024-11-08T16:00:00	4	Temperatura máxima	21.8
33399	7	Sololá	710	Panajachel	8	Panajachel	4	Abril	2023-04-26T00:00:00	2024-11-08T16:00:00	3	Temperatura mínima	21.3
33400	7	Sololá	710	Panajachel	8	Panajachel	4	Abril	2023-04-26T00:00:00	2024-11-08T16:00:00	5	Humedad	83
33401	7	Sololá	710	Panajachel	8	Panajachel	4	Abril	2023-04-26T00:00:00	2024-11-08T16:00:00	6	Velocidad del viento	1.6
33402	7	Sololá	710	Panajachel	8	Panajachel	4	Abril	2023-04-26T00:00:00	2024-11-08T16:00:00	7	Dirección del viento	1.61
33403	7	Sololá	710	Panajachel	8	Panajachel	4	Abril	2023-04-26T00:00:00	2024-11-08T16:00:00	1	Precipitación	0
33404	7	Sololá	710	Panajachel	8	Panajachel	4	Abril	2023-04-26T00:00:00	2024-11-08T16:00:00	8	Radiación solar	199
33405	7	Sololá	710	Panajachel	8	Panajachel	4	Abril	2023-04-26T00:00:00	2024-11-08T17:00:00	2	Temperatura media	21.4
33406	7	Sololá	710	Panajachel	8	Panajachel	4	Abril	2023-04-26T00:00:00	2024-11-08T17:00:00	4	Temperatura máxima	21.8
33407	7	Sololá	710	Panajachel	8	Panajachel	4	Abril	2023-04-26T00:00:00	2024-11-08T17:00:00	3	Temperatura mínima	21.3
33408	7	Sololá	710	Panajachel	8	Panajachel	4	Abril	2023-04-26T00:00:00	2024-11-08T17:00:00	5	Humedad	83
33409	7	Sololá	710	Panajachel	8	Panajachel	4	Abril	2023-04-26T00:00:00	2024-11-08T17:00:00	6	Velocidad del viento	1.6
33410	7	Sololá	710	Panajachel	8	Panajachel	4	Abril	2023-04-26T00:00:00	2024-11-08T17:00:00	7	Dirección del viento	1.61
33411	7	Sololá	710	Panajachel	8	Panajachel	4	Abril	2023-04-26T00:00:00	2024-11-08T17:00:00	1	Precipitación	0
33412	7	Sololá	710	Panajachel	8	Panajachel	4	Abril	2023-04-26T00:00:00	2024-11-08T17:00:00	8	Radiación solar	101
33413	7	Sololá	710	Panajachel	8	Panajachel	4	Abril	2023-04-26T00:00:00	2024-11-08T18:00:00	2	Temperatura media	21.2
33414	7	Sololá	710	Panajachel	8	Panajachel	4	Abril	2023-04-26T00:00:00	2024-11-08T18:00:00	4	Temperatura máxima	21.4
33415	7	Sololá	710	Panajachel	8	Panajachel	4	Abril	2023-04-26T00:00:00	2024-11-08T18:00:00	3	Temperatura mínima	21.2
33416	7	Sololá	710	Panajachel	8	Panajachel	4	Abril	2023-04-26T00:00:00	2024-11-08T18:00:00	5	Humedad	82
33417	7	Sololá	710	Panajachel	8	Panajachel	4	Abril	2023-04-26T00:00:00	2024-11-08T18:00:00	6	Velocidad del viento	0
33418	7	Sololá	710	Panajachel	8	Panajachel	4	Abril	2023-04-26T00:00:00	2024-11-08T18:00:00	7	Dirección del viento	0
33419	7	Sololá	710	Panajachel	8	Panajachel	4	Abril	2023-04-26T00:00:00	2024-11-08T18:00:00	1	Precipitación	0
33420	7	Sololá	710	Panajachel	8	Panajachel	4	Abril	2023-04-26T00:00:00	2024-11-08T18:00:00	8	Radiación solar	26
33421	7	Sololá	710	Panajachel	8	Panajachel	4	Abril	2023-04-26T00:00:00	2024-11-08T19:00:00	2	Temperatura media	20.3
33422	7	Sololá	710	Panajachel	8	Panajachel	4	Abril	2023-04-26T00:00:00	2024-11-08T19:00:00	4	Temperatura máxima	21.2
33423	7	Sololá	710	Panajachel	8	Panajachel	4	Abril	2023-04-26T00:00:00	2024-11-08T19:00:00	3	Temperatura mínima	20.2
33424	7	Sololá	710	Panajachel	8	Panajachel	4	Abril	2023-04-26T00:00:00	2024-11-08T19:00:00	5	Humedad	86
33425	7	Sololá	710	Panajachel	8	Panajachel	4	Abril	2023-04-26T00:00:00	2024-11-08T19:00:00	6	Velocidad del viento	0
33426	7	Sololá	710	Panajachel	8	Panajachel	4	Abril	2023-04-26T00:00:00	2024-11-08T19:00:00	7	Dirección del viento	0
33427	7	Sololá	710	Panajachel	8	Panajachel	4	Abril	2023-04-26T00:00:00	2024-11-08T19:00:00	1	Precipitación	0
33428	7	Sololá	710	Panajachel	8	Panajachel	4	Abril	2023-04-26T00:00:00	2024-11-08T19:00:00	8	Radiación solar	0
33429	7	Sololá	710	Panajachel	8	Panajachel	4	Abril	2023-04-26T00:00:00	2024-11-08T20:00:00	2	Temperatura media	19.2
33430	7	Sololá	710	Panajachel	8	Panajachel	4	Abril	2023-04-26T00:00:00	2024-11-08T20:00:00	4	Temperatura máxima	20.2
33431	7	Sololá	710	Panajachel	8	Panajachel	4	Abril	2023-04-26T00:00:00	2024-11-08T20:00:00	3	Temperatura mínima	19.2
33432	7	Sololá	710	Panajachel	8	Panajachel	4	Abril	2023-04-26T00:00:00	2024-11-08T20:00:00	5	Humedad	88
33433	7	Sololá	710	Panajachel	8	Panajachel	4	Abril	2023-04-26T00:00:00	2024-11-08T20:00:00	6	Velocidad del viento	0
33434	7	Sololá	710	Panajachel	8	Panajachel	4	Abril	2023-04-26T00:00:00	2024-11-08T20:00:00	7	Dirección del viento	0
33435	7	Sololá	710	Panajachel	8	Panajachel	4	Abril	2023-04-26T00:00:00	2024-11-08T20:00:00	1	Precipitación	0
33436	7	Sololá	710	Panajachel	8	Panajachel	4	Abril	2023-04-26T00:00:00	2024-11-08T20:00:00	8	Radiación solar	0
33437	7	Sololá	710	Panajachel	8	Panajachel	4	Abril	2023-04-26T00:00:00	2024-11-08T21:00:00	2	Temperatura media	18.9
33438	7	Sololá	710	Panajachel	8	Panajachel	4	Abril	2023-04-26T00:00:00	2024-11-08T21:00:00	4	Temperatura máxima	19.2
33439	7	Sololá	710	Panajachel	8	Panajachel	4	Abril	2023-04-26T00:00:00	2024-11-08T21:00:00	3	Temperatura mínima	18.8
33440	7	Sololá	710	Panajachel	8	Panajachel	4	Abril	2023-04-26T00:00:00	2024-11-08T21:00:00	5	Humedad	85
33441	7	Sololá	710	Panajachel	8	Panajachel	4	Abril	2023-04-26T00:00:00	2024-11-08T21:00:00	6	Velocidad del viento	1.6
33442	7	Sololá	710	Panajachel	8	Panajachel	4	Abril	2023-04-26T00:00:00	2024-11-08T21:00:00	7	Dirección del viento	1.61
33443	7	Sololá	710	Panajachel	8	Panajachel	4	Abril	2023-04-26T00:00:00	2024-11-08T21:00:00	1	Precipitación	0
33444	7	Sololá	710	Panajachel	8	Panajachel	4	Abril	2023-04-26T00:00:00	2024-11-08T21:00:00	8	Radiación solar	0
33445	7	Sololá	710	Panajachel	8	Panajachel	4	Abril	2023-04-26T00:00:00	2024-11-08T22:00:00	2	Temperatura media	18.3
33446	7	Sololá	710	Panajachel	8	Panajachel	4	Abril	2023-04-26T00:00:00	2024-11-08T22:00:00	4	Temperatura máxima	18.9
33447	7	Sololá	710	Panajachel	8	Panajachel	4	Abril	2023-04-26T00:00:00	2024-11-08T22:00:00	3	Temperatura mínima	18.3
33448	7	Sololá	710	Panajachel	8	Panajachel	4	Abril	2023-04-26T00:00:00	2024-11-08T22:00:00	5	Humedad	85
33449	7	Sololá	710	Panajachel	8	Panajachel	4	Abril	2023-04-26T00:00:00	2024-11-08T22:00:00	6	Velocidad del viento	3.2
33450	7	Sololá	710	Panajachel	8	Panajachel	4	Abril	2023-04-26T00:00:00	2024-11-08T22:00:00	7	Dirección del viento	3.22
33451	7	Sololá	710	Panajachel	8	Panajachel	4	Abril	2023-04-26T00:00:00	2024-11-08T22:00:00	1	Precipitación	0
33452	7	Sololá	710	Panajachel	8	Panajachel	4	Abril	2023-04-26T00:00:00	2024-11-08T22:00:00	8	Radiación solar	0
33453	7	Sololá	710	Panajachel	8	Panajachel	4	Abril	2023-04-26T00:00:00	2024-11-08T23:00:00	2	Temperatura media	17.8
33454	7	Sololá	710	Panajachel	8	Panajachel	4	Abril	2023-04-26T00:00:00	2024-11-08T23:00:00	4	Temperatura máxima	18.3
33455	7	Sololá	710	Panajachel	8	Panajachel	4	Abril	2023-04-26T00:00:00	2024-11-08T23:00:00	3	Temperatura mínima	17.8
33456	7	Sololá	710	Panajachel	8	Panajachel	4	Abril	2023-04-26T00:00:00	2024-11-08T23:00:00	5	Humedad	86
33457	7	Sololá	710	Panajachel	8	Panajachel	4	Abril	2023-04-26T00:00:00	2024-11-08T23:00:00	6	Velocidad del viento	1.6
33458	7	Sololá	710	Panajachel	8	Panajachel	4	Abril	2023-04-26T00:00:00	2024-11-08T23:00:00	7	Dirección del viento	1.61
33459	7	Sololá	710	Panajachel	8	Panajachel	4	Abril	2023-04-26T00:00:00	2024-11-08T23:00:00	1	Precipitación	0
33460	7	Sololá	710	Panajachel	8	Panajachel	4	Abril	2023-04-26T00:00:00	2024-11-08T23:00:00	8	Radiación solar	0
33461	7	Sololá	710	Panajachel	8	Panajachel	4	Abril	2023-04-27T00:00:00	2024-11-08T00:00:00	2	Temperatura media	17.6
33462	7	Sololá	710	Panajachel	8	Panajachel	4	Abril	2023-04-27T00:00:00	2024-11-08T00:00:00	4	Temperatura máxima	17.8
33463	7	Sololá	710	Panajachel	8	Panajachel	4	Abril	2023-04-27T00:00:00	2024-11-08T00:00:00	3	Temperatura mínima	17.4
33464	7	Sololá	710	Panajachel	8	Panajachel	4	Abril	2023-04-27T00:00:00	2024-11-08T00:00:00	5	Humedad	85
33465	7	Sololá	710	Panajachel	8	Panajachel	4	Abril	2023-04-27T00:00:00	2024-11-08T00:00:00	6	Velocidad del viento	3.2
33466	7	Sololá	710	Panajachel	8	Panajachel	4	Abril	2023-04-27T00:00:00	2024-11-08T00:00:00	7	Dirección del viento	3.22
33467	7	Sololá	710	Panajachel	8	Panajachel	4	Abril	2023-04-27T00:00:00	2024-11-08T00:00:00	1	Precipitación	0
33468	7	Sololá	710	Panajachel	8	Panajachel	4	Abril	2023-04-27T00:00:00	2024-11-08T00:00:00	8	Radiación solar	0
33469	7	Sololá	710	Panajachel	8	Panajachel	4	Abril	2023-04-27T00:00:00	2024-11-08T01:00:00	2	Temperatura media	17.6
33470	7	Sololá	710	Panajachel	8	Panajachel	4	Abril	2023-04-27T00:00:00	2024-11-08T01:00:00	4	Temperatura máxima	17.7
33471	7	Sololá	710	Panajachel	8	Panajachel	4	Abril	2023-04-27T00:00:00	2024-11-08T01:00:00	3	Temperatura mínima	17.6
33472	7	Sololá	710	Panajachel	8	Panajachel	4	Abril	2023-04-27T00:00:00	2024-11-08T01:00:00	5	Humedad	83
33473	7	Sololá	710	Panajachel	8	Panajachel	4	Abril	2023-04-27T00:00:00	2024-11-08T01:00:00	6	Velocidad del viento	1.6
33474	7	Sololá	710	Panajachel	8	Panajachel	4	Abril	2023-04-27T00:00:00	2024-11-08T01:00:00	7	Dirección del viento	1.61
33475	7	Sololá	710	Panajachel	8	Panajachel	4	Abril	2023-04-27T00:00:00	2024-11-08T01:00:00	1	Precipitación	0
33476	7	Sololá	710	Panajachel	8	Panajachel	4	Abril	2023-04-27T00:00:00	2024-11-08T01:00:00	8	Radiación solar	0
33477	7	Sololá	710	Panajachel	8	Panajachel	4	Abril	2023-04-27T00:00:00	2024-11-08T02:00:00	2	Temperatura media	17.8
33478	7	Sololá	710	Panajachel	8	Panajachel	4	Abril	2023-04-27T00:00:00	2024-11-08T02:00:00	4	Temperatura máxima	17.8
33479	7	Sololá	710	Panajachel	8	Panajachel	4	Abril	2023-04-27T00:00:00	2024-11-08T02:00:00	3	Temperatura mínima	17.5
33480	7	Sololá	710	Panajachel	8	Panajachel	4	Abril	2023-04-27T00:00:00	2024-11-08T02:00:00	5	Humedad	81
33481	7	Sololá	710	Panajachel	8	Panajachel	4	Abril	2023-04-27T00:00:00	2024-11-08T02:00:00	6	Velocidad del viento	4.8
33482	7	Sololá	710	Panajachel	8	Panajachel	4	Abril	2023-04-27T00:00:00	2024-11-08T02:00:00	7	Dirección del viento	4.83
33483	7	Sololá	710	Panajachel	8	Panajachel	4	Abril	2023-04-27T00:00:00	2024-11-08T02:00:00	1	Precipitación	0
33484	7	Sololá	710	Panajachel	8	Panajachel	4	Abril	2023-04-27T00:00:00	2024-11-08T02:00:00	8	Radiación solar	0
33485	7	Sololá	710	Panajachel	8	Panajachel	4	Abril	2023-04-27T00:00:00	2024-11-08T03:00:00	2	Temperatura media	17.3
33486	7	Sololá	710	Panajachel	8	Panajachel	4	Abril	2023-04-27T00:00:00	2024-11-08T03:00:00	4	Temperatura máxima	17.9
33487	7	Sololá	710	Panajachel	8	Panajachel	4	Abril	2023-04-27T00:00:00	2024-11-08T03:00:00	3	Temperatura mínima	17.3
33488	7	Sololá	710	Panajachel	8	Panajachel	4	Abril	2023-04-27T00:00:00	2024-11-08T03:00:00	5	Humedad	84
33489	7	Sololá	710	Panajachel	8	Panajachel	4	Abril	2023-04-27T00:00:00	2024-11-08T03:00:00	6	Velocidad del viento	3.2
33490	7	Sololá	710	Panajachel	8	Panajachel	4	Abril	2023-04-27T00:00:00	2024-11-08T03:00:00	7	Dirección del viento	3.22
33491	7	Sololá	710	Panajachel	8	Panajachel	4	Abril	2023-04-27T00:00:00	2024-11-08T03:00:00	1	Precipitación	0
33492	7	Sololá	710	Panajachel	8	Panajachel	4	Abril	2023-04-27T00:00:00	2024-11-08T03:00:00	8	Radiación solar	0
33493	7	Sololá	710	Panajachel	8	Panajachel	4	Abril	2023-04-27T00:00:00	2024-11-08T04:00:00	2	Temperatura media	17
33494	7	Sololá	710	Panajachel	8	Panajachel	4	Abril	2023-04-27T00:00:00	2024-11-08T04:00:00	4	Temperatura máxima	17.3
33495	7	Sololá	710	Panajachel	8	Panajachel	4	Abril	2023-04-27T00:00:00	2024-11-08T04:00:00	3	Temperatura mínima	16.9
33496	7	Sololá	710	Panajachel	8	Panajachel	4	Abril	2023-04-27T00:00:00	2024-11-08T04:00:00	5	Humedad	84
33497	7	Sololá	710	Panajachel	8	Panajachel	4	Abril	2023-04-27T00:00:00	2024-11-08T04:00:00	6	Velocidad del viento	1.6
33498	7	Sololá	710	Panajachel	8	Panajachel	4	Abril	2023-04-27T00:00:00	2024-11-08T04:00:00	7	Dirección del viento	1.61
33499	7	Sololá	710	Panajachel	8	Panajachel	4	Abril	2023-04-27T00:00:00	2024-11-08T04:00:00	1	Precipitación	0
33500	7	Sololá	710	Panajachel	8	Panajachel	4	Abril	2023-04-27T00:00:00	2024-11-08T04:00:00	8	Radiación solar	0
33501	7	Sololá	710	Panajachel	8	Panajachel	4	Abril	2023-04-27T00:00:00	2024-11-08T05:00:00	2	Temperatura media	16.7
33502	7	Sololá	710	Panajachel	8	Panajachel	4	Abril	2023-04-27T00:00:00	2024-11-08T05:00:00	4	Temperatura máxima	17
33503	7	Sololá	710	Panajachel	8	Panajachel	4	Abril	2023-04-27T00:00:00	2024-11-08T05:00:00	3	Temperatura mínima	16.6
33504	7	Sololá	710	Panajachel	8	Panajachel	4	Abril	2023-04-27T00:00:00	2024-11-08T05:00:00	5	Humedad	82
33505	7	Sololá	710	Panajachel	8	Panajachel	4	Abril	2023-04-27T00:00:00	2024-11-08T05:00:00	6	Velocidad del viento	3.2
33506	7	Sololá	710	Panajachel	8	Panajachel	4	Abril	2023-04-27T00:00:00	2024-11-08T05:00:00	7	Dirección del viento	3.22
33507	7	Sololá	710	Panajachel	8	Panajachel	4	Abril	2023-04-27T00:00:00	2024-11-08T05:00:00	1	Precipitación	0
33508	7	Sololá	710	Panajachel	8	Panajachel	4	Abril	2023-04-27T00:00:00	2024-11-08T05:00:00	8	Radiación solar	0
33509	7	Sololá	710	Panajachel	8	Panajachel	4	Abril	2023-04-27T00:00:00	2024-11-08T06:00:00	2	Temperatura media	16.3
33510	7	Sololá	710	Panajachel	8	Panajachel	4	Abril	2023-04-27T00:00:00	2024-11-08T06:00:00	4	Temperatura máxima	16.9
33511	7	Sololá	710	Panajachel	8	Panajachel	4	Abril	2023-04-27T00:00:00	2024-11-08T06:00:00	3	Temperatura mínima	16.2
33512	7	Sololá	710	Panajachel	8	Panajachel	4	Abril	2023-04-27T00:00:00	2024-11-08T06:00:00	5	Humedad	84
33513	7	Sololá	710	Panajachel	8	Panajachel	4	Abril	2023-04-27T00:00:00	2024-11-08T06:00:00	6	Velocidad del viento	3.2
33514	7	Sololá	710	Panajachel	8	Panajachel	4	Abril	2023-04-27T00:00:00	2024-11-08T06:00:00	7	Dirección del viento	3.22
33515	7	Sololá	710	Panajachel	8	Panajachel	4	Abril	2023-04-27T00:00:00	2024-11-08T06:00:00	1	Precipitación	0
33516	7	Sololá	710	Panajachel	8	Panajachel	4	Abril	2023-04-27T00:00:00	2024-11-08T06:00:00	8	Radiación solar	1
33517	7	Sololá	710	Panajachel	8	Panajachel	4	Abril	2023-04-27T00:00:00	2024-11-08T07:00:00	2	Temperatura media	17.9
33518	7	Sololá	710	Panajachel	8	Panajachel	4	Abril	2023-04-27T00:00:00	2024-11-08T07:00:00	4	Temperatura máxima	17.9
33519	7	Sololá	710	Panajachel	8	Panajachel	4	Abril	2023-04-27T00:00:00	2024-11-08T07:00:00	3	Temperatura mínima	16.3
33520	7	Sololá	710	Panajachel	8	Panajachel	4	Abril	2023-04-27T00:00:00	2024-11-08T07:00:00	5	Humedad	79
33521	7	Sololá	710	Panajachel	8	Panajachel	4	Abril	2023-04-27T00:00:00	2024-11-08T07:00:00	6	Velocidad del viento	3.2
33522	7	Sololá	710	Panajachel	8	Panajachel	4	Abril	2023-04-27T00:00:00	2024-11-08T07:00:00	7	Dirección del viento	3.22
33523	7	Sololá	710	Panajachel	8	Panajachel	4	Abril	2023-04-27T00:00:00	2024-11-08T07:00:00	1	Precipitación	0
33524	7	Sololá	710	Panajachel	8	Panajachel	4	Abril	2023-04-27T00:00:00	2024-11-08T07:00:00	8	Radiación solar	74
33525	7	Sololá	710	Panajachel	8	Panajachel	4	Abril	2023-04-27T00:00:00	2024-11-08T08:00:00	2	Temperatura media	20.4
33526	7	Sololá	710	Panajachel	8	Panajachel	4	Abril	2023-04-27T00:00:00	2024-11-08T08:00:00	4	Temperatura máxima	20.8
33527	7	Sololá	710	Panajachel	8	Panajachel	4	Abril	2023-04-27T00:00:00	2024-11-08T08:00:00	3	Temperatura mínima	17.9
33528	7	Sololá	710	Panajachel	8	Panajachel	4	Abril	2023-04-27T00:00:00	2024-11-08T08:00:00	5	Humedad	78
33529	7	Sololá	710	Panajachel	8	Panajachel	4	Abril	2023-04-27T00:00:00	2024-11-08T08:00:00	6	Velocidad del viento	0
33530	7	Sololá	710	Panajachel	8	Panajachel	4	Abril	2023-04-27T00:00:00	2024-11-08T08:00:00	7	Dirección del viento	0
33531	7	Sololá	710	Panajachel	8	Panajachel	4	Abril	2023-04-27T00:00:00	2024-11-08T08:00:00	1	Precipitación	0
33532	7	Sololá	710	Panajachel	8	Panajachel	4	Abril	2023-04-27T00:00:00	2024-11-08T08:00:00	8	Radiación solar	275
33533	7	Sololá	710	Panajachel	8	Panajachel	4	Abril	2023-04-27T00:00:00	2024-11-08T09:00:00	2	Temperatura media	21
33534	7	Sololá	710	Panajachel	8	Panajachel	4	Abril	2023-04-27T00:00:00	2024-11-08T09:00:00	4	Temperatura máxima	21.1
33535	7	Sololá	710	Panajachel	8	Panajachel	4	Abril	2023-04-27T00:00:00	2024-11-08T09:00:00	3	Temperatura mínima	20
33536	7	Sololá	710	Panajachel	8	Panajachel	4	Abril	2023-04-27T00:00:00	2024-11-08T09:00:00	5	Humedad	80
33537	7	Sololá	710	Panajachel	8	Panajachel	4	Abril	2023-04-27T00:00:00	2024-11-08T09:00:00	6	Velocidad del viento	1.6
33538	7	Sololá	710	Panajachel	8	Panajachel	4	Abril	2023-04-27T00:00:00	2024-11-08T09:00:00	7	Dirección del viento	1.61
33539	7	Sololá	710	Panajachel	8	Panajachel	4	Abril	2023-04-27T00:00:00	2024-11-08T09:00:00	1	Precipitación	0
33540	7	Sololá	710	Panajachel	8	Panajachel	4	Abril	2023-04-27T00:00:00	2024-11-08T09:00:00	8	Radiación solar	505
33541	7	Sololá	710	Panajachel	8	Panajachel	4	Abril	2023-04-27T00:00:00	2024-11-08T10:00:00	2	Temperatura media	21.4
33542	7	Sololá	710	Panajachel	8	Panajachel	4	Abril	2023-04-27T00:00:00	2024-11-08T10:00:00	4	Temperatura máxima	21.4
33543	7	Sololá	710	Panajachel	8	Panajachel	4	Abril	2023-04-27T00:00:00	2024-11-08T10:00:00	3	Temperatura mínima	20.8
33544	7	Sololá	710	Panajachel	8	Panajachel	4	Abril	2023-04-27T00:00:00	2024-11-08T10:00:00	5	Humedad	75
33545	7	Sololá	710	Panajachel	8	Panajachel	4	Abril	2023-04-27T00:00:00	2024-11-08T10:00:00	6	Velocidad del viento	3.2
33546	7	Sololá	710	Panajachel	8	Panajachel	4	Abril	2023-04-27T00:00:00	2024-11-08T10:00:00	7	Dirección del viento	3.22
33547	7	Sololá	710	Panajachel	8	Panajachel	4	Abril	2023-04-27T00:00:00	2024-11-08T10:00:00	1	Precipitación	0
33548	7	Sololá	710	Panajachel	8	Panajachel	4	Abril	2023-04-27T00:00:00	2024-11-08T10:00:00	8	Radiación solar	701
33549	7	Sololá	710	Panajachel	8	Panajachel	4	Abril	2023-04-27T00:00:00	2024-11-08T11:00:00	2	Temperatura media	22.6
33550	7	Sololá	710	Panajachel	8	Panajachel	4	Abril	2023-04-27T00:00:00	2024-11-08T11:00:00	4	Temperatura máxima	23.6
33551	7	Sololá	710	Panajachel	8	Panajachel	4	Abril	2023-04-27T00:00:00	2024-11-08T11:00:00	3	Temperatura mínima	21.4
33552	7	Sololá	710	Panajachel	8	Panajachel	4	Abril	2023-04-27T00:00:00	2024-11-08T11:00:00	5	Humedad	75
33553	7	Sololá	710	Panajachel	8	Panajachel	4	Abril	2023-04-27T00:00:00	2024-11-08T11:00:00	6	Velocidad del viento	3.2
33554	7	Sololá	710	Panajachel	8	Panajachel	4	Abril	2023-04-27T00:00:00	2024-11-08T11:00:00	7	Dirección del viento	3.22
33555	7	Sololá	710	Panajachel	8	Panajachel	4	Abril	2023-04-27T00:00:00	2024-11-08T11:00:00	1	Precipitación	0
33556	7	Sololá	710	Panajachel	8	Panajachel	4	Abril	2023-04-27T00:00:00	2024-11-08T11:00:00	8	Radiación solar	836
33557	7	Sololá	710	Panajachel	8	Panajachel	4	Abril	2023-04-27T00:00:00	2024-11-08T12:00:00	2	Temperatura media	22.9
33558	7	Sololá	710	Panajachel	8	Panajachel	4	Abril	2023-04-27T00:00:00	2024-11-08T12:00:00	4	Temperatura máxima	23.2
33559	7	Sololá	710	Panajachel	8	Panajachel	4	Abril	2023-04-27T00:00:00	2024-11-08T12:00:00	3	Temperatura mínima	22.5
33560	7	Sololá	710	Panajachel	8	Panajachel	4	Abril	2023-04-27T00:00:00	2024-11-08T12:00:00	5	Humedad	73
33561	7	Sololá	710	Panajachel	8	Panajachel	4	Abril	2023-04-27T00:00:00	2024-11-08T12:00:00	6	Velocidad del viento	4.8
33562	7	Sololá	710	Panajachel	8	Panajachel	4	Abril	2023-04-27T00:00:00	2024-11-08T12:00:00	7	Dirección del viento	4.83
33563	7	Sololá	710	Panajachel	8	Panajachel	4	Abril	2023-04-27T00:00:00	2024-11-08T12:00:00	1	Precipitación	0
33564	7	Sololá	710	Panajachel	8	Panajachel	4	Abril	2023-04-27T00:00:00	2024-11-08T12:00:00	8	Radiación solar	911
33565	7	Sololá	710	Panajachel	8	Panajachel	4	Abril	2023-04-27T00:00:00	2024-11-08T13:00:00	2	Temperatura media	23.8
33566	7	Sololá	710	Panajachel	8	Panajachel	4	Abril	2023-04-27T00:00:00	2024-11-08T13:00:00	4	Temperatura máxima	24.1
33567	7	Sololá	710	Panajachel	8	Panajachel	4	Abril	2023-04-27T00:00:00	2024-11-08T13:00:00	3	Temperatura mínima	22.9
33568	7	Sololá	710	Panajachel	8	Panajachel	4	Abril	2023-04-27T00:00:00	2024-11-08T13:00:00	5	Humedad	80
33569	7	Sololá	710	Panajachel	8	Panajachel	4	Abril	2023-04-27T00:00:00	2024-11-08T13:00:00	6	Velocidad del viento	6.4
33570	7	Sololá	710	Panajachel	8	Panajachel	4	Abril	2023-04-27T00:00:00	2024-11-08T13:00:00	7	Dirección del viento	6.44
33571	7	Sololá	710	Panajachel	8	Panajachel	4	Abril	2023-04-27T00:00:00	2024-11-08T13:00:00	1	Precipitación	0
33572	7	Sololá	710	Panajachel	8	Panajachel	4	Abril	2023-04-27T00:00:00	2024-11-08T13:00:00	8	Radiación solar	939
33573	7	Sololá	710	Panajachel	8	Panajachel	4	Abril	2023-04-27T00:00:00	2024-11-08T14:00:00	2	Temperatura media	24.2
33574	7	Sololá	710	Panajachel	8	Panajachel	4	Abril	2023-04-27T00:00:00	2024-11-08T14:00:00	4	Temperatura máxima	24.5
33575	7	Sololá	710	Panajachel	8	Panajachel	4	Abril	2023-04-27T00:00:00	2024-11-08T14:00:00	3	Temperatura mínima	23.7
33576	7	Sololá	710	Panajachel	8	Panajachel	4	Abril	2023-04-27T00:00:00	2024-11-08T14:00:00	5	Humedad	77
33577	7	Sololá	710	Panajachel	8	Panajachel	4	Abril	2023-04-27T00:00:00	2024-11-08T14:00:00	6	Velocidad del viento	6.4
33578	7	Sololá	710	Panajachel	8	Panajachel	4	Abril	2023-04-27T00:00:00	2024-11-08T14:00:00	7	Dirección del viento	6.44
33579	7	Sololá	710	Panajachel	8	Panajachel	4	Abril	2023-04-27T00:00:00	2024-11-08T14:00:00	1	Precipitación	0
33580	7	Sololá	710	Panajachel	8	Panajachel	4	Abril	2023-04-27T00:00:00	2024-11-08T14:00:00	8	Radiación solar	794
33581	7	Sololá	710	Panajachel	8	Panajachel	4	Abril	2023-04-27T00:00:00	2024-11-08T15:00:00	2	Temperatura media	22.7
33582	7	Sololá	710	Panajachel	8	Panajachel	4	Abril	2023-04-27T00:00:00	2024-11-08T15:00:00	4	Temperatura máxima	24.3
33583	7	Sololá	710	Panajachel	8	Panajachel	4	Abril	2023-04-27T00:00:00	2024-11-08T15:00:00	3	Temperatura mínima	22.6
33584	7	Sololá	710	Panajachel	8	Panajachel	4	Abril	2023-04-27T00:00:00	2024-11-08T15:00:00	5	Humedad	80
33585	7	Sololá	710	Panajachel	8	Panajachel	4	Abril	2023-04-27T00:00:00	2024-11-08T15:00:00	6	Velocidad del viento	6.4
33586	7	Sololá	710	Panajachel	8	Panajachel	4	Abril	2023-04-27T00:00:00	2024-11-08T15:00:00	7	Dirección del viento	6.44
33587	7	Sololá	710	Panajachel	8	Panajachel	4	Abril	2023-04-27T00:00:00	2024-11-08T15:00:00	1	Precipitación	0
33588	7	Sololá	710	Panajachel	8	Panajachel	4	Abril	2023-04-27T00:00:00	2024-11-08T15:00:00	8	Radiación solar	309
33589	7	Sololá	710	Panajachel	8	Panajachel	4	Abril	2023-04-27T00:00:00	2024-11-08T16:00:00	2	Temperatura media	22.2
33590	7	Sololá	710	Panajachel	8	Panajachel	4	Abril	2023-04-27T00:00:00	2024-11-08T16:00:00	4	Temperatura máxima	22.8
33591	7	Sololá	710	Panajachel	8	Panajachel	4	Abril	2023-04-27T00:00:00	2024-11-08T16:00:00	3	Temperatura mínima	22.2
33592	7	Sololá	710	Panajachel	8	Panajachel	4	Abril	2023-04-27T00:00:00	2024-11-08T16:00:00	5	Humedad	82
33593	7	Sololá	710	Panajachel	8	Panajachel	4	Abril	2023-04-27T00:00:00	2024-11-08T16:00:00	6	Velocidad del viento	4.8
33594	7	Sololá	710	Panajachel	8	Panajachel	4	Abril	2023-04-27T00:00:00	2024-11-08T16:00:00	7	Dirección del viento	4.83
33595	7	Sololá	710	Panajachel	8	Panajachel	4	Abril	2023-04-27T00:00:00	2024-11-08T16:00:00	1	Precipitación	0
33596	7	Sololá	710	Panajachel	8	Panajachel	4	Abril	2023-04-27T00:00:00	2024-11-08T16:00:00	8	Radiación solar	187
33597	7	Sololá	710	Panajachel	8	Panajachel	4	Abril	2023-04-27T00:00:00	2024-11-08T17:00:00	2	Temperatura media	21.2
33598	7	Sololá	710	Panajachel	8	Panajachel	4	Abril	2023-04-27T00:00:00	2024-11-08T17:00:00	4	Temperatura máxima	22.5
33599	7	Sololá	710	Panajachel	8	Panajachel	4	Abril	2023-04-27T00:00:00	2024-11-08T17:00:00	3	Temperatura mínima	21.2
33600	7	Sololá	710	Panajachel	8	Panajachel	4	Abril	2023-04-27T00:00:00	2024-11-08T17:00:00	5	Humedad	88
33601	7	Sololá	710	Panajachel	8	Panajachel	4	Abril	2023-04-27T00:00:00	2024-11-08T17:00:00	6	Velocidad del viento	4.8
33602	7	Sololá	710	Panajachel	8	Panajachel	4	Abril	2023-04-27T00:00:00	2024-11-08T17:00:00	7	Dirección del viento	4.83
33603	7	Sololá	710	Panajachel	8	Panajachel	4	Abril	2023-04-27T00:00:00	2024-11-08T17:00:00	1	Precipitación	0
33604	7	Sololá	710	Panajachel	8	Panajachel	4	Abril	2023-04-27T00:00:00	2024-11-08T17:00:00	8	Radiación solar	60
33605	7	Sololá	710	Panajachel	8	Panajachel	4	Abril	2023-04-27T00:00:00	2024-11-08T18:00:00	2	Temperatura media	20.3
33606	7	Sololá	710	Panajachel	8	Panajachel	4	Abril	2023-04-27T00:00:00	2024-11-08T18:00:00	4	Temperatura máxima	21.1
33607	7	Sololá	710	Panajachel	8	Panajachel	4	Abril	2023-04-27T00:00:00	2024-11-08T18:00:00	3	Temperatura mínima	20.2
33608	7	Sololá	710	Panajachel	8	Panajachel	4	Abril	2023-04-27T00:00:00	2024-11-08T18:00:00	5	Humedad	90
33609	7	Sololá	710	Panajachel	8	Panajachel	4	Abril	2023-04-27T00:00:00	2024-11-08T18:00:00	6	Velocidad del viento	3.2
33610	7	Sololá	710	Panajachel	8	Panajachel	4	Abril	2023-04-27T00:00:00	2024-11-08T18:00:00	7	Dirección del viento	3.22
33611	7	Sololá	710	Panajachel	8	Panajachel	4	Abril	2023-04-27T00:00:00	2024-11-08T18:00:00	1	Precipitación	0
33612	7	Sololá	710	Panajachel	8	Panajachel	4	Abril	2023-04-27T00:00:00	2024-11-08T18:00:00	8	Radiación solar	7
33613	7	Sololá	710	Panajachel	8	Panajachel	4	Abril	2023-04-27T00:00:00	2024-11-08T19:00:00	2	Temperatura media	20.3
33614	7	Sololá	710	Panajachel	8	Panajachel	4	Abril	2023-04-27T00:00:00	2024-11-08T19:00:00	4	Temperatura máxima	20.3
33615	7	Sololá	710	Panajachel	8	Panajachel	4	Abril	2023-04-27T00:00:00	2024-11-08T19:00:00	3	Temperatura mínima	20.1
33616	7	Sololá	710	Panajachel	8	Panajachel	4	Abril	2023-04-27T00:00:00	2024-11-08T19:00:00	5	Humedad	88
33617	7	Sololá	710	Panajachel	8	Panajachel	4	Abril	2023-04-27T00:00:00	2024-11-08T19:00:00	6	Velocidad del viento	1.6
33618	7	Sololá	710	Panajachel	8	Panajachel	4	Abril	2023-04-27T00:00:00	2024-11-08T19:00:00	7	Dirección del viento	1.61
33619	7	Sololá	710	Panajachel	8	Panajachel	4	Abril	2023-04-27T00:00:00	2024-11-08T19:00:00	1	Precipitación	0
33620	7	Sololá	710	Panajachel	8	Panajachel	4	Abril	2023-04-27T00:00:00	2024-11-08T19:00:00	8	Radiación solar	0
33621	7	Sololá	710	Panajachel	8	Panajachel	4	Abril	2023-04-27T00:00:00	2024-11-08T20:00:00	2	Temperatura media	20.3
33622	7	Sololá	710	Panajachel	8	Panajachel	4	Abril	2023-04-27T00:00:00	2024-11-08T20:00:00	4	Temperatura máxima	20.4
33623	7	Sololá	710	Panajachel	8	Panajachel	4	Abril	2023-04-27T00:00:00	2024-11-08T20:00:00	3	Temperatura mínima	20.2
33624	7	Sololá	710	Panajachel	8	Panajachel	4	Abril	2023-04-27T00:00:00	2024-11-08T20:00:00	5	Humedad	89
33625	7	Sololá	710	Panajachel	8	Panajachel	4	Abril	2023-04-27T00:00:00	2024-11-08T20:00:00	6	Velocidad del viento	1.6
33626	7	Sololá	710	Panajachel	8	Panajachel	4	Abril	2023-04-27T00:00:00	2024-11-08T20:00:00	7	Dirección del viento	1.61
33627	7	Sololá	710	Panajachel	8	Panajachel	4	Abril	2023-04-27T00:00:00	2024-11-08T20:00:00	1	Precipitación	0
33628	7	Sololá	710	Panajachel	8	Panajachel	4	Abril	2023-04-27T00:00:00	2024-11-08T20:00:00	8	Radiación solar	0
33629	7	Sololá	710	Panajachel	8	Panajachel	4	Abril	2023-04-27T00:00:00	2024-11-08T21:00:00	2	Temperatura media	19.9
33630	7	Sololá	710	Panajachel	8	Panajachel	4	Abril	2023-04-27T00:00:00	2024-11-08T21:00:00	4	Temperatura máxima	20.3
33631	7	Sololá	710	Panajachel	8	Panajachel	4	Abril	2023-04-27T00:00:00	2024-11-08T21:00:00	3	Temperatura mínima	19.8
33632	7	Sololá	710	Panajachel	8	Panajachel	4	Abril	2023-04-27T00:00:00	2024-11-08T21:00:00	5	Humedad	90
33633	7	Sololá	710	Panajachel	8	Panajachel	4	Abril	2023-04-27T00:00:00	2024-11-08T21:00:00	6	Velocidad del viento	1.6
33634	7	Sololá	710	Panajachel	8	Panajachel	4	Abril	2023-04-27T00:00:00	2024-11-08T21:00:00	7	Dirección del viento	1.61
33635	7	Sololá	710	Panajachel	8	Panajachel	4	Abril	2023-04-27T00:00:00	2024-11-08T21:00:00	1	Precipitación	0
33636	7	Sololá	710	Panajachel	8	Panajachel	4	Abril	2023-04-27T00:00:00	2024-11-08T21:00:00	8	Radiación solar	0
33637	7	Sololá	710	Panajachel	8	Panajachel	4	Abril	2023-04-27T00:00:00	2024-11-08T22:00:00	2	Temperatura media	19.9
33638	7	Sololá	710	Panajachel	8	Panajachel	4	Abril	2023-04-27T00:00:00	2024-11-08T22:00:00	4	Temperatura máxima	20
33639	7	Sololá	710	Panajachel	8	Panajachel	4	Abril	2023-04-27T00:00:00	2024-11-08T22:00:00	3	Temperatura mínima	19.8
33640	7	Sololá	710	Panajachel	8	Panajachel	4	Abril	2023-04-27T00:00:00	2024-11-08T22:00:00	5	Humedad	91
33641	7	Sololá	710	Panajachel	8	Panajachel	4	Abril	2023-04-27T00:00:00	2024-11-08T22:00:00	6	Velocidad del viento	1.6
33642	7	Sololá	710	Panajachel	8	Panajachel	4	Abril	2023-04-27T00:00:00	2024-11-08T22:00:00	7	Dirección del viento	1.61
33643	7	Sololá	710	Panajachel	8	Panajachel	4	Abril	2023-04-27T00:00:00	2024-11-08T22:00:00	1	Precipitación	0
33644	7	Sololá	710	Panajachel	8	Panajachel	4	Abril	2023-04-27T00:00:00	2024-11-08T22:00:00	8	Radiación solar	0
33645	7	Sololá	710	Panajachel	8	Panajachel	4	Abril	2023-04-27T00:00:00	2024-11-08T23:00:00	2	Temperatura media	19.6
33646	7	Sololá	710	Panajachel	8	Panajachel	4	Abril	2023-04-27T00:00:00	2024-11-08T23:00:00	4	Temperatura máxima	19.9
33647	7	Sololá	710	Panajachel	8	Panajachel	4	Abril	2023-04-27T00:00:00	2024-11-08T23:00:00	3	Temperatura mínima	19.5
33648	7	Sololá	710	Panajachel	8	Panajachel	4	Abril	2023-04-27T00:00:00	2024-11-08T23:00:00	5	Humedad	91
33649	7	Sololá	710	Panajachel	8	Panajachel	4	Abril	2023-04-27T00:00:00	2024-11-08T23:00:00	6	Velocidad del viento	0
33650	7	Sololá	710	Panajachel	8	Panajachel	4	Abril	2023-04-27T00:00:00	2024-11-08T23:00:00	7	Dirección del viento	0
33651	7	Sololá	710	Panajachel	8	Panajachel	4	Abril	2023-04-27T00:00:00	2024-11-08T23:00:00	1	Precipitación	0
33652	7	Sololá	710	Panajachel	8	Panajachel	4	Abril	2023-04-27T00:00:00	2024-11-08T23:00:00	8	Radiación solar	0
33653	7	Sololá	710	Panajachel	8	Panajachel	4	Abril	2023-04-28T00:00:00	2024-11-08T00:00:00	2	Temperatura media	19.4
33654	7	Sololá	710	Panajachel	8	Panajachel	4	Abril	2023-04-28T00:00:00	2024-11-08T00:00:00	4	Temperatura máxima	19.6
33655	7	Sololá	710	Panajachel	8	Panajachel	4	Abril	2023-04-28T00:00:00	2024-11-08T00:00:00	3	Temperatura mínima	19.4
33656	7	Sololá	710	Panajachel	8	Panajachel	4	Abril	2023-04-28T00:00:00	2024-11-08T00:00:00	5	Humedad	90
33657	7	Sololá	710	Panajachel	8	Panajachel	4	Abril	2023-04-28T00:00:00	2024-11-08T00:00:00	6	Velocidad del viento	0
33658	7	Sololá	710	Panajachel	8	Panajachel	4	Abril	2023-04-28T00:00:00	2024-11-08T00:00:00	7	Dirección del viento	0
33659	7	Sololá	710	Panajachel	8	Panajachel	4	Abril	2023-04-28T00:00:00	2024-11-08T00:00:00	1	Precipitación	0
33660	7	Sololá	710	Panajachel	8	Panajachel	4	Abril	2023-04-28T00:00:00	2024-11-08T00:00:00	8	Radiación solar	0
33661	7	Sololá	710	Panajachel	8	Panajachel	4	Abril	2023-04-28T00:00:00	2024-11-08T01:00:00	2	Temperatura media	19.6
33662	7	Sololá	710	Panajachel	8	Panajachel	4	Abril	2023-04-28T00:00:00	2024-11-08T01:00:00	4	Temperatura máxima	19.7
33663	7	Sololá	710	Panajachel	8	Panajachel	4	Abril	2023-04-28T00:00:00	2024-11-08T01:00:00	3	Temperatura mínima	19.4
33664	7	Sololá	710	Panajachel	8	Panajachel	4	Abril	2023-04-28T00:00:00	2024-11-08T01:00:00	5	Humedad	90
33665	7	Sololá	710	Panajachel	8	Panajachel	4	Abril	2023-04-28T00:00:00	2024-11-08T01:00:00	6	Velocidad del viento	0
33666	7	Sololá	710	Panajachel	8	Panajachel	4	Abril	2023-04-28T00:00:00	2024-11-08T01:00:00	7	Dirección del viento	0
33667	7	Sololá	710	Panajachel	8	Panajachel	4	Abril	2023-04-28T00:00:00	2024-11-08T01:00:00	1	Precipitación	0
33668	7	Sololá	710	Panajachel	8	Panajachel	4	Abril	2023-04-28T00:00:00	2024-11-08T01:00:00	8	Radiación solar	0
33669	7	Sololá	710	Panajachel	8	Panajachel	4	Abril	2023-04-28T00:00:00	2024-11-08T02:00:00	2	Temperatura media	19.3
33670	7	Sololá	710	Panajachel	8	Panajachel	4	Abril	2023-04-28T00:00:00	2024-11-08T02:00:00	4	Temperatura máxima	19.8
33671	7	Sololá	710	Panajachel	8	Panajachel	4	Abril	2023-04-28T00:00:00	2024-11-08T02:00:00	3	Temperatura mínima	19.3
33672	7	Sololá	710	Panajachel	8	Panajachel	4	Abril	2023-04-28T00:00:00	2024-11-08T02:00:00	5	Humedad	86
33673	7	Sololá	710	Panajachel	8	Panajachel	4	Abril	2023-04-28T00:00:00	2024-11-08T02:00:00	6	Velocidad del viento	1.6
33674	7	Sololá	710	Panajachel	8	Panajachel	4	Abril	2023-04-28T00:00:00	2024-11-08T02:00:00	7	Dirección del viento	1.61
33675	7	Sololá	710	Panajachel	8	Panajachel	4	Abril	2023-04-28T00:00:00	2024-11-08T02:00:00	1	Precipitación	0
33676	7	Sololá	710	Panajachel	8	Panajachel	4	Abril	2023-04-28T00:00:00	2024-11-08T02:00:00	8	Radiación solar	0
33677	7	Sololá	710	Panajachel	8	Panajachel	4	Abril	2023-04-28T00:00:00	2024-11-08T03:00:00	2	Temperatura media	18.6
33678	7	Sololá	710	Panajachel	8	Panajachel	4	Abril	2023-04-28T00:00:00	2024-11-08T03:00:00	4	Temperatura máxima	19.3
33679	7	Sololá	710	Panajachel	8	Panajachel	4	Abril	2023-04-28T00:00:00	2024-11-08T03:00:00	3	Temperatura mínima	18.6
33680	7	Sololá	710	Panajachel	8	Panajachel	4	Abril	2023-04-28T00:00:00	2024-11-08T03:00:00	5	Humedad	85
33681	7	Sololá	710	Panajachel	8	Panajachel	4	Abril	2023-04-28T00:00:00	2024-11-08T03:00:00	6	Velocidad del viento	1.6
33682	7	Sololá	710	Panajachel	8	Panajachel	4	Abril	2023-04-28T00:00:00	2024-11-08T03:00:00	7	Dirección del viento	1.61
33683	7	Sololá	710	Panajachel	8	Panajachel	4	Abril	2023-04-28T00:00:00	2024-11-08T03:00:00	1	Precipitación	0
33684	7	Sololá	710	Panajachel	8	Panajachel	4	Abril	2023-04-28T00:00:00	2024-11-08T03:00:00	8	Radiación solar	0
33685	7	Sololá	710	Panajachel	8	Panajachel	4	Abril	2023-04-28T00:00:00	2024-11-08T04:00:00	2	Temperatura media	17.8
33686	7	Sololá	710	Panajachel	8	Panajachel	4	Abril	2023-04-28T00:00:00	2024-11-08T04:00:00	4	Temperatura máxima	18.6
33687	7	Sololá	710	Panajachel	8	Panajachel	4	Abril	2023-04-28T00:00:00	2024-11-08T04:00:00	3	Temperatura mínima	17.8
33688	7	Sololá	710	Panajachel	8	Panajachel	4	Abril	2023-04-28T00:00:00	2024-11-08T04:00:00	5	Humedad	86
33689	7	Sololá	710	Panajachel	8	Panajachel	4	Abril	2023-04-28T00:00:00	2024-11-08T04:00:00	6	Velocidad del viento	1.6
33690	7	Sololá	710	Panajachel	8	Panajachel	4	Abril	2023-04-28T00:00:00	2024-11-08T04:00:00	7	Dirección del viento	1.61
33691	7	Sololá	710	Panajachel	8	Panajachel	4	Abril	2023-04-28T00:00:00	2024-11-08T04:00:00	1	Precipitación	0
33692	7	Sololá	710	Panajachel	8	Panajachel	4	Abril	2023-04-28T00:00:00	2024-11-08T04:00:00	8	Radiación solar	0
33693	7	Sololá	710	Panajachel	8	Panajachel	4	Abril	2023-04-28T00:00:00	2024-11-08T05:00:00	2	Temperatura media	17.8
33694	7	Sololá	710	Panajachel	8	Panajachel	4	Abril	2023-04-28T00:00:00	2024-11-08T05:00:00	4	Temperatura máxima	17.8
33695	7	Sololá	710	Panajachel	8	Panajachel	4	Abril	2023-04-28T00:00:00	2024-11-08T05:00:00	3	Temperatura mínima	17.6
33696	7	Sololá	710	Panajachel	8	Panajachel	4	Abril	2023-04-28T00:00:00	2024-11-08T05:00:00	5	Humedad	85
33697	7	Sololá	710	Panajachel	8	Panajachel	4	Abril	2023-04-28T00:00:00	2024-11-08T05:00:00	6	Velocidad del viento	1.6
33698	7	Sololá	710	Panajachel	8	Panajachel	4	Abril	2023-04-28T00:00:00	2024-11-08T05:00:00	7	Dirección del viento	1.61
33699	7	Sololá	710	Panajachel	8	Panajachel	4	Abril	2023-04-28T00:00:00	2024-11-08T05:00:00	1	Precipitación	0
33700	7	Sololá	710	Panajachel	8	Panajachel	4	Abril	2023-04-28T00:00:00	2024-11-08T05:00:00	8	Radiación solar	0
33701	7	Sololá	710	Panajachel	8	Panajachel	4	Abril	2023-04-28T00:00:00	2024-11-08T06:00:00	2	Temperatura media	18.3
33702	7	Sololá	710	Panajachel	8	Panajachel	4	Abril	2023-04-28T00:00:00	2024-11-08T06:00:00	4	Temperatura máxima	18.4
33703	7	Sololá	710	Panajachel	8	Panajachel	4	Abril	2023-04-28T00:00:00	2024-11-08T06:00:00	3	Temperatura mínima	17.8
33704	7	Sololá	710	Panajachel	8	Panajachel	4	Abril	2023-04-28T00:00:00	2024-11-08T06:00:00	5	Humedad	84
33705	7	Sololá	710	Panajachel	8	Panajachel	4	Abril	2023-04-28T00:00:00	2024-11-08T06:00:00	6	Velocidad del viento	1.6
33706	7	Sololá	710	Panajachel	8	Panajachel	4	Abril	2023-04-28T00:00:00	2024-11-08T06:00:00	7	Dirección del viento	1.61
33707	7	Sololá	710	Panajachel	8	Panajachel	4	Abril	2023-04-28T00:00:00	2024-11-08T06:00:00	1	Precipitación	0
33708	7	Sololá	710	Panajachel	8	Panajachel	4	Abril	2023-04-28T00:00:00	2024-11-08T06:00:00	8	Radiación solar	1
33709	7	Sololá	710	Panajachel	8	Panajachel	4	Abril	2023-04-28T00:00:00	2024-11-08T07:00:00	2	Temperatura media	18.8
33710	7	Sololá	710	Panajachel	8	Panajachel	4	Abril	2023-04-28T00:00:00	2024-11-08T07:00:00	4	Temperatura máxima	18.8
33711	7	Sololá	710	Panajachel	8	Panajachel	4	Abril	2023-04-28T00:00:00	2024-11-08T07:00:00	3	Temperatura mínima	18.2
33712	7	Sololá	710	Panajachel	8	Panajachel	4	Abril	2023-04-28T00:00:00	2024-11-08T07:00:00	5	Humedad	80
33713	7	Sololá	710	Panajachel	8	Panajachel	4	Abril	2023-04-28T00:00:00	2024-11-08T07:00:00	6	Velocidad del viento	3.2
33714	7	Sololá	710	Panajachel	8	Panajachel	4	Abril	2023-04-28T00:00:00	2024-11-08T07:00:00	7	Dirección del viento	3.22
33715	7	Sololá	710	Panajachel	8	Panajachel	4	Abril	2023-04-28T00:00:00	2024-11-08T07:00:00	1	Precipitación	0
33716	7	Sololá	710	Panajachel	8	Panajachel	4	Abril	2023-04-28T00:00:00	2024-11-08T07:00:00	8	Radiación solar	74
33717	7	Sololá	710	Panajachel	8	Panajachel	4	Abril	2023-04-28T00:00:00	2024-11-08T08:00:00	2	Temperatura media	21.2
33718	7	Sololá	710	Panajachel	8	Panajachel	4	Abril	2023-04-28T00:00:00	2024-11-08T08:00:00	4	Temperatura máxima	21.3
33719	7	Sololá	710	Panajachel	8	Panajachel	4	Abril	2023-04-28T00:00:00	2024-11-08T08:00:00	3	Temperatura mínima	18.7
33720	7	Sololá	710	Panajachel	8	Panajachel	4	Abril	2023-04-28T00:00:00	2024-11-08T08:00:00	5	Humedad	78
33721	7	Sololá	710	Panajachel	8	Panajachel	4	Abril	2023-04-28T00:00:00	2024-11-08T08:00:00	6	Velocidad del viento	1.6
33722	7	Sololá	710	Panajachel	8	Panajachel	4	Abril	2023-04-28T00:00:00	2024-11-08T08:00:00	7	Dirección del viento	1.61
33723	7	Sololá	710	Panajachel	8	Panajachel	4	Abril	2023-04-28T00:00:00	2024-11-08T08:00:00	1	Precipitación	0
33724	7	Sololá	710	Panajachel	8	Panajachel	4	Abril	2023-04-28T00:00:00	2024-11-08T08:00:00	8	Radiación solar	270
33725	7	Sololá	710	Panajachel	8	Panajachel	4	Abril	2023-04-28T00:00:00	2024-11-08T09:00:00	2	Temperatura media	21.8
33726	7	Sololá	710	Panajachel	8	Panajachel	4	Abril	2023-04-28T00:00:00	2024-11-08T09:00:00	4	Temperatura máxima	21.9
33727	7	Sololá	710	Panajachel	8	Panajachel	4	Abril	2023-04-28T00:00:00	2024-11-08T09:00:00	3	Temperatura mínima	20.7
33728	7	Sololá	710	Panajachel	8	Panajachel	4	Abril	2023-04-28T00:00:00	2024-11-08T09:00:00	5	Humedad	77
33729	7	Sololá	710	Panajachel	8	Panajachel	4	Abril	2023-04-28T00:00:00	2024-11-08T09:00:00	6	Velocidad del viento	1.6
33730	7	Sololá	710	Panajachel	8	Panajachel	4	Abril	2023-04-28T00:00:00	2024-11-08T09:00:00	7	Dirección del viento	1.61
33731	7	Sololá	710	Panajachel	8	Panajachel	4	Abril	2023-04-28T00:00:00	2024-11-08T09:00:00	1	Precipitación	0
33732	7	Sololá	710	Panajachel	8	Panajachel	4	Abril	2023-04-28T00:00:00	2024-11-08T09:00:00	8	Radiación solar	495
33733	7	Sololá	710	Panajachel	8	Panajachel	4	Abril	2023-04-28T00:00:00	2024-11-08T10:00:00	2	Temperatura media	23.2
33734	7	Sololá	710	Panajachel	8	Panajachel	4	Abril	2023-04-28T00:00:00	2024-11-08T10:00:00	4	Temperatura máxima	23.2
33735	7	Sololá	710	Panajachel	8	Panajachel	4	Abril	2023-04-28T00:00:00	2024-11-08T10:00:00	3	Temperatura mínima	21.7
33736	7	Sololá	710	Panajachel	8	Panajachel	4	Abril	2023-04-28T00:00:00	2024-11-08T10:00:00	5	Humedad	75
33737	7	Sololá	710	Panajachel	8	Panajachel	4	Abril	2023-04-28T00:00:00	2024-11-08T10:00:00	6	Velocidad del viento	1.6
33738	7	Sololá	710	Panajachel	8	Panajachel	4	Abril	2023-04-28T00:00:00	2024-11-08T10:00:00	7	Dirección del viento	1.61
33739	7	Sololá	710	Panajachel	8	Panajachel	4	Abril	2023-04-28T00:00:00	2024-11-08T10:00:00	1	Precipitación	0
33740	7	Sololá	710	Panajachel	8	Panajachel	4	Abril	2023-04-28T00:00:00	2024-11-08T10:00:00	8	Radiación solar	683
33741	7	Sololá	710	Panajachel	8	Panajachel	4	Abril	2023-04-28T00:00:00	2024-11-08T11:00:00	2	Temperatura media	22.9
33742	7	Sololá	710	Panajachel	8	Panajachel	4	Abril	2023-04-28T00:00:00	2024-11-08T11:00:00	4	Temperatura máxima	24.1
33743	7	Sololá	710	Panajachel	8	Panajachel	4	Abril	2023-04-28T00:00:00	2024-11-08T11:00:00	3	Temperatura mínima	22.6
33744	7	Sololá	710	Panajachel	8	Panajachel	4	Abril	2023-04-28T00:00:00	2024-11-08T11:00:00	5	Humedad	74
33745	7	Sololá	710	Panajachel	8	Panajachel	4	Abril	2023-04-28T00:00:00	2024-11-08T11:00:00	6	Velocidad del viento	3.2
33746	7	Sololá	710	Panajachel	8	Panajachel	4	Abril	2023-04-28T00:00:00	2024-11-08T11:00:00	7	Dirección del viento	3.22
33747	7	Sololá	710	Panajachel	8	Panajachel	4	Abril	2023-04-28T00:00:00	2024-11-08T11:00:00	1	Precipitación	0
33748	7	Sololá	710	Panajachel	8	Panajachel	4	Abril	2023-04-28T00:00:00	2024-11-08T11:00:00	8	Radiación solar	827
33749	7	Sololá	710	Panajachel	8	Panajachel	4	Abril	2023-04-28T00:00:00	2024-11-08T12:00:00	2	Temperatura media	24.4
33750	7	Sololá	710	Panajachel	8	Panajachel	4	Abril	2023-04-28T00:00:00	2024-11-08T12:00:00	4	Temperatura máxima	24.6
33751	7	Sololá	710	Panajachel	8	Panajachel	4	Abril	2023-04-28T00:00:00	2024-11-08T12:00:00	3	Temperatura mínima	22.8
33752	7	Sololá	710	Panajachel	8	Panajachel	4	Abril	2023-04-28T00:00:00	2024-11-08T12:00:00	5	Humedad	77
33753	7	Sololá	710	Panajachel	8	Panajachel	4	Abril	2023-04-28T00:00:00	2024-11-08T12:00:00	6	Velocidad del viento	4.8
33754	7	Sololá	710	Panajachel	8	Panajachel	4	Abril	2023-04-28T00:00:00	2024-11-08T12:00:00	7	Dirección del viento	4.83
33755	7	Sololá	710	Panajachel	8	Panajachel	4	Abril	2023-04-28T00:00:00	2024-11-08T12:00:00	1	Precipitación	0
33756	7	Sololá	710	Panajachel	8	Panajachel	4	Abril	2023-04-28T00:00:00	2024-11-08T12:00:00	8	Radiación solar	887
33757	7	Sololá	710	Panajachel	8	Panajachel	4	Abril	2023-04-28T00:00:00	2024-11-08T13:00:00	2	Temperatura media	23.3
33758	7	Sololá	710	Panajachel	8	Panajachel	4	Abril	2023-04-28T00:00:00	2024-11-08T13:00:00	4	Temperatura máxima	24.4
33759	7	Sololá	710	Panajachel	8	Panajachel	4	Abril	2023-04-28T00:00:00	2024-11-08T13:00:00	3	Temperatura mínima	23.1
33760	7	Sololá	710	Panajachel	8	Panajachel	4	Abril	2023-04-28T00:00:00	2024-11-08T13:00:00	5	Humedad	79
33761	7	Sololá	710	Panajachel	8	Panajachel	4	Abril	2023-04-28T00:00:00	2024-11-08T13:00:00	6	Velocidad del viento	6.4
33762	7	Sololá	710	Panajachel	8	Panajachel	4	Abril	2023-04-28T00:00:00	2024-11-08T13:00:00	7	Dirección del viento	6.44
33763	7	Sololá	710	Panajachel	8	Panajachel	4	Abril	2023-04-28T00:00:00	2024-11-08T13:00:00	1	Precipitación	0
33764	7	Sololá	710	Panajachel	8	Panajachel	4	Abril	2023-04-28T00:00:00	2024-11-08T13:00:00	8	Radiación solar	614
33765	7	Sololá	710	Panajachel	8	Panajachel	4	Abril	2023-04-28T00:00:00	2024-11-08T14:00:00	2	Temperatura media	22.3
33766	7	Sololá	710	Panajachel	8	Panajachel	4	Abril	2023-04-28T00:00:00	2024-11-08T14:00:00	4	Temperatura máxima	24.1
33767	7	Sololá	710	Panajachel	8	Panajachel	4	Abril	2023-04-28T00:00:00	2024-11-08T14:00:00	3	Temperatura mínima	22.3
33768	7	Sololá	710	Panajachel	8	Panajachel	4	Abril	2023-04-28T00:00:00	2024-11-08T14:00:00	5	Humedad	84
33769	7	Sololá	710	Panajachel	8	Panajachel	4	Abril	2023-04-28T00:00:00	2024-11-08T14:00:00	6	Velocidad del viento	4.8
33770	7	Sololá	710	Panajachel	8	Panajachel	4	Abril	2023-04-28T00:00:00	2024-11-08T14:00:00	7	Dirección del viento	4.83
33771	7	Sololá	710	Panajachel	8	Panajachel	4	Abril	2023-04-28T00:00:00	2024-11-08T14:00:00	1	Precipitación	0
33772	7	Sololá	710	Panajachel	8	Panajachel	4	Abril	2023-04-28T00:00:00	2024-11-08T14:00:00	8	Radiación solar	154
33773	7	Sololá	710	Panajachel	8	Panajachel	4	Abril	2023-04-28T00:00:00	2024-11-08T15:00:00	2	Temperatura media	22.2
33774	7	Sololá	710	Panajachel	8	Panajachel	4	Abril	2023-04-28T00:00:00	2024-11-08T15:00:00	4	Temperatura máxima	22.7
33775	7	Sololá	710	Panajachel	8	Panajachel	4	Abril	2023-04-28T00:00:00	2024-11-08T15:00:00	3	Temperatura mínima	22.2
33776	7	Sololá	710	Panajachel	8	Panajachel	4	Abril	2023-04-28T00:00:00	2024-11-08T15:00:00	5	Humedad	86
33777	7	Sololá	710	Panajachel	8	Panajachel	4	Abril	2023-04-28T00:00:00	2024-11-08T15:00:00	6	Velocidad del viento	4.8
33778	7	Sololá	710	Panajachel	8	Panajachel	4	Abril	2023-04-28T00:00:00	2024-11-08T15:00:00	7	Dirección del viento	4.83
33779	7	Sololá	710	Panajachel	8	Panajachel	4	Abril	2023-04-28T00:00:00	2024-11-08T15:00:00	1	Precipitación	0
33780	7	Sololá	710	Panajachel	8	Panajachel	4	Abril	2023-04-28T00:00:00	2024-11-08T15:00:00	8	Radiación solar	162
33781	7	Sololá	710	Panajachel	8	Panajachel	4	Abril	2023-04-28T00:00:00	2024-11-08T16:00:00	2	Temperatura media	20.8
33782	7	Sololá	710	Panajachel	8	Panajachel	4	Abril	2023-04-28T00:00:00	2024-11-08T16:00:00	4	Temperatura máxima	22.2
33783	7	Sololá	710	Panajachel	8	Panajachel	4	Abril	2023-04-28T00:00:00	2024-11-08T16:00:00	3	Temperatura mínima	20.8
33784	7	Sololá	710	Panajachel	8	Panajachel	4	Abril	2023-04-28T00:00:00	2024-11-08T16:00:00	5	Humedad	88
33785	7	Sololá	710	Panajachel	8	Panajachel	4	Abril	2023-04-28T00:00:00	2024-11-08T16:00:00	6	Velocidad del viento	3.2
33786	7	Sololá	710	Panajachel	8	Panajachel	4	Abril	2023-04-28T00:00:00	2024-11-08T16:00:00	7	Dirección del viento	3.22
33787	7	Sololá	710	Panajachel	8	Panajachel	4	Abril	2023-04-28T00:00:00	2024-11-08T16:00:00	1	Precipitación	0
33788	7	Sololá	710	Panajachel	8	Panajachel	4	Abril	2023-04-28T00:00:00	2024-11-08T16:00:00	8	Radiación solar	83
33789	7	Sololá	710	Panajachel	8	Panajachel	4	Abril	2023-04-28T00:00:00	2024-11-08T17:00:00	2	Temperatura media	19.7
33790	7	Sololá	710	Panajachel	8	Panajachel	4	Abril	2023-04-28T00:00:00	2024-11-08T17:00:00	4	Temperatura máxima	20.8
33791	7	Sololá	710	Panajachel	8	Panajachel	4	Abril	2023-04-28T00:00:00	2024-11-08T17:00:00	3	Temperatura mínima	19.6
33792	7	Sololá	710	Panajachel	8	Panajachel	4	Abril	2023-04-28T00:00:00	2024-11-08T17:00:00	5	Humedad	92
33793	7	Sololá	710	Panajachel	8	Panajachel	4	Abril	2023-04-28T00:00:00	2024-11-08T17:00:00	6	Velocidad del viento	4.8
33794	7	Sololá	710	Panajachel	8	Panajachel	4	Abril	2023-04-28T00:00:00	2024-11-08T17:00:00	7	Dirección del viento	4.83
33795	7	Sololá	710	Panajachel	8	Panajachel	4	Abril	2023-04-28T00:00:00	2024-11-08T17:00:00	1	Precipitación	0.4
33796	7	Sololá	710	Panajachel	8	Panajachel	4	Abril	2023-04-28T00:00:00	2024-11-08T17:00:00	8	Radiación solar	19
33797	7	Sololá	710	Panajachel	8	Panajachel	4	Abril	2023-04-28T00:00:00	2024-11-08T18:00:00	2	Temperatura media	20.4
33798	7	Sololá	710	Panajachel	8	Panajachel	4	Abril	2023-04-28T00:00:00	2024-11-08T18:00:00	4	Temperatura máxima	20.4
33799	7	Sololá	710	Panajachel	8	Panajachel	4	Abril	2023-04-28T00:00:00	2024-11-08T18:00:00	3	Temperatura mínima	19.7
33800	7	Sololá	710	Panajachel	8	Panajachel	4	Abril	2023-04-28T00:00:00	2024-11-08T18:00:00	5	Humedad	89
33801	7	Sololá	710	Panajachel	8	Panajachel	4	Abril	2023-04-28T00:00:00	2024-11-08T18:00:00	6	Velocidad del viento	0
33802	7	Sololá	710	Panajachel	8	Panajachel	4	Abril	2023-04-28T00:00:00	2024-11-08T18:00:00	7	Dirección del viento	0
33803	7	Sololá	710	Panajachel	8	Panajachel	4	Abril	2023-04-28T00:00:00	2024-11-08T18:00:00	1	Precipitación	0
33804	7	Sololá	710	Panajachel	8	Panajachel	4	Abril	2023-04-28T00:00:00	2024-11-08T18:00:00	8	Radiación solar	29
33805	7	Sololá	710	Panajachel	8	Panajachel	4	Abril	2023-04-28T00:00:00	2024-11-08T19:00:00	2	Temperatura media	19.4
33806	7	Sololá	710	Panajachel	8	Panajachel	4	Abril	2023-04-28T00:00:00	2024-11-08T19:00:00	4	Temperatura máxima	20.5
33807	7	Sololá	710	Panajachel	8	Panajachel	4	Abril	2023-04-28T00:00:00	2024-11-08T19:00:00	3	Temperatura mínima	19.4
33808	7	Sololá	710	Panajachel	8	Panajachel	4	Abril	2023-04-28T00:00:00	2024-11-08T19:00:00	5	Humedad	93
33809	7	Sololá	710	Panajachel	8	Panajachel	4	Abril	2023-04-28T00:00:00	2024-11-08T19:00:00	6	Velocidad del viento	3.2
33810	7	Sololá	710	Panajachel	8	Panajachel	4	Abril	2023-04-28T00:00:00	2024-11-08T19:00:00	7	Dirección del viento	3.22
33811	7	Sololá	710	Panajachel	8	Panajachel	4	Abril	2023-04-28T00:00:00	2024-11-08T19:00:00	1	Precipitación	0
33812	7	Sololá	710	Panajachel	8	Panajachel	4	Abril	2023-04-28T00:00:00	2024-11-08T19:00:00	8	Radiación solar	0
33813	7	Sololá	710	Panajachel	8	Panajachel	4	Abril	2023-04-28T00:00:00	2024-11-08T20:00:00	2	Temperatura media	19.5
33814	7	Sololá	710	Panajachel	8	Panajachel	4	Abril	2023-04-28T00:00:00	2024-11-08T20:00:00	4	Temperatura máxima	19.6
33815	7	Sololá	710	Panajachel	8	Panajachel	4	Abril	2023-04-28T00:00:00	2024-11-08T20:00:00	3	Temperatura mínima	19.3
33816	7	Sololá	710	Panajachel	8	Panajachel	4	Abril	2023-04-28T00:00:00	2024-11-08T20:00:00	5	Humedad	91
33817	7	Sololá	710	Panajachel	8	Panajachel	4	Abril	2023-04-28T00:00:00	2024-11-08T20:00:00	6	Velocidad del viento	0
33818	7	Sololá	710	Panajachel	8	Panajachel	4	Abril	2023-04-28T00:00:00	2024-11-08T20:00:00	7	Dirección del viento	0
33819	7	Sololá	710	Panajachel	8	Panajachel	4	Abril	2023-04-28T00:00:00	2024-11-08T20:00:00	1	Precipitación	0
33820	7	Sololá	710	Panajachel	8	Panajachel	4	Abril	2023-04-28T00:00:00	2024-11-08T20:00:00	8	Radiación solar	0
33821	7	Sololá	710	Panajachel	8	Panajachel	4	Abril	2023-04-28T00:00:00	2024-11-08T21:00:00	2	Temperatura media	19.3
33822	7	Sololá	710	Panajachel	8	Panajachel	4	Abril	2023-04-28T00:00:00	2024-11-08T21:00:00	4	Temperatura máxima	19.6
33823	7	Sololá	710	Panajachel	8	Panajachel	4	Abril	2023-04-28T00:00:00	2024-11-08T21:00:00	3	Temperatura mínima	19.2
33824	7	Sololá	710	Panajachel	8	Panajachel	4	Abril	2023-04-28T00:00:00	2024-11-08T21:00:00	5	Humedad	93
33825	7	Sololá	710	Panajachel	8	Panajachel	4	Abril	2023-04-28T00:00:00	2024-11-08T21:00:00	6	Velocidad del viento	1.6
33826	7	Sololá	710	Panajachel	8	Panajachel	4	Abril	2023-04-28T00:00:00	2024-11-08T21:00:00	7	Dirección del viento	1.61
33827	7	Sololá	710	Panajachel	8	Panajachel	4	Abril	2023-04-28T00:00:00	2024-11-08T21:00:00	1	Precipitación	0
33828	7	Sololá	710	Panajachel	8	Panajachel	4	Abril	2023-04-28T00:00:00	2024-11-08T21:00:00	8	Radiación solar	0
33829	7	Sololá	710	Panajachel	8	Panajachel	4	Abril	2023-04-28T00:00:00	2024-11-08T22:00:00	2	Temperatura media	18.8
33830	7	Sololá	710	Panajachel	8	Panajachel	4	Abril	2023-04-28T00:00:00	2024-11-08T22:00:00	4	Temperatura máxima	19.3
33831	7	Sololá	710	Panajachel	8	Panajachel	4	Abril	2023-04-28T00:00:00	2024-11-08T22:00:00	3	Temperatura mínima	18.8
33832	7	Sololá	710	Panajachel	8	Panajachel	4	Abril	2023-04-28T00:00:00	2024-11-08T22:00:00	5	Humedad	95
33833	7	Sololá	710	Panajachel	8	Panajachel	4	Abril	2023-04-28T00:00:00	2024-11-08T22:00:00	6	Velocidad del viento	1.6
33834	7	Sololá	710	Panajachel	8	Panajachel	4	Abril	2023-04-28T00:00:00	2024-11-08T22:00:00	7	Dirección del viento	1.61
33835	7	Sololá	710	Panajachel	8	Panajachel	4	Abril	2023-04-28T00:00:00	2024-11-08T22:00:00	1	Precipitación	3.4
33836	7	Sololá	710	Panajachel	8	Panajachel	4	Abril	2023-04-28T00:00:00	2024-11-08T22:00:00	8	Radiación solar	0
33837	7	Sololá	710	Panajachel	8	Panajachel	4	Abril	2023-04-28T00:00:00	2024-11-08T23:00:00	2	Temperatura media	18.7
33838	7	Sololá	710	Panajachel	8	Panajachel	4	Abril	2023-04-28T00:00:00	2024-11-08T23:00:00	4	Temperatura máxima	18.9
33839	7	Sololá	710	Panajachel	8	Panajachel	4	Abril	2023-04-28T00:00:00	2024-11-08T23:00:00	3	Temperatura mínima	18.7
33840	7	Sololá	710	Panajachel	8	Panajachel	4	Abril	2023-04-28T00:00:00	2024-11-08T23:00:00	5	Humedad	97
33841	7	Sololá	710	Panajachel	8	Panajachel	4	Abril	2023-04-28T00:00:00	2024-11-08T23:00:00	6	Velocidad del viento	0
33842	7	Sololá	710	Panajachel	8	Panajachel	4	Abril	2023-04-28T00:00:00	2024-11-08T23:00:00	7	Dirección del viento	0
33843	7	Sololá	710	Panajachel	8	Panajachel	4	Abril	2023-04-28T00:00:00	2024-11-08T23:00:00	1	Precipitación	0.4
33844	7	Sololá	710	Panajachel	8	Panajachel	4	Abril	2023-04-28T00:00:00	2024-11-08T23:00:00	8	Radiación solar	0
33845	7	Sololá	710	Panajachel	8	Panajachel	4	Abril	2023-04-29T00:00:00	2024-11-08T00:00:00	2	Temperatura media	18.4
33846	7	Sololá	710	Panajachel	8	Panajachel	4	Abril	2023-04-29T00:00:00	2024-11-08T00:00:00	4	Temperatura máxima	18.9
33847	7	Sololá	710	Panajachel	8	Panajachel	4	Abril	2023-04-29T00:00:00	2024-11-08T00:00:00	3	Temperatura mínima	18.4
33848	7	Sololá	710	Panajachel	8	Panajachel	4	Abril	2023-04-29T00:00:00	2024-11-08T00:00:00	5	Humedad	89
33849	7	Sololá	710	Panajachel	8	Panajachel	4	Abril	2023-04-29T00:00:00	2024-11-08T00:00:00	6	Velocidad del viento	1.6
33850	7	Sololá	710	Panajachel	8	Panajachel	4	Abril	2023-04-29T00:00:00	2024-11-08T00:00:00	7	Dirección del viento	1.61
33851	7	Sololá	710	Panajachel	8	Panajachel	4	Abril	2023-04-29T00:00:00	2024-11-08T00:00:00	1	Precipitación	0.2
33852	7	Sololá	710	Panajachel	8	Panajachel	4	Abril	2023-04-29T00:00:00	2024-11-08T00:00:00	8	Radiación solar	0
33853	7	Sololá	710	Panajachel	8	Panajachel	4	Abril	2023-04-29T00:00:00	2024-11-08T01:00:00	2	Temperatura media	17.5
33854	7	Sololá	710	Panajachel	8	Panajachel	4	Abril	2023-04-29T00:00:00	2024-11-08T01:00:00	4	Temperatura máxima	18.4
33855	7	Sololá	710	Panajachel	8	Panajachel	4	Abril	2023-04-29T00:00:00	2024-11-08T01:00:00	3	Temperatura mínima	17.3
33856	7	Sololá	710	Panajachel	8	Panajachel	4	Abril	2023-04-29T00:00:00	2024-11-08T01:00:00	5	Humedad	86
33857	7	Sololá	710	Panajachel	8	Panajachel	4	Abril	2023-04-29T00:00:00	2024-11-08T01:00:00	6	Velocidad del viento	4.8
33858	7	Sololá	710	Panajachel	8	Panajachel	4	Abril	2023-04-29T00:00:00	2024-11-08T01:00:00	7	Dirección del viento	4.83
33859	7	Sololá	710	Panajachel	8	Panajachel	4	Abril	2023-04-29T00:00:00	2024-11-08T01:00:00	1	Precipitación	0
33860	7	Sololá	710	Panajachel	8	Panajachel	4	Abril	2023-04-29T00:00:00	2024-11-08T01:00:00	8	Radiación solar	0
33861	7	Sololá	710	Panajachel	8	Panajachel	4	Abril	2023-04-29T00:00:00	2024-11-08T02:00:00	2	Temperatura media	17.6
33862	7	Sololá	710	Panajachel	8	Panajachel	4	Abril	2023-04-29T00:00:00	2024-11-08T02:00:00	4	Temperatura máxima	17.8
33863	7	Sololá	710	Panajachel	8	Panajachel	4	Abril	2023-04-29T00:00:00	2024-11-08T02:00:00	3	Temperatura mínima	17.3
33864	7	Sololá	710	Panajachel	8	Panajachel	4	Abril	2023-04-29T00:00:00	2024-11-08T02:00:00	5	Humedad	86
33865	7	Sololá	710	Panajachel	8	Panajachel	4	Abril	2023-04-29T00:00:00	2024-11-08T02:00:00	6	Velocidad del viento	1.6
33866	7	Sololá	710	Panajachel	8	Panajachel	4	Abril	2023-04-29T00:00:00	2024-11-08T02:00:00	7	Dirección del viento	1.61
33867	7	Sololá	710	Panajachel	8	Panajachel	4	Abril	2023-04-29T00:00:00	2024-11-08T02:00:00	1	Precipitación	0
33868	7	Sololá	710	Panajachel	8	Panajachel	4	Abril	2023-04-29T00:00:00	2024-11-08T02:00:00	8	Radiación solar	0
33869	7	Sololá	710	Panajachel	8	Panajachel	4	Abril	2023-04-29T00:00:00	2024-11-08T03:00:00	2	Temperatura media	16.8
33870	7	Sololá	710	Panajachel	8	Panajachel	4	Abril	2023-04-29T00:00:00	2024-11-08T03:00:00	4	Temperatura máxima	17.6
33871	7	Sololá	710	Panajachel	8	Panajachel	4	Abril	2023-04-29T00:00:00	2024-11-08T03:00:00	3	Temperatura mínima	16.8
33872	7	Sololá	710	Panajachel	8	Panajachel	4	Abril	2023-04-29T00:00:00	2024-11-08T03:00:00	5	Humedad	88
33873	7	Sololá	710	Panajachel	8	Panajachel	4	Abril	2023-04-29T00:00:00	2024-11-08T03:00:00	6	Velocidad del viento	3.2
33874	7	Sololá	710	Panajachel	8	Panajachel	4	Abril	2023-04-29T00:00:00	2024-11-08T03:00:00	7	Dirección del viento	3.22
33875	7	Sololá	710	Panajachel	8	Panajachel	4	Abril	2023-04-29T00:00:00	2024-11-08T03:00:00	1	Precipitación	0
33876	7	Sololá	710	Panajachel	8	Panajachel	4	Abril	2023-04-29T00:00:00	2024-11-08T03:00:00	8	Radiación solar	0
33877	7	Sololá	710	Panajachel	8	Panajachel	4	Abril	2023-04-29T00:00:00	2024-11-08T04:00:00	2	Temperatura media	16.9
33878	7	Sololá	710	Panajachel	8	Panajachel	4	Abril	2023-04-29T00:00:00	2024-11-08T04:00:00	4	Temperatura máxima	17.2
33879	7	Sololá	710	Panajachel	8	Panajachel	4	Abril	2023-04-29T00:00:00	2024-11-08T04:00:00	3	Temperatura mínima	16.8
33880	7	Sololá	710	Panajachel	8	Panajachel	4	Abril	2023-04-29T00:00:00	2024-11-08T04:00:00	5	Humedad	86
33881	7	Sololá	710	Panajachel	8	Panajachel	4	Abril	2023-04-29T00:00:00	2024-11-08T04:00:00	6	Velocidad del viento	4.8
33882	7	Sololá	710	Panajachel	8	Panajachel	4	Abril	2023-04-29T00:00:00	2024-11-08T04:00:00	7	Dirección del viento	4.83
33883	7	Sololá	710	Panajachel	8	Panajachel	4	Abril	2023-04-29T00:00:00	2024-11-08T04:00:00	1	Precipitación	0
33884	7	Sololá	710	Panajachel	8	Panajachel	4	Abril	2023-04-29T00:00:00	2024-11-08T04:00:00	8	Radiación solar	0
33885	7	Sololá	710	Panajachel	8	Panajachel	4	Abril	2023-04-29T00:00:00	2024-11-08T05:00:00	2	Temperatura media	16.9
33886	7	Sololá	710	Panajachel	8	Panajachel	4	Abril	2023-04-29T00:00:00	2024-11-08T05:00:00	4	Temperatura máxima	17
33887	7	Sololá	710	Panajachel	8	Panajachel	4	Abril	2023-04-29T00:00:00	2024-11-08T05:00:00	3	Temperatura mínima	16.5
33888	7	Sololá	710	Panajachel	8	Panajachel	4	Abril	2023-04-29T00:00:00	2024-11-08T05:00:00	5	Humedad	86
33889	7	Sololá	710	Panajachel	8	Panajachel	4	Abril	2023-04-29T00:00:00	2024-11-08T05:00:00	6	Velocidad del viento	3.2
33890	7	Sololá	710	Panajachel	8	Panajachel	4	Abril	2023-04-29T00:00:00	2024-11-08T05:00:00	7	Dirección del viento	3.22
33891	7	Sololá	710	Panajachel	8	Panajachel	4	Abril	2023-04-29T00:00:00	2024-11-08T05:00:00	1	Precipitación	0
33892	7	Sololá	710	Panajachel	8	Panajachel	4	Abril	2023-04-29T00:00:00	2024-11-08T05:00:00	8	Radiación solar	0
33893	7	Sololá	710	Panajachel	8	Panajachel	4	Abril	2023-04-29T00:00:00	2024-11-08T06:00:00	2	Temperatura media	17.1
33894	7	Sololá	710	Panajachel	8	Panajachel	4	Abril	2023-04-29T00:00:00	2024-11-08T06:00:00	4	Temperatura máxima	17.3
33895	7	Sololá	710	Panajachel	8	Panajachel	4	Abril	2023-04-29T00:00:00	2024-11-08T06:00:00	3	Temperatura mínima	17
33896	7	Sololá	710	Panajachel	8	Panajachel	4	Abril	2023-04-29T00:00:00	2024-11-08T06:00:00	5	Humedad	86
33897	7	Sololá	710	Panajachel	8	Panajachel	4	Abril	2023-04-29T00:00:00	2024-11-08T06:00:00	6	Velocidad del viento	3.2
33898	7	Sololá	710	Panajachel	8	Panajachel	4	Abril	2023-04-29T00:00:00	2024-11-08T06:00:00	7	Dirección del viento	3.22
33899	7	Sololá	710	Panajachel	8	Panajachel	4	Abril	2023-04-29T00:00:00	2024-11-08T06:00:00	1	Precipitación	0
33900	7	Sololá	710	Panajachel	8	Panajachel	4	Abril	2023-04-29T00:00:00	2024-11-08T06:00:00	8	Radiación solar	1
33901	7	Sololá	710	Panajachel	8	Panajachel	4	Abril	2023-04-29T00:00:00	2024-11-08T07:00:00	2	Temperatura media	17.3
33902	7	Sololá	710	Panajachel	8	Panajachel	4	Abril	2023-04-29T00:00:00	2024-11-08T07:00:00	4	Temperatura máxima	17.3
33903	7	Sololá	710	Panajachel	8	Panajachel	4	Abril	2023-04-29T00:00:00	2024-11-08T07:00:00	3	Temperatura mínima	17
33904	7	Sololá	710	Panajachel	8	Panajachel	4	Abril	2023-04-29T00:00:00	2024-11-08T07:00:00	5	Humedad	86
33905	7	Sololá	710	Panajachel	8	Panajachel	4	Abril	2023-04-29T00:00:00	2024-11-08T07:00:00	6	Velocidad del viento	3.2
33906	7	Sololá	710	Panajachel	8	Panajachel	4	Abril	2023-04-29T00:00:00	2024-11-08T07:00:00	7	Dirección del viento	3.22
33907	7	Sololá	710	Panajachel	8	Panajachel	4	Abril	2023-04-29T00:00:00	2024-11-08T07:00:00	1	Precipitación	0
33908	7	Sololá	710	Panajachel	8	Panajachel	4	Abril	2023-04-29T00:00:00	2024-11-08T07:00:00	8	Radiación solar	61
33909	7	Sololá	710	Panajachel	8	Panajachel	4	Abril	2023-04-29T00:00:00	2024-11-08T08:00:00	2	Temperatura media	20.4
33910	7	Sololá	710	Panajachel	8	Panajachel	4	Abril	2023-04-29T00:00:00	2024-11-08T08:00:00	4	Temperatura máxima	20.4
33911	7	Sololá	710	Panajachel	8	Panajachel	4	Abril	2023-04-29T00:00:00	2024-11-08T08:00:00	3	Temperatura mínima	17.3
33912	7	Sololá	710	Panajachel	8	Panajachel	4	Abril	2023-04-29T00:00:00	2024-11-08T08:00:00	5	Humedad	79
33913	7	Sololá	710	Panajachel	8	Panajachel	4	Abril	2023-04-29T00:00:00	2024-11-08T08:00:00	6	Velocidad del viento	1.6
33914	7	Sololá	710	Panajachel	8	Panajachel	4	Abril	2023-04-29T00:00:00	2024-11-08T08:00:00	7	Dirección del viento	1.61
33915	7	Sololá	710	Panajachel	8	Panajachel	4	Abril	2023-04-29T00:00:00	2024-11-08T08:00:00	1	Precipitación	0
33916	7	Sololá	710	Panajachel	8	Panajachel	4	Abril	2023-04-29T00:00:00	2024-11-08T08:00:00	8	Radiación solar	282
33917	7	Sololá	710	Panajachel	8	Panajachel	4	Abril	2023-04-29T00:00:00	2024-11-08T09:00:00	2	Temperatura media	20.6
33918	7	Sololá	710	Panajachel	8	Panajachel	4	Abril	2023-04-29T00:00:00	2024-11-08T09:00:00	4	Temperatura máxima	20.9
33919	7	Sololá	710	Panajachel	8	Panajachel	4	Abril	2023-04-29T00:00:00	2024-11-08T09:00:00	3	Temperatura mínima	20.3
33920	7	Sololá	710	Panajachel	8	Panajachel	4	Abril	2023-04-29T00:00:00	2024-11-08T09:00:00	5	Humedad	82
33921	7	Sololá	710	Panajachel	8	Panajachel	4	Abril	2023-04-29T00:00:00	2024-11-08T09:00:00	6	Velocidad del viento	1.6
33922	7	Sololá	710	Panajachel	8	Panajachel	4	Abril	2023-04-29T00:00:00	2024-11-08T09:00:00	7	Dirección del viento	1.61
33923	7	Sololá	710	Panajachel	8	Panajachel	4	Abril	2023-04-29T00:00:00	2024-11-08T09:00:00	1	Precipitación	0
33924	7	Sololá	710	Panajachel	8	Panajachel	4	Abril	2023-04-29T00:00:00	2024-11-08T09:00:00	8	Radiación solar	507
33925	7	Sololá	710	Panajachel	8	Panajachel	4	Abril	2023-04-29T00:00:00	2024-11-08T10:00:00	2	Temperatura media	21
33926	7	Sololá	710	Panajachel	8	Panajachel	4	Abril	2023-04-29T00:00:00	2024-11-08T10:00:00	4	Temperatura máxima	21.4
33927	7	Sololá	710	Panajachel	8	Panajachel	4	Abril	2023-04-29T00:00:00	2024-11-08T10:00:00	3	Temperatura mínima	20.6
33928	7	Sololá	710	Panajachel	8	Panajachel	4	Abril	2023-04-29T00:00:00	2024-11-08T10:00:00	5	Humedad	80
33929	7	Sololá	710	Panajachel	8	Panajachel	4	Abril	2023-04-29T00:00:00	2024-11-08T10:00:00	6	Velocidad del viento	3.2
33930	7	Sololá	710	Panajachel	8	Panajachel	4	Abril	2023-04-29T00:00:00	2024-11-08T10:00:00	7	Dirección del viento	3.22
33931	7	Sololá	710	Panajachel	8	Panajachel	4	Abril	2023-04-29T00:00:00	2024-11-08T10:00:00	1	Precipitación	0
33932	7	Sololá	710	Panajachel	8	Panajachel	4	Abril	2023-04-29T00:00:00	2024-11-08T10:00:00	8	Radiación solar	632
33933	7	Sololá	710	Panajachel	8	Panajachel	4	Abril	2023-04-29T00:00:00	2024-11-08T11:00:00	2	Temperatura media	22.1
33934	7	Sololá	710	Panajachel	8	Panajachel	4	Abril	2023-04-29T00:00:00	2024-11-08T11:00:00	4	Temperatura máxima	22.2
33935	7	Sololá	710	Panajachel	8	Panajachel	4	Abril	2023-04-29T00:00:00	2024-11-08T11:00:00	3	Temperatura mínima	20.8
33936	7	Sololá	710	Panajachel	8	Panajachel	4	Abril	2023-04-29T00:00:00	2024-11-08T11:00:00	5	Humedad	75
33937	7	Sololá	710	Panajachel	8	Panajachel	4	Abril	2023-04-29T00:00:00	2024-11-08T11:00:00	6	Velocidad del viento	3.2
33938	7	Sololá	710	Panajachel	8	Panajachel	4	Abril	2023-04-29T00:00:00	2024-11-08T11:00:00	7	Dirección del viento	3.22
33939	7	Sololá	710	Panajachel	8	Panajachel	4	Abril	2023-04-29T00:00:00	2024-11-08T11:00:00	1	Precipitación	0
33940	7	Sololá	710	Panajachel	8	Panajachel	4	Abril	2023-04-29T00:00:00	2024-11-08T11:00:00	8	Radiación solar	826
33941	7	Sololá	710	Panajachel	8	Panajachel	4	Abril	2023-04-29T00:00:00	2024-11-08T12:00:00	2	Temperatura media	22.5
33942	7	Sololá	710	Panajachel	8	Panajachel	4	Abril	2023-04-29T00:00:00	2024-11-08T12:00:00	4	Temperatura máxima	22.9
33943	7	Sololá	710	Panajachel	8	Panajachel	4	Abril	2023-04-29T00:00:00	2024-11-08T12:00:00	3	Temperatura mínima	22
33944	7	Sololá	710	Panajachel	8	Panajachel	4	Abril	2023-04-29T00:00:00	2024-11-08T12:00:00	5	Humedad	77
33945	7	Sololá	710	Panajachel	8	Panajachel	4	Abril	2023-04-29T00:00:00	2024-11-08T12:00:00	6	Velocidad del viento	3.2
33946	7	Sololá	710	Panajachel	8	Panajachel	4	Abril	2023-04-29T00:00:00	2024-11-08T12:00:00	7	Dirección del viento	3.22
33947	7	Sololá	710	Panajachel	8	Panajachel	4	Abril	2023-04-29T00:00:00	2024-11-08T12:00:00	1	Precipitación	0
33948	7	Sololá	710	Panajachel	8	Panajachel	4	Abril	2023-04-29T00:00:00	2024-11-08T12:00:00	8	Radiación solar	916
33949	7	Sololá	710	Panajachel	8	Panajachel	4	Abril	2023-04-29T00:00:00	2024-11-08T13:00:00	2	Temperatura media	23.5
33950	7	Sololá	710	Panajachel	8	Panajachel	4	Abril	2023-04-29T00:00:00	2024-11-08T13:00:00	4	Temperatura máxima	24.5
33951	7	Sololá	710	Panajachel	8	Panajachel	4	Abril	2023-04-29T00:00:00	2024-11-08T13:00:00	3	Temperatura mínima	22.4
33952	7	Sololá	710	Panajachel	8	Panajachel	4	Abril	2023-04-29T00:00:00	2024-11-08T13:00:00	5	Humedad	79
33953	7	Sololá	710	Panajachel	8	Panajachel	4	Abril	2023-04-29T00:00:00	2024-11-08T13:00:00	6	Velocidad del viento	4.8
33954	7	Sololá	710	Panajachel	8	Panajachel	4	Abril	2023-04-29T00:00:00	2024-11-08T13:00:00	7	Dirección del viento	4.83
33955	7	Sololá	710	Panajachel	8	Panajachel	4	Abril	2023-04-29T00:00:00	2024-11-08T13:00:00	1	Precipitación	0
33956	7	Sololá	710	Panajachel	8	Panajachel	4	Abril	2023-04-29T00:00:00	2024-11-08T13:00:00	8	Radiación solar	913
33957	7	Sololá	710	Panajachel	8	Panajachel	4	Abril	2023-04-29T00:00:00	2024-11-08T14:00:00	2	Temperatura media	23.2
33958	7	Sololá	710	Panajachel	8	Panajachel	4	Abril	2023-04-29T00:00:00	2024-11-08T14:00:00	4	Temperatura máxima	24
33959	7	Sololá	710	Panajachel	8	Panajachel	4	Abril	2023-04-29T00:00:00	2024-11-08T14:00:00	3	Temperatura mínima	23.2
33960	7	Sololá	710	Panajachel	8	Panajachel	4	Abril	2023-04-29T00:00:00	2024-11-08T14:00:00	5	Humedad	80
33961	7	Sololá	710	Panajachel	8	Panajachel	4	Abril	2023-04-29T00:00:00	2024-11-08T14:00:00	6	Velocidad del viento	6.4
33962	7	Sololá	710	Panajachel	8	Panajachel	4	Abril	2023-04-29T00:00:00	2024-11-08T14:00:00	7	Dirección del viento	6.44
33963	7	Sololá	710	Panajachel	8	Panajachel	4	Abril	2023-04-29T00:00:00	2024-11-08T14:00:00	1	Precipitación	0
33964	7	Sololá	710	Panajachel	8	Panajachel	4	Abril	2023-04-29T00:00:00	2024-11-08T14:00:00	8	Radiación solar	662
33965	7	Sololá	710	Panajachel	8	Panajachel	4	Abril	2023-04-29T00:00:00	2024-11-08T15:00:00	2	Temperatura media	21.6
33966	7	Sololá	710	Panajachel	8	Panajachel	4	Abril	2023-04-29T00:00:00	2024-11-08T15:00:00	4	Temperatura máxima	23.2
33967	7	Sololá	710	Panajachel	8	Panajachel	4	Abril	2023-04-29T00:00:00	2024-11-08T15:00:00	3	Temperatura mínima	21.4
33968	7	Sololá	710	Panajachel	8	Panajachel	4	Abril	2023-04-29T00:00:00	2024-11-08T15:00:00	5	Humedad	84
33969	7	Sololá	710	Panajachel	8	Panajachel	4	Abril	2023-04-29T00:00:00	2024-11-08T15:00:00	6	Velocidad del viento	8
33970	7	Sololá	710	Panajachel	8	Panajachel	4	Abril	2023-04-29T00:00:00	2024-11-08T15:00:00	7	Dirección del viento	8.05
33971	7	Sololá	710	Panajachel	8	Panajachel	4	Abril	2023-04-29T00:00:00	2024-11-08T15:00:00	1	Precipitación	0
33972	7	Sololá	710	Panajachel	8	Panajachel	4	Abril	2023-04-29T00:00:00	2024-11-08T15:00:00	8	Radiación solar	284
33973	7	Sololá	710	Panajachel	8	Panajachel	4	Abril	2023-04-29T00:00:00	2024-11-08T16:00:00	2	Temperatura media	21.7
33974	7	Sololá	710	Panajachel	8	Panajachel	4	Abril	2023-04-29T00:00:00	2024-11-08T16:00:00	4	Temperatura máxima	21.8
33975	7	Sololá	710	Panajachel	8	Panajachel	4	Abril	2023-04-29T00:00:00	2024-11-08T16:00:00	3	Temperatura mínima	21.4
33976	7	Sololá	710	Panajachel	8	Panajachel	4	Abril	2023-04-29T00:00:00	2024-11-08T16:00:00	5	Humedad	81
33977	7	Sololá	710	Panajachel	8	Panajachel	4	Abril	2023-04-29T00:00:00	2024-11-08T16:00:00	6	Velocidad del viento	3.2
33978	7	Sololá	710	Panajachel	8	Panajachel	4	Abril	2023-04-29T00:00:00	2024-11-08T16:00:00	7	Dirección del viento	3.22
33979	7	Sololá	710	Panajachel	8	Panajachel	4	Abril	2023-04-29T00:00:00	2024-11-08T16:00:00	1	Precipitación	0
33980	7	Sololá	710	Panajachel	8	Panajachel	4	Abril	2023-04-29T00:00:00	2024-11-08T16:00:00	8	Radiación solar	162
33981	7	Sololá	710	Panajachel	8	Panajachel	4	Abril	2023-04-29T00:00:00	2024-11-08T17:00:00	2	Temperatura media	20.8
33982	7	Sololá	710	Panajachel	8	Panajachel	4	Abril	2023-04-29T00:00:00	2024-11-08T17:00:00	4	Temperatura máxima	21.7
33983	7	Sololá	710	Panajachel	8	Panajachel	4	Abril	2023-04-29T00:00:00	2024-11-08T17:00:00	3	Temperatura mínima	20.7
33984	7	Sololá	710	Panajachel	8	Panajachel	4	Abril	2023-04-29T00:00:00	2024-11-08T17:00:00	5	Humedad	89
33985	7	Sololá	710	Panajachel	8	Panajachel	4	Abril	2023-04-29T00:00:00	2024-11-08T17:00:00	6	Velocidad del viento	3.2
33986	7	Sololá	710	Panajachel	8	Panajachel	4	Abril	2023-04-29T00:00:00	2024-11-08T17:00:00	7	Dirección del viento	3.22
33987	7	Sololá	710	Panajachel	8	Panajachel	4	Abril	2023-04-29T00:00:00	2024-11-08T17:00:00	1	Precipitación	0.4
33988	7	Sololá	710	Panajachel	8	Panajachel	4	Abril	2023-04-29T00:00:00	2024-11-08T17:00:00	8	Radiación solar	74
33989	7	Sololá	710	Panajachel	8	Panajachel	4	Abril	2023-04-29T00:00:00	2024-11-08T18:00:00	2	Temperatura media	20.6
33990	7	Sololá	710	Panajachel	8	Panajachel	4	Abril	2023-04-29T00:00:00	2024-11-08T18:00:00	4	Temperatura máxima	20.8
33991	7	Sololá	710	Panajachel	8	Panajachel	4	Abril	2023-04-29T00:00:00	2024-11-08T18:00:00	3	Temperatura mínima	20.6
33992	7	Sololá	710	Panajachel	8	Panajachel	4	Abril	2023-04-29T00:00:00	2024-11-08T18:00:00	5	Humedad	87
33993	7	Sololá	710	Panajachel	8	Panajachel	4	Abril	2023-04-29T00:00:00	2024-11-08T18:00:00	6	Velocidad del viento	0
33994	7	Sololá	710	Panajachel	8	Panajachel	4	Abril	2023-04-29T00:00:00	2024-11-08T18:00:00	7	Dirección del viento	0
33995	7	Sololá	710	Panajachel	8	Panajachel	4	Abril	2023-04-29T00:00:00	2024-11-08T18:00:00	1	Precipitación	0
33996	7	Sololá	710	Panajachel	8	Panajachel	4	Abril	2023-04-29T00:00:00	2024-11-08T18:00:00	8	Radiación solar	37
33997	7	Sololá	710	Panajachel	8	Panajachel	4	Abril	2023-04-29T00:00:00	2024-11-08T19:00:00	2	Temperatura media	20.3
33998	7	Sololá	710	Panajachel	8	Panajachel	4	Abril	2023-04-29T00:00:00	2024-11-08T19:00:00	4	Temperatura máxima	20.6
33999	7	Sololá	710	Panajachel	8	Panajachel	4	Abril	2023-04-29T00:00:00	2024-11-08T19:00:00	3	Temperatura mínima	20.3
34000	7	Sololá	710	Panajachel	8	Panajachel	4	Abril	2023-04-29T00:00:00	2024-11-08T19:00:00	5	Humedad	90
34001	7	Sololá	710	Panajachel	8	Panajachel	4	Abril	2023-04-29T00:00:00	2024-11-08T19:00:00	6	Velocidad del viento	1.6
34002	7	Sololá	710	Panajachel	8	Panajachel	4	Abril	2023-04-29T00:00:00	2024-11-08T19:00:00	7	Dirección del viento	1.61
34003	7	Sololá	710	Panajachel	8	Panajachel	4	Abril	2023-04-29T00:00:00	2024-11-08T19:00:00	1	Precipitación	0
34004	7	Sololá	710	Panajachel	8	Panajachel	4	Abril	2023-04-29T00:00:00	2024-11-08T19:00:00	8	Radiación solar	0
34005	7	Sololá	710	Panajachel	8	Panajachel	4	Abril	2023-04-29T00:00:00	2024-11-08T20:00:00	2	Temperatura media	19.9
34006	7	Sololá	710	Panajachel	8	Panajachel	4	Abril	2023-04-29T00:00:00	2024-11-08T20:00:00	4	Temperatura máxima	20.3
34007	7	Sololá	710	Panajachel	8	Panajachel	4	Abril	2023-04-29T00:00:00	2024-11-08T20:00:00	3	Temperatura mínima	19.9
34008	7	Sololá	710	Panajachel	8	Panajachel	4	Abril	2023-04-29T00:00:00	2024-11-08T20:00:00	5	Humedad	91
34009	7	Sololá	710	Panajachel	8	Panajachel	4	Abril	2023-04-29T00:00:00	2024-11-08T20:00:00	6	Velocidad del viento	0
34010	7	Sololá	710	Panajachel	8	Panajachel	4	Abril	2023-04-29T00:00:00	2024-11-08T20:00:00	7	Dirección del viento	0
34011	7	Sololá	710	Panajachel	8	Panajachel	4	Abril	2023-04-29T00:00:00	2024-11-08T20:00:00	1	Precipitación	0
34012	7	Sololá	710	Panajachel	8	Panajachel	4	Abril	2023-04-29T00:00:00	2024-11-08T20:00:00	8	Radiación solar	0
34013	7	Sololá	710	Panajachel	8	Panajachel	4	Abril	2023-04-29T00:00:00	2024-11-08T21:00:00	2	Temperatura media	19
34014	7	Sololá	710	Panajachel	8	Panajachel	4	Abril	2023-04-29T00:00:00	2024-11-08T21:00:00	4	Temperatura máxima	19.9
34015	7	Sololá	710	Panajachel	8	Panajachel	4	Abril	2023-04-29T00:00:00	2024-11-08T21:00:00	3	Temperatura mínima	18.9
34016	7	Sololá	710	Panajachel	8	Panajachel	4	Abril	2023-04-29T00:00:00	2024-11-08T21:00:00	5	Humedad	88
34017	7	Sololá	710	Panajachel	8	Panajachel	4	Abril	2023-04-29T00:00:00	2024-11-08T21:00:00	6	Velocidad del viento	1.6
34018	7	Sololá	710	Panajachel	8	Panajachel	4	Abril	2023-04-29T00:00:00	2024-11-08T21:00:00	7	Dirección del viento	1.61
34019	7	Sololá	710	Panajachel	8	Panajachel	4	Abril	2023-04-29T00:00:00	2024-11-08T21:00:00	1	Precipitación	0
34020	7	Sololá	710	Panajachel	8	Panajachel	4	Abril	2023-04-29T00:00:00	2024-11-08T21:00:00	8	Radiación solar	0
34021	7	Sololá	710	Panajachel	8	Panajachel	4	Abril	2023-04-29T00:00:00	2024-11-08T22:00:00	2	Temperatura media	18.5
34022	7	Sololá	710	Panajachel	8	Panajachel	4	Abril	2023-04-29T00:00:00	2024-11-08T22:00:00	4	Temperatura máxima	19.1
34023	7	Sololá	710	Panajachel	8	Panajachel	4	Abril	2023-04-29T00:00:00	2024-11-08T22:00:00	3	Temperatura mínima	18.5
34024	7	Sololá	710	Panajachel	8	Panajachel	4	Abril	2023-04-29T00:00:00	2024-11-08T22:00:00	5	Humedad	87
34025	7	Sololá	710	Panajachel	8	Panajachel	4	Abril	2023-04-29T00:00:00	2024-11-08T22:00:00	6	Velocidad del viento	1.6
34026	7	Sololá	710	Panajachel	8	Panajachel	4	Abril	2023-04-29T00:00:00	2024-11-08T22:00:00	7	Dirección del viento	1.61
34027	7	Sololá	710	Panajachel	8	Panajachel	4	Abril	2023-04-29T00:00:00	2024-11-08T22:00:00	1	Precipitación	0
34028	7	Sololá	710	Panajachel	8	Panajachel	4	Abril	2023-04-29T00:00:00	2024-11-08T22:00:00	8	Radiación solar	0
34029	7	Sololá	710	Panajachel	8	Panajachel	4	Abril	2023-04-29T00:00:00	2024-11-08T23:00:00	2	Temperatura media	18.1
34030	7	Sololá	710	Panajachel	8	Panajachel	4	Abril	2023-04-29T00:00:00	2024-11-08T23:00:00	4	Temperatura máxima	18.6
34031	7	Sololá	710	Panajachel	8	Panajachel	4	Abril	2023-04-29T00:00:00	2024-11-08T23:00:00	3	Temperatura mínima	18.1
34032	7	Sololá	710	Panajachel	8	Panajachel	4	Abril	2023-04-29T00:00:00	2024-11-08T23:00:00	5	Humedad	82
34033	7	Sololá	710	Panajachel	8	Panajachel	4	Abril	2023-04-29T00:00:00	2024-11-08T23:00:00	6	Velocidad del viento	3.2
34034	7	Sololá	710	Panajachel	8	Panajachel	4	Abril	2023-04-29T00:00:00	2024-11-08T23:00:00	7	Dirección del viento	3.22
34035	7	Sololá	710	Panajachel	8	Panajachel	4	Abril	2023-04-29T00:00:00	2024-11-08T23:00:00	1	Precipitación	0
34036	7	Sololá	710	Panajachel	8	Panajachel	4	Abril	2023-04-29T00:00:00	2024-11-08T23:00:00	8	Radiación solar	0
34037	7	Sololá	710	Panajachel	8	Panajachel	4	Abril	2023-04-30T00:00:00	2024-11-08T00:00:00	2	Temperatura media	18.1
34038	7	Sololá	710	Panajachel	8	Panajachel	4	Abril	2023-04-30T00:00:00	2024-11-08T00:00:00	4	Temperatura máxima	18.2
34039	7	Sololá	710	Panajachel	8	Panajachel	4	Abril	2023-04-30T00:00:00	2024-11-08T00:00:00	3	Temperatura mínima	17.9
34040	7	Sololá	710	Panajachel	8	Panajachel	4	Abril	2023-04-30T00:00:00	2024-11-08T00:00:00	5	Humedad	85
34041	7	Sololá	710	Panajachel	8	Panajachel	4	Abril	2023-04-30T00:00:00	2024-11-08T00:00:00	6	Velocidad del viento	1.6
34042	7	Sololá	710	Panajachel	8	Panajachel	4	Abril	2023-04-30T00:00:00	2024-11-08T00:00:00	7	Dirección del viento	1.61
34043	7	Sololá	710	Panajachel	8	Panajachel	4	Abril	2023-04-30T00:00:00	2024-11-08T00:00:00	1	Precipitación	0
34044	7	Sololá	710	Panajachel	8	Panajachel	4	Abril	2023-04-30T00:00:00	2024-11-08T00:00:00	8	Radiación solar	0
34045	7	Sololá	710	Panajachel	8	Panajachel	4	Abril	2023-04-30T00:00:00	2024-11-08T01:00:00	2	Temperatura media	17.6
34046	7	Sololá	710	Panajachel	8	Panajachel	4	Abril	2023-04-30T00:00:00	2024-11-08T01:00:00	4	Temperatura máxima	18.1
34047	7	Sololá	710	Panajachel	8	Panajachel	4	Abril	2023-04-30T00:00:00	2024-11-08T01:00:00	3	Temperatura mínima	17.6
34048	7	Sololá	710	Panajachel	8	Panajachel	4	Abril	2023-04-30T00:00:00	2024-11-08T01:00:00	5	Humedad	86
34049	7	Sololá	710	Panajachel	8	Panajachel	4	Abril	2023-04-30T00:00:00	2024-11-08T01:00:00	6	Velocidad del viento	3.2
34050	7	Sololá	710	Panajachel	8	Panajachel	4	Abril	2023-04-30T00:00:00	2024-11-08T01:00:00	7	Dirección del viento	3.22
34051	7	Sololá	710	Panajachel	8	Panajachel	4	Abril	2023-04-30T00:00:00	2024-11-08T01:00:00	1	Precipitación	0
34052	7	Sololá	710	Panajachel	8	Panajachel	4	Abril	2023-04-30T00:00:00	2024-11-08T01:00:00	8	Radiación solar	0
34053	7	Sololá	710	Panajachel	8	Panajachel	4	Abril	2023-04-30T00:00:00	2024-11-08T02:00:00	2	Temperatura media	18.6
34054	7	Sololá	710	Panajachel	8	Panajachel	4	Abril	2023-04-30T00:00:00	2024-11-08T02:00:00	4	Temperatura máxima	18.6
34055	7	Sololá	710	Panajachel	8	Panajachel	4	Abril	2023-04-30T00:00:00	2024-11-08T02:00:00	3	Temperatura mínima	17.6
34056	7	Sololá	710	Panajachel	8	Panajachel	4	Abril	2023-04-30T00:00:00	2024-11-08T02:00:00	5	Humedad	78
34057	7	Sololá	710	Panajachel	8	Panajachel	4	Abril	2023-04-30T00:00:00	2024-11-08T02:00:00	6	Velocidad del viento	3.2
34058	7	Sololá	710	Panajachel	8	Panajachel	4	Abril	2023-04-30T00:00:00	2024-11-08T02:00:00	7	Dirección del viento	3.22
34059	7	Sololá	710	Panajachel	8	Panajachel	4	Abril	2023-04-30T00:00:00	2024-11-08T02:00:00	1	Precipitación	0
34060	7	Sololá	710	Panajachel	8	Panajachel	4	Abril	2023-04-30T00:00:00	2024-11-08T02:00:00	8	Radiación solar	0
34061	7	Sololá	710	Panajachel	8	Panajachel	4	Abril	2023-04-30T00:00:00	2024-11-08T03:00:00	2	Temperatura media	19.8
34062	7	Sololá	710	Panajachel	8	Panajachel	4	Abril	2023-04-30T00:00:00	2024-11-08T03:00:00	4	Temperatura máxima	19.9
34063	7	Sololá	710	Panajachel	8	Panajachel	4	Abril	2023-04-30T00:00:00	2024-11-08T03:00:00	3	Temperatura mínima	18.7
34064	7	Sololá	710	Panajachel	8	Panajachel	4	Abril	2023-04-30T00:00:00	2024-11-08T03:00:00	5	Humedad	73
34065	7	Sololá	710	Panajachel	8	Panajachel	4	Abril	2023-04-30T00:00:00	2024-11-08T03:00:00	6	Velocidad del viento	6.4
34066	7	Sololá	710	Panajachel	8	Panajachel	4	Abril	2023-04-30T00:00:00	2024-11-08T03:00:00	7	Dirección del viento	6.44
34067	7	Sololá	710	Panajachel	8	Panajachel	4	Abril	2023-04-30T00:00:00	2024-11-08T03:00:00	1	Precipitación	0
34068	7	Sololá	710	Panajachel	8	Panajachel	4	Abril	2023-04-30T00:00:00	2024-11-08T03:00:00	8	Radiación solar	0
34069	7	Sololá	710	Panajachel	8	Panajachel	4	Abril	2023-04-30T00:00:00	2024-11-08T04:00:00	2	Temperatura media	19.7
34070	7	Sololá	710	Panajachel	8	Panajachel	4	Abril	2023-04-30T00:00:00	2024-11-08T04:00:00	4	Temperatura máxima	20.1
34071	7	Sololá	710	Panajachel	8	Panajachel	4	Abril	2023-04-30T00:00:00	2024-11-08T04:00:00	3	Temperatura mínima	19.7
34072	7	Sololá	710	Panajachel	8	Panajachel	4	Abril	2023-04-30T00:00:00	2024-11-08T04:00:00	5	Humedad	75
34073	7	Sololá	710	Panajachel	8	Panajachel	4	Abril	2023-04-30T00:00:00	2024-11-08T04:00:00	6	Velocidad del viento	8
34074	7	Sololá	710	Panajachel	8	Panajachel	4	Abril	2023-04-30T00:00:00	2024-11-08T04:00:00	7	Dirección del viento	8.05
34075	7	Sololá	710	Panajachel	8	Panajachel	4	Abril	2023-04-30T00:00:00	2024-11-08T04:00:00	1	Precipitación	0
34076	7	Sololá	710	Panajachel	8	Panajachel	4	Abril	2023-04-30T00:00:00	2024-11-08T04:00:00	8	Radiación solar	0
34077	7	Sololá	710	Panajachel	8	Panajachel	4	Abril	2023-04-30T00:00:00	2024-11-08T05:00:00	2	Temperatura media	19.4
34078	7	Sololá	710	Panajachel	8	Panajachel	4	Abril	2023-04-30T00:00:00	2024-11-08T05:00:00	4	Temperatura máxima	19.8
34079	7	Sololá	710	Panajachel	8	Panajachel	4	Abril	2023-04-30T00:00:00	2024-11-08T05:00:00	3	Temperatura mínima	19.3
34080	7	Sololá	710	Panajachel	8	Panajachel	4	Abril	2023-04-30T00:00:00	2024-11-08T05:00:00	5	Humedad	75
34081	7	Sololá	710	Panajachel	8	Panajachel	4	Abril	2023-04-30T00:00:00	2024-11-08T05:00:00	6	Velocidad del viento	4.8
34082	7	Sololá	710	Panajachel	8	Panajachel	4	Abril	2023-04-30T00:00:00	2024-11-08T05:00:00	7	Dirección del viento	4.83
34083	7	Sololá	710	Panajachel	8	Panajachel	4	Abril	2023-04-30T00:00:00	2024-11-08T05:00:00	1	Precipitación	0
34084	7	Sololá	710	Panajachel	8	Panajachel	4	Abril	2023-04-30T00:00:00	2024-11-08T05:00:00	8	Radiación solar	0
34085	7	Sololá	710	Panajachel	8	Panajachel	4	Abril	2023-04-30T00:00:00	2024-11-08T06:00:00	2	Temperatura media	19.6
34086	7	Sololá	710	Panajachel	8	Panajachel	4	Abril	2023-04-30T00:00:00	2024-11-08T06:00:00	4	Temperatura máxima	19.7
34087	7	Sololá	710	Panajachel	8	Panajachel	4	Abril	2023-04-30T00:00:00	2024-11-08T06:00:00	3	Temperatura mínima	19.2
34088	7	Sololá	710	Panajachel	8	Panajachel	4	Abril	2023-04-30T00:00:00	2024-11-08T06:00:00	5	Humedad	74
34089	7	Sololá	710	Panajachel	8	Panajachel	4	Abril	2023-04-30T00:00:00	2024-11-08T06:00:00	6	Velocidad del viento	6.4
34090	7	Sololá	710	Panajachel	8	Panajachel	4	Abril	2023-04-30T00:00:00	2024-11-08T06:00:00	7	Dirección del viento	6.44
34091	7	Sololá	710	Panajachel	8	Panajachel	4	Abril	2023-04-30T00:00:00	2024-11-08T06:00:00	1	Precipitación	0
34092	7	Sololá	710	Panajachel	8	Panajachel	4	Abril	2023-04-30T00:00:00	2024-11-08T06:00:00	8	Radiación solar	1
34093	7	Sololá	710	Panajachel	8	Panajachel	4	Abril	2023-04-30T00:00:00	2024-11-08T07:00:00	2	Temperatura media	20.7
34094	7	Sololá	710	Panajachel	8	Panajachel	4	Abril	2023-04-30T00:00:00	2024-11-08T07:00:00	4	Temperatura máxima	20.7
34095	7	Sololá	710	Panajachel	8	Panajachel	4	Abril	2023-04-30T00:00:00	2024-11-08T07:00:00	3	Temperatura mínima	19.6
34096	7	Sololá	710	Panajachel	8	Panajachel	4	Abril	2023-04-30T00:00:00	2024-11-08T07:00:00	5	Humedad	71
34097	7	Sololá	710	Panajachel	8	Panajachel	4	Abril	2023-04-30T00:00:00	2024-11-08T07:00:00	6	Velocidad del viento	6.4
34098	7	Sololá	710	Panajachel	8	Panajachel	4	Abril	2023-04-30T00:00:00	2024-11-08T07:00:00	7	Dirección del viento	6.44
34099	7	Sololá	710	Panajachel	8	Panajachel	4	Abril	2023-04-30T00:00:00	2024-11-08T07:00:00	1	Precipitación	0
34100	7	Sololá	710	Panajachel	8	Panajachel	4	Abril	2023-04-30T00:00:00	2024-11-08T07:00:00	8	Radiación solar	84
34101	7	Sololá	710	Panajachel	8	Panajachel	4	Abril	2023-04-30T00:00:00	2024-11-08T08:00:00	2	Temperatura media	22.6
34102	7	Sololá	710	Panajachel	8	Panajachel	4	Abril	2023-04-30T00:00:00	2024-11-08T08:00:00	4	Temperatura máxima	22.6
34103	7	Sololá	710	Panajachel	8	Panajachel	4	Abril	2023-04-30T00:00:00	2024-11-08T08:00:00	3	Temperatura mínima	20.7
34104	7	Sololá	710	Panajachel	8	Panajachel	4	Abril	2023-04-30T00:00:00	2024-11-08T08:00:00	5	Humedad	64
34105	7	Sololá	710	Panajachel	8	Panajachel	4	Abril	2023-04-30T00:00:00	2024-11-08T08:00:00	6	Velocidad del viento	8
34106	7	Sololá	710	Panajachel	8	Panajachel	4	Abril	2023-04-30T00:00:00	2024-11-08T08:00:00	7	Dirección del viento	8.05
34107	7	Sololá	710	Panajachel	8	Panajachel	4	Abril	2023-04-30T00:00:00	2024-11-08T08:00:00	1	Precipitación	0
34108	7	Sololá	710	Panajachel	8	Panajachel	4	Abril	2023-04-30T00:00:00	2024-11-08T08:00:00	8	Radiación solar	317
34109	7	Sololá	710	Panajachel	8	Panajachel	4	Abril	2023-04-30T00:00:00	2024-11-08T09:00:00	2	Temperatura media	25
34110	7	Sololá	710	Panajachel	8	Panajachel	4	Abril	2023-04-30T00:00:00	2024-11-08T09:00:00	4	Temperatura máxima	25.1
34111	7	Sololá	710	Panajachel	8	Panajachel	4	Abril	2023-04-30T00:00:00	2024-11-08T09:00:00	3	Temperatura mínima	22.7
34112	7	Sololá	710	Panajachel	8	Panajachel	4	Abril	2023-04-30T00:00:00	2024-11-08T09:00:00	5	Humedad	56
34113	7	Sololá	710	Panajachel	8	Panajachel	4	Abril	2023-04-30T00:00:00	2024-11-08T09:00:00	6	Velocidad del viento	9.7
34114	7	Sololá	710	Panajachel	8	Panajachel	4	Abril	2023-04-30T00:00:00	2024-11-08T09:00:00	7	Dirección del viento	9.66
34115	7	Sololá	710	Panajachel	8	Panajachel	4	Abril	2023-04-30T00:00:00	2024-11-08T09:00:00	1	Precipitación	0
34116	7	Sololá	710	Panajachel	8	Panajachel	4	Abril	2023-04-30T00:00:00	2024-11-08T09:00:00	8	Radiación solar	560
34117	7	Sololá	710	Panajachel	8	Panajachel	4	Abril	2023-04-30T00:00:00	2024-11-08T10:00:00	2	Temperatura media	23.1
34118	7	Sololá	710	Panajachel	8	Panajachel	4	Abril	2023-04-30T00:00:00	2024-11-08T10:00:00	4	Temperatura máxima	25.2
34119	7	Sololá	710	Panajachel	8	Panajachel	4	Abril	2023-04-30T00:00:00	2024-11-08T10:00:00	3	Temperatura mínima	22.4
34120	7	Sololá	710	Panajachel	8	Panajachel	4	Abril	2023-04-30T00:00:00	2024-11-08T10:00:00	5	Humedad	68
34121	7	Sololá	710	Panajachel	8	Panajachel	4	Abril	2023-04-30T00:00:00	2024-11-08T10:00:00	6	Velocidad del viento	9.7
34122	7	Sololá	710	Panajachel	8	Panajachel	4	Abril	2023-04-30T00:00:00	2024-11-08T10:00:00	7	Dirección del viento	9.66
34123	7	Sololá	710	Panajachel	8	Panajachel	4	Abril	2023-04-30T00:00:00	2024-11-08T10:00:00	1	Precipitación	0
34124	7	Sololá	710	Panajachel	8	Panajachel	4	Abril	2023-04-30T00:00:00	2024-11-08T10:00:00	8	Radiación solar	717
34125	7	Sololá	710	Panajachel	8	Panajachel	4	Abril	2023-04-30T00:00:00	2024-11-08T11:00:00	2	Temperatura media	25.3
34126	7	Sololá	710	Panajachel	8	Panajachel	4	Abril	2023-04-30T00:00:00	2024-11-08T11:00:00	4	Temperatura máxima	25.3
34127	7	Sololá	710	Panajachel	8	Panajachel	4	Abril	2023-04-30T00:00:00	2024-11-08T11:00:00	3	Temperatura mínima	22.9
34128	7	Sololá	710	Panajachel	8	Panajachel	4	Abril	2023-04-30T00:00:00	2024-11-08T11:00:00	5	Humedad	64
34129	7	Sololá	710	Panajachel	8	Panajachel	4	Abril	2023-04-30T00:00:00	2024-11-08T11:00:00	6	Velocidad del viento	3.2
34130	7	Sololá	710	Panajachel	8	Panajachel	4	Abril	2023-04-30T00:00:00	2024-11-08T11:00:00	7	Dirección del viento	3.22
34131	7	Sololá	710	Panajachel	8	Panajachel	4	Abril	2023-04-30T00:00:00	2024-11-08T11:00:00	1	Precipitación	0
34132	7	Sololá	710	Panajachel	8	Panajachel	4	Abril	2023-04-30T00:00:00	2024-11-08T11:00:00	8	Radiación solar	834
34133	7	Sololá	710	Panajachel	8	Panajachel	4	Abril	2023-04-30T00:00:00	2024-11-08T12:00:00	2	Temperatura media	24.4
34134	7	Sololá	710	Panajachel	8	Panajachel	4	Abril	2023-04-30T00:00:00	2024-11-08T12:00:00	4	Temperatura máxima	25.3
34135	7	Sololá	710	Panajachel	8	Panajachel	4	Abril	2023-04-30T00:00:00	2024-11-08T12:00:00	3	Temperatura mínima	23.7
34136	7	Sololá	710	Panajachel	8	Panajachel	4	Abril	2023-04-30T00:00:00	2024-11-08T12:00:00	5	Humedad	78
34137	7	Sololá	710	Panajachel	8	Panajachel	4	Abril	2023-04-30T00:00:00	2024-11-08T12:00:00	6	Velocidad del viento	4.8
34138	7	Sololá	710	Panajachel	8	Panajachel	4	Abril	2023-04-30T00:00:00	2024-11-08T12:00:00	7	Dirección del viento	4.83
34139	7	Sololá	710	Panajachel	8	Panajachel	4	Abril	2023-04-30T00:00:00	2024-11-08T12:00:00	1	Precipitación	0
34140	7	Sololá	710	Panajachel	8	Panajachel	4	Abril	2023-04-30T00:00:00	2024-11-08T12:00:00	8	Radiación solar	920
34141	7	Sololá	710	Panajachel	8	Panajachel	4	Abril	2023-04-30T00:00:00	2024-11-08T13:00:00	2	Temperatura media	24.4
34142	7	Sololá	710	Panajachel	8	Panajachel	4	Abril	2023-04-30T00:00:00	2024-11-08T13:00:00	4	Temperatura máxima	25.3
34143	7	Sololá	710	Panajachel	8	Panajachel	4	Abril	2023-04-30T00:00:00	2024-11-08T13:00:00	3	Temperatura mínima	24.3
34144	7	Sololá	710	Panajachel	8	Panajachel	4	Abril	2023-04-30T00:00:00	2024-11-08T13:00:00	5	Humedad	80
34145	7	Sololá	710	Panajachel	8	Panajachel	4	Abril	2023-04-30T00:00:00	2024-11-08T13:00:00	6	Velocidad del viento	4.8
34146	7	Sololá	710	Panajachel	8	Panajachel	4	Abril	2023-04-30T00:00:00	2024-11-08T13:00:00	7	Dirección del viento	4.83
34147	7	Sololá	710	Panajachel	8	Panajachel	4	Abril	2023-04-30T00:00:00	2024-11-08T13:00:00	1	Precipitación	0
34148	7	Sololá	710	Panajachel	8	Panajachel	4	Abril	2023-04-30T00:00:00	2024-11-08T13:00:00	8	Radiación solar	945
34149	7	Sololá	710	Panajachel	8	Panajachel	4	Abril	2023-04-30T00:00:00	2024-11-08T14:00:00	2	Temperatura media	24.4
34150	7	Sololá	710	Panajachel	8	Panajachel	4	Abril	2023-04-30T00:00:00	2024-11-08T14:00:00	4	Temperatura máxima	24.7
34151	7	Sololá	710	Panajachel	8	Panajachel	4	Abril	2023-04-30T00:00:00	2024-11-08T14:00:00	3	Temperatura mínima	23.8
34152	7	Sololá	710	Panajachel	8	Panajachel	4	Abril	2023-04-30T00:00:00	2024-11-08T14:00:00	5	Humedad	78
34153	7	Sololá	710	Panajachel	8	Panajachel	4	Abril	2023-04-30T00:00:00	2024-11-08T14:00:00	6	Velocidad del viento	6.4
34154	7	Sololá	710	Panajachel	8	Panajachel	4	Abril	2023-04-30T00:00:00	2024-11-08T14:00:00	7	Dirección del viento	6.44
34155	7	Sololá	710	Panajachel	8	Panajachel	4	Abril	2023-04-30T00:00:00	2024-11-08T14:00:00	1	Precipitación	0
34156	7	Sololá	710	Panajachel	8	Panajachel	4	Abril	2023-04-30T00:00:00	2024-11-08T14:00:00	8	Radiación solar	763
34157	7	Sololá	710	Panajachel	8	Panajachel	4	Abril	2023-04-30T00:00:00	2024-11-08T15:00:00	2	Temperatura media	24
34158	7	Sololá	710	Panajachel	8	Panajachel	4	Abril	2023-04-30T00:00:00	2024-11-08T15:00:00	4	Temperatura máxima	24.5
34159	7	Sololá	710	Panajachel	8	Panajachel	4	Abril	2023-04-30T00:00:00	2024-11-08T15:00:00	3	Temperatura mínima	23.7
34160	7	Sololá	710	Panajachel	8	Panajachel	4	Abril	2023-04-30T00:00:00	2024-11-08T15:00:00	5	Humedad	78
34161	7	Sololá	710	Panajachel	8	Panajachel	4	Abril	2023-04-30T00:00:00	2024-11-08T15:00:00	6	Velocidad del viento	4.8
34162	7	Sololá	710	Panajachel	8	Panajachel	4	Abril	2023-04-30T00:00:00	2024-11-08T15:00:00	7	Dirección del viento	4.83
34163	7	Sololá	710	Panajachel	8	Panajachel	4	Abril	2023-04-30T00:00:00	2024-11-08T15:00:00	1	Precipitación	0
34164	7	Sololá	710	Panajachel	8	Panajachel	4	Abril	2023-04-30T00:00:00	2024-11-08T15:00:00	8	Radiación solar	392
34165	7	Sololá	710	Panajachel	8	Panajachel	4	Abril	2023-04-30T00:00:00	2024-11-08T16:00:00	2	Temperatura media	23.2
34166	7	Sololá	710	Panajachel	8	Panajachel	4	Abril	2023-04-30T00:00:00	2024-11-08T16:00:00	4	Temperatura máxima	24.3
34167	7	Sololá	710	Panajachel	8	Panajachel	4	Abril	2023-04-30T00:00:00	2024-11-08T16:00:00	3	Temperatura mínima	23.2
34168	7	Sololá	710	Panajachel	8	Panajachel	4	Abril	2023-04-30T00:00:00	2024-11-08T16:00:00	5	Humedad	83
34169	7	Sololá	710	Panajachel	8	Panajachel	4	Abril	2023-04-30T00:00:00	2024-11-08T16:00:00	6	Velocidad del viento	4.8
34170	7	Sololá	710	Panajachel	8	Panajachel	4	Abril	2023-04-30T00:00:00	2024-11-08T16:00:00	7	Dirección del viento	4.83
34171	7	Sololá	710	Panajachel	8	Panajachel	4	Abril	2023-04-30T00:00:00	2024-11-08T16:00:00	1	Precipitación	0
34172	7	Sololá	710	Panajachel	8	Panajachel	4	Abril	2023-04-30T00:00:00	2024-11-08T16:00:00	8	Radiación solar	321
34173	7	Sololá	710	Panajachel	8	Panajachel	4	Abril	2023-04-30T00:00:00	2024-11-08T17:00:00	2	Temperatura media	21.9
34174	7	Sololá	710	Panajachel	8	Panajachel	4	Abril	2023-04-30T00:00:00	2024-11-08T17:00:00	4	Temperatura máxima	23.2
34175	7	Sololá	710	Panajachel	8	Panajachel	4	Abril	2023-04-30T00:00:00	2024-11-08T17:00:00	3	Temperatura mínima	21.9
34176	7	Sololá	710	Panajachel	8	Panajachel	4	Abril	2023-04-30T00:00:00	2024-11-08T17:00:00	5	Humedad	87
34177	7	Sololá	710	Panajachel	8	Panajachel	4	Abril	2023-04-30T00:00:00	2024-11-08T17:00:00	6	Velocidad del viento	3.2
34178	7	Sololá	710	Panajachel	8	Panajachel	4	Abril	2023-04-30T00:00:00	2024-11-08T17:00:00	7	Dirección del viento	3.22
34179	7	Sololá	710	Panajachel	8	Panajachel	4	Abril	2023-04-30T00:00:00	2024-11-08T17:00:00	1	Precipitación	0
34180	7	Sololá	710	Panajachel	8	Panajachel	4	Abril	2023-04-30T00:00:00	2024-11-08T17:00:00	8	Radiación solar	117
34181	7	Sololá	710	Panajachel	8	Panajachel	4	Abril	2023-04-30T00:00:00	2024-11-08T18:00:00	2	Temperatura media	21.6
34182	7	Sololá	710	Panajachel	8	Panajachel	4	Abril	2023-04-30T00:00:00	2024-11-08T18:00:00	4	Temperatura máxima	22
34183	7	Sololá	710	Panajachel	8	Panajachel	4	Abril	2023-04-30T00:00:00	2024-11-08T18:00:00	3	Temperatura mínima	21.6
34184	7	Sololá	710	Panajachel	8	Panajachel	4	Abril	2023-04-30T00:00:00	2024-11-08T18:00:00	5	Humedad	87
34185	7	Sololá	710	Panajachel	8	Panajachel	4	Abril	2023-04-30T00:00:00	2024-11-08T18:00:00	6	Velocidad del viento	1.6
34186	7	Sololá	710	Panajachel	8	Panajachel	4	Abril	2023-04-30T00:00:00	2024-11-08T18:00:00	7	Dirección del viento	1.61
34187	7	Sololá	710	Panajachel	8	Panajachel	4	Abril	2023-04-30T00:00:00	2024-11-08T18:00:00	1	Precipitación	0
34188	7	Sololá	710	Panajachel	8	Panajachel	4	Abril	2023-04-30T00:00:00	2024-11-08T18:00:00	8	Radiación solar	39
34189	7	Sololá	710	Panajachel	8	Panajachel	4	Abril	2023-04-30T00:00:00	2024-11-08T19:00:00	2	Temperatura media	20.9
34190	7	Sololá	710	Panajachel	8	Panajachel	4	Abril	2023-04-30T00:00:00	2024-11-08T19:00:00	4	Temperatura máxima	21.6
34191	7	Sololá	710	Panajachel	8	Panajachel	4	Abril	2023-04-30T00:00:00	2024-11-08T19:00:00	3	Temperatura mínima	20.9
34192	7	Sololá	710	Panajachel	8	Panajachel	4	Abril	2023-04-30T00:00:00	2024-11-08T19:00:00	5	Humedad	89
34193	7	Sololá	710	Panajachel	8	Panajachel	4	Abril	2023-04-30T00:00:00	2024-11-08T19:00:00	6	Velocidad del viento	0
34194	7	Sololá	710	Panajachel	8	Panajachel	4	Abril	2023-04-30T00:00:00	2024-11-08T19:00:00	7	Dirección del viento	0
34195	7	Sololá	710	Panajachel	8	Panajachel	4	Abril	2023-04-30T00:00:00	2024-11-08T19:00:00	1	Precipitación	0
34196	7	Sololá	710	Panajachel	8	Panajachel	4	Abril	2023-04-30T00:00:00	2024-11-08T19:00:00	8	Radiación solar	0
34197	7	Sololá	710	Panajachel	8	Panajachel	4	Abril	2023-04-30T00:00:00	2024-11-08T20:00:00	2	Temperatura media	22.2
34198	7	Sololá	710	Panajachel	8	Panajachel	4	Abril	2023-04-30T00:00:00	2024-11-08T20:00:00	4	Temperatura máxima	22.3
34199	7	Sololá	710	Panajachel	8	Panajachel	4	Abril	2023-04-30T00:00:00	2024-11-08T20:00:00	3	Temperatura mínima	20.8
34200	7	Sololá	710	Panajachel	8	Panajachel	4	Abril	2023-04-30T00:00:00	2024-11-08T20:00:00	5	Humedad	69
34201	7	Sololá	710	Panajachel	8	Panajachel	4	Abril	2023-04-30T00:00:00	2024-11-08T20:00:00	6	Velocidad del viento	6.4
34202	7	Sololá	710	Panajachel	8	Panajachel	4	Abril	2023-04-30T00:00:00	2024-11-08T20:00:00	7	Dirección del viento	6.44
34203	7	Sololá	710	Panajachel	8	Panajachel	4	Abril	2023-04-30T00:00:00	2024-11-08T20:00:00	1	Precipitación	0
34204	7	Sololá	710	Panajachel	8	Panajachel	4	Abril	2023-04-30T00:00:00	2024-11-08T20:00:00	8	Radiación solar	0
34205	7	Sololá	710	Panajachel	8	Panajachel	4	Abril	2023-04-30T00:00:00	2024-11-08T21:00:00	2	Temperatura media	21.6
34206	7	Sololá	710	Panajachel	8	Panajachel	4	Abril	2023-04-30T00:00:00	2024-11-08T21:00:00	4	Temperatura máxima	22.2
34207	7	Sololá	710	Panajachel	8	Panajachel	4	Abril	2023-04-30T00:00:00	2024-11-08T21:00:00	3	Temperatura mínima	21.6
34208	7	Sololá	710	Panajachel	8	Panajachel	4	Abril	2023-04-30T00:00:00	2024-11-08T21:00:00	5	Humedad	70
34209	7	Sololá	710	Panajachel	8	Panajachel	4	Abril	2023-04-30T00:00:00	2024-11-08T21:00:00	6	Velocidad del viento	8
34210	7	Sololá	710	Panajachel	8	Panajachel	4	Abril	2023-04-30T00:00:00	2024-11-08T21:00:00	7	Dirección del viento	8.05
34211	7	Sololá	710	Panajachel	8	Panajachel	4	Abril	2023-04-30T00:00:00	2024-11-08T21:00:00	1	Precipitación	0
34212	7	Sololá	710	Panajachel	8	Panajachel	4	Abril	2023-04-30T00:00:00	2024-11-08T21:00:00	8	Radiación solar	0
34213	7	Sololá	710	Panajachel	8	Panajachel	4	Abril	2023-04-30T00:00:00	2024-11-08T22:00:00	2	Temperatura media	21.2
34214	7	Sololá	710	Panajachel	8	Panajachel	4	Abril	2023-04-30T00:00:00	2024-11-08T22:00:00	4	Temperatura máxima	21.7
34215	7	Sololá	710	Panajachel	8	Panajachel	4	Abril	2023-04-30T00:00:00	2024-11-08T22:00:00	3	Temperatura mínima	21.2
34216	7	Sololá	710	Panajachel	8	Panajachel	4	Abril	2023-04-30T00:00:00	2024-11-08T22:00:00	5	Humedad	70
34217	7	Sololá	710	Panajachel	8	Panajachel	4	Abril	2023-04-30T00:00:00	2024-11-08T22:00:00	6	Velocidad del viento	9.7
34218	7	Sololá	710	Panajachel	8	Panajachel	4	Abril	2023-04-30T00:00:00	2024-11-08T22:00:00	7	Dirección del viento	9.66
34219	7	Sololá	710	Panajachel	8	Panajachel	4	Abril	2023-04-30T00:00:00	2024-11-08T22:00:00	1	Precipitación	0
34220	7	Sololá	710	Panajachel	8	Panajachel	4	Abril	2023-04-30T00:00:00	2024-11-08T22:00:00	8	Radiación solar	0
34221	7	Sololá	710	Panajachel	8	Panajachel	4	Abril	2023-04-30T00:00:00	2024-11-08T23:00:00	2	Temperatura media	20.7
34222	7	Sololá	710	Panajachel	8	Panajachel	4	Abril	2023-04-30T00:00:00	2024-11-08T23:00:00	4	Temperatura máxima	21.2
34223	7	Sololá	710	Panajachel	8	Panajachel	4	Abril	2023-04-30T00:00:00	2024-11-08T23:00:00	3	Temperatura mínima	19.7
34224	7	Sololá	710	Panajachel	8	Panajachel	4	Abril	2023-04-30T00:00:00	2024-11-08T23:00:00	5	Humedad	71
34225	7	Sololá	710	Panajachel	8	Panajachel	4	Abril	2023-04-30T00:00:00	2024-11-08T23:00:00	6	Velocidad del viento	4.8
34226	7	Sololá	710	Panajachel	8	Panajachel	4	Abril	2023-04-30T00:00:00	2024-11-08T23:00:00	7	Dirección del viento	4.83
34227	7	Sololá	710	Panajachel	8	Panajachel	4	Abril	2023-04-30T00:00:00	2024-11-08T23:00:00	1	Precipitación	0
34228	7	Sololá	710	Panajachel	8	Panajachel	4	Abril	2023-04-30T00:00:00	2024-11-08T23:00:00	8	Radiación solar	0
34229	7	Sololá	710	Panajachel	8	Panajachel	5	Mayo	2023-01-05T00:00:00	2024-11-08T00:00:00	2	Temperatura media	20.2
34230	7	Sololá	710	Panajachel	8	Panajachel	5	Mayo	2023-01-05T00:00:00	2024-11-08T00:00:00	4	Temperatura máxima	20.9
34231	7	Sololá	710	Panajachel	8	Panajachel	5	Mayo	2023-01-05T00:00:00	2024-11-08T00:00:00	3	Temperatura mínima	20.2
34232	7	Sololá	710	Panajachel	8	Panajachel	5	Mayo	2023-01-05T00:00:00	2024-11-08T00:00:00	5	Humedad	72
34233	7	Sololá	710	Panajachel	8	Panajachel	5	Mayo	2023-01-05T00:00:00	2024-11-08T00:00:00	6	Velocidad del viento	6.4
34234	7	Sololá	710	Panajachel	8	Panajachel	5	Mayo	2023-01-05T00:00:00	2024-11-08T00:00:00	7	Dirección del viento	6.44
34235	7	Sololá	710	Panajachel	8	Panajachel	5	Mayo	2023-01-05T00:00:00	2024-11-08T00:00:00	1	Precipitación	0
34236	7	Sololá	710	Panajachel	8	Panajachel	5	Mayo	2023-01-05T00:00:00	2024-11-08T00:00:00	8	Radiación solar	0
34237	7	Sololá	710	Panajachel	8	Panajachel	5	Mayo	2023-01-05T00:00:00	2024-11-08T01:00:00	2	Temperatura media	19.2
34238	7	Sololá	710	Panajachel	8	Panajachel	5	Mayo	2023-01-05T00:00:00	2024-11-08T01:00:00	4	Temperatura máxima	20.2
34239	7	Sololá	710	Panajachel	8	Panajachel	5	Mayo	2023-01-05T00:00:00	2024-11-08T01:00:00	3	Temperatura mínima	18.9
34240	7	Sololá	710	Panajachel	8	Panajachel	5	Mayo	2023-01-05T00:00:00	2024-11-08T01:00:00	5	Humedad	74
34241	7	Sololá	710	Panajachel	8	Panajachel	5	Mayo	2023-01-05T00:00:00	2024-11-08T01:00:00	6	Velocidad del viento	3.2
34242	7	Sololá	710	Panajachel	8	Panajachel	5	Mayo	2023-01-05T00:00:00	2024-11-08T01:00:00	7	Dirección del viento	3.22
34243	7	Sololá	710	Panajachel	8	Panajachel	5	Mayo	2023-01-05T00:00:00	2024-11-08T01:00:00	1	Precipitación	0
34244	7	Sololá	710	Panajachel	8	Panajachel	5	Mayo	2023-01-05T00:00:00	2024-11-08T01:00:00	8	Radiación solar	0
34245	7	Sololá	710	Panajachel	8	Panajachel	5	Mayo	2023-01-05T00:00:00	2024-11-08T02:00:00	2	Temperatura media	18.4
34246	7	Sololá	710	Panajachel	8	Panajachel	5	Mayo	2023-01-05T00:00:00	2024-11-08T02:00:00	4	Temperatura máxima	19.2
34247	7	Sololá	710	Panajachel	8	Panajachel	5	Mayo	2023-01-05T00:00:00	2024-11-08T02:00:00	3	Temperatura mínima	18.3
34248	7	Sololá	710	Panajachel	8	Panajachel	5	Mayo	2023-01-05T00:00:00	2024-11-08T02:00:00	5	Humedad	76
34249	7	Sololá	710	Panajachel	8	Panajachel	5	Mayo	2023-01-05T00:00:00	2024-11-08T02:00:00	6	Velocidad del viento	3.2
34250	7	Sololá	710	Panajachel	8	Panajachel	5	Mayo	2023-01-05T00:00:00	2024-11-08T02:00:00	7	Dirección del viento	3.22
34251	7	Sololá	710	Panajachel	8	Panajachel	5	Mayo	2023-01-05T00:00:00	2024-11-08T02:00:00	1	Precipitación	0
34252	7	Sololá	710	Panajachel	8	Panajachel	5	Mayo	2023-01-05T00:00:00	2024-11-08T02:00:00	8	Radiación solar	0
34253	7	Sololá	710	Panajachel	8	Panajachel	5	Mayo	2023-01-05T00:00:00	2024-11-08T03:00:00	2	Temperatura media	17.6
34254	7	Sololá	710	Panajachel	8	Panajachel	5	Mayo	2023-01-05T00:00:00	2024-11-08T03:00:00	4	Temperatura máxima	18.5
34255	7	Sololá	710	Panajachel	8	Panajachel	5	Mayo	2023-01-05T00:00:00	2024-11-08T03:00:00	3	Temperatura mínima	17.6
34256	7	Sololá	710	Panajachel	8	Panajachel	5	Mayo	2023-01-05T00:00:00	2024-11-08T03:00:00	5	Humedad	79
34257	7	Sololá	710	Panajachel	8	Panajachel	5	Mayo	2023-01-05T00:00:00	2024-11-08T03:00:00	6	Velocidad del viento	3.2
34258	7	Sololá	710	Panajachel	8	Panajachel	5	Mayo	2023-01-05T00:00:00	2024-11-08T03:00:00	7	Dirección del viento	3.22
34259	7	Sololá	710	Panajachel	8	Panajachel	5	Mayo	2023-01-05T00:00:00	2024-11-08T03:00:00	1	Precipitación	0
34260	7	Sololá	710	Panajachel	8	Panajachel	5	Mayo	2023-01-05T00:00:00	2024-11-08T03:00:00	8	Radiación solar	0
34261	7	Sololá	710	Panajachel	8	Panajachel	5	Mayo	2023-01-05T00:00:00	2024-11-08T04:00:00	2	Temperatura media	17.4
34262	7	Sololá	710	Panajachel	8	Panajachel	5	Mayo	2023-01-05T00:00:00	2024-11-08T04:00:00	4	Temperatura máxima	17.7
34263	7	Sololá	710	Panajachel	8	Panajachel	5	Mayo	2023-01-05T00:00:00	2024-11-08T04:00:00	3	Temperatura mínima	17.4
34264	7	Sololá	710	Panajachel	8	Panajachel	5	Mayo	2023-01-05T00:00:00	2024-11-08T04:00:00	5	Humedad	77
34265	7	Sololá	710	Panajachel	8	Panajachel	5	Mayo	2023-01-05T00:00:00	2024-11-08T04:00:00	6	Velocidad del viento	1.6
34266	7	Sololá	710	Panajachel	8	Panajachel	5	Mayo	2023-01-05T00:00:00	2024-11-08T04:00:00	7	Dirección del viento	1.61
34267	7	Sololá	710	Panajachel	8	Panajachel	5	Mayo	2023-01-05T00:00:00	2024-11-08T04:00:00	1	Precipitación	0
34268	7	Sololá	710	Panajachel	8	Panajachel	5	Mayo	2023-01-05T00:00:00	2024-11-08T04:00:00	8	Radiación solar	0
34269	7	Sololá	710	Panajachel	8	Panajachel	5	Mayo	2023-01-05T00:00:00	2024-11-08T05:00:00	2	Temperatura media	17.1
34270	7	Sololá	710	Panajachel	8	Panajachel	5	Mayo	2023-01-05T00:00:00	2024-11-08T05:00:00	4	Temperatura máxima	17.4
34271	7	Sololá	710	Panajachel	8	Panajachel	5	Mayo	2023-01-05T00:00:00	2024-11-08T05:00:00	3	Temperatura mínima	16.9
34272	7	Sololá	710	Panajachel	8	Panajachel	5	Mayo	2023-01-05T00:00:00	2024-11-08T05:00:00	5	Humedad	76
34273	7	Sololá	710	Panajachel	8	Panajachel	5	Mayo	2023-01-05T00:00:00	2024-11-08T05:00:00	6	Velocidad del viento	0
34274	7	Sololá	710	Panajachel	8	Panajachel	5	Mayo	2023-01-05T00:00:00	2024-11-08T05:00:00	7	Dirección del viento	0
34275	7	Sololá	710	Panajachel	8	Panajachel	5	Mayo	2023-01-05T00:00:00	2024-11-08T05:00:00	1	Precipitación	0
34276	7	Sololá	710	Panajachel	8	Panajachel	5	Mayo	2023-01-05T00:00:00	2024-11-08T05:00:00	8	Radiación solar	0
34277	7	Sololá	710	Panajachel	8	Panajachel	5	Mayo	2023-01-05T00:00:00	2024-11-08T06:00:00	2	Temperatura media	16.7
34278	7	Sololá	710	Panajachel	8	Panajachel	5	Mayo	2023-01-05T00:00:00	2024-11-08T06:00:00	4	Temperatura máxima	17.2
34279	7	Sololá	710	Panajachel	8	Panajachel	5	Mayo	2023-01-05T00:00:00	2024-11-08T06:00:00	3	Temperatura mínima	16.6
34280	7	Sololá	710	Panajachel	8	Panajachel	5	Mayo	2023-01-05T00:00:00	2024-11-08T06:00:00	5	Humedad	77
34281	7	Sololá	710	Panajachel	8	Panajachel	5	Mayo	2023-01-05T00:00:00	2024-11-08T06:00:00	6	Velocidad del viento	0
34282	7	Sololá	710	Panajachel	8	Panajachel	5	Mayo	2023-01-05T00:00:00	2024-11-08T06:00:00	7	Dirección del viento	0
34283	7	Sololá	710	Panajachel	8	Panajachel	5	Mayo	2023-01-05T00:00:00	2024-11-08T06:00:00	1	Precipitación	0
34284	7	Sololá	710	Panajachel	8	Panajachel	5	Mayo	2023-01-05T00:00:00	2024-11-08T06:00:00	8	Radiación solar	1
34285	7	Sololá	710	Panajachel	8	Panajachel	5	Mayo	2023-01-05T00:00:00	2024-11-08T07:00:00	2	Temperatura media	18.5
34286	7	Sololá	710	Panajachel	8	Panajachel	5	Mayo	2023-01-05T00:00:00	2024-11-08T07:00:00	4	Temperatura máxima	18.5
34287	7	Sololá	710	Panajachel	8	Panajachel	5	Mayo	2023-01-05T00:00:00	2024-11-08T07:00:00	3	Temperatura mínima	16.6
34288	7	Sololá	710	Panajachel	8	Panajachel	5	Mayo	2023-01-05T00:00:00	2024-11-08T07:00:00	5	Humedad	74
34289	7	Sololá	710	Panajachel	8	Panajachel	5	Mayo	2023-01-05T00:00:00	2024-11-08T07:00:00	6	Velocidad del viento	0
34290	7	Sololá	710	Panajachel	8	Panajachel	5	Mayo	2023-01-05T00:00:00	2024-11-08T07:00:00	7	Dirección del viento	0
34291	7	Sololá	710	Panajachel	8	Panajachel	5	Mayo	2023-01-05T00:00:00	2024-11-08T07:00:00	1	Precipitación	0
34292	7	Sololá	710	Panajachel	8	Panajachel	5	Mayo	2023-01-05T00:00:00	2024-11-08T07:00:00	8	Radiación solar	88
34293	7	Sololá	710	Panajachel	8	Panajachel	5	Mayo	2023-01-05T00:00:00	2024-11-08T08:00:00	2	Temperatura media	20.9
34294	7	Sololá	710	Panajachel	8	Panajachel	5	Mayo	2023-01-05T00:00:00	2024-11-08T08:00:00	4	Temperatura máxima	21
34295	7	Sololá	710	Panajachel	8	Panajachel	5	Mayo	2023-01-05T00:00:00	2024-11-08T08:00:00	3	Temperatura mínima	18.5
34296	7	Sololá	710	Panajachel	8	Panajachel	5	Mayo	2023-01-05T00:00:00	2024-11-08T08:00:00	5	Humedad	74
34297	7	Sololá	710	Panajachel	8	Panajachel	5	Mayo	2023-01-05T00:00:00	2024-11-08T08:00:00	6	Velocidad del viento	0
34298	7	Sololá	710	Panajachel	8	Panajachel	5	Mayo	2023-01-05T00:00:00	2024-11-08T08:00:00	7	Dirección del viento	0
34299	7	Sololá	710	Panajachel	8	Panajachel	5	Mayo	2023-01-05T00:00:00	2024-11-08T08:00:00	1	Precipitación	0
34300	7	Sololá	710	Panajachel	8	Panajachel	5	Mayo	2023-01-05T00:00:00	2024-11-08T08:00:00	8	Radiación solar	304
34301	7	Sololá	710	Panajachel	8	Panajachel	5	Mayo	2023-01-05T00:00:00	2024-11-08T09:00:00	2	Temperatura media	21.7
34302	7	Sololá	710	Panajachel	8	Panajachel	5	Mayo	2023-01-05T00:00:00	2024-11-08T09:00:00	4	Temperatura máxima	21.7
34303	7	Sololá	710	Panajachel	8	Panajachel	5	Mayo	2023-01-05T00:00:00	2024-11-08T09:00:00	3	Temperatura mínima	20.9
34304	7	Sololá	710	Panajachel	8	Panajachel	5	Mayo	2023-01-05T00:00:00	2024-11-08T09:00:00	5	Humedad	72
34305	7	Sololá	710	Panajachel	8	Panajachel	5	Mayo	2023-01-05T00:00:00	2024-11-08T09:00:00	6	Velocidad del viento	0
34306	7	Sololá	710	Panajachel	8	Panajachel	5	Mayo	2023-01-05T00:00:00	2024-11-08T09:00:00	7	Dirección del viento	0
34307	7	Sololá	710	Panajachel	8	Panajachel	5	Mayo	2023-01-05T00:00:00	2024-11-08T09:00:00	1	Precipitación	0
34308	7	Sololá	710	Panajachel	8	Panajachel	5	Mayo	2023-01-05T00:00:00	2024-11-08T09:00:00	8	Radiación solar	516
34309	7	Sololá	710	Panajachel	8	Panajachel	5	Mayo	2023-01-05T00:00:00	2024-11-08T10:00:00	2	Temperatura media	23.4
34310	7	Sololá	710	Panajachel	8	Panajachel	5	Mayo	2023-01-05T00:00:00	2024-11-08T10:00:00	4	Temperatura máxima	23.4
34311	7	Sololá	710	Panajachel	8	Panajachel	5	Mayo	2023-01-05T00:00:00	2024-11-08T10:00:00	3	Temperatura mínima	21.6
34312	7	Sololá	710	Panajachel	8	Panajachel	5	Mayo	2023-01-05T00:00:00	2024-11-08T10:00:00	5	Humedad	65
34313	7	Sololá	710	Panajachel	8	Panajachel	5	Mayo	2023-01-05T00:00:00	2024-11-08T10:00:00	6	Velocidad del viento	0
34314	7	Sololá	710	Panajachel	8	Panajachel	5	Mayo	2023-01-05T00:00:00	2024-11-08T10:00:00	7	Dirección del viento	0
34315	7	Sololá	710	Panajachel	8	Panajachel	5	Mayo	2023-01-05T00:00:00	2024-11-08T10:00:00	1	Precipitación	0
34316	7	Sololá	710	Panajachel	8	Panajachel	5	Mayo	2023-01-05T00:00:00	2024-11-08T10:00:00	8	Radiación solar	728
34317	7	Sololá	710	Panajachel	8	Panajachel	5	Mayo	2023-01-05T00:00:00	2024-11-08T11:00:00	2	Temperatura media	22.9
34318	7	Sololá	710	Panajachel	8	Panajachel	5	Mayo	2023-01-05T00:00:00	2024-11-08T11:00:00	4	Temperatura máxima	23.4
34319	7	Sololá	710	Panajachel	8	Panajachel	5	Mayo	2023-01-05T00:00:00	2024-11-08T11:00:00	3	Temperatura mínima	22.5
34320	7	Sololá	710	Panajachel	8	Panajachel	5	Mayo	2023-01-05T00:00:00	2024-11-08T11:00:00	5	Humedad	68
34321	7	Sololá	710	Panajachel	8	Panajachel	5	Mayo	2023-01-05T00:00:00	2024-11-08T11:00:00	6	Velocidad del viento	0
34322	7	Sololá	710	Panajachel	8	Panajachel	5	Mayo	2023-01-05T00:00:00	2024-11-08T11:00:00	7	Dirección del viento	0
34323	7	Sololá	710	Panajachel	8	Panajachel	5	Mayo	2023-01-05T00:00:00	2024-11-08T11:00:00	1	Precipitación	0
34324	7	Sololá	710	Panajachel	8	Panajachel	5	Mayo	2023-01-05T00:00:00	2024-11-08T11:00:00	8	Radiación solar	831
34325	7	Sololá	710	Panajachel	8	Panajachel	5	Mayo	2023-01-05T00:00:00	2024-11-08T12:00:00	2	Temperatura media	24.9
34326	7	Sololá	710	Panajachel	8	Panajachel	5	Mayo	2023-01-05T00:00:00	2024-11-08T12:00:00	4	Temperatura máxima	24.9
34327	7	Sololá	710	Panajachel	8	Panajachel	5	Mayo	2023-01-05T00:00:00	2024-11-08T12:00:00	3	Temperatura mínima	23
34328	7	Sololá	710	Panajachel	8	Panajachel	5	Mayo	2023-01-05T00:00:00	2024-11-08T12:00:00	5	Humedad	65
34329	7	Sololá	710	Panajachel	8	Panajachel	5	Mayo	2023-01-05T00:00:00	2024-11-08T12:00:00	6	Velocidad del viento	0
34330	7	Sololá	710	Panajachel	8	Panajachel	5	Mayo	2023-01-05T00:00:00	2024-11-08T12:00:00	7	Dirección del viento	0
34331	7	Sololá	710	Panajachel	8	Panajachel	5	Mayo	2023-01-05T00:00:00	2024-11-08T12:00:00	1	Precipitación	0
34332	7	Sololá	710	Panajachel	8	Panajachel	5	Mayo	2023-01-05T00:00:00	2024-11-08T12:00:00	8	Radiación solar	931
34333	7	Sololá	710	Panajachel	8	Panajachel	5	Mayo	2023-01-05T00:00:00	2024-11-08T13:00:00	2	Temperatura media	24.7
34334	7	Sololá	710	Panajachel	8	Panajachel	5	Mayo	2023-01-05T00:00:00	2024-11-08T13:00:00	4	Temperatura máxima	25.9
34335	7	Sololá	710	Panajachel	8	Panajachel	5	Mayo	2023-01-05T00:00:00	2024-11-08T13:00:00	3	Temperatura mínima	24.7
34336	7	Sololá	710	Panajachel	8	Panajachel	5	Mayo	2023-01-05T00:00:00	2024-11-08T13:00:00	5	Humedad	74
34337	7	Sololá	710	Panajachel	8	Panajachel	5	Mayo	2023-01-05T00:00:00	2024-11-08T13:00:00	6	Velocidad del viento	1.6
34338	7	Sololá	710	Panajachel	8	Panajachel	5	Mayo	2023-01-05T00:00:00	2024-11-08T13:00:00	7	Dirección del viento	1.61
34339	7	Sololá	710	Panajachel	8	Panajachel	5	Mayo	2023-01-05T00:00:00	2024-11-08T13:00:00	1	Precipitación	0
34340	7	Sololá	710	Panajachel	8	Panajachel	5	Mayo	2023-01-05T00:00:00	2024-11-08T13:00:00	8	Radiación solar	872
34341	7	Sololá	710	Panajachel	8	Panajachel	5	Mayo	2023-01-05T00:00:00	2024-11-08T14:00:00	2	Temperatura media	24.4
34342	7	Sololá	710	Panajachel	8	Panajachel	5	Mayo	2023-01-05T00:00:00	2024-11-08T14:00:00	4	Temperatura máxima	24.8
34343	7	Sololá	710	Panajachel	8	Panajachel	5	Mayo	2023-01-05T00:00:00	2024-11-08T14:00:00	3	Temperatura mínima	24.2
34344	7	Sololá	710	Panajachel	8	Panajachel	5	Mayo	2023-01-05T00:00:00	2024-11-08T14:00:00	5	Humedad	75
34345	7	Sololá	710	Panajachel	8	Panajachel	5	Mayo	2023-01-05T00:00:00	2024-11-08T14:00:00	6	Velocidad del viento	6.4
34346	7	Sololá	710	Panajachel	8	Panajachel	5	Mayo	2023-01-05T00:00:00	2024-11-08T14:00:00	7	Dirección del viento	6.44
34347	7	Sololá	710	Panajachel	8	Panajachel	5	Mayo	2023-01-05T00:00:00	2024-11-08T14:00:00	1	Precipitación	0
34348	7	Sololá	710	Panajachel	8	Panajachel	5	Mayo	2023-01-05T00:00:00	2024-11-08T14:00:00	8	Radiación solar	830
34349	7	Sololá	710	Panajachel	8	Panajachel	5	Mayo	2023-01-05T00:00:00	2024-11-08T15:00:00	2	Temperatura media	22.7
34350	7	Sololá	710	Panajachel	8	Panajachel	5	Mayo	2023-01-05T00:00:00	2024-11-08T15:00:00	4	Temperatura máxima	24.4
34351	7	Sololá	710	Panajachel	8	Panajachel	5	Mayo	2023-01-05T00:00:00	2024-11-08T15:00:00	3	Temperatura mínima	22.7
34352	7	Sololá	710	Panajachel	8	Panajachel	5	Mayo	2023-01-05T00:00:00	2024-11-08T15:00:00	5	Humedad	81
34353	7	Sololá	710	Panajachel	8	Panajachel	5	Mayo	2023-01-05T00:00:00	2024-11-08T15:00:00	6	Velocidad del viento	6.4
34354	7	Sololá	710	Panajachel	8	Panajachel	5	Mayo	2023-01-05T00:00:00	2024-11-08T15:00:00	7	Dirección del viento	6.44
34355	7	Sololá	710	Panajachel	8	Panajachel	5	Mayo	2023-01-05T00:00:00	2024-11-08T15:00:00	1	Precipitación	0
34356	7	Sololá	710	Panajachel	8	Panajachel	5	Mayo	2023-01-05T00:00:00	2024-11-08T15:00:00	8	Radiación solar	266
34357	7	Sololá	710	Panajachel	8	Panajachel	5	Mayo	2023-01-05T00:00:00	2024-11-08T16:00:00	2	Temperatura media	22.4
34358	7	Sololá	710	Panajachel	8	Panajachel	5	Mayo	2023-01-05T00:00:00	2024-11-08T16:00:00	4	Temperatura máxima	22.8
34359	7	Sololá	710	Panajachel	8	Panajachel	5	Mayo	2023-01-05T00:00:00	2024-11-08T16:00:00	3	Temperatura mínima	22.4
34360	7	Sololá	710	Panajachel	8	Panajachel	5	Mayo	2023-01-05T00:00:00	2024-11-08T16:00:00	5	Humedad	82
34361	7	Sololá	710	Panajachel	8	Panajachel	5	Mayo	2023-01-05T00:00:00	2024-11-08T16:00:00	6	Velocidad del viento	1.6
34362	7	Sololá	710	Panajachel	8	Panajachel	5	Mayo	2023-01-05T00:00:00	2024-11-08T16:00:00	7	Dirección del viento	1.61
34363	7	Sololá	710	Panajachel	8	Panajachel	5	Mayo	2023-01-05T00:00:00	2024-11-08T16:00:00	1	Precipitación	0
34364	7	Sololá	710	Panajachel	8	Panajachel	5	Mayo	2023-01-05T00:00:00	2024-11-08T16:00:00	8	Radiación solar	153
34365	7	Sololá	710	Panajachel	8	Panajachel	5	Mayo	2023-01-05T00:00:00	2024-11-08T17:00:00	2	Temperatura media	22.2
34366	7	Sololá	710	Panajachel	8	Panajachel	5	Mayo	2023-01-05T00:00:00	2024-11-08T17:00:00	4	Temperatura máxima	22.4
34367	7	Sololá	710	Panajachel	8	Panajachel	5	Mayo	2023-01-05T00:00:00	2024-11-08T17:00:00	3	Temperatura mínima	21.8
34368	7	Sololá	710	Panajachel	8	Panajachel	5	Mayo	2023-01-05T00:00:00	2024-11-08T17:00:00	5	Humedad	87
34369	7	Sololá	710	Panajachel	8	Panajachel	5	Mayo	2023-01-05T00:00:00	2024-11-08T17:00:00	6	Velocidad del viento	1.6
34370	7	Sololá	710	Panajachel	8	Panajachel	5	Mayo	2023-01-05T00:00:00	2024-11-08T17:00:00	7	Dirección del viento	1.61
34371	7	Sololá	710	Panajachel	8	Panajachel	5	Mayo	2023-01-05T00:00:00	2024-11-08T17:00:00	1	Precipitación	0
34372	7	Sololá	710	Panajachel	8	Panajachel	5	Mayo	2023-01-05T00:00:00	2024-11-08T17:00:00	8	Radiación solar	94
34373	7	Sololá	710	Panajachel	8	Panajachel	5	Mayo	2023-01-05T00:00:00	2024-11-08T18:00:00	2	Temperatura media	20.6
34374	7	Sololá	710	Panajachel	8	Panajachel	5	Mayo	2023-01-05T00:00:00	2024-11-08T18:00:00	4	Temperatura máxima	22.1
34375	7	Sololá	710	Panajachel	8	Panajachel	5	Mayo	2023-01-05T00:00:00	2024-11-08T18:00:00	3	Temperatura mínima	20.6
34376	7	Sololá	710	Panajachel	8	Panajachel	5	Mayo	2023-01-05T00:00:00	2024-11-08T18:00:00	5	Humedad	91
34377	7	Sololá	710	Panajachel	8	Panajachel	5	Mayo	2023-01-05T00:00:00	2024-11-08T18:00:00	6	Velocidad del viento	3.2
34378	7	Sololá	710	Panajachel	8	Panajachel	5	Mayo	2023-01-05T00:00:00	2024-11-08T18:00:00	7	Dirección del viento	3.22
34379	7	Sololá	710	Panajachel	8	Panajachel	5	Mayo	2023-01-05T00:00:00	2024-11-08T18:00:00	1	Precipitación	0
34380	7	Sololá	710	Panajachel	8	Panajachel	5	Mayo	2023-01-05T00:00:00	2024-11-08T18:00:00	8	Radiación solar	28
34381	7	Sololá	710	Panajachel	8	Panajachel	5	Mayo	2023-01-05T00:00:00	2024-11-08T19:00:00	2	Temperatura media	20.6
34382	7	Sololá	710	Panajachel	8	Panajachel	5	Mayo	2023-01-05T00:00:00	2024-11-08T19:00:00	4	Temperatura máxima	20.6
34383	7	Sololá	710	Panajachel	8	Panajachel	5	Mayo	2023-01-05T00:00:00	2024-11-08T19:00:00	3	Temperatura mínima	20.3
34384	7	Sololá	710	Panajachel	8	Panajachel	5	Mayo	2023-01-05T00:00:00	2024-11-08T19:00:00	5	Humedad	90
34385	7	Sololá	710	Panajachel	8	Panajachel	5	Mayo	2023-01-05T00:00:00	2024-11-08T19:00:00	6	Velocidad del viento	1.6
34386	7	Sololá	710	Panajachel	8	Panajachel	5	Mayo	2023-01-05T00:00:00	2024-11-08T19:00:00	7	Dirección del viento	1.61
34387	7	Sololá	710	Panajachel	8	Panajachel	5	Mayo	2023-01-05T00:00:00	2024-11-08T19:00:00	1	Precipitación	0
34388	7	Sololá	710	Panajachel	8	Panajachel	5	Mayo	2023-01-05T00:00:00	2024-11-08T19:00:00	8	Radiación solar	0
34389	7	Sololá	710	Panajachel	8	Panajachel	5	Mayo	2023-01-05T00:00:00	2024-11-08T20:00:00	2	Temperatura media	20.6
34390	7	Sololá	710	Panajachel	8	Panajachel	5	Mayo	2023-01-05T00:00:00	2024-11-08T20:00:00	4	Temperatura máxima	20.7
34391	7	Sololá	710	Panajachel	8	Panajachel	5	Mayo	2023-01-05T00:00:00	2024-11-08T20:00:00	3	Temperatura mínima	20.6
34392	7	Sololá	710	Panajachel	8	Panajachel	5	Mayo	2023-01-05T00:00:00	2024-11-08T20:00:00	5	Humedad	91
34393	7	Sololá	710	Panajachel	8	Panajachel	5	Mayo	2023-01-05T00:00:00	2024-11-08T20:00:00	6	Velocidad del viento	0
34394	7	Sololá	710	Panajachel	8	Panajachel	5	Mayo	2023-01-05T00:00:00	2024-11-08T20:00:00	7	Dirección del viento	0
34395	7	Sololá	710	Panajachel	8	Panajachel	5	Mayo	2023-01-05T00:00:00	2024-11-08T20:00:00	1	Precipitación	0
34396	7	Sololá	710	Panajachel	8	Panajachel	5	Mayo	2023-01-05T00:00:00	2024-11-08T20:00:00	8	Radiación solar	0
34397	7	Sololá	710	Panajachel	8	Panajachel	5	Mayo	2023-01-05T00:00:00	2024-11-08T21:00:00	2	Temperatura media	20.1
34398	7	Sololá	710	Panajachel	8	Panajachel	5	Mayo	2023-01-05T00:00:00	2024-11-08T21:00:00	4	Temperatura máxima	20.6
34399	7	Sololá	710	Panajachel	8	Panajachel	5	Mayo	2023-01-05T00:00:00	2024-11-08T21:00:00	3	Temperatura mínima	20.1
34400	7	Sololá	710	Panajachel	8	Panajachel	5	Mayo	2023-01-05T00:00:00	2024-11-08T21:00:00	5	Humedad	93
34401	7	Sololá	710	Panajachel	8	Panajachel	5	Mayo	2023-01-05T00:00:00	2024-11-08T21:00:00	6	Velocidad del viento	1.6
34402	7	Sololá	710	Panajachel	8	Panajachel	5	Mayo	2023-01-05T00:00:00	2024-11-08T21:00:00	7	Dirección del viento	1.61
34403	7	Sololá	710	Panajachel	8	Panajachel	5	Mayo	2023-01-05T00:00:00	2024-11-08T21:00:00	1	Precipitación	0
34404	7	Sololá	710	Panajachel	8	Panajachel	5	Mayo	2023-01-05T00:00:00	2024-11-08T21:00:00	8	Radiación solar	0
34405	7	Sololá	710	Panajachel	8	Panajachel	5	Mayo	2023-01-05T00:00:00	2024-11-08T22:00:00	2	Temperatura media	19.7
34406	7	Sololá	710	Panajachel	8	Panajachel	5	Mayo	2023-01-05T00:00:00	2024-11-08T22:00:00	4	Temperatura máxima	20.1
34407	7	Sololá	710	Panajachel	8	Panajachel	5	Mayo	2023-01-05T00:00:00	2024-11-08T22:00:00	3	Temperatura mínima	19.7
34408	7	Sololá	710	Panajachel	8	Panajachel	5	Mayo	2023-01-05T00:00:00	2024-11-08T22:00:00	5	Humedad	92
34409	7	Sololá	710	Panajachel	8	Panajachel	5	Mayo	2023-01-05T00:00:00	2024-11-08T22:00:00	6	Velocidad del viento	0
34410	7	Sololá	710	Panajachel	8	Panajachel	5	Mayo	2023-01-05T00:00:00	2024-11-08T22:00:00	7	Dirección del viento	0
34411	7	Sololá	710	Panajachel	8	Panajachel	5	Mayo	2023-01-05T00:00:00	2024-11-08T22:00:00	1	Precipitación	0
34412	7	Sololá	710	Panajachel	8	Panajachel	5	Mayo	2023-01-05T00:00:00	2024-11-08T22:00:00	8	Radiación solar	0
34413	7	Sololá	710	Panajachel	8	Panajachel	5	Mayo	2023-01-05T00:00:00	2024-11-08T23:00:00	2	Temperatura media	19.1
34414	7	Sololá	710	Panajachel	8	Panajachel	5	Mayo	2023-01-05T00:00:00	2024-11-08T23:00:00	4	Temperatura máxima	19.7
34415	7	Sololá	710	Panajachel	8	Panajachel	5	Mayo	2023-01-05T00:00:00	2024-11-08T23:00:00	3	Temperatura mínima	19.1
34416	7	Sololá	710	Panajachel	8	Panajachel	5	Mayo	2023-01-05T00:00:00	2024-11-08T23:00:00	5	Humedad	91
34417	7	Sololá	710	Panajachel	8	Panajachel	5	Mayo	2023-01-05T00:00:00	2024-11-08T23:00:00	6	Velocidad del viento	0
34418	7	Sololá	710	Panajachel	8	Panajachel	5	Mayo	2023-01-05T00:00:00	2024-11-08T23:00:00	7	Dirección del viento	0
34419	7	Sololá	710	Panajachel	8	Panajachel	5	Mayo	2023-01-05T00:00:00	2024-11-08T23:00:00	1	Precipitación	0
34420	7	Sololá	710	Panajachel	8	Panajachel	5	Mayo	2023-01-05T00:00:00	2024-11-08T23:00:00	8	Radiación solar	0
34421	7	Sololá	710	Panajachel	8	Panajachel	5	Mayo	2023-02-05T00:00:00	2024-11-08T00:00:00	2	Temperatura media	18.7
34422	7	Sololá	710	Panajachel	8	Panajachel	5	Mayo	2023-02-05T00:00:00	2024-11-08T00:00:00	4	Temperatura máxima	19.1
34423	7	Sololá	710	Panajachel	8	Panajachel	5	Mayo	2023-02-05T00:00:00	2024-11-08T00:00:00	3	Temperatura mínima	18.7
34424	7	Sololá	710	Panajachel	8	Panajachel	5	Mayo	2023-02-05T00:00:00	2024-11-08T00:00:00	5	Humedad	83
34425	7	Sololá	710	Panajachel	8	Panajachel	5	Mayo	2023-02-05T00:00:00	2024-11-08T00:00:00	6	Velocidad del viento	0
34426	7	Sololá	710	Panajachel	8	Panajachel	5	Mayo	2023-02-05T00:00:00	2024-11-08T00:00:00	7	Dirección del viento	0
34427	7	Sololá	710	Panajachel	8	Panajachel	5	Mayo	2023-02-05T00:00:00	2024-11-08T00:00:00	1	Precipitación	0
34428	7	Sololá	710	Panajachel	8	Panajachel	5	Mayo	2023-02-05T00:00:00	2024-11-08T00:00:00	8	Radiación solar	0
34429	7	Sololá	710	Panajachel	8	Panajachel	5	Mayo	2023-02-05T00:00:00	2024-11-08T01:00:00	2	Temperatura media	18.4
34430	7	Sololá	710	Panajachel	8	Panajachel	5	Mayo	2023-02-05T00:00:00	2024-11-08T01:00:00	4	Temperatura máxima	18.7
34431	7	Sololá	710	Panajachel	8	Panajachel	5	Mayo	2023-02-05T00:00:00	2024-11-08T01:00:00	3	Temperatura mínima	18.2
34432	7	Sololá	710	Panajachel	8	Panajachel	5	Mayo	2023-02-05T00:00:00	2024-11-08T01:00:00	5	Humedad	82
34433	7	Sololá	710	Panajachel	8	Panajachel	5	Mayo	2023-02-05T00:00:00	2024-11-08T01:00:00	6	Velocidad del viento	0
34434	7	Sololá	710	Panajachel	8	Panajachel	5	Mayo	2023-02-05T00:00:00	2024-11-08T01:00:00	7	Dirección del viento	0
34435	7	Sololá	710	Panajachel	8	Panajachel	5	Mayo	2023-02-05T00:00:00	2024-11-08T01:00:00	1	Precipitación	0
34436	7	Sololá	710	Panajachel	8	Panajachel	5	Mayo	2023-02-05T00:00:00	2024-11-08T01:00:00	8	Radiación solar	0
34437	7	Sololá	710	Panajachel	8	Panajachel	5	Mayo	2023-02-05T00:00:00	2024-11-08T02:00:00	2	Temperatura media	18.3
34438	7	Sololá	710	Panajachel	8	Panajachel	5	Mayo	2023-02-05T00:00:00	2024-11-08T02:00:00	4	Temperatura máxima	18.6
34439	7	Sololá	710	Panajachel	8	Panajachel	5	Mayo	2023-02-05T00:00:00	2024-11-08T02:00:00	3	Temperatura mínima	18.3
34440	7	Sololá	710	Panajachel	8	Panajachel	5	Mayo	2023-02-05T00:00:00	2024-11-08T02:00:00	5	Humedad	82
34441	7	Sololá	710	Panajachel	8	Panajachel	5	Mayo	2023-02-05T00:00:00	2024-11-08T02:00:00	6	Velocidad del viento	0
34442	7	Sololá	710	Panajachel	8	Panajachel	5	Mayo	2023-02-05T00:00:00	2024-11-08T02:00:00	7	Dirección del viento	0
34443	7	Sololá	710	Panajachel	8	Panajachel	5	Mayo	2023-02-05T00:00:00	2024-11-08T02:00:00	1	Precipitación	0
34444	7	Sololá	710	Panajachel	8	Panajachel	5	Mayo	2023-02-05T00:00:00	2024-11-08T02:00:00	8	Radiación solar	0
34445	7	Sololá	710	Panajachel	8	Panajachel	5	Mayo	2023-02-05T00:00:00	2024-11-08T03:00:00	2	Temperatura media	18.3
34446	7	Sololá	710	Panajachel	8	Panajachel	5	Mayo	2023-02-05T00:00:00	2024-11-08T03:00:00	4	Temperatura máxima	18.4
34447	7	Sololá	710	Panajachel	8	Panajachel	5	Mayo	2023-02-05T00:00:00	2024-11-08T03:00:00	3	Temperatura mínima	18
34448	7	Sololá	710	Panajachel	8	Panajachel	5	Mayo	2023-02-05T00:00:00	2024-11-08T03:00:00	5	Humedad	83
34449	7	Sololá	710	Panajachel	8	Panajachel	5	Mayo	2023-02-05T00:00:00	2024-11-08T03:00:00	6	Velocidad del viento	0
34450	7	Sololá	710	Panajachel	8	Panajachel	5	Mayo	2023-02-05T00:00:00	2024-11-08T03:00:00	7	Dirección del viento	0
34451	7	Sololá	710	Panajachel	8	Panajachel	5	Mayo	2023-02-05T00:00:00	2024-11-08T03:00:00	1	Precipitación	0
34452	7	Sololá	710	Panajachel	8	Panajachel	5	Mayo	2023-02-05T00:00:00	2024-11-08T03:00:00	8	Radiación solar	0
34453	7	Sololá	710	Panajachel	8	Panajachel	5	Mayo	2023-02-05T00:00:00	2024-11-08T04:00:00	2	Temperatura media	18.3
34454	7	Sololá	710	Panajachel	8	Panajachel	5	Mayo	2023-02-05T00:00:00	2024-11-08T04:00:00	4	Temperatura máxima	18.6
34455	7	Sololá	710	Panajachel	8	Panajachel	5	Mayo	2023-02-05T00:00:00	2024-11-08T04:00:00	3	Temperatura mínima	18.3
34456	7	Sololá	710	Panajachel	8	Panajachel	5	Mayo	2023-02-05T00:00:00	2024-11-08T04:00:00	5	Humedad	83
34457	7	Sololá	710	Panajachel	8	Panajachel	5	Mayo	2023-02-05T00:00:00	2024-11-08T04:00:00	6	Velocidad del viento	0
34458	7	Sololá	710	Panajachel	8	Panajachel	5	Mayo	2023-02-05T00:00:00	2024-11-08T04:00:00	7	Dirección del viento	0
34459	7	Sololá	710	Panajachel	8	Panajachel	5	Mayo	2023-02-05T00:00:00	2024-11-08T04:00:00	1	Precipitación	0
34460	7	Sololá	710	Panajachel	8	Panajachel	5	Mayo	2023-02-05T00:00:00	2024-11-08T04:00:00	8	Radiación solar	0
34461	7	Sololá	710	Panajachel	8	Panajachel	5	Mayo	2023-02-05T00:00:00	2024-11-08T05:00:00	2	Temperatura media	18
34462	7	Sololá	710	Panajachel	8	Panajachel	5	Mayo	2023-02-05T00:00:00	2024-11-08T05:00:00	4	Temperatura máxima	18.3
34463	7	Sololá	710	Panajachel	8	Panajachel	5	Mayo	2023-02-05T00:00:00	2024-11-08T05:00:00	3	Temperatura mínima	18
34464	7	Sololá	710	Panajachel	8	Panajachel	5	Mayo	2023-02-05T00:00:00	2024-11-08T05:00:00	5	Humedad	83
34465	7	Sololá	710	Panajachel	8	Panajachel	5	Mayo	2023-02-05T00:00:00	2024-11-08T05:00:00	6	Velocidad del viento	0
34466	7	Sololá	710	Panajachel	8	Panajachel	5	Mayo	2023-02-05T00:00:00	2024-11-08T05:00:00	7	Dirección del viento	0
34467	7	Sololá	710	Panajachel	8	Panajachel	5	Mayo	2023-02-05T00:00:00	2024-11-08T05:00:00	1	Precipitación	0
34468	7	Sololá	710	Panajachel	8	Panajachel	5	Mayo	2023-02-05T00:00:00	2024-11-08T05:00:00	8	Radiación solar	0
34469	7	Sololá	710	Panajachel	8	Panajachel	5	Mayo	2023-02-05T00:00:00	2024-11-08T06:00:00	2	Temperatura media	17.4
34470	7	Sololá	710	Panajachel	8	Panajachel	5	Mayo	2023-02-05T00:00:00	2024-11-08T06:00:00	4	Temperatura máxima	18.1
34471	7	Sololá	710	Panajachel	8	Panajachel	5	Mayo	2023-02-05T00:00:00	2024-11-08T06:00:00	3	Temperatura mínima	17.3
34472	7	Sololá	710	Panajachel	8	Panajachel	5	Mayo	2023-02-05T00:00:00	2024-11-08T06:00:00	5	Humedad	86
34473	7	Sololá	710	Panajachel	8	Panajachel	5	Mayo	2023-02-05T00:00:00	2024-11-08T06:00:00	6	Velocidad del viento	0
34474	7	Sololá	710	Panajachel	8	Panajachel	5	Mayo	2023-02-05T00:00:00	2024-11-08T06:00:00	7	Dirección del viento	0
34475	7	Sololá	710	Panajachel	8	Panajachel	5	Mayo	2023-02-05T00:00:00	2024-11-08T06:00:00	1	Precipitación	0
34476	7	Sololá	710	Panajachel	8	Panajachel	5	Mayo	2023-02-05T00:00:00	2024-11-08T06:00:00	8	Radiación solar	2
34477	7	Sololá	710	Panajachel	8	Panajachel	5	Mayo	2023-02-05T00:00:00	2024-11-08T07:00:00	2	Temperatura media	18.9
34478	7	Sololá	710	Panajachel	8	Panajachel	5	Mayo	2023-02-05T00:00:00	2024-11-08T07:00:00	4	Temperatura máxima	18.9
34479	7	Sololá	710	Panajachel	8	Panajachel	5	Mayo	2023-02-05T00:00:00	2024-11-08T07:00:00	3	Temperatura mínima	17.2
34480	7	Sololá	710	Panajachel	8	Panajachel	5	Mayo	2023-02-05T00:00:00	2024-11-08T07:00:00	5	Humedad	84
34481	7	Sololá	710	Panajachel	8	Panajachel	5	Mayo	2023-02-05T00:00:00	2024-11-08T07:00:00	6	Velocidad del viento	0
34482	7	Sololá	710	Panajachel	8	Panajachel	5	Mayo	2023-02-05T00:00:00	2024-11-08T07:00:00	7	Dirección del viento	0
34483	7	Sololá	710	Panajachel	8	Panajachel	5	Mayo	2023-02-05T00:00:00	2024-11-08T07:00:00	1	Precipitación	0
34484	7	Sololá	710	Panajachel	8	Panajachel	5	Mayo	2023-02-05T00:00:00	2024-11-08T07:00:00	8	Radiación solar	92
34485	7	Sololá	710	Panajachel	8	Panajachel	5	Mayo	2023-02-05T00:00:00	2024-11-08T08:00:00	2	Temperatura media	20.5
34486	7	Sololá	710	Panajachel	8	Panajachel	5	Mayo	2023-02-05T00:00:00	2024-11-08T08:00:00	4	Temperatura máxima	20.6
34487	7	Sololá	710	Panajachel	8	Panajachel	5	Mayo	2023-02-05T00:00:00	2024-11-08T08:00:00	3	Temperatura mínima	18.9
34488	7	Sololá	710	Panajachel	8	Panajachel	5	Mayo	2023-02-05T00:00:00	2024-11-08T08:00:00	5	Humedad	79
34489	7	Sololá	710	Panajachel	8	Panajachel	5	Mayo	2023-02-05T00:00:00	2024-11-08T08:00:00	6	Velocidad del viento	0
34490	7	Sololá	710	Panajachel	8	Panajachel	5	Mayo	2023-02-05T00:00:00	2024-11-08T08:00:00	7	Dirección del viento	0
34491	7	Sololá	710	Panajachel	8	Panajachel	5	Mayo	2023-02-05T00:00:00	2024-11-08T08:00:00	1	Precipitación	0
34492	7	Sololá	710	Panajachel	8	Panajachel	5	Mayo	2023-02-05T00:00:00	2024-11-08T08:00:00	8	Radiación solar	280
34493	7	Sololá	710	Panajachel	8	Panajachel	5	Mayo	2023-02-05T00:00:00	2024-11-08T09:00:00	2	Temperatura media	21.8
34494	7	Sololá	710	Panajachel	8	Panajachel	5	Mayo	2023-02-05T00:00:00	2024-11-08T09:00:00	4	Temperatura máxima	21.8
34495	7	Sololá	710	Panajachel	8	Panajachel	5	Mayo	2023-02-05T00:00:00	2024-11-08T09:00:00	3	Temperatura mínima	20.5
34496	7	Sololá	710	Panajachel	8	Panajachel	5	Mayo	2023-02-05T00:00:00	2024-11-08T09:00:00	5	Humedad	77
34497	7	Sololá	710	Panajachel	8	Panajachel	5	Mayo	2023-02-05T00:00:00	2024-11-08T09:00:00	6	Velocidad del viento	0
34498	7	Sololá	710	Panajachel	8	Panajachel	5	Mayo	2023-02-05T00:00:00	2024-11-08T09:00:00	7	Dirección del viento	0
34499	7	Sololá	710	Panajachel	8	Panajachel	5	Mayo	2023-02-05T00:00:00	2024-11-08T09:00:00	1	Precipitación	0
34500	7	Sololá	710	Panajachel	8	Panajachel	5	Mayo	2023-02-05T00:00:00	2024-11-08T09:00:00	8	Radiación solar	489
34501	7	Sololá	710	Panajachel	8	Panajachel	5	Mayo	2023-02-05T00:00:00	2024-11-08T10:00:00	2	Temperatura media	21.8
34502	7	Sololá	710	Panajachel	8	Panajachel	5	Mayo	2023-02-05T00:00:00	2024-11-08T10:00:00	4	Temperatura máxima	22.7
34503	7	Sololá	710	Panajachel	8	Panajachel	5	Mayo	2023-02-05T00:00:00	2024-11-08T10:00:00	3	Temperatura mínima	21.8
34504	7	Sololá	710	Panajachel	8	Panajachel	5	Mayo	2023-02-05T00:00:00	2024-11-08T10:00:00	5	Humedad	77
34505	7	Sololá	710	Panajachel	8	Panajachel	5	Mayo	2023-02-05T00:00:00	2024-11-08T10:00:00	6	Velocidad del viento	0
34506	7	Sololá	710	Panajachel	8	Panajachel	5	Mayo	2023-02-05T00:00:00	2024-11-08T10:00:00	7	Dirección del viento	0
34507	7	Sololá	710	Panajachel	8	Panajachel	5	Mayo	2023-02-05T00:00:00	2024-11-08T10:00:00	1	Precipitación	0
34508	7	Sololá	710	Panajachel	8	Panajachel	5	Mayo	2023-02-05T00:00:00	2024-11-08T10:00:00	8	Radiación solar	669
34509	7	Sololá	710	Panajachel	8	Panajachel	5	Mayo	2023-02-05T00:00:00	2024-11-08T11:00:00	2	Temperatura media	23.3
34510	7	Sololá	710	Panajachel	8	Panajachel	5	Mayo	2023-02-05T00:00:00	2024-11-08T11:00:00	4	Temperatura máxima	23.7
34511	7	Sololá	710	Panajachel	8	Panajachel	5	Mayo	2023-02-05T00:00:00	2024-11-08T11:00:00	3	Temperatura mínima	21.6
34512	7	Sololá	710	Panajachel	8	Panajachel	5	Mayo	2023-02-05T00:00:00	2024-11-08T11:00:00	5	Humedad	76
34513	7	Sololá	710	Panajachel	8	Panajachel	5	Mayo	2023-02-05T00:00:00	2024-11-08T11:00:00	6	Velocidad del viento	0
34514	7	Sololá	710	Panajachel	8	Panajachel	5	Mayo	2023-02-05T00:00:00	2024-11-08T11:00:00	7	Dirección del viento	0
34515	7	Sololá	710	Panajachel	8	Panajachel	5	Mayo	2023-02-05T00:00:00	2024-11-08T11:00:00	1	Precipitación	0
34516	7	Sololá	710	Panajachel	8	Panajachel	5	Mayo	2023-02-05T00:00:00	2024-11-08T11:00:00	8	Radiación solar	722
34517	7	Sololá	710	Panajachel	8	Panajachel	5	Mayo	2023-02-05T00:00:00	2024-11-08T12:00:00	2	Temperatura media	23.4
34518	7	Sololá	710	Panajachel	8	Panajachel	5	Mayo	2023-02-05T00:00:00	2024-11-08T12:00:00	4	Temperatura máxima	23.7
34519	7	Sololá	710	Panajachel	8	Panajachel	5	Mayo	2023-02-05T00:00:00	2024-11-08T12:00:00	3	Temperatura mínima	22.9
34520	7	Sololá	710	Panajachel	8	Panajachel	5	Mayo	2023-02-05T00:00:00	2024-11-08T12:00:00	5	Humedad	78
34521	7	Sololá	710	Panajachel	8	Panajachel	5	Mayo	2023-02-05T00:00:00	2024-11-08T12:00:00	6	Velocidad del viento	3.2
34522	7	Sololá	710	Panajachel	8	Panajachel	5	Mayo	2023-02-05T00:00:00	2024-11-08T12:00:00	7	Dirección del viento	3.22
34523	7	Sololá	710	Panajachel	8	Panajachel	5	Mayo	2023-02-05T00:00:00	2024-11-08T12:00:00	1	Precipitación	0
34524	7	Sololá	710	Panajachel	8	Panajachel	5	Mayo	2023-02-05T00:00:00	2024-11-08T12:00:00	8	Radiación solar	539
34525	7	Sololá	710	Panajachel	8	Panajachel	5	Mayo	2023-02-05T00:00:00	2024-11-08T13:00:00	2	Temperatura media	24.7
34526	7	Sololá	710	Panajachel	8	Panajachel	5	Mayo	2023-02-05T00:00:00	2024-11-08T13:00:00	4	Temperatura máxima	24.9
34527	7	Sololá	710	Panajachel	8	Panajachel	5	Mayo	2023-02-05T00:00:00	2024-11-08T13:00:00	3	Temperatura mínima	23.4
34528	7	Sololá	710	Panajachel	8	Panajachel	5	Mayo	2023-02-05T00:00:00	2024-11-08T13:00:00	5	Humedad	73
34529	7	Sololá	710	Panajachel	8	Panajachel	5	Mayo	2023-02-05T00:00:00	2024-11-08T13:00:00	6	Velocidad del viento	0
34530	7	Sololá	710	Panajachel	8	Panajachel	5	Mayo	2023-02-05T00:00:00	2024-11-08T13:00:00	7	Dirección del viento	0
34531	7	Sololá	710	Panajachel	8	Panajachel	5	Mayo	2023-02-05T00:00:00	2024-11-08T13:00:00	1	Precipitación	0
34532	7	Sololá	710	Panajachel	8	Panajachel	5	Mayo	2023-02-05T00:00:00	2024-11-08T13:00:00	8	Radiación solar	791
34533	7	Sololá	710	Panajachel	8	Panajachel	5	Mayo	2023-02-05T00:00:00	2024-11-08T14:00:00	2	Temperatura media	23.4
34534	7	Sololá	710	Panajachel	8	Panajachel	5	Mayo	2023-02-05T00:00:00	2024-11-08T14:00:00	4	Temperatura máxima	25.3
34535	7	Sololá	710	Panajachel	8	Panajachel	5	Mayo	2023-02-05T00:00:00	2024-11-08T14:00:00	3	Temperatura mínima	23.4
34536	7	Sololá	710	Panajachel	8	Panajachel	5	Mayo	2023-02-05T00:00:00	2024-11-08T14:00:00	5	Humedad	80
34537	7	Sololá	710	Panajachel	8	Panajachel	5	Mayo	2023-02-05T00:00:00	2024-11-08T14:00:00	6	Velocidad del viento	3.2
34538	7	Sololá	710	Panajachel	8	Panajachel	5	Mayo	2023-02-05T00:00:00	2024-11-08T14:00:00	7	Dirección del viento	3.22
34539	7	Sololá	710	Panajachel	8	Panajachel	5	Mayo	2023-02-05T00:00:00	2024-11-08T14:00:00	1	Precipitación	0
34540	7	Sololá	710	Panajachel	8	Panajachel	5	Mayo	2023-02-05T00:00:00	2024-11-08T14:00:00	8	Radiación solar	735
34541	7	Sololá	710	Panajachel	8	Panajachel	5	Mayo	2023-02-05T00:00:00	2024-11-08T15:00:00	2	Temperatura media	22.2
34542	7	Sololá	710	Panajachel	8	Panajachel	5	Mayo	2023-02-05T00:00:00	2024-11-08T15:00:00	4	Temperatura máxima	23.5
34543	7	Sololá	710	Panajachel	8	Panajachel	5	Mayo	2023-02-05T00:00:00	2024-11-08T15:00:00	3	Temperatura mínima	22
34544	7	Sololá	710	Panajachel	8	Panajachel	5	Mayo	2023-02-05T00:00:00	2024-11-08T15:00:00	5	Humedad	84
34545	7	Sololá	710	Panajachel	8	Panajachel	5	Mayo	2023-02-05T00:00:00	2024-11-08T15:00:00	6	Velocidad del viento	3.2
34546	7	Sololá	710	Panajachel	8	Panajachel	5	Mayo	2023-02-05T00:00:00	2024-11-08T15:00:00	7	Dirección del viento	3.22
34547	7	Sololá	710	Panajachel	8	Panajachel	5	Mayo	2023-02-05T00:00:00	2024-11-08T15:00:00	1	Precipitación	0
34548	7	Sololá	710	Panajachel	8	Panajachel	5	Mayo	2023-02-05T00:00:00	2024-11-08T15:00:00	8	Radiación solar	179
34549	7	Sololá	710	Panajachel	8	Panajachel	5	Mayo	2023-02-05T00:00:00	2024-11-08T16:00:00	2	Temperatura media	20.7
34550	7	Sololá	710	Panajachel	8	Panajachel	5	Mayo	2023-02-05T00:00:00	2024-11-08T16:00:00	4	Temperatura máxima	22.2
34551	7	Sololá	710	Panajachel	8	Panajachel	5	Mayo	2023-02-05T00:00:00	2024-11-08T16:00:00	3	Temperatura mínima	20.7
34552	7	Sololá	710	Panajachel	8	Panajachel	5	Mayo	2023-02-05T00:00:00	2024-11-08T16:00:00	5	Humedad	90
34553	7	Sololá	710	Panajachel	8	Panajachel	5	Mayo	2023-02-05T00:00:00	2024-11-08T16:00:00	6	Velocidad del viento	0
34554	7	Sololá	710	Panajachel	8	Panajachel	5	Mayo	2023-02-05T00:00:00	2024-11-08T16:00:00	7	Dirección del viento	0
34555	7	Sololá	710	Panajachel	8	Panajachel	5	Mayo	2023-02-05T00:00:00	2024-11-08T16:00:00	1	Precipitación	1.8
34556	7	Sololá	710	Panajachel	8	Panajachel	5	Mayo	2023-02-05T00:00:00	2024-11-08T16:00:00	8	Radiación solar	41
34557	7	Sololá	710	Panajachel	8	Panajachel	5	Mayo	2023-02-05T00:00:00	2024-11-08T17:00:00	2	Temperatura media	18.4
34558	7	Sololá	710	Panajachel	8	Panajachel	5	Mayo	2023-02-05T00:00:00	2024-11-08T17:00:00	4	Temperatura máxima	20.8
34559	7	Sololá	710	Panajachel	8	Panajachel	5	Mayo	2023-02-05T00:00:00	2024-11-08T17:00:00	3	Temperatura mínima	18.4
34560	7	Sololá	710	Panajachel	8	Panajachel	5	Mayo	2023-02-05T00:00:00	2024-11-08T17:00:00	5	Humedad	95
34561	7	Sololá	710	Panajachel	8	Panajachel	5	Mayo	2023-02-05T00:00:00	2024-11-08T17:00:00	6	Velocidad del viento	1.6
34562	7	Sololá	710	Panajachel	8	Panajachel	5	Mayo	2023-02-05T00:00:00	2024-11-08T17:00:00	7	Dirección del viento	1.61
34563	7	Sololá	710	Panajachel	8	Panajachel	5	Mayo	2023-02-05T00:00:00	2024-11-08T17:00:00	1	Precipitación	4
34564	7	Sololá	710	Panajachel	8	Panajachel	5	Mayo	2023-02-05T00:00:00	2024-11-08T17:00:00	8	Radiación solar	0
34565	7	Sololá	710	Panajachel	8	Panajachel	5	Mayo	2023-02-05T00:00:00	2024-11-08T18:00:00	2	Temperatura media	17.9
34566	7	Sololá	710	Panajachel	8	Panajachel	5	Mayo	2023-02-05T00:00:00	2024-11-08T18:00:00	4	Temperatura máxima	18.4
34567	7	Sololá	710	Panajachel	8	Panajachel	5	Mayo	2023-02-05T00:00:00	2024-11-08T18:00:00	3	Temperatura mínima	17.9
34568	7	Sololá	710	Panajachel	8	Panajachel	5	Mayo	2023-02-05T00:00:00	2024-11-08T18:00:00	5	Humedad	95
34569	7	Sololá	710	Panajachel	8	Panajachel	5	Mayo	2023-02-05T00:00:00	2024-11-08T18:00:00	6	Velocidad del viento	0
34570	7	Sololá	710	Panajachel	8	Panajachel	5	Mayo	2023-02-05T00:00:00	2024-11-08T18:00:00	7	Dirección del viento	0
34571	7	Sololá	710	Panajachel	8	Panajachel	5	Mayo	2023-02-05T00:00:00	2024-11-08T18:00:00	1	Precipitación	2.2
34572	7	Sololá	710	Panajachel	8	Panajachel	5	Mayo	2023-02-05T00:00:00	2024-11-08T18:00:00	8	Radiación solar	0
34573	7	Sololá	710	Panajachel	8	Panajachel	5	Mayo	2023-02-05T00:00:00	2024-11-08T19:00:00	2	Temperatura media	17.7
34574	7	Sololá	710	Panajachel	8	Panajachel	5	Mayo	2023-02-05T00:00:00	2024-11-08T19:00:00	4	Temperatura máxima	18.1
34575	7	Sololá	710	Panajachel	8	Panajachel	5	Mayo	2023-02-05T00:00:00	2024-11-08T19:00:00	3	Temperatura mínima	17.7
34576	7	Sololá	710	Panajachel	8	Panajachel	5	Mayo	2023-02-05T00:00:00	2024-11-08T19:00:00	5	Humedad	96
34577	7	Sololá	710	Panajachel	8	Panajachel	5	Mayo	2023-02-05T00:00:00	2024-11-08T19:00:00	6	Velocidad del viento	0
34578	7	Sololá	710	Panajachel	8	Panajachel	5	Mayo	2023-02-05T00:00:00	2024-11-08T19:00:00	7	Dirección del viento	0
34579	7	Sololá	710	Panajachel	8	Panajachel	5	Mayo	2023-02-05T00:00:00	2024-11-08T19:00:00	1	Precipitación	2.2
34580	7	Sololá	710	Panajachel	8	Panajachel	5	Mayo	2023-02-05T00:00:00	2024-11-08T19:00:00	8	Radiación solar	0
34581	7	Sololá	710	Panajachel	8	Panajachel	5	Mayo	2023-02-05T00:00:00	2024-11-08T20:00:00	2	Temperatura media	17.1
34582	7	Sololá	710	Panajachel	8	Panajachel	5	Mayo	2023-02-05T00:00:00	2024-11-08T20:00:00	4	Temperatura máxima	17.8
34583	7	Sololá	710	Panajachel	8	Panajachel	5	Mayo	2023-02-05T00:00:00	2024-11-08T20:00:00	3	Temperatura mínima	16.9
34584	7	Sololá	710	Panajachel	8	Panajachel	5	Mayo	2023-02-05T00:00:00	2024-11-08T20:00:00	5	Humedad	93
34585	7	Sololá	710	Panajachel	8	Panajachel	5	Mayo	2023-02-05T00:00:00	2024-11-08T20:00:00	6	Velocidad del viento	0
34586	7	Sololá	710	Panajachel	8	Panajachel	5	Mayo	2023-02-05T00:00:00	2024-11-08T20:00:00	7	Dirección del viento	0
34587	7	Sololá	710	Panajachel	8	Panajachel	5	Mayo	2023-02-05T00:00:00	2024-11-08T20:00:00	1	Precipitación	0
34588	7	Sololá	710	Panajachel	8	Panajachel	5	Mayo	2023-02-05T00:00:00	2024-11-08T20:00:00	8	Radiación solar	0
34589	7	Sololá	710	Panajachel	8	Panajachel	5	Mayo	2023-02-05T00:00:00	2024-11-08T21:00:00	2	Temperatura media	16.5
34590	7	Sololá	710	Panajachel	8	Panajachel	5	Mayo	2023-02-05T00:00:00	2024-11-08T21:00:00	4	Temperatura máxima	17.2
34591	7	Sololá	710	Panajachel	8	Panajachel	5	Mayo	2023-02-05T00:00:00	2024-11-08T21:00:00	3	Temperatura mínima	16.5
34592	7	Sololá	710	Panajachel	8	Panajachel	5	Mayo	2023-02-05T00:00:00	2024-11-08T21:00:00	5	Humedad	92
34593	7	Sololá	710	Panajachel	8	Panajachel	5	Mayo	2023-02-05T00:00:00	2024-11-08T21:00:00	6	Velocidad del viento	0
34594	7	Sololá	710	Panajachel	8	Panajachel	5	Mayo	2023-02-05T00:00:00	2024-11-08T21:00:00	7	Dirección del viento	0
34595	7	Sololá	710	Panajachel	8	Panajachel	5	Mayo	2023-02-05T00:00:00	2024-11-08T21:00:00	1	Precipitación	0
34596	7	Sololá	710	Panajachel	8	Panajachel	5	Mayo	2023-02-05T00:00:00	2024-11-08T21:00:00	8	Radiación solar	0
34597	7	Sololá	710	Panajachel	8	Panajachel	5	Mayo	2023-02-05T00:00:00	2024-11-08T22:00:00	2	Temperatura media	16.4
34598	7	Sololá	710	Panajachel	8	Panajachel	5	Mayo	2023-02-05T00:00:00	2024-11-08T22:00:00	4	Temperatura máxima	16.6
34599	7	Sololá	710	Panajachel	8	Panajachel	5	Mayo	2023-02-05T00:00:00	2024-11-08T22:00:00	3	Temperatura mínima	16.3
34600	7	Sololá	710	Panajachel	8	Panajachel	5	Mayo	2023-02-05T00:00:00	2024-11-08T22:00:00	5	Humedad	89
34601	7	Sololá	710	Panajachel	8	Panajachel	5	Mayo	2023-02-05T00:00:00	2024-11-08T22:00:00	6	Velocidad del viento	0
34602	7	Sololá	710	Panajachel	8	Panajachel	5	Mayo	2023-02-05T00:00:00	2024-11-08T22:00:00	7	Dirección del viento	0
34603	7	Sololá	710	Panajachel	8	Panajachel	5	Mayo	2023-02-05T00:00:00	2024-11-08T22:00:00	1	Precipitación	0
34604	7	Sololá	710	Panajachel	8	Panajachel	5	Mayo	2023-02-05T00:00:00	2024-11-08T22:00:00	8	Radiación solar	0
34605	7	Sololá	710	Panajachel	8	Panajachel	5	Mayo	2023-02-05T00:00:00	2024-11-08T23:00:00	2	Temperatura media	16.6
34606	7	Sololá	710	Panajachel	8	Panajachel	5	Mayo	2023-02-05T00:00:00	2024-11-08T23:00:00	4	Temperatura máxima	16.7
34607	7	Sololá	710	Panajachel	8	Panajachel	5	Mayo	2023-02-05T00:00:00	2024-11-08T23:00:00	3	Temperatura mínima	16.3
34608	7	Sololá	710	Panajachel	8	Panajachel	5	Mayo	2023-02-05T00:00:00	2024-11-08T23:00:00	5	Humedad	85
34609	7	Sololá	710	Panajachel	8	Panajachel	5	Mayo	2023-02-05T00:00:00	2024-11-08T23:00:00	6	Velocidad del viento	0
34610	7	Sololá	710	Panajachel	8	Panajachel	5	Mayo	2023-02-05T00:00:00	2024-11-08T23:00:00	7	Dirección del viento	0
34611	7	Sololá	710	Panajachel	8	Panajachel	5	Mayo	2023-02-05T00:00:00	2024-11-08T23:00:00	1	Precipitación	0
34612	7	Sololá	710	Panajachel	8	Panajachel	5	Mayo	2023-02-05T00:00:00	2024-11-08T23:00:00	8	Radiación solar	0
34613	7	Sololá	710	Panajachel	8	Panajachel	5	Mayo	2023-03-05T00:00:00	2024-11-08T00:00:00	2	Temperatura media	16.3
34614	7	Sololá	710	Panajachel	8	Panajachel	5	Mayo	2023-03-05T00:00:00	2024-11-08T00:00:00	4	Temperatura máxima	16.6
34615	7	Sololá	710	Panajachel	8	Panajachel	5	Mayo	2023-03-05T00:00:00	2024-11-08T00:00:00	3	Temperatura mínima	16.3
34616	7	Sololá	710	Panajachel	8	Panajachel	5	Mayo	2023-03-05T00:00:00	2024-11-08T00:00:00	5	Humedad	88
34617	7	Sololá	710	Panajachel	8	Panajachel	5	Mayo	2023-03-05T00:00:00	2024-11-08T00:00:00	6	Velocidad del viento	0
34618	7	Sololá	710	Panajachel	8	Panajachel	5	Mayo	2023-03-05T00:00:00	2024-11-08T00:00:00	7	Dirección del viento	0
34619	7	Sololá	710	Panajachel	8	Panajachel	5	Mayo	2023-03-05T00:00:00	2024-11-08T00:00:00	1	Precipitación	0
34620	7	Sololá	710	Panajachel	8	Panajachel	5	Mayo	2023-03-05T00:00:00	2024-11-08T00:00:00	8	Radiación solar	0
34621	7	Sololá	710	Panajachel	8	Panajachel	5	Mayo	2023-03-05T00:00:00	2024-11-08T01:00:00	2	Temperatura media	16.3
34622	7	Sololá	710	Panajachel	8	Panajachel	5	Mayo	2023-03-05T00:00:00	2024-11-08T01:00:00	4	Temperatura máxima	16.4
34623	7	Sololá	710	Panajachel	8	Panajachel	5	Mayo	2023-03-05T00:00:00	2024-11-08T01:00:00	3	Temperatura mínima	16.1
34624	7	Sololá	710	Panajachel	8	Panajachel	5	Mayo	2023-03-05T00:00:00	2024-11-08T01:00:00	5	Humedad	88
34625	7	Sololá	710	Panajachel	8	Panajachel	5	Mayo	2023-03-05T00:00:00	2024-11-08T01:00:00	6	Velocidad del viento	0
34626	7	Sololá	710	Panajachel	8	Panajachel	5	Mayo	2023-03-05T00:00:00	2024-11-08T01:00:00	7	Dirección del viento	0
34627	7	Sololá	710	Panajachel	8	Panajachel	5	Mayo	2023-03-05T00:00:00	2024-11-08T01:00:00	1	Precipitación	0
34628	7	Sololá	710	Panajachel	8	Panajachel	5	Mayo	2023-03-05T00:00:00	2024-11-08T01:00:00	8	Radiación solar	0
34629	7	Sololá	710	Panajachel	8	Panajachel	5	Mayo	2023-03-05T00:00:00	2024-11-08T02:00:00	2	Temperatura media	16.6
34630	7	Sololá	710	Panajachel	8	Panajachel	5	Mayo	2023-03-05T00:00:00	2024-11-08T02:00:00	4	Temperatura máxima	16.8
34631	7	Sololá	710	Panajachel	8	Panajachel	5	Mayo	2023-03-05T00:00:00	2024-11-08T02:00:00	3	Temperatura mínima	16.3
34632	7	Sololá	710	Panajachel	8	Panajachel	5	Mayo	2023-03-05T00:00:00	2024-11-08T02:00:00	5	Humedad	89
34633	7	Sololá	710	Panajachel	8	Panajachel	5	Mayo	2023-03-05T00:00:00	2024-11-08T02:00:00	6	Velocidad del viento	0
34634	7	Sololá	710	Panajachel	8	Panajachel	5	Mayo	2023-03-05T00:00:00	2024-11-08T02:00:00	7	Dirección del viento	0
34635	7	Sololá	710	Panajachel	8	Panajachel	5	Mayo	2023-03-05T00:00:00	2024-11-08T02:00:00	1	Precipitación	0
34636	7	Sololá	710	Panajachel	8	Panajachel	5	Mayo	2023-03-05T00:00:00	2024-11-08T02:00:00	8	Radiación solar	0
34637	7	Sololá	710	Panajachel	8	Panajachel	5	Mayo	2023-03-05T00:00:00	2024-11-08T03:00:00	2	Temperatura media	16.8
34638	7	Sololá	710	Panajachel	8	Panajachel	5	Mayo	2023-03-05T00:00:00	2024-11-08T03:00:00	4	Temperatura máxima	17
34639	7	Sololá	710	Panajachel	8	Panajachel	5	Mayo	2023-03-05T00:00:00	2024-11-08T03:00:00	3	Temperatura mínima	16.6
34640	7	Sololá	710	Panajachel	8	Panajachel	5	Mayo	2023-03-05T00:00:00	2024-11-08T03:00:00	5	Humedad	86
34641	7	Sololá	710	Panajachel	8	Panajachel	5	Mayo	2023-03-05T00:00:00	2024-11-08T03:00:00	6	Velocidad del viento	0
34642	7	Sololá	710	Panajachel	8	Panajachel	5	Mayo	2023-03-05T00:00:00	2024-11-08T03:00:00	7	Dirección del viento	0
34643	7	Sololá	710	Panajachel	8	Panajachel	5	Mayo	2023-03-05T00:00:00	2024-11-08T03:00:00	1	Precipitación	0
34644	7	Sololá	710	Panajachel	8	Panajachel	5	Mayo	2023-03-05T00:00:00	2024-11-08T03:00:00	8	Radiación solar	0
34645	7	Sololá	710	Panajachel	8	Panajachel	5	Mayo	2023-03-05T00:00:00	2024-11-08T04:00:00	2	Temperatura media	17
34646	7	Sololá	710	Panajachel	8	Panajachel	5	Mayo	2023-03-05T00:00:00	2024-11-08T04:00:00	4	Temperatura máxima	17.3
34647	7	Sololá	710	Panajachel	8	Panajachel	5	Mayo	2023-03-05T00:00:00	2024-11-08T04:00:00	3	Temperatura mínima	16.8
34648	7	Sololá	710	Panajachel	8	Panajachel	5	Mayo	2023-03-05T00:00:00	2024-11-08T04:00:00	5	Humedad	83
34649	7	Sololá	710	Panajachel	8	Panajachel	5	Mayo	2023-03-05T00:00:00	2024-11-08T04:00:00	6	Velocidad del viento	0
34650	7	Sololá	710	Panajachel	8	Panajachel	5	Mayo	2023-03-05T00:00:00	2024-11-08T04:00:00	7	Dirección del viento	0
34651	7	Sololá	710	Panajachel	8	Panajachel	5	Mayo	2023-03-05T00:00:00	2024-11-08T04:00:00	1	Precipitación	0
34652	7	Sololá	710	Panajachel	8	Panajachel	5	Mayo	2023-03-05T00:00:00	2024-11-08T04:00:00	8	Radiación solar	0
34653	7	Sololá	710	Panajachel	8	Panajachel	5	Mayo	2023-03-05T00:00:00	2024-11-08T05:00:00	2	Temperatura media	16.5
34654	7	Sololá	710	Panajachel	8	Panajachel	5	Mayo	2023-03-05T00:00:00	2024-11-08T05:00:00	4	Temperatura máxima	17.1
34655	7	Sololá	710	Panajachel	8	Panajachel	5	Mayo	2023-03-05T00:00:00	2024-11-08T05:00:00	3	Temperatura mínima	16.1
34656	7	Sololá	710	Panajachel	8	Panajachel	5	Mayo	2023-03-05T00:00:00	2024-11-08T05:00:00	5	Humedad	84
34657	7	Sololá	710	Panajachel	8	Panajachel	5	Mayo	2023-03-05T00:00:00	2024-11-08T05:00:00	6	Velocidad del viento	0
34658	7	Sololá	710	Panajachel	8	Panajachel	5	Mayo	2023-03-05T00:00:00	2024-11-08T05:00:00	7	Dirección del viento	0
34659	7	Sololá	710	Panajachel	8	Panajachel	5	Mayo	2023-03-05T00:00:00	2024-11-08T05:00:00	1	Precipitación	0
34660	7	Sololá	710	Panajachel	8	Panajachel	5	Mayo	2023-03-05T00:00:00	2024-11-08T05:00:00	8	Radiación solar	0
34661	7	Sololá	710	Panajachel	8	Panajachel	5	Mayo	2023-03-05T00:00:00	2024-11-08T06:00:00	2	Temperatura media	16.4
34662	7	Sololá	710	Panajachel	8	Panajachel	5	Mayo	2023-03-05T00:00:00	2024-11-08T06:00:00	4	Temperatura máxima	16.9
34663	7	Sololá	710	Panajachel	8	Panajachel	5	Mayo	2023-03-05T00:00:00	2024-11-08T06:00:00	3	Temperatura mínima	16.3
34664	7	Sololá	710	Panajachel	8	Panajachel	5	Mayo	2023-03-05T00:00:00	2024-11-08T06:00:00	5	Humedad	82
34665	7	Sololá	710	Panajachel	8	Panajachel	5	Mayo	2023-03-05T00:00:00	2024-11-08T06:00:00	6	Velocidad del viento	0
34666	7	Sololá	710	Panajachel	8	Panajachel	5	Mayo	2023-03-05T00:00:00	2024-11-08T06:00:00	7	Dirección del viento	0
34667	7	Sololá	710	Panajachel	8	Panajachel	5	Mayo	2023-03-05T00:00:00	2024-11-08T06:00:00	1	Precipitación	0
34668	7	Sololá	710	Panajachel	8	Panajachel	5	Mayo	2023-03-05T00:00:00	2024-11-08T06:00:00	8	Radiación solar	1
34669	7	Sololá	710	Panajachel	8	Panajachel	5	Mayo	2023-03-05T00:00:00	2024-11-08T07:00:00	2	Temperatura media	17.4
34670	7	Sololá	710	Panajachel	8	Panajachel	5	Mayo	2023-03-05T00:00:00	2024-11-08T07:00:00	4	Temperatura máxima	17.4
34671	7	Sololá	710	Panajachel	8	Panajachel	5	Mayo	2023-03-05T00:00:00	2024-11-08T07:00:00	3	Temperatura mínima	16.1
34672	7	Sololá	710	Panajachel	8	Panajachel	5	Mayo	2023-03-05T00:00:00	2024-11-08T07:00:00	5	Humedad	78
34673	7	Sololá	710	Panajachel	8	Panajachel	5	Mayo	2023-03-05T00:00:00	2024-11-08T07:00:00	6	Velocidad del viento	0
34674	7	Sololá	710	Panajachel	8	Panajachel	5	Mayo	2023-03-05T00:00:00	2024-11-08T07:00:00	7	Dirección del viento	0
34675	7	Sololá	710	Panajachel	8	Panajachel	5	Mayo	2023-03-05T00:00:00	2024-11-08T07:00:00	1	Precipitación	0
34676	7	Sololá	710	Panajachel	8	Panajachel	5	Mayo	2023-03-05T00:00:00	2024-11-08T07:00:00	8	Radiación solar	64
34677	7	Sololá	710	Panajachel	8	Panajachel	5	Mayo	2023-03-05T00:00:00	2024-11-08T08:00:00	2	Temperatura media	20.4
34678	7	Sololá	710	Panajachel	8	Panajachel	5	Mayo	2023-03-05T00:00:00	2024-11-08T08:00:00	4	Temperatura máxima	20.4
34679	7	Sololá	710	Panajachel	8	Panajachel	5	Mayo	2023-03-05T00:00:00	2024-11-08T08:00:00	3	Temperatura mínima	17.4
34680	7	Sololá	710	Panajachel	8	Panajachel	5	Mayo	2023-03-05T00:00:00	2024-11-08T08:00:00	5	Humedad	67
34681	7	Sololá	710	Panajachel	8	Panajachel	5	Mayo	2023-03-05T00:00:00	2024-11-08T08:00:00	6	Velocidad del viento	0
34682	7	Sololá	710	Panajachel	8	Panajachel	5	Mayo	2023-03-05T00:00:00	2024-11-08T08:00:00	7	Dirección del viento	0
34683	7	Sololá	710	Panajachel	8	Panajachel	5	Mayo	2023-03-05T00:00:00	2024-11-08T08:00:00	1	Precipitación	0
34684	7	Sololá	710	Panajachel	8	Panajachel	5	Mayo	2023-03-05T00:00:00	2024-11-08T08:00:00	8	Radiación solar	309
34685	7	Sololá	710	Panajachel	8	Panajachel	5	Mayo	2023-03-05T00:00:00	2024-11-08T09:00:00	2	Temperatura media	21.4
34686	7	Sololá	710	Panajachel	8	Panajachel	5	Mayo	2023-03-05T00:00:00	2024-11-08T09:00:00	4	Temperatura máxima	21.4
34687	7	Sololá	710	Panajachel	8	Panajachel	5	Mayo	2023-03-05T00:00:00	2024-11-08T09:00:00	3	Temperatura mínima	20.4
34688	7	Sololá	710	Panajachel	8	Panajachel	5	Mayo	2023-03-05T00:00:00	2024-11-08T09:00:00	5	Humedad	75
34689	7	Sololá	710	Panajachel	8	Panajachel	5	Mayo	2023-03-05T00:00:00	2024-11-08T09:00:00	6	Velocidad del viento	0
34690	7	Sololá	710	Panajachel	8	Panajachel	5	Mayo	2023-03-05T00:00:00	2024-11-08T09:00:00	7	Dirección del viento	0
34691	7	Sololá	710	Panajachel	8	Panajachel	5	Mayo	2023-03-05T00:00:00	2024-11-08T09:00:00	1	Precipitación	0
34692	7	Sololá	710	Panajachel	8	Panajachel	5	Mayo	2023-03-05T00:00:00	2024-11-08T09:00:00	8	Radiación solar	538
34693	7	Sololá	710	Panajachel	8	Panajachel	5	Mayo	2023-03-05T00:00:00	2024-11-08T10:00:00	2	Temperatura media	22.1
34694	7	Sololá	710	Panajachel	8	Panajachel	5	Mayo	2023-03-05T00:00:00	2024-11-08T10:00:00	4	Temperatura máxima	22.2
34695	7	Sololá	710	Panajachel	8	Panajachel	5	Mayo	2023-03-05T00:00:00	2024-11-08T10:00:00	3	Temperatura mínima	21.4
34696	7	Sololá	710	Panajachel	8	Panajachel	5	Mayo	2023-03-05T00:00:00	2024-11-08T10:00:00	5	Humedad	73
34697	7	Sololá	710	Panajachel	8	Panajachel	5	Mayo	2023-03-05T00:00:00	2024-11-08T10:00:00	6	Velocidad del viento	0
34698	7	Sololá	710	Panajachel	8	Panajachel	5	Mayo	2023-03-05T00:00:00	2024-11-08T10:00:00	7	Dirección del viento	0
34699	7	Sololá	710	Panajachel	8	Panajachel	5	Mayo	2023-03-05T00:00:00	2024-11-08T10:00:00	1	Precipitación	0
34700	7	Sololá	710	Panajachel	8	Panajachel	5	Mayo	2023-03-05T00:00:00	2024-11-08T10:00:00	8	Radiación solar	718
34701	7	Sololá	710	Panajachel	8	Panajachel	5	Mayo	2023-03-05T00:00:00	2024-11-08T11:00:00	2	Temperatura media	22.8
34702	7	Sololá	710	Panajachel	8	Panajachel	5	Mayo	2023-03-05T00:00:00	2024-11-08T11:00:00	4	Temperatura máxima	23.6
34703	7	Sololá	710	Panajachel	8	Panajachel	5	Mayo	2023-03-05T00:00:00	2024-11-08T11:00:00	3	Temperatura mínima	21.9
34704	7	Sololá	710	Panajachel	8	Panajachel	5	Mayo	2023-03-05T00:00:00	2024-11-08T11:00:00	5	Humedad	69
34705	7	Sololá	710	Panajachel	8	Panajachel	5	Mayo	2023-03-05T00:00:00	2024-11-08T11:00:00	6	Velocidad del viento	0
34706	7	Sololá	710	Panajachel	8	Panajachel	5	Mayo	2023-03-05T00:00:00	2024-11-08T11:00:00	7	Dirección del viento	0
34707	7	Sololá	710	Panajachel	8	Panajachel	5	Mayo	2023-03-05T00:00:00	2024-11-08T11:00:00	1	Precipitación	0
34708	7	Sololá	710	Panajachel	8	Panajachel	5	Mayo	2023-03-05T00:00:00	2024-11-08T11:00:00	8	Radiación solar	876
34709	7	Sololá	710	Panajachel	8	Panajachel	5	Mayo	2023-03-05T00:00:00	2024-11-08T12:00:00	2	Temperatura media	24.2
34710	7	Sololá	710	Panajachel	8	Panajachel	5	Mayo	2023-03-05T00:00:00	2024-11-08T12:00:00	4	Temperatura máxima	24.3
34711	7	Sololá	710	Panajachel	8	Panajachel	5	Mayo	2023-03-05T00:00:00	2024-11-08T12:00:00	3	Temperatura mínima	22.8
34712	7	Sololá	710	Panajachel	8	Panajachel	5	Mayo	2023-03-05T00:00:00	2024-11-08T12:00:00	5	Humedad	72
34713	7	Sololá	710	Panajachel	8	Panajachel	5	Mayo	2023-03-05T00:00:00	2024-11-08T12:00:00	6	Velocidad del viento	1.6
34714	7	Sololá	710	Panajachel	8	Panajachel	5	Mayo	2023-03-05T00:00:00	2024-11-08T12:00:00	7	Dirección del viento	1.61
34715	7	Sololá	710	Panajachel	8	Panajachel	5	Mayo	2023-03-05T00:00:00	2024-11-08T12:00:00	1	Precipitación	0
34716	7	Sololá	710	Panajachel	8	Panajachel	5	Mayo	2023-03-05T00:00:00	2024-11-08T12:00:00	8	Radiación solar	906
34717	7	Sololá	710	Panajachel	8	Panajachel	5	Mayo	2023-03-05T00:00:00	2024-11-08T13:00:00	2	Temperatura media	24.7
34718	7	Sololá	710	Panajachel	8	Panajachel	5	Mayo	2023-03-05T00:00:00	2024-11-08T13:00:00	4	Temperatura máxima	24.8
34719	7	Sololá	710	Panajachel	8	Panajachel	5	Mayo	2023-03-05T00:00:00	2024-11-08T13:00:00	3	Temperatura mínima	23.4
34720	7	Sololá	710	Panajachel	8	Panajachel	5	Mayo	2023-03-05T00:00:00	2024-11-08T13:00:00	5	Humedad	75
34721	7	Sololá	710	Panajachel	8	Panajachel	5	Mayo	2023-03-05T00:00:00	2024-11-08T13:00:00	6	Velocidad del viento	1.6
34722	7	Sololá	710	Panajachel	8	Panajachel	5	Mayo	2023-03-05T00:00:00	2024-11-08T13:00:00	7	Dirección del viento	1.61
34723	7	Sololá	710	Panajachel	8	Panajachel	5	Mayo	2023-03-05T00:00:00	2024-11-08T13:00:00	1	Precipitación	0
34724	7	Sololá	710	Panajachel	8	Panajachel	5	Mayo	2023-03-05T00:00:00	2024-11-08T13:00:00	8	Radiación solar	916
34725	7	Sololá	710	Panajachel	8	Panajachel	5	Mayo	2023-03-05T00:00:00	2024-11-08T14:00:00	2	Temperatura media	25.6
34726	7	Sololá	710	Panajachel	8	Panajachel	5	Mayo	2023-03-05T00:00:00	2024-11-08T14:00:00	4	Temperatura máxima	25.6
34727	7	Sololá	710	Panajachel	8	Panajachel	5	Mayo	2023-03-05T00:00:00	2024-11-08T14:00:00	3	Temperatura mínima	24.3
34728	7	Sololá	710	Panajachel	8	Panajachel	5	Mayo	2023-03-05T00:00:00	2024-11-08T14:00:00	5	Humedad	74
34729	7	Sololá	710	Panajachel	8	Panajachel	5	Mayo	2023-03-05T00:00:00	2024-11-08T14:00:00	6	Velocidad del viento	1.6
34730	7	Sololá	710	Panajachel	8	Panajachel	5	Mayo	2023-03-05T00:00:00	2024-11-08T14:00:00	7	Dirección del viento	1.61
34731	7	Sololá	710	Panajachel	8	Panajachel	5	Mayo	2023-03-05T00:00:00	2024-11-08T14:00:00	1	Precipitación	0
34732	7	Sololá	710	Panajachel	8	Panajachel	5	Mayo	2023-03-05T00:00:00	2024-11-08T14:00:00	8	Radiación solar	840
34733	7	Sololá	710	Panajachel	8	Panajachel	5	Mayo	2023-03-05T00:00:00	2024-11-08T15:00:00	2	Temperatura media	23.9
34734	7	Sololá	710	Panajachel	8	Panajachel	5	Mayo	2023-03-05T00:00:00	2024-11-08T15:00:00	4	Temperatura máxima	25.8
34735	7	Sololá	710	Panajachel	8	Panajachel	5	Mayo	2023-03-05T00:00:00	2024-11-08T15:00:00	3	Temperatura mínima	23.3
34736	7	Sololá	710	Panajachel	8	Panajachel	5	Mayo	2023-03-05T00:00:00	2024-11-08T15:00:00	5	Humedad	80
34737	7	Sololá	710	Panajachel	8	Panajachel	5	Mayo	2023-03-05T00:00:00	2024-11-08T15:00:00	6	Velocidad del viento	6.4
34738	7	Sololá	710	Panajachel	8	Panajachel	5	Mayo	2023-03-05T00:00:00	2024-11-08T15:00:00	7	Dirección del viento	6.44
34739	7	Sololá	710	Panajachel	8	Panajachel	5	Mayo	2023-03-05T00:00:00	2024-11-08T15:00:00	1	Precipitación	0
34740	7	Sololá	710	Panajachel	8	Panajachel	5	Mayo	2023-03-05T00:00:00	2024-11-08T15:00:00	8	Radiación solar	708
34741	7	Sololá	710	Panajachel	8	Panajachel	5	Mayo	2023-03-05T00:00:00	2024-11-08T16:00:00	2	Temperatura media	23.2
34742	7	Sololá	710	Panajachel	8	Panajachel	5	Mayo	2023-03-05T00:00:00	2024-11-08T16:00:00	4	Temperatura máxima	24
34743	7	Sololá	710	Panajachel	8	Panajachel	5	Mayo	2023-03-05T00:00:00	2024-11-08T16:00:00	3	Temperatura mínima	23.1
34744	7	Sololá	710	Panajachel	8	Panajachel	5	Mayo	2023-03-05T00:00:00	2024-11-08T16:00:00	5	Humedad	82
34745	7	Sololá	710	Panajachel	8	Panajachel	5	Mayo	2023-03-05T00:00:00	2024-11-08T16:00:00	6	Velocidad del viento	0
34746	7	Sololá	710	Panajachel	8	Panajachel	5	Mayo	2023-03-05T00:00:00	2024-11-08T16:00:00	7	Dirección del viento	0
34747	7	Sololá	710	Panajachel	8	Panajachel	5	Mayo	2023-03-05T00:00:00	2024-11-08T16:00:00	1	Precipitación	0.2
34748	7	Sololá	710	Panajachel	8	Panajachel	5	Mayo	2023-03-05T00:00:00	2024-11-08T16:00:00	8	Radiación solar	168
34749	7	Sololá	710	Panajachel	8	Panajachel	5	Mayo	2023-03-05T00:00:00	2024-11-08T17:00:00	2	Temperatura media	22.8
34750	7	Sololá	710	Panajachel	8	Panajachel	5	Mayo	2023-03-05T00:00:00	2024-11-08T17:00:00	4	Temperatura máxima	23.2
34751	7	Sololá	710	Panajachel	8	Panajachel	5	Mayo	2023-03-05T00:00:00	2024-11-08T17:00:00	3	Temperatura mínima	22.6
34752	7	Sololá	710	Panajachel	8	Panajachel	5	Mayo	2023-03-05T00:00:00	2024-11-08T17:00:00	5	Humedad	84
34753	7	Sololá	710	Panajachel	8	Panajachel	5	Mayo	2023-03-05T00:00:00	2024-11-08T17:00:00	6	Velocidad del viento	0
34754	7	Sololá	710	Panajachel	8	Panajachel	5	Mayo	2023-03-05T00:00:00	2024-11-08T17:00:00	7	Dirección del viento	0
34755	7	Sololá	710	Panajachel	8	Panajachel	5	Mayo	2023-03-05T00:00:00	2024-11-08T17:00:00	1	Precipitación	0
34756	7	Sololá	710	Panajachel	8	Panajachel	5	Mayo	2023-03-05T00:00:00	2024-11-08T17:00:00	8	Radiación solar	122
34757	7	Sololá	710	Panajachel	8	Panajachel	5	Mayo	2023-03-05T00:00:00	2024-11-08T18:00:00	2	Temperatura media	22.5
34758	7	Sololá	710	Panajachel	8	Panajachel	5	Mayo	2023-03-05T00:00:00	2024-11-08T18:00:00	4	Temperatura máxima	22.8
34759	7	Sololá	710	Panajachel	8	Panajachel	5	Mayo	2023-03-05T00:00:00	2024-11-08T18:00:00	3	Temperatura mínima	22.5
34760	7	Sololá	710	Panajachel	8	Panajachel	5	Mayo	2023-03-05T00:00:00	2024-11-08T18:00:00	5	Humedad	86
34761	7	Sololá	710	Panajachel	8	Panajachel	5	Mayo	2023-03-05T00:00:00	2024-11-08T18:00:00	6	Velocidad del viento	0
34762	7	Sololá	710	Panajachel	8	Panajachel	5	Mayo	2023-03-05T00:00:00	2024-11-08T18:00:00	7	Dirección del viento	0
34763	7	Sololá	710	Panajachel	8	Panajachel	5	Mayo	2023-03-05T00:00:00	2024-11-08T18:00:00	1	Precipitación	0
34764	7	Sololá	710	Panajachel	8	Panajachel	5	Mayo	2023-03-05T00:00:00	2024-11-08T18:00:00	8	Radiación solar	68
34765	7	Sololá	710	Panajachel	8	Panajachel	5	Mayo	2023-03-05T00:00:00	2024-11-08T19:00:00	2	Temperatura media	21.6
34766	7	Sololá	710	Panajachel	8	Panajachel	5	Mayo	2023-03-05T00:00:00	2024-11-08T19:00:00	4	Temperatura máxima	22.5
34767	7	Sololá	710	Panajachel	8	Panajachel	5	Mayo	2023-03-05T00:00:00	2024-11-08T19:00:00	3	Temperatura mínima	21.6
34768	7	Sololá	710	Panajachel	8	Panajachel	5	Mayo	2023-03-05T00:00:00	2024-11-08T19:00:00	5	Humedad	85
34769	7	Sololá	710	Panajachel	8	Panajachel	5	Mayo	2023-03-05T00:00:00	2024-11-08T19:00:00	6	Velocidad del viento	0
34770	7	Sololá	710	Panajachel	8	Panajachel	5	Mayo	2023-03-05T00:00:00	2024-11-08T19:00:00	7	Dirección del viento	0
34771	7	Sololá	710	Panajachel	8	Panajachel	5	Mayo	2023-03-05T00:00:00	2024-11-08T19:00:00	1	Precipitación	0
34772	7	Sololá	710	Panajachel	8	Panajachel	5	Mayo	2023-03-05T00:00:00	2024-11-08T19:00:00	8	Radiación solar	0
34773	7	Sololá	710	Panajachel	8	Panajachel	5	Mayo	2023-03-05T00:00:00	2024-11-08T20:00:00	2	Temperatura media	20.8
34774	7	Sololá	710	Panajachel	8	Panajachel	5	Mayo	2023-03-05T00:00:00	2024-11-08T20:00:00	4	Temperatura máxima	21.6
34775	7	Sololá	710	Panajachel	8	Panajachel	5	Mayo	2023-03-05T00:00:00	2024-11-08T20:00:00	3	Temperatura mínima	20.8
34776	7	Sololá	710	Panajachel	8	Panajachel	5	Mayo	2023-03-05T00:00:00	2024-11-08T20:00:00	5	Humedad	79
34777	7	Sololá	710	Panajachel	8	Panajachel	5	Mayo	2023-03-05T00:00:00	2024-11-08T20:00:00	6	Velocidad del viento	0
34778	7	Sololá	710	Panajachel	8	Panajachel	5	Mayo	2023-03-05T00:00:00	2024-11-08T20:00:00	7	Dirección del viento	0
34779	7	Sololá	710	Panajachel	8	Panajachel	5	Mayo	2023-03-05T00:00:00	2024-11-08T20:00:00	1	Precipitación	0
34780	7	Sololá	710	Panajachel	8	Panajachel	5	Mayo	2023-03-05T00:00:00	2024-11-08T20:00:00	8	Radiación solar	0
34781	7	Sololá	710	Panajachel	8	Panajachel	5	Mayo	2023-03-05T00:00:00	2024-11-08T21:00:00	2	Temperatura media	20.3
34782	7	Sololá	710	Panajachel	8	Panajachel	5	Mayo	2023-03-05T00:00:00	2024-11-08T21:00:00	4	Temperatura máxima	20.8
34783	7	Sololá	710	Panajachel	8	Panajachel	5	Mayo	2023-03-05T00:00:00	2024-11-08T21:00:00	3	Temperatura mínima	20.3
34784	7	Sololá	710	Panajachel	8	Panajachel	5	Mayo	2023-03-05T00:00:00	2024-11-08T21:00:00	5	Humedad	78
34785	7	Sololá	710	Panajachel	8	Panajachel	5	Mayo	2023-03-05T00:00:00	2024-11-08T21:00:00	6	Velocidad del viento	0
34786	7	Sololá	710	Panajachel	8	Panajachel	5	Mayo	2023-03-05T00:00:00	2024-11-08T21:00:00	7	Dirección del viento	0
34787	7	Sololá	710	Panajachel	8	Panajachel	5	Mayo	2023-03-05T00:00:00	2024-11-08T21:00:00	1	Precipitación	0
34788	7	Sololá	710	Panajachel	8	Panajachel	5	Mayo	2023-03-05T00:00:00	2024-11-08T21:00:00	8	Radiación solar	0
34789	7	Sololá	710	Panajachel	8	Panajachel	5	Mayo	2023-03-05T00:00:00	2024-11-08T22:00:00	2	Temperatura media	19.9
34790	7	Sololá	710	Panajachel	8	Panajachel	5	Mayo	2023-03-05T00:00:00	2024-11-08T22:00:00	4	Temperatura máxima	20.8
34791	7	Sololá	710	Panajachel	8	Panajachel	5	Mayo	2023-03-05T00:00:00	2024-11-08T22:00:00	3	Temperatura mínima	19.9
34792	7	Sololá	710	Panajachel	8	Panajachel	5	Mayo	2023-03-05T00:00:00	2024-11-08T22:00:00	5	Humedad	81
34793	7	Sololá	710	Panajachel	8	Panajachel	5	Mayo	2023-03-05T00:00:00	2024-11-08T22:00:00	6	Velocidad del viento	0
34794	7	Sololá	710	Panajachel	8	Panajachel	5	Mayo	2023-03-05T00:00:00	2024-11-08T22:00:00	7	Dirección del viento	0
34795	7	Sololá	710	Panajachel	8	Panajachel	5	Mayo	2023-03-05T00:00:00	2024-11-08T22:00:00	1	Precipitación	0
34796	7	Sololá	710	Panajachel	8	Panajachel	5	Mayo	2023-03-05T00:00:00	2024-11-08T22:00:00	8	Radiación solar	0
34797	7	Sololá	710	Panajachel	8	Panajachel	5	Mayo	2023-03-05T00:00:00	2024-11-08T23:00:00	2	Temperatura media	19.9
34798	7	Sololá	710	Panajachel	8	Panajachel	5	Mayo	2023-03-05T00:00:00	2024-11-08T23:00:00	4	Temperatura máxima	20.1
34799	7	Sololá	710	Panajachel	8	Panajachel	5	Mayo	2023-03-05T00:00:00	2024-11-08T23:00:00	3	Temperatura mínima	19.8
34800	7	Sololá	710	Panajachel	8	Panajachel	5	Mayo	2023-03-05T00:00:00	2024-11-08T23:00:00	5	Humedad	83
34801	7	Sololá	710	Panajachel	8	Panajachel	5	Mayo	2023-03-05T00:00:00	2024-11-08T23:00:00	6	Velocidad del viento	0
34802	7	Sololá	710	Panajachel	8	Panajachel	5	Mayo	2023-03-05T00:00:00	2024-11-08T23:00:00	7	Dirección del viento	0
34803	7	Sololá	710	Panajachel	8	Panajachel	5	Mayo	2023-03-05T00:00:00	2024-11-08T23:00:00	1	Precipitación	0
34804	7	Sololá	710	Panajachel	8	Panajachel	5	Mayo	2023-03-05T00:00:00	2024-11-08T23:00:00	8	Radiación solar	0
34805	7	Sololá	710	Panajachel	8	Panajachel	5	Mayo	2023-04-05T00:00:00	2024-11-08T00:00:00	2	Temperatura media	18.8
34806	7	Sololá	710	Panajachel	8	Panajachel	5	Mayo	2023-04-05T00:00:00	2024-11-08T00:00:00	4	Temperatura máxima	19.9
34807	7	Sololá	710	Panajachel	8	Panajachel	5	Mayo	2023-04-05T00:00:00	2024-11-08T00:00:00	3	Temperatura mínima	18.8
34808	7	Sololá	710	Panajachel	8	Panajachel	5	Mayo	2023-04-05T00:00:00	2024-11-08T00:00:00	5	Humedad	84
34809	7	Sololá	710	Panajachel	8	Panajachel	5	Mayo	2023-04-05T00:00:00	2024-11-08T00:00:00	6	Velocidad del viento	0
34810	7	Sololá	710	Panajachel	8	Panajachel	5	Mayo	2023-04-05T00:00:00	2024-11-08T00:00:00	7	Dirección del viento	0
34811	7	Sololá	710	Panajachel	8	Panajachel	5	Mayo	2023-04-05T00:00:00	2024-11-08T00:00:00	1	Precipitación	0
34812	7	Sololá	710	Panajachel	8	Panajachel	5	Mayo	2023-04-05T00:00:00	2024-11-08T00:00:00	8	Radiación solar	0
34813	7	Sololá	710	Panajachel	8	Panajachel	5	Mayo	2023-04-05T00:00:00	2024-11-08T01:00:00	2	Temperatura media	19.3
34814	7	Sololá	710	Panajachel	8	Panajachel	5	Mayo	2023-04-05T00:00:00	2024-11-08T01:00:00	4	Temperatura máxima	19.4
34815	7	Sololá	710	Panajachel	8	Panajachel	5	Mayo	2023-04-05T00:00:00	2024-11-08T01:00:00	3	Temperatura mínima	18.7
34816	7	Sololá	710	Panajachel	8	Panajachel	5	Mayo	2023-04-05T00:00:00	2024-11-08T01:00:00	5	Humedad	79
34817	7	Sololá	710	Panajachel	8	Panajachel	5	Mayo	2023-04-05T00:00:00	2024-11-08T01:00:00	6	Velocidad del viento	0
34818	7	Sololá	710	Panajachel	8	Panajachel	5	Mayo	2023-04-05T00:00:00	2024-11-08T01:00:00	7	Dirección del viento	0
34819	7	Sololá	710	Panajachel	8	Panajachel	5	Mayo	2023-04-05T00:00:00	2024-11-08T01:00:00	1	Precipitación	0
34820	7	Sololá	710	Panajachel	8	Panajachel	5	Mayo	2023-04-05T00:00:00	2024-11-08T01:00:00	8	Radiación solar	0
34821	7	Sololá	710	Panajachel	8	Panajachel	5	Mayo	2023-04-05T00:00:00	2024-11-08T02:00:00	2	Temperatura media	20.8
34822	7	Sololá	710	Panajachel	8	Panajachel	5	Mayo	2023-04-05T00:00:00	2024-11-08T02:00:00	4	Temperatura máxima	20.8
34823	7	Sololá	710	Panajachel	8	Panajachel	5	Mayo	2023-04-05T00:00:00	2024-11-08T02:00:00	3	Temperatura mínima	19.3
34824	7	Sololá	710	Panajachel	8	Panajachel	5	Mayo	2023-04-05T00:00:00	2024-11-08T02:00:00	5	Humedad	72
34825	7	Sololá	710	Panajachel	8	Panajachel	5	Mayo	2023-04-05T00:00:00	2024-11-08T02:00:00	6	Velocidad del viento	1.6
34826	7	Sololá	710	Panajachel	8	Panajachel	5	Mayo	2023-04-05T00:00:00	2024-11-08T02:00:00	7	Dirección del viento	1.61
34827	7	Sololá	710	Panajachel	8	Panajachel	5	Mayo	2023-04-05T00:00:00	2024-11-08T02:00:00	1	Precipitación	0
34828	7	Sololá	710	Panajachel	8	Panajachel	5	Mayo	2023-04-05T00:00:00	2024-11-08T02:00:00	8	Radiación solar	0
34829	7	Sololá	710	Panajachel	8	Panajachel	5	Mayo	2023-04-05T00:00:00	2024-11-08T03:00:00	2	Temperatura media	20.8
34830	7	Sololá	710	Panajachel	8	Panajachel	5	Mayo	2023-04-05T00:00:00	2024-11-08T03:00:00	4	Temperatura máxima	21.3
34831	7	Sololá	710	Panajachel	8	Panajachel	5	Mayo	2023-04-05T00:00:00	2024-11-08T03:00:00	3	Temperatura mínima	20.8
34832	7	Sololá	710	Panajachel	8	Panajachel	5	Mayo	2023-04-05T00:00:00	2024-11-08T03:00:00	5	Humedad	72
34833	7	Sololá	710	Panajachel	8	Panajachel	5	Mayo	2023-04-05T00:00:00	2024-11-08T03:00:00	6	Velocidad del viento	1.6
34834	7	Sololá	710	Panajachel	8	Panajachel	5	Mayo	2023-04-05T00:00:00	2024-11-08T03:00:00	7	Dirección del viento	1.61
34835	7	Sololá	710	Panajachel	8	Panajachel	5	Mayo	2023-04-05T00:00:00	2024-11-08T03:00:00	1	Precipitación	0
34836	7	Sololá	710	Panajachel	8	Panajachel	5	Mayo	2023-04-05T00:00:00	2024-11-08T03:00:00	8	Radiación solar	0
34837	7	Sololá	710	Panajachel	8	Panajachel	5	Mayo	2023-04-05T00:00:00	2024-11-08T04:00:00	2	Temperatura media	19.3
34838	7	Sololá	710	Panajachel	8	Panajachel	5	Mayo	2023-04-05T00:00:00	2024-11-08T04:00:00	4	Temperatura máxima	20.7
34839	7	Sololá	710	Panajachel	8	Panajachel	5	Mayo	2023-04-05T00:00:00	2024-11-08T04:00:00	3	Temperatura mínima	19.3
34840	7	Sololá	710	Panajachel	8	Panajachel	5	Mayo	2023-04-05T00:00:00	2024-11-08T04:00:00	5	Humedad	74
34841	7	Sololá	710	Panajachel	8	Panajachel	5	Mayo	2023-04-05T00:00:00	2024-11-08T04:00:00	6	Velocidad del viento	0
34842	7	Sololá	710	Panajachel	8	Panajachel	5	Mayo	2023-04-05T00:00:00	2024-11-08T04:00:00	7	Dirección del viento	0
34843	7	Sololá	710	Panajachel	8	Panajachel	5	Mayo	2023-04-05T00:00:00	2024-11-08T04:00:00	1	Precipitación	0
34844	7	Sololá	710	Panajachel	8	Panajachel	5	Mayo	2023-04-05T00:00:00	2024-11-08T04:00:00	8	Radiación solar	0
34845	7	Sololá	710	Panajachel	8	Panajachel	5	Mayo	2023-04-05T00:00:00	2024-11-08T05:00:00	2	Temperatura media	18.5
34846	7	Sololá	710	Panajachel	8	Panajachel	5	Mayo	2023-04-05T00:00:00	2024-11-08T05:00:00	4	Temperatura máxima	19.3
34847	7	Sololá	710	Panajachel	8	Panajachel	5	Mayo	2023-04-05T00:00:00	2024-11-08T05:00:00	3	Temperatura mínima	18.5
34848	7	Sololá	710	Panajachel	8	Panajachel	5	Mayo	2023-04-05T00:00:00	2024-11-08T05:00:00	5	Humedad	78
34849	7	Sololá	710	Panajachel	8	Panajachel	5	Mayo	2023-04-05T00:00:00	2024-11-08T05:00:00	6	Velocidad del viento	0
34850	7	Sololá	710	Panajachel	8	Panajachel	5	Mayo	2023-04-05T00:00:00	2024-11-08T05:00:00	7	Dirección del viento	0
34851	7	Sololá	710	Panajachel	8	Panajachel	5	Mayo	2023-04-05T00:00:00	2024-11-08T05:00:00	1	Precipitación	0
34852	7	Sololá	710	Panajachel	8	Panajachel	5	Mayo	2023-04-05T00:00:00	2024-11-08T05:00:00	8	Radiación solar	0
34853	7	Sololá	710	Panajachel	8	Panajachel	5	Mayo	2023-04-05T00:00:00	2024-11-08T06:00:00	2	Temperatura media	17.8
34854	7	Sololá	710	Panajachel	8	Panajachel	5	Mayo	2023-04-05T00:00:00	2024-11-08T06:00:00	4	Temperatura máxima	18.5
34855	7	Sololá	710	Panajachel	8	Panajachel	5	Mayo	2023-04-05T00:00:00	2024-11-08T06:00:00	3	Temperatura mínima	17.8
34856	7	Sololá	710	Panajachel	8	Panajachel	5	Mayo	2023-04-05T00:00:00	2024-11-08T06:00:00	5	Humedad	78
34857	7	Sololá	710	Panajachel	8	Panajachel	5	Mayo	2023-04-05T00:00:00	2024-11-08T06:00:00	6	Velocidad del viento	0
34858	7	Sololá	710	Panajachel	8	Panajachel	5	Mayo	2023-04-05T00:00:00	2024-11-08T06:00:00	7	Dirección del viento	0
34859	7	Sololá	710	Panajachel	8	Panajachel	5	Mayo	2023-04-05T00:00:00	2024-11-08T06:00:00	1	Precipitación	0
34860	7	Sololá	710	Panajachel	8	Panajachel	5	Mayo	2023-04-05T00:00:00	2024-11-08T06:00:00	8	Radiación solar	4
34861	7	Sololá	710	Panajachel	8	Panajachel	5	Mayo	2023-04-05T00:00:00	2024-11-08T07:00:00	2	Temperatura media	19.3
34862	7	Sololá	710	Panajachel	8	Panajachel	5	Mayo	2023-04-05T00:00:00	2024-11-08T07:00:00	4	Temperatura máxima	19.3
34863	7	Sololá	710	Panajachel	8	Panajachel	5	Mayo	2023-04-05T00:00:00	2024-11-08T07:00:00	3	Temperatura mínima	17.8
34864	7	Sololá	710	Panajachel	8	Panajachel	5	Mayo	2023-04-05T00:00:00	2024-11-08T07:00:00	5	Humedad	75
34865	7	Sololá	710	Panajachel	8	Panajachel	5	Mayo	2023-04-05T00:00:00	2024-11-08T07:00:00	6	Velocidad del viento	0
34866	7	Sololá	710	Panajachel	8	Panajachel	5	Mayo	2023-04-05T00:00:00	2024-11-08T07:00:00	7	Dirección del viento	0
34867	7	Sololá	710	Panajachel	8	Panajachel	5	Mayo	2023-04-05T00:00:00	2024-11-08T07:00:00	1	Precipitación	0
34868	7	Sololá	710	Panajachel	8	Panajachel	5	Mayo	2023-04-05T00:00:00	2024-11-08T07:00:00	8	Radiación solar	81
34869	7	Sololá	710	Panajachel	8	Panajachel	5	Mayo	2023-04-05T00:00:00	2024-11-08T08:00:00	2	Temperatura media	21.8
34870	7	Sololá	710	Panajachel	8	Panajachel	5	Mayo	2023-04-05T00:00:00	2024-11-08T08:00:00	4	Temperatura máxima	22.4
34871	7	Sololá	710	Panajachel	8	Panajachel	5	Mayo	2023-04-05T00:00:00	2024-11-08T08:00:00	3	Temperatura mínima	19.3
34872	7	Sololá	710	Panajachel	8	Panajachel	5	Mayo	2023-04-05T00:00:00	2024-11-08T08:00:00	5	Humedad	71
34873	7	Sololá	710	Panajachel	8	Panajachel	5	Mayo	2023-04-05T00:00:00	2024-11-08T08:00:00	6	Velocidad del viento	0
34874	7	Sololá	710	Panajachel	8	Panajachel	5	Mayo	2023-04-05T00:00:00	2024-11-08T08:00:00	7	Dirección del viento	0
34875	7	Sololá	710	Panajachel	8	Panajachel	5	Mayo	2023-04-05T00:00:00	2024-11-08T08:00:00	1	Precipitación	0
34876	7	Sololá	710	Panajachel	8	Panajachel	5	Mayo	2023-04-05T00:00:00	2024-11-08T08:00:00	8	Radiación solar	312
34877	7	Sololá	710	Panajachel	8	Panajachel	5	Mayo	2023-04-05T00:00:00	2024-11-08T09:00:00	2	Temperatura media	22.8
34878	7	Sololá	710	Panajachel	8	Panajachel	5	Mayo	2023-04-05T00:00:00	2024-11-08T09:00:00	4	Temperatura máxima	22.8
34879	7	Sololá	710	Panajachel	8	Panajachel	5	Mayo	2023-04-05T00:00:00	2024-11-08T09:00:00	3	Temperatura mínima	21.6
34880	7	Sololá	710	Panajachel	8	Panajachel	5	Mayo	2023-04-05T00:00:00	2024-11-08T09:00:00	5	Humedad	74
34881	7	Sololá	710	Panajachel	8	Panajachel	5	Mayo	2023-04-05T00:00:00	2024-11-08T09:00:00	6	Velocidad del viento	0
34882	7	Sololá	710	Panajachel	8	Panajachel	5	Mayo	2023-04-05T00:00:00	2024-11-08T09:00:00	7	Dirección del viento	0
34883	7	Sololá	710	Panajachel	8	Panajachel	5	Mayo	2023-04-05T00:00:00	2024-11-08T09:00:00	1	Precipitación	0
34884	7	Sololá	710	Panajachel	8	Panajachel	5	Mayo	2023-04-05T00:00:00	2024-11-08T09:00:00	8	Radiación solar	524
34885	7	Sololá	710	Panajachel	8	Panajachel	5	Mayo	2023-04-05T00:00:00	2024-11-08T10:00:00	2	Temperatura media	22.7
34886	7	Sololá	710	Panajachel	8	Panajachel	5	Mayo	2023-04-05T00:00:00	2024-11-08T10:00:00	4	Temperatura máxima	23
34887	7	Sololá	710	Panajachel	8	Panajachel	5	Mayo	2023-04-05T00:00:00	2024-11-08T10:00:00	3	Temperatura mínima	22.2
34888	7	Sololá	710	Panajachel	8	Panajachel	5	Mayo	2023-04-05T00:00:00	2024-11-08T10:00:00	5	Humedad	71
34889	7	Sololá	710	Panajachel	8	Panajachel	5	Mayo	2023-04-05T00:00:00	2024-11-08T10:00:00	6	Velocidad del viento	0
34890	7	Sololá	710	Panajachel	8	Panajachel	5	Mayo	2023-04-05T00:00:00	2024-11-08T10:00:00	7	Dirección del viento	0
34891	7	Sololá	710	Panajachel	8	Panajachel	5	Mayo	2023-04-05T00:00:00	2024-11-08T10:00:00	1	Precipitación	0
34892	7	Sololá	710	Panajachel	8	Panajachel	5	Mayo	2023-04-05T00:00:00	2024-11-08T10:00:00	8	Radiación solar	672
34893	7	Sololá	710	Panajachel	8	Panajachel	5	Mayo	2023-04-05T00:00:00	2024-11-08T11:00:00	2	Temperatura media	24.3
34894	7	Sololá	710	Panajachel	8	Panajachel	5	Mayo	2023-04-05T00:00:00	2024-11-08T11:00:00	4	Temperatura máxima	24.3
34895	7	Sololá	710	Panajachel	8	Panajachel	5	Mayo	2023-04-05T00:00:00	2024-11-08T11:00:00	3	Temperatura mínima	22.7
34896	7	Sololá	710	Panajachel	8	Panajachel	5	Mayo	2023-04-05T00:00:00	2024-11-08T11:00:00	5	Humedad	69
34897	7	Sololá	710	Panajachel	8	Panajachel	5	Mayo	2023-04-05T00:00:00	2024-11-08T11:00:00	6	Velocidad del viento	0
34898	7	Sololá	710	Panajachel	8	Panajachel	5	Mayo	2023-04-05T00:00:00	2024-11-08T11:00:00	7	Dirección del viento	0
34899	7	Sololá	710	Panajachel	8	Panajachel	5	Mayo	2023-04-05T00:00:00	2024-11-08T11:00:00	1	Precipitación	0
34900	7	Sololá	710	Panajachel	8	Panajachel	5	Mayo	2023-04-05T00:00:00	2024-11-08T11:00:00	8	Radiación solar	520
34901	7	Sololá	710	Panajachel	8	Panajachel	5	Mayo	2023-04-05T00:00:00	2024-11-08T12:00:00	2	Temperatura media	25.8
34902	7	Sololá	710	Panajachel	8	Panajachel	5	Mayo	2023-04-05T00:00:00	2024-11-08T12:00:00	4	Temperatura máxima	25.9
34903	7	Sololá	710	Panajachel	8	Panajachel	5	Mayo	2023-04-05T00:00:00	2024-11-08T12:00:00	3	Temperatura mínima	23.7
34904	7	Sololá	710	Panajachel	8	Panajachel	5	Mayo	2023-04-05T00:00:00	2024-11-08T12:00:00	5	Humedad	68
34905	7	Sololá	710	Panajachel	8	Panajachel	5	Mayo	2023-04-05T00:00:00	2024-11-08T12:00:00	6	Velocidad del viento	0
34906	7	Sololá	710	Panajachel	8	Panajachel	5	Mayo	2023-04-05T00:00:00	2024-11-08T12:00:00	7	Dirección del viento	0
34907	7	Sololá	710	Panajachel	8	Panajachel	5	Mayo	2023-04-05T00:00:00	2024-11-08T12:00:00	1	Precipitación	0
34908	7	Sololá	710	Panajachel	8	Panajachel	5	Mayo	2023-04-05T00:00:00	2024-11-08T12:00:00	8	Radiación solar	886
34909	7	Sololá	710	Panajachel	8	Panajachel	5	Mayo	2023-04-05T00:00:00	2024-11-08T13:00:00	2	Temperatura media	24.3
34910	7	Sololá	710	Panajachel	8	Panajachel	5	Mayo	2023-04-05T00:00:00	2024-11-08T13:00:00	4	Temperatura máxima	26.3
34911	7	Sololá	710	Panajachel	8	Panajachel	5	Mayo	2023-04-05T00:00:00	2024-11-08T13:00:00	3	Temperatura mínima	24.1
34912	7	Sololá	710	Panajachel	8	Panajachel	5	Mayo	2023-04-05T00:00:00	2024-11-08T13:00:00	5	Humedad	75
34913	7	Sololá	710	Panajachel	8	Panajachel	5	Mayo	2023-04-05T00:00:00	2024-11-08T13:00:00	6	Velocidad del viento	1.6
34914	7	Sololá	710	Panajachel	8	Panajachel	5	Mayo	2023-04-05T00:00:00	2024-11-08T13:00:00	7	Dirección del viento	1.61
34915	7	Sololá	710	Panajachel	8	Panajachel	5	Mayo	2023-04-05T00:00:00	2024-11-08T13:00:00	1	Precipitación	0
34916	7	Sololá	710	Panajachel	8	Panajachel	5	Mayo	2023-04-05T00:00:00	2024-11-08T13:00:00	8	Radiación solar	748
34917	7	Sololá	710	Panajachel	8	Panajachel	5	Mayo	2023-04-05T00:00:00	2024-11-08T14:00:00	2	Temperatura media	26.3
34918	7	Sololá	710	Panajachel	8	Panajachel	5	Mayo	2023-04-05T00:00:00	2024-11-08T14:00:00	4	Temperatura máxima	26.3
34919	7	Sololá	710	Panajachel	8	Panajachel	5	Mayo	2023-04-05T00:00:00	2024-11-08T14:00:00	3	Temperatura mínima	24.3
34920	7	Sololá	710	Panajachel	8	Panajachel	5	Mayo	2023-04-05T00:00:00	2024-11-08T14:00:00	5	Humedad	71
34921	7	Sololá	710	Panajachel	8	Panajachel	5	Mayo	2023-04-05T00:00:00	2024-11-08T14:00:00	6	Velocidad del viento	0
34922	7	Sololá	710	Panajachel	8	Panajachel	5	Mayo	2023-04-05T00:00:00	2024-11-08T14:00:00	7	Dirección del viento	0
34923	7	Sololá	710	Panajachel	8	Panajachel	5	Mayo	2023-04-05T00:00:00	2024-11-08T14:00:00	1	Precipitación	0
34924	7	Sololá	710	Panajachel	8	Panajachel	5	Mayo	2023-04-05T00:00:00	2024-11-08T14:00:00	8	Radiación solar	644
34925	7	Sololá	710	Panajachel	8	Panajachel	5	Mayo	2023-04-05T00:00:00	2024-11-08T15:00:00	2	Temperatura media	24.3
34926	7	Sololá	710	Panajachel	8	Panajachel	5	Mayo	2023-04-05T00:00:00	2024-11-08T15:00:00	4	Temperatura máxima	26.8
34927	7	Sololá	710	Panajachel	8	Panajachel	5	Mayo	2023-04-05T00:00:00	2024-11-08T15:00:00	3	Temperatura mínima	24.2
34928	7	Sololá	710	Panajachel	8	Panajachel	5	Mayo	2023-04-05T00:00:00	2024-11-08T15:00:00	5	Humedad	80
34929	7	Sololá	710	Panajachel	8	Panajachel	5	Mayo	2023-04-05T00:00:00	2024-11-08T15:00:00	6	Velocidad del viento	4.8
34930	7	Sololá	710	Panajachel	8	Panajachel	5	Mayo	2023-04-05T00:00:00	2024-11-08T15:00:00	7	Dirección del viento	4.83
34931	7	Sololá	710	Panajachel	8	Panajachel	5	Mayo	2023-04-05T00:00:00	2024-11-08T15:00:00	1	Precipitación	0
34932	7	Sololá	710	Panajachel	8	Panajachel	5	Mayo	2023-04-05T00:00:00	2024-11-08T15:00:00	8	Radiación solar	639
34933	7	Sololá	710	Panajachel	8	Panajachel	5	Mayo	2023-04-05T00:00:00	2024-11-08T16:00:00	2	Temperatura media	23.3
34934	7	Sololá	710	Panajachel	8	Panajachel	5	Mayo	2023-04-05T00:00:00	2024-11-08T16:00:00	4	Temperatura máxima	24.4
34935	7	Sololá	710	Panajachel	8	Panajachel	5	Mayo	2023-04-05T00:00:00	2024-11-08T16:00:00	3	Temperatura mínima	23.3
34936	7	Sololá	710	Panajachel	8	Panajachel	5	Mayo	2023-04-05T00:00:00	2024-11-08T16:00:00	5	Humedad	82
34937	7	Sololá	710	Panajachel	8	Panajachel	5	Mayo	2023-04-05T00:00:00	2024-11-08T16:00:00	6	Velocidad del viento	4.8
34938	7	Sololá	710	Panajachel	8	Panajachel	5	Mayo	2023-04-05T00:00:00	2024-11-08T16:00:00	7	Dirección del viento	4.83
34939	7	Sololá	710	Panajachel	8	Panajachel	5	Mayo	2023-04-05T00:00:00	2024-11-08T16:00:00	1	Precipitación	0
34940	7	Sololá	710	Panajachel	8	Panajachel	5	Mayo	2023-04-05T00:00:00	2024-11-08T16:00:00	8	Radiación solar	269
34941	7	Sololá	710	Panajachel	8	Panajachel	5	Mayo	2023-04-05T00:00:00	2024-11-08T17:00:00	2	Temperatura media	22.4
34942	7	Sololá	710	Panajachel	8	Panajachel	5	Mayo	2023-04-05T00:00:00	2024-11-08T17:00:00	4	Temperatura máxima	23.4
34943	7	Sololá	710	Panajachel	8	Panajachel	5	Mayo	2023-04-05T00:00:00	2024-11-08T17:00:00	3	Temperatura mínima	22.4
34944	7	Sololá	710	Panajachel	8	Panajachel	5	Mayo	2023-04-05T00:00:00	2024-11-08T17:00:00	5	Humedad	86
34945	7	Sololá	710	Panajachel	8	Panajachel	5	Mayo	2023-04-05T00:00:00	2024-11-08T17:00:00	6	Velocidad del viento	3.2
34946	7	Sololá	710	Panajachel	8	Panajachel	5	Mayo	2023-04-05T00:00:00	2024-11-08T17:00:00	7	Dirección del viento	3.22
34947	7	Sololá	710	Panajachel	8	Panajachel	5	Mayo	2023-04-05T00:00:00	2024-11-08T17:00:00	1	Precipitación	0
34948	7	Sololá	710	Panajachel	8	Panajachel	5	Mayo	2023-04-05T00:00:00	2024-11-08T17:00:00	8	Radiación solar	121
34949	7	Sololá	710	Panajachel	8	Panajachel	5	Mayo	2023-04-05T00:00:00	2024-11-08T18:00:00	2	Temperatura media	22
34950	7	Sololá	710	Panajachel	8	Panajachel	5	Mayo	2023-04-05T00:00:00	2024-11-08T18:00:00	4	Temperatura máxima	22.6
34951	7	Sololá	710	Panajachel	8	Panajachel	5	Mayo	2023-04-05T00:00:00	2024-11-08T18:00:00	3	Temperatura mínima	21.9
34952	7	Sololá	710	Panajachel	8	Panajachel	5	Mayo	2023-04-05T00:00:00	2024-11-08T18:00:00	5	Humedad	86
34953	7	Sololá	710	Panajachel	8	Panajachel	5	Mayo	2023-04-05T00:00:00	2024-11-08T18:00:00	6	Velocidad del viento	0
34954	7	Sololá	710	Panajachel	8	Panajachel	5	Mayo	2023-04-05T00:00:00	2024-11-08T18:00:00	7	Dirección del viento	0
34955	7	Sololá	710	Panajachel	8	Panajachel	5	Mayo	2023-04-05T00:00:00	2024-11-08T18:00:00	1	Precipitación	0
34956	7	Sololá	710	Panajachel	8	Panajachel	5	Mayo	2023-04-05T00:00:00	2024-11-08T18:00:00	8	Radiación solar	27
34957	7	Sololá	710	Panajachel	8	Panajachel	5	Mayo	2023-04-05T00:00:00	2024-11-08T19:00:00	2	Temperatura media	21.7
34958	7	Sololá	710	Panajachel	8	Panajachel	5	Mayo	2023-04-05T00:00:00	2024-11-08T19:00:00	4	Temperatura máxima	22.1
34959	7	Sololá	710	Panajachel	8	Panajachel	5	Mayo	2023-04-05T00:00:00	2024-11-08T19:00:00	3	Temperatura mínima	21.7
34960	7	Sololá	710	Panajachel	8	Panajachel	5	Mayo	2023-04-05T00:00:00	2024-11-08T19:00:00	5	Humedad	88
34961	7	Sololá	710	Panajachel	8	Panajachel	5	Mayo	2023-04-05T00:00:00	2024-11-08T19:00:00	6	Velocidad del viento	0
34962	7	Sololá	710	Panajachel	8	Panajachel	5	Mayo	2023-04-05T00:00:00	2024-11-08T19:00:00	7	Dirección del viento	0
34963	7	Sololá	710	Panajachel	8	Panajachel	5	Mayo	2023-04-05T00:00:00	2024-11-08T19:00:00	1	Precipitación	0
34964	7	Sololá	710	Panajachel	8	Panajachel	5	Mayo	2023-04-05T00:00:00	2024-11-08T19:00:00	8	Radiación solar	0
34965	7	Sololá	710	Panajachel	8	Panajachel	5	Mayo	2023-04-05T00:00:00	2024-11-08T20:00:00	2	Temperatura media	21.1
34966	7	Sololá	710	Panajachel	8	Panajachel	5	Mayo	2023-04-05T00:00:00	2024-11-08T20:00:00	4	Temperatura máxima	21.7
34967	7	Sololá	710	Panajachel	8	Panajachel	5	Mayo	2023-04-05T00:00:00	2024-11-08T20:00:00	3	Temperatura mínima	21.1
34968	7	Sololá	710	Panajachel	8	Panajachel	5	Mayo	2023-04-05T00:00:00	2024-11-08T20:00:00	5	Humedad	90
34969	7	Sololá	710	Panajachel	8	Panajachel	5	Mayo	2023-04-05T00:00:00	2024-11-08T20:00:00	6	Velocidad del viento	0
34970	7	Sololá	710	Panajachel	8	Panajachel	5	Mayo	2023-04-05T00:00:00	2024-11-08T20:00:00	7	Dirección del viento	0
34971	7	Sololá	710	Panajachel	8	Panajachel	5	Mayo	2023-04-05T00:00:00	2024-11-08T20:00:00	1	Precipitación	0
34972	7	Sololá	710	Panajachel	8	Panajachel	5	Mayo	2023-04-05T00:00:00	2024-11-08T20:00:00	8	Radiación solar	0
34973	7	Sololá	710	Panajachel	8	Panajachel	5	Mayo	2023-04-05T00:00:00	2024-11-08T21:00:00	2	Temperatura media	20.6
34974	7	Sololá	710	Panajachel	8	Panajachel	5	Mayo	2023-04-05T00:00:00	2024-11-08T21:00:00	4	Temperatura máxima	21.1
34975	7	Sololá	710	Panajachel	8	Panajachel	5	Mayo	2023-04-05T00:00:00	2024-11-08T21:00:00	3	Temperatura mínima	20.4
34976	7	Sololá	710	Panajachel	8	Panajachel	5	Mayo	2023-04-05T00:00:00	2024-11-08T21:00:00	5	Humedad	87
34977	7	Sololá	710	Panajachel	8	Panajachel	5	Mayo	2023-04-05T00:00:00	2024-11-08T21:00:00	6	Velocidad del viento	0
34978	7	Sololá	710	Panajachel	8	Panajachel	5	Mayo	2023-04-05T00:00:00	2024-11-08T21:00:00	7	Dirección del viento	0
34979	7	Sololá	710	Panajachel	8	Panajachel	5	Mayo	2023-04-05T00:00:00	2024-11-08T21:00:00	1	Precipitación	0
34980	7	Sololá	710	Panajachel	8	Panajachel	5	Mayo	2023-04-05T00:00:00	2024-11-08T21:00:00	8	Radiación solar	0
34981	7	Sololá	710	Panajachel	8	Panajachel	5	Mayo	2023-04-05T00:00:00	2024-11-08T22:00:00	2	Temperatura media	20.1
34982	7	Sololá	710	Panajachel	8	Panajachel	5	Mayo	2023-04-05T00:00:00	2024-11-08T22:00:00	4	Temperatura máxima	20.6
34983	7	Sololá	710	Panajachel	8	Panajachel	5	Mayo	2023-04-05T00:00:00	2024-11-08T22:00:00	3	Temperatura mínima	20
34984	7	Sololá	710	Panajachel	8	Panajachel	5	Mayo	2023-04-05T00:00:00	2024-11-08T22:00:00	5	Humedad	82
34985	7	Sololá	710	Panajachel	8	Panajachel	5	Mayo	2023-04-05T00:00:00	2024-11-08T22:00:00	6	Velocidad del viento	0
34986	7	Sololá	710	Panajachel	8	Panajachel	5	Mayo	2023-04-05T00:00:00	2024-11-08T22:00:00	7	Dirección del viento	0
34987	7	Sololá	710	Panajachel	8	Panajachel	5	Mayo	2023-04-05T00:00:00	2024-11-08T22:00:00	1	Precipitación	0
34988	7	Sololá	710	Panajachel	8	Panajachel	5	Mayo	2023-04-05T00:00:00	2024-11-08T22:00:00	8	Radiación solar	0
34989	7	Sololá	710	Panajachel	8	Panajachel	5	Mayo	2023-04-05T00:00:00	2024-11-08T23:00:00	2	Temperatura media	19.7
34990	7	Sololá	710	Panajachel	8	Panajachel	5	Mayo	2023-04-05T00:00:00	2024-11-08T23:00:00	4	Temperatura máxima	20.2
34991	7	Sololá	710	Panajachel	8	Panajachel	5	Mayo	2023-04-05T00:00:00	2024-11-08T23:00:00	3	Temperatura mínima	19.7
34992	7	Sololá	710	Panajachel	8	Panajachel	5	Mayo	2023-04-05T00:00:00	2024-11-08T23:00:00	5	Humedad	81
34993	7	Sololá	710	Panajachel	8	Panajachel	5	Mayo	2023-04-05T00:00:00	2024-11-08T23:00:00	6	Velocidad del viento	0
34994	7	Sololá	710	Panajachel	8	Panajachel	5	Mayo	2023-04-05T00:00:00	2024-11-08T23:00:00	7	Dirección del viento	0
34995	7	Sololá	710	Panajachel	8	Panajachel	5	Mayo	2023-04-05T00:00:00	2024-11-08T23:00:00	1	Precipitación	0
34996	7	Sololá	710	Panajachel	8	Panajachel	5	Mayo	2023-04-05T00:00:00	2024-11-08T23:00:00	8	Radiación solar	0
34997	7	Sololá	710	Panajachel	8	Panajachel	5	Mayo	2023-05-05T00:00:00	2024-11-08T00:00:00	2	Temperatura media	19
34998	7	Sololá	710	Panajachel	8	Panajachel	5	Mayo	2023-05-05T00:00:00	2024-11-08T00:00:00	4	Temperatura máxima	19.8
34999	7	Sololá	710	Panajachel	8	Panajachel	5	Mayo	2023-05-05T00:00:00	2024-11-08T00:00:00	3	Temperatura mínima	19
35000	7	Sololá	710	Panajachel	8	Panajachel	5	Mayo	2023-05-05T00:00:00	2024-11-08T00:00:00	5	Humedad	82
35001	7	Sololá	710	Panajachel	8	Panajachel	5	Mayo	2023-05-05T00:00:00	2024-11-08T00:00:00	6	Velocidad del viento	0
35002	7	Sololá	710	Panajachel	8	Panajachel	5	Mayo	2023-05-05T00:00:00	2024-11-08T00:00:00	7	Dirección del viento	0
35003	7	Sololá	710	Panajachel	8	Panajachel	5	Mayo	2023-05-05T00:00:00	2024-11-08T00:00:00	1	Precipitación	0
35004	7	Sololá	710	Panajachel	8	Panajachel	5	Mayo	2023-05-05T00:00:00	2024-11-08T00:00:00	8	Radiación solar	0
35005	7	Sololá	710	Panajachel	8	Panajachel	5	Mayo	2023-05-05T00:00:00	2024-11-08T01:00:00	2	Temperatura media	18.9
35006	7	Sololá	710	Panajachel	8	Panajachel	5	Mayo	2023-05-05T00:00:00	2024-11-08T01:00:00	4	Temperatura máxima	19.1
35007	7	Sololá	710	Panajachel	8	Panajachel	5	Mayo	2023-05-05T00:00:00	2024-11-08T01:00:00	3	Temperatura mínima	18.6
35008	7	Sololá	710	Panajachel	8	Panajachel	5	Mayo	2023-05-05T00:00:00	2024-11-08T01:00:00	5	Humedad	81
35009	7	Sololá	710	Panajachel	8	Panajachel	5	Mayo	2023-05-05T00:00:00	2024-11-08T01:00:00	6	Velocidad del viento	1.6
35010	7	Sololá	710	Panajachel	8	Panajachel	5	Mayo	2023-05-05T00:00:00	2024-11-08T01:00:00	7	Dirección del viento	1.61
35011	7	Sololá	710	Panajachel	8	Panajachel	5	Mayo	2023-05-05T00:00:00	2024-11-08T01:00:00	1	Precipitación	0
35012	7	Sololá	710	Panajachel	8	Panajachel	5	Mayo	2023-05-05T00:00:00	2024-11-08T01:00:00	8	Radiación solar	0
35013	7	Sololá	710	Panajachel	8	Panajachel	5	Mayo	2023-05-05T00:00:00	2024-11-08T02:00:00	2	Temperatura media	19.2
35014	7	Sololá	710	Panajachel	8	Panajachel	5	Mayo	2023-05-05T00:00:00	2024-11-08T02:00:00	4	Temperatura máxima	19.2
35015	7	Sololá	710	Panajachel	8	Panajachel	5	Mayo	2023-05-05T00:00:00	2024-11-08T02:00:00	3	Temperatura mínima	18.3
35016	7	Sololá	710	Panajachel	8	Panajachel	5	Mayo	2023-05-05T00:00:00	2024-11-08T02:00:00	5	Humedad	78
35017	7	Sololá	710	Panajachel	8	Panajachel	5	Mayo	2023-05-05T00:00:00	2024-11-08T02:00:00	6	Velocidad del viento	0
35018	7	Sololá	710	Panajachel	8	Panajachel	5	Mayo	2023-05-05T00:00:00	2024-11-08T02:00:00	7	Dirección del viento	0
35019	7	Sololá	710	Panajachel	8	Panajachel	5	Mayo	2023-05-05T00:00:00	2024-11-08T02:00:00	1	Precipitación	0
35020	7	Sololá	710	Panajachel	8	Panajachel	5	Mayo	2023-05-05T00:00:00	2024-11-08T02:00:00	8	Radiación solar	0
35021	7	Sololá	710	Panajachel	8	Panajachel	5	Mayo	2023-05-05T00:00:00	2024-11-08T03:00:00	2	Temperatura media	20.3
35022	7	Sololá	710	Panajachel	8	Panajachel	5	Mayo	2023-05-05T00:00:00	2024-11-08T03:00:00	4	Temperatura máxima	21.2
35023	7	Sololá	710	Panajachel	8	Panajachel	5	Mayo	2023-05-05T00:00:00	2024-11-08T03:00:00	3	Temperatura mínima	19.2
35024	7	Sololá	710	Panajachel	8	Panajachel	5	Mayo	2023-05-05T00:00:00	2024-11-08T03:00:00	5	Humedad	71
35025	7	Sololá	710	Panajachel	8	Panajachel	5	Mayo	2023-05-05T00:00:00	2024-11-08T03:00:00	6	Velocidad del viento	1.6
35026	7	Sololá	710	Panajachel	8	Panajachel	5	Mayo	2023-05-05T00:00:00	2024-11-08T03:00:00	7	Dirección del viento	1.61
35027	7	Sololá	710	Panajachel	8	Panajachel	5	Mayo	2023-05-05T00:00:00	2024-11-08T03:00:00	1	Precipitación	0
35028	7	Sololá	710	Panajachel	8	Panajachel	5	Mayo	2023-05-05T00:00:00	2024-11-08T03:00:00	8	Radiación solar	0
35029	7	Sololá	710	Panajachel	8	Panajachel	5	Mayo	2023-05-05T00:00:00	2024-11-08T04:00:00	2	Temperatura media	20.9
35030	7	Sololá	710	Panajachel	8	Panajachel	5	Mayo	2023-05-05T00:00:00	2024-11-08T04:00:00	4	Temperatura máxima	21.1
35031	7	Sololá	710	Panajachel	8	Panajachel	5	Mayo	2023-05-05T00:00:00	2024-11-08T04:00:00	3	Temperatura mínima	19.1
35032	7	Sololá	710	Panajachel	8	Panajachel	5	Mayo	2023-05-05T00:00:00	2024-11-08T04:00:00	5	Humedad	66
35033	7	Sololá	710	Panajachel	8	Panajachel	5	Mayo	2023-05-05T00:00:00	2024-11-08T04:00:00	6	Velocidad del viento	1.6
35034	7	Sololá	710	Panajachel	8	Panajachel	5	Mayo	2023-05-05T00:00:00	2024-11-08T04:00:00	7	Dirección del viento	1.61
35035	7	Sololá	710	Panajachel	8	Panajachel	5	Mayo	2023-05-05T00:00:00	2024-11-08T04:00:00	1	Precipitación	0
35036	7	Sololá	710	Panajachel	8	Panajachel	5	Mayo	2023-05-05T00:00:00	2024-11-08T04:00:00	8	Radiación solar	0
35037	7	Sololá	710	Panajachel	8	Panajachel	5	Mayo	2023-05-05T00:00:00	2024-11-08T05:00:00	2	Temperatura media	19.6
35038	7	Sololá	710	Panajachel	8	Panajachel	5	Mayo	2023-05-05T00:00:00	2024-11-08T05:00:00	4	Temperatura máxima	20.9
35039	7	Sololá	710	Panajachel	8	Panajachel	5	Mayo	2023-05-05T00:00:00	2024-11-08T05:00:00	3	Temperatura mínima	19.5
35040	7	Sololá	710	Panajachel	8	Panajachel	5	Mayo	2023-05-05T00:00:00	2024-11-08T05:00:00	5	Humedad	67
35041	7	Sololá	710	Panajachel	8	Panajachel	5	Mayo	2023-05-05T00:00:00	2024-11-08T05:00:00	6	Velocidad del viento	0
35042	7	Sololá	710	Panajachel	8	Panajachel	5	Mayo	2023-05-05T00:00:00	2024-11-08T05:00:00	7	Dirección del viento	0
35043	7	Sololá	710	Panajachel	8	Panajachel	5	Mayo	2023-05-05T00:00:00	2024-11-08T05:00:00	1	Precipitación	0
35044	7	Sololá	710	Panajachel	8	Panajachel	5	Mayo	2023-05-05T00:00:00	2024-11-08T05:00:00	8	Radiación solar	0
35045	7	Sololá	710	Panajachel	8	Panajachel	5	Mayo	2023-05-05T00:00:00	2024-11-08T06:00:00	2	Temperatura media	18.9
35046	7	Sololá	710	Panajachel	8	Panajachel	5	Mayo	2023-05-05T00:00:00	2024-11-08T06:00:00	4	Temperatura máxima	19.6
35047	7	Sololá	710	Panajachel	8	Panajachel	5	Mayo	2023-05-05T00:00:00	2024-11-08T06:00:00	3	Temperatura mínima	18.9
35048	7	Sololá	710	Panajachel	8	Panajachel	5	Mayo	2023-05-05T00:00:00	2024-11-08T06:00:00	5	Humedad	66
35049	7	Sololá	710	Panajachel	8	Panajachel	5	Mayo	2023-05-05T00:00:00	2024-11-08T06:00:00	6	Velocidad del viento	0
35050	7	Sololá	710	Panajachel	8	Panajachel	5	Mayo	2023-05-05T00:00:00	2024-11-08T06:00:00	7	Dirección del viento	0
35051	7	Sololá	710	Panajachel	8	Panajachel	5	Mayo	2023-05-05T00:00:00	2024-11-08T06:00:00	1	Precipitación	0
35052	7	Sololá	710	Panajachel	8	Panajachel	5	Mayo	2023-05-05T00:00:00	2024-11-08T06:00:00	8	Radiación solar	3
35053	7	Sololá	710	Panajachel	8	Panajachel	5	Mayo	2023-05-05T00:00:00	2024-11-08T07:00:00	2	Temperatura media	20.8
35054	7	Sololá	710	Panajachel	8	Panajachel	5	Mayo	2023-05-05T00:00:00	2024-11-08T07:00:00	4	Temperatura máxima	20.8
35055	7	Sololá	710	Panajachel	8	Panajachel	5	Mayo	2023-05-05T00:00:00	2024-11-08T07:00:00	3	Temperatura mínima	18.4
35056	7	Sololá	710	Panajachel	8	Panajachel	5	Mayo	2023-05-05T00:00:00	2024-11-08T07:00:00	5	Humedad	62
35057	7	Sololá	710	Panajachel	8	Panajachel	5	Mayo	2023-05-05T00:00:00	2024-11-08T07:00:00	6	Velocidad del viento	0
35058	7	Sololá	710	Panajachel	8	Panajachel	5	Mayo	2023-05-05T00:00:00	2024-11-08T07:00:00	7	Dirección del viento	0
35059	7	Sololá	710	Panajachel	8	Panajachel	5	Mayo	2023-05-05T00:00:00	2024-11-08T07:00:00	1	Precipitación	0
35060	7	Sololá	710	Panajachel	8	Panajachel	5	Mayo	2023-05-05T00:00:00	2024-11-08T07:00:00	8	Radiación solar	109
35061	7	Sololá	710	Panajachel	8	Panajachel	5	Mayo	2023-05-05T00:00:00	2024-11-08T08:00:00	2	Temperatura media	22.3
35062	7	Sololá	710	Panajachel	8	Panajachel	5	Mayo	2023-05-05T00:00:00	2024-11-08T08:00:00	4	Temperatura máxima	22.3
35063	7	Sololá	710	Panajachel	8	Panajachel	5	Mayo	2023-05-05T00:00:00	2024-11-08T08:00:00	3	Temperatura mínima	20.8
35064	7	Sololá	710	Panajachel	8	Panajachel	5	Mayo	2023-05-05T00:00:00	2024-11-08T08:00:00	5	Humedad	66
35065	7	Sololá	710	Panajachel	8	Panajachel	5	Mayo	2023-05-05T00:00:00	2024-11-08T08:00:00	6	Velocidad del viento	0
35066	7	Sololá	710	Panajachel	8	Panajachel	5	Mayo	2023-05-05T00:00:00	2024-11-08T08:00:00	7	Dirección del viento	0
35067	7	Sololá	710	Panajachel	8	Panajachel	5	Mayo	2023-05-05T00:00:00	2024-11-08T08:00:00	1	Precipitación	0
35068	7	Sololá	710	Panajachel	8	Panajachel	5	Mayo	2023-05-05T00:00:00	2024-11-08T08:00:00	8	Radiación solar	326
35069	7	Sololá	710	Panajachel	8	Panajachel	5	Mayo	2023-05-05T00:00:00	2024-11-08T09:00:00	2	Temperatura media	23.3
35070	7	Sololá	710	Panajachel	8	Panajachel	5	Mayo	2023-05-05T00:00:00	2024-11-08T09:00:00	4	Temperatura máxima	23.4
35071	7	Sololá	710	Panajachel	8	Panajachel	5	Mayo	2023-05-05T00:00:00	2024-11-08T09:00:00	3	Temperatura mínima	22.3
35072	7	Sololá	710	Panajachel	8	Panajachel	5	Mayo	2023-05-05T00:00:00	2024-11-08T09:00:00	5	Humedad	63
35073	7	Sololá	710	Panajachel	8	Panajachel	5	Mayo	2023-05-05T00:00:00	2024-11-08T09:00:00	6	Velocidad del viento	0
35074	7	Sololá	710	Panajachel	8	Panajachel	5	Mayo	2023-05-05T00:00:00	2024-11-08T09:00:00	7	Dirección del viento	0
35075	7	Sololá	710	Panajachel	8	Panajachel	5	Mayo	2023-05-05T00:00:00	2024-11-08T09:00:00	1	Precipitación	0
35076	7	Sololá	710	Panajachel	8	Panajachel	5	Mayo	2023-05-05T00:00:00	2024-11-08T09:00:00	8	Radiación solar	558
35077	7	Sololá	710	Panajachel	8	Panajachel	5	Mayo	2023-05-05T00:00:00	2024-11-08T10:00:00	2	Temperatura media	25.3
35078	7	Sololá	710	Panajachel	8	Panajachel	5	Mayo	2023-05-05T00:00:00	2024-11-08T10:00:00	4	Temperatura máxima	25.3
35079	7	Sololá	710	Panajachel	8	Panajachel	5	Mayo	2023-05-05T00:00:00	2024-11-08T10:00:00	3	Temperatura mínima	23.2
35080	7	Sololá	710	Panajachel	8	Panajachel	5	Mayo	2023-05-05T00:00:00	2024-11-08T10:00:00	5	Humedad	54
35081	7	Sololá	710	Panajachel	8	Panajachel	5	Mayo	2023-05-05T00:00:00	2024-11-08T10:00:00	6	Velocidad del viento	0
35082	7	Sololá	710	Panajachel	8	Panajachel	5	Mayo	2023-05-05T00:00:00	2024-11-08T10:00:00	7	Dirección del viento	0
35083	7	Sololá	710	Panajachel	8	Panajachel	5	Mayo	2023-05-05T00:00:00	2024-11-08T10:00:00	1	Precipitación	0
35084	7	Sololá	710	Panajachel	8	Panajachel	5	Mayo	2023-05-05T00:00:00	2024-11-08T10:00:00	8	Radiación solar	752
35085	7	Sololá	710	Panajachel	8	Panajachel	5	Mayo	2023-05-05T00:00:00	2024-11-08T11:00:00	2	Temperatura media	28.2
35086	7	Sololá	710	Panajachel	8	Panajachel	5	Mayo	2023-05-05T00:00:00	2024-11-08T11:00:00	4	Temperatura máxima	28.3
35087	7	Sololá	710	Panajachel	8	Panajachel	5	Mayo	2023-05-05T00:00:00	2024-11-08T11:00:00	3	Temperatura mínima	25.3
35088	7	Sololá	710	Panajachel	8	Panajachel	5	Mayo	2023-05-05T00:00:00	2024-11-08T11:00:00	5	Humedad	46
35089	7	Sololá	710	Panajachel	8	Panajachel	5	Mayo	2023-05-05T00:00:00	2024-11-08T11:00:00	6	Velocidad del viento	3.2
35090	7	Sololá	710	Panajachel	8	Panajachel	5	Mayo	2023-05-05T00:00:00	2024-11-08T11:00:00	7	Dirección del viento	3.22
35091	7	Sololá	710	Panajachel	8	Panajachel	5	Mayo	2023-05-05T00:00:00	2024-11-08T11:00:00	1	Precipitación	0
35092	7	Sololá	710	Panajachel	8	Panajachel	5	Mayo	2023-05-05T00:00:00	2024-11-08T11:00:00	8	Radiación solar	884
35093	7	Sololá	710	Panajachel	8	Panajachel	5	Mayo	2023-05-05T00:00:00	2024-11-08T12:00:00	2	Temperatura media	30.1
35094	7	Sololá	710	Panajachel	8	Panajachel	5	Mayo	2023-05-05T00:00:00	2024-11-08T12:00:00	4	Temperatura máxima	30.1
35095	7	Sololá	710	Panajachel	8	Panajachel	5	Mayo	2023-05-05T00:00:00	2024-11-08T12:00:00	3	Temperatura mínima	28.1
35096	7	Sololá	710	Panajachel	8	Panajachel	5	Mayo	2023-05-05T00:00:00	2024-11-08T12:00:00	5	Humedad	28
35097	7	Sololá	710	Panajachel	8	Panajachel	5	Mayo	2023-05-05T00:00:00	2024-11-08T12:00:00	6	Velocidad del viento	6.4
35098	7	Sololá	710	Panajachel	8	Panajachel	5	Mayo	2023-05-05T00:00:00	2024-11-08T12:00:00	7	Dirección del viento	6.44
35099	7	Sololá	710	Panajachel	8	Panajachel	5	Mayo	2023-05-05T00:00:00	2024-11-08T12:00:00	1	Precipitación	0
35100	7	Sololá	710	Panajachel	8	Panajachel	5	Mayo	2023-05-05T00:00:00	2024-11-08T12:00:00	8	Radiación solar	924
35101	7	Sololá	710	Panajachel	8	Panajachel	5	Mayo	2023-05-05T00:00:00	2024-11-08T13:00:00	2	Temperatura media	30.2
35102	7	Sololá	710	Panajachel	8	Panajachel	5	Mayo	2023-05-05T00:00:00	2024-11-08T13:00:00	4	Temperatura máxima	30.3
35103	7	Sololá	710	Panajachel	8	Panajachel	5	Mayo	2023-05-05T00:00:00	2024-11-08T13:00:00	3	Temperatura mínima	29.7
35104	7	Sololá	710	Panajachel	8	Panajachel	5	Mayo	2023-05-05T00:00:00	2024-11-08T13:00:00	5	Humedad	27
35105	7	Sololá	710	Panajachel	8	Panajachel	5	Mayo	2023-05-05T00:00:00	2024-11-08T13:00:00	6	Velocidad del viento	8
35106	7	Sololá	710	Panajachel	8	Panajachel	5	Mayo	2023-05-05T00:00:00	2024-11-08T13:00:00	7	Dirección del viento	8.05
35107	7	Sololá	710	Panajachel	8	Panajachel	5	Mayo	2023-05-05T00:00:00	2024-11-08T13:00:00	1	Precipitación	0
35108	7	Sololá	710	Panajachel	8	Panajachel	5	Mayo	2023-05-05T00:00:00	2024-11-08T13:00:00	8	Radiación solar	946
35109	7	Sololá	710	Panajachel	8	Panajachel	5	Mayo	2023-05-05T00:00:00	2024-11-08T14:00:00	2	Temperatura media	28.7
35110	7	Sololá	710	Panajachel	8	Panajachel	5	Mayo	2023-05-05T00:00:00	2024-11-08T14:00:00	4	Temperatura máxima	30.7
35111	7	Sololá	710	Panajachel	8	Panajachel	5	Mayo	2023-05-05T00:00:00	2024-11-08T14:00:00	3	Temperatura mínima	28.7
35112	7	Sololá	710	Panajachel	8	Panajachel	5	Mayo	2023-05-05T00:00:00	2024-11-08T14:00:00	5	Humedad	43
35113	7	Sololá	710	Panajachel	8	Panajachel	5	Mayo	2023-05-05T00:00:00	2024-11-08T14:00:00	6	Velocidad del viento	9.7
35114	7	Sololá	710	Panajachel	8	Panajachel	5	Mayo	2023-05-05T00:00:00	2024-11-08T14:00:00	7	Dirección del viento	9.66
35115	7	Sololá	710	Panajachel	8	Panajachel	5	Mayo	2023-05-05T00:00:00	2024-11-08T14:00:00	1	Precipitación	0
35116	7	Sololá	710	Panajachel	8	Panajachel	5	Mayo	2023-05-05T00:00:00	2024-11-08T14:00:00	8	Radiación solar	881
35117	7	Sololá	710	Panajachel	8	Panajachel	5	Mayo	2023-05-05T00:00:00	2024-11-08T15:00:00	2	Temperatura media	25.4
35118	7	Sololá	710	Panajachel	8	Panajachel	5	Mayo	2023-05-05T00:00:00	2024-11-08T15:00:00	4	Temperatura máxima	28.7
35119	7	Sololá	710	Panajachel	8	Panajachel	5	Mayo	2023-05-05T00:00:00	2024-11-08T15:00:00	3	Temperatura mínima	25.3
35120	7	Sololá	710	Panajachel	8	Panajachel	5	Mayo	2023-05-05T00:00:00	2024-11-08T15:00:00	5	Humedad	69
35121	7	Sololá	710	Panajachel	8	Panajachel	5	Mayo	2023-05-05T00:00:00	2024-11-08T15:00:00	6	Velocidad del viento	6.4
35122	7	Sololá	710	Panajachel	8	Panajachel	5	Mayo	2023-05-05T00:00:00	2024-11-08T15:00:00	7	Dirección del viento	6.44
35123	7	Sololá	710	Panajachel	8	Panajachel	5	Mayo	2023-05-05T00:00:00	2024-11-08T15:00:00	1	Precipitación	0
35124	7	Sololá	710	Panajachel	8	Panajachel	5	Mayo	2023-05-05T00:00:00	2024-11-08T15:00:00	8	Radiación solar	732
35125	7	Sololá	710	Panajachel	8	Panajachel	5	Mayo	2023-05-05T00:00:00	2024-11-08T16:00:00	2	Temperatura media	24.8
35126	7	Sololá	710	Panajachel	8	Panajachel	5	Mayo	2023-05-05T00:00:00	2024-11-08T16:00:00	4	Temperatura máxima	26.4
35127	7	Sololá	710	Panajachel	8	Panajachel	5	Mayo	2023-05-05T00:00:00	2024-11-08T16:00:00	3	Temperatura mínima	24.8
35128	7	Sololá	710	Panajachel	8	Panajachel	5	Mayo	2023-05-05T00:00:00	2024-11-08T16:00:00	5	Humedad	77
35129	7	Sololá	710	Panajachel	8	Panajachel	5	Mayo	2023-05-05T00:00:00	2024-11-08T16:00:00	6	Velocidad del viento	4.8
35130	7	Sololá	710	Panajachel	8	Panajachel	5	Mayo	2023-05-05T00:00:00	2024-11-08T16:00:00	7	Dirección del viento	4.83
35131	7	Sololá	710	Panajachel	8	Panajachel	5	Mayo	2023-05-05T00:00:00	2024-11-08T16:00:00	1	Precipitación	0
35132	7	Sololá	710	Panajachel	8	Panajachel	5	Mayo	2023-05-05T00:00:00	2024-11-08T16:00:00	8	Radiación solar	253
35133	7	Sololá	710	Panajachel	8	Panajachel	5	Mayo	2023-05-05T00:00:00	2024-11-08T17:00:00	2	Temperatura media	23.9
35134	7	Sololá	710	Panajachel	8	Panajachel	5	Mayo	2023-05-05T00:00:00	2024-11-08T17:00:00	4	Temperatura máxima	24.8
35135	7	Sololá	710	Panajachel	8	Panajachel	5	Mayo	2023-05-05T00:00:00	2024-11-08T17:00:00	3	Temperatura mínima	23.9
35136	7	Sololá	710	Panajachel	8	Panajachel	5	Mayo	2023-05-05T00:00:00	2024-11-08T17:00:00	5	Humedad	81
35137	7	Sololá	710	Panajachel	8	Panajachel	5	Mayo	2023-05-05T00:00:00	2024-11-08T17:00:00	6	Velocidad del viento	6.4
35138	7	Sololá	710	Panajachel	8	Panajachel	5	Mayo	2023-05-05T00:00:00	2024-11-08T17:00:00	7	Dirección del viento	6.44
35139	7	Sololá	710	Panajachel	8	Panajachel	5	Mayo	2023-05-05T00:00:00	2024-11-08T17:00:00	1	Precipitación	0
35140	7	Sololá	710	Panajachel	8	Panajachel	5	Mayo	2023-05-05T00:00:00	2024-11-08T17:00:00	8	Radiación solar	118
35141	7	Sololá	710	Panajachel	8	Panajachel	5	Mayo	2023-05-05T00:00:00	2024-11-08T18:00:00	2	Temperatura media	22.8
35142	7	Sololá	710	Panajachel	8	Panajachel	5	Mayo	2023-05-05T00:00:00	2024-11-08T18:00:00	4	Temperatura máxima	24.2
35143	7	Sololá	710	Panajachel	8	Panajachel	5	Mayo	2023-05-05T00:00:00	2024-11-08T18:00:00	3	Temperatura mínima	22.8
35144	7	Sololá	710	Panajachel	8	Panajachel	5	Mayo	2023-05-05T00:00:00	2024-11-08T18:00:00	5	Humedad	85
35145	7	Sololá	710	Panajachel	8	Panajachel	5	Mayo	2023-05-05T00:00:00	2024-11-08T18:00:00	6	Velocidad del viento	0
35146	7	Sololá	710	Panajachel	8	Panajachel	5	Mayo	2023-05-05T00:00:00	2024-11-08T18:00:00	7	Dirección del viento	0
35147	7	Sololá	710	Panajachel	8	Panajachel	5	Mayo	2023-05-05T00:00:00	2024-11-08T18:00:00	1	Precipitación	0
35148	7	Sololá	710	Panajachel	8	Panajachel	5	Mayo	2023-05-05T00:00:00	2024-11-08T18:00:00	8	Radiación solar	56
35149	7	Sololá	710	Panajachel	8	Panajachel	5	Mayo	2023-05-05T00:00:00	2024-11-08T19:00:00	2	Temperatura media	21.8
35150	7	Sololá	710	Panajachel	8	Panajachel	5	Mayo	2023-05-05T00:00:00	2024-11-08T19:00:00	4	Temperatura máxima	22.8
35151	7	Sololá	710	Panajachel	8	Panajachel	5	Mayo	2023-05-05T00:00:00	2024-11-08T19:00:00	3	Temperatura mínima	21.8
35152	7	Sololá	710	Panajachel	8	Panajachel	5	Mayo	2023-05-05T00:00:00	2024-11-08T19:00:00	5	Humedad	88
35153	7	Sololá	710	Panajachel	8	Panajachel	5	Mayo	2023-05-05T00:00:00	2024-11-08T19:00:00	6	Velocidad del viento	0
35154	7	Sololá	710	Panajachel	8	Panajachel	5	Mayo	2023-05-05T00:00:00	2024-11-08T19:00:00	7	Dirección del viento	0
35155	7	Sololá	710	Panajachel	8	Panajachel	5	Mayo	2023-05-05T00:00:00	2024-11-08T19:00:00	1	Precipitación	0
35156	7	Sololá	710	Panajachel	8	Panajachel	5	Mayo	2023-05-05T00:00:00	2024-11-08T19:00:00	8	Radiación solar	0
35157	7	Sololá	710	Panajachel	8	Panajachel	5	Mayo	2023-05-05T00:00:00	2024-11-08T20:00:00	2	Temperatura media	21.4
35158	7	Sololá	710	Panajachel	8	Panajachel	5	Mayo	2023-05-05T00:00:00	2024-11-08T20:00:00	4	Temperatura máxima	21.8
35159	7	Sololá	710	Panajachel	8	Panajachel	5	Mayo	2023-05-05T00:00:00	2024-11-08T20:00:00	3	Temperatura mínima	21.4
35160	7	Sololá	710	Panajachel	8	Panajachel	5	Mayo	2023-05-05T00:00:00	2024-11-08T20:00:00	5	Humedad	89
35161	7	Sololá	710	Panajachel	8	Panajachel	5	Mayo	2023-05-05T00:00:00	2024-11-08T20:00:00	6	Velocidad del viento	0
35162	7	Sololá	710	Panajachel	8	Panajachel	5	Mayo	2023-05-05T00:00:00	2024-11-08T20:00:00	7	Dirección del viento	0
35163	7	Sololá	710	Panajachel	8	Panajachel	5	Mayo	2023-05-05T00:00:00	2024-11-08T20:00:00	1	Precipitación	0
35164	7	Sololá	710	Panajachel	8	Panajachel	5	Mayo	2023-05-05T00:00:00	2024-11-08T20:00:00	8	Radiación solar	0
35165	7	Sololá	710	Panajachel	8	Panajachel	5	Mayo	2023-05-05T00:00:00	2024-11-08T21:00:00	2	Temperatura media	20.4
35166	7	Sololá	710	Panajachel	8	Panajachel	5	Mayo	2023-05-05T00:00:00	2024-11-08T21:00:00	4	Temperatura máxima	21.5
35167	7	Sololá	710	Panajachel	8	Panajachel	5	Mayo	2023-05-05T00:00:00	2024-11-08T21:00:00	3	Temperatura mínima	20.4
35168	7	Sololá	710	Panajachel	8	Panajachel	5	Mayo	2023-05-05T00:00:00	2024-11-08T21:00:00	5	Humedad	84
35169	7	Sololá	710	Panajachel	8	Panajachel	5	Mayo	2023-05-05T00:00:00	2024-11-08T21:00:00	6	Velocidad del viento	0
35170	7	Sololá	710	Panajachel	8	Panajachel	5	Mayo	2023-05-05T00:00:00	2024-11-08T21:00:00	7	Dirección del viento	0
35171	7	Sololá	710	Panajachel	8	Panajachel	5	Mayo	2023-05-05T00:00:00	2024-11-08T21:00:00	1	Precipitación	0
35172	7	Sololá	710	Panajachel	8	Panajachel	5	Mayo	2023-05-05T00:00:00	2024-11-08T21:00:00	8	Radiación solar	0
35173	7	Sololá	710	Panajachel	8	Panajachel	5	Mayo	2023-05-05T00:00:00	2024-11-08T22:00:00	2	Temperatura media	21.9
35174	7	Sololá	710	Panajachel	8	Panajachel	5	Mayo	2023-05-05T00:00:00	2024-11-08T22:00:00	4	Temperatura máxima	21.9
35175	7	Sololá	710	Panajachel	8	Panajachel	5	Mayo	2023-05-05T00:00:00	2024-11-08T22:00:00	3	Temperatura mínima	20.1
35176	7	Sololá	710	Panajachel	8	Panajachel	5	Mayo	2023-05-05T00:00:00	2024-11-08T22:00:00	5	Humedad	71
35177	7	Sololá	710	Panajachel	8	Panajachel	5	Mayo	2023-05-05T00:00:00	2024-11-08T22:00:00	6	Velocidad del viento	1.6
35178	7	Sololá	710	Panajachel	8	Panajachel	5	Mayo	2023-05-05T00:00:00	2024-11-08T22:00:00	7	Dirección del viento	1.61
35179	7	Sololá	710	Panajachel	8	Panajachel	5	Mayo	2023-05-05T00:00:00	2024-11-08T22:00:00	1	Precipitación	0
35180	7	Sololá	710	Panajachel	8	Panajachel	5	Mayo	2023-05-05T00:00:00	2024-11-08T22:00:00	8	Radiación solar	0
35181	7	Sololá	710	Panajachel	8	Panajachel	5	Mayo	2023-05-05T00:00:00	2024-11-08T23:00:00	2	Temperatura media	21.8
35182	7	Sololá	710	Panajachel	8	Panajachel	5	Mayo	2023-05-05T00:00:00	2024-11-08T23:00:00	4	Temperatura máxima	22.2
35183	7	Sololá	710	Panajachel	8	Panajachel	5	Mayo	2023-05-05T00:00:00	2024-11-08T23:00:00	3	Temperatura mínima	21.8
35184	7	Sololá	710	Panajachel	8	Panajachel	5	Mayo	2023-05-05T00:00:00	2024-11-08T23:00:00	5	Humedad	70
35185	7	Sololá	710	Panajachel	8	Panajachel	5	Mayo	2023-05-05T00:00:00	2024-11-08T23:00:00	6	Velocidad del viento	8
35186	7	Sololá	710	Panajachel	8	Panajachel	5	Mayo	2023-05-05T00:00:00	2024-11-08T23:00:00	7	Dirección del viento	8.05
35187	7	Sololá	710	Panajachel	8	Panajachel	5	Mayo	2023-05-05T00:00:00	2024-11-08T23:00:00	1	Precipitación	0
35188	7	Sololá	710	Panajachel	8	Panajachel	5	Mayo	2023-05-05T00:00:00	2024-11-08T23:00:00	8	Radiación solar	0
35189	7	Sololá	710	Panajachel	8	Panajachel	5	Mayo	2023-06-05T00:00:00	2024-11-08T00:00:00	2	Temperatura media	21.6
35190	7	Sololá	710	Panajachel	8	Panajachel	5	Mayo	2023-06-05T00:00:00	2024-11-08T00:00:00	4	Temperatura máxima	21.8
35191	7	Sololá	710	Panajachel	8	Panajachel	5	Mayo	2023-06-05T00:00:00	2024-11-08T00:00:00	3	Temperatura mínima	21.5
35192	7	Sololá	710	Panajachel	8	Panajachel	5	Mayo	2023-06-05T00:00:00	2024-11-08T00:00:00	5	Humedad	69
35193	7	Sololá	710	Panajachel	8	Panajachel	5	Mayo	2023-06-05T00:00:00	2024-11-08T00:00:00	6	Velocidad del viento	3.2
35194	7	Sololá	710	Panajachel	8	Panajachel	5	Mayo	2023-06-05T00:00:00	2024-11-08T00:00:00	7	Dirección del viento	3.22
35195	7	Sololá	710	Panajachel	8	Panajachel	5	Mayo	2023-06-05T00:00:00	2024-11-08T00:00:00	1	Precipitación	0
35196	7	Sololá	710	Panajachel	8	Panajachel	5	Mayo	2023-06-05T00:00:00	2024-11-08T00:00:00	8	Radiación solar	0
35197	7	Sololá	710	Panajachel	8	Panajachel	5	Mayo	2023-06-05T00:00:00	2024-11-08T01:00:00	2	Temperatura media	19.3
35198	7	Sololá	710	Panajachel	8	Panajachel	5	Mayo	2023-06-05T00:00:00	2024-11-08T01:00:00	4	Temperatura máxima	21.7
35199	7	Sololá	710	Panajachel	8	Panajachel	5	Mayo	2023-06-05T00:00:00	2024-11-08T01:00:00	3	Temperatura mínima	19.3
35200	7	Sololá	710	Panajachel	8	Panajachel	5	Mayo	2023-06-05T00:00:00	2024-11-08T01:00:00	5	Humedad	75
35201	7	Sololá	710	Panajachel	8	Panajachel	5	Mayo	2023-06-05T00:00:00	2024-11-08T01:00:00	6	Velocidad del viento	0
35202	7	Sololá	710	Panajachel	8	Panajachel	5	Mayo	2023-06-05T00:00:00	2024-11-08T01:00:00	7	Dirección del viento	0
35203	7	Sololá	710	Panajachel	8	Panajachel	5	Mayo	2023-06-05T00:00:00	2024-11-08T01:00:00	1	Precipitación	0
35204	7	Sololá	710	Panajachel	8	Panajachel	5	Mayo	2023-06-05T00:00:00	2024-11-08T01:00:00	8	Radiación solar	0
35205	7	Sololá	710	Panajachel	8	Panajachel	5	Mayo	2023-06-05T00:00:00	2024-11-08T02:00:00	2	Temperatura media	19.9
35206	7	Sololá	710	Panajachel	8	Panajachel	5	Mayo	2023-06-05T00:00:00	2024-11-08T02:00:00	4	Temperatura máxima	20.1
35207	7	Sololá	710	Panajachel	8	Panajachel	5	Mayo	2023-06-05T00:00:00	2024-11-08T02:00:00	3	Temperatura mínima	19.3
35208	7	Sololá	710	Panajachel	8	Panajachel	5	Mayo	2023-06-05T00:00:00	2024-11-08T02:00:00	5	Humedad	72
35209	7	Sololá	710	Panajachel	8	Panajachel	5	Mayo	2023-06-05T00:00:00	2024-11-08T02:00:00	6	Velocidad del viento	0
35210	7	Sololá	710	Panajachel	8	Panajachel	5	Mayo	2023-06-05T00:00:00	2024-11-08T02:00:00	7	Dirección del viento	0
35211	7	Sololá	710	Panajachel	8	Panajachel	5	Mayo	2023-06-05T00:00:00	2024-11-08T02:00:00	1	Precipitación	0
35212	7	Sololá	710	Panajachel	8	Panajachel	5	Mayo	2023-06-05T00:00:00	2024-11-08T02:00:00	8	Radiación solar	0
35213	7	Sololá	710	Panajachel	8	Panajachel	5	Mayo	2023-06-05T00:00:00	2024-11-08T03:00:00	2	Temperatura media	18.2
35214	7	Sololá	710	Panajachel	8	Panajachel	5	Mayo	2023-06-05T00:00:00	2024-11-08T03:00:00	4	Temperatura máxima	19.9
35215	7	Sololá	710	Panajachel	8	Panajachel	5	Mayo	2023-06-05T00:00:00	2024-11-08T03:00:00	3	Temperatura mínima	18.2
35216	7	Sololá	710	Panajachel	8	Panajachel	5	Mayo	2023-06-05T00:00:00	2024-11-08T03:00:00	5	Humedad	79
35217	7	Sololá	710	Panajachel	8	Panajachel	5	Mayo	2023-06-05T00:00:00	2024-11-08T03:00:00	6	Velocidad del viento	0
35218	7	Sololá	710	Panajachel	8	Panajachel	5	Mayo	2023-06-05T00:00:00	2024-11-08T03:00:00	7	Dirección del viento	0
35219	7	Sololá	710	Panajachel	8	Panajachel	5	Mayo	2023-06-05T00:00:00	2024-11-08T03:00:00	1	Precipitación	0
35220	7	Sololá	710	Panajachel	8	Panajachel	5	Mayo	2023-06-05T00:00:00	2024-11-08T03:00:00	8	Radiación solar	0
35221	7	Sololá	710	Panajachel	8	Panajachel	5	Mayo	2023-06-05T00:00:00	2024-11-08T04:00:00	2	Temperatura media	17.3
35222	7	Sololá	710	Panajachel	8	Panajachel	5	Mayo	2023-06-05T00:00:00	2024-11-08T04:00:00	4	Temperatura máxima	18.2
35223	7	Sololá	710	Panajachel	8	Panajachel	5	Mayo	2023-06-05T00:00:00	2024-11-08T04:00:00	3	Temperatura mínima	17.3
35224	7	Sololá	710	Panajachel	8	Panajachel	5	Mayo	2023-06-05T00:00:00	2024-11-08T04:00:00	5	Humedad	77
35225	7	Sololá	710	Panajachel	8	Panajachel	5	Mayo	2023-06-05T00:00:00	2024-11-08T04:00:00	6	Velocidad del viento	0
35226	7	Sololá	710	Panajachel	8	Panajachel	5	Mayo	2023-06-05T00:00:00	2024-11-08T04:00:00	7	Dirección del viento	0
35227	7	Sololá	710	Panajachel	8	Panajachel	5	Mayo	2023-06-05T00:00:00	2024-11-08T04:00:00	1	Precipitación	0
35228	7	Sololá	710	Panajachel	8	Panajachel	5	Mayo	2023-06-05T00:00:00	2024-11-08T04:00:00	8	Radiación solar	0
35229	7	Sololá	710	Panajachel	8	Panajachel	5	Mayo	2023-06-05T00:00:00	2024-11-08T05:00:00	2	Temperatura media	16.9
35230	7	Sololá	710	Panajachel	8	Panajachel	5	Mayo	2023-06-05T00:00:00	2024-11-08T05:00:00	4	Temperatura máxima	17.4
35231	7	Sololá	710	Panajachel	8	Panajachel	5	Mayo	2023-06-05T00:00:00	2024-11-08T05:00:00	3	Temperatura mínima	16.8
35232	7	Sololá	710	Panajachel	8	Panajachel	5	Mayo	2023-06-05T00:00:00	2024-11-08T05:00:00	5	Humedad	76
35233	7	Sololá	710	Panajachel	8	Panajachel	5	Mayo	2023-06-05T00:00:00	2024-11-08T05:00:00	6	Velocidad del viento	0
35234	7	Sololá	710	Panajachel	8	Panajachel	5	Mayo	2023-06-05T00:00:00	2024-11-08T05:00:00	7	Dirección del viento	0
35235	7	Sololá	710	Panajachel	8	Panajachel	5	Mayo	2023-06-05T00:00:00	2024-11-08T05:00:00	1	Precipitación	0
35236	7	Sololá	710	Panajachel	8	Panajachel	5	Mayo	2023-06-05T00:00:00	2024-11-08T05:00:00	8	Radiación solar	0
35237	7	Sololá	710	Panajachel	8	Panajachel	5	Mayo	2023-06-05T00:00:00	2024-11-08T06:00:00	2	Temperatura media	16.7
35238	7	Sololá	710	Panajachel	8	Panajachel	5	Mayo	2023-06-05T00:00:00	2024-11-08T06:00:00	4	Temperatura máxima	17.1
35239	7	Sololá	710	Panajachel	8	Panajachel	5	Mayo	2023-06-05T00:00:00	2024-11-08T06:00:00	3	Temperatura mínima	16.7
35240	7	Sololá	710	Panajachel	8	Panajachel	5	Mayo	2023-06-05T00:00:00	2024-11-08T06:00:00	5	Humedad	75
35241	7	Sololá	710	Panajachel	8	Panajachel	5	Mayo	2023-06-05T00:00:00	2024-11-08T06:00:00	6	Velocidad del viento	1.6
35242	7	Sololá	710	Panajachel	8	Panajachel	5	Mayo	2023-06-05T00:00:00	2024-11-08T06:00:00	7	Dirección del viento	1.61
35243	7	Sololá	710	Panajachel	8	Panajachel	5	Mayo	2023-06-05T00:00:00	2024-11-08T06:00:00	1	Precipitación	0
35244	7	Sololá	710	Panajachel	8	Panajachel	5	Mayo	2023-06-05T00:00:00	2024-11-08T06:00:00	8	Radiación solar	2
35245	7	Sololá	710	Panajachel	8	Panajachel	5	Mayo	2023-06-05T00:00:00	2024-11-08T07:00:00	2	Temperatura media	18.6
35246	7	Sololá	710	Panajachel	8	Panajachel	5	Mayo	2023-06-05T00:00:00	2024-11-08T07:00:00	4	Temperatura máxima	18.6
35247	7	Sololá	710	Panajachel	8	Panajachel	5	Mayo	2023-06-05T00:00:00	2024-11-08T07:00:00	3	Temperatura mínima	16.7
35248	7	Sololá	710	Panajachel	8	Panajachel	5	Mayo	2023-06-05T00:00:00	2024-11-08T07:00:00	5	Humedad	66
35249	7	Sololá	710	Panajachel	8	Panajachel	5	Mayo	2023-06-05T00:00:00	2024-11-08T07:00:00	6	Velocidad del viento	0
35250	7	Sololá	710	Panajachel	8	Panajachel	5	Mayo	2023-06-05T00:00:00	2024-11-08T07:00:00	7	Dirección del viento	0
35251	7	Sololá	710	Panajachel	8	Panajachel	5	Mayo	2023-06-05T00:00:00	2024-11-08T07:00:00	1	Precipitación	0
35252	7	Sololá	710	Panajachel	8	Panajachel	5	Mayo	2023-06-05T00:00:00	2024-11-08T07:00:00	8	Radiación solar	99
35253	7	Sololá	710	Panajachel	8	Panajachel	5	Mayo	2023-06-05T00:00:00	2024-11-08T08:00:00	2	Temperatura media	20.4
35254	7	Sololá	710	Panajachel	8	Panajachel	5	Mayo	2023-06-05T00:00:00	2024-11-08T08:00:00	4	Temperatura máxima	20.4
35255	7	Sololá	710	Panajachel	8	Panajachel	5	Mayo	2023-06-05T00:00:00	2024-11-08T08:00:00	3	Temperatura mínima	18.6
35256	7	Sololá	710	Panajachel	8	Panajachel	5	Mayo	2023-06-05T00:00:00	2024-11-08T08:00:00	5	Humedad	73
35257	7	Sololá	710	Panajachel	8	Panajachel	5	Mayo	2023-06-05T00:00:00	2024-11-08T08:00:00	6	Velocidad del viento	1.6
35258	7	Sololá	710	Panajachel	8	Panajachel	5	Mayo	2023-06-05T00:00:00	2024-11-08T08:00:00	7	Dirección del viento	1.61
35259	7	Sololá	710	Panajachel	8	Panajachel	5	Mayo	2023-06-05T00:00:00	2024-11-08T08:00:00	1	Precipitación	0
35260	7	Sololá	710	Panajachel	8	Panajachel	5	Mayo	2023-06-05T00:00:00	2024-11-08T08:00:00	8	Radiación solar	329
35261	7	Sololá	710	Panajachel	8	Panajachel	5	Mayo	2023-06-05T00:00:00	2024-11-08T09:00:00	2	Temperatura media	22
35262	7	Sololá	710	Panajachel	8	Panajachel	5	Mayo	2023-06-05T00:00:00	2024-11-08T09:00:00	4	Temperatura máxima	22.1
35263	7	Sololá	710	Panajachel	8	Panajachel	5	Mayo	2023-06-05T00:00:00	2024-11-08T09:00:00	3	Temperatura mínima	20.4
35264	7	Sololá	710	Panajachel	8	Panajachel	5	Mayo	2023-06-05T00:00:00	2024-11-08T09:00:00	5	Humedad	64
35265	7	Sololá	710	Panajachel	8	Panajachel	5	Mayo	2023-06-05T00:00:00	2024-11-08T09:00:00	6	Velocidad del viento	0
35266	7	Sololá	710	Panajachel	8	Panajachel	5	Mayo	2023-06-05T00:00:00	2024-11-08T09:00:00	7	Dirección del viento	0
35267	7	Sololá	710	Panajachel	8	Panajachel	5	Mayo	2023-06-05T00:00:00	2024-11-08T09:00:00	1	Precipitación	0
35268	7	Sololá	710	Panajachel	8	Panajachel	5	Mayo	2023-06-05T00:00:00	2024-11-08T09:00:00	8	Radiación solar	542
35269	7	Sololá	710	Panajachel	8	Panajachel	5	Mayo	2023-06-05T00:00:00	2024-11-08T10:00:00	2	Temperatura media	22.9
35270	7	Sololá	710	Panajachel	8	Panajachel	5	Mayo	2023-06-05T00:00:00	2024-11-08T10:00:00	4	Temperatura máxima	23
35271	7	Sololá	710	Panajachel	8	Panajachel	5	Mayo	2023-06-05T00:00:00	2024-11-08T10:00:00	3	Temperatura mínima	21.8
35272	7	Sololá	710	Panajachel	8	Panajachel	5	Mayo	2023-06-05T00:00:00	2024-11-08T10:00:00	5	Humedad	63
35273	7	Sololá	710	Panajachel	8	Panajachel	5	Mayo	2023-06-05T00:00:00	2024-11-08T10:00:00	6	Velocidad del viento	0
35274	7	Sololá	710	Panajachel	8	Panajachel	5	Mayo	2023-06-05T00:00:00	2024-11-08T10:00:00	7	Dirección del viento	0
35275	7	Sololá	710	Panajachel	8	Panajachel	5	Mayo	2023-06-05T00:00:00	2024-11-08T10:00:00	1	Precipitación	0
35276	7	Sololá	710	Panajachel	8	Panajachel	5	Mayo	2023-06-05T00:00:00	2024-11-08T10:00:00	8	Radiación solar	726
35277	7	Sololá	710	Panajachel	8	Panajachel	5	Mayo	2023-06-05T00:00:00	2024-11-08T11:00:00	2	Temperatura media	24.7
35278	7	Sololá	710	Panajachel	8	Panajachel	5	Mayo	2023-06-05T00:00:00	2024-11-08T11:00:00	4	Temperatura máxima	24.7
35279	7	Sololá	710	Panajachel	8	Panajachel	5	Mayo	2023-06-05T00:00:00	2024-11-08T11:00:00	3	Temperatura mínima	23
35280	7	Sololá	710	Panajachel	8	Panajachel	5	Mayo	2023-06-05T00:00:00	2024-11-08T11:00:00	5	Humedad	60
35281	7	Sololá	710	Panajachel	8	Panajachel	5	Mayo	2023-06-05T00:00:00	2024-11-08T11:00:00	6	Velocidad del viento	0
35282	7	Sololá	710	Panajachel	8	Panajachel	5	Mayo	2023-06-05T00:00:00	2024-11-08T11:00:00	7	Dirección del viento	0
35283	7	Sololá	710	Panajachel	8	Panajachel	5	Mayo	2023-06-05T00:00:00	2024-11-08T11:00:00	1	Precipitación	0
35284	7	Sololá	710	Panajachel	8	Panajachel	5	Mayo	2023-06-05T00:00:00	2024-11-08T11:00:00	8	Radiación solar	863
35285	7	Sololá	710	Panajachel	8	Panajachel	5	Mayo	2023-06-05T00:00:00	2024-11-08T12:00:00	2	Temperatura media	25.2
35286	7	Sololá	710	Panajachel	8	Panajachel	5	Mayo	2023-06-05T00:00:00	2024-11-08T12:00:00	4	Temperatura máxima	25.6
35287	7	Sololá	710	Panajachel	8	Panajachel	5	Mayo	2023-06-05T00:00:00	2024-11-08T12:00:00	3	Temperatura mínima	24.7
35288	7	Sololá	710	Panajachel	8	Panajachel	5	Mayo	2023-06-05T00:00:00	2024-11-08T12:00:00	5	Humedad	60
35289	7	Sololá	710	Panajachel	8	Panajachel	5	Mayo	2023-06-05T00:00:00	2024-11-08T12:00:00	6	Velocidad del viento	4.8
35290	7	Sololá	710	Panajachel	8	Panajachel	5	Mayo	2023-06-05T00:00:00	2024-11-08T12:00:00	7	Dirección del viento	4.83
35291	7	Sololá	710	Panajachel	8	Panajachel	5	Mayo	2023-06-05T00:00:00	2024-11-08T12:00:00	1	Precipitación	0
35292	7	Sololá	710	Panajachel	8	Panajachel	5	Mayo	2023-06-05T00:00:00	2024-11-08T12:00:00	8	Radiación solar	917
35293	7	Sololá	710	Panajachel	8	Panajachel	5	Mayo	2023-06-05T00:00:00	2024-11-08T13:00:00	2	Temperatura media	25.1
35294	7	Sololá	710	Panajachel	8	Panajachel	5	Mayo	2023-06-05T00:00:00	2024-11-08T13:00:00	4	Temperatura máxima	25.9
35295	7	Sololá	710	Panajachel	8	Panajachel	5	Mayo	2023-06-05T00:00:00	2024-11-08T13:00:00	3	Temperatura mínima	25.1
35296	7	Sololá	710	Panajachel	8	Panajachel	5	Mayo	2023-06-05T00:00:00	2024-11-08T13:00:00	5	Humedad	69
35297	7	Sololá	710	Panajachel	8	Panajachel	5	Mayo	2023-06-05T00:00:00	2024-11-08T13:00:00	6	Velocidad del viento	8
35298	7	Sololá	710	Panajachel	8	Panajachel	5	Mayo	2023-06-05T00:00:00	2024-11-08T13:00:00	7	Dirección del viento	8.05
35299	7	Sololá	710	Panajachel	8	Panajachel	5	Mayo	2023-06-05T00:00:00	2024-11-08T13:00:00	1	Precipitación	0
35300	7	Sololá	710	Panajachel	8	Panajachel	5	Mayo	2023-06-05T00:00:00	2024-11-08T13:00:00	8	Radiación solar	901
35301	7	Sololá	710	Panajachel	8	Panajachel	5	Mayo	2023-06-05T00:00:00	2024-11-08T14:00:00	2	Temperatura media	26.6
35302	7	Sololá	710	Panajachel	8	Panajachel	5	Mayo	2023-06-05T00:00:00	2024-11-08T14:00:00	4	Temperatura máxima	26.6
35303	7	Sololá	710	Panajachel	8	Panajachel	5	Mayo	2023-06-05T00:00:00	2024-11-08T14:00:00	3	Temperatura mínima	24.9
35304	7	Sololá	710	Panajachel	8	Panajachel	5	Mayo	2023-06-05T00:00:00	2024-11-08T14:00:00	5	Humedad	69
35305	7	Sololá	710	Panajachel	8	Panajachel	5	Mayo	2023-06-05T00:00:00	2024-11-08T14:00:00	6	Velocidad del viento	8
35306	7	Sololá	710	Panajachel	8	Panajachel	5	Mayo	2023-06-05T00:00:00	2024-11-08T14:00:00	7	Dirección del viento	8.05
35307	7	Sololá	710	Panajachel	8	Panajachel	5	Mayo	2023-06-05T00:00:00	2024-11-08T14:00:00	1	Precipitación	0
35308	7	Sololá	710	Panajachel	8	Panajachel	5	Mayo	2023-06-05T00:00:00	2024-11-08T14:00:00	8	Radiación solar	816
35309	7	Sololá	710	Panajachel	8	Panajachel	5	Mayo	2023-06-05T00:00:00	2024-11-08T15:00:00	2	Temperatura media	25.1
35310	7	Sololá	710	Panajachel	8	Panajachel	5	Mayo	2023-06-05T00:00:00	2024-11-08T15:00:00	4	Temperatura máxima	26.6
35311	7	Sololá	710	Panajachel	8	Panajachel	5	Mayo	2023-06-05T00:00:00	2024-11-08T15:00:00	3	Temperatura mínima	24.8
35312	7	Sololá	710	Panajachel	8	Panajachel	5	Mayo	2023-06-05T00:00:00	2024-11-08T15:00:00	5	Humedad	71
35313	7	Sololá	710	Panajachel	8	Panajachel	5	Mayo	2023-06-05T00:00:00	2024-11-08T15:00:00	6	Velocidad del viento	4.8
35314	7	Sololá	710	Panajachel	8	Panajachel	5	Mayo	2023-06-05T00:00:00	2024-11-08T15:00:00	7	Dirección del viento	4.83
35315	7	Sololá	710	Panajachel	8	Panajachel	5	Mayo	2023-06-05T00:00:00	2024-11-08T15:00:00	1	Precipitación	0
35316	7	Sololá	710	Panajachel	8	Panajachel	5	Mayo	2023-06-05T00:00:00	2024-11-08T15:00:00	8	Radiación solar	664
35317	7	Sololá	710	Panajachel	8	Panajachel	5	Mayo	2023-06-05T00:00:00	2024-11-08T16:00:00	2	Temperatura media	24.6
35318	7	Sololá	710	Panajachel	8	Panajachel	5	Mayo	2023-06-05T00:00:00	2024-11-08T16:00:00	4	Temperatura máxima	25.1
35319	7	Sololá	710	Panajachel	8	Panajachel	5	Mayo	2023-06-05T00:00:00	2024-11-08T16:00:00	3	Temperatura mínima	24.4
35320	7	Sololá	710	Panajachel	8	Panajachel	5	Mayo	2023-06-05T00:00:00	2024-11-08T16:00:00	5	Humedad	74
35321	7	Sololá	710	Panajachel	8	Panajachel	5	Mayo	2023-06-05T00:00:00	2024-11-08T16:00:00	6	Velocidad del viento	3.2
35322	7	Sololá	710	Panajachel	8	Panajachel	5	Mayo	2023-06-05T00:00:00	2024-11-08T16:00:00	7	Dirección del viento	3.22
35323	7	Sololá	710	Panajachel	8	Panajachel	5	Mayo	2023-06-05T00:00:00	2024-11-08T16:00:00	1	Precipitación	0
35324	7	Sololá	710	Panajachel	8	Panajachel	5	Mayo	2023-06-05T00:00:00	2024-11-08T16:00:00	8	Radiación solar	272
35325	7	Sololá	710	Panajachel	8	Panajachel	5	Mayo	2023-06-05T00:00:00	2024-11-08T17:00:00	2	Temperatura media	24.3
35326	7	Sololá	710	Panajachel	8	Panajachel	5	Mayo	2023-06-05T00:00:00	2024-11-08T17:00:00	4	Temperatura máxima	24.8
35327	7	Sololá	710	Panajachel	8	Panajachel	5	Mayo	2023-06-05T00:00:00	2024-11-08T17:00:00	3	Temperatura mínima	24.3
35328	7	Sololá	710	Panajachel	8	Panajachel	5	Mayo	2023-06-05T00:00:00	2024-11-08T17:00:00	5	Humedad	76
35329	7	Sololá	710	Panajachel	8	Panajachel	5	Mayo	2023-06-05T00:00:00	2024-11-08T17:00:00	6	Velocidad del viento	0
35330	7	Sololá	710	Panajachel	8	Panajachel	5	Mayo	2023-06-05T00:00:00	2024-11-08T17:00:00	7	Dirección del viento	0
35331	7	Sololá	710	Panajachel	8	Panajachel	5	Mayo	2023-06-05T00:00:00	2024-11-08T17:00:00	1	Precipitación	0
35332	7	Sololá	710	Panajachel	8	Panajachel	5	Mayo	2023-06-05T00:00:00	2024-11-08T17:00:00	8	Radiación solar	109
35333	7	Sololá	710	Panajachel	8	Panajachel	5	Mayo	2023-06-05T00:00:00	2024-11-08T18:00:00	2	Temperatura media	23.4
35334	7	Sololá	710	Panajachel	8	Panajachel	5	Mayo	2023-06-05T00:00:00	2024-11-08T18:00:00	4	Temperatura máxima	24.3
35335	7	Sololá	710	Panajachel	8	Panajachel	5	Mayo	2023-06-05T00:00:00	2024-11-08T18:00:00	3	Temperatura mínima	23.4
35336	7	Sololá	710	Panajachel	8	Panajachel	5	Mayo	2023-06-05T00:00:00	2024-11-08T18:00:00	5	Humedad	80
35337	7	Sololá	710	Panajachel	8	Panajachel	5	Mayo	2023-06-05T00:00:00	2024-11-08T18:00:00	6	Velocidad del viento	1.6
35338	7	Sololá	710	Panajachel	8	Panajachel	5	Mayo	2023-06-05T00:00:00	2024-11-08T18:00:00	7	Dirección del viento	1.61
35339	7	Sololá	710	Panajachel	8	Panajachel	5	Mayo	2023-06-05T00:00:00	2024-11-08T18:00:00	1	Precipitación	0
35340	7	Sololá	710	Panajachel	8	Panajachel	5	Mayo	2023-06-05T00:00:00	2024-11-08T18:00:00	8	Radiación solar	55
35341	7	Sololá	710	Panajachel	8	Panajachel	5	Mayo	2023-06-05T00:00:00	2024-11-08T19:00:00	2	Temperatura media	22.3
35342	7	Sololá	710	Panajachel	8	Panajachel	5	Mayo	2023-06-05T00:00:00	2024-11-08T19:00:00	4	Temperatura máxima	23.4
35343	7	Sololá	710	Panajachel	8	Panajachel	5	Mayo	2023-06-05T00:00:00	2024-11-08T19:00:00	3	Temperatura mínima	22.3
35344	7	Sololá	710	Panajachel	8	Panajachel	5	Mayo	2023-06-05T00:00:00	2024-11-08T19:00:00	5	Humedad	83
35345	7	Sololá	710	Panajachel	8	Panajachel	5	Mayo	2023-06-05T00:00:00	2024-11-08T19:00:00	6	Velocidad del viento	0
35346	7	Sololá	710	Panajachel	8	Panajachel	5	Mayo	2023-06-05T00:00:00	2024-11-08T19:00:00	7	Dirección del viento	0
35347	7	Sololá	710	Panajachel	8	Panajachel	5	Mayo	2023-06-05T00:00:00	2024-11-08T19:00:00	1	Precipitación	0
35348	7	Sololá	710	Panajachel	8	Panajachel	5	Mayo	2023-06-05T00:00:00	2024-11-08T19:00:00	8	Radiación solar	0
35349	7	Sololá	710	Panajachel	8	Panajachel	5	Mayo	2023-06-05T00:00:00	2024-11-08T20:00:00	2	Temperatura media	23.8
35350	7	Sololá	710	Panajachel	8	Panajachel	5	Mayo	2023-06-05T00:00:00	2024-11-08T20:00:00	4	Temperatura máxima	24.2
35351	7	Sololá	710	Panajachel	8	Panajachel	5	Mayo	2023-06-05T00:00:00	2024-11-08T20:00:00	3	Temperatura mínima	22.2
35352	7	Sololá	710	Panajachel	8	Panajachel	5	Mayo	2023-06-05T00:00:00	2024-11-08T20:00:00	5	Humedad	49
35353	7	Sololá	710	Panajachel	8	Panajachel	5	Mayo	2023-06-05T00:00:00	2024-11-08T20:00:00	6	Velocidad del viento	3.2
35354	7	Sololá	710	Panajachel	8	Panajachel	5	Mayo	2023-06-05T00:00:00	2024-11-08T20:00:00	7	Dirección del viento	3.22
35355	7	Sololá	710	Panajachel	8	Panajachel	5	Mayo	2023-06-05T00:00:00	2024-11-08T20:00:00	1	Precipitación	0
35356	7	Sololá	710	Panajachel	8	Panajachel	5	Mayo	2023-06-05T00:00:00	2024-11-08T20:00:00	8	Radiación solar	0
35357	7	Sololá	710	Panajachel	8	Panajachel	5	Mayo	2023-06-05T00:00:00	2024-11-08T21:00:00	2	Temperatura media	22.1
35358	7	Sololá	710	Panajachel	8	Panajachel	5	Mayo	2023-06-05T00:00:00	2024-11-08T21:00:00	4	Temperatura máxima	23.8
35359	7	Sololá	710	Panajachel	8	Panajachel	5	Mayo	2023-06-05T00:00:00	2024-11-08T21:00:00	3	Temperatura mínima	22.1
35360	7	Sololá	710	Panajachel	8	Panajachel	5	Mayo	2023-06-05T00:00:00	2024-11-08T21:00:00	5	Humedad	56
35361	7	Sololá	710	Panajachel	8	Panajachel	5	Mayo	2023-06-05T00:00:00	2024-11-08T21:00:00	6	Velocidad del viento	4.8
35362	7	Sololá	710	Panajachel	8	Panajachel	5	Mayo	2023-06-05T00:00:00	2024-11-08T21:00:00	7	Dirección del viento	4.83
35363	7	Sololá	710	Panajachel	8	Panajachel	5	Mayo	2023-06-05T00:00:00	2024-11-08T21:00:00	1	Precipitación	0
35364	7	Sololá	710	Panajachel	8	Panajachel	5	Mayo	2023-06-05T00:00:00	2024-11-08T21:00:00	8	Radiación solar	0
35365	7	Sololá	710	Panajachel	8	Panajachel	5	Mayo	2023-06-05T00:00:00	2024-11-08T22:00:00	2	Temperatura media	22.3
35366	7	Sololá	710	Panajachel	8	Panajachel	5	Mayo	2023-06-05T00:00:00	2024-11-08T22:00:00	4	Temperatura máxima	22.8
35367	7	Sololá	710	Panajachel	8	Panajachel	5	Mayo	2023-06-05T00:00:00	2024-11-08T22:00:00	3	Temperatura mínima	21.7
35368	7	Sololá	710	Panajachel	8	Panajachel	5	Mayo	2023-06-05T00:00:00	2024-11-08T22:00:00	5	Humedad	57
35369	7	Sololá	710	Panajachel	8	Panajachel	5	Mayo	2023-06-05T00:00:00	2024-11-08T22:00:00	6	Velocidad del viento	3.2
35370	7	Sololá	710	Panajachel	8	Panajachel	5	Mayo	2023-06-05T00:00:00	2024-11-08T22:00:00	7	Dirección del viento	3.22
35371	7	Sololá	710	Panajachel	8	Panajachel	5	Mayo	2023-06-05T00:00:00	2024-11-08T22:00:00	1	Precipitación	0
35372	7	Sololá	710	Panajachel	8	Panajachel	5	Mayo	2023-06-05T00:00:00	2024-11-08T22:00:00	8	Radiación solar	0
35373	7	Sololá	710	Panajachel	8	Panajachel	5	Mayo	2023-06-05T00:00:00	2024-11-08T23:00:00	2	Temperatura media	21.6
35374	7	Sololá	710	Panajachel	8	Panajachel	5	Mayo	2023-06-05T00:00:00	2024-11-08T23:00:00	4	Temperatura máxima	22.3
35375	7	Sololá	710	Panajachel	8	Panajachel	5	Mayo	2023-06-05T00:00:00	2024-11-08T23:00:00	3	Temperatura mínima	21.4
35376	7	Sololá	710	Panajachel	8	Panajachel	5	Mayo	2023-06-05T00:00:00	2024-11-08T23:00:00	5	Humedad	61
35377	7	Sololá	710	Panajachel	8	Panajachel	5	Mayo	2023-06-05T00:00:00	2024-11-08T23:00:00	6	Velocidad del viento	1.6
35378	7	Sololá	710	Panajachel	8	Panajachel	5	Mayo	2023-06-05T00:00:00	2024-11-08T23:00:00	7	Dirección del viento	1.61
35379	7	Sololá	710	Panajachel	8	Panajachel	5	Mayo	2023-06-05T00:00:00	2024-11-08T23:00:00	1	Precipitación	0
35380	7	Sololá	710	Panajachel	8	Panajachel	5	Mayo	2023-06-05T00:00:00	2024-11-08T23:00:00	8	Radiación solar	0
35381	7	Sololá	710	Panajachel	8	Panajachel	5	Mayo	2023-07-05T00:00:00	2024-11-08T00:00:00	2	Temperatura media	20.8
35382	7	Sololá	710	Panajachel	8	Panajachel	5	Mayo	2023-07-05T00:00:00	2024-11-08T00:00:00	4	Temperatura máxima	21.6
35383	7	Sololá	710	Panajachel	8	Panajachel	5	Mayo	2023-07-05T00:00:00	2024-11-08T00:00:00	3	Temperatura mínima	20.8
35384	7	Sololá	710	Panajachel	8	Panajachel	5	Mayo	2023-07-05T00:00:00	2024-11-08T00:00:00	5	Humedad	62
35385	7	Sololá	710	Panajachel	8	Panajachel	5	Mayo	2023-07-05T00:00:00	2024-11-08T00:00:00	6	Velocidad del viento	1.6
35386	7	Sololá	710	Panajachel	8	Panajachel	5	Mayo	2023-07-05T00:00:00	2024-11-08T00:00:00	7	Dirección del viento	1.61
35387	7	Sololá	710	Panajachel	8	Panajachel	5	Mayo	2023-07-05T00:00:00	2024-11-08T00:00:00	1	Precipitación	0
35388	7	Sololá	710	Panajachel	8	Panajachel	5	Mayo	2023-07-05T00:00:00	2024-11-08T00:00:00	8	Radiación solar	0
35389	7	Sololá	710	Panajachel	8	Panajachel	5	Mayo	2023-07-05T00:00:00	2024-11-08T01:00:00	2	Temperatura media	20.3
35390	7	Sololá	710	Panajachel	8	Panajachel	5	Mayo	2023-07-05T00:00:00	2024-11-08T01:00:00	4	Temperatura máxima	20.8
35391	7	Sololá	710	Panajachel	8	Panajachel	5	Mayo	2023-07-05T00:00:00	2024-11-08T01:00:00	3	Temperatura mínima	20.3
35392	7	Sololá	710	Panajachel	8	Panajachel	5	Mayo	2023-07-05T00:00:00	2024-11-08T01:00:00	5	Humedad	63
35393	7	Sololá	710	Panajachel	8	Panajachel	5	Mayo	2023-07-05T00:00:00	2024-11-08T01:00:00	6	Velocidad del viento	0
35394	7	Sololá	710	Panajachel	8	Panajachel	5	Mayo	2023-07-05T00:00:00	2024-11-08T01:00:00	7	Dirección del viento	0
35395	7	Sololá	710	Panajachel	8	Panajachel	5	Mayo	2023-07-05T00:00:00	2024-11-08T01:00:00	1	Precipitación	0
35396	7	Sololá	710	Panajachel	8	Panajachel	5	Mayo	2023-07-05T00:00:00	2024-11-08T01:00:00	8	Radiación solar	0
35397	7	Sololá	710	Panajachel	8	Panajachel	5	Mayo	2023-07-05T00:00:00	2024-11-08T02:00:00	2	Temperatura media	19.6
35398	7	Sololá	710	Panajachel	8	Panajachel	5	Mayo	2023-07-05T00:00:00	2024-11-08T02:00:00	4	Temperatura máxima	20.3
35399	7	Sololá	710	Panajachel	8	Panajachel	5	Mayo	2023-07-05T00:00:00	2024-11-08T02:00:00	3	Temperatura mínima	19.6
35400	7	Sololá	710	Panajachel	8	Panajachel	5	Mayo	2023-07-05T00:00:00	2024-11-08T02:00:00	5	Humedad	58
35401	7	Sololá	710	Panajachel	8	Panajachel	5	Mayo	2023-07-05T00:00:00	2024-11-08T02:00:00	6	Velocidad del viento	0
35402	7	Sololá	710	Panajachel	8	Panajachel	5	Mayo	2023-07-05T00:00:00	2024-11-08T02:00:00	7	Dirección del viento	0
35403	7	Sololá	710	Panajachel	8	Panajachel	5	Mayo	2023-07-05T00:00:00	2024-11-08T02:00:00	1	Precipitación	0
35404	7	Sololá	710	Panajachel	8	Panajachel	5	Mayo	2023-07-05T00:00:00	2024-11-08T02:00:00	8	Radiación solar	0
35405	7	Sololá	710	Panajachel	8	Panajachel	5	Mayo	2023-07-05T00:00:00	2024-11-08T03:00:00	2	Temperatura media	19.2
35406	7	Sololá	710	Panajachel	8	Panajachel	5	Mayo	2023-07-05T00:00:00	2024-11-08T03:00:00	4	Temperatura máxima	19.8
35407	7	Sololá	710	Panajachel	8	Panajachel	5	Mayo	2023-07-05T00:00:00	2024-11-08T03:00:00	3	Temperatura mínima	19.2
35408	7	Sololá	710	Panajachel	8	Panajachel	5	Mayo	2023-07-05T00:00:00	2024-11-08T03:00:00	5	Humedad	56
35409	7	Sololá	710	Panajachel	8	Panajachel	5	Mayo	2023-07-05T00:00:00	2024-11-08T03:00:00	6	Velocidad del viento	0
35410	7	Sololá	710	Panajachel	8	Panajachel	5	Mayo	2023-07-05T00:00:00	2024-11-08T03:00:00	7	Dirección del viento	0
35411	7	Sololá	710	Panajachel	8	Panajachel	5	Mayo	2023-07-05T00:00:00	2024-11-08T03:00:00	1	Precipitación	0
35412	7	Sololá	710	Panajachel	8	Panajachel	5	Mayo	2023-07-05T00:00:00	2024-11-08T03:00:00	8	Radiación solar	0
35413	7	Sololá	710	Panajachel	8	Panajachel	5	Mayo	2023-07-05T00:00:00	2024-11-08T04:00:00	2	Temperatura media	17.6
35414	7	Sololá	710	Panajachel	8	Panajachel	5	Mayo	2023-07-05T00:00:00	2024-11-08T04:00:00	4	Temperatura máxima	19.2
35415	7	Sololá	710	Panajachel	8	Panajachel	5	Mayo	2023-07-05T00:00:00	2024-11-08T04:00:00	3	Temperatura mínima	17.6
35416	7	Sololá	710	Panajachel	8	Panajachel	5	Mayo	2023-07-05T00:00:00	2024-11-08T04:00:00	5	Humedad	56
35417	7	Sololá	710	Panajachel	8	Panajachel	5	Mayo	2023-07-05T00:00:00	2024-11-08T04:00:00	6	Velocidad del viento	0
35418	7	Sololá	710	Panajachel	8	Panajachel	5	Mayo	2023-07-05T00:00:00	2024-11-08T04:00:00	7	Dirección del viento	0
35419	7	Sololá	710	Panajachel	8	Panajachel	5	Mayo	2023-07-05T00:00:00	2024-11-08T04:00:00	1	Precipitación	0
35420	7	Sololá	710	Panajachel	8	Panajachel	5	Mayo	2023-07-05T00:00:00	2024-11-08T04:00:00	8	Radiación solar	0
35421	7	Sololá	710	Panajachel	8	Panajachel	5	Mayo	2023-07-05T00:00:00	2024-11-08T05:00:00	2	Temperatura media	17.4
35422	7	Sololá	710	Panajachel	8	Panajachel	5	Mayo	2023-07-05T00:00:00	2024-11-08T05:00:00	4	Temperatura máxima	17.8
35423	7	Sololá	710	Panajachel	8	Panajachel	5	Mayo	2023-07-05T00:00:00	2024-11-08T05:00:00	3	Temperatura mínima	17.3
35424	7	Sololá	710	Panajachel	8	Panajachel	5	Mayo	2023-07-05T00:00:00	2024-11-08T05:00:00	5	Humedad	56
35425	7	Sololá	710	Panajachel	8	Panajachel	5	Mayo	2023-07-05T00:00:00	2024-11-08T05:00:00	6	Velocidad del viento	0
35426	7	Sololá	710	Panajachel	8	Panajachel	5	Mayo	2023-07-05T00:00:00	2024-11-08T05:00:00	7	Dirección del viento	0
35427	7	Sololá	710	Panajachel	8	Panajachel	5	Mayo	2023-07-05T00:00:00	2024-11-08T05:00:00	1	Precipitación	0
35428	7	Sololá	710	Panajachel	8	Panajachel	5	Mayo	2023-07-05T00:00:00	2024-11-08T05:00:00	8	Radiación solar	0
35429	7	Sololá	710	Panajachel	8	Panajachel	5	Mayo	2023-07-05T00:00:00	2024-11-08T06:00:00	2	Temperatura media	17
35430	7	Sololá	710	Panajachel	8	Panajachel	5	Mayo	2023-07-05T00:00:00	2024-11-08T06:00:00	4	Temperatura máxima	17.7
35431	7	Sololá	710	Panajachel	8	Panajachel	5	Mayo	2023-07-05T00:00:00	2024-11-08T06:00:00	3	Temperatura mínima	16.9
35432	7	Sololá	710	Panajachel	8	Panajachel	5	Mayo	2023-07-05T00:00:00	2024-11-08T06:00:00	5	Humedad	56
35433	7	Sololá	710	Panajachel	8	Panajachel	5	Mayo	2023-07-05T00:00:00	2024-11-08T06:00:00	6	Velocidad del viento	0
35434	7	Sololá	710	Panajachel	8	Panajachel	5	Mayo	2023-07-05T00:00:00	2024-11-08T06:00:00	7	Dirección del viento	0
35435	7	Sololá	710	Panajachel	8	Panajachel	5	Mayo	2023-07-05T00:00:00	2024-11-08T06:00:00	1	Precipitación	0
35436	7	Sololá	710	Panajachel	8	Panajachel	5	Mayo	2023-07-05T00:00:00	2024-11-08T06:00:00	8	Radiación solar	3
35437	7	Sololá	710	Panajachel	8	Panajachel	5	Mayo	2023-07-05T00:00:00	2024-11-08T07:00:00	2	Temperatura media	17.8
35438	7	Sololá	710	Panajachel	8	Panajachel	5	Mayo	2023-07-05T00:00:00	2024-11-08T07:00:00	4	Temperatura máxima	17.8
35439	7	Sololá	710	Panajachel	8	Panajachel	5	Mayo	2023-07-05T00:00:00	2024-11-08T07:00:00	3	Temperatura mínima	17
35440	7	Sololá	710	Panajachel	8	Panajachel	5	Mayo	2023-07-05T00:00:00	2024-11-08T07:00:00	5	Humedad	59
35441	7	Sololá	710	Panajachel	8	Panajachel	5	Mayo	2023-07-05T00:00:00	2024-11-08T07:00:00	6	Velocidad del viento	0
35442	7	Sololá	710	Panajachel	8	Panajachel	5	Mayo	2023-07-05T00:00:00	2024-11-08T07:00:00	7	Dirección del viento	0
35443	7	Sololá	710	Panajachel	8	Panajachel	5	Mayo	2023-07-05T00:00:00	2024-11-08T07:00:00	1	Precipitación	0
35444	7	Sololá	710	Panajachel	8	Panajachel	5	Mayo	2023-07-05T00:00:00	2024-11-08T07:00:00	8	Radiación solar	76
35445	7	Sololá	710	Panajachel	8	Panajachel	5	Mayo	2023-07-05T00:00:00	2024-11-08T08:00:00	2	Temperatura media	21.6
35446	7	Sololá	710	Panajachel	8	Panajachel	5	Mayo	2023-07-05T00:00:00	2024-11-08T08:00:00	4	Temperatura máxima	21.6
35447	7	Sololá	710	Panajachel	8	Panajachel	5	Mayo	2023-07-05T00:00:00	2024-11-08T08:00:00	3	Temperatura mínima	17.8
35448	7	Sololá	710	Panajachel	8	Panajachel	5	Mayo	2023-07-05T00:00:00	2024-11-08T08:00:00	5	Humedad	50
35449	7	Sololá	710	Panajachel	8	Panajachel	5	Mayo	2023-07-05T00:00:00	2024-11-08T08:00:00	6	Velocidad del viento	0
35450	7	Sololá	710	Panajachel	8	Panajachel	5	Mayo	2023-07-05T00:00:00	2024-11-08T08:00:00	7	Dirección del viento	0
35451	7	Sololá	710	Panajachel	8	Panajachel	5	Mayo	2023-07-05T00:00:00	2024-11-08T08:00:00	1	Precipitación	0
35452	7	Sololá	710	Panajachel	8	Panajachel	5	Mayo	2023-07-05T00:00:00	2024-11-08T08:00:00	8	Radiación solar	275
35453	7	Sololá	710	Panajachel	8	Panajachel	5	Mayo	2023-07-05T00:00:00	2024-11-08T09:00:00	2	Temperatura media	22.3
35454	7	Sololá	710	Panajachel	8	Panajachel	5	Mayo	2023-07-05T00:00:00	2024-11-08T09:00:00	4	Temperatura máxima	22.3
35455	7	Sololá	710	Panajachel	8	Panajachel	5	Mayo	2023-07-05T00:00:00	2024-11-08T09:00:00	3	Temperatura mínima	21.6
35456	7	Sololá	710	Panajachel	8	Panajachel	5	Mayo	2023-07-05T00:00:00	2024-11-08T09:00:00	5	Humedad	59
35457	7	Sololá	710	Panajachel	8	Panajachel	5	Mayo	2023-07-05T00:00:00	2024-11-08T09:00:00	6	Velocidad del viento	0
35458	7	Sololá	710	Panajachel	8	Panajachel	5	Mayo	2023-07-05T00:00:00	2024-11-08T09:00:00	7	Dirección del viento	0
35459	7	Sololá	710	Panajachel	8	Panajachel	5	Mayo	2023-07-05T00:00:00	2024-11-08T09:00:00	1	Precipitación	0
35460	7	Sololá	710	Panajachel	8	Panajachel	5	Mayo	2023-07-05T00:00:00	2024-11-08T09:00:00	8	Radiación solar	539
35461	7	Sololá	710	Panajachel	8	Panajachel	5	Mayo	2023-07-05T00:00:00	2024-11-08T10:00:00	2	Temperatura media	23
35462	7	Sololá	710	Panajachel	8	Panajachel	5	Mayo	2023-07-05T00:00:00	2024-11-08T10:00:00	4	Temperatura máxima	23.1
35463	7	Sololá	710	Panajachel	8	Panajachel	5	Mayo	2023-07-05T00:00:00	2024-11-08T10:00:00	3	Temperatura mínima	22
35464	7	Sololá	710	Panajachel	8	Panajachel	5	Mayo	2023-07-05T00:00:00	2024-11-08T10:00:00	5	Humedad	53
35465	7	Sololá	710	Panajachel	8	Panajachel	5	Mayo	2023-07-05T00:00:00	2024-11-08T10:00:00	6	Velocidad del viento	0
35466	7	Sololá	710	Panajachel	8	Panajachel	5	Mayo	2023-07-05T00:00:00	2024-11-08T10:00:00	7	Dirección del viento	0
35467	7	Sololá	710	Panajachel	8	Panajachel	5	Mayo	2023-07-05T00:00:00	2024-11-08T10:00:00	1	Precipitación	0
35468	7	Sololá	710	Panajachel	8	Panajachel	5	Mayo	2023-07-05T00:00:00	2024-11-08T10:00:00	8	Radiación solar	744
35469	7	Sololá	710	Panajachel	8	Panajachel	5	Mayo	2023-07-05T00:00:00	2024-11-08T11:00:00	2	Temperatura media	24.3
35470	7	Sololá	710	Panajachel	8	Panajachel	5	Mayo	2023-07-05T00:00:00	2024-11-08T11:00:00	4	Temperatura máxima	24.3
35471	7	Sololá	710	Panajachel	8	Panajachel	5	Mayo	2023-07-05T00:00:00	2024-11-08T11:00:00	3	Temperatura mínima	22.9
35472	7	Sololá	710	Panajachel	8	Panajachel	5	Mayo	2023-07-05T00:00:00	2024-11-08T11:00:00	5	Humedad	52
35473	7	Sololá	710	Panajachel	8	Panajachel	5	Mayo	2023-07-05T00:00:00	2024-11-08T11:00:00	6	Velocidad del viento	0
35474	7	Sololá	710	Panajachel	8	Panajachel	5	Mayo	2023-07-05T00:00:00	2024-11-08T11:00:00	7	Dirección del viento	0
35475	7	Sololá	710	Panajachel	8	Panajachel	5	Mayo	2023-07-05T00:00:00	2024-11-08T11:00:00	1	Precipitación	0
35476	7	Sololá	710	Panajachel	8	Panajachel	5	Mayo	2023-07-05T00:00:00	2024-11-08T11:00:00	8	Radiación solar	870
35477	7	Sololá	710	Panajachel	8	Panajachel	5	Mayo	2023-07-05T00:00:00	2024-11-08T12:00:00	2	Temperatura media	25.9
35478	7	Sololá	710	Panajachel	8	Panajachel	5	Mayo	2023-07-05T00:00:00	2024-11-08T12:00:00	4	Temperatura máxima	26.3
35479	7	Sololá	710	Panajachel	8	Panajachel	5	Mayo	2023-07-05T00:00:00	2024-11-08T12:00:00	3	Temperatura mínima	24.3
35480	7	Sololá	710	Panajachel	8	Panajachel	5	Mayo	2023-07-05T00:00:00	2024-11-08T12:00:00	5	Humedad	47
35481	7	Sololá	710	Panajachel	8	Panajachel	5	Mayo	2023-07-05T00:00:00	2024-11-08T12:00:00	6	Velocidad del viento	3.2
35482	7	Sololá	710	Panajachel	8	Panajachel	5	Mayo	2023-07-05T00:00:00	2024-11-08T12:00:00	7	Dirección del viento	3.22
35483	7	Sololá	710	Panajachel	8	Panajachel	5	Mayo	2023-07-05T00:00:00	2024-11-08T12:00:00	1	Precipitación	0
35484	7	Sololá	710	Panajachel	8	Panajachel	5	Mayo	2023-07-05T00:00:00	2024-11-08T12:00:00	8	Radiación solar	936
35485	7	Sololá	710	Panajachel	8	Panajachel	5	Mayo	2023-07-05T00:00:00	2024-11-08T13:00:00	2	Temperatura media	26.1
35486	7	Sololá	710	Panajachel	8	Panajachel	5	Mayo	2023-07-05T00:00:00	2024-11-08T13:00:00	4	Temperatura máxima	27
35487	7	Sololá	710	Panajachel	8	Panajachel	5	Mayo	2023-07-05T00:00:00	2024-11-08T13:00:00	3	Temperatura mínima	25.8
35488	7	Sololá	710	Panajachel	8	Panajachel	5	Mayo	2023-07-05T00:00:00	2024-11-08T13:00:00	5	Humedad	65
35489	7	Sololá	710	Panajachel	8	Panajachel	5	Mayo	2023-07-05T00:00:00	2024-11-08T13:00:00	6	Velocidad del viento	3.2
35490	7	Sololá	710	Panajachel	8	Panajachel	5	Mayo	2023-07-05T00:00:00	2024-11-08T13:00:00	7	Dirección del viento	3.22
35491	7	Sololá	710	Panajachel	8	Panajachel	5	Mayo	2023-07-05T00:00:00	2024-11-08T13:00:00	1	Precipitación	0
35492	7	Sololá	710	Panajachel	8	Panajachel	5	Mayo	2023-07-05T00:00:00	2024-11-08T13:00:00	8	Radiación solar	917
35493	7	Sololá	710	Panajachel	8	Panajachel	5	Mayo	2023-07-05T00:00:00	2024-11-08T14:00:00	2	Temperatura media	26.2
35494	7	Sololá	710	Panajachel	8	Panajachel	5	Mayo	2023-07-05T00:00:00	2024-11-08T14:00:00	4	Temperatura máxima	26.8
35495	7	Sololá	710	Panajachel	8	Panajachel	5	Mayo	2023-07-05T00:00:00	2024-11-08T14:00:00	3	Temperatura mínima	25.6
35496	7	Sololá	710	Panajachel	8	Panajachel	5	Mayo	2023-07-05T00:00:00	2024-11-08T14:00:00	5	Humedad	65
35497	7	Sololá	710	Panajachel	8	Panajachel	5	Mayo	2023-07-05T00:00:00	2024-11-08T14:00:00	6	Velocidad del viento	6.4
35498	7	Sololá	710	Panajachel	8	Panajachel	5	Mayo	2023-07-05T00:00:00	2024-11-08T14:00:00	7	Dirección del viento	6.44
35499	7	Sololá	710	Panajachel	8	Panajachel	5	Mayo	2023-07-05T00:00:00	2024-11-08T14:00:00	1	Precipitación	0
35500	7	Sololá	710	Panajachel	8	Panajachel	5	Mayo	2023-07-05T00:00:00	2024-11-08T14:00:00	8	Radiación solar	858
35501	7	Sololá	710	Panajachel	8	Panajachel	5	Mayo	2023-07-05T00:00:00	2024-11-08T15:00:00	2	Temperatura media	26.6
35502	7	Sololá	710	Panajachel	8	Panajachel	5	Mayo	2023-07-05T00:00:00	2024-11-08T15:00:00	4	Temperatura máxima	27.1
35503	7	Sololá	710	Panajachel	8	Panajachel	5	Mayo	2023-07-05T00:00:00	2024-11-08T15:00:00	3	Temperatura mínima	25.8
35504	7	Sololá	710	Panajachel	8	Panajachel	5	Mayo	2023-07-05T00:00:00	2024-11-08T15:00:00	5	Humedad	73
35505	7	Sololá	710	Panajachel	8	Panajachel	5	Mayo	2023-07-05T00:00:00	2024-11-08T15:00:00	6	Velocidad del viento	4.8
35506	7	Sololá	710	Panajachel	8	Panajachel	5	Mayo	2023-07-05T00:00:00	2024-11-08T15:00:00	7	Dirección del viento	4.83
35507	7	Sololá	710	Panajachel	8	Panajachel	5	Mayo	2023-07-05T00:00:00	2024-11-08T15:00:00	1	Precipitación	0
35508	7	Sololá	710	Panajachel	8	Panajachel	5	Mayo	2023-07-05T00:00:00	2024-11-08T15:00:00	8	Radiación solar	737
35509	7	Sololá	710	Panajachel	8	Panajachel	5	Mayo	2023-07-05T00:00:00	2024-11-08T16:00:00	2	Temperatura media	24.7
35510	7	Sololá	710	Panajachel	8	Panajachel	5	Mayo	2023-07-05T00:00:00	2024-11-08T16:00:00	4	Temperatura máxima	26.6
35511	7	Sololá	710	Panajachel	8	Panajachel	5	Mayo	2023-07-05T00:00:00	2024-11-08T16:00:00	3	Temperatura mínima	24.7
35512	7	Sololá	710	Panajachel	8	Panajachel	5	Mayo	2023-07-05T00:00:00	2024-11-08T16:00:00	5	Humedad	79
35513	7	Sololá	710	Panajachel	8	Panajachel	5	Mayo	2023-07-05T00:00:00	2024-11-08T16:00:00	6	Velocidad del viento	6.4
35514	7	Sololá	710	Panajachel	8	Panajachel	5	Mayo	2023-07-05T00:00:00	2024-11-08T16:00:00	7	Dirección del viento	6.44
35515	7	Sololá	710	Panajachel	8	Panajachel	5	Mayo	2023-07-05T00:00:00	2024-11-08T16:00:00	1	Precipitación	0
35516	7	Sololá	710	Panajachel	8	Panajachel	5	Mayo	2023-07-05T00:00:00	2024-11-08T16:00:00	8	Radiación solar	225
35517	7	Sololá	710	Panajachel	8	Panajachel	5	Mayo	2023-07-05T00:00:00	2024-11-08T17:00:00	2	Temperatura media	24.5
35518	7	Sololá	710	Panajachel	8	Panajachel	5	Mayo	2023-07-05T00:00:00	2024-11-08T17:00:00	4	Temperatura máxima	25.4
35519	7	Sololá	710	Panajachel	8	Panajachel	5	Mayo	2023-07-05T00:00:00	2024-11-08T17:00:00	3	Temperatura mínima	24.5
35520	7	Sololá	710	Panajachel	8	Panajachel	5	Mayo	2023-07-05T00:00:00	2024-11-08T17:00:00	5	Humedad	78
35521	7	Sololá	710	Panajachel	8	Panajachel	5	Mayo	2023-07-05T00:00:00	2024-11-08T17:00:00	6	Velocidad del viento	4.8
35522	7	Sololá	710	Panajachel	8	Panajachel	5	Mayo	2023-07-05T00:00:00	2024-11-08T17:00:00	7	Dirección del viento	4.83
35523	7	Sololá	710	Panajachel	8	Panajachel	5	Mayo	2023-07-05T00:00:00	2024-11-08T17:00:00	1	Precipitación	0
35524	7	Sololá	710	Panajachel	8	Panajachel	5	Mayo	2023-07-05T00:00:00	2024-11-08T17:00:00	8	Radiación solar	93
35525	7	Sololá	710	Panajachel	8	Panajachel	5	Mayo	2023-07-05T00:00:00	2024-11-08T18:00:00	2	Temperatura media	23.7
35526	7	Sololá	710	Panajachel	8	Panajachel	5	Mayo	2023-07-05T00:00:00	2024-11-08T18:00:00	4	Temperatura máxima	24.5
35527	7	Sololá	710	Panajachel	8	Panajachel	5	Mayo	2023-07-05T00:00:00	2024-11-08T18:00:00	3	Temperatura mínima	23.7
35528	7	Sololá	710	Panajachel	8	Panajachel	5	Mayo	2023-07-05T00:00:00	2024-11-08T18:00:00	5	Humedad	80
35529	7	Sololá	710	Panajachel	8	Panajachel	5	Mayo	2023-07-05T00:00:00	2024-11-08T18:00:00	6	Velocidad del viento	1.6
35530	7	Sololá	710	Panajachel	8	Panajachel	5	Mayo	2023-07-05T00:00:00	2024-11-08T18:00:00	7	Dirección del viento	1.61
35531	7	Sololá	710	Panajachel	8	Panajachel	5	Mayo	2023-07-05T00:00:00	2024-11-08T18:00:00	1	Precipitación	0
35532	7	Sololá	710	Panajachel	8	Panajachel	5	Mayo	2023-07-05T00:00:00	2024-11-08T18:00:00	8	Radiación solar	51
35533	7	Sololá	710	Panajachel	8	Panajachel	5	Mayo	2023-07-05T00:00:00	2024-11-08T19:00:00	2	Temperatura media	22.6
35534	7	Sololá	710	Panajachel	8	Panajachel	5	Mayo	2023-07-05T00:00:00	2024-11-08T19:00:00	4	Temperatura máxima	23.7
35535	7	Sololá	710	Panajachel	8	Panajachel	5	Mayo	2023-07-05T00:00:00	2024-11-08T19:00:00	3	Temperatura mínima	22.6
35536	7	Sololá	710	Panajachel	8	Panajachel	5	Mayo	2023-07-05T00:00:00	2024-11-08T19:00:00	5	Humedad	85
35537	7	Sololá	710	Panajachel	8	Panajachel	5	Mayo	2023-07-05T00:00:00	2024-11-08T19:00:00	6	Velocidad del viento	0
35538	7	Sololá	710	Panajachel	8	Panajachel	5	Mayo	2023-07-05T00:00:00	2024-11-08T19:00:00	7	Dirección del viento	0
35539	7	Sololá	710	Panajachel	8	Panajachel	5	Mayo	2023-07-05T00:00:00	2024-11-08T19:00:00	1	Precipitación	0
35540	7	Sololá	710	Panajachel	8	Panajachel	5	Mayo	2023-07-05T00:00:00	2024-11-08T19:00:00	8	Radiación solar	0
35541	7	Sololá	710	Panajachel	8	Panajachel	5	Mayo	2023-07-05T00:00:00	2024-11-08T20:00:00	2	Temperatura media	21.4
35542	7	Sololá	710	Panajachel	8	Panajachel	5	Mayo	2023-07-05T00:00:00	2024-11-08T20:00:00	4	Temperatura máxima	22.6
35543	7	Sololá	710	Panajachel	8	Panajachel	5	Mayo	2023-07-05T00:00:00	2024-11-08T20:00:00	3	Temperatura mínima	21.4
35544	7	Sololá	710	Panajachel	8	Panajachel	5	Mayo	2023-07-05T00:00:00	2024-11-08T20:00:00	5	Humedad	80
35545	7	Sololá	710	Panajachel	8	Panajachel	5	Mayo	2023-07-05T00:00:00	2024-11-08T20:00:00	6	Velocidad del viento	0
35546	7	Sololá	710	Panajachel	8	Panajachel	5	Mayo	2023-07-05T00:00:00	2024-11-08T20:00:00	7	Dirección del viento	0
35547	7	Sololá	710	Panajachel	8	Panajachel	5	Mayo	2023-07-05T00:00:00	2024-11-08T20:00:00	1	Precipitación	0
35548	7	Sololá	710	Panajachel	8	Panajachel	5	Mayo	2023-07-05T00:00:00	2024-11-08T20:00:00	8	Radiación solar	0
35549	7	Sololá	710	Panajachel	8	Panajachel	5	Mayo	2023-07-05T00:00:00	2024-11-08T21:00:00	2	Temperatura media	20.4
35550	7	Sololá	710	Panajachel	8	Panajachel	5	Mayo	2023-07-05T00:00:00	2024-11-08T21:00:00	4	Temperatura máxima	21.3
35551	7	Sololá	710	Panajachel	8	Panajachel	5	Mayo	2023-07-05T00:00:00	2024-11-08T21:00:00	3	Temperatura mínima	20.4
35552	7	Sololá	710	Panajachel	8	Panajachel	5	Mayo	2023-07-05T00:00:00	2024-11-08T21:00:00	5	Humedad	78
35553	7	Sololá	710	Panajachel	8	Panajachel	5	Mayo	2023-07-05T00:00:00	2024-11-08T21:00:00	6	Velocidad del viento	0
35554	7	Sololá	710	Panajachel	8	Panajachel	5	Mayo	2023-07-05T00:00:00	2024-11-08T21:00:00	7	Dirección del viento	0
35555	7	Sololá	710	Panajachel	8	Panajachel	5	Mayo	2023-07-05T00:00:00	2024-11-08T21:00:00	1	Precipitación	0
35556	7	Sololá	710	Panajachel	8	Panajachel	5	Mayo	2023-07-05T00:00:00	2024-11-08T21:00:00	8	Radiación solar	0
35557	7	Sololá	710	Panajachel	8	Panajachel	5	Mayo	2023-07-05T00:00:00	2024-11-08T22:00:00	2	Temperatura media	21.2
35558	7	Sololá	710	Panajachel	8	Panajachel	5	Mayo	2023-07-05T00:00:00	2024-11-08T22:00:00	4	Temperatura máxima	21.2
35559	7	Sololá	710	Panajachel	8	Panajachel	5	Mayo	2023-07-05T00:00:00	2024-11-08T22:00:00	3	Temperatura mínima	20.2
35560	7	Sololá	710	Panajachel	8	Panajachel	5	Mayo	2023-07-05T00:00:00	2024-11-08T22:00:00	5	Humedad	72
35561	7	Sololá	710	Panajachel	8	Panajachel	5	Mayo	2023-07-05T00:00:00	2024-11-08T22:00:00	6	Velocidad del viento	0
35562	7	Sololá	710	Panajachel	8	Panajachel	5	Mayo	2023-07-05T00:00:00	2024-11-08T22:00:00	7	Dirección del viento	0
35563	7	Sololá	710	Panajachel	8	Panajachel	5	Mayo	2023-07-05T00:00:00	2024-11-08T22:00:00	1	Precipitación	0
35564	7	Sololá	710	Panajachel	8	Panajachel	5	Mayo	2023-07-05T00:00:00	2024-11-08T22:00:00	8	Radiación solar	0
35565	7	Sololá	710	Panajachel	8	Panajachel	5	Mayo	2023-07-05T00:00:00	2024-11-08T23:00:00	2	Temperatura media	20.7
35566	7	Sololá	710	Panajachel	8	Panajachel	5	Mayo	2023-07-05T00:00:00	2024-11-08T23:00:00	4	Temperatura máxima	21.2
35567	7	Sololá	710	Panajachel	8	Panajachel	5	Mayo	2023-07-05T00:00:00	2024-11-08T23:00:00	3	Temperatura mínima	19.7
35568	7	Sololá	710	Panajachel	8	Panajachel	5	Mayo	2023-07-05T00:00:00	2024-11-08T23:00:00	5	Humedad	73
35569	7	Sololá	710	Panajachel	8	Panajachel	5	Mayo	2023-07-05T00:00:00	2024-11-08T23:00:00	6	Velocidad del viento	1.6
35570	7	Sololá	710	Panajachel	8	Panajachel	5	Mayo	2023-07-05T00:00:00	2024-11-08T23:00:00	7	Dirección del viento	1.61
35571	7	Sololá	710	Panajachel	8	Panajachel	5	Mayo	2023-07-05T00:00:00	2024-11-08T23:00:00	1	Precipitación	0
35572	7	Sololá	710	Panajachel	8	Panajachel	5	Mayo	2023-07-05T00:00:00	2024-11-08T23:00:00	8	Radiación solar	0
35573	7	Sololá	710	Panajachel	8	Panajachel	5	Mayo	2023-08-05T00:00:00	2024-11-08T00:00:00	2	Temperatura media	21.3
35574	7	Sololá	710	Panajachel	8	Panajachel	5	Mayo	2023-08-05T00:00:00	2024-11-08T00:00:00	4	Temperatura máxima	21.3
35575	7	Sololá	710	Panajachel	8	Panajachel	5	Mayo	2023-08-05T00:00:00	2024-11-08T00:00:00	3	Temperatura mínima	20.7
35576	7	Sololá	710	Panajachel	8	Panajachel	5	Mayo	2023-08-05T00:00:00	2024-11-08T00:00:00	5	Humedad	69
35577	7	Sololá	710	Panajachel	8	Panajachel	5	Mayo	2023-08-05T00:00:00	2024-11-08T00:00:00	6	Velocidad del viento	6.4
35578	7	Sololá	710	Panajachel	8	Panajachel	5	Mayo	2023-08-05T00:00:00	2024-11-08T00:00:00	7	Dirección del viento	6.44
35579	7	Sololá	710	Panajachel	8	Panajachel	5	Mayo	2023-08-05T00:00:00	2024-11-08T00:00:00	1	Precipitación	0
35580	7	Sololá	710	Panajachel	8	Panajachel	5	Mayo	2023-08-05T00:00:00	2024-11-08T00:00:00	8	Radiación solar	0
35581	7	Sololá	710	Panajachel	8	Panajachel	5	Mayo	2023-08-05T00:00:00	2024-11-08T01:00:00	2	Temperatura media	20.3
35582	7	Sololá	710	Panajachel	8	Panajachel	5	Mayo	2023-08-05T00:00:00	2024-11-08T01:00:00	4	Temperatura máxima	21.3
35583	7	Sololá	710	Panajachel	8	Panajachel	5	Mayo	2023-08-05T00:00:00	2024-11-08T01:00:00	3	Temperatura mínima	20.3
35584	7	Sololá	710	Panajachel	8	Panajachel	5	Mayo	2023-08-05T00:00:00	2024-11-08T01:00:00	5	Humedad	71
35585	7	Sololá	710	Panajachel	8	Panajachel	5	Mayo	2023-08-05T00:00:00	2024-11-08T01:00:00	6	Velocidad del viento	3.2
35586	7	Sololá	710	Panajachel	8	Panajachel	5	Mayo	2023-08-05T00:00:00	2024-11-08T01:00:00	7	Dirección del viento	3.22
35587	7	Sololá	710	Panajachel	8	Panajachel	5	Mayo	2023-08-05T00:00:00	2024-11-08T01:00:00	1	Precipitación	0
35588	7	Sololá	710	Panajachel	8	Panajachel	5	Mayo	2023-08-05T00:00:00	2024-11-08T01:00:00	8	Radiación solar	0
35589	7	Sololá	710	Panajachel	8	Panajachel	5	Mayo	2023-08-05T00:00:00	2024-11-08T02:00:00	2	Temperatura media	18.6
35590	7	Sololá	710	Panajachel	8	Panajachel	5	Mayo	2023-08-05T00:00:00	2024-11-08T02:00:00	4	Temperatura máxima	20.3
35591	7	Sololá	710	Panajachel	8	Panajachel	5	Mayo	2023-08-05T00:00:00	2024-11-08T02:00:00	3	Temperatura mínima	18.6
35592	7	Sololá	710	Panajachel	8	Panajachel	5	Mayo	2023-08-05T00:00:00	2024-11-08T02:00:00	5	Humedad	76
35593	7	Sololá	710	Panajachel	8	Panajachel	5	Mayo	2023-08-05T00:00:00	2024-11-08T02:00:00	6	Velocidad del viento	0
35594	7	Sololá	710	Panajachel	8	Panajachel	5	Mayo	2023-08-05T00:00:00	2024-11-08T02:00:00	7	Dirección del viento	0
35595	7	Sololá	710	Panajachel	8	Panajachel	5	Mayo	2023-08-05T00:00:00	2024-11-08T02:00:00	1	Precipitación	0
35596	7	Sololá	710	Panajachel	8	Panajachel	5	Mayo	2023-08-05T00:00:00	2024-11-08T02:00:00	8	Radiación solar	0
35597	7	Sololá	710	Panajachel	8	Panajachel	5	Mayo	2023-08-05T00:00:00	2024-11-08T03:00:00	2	Temperatura media	17.8
35598	7	Sololá	710	Panajachel	8	Panajachel	5	Mayo	2023-08-05T00:00:00	2024-11-08T03:00:00	4	Temperatura máxima	18.6
35599	7	Sololá	710	Panajachel	8	Panajachel	5	Mayo	2023-08-05T00:00:00	2024-11-08T03:00:00	3	Temperatura mínima	17.7
35600	7	Sololá	710	Panajachel	8	Panajachel	5	Mayo	2023-08-05T00:00:00	2024-11-08T03:00:00	5	Humedad	75
35601	7	Sololá	710	Panajachel	8	Panajachel	5	Mayo	2023-08-05T00:00:00	2024-11-08T03:00:00	6	Velocidad del viento	0
35602	7	Sololá	710	Panajachel	8	Panajachel	5	Mayo	2023-08-05T00:00:00	2024-11-08T03:00:00	7	Dirección del viento	0
35603	7	Sololá	710	Panajachel	8	Panajachel	5	Mayo	2023-08-05T00:00:00	2024-11-08T03:00:00	1	Precipitación	0
35604	7	Sololá	710	Panajachel	8	Panajachel	5	Mayo	2023-08-05T00:00:00	2024-11-08T03:00:00	8	Radiación solar	0
35605	7	Sololá	710	Panajachel	8	Panajachel	5	Mayo	2023-08-05T00:00:00	2024-11-08T04:00:00	2	Temperatura media	16.7
35606	7	Sololá	710	Panajachel	8	Panajachel	5	Mayo	2023-08-05T00:00:00	2024-11-08T04:00:00	4	Temperatura máxima	17.8
35607	7	Sololá	710	Panajachel	8	Panajachel	5	Mayo	2023-08-05T00:00:00	2024-11-08T04:00:00	3	Temperatura mínima	16.7
35608	7	Sololá	710	Panajachel	8	Panajachel	5	Mayo	2023-08-05T00:00:00	2024-11-08T04:00:00	5	Humedad	70
35609	7	Sololá	710	Panajachel	8	Panajachel	5	Mayo	2023-08-05T00:00:00	2024-11-08T04:00:00	6	Velocidad del viento	0
35610	7	Sololá	710	Panajachel	8	Panajachel	5	Mayo	2023-08-05T00:00:00	2024-11-08T04:00:00	7	Dirección del viento	0
35611	7	Sololá	710	Panajachel	8	Panajachel	5	Mayo	2023-08-05T00:00:00	2024-11-08T04:00:00	1	Precipitación	0
35612	7	Sololá	710	Panajachel	8	Panajachel	5	Mayo	2023-08-05T00:00:00	2024-11-08T04:00:00	8	Radiación solar	0
35613	7	Sololá	710	Panajachel	8	Panajachel	5	Mayo	2023-08-05T00:00:00	2024-11-08T05:00:00	2	Temperatura media	16.2
35614	7	Sololá	710	Panajachel	8	Panajachel	5	Mayo	2023-08-05T00:00:00	2024-11-08T05:00:00	4	Temperatura máxima	16.9
35615	7	Sololá	710	Panajachel	8	Panajachel	5	Mayo	2023-08-05T00:00:00	2024-11-08T05:00:00	3	Temperatura mínima	16.1
35616	7	Sololá	710	Panajachel	8	Panajachel	5	Mayo	2023-08-05T00:00:00	2024-11-08T05:00:00	5	Humedad	64
35617	7	Sololá	710	Panajachel	8	Panajachel	5	Mayo	2023-08-05T00:00:00	2024-11-08T05:00:00	6	Velocidad del viento	0
35618	7	Sololá	710	Panajachel	8	Panajachel	5	Mayo	2023-08-05T00:00:00	2024-11-08T05:00:00	7	Dirección del viento	0
35619	7	Sololá	710	Panajachel	8	Panajachel	5	Mayo	2023-08-05T00:00:00	2024-11-08T05:00:00	1	Precipitación	0
35620	7	Sololá	710	Panajachel	8	Panajachel	5	Mayo	2023-08-05T00:00:00	2024-11-08T05:00:00	8	Radiación solar	0
35621	7	Sololá	710	Panajachel	8	Panajachel	5	Mayo	2023-08-05T00:00:00	2024-11-08T06:00:00	2	Temperatura media	16.7
35622	7	Sololá	710	Panajachel	8	Panajachel	5	Mayo	2023-08-05T00:00:00	2024-11-08T06:00:00	4	Temperatura máxima	16.8
35623	7	Sololá	710	Panajachel	8	Panajachel	5	Mayo	2023-08-05T00:00:00	2024-11-08T06:00:00	3	Temperatura mínima	16.2
35624	7	Sololá	710	Panajachel	8	Panajachel	5	Mayo	2023-08-05T00:00:00	2024-11-08T06:00:00	5	Humedad	61
35625	7	Sololá	710	Panajachel	8	Panajachel	5	Mayo	2023-08-05T00:00:00	2024-11-08T06:00:00	6	Velocidad del viento	0
35626	7	Sololá	710	Panajachel	8	Panajachel	5	Mayo	2023-08-05T00:00:00	2024-11-08T06:00:00	7	Dirección del viento	0
35627	7	Sololá	710	Panajachel	8	Panajachel	5	Mayo	2023-08-05T00:00:00	2024-11-08T06:00:00	1	Precipitación	0
35628	7	Sololá	710	Panajachel	8	Panajachel	5	Mayo	2023-08-05T00:00:00	2024-11-08T06:00:00	8	Radiación solar	5
35629	7	Sololá	710	Panajachel	8	Panajachel	5	Mayo	2023-08-05T00:00:00	2024-11-08T07:00:00	2	Temperatura media	18.1
35630	7	Sololá	710	Panajachel	8	Panajachel	5	Mayo	2023-08-05T00:00:00	2024-11-08T07:00:00	4	Temperatura máxima	18.1
35631	7	Sololá	710	Panajachel	8	Panajachel	5	Mayo	2023-08-05T00:00:00	2024-11-08T07:00:00	3	Temperatura mínima	16.7
35632	7	Sololá	710	Panajachel	8	Panajachel	5	Mayo	2023-08-05T00:00:00	2024-11-08T07:00:00	5	Humedad	64
35633	7	Sololá	710	Panajachel	8	Panajachel	5	Mayo	2023-08-05T00:00:00	2024-11-08T07:00:00	6	Velocidad del viento	0
35634	7	Sololá	710	Panajachel	8	Panajachel	5	Mayo	2023-08-05T00:00:00	2024-11-08T07:00:00	7	Dirección del viento	0
35635	7	Sololá	710	Panajachel	8	Panajachel	5	Mayo	2023-08-05T00:00:00	2024-11-08T07:00:00	1	Precipitación	0
35636	7	Sololá	710	Panajachel	8	Panajachel	5	Mayo	2023-08-05T00:00:00	2024-11-08T07:00:00	8	Radiación solar	94
35637	7	Sololá	710	Panajachel	8	Panajachel	5	Mayo	2023-08-05T00:00:00	2024-11-08T08:00:00	2	Temperatura media	21.4
35638	7	Sololá	710	Panajachel	8	Panajachel	5	Mayo	2023-08-05T00:00:00	2024-11-08T08:00:00	4	Temperatura máxima	21.7
35639	7	Sololá	710	Panajachel	8	Panajachel	5	Mayo	2023-08-05T00:00:00	2024-11-08T08:00:00	3	Temperatura mínima	18.1
35640	7	Sololá	710	Panajachel	8	Panajachel	5	Mayo	2023-08-05T00:00:00	2024-11-08T08:00:00	5	Humedad	58
35641	7	Sololá	710	Panajachel	8	Panajachel	5	Mayo	2023-08-05T00:00:00	2024-11-08T08:00:00	6	Velocidad del viento	0
35642	7	Sololá	710	Panajachel	8	Panajachel	5	Mayo	2023-08-05T00:00:00	2024-11-08T08:00:00	7	Dirección del viento	0
35643	7	Sololá	710	Panajachel	8	Panajachel	5	Mayo	2023-08-05T00:00:00	2024-11-08T08:00:00	1	Precipitación	0
35644	7	Sololá	710	Panajachel	8	Panajachel	5	Mayo	2023-08-05T00:00:00	2024-11-08T08:00:00	8	Radiación solar	332
35645	7	Sololá	710	Panajachel	8	Panajachel	5	Mayo	2023-08-05T00:00:00	2024-11-08T09:00:00	2	Temperatura media	21.5
35646	7	Sololá	710	Panajachel	8	Panajachel	5	Mayo	2023-08-05T00:00:00	2024-11-08T09:00:00	4	Temperatura máxima	21.5
35647	7	Sololá	710	Panajachel	8	Panajachel	5	Mayo	2023-08-05T00:00:00	2024-11-08T09:00:00	3	Temperatura mínima	20.7
35648	7	Sololá	710	Panajachel	8	Panajachel	5	Mayo	2023-08-05T00:00:00	2024-11-08T09:00:00	5	Humedad	70
35649	7	Sololá	710	Panajachel	8	Panajachel	5	Mayo	2023-08-05T00:00:00	2024-11-08T09:00:00	6	Velocidad del viento	0
35650	7	Sololá	710	Panajachel	8	Panajachel	5	Mayo	2023-08-05T00:00:00	2024-11-08T09:00:00	7	Dirección del viento	0
35651	7	Sololá	710	Panajachel	8	Panajachel	5	Mayo	2023-08-05T00:00:00	2024-11-08T09:00:00	1	Precipitación	0
35652	7	Sololá	710	Panajachel	8	Panajachel	5	Mayo	2023-08-05T00:00:00	2024-11-08T09:00:00	8	Radiación solar	525
35653	7	Sololá	710	Panajachel	8	Panajachel	5	Mayo	2023-08-05T00:00:00	2024-11-08T10:00:00	2	Temperatura media	23.1
35654	7	Sololá	710	Panajachel	8	Panajachel	5	Mayo	2023-08-05T00:00:00	2024-11-08T10:00:00	4	Temperatura máxima	23.1
35655	7	Sololá	710	Panajachel	8	Panajachel	5	Mayo	2023-08-05T00:00:00	2024-11-08T10:00:00	3	Temperatura mínima	21.5
35656	7	Sololá	710	Panajachel	8	Panajachel	5	Mayo	2023-08-05T00:00:00	2024-11-08T10:00:00	5	Humedad	63
35657	7	Sololá	710	Panajachel	8	Panajachel	5	Mayo	2023-08-05T00:00:00	2024-11-08T10:00:00	6	Velocidad del viento	0
35658	7	Sololá	710	Panajachel	8	Panajachel	5	Mayo	2023-08-05T00:00:00	2024-11-08T10:00:00	7	Dirección del viento	0
35659	7	Sololá	710	Panajachel	8	Panajachel	5	Mayo	2023-08-05T00:00:00	2024-11-08T10:00:00	1	Precipitación	0
35660	7	Sololá	710	Panajachel	8	Panajachel	5	Mayo	2023-08-05T00:00:00	2024-11-08T10:00:00	8	Radiación solar	728
35661	7	Sololá	710	Panajachel	8	Panajachel	5	Mayo	2023-08-05T00:00:00	2024-11-08T11:00:00	2	Temperatura media	25.4
35662	7	Sololá	710	Panajachel	8	Panajachel	5	Mayo	2023-08-05T00:00:00	2024-11-08T11:00:00	4	Temperatura máxima	25.4
35663	7	Sololá	710	Panajachel	8	Panajachel	5	Mayo	2023-08-05T00:00:00	2024-11-08T11:00:00	3	Temperatura mínima	22.6
35664	7	Sololá	710	Panajachel	8	Panajachel	5	Mayo	2023-08-05T00:00:00	2024-11-08T11:00:00	5	Humedad	51
35665	7	Sololá	710	Panajachel	8	Panajachel	5	Mayo	2023-08-05T00:00:00	2024-11-08T11:00:00	6	Velocidad del viento	0
35666	7	Sololá	710	Panajachel	8	Panajachel	5	Mayo	2023-08-05T00:00:00	2024-11-08T11:00:00	7	Dirección del viento	0
35667	7	Sololá	710	Panajachel	8	Panajachel	5	Mayo	2023-08-05T00:00:00	2024-11-08T11:00:00	1	Precipitación	0
35668	7	Sololá	710	Panajachel	8	Panajachel	5	Mayo	2023-08-05T00:00:00	2024-11-08T11:00:00	8	Radiación solar	850
35669	7	Sololá	710	Panajachel	8	Panajachel	5	Mayo	2023-08-05T00:00:00	2024-11-08T12:00:00	2	Temperatura media	24.8
35670	7	Sololá	710	Panajachel	8	Panajachel	5	Mayo	2023-08-05T00:00:00	2024-11-08T12:00:00	4	Temperatura máxima	25.8
35671	7	Sololá	710	Panajachel	8	Panajachel	5	Mayo	2023-08-05T00:00:00	2024-11-08T12:00:00	3	Temperatura mínima	24.8
35672	7	Sololá	710	Panajachel	8	Panajachel	5	Mayo	2023-08-05T00:00:00	2024-11-08T12:00:00	5	Humedad	58
35673	7	Sololá	710	Panajachel	8	Panajachel	5	Mayo	2023-08-05T00:00:00	2024-11-08T12:00:00	6	Velocidad del viento	0
35674	7	Sololá	710	Panajachel	8	Panajachel	5	Mayo	2023-08-05T00:00:00	2024-11-08T12:00:00	7	Dirección del viento	0
35675	7	Sololá	710	Panajachel	8	Panajachel	5	Mayo	2023-08-05T00:00:00	2024-11-08T12:00:00	1	Precipitación	0
35676	7	Sololá	710	Panajachel	8	Panajachel	5	Mayo	2023-08-05T00:00:00	2024-11-08T12:00:00	8	Radiación solar	906
35677	7	Sololá	710	Panajachel	8	Panajachel	5	Mayo	2023-08-05T00:00:00	2024-11-08T13:00:00	2	Temperatura media	25.5
35678	7	Sololá	710	Panajachel	8	Panajachel	5	Mayo	2023-08-05T00:00:00	2024-11-08T13:00:00	4	Temperatura máxima	26.3
35679	7	Sololá	710	Panajachel	8	Panajachel	5	Mayo	2023-08-05T00:00:00	2024-11-08T13:00:00	3	Temperatura mínima	24.5
35680	7	Sololá	710	Panajachel	8	Panajachel	5	Mayo	2023-08-05T00:00:00	2024-11-08T13:00:00	5	Humedad	65
35681	7	Sololá	710	Panajachel	8	Panajachel	5	Mayo	2023-08-05T00:00:00	2024-11-08T13:00:00	6	Velocidad del viento	0
35682	7	Sololá	710	Panajachel	8	Panajachel	5	Mayo	2023-08-05T00:00:00	2024-11-08T13:00:00	7	Dirección del viento	0
35683	7	Sololá	710	Panajachel	8	Panajachel	5	Mayo	2023-08-05T00:00:00	2024-11-08T13:00:00	1	Precipitación	0
35684	7	Sololá	710	Panajachel	8	Panajachel	5	Mayo	2023-08-05T00:00:00	2024-11-08T13:00:00	8	Radiación solar	882
35685	7	Sololá	710	Panajachel	8	Panajachel	5	Mayo	2023-08-05T00:00:00	2024-11-08T14:00:00	2	Temperatura media	24.8
35686	7	Sololá	710	Panajachel	8	Panajachel	5	Mayo	2023-08-05T00:00:00	2024-11-08T14:00:00	4	Temperatura máxima	25.4
35687	7	Sololá	710	Panajachel	8	Panajachel	5	Mayo	2023-08-05T00:00:00	2024-11-08T14:00:00	3	Temperatura mínima	24.6
35688	7	Sololá	710	Panajachel	8	Panajachel	5	Mayo	2023-08-05T00:00:00	2024-11-08T14:00:00	5	Humedad	69
35689	7	Sololá	710	Panajachel	8	Panajachel	5	Mayo	2023-08-05T00:00:00	2024-11-08T14:00:00	6	Velocidad del viento	6.4
35690	7	Sololá	710	Panajachel	8	Panajachel	5	Mayo	2023-08-05T00:00:00	2024-11-08T14:00:00	7	Dirección del viento	6.44
35691	7	Sololá	710	Panajachel	8	Panajachel	5	Mayo	2023-08-05T00:00:00	2024-11-08T14:00:00	1	Precipitación	0
35692	7	Sololá	710	Panajachel	8	Panajachel	5	Mayo	2023-08-05T00:00:00	2024-11-08T14:00:00	8	Radiación solar	838
35693	7	Sololá	710	Panajachel	8	Panajachel	5	Mayo	2023-08-05T00:00:00	2024-11-08T15:00:00	2	Temperatura media	24.9
35694	7	Sololá	710	Panajachel	8	Panajachel	5	Mayo	2023-08-05T00:00:00	2024-11-08T15:00:00	4	Temperatura máxima	26.1
35695	7	Sololá	710	Panajachel	8	Panajachel	5	Mayo	2023-08-05T00:00:00	2024-11-08T15:00:00	3	Temperatura mínima	24.7
35696	7	Sololá	710	Panajachel	8	Panajachel	5	Mayo	2023-08-05T00:00:00	2024-11-08T15:00:00	5	Humedad	74
35697	7	Sololá	710	Panajachel	8	Panajachel	5	Mayo	2023-08-05T00:00:00	2024-11-08T15:00:00	6	Velocidad del viento	4.8
35698	7	Sololá	710	Panajachel	8	Panajachel	5	Mayo	2023-08-05T00:00:00	2024-11-08T15:00:00	7	Dirección del viento	4.83
35699	7	Sololá	710	Panajachel	8	Panajachel	5	Mayo	2023-08-05T00:00:00	2024-11-08T15:00:00	1	Precipitación	0
35700	7	Sololá	710	Panajachel	8	Panajachel	5	Mayo	2023-08-05T00:00:00	2024-11-08T15:00:00	8	Radiación solar	727
35701	7	Sololá	710	Panajachel	8	Panajachel	5	Mayo	2023-08-05T00:00:00	2024-11-08T16:00:00	2	Temperatura media	24.4
35702	7	Sololá	710	Panajachel	8	Panajachel	5	Mayo	2023-08-05T00:00:00	2024-11-08T16:00:00	4	Temperatura máxima	25.3
35703	7	Sololá	710	Panajachel	8	Panajachel	5	Mayo	2023-08-05T00:00:00	2024-11-08T16:00:00	3	Temperatura mínima	24.4
35704	7	Sololá	710	Panajachel	8	Panajachel	5	Mayo	2023-08-05T00:00:00	2024-11-08T16:00:00	5	Humedad	79
35705	7	Sololá	710	Panajachel	8	Panajachel	5	Mayo	2023-08-05T00:00:00	2024-11-08T16:00:00	6	Velocidad del viento	3.2
35706	7	Sololá	710	Panajachel	8	Panajachel	5	Mayo	2023-08-05T00:00:00	2024-11-08T16:00:00	7	Dirección del viento	3.22
35707	7	Sololá	710	Panajachel	8	Panajachel	5	Mayo	2023-08-05T00:00:00	2024-11-08T16:00:00	1	Precipitación	0
35708	7	Sololá	710	Panajachel	8	Panajachel	5	Mayo	2023-08-05T00:00:00	2024-11-08T16:00:00	8	Radiación solar	334
35709	7	Sololá	710	Panajachel	8	Panajachel	5	Mayo	2023-08-05T00:00:00	2024-11-08T17:00:00	2	Temperatura media	23.4
35710	7	Sololá	710	Panajachel	8	Panajachel	5	Mayo	2023-08-05T00:00:00	2024-11-08T17:00:00	4	Temperatura máxima	24.8
35711	7	Sololá	710	Panajachel	8	Panajachel	5	Mayo	2023-08-05T00:00:00	2024-11-08T17:00:00	3	Temperatura mínima	23.4
35712	7	Sololá	710	Panajachel	8	Panajachel	5	Mayo	2023-08-05T00:00:00	2024-11-08T17:00:00	5	Humedad	80
35713	7	Sololá	710	Panajachel	8	Panajachel	5	Mayo	2023-08-05T00:00:00	2024-11-08T17:00:00	6	Velocidad del viento	0
35714	7	Sololá	710	Panajachel	8	Panajachel	5	Mayo	2023-08-05T00:00:00	2024-11-08T17:00:00	7	Dirección del viento	0
35715	7	Sololá	710	Panajachel	8	Panajachel	5	Mayo	2023-08-05T00:00:00	2024-11-08T17:00:00	1	Precipitación	0
35716	7	Sololá	710	Panajachel	8	Panajachel	5	Mayo	2023-08-05T00:00:00	2024-11-08T17:00:00	8	Radiación solar	162
35717	7	Sololá	710	Panajachel	8	Panajachel	5	Mayo	2023-08-05T00:00:00	2024-11-08T18:00:00	2	Temperatura media	22.2
35718	7	Sololá	710	Panajachel	8	Panajachel	5	Mayo	2023-08-05T00:00:00	2024-11-08T18:00:00	4	Temperatura máxima	23.4
35719	7	Sololá	710	Panajachel	8	Panajachel	5	Mayo	2023-08-05T00:00:00	2024-11-08T18:00:00	3	Temperatura mínima	22.2
35720	7	Sololá	710	Panajachel	8	Panajachel	5	Mayo	2023-08-05T00:00:00	2024-11-08T18:00:00	5	Humedad	83
35721	7	Sololá	710	Panajachel	8	Panajachel	5	Mayo	2023-08-05T00:00:00	2024-11-08T18:00:00	6	Velocidad del viento	0
35722	7	Sololá	710	Panajachel	8	Panajachel	5	Mayo	2023-08-05T00:00:00	2024-11-08T18:00:00	7	Dirección del viento	0
35723	7	Sololá	710	Panajachel	8	Panajachel	5	Mayo	2023-08-05T00:00:00	2024-11-08T18:00:00	1	Precipitación	0
35724	7	Sololá	710	Panajachel	8	Panajachel	5	Mayo	2023-08-05T00:00:00	2024-11-08T18:00:00	8	Radiación solar	24
35725	7	Sololá	710	Panajachel	8	Panajachel	5	Mayo	2023-08-05T00:00:00	2024-11-08T19:00:00	2	Temperatura media	22
35726	7	Sololá	710	Panajachel	8	Panajachel	5	Mayo	2023-08-05T00:00:00	2024-11-08T19:00:00	4	Temperatura máxima	22.2
35727	7	Sololá	710	Panajachel	8	Panajachel	5	Mayo	2023-08-05T00:00:00	2024-11-08T19:00:00	3	Temperatura mínima	21.9
35728	7	Sololá	710	Panajachel	8	Panajachel	5	Mayo	2023-08-05T00:00:00	2024-11-08T19:00:00	5	Humedad	84
35729	7	Sololá	710	Panajachel	8	Panajachel	5	Mayo	2023-08-05T00:00:00	2024-11-08T19:00:00	6	Velocidad del viento	0
35730	7	Sololá	710	Panajachel	8	Panajachel	5	Mayo	2023-08-05T00:00:00	2024-11-08T19:00:00	7	Dirección del viento	0
35731	7	Sololá	710	Panajachel	8	Panajachel	5	Mayo	2023-08-05T00:00:00	2024-11-08T19:00:00	1	Precipitación	0
35732	7	Sololá	710	Panajachel	8	Panajachel	5	Mayo	2023-08-05T00:00:00	2024-11-08T19:00:00	8	Radiación solar	0
35733	7	Sololá	710	Panajachel	8	Panajachel	5	Mayo	2023-08-05T00:00:00	2024-11-08T20:00:00	2	Temperatura media	21.7
35734	7	Sololá	710	Panajachel	8	Panajachel	5	Mayo	2023-08-05T00:00:00	2024-11-08T20:00:00	4	Temperatura máxima	22.1
35735	7	Sololá	710	Panajachel	8	Panajachel	5	Mayo	2023-08-05T00:00:00	2024-11-08T20:00:00	3	Temperatura mínima	21.7
35736	7	Sololá	710	Panajachel	8	Panajachel	5	Mayo	2023-08-05T00:00:00	2024-11-08T20:00:00	5	Humedad	86
35737	7	Sololá	710	Panajachel	8	Panajachel	5	Mayo	2023-08-05T00:00:00	2024-11-08T20:00:00	6	Velocidad del viento	0
35738	7	Sololá	710	Panajachel	8	Panajachel	5	Mayo	2023-08-05T00:00:00	2024-11-08T20:00:00	7	Dirección del viento	0
35739	7	Sololá	710	Panajachel	8	Panajachel	5	Mayo	2023-08-05T00:00:00	2024-11-08T20:00:00	1	Precipitación	0
35740	7	Sololá	710	Panajachel	8	Panajachel	5	Mayo	2023-08-05T00:00:00	2024-11-08T20:00:00	8	Radiación solar	0
35741	7	Sololá	710	Panajachel	8	Panajachel	5	Mayo	2023-08-05T00:00:00	2024-11-08T21:00:00	2	Temperatura media	21.2
35742	7	Sololá	710	Panajachel	8	Panajachel	5	Mayo	2023-08-05T00:00:00	2024-11-08T21:00:00	4	Temperatura máxima	21.7
35743	7	Sololá	710	Panajachel	8	Panajachel	5	Mayo	2023-08-05T00:00:00	2024-11-08T21:00:00	3	Temperatura mínima	21.2
35744	7	Sololá	710	Panajachel	8	Panajachel	5	Mayo	2023-08-05T00:00:00	2024-11-08T21:00:00	5	Humedad	85
35745	7	Sololá	710	Panajachel	8	Panajachel	5	Mayo	2023-08-05T00:00:00	2024-11-08T21:00:00	6	Velocidad del viento	0
35746	7	Sololá	710	Panajachel	8	Panajachel	5	Mayo	2023-08-05T00:00:00	2024-11-08T21:00:00	7	Dirección del viento	0
35747	7	Sololá	710	Panajachel	8	Panajachel	5	Mayo	2023-08-05T00:00:00	2024-11-08T21:00:00	1	Precipitación	0
35748	7	Sololá	710	Panajachel	8	Panajachel	5	Mayo	2023-08-05T00:00:00	2024-11-08T21:00:00	8	Radiación solar	0
35749	7	Sololá	710	Panajachel	8	Panajachel	5	Mayo	2023-08-05T00:00:00	2024-11-08T22:00:00	2	Temperatura media	20.6
35750	7	Sololá	710	Panajachel	8	Panajachel	5	Mayo	2023-08-05T00:00:00	2024-11-08T22:00:00	4	Temperatura máxima	21.2
35751	7	Sololá	710	Panajachel	8	Panajachel	5	Mayo	2023-08-05T00:00:00	2024-11-08T22:00:00	3	Temperatura mínima	20.6
35752	7	Sololá	710	Panajachel	8	Panajachel	5	Mayo	2023-08-05T00:00:00	2024-11-08T22:00:00	5	Humedad	81
35753	7	Sololá	710	Panajachel	8	Panajachel	5	Mayo	2023-08-05T00:00:00	2024-11-08T22:00:00	6	Velocidad del viento	0
35754	7	Sololá	710	Panajachel	8	Panajachel	5	Mayo	2023-08-05T00:00:00	2024-11-08T22:00:00	7	Dirección del viento	0
35755	7	Sololá	710	Panajachel	8	Panajachel	5	Mayo	2023-08-05T00:00:00	2024-11-08T22:00:00	1	Precipitación	0
35756	7	Sololá	710	Panajachel	8	Panajachel	5	Mayo	2023-08-05T00:00:00	2024-11-08T22:00:00	8	Radiación solar	0
35757	7	Sololá	710	Panajachel	8	Panajachel	5	Mayo	2023-08-05T00:00:00	2024-11-08T23:00:00	2	Temperatura media	20.7
35758	7	Sololá	710	Panajachel	8	Panajachel	5	Mayo	2023-08-05T00:00:00	2024-11-08T23:00:00	4	Temperatura máxima	21.4
35759	7	Sololá	710	Panajachel	8	Panajachel	5	Mayo	2023-08-05T00:00:00	2024-11-08T23:00:00	3	Temperatura mínima	20.4
35760	7	Sololá	710	Panajachel	8	Panajachel	5	Mayo	2023-08-05T00:00:00	2024-11-08T23:00:00	5	Humedad	74
35761	7	Sololá	710	Panajachel	8	Panajachel	5	Mayo	2023-08-05T00:00:00	2024-11-08T23:00:00	6	Velocidad del viento	0
35762	7	Sololá	710	Panajachel	8	Panajachel	5	Mayo	2023-08-05T00:00:00	2024-11-08T23:00:00	7	Dirección del viento	0
35763	7	Sololá	710	Panajachel	8	Panajachel	5	Mayo	2023-08-05T00:00:00	2024-11-08T23:00:00	1	Precipitación	0
35764	7	Sololá	710	Panajachel	8	Panajachel	5	Mayo	2023-08-05T00:00:00	2024-11-08T23:00:00	8	Radiación solar	0
35765	7	Sololá	710	Panajachel	8	Panajachel	5	Mayo	2023-09-05T00:00:00	2024-11-08T00:00:00	2	Temperatura media	21.7
35766	7	Sololá	710	Panajachel	8	Panajachel	5	Mayo	2023-09-05T00:00:00	2024-11-08T00:00:00	4	Temperatura máxima	21.7
35767	7	Sololá	710	Panajachel	8	Panajachel	5	Mayo	2023-09-05T00:00:00	2024-11-08T00:00:00	3	Temperatura mínima	20.5
35768	7	Sololá	710	Panajachel	8	Panajachel	5	Mayo	2023-09-05T00:00:00	2024-11-08T00:00:00	5	Humedad	67
35769	7	Sololá	710	Panajachel	8	Panajachel	5	Mayo	2023-09-05T00:00:00	2024-11-08T00:00:00	6	Velocidad del viento	3.2
35770	7	Sololá	710	Panajachel	8	Panajachel	5	Mayo	2023-09-05T00:00:00	2024-11-08T00:00:00	7	Dirección del viento	3.22
35771	7	Sololá	710	Panajachel	8	Panajachel	5	Mayo	2023-09-05T00:00:00	2024-11-08T00:00:00	1	Precipitación	0
35772	7	Sololá	710	Panajachel	8	Panajachel	5	Mayo	2023-09-05T00:00:00	2024-11-08T00:00:00	8	Radiación solar	0
35773	7	Sololá	710	Panajachel	8	Panajachel	5	Mayo	2023-09-05T00:00:00	2024-11-08T01:00:00	2	Temperatura media	20.8
35774	7	Sololá	710	Panajachel	8	Panajachel	5	Mayo	2023-09-05T00:00:00	2024-11-08T01:00:00	4	Temperatura máxima	21.7
35775	7	Sololá	710	Panajachel	8	Panajachel	5	Mayo	2023-09-05T00:00:00	2024-11-08T01:00:00	3	Temperatura mínima	20.8
35776	7	Sololá	710	Panajachel	8	Panajachel	5	Mayo	2023-09-05T00:00:00	2024-11-08T01:00:00	5	Humedad	69
35777	7	Sololá	710	Panajachel	8	Panajachel	5	Mayo	2023-09-05T00:00:00	2024-11-08T01:00:00	6	Velocidad del viento	1.6
35778	7	Sololá	710	Panajachel	8	Panajachel	5	Mayo	2023-09-05T00:00:00	2024-11-08T01:00:00	7	Dirección del viento	1.61
35779	7	Sololá	710	Panajachel	8	Panajachel	5	Mayo	2023-09-05T00:00:00	2024-11-08T01:00:00	1	Precipitación	0
35780	7	Sololá	710	Panajachel	8	Panajachel	5	Mayo	2023-09-05T00:00:00	2024-11-08T01:00:00	8	Radiación solar	0
35781	7	Sololá	710	Panajachel	8	Panajachel	5	Mayo	2023-09-05T00:00:00	2024-11-08T02:00:00	2	Temperatura media	18.7
35782	7	Sololá	710	Panajachel	8	Panajachel	5	Mayo	2023-09-05T00:00:00	2024-11-08T02:00:00	4	Temperatura máxima	20.8
35783	7	Sololá	710	Panajachel	8	Panajachel	5	Mayo	2023-09-05T00:00:00	2024-11-08T02:00:00	3	Temperatura mínima	18.7
35784	7	Sololá	710	Panajachel	8	Panajachel	5	Mayo	2023-09-05T00:00:00	2024-11-08T02:00:00	5	Humedad	73
35785	7	Sololá	710	Panajachel	8	Panajachel	5	Mayo	2023-09-05T00:00:00	2024-11-08T02:00:00	6	Velocidad del viento	0
35786	7	Sololá	710	Panajachel	8	Panajachel	5	Mayo	2023-09-05T00:00:00	2024-11-08T02:00:00	7	Dirección del viento	0
35787	7	Sololá	710	Panajachel	8	Panajachel	5	Mayo	2023-09-05T00:00:00	2024-11-08T02:00:00	1	Precipitación	0
35788	7	Sololá	710	Panajachel	8	Panajachel	5	Mayo	2023-09-05T00:00:00	2024-11-08T02:00:00	8	Radiación solar	0
35789	7	Sololá	710	Panajachel	8	Panajachel	5	Mayo	2023-09-05T00:00:00	2024-11-08T03:00:00	2	Temperatura media	17.3
35790	7	Sololá	710	Panajachel	8	Panajachel	5	Mayo	2023-09-05T00:00:00	2024-11-08T03:00:00	4	Temperatura máxima	18.7
35791	7	Sololá	710	Panajachel	8	Panajachel	5	Mayo	2023-09-05T00:00:00	2024-11-08T03:00:00	3	Temperatura mínima	17.3
35792	7	Sololá	710	Panajachel	8	Panajachel	5	Mayo	2023-09-05T00:00:00	2024-11-08T03:00:00	5	Humedad	74
35793	7	Sololá	710	Panajachel	8	Panajachel	5	Mayo	2023-09-05T00:00:00	2024-11-08T03:00:00	6	Velocidad del viento	0
35794	7	Sololá	710	Panajachel	8	Panajachel	5	Mayo	2023-09-05T00:00:00	2024-11-08T03:00:00	7	Dirección del viento	0
35795	7	Sololá	710	Panajachel	8	Panajachel	5	Mayo	2023-09-05T00:00:00	2024-11-08T03:00:00	1	Precipitación	0
35796	7	Sololá	710	Panajachel	8	Panajachel	5	Mayo	2023-09-05T00:00:00	2024-11-08T03:00:00	8	Radiación solar	0
35797	7	Sololá	710	Panajachel	8	Panajachel	5	Mayo	2023-09-05T00:00:00	2024-11-08T04:00:00	2	Temperatura media	17.4
35798	7	Sololá	710	Panajachel	8	Panajachel	5	Mayo	2023-09-05T00:00:00	2024-11-08T04:00:00	4	Temperatura máxima	17.4
35799	7	Sololá	710	Panajachel	8	Panajachel	5	Mayo	2023-09-05T00:00:00	2024-11-08T04:00:00	3	Temperatura mínima	17.2
35800	7	Sololá	710	Panajachel	8	Panajachel	5	Mayo	2023-09-05T00:00:00	2024-11-08T04:00:00	5	Humedad	69
35801	7	Sololá	710	Panajachel	8	Panajachel	5	Mayo	2023-09-05T00:00:00	2024-11-08T04:00:00	6	Velocidad del viento	0
35802	7	Sololá	710	Panajachel	8	Panajachel	5	Mayo	2023-09-05T00:00:00	2024-11-08T04:00:00	7	Dirección del viento	0
35803	7	Sololá	710	Panajachel	8	Panajachel	5	Mayo	2023-09-05T00:00:00	2024-11-08T04:00:00	1	Precipitación	0
35804	7	Sololá	710	Panajachel	8	Panajachel	5	Mayo	2023-09-05T00:00:00	2024-11-08T04:00:00	8	Radiación solar	0
35805	7	Sololá	710	Panajachel	8	Panajachel	5	Mayo	2023-09-05T00:00:00	2024-11-08T05:00:00	2	Temperatura media	17.1
35806	7	Sololá	710	Panajachel	8	Panajachel	5	Mayo	2023-09-05T00:00:00	2024-11-08T05:00:00	4	Temperatura máxima	17.6
35807	7	Sololá	710	Panajachel	8	Panajachel	5	Mayo	2023-09-05T00:00:00	2024-11-08T05:00:00	3	Temperatura mínima	17.1
35808	7	Sololá	710	Panajachel	8	Panajachel	5	Mayo	2023-09-05T00:00:00	2024-11-08T05:00:00	5	Humedad	62
35809	7	Sololá	710	Panajachel	8	Panajachel	5	Mayo	2023-09-05T00:00:00	2024-11-08T05:00:00	6	Velocidad del viento	1.6
35810	7	Sololá	710	Panajachel	8	Panajachel	5	Mayo	2023-09-05T00:00:00	2024-11-08T05:00:00	7	Dirección del viento	1.61
35811	7	Sololá	710	Panajachel	8	Panajachel	5	Mayo	2023-09-05T00:00:00	2024-11-08T05:00:00	1	Precipitación	0
35812	7	Sololá	710	Panajachel	8	Panajachel	5	Mayo	2023-09-05T00:00:00	2024-11-08T05:00:00	8	Radiación solar	0
35813	7	Sololá	710	Panajachel	8	Panajachel	5	Mayo	2023-09-05T00:00:00	2024-11-08T06:00:00	2	Temperatura media	17.3
35814	7	Sololá	710	Panajachel	8	Panajachel	5	Mayo	2023-09-05T00:00:00	2024-11-08T06:00:00	4	Temperatura máxima	17.5
35815	7	Sololá	710	Panajachel	8	Panajachel	5	Mayo	2023-09-05T00:00:00	2024-11-08T06:00:00	3	Temperatura mínima	17.1
35816	7	Sololá	710	Panajachel	8	Panajachel	5	Mayo	2023-09-05T00:00:00	2024-11-08T06:00:00	5	Humedad	56
35817	7	Sololá	710	Panajachel	8	Panajachel	5	Mayo	2023-09-05T00:00:00	2024-11-08T06:00:00	6	Velocidad del viento	0
35818	7	Sololá	710	Panajachel	8	Panajachel	5	Mayo	2023-09-05T00:00:00	2024-11-08T06:00:00	7	Dirección del viento	0
35819	7	Sololá	710	Panajachel	8	Panajachel	5	Mayo	2023-09-05T00:00:00	2024-11-08T06:00:00	1	Precipitación	0
35820	7	Sololá	710	Panajachel	8	Panajachel	5	Mayo	2023-09-05T00:00:00	2024-11-08T06:00:00	8	Radiación solar	4
35821	7	Sololá	710	Panajachel	8	Panajachel	5	Mayo	2023-09-05T00:00:00	2024-11-08T07:00:00	2	Temperatura media	18.5
35822	7	Sololá	710	Panajachel	8	Panajachel	5	Mayo	2023-09-05T00:00:00	2024-11-08T07:00:00	4	Temperatura máxima	18.5
35823	7	Sololá	710	Panajachel	8	Panajachel	5	Mayo	2023-09-05T00:00:00	2024-11-08T07:00:00	3	Temperatura mínima	17.3
35824	7	Sololá	710	Panajachel	8	Panajachel	5	Mayo	2023-09-05T00:00:00	2024-11-08T07:00:00	5	Humedad	58
35825	7	Sololá	710	Panajachel	8	Panajachel	5	Mayo	2023-09-05T00:00:00	2024-11-08T07:00:00	6	Velocidad del viento	0
35826	7	Sololá	710	Panajachel	8	Panajachel	5	Mayo	2023-09-05T00:00:00	2024-11-08T07:00:00	7	Dirección del viento	0
35827	7	Sololá	710	Panajachel	8	Panajachel	5	Mayo	2023-09-05T00:00:00	2024-11-08T07:00:00	1	Precipitación	0
35828	7	Sololá	710	Panajachel	8	Panajachel	5	Mayo	2023-09-05T00:00:00	2024-11-08T07:00:00	8	Radiación solar	106
35829	7	Sololá	710	Panajachel	8	Panajachel	5	Mayo	2023-09-05T00:00:00	2024-11-08T08:00:00	2	Temperatura media	21.2
35830	7	Sololá	710	Panajachel	8	Panajachel	5	Mayo	2023-09-05T00:00:00	2024-11-08T08:00:00	4	Temperatura máxima	21.2
35831	7	Sololá	710	Panajachel	8	Panajachel	5	Mayo	2023-09-05T00:00:00	2024-11-08T08:00:00	3	Temperatura mínima	18.5
35832	7	Sololá	710	Panajachel	8	Panajachel	5	Mayo	2023-09-05T00:00:00	2024-11-08T08:00:00	5	Humedad	58
35833	7	Sololá	710	Panajachel	8	Panajachel	5	Mayo	2023-09-05T00:00:00	2024-11-08T08:00:00	6	Velocidad del viento	0
35834	7	Sololá	710	Panajachel	8	Panajachel	5	Mayo	2023-09-05T00:00:00	2024-11-08T08:00:00	7	Dirección del viento	0
35835	7	Sololá	710	Panajachel	8	Panajachel	5	Mayo	2023-09-05T00:00:00	2024-11-08T08:00:00	1	Precipitación	0
35836	7	Sololá	710	Panajachel	8	Panajachel	5	Mayo	2023-09-05T00:00:00	2024-11-08T08:00:00	8	Radiación solar	289
35837	7	Sololá	710	Panajachel	8	Panajachel	5	Mayo	2023-09-05T00:00:00	2024-11-08T09:00:00	2	Temperatura media	21.7
35838	7	Sololá	710	Panajachel	8	Panajachel	5	Mayo	2023-09-05T00:00:00	2024-11-08T09:00:00	4	Temperatura máxima	22
35839	7	Sololá	710	Panajachel	8	Panajachel	5	Mayo	2023-09-05T00:00:00	2024-11-08T09:00:00	3	Temperatura mínima	20.8
35840	7	Sololá	710	Panajachel	8	Panajachel	5	Mayo	2023-09-05T00:00:00	2024-11-08T09:00:00	5	Humedad	66
35841	7	Sololá	710	Panajachel	8	Panajachel	5	Mayo	2023-09-05T00:00:00	2024-11-08T09:00:00	6	Velocidad del viento	0
35842	7	Sololá	710	Panajachel	8	Panajachel	5	Mayo	2023-09-05T00:00:00	2024-11-08T09:00:00	7	Dirección del viento	0
35843	7	Sololá	710	Panajachel	8	Panajachel	5	Mayo	2023-09-05T00:00:00	2024-11-08T09:00:00	1	Precipitación	0
35844	7	Sololá	710	Panajachel	8	Panajachel	5	Mayo	2023-09-05T00:00:00	2024-11-08T09:00:00	8	Radiación solar	532
35845	7	Sololá	710	Panajachel	8	Panajachel	5	Mayo	2023-09-05T00:00:00	2024-11-08T10:00:00	2	Temperatura media	22.9
35846	7	Sololá	710	Panajachel	8	Panajachel	5	Mayo	2023-09-05T00:00:00	2024-11-08T10:00:00	4	Temperatura máxima	22.9
35847	7	Sololá	710	Panajachel	8	Panajachel	5	Mayo	2023-09-05T00:00:00	2024-11-08T10:00:00	3	Temperatura mínima	21.4
35848	7	Sololá	710	Panajachel	8	Panajachel	5	Mayo	2023-09-05T00:00:00	2024-11-08T10:00:00	5	Humedad	63
35849	7	Sololá	710	Panajachel	8	Panajachel	5	Mayo	2023-09-05T00:00:00	2024-11-08T10:00:00	6	Velocidad del viento	0
35850	7	Sololá	710	Panajachel	8	Panajachel	5	Mayo	2023-09-05T00:00:00	2024-11-08T10:00:00	7	Dirección del viento	0
35851	7	Sololá	710	Panajachel	8	Panajachel	5	Mayo	2023-09-05T00:00:00	2024-11-08T10:00:00	1	Precipitación	0
35852	7	Sololá	710	Panajachel	8	Panajachel	5	Mayo	2023-09-05T00:00:00	2024-11-08T10:00:00	8	Radiación solar	727
35853	7	Sololá	710	Panajachel	8	Panajachel	5	Mayo	2023-09-05T00:00:00	2024-11-08T11:00:00	2	Temperatura media	23.3
35854	7	Sololá	710	Panajachel	8	Panajachel	5	Mayo	2023-09-05T00:00:00	2024-11-08T11:00:00	4	Temperatura máxima	24.6
35855	7	Sololá	710	Panajachel	8	Panajachel	5	Mayo	2023-09-05T00:00:00	2024-11-08T11:00:00	3	Temperatura mínima	22.9
35856	7	Sololá	710	Panajachel	8	Panajachel	5	Mayo	2023-09-05T00:00:00	2024-11-08T11:00:00	5	Humedad	58
35857	7	Sololá	710	Panajachel	8	Panajachel	5	Mayo	2023-09-05T00:00:00	2024-11-08T11:00:00	6	Velocidad del viento	0
35858	7	Sololá	710	Panajachel	8	Panajachel	5	Mayo	2023-09-05T00:00:00	2024-11-08T11:00:00	7	Dirección del viento	0
35859	7	Sololá	710	Panajachel	8	Panajachel	5	Mayo	2023-09-05T00:00:00	2024-11-08T11:00:00	1	Precipitación	0
35860	7	Sololá	710	Panajachel	8	Panajachel	5	Mayo	2023-09-05T00:00:00	2024-11-08T11:00:00	8	Radiación solar	865
35861	7	Sololá	710	Panajachel	8	Panajachel	5	Mayo	2023-09-05T00:00:00	2024-11-08T12:00:00	2	Temperatura media	24.6
35862	7	Sololá	710	Panajachel	8	Panajachel	5	Mayo	2023-09-05T00:00:00	2024-11-08T12:00:00	4	Temperatura máxima	24.7
35863	7	Sololá	710	Panajachel	8	Panajachel	5	Mayo	2023-09-05T00:00:00	2024-11-08T12:00:00	3	Temperatura mínima	23.2
35864	7	Sololá	710	Panajachel	8	Panajachel	5	Mayo	2023-09-05T00:00:00	2024-11-08T12:00:00	5	Humedad	60
35865	7	Sololá	710	Panajachel	8	Panajachel	5	Mayo	2023-09-05T00:00:00	2024-11-08T12:00:00	6	Velocidad del viento	0
35866	7	Sololá	710	Panajachel	8	Panajachel	5	Mayo	2023-09-05T00:00:00	2024-11-08T12:00:00	7	Dirección del viento	0
35867	7	Sololá	710	Panajachel	8	Panajachel	5	Mayo	2023-09-05T00:00:00	2024-11-08T12:00:00	1	Precipitación	0
35868	7	Sololá	710	Panajachel	8	Panajachel	5	Mayo	2023-09-05T00:00:00	2024-11-08T12:00:00	8	Radiación solar	928
35869	7	Sololá	710	Panajachel	8	Panajachel	5	Mayo	2023-09-05T00:00:00	2024-11-08T13:00:00	2	Temperatura media	24.4
35870	7	Sololá	710	Panajachel	8	Panajachel	5	Mayo	2023-09-05T00:00:00	2024-11-08T13:00:00	4	Temperatura máxima	25.3
35871	7	Sololá	710	Panajachel	8	Panajachel	5	Mayo	2023-09-05T00:00:00	2024-11-08T13:00:00	3	Temperatura mínima	24.3
35872	7	Sololá	710	Panajachel	8	Panajachel	5	Mayo	2023-09-05T00:00:00	2024-11-08T13:00:00	5	Humedad	75
35873	7	Sololá	710	Panajachel	8	Panajachel	5	Mayo	2023-09-05T00:00:00	2024-11-08T13:00:00	6	Velocidad del viento	3.2
35874	7	Sololá	710	Panajachel	8	Panajachel	5	Mayo	2023-09-05T00:00:00	2024-11-08T13:00:00	7	Dirección del viento	3.22
35875	7	Sololá	710	Panajachel	8	Panajachel	5	Mayo	2023-09-05T00:00:00	2024-11-08T13:00:00	1	Precipitación	0
35876	7	Sololá	710	Panajachel	8	Panajachel	5	Mayo	2023-09-05T00:00:00	2024-11-08T13:00:00	8	Radiación solar	821
35877	7	Sololá	710	Panajachel	8	Panajachel	5	Mayo	2023-09-05T00:00:00	2024-11-08T14:00:00	2	Temperatura media	24.4
35878	7	Sololá	710	Panajachel	8	Panajachel	5	Mayo	2023-09-05T00:00:00	2024-11-08T14:00:00	4	Temperatura máxima	25
35879	7	Sololá	710	Panajachel	8	Panajachel	5	Mayo	2023-09-05T00:00:00	2024-11-08T14:00:00	3	Temperatura mínima	24
35880	7	Sololá	710	Panajachel	8	Panajachel	5	Mayo	2023-09-05T00:00:00	2024-11-08T14:00:00	5	Humedad	76
35881	7	Sololá	710	Panajachel	8	Panajachel	5	Mayo	2023-09-05T00:00:00	2024-11-08T14:00:00	6	Velocidad del viento	3.2
35882	7	Sololá	710	Panajachel	8	Panajachel	5	Mayo	2023-09-05T00:00:00	2024-11-08T14:00:00	7	Dirección del viento	3.22
35883	7	Sololá	710	Panajachel	8	Panajachel	5	Mayo	2023-09-05T00:00:00	2024-11-08T14:00:00	1	Precipitación	0
35884	7	Sololá	710	Panajachel	8	Panajachel	5	Mayo	2023-09-05T00:00:00	2024-11-08T14:00:00	8	Radiación solar	521
35885	7	Sololá	710	Panajachel	8	Panajachel	5	Mayo	2023-09-05T00:00:00	2024-11-08T15:00:00	2	Temperatura media	23.8
35886	7	Sololá	710	Panajachel	8	Panajachel	5	Mayo	2023-09-05T00:00:00	2024-11-08T15:00:00	4	Temperatura máxima	24.6
35887	7	Sololá	710	Panajachel	8	Panajachel	5	Mayo	2023-09-05T00:00:00	2024-11-08T15:00:00	3	Temperatura mínima	23.8
35888	7	Sololá	710	Panajachel	8	Panajachel	5	Mayo	2023-09-05T00:00:00	2024-11-08T15:00:00	5	Humedad	79
35889	7	Sololá	710	Panajachel	8	Panajachel	5	Mayo	2023-09-05T00:00:00	2024-11-08T15:00:00	6	Velocidad del viento	3.2
35890	7	Sololá	710	Panajachel	8	Panajachel	5	Mayo	2023-09-05T00:00:00	2024-11-08T15:00:00	7	Dirección del viento	3.22
35891	7	Sololá	710	Panajachel	8	Panajachel	5	Mayo	2023-09-05T00:00:00	2024-11-08T15:00:00	1	Precipitación	0
35892	7	Sololá	710	Panajachel	8	Panajachel	5	Mayo	2023-09-05T00:00:00	2024-11-08T15:00:00	8	Radiación solar	499
35893	7	Sololá	710	Panajachel	8	Panajachel	5	Mayo	2023-09-05T00:00:00	2024-11-08T16:00:00	2	Temperatura media	23.8
35894	7	Sololá	710	Panajachel	8	Panajachel	5	Mayo	2023-09-05T00:00:00	2024-11-08T16:00:00	4	Temperatura máxima	24.9
35895	7	Sololá	710	Panajachel	8	Panajachel	5	Mayo	2023-09-05T00:00:00	2024-11-08T16:00:00	3	Temperatura mínima	23.8
35896	7	Sololá	710	Panajachel	8	Panajachel	5	Mayo	2023-09-05T00:00:00	2024-11-08T16:00:00	5	Humedad	77
35897	7	Sololá	710	Panajachel	8	Panajachel	5	Mayo	2023-09-05T00:00:00	2024-11-08T16:00:00	6	Velocidad del viento	1.6
35898	7	Sololá	710	Panajachel	8	Panajachel	5	Mayo	2023-09-05T00:00:00	2024-11-08T16:00:00	7	Dirección del viento	1.61
35899	7	Sololá	710	Panajachel	8	Panajachel	5	Mayo	2023-09-05T00:00:00	2024-11-08T16:00:00	1	Precipitación	0
35900	7	Sololá	710	Panajachel	8	Panajachel	5	Mayo	2023-09-05T00:00:00	2024-11-08T16:00:00	8	Radiación solar	336
35901	7	Sololá	710	Panajachel	8	Panajachel	5	Mayo	2023-09-05T00:00:00	2024-11-08T17:00:00	2	Temperatura media	21.6
35902	7	Sololá	710	Panajachel	8	Panajachel	5	Mayo	2023-09-05T00:00:00	2024-11-08T17:00:00	4	Temperatura máxima	23.8
35903	7	Sololá	710	Panajachel	8	Panajachel	5	Mayo	2023-09-05T00:00:00	2024-11-08T17:00:00	3	Temperatura mínima	21.6
35904	7	Sololá	710	Panajachel	8	Panajachel	5	Mayo	2023-09-05T00:00:00	2024-11-08T17:00:00	5	Humedad	88
35905	7	Sololá	710	Panajachel	8	Panajachel	5	Mayo	2023-09-05T00:00:00	2024-11-08T17:00:00	6	Velocidad del viento	3.2
35906	7	Sololá	710	Panajachel	8	Panajachel	5	Mayo	2023-09-05T00:00:00	2024-11-08T17:00:00	7	Dirección del viento	3.22
35907	7	Sololá	710	Panajachel	8	Panajachel	5	Mayo	2023-09-05T00:00:00	2024-11-08T17:00:00	1	Precipitación	0
35908	7	Sololá	710	Panajachel	8	Panajachel	5	Mayo	2023-09-05T00:00:00	2024-11-08T17:00:00	8	Radiación solar	107
35909	7	Sololá	710	Panajachel	8	Panajachel	5	Mayo	2023-09-05T00:00:00	2024-11-08T18:00:00	2	Temperatura media	21.2
35910	7	Sololá	710	Panajachel	8	Panajachel	5	Mayo	2023-09-05T00:00:00	2024-11-08T18:00:00	4	Temperatura máxima	21.7
35911	7	Sololá	710	Panajachel	8	Panajachel	5	Mayo	2023-09-05T00:00:00	2024-11-08T18:00:00	3	Temperatura mínima	21.2
35912	7	Sololá	710	Panajachel	8	Panajachel	5	Mayo	2023-09-05T00:00:00	2024-11-08T18:00:00	5	Humedad	89
35913	7	Sololá	710	Panajachel	8	Panajachel	5	Mayo	2023-09-05T00:00:00	2024-11-08T18:00:00	6	Velocidad del viento	0
35914	7	Sololá	710	Panajachel	8	Panajachel	5	Mayo	2023-09-05T00:00:00	2024-11-08T18:00:00	7	Dirección del viento	0
35915	7	Sololá	710	Panajachel	8	Panajachel	5	Mayo	2023-09-05T00:00:00	2024-11-08T18:00:00	1	Precipitación	0
35916	7	Sololá	710	Panajachel	8	Panajachel	5	Mayo	2023-09-05T00:00:00	2024-11-08T18:00:00	8	Radiación solar	9
35917	7	Sololá	710	Panajachel	8	Panajachel	5	Mayo	2023-09-05T00:00:00	2024-11-08T19:00:00	2	Temperatura media	21.1
35918	7	Sololá	710	Panajachel	8	Panajachel	5	Mayo	2023-09-05T00:00:00	2024-11-08T19:00:00	4	Temperatura máxima	21.2
35919	7	Sololá	710	Panajachel	8	Panajachel	5	Mayo	2023-09-05T00:00:00	2024-11-08T19:00:00	3	Temperatura mínima	21
35920	7	Sololá	710	Panajachel	8	Panajachel	5	Mayo	2023-09-05T00:00:00	2024-11-08T19:00:00	5	Humedad	88
35921	7	Sololá	710	Panajachel	8	Panajachel	5	Mayo	2023-09-05T00:00:00	2024-11-08T19:00:00	6	Velocidad del viento	0
35922	7	Sololá	710	Panajachel	8	Panajachel	5	Mayo	2023-09-05T00:00:00	2024-11-08T19:00:00	7	Dirección del viento	0
35923	7	Sololá	710	Panajachel	8	Panajachel	5	Mayo	2023-09-05T00:00:00	2024-11-08T19:00:00	1	Precipitación	0
35924	7	Sololá	710	Panajachel	8	Panajachel	5	Mayo	2023-09-05T00:00:00	2024-11-08T19:00:00	8	Radiación solar	0
35925	7	Sololá	710	Panajachel	8	Panajachel	5	Mayo	2023-09-05T00:00:00	2024-11-08T20:00:00	2	Temperatura media	20.9
35926	7	Sololá	710	Panajachel	8	Panajachel	5	Mayo	2023-09-05T00:00:00	2024-11-08T20:00:00	4	Temperatura máxima	21.2
35927	7	Sololá	710	Panajachel	8	Panajachel	5	Mayo	2023-09-05T00:00:00	2024-11-08T20:00:00	3	Temperatura mínima	20.9
35928	7	Sololá	710	Panajachel	8	Panajachel	5	Mayo	2023-09-05T00:00:00	2024-11-08T20:00:00	5	Humedad	89
35929	7	Sololá	710	Panajachel	8	Panajachel	5	Mayo	2023-09-05T00:00:00	2024-11-08T20:00:00	6	Velocidad del viento	0
35930	7	Sololá	710	Panajachel	8	Panajachel	5	Mayo	2023-09-05T00:00:00	2024-11-08T20:00:00	7	Dirección del viento	0
35931	7	Sololá	710	Panajachel	8	Panajachel	5	Mayo	2023-09-05T00:00:00	2024-11-08T20:00:00	1	Precipitación	0
35932	7	Sololá	710	Panajachel	8	Panajachel	5	Mayo	2023-09-05T00:00:00	2024-11-08T20:00:00	8	Radiación solar	0
35933	7	Sololá	710	Panajachel	8	Panajachel	5	Mayo	2023-09-05T00:00:00	2024-11-08T21:00:00	2	Temperatura media	21
35934	7	Sololá	710	Panajachel	8	Panajachel	5	Mayo	2023-09-05T00:00:00	2024-11-08T21:00:00	4	Temperatura máxima	21.1
35935	7	Sololá	710	Panajachel	8	Panajachel	5	Mayo	2023-09-05T00:00:00	2024-11-08T21:00:00	3	Temperatura mínima	20.8
35936	7	Sololá	710	Panajachel	8	Panajachel	5	Mayo	2023-09-05T00:00:00	2024-11-08T21:00:00	5	Humedad	88
35937	7	Sololá	710	Panajachel	8	Panajachel	5	Mayo	2023-09-05T00:00:00	2024-11-08T21:00:00	6	Velocidad del viento	0
35938	7	Sololá	710	Panajachel	8	Panajachel	5	Mayo	2023-09-05T00:00:00	2024-11-08T21:00:00	7	Dirección del viento	0
35939	7	Sololá	710	Panajachel	8	Panajachel	5	Mayo	2023-09-05T00:00:00	2024-11-08T21:00:00	1	Precipitación	0
35940	7	Sololá	710	Panajachel	8	Panajachel	5	Mayo	2023-09-05T00:00:00	2024-11-08T21:00:00	8	Radiación solar	0
35941	7	Sololá	710	Panajachel	8	Panajachel	5	Mayo	2023-09-05T00:00:00	2024-11-08T22:00:00	2	Temperatura media	20.9
35942	7	Sololá	710	Panajachel	8	Panajachel	5	Mayo	2023-09-05T00:00:00	2024-11-08T22:00:00	4	Temperatura máxima	21
35943	7	Sololá	710	Panajachel	8	Panajachel	5	Mayo	2023-09-05T00:00:00	2024-11-08T22:00:00	3	Temperatura mínima	20.9
35944	7	Sololá	710	Panajachel	8	Panajachel	5	Mayo	2023-09-05T00:00:00	2024-11-08T22:00:00	5	Humedad	87
35945	7	Sololá	710	Panajachel	8	Panajachel	5	Mayo	2023-09-05T00:00:00	2024-11-08T22:00:00	6	Velocidad del viento	0
35946	7	Sololá	710	Panajachel	8	Panajachel	5	Mayo	2023-09-05T00:00:00	2024-11-08T22:00:00	7	Dirección del viento	0
35947	7	Sololá	710	Panajachel	8	Panajachel	5	Mayo	2023-09-05T00:00:00	2024-11-08T22:00:00	1	Precipitación	0
35948	7	Sololá	710	Panajachel	8	Panajachel	5	Mayo	2023-09-05T00:00:00	2024-11-08T22:00:00	8	Radiación solar	0
35949	7	Sololá	710	Panajachel	8	Panajachel	5	Mayo	2023-09-05T00:00:00	2024-11-08T23:00:00	2	Temperatura media	20.7
35950	7	Sololá	710	Panajachel	8	Panajachel	5	Mayo	2023-09-05T00:00:00	2024-11-08T23:00:00	4	Temperatura máxima	20.9
35951	7	Sololá	710	Panajachel	8	Panajachel	5	Mayo	2023-09-05T00:00:00	2024-11-08T23:00:00	3	Temperatura mínima	20.7
35952	7	Sololá	710	Panajachel	8	Panajachel	5	Mayo	2023-09-05T00:00:00	2024-11-08T23:00:00	5	Humedad	89
35953	7	Sololá	710	Panajachel	8	Panajachel	5	Mayo	2023-09-05T00:00:00	2024-11-08T23:00:00	6	Velocidad del viento	0
35954	7	Sololá	710	Panajachel	8	Panajachel	5	Mayo	2023-09-05T00:00:00	2024-11-08T23:00:00	7	Dirección del viento	0
35955	7	Sololá	710	Panajachel	8	Panajachel	5	Mayo	2023-09-05T00:00:00	2024-11-08T23:00:00	1	Precipitación	0
35956	7	Sololá	710	Panajachel	8	Panajachel	5	Mayo	2023-09-05T00:00:00	2024-11-08T23:00:00	8	Radiación solar	0
35957	7	Sololá	710	Panajachel	8	Panajachel	5	Mayo	2023-10-05T00:00:00	2024-11-08T00:00:00	2	Temperatura media	20.3
35958	7	Sololá	710	Panajachel	8	Panajachel	5	Mayo	2023-10-05T00:00:00	2024-11-08T00:00:00	4	Temperatura máxima	20.7
35959	7	Sololá	710	Panajachel	8	Panajachel	5	Mayo	2023-10-05T00:00:00	2024-11-08T00:00:00	3	Temperatura mínima	20.3
35960	7	Sololá	710	Panajachel	8	Panajachel	5	Mayo	2023-10-05T00:00:00	2024-11-08T00:00:00	5	Humedad	92
35961	7	Sololá	710	Panajachel	8	Panajachel	5	Mayo	2023-10-05T00:00:00	2024-11-08T00:00:00	6	Velocidad del viento	0
35962	7	Sololá	710	Panajachel	8	Panajachel	5	Mayo	2023-10-05T00:00:00	2024-11-08T00:00:00	7	Dirección del viento	0
35963	7	Sololá	710	Panajachel	8	Panajachel	5	Mayo	2023-10-05T00:00:00	2024-11-08T00:00:00	1	Precipitación	0.2
35964	7	Sololá	710	Panajachel	8	Panajachel	5	Mayo	2023-10-05T00:00:00	2024-11-08T00:00:00	8	Radiación solar	0
35965	7	Sololá	710	Panajachel	8	Panajachel	5	Mayo	2023-10-05T00:00:00	2024-11-08T01:00:00	2	Temperatura media	20
35966	7	Sololá	710	Panajachel	8	Panajachel	5	Mayo	2023-10-05T00:00:00	2024-11-08T01:00:00	4	Temperatura máxima	20.3
35967	7	Sololá	710	Panajachel	8	Panajachel	5	Mayo	2023-10-05T00:00:00	2024-11-08T01:00:00	3	Temperatura mínima	20
35968	7	Sololá	710	Panajachel	8	Panajachel	5	Mayo	2023-10-05T00:00:00	2024-11-08T01:00:00	5	Humedad	93
35969	7	Sololá	710	Panajachel	8	Panajachel	5	Mayo	2023-10-05T00:00:00	2024-11-08T01:00:00	6	Velocidad del viento	0
35970	7	Sololá	710	Panajachel	8	Panajachel	5	Mayo	2023-10-05T00:00:00	2024-11-08T01:00:00	7	Dirección del viento	0
35971	7	Sololá	710	Panajachel	8	Panajachel	5	Mayo	2023-10-05T00:00:00	2024-11-08T01:00:00	1	Precipitación	0
35972	7	Sololá	710	Panajachel	8	Panajachel	5	Mayo	2023-10-05T00:00:00	2024-11-08T01:00:00	8	Radiación solar	0
35973	7	Sololá	710	Panajachel	8	Panajachel	5	Mayo	2023-10-05T00:00:00	2024-11-08T02:00:00	2	Temperatura media	19.6
35974	7	Sololá	710	Panajachel	8	Panajachel	5	Mayo	2023-10-05T00:00:00	2024-11-08T02:00:00	4	Temperatura máxima	20
35975	7	Sololá	710	Panajachel	8	Panajachel	5	Mayo	2023-10-05T00:00:00	2024-11-08T02:00:00	3	Temperatura mínima	19.6
35976	7	Sololá	710	Panajachel	8	Panajachel	5	Mayo	2023-10-05T00:00:00	2024-11-08T02:00:00	5	Humedad	91
35977	7	Sololá	710	Panajachel	8	Panajachel	5	Mayo	2023-10-05T00:00:00	2024-11-08T02:00:00	6	Velocidad del viento	0
35978	7	Sololá	710	Panajachel	8	Panajachel	5	Mayo	2023-10-05T00:00:00	2024-11-08T02:00:00	7	Dirección del viento	0
35979	7	Sololá	710	Panajachel	8	Panajachel	5	Mayo	2023-10-05T00:00:00	2024-11-08T02:00:00	1	Precipitación	0
35980	7	Sololá	710	Panajachel	8	Panajachel	5	Mayo	2023-10-05T00:00:00	2024-11-08T02:00:00	8	Radiación solar	0
35981	7	Sololá	710	Panajachel	8	Panajachel	5	Mayo	2023-10-05T00:00:00	2024-11-08T03:00:00	2	Temperatura media	19.2
35982	7	Sololá	710	Panajachel	8	Panajachel	5	Mayo	2023-10-05T00:00:00	2024-11-08T03:00:00	4	Temperatura máxima	19.7
35983	7	Sololá	710	Panajachel	8	Panajachel	5	Mayo	2023-10-05T00:00:00	2024-11-08T03:00:00	3	Temperatura mínima	19.2
35984	7	Sololá	710	Panajachel	8	Panajachel	5	Mayo	2023-10-05T00:00:00	2024-11-08T03:00:00	5	Humedad	89
35985	7	Sololá	710	Panajachel	8	Panajachel	5	Mayo	2023-10-05T00:00:00	2024-11-08T03:00:00	6	Velocidad del viento	0
35986	7	Sololá	710	Panajachel	8	Panajachel	5	Mayo	2023-10-05T00:00:00	2024-11-08T03:00:00	7	Dirección del viento	0
35987	7	Sololá	710	Panajachel	8	Panajachel	5	Mayo	2023-10-05T00:00:00	2024-11-08T03:00:00	1	Precipitación	0
35988	7	Sololá	710	Panajachel	8	Panajachel	5	Mayo	2023-10-05T00:00:00	2024-11-08T03:00:00	8	Radiación solar	0
35989	7	Sololá	710	Panajachel	8	Panajachel	5	Mayo	2023-10-05T00:00:00	2024-11-08T04:00:00	2	Temperatura media	18.4
35990	7	Sololá	710	Panajachel	8	Panajachel	5	Mayo	2023-10-05T00:00:00	2024-11-08T04:00:00	4	Temperatura máxima	19.2
35991	7	Sololá	710	Panajachel	8	Panajachel	5	Mayo	2023-10-05T00:00:00	2024-11-08T04:00:00	3	Temperatura mínima	18.4
35992	7	Sololá	710	Panajachel	8	Panajachel	5	Mayo	2023-10-05T00:00:00	2024-11-08T04:00:00	5	Humedad	88
35993	7	Sololá	710	Panajachel	8	Panajachel	5	Mayo	2023-10-05T00:00:00	2024-11-08T04:00:00	6	Velocidad del viento	0
35994	7	Sololá	710	Panajachel	8	Panajachel	5	Mayo	2023-10-05T00:00:00	2024-11-08T04:00:00	7	Dirección del viento	0
35995	7	Sololá	710	Panajachel	8	Panajachel	5	Mayo	2023-10-05T00:00:00	2024-11-08T04:00:00	1	Precipitación	0
35996	7	Sololá	710	Panajachel	8	Panajachel	5	Mayo	2023-10-05T00:00:00	2024-11-08T04:00:00	8	Radiación solar	0
35997	7	Sololá	710	Panajachel	8	Panajachel	5	Mayo	2023-10-05T00:00:00	2024-11-08T05:00:00	2	Temperatura media	18
35998	7	Sololá	710	Panajachel	8	Panajachel	5	Mayo	2023-10-05T00:00:00	2024-11-08T05:00:00	4	Temperatura máxima	18.4
35999	7	Sololá	710	Panajachel	8	Panajachel	5	Mayo	2023-10-05T00:00:00	2024-11-08T05:00:00	3	Temperatura mínima	17.9
36000	7	Sololá	710	Panajachel	8	Panajachel	5	Mayo	2023-10-05T00:00:00	2024-11-08T05:00:00	5	Humedad	88
36001	7	Sololá	710	Panajachel	8	Panajachel	5	Mayo	2023-10-05T00:00:00	2024-11-08T05:00:00	6	Velocidad del viento	1.6
36002	7	Sololá	710	Panajachel	8	Panajachel	5	Mayo	2023-10-05T00:00:00	2024-11-08T05:00:00	7	Dirección del viento	1.61
36003	7	Sololá	710	Panajachel	8	Panajachel	5	Mayo	2023-10-05T00:00:00	2024-11-08T05:00:00	1	Precipitación	0
36004	7	Sololá	710	Panajachel	8	Panajachel	5	Mayo	2023-10-05T00:00:00	2024-11-08T05:00:00	8	Radiación solar	0
36005	7	Sololá	710	Panajachel	8	Panajachel	5	Mayo	2023-10-05T00:00:00	2024-11-08T06:00:00	2	Temperatura media	18
36006	7	Sololá	710	Panajachel	8	Panajachel	5	Mayo	2023-10-05T00:00:00	2024-11-08T06:00:00	4	Temperatura máxima	18.2
36007	7	Sololá	710	Panajachel	8	Panajachel	5	Mayo	2023-10-05T00:00:00	2024-11-08T06:00:00	3	Temperatura mínima	17.8
36008	7	Sololá	710	Panajachel	8	Panajachel	5	Mayo	2023-10-05T00:00:00	2024-11-08T06:00:00	5	Humedad	86
36009	7	Sololá	710	Panajachel	8	Panajachel	5	Mayo	2023-10-05T00:00:00	2024-11-08T06:00:00	6	Velocidad del viento	0
36010	7	Sololá	710	Panajachel	8	Panajachel	5	Mayo	2023-10-05T00:00:00	2024-11-08T06:00:00	7	Dirección del viento	0
36011	7	Sololá	710	Panajachel	8	Panajachel	5	Mayo	2023-10-05T00:00:00	2024-11-08T06:00:00	1	Precipitación	0
36012	7	Sololá	710	Panajachel	8	Panajachel	5	Mayo	2023-10-05T00:00:00	2024-11-08T06:00:00	8	Radiación solar	3
36013	7	Sololá	710	Panajachel	8	Panajachel	5	Mayo	2023-10-05T00:00:00	2024-11-08T07:00:00	2	Temperatura media	19.1
36014	7	Sololá	710	Panajachel	8	Panajachel	5	Mayo	2023-10-05T00:00:00	2024-11-08T07:00:00	4	Temperatura máxima	19.1
36015	7	Sololá	710	Panajachel	8	Panajachel	5	Mayo	2023-10-05T00:00:00	2024-11-08T07:00:00	3	Temperatura mínima	18
36016	7	Sololá	710	Panajachel	8	Panajachel	5	Mayo	2023-10-05T00:00:00	2024-11-08T07:00:00	5	Humedad	83
36017	7	Sololá	710	Panajachel	8	Panajachel	5	Mayo	2023-10-05T00:00:00	2024-11-08T07:00:00	6	Velocidad del viento	0
36018	7	Sololá	710	Panajachel	8	Panajachel	5	Mayo	2023-10-05T00:00:00	2024-11-08T07:00:00	7	Dirección del viento	0
36019	7	Sololá	710	Panajachel	8	Panajachel	5	Mayo	2023-10-05T00:00:00	2024-11-08T07:00:00	1	Precipitación	0
36020	7	Sololá	710	Panajachel	8	Panajachel	5	Mayo	2023-10-05T00:00:00	2024-11-08T07:00:00	8	Radiación solar	72
36021	7	Sololá	710	Panajachel	8	Panajachel	5	Mayo	2023-10-05T00:00:00	2024-11-08T08:00:00	2	Temperatura media	21.7
36022	7	Sololá	710	Panajachel	8	Panajachel	5	Mayo	2023-10-05T00:00:00	2024-11-08T08:00:00	4	Temperatura máxima	21.7
36023	7	Sololá	710	Panajachel	8	Panajachel	5	Mayo	2023-10-05T00:00:00	2024-11-08T08:00:00	3	Temperatura mínima	19.1
36024	7	Sololá	710	Panajachel	8	Panajachel	5	Mayo	2023-10-05T00:00:00	2024-11-08T08:00:00	5	Humedad	78
36025	7	Sololá	710	Panajachel	8	Panajachel	5	Mayo	2023-10-05T00:00:00	2024-11-08T08:00:00	6	Velocidad del viento	0
36026	7	Sololá	710	Panajachel	8	Panajachel	5	Mayo	2023-10-05T00:00:00	2024-11-08T08:00:00	7	Dirección del viento	0
36027	7	Sololá	710	Panajachel	8	Panajachel	5	Mayo	2023-10-05T00:00:00	2024-11-08T08:00:00	1	Precipitación	0
36028	7	Sololá	710	Panajachel	8	Panajachel	5	Mayo	2023-10-05T00:00:00	2024-11-08T08:00:00	8	Radiación solar	209
36029	7	Sololá	710	Panajachel	8	Panajachel	5	Mayo	2023-10-05T00:00:00	2024-11-08T09:00:00	2	Temperatura media	22.8
36030	7	Sololá	710	Panajachel	8	Panajachel	5	Mayo	2023-10-05T00:00:00	2024-11-08T09:00:00	4	Temperatura máxima	22.8
36031	7	Sololá	710	Panajachel	8	Panajachel	5	Mayo	2023-10-05T00:00:00	2024-11-08T09:00:00	3	Temperatura mínima	21.6
36032	7	Sololá	710	Panajachel	8	Panajachel	5	Mayo	2023-10-05T00:00:00	2024-11-08T09:00:00	5	Humedad	79
36033	7	Sololá	710	Panajachel	8	Panajachel	5	Mayo	2023-10-05T00:00:00	2024-11-08T09:00:00	6	Velocidad del viento	0
36034	7	Sololá	710	Panajachel	8	Panajachel	5	Mayo	2023-10-05T00:00:00	2024-11-08T09:00:00	7	Dirección del viento	0
36035	7	Sololá	710	Panajachel	8	Panajachel	5	Mayo	2023-10-05T00:00:00	2024-11-08T09:00:00	1	Precipitación	0
36036	7	Sololá	710	Panajachel	8	Panajachel	5	Mayo	2023-10-05T00:00:00	2024-11-08T09:00:00	8	Radiación solar	432
36037	7	Sololá	710	Panajachel	8	Panajachel	5	Mayo	2023-10-05T00:00:00	2024-11-08T10:00:00	2	Temperatura media	23.8
36038	7	Sololá	710	Panajachel	8	Panajachel	5	Mayo	2023-10-05T00:00:00	2024-11-08T10:00:00	4	Temperatura máxima	23.8
36039	7	Sololá	710	Panajachel	8	Panajachel	5	Mayo	2023-10-05T00:00:00	2024-11-08T10:00:00	3	Temperatura mínima	22.2
36040	7	Sololá	710	Panajachel	8	Panajachel	5	Mayo	2023-10-05T00:00:00	2024-11-08T10:00:00	5	Humedad	74
36041	7	Sololá	710	Panajachel	8	Panajachel	5	Mayo	2023-10-05T00:00:00	2024-11-08T10:00:00	6	Velocidad del viento	0
36042	7	Sololá	710	Panajachel	8	Panajachel	5	Mayo	2023-10-05T00:00:00	2024-11-08T10:00:00	7	Dirección del viento	0
36043	7	Sololá	710	Panajachel	8	Panajachel	5	Mayo	2023-10-05T00:00:00	2024-11-08T10:00:00	1	Precipitación	0
36044	7	Sololá	710	Panajachel	8	Panajachel	5	Mayo	2023-10-05T00:00:00	2024-11-08T10:00:00	8	Radiación solar	712
36045	7	Sololá	710	Panajachel	8	Panajachel	5	Mayo	2023-10-05T00:00:00	2024-11-08T11:00:00	2	Temperatura media	24
36046	7	Sololá	710	Panajachel	8	Panajachel	5	Mayo	2023-10-05T00:00:00	2024-11-08T11:00:00	4	Temperatura máxima	24.2
36047	7	Sololá	710	Panajachel	8	Panajachel	5	Mayo	2023-10-05T00:00:00	2024-11-08T11:00:00	3	Temperatura mínima	22.7
36048	7	Sololá	710	Panajachel	8	Panajachel	5	Mayo	2023-10-05T00:00:00	2024-11-08T11:00:00	5	Humedad	76
36049	7	Sololá	710	Panajachel	8	Panajachel	5	Mayo	2023-10-05T00:00:00	2024-11-08T11:00:00	6	Velocidad del viento	0
36050	7	Sololá	710	Panajachel	8	Panajachel	5	Mayo	2023-10-05T00:00:00	2024-11-08T11:00:00	7	Dirección del viento	0
36051	7	Sololá	710	Panajachel	8	Panajachel	5	Mayo	2023-10-05T00:00:00	2024-11-08T11:00:00	1	Precipitación	0
36052	7	Sololá	710	Panajachel	8	Panajachel	5	Mayo	2023-10-05T00:00:00	2024-11-08T11:00:00	8	Radiación solar	840
36053	7	Sololá	710	Panajachel	8	Panajachel	5	Mayo	2023-10-05T00:00:00	2024-11-08T12:00:00	2	Temperatura media	23.6
36054	7	Sololá	710	Panajachel	8	Panajachel	5	Mayo	2023-10-05T00:00:00	2024-11-08T12:00:00	4	Temperatura máxima	24.6
36055	7	Sololá	710	Panajachel	8	Panajachel	5	Mayo	2023-10-05T00:00:00	2024-11-08T12:00:00	3	Temperatura mínima	23.5
36056	7	Sololá	710	Panajachel	8	Panajachel	5	Mayo	2023-10-05T00:00:00	2024-11-08T12:00:00	5	Humedad	78
36057	7	Sololá	710	Panajachel	8	Panajachel	5	Mayo	2023-10-05T00:00:00	2024-11-08T12:00:00	6	Velocidad del viento	4.8
36058	7	Sololá	710	Panajachel	8	Panajachel	5	Mayo	2023-10-05T00:00:00	2024-11-08T12:00:00	7	Dirección del viento	4.83
36059	7	Sololá	710	Panajachel	8	Panajachel	5	Mayo	2023-10-05T00:00:00	2024-11-08T12:00:00	1	Precipitación	0
36060	7	Sololá	710	Panajachel	8	Panajachel	5	Mayo	2023-10-05T00:00:00	2024-11-08T12:00:00	8	Radiación solar	818
36061	7	Sololá	710	Panajachel	8	Panajachel	5	Mayo	2023-10-05T00:00:00	2024-11-08T13:00:00	2	Temperatura media	23.6
36062	7	Sololá	710	Panajachel	8	Panajachel	5	Mayo	2023-10-05T00:00:00	2024-11-08T13:00:00	4	Temperatura máxima	24.2
36063	7	Sololá	710	Panajachel	8	Panajachel	5	Mayo	2023-10-05T00:00:00	2024-11-08T13:00:00	3	Temperatura mínima	23.4
36064	7	Sololá	710	Panajachel	8	Panajachel	5	Mayo	2023-10-05T00:00:00	2024-11-08T13:00:00	5	Humedad	79
36065	7	Sololá	710	Panajachel	8	Panajachel	5	Mayo	2023-10-05T00:00:00	2024-11-08T13:00:00	6	Velocidad del viento	3.2
36066	7	Sololá	710	Panajachel	8	Panajachel	5	Mayo	2023-10-05T00:00:00	2024-11-08T13:00:00	7	Dirección del viento	3.22
36067	7	Sololá	710	Panajachel	8	Panajachel	5	Mayo	2023-10-05T00:00:00	2024-11-08T13:00:00	1	Precipitación	0
36068	7	Sololá	710	Panajachel	8	Panajachel	5	Mayo	2023-10-05T00:00:00	2024-11-08T13:00:00	8	Radiación solar	595
36069	7	Sololá	710	Panajachel	8	Panajachel	5	Mayo	2023-10-05T00:00:00	2024-11-08T14:00:00	2	Temperatura media	24.8
36070	7	Sololá	710	Panajachel	8	Panajachel	5	Mayo	2023-10-05T00:00:00	2024-11-08T14:00:00	4	Temperatura máxima	24.8
36071	7	Sololá	710	Panajachel	8	Panajachel	5	Mayo	2023-10-05T00:00:00	2024-11-08T14:00:00	3	Temperatura mínima	23.2
36072	7	Sololá	710	Panajachel	8	Panajachel	5	Mayo	2023-10-05T00:00:00	2024-11-08T14:00:00	5	Humedad	73
36073	7	Sololá	710	Panajachel	8	Panajachel	5	Mayo	2023-10-05T00:00:00	2024-11-08T14:00:00	6	Velocidad del viento	1.6
36074	7	Sololá	710	Panajachel	8	Panajachel	5	Mayo	2023-10-05T00:00:00	2024-11-08T14:00:00	7	Dirección del viento	1.61
36075	7	Sololá	710	Panajachel	8	Panajachel	5	Mayo	2023-10-05T00:00:00	2024-11-08T14:00:00	1	Precipitación	0
36076	7	Sololá	710	Panajachel	8	Panajachel	5	Mayo	2023-10-05T00:00:00	2024-11-08T14:00:00	8	Radiación solar	442
36077	7	Sololá	710	Panajachel	8	Panajachel	5	Mayo	2023-10-05T00:00:00	2024-11-08T15:00:00	2	Temperatura media	22.4
36078	7	Sololá	710	Panajachel	8	Panajachel	5	Mayo	2023-10-05T00:00:00	2024-11-08T15:00:00	4	Temperatura máxima	24.8
36079	7	Sololá	710	Panajachel	8	Panajachel	5	Mayo	2023-10-05T00:00:00	2024-11-08T15:00:00	3	Temperatura mínima	22.4
36080	7	Sololá	710	Panajachel	8	Panajachel	5	Mayo	2023-10-05T00:00:00	2024-11-08T15:00:00	5	Humedad	83
36081	7	Sololá	710	Panajachel	8	Panajachel	5	Mayo	2023-10-05T00:00:00	2024-11-08T15:00:00	6	Velocidad del viento	1.6
36082	7	Sololá	710	Panajachel	8	Panajachel	5	Mayo	2023-10-05T00:00:00	2024-11-08T15:00:00	7	Dirección del viento	1.61
36083	7	Sololá	710	Panajachel	8	Panajachel	5	Mayo	2023-10-05T00:00:00	2024-11-08T15:00:00	1	Precipitación	0
36084	7	Sololá	710	Panajachel	8	Panajachel	5	Mayo	2023-10-05T00:00:00	2024-11-08T15:00:00	8	Radiación solar	225
36085	7	Sololá	710	Panajachel	8	Panajachel	5	Mayo	2023-10-05T00:00:00	2024-11-08T16:00:00	2	Temperatura media	21.3
36086	7	Sololá	710	Panajachel	8	Panajachel	5	Mayo	2023-10-05T00:00:00	2024-11-08T16:00:00	4	Temperatura máxima	22.4
36087	7	Sololá	710	Panajachel	8	Panajachel	5	Mayo	2023-10-05T00:00:00	2024-11-08T16:00:00	3	Temperatura mínima	21.3
36088	7	Sololá	710	Panajachel	8	Panajachel	5	Mayo	2023-10-05T00:00:00	2024-11-08T16:00:00	5	Humedad	86
36089	7	Sololá	710	Panajachel	8	Panajachel	5	Mayo	2023-10-05T00:00:00	2024-11-08T16:00:00	6	Velocidad del viento	4.8
36090	7	Sololá	710	Panajachel	8	Panajachel	5	Mayo	2023-10-05T00:00:00	2024-11-08T16:00:00	7	Dirección del viento	4.83
36091	7	Sololá	710	Panajachel	8	Panajachel	5	Mayo	2023-10-05T00:00:00	2024-11-08T16:00:00	1	Precipitación	0
36092	7	Sololá	710	Panajachel	8	Panajachel	5	Mayo	2023-10-05T00:00:00	2024-11-08T16:00:00	8	Radiación solar	48
36093	7	Sololá	710	Panajachel	8	Panajachel	5	Mayo	2023-10-05T00:00:00	2024-11-08T17:00:00	2	Temperatura media	21.2
36094	7	Sololá	710	Panajachel	8	Panajachel	5	Mayo	2023-10-05T00:00:00	2024-11-08T17:00:00	4	Temperatura máxima	21.4
36095	7	Sololá	710	Panajachel	8	Panajachel	5	Mayo	2023-10-05T00:00:00	2024-11-08T17:00:00	3	Temperatura mínima	21.1
36096	7	Sololá	710	Panajachel	8	Panajachel	5	Mayo	2023-10-05T00:00:00	2024-11-08T17:00:00	5	Humedad	86
36097	7	Sololá	710	Panajachel	8	Panajachel	5	Mayo	2023-10-05T00:00:00	2024-11-08T17:00:00	6	Velocidad del viento	1.6
36098	7	Sololá	710	Panajachel	8	Panajachel	5	Mayo	2023-10-05T00:00:00	2024-11-08T17:00:00	7	Dirección del viento	1.61
36099	7	Sololá	710	Panajachel	8	Panajachel	5	Mayo	2023-10-05T00:00:00	2024-11-08T17:00:00	1	Precipitación	0
36100	7	Sololá	710	Panajachel	8	Panajachel	5	Mayo	2023-10-05T00:00:00	2024-11-08T17:00:00	8	Radiación solar	23
36101	7	Sololá	710	Panajachel	8	Panajachel	5	Mayo	2023-10-05T00:00:00	2024-11-08T18:00:00	2	Temperatura media	20.8
36102	7	Sololá	710	Panajachel	8	Panajachel	5	Mayo	2023-10-05T00:00:00	2024-11-08T18:00:00	4	Temperatura máxima	21.2
36103	7	Sololá	710	Panajachel	8	Panajachel	5	Mayo	2023-10-05T00:00:00	2024-11-08T18:00:00	3	Temperatura mínima	20.8
36104	7	Sololá	710	Panajachel	8	Panajachel	5	Mayo	2023-10-05T00:00:00	2024-11-08T18:00:00	5	Humedad	88
36105	7	Sololá	710	Panajachel	8	Panajachel	5	Mayo	2023-10-05T00:00:00	2024-11-08T18:00:00	6	Velocidad del viento	0
36106	7	Sololá	710	Panajachel	8	Panajachel	5	Mayo	2023-10-05T00:00:00	2024-11-08T18:00:00	7	Dirección del viento	0
36107	7	Sololá	710	Panajachel	8	Panajachel	5	Mayo	2023-10-05T00:00:00	2024-11-08T18:00:00	1	Precipitación	0.2
36108	7	Sololá	710	Panajachel	8	Panajachel	5	Mayo	2023-10-05T00:00:00	2024-11-08T18:00:00	8	Radiación solar	14
36109	7	Sololá	710	Panajachel	8	Panajachel	5	Mayo	2023-10-05T00:00:00	2024-11-08T19:00:00	2	Temperatura media	19.9
36110	7	Sololá	710	Panajachel	8	Panajachel	5	Mayo	2023-10-05T00:00:00	2024-11-08T19:00:00	4	Temperatura máxima	20.8
36111	7	Sololá	710	Panajachel	8	Panajachel	5	Mayo	2023-10-05T00:00:00	2024-11-08T19:00:00	3	Temperatura mínima	19.9
36112	7	Sololá	710	Panajachel	8	Panajachel	5	Mayo	2023-10-05T00:00:00	2024-11-08T19:00:00	5	Humedad	92
36113	7	Sololá	710	Panajachel	8	Panajachel	5	Mayo	2023-10-05T00:00:00	2024-11-08T19:00:00	6	Velocidad del viento	0
36114	7	Sololá	710	Panajachel	8	Panajachel	5	Mayo	2023-10-05T00:00:00	2024-11-08T19:00:00	7	Dirección del viento	0
36115	7	Sololá	710	Panajachel	8	Panajachel	5	Mayo	2023-10-05T00:00:00	2024-11-08T19:00:00	1	Precipitación	1.2
36116	7	Sololá	710	Panajachel	8	Panajachel	5	Mayo	2023-10-05T00:00:00	2024-11-08T19:00:00	8	Radiación solar	0
36117	7	Sololá	710	Panajachel	8	Panajachel	5	Mayo	2023-10-05T00:00:00	2024-11-08T20:00:00	2	Temperatura media	17.5
36118	7	Sololá	710	Panajachel	8	Panajachel	5	Mayo	2023-10-05T00:00:00	2024-11-08T20:00:00	4	Temperatura máxima	19.9
36119	7	Sololá	710	Panajachel	8	Panajachel	5	Mayo	2023-10-05T00:00:00	2024-11-08T20:00:00	3	Temperatura mínima	16.9
36120	7	Sololá	710	Panajachel	8	Panajachel	5	Mayo	2023-10-05T00:00:00	2024-11-08T20:00:00	5	Humedad	90
36121	7	Sololá	710	Panajachel	8	Panajachel	5	Mayo	2023-10-05T00:00:00	2024-11-08T20:00:00	6	Velocidad del viento	3.2
36122	7	Sololá	710	Panajachel	8	Panajachel	5	Mayo	2023-10-05T00:00:00	2024-11-08T20:00:00	7	Dirección del viento	3.22
36123	7	Sololá	710	Panajachel	8	Panajachel	5	Mayo	2023-10-05T00:00:00	2024-11-08T20:00:00	1	Precipitación	9.6
36124	7	Sololá	710	Panajachel	8	Panajachel	5	Mayo	2023-10-05T00:00:00	2024-11-08T20:00:00	8	Radiación solar	0
36125	7	Sololá	710	Panajachel	8	Panajachel	5	Mayo	2023-10-05T00:00:00	2024-11-08T21:00:00	2	Temperatura media	16.3
36126	7	Sololá	710	Panajachel	8	Panajachel	5	Mayo	2023-10-05T00:00:00	2024-11-08T21:00:00	4	Temperatura máxima	17.5
36127	7	Sololá	710	Panajachel	8	Panajachel	5	Mayo	2023-10-05T00:00:00	2024-11-08T21:00:00	3	Temperatura mínima	16.2
36128	7	Sololá	710	Panajachel	8	Panajachel	5	Mayo	2023-10-05T00:00:00	2024-11-08T21:00:00	5	Humedad	96
36129	7	Sololá	710	Panajachel	8	Panajachel	5	Mayo	2023-10-05T00:00:00	2024-11-08T21:00:00	6	Velocidad del viento	3.2
36130	7	Sololá	710	Panajachel	8	Panajachel	5	Mayo	2023-10-05T00:00:00	2024-11-08T21:00:00	7	Dirección del viento	3.22
36131	7	Sololá	710	Panajachel	8	Panajachel	5	Mayo	2023-10-05T00:00:00	2024-11-08T21:00:00	1	Precipitación	3.6
36132	7	Sololá	710	Panajachel	8	Panajachel	5	Mayo	2023-10-05T00:00:00	2024-11-08T21:00:00	8	Radiación solar	0
36133	7	Sololá	710	Panajachel	8	Panajachel	5	Mayo	2023-10-05T00:00:00	2024-11-08T22:00:00	2	Temperatura media	16.2
36134	7	Sololá	710	Panajachel	8	Panajachel	5	Mayo	2023-10-05T00:00:00	2024-11-08T22:00:00	4	Temperatura máxima	16.4
36135	7	Sololá	710	Panajachel	8	Panajachel	5	Mayo	2023-10-05T00:00:00	2024-11-08T22:00:00	3	Temperatura mínima	16.1
36136	7	Sololá	710	Panajachel	8	Panajachel	5	Mayo	2023-10-05T00:00:00	2024-11-08T22:00:00	5	Humedad	89
36137	7	Sololá	710	Panajachel	8	Panajachel	5	Mayo	2023-10-05T00:00:00	2024-11-08T22:00:00	6	Velocidad del viento	1.6
36138	7	Sololá	710	Panajachel	8	Panajachel	5	Mayo	2023-10-05T00:00:00	2024-11-08T22:00:00	7	Dirección del viento	1.61
36139	7	Sololá	710	Panajachel	8	Panajachel	5	Mayo	2023-10-05T00:00:00	2024-11-08T22:00:00	1	Precipitación	0
36140	7	Sololá	710	Panajachel	8	Panajachel	5	Mayo	2023-10-05T00:00:00	2024-11-08T22:00:00	8	Radiación solar	0
36141	7	Sololá	710	Panajachel	8	Panajachel	5	Mayo	2023-10-05T00:00:00	2024-11-08T23:00:00	2	Temperatura media	15.7
36142	7	Sololá	710	Panajachel	8	Panajachel	5	Mayo	2023-10-05T00:00:00	2024-11-08T23:00:00	4	Temperatura máxima	16.6
36143	7	Sololá	710	Panajachel	8	Panajachel	5	Mayo	2023-10-05T00:00:00	2024-11-08T23:00:00	3	Temperatura mínima	15.7
36144	7	Sololá	710	Panajachel	8	Panajachel	5	Mayo	2023-10-05T00:00:00	2024-11-08T23:00:00	5	Humedad	91
36145	7	Sololá	710	Panajachel	8	Panajachel	5	Mayo	2023-10-05T00:00:00	2024-11-08T23:00:00	6	Velocidad del viento	1.6
36146	7	Sololá	710	Panajachel	8	Panajachel	5	Mayo	2023-10-05T00:00:00	2024-11-08T23:00:00	7	Dirección del viento	1.61
36147	7	Sololá	710	Panajachel	8	Panajachel	5	Mayo	2023-10-05T00:00:00	2024-11-08T23:00:00	1	Precipitación	0
36148	7	Sololá	710	Panajachel	8	Panajachel	5	Mayo	2023-10-05T00:00:00	2024-11-08T23:00:00	8	Radiación solar	0
36149	7	Sololá	710	Panajachel	8	Panajachel	5	Mayo	2023-11-05T00:00:00	2024-11-08T00:00:00	2	Temperatura media	15.7
36150	7	Sololá	710	Panajachel	8	Panajachel	5	Mayo	2023-11-05T00:00:00	2024-11-08T00:00:00	4	Temperatura máxima	16.1
36151	7	Sololá	710	Panajachel	8	Panajachel	5	Mayo	2023-11-05T00:00:00	2024-11-08T00:00:00	3	Temperatura mínima	15.6
36152	7	Sololá	710	Panajachel	8	Panajachel	5	Mayo	2023-11-05T00:00:00	2024-11-08T00:00:00	5	Humedad	93
36153	7	Sololá	710	Panajachel	8	Panajachel	5	Mayo	2023-11-05T00:00:00	2024-11-08T00:00:00	6	Velocidad del viento	1.6
36154	7	Sololá	710	Panajachel	8	Panajachel	5	Mayo	2023-11-05T00:00:00	2024-11-08T00:00:00	7	Dirección del viento	1.61
36155	7	Sololá	710	Panajachel	8	Panajachel	5	Mayo	2023-11-05T00:00:00	2024-11-08T00:00:00	1	Precipitación	0
36156	7	Sololá	710	Panajachel	8	Panajachel	5	Mayo	2023-11-05T00:00:00	2024-11-08T00:00:00	8	Radiación solar	0
36157	7	Sololá	710	Panajachel	8	Panajachel	5	Mayo	2023-11-05T00:00:00	2024-11-08T01:00:00	2	Temperatura media	16.2
36158	7	Sololá	710	Panajachel	8	Panajachel	5	Mayo	2023-11-05T00:00:00	2024-11-08T01:00:00	4	Temperatura máxima	16.3
36159	7	Sololá	710	Panajachel	8	Panajachel	5	Mayo	2023-11-05T00:00:00	2024-11-08T01:00:00	3	Temperatura mínima	15.7
36160	7	Sololá	710	Panajachel	8	Panajachel	5	Mayo	2023-11-05T00:00:00	2024-11-08T01:00:00	5	Humedad	87
36161	7	Sololá	710	Panajachel	8	Panajachel	5	Mayo	2023-11-05T00:00:00	2024-11-08T01:00:00	6	Velocidad del viento	4.8
36162	7	Sololá	710	Panajachel	8	Panajachel	5	Mayo	2023-11-05T00:00:00	2024-11-08T01:00:00	7	Dirección del viento	4.83
36163	7	Sololá	710	Panajachel	8	Panajachel	5	Mayo	2023-11-05T00:00:00	2024-11-08T01:00:00	1	Precipitación	0
36164	7	Sololá	710	Panajachel	8	Panajachel	5	Mayo	2023-11-05T00:00:00	2024-11-08T01:00:00	8	Radiación solar	0
36165	7	Sololá	710	Panajachel	8	Panajachel	5	Mayo	2023-11-05T00:00:00	2024-11-08T02:00:00	2	Temperatura media	15.9
36166	7	Sololá	710	Panajachel	8	Panajachel	5	Mayo	2023-11-05T00:00:00	2024-11-08T02:00:00	4	Temperatura máxima	16.6
36167	7	Sololá	710	Panajachel	8	Panajachel	5	Mayo	2023-11-05T00:00:00	2024-11-08T02:00:00	3	Temperatura mínima	15.8
36168	7	Sololá	710	Panajachel	8	Panajachel	5	Mayo	2023-11-05T00:00:00	2024-11-08T02:00:00	5	Humedad	87
36169	7	Sololá	710	Panajachel	8	Panajachel	5	Mayo	2023-11-05T00:00:00	2024-11-08T02:00:00	6	Velocidad del viento	1.6
36170	7	Sololá	710	Panajachel	8	Panajachel	5	Mayo	2023-11-05T00:00:00	2024-11-08T02:00:00	7	Dirección del viento	1.61
36171	7	Sololá	710	Panajachel	8	Panajachel	5	Mayo	2023-11-05T00:00:00	2024-11-08T02:00:00	1	Precipitación	0
36172	7	Sololá	710	Panajachel	8	Panajachel	5	Mayo	2023-11-05T00:00:00	2024-11-08T02:00:00	8	Radiación solar	0
36173	7	Sololá	710	Panajachel	8	Panajachel	5	Mayo	2023-11-05T00:00:00	2024-11-08T03:00:00	2	Temperatura media	15.8
36174	7	Sololá	710	Panajachel	8	Panajachel	5	Mayo	2023-11-05T00:00:00	2024-11-08T03:00:00	4	Temperatura máxima	15.9
36175	7	Sololá	710	Panajachel	8	Panajachel	5	Mayo	2023-11-05T00:00:00	2024-11-08T03:00:00	3	Temperatura mínima	15.5
36176	7	Sololá	710	Panajachel	8	Panajachel	5	Mayo	2023-11-05T00:00:00	2024-11-08T03:00:00	5	Humedad	86
36177	7	Sololá	710	Panajachel	8	Panajachel	5	Mayo	2023-11-05T00:00:00	2024-11-08T03:00:00	6	Velocidad del viento	3.2
36178	7	Sololá	710	Panajachel	8	Panajachel	5	Mayo	2023-11-05T00:00:00	2024-11-08T03:00:00	7	Dirección del viento	3.22
36179	7	Sololá	710	Panajachel	8	Panajachel	5	Mayo	2023-11-05T00:00:00	2024-11-08T03:00:00	1	Precipitación	0
36180	7	Sololá	710	Panajachel	8	Panajachel	5	Mayo	2023-11-05T00:00:00	2024-11-08T03:00:00	8	Radiación solar	0
36181	7	Sololá	710	Panajachel	8	Panajachel	5	Mayo	2023-11-05T00:00:00	2024-11-08T04:00:00	2	Temperatura media	15.8
36182	7	Sololá	710	Panajachel	8	Panajachel	5	Mayo	2023-11-05T00:00:00	2024-11-08T04:00:00	4	Temperatura máxima	16
36183	7	Sololá	710	Panajachel	8	Panajachel	5	Mayo	2023-11-05T00:00:00	2024-11-08T04:00:00	3	Temperatura mínima	15.4
36184	7	Sololá	710	Panajachel	8	Panajachel	5	Mayo	2023-11-05T00:00:00	2024-11-08T04:00:00	5	Humedad	86
36185	7	Sololá	710	Panajachel	8	Panajachel	5	Mayo	2023-11-05T00:00:00	2024-11-08T04:00:00	6	Velocidad del viento	3.2
36186	7	Sololá	710	Panajachel	8	Panajachel	5	Mayo	2023-11-05T00:00:00	2024-11-08T04:00:00	7	Dirección del viento	3.22
36187	7	Sololá	710	Panajachel	8	Panajachel	5	Mayo	2023-11-05T00:00:00	2024-11-08T04:00:00	1	Precipitación	0
36188	7	Sololá	710	Panajachel	8	Panajachel	5	Mayo	2023-11-05T00:00:00	2024-11-08T04:00:00	8	Radiación solar	0
36189	7	Sololá	710	Panajachel	8	Panajachel	5	Mayo	2023-11-05T00:00:00	2024-11-08T05:00:00	2	Temperatura media	15.3
36190	7	Sololá	710	Panajachel	8	Panajachel	5	Mayo	2023-11-05T00:00:00	2024-11-08T05:00:00	4	Temperatura máxima	15.8
36191	7	Sololá	710	Panajachel	8	Panajachel	5	Mayo	2023-11-05T00:00:00	2024-11-08T05:00:00	3	Temperatura mínima	15.1
36192	7	Sololá	710	Panajachel	8	Panajachel	5	Mayo	2023-11-05T00:00:00	2024-11-08T05:00:00	5	Humedad	86
36193	7	Sololá	710	Panajachel	8	Panajachel	5	Mayo	2023-11-05T00:00:00	2024-11-08T05:00:00	6	Velocidad del viento	1.6
36194	7	Sololá	710	Panajachel	8	Panajachel	5	Mayo	2023-11-05T00:00:00	2024-11-08T05:00:00	7	Dirección del viento	1.61
36195	7	Sololá	710	Panajachel	8	Panajachel	5	Mayo	2023-11-05T00:00:00	2024-11-08T05:00:00	1	Precipitación	0
36196	7	Sololá	710	Panajachel	8	Panajachel	5	Mayo	2023-11-05T00:00:00	2024-11-08T05:00:00	8	Radiación solar	0
36197	7	Sololá	710	Panajachel	8	Panajachel	5	Mayo	2023-11-05T00:00:00	2024-11-08T06:00:00	2	Temperatura media	15.4
36198	7	Sololá	710	Panajachel	8	Panajachel	5	Mayo	2023-11-05T00:00:00	2024-11-08T06:00:00	4	Temperatura máxima	15.4
36199	7	Sololá	710	Panajachel	8	Panajachel	5	Mayo	2023-11-05T00:00:00	2024-11-08T06:00:00	3	Temperatura mínima	15.1
36200	7	Sololá	710	Panajachel	8	Panajachel	5	Mayo	2023-11-05T00:00:00	2024-11-08T06:00:00	5	Humedad	84
36201	7	Sololá	710	Panajachel	8	Panajachel	5	Mayo	2023-11-05T00:00:00	2024-11-08T06:00:00	6	Velocidad del viento	1.6
36202	7	Sololá	710	Panajachel	8	Panajachel	5	Mayo	2023-11-05T00:00:00	2024-11-08T06:00:00	7	Dirección del viento	1.61
36203	7	Sololá	710	Panajachel	8	Panajachel	5	Mayo	2023-11-05T00:00:00	2024-11-08T06:00:00	1	Precipitación	0
36204	7	Sololá	710	Panajachel	8	Panajachel	5	Mayo	2023-11-05T00:00:00	2024-11-08T06:00:00	8	Radiación solar	3
36205	7	Sololá	710	Panajachel	8	Panajachel	5	Mayo	2023-11-05T00:00:00	2024-11-08T07:00:00	2	Temperatura media	17
36206	7	Sololá	710	Panajachel	8	Panajachel	5	Mayo	2023-11-05T00:00:00	2024-11-08T07:00:00	4	Temperatura máxima	17
36207	7	Sololá	710	Panajachel	8	Panajachel	5	Mayo	2023-11-05T00:00:00	2024-11-08T07:00:00	3	Temperatura mínima	15.2
36208	7	Sololá	710	Panajachel	8	Panajachel	5	Mayo	2023-11-05T00:00:00	2024-11-08T07:00:00	5	Humedad	82
36209	7	Sololá	710	Panajachel	8	Panajachel	5	Mayo	2023-11-05T00:00:00	2024-11-08T07:00:00	6	Velocidad del viento	3.2
36210	7	Sololá	710	Panajachel	8	Panajachel	5	Mayo	2023-11-05T00:00:00	2024-11-08T07:00:00	7	Dirección del viento	3.22
36211	7	Sololá	710	Panajachel	8	Panajachel	5	Mayo	2023-11-05T00:00:00	2024-11-08T07:00:00	1	Precipitación	0
36212	7	Sololá	710	Panajachel	8	Panajachel	5	Mayo	2023-11-05T00:00:00	2024-11-08T07:00:00	8	Radiación solar	86
36213	7	Sololá	710	Panajachel	8	Panajachel	5	Mayo	2023-11-05T00:00:00	2024-11-08T08:00:00	2	Temperatura media	19.9
36214	7	Sololá	710	Panajachel	8	Panajachel	5	Mayo	2023-11-05T00:00:00	2024-11-08T08:00:00	4	Temperatura máxima	19.9
36215	7	Sololá	710	Panajachel	8	Panajachel	5	Mayo	2023-11-05T00:00:00	2024-11-08T08:00:00	3	Temperatura mínima	17
36216	7	Sololá	710	Panajachel	8	Panajachel	5	Mayo	2023-11-05T00:00:00	2024-11-08T08:00:00	5	Humedad	76
36217	7	Sololá	710	Panajachel	8	Panajachel	5	Mayo	2023-11-05T00:00:00	2024-11-08T08:00:00	6	Velocidad del viento	0
36218	7	Sololá	710	Panajachel	8	Panajachel	5	Mayo	2023-11-05T00:00:00	2024-11-08T08:00:00	7	Dirección del viento	0
36219	7	Sololá	710	Panajachel	8	Panajachel	5	Mayo	2023-11-05T00:00:00	2024-11-08T08:00:00	1	Precipitación	0
36220	7	Sololá	710	Panajachel	8	Panajachel	5	Mayo	2023-11-05T00:00:00	2024-11-08T08:00:00	8	Radiación solar	294
36221	7	Sololá	710	Panajachel	8	Panajachel	5	Mayo	2023-11-05T00:00:00	2024-11-08T09:00:00	2	Temperatura media	20.4
36222	7	Sololá	710	Panajachel	8	Panajachel	5	Mayo	2023-11-05T00:00:00	2024-11-08T09:00:00	4	Temperatura máxima	20.4
36223	7	Sololá	710	Panajachel	8	Panajachel	5	Mayo	2023-11-05T00:00:00	2024-11-08T09:00:00	3	Temperatura mínima	19.8
36224	7	Sololá	710	Panajachel	8	Panajachel	5	Mayo	2023-11-05T00:00:00	2024-11-08T09:00:00	5	Humedad	79
36225	7	Sololá	710	Panajachel	8	Panajachel	5	Mayo	2023-11-05T00:00:00	2024-11-08T09:00:00	6	Velocidad del viento	0
36226	7	Sololá	710	Panajachel	8	Panajachel	5	Mayo	2023-11-05T00:00:00	2024-11-08T09:00:00	7	Dirección del viento	0
36227	7	Sololá	710	Panajachel	8	Panajachel	5	Mayo	2023-11-05T00:00:00	2024-11-08T09:00:00	1	Precipitación	0
36228	7	Sololá	710	Panajachel	8	Panajachel	5	Mayo	2023-11-05T00:00:00	2024-11-08T09:00:00	8	Radiación solar	534
36229	7	Sololá	710	Panajachel	8	Panajachel	5	Mayo	2023-11-05T00:00:00	2024-11-08T10:00:00	2	Temperatura media	21.3
36230	7	Sololá	710	Panajachel	8	Panajachel	5	Mayo	2023-11-05T00:00:00	2024-11-08T10:00:00	4	Temperatura máxima	21.3
36231	7	Sololá	710	Panajachel	8	Panajachel	5	Mayo	2023-11-05T00:00:00	2024-11-08T10:00:00	3	Temperatura mínima	20.1
36232	7	Sololá	710	Panajachel	8	Panajachel	5	Mayo	2023-11-05T00:00:00	2024-11-08T10:00:00	5	Humedad	76
36233	7	Sololá	710	Panajachel	8	Panajachel	5	Mayo	2023-11-05T00:00:00	2024-11-08T10:00:00	6	Velocidad del viento	0
36234	7	Sololá	710	Panajachel	8	Panajachel	5	Mayo	2023-11-05T00:00:00	2024-11-08T10:00:00	7	Dirección del viento	0
36235	7	Sololá	710	Panajachel	8	Panajachel	5	Mayo	2023-11-05T00:00:00	2024-11-08T10:00:00	1	Precipitación	0
36236	7	Sololá	710	Panajachel	8	Panajachel	5	Mayo	2023-11-05T00:00:00	2024-11-08T10:00:00	8	Radiación solar	703
36237	7	Sololá	710	Panajachel	8	Panajachel	5	Mayo	2023-11-05T00:00:00	2024-11-08T11:00:00	2	Temperatura media	22.5
36238	7	Sololá	710	Panajachel	8	Panajachel	5	Mayo	2023-11-05T00:00:00	2024-11-08T11:00:00	4	Temperatura máxima	23.2
36239	7	Sololá	710	Panajachel	8	Panajachel	5	Mayo	2023-11-05T00:00:00	2024-11-08T11:00:00	3	Temperatura mínima	21.3
36240	7	Sololá	710	Panajachel	8	Panajachel	5	Mayo	2023-11-05T00:00:00	2024-11-08T11:00:00	5	Humedad	72
36241	7	Sololá	710	Panajachel	8	Panajachel	5	Mayo	2023-11-05T00:00:00	2024-11-08T11:00:00	6	Velocidad del viento	0
36242	7	Sololá	710	Panajachel	8	Panajachel	5	Mayo	2023-11-05T00:00:00	2024-11-08T11:00:00	7	Dirección del viento	0
36243	7	Sololá	710	Panajachel	8	Panajachel	5	Mayo	2023-11-05T00:00:00	2024-11-08T11:00:00	1	Precipitación	0
36244	7	Sololá	710	Panajachel	8	Panajachel	5	Mayo	2023-11-05T00:00:00	2024-11-08T11:00:00	8	Radiación solar	844
36245	7	Sololá	710	Panajachel	8	Panajachel	5	Mayo	2023-11-05T00:00:00	2024-11-08T12:00:00	2	Temperatura media	24
36246	7	Sololá	710	Panajachel	8	Panajachel	5	Mayo	2023-11-05T00:00:00	2024-11-08T12:00:00	4	Temperatura máxima	24
36247	7	Sololá	710	Panajachel	8	Panajachel	5	Mayo	2023-11-05T00:00:00	2024-11-08T12:00:00	3	Temperatura mínima	22.4
36248	7	Sololá	710	Panajachel	8	Panajachel	5	Mayo	2023-11-05T00:00:00	2024-11-08T12:00:00	5	Humedad	71
36249	7	Sololá	710	Panajachel	8	Panajachel	5	Mayo	2023-11-05T00:00:00	2024-11-08T12:00:00	6	Velocidad del viento	1.6
36250	7	Sololá	710	Panajachel	8	Panajachel	5	Mayo	2023-11-05T00:00:00	2024-11-08T12:00:00	7	Dirección del viento	1.61
36251	7	Sololá	710	Panajachel	8	Panajachel	5	Mayo	2023-11-05T00:00:00	2024-11-08T12:00:00	1	Precipitación	0
36252	7	Sololá	710	Panajachel	8	Panajachel	5	Mayo	2023-11-05T00:00:00	2024-11-08T12:00:00	8	Radiación solar	925
36253	7	Sololá	710	Panajachel	8	Panajachel	5	Mayo	2023-11-05T00:00:00	2024-11-08T13:00:00	2	Temperatura media	23.4
36254	7	Sololá	710	Panajachel	8	Panajachel	5	Mayo	2023-11-05T00:00:00	2024-11-08T13:00:00	4	Temperatura máxima	24.6
36255	7	Sololá	710	Panajachel	8	Panajachel	5	Mayo	2023-11-05T00:00:00	2024-11-08T13:00:00	3	Temperatura mínima	22.9
36256	7	Sololá	710	Panajachel	8	Panajachel	5	Mayo	2023-11-05T00:00:00	2024-11-08T13:00:00	5	Humedad	72
36257	7	Sololá	710	Panajachel	8	Panajachel	5	Mayo	2023-11-05T00:00:00	2024-11-08T13:00:00	6	Velocidad del viento	8
36258	7	Sololá	710	Panajachel	8	Panajachel	5	Mayo	2023-11-05T00:00:00	2024-11-08T13:00:00	7	Dirección del viento	8.05
36259	7	Sololá	710	Panajachel	8	Panajachel	5	Mayo	2023-11-05T00:00:00	2024-11-08T13:00:00	1	Precipitación	0
36260	7	Sololá	710	Panajachel	8	Panajachel	5	Mayo	2023-11-05T00:00:00	2024-11-08T13:00:00	8	Radiación solar	724
36261	7	Sololá	710	Panajachel	8	Panajachel	5	Mayo	2023-11-05T00:00:00	2024-11-08T14:00:00	2	Temperatura media	23.7
36262	7	Sololá	710	Panajachel	8	Panajachel	5	Mayo	2023-11-05T00:00:00	2024-11-08T14:00:00	4	Temperatura máxima	24.2
36263	7	Sololá	710	Panajachel	8	Panajachel	5	Mayo	2023-11-05T00:00:00	2024-11-08T14:00:00	3	Temperatura mínima	23.3
36264	7	Sololá	710	Panajachel	8	Panajachel	5	Mayo	2023-11-05T00:00:00	2024-11-08T14:00:00	5	Humedad	71
36265	7	Sololá	710	Panajachel	8	Panajachel	5	Mayo	2023-11-05T00:00:00	2024-11-08T14:00:00	6	Velocidad del viento	3.2
36266	7	Sololá	710	Panajachel	8	Panajachel	5	Mayo	2023-11-05T00:00:00	2024-11-08T14:00:00	7	Dirección del viento	3.22
36267	7	Sololá	710	Panajachel	8	Panajachel	5	Mayo	2023-11-05T00:00:00	2024-11-08T14:00:00	1	Precipitación	0
36268	7	Sololá	710	Panajachel	8	Panajachel	5	Mayo	2023-11-05T00:00:00	2024-11-08T14:00:00	8	Radiación solar	404
36269	7	Sololá	710	Panajachel	8	Panajachel	5	Mayo	2023-11-05T00:00:00	2024-11-08T15:00:00	2	Temperatura media	22.9
36270	7	Sololá	710	Panajachel	8	Panajachel	5	Mayo	2023-11-05T00:00:00	2024-11-08T15:00:00	4	Temperatura máxima	24.2
36271	7	Sololá	710	Panajachel	8	Panajachel	5	Mayo	2023-11-05T00:00:00	2024-11-08T15:00:00	3	Temperatura mínima	22.9
36272	7	Sololá	710	Panajachel	8	Panajachel	5	Mayo	2023-11-05T00:00:00	2024-11-08T15:00:00	5	Humedad	77
36273	7	Sololá	710	Panajachel	8	Panajachel	5	Mayo	2023-11-05T00:00:00	2024-11-08T15:00:00	6	Velocidad del viento	4.8
36274	7	Sololá	710	Panajachel	8	Panajachel	5	Mayo	2023-11-05T00:00:00	2024-11-08T15:00:00	7	Dirección del viento	4.83
36275	7	Sololá	710	Panajachel	8	Panajachel	5	Mayo	2023-11-05T00:00:00	2024-11-08T15:00:00	1	Precipitación	0
36276	7	Sololá	710	Panajachel	8	Panajachel	5	Mayo	2023-11-05T00:00:00	2024-11-08T15:00:00	8	Radiación solar	586
36277	7	Sololá	710	Panajachel	8	Panajachel	5	Mayo	2023-11-05T00:00:00	2024-11-08T16:00:00	2	Temperatura media	21.6
36278	7	Sololá	710	Panajachel	8	Panajachel	5	Mayo	2023-11-05T00:00:00	2024-11-08T16:00:00	4	Temperatura máxima	22.9
36279	7	Sololá	710	Panajachel	8	Panajachel	5	Mayo	2023-11-05T00:00:00	2024-11-08T16:00:00	3	Temperatura mínima	21.6
36280	7	Sololá	710	Panajachel	8	Panajachel	5	Mayo	2023-11-05T00:00:00	2024-11-08T16:00:00	5	Humedad	85
36281	7	Sololá	710	Panajachel	8	Panajachel	5	Mayo	2023-11-05T00:00:00	2024-11-08T16:00:00	6	Velocidad del viento	3.2
36282	7	Sololá	710	Panajachel	8	Panajachel	5	Mayo	2023-11-05T00:00:00	2024-11-08T16:00:00	7	Dirección del viento	3.22
36283	7	Sololá	710	Panajachel	8	Panajachel	5	Mayo	2023-11-05T00:00:00	2024-11-08T16:00:00	1	Precipitación	0
36284	7	Sololá	710	Panajachel	8	Panajachel	5	Mayo	2023-11-05T00:00:00	2024-11-08T16:00:00	8	Radiación solar	160
36285	7	Sololá	710	Panajachel	8	Panajachel	5	Mayo	2023-11-05T00:00:00	2024-11-08T17:00:00	2	Temperatura media	21.3
36286	7	Sololá	710	Panajachel	8	Panajachel	5	Mayo	2023-11-05T00:00:00	2024-11-08T17:00:00	4	Temperatura máxima	21.6
36287	7	Sololá	710	Panajachel	8	Panajachel	5	Mayo	2023-11-05T00:00:00	2024-11-08T17:00:00	3	Temperatura mínima	20.8
36288	7	Sololá	710	Panajachel	8	Panajachel	5	Mayo	2023-11-05T00:00:00	2024-11-08T17:00:00	5	Humedad	83
36289	7	Sololá	710	Panajachel	8	Panajachel	5	Mayo	2023-11-05T00:00:00	2024-11-08T17:00:00	6	Velocidad del viento	1.6
36290	7	Sololá	710	Panajachel	8	Panajachel	5	Mayo	2023-11-05T00:00:00	2024-11-08T17:00:00	7	Dirección del viento	1.61
36291	7	Sololá	710	Panajachel	8	Panajachel	5	Mayo	2023-11-05T00:00:00	2024-11-08T17:00:00	1	Precipitación	0
36292	7	Sololá	710	Panajachel	8	Panajachel	5	Mayo	2023-11-05T00:00:00	2024-11-08T17:00:00	8	Radiación solar	97
36293	7	Sololá	710	Panajachel	8	Panajachel	5	Mayo	2023-11-05T00:00:00	2024-11-08T18:00:00	2	Temperatura media	21.3
36294	7	Sololá	710	Panajachel	8	Panajachel	5	Mayo	2023-11-05T00:00:00	2024-11-08T18:00:00	4	Temperatura máxima	21.3
36295	7	Sololá	710	Panajachel	8	Panajachel	5	Mayo	2023-11-05T00:00:00	2024-11-08T18:00:00	3	Temperatura mínima	21.1
36296	7	Sololá	710	Panajachel	8	Panajachel	5	Mayo	2023-11-05T00:00:00	2024-11-08T18:00:00	5	Humedad	82
36297	7	Sololá	710	Panajachel	8	Panajachel	5	Mayo	2023-11-05T00:00:00	2024-11-08T18:00:00	6	Velocidad del viento	0
36298	7	Sololá	710	Panajachel	8	Panajachel	5	Mayo	2023-11-05T00:00:00	2024-11-08T18:00:00	7	Dirección del viento	0
36299	7	Sololá	710	Panajachel	8	Panajachel	5	Mayo	2023-11-05T00:00:00	2024-11-08T18:00:00	1	Precipitación	0
36300	7	Sololá	710	Panajachel	8	Panajachel	5	Mayo	2023-11-05T00:00:00	2024-11-08T18:00:00	8	Radiación solar	51
36301	7	Sololá	710	Panajachel	8	Panajachel	5	Mayo	2023-11-05T00:00:00	2024-11-08T19:00:00	2	Temperatura media	20.5
36302	7	Sololá	710	Panajachel	8	Panajachel	5	Mayo	2023-11-05T00:00:00	2024-11-08T19:00:00	4	Temperatura máxima	21.3
36303	7	Sololá	710	Panajachel	8	Panajachel	5	Mayo	2023-11-05T00:00:00	2024-11-08T19:00:00	3	Temperatura mínima	20.4
36304	7	Sololá	710	Panajachel	8	Panajachel	5	Mayo	2023-11-05T00:00:00	2024-11-08T19:00:00	5	Humedad	85
36305	7	Sololá	710	Panajachel	8	Panajachel	5	Mayo	2023-11-05T00:00:00	2024-11-08T19:00:00	6	Velocidad del viento	0
36306	7	Sololá	710	Panajachel	8	Panajachel	5	Mayo	2023-11-05T00:00:00	2024-11-08T19:00:00	7	Dirección del viento	0
36307	7	Sololá	710	Panajachel	8	Panajachel	5	Mayo	2023-11-05T00:00:00	2024-11-08T19:00:00	1	Precipitación	0
36308	7	Sololá	710	Panajachel	8	Panajachel	5	Mayo	2023-11-05T00:00:00	2024-11-08T19:00:00	8	Radiación solar	0
36309	7	Sololá	710	Panajachel	8	Panajachel	5	Mayo	2023-11-05T00:00:00	2024-11-08T20:00:00	2	Temperatura media	20.2
36310	7	Sololá	710	Panajachel	8	Panajachel	5	Mayo	2023-11-05T00:00:00	2024-11-08T20:00:00	4	Temperatura máxima	20.5
36311	7	Sololá	710	Panajachel	8	Panajachel	5	Mayo	2023-11-05T00:00:00	2024-11-08T20:00:00	3	Temperatura mínima	20.1
36312	7	Sololá	710	Panajachel	8	Panajachel	5	Mayo	2023-11-05T00:00:00	2024-11-08T20:00:00	5	Humedad	87
36313	7	Sololá	710	Panajachel	8	Panajachel	5	Mayo	2023-11-05T00:00:00	2024-11-08T20:00:00	6	Velocidad del viento	0
36314	7	Sololá	710	Panajachel	8	Panajachel	5	Mayo	2023-11-05T00:00:00	2024-11-08T20:00:00	7	Dirección del viento	0
36315	7	Sololá	710	Panajachel	8	Panajachel	5	Mayo	2023-11-05T00:00:00	2024-11-08T20:00:00	1	Precipitación	0
36316	7	Sololá	710	Panajachel	8	Panajachel	5	Mayo	2023-11-05T00:00:00	2024-11-08T20:00:00	8	Radiación solar	0
36317	7	Sololá	710	Panajachel	8	Panajachel	5	Mayo	2023-11-05T00:00:00	2024-11-08T21:00:00	2	Temperatura media	20.3
36318	7	Sololá	710	Panajachel	8	Panajachel	5	Mayo	2023-11-05T00:00:00	2024-11-08T21:00:00	4	Temperatura máxima	20.4
36319	7	Sololá	710	Panajachel	8	Panajachel	5	Mayo	2023-11-05T00:00:00	2024-11-08T21:00:00	3	Temperatura mínima	20.2
36320	7	Sololá	710	Panajachel	8	Panajachel	5	Mayo	2023-11-05T00:00:00	2024-11-08T21:00:00	5	Humedad	87
36321	7	Sololá	710	Panajachel	8	Panajachel	5	Mayo	2023-11-05T00:00:00	2024-11-08T21:00:00	6	Velocidad del viento	0
36322	7	Sololá	710	Panajachel	8	Panajachel	5	Mayo	2023-11-05T00:00:00	2024-11-08T21:00:00	7	Dirección del viento	0
36323	7	Sololá	710	Panajachel	8	Panajachel	5	Mayo	2023-11-05T00:00:00	2024-11-08T21:00:00	1	Precipitación	0
36324	7	Sololá	710	Panajachel	8	Panajachel	5	Mayo	2023-11-05T00:00:00	2024-11-08T21:00:00	8	Radiación solar	0
36325	7	Sololá	710	Panajachel	8	Panajachel	5	Mayo	2023-11-05T00:00:00	2024-11-08T22:00:00	2	Temperatura media	20.3
36326	7	Sololá	710	Panajachel	8	Panajachel	5	Mayo	2023-11-05T00:00:00	2024-11-08T22:00:00	4	Temperatura máxima	20.4
36327	7	Sololá	710	Panajachel	8	Panajachel	5	Mayo	2023-11-05T00:00:00	2024-11-08T22:00:00	3	Temperatura mínima	20.2
36328	7	Sololá	710	Panajachel	8	Panajachel	5	Mayo	2023-11-05T00:00:00	2024-11-08T22:00:00	5	Humedad	86
36329	7	Sololá	710	Panajachel	8	Panajachel	5	Mayo	2023-11-05T00:00:00	2024-11-08T22:00:00	6	Velocidad del viento	0
36330	7	Sololá	710	Panajachel	8	Panajachel	5	Mayo	2023-11-05T00:00:00	2024-11-08T22:00:00	7	Dirección del viento	0
36331	7	Sololá	710	Panajachel	8	Panajachel	5	Mayo	2023-11-05T00:00:00	2024-11-08T22:00:00	1	Precipitación	0
36332	7	Sololá	710	Panajachel	8	Panajachel	5	Mayo	2023-11-05T00:00:00	2024-11-08T22:00:00	8	Radiación solar	0
36333	7	Sololá	710	Panajachel	8	Panajachel	5	Mayo	2023-11-05T00:00:00	2024-11-08T23:00:00	2	Temperatura media	20.2
36334	7	Sololá	710	Panajachel	8	Panajachel	5	Mayo	2023-11-05T00:00:00	2024-11-08T23:00:00	4	Temperatura máxima	20.6
36335	7	Sololá	710	Panajachel	8	Panajachel	5	Mayo	2023-11-05T00:00:00	2024-11-08T23:00:00	3	Temperatura mínima	20.2
36336	7	Sololá	710	Panajachel	8	Panajachel	5	Mayo	2023-11-05T00:00:00	2024-11-08T23:00:00	5	Humedad	86
36337	7	Sololá	710	Panajachel	8	Panajachel	5	Mayo	2023-11-05T00:00:00	2024-11-08T23:00:00	6	Velocidad del viento	3.2
36338	7	Sololá	710	Panajachel	8	Panajachel	5	Mayo	2023-11-05T00:00:00	2024-11-08T23:00:00	7	Dirección del viento	3.22
36339	7	Sololá	710	Panajachel	8	Panajachel	5	Mayo	2023-11-05T00:00:00	2024-11-08T23:00:00	1	Precipitación	0
36340	7	Sololá	710	Panajachel	8	Panajachel	5	Mayo	2023-11-05T00:00:00	2024-11-08T23:00:00	8	Radiación solar	0
36341	7	Sololá	710	Panajachel	8	Panajachel	5	Mayo	2023-12-05T00:00:00	2024-11-08T00:00:00	2	Temperatura media	19.7
36342	7	Sololá	710	Panajachel	8	Panajachel	5	Mayo	2023-12-05T00:00:00	2024-11-08T00:00:00	4	Temperatura máxima	20.2
36343	7	Sololá	710	Panajachel	8	Panajachel	5	Mayo	2023-12-05T00:00:00	2024-11-08T00:00:00	3	Temperatura mínima	19.6
36344	7	Sololá	710	Panajachel	8	Panajachel	5	Mayo	2023-12-05T00:00:00	2024-11-08T00:00:00	5	Humedad	86
36345	7	Sololá	710	Panajachel	8	Panajachel	5	Mayo	2023-12-05T00:00:00	2024-11-08T00:00:00	6	Velocidad del viento	0
36346	7	Sololá	710	Panajachel	8	Panajachel	5	Mayo	2023-12-05T00:00:00	2024-11-08T00:00:00	7	Dirección del viento	0
36347	7	Sololá	710	Panajachel	8	Panajachel	5	Mayo	2023-12-05T00:00:00	2024-11-08T00:00:00	1	Precipitación	0
36348	7	Sololá	710	Panajachel	8	Panajachel	5	Mayo	2023-12-05T00:00:00	2024-11-08T00:00:00	8	Radiación solar	0
36349	7	Sololá	710	Panajachel	8	Panajachel	5	Mayo	2023-12-05T00:00:00	2024-11-08T01:00:00	2	Temperatura media	19.4
36350	7	Sololá	710	Panajachel	8	Panajachel	5	Mayo	2023-12-05T00:00:00	2024-11-08T01:00:00	4	Temperatura máxima	19.9
36351	7	Sololá	710	Panajachel	8	Panajachel	5	Mayo	2023-12-05T00:00:00	2024-11-08T01:00:00	3	Temperatura mínima	19.4
36352	7	Sololá	710	Panajachel	8	Panajachel	5	Mayo	2023-12-05T00:00:00	2024-11-08T01:00:00	5	Humedad	87
36353	7	Sololá	710	Panajachel	8	Panajachel	5	Mayo	2023-12-05T00:00:00	2024-11-08T01:00:00	6	Velocidad del viento	0
36354	7	Sololá	710	Panajachel	8	Panajachel	5	Mayo	2023-12-05T00:00:00	2024-11-08T01:00:00	7	Dirección del viento	0
36355	7	Sololá	710	Panajachel	8	Panajachel	5	Mayo	2023-12-05T00:00:00	2024-11-08T01:00:00	1	Precipitación	0
36356	7	Sololá	710	Panajachel	8	Panajachel	5	Mayo	2023-12-05T00:00:00	2024-11-08T01:00:00	8	Radiación solar	0
36357	7	Sololá	710	Panajachel	8	Panajachel	5	Mayo	2023-12-05T00:00:00	2024-11-08T02:00:00	2	Temperatura media	19.1
36358	7	Sololá	710	Panajachel	8	Panajachel	5	Mayo	2023-12-05T00:00:00	2024-11-08T02:00:00	4	Temperatura máxima	19.4
36359	7	Sololá	710	Panajachel	8	Panajachel	5	Mayo	2023-12-05T00:00:00	2024-11-08T02:00:00	3	Temperatura mínima	19.1
36360	7	Sololá	710	Panajachel	8	Panajachel	5	Mayo	2023-12-05T00:00:00	2024-11-08T02:00:00	5	Humedad	86
36361	7	Sololá	710	Panajachel	8	Panajachel	5	Mayo	2023-12-05T00:00:00	2024-11-08T02:00:00	6	Velocidad del viento	0
36362	7	Sololá	710	Panajachel	8	Panajachel	5	Mayo	2023-12-05T00:00:00	2024-11-08T02:00:00	7	Dirección del viento	0
36363	7	Sololá	710	Panajachel	8	Panajachel	5	Mayo	2023-12-05T00:00:00	2024-11-08T02:00:00	1	Precipitación	0
36364	7	Sololá	710	Panajachel	8	Panajachel	5	Mayo	2023-12-05T00:00:00	2024-11-08T02:00:00	8	Radiación solar	0
36365	7	Sololá	710	Panajachel	8	Panajachel	5	Mayo	2023-12-05T00:00:00	2024-11-08T03:00:00	2	Temperatura media	18.9
36366	7	Sololá	710	Panajachel	8	Panajachel	5	Mayo	2023-12-05T00:00:00	2024-11-08T03:00:00	4	Temperatura máxima	19.1
36367	7	Sololá	710	Panajachel	8	Panajachel	5	Mayo	2023-12-05T00:00:00	2024-11-08T03:00:00	3	Temperatura mínima	18.9
36368	7	Sololá	710	Panajachel	8	Panajachel	5	Mayo	2023-12-05T00:00:00	2024-11-08T03:00:00	5	Humedad	85
36369	7	Sololá	710	Panajachel	8	Panajachel	5	Mayo	2023-12-05T00:00:00	2024-11-08T03:00:00	6	Velocidad del viento	0
36370	7	Sololá	710	Panajachel	8	Panajachel	5	Mayo	2023-12-05T00:00:00	2024-11-08T03:00:00	7	Dirección del viento	0
36371	7	Sololá	710	Panajachel	8	Panajachel	5	Mayo	2023-12-05T00:00:00	2024-11-08T03:00:00	1	Precipitación	0
36372	7	Sololá	710	Panajachel	8	Panajachel	5	Mayo	2023-12-05T00:00:00	2024-11-08T03:00:00	8	Radiación solar	0
36373	7	Sololá	710	Panajachel	8	Panajachel	5	Mayo	2023-12-05T00:00:00	2024-11-08T04:00:00	2	Temperatura media	17.8
36374	7	Sololá	710	Panajachel	8	Panajachel	5	Mayo	2023-12-05T00:00:00	2024-11-08T04:00:00	4	Temperatura máxima	19
36375	7	Sololá	710	Panajachel	8	Panajachel	5	Mayo	2023-12-05T00:00:00	2024-11-08T04:00:00	3	Temperatura mínima	17.8
36376	7	Sololá	710	Panajachel	8	Panajachel	5	Mayo	2023-12-05T00:00:00	2024-11-08T04:00:00	5	Humedad	87
36377	7	Sololá	710	Panajachel	8	Panajachel	5	Mayo	2023-12-05T00:00:00	2024-11-08T04:00:00	6	Velocidad del viento	0
36378	7	Sololá	710	Panajachel	8	Panajachel	5	Mayo	2023-12-05T00:00:00	2024-11-08T04:00:00	7	Dirección del viento	0
36379	7	Sololá	710	Panajachel	8	Panajachel	5	Mayo	2023-12-05T00:00:00	2024-11-08T04:00:00	1	Precipitación	0
36380	7	Sololá	710	Panajachel	8	Panajachel	5	Mayo	2023-12-05T00:00:00	2024-11-08T04:00:00	8	Radiación solar	0
36381	7	Sololá	710	Panajachel	8	Panajachel	5	Mayo	2023-12-05T00:00:00	2024-11-08T05:00:00	2	Temperatura media	17.3
36382	7	Sololá	710	Panajachel	8	Panajachel	5	Mayo	2023-12-05T00:00:00	2024-11-08T05:00:00	4	Temperatura máxima	17.9
36383	7	Sololá	710	Panajachel	8	Panajachel	5	Mayo	2023-12-05T00:00:00	2024-11-08T05:00:00	3	Temperatura mínima	17.3
36384	7	Sololá	710	Panajachel	8	Panajachel	5	Mayo	2023-12-05T00:00:00	2024-11-08T05:00:00	5	Humedad	86
36385	7	Sololá	710	Panajachel	8	Panajachel	5	Mayo	2023-12-05T00:00:00	2024-11-08T05:00:00	6	Velocidad del viento	1.6
36386	7	Sololá	710	Panajachel	8	Panajachel	5	Mayo	2023-12-05T00:00:00	2024-11-08T05:00:00	7	Dirección del viento	1.61
36387	7	Sololá	710	Panajachel	8	Panajachel	5	Mayo	2023-12-05T00:00:00	2024-11-08T05:00:00	1	Precipitación	0
36388	7	Sololá	710	Panajachel	8	Panajachel	5	Mayo	2023-12-05T00:00:00	2024-11-08T05:00:00	8	Radiación solar	0
36389	7	Sololá	710	Panajachel	8	Panajachel	5	Mayo	2023-12-05T00:00:00	2024-11-08T06:00:00	2	Temperatura media	17.3
36390	7	Sololá	710	Panajachel	8	Panajachel	5	Mayo	2023-12-05T00:00:00	2024-11-08T06:00:00	4	Temperatura máxima	17.4
36391	7	Sololá	710	Panajachel	8	Panajachel	5	Mayo	2023-12-05T00:00:00	2024-11-08T06:00:00	3	Temperatura mínima	17.1
36392	7	Sololá	710	Panajachel	8	Panajachel	5	Mayo	2023-12-05T00:00:00	2024-11-08T06:00:00	5	Humedad	85
36393	7	Sololá	710	Panajachel	8	Panajachel	5	Mayo	2023-12-05T00:00:00	2024-11-08T06:00:00	6	Velocidad del viento	1.6
36394	7	Sololá	710	Panajachel	8	Panajachel	5	Mayo	2023-12-05T00:00:00	2024-11-08T06:00:00	7	Dirección del viento	1.61
36395	7	Sololá	710	Panajachel	8	Panajachel	5	Mayo	2023-12-05T00:00:00	2024-11-08T06:00:00	1	Precipitación	0
36396	7	Sololá	710	Panajachel	8	Panajachel	5	Mayo	2023-12-05T00:00:00	2024-11-08T06:00:00	8	Radiación solar	4
36397	7	Sololá	710	Panajachel	8	Panajachel	5	Mayo	2023-12-05T00:00:00	2024-11-08T07:00:00	2	Temperatura media	18.5
36398	7	Sololá	710	Panajachel	8	Panajachel	5	Mayo	2023-12-05T00:00:00	2024-11-08T07:00:00	4	Temperatura máxima	18.6
36399	7	Sololá	710	Panajachel	8	Panajachel	5	Mayo	2023-12-05T00:00:00	2024-11-08T07:00:00	3	Temperatura mínima	17.3
36400	7	Sololá	710	Panajachel	8	Panajachel	5	Mayo	2023-12-05T00:00:00	2024-11-08T07:00:00	5	Humedad	80
36401	7	Sololá	710	Panajachel	8	Panajachel	5	Mayo	2023-12-05T00:00:00	2024-11-08T07:00:00	6	Velocidad del viento	3.2
36402	7	Sololá	710	Panajachel	8	Panajachel	5	Mayo	2023-12-05T00:00:00	2024-11-08T07:00:00	7	Dirección del viento	3.22
36403	7	Sololá	710	Panajachel	8	Panajachel	5	Mayo	2023-12-05T00:00:00	2024-11-08T07:00:00	1	Precipitación	0
36404	7	Sololá	710	Panajachel	8	Panajachel	5	Mayo	2023-12-05T00:00:00	2024-11-08T07:00:00	8	Radiación solar	110
36405	7	Sololá	710	Panajachel	8	Panajachel	5	Mayo	2023-12-05T00:00:00	2024-11-08T08:00:00	2	Temperatura media	20.4
36406	7	Sololá	710	Panajachel	8	Panajachel	5	Mayo	2023-12-05T00:00:00	2024-11-08T08:00:00	4	Temperatura máxima	20.4
36407	7	Sololá	710	Panajachel	8	Panajachel	5	Mayo	2023-12-05T00:00:00	2024-11-08T08:00:00	3	Temperatura mínima	18.5
36408	7	Sololá	710	Panajachel	8	Panajachel	5	Mayo	2023-12-05T00:00:00	2024-11-08T08:00:00	5	Humedad	83
36409	7	Sololá	710	Panajachel	8	Panajachel	5	Mayo	2023-12-05T00:00:00	2024-11-08T08:00:00	6	Velocidad del viento	0
36410	7	Sololá	710	Panajachel	8	Panajachel	5	Mayo	2023-12-05T00:00:00	2024-11-08T08:00:00	7	Dirección del viento	0
36411	7	Sololá	710	Panajachel	8	Panajachel	5	Mayo	2023-12-05T00:00:00	2024-11-08T08:00:00	1	Precipitación	0
36412	7	Sololá	710	Panajachel	8	Panajachel	5	Mayo	2023-12-05T00:00:00	2024-11-08T08:00:00	8	Radiación solar	244
36413	7	Sololá	710	Panajachel	8	Panajachel	5	Mayo	2023-12-05T00:00:00	2024-11-08T09:00:00	2	Temperatura media	20.7
36414	7	Sololá	710	Panajachel	8	Panajachel	5	Mayo	2023-12-05T00:00:00	2024-11-08T09:00:00	4	Temperatura máxima	20.9
36415	7	Sololá	710	Panajachel	8	Panajachel	5	Mayo	2023-12-05T00:00:00	2024-11-08T09:00:00	3	Temperatura mínima	20.4
36416	7	Sololá	710	Panajachel	8	Panajachel	5	Mayo	2023-12-05T00:00:00	2024-11-08T09:00:00	5	Humedad	83
36417	7	Sololá	710	Panajachel	8	Panajachel	5	Mayo	2023-12-05T00:00:00	2024-11-08T09:00:00	6	Velocidad del viento	0
36418	7	Sololá	710	Panajachel	8	Panajachel	5	Mayo	2023-12-05T00:00:00	2024-11-08T09:00:00	7	Dirección del viento	0
36419	7	Sololá	710	Panajachel	8	Panajachel	5	Mayo	2023-12-05T00:00:00	2024-11-08T09:00:00	1	Precipitación	0
36420	7	Sololá	710	Panajachel	8	Panajachel	5	Mayo	2023-12-05T00:00:00	2024-11-08T09:00:00	8	Radiación solar	382
36421	7	Sololá	710	Panajachel	8	Panajachel	5	Mayo	2023-12-05T00:00:00	2024-11-08T10:00:00	2	Temperatura media	21.6
36422	7	Sololá	710	Panajachel	8	Panajachel	5	Mayo	2023-12-05T00:00:00	2024-11-08T10:00:00	4	Temperatura máxima	22.1
36423	7	Sololá	710	Panajachel	8	Panajachel	5	Mayo	2023-12-05T00:00:00	2024-11-08T10:00:00	3	Temperatura mínima	20.7
36424	7	Sololá	710	Panajachel	8	Panajachel	5	Mayo	2023-12-05T00:00:00	2024-11-08T10:00:00	5	Humedad	81
36425	7	Sololá	710	Panajachel	8	Panajachel	5	Mayo	2023-12-05T00:00:00	2024-11-08T10:00:00	6	Velocidad del viento	1.6
36426	7	Sololá	710	Panajachel	8	Panajachel	5	Mayo	2023-12-05T00:00:00	2024-11-08T10:00:00	7	Dirección del viento	1.61
36427	7	Sololá	710	Panajachel	8	Panajachel	5	Mayo	2023-12-05T00:00:00	2024-11-08T10:00:00	1	Precipitación	0
36428	7	Sololá	710	Panajachel	8	Panajachel	5	Mayo	2023-12-05T00:00:00	2024-11-08T10:00:00	8	Radiación solar	694
36429	7	Sololá	710	Panajachel	8	Panajachel	5	Mayo	2023-12-05T00:00:00	2024-11-08T11:00:00	2	Temperatura media	23.2
36430	7	Sololá	710	Panajachel	8	Panajachel	5	Mayo	2023-12-05T00:00:00	2024-11-08T11:00:00	4	Temperatura máxima	23.3
36431	7	Sololá	710	Panajachel	8	Panajachel	5	Mayo	2023-12-05T00:00:00	2024-11-08T11:00:00	3	Temperatura mínima	21.6
36432	7	Sololá	710	Panajachel	8	Panajachel	5	Mayo	2023-12-05T00:00:00	2024-11-08T11:00:00	5	Humedad	76
36433	7	Sololá	710	Panajachel	8	Panajachel	5	Mayo	2023-12-05T00:00:00	2024-11-08T11:00:00	6	Velocidad del viento	0
36434	7	Sololá	710	Panajachel	8	Panajachel	5	Mayo	2023-12-05T00:00:00	2024-11-08T11:00:00	7	Dirección del viento	0
36435	7	Sololá	710	Panajachel	8	Panajachel	5	Mayo	2023-12-05T00:00:00	2024-11-08T11:00:00	1	Precipitación	0
36436	7	Sololá	710	Panajachel	8	Panajachel	5	Mayo	2023-12-05T00:00:00	2024-11-08T11:00:00	8	Radiación solar	852
36437	7	Sololá	710	Panajachel	8	Panajachel	5	Mayo	2023-12-05T00:00:00	2024-11-08T12:00:00	2	Temperatura media	23.6
36438	7	Sololá	710	Panajachel	8	Panajachel	5	Mayo	2023-12-05T00:00:00	2024-11-08T12:00:00	4	Temperatura máxima	23.9
36439	7	Sololá	710	Panajachel	8	Panajachel	5	Mayo	2023-12-05T00:00:00	2024-11-08T12:00:00	3	Temperatura mínima	22.9
36440	7	Sololá	710	Panajachel	8	Panajachel	5	Mayo	2023-12-05T00:00:00	2024-11-08T12:00:00	5	Humedad	72
36441	7	Sololá	710	Panajachel	8	Panajachel	5	Mayo	2023-12-05T00:00:00	2024-11-08T12:00:00	6	Velocidad del viento	0
36442	7	Sololá	710	Panajachel	8	Panajachel	5	Mayo	2023-12-05T00:00:00	2024-11-08T12:00:00	7	Dirección del viento	0
36443	7	Sololá	710	Panajachel	8	Panajachel	5	Mayo	2023-12-05T00:00:00	2024-11-08T12:00:00	1	Precipitación	0
36444	7	Sololá	710	Panajachel	8	Panajachel	5	Mayo	2023-12-05T00:00:00	2024-11-08T12:00:00	8	Radiación solar	920
36445	7	Sololá	710	Panajachel	8	Panajachel	5	Mayo	2023-12-05T00:00:00	2024-11-08T13:00:00	2	Temperatura media	25.1
36446	7	Sololá	710	Panajachel	8	Panajachel	5	Mayo	2023-12-05T00:00:00	2024-11-08T13:00:00	4	Temperatura máxima	25.1
36447	7	Sololá	710	Panajachel	8	Panajachel	5	Mayo	2023-12-05T00:00:00	2024-11-08T13:00:00	3	Temperatura mínima	23.5
36448	7	Sololá	710	Panajachel	8	Panajachel	5	Mayo	2023-12-05T00:00:00	2024-11-08T13:00:00	5	Humedad	74
36449	7	Sololá	710	Panajachel	8	Panajachel	5	Mayo	2023-12-05T00:00:00	2024-11-08T13:00:00	6	Velocidad del viento	0
36450	7	Sololá	710	Panajachel	8	Panajachel	5	Mayo	2023-12-05T00:00:00	2024-11-08T13:00:00	7	Dirección del viento	0
36451	7	Sololá	710	Panajachel	8	Panajachel	5	Mayo	2023-12-05T00:00:00	2024-11-08T13:00:00	1	Precipitación	0
36452	7	Sololá	710	Panajachel	8	Panajachel	5	Mayo	2023-12-05T00:00:00	2024-11-08T13:00:00	8	Radiación solar	879
36453	7	Sololá	710	Panajachel	8	Panajachel	5	Mayo	2023-12-05T00:00:00	2024-11-08T14:00:00	2	Temperatura media	24.4
36454	7	Sololá	710	Panajachel	8	Panajachel	5	Mayo	2023-12-05T00:00:00	2024-11-08T14:00:00	4	Temperatura máxima	25.4
36455	7	Sololá	710	Panajachel	8	Panajachel	5	Mayo	2023-12-05T00:00:00	2024-11-08T14:00:00	3	Temperatura mínima	24.2
36456	7	Sololá	710	Panajachel	8	Panajachel	5	Mayo	2023-12-05T00:00:00	2024-11-08T14:00:00	5	Humedad	77
36457	7	Sololá	710	Panajachel	8	Panajachel	5	Mayo	2023-12-05T00:00:00	2024-11-08T14:00:00	6	Velocidad del viento	0
36458	7	Sololá	710	Panajachel	8	Panajachel	5	Mayo	2023-12-05T00:00:00	2024-11-08T14:00:00	7	Dirección del viento	0
36459	7	Sololá	710	Panajachel	8	Panajachel	5	Mayo	2023-12-05T00:00:00	2024-11-08T14:00:00	1	Precipitación	0
36460	7	Sololá	710	Panajachel	8	Panajachel	5	Mayo	2023-12-05T00:00:00	2024-11-08T14:00:00	8	Radiación solar	529
36461	7	Sololá	710	Panajachel	8	Panajachel	5	Mayo	2023-12-05T00:00:00	2024-11-08T15:00:00	2	Temperatura media	22.7
36462	7	Sololá	710	Panajachel	8	Panajachel	5	Mayo	2023-12-05T00:00:00	2024-11-08T15:00:00	4	Temperatura máxima	24.8
36463	7	Sololá	710	Panajachel	8	Panajachel	5	Mayo	2023-12-05T00:00:00	2024-11-08T15:00:00	3	Temperatura mínima	22.6
36464	7	Sololá	710	Panajachel	8	Panajachel	5	Mayo	2023-12-05T00:00:00	2024-11-08T15:00:00	5	Humedad	85
36465	7	Sololá	710	Panajachel	8	Panajachel	5	Mayo	2023-12-05T00:00:00	2024-11-08T15:00:00	6	Velocidad del viento	1.6
36466	7	Sololá	710	Panajachel	8	Panajachel	5	Mayo	2023-12-05T00:00:00	2024-11-08T15:00:00	7	Dirección del viento	1.61
36467	7	Sololá	710	Panajachel	8	Panajachel	5	Mayo	2023-12-05T00:00:00	2024-11-08T15:00:00	1	Precipitación	0
36468	7	Sololá	710	Panajachel	8	Panajachel	5	Mayo	2023-12-05T00:00:00	2024-11-08T15:00:00	8	Radiación solar	300
36469	7	Sololá	710	Panajachel	8	Panajachel	5	Mayo	2023-12-05T00:00:00	2024-11-08T16:00:00	2	Temperatura media	21.2
36470	7	Sololá	710	Panajachel	8	Panajachel	5	Mayo	2023-12-05T00:00:00	2024-11-08T16:00:00	4	Temperatura máxima	22.6
36471	7	Sololá	710	Panajachel	8	Panajachel	5	Mayo	2023-12-05T00:00:00	2024-11-08T16:00:00	3	Temperatura mínima	21.2
36472	7	Sololá	710	Panajachel	8	Panajachel	5	Mayo	2023-12-05T00:00:00	2024-11-08T16:00:00	5	Humedad	86
36473	7	Sololá	710	Panajachel	8	Panajachel	5	Mayo	2023-12-05T00:00:00	2024-11-08T16:00:00	6	Velocidad del viento	0
36474	7	Sololá	710	Panajachel	8	Panajachel	5	Mayo	2023-12-05T00:00:00	2024-11-08T16:00:00	7	Dirección del viento	0
36475	7	Sololá	710	Panajachel	8	Panajachel	5	Mayo	2023-12-05T00:00:00	2024-11-08T16:00:00	1	Precipitación	0
36476	7	Sololá	710	Panajachel	8	Panajachel	5	Mayo	2023-12-05T00:00:00	2024-11-08T16:00:00	8	Radiación solar	37
36477	7	Sololá	710	Panajachel	8	Panajachel	5	Mayo	2023-12-05T00:00:00	2024-11-08T17:00:00	2	Temperatura media	21.4
36478	7	Sololá	710	Panajachel	8	Panajachel	5	Mayo	2023-12-05T00:00:00	2024-11-08T17:00:00	4	Temperatura máxima	21.6
36479	7	Sololá	710	Panajachel	8	Panajachel	5	Mayo	2023-12-05T00:00:00	2024-11-08T17:00:00	3	Temperatura mínima	21.2
36480	7	Sololá	710	Panajachel	8	Panajachel	5	Mayo	2023-12-05T00:00:00	2024-11-08T17:00:00	5	Humedad	85
36481	7	Sololá	710	Panajachel	8	Panajachel	5	Mayo	2023-12-05T00:00:00	2024-11-08T17:00:00	6	Velocidad del viento	0
36482	7	Sololá	710	Panajachel	8	Panajachel	5	Mayo	2023-12-05T00:00:00	2024-11-08T17:00:00	7	Dirección del viento	0
36483	7	Sololá	710	Panajachel	8	Panajachel	5	Mayo	2023-12-05T00:00:00	2024-11-08T17:00:00	1	Precipitación	0
36484	7	Sololá	710	Panajachel	8	Panajachel	5	Mayo	2023-12-05T00:00:00	2024-11-08T17:00:00	8	Radiación solar	46
36485	7	Sololá	710	Panajachel	8	Panajachel	5	Mayo	2023-12-05T00:00:00	2024-11-08T18:00:00	2	Temperatura media	20.3
36486	7	Sololá	710	Panajachel	8	Panajachel	5	Mayo	2023-12-05T00:00:00	2024-11-08T18:00:00	4	Temperatura máxima	21.4
36487	7	Sololá	710	Panajachel	8	Panajachel	5	Mayo	2023-12-05T00:00:00	2024-11-08T18:00:00	3	Temperatura mínima	20.3
36488	7	Sololá	710	Panajachel	8	Panajachel	5	Mayo	2023-12-05T00:00:00	2024-11-08T18:00:00	5	Humedad	92
36489	7	Sololá	710	Panajachel	8	Panajachel	5	Mayo	2023-12-05T00:00:00	2024-11-08T18:00:00	6	Velocidad del viento	0
36490	7	Sololá	710	Panajachel	8	Panajachel	5	Mayo	2023-12-05T00:00:00	2024-11-08T18:00:00	7	Dirección del viento	0
36491	7	Sololá	710	Panajachel	8	Panajachel	5	Mayo	2023-12-05T00:00:00	2024-11-08T18:00:00	1	Precipitación	0.4
36492	7	Sololá	710	Panajachel	8	Panajachel	5	Mayo	2023-12-05T00:00:00	2024-11-08T18:00:00	8	Radiación solar	9
36493	7	Sololá	710	Panajachel	8	Panajachel	5	Mayo	2023-12-05T00:00:00	2024-11-08T19:00:00	2	Temperatura media	19.9
36494	7	Sololá	710	Panajachel	8	Panajachel	5	Mayo	2023-12-05T00:00:00	2024-11-08T19:00:00	4	Temperatura máxima	20.3
36495	7	Sololá	710	Panajachel	8	Panajachel	5	Mayo	2023-12-05T00:00:00	2024-11-08T19:00:00	3	Temperatura mínima	19.6
36496	7	Sololá	710	Panajachel	8	Panajachel	5	Mayo	2023-12-05T00:00:00	2024-11-08T19:00:00	5	Humedad	93
36497	7	Sololá	710	Panajachel	8	Panajachel	5	Mayo	2023-12-05T00:00:00	2024-11-08T19:00:00	6	Velocidad del viento	1.6
36498	7	Sololá	710	Panajachel	8	Panajachel	5	Mayo	2023-12-05T00:00:00	2024-11-08T19:00:00	7	Dirección del viento	1.61
36499	7	Sololá	710	Panajachel	8	Panajachel	5	Mayo	2023-12-05T00:00:00	2024-11-08T19:00:00	1	Precipitación	0.2
36500	7	Sololá	710	Panajachel	8	Panajachel	5	Mayo	2023-12-05T00:00:00	2024-11-08T19:00:00	8	Radiación solar	0
36501	7	Sololá	710	Panajachel	8	Panajachel	5	Mayo	2023-12-05T00:00:00	2024-11-08T20:00:00	2	Temperatura media	19.8
36502	7	Sololá	710	Panajachel	8	Panajachel	5	Mayo	2023-12-05T00:00:00	2024-11-08T20:00:00	4	Temperatura máxima	20.1
36503	7	Sololá	710	Panajachel	8	Panajachel	5	Mayo	2023-12-05T00:00:00	2024-11-08T20:00:00	3	Temperatura mínima	19.8
36504	7	Sololá	710	Panajachel	8	Panajachel	5	Mayo	2023-12-05T00:00:00	2024-11-08T20:00:00	5	Humedad	94
36505	7	Sololá	710	Panajachel	8	Panajachel	5	Mayo	2023-12-05T00:00:00	2024-11-08T20:00:00	6	Velocidad del viento	1.6
36506	7	Sololá	710	Panajachel	8	Panajachel	5	Mayo	2023-12-05T00:00:00	2024-11-08T20:00:00	7	Dirección del viento	1.61
36507	7	Sololá	710	Panajachel	8	Panajachel	5	Mayo	2023-12-05T00:00:00	2024-11-08T20:00:00	1	Precipitación	0
36508	7	Sololá	710	Panajachel	8	Panajachel	5	Mayo	2023-12-05T00:00:00	2024-11-08T20:00:00	8	Radiación solar	0
36509	7	Sololá	710	Panajachel	8	Panajachel	5	Mayo	2023-12-05T00:00:00	2024-11-08T21:00:00	2	Temperatura media	19.7
36510	7	Sololá	710	Panajachel	8	Panajachel	5	Mayo	2023-12-05T00:00:00	2024-11-08T21:00:00	4	Temperatura máxima	19.8
36511	7	Sololá	710	Panajachel	8	Panajachel	5	Mayo	2023-12-05T00:00:00	2024-11-08T21:00:00	3	Temperatura mínima	19.7
36512	7	Sololá	710	Panajachel	8	Panajachel	5	Mayo	2023-12-05T00:00:00	2024-11-08T21:00:00	5	Humedad	94
36513	7	Sololá	710	Panajachel	8	Panajachel	5	Mayo	2023-12-05T00:00:00	2024-11-08T21:00:00	6	Velocidad del viento	0
36514	7	Sololá	710	Panajachel	8	Panajachel	5	Mayo	2023-12-05T00:00:00	2024-11-08T21:00:00	7	Dirección del viento	0
36515	7	Sololá	710	Panajachel	8	Panajachel	5	Mayo	2023-12-05T00:00:00	2024-11-08T21:00:00	1	Precipitación	0
36516	7	Sololá	710	Panajachel	8	Panajachel	5	Mayo	2023-12-05T00:00:00	2024-11-08T21:00:00	8	Radiación solar	0
36517	7	Sololá	710	Panajachel	8	Panajachel	5	Mayo	2023-12-05T00:00:00	2024-11-08T22:00:00	2	Temperatura media	19.1
36518	7	Sololá	710	Panajachel	8	Panajachel	5	Mayo	2023-12-05T00:00:00	2024-11-08T22:00:00	4	Temperatura máxima	19.7
36519	7	Sololá	710	Panajachel	8	Panajachel	5	Mayo	2023-12-05T00:00:00	2024-11-08T22:00:00	3	Temperatura mínima	19.1
36520	7	Sololá	710	Panajachel	8	Panajachel	5	Mayo	2023-12-05T00:00:00	2024-11-08T22:00:00	5	Humedad	95
36521	7	Sololá	710	Panajachel	8	Panajachel	5	Mayo	2023-12-05T00:00:00	2024-11-08T22:00:00	6	Velocidad del viento	0
36522	7	Sololá	710	Panajachel	8	Panajachel	5	Mayo	2023-12-05T00:00:00	2024-11-08T22:00:00	7	Dirección del viento	0
36523	7	Sololá	710	Panajachel	8	Panajachel	5	Mayo	2023-12-05T00:00:00	2024-11-08T22:00:00	1	Precipitación	0
36524	7	Sololá	710	Panajachel	8	Panajachel	5	Mayo	2023-12-05T00:00:00	2024-11-08T22:00:00	8	Radiación solar	0
36525	7	Sololá	710	Panajachel	8	Panajachel	5	Mayo	2023-12-05T00:00:00	2024-11-08T23:00:00	2	Temperatura media	18.5
36526	7	Sololá	710	Panajachel	8	Panajachel	5	Mayo	2023-12-05T00:00:00	2024-11-08T23:00:00	4	Temperatura máxima	19.1
36527	7	Sololá	710	Panajachel	8	Panajachel	5	Mayo	2023-12-05T00:00:00	2024-11-08T23:00:00	3	Temperatura mínima	18.4
36528	7	Sololá	710	Panajachel	8	Panajachel	5	Mayo	2023-12-05T00:00:00	2024-11-08T23:00:00	5	Humedad	91
36529	7	Sololá	710	Panajachel	8	Panajachel	5	Mayo	2023-12-05T00:00:00	2024-11-08T23:00:00	6	Velocidad del viento	1.6
36530	7	Sololá	710	Panajachel	8	Panajachel	5	Mayo	2023-12-05T00:00:00	2024-11-08T23:00:00	7	Dirección del viento	1.61
36531	7	Sololá	710	Panajachel	8	Panajachel	5	Mayo	2023-12-05T00:00:00	2024-11-08T23:00:00	1	Precipitación	0
36532	7	Sololá	710	Panajachel	8	Panajachel	5	Mayo	2023-12-05T00:00:00	2024-11-08T23:00:00	8	Radiación solar	0
36533	7	Sololá	710	Panajachel	8	Panajachel	5	Mayo	2023-05-13T00:00:00	2024-11-08T00:00:00	2	Temperatura media	18.6
36534	7	Sololá	710	Panajachel	8	Panajachel	5	Mayo	2023-05-13T00:00:00	2024-11-08T00:00:00	4	Temperatura máxima	18.7
36535	7	Sololá	710	Panajachel	8	Panajachel	5	Mayo	2023-05-13T00:00:00	2024-11-08T00:00:00	3	Temperatura mínima	18.4
36536	7	Sololá	710	Panajachel	8	Panajachel	5	Mayo	2023-05-13T00:00:00	2024-11-08T00:00:00	5	Humedad	90
36537	7	Sololá	710	Panajachel	8	Panajachel	5	Mayo	2023-05-13T00:00:00	2024-11-08T00:00:00	6	Velocidad del viento	1.6
36538	7	Sololá	710	Panajachel	8	Panajachel	5	Mayo	2023-05-13T00:00:00	2024-11-08T00:00:00	7	Dirección del viento	1.61
36539	7	Sololá	710	Panajachel	8	Panajachel	5	Mayo	2023-05-13T00:00:00	2024-11-08T00:00:00	1	Precipitación	0
36540	7	Sololá	710	Panajachel	8	Panajachel	5	Mayo	2023-05-13T00:00:00	2024-11-08T00:00:00	8	Radiación solar	0
36541	7	Sololá	710	Panajachel	8	Panajachel	5	Mayo	2023-05-13T00:00:00	2024-11-08T01:00:00	2	Temperatura media	17.9
36542	7	Sololá	710	Panajachel	8	Panajachel	5	Mayo	2023-05-13T00:00:00	2024-11-08T01:00:00	4	Temperatura máxima	18.7
36543	7	Sololá	710	Panajachel	8	Panajachel	5	Mayo	2023-05-13T00:00:00	2024-11-08T01:00:00	3	Temperatura mínima	17.9
36544	7	Sololá	710	Panajachel	8	Panajachel	5	Mayo	2023-05-13T00:00:00	2024-11-08T01:00:00	5	Humedad	93
36545	7	Sololá	710	Panajachel	8	Panajachel	5	Mayo	2023-05-13T00:00:00	2024-11-08T01:00:00	6	Velocidad del viento	3.2
36546	7	Sololá	710	Panajachel	8	Panajachel	5	Mayo	2023-05-13T00:00:00	2024-11-08T01:00:00	7	Dirección del viento	3.22
36547	7	Sololá	710	Panajachel	8	Panajachel	5	Mayo	2023-05-13T00:00:00	2024-11-08T01:00:00	1	Precipitación	3.8
36548	7	Sololá	710	Panajachel	8	Panajachel	5	Mayo	2023-05-13T00:00:00	2024-11-08T01:00:00	8	Radiación solar	0
36549	7	Sololá	710	Panajachel	8	Panajachel	5	Mayo	2023-05-13T00:00:00	2024-11-08T02:00:00	2	Temperatura media	17.4
36550	7	Sololá	710	Panajachel	8	Panajachel	5	Mayo	2023-05-13T00:00:00	2024-11-08T02:00:00	4	Temperatura máxima	17.9
36551	7	Sololá	710	Panajachel	8	Panajachel	5	Mayo	2023-05-13T00:00:00	2024-11-08T02:00:00	3	Temperatura mínima	17.2
36552	7	Sololá	710	Panajachel	8	Panajachel	5	Mayo	2023-05-13T00:00:00	2024-11-08T02:00:00	5	Humedad	96
36553	7	Sololá	710	Panajachel	8	Panajachel	5	Mayo	2023-05-13T00:00:00	2024-11-08T02:00:00	6	Velocidad del viento	3.2
36554	7	Sololá	710	Panajachel	8	Panajachel	5	Mayo	2023-05-13T00:00:00	2024-11-08T02:00:00	7	Dirección del viento	3.22
36555	7	Sololá	710	Panajachel	8	Panajachel	5	Mayo	2023-05-13T00:00:00	2024-11-08T02:00:00	1	Precipitación	12
36556	7	Sololá	710	Panajachel	8	Panajachel	5	Mayo	2023-05-13T00:00:00	2024-11-08T02:00:00	8	Radiación solar	0
36557	7	Sololá	710	Panajachel	8	Panajachel	5	Mayo	2023-05-13T00:00:00	2024-11-08T03:00:00	2	Temperatura media	16.9
36558	7	Sololá	710	Panajachel	8	Panajachel	5	Mayo	2023-05-13T00:00:00	2024-11-08T03:00:00	4	Temperatura máxima	17.4
36559	7	Sololá	710	Panajachel	8	Panajachel	5	Mayo	2023-05-13T00:00:00	2024-11-08T03:00:00	3	Temperatura mínima	16.9
36560	7	Sololá	710	Panajachel	8	Panajachel	5	Mayo	2023-05-13T00:00:00	2024-11-08T03:00:00	5	Humedad	97
36561	7	Sololá	710	Panajachel	8	Panajachel	5	Mayo	2023-05-13T00:00:00	2024-11-08T03:00:00	6	Velocidad del viento	0
36562	7	Sololá	710	Panajachel	8	Panajachel	5	Mayo	2023-05-13T00:00:00	2024-11-08T03:00:00	7	Dirección del viento	0
36563	7	Sololá	710	Panajachel	8	Panajachel	5	Mayo	2023-05-13T00:00:00	2024-11-08T03:00:00	1	Precipitación	0
36564	7	Sololá	710	Panajachel	8	Panajachel	5	Mayo	2023-05-13T00:00:00	2024-11-08T03:00:00	8	Radiación solar	0
36565	7	Sololá	710	Panajachel	8	Panajachel	5	Mayo	2023-05-13T00:00:00	2024-11-08T04:00:00	2	Temperatura media	16.7
36566	7	Sololá	710	Panajachel	8	Panajachel	5	Mayo	2023-05-13T00:00:00	2024-11-08T04:00:00	4	Temperatura máxima	17
36567	7	Sololá	710	Panajachel	8	Panajachel	5	Mayo	2023-05-13T00:00:00	2024-11-08T04:00:00	3	Temperatura mínima	16.7
36568	7	Sololá	710	Panajachel	8	Panajachel	5	Mayo	2023-05-13T00:00:00	2024-11-08T04:00:00	5	Humedad	96
36569	7	Sololá	710	Panajachel	8	Panajachel	5	Mayo	2023-05-13T00:00:00	2024-11-08T04:00:00	6	Velocidad del viento	0
36570	7	Sololá	710	Panajachel	8	Panajachel	5	Mayo	2023-05-13T00:00:00	2024-11-08T04:00:00	7	Dirección del viento	0
36571	7	Sololá	710	Panajachel	8	Panajachel	5	Mayo	2023-05-13T00:00:00	2024-11-08T04:00:00	1	Precipitación	0
36572	7	Sololá	710	Panajachel	8	Panajachel	5	Mayo	2023-05-13T00:00:00	2024-11-08T04:00:00	8	Radiación solar	0
36573	7	Sololá	710	Panajachel	8	Panajachel	5	Mayo	2023-05-13T00:00:00	2024-11-08T05:00:00	2	Temperatura media	16.7
36574	7	Sololá	710	Panajachel	8	Panajachel	5	Mayo	2023-05-13T00:00:00	2024-11-08T05:00:00	4	Temperatura máxima	16.9
36575	7	Sololá	710	Panajachel	8	Panajachel	5	Mayo	2023-05-13T00:00:00	2024-11-08T05:00:00	3	Temperatura mínima	16.5
36576	7	Sololá	710	Panajachel	8	Panajachel	5	Mayo	2023-05-13T00:00:00	2024-11-08T05:00:00	5	Humedad	94
36577	7	Sololá	710	Panajachel	8	Panajachel	5	Mayo	2023-05-13T00:00:00	2024-11-08T05:00:00	6	Velocidad del viento	0
36578	7	Sololá	710	Panajachel	8	Panajachel	5	Mayo	2023-05-13T00:00:00	2024-11-08T05:00:00	7	Dirección del viento	0
36579	7	Sololá	710	Panajachel	8	Panajachel	5	Mayo	2023-05-13T00:00:00	2024-11-08T05:00:00	1	Precipitación	0
36580	7	Sololá	710	Panajachel	8	Panajachel	5	Mayo	2023-05-13T00:00:00	2024-11-08T05:00:00	8	Radiación solar	0
36581	7	Sololá	710	Panajachel	8	Panajachel	5	Mayo	2023-05-13T00:00:00	2024-11-08T06:00:00	2	Temperatura media	16.2
36582	7	Sololá	710	Panajachel	8	Panajachel	5	Mayo	2023-05-13T00:00:00	2024-11-08T06:00:00	4	Temperatura máxima	16.6
36583	7	Sololá	710	Panajachel	8	Panajachel	5	Mayo	2023-05-13T00:00:00	2024-11-08T06:00:00	3	Temperatura mínima	16.1
36584	7	Sololá	710	Panajachel	8	Panajachel	5	Mayo	2023-05-13T00:00:00	2024-11-08T06:00:00	5	Humedad	94
36585	7	Sololá	710	Panajachel	8	Panajachel	5	Mayo	2023-05-13T00:00:00	2024-11-08T06:00:00	6	Velocidad del viento	0
36586	7	Sololá	710	Panajachel	8	Panajachel	5	Mayo	2023-05-13T00:00:00	2024-11-08T06:00:00	7	Dirección del viento	0
36587	7	Sololá	710	Panajachel	8	Panajachel	5	Mayo	2023-05-13T00:00:00	2024-11-08T06:00:00	1	Precipitación	0
36588	7	Sololá	710	Panajachel	8	Panajachel	5	Mayo	2023-05-13T00:00:00	2024-11-08T06:00:00	8	Radiación solar	3
36589	7	Sololá	710	Panajachel	8	Panajachel	5	Mayo	2023-05-13T00:00:00	2024-11-08T07:00:00	2	Temperatura media	17.8
36590	7	Sololá	710	Panajachel	8	Panajachel	5	Mayo	2023-05-13T00:00:00	2024-11-08T07:00:00	4	Temperatura máxima	17.8
36591	7	Sololá	710	Panajachel	8	Panajachel	5	Mayo	2023-05-13T00:00:00	2024-11-08T07:00:00	3	Temperatura mínima	16.2
36592	7	Sololá	710	Panajachel	8	Panajachel	5	Mayo	2023-05-13T00:00:00	2024-11-08T07:00:00	5	Humedad	89
36593	7	Sololá	710	Panajachel	8	Panajachel	5	Mayo	2023-05-13T00:00:00	2024-11-08T07:00:00	6	Velocidad del viento	0
36594	7	Sololá	710	Panajachel	8	Panajachel	5	Mayo	2023-05-13T00:00:00	2024-11-08T07:00:00	7	Dirección del viento	0
36595	7	Sololá	710	Panajachel	8	Panajachel	5	Mayo	2023-05-13T00:00:00	2024-11-08T07:00:00	1	Precipitación	0
36596	7	Sololá	710	Panajachel	8	Panajachel	5	Mayo	2023-05-13T00:00:00	2024-11-08T07:00:00	8	Radiación solar	86
36597	7	Sololá	710	Panajachel	8	Panajachel	5	Mayo	2023-05-13T00:00:00	2024-11-08T08:00:00	2	Temperatura media	20.8
36598	7	Sololá	710	Panajachel	8	Panajachel	5	Mayo	2023-05-13T00:00:00	2024-11-08T08:00:00	4	Temperatura máxima	20.8
36599	7	Sololá	710	Panajachel	8	Panajachel	5	Mayo	2023-05-13T00:00:00	2024-11-08T08:00:00	3	Temperatura mínima	17.8
36600	7	Sololá	710	Panajachel	8	Panajachel	5	Mayo	2023-05-13T00:00:00	2024-11-08T08:00:00	5	Humedad	80
36601	7	Sololá	710	Panajachel	8	Panajachel	5	Mayo	2023-05-13T00:00:00	2024-11-08T08:00:00	6	Velocidad del viento	1.6
36602	7	Sololá	710	Panajachel	8	Panajachel	5	Mayo	2023-05-13T00:00:00	2024-11-08T08:00:00	7	Dirección del viento	1.61
36603	7	Sololá	710	Panajachel	8	Panajachel	5	Mayo	2023-05-13T00:00:00	2024-11-08T08:00:00	1	Precipitación	0
36604	7	Sololá	710	Panajachel	8	Panajachel	5	Mayo	2023-05-13T00:00:00	2024-11-08T08:00:00	8	Radiación solar	296
36605	7	Sololá	710	Panajachel	8	Panajachel	5	Mayo	2023-05-13T00:00:00	2024-11-08T09:00:00	2	Temperatura media	21.7
36606	7	Sololá	710	Panajachel	8	Panajachel	5	Mayo	2023-05-13T00:00:00	2024-11-08T09:00:00	4	Temperatura máxima	22.3
36607	7	Sololá	710	Panajachel	8	Panajachel	5	Mayo	2023-05-13T00:00:00	2024-11-08T09:00:00	3	Temperatura mínima	20.8
36608	7	Sololá	710	Panajachel	8	Panajachel	5	Mayo	2023-05-13T00:00:00	2024-11-08T09:00:00	5	Humedad	79
36609	7	Sololá	710	Panajachel	8	Panajachel	5	Mayo	2023-05-13T00:00:00	2024-11-08T09:00:00	6	Velocidad del viento	0
36610	7	Sololá	710	Panajachel	8	Panajachel	5	Mayo	2023-05-13T00:00:00	2024-11-08T09:00:00	7	Dirección del viento	0
36611	7	Sololá	710	Panajachel	8	Panajachel	5	Mayo	2023-05-13T00:00:00	2024-11-08T09:00:00	1	Precipitación	0
36612	7	Sololá	710	Panajachel	8	Panajachel	5	Mayo	2023-05-13T00:00:00	2024-11-08T09:00:00	8	Radiación solar	509
36613	7	Sololá	710	Panajachel	8	Panajachel	5	Mayo	2023-05-13T00:00:00	2024-11-08T10:00:00	2	Temperatura media	22.2
36614	7	Sololá	710	Panajachel	8	Panajachel	5	Mayo	2023-05-13T00:00:00	2024-11-08T10:00:00	4	Temperatura máxima	22.3
36615	7	Sololá	710	Panajachel	8	Panajachel	5	Mayo	2023-05-13T00:00:00	2024-11-08T10:00:00	3	Temperatura mínima	21.6
36616	7	Sololá	710	Panajachel	8	Panajachel	5	Mayo	2023-05-13T00:00:00	2024-11-08T10:00:00	5	Humedad	80
36617	7	Sololá	710	Panajachel	8	Panajachel	5	Mayo	2023-05-13T00:00:00	2024-11-08T10:00:00	6	Velocidad del viento	0
36618	7	Sololá	710	Panajachel	8	Panajachel	5	Mayo	2023-05-13T00:00:00	2024-11-08T10:00:00	7	Dirección del viento	0
36619	7	Sololá	710	Panajachel	8	Panajachel	5	Mayo	2023-05-13T00:00:00	2024-11-08T10:00:00	1	Precipitación	0
36620	7	Sololá	710	Panajachel	8	Panajachel	5	Mayo	2023-05-13T00:00:00	2024-11-08T10:00:00	8	Radiación solar	707
36621	7	Sololá	710	Panajachel	8	Panajachel	5	Mayo	2023-05-13T00:00:00	2024-11-08T11:00:00	2	Temperatura media	23.2
36622	7	Sololá	710	Panajachel	8	Panajachel	5	Mayo	2023-05-13T00:00:00	2024-11-08T11:00:00	4	Temperatura máxima	23.2
36623	7	Sololá	710	Panajachel	8	Panajachel	5	Mayo	2023-05-13T00:00:00	2024-11-08T11:00:00	3	Temperatura mínima	22.2
36624	7	Sololá	710	Panajachel	8	Panajachel	5	Mayo	2023-05-13T00:00:00	2024-11-08T11:00:00	5	Humedad	75
36625	7	Sololá	710	Panajachel	8	Panajachel	5	Mayo	2023-05-13T00:00:00	2024-11-08T11:00:00	6	Velocidad del viento	3.2
36626	7	Sololá	710	Panajachel	8	Panajachel	5	Mayo	2023-05-13T00:00:00	2024-11-08T11:00:00	7	Dirección del viento	3.22
36627	7	Sololá	710	Panajachel	8	Panajachel	5	Mayo	2023-05-13T00:00:00	2024-11-08T11:00:00	1	Precipitación	0.2
36628	7	Sololá	710	Panajachel	8	Panajachel	5	Mayo	2023-05-13T00:00:00	2024-11-08T11:00:00	8	Radiación solar	845
36629	7	Sololá	710	Panajachel	8	Panajachel	5	Mayo	2023-05-13T00:00:00	2024-11-08T12:00:00	2	Temperatura media	23.9
36630	7	Sololá	710	Panajachel	8	Panajachel	5	Mayo	2023-05-13T00:00:00	2024-11-08T12:00:00	4	Temperatura máxima	24.5
36631	7	Sololá	710	Panajachel	8	Panajachel	5	Mayo	2023-05-13T00:00:00	2024-11-08T12:00:00	3	Temperatura mínima	23.1
36632	7	Sololá	710	Panajachel	8	Panajachel	5	Mayo	2023-05-13T00:00:00	2024-11-08T12:00:00	5	Humedad	77
36633	7	Sololá	710	Panajachel	8	Panajachel	5	Mayo	2023-05-13T00:00:00	2024-11-08T12:00:00	6	Velocidad del viento	3.2
36634	7	Sololá	710	Panajachel	8	Panajachel	5	Mayo	2023-05-13T00:00:00	2024-11-08T12:00:00	7	Dirección del viento	3.22
36635	7	Sololá	710	Panajachel	8	Panajachel	5	Mayo	2023-05-13T00:00:00	2024-11-08T12:00:00	1	Precipitación	0
36636	7	Sololá	710	Panajachel	8	Panajachel	5	Mayo	2023-05-13T00:00:00	2024-11-08T12:00:00	8	Radiación solar	950
36637	7	Sololá	710	Panajachel	8	Panajachel	5	Mayo	2023-05-13T00:00:00	2024-11-08T13:00:00	2	Temperatura media	23.2
36638	7	Sololá	710	Panajachel	8	Panajachel	5	Mayo	2023-05-13T00:00:00	2024-11-08T13:00:00	4	Temperatura máxima	24.5
36639	7	Sololá	710	Panajachel	8	Panajachel	5	Mayo	2023-05-13T00:00:00	2024-11-08T13:00:00	3	Temperatura mínima	22.9
36640	7	Sololá	710	Panajachel	8	Panajachel	5	Mayo	2023-05-13T00:00:00	2024-11-08T13:00:00	5	Humedad	80
36641	7	Sololá	710	Panajachel	8	Panajachel	5	Mayo	2023-05-13T00:00:00	2024-11-08T13:00:00	6	Velocidad del viento	3.2
36642	7	Sololá	710	Panajachel	8	Panajachel	5	Mayo	2023-05-13T00:00:00	2024-11-08T13:00:00	7	Dirección del viento	3.22
36643	7	Sololá	710	Panajachel	8	Panajachel	5	Mayo	2023-05-13T00:00:00	2024-11-08T13:00:00	1	Precipitación	0
36644	7	Sololá	710	Panajachel	8	Panajachel	5	Mayo	2023-05-13T00:00:00	2024-11-08T13:00:00	8	Radiación solar	687
36645	7	Sololá	710	Panajachel	8	Panajachel	5	Mayo	2023-05-13T00:00:00	2024-11-08T14:00:00	2	Temperatura media	21.4
36646	7	Sololá	710	Panajachel	8	Panajachel	5	Mayo	2023-05-13T00:00:00	2024-11-08T14:00:00	4	Temperatura máxima	23.2
36647	7	Sololá	710	Panajachel	8	Panajachel	5	Mayo	2023-05-13T00:00:00	2024-11-08T14:00:00	3	Temperatura mínima	21.4
36648	7	Sololá	710	Panajachel	8	Panajachel	5	Mayo	2023-05-13T00:00:00	2024-11-08T14:00:00	5	Humedad	84
36649	7	Sololá	710	Panajachel	8	Panajachel	5	Mayo	2023-05-13T00:00:00	2024-11-08T14:00:00	6	Velocidad del viento	3.2
36650	7	Sololá	710	Panajachel	8	Panajachel	5	Mayo	2023-05-13T00:00:00	2024-11-08T14:00:00	7	Dirección del viento	3.22
36651	7	Sololá	710	Panajachel	8	Panajachel	5	Mayo	2023-05-13T00:00:00	2024-11-08T14:00:00	1	Precipitación	0
36652	7	Sololá	710	Panajachel	8	Panajachel	5	Mayo	2023-05-13T00:00:00	2024-11-08T14:00:00	8	Radiación solar	154
36653	7	Sololá	710	Panajachel	8	Panajachel	5	Mayo	2023-05-13T00:00:00	2024-11-08T15:00:00	2	Temperatura media	21.7
36654	7	Sololá	710	Panajachel	8	Panajachel	5	Mayo	2023-05-13T00:00:00	2024-11-08T15:00:00	4	Temperatura máxima	22
36655	7	Sololá	710	Panajachel	8	Panajachel	5	Mayo	2023-05-13T00:00:00	2024-11-08T15:00:00	3	Temperatura mínima	21.3
36656	7	Sololá	710	Panajachel	8	Panajachel	5	Mayo	2023-05-13T00:00:00	2024-11-08T15:00:00	5	Humedad	79
36657	7	Sololá	710	Panajachel	8	Panajachel	5	Mayo	2023-05-13T00:00:00	2024-11-08T15:00:00	6	Velocidad del viento	1.6
36658	7	Sololá	710	Panajachel	8	Panajachel	5	Mayo	2023-05-13T00:00:00	2024-11-08T15:00:00	7	Dirección del viento	1.61
36659	7	Sololá	710	Panajachel	8	Panajachel	5	Mayo	2023-05-13T00:00:00	2024-11-08T15:00:00	1	Precipitación	0
36660	7	Sololá	710	Panajachel	8	Panajachel	5	Mayo	2023-05-13T00:00:00	2024-11-08T15:00:00	8	Radiación solar	168
36661	7	Sololá	710	Panajachel	8	Panajachel	5	Mayo	2023-05-13T00:00:00	2024-11-08T16:00:00	2	Temperatura media	20.4
36662	7	Sololá	710	Panajachel	8	Panajachel	5	Mayo	2023-05-13T00:00:00	2024-11-08T16:00:00	4	Temperatura máxima	21.7
36663	7	Sololá	710	Panajachel	8	Panajachel	5	Mayo	2023-05-13T00:00:00	2024-11-08T16:00:00	3	Temperatura mínima	20.4
36664	7	Sololá	710	Panajachel	8	Panajachel	5	Mayo	2023-05-13T00:00:00	2024-11-08T16:00:00	5	Humedad	92
36665	7	Sololá	710	Panajachel	8	Panajachel	5	Mayo	2023-05-13T00:00:00	2024-11-08T16:00:00	6	Velocidad del viento	1.6
36666	7	Sololá	710	Panajachel	8	Panajachel	5	Mayo	2023-05-13T00:00:00	2024-11-08T16:00:00	7	Dirección del viento	1.61
36667	7	Sololá	710	Panajachel	8	Panajachel	5	Mayo	2023-05-13T00:00:00	2024-11-08T16:00:00	1	Precipitación	0
36668	7	Sololá	710	Panajachel	8	Panajachel	5	Mayo	2023-05-13T00:00:00	2024-11-08T16:00:00	8	Radiación solar	51
36669	7	Sololá	710	Panajachel	8	Panajachel	5	Mayo	2023-05-13T00:00:00	2024-11-08T17:00:00	2	Temperatura media	19.3
36670	7	Sololá	710	Panajachel	8	Panajachel	5	Mayo	2023-05-13T00:00:00	2024-11-08T17:00:00	4	Temperatura máxima	20.4
36671	7	Sololá	710	Panajachel	8	Panajachel	5	Mayo	2023-05-13T00:00:00	2024-11-08T17:00:00	3	Temperatura mínima	19.3
36672	7	Sololá	710	Panajachel	8	Panajachel	5	Mayo	2023-05-13T00:00:00	2024-11-08T17:00:00	5	Humedad	94
36673	7	Sololá	710	Panajachel	8	Panajachel	5	Mayo	2023-05-13T00:00:00	2024-11-08T17:00:00	6	Velocidad del viento	0
36674	7	Sololá	710	Panajachel	8	Panajachel	5	Mayo	2023-05-13T00:00:00	2024-11-08T17:00:00	7	Dirección del viento	0
36675	7	Sololá	710	Panajachel	8	Panajachel	5	Mayo	2023-05-13T00:00:00	2024-11-08T17:00:00	1	Precipitación	3.6
36676	7	Sololá	710	Panajachel	8	Panajachel	5	Mayo	2023-05-13T00:00:00	2024-11-08T17:00:00	8	Radiación solar	51
36677	7	Sololá	710	Panajachel	8	Panajachel	5	Mayo	2023-05-13T00:00:00	2024-11-08T18:00:00	2	Temperatura media	19.1
36678	7	Sololá	710	Panajachel	8	Panajachel	5	Mayo	2023-05-13T00:00:00	2024-11-08T18:00:00	4	Temperatura máxima	19.4
36679	7	Sololá	710	Panajachel	8	Panajachel	5	Mayo	2023-05-13T00:00:00	2024-11-08T18:00:00	3	Temperatura mínima	19.1
36680	7	Sololá	710	Panajachel	8	Panajachel	5	Mayo	2023-05-13T00:00:00	2024-11-08T18:00:00	5	Humedad	93
36681	7	Sololá	710	Panajachel	8	Panajachel	5	Mayo	2023-05-13T00:00:00	2024-11-08T18:00:00	6	Velocidad del viento	0
36682	7	Sololá	710	Panajachel	8	Panajachel	5	Mayo	2023-05-13T00:00:00	2024-11-08T18:00:00	7	Dirección del viento	0
36683	7	Sololá	710	Panajachel	8	Panajachel	5	Mayo	2023-05-13T00:00:00	2024-11-08T18:00:00	1	Precipitación	0
36684	7	Sololá	710	Panajachel	8	Panajachel	5	Mayo	2023-05-13T00:00:00	2024-11-08T18:00:00	8	Radiación solar	19
36685	7	Sololá	710	Panajachel	8	Panajachel	5	Mayo	2023-05-13T00:00:00	2024-11-08T19:00:00	2	Temperatura media	18.3
36686	7	Sololá	710	Panajachel	8	Panajachel	5	Mayo	2023-05-13T00:00:00	2024-11-08T19:00:00	4	Temperatura máxima	19.1
36687	7	Sololá	710	Panajachel	8	Panajachel	5	Mayo	2023-05-13T00:00:00	2024-11-08T19:00:00	3	Temperatura mínima	18.2
36688	7	Sololá	710	Panajachel	8	Panajachel	5	Mayo	2023-05-13T00:00:00	2024-11-08T19:00:00	5	Humedad	94
36689	7	Sololá	710	Panajachel	8	Panajachel	5	Mayo	2023-05-13T00:00:00	2024-11-08T19:00:00	6	Velocidad del viento	0
36690	7	Sololá	710	Panajachel	8	Panajachel	5	Mayo	2023-05-13T00:00:00	2024-11-08T19:00:00	7	Dirección del viento	0
36691	7	Sololá	710	Panajachel	8	Panajachel	5	Mayo	2023-05-13T00:00:00	2024-11-08T19:00:00	1	Precipitación	0.6
36692	7	Sololá	710	Panajachel	8	Panajachel	5	Mayo	2023-05-13T00:00:00	2024-11-08T19:00:00	8	Radiación solar	0
36693	7	Sololá	710	Panajachel	8	Panajachel	5	Mayo	2023-05-13T00:00:00	2024-11-08T20:00:00	2	Temperatura media	17.8
36694	7	Sololá	710	Panajachel	8	Panajachel	5	Mayo	2023-05-13T00:00:00	2024-11-08T20:00:00	4	Temperatura máxima	18.3
36695	7	Sololá	710	Panajachel	8	Panajachel	5	Mayo	2023-05-13T00:00:00	2024-11-08T20:00:00	3	Temperatura mínima	17.8
36696	7	Sololá	710	Panajachel	8	Panajachel	5	Mayo	2023-05-13T00:00:00	2024-11-08T20:00:00	5	Humedad	94
36697	7	Sololá	710	Panajachel	8	Panajachel	5	Mayo	2023-05-13T00:00:00	2024-11-08T20:00:00	6	Velocidad del viento	0
36698	7	Sololá	710	Panajachel	8	Panajachel	5	Mayo	2023-05-13T00:00:00	2024-11-08T20:00:00	7	Dirección del viento	0
36699	7	Sololá	710	Panajachel	8	Panajachel	5	Mayo	2023-05-13T00:00:00	2024-11-08T20:00:00	1	Precipitación	0
36700	7	Sololá	710	Panajachel	8	Panajachel	5	Mayo	2023-05-13T00:00:00	2024-11-08T20:00:00	8	Radiación solar	0
36701	7	Sololá	710	Panajachel	8	Panajachel	5	Mayo	2023-05-13T00:00:00	2024-11-08T21:00:00	2	Temperatura media	17.9
36702	7	Sololá	710	Panajachel	8	Panajachel	5	Mayo	2023-05-13T00:00:00	2024-11-08T21:00:00	4	Temperatura máxima	17.9
36703	7	Sololá	710	Panajachel	8	Panajachel	5	Mayo	2023-05-13T00:00:00	2024-11-08T21:00:00	3	Temperatura mínima	17.7
36704	7	Sololá	710	Panajachel	8	Panajachel	5	Mayo	2023-05-13T00:00:00	2024-11-08T21:00:00	5	Humedad	95
36705	7	Sololá	710	Panajachel	8	Panajachel	5	Mayo	2023-05-13T00:00:00	2024-11-08T21:00:00	6	Velocidad del viento	0
36706	7	Sololá	710	Panajachel	8	Panajachel	5	Mayo	2023-05-13T00:00:00	2024-11-08T21:00:00	7	Dirección del viento	0
36707	7	Sololá	710	Panajachel	8	Panajachel	5	Mayo	2023-05-13T00:00:00	2024-11-08T21:00:00	1	Precipitación	0
36708	7	Sololá	710	Panajachel	8	Panajachel	5	Mayo	2023-05-13T00:00:00	2024-11-08T21:00:00	8	Radiación solar	0
36709	7	Sololá	710	Panajachel	8	Panajachel	5	Mayo	2023-05-13T00:00:00	2024-11-08T22:00:00	2	Temperatura media	18.2
36710	7	Sololá	710	Panajachel	8	Panajachel	5	Mayo	2023-05-13T00:00:00	2024-11-08T22:00:00	4	Temperatura máxima	18.5
36711	7	Sololá	710	Panajachel	8	Panajachel	5	Mayo	2023-05-13T00:00:00	2024-11-08T22:00:00	3	Temperatura mínima	17.9
36712	7	Sololá	710	Panajachel	8	Panajachel	5	Mayo	2023-05-13T00:00:00	2024-11-08T22:00:00	5	Humedad	94
36713	7	Sololá	710	Panajachel	8	Panajachel	5	Mayo	2023-05-13T00:00:00	2024-11-08T22:00:00	6	Velocidad del viento	0
36714	7	Sololá	710	Panajachel	8	Panajachel	5	Mayo	2023-05-13T00:00:00	2024-11-08T22:00:00	7	Dirección del viento	0
36715	7	Sololá	710	Panajachel	8	Panajachel	5	Mayo	2023-05-13T00:00:00	2024-11-08T22:00:00	1	Precipitación	0
36716	7	Sololá	710	Panajachel	8	Panajachel	5	Mayo	2023-05-13T00:00:00	2024-11-08T22:00:00	8	Radiación solar	0
36717	7	Sololá	710	Panajachel	8	Panajachel	5	Mayo	2023-05-13T00:00:00	2024-11-08T23:00:00	2	Temperatura media	18.1
36718	7	Sololá	710	Panajachel	8	Panajachel	5	Mayo	2023-05-13T00:00:00	2024-11-08T23:00:00	4	Temperatura máxima	18.3
36719	7	Sololá	710	Panajachel	8	Panajachel	5	Mayo	2023-05-13T00:00:00	2024-11-08T23:00:00	3	Temperatura mínima	17.9
36720	7	Sololá	710	Panajachel	8	Panajachel	5	Mayo	2023-05-13T00:00:00	2024-11-08T23:00:00	5	Humedad	93
36721	7	Sololá	710	Panajachel	8	Panajachel	5	Mayo	2023-05-13T00:00:00	2024-11-08T23:00:00	6	Velocidad del viento	0
36722	7	Sololá	710	Panajachel	8	Panajachel	5	Mayo	2023-05-13T00:00:00	2024-11-08T23:00:00	7	Dirección del viento	0
36723	7	Sololá	710	Panajachel	8	Panajachel	5	Mayo	2023-05-13T00:00:00	2024-11-08T23:00:00	1	Precipitación	0
36724	7	Sololá	710	Panajachel	8	Panajachel	5	Mayo	2023-05-13T00:00:00	2024-11-08T23:00:00	8	Radiación solar	0
36725	7	Sololá	710	Panajachel	8	Panajachel	5	Mayo	2023-05-14T00:00:00	2024-11-08T00:00:00	2	Temperatura media	17.6
36726	7	Sololá	710	Panajachel	8	Panajachel	5	Mayo	2023-05-14T00:00:00	2024-11-08T00:00:00	4	Temperatura máxima	18.2
36727	7	Sololá	710	Panajachel	8	Panajachel	5	Mayo	2023-05-14T00:00:00	2024-11-08T00:00:00	3	Temperatura mínima	17.5
36728	7	Sololá	710	Panajachel	8	Panajachel	5	Mayo	2023-05-14T00:00:00	2024-11-08T00:00:00	5	Humedad	91
36729	7	Sololá	710	Panajachel	8	Panajachel	5	Mayo	2023-05-14T00:00:00	2024-11-08T00:00:00	6	Velocidad del viento	0
36730	7	Sololá	710	Panajachel	8	Panajachel	5	Mayo	2023-05-14T00:00:00	2024-11-08T00:00:00	7	Dirección del viento	0
36731	7	Sololá	710	Panajachel	8	Panajachel	5	Mayo	2023-05-14T00:00:00	2024-11-08T00:00:00	1	Precipitación	0
36732	7	Sololá	710	Panajachel	8	Panajachel	5	Mayo	2023-05-14T00:00:00	2024-11-08T00:00:00	8	Radiación solar	0
36733	7	Sololá	710	Panajachel	8	Panajachel	5	Mayo	2023-05-14T00:00:00	2024-11-08T01:00:00	2	Temperatura media	17.4
36734	7	Sololá	710	Panajachel	8	Panajachel	5	Mayo	2023-05-14T00:00:00	2024-11-08T01:00:00	4	Temperatura máxima	17.6
36735	7	Sololá	710	Panajachel	8	Panajachel	5	Mayo	2023-05-14T00:00:00	2024-11-08T01:00:00	3	Temperatura mínima	17.2
36736	7	Sololá	710	Panajachel	8	Panajachel	5	Mayo	2023-05-14T00:00:00	2024-11-08T01:00:00	5	Humedad	90
36737	7	Sololá	710	Panajachel	8	Panajachel	5	Mayo	2023-05-14T00:00:00	2024-11-08T01:00:00	6	Velocidad del viento	0
36738	7	Sololá	710	Panajachel	8	Panajachel	5	Mayo	2023-05-14T00:00:00	2024-11-08T01:00:00	7	Dirección del viento	0
36739	7	Sololá	710	Panajachel	8	Panajachel	5	Mayo	2023-05-14T00:00:00	2024-11-08T01:00:00	1	Precipitación	0
36740	7	Sololá	710	Panajachel	8	Panajachel	5	Mayo	2023-05-14T00:00:00	2024-11-08T01:00:00	8	Radiación solar	0
36741	7	Sololá	710	Panajachel	8	Panajachel	5	Mayo	2023-05-14T00:00:00	2024-11-08T02:00:00	2	Temperatura media	17.7
36742	7	Sololá	710	Panajachel	8	Panajachel	5	Mayo	2023-05-14T00:00:00	2024-11-08T02:00:00	4	Temperatura máxima	17.8
36743	7	Sololá	710	Panajachel	8	Panajachel	5	Mayo	2023-05-14T00:00:00	2024-11-08T02:00:00	3	Temperatura mínima	17.3
36744	7	Sololá	710	Panajachel	8	Panajachel	5	Mayo	2023-05-14T00:00:00	2024-11-08T02:00:00	5	Humedad	87
36745	7	Sololá	710	Panajachel	8	Panajachel	5	Mayo	2023-05-14T00:00:00	2024-11-08T02:00:00	6	Velocidad del viento	1.6
36746	7	Sololá	710	Panajachel	8	Panajachel	5	Mayo	2023-05-14T00:00:00	2024-11-08T02:00:00	7	Dirección del viento	1.61
36747	7	Sololá	710	Panajachel	8	Panajachel	5	Mayo	2023-05-14T00:00:00	2024-11-08T02:00:00	1	Precipitación	0
36748	7	Sololá	710	Panajachel	8	Panajachel	5	Mayo	2023-05-14T00:00:00	2024-11-08T02:00:00	8	Radiación solar	0
36749	7	Sololá	710	Panajachel	8	Panajachel	5	Mayo	2023-05-14T00:00:00	2024-11-08T03:00:00	2	Temperatura media	17.8
36750	7	Sololá	710	Panajachel	8	Panajachel	5	Mayo	2023-05-14T00:00:00	2024-11-08T03:00:00	4	Temperatura máxima	17.8
36751	7	Sololá	710	Panajachel	8	Panajachel	5	Mayo	2023-05-14T00:00:00	2024-11-08T03:00:00	3	Temperatura mínima	17.5
36752	7	Sololá	710	Panajachel	8	Panajachel	5	Mayo	2023-05-14T00:00:00	2024-11-08T03:00:00	5	Humedad	85
36753	7	Sololá	710	Panajachel	8	Panajachel	5	Mayo	2023-05-14T00:00:00	2024-11-08T03:00:00	6	Velocidad del viento	1.6
36754	7	Sololá	710	Panajachel	8	Panajachel	5	Mayo	2023-05-14T00:00:00	2024-11-08T03:00:00	7	Dirección del viento	1.61
36755	7	Sololá	710	Panajachel	8	Panajachel	5	Mayo	2023-05-14T00:00:00	2024-11-08T03:00:00	1	Precipitación	0
36756	7	Sololá	710	Panajachel	8	Panajachel	5	Mayo	2023-05-14T00:00:00	2024-11-08T03:00:00	8	Radiación solar	0
36757	7	Sololá	710	Panajachel	8	Panajachel	5	Mayo	2023-05-14T00:00:00	2024-11-08T04:00:00	2	Temperatura media	17.3
36758	7	Sololá	710	Panajachel	8	Panajachel	5	Mayo	2023-05-14T00:00:00	2024-11-08T04:00:00	4	Temperatura máxima	18.6
36759	7	Sololá	710	Panajachel	8	Panajachel	5	Mayo	2023-05-14T00:00:00	2024-11-08T04:00:00	3	Temperatura mínima	17.3
36760	7	Sololá	710	Panajachel	8	Panajachel	5	Mayo	2023-05-14T00:00:00	2024-11-08T04:00:00	5	Humedad	88
36761	7	Sololá	710	Panajachel	8	Panajachel	5	Mayo	2023-05-14T00:00:00	2024-11-08T04:00:00	6	Velocidad del viento	3.2
36762	7	Sololá	710	Panajachel	8	Panajachel	5	Mayo	2023-05-14T00:00:00	2024-11-08T04:00:00	7	Dirección del viento	3.22
36763	7	Sololá	710	Panajachel	8	Panajachel	5	Mayo	2023-05-14T00:00:00	2024-11-08T04:00:00	1	Precipitación	0.4
36764	7	Sololá	710	Panajachel	8	Panajachel	5	Mayo	2023-05-14T00:00:00	2024-11-08T04:00:00	8	Radiación solar	0
36765	7	Sololá	710	Panajachel	8	Panajachel	5	Mayo	2023-05-14T00:00:00	2024-11-08T05:00:00	2	Temperatura media	18.7
36766	7	Sololá	710	Panajachel	8	Panajachel	5	Mayo	2023-05-14T00:00:00	2024-11-08T05:00:00	4	Temperatura máxima	18.8
36767	7	Sololá	710	Panajachel	8	Panajachel	5	Mayo	2023-05-14T00:00:00	2024-11-08T05:00:00	3	Temperatura mínima	16.8
36768	7	Sololá	710	Panajachel	8	Panajachel	5	Mayo	2023-05-14T00:00:00	2024-11-08T05:00:00	5	Humedad	72
36769	7	Sololá	710	Panajachel	8	Panajachel	5	Mayo	2023-05-14T00:00:00	2024-11-08T05:00:00	6	Velocidad del viento	4.8
36770	7	Sololá	710	Panajachel	8	Panajachel	5	Mayo	2023-05-14T00:00:00	2024-11-08T05:00:00	7	Dirección del viento	4.83
36771	7	Sololá	710	Panajachel	8	Panajachel	5	Mayo	2023-05-14T00:00:00	2024-11-08T05:00:00	1	Precipitación	0
36772	7	Sololá	710	Panajachel	8	Panajachel	5	Mayo	2023-05-14T00:00:00	2024-11-08T05:00:00	8	Radiación solar	0
36773	7	Sololá	710	Panajachel	8	Panajachel	5	Mayo	2023-05-14T00:00:00	2024-11-08T06:00:00	2	Temperatura media	17.7
36774	7	Sololá	710	Panajachel	8	Panajachel	5	Mayo	2023-05-14T00:00:00	2024-11-08T06:00:00	4	Temperatura máxima	18.8
36775	7	Sololá	710	Panajachel	8	Panajachel	5	Mayo	2023-05-14T00:00:00	2024-11-08T06:00:00	3	Temperatura mínima	17.7
36776	7	Sololá	710	Panajachel	8	Panajachel	5	Mayo	2023-05-14T00:00:00	2024-11-08T06:00:00	5	Humedad	80
36777	7	Sololá	710	Panajachel	8	Panajachel	5	Mayo	2023-05-14T00:00:00	2024-11-08T06:00:00	6	Velocidad del viento	3.2
36778	7	Sololá	710	Panajachel	8	Panajachel	5	Mayo	2023-05-14T00:00:00	2024-11-08T06:00:00	7	Dirección del viento	3.22
36779	7	Sololá	710	Panajachel	8	Panajachel	5	Mayo	2023-05-14T00:00:00	2024-11-08T06:00:00	1	Precipitación	0
36780	7	Sololá	710	Panajachel	8	Panajachel	5	Mayo	2023-05-14T00:00:00	2024-11-08T06:00:00	8	Radiación solar	0
36781	7	Sololá	710	Panajachel	8	Panajachel	5	Mayo	2023-05-14T00:00:00	2024-11-08T07:00:00	2	Temperatura media	17
36782	7	Sololá	710	Panajachel	8	Panajachel	5	Mayo	2023-05-14T00:00:00	2024-11-08T07:00:00	4	Temperatura máxima	17.7
36783	7	Sololá	710	Panajachel	8	Panajachel	5	Mayo	2023-05-14T00:00:00	2024-11-08T07:00:00	3	Temperatura mínima	17
36784	7	Sololá	710	Panajachel	8	Panajachel	5	Mayo	2023-05-14T00:00:00	2024-11-08T07:00:00	5	Humedad	85
36785	7	Sololá	710	Panajachel	8	Panajachel	5	Mayo	2023-05-14T00:00:00	2024-11-08T07:00:00	6	Velocidad del viento	0
36786	7	Sololá	710	Panajachel	8	Panajachel	5	Mayo	2023-05-14T00:00:00	2024-11-08T07:00:00	7	Dirección del viento	0
36787	7	Sololá	710	Panajachel	8	Panajachel	5	Mayo	2023-05-14T00:00:00	2024-11-08T07:00:00	1	Precipitación	0
36788	7	Sololá	710	Panajachel	8	Panajachel	5	Mayo	2023-05-14T00:00:00	2024-11-08T07:00:00	8	Radiación solar	17
36789	7	Sololá	710	Panajachel	8	Panajachel	5	Mayo	2023-05-14T00:00:00	2024-11-08T08:00:00	2	Temperatura media	18.8
36790	7	Sololá	710	Panajachel	8	Panajachel	5	Mayo	2023-05-14T00:00:00	2024-11-08T08:00:00	4	Temperatura máxima	18.8
36791	7	Sololá	710	Panajachel	8	Panajachel	5	Mayo	2023-05-14T00:00:00	2024-11-08T08:00:00	3	Temperatura mínima	17
36792	7	Sololá	710	Panajachel	8	Panajachel	5	Mayo	2023-05-14T00:00:00	2024-11-08T08:00:00	5	Humedad	78
36793	7	Sololá	710	Panajachel	8	Panajachel	5	Mayo	2023-05-14T00:00:00	2024-11-08T08:00:00	6	Velocidad del viento	1.6
36794	7	Sololá	710	Panajachel	8	Panajachel	5	Mayo	2023-05-14T00:00:00	2024-11-08T08:00:00	7	Dirección del viento	1.61
36795	7	Sololá	710	Panajachel	8	Panajachel	5	Mayo	2023-05-14T00:00:00	2024-11-08T08:00:00	1	Precipitación	0
36796	7	Sololá	710	Panajachel	8	Panajachel	5	Mayo	2023-05-14T00:00:00	2024-11-08T08:00:00	8	Radiación solar	120
36797	7	Sololá	710	Panajachel	8	Panajachel	5	Mayo	2023-05-14T00:00:00	2024-11-08T09:00:00	2	Temperatura media	20.6
36798	7	Sololá	710	Panajachel	8	Panajachel	5	Mayo	2023-05-14T00:00:00	2024-11-08T09:00:00	4	Temperatura máxima	21.4
36799	7	Sololá	710	Panajachel	8	Panajachel	5	Mayo	2023-05-14T00:00:00	2024-11-08T09:00:00	3	Temperatura mínima	18.8
36800	7	Sololá	710	Panajachel	8	Panajachel	5	Mayo	2023-05-14T00:00:00	2024-11-08T09:00:00	5	Humedad	77
36801	7	Sololá	710	Panajachel	8	Panajachel	5	Mayo	2023-05-14T00:00:00	2024-11-08T09:00:00	6	Velocidad del viento	4.8
36802	7	Sololá	710	Panajachel	8	Panajachel	5	Mayo	2023-05-14T00:00:00	2024-11-08T09:00:00	7	Dirección del viento	4.83
36803	7	Sololá	710	Panajachel	8	Panajachel	5	Mayo	2023-05-14T00:00:00	2024-11-08T09:00:00	1	Precipitación	0
36804	7	Sololá	710	Panajachel	8	Panajachel	5	Mayo	2023-05-14T00:00:00	2024-11-08T09:00:00	8	Radiación solar	455
36805	7	Sololá	710	Panajachel	8	Panajachel	5	Mayo	2023-05-14T00:00:00	2024-11-08T10:00:00	2	Temperatura media	21.2
36806	7	Sololá	710	Panajachel	8	Panajachel	5	Mayo	2023-05-14T00:00:00	2024-11-08T10:00:00	4	Temperatura máxima	21.3
36807	7	Sololá	710	Panajachel	8	Panajachel	5	Mayo	2023-05-14T00:00:00	2024-11-08T10:00:00	3	Temperatura mínima	20.6
36808	7	Sololá	710	Panajachel	8	Panajachel	5	Mayo	2023-05-14T00:00:00	2024-11-08T10:00:00	5	Humedad	73
36809	7	Sololá	710	Panajachel	8	Panajachel	5	Mayo	2023-05-14T00:00:00	2024-11-08T10:00:00	6	Velocidad del viento	3.2
36810	7	Sololá	710	Panajachel	8	Panajachel	5	Mayo	2023-05-14T00:00:00	2024-11-08T10:00:00	7	Dirección del viento	3.22
36811	7	Sololá	710	Panajachel	8	Panajachel	5	Mayo	2023-05-14T00:00:00	2024-11-08T10:00:00	1	Precipitación	0
36812	7	Sololá	710	Panajachel	8	Panajachel	5	Mayo	2023-05-14T00:00:00	2024-11-08T10:00:00	8	Radiación solar	407
36813	7	Sololá	710	Panajachel	8	Panajachel	5	Mayo	2023-05-14T00:00:00	2024-11-08T11:00:00	2	Temperatura media	22.6
36814	7	Sololá	710	Panajachel	8	Panajachel	5	Mayo	2023-05-14T00:00:00	2024-11-08T11:00:00	4	Temperatura máxima	22.6
36815	7	Sololá	710	Panajachel	8	Panajachel	5	Mayo	2023-05-14T00:00:00	2024-11-08T11:00:00	3	Temperatura mínima	21.2
36816	7	Sololá	710	Panajachel	8	Panajachel	5	Mayo	2023-05-14T00:00:00	2024-11-08T11:00:00	5	Humedad	65
36817	7	Sololá	710	Panajachel	8	Panajachel	5	Mayo	2023-05-14T00:00:00	2024-11-08T11:00:00	6	Velocidad del viento	0
36818	7	Sololá	710	Panajachel	8	Panajachel	5	Mayo	2023-05-14T00:00:00	2024-11-08T11:00:00	7	Dirección del viento	0
36819	7	Sololá	710	Panajachel	8	Panajachel	5	Mayo	2023-05-14T00:00:00	2024-11-08T11:00:00	1	Precipitación	0
36820	7	Sololá	710	Panajachel	8	Panajachel	5	Mayo	2023-05-14T00:00:00	2024-11-08T11:00:00	8	Radiación solar	543
36821	7	Sololá	710	Panajachel	8	Panajachel	5	Mayo	2023-05-14T00:00:00	2024-11-08T12:00:00	2	Temperatura media	24.2
36822	7	Sololá	710	Panajachel	8	Panajachel	5	Mayo	2023-05-14T00:00:00	2024-11-08T12:00:00	4	Temperatura máxima	24.2
36823	7	Sololá	710	Panajachel	8	Panajachel	5	Mayo	2023-05-14T00:00:00	2024-11-08T12:00:00	3	Temperatura mínima	22.6
36824	7	Sololá	710	Panajachel	8	Panajachel	5	Mayo	2023-05-14T00:00:00	2024-11-08T12:00:00	5	Humedad	61
36825	7	Sololá	710	Panajachel	8	Panajachel	5	Mayo	2023-05-14T00:00:00	2024-11-08T12:00:00	6	Velocidad del viento	0
36826	7	Sololá	710	Panajachel	8	Panajachel	5	Mayo	2023-05-14T00:00:00	2024-11-08T12:00:00	7	Dirección del viento	0
36827	7	Sololá	710	Panajachel	8	Panajachel	5	Mayo	2023-05-14T00:00:00	2024-11-08T12:00:00	1	Precipitación	0
36828	7	Sololá	710	Panajachel	8	Panajachel	5	Mayo	2023-05-14T00:00:00	2024-11-08T12:00:00	8	Radiación solar	779
36829	7	Sololá	710	Panajachel	8	Panajachel	5	Mayo	2023-05-14T00:00:00	2024-11-08T13:00:00	2	Temperatura media	23.6
36830	7	Sololá	710	Panajachel	8	Panajachel	5	Mayo	2023-05-14T00:00:00	2024-11-08T13:00:00	4	Temperatura máxima	24.3
36831	7	Sololá	710	Panajachel	8	Panajachel	5	Mayo	2023-05-14T00:00:00	2024-11-08T13:00:00	3	Temperatura mínima	23.4
36832	7	Sololá	710	Panajachel	8	Panajachel	5	Mayo	2023-05-14T00:00:00	2024-11-08T13:00:00	5	Humedad	63
36833	7	Sololá	710	Panajachel	8	Panajachel	5	Mayo	2023-05-14T00:00:00	2024-11-08T13:00:00	6	Velocidad del viento	1.6
36834	7	Sololá	710	Panajachel	8	Panajachel	5	Mayo	2023-05-14T00:00:00	2024-11-08T13:00:00	7	Dirección del viento	1.61
36835	7	Sololá	710	Panajachel	8	Panajachel	5	Mayo	2023-05-14T00:00:00	2024-11-08T13:00:00	1	Precipitación	0
36836	7	Sololá	710	Panajachel	8	Panajachel	5	Mayo	2023-05-14T00:00:00	2024-11-08T13:00:00	8	Radiación solar	884
36837	7	Sololá	710	Panajachel	8	Panajachel	5	Mayo	2023-05-14T00:00:00	2024-11-08T14:00:00	2	Temperatura media	23.4
36838	7	Sololá	710	Panajachel	8	Panajachel	5	Mayo	2023-05-14T00:00:00	2024-11-08T14:00:00	4	Temperatura máxima	24.6
36839	7	Sololá	710	Panajachel	8	Panajachel	5	Mayo	2023-05-14T00:00:00	2024-11-08T14:00:00	3	Temperatura mínima	23.4
36840	7	Sololá	710	Panajachel	8	Panajachel	5	Mayo	2023-05-14T00:00:00	2024-11-08T14:00:00	5	Humedad	66
36841	7	Sololá	710	Panajachel	8	Panajachel	5	Mayo	2023-05-14T00:00:00	2024-11-08T14:00:00	6	Velocidad del viento	0
36842	7	Sololá	710	Panajachel	8	Panajachel	5	Mayo	2023-05-14T00:00:00	2024-11-08T14:00:00	7	Dirección del viento	0
36843	7	Sololá	710	Panajachel	8	Panajachel	5	Mayo	2023-05-14T00:00:00	2024-11-08T14:00:00	1	Precipitación	0
36844	7	Sololá	710	Panajachel	8	Panajachel	5	Mayo	2023-05-14T00:00:00	2024-11-08T14:00:00	8	Radiación solar	679
36845	7	Sololá	710	Panajachel	8	Panajachel	5	Mayo	2023-05-14T00:00:00	2024-11-08T15:00:00	2	Temperatura media	23.5
36846	7	Sololá	710	Panajachel	8	Panajachel	5	Mayo	2023-05-14T00:00:00	2024-11-08T15:00:00	4	Temperatura máxima	24.1
36847	7	Sololá	710	Panajachel	8	Panajachel	5	Mayo	2023-05-14T00:00:00	2024-11-08T15:00:00	3	Temperatura mínima	23.3
36848	7	Sololá	710	Panajachel	8	Panajachel	5	Mayo	2023-05-14T00:00:00	2024-11-08T15:00:00	5	Humedad	67
36849	7	Sololá	710	Panajachel	8	Panajachel	5	Mayo	2023-05-14T00:00:00	2024-11-08T15:00:00	6	Velocidad del viento	1.6
36850	7	Sololá	710	Panajachel	8	Panajachel	5	Mayo	2023-05-14T00:00:00	2024-11-08T15:00:00	7	Dirección del viento	1.61
36851	7	Sololá	710	Panajachel	8	Panajachel	5	Mayo	2023-05-14T00:00:00	2024-11-08T15:00:00	1	Precipitación	0
36852	7	Sololá	710	Panajachel	8	Panajachel	5	Mayo	2023-05-14T00:00:00	2024-11-08T15:00:00	8	Radiación solar	676
36853	7	Sololá	710	Panajachel	8	Panajachel	5	Mayo	2023-05-14T00:00:00	2024-11-08T16:00:00	2	Temperatura media	23.2
36854	7	Sololá	710	Panajachel	8	Panajachel	5	Mayo	2023-05-14T00:00:00	2024-11-08T16:00:00	4	Temperatura máxima	23.9
36855	7	Sololá	710	Panajachel	8	Panajachel	5	Mayo	2023-05-14T00:00:00	2024-11-08T16:00:00	3	Temperatura mínima	23.2
36856	7	Sololá	710	Panajachel	8	Panajachel	5	Mayo	2023-05-14T00:00:00	2024-11-08T16:00:00	5	Humedad	72
36857	7	Sololá	710	Panajachel	8	Panajachel	5	Mayo	2023-05-14T00:00:00	2024-11-08T16:00:00	6	Velocidad del viento	0
36858	7	Sololá	710	Panajachel	8	Panajachel	5	Mayo	2023-05-14T00:00:00	2024-11-08T16:00:00	7	Dirección del viento	0
36859	7	Sololá	710	Panajachel	8	Panajachel	5	Mayo	2023-05-14T00:00:00	2024-11-08T16:00:00	1	Precipitación	0
36860	7	Sololá	710	Panajachel	8	Panajachel	5	Mayo	2023-05-14T00:00:00	2024-11-08T16:00:00	8	Radiación solar	283
36861	7	Sololá	710	Panajachel	8	Panajachel	5	Mayo	2023-05-14T00:00:00	2024-11-08T17:00:00	2	Temperatura media	23.1
36862	7	Sololá	710	Panajachel	8	Panajachel	5	Mayo	2023-05-14T00:00:00	2024-11-08T17:00:00	4	Temperatura máxima	24.1
36863	7	Sololá	710	Panajachel	8	Panajachel	5	Mayo	2023-05-14T00:00:00	2024-11-08T17:00:00	3	Temperatura mínima	23.1
36864	7	Sololá	710	Panajachel	8	Panajachel	5	Mayo	2023-05-14T00:00:00	2024-11-08T17:00:00	5	Humedad	74
36865	7	Sololá	710	Panajachel	8	Panajachel	5	Mayo	2023-05-14T00:00:00	2024-11-08T17:00:00	6	Velocidad del viento	0
36866	7	Sololá	710	Panajachel	8	Panajachel	5	Mayo	2023-05-14T00:00:00	2024-11-08T17:00:00	7	Dirección del viento	0
36867	7	Sololá	710	Panajachel	8	Panajachel	5	Mayo	2023-05-14T00:00:00	2024-11-08T17:00:00	1	Precipitación	0
36868	7	Sololá	710	Panajachel	8	Panajachel	5	Mayo	2023-05-14T00:00:00	2024-11-08T17:00:00	8	Radiación solar	111
36869	7	Sololá	710	Panajachel	8	Panajachel	5	Mayo	2023-05-14T00:00:00	2024-11-08T18:00:00	2	Temperatura media	21.8
36870	7	Sololá	710	Panajachel	8	Panajachel	5	Mayo	2023-05-14T00:00:00	2024-11-08T18:00:00	4	Temperatura máxima	23.3
36871	7	Sololá	710	Panajachel	8	Panajachel	5	Mayo	2023-05-14T00:00:00	2024-11-08T18:00:00	3	Temperatura mínima	21.8
36872	7	Sololá	710	Panajachel	8	Panajachel	5	Mayo	2023-05-14T00:00:00	2024-11-08T18:00:00	5	Humedad	87
36873	7	Sololá	710	Panajachel	8	Panajachel	5	Mayo	2023-05-14T00:00:00	2024-11-08T18:00:00	6	Velocidad del viento	0
36874	7	Sololá	710	Panajachel	8	Panajachel	5	Mayo	2023-05-14T00:00:00	2024-11-08T18:00:00	7	Dirección del viento	0
36875	7	Sololá	710	Panajachel	8	Panajachel	5	Mayo	2023-05-14T00:00:00	2024-11-08T18:00:00	1	Precipitación	0
36876	7	Sololá	710	Panajachel	8	Panajachel	5	Mayo	2023-05-14T00:00:00	2024-11-08T18:00:00	8	Radiación solar	36
36877	7	Sololá	710	Panajachel	8	Panajachel	5	Mayo	2023-05-14T00:00:00	2024-11-08T19:00:00	2	Temperatura media	21.2
36878	7	Sololá	710	Panajachel	8	Panajachel	5	Mayo	2023-05-14T00:00:00	2024-11-08T19:00:00	4	Temperatura máxima	21.8
36879	7	Sololá	710	Panajachel	8	Panajachel	5	Mayo	2023-05-14T00:00:00	2024-11-08T19:00:00	3	Temperatura mínima	21.2
36880	7	Sololá	710	Panajachel	8	Panajachel	5	Mayo	2023-05-14T00:00:00	2024-11-08T19:00:00	5	Humedad	89
36881	7	Sololá	710	Panajachel	8	Panajachel	5	Mayo	2023-05-14T00:00:00	2024-11-08T19:00:00	6	Velocidad del viento	0
36882	7	Sololá	710	Panajachel	8	Panajachel	5	Mayo	2023-05-14T00:00:00	2024-11-08T19:00:00	7	Dirección del viento	0
36883	7	Sololá	710	Panajachel	8	Panajachel	5	Mayo	2023-05-14T00:00:00	2024-11-08T19:00:00	1	Precipitación	0
36884	7	Sololá	710	Panajachel	8	Panajachel	5	Mayo	2023-05-14T00:00:00	2024-11-08T19:00:00	8	Radiación solar	0
36885	7	Sololá	710	Panajachel	8	Panajachel	5	Mayo	2023-05-14T00:00:00	2024-11-08T20:00:00	2	Temperatura media	20.8
36886	7	Sololá	710	Panajachel	8	Panajachel	5	Mayo	2023-05-14T00:00:00	2024-11-08T20:00:00	4	Temperatura máxima	21.2
36887	7	Sololá	710	Panajachel	8	Panajachel	5	Mayo	2023-05-14T00:00:00	2024-11-08T20:00:00	3	Temperatura mínima	20.8
36888	7	Sololá	710	Panajachel	8	Panajachel	5	Mayo	2023-05-14T00:00:00	2024-11-08T20:00:00	5	Humedad	89
36889	7	Sololá	710	Panajachel	8	Panajachel	5	Mayo	2023-05-14T00:00:00	2024-11-08T20:00:00	6	Velocidad del viento	0
36890	7	Sololá	710	Panajachel	8	Panajachel	5	Mayo	2023-05-14T00:00:00	2024-11-08T20:00:00	7	Dirección del viento	0
36891	7	Sololá	710	Panajachel	8	Panajachel	5	Mayo	2023-05-14T00:00:00	2024-11-08T20:00:00	1	Precipitación	0
36892	7	Sololá	710	Panajachel	8	Panajachel	5	Mayo	2023-05-14T00:00:00	2024-11-08T20:00:00	8	Radiación solar	0
36893	7	Sololá	710	Panajachel	8	Panajachel	5	Mayo	2023-05-14T00:00:00	2024-11-08T21:00:00	2	Temperatura media	20.3
36894	7	Sololá	710	Panajachel	8	Panajachel	5	Mayo	2023-05-14T00:00:00	2024-11-08T21:00:00	4	Temperatura máxima	20.8
36895	7	Sololá	710	Panajachel	8	Panajachel	5	Mayo	2023-05-14T00:00:00	2024-11-08T21:00:00	3	Temperatura mínima	20.2
36896	7	Sololá	710	Panajachel	8	Panajachel	5	Mayo	2023-05-14T00:00:00	2024-11-08T21:00:00	5	Humedad	88
36897	7	Sololá	710	Panajachel	8	Panajachel	5	Mayo	2023-05-14T00:00:00	2024-11-08T21:00:00	6	Velocidad del viento	0
36898	7	Sololá	710	Panajachel	8	Panajachel	5	Mayo	2023-05-14T00:00:00	2024-11-08T21:00:00	7	Dirección del viento	0
36899	7	Sololá	710	Panajachel	8	Panajachel	5	Mayo	2023-05-14T00:00:00	2024-11-08T21:00:00	1	Precipitación	0
36900	7	Sololá	710	Panajachel	8	Panajachel	5	Mayo	2023-05-14T00:00:00	2024-11-08T21:00:00	8	Radiación solar	0
36901	7	Sololá	710	Panajachel	8	Panajachel	5	Mayo	2023-05-14T00:00:00	2024-11-08T22:00:00	2	Temperatura media	19.4
36902	7	Sololá	710	Panajachel	8	Panajachel	5	Mayo	2023-05-14T00:00:00	2024-11-08T22:00:00	4	Temperatura máxima	20.3
36903	7	Sololá	710	Panajachel	8	Panajachel	5	Mayo	2023-05-14T00:00:00	2024-11-08T22:00:00	3	Temperatura mínima	19.4
36904	7	Sololá	710	Panajachel	8	Panajachel	5	Mayo	2023-05-14T00:00:00	2024-11-08T22:00:00	5	Humedad	86
36905	7	Sololá	710	Panajachel	8	Panajachel	5	Mayo	2023-05-14T00:00:00	2024-11-08T22:00:00	6	Velocidad del viento	0
36906	7	Sololá	710	Panajachel	8	Panajachel	5	Mayo	2023-05-14T00:00:00	2024-11-08T22:00:00	7	Dirección del viento	0
36907	7	Sololá	710	Panajachel	8	Panajachel	5	Mayo	2023-05-14T00:00:00	2024-11-08T22:00:00	1	Precipitación	0
36908	7	Sololá	710	Panajachel	8	Panajachel	5	Mayo	2023-05-14T00:00:00	2024-11-08T22:00:00	8	Radiación solar	0
36909	7	Sololá	710	Panajachel	8	Panajachel	5	Mayo	2023-05-14T00:00:00	2024-11-08T23:00:00	2	Temperatura media	19.2
36910	7	Sololá	710	Panajachel	8	Panajachel	5	Mayo	2023-05-14T00:00:00	2024-11-08T23:00:00	4	Temperatura máxima	19.4
36911	7	Sololá	710	Panajachel	8	Panajachel	5	Mayo	2023-05-14T00:00:00	2024-11-08T23:00:00	3	Temperatura mínima	18.9
36912	7	Sololá	710	Panajachel	8	Panajachel	5	Mayo	2023-05-14T00:00:00	2024-11-08T23:00:00	5	Humedad	80
36913	7	Sololá	710	Panajachel	8	Panajachel	5	Mayo	2023-05-14T00:00:00	2024-11-08T23:00:00	6	Velocidad del viento	0
36914	7	Sololá	710	Panajachel	8	Panajachel	5	Mayo	2023-05-14T00:00:00	2024-11-08T23:00:00	7	Dirección del viento	0
36915	7	Sololá	710	Panajachel	8	Panajachel	5	Mayo	2023-05-14T00:00:00	2024-11-08T23:00:00	1	Precipitación	0
36916	7	Sololá	710	Panajachel	8	Panajachel	5	Mayo	2023-05-14T00:00:00	2024-11-08T23:00:00	8	Radiación solar	0
36917	7	Sololá	710	Panajachel	8	Panajachel	5	Mayo	2023-05-15T00:00:00	2024-11-08T00:00:00	2	Temperatura media	19
36918	7	Sololá	710	Panajachel	8	Panajachel	5	Mayo	2023-05-15T00:00:00	2024-11-08T00:00:00	4	Temperatura máxima	19.4
36919	7	Sololá	710	Panajachel	8	Panajachel	5	Mayo	2023-05-15T00:00:00	2024-11-08T00:00:00	3	Temperatura mínima	18.9
36920	7	Sololá	710	Panajachel	8	Panajachel	5	Mayo	2023-05-15T00:00:00	2024-11-08T00:00:00	5	Humedad	81
36921	7	Sololá	710	Panajachel	8	Panajachel	5	Mayo	2023-05-15T00:00:00	2024-11-08T00:00:00	6	Velocidad del viento	0
36922	7	Sololá	710	Panajachel	8	Panajachel	5	Mayo	2023-05-15T00:00:00	2024-11-08T00:00:00	7	Dirección del viento	0
36923	7	Sololá	710	Panajachel	8	Panajachel	5	Mayo	2023-05-15T00:00:00	2024-11-08T00:00:00	1	Precipitación	0
36924	7	Sololá	710	Panajachel	8	Panajachel	5	Mayo	2023-05-15T00:00:00	2024-11-08T00:00:00	8	Radiación solar	0
36925	7	Sololá	710	Panajachel	8	Panajachel	5	Mayo	2023-05-15T00:00:00	2024-11-08T01:00:00	2	Temperatura media	19.3
36926	7	Sololá	710	Panajachel	8	Panajachel	5	Mayo	2023-05-15T00:00:00	2024-11-08T01:00:00	4	Temperatura máxima	19.4
36927	7	Sololá	710	Panajachel	8	Panajachel	5	Mayo	2023-05-15T00:00:00	2024-11-08T01:00:00	3	Temperatura mínima	18.8
36928	7	Sololá	710	Panajachel	8	Panajachel	5	Mayo	2023-05-15T00:00:00	2024-11-08T01:00:00	5	Humedad	78
36929	7	Sololá	710	Panajachel	8	Panajachel	5	Mayo	2023-05-15T00:00:00	2024-11-08T01:00:00	6	Velocidad del viento	0
36930	7	Sololá	710	Panajachel	8	Panajachel	5	Mayo	2023-05-15T00:00:00	2024-11-08T01:00:00	7	Dirección del viento	0
36931	7	Sololá	710	Panajachel	8	Panajachel	5	Mayo	2023-05-15T00:00:00	2024-11-08T01:00:00	1	Precipitación	0
36932	7	Sololá	710	Panajachel	8	Panajachel	5	Mayo	2023-05-15T00:00:00	2024-11-08T01:00:00	8	Radiación solar	0
36933	7	Sololá	710	Panajachel	8	Panajachel	5	Mayo	2023-05-15T00:00:00	2024-11-08T02:00:00	2	Temperatura media	18.3
36934	7	Sololá	710	Panajachel	8	Panajachel	5	Mayo	2023-05-15T00:00:00	2024-11-08T02:00:00	4	Temperatura máxima	19.7
36935	7	Sololá	710	Panajachel	8	Panajachel	5	Mayo	2023-05-15T00:00:00	2024-11-08T02:00:00	3	Temperatura mínima	18.3
36936	7	Sololá	710	Panajachel	8	Panajachel	5	Mayo	2023-05-15T00:00:00	2024-11-08T02:00:00	5	Humedad	82
36937	7	Sololá	710	Panajachel	8	Panajachel	5	Mayo	2023-05-15T00:00:00	2024-11-08T02:00:00	6	Velocidad del viento	0
36938	7	Sololá	710	Panajachel	8	Panajachel	5	Mayo	2023-05-15T00:00:00	2024-11-08T02:00:00	7	Dirección del viento	0
36939	7	Sololá	710	Panajachel	8	Panajachel	5	Mayo	2023-05-15T00:00:00	2024-11-08T02:00:00	1	Precipitación	0
36940	7	Sololá	710	Panajachel	8	Panajachel	5	Mayo	2023-05-15T00:00:00	2024-11-08T02:00:00	8	Radiación solar	0
36941	7	Sololá	710	Panajachel	8	Panajachel	5	Mayo	2023-05-15T00:00:00	2024-11-08T03:00:00	2	Temperatura media	18.1
36942	7	Sololá	710	Panajachel	8	Panajachel	5	Mayo	2023-05-15T00:00:00	2024-11-08T03:00:00	4	Temperatura máxima	18.4
36943	7	Sololá	710	Panajachel	8	Panajachel	5	Mayo	2023-05-15T00:00:00	2024-11-08T03:00:00	3	Temperatura mínima	18
36944	7	Sololá	710	Panajachel	8	Panajachel	5	Mayo	2023-05-15T00:00:00	2024-11-08T03:00:00	5	Humedad	82
36945	7	Sololá	710	Panajachel	8	Panajachel	5	Mayo	2023-05-15T00:00:00	2024-11-08T03:00:00	6	Velocidad del viento	0
36946	7	Sololá	710	Panajachel	8	Panajachel	5	Mayo	2023-05-15T00:00:00	2024-11-08T03:00:00	7	Dirección del viento	0
36947	7	Sololá	710	Panajachel	8	Panajachel	5	Mayo	2023-05-15T00:00:00	2024-11-08T03:00:00	1	Precipitación	0
36948	7	Sololá	710	Panajachel	8	Panajachel	5	Mayo	2023-05-15T00:00:00	2024-11-08T03:00:00	8	Radiación solar	0
36949	7	Sololá	710	Panajachel	8	Panajachel	5	Mayo	2023-05-15T00:00:00	2024-11-08T04:00:00	2	Temperatura media	18
36950	7	Sololá	710	Panajachel	8	Panajachel	5	Mayo	2023-05-15T00:00:00	2024-11-08T04:00:00	4	Temperatura máxima	18.1
36951	7	Sololá	710	Panajachel	8	Panajachel	5	Mayo	2023-05-15T00:00:00	2024-11-08T04:00:00	3	Temperatura mínima	17.3
36952	7	Sololá	710	Panajachel	8	Panajachel	5	Mayo	2023-05-15T00:00:00	2024-11-08T04:00:00	5	Humedad	81
36953	7	Sololá	710	Panajachel	8	Panajachel	5	Mayo	2023-05-15T00:00:00	2024-11-08T04:00:00	6	Velocidad del viento	0
36954	7	Sololá	710	Panajachel	8	Panajachel	5	Mayo	2023-05-15T00:00:00	2024-11-08T04:00:00	7	Dirección del viento	0
36955	7	Sololá	710	Panajachel	8	Panajachel	5	Mayo	2023-05-15T00:00:00	2024-11-08T04:00:00	1	Precipitación	0
36956	7	Sololá	710	Panajachel	8	Panajachel	5	Mayo	2023-05-15T00:00:00	2024-11-08T04:00:00	8	Radiación solar	0
36957	7	Sololá	710	Panajachel	8	Panajachel	5	Mayo	2023-05-15T00:00:00	2024-11-08T05:00:00	2	Temperatura media	18.7
36958	7	Sololá	710	Panajachel	8	Panajachel	5	Mayo	2023-05-15T00:00:00	2024-11-08T05:00:00	4	Temperatura máxima	18.8
36959	7	Sololá	710	Panajachel	8	Panajachel	5	Mayo	2023-05-15T00:00:00	2024-11-08T05:00:00	3	Temperatura mínima	17.9
36960	7	Sololá	710	Panajachel	8	Panajachel	5	Mayo	2023-05-15T00:00:00	2024-11-08T05:00:00	5	Humedad	78
36961	7	Sololá	710	Panajachel	8	Panajachel	5	Mayo	2023-05-15T00:00:00	2024-11-08T05:00:00	6	Velocidad del viento	1.6
36962	7	Sololá	710	Panajachel	8	Panajachel	5	Mayo	2023-05-15T00:00:00	2024-11-08T05:00:00	7	Dirección del viento	1.61
36963	7	Sololá	710	Panajachel	8	Panajachel	5	Mayo	2023-05-15T00:00:00	2024-11-08T05:00:00	1	Precipitación	0
36964	7	Sololá	710	Panajachel	8	Panajachel	5	Mayo	2023-05-15T00:00:00	2024-11-08T05:00:00	8	Radiación solar	0
36965	7	Sololá	710	Panajachel	8	Panajachel	5	Mayo	2023-05-15T00:00:00	2024-11-08T06:00:00	2	Temperatura media	18.2
36966	7	Sololá	710	Panajachel	8	Panajachel	5	Mayo	2023-05-15T00:00:00	2024-11-08T06:00:00	4	Temperatura máxima	19.1
36967	7	Sololá	710	Panajachel	8	Panajachel	5	Mayo	2023-05-15T00:00:00	2024-11-08T06:00:00	3	Temperatura mínima	18.2
36968	7	Sololá	710	Panajachel	8	Panajachel	5	Mayo	2023-05-15T00:00:00	2024-11-08T06:00:00	5	Humedad	80
36969	7	Sololá	710	Panajachel	8	Panajachel	5	Mayo	2023-05-15T00:00:00	2024-11-08T06:00:00	6	Velocidad del viento	0
36970	7	Sololá	710	Panajachel	8	Panajachel	5	Mayo	2023-05-15T00:00:00	2024-11-08T06:00:00	7	Dirección del viento	0
36971	7	Sololá	710	Panajachel	8	Panajachel	5	Mayo	2023-05-15T00:00:00	2024-11-08T06:00:00	1	Precipitación	0
36972	7	Sololá	710	Panajachel	8	Panajachel	5	Mayo	2023-05-15T00:00:00	2024-11-08T06:00:00	8	Radiación solar	4
36973	7	Sololá	710	Panajachel	8	Panajachel	5	Mayo	2023-05-15T00:00:00	2024-11-08T07:00:00	2	Temperatura media	19.5
36974	7	Sololá	710	Panajachel	8	Panajachel	5	Mayo	2023-05-15T00:00:00	2024-11-08T07:00:00	4	Temperatura máxima	19.6
36975	7	Sololá	710	Panajachel	8	Panajachel	5	Mayo	2023-05-15T00:00:00	2024-11-08T07:00:00	3	Temperatura mínima	17.9
36976	7	Sololá	710	Panajachel	8	Panajachel	5	Mayo	2023-05-15T00:00:00	2024-11-08T07:00:00	5	Humedad	76
36977	7	Sololá	710	Panajachel	8	Panajachel	5	Mayo	2023-05-15T00:00:00	2024-11-08T07:00:00	6	Velocidad del viento	0
36978	7	Sololá	710	Panajachel	8	Panajachel	5	Mayo	2023-05-15T00:00:00	2024-11-08T07:00:00	7	Dirección del viento	0
36979	7	Sololá	710	Panajachel	8	Panajachel	5	Mayo	2023-05-15T00:00:00	2024-11-08T07:00:00	1	Precipitación	0
36980	7	Sololá	710	Panajachel	8	Panajachel	5	Mayo	2023-05-15T00:00:00	2024-11-08T07:00:00	8	Radiación solar	89
36981	7	Sololá	710	Panajachel	8	Panajachel	5	Mayo	2023-05-15T00:00:00	2024-11-08T08:00:00	2	Temperatura media	21.5
36982	7	Sololá	710	Panajachel	8	Panajachel	5	Mayo	2023-05-15T00:00:00	2024-11-08T08:00:00	4	Temperatura máxima	21.6
36983	7	Sololá	710	Panajachel	8	Panajachel	5	Mayo	2023-05-15T00:00:00	2024-11-08T08:00:00	3	Temperatura mínima	19.6
36984	7	Sololá	710	Panajachel	8	Panajachel	5	Mayo	2023-05-15T00:00:00	2024-11-08T08:00:00	5	Humedad	72
36985	7	Sololá	710	Panajachel	8	Panajachel	5	Mayo	2023-05-15T00:00:00	2024-11-08T08:00:00	6	Velocidad del viento	0
36986	7	Sololá	710	Panajachel	8	Panajachel	5	Mayo	2023-05-15T00:00:00	2024-11-08T08:00:00	7	Dirección del viento	0
36987	7	Sololá	710	Panajachel	8	Panajachel	5	Mayo	2023-05-15T00:00:00	2024-11-08T08:00:00	1	Precipitación	0
36988	7	Sololá	710	Panajachel	8	Panajachel	5	Mayo	2023-05-15T00:00:00	2024-11-08T08:00:00	8	Radiación solar	260
36989	7	Sololá	710	Panajachel	8	Panajachel	5	Mayo	2023-05-15T00:00:00	2024-11-08T09:00:00	2	Temperatura media	21.9
36990	7	Sololá	710	Panajachel	8	Panajachel	5	Mayo	2023-05-15T00:00:00	2024-11-08T09:00:00	4	Temperatura máxima	21.9
36991	7	Sololá	710	Panajachel	8	Panajachel	5	Mayo	2023-05-15T00:00:00	2024-11-08T09:00:00	3	Temperatura mínima	21.5
36992	7	Sololá	710	Panajachel	8	Panajachel	5	Mayo	2023-05-15T00:00:00	2024-11-08T09:00:00	5	Humedad	72
36993	7	Sololá	710	Panajachel	8	Panajachel	5	Mayo	2023-05-15T00:00:00	2024-11-08T09:00:00	6	Velocidad del viento	0
36994	7	Sololá	710	Panajachel	8	Panajachel	5	Mayo	2023-05-15T00:00:00	2024-11-08T09:00:00	7	Dirección del viento	0
36995	7	Sololá	710	Panajachel	8	Panajachel	5	Mayo	2023-05-15T00:00:00	2024-11-08T09:00:00	1	Precipitación	0
36996	7	Sololá	710	Panajachel	8	Panajachel	5	Mayo	2023-05-15T00:00:00	2024-11-08T09:00:00	8	Radiación solar	319
36997	7	Sololá	710	Panajachel	8	Panajachel	5	Mayo	2023-05-15T00:00:00	2024-11-08T10:00:00	2	Temperatura media	23.1
36998	7	Sololá	710	Panajachel	8	Panajachel	5	Mayo	2023-05-15T00:00:00	2024-11-08T10:00:00	4	Temperatura máxima	23.1
36999	7	Sololá	710	Panajachel	8	Panajachel	5	Mayo	2023-05-15T00:00:00	2024-11-08T10:00:00	3	Temperatura mínima	21.8
37000	7	Sololá	710	Panajachel	8	Panajachel	5	Mayo	2023-05-15T00:00:00	2024-11-08T10:00:00	5	Humedad	71
37001	7	Sololá	710	Panajachel	8	Panajachel	5	Mayo	2023-05-15T00:00:00	2024-11-08T10:00:00	6	Velocidad del viento	0
37002	7	Sololá	710	Panajachel	8	Panajachel	5	Mayo	2023-05-15T00:00:00	2024-11-08T10:00:00	7	Dirección del viento	0
37003	7	Sololá	710	Panajachel	8	Panajachel	5	Mayo	2023-05-15T00:00:00	2024-11-08T10:00:00	1	Precipitación	0
37004	7	Sololá	710	Panajachel	8	Panajachel	5	Mayo	2023-05-15T00:00:00	2024-11-08T10:00:00	8	Radiación solar	536
37005	7	Sololá	710	Panajachel	8	Panajachel	5	Mayo	2023-05-15T00:00:00	2024-11-08T11:00:00	2	Temperatura media	22.7
37006	7	Sololá	710	Panajachel	8	Panajachel	5	Mayo	2023-05-15T00:00:00	2024-11-08T11:00:00	4	Temperatura máxima	23.7
37007	7	Sololá	710	Panajachel	8	Panajachel	5	Mayo	2023-05-15T00:00:00	2024-11-08T11:00:00	3	Temperatura mínima	22.7
37008	7	Sololá	710	Panajachel	8	Panajachel	5	Mayo	2023-05-15T00:00:00	2024-11-08T11:00:00	5	Humedad	72
37009	7	Sololá	710	Panajachel	8	Panajachel	5	Mayo	2023-05-15T00:00:00	2024-11-08T11:00:00	6	Velocidad del viento	1.6
37010	7	Sololá	710	Panajachel	8	Panajachel	5	Mayo	2023-05-15T00:00:00	2024-11-08T11:00:00	7	Dirección del viento	1.61
37011	7	Sololá	710	Panajachel	8	Panajachel	5	Mayo	2023-05-15T00:00:00	2024-11-08T11:00:00	1	Precipitación	0
37012	7	Sololá	710	Panajachel	8	Panajachel	5	Mayo	2023-05-15T00:00:00	2024-11-08T11:00:00	8	Radiación solar	875
37013	7	Sololá	710	Panajachel	8	Panajachel	5	Mayo	2023-05-15T00:00:00	2024-11-08T12:00:00	2	Temperatura media	23.7
37014	7	Sololá	710	Panajachel	8	Panajachel	5	Mayo	2023-05-15T00:00:00	2024-11-08T12:00:00	4	Temperatura máxima	23.7
37015	7	Sololá	710	Panajachel	8	Panajachel	5	Mayo	2023-05-15T00:00:00	2024-11-08T12:00:00	3	Temperatura mínima	22.4
37016	7	Sololá	710	Panajachel	8	Panajachel	5	Mayo	2023-05-15T00:00:00	2024-11-08T12:00:00	5	Humedad	70
37017	7	Sololá	710	Panajachel	8	Panajachel	5	Mayo	2023-05-15T00:00:00	2024-11-08T12:00:00	6	Velocidad del viento	1.6
37018	7	Sololá	710	Panajachel	8	Panajachel	5	Mayo	2023-05-15T00:00:00	2024-11-08T12:00:00	7	Dirección del viento	1.61
37019	7	Sololá	710	Panajachel	8	Panajachel	5	Mayo	2023-05-15T00:00:00	2024-11-08T12:00:00	1	Precipitación	0
37020	7	Sololá	710	Panajachel	8	Panajachel	5	Mayo	2023-05-15T00:00:00	2024-11-08T12:00:00	8	Radiación solar	647
37021	7	Sololá	710	Panajachel	8	Panajachel	5	Mayo	2023-05-15T00:00:00	2024-11-08T13:00:00	2	Temperatura media	23.2
37022	7	Sololá	710	Panajachel	8	Panajachel	5	Mayo	2023-05-15T00:00:00	2024-11-08T13:00:00	4	Temperatura máxima	24.1
37023	7	Sololá	710	Panajachel	8	Panajachel	5	Mayo	2023-05-15T00:00:00	2024-11-08T13:00:00	3	Temperatura mínima	23.2
37024	7	Sololá	710	Panajachel	8	Panajachel	5	Mayo	2023-05-15T00:00:00	2024-11-08T13:00:00	5	Humedad	74
37025	7	Sololá	710	Panajachel	8	Panajachel	5	Mayo	2023-05-15T00:00:00	2024-11-08T13:00:00	6	Velocidad del viento	8
37026	7	Sololá	710	Panajachel	8	Panajachel	5	Mayo	2023-05-15T00:00:00	2024-11-08T13:00:00	7	Dirección del viento	8.05
37027	7	Sololá	710	Panajachel	8	Panajachel	5	Mayo	2023-05-15T00:00:00	2024-11-08T13:00:00	1	Precipitación	0
37028	7	Sololá	710	Panajachel	8	Panajachel	5	Mayo	2023-05-15T00:00:00	2024-11-08T13:00:00	8	Radiación solar	924
37029	7	Sololá	710	Panajachel	8	Panajachel	5	Mayo	2023-05-15T00:00:00	2024-11-08T14:00:00	2	Temperatura media	23.2
37030	7	Sololá	710	Panajachel	8	Panajachel	5	Mayo	2023-05-15T00:00:00	2024-11-08T14:00:00	4	Temperatura máxima	23.6
37031	7	Sololá	710	Panajachel	8	Panajachel	5	Mayo	2023-05-15T00:00:00	2024-11-08T14:00:00	3	Temperatura mínima	22.8
37032	7	Sololá	710	Panajachel	8	Panajachel	5	Mayo	2023-05-15T00:00:00	2024-11-08T14:00:00	5	Humedad	74
37033	7	Sololá	710	Panajachel	8	Panajachel	5	Mayo	2023-05-15T00:00:00	2024-11-08T14:00:00	6	Velocidad del viento	8
37034	7	Sololá	710	Panajachel	8	Panajachel	5	Mayo	2023-05-15T00:00:00	2024-11-08T14:00:00	7	Dirección del viento	8.05
37035	7	Sololá	710	Panajachel	8	Panajachel	5	Mayo	2023-05-15T00:00:00	2024-11-08T14:00:00	1	Precipitación	0
37036	7	Sololá	710	Panajachel	8	Panajachel	5	Mayo	2023-05-15T00:00:00	2024-11-08T14:00:00	8	Radiación solar	784
37037	7	Sololá	710	Panajachel	8	Panajachel	5	Mayo	2023-05-15T00:00:00	2024-11-08T15:00:00	2	Temperatura media	24.5
37038	7	Sololá	710	Panajachel	8	Panajachel	5	Mayo	2023-05-15T00:00:00	2024-11-08T15:00:00	4	Temperatura máxima	24.6
37039	7	Sololá	710	Panajachel	8	Panajachel	5	Mayo	2023-05-15T00:00:00	2024-11-08T15:00:00	3	Temperatura mínima	22.8
37040	7	Sololá	710	Panajachel	8	Panajachel	5	Mayo	2023-05-15T00:00:00	2024-11-08T15:00:00	5	Humedad	76
37041	7	Sololá	710	Panajachel	8	Panajachel	5	Mayo	2023-05-15T00:00:00	2024-11-08T15:00:00	6	Velocidad del viento	8
37042	7	Sololá	710	Panajachel	8	Panajachel	5	Mayo	2023-05-15T00:00:00	2024-11-08T15:00:00	7	Dirección del viento	8.05
37043	7	Sololá	710	Panajachel	8	Panajachel	5	Mayo	2023-05-15T00:00:00	2024-11-08T15:00:00	1	Precipitación	0
37044	7	Sololá	710	Panajachel	8	Panajachel	5	Mayo	2023-05-15T00:00:00	2024-11-08T15:00:00	8	Radiación solar	610
37045	7	Sololá	710	Panajachel	8	Panajachel	5	Mayo	2023-05-15T00:00:00	2024-11-08T16:00:00	2	Temperatura media	22.7
37046	7	Sololá	710	Panajachel	8	Panajachel	5	Mayo	2023-05-15T00:00:00	2024-11-08T16:00:00	4	Temperatura máxima	24.5
37047	7	Sololá	710	Panajachel	8	Panajachel	5	Mayo	2023-05-15T00:00:00	2024-11-08T16:00:00	3	Temperatura mínima	22.2
37048	7	Sololá	710	Panajachel	8	Panajachel	5	Mayo	2023-05-15T00:00:00	2024-11-08T16:00:00	5	Humedad	80
37049	7	Sololá	710	Panajachel	8	Panajachel	5	Mayo	2023-05-15T00:00:00	2024-11-08T16:00:00	6	Velocidad del viento	4.8
37050	7	Sololá	710	Panajachel	8	Panajachel	5	Mayo	2023-05-15T00:00:00	2024-11-08T16:00:00	7	Dirección del viento	4.83
37051	7	Sololá	710	Panajachel	8	Panajachel	5	Mayo	2023-05-15T00:00:00	2024-11-08T16:00:00	1	Precipitación	0
37052	7	Sololá	710	Panajachel	8	Panajachel	5	Mayo	2023-05-15T00:00:00	2024-11-08T16:00:00	8	Radiación solar	276
37053	7	Sololá	710	Panajachel	8	Panajachel	5	Mayo	2023-05-15T00:00:00	2024-11-08T17:00:00	2	Temperatura media	21.7
37054	7	Sololá	710	Panajachel	8	Panajachel	5	Mayo	2023-05-15T00:00:00	2024-11-08T17:00:00	4	Temperatura máxima	22.7
37055	7	Sololá	710	Panajachel	8	Panajachel	5	Mayo	2023-05-15T00:00:00	2024-11-08T17:00:00	3	Temperatura mínima	21.7
37056	7	Sololá	710	Panajachel	8	Panajachel	5	Mayo	2023-05-15T00:00:00	2024-11-08T17:00:00	5	Humedad	83
37057	7	Sololá	710	Panajachel	8	Panajachel	5	Mayo	2023-05-15T00:00:00	2024-11-08T17:00:00	6	Velocidad del viento	6.4
37058	7	Sololá	710	Panajachel	8	Panajachel	5	Mayo	2023-05-15T00:00:00	2024-11-08T17:00:00	7	Dirección del viento	6.44
37059	7	Sololá	710	Panajachel	8	Panajachel	5	Mayo	2023-05-15T00:00:00	2024-11-08T17:00:00	1	Precipitación	0
37060	7	Sololá	710	Panajachel	8	Panajachel	5	Mayo	2023-05-15T00:00:00	2024-11-08T17:00:00	8	Radiación solar	37
37061	7	Sololá	710	Panajachel	8	Panajachel	5	Mayo	2023-05-15T00:00:00	2024-11-08T18:00:00	2	Temperatura media	18.7
37062	7	Sololá	710	Panajachel	8	Panajachel	5	Mayo	2023-05-15T00:00:00	2024-11-08T18:00:00	4	Temperatura máxima	21.8
37063	7	Sololá	710	Panajachel	8	Panajachel	5	Mayo	2023-05-15T00:00:00	2024-11-08T18:00:00	3	Temperatura mínima	18.7
37064	7	Sololá	710	Panajachel	8	Panajachel	5	Mayo	2023-05-15T00:00:00	2024-11-08T18:00:00	5	Humedad	87
37065	7	Sololá	710	Panajachel	8	Panajachel	5	Mayo	2023-05-15T00:00:00	2024-11-08T18:00:00	6	Velocidad del viento	6.4
37066	7	Sololá	710	Panajachel	8	Panajachel	5	Mayo	2023-05-15T00:00:00	2024-11-08T18:00:00	7	Dirección del viento	6.44
37067	7	Sololá	710	Panajachel	8	Panajachel	5	Mayo	2023-05-15T00:00:00	2024-11-08T18:00:00	1	Precipitación	1.2
37068	7	Sololá	710	Panajachel	8	Panajachel	5	Mayo	2023-05-15T00:00:00	2024-11-08T18:00:00	8	Radiación solar	5
37069	7	Sololá	710	Panajachel	8	Panajachel	5	Mayo	2023-05-15T00:00:00	2024-11-08T19:00:00	2	Temperatura media	17.7
37070	7	Sololá	710	Panajachel	8	Panajachel	5	Mayo	2023-05-15T00:00:00	2024-11-08T19:00:00	4	Temperatura máxima	18.7
37071	7	Sololá	710	Panajachel	8	Panajachel	5	Mayo	2023-05-15T00:00:00	2024-11-08T19:00:00	3	Temperatura mínima	17.2
37072	7	Sololá	710	Panajachel	8	Panajachel	5	Mayo	2023-05-15T00:00:00	2024-11-08T19:00:00	5	Humedad	88
37073	7	Sololá	710	Panajachel	8	Panajachel	5	Mayo	2023-05-15T00:00:00	2024-11-08T19:00:00	6	Velocidad del viento	6.4
37074	7	Sololá	710	Panajachel	8	Panajachel	5	Mayo	2023-05-15T00:00:00	2024-11-08T19:00:00	7	Dirección del viento	6.44
37075	7	Sololá	710	Panajachel	8	Panajachel	5	Mayo	2023-05-15T00:00:00	2024-11-08T19:00:00	1	Precipitación	2.6
37076	7	Sololá	710	Panajachel	8	Panajachel	5	Mayo	2023-05-15T00:00:00	2024-11-08T19:00:00	8	Radiación solar	0
37077	7	Sololá	710	Panajachel	8	Panajachel	5	Mayo	2023-05-15T00:00:00	2024-11-08T20:00:00	2	Temperatura media	17.6
37078	7	Sololá	710	Panajachel	8	Panajachel	5	Mayo	2023-05-15T00:00:00	2024-11-08T20:00:00	4	Temperatura máxima	18.3
37079	7	Sololá	710	Panajachel	8	Panajachel	5	Mayo	2023-05-15T00:00:00	2024-11-08T20:00:00	3	Temperatura mínima	17.6
37080	7	Sololá	710	Panajachel	8	Panajachel	5	Mayo	2023-05-15T00:00:00	2024-11-08T20:00:00	5	Humedad	92
37081	7	Sololá	710	Panajachel	8	Panajachel	5	Mayo	2023-05-15T00:00:00	2024-11-08T20:00:00	6	Velocidad del viento	1.6
37082	7	Sololá	710	Panajachel	8	Panajachel	5	Mayo	2023-05-15T00:00:00	2024-11-08T20:00:00	7	Dirección del viento	1.61
37083	7	Sololá	710	Panajachel	8	Panajachel	5	Mayo	2023-05-15T00:00:00	2024-11-08T20:00:00	1	Precipitación	0
37084	7	Sololá	710	Panajachel	8	Panajachel	5	Mayo	2023-05-15T00:00:00	2024-11-08T20:00:00	8	Radiación solar	0
37085	7	Sololá	710	Panajachel	8	Panajachel	5	Mayo	2023-05-15T00:00:00	2024-11-08T21:00:00	2	Temperatura media	17.3
37086	7	Sololá	710	Panajachel	8	Panajachel	5	Mayo	2023-05-15T00:00:00	2024-11-08T21:00:00	4	Temperatura máxima	17.6
37087	7	Sololá	710	Panajachel	8	Panajachel	5	Mayo	2023-05-15T00:00:00	2024-11-08T21:00:00	3	Temperatura mínima	17.2
37088	7	Sololá	710	Panajachel	8	Panajachel	5	Mayo	2023-05-15T00:00:00	2024-11-08T21:00:00	5	Humedad	87
37089	7	Sololá	710	Panajachel	8	Panajachel	5	Mayo	2023-05-15T00:00:00	2024-11-08T21:00:00	6	Velocidad del viento	3.2
37090	7	Sololá	710	Panajachel	8	Panajachel	5	Mayo	2023-05-15T00:00:00	2024-11-08T21:00:00	7	Dirección del viento	3.22
37091	7	Sololá	710	Panajachel	8	Panajachel	5	Mayo	2023-05-15T00:00:00	2024-11-08T21:00:00	1	Precipitación	0
37092	7	Sololá	710	Panajachel	8	Panajachel	5	Mayo	2023-05-15T00:00:00	2024-11-08T21:00:00	8	Radiación solar	0
37093	7	Sololá	710	Panajachel	8	Panajachel	5	Mayo	2023-05-15T00:00:00	2024-11-08T22:00:00	2	Temperatura media	18.2
37094	7	Sololá	710	Panajachel	8	Panajachel	5	Mayo	2023-05-15T00:00:00	2024-11-08T22:00:00	4	Temperatura máxima	18.2
37095	7	Sololá	710	Panajachel	8	Panajachel	5	Mayo	2023-05-15T00:00:00	2024-11-08T22:00:00	3	Temperatura mínima	17
37096	7	Sololá	710	Panajachel	8	Panajachel	5	Mayo	2023-05-15T00:00:00	2024-11-08T22:00:00	5	Humedad	76
37097	7	Sololá	710	Panajachel	8	Panajachel	5	Mayo	2023-05-15T00:00:00	2024-11-08T22:00:00	6	Velocidad del viento	4.8
37098	7	Sololá	710	Panajachel	8	Panajachel	5	Mayo	2023-05-15T00:00:00	2024-11-08T22:00:00	7	Dirección del viento	4.83
37099	7	Sololá	710	Panajachel	8	Panajachel	5	Mayo	2023-05-15T00:00:00	2024-11-08T22:00:00	1	Precipitación	0
37100	7	Sololá	710	Panajachel	8	Panajachel	5	Mayo	2023-05-15T00:00:00	2024-11-08T22:00:00	8	Radiación solar	0
37101	7	Sololá	710	Panajachel	8	Panajachel	5	Mayo	2023-05-15T00:00:00	2024-11-08T23:00:00	2	Temperatura media	16.6
37102	7	Sololá	710	Panajachel	8	Panajachel	5	Mayo	2023-05-15T00:00:00	2024-11-08T23:00:00	4	Temperatura máxima	18.3
37103	7	Sololá	710	Panajachel	8	Panajachel	5	Mayo	2023-05-15T00:00:00	2024-11-08T23:00:00	3	Temperatura mínima	16.6
37104	7	Sololá	710	Panajachel	8	Panajachel	5	Mayo	2023-05-15T00:00:00	2024-11-08T23:00:00	5	Humedad	83
37105	7	Sololá	710	Panajachel	8	Panajachel	5	Mayo	2023-05-15T00:00:00	2024-11-08T23:00:00	6	Velocidad del viento	3.2
37106	7	Sololá	710	Panajachel	8	Panajachel	5	Mayo	2023-05-15T00:00:00	2024-11-08T23:00:00	7	Dirección del viento	3.22
37107	7	Sololá	710	Panajachel	8	Panajachel	5	Mayo	2023-05-15T00:00:00	2024-11-08T23:00:00	1	Precipitación	0
37108	7	Sololá	710	Panajachel	8	Panajachel	5	Mayo	2023-05-15T00:00:00	2024-11-08T23:00:00	8	Radiación solar	0
37109	7	Sololá	710	Panajachel	8	Panajachel	5	Mayo	2023-05-16T00:00:00	2024-11-08T00:00:00	2	Temperatura media	16.6
37110	7	Sololá	710	Panajachel	8	Panajachel	5	Mayo	2023-05-16T00:00:00	2024-11-08T00:00:00	4	Temperatura máxima	17.4
37111	7	Sololá	710	Panajachel	8	Panajachel	5	Mayo	2023-05-16T00:00:00	2024-11-08T00:00:00	3	Temperatura mínima	16.3
37112	7	Sololá	710	Panajachel	8	Panajachel	5	Mayo	2023-05-16T00:00:00	2024-11-08T00:00:00	5	Humedad	80
37113	7	Sololá	710	Panajachel	8	Panajachel	5	Mayo	2023-05-16T00:00:00	2024-11-08T00:00:00	6	Velocidad del viento	3.2
37114	7	Sololá	710	Panajachel	8	Panajachel	5	Mayo	2023-05-16T00:00:00	2024-11-08T00:00:00	7	Dirección del viento	3.22
37115	7	Sololá	710	Panajachel	8	Panajachel	5	Mayo	2023-05-16T00:00:00	2024-11-08T00:00:00	1	Precipitación	0
37116	7	Sololá	710	Panajachel	8	Panajachel	5	Mayo	2023-05-16T00:00:00	2024-11-08T00:00:00	8	Radiación solar	0
37117	7	Sololá	710	Panajachel	8	Panajachel	5	Mayo	2023-05-16T00:00:00	2024-11-08T01:00:00	2	Temperatura media	15.8
37118	7	Sololá	710	Panajachel	8	Panajachel	5	Mayo	2023-05-16T00:00:00	2024-11-08T01:00:00	4	Temperatura máxima	16.6
37119	7	Sololá	710	Panajachel	8	Panajachel	5	Mayo	2023-05-16T00:00:00	2024-11-08T01:00:00	3	Temperatura mínima	15.6
37120	7	Sololá	710	Panajachel	8	Panajachel	5	Mayo	2023-05-16T00:00:00	2024-11-08T01:00:00	5	Humedad	83
37121	7	Sololá	710	Panajachel	8	Panajachel	5	Mayo	2023-05-16T00:00:00	2024-11-08T01:00:00	6	Velocidad del viento	3.2
37122	7	Sololá	710	Panajachel	8	Panajachel	5	Mayo	2023-05-16T00:00:00	2024-11-08T01:00:00	7	Dirección del viento	3.22
37123	7	Sololá	710	Panajachel	8	Panajachel	5	Mayo	2023-05-16T00:00:00	2024-11-08T01:00:00	1	Precipitación	0
37124	7	Sololá	710	Panajachel	8	Panajachel	5	Mayo	2023-05-16T00:00:00	2024-11-08T01:00:00	8	Radiación solar	0
37125	7	Sololá	710	Panajachel	8	Panajachel	5	Mayo	2023-05-16T00:00:00	2024-11-08T02:00:00	2	Temperatura media	15.9
37126	7	Sololá	710	Panajachel	8	Panajachel	5	Mayo	2023-05-16T00:00:00	2024-11-08T02:00:00	4	Temperatura máxima	16.1
37127	7	Sololá	710	Panajachel	8	Panajachel	5	Mayo	2023-05-16T00:00:00	2024-11-08T02:00:00	3	Temperatura mínima	15.6
37128	7	Sololá	710	Panajachel	8	Panajachel	5	Mayo	2023-05-16T00:00:00	2024-11-08T02:00:00	5	Humedad	80
37129	7	Sololá	710	Panajachel	8	Panajachel	5	Mayo	2023-05-16T00:00:00	2024-11-08T02:00:00	6	Velocidad del viento	4.8
37130	7	Sololá	710	Panajachel	8	Panajachel	5	Mayo	2023-05-16T00:00:00	2024-11-08T02:00:00	7	Dirección del viento	4.83
37131	7	Sololá	710	Panajachel	8	Panajachel	5	Mayo	2023-05-16T00:00:00	2024-11-08T02:00:00	1	Precipitación	0
37132	7	Sololá	710	Panajachel	8	Panajachel	5	Mayo	2023-05-16T00:00:00	2024-11-08T02:00:00	8	Radiación solar	0
37133	7	Sololá	710	Panajachel	8	Panajachel	5	Mayo	2023-05-16T00:00:00	2024-11-08T03:00:00	2	Temperatura media	16.3
37134	7	Sololá	710	Panajachel	8	Panajachel	5	Mayo	2023-05-16T00:00:00	2024-11-08T03:00:00	4	Temperatura máxima	16.3
37135	7	Sololá	710	Panajachel	8	Panajachel	5	Mayo	2023-05-16T00:00:00	2024-11-08T03:00:00	3	Temperatura mínima	15.3
37136	7	Sololá	710	Panajachel	8	Panajachel	5	Mayo	2023-05-16T00:00:00	2024-11-08T03:00:00	5	Humedad	77
37137	7	Sololá	710	Panajachel	8	Panajachel	5	Mayo	2023-05-16T00:00:00	2024-11-08T03:00:00	6	Velocidad del viento	3.2
37138	7	Sololá	710	Panajachel	8	Panajachel	5	Mayo	2023-05-16T00:00:00	2024-11-08T03:00:00	7	Dirección del viento	3.22
37139	7	Sololá	710	Panajachel	8	Panajachel	5	Mayo	2023-05-16T00:00:00	2024-11-08T03:00:00	1	Precipitación	0
37140	7	Sololá	710	Panajachel	8	Panajachel	5	Mayo	2023-05-16T00:00:00	2024-11-08T03:00:00	8	Radiación solar	0
37141	7	Sololá	710	Panajachel	8	Panajachel	5	Mayo	2023-05-16T00:00:00	2024-11-08T04:00:00	2	Temperatura media	15.6
37142	7	Sololá	710	Panajachel	8	Panajachel	5	Mayo	2023-05-16T00:00:00	2024-11-08T04:00:00	4	Temperatura máxima	16.3
37143	7	Sololá	710	Panajachel	8	Panajachel	5	Mayo	2023-05-16T00:00:00	2024-11-08T04:00:00	3	Temperatura mínima	15.6
37144	7	Sololá	710	Panajachel	8	Panajachel	5	Mayo	2023-05-16T00:00:00	2024-11-08T04:00:00	5	Humedad	82
37145	7	Sololá	710	Panajachel	8	Panajachel	5	Mayo	2023-05-16T00:00:00	2024-11-08T04:00:00	6	Velocidad del viento	3.2
37146	7	Sololá	710	Panajachel	8	Panajachel	5	Mayo	2023-05-16T00:00:00	2024-11-08T04:00:00	7	Dirección del viento	3.22
37147	7	Sololá	710	Panajachel	8	Panajachel	5	Mayo	2023-05-16T00:00:00	2024-11-08T04:00:00	1	Precipitación	0
37148	7	Sololá	710	Panajachel	8	Panajachel	5	Mayo	2023-05-16T00:00:00	2024-11-08T04:00:00	8	Radiación solar	0
37149	7	Sololá	710	Panajachel	8	Panajachel	5	Mayo	2023-05-16T00:00:00	2024-11-08T05:00:00	2	Temperatura media	15.7
37150	7	Sololá	710	Panajachel	8	Panajachel	5	Mayo	2023-05-16T00:00:00	2024-11-08T05:00:00	4	Temperatura máxima	16.1
37151	7	Sololá	710	Panajachel	8	Panajachel	5	Mayo	2023-05-16T00:00:00	2024-11-08T05:00:00	3	Temperatura mínima	15.6
37152	7	Sololá	710	Panajachel	8	Panajachel	5	Mayo	2023-05-16T00:00:00	2024-11-08T05:00:00	5	Humedad	81
37153	7	Sololá	710	Panajachel	8	Panajachel	5	Mayo	2023-05-16T00:00:00	2024-11-08T05:00:00	6	Velocidad del viento	4.8
37154	7	Sololá	710	Panajachel	8	Panajachel	5	Mayo	2023-05-16T00:00:00	2024-11-08T05:00:00	7	Dirección del viento	4.83
37155	7	Sololá	710	Panajachel	8	Panajachel	5	Mayo	2023-05-16T00:00:00	2024-11-08T05:00:00	1	Precipitación	0
37156	7	Sololá	710	Panajachel	8	Panajachel	5	Mayo	2023-05-16T00:00:00	2024-11-08T05:00:00	8	Radiación solar	0
37157	7	Sololá	710	Panajachel	8	Panajachel	5	Mayo	2023-05-16T00:00:00	2024-11-08T06:00:00	2	Temperatura media	15.5
37158	7	Sololá	710	Panajachel	8	Panajachel	5	Mayo	2023-05-16T00:00:00	2024-11-08T06:00:00	4	Temperatura máxima	15.7
37159	7	Sololá	710	Panajachel	8	Panajachel	5	Mayo	2023-05-16T00:00:00	2024-11-08T06:00:00	3	Temperatura mínima	15.2
37160	7	Sololá	710	Panajachel	8	Panajachel	5	Mayo	2023-05-16T00:00:00	2024-11-08T06:00:00	5	Humedad	81
37161	7	Sololá	710	Panajachel	8	Panajachel	5	Mayo	2023-05-16T00:00:00	2024-11-08T06:00:00	6	Velocidad del viento	3.2
37162	7	Sololá	710	Panajachel	8	Panajachel	5	Mayo	2023-05-16T00:00:00	2024-11-08T06:00:00	7	Dirección del viento	3.22
37163	7	Sololá	710	Panajachel	8	Panajachel	5	Mayo	2023-05-16T00:00:00	2024-11-08T06:00:00	1	Precipitación	0
37164	7	Sololá	710	Panajachel	8	Panajachel	5	Mayo	2023-05-16T00:00:00	2024-11-08T06:00:00	8	Radiación solar	4
37165	7	Sololá	710	Panajachel	8	Panajachel	5	Mayo	2023-05-16T00:00:00	2024-11-08T07:00:00	2	Temperatura media	17.4
37166	7	Sololá	710	Panajachel	8	Panajachel	5	Mayo	2023-05-16T00:00:00	2024-11-08T07:00:00	4	Temperatura máxima	17.4
37167	7	Sololá	710	Panajachel	8	Panajachel	5	Mayo	2023-05-16T00:00:00	2024-11-08T07:00:00	3	Temperatura mínima	15.4
37168	7	Sololá	710	Panajachel	8	Panajachel	5	Mayo	2023-05-16T00:00:00	2024-11-08T07:00:00	5	Humedad	76
37169	7	Sololá	710	Panajachel	8	Panajachel	5	Mayo	2023-05-16T00:00:00	2024-11-08T07:00:00	6	Velocidad del viento	1.6
37170	7	Sololá	710	Panajachel	8	Panajachel	5	Mayo	2023-05-16T00:00:00	2024-11-08T07:00:00	7	Dirección del viento	1.61
37171	7	Sololá	710	Panajachel	8	Panajachel	5	Mayo	2023-05-16T00:00:00	2024-11-08T07:00:00	1	Precipitación	0
37172	7	Sololá	710	Panajachel	8	Panajachel	5	Mayo	2023-05-16T00:00:00	2024-11-08T07:00:00	8	Radiación solar	105
37173	7	Sololá	710	Panajachel	8	Panajachel	5	Mayo	2023-05-16T00:00:00	2024-11-08T08:00:00	2	Temperatura media	19.4
37174	7	Sololá	710	Panajachel	8	Panajachel	5	Mayo	2023-05-16T00:00:00	2024-11-08T08:00:00	4	Temperatura máxima	19.7
37175	7	Sololá	710	Panajachel	8	Panajachel	5	Mayo	2023-05-16T00:00:00	2024-11-08T08:00:00	3	Temperatura mínima	17.4
37176	7	Sololá	710	Panajachel	8	Panajachel	5	Mayo	2023-05-16T00:00:00	2024-11-08T08:00:00	5	Humedad	70
37177	7	Sololá	710	Panajachel	8	Panajachel	5	Mayo	2023-05-16T00:00:00	2024-11-08T08:00:00	6	Velocidad del viento	1.6
37178	7	Sololá	710	Panajachel	8	Panajachel	5	Mayo	2023-05-16T00:00:00	2024-11-08T08:00:00	7	Dirección del viento	1.61
37179	7	Sololá	710	Panajachel	8	Panajachel	5	Mayo	2023-05-16T00:00:00	2024-11-08T08:00:00	1	Precipitación	0
37180	7	Sololá	710	Panajachel	8	Panajachel	5	Mayo	2023-05-16T00:00:00	2024-11-08T08:00:00	8	Radiación solar	326
37181	7	Sololá	710	Panajachel	8	Panajachel	5	Mayo	2023-05-16T00:00:00	2024-11-08T09:00:00	2	Temperatura media	20.4
37182	7	Sololá	710	Panajachel	8	Panajachel	5	Mayo	2023-05-16T00:00:00	2024-11-08T09:00:00	4	Temperatura máxima	20.5
37183	7	Sololá	710	Panajachel	8	Panajachel	5	Mayo	2023-05-16T00:00:00	2024-11-08T09:00:00	3	Temperatura mínima	19.4
37184	7	Sololá	710	Panajachel	8	Panajachel	5	Mayo	2023-05-16T00:00:00	2024-11-08T09:00:00	5	Humedad	77
37185	7	Sololá	710	Panajachel	8	Panajachel	5	Mayo	2023-05-16T00:00:00	2024-11-08T09:00:00	6	Velocidad del viento	1.6
37186	7	Sololá	710	Panajachel	8	Panajachel	5	Mayo	2023-05-16T00:00:00	2024-11-08T09:00:00	7	Dirección del viento	1.61
37187	7	Sololá	710	Panajachel	8	Panajachel	5	Mayo	2023-05-16T00:00:00	2024-11-08T09:00:00	1	Precipitación	0
37188	7	Sololá	710	Panajachel	8	Panajachel	5	Mayo	2023-05-16T00:00:00	2024-11-08T09:00:00	8	Radiación solar	552
37189	7	Sololá	710	Panajachel	8	Panajachel	5	Mayo	2023-05-16T00:00:00	2024-11-08T10:00:00	2	Temperatura media	21.9
37190	7	Sololá	710	Panajachel	8	Panajachel	5	Mayo	2023-05-16T00:00:00	2024-11-08T10:00:00	4	Temperatura máxima	21.9
37191	7	Sololá	710	Panajachel	8	Panajachel	5	Mayo	2023-05-16T00:00:00	2024-11-08T10:00:00	3	Temperatura mínima	20.5
37192	7	Sololá	710	Panajachel	8	Panajachel	5	Mayo	2023-05-16T00:00:00	2024-11-08T10:00:00	5	Humedad	72
37193	7	Sololá	710	Panajachel	8	Panajachel	5	Mayo	2023-05-16T00:00:00	2024-11-08T10:00:00	6	Velocidad del viento	3.2
37194	7	Sololá	710	Panajachel	8	Panajachel	5	Mayo	2023-05-16T00:00:00	2024-11-08T10:00:00	7	Dirección del viento	3.22
37195	7	Sololá	710	Panajachel	8	Panajachel	5	Mayo	2023-05-16T00:00:00	2024-11-08T10:00:00	1	Precipitación	0
37196	7	Sololá	710	Panajachel	8	Panajachel	5	Mayo	2023-05-16T00:00:00	2024-11-08T10:00:00	8	Radiación solar	742
37197	7	Sololá	710	Panajachel	8	Panajachel	5	Mayo	2023-05-16T00:00:00	2024-11-08T11:00:00	2	Temperatura media	22.9
37198	7	Sololá	710	Panajachel	8	Panajachel	5	Mayo	2023-05-16T00:00:00	2024-11-08T11:00:00	4	Temperatura máxima	22.9
37199	7	Sololá	710	Panajachel	8	Panajachel	5	Mayo	2023-05-16T00:00:00	2024-11-08T11:00:00	3	Temperatura mínima	21.8
37200	7	Sololá	710	Panajachel	8	Panajachel	5	Mayo	2023-05-16T00:00:00	2024-11-08T11:00:00	5	Humedad	64
37201	7	Sololá	710	Panajachel	8	Panajachel	5	Mayo	2023-05-16T00:00:00	2024-11-08T11:00:00	6	Velocidad del viento	3.2
37202	7	Sololá	710	Panajachel	8	Panajachel	5	Mayo	2023-05-16T00:00:00	2024-11-08T11:00:00	7	Dirección del viento	3.22
37203	7	Sololá	710	Panajachel	8	Panajachel	5	Mayo	2023-05-16T00:00:00	2024-11-08T11:00:00	1	Precipitación	0
37204	7	Sololá	710	Panajachel	8	Panajachel	5	Mayo	2023-05-16T00:00:00	2024-11-08T11:00:00	8	Radiación solar	893
37205	7	Sololá	710	Panajachel	8	Panajachel	5	Mayo	2023-05-16T00:00:00	2024-11-08T12:00:00	2	Temperatura media	24.8
37206	7	Sololá	710	Panajachel	8	Panajachel	5	Mayo	2023-05-16T00:00:00	2024-11-08T12:00:00	4	Temperatura máxima	24.8
37207	7	Sololá	710	Panajachel	8	Panajachel	5	Mayo	2023-05-16T00:00:00	2024-11-08T12:00:00	3	Temperatura mínima	22.8
37208	7	Sololá	710	Panajachel	8	Panajachel	5	Mayo	2023-05-16T00:00:00	2024-11-08T12:00:00	5	Humedad	63
37209	7	Sololá	710	Panajachel	8	Panajachel	5	Mayo	2023-05-16T00:00:00	2024-11-08T12:00:00	6	Velocidad del viento	3.2
37210	7	Sololá	710	Panajachel	8	Panajachel	5	Mayo	2023-05-16T00:00:00	2024-11-08T12:00:00	7	Dirección del viento	3.22
37211	7	Sololá	710	Panajachel	8	Panajachel	5	Mayo	2023-05-16T00:00:00	2024-11-08T12:00:00	1	Precipitación	0
37212	7	Sololá	710	Panajachel	8	Panajachel	5	Mayo	2023-05-16T00:00:00	2024-11-08T12:00:00	8	Radiación solar	939
37213	7	Sololá	710	Panajachel	8	Panajachel	5	Mayo	2023-05-16T00:00:00	2024-11-08T13:00:00	2	Temperatura media	24.8
37214	7	Sololá	710	Panajachel	8	Panajachel	5	Mayo	2023-05-16T00:00:00	2024-11-08T13:00:00	4	Temperatura máxima	25.3
37215	7	Sololá	710	Panajachel	8	Panajachel	5	Mayo	2023-05-16T00:00:00	2024-11-08T13:00:00	3	Temperatura mínima	23.9
37216	7	Sololá	710	Panajachel	8	Panajachel	5	Mayo	2023-05-16T00:00:00	2024-11-08T13:00:00	5	Humedad	66
37217	7	Sololá	710	Panajachel	8	Panajachel	5	Mayo	2023-05-16T00:00:00	2024-11-08T13:00:00	6	Velocidad del viento	4.8
37218	7	Sololá	710	Panajachel	8	Panajachel	5	Mayo	2023-05-16T00:00:00	2024-11-08T13:00:00	7	Dirección del viento	4.83
37219	7	Sololá	710	Panajachel	8	Panajachel	5	Mayo	2023-05-16T00:00:00	2024-11-08T13:00:00	1	Precipitación	0
37220	7	Sololá	710	Panajachel	8	Panajachel	5	Mayo	2023-05-16T00:00:00	2024-11-08T13:00:00	8	Radiación solar	933
37221	7	Sololá	710	Panajachel	8	Panajachel	5	Mayo	2023-05-16T00:00:00	2024-11-08T14:00:00	2	Temperatura media	24.2
37222	7	Sololá	710	Panajachel	8	Panajachel	5	Mayo	2023-05-16T00:00:00	2024-11-08T14:00:00	4	Temperatura máxima	25.4
37223	7	Sololá	710	Panajachel	8	Panajachel	5	Mayo	2023-05-16T00:00:00	2024-11-08T14:00:00	3	Temperatura mínima	23.2
37224	7	Sololá	710	Panajachel	8	Panajachel	5	Mayo	2023-05-16T00:00:00	2024-11-08T14:00:00	5	Humedad	76
37225	7	Sololá	710	Panajachel	8	Panajachel	5	Mayo	2023-05-16T00:00:00	2024-11-08T14:00:00	6	Velocidad del viento	6.4
37226	7	Sololá	710	Panajachel	8	Panajachel	5	Mayo	2023-05-16T00:00:00	2024-11-08T14:00:00	7	Dirección del viento	6.44
37227	7	Sololá	710	Panajachel	8	Panajachel	5	Mayo	2023-05-16T00:00:00	2024-11-08T14:00:00	1	Precipitación	0
37228	7	Sololá	710	Panajachel	8	Panajachel	5	Mayo	2023-05-16T00:00:00	2024-11-08T14:00:00	8	Radiación solar	551
37229	7	Sololá	710	Panajachel	8	Panajachel	5	Mayo	2023-05-16T00:00:00	2024-11-08T15:00:00	2	Temperatura media	22.6
37230	7	Sololá	710	Panajachel	8	Panajachel	5	Mayo	2023-05-16T00:00:00	2024-11-08T15:00:00	4	Temperatura máxima	24.3
37231	7	Sololá	710	Panajachel	8	Panajachel	5	Mayo	2023-05-16T00:00:00	2024-11-08T15:00:00	3	Temperatura mínima	22.6
37232	7	Sololá	710	Panajachel	8	Panajachel	5	Mayo	2023-05-16T00:00:00	2024-11-08T15:00:00	5	Humedad	81
37233	7	Sololá	710	Panajachel	8	Panajachel	5	Mayo	2023-05-16T00:00:00	2024-11-08T15:00:00	6	Velocidad del viento	6.4
37234	7	Sololá	710	Panajachel	8	Panajachel	5	Mayo	2023-05-16T00:00:00	2024-11-08T15:00:00	7	Dirección del viento	6.44
37235	7	Sololá	710	Panajachel	8	Panajachel	5	Mayo	2023-05-16T00:00:00	2024-11-08T15:00:00	1	Precipitación	0
37236	7	Sololá	710	Panajachel	8	Panajachel	5	Mayo	2023-05-16T00:00:00	2024-11-08T15:00:00	8	Radiación solar	292
37237	7	Sololá	710	Panajachel	8	Panajachel	5	Mayo	2023-05-16T00:00:00	2024-11-08T16:00:00	2	Temperatura media	21.5
37238	7	Sololá	710	Panajachel	8	Panajachel	5	Mayo	2023-05-16T00:00:00	2024-11-08T16:00:00	4	Temperatura máxima	22.6
37239	7	Sololá	710	Panajachel	8	Panajachel	5	Mayo	2023-05-16T00:00:00	2024-11-08T16:00:00	3	Temperatura mínima	21.4
37240	7	Sololá	710	Panajachel	8	Panajachel	5	Mayo	2023-05-16T00:00:00	2024-11-08T16:00:00	5	Humedad	83
37241	7	Sololá	710	Panajachel	8	Panajachel	5	Mayo	2023-05-16T00:00:00	2024-11-08T16:00:00	6	Velocidad del viento	4.8
37242	7	Sololá	710	Panajachel	8	Panajachel	5	Mayo	2023-05-16T00:00:00	2024-11-08T16:00:00	7	Dirección del viento	4.83
37243	7	Sololá	710	Panajachel	8	Panajachel	5	Mayo	2023-05-16T00:00:00	2024-11-08T16:00:00	1	Precipitación	0
37244	7	Sololá	710	Panajachel	8	Panajachel	5	Mayo	2023-05-16T00:00:00	2024-11-08T16:00:00	8	Radiación solar	129
37245	7	Sololá	710	Panajachel	8	Panajachel	5	Mayo	2023-05-16T00:00:00	2024-11-08T17:00:00	2	Temperatura media	19.8
37246	7	Sololá	710	Panajachel	8	Panajachel	5	Mayo	2023-05-16T00:00:00	2024-11-08T17:00:00	4	Temperatura máxima	21.4
37247	7	Sololá	710	Panajachel	8	Panajachel	5	Mayo	2023-05-16T00:00:00	2024-11-08T17:00:00	3	Temperatura mínima	19.7
37248	7	Sololá	710	Panajachel	8	Panajachel	5	Mayo	2023-05-16T00:00:00	2024-11-08T17:00:00	5	Humedad	90
37249	7	Sololá	710	Panajachel	8	Panajachel	5	Mayo	2023-05-16T00:00:00	2024-11-08T17:00:00	6	Velocidad del viento	6.4
37250	7	Sololá	710	Panajachel	8	Panajachel	5	Mayo	2023-05-16T00:00:00	2024-11-08T17:00:00	7	Dirección del viento	6.44
37251	7	Sololá	710	Panajachel	8	Panajachel	5	Mayo	2023-05-16T00:00:00	2024-11-08T17:00:00	1	Precipitación	0.8
37252	7	Sololá	710	Panajachel	8	Panajachel	5	Mayo	2023-05-16T00:00:00	2024-11-08T17:00:00	8	Radiación solar	43
37253	7	Sololá	710	Panajachel	8	Panajachel	5	Mayo	2023-05-16T00:00:00	2024-11-08T18:00:00	2	Temperatura media	19.6
37254	7	Sololá	710	Panajachel	8	Panajachel	5	Mayo	2023-05-16T00:00:00	2024-11-08T18:00:00	4	Temperatura máxima	19.8
37255	7	Sololá	710	Panajachel	8	Panajachel	5	Mayo	2023-05-16T00:00:00	2024-11-08T18:00:00	3	Temperatura mínima	19.6
37256	7	Sololá	710	Panajachel	8	Panajachel	5	Mayo	2023-05-16T00:00:00	2024-11-08T18:00:00	5	Humedad	93
37257	7	Sololá	710	Panajachel	8	Panajachel	5	Mayo	2023-05-16T00:00:00	2024-11-08T18:00:00	6	Velocidad del viento	1.6
37258	7	Sololá	710	Panajachel	8	Panajachel	5	Mayo	2023-05-16T00:00:00	2024-11-08T18:00:00	7	Dirección del viento	1.61
37259	7	Sololá	710	Panajachel	8	Panajachel	5	Mayo	2023-05-16T00:00:00	2024-11-08T18:00:00	1	Precipitación	0.2
37260	7	Sololá	710	Panajachel	8	Panajachel	5	Mayo	2023-05-16T00:00:00	2024-11-08T18:00:00	8	Radiación solar	21
37261	7	Sololá	710	Panajachel	8	Panajachel	5	Mayo	2023-05-16T00:00:00	2024-11-08T19:00:00	2	Temperatura media	18.7
37262	7	Sololá	710	Panajachel	8	Panajachel	5	Mayo	2023-05-16T00:00:00	2024-11-08T19:00:00	4	Temperatura máxima	19.6
37263	7	Sololá	710	Panajachel	8	Panajachel	5	Mayo	2023-05-16T00:00:00	2024-11-08T19:00:00	3	Temperatura mínima	18.7
37264	7	Sololá	710	Panajachel	8	Panajachel	5	Mayo	2023-05-16T00:00:00	2024-11-08T19:00:00	5	Humedad	89
37265	7	Sololá	710	Panajachel	8	Panajachel	5	Mayo	2023-05-16T00:00:00	2024-11-08T19:00:00	6	Velocidad del viento	1.6
37266	7	Sololá	710	Panajachel	8	Panajachel	5	Mayo	2023-05-16T00:00:00	2024-11-08T19:00:00	7	Dirección del viento	1.61
37267	7	Sololá	710	Panajachel	8	Panajachel	5	Mayo	2023-05-16T00:00:00	2024-11-08T19:00:00	1	Precipitación	0
37268	7	Sololá	710	Panajachel	8	Panajachel	5	Mayo	2023-05-16T00:00:00	2024-11-08T19:00:00	8	Radiación solar	0
37269	7	Sololá	710	Panajachel	8	Panajachel	5	Mayo	2023-05-16T00:00:00	2024-11-08T20:00:00	2	Temperatura media	18.3
37270	7	Sololá	710	Panajachel	8	Panajachel	5	Mayo	2023-05-16T00:00:00	2024-11-08T20:00:00	4	Temperatura máxima	18.8
37271	7	Sololá	710	Panajachel	8	Panajachel	5	Mayo	2023-05-16T00:00:00	2024-11-08T20:00:00	3	Temperatura mínima	18.3
37272	7	Sololá	710	Panajachel	8	Panajachel	5	Mayo	2023-05-16T00:00:00	2024-11-08T20:00:00	5	Humedad	91
37273	7	Sololá	710	Panajachel	8	Panajachel	5	Mayo	2023-05-16T00:00:00	2024-11-08T20:00:00	6	Velocidad del viento	1.6
37274	7	Sololá	710	Panajachel	8	Panajachel	5	Mayo	2023-05-16T00:00:00	2024-11-08T20:00:00	7	Dirección del viento	1.61
37275	7	Sololá	710	Panajachel	8	Panajachel	5	Mayo	2023-05-16T00:00:00	2024-11-08T20:00:00	1	Precipitación	0
37276	7	Sololá	710	Panajachel	8	Panajachel	5	Mayo	2023-05-16T00:00:00	2024-11-08T20:00:00	8	Radiación solar	0
37277	7	Sololá	710	Panajachel	8	Panajachel	5	Mayo	2023-05-16T00:00:00	2024-11-08T21:00:00	2	Temperatura media	17.8
37278	7	Sololá	710	Panajachel	8	Panajachel	5	Mayo	2023-05-16T00:00:00	2024-11-08T21:00:00	4	Temperatura máxima	18.3
37279	7	Sololá	710	Panajachel	8	Panajachel	5	Mayo	2023-05-16T00:00:00	2024-11-08T21:00:00	3	Temperatura mínima	17.6
37280	7	Sololá	710	Panajachel	8	Panajachel	5	Mayo	2023-05-16T00:00:00	2024-11-08T21:00:00	5	Humedad	90
37281	7	Sololá	710	Panajachel	8	Panajachel	5	Mayo	2023-05-16T00:00:00	2024-11-08T21:00:00	6	Velocidad del viento	1.6
37282	7	Sololá	710	Panajachel	8	Panajachel	5	Mayo	2023-05-16T00:00:00	2024-11-08T21:00:00	7	Dirección del viento	1.61
37283	7	Sololá	710	Panajachel	8	Panajachel	5	Mayo	2023-05-16T00:00:00	2024-11-08T21:00:00	1	Precipitación	0
37284	7	Sololá	710	Panajachel	8	Panajachel	5	Mayo	2023-05-16T00:00:00	2024-11-08T21:00:00	8	Radiación solar	0
37285	7	Sololá	710	Panajachel	8	Panajachel	5	Mayo	2023-05-16T00:00:00	2024-11-08T22:00:00	2	Temperatura media	17.4
37286	7	Sololá	710	Panajachel	8	Panajachel	5	Mayo	2023-05-16T00:00:00	2024-11-08T22:00:00	4	Temperatura máxima	17.9
37287	7	Sololá	710	Panajachel	8	Panajachel	5	Mayo	2023-05-16T00:00:00	2024-11-08T22:00:00	3	Temperatura mínima	17.4
37288	7	Sololá	710	Panajachel	8	Panajachel	5	Mayo	2023-05-16T00:00:00	2024-11-08T22:00:00	5	Humedad	90
37289	7	Sololá	710	Panajachel	8	Panajachel	5	Mayo	2023-05-16T00:00:00	2024-11-08T22:00:00	6	Velocidad del viento	1.6
37290	7	Sololá	710	Panajachel	8	Panajachel	5	Mayo	2023-05-16T00:00:00	2024-11-08T22:00:00	7	Dirección del viento	1.61
37291	7	Sololá	710	Panajachel	8	Panajachel	5	Mayo	2023-05-16T00:00:00	2024-11-08T22:00:00	1	Precipitación	0
37292	7	Sololá	710	Panajachel	8	Panajachel	5	Mayo	2023-05-16T00:00:00	2024-11-08T22:00:00	8	Radiación solar	0
37293	7	Sololá	710	Panajachel	8	Panajachel	5	Mayo	2023-05-16T00:00:00	2024-11-08T23:00:00	2	Temperatura media	17.6
37294	7	Sololá	710	Panajachel	8	Panajachel	5	Mayo	2023-05-16T00:00:00	2024-11-08T23:00:00	4	Temperatura máxima	17.6
37295	7	Sololá	710	Panajachel	8	Panajachel	5	Mayo	2023-05-16T00:00:00	2024-11-08T23:00:00	3	Temperatura mínima	17.3
37296	7	Sololá	710	Panajachel	8	Panajachel	5	Mayo	2023-05-16T00:00:00	2024-11-08T23:00:00	5	Humedad	89
37297	7	Sololá	710	Panajachel	8	Panajachel	5	Mayo	2023-05-16T00:00:00	2024-11-08T23:00:00	6	Velocidad del viento	3.2
37298	7	Sololá	710	Panajachel	8	Panajachel	5	Mayo	2023-05-16T00:00:00	2024-11-08T23:00:00	7	Dirección del viento	3.22
37299	7	Sololá	710	Panajachel	8	Panajachel	5	Mayo	2023-05-16T00:00:00	2024-11-08T23:00:00	1	Precipitación	0
37300	7	Sololá	710	Panajachel	8	Panajachel	5	Mayo	2023-05-16T00:00:00	2024-11-08T23:00:00	8	Radiación solar	0
37301	7	Sololá	710	Panajachel	8	Panajachel	5	Mayo	2023-05-17T00:00:00	2024-11-08T00:00:00	2	Temperatura media	17.5
37302	7	Sololá	710	Panajachel	8	Panajachel	5	Mayo	2023-05-17T00:00:00	2024-11-08T00:00:00	4	Temperatura máxima	17.8
37303	7	Sololá	710	Panajachel	8	Panajachel	5	Mayo	2023-05-17T00:00:00	2024-11-08T00:00:00	3	Temperatura mínima	17.4
37304	7	Sololá	710	Panajachel	8	Panajachel	5	Mayo	2023-05-17T00:00:00	2024-11-08T00:00:00	5	Humedad	90
37305	7	Sololá	710	Panajachel	8	Panajachel	5	Mayo	2023-05-17T00:00:00	2024-11-08T00:00:00	6	Velocidad del viento	1.6
37306	7	Sololá	710	Panajachel	8	Panajachel	5	Mayo	2023-05-17T00:00:00	2024-11-08T00:00:00	7	Dirección del viento	1.61
37307	7	Sololá	710	Panajachel	8	Panajachel	5	Mayo	2023-05-17T00:00:00	2024-11-08T00:00:00	1	Precipitación	0
37308	7	Sololá	710	Panajachel	8	Panajachel	5	Mayo	2023-05-17T00:00:00	2024-11-08T00:00:00	8	Radiación solar	0
37309	7	Sololá	710	Panajachel	8	Panajachel	5	Mayo	2023-05-17T00:00:00	2024-11-08T01:00:00	2	Temperatura media	17.3
37310	7	Sololá	710	Panajachel	8	Panajachel	5	Mayo	2023-05-17T00:00:00	2024-11-08T01:00:00	4	Temperatura máxima	17.5
37311	7	Sololá	710	Panajachel	8	Panajachel	5	Mayo	2023-05-17T00:00:00	2024-11-08T01:00:00	3	Temperatura mínima	16.8
37312	7	Sololá	710	Panajachel	8	Panajachel	5	Mayo	2023-05-17T00:00:00	2024-11-08T01:00:00	5	Humedad	85
37313	7	Sololá	710	Panajachel	8	Panajachel	5	Mayo	2023-05-17T00:00:00	2024-11-08T01:00:00	6	Velocidad del viento	4.8
37314	7	Sololá	710	Panajachel	8	Panajachel	5	Mayo	2023-05-17T00:00:00	2024-11-08T01:00:00	7	Dirección del viento	4.83
37315	7	Sololá	710	Panajachel	8	Panajachel	5	Mayo	2023-05-17T00:00:00	2024-11-08T01:00:00	1	Precipitación	0
37316	7	Sololá	710	Panajachel	8	Panajachel	5	Mayo	2023-05-17T00:00:00	2024-11-08T01:00:00	8	Radiación solar	0
37317	7	Sololá	710	Panajachel	8	Panajachel	5	Mayo	2023-05-17T00:00:00	2024-11-08T02:00:00	2	Temperatura media	17.5
37318	7	Sololá	710	Panajachel	8	Panajachel	5	Mayo	2023-05-17T00:00:00	2024-11-08T02:00:00	4	Temperatura máxima	17.9
37319	7	Sololá	710	Panajachel	8	Panajachel	5	Mayo	2023-05-17T00:00:00	2024-11-08T02:00:00	3	Temperatura mínima	17.3
37320	7	Sololá	710	Panajachel	8	Panajachel	5	Mayo	2023-05-17T00:00:00	2024-11-08T02:00:00	5	Humedad	83
37321	7	Sololá	710	Panajachel	8	Panajachel	5	Mayo	2023-05-17T00:00:00	2024-11-08T02:00:00	6	Velocidad del viento	3.2
37322	7	Sololá	710	Panajachel	8	Panajachel	5	Mayo	2023-05-17T00:00:00	2024-11-08T02:00:00	7	Dirección del viento	3.22
37323	7	Sololá	710	Panajachel	8	Panajachel	5	Mayo	2023-05-17T00:00:00	2024-11-08T02:00:00	1	Precipitación	0
37324	7	Sololá	710	Panajachel	8	Panajachel	5	Mayo	2023-05-17T00:00:00	2024-11-08T02:00:00	8	Radiación solar	0
37325	7	Sololá	710	Panajachel	8	Panajachel	5	Mayo	2023-05-17T00:00:00	2024-11-08T03:00:00	2	Temperatura media	16.8
37326	7	Sololá	710	Panajachel	8	Panajachel	5	Mayo	2023-05-17T00:00:00	2024-11-08T03:00:00	4	Temperatura máxima	17.5
37327	7	Sololá	710	Panajachel	8	Panajachel	5	Mayo	2023-05-17T00:00:00	2024-11-08T03:00:00	3	Temperatura mínima	16.7
37328	7	Sololá	710	Panajachel	8	Panajachel	5	Mayo	2023-05-17T00:00:00	2024-11-08T03:00:00	5	Humedad	84
37329	7	Sololá	710	Panajachel	8	Panajachel	5	Mayo	2023-05-17T00:00:00	2024-11-08T03:00:00	6	Velocidad del viento	3.2
37330	7	Sololá	710	Panajachel	8	Panajachel	5	Mayo	2023-05-17T00:00:00	2024-11-08T03:00:00	7	Dirección del viento	3.22
37331	7	Sololá	710	Panajachel	8	Panajachel	5	Mayo	2023-05-17T00:00:00	2024-11-08T03:00:00	1	Precipitación	0
37332	7	Sololá	710	Panajachel	8	Panajachel	5	Mayo	2023-05-17T00:00:00	2024-11-08T03:00:00	8	Radiación solar	0
37333	7	Sololá	710	Panajachel	8	Panajachel	5	Mayo	2023-05-17T00:00:00	2024-11-08T04:00:00	2	Temperatura media	16.6
37334	7	Sololá	710	Panajachel	8	Panajachel	5	Mayo	2023-05-17T00:00:00	2024-11-08T04:00:00	4	Temperatura máxima	17.3
37335	7	Sololá	710	Panajachel	8	Panajachel	5	Mayo	2023-05-17T00:00:00	2024-11-08T04:00:00	3	Temperatura mínima	16.6
37336	7	Sololá	710	Panajachel	8	Panajachel	5	Mayo	2023-05-17T00:00:00	2024-11-08T04:00:00	5	Humedad	84
37337	7	Sololá	710	Panajachel	8	Panajachel	5	Mayo	2023-05-17T00:00:00	2024-11-08T04:00:00	6	Velocidad del viento	3.2
37338	7	Sololá	710	Panajachel	8	Panajachel	5	Mayo	2023-05-17T00:00:00	2024-11-08T04:00:00	7	Dirección del viento	3.22
37339	7	Sololá	710	Panajachel	8	Panajachel	5	Mayo	2023-05-17T00:00:00	2024-11-08T04:00:00	1	Precipitación	0
37340	7	Sololá	710	Panajachel	8	Panajachel	5	Mayo	2023-05-17T00:00:00	2024-11-08T04:00:00	8	Radiación solar	0
37341	7	Sololá	710	Panajachel	8	Panajachel	5	Mayo	2023-05-17T00:00:00	2024-11-08T05:00:00	2	Temperatura media	16.1
37342	7	Sololá	710	Panajachel	8	Panajachel	5	Mayo	2023-05-17T00:00:00	2024-11-08T05:00:00	4	Temperatura máxima	16.7
37343	7	Sololá	710	Panajachel	8	Panajachel	5	Mayo	2023-05-17T00:00:00	2024-11-08T05:00:00	3	Temperatura mínima	16
37344	7	Sololá	710	Panajachel	8	Panajachel	5	Mayo	2023-05-17T00:00:00	2024-11-08T05:00:00	5	Humedad	85
37345	7	Sololá	710	Panajachel	8	Panajachel	5	Mayo	2023-05-17T00:00:00	2024-11-08T05:00:00	6	Velocidad del viento	3.2
37346	7	Sololá	710	Panajachel	8	Panajachel	5	Mayo	2023-05-17T00:00:00	2024-11-08T05:00:00	7	Dirección del viento	3.22
37347	7	Sololá	710	Panajachel	8	Panajachel	5	Mayo	2023-05-17T00:00:00	2024-11-08T05:00:00	1	Precipitación	0
37348	7	Sololá	710	Panajachel	8	Panajachel	5	Mayo	2023-05-17T00:00:00	2024-11-08T05:00:00	8	Radiación solar	0
37349	7	Sololá	710	Panajachel	8	Panajachel	5	Mayo	2023-05-17T00:00:00	2024-11-08T06:00:00	2	Temperatura media	16.3
37350	7	Sololá	710	Panajachel	8	Panajachel	5	Mayo	2023-05-17T00:00:00	2024-11-08T06:00:00	4	Temperatura máxima	16.6
37351	7	Sololá	710	Panajachel	8	Panajachel	5	Mayo	2023-05-17T00:00:00	2024-11-08T06:00:00	3	Temperatura mínima	16.1
37352	7	Sololá	710	Panajachel	8	Panajachel	5	Mayo	2023-05-17T00:00:00	2024-11-08T06:00:00	5	Humedad	83
37353	7	Sololá	710	Panajachel	8	Panajachel	5	Mayo	2023-05-17T00:00:00	2024-11-08T06:00:00	6	Velocidad del viento	4.8
37354	7	Sololá	710	Panajachel	8	Panajachel	5	Mayo	2023-05-17T00:00:00	2024-11-08T06:00:00	7	Dirección del viento	4.83
37355	7	Sololá	710	Panajachel	8	Panajachel	5	Mayo	2023-05-17T00:00:00	2024-11-08T06:00:00	1	Precipitación	0
37356	7	Sololá	710	Panajachel	8	Panajachel	5	Mayo	2023-05-17T00:00:00	2024-11-08T06:00:00	8	Radiación solar	4
37357	7	Sololá	710	Panajachel	8	Panajachel	5	Mayo	2023-05-17T00:00:00	2024-11-08T07:00:00	2	Temperatura media	18.1
37358	7	Sololá	710	Panajachel	8	Panajachel	5	Mayo	2023-05-17T00:00:00	2024-11-08T07:00:00	4	Temperatura máxima	18.1
37359	7	Sololá	710	Panajachel	8	Panajachel	5	Mayo	2023-05-17T00:00:00	2024-11-08T07:00:00	3	Temperatura mínima	16.2
37360	7	Sololá	710	Panajachel	8	Panajachel	5	Mayo	2023-05-17T00:00:00	2024-11-08T07:00:00	5	Humedad	79
37361	7	Sololá	710	Panajachel	8	Panajachel	5	Mayo	2023-05-17T00:00:00	2024-11-08T07:00:00	6	Velocidad del viento	3.2
37362	7	Sololá	710	Panajachel	8	Panajachel	5	Mayo	2023-05-17T00:00:00	2024-11-08T07:00:00	7	Dirección del viento	3.22
37363	7	Sololá	710	Panajachel	8	Panajachel	5	Mayo	2023-05-17T00:00:00	2024-11-08T07:00:00	1	Precipitación	0
37364	7	Sololá	710	Panajachel	8	Panajachel	5	Mayo	2023-05-17T00:00:00	2024-11-08T07:00:00	8	Radiación solar	110
37365	7	Sololá	710	Panajachel	8	Panajachel	5	Mayo	2023-05-17T00:00:00	2024-11-08T08:00:00	2	Temperatura media	21.1
37366	7	Sololá	710	Panajachel	8	Panajachel	5	Mayo	2023-05-17T00:00:00	2024-11-08T08:00:00	4	Temperatura máxima	21.1
37367	7	Sololá	710	Panajachel	8	Panajachel	5	Mayo	2023-05-17T00:00:00	2024-11-08T08:00:00	3	Temperatura mínima	18
37368	7	Sololá	710	Panajachel	8	Panajachel	5	Mayo	2023-05-17T00:00:00	2024-11-08T08:00:00	5	Humedad	76
37369	7	Sololá	710	Panajachel	8	Panajachel	5	Mayo	2023-05-17T00:00:00	2024-11-08T08:00:00	6	Velocidad del viento	0
37370	7	Sololá	710	Panajachel	8	Panajachel	5	Mayo	2023-05-17T00:00:00	2024-11-08T08:00:00	7	Dirección del viento	0
37371	7	Sololá	710	Panajachel	8	Panajachel	5	Mayo	2023-05-17T00:00:00	2024-11-08T08:00:00	1	Precipitación	0
37372	7	Sololá	710	Panajachel	8	Panajachel	5	Mayo	2023-05-17T00:00:00	2024-11-08T08:00:00	8	Radiación solar	342
37373	7	Sololá	710	Panajachel	8	Panajachel	5	Mayo	2023-05-17T00:00:00	2024-11-08T09:00:00	2	Temperatura media	20.8
37374	7	Sololá	710	Panajachel	8	Panajachel	5	Mayo	2023-05-17T00:00:00	2024-11-08T09:00:00	4	Temperatura máxima	21.2
37375	7	Sololá	710	Panajachel	8	Panajachel	5	Mayo	2023-05-17T00:00:00	2024-11-08T09:00:00	3	Temperatura mínima	20.1
37376	7	Sololá	710	Panajachel	8	Panajachel	5	Mayo	2023-05-17T00:00:00	2024-11-08T09:00:00	5	Humedad	81
37377	7	Sololá	710	Panajachel	8	Panajachel	5	Mayo	2023-05-17T00:00:00	2024-11-08T09:00:00	6	Velocidad del viento	3.2
37378	7	Sololá	710	Panajachel	8	Panajachel	5	Mayo	2023-05-17T00:00:00	2024-11-08T09:00:00	7	Dirección del viento	3.22
37379	7	Sololá	710	Panajachel	8	Panajachel	5	Mayo	2023-05-17T00:00:00	2024-11-08T09:00:00	1	Precipitación	0
37380	7	Sololá	710	Panajachel	8	Panajachel	5	Mayo	2023-05-17T00:00:00	2024-11-08T09:00:00	8	Radiación solar	560
37381	7	Sololá	710	Panajachel	8	Panajachel	5	Mayo	2023-05-17T00:00:00	2024-11-08T10:00:00	2	Temperatura media	21.4
37382	7	Sololá	710	Panajachel	8	Panajachel	5	Mayo	2023-05-17T00:00:00	2024-11-08T10:00:00	4	Temperatura máxima	21.6
37383	7	Sololá	710	Panajachel	8	Panajachel	5	Mayo	2023-05-17T00:00:00	2024-11-08T10:00:00	3	Temperatura mínima	20.7
37384	7	Sololá	710	Panajachel	8	Panajachel	5	Mayo	2023-05-17T00:00:00	2024-11-08T10:00:00	5	Humedad	75
37385	7	Sololá	710	Panajachel	8	Panajachel	5	Mayo	2023-05-17T00:00:00	2024-11-08T10:00:00	6	Velocidad del viento	3.2
37386	7	Sololá	710	Panajachel	8	Panajachel	5	Mayo	2023-05-17T00:00:00	2024-11-08T10:00:00	7	Dirección del viento	3.22
37387	7	Sololá	710	Panajachel	8	Panajachel	5	Mayo	2023-05-17T00:00:00	2024-11-08T10:00:00	1	Precipitación	0
37388	7	Sololá	710	Panajachel	8	Panajachel	5	Mayo	2023-05-17T00:00:00	2024-11-08T10:00:00	8	Radiación solar	750
37389	7	Sololá	710	Panajachel	8	Panajachel	5	Mayo	2023-05-17T00:00:00	2024-11-08T11:00:00	2	Temperatura media	23.8
37390	7	Sololá	710	Panajachel	8	Panajachel	5	Mayo	2023-05-17T00:00:00	2024-11-08T11:00:00	4	Temperatura máxima	23.8
37391	7	Sololá	710	Panajachel	8	Panajachel	5	Mayo	2023-05-17T00:00:00	2024-11-08T11:00:00	3	Temperatura mínima	21.3
37392	7	Sololá	710	Panajachel	8	Panajachel	5	Mayo	2023-05-17T00:00:00	2024-11-08T11:00:00	5	Humedad	65
37393	7	Sololá	710	Panajachel	8	Panajachel	5	Mayo	2023-05-17T00:00:00	2024-11-08T11:00:00	6	Velocidad del viento	3.2
37394	7	Sololá	710	Panajachel	8	Panajachel	5	Mayo	2023-05-17T00:00:00	2024-11-08T11:00:00	7	Dirección del viento	3.22
37395	7	Sololá	710	Panajachel	8	Panajachel	5	Mayo	2023-05-17T00:00:00	2024-11-08T11:00:00	1	Precipitación	0
37396	7	Sololá	710	Panajachel	8	Panajachel	5	Mayo	2023-05-17T00:00:00	2024-11-08T11:00:00	8	Radiación solar	873
37397	7	Sololá	710	Panajachel	8	Panajachel	5	Mayo	2023-05-17T00:00:00	2024-11-08T12:00:00	2	Temperatura media	23.8
37398	7	Sololá	710	Panajachel	8	Panajachel	5	Mayo	2023-05-17T00:00:00	2024-11-08T12:00:00	4	Temperatura máxima	24.3
37399	7	Sololá	710	Panajachel	8	Panajachel	5	Mayo	2023-05-17T00:00:00	2024-11-08T12:00:00	3	Temperatura mínima	23.5
37400	7	Sololá	710	Panajachel	8	Panajachel	5	Mayo	2023-05-17T00:00:00	2024-11-08T12:00:00	5	Humedad	65
37401	7	Sololá	710	Panajachel	8	Panajachel	5	Mayo	2023-05-17T00:00:00	2024-11-08T12:00:00	6	Velocidad del viento	3.2
37402	7	Sololá	710	Panajachel	8	Panajachel	5	Mayo	2023-05-17T00:00:00	2024-11-08T12:00:00	7	Dirección del viento	3.22
37403	7	Sololá	710	Panajachel	8	Panajachel	5	Mayo	2023-05-17T00:00:00	2024-11-08T12:00:00	1	Precipitación	0
37404	7	Sololá	710	Panajachel	8	Panajachel	5	Mayo	2023-05-17T00:00:00	2024-11-08T12:00:00	8	Radiación solar	934
37405	7	Sololá	710	Panajachel	8	Panajachel	5	Mayo	2023-05-17T00:00:00	2024-11-08T13:00:00	2	Temperatura media	25.3
37406	7	Sololá	710	Panajachel	8	Panajachel	5	Mayo	2023-05-17T00:00:00	2024-11-08T13:00:00	4	Temperatura máxima	25.3
37407	7	Sololá	710	Panajachel	8	Panajachel	5	Mayo	2023-05-17T00:00:00	2024-11-08T13:00:00	3	Temperatura mínima	23.8
37408	7	Sololá	710	Panajachel	8	Panajachel	5	Mayo	2023-05-17T00:00:00	2024-11-08T13:00:00	5	Humedad	65
37409	7	Sololá	710	Panajachel	8	Panajachel	5	Mayo	2023-05-17T00:00:00	2024-11-08T13:00:00	6	Velocidad del viento	3.2
37410	7	Sololá	710	Panajachel	8	Panajachel	5	Mayo	2023-05-17T00:00:00	2024-11-08T13:00:00	7	Dirección del viento	3.22
37411	7	Sololá	710	Panajachel	8	Panajachel	5	Mayo	2023-05-17T00:00:00	2024-11-08T13:00:00	1	Precipitación	0
37412	7	Sololá	710	Panajachel	8	Panajachel	5	Mayo	2023-05-17T00:00:00	2024-11-08T13:00:00	8	Radiación solar	922
37413	7	Sololá	710	Panajachel	8	Panajachel	5	Mayo	2023-05-17T00:00:00	2024-11-08T14:00:00	2	Temperatura media	24.2
37414	7	Sololá	710	Panajachel	8	Panajachel	5	Mayo	2023-05-17T00:00:00	2024-11-08T14:00:00	4	Temperatura máxima	25.6
37415	7	Sololá	710	Panajachel	8	Panajachel	5	Mayo	2023-05-17T00:00:00	2024-11-08T14:00:00	3	Temperatura mínima	23.5
37416	7	Sololá	710	Panajachel	8	Panajachel	5	Mayo	2023-05-17T00:00:00	2024-11-08T14:00:00	5	Humedad	79
37417	7	Sololá	710	Panajachel	8	Panajachel	5	Mayo	2023-05-17T00:00:00	2024-11-08T14:00:00	6	Velocidad del viento	6.4
37418	7	Sololá	710	Panajachel	8	Panajachel	5	Mayo	2023-05-17T00:00:00	2024-11-08T14:00:00	7	Dirección del viento	6.44
37419	7	Sololá	710	Panajachel	8	Panajachel	5	Mayo	2023-05-17T00:00:00	2024-11-08T14:00:00	1	Precipitación	0
37420	7	Sololá	710	Panajachel	8	Panajachel	5	Mayo	2023-05-17T00:00:00	2024-11-08T14:00:00	8	Radiación solar	823
37421	7	Sololá	710	Panajachel	8	Panajachel	5	Mayo	2023-05-17T00:00:00	2024-11-08T15:00:00	2	Temperatura media	22.8
37422	7	Sololá	710	Panajachel	8	Panajachel	5	Mayo	2023-05-17T00:00:00	2024-11-08T15:00:00	4	Temperatura máxima	24.2
37423	7	Sololá	710	Panajachel	8	Panajachel	5	Mayo	2023-05-17T00:00:00	2024-11-08T15:00:00	3	Temperatura mínima	22.8
37424	7	Sololá	710	Panajachel	8	Panajachel	5	Mayo	2023-05-17T00:00:00	2024-11-08T15:00:00	5	Humedad	83
37425	7	Sololá	710	Panajachel	8	Panajachel	5	Mayo	2023-05-17T00:00:00	2024-11-08T15:00:00	6	Velocidad del viento	6.4
37426	7	Sololá	710	Panajachel	8	Panajachel	5	Mayo	2023-05-17T00:00:00	2024-11-08T15:00:00	7	Dirección del viento	6.44
37427	7	Sololá	710	Panajachel	8	Panajachel	5	Mayo	2023-05-17T00:00:00	2024-11-08T15:00:00	1	Precipitación	0
37428	7	Sololá	710	Panajachel	8	Panajachel	5	Mayo	2023-05-17T00:00:00	2024-11-08T15:00:00	8	Radiación solar	335
37429	7	Sololá	710	Panajachel	8	Panajachel	5	Mayo	2023-05-17T00:00:00	2024-11-08T16:00:00	2	Temperatura media	22.7
37430	7	Sololá	710	Panajachel	8	Panajachel	5	Mayo	2023-05-17T00:00:00	2024-11-08T16:00:00	4	Temperatura máxima	23
37431	7	Sololá	710	Panajachel	8	Panajachel	5	Mayo	2023-05-17T00:00:00	2024-11-08T16:00:00	3	Temperatura mínima	22.4
37432	7	Sololá	710	Panajachel	8	Panajachel	5	Mayo	2023-05-17T00:00:00	2024-11-08T16:00:00	5	Humedad	84
37433	7	Sololá	710	Panajachel	8	Panajachel	5	Mayo	2023-05-17T00:00:00	2024-11-08T16:00:00	6	Velocidad del viento	4.8
37434	7	Sololá	710	Panajachel	8	Panajachel	5	Mayo	2023-05-17T00:00:00	2024-11-08T16:00:00	7	Dirección del viento	4.83
37435	7	Sololá	710	Panajachel	8	Panajachel	5	Mayo	2023-05-17T00:00:00	2024-11-08T16:00:00	1	Precipitación	0
37436	7	Sololá	710	Panajachel	8	Panajachel	5	Mayo	2023-05-17T00:00:00	2024-11-08T16:00:00	8	Radiación solar	183
37437	7	Sololá	710	Panajachel	8	Panajachel	5	Mayo	2023-05-17T00:00:00	2024-11-08T17:00:00	2	Temperatura media	21.7
37438	7	Sololá	710	Panajachel	8	Panajachel	5	Mayo	2023-05-17T00:00:00	2024-11-08T17:00:00	4	Temperatura máxima	22.7
37439	7	Sololá	710	Panajachel	8	Panajachel	5	Mayo	2023-05-17T00:00:00	2024-11-08T17:00:00	3	Temperatura mínima	21.6
37440	7	Sololá	710	Panajachel	8	Panajachel	5	Mayo	2023-05-17T00:00:00	2024-11-08T17:00:00	5	Humedad	83
37441	7	Sololá	710	Panajachel	8	Panajachel	5	Mayo	2023-05-17T00:00:00	2024-11-08T17:00:00	6	Velocidad del viento	3.2
37442	7	Sololá	710	Panajachel	8	Panajachel	5	Mayo	2023-05-17T00:00:00	2024-11-08T17:00:00	7	Dirección del viento	3.22
37443	7	Sololá	710	Panajachel	8	Panajachel	5	Mayo	2023-05-17T00:00:00	2024-11-08T17:00:00	1	Precipitación	0
37444	7	Sololá	710	Panajachel	8	Panajachel	5	Mayo	2023-05-17T00:00:00	2024-11-08T17:00:00	8	Radiación solar	37
37445	7	Sololá	710	Panajachel	8	Panajachel	5	Mayo	2023-05-17T00:00:00	2024-11-08T18:00:00	2	Temperatura media	20.8
37446	7	Sololá	710	Panajachel	8	Panajachel	5	Mayo	2023-05-17T00:00:00	2024-11-08T18:00:00	4	Temperatura máxima	21.7
37447	7	Sololá	710	Panajachel	8	Panajachel	5	Mayo	2023-05-17T00:00:00	2024-11-08T18:00:00	3	Temperatura mínima	20.8
37448	7	Sololá	710	Panajachel	8	Panajachel	5	Mayo	2023-05-17T00:00:00	2024-11-08T18:00:00	5	Humedad	87
37449	7	Sololá	710	Panajachel	8	Panajachel	5	Mayo	2023-05-17T00:00:00	2024-11-08T18:00:00	6	Velocidad del viento	1.6
37450	7	Sololá	710	Panajachel	8	Panajachel	5	Mayo	2023-05-17T00:00:00	2024-11-08T18:00:00	7	Dirección del viento	1.61
37451	7	Sololá	710	Panajachel	8	Panajachel	5	Mayo	2023-05-17T00:00:00	2024-11-08T18:00:00	1	Precipitación	0.2
37452	7	Sololá	710	Panajachel	8	Panajachel	5	Mayo	2023-05-17T00:00:00	2024-11-08T18:00:00	8	Radiación solar	39
37453	7	Sololá	710	Panajachel	8	Panajachel	5	Mayo	2023-05-17T00:00:00	2024-11-08T19:00:00	2	Temperatura media	19.8
37454	7	Sololá	710	Panajachel	8	Panajachel	5	Mayo	2023-05-17T00:00:00	2024-11-08T19:00:00	4	Temperatura máxima	20.9
37455	7	Sololá	710	Panajachel	8	Panajachel	5	Mayo	2023-05-17T00:00:00	2024-11-08T19:00:00	3	Temperatura mínima	19.7
37456	7	Sololá	710	Panajachel	8	Panajachel	5	Mayo	2023-05-17T00:00:00	2024-11-08T19:00:00	5	Humedad	94
37457	7	Sololá	710	Panajachel	8	Panajachel	5	Mayo	2023-05-17T00:00:00	2024-11-08T19:00:00	6	Velocidad del viento	1.6
37458	7	Sololá	710	Panajachel	8	Panajachel	5	Mayo	2023-05-17T00:00:00	2024-11-08T19:00:00	7	Dirección del viento	1.61
37459	7	Sololá	710	Panajachel	8	Panajachel	5	Mayo	2023-05-17T00:00:00	2024-11-08T19:00:00	1	Precipitación	0.8
37460	7	Sololá	710	Panajachel	8	Panajachel	5	Mayo	2023-05-17T00:00:00	2024-11-08T19:00:00	8	Radiación solar	0
37461	7	Sololá	710	Panajachel	8	Panajachel	5	Mayo	2023-05-17T00:00:00	2024-11-08T20:00:00	2	Temperatura media	19
37462	7	Sololá	710	Panajachel	8	Panajachel	5	Mayo	2023-05-17T00:00:00	2024-11-08T20:00:00	4	Temperatura máxima	19.8
37463	7	Sololá	710	Panajachel	8	Panajachel	5	Mayo	2023-05-17T00:00:00	2024-11-08T20:00:00	3	Temperatura mínima	18.9
37464	7	Sololá	710	Panajachel	8	Panajachel	5	Mayo	2023-05-17T00:00:00	2024-11-08T20:00:00	5	Humedad	94
37465	7	Sololá	710	Panajachel	8	Panajachel	5	Mayo	2023-05-17T00:00:00	2024-11-08T20:00:00	6	Velocidad del viento	1.6
37466	7	Sololá	710	Panajachel	8	Panajachel	5	Mayo	2023-05-17T00:00:00	2024-11-08T20:00:00	7	Dirección del viento	1.61
37467	7	Sololá	710	Panajachel	8	Panajachel	5	Mayo	2023-05-17T00:00:00	2024-11-08T20:00:00	1	Precipitación	0.2
37468	7	Sololá	710	Panajachel	8	Panajachel	5	Mayo	2023-05-17T00:00:00	2024-11-08T20:00:00	8	Radiación solar	0
37469	7	Sololá	710	Panajachel	8	Panajachel	5	Mayo	2023-05-17T00:00:00	2024-11-08T21:00:00	2	Temperatura media	18.7
37470	7	Sololá	710	Panajachel	8	Panajachel	5	Mayo	2023-05-17T00:00:00	2024-11-08T21:00:00	4	Temperatura máxima	19.1
37471	7	Sololá	710	Panajachel	8	Panajachel	5	Mayo	2023-05-17T00:00:00	2024-11-08T21:00:00	3	Temperatura mínima	18.6
37472	7	Sololá	710	Panajachel	8	Panajachel	5	Mayo	2023-05-17T00:00:00	2024-11-08T21:00:00	5	Humedad	92
37473	7	Sololá	710	Panajachel	8	Panajachel	5	Mayo	2023-05-17T00:00:00	2024-11-08T21:00:00	6	Velocidad del viento	3.2
37474	7	Sololá	710	Panajachel	8	Panajachel	5	Mayo	2023-05-17T00:00:00	2024-11-08T21:00:00	7	Dirección del viento	3.22
37475	7	Sololá	710	Panajachel	8	Panajachel	5	Mayo	2023-05-17T00:00:00	2024-11-08T21:00:00	1	Precipitación	0
37476	7	Sololá	710	Panajachel	8	Panajachel	5	Mayo	2023-05-17T00:00:00	2024-11-08T21:00:00	8	Radiación solar	0
37477	7	Sololá	710	Panajachel	8	Panajachel	5	Mayo	2023-05-17T00:00:00	2024-11-08T22:00:00	2	Temperatura media	18.6
37478	7	Sololá	710	Panajachel	8	Panajachel	5	Mayo	2023-05-17T00:00:00	2024-11-08T22:00:00	4	Temperatura máxima	19.2
37479	7	Sololá	710	Panajachel	8	Panajachel	5	Mayo	2023-05-17T00:00:00	2024-11-08T22:00:00	3	Temperatura mínima	18.6
37480	7	Sololá	710	Panajachel	8	Panajachel	5	Mayo	2023-05-17T00:00:00	2024-11-08T22:00:00	5	Humedad	92
37481	7	Sololá	710	Panajachel	8	Panajachel	5	Mayo	2023-05-17T00:00:00	2024-11-08T22:00:00	6	Velocidad del viento	3.2
37482	7	Sololá	710	Panajachel	8	Panajachel	5	Mayo	2023-05-17T00:00:00	2024-11-08T22:00:00	7	Dirección del viento	3.22
37483	7	Sololá	710	Panajachel	8	Panajachel	5	Mayo	2023-05-17T00:00:00	2024-11-08T22:00:00	1	Precipitación	0
37484	7	Sololá	710	Panajachel	8	Panajachel	5	Mayo	2023-05-17T00:00:00	2024-11-08T22:00:00	8	Radiación solar	0
37485	7	Sololá	710	Panajachel	8	Panajachel	5	Mayo	2023-05-17T00:00:00	2024-11-08T23:00:00	2	Temperatura media	18.4
37486	7	Sololá	710	Panajachel	8	Panajachel	5	Mayo	2023-05-17T00:00:00	2024-11-08T23:00:00	4	Temperatura máxima	18.6
37487	7	Sololá	710	Panajachel	8	Panajachel	5	Mayo	2023-05-17T00:00:00	2024-11-08T23:00:00	3	Temperatura mínima	18.2
37488	7	Sololá	710	Panajachel	8	Panajachel	5	Mayo	2023-05-17T00:00:00	2024-11-08T23:00:00	5	Humedad	92
37489	7	Sololá	710	Panajachel	8	Panajachel	5	Mayo	2023-05-17T00:00:00	2024-11-08T23:00:00	6	Velocidad del viento	3.2
37490	7	Sololá	710	Panajachel	8	Panajachel	5	Mayo	2023-05-17T00:00:00	2024-11-08T23:00:00	7	Dirección del viento	3.22
37491	7	Sololá	710	Panajachel	8	Panajachel	5	Mayo	2023-05-17T00:00:00	2024-11-08T23:00:00	1	Precipitación	0
37492	7	Sololá	710	Panajachel	8	Panajachel	5	Mayo	2023-05-17T00:00:00	2024-11-08T23:00:00	8	Radiación solar	0
37493	7	Sololá	710	Panajachel	8	Panajachel	5	Mayo	2023-05-18T00:00:00	2024-11-08T00:00:00	2	Temperatura media	18.2
37494	7	Sololá	710	Panajachel	8	Panajachel	5	Mayo	2023-05-18T00:00:00	2024-11-08T00:00:00	4	Temperatura máxima	18.6
37495	7	Sololá	710	Panajachel	8	Panajachel	5	Mayo	2023-05-18T00:00:00	2024-11-08T00:00:00	3	Temperatura mínima	18.2
37496	7	Sololá	710	Panajachel	8	Panajachel	5	Mayo	2023-05-18T00:00:00	2024-11-08T00:00:00	5	Humedad	92
37497	7	Sololá	710	Panajachel	8	Panajachel	5	Mayo	2023-05-18T00:00:00	2024-11-08T00:00:00	6	Velocidad del viento	3.2
37498	7	Sololá	710	Panajachel	8	Panajachel	5	Mayo	2023-05-18T00:00:00	2024-11-08T00:00:00	7	Dirección del viento	3.22
37499	7	Sololá	710	Panajachel	8	Panajachel	5	Mayo	2023-05-18T00:00:00	2024-11-08T00:00:00	1	Precipitación	0
37500	7	Sololá	710	Panajachel	8	Panajachel	5	Mayo	2023-05-18T00:00:00	2024-11-08T00:00:00	8	Radiación solar	0
37501	7	Sololá	710	Panajachel	8	Panajachel	5	Mayo	2023-05-18T00:00:00	2024-11-08T01:00:00	2	Temperatura media	17.6
37502	7	Sololá	710	Panajachel	8	Panajachel	5	Mayo	2023-05-18T00:00:00	2024-11-08T01:00:00	4	Temperatura máxima	18.2
37503	7	Sololá	710	Panajachel	8	Panajachel	5	Mayo	2023-05-18T00:00:00	2024-11-08T01:00:00	3	Temperatura mínima	17.6
37504	7	Sololá	710	Panajachel	8	Panajachel	5	Mayo	2023-05-18T00:00:00	2024-11-08T01:00:00	5	Humedad	91
37505	7	Sololá	710	Panajachel	8	Panajachel	5	Mayo	2023-05-18T00:00:00	2024-11-08T01:00:00	6	Velocidad del viento	3.2
37506	7	Sololá	710	Panajachel	8	Panajachel	5	Mayo	2023-05-18T00:00:00	2024-11-08T01:00:00	7	Dirección del viento	3.22
37507	7	Sololá	710	Panajachel	8	Panajachel	5	Mayo	2023-05-18T00:00:00	2024-11-08T01:00:00	1	Precipitación	0
37508	7	Sololá	710	Panajachel	8	Panajachel	5	Mayo	2023-05-18T00:00:00	2024-11-08T01:00:00	8	Radiación solar	0
37509	7	Sololá	710	Panajachel	8	Panajachel	5	Mayo	2023-05-18T00:00:00	2024-11-08T02:00:00	2	Temperatura media	17.2
37510	7	Sololá	710	Panajachel	8	Panajachel	5	Mayo	2023-05-18T00:00:00	2024-11-08T02:00:00	4	Temperatura máxima	17.6
37511	7	Sololá	710	Panajachel	8	Panajachel	5	Mayo	2023-05-18T00:00:00	2024-11-08T02:00:00	3	Temperatura mínima	17.2
37512	7	Sololá	710	Panajachel	8	Panajachel	5	Mayo	2023-05-18T00:00:00	2024-11-08T02:00:00	5	Humedad	91
37513	7	Sololá	710	Panajachel	8	Panajachel	5	Mayo	2023-05-18T00:00:00	2024-11-08T02:00:00	6	Velocidad del viento	3.2
37514	7	Sololá	710	Panajachel	8	Panajachel	5	Mayo	2023-05-18T00:00:00	2024-11-08T02:00:00	7	Dirección del viento	3.22
37515	7	Sololá	710	Panajachel	8	Panajachel	5	Mayo	2023-05-18T00:00:00	2024-11-08T02:00:00	1	Precipitación	0
37516	7	Sololá	710	Panajachel	8	Panajachel	5	Mayo	2023-05-18T00:00:00	2024-11-08T02:00:00	8	Radiación solar	0
37517	7	Sololá	710	Panajachel	8	Panajachel	5	Mayo	2023-05-18T00:00:00	2024-11-08T03:00:00	2	Temperatura media	16.9
37518	7	Sololá	710	Panajachel	8	Panajachel	5	Mayo	2023-05-18T00:00:00	2024-11-08T03:00:00	4	Temperatura máxima	17.3
37519	7	Sololá	710	Panajachel	8	Panajachel	5	Mayo	2023-05-18T00:00:00	2024-11-08T03:00:00	3	Temperatura mínima	16.9
37520	7	Sololá	710	Panajachel	8	Panajachel	5	Mayo	2023-05-18T00:00:00	2024-11-08T03:00:00	5	Humedad	90
37521	7	Sololá	710	Panajachel	8	Panajachel	5	Mayo	2023-05-18T00:00:00	2024-11-08T03:00:00	6	Velocidad del viento	4.8
37522	7	Sololá	710	Panajachel	8	Panajachel	5	Mayo	2023-05-18T00:00:00	2024-11-08T03:00:00	7	Dirección del viento	4.83
37523	7	Sololá	710	Panajachel	8	Panajachel	5	Mayo	2023-05-18T00:00:00	2024-11-08T03:00:00	1	Precipitación	0
37524	7	Sololá	710	Panajachel	8	Panajachel	5	Mayo	2023-05-18T00:00:00	2024-11-08T03:00:00	8	Radiación solar	0
37525	7	Sololá	710	Panajachel	8	Panajachel	5	Mayo	2023-05-18T00:00:00	2024-11-08T04:00:00	2	Temperatura media	17.3
37526	7	Sololá	710	Panajachel	8	Panajachel	5	Mayo	2023-05-18T00:00:00	2024-11-08T04:00:00	4	Temperatura máxima	17.4
37527	7	Sololá	710	Panajachel	8	Panajachel	5	Mayo	2023-05-18T00:00:00	2024-11-08T04:00:00	3	Temperatura mínima	16.8
37528	7	Sololá	710	Panajachel	8	Panajachel	5	Mayo	2023-05-18T00:00:00	2024-11-08T04:00:00	5	Humedad	88
37529	7	Sololá	710	Panajachel	8	Panajachel	5	Mayo	2023-05-18T00:00:00	2024-11-08T04:00:00	6	Velocidad del viento	3.2
37530	7	Sololá	710	Panajachel	8	Panajachel	5	Mayo	2023-05-18T00:00:00	2024-11-08T04:00:00	7	Dirección del viento	3.22
37531	7	Sololá	710	Panajachel	8	Panajachel	5	Mayo	2023-05-18T00:00:00	2024-11-08T04:00:00	1	Precipitación	0
37532	7	Sololá	710	Panajachel	8	Panajachel	5	Mayo	2023-05-18T00:00:00	2024-11-08T04:00:00	8	Radiación solar	0
37533	7	Sololá	710	Panajachel	8	Panajachel	5	Mayo	2023-05-18T00:00:00	2024-11-08T05:00:00	2	Temperatura media	17.5
37534	7	Sololá	710	Panajachel	8	Panajachel	5	Mayo	2023-05-18T00:00:00	2024-11-08T05:00:00	4	Temperatura máxima	17.6
37535	7	Sololá	710	Panajachel	8	Panajachel	5	Mayo	2023-05-18T00:00:00	2024-11-08T05:00:00	3	Temperatura mínima	16.6
37536	7	Sololá	710	Panajachel	8	Panajachel	5	Mayo	2023-05-18T00:00:00	2024-11-08T05:00:00	5	Humedad	88
37537	7	Sololá	710	Panajachel	8	Panajachel	5	Mayo	2023-05-18T00:00:00	2024-11-08T05:00:00	6	Velocidad del viento	3.2
37538	7	Sololá	710	Panajachel	8	Panajachel	5	Mayo	2023-05-18T00:00:00	2024-11-08T05:00:00	7	Dirección del viento	3.22
37539	7	Sololá	710	Panajachel	8	Panajachel	5	Mayo	2023-05-18T00:00:00	2024-11-08T05:00:00	1	Precipitación	0
37540	7	Sololá	710	Panajachel	8	Panajachel	5	Mayo	2023-05-18T00:00:00	2024-11-08T05:00:00	8	Radiación solar	0
37541	7	Sololá	710	Panajachel	8	Panajachel	5	Mayo	2023-05-18T00:00:00	2024-11-08T06:00:00	2	Temperatura media	16.5
37542	7	Sololá	710	Panajachel	8	Panajachel	5	Mayo	2023-05-18T00:00:00	2024-11-08T06:00:00	4	Temperatura máxima	17.5
37543	7	Sololá	710	Panajachel	8	Panajachel	5	Mayo	2023-05-18T00:00:00	2024-11-08T06:00:00	3	Temperatura mínima	16.4
37544	7	Sololá	710	Panajachel	8	Panajachel	5	Mayo	2023-05-18T00:00:00	2024-11-08T06:00:00	5	Humedad	90
37545	7	Sololá	710	Panajachel	8	Panajachel	5	Mayo	2023-05-18T00:00:00	2024-11-08T06:00:00	6	Velocidad del viento	1.6
37546	7	Sololá	710	Panajachel	8	Panajachel	5	Mayo	2023-05-18T00:00:00	2024-11-08T06:00:00	7	Dirección del viento	1.61
37547	7	Sololá	710	Panajachel	8	Panajachel	5	Mayo	2023-05-18T00:00:00	2024-11-08T06:00:00	1	Precipitación	0
37548	7	Sololá	710	Panajachel	8	Panajachel	5	Mayo	2023-05-18T00:00:00	2024-11-08T06:00:00	8	Radiación solar	4
37549	7	Sololá	710	Panajachel	8	Panajachel	5	Mayo	2023-05-18T00:00:00	2024-11-08T07:00:00	2	Temperatura media	18.9
37550	7	Sololá	710	Panajachel	8	Panajachel	5	Mayo	2023-05-18T00:00:00	2024-11-08T07:00:00	4	Temperatura máxima	18.9
37551	7	Sololá	710	Panajachel	8	Panajachel	5	Mayo	2023-05-18T00:00:00	2024-11-08T07:00:00	3	Temperatura mínima	16.4
37552	7	Sololá	710	Panajachel	8	Panajachel	5	Mayo	2023-05-18T00:00:00	2024-11-08T07:00:00	5	Humedad	82
37553	7	Sololá	710	Panajachel	8	Panajachel	5	Mayo	2023-05-18T00:00:00	2024-11-08T07:00:00	6	Velocidad del viento	3.2
37554	7	Sololá	710	Panajachel	8	Panajachel	5	Mayo	2023-05-18T00:00:00	2024-11-08T07:00:00	7	Dirección del viento	3.22
37555	7	Sololá	710	Panajachel	8	Panajachel	5	Mayo	2023-05-18T00:00:00	2024-11-08T07:00:00	1	Precipitación	0
37556	7	Sololá	710	Panajachel	8	Panajachel	5	Mayo	2023-05-18T00:00:00	2024-11-08T07:00:00	8	Radiación solar	104
37557	7	Sololá	710	Panajachel	8	Panajachel	5	Mayo	2023-05-18T00:00:00	2024-11-08T08:00:00	2	Temperatura media	21.1
37558	7	Sololá	710	Panajachel	8	Panajachel	5	Mayo	2023-05-18T00:00:00	2024-11-08T08:00:00	4	Temperatura máxima	21.2
37559	7	Sololá	710	Panajachel	8	Panajachel	5	Mayo	2023-05-18T00:00:00	2024-11-08T08:00:00	3	Temperatura mínima	18.8
37560	7	Sololá	710	Panajachel	8	Panajachel	5	Mayo	2023-05-18T00:00:00	2024-11-08T08:00:00	5	Humedad	77
37561	7	Sololá	710	Panajachel	8	Panajachel	5	Mayo	2023-05-18T00:00:00	2024-11-08T08:00:00	6	Velocidad del viento	1.6
37562	7	Sololá	710	Panajachel	8	Panajachel	5	Mayo	2023-05-18T00:00:00	2024-11-08T08:00:00	7	Dirección del viento	1.61
37563	7	Sololá	710	Panajachel	8	Panajachel	5	Mayo	2023-05-18T00:00:00	2024-11-08T08:00:00	1	Precipitación	0
37564	7	Sololá	710	Panajachel	8	Panajachel	5	Mayo	2023-05-18T00:00:00	2024-11-08T08:00:00	8	Radiación solar	254
37565	7	Sololá	710	Panajachel	8	Panajachel	5	Mayo	2023-05-18T00:00:00	2024-11-08T09:00:00	2	Temperatura media	21.7
37566	7	Sololá	710	Panajachel	8	Panajachel	5	Mayo	2023-05-18T00:00:00	2024-11-08T09:00:00	4	Temperatura máxima	21.7
37567	7	Sololá	710	Panajachel	8	Panajachel	5	Mayo	2023-05-18T00:00:00	2024-11-08T09:00:00	3	Temperatura mínima	21.2
37568	7	Sololá	710	Panajachel	8	Panajachel	5	Mayo	2023-05-18T00:00:00	2024-11-08T09:00:00	5	Humedad	80
37569	7	Sololá	710	Panajachel	8	Panajachel	5	Mayo	2023-05-18T00:00:00	2024-11-08T09:00:00	6	Velocidad del viento	1.6
37570	7	Sololá	710	Panajachel	8	Panajachel	5	Mayo	2023-05-18T00:00:00	2024-11-08T09:00:00	7	Dirección del viento	1.61
37571	7	Sololá	710	Panajachel	8	Panajachel	5	Mayo	2023-05-18T00:00:00	2024-11-08T09:00:00	1	Precipitación	0
37572	7	Sololá	710	Panajachel	8	Panajachel	5	Mayo	2023-05-18T00:00:00	2024-11-08T09:00:00	8	Radiación solar	409
37573	7	Sololá	710	Panajachel	8	Panajachel	5	Mayo	2023-05-18T00:00:00	2024-11-08T10:00:00	2	Temperatura media	22.4
37574	7	Sololá	710	Panajachel	8	Panajachel	5	Mayo	2023-05-18T00:00:00	2024-11-08T10:00:00	4	Temperatura máxima	22.7
37575	7	Sololá	710	Panajachel	8	Panajachel	5	Mayo	2023-05-18T00:00:00	2024-11-08T10:00:00	3	Temperatura mínima	21.7
37576	7	Sololá	710	Panajachel	8	Panajachel	5	Mayo	2023-05-18T00:00:00	2024-11-08T10:00:00	5	Humedad	81
37577	7	Sololá	710	Panajachel	8	Panajachel	5	Mayo	2023-05-18T00:00:00	2024-11-08T10:00:00	6	Velocidad del viento	3.2
37578	7	Sololá	710	Panajachel	8	Panajachel	5	Mayo	2023-05-18T00:00:00	2024-11-08T10:00:00	7	Dirección del viento	3.22
37579	7	Sololá	710	Panajachel	8	Panajachel	5	Mayo	2023-05-18T00:00:00	2024-11-08T10:00:00	1	Precipitación	0
37580	7	Sololá	710	Panajachel	8	Panajachel	5	Mayo	2023-05-18T00:00:00	2024-11-08T10:00:00	8	Radiación solar	674
37581	7	Sololá	710	Panajachel	8	Panajachel	5	Mayo	2023-05-18T00:00:00	2024-11-08T11:00:00	2	Temperatura media	23.8
37582	7	Sololá	710	Panajachel	8	Panajachel	5	Mayo	2023-05-18T00:00:00	2024-11-08T11:00:00	4	Temperatura máxima	24.3
37583	7	Sololá	710	Panajachel	8	Panajachel	5	Mayo	2023-05-18T00:00:00	2024-11-08T11:00:00	3	Temperatura mínima	22.4
37584	7	Sololá	710	Panajachel	8	Panajachel	5	Mayo	2023-05-18T00:00:00	2024-11-08T11:00:00	5	Humedad	69
37585	7	Sololá	710	Panajachel	8	Panajachel	5	Mayo	2023-05-18T00:00:00	2024-11-08T11:00:00	6	Velocidad del viento	3.2
37586	7	Sololá	710	Panajachel	8	Panajachel	5	Mayo	2023-05-18T00:00:00	2024-11-08T11:00:00	7	Dirección del viento	3.22
37587	7	Sololá	710	Panajachel	8	Panajachel	5	Mayo	2023-05-18T00:00:00	2024-11-08T11:00:00	1	Precipitación	0
37588	7	Sololá	710	Panajachel	8	Panajachel	5	Mayo	2023-05-18T00:00:00	2024-11-08T11:00:00	8	Radiación solar	835
37589	7	Sololá	710	Panajachel	8	Panajachel	5	Mayo	2023-05-18T00:00:00	2024-11-08T12:00:00	2	Temperatura media	25.6
37590	7	Sololá	710	Panajachel	8	Panajachel	5	Mayo	2023-05-18T00:00:00	2024-11-08T12:00:00	4	Temperatura máxima	25.7
37591	7	Sololá	710	Panajachel	8	Panajachel	5	Mayo	2023-05-18T00:00:00	2024-11-08T12:00:00	3	Temperatura mínima	23.6
37592	7	Sololá	710	Panajachel	8	Panajachel	5	Mayo	2023-05-18T00:00:00	2024-11-08T12:00:00	5	Humedad	66
37593	7	Sololá	710	Panajachel	8	Panajachel	5	Mayo	2023-05-18T00:00:00	2024-11-08T12:00:00	6	Velocidad del viento	3.2
37594	7	Sololá	710	Panajachel	8	Panajachel	5	Mayo	2023-05-18T00:00:00	2024-11-08T12:00:00	7	Dirección del viento	3.22
37595	7	Sololá	710	Panajachel	8	Panajachel	5	Mayo	2023-05-18T00:00:00	2024-11-08T12:00:00	1	Precipitación	0
37596	7	Sololá	710	Panajachel	8	Panajachel	5	Mayo	2023-05-18T00:00:00	2024-11-08T12:00:00	8	Radiación solar	919
37597	7	Sololá	710	Panajachel	8	Panajachel	5	Mayo	2023-05-18T00:00:00	2024-11-08T13:00:00	2	Temperatura media	25
37598	7	Sololá	710	Panajachel	8	Panajachel	5	Mayo	2023-05-18T00:00:00	2024-11-08T13:00:00	4	Temperatura máxima	25.7
37599	7	Sololá	710	Panajachel	8	Panajachel	5	Mayo	2023-05-18T00:00:00	2024-11-08T13:00:00	3	Temperatura mínima	24.7
37600	7	Sololá	710	Panajachel	8	Panajachel	5	Mayo	2023-05-18T00:00:00	2024-11-08T13:00:00	5	Humedad	72
37601	7	Sololá	710	Panajachel	8	Panajachel	5	Mayo	2023-05-18T00:00:00	2024-11-08T13:00:00	6	Velocidad del viento	4.8
37602	7	Sololá	710	Panajachel	8	Panajachel	5	Mayo	2023-05-18T00:00:00	2024-11-08T13:00:00	7	Dirección del viento	4.83
37603	7	Sololá	710	Panajachel	8	Panajachel	5	Mayo	2023-05-18T00:00:00	2024-11-08T13:00:00	1	Precipitación	0
37604	7	Sololá	710	Panajachel	8	Panajachel	5	Mayo	2023-05-18T00:00:00	2024-11-08T13:00:00	8	Radiación solar	891
37605	7	Sololá	710	Panajachel	8	Panajachel	5	Mayo	2023-05-18T00:00:00	2024-11-08T14:00:00	2	Temperatura media	24.5
37606	7	Sololá	710	Panajachel	8	Panajachel	5	Mayo	2023-05-18T00:00:00	2024-11-08T14:00:00	4	Temperatura máxima	25.6
37607	7	Sololá	710	Panajachel	8	Panajachel	5	Mayo	2023-05-18T00:00:00	2024-11-08T14:00:00	3	Temperatura mínima	24.4
37608	7	Sololá	710	Panajachel	8	Panajachel	5	Mayo	2023-05-18T00:00:00	2024-11-08T14:00:00	5	Humedad	74
37609	7	Sololá	710	Panajachel	8	Panajachel	5	Mayo	2023-05-18T00:00:00	2024-11-08T14:00:00	6	Velocidad del viento	4.8
37610	7	Sololá	710	Panajachel	8	Panajachel	5	Mayo	2023-05-18T00:00:00	2024-11-08T14:00:00	7	Dirección del viento	4.83
37611	7	Sololá	710	Panajachel	8	Panajachel	5	Mayo	2023-05-18T00:00:00	2024-11-08T14:00:00	1	Precipitación	0
37612	7	Sololá	710	Panajachel	8	Panajachel	5	Mayo	2023-05-18T00:00:00	2024-11-08T14:00:00	8	Radiación solar	730
37613	7	Sololá	710	Panajachel	8	Panajachel	5	Mayo	2023-05-18T00:00:00	2024-11-08T15:00:00	2	Temperatura media	24.2
37614	7	Sololá	710	Panajachel	8	Panajachel	5	Mayo	2023-05-18T00:00:00	2024-11-08T15:00:00	4	Temperatura máxima	24.6
37615	7	Sololá	710	Panajachel	8	Panajachel	5	Mayo	2023-05-18T00:00:00	2024-11-08T15:00:00	3	Temperatura mínima	23.9
37616	7	Sololá	710	Panajachel	8	Panajachel	5	Mayo	2023-05-18T00:00:00	2024-11-08T15:00:00	5	Humedad	77
37617	7	Sololá	710	Panajachel	8	Panajachel	5	Mayo	2023-05-18T00:00:00	2024-11-08T15:00:00	6	Velocidad del viento	8
37618	7	Sololá	710	Panajachel	8	Panajachel	5	Mayo	2023-05-18T00:00:00	2024-11-08T15:00:00	7	Dirección del viento	8.05
37619	7	Sololá	710	Panajachel	8	Panajachel	5	Mayo	2023-05-18T00:00:00	2024-11-08T15:00:00	1	Precipitación	0
37620	7	Sololá	710	Panajachel	8	Panajachel	5	Mayo	2023-05-18T00:00:00	2024-11-08T15:00:00	8	Radiación solar	642
37621	7	Sololá	710	Panajachel	8	Panajachel	5	Mayo	2023-05-18T00:00:00	2024-11-08T16:00:00	2	Temperatura media	24.1
37622	7	Sololá	710	Panajachel	8	Panajachel	5	Mayo	2023-05-18T00:00:00	2024-11-08T16:00:00	4	Temperatura máxima	24.9
37623	7	Sololá	710	Panajachel	8	Panajachel	5	Mayo	2023-05-18T00:00:00	2024-11-08T16:00:00	3	Temperatura mínima	24.1
37624	7	Sololá	710	Panajachel	8	Panajachel	5	Mayo	2023-05-18T00:00:00	2024-11-08T16:00:00	5	Humedad	81
37625	7	Sololá	710	Panajachel	8	Panajachel	5	Mayo	2023-05-18T00:00:00	2024-11-08T16:00:00	6	Velocidad del viento	4.8
37626	7	Sololá	710	Panajachel	8	Panajachel	5	Mayo	2023-05-18T00:00:00	2024-11-08T16:00:00	7	Dirección del viento	4.83
37627	7	Sololá	710	Panajachel	8	Panajachel	5	Mayo	2023-05-18T00:00:00	2024-11-08T16:00:00	1	Precipitación	0
37628	7	Sololá	710	Panajachel	8	Panajachel	5	Mayo	2023-05-18T00:00:00	2024-11-08T16:00:00	8	Radiación solar	371
37629	7	Sololá	710	Panajachel	8	Panajachel	5	Mayo	2023-05-18T00:00:00	2024-11-08T17:00:00	2	Temperatura media	23.1
37630	7	Sololá	710	Panajachel	8	Panajachel	5	Mayo	2023-05-18T00:00:00	2024-11-08T17:00:00	4	Temperatura máxima	24
37631	7	Sololá	710	Panajachel	8	Panajachel	5	Mayo	2023-05-18T00:00:00	2024-11-08T17:00:00	3	Temperatura mínima	23.1
37632	7	Sololá	710	Panajachel	8	Panajachel	5	Mayo	2023-05-18T00:00:00	2024-11-08T17:00:00	5	Humedad	85
37633	7	Sololá	710	Panajachel	8	Panajachel	5	Mayo	2023-05-18T00:00:00	2024-11-08T17:00:00	6	Velocidad del viento	4.8
37634	7	Sololá	710	Panajachel	8	Panajachel	5	Mayo	2023-05-18T00:00:00	2024-11-08T17:00:00	7	Dirección del viento	4.83
37635	7	Sololá	710	Panajachel	8	Panajachel	5	Mayo	2023-05-18T00:00:00	2024-11-08T17:00:00	1	Precipitación	0
37636	7	Sololá	710	Panajachel	8	Panajachel	5	Mayo	2023-05-18T00:00:00	2024-11-08T17:00:00	8	Radiación solar	145
37637	7	Sololá	710	Panajachel	8	Panajachel	5	Mayo	2023-05-18T00:00:00	2024-11-08T18:00:00	2	Temperatura media	21.8
37638	7	Sololá	710	Panajachel	8	Panajachel	5	Mayo	2023-05-18T00:00:00	2024-11-08T18:00:00	4	Temperatura máxima	23.1
37639	7	Sololá	710	Panajachel	8	Panajachel	5	Mayo	2023-05-18T00:00:00	2024-11-08T18:00:00	3	Temperatura mínima	21.8
37640	7	Sololá	710	Panajachel	8	Panajachel	5	Mayo	2023-05-18T00:00:00	2024-11-08T18:00:00	5	Humedad	89
37641	7	Sololá	710	Panajachel	8	Panajachel	5	Mayo	2023-05-18T00:00:00	2024-11-08T18:00:00	6	Velocidad del viento	4.8
37642	7	Sololá	710	Panajachel	8	Panajachel	5	Mayo	2023-05-18T00:00:00	2024-11-08T18:00:00	7	Dirección del viento	4.83
37643	7	Sololá	710	Panajachel	8	Panajachel	5	Mayo	2023-05-18T00:00:00	2024-11-08T18:00:00	1	Precipitación	0
37644	7	Sololá	710	Panajachel	8	Panajachel	5	Mayo	2023-05-18T00:00:00	2024-11-08T18:00:00	8	Radiación solar	9
37645	7	Sololá	710	Panajachel	8	Panajachel	5	Mayo	2023-05-18T00:00:00	2024-11-08T19:00:00	2	Temperatura media	21.6
37646	7	Sololá	710	Panajachel	8	Panajachel	5	Mayo	2023-05-18T00:00:00	2024-11-08T19:00:00	4	Temperatura máxima	21.8
37647	7	Sololá	710	Panajachel	8	Panajachel	5	Mayo	2023-05-18T00:00:00	2024-11-08T19:00:00	3	Temperatura mínima	21.6
37648	7	Sololá	710	Panajachel	8	Panajachel	5	Mayo	2023-05-18T00:00:00	2024-11-08T19:00:00	5	Humedad	89
37649	7	Sololá	710	Panajachel	8	Panajachel	5	Mayo	2023-05-18T00:00:00	2024-11-08T19:00:00	6	Velocidad del viento	1.6
37650	7	Sololá	710	Panajachel	8	Panajachel	5	Mayo	2023-05-18T00:00:00	2024-11-08T19:00:00	7	Dirección del viento	1.61
37651	7	Sololá	710	Panajachel	8	Panajachel	5	Mayo	2023-05-18T00:00:00	2024-11-08T19:00:00	1	Precipitación	0
37652	7	Sololá	710	Panajachel	8	Panajachel	5	Mayo	2023-05-18T00:00:00	2024-11-08T19:00:00	8	Radiación solar	0
37653	7	Sololá	710	Panajachel	8	Panajachel	5	Mayo	2023-05-18T00:00:00	2024-11-08T20:00:00	2	Temperatura media	21.1
37654	7	Sololá	710	Panajachel	8	Panajachel	5	Mayo	2023-05-18T00:00:00	2024-11-08T20:00:00	4	Temperatura máxima	21.7
37655	7	Sololá	710	Panajachel	8	Panajachel	5	Mayo	2023-05-18T00:00:00	2024-11-08T20:00:00	3	Temperatura mínima	21.1
37656	7	Sololá	710	Panajachel	8	Panajachel	5	Mayo	2023-05-18T00:00:00	2024-11-08T20:00:00	5	Humedad	85
37657	7	Sololá	710	Panajachel	8	Panajachel	5	Mayo	2023-05-18T00:00:00	2024-11-08T20:00:00	6	Velocidad del viento	0
37658	7	Sololá	710	Panajachel	8	Panajachel	5	Mayo	2023-05-18T00:00:00	2024-11-08T20:00:00	7	Dirección del viento	0
37659	7	Sololá	710	Panajachel	8	Panajachel	5	Mayo	2023-05-18T00:00:00	2024-11-08T20:00:00	1	Precipitación	0
37660	7	Sololá	710	Panajachel	8	Panajachel	5	Mayo	2023-05-18T00:00:00	2024-11-08T20:00:00	8	Radiación solar	0
37661	7	Sololá	710	Panajachel	8	Panajachel	5	Mayo	2023-05-18T00:00:00	2024-11-08T21:00:00	2	Temperatura media	20.1
37662	7	Sololá	710	Panajachel	8	Panajachel	5	Mayo	2023-05-18T00:00:00	2024-11-08T21:00:00	4	Temperatura máxima	21.1
37663	7	Sololá	710	Panajachel	8	Panajachel	5	Mayo	2023-05-18T00:00:00	2024-11-08T21:00:00	3	Temperatura mínima	19.9
37664	7	Sololá	710	Panajachel	8	Panajachel	5	Mayo	2023-05-18T00:00:00	2024-11-08T21:00:00	5	Humedad	83
37665	7	Sololá	710	Panajachel	8	Panajachel	5	Mayo	2023-05-18T00:00:00	2024-11-08T21:00:00	6	Velocidad del viento	3.2
37666	7	Sololá	710	Panajachel	8	Panajachel	5	Mayo	2023-05-18T00:00:00	2024-11-08T21:00:00	7	Dirección del viento	3.22
37667	7	Sololá	710	Panajachel	8	Panajachel	5	Mayo	2023-05-18T00:00:00	2024-11-08T21:00:00	1	Precipitación	0
37668	7	Sololá	710	Panajachel	8	Panajachel	5	Mayo	2023-05-18T00:00:00	2024-11-08T21:00:00	8	Radiación solar	0
37669	7	Sololá	710	Panajachel	8	Panajachel	5	Mayo	2023-05-18T00:00:00	2024-11-08T22:00:00	2	Temperatura media	20.4
37670	7	Sololá	710	Panajachel	8	Panajachel	5	Mayo	2023-05-18T00:00:00	2024-11-08T22:00:00	4	Temperatura máxima	20.4
37671	7	Sololá	710	Panajachel	8	Panajachel	5	Mayo	2023-05-18T00:00:00	2024-11-08T22:00:00	3	Temperatura mínima	20
37672	7	Sololá	710	Panajachel	8	Panajachel	5	Mayo	2023-05-18T00:00:00	2024-11-08T22:00:00	5	Humedad	81
37673	7	Sololá	710	Panajachel	8	Panajachel	5	Mayo	2023-05-18T00:00:00	2024-11-08T22:00:00	6	Velocidad del viento	1.6
37674	7	Sololá	710	Panajachel	8	Panajachel	5	Mayo	2023-05-18T00:00:00	2024-11-08T22:00:00	7	Dirección del viento	1.61
37675	7	Sololá	710	Panajachel	8	Panajachel	5	Mayo	2023-05-18T00:00:00	2024-11-08T22:00:00	1	Precipitación	0
37676	7	Sololá	710	Panajachel	8	Panajachel	5	Mayo	2023-05-18T00:00:00	2024-11-08T22:00:00	8	Radiación solar	0
37677	7	Sololá	710	Panajachel	8	Panajachel	5	Mayo	2023-05-18T00:00:00	2024-11-08T23:00:00	2	Temperatura media	19.3
37678	7	Sololá	710	Panajachel	8	Panajachel	5	Mayo	2023-05-18T00:00:00	2024-11-08T23:00:00	4	Temperatura máxima	20.4
37679	7	Sololá	710	Panajachel	8	Panajachel	5	Mayo	2023-05-18T00:00:00	2024-11-08T23:00:00	3	Temperatura mínima	19.3
37680	7	Sololá	710	Panajachel	8	Panajachel	5	Mayo	2023-05-18T00:00:00	2024-11-08T23:00:00	5	Humedad	84
37681	7	Sololá	710	Panajachel	8	Panajachel	5	Mayo	2023-05-18T00:00:00	2024-11-08T23:00:00	6	Velocidad del viento	3.2
37682	7	Sololá	710	Panajachel	8	Panajachel	5	Mayo	2023-05-18T00:00:00	2024-11-08T23:00:00	7	Dirección del viento	3.22
37683	7	Sololá	710	Panajachel	8	Panajachel	5	Mayo	2023-05-18T00:00:00	2024-11-08T23:00:00	1	Precipitación	0
37684	7	Sololá	710	Panajachel	8	Panajachel	5	Mayo	2023-05-18T00:00:00	2024-11-08T23:00:00	8	Radiación solar	0
37685	7	Sololá	710	Panajachel	8	Panajachel	5	Mayo	2023-05-19T00:00:00	2024-11-08T00:00:00	2	Temperatura media	19.2
37686	7	Sololá	710	Panajachel	8	Panajachel	5	Mayo	2023-05-19T00:00:00	2024-11-08T00:00:00	4	Temperatura máxima	19.8
37687	7	Sololá	710	Panajachel	8	Panajachel	5	Mayo	2023-05-19T00:00:00	2024-11-08T00:00:00	3	Temperatura mínima	19.2
37688	7	Sololá	710	Panajachel	8	Panajachel	5	Mayo	2023-05-19T00:00:00	2024-11-08T00:00:00	5	Humedad	83
37689	7	Sololá	710	Panajachel	8	Panajachel	5	Mayo	2023-05-19T00:00:00	2024-11-08T00:00:00	6	Velocidad del viento	4.8
37690	7	Sololá	710	Panajachel	8	Panajachel	5	Mayo	2023-05-19T00:00:00	2024-11-08T00:00:00	7	Dirección del viento	4.83
37691	7	Sololá	710	Panajachel	8	Panajachel	5	Mayo	2023-05-19T00:00:00	2024-11-08T00:00:00	1	Precipitación	0
37692	7	Sololá	710	Panajachel	8	Panajachel	5	Mayo	2023-05-19T00:00:00	2024-11-08T00:00:00	8	Radiación solar	0
37693	7	Sololá	710	Panajachel	8	Panajachel	5	Mayo	2023-05-19T00:00:00	2024-11-08T01:00:00	2	Temperatura media	19.3
37694	7	Sololá	710	Panajachel	8	Panajachel	5	Mayo	2023-05-19T00:00:00	2024-11-08T01:00:00	4	Temperatura máxima	20.2
37695	7	Sololá	710	Panajachel	8	Panajachel	5	Mayo	2023-05-19T00:00:00	2024-11-08T01:00:00	3	Temperatura mínima	19.2
37696	7	Sololá	710	Panajachel	8	Panajachel	5	Mayo	2023-05-19T00:00:00	2024-11-08T01:00:00	5	Humedad	83
37697	7	Sololá	710	Panajachel	8	Panajachel	5	Mayo	2023-05-19T00:00:00	2024-11-08T01:00:00	6	Velocidad del viento	3.2
37698	7	Sololá	710	Panajachel	8	Panajachel	5	Mayo	2023-05-19T00:00:00	2024-11-08T01:00:00	7	Dirección del viento	3.22
37699	7	Sololá	710	Panajachel	8	Panajachel	5	Mayo	2023-05-19T00:00:00	2024-11-08T01:00:00	1	Precipitación	0
37700	7	Sololá	710	Panajachel	8	Panajachel	5	Mayo	2023-05-19T00:00:00	2024-11-08T01:00:00	8	Radiación solar	0
37701	7	Sololá	710	Panajachel	8	Panajachel	5	Mayo	2023-05-19T00:00:00	2024-11-08T02:00:00	2	Temperatura media	19
37702	7	Sololá	710	Panajachel	8	Panajachel	5	Mayo	2023-05-19T00:00:00	2024-11-08T02:00:00	4	Temperatura máxima	19.3
37703	7	Sololá	710	Panajachel	8	Panajachel	5	Mayo	2023-05-19T00:00:00	2024-11-08T02:00:00	3	Temperatura mínima	18.8
37704	7	Sololá	710	Panajachel	8	Panajachel	5	Mayo	2023-05-19T00:00:00	2024-11-08T02:00:00	5	Humedad	85
37705	7	Sololá	710	Panajachel	8	Panajachel	5	Mayo	2023-05-19T00:00:00	2024-11-08T02:00:00	6	Velocidad del viento	3.2
37706	7	Sololá	710	Panajachel	8	Panajachel	5	Mayo	2023-05-19T00:00:00	2024-11-08T02:00:00	7	Dirección del viento	3.22
37707	7	Sololá	710	Panajachel	8	Panajachel	5	Mayo	2023-05-19T00:00:00	2024-11-08T02:00:00	1	Precipitación	0
37708	7	Sololá	710	Panajachel	8	Panajachel	5	Mayo	2023-05-19T00:00:00	2024-11-08T02:00:00	8	Radiación solar	0
37709	7	Sololá	710	Panajachel	8	Panajachel	5	Mayo	2023-05-19T00:00:00	2024-11-08T03:00:00	2	Temperatura media	19.2
37710	7	Sololá	710	Panajachel	8	Panajachel	5	Mayo	2023-05-19T00:00:00	2024-11-08T03:00:00	4	Temperatura máxima	19.2
37711	7	Sololá	710	Panajachel	8	Panajachel	5	Mayo	2023-05-19T00:00:00	2024-11-08T03:00:00	3	Temperatura mínima	18.9
37712	7	Sololá	710	Panajachel	8	Panajachel	5	Mayo	2023-05-19T00:00:00	2024-11-08T03:00:00	5	Humedad	86
37713	7	Sololá	710	Panajachel	8	Panajachel	5	Mayo	2023-05-19T00:00:00	2024-11-08T03:00:00	6	Velocidad del viento	1.6
37714	7	Sololá	710	Panajachel	8	Panajachel	5	Mayo	2023-05-19T00:00:00	2024-11-08T03:00:00	7	Dirección del viento	1.61
37715	7	Sololá	710	Panajachel	8	Panajachel	5	Mayo	2023-05-19T00:00:00	2024-11-08T03:00:00	1	Precipitación	0
37716	7	Sololá	710	Panajachel	8	Panajachel	5	Mayo	2023-05-19T00:00:00	2024-11-08T03:00:00	8	Radiación solar	0
37717	7	Sololá	710	Panajachel	8	Panajachel	5	Mayo	2023-05-19T00:00:00	2024-11-08T04:00:00	2	Temperatura media	18.5
37718	7	Sololá	710	Panajachel	8	Panajachel	5	Mayo	2023-05-19T00:00:00	2024-11-08T04:00:00	4	Temperatura máxima	19.3
37719	7	Sololá	710	Panajachel	8	Panajachel	5	Mayo	2023-05-19T00:00:00	2024-11-08T04:00:00	3	Temperatura mínima	18.5
37720	7	Sololá	710	Panajachel	8	Panajachel	5	Mayo	2023-05-19T00:00:00	2024-11-08T04:00:00	5	Humedad	85
37721	7	Sololá	710	Panajachel	8	Panajachel	5	Mayo	2023-05-19T00:00:00	2024-11-08T04:00:00	6	Velocidad del viento	1.6
37722	7	Sololá	710	Panajachel	8	Panajachel	5	Mayo	2023-05-19T00:00:00	2024-11-08T04:00:00	7	Dirección del viento	1.61
37723	7	Sololá	710	Panajachel	8	Panajachel	5	Mayo	2023-05-19T00:00:00	2024-11-08T04:00:00	1	Precipitación	0
37724	7	Sololá	710	Panajachel	8	Panajachel	5	Mayo	2023-05-19T00:00:00	2024-11-08T04:00:00	8	Radiación solar	0
37725	7	Sololá	710	Panajachel	8	Panajachel	5	Mayo	2023-05-19T00:00:00	2024-11-08T05:00:00	2	Temperatura media	19.1
37726	7	Sololá	710	Panajachel	8	Panajachel	5	Mayo	2023-05-19T00:00:00	2024-11-08T05:00:00	4	Temperatura máxima	19.8
37727	7	Sololá	710	Panajachel	8	Panajachel	5	Mayo	2023-05-19T00:00:00	2024-11-08T05:00:00	3	Temperatura mínima	18.3
37728	7	Sololá	710	Panajachel	8	Panajachel	5	Mayo	2023-05-19T00:00:00	2024-11-08T05:00:00	5	Humedad	82
37729	7	Sololá	710	Panajachel	8	Panajachel	5	Mayo	2023-05-19T00:00:00	2024-11-08T05:00:00	6	Velocidad del viento	1.6
37730	7	Sololá	710	Panajachel	8	Panajachel	5	Mayo	2023-05-19T00:00:00	2024-11-08T05:00:00	7	Dirección del viento	1.61
37731	7	Sololá	710	Panajachel	8	Panajachel	5	Mayo	2023-05-19T00:00:00	2024-11-08T05:00:00	1	Precipitación	0
37732	7	Sololá	710	Panajachel	8	Panajachel	5	Mayo	2023-05-19T00:00:00	2024-11-08T05:00:00	8	Radiación solar	0
37733	7	Sololá	710	Panajachel	8	Panajachel	5	Mayo	2023-05-19T00:00:00	2024-11-08T06:00:00	2	Temperatura media	19.8
37734	7	Sololá	710	Panajachel	8	Panajachel	5	Mayo	2023-05-19T00:00:00	2024-11-08T06:00:00	4	Temperatura máxima	20
37735	7	Sololá	710	Panajachel	8	Panajachel	5	Mayo	2023-05-19T00:00:00	2024-11-08T06:00:00	3	Temperatura mínima	18.8
37736	7	Sololá	710	Panajachel	8	Panajachel	5	Mayo	2023-05-19T00:00:00	2024-11-08T06:00:00	5	Humedad	77
37737	7	Sololá	710	Panajachel	8	Panajachel	5	Mayo	2023-05-19T00:00:00	2024-11-08T06:00:00	6	Velocidad del viento	1.6
37738	7	Sololá	710	Panajachel	8	Panajachel	5	Mayo	2023-05-19T00:00:00	2024-11-08T06:00:00	7	Dirección del viento	1.61
37739	7	Sololá	710	Panajachel	8	Panajachel	5	Mayo	2023-05-19T00:00:00	2024-11-08T06:00:00	1	Precipitación	0
37740	7	Sololá	710	Panajachel	8	Panajachel	5	Mayo	2023-05-19T00:00:00	2024-11-08T06:00:00	8	Radiación solar	3
37741	7	Sololá	710	Panajachel	8	Panajachel	5	Mayo	2023-05-19T00:00:00	2024-11-08T07:00:00	2	Temperatura media	22.3
37742	7	Sololá	710	Panajachel	8	Panajachel	5	Mayo	2023-05-19T00:00:00	2024-11-08T07:00:00	4	Temperatura máxima	22.3
37743	7	Sololá	710	Panajachel	8	Panajachel	5	Mayo	2023-05-19T00:00:00	2024-11-08T07:00:00	3	Temperatura mínima	19.8
37744	7	Sololá	710	Panajachel	8	Panajachel	5	Mayo	2023-05-19T00:00:00	2024-11-08T07:00:00	5	Humedad	69
37745	7	Sololá	710	Panajachel	8	Panajachel	5	Mayo	2023-05-19T00:00:00	2024-11-08T07:00:00	6	Velocidad del viento	6.4
37746	7	Sololá	710	Panajachel	8	Panajachel	5	Mayo	2023-05-19T00:00:00	2024-11-08T07:00:00	7	Dirección del viento	6.44
37747	7	Sololá	710	Panajachel	8	Panajachel	5	Mayo	2023-05-19T00:00:00	2024-11-08T07:00:00	1	Precipitación	0
37748	7	Sololá	710	Panajachel	8	Panajachel	5	Mayo	2023-05-19T00:00:00	2024-11-08T07:00:00	8	Radiación solar	100
37749	7	Sololá	710	Panajachel	8	Panajachel	5	Mayo	2023-05-19T00:00:00	2024-11-08T08:00:00	2	Temperatura media	23.4
37750	7	Sololá	710	Panajachel	8	Panajachel	5	Mayo	2023-05-19T00:00:00	2024-11-08T08:00:00	4	Temperatura máxima	23.4
37751	7	Sololá	710	Panajachel	8	Panajachel	5	Mayo	2023-05-19T00:00:00	2024-11-08T08:00:00	3	Temperatura mínima	22.3
37752	7	Sololá	710	Panajachel	8	Panajachel	5	Mayo	2023-05-19T00:00:00	2024-11-08T08:00:00	5	Humedad	68
37753	7	Sololá	710	Panajachel	8	Panajachel	5	Mayo	2023-05-19T00:00:00	2024-11-08T08:00:00	6	Velocidad del viento	6.4
37754	7	Sololá	710	Panajachel	8	Panajachel	5	Mayo	2023-05-19T00:00:00	2024-11-08T08:00:00	7	Dirección del viento	6.44
37755	7	Sololá	710	Panajachel	8	Panajachel	5	Mayo	2023-05-19T00:00:00	2024-11-08T08:00:00	1	Precipitación	0
37756	7	Sololá	710	Panajachel	8	Panajachel	5	Mayo	2023-05-19T00:00:00	2024-11-08T08:00:00	8	Radiación solar	329
37757	7	Sololá	710	Panajachel	8	Panajachel	5	Mayo	2023-05-19T00:00:00	2024-11-08T09:00:00	2	Temperatura media	25.1
37758	7	Sololá	710	Panajachel	8	Panajachel	5	Mayo	2023-05-19T00:00:00	2024-11-08T09:00:00	4	Temperatura máxima	25.3
37759	7	Sololá	710	Panajachel	8	Panajachel	5	Mayo	2023-05-19T00:00:00	2024-11-08T09:00:00	3	Temperatura mínima	23.4
37760	7	Sololá	710	Panajachel	8	Panajachel	5	Mayo	2023-05-19T00:00:00	2024-11-08T09:00:00	5	Humedad	56
37761	7	Sololá	710	Panajachel	8	Panajachel	5	Mayo	2023-05-19T00:00:00	2024-11-08T09:00:00	6	Velocidad del viento	8
37762	7	Sololá	710	Panajachel	8	Panajachel	5	Mayo	2023-05-19T00:00:00	2024-11-08T09:00:00	7	Dirección del viento	8.05
37763	7	Sololá	710	Panajachel	8	Panajachel	5	Mayo	2023-05-19T00:00:00	2024-11-08T09:00:00	1	Precipitación	0
37764	7	Sololá	710	Panajachel	8	Panajachel	5	Mayo	2023-05-19T00:00:00	2024-11-08T09:00:00	8	Radiación solar	560
37765	7	Sololá	710	Panajachel	8	Panajachel	5	Mayo	2023-05-19T00:00:00	2024-11-08T10:00:00	2	Temperatura media	26.7
37766	7	Sololá	710	Panajachel	8	Panajachel	5	Mayo	2023-05-19T00:00:00	2024-11-08T10:00:00	4	Temperatura máxima	26.8
37767	7	Sololá	710	Panajachel	8	Panajachel	5	Mayo	2023-05-19T00:00:00	2024-11-08T10:00:00	3	Temperatura mínima	25.1
37768	7	Sololá	710	Panajachel	8	Panajachel	5	Mayo	2023-05-19T00:00:00	2024-11-08T10:00:00	5	Humedad	46
37769	7	Sololá	710	Panajachel	8	Panajachel	5	Mayo	2023-05-19T00:00:00	2024-11-08T10:00:00	6	Velocidad del viento	8
37770	7	Sololá	710	Panajachel	8	Panajachel	5	Mayo	2023-05-19T00:00:00	2024-11-08T10:00:00	7	Dirección del viento	8.05
37771	7	Sololá	710	Panajachel	8	Panajachel	5	Mayo	2023-05-19T00:00:00	2024-11-08T10:00:00	1	Precipitación	0
37772	7	Sololá	710	Panajachel	8	Panajachel	5	Mayo	2023-05-19T00:00:00	2024-11-08T10:00:00	8	Radiación solar	744
37773	7	Sololá	710	Panajachel	8	Panajachel	5	Mayo	2023-05-19T00:00:00	2024-11-08T11:00:00	2	Temperatura media	27.7
37774	7	Sololá	710	Panajachel	8	Panajachel	5	Mayo	2023-05-19T00:00:00	2024-11-08T11:00:00	4	Temperatura máxima	27.7
37775	7	Sololá	710	Panajachel	8	Panajachel	5	Mayo	2023-05-19T00:00:00	2024-11-08T11:00:00	3	Temperatura mínima	26.6
37776	7	Sololá	710	Panajachel	8	Panajachel	5	Mayo	2023-05-19T00:00:00	2024-11-08T11:00:00	5	Humedad	46
37777	7	Sololá	710	Panajachel	8	Panajachel	5	Mayo	2023-05-19T00:00:00	2024-11-08T11:00:00	6	Velocidad del viento	8
37778	7	Sololá	710	Panajachel	8	Panajachel	5	Mayo	2023-05-19T00:00:00	2024-11-08T11:00:00	7	Dirección del viento	8.05
37779	7	Sololá	710	Panajachel	8	Panajachel	5	Mayo	2023-05-19T00:00:00	2024-11-08T11:00:00	1	Precipitación	0
37780	7	Sololá	710	Panajachel	8	Panajachel	5	Mayo	2023-05-19T00:00:00	2024-11-08T11:00:00	8	Radiación solar	858
37781	7	Sololá	710	Panajachel	8	Panajachel	5	Mayo	2023-05-19T00:00:00	2024-11-08T12:00:00	2	Temperatura media	28.3
37782	7	Sololá	710	Panajachel	8	Panajachel	5	Mayo	2023-05-19T00:00:00	2024-11-08T12:00:00	4	Temperatura máxima	28.5
37783	7	Sololá	710	Panajachel	8	Panajachel	5	Mayo	2023-05-19T00:00:00	2024-11-08T12:00:00	3	Temperatura mínima	27.5
37784	7	Sololá	710	Panajachel	8	Panajachel	5	Mayo	2023-05-19T00:00:00	2024-11-08T12:00:00	5	Humedad	44
37785	7	Sololá	710	Panajachel	8	Panajachel	5	Mayo	2023-05-19T00:00:00	2024-11-08T12:00:00	6	Velocidad del viento	6.4
37786	7	Sololá	710	Panajachel	8	Panajachel	5	Mayo	2023-05-19T00:00:00	2024-11-08T12:00:00	7	Dirección del viento	6.44
37787	7	Sololá	710	Panajachel	8	Panajachel	5	Mayo	2023-05-19T00:00:00	2024-11-08T12:00:00	1	Precipitación	0
37788	7	Sololá	710	Panajachel	8	Panajachel	5	Mayo	2023-05-19T00:00:00	2024-11-08T12:00:00	8	Radiación solar	938
37789	7	Sololá	710	Panajachel	8	Panajachel	5	Mayo	2023-05-19T00:00:00	2024-11-08T13:00:00	2	Temperatura media	26.7
37790	7	Sololá	710	Panajachel	8	Panajachel	5	Mayo	2023-05-19T00:00:00	2024-11-08T13:00:00	4	Temperatura máxima	29
37791	7	Sololá	710	Panajachel	8	Panajachel	5	Mayo	2023-05-19T00:00:00	2024-11-08T13:00:00	3	Temperatura mínima	26.1
37792	7	Sololá	710	Panajachel	8	Panajachel	5	Mayo	2023-05-19T00:00:00	2024-11-08T13:00:00	5	Humedad	72
37793	7	Sololá	710	Panajachel	8	Panajachel	5	Mayo	2023-05-19T00:00:00	2024-11-08T13:00:00	6	Velocidad del viento	6.4
37794	7	Sololá	710	Panajachel	8	Panajachel	5	Mayo	2023-05-19T00:00:00	2024-11-08T13:00:00	7	Dirección del viento	6.44
37795	7	Sololá	710	Panajachel	8	Panajachel	5	Mayo	2023-05-19T00:00:00	2024-11-08T13:00:00	1	Precipitación	0
37796	7	Sololá	710	Panajachel	8	Panajachel	5	Mayo	2023-05-19T00:00:00	2024-11-08T13:00:00	8	Radiación solar	963
37797	7	Sololá	710	Panajachel	8	Panajachel	5	Mayo	2023-05-19T00:00:00	2024-11-08T14:00:00	2	Temperatura media	28.3
37798	7	Sololá	710	Panajachel	8	Panajachel	5	Mayo	2023-05-19T00:00:00	2024-11-08T14:00:00	4	Temperatura máxima	28.8
37799	7	Sololá	710	Panajachel	8	Panajachel	5	Mayo	2023-05-19T00:00:00	2024-11-08T14:00:00	3	Temperatura mínima	26.3
37800	7	Sololá	710	Panajachel	8	Panajachel	5	Mayo	2023-05-19T00:00:00	2024-11-08T14:00:00	5	Humedad	60
37801	7	Sololá	710	Panajachel	8	Panajachel	5	Mayo	2023-05-19T00:00:00	2024-11-08T14:00:00	6	Velocidad del viento	4.8
37802	7	Sololá	710	Panajachel	8	Panajachel	5	Mayo	2023-05-19T00:00:00	2024-11-08T14:00:00	7	Dirección del viento	4.83
37803	7	Sololá	710	Panajachel	8	Panajachel	5	Mayo	2023-05-19T00:00:00	2024-11-08T14:00:00	1	Precipitación	0
37804	7	Sololá	710	Panajachel	8	Panajachel	5	Mayo	2023-05-19T00:00:00	2024-11-08T14:00:00	8	Radiación solar	730
37805	7	Sololá	710	Panajachel	8	Panajachel	5	Mayo	2023-05-19T00:00:00	2024-11-08T15:00:00	2	Temperatura media	27.1
37806	7	Sololá	710	Panajachel	8	Panajachel	5	Mayo	2023-05-19T00:00:00	2024-11-08T15:00:00	4	Temperatura máxima	29.4
37807	7	Sololá	710	Panajachel	8	Panajachel	5	Mayo	2023-05-19T00:00:00	2024-11-08T15:00:00	3	Temperatura mínima	27.1
37808	7	Sololá	710	Panajachel	8	Panajachel	5	Mayo	2023-05-19T00:00:00	2024-11-08T15:00:00	5	Humedad	65
37809	7	Sololá	710	Panajachel	8	Panajachel	5	Mayo	2023-05-19T00:00:00	2024-11-08T15:00:00	6	Velocidad del viento	8
37810	7	Sololá	710	Panajachel	8	Panajachel	5	Mayo	2023-05-19T00:00:00	2024-11-08T15:00:00	7	Dirección del viento	8.05
37811	7	Sololá	710	Panajachel	8	Panajachel	5	Mayo	2023-05-19T00:00:00	2024-11-08T15:00:00	1	Precipitación	0
37812	7	Sololá	710	Panajachel	8	Panajachel	5	Mayo	2023-05-19T00:00:00	2024-11-08T15:00:00	8	Radiación solar	630
37813	7	Sololá	710	Panajachel	8	Panajachel	5	Mayo	2023-05-19T00:00:00	2024-11-08T16:00:00	2	Temperatura media	25.1
37814	7	Sololá	710	Panajachel	8	Panajachel	5	Mayo	2023-05-19T00:00:00	2024-11-08T16:00:00	4	Temperatura máxima	27.6
37815	7	Sololá	710	Panajachel	8	Panajachel	5	Mayo	2023-05-19T00:00:00	2024-11-08T16:00:00	3	Temperatura mínima	25.1
37816	7	Sololá	710	Panajachel	8	Panajachel	5	Mayo	2023-05-19T00:00:00	2024-11-08T16:00:00	5	Humedad	78
37817	7	Sololá	710	Panajachel	8	Panajachel	5	Mayo	2023-05-19T00:00:00	2024-11-08T16:00:00	6	Velocidad del viento	3.2
37818	7	Sololá	710	Panajachel	8	Panajachel	5	Mayo	2023-05-19T00:00:00	2024-11-08T16:00:00	7	Dirección del viento	3.22
37819	7	Sololá	710	Panajachel	8	Panajachel	5	Mayo	2023-05-19T00:00:00	2024-11-08T16:00:00	1	Precipitación	0
37820	7	Sololá	710	Panajachel	8	Panajachel	5	Mayo	2023-05-19T00:00:00	2024-11-08T16:00:00	8	Radiación solar	349
37821	7	Sololá	710	Panajachel	8	Panajachel	5	Mayo	2023-05-19T00:00:00	2024-11-08T17:00:00	2	Temperatura media	23.8
37822	7	Sololá	710	Panajachel	8	Panajachel	5	Mayo	2023-05-19T00:00:00	2024-11-08T17:00:00	4	Temperatura máxima	25.6
37823	7	Sololá	710	Panajachel	8	Panajachel	5	Mayo	2023-05-19T00:00:00	2024-11-08T17:00:00	3	Temperatura mínima	23.8
37824	7	Sololá	710	Panajachel	8	Panajachel	5	Mayo	2023-05-19T00:00:00	2024-11-08T17:00:00	5	Humedad	83
37825	7	Sololá	710	Panajachel	8	Panajachel	5	Mayo	2023-05-19T00:00:00	2024-11-08T17:00:00	6	Velocidad del viento	4.8
37826	7	Sololá	710	Panajachel	8	Panajachel	5	Mayo	2023-05-19T00:00:00	2024-11-08T17:00:00	7	Dirección del viento	4.83
37827	7	Sololá	710	Panajachel	8	Panajachel	5	Mayo	2023-05-19T00:00:00	2024-11-08T17:00:00	1	Precipitación	0
37828	7	Sololá	710	Panajachel	8	Panajachel	5	Mayo	2023-05-19T00:00:00	2024-11-08T17:00:00	8	Radiación solar	93
37829	7	Sololá	710	Panajachel	8	Panajachel	5	Mayo	2023-05-19T00:00:00	2024-11-08T18:00:00	2	Temperatura media	23.3
37830	7	Sololá	710	Panajachel	8	Panajachel	5	Mayo	2023-05-19T00:00:00	2024-11-08T18:00:00	4	Temperatura máxima	23.9
37831	7	Sololá	710	Panajachel	8	Panajachel	5	Mayo	2023-05-19T00:00:00	2024-11-08T18:00:00	3	Temperatura mínima	23.3
37832	7	Sololá	710	Panajachel	8	Panajachel	5	Mayo	2023-05-19T00:00:00	2024-11-08T18:00:00	5	Humedad	82
37833	7	Sololá	710	Panajachel	8	Panajachel	5	Mayo	2023-05-19T00:00:00	2024-11-08T18:00:00	6	Velocidad del viento	1.6
37834	7	Sololá	710	Panajachel	8	Panajachel	5	Mayo	2023-05-19T00:00:00	2024-11-08T18:00:00	7	Dirección del viento	1.61
37835	7	Sololá	710	Panajachel	8	Panajachel	5	Mayo	2023-05-19T00:00:00	2024-11-08T18:00:00	1	Precipitación	0
37836	7	Sololá	710	Panajachel	8	Panajachel	5	Mayo	2023-05-19T00:00:00	2024-11-08T18:00:00	8	Radiación solar	45
37837	7	Sololá	710	Panajachel	8	Panajachel	5	Mayo	2023-05-19T00:00:00	2024-11-08T19:00:00	2	Temperatura media	23.1
37838	7	Sololá	710	Panajachel	8	Panajachel	5	Mayo	2023-05-19T00:00:00	2024-11-08T19:00:00	4	Temperatura máxima	23.3
37839	7	Sololá	710	Panajachel	8	Panajachel	5	Mayo	2023-05-19T00:00:00	2024-11-08T19:00:00	3	Temperatura mínima	23.1
37840	7	Sololá	710	Panajachel	8	Panajachel	5	Mayo	2023-05-19T00:00:00	2024-11-08T19:00:00	5	Humedad	82
37841	7	Sololá	710	Panajachel	8	Panajachel	5	Mayo	2023-05-19T00:00:00	2024-11-08T19:00:00	6	Velocidad del viento	0
37842	7	Sololá	710	Panajachel	8	Panajachel	5	Mayo	2023-05-19T00:00:00	2024-11-08T19:00:00	7	Dirección del viento	0
37843	7	Sololá	710	Panajachel	8	Panajachel	5	Mayo	2023-05-19T00:00:00	2024-11-08T19:00:00	1	Precipitación	0
37844	7	Sololá	710	Panajachel	8	Panajachel	5	Mayo	2023-05-19T00:00:00	2024-11-08T19:00:00	8	Radiación solar	0
37845	7	Sololá	710	Panajachel	8	Panajachel	5	Mayo	2023-05-19T00:00:00	2024-11-08T20:00:00	2	Temperatura media	23.3
37846	7	Sololá	710	Panajachel	8	Panajachel	5	Mayo	2023-05-19T00:00:00	2024-11-08T20:00:00	4	Temperatura máxima	23.5
37847	7	Sololá	710	Panajachel	8	Panajachel	5	Mayo	2023-05-19T00:00:00	2024-11-08T20:00:00	3	Temperatura mínima	22.9
37848	7	Sololá	710	Panajachel	8	Panajachel	5	Mayo	2023-05-19T00:00:00	2024-11-08T20:00:00	5	Humedad	68
37849	7	Sololá	710	Panajachel	8	Panajachel	5	Mayo	2023-05-19T00:00:00	2024-11-08T20:00:00	6	Velocidad del viento	3.2
37850	7	Sololá	710	Panajachel	8	Panajachel	5	Mayo	2023-05-19T00:00:00	2024-11-08T20:00:00	7	Dirección del viento	3.22
37851	7	Sololá	710	Panajachel	8	Panajachel	5	Mayo	2023-05-19T00:00:00	2024-11-08T20:00:00	1	Precipitación	0
37852	7	Sololá	710	Panajachel	8	Panajachel	5	Mayo	2023-05-19T00:00:00	2024-11-08T20:00:00	8	Radiación solar	0
37853	7	Sololá	710	Panajachel	8	Panajachel	5	Mayo	2023-05-19T00:00:00	2024-11-08T21:00:00	2	Temperatura media	22.8
37854	7	Sololá	710	Panajachel	8	Panajachel	5	Mayo	2023-05-19T00:00:00	2024-11-08T21:00:00	4	Temperatura máxima	23.3
37855	7	Sololá	710	Panajachel	8	Panajachel	5	Mayo	2023-05-19T00:00:00	2024-11-08T21:00:00	3	Temperatura mínima	22.8
37856	7	Sololá	710	Panajachel	8	Panajachel	5	Mayo	2023-05-19T00:00:00	2024-11-08T21:00:00	5	Humedad	67
37857	7	Sololá	710	Panajachel	8	Panajachel	5	Mayo	2023-05-19T00:00:00	2024-11-08T21:00:00	6	Velocidad del viento	4.8
37858	7	Sololá	710	Panajachel	8	Panajachel	5	Mayo	2023-05-19T00:00:00	2024-11-08T21:00:00	7	Dirección del viento	4.83
37859	7	Sololá	710	Panajachel	8	Panajachel	5	Mayo	2023-05-19T00:00:00	2024-11-08T21:00:00	1	Precipitación	0
37860	7	Sololá	710	Panajachel	8	Panajachel	5	Mayo	2023-05-19T00:00:00	2024-11-08T21:00:00	8	Radiación solar	0
37861	7	Sololá	710	Panajachel	8	Panajachel	5	Mayo	2023-05-19T00:00:00	2024-11-08T22:00:00	2	Temperatura media	22.1
37862	7	Sololá	710	Panajachel	8	Panajachel	5	Mayo	2023-05-19T00:00:00	2024-11-08T22:00:00	4	Temperatura máxima	22.8
37863	7	Sololá	710	Panajachel	8	Panajachel	5	Mayo	2023-05-19T00:00:00	2024-11-08T22:00:00	3	Temperatura mínima	22.1
37864	7	Sololá	710	Panajachel	8	Panajachel	5	Mayo	2023-05-19T00:00:00	2024-11-08T22:00:00	5	Humedad	68
37865	7	Sololá	710	Panajachel	8	Panajachel	5	Mayo	2023-05-19T00:00:00	2024-11-08T22:00:00	6	Velocidad del viento	6.4
37866	7	Sololá	710	Panajachel	8	Panajachel	5	Mayo	2023-05-19T00:00:00	2024-11-08T22:00:00	7	Dirección del viento	6.44
37867	7	Sololá	710	Panajachel	8	Panajachel	5	Mayo	2023-05-19T00:00:00	2024-11-08T22:00:00	1	Precipitación	0
37868	7	Sololá	710	Panajachel	8	Panajachel	5	Mayo	2023-05-19T00:00:00	2024-11-08T22:00:00	8	Radiación solar	0
37869	7	Sololá	710	Panajachel	8	Panajachel	5	Mayo	2023-05-19T00:00:00	2024-11-08T23:00:00	2	Temperatura media	21.8
37870	7	Sololá	710	Panajachel	8	Panajachel	5	Mayo	2023-05-19T00:00:00	2024-11-08T23:00:00	4	Temperatura máxima	22.1
37871	7	Sololá	710	Panajachel	8	Panajachel	5	Mayo	2023-05-19T00:00:00	2024-11-08T23:00:00	3	Temperatura mínima	21.1
37872	7	Sololá	710	Panajachel	8	Panajachel	5	Mayo	2023-05-19T00:00:00	2024-11-08T23:00:00	5	Humedad	69
37873	7	Sololá	710	Panajachel	8	Panajachel	5	Mayo	2023-05-19T00:00:00	2024-11-08T23:00:00	6	Velocidad del viento	3.2
37874	7	Sololá	710	Panajachel	8	Panajachel	5	Mayo	2023-05-19T00:00:00	2024-11-08T23:00:00	7	Dirección del viento	3.22
37875	7	Sololá	710	Panajachel	8	Panajachel	5	Mayo	2023-05-19T00:00:00	2024-11-08T23:00:00	1	Precipitación	0
37876	7	Sololá	710	Panajachel	8	Panajachel	5	Mayo	2023-05-19T00:00:00	2024-11-08T23:00:00	8	Radiación solar	0
37877	7	Sololá	710	Panajachel	8	Panajachel	5	Mayo	2023-05-20T00:00:00	2024-11-08T00:00:00	2	Temperatura media	21.3
37878	7	Sololá	710	Panajachel	8	Panajachel	5	Mayo	2023-05-20T00:00:00	2024-11-08T00:00:00	4	Temperatura máxima	21.8
37879	7	Sololá	710	Panajachel	8	Panajachel	5	Mayo	2023-05-20T00:00:00	2024-11-08T00:00:00	3	Temperatura mínima	21.3
37880	7	Sololá	710	Panajachel	8	Panajachel	5	Mayo	2023-05-20T00:00:00	2024-11-08T00:00:00	5	Humedad	70
37881	7	Sololá	710	Panajachel	8	Panajachel	5	Mayo	2023-05-20T00:00:00	2024-11-08T00:00:00	6	Velocidad del viento	6.4
37882	7	Sololá	710	Panajachel	8	Panajachel	5	Mayo	2023-05-20T00:00:00	2024-11-08T00:00:00	7	Dirección del viento	6.44
37883	7	Sololá	710	Panajachel	8	Panajachel	5	Mayo	2023-05-20T00:00:00	2024-11-08T00:00:00	1	Precipitación	0
37884	7	Sololá	710	Panajachel	8	Panajachel	5	Mayo	2023-05-20T00:00:00	2024-11-08T00:00:00	8	Radiación solar	0
37885	7	Sololá	710	Panajachel	8	Panajachel	5	Mayo	2023-05-20T00:00:00	2024-11-08T01:00:00	2	Temperatura media	19.7
37886	7	Sololá	710	Panajachel	8	Panajachel	5	Mayo	2023-05-20T00:00:00	2024-11-08T01:00:00	4	Temperatura máxima	21.2
37887	7	Sololá	710	Panajachel	8	Panajachel	5	Mayo	2023-05-20T00:00:00	2024-11-08T01:00:00	3	Temperatura mínima	19.4
37888	7	Sololá	710	Panajachel	8	Panajachel	5	Mayo	2023-05-20T00:00:00	2024-11-08T01:00:00	5	Humedad	75
37889	7	Sololá	710	Panajachel	8	Panajachel	5	Mayo	2023-05-20T00:00:00	2024-11-08T01:00:00	6	Velocidad del viento	1.6
37890	7	Sololá	710	Panajachel	8	Panajachel	5	Mayo	2023-05-20T00:00:00	2024-11-08T01:00:00	7	Dirección del viento	1.61
37891	7	Sololá	710	Panajachel	8	Panajachel	5	Mayo	2023-05-20T00:00:00	2024-11-08T01:00:00	1	Precipitación	0
37892	7	Sololá	710	Panajachel	8	Panajachel	5	Mayo	2023-05-20T00:00:00	2024-11-08T01:00:00	8	Radiación solar	0
37893	7	Sololá	710	Panajachel	8	Panajachel	5	Mayo	2023-05-20T00:00:00	2024-11-08T02:00:00	2	Temperatura media	20.7
37894	7	Sololá	710	Panajachel	8	Panajachel	5	Mayo	2023-05-20T00:00:00	2024-11-08T02:00:00	4	Temperatura máxima	21.1
37895	7	Sololá	710	Panajachel	8	Panajachel	5	Mayo	2023-05-20T00:00:00	2024-11-08T02:00:00	3	Temperatura mínima	19.7
37896	7	Sololá	710	Panajachel	8	Panajachel	5	Mayo	2023-05-20T00:00:00	2024-11-08T02:00:00	5	Humedad	69
37897	7	Sololá	710	Panajachel	8	Panajachel	5	Mayo	2023-05-20T00:00:00	2024-11-08T02:00:00	6	Velocidad del viento	3.2
37898	7	Sololá	710	Panajachel	8	Panajachel	5	Mayo	2023-05-20T00:00:00	2024-11-08T02:00:00	7	Dirección del viento	3.22
37899	7	Sololá	710	Panajachel	8	Panajachel	5	Mayo	2023-05-20T00:00:00	2024-11-08T02:00:00	1	Precipitación	0
37900	7	Sololá	710	Panajachel	8	Panajachel	5	Mayo	2023-05-20T00:00:00	2024-11-08T02:00:00	8	Radiación solar	0
37901	7	Sololá	710	Panajachel	8	Panajachel	5	Mayo	2023-05-20T00:00:00	2024-11-08T03:00:00	2	Temperatura media	20.7
37902	7	Sololá	710	Panajachel	8	Panajachel	5	Mayo	2023-05-20T00:00:00	2024-11-08T03:00:00	4	Temperatura máxima	21.2
37903	7	Sololá	710	Panajachel	8	Panajachel	5	Mayo	2023-05-20T00:00:00	2024-11-08T03:00:00	3	Temperatura mínima	20.7
37904	7	Sololá	710	Panajachel	8	Panajachel	5	Mayo	2023-05-20T00:00:00	2024-11-08T03:00:00	5	Humedad	69
37905	7	Sololá	710	Panajachel	8	Panajachel	5	Mayo	2023-05-20T00:00:00	2024-11-08T03:00:00	6	Velocidad del viento	6.4
37906	7	Sololá	710	Panajachel	8	Panajachel	5	Mayo	2023-05-20T00:00:00	2024-11-08T03:00:00	7	Dirección del viento	6.44
37907	7	Sololá	710	Panajachel	8	Panajachel	5	Mayo	2023-05-20T00:00:00	2024-11-08T03:00:00	1	Precipitación	0
37908	7	Sololá	710	Panajachel	8	Panajachel	5	Mayo	2023-05-20T00:00:00	2024-11-08T03:00:00	8	Radiación solar	0
37909	7	Sololá	710	Panajachel	8	Panajachel	5	Mayo	2023-05-20T00:00:00	2024-11-08T04:00:00	2	Temperatura media	20.3
37910	7	Sololá	710	Panajachel	8	Panajachel	5	Mayo	2023-05-20T00:00:00	2024-11-08T04:00:00	4	Temperatura máxima	20.7
37911	7	Sololá	710	Panajachel	8	Panajachel	5	Mayo	2023-05-20T00:00:00	2024-11-08T04:00:00	3	Temperatura mínima	20.3
37912	7	Sololá	710	Panajachel	8	Panajachel	5	Mayo	2023-05-20T00:00:00	2024-11-08T04:00:00	5	Humedad	69
37913	7	Sololá	710	Panajachel	8	Panajachel	5	Mayo	2023-05-20T00:00:00	2024-11-08T04:00:00	6	Velocidad del viento	3.2
37914	7	Sololá	710	Panajachel	8	Panajachel	5	Mayo	2023-05-20T00:00:00	2024-11-08T04:00:00	7	Dirección del viento	3.22
37915	7	Sololá	710	Panajachel	8	Panajachel	5	Mayo	2023-05-20T00:00:00	2024-11-08T04:00:00	1	Precipitación	0
37916	7	Sololá	710	Panajachel	8	Panajachel	5	Mayo	2023-05-20T00:00:00	2024-11-08T04:00:00	8	Radiación solar	0
37917	7	Sololá	710	Panajachel	8	Panajachel	5	Mayo	2023-05-20T00:00:00	2024-11-08T05:00:00	2	Temperatura media	19.8
37918	7	Sololá	710	Panajachel	8	Panajachel	5	Mayo	2023-05-20T00:00:00	2024-11-08T05:00:00	4	Temperatura máxima	20.8
37919	7	Sololá	710	Panajachel	8	Panajachel	5	Mayo	2023-05-20T00:00:00	2024-11-08T05:00:00	3	Temperatura mínima	19.8
37920	7	Sololá	710	Panajachel	8	Panajachel	5	Mayo	2023-05-20T00:00:00	2024-11-08T05:00:00	5	Humedad	68
37921	7	Sololá	710	Panajachel	8	Panajachel	5	Mayo	2023-05-20T00:00:00	2024-11-08T05:00:00	6	Velocidad del viento	3.2
37922	7	Sololá	710	Panajachel	8	Panajachel	5	Mayo	2023-05-20T00:00:00	2024-11-08T05:00:00	7	Dirección del viento	3.22
37923	7	Sololá	710	Panajachel	8	Panajachel	5	Mayo	2023-05-20T00:00:00	2024-11-08T05:00:00	1	Precipitación	0
37924	7	Sololá	710	Panajachel	8	Panajachel	5	Mayo	2023-05-20T00:00:00	2024-11-08T05:00:00	8	Radiación solar	0
37925	7	Sololá	710	Panajachel	8	Panajachel	5	Mayo	2023-05-20T00:00:00	2024-11-08T06:00:00	2	Temperatura media	19.6
37926	7	Sololá	710	Panajachel	8	Panajachel	5	Mayo	2023-05-20T00:00:00	2024-11-08T06:00:00	4	Temperatura máxima	20.8
37927	7	Sololá	710	Panajachel	8	Panajachel	5	Mayo	2023-05-20T00:00:00	2024-11-08T06:00:00	3	Temperatura mínima	19.6
37928	7	Sololá	710	Panajachel	8	Panajachel	5	Mayo	2023-05-20T00:00:00	2024-11-08T06:00:00	5	Humedad	69
37929	7	Sololá	710	Panajachel	8	Panajachel	5	Mayo	2023-05-20T00:00:00	2024-11-08T06:00:00	6	Velocidad del viento	1.6
37930	7	Sololá	710	Panajachel	8	Panajachel	5	Mayo	2023-05-20T00:00:00	2024-11-08T06:00:00	7	Dirección del viento	1.61
37931	7	Sololá	710	Panajachel	8	Panajachel	5	Mayo	2023-05-20T00:00:00	2024-11-08T06:00:00	1	Precipitación	0
37932	7	Sololá	710	Panajachel	8	Panajachel	5	Mayo	2023-05-20T00:00:00	2024-11-08T06:00:00	8	Radiación solar	6
37933	7	Sololá	710	Panajachel	8	Panajachel	5	Mayo	2023-05-20T00:00:00	2024-11-08T07:00:00	2	Temperatura media	21.8
37934	7	Sololá	710	Panajachel	8	Panajachel	5	Mayo	2023-05-20T00:00:00	2024-11-08T07:00:00	4	Temperatura máxima	21.8
37935	7	Sololá	710	Panajachel	8	Panajachel	5	Mayo	2023-05-20T00:00:00	2024-11-08T07:00:00	3	Temperatura mínima	19.3
37936	7	Sololá	710	Panajachel	8	Panajachel	5	Mayo	2023-05-20T00:00:00	2024-11-08T07:00:00	5	Humedad	64
37937	7	Sololá	710	Panajachel	8	Panajachel	5	Mayo	2023-05-20T00:00:00	2024-11-08T07:00:00	6	Velocidad del viento	0
37938	7	Sololá	710	Panajachel	8	Panajachel	5	Mayo	2023-05-20T00:00:00	2024-11-08T07:00:00	7	Dirección del viento	0
37939	7	Sololá	710	Panajachel	8	Panajachel	5	Mayo	2023-05-20T00:00:00	2024-11-08T07:00:00	1	Precipitación	0
37940	7	Sololá	710	Panajachel	8	Panajachel	5	Mayo	2023-05-20T00:00:00	2024-11-08T07:00:00	8	Radiación solar	121
37941	7	Sololá	710	Panajachel	8	Panajachel	5	Mayo	2023-05-20T00:00:00	2024-11-08T08:00:00	2	Temperatura media	23.1
37942	7	Sololá	710	Panajachel	8	Panajachel	5	Mayo	2023-05-20T00:00:00	2024-11-08T08:00:00	4	Temperatura máxima	23.6
37943	7	Sololá	710	Panajachel	8	Panajachel	5	Mayo	2023-05-20T00:00:00	2024-11-08T08:00:00	3	Temperatura mínima	21.8
37944	7	Sololá	710	Panajachel	8	Panajachel	5	Mayo	2023-05-20T00:00:00	2024-11-08T08:00:00	5	Humedad	62
37945	7	Sololá	710	Panajachel	8	Panajachel	5	Mayo	2023-05-20T00:00:00	2024-11-08T08:00:00	6	Velocidad del viento	1.6
37946	7	Sololá	710	Panajachel	8	Panajachel	5	Mayo	2023-05-20T00:00:00	2024-11-08T08:00:00	7	Dirección del viento	1.61
37947	7	Sololá	710	Panajachel	8	Panajachel	5	Mayo	2023-05-20T00:00:00	2024-11-08T08:00:00	1	Precipitación	0
37948	7	Sololá	710	Panajachel	8	Panajachel	5	Mayo	2023-05-20T00:00:00	2024-11-08T08:00:00	8	Radiación solar	334
37949	7	Sololá	710	Panajachel	8	Panajachel	5	Mayo	2023-05-20T00:00:00	2024-11-08T09:00:00	2	Temperatura media	24.1
37950	7	Sololá	710	Panajachel	8	Panajachel	5	Mayo	2023-05-20T00:00:00	2024-11-08T09:00:00	4	Temperatura máxima	24.1
37951	7	Sololá	710	Panajachel	8	Panajachel	5	Mayo	2023-05-20T00:00:00	2024-11-08T09:00:00	3	Temperatura mínima	23.1
37952	7	Sololá	710	Panajachel	8	Panajachel	5	Mayo	2023-05-20T00:00:00	2024-11-08T09:00:00	5	Humedad	58
37953	7	Sololá	710	Panajachel	8	Panajachel	5	Mayo	2023-05-20T00:00:00	2024-11-08T09:00:00	6	Velocidad del viento	3.2
37954	7	Sololá	710	Panajachel	8	Panajachel	5	Mayo	2023-05-20T00:00:00	2024-11-08T09:00:00	7	Dirección del viento	3.22
37955	7	Sololá	710	Panajachel	8	Panajachel	5	Mayo	2023-05-20T00:00:00	2024-11-08T09:00:00	1	Precipitación	0
37956	7	Sololá	710	Panajachel	8	Panajachel	5	Mayo	2023-05-20T00:00:00	2024-11-08T09:00:00	8	Radiación solar	558
37957	7	Sololá	710	Panajachel	8	Panajachel	5	Mayo	2023-05-20T00:00:00	2024-11-08T10:00:00	2	Temperatura media	25.9
37958	7	Sololá	710	Panajachel	8	Panajachel	5	Mayo	2023-05-20T00:00:00	2024-11-08T10:00:00	4	Temperatura máxima	26.2
37959	7	Sololá	710	Panajachel	8	Panajachel	5	Mayo	2023-05-20T00:00:00	2024-11-08T10:00:00	3	Temperatura mínima	24
37960	7	Sololá	710	Panajachel	8	Panajachel	5	Mayo	2023-05-20T00:00:00	2024-11-08T10:00:00	5	Humedad	51
37961	7	Sololá	710	Panajachel	8	Panajachel	5	Mayo	2023-05-20T00:00:00	2024-11-08T10:00:00	6	Velocidad del viento	6.4
37962	7	Sololá	710	Panajachel	8	Panajachel	5	Mayo	2023-05-20T00:00:00	2024-11-08T10:00:00	7	Dirección del viento	6.44
37963	7	Sololá	710	Panajachel	8	Panajachel	5	Mayo	2023-05-20T00:00:00	2024-11-08T10:00:00	1	Precipitación	0
37964	7	Sololá	710	Panajachel	8	Panajachel	5	Mayo	2023-05-20T00:00:00	2024-11-08T10:00:00	8	Radiación solar	744
37965	7	Sololá	710	Panajachel	8	Panajachel	5	Mayo	2023-05-20T00:00:00	2024-11-08T11:00:00	2	Temperatura media	26.4
37966	7	Sololá	710	Panajachel	8	Panajachel	5	Mayo	2023-05-20T00:00:00	2024-11-08T11:00:00	4	Temperatura máxima	26.4
37967	7	Sololá	710	Panajachel	8	Panajachel	5	Mayo	2023-05-20T00:00:00	2024-11-08T11:00:00	3	Temperatura mínima	25.8
37968	7	Sololá	710	Panajachel	8	Panajachel	5	Mayo	2023-05-20T00:00:00	2024-11-08T11:00:00	5	Humedad	48
37969	7	Sololá	710	Panajachel	8	Panajachel	5	Mayo	2023-05-20T00:00:00	2024-11-08T11:00:00	6	Velocidad del viento	11.3
37970	7	Sololá	710	Panajachel	8	Panajachel	5	Mayo	2023-05-20T00:00:00	2024-11-08T11:00:00	7	Dirección del viento	11.27
37971	7	Sololá	710	Panajachel	8	Panajachel	5	Mayo	2023-05-20T00:00:00	2024-11-08T11:00:00	1	Precipitación	0
37972	7	Sololá	710	Panajachel	8	Panajachel	5	Mayo	2023-05-20T00:00:00	2024-11-08T11:00:00	8	Radiación solar	806
37973	7	Sololá	710	Panajachel	8	Panajachel	5	Mayo	2023-05-20T00:00:00	2024-11-08T12:00:00	2	Temperatura media	27.9
37974	7	Sololá	710	Panajachel	8	Panajachel	5	Mayo	2023-05-20T00:00:00	2024-11-08T12:00:00	4	Temperatura máxima	27.9
37975	7	Sololá	710	Panajachel	8	Panajachel	5	Mayo	2023-05-20T00:00:00	2024-11-08T12:00:00	3	Temperatura mínima	26.4
37976	7	Sololá	710	Panajachel	8	Panajachel	5	Mayo	2023-05-20T00:00:00	2024-11-08T12:00:00	5	Humedad	42
37977	7	Sololá	710	Panajachel	8	Panajachel	5	Mayo	2023-05-20T00:00:00	2024-11-08T12:00:00	6	Velocidad del viento	8
37978	7	Sololá	710	Panajachel	8	Panajachel	5	Mayo	2023-05-20T00:00:00	2024-11-08T12:00:00	7	Dirección del viento	8.05
37979	7	Sololá	710	Panajachel	8	Panajachel	5	Mayo	2023-05-20T00:00:00	2024-11-08T12:00:00	1	Precipitación	0
37980	7	Sololá	710	Panajachel	8	Panajachel	5	Mayo	2023-05-20T00:00:00	2024-11-08T12:00:00	8	Radiación solar	878
37981	7	Sololá	710	Panajachel	8	Panajachel	5	Mayo	2023-05-20T00:00:00	2024-11-08T13:00:00	2	Temperatura media	28.1
37982	7	Sololá	710	Panajachel	8	Panajachel	5	Mayo	2023-05-20T00:00:00	2024-11-08T13:00:00	4	Temperatura máxima	28.7
37983	7	Sololá	710	Panajachel	8	Panajachel	5	Mayo	2023-05-20T00:00:00	2024-11-08T13:00:00	3	Temperatura mínima	27.7
37984	7	Sololá	710	Panajachel	8	Panajachel	5	Mayo	2023-05-20T00:00:00	2024-11-08T13:00:00	5	Humedad	43
37985	7	Sololá	710	Panajachel	8	Panajachel	5	Mayo	2023-05-20T00:00:00	2024-11-08T13:00:00	6	Velocidad del viento	8
37986	7	Sololá	710	Panajachel	8	Panajachel	5	Mayo	2023-05-20T00:00:00	2024-11-08T13:00:00	7	Dirección del viento	8.05
37987	7	Sololá	710	Panajachel	8	Panajachel	5	Mayo	2023-05-20T00:00:00	2024-11-08T13:00:00	1	Precipitación	0
37988	7	Sololá	710	Panajachel	8	Panajachel	5	Mayo	2023-05-20T00:00:00	2024-11-08T13:00:00	8	Radiación solar	864
37989	7	Sololá	710	Panajachel	8	Panajachel	5	Mayo	2023-05-20T00:00:00	2024-11-08T14:00:00	2	Temperatura media	28.9
37990	7	Sololá	710	Panajachel	8	Panajachel	5	Mayo	2023-05-20T00:00:00	2024-11-08T14:00:00	4	Temperatura máxima	29.3
37991	7	Sololá	710	Panajachel	8	Panajachel	5	Mayo	2023-05-20T00:00:00	2024-11-08T14:00:00	3	Temperatura mínima	28.1
37992	7	Sololá	710	Panajachel	8	Panajachel	5	Mayo	2023-05-20T00:00:00	2024-11-08T14:00:00	5	Humedad	39
37993	7	Sololá	710	Panajachel	8	Panajachel	5	Mayo	2023-05-20T00:00:00	2024-11-08T14:00:00	6	Velocidad del viento	9.7
37994	7	Sololá	710	Panajachel	8	Panajachel	5	Mayo	2023-05-20T00:00:00	2024-11-08T14:00:00	7	Dirección del viento	9.66
37995	7	Sololá	710	Panajachel	8	Panajachel	5	Mayo	2023-05-20T00:00:00	2024-11-08T14:00:00	1	Precipitación	0
37996	7	Sololá	710	Panajachel	8	Panajachel	5	Mayo	2023-05-20T00:00:00	2024-11-08T14:00:00	8	Radiación solar	859
37997	7	Sololá	710	Panajachel	8	Panajachel	5	Mayo	2023-05-20T00:00:00	2024-11-08T15:00:00	2	Temperatura media	26.6
37998	7	Sololá	710	Panajachel	8	Panajachel	5	Mayo	2023-05-20T00:00:00	2024-11-08T15:00:00	4	Temperatura máxima	29.2
37999	7	Sololá	710	Panajachel	8	Panajachel	5	Mayo	2023-05-20T00:00:00	2024-11-08T15:00:00	3	Temperatura mínima	26.6
38000	7	Sololá	710	Panajachel	8	Panajachel	5	Mayo	2023-05-20T00:00:00	2024-11-08T15:00:00	5	Humedad	70
38001	7	Sololá	710	Panajachel	8	Panajachel	5	Mayo	2023-05-20T00:00:00	2024-11-08T15:00:00	6	Velocidad del viento	8
38002	7	Sololá	710	Panajachel	8	Panajachel	5	Mayo	2023-05-20T00:00:00	2024-11-08T15:00:00	7	Dirección del viento	8.05
38003	7	Sololá	710	Panajachel	8	Panajachel	5	Mayo	2023-05-20T00:00:00	2024-11-08T15:00:00	1	Precipitación	0
38004	7	Sololá	710	Panajachel	8	Panajachel	5	Mayo	2023-05-20T00:00:00	2024-11-08T15:00:00	8	Radiación solar	723
38005	7	Sololá	710	Panajachel	8	Panajachel	5	Mayo	2023-05-20T00:00:00	2024-11-08T16:00:00	2	Temperatura media	25.8
38006	7	Sololá	710	Panajachel	8	Panajachel	5	Mayo	2023-05-20T00:00:00	2024-11-08T16:00:00	4	Temperatura máxima	26.5
38007	7	Sololá	710	Panajachel	8	Panajachel	5	Mayo	2023-05-20T00:00:00	2024-11-08T16:00:00	3	Temperatura mínima	25.6
38008	7	Sololá	710	Panajachel	8	Panajachel	5	Mayo	2023-05-20T00:00:00	2024-11-08T16:00:00	5	Humedad	71
38009	7	Sololá	710	Panajachel	8	Panajachel	5	Mayo	2023-05-20T00:00:00	2024-11-08T16:00:00	6	Velocidad del viento	3.2
38010	7	Sololá	710	Panajachel	8	Panajachel	5	Mayo	2023-05-20T00:00:00	2024-11-08T16:00:00	7	Dirección del viento	3.22
38011	7	Sololá	710	Panajachel	8	Panajachel	5	Mayo	2023-05-20T00:00:00	2024-11-08T16:00:00	1	Precipitación	0
38012	7	Sololá	710	Panajachel	8	Panajachel	5	Mayo	2023-05-20T00:00:00	2024-11-08T16:00:00	8	Radiación solar	297
38013	7	Sololá	710	Panajachel	8	Panajachel	5	Mayo	2023-05-20T00:00:00	2024-11-08T17:00:00	2	Temperatura media	26.7
38014	7	Sololá	710	Panajachel	8	Panajachel	5	Mayo	2023-05-20T00:00:00	2024-11-08T17:00:00	4	Temperatura máxima	26.7
38015	7	Sololá	710	Panajachel	8	Panajachel	5	Mayo	2023-05-20T00:00:00	2024-11-08T17:00:00	3	Temperatura mínima	25.7
38016	7	Sololá	710	Panajachel	8	Panajachel	5	Mayo	2023-05-20T00:00:00	2024-11-08T17:00:00	5	Humedad	47
38017	7	Sololá	710	Panajachel	8	Panajachel	5	Mayo	2023-05-20T00:00:00	2024-11-08T17:00:00	6	Velocidad del viento	4.8
38018	7	Sololá	710	Panajachel	8	Panajachel	5	Mayo	2023-05-20T00:00:00	2024-11-08T17:00:00	7	Dirección del viento	4.83
38019	7	Sololá	710	Panajachel	8	Panajachel	5	Mayo	2023-05-20T00:00:00	2024-11-08T17:00:00	1	Precipitación	0
38020	7	Sololá	710	Panajachel	8	Panajachel	5	Mayo	2023-05-20T00:00:00	2024-11-08T17:00:00	8	Radiación solar	91
38021	7	Sololá	710	Panajachel	8	Panajachel	5	Mayo	2023-05-20T00:00:00	2024-11-08T18:00:00	2	Temperatura media	25.4
38022	7	Sololá	710	Panajachel	8	Panajachel	5	Mayo	2023-05-20T00:00:00	2024-11-08T18:00:00	4	Temperatura máxima	26.7
38023	7	Sololá	710	Panajachel	8	Panajachel	5	Mayo	2023-05-20T00:00:00	2024-11-08T18:00:00	3	Temperatura mínima	25.2
38024	7	Sololá	710	Panajachel	8	Panajachel	5	Mayo	2023-05-20T00:00:00	2024-11-08T18:00:00	5	Humedad	50
38025	7	Sololá	710	Panajachel	8	Panajachel	5	Mayo	2023-05-20T00:00:00	2024-11-08T18:00:00	6	Velocidad del viento	4.8
38026	7	Sololá	710	Panajachel	8	Panajachel	5	Mayo	2023-05-20T00:00:00	2024-11-08T18:00:00	7	Dirección del viento	4.83
38027	7	Sololá	710	Panajachel	8	Panajachel	5	Mayo	2023-05-20T00:00:00	2024-11-08T18:00:00	1	Precipitación	0
38028	7	Sololá	710	Panajachel	8	Panajachel	5	Mayo	2023-05-20T00:00:00	2024-11-08T18:00:00	8	Radiación solar	67
38029	7	Sololá	710	Panajachel	8	Panajachel	5	Mayo	2023-05-20T00:00:00	2024-11-08T19:00:00	2	Temperatura media	23.6
38030	7	Sololá	710	Panajachel	8	Panajachel	5	Mayo	2023-05-20T00:00:00	2024-11-08T19:00:00	4	Temperatura máxima	25.4
38031	7	Sololá	710	Panajachel	8	Panajachel	5	Mayo	2023-05-20T00:00:00	2024-11-08T19:00:00	3	Temperatura mínima	23.6
38032	7	Sololá	710	Panajachel	8	Panajachel	5	Mayo	2023-05-20T00:00:00	2024-11-08T19:00:00	5	Humedad	59
38033	7	Sololá	710	Panajachel	8	Panajachel	5	Mayo	2023-05-20T00:00:00	2024-11-08T19:00:00	6	Velocidad del viento	6.4
38034	7	Sololá	710	Panajachel	8	Panajachel	5	Mayo	2023-05-20T00:00:00	2024-11-08T19:00:00	7	Dirección del viento	6.44
38035	7	Sololá	710	Panajachel	8	Panajachel	5	Mayo	2023-05-20T00:00:00	2024-11-08T19:00:00	1	Precipitación	0
38036	7	Sololá	710	Panajachel	8	Panajachel	5	Mayo	2023-05-20T00:00:00	2024-11-08T19:00:00	8	Radiación solar	0
38037	7	Sololá	710	Panajachel	8	Panajachel	5	Mayo	2023-05-20T00:00:00	2024-11-08T20:00:00	2	Temperatura media	22.7
38038	7	Sololá	710	Panajachel	8	Panajachel	5	Mayo	2023-05-20T00:00:00	2024-11-08T20:00:00	4	Temperatura máxima	23.6
38039	7	Sololá	710	Panajachel	8	Panajachel	5	Mayo	2023-05-20T00:00:00	2024-11-08T20:00:00	3	Temperatura mínima	22.6
38040	7	Sololá	710	Panajachel	8	Panajachel	5	Mayo	2023-05-20T00:00:00	2024-11-08T20:00:00	5	Humedad	64
38041	7	Sololá	710	Panajachel	8	Panajachel	5	Mayo	2023-05-20T00:00:00	2024-11-08T20:00:00	6	Velocidad del viento	9.7
38042	7	Sololá	710	Panajachel	8	Panajachel	5	Mayo	2023-05-20T00:00:00	2024-11-08T20:00:00	7	Dirección del viento	9.66
38043	7	Sololá	710	Panajachel	8	Panajachel	5	Mayo	2023-05-20T00:00:00	2024-11-08T20:00:00	1	Precipitación	0
38044	7	Sololá	710	Panajachel	8	Panajachel	5	Mayo	2023-05-20T00:00:00	2024-11-08T20:00:00	8	Radiación solar	0
38045	7	Sololá	710	Panajachel	8	Panajachel	5	Mayo	2023-05-20T00:00:00	2024-11-08T21:00:00	2	Temperatura media	22.2
38046	7	Sololá	710	Panajachel	8	Panajachel	5	Mayo	2023-05-20T00:00:00	2024-11-08T21:00:00	4	Temperatura máxima	22.7
38047	7	Sololá	710	Panajachel	8	Panajachel	5	Mayo	2023-05-20T00:00:00	2024-11-08T21:00:00	3	Temperatura mínima	22.2
38048	7	Sololá	710	Panajachel	8	Panajachel	5	Mayo	2023-05-20T00:00:00	2024-11-08T21:00:00	5	Humedad	66
38049	7	Sololá	710	Panajachel	8	Panajachel	5	Mayo	2023-05-20T00:00:00	2024-11-08T21:00:00	6	Velocidad del viento	8
38050	7	Sololá	710	Panajachel	8	Panajachel	5	Mayo	2023-05-20T00:00:00	2024-11-08T21:00:00	7	Dirección del viento	8.05
38051	7	Sololá	710	Panajachel	8	Panajachel	5	Mayo	2023-05-20T00:00:00	2024-11-08T21:00:00	1	Precipitación	0
38052	7	Sololá	710	Panajachel	8	Panajachel	5	Mayo	2023-05-20T00:00:00	2024-11-08T21:00:00	8	Radiación solar	0
38053	7	Sololá	710	Panajachel	8	Panajachel	5	Mayo	2023-05-20T00:00:00	2024-11-08T22:00:00	2	Temperatura media	21.8
38054	7	Sololá	710	Panajachel	8	Panajachel	5	Mayo	2023-05-20T00:00:00	2024-11-08T22:00:00	4	Temperatura máxima	22.2
38055	7	Sololá	710	Panajachel	8	Panajachel	5	Mayo	2023-05-20T00:00:00	2024-11-08T22:00:00	3	Temperatura mínima	21.8
38056	7	Sololá	710	Panajachel	8	Panajachel	5	Mayo	2023-05-20T00:00:00	2024-11-08T22:00:00	5	Humedad	65
38057	7	Sololá	710	Panajachel	8	Panajachel	5	Mayo	2023-05-20T00:00:00	2024-11-08T22:00:00	6	Velocidad del viento	6.4
38058	7	Sololá	710	Panajachel	8	Panajachel	5	Mayo	2023-05-20T00:00:00	2024-11-08T22:00:00	7	Dirección del viento	6.44
38059	7	Sololá	710	Panajachel	8	Panajachel	5	Mayo	2023-05-20T00:00:00	2024-11-08T22:00:00	1	Precipitación	0
38060	7	Sololá	710	Panajachel	8	Panajachel	5	Mayo	2023-05-20T00:00:00	2024-11-08T22:00:00	8	Radiación solar	0
38061	7	Sololá	710	Panajachel	8	Panajachel	5	Mayo	2023-05-20T00:00:00	2024-11-08T23:00:00	2	Temperatura media	20.9
38062	7	Sololá	710	Panajachel	8	Panajachel	5	Mayo	2023-05-20T00:00:00	2024-11-08T23:00:00	4	Temperatura máxima	21.8
38063	7	Sololá	710	Panajachel	8	Panajachel	5	Mayo	2023-05-20T00:00:00	2024-11-08T23:00:00	3	Temperatura mínima	20.9
38064	7	Sololá	710	Panajachel	8	Panajachel	5	Mayo	2023-05-20T00:00:00	2024-11-08T23:00:00	5	Humedad	67
38065	7	Sololá	710	Panajachel	8	Panajachel	5	Mayo	2023-05-20T00:00:00	2024-11-08T23:00:00	6	Velocidad del viento	6.4
38066	7	Sololá	710	Panajachel	8	Panajachel	5	Mayo	2023-05-20T00:00:00	2024-11-08T23:00:00	7	Dirección del viento	6.44
38067	7	Sololá	710	Panajachel	8	Panajachel	5	Mayo	2023-05-20T00:00:00	2024-11-08T23:00:00	1	Precipitación	0
38068	7	Sololá	710	Panajachel	8	Panajachel	5	Mayo	2023-05-20T00:00:00	2024-11-08T23:00:00	8	Radiación solar	0
38069	7	Sololá	710	Panajachel	8	Panajachel	5	Mayo	2023-05-21T00:00:00	2024-11-08T00:00:00	2	Temperatura media	20.7
38070	7	Sololá	710	Panajachel	8	Panajachel	5	Mayo	2023-05-21T00:00:00	2024-11-08T00:00:00	4	Temperatura máxima	21.1
38071	7	Sololá	710	Panajachel	8	Panajachel	5	Mayo	2023-05-21T00:00:00	2024-11-08T00:00:00	3	Temperatura mínima	20.7
38072	7	Sololá	710	Panajachel	8	Panajachel	5	Mayo	2023-05-21T00:00:00	2024-11-08T00:00:00	5	Humedad	67
38073	7	Sololá	710	Panajachel	8	Panajachel	5	Mayo	2023-05-21T00:00:00	2024-11-08T00:00:00	6	Velocidad del viento	8
38074	7	Sololá	710	Panajachel	8	Panajachel	5	Mayo	2023-05-21T00:00:00	2024-11-08T00:00:00	7	Dirección del viento	8.05
38075	7	Sololá	710	Panajachel	8	Panajachel	5	Mayo	2023-05-21T00:00:00	2024-11-08T00:00:00	1	Precipitación	0
38076	7	Sololá	710	Panajachel	8	Panajachel	5	Mayo	2023-05-21T00:00:00	2024-11-08T00:00:00	8	Radiación solar	0
38077	7	Sololá	710	Panajachel	8	Panajachel	5	Mayo	2023-05-21T00:00:00	2024-11-08T01:00:00	2	Temperatura media	20.4
38078	7	Sololá	710	Panajachel	8	Panajachel	5	Mayo	2023-05-21T00:00:00	2024-11-08T01:00:00	4	Temperatura máxima	20.9
38079	7	Sololá	710	Panajachel	8	Panajachel	5	Mayo	2023-05-21T00:00:00	2024-11-08T01:00:00	3	Temperatura mínima	20.4
38080	7	Sololá	710	Panajachel	8	Panajachel	5	Mayo	2023-05-21T00:00:00	2024-11-08T01:00:00	5	Humedad	68
38081	7	Sololá	710	Panajachel	8	Panajachel	5	Mayo	2023-05-21T00:00:00	2024-11-08T01:00:00	6	Velocidad del viento	8
38082	7	Sololá	710	Panajachel	8	Panajachel	5	Mayo	2023-05-21T00:00:00	2024-11-08T01:00:00	7	Dirección del viento	8.05
38083	7	Sololá	710	Panajachel	8	Panajachel	5	Mayo	2023-05-21T00:00:00	2024-11-08T01:00:00	1	Precipitación	0
38084	7	Sololá	710	Panajachel	8	Panajachel	5	Mayo	2023-05-21T00:00:00	2024-11-08T01:00:00	8	Radiación solar	0
38085	7	Sololá	710	Panajachel	8	Panajachel	5	Mayo	2023-05-21T00:00:00	2024-11-08T02:00:00	2	Temperatura media	20.5
38086	7	Sololá	710	Panajachel	8	Panajachel	5	Mayo	2023-05-21T00:00:00	2024-11-08T02:00:00	4	Temperatura máxima	20.5
38087	7	Sololá	710	Panajachel	8	Panajachel	5	Mayo	2023-05-21T00:00:00	2024-11-08T02:00:00	3	Temperatura mínima	19.3
38088	7	Sololá	710	Panajachel	8	Panajachel	5	Mayo	2023-05-21T00:00:00	2024-11-08T02:00:00	5	Humedad	68
38089	7	Sololá	710	Panajachel	8	Panajachel	5	Mayo	2023-05-21T00:00:00	2024-11-08T02:00:00	6	Velocidad del viento	4.8
38090	7	Sololá	710	Panajachel	8	Panajachel	5	Mayo	2023-05-21T00:00:00	2024-11-08T02:00:00	7	Dirección del viento	4.83
38091	7	Sololá	710	Panajachel	8	Panajachel	5	Mayo	2023-05-21T00:00:00	2024-11-08T02:00:00	1	Precipitación	0
38092	7	Sololá	710	Panajachel	8	Panajachel	5	Mayo	2023-05-21T00:00:00	2024-11-08T02:00:00	8	Radiación solar	0
38093	7	Sololá	710	Panajachel	8	Panajachel	5	Mayo	2023-05-21T00:00:00	2024-11-08T03:00:00	2	Temperatura media	19.9
38094	7	Sololá	710	Panajachel	8	Panajachel	5	Mayo	2023-05-21T00:00:00	2024-11-08T03:00:00	4	Temperatura máxima	20.7
38095	7	Sololá	710	Panajachel	8	Panajachel	5	Mayo	2023-05-21T00:00:00	2024-11-08T03:00:00	3	Temperatura mínima	19.8
38096	7	Sololá	710	Panajachel	8	Panajachel	5	Mayo	2023-05-21T00:00:00	2024-11-08T03:00:00	5	Humedad	70
38097	7	Sololá	710	Panajachel	8	Panajachel	5	Mayo	2023-05-21T00:00:00	2024-11-08T03:00:00	6	Velocidad del viento	9.7
38098	7	Sololá	710	Panajachel	8	Panajachel	5	Mayo	2023-05-21T00:00:00	2024-11-08T03:00:00	7	Dirección del viento	9.66
38099	7	Sololá	710	Panajachel	8	Panajachel	5	Mayo	2023-05-21T00:00:00	2024-11-08T03:00:00	1	Precipitación	0
38100	7	Sololá	710	Panajachel	8	Panajachel	5	Mayo	2023-05-21T00:00:00	2024-11-08T03:00:00	8	Radiación solar	0
38101	7	Sololá	710	Panajachel	8	Panajachel	5	Mayo	2023-05-21T00:00:00	2024-11-08T04:00:00	2	Temperatura media	18.7
38102	7	Sololá	710	Panajachel	8	Panajachel	5	Mayo	2023-05-21T00:00:00	2024-11-08T04:00:00	4	Temperatura máxima	19.9
38103	7	Sololá	710	Panajachel	8	Panajachel	5	Mayo	2023-05-21T00:00:00	2024-11-08T04:00:00	3	Temperatura mínima	18.7
38104	7	Sololá	710	Panajachel	8	Panajachel	5	Mayo	2023-05-21T00:00:00	2024-11-08T04:00:00	5	Humedad	73
38105	7	Sololá	710	Panajachel	8	Panajachel	5	Mayo	2023-05-21T00:00:00	2024-11-08T04:00:00	6	Velocidad del viento	3.2
38106	7	Sololá	710	Panajachel	8	Panajachel	5	Mayo	2023-05-21T00:00:00	2024-11-08T04:00:00	7	Dirección del viento	3.22
38107	7	Sololá	710	Panajachel	8	Panajachel	5	Mayo	2023-05-21T00:00:00	2024-11-08T04:00:00	1	Precipitación	0
38108	7	Sololá	710	Panajachel	8	Panajachel	5	Mayo	2023-05-21T00:00:00	2024-11-08T04:00:00	8	Radiación solar	0
38109	7	Sololá	710	Panajachel	8	Panajachel	5	Mayo	2023-05-21T00:00:00	2024-11-08T05:00:00	2	Temperatura media	19
38110	7	Sololá	710	Panajachel	8	Panajachel	5	Mayo	2023-05-21T00:00:00	2024-11-08T05:00:00	4	Temperatura máxima	19
38111	7	Sololá	710	Panajachel	8	Panajachel	5	Mayo	2023-05-21T00:00:00	2024-11-08T05:00:00	3	Temperatura mínima	18.1
38112	7	Sololá	710	Panajachel	8	Panajachel	5	Mayo	2023-05-21T00:00:00	2024-11-08T05:00:00	5	Humedad	72
38113	7	Sololá	710	Panajachel	8	Panajachel	5	Mayo	2023-05-21T00:00:00	2024-11-08T05:00:00	6	Velocidad del viento	3.2
38114	7	Sololá	710	Panajachel	8	Panajachel	5	Mayo	2023-05-21T00:00:00	2024-11-08T05:00:00	7	Dirección del viento	3.22
38115	7	Sololá	710	Panajachel	8	Panajachel	5	Mayo	2023-05-21T00:00:00	2024-11-08T05:00:00	1	Precipitación	0
38116	7	Sololá	710	Panajachel	8	Panajachel	5	Mayo	2023-05-21T00:00:00	2024-11-08T05:00:00	8	Radiación solar	0
38117	7	Sololá	710	Panajachel	8	Panajachel	5	Mayo	2023-05-21T00:00:00	2024-11-08T06:00:00	2	Temperatura media	19.6
38118	7	Sololá	710	Panajachel	8	Panajachel	5	Mayo	2023-05-21T00:00:00	2024-11-08T06:00:00	4	Temperatura máxima	19.6
38119	7	Sololá	710	Panajachel	8	Panajachel	5	Mayo	2023-05-21T00:00:00	2024-11-08T06:00:00	3	Temperatura mínima	18.9
38120	7	Sololá	710	Panajachel	8	Panajachel	5	Mayo	2023-05-21T00:00:00	2024-11-08T06:00:00	5	Humedad	71
38121	7	Sololá	710	Panajachel	8	Panajachel	5	Mayo	2023-05-21T00:00:00	2024-11-08T06:00:00	6	Velocidad del viento	0
38122	7	Sololá	710	Panajachel	8	Panajachel	5	Mayo	2023-05-21T00:00:00	2024-11-08T06:00:00	7	Dirección del viento	0
38123	7	Sololá	710	Panajachel	8	Panajachel	5	Mayo	2023-05-21T00:00:00	2024-11-08T06:00:00	1	Precipitación	0
38124	7	Sololá	710	Panajachel	8	Panajachel	5	Mayo	2023-05-21T00:00:00	2024-11-08T06:00:00	8	Radiación solar	0
38125	7	Sololá	710	Panajachel	8	Panajachel	5	Mayo	2023-05-21T00:00:00	2024-11-08T07:00:00	2	Temperatura media	20.6
38126	7	Sololá	710	Panajachel	8	Panajachel	5	Mayo	2023-05-21T00:00:00	2024-11-08T07:00:00	4	Temperatura máxima	21.3
38127	7	Sololá	710	Panajachel	8	Panajachel	5	Mayo	2023-05-21T00:00:00	2024-11-08T07:00:00	3	Temperatura mínima	19.6
38128	7	Sololá	710	Panajachel	8	Panajachel	5	Mayo	2023-05-21T00:00:00	2024-11-08T07:00:00	5	Humedad	70
38129	7	Sololá	710	Panajachel	8	Panajachel	5	Mayo	2023-05-21T00:00:00	2024-11-08T07:00:00	6	Velocidad del viento	9.7
38130	7	Sololá	710	Panajachel	8	Panajachel	5	Mayo	2023-05-21T00:00:00	2024-11-08T07:00:00	7	Dirección del viento	9.66
38131	7	Sololá	710	Panajachel	8	Panajachel	5	Mayo	2023-05-21T00:00:00	2024-11-08T07:00:00	1	Precipitación	0
38132	7	Sololá	710	Panajachel	8	Panajachel	5	Mayo	2023-05-21T00:00:00	2024-11-08T07:00:00	8	Radiación solar	19
38133	7	Sololá	710	Panajachel	8	Panajachel	5	Mayo	2023-05-21T00:00:00	2024-11-08T08:00:00	2	Temperatura media	22.1
38134	7	Sololá	710	Panajachel	8	Panajachel	5	Mayo	2023-05-21T00:00:00	2024-11-08T08:00:00	4	Temperatura máxima	22.4
38135	7	Sololá	710	Panajachel	8	Panajachel	5	Mayo	2023-05-21T00:00:00	2024-11-08T08:00:00	3	Temperatura mínima	20.6
38136	7	Sololá	710	Panajachel	8	Panajachel	5	Mayo	2023-05-21T00:00:00	2024-11-08T08:00:00	5	Humedad	66
38137	7	Sololá	710	Panajachel	8	Panajachel	5	Mayo	2023-05-21T00:00:00	2024-11-08T08:00:00	6	Velocidad del viento	8
38138	7	Sololá	710	Panajachel	8	Panajachel	5	Mayo	2023-05-21T00:00:00	2024-11-08T08:00:00	7	Dirección del viento	8.05
38139	7	Sololá	710	Panajachel	8	Panajachel	5	Mayo	2023-05-21T00:00:00	2024-11-08T08:00:00	1	Precipitación	0
38140	7	Sololá	710	Panajachel	8	Panajachel	5	Mayo	2023-05-21T00:00:00	2024-11-08T08:00:00	8	Radiación solar	176
38141	7	Sololá	710	Panajachel	8	Panajachel	5	Mayo	2023-05-21T00:00:00	2024-11-08T09:00:00	2	Temperatura media	22.8
38142	7	Sololá	710	Panajachel	8	Panajachel	5	Mayo	2023-05-21T00:00:00	2024-11-08T09:00:00	4	Temperatura máxima	22.8
38143	7	Sololá	710	Panajachel	8	Panajachel	5	Mayo	2023-05-21T00:00:00	2024-11-08T09:00:00	3	Temperatura mínima	22
38144	7	Sololá	710	Panajachel	8	Panajachel	5	Mayo	2023-05-21T00:00:00	2024-11-08T09:00:00	5	Humedad	65
38145	7	Sololá	710	Panajachel	8	Panajachel	5	Mayo	2023-05-21T00:00:00	2024-11-08T09:00:00	6	Velocidad del viento	4.8
38146	7	Sololá	710	Panajachel	8	Panajachel	5	Mayo	2023-05-21T00:00:00	2024-11-08T09:00:00	7	Dirección del viento	4.83
38147	7	Sololá	710	Panajachel	8	Panajachel	5	Mayo	2023-05-21T00:00:00	2024-11-08T09:00:00	1	Precipitación	0
38148	7	Sololá	710	Panajachel	8	Panajachel	5	Mayo	2023-05-21T00:00:00	2024-11-08T09:00:00	8	Radiación solar	153
38149	7	Sololá	710	Panajachel	8	Panajachel	5	Mayo	2023-05-21T00:00:00	2024-11-08T10:00:00	2	Temperatura media	23.8
38150	7	Sololá	710	Panajachel	8	Panajachel	5	Mayo	2023-05-21T00:00:00	2024-11-08T10:00:00	4	Temperatura máxima	24.2
38151	7	Sololá	710	Panajachel	8	Panajachel	5	Mayo	2023-05-21T00:00:00	2024-11-08T10:00:00	3	Temperatura mínima	22.7
38152	7	Sololá	710	Panajachel	8	Panajachel	5	Mayo	2023-05-21T00:00:00	2024-11-08T10:00:00	5	Humedad	62
38153	7	Sololá	710	Panajachel	8	Panajachel	5	Mayo	2023-05-21T00:00:00	2024-11-08T10:00:00	6	Velocidad del viento	1.6
38154	7	Sololá	710	Panajachel	8	Panajachel	5	Mayo	2023-05-21T00:00:00	2024-11-08T10:00:00	7	Dirección del viento	1.61
38155	7	Sololá	710	Panajachel	8	Panajachel	5	Mayo	2023-05-21T00:00:00	2024-11-08T10:00:00	1	Precipitación	0
38156	7	Sololá	710	Panajachel	8	Panajachel	5	Mayo	2023-05-21T00:00:00	2024-11-08T10:00:00	8	Radiación solar	362
38157	7	Sololá	710	Panajachel	8	Panajachel	5	Mayo	2023-05-21T00:00:00	2024-11-08T11:00:00	2	Temperatura media	24.9
38158	7	Sololá	710	Panajachel	8	Panajachel	5	Mayo	2023-05-21T00:00:00	2024-11-08T11:00:00	4	Temperatura máxima	25.9
38159	7	Sololá	710	Panajachel	8	Panajachel	5	Mayo	2023-05-21T00:00:00	2024-11-08T11:00:00	3	Temperatura mínima	23.8
38160	7	Sololá	710	Panajachel	8	Panajachel	5	Mayo	2023-05-21T00:00:00	2024-11-08T11:00:00	5	Humedad	61
38161	7	Sololá	710	Panajachel	8	Panajachel	5	Mayo	2023-05-21T00:00:00	2024-11-08T11:00:00	6	Velocidad del viento	1.6
38162	7	Sololá	710	Panajachel	8	Panajachel	5	Mayo	2023-05-21T00:00:00	2024-11-08T11:00:00	7	Dirección del viento	1.61
38163	7	Sololá	710	Panajachel	8	Panajachel	5	Mayo	2023-05-21T00:00:00	2024-11-08T11:00:00	1	Precipitación	0
38164	7	Sololá	710	Panajachel	8	Panajachel	5	Mayo	2023-05-21T00:00:00	2024-11-08T11:00:00	8	Radiación solar	537
38165	7	Sololá	710	Panajachel	8	Panajachel	5	Mayo	2023-05-21T00:00:00	2024-11-08T12:00:00	2	Temperatura media	24.8
38166	7	Sololá	710	Panajachel	8	Panajachel	5	Mayo	2023-05-21T00:00:00	2024-11-08T12:00:00	4	Temperatura máxima	25
38167	7	Sololá	710	Panajachel	8	Panajachel	5	Mayo	2023-05-21T00:00:00	2024-11-08T12:00:00	3	Temperatura mínima	24.2
38168	7	Sololá	710	Panajachel	8	Panajachel	5	Mayo	2023-05-21T00:00:00	2024-11-08T12:00:00	5	Humedad	66
38169	7	Sololá	710	Panajachel	8	Panajachel	5	Mayo	2023-05-21T00:00:00	2024-11-08T12:00:00	6	Velocidad del viento	3.2
38170	7	Sololá	710	Panajachel	8	Panajachel	5	Mayo	2023-05-21T00:00:00	2024-11-08T12:00:00	7	Dirección del viento	3.22
38171	7	Sololá	710	Panajachel	8	Panajachel	5	Mayo	2023-05-21T00:00:00	2024-11-08T12:00:00	1	Precipitación	0
38172	7	Sololá	710	Panajachel	8	Panajachel	5	Mayo	2023-05-21T00:00:00	2024-11-08T12:00:00	8	Radiación solar	534
38173	7	Sololá	710	Panajachel	8	Panajachel	5	Mayo	2023-05-21T00:00:00	2024-11-08T13:00:00	2	Temperatura media	23.8
38174	7	Sololá	710	Panajachel	8	Panajachel	5	Mayo	2023-05-21T00:00:00	2024-11-08T13:00:00	4	Temperatura máxima	25.1
38175	7	Sololá	710	Panajachel	8	Panajachel	5	Mayo	2023-05-21T00:00:00	2024-11-08T13:00:00	3	Temperatura mínima	23.6
38176	7	Sololá	710	Panajachel	8	Panajachel	5	Mayo	2023-05-21T00:00:00	2024-11-08T13:00:00	5	Humedad	70
38177	7	Sololá	710	Panajachel	8	Panajachel	5	Mayo	2023-05-21T00:00:00	2024-11-08T13:00:00	6	Velocidad del viento	1.6
38178	7	Sololá	710	Panajachel	8	Panajachel	5	Mayo	2023-05-21T00:00:00	2024-11-08T13:00:00	7	Dirección del viento	1.61
38179	7	Sololá	710	Panajachel	8	Panajachel	5	Mayo	2023-05-21T00:00:00	2024-11-08T13:00:00	1	Precipitación	0
38180	7	Sololá	710	Panajachel	8	Panajachel	5	Mayo	2023-05-21T00:00:00	2024-11-08T13:00:00	8	Radiación solar	369
38181	7	Sololá	710	Panajachel	8	Panajachel	5	Mayo	2023-05-21T00:00:00	2024-11-08T14:00:00	2	Temperatura media	23.2
38182	7	Sololá	710	Panajachel	8	Panajachel	5	Mayo	2023-05-21T00:00:00	2024-11-08T14:00:00	4	Temperatura máxima	23.9
38183	7	Sololá	710	Panajachel	8	Panajachel	5	Mayo	2023-05-21T00:00:00	2024-11-08T14:00:00	3	Temperatura mínima	23.2
38184	7	Sololá	710	Panajachel	8	Panajachel	5	Mayo	2023-05-21T00:00:00	2024-11-08T14:00:00	5	Humedad	73
38185	7	Sololá	710	Panajachel	8	Panajachel	5	Mayo	2023-05-21T00:00:00	2024-11-08T14:00:00	6	Velocidad del viento	0
38186	7	Sololá	710	Panajachel	8	Panajachel	5	Mayo	2023-05-21T00:00:00	2024-11-08T14:00:00	7	Dirección del viento	0
38187	7	Sololá	710	Panajachel	8	Panajachel	5	Mayo	2023-05-21T00:00:00	2024-11-08T14:00:00	1	Precipitación	0
38188	7	Sololá	710	Panajachel	8	Panajachel	5	Mayo	2023-05-21T00:00:00	2024-11-08T14:00:00	8	Radiación solar	215
38189	7	Sololá	710	Panajachel	8	Panajachel	5	Mayo	2023-05-21T00:00:00	2024-11-08T15:00:00	2	Temperatura media	24.1
38190	7	Sololá	710	Panajachel	8	Panajachel	5	Mayo	2023-05-21T00:00:00	2024-11-08T15:00:00	4	Temperatura máxima	24.1
38191	7	Sololá	710	Panajachel	8	Panajachel	5	Mayo	2023-05-21T00:00:00	2024-11-08T15:00:00	3	Temperatura mínima	23.2
38192	7	Sololá	710	Panajachel	8	Panajachel	5	Mayo	2023-05-21T00:00:00	2024-11-08T15:00:00	5	Humedad	73
38193	7	Sololá	710	Panajachel	8	Panajachel	5	Mayo	2023-05-21T00:00:00	2024-11-08T15:00:00	6	Velocidad del viento	3.2
38194	7	Sololá	710	Panajachel	8	Panajachel	5	Mayo	2023-05-21T00:00:00	2024-11-08T15:00:00	7	Dirección del viento	3.22
38195	7	Sololá	710	Panajachel	8	Panajachel	5	Mayo	2023-05-21T00:00:00	2024-11-08T15:00:00	1	Precipitación	0
38196	7	Sololá	710	Panajachel	8	Panajachel	5	Mayo	2023-05-21T00:00:00	2024-11-08T15:00:00	8	Radiación solar	504
38197	7	Sololá	710	Panajachel	8	Panajachel	5	Mayo	2023-05-21T00:00:00	2024-11-08T16:00:00	2	Temperatura media	23.5
38198	7	Sololá	710	Panajachel	8	Panajachel	5	Mayo	2023-05-21T00:00:00	2024-11-08T16:00:00	4	Temperatura máxima	24.2
38199	7	Sololá	710	Panajachel	8	Panajachel	5	Mayo	2023-05-21T00:00:00	2024-11-08T16:00:00	3	Temperatura mínima	23
38200	7	Sololá	710	Panajachel	8	Panajachel	5	Mayo	2023-05-21T00:00:00	2024-11-08T16:00:00	5	Humedad	70
38201	7	Sololá	710	Panajachel	8	Panajachel	5	Mayo	2023-05-21T00:00:00	2024-11-08T16:00:00	6	Velocidad del viento	1.6
38202	7	Sololá	710	Panajachel	8	Panajachel	5	Mayo	2023-05-21T00:00:00	2024-11-08T16:00:00	7	Dirección del viento	1.61
38203	7	Sololá	710	Panajachel	8	Panajachel	5	Mayo	2023-05-21T00:00:00	2024-11-08T16:00:00	1	Precipitación	0
38204	7	Sololá	710	Panajachel	8	Panajachel	5	Mayo	2023-05-21T00:00:00	2024-11-08T16:00:00	8	Radiación solar	216
38205	7	Sololá	710	Panajachel	8	Panajachel	5	Mayo	2023-05-21T00:00:00	2024-11-08T17:00:00	2	Temperatura media	23.1
38206	7	Sololá	710	Panajachel	8	Panajachel	5	Mayo	2023-05-21T00:00:00	2024-11-08T17:00:00	4	Temperatura máxima	23.8
38207	7	Sololá	710	Panajachel	8	Panajachel	5	Mayo	2023-05-21T00:00:00	2024-11-08T17:00:00	3	Temperatura mínima	23.1
38208	7	Sololá	710	Panajachel	8	Panajachel	5	Mayo	2023-05-21T00:00:00	2024-11-08T17:00:00	5	Humedad	78
38209	7	Sololá	710	Panajachel	8	Panajachel	5	Mayo	2023-05-21T00:00:00	2024-11-08T17:00:00	6	Velocidad del viento	1.6
38210	7	Sololá	710	Panajachel	8	Panajachel	5	Mayo	2023-05-21T00:00:00	2024-11-08T17:00:00	7	Dirección del viento	1.61
38211	7	Sololá	710	Panajachel	8	Panajachel	5	Mayo	2023-05-21T00:00:00	2024-11-08T17:00:00	1	Precipitación	0
38212	7	Sololá	710	Panajachel	8	Panajachel	5	Mayo	2023-05-21T00:00:00	2024-11-08T17:00:00	8	Radiación solar	169
38213	7	Sololá	710	Panajachel	8	Panajachel	5	Mayo	2023-05-21T00:00:00	2024-11-08T18:00:00	2	Temperatura media	21.4
38214	7	Sololá	710	Panajachel	8	Panajachel	5	Mayo	2023-05-21T00:00:00	2024-11-08T18:00:00	4	Temperatura máxima	23.1
38215	7	Sololá	710	Panajachel	8	Panajachel	5	Mayo	2023-05-21T00:00:00	2024-11-08T18:00:00	3	Temperatura mínima	21.4
38216	7	Sololá	710	Panajachel	8	Panajachel	5	Mayo	2023-05-21T00:00:00	2024-11-08T18:00:00	5	Humedad	84
38217	7	Sololá	710	Panajachel	8	Panajachel	5	Mayo	2023-05-21T00:00:00	2024-11-08T18:00:00	6	Velocidad del viento	1.6
38218	7	Sololá	710	Panajachel	8	Panajachel	5	Mayo	2023-05-21T00:00:00	2024-11-08T18:00:00	7	Dirección del viento	1.61
38219	7	Sololá	710	Panajachel	8	Panajachel	5	Mayo	2023-05-21T00:00:00	2024-11-08T18:00:00	1	Precipitación	0
38220	7	Sololá	710	Panajachel	8	Panajachel	5	Mayo	2023-05-21T00:00:00	2024-11-08T18:00:00	8	Radiación solar	60
38221	7	Sololá	710	Panajachel	8	Panajachel	5	Mayo	2023-05-21T00:00:00	2024-11-08T19:00:00	2	Temperatura media	21.1
38222	7	Sololá	710	Panajachel	8	Panajachel	5	Mayo	2023-05-21T00:00:00	2024-11-08T19:00:00	4	Temperatura máxima	21.4
38223	7	Sololá	710	Panajachel	8	Panajachel	5	Mayo	2023-05-21T00:00:00	2024-11-08T19:00:00	3	Temperatura mínima	21.1
38224	7	Sololá	710	Panajachel	8	Panajachel	5	Mayo	2023-05-21T00:00:00	2024-11-08T19:00:00	5	Humedad	86
38225	7	Sololá	710	Panajachel	8	Panajachel	5	Mayo	2023-05-21T00:00:00	2024-11-08T19:00:00	6	Velocidad del viento	0
38226	7	Sololá	710	Panajachel	8	Panajachel	5	Mayo	2023-05-21T00:00:00	2024-11-08T19:00:00	7	Dirección del viento	0
38227	7	Sololá	710	Panajachel	8	Panajachel	5	Mayo	2023-05-21T00:00:00	2024-11-08T19:00:00	1	Precipitación	0
38228	7	Sololá	710	Panajachel	8	Panajachel	5	Mayo	2023-05-21T00:00:00	2024-11-08T19:00:00	8	Radiación solar	0
38229	7	Sololá	710	Panajachel	8	Panajachel	5	Mayo	2023-05-21T00:00:00	2024-11-08T20:00:00	2	Temperatura media	20.8
38230	7	Sololá	710	Panajachel	8	Panajachel	5	Mayo	2023-05-21T00:00:00	2024-11-08T20:00:00	4	Temperatura máxima	21.1
38231	7	Sololá	710	Panajachel	8	Panajachel	5	Mayo	2023-05-21T00:00:00	2024-11-08T20:00:00	3	Temperatura mínima	20.8
38232	7	Sololá	710	Panajachel	8	Panajachel	5	Mayo	2023-05-21T00:00:00	2024-11-08T20:00:00	5	Humedad	85
38233	7	Sololá	710	Panajachel	8	Panajachel	5	Mayo	2023-05-21T00:00:00	2024-11-08T20:00:00	6	Velocidad del viento	0
38234	7	Sololá	710	Panajachel	8	Panajachel	5	Mayo	2023-05-21T00:00:00	2024-11-08T20:00:00	7	Dirección del viento	0
38235	7	Sololá	710	Panajachel	8	Panajachel	5	Mayo	2023-05-21T00:00:00	2024-11-08T20:00:00	1	Precipitación	0
38236	7	Sololá	710	Panajachel	8	Panajachel	5	Mayo	2023-05-21T00:00:00	2024-11-08T20:00:00	8	Radiación solar	0
38237	7	Sololá	710	Panajachel	8	Panajachel	5	Mayo	2023-05-21T00:00:00	2024-11-08T21:00:00	2	Temperatura media	20.9
38238	7	Sololá	710	Panajachel	8	Panajachel	5	Mayo	2023-05-21T00:00:00	2024-11-08T21:00:00	4	Temperatura máxima	20.9
38239	7	Sololá	710	Panajachel	8	Panajachel	5	Mayo	2023-05-21T00:00:00	2024-11-08T21:00:00	3	Temperatura mínima	20.7
38240	7	Sololá	710	Panajachel	8	Panajachel	5	Mayo	2023-05-21T00:00:00	2024-11-08T21:00:00	5	Humedad	79
38241	7	Sololá	710	Panajachel	8	Panajachel	5	Mayo	2023-05-21T00:00:00	2024-11-08T21:00:00	6	Velocidad del viento	0
38242	7	Sololá	710	Panajachel	8	Panajachel	5	Mayo	2023-05-21T00:00:00	2024-11-08T21:00:00	7	Dirección del viento	0
38243	7	Sololá	710	Panajachel	8	Panajachel	5	Mayo	2023-05-21T00:00:00	2024-11-08T21:00:00	1	Precipitación	0
38244	7	Sololá	710	Panajachel	8	Panajachel	5	Mayo	2023-05-21T00:00:00	2024-11-08T21:00:00	8	Radiación solar	0
38245	7	Sololá	710	Panajachel	8	Panajachel	5	Mayo	2023-05-21T00:00:00	2024-11-08T22:00:00	2	Temperatura media	21.6
38246	7	Sololá	710	Panajachel	8	Panajachel	5	Mayo	2023-05-21T00:00:00	2024-11-08T22:00:00	4	Temperatura máxima	21.6
38247	7	Sololá	710	Panajachel	8	Panajachel	5	Mayo	2023-05-21T00:00:00	2024-11-08T22:00:00	3	Temperatura mínima	20.9
38248	7	Sololá	710	Panajachel	8	Panajachel	5	Mayo	2023-05-21T00:00:00	2024-11-08T22:00:00	5	Humedad	71
38249	7	Sololá	710	Panajachel	8	Panajachel	5	Mayo	2023-05-21T00:00:00	2024-11-08T22:00:00	6	Velocidad del viento	1.6
38250	7	Sololá	710	Panajachel	8	Panajachel	5	Mayo	2023-05-21T00:00:00	2024-11-08T22:00:00	7	Dirección del viento	1.61
38251	7	Sololá	710	Panajachel	8	Panajachel	5	Mayo	2023-05-21T00:00:00	2024-11-08T22:00:00	1	Precipitación	0
38252	7	Sololá	710	Panajachel	8	Panajachel	5	Mayo	2023-05-21T00:00:00	2024-11-08T22:00:00	8	Radiación solar	0
38253	7	Sololá	710	Panajachel	8	Panajachel	5	Mayo	2023-05-21T00:00:00	2024-11-08T23:00:00	2	Temperatura media	20.4
38254	7	Sololá	710	Panajachel	8	Panajachel	5	Mayo	2023-05-21T00:00:00	2024-11-08T23:00:00	4	Temperatura máxima	21.6
38255	7	Sololá	710	Panajachel	8	Panajachel	5	Mayo	2023-05-21T00:00:00	2024-11-08T23:00:00	3	Temperatura mínima	20.3
38256	7	Sololá	710	Panajachel	8	Panajachel	5	Mayo	2023-05-21T00:00:00	2024-11-08T23:00:00	5	Humedad	76
38257	7	Sololá	710	Panajachel	8	Panajachel	5	Mayo	2023-05-21T00:00:00	2024-11-08T23:00:00	6	Velocidad del viento	1.6
38258	7	Sololá	710	Panajachel	8	Panajachel	5	Mayo	2023-05-21T00:00:00	2024-11-08T23:00:00	7	Dirección del viento	1.61
38259	7	Sololá	710	Panajachel	8	Panajachel	5	Mayo	2023-05-21T00:00:00	2024-11-08T23:00:00	1	Precipitación	0
38260	7	Sololá	710	Panajachel	8	Panajachel	5	Mayo	2023-05-21T00:00:00	2024-11-08T23:00:00	8	Radiación solar	0
38261	7	Sololá	710	Panajachel	8	Panajachel	5	Mayo	2023-05-22T00:00:00	2024-11-08T00:00:00	2	Temperatura media	20.2
38262	7	Sololá	710	Panajachel	8	Panajachel	5	Mayo	2023-05-22T00:00:00	2024-11-08T00:00:00	4	Temperatura máxima	20.5
38263	7	Sololá	710	Panajachel	8	Panajachel	5	Mayo	2023-05-22T00:00:00	2024-11-08T00:00:00	3	Temperatura mínima	20.2
38264	7	Sololá	710	Panajachel	8	Panajachel	5	Mayo	2023-05-22T00:00:00	2024-11-08T00:00:00	5	Humedad	76
38265	7	Sololá	710	Panajachel	8	Panajachel	5	Mayo	2023-05-22T00:00:00	2024-11-08T00:00:00	6	Velocidad del viento	0
38266	7	Sololá	710	Panajachel	8	Panajachel	5	Mayo	2023-05-22T00:00:00	2024-11-08T00:00:00	7	Dirección del viento	0
38267	7	Sololá	710	Panajachel	8	Panajachel	5	Mayo	2023-05-22T00:00:00	2024-11-08T00:00:00	1	Precipitación	0
38268	7	Sololá	710	Panajachel	8	Panajachel	5	Mayo	2023-05-22T00:00:00	2024-11-08T00:00:00	8	Radiación solar	0
38269	7	Sololá	710	Panajachel	8	Panajachel	5	Mayo	2023-05-22T00:00:00	2024-11-08T01:00:00	2	Temperatura media	19.4
38270	7	Sololá	710	Panajachel	8	Panajachel	5	Mayo	2023-05-22T00:00:00	2024-11-08T01:00:00	4	Temperatura máxima	20.3
38271	7	Sololá	710	Panajachel	8	Panajachel	5	Mayo	2023-05-22T00:00:00	2024-11-08T01:00:00	3	Temperatura mínima	19.4
38272	7	Sololá	710	Panajachel	8	Panajachel	5	Mayo	2023-05-22T00:00:00	2024-11-08T01:00:00	5	Humedad	79
38273	7	Sololá	710	Panajachel	8	Panajachel	5	Mayo	2023-05-22T00:00:00	2024-11-08T01:00:00	6	Velocidad del viento	1.6
38274	7	Sololá	710	Panajachel	8	Panajachel	5	Mayo	2023-05-22T00:00:00	2024-11-08T01:00:00	7	Dirección del viento	1.61
38275	7	Sololá	710	Panajachel	8	Panajachel	5	Mayo	2023-05-22T00:00:00	2024-11-08T01:00:00	1	Precipitación	0
38276	7	Sololá	710	Panajachel	8	Panajachel	5	Mayo	2023-05-22T00:00:00	2024-11-08T01:00:00	8	Radiación solar	0
38277	7	Sololá	710	Panajachel	8	Panajachel	5	Mayo	2023-05-22T00:00:00	2024-11-08T02:00:00	2	Temperatura media	19.1
38278	7	Sololá	710	Panajachel	8	Panajachel	5	Mayo	2023-05-22T00:00:00	2024-11-08T02:00:00	4	Temperatura máxima	19.4
38279	7	Sololá	710	Panajachel	8	Panajachel	5	Mayo	2023-05-22T00:00:00	2024-11-08T02:00:00	3	Temperatura mínima	19
38280	7	Sololá	710	Panajachel	8	Panajachel	5	Mayo	2023-05-22T00:00:00	2024-11-08T02:00:00	5	Humedad	80
38281	7	Sololá	710	Panajachel	8	Panajachel	5	Mayo	2023-05-22T00:00:00	2024-11-08T02:00:00	6	Velocidad del viento	0
38282	7	Sololá	710	Panajachel	8	Panajachel	5	Mayo	2023-05-22T00:00:00	2024-11-08T02:00:00	7	Dirección del viento	0
38283	7	Sololá	710	Panajachel	8	Panajachel	5	Mayo	2023-05-22T00:00:00	2024-11-08T02:00:00	1	Precipitación	0
38284	7	Sololá	710	Panajachel	8	Panajachel	5	Mayo	2023-05-22T00:00:00	2024-11-08T02:00:00	8	Radiación solar	0
38285	7	Sololá	710	Panajachel	8	Panajachel	5	Mayo	2023-05-22T00:00:00	2024-11-08T03:00:00	2	Temperatura media	19.3
38286	7	Sololá	710	Panajachel	8	Panajachel	5	Mayo	2023-05-22T00:00:00	2024-11-08T03:00:00	4	Temperatura máxima	19.4
38287	7	Sololá	710	Panajachel	8	Panajachel	5	Mayo	2023-05-22T00:00:00	2024-11-08T03:00:00	3	Temperatura mínima	19.1
38288	7	Sololá	710	Panajachel	8	Panajachel	5	Mayo	2023-05-22T00:00:00	2024-11-08T03:00:00	5	Humedad	80
38289	7	Sololá	710	Panajachel	8	Panajachel	5	Mayo	2023-05-22T00:00:00	2024-11-08T03:00:00	6	Velocidad del viento	0
38290	7	Sololá	710	Panajachel	8	Panajachel	5	Mayo	2023-05-22T00:00:00	2024-11-08T03:00:00	7	Dirección del viento	0
38291	7	Sololá	710	Panajachel	8	Panajachel	5	Mayo	2023-05-22T00:00:00	2024-11-08T03:00:00	1	Precipitación	0
38292	7	Sololá	710	Panajachel	8	Panajachel	5	Mayo	2023-05-22T00:00:00	2024-11-08T03:00:00	8	Radiación solar	0
38293	7	Sololá	710	Panajachel	8	Panajachel	5	Mayo	2023-05-22T00:00:00	2024-11-08T04:00:00	2	Temperatura media	19.4
38294	7	Sololá	710	Panajachel	8	Panajachel	5	Mayo	2023-05-22T00:00:00	2024-11-08T04:00:00	4	Temperatura máxima	19.4
38295	7	Sololá	710	Panajachel	8	Panajachel	5	Mayo	2023-05-22T00:00:00	2024-11-08T04:00:00	3	Temperatura mínima	19.2
38296	7	Sololá	710	Panajachel	8	Panajachel	5	Mayo	2023-05-22T00:00:00	2024-11-08T04:00:00	5	Humedad	81
38297	7	Sololá	710	Panajachel	8	Panajachel	5	Mayo	2023-05-22T00:00:00	2024-11-08T04:00:00	6	Velocidad del viento	0
38298	7	Sololá	710	Panajachel	8	Panajachel	5	Mayo	2023-05-22T00:00:00	2024-11-08T04:00:00	7	Dirección del viento	0
38299	7	Sololá	710	Panajachel	8	Panajachel	5	Mayo	2023-05-22T00:00:00	2024-11-08T04:00:00	1	Precipitación	0
38300	7	Sololá	710	Panajachel	8	Panajachel	5	Mayo	2023-05-22T00:00:00	2024-11-08T04:00:00	8	Radiación solar	0
38301	7	Sololá	710	Panajachel	8	Panajachel	5	Mayo	2023-05-22T00:00:00	2024-11-08T05:00:00	2	Temperatura media	18.2
38302	7	Sololá	710	Panajachel	8	Panajachel	5	Mayo	2023-05-22T00:00:00	2024-11-08T05:00:00	4	Temperatura máxima	19.4
38303	7	Sololá	710	Panajachel	8	Panajachel	5	Mayo	2023-05-22T00:00:00	2024-11-08T05:00:00	3	Temperatura mínima	18.2
38304	7	Sololá	710	Panajachel	8	Panajachel	5	Mayo	2023-05-22T00:00:00	2024-11-08T05:00:00	5	Humedad	88
38305	7	Sololá	710	Panajachel	8	Panajachel	5	Mayo	2023-05-22T00:00:00	2024-11-08T05:00:00	6	Velocidad del viento	0
38306	7	Sololá	710	Panajachel	8	Panajachel	5	Mayo	2023-05-22T00:00:00	2024-11-08T05:00:00	7	Dirección del viento	0
38307	7	Sololá	710	Panajachel	8	Panajachel	5	Mayo	2023-05-22T00:00:00	2024-11-08T05:00:00	1	Precipitación	0
38308	7	Sololá	710	Panajachel	8	Panajachel	5	Mayo	2023-05-22T00:00:00	2024-11-08T05:00:00	8	Radiación solar	0
38309	7	Sololá	710	Panajachel	8	Panajachel	5	Mayo	2023-05-22T00:00:00	2024-11-08T06:00:00	2	Temperatura media	18.4
38310	7	Sololá	710	Panajachel	8	Panajachel	5	Mayo	2023-05-22T00:00:00	2024-11-08T06:00:00	4	Temperatura máxima	18.4
38311	7	Sololá	710	Panajachel	8	Panajachel	5	Mayo	2023-05-22T00:00:00	2024-11-08T06:00:00	3	Temperatura mínima	18.2
38312	7	Sololá	710	Panajachel	8	Panajachel	5	Mayo	2023-05-22T00:00:00	2024-11-08T06:00:00	5	Humedad	88
38313	7	Sololá	710	Panajachel	8	Panajachel	5	Mayo	2023-05-22T00:00:00	2024-11-08T06:00:00	6	Velocidad del viento	1.6
38314	7	Sololá	710	Panajachel	8	Panajachel	5	Mayo	2023-05-22T00:00:00	2024-11-08T06:00:00	7	Dirección del viento	1.61
38315	7	Sololá	710	Panajachel	8	Panajachel	5	Mayo	2023-05-22T00:00:00	2024-11-08T06:00:00	1	Precipitación	0
38316	7	Sololá	710	Panajachel	8	Panajachel	5	Mayo	2023-05-22T00:00:00	2024-11-08T06:00:00	8	Radiación solar	2
38317	7	Sololá	710	Panajachel	8	Panajachel	5	Mayo	2023-05-22T00:00:00	2024-11-08T07:00:00	2	Temperatura media	19.4
38318	7	Sololá	710	Panajachel	8	Panajachel	5	Mayo	2023-05-22T00:00:00	2024-11-08T07:00:00	4	Temperatura máxima	19.4
38319	7	Sololá	710	Panajachel	8	Panajachel	5	Mayo	2023-05-22T00:00:00	2024-11-08T07:00:00	3	Temperatura mínima	18.3
38320	7	Sololá	710	Panajachel	8	Panajachel	5	Mayo	2023-05-22T00:00:00	2024-11-08T07:00:00	5	Humedad	84
38321	7	Sololá	710	Panajachel	8	Panajachel	5	Mayo	2023-05-22T00:00:00	2024-11-08T07:00:00	6	Velocidad del viento	1.6
38322	7	Sololá	710	Panajachel	8	Panajachel	5	Mayo	2023-05-22T00:00:00	2024-11-08T07:00:00	7	Dirección del viento	1.61
38323	7	Sololá	710	Panajachel	8	Panajachel	5	Mayo	2023-05-22T00:00:00	2024-11-08T07:00:00	1	Precipitación	0
38324	7	Sololá	710	Panajachel	8	Panajachel	5	Mayo	2023-05-22T00:00:00	2024-11-08T07:00:00	8	Radiación solar	58
38325	7	Sololá	710	Panajachel	8	Panajachel	5	Mayo	2023-05-22T00:00:00	2024-11-08T08:00:00	2	Temperatura media	21.1
38326	7	Sololá	710	Panajachel	8	Panajachel	5	Mayo	2023-05-22T00:00:00	2024-11-08T08:00:00	4	Temperatura máxima	21.1
38327	7	Sololá	710	Panajachel	8	Panajachel	5	Mayo	2023-05-22T00:00:00	2024-11-08T08:00:00	3	Temperatura mínima	19.4
38328	7	Sololá	710	Panajachel	8	Panajachel	5	Mayo	2023-05-22T00:00:00	2024-11-08T08:00:00	5	Humedad	77
38329	7	Sololá	710	Panajachel	8	Panajachel	5	Mayo	2023-05-22T00:00:00	2024-11-08T08:00:00	6	Velocidad del viento	0
38330	7	Sololá	710	Panajachel	8	Panajachel	5	Mayo	2023-05-22T00:00:00	2024-11-08T08:00:00	7	Dirección del viento	0
38331	7	Sololá	710	Panajachel	8	Panajachel	5	Mayo	2023-05-22T00:00:00	2024-11-08T08:00:00	1	Precipitación	0
38332	7	Sololá	710	Panajachel	8	Panajachel	5	Mayo	2023-05-22T00:00:00	2024-11-08T08:00:00	8	Radiación solar	154
38333	7	Sololá	710	Panajachel	8	Panajachel	5	Mayo	2023-05-22T00:00:00	2024-11-08T09:00:00	2	Temperatura media	22.3
38334	7	Sololá	710	Panajachel	8	Panajachel	5	Mayo	2023-05-22T00:00:00	2024-11-08T09:00:00	4	Temperatura máxima	22.3
38335	7	Sololá	710	Panajachel	8	Panajachel	5	Mayo	2023-05-22T00:00:00	2024-11-08T09:00:00	3	Temperatura mínima	21.1
38336	7	Sololá	710	Panajachel	8	Panajachel	5	Mayo	2023-05-22T00:00:00	2024-11-08T09:00:00	5	Humedad	76
38337	7	Sololá	710	Panajachel	8	Panajachel	5	Mayo	2023-05-22T00:00:00	2024-11-08T09:00:00	6	Velocidad del viento	0
38338	7	Sololá	710	Panajachel	8	Panajachel	5	Mayo	2023-05-22T00:00:00	2024-11-08T09:00:00	7	Dirección del viento	0
38339	7	Sololá	710	Panajachel	8	Panajachel	5	Mayo	2023-05-22T00:00:00	2024-11-08T09:00:00	1	Precipitación	0
38340	7	Sololá	710	Panajachel	8	Panajachel	5	Mayo	2023-05-22T00:00:00	2024-11-08T09:00:00	8	Radiación solar	320
38341	7	Sololá	710	Panajachel	8	Panajachel	5	Mayo	2023-05-22T00:00:00	2024-11-08T10:00:00	2	Temperatura media	22.3
38342	7	Sololá	710	Panajachel	8	Panajachel	5	Mayo	2023-05-22T00:00:00	2024-11-08T10:00:00	4	Temperatura máxima	22.6
38343	7	Sololá	710	Panajachel	8	Panajachel	5	Mayo	2023-05-22T00:00:00	2024-11-08T10:00:00	3	Temperatura mínima	21.7
38344	7	Sololá	710	Panajachel	8	Panajachel	5	Mayo	2023-05-22T00:00:00	2024-11-08T10:00:00	5	Humedad	75
38345	7	Sololá	710	Panajachel	8	Panajachel	5	Mayo	2023-05-22T00:00:00	2024-11-08T10:00:00	6	Velocidad del viento	3.2
38346	7	Sololá	710	Panajachel	8	Panajachel	5	Mayo	2023-05-22T00:00:00	2024-11-08T10:00:00	7	Dirección del viento	3.22
38347	7	Sololá	710	Panajachel	8	Panajachel	5	Mayo	2023-05-22T00:00:00	2024-11-08T10:00:00	1	Precipitación	0
38348	7	Sololá	710	Panajachel	8	Panajachel	5	Mayo	2023-05-22T00:00:00	2024-11-08T10:00:00	8	Radiación solar	481
38349	7	Sololá	710	Panajachel	8	Panajachel	5	Mayo	2023-05-22T00:00:00	2024-11-08T11:00:00	2	Temperatura media	22.9
38350	7	Sololá	710	Panajachel	8	Panajachel	5	Mayo	2023-05-22T00:00:00	2024-11-08T11:00:00	4	Temperatura máxima	24.1
38351	7	Sololá	710	Panajachel	8	Panajachel	5	Mayo	2023-05-22T00:00:00	2024-11-08T11:00:00	3	Temperatura mínima	22.3
38352	7	Sololá	710	Panajachel	8	Panajachel	5	Mayo	2023-05-22T00:00:00	2024-11-08T11:00:00	5	Humedad	74
38353	7	Sololá	710	Panajachel	8	Panajachel	5	Mayo	2023-05-22T00:00:00	2024-11-08T11:00:00	6	Velocidad del viento	4.8
38354	7	Sololá	710	Panajachel	8	Panajachel	5	Mayo	2023-05-22T00:00:00	2024-11-08T11:00:00	7	Dirección del viento	4.83
38355	7	Sololá	710	Panajachel	8	Panajachel	5	Mayo	2023-05-22T00:00:00	2024-11-08T11:00:00	1	Precipitación	0
38356	7	Sololá	710	Panajachel	8	Panajachel	5	Mayo	2023-05-22T00:00:00	2024-11-08T11:00:00	8	Radiación solar	865
38357	7	Sololá	710	Panajachel	8	Panajachel	5	Mayo	2023-05-22T00:00:00	2024-11-08T12:00:00	2	Temperatura media	22.6
38358	7	Sololá	710	Panajachel	8	Panajachel	5	Mayo	2023-05-22T00:00:00	2024-11-08T12:00:00	4	Temperatura máxima	25.2
38359	7	Sololá	710	Panajachel	8	Panajachel	5	Mayo	2023-05-22T00:00:00	2024-11-08T12:00:00	3	Temperatura mínima	22.6
38360	7	Sololá	710	Panajachel	8	Panajachel	5	Mayo	2023-05-22T00:00:00	2024-11-08T12:00:00	5	Humedad	83
38361	7	Sololá	710	Panajachel	8	Panajachel	5	Mayo	2023-05-22T00:00:00	2024-11-08T12:00:00	6	Velocidad del viento	6.4
38362	7	Sololá	710	Panajachel	8	Panajachel	5	Mayo	2023-05-22T00:00:00	2024-11-08T12:00:00	7	Dirección del viento	6.44
38363	7	Sololá	710	Panajachel	8	Panajachel	5	Mayo	2023-05-22T00:00:00	2024-11-08T12:00:00	1	Precipitación	0
38364	7	Sololá	710	Panajachel	8	Panajachel	5	Mayo	2023-05-22T00:00:00	2024-11-08T12:00:00	8	Radiación solar	711
38365	7	Sololá	710	Panajachel	8	Panajachel	5	Mayo	2023-05-22T00:00:00	2024-11-08T13:00:00	2	Temperatura media	23.7
38366	7	Sololá	710	Panajachel	8	Panajachel	5	Mayo	2023-05-22T00:00:00	2024-11-08T13:00:00	4	Temperatura máxima	23.7
38367	7	Sololá	710	Panajachel	8	Panajachel	5	Mayo	2023-05-22T00:00:00	2024-11-08T13:00:00	3	Temperatura mínima	22.3
38368	7	Sololá	710	Panajachel	8	Panajachel	5	Mayo	2023-05-22T00:00:00	2024-11-08T13:00:00	5	Humedad	78
38369	7	Sololá	710	Panajachel	8	Panajachel	5	Mayo	2023-05-22T00:00:00	2024-11-08T13:00:00	6	Velocidad del viento	4.8
38370	7	Sololá	710	Panajachel	8	Panajachel	5	Mayo	2023-05-22T00:00:00	2024-11-08T13:00:00	7	Dirección del viento	4.83
38371	7	Sololá	710	Panajachel	8	Panajachel	5	Mayo	2023-05-22T00:00:00	2024-11-08T13:00:00	1	Precipitación	0
38372	7	Sololá	710	Panajachel	8	Panajachel	5	Mayo	2023-05-22T00:00:00	2024-11-08T13:00:00	8	Radiación solar	401
38373	7	Sololá	710	Panajachel	8	Panajachel	5	Mayo	2023-05-22T00:00:00	2024-11-08T14:00:00	2	Temperatura media	24
38374	7	Sololá	710	Panajachel	8	Panajachel	5	Mayo	2023-05-22T00:00:00	2024-11-08T14:00:00	4	Temperatura máxima	24.5
38375	7	Sololá	710	Panajachel	8	Panajachel	5	Mayo	2023-05-22T00:00:00	2024-11-08T14:00:00	3	Temperatura mínima	23.7
38376	7	Sololá	710	Panajachel	8	Panajachel	5	Mayo	2023-05-22T00:00:00	2024-11-08T14:00:00	5	Humedad	75
38377	7	Sololá	710	Panajachel	8	Panajachel	5	Mayo	2023-05-22T00:00:00	2024-11-08T14:00:00	6	Velocidad del viento	3.2
38378	7	Sololá	710	Panajachel	8	Panajachel	5	Mayo	2023-05-22T00:00:00	2024-11-08T14:00:00	7	Dirección del viento	3.22
38379	7	Sololá	710	Panajachel	8	Panajachel	5	Mayo	2023-05-22T00:00:00	2024-11-08T14:00:00	1	Precipitación	0
38380	7	Sololá	710	Panajachel	8	Panajachel	5	Mayo	2023-05-22T00:00:00	2024-11-08T14:00:00	8	Radiación solar	622
38381	7	Sololá	710	Panajachel	8	Panajachel	5	Mayo	2023-05-22T00:00:00	2024-11-08T15:00:00	2	Temperatura media	23.1
38382	7	Sololá	710	Panajachel	8	Panajachel	5	Mayo	2023-05-22T00:00:00	2024-11-08T15:00:00	4	Temperatura máxima	23.9
38383	7	Sololá	710	Panajachel	8	Panajachel	5	Mayo	2023-05-22T00:00:00	2024-11-08T15:00:00	3	Temperatura mínima	22.6
38384	7	Sololá	710	Panajachel	8	Panajachel	5	Mayo	2023-05-22T00:00:00	2024-11-08T15:00:00	5	Humedad	79
38385	7	Sololá	710	Panajachel	8	Panajachel	5	Mayo	2023-05-22T00:00:00	2024-11-08T15:00:00	6	Velocidad del viento	6.4
38386	7	Sololá	710	Panajachel	8	Panajachel	5	Mayo	2023-05-22T00:00:00	2024-11-08T15:00:00	7	Dirección del viento	6.44
38387	7	Sololá	710	Panajachel	8	Panajachel	5	Mayo	2023-05-22T00:00:00	2024-11-08T15:00:00	1	Precipitación	0
38388	7	Sololá	710	Panajachel	8	Panajachel	5	Mayo	2023-05-22T00:00:00	2024-11-08T15:00:00	8	Radiación solar	215
38389	7	Sololá	710	Panajachel	8	Panajachel	5	Mayo	2023-05-22T00:00:00	2024-11-08T16:00:00	2	Temperatura media	22.9
38390	7	Sololá	710	Panajachel	8	Panajachel	5	Mayo	2023-05-22T00:00:00	2024-11-08T16:00:00	4	Temperatura máxima	23.9
38391	7	Sololá	710	Panajachel	8	Panajachel	5	Mayo	2023-05-22T00:00:00	2024-11-08T16:00:00	3	Temperatura mínima	22.8
38392	7	Sololá	710	Panajachel	8	Panajachel	5	Mayo	2023-05-22T00:00:00	2024-11-08T16:00:00	5	Humedad	76
38393	7	Sololá	710	Panajachel	8	Panajachel	5	Mayo	2023-05-22T00:00:00	2024-11-08T16:00:00	6	Velocidad del viento	3.2
38394	7	Sololá	710	Panajachel	8	Panajachel	5	Mayo	2023-05-22T00:00:00	2024-11-08T16:00:00	7	Dirección del viento	3.22
38395	7	Sololá	710	Panajachel	8	Panajachel	5	Mayo	2023-05-22T00:00:00	2024-11-08T16:00:00	1	Precipitación	0
38396	7	Sololá	710	Panajachel	8	Panajachel	5	Mayo	2023-05-22T00:00:00	2024-11-08T16:00:00	8	Radiación solar	243
38397	7	Sololá	710	Panajachel	8	Panajachel	5	Mayo	2023-05-22T00:00:00	2024-11-08T17:00:00	2	Temperatura media	22.8
38398	7	Sololá	710	Panajachel	8	Panajachel	5	Mayo	2023-05-22T00:00:00	2024-11-08T17:00:00	4	Temperatura máxima	23.5
38399	7	Sololá	710	Panajachel	8	Panajachel	5	Mayo	2023-05-22T00:00:00	2024-11-08T17:00:00	3	Temperatura mínima	22.8
38400	7	Sololá	710	Panajachel	8	Panajachel	5	Mayo	2023-05-22T00:00:00	2024-11-08T17:00:00	5	Humedad	82
38401	7	Sololá	710	Panajachel	8	Panajachel	5	Mayo	2023-05-22T00:00:00	2024-11-08T17:00:00	6	Velocidad del viento	0
38402	7	Sololá	710	Panajachel	8	Panajachel	5	Mayo	2023-05-22T00:00:00	2024-11-08T17:00:00	7	Dirección del viento	0
38403	7	Sololá	710	Panajachel	8	Panajachel	5	Mayo	2023-05-22T00:00:00	2024-11-08T17:00:00	1	Precipitación	0
38404	7	Sololá	710	Panajachel	8	Panajachel	5	Mayo	2023-05-22T00:00:00	2024-11-08T17:00:00	8	Radiación solar	111
38405	7	Sololá	710	Panajachel	8	Panajachel	5	Mayo	2023-05-22T00:00:00	2024-11-08T18:00:00	2	Temperatura media	22.3
38406	7	Sololá	710	Panajachel	8	Panajachel	5	Mayo	2023-05-22T00:00:00	2024-11-08T18:00:00	4	Temperatura máxima	22.8
38407	7	Sololá	710	Panajachel	8	Panajachel	5	Mayo	2023-05-22T00:00:00	2024-11-08T18:00:00	3	Temperatura mínima	22.3
38408	7	Sololá	710	Panajachel	8	Panajachel	5	Mayo	2023-05-22T00:00:00	2024-11-08T18:00:00	5	Humedad	85
38409	7	Sololá	710	Panajachel	8	Panajachel	5	Mayo	2023-05-22T00:00:00	2024-11-08T18:00:00	6	Velocidad del viento	0
38410	7	Sololá	710	Panajachel	8	Panajachel	5	Mayo	2023-05-22T00:00:00	2024-11-08T18:00:00	7	Dirección del viento	0
38411	7	Sololá	710	Panajachel	8	Panajachel	5	Mayo	2023-05-22T00:00:00	2024-11-08T18:00:00	1	Precipitación	0
38412	7	Sololá	710	Panajachel	8	Panajachel	5	Mayo	2023-05-22T00:00:00	2024-11-08T18:00:00	8	Radiación solar	62
38413	7	Sololá	710	Panajachel	8	Panajachel	5	Mayo	2023-05-22T00:00:00	2024-11-08T19:00:00	2	Temperatura media	21.7
38414	7	Sololá	710	Panajachel	8	Panajachel	5	Mayo	2023-05-22T00:00:00	2024-11-08T19:00:00	4	Temperatura máxima	22.3
38415	7	Sololá	710	Panajachel	8	Panajachel	5	Mayo	2023-05-22T00:00:00	2024-11-08T19:00:00	3	Temperatura mínima	21.7
38416	7	Sololá	710	Panajachel	8	Panajachel	5	Mayo	2023-05-22T00:00:00	2024-11-08T19:00:00	5	Humedad	87
38417	7	Sololá	710	Panajachel	8	Panajachel	5	Mayo	2023-05-22T00:00:00	2024-11-08T19:00:00	6	Velocidad del viento	1.6
38418	7	Sololá	710	Panajachel	8	Panajachel	5	Mayo	2023-05-22T00:00:00	2024-11-08T19:00:00	7	Dirección del viento	1.61
38419	7	Sololá	710	Panajachel	8	Panajachel	5	Mayo	2023-05-22T00:00:00	2024-11-08T19:00:00	1	Precipitación	0
38420	7	Sololá	710	Panajachel	8	Panajachel	5	Mayo	2023-05-22T00:00:00	2024-11-08T19:00:00	8	Radiación solar	0
38421	7	Sololá	710	Panajachel	8	Panajachel	5	Mayo	2023-05-22T00:00:00	2024-11-08T20:00:00	2	Temperatura media	21.3
38422	7	Sololá	710	Panajachel	8	Panajachel	5	Mayo	2023-05-22T00:00:00	2024-11-08T20:00:00	4	Temperatura máxima	21.7
38423	7	Sololá	710	Panajachel	8	Panajachel	5	Mayo	2023-05-22T00:00:00	2024-11-08T20:00:00	3	Temperatura mínima	21.3
38424	7	Sololá	710	Panajachel	8	Panajachel	5	Mayo	2023-05-22T00:00:00	2024-11-08T20:00:00	5	Humedad	88
38425	7	Sololá	710	Panajachel	8	Panajachel	5	Mayo	2023-05-22T00:00:00	2024-11-08T20:00:00	6	Velocidad del viento	1.6
38426	7	Sololá	710	Panajachel	8	Panajachel	5	Mayo	2023-05-22T00:00:00	2024-11-08T20:00:00	7	Dirección del viento	1.61
38427	7	Sololá	710	Panajachel	8	Panajachel	5	Mayo	2023-05-22T00:00:00	2024-11-08T20:00:00	1	Precipitación	0
38428	7	Sololá	710	Panajachel	8	Panajachel	5	Mayo	2023-05-22T00:00:00	2024-11-08T20:00:00	8	Radiación solar	0
38429	7	Sololá	710	Panajachel	8	Panajachel	5	Mayo	2023-05-22T00:00:00	2024-11-08T21:00:00	2	Temperatura media	21.1
38430	7	Sololá	710	Panajachel	8	Panajachel	5	Mayo	2023-05-22T00:00:00	2024-11-08T21:00:00	4	Temperatura máxima	21.4
38431	7	Sololá	710	Panajachel	8	Panajachel	5	Mayo	2023-05-22T00:00:00	2024-11-08T21:00:00	3	Temperatura mínima	21.1
38432	7	Sololá	710	Panajachel	8	Panajachel	5	Mayo	2023-05-22T00:00:00	2024-11-08T21:00:00	5	Humedad	87
38433	7	Sololá	710	Panajachel	8	Panajachel	5	Mayo	2023-05-22T00:00:00	2024-11-08T21:00:00	6	Velocidad del viento	0
38434	7	Sololá	710	Panajachel	8	Panajachel	5	Mayo	2023-05-22T00:00:00	2024-11-08T21:00:00	7	Dirección del viento	0
38435	7	Sololá	710	Panajachel	8	Panajachel	5	Mayo	2023-05-22T00:00:00	2024-11-08T21:00:00	1	Precipitación	0
38436	7	Sololá	710	Panajachel	8	Panajachel	5	Mayo	2023-05-22T00:00:00	2024-11-08T21:00:00	8	Radiación solar	0
38437	7	Sololá	710	Panajachel	8	Panajachel	5	Mayo	2023-05-22T00:00:00	2024-11-08T22:00:00	2	Temperatura media	20.4
38438	7	Sololá	710	Panajachel	8	Panajachel	5	Mayo	2023-05-22T00:00:00	2024-11-08T22:00:00	4	Temperatura máxima	21.1
38439	7	Sololá	710	Panajachel	8	Panajachel	5	Mayo	2023-05-22T00:00:00	2024-11-08T22:00:00	3	Temperatura mínima	20.4
38440	7	Sololá	710	Panajachel	8	Panajachel	5	Mayo	2023-05-22T00:00:00	2024-11-08T22:00:00	5	Humedad	88
38441	7	Sololá	710	Panajachel	8	Panajachel	5	Mayo	2023-05-22T00:00:00	2024-11-08T22:00:00	6	Velocidad del viento	0
38442	7	Sololá	710	Panajachel	8	Panajachel	5	Mayo	2023-05-22T00:00:00	2024-11-08T22:00:00	7	Dirección del viento	0
38443	7	Sololá	710	Panajachel	8	Panajachel	5	Mayo	2023-05-22T00:00:00	2024-11-08T22:00:00	1	Precipitación	0
38444	7	Sololá	710	Panajachel	8	Panajachel	5	Mayo	2023-05-22T00:00:00	2024-11-08T22:00:00	8	Radiación solar	0
38445	7	Sololá	710	Panajachel	8	Panajachel	5	Mayo	2023-05-22T00:00:00	2024-11-08T23:00:00	2	Temperatura media	19.6
38446	7	Sololá	710	Panajachel	8	Panajachel	5	Mayo	2023-05-22T00:00:00	2024-11-08T23:00:00	4	Temperatura máxima	20.5
38447	7	Sololá	710	Panajachel	8	Panajachel	5	Mayo	2023-05-22T00:00:00	2024-11-08T23:00:00	3	Temperatura mínima	19.6
38448	7	Sololá	710	Panajachel	8	Panajachel	5	Mayo	2023-05-22T00:00:00	2024-11-08T23:00:00	5	Humedad	88
38449	7	Sololá	710	Panajachel	8	Panajachel	5	Mayo	2023-05-22T00:00:00	2024-11-08T23:00:00	6	Velocidad del viento	0
38450	7	Sololá	710	Panajachel	8	Panajachel	5	Mayo	2023-05-22T00:00:00	2024-11-08T23:00:00	7	Dirección del viento	0
38451	7	Sololá	710	Panajachel	8	Panajachel	5	Mayo	2023-05-22T00:00:00	2024-11-08T23:00:00	1	Precipitación	0
38452	7	Sololá	710	Panajachel	8	Panajachel	5	Mayo	2023-05-22T00:00:00	2024-11-08T23:00:00	8	Radiación solar	0
38453	7	Sololá	710	Panajachel	8	Panajachel	5	Mayo	2023-05-23T00:00:00	2024-11-08T00:00:00	2	Temperatura media	19.4
38454	7	Sololá	710	Panajachel	8	Panajachel	5	Mayo	2023-05-23T00:00:00	2024-11-08T00:00:00	4	Temperatura máxima	19.7
38455	7	Sololá	710	Panajachel	8	Panajachel	5	Mayo	2023-05-23T00:00:00	2024-11-08T00:00:00	3	Temperatura mínima	19.3
38456	7	Sololá	710	Panajachel	8	Panajachel	5	Mayo	2023-05-23T00:00:00	2024-11-08T00:00:00	5	Humedad	87
38457	7	Sololá	710	Panajachel	8	Panajachel	5	Mayo	2023-05-23T00:00:00	2024-11-08T00:00:00	6	Velocidad del viento	0
38458	7	Sololá	710	Panajachel	8	Panajachel	5	Mayo	2023-05-23T00:00:00	2024-11-08T00:00:00	7	Dirección del viento	0
38459	7	Sololá	710	Panajachel	8	Panajachel	5	Mayo	2023-05-23T00:00:00	2024-11-08T00:00:00	1	Precipitación	0
38460	7	Sololá	710	Panajachel	8	Panajachel	5	Mayo	2023-05-23T00:00:00	2024-11-08T00:00:00	8	Radiación solar	0
38461	7	Sololá	710	Panajachel	8	Panajachel	5	Mayo	2023-05-23T00:00:00	2024-11-08T01:00:00	2	Temperatura media	19.2
38462	7	Sololá	710	Panajachel	8	Panajachel	5	Mayo	2023-05-23T00:00:00	2024-11-08T01:00:00	4	Temperatura máxima	19.4
38463	7	Sololá	710	Panajachel	8	Panajachel	5	Mayo	2023-05-23T00:00:00	2024-11-08T01:00:00	3	Temperatura mínima	19.1
38464	7	Sololá	710	Panajachel	8	Panajachel	5	Mayo	2023-05-23T00:00:00	2024-11-08T01:00:00	5	Humedad	89
38465	7	Sololá	710	Panajachel	8	Panajachel	5	Mayo	2023-05-23T00:00:00	2024-11-08T01:00:00	6	Velocidad del viento	0
38466	7	Sololá	710	Panajachel	8	Panajachel	5	Mayo	2023-05-23T00:00:00	2024-11-08T01:00:00	7	Dirección del viento	0
38467	7	Sololá	710	Panajachel	8	Panajachel	5	Mayo	2023-05-23T00:00:00	2024-11-08T01:00:00	1	Precipitación	0
38468	7	Sololá	710	Panajachel	8	Panajachel	5	Mayo	2023-05-23T00:00:00	2024-11-08T01:00:00	8	Radiación solar	0
38469	7	Sololá	710	Panajachel	8	Panajachel	5	Mayo	2023-05-23T00:00:00	2024-11-08T02:00:00	2	Temperatura media	18.3
38470	7	Sololá	710	Panajachel	8	Panajachel	5	Mayo	2023-05-23T00:00:00	2024-11-08T02:00:00	4	Temperatura máxima	19.2
38471	7	Sololá	710	Panajachel	8	Panajachel	5	Mayo	2023-05-23T00:00:00	2024-11-08T02:00:00	3	Temperatura mínima	18.3
38472	7	Sololá	710	Panajachel	8	Panajachel	5	Mayo	2023-05-23T00:00:00	2024-11-08T02:00:00	5	Humedad	90
38473	7	Sololá	710	Panajachel	8	Panajachel	5	Mayo	2023-05-23T00:00:00	2024-11-08T02:00:00	6	Velocidad del viento	0
38474	7	Sololá	710	Panajachel	8	Panajachel	5	Mayo	2023-05-23T00:00:00	2024-11-08T02:00:00	7	Dirección del viento	0
38475	7	Sololá	710	Panajachel	8	Panajachel	5	Mayo	2023-05-23T00:00:00	2024-11-08T02:00:00	1	Precipitación	0
38476	7	Sololá	710	Panajachel	8	Panajachel	5	Mayo	2023-05-23T00:00:00	2024-11-08T02:00:00	8	Radiación solar	0
38477	7	Sololá	710	Panajachel	8	Panajachel	5	Mayo	2023-05-23T00:00:00	2024-11-08T03:00:00	2	Temperatura media	17.9
38478	7	Sololá	710	Panajachel	8	Panajachel	5	Mayo	2023-05-23T00:00:00	2024-11-08T03:00:00	4	Temperatura máxima	18.3
38479	7	Sololá	710	Panajachel	8	Panajachel	5	Mayo	2023-05-23T00:00:00	2024-11-08T03:00:00	3	Temperatura mínima	17.9
38480	7	Sololá	710	Panajachel	8	Panajachel	5	Mayo	2023-05-23T00:00:00	2024-11-08T03:00:00	5	Humedad	87
38481	7	Sololá	710	Panajachel	8	Panajachel	5	Mayo	2023-05-23T00:00:00	2024-11-08T03:00:00	6	Velocidad del viento	1.6
38482	7	Sololá	710	Panajachel	8	Panajachel	5	Mayo	2023-05-23T00:00:00	2024-11-08T03:00:00	7	Dirección del viento	1.61
38483	7	Sololá	710	Panajachel	8	Panajachel	5	Mayo	2023-05-23T00:00:00	2024-11-08T03:00:00	1	Precipitación	0
38484	7	Sololá	710	Panajachel	8	Panajachel	5	Mayo	2023-05-23T00:00:00	2024-11-08T03:00:00	8	Radiación solar	0
38485	7	Sololá	710	Panajachel	8	Panajachel	5	Mayo	2023-05-23T00:00:00	2024-11-08T04:00:00	2	Temperatura media	17.6
38486	7	Sololá	710	Panajachel	8	Panajachel	5	Mayo	2023-05-23T00:00:00	2024-11-08T04:00:00	4	Temperatura máxima	17.9
38487	7	Sololá	710	Panajachel	8	Panajachel	5	Mayo	2023-05-23T00:00:00	2024-11-08T04:00:00	3	Temperatura mínima	17.5
38488	7	Sololá	710	Panajachel	8	Panajachel	5	Mayo	2023-05-23T00:00:00	2024-11-08T04:00:00	5	Humedad	87
38489	7	Sololá	710	Panajachel	8	Panajachel	5	Mayo	2023-05-23T00:00:00	2024-11-08T04:00:00	6	Velocidad del viento	1.6
38490	7	Sololá	710	Panajachel	8	Panajachel	5	Mayo	2023-05-23T00:00:00	2024-11-08T04:00:00	7	Dirección del viento	1.61
38491	7	Sololá	710	Panajachel	8	Panajachel	5	Mayo	2023-05-23T00:00:00	2024-11-08T04:00:00	1	Precipitación	0
38492	7	Sololá	710	Panajachel	8	Panajachel	5	Mayo	2023-05-23T00:00:00	2024-11-08T04:00:00	8	Radiación solar	0
38493	7	Sololá	710	Panajachel	8	Panajachel	5	Mayo	2023-05-23T00:00:00	2024-11-08T05:00:00	2	Temperatura media	17.6
38494	7	Sololá	710	Panajachel	8	Panajachel	5	Mayo	2023-05-23T00:00:00	2024-11-08T05:00:00	4	Temperatura máxima	17.7
38495	7	Sololá	710	Panajachel	8	Panajachel	5	Mayo	2023-05-23T00:00:00	2024-11-08T05:00:00	3	Temperatura mínima	17.5
38496	7	Sololá	710	Panajachel	8	Panajachel	5	Mayo	2023-05-23T00:00:00	2024-11-08T05:00:00	5	Humedad	89
38497	7	Sololá	710	Panajachel	8	Panajachel	5	Mayo	2023-05-23T00:00:00	2024-11-08T05:00:00	6	Velocidad del viento	1.6
38498	7	Sololá	710	Panajachel	8	Panajachel	5	Mayo	2023-05-23T00:00:00	2024-11-08T05:00:00	7	Dirección del viento	1.61
38499	7	Sololá	710	Panajachel	8	Panajachel	5	Mayo	2023-05-23T00:00:00	2024-11-08T05:00:00	1	Precipitación	0
38500	7	Sololá	710	Panajachel	8	Panajachel	5	Mayo	2023-05-23T00:00:00	2024-11-08T05:00:00	8	Radiación solar	0
38501	7	Sololá	710	Panajachel	8	Panajachel	5	Mayo	2023-05-23T00:00:00	2024-11-08T06:00:00	2	Temperatura media	17.7
38502	7	Sololá	710	Panajachel	8	Panajachel	5	Mayo	2023-05-23T00:00:00	2024-11-08T06:00:00	4	Temperatura máxima	17.8
38503	7	Sololá	710	Panajachel	8	Panajachel	5	Mayo	2023-05-23T00:00:00	2024-11-08T06:00:00	3	Temperatura mínima	17.4
38504	7	Sololá	710	Panajachel	8	Panajachel	5	Mayo	2023-05-23T00:00:00	2024-11-08T06:00:00	5	Humedad	83
38505	7	Sololá	710	Panajachel	8	Panajachel	5	Mayo	2023-05-23T00:00:00	2024-11-08T06:00:00	6	Velocidad del viento	3.2
38506	7	Sololá	710	Panajachel	8	Panajachel	5	Mayo	2023-05-23T00:00:00	2024-11-08T06:00:00	7	Dirección del viento	3.22
38507	7	Sololá	710	Panajachel	8	Panajachel	5	Mayo	2023-05-23T00:00:00	2024-11-08T06:00:00	1	Precipitación	0
38508	7	Sololá	710	Panajachel	8	Panajachel	5	Mayo	2023-05-23T00:00:00	2024-11-08T06:00:00	8	Radiación solar	8
38509	7	Sololá	710	Panajachel	8	Panajachel	5	Mayo	2023-05-23T00:00:00	2024-11-08T07:00:00	2	Temperatura media	19.3
38510	7	Sololá	710	Panajachel	8	Panajachel	5	Mayo	2023-05-23T00:00:00	2024-11-08T07:00:00	4	Temperatura máxima	19.4
38511	7	Sololá	710	Panajachel	8	Panajachel	5	Mayo	2023-05-23T00:00:00	2024-11-08T07:00:00	3	Temperatura mínima	17.7
38512	7	Sololá	710	Panajachel	8	Panajachel	5	Mayo	2023-05-23T00:00:00	2024-11-08T07:00:00	5	Humedad	81
38513	7	Sololá	710	Panajachel	8	Panajachel	5	Mayo	2023-05-23T00:00:00	2024-11-08T07:00:00	6	Velocidad del viento	1.6
38514	7	Sololá	710	Panajachel	8	Panajachel	5	Mayo	2023-05-23T00:00:00	2024-11-08T07:00:00	7	Dirección del viento	1.61
38515	7	Sololá	710	Panajachel	8	Panajachel	5	Mayo	2023-05-23T00:00:00	2024-11-08T07:00:00	1	Precipitación	0
38516	7	Sololá	710	Panajachel	8	Panajachel	5	Mayo	2023-05-23T00:00:00	2024-11-08T07:00:00	8	Radiación solar	90
38517	7	Sololá	710	Panajachel	8	Panajachel	5	Mayo	2023-05-23T00:00:00	2024-11-08T08:00:00	2	Temperatura media	21.1
38518	7	Sololá	710	Panajachel	8	Panajachel	5	Mayo	2023-05-23T00:00:00	2024-11-08T08:00:00	4	Temperatura máxima	21.7
38519	7	Sololá	710	Panajachel	8	Panajachel	5	Mayo	2023-05-23T00:00:00	2024-11-08T08:00:00	3	Temperatura mínima	19.4
38520	7	Sololá	710	Panajachel	8	Panajachel	5	Mayo	2023-05-23T00:00:00	2024-11-08T08:00:00	5	Humedad	82
38521	7	Sololá	710	Panajachel	8	Panajachel	5	Mayo	2023-05-23T00:00:00	2024-11-08T08:00:00	6	Velocidad del viento	1.6
38522	7	Sololá	710	Panajachel	8	Panajachel	5	Mayo	2023-05-23T00:00:00	2024-11-08T08:00:00	7	Dirección del viento	1.61
38523	7	Sololá	710	Panajachel	8	Panajachel	5	Mayo	2023-05-23T00:00:00	2024-11-08T08:00:00	1	Precipitación	0
38524	7	Sololá	710	Panajachel	8	Panajachel	5	Mayo	2023-05-23T00:00:00	2024-11-08T08:00:00	8	Radiación solar	338
38525	7	Sololá	710	Panajachel	8	Panajachel	5	Mayo	2023-05-23T00:00:00	2024-11-08T09:00:00	2	Temperatura media	21.8
38526	7	Sololá	710	Panajachel	8	Panajachel	5	Mayo	2023-05-23T00:00:00	2024-11-08T09:00:00	4	Temperatura máxima	21.9
38527	7	Sololá	710	Panajachel	8	Panajachel	5	Mayo	2023-05-23T00:00:00	2024-11-08T09:00:00	3	Temperatura mínima	20.9
38528	7	Sololá	710	Panajachel	8	Panajachel	5	Mayo	2023-05-23T00:00:00	2024-11-08T09:00:00	5	Humedad	77
38529	7	Sololá	710	Panajachel	8	Panajachel	5	Mayo	2023-05-23T00:00:00	2024-11-08T09:00:00	6	Velocidad del viento	4.8
38530	7	Sololá	710	Panajachel	8	Panajachel	5	Mayo	2023-05-23T00:00:00	2024-11-08T09:00:00	7	Dirección del viento	4.83
38531	7	Sololá	710	Panajachel	8	Panajachel	5	Mayo	2023-05-23T00:00:00	2024-11-08T09:00:00	1	Precipitación	0
38532	7	Sololá	710	Panajachel	8	Panajachel	5	Mayo	2023-05-23T00:00:00	2024-11-08T09:00:00	8	Radiación solar	508
38533	7	Sololá	710	Panajachel	8	Panajachel	5	Mayo	2023-05-23T00:00:00	2024-11-08T10:00:00	2	Temperatura media	22.7
38534	7	Sololá	710	Panajachel	8	Panajachel	5	Mayo	2023-05-23T00:00:00	2024-11-08T10:00:00	4	Temperatura máxima	22.7
38535	7	Sololá	710	Panajachel	8	Panajachel	5	Mayo	2023-05-23T00:00:00	2024-11-08T10:00:00	3	Temperatura mínima	21.7
38536	7	Sololá	710	Panajachel	8	Panajachel	5	Mayo	2023-05-23T00:00:00	2024-11-08T10:00:00	5	Humedad	70
38537	7	Sololá	710	Panajachel	8	Panajachel	5	Mayo	2023-05-23T00:00:00	2024-11-08T10:00:00	6	Velocidad del viento	3.2
38538	7	Sololá	710	Panajachel	8	Panajachel	5	Mayo	2023-05-23T00:00:00	2024-11-08T10:00:00	7	Dirección del viento	3.22
38539	7	Sololá	710	Panajachel	8	Panajachel	5	Mayo	2023-05-23T00:00:00	2024-11-08T10:00:00	1	Precipitación	0
38540	7	Sololá	710	Panajachel	8	Panajachel	5	Mayo	2023-05-23T00:00:00	2024-11-08T10:00:00	8	Radiación solar	693
38541	7	Sololá	710	Panajachel	8	Panajachel	5	Mayo	2023-05-23T00:00:00	2024-11-08T11:00:00	2	Temperatura media	24.2
38542	7	Sololá	710	Panajachel	8	Panajachel	5	Mayo	2023-05-23T00:00:00	2024-11-08T11:00:00	4	Temperatura máxima	24.3
38543	7	Sololá	710	Panajachel	8	Panajachel	5	Mayo	2023-05-23T00:00:00	2024-11-08T11:00:00	3	Temperatura mínima	22.6
38544	7	Sololá	710	Panajachel	8	Panajachel	5	Mayo	2023-05-23T00:00:00	2024-11-08T11:00:00	5	Humedad	70
38545	7	Sololá	710	Panajachel	8	Panajachel	5	Mayo	2023-05-23T00:00:00	2024-11-08T11:00:00	6	Velocidad del viento	3.2
38546	7	Sololá	710	Panajachel	8	Panajachel	5	Mayo	2023-05-23T00:00:00	2024-11-08T11:00:00	7	Dirección del viento	3.22
38547	7	Sololá	710	Panajachel	8	Panajachel	5	Mayo	2023-05-23T00:00:00	2024-11-08T11:00:00	1	Precipitación	0
38548	7	Sololá	710	Panajachel	8	Panajachel	5	Mayo	2023-05-23T00:00:00	2024-11-08T11:00:00	8	Radiación solar	881
38549	7	Sololá	710	Panajachel	8	Panajachel	5	Mayo	2023-05-23T00:00:00	2024-11-08T12:00:00	2	Temperatura media	23.9
38550	7	Sololá	710	Panajachel	8	Panajachel	5	Mayo	2023-05-23T00:00:00	2024-11-08T12:00:00	4	Temperatura máxima	25.1
38551	7	Sololá	710	Panajachel	8	Panajachel	5	Mayo	2023-05-23T00:00:00	2024-11-08T12:00:00	3	Temperatura mínima	23.7
38552	7	Sololá	710	Panajachel	8	Panajachel	5	Mayo	2023-05-23T00:00:00	2024-11-08T12:00:00	5	Humedad	76
38553	7	Sololá	710	Panajachel	8	Panajachel	5	Mayo	2023-05-23T00:00:00	2024-11-08T12:00:00	6	Velocidad del viento	6.4
38554	7	Sololá	710	Panajachel	8	Panajachel	5	Mayo	2023-05-23T00:00:00	2024-11-08T12:00:00	7	Dirección del viento	6.44
38555	7	Sololá	710	Panajachel	8	Panajachel	5	Mayo	2023-05-23T00:00:00	2024-11-08T12:00:00	1	Precipitación	0
38556	7	Sololá	710	Panajachel	8	Panajachel	5	Mayo	2023-05-23T00:00:00	2024-11-08T12:00:00	8	Radiación solar	941
38557	7	Sololá	710	Panajachel	8	Panajachel	5	Mayo	2023-05-23T00:00:00	2024-11-08T13:00:00	2	Temperatura media	24.2
38558	7	Sololá	710	Panajachel	8	Panajachel	5	Mayo	2023-05-23T00:00:00	2024-11-08T13:00:00	4	Temperatura máxima	24.8
38559	7	Sololá	710	Panajachel	8	Panajachel	5	Mayo	2023-05-23T00:00:00	2024-11-08T13:00:00	3	Temperatura mínima	23.9
38560	7	Sololá	710	Panajachel	8	Panajachel	5	Mayo	2023-05-23T00:00:00	2024-11-08T13:00:00	5	Humedad	75
38561	7	Sololá	710	Panajachel	8	Panajachel	5	Mayo	2023-05-23T00:00:00	2024-11-08T13:00:00	6	Velocidad del viento	4.8
38562	7	Sololá	710	Panajachel	8	Panajachel	5	Mayo	2023-05-23T00:00:00	2024-11-08T13:00:00	7	Dirección del viento	4.83
38563	7	Sololá	710	Panajachel	8	Panajachel	5	Mayo	2023-05-23T00:00:00	2024-11-08T13:00:00	1	Precipitación	0
38564	7	Sololá	710	Panajachel	8	Panajachel	5	Mayo	2023-05-23T00:00:00	2024-11-08T13:00:00	8	Radiación solar	780
38565	7	Sololá	710	Panajachel	8	Panajachel	5	Mayo	2023-05-23T00:00:00	2024-11-08T14:00:00	2	Temperatura media	24.2
38566	7	Sololá	710	Panajachel	8	Panajachel	5	Mayo	2023-05-23T00:00:00	2024-11-08T14:00:00	4	Temperatura máxima	24.2
38567	7	Sololá	710	Panajachel	8	Panajachel	5	Mayo	2023-05-23T00:00:00	2024-11-08T14:00:00	3	Temperatura mínima	23.3
38568	7	Sololá	710	Panajachel	8	Panajachel	5	Mayo	2023-05-23T00:00:00	2024-11-08T14:00:00	5	Humedad	75
38569	7	Sololá	710	Panajachel	8	Panajachel	5	Mayo	2023-05-23T00:00:00	2024-11-08T14:00:00	6	Velocidad del viento	6.4
38570	7	Sololá	710	Panajachel	8	Panajachel	5	Mayo	2023-05-23T00:00:00	2024-11-08T14:00:00	7	Dirección del viento	6.44
38571	7	Sololá	710	Panajachel	8	Panajachel	5	Mayo	2023-05-23T00:00:00	2024-11-08T14:00:00	1	Precipitación	0
38572	7	Sololá	710	Panajachel	8	Panajachel	5	Mayo	2023-05-23T00:00:00	2024-11-08T14:00:00	8	Radiación solar	584
38573	7	Sololá	710	Panajachel	8	Panajachel	5	Mayo	2023-05-23T00:00:00	2024-11-08T15:00:00	2	Temperatura media	23.3
38574	7	Sololá	710	Panajachel	8	Panajachel	5	Mayo	2023-05-23T00:00:00	2024-11-08T15:00:00	4	Temperatura máxima	24.2
38575	7	Sololá	710	Panajachel	8	Panajachel	5	Mayo	2023-05-23T00:00:00	2024-11-08T15:00:00	3	Temperatura mínima	22.9
38576	7	Sololá	710	Panajachel	8	Panajachel	5	Mayo	2023-05-23T00:00:00	2024-11-08T15:00:00	5	Humedad	76
38577	7	Sololá	710	Panajachel	8	Panajachel	5	Mayo	2023-05-23T00:00:00	2024-11-08T15:00:00	6	Velocidad del viento	9.7
38578	7	Sololá	710	Panajachel	8	Panajachel	5	Mayo	2023-05-23T00:00:00	2024-11-08T15:00:00	7	Dirección del viento	9.66
38579	7	Sololá	710	Panajachel	8	Panajachel	5	Mayo	2023-05-23T00:00:00	2024-11-08T15:00:00	1	Precipitación	0
38580	7	Sololá	710	Panajachel	8	Panajachel	5	Mayo	2023-05-23T00:00:00	2024-11-08T15:00:00	8	Radiación solar	607
38581	7	Sololá	710	Panajachel	8	Panajachel	5	Mayo	2023-05-23T00:00:00	2024-11-08T16:00:00	2	Temperatura media	22.9
38582	7	Sololá	710	Panajachel	8	Panajachel	5	Mayo	2023-05-23T00:00:00	2024-11-08T16:00:00	4	Temperatura máxima	23.8
38583	7	Sololá	710	Panajachel	8	Panajachel	5	Mayo	2023-05-23T00:00:00	2024-11-08T16:00:00	3	Temperatura mínima	22.8
38584	7	Sololá	710	Panajachel	8	Panajachel	5	Mayo	2023-05-23T00:00:00	2024-11-08T16:00:00	5	Humedad	77
38585	7	Sololá	710	Panajachel	8	Panajachel	5	Mayo	2023-05-23T00:00:00	2024-11-08T16:00:00	6	Velocidad del viento	6.4
38586	7	Sololá	710	Panajachel	8	Panajachel	5	Mayo	2023-05-23T00:00:00	2024-11-08T16:00:00	7	Dirección del viento	6.44
38587	7	Sololá	710	Panajachel	8	Panajachel	5	Mayo	2023-05-23T00:00:00	2024-11-08T16:00:00	1	Precipitación	0
38588	7	Sololá	710	Panajachel	8	Panajachel	5	Mayo	2023-05-23T00:00:00	2024-11-08T16:00:00	8	Radiación solar	265
38589	7	Sololá	710	Panajachel	8	Panajachel	5	Mayo	2023-05-23T00:00:00	2024-11-08T17:00:00	2	Temperatura media	22.4
38590	7	Sololá	710	Panajachel	8	Panajachel	5	Mayo	2023-05-23T00:00:00	2024-11-08T17:00:00	4	Temperatura máxima	23.7
38591	7	Sololá	710	Panajachel	8	Panajachel	5	Mayo	2023-05-23T00:00:00	2024-11-08T17:00:00	3	Temperatura mínima	22.4
38592	7	Sololá	710	Panajachel	8	Panajachel	5	Mayo	2023-05-23T00:00:00	2024-11-08T17:00:00	5	Humedad	82
38593	7	Sololá	710	Panajachel	8	Panajachel	5	Mayo	2023-05-23T00:00:00	2024-11-08T17:00:00	6	Velocidad del viento	3.2
38594	7	Sololá	710	Panajachel	8	Panajachel	5	Mayo	2023-05-23T00:00:00	2024-11-08T17:00:00	7	Dirección del viento	3.22
38595	7	Sololá	710	Panajachel	8	Panajachel	5	Mayo	2023-05-23T00:00:00	2024-11-08T17:00:00	1	Precipitación	0
38596	7	Sololá	710	Panajachel	8	Panajachel	5	Mayo	2023-05-23T00:00:00	2024-11-08T17:00:00	8	Radiación solar	160
38597	7	Sololá	710	Panajachel	8	Panajachel	5	Mayo	2023-05-23T00:00:00	2024-11-08T18:00:00	2	Temperatura media	21.7
38598	7	Sololá	710	Panajachel	8	Panajachel	5	Mayo	2023-05-23T00:00:00	2024-11-08T18:00:00	4	Temperatura máxima	22.4
38599	7	Sololá	710	Panajachel	8	Panajachel	5	Mayo	2023-05-23T00:00:00	2024-11-08T18:00:00	3	Temperatura mínima	21.7
38600	7	Sololá	710	Panajachel	8	Panajachel	5	Mayo	2023-05-23T00:00:00	2024-11-08T18:00:00	5	Humedad	83
38601	7	Sololá	710	Panajachel	8	Panajachel	5	Mayo	2023-05-23T00:00:00	2024-11-08T18:00:00	6	Velocidad del viento	3.2
38602	7	Sololá	710	Panajachel	8	Panajachel	5	Mayo	2023-05-23T00:00:00	2024-11-08T18:00:00	7	Dirección del viento	3.22
38603	7	Sololá	710	Panajachel	8	Panajachel	5	Mayo	2023-05-23T00:00:00	2024-11-08T18:00:00	1	Precipitación	0
38604	7	Sololá	710	Panajachel	8	Panajachel	5	Mayo	2023-05-23T00:00:00	2024-11-08T18:00:00	8	Radiación solar	11
38605	7	Sololá	710	Panajachel	8	Panajachel	5	Mayo	2023-05-23T00:00:00	2024-11-08T19:00:00	2	Temperatura media	21.3
38606	7	Sololá	710	Panajachel	8	Panajachel	5	Mayo	2023-05-23T00:00:00	2024-11-08T19:00:00	4	Temperatura máxima	21.8
38607	7	Sololá	710	Panajachel	8	Panajachel	5	Mayo	2023-05-23T00:00:00	2024-11-08T19:00:00	3	Temperatura mínima	21.3
38608	7	Sololá	710	Panajachel	8	Panajachel	5	Mayo	2023-05-23T00:00:00	2024-11-08T19:00:00	5	Humedad	84
38609	7	Sololá	710	Panajachel	8	Panajachel	5	Mayo	2023-05-23T00:00:00	2024-11-08T19:00:00	6	Velocidad del viento	1.6
38610	7	Sololá	710	Panajachel	8	Panajachel	5	Mayo	2023-05-23T00:00:00	2024-11-08T19:00:00	7	Dirección del viento	1.61
38611	7	Sololá	710	Panajachel	8	Panajachel	5	Mayo	2023-05-23T00:00:00	2024-11-08T19:00:00	1	Precipitación	0
38612	7	Sololá	710	Panajachel	8	Panajachel	5	Mayo	2023-05-23T00:00:00	2024-11-08T19:00:00	8	Radiación solar	0
38613	7	Sololá	710	Panajachel	8	Panajachel	5	Mayo	2023-05-23T00:00:00	2024-11-08T20:00:00	2	Temperatura media	21.4
38614	7	Sololá	710	Panajachel	8	Panajachel	5	Mayo	2023-05-23T00:00:00	2024-11-08T20:00:00	4	Temperatura máxima	21.4
38615	7	Sololá	710	Panajachel	8	Panajachel	5	Mayo	2023-05-23T00:00:00	2024-11-08T20:00:00	3	Temperatura mínima	21.3
38616	7	Sololá	710	Panajachel	8	Panajachel	5	Mayo	2023-05-23T00:00:00	2024-11-08T20:00:00	5	Humedad	85
38617	7	Sololá	710	Panajachel	8	Panajachel	5	Mayo	2023-05-23T00:00:00	2024-11-08T20:00:00	6	Velocidad del viento	0
38618	7	Sololá	710	Panajachel	8	Panajachel	5	Mayo	2023-05-23T00:00:00	2024-11-08T20:00:00	7	Dirección del viento	0
38619	7	Sololá	710	Panajachel	8	Panajachel	5	Mayo	2023-05-23T00:00:00	2024-11-08T20:00:00	1	Precipitación	0
38620	7	Sololá	710	Panajachel	8	Panajachel	5	Mayo	2023-05-23T00:00:00	2024-11-08T20:00:00	8	Radiación solar	0
38621	7	Sololá	710	Panajachel	8	Panajachel	5	Mayo	2023-05-23T00:00:00	2024-11-08T21:00:00	2	Temperatura media	20.9
38622	7	Sololá	710	Panajachel	8	Panajachel	5	Mayo	2023-05-23T00:00:00	2024-11-08T21:00:00	4	Temperatura máxima	21.4
38623	7	Sololá	710	Panajachel	8	Panajachel	5	Mayo	2023-05-23T00:00:00	2024-11-08T21:00:00	3	Temperatura mínima	20.9
38624	7	Sololá	710	Panajachel	8	Panajachel	5	Mayo	2023-05-23T00:00:00	2024-11-08T21:00:00	5	Humedad	88
38625	7	Sololá	710	Panajachel	8	Panajachel	5	Mayo	2023-05-23T00:00:00	2024-11-08T21:00:00	6	Velocidad del viento	0
38626	7	Sololá	710	Panajachel	8	Panajachel	5	Mayo	2023-05-23T00:00:00	2024-11-08T21:00:00	7	Dirección del viento	0
38627	7	Sololá	710	Panajachel	8	Panajachel	5	Mayo	2023-05-23T00:00:00	2024-11-08T21:00:00	1	Precipitación	0
38628	7	Sololá	710	Panajachel	8	Panajachel	5	Mayo	2023-05-23T00:00:00	2024-11-08T21:00:00	8	Radiación solar	0
38629	7	Sololá	710	Panajachel	8	Panajachel	5	Mayo	2023-05-23T00:00:00	2024-11-08T22:00:00	2	Temperatura media	19.9
38630	7	Sololá	710	Panajachel	8	Panajachel	5	Mayo	2023-05-23T00:00:00	2024-11-08T22:00:00	4	Temperatura máxima	20.9
38631	7	Sololá	710	Panajachel	8	Panajachel	5	Mayo	2023-05-23T00:00:00	2024-11-08T22:00:00	3	Temperatura mínima	19.9
38632	7	Sololá	710	Panajachel	8	Panajachel	5	Mayo	2023-05-23T00:00:00	2024-11-08T22:00:00	5	Humedad	87
38633	7	Sololá	710	Panajachel	8	Panajachel	5	Mayo	2023-05-23T00:00:00	2024-11-08T22:00:00	6	Velocidad del viento	0
38634	7	Sololá	710	Panajachel	8	Panajachel	5	Mayo	2023-05-23T00:00:00	2024-11-08T22:00:00	7	Dirección del viento	0
38635	7	Sololá	710	Panajachel	8	Panajachel	5	Mayo	2023-05-23T00:00:00	2024-11-08T22:00:00	1	Precipitación	0
38636	7	Sololá	710	Panajachel	8	Panajachel	5	Mayo	2023-05-23T00:00:00	2024-11-08T22:00:00	8	Radiación solar	0
38637	7	Sololá	710	Panajachel	8	Panajachel	5	Mayo	2023-05-23T00:00:00	2024-11-08T23:00:00	2	Temperatura media	18.9
38638	7	Sololá	710	Panajachel	8	Panajachel	5	Mayo	2023-05-23T00:00:00	2024-11-08T23:00:00	4	Temperatura máxima	19.9
38639	7	Sololá	710	Panajachel	8	Panajachel	5	Mayo	2023-05-23T00:00:00	2024-11-08T23:00:00	3	Temperatura mínima	18.9
38640	7	Sololá	710	Panajachel	8	Panajachel	5	Mayo	2023-05-23T00:00:00	2024-11-08T23:00:00	5	Humedad	84
38641	7	Sololá	710	Panajachel	8	Panajachel	5	Mayo	2023-05-23T00:00:00	2024-11-08T23:00:00	6	Velocidad del viento	1.6
38642	7	Sololá	710	Panajachel	8	Panajachel	5	Mayo	2023-05-23T00:00:00	2024-11-08T23:00:00	7	Dirección del viento	1.61
38643	7	Sololá	710	Panajachel	8	Panajachel	5	Mayo	2023-05-23T00:00:00	2024-11-08T23:00:00	1	Precipitación	0
38644	7	Sololá	710	Panajachel	8	Panajachel	5	Mayo	2023-05-23T00:00:00	2024-11-08T23:00:00	8	Radiación solar	0
38645	7	Sololá	710	Panajachel	8	Panajachel	5	Mayo	2023-05-24T00:00:00	2024-11-08T00:00:00	2	Temperatura media	18.8
38646	7	Sololá	710	Panajachel	8	Panajachel	5	Mayo	2023-05-24T00:00:00	2024-11-08T00:00:00	4	Temperatura máxima	19.1
38647	7	Sololá	710	Panajachel	8	Panajachel	5	Mayo	2023-05-24T00:00:00	2024-11-08T00:00:00	3	Temperatura mínima	18.7
38648	7	Sololá	710	Panajachel	8	Panajachel	5	Mayo	2023-05-24T00:00:00	2024-11-08T00:00:00	5	Humedad	82
38649	7	Sololá	710	Panajachel	8	Panajachel	5	Mayo	2023-05-24T00:00:00	2024-11-08T00:00:00	6	Velocidad del viento	3.2
38650	7	Sololá	710	Panajachel	8	Panajachel	5	Mayo	2023-05-24T00:00:00	2024-11-08T00:00:00	7	Dirección del viento	3.22
38651	7	Sololá	710	Panajachel	8	Panajachel	5	Mayo	2023-05-24T00:00:00	2024-11-08T00:00:00	1	Precipitación	0
38652	7	Sololá	710	Panajachel	8	Panajachel	5	Mayo	2023-05-24T00:00:00	2024-11-08T00:00:00	8	Radiación solar	0
38653	7	Sololá	710	Panajachel	8	Panajachel	5	Mayo	2023-05-24T00:00:00	2024-11-08T01:00:00	2	Temperatura media	18.1
38654	7	Sololá	710	Panajachel	8	Panajachel	5	Mayo	2023-05-24T00:00:00	2024-11-08T01:00:00	4	Temperatura máxima	18.8
38655	7	Sololá	710	Panajachel	8	Panajachel	5	Mayo	2023-05-24T00:00:00	2024-11-08T01:00:00	3	Temperatura mínima	18.1
38656	7	Sololá	710	Panajachel	8	Panajachel	5	Mayo	2023-05-24T00:00:00	2024-11-08T01:00:00	5	Humedad	83
38657	7	Sololá	710	Panajachel	8	Panajachel	5	Mayo	2023-05-24T00:00:00	2024-11-08T01:00:00	6	Velocidad del viento	1.6
38658	7	Sololá	710	Panajachel	8	Panajachel	5	Mayo	2023-05-24T00:00:00	2024-11-08T01:00:00	7	Dirección del viento	1.61
38659	7	Sololá	710	Panajachel	8	Panajachel	5	Mayo	2023-05-24T00:00:00	2024-11-08T01:00:00	1	Precipitación	0
38660	7	Sololá	710	Panajachel	8	Panajachel	5	Mayo	2023-05-24T00:00:00	2024-11-08T01:00:00	8	Radiación solar	0
38661	7	Sololá	710	Panajachel	8	Panajachel	5	Mayo	2023-05-24T00:00:00	2024-11-08T02:00:00	2	Temperatura media	17.7
38662	7	Sololá	710	Panajachel	8	Panajachel	5	Mayo	2023-05-24T00:00:00	2024-11-08T02:00:00	4	Temperatura máxima	18.1
38663	7	Sololá	710	Panajachel	8	Panajachel	5	Mayo	2023-05-24T00:00:00	2024-11-08T02:00:00	3	Temperatura mínima	17.6
38664	7	Sololá	710	Panajachel	8	Panajachel	5	Mayo	2023-05-24T00:00:00	2024-11-08T02:00:00	5	Humedad	83
38665	7	Sololá	710	Panajachel	8	Panajachel	5	Mayo	2023-05-24T00:00:00	2024-11-08T02:00:00	6	Velocidad del viento	3.2
38666	7	Sololá	710	Panajachel	8	Panajachel	5	Mayo	2023-05-24T00:00:00	2024-11-08T02:00:00	7	Dirección del viento	3.22
38667	7	Sololá	710	Panajachel	8	Panajachel	5	Mayo	2023-05-24T00:00:00	2024-11-08T02:00:00	1	Precipitación	0
38668	7	Sololá	710	Panajachel	8	Panajachel	5	Mayo	2023-05-24T00:00:00	2024-11-08T02:00:00	8	Radiación solar	0
38669	7	Sololá	710	Panajachel	8	Panajachel	5	Mayo	2023-05-24T00:00:00	2024-11-08T03:00:00	2	Temperatura media	17.2
38670	7	Sololá	710	Panajachel	8	Panajachel	5	Mayo	2023-05-24T00:00:00	2024-11-08T03:00:00	4	Temperatura máxima	17.7
38671	7	Sololá	710	Panajachel	8	Panajachel	5	Mayo	2023-05-24T00:00:00	2024-11-08T03:00:00	3	Temperatura mínima	17.2
38672	7	Sololá	710	Panajachel	8	Panajachel	5	Mayo	2023-05-24T00:00:00	2024-11-08T03:00:00	5	Humedad	84
38673	7	Sololá	710	Panajachel	8	Panajachel	5	Mayo	2023-05-24T00:00:00	2024-11-08T03:00:00	6	Velocidad del viento	1.6
38674	7	Sololá	710	Panajachel	8	Panajachel	5	Mayo	2023-05-24T00:00:00	2024-11-08T03:00:00	7	Dirección del viento	1.61
38675	7	Sololá	710	Panajachel	8	Panajachel	5	Mayo	2023-05-24T00:00:00	2024-11-08T03:00:00	1	Precipitación	0
38676	7	Sololá	710	Panajachel	8	Panajachel	5	Mayo	2023-05-24T00:00:00	2024-11-08T03:00:00	8	Radiación solar	0
38677	7	Sololá	710	Panajachel	8	Panajachel	5	Mayo	2023-05-24T00:00:00	2024-11-08T04:00:00	2	Temperatura media	16.9
38678	7	Sololá	710	Panajachel	8	Panajachel	5	Mayo	2023-05-24T00:00:00	2024-11-08T04:00:00	4	Temperatura máxima	17.3
38679	7	Sololá	710	Panajachel	8	Panajachel	5	Mayo	2023-05-24T00:00:00	2024-11-08T04:00:00	3	Temperatura mínima	16.9
38680	7	Sololá	710	Panajachel	8	Panajachel	5	Mayo	2023-05-24T00:00:00	2024-11-08T04:00:00	5	Humedad	84
38681	7	Sololá	710	Panajachel	8	Panajachel	5	Mayo	2023-05-24T00:00:00	2024-11-08T04:00:00	6	Velocidad del viento	1.6
38682	7	Sololá	710	Panajachel	8	Panajachel	5	Mayo	2023-05-24T00:00:00	2024-11-08T04:00:00	7	Dirección del viento	1.61
38683	7	Sololá	710	Panajachel	8	Panajachel	5	Mayo	2023-05-24T00:00:00	2024-11-08T04:00:00	1	Precipitación	0
38684	7	Sololá	710	Panajachel	8	Panajachel	5	Mayo	2023-05-24T00:00:00	2024-11-08T04:00:00	8	Radiación solar	0
38685	7	Sololá	710	Panajachel	8	Panajachel	5	Mayo	2023-05-24T00:00:00	2024-11-08T05:00:00	2	Temperatura media	16.7
38686	7	Sololá	710	Panajachel	8	Panajachel	5	Mayo	2023-05-24T00:00:00	2024-11-08T05:00:00	4	Temperatura máxima	17.3
38687	7	Sololá	710	Panajachel	8	Panajachel	5	Mayo	2023-05-24T00:00:00	2024-11-08T05:00:00	3	Temperatura mínima	16.7
38688	7	Sololá	710	Panajachel	8	Panajachel	5	Mayo	2023-05-24T00:00:00	2024-11-08T05:00:00	5	Humedad	84
38689	7	Sololá	710	Panajachel	8	Panajachel	5	Mayo	2023-05-24T00:00:00	2024-11-08T05:00:00	6	Velocidad del viento	1.6
38690	7	Sololá	710	Panajachel	8	Panajachel	5	Mayo	2023-05-24T00:00:00	2024-11-08T05:00:00	7	Dirección del viento	1.61
38691	7	Sololá	710	Panajachel	8	Panajachel	5	Mayo	2023-05-24T00:00:00	2024-11-08T05:00:00	1	Precipitación	0
38692	7	Sololá	710	Panajachel	8	Panajachel	5	Mayo	2023-05-24T00:00:00	2024-11-08T05:00:00	8	Radiación solar	0
38693	7	Sololá	710	Panajachel	8	Panajachel	5	Mayo	2023-05-24T00:00:00	2024-11-08T06:00:00	2	Temperatura media	16.8
38694	7	Sololá	710	Panajachel	8	Panajachel	5	Mayo	2023-05-24T00:00:00	2024-11-08T06:00:00	4	Temperatura máxima	16.9
38695	7	Sololá	710	Panajachel	8	Panajachel	5	Mayo	2023-05-24T00:00:00	2024-11-08T06:00:00	3	Temperatura mínima	16.5
38696	7	Sololá	710	Panajachel	8	Panajachel	5	Mayo	2023-05-24T00:00:00	2024-11-08T06:00:00	5	Humedad	83
38697	7	Sololá	710	Panajachel	8	Panajachel	5	Mayo	2023-05-24T00:00:00	2024-11-08T06:00:00	6	Velocidad del viento	1.6
38698	7	Sololá	710	Panajachel	8	Panajachel	5	Mayo	2023-05-24T00:00:00	2024-11-08T06:00:00	7	Dirección del viento	1.61
38699	7	Sololá	710	Panajachel	8	Panajachel	5	Mayo	2023-05-24T00:00:00	2024-11-08T06:00:00	1	Precipitación	0
38700	7	Sololá	710	Panajachel	8	Panajachel	5	Mayo	2023-05-24T00:00:00	2024-11-08T06:00:00	8	Radiación solar	5
38701	7	Sololá	710	Panajachel	8	Panajachel	5	Mayo	2023-05-24T00:00:00	2024-11-08T07:00:00	2	Temperatura media	19.4
38702	7	Sololá	710	Panajachel	8	Panajachel	5	Mayo	2023-05-24T00:00:00	2024-11-08T07:00:00	4	Temperatura máxima	19.4
38703	7	Sololá	710	Panajachel	8	Panajachel	5	Mayo	2023-05-24T00:00:00	2024-11-08T07:00:00	3	Temperatura mínima	16.8
38704	7	Sololá	710	Panajachel	8	Panajachel	5	Mayo	2023-05-24T00:00:00	2024-11-08T07:00:00	5	Humedad	77
38705	7	Sololá	710	Panajachel	8	Panajachel	5	Mayo	2023-05-24T00:00:00	2024-11-08T07:00:00	6	Velocidad del viento	1.6
38706	7	Sololá	710	Panajachel	8	Panajachel	5	Mayo	2023-05-24T00:00:00	2024-11-08T07:00:00	7	Dirección del viento	1.61
38707	7	Sololá	710	Panajachel	8	Panajachel	5	Mayo	2023-05-24T00:00:00	2024-11-08T07:00:00	1	Precipitación	0
38708	7	Sololá	710	Panajachel	8	Panajachel	5	Mayo	2023-05-24T00:00:00	2024-11-08T07:00:00	8	Radiación solar	107
38709	7	Sololá	710	Panajachel	8	Panajachel	5	Mayo	2023-05-24T00:00:00	2024-11-08T08:00:00	2	Temperatura media	21.3
38710	7	Sololá	710	Panajachel	8	Panajachel	5	Mayo	2023-05-24T00:00:00	2024-11-08T08:00:00	4	Temperatura máxima	21.4
38711	7	Sololá	710	Panajachel	8	Panajachel	5	Mayo	2023-05-24T00:00:00	2024-11-08T08:00:00	3	Temperatura mínima	19.4
38712	7	Sololá	710	Panajachel	8	Panajachel	5	Mayo	2023-05-24T00:00:00	2024-11-08T08:00:00	5	Humedad	73
38713	7	Sololá	710	Panajachel	8	Panajachel	5	Mayo	2023-05-24T00:00:00	2024-11-08T08:00:00	6	Velocidad del viento	0
38714	7	Sololá	710	Panajachel	8	Panajachel	5	Mayo	2023-05-24T00:00:00	2024-11-08T08:00:00	7	Dirección del viento	0
38715	7	Sololá	710	Panajachel	8	Panajachel	5	Mayo	2023-05-24T00:00:00	2024-11-08T08:00:00	1	Precipitación	0
38716	7	Sololá	710	Panajachel	8	Panajachel	5	Mayo	2023-05-24T00:00:00	2024-11-08T08:00:00	8	Radiación solar	310
38717	7	Sololá	710	Panajachel	8	Panajachel	5	Mayo	2023-05-24T00:00:00	2024-11-08T09:00:00	2	Temperatura media	21.9
38718	7	Sololá	710	Panajachel	8	Panajachel	5	Mayo	2023-05-24T00:00:00	2024-11-08T09:00:00	4	Temperatura máxima	22.1
38719	7	Sololá	710	Panajachel	8	Panajachel	5	Mayo	2023-05-24T00:00:00	2024-11-08T09:00:00	3	Temperatura mínima	21.2
38720	7	Sololá	710	Panajachel	8	Panajachel	5	Mayo	2023-05-24T00:00:00	2024-11-08T09:00:00	5	Humedad	75
38721	7	Sololá	710	Panajachel	8	Panajachel	5	Mayo	2023-05-24T00:00:00	2024-11-08T09:00:00	6	Velocidad del viento	1.6
38722	7	Sololá	710	Panajachel	8	Panajachel	5	Mayo	2023-05-24T00:00:00	2024-11-08T09:00:00	7	Dirección del viento	1.61
38723	7	Sololá	710	Panajachel	8	Panajachel	5	Mayo	2023-05-24T00:00:00	2024-11-08T09:00:00	1	Precipitación	0
38724	7	Sololá	710	Panajachel	8	Panajachel	5	Mayo	2023-05-24T00:00:00	2024-11-08T09:00:00	8	Radiación solar	510
38725	7	Sololá	710	Panajachel	8	Panajachel	5	Mayo	2023-05-24T00:00:00	2024-11-08T10:00:00	2	Temperatura media	23.2
38726	7	Sololá	710	Panajachel	8	Panajachel	5	Mayo	2023-05-24T00:00:00	2024-11-08T10:00:00	4	Temperatura máxima	23.2
38727	7	Sololá	710	Panajachel	8	Panajachel	5	Mayo	2023-05-24T00:00:00	2024-11-08T10:00:00	3	Temperatura mínima	21.1
38728	7	Sololá	710	Panajachel	8	Panajachel	5	Mayo	2023-05-24T00:00:00	2024-11-08T10:00:00	5	Humedad	68
38729	7	Sololá	710	Panajachel	8	Panajachel	5	Mayo	2023-05-24T00:00:00	2024-11-08T10:00:00	6	Velocidad del viento	3.2
38730	7	Sololá	710	Panajachel	8	Panajachel	5	Mayo	2023-05-24T00:00:00	2024-11-08T10:00:00	7	Dirección del viento	3.22
38731	7	Sololá	710	Panajachel	8	Panajachel	5	Mayo	2023-05-24T00:00:00	2024-11-08T10:00:00	1	Precipitación	0
38732	7	Sololá	710	Panajachel	8	Panajachel	5	Mayo	2023-05-24T00:00:00	2024-11-08T10:00:00	8	Radiación solar	717
38733	7	Sololá	710	Panajachel	8	Panajachel	5	Mayo	2023-05-24T00:00:00	2024-11-08T11:00:00	2	Temperatura media	23.8
38734	7	Sololá	710	Panajachel	8	Panajachel	5	Mayo	2023-05-24T00:00:00	2024-11-08T11:00:00	4	Temperatura máxima	24.3
38735	7	Sololá	710	Panajachel	8	Panajachel	5	Mayo	2023-05-24T00:00:00	2024-11-08T11:00:00	3	Temperatura mínima	22.6
38736	7	Sololá	710	Panajachel	8	Panajachel	5	Mayo	2023-05-24T00:00:00	2024-11-08T11:00:00	5	Humedad	66
38737	7	Sololá	710	Panajachel	8	Panajachel	5	Mayo	2023-05-24T00:00:00	2024-11-08T11:00:00	6	Velocidad del viento	3.2
38738	7	Sololá	710	Panajachel	8	Panajachel	5	Mayo	2023-05-24T00:00:00	2024-11-08T11:00:00	7	Dirección del viento	3.22
38739	7	Sololá	710	Panajachel	8	Panajachel	5	Mayo	2023-05-24T00:00:00	2024-11-08T11:00:00	1	Precipitación	0
38740	7	Sololá	710	Panajachel	8	Panajachel	5	Mayo	2023-05-24T00:00:00	2024-11-08T11:00:00	8	Radiación solar	817
38741	7	Sololá	710	Panajachel	8	Panajachel	5	Mayo	2023-05-24T00:00:00	2024-11-08T12:00:00	2	Temperatura media	24.2
38742	7	Sololá	710	Panajachel	8	Panajachel	5	Mayo	2023-05-24T00:00:00	2024-11-08T12:00:00	4	Temperatura máxima	25.2
38743	7	Sololá	710	Panajachel	8	Panajachel	5	Mayo	2023-05-24T00:00:00	2024-11-08T12:00:00	3	Temperatura mínima	23.8
38744	7	Sololá	710	Panajachel	8	Panajachel	5	Mayo	2023-05-24T00:00:00	2024-11-08T12:00:00	5	Humedad	67
38745	7	Sololá	710	Panajachel	8	Panajachel	5	Mayo	2023-05-24T00:00:00	2024-11-08T12:00:00	6	Velocidad del viento	3.2
38746	7	Sololá	710	Panajachel	8	Panajachel	5	Mayo	2023-05-24T00:00:00	2024-11-08T12:00:00	7	Dirección del viento	3.22
38747	7	Sololá	710	Panajachel	8	Panajachel	5	Mayo	2023-05-24T00:00:00	2024-11-08T12:00:00	1	Precipitación	0
38748	7	Sololá	710	Panajachel	8	Panajachel	5	Mayo	2023-05-24T00:00:00	2024-11-08T12:00:00	8	Radiación solar	933
38749	7	Sololá	710	Panajachel	8	Panajachel	5	Mayo	2023-05-24T00:00:00	2024-11-08T13:00:00	2	Temperatura media	25.1
38750	7	Sololá	710	Panajachel	8	Panajachel	5	Mayo	2023-05-24T00:00:00	2024-11-08T13:00:00	4	Temperatura máxima	25.1
38751	7	Sololá	710	Panajachel	8	Panajachel	5	Mayo	2023-05-24T00:00:00	2024-11-08T13:00:00	3	Temperatura mínima	23.7
38752	7	Sololá	710	Panajachel	8	Panajachel	5	Mayo	2023-05-24T00:00:00	2024-11-08T13:00:00	5	Humedad	72
38753	7	Sololá	710	Panajachel	8	Panajachel	5	Mayo	2023-05-24T00:00:00	2024-11-08T13:00:00	6	Velocidad del viento	4.8
38754	7	Sololá	710	Panajachel	8	Panajachel	5	Mayo	2023-05-24T00:00:00	2024-11-08T13:00:00	7	Dirección del viento	4.83
38755	7	Sololá	710	Panajachel	8	Panajachel	5	Mayo	2023-05-24T00:00:00	2024-11-08T13:00:00	1	Precipitación	0
38756	7	Sololá	710	Panajachel	8	Panajachel	5	Mayo	2023-05-24T00:00:00	2024-11-08T13:00:00	8	Radiación solar	922
38757	7	Sololá	710	Panajachel	8	Panajachel	5	Mayo	2023-05-24T00:00:00	2024-11-08T14:00:00	2	Temperatura media	24.5
38758	7	Sololá	710	Panajachel	8	Panajachel	5	Mayo	2023-05-24T00:00:00	2024-11-08T14:00:00	4	Temperatura máxima	25.6
38759	7	Sololá	710	Panajachel	8	Panajachel	5	Mayo	2023-05-24T00:00:00	2024-11-08T14:00:00	3	Temperatura mínima	24
38760	7	Sololá	710	Panajachel	8	Panajachel	5	Mayo	2023-05-24T00:00:00	2024-11-08T14:00:00	5	Humedad	74
38761	7	Sololá	710	Panajachel	8	Panajachel	5	Mayo	2023-05-24T00:00:00	2024-11-08T14:00:00	6	Velocidad del viento	6.4
38762	7	Sololá	710	Panajachel	8	Panajachel	5	Mayo	2023-05-24T00:00:00	2024-11-08T14:00:00	7	Dirección del viento	6.44
38763	7	Sololá	710	Panajachel	8	Panajachel	5	Mayo	2023-05-24T00:00:00	2024-11-08T14:00:00	1	Precipitación	0
38764	7	Sololá	710	Panajachel	8	Panajachel	5	Mayo	2023-05-24T00:00:00	2024-11-08T14:00:00	8	Radiación solar	862
38765	7	Sololá	710	Panajachel	8	Panajachel	5	Mayo	2023-05-24T00:00:00	2024-11-08T15:00:00	2	Temperatura media	25
38766	7	Sololá	710	Panajachel	8	Panajachel	5	Mayo	2023-05-24T00:00:00	2024-11-08T15:00:00	4	Temperatura máxima	25.7
38767	7	Sololá	710	Panajachel	8	Panajachel	5	Mayo	2023-05-24T00:00:00	2024-11-08T15:00:00	3	Temperatura mínima	24.5
38768	7	Sololá	710	Panajachel	8	Panajachel	5	Mayo	2023-05-24T00:00:00	2024-11-08T15:00:00	5	Humedad	75
38769	7	Sololá	710	Panajachel	8	Panajachel	5	Mayo	2023-05-24T00:00:00	2024-11-08T15:00:00	6	Velocidad del viento	4.8
38770	7	Sololá	710	Panajachel	8	Panajachel	5	Mayo	2023-05-24T00:00:00	2024-11-08T15:00:00	7	Dirección del viento	4.83
38771	7	Sololá	710	Panajachel	8	Panajachel	5	Mayo	2023-05-24T00:00:00	2024-11-08T15:00:00	1	Precipitación	0
38772	7	Sololá	710	Panajachel	8	Panajachel	5	Mayo	2023-05-24T00:00:00	2024-11-08T15:00:00	8	Radiación solar	721
38773	7	Sololá	710	Panajachel	8	Panajachel	5	Mayo	2023-05-24T00:00:00	2024-11-08T16:00:00	2	Temperatura media	24.3
38774	7	Sololá	710	Panajachel	8	Panajachel	5	Mayo	2023-05-24T00:00:00	2024-11-08T16:00:00	4	Temperatura máxima	24.9
38775	7	Sololá	710	Panajachel	8	Panajachel	5	Mayo	2023-05-24T00:00:00	2024-11-08T16:00:00	3	Temperatura mínima	23.9
38776	7	Sololá	710	Panajachel	8	Panajachel	5	Mayo	2023-05-24T00:00:00	2024-11-08T16:00:00	5	Humedad	79
38777	7	Sololá	710	Panajachel	8	Panajachel	5	Mayo	2023-05-24T00:00:00	2024-11-08T16:00:00	6	Velocidad del viento	6.4
38778	7	Sololá	710	Panajachel	8	Panajachel	5	Mayo	2023-05-24T00:00:00	2024-11-08T16:00:00	7	Dirección del viento	6.44
38779	7	Sololá	710	Panajachel	8	Panajachel	5	Mayo	2023-05-24T00:00:00	2024-11-08T16:00:00	1	Precipitación	0
38780	7	Sololá	710	Panajachel	8	Panajachel	5	Mayo	2023-05-24T00:00:00	2024-11-08T16:00:00	8	Radiación solar	366
38781	7	Sololá	710	Panajachel	8	Panajachel	5	Mayo	2023-05-24T00:00:00	2024-11-08T17:00:00	2	Temperatura media	23.3
38782	7	Sololá	710	Panajachel	8	Panajachel	5	Mayo	2023-05-24T00:00:00	2024-11-08T17:00:00	4	Temperatura máxima	24.3
38783	7	Sololá	710	Panajachel	8	Panajachel	5	Mayo	2023-05-24T00:00:00	2024-11-08T17:00:00	3	Temperatura mínima	23.3
38784	7	Sololá	710	Panajachel	8	Panajachel	5	Mayo	2023-05-24T00:00:00	2024-11-08T17:00:00	5	Humedad	84
38785	7	Sololá	710	Panajachel	8	Panajachel	5	Mayo	2023-05-24T00:00:00	2024-11-08T17:00:00	6	Velocidad del viento	3.2
38786	7	Sololá	710	Panajachel	8	Panajachel	5	Mayo	2023-05-24T00:00:00	2024-11-08T17:00:00	7	Dirección del viento	3.22
38787	7	Sololá	710	Panajachel	8	Panajachel	5	Mayo	2023-05-24T00:00:00	2024-11-08T17:00:00	1	Precipitación	0
38788	7	Sololá	710	Panajachel	8	Panajachel	5	Mayo	2023-05-24T00:00:00	2024-11-08T17:00:00	8	Radiación solar	125
38789	7	Sololá	710	Panajachel	8	Panajachel	5	Mayo	2023-05-24T00:00:00	2024-11-08T18:00:00	2	Temperatura media	22.7
38790	7	Sololá	710	Panajachel	8	Panajachel	5	Mayo	2023-05-24T00:00:00	2024-11-08T18:00:00	4	Temperatura máxima	23.3
38791	7	Sololá	710	Panajachel	8	Panajachel	5	Mayo	2023-05-24T00:00:00	2024-11-08T18:00:00	3	Temperatura mínima	22.7
38792	7	Sololá	710	Panajachel	8	Panajachel	5	Mayo	2023-05-24T00:00:00	2024-11-08T18:00:00	5	Humedad	85
38793	7	Sololá	710	Panajachel	8	Panajachel	5	Mayo	2023-05-24T00:00:00	2024-11-08T18:00:00	6	Velocidad del viento	1.6
38794	7	Sololá	710	Panajachel	8	Panajachel	5	Mayo	2023-05-24T00:00:00	2024-11-08T18:00:00	7	Dirección del viento	1.61
38795	7	Sololá	710	Panajachel	8	Panajachel	5	Mayo	2023-05-24T00:00:00	2024-11-08T18:00:00	1	Precipitación	0
38796	7	Sololá	710	Panajachel	8	Panajachel	5	Mayo	2023-05-24T00:00:00	2024-11-08T18:00:00	8	Radiación solar	80
38797	7	Sololá	710	Panajachel	8	Panajachel	5	Mayo	2023-05-24T00:00:00	2024-11-08T19:00:00	2	Temperatura media	22.2
38798	7	Sololá	710	Panajachel	8	Panajachel	5	Mayo	2023-05-24T00:00:00	2024-11-08T19:00:00	4	Temperatura máxima	22.7
38799	7	Sololá	710	Panajachel	8	Panajachel	5	Mayo	2023-05-24T00:00:00	2024-11-08T19:00:00	3	Temperatura mínima	22.1
38800	7	Sololá	710	Panajachel	8	Panajachel	5	Mayo	2023-05-24T00:00:00	2024-11-08T19:00:00	5	Humedad	86
38801	7	Sololá	710	Panajachel	8	Panajachel	5	Mayo	2023-05-24T00:00:00	2024-11-08T19:00:00	6	Velocidad del viento	9.7
38802	7	Sololá	710	Panajachel	8	Panajachel	5	Mayo	2023-05-24T00:00:00	2024-11-08T19:00:00	7	Dirección del viento	9.66
38803	7	Sololá	710	Panajachel	8	Panajachel	5	Mayo	2023-05-24T00:00:00	2024-11-08T19:00:00	1	Precipitación	0
38804	7	Sololá	710	Panajachel	8	Panajachel	5	Mayo	2023-05-24T00:00:00	2024-11-08T19:00:00	8	Radiación solar	0
38805	7	Sololá	710	Panajachel	8	Panajachel	5	Mayo	2023-05-24T00:00:00	2024-11-08T20:00:00	2	Temperatura media	22
38806	7	Sololá	710	Panajachel	8	Panajachel	5	Mayo	2023-05-24T00:00:00	2024-11-08T20:00:00	4	Temperatura máxima	22.2
38807	7	Sololá	710	Panajachel	8	Panajachel	5	Mayo	2023-05-24T00:00:00	2024-11-08T20:00:00	3	Temperatura mínima	22
38808	7	Sololá	710	Panajachel	8	Panajachel	5	Mayo	2023-05-24T00:00:00	2024-11-08T20:00:00	5	Humedad	86
38809	7	Sololá	710	Panajachel	8	Panajachel	5	Mayo	2023-05-24T00:00:00	2024-11-08T20:00:00	6	Velocidad del viento	1.6
38810	7	Sololá	710	Panajachel	8	Panajachel	5	Mayo	2023-05-24T00:00:00	2024-11-08T20:00:00	7	Dirección del viento	1.61
38811	7	Sololá	710	Panajachel	8	Panajachel	5	Mayo	2023-05-24T00:00:00	2024-11-08T20:00:00	1	Precipitación	0
38812	7	Sololá	710	Panajachel	8	Panajachel	5	Mayo	2023-05-24T00:00:00	2024-11-08T20:00:00	8	Radiación solar	0
38813	7	Sololá	710	Panajachel	8	Panajachel	5	Mayo	2023-05-24T00:00:00	2024-11-08T21:00:00	2	Temperatura media	21.7
38814	7	Sololá	710	Panajachel	8	Panajachel	5	Mayo	2023-05-24T00:00:00	2024-11-08T21:00:00	4	Temperatura máxima	22.1
38815	7	Sololá	710	Panajachel	8	Panajachel	5	Mayo	2023-05-24T00:00:00	2024-11-08T21:00:00	3	Temperatura mínima	21.7
38816	7	Sololá	710	Panajachel	8	Panajachel	5	Mayo	2023-05-24T00:00:00	2024-11-08T21:00:00	5	Humedad	88
38817	7	Sololá	710	Panajachel	8	Panajachel	5	Mayo	2023-05-24T00:00:00	2024-11-08T21:00:00	6	Velocidad del viento	0
38818	7	Sololá	710	Panajachel	8	Panajachel	5	Mayo	2023-05-24T00:00:00	2024-11-08T21:00:00	7	Dirección del viento	0
38819	7	Sololá	710	Panajachel	8	Panajachel	5	Mayo	2023-05-24T00:00:00	2024-11-08T21:00:00	1	Precipitación	0
38820	7	Sololá	710	Panajachel	8	Panajachel	5	Mayo	2023-05-24T00:00:00	2024-11-08T21:00:00	8	Radiación solar	0
38821	7	Sololá	710	Panajachel	8	Panajachel	5	Mayo	2023-05-24T00:00:00	2024-11-08T22:00:00	2	Temperatura media	21.5
38822	7	Sololá	710	Panajachel	8	Panajachel	5	Mayo	2023-05-24T00:00:00	2024-11-08T22:00:00	4	Temperatura máxima	21.7
38823	7	Sololá	710	Panajachel	8	Panajachel	5	Mayo	2023-05-24T00:00:00	2024-11-08T22:00:00	3	Temperatura mínima	21.4
38824	7	Sololá	710	Panajachel	8	Panajachel	5	Mayo	2023-05-24T00:00:00	2024-11-08T22:00:00	5	Humedad	87
38825	7	Sololá	710	Panajachel	8	Panajachel	5	Mayo	2023-05-24T00:00:00	2024-11-08T22:00:00	6	Velocidad del viento	1.6
38826	7	Sololá	710	Panajachel	8	Panajachel	5	Mayo	2023-05-24T00:00:00	2024-11-08T22:00:00	7	Dirección del viento	1.61
38827	7	Sololá	710	Panajachel	8	Panajachel	5	Mayo	2023-05-24T00:00:00	2024-11-08T22:00:00	1	Precipitación	0
38828	7	Sololá	710	Panajachel	8	Panajachel	5	Mayo	2023-05-24T00:00:00	2024-11-08T22:00:00	8	Radiación solar	0
38829	7	Sololá	710	Panajachel	8	Panajachel	5	Mayo	2023-05-24T00:00:00	2024-11-08T23:00:00	2	Temperatura media	20.9
38830	7	Sololá	710	Panajachel	8	Panajachel	5	Mayo	2023-05-24T00:00:00	2024-11-08T23:00:00	4	Temperatura máxima	21.6
38831	7	Sololá	710	Panajachel	8	Panajachel	5	Mayo	2023-05-24T00:00:00	2024-11-08T23:00:00	3	Temperatura mínima	20.9
38832	7	Sololá	710	Panajachel	8	Panajachel	5	Mayo	2023-05-24T00:00:00	2024-11-08T23:00:00	5	Humedad	88
38833	7	Sololá	710	Panajachel	8	Panajachel	5	Mayo	2023-05-24T00:00:00	2024-11-08T23:00:00	6	Velocidad del viento	0
38834	7	Sololá	710	Panajachel	8	Panajachel	5	Mayo	2023-05-24T00:00:00	2024-11-08T23:00:00	7	Dirección del viento	0
38835	7	Sololá	710	Panajachel	8	Panajachel	5	Mayo	2023-05-24T00:00:00	2024-11-08T23:00:00	1	Precipitación	0
38836	7	Sololá	710	Panajachel	8	Panajachel	5	Mayo	2023-05-24T00:00:00	2024-11-08T23:00:00	8	Radiación solar	0
38837	7	Sololá	710	Panajachel	8	Panajachel	5	Mayo	2023-05-25T00:00:00	2024-11-08T00:00:00	2	Temperatura media	20.4
38838	7	Sololá	710	Panajachel	8	Panajachel	5	Mayo	2023-05-25T00:00:00	2024-11-08T00:00:00	4	Temperatura máxima	20.9
38839	7	Sololá	710	Panajachel	8	Panajachel	5	Mayo	2023-05-25T00:00:00	2024-11-08T00:00:00	3	Temperatura mínima	20.3
38840	7	Sololá	710	Panajachel	8	Panajachel	5	Mayo	2023-05-25T00:00:00	2024-11-08T00:00:00	5	Humedad	84
38841	7	Sololá	710	Panajachel	8	Panajachel	5	Mayo	2023-05-25T00:00:00	2024-11-08T00:00:00	6	Velocidad del viento	0
38842	7	Sololá	710	Panajachel	8	Panajachel	5	Mayo	2023-05-25T00:00:00	2024-11-08T00:00:00	7	Dirección del viento	0
38843	7	Sololá	710	Panajachel	8	Panajachel	5	Mayo	2023-05-25T00:00:00	2024-11-08T00:00:00	1	Precipitación	0
38844	7	Sololá	710	Panajachel	8	Panajachel	5	Mayo	2023-05-25T00:00:00	2024-11-08T00:00:00	8	Radiación solar	0
38845	7	Sololá	710	Panajachel	8	Panajachel	5	Mayo	2023-05-25T00:00:00	2024-11-08T01:00:00	2	Temperatura media	19.6
38846	7	Sololá	710	Panajachel	8	Panajachel	5	Mayo	2023-05-25T00:00:00	2024-11-08T01:00:00	4	Temperatura máxima	20.4
38847	7	Sololá	710	Panajachel	8	Panajachel	5	Mayo	2023-05-25T00:00:00	2024-11-08T01:00:00	3	Temperatura mínima	19.6
38848	7	Sololá	710	Panajachel	8	Panajachel	5	Mayo	2023-05-25T00:00:00	2024-11-08T01:00:00	5	Humedad	85
38849	7	Sololá	710	Panajachel	8	Panajachel	5	Mayo	2023-05-25T00:00:00	2024-11-08T01:00:00	6	Velocidad del viento	0
38850	7	Sololá	710	Panajachel	8	Panajachel	5	Mayo	2023-05-25T00:00:00	2024-11-08T01:00:00	7	Dirección del viento	0
38851	7	Sololá	710	Panajachel	8	Panajachel	5	Mayo	2023-05-25T00:00:00	2024-11-08T01:00:00	1	Precipitación	0
38852	7	Sololá	710	Panajachel	8	Panajachel	5	Mayo	2023-05-25T00:00:00	2024-11-08T01:00:00	8	Radiación solar	0
38853	7	Sololá	710	Panajachel	8	Panajachel	5	Mayo	2023-05-25T00:00:00	2024-11-08T02:00:00	2	Temperatura media	18.8
38854	7	Sololá	710	Panajachel	8	Panajachel	5	Mayo	2023-05-25T00:00:00	2024-11-08T02:00:00	4	Temperatura máxima	19.5
38855	7	Sololá	710	Panajachel	8	Panajachel	5	Mayo	2023-05-25T00:00:00	2024-11-08T02:00:00	3	Temperatura mínima	18.8
38856	7	Sololá	710	Panajachel	8	Panajachel	5	Mayo	2023-05-25T00:00:00	2024-11-08T02:00:00	5	Humedad	86
38857	7	Sololá	710	Panajachel	8	Panajachel	5	Mayo	2023-05-25T00:00:00	2024-11-08T02:00:00	6	Velocidad del viento	1.6
38858	7	Sololá	710	Panajachel	8	Panajachel	5	Mayo	2023-05-25T00:00:00	2024-11-08T02:00:00	7	Dirección del viento	1.61
38859	7	Sololá	710	Panajachel	8	Panajachel	5	Mayo	2023-05-25T00:00:00	2024-11-08T02:00:00	1	Precipitación	0
38860	7	Sololá	710	Panajachel	8	Panajachel	5	Mayo	2023-05-25T00:00:00	2024-11-08T02:00:00	8	Radiación solar	0
38861	7	Sololá	710	Panajachel	8	Panajachel	5	Mayo	2023-05-25T00:00:00	2024-11-08T03:00:00	2	Temperatura media	18.3
38862	7	Sololá	710	Panajachel	8	Panajachel	5	Mayo	2023-05-25T00:00:00	2024-11-08T03:00:00	4	Temperatura máxima	18.8
38863	7	Sololá	710	Panajachel	8	Panajachel	5	Mayo	2023-05-25T00:00:00	2024-11-08T03:00:00	3	Temperatura mínima	18.3
38864	7	Sololá	710	Panajachel	8	Panajachel	5	Mayo	2023-05-25T00:00:00	2024-11-08T03:00:00	5	Humedad	82
38865	7	Sololá	710	Panajachel	8	Panajachel	5	Mayo	2023-05-25T00:00:00	2024-11-08T03:00:00	6	Velocidad del viento	3.2
38866	7	Sololá	710	Panajachel	8	Panajachel	5	Mayo	2023-05-25T00:00:00	2024-11-08T03:00:00	7	Dirección del viento	3.22
38867	7	Sololá	710	Panajachel	8	Panajachel	5	Mayo	2023-05-25T00:00:00	2024-11-08T03:00:00	1	Precipitación	0
38868	7	Sololá	710	Panajachel	8	Panajachel	5	Mayo	2023-05-25T00:00:00	2024-11-08T03:00:00	8	Radiación solar	0
38869	7	Sololá	710	Panajachel	8	Panajachel	5	Mayo	2023-05-25T00:00:00	2024-11-08T04:00:00	2	Temperatura media	18.6
38870	7	Sololá	710	Panajachel	8	Panajachel	5	Mayo	2023-05-25T00:00:00	2024-11-08T04:00:00	4	Temperatura máxima	18.6
38871	7	Sololá	710	Panajachel	8	Panajachel	5	Mayo	2023-05-25T00:00:00	2024-11-08T04:00:00	3	Temperatura mínima	18.1
38872	7	Sololá	710	Panajachel	8	Panajachel	5	Mayo	2023-05-25T00:00:00	2024-11-08T04:00:00	5	Humedad	80
38873	7	Sololá	710	Panajachel	8	Panajachel	5	Mayo	2023-05-25T00:00:00	2024-11-08T04:00:00	6	Velocidad del viento	3.2
38874	7	Sololá	710	Panajachel	8	Panajachel	5	Mayo	2023-05-25T00:00:00	2024-11-08T04:00:00	7	Dirección del viento	3.22
38875	7	Sololá	710	Panajachel	8	Panajachel	5	Mayo	2023-05-25T00:00:00	2024-11-08T04:00:00	1	Precipitación	0
38876	7	Sololá	710	Panajachel	8	Panajachel	5	Mayo	2023-05-25T00:00:00	2024-11-08T04:00:00	8	Radiación solar	0
38877	7	Sololá	710	Panajachel	8	Panajachel	5	Mayo	2023-05-25T00:00:00	2024-11-08T05:00:00	2	Temperatura media	17.9
38878	7	Sololá	710	Panajachel	8	Panajachel	5	Mayo	2023-05-25T00:00:00	2024-11-08T05:00:00	4	Temperatura máxima	18.6
38879	7	Sololá	710	Panajachel	8	Panajachel	5	Mayo	2023-05-25T00:00:00	2024-11-08T05:00:00	3	Temperatura mínima	17.8
38880	7	Sololá	710	Panajachel	8	Panajachel	5	Mayo	2023-05-25T00:00:00	2024-11-08T05:00:00	5	Humedad	79
38881	7	Sololá	710	Panajachel	8	Panajachel	5	Mayo	2023-05-25T00:00:00	2024-11-08T05:00:00	6	Velocidad del viento	3.2
38882	7	Sololá	710	Panajachel	8	Panajachel	5	Mayo	2023-05-25T00:00:00	2024-11-08T05:00:00	7	Dirección del viento	3.22
38883	7	Sololá	710	Panajachel	8	Panajachel	5	Mayo	2023-05-25T00:00:00	2024-11-08T05:00:00	1	Precipitación	0
38884	7	Sololá	710	Panajachel	8	Panajachel	5	Mayo	2023-05-25T00:00:00	2024-11-08T05:00:00	8	Radiación solar	0
38885	7	Sololá	710	Panajachel	8	Panajachel	5	Mayo	2023-05-25T00:00:00	2024-11-08T06:00:00	2	Temperatura media	17.6
38886	7	Sololá	710	Panajachel	8	Panajachel	5	Mayo	2023-05-25T00:00:00	2024-11-08T06:00:00	4	Temperatura máxima	18
38887	7	Sololá	710	Panajachel	8	Panajachel	5	Mayo	2023-05-25T00:00:00	2024-11-08T06:00:00	3	Temperatura mínima	17.6
38888	7	Sololá	710	Panajachel	8	Panajachel	5	Mayo	2023-05-25T00:00:00	2024-11-08T06:00:00	5	Humedad	77
38889	7	Sololá	710	Panajachel	8	Panajachel	5	Mayo	2023-05-25T00:00:00	2024-11-08T06:00:00	6	Velocidad del viento	1.6
38890	7	Sololá	710	Panajachel	8	Panajachel	5	Mayo	2023-05-25T00:00:00	2024-11-08T06:00:00	7	Dirección del viento	1.61
38891	7	Sololá	710	Panajachel	8	Panajachel	5	Mayo	2023-05-25T00:00:00	2024-11-08T06:00:00	1	Precipitación	0
38892	7	Sololá	710	Panajachel	8	Panajachel	5	Mayo	2023-05-25T00:00:00	2024-11-08T06:00:00	8	Radiación solar	10
38893	7	Sololá	710	Panajachel	8	Panajachel	5	Mayo	2023-05-25T00:00:00	2024-11-08T07:00:00	2	Temperatura media	19.3
38894	7	Sololá	710	Panajachel	8	Panajachel	5	Mayo	2023-05-25T00:00:00	2024-11-08T07:00:00	4	Temperatura máxima	19.3
38895	7	Sololá	710	Panajachel	8	Panajachel	5	Mayo	2023-05-25T00:00:00	2024-11-08T07:00:00	3	Temperatura mínima	17.6
38896	7	Sololá	710	Panajachel	8	Panajachel	5	Mayo	2023-05-25T00:00:00	2024-11-08T07:00:00	5	Humedad	74
38897	7	Sololá	710	Panajachel	8	Panajachel	5	Mayo	2023-05-25T00:00:00	2024-11-08T07:00:00	6	Velocidad del viento	0
38898	7	Sololá	710	Panajachel	8	Panajachel	5	Mayo	2023-05-25T00:00:00	2024-11-08T07:00:00	7	Dirección del viento	0
38899	7	Sololá	710	Panajachel	8	Panajachel	5	Mayo	2023-05-25T00:00:00	2024-11-08T07:00:00	1	Precipitación	0
38900	7	Sololá	710	Panajachel	8	Panajachel	5	Mayo	2023-05-25T00:00:00	2024-11-08T07:00:00	8	Radiación solar	112
38901	7	Sololá	710	Panajachel	8	Panajachel	5	Mayo	2023-05-25T00:00:00	2024-11-08T08:00:00	2	Temperatura media	21.9
38902	7	Sololá	710	Panajachel	8	Panajachel	5	Mayo	2023-05-25T00:00:00	2024-11-08T08:00:00	4	Temperatura máxima	21.9
38903	7	Sololá	710	Panajachel	8	Panajachel	5	Mayo	2023-05-25T00:00:00	2024-11-08T08:00:00	3	Temperatura mínima	19.2
38904	7	Sololá	710	Panajachel	8	Panajachel	5	Mayo	2023-05-25T00:00:00	2024-11-08T08:00:00	5	Humedad	76
38905	7	Sololá	710	Panajachel	8	Panajachel	5	Mayo	2023-05-25T00:00:00	2024-11-08T08:00:00	6	Velocidad del viento	0
38906	7	Sololá	710	Panajachel	8	Panajachel	5	Mayo	2023-05-25T00:00:00	2024-11-08T08:00:00	7	Dirección del viento	0
38907	7	Sololá	710	Panajachel	8	Panajachel	5	Mayo	2023-05-25T00:00:00	2024-11-08T08:00:00	1	Precipitación	0
38908	7	Sololá	710	Panajachel	8	Panajachel	5	Mayo	2023-05-25T00:00:00	2024-11-08T08:00:00	8	Radiación solar	299
38909	7	Sololá	710	Panajachel	8	Panajachel	5	Mayo	2023-05-25T00:00:00	2024-11-08T09:00:00	2	Temperatura media	21.7
38910	7	Sololá	710	Panajachel	8	Panajachel	5	Mayo	2023-05-25T00:00:00	2024-11-08T09:00:00	4	Temperatura máxima	22.2
38911	7	Sololá	710	Panajachel	8	Panajachel	5	Mayo	2023-05-25T00:00:00	2024-11-08T09:00:00	3	Temperatura mínima	21.3
38912	7	Sololá	710	Panajachel	8	Panajachel	5	Mayo	2023-05-25T00:00:00	2024-11-08T09:00:00	5	Humedad	76
38913	7	Sololá	710	Panajachel	8	Panajachel	5	Mayo	2023-05-25T00:00:00	2024-11-08T09:00:00	6	Velocidad del viento	0
38914	7	Sololá	710	Panajachel	8	Panajachel	5	Mayo	2023-05-25T00:00:00	2024-11-08T09:00:00	7	Dirección del viento	0
38915	7	Sololá	710	Panajachel	8	Panajachel	5	Mayo	2023-05-25T00:00:00	2024-11-08T09:00:00	1	Precipitación	0
38916	7	Sololá	710	Panajachel	8	Panajachel	5	Mayo	2023-05-25T00:00:00	2024-11-08T09:00:00	8	Radiación solar	543
38917	7	Sololá	710	Panajachel	8	Panajachel	5	Mayo	2023-05-25T00:00:00	2024-11-08T10:00:00	2	Temperatura media	22.8
38918	7	Sololá	710	Panajachel	8	Panajachel	5	Mayo	2023-05-25T00:00:00	2024-11-08T10:00:00	4	Temperatura máxima	22.9
38919	7	Sololá	710	Panajachel	8	Panajachel	5	Mayo	2023-05-25T00:00:00	2024-11-08T10:00:00	3	Temperatura mínima	21.7
38920	7	Sololá	710	Panajachel	8	Panajachel	5	Mayo	2023-05-25T00:00:00	2024-11-08T10:00:00	5	Humedad	73
38921	7	Sololá	710	Panajachel	8	Panajachel	5	Mayo	2023-05-25T00:00:00	2024-11-08T10:00:00	6	Velocidad del viento	0
38922	7	Sololá	710	Panajachel	8	Panajachel	5	Mayo	2023-05-25T00:00:00	2024-11-08T10:00:00	7	Dirección del viento	0
38923	7	Sololá	710	Panajachel	8	Panajachel	5	Mayo	2023-05-25T00:00:00	2024-11-08T10:00:00	1	Precipitación	0
38924	7	Sololá	710	Panajachel	8	Panajachel	5	Mayo	2023-05-25T00:00:00	2024-11-08T10:00:00	8	Radiación solar	707
38925	7	Sololá	710	Panajachel	8	Panajachel	5	Mayo	2023-05-25T00:00:00	2024-11-08T11:00:00	2	Temperatura media	23.1
38926	7	Sololá	710	Panajachel	8	Panajachel	5	Mayo	2023-05-25T00:00:00	2024-11-08T11:00:00	4	Temperatura máxima	23.2
38927	7	Sololá	710	Panajachel	8	Panajachel	5	Mayo	2023-05-25T00:00:00	2024-11-08T11:00:00	3	Temperatura mínima	22.6
38928	7	Sololá	710	Panajachel	8	Panajachel	5	Mayo	2023-05-25T00:00:00	2024-11-08T11:00:00	5	Humedad	69
38929	7	Sololá	710	Panajachel	8	Panajachel	5	Mayo	2023-05-25T00:00:00	2024-11-08T11:00:00	6	Velocidad del viento	0
38930	7	Sololá	710	Panajachel	8	Panajachel	5	Mayo	2023-05-25T00:00:00	2024-11-08T11:00:00	7	Dirección del viento	0
38931	7	Sololá	710	Panajachel	8	Panajachel	5	Mayo	2023-05-25T00:00:00	2024-11-08T11:00:00	1	Precipitación	0
38932	7	Sololá	710	Panajachel	8	Panajachel	5	Mayo	2023-05-25T00:00:00	2024-11-08T11:00:00	8	Radiación solar	848
38933	7	Sololá	710	Panajachel	8	Panajachel	5	Mayo	2023-05-25T00:00:00	2024-11-08T12:00:00	2	Temperatura media	24.9
38934	7	Sololá	710	Panajachel	8	Panajachel	5	Mayo	2023-05-25T00:00:00	2024-11-08T12:00:00	4	Temperatura máxima	25.2
38935	7	Sololá	710	Panajachel	8	Panajachel	5	Mayo	2023-05-25T00:00:00	2024-11-08T12:00:00	3	Temperatura mínima	23.1
38936	7	Sololá	710	Panajachel	8	Panajachel	5	Mayo	2023-05-25T00:00:00	2024-11-08T12:00:00	5	Humedad	69
38937	7	Sololá	710	Panajachel	8	Panajachel	5	Mayo	2023-05-25T00:00:00	2024-11-08T12:00:00	6	Velocidad del viento	0
38938	7	Sololá	710	Panajachel	8	Panajachel	5	Mayo	2023-05-25T00:00:00	2024-11-08T12:00:00	7	Dirección del viento	0
38939	7	Sololá	710	Panajachel	8	Panajachel	5	Mayo	2023-05-25T00:00:00	2024-11-08T12:00:00	1	Precipitación	0
38940	7	Sololá	710	Panajachel	8	Panajachel	5	Mayo	2023-05-25T00:00:00	2024-11-08T12:00:00	8	Radiación solar	888
38941	7	Sololá	710	Panajachel	8	Panajachel	5	Mayo	2023-05-25T00:00:00	2024-11-08T13:00:00	2	Temperatura media	25.6
38942	7	Sololá	710	Panajachel	8	Panajachel	5	Mayo	2023-05-25T00:00:00	2024-11-08T13:00:00	4	Temperatura máxima	25.6
38943	7	Sololá	710	Panajachel	8	Panajachel	5	Mayo	2023-05-25T00:00:00	2024-11-08T13:00:00	3	Temperatura mínima	24.2
38944	7	Sololá	710	Panajachel	8	Panajachel	5	Mayo	2023-05-25T00:00:00	2024-11-08T13:00:00	5	Humedad	73
38945	7	Sololá	710	Panajachel	8	Panajachel	5	Mayo	2023-05-25T00:00:00	2024-11-08T13:00:00	6	Velocidad del viento	4.8
38946	7	Sololá	710	Panajachel	8	Panajachel	5	Mayo	2023-05-25T00:00:00	2024-11-08T13:00:00	7	Dirección del viento	4.83
38947	7	Sololá	710	Panajachel	8	Panajachel	5	Mayo	2023-05-25T00:00:00	2024-11-08T13:00:00	1	Precipitación	0
38948	7	Sololá	710	Panajachel	8	Panajachel	5	Mayo	2023-05-25T00:00:00	2024-11-08T13:00:00	8	Radiación solar	940
38949	7	Sololá	710	Panajachel	8	Panajachel	5	Mayo	2023-05-25T00:00:00	2024-11-08T14:00:00	2	Temperatura media	24.3
38950	7	Sololá	710	Panajachel	8	Panajachel	5	Mayo	2023-05-25T00:00:00	2024-11-08T14:00:00	4	Temperatura máxima	26.1
38951	7	Sololá	710	Panajachel	8	Panajachel	5	Mayo	2023-05-25T00:00:00	2024-11-08T14:00:00	3	Temperatura mínima	24.3
38952	7	Sololá	710	Panajachel	8	Panajachel	5	Mayo	2023-05-25T00:00:00	2024-11-08T14:00:00	5	Humedad	75
38953	7	Sololá	710	Panajachel	8	Panajachel	5	Mayo	2023-05-25T00:00:00	2024-11-08T14:00:00	6	Velocidad del viento	4.8
38954	7	Sololá	710	Panajachel	8	Panajachel	5	Mayo	2023-05-25T00:00:00	2024-11-08T14:00:00	7	Dirección del viento	4.83
38955	7	Sololá	710	Panajachel	8	Panajachel	5	Mayo	2023-05-25T00:00:00	2024-11-08T14:00:00	1	Precipitación	0
38956	7	Sololá	710	Panajachel	8	Panajachel	5	Mayo	2023-05-25T00:00:00	2024-11-08T14:00:00	8	Radiación solar	604
38957	7	Sololá	710	Panajachel	8	Panajachel	5	Mayo	2023-05-25T00:00:00	2024-11-08T15:00:00	2	Temperatura media	23.4
38958	7	Sololá	710	Panajachel	8	Panajachel	5	Mayo	2023-05-25T00:00:00	2024-11-08T15:00:00	4	Temperatura máxima	24.4
38959	7	Sololá	710	Panajachel	8	Panajachel	5	Mayo	2023-05-25T00:00:00	2024-11-08T15:00:00	3	Temperatura mínima	23.4
38960	7	Sololá	710	Panajachel	8	Panajachel	5	Mayo	2023-05-25T00:00:00	2024-11-08T15:00:00	5	Humedad	82
38961	7	Sololá	710	Panajachel	8	Panajachel	5	Mayo	2023-05-25T00:00:00	2024-11-08T15:00:00	6	Velocidad del viento	4.8
38962	7	Sololá	710	Panajachel	8	Panajachel	5	Mayo	2023-05-25T00:00:00	2024-11-08T15:00:00	7	Dirección del viento	4.83
38963	7	Sololá	710	Panajachel	8	Panajachel	5	Mayo	2023-05-25T00:00:00	2024-11-08T15:00:00	1	Precipitación	0
38964	7	Sololá	710	Panajachel	8	Panajachel	5	Mayo	2023-05-25T00:00:00	2024-11-08T15:00:00	8	Radiación solar	215
38965	7	Sololá	710	Panajachel	8	Panajachel	5	Mayo	2023-05-25T00:00:00	2024-11-08T16:00:00	2	Temperatura media	22.8
38966	7	Sololá	710	Panajachel	8	Panajachel	5	Mayo	2023-05-25T00:00:00	2024-11-08T16:00:00	4	Temperatura máxima	23.4
38967	7	Sololá	710	Panajachel	8	Panajachel	5	Mayo	2023-05-25T00:00:00	2024-11-08T16:00:00	3	Temperatura mínima	22.8
38968	7	Sololá	710	Panajachel	8	Panajachel	5	Mayo	2023-05-25T00:00:00	2024-11-08T16:00:00	5	Humedad	84
38969	7	Sololá	710	Panajachel	8	Panajachel	5	Mayo	2023-05-25T00:00:00	2024-11-08T16:00:00	6	Velocidad del viento	3.2
38970	7	Sololá	710	Panajachel	8	Panajachel	5	Mayo	2023-05-25T00:00:00	2024-11-08T16:00:00	7	Dirección del viento	3.22
38971	7	Sololá	710	Panajachel	8	Panajachel	5	Mayo	2023-05-25T00:00:00	2024-11-08T16:00:00	1	Precipitación	0
38972	7	Sololá	710	Panajachel	8	Panajachel	5	Mayo	2023-05-25T00:00:00	2024-11-08T16:00:00	8	Radiación solar	84
38973	7	Sololá	710	Panajachel	8	Panajachel	5	Mayo	2023-05-25T00:00:00	2024-11-08T17:00:00	2	Temperatura media	21.9
38974	7	Sololá	710	Panajachel	8	Panajachel	5	Mayo	2023-05-25T00:00:00	2024-11-08T17:00:00	4	Temperatura máxima	22.8
38975	7	Sololá	710	Panajachel	8	Panajachel	5	Mayo	2023-05-25T00:00:00	2024-11-08T17:00:00	3	Temperatura mínima	21.9
38976	7	Sololá	710	Panajachel	8	Panajachel	5	Mayo	2023-05-25T00:00:00	2024-11-08T17:00:00	5	Humedad	86
38977	7	Sololá	710	Panajachel	8	Panajachel	5	Mayo	2023-05-25T00:00:00	2024-11-08T17:00:00	6	Velocidad del viento	3.2
38978	7	Sololá	710	Panajachel	8	Panajachel	5	Mayo	2023-05-25T00:00:00	2024-11-08T17:00:00	7	Dirección del viento	3.22
38979	7	Sololá	710	Panajachel	8	Panajachel	5	Mayo	2023-05-25T00:00:00	2024-11-08T17:00:00	1	Precipitación	0
38980	7	Sololá	710	Panajachel	8	Panajachel	5	Mayo	2023-05-25T00:00:00	2024-11-08T17:00:00	8	Radiación solar	25
38981	7	Sololá	710	Panajachel	8	Panajachel	5	Mayo	2023-05-25T00:00:00	2024-11-08T18:00:00	2	Temperatura media	18.6
38982	7	Sololá	710	Panajachel	8	Panajachel	5	Mayo	2023-05-25T00:00:00	2024-11-08T18:00:00	4	Temperatura máxima	21.9
38983	7	Sololá	710	Panajachel	8	Panajachel	5	Mayo	2023-05-25T00:00:00	2024-11-08T18:00:00	3	Temperatura mínima	18.6
38984	7	Sololá	710	Panajachel	8	Panajachel	5	Mayo	2023-05-25T00:00:00	2024-11-08T18:00:00	5	Humedad	96
38985	7	Sololá	710	Panajachel	8	Panajachel	5	Mayo	2023-05-25T00:00:00	2024-11-08T18:00:00	6	Velocidad del viento	3.2
38986	7	Sololá	710	Panajachel	8	Panajachel	5	Mayo	2023-05-25T00:00:00	2024-11-08T18:00:00	7	Dirección del viento	3.22
38987	7	Sololá	710	Panajachel	8	Panajachel	5	Mayo	2023-05-25T00:00:00	2024-11-08T18:00:00	1	Precipitación	28
38988	7	Sololá	710	Panajachel	8	Panajachel	5	Mayo	2023-05-25T00:00:00	2024-11-08T18:00:00	8	Radiación solar	0
38989	7	Sololá	710	Panajachel	8	Panajachel	5	Mayo	2023-05-25T00:00:00	2024-11-08T19:00:00	2	Temperatura media	18.9
38990	7	Sololá	710	Panajachel	8	Panajachel	5	Mayo	2023-05-25T00:00:00	2024-11-08T19:00:00	4	Temperatura máxima	18.9
38991	7	Sololá	710	Panajachel	8	Panajachel	5	Mayo	2023-05-25T00:00:00	2024-11-08T19:00:00	3	Temperatura mínima	18.6
38992	7	Sololá	710	Panajachel	8	Panajachel	5	Mayo	2023-05-25T00:00:00	2024-11-08T19:00:00	5	Humedad	96
38993	7	Sololá	710	Panajachel	8	Panajachel	5	Mayo	2023-05-25T00:00:00	2024-11-08T19:00:00	6	Velocidad del viento	0
38994	7	Sololá	710	Panajachel	8	Panajachel	5	Mayo	2023-05-25T00:00:00	2024-11-08T19:00:00	7	Dirección del viento	0
38995	7	Sololá	710	Panajachel	8	Panajachel	5	Mayo	2023-05-25T00:00:00	2024-11-08T19:00:00	1	Precipitación	0.2
38996	7	Sololá	710	Panajachel	8	Panajachel	5	Mayo	2023-05-25T00:00:00	2024-11-08T19:00:00	8	Radiación solar	0
38997	7	Sololá	710	Panajachel	8	Panajachel	5	Mayo	2023-05-25T00:00:00	2024-11-08T20:00:00	2	Temperatura media	19.2
38998	7	Sololá	710	Panajachel	8	Panajachel	5	Mayo	2023-05-25T00:00:00	2024-11-08T20:00:00	4	Temperatura máxima	19.2
38999	7	Sololá	710	Panajachel	8	Panajachel	5	Mayo	2023-05-25T00:00:00	2024-11-08T20:00:00	3	Temperatura mínima	18.7
39000	7	Sololá	710	Panajachel	8	Panajachel	5	Mayo	2023-05-25T00:00:00	2024-11-08T20:00:00	5	Humedad	97
39001	7	Sololá	710	Panajachel	8	Panajachel	5	Mayo	2023-05-25T00:00:00	2024-11-08T20:00:00	6	Velocidad del viento	0
39002	7	Sololá	710	Panajachel	8	Panajachel	5	Mayo	2023-05-25T00:00:00	2024-11-08T20:00:00	7	Dirección del viento	0
39003	7	Sololá	710	Panajachel	8	Panajachel	5	Mayo	2023-05-25T00:00:00	2024-11-08T20:00:00	1	Precipitación	0
39004	7	Sololá	710	Panajachel	8	Panajachel	5	Mayo	2023-05-25T00:00:00	2024-11-08T20:00:00	8	Radiación solar	0
39005	7	Sololá	710	Panajachel	8	Panajachel	5	Mayo	2023-05-25T00:00:00	2024-11-08T21:00:00	2	Temperatura media	19.2
39006	7	Sololá	710	Panajachel	8	Panajachel	5	Mayo	2023-05-25T00:00:00	2024-11-08T21:00:00	4	Temperatura máxima	19.3
39007	7	Sololá	710	Panajachel	8	Panajachel	5	Mayo	2023-05-25T00:00:00	2024-11-08T21:00:00	3	Temperatura mínima	19.1
39008	7	Sololá	710	Panajachel	8	Panajachel	5	Mayo	2023-05-25T00:00:00	2024-11-08T21:00:00	5	Humedad	97
39009	7	Sololá	710	Panajachel	8	Panajachel	5	Mayo	2023-05-25T00:00:00	2024-11-08T21:00:00	6	Velocidad del viento	0
39010	7	Sololá	710	Panajachel	8	Panajachel	5	Mayo	2023-05-25T00:00:00	2024-11-08T21:00:00	7	Dirección del viento	0
39011	7	Sololá	710	Panajachel	8	Panajachel	5	Mayo	2023-05-25T00:00:00	2024-11-08T21:00:00	1	Precipitación	0
39012	7	Sololá	710	Panajachel	8	Panajachel	5	Mayo	2023-05-25T00:00:00	2024-11-08T21:00:00	8	Radiación solar	0
39013	7	Sololá	710	Panajachel	8	Panajachel	5	Mayo	2023-05-25T00:00:00	2024-11-08T22:00:00	2	Temperatura media	19.2
39014	7	Sololá	710	Panajachel	8	Panajachel	5	Mayo	2023-05-25T00:00:00	2024-11-08T22:00:00	4	Temperatura máxima	19.3
39015	7	Sololá	710	Panajachel	8	Panajachel	5	Mayo	2023-05-25T00:00:00	2024-11-08T22:00:00	3	Temperatura mínima	19.1
39016	7	Sololá	710	Panajachel	8	Panajachel	5	Mayo	2023-05-25T00:00:00	2024-11-08T22:00:00	5	Humedad	97
39017	7	Sololá	710	Panajachel	8	Panajachel	5	Mayo	2023-05-25T00:00:00	2024-11-08T22:00:00	6	Velocidad del viento	0
39018	7	Sololá	710	Panajachel	8	Panajachel	5	Mayo	2023-05-25T00:00:00	2024-11-08T22:00:00	7	Dirección del viento	0
39019	7	Sololá	710	Panajachel	8	Panajachel	5	Mayo	2023-05-25T00:00:00	2024-11-08T22:00:00	1	Precipitación	0
39020	7	Sololá	710	Panajachel	8	Panajachel	5	Mayo	2023-05-25T00:00:00	2024-11-08T22:00:00	8	Radiación solar	0
39021	7	Sololá	710	Panajachel	8	Panajachel	5	Mayo	2023-05-25T00:00:00	2024-11-08T23:00:00	2	Temperatura media	18.3
39022	7	Sololá	710	Panajachel	8	Panajachel	5	Mayo	2023-05-25T00:00:00	2024-11-08T23:00:00	4	Temperatura máxima	19.2
39023	7	Sololá	710	Panajachel	8	Panajachel	5	Mayo	2023-05-25T00:00:00	2024-11-08T23:00:00	3	Temperatura mínima	18.3
39024	7	Sololá	710	Panajachel	8	Panajachel	5	Mayo	2023-05-25T00:00:00	2024-11-08T23:00:00	5	Humedad	96
39025	7	Sololá	710	Panajachel	8	Panajachel	5	Mayo	2023-05-25T00:00:00	2024-11-08T23:00:00	6	Velocidad del viento	1.6
39026	7	Sololá	710	Panajachel	8	Panajachel	5	Mayo	2023-05-25T00:00:00	2024-11-08T23:00:00	7	Dirección del viento	1.61
39027	7	Sololá	710	Panajachel	8	Panajachel	5	Mayo	2023-05-25T00:00:00	2024-11-08T23:00:00	1	Precipitación	0
39028	7	Sololá	710	Panajachel	8	Panajachel	5	Mayo	2023-05-25T00:00:00	2024-11-08T23:00:00	8	Radiación solar	0
39029	7	Sololá	710	Panajachel	8	Panajachel	5	Mayo	2023-05-26T00:00:00	2024-11-08T00:00:00	2	Temperatura media	17.6
39030	7	Sololá	710	Panajachel	8	Panajachel	5	Mayo	2023-05-26T00:00:00	2024-11-08T00:00:00	4	Temperatura máxima	18.3
39031	7	Sololá	710	Panajachel	8	Panajachel	5	Mayo	2023-05-26T00:00:00	2024-11-08T00:00:00	3	Temperatura mínima	17.5
39032	7	Sololá	710	Panajachel	8	Panajachel	5	Mayo	2023-05-26T00:00:00	2024-11-08T00:00:00	5	Humedad	94
39033	7	Sololá	710	Panajachel	8	Panajachel	5	Mayo	2023-05-26T00:00:00	2024-11-08T00:00:00	6	Velocidad del viento	3.2
39034	7	Sololá	710	Panajachel	8	Panajachel	5	Mayo	2023-05-26T00:00:00	2024-11-08T00:00:00	7	Dirección del viento	3.22
39035	7	Sololá	710	Panajachel	8	Panajachel	5	Mayo	2023-05-26T00:00:00	2024-11-08T00:00:00	1	Precipitación	0
39036	7	Sololá	710	Panajachel	8	Panajachel	5	Mayo	2023-05-26T00:00:00	2024-11-08T00:00:00	8	Radiación solar	0
39037	7	Sololá	710	Panajachel	8	Panajachel	5	Mayo	2023-05-26T00:00:00	2024-11-08T01:00:00	2	Temperatura media	17
39038	7	Sololá	710	Panajachel	8	Panajachel	5	Mayo	2023-05-26T00:00:00	2024-11-08T01:00:00	4	Temperatura máxima	17.6
39039	7	Sololá	710	Panajachel	8	Panajachel	5	Mayo	2023-05-26T00:00:00	2024-11-08T01:00:00	3	Temperatura mínima	16.9
39040	7	Sololá	710	Panajachel	8	Panajachel	5	Mayo	2023-05-26T00:00:00	2024-11-08T01:00:00	5	Humedad	92
39041	7	Sololá	710	Panajachel	8	Panajachel	5	Mayo	2023-05-26T00:00:00	2024-11-08T01:00:00	6	Velocidad del viento	3.2
39042	7	Sololá	710	Panajachel	8	Panajachel	5	Mayo	2023-05-26T00:00:00	2024-11-08T01:00:00	7	Dirección del viento	3.22
39043	7	Sololá	710	Panajachel	8	Panajachel	5	Mayo	2023-05-26T00:00:00	2024-11-08T01:00:00	1	Precipitación	0
39044	7	Sololá	710	Panajachel	8	Panajachel	5	Mayo	2023-05-26T00:00:00	2024-11-08T01:00:00	8	Radiación solar	0
39045	7	Sololá	710	Panajachel	8	Panajachel	5	Mayo	2023-05-26T00:00:00	2024-11-08T02:00:00	2	Temperatura media	17
39046	7	Sololá	710	Panajachel	8	Panajachel	5	Mayo	2023-05-26T00:00:00	2024-11-08T02:00:00	4	Temperatura máxima	17.2
39047	7	Sololá	710	Panajachel	8	Panajachel	5	Mayo	2023-05-26T00:00:00	2024-11-08T02:00:00	3	Temperatura mínima	16.9
39048	7	Sololá	710	Panajachel	8	Panajachel	5	Mayo	2023-05-26T00:00:00	2024-11-08T02:00:00	5	Humedad	90
39049	7	Sololá	710	Panajachel	8	Panajachel	5	Mayo	2023-05-26T00:00:00	2024-11-08T02:00:00	6	Velocidad del viento	4.8
39050	7	Sololá	710	Panajachel	8	Panajachel	5	Mayo	2023-05-26T00:00:00	2024-11-08T02:00:00	7	Dirección del viento	4.83
39051	7	Sololá	710	Panajachel	8	Panajachel	5	Mayo	2023-05-26T00:00:00	2024-11-08T02:00:00	1	Precipitación	0
39052	7	Sololá	710	Panajachel	8	Panajachel	5	Mayo	2023-05-26T00:00:00	2024-11-08T02:00:00	8	Radiación solar	0
39053	7	Sololá	710	Panajachel	8	Panajachel	5	Mayo	2023-05-26T00:00:00	2024-11-08T03:00:00	2	Temperatura media	16.6
39054	7	Sololá	710	Panajachel	8	Panajachel	5	Mayo	2023-05-26T00:00:00	2024-11-08T03:00:00	4	Temperatura máxima	17.1
39055	7	Sololá	710	Panajachel	8	Panajachel	5	Mayo	2023-05-26T00:00:00	2024-11-08T03:00:00	3	Temperatura mínima	16.6
39056	7	Sololá	710	Panajachel	8	Panajachel	5	Mayo	2023-05-26T00:00:00	2024-11-08T03:00:00	5	Humedad	90
39057	7	Sololá	710	Panajachel	8	Panajachel	5	Mayo	2023-05-26T00:00:00	2024-11-08T03:00:00	6	Velocidad del viento	4.8
39058	7	Sololá	710	Panajachel	8	Panajachel	5	Mayo	2023-05-26T00:00:00	2024-11-08T03:00:00	7	Dirección del viento	4.83
39059	7	Sololá	710	Panajachel	8	Panajachel	5	Mayo	2023-05-26T00:00:00	2024-11-08T03:00:00	1	Precipitación	0
39060	7	Sololá	710	Panajachel	8	Panajachel	5	Mayo	2023-05-26T00:00:00	2024-11-08T03:00:00	8	Radiación solar	0
39061	7	Sololá	710	Panajachel	8	Panajachel	5	Mayo	2023-05-26T00:00:00	2024-11-08T04:00:00	2	Temperatura media	16.4
39062	7	Sololá	710	Panajachel	8	Panajachel	5	Mayo	2023-05-26T00:00:00	2024-11-08T04:00:00	4	Temperatura máxima	17.1
39063	7	Sololá	710	Panajachel	8	Panajachel	5	Mayo	2023-05-26T00:00:00	2024-11-08T04:00:00	3	Temperatura mínima	16.4
39064	7	Sololá	710	Panajachel	8	Panajachel	5	Mayo	2023-05-26T00:00:00	2024-11-08T04:00:00	5	Humedad	89
39065	7	Sololá	710	Panajachel	8	Panajachel	5	Mayo	2023-05-26T00:00:00	2024-11-08T04:00:00	6	Velocidad del viento	3.2
39066	7	Sololá	710	Panajachel	8	Panajachel	5	Mayo	2023-05-26T00:00:00	2024-11-08T04:00:00	7	Dirección del viento	3.22
39067	7	Sololá	710	Panajachel	8	Panajachel	5	Mayo	2023-05-26T00:00:00	2024-11-08T04:00:00	1	Precipitación	0
39068	7	Sololá	710	Panajachel	8	Panajachel	5	Mayo	2023-05-26T00:00:00	2024-11-08T04:00:00	8	Radiación solar	0
39069	7	Sololá	710	Panajachel	8	Panajachel	5	Mayo	2023-05-26T00:00:00	2024-11-08T05:00:00	2	Temperatura media	16.4
39070	7	Sololá	710	Panajachel	8	Panajachel	5	Mayo	2023-05-26T00:00:00	2024-11-08T05:00:00	4	Temperatura máxima	16.6
39071	7	Sololá	710	Panajachel	8	Panajachel	5	Mayo	2023-05-26T00:00:00	2024-11-08T05:00:00	3	Temperatura mínima	16.1
39072	7	Sololá	710	Panajachel	8	Panajachel	5	Mayo	2023-05-26T00:00:00	2024-11-08T05:00:00	5	Humedad	87
39073	7	Sololá	710	Panajachel	8	Panajachel	5	Mayo	2023-05-26T00:00:00	2024-11-08T05:00:00	6	Velocidad del viento	3.2
39074	7	Sololá	710	Panajachel	8	Panajachel	5	Mayo	2023-05-26T00:00:00	2024-11-08T05:00:00	7	Dirección del viento	3.22
39075	7	Sololá	710	Panajachel	8	Panajachel	5	Mayo	2023-05-26T00:00:00	2024-11-08T05:00:00	1	Precipitación	0
39076	7	Sololá	710	Panajachel	8	Panajachel	5	Mayo	2023-05-26T00:00:00	2024-11-08T05:00:00	8	Radiación solar	0
39077	7	Sololá	710	Panajachel	8	Panajachel	5	Mayo	2023-05-26T00:00:00	2024-11-08T06:00:00	2	Temperatura media	15.6
39078	7	Sololá	710	Panajachel	8	Panajachel	5	Mayo	2023-05-26T00:00:00	2024-11-08T06:00:00	4	Temperatura máxima	16.5
39079	7	Sololá	710	Panajachel	8	Panajachel	5	Mayo	2023-05-26T00:00:00	2024-11-08T06:00:00	3	Temperatura mínima	15.5
39080	7	Sololá	710	Panajachel	8	Panajachel	5	Mayo	2023-05-26T00:00:00	2024-11-08T06:00:00	5	Humedad	88
39081	7	Sololá	710	Panajachel	8	Panajachel	5	Mayo	2023-05-26T00:00:00	2024-11-08T06:00:00	6	Velocidad del viento	3.2
39082	7	Sololá	710	Panajachel	8	Panajachel	5	Mayo	2023-05-26T00:00:00	2024-11-08T06:00:00	7	Dirección del viento	3.22
39083	7	Sololá	710	Panajachel	8	Panajachel	5	Mayo	2023-05-26T00:00:00	2024-11-08T06:00:00	1	Precipitación	0
39084	7	Sololá	710	Panajachel	8	Panajachel	5	Mayo	2023-05-26T00:00:00	2024-11-08T06:00:00	8	Radiación solar	5
39085	7	Sololá	710	Panajachel	8	Panajachel	5	Mayo	2023-05-26T00:00:00	2024-11-08T07:00:00	2	Temperatura media	17.1
39086	7	Sololá	710	Panajachel	8	Panajachel	5	Mayo	2023-05-26T00:00:00	2024-11-08T07:00:00	4	Temperatura máxima	17.1
39087	7	Sololá	710	Panajachel	8	Panajachel	5	Mayo	2023-05-26T00:00:00	2024-11-08T07:00:00	3	Temperatura mínima	15.6
39088	7	Sololá	710	Panajachel	8	Panajachel	5	Mayo	2023-05-26T00:00:00	2024-11-08T07:00:00	5	Humedad	88
39089	7	Sololá	710	Panajachel	8	Panajachel	5	Mayo	2023-05-26T00:00:00	2024-11-08T07:00:00	6	Velocidad del viento	1.6
39090	7	Sololá	710	Panajachel	8	Panajachel	5	Mayo	2023-05-26T00:00:00	2024-11-08T07:00:00	7	Dirección del viento	1.61
39091	7	Sololá	710	Panajachel	8	Panajachel	5	Mayo	2023-05-26T00:00:00	2024-11-08T07:00:00	1	Precipitación	0
39092	7	Sololá	710	Panajachel	8	Panajachel	5	Mayo	2023-05-26T00:00:00	2024-11-08T07:00:00	8	Radiación solar	89
39093	7	Sololá	710	Panajachel	8	Panajachel	5	Mayo	2023-05-26T00:00:00	2024-11-08T08:00:00	2	Temperatura media	19.2
39094	7	Sololá	710	Panajachel	8	Panajachel	5	Mayo	2023-05-26T00:00:00	2024-11-08T08:00:00	4	Temperatura máxima	19.2
39095	7	Sololá	710	Panajachel	8	Panajachel	5	Mayo	2023-05-26T00:00:00	2024-11-08T08:00:00	3	Temperatura mínima	17.1
39096	7	Sololá	710	Panajachel	8	Panajachel	5	Mayo	2023-05-26T00:00:00	2024-11-08T08:00:00	5	Humedad	83
39097	7	Sololá	710	Panajachel	8	Panajachel	5	Mayo	2023-05-26T00:00:00	2024-11-08T08:00:00	6	Velocidad del viento	0
39098	7	Sololá	710	Panajachel	8	Panajachel	5	Mayo	2023-05-26T00:00:00	2024-11-08T08:00:00	7	Dirección del viento	0
39099	7	Sololá	710	Panajachel	8	Panajachel	5	Mayo	2023-05-26T00:00:00	2024-11-08T08:00:00	1	Precipitación	0
39100	7	Sololá	710	Panajachel	8	Panajachel	5	Mayo	2023-05-26T00:00:00	2024-11-08T08:00:00	8	Radiación solar	184
39101	7	Sololá	710	Panajachel	8	Panajachel	5	Mayo	2023-05-26T00:00:00	2024-11-08T09:00:00	2	Temperatura media	20.8
39102	7	Sololá	710	Panajachel	8	Panajachel	5	Mayo	2023-05-26T00:00:00	2024-11-08T09:00:00	4	Temperatura máxima	21.1
39103	7	Sololá	710	Panajachel	8	Panajachel	5	Mayo	2023-05-26T00:00:00	2024-11-08T09:00:00	3	Temperatura mínima	19.3
39104	7	Sololá	710	Panajachel	8	Panajachel	5	Mayo	2023-05-26T00:00:00	2024-11-08T09:00:00	5	Humedad	81
39105	7	Sololá	710	Panajachel	8	Panajachel	5	Mayo	2023-05-26T00:00:00	2024-11-08T09:00:00	6	Velocidad del viento	1.6
39106	7	Sololá	710	Panajachel	8	Panajachel	5	Mayo	2023-05-26T00:00:00	2024-11-08T09:00:00	7	Dirección del viento	1.61
39107	7	Sololá	710	Panajachel	8	Panajachel	5	Mayo	2023-05-26T00:00:00	2024-11-08T09:00:00	1	Precipitación	0
39108	7	Sololá	710	Panajachel	8	Panajachel	5	Mayo	2023-05-26T00:00:00	2024-11-08T09:00:00	8	Radiación solar	394
39109	7	Sololá	710	Panajachel	8	Panajachel	5	Mayo	2023-05-26T00:00:00	2024-11-08T10:00:00	2	Temperatura media	22.2
39110	7	Sololá	710	Panajachel	8	Panajachel	5	Mayo	2023-05-26T00:00:00	2024-11-08T10:00:00	4	Temperatura máxima	22.3
39111	7	Sololá	710	Panajachel	8	Panajachel	5	Mayo	2023-05-26T00:00:00	2024-11-08T10:00:00	3	Temperatura mínima	20.6
39112	7	Sololá	710	Panajachel	8	Panajachel	5	Mayo	2023-05-26T00:00:00	2024-11-08T10:00:00	5	Humedad	75
39113	7	Sololá	710	Panajachel	8	Panajachel	5	Mayo	2023-05-26T00:00:00	2024-11-08T10:00:00	6	Velocidad del viento	1.6
39114	7	Sololá	710	Panajachel	8	Panajachel	5	Mayo	2023-05-26T00:00:00	2024-11-08T10:00:00	7	Dirección del viento	1.61
39115	7	Sololá	710	Panajachel	8	Panajachel	5	Mayo	2023-05-26T00:00:00	2024-11-08T10:00:00	1	Precipitación	0
39116	7	Sololá	710	Panajachel	8	Panajachel	5	Mayo	2023-05-26T00:00:00	2024-11-08T10:00:00	8	Radiación solar	465
39117	7	Sololá	710	Panajachel	8	Panajachel	5	Mayo	2023-05-26T00:00:00	2024-11-08T11:00:00	2	Temperatura media	22.8
39118	7	Sololá	710	Panajachel	8	Panajachel	5	Mayo	2023-05-26T00:00:00	2024-11-08T11:00:00	4	Temperatura máxima	22.8
39119	7	Sololá	710	Panajachel	8	Panajachel	5	Mayo	2023-05-26T00:00:00	2024-11-08T11:00:00	3	Temperatura mínima	21.9
39120	7	Sololá	710	Panajachel	8	Panajachel	5	Mayo	2023-05-26T00:00:00	2024-11-08T11:00:00	5	Humedad	73
39121	7	Sololá	710	Panajachel	8	Panajachel	5	Mayo	2023-05-26T00:00:00	2024-11-08T11:00:00	6	Velocidad del viento	1.6
39122	7	Sololá	710	Panajachel	8	Panajachel	5	Mayo	2023-05-26T00:00:00	2024-11-08T11:00:00	7	Dirección del viento	1.61
39123	7	Sololá	710	Panajachel	8	Panajachel	5	Mayo	2023-05-26T00:00:00	2024-11-08T11:00:00	1	Precipitación	0
39124	7	Sololá	710	Panajachel	8	Panajachel	5	Mayo	2023-05-26T00:00:00	2024-11-08T11:00:00	8	Radiación solar	617
39125	7	Sololá	710	Panajachel	8	Panajachel	5	Mayo	2023-05-26T00:00:00	2024-11-08T12:00:00	2	Temperatura media	23.4
39126	7	Sololá	710	Panajachel	8	Panajachel	5	Mayo	2023-05-26T00:00:00	2024-11-08T12:00:00	4	Temperatura máxima	23.4
39127	7	Sololá	710	Panajachel	8	Panajachel	5	Mayo	2023-05-26T00:00:00	2024-11-08T12:00:00	3	Temperatura mínima	22.6
39128	7	Sololá	710	Panajachel	8	Panajachel	5	Mayo	2023-05-26T00:00:00	2024-11-08T12:00:00	5	Humedad	73
39129	7	Sololá	710	Panajachel	8	Panajachel	5	Mayo	2023-05-26T00:00:00	2024-11-08T12:00:00	6	Velocidad del viento	3.2
39130	7	Sololá	710	Panajachel	8	Panajachel	5	Mayo	2023-05-26T00:00:00	2024-11-08T12:00:00	7	Dirección del viento	3.22
39131	7	Sololá	710	Panajachel	8	Panajachel	5	Mayo	2023-05-26T00:00:00	2024-11-08T12:00:00	1	Precipitación	0
39132	7	Sololá	710	Panajachel	8	Panajachel	5	Mayo	2023-05-26T00:00:00	2024-11-08T12:00:00	8	Radiación solar	795
39133	7	Sololá	710	Panajachel	8	Panajachel	5	Mayo	2023-05-26T00:00:00	2024-11-08T13:00:00	2	Temperatura media	23.7
39134	7	Sololá	710	Panajachel	8	Panajachel	5	Mayo	2023-05-26T00:00:00	2024-11-08T13:00:00	4	Temperatura máxima	23.8
39135	7	Sololá	710	Panajachel	8	Panajachel	5	Mayo	2023-05-26T00:00:00	2024-11-08T13:00:00	3	Temperatura mínima	23.2
39136	7	Sololá	710	Panajachel	8	Panajachel	5	Mayo	2023-05-26T00:00:00	2024-11-08T13:00:00	5	Humedad	72
39137	7	Sololá	710	Panajachel	8	Panajachel	5	Mayo	2023-05-26T00:00:00	2024-11-08T13:00:00	6	Velocidad del viento	3.2
39138	7	Sololá	710	Panajachel	8	Panajachel	5	Mayo	2023-05-26T00:00:00	2024-11-08T13:00:00	7	Dirección del viento	3.22
39139	7	Sololá	710	Panajachel	8	Panajachel	5	Mayo	2023-05-26T00:00:00	2024-11-08T13:00:00	1	Precipitación	0
39140	7	Sololá	710	Panajachel	8	Panajachel	5	Mayo	2023-05-26T00:00:00	2024-11-08T13:00:00	8	Radiación solar	851
39141	7	Sololá	710	Panajachel	8	Panajachel	5	Mayo	2023-05-26T00:00:00	2024-11-08T14:00:00	2	Temperatura media	23.4
39142	7	Sololá	710	Panajachel	8	Panajachel	5	Mayo	2023-05-26T00:00:00	2024-11-08T14:00:00	4	Temperatura máxima	24.9
39143	7	Sololá	710	Panajachel	8	Panajachel	5	Mayo	2023-05-26T00:00:00	2024-11-08T14:00:00	3	Temperatura mínima	23.4
39144	7	Sololá	710	Panajachel	8	Panajachel	5	Mayo	2023-05-26T00:00:00	2024-11-08T14:00:00	5	Humedad	72
39145	7	Sololá	710	Panajachel	8	Panajachel	5	Mayo	2023-05-26T00:00:00	2024-11-08T14:00:00	6	Velocidad del viento	3.2
39146	7	Sololá	710	Panajachel	8	Panajachel	5	Mayo	2023-05-26T00:00:00	2024-11-08T14:00:00	7	Dirección del viento	3.22
39147	7	Sololá	710	Panajachel	8	Panajachel	5	Mayo	2023-05-26T00:00:00	2024-11-08T14:00:00	1	Precipitación	0
39148	7	Sololá	710	Panajachel	8	Panajachel	5	Mayo	2023-05-26T00:00:00	2024-11-08T14:00:00	8	Radiación solar	800
39149	7	Sololá	710	Panajachel	8	Panajachel	5	Mayo	2023-05-26T00:00:00	2024-11-08T15:00:00	2	Temperatura media	24.7
39150	7	Sololá	710	Panajachel	8	Panajachel	5	Mayo	2023-05-26T00:00:00	2024-11-08T15:00:00	4	Temperatura máxima	24.7
39151	7	Sololá	710	Panajachel	8	Panajachel	5	Mayo	2023-05-26T00:00:00	2024-11-08T15:00:00	3	Temperatura mínima	23.1
39152	7	Sololá	710	Panajachel	8	Panajachel	5	Mayo	2023-05-26T00:00:00	2024-11-08T15:00:00	5	Humedad	73
39153	7	Sololá	710	Panajachel	8	Panajachel	5	Mayo	2023-05-26T00:00:00	2024-11-08T15:00:00	6	Velocidad del viento	3.2
39154	7	Sololá	710	Panajachel	8	Panajachel	5	Mayo	2023-05-26T00:00:00	2024-11-08T15:00:00	7	Dirección del viento	3.22
39155	7	Sololá	710	Panajachel	8	Panajachel	5	Mayo	2023-05-26T00:00:00	2024-11-08T15:00:00	1	Precipitación	0
39156	7	Sololá	710	Panajachel	8	Panajachel	5	Mayo	2023-05-26T00:00:00	2024-11-08T15:00:00	8	Radiación solar	672
39157	7	Sololá	710	Panajachel	8	Panajachel	5	Mayo	2023-05-26T00:00:00	2024-11-08T16:00:00	2	Temperatura media	23.1
39158	7	Sololá	710	Panajachel	8	Panajachel	5	Mayo	2023-05-26T00:00:00	2024-11-08T16:00:00	4	Temperatura máxima	24.7
39159	7	Sololá	710	Panajachel	8	Panajachel	5	Mayo	2023-05-26T00:00:00	2024-11-08T16:00:00	3	Temperatura mínima	23.1
39160	7	Sololá	710	Panajachel	8	Panajachel	5	Mayo	2023-05-26T00:00:00	2024-11-08T16:00:00	5	Humedad	79
39161	7	Sololá	710	Panajachel	8	Panajachel	5	Mayo	2023-05-26T00:00:00	2024-11-08T16:00:00	6	Velocidad del viento	4.8
39162	7	Sololá	710	Panajachel	8	Panajachel	5	Mayo	2023-05-26T00:00:00	2024-11-08T16:00:00	7	Dirección del viento	4.83
39163	7	Sololá	710	Panajachel	8	Panajachel	5	Mayo	2023-05-26T00:00:00	2024-11-08T16:00:00	1	Precipitación	0
39164	7	Sololá	710	Panajachel	8	Panajachel	5	Mayo	2023-05-26T00:00:00	2024-11-08T16:00:00	8	Radiación solar	401
39165	7	Sololá	710	Panajachel	8	Panajachel	5	Mayo	2023-05-26T00:00:00	2024-11-08T17:00:00	2	Temperatura media	22.2
39166	7	Sololá	710	Panajachel	8	Panajachel	5	Mayo	2023-05-26T00:00:00	2024-11-08T17:00:00	4	Temperatura máxima	23.2
39167	7	Sololá	710	Panajachel	8	Panajachel	5	Mayo	2023-05-26T00:00:00	2024-11-08T17:00:00	3	Temperatura mínima	22.2
39168	7	Sololá	710	Panajachel	8	Panajachel	5	Mayo	2023-05-26T00:00:00	2024-11-08T17:00:00	5	Humedad	80
39169	7	Sololá	710	Panajachel	8	Panajachel	5	Mayo	2023-05-26T00:00:00	2024-11-08T17:00:00	6	Velocidad del viento	3.2
39170	7	Sololá	710	Panajachel	8	Panajachel	5	Mayo	2023-05-26T00:00:00	2024-11-08T17:00:00	7	Dirección del viento	3.22
39171	7	Sololá	710	Panajachel	8	Panajachel	5	Mayo	2023-05-26T00:00:00	2024-11-08T17:00:00	1	Precipitación	0
39172	7	Sololá	710	Panajachel	8	Panajachel	5	Mayo	2023-05-26T00:00:00	2024-11-08T17:00:00	8	Radiación solar	98
39173	7	Sololá	710	Panajachel	8	Panajachel	5	Mayo	2023-05-26T00:00:00	2024-11-08T18:00:00	2	Temperatura media	21.9
39174	7	Sololá	710	Panajachel	8	Panajachel	5	Mayo	2023-05-26T00:00:00	2024-11-08T18:00:00	4	Temperatura máxima	22.2
39175	7	Sololá	710	Panajachel	8	Panajachel	5	Mayo	2023-05-26T00:00:00	2024-11-08T18:00:00	3	Temperatura mínima	21.9
39176	7	Sololá	710	Panajachel	8	Panajachel	5	Mayo	2023-05-26T00:00:00	2024-11-08T18:00:00	5	Humedad	82
39177	7	Sololá	710	Panajachel	8	Panajachel	5	Mayo	2023-05-26T00:00:00	2024-11-08T18:00:00	6	Velocidad del viento	1.6
39178	7	Sololá	710	Panajachel	8	Panajachel	5	Mayo	2023-05-26T00:00:00	2024-11-08T18:00:00	7	Dirección del viento	1.61
39179	7	Sololá	710	Panajachel	8	Panajachel	5	Mayo	2023-05-26T00:00:00	2024-11-08T18:00:00	1	Precipitación	0
39180	7	Sololá	710	Panajachel	8	Panajachel	5	Mayo	2023-05-26T00:00:00	2024-11-08T18:00:00	8	Radiación solar	19
39181	7	Sololá	710	Panajachel	8	Panajachel	5	Mayo	2023-05-26T00:00:00	2024-11-08T19:00:00	2	Temperatura media	21.7
39182	7	Sololá	710	Panajachel	8	Panajachel	5	Mayo	2023-05-26T00:00:00	2024-11-08T19:00:00	4	Temperatura máxima	21.9
39183	7	Sololá	710	Panajachel	8	Panajachel	5	Mayo	2023-05-26T00:00:00	2024-11-08T19:00:00	3	Temperatura mínima	21.7
39184	7	Sololá	710	Panajachel	8	Panajachel	5	Mayo	2023-05-26T00:00:00	2024-11-08T19:00:00	5	Humedad	84
39185	7	Sololá	710	Panajachel	8	Panajachel	5	Mayo	2023-05-26T00:00:00	2024-11-08T19:00:00	6	Velocidad del viento	0
39186	7	Sololá	710	Panajachel	8	Panajachel	5	Mayo	2023-05-26T00:00:00	2024-11-08T19:00:00	7	Dirección del viento	0
39187	7	Sololá	710	Panajachel	8	Panajachel	5	Mayo	2023-05-26T00:00:00	2024-11-08T19:00:00	1	Precipitación	0
39188	7	Sololá	710	Panajachel	8	Panajachel	5	Mayo	2023-05-26T00:00:00	2024-11-08T19:00:00	8	Radiación solar	0
39189	7	Sololá	710	Panajachel	8	Panajachel	5	Mayo	2023-05-26T00:00:00	2024-11-08T20:00:00	2	Temperatura media	21.3
39190	7	Sololá	710	Panajachel	8	Panajachel	5	Mayo	2023-05-26T00:00:00	2024-11-08T20:00:00	4	Temperatura máxima	21.7
39191	7	Sololá	710	Panajachel	8	Panajachel	5	Mayo	2023-05-26T00:00:00	2024-11-08T20:00:00	3	Temperatura mínima	21.3
39192	7	Sololá	710	Panajachel	8	Panajachel	5	Mayo	2023-05-26T00:00:00	2024-11-08T20:00:00	5	Humedad	86
39193	7	Sololá	710	Panajachel	8	Panajachel	5	Mayo	2023-05-26T00:00:00	2024-11-08T20:00:00	6	Velocidad del viento	0
39194	7	Sololá	710	Panajachel	8	Panajachel	5	Mayo	2023-05-26T00:00:00	2024-11-08T20:00:00	7	Dirección del viento	0
39195	7	Sololá	710	Panajachel	8	Panajachel	5	Mayo	2023-05-26T00:00:00	2024-11-08T20:00:00	1	Precipitación	0
39196	7	Sololá	710	Panajachel	8	Panajachel	5	Mayo	2023-05-26T00:00:00	2024-11-08T20:00:00	8	Radiación solar	0
39197	7	Sololá	710	Panajachel	8	Panajachel	5	Mayo	2023-05-26T00:00:00	2024-11-08T21:00:00	2	Temperatura media	20.4
39198	7	Sololá	710	Panajachel	8	Panajachel	5	Mayo	2023-05-26T00:00:00	2024-11-08T21:00:00	4	Temperatura máxima	21.3
39199	7	Sololá	710	Panajachel	8	Panajachel	5	Mayo	2023-05-26T00:00:00	2024-11-08T21:00:00	3	Temperatura mínima	20.4
39200	7	Sololá	710	Panajachel	8	Panajachel	5	Mayo	2023-05-26T00:00:00	2024-11-08T21:00:00	5	Humedad	83
39201	7	Sololá	710	Panajachel	8	Panajachel	5	Mayo	2023-05-26T00:00:00	2024-11-08T21:00:00	6	Velocidad del viento	1.6
39202	7	Sololá	710	Panajachel	8	Panajachel	5	Mayo	2023-05-26T00:00:00	2024-11-08T21:00:00	7	Dirección del viento	1.61
39203	7	Sololá	710	Panajachel	8	Panajachel	5	Mayo	2023-05-26T00:00:00	2024-11-08T21:00:00	1	Precipitación	0
39204	7	Sololá	710	Panajachel	8	Panajachel	5	Mayo	2023-05-26T00:00:00	2024-11-08T21:00:00	8	Radiación solar	0
39205	7	Sololá	710	Panajachel	8	Panajachel	5	Mayo	2023-05-26T00:00:00	2024-11-08T22:00:00	2	Temperatura media	19.9
39206	7	Sololá	710	Panajachel	8	Panajachel	5	Mayo	2023-05-26T00:00:00	2024-11-08T22:00:00	4	Temperatura máxima	20.6
39207	7	Sololá	710	Panajachel	8	Panajachel	5	Mayo	2023-05-26T00:00:00	2024-11-08T22:00:00	3	Temperatura mínima	19.9
39208	7	Sololá	710	Panajachel	8	Panajachel	5	Mayo	2023-05-26T00:00:00	2024-11-08T22:00:00	5	Humedad	81
39209	7	Sololá	710	Panajachel	8	Panajachel	5	Mayo	2023-05-26T00:00:00	2024-11-08T22:00:00	6	Velocidad del viento	1.6
39210	7	Sololá	710	Panajachel	8	Panajachel	5	Mayo	2023-05-26T00:00:00	2024-11-08T22:00:00	7	Dirección del viento	1.61
39211	7	Sololá	710	Panajachel	8	Panajachel	5	Mayo	2023-05-26T00:00:00	2024-11-08T22:00:00	1	Precipitación	0
39212	7	Sololá	710	Panajachel	8	Panajachel	5	Mayo	2023-05-26T00:00:00	2024-11-08T22:00:00	8	Radiación solar	0
39213	7	Sololá	710	Panajachel	8	Panajachel	5	Mayo	2023-05-26T00:00:00	2024-11-08T23:00:00	2	Temperatura media	19.5
39214	7	Sololá	710	Panajachel	8	Panajachel	5	Mayo	2023-05-26T00:00:00	2024-11-08T23:00:00	4	Temperatura máxima	19.9
39215	7	Sololá	710	Panajachel	8	Panajachel	5	Mayo	2023-05-26T00:00:00	2024-11-08T23:00:00	3	Temperatura mínima	19.3
39216	7	Sololá	710	Panajachel	8	Panajachel	5	Mayo	2023-05-26T00:00:00	2024-11-08T23:00:00	5	Humedad	80
39217	7	Sololá	710	Panajachel	8	Panajachel	5	Mayo	2023-05-26T00:00:00	2024-11-08T23:00:00	6	Velocidad del viento	1.6
39218	7	Sololá	710	Panajachel	8	Panajachel	5	Mayo	2023-05-26T00:00:00	2024-11-08T23:00:00	7	Dirección del viento	1.61
39219	7	Sololá	710	Panajachel	8	Panajachel	5	Mayo	2023-05-26T00:00:00	2024-11-08T23:00:00	1	Precipitación	0
39220	7	Sololá	710	Panajachel	8	Panajachel	5	Mayo	2023-05-26T00:00:00	2024-11-08T23:00:00	8	Radiación solar	0
39221	7	Sololá	710	Panajachel	8	Panajachel	5	Mayo	2023-05-27T00:00:00	2024-11-08T00:00:00	2	Temperatura media	19.1
39222	7	Sololá	710	Panajachel	8	Panajachel	5	Mayo	2023-05-27T00:00:00	2024-11-08T00:00:00	4	Temperatura máxima	19.6
39223	7	Sololá	710	Panajachel	8	Panajachel	5	Mayo	2023-05-27T00:00:00	2024-11-08T00:00:00	3	Temperatura mínima	18.6
39224	7	Sololá	710	Panajachel	8	Panajachel	5	Mayo	2023-05-27T00:00:00	2024-11-08T00:00:00	5	Humedad	79
39225	7	Sololá	710	Panajachel	8	Panajachel	5	Mayo	2023-05-27T00:00:00	2024-11-08T00:00:00	6	Velocidad del viento	3.2
39226	7	Sololá	710	Panajachel	8	Panajachel	5	Mayo	2023-05-27T00:00:00	2024-11-08T00:00:00	7	Dirección del viento	3.22
39227	7	Sololá	710	Panajachel	8	Panajachel	5	Mayo	2023-05-27T00:00:00	2024-11-08T00:00:00	1	Precipitación	0
39228	7	Sololá	710	Panajachel	8	Panajachel	5	Mayo	2023-05-27T00:00:00	2024-11-08T00:00:00	8	Radiación solar	0
39229	7	Sololá	710	Panajachel	8	Panajachel	5	Mayo	2023-05-27T00:00:00	2024-11-08T01:00:00	2	Temperatura media	18.4
39230	7	Sololá	710	Panajachel	8	Panajachel	5	Mayo	2023-05-27T00:00:00	2024-11-08T01:00:00	4	Temperatura máxima	19.4
39231	7	Sololá	710	Panajachel	8	Panajachel	5	Mayo	2023-05-27T00:00:00	2024-11-08T01:00:00	3	Temperatura mínima	18.4
39232	7	Sololá	710	Panajachel	8	Panajachel	5	Mayo	2023-05-27T00:00:00	2024-11-08T01:00:00	5	Humedad	77
39233	7	Sololá	710	Panajachel	8	Panajachel	5	Mayo	2023-05-27T00:00:00	2024-11-08T01:00:00	6	Velocidad del viento	3.2
39234	7	Sololá	710	Panajachel	8	Panajachel	5	Mayo	2023-05-27T00:00:00	2024-11-08T01:00:00	7	Dirección del viento	3.22
39235	7	Sololá	710	Panajachel	8	Panajachel	5	Mayo	2023-05-27T00:00:00	2024-11-08T01:00:00	1	Precipitación	0
39236	7	Sololá	710	Panajachel	8	Panajachel	5	Mayo	2023-05-27T00:00:00	2024-11-08T01:00:00	8	Radiación solar	0
39237	7	Sololá	710	Panajachel	8	Panajachel	5	Mayo	2023-05-27T00:00:00	2024-11-08T02:00:00	2	Temperatura media	17.7
39238	7	Sololá	710	Panajachel	8	Panajachel	5	Mayo	2023-05-27T00:00:00	2024-11-08T02:00:00	4	Temperatura máxima	18.5
39239	7	Sololá	710	Panajachel	8	Panajachel	5	Mayo	2023-05-27T00:00:00	2024-11-08T02:00:00	3	Temperatura mínima	17.6
39240	7	Sololá	710	Panajachel	8	Panajachel	5	Mayo	2023-05-27T00:00:00	2024-11-08T02:00:00	5	Humedad	78
39241	7	Sololá	710	Panajachel	8	Panajachel	5	Mayo	2023-05-27T00:00:00	2024-11-08T02:00:00	6	Velocidad del viento	3.2
39242	7	Sololá	710	Panajachel	8	Panajachel	5	Mayo	2023-05-27T00:00:00	2024-11-08T02:00:00	7	Dirección del viento	3.22
39243	7	Sololá	710	Panajachel	8	Panajachel	5	Mayo	2023-05-27T00:00:00	2024-11-08T02:00:00	1	Precipitación	0
39244	7	Sololá	710	Panajachel	8	Panajachel	5	Mayo	2023-05-27T00:00:00	2024-11-08T02:00:00	8	Radiación solar	0
39245	7	Sololá	710	Panajachel	8	Panajachel	5	Mayo	2023-05-27T00:00:00	2024-11-08T03:00:00	2	Temperatura media	17.5
39246	7	Sololá	710	Panajachel	8	Panajachel	5	Mayo	2023-05-27T00:00:00	2024-11-08T03:00:00	4	Temperatura máxima	18
39247	7	Sololá	710	Panajachel	8	Panajachel	5	Mayo	2023-05-27T00:00:00	2024-11-08T03:00:00	3	Temperatura mínima	17.4
39248	7	Sololá	710	Panajachel	8	Panajachel	5	Mayo	2023-05-27T00:00:00	2024-11-08T03:00:00	5	Humedad	77
39249	7	Sololá	710	Panajachel	8	Panajachel	5	Mayo	2023-05-27T00:00:00	2024-11-08T03:00:00	6	Velocidad del viento	1.6
39250	7	Sololá	710	Panajachel	8	Panajachel	5	Mayo	2023-05-27T00:00:00	2024-11-08T03:00:00	7	Dirección del viento	1.61
39251	7	Sololá	710	Panajachel	8	Panajachel	5	Mayo	2023-05-27T00:00:00	2024-11-08T03:00:00	1	Precipitación	0
39252	7	Sololá	710	Panajachel	8	Panajachel	5	Mayo	2023-05-27T00:00:00	2024-11-08T03:00:00	8	Radiación solar	0
39253	7	Sololá	710	Panajachel	8	Panajachel	5	Mayo	2023-05-27T00:00:00	2024-11-08T04:00:00	2	Temperatura media	17.9
39254	7	Sololá	710	Panajachel	8	Panajachel	5	Mayo	2023-05-27T00:00:00	2024-11-08T04:00:00	4	Temperatura máxima	17.9
39255	7	Sololá	710	Panajachel	8	Panajachel	5	Mayo	2023-05-27T00:00:00	2024-11-08T04:00:00	3	Temperatura mínima	17.3
39256	7	Sololá	710	Panajachel	8	Panajachel	5	Mayo	2023-05-27T00:00:00	2024-11-08T04:00:00	5	Humedad	73
39257	7	Sololá	710	Panajachel	8	Panajachel	5	Mayo	2023-05-27T00:00:00	2024-11-08T04:00:00	6	Velocidad del viento	1.6
39258	7	Sololá	710	Panajachel	8	Panajachel	5	Mayo	2023-05-27T00:00:00	2024-11-08T04:00:00	7	Dirección del viento	1.61
39259	7	Sololá	710	Panajachel	8	Panajachel	5	Mayo	2023-05-27T00:00:00	2024-11-08T04:00:00	1	Precipitación	0
39260	7	Sololá	710	Panajachel	8	Panajachel	5	Mayo	2023-05-27T00:00:00	2024-11-08T04:00:00	8	Radiación solar	0
39261	7	Sololá	710	Panajachel	8	Panajachel	5	Mayo	2023-05-27T00:00:00	2024-11-08T05:00:00	2	Temperatura media	17.1
39262	7	Sololá	710	Panajachel	8	Panajachel	5	Mayo	2023-05-27T00:00:00	2024-11-08T05:00:00	4	Temperatura máxima	17.9
39263	7	Sololá	710	Panajachel	8	Panajachel	5	Mayo	2023-05-27T00:00:00	2024-11-08T05:00:00	3	Temperatura mínima	17
39264	7	Sololá	710	Panajachel	8	Panajachel	5	Mayo	2023-05-27T00:00:00	2024-11-08T05:00:00	5	Humedad	76
39265	7	Sololá	710	Panajachel	8	Panajachel	5	Mayo	2023-05-27T00:00:00	2024-11-08T05:00:00	6	Velocidad del viento	1.6
39266	7	Sololá	710	Panajachel	8	Panajachel	5	Mayo	2023-05-27T00:00:00	2024-11-08T05:00:00	7	Dirección del viento	1.61
39267	7	Sololá	710	Panajachel	8	Panajachel	5	Mayo	2023-05-27T00:00:00	2024-11-08T05:00:00	1	Precipitación	0
39268	7	Sololá	710	Panajachel	8	Panajachel	5	Mayo	2023-05-27T00:00:00	2024-11-08T05:00:00	8	Radiación solar	0
39269	7	Sololá	710	Panajachel	8	Panajachel	5	Mayo	2023-05-27T00:00:00	2024-11-08T06:00:00	2	Temperatura media	17.3
39270	7	Sololá	710	Panajachel	8	Panajachel	5	Mayo	2023-05-27T00:00:00	2024-11-08T06:00:00	4	Temperatura máxima	17.6
39271	7	Sololá	710	Panajachel	8	Panajachel	5	Mayo	2023-05-27T00:00:00	2024-11-08T06:00:00	3	Temperatura mínima	17.1
39272	7	Sololá	710	Panajachel	8	Panajachel	5	Mayo	2023-05-27T00:00:00	2024-11-08T06:00:00	5	Humedad	75
39273	7	Sololá	710	Panajachel	8	Panajachel	5	Mayo	2023-05-27T00:00:00	2024-11-08T06:00:00	6	Velocidad del viento	3.2
39274	7	Sololá	710	Panajachel	8	Panajachel	5	Mayo	2023-05-27T00:00:00	2024-11-08T06:00:00	7	Dirección del viento	3.22
39275	7	Sololá	710	Panajachel	8	Panajachel	5	Mayo	2023-05-27T00:00:00	2024-11-08T06:00:00	1	Precipitación	0
39276	7	Sololá	710	Panajachel	8	Panajachel	5	Mayo	2023-05-27T00:00:00	2024-11-08T06:00:00	8	Radiación solar	4
39277	7	Sololá	710	Panajachel	8	Panajachel	5	Mayo	2023-05-27T00:00:00	2024-11-08T07:00:00	2	Temperatura media	18.1
39278	7	Sololá	710	Panajachel	8	Panajachel	5	Mayo	2023-05-27T00:00:00	2024-11-08T07:00:00	4	Temperatura máxima	18.1
39279	7	Sololá	710	Panajachel	8	Panajachel	5	Mayo	2023-05-27T00:00:00	2024-11-08T07:00:00	3	Temperatura mínima	17.3
39280	7	Sololá	710	Panajachel	8	Panajachel	5	Mayo	2023-05-27T00:00:00	2024-11-08T07:00:00	5	Humedad	74
39281	7	Sololá	710	Panajachel	8	Panajachel	5	Mayo	2023-05-27T00:00:00	2024-11-08T07:00:00	6	Velocidad del viento	3.2
39282	7	Sololá	710	Panajachel	8	Panajachel	5	Mayo	2023-05-27T00:00:00	2024-11-08T07:00:00	7	Dirección del viento	3.22
39283	7	Sololá	710	Panajachel	8	Panajachel	5	Mayo	2023-05-27T00:00:00	2024-11-08T07:00:00	1	Precipitación	0
39284	7	Sololá	710	Panajachel	8	Panajachel	5	Mayo	2023-05-27T00:00:00	2024-11-08T07:00:00	8	Radiación solar	83
39285	7	Sololá	710	Panajachel	8	Panajachel	5	Mayo	2023-05-27T00:00:00	2024-11-08T08:00:00	2	Temperatura media	20.6
39286	7	Sololá	710	Panajachel	8	Panajachel	5	Mayo	2023-05-27T00:00:00	2024-11-08T08:00:00	4	Temperatura máxima	20.7
39287	7	Sololá	710	Panajachel	8	Panajachel	5	Mayo	2023-05-27T00:00:00	2024-11-08T08:00:00	3	Temperatura mínima	18.1
39288	7	Sololá	710	Panajachel	8	Panajachel	5	Mayo	2023-05-27T00:00:00	2024-11-08T08:00:00	5	Humedad	67
39289	7	Sololá	710	Panajachel	8	Panajachel	5	Mayo	2023-05-27T00:00:00	2024-11-08T08:00:00	6	Velocidad del viento	1.6
39290	7	Sololá	710	Panajachel	8	Panajachel	5	Mayo	2023-05-27T00:00:00	2024-11-08T08:00:00	7	Dirección del viento	1.61
39291	7	Sololá	710	Panajachel	8	Panajachel	5	Mayo	2023-05-27T00:00:00	2024-11-08T08:00:00	1	Precipitación	0
39292	7	Sololá	710	Panajachel	8	Panajachel	5	Mayo	2023-05-27T00:00:00	2024-11-08T08:00:00	8	Radiación solar	252
39293	7	Sololá	710	Panajachel	8	Panajachel	5	Mayo	2023-05-27T00:00:00	2024-11-08T09:00:00	2	Temperatura media	20.5
39294	7	Sololá	710	Panajachel	8	Panajachel	5	Mayo	2023-05-27T00:00:00	2024-11-08T09:00:00	4	Temperatura máxima	21.1
39295	7	Sololá	710	Panajachel	8	Panajachel	5	Mayo	2023-05-27T00:00:00	2024-11-08T09:00:00	3	Temperatura mínima	20.4
39296	7	Sololá	710	Panajachel	8	Panajachel	5	Mayo	2023-05-27T00:00:00	2024-11-08T09:00:00	5	Humedad	76
39297	7	Sololá	710	Panajachel	8	Panajachel	5	Mayo	2023-05-27T00:00:00	2024-11-08T09:00:00	6	Velocidad del viento	3.2
39298	7	Sololá	710	Panajachel	8	Panajachel	5	Mayo	2023-05-27T00:00:00	2024-11-08T09:00:00	7	Dirección del viento	3.22
39299	7	Sololá	710	Panajachel	8	Panajachel	5	Mayo	2023-05-27T00:00:00	2024-11-08T09:00:00	1	Precipitación	0
39300	7	Sololá	710	Panajachel	8	Panajachel	5	Mayo	2023-05-27T00:00:00	2024-11-08T09:00:00	8	Radiación solar	269
39301	7	Sololá	710	Panajachel	8	Panajachel	5	Mayo	2023-05-27T00:00:00	2024-11-08T10:00:00	2	Temperatura media	21.6
39302	7	Sololá	710	Panajachel	8	Panajachel	5	Mayo	2023-05-27T00:00:00	2024-11-08T10:00:00	4	Temperatura máxima	21.7
39303	7	Sololá	710	Panajachel	8	Panajachel	5	Mayo	2023-05-27T00:00:00	2024-11-08T10:00:00	3	Temperatura mínima	20.5
39304	7	Sololá	710	Panajachel	8	Panajachel	5	Mayo	2023-05-27T00:00:00	2024-11-08T10:00:00	5	Humedad	71
39305	7	Sololá	710	Panajachel	8	Panajachel	5	Mayo	2023-05-27T00:00:00	2024-11-08T10:00:00	6	Velocidad del viento	1.6
39306	7	Sololá	710	Panajachel	8	Panajachel	5	Mayo	2023-05-27T00:00:00	2024-11-08T10:00:00	7	Dirección del viento	1.61
39307	7	Sololá	710	Panajachel	8	Panajachel	5	Mayo	2023-05-27T00:00:00	2024-11-08T10:00:00	1	Precipitación	0
39308	7	Sololá	710	Panajachel	8	Panajachel	5	Mayo	2023-05-27T00:00:00	2024-11-08T10:00:00	8	Radiación solar	366
39309	7	Sololá	710	Panajachel	8	Panajachel	5	Mayo	2023-05-27T00:00:00	2024-11-08T11:00:00	2	Temperatura media	22.9
39310	7	Sololá	710	Panajachel	8	Panajachel	5	Mayo	2023-05-27T00:00:00	2024-11-08T11:00:00	4	Temperatura máxima	22.9
39311	7	Sololá	710	Panajachel	8	Panajachel	5	Mayo	2023-05-27T00:00:00	2024-11-08T11:00:00	3	Temperatura mínima	21.6
39312	7	Sololá	710	Panajachel	8	Panajachel	5	Mayo	2023-05-27T00:00:00	2024-11-08T11:00:00	5	Humedad	66
39313	7	Sololá	710	Panajachel	8	Panajachel	5	Mayo	2023-05-27T00:00:00	2024-11-08T11:00:00	6	Velocidad del viento	1.6
39314	7	Sololá	710	Panajachel	8	Panajachel	5	Mayo	2023-05-27T00:00:00	2024-11-08T11:00:00	7	Dirección del viento	1.61
39315	7	Sololá	710	Panajachel	8	Panajachel	5	Mayo	2023-05-27T00:00:00	2024-11-08T11:00:00	1	Precipitación	0
39316	7	Sololá	710	Panajachel	8	Panajachel	5	Mayo	2023-05-27T00:00:00	2024-11-08T11:00:00	8	Radiación solar	539
39317	7	Sololá	710	Panajachel	8	Panajachel	5	Mayo	2023-05-27T00:00:00	2024-11-08T12:00:00	2	Temperatura media	23.6
39318	7	Sololá	710	Panajachel	8	Panajachel	5	Mayo	2023-05-27T00:00:00	2024-11-08T12:00:00	4	Temperatura máxima	24.1
39319	7	Sololá	710	Panajachel	8	Panajachel	5	Mayo	2023-05-27T00:00:00	2024-11-08T12:00:00	3	Temperatura mínima	22.9
39320	7	Sololá	710	Panajachel	8	Panajachel	5	Mayo	2023-05-27T00:00:00	2024-11-08T12:00:00	5	Humedad	62
39321	7	Sololá	710	Panajachel	8	Panajachel	5	Mayo	2023-05-27T00:00:00	2024-11-08T12:00:00	6	Velocidad del viento	3.2
39322	7	Sololá	710	Panajachel	8	Panajachel	5	Mayo	2023-05-27T00:00:00	2024-11-08T12:00:00	7	Dirección del viento	3.22
39323	7	Sololá	710	Panajachel	8	Panajachel	5	Mayo	2023-05-27T00:00:00	2024-11-08T12:00:00	1	Precipitación	0
39324	7	Sololá	710	Panajachel	8	Panajachel	5	Mayo	2023-05-27T00:00:00	2024-11-08T12:00:00	8	Radiación solar	931
39325	7	Sololá	710	Panajachel	8	Panajachel	5	Mayo	2023-05-27T00:00:00	2024-11-08T13:00:00	2	Temperatura media	23.9
39326	7	Sololá	710	Panajachel	8	Panajachel	5	Mayo	2023-05-27T00:00:00	2024-11-08T13:00:00	4	Temperatura máxima	24.6
39327	7	Sololá	710	Panajachel	8	Panajachel	5	Mayo	2023-05-27T00:00:00	2024-11-08T13:00:00	3	Temperatura mínima	22.9
39328	7	Sololá	710	Panajachel	8	Panajachel	5	Mayo	2023-05-27T00:00:00	2024-11-08T13:00:00	5	Humedad	61
39329	7	Sololá	710	Panajachel	8	Panajachel	5	Mayo	2023-05-27T00:00:00	2024-11-08T13:00:00	6	Velocidad del viento	3.2
39330	7	Sololá	710	Panajachel	8	Panajachel	5	Mayo	2023-05-27T00:00:00	2024-11-08T13:00:00	7	Dirección del viento	3.22
39331	7	Sololá	710	Panajachel	8	Panajachel	5	Mayo	2023-05-27T00:00:00	2024-11-08T13:00:00	1	Precipitación	0
39332	7	Sololá	710	Panajachel	8	Panajachel	5	Mayo	2023-05-27T00:00:00	2024-11-08T13:00:00	8	Radiación solar	825
39333	7	Sololá	710	Panajachel	8	Panajachel	5	Mayo	2023-05-27T00:00:00	2024-11-08T14:00:00	2	Temperatura media	24.3
39334	7	Sololá	710	Panajachel	8	Panajachel	5	Mayo	2023-05-27T00:00:00	2024-11-08T14:00:00	4	Temperatura máxima	24.3
39335	7	Sololá	710	Panajachel	8	Panajachel	5	Mayo	2023-05-27T00:00:00	2024-11-08T14:00:00	3	Temperatura mínima	23.6
39336	7	Sololá	710	Panajachel	8	Panajachel	5	Mayo	2023-05-27T00:00:00	2024-11-08T14:00:00	5	Humedad	68
39337	7	Sololá	710	Panajachel	8	Panajachel	5	Mayo	2023-05-27T00:00:00	2024-11-08T14:00:00	6	Velocidad del viento	1.6
39338	7	Sololá	710	Panajachel	8	Panajachel	5	Mayo	2023-05-27T00:00:00	2024-11-08T14:00:00	7	Dirección del viento	1.61
39339	7	Sololá	710	Panajachel	8	Panajachel	5	Mayo	2023-05-27T00:00:00	2024-11-08T14:00:00	1	Precipitación	0
39340	7	Sololá	710	Panajachel	8	Panajachel	5	Mayo	2023-05-27T00:00:00	2024-11-08T14:00:00	8	Radiación solar	395
39341	7	Sololá	710	Panajachel	8	Panajachel	5	Mayo	2023-05-27T00:00:00	2024-11-08T15:00:00	2	Temperatura media	24.1
39342	7	Sololá	710	Panajachel	8	Panajachel	5	Mayo	2023-05-27T00:00:00	2024-11-08T15:00:00	4	Temperatura máxima	24.4
39343	7	Sololá	710	Panajachel	8	Panajachel	5	Mayo	2023-05-27T00:00:00	2024-11-08T15:00:00	3	Temperatura mínima	23.7
39344	7	Sololá	710	Panajachel	8	Panajachel	5	Mayo	2023-05-27T00:00:00	2024-11-08T15:00:00	5	Humedad	72
39345	7	Sololá	710	Panajachel	8	Panajachel	5	Mayo	2023-05-27T00:00:00	2024-11-08T15:00:00	6	Velocidad del viento	3.2
39346	7	Sololá	710	Panajachel	8	Panajachel	5	Mayo	2023-05-27T00:00:00	2024-11-08T15:00:00	7	Dirección del viento	3.22
39347	7	Sololá	710	Panajachel	8	Panajachel	5	Mayo	2023-05-27T00:00:00	2024-11-08T15:00:00	1	Precipitación	0
39348	7	Sololá	710	Panajachel	8	Panajachel	5	Mayo	2023-05-27T00:00:00	2024-11-08T15:00:00	8	Radiación solar	441
39349	7	Sololá	710	Panajachel	8	Panajachel	5	Mayo	2023-05-27T00:00:00	2024-11-08T16:00:00	2	Temperatura media	23.2
39350	7	Sololá	710	Panajachel	8	Panajachel	5	Mayo	2023-05-27T00:00:00	2024-11-08T16:00:00	4	Temperatura máxima	24.3
39351	7	Sololá	710	Panajachel	8	Panajachel	5	Mayo	2023-05-27T00:00:00	2024-11-08T16:00:00	3	Temperatura mínima	23.1
39352	7	Sololá	710	Panajachel	8	Panajachel	5	Mayo	2023-05-27T00:00:00	2024-11-08T16:00:00	5	Humedad	79
39353	7	Sololá	710	Panajachel	8	Panajachel	5	Mayo	2023-05-27T00:00:00	2024-11-08T16:00:00	6	Velocidad del viento	3.2
39354	7	Sololá	710	Panajachel	8	Panajachel	5	Mayo	2023-05-27T00:00:00	2024-11-08T16:00:00	7	Dirección del viento	3.22
39355	7	Sololá	710	Panajachel	8	Panajachel	5	Mayo	2023-05-27T00:00:00	2024-11-08T16:00:00	1	Precipitación	0
39356	7	Sololá	710	Panajachel	8	Panajachel	5	Mayo	2023-05-27T00:00:00	2024-11-08T16:00:00	8	Radiación solar	341
39357	7	Sololá	710	Panajachel	8	Panajachel	5	Mayo	2023-05-27T00:00:00	2024-11-08T17:00:00	2	Temperatura media	22.6
39358	7	Sololá	710	Panajachel	8	Panajachel	5	Mayo	2023-05-27T00:00:00	2024-11-08T17:00:00	4	Temperatura máxima	23.2
39359	7	Sololá	710	Panajachel	8	Panajachel	5	Mayo	2023-05-27T00:00:00	2024-11-08T17:00:00	3	Temperatura mínima	22.3
39360	7	Sololá	710	Panajachel	8	Panajachel	5	Mayo	2023-05-27T00:00:00	2024-11-08T17:00:00	5	Humedad	81
39361	7	Sololá	710	Panajachel	8	Panajachel	5	Mayo	2023-05-27T00:00:00	2024-11-08T17:00:00	6	Velocidad del viento	3.2
39362	7	Sololá	710	Panajachel	8	Panajachel	5	Mayo	2023-05-27T00:00:00	2024-11-08T17:00:00	7	Dirección del viento	3.22
39363	7	Sololá	710	Panajachel	8	Panajachel	5	Mayo	2023-05-27T00:00:00	2024-11-08T17:00:00	1	Precipitación	0
39364	7	Sololá	710	Panajachel	8	Panajachel	5	Mayo	2023-05-27T00:00:00	2024-11-08T17:00:00	8	Radiación solar	172
39365	7	Sololá	710	Panajachel	8	Panajachel	5	Mayo	2023-05-27T00:00:00	2024-11-08T18:00:00	2	Temperatura media	21.7
39366	7	Sololá	710	Panajachel	8	Panajachel	5	Mayo	2023-05-27T00:00:00	2024-11-08T18:00:00	4	Temperatura máxima	22.6
39367	7	Sololá	710	Panajachel	8	Panajachel	5	Mayo	2023-05-27T00:00:00	2024-11-08T18:00:00	3	Temperatura mínima	21.6
39368	7	Sololá	710	Panajachel	8	Panajachel	5	Mayo	2023-05-27T00:00:00	2024-11-08T18:00:00	5	Humedad	86
39369	7	Sololá	710	Panajachel	8	Panajachel	5	Mayo	2023-05-27T00:00:00	2024-11-08T18:00:00	6	Velocidad del viento	3.2
39370	7	Sololá	710	Panajachel	8	Panajachel	5	Mayo	2023-05-27T00:00:00	2024-11-08T18:00:00	7	Dirección del viento	3.22
39371	7	Sololá	710	Panajachel	8	Panajachel	5	Mayo	2023-05-27T00:00:00	2024-11-08T18:00:00	1	Precipitación	0
39372	7	Sololá	710	Panajachel	8	Panajachel	5	Mayo	2023-05-27T00:00:00	2024-11-08T18:00:00	8	Radiación solar	56
39373	7	Sololá	710	Panajachel	8	Panajachel	5	Mayo	2023-05-27T00:00:00	2024-11-08T19:00:00	2	Temperatura media	21.2
39374	7	Sololá	710	Panajachel	8	Panajachel	5	Mayo	2023-05-27T00:00:00	2024-11-08T19:00:00	4	Temperatura máxima	21.6
39375	7	Sololá	710	Panajachel	8	Panajachel	5	Mayo	2023-05-27T00:00:00	2024-11-08T19:00:00	3	Temperatura mínima	21.1
39376	7	Sololá	710	Panajachel	8	Panajachel	5	Mayo	2023-05-27T00:00:00	2024-11-08T19:00:00	5	Humedad	89
39377	7	Sololá	710	Panajachel	8	Panajachel	5	Mayo	2023-05-27T00:00:00	2024-11-08T19:00:00	6	Velocidad del viento	3.2
39378	7	Sololá	710	Panajachel	8	Panajachel	5	Mayo	2023-05-27T00:00:00	2024-11-08T19:00:00	7	Dirección del viento	3.22
39379	7	Sololá	710	Panajachel	8	Panajachel	5	Mayo	2023-05-27T00:00:00	2024-11-08T19:00:00	1	Precipitación	0
39380	7	Sololá	710	Panajachel	8	Panajachel	5	Mayo	2023-05-27T00:00:00	2024-11-08T19:00:00	8	Radiación solar	0
39381	7	Sololá	710	Panajachel	8	Panajachel	5	Mayo	2023-05-27T00:00:00	2024-11-08T20:00:00	2	Temperatura media	20
39382	7	Sololá	710	Panajachel	8	Panajachel	5	Mayo	2023-05-27T00:00:00	2024-11-08T20:00:00	4	Temperatura máxima	21.1
39383	7	Sololá	710	Panajachel	8	Panajachel	5	Mayo	2023-05-27T00:00:00	2024-11-08T20:00:00	3	Temperatura mínima	20
39384	7	Sololá	710	Panajachel	8	Panajachel	5	Mayo	2023-05-27T00:00:00	2024-11-08T20:00:00	5	Humedad	93
39385	7	Sololá	710	Panajachel	8	Panajachel	5	Mayo	2023-05-27T00:00:00	2024-11-08T20:00:00	6	Velocidad del viento	3.2
39386	7	Sololá	710	Panajachel	8	Panajachel	5	Mayo	2023-05-27T00:00:00	2024-11-08T20:00:00	7	Dirección del viento	3.22
39387	7	Sololá	710	Panajachel	8	Panajachel	5	Mayo	2023-05-27T00:00:00	2024-11-08T20:00:00	1	Precipitación	0.8
39388	7	Sololá	710	Panajachel	8	Panajachel	5	Mayo	2023-05-27T00:00:00	2024-11-08T20:00:00	8	Radiación solar	0
39389	7	Sololá	710	Panajachel	8	Panajachel	5	Mayo	2023-05-27T00:00:00	2024-11-08T21:00:00	2	Temperatura media	19.5
39390	7	Sololá	710	Panajachel	8	Panajachel	5	Mayo	2023-05-27T00:00:00	2024-11-08T21:00:00	4	Temperatura máxima	20
39391	7	Sololá	710	Panajachel	8	Panajachel	5	Mayo	2023-05-27T00:00:00	2024-11-08T21:00:00	3	Temperatura mínima	19.4
39392	7	Sololá	710	Panajachel	8	Panajachel	5	Mayo	2023-05-27T00:00:00	2024-11-08T21:00:00	5	Humedad	93
39393	7	Sololá	710	Panajachel	8	Panajachel	5	Mayo	2023-05-27T00:00:00	2024-11-08T21:00:00	6	Velocidad del viento	1.6
39394	7	Sololá	710	Panajachel	8	Panajachel	5	Mayo	2023-05-27T00:00:00	2024-11-08T21:00:00	7	Dirección del viento	1.61
39395	7	Sololá	710	Panajachel	8	Panajachel	5	Mayo	2023-05-27T00:00:00	2024-11-08T21:00:00	1	Precipitación	0.2
39396	7	Sololá	710	Panajachel	8	Panajachel	5	Mayo	2023-05-27T00:00:00	2024-11-08T21:00:00	8	Radiación solar	0
39397	7	Sololá	710	Panajachel	8	Panajachel	5	Mayo	2023-05-27T00:00:00	2024-11-08T22:00:00	2	Temperatura media	19.4
39398	7	Sololá	710	Panajachel	8	Panajachel	5	Mayo	2023-05-27T00:00:00	2024-11-08T22:00:00	4	Temperatura máxima	19.6
39399	7	Sololá	710	Panajachel	8	Panajachel	5	Mayo	2023-05-27T00:00:00	2024-11-08T22:00:00	3	Temperatura mínima	19.3
39400	7	Sololá	710	Panajachel	8	Panajachel	5	Mayo	2023-05-27T00:00:00	2024-11-08T22:00:00	5	Humedad	93
39401	7	Sololá	710	Panajachel	8	Panajachel	5	Mayo	2023-05-27T00:00:00	2024-11-08T22:00:00	6	Velocidad del viento	1.6
39402	7	Sololá	710	Panajachel	8	Panajachel	5	Mayo	2023-05-27T00:00:00	2024-11-08T22:00:00	7	Dirección del viento	1.61
39403	7	Sololá	710	Panajachel	8	Panajachel	5	Mayo	2023-05-27T00:00:00	2024-11-08T22:00:00	1	Precipitación	0
39404	7	Sololá	710	Panajachel	8	Panajachel	5	Mayo	2023-05-27T00:00:00	2024-11-08T22:00:00	8	Radiación solar	0
39405	7	Sololá	710	Panajachel	8	Panajachel	5	Mayo	2023-05-27T00:00:00	2024-11-08T23:00:00	2	Temperatura media	18.9
39406	7	Sololá	710	Panajachel	8	Panajachel	5	Mayo	2023-05-27T00:00:00	2024-11-08T23:00:00	4	Temperatura máxima	19.4
39407	7	Sololá	710	Panajachel	8	Panajachel	5	Mayo	2023-05-27T00:00:00	2024-11-08T23:00:00	3	Temperatura mínima	18.9
39408	7	Sololá	710	Panajachel	8	Panajachel	5	Mayo	2023-05-27T00:00:00	2024-11-08T23:00:00	5	Humedad	91
39409	7	Sololá	710	Panajachel	8	Panajachel	5	Mayo	2023-05-27T00:00:00	2024-11-08T23:00:00	6	Velocidad del viento	0
39410	7	Sololá	710	Panajachel	8	Panajachel	5	Mayo	2023-05-27T00:00:00	2024-11-08T23:00:00	7	Dirección del viento	0
39411	7	Sololá	710	Panajachel	8	Panajachel	5	Mayo	2023-05-27T00:00:00	2024-11-08T23:00:00	1	Precipitación	0
39412	7	Sololá	710	Panajachel	8	Panajachel	5	Mayo	2023-05-27T00:00:00	2024-11-08T23:00:00	8	Radiación solar	0
39413	7	Sololá	710	Panajachel	8	Panajachel	5	Mayo	2023-05-28T00:00:00	2024-11-08T00:00:00	2	Temperatura media	18.6
39414	7	Sololá	710	Panajachel	8	Panajachel	5	Mayo	2023-05-28T00:00:00	2024-11-08T00:00:00	4	Temperatura máxima	19.2
39415	7	Sololá	710	Panajachel	8	Panajachel	5	Mayo	2023-05-28T00:00:00	2024-11-08T00:00:00	3	Temperatura mínima	18.6
39416	7	Sololá	710	Panajachel	8	Panajachel	5	Mayo	2023-05-28T00:00:00	2024-11-08T00:00:00	5	Humedad	94
39417	7	Sololá	710	Panajachel	8	Panajachel	5	Mayo	2023-05-28T00:00:00	2024-11-08T00:00:00	6	Velocidad del viento	0
39418	7	Sololá	710	Panajachel	8	Panajachel	5	Mayo	2023-05-28T00:00:00	2024-11-08T00:00:00	7	Dirección del viento	0
39419	7	Sololá	710	Panajachel	8	Panajachel	5	Mayo	2023-05-28T00:00:00	2024-11-08T00:00:00	1	Precipitación	0.2
39420	7	Sololá	710	Panajachel	8	Panajachel	5	Mayo	2023-05-28T00:00:00	2024-11-08T00:00:00	8	Radiación solar	0
39421	7	Sololá	710	Panajachel	8	Panajachel	5	Mayo	2023-05-28T00:00:00	2024-11-08T01:00:00	2	Temperatura media	18.2
39422	7	Sololá	710	Panajachel	8	Panajachel	5	Mayo	2023-05-28T00:00:00	2024-11-08T01:00:00	4	Temperatura máxima	18.6
39423	7	Sololá	710	Panajachel	8	Panajachel	5	Mayo	2023-05-28T00:00:00	2024-11-08T01:00:00	3	Temperatura mínima	18.2
39424	7	Sololá	710	Panajachel	8	Panajachel	5	Mayo	2023-05-28T00:00:00	2024-11-08T01:00:00	5	Humedad	93
39425	7	Sololá	710	Panajachel	8	Panajachel	5	Mayo	2023-05-28T00:00:00	2024-11-08T01:00:00	6	Velocidad del viento	0
39426	7	Sololá	710	Panajachel	8	Panajachel	5	Mayo	2023-05-28T00:00:00	2024-11-08T01:00:00	7	Dirección del viento	0
39427	7	Sololá	710	Panajachel	8	Panajachel	5	Mayo	2023-05-28T00:00:00	2024-11-08T01:00:00	1	Precipitación	0
39428	7	Sololá	710	Panajachel	8	Panajachel	5	Mayo	2023-05-28T00:00:00	2024-11-08T01:00:00	8	Radiación solar	0
39429	7	Sololá	710	Panajachel	8	Panajachel	5	Mayo	2023-05-28T00:00:00	2024-11-08T02:00:00	2	Temperatura media	17.8
39430	7	Sololá	710	Panajachel	8	Panajachel	5	Mayo	2023-05-28T00:00:00	2024-11-08T02:00:00	4	Temperatura máxima	18.2
39431	7	Sololá	710	Panajachel	8	Panajachel	5	Mayo	2023-05-28T00:00:00	2024-11-08T02:00:00	3	Temperatura mínima	17.8
39432	7	Sololá	710	Panajachel	8	Panajachel	5	Mayo	2023-05-28T00:00:00	2024-11-08T02:00:00	5	Humedad	94
39433	7	Sololá	710	Panajachel	8	Panajachel	5	Mayo	2023-05-28T00:00:00	2024-11-08T02:00:00	6	Velocidad del viento	0
39434	7	Sololá	710	Panajachel	8	Panajachel	5	Mayo	2023-05-28T00:00:00	2024-11-08T02:00:00	7	Dirección del viento	0
39435	7	Sololá	710	Panajachel	8	Panajachel	5	Mayo	2023-05-28T00:00:00	2024-11-08T02:00:00	1	Precipitación	0
39436	7	Sololá	710	Panajachel	8	Panajachel	5	Mayo	2023-05-28T00:00:00	2024-11-08T02:00:00	8	Radiación solar	0
39437	7	Sololá	710	Panajachel	8	Panajachel	5	Mayo	2023-05-28T00:00:00	2024-11-08T03:00:00	2	Temperatura media	17.5
39438	7	Sololá	710	Panajachel	8	Panajachel	5	Mayo	2023-05-28T00:00:00	2024-11-08T03:00:00	4	Temperatura máxima	17.8
39439	7	Sololá	710	Panajachel	8	Panajachel	5	Mayo	2023-05-28T00:00:00	2024-11-08T03:00:00	3	Temperatura mínima	17.5
39440	7	Sololá	710	Panajachel	8	Panajachel	5	Mayo	2023-05-28T00:00:00	2024-11-08T03:00:00	5	Humedad	93
39441	7	Sololá	710	Panajachel	8	Panajachel	5	Mayo	2023-05-28T00:00:00	2024-11-08T03:00:00	6	Velocidad del viento	0
39442	7	Sololá	710	Panajachel	8	Panajachel	5	Mayo	2023-05-28T00:00:00	2024-11-08T03:00:00	7	Dirección del viento	0
39443	7	Sololá	710	Panajachel	8	Panajachel	5	Mayo	2023-05-28T00:00:00	2024-11-08T03:00:00	1	Precipitación	0
39444	7	Sololá	710	Panajachel	8	Panajachel	5	Mayo	2023-05-28T00:00:00	2024-11-08T03:00:00	8	Radiación solar	0
39445	7	Sololá	710	Panajachel	8	Panajachel	5	Mayo	2023-05-28T00:00:00	2024-11-08T04:00:00	2	Temperatura media	17.2
39446	7	Sololá	710	Panajachel	8	Panajachel	5	Mayo	2023-05-28T00:00:00	2024-11-08T04:00:00	4	Temperatura máxima	17.6
39447	7	Sololá	710	Panajachel	8	Panajachel	5	Mayo	2023-05-28T00:00:00	2024-11-08T04:00:00	3	Temperatura mínima	17.2
39448	7	Sololá	710	Panajachel	8	Panajachel	5	Mayo	2023-05-28T00:00:00	2024-11-08T04:00:00	5	Humedad	91
39449	7	Sololá	710	Panajachel	8	Panajachel	5	Mayo	2023-05-28T00:00:00	2024-11-08T04:00:00	6	Velocidad del viento	0
39450	7	Sololá	710	Panajachel	8	Panajachel	5	Mayo	2023-05-28T00:00:00	2024-11-08T04:00:00	7	Dirección del viento	0
39451	7	Sololá	710	Panajachel	8	Panajachel	5	Mayo	2023-05-28T00:00:00	2024-11-08T04:00:00	1	Precipitación	0
39452	7	Sololá	710	Panajachel	8	Panajachel	5	Mayo	2023-05-28T00:00:00	2024-11-08T04:00:00	8	Radiación solar	0
39453	7	Sololá	710	Panajachel	8	Panajachel	5	Mayo	2023-05-28T00:00:00	2024-11-08T05:00:00	2	Temperatura media	17.4
39454	7	Sololá	710	Panajachel	8	Panajachel	5	Mayo	2023-05-28T00:00:00	2024-11-08T05:00:00	4	Temperatura máxima	17.6
39455	7	Sololá	710	Panajachel	8	Panajachel	5	Mayo	2023-05-28T00:00:00	2024-11-08T05:00:00	3	Temperatura mínima	17.2
39456	7	Sololá	710	Panajachel	8	Panajachel	5	Mayo	2023-05-28T00:00:00	2024-11-08T05:00:00	5	Humedad	91
39457	7	Sololá	710	Panajachel	8	Panajachel	5	Mayo	2023-05-28T00:00:00	2024-11-08T05:00:00	6	Velocidad del viento	0
39458	7	Sololá	710	Panajachel	8	Panajachel	5	Mayo	2023-05-28T00:00:00	2024-11-08T05:00:00	7	Dirección del viento	0
39459	7	Sololá	710	Panajachel	8	Panajachel	5	Mayo	2023-05-28T00:00:00	2024-11-08T05:00:00	1	Precipitación	0
39460	7	Sololá	710	Panajachel	8	Panajachel	5	Mayo	2023-05-28T00:00:00	2024-11-08T05:00:00	8	Radiación solar	0
39461	7	Sololá	710	Panajachel	8	Panajachel	5	Mayo	2023-05-28T00:00:00	2024-11-08T06:00:00	2	Temperatura media	17.4
39462	7	Sololá	710	Panajachel	8	Panajachel	5	Mayo	2023-05-28T00:00:00	2024-11-08T06:00:00	4	Temperatura máxima	17.4
39463	7	Sololá	710	Panajachel	8	Panajachel	5	Mayo	2023-05-28T00:00:00	2024-11-08T06:00:00	3	Temperatura mínima	17.2
39464	7	Sololá	710	Panajachel	8	Panajachel	5	Mayo	2023-05-28T00:00:00	2024-11-08T06:00:00	5	Humedad	90
39465	7	Sololá	710	Panajachel	8	Panajachel	5	Mayo	2023-05-28T00:00:00	2024-11-08T06:00:00	6	Velocidad del viento	0
39466	7	Sololá	710	Panajachel	8	Panajachel	5	Mayo	2023-05-28T00:00:00	2024-11-08T06:00:00	7	Dirección del viento	0
39467	7	Sololá	710	Panajachel	8	Panajachel	5	Mayo	2023-05-28T00:00:00	2024-11-08T06:00:00	1	Precipitación	0
39468	7	Sololá	710	Panajachel	8	Panajachel	5	Mayo	2023-05-28T00:00:00	2024-11-08T06:00:00	8	Radiación solar	1
39469	7	Sololá	710	Panajachel	8	Panajachel	5	Mayo	2023-05-28T00:00:00	2024-11-08T07:00:00	2	Temperatura media	18.7
39470	7	Sololá	710	Panajachel	8	Panajachel	5	Mayo	2023-05-28T00:00:00	2024-11-08T07:00:00	4	Temperatura máxima	18.7
39471	7	Sololá	710	Panajachel	8	Panajachel	5	Mayo	2023-05-28T00:00:00	2024-11-08T07:00:00	3	Temperatura mínima	17.4
39472	7	Sololá	710	Panajachel	8	Panajachel	5	Mayo	2023-05-28T00:00:00	2024-11-08T07:00:00	5	Humedad	87
39473	7	Sololá	710	Panajachel	8	Panajachel	5	Mayo	2023-05-28T00:00:00	2024-11-08T07:00:00	6	Velocidad del viento	0
39474	7	Sololá	710	Panajachel	8	Panajachel	5	Mayo	2023-05-28T00:00:00	2024-11-08T07:00:00	7	Dirección del viento	0
39475	7	Sololá	710	Panajachel	8	Panajachel	5	Mayo	2023-05-28T00:00:00	2024-11-08T07:00:00	1	Precipitación	0.2
39476	7	Sololá	710	Panajachel	8	Panajachel	5	Mayo	2023-05-28T00:00:00	2024-11-08T07:00:00	8	Radiación solar	70
39477	7	Sololá	710	Panajachel	8	Panajachel	5	Mayo	2023-05-28T00:00:00	2024-11-08T08:00:00	2	Temperatura media	19.8
39478	7	Sololá	710	Panajachel	8	Panajachel	5	Mayo	2023-05-28T00:00:00	2024-11-08T08:00:00	4	Temperatura máxima	19.8
39479	7	Sololá	710	Panajachel	8	Panajachel	5	Mayo	2023-05-28T00:00:00	2024-11-08T08:00:00	3	Temperatura mínima	18.7
39480	7	Sololá	710	Panajachel	8	Panajachel	5	Mayo	2023-05-28T00:00:00	2024-11-08T08:00:00	5	Humedad	83
39481	7	Sololá	710	Panajachel	8	Panajachel	5	Mayo	2023-05-28T00:00:00	2024-11-08T08:00:00	6	Velocidad del viento	1.6
39482	7	Sololá	710	Panajachel	8	Panajachel	5	Mayo	2023-05-28T00:00:00	2024-11-08T08:00:00	7	Dirección del viento	1.61
39483	7	Sololá	710	Panajachel	8	Panajachel	5	Mayo	2023-05-28T00:00:00	2024-11-08T08:00:00	1	Precipitación	0
39484	7	Sololá	710	Panajachel	8	Panajachel	5	Mayo	2023-05-28T00:00:00	2024-11-08T08:00:00	8	Radiación solar	168
39485	7	Sololá	710	Panajachel	8	Panajachel	5	Mayo	2023-05-28T00:00:00	2024-11-08T09:00:00	2	Temperatura media	21
39486	7	Sololá	710	Panajachel	8	Panajachel	5	Mayo	2023-05-28T00:00:00	2024-11-08T09:00:00	4	Temperatura máxima	21
39487	7	Sololá	710	Panajachel	8	Panajachel	5	Mayo	2023-05-28T00:00:00	2024-11-08T09:00:00	3	Temperatura mínima	19.8
39488	7	Sololá	710	Panajachel	8	Panajachel	5	Mayo	2023-05-28T00:00:00	2024-11-08T09:00:00	5	Humedad	81
39489	7	Sololá	710	Panajachel	8	Panajachel	5	Mayo	2023-05-28T00:00:00	2024-11-08T09:00:00	6	Velocidad del viento	1.6
39490	7	Sololá	710	Panajachel	8	Panajachel	5	Mayo	2023-05-28T00:00:00	2024-11-08T09:00:00	7	Dirección del viento	1.61
39491	7	Sololá	710	Panajachel	8	Panajachel	5	Mayo	2023-05-28T00:00:00	2024-11-08T09:00:00	1	Precipitación	0
39492	7	Sololá	710	Panajachel	8	Panajachel	5	Mayo	2023-05-28T00:00:00	2024-11-08T09:00:00	8	Radiación solar	387
39493	7	Sololá	710	Panajachel	8	Panajachel	5	Mayo	2023-05-28T00:00:00	2024-11-08T10:00:00	2	Temperatura media	22.1
39494	7	Sololá	710	Panajachel	8	Panajachel	5	Mayo	2023-05-28T00:00:00	2024-11-08T10:00:00	4	Temperatura máxima	22.2
39495	7	Sololá	710	Panajachel	8	Panajachel	5	Mayo	2023-05-28T00:00:00	2024-11-08T10:00:00	3	Temperatura mínima	20.6
39496	7	Sololá	710	Panajachel	8	Panajachel	5	Mayo	2023-05-28T00:00:00	2024-11-08T10:00:00	5	Humedad	75
39497	7	Sololá	710	Panajachel	8	Panajachel	5	Mayo	2023-05-28T00:00:00	2024-11-08T10:00:00	6	Velocidad del viento	3.2
39498	7	Sololá	710	Panajachel	8	Panajachel	5	Mayo	2023-05-28T00:00:00	2024-11-08T10:00:00	7	Dirección del viento	3.22
39499	7	Sololá	710	Panajachel	8	Panajachel	5	Mayo	2023-05-28T00:00:00	2024-11-08T10:00:00	1	Precipitación	0
39500	7	Sololá	710	Panajachel	8	Panajachel	5	Mayo	2023-05-28T00:00:00	2024-11-08T10:00:00	8	Radiación solar	473
39501	7	Sololá	710	Panajachel	8	Panajachel	5	Mayo	2023-05-28T00:00:00	2024-11-08T11:00:00	2	Temperatura media	22.7
39502	7	Sololá	710	Panajachel	8	Panajachel	5	Mayo	2023-05-28T00:00:00	2024-11-08T11:00:00	4	Temperatura máxima	22.7
39503	7	Sololá	710	Panajachel	8	Panajachel	5	Mayo	2023-05-28T00:00:00	2024-11-08T11:00:00	3	Temperatura mínima	21.4
39504	7	Sololá	710	Panajachel	8	Panajachel	5	Mayo	2023-05-28T00:00:00	2024-11-08T11:00:00	5	Humedad	78
39505	7	Sololá	710	Panajachel	8	Panajachel	5	Mayo	2023-05-28T00:00:00	2024-11-08T11:00:00	6	Velocidad del viento	3.2
39506	7	Sololá	710	Panajachel	8	Panajachel	5	Mayo	2023-05-28T00:00:00	2024-11-08T11:00:00	7	Dirección del viento	3.22
39507	7	Sololá	710	Panajachel	8	Panajachel	5	Mayo	2023-05-28T00:00:00	2024-11-08T11:00:00	1	Precipitación	0
39508	7	Sololá	710	Panajachel	8	Panajachel	5	Mayo	2023-05-28T00:00:00	2024-11-08T11:00:00	8	Radiación solar	653
39509	7	Sololá	710	Panajachel	8	Panajachel	5	Mayo	2023-05-28T00:00:00	2024-11-08T12:00:00	2	Temperatura media	23.6
39510	7	Sololá	710	Panajachel	8	Panajachel	5	Mayo	2023-05-28T00:00:00	2024-11-08T12:00:00	4	Temperatura máxima	23.7
39511	7	Sololá	710	Panajachel	8	Panajachel	5	Mayo	2023-05-28T00:00:00	2024-11-08T12:00:00	3	Temperatura mínima	22.7
39512	7	Sololá	710	Panajachel	8	Panajachel	5	Mayo	2023-05-28T00:00:00	2024-11-08T12:00:00	5	Humedad	78
39513	7	Sololá	710	Panajachel	8	Panajachel	5	Mayo	2023-05-28T00:00:00	2024-11-08T12:00:00	6	Velocidad del viento	3.2
39514	7	Sololá	710	Panajachel	8	Panajachel	5	Mayo	2023-05-28T00:00:00	2024-11-08T12:00:00	7	Dirección del viento	3.22
39515	7	Sololá	710	Panajachel	8	Panajachel	5	Mayo	2023-05-28T00:00:00	2024-11-08T12:00:00	1	Precipitación	0
39516	7	Sololá	710	Panajachel	8	Panajachel	5	Mayo	2023-05-28T00:00:00	2024-11-08T12:00:00	8	Radiación solar	913
39517	7	Sololá	710	Panajachel	8	Panajachel	5	Mayo	2023-05-28T00:00:00	2024-11-08T13:00:00	2	Temperatura media	23.1
39518	7	Sololá	710	Panajachel	8	Panajachel	5	Mayo	2023-05-28T00:00:00	2024-11-08T13:00:00	4	Temperatura máxima	23.8
39519	7	Sololá	710	Panajachel	8	Panajachel	5	Mayo	2023-05-28T00:00:00	2024-11-08T13:00:00	3	Temperatura mínima	23.1
39520	7	Sololá	710	Panajachel	8	Panajachel	5	Mayo	2023-05-28T00:00:00	2024-11-08T13:00:00	5	Humedad	78
39521	7	Sololá	710	Panajachel	8	Panajachel	5	Mayo	2023-05-28T00:00:00	2024-11-08T13:00:00	6	Velocidad del viento	4.8
39522	7	Sololá	710	Panajachel	8	Panajachel	5	Mayo	2023-05-28T00:00:00	2024-11-08T13:00:00	7	Dirección del viento	4.83
39523	7	Sololá	710	Panajachel	8	Panajachel	5	Mayo	2023-05-28T00:00:00	2024-11-08T13:00:00	1	Precipitación	0
39524	7	Sololá	710	Panajachel	8	Panajachel	5	Mayo	2023-05-28T00:00:00	2024-11-08T13:00:00	8	Radiación solar	899
39525	7	Sololá	710	Panajachel	8	Panajachel	5	Mayo	2023-05-28T00:00:00	2024-11-08T14:00:00	2	Temperatura media	22.8
39526	7	Sololá	710	Panajachel	8	Panajachel	5	Mayo	2023-05-28T00:00:00	2024-11-08T14:00:00	4	Temperatura máxima	23.2
39527	7	Sololá	710	Panajachel	8	Panajachel	5	Mayo	2023-05-28T00:00:00	2024-11-08T14:00:00	3	Temperatura mínima	22.6
39528	7	Sololá	710	Panajachel	8	Panajachel	5	Mayo	2023-05-28T00:00:00	2024-11-08T14:00:00	5	Humedad	78
39529	7	Sololá	710	Panajachel	8	Panajachel	5	Mayo	2023-05-28T00:00:00	2024-11-08T14:00:00	6	Velocidad del viento	6.4
39530	7	Sololá	710	Panajachel	8	Panajachel	5	Mayo	2023-05-28T00:00:00	2024-11-08T14:00:00	7	Dirección del viento	6.44
39531	7	Sololá	710	Panajachel	8	Panajachel	5	Mayo	2023-05-28T00:00:00	2024-11-08T14:00:00	1	Precipitación	0
39532	7	Sololá	710	Panajachel	8	Panajachel	5	Mayo	2023-05-28T00:00:00	2024-11-08T14:00:00	8	Radiación solar	687
39533	7	Sololá	710	Panajachel	8	Panajachel	5	Mayo	2023-05-28T00:00:00	2024-11-08T15:00:00	2	Temperatura media	22.4
39534	7	Sololá	710	Panajachel	8	Panajachel	5	Mayo	2023-05-28T00:00:00	2024-11-08T15:00:00	4	Temperatura máxima	23.1
39535	7	Sololá	710	Panajachel	8	Panajachel	5	Mayo	2023-05-28T00:00:00	2024-11-08T15:00:00	3	Temperatura mínima	22.2
39536	7	Sololá	710	Panajachel	8	Panajachel	5	Mayo	2023-05-28T00:00:00	2024-11-08T15:00:00	5	Humedad	83
39537	7	Sololá	710	Panajachel	8	Panajachel	5	Mayo	2023-05-28T00:00:00	2024-11-08T15:00:00	6	Velocidad del viento	6.4
39538	7	Sololá	710	Panajachel	8	Panajachel	5	Mayo	2023-05-28T00:00:00	2024-11-08T15:00:00	7	Dirección del viento	6.44
39539	7	Sololá	710	Panajachel	8	Panajachel	5	Mayo	2023-05-28T00:00:00	2024-11-08T15:00:00	1	Precipitación	0
39540	7	Sololá	710	Panajachel	8	Panajachel	5	Mayo	2023-05-28T00:00:00	2024-11-08T15:00:00	8	Radiación solar	577
39541	7	Sololá	710	Panajachel	8	Panajachel	5	Mayo	2023-05-28T00:00:00	2024-11-08T16:00:00	2	Temperatura media	21.4
39542	7	Sololá	710	Panajachel	8	Panajachel	5	Mayo	2023-05-28T00:00:00	2024-11-08T16:00:00	4	Temperatura máxima	22.5
39543	7	Sololá	710	Panajachel	8	Panajachel	5	Mayo	2023-05-28T00:00:00	2024-11-08T16:00:00	3	Temperatura mínima	21.4
39544	7	Sololá	710	Panajachel	8	Panajachel	5	Mayo	2023-05-28T00:00:00	2024-11-08T16:00:00	5	Humedad	84
39545	7	Sololá	710	Panajachel	8	Panajachel	5	Mayo	2023-05-28T00:00:00	2024-11-08T16:00:00	6	Velocidad del viento	4.8
39546	7	Sololá	710	Panajachel	8	Panajachel	5	Mayo	2023-05-28T00:00:00	2024-11-08T16:00:00	7	Dirección del viento	4.83
39547	7	Sololá	710	Panajachel	8	Panajachel	5	Mayo	2023-05-28T00:00:00	2024-11-08T16:00:00	1	Precipitación	0
39548	7	Sololá	710	Panajachel	8	Panajachel	5	Mayo	2023-05-28T00:00:00	2024-11-08T16:00:00	8	Radiación solar	228
39549	7	Sololá	710	Panajachel	8	Panajachel	5	Mayo	2023-05-28T00:00:00	2024-11-08T17:00:00	2	Temperatura media	20.9
39550	7	Sololá	710	Panajachel	8	Panajachel	5	Mayo	2023-05-28T00:00:00	2024-11-08T17:00:00	4	Temperatura máxima	21.4
39551	7	Sololá	710	Panajachel	8	Panajachel	5	Mayo	2023-05-28T00:00:00	2024-11-08T17:00:00	3	Temperatura mínima	20.9
39552	7	Sololá	710	Panajachel	8	Panajachel	5	Mayo	2023-05-28T00:00:00	2024-11-08T17:00:00	5	Humedad	87
39553	7	Sololá	710	Panajachel	8	Panajachel	5	Mayo	2023-05-28T00:00:00	2024-11-08T17:00:00	6	Velocidad del viento	3.2
39554	7	Sololá	710	Panajachel	8	Panajachel	5	Mayo	2023-05-28T00:00:00	2024-11-08T17:00:00	7	Dirección del viento	3.22
39555	7	Sololá	710	Panajachel	8	Panajachel	5	Mayo	2023-05-28T00:00:00	2024-11-08T17:00:00	1	Precipitación	0
39556	7	Sololá	710	Panajachel	8	Panajachel	5	Mayo	2023-05-28T00:00:00	2024-11-08T17:00:00	8	Radiación solar	68
39557	7	Sololá	710	Panajachel	8	Panajachel	5	Mayo	2023-05-28T00:00:00	2024-11-08T18:00:00	2	Temperatura media	20.4
39558	7	Sololá	710	Panajachel	8	Panajachel	5	Mayo	2023-05-28T00:00:00	2024-11-08T18:00:00	4	Temperatura máxima	20.9
39559	7	Sololá	710	Panajachel	8	Panajachel	5	Mayo	2023-05-28T00:00:00	2024-11-08T18:00:00	3	Temperatura mínima	20.4
39560	7	Sololá	710	Panajachel	8	Panajachel	5	Mayo	2023-05-28T00:00:00	2024-11-08T18:00:00	5	Humedad	89
39561	7	Sololá	710	Panajachel	8	Panajachel	5	Mayo	2023-05-28T00:00:00	2024-11-08T18:00:00	6	Velocidad del viento	1.6
39562	7	Sololá	710	Panajachel	8	Panajachel	5	Mayo	2023-05-28T00:00:00	2024-11-08T18:00:00	7	Dirección del viento	1.61
39563	7	Sololá	710	Panajachel	8	Panajachel	5	Mayo	2023-05-28T00:00:00	2024-11-08T18:00:00	1	Precipitación	0
39564	7	Sololá	710	Panajachel	8	Panajachel	5	Mayo	2023-05-28T00:00:00	2024-11-08T18:00:00	8	Radiación solar	23
39565	7	Sololá	710	Panajachel	8	Panajachel	5	Mayo	2023-05-28T00:00:00	2024-11-08T19:00:00	2	Temperatura media	20.4
39566	7	Sololá	710	Panajachel	8	Panajachel	5	Mayo	2023-05-28T00:00:00	2024-11-08T19:00:00	4	Temperatura máxima	20.6
39567	7	Sololá	710	Panajachel	8	Panajachel	5	Mayo	2023-05-28T00:00:00	2024-11-08T19:00:00	3	Temperatura mínima	20.4
39568	7	Sololá	710	Panajachel	8	Panajachel	5	Mayo	2023-05-28T00:00:00	2024-11-08T19:00:00	5	Humedad	87
39569	7	Sololá	710	Panajachel	8	Panajachel	5	Mayo	2023-05-28T00:00:00	2024-11-08T19:00:00	6	Velocidad del viento	0
39570	7	Sololá	710	Panajachel	8	Panajachel	5	Mayo	2023-05-28T00:00:00	2024-11-08T19:00:00	7	Dirección del viento	0
39571	7	Sololá	710	Panajachel	8	Panajachel	5	Mayo	2023-05-28T00:00:00	2024-11-08T19:00:00	1	Precipitación	0
39572	7	Sololá	710	Panajachel	8	Panajachel	5	Mayo	2023-05-28T00:00:00	2024-11-08T19:00:00	8	Radiación solar	0
39573	7	Sololá	710	Panajachel	8	Panajachel	5	Mayo	2023-05-28T00:00:00	2024-11-08T20:00:00	2	Temperatura media	20.2
39574	7	Sololá	710	Panajachel	8	Panajachel	5	Mayo	2023-05-28T00:00:00	2024-11-08T20:00:00	4	Temperatura máxima	20.5
39575	7	Sololá	710	Panajachel	8	Panajachel	5	Mayo	2023-05-28T00:00:00	2024-11-08T20:00:00	3	Temperatura mínima	20.2
39576	7	Sololá	710	Panajachel	8	Panajachel	5	Mayo	2023-05-28T00:00:00	2024-11-08T20:00:00	5	Humedad	87
39577	7	Sololá	710	Panajachel	8	Panajachel	5	Mayo	2023-05-28T00:00:00	2024-11-08T20:00:00	6	Velocidad del viento	0
39578	7	Sololá	710	Panajachel	8	Panajachel	5	Mayo	2023-05-28T00:00:00	2024-11-08T20:00:00	7	Dirección del viento	0
39579	7	Sololá	710	Panajachel	8	Panajachel	5	Mayo	2023-05-28T00:00:00	2024-11-08T20:00:00	1	Precipitación	0
39580	7	Sololá	710	Panajachel	8	Panajachel	5	Mayo	2023-05-28T00:00:00	2024-11-08T20:00:00	8	Radiación solar	0
39581	7	Sololá	710	Panajachel	8	Panajachel	5	Mayo	2023-05-28T00:00:00	2024-11-08T21:00:00	2	Temperatura media	20.1
39582	7	Sololá	710	Panajachel	8	Panajachel	5	Mayo	2023-05-28T00:00:00	2024-11-08T21:00:00	4	Temperatura máxima	20.3
39583	7	Sololá	710	Panajachel	8	Panajachel	5	Mayo	2023-05-28T00:00:00	2024-11-08T21:00:00	3	Temperatura mínima	20
39584	7	Sololá	710	Panajachel	8	Panajachel	5	Mayo	2023-05-28T00:00:00	2024-11-08T21:00:00	5	Humedad	87
39585	7	Sololá	710	Panajachel	8	Panajachel	5	Mayo	2023-05-28T00:00:00	2024-11-08T21:00:00	6	Velocidad del viento	0
39586	7	Sololá	710	Panajachel	8	Panajachel	5	Mayo	2023-05-28T00:00:00	2024-11-08T21:00:00	7	Dirección del viento	0
39587	7	Sololá	710	Panajachel	8	Panajachel	5	Mayo	2023-05-28T00:00:00	2024-11-08T21:00:00	1	Precipitación	0
39588	7	Sololá	710	Panajachel	8	Panajachel	5	Mayo	2023-05-28T00:00:00	2024-11-08T21:00:00	8	Radiación solar	0
39589	7	Sololá	710	Panajachel	8	Panajachel	5	Mayo	2023-05-28T00:00:00	2024-11-08T22:00:00	2	Temperatura media	20.3
39590	7	Sololá	710	Panajachel	8	Panajachel	5	Mayo	2023-05-28T00:00:00	2024-11-08T22:00:00	4	Temperatura máxima	20.3
39591	7	Sololá	710	Panajachel	8	Panajachel	5	Mayo	2023-05-28T00:00:00	2024-11-08T22:00:00	3	Temperatura mínima	20.1
39592	7	Sololá	710	Panajachel	8	Panajachel	5	Mayo	2023-05-28T00:00:00	2024-11-08T22:00:00	5	Humedad	86
39593	7	Sololá	710	Panajachel	8	Panajachel	5	Mayo	2023-05-28T00:00:00	2024-11-08T22:00:00	6	Velocidad del viento	0
39594	7	Sololá	710	Panajachel	8	Panajachel	5	Mayo	2023-05-28T00:00:00	2024-11-08T22:00:00	7	Dirección del viento	0
39595	7	Sololá	710	Panajachel	8	Panajachel	5	Mayo	2023-05-28T00:00:00	2024-11-08T22:00:00	1	Precipitación	0
39596	7	Sololá	710	Panajachel	8	Panajachel	5	Mayo	2023-05-28T00:00:00	2024-11-08T22:00:00	8	Radiación solar	0
39597	7	Sololá	710	Panajachel	8	Panajachel	5	Mayo	2023-05-28T00:00:00	2024-11-08T23:00:00	2	Temperatura media	18.8
39598	7	Sololá	710	Panajachel	8	Panajachel	5	Mayo	2023-05-28T00:00:00	2024-11-08T23:00:00	4	Temperatura máxima	20.4
39599	7	Sololá	710	Panajachel	8	Panajachel	5	Mayo	2023-05-28T00:00:00	2024-11-08T23:00:00	3	Temperatura mínima	18.8
39600	7	Sololá	710	Panajachel	8	Panajachel	5	Mayo	2023-05-28T00:00:00	2024-11-08T23:00:00	5	Humedad	95
39601	7	Sololá	710	Panajachel	8	Panajachel	5	Mayo	2023-05-28T00:00:00	2024-11-08T23:00:00	6	Velocidad del viento	1.6
39602	7	Sololá	710	Panajachel	8	Panajachel	5	Mayo	2023-05-28T00:00:00	2024-11-08T23:00:00	7	Dirección del viento	1.61
39603	7	Sololá	710	Panajachel	8	Panajachel	5	Mayo	2023-05-28T00:00:00	2024-11-08T23:00:00	1	Precipitación	7.2
39604	7	Sololá	710	Panajachel	8	Panajachel	5	Mayo	2023-05-28T00:00:00	2024-11-08T23:00:00	8	Radiación solar	0
39605	7	Sololá	710	Panajachel	8	Panajachel	5	Mayo	2023-05-29T00:00:00	2024-11-08T00:00:00	2	Temperatura media	18.6
39606	7	Sololá	710	Panajachel	8	Panajachel	5	Mayo	2023-05-29T00:00:00	2024-11-08T00:00:00	4	Temperatura máxima	18.8
39607	7	Sololá	710	Panajachel	8	Panajachel	5	Mayo	2023-05-29T00:00:00	2024-11-08T00:00:00	3	Temperatura mínima	18.3
39608	7	Sololá	710	Panajachel	8	Panajachel	5	Mayo	2023-05-29T00:00:00	2024-11-08T00:00:00	5	Humedad	97
39609	7	Sololá	710	Panajachel	8	Panajachel	5	Mayo	2023-05-29T00:00:00	2024-11-08T00:00:00	6	Velocidad del viento	0
39610	7	Sololá	710	Panajachel	8	Panajachel	5	Mayo	2023-05-29T00:00:00	2024-11-08T00:00:00	7	Dirección del viento	0
39611	7	Sololá	710	Panajachel	8	Panajachel	5	Mayo	2023-05-29T00:00:00	2024-11-08T00:00:00	1	Precipitación	3.4
39612	7	Sololá	710	Panajachel	8	Panajachel	5	Mayo	2023-05-29T00:00:00	2024-11-08T00:00:00	8	Radiación solar	0
39613	7	Sololá	710	Panajachel	8	Panajachel	5	Mayo	2023-05-29T00:00:00	2024-11-08T01:00:00	2	Temperatura media	17.6
39614	7	Sololá	710	Panajachel	8	Panajachel	5	Mayo	2023-05-29T00:00:00	2024-11-08T01:00:00	4	Temperatura máxima	18.7
39615	7	Sololá	710	Panajachel	8	Panajachel	5	Mayo	2023-05-29T00:00:00	2024-11-08T01:00:00	3	Temperatura mínima	17.6
39616	7	Sololá	710	Panajachel	8	Panajachel	5	Mayo	2023-05-29T00:00:00	2024-11-08T01:00:00	5	Humedad	95
39617	7	Sololá	710	Panajachel	8	Panajachel	5	Mayo	2023-05-29T00:00:00	2024-11-08T01:00:00	6	Velocidad del viento	0
39618	7	Sololá	710	Panajachel	8	Panajachel	5	Mayo	2023-05-29T00:00:00	2024-11-08T01:00:00	7	Dirección del viento	0
39619	7	Sololá	710	Panajachel	8	Panajachel	5	Mayo	2023-05-29T00:00:00	2024-11-08T01:00:00	1	Precipitación	4.8
39620	7	Sololá	710	Panajachel	8	Panajachel	5	Mayo	2023-05-29T00:00:00	2024-11-08T01:00:00	8	Radiación solar	0
39621	7	Sololá	710	Panajachel	8	Panajachel	5	Mayo	2023-05-29T00:00:00	2024-11-08T02:00:00	2	Temperatura media	17.1
39622	7	Sololá	710	Panajachel	8	Panajachel	5	Mayo	2023-05-29T00:00:00	2024-11-08T02:00:00	4	Temperatura máxima	17.7
39623	7	Sololá	710	Panajachel	8	Panajachel	5	Mayo	2023-05-29T00:00:00	2024-11-08T02:00:00	3	Temperatura mínima	17.1
39624	7	Sololá	710	Panajachel	8	Panajachel	5	Mayo	2023-05-29T00:00:00	2024-11-08T02:00:00	5	Humedad	97
39625	7	Sololá	710	Panajachel	8	Panajachel	5	Mayo	2023-05-29T00:00:00	2024-11-08T02:00:00	6	Velocidad del viento	0
39626	7	Sololá	710	Panajachel	8	Panajachel	5	Mayo	2023-05-29T00:00:00	2024-11-08T02:00:00	7	Dirección del viento	0
39627	7	Sololá	710	Panajachel	8	Panajachel	5	Mayo	2023-05-29T00:00:00	2024-11-08T02:00:00	1	Precipitación	2
39628	7	Sololá	710	Panajachel	8	Panajachel	5	Mayo	2023-05-29T00:00:00	2024-11-08T02:00:00	8	Radiación solar	0
39629	7	Sololá	710	Panajachel	8	Panajachel	5	Mayo	2023-05-29T00:00:00	2024-11-08T03:00:00	2	Temperatura media	16.8
39630	7	Sololá	710	Panajachel	8	Panajachel	5	Mayo	2023-05-29T00:00:00	2024-11-08T03:00:00	4	Temperatura máxima	17.1
39631	7	Sololá	710	Panajachel	8	Panajachel	5	Mayo	2023-05-29T00:00:00	2024-11-08T03:00:00	3	Temperatura mínima	16.7
39632	7	Sololá	710	Panajachel	8	Panajachel	5	Mayo	2023-05-29T00:00:00	2024-11-08T03:00:00	5	Humedad	97
39633	7	Sololá	710	Panajachel	8	Panajachel	5	Mayo	2023-05-29T00:00:00	2024-11-08T03:00:00	6	Velocidad del viento	0
39634	7	Sololá	710	Panajachel	8	Panajachel	5	Mayo	2023-05-29T00:00:00	2024-11-08T03:00:00	7	Dirección del viento	0
39635	7	Sololá	710	Panajachel	8	Panajachel	5	Mayo	2023-05-29T00:00:00	2024-11-08T03:00:00	1	Precipitación	3.8
39636	7	Sololá	710	Panajachel	8	Panajachel	5	Mayo	2023-05-29T00:00:00	2024-11-08T03:00:00	8	Radiación solar	0
39637	7	Sololá	710	Panajachel	8	Panajachel	5	Mayo	2023-05-29T00:00:00	2024-11-08T04:00:00	2	Temperatura media	16.7
39638	7	Sololá	710	Panajachel	8	Panajachel	5	Mayo	2023-05-29T00:00:00	2024-11-08T04:00:00	4	Temperatura máxima	16.8
39639	7	Sololá	710	Panajachel	8	Panajachel	5	Mayo	2023-05-29T00:00:00	2024-11-08T04:00:00	3	Temperatura mínima	16.5
39640	7	Sololá	710	Panajachel	8	Panajachel	5	Mayo	2023-05-29T00:00:00	2024-11-08T04:00:00	5	Humedad	95
39641	7	Sololá	710	Panajachel	8	Panajachel	5	Mayo	2023-05-29T00:00:00	2024-11-08T04:00:00	6	Velocidad del viento	1.6
39642	7	Sololá	710	Panajachel	8	Panajachel	5	Mayo	2023-05-29T00:00:00	2024-11-08T04:00:00	7	Dirección del viento	1.61
39643	7	Sololá	710	Panajachel	8	Panajachel	5	Mayo	2023-05-29T00:00:00	2024-11-08T04:00:00	1	Precipitación	2
39644	7	Sololá	710	Panajachel	8	Panajachel	5	Mayo	2023-05-29T00:00:00	2024-11-08T04:00:00	8	Radiación solar	0
39645	7	Sololá	710	Panajachel	8	Panajachel	5	Mayo	2023-05-29T00:00:00	2024-11-08T05:00:00	2	Temperatura media	16.8
39646	7	Sololá	710	Panajachel	8	Panajachel	5	Mayo	2023-05-29T00:00:00	2024-11-08T05:00:00	4	Temperatura máxima	16.8
39647	7	Sololá	710	Panajachel	8	Panajachel	5	Mayo	2023-05-29T00:00:00	2024-11-08T05:00:00	3	Temperatura mínima	16.6
39648	7	Sololá	710	Panajachel	8	Panajachel	5	Mayo	2023-05-29T00:00:00	2024-11-08T05:00:00	5	Humedad	96
39649	7	Sololá	710	Panajachel	8	Panajachel	5	Mayo	2023-05-29T00:00:00	2024-11-08T05:00:00	6	Velocidad del viento	1.6
39650	7	Sololá	710	Panajachel	8	Panajachel	5	Mayo	2023-05-29T00:00:00	2024-11-08T05:00:00	7	Dirección del viento	1.61
39651	7	Sololá	710	Panajachel	8	Panajachel	5	Mayo	2023-05-29T00:00:00	2024-11-08T05:00:00	1	Precipitación	0.4
39652	7	Sololá	710	Panajachel	8	Panajachel	5	Mayo	2023-05-29T00:00:00	2024-11-08T05:00:00	8	Radiación solar	0
39653	7	Sololá	710	Panajachel	8	Panajachel	5	Mayo	2023-05-29T00:00:00	2024-11-08T06:00:00	2	Temperatura media	16.7
39654	7	Sololá	710	Panajachel	8	Panajachel	5	Mayo	2023-05-29T00:00:00	2024-11-08T06:00:00	4	Temperatura máxima	16.8
39655	7	Sololá	710	Panajachel	8	Panajachel	5	Mayo	2023-05-29T00:00:00	2024-11-08T06:00:00	3	Temperatura mínima	16.7
39656	7	Sololá	710	Panajachel	8	Panajachel	5	Mayo	2023-05-29T00:00:00	2024-11-08T06:00:00	5	Humedad	96
39657	7	Sololá	710	Panajachel	8	Panajachel	5	Mayo	2023-05-29T00:00:00	2024-11-08T06:00:00	6	Velocidad del viento	0
39658	7	Sololá	710	Panajachel	8	Panajachel	5	Mayo	2023-05-29T00:00:00	2024-11-08T06:00:00	7	Dirección del viento	0
39659	7	Sololá	710	Panajachel	8	Panajachel	5	Mayo	2023-05-29T00:00:00	2024-11-08T06:00:00	1	Precipitación	0
39660	7	Sololá	710	Panajachel	8	Panajachel	5	Mayo	2023-05-29T00:00:00	2024-11-08T06:00:00	8	Radiación solar	0
39661	7	Sololá	710	Panajachel	8	Panajachel	5	Mayo	2023-05-29T00:00:00	2024-11-08T07:00:00	2	Temperatura media	17.2
39662	7	Sololá	710	Panajachel	8	Panajachel	5	Mayo	2023-05-29T00:00:00	2024-11-08T07:00:00	4	Temperatura máxima	17.2
39663	7	Sololá	710	Panajachel	8	Panajachel	5	Mayo	2023-05-29T00:00:00	2024-11-08T07:00:00	3	Temperatura mínima	16.8
39664	7	Sololá	710	Panajachel	8	Panajachel	5	Mayo	2023-05-29T00:00:00	2024-11-08T07:00:00	5	Humedad	97
39665	7	Sololá	710	Panajachel	8	Panajachel	5	Mayo	2023-05-29T00:00:00	2024-11-08T07:00:00	6	Velocidad del viento	0
39666	7	Sololá	710	Panajachel	8	Panajachel	5	Mayo	2023-05-29T00:00:00	2024-11-08T07:00:00	7	Dirección del viento	0
39667	7	Sololá	710	Panajachel	8	Panajachel	5	Mayo	2023-05-29T00:00:00	2024-11-08T07:00:00	1	Precipitación	0
39668	7	Sololá	710	Panajachel	8	Panajachel	5	Mayo	2023-05-29T00:00:00	2024-11-08T07:00:00	8	Radiación solar	18
39669	7	Sololá	710	Panajachel	8	Panajachel	5	Mayo	2023-05-29T00:00:00	2024-11-08T08:00:00	2	Temperatura media	17.4
39670	7	Sololá	710	Panajachel	8	Panajachel	5	Mayo	2023-05-29T00:00:00	2024-11-08T08:00:00	4	Temperatura máxima	17.5
39671	7	Sololá	710	Panajachel	8	Panajachel	5	Mayo	2023-05-29T00:00:00	2024-11-08T08:00:00	3	Temperatura mínima	17.1
39672	7	Sololá	710	Panajachel	8	Panajachel	5	Mayo	2023-05-29T00:00:00	2024-11-08T08:00:00	5	Humedad	96
39673	7	Sololá	710	Panajachel	8	Panajachel	5	Mayo	2023-05-29T00:00:00	2024-11-08T08:00:00	6	Velocidad del viento	0
39674	7	Sololá	710	Panajachel	8	Panajachel	5	Mayo	2023-05-29T00:00:00	2024-11-08T08:00:00	7	Dirección del viento	0
39675	7	Sololá	710	Panajachel	8	Panajachel	5	Mayo	2023-05-29T00:00:00	2024-11-08T08:00:00	1	Precipitación	0
39676	7	Sololá	710	Panajachel	8	Panajachel	5	Mayo	2023-05-29T00:00:00	2024-11-08T08:00:00	8	Radiación solar	33
39677	7	Sololá	710	Panajachel	8	Panajachel	5	Mayo	2023-05-29T00:00:00	2024-11-08T09:00:00	2	Temperatura media	17.7
39678	7	Sololá	710	Panajachel	8	Panajachel	5	Mayo	2023-05-29T00:00:00	2024-11-08T09:00:00	4	Temperatura máxima	17.7
39679	7	Sololá	710	Panajachel	8	Panajachel	5	Mayo	2023-05-29T00:00:00	2024-11-08T09:00:00	3	Temperatura mínima	17.3
39680	7	Sololá	710	Panajachel	8	Panajachel	5	Mayo	2023-05-29T00:00:00	2024-11-08T09:00:00	5	Humedad	95
39681	7	Sololá	710	Panajachel	8	Panajachel	5	Mayo	2023-05-29T00:00:00	2024-11-08T09:00:00	6	Velocidad del viento	0
39682	7	Sololá	710	Panajachel	8	Panajachel	5	Mayo	2023-05-29T00:00:00	2024-11-08T09:00:00	7	Dirección del viento	0
39683	7	Sololá	710	Panajachel	8	Panajachel	5	Mayo	2023-05-29T00:00:00	2024-11-08T09:00:00	1	Precipitación	0.2
39684	7	Sololá	710	Panajachel	8	Panajachel	5	Mayo	2023-05-29T00:00:00	2024-11-08T09:00:00	8	Radiación solar	56
39685	7	Sololá	710	Panajachel	8	Panajachel	5	Mayo	2023-05-29T00:00:00	2024-11-08T10:00:00	2	Temperatura media	19.9
39686	7	Sololá	710	Panajachel	8	Panajachel	5	Mayo	2023-05-29T00:00:00	2024-11-08T10:00:00	4	Temperatura máxima	19.9
39687	7	Sololá	710	Panajachel	8	Panajachel	5	Mayo	2023-05-29T00:00:00	2024-11-08T10:00:00	3	Temperatura mínima	17.7
39688	7	Sololá	710	Panajachel	8	Panajachel	5	Mayo	2023-05-29T00:00:00	2024-11-08T10:00:00	5	Humedad	88
39689	7	Sololá	710	Panajachel	8	Panajachel	5	Mayo	2023-05-29T00:00:00	2024-11-08T10:00:00	6	Velocidad del viento	0
39690	7	Sololá	710	Panajachel	8	Panajachel	5	Mayo	2023-05-29T00:00:00	2024-11-08T10:00:00	7	Dirección del viento	0
39691	7	Sololá	710	Panajachel	8	Panajachel	5	Mayo	2023-05-29T00:00:00	2024-11-08T10:00:00	1	Precipitación	0
39692	7	Sololá	710	Panajachel	8	Panajachel	5	Mayo	2023-05-29T00:00:00	2024-11-08T10:00:00	8	Radiación solar	223
39693	7	Sololá	710	Panajachel	8	Panajachel	5	Mayo	2023-05-29T00:00:00	2024-11-08T11:00:00	2	Temperatura media	20.7
39694	7	Sololá	710	Panajachel	8	Panajachel	5	Mayo	2023-05-29T00:00:00	2024-11-08T11:00:00	4	Temperatura máxima	20.7
39695	7	Sololá	710	Panajachel	8	Panajachel	5	Mayo	2023-05-29T00:00:00	2024-11-08T11:00:00	3	Temperatura mínima	19.9
39696	7	Sololá	710	Panajachel	8	Panajachel	5	Mayo	2023-05-29T00:00:00	2024-11-08T11:00:00	5	Humedad	85
39697	7	Sololá	710	Panajachel	8	Panajachel	5	Mayo	2023-05-29T00:00:00	2024-11-08T11:00:00	6	Velocidad del viento	6.4
39698	7	Sololá	710	Panajachel	8	Panajachel	5	Mayo	2023-05-29T00:00:00	2024-11-08T11:00:00	7	Dirección del viento	6.44
39699	7	Sololá	710	Panajachel	8	Panajachel	5	Mayo	2023-05-29T00:00:00	2024-11-08T11:00:00	1	Precipitación	0
39700	7	Sololá	710	Panajachel	8	Panajachel	5	Mayo	2023-05-29T00:00:00	2024-11-08T11:00:00	8	Radiación solar	661
39701	7	Sololá	710	Panajachel	8	Panajachel	5	Mayo	2023-05-29T00:00:00	2024-11-08T12:00:00	2	Temperatura media	21.6
39702	7	Sololá	710	Panajachel	8	Panajachel	5	Mayo	2023-05-29T00:00:00	2024-11-08T12:00:00	4	Temperatura máxima	21.9
39703	7	Sololá	710	Panajachel	8	Panajachel	5	Mayo	2023-05-29T00:00:00	2024-11-08T12:00:00	3	Temperatura mínima	20.7
39704	7	Sololá	710	Panajachel	8	Panajachel	5	Mayo	2023-05-29T00:00:00	2024-11-08T12:00:00	5	Humedad	84
39705	7	Sololá	710	Panajachel	8	Panajachel	5	Mayo	2023-05-29T00:00:00	2024-11-08T12:00:00	6	Velocidad del viento	3.2
39706	7	Sololá	710	Panajachel	8	Panajachel	5	Mayo	2023-05-29T00:00:00	2024-11-08T12:00:00	7	Dirección del viento	3.22
39707	7	Sololá	710	Panajachel	8	Panajachel	5	Mayo	2023-05-29T00:00:00	2024-11-08T12:00:00	1	Precipitación	0
39708	7	Sololá	710	Panajachel	8	Panajachel	5	Mayo	2023-05-29T00:00:00	2024-11-08T12:00:00	8	Radiación solar	738
39709	7	Sololá	710	Panajachel	8	Panajachel	5	Mayo	2023-05-29T00:00:00	2024-11-08T13:00:00	2	Temperatura media	22.8
39710	7	Sololá	710	Panajachel	8	Panajachel	5	Mayo	2023-05-29T00:00:00	2024-11-08T13:00:00	4	Temperatura máxima	23.2
39711	7	Sololá	710	Panajachel	8	Panajachel	5	Mayo	2023-05-29T00:00:00	2024-11-08T13:00:00	3	Temperatura mínima	21.4
39712	7	Sololá	710	Panajachel	8	Panajachel	5	Mayo	2023-05-29T00:00:00	2024-11-08T13:00:00	5	Humedad	75
39713	7	Sololá	710	Panajachel	8	Panajachel	5	Mayo	2023-05-29T00:00:00	2024-11-08T13:00:00	6	Velocidad del viento	3.2
39714	7	Sololá	710	Panajachel	8	Panajachel	5	Mayo	2023-05-29T00:00:00	2024-11-08T13:00:00	7	Dirección del viento	3.22
39715	7	Sololá	710	Panajachel	8	Panajachel	5	Mayo	2023-05-29T00:00:00	2024-11-08T13:00:00	1	Precipitación	0
39716	7	Sololá	710	Panajachel	8	Panajachel	5	Mayo	2023-05-29T00:00:00	2024-11-08T13:00:00	8	Radiación solar	729
39717	7	Sololá	710	Panajachel	8	Panajachel	5	Mayo	2023-05-29T00:00:00	2024-11-08T14:00:00	2	Temperatura media	23.4
39718	7	Sololá	710	Panajachel	8	Panajachel	5	Mayo	2023-05-29T00:00:00	2024-11-08T14:00:00	4	Temperatura máxima	24.4
39719	7	Sololá	710	Panajachel	8	Panajachel	5	Mayo	2023-05-29T00:00:00	2024-11-08T14:00:00	3	Temperatura mínima	22.7
39720	7	Sololá	710	Panajachel	8	Panajachel	5	Mayo	2023-05-29T00:00:00	2024-11-08T14:00:00	5	Humedad	75
39721	7	Sololá	710	Panajachel	8	Panajachel	5	Mayo	2023-05-29T00:00:00	2024-11-08T14:00:00	6	Velocidad del viento	3.2
39722	7	Sololá	710	Panajachel	8	Panajachel	5	Mayo	2023-05-29T00:00:00	2024-11-08T14:00:00	7	Dirección del viento	3.22
39723	7	Sololá	710	Panajachel	8	Panajachel	5	Mayo	2023-05-29T00:00:00	2024-11-08T14:00:00	1	Precipitación	0
39724	7	Sololá	710	Panajachel	8	Panajachel	5	Mayo	2023-05-29T00:00:00	2024-11-08T14:00:00	8	Radiación solar	721
39725	7	Sololá	710	Panajachel	8	Panajachel	5	Mayo	2023-05-29T00:00:00	2024-11-08T15:00:00	2	Temperatura media	24.7
39726	7	Sololá	710	Panajachel	8	Panajachel	5	Mayo	2023-05-29T00:00:00	2024-11-08T15:00:00	4	Temperatura máxima	24.8
39727	7	Sololá	710	Panajachel	8	Panajachel	5	Mayo	2023-05-29T00:00:00	2024-11-08T15:00:00	3	Temperatura mínima	23.3
39728	7	Sololá	710	Panajachel	8	Panajachel	5	Mayo	2023-05-29T00:00:00	2024-11-08T15:00:00	5	Humedad	74
39729	7	Sololá	710	Panajachel	8	Panajachel	5	Mayo	2023-05-29T00:00:00	2024-11-08T15:00:00	6	Velocidad del viento	1.6
39730	7	Sololá	710	Panajachel	8	Panajachel	5	Mayo	2023-05-29T00:00:00	2024-11-08T15:00:00	7	Dirección del viento	1.61
39731	7	Sololá	710	Panajachel	8	Panajachel	5	Mayo	2023-05-29T00:00:00	2024-11-08T15:00:00	1	Precipitación	0
39732	7	Sololá	710	Panajachel	8	Panajachel	5	Mayo	2023-05-29T00:00:00	2024-11-08T15:00:00	8	Radiación solar	515
39733	7	Sololá	710	Panajachel	8	Panajachel	5	Mayo	2023-05-29T00:00:00	2024-11-08T16:00:00	2	Temperatura media	22.6
39734	7	Sololá	710	Panajachel	8	Panajachel	5	Mayo	2023-05-29T00:00:00	2024-11-08T16:00:00	4	Temperatura máxima	24.7
39735	7	Sololá	710	Panajachel	8	Panajachel	5	Mayo	2023-05-29T00:00:00	2024-11-08T16:00:00	3	Temperatura mínima	22.6
39736	7	Sololá	710	Panajachel	8	Panajachel	5	Mayo	2023-05-29T00:00:00	2024-11-08T16:00:00	5	Humedad	83
39737	7	Sololá	710	Panajachel	8	Panajachel	5	Mayo	2023-05-29T00:00:00	2024-11-08T16:00:00	6	Velocidad del viento	4.8
39738	7	Sololá	710	Panajachel	8	Panajachel	5	Mayo	2023-05-29T00:00:00	2024-11-08T16:00:00	7	Dirección del viento	4.83
39739	7	Sololá	710	Panajachel	8	Panajachel	5	Mayo	2023-05-29T00:00:00	2024-11-08T16:00:00	1	Precipitación	0
39740	7	Sololá	710	Panajachel	8	Panajachel	5	Mayo	2023-05-29T00:00:00	2024-11-08T16:00:00	8	Radiación solar	235
39741	7	Sololá	710	Panajachel	8	Panajachel	5	Mayo	2023-05-29T00:00:00	2024-11-08T17:00:00	2	Temperatura media	17.1
39742	7	Sololá	710	Panajachel	8	Panajachel	5	Mayo	2023-05-29T00:00:00	2024-11-08T17:00:00	4	Temperatura máxima	22.6
39743	7	Sololá	710	Panajachel	8	Panajachel	5	Mayo	2023-05-29T00:00:00	2024-11-08T17:00:00	3	Temperatura mínima	17.1
39744	7	Sololá	710	Panajachel	8	Panajachel	5	Mayo	2023-05-29T00:00:00	2024-11-08T17:00:00	5	Humedad	90
39745	7	Sololá	710	Panajachel	8	Panajachel	5	Mayo	2023-05-29T00:00:00	2024-11-08T17:00:00	6	Velocidad del viento	6.4
39746	7	Sololá	710	Panajachel	8	Panajachel	5	Mayo	2023-05-29T00:00:00	2024-11-08T17:00:00	7	Dirección del viento	6.44
39747	7	Sololá	710	Panajachel	8	Panajachel	5	Mayo	2023-05-29T00:00:00	2024-11-08T17:00:00	1	Precipitación	12.2
39748	7	Sololá	710	Panajachel	8	Panajachel	5	Mayo	2023-05-29T00:00:00	2024-11-08T17:00:00	8	Radiación solar	22
39749	7	Sololá	710	Panajachel	8	Panajachel	5	Mayo	2023-05-29T00:00:00	2024-11-08T18:00:00	2	Temperatura media	17.5
39750	7	Sololá	710	Panajachel	8	Panajachel	5	Mayo	2023-05-29T00:00:00	2024-11-08T18:00:00	4	Temperatura máxima	17.7
39751	7	Sololá	710	Panajachel	8	Panajachel	5	Mayo	2023-05-29T00:00:00	2024-11-08T18:00:00	3	Temperatura mínima	16.9
39752	7	Sololá	710	Panajachel	8	Panajachel	5	Mayo	2023-05-29T00:00:00	2024-11-08T18:00:00	5	Humedad	90
39753	7	Sololá	710	Panajachel	8	Panajachel	5	Mayo	2023-05-29T00:00:00	2024-11-08T18:00:00	6	Velocidad del viento	8
39754	7	Sololá	710	Panajachel	8	Panajachel	5	Mayo	2023-05-29T00:00:00	2024-11-08T18:00:00	7	Dirección del viento	8.05
39755	7	Sololá	710	Panajachel	8	Panajachel	5	Mayo	2023-05-29T00:00:00	2024-11-08T18:00:00	1	Precipitación	2
39756	7	Sololá	710	Panajachel	8	Panajachel	5	Mayo	2023-05-29T00:00:00	2024-11-08T18:00:00	8	Radiación solar	29
39757	7	Sololá	710	Panajachel	8	Panajachel	5	Mayo	2023-05-29T00:00:00	2024-11-08T19:00:00	2	Temperatura media	17.2
39758	7	Sololá	710	Panajachel	8	Panajachel	5	Mayo	2023-05-29T00:00:00	2024-11-08T19:00:00	4	Temperatura máxima	17.5
39759	7	Sololá	710	Panajachel	8	Panajachel	5	Mayo	2023-05-29T00:00:00	2024-11-08T19:00:00	3	Temperatura mínima	17.1
39760	7	Sololá	710	Panajachel	8	Panajachel	5	Mayo	2023-05-29T00:00:00	2024-11-08T19:00:00	5	Humedad	92
39761	7	Sololá	710	Panajachel	8	Panajachel	5	Mayo	2023-05-29T00:00:00	2024-11-08T19:00:00	6	Velocidad del viento	3.2
39762	7	Sololá	710	Panajachel	8	Panajachel	5	Mayo	2023-05-29T00:00:00	2024-11-08T19:00:00	7	Dirección del viento	3.22
39763	7	Sololá	710	Panajachel	8	Panajachel	5	Mayo	2023-05-29T00:00:00	2024-11-08T19:00:00	1	Precipitación	0
39764	7	Sololá	710	Panajachel	8	Panajachel	5	Mayo	2023-05-29T00:00:00	2024-11-08T19:00:00	8	Radiación solar	0
39765	7	Sololá	710	Panajachel	8	Panajachel	5	Mayo	2023-05-29T00:00:00	2024-11-08T20:00:00	2	Temperatura media	17.2
39766	7	Sololá	710	Panajachel	8	Panajachel	5	Mayo	2023-05-29T00:00:00	2024-11-08T20:00:00	4	Temperatura máxima	17.3
39767	7	Sololá	710	Panajachel	8	Panajachel	5	Mayo	2023-05-29T00:00:00	2024-11-08T20:00:00	3	Temperatura mínima	16.9
39768	7	Sololá	710	Panajachel	8	Panajachel	5	Mayo	2023-05-29T00:00:00	2024-11-08T20:00:00	5	Humedad	89
39769	7	Sololá	710	Panajachel	8	Panajachel	5	Mayo	2023-05-29T00:00:00	2024-11-08T20:00:00	6	Velocidad del viento	1.6
39770	7	Sololá	710	Panajachel	8	Panajachel	5	Mayo	2023-05-29T00:00:00	2024-11-08T20:00:00	7	Dirección del viento	1.61
39771	7	Sololá	710	Panajachel	8	Panajachel	5	Mayo	2023-05-29T00:00:00	2024-11-08T20:00:00	1	Precipitación	0
39772	7	Sololá	710	Panajachel	8	Panajachel	5	Mayo	2023-05-29T00:00:00	2024-11-08T20:00:00	8	Radiación solar	0
39773	7	Sololá	710	Panajachel	8	Panajachel	5	Mayo	2023-05-29T00:00:00	2024-11-08T21:00:00	2	Temperatura media	16.7
39774	7	Sololá	710	Panajachel	8	Panajachel	5	Mayo	2023-05-29T00:00:00	2024-11-08T21:00:00	4	Temperatura máxima	17.3
39775	7	Sololá	710	Panajachel	8	Panajachel	5	Mayo	2023-05-29T00:00:00	2024-11-08T21:00:00	3	Temperatura mínima	16.6
39776	7	Sololá	710	Panajachel	8	Panajachel	5	Mayo	2023-05-29T00:00:00	2024-11-08T21:00:00	5	Humedad	93
39777	7	Sololá	710	Panajachel	8	Panajachel	5	Mayo	2023-05-29T00:00:00	2024-11-08T21:00:00	6	Velocidad del viento	1.6
39778	7	Sololá	710	Panajachel	8	Panajachel	5	Mayo	2023-05-29T00:00:00	2024-11-08T21:00:00	7	Dirección del viento	1.61
39779	7	Sololá	710	Panajachel	8	Panajachel	5	Mayo	2023-05-29T00:00:00	2024-11-08T21:00:00	1	Precipitación	0
39780	7	Sololá	710	Panajachel	8	Panajachel	5	Mayo	2023-05-29T00:00:00	2024-11-08T21:00:00	8	Radiación solar	0
39781	7	Sololá	710	Panajachel	8	Panajachel	5	Mayo	2023-05-29T00:00:00	2024-11-08T22:00:00	2	Temperatura media	16.8
39782	7	Sololá	710	Panajachel	8	Panajachel	5	Mayo	2023-05-29T00:00:00	2024-11-08T22:00:00	4	Temperatura máxima	16.8
39783	7	Sololá	710	Panajachel	8	Panajachel	5	Mayo	2023-05-29T00:00:00	2024-11-08T22:00:00	3	Temperatura mínima	16.6
39784	7	Sololá	710	Panajachel	8	Panajachel	5	Mayo	2023-05-29T00:00:00	2024-11-08T22:00:00	5	Humedad	91
39785	7	Sololá	710	Panajachel	8	Panajachel	5	Mayo	2023-05-29T00:00:00	2024-11-08T22:00:00	6	Velocidad del viento	3.2
39786	7	Sololá	710	Panajachel	8	Panajachel	5	Mayo	2023-05-29T00:00:00	2024-11-08T22:00:00	7	Dirección del viento	3.22
39787	7	Sololá	710	Panajachel	8	Panajachel	5	Mayo	2023-05-29T00:00:00	2024-11-08T22:00:00	1	Precipitación	0
39788	7	Sololá	710	Panajachel	8	Panajachel	5	Mayo	2023-05-29T00:00:00	2024-11-08T22:00:00	8	Radiación solar	0
39789	7	Sololá	710	Panajachel	8	Panajachel	5	Mayo	2023-05-29T00:00:00	2024-11-08T23:00:00	2	Temperatura media	16.8
39790	7	Sololá	710	Panajachel	8	Panajachel	5	Mayo	2023-05-29T00:00:00	2024-11-08T23:00:00	4	Temperatura máxima	17.1
39791	7	Sololá	710	Panajachel	8	Panajachel	5	Mayo	2023-05-29T00:00:00	2024-11-08T23:00:00	3	Temperatura mínima	16.8
39792	7	Sololá	710	Panajachel	8	Panajachel	5	Mayo	2023-05-29T00:00:00	2024-11-08T23:00:00	5	Humedad	90
39793	7	Sololá	710	Panajachel	8	Panajachel	5	Mayo	2023-05-29T00:00:00	2024-11-08T23:00:00	6	Velocidad del viento	1.6
39794	7	Sololá	710	Panajachel	8	Panajachel	5	Mayo	2023-05-29T00:00:00	2024-11-08T23:00:00	7	Dirección del viento	1.61
39795	7	Sololá	710	Panajachel	8	Panajachel	5	Mayo	2023-05-29T00:00:00	2024-11-08T23:00:00	1	Precipitación	0
39796	7	Sololá	710	Panajachel	8	Panajachel	5	Mayo	2023-05-29T00:00:00	2024-11-08T23:00:00	8	Radiación solar	0
39797	7	Sololá	710	Panajachel	8	Panajachel	5	Mayo	2023-05-30T00:00:00	2024-11-08T00:00:00	2	Temperatura media	17
39798	7	Sololá	710	Panajachel	8	Panajachel	5	Mayo	2023-05-30T00:00:00	2024-11-08T00:00:00	4	Temperatura máxima	17.1
39799	7	Sololá	710	Panajachel	8	Panajachel	5	Mayo	2023-05-30T00:00:00	2024-11-08T00:00:00	3	Temperatura mínima	16.8
39800	7	Sololá	710	Panajachel	8	Panajachel	5	Mayo	2023-05-30T00:00:00	2024-11-08T00:00:00	5	Humedad	89
39801	7	Sololá	710	Panajachel	8	Panajachel	5	Mayo	2023-05-30T00:00:00	2024-11-08T00:00:00	6	Velocidad del viento	1.6
39802	7	Sololá	710	Panajachel	8	Panajachel	5	Mayo	2023-05-30T00:00:00	2024-11-08T00:00:00	7	Dirección del viento	1.61
39803	7	Sololá	710	Panajachel	8	Panajachel	5	Mayo	2023-05-30T00:00:00	2024-11-08T00:00:00	1	Precipitación	0
39804	7	Sololá	710	Panajachel	8	Panajachel	5	Mayo	2023-05-30T00:00:00	2024-11-08T00:00:00	8	Radiación solar	0
39805	7	Sololá	710	Panajachel	8	Panajachel	5	Mayo	2023-05-30T00:00:00	2024-11-08T01:00:00	2	Temperatura media	17.8
39806	7	Sololá	710	Panajachel	8	Panajachel	5	Mayo	2023-05-30T00:00:00	2024-11-08T01:00:00	4	Temperatura máxima	17.8
39807	7	Sololá	710	Panajachel	8	Panajachel	5	Mayo	2023-05-30T00:00:00	2024-11-08T01:00:00	3	Temperatura mínima	17
39808	7	Sololá	710	Panajachel	8	Panajachel	5	Mayo	2023-05-30T00:00:00	2024-11-08T01:00:00	5	Humedad	86
39809	7	Sololá	710	Panajachel	8	Panajachel	5	Mayo	2023-05-30T00:00:00	2024-11-08T01:00:00	6	Velocidad del viento	3.2
39810	7	Sololá	710	Panajachel	8	Panajachel	5	Mayo	2023-05-30T00:00:00	2024-11-08T01:00:00	7	Dirección del viento	3.22
39811	7	Sololá	710	Panajachel	8	Panajachel	5	Mayo	2023-05-30T00:00:00	2024-11-08T01:00:00	1	Precipitación	0
39812	7	Sololá	710	Panajachel	8	Panajachel	5	Mayo	2023-05-30T00:00:00	2024-11-08T01:00:00	8	Radiación solar	0
39813	7	Sololá	710	Panajachel	8	Panajachel	5	Mayo	2023-05-30T00:00:00	2024-11-08T02:00:00	2	Temperatura media	17.2
39814	7	Sololá	710	Panajachel	8	Panajachel	5	Mayo	2023-05-30T00:00:00	2024-11-08T02:00:00	4	Temperatura máxima	18.1
39815	7	Sololá	710	Panajachel	8	Panajachel	5	Mayo	2023-05-30T00:00:00	2024-11-08T02:00:00	3	Temperatura mínima	17.2
39816	7	Sololá	710	Panajachel	8	Panajachel	5	Mayo	2023-05-30T00:00:00	2024-11-08T02:00:00	5	Humedad	89
39817	7	Sololá	710	Panajachel	8	Panajachel	5	Mayo	2023-05-30T00:00:00	2024-11-08T02:00:00	6	Velocidad del viento	0
39818	7	Sololá	710	Panajachel	8	Panajachel	5	Mayo	2023-05-30T00:00:00	2024-11-08T02:00:00	7	Dirección del viento	0
39819	7	Sololá	710	Panajachel	8	Panajachel	5	Mayo	2023-05-30T00:00:00	2024-11-08T02:00:00	1	Precipitación	0
39820	7	Sololá	710	Panajachel	8	Panajachel	5	Mayo	2023-05-30T00:00:00	2024-11-08T02:00:00	8	Radiación solar	0
39821	7	Sololá	710	Panajachel	8	Panajachel	5	Mayo	2023-05-30T00:00:00	2024-11-08T03:00:00	2	Temperatura media	17.3
39822	7	Sololá	710	Panajachel	8	Panajachel	5	Mayo	2023-05-30T00:00:00	2024-11-08T03:00:00	4	Temperatura máxima	17.3
39823	7	Sololá	710	Panajachel	8	Panajachel	5	Mayo	2023-05-30T00:00:00	2024-11-08T03:00:00	3	Temperatura mínima	17.1
39824	7	Sololá	710	Panajachel	8	Panajachel	5	Mayo	2023-05-30T00:00:00	2024-11-08T03:00:00	5	Humedad	89
39825	7	Sololá	710	Panajachel	8	Panajachel	5	Mayo	2023-05-30T00:00:00	2024-11-08T03:00:00	6	Velocidad del viento	1.6
39826	7	Sololá	710	Panajachel	8	Panajachel	5	Mayo	2023-05-30T00:00:00	2024-11-08T03:00:00	7	Dirección del viento	1.61
39827	7	Sololá	710	Panajachel	8	Panajachel	5	Mayo	2023-05-30T00:00:00	2024-11-08T03:00:00	1	Precipitación	0
39828	7	Sololá	710	Panajachel	8	Panajachel	5	Mayo	2023-05-30T00:00:00	2024-11-08T03:00:00	8	Radiación solar	0
39829	7	Sololá	710	Panajachel	8	Panajachel	5	Mayo	2023-05-30T00:00:00	2024-11-08T04:00:00	2	Temperatura media	17.1
39830	7	Sololá	710	Panajachel	8	Panajachel	5	Mayo	2023-05-30T00:00:00	2024-11-08T04:00:00	4	Temperatura máxima	17.6
39831	7	Sololá	710	Panajachel	8	Panajachel	5	Mayo	2023-05-30T00:00:00	2024-11-08T04:00:00	3	Temperatura mínima	17
39832	7	Sololá	710	Panajachel	8	Panajachel	5	Mayo	2023-05-30T00:00:00	2024-11-08T04:00:00	5	Humedad	88
39833	7	Sololá	710	Panajachel	8	Panajachel	5	Mayo	2023-05-30T00:00:00	2024-11-08T04:00:00	6	Velocidad del viento	1.6
39834	7	Sololá	710	Panajachel	8	Panajachel	5	Mayo	2023-05-30T00:00:00	2024-11-08T04:00:00	7	Dirección del viento	1.61
39835	7	Sololá	710	Panajachel	8	Panajachel	5	Mayo	2023-05-30T00:00:00	2024-11-08T04:00:00	1	Precipitación	0
39836	7	Sololá	710	Panajachel	8	Panajachel	5	Mayo	2023-05-30T00:00:00	2024-11-08T04:00:00	8	Radiación solar	0
39837	7	Sololá	710	Panajachel	8	Panajachel	5	Mayo	2023-05-30T00:00:00	2024-11-08T05:00:00	2	Temperatura media	16.9
39838	7	Sololá	710	Panajachel	8	Panajachel	5	Mayo	2023-05-30T00:00:00	2024-11-08T05:00:00	4	Temperatura máxima	17.1
39839	7	Sololá	710	Panajachel	8	Panajachel	5	Mayo	2023-05-30T00:00:00	2024-11-08T05:00:00	3	Temperatura mínima	16.8
39840	7	Sololá	710	Panajachel	8	Panajachel	5	Mayo	2023-05-30T00:00:00	2024-11-08T05:00:00	5	Humedad	89
39841	7	Sololá	710	Panajachel	8	Panajachel	5	Mayo	2023-05-30T00:00:00	2024-11-08T05:00:00	6	Velocidad del viento	1.6
39842	7	Sololá	710	Panajachel	8	Panajachel	5	Mayo	2023-05-30T00:00:00	2024-11-08T05:00:00	7	Dirección del viento	1.61
39843	7	Sololá	710	Panajachel	8	Panajachel	5	Mayo	2023-05-30T00:00:00	2024-11-08T05:00:00	1	Precipitación	0
39844	7	Sololá	710	Panajachel	8	Panajachel	5	Mayo	2023-05-30T00:00:00	2024-11-08T05:00:00	8	Radiación solar	0
39845	7	Sololá	710	Panajachel	8	Panajachel	5	Mayo	2023-05-30T00:00:00	2024-11-08T06:00:00	2	Temperatura media	17
39846	7	Sololá	710	Panajachel	8	Panajachel	5	Mayo	2023-05-30T00:00:00	2024-11-08T06:00:00	4	Temperatura máxima	17
39847	7	Sololá	710	Panajachel	8	Panajachel	5	Mayo	2023-05-30T00:00:00	2024-11-08T06:00:00	3	Temperatura mínima	16.7
39848	7	Sololá	710	Panajachel	8	Panajachel	5	Mayo	2023-05-30T00:00:00	2024-11-08T06:00:00	5	Humedad	86
39849	7	Sololá	710	Panajachel	8	Panajachel	5	Mayo	2023-05-30T00:00:00	2024-11-08T06:00:00	6	Velocidad del viento	3.2
39850	7	Sololá	710	Panajachel	8	Panajachel	5	Mayo	2023-05-30T00:00:00	2024-11-08T06:00:00	7	Dirección del viento	3.22
39851	7	Sololá	710	Panajachel	8	Panajachel	5	Mayo	2023-05-30T00:00:00	2024-11-08T06:00:00	1	Precipitación	0
39852	7	Sololá	710	Panajachel	8	Panajachel	5	Mayo	2023-05-30T00:00:00	2024-11-08T06:00:00	8	Radiación solar	6
39853	7	Sololá	710	Panajachel	8	Panajachel	5	Mayo	2023-05-30T00:00:00	2024-11-08T07:00:00	2	Temperatura media	18.8
39854	7	Sololá	710	Panajachel	8	Panajachel	5	Mayo	2023-05-30T00:00:00	2024-11-08T07:00:00	4	Temperatura máxima	18.9
39855	7	Sololá	710	Panajachel	8	Panajachel	5	Mayo	2023-05-30T00:00:00	2024-11-08T07:00:00	3	Temperatura mínima	16.9
39856	7	Sololá	710	Panajachel	8	Panajachel	5	Mayo	2023-05-30T00:00:00	2024-11-08T07:00:00	5	Humedad	82
39857	7	Sololá	710	Panajachel	8	Panajachel	5	Mayo	2023-05-30T00:00:00	2024-11-08T07:00:00	6	Velocidad del viento	3.2
39858	7	Sololá	710	Panajachel	8	Panajachel	5	Mayo	2023-05-30T00:00:00	2024-11-08T07:00:00	7	Dirección del viento	3.22
39859	7	Sololá	710	Panajachel	8	Panajachel	5	Mayo	2023-05-30T00:00:00	2024-11-08T07:00:00	1	Precipitación	0.2
39860	7	Sololá	710	Panajachel	8	Panajachel	5	Mayo	2023-05-30T00:00:00	2024-11-08T07:00:00	8	Radiación solar	125
39861	7	Sololá	710	Panajachel	8	Panajachel	5	Mayo	2023-05-30T00:00:00	2024-11-08T08:00:00	2	Temperatura media	21.1
39862	7	Sololá	710	Panajachel	8	Panajachel	5	Mayo	2023-05-30T00:00:00	2024-11-08T08:00:00	4	Temperatura máxima	21.3
39863	7	Sololá	710	Panajachel	8	Panajachel	5	Mayo	2023-05-30T00:00:00	2024-11-08T08:00:00	3	Temperatura mínima	18.6
39864	7	Sololá	710	Panajachel	8	Panajachel	5	Mayo	2023-05-30T00:00:00	2024-11-08T08:00:00	5	Humedad	78
39865	7	Sololá	710	Panajachel	8	Panajachel	5	Mayo	2023-05-30T00:00:00	2024-11-08T08:00:00	6	Velocidad del viento	1.6
39866	7	Sololá	710	Panajachel	8	Panajachel	5	Mayo	2023-05-30T00:00:00	2024-11-08T08:00:00	7	Dirección del viento	1.61
39867	7	Sololá	710	Panajachel	8	Panajachel	5	Mayo	2023-05-30T00:00:00	2024-11-08T08:00:00	1	Precipitación	0
39868	7	Sololá	710	Panajachel	8	Panajachel	5	Mayo	2023-05-30T00:00:00	2024-11-08T08:00:00	8	Radiación solar	268
39869	7	Sololá	710	Panajachel	8	Panajachel	5	Mayo	2023-05-30T00:00:00	2024-11-08T09:00:00	2	Temperatura media	21.8
39870	7	Sololá	710	Panajachel	8	Panajachel	5	Mayo	2023-05-30T00:00:00	2024-11-08T09:00:00	4	Temperatura máxima	22
39871	7	Sololá	710	Panajachel	8	Panajachel	5	Mayo	2023-05-30T00:00:00	2024-11-08T09:00:00	3	Temperatura mínima	20.9
39872	7	Sololá	710	Panajachel	8	Panajachel	5	Mayo	2023-05-30T00:00:00	2024-11-08T09:00:00	5	Humedad	77
39873	7	Sololá	710	Panajachel	8	Panajachel	5	Mayo	2023-05-30T00:00:00	2024-11-08T09:00:00	6	Velocidad del viento	1.6
39874	7	Sololá	710	Panajachel	8	Panajachel	5	Mayo	2023-05-30T00:00:00	2024-11-08T09:00:00	7	Dirección del viento	1.61
39875	7	Sololá	710	Panajachel	8	Panajachel	5	Mayo	2023-05-30T00:00:00	2024-11-08T09:00:00	1	Precipitación	0
39876	7	Sololá	710	Panajachel	8	Panajachel	5	Mayo	2023-05-30T00:00:00	2024-11-08T09:00:00	8	Radiación solar	471
39877	7	Sololá	710	Panajachel	8	Panajachel	5	Mayo	2023-05-30T00:00:00	2024-11-08T10:00:00	2	Temperatura media	22.1
39878	7	Sololá	710	Panajachel	8	Panajachel	5	Mayo	2023-05-30T00:00:00	2024-11-08T10:00:00	4	Temperatura máxima	22.5
39879	7	Sololá	710	Panajachel	8	Panajachel	5	Mayo	2023-05-30T00:00:00	2024-11-08T10:00:00	3	Temperatura mínima	21.8
39880	7	Sololá	710	Panajachel	8	Panajachel	5	Mayo	2023-05-30T00:00:00	2024-11-08T10:00:00	5	Humedad	76
39881	7	Sololá	710	Panajachel	8	Panajachel	5	Mayo	2023-05-30T00:00:00	2024-11-08T10:00:00	6	Velocidad del viento	3.2
39882	7	Sololá	710	Panajachel	8	Panajachel	5	Mayo	2023-05-30T00:00:00	2024-11-08T10:00:00	7	Dirección del viento	3.22
39883	7	Sololá	710	Panajachel	8	Panajachel	5	Mayo	2023-05-30T00:00:00	2024-11-08T10:00:00	1	Precipitación	0
39884	7	Sololá	710	Panajachel	8	Panajachel	5	Mayo	2023-05-30T00:00:00	2024-11-08T10:00:00	8	Radiación solar	716
39885	7	Sololá	710	Panajachel	8	Panajachel	5	Mayo	2023-05-30T00:00:00	2024-11-08T11:00:00	2	Temperatura media	22.4
39886	7	Sololá	710	Panajachel	8	Panajachel	5	Mayo	2023-05-30T00:00:00	2024-11-08T11:00:00	4	Temperatura máxima	23.2
39887	7	Sololá	710	Panajachel	8	Panajachel	5	Mayo	2023-05-30T00:00:00	2024-11-08T11:00:00	3	Temperatura mínima	22.1
39888	7	Sololá	710	Panajachel	8	Panajachel	5	Mayo	2023-05-30T00:00:00	2024-11-08T11:00:00	5	Humedad	77
39889	7	Sololá	710	Panajachel	8	Panajachel	5	Mayo	2023-05-30T00:00:00	2024-11-08T11:00:00	6	Velocidad del viento	3.2
39890	7	Sololá	710	Panajachel	8	Panajachel	5	Mayo	2023-05-30T00:00:00	2024-11-08T11:00:00	7	Dirección del viento	3.22
39891	7	Sololá	710	Panajachel	8	Panajachel	5	Mayo	2023-05-30T00:00:00	2024-11-08T11:00:00	1	Precipitación	0
39892	7	Sololá	710	Panajachel	8	Panajachel	5	Mayo	2023-05-30T00:00:00	2024-11-08T11:00:00	8	Radiación solar	827
39893	7	Sololá	710	Panajachel	8	Panajachel	5	Mayo	2023-05-30T00:00:00	2024-11-08T12:00:00	2	Temperatura media	23.6
39894	7	Sololá	710	Panajachel	8	Panajachel	5	Mayo	2023-05-30T00:00:00	2024-11-08T12:00:00	4	Temperatura máxima	23.6
39895	7	Sololá	710	Panajachel	8	Panajachel	5	Mayo	2023-05-30T00:00:00	2024-11-08T12:00:00	3	Temperatura mínima	22.3
39896	7	Sololá	710	Panajachel	8	Panajachel	5	Mayo	2023-05-30T00:00:00	2024-11-08T12:00:00	5	Humedad	75
39897	7	Sololá	710	Panajachel	8	Panajachel	5	Mayo	2023-05-30T00:00:00	2024-11-08T12:00:00	6	Velocidad del viento	3.2
39898	7	Sololá	710	Panajachel	8	Panajachel	5	Mayo	2023-05-30T00:00:00	2024-11-08T12:00:00	7	Dirección del viento	3.22
39899	7	Sololá	710	Panajachel	8	Panajachel	5	Mayo	2023-05-30T00:00:00	2024-11-08T12:00:00	1	Precipitación	0
39900	7	Sololá	710	Panajachel	8	Panajachel	5	Mayo	2023-05-30T00:00:00	2024-11-08T12:00:00	8	Radiación solar	862
39901	7	Sololá	710	Panajachel	8	Panajachel	5	Mayo	2023-05-30T00:00:00	2024-11-08T13:00:00	2	Temperatura media	22.4
39902	7	Sololá	710	Panajachel	8	Panajachel	5	Mayo	2023-05-30T00:00:00	2024-11-08T13:00:00	4	Temperatura máxima	23.9
39903	7	Sololá	710	Panajachel	8	Panajachel	5	Mayo	2023-05-30T00:00:00	2024-11-08T13:00:00	3	Temperatura mínima	22.4
39904	7	Sololá	710	Panajachel	8	Panajachel	5	Mayo	2023-05-30T00:00:00	2024-11-08T13:00:00	5	Humedad	82
39905	7	Sololá	710	Panajachel	8	Panajachel	5	Mayo	2023-05-30T00:00:00	2024-11-08T13:00:00	6	Velocidad del viento	4.8
39906	7	Sololá	710	Panajachel	8	Panajachel	5	Mayo	2023-05-30T00:00:00	2024-11-08T13:00:00	7	Dirección del viento	4.83
39907	7	Sololá	710	Panajachel	8	Panajachel	5	Mayo	2023-05-30T00:00:00	2024-11-08T13:00:00	1	Precipitación	0
39908	7	Sololá	710	Panajachel	8	Panajachel	5	Mayo	2023-05-30T00:00:00	2024-11-08T13:00:00	8	Radiación solar	373
39909	7	Sololá	710	Panajachel	8	Panajachel	5	Mayo	2023-05-30T00:00:00	2024-11-08T14:00:00	2	Temperatura media	19.7
39910	7	Sololá	710	Panajachel	8	Panajachel	5	Mayo	2023-05-30T00:00:00	2024-11-08T14:00:00	4	Temperatura máxima	22.5
39911	7	Sololá	710	Panajachel	8	Panajachel	5	Mayo	2023-05-30T00:00:00	2024-11-08T14:00:00	3	Temperatura mínima	19.7
39912	7	Sololá	710	Panajachel	8	Panajachel	5	Mayo	2023-05-30T00:00:00	2024-11-08T14:00:00	5	Humedad	92
39913	7	Sololá	710	Panajachel	8	Panajachel	5	Mayo	2023-05-30T00:00:00	2024-11-08T14:00:00	6	Velocidad del viento	8
39914	7	Sololá	710	Panajachel	8	Panajachel	5	Mayo	2023-05-30T00:00:00	2024-11-08T14:00:00	7	Dirección del viento	8.05
39915	7	Sololá	710	Panajachel	8	Panajachel	5	Mayo	2023-05-30T00:00:00	2024-11-08T14:00:00	1	Precipitación	0.6
39916	7	Sololá	710	Panajachel	8	Panajachel	5	Mayo	2023-05-30T00:00:00	2024-11-08T14:00:00	8	Radiación solar	75
39917	7	Sololá	710	Panajachel	8	Panajachel	5	Mayo	2023-05-30T00:00:00	2024-11-08T15:00:00	2	Temperatura media	18.9
39918	7	Sololá	710	Panajachel	8	Panajachel	5	Mayo	2023-05-30T00:00:00	2024-11-08T15:00:00	4	Temperatura máxima	19.7
39919	7	Sololá	710	Panajachel	8	Panajachel	5	Mayo	2023-05-30T00:00:00	2024-11-08T15:00:00	3	Temperatura mínima	18.7
39920	7	Sololá	710	Panajachel	8	Panajachel	5	Mayo	2023-05-30T00:00:00	2024-11-08T15:00:00	5	Humedad	93
39921	7	Sololá	710	Panajachel	8	Panajachel	5	Mayo	2023-05-30T00:00:00	2024-11-08T15:00:00	6	Velocidad del viento	1.6
39922	7	Sololá	710	Panajachel	8	Panajachel	5	Mayo	2023-05-30T00:00:00	2024-11-08T15:00:00	7	Dirección del viento	1.61
39923	7	Sololá	710	Panajachel	8	Panajachel	5	Mayo	2023-05-30T00:00:00	2024-11-08T15:00:00	1	Precipitación	0
39924	7	Sololá	710	Panajachel	8	Panajachel	5	Mayo	2023-05-30T00:00:00	2024-11-08T15:00:00	8	Radiación solar	51
39925	7	Sololá	710	Panajachel	8	Panajachel	5	Mayo	2023-05-30T00:00:00	2024-11-08T16:00:00	2	Temperatura media	19.6
39926	7	Sololá	710	Panajachel	8	Panajachel	5	Mayo	2023-05-30T00:00:00	2024-11-08T16:00:00	4	Temperatura máxima	19.9
39927	7	Sololá	710	Panajachel	8	Panajachel	5	Mayo	2023-05-30T00:00:00	2024-11-08T16:00:00	3	Temperatura mínima	18.9
39928	7	Sololá	710	Panajachel	8	Panajachel	5	Mayo	2023-05-30T00:00:00	2024-11-08T16:00:00	5	Humedad	90
39929	7	Sololá	710	Panajachel	8	Panajachel	5	Mayo	2023-05-30T00:00:00	2024-11-08T16:00:00	6	Velocidad del viento	1.6
39930	7	Sololá	710	Panajachel	8	Panajachel	5	Mayo	2023-05-30T00:00:00	2024-11-08T16:00:00	7	Dirección del viento	1.61
39931	7	Sololá	710	Panajachel	8	Panajachel	5	Mayo	2023-05-30T00:00:00	2024-11-08T16:00:00	1	Precipitación	0
39932	7	Sololá	710	Panajachel	8	Panajachel	5	Mayo	2023-05-30T00:00:00	2024-11-08T16:00:00	8	Radiación solar	146
39933	7	Sololá	710	Panajachel	8	Panajachel	5	Mayo	2023-05-30T00:00:00	2024-11-08T17:00:00	2	Temperatura media	19.3
39934	7	Sololá	710	Panajachel	8	Panajachel	5	Mayo	2023-05-30T00:00:00	2024-11-08T17:00:00	4	Temperatura máxima	19.6
39935	7	Sololá	710	Panajachel	8	Panajachel	5	Mayo	2023-05-30T00:00:00	2024-11-08T17:00:00	3	Temperatura mínima	19.3
39936	7	Sololá	710	Panajachel	8	Panajachel	5	Mayo	2023-05-30T00:00:00	2024-11-08T17:00:00	5	Humedad	90
39937	7	Sololá	710	Panajachel	8	Panajachel	5	Mayo	2023-05-30T00:00:00	2024-11-08T17:00:00	6	Velocidad del viento	1.6
39938	7	Sololá	710	Panajachel	8	Panajachel	5	Mayo	2023-05-30T00:00:00	2024-11-08T17:00:00	7	Dirección del viento	1.61
39939	7	Sololá	710	Panajachel	8	Panajachel	5	Mayo	2023-05-30T00:00:00	2024-11-08T17:00:00	1	Precipitación	0
39940	7	Sololá	710	Panajachel	8	Panajachel	5	Mayo	2023-05-30T00:00:00	2024-11-08T17:00:00	8	Radiación solar	36
39941	7	Sololá	710	Panajachel	8	Panajachel	5	Mayo	2023-05-30T00:00:00	2024-11-08T18:00:00	2	Temperatura media	18.3
39942	7	Sololá	710	Panajachel	8	Panajachel	5	Mayo	2023-05-30T00:00:00	2024-11-08T18:00:00	4	Temperatura máxima	19.3
39943	7	Sololá	710	Panajachel	8	Panajachel	5	Mayo	2023-05-30T00:00:00	2024-11-08T18:00:00	3	Temperatura mínima	18.3
39944	7	Sololá	710	Panajachel	8	Panajachel	5	Mayo	2023-05-30T00:00:00	2024-11-08T18:00:00	5	Humedad	92
39945	7	Sololá	710	Panajachel	8	Panajachel	5	Mayo	2023-05-30T00:00:00	2024-11-08T18:00:00	6	Velocidad del viento	1.6
39946	7	Sololá	710	Panajachel	8	Panajachel	5	Mayo	2023-05-30T00:00:00	2024-11-08T18:00:00	7	Dirección del viento	1.61
39947	7	Sololá	710	Panajachel	8	Panajachel	5	Mayo	2023-05-30T00:00:00	2024-11-08T18:00:00	1	Precipitación	1.4
39948	7	Sololá	710	Panajachel	8	Panajachel	5	Mayo	2023-05-30T00:00:00	2024-11-08T18:00:00	8	Radiación solar	7
39949	7	Sololá	710	Panajachel	8	Panajachel	5	Mayo	2023-05-30T00:00:00	2024-11-08T19:00:00	2	Temperatura media	17.4
39950	7	Sololá	710	Panajachel	8	Panajachel	5	Mayo	2023-05-30T00:00:00	2024-11-08T19:00:00	4	Temperatura máxima	18.3
39951	7	Sololá	710	Panajachel	8	Panajachel	5	Mayo	2023-05-30T00:00:00	2024-11-08T19:00:00	3	Temperatura mínima	17.3
39952	7	Sololá	710	Panajachel	8	Panajachel	5	Mayo	2023-05-30T00:00:00	2024-11-08T19:00:00	5	Humedad	92
39953	7	Sololá	710	Panajachel	8	Panajachel	5	Mayo	2023-05-30T00:00:00	2024-11-08T19:00:00	6	Velocidad del viento	1.6
39954	7	Sololá	710	Panajachel	8	Panajachel	5	Mayo	2023-05-30T00:00:00	2024-11-08T19:00:00	7	Dirección del viento	1.61
39955	7	Sololá	710	Panajachel	8	Panajachel	5	Mayo	2023-05-30T00:00:00	2024-11-08T19:00:00	1	Precipitación	0.2
39956	7	Sololá	710	Panajachel	8	Panajachel	5	Mayo	2023-05-30T00:00:00	2024-11-08T19:00:00	8	Radiación solar	0
39957	7	Sololá	710	Panajachel	8	Panajachel	5	Mayo	2023-05-30T00:00:00	2024-11-08T20:00:00	2	Temperatura media	17.8
39958	7	Sololá	710	Panajachel	8	Panajachel	5	Mayo	2023-05-30T00:00:00	2024-11-08T20:00:00	4	Temperatura máxima	17.8
39959	7	Sololá	710	Panajachel	8	Panajachel	5	Mayo	2023-05-30T00:00:00	2024-11-08T20:00:00	3	Temperatura mínima	17.2
39960	7	Sololá	710	Panajachel	8	Panajachel	5	Mayo	2023-05-30T00:00:00	2024-11-08T20:00:00	5	Humedad	85
39961	7	Sololá	710	Panajachel	8	Panajachel	5	Mayo	2023-05-30T00:00:00	2024-11-08T20:00:00	6	Velocidad del viento	1.6
39962	7	Sololá	710	Panajachel	8	Panajachel	5	Mayo	2023-05-30T00:00:00	2024-11-08T20:00:00	7	Dirección del viento	1.61
39963	7	Sololá	710	Panajachel	8	Panajachel	5	Mayo	2023-05-30T00:00:00	2024-11-08T20:00:00	1	Precipitación	0
39964	7	Sololá	710	Panajachel	8	Panajachel	5	Mayo	2023-05-30T00:00:00	2024-11-08T20:00:00	8	Radiación solar	0
39965	7	Sololá	710	Panajachel	8	Panajachel	5	Mayo	2023-05-30T00:00:00	2024-11-08T21:00:00	2	Temperatura media	17
39966	7	Sololá	710	Panajachel	8	Panajachel	5	Mayo	2023-05-30T00:00:00	2024-11-08T21:00:00	4	Temperatura máxima	17.9
39967	7	Sololá	710	Panajachel	8	Panajachel	5	Mayo	2023-05-30T00:00:00	2024-11-08T21:00:00	3	Temperatura mínima	17
39968	7	Sololá	710	Panajachel	8	Panajachel	5	Mayo	2023-05-30T00:00:00	2024-11-08T21:00:00	5	Humedad	91
39969	7	Sololá	710	Panajachel	8	Panajachel	5	Mayo	2023-05-30T00:00:00	2024-11-08T21:00:00	6	Velocidad del viento	1.6
39970	7	Sololá	710	Panajachel	8	Panajachel	5	Mayo	2023-05-30T00:00:00	2024-11-08T21:00:00	7	Dirección del viento	1.61
39971	7	Sololá	710	Panajachel	8	Panajachel	5	Mayo	2023-05-30T00:00:00	2024-11-08T21:00:00	1	Precipitación	0
39972	7	Sololá	710	Panajachel	8	Panajachel	5	Mayo	2023-05-30T00:00:00	2024-11-08T21:00:00	8	Radiación solar	0
39973	7	Sololá	710	Panajachel	8	Panajachel	5	Mayo	2023-05-30T00:00:00	2024-11-08T22:00:00	2	Temperatura media	17.3
39974	7	Sololá	710	Panajachel	8	Panajachel	5	Mayo	2023-05-30T00:00:00	2024-11-08T22:00:00	4	Temperatura máxima	17.5
39975	7	Sololá	710	Panajachel	8	Panajachel	5	Mayo	2023-05-30T00:00:00	2024-11-08T22:00:00	3	Temperatura mínima	16.8
39976	7	Sololá	710	Panajachel	8	Panajachel	5	Mayo	2023-05-30T00:00:00	2024-11-08T22:00:00	5	Humedad	90
39977	7	Sololá	710	Panajachel	8	Panajachel	5	Mayo	2023-05-30T00:00:00	2024-11-08T22:00:00	6	Velocidad del viento	1.6
39978	7	Sololá	710	Panajachel	8	Panajachel	5	Mayo	2023-05-30T00:00:00	2024-11-08T22:00:00	7	Dirección del viento	1.61
39979	7	Sololá	710	Panajachel	8	Panajachel	5	Mayo	2023-05-30T00:00:00	2024-11-08T22:00:00	1	Precipitación	0
39980	7	Sololá	710	Panajachel	8	Panajachel	5	Mayo	2023-05-30T00:00:00	2024-11-08T22:00:00	8	Radiación solar	0
39981	7	Sololá	710	Panajachel	8	Panajachel	5	Mayo	2023-05-30T00:00:00	2024-11-08T23:00:00	2	Temperatura media	18.1
39982	7	Sololá	710	Panajachel	8	Panajachel	5	Mayo	2023-05-30T00:00:00	2024-11-08T23:00:00	4	Temperatura máxima	18.1
39983	7	Sololá	710	Panajachel	8	Panajachel	5	Mayo	2023-05-30T00:00:00	2024-11-08T23:00:00	3	Temperatura mínima	17.3
39984	7	Sololá	710	Panajachel	8	Panajachel	5	Mayo	2023-05-30T00:00:00	2024-11-08T23:00:00	5	Humedad	85
39985	7	Sololá	710	Panajachel	8	Panajachel	5	Mayo	2023-05-30T00:00:00	2024-11-08T23:00:00	6	Velocidad del viento	3.2
39986	7	Sololá	710	Panajachel	8	Panajachel	5	Mayo	2023-05-30T00:00:00	2024-11-08T23:00:00	7	Dirección del viento	3.22
39987	7	Sololá	710	Panajachel	8	Panajachel	5	Mayo	2023-05-30T00:00:00	2024-11-08T23:00:00	1	Precipitación	0
39988	7	Sololá	710	Panajachel	8	Panajachel	5	Mayo	2023-05-30T00:00:00	2024-11-08T23:00:00	8	Radiación solar	0
39989	7	Sololá	710	Panajachel	8	Panajachel	5	Mayo	2023-05-31T00:00:00	2024-11-08T00:00:00	2	Temperatura media	17.8
39990	7	Sololá	710	Panajachel	8	Panajachel	5	Mayo	2023-05-31T00:00:00	2024-11-08T00:00:00	4	Temperatura máxima	18.1
39991	7	Sololá	710	Panajachel	8	Panajachel	5	Mayo	2023-05-31T00:00:00	2024-11-08T00:00:00	3	Temperatura mínima	17.6
39992	7	Sololá	710	Panajachel	8	Panajachel	5	Mayo	2023-05-31T00:00:00	2024-11-08T00:00:00	5	Humedad	85
39993	7	Sololá	710	Panajachel	8	Panajachel	5	Mayo	2023-05-31T00:00:00	2024-11-08T00:00:00	6	Velocidad del viento	3.2
39994	7	Sololá	710	Panajachel	8	Panajachel	5	Mayo	2023-05-31T00:00:00	2024-11-08T00:00:00	7	Dirección del viento	3.22
39995	7	Sololá	710	Panajachel	8	Panajachel	5	Mayo	2023-05-31T00:00:00	2024-11-08T00:00:00	1	Precipitación	0
39996	7	Sololá	710	Panajachel	8	Panajachel	5	Mayo	2023-05-31T00:00:00	2024-11-08T00:00:00	8	Radiación solar	0
39997	7	Sololá	710	Panajachel	8	Panajachel	5	Mayo	2023-05-31T00:00:00	2024-11-08T01:00:00	2	Temperatura media	17.5
39998	7	Sololá	710	Panajachel	8	Panajachel	5	Mayo	2023-05-31T00:00:00	2024-11-08T01:00:00	4	Temperatura máxima	17.8
39999	7	Sololá	710	Panajachel	8	Panajachel	5	Mayo	2023-05-31T00:00:00	2024-11-08T01:00:00	3	Temperatura mínima	17.4
40000	7	Sololá	710	Panajachel	8	Panajachel	5	Mayo	2023-05-31T00:00:00	2024-11-08T01:00:00	5	Humedad	88
40001	7	Sololá	710	Panajachel	8	Panajachel	5	Mayo	2023-05-31T00:00:00	2024-11-08T01:00:00	6	Velocidad del viento	1.6
40002	7	Sololá	710	Panajachel	8	Panajachel	5	Mayo	2023-05-31T00:00:00	2024-11-08T01:00:00	7	Dirección del viento	1.61
40003	7	Sololá	710	Panajachel	8	Panajachel	5	Mayo	2023-05-31T00:00:00	2024-11-08T01:00:00	1	Precipitación	0
40004	7	Sololá	710	Panajachel	8	Panajachel	5	Mayo	2023-05-31T00:00:00	2024-11-08T01:00:00	8	Radiación solar	0
40005	7	Sololá	710	Panajachel	8	Panajachel	5	Mayo	2023-05-31T00:00:00	2024-11-08T02:00:00	2	Temperatura media	17.5
40006	7	Sololá	710	Panajachel	8	Panajachel	5	Mayo	2023-05-31T00:00:00	2024-11-08T02:00:00	4	Temperatura máxima	17.5
40007	7	Sololá	710	Panajachel	8	Panajachel	5	Mayo	2023-05-31T00:00:00	2024-11-08T02:00:00	3	Temperatura mínima	17.2
40008	7	Sololá	710	Panajachel	8	Panajachel	5	Mayo	2023-05-31T00:00:00	2024-11-08T02:00:00	5	Humedad	85
40009	7	Sololá	710	Panajachel	8	Panajachel	5	Mayo	2023-05-31T00:00:00	2024-11-08T02:00:00	6	Velocidad del viento	3.2
40010	7	Sololá	710	Panajachel	8	Panajachel	5	Mayo	2023-05-31T00:00:00	2024-11-08T02:00:00	7	Dirección del viento	3.22
40011	7	Sololá	710	Panajachel	8	Panajachel	5	Mayo	2023-05-31T00:00:00	2024-11-08T02:00:00	1	Precipitación	0
40012	7	Sololá	710	Panajachel	8	Panajachel	5	Mayo	2023-05-31T00:00:00	2024-11-08T02:00:00	8	Radiación solar	0
40013	7	Sololá	710	Panajachel	8	Panajachel	5	Mayo	2023-05-31T00:00:00	2024-11-08T03:00:00	2	Temperatura media	17.7
40014	7	Sololá	710	Panajachel	8	Panajachel	5	Mayo	2023-05-31T00:00:00	2024-11-08T03:00:00	4	Temperatura máxima	17.8
40015	7	Sololá	710	Panajachel	8	Panajachel	5	Mayo	2023-05-31T00:00:00	2024-11-08T03:00:00	3	Temperatura mínima	17.5
40016	7	Sololá	710	Panajachel	8	Panajachel	5	Mayo	2023-05-31T00:00:00	2024-11-08T03:00:00	5	Humedad	85
40017	7	Sololá	710	Panajachel	8	Panajachel	5	Mayo	2023-05-31T00:00:00	2024-11-08T03:00:00	6	Velocidad del viento	1.6
40018	7	Sololá	710	Panajachel	8	Panajachel	5	Mayo	2023-05-31T00:00:00	2024-11-08T03:00:00	7	Dirección del viento	1.61
40019	7	Sololá	710	Panajachel	8	Panajachel	5	Mayo	2023-05-31T00:00:00	2024-11-08T03:00:00	1	Precipitación	0
40020	7	Sololá	710	Panajachel	8	Panajachel	5	Mayo	2023-05-31T00:00:00	2024-11-08T03:00:00	8	Radiación solar	0
40021	7	Sololá	710	Panajachel	8	Panajachel	5	Mayo	2023-05-31T00:00:00	2024-11-08T04:00:00	2	Temperatura media	17
40022	7	Sololá	710	Panajachel	8	Panajachel	5	Mayo	2023-05-31T00:00:00	2024-11-08T04:00:00	4	Temperatura máxima	17.7
40023	7	Sololá	710	Panajachel	8	Panajachel	5	Mayo	2023-05-31T00:00:00	2024-11-08T04:00:00	3	Temperatura mínima	17
40024	7	Sololá	710	Panajachel	8	Panajachel	5	Mayo	2023-05-31T00:00:00	2024-11-08T04:00:00	5	Humedad	86
40025	7	Sololá	710	Panajachel	8	Panajachel	5	Mayo	2023-05-31T00:00:00	2024-11-08T04:00:00	6	Velocidad del viento	1.6
40026	7	Sololá	710	Panajachel	8	Panajachel	5	Mayo	2023-05-31T00:00:00	2024-11-08T04:00:00	7	Dirección del viento	1.61
40027	7	Sololá	710	Panajachel	8	Panajachel	5	Mayo	2023-05-31T00:00:00	2024-11-08T04:00:00	1	Precipitación	0
40028	7	Sololá	710	Panajachel	8	Panajachel	5	Mayo	2023-05-31T00:00:00	2024-11-08T04:00:00	8	Radiación solar	0
40029	7	Sololá	710	Panajachel	8	Panajachel	5	Mayo	2023-05-31T00:00:00	2024-11-08T05:00:00	2	Temperatura media	17
40030	7	Sololá	710	Panajachel	8	Panajachel	5	Mayo	2023-05-31T00:00:00	2024-11-08T05:00:00	4	Temperatura máxima	17.1
40031	7	Sololá	710	Panajachel	8	Panajachel	5	Mayo	2023-05-31T00:00:00	2024-11-08T05:00:00	3	Temperatura mínima	16.8
40032	7	Sololá	710	Panajachel	8	Panajachel	5	Mayo	2023-05-31T00:00:00	2024-11-08T05:00:00	5	Humedad	83
40033	7	Sololá	710	Panajachel	8	Panajachel	5	Mayo	2023-05-31T00:00:00	2024-11-08T05:00:00	6	Velocidad del viento	3.2
40034	7	Sololá	710	Panajachel	8	Panajachel	5	Mayo	2023-05-31T00:00:00	2024-11-08T05:00:00	7	Dirección del viento	3.22
40035	7	Sololá	710	Panajachel	8	Panajachel	5	Mayo	2023-05-31T00:00:00	2024-11-08T05:00:00	1	Precipitación	0
40036	7	Sololá	710	Panajachel	8	Panajachel	5	Mayo	2023-05-31T00:00:00	2024-11-08T05:00:00	8	Radiación solar	0
40037	7	Sololá	710	Panajachel	8	Panajachel	5	Mayo	2023-05-31T00:00:00	2024-11-08T06:00:00	2	Temperatura media	16.4
40038	7	Sololá	710	Panajachel	8	Panajachel	5	Mayo	2023-05-31T00:00:00	2024-11-08T06:00:00	4	Temperatura máxima	17
40039	7	Sololá	710	Panajachel	8	Panajachel	5	Mayo	2023-05-31T00:00:00	2024-11-08T06:00:00	3	Temperatura mínima	16.3
40040	7	Sololá	710	Panajachel	8	Panajachel	5	Mayo	2023-05-31T00:00:00	2024-11-08T06:00:00	5	Humedad	88
40041	7	Sololá	710	Panajachel	8	Panajachel	5	Mayo	2023-05-31T00:00:00	2024-11-08T06:00:00	6	Velocidad del viento	3.2
40042	7	Sololá	710	Panajachel	8	Panajachel	5	Mayo	2023-05-31T00:00:00	2024-11-08T06:00:00	7	Dirección del viento	3.22
40043	7	Sololá	710	Panajachel	8	Panajachel	5	Mayo	2023-05-31T00:00:00	2024-11-08T06:00:00	1	Precipitación	0
40044	7	Sololá	710	Panajachel	8	Panajachel	5	Mayo	2023-05-31T00:00:00	2024-11-08T06:00:00	8	Radiación solar	5
40045	7	Sololá	710	Panajachel	8	Panajachel	5	Mayo	2023-05-31T00:00:00	2024-11-08T07:00:00	2	Temperatura media	18
40046	7	Sololá	710	Panajachel	8	Panajachel	5	Mayo	2023-05-31T00:00:00	2024-11-08T07:00:00	4	Temperatura máxima	18
40047	7	Sololá	710	Panajachel	8	Panajachel	5	Mayo	2023-05-31T00:00:00	2024-11-08T07:00:00	3	Temperatura mínima	16.2
40048	7	Sololá	710	Panajachel	8	Panajachel	5	Mayo	2023-05-31T00:00:00	2024-11-08T07:00:00	5	Humedad	84
40049	7	Sololá	710	Panajachel	8	Panajachel	5	Mayo	2023-05-31T00:00:00	2024-11-08T07:00:00	6	Velocidad del viento	3.2
40050	7	Sololá	710	Panajachel	8	Panajachel	5	Mayo	2023-05-31T00:00:00	2024-11-08T07:00:00	7	Dirección del viento	3.22
40051	7	Sololá	710	Panajachel	8	Panajachel	5	Mayo	2023-05-31T00:00:00	2024-11-08T07:00:00	1	Precipitación	0
40052	7	Sololá	710	Panajachel	8	Panajachel	5	Mayo	2023-05-31T00:00:00	2024-11-08T07:00:00	8	Radiación solar	94
40053	7	Sololá	710	Panajachel	8	Panajachel	5	Mayo	2023-05-31T00:00:00	2024-11-08T08:00:00	2	Temperatura media	20.7
40054	7	Sololá	710	Panajachel	8	Panajachel	5	Mayo	2023-05-31T00:00:00	2024-11-08T08:00:00	4	Temperatura máxima	20.7
40055	7	Sololá	710	Panajachel	8	Panajachel	5	Mayo	2023-05-31T00:00:00	2024-11-08T08:00:00	3	Temperatura mínima	18.1
40056	7	Sololá	710	Panajachel	8	Panajachel	5	Mayo	2023-05-31T00:00:00	2024-11-08T08:00:00	5	Humedad	78
40057	7	Sololá	710	Panajachel	8	Panajachel	5	Mayo	2023-05-31T00:00:00	2024-11-08T08:00:00	6	Velocidad del viento	0
40058	7	Sololá	710	Panajachel	8	Panajachel	5	Mayo	2023-05-31T00:00:00	2024-11-08T08:00:00	7	Dirección del viento	0
40059	7	Sololá	710	Panajachel	8	Panajachel	5	Mayo	2023-05-31T00:00:00	2024-11-08T08:00:00	1	Precipitación	0
40060	7	Sololá	710	Panajachel	8	Panajachel	5	Mayo	2023-05-31T00:00:00	2024-11-08T08:00:00	8	Radiación solar	310
40061	7	Sololá	710	Panajachel	8	Panajachel	5	Mayo	2023-05-31T00:00:00	2024-11-08T09:00:00	2	Temperatura media	21.3
40062	7	Sololá	710	Panajachel	8	Panajachel	5	Mayo	2023-05-31T00:00:00	2024-11-08T09:00:00	4	Temperatura máxima	21.4
40063	7	Sololá	710	Panajachel	8	Panajachel	5	Mayo	2023-05-31T00:00:00	2024-11-08T09:00:00	3	Temperatura mínima	20.3
40064	7	Sololá	710	Panajachel	8	Panajachel	5	Mayo	2023-05-31T00:00:00	2024-11-08T09:00:00	5	Humedad	78
40065	7	Sololá	710	Panajachel	8	Panajachel	5	Mayo	2023-05-31T00:00:00	2024-11-08T09:00:00	6	Velocidad del viento	1.6
40066	7	Sololá	710	Panajachel	8	Panajachel	5	Mayo	2023-05-31T00:00:00	2024-11-08T09:00:00	7	Dirección del viento	1.61
40067	7	Sololá	710	Panajachel	8	Panajachel	5	Mayo	2023-05-31T00:00:00	2024-11-08T09:00:00	1	Precipitación	0
40068	7	Sololá	710	Panajachel	8	Panajachel	5	Mayo	2023-05-31T00:00:00	2024-11-08T09:00:00	8	Radiación solar	502
40069	7	Sololá	710	Panajachel	8	Panajachel	5	Mayo	2023-05-31T00:00:00	2024-11-08T10:00:00	2	Temperatura media	22.2
40070	7	Sololá	710	Panajachel	8	Panajachel	5	Mayo	2023-05-31T00:00:00	2024-11-08T10:00:00	4	Temperatura máxima	22.3
40071	7	Sololá	710	Panajachel	8	Panajachel	5	Mayo	2023-05-31T00:00:00	2024-11-08T10:00:00	3	Temperatura mínima	21.3
40072	7	Sololá	710	Panajachel	8	Panajachel	5	Mayo	2023-05-31T00:00:00	2024-11-08T10:00:00	5	Humedad	77
40073	7	Sololá	710	Panajachel	8	Panajachel	5	Mayo	2023-05-31T00:00:00	2024-11-08T10:00:00	6	Velocidad del viento	1.6
40074	7	Sololá	710	Panajachel	8	Panajachel	5	Mayo	2023-05-31T00:00:00	2024-11-08T10:00:00	7	Dirección del viento	1.61
40075	7	Sololá	710	Panajachel	8	Panajachel	5	Mayo	2023-05-31T00:00:00	2024-11-08T10:00:00	1	Precipitación	0
40076	7	Sololá	710	Panajachel	8	Panajachel	5	Mayo	2023-05-31T00:00:00	2024-11-08T10:00:00	8	Radiación solar	706
40077	7	Sololá	710	Panajachel	8	Panajachel	5	Mayo	2023-05-31T00:00:00	2024-11-08T11:00:00	2	Temperatura media	22.3
40078	7	Sololá	710	Panajachel	8	Panajachel	5	Mayo	2023-05-31T00:00:00	2024-11-08T11:00:00	4	Temperatura máxima	22.5
40079	7	Sololá	710	Panajachel	8	Panajachel	5	Mayo	2023-05-31T00:00:00	2024-11-08T11:00:00	3	Temperatura mínima	21.6
40080	7	Sololá	710	Panajachel	8	Panajachel	5	Mayo	2023-05-31T00:00:00	2024-11-08T11:00:00	5	Humedad	79
40081	7	Sololá	710	Panajachel	8	Panajachel	5	Mayo	2023-05-31T00:00:00	2024-11-08T11:00:00	6	Velocidad del viento	3.2
40082	7	Sololá	710	Panajachel	8	Panajachel	5	Mayo	2023-05-31T00:00:00	2024-11-08T11:00:00	7	Dirección del viento	3.22
40083	7	Sololá	710	Panajachel	8	Panajachel	5	Mayo	2023-05-31T00:00:00	2024-11-08T11:00:00	1	Precipitación	0
40084	7	Sololá	710	Panajachel	8	Panajachel	5	Mayo	2023-05-31T00:00:00	2024-11-08T11:00:00	8	Radiación solar	569
40085	7	Sololá	710	Panajachel	8	Panajachel	5	Mayo	2023-05-31T00:00:00	2024-11-08T12:00:00	2	Temperatura media	22.1
40086	7	Sololá	710	Panajachel	8	Panajachel	5	Mayo	2023-05-31T00:00:00	2024-11-08T12:00:00	4	Temperatura máxima	23.2
40087	7	Sololá	710	Panajachel	8	Panajachel	5	Mayo	2023-05-31T00:00:00	2024-11-08T12:00:00	3	Temperatura mínima	22.1
40088	7	Sololá	710	Panajachel	8	Panajachel	5	Mayo	2023-05-31T00:00:00	2024-11-08T12:00:00	5	Humedad	79
40089	7	Sololá	710	Panajachel	8	Panajachel	5	Mayo	2023-05-31T00:00:00	2024-11-08T12:00:00	6	Velocidad del viento	3.2
40090	7	Sololá	710	Panajachel	8	Panajachel	5	Mayo	2023-05-31T00:00:00	2024-11-08T12:00:00	7	Dirección del viento	3.22
40091	7	Sololá	710	Panajachel	8	Panajachel	5	Mayo	2023-05-31T00:00:00	2024-11-08T12:00:00	1	Precipitación	0
40092	7	Sololá	710	Panajachel	8	Panajachel	5	Mayo	2023-05-31T00:00:00	2024-11-08T12:00:00	8	Radiación solar	619
40093	7	Sololá	710	Panajachel	8	Panajachel	5	Mayo	2023-05-31T00:00:00	2024-11-08T13:00:00	2	Temperatura media	23.8
40094	7	Sololá	710	Panajachel	8	Panajachel	5	Mayo	2023-05-31T00:00:00	2024-11-08T13:00:00	4	Temperatura máxima	23.9
40095	7	Sololá	710	Panajachel	8	Panajachel	5	Mayo	2023-05-31T00:00:00	2024-11-08T13:00:00	3	Temperatura mínima	22
40096	7	Sololá	710	Panajachel	8	Panajachel	5	Mayo	2023-05-31T00:00:00	2024-11-08T13:00:00	5	Humedad	77
40097	7	Sololá	710	Panajachel	8	Panajachel	5	Mayo	2023-05-31T00:00:00	2024-11-08T13:00:00	6	Velocidad del viento	3.2
40098	7	Sololá	710	Panajachel	8	Panajachel	5	Mayo	2023-05-31T00:00:00	2024-11-08T13:00:00	7	Dirección del viento	3.22
40099	7	Sololá	710	Panajachel	8	Panajachel	5	Mayo	2023-05-31T00:00:00	2024-11-08T13:00:00	1	Precipitación	0
40100	7	Sololá	710	Panajachel	8	Panajachel	5	Mayo	2023-05-31T00:00:00	2024-11-08T13:00:00	8	Radiación solar	739
40101	7	Sololá	710	Panajachel	8	Panajachel	5	Mayo	2023-05-31T00:00:00	2024-11-08T14:00:00	2	Temperatura media	23.6
40102	7	Sololá	710	Panajachel	8	Panajachel	5	Mayo	2023-05-31T00:00:00	2024-11-08T14:00:00	4	Temperatura máxima	23.9
40103	7	Sololá	710	Panajachel	8	Panajachel	5	Mayo	2023-05-31T00:00:00	2024-11-08T14:00:00	3	Temperatura mínima	23.1
40104	7	Sololá	710	Panajachel	8	Panajachel	5	Mayo	2023-05-31T00:00:00	2024-11-08T14:00:00	5	Humedad	79
40105	7	Sololá	710	Panajachel	8	Panajachel	5	Mayo	2023-05-31T00:00:00	2024-11-08T14:00:00	6	Velocidad del viento	4.8
40106	7	Sololá	710	Panajachel	8	Panajachel	5	Mayo	2023-05-31T00:00:00	2024-11-08T14:00:00	7	Dirección del viento	4.83
40107	7	Sololá	710	Panajachel	8	Panajachel	5	Mayo	2023-05-31T00:00:00	2024-11-08T14:00:00	1	Precipitación	0
40108	7	Sololá	710	Panajachel	8	Panajachel	5	Mayo	2023-05-31T00:00:00	2024-11-08T14:00:00	8	Radiación solar	803
40109	7	Sololá	710	Panajachel	8	Panajachel	5	Mayo	2023-05-31T00:00:00	2024-11-08T15:00:00	2	Temperatura media	22.9
40110	7	Sololá	710	Panajachel	8	Panajachel	5	Mayo	2023-05-31T00:00:00	2024-11-08T15:00:00	4	Temperatura máxima	23.8
40111	7	Sololá	710	Panajachel	8	Panajachel	5	Mayo	2023-05-31T00:00:00	2024-11-08T15:00:00	3	Temperatura mínima	22.9
40112	7	Sololá	710	Panajachel	8	Panajachel	5	Mayo	2023-05-31T00:00:00	2024-11-08T15:00:00	5	Humedad	80
40113	7	Sololá	710	Panajachel	8	Panajachel	5	Mayo	2023-05-31T00:00:00	2024-11-08T15:00:00	6	Velocidad del viento	3.2
40114	7	Sololá	710	Panajachel	8	Panajachel	5	Mayo	2023-05-31T00:00:00	2024-11-08T15:00:00	7	Dirección del viento	3.22
40115	7	Sololá	710	Panajachel	8	Panajachel	5	Mayo	2023-05-31T00:00:00	2024-11-08T15:00:00	1	Precipitación	0
40116	7	Sololá	710	Panajachel	8	Panajachel	5	Mayo	2023-05-31T00:00:00	2024-11-08T15:00:00	8	Radiación solar	468
40117	7	Sololá	710	Panajachel	8	Panajachel	5	Mayo	2023-05-31T00:00:00	2024-11-08T16:00:00	2	Temperatura media	21.4
40118	7	Sololá	710	Panajachel	8	Panajachel	5	Mayo	2023-05-31T00:00:00	2024-11-08T16:00:00	4	Temperatura máxima	22.9
40119	7	Sololá	710	Panajachel	8	Panajachel	5	Mayo	2023-05-31T00:00:00	2024-11-08T16:00:00	3	Temperatura mínima	21.4
40120	7	Sololá	710	Panajachel	8	Panajachel	5	Mayo	2023-05-31T00:00:00	2024-11-08T16:00:00	5	Humedad	87
40121	7	Sololá	710	Panajachel	8	Panajachel	5	Mayo	2023-05-31T00:00:00	2024-11-08T16:00:00	6	Velocidad del viento	4.8
40122	7	Sololá	710	Panajachel	8	Panajachel	5	Mayo	2023-05-31T00:00:00	2024-11-08T16:00:00	7	Dirección del viento	4.83
40123	7	Sololá	710	Panajachel	8	Panajachel	5	Mayo	2023-05-31T00:00:00	2024-11-08T16:00:00	1	Precipitación	0
40124	7	Sololá	710	Panajachel	8	Panajachel	5	Mayo	2023-05-31T00:00:00	2024-11-08T16:00:00	8	Radiación solar	99
40125	7	Sololá	710	Panajachel	8	Panajachel	5	Mayo	2023-05-31T00:00:00	2024-11-08T17:00:00	2	Temperatura media	20.6
40126	7	Sololá	710	Panajachel	8	Panajachel	5	Mayo	2023-05-31T00:00:00	2024-11-08T17:00:00	4	Temperatura máxima	21.4
40127	7	Sololá	710	Panajachel	8	Panajachel	5	Mayo	2023-05-31T00:00:00	2024-11-08T17:00:00	3	Temperatura mínima	20.6
40128	7	Sololá	710	Panajachel	8	Panajachel	5	Mayo	2023-05-31T00:00:00	2024-11-08T17:00:00	5	Humedad	90
40129	7	Sololá	710	Panajachel	8	Panajachel	5	Mayo	2023-05-31T00:00:00	2024-11-08T17:00:00	6	Velocidad del viento	4.8
40130	7	Sololá	710	Panajachel	8	Panajachel	5	Mayo	2023-05-31T00:00:00	2024-11-08T17:00:00	7	Dirección del viento	4.83
40131	7	Sololá	710	Panajachel	8	Panajachel	5	Mayo	2023-05-31T00:00:00	2024-11-08T17:00:00	1	Precipitación	0
40132	7	Sololá	710	Panajachel	8	Panajachel	5	Mayo	2023-05-31T00:00:00	2024-11-08T17:00:00	8	Radiación solar	10
40133	7	Sololá	710	Panajachel	8	Panajachel	5	Mayo	2023-05-31T00:00:00	2024-11-08T18:00:00	2	Temperatura media	19.8
40134	7	Sololá	710	Panajachel	8	Panajachel	5	Mayo	2023-05-31T00:00:00	2024-11-08T18:00:00	4	Temperatura máxima	20.6
40135	7	Sololá	710	Panajachel	8	Panajachel	5	Mayo	2023-05-31T00:00:00	2024-11-08T18:00:00	3	Temperatura mínima	19.8
40136	7	Sololá	710	Panajachel	8	Panajachel	5	Mayo	2023-05-31T00:00:00	2024-11-08T18:00:00	5	Humedad	94
40137	7	Sololá	710	Panajachel	8	Panajachel	5	Mayo	2023-05-31T00:00:00	2024-11-08T18:00:00	6	Velocidad del viento	3.2
40138	7	Sololá	710	Panajachel	8	Panajachel	5	Mayo	2023-05-31T00:00:00	2024-11-08T18:00:00	7	Dirección del viento	3.22
40139	7	Sololá	710	Panajachel	8	Panajachel	5	Mayo	2023-05-31T00:00:00	2024-11-08T18:00:00	1	Precipitación	3
40140	7	Sololá	710	Panajachel	8	Panajachel	5	Mayo	2023-05-31T00:00:00	2024-11-08T18:00:00	8	Radiación solar	9
40141	7	Sololá	710	Panajachel	8	Panajachel	5	Mayo	2023-05-31T00:00:00	2024-11-08T19:00:00	2	Temperatura media	19.6
40142	7	Sololá	710	Panajachel	8	Panajachel	5	Mayo	2023-05-31T00:00:00	2024-11-08T19:00:00	4	Temperatura máxima	19.8
40143	7	Sololá	710	Panajachel	8	Panajachel	5	Mayo	2023-05-31T00:00:00	2024-11-08T19:00:00	3	Temperatura mínima	19.5
40144	7	Sololá	710	Panajachel	8	Panajachel	5	Mayo	2023-05-31T00:00:00	2024-11-08T19:00:00	5	Humedad	96
40145	7	Sololá	710	Panajachel	8	Panajachel	5	Mayo	2023-05-31T00:00:00	2024-11-08T19:00:00	6	Velocidad del viento	0
40146	7	Sololá	710	Panajachel	8	Panajachel	5	Mayo	2023-05-31T00:00:00	2024-11-08T19:00:00	7	Dirección del viento	0
40147	7	Sololá	710	Panajachel	8	Panajachel	5	Mayo	2023-05-31T00:00:00	2024-11-08T19:00:00	1	Precipitación	0.2
40148	7	Sololá	710	Panajachel	8	Panajachel	5	Mayo	2023-05-31T00:00:00	2024-11-08T19:00:00	8	Radiación solar	0
40149	7	Sololá	710	Panajachel	8	Panajachel	5	Mayo	2023-05-31T00:00:00	2024-11-08T20:00:00	2	Temperatura media	18.6
40150	7	Sololá	710	Panajachel	8	Panajachel	5	Mayo	2023-05-31T00:00:00	2024-11-08T20:00:00	4	Temperatura máxima	19.6
40151	7	Sololá	710	Panajachel	8	Panajachel	5	Mayo	2023-05-31T00:00:00	2024-11-08T20:00:00	3	Temperatura mínima	18.6
40152	7	Sololá	710	Panajachel	8	Panajachel	5	Mayo	2023-05-31T00:00:00	2024-11-08T20:00:00	5	Humedad	96
40153	7	Sololá	710	Panajachel	8	Panajachel	5	Mayo	2023-05-31T00:00:00	2024-11-08T20:00:00	6	Velocidad del viento	0
40154	7	Sololá	710	Panajachel	8	Panajachel	5	Mayo	2023-05-31T00:00:00	2024-11-08T20:00:00	7	Dirección del viento	0
40155	7	Sololá	710	Panajachel	8	Panajachel	5	Mayo	2023-05-31T00:00:00	2024-11-08T20:00:00	1	Precipitación	0
40156	7	Sololá	710	Panajachel	8	Panajachel	5	Mayo	2023-05-31T00:00:00	2024-11-08T20:00:00	8	Radiación solar	0
40157	7	Sololá	710	Panajachel	8	Panajachel	5	Mayo	2023-05-31T00:00:00	2024-11-08T21:00:00	2	Temperatura media	18.2
40158	7	Sololá	710	Panajachel	8	Panajachel	5	Mayo	2023-05-31T00:00:00	2024-11-08T21:00:00	4	Temperatura máxima	18.6
40159	7	Sololá	710	Panajachel	8	Panajachel	5	Mayo	2023-05-31T00:00:00	2024-11-08T21:00:00	3	Temperatura mínima	18.1
40160	7	Sololá	710	Panajachel	8	Panajachel	5	Mayo	2023-05-31T00:00:00	2024-11-08T21:00:00	5	Humedad	95
40161	7	Sololá	710	Panajachel	8	Panajachel	5	Mayo	2023-05-31T00:00:00	2024-11-08T21:00:00	6	Velocidad del viento	3.2
40162	7	Sololá	710	Panajachel	8	Panajachel	5	Mayo	2023-05-31T00:00:00	2024-11-08T21:00:00	7	Dirección del viento	3.22
40163	7	Sololá	710	Panajachel	8	Panajachel	5	Mayo	2023-05-31T00:00:00	2024-11-08T21:00:00	1	Precipitación	0
40164	7	Sololá	710	Panajachel	8	Panajachel	5	Mayo	2023-05-31T00:00:00	2024-11-08T21:00:00	8	Radiación solar	0
40165	7	Sololá	710	Panajachel	8	Panajachel	5	Mayo	2023-05-31T00:00:00	2024-11-08T22:00:00	2	Temperatura media	18.4
40166	7	Sololá	710	Panajachel	8	Panajachel	5	Mayo	2023-05-31T00:00:00	2024-11-08T22:00:00	4	Temperatura máxima	18.5
40167	7	Sololá	710	Panajachel	8	Panajachel	5	Mayo	2023-05-31T00:00:00	2024-11-08T22:00:00	3	Temperatura mínima	18.2
40168	7	Sololá	710	Panajachel	8	Panajachel	5	Mayo	2023-05-31T00:00:00	2024-11-08T22:00:00	5	Humedad	94
40169	7	Sololá	710	Panajachel	8	Panajachel	5	Mayo	2023-05-31T00:00:00	2024-11-08T22:00:00	6	Velocidad del viento	1.6
40170	7	Sololá	710	Panajachel	8	Panajachel	5	Mayo	2023-05-31T00:00:00	2024-11-08T22:00:00	7	Dirección del viento	1.61
40171	7	Sololá	710	Panajachel	8	Panajachel	5	Mayo	2023-05-31T00:00:00	2024-11-08T22:00:00	1	Precipitación	0
40172	7	Sololá	710	Panajachel	8	Panajachel	5	Mayo	2023-05-31T00:00:00	2024-11-08T22:00:00	8	Radiación solar	0
40173	7	Sololá	710	Panajachel	8	Panajachel	5	Mayo	2023-05-31T00:00:00	2024-11-08T23:00:00	2	Temperatura media	18.4
40174	7	Sololá	710	Panajachel	8	Panajachel	5	Mayo	2023-05-31T00:00:00	2024-11-08T23:00:00	4	Temperatura máxima	18.5
40175	7	Sololá	710	Panajachel	8	Panajachel	5	Mayo	2023-05-31T00:00:00	2024-11-08T23:00:00	3	Temperatura mínima	18.3
40176	7	Sololá	710	Panajachel	8	Panajachel	5	Mayo	2023-05-31T00:00:00	2024-11-08T23:00:00	5	Humedad	94
40177	7	Sololá	710	Panajachel	8	Panajachel	5	Mayo	2023-05-31T00:00:00	2024-11-08T23:00:00	6	Velocidad del viento	1.6
40178	7	Sololá	710	Panajachel	8	Panajachel	5	Mayo	2023-05-31T00:00:00	2024-11-08T23:00:00	7	Dirección del viento	1.61
40179	7	Sololá	710	Panajachel	8	Panajachel	5	Mayo	2023-05-31T00:00:00	2024-11-08T23:00:00	1	Precipitación	0
40180	7	Sololá	710	Panajachel	8	Panajachel	5	Mayo	2023-05-31T00:00:00	2024-11-08T23:00:00	8	Radiación solar	0
40181	7	Sololá	710	Panajachel	8	Panajachel	6	Junio	2023-01-06T00:00:00	2024-11-08T00:00:00	2	Temperatura media	18.7
40182	7	Sololá	710	Panajachel	8	Panajachel	6	Junio	2023-01-06T00:00:00	2024-11-08T00:00:00	4	Temperatura máxima	18.7
40183	7	Sololá	710	Panajachel	8	Panajachel	6	Junio	2023-01-06T00:00:00	2024-11-08T00:00:00	3	Temperatura mínima	18.4
40184	7	Sololá	710	Panajachel	8	Panajachel	6	Junio	2023-01-06T00:00:00	2024-11-08T00:00:00	5	Humedad	93
40185	7	Sololá	710	Panajachel	8	Panajachel	6	Junio	2023-01-06T00:00:00	2024-11-08T00:00:00	6	Velocidad del viento	0
40186	7	Sololá	710	Panajachel	8	Panajachel	6	Junio	2023-01-06T00:00:00	2024-11-08T00:00:00	7	Dirección del viento	0
40187	7	Sololá	710	Panajachel	8	Panajachel	6	Junio	2023-01-06T00:00:00	2024-11-08T00:00:00	1	Precipitación	0
40188	7	Sololá	710	Panajachel	8	Panajachel	6	Junio	2023-01-06T00:00:00	2024-11-08T00:00:00	8	Radiación solar	0
40189	7	Sololá	710	Panajachel	8	Panajachel	6	Junio	2023-01-06T00:00:00	2024-11-08T01:00:00	2	Temperatura media	18.4
40190	7	Sololá	710	Panajachel	8	Panajachel	6	Junio	2023-01-06T00:00:00	2024-11-08T01:00:00	4	Temperatura máxima	18.7
40191	7	Sololá	710	Panajachel	8	Panajachel	6	Junio	2023-01-06T00:00:00	2024-11-08T01:00:00	3	Temperatura mínima	18.4
40192	7	Sololá	710	Panajachel	8	Panajachel	6	Junio	2023-01-06T00:00:00	2024-11-08T01:00:00	5	Humedad	95
40193	7	Sololá	710	Panajachel	8	Panajachel	6	Junio	2023-01-06T00:00:00	2024-11-08T01:00:00	6	Velocidad del viento	0
40194	7	Sololá	710	Panajachel	8	Panajachel	6	Junio	2023-01-06T00:00:00	2024-11-08T01:00:00	7	Dirección del viento	0
40195	7	Sololá	710	Panajachel	8	Panajachel	6	Junio	2023-01-06T00:00:00	2024-11-08T01:00:00	1	Precipitación	0
40196	7	Sololá	710	Panajachel	8	Panajachel	6	Junio	2023-01-06T00:00:00	2024-11-08T01:00:00	8	Radiación solar	0
40197	7	Sololá	710	Panajachel	8	Panajachel	6	Junio	2023-01-06T00:00:00	2024-11-08T02:00:00	2	Temperatura media	17.9
40198	7	Sololá	710	Panajachel	8	Panajachel	6	Junio	2023-01-06T00:00:00	2024-11-08T02:00:00	4	Temperatura máxima	18.4
40199	7	Sololá	710	Panajachel	8	Panajachel	6	Junio	2023-01-06T00:00:00	2024-11-08T02:00:00	3	Temperatura mínima	17.9
40200	7	Sololá	710	Panajachel	8	Panajachel	6	Junio	2023-01-06T00:00:00	2024-11-08T02:00:00	5	Humedad	95
40201	7	Sololá	710	Panajachel	8	Panajachel	6	Junio	2023-01-06T00:00:00	2024-11-08T02:00:00	6	Velocidad del viento	0
40202	7	Sololá	710	Panajachel	8	Panajachel	6	Junio	2023-01-06T00:00:00	2024-11-08T02:00:00	7	Dirección del viento	0
40203	7	Sololá	710	Panajachel	8	Panajachel	6	Junio	2023-01-06T00:00:00	2024-11-08T02:00:00	1	Precipitación	0
40204	7	Sololá	710	Panajachel	8	Panajachel	6	Junio	2023-01-06T00:00:00	2024-11-08T02:00:00	8	Radiación solar	0
40205	7	Sololá	710	Panajachel	8	Panajachel	6	Junio	2023-01-06T00:00:00	2024-11-08T03:00:00	2	Temperatura media	17.5
40206	7	Sololá	710	Panajachel	8	Panajachel	6	Junio	2023-01-06T00:00:00	2024-11-08T03:00:00	4	Temperatura máxima	17.9
40207	7	Sololá	710	Panajachel	8	Panajachel	6	Junio	2023-01-06T00:00:00	2024-11-08T03:00:00	3	Temperatura mínima	17.4
40208	7	Sololá	710	Panajachel	8	Panajachel	6	Junio	2023-01-06T00:00:00	2024-11-08T03:00:00	5	Humedad	96
40209	7	Sololá	710	Panajachel	8	Panajachel	6	Junio	2023-01-06T00:00:00	2024-11-08T03:00:00	6	Velocidad del viento	0
40210	7	Sololá	710	Panajachel	8	Panajachel	6	Junio	2023-01-06T00:00:00	2024-11-08T03:00:00	7	Dirección del viento	0
40211	7	Sololá	710	Panajachel	8	Panajachel	6	Junio	2023-01-06T00:00:00	2024-11-08T03:00:00	1	Precipitación	0
40212	7	Sololá	710	Panajachel	8	Panajachel	6	Junio	2023-01-06T00:00:00	2024-11-08T03:00:00	8	Radiación solar	0
40213	7	Sololá	710	Panajachel	8	Panajachel	6	Junio	2023-01-06T00:00:00	2024-11-08T04:00:00	2	Temperatura media	17.4
40214	7	Sololá	710	Panajachel	8	Panajachel	6	Junio	2023-01-06T00:00:00	2024-11-08T04:00:00	4	Temperatura máxima	17.6
40215	7	Sololá	710	Panajachel	8	Panajachel	6	Junio	2023-01-06T00:00:00	2024-11-08T04:00:00	3	Temperatura mínima	17.4
40216	7	Sololá	710	Panajachel	8	Panajachel	6	Junio	2023-01-06T00:00:00	2024-11-08T04:00:00	5	Humedad	93
40217	7	Sololá	710	Panajachel	8	Panajachel	6	Junio	2023-01-06T00:00:00	2024-11-08T04:00:00	6	Velocidad del viento	1.6
40218	7	Sololá	710	Panajachel	8	Panajachel	6	Junio	2023-01-06T00:00:00	2024-11-08T04:00:00	7	Dirección del viento	1.61
40219	7	Sololá	710	Panajachel	8	Panajachel	6	Junio	2023-01-06T00:00:00	2024-11-08T04:00:00	1	Precipitación	0
40220	7	Sololá	710	Panajachel	8	Panajachel	6	Junio	2023-01-06T00:00:00	2024-11-08T04:00:00	8	Radiación solar	0
40221	7	Sololá	710	Panajachel	8	Panajachel	6	Junio	2023-01-06T00:00:00	2024-11-08T05:00:00	2	Temperatura media	17.3
40222	7	Sololá	710	Panajachel	8	Panajachel	6	Junio	2023-01-06T00:00:00	2024-11-08T05:00:00	4	Temperatura máxima	17.6
40223	7	Sololá	710	Panajachel	8	Panajachel	6	Junio	2023-01-06T00:00:00	2024-11-08T05:00:00	3	Temperatura mínima	17.3
40224	7	Sololá	710	Panajachel	8	Panajachel	6	Junio	2023-01-06T00:00:00	2024-11-08T05:00:00	5	Humedad	93
40225	7	Sololá	710	Panajachel	8	Panajachel	6	Junio	2023-01-06T00:00:00	2024-11-08T05:00:00	6	Velocidad del viento	1.6
40226	7	Sololá	710	Panajachel	8	Panajachel	6	Junio	2023-01-06T00:00:00	2024-11-08T05:00:00	7	Dirección del viento	1.61
40227	7	Sololá	710	Panajachel	8	Panajachel	6	Junio	2023-01-06T00:00:00	2024-11-08T05:00:00	1	Precipitación	0
40228	7	Sololá	710	Panajachel	8	Panajachel	6	Junio	2023-01-06T00:00:00	2024-11-08T05:00:00	8	Radiación solar	0
40229	7	Sololá	710	Panajachel	8	Panajachel	6	Junio	2023-01-06T00:00:00	2024-11-08T06:00:00	2	Temperatura media	16.9
40230	7	Sololá	710	Panajachel	8	Panajachel	6	Junio	2023-01-06T00:00:00	2024-11-08T06:00:00	4	Temperatura máxima	17.3
40231	7	Sololá	710	Panajachel	8	Panajachel	6	Junio	2023-01-06T00:00:00	2024-11-08T06:00:00	3	Temperatura mínima	16.8
40232	7	Sololá	710	Panajachel	8	Panajachel	6	Junio	2023-01-06T00:00:00	2024-11-08T06:00:00	5	Humedad	93
40233	7	Sololá	710	Panajachel	8	Panajachel	6	Junio	2023-01-06T00:00:00	2024-11-08T06:00:00	6	Velocidad del viento	1.6
40234	7	Sololá	710	Panajachel	8	Panajachel	6	Junio	2023-01-06T00:00:00	2024-11-08T06:00:00	7	Dirección del viento	1.61
40235	7	Sololá	710	Panajachel	8	Panajachel	6	Junio	2023-01-06T00:00:00	2024-11-08T06:00:00	1	Precipitación	0
40236	7	Sololá	710	Panajachel	8	Panajachel	6	Junio	2023-01-06T00:00:00	2024-11-08T06:00:00	8	Radiación solar	8
40237	7	Sololá	710	Panajachel	8	Panajachel	6	Junio	2023-01-06T00:00:00	2024-11-08T07:00:00	2	Temperatura media	18.4
40238	7	Sololá	710	Panajachel	8	Panajachel	6	Junio	2023-01-06T00:00:00	2024-11-08T07:00:00	4	Temperatura máxima	18.4
40239	7	Sololá	710	Panajachel	8	Panajachel	6	Junio	2023-01-06T00:00:00	2024-11-08T07:00:00	3	Temperatura mínima	16.8
40240	7	Sololá	710	Panajachel	8	Panajachel	6	Junio	2023-01-06T00:00:00	2024-11-08T07:00:00	5	Humedad	86
40241	7	Sololá	710	Panajachel	8	Panajachel	6	Junio	2023-01-06T00:00:00	2024-11-08T07:00:00	6	Velocidad del viento	3.2
40242	7	Sololá	710	Panajachel	8	Panajachel	6	Junio	2023-01-06T00:00:00	2024-11-08T07:00:00	7	Dirección del viento	3.22
40243	7	Sololá	710	Panajachel	8	Panajachel	6	Junio	2023-01-06T00:00:00	2024-11-08T07:00:00	1	Precipitación	0
40244	7	Sololá	710	Panajachel	8	Panajachel	6	Junio	2023-01-06T00:00:00	2024-11-08T07:00:00	8	Radiación solar	112
40245	7	Sololá	710	Panajachel	8	Panajachel	6	Junio	2023-01-06T00:00:00	2024-11-08T08:00:00	2	Temperatura media	20.9
40246	7	Sololá	710	Panajachel	8	Panajachel	6	Junio	2023-01-06T00:00:00	2024-11-08T08:00:00	4	Temperatura máxima	20.9
40247	7	Sololá	710	Panajachel	8	Panajachel	6	Junio	2023-01-06T00:00:00	2024-11-08T08:00:00	3	Temperatura mínima	18.4
40248	7	Sololá	710	Panajachel	8	Panajachel	6	Junio	2023-01-06T00:00:00	2024-11-08T08:00:00	5	Humedad	82
40249	7	Sololá	710	Panajachel	8	Panajachel	6	Junio	2023-01-06T00:00:00	2024-11-08T08:00:00	6	Velocidad del viento	0
40250	7	Sololá	710	Panajachel	8	Panajachel	6	Junio	2023-01-06T00:00:00	2024-11-08T08:00:00	7	Dirección del viento	0
40251	7	Sololá	710	Panajachel	8	Panajachel	6	Junio	2023-01-06T00:00:00	2024-11-08T08:00:00	1	Precipitación	0
40252	7	Sololá	710	Panajachel	8	Panajachel	6	Junio	2023-01-06T00:00:00	2024-11-08T08:00:00	8	Radiación solar	300
40253	7	Sololá	710	Panajachel	8	Panajachel	6	Junio	2023-01-06T00:00:00	2024-11-08T09:00:00	2	Temperatura media	21.4
40254	7	Sololá	710	Panajachel	8	Panajachel	6	Junio	2023-01-06T00:00:00	2024-11-08T09:00:00	4	Temperatura máxima	21.7
40255	7	Sololá	710	Panajachel	8	Panajachel	6	Junio	2023-01-06T00:00:00	2024-11-08T09:00:00	3	Temperatura mínima	20.9
40256	7	Sololá	710	Panajachel	8	Panajachel	6	Junio	2023-01-06T00:00:00	2024-11-08T09:00:00	5	Humedad	82
40257	7	Sololá	710	Panajachel	8	Panajachel	6	Junio	2023-01-06T00:00:00	2024-11-08T09:00:00	6	Velocidad del viento	1.6
40258	7	Sololá	710	Panajachel	8	Panajachel	6	Junio	2023-01-06T00:00:00	2024-11-08T09:00:00	7	Dirección del viento	1.61
40259	7	Sololá	710	Panajachel	8	Panajachel	6	Junio	2023-01-06T00:00:00	2024-11-08T09:00:00	1	Precipitación	0
40260	7	Sololá	710	Panajachel	8	Panajachel	6	Junio	2023-01-06T00:00:00	2024-11-08T09:00:00	8	Radiación solar	518
40261	7	Sololá	710	Panajachel	8	Panajachel	6	Junio	2023-01-06T00:00:00	2024-11-08T10:00:00	2	Temperatura media	21.7
40262	7	Sololá	710	Panajachel	8	Panajachel	6	Junio	2023-01-06T00:00:00	2024-11-08T10:00:00	4	Temperatura máxima	22
40263	7	Sololá	710	Panajachel	8	Panajachel	6	Junio	2023-01-06T00:00:00	2024-11-08T10:00:00	3	Temperatura mínima	21.4
40264	7	Sololá	710	Panajachel	8	Panajachel	6	Junio	2023-01-06T00:00:00	2024-11-08T10:00:00	5	Humedad	79
40265	7	Sololá	710	Panajachel	8	Panajachel	6	Junio	2023-01-06T00:00:00	2024-11-08T10:00:00	6	Velocidad del viento	3.2
40266	7	Sololá	710	Panajachel	8	Panajachel	6	Junio	2023-01-06T00:00:00	2024-11-08T10:00:00	7	Dirección del viento	3.22
40267	7	Sololá	710	Panajachel	8	Panajachel	6	Junio	2023-01-06T00:00:00	2024-11-08T10:00:00	1	Precipitación	0
40268	7	Sololá	710	Panajachel	8	Panajachel	6	Junio	2023-01-06T00:00:00	2024-11-08T10:00:00	8	Radiación solar	715
40269	7	Sololá	710	Panajachel	8	Panajachel	6	Junio	2023-01-06T00:00:00	2024-11-08T11:00:00	2	Temperatura media	23.8
40270	7	Sololá	710	Panajachel	8	Panajachel	6	Junio	2023-01-06T00:00:00	2024-11-08T11:00:00	4	Temperatura máxima	23.8
40271	7	Sololá	710	Panajachel	8	Panajachel	6	Junio	2023-01-06T00:00:00	2024-11-08T11:00:00	3	Temperatura mínima	21.6
40272	7	Sololá	710	Panajachel	8	Panajachel	6	Junio	2023-01-06T00:00:00	2024-11-08T11:00:00	5	Humedad	73
40273	7	Sololá	710	Panajachel	8	Panajachel	6	Junio	2023-01-06T00:00:00	2024-11-08T11:00:00	6	Velocidad del viento	1.6
40274	7	Sololá	710	Panajachel	8	Panajachel	6	Junio	2023-01-06T00:00:00	2024-11-08T11:00:00	7	Dirección del viento	1.61
40275	7	Sololá	710	Panajachel	8	Panajachel	6	Junio	2023-01-06T00:00:00	2024-11-08T11:00:00	1	Precipitación	0
40276	7	Sololá	710	Panajachel	8	Panajachel	6	Junio	2023-01-06T00:00:00	2024-11-08T11:00:00	8	Radiación solar	845
40277	7	Sololá	710	Panajachel	8	Panajachel	6	Junio	2023-01-06T00:00:00	2024-11-08T12:00:00	2	Temperatura media	24.3
40278	7	Sololá	710	Panajachel	8	Panajachel	6	Junio	2023-01-06T00:00:00	2024-11-08T12:00:00	4	Temperatura máxima	24.4
40279	7	Sololá	710	Panajachel	8	Panajachel	6	Junio	2023-01-06T00:00:00	2024-11-08T12:00:00	3	Temperatura mínima	23.2
40280	7	Sololá	710	Panajachel	8	Panajachel	6	Junio	2023-01-06T00:00:00	2024-11-08T12:00:00	5	Humedad	74
40281	7	Sololá	710	Panajachel	8	Panajachel	6	Junio	2023-01-06T00:00:00	2024-11-08T12:00:00	6	Velocidad del viento	3.2
40282	7	Sololá	710	Panajachel	8	Panajachel	6	Junio	2023-01-06T00:00:00	2024-11-08T12:00:00	7	Dirección del viento	3.22
40283	7	Sololá	710	Panajachel	8	Panajachel	6	Junio	2023-01-06T00:00:00	2024-11-08T12:00:00	1	Precipitación	0
40284	7	Sololá	710	Panajachel	8	Panajachel	6	Junio	2023-01-06T00:00:00	2024-11-08T12:00:00	8	Radiación solar	912
40285	7	Sololá	710	Panajachel	8	Panajachel	6	Junio	2023-01-06T00:00:00	2024-11-08T13:00:00	2	Temperatura media	23.1
40286	7	Sololá	710	Panajachel	8	Panajachel	6	Junio	2023-01-06T00:00:00	2024-11-08T13:00:00	4	Temperatura máxima	24.3
40287	7	Sololá	710	Panajachel	8	Panajachel	6	Junio	2023-01-06T00:00:00	2024-11-08T13:00:00	3	Temperatura mínima	23.1
40288	7	Sololá	710	Panajachel	8	Panajachel	6	Junio	2023-01-06T00:00:00	2024-11-08T13:00:00	5	Humedad	79
40289	7	Sololá	710	Panajachel	8	Panajachel	6	Junio	2023-01-06T00:00:00	2024-11-08T13:00:00	6	Velocidad del viento	4.8
40290	7	Sololá	710	Panajachel	8	Panajachel	6	Junio	2023-01-06T00:00:00	2024-11-08T13:00:00	7	Dirección del viento	4.83
40291	7	Sololá	710	Panajachel	8	Panajachel	6	Junio	2023-01-06T00:00:00	2024-11-08T13:00:00	1	Precipitación	0
40292	7	Sololá	710	Panajachel	8	Panajachel	6	Junio	2023-01-06T00:00:00	2024-11-08T13:00:00	8	Radiación solar	430
40293	7	Sololá	710	Panajachel	8	Panajachel	6	Junio	2023-01-06T00:00:00	2024-11-08T14:00:00	2	Temperatura media	23.4
40294	7	Sololá	710	Panajachel	8	Panajachel	6	Junio	2023-01-06T00:00:00	2024-11-08T14:00:00	4	Temperatura máxima	24.4
40295	7	Sololá	710	Panajachel	8	Panajachel	6	Junio	2023-01-06T00:00:00	2024-11-08T14:00:00	3	Temperatura mínima	23.1
40296	7	Sololá	710	Panajachel	8	Panajachel	6	Junio	2023-01-06T00:00:00	2024-11-08T14:00:00	5	Humedad	80
40297	7	Sololá	710	Panajachel	8	Panajachel	6	Junio	2023-01-06T00:00:00	2024-11-08T14:00:00	6	Velocidad del viento	4.8
40298	7	Sololá	710	Panajachel	8	Panajachel	6	Junio	2023-01-06T00:00:00	2024-11-08T14:00:00	7	Dirección del viento	4.83
40299	7	Sololá	710	Panajachel	8	Panajachel	6	Junio	2023-01-06T00:00:00	2024-11-08T14:00:00	1	Precipitación	0
40300	7	Sololá	710	Panajachel	8	Panajachel	6	Junio	2023-01-06T00:00:00	2024-11-08T14:00:00	8	Radiación solar	841
40301	7	Sololá	710	Panajachel	8	Panajachel	6	Junio	2023-01-06T00:00:00	2024-11-08T15:00:00	2	Temperatura media	24.3
40302	7	Sololá	710	Panajachel	8	Panajachel	6	Junio	2023-01-06T00:00:00	2024-11-08T15:00:00	4	Temperatura máxima	24.3
40303	7	Sololá	710	Panajachel	8	Panajachel	6	Junio	2023-01-06T00:00:00	2024-11-08T15:00:00	3	Temperatura mínima	23.1
40304	7	Sololá	710	Panajachel	8	Panajachel	6	Junio	2023-01-06T00:00:00	2024-11-08T15:00:00	5	Humedad	78
40305	7	Sololá	710	Panajachel	8	Panajachel	6	Junio	2023-01-06T00:00:00	2024-11-08T15:00:00	6	Velocidad del viento	4.8
40306	7	Sololá	710	Panajachel	8	Panajachel	6	Junio	2023-01-06T00:00:00	2024-11-08T15:00:00	7	Dirección del viento	4.83
40307	7	Sololá	710	Panajachel	8	Panajachel	6	Junio	2023-01-06T00:00:00	2024-11-08T15:00:00	1	Precipitación	0
40308	7	Sololá	710	Panajachel	8	Panajachel	6	Junio	2023-01-06T00:00:00	2024-11-08T15:00:00	8	Radiación solar	597
40309	7	Sololá	710	Panajachel	8	Panajachel	6	Junio	2023-01-06T00:00:00	2024-11-08T16:00:00	2	Temperatura media	22.9
40310	7	Sololá	710	Panajachel	8	Panajachel	6	Junio	2023-01-06T00:00:00	2024-11-08T16:00:00	4	Temperatura máxima	24.5
40311	7	Sololá	710	Panajachel	8	Panajachel	6	Junio	2023-01-06T00:00:00	2024-11-08T16:00:00	3	Temperatura mínima	22.7
40312	7	Sololá	710	Panajachel	8	Panajachel	6	Junio	2023-01-06T00:00:00	2024-11-08T16:00:00	5	Humedad	82
40313	7	Sololá	710	Panajachel	8	Panajachel	6	Junio	2023-01-06T00:00:00	2024-11-08T16:00:00	6	Velocidad del viento	6.4
40314	7	Sololá	710	Panajachel	8	Panajachel	6	Junio	2023-01-06T00:00:00	2024-11-08T16:00:00	7	Dirección del viento	6.44
40315	7	Sololá	710	Panajachel	8	Panajachel	6	Junio	2023-01-06T00:00:00	2024-11-08T16:00:00	1	Precipitación	0
40316	7	Sololá	710	Panajachel	8	Panajachel	6	Junio	2023-01-06T00:00:00	2024-11-08T16:00:00	8	Radiación solar	340
40317	7	Sololá	710	Panajachel	8	Panajachel	6	Junio	2023-01-06T00:00:00	2024-11-08T17:00:00	2	Temperatura media	22.7
40318	7	Sololá	710	Panajachel	8	Panajachel	6	Junio	2023-01-06T00:00:00	2024-11-08T17:00:00	4	Temperatura máxima	23
40319	7	Sololá	710	Panajachel	8	Panajachel	6	Junio	2023-01-06T00:00:00	2024-11-08T17:00:00	3	Temperatura mínima	22.6
40320	7	Sololá	710	Panajachel	8	Panajachel	6	Junio	2023-01-06T00:00:00	2024-11-08T17:00:00	5	Humedad	82
40321	7	Sololá	710	Panajachel	8	Panajachel	6	Junio	2023-01-06T00:00:00	2024-11-08T17:00:00	6	Velocidad del viento	4.8
40322	7	Sololá	710	Panajachel	8	Panajachel	6	Junio	2023-01-06T00:00:00	2024-11-08T17:00:00	7	Dirección del viento	4.83
40323	7	Sololá	710	Panajachel	8	Panajachel	6	Junio	2023-01-06T00:00:00	2024-11-08T17:00:00	1	Precipitación	0
40324	7	Sololá	710	Panajachel	8	Panajachel	6	Junio	2023-01-06T00:00:00	2024-11-08T17:00:00	8	Radiación solar	149
40325	7	Sololá	710	Panajachel	8	Panajachel	6	Junio	2023-01-06T00:00:00	2024-11-08T18:00:00	2	Temperatura media	22.2
40326	7	Sololá	710	Panajachel	8	Panajachel	6	Junio	2023-01-06T00:00:00	2024-11-08T18:00:00	4	Temperatura máxima	22.8
40327	7	Sololá	710	Panajachel	8	Panajachel	6	Junio	2023-01-06T00:00:00	2024-11-08T18:00:00	3	Temperatura mínima	22.2
40328	7	Sololá	710	Panajachel	8	Panajachel	6	Junio	2023-01-06T00:00:00	2024-11-08T18:00:00	5	Humedad	86
40329	7	Sololá	710	Panajachel	8	Panajachel	6	Junio	2023-01-06T00:00:00	2024-11-08T18:00:00	6	Velocidad del viento	1.6
40330	7	Sololá	710	Panajachel	8	Panajachel	6	Junio	2023-01-06T00:00:00	2024-11-08T18:00:00	7	Dirección del viento	1.61
40331	7	Sololá	710	Panajachel	8	Panajachel	6	Junio	2023-01-06T00:00:00	2024-11-08T18:00:00	1	Precipitación	0
40332	7	Sololá	710	Panajachel	8	Panajachel	6	Junio	2023-01-06T00:00:00	2024-11-08T18:00:00	8	Radiación solar	31
40333	7	Sololá	710	Panajachel	8	Panajachel	6	Junio	2023-01-06T00:00:00	2024-11-08T19:00:00	2	Temperatura media	21.6
40334	7	Sololá	710	Panajachel	8	Panajachel	6	Junio	2023-01-06T00:00:00	2024-11-08T19:00:00	4	Temperatura máxima	22.3
40335	7	Sololá	710	Panajachel	8	Panajachel	6	Junio	2023-01-06T00:00:00	2024-11-08T19:00:00	3	Temperatura mínima	21.6
40336	7	Sololá	710	Panajachel	8	Panajachel	6	Junio	2023-01-06T00:00:00	2024-11-08T19:00:00	5	Humedad	90
40337	7	Sololá	710	Panajachel	8	Panajachel	6	Junio	2023-01-06T00:00:00	2024-11-08T19:00:00	6	Velocidad del viento	1.6
40338	7	Sololá	710	Panajachel	8	Panajachel	6	Junio	2023-01-06T00:00:00	2024-11-08T19:00:00	7	Dirección del viento	1.61
40339	7	Sololá	710	Panajachel	8	Panajachel	6	Junio	2023-01-06T00:00:00	2024-11-08T19:00:00	1	Precipitación	0
40340	7	Sololá	710	Panajachel	8	Panajachel	6	Junio	2023-01-06T00:00:00	2024-11-08T19:00:00	8	Radiación solar	0
40341	7	Sololá	710	Panajachel	8	Panajachel	6	Junio	2023-01-06T00:00:00	2024-11-08T20:00:00	2	Temperatura media	21.2
40342	7	Sololá	710	Panajachel	8	Panajachel	6	Junio	2023-01-06T00:00:00	2024-11-08T20:00:00	4	Temperatura máxima	21.6
40343	7	Sololá	710	Panajachel	8	Panajachel	6	Junio	2023-01-06T00:00:00	2024-11-08T20:00:00	3	Temperatura mínima	21.2
40344	7	Sololá	710	Panajachel	8	Panajachel	6	Junio	2023-01-06T00:00:00	2024-11-08T20:00:00	5	Humedad	90
40345	7	Sololá	710	Panajachel	8	Panajachel	6	Junio	2023-01-06T00:00:00	2024-11-08T20:00:00	6	Velocidad del viento	1.6
40346	7	Sololá	710	Panajachel	8	Panajachel	6	Junio	2023-01-06T00:00:00	2024-11-08T20:00:00	7	Dirección del viento	1.61
40347	7	Sololá	710	Panajachel	8	Panajachel	6	Junio	2023-01-06T00:00:00	2024-11-08T20:00:00	1	Precipitación	0
40348	7	Sololá	710	Panajachel	8	Panajachel	6	Junio	2023-01-06T00:00:00	2024-11-08T20:00:00	8	Radiación solar	0
40349	7	Sololá	710	Panajachel	8	Panajachel	6	Junio	2023-01-06T00:00:00	2024-11-08T21:00:00	2	Temperatura media	20.9
40350	7	Sololá	710	Panajachel	8	Panajachel	6	Junio	2023-01-06T00:00:00	2024-11-08T21:00:00	4	Temperatura máxima	21.3
40351	7	Sololá	710	Panajachel	8	Panajachel	6	Junio	2023-01-06T00:00:00	2024-11-08T21:00:00	3	Temperatura mínima	20.8
40352	7	Sololá	710	Panajachel	8	Panajachel	6	Junio	2023-01-06T00:00:00	2024-11-08T21:00:00	5	Humedad	89
40353	7	Sololá	710	Panajachel	8	Panajachel	6	Junio	2023-01-06T00:00:00	2024-11-08T21:00:00	6	Velocidad del viento	1.6
40354	7	Sololá	710	Panajachel	8	Panajachel	6	Junio	2023-01-06T00:00:00	2024-11-08T21:00:00	7	Dirección del viento	1.61
40355	7	Sololá	710	Panajachel	8	Panajachel	6	Junio	2023-01-06T00:00:00	2024-11-08T21:00:00	1	Precipitación	0
40356	7	Sololá	710	Panajachel	8	Panajachel	6	Junio	2023-01-06T00:00:00	2024-11-08T21:00:00	8	Radiación solar	0
40357	7	Sololá	710	Panajachel	8	Panajachel	6	Junio	2023-01-06T00:00:00	2024-11-08T22:00:00	2	Temperatura media	20.2
40358	7	Sololá	710	Panajachel	8	Panajachel	6	Junio	2023-01-06T00:00:00	2024-11-08T22:00:00	4	Temperatura máxima	21
40359	7	Sololá	710	Panajachel	8	Panajachel	6	Junio	2023-01-06T00:00:00	2024-11-08T22:00:00	3	Temperatura mínima	20.2
40360	7	Sololá	710	Panajachel	8	Panajachel	6	Junio	2023-01-06T00:00:00	2024-11-08T22:00:00	5	Humedad	93
40361	7	Sololá	710	Panajachel	8	Panajachel	6	Junio	2023-01-06T00:00:00	2024-11-08T22:00:00	6	Velocidad del viento	1.6
40362	7	Sololá	710	Panajachel	8	Panajachel	6	Junio	2023-01-06T00:00:00	2024-11-08T22:00:00	7	Dirección del viento	1.61
40363	7	Sololá	710	Panajachel	8	Panajachel	6	Junio	2023-01-06T00:00:00	2024-11-08T22:00:00	1	Precipitación	0
40364	7	Sololá	710	Panajachel	8	Panajachel	6	Junio	2023-01-06T00:00:00	2024-11-08T22:00:00	8	Radiación solar	0
40365	7	Sololá	710	Panajachel	8	Panajachel	6	Junio	2023-01-06T00:00:00	2024-11-08T23:00:00	2	Temperatura media	20.4
40366	7	Sololá	710	Panajachel	8	Panajachel	6	Junio	2023-01-06T00:00:00	2024-11-08T23:00:00	4	Temperatura máxima	20.4
40367	7	Sololá	710	Panajachel	8	Panajachel	6	Junio	2023-01-06T00:00:00	2024-11-08T23:00:00	3	Temperatura mínima	20.2
40368	7	Sololá	710	Panajachel	8	Panajachel	6	Junio	2023-01-06T00:00:00	2024-11-08T23:00:00	5	Humedad	91
40369	7	Sololá	710	Panajachel	8	Panajachel	6	Junio	2023-01-06T00:00:00	2024-11-08T23:00:00	6	Velocidad del viento	1.6
40370	7	Sololá	710	Panajachel	8	Panajachel	6	Junio	2023-01-06T00:00:00	2024-11-08T23:00:00	7	Dirección del viento	1.61
40371	7	Sololá	710	Panajachel	8	Panajachel	6	Junio	2023-01-06T00:00:00	2024-11-08T23:00:00	1	Precipitación	0
40372	7	Sololá	710	Panajachel	8	Panajachel	6	Junio	2023-01-06T00:00:00	2024-11-08T23:00:00	8	Radiación solar	0
40373	7	Sololá	710	Panajachel	8	Panajachel	6	Junio	2023-02-06T00:00:00	2024-11-08T00:00:00	2	Temperatura media	19.7
40374	7	Sololá	710	Panajachel	8	Panajachel	6	Junio	2023-02-06T00:00:00	2024-11-08T00:00:00	4	Temperatura máxima	20.4
40375	7	Sololá	710	Panajachel	8	Panajachel	6	Junio	2023-02-06T00:00:00	2024-11-08T00:00:00	3	Temperatura mínima	19.7
40376	7	Sololá	710	Panajachel	8	Panajachel	6	Junio	2023-02-06T00:00:00	2024-11-08T00:00:00	5	Humedad	88
40377	7	Sololá	710	Panajachel	8	Panajachel	6	Junio	2023-02-06T00:00:00	2024-11-08T00:00:00	6	Velocidad del viento	0
40378	7	Sololá	710	Panajachel	8	Panajachel	6	Junio	2023-02-06T00:00:00	2024-11-08T00:00:00	7	Dirección del viento	0
40379	7	Sololá	710	Panajachel	8	Panajachel	6	Junio	2023-02-06T00:00:00	2024-11-08T00:00:00	1	Precipitación	0
40380	7	Sololá	710	Panajachel	8	Panajachel	6	Junio	2023-02-06T00:00:00	2024-11-08T00:00:00	8	Radiación solar	0
40381	7	Sololá	710	Panajachel	8	Panajachel	6	Junio	2023-02-06T00:00:00	2024-11-08T01:00:00	2	Temperatura media	19.1
40382	7	Sololá	710	Panajachel	8	Panajachel	6	Junio	2023-02-06T00:00:00	2024-11-08T01:00:00	4	Temperatura máxima	19.7
40383	7	Sololá	710	Panajachel	8	Panajachel	6	Junio	2023-02-06T00:00:00	2024-11-08T01:00:00	3	Temperatura mínima	19.1
40384	7	Sololá	710	Panajachel	8	Panajachel	6	Junio	2023-02-06T00:00:00	2024-11-08T01:00:00	5	Humedad	89
40385	7	Sololá	710	Panajachel	8	Panajachel	6	Junio	2023-02-06T00:00:00	2024-11-08T01:00:00	6	Velocidad del viento	1.6
40386	7	Sololá	710	Panajachel	8	Panajachel	6	Junio	2023-02-06T00:00:00	2024-11-08T01:00:00	7	Dirección del viento	1.61
40387	7	Sololá	710	Panajachel	8	Panajachel	6	Junio	2023-02-06T00:00:00	2024-11-08T01:00:00	1	Precipitación	0
40388	7	Sololá	710	Panajachel	8	Panajachel	6	Junio	2023-02-06T00:00:00	2024-11-08T01:00:00	8	Radiación solar	0
40389	7	Sololá	710	Panajachel	8	Panajachel	6	Junio	2023-02-06T00:00:00	2024-11-08T02:00:00	2	Temperatura media	18.7
40390	7	Sololá	710	Panajachel	8	Panajachel	6	Junio	2023-02-06T00:00:00	2024-11-08T02:00:00	4	Temperatura máxima	19.1
40391	7	Sololá	710	Panajachel	8	Panajachel	6	Junio	2023-02-06T00:00:00	2024-11-08T02:00:00	3	Temperatura mínima	18.6
40392	7	Sololá	710	Panajachel	8	Panajachel	6	Junio	2023-02-06T00:00:00	2024-11-08T02:00:00	5	Humedad	85
40393	7	Sololá	710	Panajachel	8	Panajachel	6	Junio	2023-02-06T00:00:00	2024-11-08T02:00:00	6	Velocidad del viento	1.6
40394	7	Sololá	710	Panajachel	8	Panajachel	6	Junio	2023-02-06T00:00:00	2024-11-08T02:00:00	7	Dirección del viento	1.61
40395	7	Sololá	710	Panajachel	8	Panajachel	6	Junio	2023-02-06T00:00:00	2024-11-08T02:00:00	1	Precipitación	0
40396	7	Sololá	710	Panajachel	8	Panajachel	6	Junio	2023-02-06T00:00:00	2024-11-08T02:00:00	8	Radiación solar	0
40397	7	Sololá	710	Panajachel	8	Panajachel	6	Junio	2023-02-06T00:00:00	2024-11-08T03:00:00	2	Temperatura media	18.3
40398	7	Sololá	710	Panajachel	8	Panajachel	6	Junio	2023-02-06T00:00:00	2024-11-08T03:00:00	4	Temperatura máxima	18.7
40399	7	Sololá	710	Panajachel	8	Panajachel	6	Junio	2023-02-06T00:00:00	2024-11-08T03:00:00	3	Temperatura mínima	18.3
40400	7	Sololá	710	Panajachel	8	Panajachel	6	Junio	2023-02-06T00:00:00	2024-11-08T03:00:00	5	Humedad	85
40401	7	Sololá	710	Panajachel	8	Panajachel	6	Junio	2023-02-06T00:00:00	2024-11-08T03:00:00	6	Velocidad del viento	1.6
40402	7	Sololá	710	Panajachel	8	Panajachel	6	Junio	2023-02-06T00:00:00	2024-11-08T03:00:00	7	Dirección del viento	1.61
40403	7	Sololá	710	Panajachel	8	Panajachel	6	Junio	2023-02-06T00:00:00	2024-11-08T03:00:00	1	Precipitación	0
40404	7	Sololá	710	Panajachel	8	Panajachel	6	Junio	2023-02-06T00:00:00	2024-11-08T03:00:00	8	Radiación solar	0
40405	7	Sololá	710	Panajachel	8	Panajachel	6	Junio	2023-02-06T00:00:00	2024-11-08T04:00:00	2	Temperatura media	17.3
40406	7	Sololá	710	Panajachel	8	Panajachel	6	Junio	2023-02-06T00:00:00	2024-11-08T04:00:00	4	Temperatura máxima	18.3
40407	7	Sololá	710	Panajachel	8	Panajachel	6	Junio	2023-02-06T00:00:00	2024-11-08T04:00:00	3	Temperatura mínima	17.3
40408	7	Sololá	710	Panajachel	8	Panajachel	6	Junio	2023-02-06T00:00:00	2024-11-08T04:00:00	5	Humedad	87
40409	7	Sololá	710	Panajachel	8	Panajachel	6	Junio	2023-02-06T00:00:00	2024-11-08T04:00:00	6	Velocidad del viento	1.6
40410	7	Sololá	710	Panajachel	8	Panajachel	6	Junio	2023-02-06T00:00:00	2024-11-08T04:00:00	7	Dirección del viento	1.61
40411	7	Sololá	710	Panajachel	8	Panajachel	6	Junio	2023-02-06T00:00:00	2024-11-08T04:00:00	1	Precipitación	0
40412	7	Sololá	710	Panajachel	8	Panajachel	6	Junio	2023-02-06T00:00:00	2024-11-08T04:00:00	8	Radiación solar	0
40413	7	Sololá	710	Panajachel	8	Panajachel	6	Junio	2023-02-06T00:00:00	2024-11-08T05:00:00	2	Temperatura media	17.6
40414	7	Sololá	710	Panajachel	8	Panajachel	6	Junio	2023-02-06T00:00:00	2024-11-08T05:00:00	4	Temperatura máxima	17.7
40415	7	Sololá	710	Panajachel	8	Panajachel	6	Junio	2023-02-06T00:00:00	2024-11-08T05:00:00	3	Temperatura mínima	17.3
40416	7	Sololá	710	Panajachel	8	Panajachel	6	Junio	2023-02-06T00:00:00	2024-11-08T05:00:00	5	Humedad	84
40417	7	Sololá	710	Panajachel	8	Panajachel	6	Junio	2023-02-06T00:00:00	2024-11-08T05:00:00	6	Velocidad del viento	3.2
40418	7	Sololá	710	Panajachel	8	Panajachel	6	Junio	2023-02-06T00:00:00	2024-11-08T05:00:00	7	Dirección del viento	3.22
40419	7	Sololá	710	Panajachel	8	Panajachel	6	Junio	2023-02-06T00:00:00	2024-11-08T05:00:00	1	Precipitación	0
40420	7	Sololá	710	Panajachel	8	Panajachel	6	Junio	2023-02-06T00:00:00	2024-11-08T05:00:00	8	Radiación solar	0
40421	7	Sololá	710	Panajachel	8	Panajachel	6	Junio	2023-02-06T00:00:00	2024-11-08T06:00:00	2	Temperatura media	17.3
40422	7	Sololá	710	Panajachel	8	Panajachel	6	Junio	2023-02-06T00:00:00	2024-11-08T06:00:00	4	Temperatura máxima	17.6
40423	7	Sololá	710	Panajachel	8	Panajachel	6	Junio	2023-02-06T00:00:00	2024-11-08T06:00:00	3	Temperatura mínima	17.2
40424	7	Sololá	710	Panajachel	8	Panajachel	6	Junio	2023-02-06T00:00:00	2024-11-08T06:00:00	5	Humedad	86
40425	7	Sololá	710	Panajachel	8	Panajachel	6	Junio	2023-02-06T00:00:00	2024-11-08T06:00:00	6	Velocidad del viento	3.2
40426	7	Sololá	710	Panajachel	8	Panajachel	6	Junio	2023-02-06T00:00:00	2024-11-08T06:00:00	7	Dirección del viento	3.22
40427	7	Sololá	710	Panajachel	8	Panajachel	6	Junio	2023-02-06T00:00:00	2024-11-08T06:00:00	1	Precipitación	0
40428	7	Sololá	710	Panajachel	8	Panajachel	6	Junio	2023-02-06T00:00:00	2024-11-08T06:00:00	8	Radiación solar	4
40429	7	Sololá	710	Panajachel	8	Panajachel	6	Junio	2023-02-06T00:00:00	2024-11-08T07:00:00	2	Temperatura media	19.2
40430	7	Sololá	710	Panajachel	8	Panajachel	6	Junio	2023-02-06T00:00:00	2024-11-08T07:00:00	4	Temperatura máxima	19.2
40431	7	Sololá	710	Panajachel	8	Panajachel	6	Junio	2023-02-06T00:00:00	2024-11-08T07:00:00	3	Temperatura mínima	17.3
40432	7	Sololá	710	Panajachel	8	Panajachel	6	Junio	2023-02-06T00:00:00	2024-11-08T07:00:00	5	Humedad	80
40433	7	Sololá	710	Panajachel	8	Panajachel	6	Junio	2023-02-06T00:00:00	2024-11-08T07:00:00	6	Velocidad del viento	1.6
40434	7	Sololá	710	Panajachel	8	Panajachel	6	Junio	2023-02-06T00:00:00	2024-11-08T07:00:00	7	Dirección del viento	1.61
40435	7	Sololá	710	Panajachel	8	Panajachel	6	Junio	2023-02-06T00:00:00	2024-11-08T07:00:00	1	Precipitación	0
40436	7	Sololá	710	Panajachel	8	Panajachel	6	Junio	2023-02-06T00:00:00	2024-11-08T07:00:00	8	Radiación solar	102
40437	7	Sololá	710	Panajachel	8	Panajachel	6	Junio	2023-02-06T00:00:00	2024-11-08T08:00:00	2	Temperatura media	21.6
40438	7	Sololá	710	Panajachel	8	Panajachel	6	Junio	2023-02-06T00:00:00	2024-11-08T08:00:00	4	Temperatura máxima	21.6
40439	7	Sololá	710	Panajachel	8	Panajachel	6	Junio	2023-02-06T00:00:00	2024-11-08T08:00:00	3	Temperatura mínima	19.2
40440	7	Sololá	710	Panajachel	8	Panajachel	6	Junio	2023-02-06T00:00:00	2024-11-08T08:00:00	5	Humedad	75
40441	7	Sololá	710	Panajachel	8	Panajachel	6	Junio	2023-02-06T00:00:00	2024-11-08T08:00:00	6	Velocidad del viento	1.6
40442	7	Sololá	710	Panajachel	8	Panajachel	6	Junio	2023-02-06T00:00:00	2024-11-08T08:00:00	7	Dirección del viento	1.61
40443	7	Sololá	710	Panajachel	8	Panajachel	6	Junio	2023-02-06T00:00:00	2024-11-08T08:00:00	1	Precipitación	0
40444	7	Sololá	710	Panajachel	8	Panajachel	6	Junio	2023-02-06T00:00:00	2024-11-08T08:00:00	8	Radiación solar	319
40445	7	Sololá	710	Panajachel	8	Panajachel	6	Junio	2023-02-06T00:00:00	2024-11-08T09:00:00	2	Temperatura media	22.1
40446	7	Sololá	710	Panajachel	8	Panajachel	6	Junio	2023-02-06T00:00:00	2024-11-08T09:00:00	4	Temperatura máxima	22.2
40447	7	Sololá	710	Panajachel	8	Panajachel	6	Junio	2023-02-06T00:00:00	2024-11-08T09:00:00	3	Temperatura mínima	21.6
40448	7	Sololá	710	Panajachel	8	Panajachel	6	Junio	2023-02-06T00:00:00	2024-11-08T09:00:00	5	Humedad	79
40449	7	Sololá	710	Panajachel	8	Panajachel	6	Junio	2023-02-06T00:00:00	2024-11-08T09:00:00	6	Velocidad del viento	1.6
40450	7	Sololá	710	Panajachel	8	Panajachel	6	Junio	2023-02-06T00:00:00	2024-11-08T09:00:00	7	Dirección del viento	1.61
40451	7	Sololá	710	Panajachel	8	Panajachel	6	Junio	2023-02-06T00:00:00	2024-11-08T09:00:00	1	Precipitación	0
40452	7	Sololá	710	Panajachel	8	Panajachel	6	Junio	2023-02-06T00:00:00	2024-11-08T09:00:00	8	Radiación solar	533
40453	7	Sololá	710	Panajachel	8	Panajachel	6	Junio	2023-02-06T00:00:00	2024-11-08T10:00:00	2	Temperatura media	23.3
40454	7	Sololá	710	Panajachel	8	Panajachel	6	Junio	2023-02-06T00:00:00	2024-11-08T10:00:00	4	Temperatura máxima	23.3
40455	7	Sololá	710	Panajachel	8	Panajachel	6	Junio	2023-02-06T00:00:00	2024-11-08T10:00:00	3	Temperatura mínima	22.2
40456	7	Sololá	710	Panajachel	8	Panajachel	6	Junio	2023-02-06T00:00:00	2024-11-08T10:00:00	5	Humedad	75
40457	7	Sololá	710	Panajachel	8	Panajachel	6	Junio	2023-02-06T00:00:00	2024-11-08T10:00:00	6	Velocidad del viento	1.6
40458	7	Sololá	710	Panajachel	8	Panajachel	6	Junio	2023-02-06T00:00:00	2024-11-08T10:00:00	7	Dirección del viento	1.61
40459	7	Sololá	710	Panajachel	8	Panajachel	6	Junio	2023-02-06T00:00:00	2024-11-08T10:00:00	1	Precipitación	0
40460	7	Sololá	710	Panajachel	8	Panajachel	6	Junio	2023-02-06T00:00:00	2024-11-08T10:00:00	8	Radiación solar	717
40461	7	Sololá	710	Panajachel	8	Panajachel	6	Junio	2023-02-06T00:00:00	2024-11-08T11:00:00	2	Temperatura media	22.8
40462	7	Sololá	710	Panajachel	8	Panajachel	6	Junio	2023-02-06T00:00:00	2024-11-08T11:00:00	4	Temperatura máxima	23.5
40463	7	Sololá	710	Panajachel	8	Panajachel	6	Junio	2023-02-06T00:00:00	2024-11-08T11:00:00	3	Temperatura mínima	22.5
40464	7	Sololá	710	Panajachel	8	Panajachel	6	Junio	2023-02-06T00:00:00	2024-11-08T11:00:00	5	Humedad	76
40465	7	Sololá	710	Panajachel	8	Panajachel	6	Junio	2023-02-06T00:00:00	2024-11-08T11:00:00	6	Velocidad del viento	4.8
40466	7	Sololá	710	Panajachel	8	Panajachel	6	Junio	2023-02-06T00:00:00	2024-11-08T11:00:00	7	Dirección del viento	4.83
40467	7	Sololá	710	Panajachel	8	Panajachel	6	Junio	2023-02-06T00:00:00	2024-11-08T11:00:00	1	Precipitación	0
40468	7	Sololá	710	Panajachel	8	Panajachel	6	Junio	2023-02-06T00:00:00	2024-11-08T11:00:00	8	Radiación solar	829
40469	7	Sololá	710	Panajachel	8	Panajachel	6	Junio	2023-02-06T00:00:00	2024-11-08T12:00:00	2	Temperatura media	23.7
40470	7	Sololá	710	Panajachel	8	Panajachel	6	Junio	2023-02-06T00:00:00	2024-11-08T12:00:00	4	Temperatura máxima	24.1
40471	7	Sololá	710	Panajachel	8	Panajachel	6	Junio	2023-02-06T00:00:00	2024-11-08T12:00:00	3	Temperatura mínima	22.8
40472	7	Sololá	710	Panajachel	8	Panajachel	6	Junio	2023-02-06T00:00:00	2024-11-08T12:00:00	5	Humedad	80
40473	7	Sololá	710	Panajachel	8	Panajachel	6	Junio	2023-02-06T00:00:00	2024-11-08T12:00:00	6	Velocidad del viento	3.2
40474	7	Sololá	710	Panajachel	8	Panajachel	6	Junio	2023-02-06T00:00:00	2024-11-08T12:00:00	7	Dirección del viento	3.22
40475	7	Sololá	710	Panajachel	8	Panajachel	6	Junio	2023-02-06T00:00:00	2024-11-08T12:00:00	1	Precipitación	0
40476	7	Sololá	710	Panajachel	8	Panajachel	6	Junio	2023-02-06T00:00:00	2024-11-08T12:00:00	8	Radiación solar	853
40477	7	Sololá	710	Panajachel	8	Panajachel	6	Junio	2023-02-06T00:00:00	2024-11-08T13:00:00	2	Temperatura media	24.5
40478	7	Sololá	710	Panajachel	8	Panajachel	6	Junio	2023-02-06T00:00:00	2024-11-08T13:00:00	4	Temperatura máxima	25.1
40479	7	Sololá	710	Panajachel	8	Panajachel	6	Junio	2023-02-06T00:00:00	2024-11-08T13:00:00	3	Temperatura mínima	23.6
40480	7	Sololá	710	Panajachel	8	Panajachel	6	Junio	2023-02-06T00:00:00	2024-11-08T13:00:00	5	Humedad	78
40481	7	Sololá	710	Panajachel	8	Panajachel	6	Junio	2023-02-06T00:00:00	2024-11-08T13:00:00	6	Velocidad del viento	3.2
40482	7	Sololá	710	Panajachel	8	Panajachel	6	Junio	2023-02-06T00:00:00	2024-11-08T13:00:00	7	Dirección del viento	3.22
40483	7	Sololá	710	Panajachel	8	Panajachel	6	Junio	2023-02-06T00:00:00	2024-11-08T13:00:00	1	Precipitación	0
40484	7	Sololá	710	Panajachel	8	Panajachel	6	Junio	2023-02-06T00:00:00	2024-11-08T13:00:00	8	Radiación solar	799
40485	7	Sololá	710	Panajachel	8	Panajachel	6	Junio	2023-02-06T00:00:00	2024-11-08T14:00:00	2	Temperatura media	24.6
40486	7	Sololá	710	Panajachel	8	Panajachel	6	Junio	2023-02-06T00:00:00	2024-11-08T14:00:00	4	Temperatura máxima	24.6
40487	7	Sololá	710	Panajachel	8	Panajachel	6	Junio	2023-02-06T00:00:00	2024-11-08T14:00:00	3	Temperatura mínima	24.3
40488	7	Sololá	710	Panajachel	8	Panajachel	6	Junio	2023-02-06T00:00:00	2024-11-08T14:00:00	5	Humedad	79
40489	7	Sololá	710	Panajachel	8	Panajachel	6	Junio	2023-02-06T00:00:00	2024-11-08T14:00:00	6	Velocidad del viento	4.8
40490	7	Sololá	710	Panajachel	8	Panajachel	6	Junio	2023-02-06T00:00:00	2024-11-08T14:00:00	7	Dirección del viento	4.83
40491	7	Sololá	710	Panajachel	8	Panajachel	6	Junio	2023-02-06T00:00:00	2024-11-08T14:00:00	1	Precipitación	0
40492	7	Sololá	710	Panajachel	8	Panajachel	6	Junio	2023-02-06T00:00:00	2024-11-08T14:00:00	8	Radiación solar	808
40493	7	Sololá	710	Panajachel	8	Panajachel	6	Junio	2023-02-06T00:00:00	2024-11-08T15:00:00	2	Temperatura media	23.8
40494	7	Sololá	710	Panajachel	8	Panajachel	6	Junio	2023-02-06T00:00:00	2024-11-08T15:00:00	4	Temperatura máxima	24.7
40495	7	Sololá	710	Panajachel	8	Panajachel	6	Junio	2023-02-06T00:00:00	2024-11-08T15:00:00	3	Temperatura mínima	23.7
40496	7	Sololá	710	Panajachel	8	Panajachel	6	Junio	2023-02-06T00:00:00	2024-11-08T15:00:00	5	Humedad	83
40497	7	Sololá	710	Panajachel	8	Panajachel	6	Junio	2023-02-06T00:00:00	2024-11-08T15:00:00	6	Velocidad del viento	8
40498	7	Sololá	710	Panajachel	8	Panajachel	6	Junio	2023-02-06T00:00:00	2024-11-08T15:00:00	7	Dirección del viento	8.05
40499	7	Sololá	710	Panajachel	8	Panajachel	6	Junio	2023-02-06T00:00:00	2024-11-08T15:00:00	1	Precipitación	0
40500	7	Sololá	710	Panajachel	8	Panajachel	6	Junio	2023-02-06T00:00:00	2024-11-08T15:00:00	8	Radiación solar	591
40501	7	Sololá	710	Panajachel	8	Panajachel	6	Junio	2023-02-06T00:00:00	2024-11-08T16:00:00	2	Temperatura media	23.2
40502	7	Sololá	710	Panajachel	8	Panajachel	6	Junio	2023-02-06T00:00:00	2024-11-08T16:00:00	4	Temperatura máxima	24.8
40503	7	Sololá	710	Panajachel	8	Panajachel	6	Junio	2023-02-06T00:00:00	2024-11-08T16:00:00	3	Temperatura mínima	23.2
40504	7	Sololá	710	Panajachel	8	Panajachel	6	Junio	2023-02-06T00:00:00	2024-11-08T16:00:00	5	Humedad	83
40505	7	Sololá	710	Panajachel	8	Panajachel	6	Junio	2023-02-06T00:00:00	2024-11-08T16:00:00	6	Velocidad del viento	4.8
40506	7	Sololá	710	Panajachel	8	Panajachel	6	Junio	2023-02-06T00:00:00	2024-11-08T16:00:00	7	Dirección del viento	4.83
40507	7	Sololá	710	Panajachel	8	Panajachel	6	Junio	2023-02-06T00:00:00	2024-11-08T16:00:00	1	Precipitación	0
40508	7	Sololá	710	Panajachel	8	Panajachel	6	Junio	2023-02-06T00:00:00	2024-11-08T16:00:00	8	Radiación solar	348
40509	7	Sololá	710	Panajachel	8	Panajachel	6	Junio	2023-02-06T00:00:00	2024-11-08T17:00:00	2	Temperatura media	22.7
40510	7	Sololá	710	Panajachel	8	Panajachel	6	Junio	2023-02-06T00:00:00	2024-11-08T17:00:00	4	Temperatura máxima	23.2
40511	7	Sololá	710	Panajachel	8	Panajachel	6	Junio	2023-02-06T00:00:00	2024-11-08T17:00:00	3	Temperatura mínima	22.6
40512	7	Sololá	710	Panajachel	8	Panajachel	6	Junio	2023-02-06T00:00:00	2024-11-08T17:00:00	5	Humedad	84
40513	7	Sololá	710	Panajachel	8	Panajachel	6	Junio	2023-02-06T00:00:00	2024-11-08T17:00:00	6	Velocidad del viento	3.2
40514	7	Sololá	710	Panajachel	8	Panajachel	6	Junio	2023-02-06T00:00:00	2024-11-08T17:00:00	7	Dirección del viento	3.22
40515	7	Sololá	710	Panajachel	8	Panajachel	6	Junio	2023-02-06T00:00:00	2024-11-08T17:00:00	1	Precipitación	0
40516	7	Sololá	710	Panajachel	8	Panajachel	6	Junio	2023-02-06T00:00:00	2024-11-08T17:00:00	8	Radiación solar	79
40517	7	Sololá	710	Panajachel	8	Panajachel	6	Junio	2023-02-06T00:00:00	2024-11-08T18:00:00	2	Temperatura media	22.3
40518	7	Sololá	710	Panajachel	8	Panajachel	6	Junio	2023-02-06T00:00:00	2024-11-08T18:00:00	4	Temperatura máxima	22.8
40519	7	Sololá	710	Panajachel	8	Panajachel	6	Junio	2023-02-06T00:00:00	2024-11-08T18:00:00	3	Temperatura mínima	22.3
40520	7	Sololá	710	Panajachel	8	Panajachel	6	Junio	2023-02-06T00:00:00	2024-11-08T18:00:00	5	Humedad	84
40521	7	Sololá	710	Panajachel	8	Panajachel	6	Junio	2023-02-06T00:00:00	2024-11-08T18:00:00	6	Velocidad del viento	0
40522	7	Sololá	710	Panajachel	8	Panajachel	6	Junio	2023-02-06T00:00:00	2024-11-08T18:00:00	7	Dirección del viento	0
40523	7	Sololá	710	Panajachel	8	Panajachel	6	Junio	2023-02-06T00:00:00	2024-11-08T18:00:00	1	Precipitación	0
40524	7	Sololá	710	Panajachel	8	Panajachel	6	Junio	2023-02-06T00:00:00	2024-11-08T18:00:00	8	Radiación solar	34
40525	7	Sololá	710	Panajachel	8	Panajachel	6	Junio	2023-02-06T00:00:00	2024-11-08T19:00:00	2	Temperatura media	21.6
40526	7	Sololá	710	Panajachel	8	Panajachel	6	Junio	2023-02-06T00:00:00	2024-11-08T19:00:00	4	Temperatura máxima	22.3
40527	7	Sololá	710	Panajachel	8	Panajachel	6	Junio	2023-02-06T00:00:00	2024-11-08T19:00:00	3	Temperatura mínima	21.6
40528	7	Sololá	710	Panajachel	8	Panajachel	6	Junio	2023-02-06T00:00:00	2024-11-08T19:00:00	5	Humedad	88
40529	7	Sololá	710	Panajachel	8	Panajachel	6	Junio	2023-02-06T00:00:00	2024-11-08T19:00:00	6	Velocidad del viento	0
40530	7	Sololá	710	Panajachel	8	Panajachel	6	Junio	2023-02-06T00:00:00	2024-11-08T19:00:00	7	Dirección del viento	0
40531	7	Sololá	710	Panajachel	8	Panajachel	6	Junio	2023-02-06T00:00:00	2024-11-08T19:00:00	1	Precipitación	0
40532	7	Sololá	710	Panajachel	8	Panajachel	6	Junio	2023-02-06T00:00:00	2024-11-08T19:00:00	8	Radiación solar	0
40533	7	Sololá	710	Panajachel	8	Panajachel	6	Junio	2023-02-06T00:00:00	2024-11-08T20:00:00	2	Temperatura media	20.7
40534	7	Sololá	710	Panajachel	8	Panajachel	6	Junio	2023-02-06T00:00:00	2024-11-08T20:00:00	4	Temperatura máxima	21.6
40535	7	Sololá	710	Panajachel	8	Panajachel	6	Junio	2023-02-06T00:00:00	2024-11-08T20:00:00	3	Temperatura mínima	20.7
40536	7	Sololá	710	Panajachel	8	Panajachel	6	Junio	2023-02-06T00:00:00	2024-11-08T20:00:00	5	Humedad	89
40537	7	Sololá	710	Panajachel	8	Panajachel	6	Junio	2023-02-06T00:00:00	2024-11-08T20:00:00	6	Velocidad del viento	1.6
40538	7	Sololá	710	Panajachel	8	Panajachel	6	Junio	2023-02-06T00:00:00	2024-11-08T20:00:00	7	Dirección del viento	1.61
40539	7	Sololá	710	Panajachel	8	Panajachel	6	Junio	2023-02-06T00:00:00	2024-11-08T20:00:00	1	Precipitación	0
40540	7	Sololá	710	Panajachel	8	Panajachel	6	Junio	2023-02-06T00:00:00	2024-11-08T20:00:00	8	Radiación solar	0
40541	7	Sololá	710	Panajachel	8	Panajachel	6	Junio	2023-02-06T00:00:00	2024-11-08T21:00:00	2	Temperatura media	20.7
40542	7	Sololá	710	Panajachel	8	Panajachel	6	Junio	2023-02-06T00:00:00	2024-11-08T21:00:00	4	Temperatura máxima	21.1
40543	7	Sololá	710	Panajachel	8	Panajachel	6	Junio	2023-02-06T00:00:00	2024-11-08T21:00:00	3	Temperatura mínima	20.6
40544	7	Sololá	710	Panajachel	8	Panajachel	6	Junio	2023-02-06T00:00:00	2024-11-08T21:00:00	5	Humedad	87
40545	7	Sololá	710	Panajachel	8	Panajachel	6	Junio	2023-02-06T00:00:00	2024-11-08T21:00:00	6	Velocidad del viento	1.6
40546	7	Sololá	710	Panajachel	8	Panajachel	6	Junio	2023-02-06T00:00:00	2024-11-08T21:00:00	7	Dirección del viento	1.61
40547	7	Sololá	710	Panajachel	8	Panajachel	6	Junio	2023-02-06T00:00:00	2024-11-08T21:00:00	1	Precipitación	0
40548	7	Sololá	710	Panajachel	8	Panajachel	6	Junio	2023-02-06T00:00:00	2024-11-08T21:00:00	8	Radiación solar	0
40549	7	Sololá	710	Panajachel	8	Panajachel	6	Junio	2023-02-06T00:00:00	2024-11-08T22:00:00	2	Temperatura media	20.4
40550	7	Sololá	710	Panajachel	8	Panajachel	6	Junio	2023-02-06T00:00:00	2024-11-08T22:00:00	4	Temperatura máxima	20.7
40551	7	Sololá	710	Panajachel	8	Panajachel	6	Junio	2023-02-06T00:00:00	2024-11-08T22:00:00	3	Temperatura mínima	20.4
40552	7	Sololá	710	Panajachel	8	Panajachel	6	Junio	2023-02-06T00:00:00	2024-11-08T22:00:00	5	Humedad	89
40553	7	Sololá	710	Panajachel	8	Panajachel	6	Junio	2023-02-06T00:00:00	2024-11-08T22:00:00	6	Velocidad del viento	1.6
40554	7	Sololá	710	Panajachel	8	Panajachel	6	Junio	2023-02-06T00:00:00	2024-11-08T22:00:00	7	Dirección del viento	1.61
40555	7	Sololá	710	Panajachel	8	Panajachel	6	Junio	2023-02-06T00:00:00	2024-11-08T22:00:00	1	Precipitación	0
40556	7	Sololá	710	Panajachel	8	Panajachel	6	Junio	2023-02-06T00:00:00	2024-11-08T22:00:00	8	Radiación solar	0
40557	7	Sololá	710	Panajachel	8	Panajachel	6	Junio	2023-02-06T00:00:00	2024-11-08T23:00:00	2	Temperatura media	19.9
40558	7	Sololá	710	Panajachel	8	Panajachel	6	Junio	2023-02-06T00:00:00	2024-11-08T23:00:00	4	Temperatura máxima	20.4
40559	7	Sololá	710	Panajachel	8	Panajachel	6	Junio	2023-02-06T00:00:00	2024-11-08T23:00:00	3	Temperatura mínima	19.9
40560	7	Sololá	710	Panajachel	8	Panajachel	6	Junio	2023-02-06T00:00:00	2024-11-08T23:00:00	5	Humedad	89
40561	7	Sololá	710	Panajachel	8	Panajachel	6	Junio	2023-02-06T00:00:00	2024-11-08T23:00:00	6	Velocidad del viento	1.6
40562	7	Sololá	710	Panajachel	8	Panajachel	6	Junio	2023-02-06T00:00:00	2024-11-08T23:00:00	7	Dirección del viento	1.61
40563	7	Sololá	710	Panajachel	8	Panajachel	6	Junio	2023-02-06T00:00:00	2024-11-08T23:00:00	1	Precipitación	0
40564	7	Sololá	710	Panajachel	8	Panajachel	6	Junio	2023-02-06T00:00:00	2024-11-08T23:00:00	8	Radiación solar	0
40565	7	Sololá	710	Panajachel	8	Panajachel	6	Junio	2023-03-06T00:00:00	2024-11-08T00:00:00	2	Temperatura media	19.7
40566	7	Sololá	710	Panajachel	8	Panajachel	6	Junio	2023-03-06T00:00:00	2024-11-08T00:00:00	4	Temperatura máxima	19.9
40567	7	Sololá	710	Panajachel	8	Panajachel	6	Junio	2023-03-06T00:00:00	2024-11-08T00:00:00	3	Temperatura mínima	19.6
40568	7	Sololá	710	Panajachel	8	Panajachel	6	Junio	2023-03-06T00:00:00	2024-11-08T00:00:00	5	Humedad	89
40569	7	Sololá	710	Panajachel	8	Panajachel	6	Junio	2023-03-06T00:00:00	2024-11-08T00:00:00	6	Velocidad del viento	1.6
40570	7	Sololá	710	Panajachel	8	Panajachel	6	Junio	2023-03-06T00:00:00	2024-11-08T00:00:00	7	Dirección del viento	1.61
40571	7	Sololá	710	Panajachel	8	Panajachel	6	Junio	2023-03-06T00:00:00	2024-11-08T00:00:00	1	Precipitación	0
40572	7	Sololá	710	Panajachel	8	Panajachel	6	Junio	2023-03-06T00:00:00	2024-11-08T00:00:00	8	Radiación solar	0
40573	7	Sololá	710	Panajachel	8	Panajachel	6	Junio	2023-03-06T00:00:00	2024-11-08T01:00:00	2	Temperatura media	19.6
40574	7	Sololá	710	Panajachel	8	Panajachel	6	Junio	2023-03-06T00:00:00	2024-11-08T01:00:00	4	Temperatura máxima	19.9
40575	7	Sololá	710	Panajachel	8	Panajachel	6	Junio	2023-03-06T00:00:00	2024-11-08T01:00:00	3	Temperatura mínima	19.6
40576	7	Sololá	710	Panajachel	8	Panajachel	6	Junio	2023-03-06T00:00:00	2024-11-08T01:00:00	5	Humedad	88
40577	7	Sololá	710	Panajachel	8	Panajachel	6	Junio	2023-03-06T00:00:00	2024-11-08T01:00:00	6	Velocidad del viento	3.2
40578	7	Sololá	710	Panajachel	8	Panajachel	6	Junio	2023-03-06T00:00:00	2024-11-08T01:00:00	7	Dirección del viento	3.22
40579	7	Sololá	710	Panajachel	8	Panajachel	6	Junio	2023-03-06T00:00:00	2024-11-08T01:00:00	1	Precipitación	0
40580	7	Sololá	710	Panajachel	8	Panajachel	6	Junio	2023-03-06T00:00:00	2024-11-08T01:00:00	8	Radiación solar	0
40581	7	Sololá	710	Panajachel	8	Panajachel	6	Junio	2023-03-06T00:00:00	2024-11-08T02:00:00	2	Temperatura media	19.1
40582	7	Sololá	710	Panajachel	8	Panajachel	6	Junio	2023-03-06T00:00:00	2024-11-08T02:00:00	4	Temperatura máxima	19.7
40583	7	Sololá	710	Panajachel	8	Panajachel	6	Junio	2023-03-06T00:00:00	2024-11-08T02:00:00	3	Temperatura mínima	19
40584	7	Sololá	710	Panajachel	8	Panajachel	6	Junio	2023-03-06T00:00:00	2024-11-08T02:00:00	5	Humedad	88
40585	7	Sololá	710	Panajachel	8	Panajachel	6	Junio	2023-03-06T00:00:00	2024-11-08T02:00:00	6	Velocidad del viento	1.6
40586	7	Sololá	710	Panajachel	8	Panajachel	6	Junio	2023-03-06T00:00:00	2024-11-08T02:00:00	7	Dirección del viento	1.61
40587	7	Sololá	710	Panajachel	8	Panajachel	6	Junio	2023-03-06T00:00:00	2024-11-08T02:00:00	1	Precipitación	0
40588	7	Sololá	710	Panajachel	8	Panajachel	6	Junio	2023-03-06T00:00:00	2024-11-08T02:00:00	8	Radiación solar	0
40589	7	Sololá	710	Panajachel	8	Panajachel	6	Junio	2023-03-06T00:00:00	2024-11-08T03:00:00	2	Temperatura media	19.1
40590	7	Sololá	710	Panajachel	8	Panajachel	6	Junio	2023-03-06T00:00:00	2024-11-08T03:00:00	4	Temperatura máxima	19.1
40591	7	Sololá	710	Panajachel	8	Panajachel	6	Junio	2023-03-06T00:00:00	2024-11-08T03:00:00	3	Temperatura mínima	18.6
40592	7	Sololá	710	Panajachel	8	Panajachel	6	Junio	2023-03-06T00:00:00	2024-11-08T03:00:00	5	Humedad	90
40593	7	Sololá	710	Panajachel	8	Panajachel	6	Junio	2023-03-06T00:00:00	2024-11-08T03:00:00	6	Velocidad del viento	1.6
40594	7	Sololá	710	Panajachel	8	Panajachel	6	Junio	2023-03-06T00:00:00	2024-11-08T03:00:00	7	Dirección del viento	1.61
40595	7	Sololá	710	Panajachel	8	Panajachel	6	Junio	2023-03-06T00:00:00	2024-11-08T03:00:00	1	Precipitación	0
40596	7	Sololá	710	Panajachel	8	Panajachel	6	Junio	2023-03-06T00:00:00	2024-11-08T03:00:00	8	Radiación solar	0
40597	7	Sololá	710	Panajachel	8	Panajachel	6	Junio	2023-03-06T00:00:00	2024-11-08T04:00:00	2	Temperatura media	18.8
40598	7	Sololá	710	Panajachel	8	Panajachel	6	Junio	2023-03-06T00:00:00	2024-11-08T04:00:00	4	Temperatura máxima	19.1
40599	7	Sololá	710	Panajachel	8	Panajachel	6	Junio	2023-03-06T00:00:00	2024-11-08T04:00:00	3	Temperatura mínima	18.6
40600	7	Sololá	710	Panajachel	8	Panajachel	6	Junio	2023-03-06T00:00:00	2024-11-08T04:00:00	5	Humedad	86
40601	7	Sololá	710	Panajachel	8	Panajachel	6	Junio	2023-03-06T00:00:00	2024-11-08T04:00:00	6	Velocidad del viento	1.6
40602	7	Sololá	710	Panajachel	8	Panajachel	6	Junio	2023-03-06T00:00:00	2024-11-08T04:00:00	7	Dirección del viento	1.61
40603	7	Sololá	710	Panajachel	8	Panajachel	6	Junio	2023-03-06T00:00:00	2024-11-08T04:00:00	1	Precipitación	0
40604	7	Sololá	710	Panajachel	8	Panajachel	6	Junio	2023-03-06T00:00:00	2024-11-08T04:00:00	8	Radiación solar	0
40605	7	Sololá	710	Panajachel	8	Panajachel	6	Junio	2023-03-06T00:00:00	2024-11-08T05:00:00	2	Temperatura media	18.8
40606	7	Sololá	710	Panajachel	8	Panajachel	6	Junio	2023-03-06T00:00:00	2024-11-08T05:00:00	4	Temperatura máxima	18.8
40607	7	Sololá	710	Panajachel	8	Panajachel	6	Junio	2023-03-06T00:00:00	2024-11-08T05:00:00	3	Temperatura mínima	18.5
40608	7	Sololá	710	Panajachel	8	Panajachel	6	Junio	2023-03-06T00:00:00	2024-11-08T05:00:00	5	Humedad	86
40609	7	Sololá	710	Panajachel	8	Panajachel	6	Junio	2023-03-06T00:00:00	2024-11-08T05:00:00	6	Velocidad del viento	3.2
40610	7	Sololá	710	Panajachel	8	Panajachel	6	Junio	2023-03-06T00:00:00	2024-11-08T05:00:00	7	Dirección del viento	3.22
40611	7	Sololá	710	Panajachel	8	Panajachel	6	Junio	2023-03-06T00:00:00	2024-11-08T05:00:00	1	Precipitación	0
40612	7	Sololá	710	Panajachel	8	Panajachel	6	Junio	2023-03-06T00:00:00	2024-11-08T05:00:00	8	Radiación solar	0
40613	7	Sololá	710	Panajachel	8	Panajachel	6	Junio	2023-03-06T00:00:00	2024-11-08T06:00:00	2	Temperatura media	18.3
40614	7	Sololá	710	Panajachel	8	Panajachel	6	Junio	2023-03-06T00:00:00	2024-11-08T06:00:00	4	Temperatura máxima	18.7
40615	7	Sololá	710	Panajachel	8	Panajachel	6	Junio	2023-03-06T00:00:00	2024-11-08T06:00:00	3	Temperatura mínima	18.3
40616	7	Sololá	710	Panajachel	8	Panajachel	6	Junio	2023-03-06T00:00:00	2024-11-08T06:00:00	5	Humedad	86
40617	7	Sololá	710	Panajachel	8	Panajachel	6	Junio	2023-03-06T00:00:00	2024-11-08T06:00:00	6	Velocidad del viento	3.2
40618	7	Sololá	710	Panajachel	8	Panajachel	6	Junio	2023-03-06T00:00:00	2024-11-08T06:00:00	7	Dirección del viento	3.22
40619	7	Sololá	710	Panajachel	8	Panajachel	6	Junio	2023-03-06T00:00:00	2024-11-08T06:00:00	1	Precipitación	0
40620	7	Sololá	710	Panajachel	8	Panajachel	6	Junio	2023-03-06T00:00:00	2024-11-08T06:00:00	8	Radiación solar	7
40621	7	Sololá	710	Panajachel	8	Panajachel	6	Junio	2023-03-06T00:00:00	2024-11-08T07:00:00	2	Temperatura media	20.1
40622	7	Sololá	710	Panajachel	8	Panajachel	6	Junio	2023-03-06T00:00:00	2024-11-08T07:00:00	4	Temperatura máxima	20.1
40623	7	Sololá	710	Panajachel	8	Panajachel	6	Junio	2023-03-06T00:00:00	2024-11-08T07:00:00	3	Temperatura mínima	18.3
40624	7	Sololá	710	Panajachel	8	Panajachel	6	Junio	2023-03-06T00:00:00	2024-11-08T07:00:00	5	Humedad	82
40625	7	Sololá	710	Panajachel	8	Panajachel	6	Junio	2023-03-06T00:00:00	2024-11-08T07:00:00	6	Velocidad del viento	3.2
40626	7	Sololá	710	Panajachel	8	Panajachel	6	Junio	2023-03-06T00:00:00	2024-11-08T07:00:00	7	Dirección del viento	3.22
40627	7	Sololá	710	Panajachel	8	Panajachel	6	Junio	2023-03-06T00:00:00	2024-11-08T07:00:00	1	Precipitación	0
40628	7	Sololá	710	Panajachel	8	Panajachel	6	Junio	2023-03-06T00:00:00	2024-11-08T07:00:00	8	Radiación solar	108
40629	7	Sololá	710	Panajachel	8	Panajachel	6	Junio	2023-03-06T00:00:00	2024-11-08T08:00:00	2	Temperatura media	22.7
40630	7	Sololá	710	Panajachel	8	Panajachel	6	Junio	2023-03-06T00:00:00	2024-11-08T08:00:00	4	Temperatura máxima	22.7
40631	7	Sololá	710	Panajachel	8	Panajachel	6	Junio	2023-03-06T00:00:00	2024-11-08T08:00:00	3	Temperatura mínima	20.1
40632	7	Sololá	710	Panajachel	8	Panajachel	6	Junio	2023-03-06T00:00:00	2024-11-08T08:00:00	5	Humedad	76
40633	7	Sololá	710	Panajachel	8	Panajachel	6	Junio	2023-03-06T00:00:00	2024-11-08T08:00:00	6	Velocidad del viento	3.2
40634	7	Sololá	710	Panajachel	8	Panajachel	6	Junio	2023-03-06T00:00:00	2024-11-08T08:00:00	7	Dirección del viento	3.22
40635	7	Sololá	710	Panajachel	8	Panajachel	6	Junio	2023-03-06T00:00:00	2024-11-08T08:00:00	1	Precipitación	0
40636	7	Sololá	710	Panajachel	8	Panajachel	6	Junio	2023-03-06T00:00:00	2024-11-08T08:00:00	8	Radiación solar	309
40637	7	Sololá	710	Panajachel	8	Panajachel	6	Junio	2023-03-06T00:00:00	2024-11-08T09:00:00	2	Temperatura media	22.9
40638	7	Sololá	710	Panajachel	8	Panajachel	6	Junio	2023-03-06T00:00:00	2024-11-08T09:00:00	4	Temperatura máxima	23.7
40639	7	Sololá	710	Panajachel	8	Panajachel	6	Junio	2023-03-06T00:00:00	2024-11-08T09:00:00	3	Temperatura mínima	22.7
40640	7	Sololá	710	Panajachel	8	Panajachel	6	Junio	2023-03-06T00:00:00	2024-11-08T09:00:00	5	Humedad	79
40641	7	Sololá	710	Panajachel	8	Panajachel	6	Junio	2023-03-06T00:00:00	2024-11-08T09:00:00	6	Velocidad del viento	1.6
40642	7	Sololá	710	Panajachel	8	Panajachel	6	Junio	2023-03-06T00:00:00	2024-11-08T09:00:00	7	Dirección del viento	1.61
40643	7	Sololá	710	Panajachel	8	Panajachel	6	Junio	2023-03-06T00:00:00	2024-11-08T09:00:00	1	Precipitación	0
40644	7	Sololá	710	Panajachel	8	Panajachel	6	Junio	2023-03-06T00:00:00	2024-11-08T09:00:00	8	Radiación solar	392
40645	7	Sololá	710	Panajachel	8	Panajachel	6	Junio	2023-03-06T00:00:00	2024-11-08T10:00:00	2	Temperatura media	23.9
40646	7	Sololá	710	Panajachel	8	Panajachel	6	Junio	2023-03-06T00:00:00	2024-11-08T10:00:00	4	Temperatura máxima	23.9
40647	7	Sololá	710	Panajachel	8	Panajachel	6	Junio	2023-03-06T00:00:00	2024-11-08T10:00:00	3	Temperatura mínima	22.6
40648	7	Sololá	710	Panajachel	8	Panajachel	6	Junio	2023-03-06T00:00:00	2024-11-08T10:00:00	5	Humedad	75
40649	7	Sololá	710	Panajachel	8	Panajachel	6	Junio	2023-03-06T00:00:00	2024-11-08T10:00:00	6	Velocidad del viento	1.6
40650	7	Sololá	710	Panajachel	8	Panajachel	6	Junio	2023-03-06T00:00:00	2024-11-08T10:00:00	7	Dirección del viento	1.61
40651	7	Sololá	710	Panajachel	8	Panajachel	6	Junio	2023-03-06T00:00:00	2024-11-08T10:00:00	1	Precipitación	0
40652	7	Sololá	710	Panajachel	8	Panajachel	6	Junio	2023-03-06T00:00:00	2024-11-08T10:00:00	8	Radiación solar	590
40653	7	Sololá	710	Panajachel	8	Panajachel	6	Junio	2023-03-06T00:00:00	2024-11-08T11:00:00	2	Temperatura media	23.4
40654	7	Sololá	710	Panajachel	8	Panajachel	6	Junio	2023-03-06T00:00:00	2024-11-08T11:00:00	4	Temperatura máxima	23.9
40655	7	Sololá	710	Panajachel	8	Panajachel	6	Junio	2023-03-06T00:00:00	2024-11-08T11:00:00	3	Temperatura mínima	23
40656	7	Sololá	710	Panajachel	8	Panajachel	6	Junio	2023-03-06T00:00:00	2024-11-08T11:00:00	5	Humedad	74
40657	7	Sololá	710	Panajachel	8	Panajachel	6	Junio	2023-03-06T00:00:00	2024-11-08T11:00:00	6	Velocidad del viento	3.2
40658	7	Sololá	710	Panajachel	8	Panajachel	6	Junio	2023-03-06T00:00:00	2024-11-08T11:00:00	7	Dirección del viento	3.22
40659	7	Sololá	710	Panajachel	8	Panajachel	6	Junio	2023-03-06T00:00:00	2024-11-08T11:00:00	1	Precipitación	0
40660	7	Sololá	710	Panajachel	8	Panajachel	6	Junio	2023-03-06T00:00:00	2024-11-08T11:00:00	8	Radiación solar	813
40661	7	Sololá	710	Panajachel	8	Panajachel	6	Junio	2023-03-06T00:00:00	2024-11-08T12:00:00	2	Temperatura media	23.9
40662	7	Sololá	710	Panajachel	8	Panajachel	6	Junio	2023-03-06T00:00:00	2024-11-08T12:00:00	4	Temperatura máxima	24.3
40663	7	Sololá	710	Panajachel	8	Panajachel	6	Junio	2023-03-06T00:00:00	2024-11-08T12:00:00	3	Temperatura mínima	23.4
40664	7	Sololá	710	Panajachel	8	Panajachel	6	Junio	2023-03-06T00:00:00	2024-11-08T12:00:00	5	Humedad	79
40665	7	Sololá	710	Panajachel	8	Panajachel	6	Junio	2023-03-06T00:00:00	2024-11-08T12:00:00	6	Velocidad del viento	4.8
40666	7	Sololá	710	Panajachel	8	Panajachel	6	Junio	2023-03-06T00:00:00	2024-11-08T12:00:00	7	Dirección del viento	4.83
40667	7	Sololá	710	Panajachel	8	Panajachel	6	Junio	2023-03-06T00:00:00	2024-11-08T12:00:00	1	Precipitación	0
40668	7	Sololá	710	Panajachel	8	Panajachel	6	Junio	2023-03-06T00:00:00	2024-11-08T12:00:00	8	Radiación solar	841
40669	7	Sololá	710	Panajachel	8	Panajachel	6	Junio	2023-03-06T00:00:00	2024-11-08T13:00:00	2	Temperatura media	23.9
40670	7	Sololá	710	Panajachel	8	Panajachel	6	Junio	2023-03-06T00:00:00	2024-11-08T13:00:00	4	Temperatura máxima	24.3
40671	7	Sololá	710	Panajachel	8	Panajachel	6	Junio	2023-03-06T00:00:00	2024-11-08T13:00:00	3	Temperatura mínima	23.7
40672	7	Sololá	710	Panajachel	8	Panajachel	6	Junio	2023-03-06T00:00:00	2024-11-08T13:00:00	5	Humedad	82
40673	7	Sololá	710	Panajachel	8	Panajachel	6	Junio	2023-03-06T00:00:00	2024-11-08T13:00:00	6	Velocidad del viento	4.8
40674	7	Sololá	710	Panajachel	8	Panajachel	6	Junio	2023-03-06T00:00:00	2024-11-08T13:00:00	7	Dirección del viento	4.83
40675	7	Sololá	710	Panajachel	8	Panajachel	6	Junio	2023-03-06T00:00:00	2024-11-08T13:00:00	1	Precipitación	0
40676	7	Sololá	710	Panajachel	8	Panajachel	6	Junio	2023-03-06T00:00:00	2024-11-08T13:00:00	8	Radiación solar	372
40677	7	Sololá	710	Panajachel	8	Panajachel	6	Junio	2023-03-06T00:00:00	2024-11-08T14:00:00	2	Temperatura media	23.7
40678	7	Sololá	710	Panajachel	8	Panajachel	6	Junio	2023-03-06T00:00:00	2024-11-08T14:00:00	4	Temperatura máxima	24.1
40679	7	Sololá	710	Panajachel	8	Panajachel	6	Junio	2023-03-06T00:00:00	2024-11-08T14:00:00	3	Temperatura mínima	23.6
40680	7	Sololá	710	Panajachel	8	Panajachel	6	Junio	2023-03-06T00:00:00	2024-11-08T14:00:00	5	Humedad	83
40681	7	Sololá	710	Panajachel	8	Panajachel	6	Junio	2023-03-06T00:00:00	2024-11-08T14:00:00	6	Velocidad del viento	6.4
40682	7	Sololá	710	Panajachel	8	Panajachel	6	Junio	2023-03-06T00:00:00	2024-11-08T14:00:00	7	Dirección del viento	6.44
40683	7	Sololá	710	Panajachel	8	Panajachel	6	Junio	2023-03-06T00:00:00	2024-11-08T14:00:00	1	Precipitación	0
40684	7	Sololá	710	Panajachel	8	Panajachel	6	Junio	2023-03-06T00:00:00	2024-11-08T14:00:00	8	Radiación solar	429
40685	7	Sololá	710	Panajachel	8	Panajachel	6	Junio	2023-03-06T00:00:00	2024-11-08T15:00:00	2	Temperatura media	23.7
40686	7	Sololá	710	Panajachel	8	Panajachel	6	Junio	2023-03-06T00:00:00	2024-11-08T15:00:00	4	Temperatura máxima	24.8
40687	7	Sololá	710	Panajachel	8	Panajachel	6	Junio	2023-03-06T00:00:00	2024-11-08T15:00:00	3	Temperatura mínima	23.7
40688	7	Sololá	710	Panajachel	8	Panajachel	6	Junio	2023-03-06T00:00:00	2024-11-08T15:00:00	5	Humedad	84
40689	7	Sololá	710	Panajachel	8	Panajachel	6	Junio	2023-03-06T00:00:00	2024-11-08T15:00:00	6	Velocidad del viento	4.8
40690	7	Sololá	710	Panajachel	8	Panajachel	6	Junio	2023-03-06T00:00:00	2024-11-08T15:00:00	7	Dirección del viento	4.83
40691	7	Sololá	710	Panajachel	8	Panajachel	6	Junio	2023-03-06T00:00:00	2024-11-08T15:00:00	1	Precipitación	0
40692	7	Sololá	710	Panajachel	8	Panajachel	6	Junio	2023-03-06T00:00:00	2024-11-08T15:00:00	8	Radiación solar	501
40693	7	Sololá	710	Panajachel	8	Panajachel	6	Junio	2023-03-06T00:00:00	2024-11-08T16:00:00	2	Temperatura media	22.9
40694	7	Sololá	710	Panajachel	8	Panajachel	6	Junio	2023-03-06T00:00:00	2024-11-08T16:00:00	4	Temperatura máxima	23.7
40695	7	Sololá	710	Panajachel	8	Panajachel	6	Junio	2023-03-06T00:00:00	2024-11-08T16:00:00	3	Temperatura mínima	22.9
40696	7	Sololá	710	Panajachel	8	Panajachel	6	Junio	2023-03-06T00:00:00	2024-11-08T16:00:00	5	Humedad	85
40697	7	Sololá	710	Panajachel	8	Panajachel	6	Junio	2023-03-06T00:00:00	2024-11-08T16:00:00	6	Velocidad del viento	4.8
40698	7	Sololá	710	Panajachel	8	Panajachel	6	Junio	2023-03-06T00:00:00	2024-11-08T16:00:00	7	Dirección del viento	4.83
40699	7	Sololá	710	Panajachel	8	Panajachel	6	Junio	2023-03-06T00:00:00	2024-11-08T16:00:00	1	Precipitación	0
40700	7	Sololá	710	Panajachel	8	Panajachel	6	Junio	2023-03-06T00:00:00	2024-11-08T16:00:00	8	Radiación solar	151
40701	7	Sololá	710	Panajachel	8	Panajachel	6	Junio	2023-03-06T00:00:00	2024-11-08T17:00:00	2	Temperatura media	22.6
40702	7	Sololá	710	Panajachel	8	Panajachel	6	Junio	2023-03-06T00:00:00	2024-11-08T17:00:00	4	Temperatura máxima	22.9
40703	7	Sololá	710	Panajachel	8	Panajachel	6	Junio	2023-03-06T00:00:00	2024-11-08T17:00:00	3	Temperatura mínima	22.6
40704	7	Sololá	710	Panajachel	8	Panajachel	6	Junio	2023-03-06T00:00:00	2024-11-08T17:00:00	5	Humedad	87
40705	7	Sololá	710	Panajachel	8	Panajachel	6	Junio	2023-03-06T00:00:00	2024-11-08T17:00:00	6	Velocidad del viento	3.2
40706	7	Sololá	710	Panajachel	8	Panajachel	6	Junio	2023-03-06T00:00:00	2024-11-08T17:00:00	7	Dirección del viento	3.22
40707	7	Sololá	710	Panajachel	8	Panajachel	6	Junio	2023-03-06T00:00:00	2024-11-08T17:00:00	1	Precipitación	0
40708	7	Sololá	710	Panajachel	8	Panajachel	6	Junio	2023-03-06T00:00:00	2024-11-08T17:00:00	8	Radiación solar	64
40709	7	Sololá	710	Panajachel	8	Panajachel	6	Junio	2023-03-06T00:00:00	2024-11-08T18:00:00	2	Temperatura media	22.2
40710	7	Sololá	710	Panajachel	8	Panajachel	6	Junio	2023-03-06T00:00:00	2024-11-08T18:00:00	4	Temperatura máxima	22.6
40711	7	Sololá	710	Panajachel	8	Panajachel	6	Junio	2023-03-06T00:00:00	2024-11-08T18:00:00	3	Temperatura mínima	22.2
40712	7	Sololá	710	Panajachel	8	Panajachel	6	Junio	2023-03-06T00:00:00	2024-11-08T18:00:00	5	Humedad	88
40713	7	Sololá	710	Panajachel	8	Panajachel	6	Junio	2023-03-06T00:00:00	2024-11-08T18:00:00	6	Velocidad del viento	1.6
40714	7	Sololá	710	Panajachel	8	Panajachel	6	Junio	2023-03-06T00:00:00	2024-11-08T18:00:00	7	Dirección del viento	1.61
40715	7	Sololá	710	Panajachel	8	Panajachel	6	Junio	2023-03-06T00:00:00	2024-11-08T18:00:00	1	Precipitación	0
40716	7	Sololá	710	Panajachel	8	Panajachel	6	Junio	2023-03-06T00:00:00	2024-11-08T18:00:00	8	Radiación solar	28
40717	7	Sololá	710	Panajachel	8	Panajachel	6	Junio	2023-03-06T00:00:00	2024-11-08T19:00:00	2	Temperatura media	21.8
40718	7	Sololá	710	Panajachel	8	Panajachel	6	Junio	2023-03-06T00:00:00	2024-11-08T19:00:00	4	Temperatura máxima	22.3
40719	7	Sololá	710	Panajachel	8	Panajachel	6	Junio	2023-03-06T00:00:00	2024-11-08T19:00:00	3	Temperatura mínima	21.8
40720	7	Sololá	710	Panajachel	8	Panajachel	6	Junio	2023-03-06T00:00:00	2024-11-08T19:00:00	5	Humedad	91
40721	7	Sololá	710	Panajachel	8	Panajachel	6	Junio	2023-03-06T00:00:00	2024-11-08T19:00:00	6	Velocidad del viento	3.2
40722	7	Sololá	710	Panajachel	8	Panajachel	6	Junio	2023-03-06T00:00:00	2024-11-08T19:00:00	7	Dirección del viento	3.22
40723	7	Sololá	710	Panajachel	8	Panajachel	6	Junio	2023-03-06T00:00:00	2024-11-08T19:00:00	1	Precipitación	0
40724	7	Sololá	710	Panajachel	8	Panajachel	6	Junio	2023-03-06T00:00:00	2024-11-08T19:00:00	8	Radiación solar	0
40725	7	Sololá	710	Panajachel	8	Panajachel	6	Junio	2023-03-06T00:00:00	2024-11-08T20:00:00	2	Temperatura media	20.7
40726	7	Sololá	710	Panajachel	8	Panajachel	6	Junio	2023-03-06T00:00:00	2024-11-08T20:00:00	4	Temperatura máxima	21.7
40727	7	Sololá	710	Panajachel	8	Panajachel	6	Junio	2023-03-06T00:00:00	2024-11-08T20:00:00	3	Temperatura mínima	20.7
40728	7	Sololá	710	Panajachel	8	Panajachel	6	Junio	2023-03-06T00:00:00	2024-11-08T20:00:00	5	Humedad	95
40729	7	Sololá	710	Panajachel	8	Panajachel	6	Junio	2023-03-06T00:00:00	2024-11-08T20:00:00	6	Velocidad del viento	3.2
40730	7	Sololá	710	Panajachel	8	Panajachel	6	Junio	2023-03-06T00:00:00	2024-11-08T20:00:00	7	Dirección del viento	3.22
40731	7	Sololá	710	Panajachel	8	Panajachel	6	Junio	2023-03-06T00:00:00	2024-11-08T20:00:00	1	Precipitación	0.6
40732	7	Sololá	710	Panajachel	8	Panajachel	6	Junio	2023-03-06T00:00:00	2024-11-08T20:00:00	8	Radiación solar	0
40733	7	Sololá	710	Panajachel	8	Panajachel	6	Junio	2023-03-06T00:00:00	2024-11-08T21:00:00	2	Temperatura media	20.4
40734	7	Sololá	710	Panajachel	8	Panajachel	6	Junio	2023-03-06T00:00:00	2024-11-08T21:00:00	4	Temperatura máxima	20.7
40735	7	Sololá	710	Panajachel	8	Panajachel	6	Junio	2023-03-06T00:00:00	2024-11-08T21:00:00	3	Temperatura mínima	20.3
40736	7	Sololá	710	Panajachel	8	Panajachel	6	Junio	2023-03-06T00:00:00	2024-11-08T21:00:00	5	Humedad	94
40737	7	Sololá	710	Panajachel	8	Panajachel	6	Junio	2023-03-06T00:00:00	2024-11-08T21:00:00	6	Velocidad del viento	1.6
40738	7	Sololá	710	Panajachel	8	Panajachel	6	Junio	2023-03-06T00:00:00	2024-11-08T21:00:00	7	Dirección del viento	1.61
40739	7	Sololá	710	Panajachel	8	Panajachel	6	Junio	2023-03-06T00:00:00	2024-11-08T21:00:00	1	Precipitación	0.2
40740	7	Sololá	710	Panajachel	8	Panajachel	6	Junio	2023-03-06T00:00:00	2024-11-08T21:00:00	8	Radiación solar	0
40741	7	Sololá	710	Panajachel	8	Panajachel	6	Junio	2023-03-06T00:00:00	2024-11-08T22:00:00	2	Temperatura media	20.2
40742	7	Sololá	710	Panajachel	8	Panajachel	6	Junio	2023-03-06T00:00:00	2024-11-08T22:00:00	4	Temperatura máxima	20.5
40743	7	Sololá	710	Panajachel	8	Panajachel	6	Junio	2023-03-06T00:00:00	2024-11-08T22:00:00	3	Temperatura mínima	20.2
40744	7	Sololá	710	Panajachel	8	Panajachel	6	Junio	2023-03-06T00:00:00	2024-11-08T22:00:00	5	Humedad	93
40745	7	Sololá	710	Panajachel	8	Panajachel	6	Junio	2023-03-06T00:00:00	2024-11-08T22:00:00	6	Velocidad del viento	0
40746	7	Sololá	710	Panajachel	8	Panajachel	6	Junio	2023-03-06T00:00:00	2024-11-08T22:00:00	7	Dirección del viento	0
40747	7	Sololá	710	Panajachel	8	Panajachel	6	Junio	2023-03-06T00:00:00	2024-11-08T22:00:00	1	Precipitación	0
40748	7	Sololá	710	Panajachel	8	Panajachel	6	Junio	2023-03-06T00:00:00	2024-11-08T22:00:00	8	Radiación solar	0
40749	7	Sololá	710	Panajachel	8	Panajachel	6	Junio	2023-03-06T00:00:00	2024-11-08T23:00:00	2	Temperatura media	20
40750	7	Sololá	710	Panajachel	8	Panajachel	6	Junio	2023-03-06T00:00:00	2024-11-08T23:00:00	4	Temperatura máxima	20.2
40751	7	Sololá	710	Panajachel	8	Panajachel	6	Junio	2023-03-06T00:00:00	2024-11-08T23:00:00	3	Temperatura mínima	19.9
40752	7	Sololá	710	Panajachel	8	Panajachel	6	Junio	2023-03-06T00:00:00	2024-11-08T23:00:00	5	Humedad	94
40753	7	Sololá	710	Panajachel	8	Panajachel	6	Junio	2023-03-06T00:00:00	2024-11-08T23:00:00	6	Velocidad del viento	0
40754	7	Sololá	710	Panajachel	8	Panajachel	6	Junio	2023-03-06T00:00:00	2024-11-08T23:00:00	7	Dirección del viento	0
40755	7	Sololá	710	Panajachel	8	Panajachel	6	Junio	2023-03-06T00:00:00	2024-11-08T23:00:00	1	Precipitación	0
40756	7	Sololá	710	Panajachel	8	Panajachel	6	Junio	2023-03-06T00:00:00	2024-11-08T23:00:00	8	Radiación solar	0
40757	7	Sololá	710	Panajachel	8	Panajachel	6	Junio	2023-04-06T00:00:00	2024-11-08T00:00:00	2	Temperatura media	19.9
40758	7	Sololá	710	Panajachel	8	Panajachel	6	Junio	2023-04-06T00:00:00	2024-11-08T00:00:00	4	Temperatura máxima	20.1
40759	7	Sololá	710	Panajachel	8	Panajachel	6	Junio	2023-04-06T00:00:00	2024-11-08T00:00:00	3	Temperatura mínima	19.8
40760	7	Sololá	710	Panajachel	8	Panajachel	6	Junio	2023-04-06T00:00:00	2024-11-08T00:00:00	5	Humedad	93
40761	7	Sololá	710	Panajachel	8	Panajachel	6	Junio	2023-04-06T00:00:00	2024-11-08T00:00:00	6	Velocidad del viento	0
40762	7	Sololá	710	Panajachel	8	Panajachel	6	Junio	2023-04-06T00:00:00	2024-11-08T00:00:00	7	Dirección del viento	0
40763	7	Sololá	710	Panajachel	8	Panajachel	6	Junio	2023-04-06T00:00:00	2024-11-08T00:00:00	1	Precipitación	0
40764	7	Sololá	710	Panajachel	8	Panajachel	6	Junio	2023-04-06T00:00:00	2024-11-08T00:00:00	8	Radiación solar	0
40765	7	Sololá	710	Panajachel	8	Panajachel	6	Junio	2023-04-06T00:00:00	2024-11-08T01:00:00	2	Temperatura media	19.8
40766	7	Sololá	710	Panajachel	8	Panajachel	6	Junio	2023-04-06T00:00:00	2024-11-08T01:00:00	4	Temperatura máxima	20
40767	7	Sololá	710	Panajachel	8	Panajachel	6	Junio	2023-04-06T00:00:00	2024-11-08T01:00:00	3	Temperatura mínima	19.7
40768	7	Sololá	710	Panajachel	8	Panajachel	6	Junio	2023-04-06T00:00:00	2024-11-08T01:00:00	5	Humedad	93
40769	7	Sololá	710	Panajachel	8	Panajachel	6	Junio	2023-04-06T00:00:00	2024-11-08T01:00:00	6	Velocidad del viento	1.6
40770	7	Sololá	710	Panajachel	8	Panajachel	6	Junio	2023-04-06T00:00:00	2024-11-08T01:00:00	7	Dirección del viento	1.61
40771	7	Sololá	710	Panajachel	8	Panajachel	6	Junio	2023-04-06T00:00:00	2024-11-08T01:00:00	1	Precipitación	0
40772	7	Sololá	710	Panajachel	8	Panajachel	6	Junio	2023-04-06T00:00:00	2024-11-08T01:00:00	8	Radiación solar	0
40773	7	Sololá	710	Panajachel	8	Panajachel	6	Junio	2023-04-06T00:00:00	2024-11-08T02:00:00	2	Temperatura media	19.6
40774	7	Sololá	710	Panajachel	8	Panajachel	6	Junio	2023-04-06T00:00:00	2024-11-08T02:00:00	4	Temperatura máxima	19.9
40775	7	Sololá	710	Panajachel	8	Panajachel	6	Junio	2023-04-06T00:00:00	2024-11-08T02:00:00	3	Temperatura mínima	19.6
40776	7	Sololá	710	Panajachel	8	Panajachel	6	Junio	2023-04-06T00:00:00	2024-11-08T02:00:00	5	Humedad	92
40777	7	Sololá	710	Panajachel	8	Panajachel	6	Junio	2023-04-06T00:00:00	2024-11-08T02:00:00	6	Velocidad del viento	0
40778	7	Sololá	710	Panajachel	8	Panajachel	6	Junio	2023-04-06T00:00:00	2024-11-08T02:00:00	7	Dirección del viento	0
40779	7	Sololá	710	Panajachel	8	Panajachel	6	Junio	2023-04-06T00:00:00	2024-11-08T02:00:00	1	Precipitación	0
40780	7	Sololá	710	Panajachel	8	Panajachel	6	Junio	2023-04-06T00:00:00	2024-11-08T02:00:00	8	Radiación solar	0
40781	7	Sololá	710	Panajachel	8	Panajachel	6	Junio	2023-04-06T00:00:00	2024-11-08T03:00:00	2	Temperatura media	19.6
40782	7	Sololá	710	Panajachel	8	Panajachel	6	Junio	2023-04-06T00:00:00	2024-11-08T03:00:00	4	Temperatura máxima	19.7
40783	7	Sololá	710	Panajachel	8	Panajachel	6	Junio	2023-04-06T00:00:00	2024-11-08T03:00:00	3	Temperatura mínima	19.5
40784	7	Sololá	710	Panajachel	8	Panajachel	6	Junio	2023-04-06T00:00:00	2024-11-08T03:00:00	5	Humedad	91
40785	7	Sololá	710	Panajachel	8	Panajachel	6	Junio	2023-04-06T00:00:00	2024-11-08T03:00:00	6	Velocidad del viento	1.6
40786	7	Sololá	710	Panajachel	8	Panajachel	6	Junio	2023-04-06T00:00:00	2024-11-08T03:00:00	7	Dirección del viento	1.61
40787	7	Sololá	710	Panajachel	8	Panajachel	6	Junio	2023-04-06T00:00:00	2024-11-08T03:00:00	1	Precipitación	0
40788	7	Sololá	710	Panajachel	8	Panajachel	6	Junio	2023-04-06T00:00:00	2024-11-08T03:00:00	8	Radiación solar	0
40789	7	Sololá	710	Panajachel	8	Panajachel	6	Junio	2023-04-06T00:00:00	2024-11-08T04:00:00	2	Temperatura media	19.6
40790	7	Sololá	710	Panajachel	8	Panajachel	6	Junio	2023-04-06T00:00:00	2024-11-08T04:00:00	4	Temperatura máxima	19.7
40791	7	Sololá	710	Panajachel	8	Panajachel	6	Junio	2023-04-06T00:00:00	2024-11-08T04:00:00	3	Temperatura mínima	19.5
40792	7	Sololá	710	Panajachel	8	Panajachel	6	Junio	2023-04-06T00:00:00	2024-11-08T04:00:00	5	Humedad	90
40793	7	Sololá	710	Panajachel	8	Panajachel	6	Junio	2023-04-06T00:00:00	2024-11-08T04:00:00	6	Velocidad del viento	1.6
40794	7	Sololá	710	Panajachel	8	Panajachel	6	Junio	2023-04-06T00:00:00	2024-11-08T04:00:00	7	Dirección del viento	1.61
40795	7	Sololá	710	Panajachel	8	Panajachel	6	Junio	2023-04-06T00:00:00	2024-11-08T04:00:00	1	Precipitación	0
40796	7	Sololá	710	Panajachel	8	Panajachel	6	Junio	2023-04-06T00:00:00	2024-11-08T04:00:00	8	Radiación solar	0
40797	7	Sololá	710	Panajachel	8	Panajachel	6	Junio	2023-04-06T00:00:00	2024-11-08T05:00:00	2	Temperatura media	19.3
40798	7	Sololá	710	Panajachel	8	Panajachel	6	Junio	2023-04-06T00:00:00	2024-11-08T05:00:00	4	Temperatura máxima	19.7
40799	7	Sololá	710	Panajachel	8	Panajachel	6	Junio	2023-04-06T00:00:00	2024-11-08T05:00:00	3	Temperatura mínima	19.3
40800	7	Sololá	710	Panajachel	8	Panajachel	6	Junio	2023-04-06T00:00:00	2024-11-08T05:00:00	5	Humedad	89
40801	7	Sololá	710	Panajachel	8	Panajachel	6	Junio	2023-04-06T00:00:00	2024-11-08T05:00:00	6	Velocidad del viento	1.6
40802	7	Sololá	710	Panajachel	8	Panajachel	6	Junio	2023-04-06T00:00:00	2024-11-08T05:00:00	7	Dirección del viento	1.61
40803	7	Sololá	710	Panajachel	8	Panajachel	6	Junio	2023-04-06T00:00:00	2024-11-08T05:00:00	1	Precipitación	0
40804	7	Sololá	710	Panajachel	8	Panajachel	6	Junio	2023-04-06T00:00:00	2024-11-08T05:00:00	8	Radiación solar	0
40805	7	Sololá	710	Panajachel	8	Panajachel	6	Junio	2023-04-06T00:00:00	2024-11-08T06:00:00	2	Temperatura media	18.8
40806	7	Sololá	710	Panajachel	8	Panajachel	6	Junio	2023-04-06T00:00:00	2024-11-08T06:00:00	4	Temperatura máxima	19.3
40807	7	Sololá	710	Panajachel	8	Panajachel	6	Junio	2023-04-06T00:00:00	2024-11-08T06:00:00	3	Temperatura mínima	18.6
40808	7	Sololá	710	Panajachel	8	Panajachel	6	Junio	2023-04-06T00:00:00	2024-11-08T06:00:00	5	Humedad	89
40809	7	Sololá	710	Panajachel	8	Panajachel	6	Junio	2023-04-06T00:00:00	2024-11-08T06:00:00	6	Velocidad del viento	1.6
40810	7	Sololá	710	Panajachel	8	Panajachel	6	Junio	2023-04-06T00:00:00	2024-11-08T06:00:00	7	Dirección del viento	1.61
40811	7	Sololá	710	Panajachel	8	Panajachel	6	Junio	2023-04-06T00:00:00	2024-11-08T06:00:00	1	Precipitación	0
40812	7	Sololá	710	Panajachel	8	Panajachel	6	Junio	2023-04-06T00:00:00	2024-11-08T06:00:00	8	Radiación solar	4
40813	7	Sololá	710	Panajachel	8	Panajachel	6	Junio	2023-04-06T00:00:00	2024-11-08T07:00:00	2	Temperatura media	20.1
40814	7	Sololá	710	Panajachel	8	Panajachel	6	Junio	2023-04-06T00:00:00	2024-11-08T07:00:00	4	Temperatura máxima	20.1
40815	7	Sololá	710	Panajachel	8	Panajachel	6	Junio	2023-04-06T00:00:00	2024-11-08T07:00:00	3	Temperatura mínima	18.7
40816	7	Sololá	710	Panajachel	8	Panajachel	6	Junio	2023-04-06T00:00:00	2024-11-08T07:00:00	5	Humedad	86
40817	7	Sololá	710	Panajachel	8	Panajachel	6	Junio	2023-04-06T00:00:00	2024-11-08T07:00:00	6	Velocidad del viento	1.6
40818	7	Sololá	710	Panajachel	8	Panajachel	6	Junio	2023-04-06T00:00:00	2024-11-08T07:00:00	7	Dirección del viento	1.61
40819	7	Sololá	710	Panajachel	8	Panajachel	6	Junio	2023-04-06T00:00:00	2024-11-08T07:00:00	1	Precipitación	0
40820	7	Sololá	710	Panajachel	8	Panajachel	6	Junio	2023-04-06T00:00:00	2024-11-08T07:00:00	8	Radiación solar	81
40821	7	Sololá	710	Panajachel	8	Panajachel	6	Junio	2023-04-06T00:00:00	2024-11-08T08:00:00	2	Temperatura media	21.6
40822	7	Sololá	710	Panajachel	8	Panajachel	6	Junio	2023-04-06T00:00:00	2024-11-08T08:00:00	4	Temperatura máxima	21.6
40823	7	Sololá	710	Panajachel	8	Panajachel	6	Junio	2023-04-06T00:00:00	2024-11-08T08:00:00	3	Temperatura mínima	20.1
40824	7	Sololá	710	Panajachel	8	Panajachel	6	Junio	2023-04-06T00:00:00	2024-11-08T08:00:00	5	Humedad	84
40825	7	Sololá	710	Panajachel	8	Panajachel	6	Junio	2023-04-06T00:00:00	2024-11-08T08:00:00	6	Velocidad del viento	0
40826	7	Sololá	710	Panajachel	8	Panajachel	6	Junio	2023-04-06T00:00:00	2024-11-08T08:00:00	7	Dirección del viento	0
40827	7	Sololá	710	Panajachel	8	Panajachel	6	Junio	2023-04-06T00:00:00	2024-11-08T08:00:00	1	Precipitación	0
40828	7	Sololá	710	Panajachel	8	Panajachel	6	Junio	2023-04-06T00:00:00	2024-11-08T08:00:00	8	Radiación solar	193
40829	7	Sololá	710	Panajachel	8	Panajachel	6	Junio	2023-04-06T00:00:00	2024-11-08T09:00:00	2	Temperatura media	22.8
40830	7	Sololá	710	Panajachel	8	Panajachel	6	Junio	2023-04-06T00:00:00	2024-11-08T09:00:00	4	Temperatura máxima	22.8
40831	7	Sololá	710	Panajachel	8	Panajachel	6	Junio	2023-04-06T00:00:00	2024-11-08T09:00:00	3	Temperatura mínima	21.6
40832	7	Sololá	710	Panajachel	8	Panajachel	6	Junio	2023-04-06T00:00:00	2024-11-08T09:00:00	5	Humedad	82
40833	7	Sololá	710	Panajachel	8	Panajachel	6	Junio	2023-04-06T00:00:00	2024-11-08T09:00:00	6	Velocidad del viento	1.6
40834	7	Sololá	710	Panajachel	8	Panajachel	6	Junio	2023-04-06T00:00:00	2024-11-08T09:00:00	7	Dirección del viento	1.61
40835	7	Sololá	710	Panajachel	8	Panajachel	6	Junio	2023-04-06T00:00:00	2024-11-08T09:00:00	1	Precipitación	0
40836	7	Sololá	710	Panajachel	8	Panajachel	6	Junio	2023-04-06T00:00:00	2024-11-08T09:00:00	8	Radiación solar	544
40837	7	Sololá	710	Panajachel	8	Panajachel	6	Junio	2023-04-06T00:00:00	2024-11-08T10:00:00	2	Temperatura media	22.8
40838	7	Sololá	710	Panajachel	8	Panajachel	6	Junio	2023-04-06T00:00:00	2024-11-08T10:00:00	4	Temperatura máxima	23.4
40839	7	Sololá	710	Panajachel	8	Panajachel	6	Junio	2023-04-06T00:00:00	2024-11-08T10:00:00	3	Temperatura mínima	22.8
40840	7	Sololá	710	Panajachel	8	Panajachel	6	Junio	2023-04-06T00:00:00	2024-11-08T10:00:00	5	Humedad	81
40841	7	Sololá	710	Panajachel	8	Panajachel	6	Junio	2023-04-06T00:00:00	2024-11-08T10:00:00	6	Velocidad del viento	3.2
40842	7	Sololá	710	Panajachel	8	Panajachel	6	Junio	2023-04-06T00:00:00	2024-11-08T10:00:00	7	Dirección del viento	3.22
40843	7	Sololá	710	Panajachel	8	Panajachel	6	Junio	2023-04-06T00:00:00	2024-11-08T10:00:00	1	Precipitación	0
40844	7	Sololá	710	Panajachel	8	Panajachel	6	Junio	2023-04-06T00:00:00	2024-11-08T10:00:00	8	Radiación solar	710
40845	7	Sololá	710	Panajachel	8	Panajachel	6	Junio	2023-04-06T00:00:00	2024-11-08T11:00:00	2	Temperatura media	24.8
40846	7	Sololá	710	Panajachel	8	Panajachel	6	Junio	2023-04-06T00:00:00	2024-11-08T11:00:00	4	Temperatura máxima	24.8
40847	7	Sololá	710	Panajachel	8	Panajachel	6	Junio	2023-04-06T00:00:00	2024-11-08T11:00:00	3	Temperatura mínima	22.8
40848	7	Sololá	710	Panajachel	8	Panajachel	6	Junio	2023-04-06T00:00:00	2024-11-08T11:00:00	5	Humedad	72
40849	7	Sololá	710	Panajachel	8	Panajachel	6	Junio	2023-04-06T00:00:00	2024-11-08T11:00:00	6	Velocidad del viento	3.2
40850	7	Sololá	710	Panajachel	8	Panajachel	6	Junio	2023-04-06T00:00:00	2024-11-08T11:00:00	7	Dirección del viento	3.22
40851	7	Sololá	710	Panajachel	8	Panajachel	6	Junio	2023-04-06T00:00:00	2024-11-08T11:00:00	1	Precipitación	0
40852	7	Sololá	710	Panajachel	8	Panajachel	6	Junio	2023-04-06T00:00:00	2024-11-08T11:00:00	8	Radiación solar	835
40853	7	Sololá	710	Panajachel	8	Panajachel	6	Junio	2023-04-06T00:00:00	2024-11-08T12:00:00	2	Temperatura media	26.1
40854	7	Sololá	710	Panajachel	8	Panajachel	6	Junio	2023-04-06T00:00:00	2024-11-08T12:00:00	4	Temperatura máxima	26.2
40855	7	Sololá	710	Panajachel	8	Panajachel	6	Junio	2023-04-06T00:00:00	2024-11-08T12:00:00	3	Temperatura mínima	24.6
40856	7	Sololá	710	Panajachel	8	Panajachel	6	Junio	2023-04-06T00:00:00	2024-11-08T12:00:00	5	Humedad	75
40857	7	Sololá	710	Panajachel	8	Panajachel	6	Junio	2023-04-06T00:00:00	2024-11-08T12:00:00	6	Velocidad del viento	4.8
40858	7	Sololá	710	Panajachel	8	Panajachel	6	Junio	2023-04-06T00:00:00	2024-11-08T12:00:00	7	Dirección del viento	4.83
40859	7	Sololá	710	Panajachel	8	Panajachel	6	Junio	2023-04-06T00:00:00	2024-11-08T12:00:00	1	Precipitación	0
40860	7	Sololá	710	Panajachel	8	Panajachel	6	Junio	2023-04-06T00:00:00	2024-11-08T12:00:00	8	Radiación solar	928
40861	7	Sololá	710	Panajachel	8	Panajachel	6	Junio	2023-04-06T00:00:00	2024-11-08T13:00:00	2	Temperatura media	24.1
40862	7	Sololá	710	Panajachel	8	Panajachel	6	Junio	2023-04-06T00:00:00	2024-11-08T13:00:00	4	Temperatura máxima	26.1
40863	7	Sololá	710	Panajachel	8	Panajachel	6	Junio	2023-04-06T00:00:00	2024-11-08T13:00:00	3	Temperatura mínima	24.1
40864	7	Sololá	710	Panajachel	8	Panajachel	6	Junio	2023-04-06T00:00:00	2024-11-08T13:00:00	5	Humedad	83
40865	7	Sololá	710	Panajachel	8	Panajachel	6	Junio	2023-04-06T00:00:00	2024-11-08T13:00:00	6	Velocidad del viento	4.8
40866	7	Sololá	710	Panajachel	8	Panajachel	6	Junio	2023-04-06T00:00:00	2024-11-08T13:00:00	7	Dirección del viento	4.83
40867	7	Sololá	710	Panajachel	8	Panajachel	6	Junio	2023-04-06T00:00:00	2024-11-08T13:00:00	1	Precipitación	0
40868	7	Sololá	710	Panajachel	8	Panajachel	6	Junio	2023-04-06T00:00:00	2024-11-08T13:00:00	8	Radiación solar	329
40869	7	Sololá	710	Panajachel	8	Panajachel	6	Junio	2023-04-06T00:00:00	2024-11-08T14:00:00	2	Temperatura media	23.9
40870	7	Sololá	710	Panajachel	8	Panajachel	6	Junio	2023-04-06T00:00:00	2024-11-08T14:00:00	4	Temperatura máxima	24.4
40871	7	Sololá	710	Panajachel	8	Panajachel	6	Junio	2023-04-06T00:00:00	2024-11-08T14:00:00	3	Temperatura mínima	23.7
40872	7	Sololá	710	Panajachel	8	Panajachel	6	Junio	2023-04-06T00:00:00	2024-11-08T14:00:00	5	Humedad	83
40873	7	Sololá	710	Panajachel	8	Panajachel	6	Junio	2023-04-06T00:00:00	2024-11-08T14:00:00	6	Velocidad del viento	4.8
40874	7	Sololá	710	Panajachel	8	Panajachel	6	Junio	2023-04-06T00:00:00	2024-11-08T14:00:00	7	Dirección del viento	4.83
40875	7	Sololá	710	Panajachel	8	Panajachel	6	Junio	2023-04-06T00:00:00	2024-11-08T14:00:00	1	Precipitación	0
40876	7	Sololá	710	Panajachel	8	Panajachel	6	Junio	2023-04-06T00:00:00	2024-11-08T14:00:00	8	Radiación solar	327
40877	7	Sololá	710	Panajachel	8	Panajachel	6	Junio	2023-04-06T00:00:00	2024-11-08T15:00:00	2	Temperatura media	22.8
40878	7	Sololá	710	Panajachel	8	Panajachel	6	Junio	2023-04-06T00:00:00	2024-11-08T15:00:00	4	Temperatura máxima	23.8
40879	7	Sololá	710	Panajachel	8	Panajachel	6	Junio	2023-04-06T00:00:00	2024-11-08T15:00:00	3	Temperatura mínima	22.8
40880	7	Sololá	710	Panajachel	8	Panajachel	6	Junio	2023-04-06T00:00:00	2024-11-08T15:00:00	5	Humedad	86
40881	7	Sololá	710	Panajachel	8	Panajachel	6	Junio	2023-04-06T00:00:00	2024-11-08T15:00:00	6	Velocidad del viento	3.2
40882	7	Sololá	710	Panajachel	8	Panajachel	6	Junio	2023-04-06T00:00:00	2024-11-08T15:00:00	7	Dirección del viento	3.22
40883	7	Sololá	710	Panajachel	8	Panajachel	6	Junio	2023-04-06T00:00:00	2024-11-08T15:00:00	1	Precipitación	0
40884	7	Sololá	710	Panajachel	8	Panajachel	6	Junio	2023-04-06T00:00:00	2024-11-08T15:00:00	8	Radiación solar	136
40885	7	Sololá	710	Panajachel	8	Panajachel	6	Junio	2023-04-06T00:00:00	2024-11-08T16:00:00	2	Temperatura media	21.8
40886	7	Sololá	710	Panajachel	8	Panajachel	6	Junio	2023-04-06T00:00:00	2024-11-08T16:00:00	4	Temperatura máxima	22.8
40887	7	Sololá	710	Panajachel	8	Panajachel	6	Junio	2023-04-06T00:00:00	2024-11-08T16:00:00	3	Temperatura mínima	21.8
40888	7	Sololá	710	Panajachel	8	Panajachel	6	Junio	2023-04-06T00:00:00	2024-11-08T16:00:00	5	Humedad	89
40889	7	Sololá	710	Panajachel	8	Panajachel	6	Junio	2023-04-06T00:00:00	2024-11-08T16:00:00	6	Velocidad del viento	3.2
40890	7	Sololá	710	Panajachel	8	Panajachel	6	Junio	2023-04-06T00:00:00	2024-11-08T16:00:00	7	Dirección del viento	3.22
40891	7	Sololá	710	Panajachel	8	Panajachel	6	Junio	2023-04-06T00:00:00	2024-11-08T16:00:00	1	Precipitación	0
40892	7	Sololá	710	Panajachel	8	Panajachel	6	Junio	2023-04-06T00:00:00	2024-11-08T16:00:00	8	Radiación solar	11
40893	7	Sololá	710	Panajachel	8	Panajachel	6	Junio	2023-04-06T00:00:00	2024-11-08T17:00:00	2	Temperatura media	21
40894	7	Sololá	710	Panajachel	8	Panajachel	6	Junio	2023-04-06T00:00:00	2024-11-08T17:00:00	4	Temperatura máxima	21.8
40895	7	Sololá	710	Panajachel	8	Panajachel	6	Junio	2023-04-06T00:00:00	2024-11-08T17:00:00	3	Temperatura mínima	21
40896	7	Sololá	710	Panajachel	8	Panajachel	6	Junio	2023-04-06T00:00:00	2024-11-08T17:00:00	5	Humedad	91
40897	7	Sololá	710	Panajachel	8	Panajachel	6	Junio	2023-04-06T00:00:00	2024-11-08T17:00:00	6	Velocidad del viento	1.6
40898	7	Sololá	710	Panajachel	8	Panajachel	6	Junio	2023-04-06T00:00:00	2024-11-08T17:00:00	7	Dirección del viento	1.61
40899	7	Sololá	710	Panajachel	8	Panajachel	6	Junio	2023-04-06T00:00:00	2024-11-08T17:00:00	1	Precipitación	0
40900	7	Sololá	710	Panajachel	8	Panajachel	6	Junio	2023-04-06T00:00:00	2024-11-08T17:00:00	8	Radiación solar	5
40901	7	Sololá	710	Panajachel	8	Panajachel	6	Junio	2023-04-06T00:00:00	2024-11-08T18:00:00	2	Temperatura media	21.7
40902	7	Sololá	710	Panajachel	8	Panajachel	6	Junio	2023-04-06T00:00:00	2024-11-08T18:00:00	4	Temperatura máxima	21.7
40903	7	Sololá	710	Panajachel	8	Panajachel	6	Junio	2023-04-06T00:00:00	2024-11-08T18:00:00	3	Temperatura mínima	20.9
40904	7	Sololá	710	Panajachel	8	Panajachel	6	Junio	2023-04-06T00:00:00	2024-11-08T18:00:00	5	Humedad	85
40905	7	Sololá	710	Panajachel	8	Panajachel	6	Junio	2023-04-06T00:00:00	2024-11-08T18:00:00	6	Velocidad del viento	1.6
40906	7	Sololá	710	Panajachel	8	Panajachel	6	Junio	2023-04-06T00:00:00	2024-11-08T18:00:00	7	Dirección del viento	1.61
40907	7	Sololá	710	Panajachel	8	Panajachel	6	Junio	2023-04-06T00:00:00	2024-11-08T18:00:00	1	Precipitación	0
40908	7	Sololá	710	Panajachel	8	Panajachel	6	Junio	2023-04-06T00:00:00	2024-11-08T18:00:00	8	Radiación solar	8
40909	7	Sololá	710	Panajachel	8	Panajachel	6	Junio	2023-04-06T00:00:00	2024-11-08T19:00:00	2	Temperatura media	21.4
40910	7	Sololá	710	Panajachel	8	Panajachel	6	Junio	2023-04-06T00:00:00	2024-11-08T19:00:00	4	Temperatura máxima	21.9
40911	7	Sololá	710	Panajachel	8	Panajachel	6	Junio	2023-04-06T00:00:00	2024-11-08T19:00:00	3	Temperatura mínima	21.4
40912	7	Sololá	710	Panajachel	8	Panajachel	6	Junio	2023-04-06T00:00:00	2024-11-08T19:00:00	5	Humedad	88
40913	7	Sololá	710	Panajachel	8	Panajachel	6	Junio	2023-04-06T00:00:00	2024-11-08T19:00:00	6	Velocidad del viento	3.2
40914	7	Sololá	710	Panajachel	8	Panajachel	6	Junio	2023-04-06T00:00:00	2024-11-08T19:00:00	7	Dirección del viento	3.22
40915	7	Sololá	710	Panajachel	8	Panajachel	6	Junio	2023-04-06T00:00:00	2024-11-08T19:00:00	1	Precipitación	0
40916	7	Sololá	710	Panajachel	8	Panajachel	6	Junio	2023-04-06T00:00:00	2024-11-08T19:00:00	8	Radiación solar	0
40917	7	Sololá	710	Panajachel	8	Panajachel	6	Junio	2023-04-06T00:00:00	2024-11-08T20:00:00	2	Temperatura media	20.9
40918	7	Sololá	710	Panajachel	8	Panajachel	6	Junio	2023-04-06T00:00:00	2024-11-08T20:00:00	4	Temperatura máxima	21.4
40919	7	Sololá	710	Panajachel	8	Panajachel	6	Junio	2023-04-06T00:00:00	2024-11-08T20:00:00	3	Temperatura mínima	20.7
40920	7	Sololá	710	Panajachel	8	Panajachel	6	Junio	2023-04-06T00:00:00	2024-11-08T20:00:00	5	Humedad	86
40921	7	Sololá	710	Panajachel	8	Panajachel	6	Junio	2023-04-06T00:00:00	2024-11-08T20:00:00	6	Velocidad del viento	1.6
40922	7	Sololá	710	Panajachel	8	Panajachel	6	Junio	2023-04-06T00:00:00	2024-11-08T20:00:00	7	Dirección del viento	1.61
40923	7	Sololá	710	Panajachel	8	Panajachel	6	Junio	2023-04-06T00:00:00	2024-11-08T20:00:00	1	Precipitación	0
40924	7	Sololá	710	Panajachel	8	Panajachel	6	Junio	2023-04-06T00:00:00	2024-11-08T20:00:00	8	Radiación solar	0
40925	7	Sololá	710	Panajachel	8	Panajachel	6	Junio	2023-04-06T00:00:00	2024-11-08T21:00:00	2	Temperatura media	20.3
40926	7	Sololá	710	Panajachel	8	Panajachel	6	Junio	2023-04-06T00:00:00	2024-11-08T21:00:00	4	Temperatura máxima	21.1
40927	7	Sololá	710	Panajachel	8	Panajachel	6	Junio	2023-04-06T00:00:00	2024-11-08T21:00:00	3	Temperatura mínima	20.3
40928	7	Sololá	710	Panajachel	8	Panajachel	6	Junio	2023-04-06T00:00:00	2024-11-08T21:00:00	5	Humedad	88
40929	7	Sololá	710	Panajachel	8	Panajachel	6	Junio	2023-04-06T00:00:00	2024-11-08T21:00:00	6	Velocidad del viento	0
40930	7	Sololá	710	Panajachel	8	Panajachel	6	Junio	2023-04-06T00:00:00	2024-11-08T21:00:00	7	Dirección del viento	0
40931	7	Sololá	710	Panajachel	8	Panajachel	6	Junio	2023-04-06T00:00:00	2024-11-08T21:00:00	1	Precipitación	0
40932	7	Sololá	710	Panajachel	8	Panajachel	6	Junio	2023-04-06T00:00:00	2024-11-08T21:00:00	8	Radiación solar	0
40933	7	Sololá	710	Panajachel	8	Panajachel	6	Junio	2023-04-06T00:00:00	2024-11-08T22:00:00	2	Temperatura media	19.7
40934	7	Sololá	710	Panajachel	8	Panajachel	6	Junio	2023-04-06T00:00:00	2024-11-08T22:00:00	4	Temperatura máxima	20.4
40935	7	Sololá	710	Panajachel	8	Panajachel	6	Junio	2023-04-06T00:00:00	2024-11-08T22:00:00	3	Temperatura mínima	19.7
40936	7	Sololá	710	Panajachel	8	Panajachel	6	Junio	2023-04-06T00:00:00	2024-11-08T22:00:00	5	Humedad	87
40937	7	Sololá	710	Panajachel	8	Panajachel	6	Junio	2023-04-06T00:00:00	2024-11-08T22:00:00	6	Velocidad del viento	0
40938	7	Sololá	710	Panajachel	8	Panajachel	6	Junio	2023-04-06T00:00:00	2024-11-08T22:00:00	7	Dirección del viento	0
40939	7	Sololá	710	Panajachel	8	Panajachel	6	Junio	2023-04-06T00:00:00	2024-11-08T22:00:00	1	Precipitación	0
40940	7	Sololá	710	Panajachel	8	Panajachel	6	Junio	2023-04-06T00:00:00	2024-11-08T22:00:00	8	Radiación solar	0
40941	7	Sololá	710	Panajachel	8	Panajachel	6	Junio	2023-04-06T00:00:00	2024-11-08T23:00:00	2	Temperatura media	19.4
40942	7	Sololá	710	Panajachel	8	Panajachel	6	Junio	2023-04-06T00:00:00	2024-11-08T23:00:00	4	Temperatura máxima	19.7
40943	7	Sololá	710	Panajachel	8	Panajachel	6	Junio	2023-04-06T00:00:00	2024-11-08T23:00:00	3	Temperatura mínima	19.4
40944	7	Sololá	710	Panajachel	8	Panajachel	6	Junio	2023-04-06T00:00:00	2024-11-08T23:00:00	5	Humedad	82
40945	7	Sololá	710	Panajachel	8	Panajachel	6	Junio	2023-04-06T00:00:00	2024-11-08T23:00:00	6	Velocidad del viento	3.2
40946	7	Sololá	710	Panajachel	8	Panajachel	6	Junio	2023-04-06T00:00:00	2024-11-08T23:00:00	7	Dirección del viento	3.22
40947	7	Sololá	710	Panajachel	8	Panajachel	6	Junio	2023-04-06T00:00:00	2024-11-08T23:00:00	1	Precipitación	0
40948	7	Sololá	710	Panajachel	8	Panajachel	6	Junio	2023-04-06T00:00:00	2024-11-08T23:00:00	8	Radiación solar	0
40949	7	Sololá	710	Panajachel	8	Panajachel	6	Junio	2023-05-06T00:00:00	2024-11-08T00:00:00	2	Temperatura media	18.3
40950	7	Sololá	710	Panajachel	8	Panajachel	6	Junio	2023-05-06T00:00:00	2024-11-08T00:00:00	4	Temperatura máxima	19.4
40951	7	Sololá	710	Panajachel	8	Panajachel	6	Junio	2023-05-06T00:00:00	2024-11-08T00:00:00	3	Temperatura mínima	18.3
40952	7	Sololá	710	Panajachel	8	Panajachel	6	Junio	2023-05-06T00:00:00	2024-11-08T00:00:00	5	Humedad	83
40953	7	Sololá	710	Panajachel	8	Panajachel	6	Junio	2023-05-06T00:00:00	2024-11-08T00:00:00	6	Velocidad del viento	1.6
40954	7	Sololá	710	Panajachel	8	Panajachel	6	Junio	2023-05-06T00:00:00	2024-11-08T00:00:00	7	Dirección del viento	1.61
40955	7	Sololá	710	Panajachel	8	Panajachel	6	Junio	2023-05-06T00:00:00	2024-11-08T00:00:00	1	Precipitación	0
40956	7	Sololá	710	Panajachel	8	Panajachel	6	Junio	2023-05-06T00:00:00	2024-11-08T00:00:00	8	Radiación solar	0
40957	7	Sololá	710	Panajachel	8	Panajachel	6	Junio	2023-05-06T00:00:00	2024-11-08T01:00:00	2	Temperatura media	17.4
40958	7	Sololá	710	Panajachel	8	Panajachel	6	Junio	2023-05-06T00:00:00	2024-11-08T01:00:00	4	Temperatura máxima	18.3
40959	7	Sololá	710	Panajachel	8	Panajachel	6	Junio	2023-05-06T00:00:00	2024-11-08T01:00:00	3	Temperatura mínima	17.4
40960	7	Sololá	710	Panajachel	8	Panajachel	6	Junio	2023-05-06T00:00:00	2024-11-08T01:00:00	5	Humedad	82
40961	7	Sololá	710	Panajachel	8	Panajachel	6	Junio	2023-05-06T00:00:00	2024-11-08T01:00:00	6	Velocidad del viento	3.2
40962	7	Sololá	710	Panajachel	8	Panajachel	6	Junio	2023-05-06T00:00:00	2024-11-08T01:00:00	7	Dirección del viento	3.22
40963	7	Sololá	710	Panajachel	8	Panajachel	6	Junio	2023-05-06T00:00:00	2024-11-08T01:00:00	1	Precipitación	0
40964	7	Sololá	710	Panajachel	8	Panajachel	6	Junio	2023-05-06T00:00:00	2024-11-08T01:00:00	8	Radiación solar	0
40965	7	Sololá	710	Panajachel	8	Panajachel	6	Junio	2023-05-06T00:00:00	2024-11-08T02:00:00	2	Temperatura media	17.2
40966	7	Sololá	710	Panajachel	8	Panajachel	6	Junio	2023-05-06T00:00:00	2024-11-08T02:00:00	4	Temperatura máxima	17.7
40967	7	Sololá	710	Panajachel	8	Panajachel	6	Junio	2023-05-06T00:00:00	2024-11-08T02:00:00	3	Temperatura mínima	17.2
40968	7	Sololá	710	Panajachel	8	Panajachel	6	Junio	2023-05-06T00:00:00	2024-11-08T02:00:00	5	Humedad	83
40969	7	Sololá	710	Panajachel	8	Panajachel	6	Junio	2023-05-06T00:00:00	2024-11-08T02:00:00	6	Velocidad del viento	3.2
40970	7	Sololá	710	Panajachel	8	Panajachel	6	Junio	2023-05-06T00:00:00	2024-11-08T02:00:00	7	Dirección del viento	3.22
40971	7	Sololá	710	Panajachel	8	Panajachel	6	Junio	2023-05-06T00:00:00	2024-11-08T02:00:00	1	Precipitación	0
40972	7	Sololá	710	Panajachel	8	Panajachel	6	Junio	2023-05-06T00:00:00	2024-11-08T02:00:00	8	Radiación solar	0
40973	7	Sololá	710	Panajachel	8	Panajachel	6	Junio	2023-05-06T00:00:00	2024-11-08T03:00:00	2	Temperatura media	17.4
40974	7	Sololá	710	Panajachel	8	Panajachel	6	Junio	2023-05-06T00:00:00	2024-11-08T03:00:00	4	Temperatura máxima	17.6
40975	7	Sololá	710	Panajachel	8	Panajachel	6	Junio	2023-05-06T00:00:00	2024-11-08T03:00:00	3	Temperatura mínima	17.2
40976	7	Sololá	710	Panajachel	8	Panajachel	6	Junio	2023-05-06T00:00:00	2024-11-08T03:00:00	5	Humedad	80
40977	7	Sololá	710	Panajachel	8	Panajachel	6	Junio	2023-05-06T00:00:00	2024-11-08T03:00:00	6	Velocidad del viento	4.8
40978	7	Sololá	710	Panajachel	8	Panajachel	6	Junio	2023-05-06T00:00:00	2024-11-08T03:00:00	7	Dirección del viento	4.83
40979	7	Sololá	710	Panajachel	8	Panajachel	6	Junio	2023-05-06T00:00:00	2024-11-08T03:00:00	1	Precipitación	0
40980	7	Sololá	710	Panajachel	8	Panajachel	6	Junio	2023-05-06T00:00:00	2024-11-08T03:00:00	8	Radiación solar	0
40981	7	Sololá	710	Panajachel	8	Panajachel	6	Junio	2023-05-06T00:00:00	2024-11-08T04:00:00	2	Temperatura media	17.1
40982	7	Sololá	710	Panajachel	8	Panajachel	6	Junio	2023-05-06T00:00:00	2024-11-08T04:00:00	4	Temperatura máxima	17.4
40983	7	Sololá	710	Panajachel	8	Panajachel	6	Junio	2023-05-06T00:00:00	2024-11-08T04:00:00	3	Temperatura mínima	17.1
40984	7	Sololá	710	Panajachel	8	Panajachel	6	Junio	2023-05-06T00:00:00	2024-11-08T04:00:00	5	Humedad	78
40985	7	Sololá	710	Panajachel	8	Panajachel	6	Junio	2023-05-06T00:00:00	2024-11-08T04:00:00	6	Velocidad del viento	3.2
40986	7	Sololá	710	Panajachel	8	Panajachel	6	Junio	2023-05-06T00:00:00	2024-11-08T04:00:00	7	Dirección del viento	3.22
40987	7	Sololá	710	Panajachel	8	Panajachel	6	Junio	2023-05-06T00:00:00	2024-11-08T04:00:00	1	Precipitación	0
40988	7	Sololá	710	Panajachel	8	Panajachel	6	Junio	2023-05-06T00:00:00	2024-11-08T04:00:00	8	Radiación solar	0
40989	7	Sololá	710	Panajachel	8	Panajachel	6	Junio	2023-05-06T00:00:00	2024-11-08T05:00:00	2	Temperatura media	16.7
40990	7	Sololá	710	Panajachel	8	Panajachel	6	Junio	2023-05-06T00:00:00	2024-11-08T05:00:00	4	Temperatura máxima	17.1
40991	7	Sololá	710	Panajachel	8	Panajachel	6	Junio	2023-05-06T00:00:00	2024-11-08T05:00:00	3	Temperatura mínima	16.7
40992	7	Sololá	710	Panajachel	8	Panajachel	6	Junio	2023-05-06T00:00:00	2024-11-08T05:00:00	5	Humedad	79
40993	7	Sololá	710	Panajachel	8	Panajachel	6	Junio	2023-05-06T00:00:00	2024-11-08T05:00:00	6	Velocidad del viento	3.2
40994	7	Sololá	710	Panajachel	8	Panajachel	6	Junio	2023-05-06T00:00:00	2024-11-08T05:00:00	7	Dirección del viento	3.22
40995	7	Sololá	710	Panajachel	8	Panajachel	6	Junio	2023-05-06T00:00:00	2024-11-08T05:00:00	1	Precipitación	0
40996	7	Sololá	710	Panajachel	8	Panajachel	6	Junio	2023-05-06T00:00:00	2024-11-08T05:00:00	8	Radiación solar	0
40997	7	Sololá	710	Panajachel	8	Panajachel	6	Junio	2023-05-06T00:00:00	2024-11-08T06:00:00	2	Temperatura media	16.7
40998	7	Sololá	710	Panajachel	8	Panajachel	6	Junio	2023-05-06T00:00:00	2024-11-08T06:00:00	4	Temperatura máxima	16.7
40999	7	Sololá	710	Panajachel	8	Panajachel	6	Junio	2023-05-06T00:00:00	2024-11-08T06:00:00	3	Temperatura mínima	16.5
41000	7	Sololá	710	Panajachel	8	Panajachel	6	Junio	2023-05-06T00:00:00	2024-11-08T06:00:00	5	Humedad	79
41001	7	Sololá	710	Panajachel	8	Panajachel	6	Junio	2023-05-06T00:00:00	2024-11-08T06:00:00	6	Velocidad del viento	3.2
41002	7	Sololá	710	Panajachel	8	Panajachel	6	Junio	2023-05-06T00:00:00	2024-11-08T06:00:00	7	Dirección del viento	3.22
41003	7	Sololá	710	Panajachel	8	Panajachel	6	Junio	2023-05-06T00:00:00	2024-11-08T06:00:00	1	Precipitación	0
41004	7	Sololá	710	Panajachel	8	Panajachel	6	Junio	2023-05-06T00:00:00	2024-11-08T06:00:00	8	Radiación solar	3
41005	7	Sololá	710	Panajachel	8	Panajachel	6	Junio	2023-05-06T00:00:00	2024-11-08T07:00:00	2	Temperatura media	18.9
41006	7	Sololá	710	Panajachel	8	Panajachel	6	Junio	2023-05-06T00:00:00	2024-11-08T07:00:00	4	Temperatura máxima	18.9
41007	7	Sololá	710	Panajachel	8	Panajachel	6	Junio	2023-05-06T00:00:00	2024-11-08T07:00:00	3	Temperatura mínima	16.7
41008	7	Sololá	710	Panajachel	8	Panajachel	6	Junio	2023-05-06T00:00:00	2024-11-08T07:00:00	5	Humedad	75
41009	7	Sololá	710	Panajachel	8	Panajachel	6	Junio	2023-05-06T00:00:00	2024-11-08T07:00:00	6	Velocidad del viento	1.6
41010	7	Sololá	710	Panajachel	8	Panajachel	6	Junio	2023-05-06T00:00:00	2024-11-08T07:00:00	7	Dirección del viento	1.61
41011	7	Sololá	710	Panajachel	8	Panajachel	6	Junio	2023-05-06T00:00:00	2024-11-08T07:00:00	1	Precipitación	0
41012	7	Sololá	710	Panajachel	8	Panajachel	6	Junio	2023-05-06T00:00:00	2024-11-08T07:00:00	8	Radiación solar	121
41013	7	Sololá	710	Panajachel	8	Panajachel	6	Junio	2023-05-06T00:00:00	2024-11-08T08:00:00	2	Temperatura media	21.4
41014	7	Sololá	710	Panajachel	8	Panajachel	6	Junio	2023-05-06T00:00:00	2024-11-08T08:00:00	4	Temperatura máxima	21.8
41015	7	Sololá	710	Panajachel	8	Panajachel	6	Junio	2023-05-06T00:00:00	2024-11-08T08:00:00	3	Temperatura mínima	18.9
41016	7	Sololá	710	Panajachel	8	Panajachel	6	Junio	2023-05-06T00:00:00	2024-11-08T08:00:00	5	Humedad	71
41017	7	Sololá	710	Panajachel	8	Panajachel	6	Junio	2023-05-06T00:00:00	2024-11-08T08:00:00	6	Velocidad del viento	0
41018	7	Sololá	710	Panajachel	8	Panajachel	6	Junio	2023-05-06T00:00:00	2024-11-08T08:00:00	7	Dirección del viento	0
41019	7	Sololá	710	Panajachel	8	Panajachel	6	Junio	2023-05-06T00:00:00	2024-11-08T08:00:00	1	Precipitación	0
41020	7	Sololá	710	Panajachel	8	Panajachel	6	Junio	2023-05-06T00:00:00	2024-11-08T08:00:00	8	Radiación solar	343
41021	7	Sololá	710	Panajachel	8	Panajachel	6	Junio	2023-05-06T00:00:00	2024-11-08T09:00:00	2	Temperatura media	21.7
41022	7	Sololá	710	Panajachel	8	Panajachel	6	Junio	2023-05-06T00:00:00	2024-11-08T09:00:00	4	Temperatura máxima	21.7
41023	7	Sololá	710	Panajachel	8	Panajachel	6	Junio	2023-05-06T00:00:00	2024-11-08T09:00:00	3	Temperatura mínima	21.2
41024	7	Sololá	710	Panajachel	8	Panajachel	6	Junio	2023-05-06T00:00:00	2024-11-08T09:00:00	5	Humedad	79
41025	7	Sololá	710	Panajachel	8	Panajachel	6	Junio	2023-05-06T00:00:00	2024-11-08T09:00:00	6	Velocidad del viento	0
41026	7	Sololá	710	Panajachel	8	Panajachel	6	Junio	2023-05-06T00:00:00	2024-11-08T09:00:00	7	Dirección del viento	0
41027	7	Sololá	710	Panajachel	8	Panajachel	6	Junio	2023-05-06T00:00:00	2024-11-08T09:00:00	1	Precipitación	0
41028	7	Sololá	710	Panajachel	8	Panajachel	6	Junio	2023-05-06T00:00:00	2024-11-08T09:00:00	8	Radiación solar	453
41029	7	Sololá	710	Panajachel	8	Panajachel	6	Junio	2023-05-06T00:00:00	2024-11-08T10:00:00	2	Temperatura media	23.3
41030	7	Sololá	710	Panajachel	8	Panajachel	6	Junio	2023-05-06T00:00:00	2024-11-08T10:00:00	4	Temperatura máxima	23.3
41031	7	Sololá	710	Panajachel	8	Panajachel	6	Junio	2023-05-06T00:00:00	2024-11-08T10:00:00	3	Temperatura mínima	21.7
41032	7	Sololá	710	Panajachel	8	Panajachel	6	Junio	2023-05-06T00:00:00	2024-11-08T10:00:00	5	Humedad	69
41033	7	Sololá	710	Panajachel	8	Panajachel	6	Junio	2023-05-06T00:00:00	2024-11-08T10:00:00	6	Velocidad del viento	1.6
41034	7	Sololá	710	Panajachel	8	Panajachel	6	Junio	2023-05-06T00:00:00	2024-11-08T10:00:00	7	Dirección del viento	1.61
41035	7	Sololá	710	Panajachel	8	Panajachel	6	Junio	2023-05-06T00:00:00	2024-11-08T10:00:00	1	Precipitación	0
41036	7	Sololá	710	Panajachel	8	Panajachel	6	Junio	2023-05-06T00:00:00	2024-11-08T10:00:00	8	Radiación solar	532
41037	7	Sololá	710	Panajachel	8	Panajachel	6	Junio	2023-05-06T00:00:00	2024-11-08T11:00:00	2	Temperatura media	22.7
41038	7	Sololá	710	Panajachel	8	Panajachel	6	Junio	2023-05-06T00:00:00	2024-11-08T11:00:00	4	Temperatura máxima	23.5
41039	7	Sololá	710	Panajachel	8	Panajachel	6	Junio	2023-05-06T00:00:00	2024-11-08T11:00:00	3	Temperatura mínima	22.7
41040	7	Sololá	710	Panajachel	8	Panajachel	6	Junio	2023-05-06T00:00:00	2024-11-08T11:00:00	5	Humedad	71
41041	7	Sololá	710	Panajachel	8	Panajachel	6	Junio	2023-05-06T00:00:00	2024-11-08T11:00:00	6	Velocidad del viento	6.4
41042	7	Sololá	710	Panajachel	8	Panajachel	6	Junio	2023-05-06T00:00:00	2024-11-08T11:00:00	7	Dirección del viento	6.44
41043	7	Sololá	710	Panajachel	8	Panajachel	6	Junio	2023-05-06T00:00:00	2024-11-08T11:00:00	1	Precipitación	0
41044	7	Sololá	710	Panajachel	8	Panajachel	6	Junio	2023-05-06T00:00:00	2024-11-08T11:00:00	8	Radiación solar	691
41045	7	Sololá	710	Panajachel	8	Panajachel	6	Junio	2023-05-06T00:00:00	2024-11-08T12:00:00	2	Temperatura media	23.6
41046	7	Sololá	710	Panajachel	8	Panajachel	6	Junio	2023-05-06T00:00:00	2024-11-08T12:00:00	4	Temperatura máxima	23.6
41047	7	Sololá	710	Panajachel	8	Panajachel	6	Junio	2023-05-06T00:00:00	2024-11-08T12:00:00	3	Temperatura mínima	22.6
41048	7	Sololá	710	Panajachel	8	Panajachel	6	Junio	2023-05-06T00:00:00	2024-11-08T12:00:00	5	Humedad	69
41049	7	Sololá	710	Panajachel	8	Panajachel	6	Junio	2023-05-06T00:00:00	2024-11-08T12:00:00	6	Velocidad del viento	3.2
41050	7	Sololá	710	Panajachel	8	Panajachel	6	Junio	2023-05-06T00:00:00	2024-11-08T12:00:00	7	Dirección del viento	3.22
41051	7	Sololá	710	Panajachel	8	Panajachel	6	Junio	2023-05-06T00:00:00	2024-11-08T12:00:00	1	Precipitación	0
41052	7	Sololá	710	Panajachel	8	Panajachel	6	Junio	2023-05-06T00:00:00	2024-11-08T12:00:00	8	Radiación solar	674
41053	7	Sololá	710	Panajachel	8	Panajachel	6	Junio	2023-05-06T00:00:00	2024-11-08T13:00:00	2	Temperatura media	24.2
41054	7	Sololá	710	Panajachel	8	Panajachel	6	Junio	2023-05-06T00:00:00	2024-11-08T13:00:00	4	Temperatura máxima	24.3
41055	7	Sololá	710	Panajachel	8	Panajachel	6	Junio	2023-05-06T00:00:00	2024-11-08T13:00:00	3	Temperatura mínima	23.6
41056	7	Sololá	710	Panajachel	8	Panajachel	6	Junio	2023-05-06T00:00:00	2024-11-08T13:00:00	5	Humedad	71
41057	7	Sololá	710	Panajachel	8	Panajachel	6	Junio	2023-05-06T00:00:00	2024-11-08T13:00:00	6	Velocidad del viento	3.2
41058	7	Sololá	710	Panajachel	8	Panajachel	6	Junio	2023-05-06T00:00:00	2024-11-08T13:00:00	7	Dirección del viento	3.22
41059	7	Sololá	710	Panajachel	8	Panajachel	6	Junio	2023-05-06T00:00:00	2024-11-08T13:00:00	1	Precipitación	0
41060	7	Sololá	710	Panajachel	8	Panajachel	6	Junio	2023-05-06T00:00:00	2024-11-08T13:00:00	8	Radiación solar	827
41061	7	Sololá	710	Panajachel	8	Panajachel	6	Junio	2023-05-06T00:00:00	2024-11-08T14:00:00	2	Temperatura media	24.8
41062	7	Sololá	710	Panajachel	8	Panajachel	6	Junio	2023-05-06T00:00:00	2024-11-08T14:00:00	4	Temperatura máxima	25.3
41063	7	Sololá	710	Panajachel	8	Panajachel	6	Junio	2023-05-06T00:00:00	2024-11-08T14:00:00	3	Temperatura mínima	24.1
41064	7	Sololá	710	Panajachel	8	Panajachel	6	Junio	2023-05-06T00:00:00	2024-11-08T14:00:00	5	Humedad	63
41065	7	Sololá	710	Panajachel	8	Panajachel	6	Junio	2023-05-06T00:00:00	2024-11-08T14:00:00	6	Velocidad del viento	4.8
41066	7	Sololá	710	Panajachel	8	Panajachel	6	Junio	2023-05-06T00:00:00	2024-11-08T14:00:00	7	Dirección del viento	4.83
41067	7	Sololá	710	Panajachel	8	Panajachel	6	Junio	2023-05-06T00:00:00	2024-11-08T14:00:00	1	Precipitación	0
41068	7	Sololá	710	Panajachel	8	Panajachel	6	Junio	2023-05-06T00:00:00	2024-11-08T14:00:00	8	Radiación solar	753
41069	7	Sololá	710	Panajachel	8	Panajachel	6	Junio	2023-05-06T00:00:00	2024-11-08T15:00:00	2	Temperatura media	24
41070	7	Sololá	710	Panajachel	8	Panajachel	6	Junio	2023-05-06T00:00:00	2024-11-08T15:00:00	4	Temperatura máxima	25.1
41071	7	Sololá	710	Panajachel	8	Panajachel	6	Junio	2023-05-06T00:00:00	2024-11-08T15:00:00	3	Temperatura mínima	23.9
41072	7	Sololá	710	Panajachel	8	Panajachel	6	Junio	2023-05-06T00:00:00	2024-11-08T15:00:00	5	Humedad	71
41073	7	Sololá	710	Panajachel	8	Panajachel	6	Junio	2023-05-06T00:00:00	2024-11-08T15:00:00	6	Velocidad del viento	4.8
41074	7	Sololá	710	Panajachel	8	Panajachel	6	Junio	2023-05-06T00:00:00	2024-11-08T15:00:00	7	Dirección del viento	4.83
41075	7	Sololá	710	Panajachel	8	Panajachel	6	Junio	2023-05-06T00:00:00	2024-11-08T15:00:00	1	Precipitación	0
41076	7	Sololá	710	Panajachel	8	Panajachel	6	Junio	2023-05-06T00:00:00	2024-11-08T15:00:00	8	Radiación solar	617
41077	7	Sololá	710	Panajachel	8	Panajachel	6	Junio	2023-05-06T00:00:00	2024-11-08T16:00:00	2	Temperatura media	22.4
41078	7	Sololá	710	Panajachel	8	Panajachel	6	Junio	2023-05-06T00:00:00	2024-11-08T16:00:00	4	Temperatura máxima	24
41079	7	Sololá	710	Panajachel	8	Panajachel	6	Junio	2023-05-06T00:00:00	2024-11-08T16:00:00	3	Temperatura mínima	22.4
41080	7	Sololá	710	Panajachel	8	Panajachel	6	Junio	2023-05-06T00:00:00	2024-11-08T16:00:00	5	Humedad	82
41081	7	Sololá	710	Panajachel	8	Panajachel	6	Junio	2023-05-06T00:00:00	2024-11-08T16:00:00	6	Velocidad del viento	4.8
41082	7	Sololá	710	Panajachel	8	Panajachel	6	Junio	2023-05-06T00:00:00	2024-11-08T16:00:00	7	Dirección del viento	4.83
41083	7	Sololá	710	Panajachel	8	Panajachel	6	Junio	2023-05-06T00:00:00	2024-11-08T16:00:00	1	Precipitación	0
41084	7	Sololá	710	Panajachel	8	Panajachel	6	Junio	2023-05-06T00:00:00	2024-11-08T16:00:00	8	Radiación solar	295
41085	7	Sololá	710	Panajachel	8	Panajachel	6	Junio	2023-05-06T00:00:00	2024-11-08T17:00:00	2	Temperatura media	21.4
41086	7	Sololá	710	Panajachel	8	Panajachel	6	Junio	2023-05-06T00:00:00	2024-11-08T17:00:00	4	Temperatura máxima	22.4
41087	7	Sololá	710	Panajachel	8	Panajachel	6	Junio	2023-05-06T00:00:00	2024-11-08T17:00:00	3	Temperatura mínima	21.4
41088	7	Sololá	710	Panajachel	8	Panajachel	6	Junio	2023-05-06T00:00:00	2024-11-08T17:00:00	5	Humedad	84
41089	7	Sololá	710	Panajachel	8	Panajachel	6	Junio	2023-05-06T00:00:00	2024-11-08T17:00:00	6	Velocidad del viento	3.2
41090	7	Sololá	710	Panajachel	8	Panajachel	6	Junio	2023-05-06T00:00:00	2024-11-08T17:00:00	7	Dirección del viento	3.22
41091	7	Sololá	710	Panajachel	8	Panajachel	6	Junio	2023-05-06T00:00:00	2024-11-08T17:00:00	1	Precipitación	0
41092	7	Sololá	710	Panajachel	8	Panajachel	6	Junio	2023-05-06T00:00:00	2024-11-08T17:00:00	8	Radiación solar	147
41093	7	Sololá	710	Panajachel	8	Panajachel	6	Junio	2023-05-06T00:00:00	2024-11-08T18:00:00	2	Temperatura media	21.3
41094	7	Sololá	710	Panajachel	8	Panajachel	6	Junio	2023-05-06T00:00:00	2024-11-08T18:00:00	4	Temperatura máxima	21.6
41095	7	Sololá	710	Panajachel	8	Panajachel	6	Junio	2023-05-06T00:00:00	2024-11-08T18:00:00	3	Temperatura mínima	21.2
41096	7	Sololá	710	Panajachel	8	Panajachel	6	Junio	2023-05-06T00:00:00	2024-11-08T18:00:00	5	Humedad	83
41097	7	Sololá	710	Panajachel	8	Panajachel	6	Junio	2023-05-06T00:00:00	2024-11-08T18:00:00	6	Velocidad del viento	0
41098	7	Sololá	710	Panajachel	8	Panajachel	6	Junio	2023-05-06T00:00:00	2024-11-08T18:00:00	7	Dirección del viento	0
41099	7	Sololá	710	Panajachel	8	Panajachel	6	Junio	2023-05-06T00:00:00	2024-11-08T18:00:00	1	Precipitación	0
41100	7	Sololá	710	Panajachel	8	Panajachel	6	Junio	2023-05-06T00:00:00	2024-11-08T18:00:00	8	Radiación solar	72
41101	7	Sololá	710	Panajachel	8	Panajachel	6	Junio	2023-05-06T00:00:00	2024-11-08T19:00:00	2	Temperatura media	20.8
41102	7	Sololá	710	Panajachel	8	Panajachel	6	Junio	2023-05-06T00:00:00	2024-11-08T19:00:00	4	Temperatura máxima	21.3
41103	7	Sololá	710	Panajachel	8	Panajachel	6	Junio	2023-05-06T00:00:00	2024-11-08T19:00:00	3	Temperatura mínima	20.8
41104	7	Sololá	710	Panajachel	8	Panajachel	6	Junio	2023-05-06T00:00:00	2024-11-08T19:00:00	5	Humedad	89
41105	7	Sololá	710	Panajachel	8	Panajachel	6	Junio	2023-05-06T00:00:00	2024-11-08T19:00:00	6	Velocidad del viento	1.6
41106	7	Sololá	710	Panajachel	8	Panajachel	6	Junio	2023-05-06T00:00:00	2024-11-08T19:00:00	7	Dirección del viento	1.61
41107	7	Sololá	710	Panajachel	8	Panajachel	6	Junio	2023-05-06T00:00:00	2024-11-08T19:00:00	1	Precipitación	0
41108	7	Sololá	710	Panajachel	8	Panajachel	6	Junio	2023-05-06T00:00:00	2024-11-08T19:00:00	8	Radiación solar	0
41109	7	Sololá	710	Panajachel	8	Panajachel	6	Junio	2023-05-06T00:00:00	2024-11-08T20:00:00	2	Temperatura media	20.7
41110	7	Sololá	710	Panajachel	8	Panajachel	6	Junio	2023-05-06T00:00:00	2024-11-08T20:00:00	4	Temperatura máxima	20.9
41111	7	Sololá	710	Panajachel	8	Panajachel	6	Junio	2023-05-06T00:00:00	2024-11-08T20:00:00	3	Temperatura mínima	20.6
41112	7	Sololá	710	Panajachel	8	Panajachel	6	Junio	2023-05-06T00:00:00	2024-11-08T20:00:00	5	Humedad	88
41113	7	Sololá	710	Panajachel	8	Panajachel	6	Junio	2023-05-06T00:00:00	2024-11-08T20:00:00	6	Velocidad del viento	1.6
41114	7	Sololá	710	Panajachel	8	Panajachel	6	Junio	2023-05-06T00:00:00	2024-11-08T20:00:00	7	Dirección del viento	1.61
41115	7	Sololá	710	Panajachel	8	Panajachel	6	Junio	2023-05-06T00:00:00	2024-11-08T20:00:00	1	Precipitación	0
41116	7	Sololá	710	Panajachel	8	Panajachel	6	Junio	2023-05-06T00:00:00	2024-11-08T20:00:00	8	Radiación solar	0
41117	7	Sololá	710	Panajachel	8	Panajachel	6	Junio	2023-05-06T00:00:00	2024-11-08T21:00:00	2	Temperatura media	20.6
41118	7	Sololá	710	Panajachel	8	Panajachel	6	Junio	2023-05-06T00:00:00	2024-11-08T21:00:00	4	Temperatura máxima	20.8
41119	7	Sololá	710	Panajachel	8	Panajachel	6	Junio	2023-05-06T00:00:00	2024-11-08T21:00:00	3	Temperatura mínima	20.6
41120	7	Sololá	710	Panajachel	8	Panajachel	6	Junio	2023-05-06T00:00:00	2024-11-08T21:00:00	5	Humedad	88
41121	7	Sololá	710	Panajachel	8	Panajachel	6	Junio	2023-05-06T00:00:00	2024-11-08T21:00:00	6	Velocidad del viento	1.6
41122	7	Sololá	710	Panajachel	8	Panajachel	6	Junio	2023-05-06T00:00:00	2024-11-08T21:00:00	7	Dirección del viento	1.61
41123	7	Sololá	710	Panajachel	8	Panajachel	6	Junio	2023-05-06T00:00:00	2024-11-08T21:00:00	1	Precipitación	0
41124	7	Sololá	710	Panajachel	8	Panajachel	6	Junio	2023-05-06T00:00:00	2024-11-08T21:00:00	8	Radiación solar	0
41125	7	Sololá	710	Panajachel	8	Panajachel	6	Junio	2023-05-06T00:00:00	2024-11-08T22:00:00	2	Temperatura media	20.4
41126	7	Sololá	710	Panajachel	8	Panajachel	6	Junio	2023-05-06T00:00:00	2024-11-08T22:00:00	4	Temperatura máxima	20.7
41127	7	Sololá	710	Panajachel	8	Panajachel	6	Junio	2023-05-06T00:00:00	2024-11-08T22:00:00	3	Temperatura mínima	20.4
41128	7	Sololá	710	Panajachel	8	Panajachel	6	Junio	2023-05-06T00:00:00	2024-11-08T22:00:00	5	Humedad	89
41129	7	Sololá	710	Panajachel	8	Panajachel	6	Junio	2023-05-06T00:00:00	2024-11-08T22:00:00	6	Velocidad del viento	1.6
41130	7	Sololá	710	Panajachel	8	Panajachel	6	Junio	2023-05-06T00:00:00	2024-11-08T22:00:00	7	Dirección del viento	1.61
41131	7	Sololá	710	Panajachel	8	Panajachel	6	Junio	2023-05-06T00:00:00	2024-11-08T22:00:00	1	Precipitación	0
41132	7	Sololá	710	Panajachel	8	Panajachel	6	Junio	2023-05-06T00:00:00	2024-11-08T22:00:00	8	Radiación solar	0
41133	7	Sololá	710	Panajachel	8	Panajachel	6	Junio	2023-05-06T00:00:00	2024-11-08T23:00:00	2	Temperatura media	20
41134	7	Sololá	710	Panajachel	8	Panajachel	6	Junio	2023-05-06T00:00:00	2024-11-08T23:00:00	4	Temperatura máxima	20.4
41135	7	Sololá	710	Panajachel	8	Panajachel	6	Junio	2023-05-06T00:00:00	2024-11-08T23:00:00	3	Temperatura mínima	20
41136	7	Sololá	710	Panajachel	8	Panajachel	6	Junio	2023-05-06T00:00:00	2024-11-08T23:00:00	5	Humedad	89
41137	7	Sololá	710	Panajachel	8	Panajachel	6	Junio	2023-05-06T00:00:00	2024-11-08T23:00:00	6	Velocidad del viento	1.6
41138	7	Sololá	710	Panajachel	8	Panajachel	6	Junio	2023-05-06T00:00:00	2024-11-08T23:00:00	7	Dirección del viento	1.61
41139	7	Sololá	710	Panajachel	8	Panajachel	6	Junio	2023-05-06T00:00:00	2024-11-08T23:00:00	1	Precipitación	0
41140	7	Sololá	710	Panajachel	8	Panajachel	6	Junio	2023-05-06T00:00:00	2024-11-08T23:00:00	8	Radiación solar	0
41141	7	Sololá	710	Panajachel	8	Panajachel	6	Junio	2023-06-06T00:00:00	2024-11-08T00:00:00	2	Temperatura media	19.6
41142	7	Sololá	710	Panajachel	8	Panajachel	6	Junio	2023-06-06T00:00:00	2024-11-08T00:00:00	4	Temperatura máxima	20
41143	7	Sololá	710	Panajachel	8	Panajachel	6	Junio	2023-06-06T00:00:00	2024-11-08T00:00:00	3	Temperatura mínima	19.6
41144	7	Sololá	710	Panajachel	8	Panajachel	6	Junio	2023-06-06T00:00:00	2024-11-08T00:00:00	5	Humedad	88
41145	7	Sololá	710	Panajachel	8	Panajachel	6	Junio	2023-06-06T00:00:00	2024-11-08T00:00:00	6	Velocidad del viento	0
41146	7	Sololá	710	Panajachel	8	Panajachel	6	Junio	2023-06-06T00:00:00	2024-11-08T00:00:00	7	Dirección del viento	0
41147	7	Sololá	710	Panajachel	8	Panajachel	6	Junio	2023-06-06T00:00:00	2024-11-08T00:00:00	1	Precipitación	0
41148	7	Sololá	710	Panajachel	8	Panajachel	6	Junio	2023-06-06T00:00:00	2024-11-08T00:00:00	8	Radiación solar	0
41149	7	Sololá	710	Panajachel	8	Panajachel	6	Junio	2023-06-06T00:00:00	2024-11-08T01:00:00	2	Temperatura media	19.2
41150	7	Sololá	710	Panajachel	8	Panajachel	6	Junio	2023-06-06T00:00:00	2024-11-08T01:00:00	4	Temperatura máxima	19.7
41151	7	Sololá	710	Panajachel	8	Panajachel	6	Junio	2023-06-06T00:00:00	2024-11-08T01:00:00	3	Temperatura mínima	19
41152	7	Sololá	710	Panajachel	8	Panajachel	6	Junio	2023-06-06T00:00:00	2024-11-08T01:00:00	5	Humedad	85
41153	7	Sololá	710	Panajachel	8	Panajachel	6	Junio	2023-06-06T00:00:00	2024-11-08T01:00:00	6	Velocidad del viento	1.6
41154	7	Sololá	710	Panajachel	8	Panajachel	6	Junio	2023-06-06T00:00:00	2024-11-08T01:00:00	7	Dirección del viento	1.61
41155	7	Sololá	710	Panajachel	8	Panajachel	6	Junio	2023-06-06T00:00:00	2024-11-08T01:00:00	1	Precipitación	0
41156	7	Sololá	710	Panajachel	8	Panajachel	6	Junio	2023-06-06T00:00:00	2024-11-08T01:00:00	8	Radiación solar	0
41157	7	Sololá	710	Panajachel	8	Panajachel	6	Junio	2023-06-06T00:00:00	2024-11-08T02:00:00	2	Temperatura media	18.6
41158	7	Sololá	710	Panajachel	8	Panajachel	6	Junio	2023-06-06T00:00:00	2024-11-08T02:00:00	4	Temperatura máxima	19.2
41159	7	Sololá	710	Panajachel	8	Panajachel	6	Junio	2023-06-06T00:00:00	2024-11-08T02:00:00	3	Temperatura mínima	18.6
41160	7	Sololá	710	Panajachel	8	Panajachel	6	Junio	2023-06-06T00:00:00	2024-11-08T02:00:00	5	Humedad	81
41161	7	Sololá	710	Panajachel	8	Panajachel	6	Junio	2023-06-06T00:00:00	2024-11-08T02:00:00	6	Velocidad del viento	3.2
41162	7	Sololá	710	Panajachel	8	Panajachel	6	Junio	2023-06-06T00:00:00	2024-11-08T02:00:00	7	Dirección del viento	3.22
41163	7	Sololá	710	Panajachel	8	Panajachel	6	Junio	2023-06-06T00:00:00	2024-11-08T02:00:00	1	Precipitación	0
41164	7	Sololá	710	Panajachel	8	Panajachel	6	Junio	2023-06-06T00:00:00	2024-11-08T02:00:00	8	Radiación solar	0
41165	7	Sololá	710	Panajachel	8	Panajachel	6	Junio	2023-06-06T00:00:00	2024-11-08T03:00:00	2	Temperatura media	18.3
41166	7	Sololá	710	Panajachel	8	Panajachel	6	Junio	2023-06-06T00:00:00	2024-11-08T03:00:00	4	Temperatura máxima	18.7
41167	7	Sololá	710	Panajachel	8	Panajachel	6	Junio	2023-06-06T00:00:00	2024-11-08T03:00:00	3	Temperatura mínima	18.3
41168	7	Sololá	710	Panajachel	8	Panajachel	6	Junio	2023-06-06T00:00:00	2024-11-08T03:00:00	5	Humedad	79
41169	7	Sololá	710	Panajachel	8	Panajachel	6	Junio	2023-06-06T00:00:00	2024-11-08T03:00:00	6	Velocidad del viento	3.2
41170	7	Sololá	710	Panajachel	8	Panajachel	6	Junio	2023-06-06T00:00:00	2024-11-08T03:00:00	7	Dirección del viento	3.22
41171	7	Sololá	710	Panajachel	8	Panajachel	6	Junio	2023-06-06T00:00:00	2024-11-08T03:00:00	1	Precipitación	0
41172	7	Sololá	710	Panajachel	8	Panajachel	6	Junio	2023-06-06T00:00:00	2024-11-08T03:00:00	8	Radiación solar	0
41173	7	Sololá	710	Panajachel	8	Panajachel	6	Junio	2023-06-06T00:00:00	2024-11-08T04:00:00	2	Temperatura media	18.6
41174	7	Sololá	710	Panajachel	8	Panajachel	6	Junio	2023-06-06T00:00:00	2024-11-08T04:00:00	4	Temperatura máxima	18.7
41175	7	Sololá	710	Panajachel	8	Panajachel	6	Junio	2023-06-06T00:00:00	2024-11-08T04:00:00	3	Temperatura mínima	18.2
41176	7	Sololá	710	Panajachel	8	Panajachel	6	Junio	2023-06-06T00:00:00	2024-11-08T04:00:00	5	Humedad	75
41177	7	Sololá	710	Panajachel	8	Panajachel	6	Junio	2023-06-06T00:00:00	2024-11-08T04:00:00	6	Velocidad del viento	4.8
41178	7	Sololá	710	Panajachel	8	Panajachel	6	Junio	2023-06-06T00:00:00	2024-11-08T04:00:00	7	Dirección del viento	4.83
41179	7	Sololá	710	Panajachel	8	Panajachel	6	Junio	2023-06-06T00:00:00	2024-11-08T04:00:00	1	Precipitación	0
41180	7	Sololá	710	Panajachel	8	Panajachel	6	Junio	2023-06-06T00:00:00	2024-11-08T04:00:00	8	Radiación solar	0
41181	7	Sololá	710	Panajachel	8	Panajachel	6	Junio	2023-06-06T00:00:00	2024-11-08T05:00:00	2	Temperatura media	17.8
41182	7	Sololá	710	Panajachel	8	Panajachel	6	Junio	2023-06-06T00:00:00	2024-11-08T05:00:00	4	Temperatura máxima	18.7
41183	7	Sololá	710	Panajachel	8	Panajachel	6	Junio	2023-06-06T00:00:00	2024-11-08T05:00:00	3	Temperatura mínima	17.7
41184	7	Sololá	710	Panajachel	8	Panajachel	6	Junio	2023-06-06T00:00:00	2024-11-08T05:00:00	5	Humedad	77
41185	7	Sololá	710	Panajachel	8	Panajachel	6	Junio	2023-06-06T00:00:00	2024-11-08T05:00:00	6	Velocidad del viento	3.2
41186	7	Sololá	710	Panajachel	8	Panajachel	6	Junio	2023-06-06T00:00:00	2024-11-08T05:00:00	7	Dirección del viento	3.22
41187	7	Sololá	710	Panajachel	8	Panajachel	6	Junio	2023-06-06T00:00:00	2024-11-08T05:00:00	1	Precipitación	0
41188	7	Sololá	710	Panajachel	8	Panajachel	6	Junio	2023-06-06T00:00:00	2024-11-08T05:00:00	8	Radiación solar	0
41189	7	Sololá	710	Panajachel	8	Panajachel	6	Junio	2023-06-06T00:00:00	2024-11-08T06:00:00	2	Temperatura media	17.5
41190	7	Sololá	710	Panajachel	8	Panajachel	6	Junio	2023-06-06T00:00:00	2024-11-08T06:00:00	4	Temperatura máxima	17.8
41191	7	Sololá	710	Panajachel	8	Panajachel	6	Junio	2023-06-06T00:00:00	2024-11-08T06:00:00	3	Temperatura mínima	17.4
41192	7	Sololá	710	Panajachel	8	Panajachel	6	Junio	2023-06-06T00:00:00	2024-11-08T06:00:00	5	Humedad	77
41193	7	Sololá	710	Panajachel	8	Panajachel	6	Junio	2023-06-06T00:00:00	2024-11-08T06:00:00	6	Velocidad del viento	4.8
41194	7	Sololá	710	Panajachel	8	Panajachel	6	Junio	2023-06-06T00:00:00	2024-11-08T06:00:00	7	Dirección del viento	4.83
41195	7	Sololá	710	Panajachel	8	Panajachel	6	Junio	2023-06-06T00:00:00	2024-11-08T06:00:00	1	Precipitación	0
41196	7	Sololá	710	Panajachel	8	Panajachel	6	Junio	2023-06-06T00:00:00	2024-11-08T06:00:00	8	Radiación solar	5
41197	7	Sololá	710	Panajachel	8	Panajachel	6	Junio	2023-06-06T00:00:00	2024-11-08T07:00:00	2	Temperatura media	18.7
41198	7	Sololá	710	Panajachel	8	Panajachel	6	Junio	2023-06-06T00:00:00	2024-11-08T07:00:00	4	Temperatura máxima	18.7
41199	7	Sololá	710	Panajachel	8	Panajachel	6	Junio	2023-06-06T00:00:00	2024-11-08T07:00:00	3	Temperatura mínima	17.4
41200	7	Sololá	710	Panajachel	8	Panajachel	6	Junio	2023-06-06T00:00:00	2024-11-08T07:00:00	5	Humedad	77
41201	7	Sololá	710	Panajachel	8	Panajachel	6	Junio	2023-06-06T00:00:00	2024-11-08T07:00:00	6	Velocidad del viento	4.8
41202	7	Sololá	710	Panajachel	8	Panajachel	6	Junio	2023-06-06T00:00:00	2024-11-08T07:00:00	7	Dirección del viento	4.83
41203	7	Sololá	710	Panajachel	8	Panajachel	6	Junio	2023-06-06T00:00:00	2024-11-08T07:00:00	1	Precipitación	0
41204	7	Sololá	710	Panajachel	8	Panajachel	6	Junio	2023-06-06T00:00:00	2024-11-08T07:00:00	8	Radiación solar	91
41205	7	Sololá	710	Panajachel	8	Panajachel	6	Junio	2023-06-06T00:00:00	2024-11-08T08:00:00	2	Temperatura media	21.6
41206	7	Sololá	710	Panajachel	8	Panajachel	6	Junio	2023-06-06T00:00:00	2024-11-08T08:00:00	4	Temperatura máxima	21.6
41207	7	Sololá	710	Panajachel	8	Panajachel	6	Junio	2023-06-06T00:00:00	2024-11-08T08:00:00	3	Temperatura mínima	18.7
41208	7	Sololá	710	Panajachel	8	Panajachel	6	Junio	2023-06-06T00:00:00	2024-11-08T08:00:00	5	Humedad	73
41209	7	Sololá	710	Panajachel	8	Panajachel	6	Junio	2023-06-06T00:00:00	2024-11-08T08:00:00	6	Velocidad del viento	1.6
41210	7	Sololá	710	Panajachel	8	Panajachel	6	Junio	2023-06-06T00:00:00	2024-11-08T08:00:00	7	Dirección del viento	1.61
41211	7	Sololá	710	Panajachel	8	Panajachel	6	Junio	2023-06-06T00:00:00	2024-11-08T08:00:00	1	Precipitación	0
41212	7	Sololá	710	Panajachel	8	Panajachel	6	Junio	2023-06-06T00:00:00	2024-11-08T08:00:00	8	Radiación solar	262
41213	7	Sololá	710	Panajachel	8	Panajachel	6	Junio	2023-06-06T00:00:00	2024-11-08T09:00:00	2	Temperatura media	22.4
41214	7	Sololá	710	Panajachel	8	Panajachel	6	Junio	2023-06-06T00:00:00	2024-11-08T09:00:00	4	Temperatura máxima	22.4
41215	7	Sololá	710	Panajachel	8	Panajachel	6	Junio	2023-06-06T00:00:00	2024-11-08T09:00:00	3	Temperatura mínima	21.5
41216	7	Sololá	710	Panajachel	8	Panajachel	6	Junio	2023-06-06T00:00:00	2024-11-08T09:00:00	5	Humedad	72
41217	7	Sololá	710	Panajachel	8	Panajachel	6	Junio	2023-06-06T00:00:00	2024-11-08T09:00:00	6	Velocidad del viento	3.2
41218	7	Sololá	710	Panajachel	8	Panajachel	6	Junio	2023-06-06T00:00:00	2024-11-08T09:00:00	7	Dirección del viento	3.22
41219	7	Sololá	710	Panajachel	8	Panajachel	6	Junio	2023-06-06T00:00:00	2024-11-08T09:00:00	1	Precipitación	0
41220	7	Sololá	710	Panajachel	8	Panajachel	6	Junio	2023-06-06T00:00:00	2024-11-08T09:00:00	8	Radiación solar	499
41221	7	Sololá	710	Panajachel	8	Panajachel	6	Junio	2023-06-06T00:00:00	2024-11-08T10:00:00	2	Temperatura media	22.2
41222	7	Sololá	710	Panajachel	8	Panajachel	6	Junio	2023-06-06T00:00:00	2024-11-08T10:00:00	4	Temperatura máxima	22.8
41223	7	Sololá	710	Panajachel	8	Panajachel	6	Junio	2023-06-06T00:00:00	2024-11-08T10:00:00	3	Temperatura mínima	22.1
41224	7	Sololá	710	Panajachel	8	Panajachel	6	Junio	2023-06-06T00:00:00	2024-11-08T10:00:00	5	Humedad	71
41225	7	Sololá	710	Panajachel	8	Panajachel	6	Junio	2023-06-06T00:00:00	2024-11-08T10:00:00	6	Velocidad del viento	1.6
41226	7	Sololá	710	Panajachel	8	Panajachel	6	Junio	2023-06-06T00:00:00	2024-11-08T10:00:00	7	Dirección del viento	1.61
41227	7	Sololá	710	Panajachel	8	Panajachel	6	Junio	2023-06-06T00:00:00	2024-11-08T10:00:00	1	Precipitación	0
41228	7	Sololá	710	Panajachel	8	Panajachel	6	Junio	2023-06-06T00:00:00	2024-11-08T10:00:00	8	Radiación solar	513
41229	7	Sololá	710	Panajachel	8	Panajachel	6	Junio	2023-06-06T00:00:00	2024-11-08T11:00:00	2	Temperatura media	23.6
41230	7	Sololá	710	Panajachel	8	Panajachel	6	Junio	2023-06-06T00:00:00	2024-11-08T11:00:00	4	Temperatura máxima	23.7
41231	7	Sololá	710	Panajachel	8	Panajachel	6	Junio	2023-06-06T00:00:00	2024-11-08T11:00:00	3	Temperatura mínima	22.2
41232	7	Sololá	710	Panajachel	8	Panajachel	6	Junio	2023-06-06T00:00:00	2024-11-08T11:00:00	5	Humedad	67
41233	7	Sololá	710	Panajachel	8	Panajachel	6	Junio	2023-06-06T00:00:00	2024-11-08T11:00:00	6	Velocidad del viento	1.6
41234	7	Sololá	710	Panajachel	8	Panajachel	6	Junio	2023-06-06T00:00:00	2024-11-08T11:00:00	7	Dirección del viento	1.61
41235	7	Sololá	710	Panajachel	8	Panajachel	6	Junio	2023-06-06T00:00:00	2024-11-08T11:00:00	1	Precipitación	0
41236	7	Sololá	710	Panajachel	8	Panajachel	6	Junio	2023-06-06T00:00:00	2024-11-08T11:00:00	8	Radiación solar	615
41237	7	Sololá	710	Panajachel	8	Panajachel	6	Junio	2023-06-06T00:00:00	2024-11-08T12:00:00	2	Temperatura media	23.9
41238	7	Sololá	710	Panajachel	8	Panajachel	6	Junio	2023-06-06T00:00:00	2024-11-08T12:00:00	4	Temperatura máxima	24.7
41239	7	Sololá	710	Panajachel	8	Panajachel	6	Junio	2023-06-06T00:00:00	2024-11-08T12:00:00	3	Temperatura mínima	23.6
41240	7	Sololá	710	Panajachel	8	Panajachel	6	Junio	2023-06-06T00:00:00	2024-11-08T12:00:00	5	Humedad	67
41241	7	Sololá	710	Panajachel	8	Panajachel	6	Junio	2023-06-06T00:00:00	2024-11-08T12:00:00	6	Velocidad del viento	1.6
41242	7	Sololá	710	Panajachel	8	Panajachel	6	Junio	2023-06-06T00:00:00	2024-11-08T12:00:00	7	Dirección del viento	1.61
41243	7	Sololá	710	Panajachel	8	Panajachel	6	Junio	2023-06-06T00:00:00	2024-11-08T12:00:00	1	Precipitación	0
41244	7	Sololá	710	Panajachel	8	Panajachel	6	Junio	2023-06-06T00:00:00	2024-11-08T12:00:00	8	Radiación solar	823
41245	7	Sololá	710	Panajachel	8	Panajachel	6	Junio	2023-06-06T00:00:00	2024-11-08T13:00:00	2	Temperatura media	23.2
41246	7	Sololá	710	Panajachel	8	Panajachel	6	Junio	2023-06-06T00:00:00	2024-11-08T13:00:00	4	Temperatura máxima	24.6
41247	7	Sololá	710	Panajachel	8	Panajachel	6	Junio	2023-06-06T00:00:00	2024-11-08T13:00:00	3	Temperatura mínima	23.2
41248	7	Sololá	710	Panajachel	8	Panajachel	6	Junio	2023-06-06T00:00:00	2024-11-08T13:00:00	5	Humedad	73
41249	7	Sololá	710	Panajachel	8	Panajachel	6	Junio	2023-06-06T00:00:00	2024-11-08T13:00:00	6	Velocidad del viento	3.2
41250	7	Sololá	710	Panajachel	8	Panajachel	6	Junio	2023-06-06T00:00:00	2024-11-08T13:00:00	7	Dirección del viento	3.22
41251	7	Sololá	710	Panajachel	8	Panajachel	6	Junio	2023-06-06T00:00:00	2024-11-08T13:00:00	1	Precipitación	0
41252	7	Sololá	710	Panajachel	8	Panajachel	6	Junio	2023-06-06T00:00:00	2024-11-08T13:00:00	8	Radiación solar	500
41253	7	Sololá	710	Panajachel	8	Panajachel	6	Junio	2023-06-06T00:00:00	2024-11-08T14:00:00	2	Temperatura media	22.4
41254	7	Sololá	710	Panajachel	8	Panajachel	6	Junio	2023-06-06T00:00:00	2024-11-08T14:00:00	4	Temperatura máxima	23.3
41255	7	Sololá	710	Panajachel	8	Panajachel	6	Junio	2023-06-06T00:00:00	2024-11-08T14:00:00	3	Temperatura mínima	21.9
41256	7	Sololá	710	Panajachel	8	Panajachel	6	Junio	2023-06-06T00:00:00	2024-11-08T14:00:00	5	Humedad	73
41257	7	Sololá	710	Panajachel	8	Panajachel	6	Junio	2023-06-06T00:00:00	2024-11-08T14:00:00	6	Velocidad del viento	4.8
41258	7	Sololá	710	Panajachel	8	Panajachel	6	Junio	2023-06-06T00:00:00	2024-11-08T14:00:00	7	Dirección del viento	4.83
41259	7	Sololá	710	Panajachel	8	Panajachel	6	Junio	2023-06-06T00:00:00	2024-11-08T14:00:00	1	Precipitación	0
41260	7	Sololá	710	Panajachel	8	Panajachel	6	Junio	2023-06-06T00:00:00	2024-11-08T14:00:00	8	Radiación solar	248
41261	7	Sololá	710	Panajachel	8	Panajachel	6	Junio	2023-06-06T00:00:00	2024-11-08T15:00:00	2	Temperatura media	22.4
41262	7	Sololá	710	Panajachel	8	Panajachel	6	Junio	2023-06-06T00:00:00	2024-11-08T15:00:00	4	Temperatura máxima	22.7
41263	7	Sololá	710	Panajachel	8	Panajachel	6	Junio	2023-06-06T00:00:00	2024-11-08T15:00:00	3	Temperatura mínima	22.4
41264	7	Sololá	710	Panajachel	8	Panajachel	6	Junio	2023-06-06T00:00:00	2024-11-08T15:00:00	5	Humedad	79
41265	7	Sololá	710	Panajachel	8	Panajachel	6	Junio	2023-06-06T00:00:00	2024-11-08T15:00:00	6	Velocidad del viento	1.6
41266	7	Sololá	710	Panajachel	8	Panajachel	6	Junio	2023-06-06T00:00:00	2024-11-08T15:00:00	7	Dirección del viento	1.61
41267	7	Sololá	710	Panajachel	8	Panajachel	6	Junio	2023-06-06T00:00:00	2024-11-08T15:00:00	1	Precipitación	0
41268	7	Sololá	710	Panajachel	8	Panajachel	6	Junio	2023-06-06T00:00:00	2024-11-08T15:00:00	8	Radiación solar	191
41269	7	Sololá	710	Panajachel	8	Panajachel	6	Junio	2023-06-06T00:00:00	2024-11-08T16:00:00	2	Temperatura media	22
41270	7	Sololá	710	Panajachel	8	Panajachel	6	Junio	2023-06-06T00:00:00	2024-11-08T16:00:00	4	Temperatura máxima	22.6
41271	7	Sololá	710	Panajachel	8	Panajachel	6	Junio	2023-06-06T00:00:00	2024-11-08T16:00:00	3	Temperatura mínima	21.9
41272	7	Sololá	710	Panajachel	8	Panajachel	6	Junio	2023-06-06T00:00:00	2024-11-08T16:00:00	5	Humedad	82
41273	7	Sololá	710	Panajachel	8	Panajachel	6	Junio	2023-06-06T00:00:00	2024-11-08T16:00:00	6	Velocidad del viento	1.6
41274	7	Sololá	710	Panajachel	8	Panajachel	6	Junio	2023-06-06T00:00:00	2024-11-08T16:00:00	7	Dirección del viento	1.61
41275	7	Sololá	710	Panajachel	8	Panajachel	6	Junio	2023-06-06T00:00:00	2024-11-08T16:00:00	1	Precipitación	0
41276	7	Sololá	710	Panajachel	8	Panajachel	6	Junio	2023-06-06T00:00:00	2024-11-08T16:00:00	8	Radiación solar	96
41277	7	Sololá	710	Panajachel	8	Panajachel	6	Junio	2023-06-06T00:00:00	2024-11-08T17:00:00	2	Temperatura media	21.9
41278	7	Sololá	710	Panajachel	8	Panajachel	6	Junio	2023-06-06T00:00:00	2024-11-08T17:00:00	4	Temperatura máxima	22
41279	7	Sololá	710	Panajachel	8	Panajachel	6	Junio	2023-06-06T00:00:00	2024-11-08T17:00:00	3	Temperatura mínima	21.7
41280	7	Sololá	710	Panajachel	8	Panajachel	6	Junio	2023-06-06T00:00:00	2024-11-08T17:00:00	5	Humedad	85
41281	7	Sololá	710	Panajachel	8	Panajachel	6	Junio	2023-06-06T00:00:00	2024-11-08T17:00:00	6	Velocidad del viento	1.6
41282	7	Sololá	710	Panajachel	8	Panajachel	6	Junio	2023-06-06T00:00:00	2024-11-08T17:00:00	7	Dirección del viento	1.61
41283	7	Sololá	710	Panajachel	8	Panajachel	6	Junio	2023-06-06T00:00:00	2024-11-08T17:00:00	1	Precipitación	0
41284	7	Sololá	710	Panajachel	8	Panajachel	6	Junio	2023-06-06T00:00:00	2024-11-08T17:00:00	8	Radiación solar	120
41285	7	Sololá	710	Panajachel	8	Panajachel	6	Junio	2023-06-06T00:00:00	2024-11-08T18:00:00	2	Temperatura media	21.5
41286	7	Sololá	710	Panajachel	8	Panajachel	6	Junio	2023-06-06T00:00:00	2024-11-08T18:00:00	4	Temperatura máxima	21.9
41287	7	Sololá	710	Panajachel	8	Panajachel	6	Junio	2023-06-06T00:00:00	2024-11-08T18:00:00	3	Temperatura mínima	21.5
41288	7	Sololá	710	Panajachel	8	Panajachel	6	Junio	2023-06-06T00:00:00	2024-11-08T18:00:00	5	Humedad	85
41289	7	Sololá	710	Panajachel	8	Panajachel	6	Junio	2023-06-06T00:00:00	2024-11-08T18:00:00	6	Velocidad del viento	1.6
41290	7	Sololá	710	Panajachel	8	Panajachel	6	Junio	2023-06-06T00:00:00	2024-11-08T18:00:00	7	Dirección del viento	1.61
41291	7	Sololá	710	Panajachel	8	Panajachel	6	Junio	2023-06-06T00:00:00	2024-11-08T18:00:00	1	Precipitación	0
41292	7	Sololá	710	Panajachel	8	Panajachel	6	Junio	2023-06-06T00:00:00	2024-11-08T18:00:00	8	Radiación solar	63
41293	7	Sololá	710	Panajachel	8	Panajachel	6	Junio	2023-06-06T00:00:00	2024-11-08T19:00:00	2	Temperatura media	21.1
41294	7	Sololá	710	Panajachel	8	Panajachel	6	Junio	2023-06-06T00:00:00	2024-11-08T19:00:00	4	Temperatura máxima	21.6
41295	7	Sololá	710	Panajachel	8	Panajachel	6	Junio	2023-06-06T00:00:00	2024-11-08T19:00:00	3	Temperatura mínima	21.1
41296	7	Sololá	710	Panajachel	8	Panajachel	6	Junio	2023-06-06T00:00:00	2024-11-08T19:00:00	5	Humedad	66
41297	7	Sololá	710	Panajachel	8	Panajachel	6	Junio	2023-06-06T00:00:00	2024-11-08T19:00:00	6	Velocidad del viento	3.2
41298	7	Sololá	710	Panajachel	8	Panajachel	6	Junio	2023-06-06T00:00:00	2024-11-08T19:00:00	7	Dirección del viento	3.22
41299	7	Sololá	710	Panajachel	8	Panajachel	6	Junio	2023-06-06T00:00:00	2024-11-08T19:00:00	1	Precipitación	0
41300	7	Sololá	710	Panajachel	8	Panajachel	6	Junio	2023-06-06T00:00:00	2024-11-08T19:00:00	8	Radiación solar	0
41301	7	Sololá	710	Panajachel	8	Panajachel	6	Junio	2023-06-06T00:00:00	2024-11-08T20:00:00	2	Temperatura media	20.6
41302	7	Sololá	710	Panajachel	8	Panajachel	6	Junio	2023-06-06T00:00:00	2024-11-08T20:00:00	4	Temperatura máxima	21.4
41303	7	Sololá	710	Panajachel	8	Panajachel	6	Junio	2023-06-06T00:00:00	2024-11-08T20:00:00	3	Temperatura mínima	20.6
41304	7	Sololá	710	Panajachel	8	Panajachel	6	Junio	2023-06-06T00:00:00	2024-11-08T20:00:00	5	Humedad	71
41305	7	Sololá	710	Panajachel	8	Panajachel	6	Junio	2023-06-06T00:00:00	2024-11-08T20:00:00	6	Velocidad del viento	3.2
41306	7	Sololá	710	Panajachel	8	Panajachel	6	Junio	2023-06-06T00:00:00	2024-11-08T20:00:00	7	Dirección del viento	3.22
41307	7	Sololá	710	Panajachel	8	Panajachel	6	Junio	2023-06-06T00:00:00	2024-11-08T20:00:00	1	Precipitación	0
41308	7	Sololá	710	Panajachel	8	Panajachel	6	Junio	2023-06-06T00:00:00	2024-11-08T20:00:00	8	Radiación solar	0
41309	7	Sololá	710	Panajachel	8	Panajachel	6	Junio	2023-06-06T00:00:00	2024-11-08T21:00:00	2	Temperatura media	20.1
41310	7	Sololá	710	Panajachel	8	Panajachel	6	Junio	2023-06-06T00:00:00	2024-11-08T21:00:00	4	Temperatura máxima	20.7
41311	7	Sololá	710	Panajachel	8	Panajachel	6	Junio	2023-06-06T00:00:00	2024-11-08T21:00:00	3	Temperatura mínima	20.1
41312	7	Sololá	710	Panajachel	8	Panajachel	6	Junio	2023-06-06T00:00:00	2024-11-08T21:00:00	5	Humedad	75
41313	7	Sololá	710	Panajachel	8	Panajachel	6	Junio	2023-06-06T00:00:00	2024-11-08T21:00:00	6	Velocidad del viento	3.2
41314	7	Sololá	710	Panajachel	8	Panajachel	6	Junio	2023-06-06T00:00:00	2024-11-08T21:00:00	7	Dirección del viento	3.22
41315	7	Sololá	710	Panajachel	8	Panajachel	6	Junio	2023-06-06T00:00:00	2024-11-08T21:00:00	1	Precipitación	0
41316	7	Sololá	710	Panajachel	8	Panajachel	6	Junio	2023-06-06T00:00:00	2024-11-08T21:00:00	8	Radiación solar	0
41317	7	Sololá	710	Panajachel	8	Panajachel	6	Junio	2023-06-06T00:00:00	2024-11-08T22:00:00	2	Temperatura media	19.6
41318	7	Sololá	710	Panajachel	8	Panajachel	6	Junio	2023-06-06T00:00:00	2024-11-08T22:00:00	4	Temperatura máxima	20.1
41319	7	Sololá	710	Panajachel	8	Panajachel	6	Junio	2023-06-06T00:00:00	2024-11-08T22:00:00	3	Temperatura mínima	19.6
41320	7	Sololá	710	Panajachel	8	Panajachel	6	Junio	2023-06-06T00:00:00	2024-11-08T22:00:00	5	Humedad	78
41321	7	Sololá	710	Panajachel	8	Panajachel	6	Junio	2023-06-06T00:00:00	2024-11-08T22:00:00	6	Velocidad del viento	3.2
41322	7	Sololá	710	Panajachel	8	Panajachel	6	Junio	2023-06-06T00:00:00	2024-11-08T22:00:00	7	Dirección del viento	3.22
41323	7	Sololá	710	Panajachel	8	Panajachel	6	Junio	2023-06-06T00:00:00	2024-11-08T22:00:00	1	Precipitación	0
41324	7	Sololá	710	Panajachel	8	Panajachel	6	Junio	2023-06-06T00:00:00	2024-11-08T22:00:00	8	Radiación solar	0
41325	7	Sololá	710	Panajachel	8	Panajachel	6	Junio	2023-06-06T00:00:00	2024-11-08T23:00:00	2	Temperatura media	19.1
41326	7	Sololá	710	Panajachel	8	Panajachel	6	Junio	2023-06-06T00:00:00	2024-11-08T23:00:00	4	Temperatura máxima	19.7
41327	7	Sololá	710	Panajachel	8	Panajachel	6	Junio	2023-06-06T00:00:00	2024-11-08T23:00:00	3	Temperatura mínima	19.1
41328	7	Sololá	710	Panajachel	8	Panajachel	6	Junio	2023-06-06T00:00:00	2024-11-08T23:00:00	5	Humedad	79
41329	7	Sololá	710	Panajachel	8	Panajachel	6	Junio	2023-06-06T00:00:00	2024-11-08T23:00:00	6	Velocidad del viento	3.2
41330	7	Sololá	710	Panajachel	8	Panajachel	6	Junio	2023-06-06T00:00:00	2024-11-08T23:00:00	7	Dirección del viento	3.22
41331	7	Sololá	710	Panajachel	8	Panajachel	6	Junio	2023-06-06T00:00:00	2024-11-08T23:00:00	1	Precipitación	0
41332	7	Sololá	710	Panajachel	8	Panajachel	6	Junio	2023-06-06T00:00:00	2024-11-08T23:00:00	8	Radiación solar	0
41333	7	Sololá	710	Panajachel	8	Panajachel	6	Junio	2023-07-06T00:00:00	2024-11-08T00:00:00	2	Temperatura media	18.7
41334	7	Sololá	710	Panajachel	8	Panajachel	6	Junio	2023-07-06T00:00:00	2024-11-08T00:00:00	4	Temperatura máxima	19.2
41335	7	Sololá	710	Panajachel	8	Panajachel	6	Junio	2023-07-06T00:00:00	2024-11-08T00:00:00	3	Temperatura mínima	18.6
41336	7	Sololá	710	Panajachel	8	Panajachel	6	Junio	2023-07-06T00:00:00	2024-11-08T00:00:00	5	Humedad	80
41337	7	Sololá	710	Panajachel	8	Panajachel	6	Junio	2023-07-06T00:00:00	2024-11-08T00:00:00	6	Velocidad del viento	3.2
41338	7	Sololá	710	Panajachel	8	Panajachel	6	Junio	2023-07-06T00:00:00	2024-11-08T00:00:00	7	Dirección del viento	3.22
41339	7	Sololá	710	Panajachel	8	Panajachel	6	Junio	2023-07-06T00:00:00	2024-11-08T00:00:00	1	Precipitación	0
41340	7	Sololá	710	Panajachel	8	Panajachel	6	Junio	2023-07-06T00:00:00	2024-11-08T00:00:00	8	Radiación solar	0
41341	7	Sololá	710	Panajachel	8	Panajachel	6	Junio	2023-07-06T00:00:00	2024-11-08T01:00:00	2	Temperatura media	18.4
41342	7	Sololá	710	Panajachel	8	Panajachel	6	Junio	2023-07-06T00:00:00	2024-11-08T01:00:00	4	Temperatura máxima	18.8
41343	7	Sololá	710	Panajachel	8	Panajachel	6	Junio	2023-07-06T00:00:00	2024-11-08T01:00:00	3	Temperatura mínima	18.4
41344	7	Sololá	710	Panajachel	8	Panajachel	6	Junio	2023-07-06T00:00:00	2024-11-08T01:00:00	5	Humedad	81
41345	7	Sololá	710	Panajachel	8	Panajachel	6	Junio	2023-07-06T00:00:00	2024-11-08T01:00:00	6	Velocidad del viento	3.2
41346	7	Sololá	710	Panajachel	8	Panajachel	6	Junio	2023-07-06T00:00:00	2024-11-08T01:00:00	7	Dirección del viento	3.22
41347	7	Sololá	710	Panajachel	8	Panajachel	6	Junio	2023-07-06T00:00:00	2024-11-08T01:00:00	1	Precipitación	0
41348	7	Sololá	710	Panajachel	8	Panajachel	6	Junio	2023-07-06T00:00:00	2024-11-08T01:00:00	8	Radiación solar	0
41349	7	Sololá	710	Panajachel	8	Panajachel	6	Junio	2023-07-06T00:00:00	2024-11-08T02:00:00	2	Temperatura media	18.1
41350	7	Sololá	710	Panajachel	8	Panajachel	6	Junio	2023-07-06T00:00:00	2024-11-08T02:00:00	4	Temperatura máxima	18.4
41351	7	Sololá	710	Panajachel	8	Panajachel	6	Junio	2023-07-06T00:00:00	2024-11-08T02:00:00	3	Temperatura mínima	18.1
41352	7	Sololá	710	Panajachel	8	Panajachel	6	Junio	2023-07-06T00:00:00	2024-11-08T02:00:00	5	Humedad	83
41353	7	Sololá	710	Panajachel	8	Panajachel	6	Junio	2023-07-06T00:00:00	2024-11-08T02:00:00	6	Velocidad del viento	3.2
41354	7	Sololá	710	Panajachel	8	Panajachel	6	Junio	2023-07-06T00:00:00	2024-11-08T02:00:00	7	Dirección del viento	3.22
41355	7	Sololá	710	Panajachel	8	Panajachel	6	Junio	2023-07-06T00:00:00	2024-11-08T02:00:00	1	Precipitación	0
41356	7	Sololá	710	Panajachel	8	Panajachel	6	Junio	2023-07-06T00:00:00	2024-11-08T02:00:00	8	Radiación solar	0
41357	7	Sololá	710	Panajachel	8	Panajachel	6	Junio	2023-07-06T00:00:00	2024-11-08T03:00:00	2	Temperatura media	17.4
41358	7	Sololá	710	Panajachel	8	Panajachel	6	Junio	2023-07-06T00:00:00	2024-11-08T03:00:00	4	Temperatura máxima	18.2
41359	7	Sololá	710	Panajachel	8	Panajachel	6	Junio	2023-07-06T00:00:00	2024-11-08T03:00:00	3	Temperatura mínima	17.4
41360	7	Sololá	710	Panajachel	8	Panajachel	6	Junio	2023-07-06T00:00:00	2024-11-08T03:00:00	5	Humedad	84
41361	7	Sololá	710	Panajachel	8	Panajachel	6	Junio	2023-07-06T00:00:00	2024-11-08T03:00:00	6	Velocidad del viento	3.2
41362	7	Sololá	710	Panajachel	8	Panajachel	6	Junio	2023-07-06T00:00:00	2024-11-08T03:00:00	7	Dirección del viento	3.22
41363	7	Sololá	710	Panajachel	8	Panajachel	6	Junio	2023-07-06T00:00:00	2024-11-08T03:00:00	1	Precipitación	0
41364	7	Sololá	710	Panajachel	8	Panajachel	6	Junio	2023-07-06T00:00:00	2024-11-08T03:00:00	8	Radiación solar	0
41365	7	Sololá	710	Panajachel	8	Panajachel	6	Junio	2023-07-06T00:00:00	2024-11-08T04:00:00	2	Temperatura media	17.3
41366	7	Sololá	710	Panajachel	8	Panajachel	6	Junio	2023-07-06T00:00:00	2024-11-08T04:00:00	4	Temperatura máxima	17.8
41367	7	Sololá	710	Panajachel	8	Panajachel	6	Junio	2023-07-06T00:00:00	2024-11-08T04:00:00	3	Temperatura mínima	17.3
41368	7	Sololá	710	Panajachel	8	Panajachel	6	Junio	2023-07-06T00:00:00	2024-11-08T04:00:00	5	Humedad	83
41369	7	Sololá	710	Panajachel	8	Panajachel	6	Junio	2023-07-06T00:00:00	2024-11-08T04:00:00	6	Velocidad del viento	3.2
41370	7	Sololá	710	Panajachel	8	Panajachel	6	Junio	2023-07-06T00:00:00	2024-11-08T04:00:00	7	Dirección del viento	3.22
41371	7	Sololá	710	Panajachel	8	Panajachel	6	Junio	2023-07-06T00:00:00	2024-11-08T04:00:00	1	Precipitación	0
41372	7	Sololá	710	Panajachel	8	Panajachel	6	Junio	2023-07-06T00:00:00	2024-11-08T04:00:00	8	Radiación solar	0
41373	7	Sololá	710	Panajachel	8	Panajachel	6	Junio	2023-07-06T00:00:00	2024-11-08T05:00:00	2	Temperatura media	17.5
41374	7	Sololá	710	Panajachel	8	Panajachel	6	Junio	2023-07-06T00:00:00	2024-11-08T05:00:00	4	Temperatura máxima	17.6
41375	7	Sololá	710	Panajachel	8	Panajachel	6	Junio	2023-07-06T00:00:00	2024-11-08T05:00:00	3	Temperatura mínima	17.2
41376	7	Sololá	710	Panajachel	8	Panajachel	6	Junio	2023-07-06T00:00:00	2024-11-08T05:00:00	5	Humedad	81
41377	7	Sololá	710	Panajachel	8	Panajachel	6	Junio	2023-07-06T00:00:00	2024-11-08T05:00:00	6	Velocidad del viento	3.2
41378	7	Sololá	710	Panajachel	8	Panajachel	6	Junio	2023-07-06T00:00:00	2024-11-08T05:00:00	7	Dirección del viento	3.22
41379	7	Sololá	710	Panajachel	8	Panajachel	6	Junio	2023-07-06T00:00:00	2024-11-08T05:00:00	1	Precipitación	0
41380	7	Sololá	710	Panajachel	8	Panajachel	6	Junio	2023-07-06T00:00:00	2024-11-08T05:00:00	8	Radiación solar	0
41381	7	Sololá	710	Panajachel	8	Panajachel	6	Junio	2023-07-06T00:00:00	2024-11-08T06:00:00	2	Temperatura media	17.4
41382	7	Sololá	710	Panajachel	8	Panajachel	6	Junio	2023-07-06T00:00:00	2024-11-08T06:00:00	4	Temperatura máxima	17.6
41383	7	Sololá	710	Panajachel	8	Panajachel	6	Junio	2023-07-06T00:00:00	2024-11-08T06:00:00	3	Temperatura mínima	16.9
41384	7	Sololá	710	Panajachel	8	Panajachel	6	Junio	2023-07-06T00:00:00	2024-11-08T06:00:00	5	Humedad	82
41385	7	Sololá	710	Panajachel	8	Panajachel	6	Junio	2023-07-06T00:00:00	2024-11-08T06:00:00	6	Velocidad del viento	3.2
41386	7	Sololá	710	Panajachel	8	Panajachel	6	Junio	2023-07-06T00:00:00	2024-11-08T06:00:00	7	Dirección del viento	3.22
41387	7	Sololá	710	Panajachel	8	Panajachel	6	Junio	2023-07-06T00:00:00	2024-11-08T06:00:00	1	Precipitación	0
41388	7	Sololá	710	Panajachel	8	Panajachel	6	Junio	2023-07-06T00:00:00	2024-11-08T06:00:00	8	Radiación solar	5
41389	7	Sololá	710	Panajachel	8	Panajachel	6	Junio	2023-07-06T00:00:00	2024-11-08T07:00:00	2	Temperatura media	18.7
41390	7	Sololá	710	Panajachel	8	Panajachel	6	Junio	2023-07-06T00:00:00	2024-11-08T07:00:00	4	Temperatura máxima	18.7
41391	7	Sololá	710	Panajachel	8	Panajachel	6	Junio	2023-07-06T00:00:00	2024-11-08T07:00:00	3	Temperatura mínima	17.4
41392	7	Sololá	710	Panajachel	8	Panajachel	6	Junio	2023-07-06T00:00:00	2024-11-08T07:00:00	5	Humedad	80
41393	7	Sololá	710	Panajachel	8	Panajachel	6	Junio	2023-07-06T00:00:00	2024-11-08T07:00:00	6	Velocidad del viento	1.6
41394	7	Sololá	710	Panajachel	8	Panajachel	6	Junio	2023-07-06T00:00:00	2024-11-08T07:00:00	7	Dirección del viento	1.61
41395	7	Sololá	710	Panajachel	8	Panajachel	6	Junio	2023-07-06T00:00:00	2024-11-08T07:00:00	1	Precipitación	0
41396	7	Sololá	710	Panajachel	8	Panajachel	6	Junio	2023-07-06T00:00:00	2024-11-08T07:00:00	8	Radiación solar	95
41397	7	Sololá	710	Panajachel	8	Panajachel	6	Junio	2023-07-06T00:00:00	2024-11-08T08:00:00	2	Temperatura media	20.6
41398	7	Sololá	710	Panajachel	8	Panajachel	6	Junio	2023-07-06T00:00:00	2024-11-08T08:00:00	4	Temperatura máxima	20.6
41399	7	Sololá	710	Panajachel	8	Panajachel	6	Junio	2023-07-06T00:00:00	2024-11-08T08:00:00	3	Temperatura mínima	18.7
41400	7	Sololá	710	Panajachel	8	Panajachel	6	Junio	2023-07-06T00:00:00	2024-11-08T08:00:00	5	Humedad	79
41401	7	Sololá	710	Panajachel	8	Panajachel	6	Junio	2023-07-06T00:00:00	2024-11-08T08:00:00	6	Velocidad del viento	0
41402	7	Sololá	710	Panajachel	8	Panajachel	6	Junio	2023-07-06T00:00:00	2024-11-08T08:00:00	7	Dirección del viento	0
41403	7	Sololá	710	Panajachel	8	Panajachel	6	Junio	2023-07-06T00:00:00	2024-11-08T08:00:00	1	Precipitación	0
41404	7	Sololá	710	Panajachel	8	Panajachel	6	Junio	2023-07-06T00:00:00	2024-11-08T08:00:00	8	Radiación solar	190
41405	7	Sololá	710	Panajachel	8	Panajachel	6	Junio	2023-07-06T00:00:00	2024-11-08T09:00:00	2	Temperatura media	21.1
41406	7	Sololá	710	Panajachel	8	Panajachel	6	Junio	2023-07-06T00:00:00	2024-11-08T09:00:00	4	Temperatura máxima	21.1
41407	7	Sololá	710	Panajachel	8	Panajachel	6	Junio	2023-07-06T00:00:00	2024-11-08T09:00:00	3	Temperatura mínima	20.6
41408	7	Sololá	710	Panajachel	8	Panajachel	6	Junio	2023-07-06T00:00:00	2024-11-08T09:00:00	5	Humedad	82
41409	7	Sololá	710	Panajachel	8	Panajachel	6	Junio	2023-07-06T00:00:00	2024-11-08T09:00:00	6	Velocidad del viento	1.6
41410	7	Sololá	710	Panajachel	8	Panajachel	6	Junio	2023-07-06T00:00:00	2024-11-08T09:00:00	7	Dirección del viento	1.61
41411	7	Sololá	710	Panajachel	8	Panajachel	6	Junio	2023-07-06T00:00:00	2024-11-08T09:00:00	1	Precipitación	0
41412	7	Sololá	710	Panajachel	8	Panajachel	6	Junio	2023-07-06T00:00:00	2024-11-08T09:00:00	8	Radiación solar	369
41413	7	Sololá	710	Panajachel	8	Panajachel	6	Junio	2023-07-06T00:00:00	2024-11-08T10:00:00	2	Temperatura media	23
41414	7	Sololá	710	Panajachel	8	Panajachel	6	Junio	2023-07-06T00:00:00	2024-11-08T10:00:00	4	Temperatura máxima	23
41415	7	Sololá	710	Panajachel	8	Panajachel	6	Junio	2023-07-06T00:00:00	2024-11-08T10:00:00	3	Temperatura mínima	20.9
41416	7	Sololá	710	Panajachel	8	Panajachel	6	Junio	2023-07-06T00:00:00	2024-11-08T10:00:00	5	Humedad	76
41417	7	Sololá	710	Panajachel	8	Panajachel	6	Junio	2023-07-06T00:00:00	2024-11-08T10:00:00	6	Velocidad del viento	1.6
41418	7	Sololá	710	Panajachel	8	Panajachel	6	Junio	2023-07-06T00:00:00	2024-11-08T10:00:00	7	Dirección del viento	1.61
41419	7	Sololá	710	Panajachel	8	Panajachel	6	Junio	2023-07-06T00:00:00	2024-11-08T10:00:00	1	Precipitación	0
41420	7	Sololá	710	Panajachel	8	Panajachel	6	Junio	2023-07-06T00:00:00	2024-11-08T10:00:00	8	Radiación solar	662
41421	7	Sololá	710	Panajachel	8	Panajachel	6	Junio	2023-07-06T00:00:00	2024-11-08T11:00:00	2	Temperatura media	23.1
41422	7	Sololá	710	Panajachel	8	Panajachel	6	Junio	2023-07-06T00:00:00	2024-11-08T11:00:00	4	Temperatura máxima	23.2
41423	7	Sololá	710	Panajachel	8	Panajachel	6	Junio	2023-07-06T00:00:00	2024-11-08T11:00:00	3	Temperatura mínima	22.6
41424	7	Sololá	710	Panajachel	8	Panajachel	6	Junio	2023-07-06T00:00:00	2024-11-08T11:00:00	5	Humedad	73
41425	7	Sololá	710	Panajachel	8	Panajachel	6	Junio	2023-07-06T00:00:00	2024-11-08T11:00:00	6	Velocidad del viento	1.6
41426	7	Sololá	710	Panajachel	8	Panajachel	6	Junio	2023-07-06T00:00:00	2024-11-08T11:00:00	7	Dirección del viento	1.61
41427	7	Sololá	710	Panajachel	8	Panajachel	6	Junio	2023-07-06T00:00:00	2024-11-08T11:00:00	1	Precipitación	0
41428	7	Sololá	710	Panajachel	8	Panajachel	6	Junio	2023-07-06T00:00:00	2024-11-08T11:00:00	8	Radiación solar	852
41429	7	Sololá	710	Panajachel	8	Panajachel	6	Junio	2023-07-06T00:00:00	2024-11-08T12:00:00	2	Temperatura media	23.4
41430	7	Sololá	710	Panajachel	8	Panajachel	6	Junio	2023-07-06T00:00:00	2024-11-08T12:00:00	4	Temperatura máxima	23.9
41431	7	Sololá	710	Panajachel	8	Panajachel	6	Junio	2023-07-06T00:00:00	2024-11-08T12:00:00	3	Temperatura mínima	22.9
41432	7	Sololá	710	Panajachel	8	Panajachel	6	Junio	2023-07-06T00:00:00	2024-11-08T12:00:00	5	Humedad	79
41433	7	Sololá	710	Panajachel	8	Panajachel	6	Junio	2023-07-06T00:00:00	2024-11-08T12:00:00	6	Velocidad del viento	3.2
41434	7	Sololá	710	Panajachel	8	Panajachel	6	Junio	2023-07-06T00:00:00	2024-11-08T12:00:00	7	Dirección del viento	3.22
41435	7	Sololá	710	Panajachel	8	Panajachel	6	Junio	2023-07-06T00:00:00	2024-11-08T12:00:00	1	Precipitación	0
41436	7	Sololá	710	Panajachel	8	Panajachel	6	Junio	2023-07-06T00:00:00	2024-11-08T12:00:00	8	Radiación solar	808
41437	7	Sololá	710	Panajachel	8	Panajachel	6	Junio	2023-07-06T00:00:00	2024-11-08T13:00:00	2	Temperatura media	22.7
41438	7	Sololá	710	Panajachel	8	Panajachel	6	Junio	2023-07-06T00:00:00	2024-11-08T13:00:00	4	Temperatura máxima	24.1
41439	7	Sololá	710	Panajachel	8	Panajachel	6	Junio	2023-07-06T00:00:00	2024-11-08T13:00:00	3	Temperatura mínima	22.7
41440	7	Sololá	710	Panajachel	8	Panajachel	6	Junio	2023-07-06T00:00:00	2024-11-08T13:00:00	5	Humedad	81
41441	7	Sololá	710	Panajachel	8	Panajachel	6	Junio	2023-07-06T00:00:00	2024-11-08T13:00:00	6	Velocidad del viento	4.8
41442	7	Sololá	710	Panajachel	8	Panajachel	6	Junio	2023-07-06T00:00:00	2024-11-08T13:00:00	7	Dirección del viento	4.83
41443	7	Sololá	710	Panajachel	8	Panajachel	6	Junio	2023-07-06T00:00:00	2024-11-08T13:00:00	1	Precipitación	0
41444	7	Sololá	710	Panajachel	8	Panajachel	6	Junio	2023-07-06T00:00:00	2024-11-08T13:00:00	8	Radiación solar	623
41445	7	Sololá	710	Panajachel	8	Panajachel	6	Junio	2023-07-06T00:00:00	2024-11-08T14:00:00	2	Temperatura media	22.1
41446	7	Sololá	710	Panajachel	8	Panajachel	6	Junio	2023-07-06T00:00:00	2024-11-08T14:00:00	4	Temperatura máxima	22.8
41447	7	Sololá	710	Panajachel	8	Panajachel	6	Junio	2023-07-06T00:00:00	2024-11-08T14:00:00	3	Temperatura mínima	21.8
41448	7	Sololá	710	Panajachel	8	Panajachel	6	Junio	2023-07-06T00:00:00	2024-11-08T14:00:00	5	Humedad	83
41449	7	Sololá	710	Panajachel	8	Panajachel	6	Junio	2023-07-06T00:00:00	2024-11-08T14:00:00	6	Velocidad del viento	4.8
41450	7	Sololá	710	Panajachel	8	Panajachel	6	Junio	2023-07-06T00:00:00	2024-11-08T14:00:00	7	Dirección del viento	4.83
41451	7	Sololá	710	Panajachel	8	Panajachel	6	Junio	2023-07-06T00:00:00	2024-11-08T14:00:00	1	Precipitación	0
41452	7	Sololá	710	Panajachel	8	Panajachel	6	Junio	2023-07-06T00:00:00	2024-11-08T14:00:00	8	Radiación solar	166
41453	7	Sololá	710	Panajachel	8	Panajachel	6	Junio	2023-07-06T00:00:00	2024-11-08T15:00:00	2	Temperatura media	21.7
41454	7	Sololá	710	Panajachel	8	Panajachel	6	Junio	2023-07-06T00:00:00	2024-11-08T15:00:00	4	Temperatura máxima	22.2
41455	7	Sololá	710	Panajachel	8	Panajachel	6	Junio	2023-07-06T00:00:00	2024-11-08T15:00:00	3	Temperatura mínima	21
41456	7	Sololá	710	Panajachel	8	Panajachel	6	Junio	2023-07-06T00:00:00	2024-11-08T15:00:00	5	Humedad	89
41457	7	Sololá	710	Panajachel	8	Panajachel	6	Junio	2023-07-06T00:00:00	2024-11-08T15:00:00	6	Velocidad del viento	3.2
41458	7	Sololá	710	Panajachel	8	Panajachel	6	Junio	2023-07-06T00:00:00	2024-11-08T15:00:00	7	Dirección del viento	3.22
41459	7	Sololá	710	Panajachel	8	Panajachel	6	Junio	2023-07-06T00:00:00	2024-11-08T15:00:00	1	Precipitación	0.6
41460	7	Sololá	710	Panajachel	8	Panajachel	6	Junio	2023-07-06T00:00:00	2024-11-08T15:00:00	8	Radiación solar	210
41461	7	Sololá	710	Panajachel	8	Panajachel	6	Junio	2023-07-06T00:00:00	2024-11-08T16:00:00	2	Temperatura media	21.1
41462	7	Sololá	710	Panajachel	8	Panajachel	6	Junio	2023-07-06T00:00:00	2024-11-08T16:00:00	4	Temperatura máxima	21.7
41463	7	Sololá	710	Panajachel	8	Panajachel	6	Junio	2023-07-06T00:00:00	2024-11-08T16:00:00	3	Temperatura mínima	21
41464	7	Sololá	710	Panajachel	8	Panajachel	6	Junio	2023-07-06T00:00:00	2024-11-08T16:00:00	5	Humedad	88
41465	7	Sololá	710	Panajachel	8	Panajachel	6	Junio	2023-07-06T00:00:00	2024-11-08T16:00:00	6	Velocidad del viento	1.6
41466	7	Sololá	710	Panajachel	8	Panajachel	6	Junio	2023-07-06T00:00:00	2024-11-08T16:00:00	7	Dirección del viento	1.61
41467	7	Sololá	710	Panajachel	8	Panajachel	6	Junio	2023-07-06T00:00:00	2024-11-08T16:00:00	1	Precipitación	0
41468	7	Sololá	710	Panajachel	8	Panajachel	6	Junio	2023-07-06T00:00:00	2024-11-08T16:00:00	8	Radiación solar	115
41469	7	Sololá	710	Panajachel	8	Panajachel	6	Junio	2023-07-06T00:00:00	2024-11-08T17:00:00	2	Temperatura media	21.7
41470	7	Sololá	710	Panajachel	8	Panajachel	6	Junio	2023-07-06T00:00:00	2024-11-08T17:00:00	4	Temperatura máxima	21.8
41471	7	Sololá	710	Panajachel	8	Panajachel	6	Junio	2023-07-06T00:00:00	2024-11-08T17:00:00	3	Temperatura mínima	21.1
41472	7	Sololá	710	Panajachel	8	Panajachel	6	Junio	2023-07-06T00:00:00	2024-11-08T17:00:00	5	Humedad	86
41473	7	Sololá	710	Panajachel	8	Panajachel	6	Junio	2023-07-06T00:00:00	2024-11-08T17:00:00	6	Velocidad del viento	1.6
41474	7	Sololá	710	Panajachel	8	Panajachel	6	Junio	2023-07-06T00:00:00	2024-11-08T17:00:00	7	Dirección del viento	1.61
41475	7	Sololá	710	Panajachel	8	Panajachel	6	Junio	2023-07-06T00:00:00	2024-11-08T17:00:00	1	Precipitación	0
41476	7	Sololá	710	Panajachel	8	Panajachel	6	Junio	2023-07-06T00:00:00	2024-11-08T17:00:00	8	Radiación solar	168
41477	7	Sololá	710	Panajachel	8	Panajachel	6	Junio	2023-07-06T00:00:00	2024-11-08T18:00:00	2	Temperatura media	21.2
41478	7	Sololá	710	Panajachel	8	Panajachel	6	Junio	2023-07-06T00:00:00	2024-11-08T18:00:00	4	Temperatura máxima	21.9
41479	7	Sololá	710	Panajachel	8	Panajachel	6	Junio	2023-07-06T00:00:00	2024-11-08T18:00:00	3	Temperatura mínima	21.2
41480	7	Sololá	710	Panajachel	8	Panajachel	6	Junio	2023-07-06T00:00:00	2024-11-08T18:00:00	5	Humedad	83
41481	7	Sololá	710	Panajachel	8	Panajachel	6	Junio	2023-07-06T00:00:00	2024-11-08T18:00:00	6	Velocidad del viento	3.2
41482	7	Sololá	710	Panajachel	8	Panajachel	6	Junio	2023-07-06T00:00:00	2024-11-08T18:00:00	7	Dirección del viento	3.22
41483	7	Sololá	710	Panajachel	8	Panajachel	6	Junio	2023-07-06T00:00:00	2024-11-08T18:00:00	1	Precipitación	0
41484	7	Sololá	710	Panajachel	8	Panajachel	6	Junio	2023-07-06T00:00:00	2024-11-08T18:00:00	8	Radiación solar	107
41485	7	Sololá	710	Panajachel	8	Panajachel	6	Junio	2023-07-06T00:00:00	2024-11-08T19:00:00	2	Temperatura media	20.8
41486	7	Sololá	710	Panajachel	8	Panajachel	6	Junio	2023-07-06T00:00:00	2024-11-08T19:00:00	4	Temperatura máxima	21.2
41487	7	Sololá	710	Panajachel	8	Panajachel	6	Junio	2023-07-06T00:00:00	2024-11-08T19:00:00	3	Temperatura mínima	20.8
41488	7	Sololá	710	Panajachel	8	Panajachel	6	Junio	2023-07-06T00:00:00	2024-11-08T19:00:00	5	Humedad	85
41489	7	Sololá	710	Panajachel	8	Panajachel	6	Junio	2023-07-06T00:00:00	2024-11-08T19:00:00	6	Velocidad del viento	1.6
41490	7	Sololá	710	Panajachel	8	Panajachel	6	Junio	2023-07-06T00:00:00	2024-11-08T19:00:00	7	Dirección del viento	1.61
41491	7	Sololá	710	Panajachel	8	Panajachel	6	Junio	2023-07-06T00:00:00	2024-11-08T19:00:00	1	Precipitación	0
41492	7	Sololá	710	Panajachel	8	Panajachel	6	Junio	2023-07-06T00:00:00	2024-11-08T19:00:00	8	Radiación solar	0
41493	7	Sololá	710	Panajachel	8	Panajachel	6	Junio	2023-07-06T00:00:00	2024-11-08T20:00:00	2	Temperatura media	20.6
41494	7	Sololá	710	Panajachel	8	Panajachel	6	Junio	2023-07-06T00:00:00	2024-11-08T20:00:00	4	Temperatura máxima	20.9
41495	7	Sololá	710	Panajachel	8	Panajachel	6	Junio	2023-07-06T00:00:00	2024-11-08T20:00:00	3	Temperatura mínima	20.6
41496	7	Sololá	710	Panajachel	8	Panajachel	6	Junio	2023-07-06T00:00:00	2024-11-08T20:00:00	5	Humedad	87
41497	7	Sololá	710	Panajachel	8	Panajachel	6	Junio	2023-07-06T00:00:00	2024-11-08T20:00:00	6	Velocidad del viento	1.6
41498	7	Sololá	710	Panajachel	8	Panajachel	6	Junio	2023-07-06T00:00:00	2024-11-08T20:00:00	7	Dirección del viento	1.61
41499	7	Sololá	710	Panajachel	8	Panajachel	6	Junio	2023-07-06T00:00:00	2024-11-08T20:00:00	1	Precipitación	0
41500	7	Sololá	710	Panajachel	8	Panajachel	6	Junio	2023-07-06T00:00:00	2024-11-08T20:00:00	8	Radiación solar	0
41501	7	Sololá	710	Panajachel	8	Panajachel	6	Junio	2023-07-06T00:00:00	2024-11-08T21:00:00	2	Temperatura media	20.1
41502	7	Sololá	710	Panajachel	8	Panajachel	6	Junio	2023-07-06T00:00:00	2024-11-08T21:00:00	4	Temperatura máxima	20.6
41503	7	Sololá	710	Panajachel	8	Panajachel	6	Junio	2023-07-06T00:00:00	2024-11-08T21:00:00	3	Temperatura mínima	20.1
41504	7	Sololá	710	Panajachel	8	Panajachel	6	Junio	2023-07-06T00:00:00	2024-11-08T21:00:00	5	Humedad	93
41505	7	Sololá	710	Panajachel	8	Panajachel	6	Junio	2023-07-06T00:00:00	2024-11-08T21:00:00	6	Velocidad del viento	1.6
41506	7	Sololá	710	Panajachel	8	Panajachel	6	Junio	2023-07-06T00:00:00	2024-11-08T21:00:00	7	Dirección del viento	1.61
41507	7	Sololá	710	Panajachel	8	Panajachel	6	Junio	2023-07-06T00:00:00	2024-11-08T21:00:00	1	Precipitación	0
41508	7	Sololá	710	Panajachel	8	Panajachel	6	Junio	2023-07-06T00:00:00	2024-11-08T21:00:00	8	Radiación solar	0
41509	7	Sololá	710	Panajachel	8	Panajachel	6	Junio	2023-07-06T00:00:00	2024-11-08T22:00:00	2	Temperatura media	19.6
41510	7	Sololá	710	Panajachel	8	Panajachel	6	Junio	2023-07-06T00:00:00	2024-11-08T22:00:00	4	Temperatura máxima	20.1
41511	7	Sololá	710	Panajachel	8	Panajachel	6	Junio	2023-07-06T00:00:00	2024-11-08T22:00:00	3	Temperatura mínima	19.6
41512	7	Sololá	710	Panajachel	8	Panajachel	6	Junio	2023-07-06T00:00:00	2024-11-08T22:00:00	5	Humedad	94
41513	7	Sololá	710	Panajachel	8	Panajachel	6	Junio	2023-07-06T00:00:00	2024-11-08T22:00:00	6	Velocidad del viento	1.6
41514	7	Sololá	710	Panajachel	8	Panajachel	6	Junio	2023-07-06T00:00:00	2024-11-08T22:00:00	7	Dirección del viento	1.61
41515	7	Sololá	710	Panajachel	8	Panajachel	6	Junio	2023-07-06T00:00:00	2024-11-08T22:00:00	1	Precipitación	0.2
41516	7	Sololá	710	Panajachel	8	Panajachel	6	Junio	2023-07-06T00:00:00	2024-11-08T22:00:00	8	Radiación solar	0
41517	7	Sololá	710	Panajachel	8	Panajachel	6	Junio	2023-07-06T00:00:00	2024-11-08T23:00:00	2	Temperatura media	18.6
41518	7	Sololá	710	Panajachel	8	Panajachel	6	Junio	2023-07-06T00:00:00	2024-11-08T23:00:00	4	Temperatura máxima	19.7
41519	7	Sololá	710	Panajachel	8	Panajachel	6	Junio	2023-07-06T00:00:00	2024-11-08T23:00:00	3	Temperatura mínima	18.6
41520	7	Sololá	710	Panajachel	8	Panajachel	6	Junio	2023-07-06T00:00:00	2024-11-08T23:00:00	5	Humedad	97
41521	7	Sololá	710	Panajachel	8	Panajachel	6	Junio	2023-07-06T00:00:00	2024-11-08T23:00:00	6	Velocidad del viento	3.2
41522	7	Sololá	710	Panajachel	8	Panajachel	6	Junio	2023-07-06T00:00:00	2024-11-08T23:00:00	7	Dirección del viento	3.22
41523	7	Sololá	710	Panajachel	8	Panajachel	6	Junio	2023-07-06T00:00:00	2024-11-08T23:00:00	1	Precipitación	15.2
41524	7	Sololá	710	Panajachel	8	Panajachel	6	Junio	2023-07-06T00:00:00	2024-11-08T23:00:00	8	Radiación solar	0
41525	7	Sololá	710	Panajachel	8	Panajachel	6	Junio	2023-08-06T00:00:00	2024-11-08T00:00:00	2	Temperatura media	18.3
41526	7	Sololá	710	Panajachel	8	Panajachel	6	Junio	2023-08-06T00:00:00	2024-11-08T00:00:00	4	Temperatura máxima	18.7
41527	7	Sololá	710	Panajachel	8	Panajachel	6	Junio	2023-08-06T00:00:00	2024-11-08T00:00:00	3	Temperatura mínima	18.3
41528	7	Sololá	710	Panajachel	8	Panajachel	6	Junio	2023-08-06T00:00:00	2024-11-08T00:00:00	5	Humedad	98
41529	7	Sololá	710	Panajachel	8	Panajachel	6	Junio	2023-08-06T00:00:00	2024-11-08T00:00:00	6	Velocidad del viento	1.6
41530	7	Sololá	710	Panajachel	8	Panajachel	6	Junio	2023-08-06T00:00:00	2024-11-08T00:00:00	7	Dirección del viento	1.61
41531	7	Sololá	710	Panajachel	8	Panajachel	6	Junio	2023-08-06T00:00:00	2024-11-08T00:00:00	1	Precipitación	0.4
41532	7	Sololá	710	Panajachel	8	Panajachel	6	Junio	2023-08-06T00:00:00	2024-11-08T00:00:00	8	Radiación solar	0
41533	7	Sololá	710	Panajachel	8	Panajachel	6	Junio	2023-08-06T00:00:00	2024-11-08T01:00:00	2	Temperatura media	18.4
41534	7	Sololá	710	Panajachel	8	Panajachel	6	Junio	2023-08-06T00:00:00	2024-11-08T01:00:00	4	Temperatura máxima	18.5
41535	7	Sololá	710	Panajachel	8	Panajachel	6	Junio	2023-08-06T00:00:00	2024-11-08T01:00:00	3	Temperatura mínima	18.3
41536	7	Sololá	710	Panajachel	8	Panajachel	6	Junio	2023-08-06T00:00:00	2024-11-08T01:00:00	5	Humedad	98
41537	7	Sololá	710	Panajachel	8	Panajachel	6	Junio	2023-08-06T00:00:00	2024-11-08T01:00:00	6	Velocidad del viento	0
41538	7	Sololá	710	Panajachel	8	Panajachel	6	Junio	2023-08-06T00:00:00	2024-11-08T01:00:00	7	Dirección del viento	0
41539	7	Sololá	710	Panajachel	8	Panajachel	6	Junio	2023-08-06T00:00:00	2024-11-08T01:00:00	1	Precipitación	0
41540	7	Sololá	710	Panajachel	8	Panajachel	6	Junio	2023-08-06T00:00:00	2024-11-08T01:00:00	8	Radiación solar	0
41541	7	Sololá	710	Panajachel	8	Panajachel	6	Junio	2023-08-06T00:00:00	2024-11-08T02:00:00	2	Temperatura media	18.3
41542	7	Sololá	710	Panajachel	8	Panajachel	6	Junio	2023-08-06T00:00:00	2024-11-08T02:00:00	4	Temperatura máxima	18.5
41543	7	Sololá	710	Panajachel	8	Panajachel	6	Junio	2023-08-06T00:00:00	2024-11-08T02:00:00	3	Temperatura mínima	18.2
41544	7	Sololá	710	Panajachel	8	Panajachel	6	Junio	2023-08-06T00:00:00	2024-11-08T02:00:00	5	Humedad	97
41545	7	Sololá	710	Panajachel	8	Panajachel	6	Junio	2023-08-06T00:00:00	2024-11-08T02:00:00	6	Velocidad del viento	0
41546	7	Sololá	710	Panajachel	8	Panajachel	6	Junio	2023-08-06T00:00:00	2024-11-08T02:00:00	7	Dirección del viento	0
41547	7	Sololá	710	Panajachel	8	Panajachel	6	Junio	2023-08-06T00:00:00	2024-11-08T02:00:00	1	Precipitación	0
41548	7	Sololá	710	Panajachel	8	Panajachel	6	Junio	2023-08-06T00:00:00	2024-11-08T02:00:00	8	Radiación solar	0
41549	7	Sololá	710	Panajachel	8	Panajachel	6	Junio	2023-08-06T00:00:00	2024-11-08T03:00:00	2	Temperatura media	17.9
41550	7	Sololá	710	Panajachel	8	Panajachel	6	Junio	2023-08-06T00:00:00	2024-11-08T03:00:00	4	Temperatura máxima	18.3
41551	7	Sololá	710	Panajachel	8	Panajachel	6	Junio	2023-08-06T00:00:00	2024-11-08T03:00:00	3	Temperatura mínima	17.9
41552	7	Sololá	710	Panajachel	8	Panajachel	6	Junio	2023-08-06T00:00:00	2024-11-08T03:00:00	5	Humedad	96
41553	7	Sololá	710	Panajachel	8	Panajachel	6	Junio	2023-08-06T00:00:00	2024-11-08T03:00:00	6	Velocidad del viento	0
41554	7	Sololá	710	Panajachel	8	Panajachel	6	Junio	2023-08-06T00:00:00	2024-11-08T03:00:00	7	Dirección del viento	0
41555	7	Sololá	710	Panajachel	8	Panajachel	6	Junio	2023-08-06T00:00:00	2024-11-08T03:00:00	1	Precipitación	0
41556	7	Sololá	710	Panajachel	8	Panajachel	6	Junio	2023-08-06T00:00:00	2024-11-08T03:00:00	8	Radiación solar	0
41557	7	Sololá	710	Panajachel	8	Panajachel	6	Junio	2023-08-06T00:00:00	2024-11-08T04:00:00	2	Temperatura media	17.3
41558	7	Sololá	710	Panajachel	8	Panajachel	6	Junio	2023-08-06T00:00:00	2024-11-08T04:00:00	4	Temperatura máxima	17.9
41559	7	Sololá	710	Panajachel	8	Panajachel	6	Junio	2023-08-06T00:00:00	2024-11-08T04:00:00	3	Temperatura mínima	17.3
41560	7	Sololá	710	Panajachel	8	Panajachel	6	Junio	2023-08-06T00:00:00	2024-11-08T04:00:00	5	Humedad	95
41561	7	Sololá	710	Panajachel	8	Panajachel	6	Junio	2023-08-06T00:00:00	2024-11-08T04:00:00	6	Velocidad del viento	0
41562	7	Sololá	710	Panajachel	8	Panajachel	6	Junio	2023-08-06T00:00:00	2024-11-08T04:00:00	7	Dirección del viento	0
41563	7	Sololá	710	Panajachel	8	Panajachel	6	Junio	2023-08-06T00:00:00	2024-11-08T04:00:00	1	Precipitación	0
41564	7	Sololá	710	Panajachel	8	Panajachel	6	Junio	2023-08-06T00:00:00	2024-11-08T04:00:00	8	Radiación solar	0
41565	7	Sololá	710	Panajachel	8	Panajachel	6	Junio	2023-08-06T00:00:00	2024-11-08T05:00:00	2	Temperatura media	16.8
41566	7	Sololá	710	Panajachel	8	Panajachel	6	Junio	2023-08-06T00:00:00	2024-11-08T05:00:00	4	Temperatura máxima	17.3
41567	7	Sololá	710	Panajachel	8	Panajachel	6	Junio	2023-08-06T00:00:00	2024-11-08T05:00:00	3	Temperatura mínima	16.8
41568	7	Sololá	710	Panajachel	8	Panajachel	6	Junio	2023-08-06T00:00:00	2024-11-08T05:00:00	5	Humedad	92
41569	7	Sololá	710	Panajachel	8	Panajachel	6	Junio	2023-08-06T00:00:00	2024-11-08T05:00:00	6	Velocidad del viento	1.6
41570	7	Sololá	710	Panajachel	8	Panajachel	6	Junio	2023-08-06T00:00:00	2024-11-08T05:00:00	7	Dirección del viento	1.61
41571	7	Sololá	710	Panajachel	8	Panajachel	6	Junio	2023-08-06T00:00:00	2024-11-08T05:00:00	1	Precipitación	0
41572	7	Sololá	710	Panajachel	8	Panajachel	6	Junio	2023-08-06T00:00:00	2024-11-08T05:00:00	8	Radiación solar	0
41573	7	Sololá	710	Panajachel	8	Panajachel	6	Junio	2023-08-06T00:00:00	2024-11-08T06:00:00	2	Temperatura media	16.5
41574	7	Sololá	710	Panajachel	8	Panajachel	6	Junio	2023-08-06T00:00:00	2024-11-08T06:00:00	4	Temperatura máxima	16.9
41575	7	Sololá	710	Panajachel	8	Panajachel	6	Junio	2023-08-06T00:00:00	2024-11-08T06:00:00	3	Temperatura mínima	16.4
41576	7	Sololá	710	Panajachel	8	Panajachel	6	Junio	2023-08-06T00:00:00	2024-11-08T06:00:00	5	Humedad	91
41577	7	Sololá	710	Panajachel	8	Panajachel	6	Junio	2023-08-06T00:00:00	2024-11-08T06:00:00	6	Velocidad del viento	3.2
41578	7	Sololá	710	Panajachel	8	Panajachel	6	Junio	2023-08-06T00:00:00	2024-11-08T06:00:00	7	Dirección del viento	3.22
41579	7	Sololá	710	Panajachel	8	Panajachel	6	Junio	2023-08-06T00:00:00	2024-11-08T06:00:00	1	Precipitación	0
41580	7	Sololá	710	Panajachel	8	Panajachel	6	Junio	2023-08-06T00:00:00	2024-11-08T06:00:00	8	Radiación solar	4
41581	7	Sololá	710	Panajachel	8	Panajachel	6	Junio	2023-08-06T00:00:00	2024-11-08T07:00:00	2	Temperatura media	18.3
41582	7	Sololá	710	Panajachel	8	Panajachel	6	Junio	2023-08-06T00:00:00	2024-11-08T07:00:00	4	Temperatura máxima	18.3
41583	7	Sololá	710	Panajachel	8	Panajachel	6	Junio	2023-08-06T00:00:00	2024-11-08T07:00:00	3	Temperatura mínima	16.5
41584	7	Sololá	710	Panajachel	8	Panajachel	6	Junio	2023-08-06T00:00:00	2024-11-08T07:00:00	5	Humedad	85
41585	7	Sololá	710	Panajachel	8	Panajachel	6	Junio	2023-08-06T00:00:00	2024-11-08T07:00:00	6	Velocidad del viento	1.6
41586	7	Sololá	710	Panajachel	8	Panajachel	6	Junio	2023-08-06T00:00:00	2024-11-08T07:00:00	7	Dirección del viento	1.61
41587	7	Sololá	710	Panajachel	8	Panajachel	6	Junio	2023-08-06T00:00:00	2024-11-08T07:00:00	1	Precipitación	0.2
41588	7	Sololá	710	Panajachel	8	Panajachel	6	Junio	2023-08-06T00:00:00	2024-11-08T07:00:00	8	Radiación solar	116
41589	7	Sololá	710	Panajachel	8	Panajachel	6	Junio	2023-08-06T00:00:00	2024-11-08T08:00:00	2	Temperatura media	20.8
41590	7	Sololá	710	Panajachel	8	Panajachel	6	Junio	2023-08-06T00:00:00	2024-11-08T08:00:00	4	Temperatura máxima	20.9
41591	7	Sololá	710	Panajachel	8	Panajachel	6	Junio	2023-08-06T00:00:00	2024-11-08T08:00:00	3	Temperatura mínima	18.3
41592	7	Sololá	710	Panajachel	8	Panajachel	6	Junio	2023-08-06T00:00:00	2024-11-08T08:00:00	5	Humedad	80
41593	7	Sololá	710	Panajachel	8	Panajachel	6	Junio	2023-08-06T00:00:00	2024-11-08T08:00:00	6	Velocidad del viento	0
41594	7	Sololá	710	Panajachel	8	Panajachel	6	Junio	2023-08-06T00:00:00	2024-11-08T08:00:00	7	Dirección del viento	0
41595	7	Sololá	710	Panajachel	8	Panajachel	6	Junio	2023-08-06T00:00:00	2024-11-08T08:00:00	1	Precipitación	0
41596	7	Sololá	710	Panajachel	8	Panajachel	6	Junio	2023-08-06T00:00:00	2024-11-08T08:00:00	8	Radiación solar	311
41597	7	Sololá	710	Panajachel	8	Panajachel	6	Junio	2023-08-06T00:00:00	2024-11-08T09:00:00	2	Temperatura media	21
41598	7	Sololá	710	Panajachel	8	Panajachel	6	Junio	2023-08-06T00:00:00	2024-11-08T09:00:00	4	Temperatura máxima	21.4
41599	7	Sololá	710	Panajachel	8	Panajachel	6	Junio	2023-08-06T00:00:00	2024-11-08T09:00:00	3	Temperatura mínima	20.8
41600	7	Sololá	710	Panajachel	8	Panajachel	6	Junio	2023-08-06T00:00:00	2024-11-08T09:00:00	5	Humedad	86
41601	7	Sololá	710	Panajachel	8	Panajachel	6	Junio	2023-08-06T00:00:00	2024-11-08T09:00:00	6	Velocidad del viento	1.6
41602	7	Sololá	710	Panajachel	8	Panajachel	6	Junio	2023-08-06T00:00:00	2024-11-08T09:00:00	7	Dirección del viento	1.61
41603	7	Sololá	710	Panajachel	8	Panajachel	6	Junio	2023-08-06T00:00:00	2024-11-08T09:00:00	1	Precipitación	0
41604	7	Sololá	710	Panajachel	8	Panajachel	6	Junio	2023-08-06T00:00:00	2024-11-08T09:00:00	8	Radiación solar	512
41605	7	Sololá	710	Panajachel	8	Panajachel	6	Junio	2023-08-06T00:00:00	2024-11-08T10:00:00	2	Temperatura media	22.2
41606	7	Sololá	710	Panajachel	8	Panajachel	6	Junio	2023-08-06T00:00:00	2024-11-08T10:00:00	4	Temperatura máxima	22.5
41607	7	Sololá	710	Panajachel	8	Panajachel	6	Junio	2023-08-06T00:00:00	2024-11-08T10:00:00	3	Temperatura mínima	20.9
41608	7	Sololá	710	Panajachel	8	Panajachel	6	Junio	2023-08-06T00:00:00	2024-11-08T10:00:00	5	Humedad	79
41609	7	Sololá	710	Panajachel	8	Panajachel	6	Junio	2023-08-06T00:00:00	2024-11-08T10:00:00	6	Velocidad del viento	1.6
41610	7	Sololá	710	Panajachel	8	Panajachel	6	Junio	2023-08-06T00:00:00	2024-11-08T10:00:00	7	Dirección del viento	1.61
41611	7	Sololá	710	Panajachel	8	Panajachel	6	Junio	2023-08-06T00:00:00	2024-11-08T10:00:00	1	Precipitación	0
41612	7	Sololá	710	Panajachel	8	Panajachel	6	Junio	2023-08-06T00:00:00	2024-11-08T10:00:00	8	Radiación solar	701
41613	7	Sololá	710	Panajachel	8	Panajachel	6	Junio	2023-08-06T00:00:00	2024-11-08T11:00:00	2	Temperatura media	23.9
41614	7	Sololá	710	Panajachel	8	Panajachel	6	Junio	2023-08-06T00:00:00	2024-11-08T11:00:00	4	Temperatura máxima	23.9
41615	7	Sololá	710	Panajachel	8	Panajachel	6	Junio	2023-08-06T00:00:00	2024-11-08T11:00:00	3	Temperatura mínima	22.1
41616	7	Sololá	710	Panajachel	8	Panajachel	6	Junio	2023-08-06T00:00:00	2024-11-08T11:00:00	5	Humedad	73
41617	7	Sololá	710	Panajachel	8	Panajachel	6	Junio	2023-08-06T00:00:00	2024-11-08T11:00:00	6	Velocidad del viento	1.6
41618	7	Sololá	710	Panajachel	8	Panajachel	6	Junio	2023-08-06T00:00:00	2024-11-08T11:00:00	7	Dirección del viento	1.61
41619	7	Sololá	710	Panajachel	8	Panajachel	6	Junio	2023-08-06T00:00:00	2024-11-08T11:00:00	1	Precipitación	0
41620	7	Sololá	710	Panajachel	8	Panajachel	6	Junio	2023-08-06T00:00:00	2024-11-08T11:00:00	8	Radiación solar	868
41621	7	Sololá	710	Panajachel	8	Panajachel	6	Junio	2023-08-06T00:00:00	2024-11-08T12:00:00	2	Temperatura media	23.7
41622	7	Sololá	710	Panajachel	8	Panajachel	6	Junio	2023-08-06T00:00:00	2024-11-08T12:00:00	4	Temperatura máxima	24
41623	7	Sololá	710	Panajachel	8	Panajachel	6	Junio	2023-08-06T00:00:00	2024-11-08T12:00:00	3	Temperatura mínima	22.8
41624	7	Sololá	710	Panajachel	8	Panajachel	6	Junio	2023-08-06T00:00:00	2024-11-08T12:00:00	5	Humedad	78
41625	7	Sololá	710	Panajachel	8	Panajachel	6	Junio	2023-08-06T00:00:00	2024-11-08T12:00:00	6	Velocidad del viento	1.6
41626	7	Sololá	710	Panajachel	8	Panajachel	6	Junio	2023-08-06T00:00:00	2024-11-08T12:00:00	7	Dirección del viento	1.61
41627	7	Sololá	710	Panajachel	8	Panajachel	6	Junio	2023-08-06T00:00:00	2024-11-08T12:00:00	1	Precipitación	0
41628	7	Sololá	710	Panajachel	8	Panajachel	6	Junio	2023-08-06T00:00:00	2024-11-08T12:00:00	8	Radiación solar	801
41629	7	Sololá	710	Panajachel	8	Panajachel	6	Junio	2023-08-06T00:00:00	2024-11-08T13:00:00	2	Temperatura media	24
41630	7	Sololá	710	Panajachel	8	Panajachel	6	Junio	2023-08-06T00:00:00	2024-11-08T13:00:00	4	Temperatura máxima	24.8
41631	7	Sololá	710	Panajachel	8	Panajachel	6	Junio	2023-08-06T00:00:00	2024-11-08T13:00:00	3	Temperatura mínima	23.2
41632	7	Sololá	710	Panajachel	8	Panajachel	6	Junio	2023-08-06T00:00:00	2024-11-08T13:00:00	5	Humedad	78
41633	7	Sololá	710	Panajachel	8	Panajachel	6	Junio	2023-08-06T00:00:00	2024-11-08T13:00:00	6	Velocidad del viento	4.8
41634	7	Sololá	710	Panajachel	8	Panajachel	6	Junio	2023-08-06T00:00:00	2024-11-08T13:00:00	7	Dirección del viento	4.83
41635	7	Sololá	710	Panajachel	8	Panajachel	6	Junio	2023-08-06T00:00:00	2024-11-08T13:00:00	1	Precipitación	0
41636	7	Sololá	710	Panajachel	8	Panajachel	6	Junio	2023-08-06T00:00:00	2024-11-08T13:00:00	8	Radiación solar	912
41637	7	Sololá	710	Panajachel	8	Panajachel	6	Junio	2023-08-06T00:00:00	2024-11-08T14:00:00	2	Temperatura media	23.6
41638	7	Sololá	710	Panajachel	8	Panajachel	6	Junio	2023-08-06T00:00:00	2024-11-08T14:00:00	4	Temperatura máxima	24.4
41639	7	Sololá	710	Panajachel	8	Panajachel	6	Junio	2023-08-06T00:00:00	2024-11-08T14:00:00	3	Temperatura mínima	23.6
41640	7	Sololá	710	Panajachel	8	Panajachel	6	Junio	2023-08-06T00:00:00	2024-11-08T14:00:00	5	Humedad	82
41641	7	Sololá	710	Panajachel	8	Panajachel	6	Junio	2023-08-06T00:00:00	2024-11-08T14:00:00	6	Velocidad del viento	3.2
41642	7	Sololá	710	Panajachel	8	Panajachel	6	Junio	2023-08-06T00:00:00	2024-11-08T14:00:00	7	Dirección del viento	3.22
41643	7	Sololá	710	Panajachel	8	Panajachel	6	Junio	2023-08-06T00:00:00	2024-11-08T14:00:00	1	Precipitación	0
41644	7	Sololá	710	Panajachel	8	Panajachel	6	Junio	2023-08-06T00:00:00	2024-11-08T14:00:00	8	Radiación solar	500
41645	7	Sololá	710	Panajachel	8	Panajachel	6	Junio	2023-08-06T00:00:00	2024-11-08T15:00:00	2	Temperatura media	22.2
41646	7	Sololá	710	Panajachel	8	Panajachel	6	Junio	2023-08-06T00:00:00	2024-11-08T15:00:00	4	Temperatura máxima	23.6
41647	7	Sololá	710	Panajachel	8	Panajachel	6	Junio	2023-08-06T00:00:00	2024-11-08T15:00:00	3	Temperatura mínima	22.2
41648	7	Sololá	710	Panajachel	8	Panajachel	6	Junio	2023-08-06T00:00:00	2024-11-08T15:00:00	5	Humedad	87
41649	7	Sololá	710	Panajachel	8	Panajachel	6	Junio	2023-08-06T00:00:00	2024-11-08T15:00:00	6	Velocidad del viento	1.6
41650	7	Sololá	710	Panajachel	8	Panajachel	6	Junio	2023-08-06T00:00:00	2024-11-08T15:00:00	7	Dirección del viento	1.61
41651	7	Sololá	710	Panajachel	8	Panajachel	6	Junio	2023-08-06T00:00:00	2024-11-08T15:00:00	1	Precipitación	0
41652	7	Sololá	710	Panajachel	8	Panajachel	6	Junio	2023-08-06T00:00:00	2024-11-08T15:00:00	8	Radiación solar	220
41653	7	Sololá	710	Panajachel	8	Panajachel	6	Junio	2023-08-06T00:00:00	2024-11-08T16:00:00	2	Temperatura media	21.8
41654	7	Sololá	710	Panajachel	8	Panajachel	6	Junio	2023-08-06T00:00:00	2024-11-08T16:00:00	4	Temperatura máxima	22.4
41655	7	Sololá	710	Panajachel	8	Panajachel	6	Junio	2023-08-06T00:00:00	2024-11-08T16:00:00	3	Temperatura mínima	21.8
41656	7	Sololá	710	Panajachel	8	Panajachel	6	Junio	2023-08-06T00:00:00	2024-11-08T16:00:00	5	Humedad	89
41657	7	Sololá	710	Panajachel	8	Panajachel	6	Junio	2023-08-06T00:00:00	2024-11-08T16:00:00	6	Velocidad del viento	1.6
41658	7	Sololá	710	Panajachel	8	Panajachel	6	Junio	2023-08-06T00:00:00	2024-11-08T16:00:00	7	Dirección del viento	1.61
41659	7	Sololá	710	Panajachel	8	Panajachel	6	Junio	2023-08-06T00:00:00	2024-11-08T16:00:00	1	Precipitación	0
41660	7	Sololá	710	Panajachel	8	Panajachel	6	Junio	2023-08-06T00:00:00	2024-11-08T16:00:00	8	Radiación solar	200
41661	7	Sololá	710	Panajachel	8	Panajachel	6	Junio	2023-08-06T00:00:00	2024-11-08T17:00:00	2	Temperatura media	22.1
41662	7	Sololá	710	Panajachel	8	Panajachel	6	Junio	2023-08-06T00:00:00	2024-11-08T17:00:00	4	Temperatura máxima	22.2
41663	7	Sololá	710	Panajachel	8	Panajachel	6	Junio	2023-08-06T00:00:00	2024-11-08T17:00:00	3	Temperatura mínima	21.6
41664	7	Sololá	710	Panajachel	8	Panajachel	6	Junio	2023-08-06T00:00:00	2024-11-08T17:00:00	5	Humedad	88
41665	7	Sololá	710	Panajachel	8	Panajachel	6	Junio	2023-08-06T00:00:00	2024-11-08T17:00:00	6	Velocidad del viento	1.6
41666	7	Sololá	710	Panajachel	8	Panajachel	6	Junio	2023-08-06T00:00:00	2024-11-08T17:00:00	7	Dirección del viento	1.61
41667	7	Sololá	710	Panajachel	8	Panajachel	6	Junio	2023-08-06T00:00:00	2024-11-08T17:00:00	1	Precipitación	0
41668	7	Sololá	710	Panajachel	8	Panajachel	6	Junio	2023-08-06T00:00:00	2024-11-08T17:00:00	8	Radiación solar	168
41669	7	Sololá	710	Panajachel	8	Panajachel	6	Junio	2023-08-06T00:00:00	2024-11-08T18:00:00	2	Temperatura media	21.4
41670	7	Sololá	710	Panajachel	8	Panajachel	6	Junio	2023-08-06T00:00:00	2024-11-08T18:00:00	4	Temperatura máxima	22.2
41671	7	Sololá	710	Panajachel	8	Panajachel	6	Junio	2023-08-06T00:00:00	2024-11-08T18:00:00	3	Temperatura mínima	21.4
41672	7	Sololá	710	Panajachel	8	Panajachel	6	Junio	2023-08-06T00:00:00	2024-11-08T18:00:00	5	Humedad	89
41673	7	Sololá	710	Panajachel	8	Panajachel	6	Junio	2023-08-06T00:00:00	2024-11-08T18:00:00	6	Velocidad del viento	1.6
41674	7	Sololá	710	Panajachel	8	Panajachel	6	Junio	2023-08-06T00:00:00	2024-11-08T18:00:00	7	Dirección del viento	1.61
41675	7	Sololá	710	Panajachel	8	Panajachel	6	Junio	2023-08-06T00:00:00	2024-11-08T18:00:00	1	Precipitación	0
41676	7	Sololá	710	Panajachel	8	Panajachel	6	Junio	2023-08-06T00:00:00	2024-11-08T18:00:00	8	Radiación solar	80
41677	7	Sololá	710	Panajachel	8	Panajachel	6	Junio	2023-08-06T00:00:00	2024-11-08T19:00:00	2	Temperatura media	21.2
41678	7	Sololá	710	Panajachel	8	Panajachel	6	Junio	2023-08-06T00:00:00	2024-11-08T19:00:00	4	Temperatura máxima	21.4
41679	7	Sololá	710	Panajachel	8	Panajachel	6	Junio	2023-08-06T00:00:00	2024-11-08T19:00:00	3	Temperatura mínima	21.1
41680	7	Sololá	710	Panajachel	8	Panajachel	6	Junio	2023-08-06T00:00:00	2024-11-08T19:00:00	5	Humedad	88
41681	7	Sololá	710	Panajachel	8	Panajachel	6	Junio	2023-08-06T00:00:00	2024-11-08T19:00:00	6	Velocidad del viento	0
41682	7	Sololá	710	Panajachel	8	Panajachel	6	Junio	2023-08-06T00:00:00	2024-11-08T19:00:00	7	Dirección del viento	0
41683	7	Sololá	710	Panajachel	8	Panajachel	6	Junio	2023-08-06T00:00:00	2024-11-08T19:00:00	1	Precipitación	0
41684	7	Sololá	710	Panajachel	8	Panajachel	6	Junio	2023-08-06T00:00:00	2024-11-08T19:00:00	8	Radiación solar	0
41685	7	Sololá	710	Panajachel	8	Panajachel	6	Junio	2023-08-06T00:00:00	2024-11-08T20:00:00	2	Temperatura media	21.1
41686	7	Sololá	710	Panajachel	8	Panajachel	6	Junio	2023-08-06T00:00:00	2024-11-08T20:00:00	4	Temperatura máxima	21.2
41687	7	Sololá	710	Panajachel	8	Panajachel	6	Junio	2023-08-06T00:00:00	2024-11-08T20:00:00	3	Temperatura mínima	21.1
41688	7	Sololá	710	Panajachel	8	Panajachel	6	Junio	2023-08-06T00:00:00	2024-11-08T20:00:00	5	Humedad	91
41689	7	Sololá	710	Panajachel	8	Panajachel	6	Junio	2023-08-06T00:00:00	2024-11-08T20:00:00	6	Velocidad del viento	0
41690	7	Sololá	710	Panajachel	8	Panajachel	6	Junio	2023-08-06T00:00:00	2024-11-08T20:00:00	7	Dirección del viento	0
41691	7	Sololá	710	Panajachel	8	Panajachel	6	Junio	2023-08-06T00:00:00	2024-11-08T20:00:00	1	Precipitación	0
41692	7	Sololá	710	Panajachel	8	Panajachel	6	Junio	2023-08-06T00:00:00	2024-11-08T20:00:00	8	Radiación solar	0
41693	7	Sololá	710	Panajachel	8	Panajachel	6	Junio	2023-08-06T00:00:00	2024-11-08T21:00:00	2	Temperatura media	20.7
41694	7	Sololá	710	Panajachel	8	Panajachel	6	Junio	2023-08-06T00:00:00	2024-11-08T21:00:00	4	Temperatura máxima	21.1
41695	7	Sololá	710	Panajachel	8	Panajachel	6	Junio	2023-08-06T00:00:00	2024-11-08T21:00:00	3	Temperatura mínima	20.7
41696	7	Sololá	710	Panajachel	8	Panajachel	6	Junio	2023-08-06T00:00:00	2024-11-08T21:00:00	5	Humedad	91
41697	7	Sololá	710	Panajachel	8	Panajachel	6	Junio	2023-08-06T00:00:00	2024-11-08T21:00:00	6	Velocidad del viento	0
41698	7	Sololá	710	Panajachel	8	Panajachel	6	Junio	2023-08-06T00:00:00	2024-11-08T21:00:00	7	Dirección del viento	0
41699	7	Sololá	710	Panajachel	8	Panajachel	6	Junio	2023-08-06T00:00:00	2024-11-08T21:00:00	1	Precipitación	0
41700	7	Sololá	710	Panajachel	8	Panajachel	6	Junio	2023-08-06T00:00:00	2024-11-08T21:00:00	8	Radiación solar	0
41701	7	Sololá	710	Panajachel	8	Panajachel	6	Junio	2023-08-06T00:00:00	2024-11-08T22:00:00	2	Temperatura media	20.6
41702	7	Sololá	710	Panajachel	8	Panajachel	6	Junio	2023-08-06T00:00:00	2024-11-08T22:00:00	4	Temperatura máxima	20.8
41703	7	Sololá	710	Panajachel	8	Panajachel	6	Junio	2023-08-06T00:00:00	2024-11-08T22:00:00	3	Temperatura mínima	20.6
41704	7	Sololá	710	Panajachel	8	Panajachel	6	Junio	2023-08-06T00:00:00	2024-11-08T22:00:00	5	Humedad	91
41705	7	Sololá	710	Panajachel	8	Panajachel	6	Junio	2023-08-06T00:00:00	2024-11-08T22:00:00	6	Velocidad del viento	0
41706	7	Sololá	710	Panajachel	8	Panajachel	6	Junio	2023-08-06T00:00:00	2024-11-08T22:00:00	7	Dirección del viento	0
41707	7	Sololá	710	Panajachel	8	Panajachel	6	Junio	2023-08-06T00:00:00	2024-11-08T22:00:00	1	Precipitación	0
41708	7	Sololá	710	Panajachel	8	Panajachel	6	Junio	2023-08-06T00:00:00	2024-11-08T22:00:00	8	Radiación solar	0
41709	7	Sololá	710	Panajachel	8	Panajachel	6	Junio	2023-08-06T00:00:00	2024-11-08T23:00:00	2	Temperatura media	20.1
41710	7	Sololá	710	Panajachel	8	Panajachel	6	Junio	2023-08-06T00:00:00	2024-11-08T23:00:00	4	Temperatura máxima	20.6
41711	7	Sololá	710	Panajachel	8	Panajachel	6	Junio	2023-08-06T00:00:00	2024-11-08T23:00:00	3	Temperatura mínima	20.1
41712	7	Sololá	710	Panajachel	8	Panajachel	6	Junio	2023-08-06T00:00:00	2024-11-08T23:00:00	5	Humedad	91
41713	7	Sololá	710	Panajachel	8	Panajachel	6	Junio	2023-08-06T00:00:00	2024-11-08T23:00:00	6	Velocidad del viento	0
41714	7	Sololá	710	Panajachel	8	Panajachel	6	Junio	2023-08-06T00:00:00	2024-11-08T23:00:00	7	Dirección del viento	0
41715	7	Sololá	710	Panajachel	8	Panajachel	6	Junio	2023-08-06T00:00:00	2024-11-08T23:00:00	1	Precipitación	0
41716	7	Sololá	710	Panajachel	8	Panajachel	6	Junio	2023-08-06T00:00:00	2024-11-08T23:00:00	8	Radiación solar	0
41717	7	Sololá	710	Panajachel	8	Panajachel	6	Junio	2023-09-06T00:00:00	2024-11-08T00:00:00	2	Temperatura media	19.3
41718	7	Sololá	710	Panajachel	8	Panajachel	6	Junio	2023-09-06T00:00:00	2024-11-08T00:00:00	4	Temperatura máxima	20.1
41719	7	Sololá	710	Panajachel	8	Panajachel	6	Junio	2023-09-06T00:00:00	2024-11-08T00:00:00	3	Temperatura mínima	19.3
41720	7	Sololá	710	Panajachel	8	Panajachel	6	Junio	2023-09-06T00:00:00	2024-11-08T00:00:00	5	Humedad	89
41721	7	Sololá	710	Panajachel	8	Panajachel	6	Junio	2023-09-06T00:00:00	2024-11-08T00:00:00	6	Velocidad del viento	0
41722	7	Sololá	710	Panajachel	8	Panajachel	6	Junio	2023-09-06T00:00:00	2024-11-08T00:00:00	7	Dirección del viento	0
41723	7	Sololá	710	Panajachel	8	Panajachel	6	Junio	2023-09-06T00:00:00	2024-11-08T00:00:00	1	Precipitación	0
41724	7	Sololá	710	Panajachel	8	Panajachel	6	Junio	2023-09-06T00:00:00	2024-11-08T00:00:00	8	Radiación solar	0
41725	7	Sololá	710	Panajachel	8	Panajachel	6	Junio	2023-09-06T00:00:00	2024-11-08T01:00:00	2	Temperatura media	19.3
41726	7	Sololá	710	Panajachel	8	Panajachel	6	Junio	2023-09-06T00:00:00	2024-11-08T01:00:00	4	Temperatura máxima	19.3
41727	7	Sololá	710	Panajachel	8	Panajachel	6	Junio	2023-09-06T00:00:00	2024-11-08T01:00:00	3	Temperatura mínima	19.2
41728	7	Sololá	710	Panajachel	8	Panajachel	6	Junio	2023-09-06T00:00:00	2024-11-08T01:00:00	5	Humedad	88
41729	7	Sololá	710	Panajachel	8	Panajachel	6	Junio	2023-09-06T00:00:00	2024-11-08T01:00:00	6	Velocidad del viento	0
41730	7	Sololá	710	Panajachel	8	Panajachel	6	Junio	2023-09-06T00:00:00	2024-11-08T01:00:00	7	Dirección del viento	0
41731	7	Sololá	710	Panajachel	8	Panajachel	6	Junio	2023-09-06T00:00:00	2024-11-08T01:00:00	1	Precipitación	0
41732	7	Sololá	710	Panajachel	8	Panajachel	6	Junio	2023-09-06T00:00:00	2024-11-08T01:00:00	8	Radiación solar	0
41733	7	Sololá	710	Panajachel	8	Panajachel	6	Junio	2023-09-06T00:00:00	2024-11-08T02:00:00	2	Temperatura media	18.8
41734	7	Sololá	710	Panajachel	8	Panajachel	6	Junio	2023-09-06T00:00:00	2024-11-08T02:00:00	4	Temperatura máxima	19.3
41735	7	Sololá	710	Panajachel	8	Panajachel	6	Junio	2023-09-06T00:00:00	2024-11-08T02:00:00	3	Temperatura mínima	18.8
41736	7	Sololá	710	Panajachel	8	Panajachel	6	Junio	2023-09-06T00:00:00	2024-11-08T02:00:00	5	Humedad	87
41737	7	Sololá	710	Panajachel	8	Panajachel	6	Junio	2023-09-06T00:00:00	2024-11-08T02:00:00	6	Velocidad del viento	0
41738	7	Sololá	710	Panajachel	8	Panajachel	6	Junio	2023-09-06T00:00:00	2024-11-08T02:00:00	7	Dirección del viento	0
41739	7	Sololá	710	Panajachel	8	Panajachel	6	Junio	2023-09-06T00:00:00	2024-11-08T02:00:00	1	Precipitación	0
41740	7	Sololá	710	Panajachel	8	Panajachel	6	Junio	2023-09-06T00:00:00	2024-11-08T02:00:00	8	Radiación solar	0
41741	7	Sololá	710	Panajachel	8	Panajachel	6	Junio	2023-09-06T00:00:00	2024-11-08T03:00:00	2	Temperatura media	18.3
41742	7	Sololá	710	Panajachel	8	Panajachel	6	Junio	2023-09-06T00:00:00	2024-11-08T03:00:00	4	Temperatura máxima	18.8
41743	7	Sololá	710	Panajachel	8	Panajachel	6	Junio	2023-09-06T00:00:00	2024-11-08T03:00:00	3	Temperatura mínima	18.3
41744	7	Sololá	710	Panajachel	8	Panajachel	6	Junio	2023-09-06T00:00:00	2024-11-08T03:00:00	5	Humedad	87
41745	7	Sololá	710	Panajachel	8	Panajachel	6	Junio	2023-09-06T00:00:00	2024-11-08T03:00:00	6	Velocidad del viento	1.6
41746	7	Sololá	710	Panajachel	8	Panajachel	6	Junio	2023-09-06T00:00:00	2024-11-08T03:00:00	7	Dirección del viento	1.61
41747	7	Sololá	710	Panajachel	8	Panajachel	6	Junio	2023-09-06T00:00:00	2024-11-08T03:00:00	1	Precipitación	0
41748	7	Sololá	710	Panajachel	8	Panajachel	6	Junio	2023-09-06T00:00:00	2024-11-08T03:00:00	8	Radiación solar	0
41749	7	Sololá	710	Panajachel	8	Panajachel	6	Junio	2023-09-06T00:00:00	2024-11-08T04:00:00	2	Temperatura media	17.9
41750	7	Sololá	710	Panajachel	8	Panajachel	6	Junio	2023-09-06T00:00:00	2024-11-08T04:00:00	4	Temperatura máxima	18.4
41751	7	Sololá	710	Panajachel	8	Panajachel	6	Junio	2023-09-06T00:00:00	2024-11-08T04:00:00	3	Temperatura mínima	17.9
41752	7	Sololá	710	Panajachel	8	Panajachel	6	Junio	2023-09-06T00:00:00	2024-11-08T04:00:00	5	Humedad	86
41753	7	Sololá	710	Panajachel	8	Panajachel	6	Junio	2023-09-06T00:00:00	2024-11-08T04:00:00	6	Velocidad del viento	1.6
41754	7	Sololá	710	Panajachel	8	Panajachel	6	Junio	2023-09-06T00:00:00	2024-11-08T04:00:00	7	Dirección del viento	1.61
41755	7	Sololá	710	Panajachel	8	Panajachel	6	Junio	2023-09-06T00:00:00	2024-11-08T04:00:00	1	Precipitación	0
41756	7	Sololá	710	Panajachel	8	Panajachel	6	Junio	2023-09-06T00:00:00	2024-11-08T04:00:00	8	Radiación solar	0
41757	7	Sololá	710	Panajachel	8	Panajachel	6	Junio	2023-09-06T00:00:00	2024-11-08T05:00:00	2	Temperatura media	17.6
41758	7	Sololá	710	Panajachel	8	Panajachel	6	Junio	2023-09-06T00:00:00	2024-11-08T05:00:00	4	Temperatura máxima	18.2
41759	7	Sololá	710	Panajachel	8	Panajachel	6	Junio	2023-09-06T00:00:00	2024-11-08T05:00:00	3	Temperatura mínima	17.6
41760	7	Sololá	710	Panajachel	8	Panajachel	6	Junio	2023-09-06T00:00:00	2024-11-08T05:00:00	5	Humedad	87
41761	7	Sololá	710	Panajachel	8	Panajachel	6	Junio	2023-09-06T00:00:00	2024-11-08T05:00:00	6	Velocidad del viento	1.6
41762	7	Sololá	710	Panajachel	8	Panajachel	6	Junio	2023-09-06T00:00:00	2024-11-08T05:00:00	7	Dirección del viento	1.61
41763	7	Sololá	710	Panajachel	8	Panajachel	6	Junio	2023-09-06T00:00:00	2024-11-08T05:00:00	1	Precipitación	0
41764	7	Sololá	710	Panajachel	8	Panajachel	6	Junio	2023-09-06T00:00:00	2024-11-08T05:00:00	8	Radiación solar	0
41765	7	Sololá	710	Panajachel	8	Panajachel	6	Junio	2023-09-06T00:00:00	2024-11-08T06:00:00	2	Temperatura media	17.3
41766	7	Sololá	710	Panajachel	8	Panajachel	6	Junio	2023-09-06T00:00:00	2024-11-08T06:00:00	4	Temperatura máxima	17.6
41767	7	Sololá	710	Panajachel	8	Panajachel	6	Junio	2023-09-06T00:00:00	2024-11-08T06:00:00	3	Temperatura mínima	17.3
41768	7	Sololá	710	Panajachel	8	Panajachel	6	Junio	2023-09-06T00:00:00	2024-11-08T06:00:00	5	Humedad	87
41769	7	Sololá	710	Panajachel	8	Panajachel	6	Junio	2023-09-06T00:00:00	2024-11-08T06:00:00	6	Velocidad del viento	0
41770	7	Sololá	710	Panajachel	8	Panajachel	6	Junio	2023-09-06T00:00:00	2024-11-08T06:00:00	7	Dirección del viento	0
41771	7	Sololá	710	Panajachel	8	Panajachel	6	Junio	2023-09-06T00:00:00	2024-11-08T06:00:00	1	Precipitación	0
41772	7	Sololá	710	Panajachel	8	Panajachel	6	Junio	2023-09-06T00:00:00	2024-11-08T06:00:00	8	Radiación solar	5
41773	7	Sololá	710	Panajachel	8	Panajachel	6	Junio	2023-09-06T00:00:00	2024-11-08T07:00:00	2	Temperatura media	19.4
41774	7	Sololá	710	Panajachel	8	Panajachel	6	Junio	2023-09-06T00:00:00	2024-11-08T07:00:00	4	Temperatura máxima	19.4
41775	7	Sololá	710	Panajachel	8	Panajachel	6	Junio	2023-09-06T00:00:00	2024-11-08T07:00:00	3	Temperatura mínima	17.3
41776	7	Sololá	710	Panajachel	8	Panajachel	6	Junio	2023-09-06T00:00:00	2024-11-08T07:00:00	5	Humedad	83
41777	7	Sololá	710	Panajachel	8	Panajachel	6	Junio	2023-09-06T00:00:00	2024-11-08T07:00:00	6	Velocidad del viento	0
41778	7	Sololá	710	Panajachel	8	Panajachel	6	Junio	2023-09-06T00:00:00	2024-11-08T07:00:00	7	Dirección del viento	0
41779	7	Sololá	710	Panajachel	8	Panajachel	6	Junio	2023-09-06T00:00:00	2024-11-08T07:00:00	1	Precipitación	0
41780	7	Sololá	710	Panajachel	8	Panajachel	6	Junio	2023-09-06T00:00:00	2024-11-08T07:00:00	8	Radiación solar	93
41781	7	Sololá	710	Panajachel	8	Panajachel	6	Junio	2023-09-06T00:00:00	2024-11-08T08:00:00	2	Temperatura media	21.6
41782	7	Sololá	710	Panajachel	8	Panajachel	6	Junio	2023-09-06T00:00:00	2024-11-08T08:00:00	4	Temperatura máxima	21.6
41783	7	Sololá	710	Panajachel	8	Panajachel	6	Junio	2023-09-06T00:00:00	2024-11-08T08:00:00	3	Temperatura mínima	19.4
41784	7	Sololá	710	Panajachel	8	Panajachel	6	Junio	2023-09-06T00:00:00	2024-11-08T08:00:00	5	Humedad	77
41785	7	Sololá	710	Panajachel	8	Panajachel	6	Junio	2023-09-06T00:00:00	2024-11-08T08:00:00	6	Velocidad del viento	0
41786	7	Sololá	710	Panajachel	8	Panajachel	6	Junio	2023-09-06T00:00:00	2024-11-08T08:00:00	7	Dirección del viento	0
41787	7	Sololá	710	Panajachel	8	Panajachel	6	Junio	2023-09-06T00:00:00	2024-11-08T08:00:00	1	Precipitación	0
41788	7	Sololá	710	Panajachel	8	Panajachel	6	Junio	2023-09-06T00:00:00	2024-11-08T08:00:00	8	Radiación solar	287
41789	7	Sololá	710	Panajachel	8	Panajachel	6	Junio	2023-09-06T00:00:00	2024-11-08T09:00:00	2	Temperatura media	22.7
41790	7	Sololá	710	Panajachel	8	Panajachel	6	Junio	2023-09-06T00:00:00	2024-11-08T09:00:00	4	Temperatura máxima	22.7
41791	7	Sololá	710	Panajachel	8	Panajachel	6	Junio	2023-09-06T00:00:00	2024-11-08T09:00:00	3	Temperatura mínima	21.4
41792	7	Sololá	710	Panajachel	8	Panajachel	6	Junio	2023-09-06T00:00:00	2024-11-08T09:00:00	5	Humedad	78
41793	7	Sololá	710	Panajachel	8	Panajachel	6	Junio	2023-09-06T00:00:00	2024-11-08T09:00:00	6	Velocidad del viento	0
41794	7	Sololá	710	Panajachel	8	Panajachel	6	Junio	2023-09-06T00:00:00	2024-11-08T09:00:00	7	Dirección del viento	0
41795	7	Sololá	710	Panajachel	8	Panajachel	6	Junio	2023-09-06T00:00:00	2024-11-08T09:00:00	1	Precipitación	0
41796	7	Sololá	710	Panajachel	8	Panajachel	6	Junio	2023-09-06T00:00:00	2024-11-08T09:00:00	8	Radiación solar	523
41797	7	Sololá	710	Panajachel	8	Panajachel	6	Junio	2023-09-06T00:00:00	2024-11-08T10:00:00	2	Temperatura media	23.3
41798	7	Sololá	710	Panajachel	8	Panajachel	6	Junio	2023-09-06T00:00:00	2024-11-08T10:00:00	4	Temperatura máxima	23.3
41799	7	Sololá	710	Panajachel	8	Panajachel	6	Junio	2023-09-06T00:00:00	2024-11-08T10:00:00	3	Temperatura mínima	22.6
41800	7	Sololá	710	Panajachel	8	Panajachel	6	Junio	2023-09-06T00:00:00	2024-11-08T10:00:00	5	Humedad	76
41801	7	Sololá	710	Panajachel	8	Panajachel	6	Junio	2023-09-06T00:00:00	2024-11-08T10:00:00	6	Velocidad del viento	0
41802	7	Sololá	710	Panajachel	8	Panajachel	6	Junio	2023-09-06T00:00:00	2024-11-08T10:00:00	7	Dirección del viento	0
41803	7	Sololá	710	Panajachel	8	Panajachel	6	Junio	2023-09-06T00:00:00	2024-11-08T10:00:00	1	Precipitación	0
41804	7	Sololá	710	Panajachel	8	Panajachel	6	Junio	2023-09-06T00:00:00	2024-11-08T10:00:00	8	Radiación solar	706
41805	7	Sololá	710	Panajachel	8	Panajachel	6	Junio	2023-09-06T00:00:00	2024-11-08T11:00:00	2	Temperatura media	24.1
41806	7	Sololá	710	Panajachel	8	Panajachel	6	Junio	2023-09-06T00:00:00	2024-11-08T11:00:00	4	Temperatura máxima	24.1
41807	7	Sololá	710	Panajachel	8	Panajachel	6	Junio	2023-09-06T00:00:00	2024-11-08T11:00:00	3	Temperatura mínima	23.3
41808	7	Sololá	710	Panajachel	8	Panajachel	6	Junio	2023-09-06T00:00:00	2024-11-08T11:00:00	5	Humedad	78
41809	7	Sololá	710	Panajachel	8	Panajachel	6	Junio	2023-09-06T00:00:00	2024-11-08T11:00:00	6	Velocidad del viento	0
41810	7	Sololá	710	Panajachel	8	Panajachel	6	Junio	2023-09-06T00:00:00	2024-11-08T11:00:00	7	Dirección del viento	0
41811	7	Sololá	710	Panajachel	8	Panajachel	6	Junio	2023-09-06T00:00:00	2024-11-08T11:00:00	1	Precipitación	0
41812	7	Sololá	710	Panajachel	8	Panajachel	6	Junio	2023-09-06T00:00:00	2024-11-08T11:00:00	8	Radiación solar	830
41813	7	Sololá	710	Panajachel	8	Panajachel	6	Junio	2023-09-06T00:00:00	2024-11-08T12:00:00	2	Temperatura media	24.3
41814	7	Sololá	710	Panajachel	8	Panajachel	6	Junio	2023-09-06T00:00:00	2024-11-08T12:00:00	4	Temperatura máxima	24.7
41815	7	Sololá	710	Panajachel	8	Panajachel	6	Junio	2023-09-06T00:00:00	2024-11-08T12:00:00	3	Temperatura mínima	24.1
41816	7	Sololá	710	Panajachel	8	Panajachel	6	Junio	2023-09-06T00:00:00	2024-11-08T12:00:00	5	Humedad	80
41817	7	Sololá	710	Panajachel	8	Panajachel	6	Junio	2023-09-06T00:00:00	2024-11-08T12:00:00	6	Velocidad del viento	1.6
41818	7	Sololá	710	Panajachel	8	Panajachel	6	Junio	2023-09-06T00:00:00	2024-11-08T12:00:00	7	Dirección del viento	1.61
41819	7	Sololá	710	Panajachel	8	Panajachel	6	Junio	2023-09-06T00:00:00	2024-11-08T12:00:00	1	Precipitación	0
41820	7	Sololá	710	Panajachel	8	Panajachel	6	Junio	2023-09-06T00:00:00	2024-11-08T12:00:00	8	Radiación solar	892
41821	7	Sololá	710	Panajachel	8	Panajachel	6	Junio	2023-09-06T00:00:00	2024-11-08T13:00:00	2	Temperatura media	24.6
41822	7	Sololá	710	Panajachel	8	Panajachel	6	Junio	2023-09-06T00:00:00	2024-11-08T13:00:00	4	Temperatura máxima	25.2
41823	7	Sololá	710	Panajachel	8	Panajachel	6	Junio	2023-09-06T00:00:00	2024-11-08T13:00:00	3	Temperatura mínima	24.2
41824	7	Sololá	710	Panajachel	8	Panajachel	6	Junio	2023-09-06T00:00:00	2024-11-08T13:00:00	5	Humedad	81
41825	7	Sololá	710	Panajachel	8	Panajachel	6	Junio	2023-09-06T00:00:00	2024-11-08T13:00:00	6	Velocidad del viento	1.6
41826	7	Sololá	710	Panajachel	8	Panajachel	6	Junio	2023-09-06T00:00:00	2024-11-08T13:00:00	7	Dirección del viento	1.61
41827	7	Sololá	710	Panajachel	8	Panajachel	6	Junio	2023-09-06T00:00:00	2024-11-08T13:00:00	1	Precipitación	0
41828	7	Sololá	710	Panajachel	8	Panajachel	6	Junio	2023-09-06T00:00:00	2024-11-08T13:00:00	8	Radiación solar	896
41829	7	Sololá	710	Panajachel	8	Panajachel	6	Junio	2023-09-06T00:00:00	2024-11-08T14:00:00	2	Temperatura media	24.7
41830	7	Sololá	710	Panajachel	8	Panajachel	6	Junio	2023-09-06T00:00:00	2024-11-08T14:00:00	4	Temperatura máxima	25.3
41831	7	Sololá	710	Panajachel	8	Panajachel	6	Junio	2023-09-06T00:00:00	2024-11-08T14:00:00	3	Temperatura mínima	24.6
41832	7	Sololá	710	Panajachel	8	Panajachel	6	Junio	2023-09-06T00:00:00	2024-11-08T14:00:00	5	Humedad	79
41833	7	Sololá	710	Panajachel	8	Panajachel	6	Junio	2023-09-06T00:00:00	2024-11-08T14:00:00	6	Velocidad del viento	1.6
41834	7	Sololá	710	Panajachel	8	Panajachel	6	Junio	2023-09-06T00:00:00	2024-11-08T14:00:00	7	Dirección del viento	1.61
41835	7	Sololá	710	Panajachel	8	Panajachel	6	Junio	2023-09-06T00:00:00	2024-11-08T14:00:00	1	Precipitación	0
41836	7	Sololá	710	Panajachel	8	Panajachel	6	Junio	2023-09-06T00:00:00	2024-11-08T14:00:00	8	Radiación solar	762
41837	7	Sololá	710	Panajachel	8	Panajachel	6	Junio	2023-09-06T00:00:00	2024-11-08T15:00:00	2	Temperatura media	23.8
41838	7	Sololá	710	Panajachel	8	Panajachel	6	Junio	2023-09-06T00:00:00	2024-11-08T15:00:00	4	Temperatura máxima	24.7
41839	7	Sololá	710	Panajachel	8	Panajachel	6	Junio	2023-09-06T00:00:00	2024-11-08T15:00:00	3	Temperatura mínima	23.5
41840	7	Sololá	710	Panajachel	8	Panajachel	6	Junio	2023-09-06T00:00:00	2024-11-08T15:00:00	5	Humedad	84
41841	7	Sololá	710	Panajachel	8	Panajachel	6	Junio	2023-09-06T00:00:00	2024-11-08T15:00:00	6	Velocidad del viento	1.6
41842	7	Sololá	710	Panajachel	8	Panajachel	6	Junio	2023-09-06T00:00:00	2024-11-08T15:00:00	7	Dirección del viento	1.61
41843	7	Sololá	710	Panajachel	8	Panajachel	6	Junio	2023-09-06T00:00:00	2024-11-08T15:00:00	1	Precipitación	0
41844	7	Sololá	710	Panajachel	8	Panajachel	6	Junio	2023-09-06T00:00:00	2024-11-08T15:00:00	8	Radiación solar	266
41845	7	Sololá	710	Panajachel	8	Panajachel	6	Junio	2023-09-06T00:00:00	2024-11-08T16:00:00	2	Temperatura media	23.4
41846	7	Sololá	710	Panajachel	8	Panajachel	6	Junio	2023-09-06T00:00:00	2024-11-08T16:00:00	4	Temperatura máxima	24.1
41847	7	Sololá	710	Panajachel	8	Panajachel	6	Junio	2023-09-06T00:00:00	2024-11-08T16:00:00	3	Temperatura mínima	23.3
41848	7	Sololá	710	Panajachel	8	Panajachel	6	Junio	2023-09-06T00:00:00	2024-11-08T16:00:00	5	Humedad	85
41849	7	Sololá	710	Panajachel	8	Panajachel	6	Junio	2023-09-06T00:00:00	2024-11-08T16:00:00	6	Velocidad del viento	1.6
41850	7	Sololá	710	Panajachel	8	Panajachel	6	Junio	2023-09-06T00:00:00	2024-11-08T16:00:00	7	Dirección del viento	1.61
41851	7	Sololá	710	Panajachel	8	Panajachel	6	Junio	2023-09-06T00:00:00	2024-11-08T16:00:00	1	Precipitación	0
41852	7	Sololá	710	Panajachel	8	Panajachel	6	Junio	2023-09-06T00:00:00	2024-11-08T16:00:00	8	Radiación solar	206
41853	7	Sololá	710	Panajachel	8	Panajachel	6	Junio	2023-09-06T00:00:00	2024-11-08T17:00:00	2	Temperatura media	23.3
41854	7	Sololá	710	Panajachel	8	Panajachel	6	Junio	2023-09-06T00:00:00	2024-11-08T17:00:00	4	Temperatura máxima	23.4
41855	7	Sololá	710	Panajachel	8	Panajachel	6	Junio	2023-09-06T00:00:00	2024-11-08T17:00:00	3	Temperatura mínima	22.8
41856	7	Sololá	710	Panajachel	8	Panajachel	6	Junio	2023-09-06T00:00:00	2024-11-08T17:00:00	5	Humedad	85
41857	7	Sololá	710	Panajachel	8	Panajachel	6	Junio	2023-09-06T00:00:00	2024-11-08T17:00:00	6	Velocidad del viento	3.2
41858	7	Sololá	710	Panajachel	8	Panajachel	6	Junio	2023-09-06T00:00:00	2024-11-08T17:00:00	7	Dirección del viento	3.22
41859	7	Sololá	710	Panajachel	8	Panajachel	6	Junio	2023-09-06T00:00:00	2024-11-08T17:00:00	1	Precipitación	0
41860	7	Sololá	710	Panajachel	8	Panajachel	6	Junio	2023-09-06T00:00:00	2024-11-08T17:00:00	8	Radiación solar	155
41861	7	Sololá	710	Panajachel	8	Panajachel	6	Junio	2023-09-06T00:00:00	2024-11-08T18:00:00	2	Temperatura media	22.2
41862	7	Sololá	710	Panajachel	8	Panajachel	6	Junio	2023-09-06T00:00:00	2024-11-08T18:00:00	4	Temperatura máxima	23.3
41863	7	Sololá	710	Panajachel	8	Panajachel	6	Junio	2023-09-06T00:00:00	2024-11-08T18:00:00	3	Temperatura mínima	22.2
41864	7	Sololá	710	Panajachel	8	Panajachel	6	Junio	2023-09-06T00:00:00	2024-11-08T18:00:00	5	Humedad	88
41865	7	Sololá	710	Panajachel	8	Panajachel	6	Junio	2023-09-06T00:00:00	2024-11-08T18:00:00	6	Velocidad del viento	0
41866	7	Sololá	710	Panajachel	8	Panajachel	6	Junio	2023-09-06T00:00:00	2024-11-08T18:00:00	7	Dirección del viento	0
41867	7	Sololá	710	Panajachel	8	Panajachel	6	Junio	2023-09-06T00:00:00	2024-11-08T18:00:00	1	Precipitación	0
41868	7	Sololá	710	Panajachel	8	Panajachel	6	Junio	2023-09-06T00:00:00	2024-11-08T18:00:00	8	Radiación solar	56
41869	7	Sololá	710	Panajachel	8	Panajachel	6	Junio	2023-09-06T00:00:00	2024-11-08T19:00:00	2	Temperatura media	21.8
41870	7	Sololá	710	Panajachel	8	Panajachel	6	Junio	2023-09-06T00:00:00	2024-11-08T19:00:00	4	Temperatura máxima	22.3
41871	7	Sololá	710	Panajachel	8	Panajachel	6	Junio	2023-09-06T00:00:00	2024-11-08T19:00:00	3	Temperatura mínima	21.8
41872	7	Sololá	710	Panajachel	8	Panajachel	6	Junio	2023-09-06T00:00:00	2024-11-08T19:00:00	5	Humedad	89
41873	7	Sololá	710	Panajachel	8	Panajachel	6	Junio	2023-09-06T00:00:00	2024-11-08T19:00:00	6	Velocidad del viento	0
41874	7	Sololá	710	Panajachel	8	Panajachel	6	Junio	2023-09-06T00:00:00	2024-11-08T19:00:00	7	Dirección del viento	0
41875	7	Sololá	710	Panajachel	8	Panajachel	6	Junio	2023-09-06T00:00:00	2024-11-08T19:00:00	1	Precipitación	0
41876	7	Sololá	710	Panajachel	8	Panajachel	6	Junio	2023-09-06T00:00:00	2024-11-08T19:00:00	8	Radiación solar	0
41877	7	Sololá	710	Panajachel	8	Panajachel	6	Junio	2023-09-06T00:00:00	2024-11-08T20:00:00	2	Temperatura media	21.5
41878	7	Sololá	710	Panajachel	8	Panajachel	6	Junio	2023-09-06T00:00:00	2024-11-08T20:00:00	4	Temperatura máxima	21.8
41879	7	Sololá	710	Panajachel	8	Panajachel	6	Junio	2023-09-06T00:00:00	2024-11-08T20:00:00	3	Temperatura mínima	21.4
41880	7	Sololá	710	Panajachel	8	Panajachel	6	Junio	2023-09-06T00:00:00	2024-11-08T20:00:00	5	Humedad	91
41881	7	Sololá	710	Panajachel	8	Panajachel	6	Junio	2023-09-06T00:00:00	2024-11-08T20:00:00	6	Velocidad del viento	0
41882	7	Sololá	710	Panajachel	8	Panajachel	6	Junio	2023-09-06T00:00:00	2024-11-08T20:00:00	7	Dirección del viento	0
41883	7	Sololá	710	Panajachel	8	Panajachel	6	Junio	2023-09-06T00:00:00	2024-11-08T20:00:00	1	Precipitación	0
41884	7	Sololá	710	Panajachel	8	Panajachel	6	Junio	2023-09-06T00:00:00	2024-11-08T20:00:00	8	Radiación solar	0
41885	7	Sololá	710	Panajachel	8	Panajachel	6	Junio	2023-09-06T00:00:00	2024-11-08T21:00:00	2	Temperatura media	20.3
41886	7	Sololá	710	Panajachel	8	Panajachel	6	Junio	2023-09-06T00:00:00	2024-11-08T21:00:00	4	Temperatura máxima	21.5
41887	7	Sololá	710	Panajachel	8	Panajachel	6	Junio	2023-09-06T00:00:00	2024-11-08T21:00:00	3	Temperatura mínima	20.3
41888	7	Sololá	710	Panajachel	8	Panajachel	6	Junio	2023-09-06T00:00:00	2024-11-08T21:00:00	5	Humedad	95
41889	7	Sololá	710	Panajachel	8	Panajachel	6	Junio	2023-09-06T00:00:00	2024-11-08T21:00:00	6	Velocidad del viento	1.6
41890	7	Sololá	710	Panajachel	8	Panajachel	6	Junio	2023-09-06T00:00:00	2024-11-08T21:00:00	7	Dirección del viento	1.61
41891	7	Sololá	710	Panajachel	8	Panajachel	6	Junio	2023-09-06T00:00:00	2024-11-08T21:00:00	1	Precipitación	0
41892	7	Sololá	710	Panajachel	8	Panajachel	6	Junio	2023-09-06T00:00:00	2024-11-08T21:00:00	8	Radiación solar	0
41893	7	Sololá	710	Panajachel	8	Panajachel	6	Junio	2023-09-06T00:00:00	2024-11-08T22:00:00	2	Temperatura media	20.4
41894	7	Sololá	710	Panajachel	8	Panajachel	6	Junio	2023-09-06T00:00:00	2024-11-08T22:00:00	4	Temperatura máxima	20.4
41895	7	Sololá	710	Panajachel	8	Panajachel	6	Junio	2023-09-06T00:00:00	2024-11-08T22:00:00	3	Temperatura mínima	20.3
41896	7	Sololá	710	Panajachel	8	Panajachel	6	Junio	2023-09-06T00:00:00	2024-11-08T22:00:00	5	Humedad	93
41897	7	Sololá	710	Panajachel	8	Panajachel	6	Junio	2023-09-06T00:00:00	2024-11-08T22:00:00	6	Velocidad del viento	0
41898	7	Sololá	710	Panajachel	8	Panajachel	6	Junio	2023-09-06T00:00:00	2024-11-08T22:00:00	7	Dirección del viento	0
41899	7	Sololá	710	Panajachel	8	Panajachel	6	Junio	2023-09-06T00:00:00	2024-11-08T22:00:00	1	Precipitación	0
41900	7	Sololá	710	Panajachel	8	Panajachel	6	Junio	2023-09-06T00:00:00	2024-11-08T22:00:00	8	Radiación solar	0
41901	7	Sololá	710	Panajachel	8	Panajachel	6	Junio	2023-09-06T00:00:00	2024-11-08T23:00:00	2	Temperatura media	20.3
41902	7	Sololá	710	Panajachel	8	Panajachel	6	Junio	2023-09-06T00:00:00	2024-11-08T23:00:00	4	Temperatura máxima	20.4
41903	7	Sololá	710	Panajachel	8	Panajachel	6	Junio	2023-09-06T00:00:00	2024-11-08T23:00:00	3	Temperatura mínima	20.2
41904	7	Sololá	710	Panajachel	8	Panajachel	6	Junio	2023-09-06T00:00:00	2024-11-08T23:00:00	5	Humedad	94
41905	7	Sololá	710	Panajachel	8	Panajachel	6	Junio	2023-09-06T00:00:00	2024-11-08T23:00:00	6	Velocidad del viento	0
41906	7	Sololá	710	Panajachel	8	Panajachel	6	Junio	2023-09-06T00:00:00	2024-11-08T23:00:00	7	Dirección del viento	0
41907	7	Sololá	710	Panajachel	8	Panajachel	6	Junio	2023-09-06T00:00:00	2024-11-08T23:00:00	1	Precipitación	0
41908	7	Sololá	710	Panajachel	8	Panajachel	6	Junio	2023-09-06T00:00:00	2024-11-08T23:00:00	8	Radiación solar	0
41909	7	Sololá	710	Panajachel	8	Panajachel	6	Junio	2023-10-06T00:00:00	2024-11-08T00:00:00	2	Temperatura media	20.7
41910	7	Sololá	710	Panajachel	8	Panajachel	6	Junio	2023-10-06T00:00:00	2024-11-08T00:00:00	4	Temperatura máxima	20.7
41911	7	Sololá	710	Panajachel	8	Panajachel	6	Junio	2023-10-06T00:00:00	2024-11-08T00:00:00	3	Temperatura mínima	20.3
41912	7	Sololá	710	Panajachel	8	Panajachel	6	Junio	2023-10-06T00:00:00	2024-11-08T00:00:00	5	Humedad	92
41913	7	Sololá	710	Panajachel	8	Panajachel	6	Junio	2023-10-06T00:00:00	2024-11-08T00:00:00	6	Velocidad del viento	0
41914	7	Sololá	710	Panajachel	8	Panajachel	6	Junio	2023-10-06T00:00:00	2024-11-08T00:00:00	7	Dirección del viento	0
41915	7	Sololá	710	Panajachel	8	Panajachel	6	Junio	2023-10-06T00:00:00	2024-11-08T00:00:00	1	Precipitación	0
41916	7	Sololá	710	Panajachel	8	Panajachel	6	Junio	2023-10-06T00:00:00	2024-11-08T00:00:00	8	Radiación solar	0
41917	7	Sololá	710	Panajachel	8	Panajachel	6	Junio	2023-10-06T00:00:00	2024-11-08T01:00:00	2	Temperatura media	20.1
41918	7	Sololá	710	Panajachel	8	Panajachel	6	Junio	2023-10-06T00:00:00	2024-11-08T01:00:00	4	Temperatura máxima	20.7
41919	7	Sololá	710	Panajachel	8	Panajachel	6	Junio	2023-10-06T00:00:00	2024-11-08T01:00:00	3	Temperatura mínima	20.1
41920	7	Sololá	710	Panajachel	8	Panajachel	6	Junio	2023-10-06T00:00:00	2024-11-08T01:00:00	5	Humedad	94
41921	7	Sololá	710	Panajachel	8	Panajachel	6	Junio	2023-10-06T00:00:00	2024-11-08T01:00:00	6	Velocidad del viento	0
41922	7	Sololá	710	Panajachel	8	Panajachel	6	Junio	2023-10-06T00:00:00	2024-11-08T01:00:00	7	Dirección del viento	0
41923	7	Sololá	710	Panajachel	8	Panajachel	6	Junio	2023-10-06T00:00:00	2024-11-08T01:00:00	1	Precipitación	0
41924	7	Sololá	710	Panajachel	8	Panajachel	6	Junio	2023-10-06T00:00:00	2024-11-08T01:00:00	8	Radiación solar	0
41925	7	Sololá	710	Panajachel	8	Panajachel	6	Junio	2023-10-06T00:00:00	2024-11-08T02:00:00	2	Temperatura media	19.9
41926	7	Sololá	710	Panajachel	8	Panajachel	6	Junio	2023-10-06T00:00:00	2024-11-08T02:00:00	4	Temperatura máxima	20.2
41927	7	Sololá	710	Panajachel	8	Panajachel	6	Junio	2023-10-06T00:00:00	2024-11-08T02:00:00	3	Temperatura mínima	19.8
41928	7	Sololá	710	Panajachel	8	Panajachel	6	Junio	2023-10-06T00:00:00	2024-11-08T02:00:00	5	Humedad	93
41929	7	Sololá	710	Panajachel	8	Panajachel	6	Junio	2023-10-06T00:00:00	2024-11-08T02:00:00	6	Velocidad del viento	0
41930	7	Sololá	710	Panajachel	8	Panajachel	6	Junio	2023-10-06T00:00:00	2024-11-08T02:00:00	7	Dirección del viento	0
41931	7	Sololá	710	Panajachel	8	Panajachel	6	Junio	2023-10-06T00:00:00	2024-11-08T02:00:00	1	Precipitación	0
41932	7	Sololá	710	Panajachel	8	Panajachel	6	Junio	2023-10-06T00:00:00	2024-11-08T02:00:00	8	Radiación solar	0
41933	7	Sololá	710	Panajachel	8	Panajachel	6	Junio	2023-10-06T00:00:00	2024-11-08T03:00:00	2	Temperatura media	19.3
41934	7	Sololá	710	Panajachel	8	Panajachel	6	Junio	2023-10-06T00:00:00	2024-11-08T03:00:00	4	Temperatura máxima	19.9
41935	7	Sololá	710	Panajachel	8	Panajachel	6	Junio	2023-10-06T00:00:00	2024-11-08T03:00:00	3	Temperatura mínima	19.3
41936	7	Sololá	710	Panajachel	8	Panajachel	6	Junio	2023-10-06T00:00:00	2024-11-08T03:00:00	5	Humedad	90
41937	7	Sololá	710	Panajachel	8	Panajachel	6	Junio	2023-10-06T00:00:00	2024-11-08T03:00:00	6	Velocidad del viento	0
41938	7	Sololá	710	Panajachel	8	Panajachel	6	Junio	2023-10-06T00:00:00	2024-11-08T03:00:00	7	Dirección del viento	0
41939	7	Sololá	710	Panajachel	8	Panajachel	6	Junio	2023-10-06T00:00:00	2024-11-08T03:00:00	1	Precipitación	0
41940	7	Sololá	710	Panajachel	8	Panajachel	6	Junio	2023-10-06T00:00:00	2024-11-08T03:00:00	8	Radiación solar	0
41941	7	Sololá	710	Panajachel	8	Panajachel	6	Junio	2023-10-06T00:00:00	2024-11-08T04:00:00	2	Temperatura media	18.6
41942	7	Sololá	710	Panajachel	8	Panajachel	6	Junio	2023-10-06T00:00:00	2024-11-08T04:00:00	4	Temperatura máxima	19.3
41943	7	Sololá	710	Panajachel	8	Panajachel	6	Junio	2023-10-06T00:00:00	2024-11-08T04:00:00	3	Temperatura mínima	18.6
41944	7	Sololá	710	Panajachel	8	Panajachel	6	Junio	2023-10-06T00:00:00	2024-11-08T04:00:00	5	Humedad	90
41945	7	Sololá	710	Panajachel	8	Panajachel	6	Junio	2023-10-06T00:00:00	2024-11-08T04:00:00	6	Velocidad del viento	0
41946	7	Sololá	710	Panajachel	8	Panajachel	6	Junio	2023-10-06T00:00:00	2024-11-08T04:00:00	7	Dirección del viento	0
41947	7	Sololá	710	Panajachel	8	Panajachel	6	Junio	2023-10-06T00:00:00	2024-11-08T04:00:00	1	Precipitación	0
41948	7	Sololá	710	Panajachel	8	Panajachel	6	Junio	2023-10-06T00:00:00	2024-11-08T04:00:00	8	Radiación solar	0
41949	7	Sololá	710	Panajachel	8	Panajachel	6	Junio	2023-10-06T00:00:00	2024-11-08T05:00:00	2	Temperatura media	17.9
41950	7	Sololá	710	Panajachel	8	Panajachel	6	Junio	2023-10-06T00:00:00	2024-11-08T05:00:00	4	Temperatura máxima	18.6
41951	7	Sololá	710	Panajachel	8	Panajachel	6	Junio	2023-10-06T00:00:00	2024-11-08T05:00:00	3	Temperatura mínima	17.9
41952	7	Sololá	710	Panajachel	8	Panajachel	6	Junio	2023-10-06T00:00:00	2024-11-08T05:00:00	5	Humedad	88
41953	7	Sololá	710	Panajachel	8	Panajachel	6	Junio	2023-10-06T00:00:00	2024-11-08T05:00:00	6	Velocidad del viento	0
41954	7	Sololá	710	Panajachel	8	Panajachel	6	Junio	2023-10-06T00:00:00	2024-11-08T05:00:00	7	Dirección del viento	0
41955	7	Sololá	710	Panajachel	8	Panajachel	6	Junio	2023-10-06T00:00:00	2024-11-08T05:00:00	1	Precipitación	0
41956	7	Sololá	710	Panajachel	8	Panajachel	6	Junio	2023-10-06T00:00:00	2024-11-08T05:00:00	8	Radiación solar	0
41957	7	Sololá	710	Panajachel	8	Panajachel	6	Junio	2023-10-06T00:00:00	2024-11-08T06:00:00	2	Temperatura media	17.7
41958	7	Sololá	710	Panajachel	8	Panajachel	6	Junio	2023-10-06T00:00:00	2024-11-08T06:00:00	4	Temperatura máxima	17.9
41959	7	Sololá	710	Panajachel	8	Panajachel	6	Junio	2023-10-06T00:00:00	2024-11-08T06:00:00	3	Temperatura mínima	17.7
41960	7	Sololá	710	Panajachel	8	Panajachel	6	Junio	2023-10-06T00:00:00	2024-11-08T06:00:00	5	Humedad	88
41961	7	Sololá	710	Panajachel	8	Panajachel	6	Junio	2023-10-06T00:00:00	2024-11-08T06:00:00	6	Velocidad del viento	0
41962	7	Sololá	710	Panajachel	8	Panajachel	6	Junio	2023-10-06T00:00:00	2024-11-08T06:00:00	7	Dirección del viento	0
41963	7	Sololá	710	Panajachel	8	Panajachel	6	Junio	2023-10-06T00:00:00	2024-11-08T06:00:00	1	Precipitación	0
41964	7	Sololá	710	Panajachel	8	Panajachel	6	Junio	2023-10-06T00:00:00	2024-11-08T06:00:00	8	Radiación solar	7
41965	7	Sololá	710	Panajachel	8	Panajachel	6	Junio	2023-10-06T00:00:00	2024-11-08T07:00:00	2	Temperatura media	20.1
41966	7	Sololá	710	Panajachel	8	Panajachel	6	Junio	2023-10-06T00:00:00	2024-11-08T07:00:00	4	Temperatura máxima	20.1
41967	7	Sololá	710	Panajachel	8	Panajachel	6	Junio	2023-10-06T00:00:00	2024-11-08T07:00:00	3	Temperatura mínima	17.7
41968	7	Sololá	710	Panajachel	8	Panajachel	6	Junio	2023-10-06T00:00:00	2024-11-08T07:00:00	5	Humedad	82
41969	7	Sololá	710	Panajachel	8	Panajachel	6	Junio	2023-10-06T00:00:00	2024-11-08T07:00:00	6	Velocidad del viento	0
41970	7	Sololá	710	Panajachel	8	Panajachel	6	Junio	2023-10-06T00:00:00	2024-11-08T07:00:00	7	Dirección del viento	0
41971	7	Sololá	710	Panajachel	8	Panajachel	6	Junio	2023-10-06T00:00:00	2024-11-08T07:00:00	1	Precipitación	0
41972	7	Sololá	710	Panajachel	8	Panajachel	6	Junio	2023-10-06T00:00:00	2024-11-08T07:00:00	8	Radiación solar	124
41973	7	Sololá	710	Panajachel	8	Panajachel	6	Junio	2023-10-06T00:00:00	2024-11-08T08:00:00	2	Temperatura media	21.8
41974	7	Sololá	710	Panajachel	8	Panajachel	6	Junio	2023-10-06T00:00:00	2024-11-08T08:00:00	4	Temperatura máxima	21.8
41975	7	Sololá	710	Panajachel	8	Panajachel	6	Junio	2023-10-06T00:00:00	2024-11-08T08:00:00	3	Temperatura mínima	20.1
41976	7	Sololá	710	Panajachel	8	Panajachel	6	Junio	2023-10-06T00:00:00	2024-11-08T08:00:00	5	Humedad	80
41977	7	Sololá	710	Panajachel	8	Panajachel	6	Junio	2023-10-06T00:00:00	2024-11-08T08:00:00	6	Velocidad del viento	0
41978	7	Sololá	710	Panajachel	8	Panajachel	6	Junio	2023-10-06T00:00:00	2024-11-08T08:00:00	7	Dirección del viento	0
41979	7	Sololá	710	Panajachel	8	Panajachel	6	Junio	2023-10-06T00:00:00	2024-11-08T08:00:00	1	Precipitación	0
41980	7	Sololá	710	Panajachel	8	Panajachel	6	Junio	2023-10-06T00:00:00	2024-11-08T08:00:00	8	Radiación solar	292
41981	7	Sololá	710	Panajachel	8	Panajachel	6	Junio	2023-10-06T00:00:00	2024-11-08T09:00:00	2	Temperatura media	22.2
41982	7	Sololá	710	Panajachel	8	Panajachel	6	Junio	2023-10-06T00:00:00	2024-11-08T09:00:00	4	Temperatura máxima	22.2
41983	7	Sololá	710	Panajachel	8	Panajachel	6	Junio	2023-10-06T00:00:00	2024-11-08T09:00:00	3	Temperatura mínima	21.7
41984	7	Sololá	710	Panajachel	8	Panajachel	6	Junio	2023-10-06T00:00:00	2024-11-08T09:00:00	5	Humedad	81
41985	7	Sololá	710	Panajachel	8	Panajachel	6	Junio	2023-10-06T00:00:00	2024-11-08T09:00:00	6	Velocidad del viento	0
41986	7	Sololá	710	Panajachel	8	Panajachel	6	Junio	2023-10-06T00:00:00	2024-11-08T09:00:00	7	Dirección del viento	0
41987	7	Sololá	710	Panajachel	8	Panajachel	6	Junio	2023-10-06T00:00:00	2024-11-08T09:00:00	1	Precipitación	0
41988	7	Sololá	710	Panajachel	8	Panajachel	6	Junio	2023-10-06T00:00:00	2024-11-08T09:00:00	8	Radiación solar	461
41989	7	Sololá	710	Panajachel	8	Panajachel	6	Junio	2023-10-06T00:00:00	2024-11-08T10:00:00	2	Temperatura media	23.4
41990	7	Sololá	710	Panajachel	8	Panajachel	6	Junio	2023-10-06T00:00:00	2024-11-08T10:00:00	4	Temperatura máxima	23.5
41991	7	Sololá	710	Panajachel	8	Panajachel	6	Junio	2023-10-06T00:00:00	2024-11-08T10:00:00	3	Temperatura mínima	22.1
41992	7	Sololá	710	Panajachel	8	Panajachel	6	Junio	2023-10-06T00:00:00	2024-11-08T10:00:00	5	Humedad	76
41993	7	Sololá	710	Panajachel	8	Panajachel	6	Junio	2023-10-06T00:00:00	2024-11-08T10:00:00	6	Velocidad del viento	0
41994	7	Sololá	710	Panajachel	8	Panajachel	6	Junio	2023-10-06T00:00:00	2024-11-08T10:00:00	7	Dirección del viento	0
41995	7	Sololá	710	Panajachel	8	Panajachel	6	Junio	2023-10-06T00:00:00	2024-11-08T10:00:00	1	Precipitación	0
41996	7	Sololá	710	Panajachel	8	Panajachel	6	Junio	2023-10-06T00:00:00	2024-11-08T10:00:00	8	Radiación solar	685
41997	7	Sololá	710	Panajachel	8	Panajachel	6	Junio	2023-10-06T00:00:00	2024-11-08T11:00:00	2	Temperatura media	24.2
41998	7	Sololá	710	Panajachel	8	Panajachel	6	Junio	2023-10-06T00:00:00	2024-11-08T11:00:00	4	Temperatura máxima	24.2
41999	7	Sololá	710	Panajachel	8	Panajachel	6	Junio	2023-10-06T00:00:00	2024-11-08T11:00:00	3	Temperatura mínima	23.5
42000	7	Sololá	710	Panajachel	8	Panajachel	6	Junio	2023-10-06T00:00:00	2024-11-08T11:00:00	5	Humedad	76
42001	7	Sololá	710	Panajachel	8	Panajachel	6	Junio	2023-10-06T00:00:00	2024-11-08T11:00:00	6	Velocidad del viento	1.6
42002	7	Sololá	710	Panajachel	8	Panajachel	6	Junio	2023-10-06T00:00:00	2024-11-08T11:00:00	7	Dirección del viento	1.61
42003	7	Sololá	710	Panajachel	8	Panajachel	6	Junio	2023-10-06T00:00:00	2024-11-08T11:00:00	1	Precipitación	0
42004	7	Sololá	710	Panajachel	8	Panajachel	6	Junio	2023-10-06T00:00:00	2024-11-08T11:00:00	8	Radiación solar	775
42005	7	Sololá	710	Panajachel	8	Panajachel	6	Junio	2023-10-06T00:00:00	2024-11-08T12:00:00	2	Temperatura media	22
42006	7	Sololá	710	Panajachel	8	Panajachel	6	Junio	2023-10-06T00:00:00	2024-11-08T12:00:00	4	Temperatura máxima	24.2
42007	7	Sololá	710	Panajachel	8	Panajachel	6	Junio	2023-10-06T00:00:00	2024-11-08T12:00:00	3	Temperatura mínima	22
42008	7	Sololá	710	Panajachel	8	Panajachel	6	Junio	2023-10-06T00:00:00	2024-11-08T12:00:00	5	Humedad	88
42009	7	Sololá	710	Panajachel	8	Panajachel	6	Junio	2023-10-06T00:00:00	2024-11-08T12:00:00	6	Velocidad del viento	3.2
42010	7	Sololá	710	Panajachel	8	Panajachel	6	Junio	2023-10-06T00:00:00	2024-11-08T12:00:00	7	Dirección del viento	3.22
42011	7	Sololá	710	Panajachel	8	Panajachel	6	Junio	2023-10-06T00:00:00	2024-11-08T12:00:00	1	Precipitación	0.4
42012	7	Sololá	710	Panajachel	8	Panajachel	6	Junio	2023-10-06T00:00:00	2024-11-08T12:00:00	8	Radiación solar	253
42013	7	Sololá	710	Panajachel	8	Panajachel	6	Junio	2023-10-06T00:00:00	2024-11-08T13:00:00	2	Temperatura media	22.5
42014	7	Sololá	710	Panajachel	8	Panajachel	6	Junio	2023-10-06T00:00:00	2024-11-08T13:00:00	4	Temperatura máxima	22.5
42015	7	Sololá	710	Panajachel	8	Panajachel	6	Junio	2023-10-06T00:00:00	2024-11-08T13:00:00	3	Temperatura mínima	21.8
42016	7	Sololá	710	Panajachel	8	Panajachel	6	Junio	2023-10-06T00:00:00	2024-11-08T13:00:00	5	Humedad	85
42017	7	Sololá	710	Panajachel	8	Panajachel	6	Junio	2023-10-06T00:00:00	2024-11-08T13:00:00	6	Velocidad del viento	0
42018	7	Sololá	710	Panajachel	8	Panajachel	6	Junio	2023-10-06T00:00:00	2024-11-08T13:00:00	7	Dirección del viento	0
42019	7	Sololá	710	Panajachel	8	Panajachel	6	Junio	2023-10-06T00:00:00	2024-11-08T13:00:00	1	Precipitación	0
42020	7	Sololá	710	Panajachel	8	Panajachel	6	Junio	2023-10-06T00:00:00	2024-11-08T13:00:00	8	Radiación solar	371
42021	7	Sololá	710	Panajachel	8	Panajachel	6	Junio	2023-10-06T00:00:00	2024-11-08T14:00:00	2	Temperatura media	24.7
42022	7	Sololá	710	Panajachel	8	Panajachel	6	Junio	2023-10-06T00:00:00	2024-11-08T14:00:00	4	Temperatura máxima	24.7
42023	7	Sololá	710	Panajachel	8	Panajachel	6	Junio	2023-10-06T00:00:00	2024-11-08T14:00:00	3	Temperatura mínima	22.5
42024	7	Sololá	710	Panajachel	8	Panajachel	6	Junio	2023-10-06T00:00:00	2024-11-08T14:00:00	5	Humedad	79
42025	7	Sololá	710	Panajachel	8	Panajachel	6	Junio	2023-10-06T00:00:00	2024-11-08T14:00:00	6	Velocidad del viento	0
42026	7	Sololá	710	Panajachel	8	Panajachel	6	Junio	2023-10-06T00:00:00	2024-11-08T14:00:00	7	Dirección del viento	0
42027	7	Sololá	710	Panajachel	8	Panajachel	6	Junio	2023-10-06T00:00:00	2024-11-08T14:00:00	1	Precipitación	0
42028	7	Sololá	710	Panajachel	8	Panajachel	6	Junio	2023-10-06T00:00:00	2024-11-08T14:00:00	8	Radiación solar	857
42029	7	Sololá	710	Panajachel	8	Panajachel	6	Junio	2023-10-06T00:00:00	2024-11-08T15:00:00	2	Temperatura media	21.7
42030	7	Sololá	710	Panajachel	8	Panajachel	6	Junio	2023-10-06T00:00:00	2024-11-08T15:00:00	4	Temperatura máxima	24.8
42031	7	Sololá	710	Panajachel	8	Panajachel	6	Junio	2023-10-06T00:00:00	2024-11-08T15:00:00	3	Temperatura mínima	21.6
42032	7	Sololá	710	Panajachel	8	Panajachel	6	Junio	2023-10-06T00:00:00	2024-11-08T15:00:00	5	Humedad	87
42033	7	Sololá	710	Panajachel	8	Panajachel	6	Junio	2023-10-06T00:00:00	2024-11-08T15:00:00	6	Velocidad del viento	1.6
42034	7	Sololá	710	Panajachel	8	Panajachel	6	Junio	2023-10-06T00:00:00	2024-11-08T15:00:00	7	Dirección del viento	1.61
42035	7	Sololá	710	Panajachel	8	Panajachel	6	Junio	2023-10-06T00:00:00	2024-11-08T15:00:00	1	Precipitación	0
42036	7	Sololá	710	Panajachel	8	Panajachel	6	Junio	2023-10-06T00:00:00	2024-11-08T15:00:00	8	Radiación solar	347
42037	7	Sololá	710	Panajachel	8	Panajachel	6	Junio	2023-10-06T00:00:00	2024-11-08T16:00:00	2	Temperatura media	21.2
42038	7	Sololá	710	Panajachel	8	Panajachel	6	Junio	2023-10-06T00:00:00	2024-11-08T16:00:00	4	Temperatura máxima	21.7
42039	7	Sololá	710	Panajachel	8	Panajachel	6	Junio	2023-10-06T00:00:00	2024-11-08T16:00:00	3	Temperatura mínima	21.2
42040	7	Sololá	710	Panajachel	8	Panajachel	6	Junio	2023-10-06T00:00:00	2024-11-08T16:00:00	5	Humedad	86
42041	7	Sololá	710	Panajachel	8	Panajachel	6	Junio	2023-10-06T00:00:00	2024-11-08T16:00:00	6	Velocidad del viento	1.6
42042	7	Sololá	710	Panajachel	8	Panajachel	6	Junio	2023-10-06T00:00:00	2024-11-08T16:00:00	7	Dirección del viento	1.61
42043	7	Sololá	710	Panajachel	8	Panajachel	6	Junio	2023-10-06T00:00:00	2024-11-08T16:00:00	1	Precipitación	0
42044	7	Sololá	710	Panajachel	8	Panajachel	6	Junio	2023-10-06T00:00:00	2024-11-08T16:00:00	8	Radiación solar	38
42045	7	Sololá	710	Panajachel	8	Panajachel	6	Junio	2023-10-06T00:00:00	2024-11-08T17:00:00	2	Temperatura media	20.9
42046	7	Sololá	710	Panajachel	8	Panajachel	6	Junio	2023-10-06T00:00:00	2024-11-08T17:00:00	4	Temperatura máxima	21.2
42047	7	Sololá	710	Panajachel	8	Panajachel	6	Junio	2023-10-06T00:00:00	2024-11-08T17:00:00	3	Temperatura mínima	20.8
42048	7	Sololá	710	Panajachel	8	Panajachel	6	Junio	2023-10-06T00:00:00	2024-11-08T17:00:00	5	Humedad	86
42049	7	Sololá	710	Panajachel	8	Panajachel	6	Junio	2023-10-06T00:00:00	2024-11-08T17:00:00	6	Velocidad del viento	0
42050	7	Sololá	710	Panajachel	8	Panajachel	6	Junio	2023-10-06T00:00:00	2024-11-08T17:00:00	7	Dirección del viento	0
42051	7	Sololá	710	Panajachel	8	Panajachel	6	Junio	2023-10-06T00:00:00	2024-11-08T17:00:00	1	Precipitación	0
42052	7	Sololá	710	Panajachel	8	Panajachel	6	Junio	2023-10-06T00:00:00	2024-11-08T17:00:00	8	Radiación solar	63
42053	7	Sololá	710	Panajachel	8	Panajachel	6	Junio	2023-10-06T00:00:00	2024-11-08T18:00:00	2	Temperatura media	21.3
42054	7	Sololá	710	Panajachel	8	Panajachel	6	Junio	2023-10-06T00:00:00	2024-11-08T18:00:00	4	Temperatura máxima	21.4
42055	7	Sololá	710	Panajachel	8	Panajachel	6	Junio	2023-10-06T00:00:00	2024-11-08T18:00:00	3	Temperatura mínima	20.9
42056	7	Sololá	710	Panajachel	8	Panajachel	6	Junio	2023-10-06T00:00:00	2024-11-08T18:00:00	5	Humedad	84
42057	7	Sololá	710	Panajachel	8	Panajachel	6	Junio	2023-10-06T00:00:00	2024-11-08T18:00:00	6	Velocidad del viento	0
42058	7	Sololá	710	Panajachel	8	Panajachel	6	Junio	2023-10-06T00:00:00	2024-11-08T18:00:00	7	Dirección del viento	0
42059	7	Sololá	710	Panajachel	8	Panajachel	6	Junio	2023-10-06T00:00:00	2024-11-08T18:00:00	1	Precipitación	0
42060	7	Sololá	710	Panajachel	8	Panajachel	6	Junio	2023-10-06T00:00:00	2024-11-08T18:00:00	8	Radiación solar	60
42061	7	Sololá	710	Panajachel	8	Panajachel	6	Junio	2023-10-06T00:00:00	2024-11-08T19:00:00	2	Temperatura media	20.5
42062	7	Sololá	710	Panajachel	8	Panajachel	6	Junio	2023-10-06T00:00:00	2024-11-08T19:00:00	4	Temperatura máxima	21.3
42063	7	Sololá	710	Panajachel	8	Panajachel	6	Junio	2023-10-06T00:00:00	2024-11-08T19:00:00	3	Temperatura mínima	20.4
42064	7	Sololá	710	Panajachel	8	Panajachel	6	Junio	2023-10-06T00:00:00	2024-11-08T19:00:00	5	Humedad	86
42065	7	Sololá	710	Panajachel	8	Panajachel	6	Junio	2023-10-06T00:00:00	2024-11-08T19:00:00	6	Velocidad del viento	0
42066	7	Sololá	710	Panajachel	8	Panajachel	6	Junio	2023-10-06T00:00:00	2024-11-08T19:00:00	7	Dirección del viento	0
42067	7	Sololá	710	Panajachel	8	Panajachel	6	Junio	2023-10-06T00:00:00	2024-11-08T19:00:00	1	Precipitación	0
42068	7	Sololá	710	Panajachel	8	Panajachel	6	Junio	2023-10-06T00:00:00	2024-11-08T19:00:00	8	Radiación solar	0
42069	7	Sololá	710	Panajachel	8	Panajachel	6	Junio	2023-10-06T00:00:00	2024-11-08T20:00:00	2	Temperatura media	20
42070	7	Sololá	710	Panajachel	8	Panajachel	6	Junio	2023-10-06T00:00:00	2024-11-08T20:00:00	4	Temperatura máxima	20.5
42071	7	Sololá	710	Panajachel	8	Panajachel	6	Junio	2023-10-06T00:00:00	2024-11-08T20:00:00	3	Temperatura mínima	20
42072	7	Sololá	710	Panajachel	8	Panajachel	6	Junio	2023-10-06T00:00:00	2024-11-08T20:00:00	5	Humedad	87
42073	7	Sololá	710	Panajachel	8	Panajachel	6	Junio	2023-10-06T00:00:00	2024-11-08T20:00:00	6	Velocidad del viento	0
42074	7	Sololá	710	Panajachel	8	Panajachel	6	Junio	2023-10-06T00:00:00	2024-11-08T20:00:00	7	Dirección del viento	0
42075	7	Sololá	710	Panajachel	8	Panajachel	6	Junio	2023-10-06T00:00:00	2024-11-08T20:00:00	1	Precipitación	0
42076	7	Sololá	710	Panajachel	8	Panajachel	6	Junio	2023-10-06T00:00:00	2024-11-08T20:00:00	8	Radiación solar	0
42077	7	Sololá	710	Panajachel	8	Panajachel	6	Junio	2023-10-06T00:00:00	2024-11-08T21:00:00	2	Temperatura media	19.4
42078	7	Sololá	710	Panajachel	8	Panajachel	6	Junio	2023-10-06T00:00:00	2024-11-08T21:00:00	4	Temperatura máxima	20
42079	7	Sololá	710	Panajachel	8	Panajachel	6	Junio	2023-10-06T00:00:00	2024-11-08T21:00:00	3	Temperatura mínima	19.4
42080	7	Sololá	710	Panajachel	8	Panajachel	6	Junio	2023-10-06T00:00:00	2024-11-08T21:00:00	5	Humedad	87
42081	7	Sololá	710	Panajachel	8	Panajachel	6	Junio	2023-10-06T00:00:00	2024-11-08T21:00:00	6	Velocidad del viento	0
42082	7	Sololá	710	Panajachel	8	Panajachel	6	Junio	2023-10-06T00:00:00	2024-11-08T21:00:00	7	Dirección del viento	0
42083	7	Sololá	710	Panajachel	8	Panajachel	6	Junio	2023-10-06T00:00:00	2024-11-08T21:00:00	1	Precipitación	0
42084	7	Sololá	710	Panajachel	8	Panajachel	6	Junio	2023-10-06T00:00:00	2024-11-08T21:00:00	8	Radiación solar	0
42085	7	Sololá	710	Panajachel	8	Panajachel	6	Junio	2023-10-06T00:00:00	2024-11-08T22:00:00	2	Temperatura media	19.2
42086	7	Sololá	710	Panajachel	8	Panajachel	6	Junio	2023-10-06T00:00:00	2024-11-08T22:00:00	4	Temperatura máxima	19.6
42087	7	Sololá	710	Panajachel	8	Panajachel	6	Junio	2023-10-06T00:00:00	2024-11-08T22:00:00	3	Temperatura mínima	19.2
42088	7	Sololá	710	Panajachel	8	Panajachel	6	Junio	2023-10-06T00:00:00	2024-11-08T22:00:00	5	Humedad	85
42089	7	Sololá	710	Panajachel	8	Panajachel	6	Junio	2023-10-06T00:00:00	2024-11-08T22:00:00	6	Velocidad del viento	0
42090	7	Sololá	710	Panajachel	8	Panajachel	6	Junio	2023-10-06T00:00:00	2024-11-08T22:00:00	7	Dirección del viento	0
42091	7	Sololá	710	Panajachel	8	Panajachel	6	Junio	2023-10-06T00:00:00	2024-11-08T22:00:00	1	Precipitación	0
42092	7	Sololá	710	Panajachel	8	Panajachel	6	Junio	2023-10-06T00:00:00	2024-11-08T22:00:00	8	Radiación solar	0
42093	7	Sololá	710	Panajachel	8	Panajachel	6	Junio	2023-10-06T00:00:00	2024-11-08T23:00:00	2	Temperatura media	19.4
42094	7	Sololá	710	Panajachel	8	Panajachel	6	Junio	2023-10-06T00:00:00	2024-11-08T23:00:00	4	Temperatura máxima	19.4
42095	7	Sololá	710	Panajachel	8	Panajachel	6	Junio	2023-10-06T00:00:00	2024-11-08T23:00:00	3	Temperatura mínima	19.1
42096	7	Sololá	710	Panajachel	8	Panajachel	6	Junio	2023-10-06T00:00:00	2024-11-08T23:00:00	5	Humedad	83
42097	7	Sololá	710	Panajachel	8	Panajachel	6	Junio	2023-10-06T00:00:00	2024-11-08T23:00:00	6	Velocidad del viento	0
42098	7	Sololá	710	Panajachel	8	Panajachel	6	Junio	2023-10-06T00:00:00	2024-11-08T23:00:00	7	Dirección del viento	0
42099	7	Sololá	710	Panajachel	8	Panajachel	6	Junio	2023-10-06T00:00:00	2024-11-08T23:00:00	1	Precipitación	0
42100	7	Sololá	710	Panajachel	8	Panajachel	6	Junio	2023-10-06T00:00:00	2024-11-08T23:00:00	8	Radiación solar	0
42101	7	Sololá	710	Panajachel	8	Panajachel	6	Junio	2023-11-06T00:00:00	2024-11-08T00:00:00	2	Temperatura media	19.3
42102	7	Sololá	710	Panajachel	8	Panajachel	6	Junio	2023-11-06T00:00:00	2024-11-08T00:00:00	4	Temperatura máxima	19.6
42103	7	Sololá	710	Panajachel	8	Panajachel	6	Junio	2023-11-06T00:00:00	2024-11-08T00:00:00	3	Temperatura mínima	19.2
42104	7	Sololá	710	Panajachel	8	Panajachel	6	Junio	2023-11-06T00:00:00	2024-11-08T00:00:00	5	Humedad	82
42105	7	Sololá	710	Panajachel	8	Panajachel	6	Junio	2023-11-06T00:00:00	2024-11-08T00:00:00	6	Velocidad del viento	0
42106	7	Sololá	710	Panajachel	8	Panajachel	6	Junio	2023-11-06T00:00:00	2024-11-08T00:00:00	7	Dirección del viento	0
42107	7	Sololá	710	Panajachel	8	Panajachel	6	Junio	2023-11-06T00:00:00	2024-11-08T00:00:00	1	Precipitación	0
42108	7	Sololá	710	Panajachel	8	Panajachel	6	Junio	2023-11-06T00:00:00	2024-11-08T00:00:00	8	Radiación solar	0
42109	7	Sololá	710	Panajachel	8	Panajachel	6	Junio	2023-11-06T00:00:00	2024-11-08T01:00:00	2	Temperatura media	19.4
42110	7	Sololá	710	Panajachel	8	Panajachel	6	Junio	2023-11-06T00:00:00	2024-11-08T01:00:00	4	Temperatura máxima	19.9
42111	7	Sololá	710	Panajachel	8	Panajachel	6	Junio	2023-11-06T00:00:00	2024-11-08T01:00:00	3	Temperatura mínima	19.3
42112	7	Sololá	710	Panajachel	8	Panajachel	6	Junio	2023-11-06T00:00:00	2024-11-08T01:00:00	5	Humedad	81
42113	7	Sololá	710	Panajachel	8	Panajachel	6	Junio	2023-11-06T00:00:00	2024-11-08T01:00:00	6	Velocidad del viento	0
42114	7	Sololá	710	Panajachel	8	Panajachel	6	Junio	2023-11-06T00:00:00	2024-11-08T01:00:00	7	Dirección del viento	0
42115	7	Sololá	710	Panajachel	8	Panajachel	6	Junio	2023-11-06T00:00:00	2024-11-08T01:00:00	1	Precipitación	0
42116	7	Sololá	710	Panajachel	8	Panajachel	6	Junio	2023-11-06T00:00:00	2024-11-08T01:00:00	8	Radiación solar	0
42117	7	Sololá	710	Panajachel	8	Panajachel	6	Junio	2023-11-06T00:00:00	2024-11-08T02:00:00	2	Temperatura media	18.2
42118	7	Sololá	710	Panajachel	8	Panajachel	6	Junio	2023-11-06T00:00:00	2024-11-08T02:00:00	4	Temperatura máxima	19.4
42119	7	Sololá	710	Panajachel	8	Panajachel	6	Junio	2023-11-06T00:00:00	2024-11-08T02:00:00	3	Temperatura mínima	18.2
42120	7	Sololá	710	Panajachel	8	Panajachel	6	Junio	2023-11-06T00:00:00	2024-11-08T02:00:00	5	Humedad	85
42121	7	Sololá	710	Panajachel	8	Panajachel	6	Junio	2023-11-06T00:00:00	2024-11-08T02:00:00	6	Velocidad del viento	0
42122	7	Sololá	710	Panajachel	8	Panajachel	6	Junio	2023-11-06T00:00:00	2024-11-08T02:00:00	7	Dirección del viento	0
42123	7	Sololá	710	Panajachel	8	Panajachel	6	Junio	2023-11-06T00:00:00	2024-11-08T02:00:00	1	Precipitación	0
42124	7	Sololá	710	Panajachel	8	Panajachel	6	Junio	2023-11-06T00:00:00	2024-11-08T02:00:00	8	Radiación solar	0
42125	7	Sololá	710	Panajachel	8	Panajachel	6	Junio	2023-11-06T00:00:00	2024-11-08T03:00:00	2	Temperatura media	18.3
42126	7	Sololá	710	Panajachel	8	Panajachel	6	Junio	2023-11-06T00:00:00	2024-11-08T03:00:00	4	Temperatura máxima	18.3
42127	7	Sololá	710	Panajachel	8	Panajachel	6	Junio	2023-11-06T00:00:00	2024-11-08T03:00:00	3	Temperatura mínima	18.1
42128	7	Sololá	710	Panajachel	8	Panajachel	6	Junio	2023-11-06T00:00:00	2024-11-08T03:00:00	5	Humedad	85
42129	7	Sololá	710	Panajachel	8	Panajachel	6	Junio	2023-11-06T00:00:00	2024-11-08T03:00:00	6	Velocidad del viento	0
42130	7	Sololá	710	Panajachel	8	Panajachel	6	Junio	2023-11-06T00:00:00	2024-11-08T03:00:00	7	Dirección del viento	0
42131	7	Sololá	710	Panajachel	8	Panajachel	6	Junio	2023-11-06T00:00:00	2024-11-08T03:00:00	1	Precipitación	0
42132	7	Sololá	710	Panajachel	8	Panajachel	6	Junio	2023-11-06T00:00:00	2024-11-08T03:00:00	8	Radiación solar	0
42133	7	Sololá	710	Panajachel	8	Panajachel	6	Junio	2023-11-06T00:00:00	2024-11-08T04:00:00	2	Temperatura media	17.2
42134	7	Sololá	710	Panajachel	8	Panajachel	6	Junio	2023-11-06T00:00:00	2024-11-08T04:00:00	4	Temperatura máxima	18.3
42135	7	Sololá	710	Panajachel	8	Panajachel	6	Junio	2023-11-06T00:00:00	2024-11-08T04:00:00	3	Temperatura mínima	17.1
42136	7	Sololá	710	Panajachel	8	Panajachel	6	Junio	2023-11-06T00:00:00	2024-11-08T04:00:00	5	Humedad	86
42137	7	Sololá	710	Panajachel	8	Panajachel	6	Junio	2023-11-06T00:00:00	2024-11-08T04:00:00	6	Velocidad del viento	0
42138	7	Sololá	710	Panajachel	8	Panajachel	6	Junio	2023-11-06T00:00:00	2024-11-08T04:00:00	7	Dirección del viento	0
42139	7	Sololá	710	Panajachel	8	Panajachel	6	Junio	2023-11-06T00:00:00	2024-11-08T04:00:00	1	Precipitación	0
42140	7	Sololá	710	Panajachel	8	Panajachel	6	Junio	2023-11-06T00:00:00	2024-11-08T04:00:00	8	Radiación solar	0
42141	7	Sololá	710	Panajachel	8	Panajachel	6	Junio	2023-11-06T00:00:00	2024-11-08T05:00:00	2	Temperatura media	17.1
42142	7	Sololá	710	Panajachel	8	Panajachel	6	Junio	2023-11-06T00:00:00	2024-11-08T05:00:00	4	Temperatura máxima	17.3
42143	7	Sololá	710	Panajachel	8	Panajachel	6	Junio	2023-11-06T00:00:00	2024-11-08T05:00:00	3	Temperatura mínima	17.1
42144	7	Sololá	710	Panajachel	8	Panajachel	6	Junio	2023-11-06T00:00:00	2024-11-08T05:00:00	5	Humedad	82
42145	7	Sololá	710	Panajachel	8	Panajachel	6	Junio	2023-11-06T00:00:00	2024-11-08T05:00:00	6	Velocidad del viento	0
42146	7	Sololá	710	Panajachel	8	Panajachel	6	Junio	2023-11-06T00:00:00	2024-11-08T05:00:00	7	Dirección del viento	0
42147	7	Sololá	710	Panajachel	8	Panajachel	6	Junio	2023-11-06T00:00:00	2024-11-08T05:00:00	1	Precipitación	0
42148	7	Sololá	710	Panajachel	8	Panajachel	6	Junio	2023-11-06T00:00:00	2024-11-08T05:00:00	8	Radiación solar	0
42149	7	Sololá	710	Panajachel	8	Panajachel	6	Junio	2023-11-06T00:00:00	2024-11-08T06:00:00	2	Temperatura media	17.3
42150	7	Sololá	710	Panajachel	8	Panajachel	6	Junio	2023-11-06T00:00:00	2024-11-08T06:00:00	4	Temperatura máxima	17.3
42151	7	Sololá	710	Panajachel	8	Panajachel	6	Junio	2023-11-06T00:00:00	2024-11-08T06:00:00	3	Temperatura mínima	16.8
42152	7	Sololá	710	Panajachel	8	Panajachel	6	Junio	2023-11-06T00:00:00	2024-11-08T06:00:00	5	Humedad	79
42153	7	Sololá	710	Panajachel	8	Panajachel	6	Junio	2023-11-06T00:00:00	2024-11-08T06:00:00	6	Velocidad del viento	1.6
42154	7	Sololá	710	Panajachel	8	Panajachel	6	Junio	2023-11-06T00:00:00	2024-11-08T06:00:00	7	Dirección del viento	1.61
42155	7	Sololá	710	Panajachel	8	Panajachel	6	Junio	2023-11-06T00:00:00	2024-11-08T06:00:00	1	Precipitación	0
42156	7	Sololá	710	Panajachel	8	Panajachel	6	Junio	2023-11-06T00:00:00	2024-11-08T06:00:00	8	Radiación solar	6
42157	7	Sololá	710	Panajachel	8	Panajachel	6	Junio	2023-11-06T00:00:00	2024-11-08T07:00:00	2	Temperatura media	18.8
42158	7	Sololá	710	Panajachel	8	Panajachel	6	Junio	2023-11-06T00:00:00	2024-11-08T07:00:00	4	Temperatura máxima	18.8
42159	7	Sololá	710	Panajachel	8	Panajachel	6	Junio	2023-11-06T00:00:00	2024-11-08T07:00:00	3	Temperatura mínima	16.8
42160	7	Sololá	710	Panajachel	8	Panajachel	6	Junio	2023-11-06T00:00:00	2024-11-08T07:00:00	5	Humedad	73
42161	7	Sololá	710	Panajachel	8	Panajachel	6	Junio	2023-11-06T00:00:00	2024-11-08T07:00:00	6	Velocidad del viento	0
42162	7	Sololá	710	Panajachel	8	Panajachel	6	Junio	2023-11-06T00:00:00	2024-11-08T07:00:00	7	Dirección del viento	0
42163	7	Sololá	710	Panajachel	8	Panajachel	6	Junio	2023-11-06T00:00:00	2024-11-08T07:00:00	1	Precipitación	0
42164	7	Sololá	710	Panajachel	8	Panajachel	6	Junio	2023-11-06T00:00:00	2024-11-08T07:00:00	8	Radiación solar	129
42165	7	Sololá	710	Panajachel	8	Panajachel	6	Junio	2023-11-06T00:00:00	2024-11-08T08:00:00	2	Temperatura media	21.3
42166	7	Sololá	710	Panajachel	8	Panajachel	6	Junio	2023-11-06T00:00:00	2024-11-08T08:00:00	4	Temperatura máxima	21.3
42167	7	Sololá	710	Panajachel	8	Panajachel	6	Junio	2023-11-06T00:00:00	2024-11-08T08:00:00	3	Temperatura mínima	18.8
42168	7	Sololá	710	Panajachel	8	Panajachel	6	Junio	2023-11-06T00:00:00	2024-11-08T08:00:00	5	Humedad	74
42169	7	Sololá	710	Panajachel	8	Panajachel	6	Junio	2023-11-06T00:00:00	2024-11-08T08:00:00	6	Velocidad del viento	0
42170	7	Sololá	710	Panajachel	8	Panajachel	6	Junio	2023-11-06T00:00:00	2024-11-08T08:00:00	7	Dirección del viento	0
42171	7	Sololá	710	Panajachel	8	Panajachel	6	Junio	2023-11-06T00:00:00	2024-11-08T08:00:00	1	Precipitación	0
42172	7	Sololá	710	Panajachel	8	Panajachel	6	Junio	2023-11-06T00:00:00	2024-11-08T08:00:00	8	Radiación solar	295
42173	7	Sololá	710	Panajachel	8	Panajachel	6	Junio	2023-11-06T00:00:00	2024-11-08T09:00:00	2	Temperatura media	22.1
42174	7	Sololá	710	Panajachel	8	Panajachel	6	Junio	2023-11-06T00:00:00	2024-11-08T09:00:00	4	Temperatura máxima	22.2
42175	7	Sololá	710	Panajachel	8	Panajachel	6	Junio	2023-11-06T00:00:00	2024-11-08T09:00:00	3	Temperatura mínima	21.3
42176	7	Sololá	710	Panajachel	8	Panajachel	6	Junio	2023-11-06T00:00:00	2024-11-08T09:00:00	5	Humedad	77
42177	7	Sololá	710	Panajachel	8	Panajachel	6	Junio	2023-11-06T00:00:00	2024-11-08T09:00:00	6	Velocidad del viento	0
42178	7	Sololá	710	Panajachel	8	Panajachel	6	Junio	2023-11-06T00:00:00	2024-11-08T09:00:00	7	Dirección del viento	0
42179	7	Sololá	710	Panajachel	8	Panajachel	6	Junio	2023-11-06T00:00:00	2024-11-08T09:00:00	1	Precipitación	0
42180	7	Sololá	710	Panajachel	8	Panajachel	6	Junio	2023-11-06T00:00:00	2024-11-08T09:00:00	8	Radiación solar	447
42181	7	Sololá	710	Panajachel	8	Panajachel	6	Junio	2023-11-06T00:00:00	2024-11-08T10:00:00	2	Temperatura media	22.7
42182	7	Sololá	710	Panajachel	8	Panajachel	6	Junio	2023-11-06T00:00:00	2024-11-08T10:00:00	4	Temperatura máxima	22.7
42183	7	Sololá	710	Panajachel	8	Panajachel	6	Junio	2023-11-06T00:00:00	2024-11-08T10:00:00	3	Temperatura mínima	22
42184	7	Sololá	710	Panajachel	8	Panajachel	6	Junio	2023-11-06T00:00:00	2024-11-08T10:00:00	5	Humedad	75
42185	7	Sololá	710	Panajachel	8	Panajachel	6	Junio	2023-11-06T00:00:00	2024-11-08T10:00:00	6	Velocidad del viento	0
42186	7	Sololá	710	Panajachel	8	Panajachel	6	Junio	2023-11-06T00:00:00	2024-11-08T10:00:00	7	Dirección del viento	0
42187	7	Sololá	710	Panajachel	8	Panajachel	6	Junio	2023-11-06T00:00:00	2024-11-08T10:00:00	1	Precipitación	0
42188	7	Sololá	710	Panajachel	8	Panajachel	6	Junio	2023-11-06T00:00:00	2024-11-08T10:00:00	8	Radiación solar	611
42189	7	Sololá	710	Panajachel	8	Panajachel	6	Junio	2023-11-06T00:00:00	2024-11-08T11:00:00	2	Temperatura media	23.8
42190	7	Sololá	710	Panajachel	8	Panajachel	6	Junio	2023-11-06T00:00:00	2024-11-08T11:00:00	4	Temperatura máxima	24.2
42191	7	Sololá	710	Panajachel	8	Panajachel	6	Junio	2023-11-06T00:00:00	2024-11-08T11:00:00	3	Temperatura mínima	22.7
42192	7	Sololá	710	Panajachel	8	Panajachel	6	Junio	2023-11-06T00:00:00	2024-11-08T11:00:00	5	Humedad	75
42193	7	Sololá	710	Panajachel	8	Panajachel	6	Junio	2023-11-06T00:00:00	2024-11-08T11:00:00	6	Velocidad del viento	0
42194	7	Sololá	710	Panajachel	8	Panajachel	6	Junio	2023-11-06T00:00:00	2024-11-08T11:00:00	7	Dirección del viento	0
42195	7	Sololá	710	Panajachel	8	Panajachel	6	Junio	2023-11-06T00:00:00	2024-11-08T11:00:00	1	Precipitación	0
42196	7	Sololá	710	Panajachel	8	Panajachel	6	Junio	2023-11-06T00:00:00	2024-11-08T11:00:00	8	Radiación solar	862
42197	7	Sololá	710	Panajachel	8	Panajachel	6	Junio	2023-11-06T00:00:00	2024-11-08T12:00:00	2	Temperatura media	23.9
42198	7	Sololá	710	Panajachel	8	Panajachel	6	Junio	2023-11-06T00:00:00	2024-11-08T12:00:00	4	Temperatura máxima	24.1
42199	7	Sololá	710	Panajachel	8	Panajachel	6	Junio	2023-11-06T00:00:00	2024-11-08T12:00:00	3	Temperatura mínima	23.1
42200	7	Sololá	710	Panajachel	8	Panajachel	6	Junio	2023-11-06T00:00:00	2024-11-08T12:00:00	5	Humedad	75
42201	7	Sololá	710	Panajachel	8	Panajachel	6	Junio	2023-11-06T00:00:00	2024-11-08T12:00:00	6	Velocidad del viento	0
42202	7	Sololá	710	Panajachel	8	Panajachel	6	Junio	2023-11-06T00:00:00	2024-11-08T12:00:00	7	Dirección del viento	0
42203	7	Sololá	710	Panajachel	8	Panajachel	6	Junio	2023-11-06T00:00:00	2024-11-08T12:00:00	1	Precipitación	0
42204	7	Sololá	710	Panajachel	8	Panajachel	6	Junio	2023-11-06T00:00:00	2024-11-08T12:00:00	8	Radiación solar	924
42205	7	Sololá	710	Panajachel	8	Panajachel	6	Junio	2023-11-06T00:00:00	2024-11-08T13:00:00	2	Temperatura media	25.2
42206	7	Sololá	710	Panajachel	8	Panajachel	6	Junio	2023-11-06T00:00:00	2024-11-08T13:00:00	4	Temperatura máxima	25.6
42207	7	Sololá	710	Panajachel	8	Panajachel	6	Junio	2023-11-06T00:00:00	2024-11-08T13:00:00	3	Temperatura mínima	23.8
42208	7	Sololá	710	Panajachel	8	Panajachel	6	Junio	2023-11-06T00:00:00	2024-11-08T13:00:00	5	Humedad	75
42209	7	Sololá	710	Panajachel	8	Panajachel	6	Junio	2023-11-06T00:00:00	2024-11-08T13:00:00	6	Velocidad del viento	1.6
42210	7	Sololá	710	Panajachel	8	Panajachel	6	Junio	2023-11-06T00:00:00	2024-11-08T13:00:00	7	Dirección del viento	1.61
42211	7	Sololá	710	Panajachel	8	Panajachel	6	Junio	2023-11-06T00:00:00	2024-11-08T13:00:00	1	Precipitación	0
42212	7	Sololá	710	Panajachel	8	Panajachel	6	Junio	2023-11-06T00:00:00	2024-11-08T13:00:00	8	Radiación solar	983
42213	7	Sololá	710	Panajachel	8	Panajachel	6	Junio	2023-11-06T00:00:00	2024-11-08T14:00:00	2	Temperatura media	25
42214	7	Sololá	710	Panajachel	8	Panajachel	6	Junio	2023-11-06T00:00:00	2024-11-08T14:00:00	4	Temperatura máxima	25.3
42215	7	Sololá	710	Panajachel	8	Panajachel	6	Junio	2023-11-06T00:00:00	2024-11-08T14:00:00	3	Temperatura mínima	24.8
42216	7	Sololá	710	Panajachel	8	Panajachel	6	Junio	2023-11-06T00:00:00	2024-11-08T14:00:00	5	Humedad	75
42217	7	Sololá	710	Panajachel	8	Panajachel	6	Junio	2023-11-06T00:00:00	2024-11-08T14:00:00	6	Velocidad del viento	0
42218	7	Sololá	710	Panajachel	8	Panajachel	6	Junio	2023-11-06T00:00:00	2024-11-08T14:00:00	7	Dirección del viento	0
42219	7	Sololá	710	Panajachel	8	Panajachel	6	Junio	2023-11-06T00:00:00	2024-11-08T14:00:00	1	Precipitación	0
42220	7	Sololá	710	Panajachel	8	Panajachel	6	Junio	2023-11-06T00:00:00	2024-11-08T14:00:00	8	Radiación solar	787
42221	7	Sololá	710	Panajachel	8	Panajachel	6	Junio	2023-11-06T00:00:00	2024-11-08T15:00:00	2	Temperatura media	25.9
42222	7	Sololá	710	Panajachel	8	Panajachel	6	Junio	2023-11-06T00:00:00	2024-11-08T15:00:00	4	Temperatura máxima	25.9
42223	7	Sololá	710	Panajachel	8	Panajachel	6	Junio	2023-11-06T00:00:00	2024-11-08T15:00:00	3	Temperatura mínima	25
42224	7	Sololá	710	Panajachel	8	Panajachel	6	Junio	2023-11-06T00:00:00	2024-11-08T15:00:00	5	Humedad	75
42225	7	Sololá	710	Panajachel	8	Panajachel	6	Junio	2023-11-06T00:00:00	2024-11-08T15:00:00	6	Velocidad del viento	0
42226	7	Sololá	710	Panajachel	8	Panajachel	6	Junio	2023-11-06T00:00:00	2024-11-08T15:00:00	7	Dirección del viento	0
42227	7	Sololá	710	Panajachel	8	Panajachel	6	Junio	2023-11-06T00:00:00	2024-11-08T15:00:00	1	Precipitación	0
42228	7	Sololá	710	Panajachel	8	Panajachel	6	Junio	2023-11-06T00:00:00	2024-11-08T15:00:00	8	Radiación solar	652
42229	7	Sololá	710	Panajachel	8	Panajachel	6	Junio	2023-11-06T00:00:00	2024-11-08T16:00:00	2	Temperatura media	23.9
42230	7	Sololá	710	Panajachel	8	Panajachel	6	Junio	2023-11-06T00:00:00	2024-11-08T16:00:00	4	Temperatura máxima	26.1
42231	7	Sololá	710	Panajachel	8	Panajachel	6	Junio	2023-11-06T00:00:00	2024-11-08T16:00:00	3	Temperatura mínima	23.7
42232	7	Sololá	710	Panajachel	8	Panajachel	6	Junio	2023-11-06T00:00:00	2024-11-08T16:00:00	5	Humedad	82
42233	7	Sololá	710	Panajachel	8	Panajachel	6	Junio	2023-11-06T00:00:00	2024-11-08T16:00:00	6	Velocidad del viento	1.6
42234	7	Sololá	710	Panajachel	8	Panajachel	6	Junio	2023-11-06T00:00:00	2024-11-08T16:00:00	7	Dirección del viento	1.61
42235	7	Sololá	710	Panajachel	8	Panajachel	6	Junio	2023-11-06T00:00:00	2024-11-08T16:00:00	1	Precipitación	0
42236	7	Sololá	710	Panajachel	8	Panajachel	6	Junio	2023-11-06T00:00:00	2024-11-08T16:00:00	8	Radiación solar	377
42237	7	Sololá	710	Panajachel	8	Panajachel	6	Junio	2023-11-06T00:00:00	2024-11-08T17:00:00	2	Temperatura media	23.7
42238	7	Sololá	710	Panajachel	8	Panajachel	6	Junio	2023-11-06T00:00:00	2024-11-08T17:00:00	4	Temperatura máxima	24.2
42239	7	Sololá	710	Panajachel	8	Panajachel	6	Junio	2023-11-06T00:00:00	2024-11-08T17:00:00	3	Temperatura mínima	23.7
42240	7	Sololá	710	Panajachel	8	Panajachel	6	Junio	2023-11-06T00:00:00	2024-11-08T17:00:00	5	Humedad	82
42241	7	Sololá	710	Panajachel	8	Panajachel	6	Junio	2023-11-06T00:00:00	2024-11-08T17:00:00	6	Velocidad del viento	0
42242	7	Sololá	710	Panajachel	8	Panajachel	6	Junio	2023-11-06T00:00:00	2024-11-08T17:00:00	7	Dirección del viento	0
42243	7	Sololá	710	Panajachel	8	Panajachel	6	Junio	2023-11-06T00:00:00	2024-11-08T17:00:00	1	Precipitación	0
42244	7	Sololá	710	Panajachel	8	Panajachel	6	Junio	2023-11-06T00:00:00	2024-11-08T17:00:00	8	Radiación solar	156
42245	7	Sololá	710	Panajachel	8	Panajachel	6	Junio	2023-11-06T00:00:00	2024-11-08T18:00:00	2	Temperatura media	22.9
42246	7	Sololá	710	Panajachel	8	Panajachel	6	Junio	2023-11-06T00:00:00	2024-11-08T18:00:00	4	Temperatura máxima	23.8
42247	7	Sololá	710	Panajachel	8	Panajachel	6	Junio	2023-11-06T00:00:00	2024-11-08T18:00:00	3	Temperatura mínima	22.9
42248	7	Sololá	710	Panajachel	8	Panajachel	6	Junio	2023-11-06T00:00:00	2024-11-08T18:00:00	5	Humedad	86
42249	7	Sololá	710	Panajachel	8	Panajachel	6	Junio	2023-11-06T00:00:00	2024-11-08T18:00:00	6	Velocidad del viento	0
42250	7	Sololá	710	Panajachel	8	Panajachel	6	Junio	2023-11-06T00:00:00	2024-11-08T18:00:00	7	Dirección del viento	0
42251	7	Sololá	710	Panajachel	8	Panajachel	6	Junio	2023-11-06T00:00:00	2024-11-08T18:00:00	1	Precipitación	0
42252	7	Sololá	710	Panajachel	8	Panajachel	6	Junio	2023-11-06T00:00:00	2024-11-08T18:00:00	8	Radiación solar	82
42253	7	Sololá	710	Panajachel	8	Panajachel	6	Junio	2023-11-06T00:00:00	2024-11-08T19:00:00	2	Temperatura media	22.2
42254	7	Sololá	710	Panajachel	8	Panajachel	6	Junio	2023-11-06T00:00:00	2024-11-08T19:00:00	4	Temperatura máxima	22.9
42255	7	Sololá	710	Panajachel	8	Panajachel	6	Junio	2023-11-06T00:00:00	2024-11-08T19:00:00	3	Temperatura mínima	22.2
42256	7	Sololá	710	Panajachel	8	Panajachel	6	Junio	2023-11-06T00:00:00	2024-11-08T19:00:00	5	Humedad	88
42257	7	Sololá	710	Panajachel	8	Panajachel	6	Junio	2023-11-06T00:00:00	2024-11-08T19:00:00	6	Velocidad del viento	0
42258	7	Sololá	710	Panajachel	8	Panajachel	6	Junio	2023-11-06T00:00:00	2024-11-08T19:00:00	7	Dirección del viento	0
42259	7	Sololá	710	Panajachel	8	Panajachel	6	Junio	2023-11-06T00:00:00	2024-11-08T19:00:00	1	Precipitación	0
42260	7	Sololá	710	Panajachel	8	Panajachel	6	Junio	2023-11-06T00:00:00	2024-11-08T19:00:00	8	Radiación solar	0
42261	7	Sololá	710	Panajachel	8	Panajachel	6	Junio	2023-11-06T00:00:00	2024-11-08T20:00:00	2	Temperatura media	21.8
42262	7	Sololá	710	Panajachel	8	Panajachel	6	Junio	2023-11-06T00:00:00	2024-11-08T20:00:00	4	Temperatura máxima	22.2
42263	7	Sololá	710	Panajachel	8	Panajachel	6	Junio	2023-11-06T00:00:00	2024-11-08T20:00:00	3	Temperatura mínima	21.8
42264	7	Sololá	710	Panajachel	8	Panajachel	6	Junio	2023-11-06T00:00:00	2024-11-08T20:00:00	5	Humedad	90
42265	7	Sololá	710	Panajachel	8	Panajachel	6	Junio	2023-11-06T00:00:00	2024-11-08T20:00:00	6	Velocidad del viento	0
42266	7	Sololá	710	Panajachel	8	Panajachel	6	Junio	2023-11-06T00:00:00	2024-11-08T20:00:00	7	Dirección del viento	0
42267	7	Sololá	710	Panajachel	8	Panajachel	6	Junio	2023-11-06T00:00:00	2024-11-08T20:00:00	1	Precipitación	0
42268	7	Sololá	710	Panajachel	8	Panajachel	6	Junio	2023-11-06T00:00:00	2024-11-08T20:00:00	8	Radiación solar	0
42269	7	Sololá	710	Panajachel	8	Panajachel	6	Junio	2023-11-06T00:00:00	2024-11-08T21:00:00	2	Temperatura media	21.6
42270	7	Sololá	710	Panajachel	8	Panajachel	6	Junio	2023-11-06T00:00:00	2024-11-08T21:00:00	4	Temperatura máxima	21.8
42271	7	Sololá	710	Panajachel	8	Panajachel	6	Junio	2023-11-06T00:00:00	2024-11-08T21:00:00	3	Temperatura mínima	21.6
42272	7	Sololá	710	Panajachel	8	Panajachel	6	Junio	2023-11-06T00:00:00	2024-11-08T21:00:00	5	Humedad	87
42273	7	Sololá	710	Panajachel	8	Panajachel	6	Junio	2023-11-06T00:00:00	2024-11-08T21:00:00	6	Velocidad del viento	0
42274	7	Sololá	710	Panajachel	8	Panajachel	6	Junio	2023-11-06T00:00:00	2024-11-08T21:00:00	7	Dirección del viento	0
42275	7	Sololá	710	Panajachel	8	Panajachel	6	Junio	2023-11-06T00:00:00	2024-11-08T21:00:00	1	Precipitación	0
42276	7	Sololá	710	Panajachel	8	Panajachel	6	Junio	2023-11-06T00:00:00	2024-11-08T21:00:00	8	Radiación solar	0
42277	7	Sololá	710	Panajachel	8	Panajachel	6	Junio	2023-11-06T00:00:00	2024-11-08T22:00:00	2	Temperatura media	20.6
42278	7	Sololá	710	Panajachel	8	Panajachel	6	Junio	2023-11-06T00:00:00	2024-11-08T22:00:00	4	Temperatura máxima	21.7
42279	7	Sololá	710	Panajachel	8	Panajachel	6	Junio	2023-11-06T00:00:00	2024-11-08T22:00:00	3	Temperatura mínima	20.6
42280	7	Sololá	710	Panajachel	8	Panajachel	6	Junio	2023-11-06T00:00:00	2024-11-08T22:00:00	5	Humedad	84
42281	7	Sololá	710	Panajachel	8	Panajachel	6	Junio	2023-11-06T00:00:00	2024-11-08T22:00:00	6	Velocidad del viento	0
42282	7	Sololá	710	Panajachel	8	Panajachel	6	Junio	2023-11-06T00:00:00	2024-11-08T22:00:00	7	Dirección del viento	0
42283	7	Sololá	710	Panajachel	8	Panajachel	6	Junio	2023-11-06T00:00:00	2024-11-08T22:00:00	1	Precipitación	0
42284	7	Sololá	710	Panajachel	8	Panajachel	6	Junio	2023-11-06T00:00:00	2024-11-08T22:00:00	8	Radiación solar	0
42285	7	Sololá	710	Panajachel	8	Panajachel	6	Junio	2023-11-06T00:00:00	2024-11-08T23:00:00	2	Temperatura media	19.8
42286	7	Sololá	710	Panajachel	8	Panajachel	6	Junio	2023-11-06T00:00:00	2024-11-08T23:00:00	4	Temperatura máxima	20.6
42287	7	Sololá	710	Panajachel	8	Panajachel	6	Junio	2023-11-06T00:00:00	2024-11-08T23:00:00	3	Temperatura mínima	19.8
42288	7	Sololá	710	Panajachel	8	Panajachel	6	Junio	2023-11-06T00:00:00	2024-11-08T23:00:00	5	Humedad	85
42289	7	Sololá	710	Panajachel	8	Panajachel	6	Junio	2023-11-06T00:00:00	2024-11-08T23:00:00	6	Velocidad del viento	0
42290	7	Sololá	710	Panajachel	8	Panajachel	6	Junio	2023-11-06T00:00:00	2024-11-08T23:00:00	7	Dirección del viento	0
42291	7	Sololá	710	Panajachel	8	Panajachel	6	Junio	2023-11-06T00:00:00	2024-11-08T23:00:00	1	Precipitación	0
42292	7	Sololá	710	Panajachel	8	Panajachel	6	Junio	2023-11-06T00:00:00	2024-11-08T23:00:00	8	Radiación solar	0
42293	7	Sololá	710	Panajachel	8	Panajachel	6	Junio	2023-12-06T00:00:00	2024-11-08T00:00:00	2	Temperatura media	18.8
42294	7	Sololá	710	Panajachel	8	Panajachel	6	Junio	2023-12-06T00:00:00	2024-11-08T00:00:00	4	Temperatura máxima	19.8
42295	7	Sololá	710	Panajachel	8	Panajachel	6	Junio	2023-12-06T00:00:00	2024-11-08T00:00:00	3	Temperatura mínima	18.8
42296	7	Sololá	710	Panajachel	8	Panajachel	6	Junio	2023-12-06T00:00:00	2024-11-08T00:00:00	5	Humedad	84
42297	7	Sololá	710	Panajachel	8	Panajachel	6	Junio	2023-12-06T00:00:00	2024-11-08T00:00:00	6	Velocidad del viento	0
42298	7	Sololá	710	Panajachel	8	Panajachel	6	Junio	2023-12-06T00:00:00	2024-11-08T00:00:00	7	Dirección del viento	0
42299	7	Sololá	710	Panajachel	8	Panajachel	6	Junio	2023-12-06T00:00:00	2024-11-08T00:00:00	1	Precipitación	0
42300	7	Sololá	710	Panajachel	8	Panajachel	6	Junio	2023-12-06T00:00:00	2024-11-08T00:00:00	8	Radiación solar	0
42301	7	Sololá	710	Panajachel	8	Panajachel	6	Junio	2023-12-06T00:00:00	2024-11-08T01:00:00	2	Temperatura media	18.6
42302	7	Sololá	710	Panajachel	8	Panajachel	6	Junio	2023-12-06T00:00:00	2024-11-08T01:00:00	4	Temperatura máxima	18.8
42303	7	Sololá	710	Panajachel	8	Panajachel	6	Junio	2023-12-06T00:00:00	2024-11-08T01:00:00	3	Temperatura mínima	18.6
42304	7	Sololá	710	Panajachel	8	Panajachel	6	Junio	2023-12-06T00:00:00	2024-11-08T01:00:00	5	Humedad	84
42305	7	Sololá	710	Panajachel	8	Panajachel	6	Junio	2023-12-06T00:00:00	2024-11-08T01:00:00	6	Velocidad del viento	0
42306	7	Sololá	710	Panajachel	8	Panajachel	6	Junio	2023-12-06T00:00:00	2024-11-08T01:00:00	7	Dirección del viento	0
42307	7	Sololá	710	Panajachel	8	Panajachel	6	Junio	2023-12-06T00:00:00	2024-11-08T01:00:00	1	Precipitación	0
42308	7	Sololá	710	Panajachel	8	Panajachel	6	Junio	2023-12-06T00:00:00	2024-11-08T01:00:00	8	Radiación solar	0
42309	7	Sololá	710	Panajachel	8	Panajachel	6	Junio	2023-12-06T00:00:00	2024-11-08T02:00:00	2	Temperatura media	18.3
42310	7	Sololá	710	Panajachel	8	Panajachel	6	Junio	2023-12-06T00:00:00	2024-11-08T02:00:00	4	Temperatura máxima	18.6
42311	7	Sololá	710	Panajachel	8	Panajachel	6	Junio	2023-12-06T00:00:00	2024-11-08T02:00:00	3	Temperatura mínima	18.2
42312	7	Sololá	710	Panajachel	8	Panajachel	6	Junio	2023-12-06T00:00:00	2024-11-08T02:00:00	5	Humedad	84
42313	7	Sololá	710	Panajachel	8	Panajachel	6	Junio	2023-12-06T00:00:00	2024-11-08T02:00:00	6	Velocidad del viento	0
42314	7	Sololá	710	Panajachel	8	Panajachel	6	Junio	2023-12-06T00:00:00	2024-11-08T02:00:00	7	Dirección del viento	0
42315	7	Sololá	710	Panajachel	8	Panajachel	6	Junio	2023-12-06T00:00:00	2024-11-08T02:00:00	1	Precipitación	0
42316	7	Sololá	710	Panajachel	8	Panajachel	6	Junio	2023-12-06T00:00:00	2024-11-08T02:00:00	8	Radiación solar	0
42317	7	Sololá	710	Panajachel	8	Panajachel	6	Junio	2023-12-06T00:00:00	2024-11-08T03:00:00	2	Temperatura media	17.8
42318	7	Sololá	710	Panajachel	8	Panajachel	6	Junio	2023-12-06T00:00:00	2024-11-08T03:00:00	4	Temperatura máxima	18.6
42319	7	Sololá	710	Panajachel	8	Panajachel	6	Junio	2023-12-06T00:00:00	2024-11-08T03:00:00	3	Temperatura mínima	17.8
42320	7	Sololá	710	Panajachel	8	Panajachel	6	Junio	2023-12-06T00:00:00	2024-11-08T03:00:00	5	Humedad	85
42321	7	Sololá	710	Panajachel	8	Panajachel	6	Junio	2023-12-06T00:00:00	2024-11-08T03:00:00	6	Velocidad del viento	0
42322	7	Sololá	710	Panajachel	8	Panajachel	6	Junio	2023-12-06T00:00:00	2024-11-08T03:00:00	7	Dirección del viento	0
42323	7	Sololá	710	Panajachel	8	Panajachel	6	Junio	2023-12-06T00:00:00	2024-11-08T03:00:00	1	Precipitación	0
42324	7	Sololá	710	Panajachel	8	Panajachel	6	Junio	2023-12-06T00:00:00	2024-11-08T03:00:00	8	Radiación solar	0
42325	7	Sololá	710	Panajachel	8	Panajachel	6	Junio	2023-12-06T00:00:00	2024-11-08T04:00:00	2	Temperatura media	17.8
42326	7	Sololá	710	Panajachel	8	Panajachel	6	Junio	2023-12-06T00:00:00	2024-11-08T04:00:00	4	Temperatura máxima	17.8
42327	7	Sololá	710	Panajachel	8	Panajachel	6	Junio	2023-12-06T00:00:00	2024-11-08T04:00:00	3	Temperatura mínima	17.6
42328	7	Sololá	710	Panajachel	8	Panajachel	6	Junio	2023-12-06T00:00:00	2024-11-08T04:00:00	5	Humedad	86
42329	7	Sololá	710	Panajachel	8	Panajachel	6	Junio	2023-12-06T00:00:00	2024-11-08T04:00:00	6	Velocidad del viento	0
42330	7	Sololá	710	Panajachel	8	Panajachel	6	Junio	2023-12-06T00:00:00	2024-11-08T04:00:00	7	Dirección del viento	0
42331	7	Sololá	710	Panajachel	8	Panajachel	6	Junio	2023-12-06T00:00:00	2024-11-08T04:00:00	1	Precipitación	0
42332	7	Sololá	710	Panajachel	8	Panajachel	6	Junio	2023-12-06T00:00:00	2024-11-08T04:00:00	8	Radiación solar	0
42333	7	Sololá	710	Panajachel	8	Panajachel	6	Junio	2023-12-06T00:00:00	2024-11-08T05:00:00	2	Temperatura media	17.6
42334	7	Sololá	710	Panajachel	8	Panajachel	6	Junio	2023-12-06T00:00:00	2024-11-08T05:00:00	4	Temperatura máxima	17.8
42335	7	Sololá	710	Panajachel	8	Panajachel	6	Junio	2023-12-06T00:00:00	2024-11-08T05:00:00	3	Temperatura mínima	17.5
42336	7	Sololá	710	Panajachel	8	Panajachel	6	Junio	2023-12-06T00:00:00	2024-11-08T05:00:00	5	Humedad	86
42337	7	Sololá	710	Panajachel	8	Panajachel	6	Junio	2023-12-06T00:00:00	2024-11-08T05:00:00	6	Velocidad del viento	0
42338	7	Sololá	710	Panajachel	8	Panajachel	6	Junio	2023-12-06T00:00:00	2024-11-08T05:00:00	7	Dirección del viento	0
42339	7	Sololá	710	Panajachel	8	Panajachel	6	Junio	2023-12-06T00:00:00	2024-11-08T05:00:00	1	Precipitación	0
42340	7	Sololá	710	Panajachel	8	Panajachel	6	Junio	2023-12-06T00:00:00	2024-11-08T05:00:00	8	Radiación solar	0
42341	7	Sololá	710	Panajachel	8	Panajachel	6	Junio	2023-12-06T00:00:00	2024-11-08T06:00:00	2	Temperatura media	17.8
42342	7	Sololá	710	Panajachel	8	Panajachel	6	Junio	2023-12-06T00:00:00	2024-11-08T06:00:00	4	Temperatura máxima	17.8
42343	7	Sololá	710	Panajachel	8	Panajachel	6	Junio	2023-12-06T00:00:00	2024-11-08T06:00:00	3	Temperatura mínima	17.5
42344	7	Sololá	710	Panajachel	8	Panajachel	6	Junio	2023-12-06T00:00:00	2024-11-08T06:00:00	5	Humedad	85
42345	7	Sololá	710	Panajachel	8	Panajachel	6	Junio	2023-12-06T00:00:00	2024-11-08T06:00:00	6	Velocidad del viento	0
42346	7	Sololá	710	Panajachel	8	Panajachel	6	Junio	2023-12-06T00:00:00	2024-11-08T06:00:00	7	Dirección del viento	0
42347	7	Sololá	710	Panajachel	8	Panajachel	6	Junio	2023-12-06T00:00:00	2024-11-08T06:00:00	1	Precipitación	0
42348	7	Sololá	710	Panajachel	8	Panajachel	6	Junio	2023-12-06T00:00:00	2024-11-08T06:00:00	8	Radiación solar	7
42349	7	Sololá	710	Panajachel	8	Panajachel	6	Junio	2023-12-06T00:00:00	2024-11-08T07:00:00	2	Temperatura media	20
42350	7	Sololá	710	Panajachel	8	Panajachel	6	Junio	2023-12-06T00:00:00	2024-11-08T07:00:00	4	Temperatura máxima	20
42351	7	Sololá	710	Panajachel	8	Panajachel	6	Junio	2023-12-06T00:00:00	2024-11-08T07:00:00	3	Temperatura mínima	17.7
42352	7	Sololá	710	Panajachel	8	Panajachel	6	Junio	2023-12-06T00:00:00	2024-11-08T07:00:00	5	Humedad	80
42353	7	Sololá	710	Panajachel	8	Panajachel	6	Junio	2023-12-06T00:00:00	2024-11-08T07:00:00	6	Velocidad del viento	0
42354	7	Sololá	710	Panajachel	8	Panajachel	6	Junio	2023-12-06T00:00:00	2024-11-08T07:00:00	7	Dirección del viento	0
42355	7	Sololá	710	Panajachel	8	Panajachel	6	Junio	2023-12-06T00:00:00	2024-11-08T07:00:00	1	Precipitación	0
42356	7	Sololá	710	Panajachel	8	Panajachel	6	Junio	2023-12-06T00:00:00	2024-11-08T07:00:00	8	Radiación solar	126
42357	7	Sololá	710	Panajachel	8	Panajachel	6	Junio	2023-12-06T00:00:00	2024-11-08T08:00:00	2	Temperatura media	21.9
42358	7	Sololá	710	Panajachel	8	Panajachel	6	Junio	2023-12-06T00:00:00	2024-11-08T08:00:00	4	Temperatura máxima	22.2
42359	7	Sololá	710	Panajachel	8	Panajachel	6	Junio	2023-12-06T00:00:00	2024-11-08T08:00:00	3	Temperatura mínima	20
42360	7	Sololá	710	Panajachel	8	Panajachel	6	Junio	2023-12-06T00:00:00	2024-11-08T08:00:00	5	Humedad	82
42361	7	Sololá	710	Panajachel	8	Panajachel	6	Junio	2023-12-06T00:00:00	2024-11-08T08:00:00	6	Velocidad del viento	0
42362	7	Sololá	710	Panajachel	8	Panajachel	6	Junio	2023-12-06T00:00:00	2024-11-08T08:00:00	7	Dirección del viento	0
42363	7	Sololá	710	Panajachel	8	Panajachel	6	Junio	2023-12-06T00:00:00	2024-11-08T08:00:00	1	Precipitación	0
42364	7	Sololá	710	Panajachel	8	Panajachel	6	Junio	2023-12-06T00:00:00	2024-11-08T08:00:00	8	Radiación solar	333
42365	7	Sololá	710	Panajachel	8	Panajachel	6	Junio	2023-12-06T00:00:00	2024-11-08T09:00:00	2	Temperatura media	22.8
42366	7	Sololá	710	Panajachel	8	Panajachel	6	Junio	2023-12-06T00:00:00	2024-11-08T09:00:00	4	Temperatura máxima	23
42367	7	Sololá	710	Panajachel	8	Panajachel	6	Junio	2023-12-06T00:00:00	2024-11-08T09:00:00	3	Temperatura mínima	21.7
42368	7	Sololá	710	Panajachel	8	Panajachel	6	Junio	2023-12-06T00:00:00	2024-11-08T09:00:00	5	Humedad	78
42369	7	Sololá	710	Panajachel	8	Panajachel	6	Junio	2023-12-06T00:00:00	2024-11-08T09:00:00	6	Velocidad del viento	0
42370	7	Sololá	710	Panajachel	8	Panajachel	6	Junio	2023-12-06T00:00:00	2024-11-08T09:00:00	7	Dirección del viento	0
42371	7	Sololá	710	Panajachel	8	Panajachel	6	Junio	2023-12-06T00:00:00	2024-11-08T09:00:00	1	Precipitación	0
42372	7	Sololá	710	Panajachel	8	Panajachel	6	Junio	2023-12-06T00:00:00	2024-11-08T09:00:00	8	Radiación solar	547
42373	7	Sololá	710	Panajachel	8	Panajachel	6	Junio	2023-12-06T00:00:00	2024-11-08T10:00:00	2	Temperatura media	25.3
42374	7	Sololá	710	Panajachel	8	Panajachel	6	Junio	2023-12-06T00:00:00	2024-11-08T10:00:00	4	Temperatura máxima	25.3
42375	7	Sololá	710	Panajachel	8	Panajachel	6	Junio	2023-12-06T00:00:00	2024-11-08T10:00:00	3	Temperatura mínima	22.8
42376	7	Sololá	710	Panajachel	8	Panajachel	6	Junio	2023-12-06T00:00:00	2024-11-08T10:00:00	5	Humedad	72
42377	7	Sololá	710	Panajachel	8	Panajachel	6	Junio	2023-12-06T00:00:00	2024-11-08T10:00:00	6	Velocidad del viento	0
42378	7	Sololá	710	Panajachel	8	Panajachel	6	Junio	2023-12-06T00:00:00	2024-11-08T10:00:00	7	Dirección del viento	0
42379	7	Sololá	710	Panajachel	8	Panajachel	6	Junio	2023-12-06T00:00:00	2024-11-08T10:00:00	1	Precipitación	0
42380	7	Sololá	710	Panajachel	8	Panajachel	6	Junio	2023-12-06T00:00:00	2024-11-08T10:00:00	8	Radiación solar	709
42381	7	Sololá	710	Panajachel	8	Panajachel	6	Junio	2023-12-06T00:00:00	2024-11-08T11:00:00	2	Temperatura media	26.4
42382	7	Sololá	710	Panajachel	8	Panajachel	6	Junio	2023-12-06T00:00:00	2024-11-08T11:00:00	4	Temperatura máxima	26.5
42383	7	Sololá	710	Panajachel	8	Panajachel	6	Junio	2023-12-06T00:00:00	2024-11-08T11:00:00	3	Temperatura mínima	25.3
42384	7	Sololá	710	Panajachel	8	Panajachel	6	Junio	2023-12-06T00:00:00	2024-11-08T11:00:00	5	Humedad	67
42385	7	Sololá	710	Panajachel	8	Panajachel	6	Junio	2023-12-06T00:00:00	2024-11-08T11:00:00	6	Velocidad del viento	0
42386	7	Sololá	710	Panajachel	8	Panajachel	6	Junio	2023-12-06T00:00:00	2024-11-08T11:00:00	7	Dirección del viento	0
42387	7	Sololá	710	Panajachel	8	Panajachel	6	Junio	2023-12-06T00:00:00	2024-11-08T11:00:00	1	Precipitación	0
42388	7	Sololá	710	Panajachel	8	Panajachel	6	Junio	2023-12-06T00:00:00	2024-11-08T11:00:00	8	Radiación solar	841
42389	7	Sololá	710	Panajachel	8	Panajachel	6	Junio	2023-12-06T00:00:00	2024-11-08T12:00:00	2	Temperatura media	25.7
42390	7	Sololá	710	Panajachel	8	Panajachel	6	Junio	2023-12-06T00:00:00	2024-11-08T12:00:00	4	Temperatura máxima	27.1
42391	7	Sololá	710	Panajachel	8	Panajachel	6	Junio	2023-12-06T00:00:00	2024-11-08T12:00:00	3	Temperatura mínima	25.7
42392	7	Sololá	710	Panajachel	8	Panajachel	6	Junio	2023-12-06T00:00:00	2024-11-08T12:00:00	5	Humedad	70
42393	7	Sololá	710	Panajachel	8	Panajachel	6	Junio	2023-12-06T00:00:00	2024-11-08T12:00:00	6	Velocidad del viento	1.6
42394	7	Sololá	710	Panajachel	8	Panajachel	6	Junio	2023-12-06T00:00:00	2024-11-08T12:00:00	7	Dirección del viento	1.61
42395	7	Sololá	710	Panajachel	8	Panajachel	6	Junio	2023-12-06T00:00:00	2024-11-08T12:00:00	1	Precipitación	0
42396	7	Sololá	710	Panajachel	8	Panajachel	6	Junio	2023-12-06T00:00:00	2024-11-08T12:00:00	8	Radiación solar	917
42397	7	Sololá	710	Panajachel	8	Panajachel	6	Junio	2023-12-06T00:00:00	2024-11-08T13:00:00	2	Temperatura media	26.4
42398	7	Sololá	710	Panajachel	8	Panajachel	6	Junio	2023-12-06T00:00:00	2024-11-08T13:00:00	4	Temperatura máxima	26.6
42399	7	Sololá	710	Panajachel	8	Panajachel	6	Junio	2023-12-06T00:00:00	2024-11-08T13:00:00	3	Temperatura mínima	25.6
42400	7	Sololá	710	Panajachel	8	Panajachel	6	Junio	2023-12-06T00:00:00	2024-11-08T13:00:00	5	Humedad	72
42401	7	Sololá	710	Panajachel	8	Panajachel	6	Junio	2023-12-06T00:00:00	2024-11-08T13:00:00	6	Velocidad del viento	1.6
42402	7	Sololá	710	Panajachel	8	Panajachel	6	Junio	2023-12-06T00:00:00	2024-11-08T13:00:00	7	Dirección del viento	1.61
42403	7	Sololá	710	Panajachel	8	Panajachel	6	Junio	2023-12-06T00:00:00	2024-11-08T13:00:00	1	Precipitación	0
42404	7	Sololá	710	Panajachel	8	Panajachel	6	Junio	2023-12-06T00:00:00	2024-11-08T13:00:00	8	Radiación solar	941
42405	7	Sololá	710	Panajachel	8	Panajachel	6	Junio	2023-12-06T00:00:00	2024-11-08T14:00:00	2	Temperatura media	26.3
42406	7	Sololá	710	Panajachel	8	Panajachel	6	Junio	2023-12-06T00:00:00	2024-11-08T14:00:00	4	Temperatura máxima	26.4
42407	7	Sololá	710	Panajachel	8	Panajachel	6	Junio	2023-12-06T00:00:00	2024-11-08T14:00:00	3	Temperatura mínima	25.6
42408	7	Sololá	710	Panajachel	8	Panajachel	6	Junio	2023-12-06T00:00:00	2024-11-08T14:00:00	5	Humedad	77
42409	7	Sololá	710	Panajachel	8	Panajachel	6	Junio	2023-12-06T00:00:00	2024-11-08T14:00:00	6	Velocidad del viento	1.6
42410	7	Sololá	710	Panajachel	8	Panajachel	6	Junio	2023-12-06T00:00:00	2024-11-08T14:00:00	7	Dirección del viento	1.61
42411	7	Sololá	710	Panajachel	8	Panajachel	6	Junio	2023-12-06T00:00:00	2024-11-08T14:00:00	1	Precipitación	0
42412	7	Sololá	710	Panajachel	8	Panajachel	6	Junio	2023-12-06T00:00:00	2024-11-08T14:00:00	8	Radiación solar	850
42413	7	Sololá	710	Panajachel	8	Panajachel	6	Junio	2023-12-06T00:00:00	2024-11-08T15:00:00	2	Temperatura media	25.6
42414	7	Sololá	710	Panajachel	8	Panajachel	6	Junio	2023-12-06T00:00:00	2024-11-08T15:00:00	4	Temperatura máxima	26.3
42415	7	Sololá	710	Panajachel	8	Panajachel	6	Junio	2023-12-06T00:00:00	2024-11-08T15:00:00	3	Temperatura mínima	24.6
42416	7	Sololá	710	Panajachel	8	Panajachel	6	Junio	2023-12-06T00:00:00	2024-11-08T15:00:00	5	Humedad	81
42417	7	Sololá	710	Panajachel	8	Panajachel	6	Junio	2023-12-06T00:00:00	2024-11-08T15:00:00	6	Velocidad del viento	1.6
42418	7	Sololá	710	Panajachel	8	Panajachel	6	Junio	2023-12-06T00:00:00	2024-11-08T15:00:00	7	Dirección del viento	1.61
42419	7	Sololá	710	Panajachel	8	Panajachel	6	Junio	2023-12-06T00:00:00	2024-11-08T15:00:00	1	Precipitación	0
42420	7	Sololá	710	Panajachel	8	Panajachel	6	Junio	2023-12-06T00:00:00	2024-11-08T15:00:00	8	Radiación solar	421
42421	7	Sololá	710	Panajachel	8	Panajachel	6	Junio	2023-12-06T00:00:00	2024-11-08T16:00:00	2	Temperatura media	24.1
42422	7	Sololá	710	Panajachel	8	Panajachel	6	Junio	2023-12-06T00:00:00	2024-11-08T16:00:00	4	Temperatura máxima	25.6
42423	7	Sololá	710	Panajachel	8	Panajachel	6	Junio	2023-12-06T00:00:00	2024-11-08T16:00:00	3	Temperatura mínima	24.1
42424	7	Sololá	710	Panajachel	8	Panajachel	6	Junio	2023-12-06T00:00:00	2024-11-08T16:00:00	5	Humedad	86
42425	7	Sololá	710	Panajachel	8	Panajachel	6	Junio	2023-12-06T00:00:00	2024-11-08T16:00:00	6	Velocidad del viento	1.6
42426	7	Sololá	710	Panajachel	8	Panajachel	6	Junio	2023-12-06T00:00:00	2024-11-08T16:00:00	7	Dirección del viento	1.61
42427	7	Sololá	710	Panajachel	8	Panajachel	6	Junio	2023-12-06T00:00:00	2024-11-08T16:00:00	1	Precipitación	0
42428	7	Sololá	710	Panajachel	8	Panajachel	6	Junio	2023-12-06T00:00:00	2024-11-08T16:00:00	8	Radiación solar	310
42429	7	Sololá	710	Panajachel	8	Panajachel	6	Junio	2023-12-06T00:00:00	2024-11-08T17:00:00	2	Temperatura media	23.1
42430	7	Sololá	710	Panajachel	8	Panajachel	6	Junio	2023-12-06T00:00:00	2024-11-08T17:00:00	4	Temperatura máxima	24.1
42431	7	Sololá	710	Panajachel	8	Panajachel	6	Junio	2023-12-06T00:00:00	2024-11-08T17:00:00	3	Temperatura mínima	22.9
42432	7	Sololá	710	Panajachel	8	Panajachel	6	Junio	2023-12-06T00:00:00	2024-11-08T17:00:00	5	Humedad	86
42433	7	Sololá	710	Panajachel	8	Panajachel	6	Junio	2023-12-06T00:00:00	2024-11-08T17:00:00	6	Velocidad del viento	1.6
42434	7	Sololá	710	Panajachel	8	Panajachel	6	Junio	2023-12-06T00:00:00	2024-11-08T17:00:00	7	Dirección del viento	1.61
42435	7	Sololá	710	Panajachel	8	Panajachel	6	Junio	2023-12-06T00:00:00	2024-11-08T17:00:00	1	Precipitación	0
42436	7	Sololá	710	Panajachel	8	Panajachel	6	Junio	2023-12-06T00:00:00	2024-11-08T17:00:00	8	Radiación solar	104
42437	7	Sololá	710	Panajachel	8	Panajachel	6	Junio	2023-12-06T00:00:00	2024-11-08T18:00:00	2	Temperatura media	21
42438	7	Sololá	710	Panajachel	8	Panajachel	6	Junio	2023-12-06T00:00:00	2024-11-08T18:00:00	4	Temperatura máxima	23.2
42439	7	Sololá	710	Panajachel	8	Panajachel	6	Junio	2023-12-06T00:00:00	2024-11-08T18:00:00	3	Temperatura mínima	21
42440	7	Sololá	710	Panajachel	8	Panajachel	6	Junio	2023-12-06T00:00:00	2024-11-08T18:00:00	5	Humedad	95
42441	7	Sololá	710	Panajachel	8	Panajachel	6	Junio	2023-12-06T00:00:00	2024-11-08T18:00:00	6	Velocidad del viento	1.6
42442	7	Sololá	710	Panajachel	8	Panajachel	6	Junio	2023-12-06T00:00:00	2024-11-08T18:00:00	7	Dirección del viento	1.61
42443	7	Sololá	710	Panajachel	8	Panajachel	6	Junio	2023-12-06T00:00:00	2024-11-08T18:00:00	1	Precipitación	0
42444	7	Sololá	710	Panajachel	8	Panajachel	6	Junio	2023-12-06T00:00:00	2024-11-08T18:00:00	8	Radiación solar	28
42445	7	Sololá	710	Panajachel	8	Panajachel	6	Junio	2023-12-06T00:00:00	2024-11-08T19:00:00	2	Temperatura media	21.1
42446	7	Sololá	710	Panajachel	8	Panajachel	6	Junio	2023-12-06T00:00:00	2024-11-08T19:00:00	4	Temperatura máxima	21.2
42447	7	Sololá	710	Panajachel	8	Panajachel	6	Junio	2023-12-06T00:00:00	2024-11-08T19:00:00	3	Temperatura mínima	20.8
42448	7	Sololá	710	Panajachel	8	Panajachel	6	Junio	2023-12-06T00:00:00	2024-11-08T19:00:00	5	Humedad	94
42449	7	Sololá	710	Panajachel	8	Panajachel	6	Junio	2023-12-06T00:00:00	2024-11-08T19:00:00	6	Velocidad del viento	0
42450	7	Sololá	710	Panajachel	8	Panajachel	6	Junio	2023-12-06T00:00:00	2024-11-08T19:00:00	7	Dirección del viento	0
42451	7	Sololá	710	Panajachel	8	Panajachel	6	Junio	2023-12-06T00:00:00	2024-11-08T19:00:00	1	Precipitación	0
42452	7	Sololá	710	Panajachel	8	Panajachel	6	Junio	2023-12-06T00:00:00	2024-11-08T19:00:00	8	Radiación solar	0
42453	7	Sololá	710	Panajachel	8	Panajachel	6	Junio	2023-12-06T00:00:00	2024-11-08T20:00:00	2	Temperatura media	20.5
42454	7	Sololá	710	Panajachel	8	Panajachel	6	Junio	2023-12-06T00:00:00	2024-11-08T20:00:00	4	Temperatura máxima	21.1
42455	7	Sololá	710	Panajachel	8	Panajachel	6	Junio	2023-12-06T00:00:00	2024-11-08T20:00:00	3	Temperatura mínima	20.4
42456	7	Sololá	710	Panajachel	8	Panajachel	6	Junio	2023-12-06T00:00:00	2024-11-08T20:00:00	5	Humedad	96
42457	7	Sololá	710	Panajachel	8	Panajachel	6	Junio	2023-12-06T00:00:00	2024-11-08T20:00:00	6	Velocidad del viento	0
42458	7	Sololá	710	Panajachel	8	Panajachel	6	Junio	2023-12-06T00:00:00	2024-11-08T20:00:00	7	Dirección del viento	0
42459	7	Sololá	710	Panajachel	8	Panajachel	6	Junio	2023-12-06T00:00:00	2024-11-08T20:00:00	1	Precipitación	4.6
42460	7	Sololá	710	Panajachel	8	Panajachel	6	Junio	2023-12-06T00:00:00	2024-11-08T20:00:00	8	Radiación solar	0
42461	7	Sololá	710	Panajachel	8	Panajachel	6	Junio	2023-12-06T00:00:00	2024-11-08T21:00:00	2	Temperatura media	20.5
42462	7	Sololá	710	Panajachel	8	Panajachel	6	Junio	2023-12-06T00:00:00	2024-11-08T21:00:00	4	Temperatura máxima	20.7
42463	7	Sololá	710	Panajachel	8	Panajachel	6	Junio	2023-12-06T00:00:00	2024-11-08T21:00:00	3	Temperatura mínima	20.4
42464	7	Sololá	710	Panajachel	8	Panajachel	6	Junio	2023-12-06T00:00:00	2024-11-08T21:00:00	5	Humedad	97
42465	7	Sololá	710	Panajachel	8	Panajachel	6	Junio	2023-12-06T00:00:00	2024-11-08T21:00:00	6	Velocidad del viento	0
42466	7	Sololá	710	Panajachel	8	Panajachel	6	Junio	2023-12-06T00:00:00	2024-11-08T21:00:00	7	Dirección del viento	0
42467	7	Sololá	710	Panajachel	8	Panajachel	6	Junio	2023-12-06T00:00:00	2024-11-08T21:00:00	1	Precipitación	0
42468	7	Sololá	710	Panajachel	8	Panajachel	6	Junio	2023-12-06T00:00:00	2024-11-08T21:00:00	8	Radiación solar	0
42469	7	Sololá	710	Panajachel	8	Panajachel	6	Junio	2023-12-06T00:00:00	2024-11-08T22:00:00	2	Temperatura media	20.3
42470	7	Sololá	710	Panajachel	8	Panajachel	6	Junio	2023-12-06T00:00:00	2024-11-08T22:00:00	4	Temperatura máxima	20.5
42471	7	Sololá	710	Panajachel	8	Panajachel	6	Junio	2023-12-06T00:00:00	2024-11-08T22:00:00	3	Temperatura mínima	20.3
42472	7	Sololá	710	Panajachel	8	Panajachel	6	Junio	2023-12-06T00:00:00	2024-11-08T22:00:00	5	Humedad	96
42473	7	Sololá	710	Panajachel	8	Panajachel	6	Junio	2023-12-06T00:00:00	2024-11-08T22:00:00	6	Velocidad del viento	0
42474	7	Sololá	710	Panajachel	8	Panajachel	6	Junio	2023-12-06T00:00:00	2024-11-08T22:00:00	7	Dirección del viento	0
42475	7	Sololá	710	Panajachel	8	Panajachel	6	Junio	2023-12-06T00:00:00	2024-11-08T22:00:00	1	Precipitación	0
42476	7	Sololá	710	Panajachel	8	Panajachel	6	Junio	2023-12-06T00:00:00	2024-11-08T22:00:00	8	Radiación solar	0
42477	7	Sololá	710	Panajachel	8	Panajachel	6	Junio	2023-12-06T00:00:00	2024-11-08T23:00:00	2	Temperatura media	19.6
42478	7	Sololá	710	Panajachel	8	Panajachel	6	Junio	2023-12-06T00:00:00	2024-11-08T23:00:00	4	Temperatura máxima	20.3
42479	7	Sololá	710	Panajachel	8	Panajachel	6	Junio	2023-12-06T00:00:00	2024-11-08T23:00:00	3	Temperatura mínima	19.6
42480	7	Sololá	710	Panajachel	8	Panajachel	6	Junio	2023-12-06T00:00:00	2024-11-08T23:00:00	5	Humedad	95
42481	7	Sololá	710	Panajachel	8	Panajachel	6	Junio	2023-12-06T00:00:00	2024-11-08T23:00:00	6	Velocidad del viento	0
42482	7	Sololá	710	Panajachel	8	Panajachel	6	Junio	2023-12-06T00:00:00	2024-11-08T23:00:00	7	Dirección del viento	0
42483	7	Sololá	710	Panajachel	8	Panajachel	6	Junio	2023-12-06T00:00:00	2024-11-08T23:00:00	1	Precipitación	0
42484	7	Sololá	710	Panajachel	8	Panajachel	6	Junio	2023-12-06T00:00:00	2024-11-08T23:00:00	8	Radiación solar	0
42485	7	Sololá	710	Panajachel	8	Panajachel	6	Junio	2023-06-13T00:00:00	2024-11-08T00:00:00	2	Temperatura media	18.7
42486	7	Sololá	710	Panajachel	8	Panajachel	6	Junio	2023-06-13T00:00:00	2024-11-08T00:00:00	4	Temperatura máxima	19.6
42487	7	Sololá	710	Panajachel	8	Panajachel	6	Junio	2023-06-13T00:00:00	2024-11-08T00:00:00	3	Temperatura mínima	18.7
42488	7	Sololá	710	Panajachel	8	Panajachel	6	Junio	2023-06-13T00:00:00	2024-11-08T00:00:00	5	Humedad	95
42489	7	Sololá	710	Panajachel	8	Panajachel	6	Junio	2023-06-13T00:00:00	2024-11-08T00:00:00	6	Velocidad del viento	0
42490	7	Sololá	710	Panajachel	8	Panajachel	6	Junio	2023-06-13T00:00:00	2024-11-08T00:00:00	7	Dirección del viento	0
42491	7	Sololá	710	Panajachel	8	Panajachel	6	Junio	2023-06-13T00:00:00	2024-11-08T00:00:00	1	Precipitación	0
42492	7	Sololá	710	Panajachel	8	Panajachel	6	Junio	2023-06-13T00:00:00	2024-11-08T00:00:00	8	Radiación solar	0
42493	7	Sololá	710	Panajachel	8	Panajachel	6	Junio	2023-06-13T00:00:00	2024-11-08T01:00:00	2	Temperatura media	17.9
42494	7	Sololá	710	Panajachel	8	Panajachel	6	Junio	2023-06-13T00:00:00	2024-11-08T01:00:00	4	Temperatura máxima	18.7
42495	7	Sololá	710	Panajachel	8	Panajachel	6	Junio	2023-06-13T00:00:00	2024-11-08T01:00:00	3	Temperatura mínima	17.9
42496	7	Sololá	710	Panajachel	8	Panajachel	6	Junio	2023-06-13T00:00:00	2024-11-08T01:00:00	5	Humedad	93
42497	7	Sololá	710	Panajachel	8	Panajachel	6	Junio	2023-06-13T00:00:00	2024-11-08T01:00:00	6	Velocidad del viento	1.6
42498	7	Sololá	710	Panajachel	8	Panajachel	6	Junio	2023-06-13T00:00:00	2024-11-08T01:00:00	7	Dirección del viento	1.61
42499	7	Sololá	710	Panajachel	8	Panajachel	6	Junio	2023-06-13T00:00:00	2024-11-08T01:00:00	1	Precipitación	0
42500	7	Sololá	710	Panajachel	8	Panajachel	6	Junio	2023-06-13T00:00:00	2024-11-08T01:00:00	8	Radiación solar	0
42501	7	Sololá	710	Panajachel	8	Panajachel	6	Junio	2023-06-13T00:00:00	2024-11-08T02:00:00	2	Temperatura media	17.4
42502	7	Sololá	710	Panajachel	8	Panajachel	6	Junio	2023-06-13T00:00:00	2024-11-08T02:00:00	4	Temperatura máxima	17.9
42503	7	Sololá	710	Panajachel	8	Panajachel	6	Junio	2023-06-13T00:00:00	2024-11-08T02:00:00	3	Temperatura mínima	17.4
42504	7	Sololá	710	Panajachel	8	Panajachel	6	Junio	2023-06-13T00:00:00	2024-11-08T02:00:00	5	Humedad	94
42505	7	Sololá	710	Panajachel	8	Panajachel	6	Junio	2023-06-13T00:00:00	2024-11-08T02:00:00	6	Velocidad del viento	1.6
42506	7	Sololá	710	Panajachel	8	Panajachel	6	Junio	2023-06-13T00:00:00	2024-11-08T02:00:00	7	Dirección del viento	1.61
42507	7	Sololá	710	Panajachel	8	Panajachel	6	Junio	2023-06-13T00:00:00	2024-11-08T02:00:00	1	Precipitación	0
42508	7	Sololá	710	Panajachel	8	Panajachel	6	Junio	2023-06-13T00:00:00	2024-11-08T02:00:00	8	Radiación solar	0
42509	7	Sololá	710	Panajachel	8	Panajachel	6	Junio	2023-06-13T00:00:00	2024-11-08T03:00:00	2	Temperatura media	17.6
42510	7	Sololá	710	Panajachel	8	Panajachel	6	Junio	2023-06-13T00:00:00	2024-11-08T03:00:00	4	Temperatura máxima	17.6
42511	7	Sololá	710	Panajachel	8	Panajachel	6	Junio	2023-06-13T00:00:00	2024-11-08T03:00:00	3	Temperatura mínima	17.2
42512	7	Sololá	710	Panajachel	8	Panajachel	6	Junio	2023-06-13T00:00:00	2024-11-08T03:00:00	5	Humedad	91
42513	7	Sololá	710	Panajachel	8	Panajachel	6	Junio	2023-06-13T00:00:00	2024-11-08T03:00:00	6	Velocidad del viento	0
42514	7	Sololá	710	Panajachel	8	Panajachel	6	Junio	2023-06-13T00:00:00	2024-11-08T03:00:00	7	Dirección del viento	0
42515	7	Sololá	710	Panajachel	8	Panajachel	6	Junio	2023-06-13T00:00:00	2024-11-08T03:00:00	1	Precipitación	0
42516	7	Sololá	710	Panajachel	8	Panajachel	6	Junio	2023-06-13T00:00:00	2024-11-08T03:00:00	8	Radiación solar	0
42517	7	Sololá	710	Panajachel	8	Panajachel	6	Junio	2023-06-13T00:00:00	2024-11-08T04:00:00	2	Temperatura media	17.2
42518	7	Sololá	710	Panajachel	8	Panajachel	6	Junio	2023-06-13T00:00:00	2024-11-08T04:00:00	4	Temperatura máxima	17.6
42519	7	Sololá	710	Panajachel	8	Panajachel	6	Junio	2023-06-13T00:00:00	2024-11-08T04:00:00	3	Temperatura mínima	17.2
42520	7	Sololá	710	Panajachel	8	Panajachel	6	Junio	2023-06-13T00:00:00	2024-11-08T04:00:00	5	Humedad	92
42521	7	Sololá	710	Panajachel	8	Panajachel	6	Junio	2023-06-13T00:00:00	2024-11-08T04:00:00	6	Velocidad del viento	0
42522	7	Sololá	710	Panajachel	8	Panajachel	6	Junio	2023-06-13T00:00:00	2024-11-08T04:00:00	7	Dirección del viento	0
42523	7	Sololá	710	Panajachel	8	Panajachel	6	Junio	2023-06-13T00:00:00	2024-11-08T04:00:00	1	Precipitación	0
42524	7	Sololá	710	Panajachel	8	Panajachel	6	Junio	2023-06-13T00:00:00	2024-11-08T04:00:00	8	Radiación solar	0
42525	7	Sololá	710	Panajachel	8	Panajachel	6	Junio	2023-06-13T00:00:00	2024-11-08T05:00:00	2	Temperatura media	17.6
42526	7	Sololá	710	Panajachel	8	Panajachel	6	Junio	2023-06-13T00:00:00	2024-11-08T05:00:00	4	Temperatura máxima	17.6
42527	7	Sololá	710	Panajachel	8	Panajachel	6	Junio	2023-06-13T00:00:00	2024-11-08T05:00:00	3	Temperatura mínima	17.2
42528	7	Sololá	710	Panajachel	8	Panajachel	6	Junio	2023-06-13T00:00:00	2024-11-08T05:00:00	5	Humedad	91
42529	7	Sololá	710	Panajachel	8	Panajachel	6	Junio	2023-06-13T00:00:00	2024-11-08T05:00:00	6	Velocidad del viento	0
42530	7	Sololá	710	Panajachel	8	Panajachel	6	Junio	2023-06-13T00:00:00	2024-11-08T05:00:00	7	Dirección del viento	0
42531	7	Sololá	710	Panajachel	8	Panajachel	6	Junio	2023-06-13T00:00:00	2024-11-08T05:00:00	1	Precipitación	0
42532	7	Sololá	710	Panajachel	8	Panajachel	6	Junio	2023-06-13T00:00:00	2024-11-08T05:00:00	8	Radiación solar	0
42533	7	Sololá	710	Panajachel	8	Panajachel	6	Junio	2023-06-13T00:00:00	2024-11-08T06:00:00	2	Temperatura media	17.3
42534	7	Sololá	710	Panajachel	8	Panajachel	6	Junio	2023-06-13T00:00:00	2024-11-08T06:00:00	4	Temperatura máxima	17.7
42535	7	Sololá	710	Panajachel	8	Panajachel	6	Junio	2023-06-13T00:00:00	2024-11-08T06:00:00	3	Temperatura mínima	17.3
42536	7	Sololá	710	Panajachel	8	Panajachel	6	Junio	2023-06-13T00:00:00	2024-11-08T06:00:00	5	Humedad	93
42537	7	Sololá	710	Panajachel	8	Panajachel	6	Junio	2023-06-13T00:00:00	2024-11-08T06:00:00	6	Velocidad del viento	0
42538	7	Sololá	710	Panajachel	8	Panajachel	6	Junio	2023-06-13T00:00:00	2024-11-08T06:00:00	7	Dirección del viento	0
42539	7	Sololá	710	Panajachel	8	Panajachel	6	Junio	2023-06-13T00:00:00	2024-11-08T06:00:00	1	Precipitación	0
42540	7	Sololá	710	Panajachel	8	Panajachel	6	Junio	2023-06-13T00:00:00	2024-11-08T06:00:00	8	Radiación solar	5
42541	7	Sololá	710	Panajachel	8	Panajachel	6	Junio	2023-06-13T00:00:00	2024-11-08T07:00:00	2	Temperatura media	18.8
42542	7	Sololá	710	Panajachel	8	Panajachel	6	Junio	2023-06-13T00:00:00	2024-11-08T07:00:00	4	Temperatura máxima	18.8
42543	7	Sololá	710	Panajachel	8	Panajachel	6	Junio	2023-06-13T00:00:00	2024-11-08T07:00:00	3	Temperatura mínima	17.2
42544	7	Sololá	710	Panajachel	8	Panajachel	6	Junio	2023-06-13T00:00:00	2024-11-08T07:00:00	5	Humedad	89
42545	7	Sololá	710	Panajachel	8	Panajachel	6	Junio	2023-06-13T00:00:00	2024-11-08T07:00:00	6	Velocidad del viento	1.6
42546	7	Sololá	710	Panajachel	8	Panajachel	6	Junio	2023-06-13T00:00:00	2024-11-08T07:00:00	7	Dirección del viento	1.61
42547	7	Sololá	710	Panajachel	8	Panajachel	6	Junio	2023-06-13T00:00:00	2024-11-08T07:00:00	1	Precipitación	0.2
42548	7	Sololá	710	Panajachel	8	Panajachel	6	Junio	2023-06-13T00:00:00	2024-11-08T07:00:00	8	Radiación solar	88
42549	7	Sololá	710	Panajachel	8	Panajachel	6	Junio	2023-06-13T00:00:00	2024-11-08T08:00:00	2	Temperatura media	21.5
42550	7	Sololá	710	Panajachel	8	Panajachel	6	Junio	2023-06-13T00:00:00	2024-11-08T08:00:00	4	Temperatura máxima	21.6
42551	7	Sololá	710	Panajachel	8	Panajachel	6	Junio	2023-06-13T00:00:00	2024-11-08T08:00:00	3	Temperatura mínima	18.8
42552	7	Sololá	710	Panajachel	8	Panajachel	6	Junio	2023-06-13T00:00:00	2024-11-08T08:00:00	5	Humedad	83
42553	7	Sololá	710	Panajachel	8	Panajachel	6	Junio	2023-06-13T00:00:00	2024-11-08T08:00:00	6	Velocidad del viento	0
42554	7	Sololá	710	Panajachel	8	Panajachel	6	Junio	2023-06-13T00:00:00	2024-11-08T08:00:00	7	Dirección del viento	0
42555	7	Sololá	710	Panajachel	8	Panajachel	6	Junio	2023-06-13T00:00:00	2024-11-08T08:00:00	1	Precipitación	0
42556	7	Sololá	710	Panajachel	8	Panajachel	6	Junio	2023-06-13T00:00:00	2024-11-08T08:00:00	8	Radiación solar	252
42557	7	Sololá	710	Panajachel	8	Panajachel	6	Junio	2023-06-13T00:00:00	2024-11-08T09:00:00	2	Temperatura media	22.2
42558	7	Sololá	710	Panajachel	8	Panajachel	6	Junio	2023-06-13T00:00:00	2024-11-08T09:00:00	4	Temperatura máxima	22.7
42559	7	Sololá	710	Panajachel	8	Panajachel	6	Junio	2023-06-13T00:00:00	2024-11-08T09:00:00	3	Temperatura mínima	21.6
42560	7	Sololá	710	Panajachel	8	Panajachel	6	Junio	2023-06-13T00:00:00	2024-11-08T09:00:00	5	Humedad	81
42561	7	Sololá	710	Panajachel	8	Panajachel	6	Junio	2023-06-13T00:00:00	2024-11-08T09:00:00	6	Velocidad del viento	0
42562	7	Sololá	710	Panajachel	8	Panajachel	6	Junio	2023-06-13T00:00:00	2024-11-08T09:00:00	7	Dirección del viento	0
42563	7	Sololá	710	Panajachel	8	Panajachel	6	Junio	2023-06-13T00:00:00	2024-11-08T09:00:00	1	Precipitación	0
42564	7	Sololá	710	Panajachel	8	Panajachel	6	Junio	2023-06-13T00:00:00	2024-11-08T09:00:00	8	Radiación solar	526
42565	7	Sololá	710	Panajachel	8	Panajachel	6	Junio	2023-06-13T00:00:00	2024-11-08T10:00:00	2	Temperatura media	23.4
42566	7	Sololá	710	Panajachel	8	Panajachel	6	Junio	2023-06-13T00:00:00	2024-11-08T10:00:00	4	Temperatura máxima	23.7
42567	7	Sololá	710	Panajachel	8	Panajachel	6	Junio	2023-06-13T00:00:00	2024-11-08T10:00:00	3	Temperatura mínima	22.2
42568	7	Sololá	710	Panajachel	8	Panajachel	6	Junio	2023-06-13T00:00:00	2024-11-08T10:00:00	5	Humedad	74
42569	7	Sololá	710	Panajachel	8	Panajachel	6	Junio	2023-06-13T00:00:00	2024-11-08T10:00:00	6	Velocidad del viento	0
42570	7	Sololá	710	Panajachel	8	Panajachel	6	Junio	2023-06-13T00:00:00	2024-11-08T10:00:00	7	Dirección del viento	0
42571	7	Sololá	710	Panajachel	8	Panajachel	6	Junio	2023-06-13T00:00:00	2024-11-08T10:00:00	1	Precipitación	0
42572	7	Sololá	710	Panajachel	8	Panajachel	6	Junio	2023-06-13T00:00:00	2024-11-08T10:00:00	8	Radiación solar	695
42573	7	Sololá	710	Panajachel	8	Panajachel	6	Junio	2023-06-13T00:00:00	2024-11-08T11:00:00	2	Temperatura media	25.4
42574	7	Sololá	710	Panajachel	8	Panajachel	6	Junio	2023-06-13T00:00:00	2024-11-08T11:00:00	4	Temperatura máxima	25.4
42575	7	Sololá	710	Panajachel	8	Panajachel	6	Junio	2023-06-13T00:00:00	2024-11-08T11:00:00	3	Temperatura mínima	23.4
42576	7	Sololá	710	Panajachel	8	Panajachel	6	Junio	2023-06-13T00:00:00	2024-11-08T11:00:00	5	Humedad	72
42577	7	Sololá	710	Panajachel	8	Panajachel	6	Junio	2023-06-13T00:00:00	2024-11-08T11:00:00	6	Velocidad del viento	0
42578	7	Sololá	710	Panajachel	8	Panajachel	6	Junio	2023-06-13T00:00:00	2024-11-08T11:00:00	7	Dirección del viento	0
42579	7	Sololá	710	Panajachel	8	Panajachel	6	Junio	2023-06-13T00:00:00	2024-11-08T11:00:00	1	Precipitación	0
42580	7	Sololá	710	Panajachel	8	Panajachel	6	Junio	2023-06-13T00:00:00	2024-11-08T11:00:00	8	Radiación solar	803
42581	7	Sololá	710	Panajachel	8	Panajachel	6	Junio	2023-06-13T00:00:00	2024-11-08T12:00:00	2	Temperatura media	26.1
42582	7	Sololá	710	Panajachel	8	Panajachel	6	Junio	2023-06-13T00:00:00	2024-11-08T12:00:00	4	Temperatura máxima	26.1
42583	7	Sololá	710	Panajachel	8	Panajachel	6	Junio	2023-06-13T00:00:00	2024-11-08T12:00:00	3	Temperatura mínima	24.5
42584	7	Sololá	710	Panajachel	8	Panajachel	6	Junio	2023-06-13T00:00:00	2024-11-08T12:00:00	5	Humedad	66
42585	7	Sololá	710	Panajachel	8	Panajachel	6	Junio	2023-06-13T00:00:00	2024-11-08T12:00:00	6	Velocidad del viento	0
42586	7	Sololá	710	Panajachel	8	Panajachel	6	Junio	2023-06-13T00:00:00	2024-11-08T12:00:00	7	Dirección del viento	0
42587	7	Sololá	710	Panajachel	8	Panajachel	6	Junio	2023-06-13T00:00:00	2024-11-08T12:00:00	1	Precipitación	0
42588	7	Sololá	710	Panajachel	8	Panajachel	6	Junio	2023-06-13T00:00:00	2024-11-08T12:00:00	8	Radiación solar	912
42589	7	Sololá	710	Panajachel	8	Panajachel	6	Junio	2023-06-13T00:00:00	2024-11-08T13:00:00	2	Temperatura media	25.7
42590	7	Sololá	710	Panajachel	8	Panajachel	6	Junio	2023-06-13T00:00:00	2024-11-08T13:00:00	4	Temperatura máxima	26.2
42591	7	Sololá	710	Panajachel	8	Panajachel	6	Junio	2023-06-13T00:00:00	2024-11-08T13:00:00	3	Temperatura mínima	24.9
42592	7	Sololá	710	Panajachel	8	Panajachel	6	Junio	2023-06-13T00:00:00	2024-11-08T13:00:00	5	Humedad	78
42593	7	Sololá	710	Panajachel	8	Panajachel	6	Junio	2023-06-13T00:00:00	2024-11-08T13:00:00	6	Velocidad del viento	1.6
42594	7	Sololá	710	Panajachel	8	Panajachel	6	Junio	2023-06-13T00:00:00	2024-11-08T13:00:00	7	Dirección del viento	1.61
42595	7	Sololá	710	Panajachel	8	Panajachel	6	Junio	2023-06-13T00:00:00	2024-11-08T13:00:00	1	Precipitación	0
42596	7	Sololá	710	Panajachel	8	Panajachel	6	Junio	2023-06-13T00:00:00	2024-11-08T13:00:00	8	Radiación solar	921
42597	7	Sololá	710	Panajachel	8	Panajachel	6	Junio	2023-06-13T00:00:00	2024-11-08T14:00:00	2	Temperatura media	25.1
42598	7	Sololá	710	Panajachel	8	Panajachel	6	Junio	2023-06-13T00:00:00	2024-11-08T14:00:00	4	Temperatura máxima	25.9
42599	7	Sololá	710	Panajachel	8	Panajachel	6	Junio	2023-06-13T00:00:00	2024-11-08T14:00:00	3	Temperatura mínima	24.8
42600	7	Sololá	710	Panajachel	8	Panajachel	6	Junio	2023-06-13T00:00:00	2024-11-08T14:00:00	5	Humedad	79
42601	7	Sololá	710	Panajachel	8	Panajachel	6	Junio	2023-06-13T00:00:00	2024-11-08T14:00:00	6	Velocidad del viento	1.6
42602	7	Sololá	710	Panajachel	8	Panajachel	6	Junio	2023-06-13T00:00:00	2024-11-08T14:00:00	7	Dirección del viento	1.61
42603	7	Sololá	710	Panajachel	8	Panajachel	6	Junio	2023-06-13T00:00:00	2024-11-08T14:00:00	1	Precipitación	0
42604	7	Sololá	710	Panajachel	8	Panajachel	6	Junio	2023-06-13T00:00:00	2024-11-08T14:00:00	8	Radiación solar	785
42605	7	Sololá	710	Panajachel	8	Panajachel	6	Junio	2023-06-13T00:00:00	2024-11-08T15:00:00	2	Temperatura media	24.5
42606	7	Sololá	710	Panajachel	8	Panajachel	6	Junio	2023-06-13T00:00:00	2024-11-08T15:00:00	4	Temperatura máxima	25.3
42607	7	Sololá	710	Panajachel	8	Panajachel	6	Junio	2023-06-13T00:00:00	2024-11-08T15:00:00	3	Temperatura mínima	24.4
42608	7	Sololá	710	Panajachel	8	Panajachel	6	Junio	2023-06-13T00:00:00	2024-11-08T15:00:00	5	Humedad	80
42609	7	Sololá	710	Panajachel	8	Panajachel	6	Junio	2023-06-13T00:00:00	2024-11-08T15:00:00	6	Velocidad del viento	1.6
42610	7	Sololá	710	Panajachel	8	Panajachel	6	Junio	2023-06-13T00:00:00	2024-11-08T15:00:00	7	Dirección del viento	1.61
42611	7	Sololá	710	Panajachel	8	Panajachel	6	Junio	2023-06-13T00:00:00	2024-11-08T15:00:00	1	Precipitación	0
42612	7	Sololá	710	Panajachel	8	Panajachel	6	Junio	2023-06-13T00:00:00	2024-11-08T15:00:00	8	Radiación solar	371
42613	7	Sololá	710	Panajachel	8	Panajachel	6	Junio	2023-06-13T00:00:00	2024-11-08T16:00:00	2	Temperatura media	24.2
42614	7	Sololá	710	Panajachel	8	Panajachel	6	Junio	2023-06-13T00:00:00	2024-11-08T16:00:00	4	Temperatura máxima	24.8
42615	7	Sololá	710	Panajachel	8	Panajachel	6	Junio	2023-06-13T00:00:00	2024-11-08T16:00:00	3	Temperatura mínima	24.2
42616	7	Sololá	710	Panajachel	8	Panajachel	6	Junio	2023-06-13T00:00:00	2024-11-08T16:00:00	5	Humedad	79
42617	7	Sololá	710	Panajachel	8	Panajachel	6	Junio	2023-06-13T00:00:00	2024-11-08T16:00:00	6	Velocidad del viento	0
42618	7	Sololá	710	Panajachel	8	Panajachel	6	Junio	2023-06-13T00:00:00	2024-11-08T16:00:00	7	Dirección del viento	0
42619	7	Sololá	710	Panajachel	8	Panajachel	6	Junio	2023-06-13T00:00:00	2024-11-08T16:00:00	1	Precipitación	0
42620	7	Sololá	710	Panajachel	8	Panajachel	6	Junio	2023-06-13T00:00:00	2024-11-08T16:00:00	8	Radiación solar	258
42621	7	Sololá	710	Panajachel	8	Panajachel	6	Junio	2023-06-13T00:00:00	2024-11-08T17:00:00	2	Temperatura media	23.4
42622	7	Sololá	710	Panajachel	8	Panajachel	6	Junio	2023-06-13T00:00:00	2024-11-08T17:00:00	4	Temperatura máxima	24.2
42623	7	Sololá	710	Panajachel	8	Panajachel	6	Junio	2023-06-13T00:00:00	2024-11-08T17:00:00	3	Temperatura mínima	23.4
42624	7	Sololá	710	Panajachel	8	Panajachel	6	Junio	2023-06-13T00:00:00	2024-11-08T17:00:00	5	Humedad	84
42625	7	Sololá	710	Panajachel	8	Panajachel	6	Junio	2023-06-13T00:00:00	2024-11-08T17:00:00	6	Velocidad del viento	1.6
42626	7	Sololá	710	Panajachel	8	Panajachel	6	Junio	2023-06-13T00:00:00	2024-11-08T17:00:00	7	Dirección del viento	1.61
42627	7	Sololá	710	Panajachel	8	Panajachel	6	Junio	2023-06-13T00:00:00	2024-11-08T17:00:00	1	Precipitación	0
42628	7	Sololá	710	Panajachel	8	Panajachel	6	Junio	2023-06-13T00:00:00	2024-11-08T17:00:00	8	Radiación solar	170
42629	7	Sololá	710	Panajachel	8	Panajachel	6	Junio	2023-06-13T00:00:00	2024-11-08T18:00:00	2	Temperatura media	22.7
42630	7	Sololá	710	Panajachel	8	Panajachel	6	Junio	2023-06-13T00:00:00	2024-11-08T18:00:00	4	Temperatura máxima	23.4
42631	7	Sololá	710	Panajachel	8	Panajachel	6	Junio	2023-06-13T00:00:00	2024-11-08T18:00:00	3	Temperatura mínima	22.7
42632	7	Sololá	710	Panajachel	8	Panajachel	6	Junio	2023-06-13T00:00:00	2024-11-08T18:00:00	5	Humedad	86
42633	7	Sololá	710	Panajachel	8	Panajachel	6	Junio	2023-06-13T00:00:00	2024-11-08T18:00:00	6	Velocidad del viento	0
42634	7	Sololá	710	Panajachel	8	Panajachel	6	Junio	2023-06-13T00:00:00	2024-11-08T18:00:00	7	Dirección del viento	0
42635	7	Sololá	710	Panajachel	8	Panajachel	6	Junio	2023-06-13T00:00:00	2024-11-08T18:00:00	1	Precipitación	0
42636	7	Sololá	710	Panajachel	8	Panajachel	6	Junio	2023-06-13T00:00:00	2024-11-08T18:00:00	8	Radiación solar	90
42637	7	Sololá	710	Panajachel	8	Panajachel	6	Junio	2023-06-13T00:00:00	2024-11-08T19:00:00	2	Temperatura media	22
42638	7	Sololá	710	Panajachel	8	Panajachel	6	Junio	2023-06-13T00:00:00	2024-11-08T19:00:00	4	Temperatura máxima	22.7
42639	7	Sololá	710	Panajachel	8	Panajachel	6	Junio	2023-06-13T00:00:00	2024-11-08T19:00:00	3	Temperatura mínima	21.9
42640	7	Sololá	710	Panajachel	8	Panajachel	6	Junio	2023-06-13T00:00:00	2024-11-08T19:00:00	5	Humedad	89
42641	7	Sololá	710	Panajachel	8	Panajachel	6	Junio	2023-06-13T00:00:00	2024-11-08T19:00:00	6	Velocidad del viento	0
42642	7	Sololá	710	Panajachel	8	Panajachel	6	Junio	2023-06-13T00:00:00	2024-11-08T19:00:00	7	Dirección del viento	0
42643	7	Sololá	710	Panajachel	8	Panajachel	6	Junio	2023-06-13T00:00:00	2024-11-08T19:00:00	1	Precipitación	0
42644	7	Sololá	710	Panajachel	8	Panajachel	6	Junio	2023-06-13T00:00:00	2024-11-08T19:00:00	8	Radiación solar	0
42645	7	Sololá	710	Panajachel	8	Panajachel	6	Junio	2023-06-13T00:00:00	2024-11-08T20:00:00	2	Temperatura media	21.8
42646	7	Sololá	710	Panajachel	8	Panajachel	6	Junio	2023-06-13T00:00:00	2024-11-08T20:00:00	4	Temperatura máxima	22
42647	7	Sololá	710	Panajachel	8	Panajachel	6	Junio	2023-06-13T00:00:00	2024-11-08T20:00:00	3	Temperatura mínima	21.8
42648	7	Sololá	710	Panajachel	8	Panajachel	6	Junio	2023-06-13T00:00:00	2024-11-08T20:00:00	5	Humedad	89
42649	7	Sololá	710	Panajachel	8	Panajachel	6	Junio	2023-06-13T00:00:00	2024-11-08T20:00:00	6	Velocidad del viento	0
42650	7	Sololá	710	Panajachel	8	Panajachel	6	Junio	2023-06-13T00:00:00	2024-11-08T20:00:00	7	Dirección del viento	0
42651	7	Sololá	710	Panajachel	8	Panajachel	6	Junio	2023-06-13T00:00:00	2024-11-08T20:00:00	1	Precipitación	0
42652	7	Sololá	710	Panajachel	8	Panajachel	6	Junio	2023-06-13T00:00:00	2024-11-08T20:00:00	8	Radiación solar	0
42653	7	Sololá	710	Panajachel	8	Panajachel	6	Junio	2023-06-13T00:00:00	2024-11-08T21:00:00	2	Temperatura media	20.9
42654	7	Sololá	710	Panajachel	8	Panajachel	6	Junio	2023-06-13T00:00:00	2024-11-08T21:00:00	4	Temperatura máxima	21.8
42655	7	Sololá	710	Panajachel	8	Panajachel	6	Junio	2023-06-13T00:00:00	2024-11-08T21:00:00	3	Temperatura mínima	20.9
42656	7	Sololá	710	Panajachel	8	Panajachel	6	Junio	2023-06-13T00:00:00	2024-11-08T21:00:00	5	Humedad	90
42657	7	Sololá	710	Panajachel	8	Panajachel	6	Junio	2023-06-13T00:00:00	2024-11-08T21:00:00	6	Velocidad del viento	0
42658	7	Sololá	710	Panajachel	8	Panajachel	6	Junio	2023-06-13T00:00:00	2024-11-08T21:00:00	7	Dirección del viento	0
42659	7	Sololá	710	Panajachel	8	Panajachel	6	Junio	2023-06-13T00:00:00	2024-11-08T21:00:00	1	Precipitación	0
42660	7	Sololá	710	Panajachel	8	Panajachel	6	Junio	2023-06-13T00:00:00	2024-11-08T21:00:00	8	Radiación solar	0
42661	7	Sololá	710	Panajachel	8	Panajachel	6	Junio	2023-06-13T00:00:00	2024-11-08T22:00:00	2	Temperatura media	20.8
42662	7	Sololá	710	Panajachel	8	Panajachel	6	Junio	2023-06-13T00:00:00	2024-11-08T22:00:00	4	Temperatura máxima	21.1
42663	7	Sololá	710	Panajachel	8	Panajachel	6	Junio	2023-06-13T00:00:00	2024-11-08T22:00:00	3	Temperatura mínima	20.8
42664	7	Sololá	710	Panajachel	8	Panajachel	6	Junio	2023-06-13T00:00:00	2024-11-08T22:00:00	5	Humedad	89
42665	7	Sololá	710	Panajachel	8	Panajachel	6	Junio	2023-06-13T00:00:00	2024-11-08T22:00:00	6	Velocidad del viento	0
42666	7	Sololá	710	Panajachel	8	Panajachel	6	Junio	2023-06-13T00:00:00	2024-11-08T22:00:00	7	Dirección del viento	0
42667	7	Sololá	710	Panajachel	8	Panajachel	6	Junio	2023-06-13T00:00:00	2024-11-08T22:00:00	1	Precipitación	0
42668	7	Sololá	710	Panajachel	8	Panajachel	6	Junio	2023-06-13T00:00:00	2024-11-08T22:00:00	8	Radiación solar	0
42669	7	Sololá	710	Panajachel	8	Panajachel	6	Junio	2023-06-13T00:00:00	2024-11-08T23:00:00	2	Temperatura media	20.4
42670	7	Sololá	710	Panajachel	8	Panajachel	6	Junio	2023-06-13T00:00:00	2024-11-08T23:00:00	4	Temperatura máxima	20.9
42671	7	Sololá	710	Panajachel	8	Panajachel	6	Junio	2023-06-13T00:00:00	2024-11-08T23:00:00	3	Temperatura mínima	20.4
42672	7	Sololá	710	Panajachel	8	Panajachel	6	Junio	2023-06-13T00:00:00	2024-11-08T23:00:00	5	Humedad	88
42673	7	Sololá	710	Panajachel	8	Panajachel	6	Junio	2023-06-13T00:00:00	2024-11-08T23:00:00	6	Velocidad del viento	0
42674	7	Sololá	710	Panajachel	8	Panajachel	6	Junio	2023-06-13T00:00:00	2024-11-08T23:00:00	7	Dirección del viento	0
42675	7	Sololá	710	Panajachel	8	Panajachel	6	Junio	2023-06-13T00:00:00	2024-11-08T23:00:00	1	Precipitación	0
42676	7	Sololá	710	Panajachel	8	Panajachel	6	Junio	2023-06-13T00:00:00	2024-11-08T23:00:00	8	Radiación solar	0
42677	7	Sololá	710	Panajachel	8	Panajachel	6	Junio	2023-06-14T00:00:00	2024-11-08T00:00:00	2	Temperatura media	19.8
42678	7	Sololá	710	Panajachel	8	Panajachel	6	Junio	2023-06-14T00:00:00	2024-11-08T00:00:00	4	Temperatura máxima	20.4
42679	7	Sololá	710	Panajachel	8	Panajachel	6	Junio	2023-06-14T00:00:00	2024-11-08T00:00:00	3	Temperatura mínima	19.8
42680	7	Sololá	710	Panajachel	8	Panajachel	6	Junio	2023-06-14T00:00:00	2024-11-08T00:00:00	5	Humedad	85
42681	7	Sololá	710	Panajachel	8	Panajachel	6	Junio	2023-06-14T00:00:00	2024-11-08T00:00:00	6	Velocidad del viento	0
42682	7	Sololá	710	Panajachel	8	Panajachel	6	Junio	2023-06-14T00:00:00	2024-11-08T00:00:00	7	Dirección del viento	0
42683	7	Sololá	710	Panajachel	8	Panajachel	6	Junio	2023-06-14T00:00:00	2024-11-08T00:00:00	1	Precipitación	0
42684	7	Sololá	710	Panajachel	8	Panajachel	6	Junio	2023-06-14T00:00:00	2024-11-08T00:00:00	8	Radiación solar	0
42685	7	Sololá	710	Panajachel	8	Panajachel	6	Junio	2023-06-14T00:00:00	2024-11-08T01:00:00	2	Temperatura media	19.6
42686	7	Sololá	710	Panajachel	8	Panajachel	6	Junio	2023-06-14T00:00:00	2024-11-08T01:00:00	4	Temperatura máxima	19.9
42687	7	Sololá	710	Panajachel	8	Panajachel	6	Junio	2023-06-14T00:00:00	2024-11-08T01:00:00	3	Temperatura mínima	19.4
42688	7	Sololá	710	Panajachel	8	Panajachel	6	Junio	2023-06-14T00:00:00	2024-11-08T01:00:00	5	Humedad	82
42689	7	Sololá	710	Panajachel	8	Panajachel	6	Junio	2023-06-14T00:00:00	2024-11-08T01:00:00	6	Velocidad del viento	0
42690	7	Sololá	710	Panajachel	8	Panajachel	6	Junio	2023-06-14T00:00:00	2024-11-08T01:00:00	7	Dirección del viento	0
42691	7	Sololá	710	Panajachel	8	Panajachel	6	Junio	2023-06-14T00:00:00	2024-11-08T01:00:00	1	Precipitación	0
42692	7	Sololá	710	Panajachel	8	Panajachel	6	Junio	2023-06-14T00:00:00	2024-11-08T01:00:00	8	Radiación solar	0
42693	7	Sololá	710	Panajachel	8	Panajachel	6	Junio	2023-06-14T00:00:00	2024-11-08T02:00:00	2	Temperatura media	19.1
42694	7	Sololá	710	Panajachel	8	Panajachel	6	Junio	2023-06-14T00:00:00	2024-11-08T02:00:00	4	Temperatura máxima	19.7
42695	7	Sololá	710	Panajachel	8	Panajachel	6	Junio	2023-06-14T00:00:00	2024-11-08T02:00:00	3	Temperatura mínima	19.1
42696	7	Sololá	710	Panajachel	8	Panajachel	6	Junio	2023-06-14T00:00:00	2024-11-08T02:00:00	5	Humedad	85
42697	7	Sololá	710	Panajachel	8	Panajachel	6	Junio	2023-06-14T00:00:00	2024-11-08T02:00:00	6	Velocidad del viento	0
42698	7	Sololá	710	Panajachel	8	Panajachel	6	Junio	2023-06-14T00:00:00	2024-11-08T02:00:00	7	Dirección del viento	0
42699	7	Sololá	710	Panajachel	8	Panajachel	6	Junio	2023-06-14T00:00:00	2024-11-08T02:00:00	1	Precipitación	0
42700	7	Sololá	710	Panajachel	8	Panajachel	6	Junio	2023-06-14T00:00:00	2024-11-08T02:00:00	8	Radiación solar	0
42701	7	Sololá	710	Panajachel	8	Panajachel	6	Junio	2023-06-14T00:00:00	2024-11-08T03:00:00	2	Temperatura media	18.8
42702	7	Sololá	710	Panajachel	8	Panajachel	6	Junio	2023-06-14T00:00:00	2024-11-08T03:00:00	4	Temperatura máxima	19.3
42703	7	Sololá	710	Panajachel	8	Panajachel	6	Junio	2023-06-14T00:00:00	2024-11-08T03:00:00	3	Temperatura mínima	18.8
42704	7	Sololá	710	Panajachel	8	Panajachel	6	Junio	2023-06-14T00:00:00	2024-11-08T03:00:00	5	Humedad	83
42705	7	Sololá	710	Panajachel	8	Panajachel	6	Junio	2023-06-14T00:00:00	2024-11-08T03:00:00	6	Velocidad del viento	0
42706	7	Sololá	710	Panajachel	8	Panajachel	6	Junio	2023-06-14T00:00:00	2024-11-08T03:00:00	7	Dirección del viento	0
42707	7	Sololá	710	Panajachel	8	Panajachel	6	Junio	2023-06-14T00:00:00	2024-11-08T03:00:00	1	Precipitación	0
42708	7	Sololá	710	Panajachel	8	Panajachel	6	Junio	2023-06-14T00:00:00	2024-11-08T03:00:00	8	Radiación solar	0
42709	7	Sololá	710	Panajachel	8	Panajachel	6	Junio	2023-06-14T00:00:00	2024-11-08T04:00:00	2	Temperatura media	18.4
42710	7	Sololá	710	Panajachel	8	Panajachel	6	Junio	2023-06-14T00:00:00	2024-11-08T04:00:00	4	Temperatura máxima	19.2
42711	7	Sololá	710	Panajachel	8	Panajachel	6	Junio	2023-06-14T00:00:00	2024-11-08T04:00:00	3	Temperatura mínima	18.4
42712	7	Sololá	710	Panajachel	8	Panajachel	6	Junio	2023-06-14T00:00:00	2024-11-08T04:00:00	5	Humedad	84
42713	7	Sololá	710	Panajachel	8	Panajachel	6	Junio	2023-06-14T00:00:00	2024-11-08T04:00:00	6	Velocidad del viento	0
42714	7	Sololá	710	Panajachel	8	Panajachel	6	Junio	2023-06-14T00:00:00	2024-11-08T04:00:00	7	Dirección del viento	0
42715	7	Sololá	710	Panajachel	8	Panajachel	6	Junio	2023-06-14T00:00:00	2024-11-08T04:00:00	1	Precipitación	0
42716	7	Sololá	710	Panajachel	8	Panajachel	6	Junio	2023-06-14T00:00:00	2024-11-08T04:00:00	8	Radiación solar	0
42717	7	Sololá	710	Panajachel	8	Panajachel	6	Junio	2023-06-14T00:00:00	2024-11-08T05:00:00	2	Temperatura media	18
42718	7	Sololá	710	Panajachel	8	Panajachel	6	Junio	2023-06-14T00:00:00	2024-11-08T05:00:00	4	Temperatura máxima	18.4
42719	7	Sololá	710	Panajachel	8	Panajachel	6	Junio	2023-06-14T00:00:00	2024-11-08T05:00:00	3	Temperatura mínima	18
42720	7	Sololá	710	Panajachel	8	Panajachel	6	Junio	2023-06-14T00:00:00	2024-11-08T05:00:00	5	Humedad	84
42721	7	Sololá	710	Panajachel	8	Panajachel	6	Junio	2023-06-14T00:00:00	2024-11-08T05:00:00	6	Velocidad del viento	1.6
42722	7	Sololá	710	Panajachel	8	Panajachel	6	Junio	2023-06-14T00:00:00	2024-11-08T05:00:00	7	Dirección del viento	1.61
42723	7	Sololá	710	Panajachel	8	Panajachel	6	Junio	2023-06-14T00:00:00	2024-11-08T05:00:00	1	Precipitación	0
42724	7	Sololá	710	Panajachel	8	Panajachel	6	Junio	2023-06-14T00:00:00	2024-11-08T05:00:00	8	Radiación solar	0
42725	7	Sololá	710	Panajachel	8	Panajachel	6	Junio	2023-06-14T00:00:00	2024-11-08T06:00:00	2	Temperatura media	18.1
42726	7	Sololá	710	Panajachel	8	Panajachel	6	Junio	2023-06-14T00:00:00	2024-11-08T06:00:00	4	Temperatura máxima	18.3
42727	7	Sololá	710	Panajachel	8	Panajachel	6	Junio	2023-06-14T00:00:00	2024-11-08T06:00:00	3	Temperatura mínima	17.9
42728	7	Sololá	710	Panajachel	8	Panajachel	6	Junio	2023-06-14T00:00:00	2024-11-08T06:00:00	5	Humedad	83
42729	7	Sololá	710	Panajachel	8	Panajachel	6	Junio	2023-06-14T00:00:00	2024-11-08T06:00:00	6	Velocidad del viento	0
42730	7	Sololá	710	Panajachel	8	Panajachel	6	Junio	2023-06-14T00:00:00	2024-11-08T06:00:00	7	Dirección del viento	0
42731	7	Sololá	710	Panajachel	8	Panajachel	6	Junio	2023-06-14T00:00:00	2024-11-08T06:00:00	1	Precipitación	0
42732	7	Sololá	710	Panajachel	8	Panajachel	6	Junio	2023-06-14T00:00:00	2024-11-08T06:00:00	8	Radiación solar	6
42733	7	Sololá	710	Panajachel	8	Panajachel	6	Junio	2023-06-14T00:00:00	2024-11-08T07:00:00	2	Temperatura media	20.2
42734	7	Sololá	710	Panajachel	8	Panajachel	6	Junio	2023-06-14T00:00:00	2024-11-08T07:00:00	4	Temperatura máxima	20.2
42735	7	Sololá	710	Panajachel	8	Panajachel	6	Junio	2023-06-14T00:00:00	2024-11-08T07:00:00	3	Temperatura mínima	18.1
42736	7	Sololá	710	Panajachel	8	Panajachel	6	Junio	2023-06-14T00:00:00	2024-11-08T07:00:00	5	Humedad	78
42737	7	Sololá	710	Panajachel	8	Panajachel	6	Junio	2023-06-14T00:00:00	2024-11-08T07:00:00	6	Velocidad del viento	0
42738	7	Sololá	710	Panajachel	8	Panajachel	6	Junio	2023-06-14T00:00:00	2024-11-08T07:00:00	7	Dirección del viento	0
42739	7	Sololá	710	Panajachel	8	Panajachel	6	Junio	2023-06-14T00:00:00	2024-11-08T07:00:00	1	Precipitación	0
42740	7	Sololá	710	Panajachel	8	Panajachel	6	Junio	2023-06-14T00:00:00	2024-11-08T07:00:00	8	Radiación solar	108
42741	7	Sololá	710	Panajachel	8	Panajachel	6	Junio	2023-06-14T00:00:00	2024-11-08T08:00:00	2	Temperatura media	23
42742	7	Sololá	710	Panajachel	8	Panajachel	6	Junio	2023-06-14T00:00:00	2024-11-08T08:00:00	4	Temperatura máxima	23
42743	7	Sololá	710	Panajachel	8	Panajachel	6	Junio	2023-06-14T00:00:00	2024-11-08T08:00:00	3	Temperatura mínima	20.2
42744	7	Sololá	710	Panajachel	8	Panajachel	6	Junio	2023-06-14T00:00:00	2024-11-08T08:00:00	5	Humedad	71
42745	7	Sololá	710	Panajachel	8	Panajachel	6	Junio	2023-06-14T00:00:00	2024-11-08T08:00:00	6	Velocidad del viento	0
42746	7	Sololá	710	Panajachel	8	Panajachel	6	Junio	2023-06-14T00:00:00	2024-11-08T08:00:00	7	Dirección del viento	0
42747	7	Sololá	710	Panajachel	8	Panajachel	6	Junio	2023-06-14T00:00:00	2024-11-08T08:00:00	1	Precipitación	0
42748	7	Sololá	710	Panajachel	8	Panajachel	6	Junio	2023-06-14T00:00:00	2024-11-08T08:00:00	8	Radiación solar	281
42749	7	Sololá	710	Panajachel	8	Panajachel	6	Junio	2023-06-14T00:00:00	2024-11-08T09:00:00	2	Temperatura media	22.3
42750	7	Sololá	710	Panajachel	8	Panajachel	6	Junio	2023-06-14T00:00:00	2024-11-08T09:00:00	4	Temperatura máxima	23.2
42751	7	Sololá	710	Panajachel	8	Panajachel	6	Junio	2023-06-14T00:00:00	2024-11-08T09:00:00	3	Temperatura mínima	22.3
42752	7	Sololá	710	Panajachel	8	Panajachel	6	Junio	2023-06-14T00:00:00	2024-11-08T09:00:00	5	Humedad	77
42753	7	Sololá	710	Panajachel	8	Panajachel	6	Junio	2023-06-14T00:00:00	2024-11-08T09:00:00	6	Velocidad del viento	0
42754	7	Sololá	710	Panajachel	8	Panajachel	6	Junio	2023-06-14T00:00:00	2024-11-08T09:00:00	7	Dirección del viento	0
42755	7	Sololá	710	Panajachel	8	Panajachel	6	Junio	2023-06-14T00:00:00	2024-11-08T09:00:00	1	Precipitación	0
42756	7	Sololá	710	Panajachel	8	Panajachel	6	Junio	2023-06-14T00:00:00	2024-11-08T09:00:00	8	Radiación solar	504
42757	7	Sololá	710	Panajachel	8	Panajachel	6	Junio	2023-06-14T00:00:00	2024-11-08T10:00:00	2	Temperatura media	23.8
42758	7	Sololá	710	Panajachel	8	Panajachel	6	Junio	2023-06-14T00:00:00	2024-11-08T10:00:00	4	Temperatura máxima	23.8
42759	7	Sololá	710	Panajachel	8	Panajachel	6	Junio	2023-06-14T00:00:00	2024-11-08T10:00:00	3	Temperatura mínima	22.3
42760	7	Sololá	710	Panajachel	8	Panajachel	6	Junio	2023-06-14T00:00:00	2024-11-08T10:00:00	5	Humedad	73
42761	7	Sololá	710	Panajachel	8	Panajachel	6	Junio	2023-06-14T00:00:00	2024-11-08T10:00:00	6	Velocidad del viento	0
42762	7	Sololá	710	Panajachel	8	Panajachel	6	Junio	2023-06-14T00:00:00	2024-11-08T10:00:00	7	Dirección del viento	0
42763	7	Sololá	710	Panajachel	8	Panajachel	6	Junio	2023-06-14T00:00:00	2024-11-08T10:00:00	1	Precipitación	0
42764	7	Sololá	710	Panajachel	8	Panajachel	6	Junio	2023-06-14T00:00:00	2024-11-08T10:00:00	8	Radiación solar	704
42765	7	Sololá	710	Panajachel	8	Panajachel	6	Junio	2023-06-14T00:00:00	2024-11-08T11:00:00	2	Temperatura media	24.4
42766	7	Sololá	710	Panajachel	8	Panajachel	6	Junio	2023-06-14T00:00:00	2024-11-08T11:00:00	4	Temperatura máxima	24.7
42767	7	Sololá	710	Panajachel	8	Panajachel	6	Junio	2023-06-14T00:00:00	2024-11-08T11:00:00	3	Temperatura mínima	23.6
42768	7	Sololá	710	Panajachel	8	Panajachel	6	Junio	2023-06-14T00:00:00	2024-11-08T11:00:00	5	Humedad	78
42769	7	Sololá	710	Panajachel	8	Panajachel	6	Junio	2023-06-14T00:00:00	2024-11-08T11:00:00	6	Velocidad del viento	1.6
42770	7	Sololá	710	Panajachel	8	Panajachel	6	Junio	2023-06-14T00:00:00	2024-11-08T11:00:00	7	Dirección del viento	1.61
42771	7	Sololá	710	Panajachel	8	Panajachel	6	Junio	2023-06-14T00:00:00	2024-11-08T11:00:00	1	Precipitación	0
42772	7	Sololá	710	Panajachel	8	Panajachel	6	Junio	2023-06-14T00:00:00	2024-11-08T11:00:00	8	Radiación solar	885
42773	7	Sololá	710	Panajachel	8	Panajachel	6	Junio	2023-06-14T00:00:00	2024-11-08T12:00:00	2	Temperatura media	25.4
42774	7	Sololá	710	Panajachel	8	Panajachel	6	Junio	2023-06-14T00:00:00	2024-11-08T12:00:00	4	Temperatura máxima	25.4
42775	7	Sololá	710	Panajachel	8	Panajachel	6	Junio	2023-06-14T00:00:00	2024-11-08T12:00:00	3	Temperatura mínima	23.7
42776	7	Sololá	710	Panajachel	8	Panajachel	6	Junio	2023-06-14T00:00:00	2024-11-08T12:00:00	5	Humedad	74
42777	7	Sololá	710	Panajachel	8	Panajachel	6	Junio	2023-06-14T00:00:00	2024-11-08T12:00:00	6	Velocidad del viento	1.6
42778	7	Sololá	710	Panajachel	8	Panajachel	6	Junio	2023-06-14T00:00:00	2024-11-08T12:00:00	7	Dirección del viento	1.61
42779	7	Sololá	710	Panajachel	8	Panajachel	6	Junio	2023-06-14T00:00:00	2024-11-08T12:00:00	1	Precipitación	0
42780	7	Sololá	710	Panajachel	8	Panajachel	6	Junio	2023-06-14T00:00:00	2024-11-08T12:00:00	8	Radiación solar	768
42781	7	Sololá	710	Panajachel	8	Panajachel	6	Junio	2023-06-14T00:00:00	2024-11-08T13:00:00	2	Temperatura media	25.3
42782	7	Sololá	710	Panajachel	8	Panajachel	6	Junio	2023-06-14T00:00:00	2024-11-08T13:00:00	4	Temperatura máxima	25.4
42783	7	Sololá	710	Panajachel	8	Panajachel	6	Junio	2023-06-14T00:00:00	2024-11-08T13:00:00	3	Temperatura mínima	24.5
42784	7	Sololá	710	Panajachel	8	Panajachel	6	Junio	2023-06-14T00:00:00	2024-11-08T13:00:00	5	Humedad	75
42785	7	Sololá	710	Panajachel	8	Panajachel	6	Junio	2023-06-14T00:00:00	2024-11-08T13:00:00	6	Velocidad del viento	0
42786	7	Sololá	710	Panajachel	8	Panajachel	6	Junio	2023-06-14T00:00:00	2024-11-08T13:00:00	7	Dirección del viento	0
42787	7	Sololá	710	Panajachel	8	Panajachel	6	Junio	2023-06-14T00:00:00	2024-11-08T13:00:00	1	Precipitación	0
42788	7	Sololá	710	Panajachel	8	Panajachel	6	Junio	2023-06-14T00:00:00	2024-11-08T13:00:00	8	Radiación solar	824
42789	7	Sololá	710	Panajachel	8	Panajachel	6	Junio	2023-06-14T00:00:00	2024-11-08T14:00:00	2	Temperatura media	25.2
42790	7	Sololá	710	Panajachel	8	Panajachel	6	Junio	2023-06-14T00:00:00	2024-11-08T14:00:00	4	Temperatura máxima	25.9
42791	7	Sololá	710	Panajachel	8	Panajachel	6	Junio	2023-06-14T00:00:00	2024-11-08T14:00:00	3	Temperatura mínima	25.1
42792	7	Sololá	710	Panajachel	8	Panajachel	6	Junio	2023-06-14T00:00:00	2024-11-08T14:00:00	5	Humedad	78
42793	7	Sololá	710	Panajachel	8	Panajachel	6	Junio	2023-06-14T00:00:00	2024-11-08T14:00:00	6	Velocidad del viento	1.6
42794	7	Sololá	710	Panajachel	8	Panajachel	6	Junio	2023-06-14T00:00:00	2024-11-08T14:00:00	7	Dirección del viento	1.61
42795	7	Sololá	710	Panajachel	8	Panajachel	6	Junio	2023-06-14T00:00:00	2024-11-08T14:00:00	1	Precipitación	0
42796	7	Sololá	710	Panajachel	8	Panajachel	6	Junio	2023-06-14T00:00:00	2024-11-08T14:00:00	8	Radiación solar	878
42797	7	Sololá	710	Panajachel	8	Panajachel	6	Junio	2023-06-14T00:00:00	2024-11-08T15:00:00	2	Temperatura media	24
42798	7	Sololá	710	Panajachel	8	Panajachel	6	Junio	2023-06-14T00:00:00	2024-11-08T15:00:00	4	Temperatura máxima	25.2
42799	7	Sololá	710	Panajachel	8	Panajachel	6	Junio	2023-06-14T00:00:00	2024-11-08T15:00:00	3	Temperatura mínima	23.7
42800	7	Sololá	710	Panajachel	8	Panajachel	6	Junio	2023-06-14T00:00:00	2024-11-08T15:00:00	5	Humedad	82
42801	7	Sololá	710	Panajachel	8	Panajachel	6	Junio	2023-06-14T00:00:00	2024-11-08T15:00:00	6	Velocidad del viento	3.2
42802	7	Sololá	710	Panajachel	8	Panajachel	6	Junio	2023-06-14T00:00:00	2024-11-08T15:00:00	7	Dirección del viento	3.22
42803	7	Sololá	710	Panajachel	8	Panajachel	6	Junio	2023-06-14T00:00:00	2024-11-08T15:00:00	1	Precipitación	0
42804	7	Sololá	710	Panajachel	8	Panajachel	6	Junio	2023-06-14T00:00:00	2024-11-08T15:00:00	8	Radiación solar	389
42805	7	Sololá	710	Panajachel	8	Panajachel	6	Junio	2023-06-14T00:00:00	2024-11-08T16:00:00	2	Temperatura media	22.2
42806	7	Sololá	710	Panajachel	8	Panajachel	6	Junio	2023-06-14T00:00:00	2024-11-08T16:00:00	4	Temperatura máxima	24.4
42807	7	Sololá	710	Panajachel	8	Panajachel	6	Junio	2023-06-14T00:00:00	2024-11-08T16:00:00	3	Temperatura mínima	22.2
42808	7	Sololá	710	Panajachel	8	Panajachel	6	Junio	2023-06-14T00:00:00	2024-11-08T16:00:00	5	Humedad	90
42809	7	Sololá	710	Panajachel	8	Panajachel	6	Junio	2023-06-14T00:00:00	2024-11-08T16:00:00	6	Velocidad del viento	3.2
42810	7	Sololá	710	Panajachel	8	Panajachel	6	Junio	2023-06-14T00:00:00	2024-11-08T16:00:00	7	Dirección del viento	3.22
42811	7	Sololá	710	Panajachel	8	Panajachel	6	Junio	2023-06-14T00:00:00	2024-11-08T16:00:00	1	Precipitación	0
42812	7	Sololá	710	Panajachel	8	Panajachel	6	Junio	2023-06-14T00:00:00	2024-11-08T16:00:00	8	Radiación solar	262
42813	7	Sololá	710	Panajachel	8	Panajachel	6	Junio	2023-06-14T00:00:00	2024-11-08T17:00:00	2	Temperatura media	21.5
42814	7	Sololá	710	Panajachel	8	Panajachel	6	Junio	2023-06-14T00:00:00	2024-11-08T17:00:00	4	Temperatura máxima	22.2
42815	7	Sololá	710	Panajachel	8	Panajachel	6	Junio	2023-06-14T00:00:00	2024-11-08T17:00:00	3	Temperatura mínima	21.4
42816	7	Sololá	710	Panajachel	8	Panajachel	6	Junio	2023-06-14T00:00:00	2024-11-08T17:00:00	5	Humedad	89
42817	7	Sololá	710	Panajachel	8	Panajachel	6	Junio	2023-06-14T00:00:00	2024-11-08T17:00:00	6	Velocidad del viento	1.6
42818	7	Sololá	710	Panajachel	8	Panajachel	6	Junio	2023-06-14T00:00:00	2024-11-08T17:00:00	7	Dirección del viento	1.61
42819	7	Sololá	710	Panajachel	8	Panajachel	6	Junio	2023-06-14T00:00:00	2024-11-08T17:00:00	1	Precipitación	0
42820	7	Sololá	710	Panajachel	8	Panajachel	6	Junio	2023-06-14T00:00:00	2024-11-08T17:00:00	8	Radiación solar	63
42821	7	Sololá	710	Panajachel	8	Panajachel	6	Junio	2023-06-14T00:00:00	2024-11-08T18:00:00	2	Temperatura media	21.2
42822	7	Sololá	710	Panajachel	8	Panajachel	6	Junio	2023-06-14T00:00:00	2024-11-08T18:00:00	4	Temperatura máxima	21.6
42823	7	Sololá	710	Panajachel	8	Panajachel	6	Junio	2023-06-14T00:00:00	2024-11-08T18:00:00	3	Temperatura mínima	21.2
42824	7	Sololá	710	Panajachel	8	Panajachel	6	Junio	2023-06-14T00:00:00	2024-11-08T18:00:00	5	Humedad	90
42825	7	Sololá	710	Panajachel	8	Panajachel	6	Junio	2023-06-14T00:00:00	2024-11-08T18:00:00	6	Velocidad del viento	0
42826	7	Sololá	710	Panajachel	8	Panajachel	6	Junio	2023-06-14T00:00:00	2024-11-08T18:00:00	7	Dirección del viento	0
42827	7	Sololá	710	Panajachel	8	Panajachel	6	Junio	2023-06-14T00:00:00	2024-11-08T18:00:00	1	Precipitación	0
42828	7	Sololá	710	Panajachel	8	Panajachel	6	Junio	2023-06-14T00:00:00	2024-11-08T18:00:00	8	Radiación solar	53
42829	7	Sololá	710	Panajachel	8	Panajachel	6	Junio	2023-06-14T00:00:00	2024-11-08T19:00:00	2	Temperatura media	20.7
42830	7	Sololá	710	Panajachel	8	Panajachel	6	Junio	2023-06-14T00:00:00	2024-11-08T19:00:00	4	Temperatura máxima	21.2
42831	7	Sololá	710	Panajachel	8	Panajachel	6	Junio	2023-06-14T00:00:00	2024-11-08T19:00:00	3	Temperatura mínima	20.7
42832	7	Sololá	710	Panajachel	8	Panajachel	6	Junio	2023-06-14T00:00:00	2024-11-08T19:00:00	5	Humedad	91
42833	7	Sololá	710	Panajachel	8	Panajachel	6	Junio	2023-06-14T00:00:00	2024-11-08T19:00:00	6	Velocidad del viento	0
42834	7	Sololá	710	Panajachel	8	Panajachel	6	Junio	2023-06-14T00:00:00	2024-11-08T19:00:00	7	Dirección del viento	0
42835	7	Sololá	710	Panajachel	8	Panajachel	6	Junio	2023-06-14T00:00:00	2024-11-08T19:00:00	1	Precipitación	0
42836	7	Sololá	710	Panajachel	8	Panajachel	6	Junio	2023-06-14T00:00:00	2024-11-08T19:00:00	8	Radiación solar	0
42837	7	Sololá	710	Panajachel	8	Panajachel	6	Junio	2023-06-14T00:00:00	2024-11-08T20:00:00	2	Temperatura media	20.2
42838	7	Sololá	710	Panajachel	8	Panajachel	6	Junio	2023-06-14T00:00:00	2024-11-08T20:00:00	4	Temperatura máxima	20.7
42839	7	Sololá	710	Panajachel	8	Panajachel	6	Junio	2023-06-14T00:00:00	2024-11-08T20:00:00	3	Temperatura mínima	20.2
42840	7	Sololá	710	Panajachel	8	Panajachel	6	Junio	2023-06-14T00:00:00	2024-11-08T20:00:00	5	Humedad	91
42841	7	Sololá	710	Panajachel	8	Panajachel	6	Junio	2023-06-14T00:00:00	2024-11-08T20:00:00	6	Velocidad del viento	0
42842	7	Sololá	710	Panajachel	8	Panajachel	6	Junio	2023-06-14T00:00:00	2024-11-08T20:00:00	7	Dirección del viento	0
42843	7	Sololá	710	Panajachel	8	Panajachel	6	Junio	2023-06-14T00:00:00	2024-11-08T20:00:00	1	Precipitación	0
42844	7	Sololá	710	Panajachel	8	Panajachel	6	Junio	2023-06-14T00:00:00	2024-11-08T20:00:00	8	Radiación solar	0
42845	7	Sololá	710	Panajachel	8	Panajachel	6	Junio	2023-06-14T00:00:00	2024-11-08T21:00:00	2	Temperatura media	19.3
42846	7	Sololá	710	Panajachel	8	Panajachel	6	Junio	2023-06-14T00:00:00	2024-11-08T21:00:00	4	Temperatura máxima	20.2
42847	7	Sololá	710	Panajachel	8	Panajachel	6	Junio	2023-06-14T00:00:00	2024-11-08T21:00:00	3	Temperatura mínima	19.3
42848	7	Sololá	710	Panajachel	8	Panajachel	6	Junio	2023-06-14T00:00:00	2024-11-08T21:00:00	5	Humedad	90
42849	7	Sololá	710	Panajachel	8	Panajachel	6	Junio	2023-06-14T00:00:00	2024-11-08T21:00:00	6	Velocidad del viento	0
42850	7	Sololá	710	Panajachel	8	Panajachel	6	Junio	2023-06-14T00:00:00	2024-11-08T21:00:00	7	Dirección del viento	0
42851	7	Sololá	710	Panajachel	8	Panajachel	6	Junio	2023-06-14T00:00:00	2024-11-08T21:00:00	1	Precipitación	0
42852	7	Sololá	710	Panajachel	8	Panajachel	6	Junio	2023-06-14T00:00:00	2024-11-08T21:00:00	8	Radiación solar	0
42853	7	Sololá	710	Panajachel	8	Panajachel	6	Junio	2023-06-14T00:00:00	2024-11-08T22:00:00	2	Temperatura media	19.1
42854	7	Sololá	710	Panajachel	8	Panajachel	6	Junio	2023-06-14T00:00:00	2024-11-08T22:00:00	4	Temperatura máxima	19.3
42855	7	Sololá	710	Panajachel	8	Panajachel	6	Junio	2023-06-14T00:00:00	2024-11-08T22:00:00	3	Temperatura mínima	18.8
42856	7	Sololá	710	Panajachel	8	Panajachel	6	Junio	2023-06-14T00:00:00	2024-11-08T22:00:00	5	Humedad	89
42857	7	Sololá	710	Panajachel	8	Panajachel	6	Junio	2023-06-14T00:00:00	2024-11-08T22:00:00	6	Velocidad del viento	0
42858	7	Sololá	710	Panajachel	8	Panajachel	6	Junio	2023-06-14T00:00:00	2024-11-08T22:00:00	7	Dirección del viento	0
42859	7	Sololá	710	Panajachel	8	Panajachel	6	Junio	2023-06-14T00:00:00	2024-11-08T22:00:00	1	Precipitación	0
42860	7	Sololá	710	Panajachel	8	Panajachel	6	Junio	2023-06-14T00:00:00	2024-11-08T22:00:00	8	Radiación solar	0
42861	7	Sololá	710	Panajachel	8	Panajachel	6	Junio	2023-06-14T00:00:00	2024-11-08T23:00:00	2	Temperatura media	18.8
42862	7	Sololá	710	Panajachel	8	Panajachel	6	Junio	2023-06-14T00:00:00	2024-11-08T23:00:00	4	Temperatura máxima	19.1
42863	7	Sololá	710	Panajachel	8	Panajachel	6	Junio	2023-06-14T00:00:00	2024-11-08T23:00:00	3	Temperatura mínima	18.8
42864	7	Sololá	710	Panajachel	8	Panajachel	6	Junio	2023-06-14T00:00:00	2024-11-08T23:00:00	5	Humedad	86
42865	7	Sololá	710	Panajachel	8	Panajachel	6	Junio	2023-06-14T00:00:00	2024-11-08T23:00:00	6	Velocidad del viento	1.6
42866	7	Sololá	710	Panajachel	8	Panajachel	6	Junio	2023-06-14T00:00:00	2024-11-08T23:00:00	7	Dirección del viento	1.61
42867	7	Sololá	710	Panajachel	8	Panajachel	6	Junio	2023-06-14T00:00:00	2024-11-08T23:00:00	1	Precipitación	0
42868	7	Sololá	710	Panajachel	8	Panajachel	6	Junio	2023-06-14T00:00:00	2024-11-08T23:00:00	8	Radiación solar	0
42869	7	Sololá	710	Panajachel	8	Panajachel	6	Junio	2023-06-15T00:00:00	2024-11-08T00:00:00	2	Temperatura media	19.1
42870	7	Sololá	710	Panajachel	8	Panajachel	6	Junio	2023-06-15T00:00:00	2024-11-08T00:00:00	4	Temperatura máxima	19.1
42871	7	Sololá	710	Panajachel	8	Panajachel	6	Junio	2023-06-15T00:00:00	2024-11-08T00:00:00	3	Temperatura mínima	18.6
42872	7	Sololá	710	Panajachel	8	Panajachel	6	Junio	2023-06-15T00:00:00	2024-11-08T00:00:00	5	Humedad	86
42873	7	Sololá	710	Panajachel	8	Panajachel	6	Junio	2023-06-15T00:00:00	2024-11-08T00:00:00	6	Velocidad del viento	1.6
42874	7	Sololá	710	Panajachel	8	Panajachel	6	Junio	2023-06-15T00:00:00	2024-11-08T00:00:00	7	Dirección del viento	1.61
42875	7	Sololá	710	Panajachel	8	Panajachel	6	Junio	2023-06-15T00:00:00	2024-11-08T00:00:00	1	Precipitación	0
42876	7	Sololá	710	Panajachel	8	Panajachel	6	Junio	2023-06-15T00:00:00	2024-11-08T00:00:00	8	Radiación solar	0
42877	7	Sololá	710	Panajachel	8	Panajachel	6	Junio	2023-06-15T00:00:00	2024-11-08T01:00:00	2	Temperatura media	18.4
42878	7	Sololá	710	Panajachel	8	Panajachel	6	Junio	2023-06-15T00:00:00	2024-11-08T01:00:00	4	Temperatura máxima	19.2
42879	7	Sololá	710	Panajachel	8	Panajachel	6	Junio	2023-06-15T00:00:00	2024-11-08T01:00:00	3	Temperatura mínima	18.3
42880	7	Sololá	710	Panajachel	8	Panajachel	6	Junio	2023-06-15T00:00:00	2024-11-08T01:00:00	5	Humedad	87
42881	7	Sololá	710	Panajachel	8	Panajachel	6	Junio	2023-06-15T00:00:00	2024-11-08T01:00:00	6	Velocidad del viento	0
42882	7	Sololá	710	Panajachel	8	Panajachel	6	Junio	2023-06-15T00:00:00	2024-11-08T01:00:00	7	Dirección del viento	0
42883	7	Sololá	710	Panajachel	8	Panajachel	6	Junio	2023-06-15T00:00:00	2024-11-08T01:00:00	1	Precipitación	0
42884	7	Sololá	710	Panajachel	8	Panajachel	6	Junio	2023-06-15T00:00:00	2024-11-08T01:00:00	8	Radiación solar	0
42885	7	Sololá	710	Panajachel	8	Panajachel	6	Junio	2023-06-15T00:00:00	2024-11-08T02:00:00	2	Temperatura media	18.3
42886	7	Sololá	710	Panajachel	8	Panajachel	6	Junio	2023-06-15T00:00:00	2024-11-08T02:00:00	4	Temperatura máxima	18.5
42887	7	Sololá	710	Panajachel	8	Panajachel	6	Junio	2023-06-15T00:00:00	2024-11-08T02:00:00	3	Temperatura mínima	18.3
42888	7	Sololá	710	Panajachel	8	Panajachel	6	Junio	2023-06-15T00:00:00	2024-11-08T02:00:00	5	Humedad	85
42889	7	Sololá	710	Panajachel	8	Panajachel	6	Junio	2023-06-15T00:00:00	2024-11-08T02:00:00	6	Velocidad del viento	1.6
42890	7	Sololá	710	Panajachel	8	Panajachel	6	Junio	2023-06-15T00:00:00	2024-11-08T02:00:00	7	Dirección del viento	1.61
42891	7	Sololá	710	Panajachel	8	Panajachel	6	Junio	2023-06-15T00:00:00	2024-11-08T02:00:00	1	Precipitación	0
42892	7	Sololá	710	Panajachel	8	Panajachel	6	Junio	2023-06-15T00:00:00	2024-11-08T02:00:00	8	Radiación solar	0
42893	7	Sololá	710	Panajachel	8	Panajachel	6	Junio	2023-06-15T00:00:00	2024-11-08T03:00:00	2	Temperatura media	18.2
42894	7	Sololá	710	Panajachel	8	Panajachel	6	Junio	2023-06-15T00:00:00	2024-11-08T03:00:00	4	Temperatura máxima	18.6
42895	7	Sololá	710	Panajachel	8	Panajachel	6	Junio	2023-06-15T00:00:00	2024-11-08T03:00:00	3	Temperatura mínima	18.2
42896	7	Sololá	710	Panajachel	8	Panajachel	6	Junio	2023-06-15T00:00:00	2024-11-08T03:00:00	5	Humedad	85
42897	7	Sololá	710	Panajachel	8	Panajachel	6	Junio	2023-06-15T00:00:00	2024-11-08T03:00:00	6	Velocidad del viento	0
42898	7	Sololá	710	Panajachel	8	Panajachel	6	Junio	2023-06-15T00:00:00	2024-11-08T03:00:00	7	Dirección del viento	0
42899	7	Sololá	710	Panajachel	8	Panajachel	6	Junio	2023-06-15T00:00:00	2024-11-08T03:00:00	1	Precipitación	0
42900	7	Sololá	710	Panajachel	8	Panajachel	6	Junio	2023-06-15T00:00:00	2024-11-08T03:00:00	8	Radiación solar	0
42901	7	Sololá	710	Panajachel	8	Panajachel	6	Junio	2023-06-15T00:00:00	2024-11-08T04:00:00	2	Temperatura media	18.2
42902	7	Sololá	710	Panajachel	8	Panajachel	6	Junio	2023-06-15T00:00:00	2024-11-08T04:00:00	4	Temperatura máxima	18.4
42903	7	Sololá	710	Panajachel	8	Panajachel	6	Junio	2023-06-15T00:00:00	2024-11-08T04:00:00	3	Temperatura mínima	18.1
42904	7	Sololá	710	Panajachel	8	Panajachel	6	Junio	2023-06-15T00:00:00	2024-11-08T04:00:00	5	Humedad	83
42905	7	Sololá	710	Panajachel	8	Panajachel	6	Junio	2023-06-15T00:00:00	2024-11-08T04:00:00	6	Velocidad del viento	1.6
42906	7	Sololá	710	Panajachel	8	Panajachel	6	Junio	2023-06-15T00:00:00	2024-11-08T04:00:00	7	Dirección del viento	1.61
42907	7	Sololá	710	Panajachel	8	Panajachel	6	Junio	2023-06-15T00:00:00	2024-11-08T04:00:00	1	Precipitación	0
42908	7	Sololá	710	Panajachel	8	Panajachel	6	Junio	2023-06-15T00:00:00	2024-11-08T04:00:00	8	Radiación solar	0
42909	7	Sololá	710	Panajachel	8	Panajachel	6	Junio	2023-06-15T00:00:00	2024-11-08T05:00:00	2	Temperatura media	17.7
42910	7	Sololá	710	Panajachel	8	Panajachel	6	Junio	2023-06-15T00:00:00	2024-11-08T05:00:00	4	Temperatura máxima	18.2
42911	7	Sololá	710	Panajachel	8	Panajachel	6	Junio	2023-06-15T00:00:00	2024-11-08T05:00:00	3	Temperatura mínima	17.7
42912	7	Sololá	710	Panajachel	8	Panajachel	6	Junio	2023-06-15T00:00:00	2024-11-08T05:00:00	5	Humedad	87
42913	7	Sololá	710	Panajachel	8	Panajachel	6	Junio	2023-06-15T00:00:00	2024-11-08T05:00:00	6	Velocidad del viento	0
42914	7	Sololá	710	Panajachel	8	Panajachel	6	Junio	2023-06-15T00:00:00	2024-11-08T05:00:00	7	Dirección del viento	0
42915	7	Sololá	710	Panajachel	8	Panajachel	6	Junio	2023-06-15T00:00:00	2024-11-08T05:00:00	1	Precipitación	0
42916	7	Sololá	710	Panajachel	8	Panajachel	6	Junio	2023-06-15T00:00:00	2024-11-08T05:00:00	8	Radiación solar	0
42917	7	Sololá	710	Panajachel	8	Panajachel	6	Junio	2023-06-15T00:00:00	2024-11-08T06:00:00	2	Temperatura media	17.1
42918	7	Sololá	710	Panajachel	8	Panajachel	6	Junio	2023-06-15T00:00:00	2024-11-08T06:00:00	4	Temperatura máxima	17.7
42919	7	Sololá	710	Panajachel	8	Panajachel	6	Junio	2023-06-15T00:00:00	2024-11-08T06:00:00	3	Temperatura mínima	17
42920	7	Sololá	710	Panajachel	8	Panajachel	6	Junio	2023-06-15T00:00:00	2024-11-08T06:00:00	5	Humedad	86
42921	7	Sololá	710	Panajachel	8	Panajachel	6	Junio	2023-06-15T00:00:00	2024-11-08T06:00:00	6	Velocidad del viento	1.6
42922	7	Sololá	710	Panajachel	8	Panajachel	6	Junio	2023-06-15T00:00:00	2024-11-08T06:00:00	7	Dirección del viento	1.61
42923	7	Sololá	710	Panajachel	8	Panajachel	6	Junio	2023-06-15T00:00:00	2024-11-08T06:00:00	1	Precipitación	0
42924	7	Sololá	710	Panajachel	8	Panajachel	6	Junio	2023-06-15T00:00:00	2024-11-08T06:00:00	8	Radiación solar	5
42925	7	Sololá	710	Panajachel	8	Panajachel	6	Junio	2023-06-15T00:00:00	2024-11-08T07:00:00	2	Temperatura media	19.4
42926	7	Sololá	710	Panajachel	8	Panajachel	6	Junio	2023-06-15T00:00:00	2024-11-08T07:00:00	4	Temperatura máxima	19.4
42927	7	Sololá	710	Panajachel	8	Panajachel	6	Junio	2023-06-15T00:00:00	2024-11-08T07:00:00	3	Temperatura mínima	17.1
42928	7	Sololá	710	Panajachel	8	Panajachel	6	Junio	2023-06-15T00:00:00	2024-11-08T07:00:00	5	Humedad	80
42929	7	Sololá	710	Panajachel	8	Panajachel	6	Junio	2023-06-15T00:00:00	2024-11-08T07:00:00	6	Velocidad del viento	0
42930	7	Sololá	710	Panajachel	8	Panajachel	6	Junio	2023-06-15T00:00:00	2024-11-08T07:00:00	7	Dirección del viento	0
42931	7	Sololá	710	Panajachel	8	Panajachel	6	Junio	2023-06-15T00:00:00	2024-11-08T07:00:00	1	Precipitación	0
42932	7	Sololá	710	Panajachel	8	Panajachel	6	Junio	2023-06-15T00:00:00	2024-11-08T07:00:00	8	Radiación solar	108
42933	7	Sololá	710	Panajachel	8	Panajachel	6	Junio	2023-06-15T00:00:00	2024-11-08T08:00:00	2	Temperatura media	21.7
42934	7	Sololá	710	Panajachel	8	Panajachel	6	Junio	2023-06-15T00:00:00	2024-11-08T08:00:00	4	Temperatura máxima	22.2
42935	7	Sololá	710	Panajachel	8	Panajachel	6	Junio	2023-06-15T00:00:00	2024-11-08T08:00:00	3	Temperatura mínima	19.4
42936	7	Sololá	710	Panajachel	8	Panajachel	6	Junio	2023-06-15T00:00:00	2024-11-08T08:00:00	5	Humedad	81
42937	7	Sololá	710	Panajachel	8	Panajachel	6	Junio	2023-06-15T00:00:00	2024-11-08T08:00:00	6	Velocidad del viento	0
42938	7	Sololá	710	Panajachel	8	Panajachel	6	Junio	2023-06-15T00:00:00	2024-11-08T08:00:00	7	Dirección del viento	0
42939	7	Sololá	710	Panajachel	8	Panajachel	6	Junio	2023-06-15T00:00:00	2024-11-08T08:00:00	1	Precipitación	0
42940	7	Sololá	710	Panajachel	8	Panajachel	6	Junio	2023-06-15T00:00:00	2024-11-08T08:00:00	8	Radiación solar	326
42941	7	Sololá	710	Panajachel	8	Panajachel	6	Junio	2023-06-15T00:00:00	2024-11-08T09:00:00	2	Temperatura media	22.2
42942	7	Sololá	710	Panajachel	8	Panajachel	6	Junio	2023-06-15T00:00:00	2024-11-08T09:00:00	4	Temperatura máxima	22.2
42943	7	Sololá	710	Panajachel	8	Panajachel	6	Junio	2023-06-15T00:00:00	2024-11-08T09:00:00	3	Temperatura mínima	21.6
42944	7	Sololá	710	Panajachel	8	Panajachel	6	Junio	2023-06-15T00:00:00	2024-11-08T09:00:00	5	Humedad	81
42945	7	Sololá	710	Panajachel	8	Panajachel	6	Junio	2023-06-15T00:00:00	2024-11-08T09:00:00	6	Velocidad del viento	0
42946	7	Sololá	710	Panajachel	8	Panajachel	6	Junio	2023-06-15T00:00:00	2024-11-08T09:00:00	7	Dirección del viento	0
42947	7	Sololá	710	Panajachel	8	Panajachel	6	Junio	2023-06-15T00:00:00	2024-11-08T09:00:00	1	Precipitación	0
42948	7	Sololá	710	Panajachel	8	Panajachel	6	Junio	2023-06-15T00:00:00	2024-11-08T09:00:00	8	Radiación solar	536
42949	7	Sololá	710	Panajachel	8	Panajachel	6	Junio	2023-06-15T00:00:00	2024-11-08T10:00:00	2	Temperatura media	23.2
42950	7	Sololá	710	Panajachel	8	Panajachel	6	Junio	2023-06-15T00:00:00	2024-11-08T10:00:00	4	Temperatura máxima	23.2
42951	7	Sololá	710	Panajachel	8	Panajachel	6	Junio	2023-06-15T00:00:00	2024-11-08T10:00:00	3	Temperatura mínima	22.2
42952	7	Sololá	710	Panajachel	8	Panajachel	6	Junio	2023-06-15T00:00:00	2024-11-08T10:00:00	5	Humedad	74
42953	7	Sololá	710	Panajachel	8	Panajachel	6	Junio	2023-06-15T00:00:00	2024-11-08T10:00:00	6	Velocidad del viento	0
42954	7	Sololá	710	Panajachel	8	Panajachel	6	Junio	2023-06-15T00:00:00	2024-11-08T10:00:00	7	Dirección del viento	0
42955	7	Sololá	710	Panajachel	8	Panajachel	6	Junio	2023-06-15T00:00:00	2024-11-08T10:00:00	1	Precipitación	0
42956	7	Sololá	710	Panajachel	8	Panajachel	6	Junio	2023-06-15T00:00:00	2024-11-08T10:00:00	8	Radiación solar	712
42957	7	Sololá	710	Panajachel	8	Panajachel	6	Junio	2023-06-15T00:00:00	2024-11-08T11:00:00	2	Temperatura media	22.9
42958	7	Sololá	710	Panajachel	8	Panajachel	6	Junio	2023-06-15T00:00:00	2024-11-08T11:00:00	4	Temperatura máxima	24.2
42959	7	Sololá	710	Panajachel	8	Panajachel	6	Junio	2023-06-15T00:00:00	2024-11-08T11:00:00	3	Temperatura mínima	22.9
42960	7	Sololá	710	Panajachel	8	Panajachel	6	Junio	2023-06-15T00:00:00	2024-11-08T11:00:00	5	Humedad	79
42961	7	Sololá	710	Panajachel	8	Panajachel	6	Junio	2023-06-15T00:00:00	2024-11-08T11:00:00	6	Velocidad del viento	0
42962	7	Sololá	710	Panajachel	8	Panajachel	6	Junio	2023-06-15T00:00:00	2024-11-08T11:00:00	7	Dirección del viento	0
42963	7	Sololá	710	Panajachel	8	Panajachel	6	Junio	2023-06-15T00:00:00	2024-11-08T11:00:00	1	Precipitación	0
42964	7	Sololá	710	Panajachel	8	Panajachel	6	Junio	2023-06-15T00:00:00	2024-11-08T11:00:00	8	Radiación solar	756
42965	7	Sololá	710	Panajachel	8	Panajachel	6	Junio	2023-06-15T00:00:00	2024-11-08T12:00:00	2	Temperatura media	24.4
42966	7	Sololá	710	Panajachel	8	Panajachel	6	Junio	2023-06-15T00:00:00	2024-11-08T12:00:00	4	Temperatura máxima	24.4
42967	7	Sololá	710	Panajachel	8	Panajachel	6	Junio	2023-06-15T00:00:00	2024-11-08T12:00:00	3	Temperatura mínima	22.7
42968	7	Sololá	710	Panajachel	8	Panajachel	6	Junio	2023-06-15T00:00:00	2024-11-08T12:00:00	5	Humedad	77
42969	7	Sololá	710	Panajachel	8	Panajachel	6	Junio	2023-06-15T00:00:00	2024-11-08T12:00:00	6	Velocidad del viento	0
42970	7	Sololá	710	Panajachel	8	Panajachel	6	Junio	2023-06-15T00:00:00	2024-11-08T12:00:00	7	Dirección del viento	0
42971	7	Sololá	710	Panajachel	8	Panajachel	6	Junio	2023-06-15T00:00:00	2024-11-08T12:00:00	1	Precipitación	0
42972	7	Sololá	710	Panajachel	8	Panajachel	6	Junio	2023-06-15T00:00:00	2024-11-08T12:00:00	8	Radiación solar	464
42973	7	Sololá	710	Panajachel	8	Panajachel	6	Junio	2023-06-15T00:00:00	2024-11-08T13:00:00	2	Temperatura media	24.1
42974	7	Sololá	710	Panajachel	8	Panajachel	6	Junio	2023-06-15T00:00:00	2024-11-08T13:00:00	4	Temperatura máxima	24.5
42975	7	Sololá	710	Panajachel	8	Panajachel	6	Junio	2023-06-15T00:00:00	2024-11-08T13:00:00	3	Temperatura mínima	23.7
42976	7	Sololá	710	Panajachel	8	Panajachel	6	Junio	2023-06-15T00:00:00	2024-11-08T13:00:00	5	Humedad	79
42977	7	Sololá	710	Panajachel	8	Panajachel	6	Junio	2023-06-15T00:00:00	2024-11-08T13:00:00	6	Velocidad del viento	0
42978	7	Sololá	710	Panajachel	8	Panajachel	6	Junio	2023-06-15T00:00:00	2024-11-08T13:00:00	7	Dirección del viento	0
42979	7	Sololá	710	Panajachel	8	Panajachel	6	Junio	2023-06-15T00:00:00	2024-11-08T13:00:00	1	Precipitación	0
42980	7	Sololá	710	Panajachel	8	Panajachel	6	Junio	2023-06-15T00:00:00	2024-11-08T13:00:00	8	Radiación solar	428
42981	7	Sololá	710	Panajachel	8	Panajachel	6	Junio	2023-06-15T00:00:00	2024-11-08T14:00:00	2	Temperatura media	24.6
42982	7	Sololá	710	Panajachel	8	Panajachel	6	Junio	2023-06-15T00:00:00	2024-11-08T14:00:00	4	Temperatura máxima	24.8
42983	7	Sololá	710	Panajachel	8	Panajachel	6	Junio	2023-06-15T00:00:00	2024-11-08T14:00:00	3	Temperatura mínima	23.9
42984	7	Sololá	710	Panajachel	8	Panajachel	6	Junio	2023-06-15T00:00:00	2024-11-08T14:00:00	5	Humedad	80
42985	7	Sololá	710	Panajachel	8	Panajachel	6	Junio	2023-06-15T00:00:00	2024-11-08T14:00:00	6	Velocidad del viento	1.6
42986	7	Sololá	710	Panajachel	8	Panajachel	6	Junio	2023-06-15T00:00:00	2024-11-08T14:00:00	7	Dirección del viento	1.61
42987	7	Sololá	710	Panajachel	8	Panajachel	6	Junio	2023-06-15T00:00:00	2024-11-08T14:00:00	1	Precipitación	0
42988	7	Sololá	710	Panajachel	8	Panajachel	6	Junio	2023-06-15T00:00:00	2024-11-08T14:00:00	8	Radiación solar	603
42989	7	Sololá	710	Panajachel	8	Panajachel	6	Junio	2023-06-15T00:00:00	2024-11-08T15:00:00	2	Temperatura media	24.6
42990	7	Sololá	710	Panajachel	8	Panajachel	6	Junio	2023-06-15T00:00:00	2024-11-08T15:00:00	4	Temperatura máxima	24.9
42991	7	Sololá	710	Panajachel	8	Panajachel	6	Junio	2023-06-15T00:00:00	2024-11-08T15:00:00	3	Temperatura mínima	23.7
42992	7	Sololá	710	Panajachel	8	Panajachel	6	Junio	2023-06-15T00:00:00	2024-11-08T15:00:00	5	Humedad	80
42993	7	Sololá	710	Panajachel	8	Panajachel	6	Junio	2023-06-15T00:00:00	2024-11-08T15:00:00	6	Velocidad del viento	1.6
42994	7	Sololá	710	Panajachel	8	Panajachel	6	Junio	2023-06-15T00:00:00	2024-11-08T15:00:00	7	Dirección del viento	1.61
42995	7	Sololá	710	Panajachel	8	Panajachel	6	Junio	2023-06-15T00:00:00	2024-11-08T15:00:00	1	Precipitación	0
42996	7	Sololá	710	Panajachel	8	Panajachel	6	Junio	2023-06-15T00:00:00	2024-11-08T15:00:00	8	Radiación solar	505
42997	7	Sololá	710	Panajachel	8	Panajachel	6	Junio	2023-06-15T00:00:00	2024-11-08T16:00:00	2	Temperatura media	24.1
42998	7	Sololá	710	Panajachel	8	Panajachel	6	Junio	2023-06-15T00:00:00	2024-11-08T16:00:00	4	Temperatura máxima	24.6
42999	7	Sololá	710	Panajachel	8	Panajachel	6	Junio	2023-06-15T00:00:00	2024-11-08T16:00:00	3	Temperatura mínima	23.9
43000	7	Sololá	710	Panajachel	8	Panajachel	6	Junio	2023-06-15T00:00:00	2024-11-08T16:00:00	5	Humedad	81
43001	7	Sololá	710	Panajachel	8	Panajachel	6	Junio	2023-06-15T00:00:00	2024-11-08T16:00:00	6	Velocidad del viento	0
43002	7	Sololá	710	Panajachel	8	Panajachel	6	Junio	2023-06-15T00:00:00	2024-11-08T16:00:00	7	Dirección del viento	0
43003	7	Sololá	710	Panajachel	8	Panajachel	6	Junio	2023-06-15T00:00:00	2024-11-08T16:00:00	1	Precipitación	0
43004	7	Sololá	710	Panajachel	8	Panajachel	6	Junio	2023-06-15T00:00:00	2024-11-08T16:00:00	8	Radiación solar	425
43005	7	Sololá	710	Panajachel	8	Panajachel	6	Junio	2023-06-15T00:00:00	2024-11-08T17:00:00	2	Temperatura media	22.8
43006	7	Sololá	710	Panajachel	8	Panajachel	6	Junio	2023-06-15T00:00:00	2024-11-08T17:00:00	4	Temperatura máxima	24.1
43007	7	Sololá	710	Panajachel	8	Panajachel	6	Junio	2023-06-15T00:00:00	2024-11-08T17:00:00	3	Temperatura mínima	22.8
43008	7	Sololá	710	Panajachel	8	Panajachel	6	Junio	2023-06-15T00:00:00	2024-11-08T17:00:00	5	Humedad	86
43009	7	Sololá	710	Panajachel	8	Panajachel	6	Junio	2023-06-15T00:00:00	2024-11-08T17:00:00	6	Velocidad del viento	1.6
43010	7	Sololá	710	Panajachel	8	Panajachel	6	Junio	2023-06-15T00:00:00	2024-11-08T17:00:00	7	Dirección del viento	1.61
43011	7	Sololá	710	Panajachel	8	Panajachel	6	Junio	2023-06-15T00:00:00	2024-11-08T17:00:00	1	Precipitación	0
43012	7	Sololá	710	Panajachel	8	Panajachel	6	Junio	2023-06-15T00:00:00	2024-11-08T17:00:00	8	Radiación solar	169
43013	7	Sololá	710	Panajachel	8	Panajachel	6	Junio	2023-06-15T00:00:00	2024-11-08T18:00:00	2	Temperatura media	21.2
43014	7	Sololá	710	Panajachel	8	Panajachel	6	Junio	2023-06-15T00:00:00	2024-11-08T18:00:00	4	Temperatura máxima	22.8
43015	7	Sololá	710	Panajachel	8	Panajachel	6	Junio	2023-06-15T00:00:00	2024-11-08T18:00:00	3	Temperatura mínima	21
43016	7	Sololá	710	Panajachel	8	Panajachel	6	Junio	2023-06-15T00:00:00	2024-11-08T18:00:00	5	Humedad	93
43017	7	Sololá	710	Panajachel	8	Panajachel	6	Junio	2023-06-15T00:00:00	2024-11-08T18:00:00	6	Velocidad del viento	4.8
43018	7	Sololá	710	Panajachel	8	Panajachel	6	Junio	2023-06-15T00:00:00	2024-11-08T18:00:00	7	Dirección del viento	4.83
43019	7	Sololá	710	Panajachel	8	Panajachel	6	Junio	2023-06-15T00:00:00	2024-11-08T18:00:00	1	Precipitación	0
43020	7	Sololá	710	Panajachel	8	Panajachel	6	Junio	2023-06-15T00:00:00	2024-11-08T18:00:00	8	Radiación solar	73
43021	7	Sololá	710	Panajachel	8	Panajachel	6	Junio	2023-06-15T00:00:00	2024-11-08T19:00:00	2	Temperatura media	20.9
43022	7	Sololá	710	Panajachel	8	Panajachel	6	Junio	2023-06-15T00:00:00	2024-11-08T19:00:00	4	Temperatura máxima	21.3
43023	7	Sololá	710	Panajachel	8	Panajachel	6	Junio	2023-06-15T00:00:00	2024-11-08T19:00:00	3	Temperatura mínima	20.8
43024	7	Sololá	710	Panajachel	8	Panajachel	6	Junio	2023-06-15T00:00:00	2024-11-08T19:00:00	5	Humedad	92
43025	7	Sololá	710	Panajachel	8	Panajachel	6	Junio	2023-06-15T00:00:00	2024-11-08T19:00:00	6	Velocidad del viento	0
43026	7	Sololá	710	Panajachel	8	Panajachel	6	Junio	2023-06-15T00:00:00	2024-11-08T19:00:00	7	Dirección del viento	0
43027	7	Sololá	710	Panajachel	8	Panajachel	6	Junio	2023-06-15T00:00:00	2024-11-08T19:00:00	1	Precipitación	0
43028	7	Sololá	710	Panajachel	8	Panajachel	6	Junio	2023-06-15T00:00:00	2024-11-08T19:00:00	8	Radiación solar	0
43029	7	Sololá	710	Panajachel	8	Panajachel	6	Junio	2023-06-15T00:00:00	2024-11-08T20:00:00	2	Temperatura media	20.6
43030	7	Sololá	710	Panajachel	8	Panajachel	6	Junio	2023-06-15T00:00:00	2024-11-08T20:00:00	4	Temperatura máxima	21.2
43031	7	Sololá	710	Panajachel	8	Panajachel	6	Junio	2023-06-15T00:00:00	2024-11-08T20:00:00	3	Temperatura mínima	20.6
43032	7	Sololá	710	Panajachel	8	Panajachel	6	Junio	2023-06-15T00:00:00	2024-11-08T20:00:00	5	Humedad	94
43033	7	Sololá	710	Panajachel	8	Panajachel	6	Junio	2023-06-15T00:00:00	2024-11-08T20:00:00	6	Velocidad del viento	1.6
43034	7	Sololá	710	Panajachel	8	Panajachel	6	Junio	2023-06-15T00:00:00	2024-11-08T20:00:00	7	Dirección del viento	1.61
43035	7	Sololá	710	Panajachel	8	Panajachel	6	Junio	2023-06-15T00:00:00	2024-11-08T20:00:00	1	Precipitación	0
43036	7	Sololá	710	Panajachel	8	Panajachel	6	Junio	2023-06-15T00:00:00	2024-11-08T20:00:00	8	Radiación solar	0
43037	7	Sololá	710	Panajachel	8	Panajachel	6	Junio	2023-06-15T00:00:00	2024-11-08T21:00:00	2	Temperatura media	20.2
43038	7	Sololá	710	Panajachel	8	Panajachel	6	Junio	2023-06-15T00:00:00	2024-11-08T21:00:00	4	Temperatura máxima	20.6
43039	7	Sololá	710	Panajachel	8	Panajachel	6	Junio	2023-06-15T00:00:00	2024-11-08T21:00:00	3	Temperatura mínima	20.2
43040	7	Sololá	710	Panajachel	8	Panajachel	6	Junio	2023-06-15T00:00:00	2024-11-08T21:00:00	5	Humedad	95
43041	7	Sololá	710	Panajachel	8	Panajachel	6	Junio	2023-06-15T00:00:00	2024-11-08T21:00:00	6	Velocidad del viento	1.6
43042	7	Sololá	710	Panajachel	8	Panajachel	6	Junio	2023-06-15T00:00:00	2024-11-08T21:00:00	7	Dirección del viento	1.61
43043	7	Sololá	710	Panajachel	8	Panajachel	6	Junio	2023-06-15T00:00:00	2024-11-08T21:00:00	1	Precipitación	1.8
43044	7	Sololá	710	Panajachel	8	Panajachel	6	Junio	2023-06-15T00:00:00	2024-11-08T21:00:00	8	Radiación solar	0
43045	7	Sololá	710	Panajachel	8	Panajachel	6	Junio	2023-06-15T00:00:00	2024-11-08T22:00:00	2	Temperatura media	19.8
43046	7	Sololá	710	Panajachel	8	Panajachel	6	Junio	2023-06-15T00:00:00	2024-11-08T22:00:00	4	Temperatura máxima	20.2
43047	7	Sololá	710	Panajachel	8	Panajachel	6	Junio	2023-06-15T00:00:00	2024-11-08T22:00:00	3	Temperatura mínima	19.8
43048	7	Sololá	710	Panajachel	8	Panajachel	6	Junio	2023-06-15T00:00:00	2024-11-08T22:00:00	5	Humedad	97
43049	7	Sololá	710	Panajachel	8	Panajachel	6	Junio	2023-06-15T00:00:00	2024-11-08T22:00:00	6	Velocidad del viento	0
43050	7	Sololá	710	Panajachel	8	Panajachel	6	Junio	2023-06-15T00:00:00	2024-11-08T22:00:00	7	Dirección del viento	0
43051	7	Sololá	710	Panajachel	8	Panajachel	6	Junio	2023-06-15T00:00:00	2024-11-08T22:00:00	1	Precipitación	2.4
43052	7	Sololá	710	Panajachel	8	Panajachel	6	Junio	2023-06-15T00:00:00	2024-11-08T22:00:00	8	Radiación solar	0
43053	7	Sololá	710	Panajachel	8	Panajachel	6	Junio	2023-06-15T00:00:00	2024-11-08T23:00:00	2	Temperatura media	19.1
43054	7	Sololá	710	Panajachel	8	Panajachel	6	Junio	2023-06-15T00:00:00	2024-11-08T23:00:00	4	Temperatura máxima	19.8
43055	7	Sololá	710	Panajachel	8	Panajachel	6	Junio	2023-06-15T00:00:00	2024-11-08T23:00:00	3	Temperatura mínima	18.9
43056	7	Sololá	710	Panajachel	8	Panajachel	6	Junio	2023-06-15T00:00:00	2024-11-08T23:00:00	5	Humedad	93
43057	7	Sololá	710	Panajachel	8	Panajachel	6	Junio	2023-06-15T00:00:00	2024-11-08T23:00:00	6	Velocidad del viento	0
43058	7	Sololá	710	Panajachel	8	Panajachel	6	Junio	2023-06-15T00:00:00	2024-11-08T23:00:00	7	Dirección del viento	0
43059	7	Sololá	710	Panajachel	8	Panajachel	6	Junio	2023-06-15T00:00:00	2024-11-08T23:00:00	1	Precipitación	0.2
43060	7	Sololá	710	Panajachel	8	Panajachel	6	Junio	2023-06-15T00:00:00	2024-11-08T23:00:00	8	Radiación solar	0
43061	7	Sololá	710	Panajachel	8	Panajachel	6	Junio	2023-06-16T00:00:00	2024-11-08T00:00:00	2	Temperatura media	18.8
43062	7	Sololá	710	Panajachel	8	Panajachel	6	Junio	2023-06-16T00:00:00	2024-11-08T00:00:00	4	Temperatura máxima	19.2
43063	7	Sololá	710	Panajachel	8	Panajachel	6	Junio	2023-06-16T00:00:00	2024-11-08T00:00:00	3	Temperatura mínima	18.8
43064	7	Sololá	710	Panajachel	8	Panajachel	6	Junio	2023-06-16T00:00:00	2024-11-08T00:00:00	5	Humedad	94
43065	7	Sololá	710	Panajachel	8	Panajachel	6	Junio	2023-06-16T00:00:00	2024-11-08T00:00:00	6	Velocidad del viento	0
43066	7	Sololá	710	Panajachel	8	Panajachel	6	Junio	2023-06-16T00:00:00	2024-11-08T00:00:00	7	Dirección del viento	0
43067	7	Sololá	710	Panajachel	8	Panajachel	6	Junio	2023-06-16T00:00:00	2024-11-08T00:00:00	1	Precipitación	0
43068	7	Sololá	710	Panajachel	8	Panajachel	6	Junio	2023-06-16T00:00:00	2024-11-08T00:00:00	8	Radiación solar	0
43069	7	Sololá	710	Panajachel	8	Panajachel	6	Junio	2023-06-16T00:00:00	2024-11-08T01:00:00	2	Temperatura media	18.9
43070	7	Sololá	710	Panajachel	8	Panajachel	6	Junio	2023-06-16T00:00:00	2024-11-08T01:00:00	4	Temperatura máxima	18.9
43071	7	Sololá	710	Panajachel	8	Panajachel	6	Junio	2023-06-16T00:00:00	2024-11-08T01:00:00	3	Temperatura mínima	18.8
43072	7	Sololá	710	Panajachel	8	Panajachel	6	Junio	2023-06-16T00:00:00	2024-11-08T01:00:00	5	Humedad	97
43073	7	Sololá	710	Panajachel	8	Panajachel	6	Junio	2023-06-16T00:00:00	2024-11-08T01:00:00	6	Velocidad del viento	0
43074	7	Sololá	710	Panajachel	8	Panajachel	6	Junio	2023-06-16T00:00:00	2024-11-08T01:00:00	7	Dirección del viento	0
43075	7	Sololá	710	Panajachel	8	Panajachel	6	Junio	2023-06-16T00:00:00	2024-11-08T01:00:00	1	Precipitación	0
43076	7	Sololá	710	Panajachel	8	Panajachel	6	Junio	2023-06-16T00:00:00	2024-11-08T01:00:00	8	Radiación solar	0
43077	7	Sololá	710	Panajachel	8	Panajachel	6	Junio	2023-06-16T00:00:00	2024-11-08T02:00:00	2	Temperatura media	18.6
43078	7	Sololá	710	Panajachel	8	Panajachel	6	Junio	2023-06-16T00:00:00	2024-11-08T02:00:00	4	Temperatura máxima	18.9
43079	7	Sololá	710	Panajachel	8	Panajachel	6	Junio	2023-06-16T00:00:00	2024-11-08T02:00:00	3	Temperatura mínima	18.5
43080	7	Sololá	710	Panajachel	8	Panajachel	6	Junio	2023-06-16T00:00:00	2024-11-08T02:00:00	5	Humedad	94
43081	7	Sololá	710	Panajachel	8	Panajachel	6	Junio	2023-06-16T00:00:00	2024-11-08T02:00:00	6	Velocidad del viento	0
43082	7	Sololá	710	Panajachel	8	Panajachel	6	Junio	2023-06-16T00:00:00	2024-11-08T02:00:00	7	Dirección del viento	0
43083	7	Sololá	710	Panajachel	8	Panajachel	6	Junio	2023-06-16T00:00:00	2024-11-08T02:00:00	1	Precipitación	0
43084	7	Sololá	710	Panajachel	8	Panajachel	6	Junio	2023-06-16T00:00:00	2024-11-08T02:00:00	8	Radiación solar	0
43085	7	Sololá	710	Panajachel	8	Panajachel	6	Junio	2023-06-16T00:00:00	2024-11-08T03:00:00	2	Temperatura media	18.3
43086	7	Sololá	710	Panajachel	8	Panajachel	6	Junio	2023-06-16T00:00:00	2024-11-08T03:00:00	4	Temperatura máxima	18.8
43087	7	Sololá	710	Panajachel	8	Panajachel	6	Junio	2023-06-16T00:00:00	2024-11-08T03:00:00	3	Temperatura mínima	18.3
43088	7	Sololá	710	Panajachel	8	Panajachel	6	Junio	2023-06-16T00:00:00	2024-11-08T03:00:00	5	Humedad	94
43089	7	Sololá	710	Panajachel	8	Panajachel	6	Junio	2023-06-16T00:00:00	2024-11-08T03:00:00	6	Velocidad del viento	0
43090	7	Sololá	710	Panajachel	8	Panajachel	6	Junio	2023-06-16T00:00:00	2024-11-08T03:00:00	7	Dirección del viento	0
43091	7	Sololá	710	Panajachel	8	Panajachel	6	Junio	2023-06-16T00:00:00	2024-11-08T03:00:00	1	Precipitación	0
43092	7	Sololá	710	Panajachel	8	Panajachel	6	Junio	2023-06-16T00:00:00	2024-11-08T03:00:00	8	Radiación solar	0
43093	7	Sololá	710	Panajachel	8	Panajachel	6	Junio	2023-06-16T00:00:00	2024-11-08T04:00:00	2	Temperatura media	17.8
43094	7	Sololá	710	Panajachel	8	Panajachel	6	Junio	2023-06-16T00:00:00	2024-11-08T04:00:00	4	Temperatura máxima	18.3
43095	7	Sololá	710	Panajachel	8	Panajachel	6	Junio	2023-06-16T00:00:00	2024-11-08T04:00:00	3	Temperatura mínima	17.7
43096	7	Sololá	710	Panajachel	8	Panajachel	6	Junio	2023-06-16T00:00:00	2024-11-08T04:00:00	5	Humedad	93
43097	7	Sololá	710	Panajachel	8	Panajachel	6	Junio	2023-06-16T00:00:00	2024-11-08T04:00:00	6	Velocidad del viento	1.6
43098	7	Sololá	710	Panajachel	8	Panajachel	6	Junio	2023-06-16T00:00:00	2024-11-08T04:00:00	7	Dirección del viento	1.61
43099	7	Sololá	710	Panajachel	8	Panajachel	6	Junio	2023-06-16T00:00:00	2024-11-08T04:00:00	1	Precipitación	0
43100	7	Sololá	710	Panajachel	8	Panajachel	6	Junio	2023-06-16T00:00:00	2024-11-08T04:00:00	8	Radiación solar	0
43101	7	Sololá	710	Panajachel	8	Panajachel	6	Junio	2023-06-16T00:00:00	2024-11-08T05:00:00	2	Temperatura media	17.6
43102	7	Sololá	710	Panajachel	8	Panajachel	6	Junio	2023-06-16T00:00:00	2024-11-08T05:00:00	4	Temperatura máxima	17.8
43103	7	Sololá	710	Panajachel	8	Panajachel	6	Junio	2023-06-16T00:00:00	2024-11-08T05:00:00	3	Temperatura mínima	17.4
43104	7	Sololá	710	Panajachel	8	Panajachel	6	Junio	2023-06-16T00:00:00	2024-11-08T05:00:00	5	Humedad	91
43105	7	Sololá	710	Panajachel	8	Panajachel	6	Junio	2023-06-16T00:00:00	2024-11-08T05:00:00	6	Velocidad del viento	1.6
43106	7	Sololá	710	Panajachel	8	Panajachel	6	Junio	2023-06-16T00:00:00	2024-11-08T05:00:00	7	Dirección del viento	1.61
43107	7	Sololá	710	Panajachel	8	Panajachel	6	Junio	2023-06-16T00:00:00	2024-11-08T05:00:00	1	Precipitación	0
43108	7	Sololá	710	Panajachel	8	Panajachel	6	Junio	2023-06-16T00:00:00	2024-11-08T05:00:00	8	Radiación solar	0
43109	7	Sololá	710	Panajachel	8	Panajachel	6	Junio	2023-06-16T00:00:00	2024-11-08T06:00:00	2	Temperatura media	16.8
43110	7	Sololá	710	Panajachel	8	Panajachel	6	Junio	2023-06-16T00:00:00	2024-11-08T06:00:00	4	Temperatura máxima	17.7
43111	7	Sololá	710	Panajachel	8	Panajachel	6	Junio	2023-06-16T00:00:00	2024-11-08T06:00:00	3	Temperatura mínima	16.7
43112	7	Sololá	710	Panajachel	8	Panajachel	6	Junio	2023-06-16T00:00:00	2024-11-08T06:00:00	5	Humedad	92
43113	7	Sololá	710	Panajachel	8	Panajachel	6	Junio	2023-06-16T00:00:00	2024-11-08T06:00:00	6	Velocidad del viento	3.2
43114	7	Sololá	710	Panajachel	8	Panajachel	6	Junio	2023-06-16T00:00:00	2024-11-08T06:00:00	7	Dirección del viento	3.22
43115	7	Sololá	710	Panajachel	8	Panajachel	6	Junio	2023-06-16T00:00:00	2024-11-08T06:00:00	1	Precipitación	0
43116	7	Sololá	710	Panajachel	8	Panajachel	6	Junio	2023-06-16T00:00:00	2024-11-08T06:00:00	8	Radiación solar	4
43117	7	Sololá	710	Panajachel	8	Panajachel	6	Junio	2023-06-16T00:00:00	2024-11-08T07:00:00	2	Temperatura media	19.1
43118	7	Sololá	710	Panajachel	8	Panajachel	6	Junio	2023-06-16T00:00:00	2024-11-08T07:00:00	4	Temperatura máxima	19.1
43119	7	Sololá	710	Panajachel	8	Panajachel	6	Junio	2023-06-16T00:00:00	2024-11-08T07:00:00	3	Temperatura mínima	16.7
43120	7	Sololá	710	Panajachel	8	Panajachel	6	Junio	2023-06-16T00:00:00	2024-11-08T07:00:00	5	Humedad	84
43121	7	Sololá	710	Panajachel	8	Panajachel	6	Junio	2023-06-16T00:00:00	2024-11-08T07:00:00	6	Velocidad del viento	3.2
43122	7	Sololá	710	Panajachel	8	Panajachel	6	Junio	2023-06-16T00:00:00	2024-11-08T07:00:00	7	Dirección del viento	3.22
43123	7	Sololá	710	Panajachel	8	Panajachel	6	Junio	2023-06-16T00:00:00	2024-11-08T07:00:00	1	Precipitación	0
43124	7	Sololá	710	Panajachel	8	Panajachel	6	Junio	2023-06-16T00:00:00	2024-11-08T07:00:00	8	Radiación solar	107
43125	7	Sololá	710	Panajachel	8	Panajachel	6	Junio	2023-06-16T00:00:00	2024-11-08T08:00:00	2	Temperatura media	21.5
43126	7	Sololá	710	Panajachel	8	Panajachel	6	Junio	2023-06-16T00:00:00	2024-11-08T08:00:00	4	Temperatura máxima	21.6
43127	7	Sololá	710	Panajachel	8	Panajachel	6	Junio	2023-06-16T00:00:00	2024-11-08T08:00:00	3	Temperatura mínima	19.1
43128	7	Sololá	710	Panajachel	8	Panajachel	6	Junio	2023-06-16T00:00:00	2024-11-08T08:00:00	5	Humedad	80
43129	7	Sololá	710	Panajachel	8	Panajachel	6	Junio	2023-06-16T00:00:00	2024-11-08T08:00:00	6	Velocidad del viento	1.6
43130	7	Sololá	710	Panajachel	8	Panajachel	6	Junio	2023-06-16T00:00:00	2024-11-08T08:00:00	7	Dirección del viento	1.61
43131	7	Sololá	710	Panajachel	8	Panajachel	6	Junio	2023-06-16T00:00:00	2024-11-08T08:00:00	1	Precipitación	0
43132	7	Sololá	710	Panajachel	8	Panajachel	6	Junio	2023-06-16T00:00:00	2024-11-08T08:00:00	8	Radiación solar	340
43133	7	Sololá	710	Panajachel	8	Panajachel	6	Junio	2023-06-16T00:00:00	2024-11-08T09:00:00	2	Temperatura media	21.9
43134	7	Sololá	710	Panajachel	8	Panajachel	6	Junio	2023-06-16T00:00:00	2024-11-08T09:00:00	4	Temperatura máxima	22.1
43135	7	Sololá	710	Panajachel	8	Panajachel	6	Junio	2023-06-16T00:00:00	2024-11-08T09:00:00	3	Temperatura mínima	21.2
43136	7	Sololá	710	Panajachel	8	Panajachel	6	Junio	2023-06-16T00:00:00	2024-11-08T09:00:00	5	Humedad	80
43137	7	Sololá	710	Panajachel	8	Panajachel	6	Junio	2023-06-16T00:00:00	2024-11-08T09:00:00	6	Velocidad del viento	0
43138	7	Sololá	710	Panajachel	8	Panajachel	6	Junio	2023-06-16T00:00:00	2024-11-08T09:00:00	7	Dirección del viento	0
43139	7	Sololá	710	Panajachel	8	Panajachel	6	Junio	2023-06-16T00:00:00	2024-11-08T09:00:00	1	Precipitación	0
43140	7	Sololá	710	Panajachel	8	Panajachel	6	Junio	2023-06-16T00:00:00	2024-11-08T09:00:00	8	Radiación solar	545
43141	7	Sololá	710	Panajachel	8	Panajachel	6	Junio	2023-06-16T00:00:00	2024-11-08T10:00:00	2	Temperatura media	22.7
43142	7	Sololá	710	Panajachel	8	Panajachel	6	Junio	2023-06-16T00:00:00	2024-11-08T10:00:00	4	Temperatura máxima	23.2
43143	7	Sololá	710	Panajachel	8	Panajachel	6	Junio	2023-06-16T00:00:00	2024-11-08T10:00:00	3	Temperatura mínima	21.8
43144	7	Sololá	710	Panajachel	8	Panajachel	6	Junio	2023-06-16T00:00:00	2024-11-08T10:00:00	5	Humedad	81
43145	7	Sololá	710	Panajachel	8	Panajachel	6	Junio	2023-06-16T00:00:00	2024-11-08T10:00:00	6	Velocidad del viento	0
43146	7	Sololá	710	Panajachel	8	Panajachel	6	Junio	2023-06-16T00:00:00	2024-11-08T10:00:00	7	Dirección del viento	0
43147	7	Sololá	710	Panajachel	8	Panajachel	6	Junio	2023-06-16T00:00:00	2024-11-08T10:00:00	1	Precipitación	0
43148	7	Sololá	710	Panajachel	8	Panajachel	6	Junio	2023-06-16T00:00:00	2024-11-08T10:00:00	8	Radiación solar	727
43149	7	Sololá	710	Panajachel	8	Panajachel	6	Junio	2023-06-16T00:00:00	2024-11-08T11:00:00	2	Temperatura media	23.8
43150	7	Sololá	710	Panajachel	8	Panajachel	6	Junio	2023-06-16T00:00:00	2024-11-08T11:00:00	4	Temperatura máxima	23.8
43151	7	Sololá	710	Panajachel	8	Panajachel	6	Junio	2023-06-16T00:00:00	2024-11-08T11:00:00	3	Temperatura mínima	22.7
43152	7	Sololá	710	Panajachel	8	Panajachel	6	Junio	2023-06-16T00:00:00	2024-11-08T11:00:00	5	Humedad	73
43153	7	Sololá	710	Panajachel	8	Panajachel	6	Junio	2023-06-16T00:00:00	2024-11-08T11:00:00	6	Velocidad del viento	0
43154	7	Sololá	710	Panajachel	8	Panajachel	6	Junio	2023-06-16T00:00:00	2024-11-08T11:00:00	7	Dirección del viento	0
43155	7	Sololá	710	Panajachel	8	Panajachel	6	Junio	2023-06-16T00:00:00	2024-11-08T11:00:00	1	Precipitación	0
43156	7	Sololá	710	Panajachel	8	Panajachel	6	Junio	2023-06-16T00:00:00	2024-11-08T11:00:00	8	Radiación solar	772
43157	7	Sololá	710	Panajachel	8	Panajachel	6	Junio	2023-06-16T00:00:00	2024-11-08T12:00:00	2	Temperatura media	24.9
43158	7	Sololá	710	Panajachel	8	Panajachel	6	Junio	2023-06-16T00:00:00	2024-11-08T12:00:00	4	Temperatura máxima	25.2
43159	7	Sololá	710	Panajachel	8	Panajachel	6	Junio	2023-06-16T00:00:00	2024-11-08T12:00:00	3	Temperatura mínima	23.8
43160	7	Sololá	710	Panajachel	8	Panajachel	6	Junio	2023-06-16T00:00:00	2024-11-08T12:00:00	5	Humedad	75
43161	7	Sololá	710	Panajachel	8	Panajachel	6	Junio	2023-06-16T00:00:00	2024-11-08T12:00:00	6	Velocidad del viento	1.6
43162	7	Sololá	710	Panajachel	8	Panajachel	6	Junio	2023-06-16T00:00:00	2024-11-08T12:00:00	7	Dirección del viento	1.61
43163	7	Sololá	710	Panajachel	8	Panajachel	6	Junio	2023-06-16T00:00:00	2024-11-08T12:00:00	1	Precipitación	0
43164	7	Sololá	710	Panajachel	8	Panajachel	6	Junio	2023-06-16T00:00:00	2024-11-08T12:00:00	8	Radiación solar	900
43165	7	Sololá	710	Panajachel	8	Panajachel	6	Junio	2023-06-16T00:00:00	2024-11-08T13:00:00	2	Temperatura media	24.5
43166	7	Sololá	710	Panajachel	8	Panajachel	6	Junio	2023-06-16T00:00:00	2024-11-08T13:00:00	4	Temperatura máxima	25.2
43167	7	Sololá	710	Panajachel	8	Panajachel	6	Junio	2023-06-16T00:00:00	2024-11-08T13:00:00	3	Temperatura mínima	24.5
43168	7	Sololá	710	Panajachel	8	Panajachel	6	Junio	2023-06-16T00:00:00	2024-11-08T13:00:00	5	Humedad	78
43169	7	Sololá	710	Panajachel	8	Panajachel	6	Junio	2023-06-16T00:00:00	2024-11-08T13:00:00	6	Velocidad del viento	1.6
43170	7	Sololá	710	Panajachel	8	Panajachel	6	Junio	2023-06-16T00:00:00	2024-11-08T13:00:00	7	Dirección del viento	1.61
43171	7	Sololá	710	Panajachel	8	Panajachel	6	Junio	2023-06-16T00:00:00	2024-11-08T13:00:00	1	Precipitación	0
43172	7	Sololá	710	Panajachel	8	Panajachel	6	Junio	2023-06-16T00:00:00	2024-11-08T13:00:00	8	Radiación solar	914
43173	7	Sololá	710	Panajachel	8	Panajachel	6	Junio	2023-06-16T00:00:00	2024-11-08T14:00:00	2	Temperatura media	24.1
43174	7	Sololá	710	Panajachel	8	Panajachel	6	Junio	2023-06-16T00:00:00	2024-11-08T14:00:00	4	Temperatura máxima	24.8
43175	7	Sololá	710	Panajachel	8	Panajachel	6	Junio	2023-06-16T00:00:00	2024-11-08T14:00:00	3	Temperatura mínima	24.1
43176	7	Sololá	710	Panajachel	8	Panajachel	6	Junio	2023-06-16T00:00:00	2024-11-08T14:00:00	5	Humedad	81
43177	7	Sololá	710	Panajachel	8	Panajachel	6	Junio	2023-06-16T00:00:00	2024-11-08T14:00:00	6	Velocidad del viento	1.6
43178	7	Sololá	710	Panajachel	8	Panajachel	6	Junio	2023-06-16T00:00:00	2024-11-08T14:00:00	7	Dirección del viento	1.61
43179	7	Sololá	710	Panajachel	8	Panajachel	6	Junio	2023-06-16T00:00:00	2024-11-08T14:00:00	1	Precipitación	0
43180	7	Sololá	710	Panajachel	8	Panajachel	6	Junio	2023-06-16T00:00:00	2024-11-08T14:00:00	8	Radiación solar	575
43181	7	Sololá	710	Panajachel	8	Panajachel	6	Junio	2023-06-16T00:00:00	2024-11-08T15:00:00	2	Temperatura media	23.1
43182	7	Sololá	710	Panajachel	8	Panajachel	6	Junio	2023-06-16T00:00:00	2024-11-08T15:00:00	4	Temperatura máxima	24.1
43183	7	Sololá	710	Panajachel	8	Panajachel	6	Junio	2023-06-16T00:00:00	2024-11-08T15:00:00	3	Temperatura mínima	23.1
43184	7	Sololá	710	Panajachel	8	Panajachel	6	Junio	2023-06-16T00:00:00	2024-11-08T15:00:00	5	Humedad	85
43185	7	Sololá	710	Panajachel	8	Panajachel	6	Junio	2023-06-16T00:00:00	2024-11-08T15:00:00	6	Velocidad del viento	1.6
43186	7	Sololá	710	Panajachel	8	Panajachel	6	Junio	2023-06-16T00:00:00	2024-11-08T15:00:00	7	Dirección del viento	1.61
43187	7	Sololá	710	Panajachel	8	Panajachel	6	Junio	2023-06-16T00:00:00	2024-11-08T15:00:00	1	Precipitación	0
43188	7	Sololá	710	Panajachel	8	Panajachel	6	Junio	2023-06-16T00:00:00	2024-11-08T15:00:00	8	Radiación solar	311
43189	7	Sololá	710	Panajachel	8	Panajachel	6	Junio	2023-06-16T00:00:00	2024-11-08T16:00:00	2	Temperatura media	22.7
43190	7	Sololá	710	Panajachel	8	Panajachel	6	Junio	2023-06-16T00:00:00	2024-11-08T16:00:00	4	Temperatura máxima	23.2
43191	7	Sololá	710	Panajachel	8	Panajachel	6	Junio	2023-06-16T00:00:00	2024-11-08T16:00:00	3	Temperatura mínima	22.6
43192	7	Sololá	710	Panajachel	8	Panajachel	6	Junio	2023-06-16T00:00:00	2024-11-08T16:00:00	5	Humedad	81
43193	7	Sololá	710	Panajachel	8	Panajachel	6	Junio	2023-06-16T00:00:00	2024-11-08T16:00:00	6	Velocidad del viento	1.6
43194	7	Sololá	710	Panajachel	8	Panajachel	6	Junio	2023-06-16T00:00:00	2024-11-08T16:00:00	7	Dirección del viento	1.61
43195	7	Sololá	710	Panajachel	8	Panajachel	6	Junio	2023-06-16T00:00:00	2024-11-08T16:00:00	1	Precipitación	0.2
43196	7	Sololá	710	Panajachel	8	Panajachel	6	Junio	2023-06-16T00:00:00	2024-11-08T16:00:00	8	Radiación solar	227
43197	7	Sololá	710	Panajachel	8	Panajachel	6	Junio	2023-06-16T00:00:00	2024-11-08T17:00:00	2	Temperatura media	20.9
43198	7	Sololá	710	Panajachel	8	Panajachel	6	Junio	2023-06-16T00:00:00	2024-11-08T17:00:00	4	Temperatura máxima	22.7
43199	7	Sololá	710	Panajachel	8	Panajachel	6	Junio	2023-06-16T00:00:00	2024-11-08T17:00:00	3	Temperatura mínima	19.6
43200	7	Sololá	710	Panajachel	8	Panajachel	6	Junio	2023-06-16T00:00:00	2024-11-08T17:00:00	5	Humedad	87
43201	7	Sololá	710	Panajachel	8	Panajachel	6	Junio	2023-06-16T00:00:00	2024-11-08T17:00:00	6	Velocidad del viento	1.6
43202	7	Sololá	710	Panajachel	8	Panajachel	6	Junio	2023-06-16T00:00:00	2024-11-08T17:00:00	7	Dirección del viento	1.61
43203	7	Sololá	710	Panajachel	8	Panajachel	6	Junio	2023-06-16T00:00:00	2024-11-08T17:00:00	1	Precipitación	2.4
43204	7	Sololá	710	Panajachel	8	Panajachel	6	Junio	2023-06-16T00:00:00	2024-11-08T17:00:00	8	Radiación solar	134
43205	7	Sololá	710	Panajachel	8	Panajachel	6	Junio	2023-06-16T00:00:00	2024-11-08T18:00:00	2	Temperatura media	20.7
43206	7	Sololá	710	Panajachel	8	Panajachel	6	Junio	2023-06-16T00:00:00	2024-11-08T18:00:00	4	Temperatura máxima	21.1
43207	7	Sololá	710	Panajachel	8	Panajachel	6	Junio	2023-06-16T00:00:00	2024-11-08T18:00:00	3	Temperatura mínima	20.7
43208	7	Sololá	710	Panajachel	8	Panajachel	6	Junio	2023-06-16T00:00:00	2024-11-08T18:00:00	5	Humedad	90
43209	7	Sololá	710	Panajachel	8	Panajachel	6	Junio	2023-06-16T00:00:00	2024-11-08T18:00:00	6	Velocidad del viento	0
43210	7	Sololá	710	Panajachel	8	Panajachel	6	Junio	2023-06-16T00:00:00	2024-11-08T18:00:00	7	Dirección del viento	0
43211	7	Sololá	710	Panajachel	8	Panajachel	6	Junio	2023-06-16T00:00:00	2024-11-08T18:00:00	1	Precipitación	0
43212	7	Sololá	710	Panajachel	8	Panajachel	6	Junio	2023-06-16T00:00:00	2024-11-08T18:00:00	8	Radiación solar	61
43213	7	Sololá	710	Panajachel	8	Panajachel	6	Junio	2023-06-16T00:00:00	2024-11-08T19:00:00	2	Temperatura media	20.3
43214	7	Sololá	710	Panajachel	8	Panajachel	6	Junio	2023-06-16T00:00:00	2024-11-08T19:00:00	4	Temperatura máxima	20.7
43215	7	Sololá	710	Panajachel	8	Panajachel	6	Junio	2023-06-16T00:00:00	2024-11-08T19:00:00	3	Temperatura mínima	20.3
43216	7	Sololá	710	Panajachel	8	Panajachel	6	Junio	2023-06-16T00:00:00	2024-11-08T19:00:00	5	Humedad	93
43217	7	Sololá	710	Panajachel	8	Panajachel	6	Junio	2023-06-16T00:00:00	2024-11-08T19:00:00	6	Velocidad del viento	0
43218	7	Sololá	710	Panajachel	8	Panajachel	6	Junio	2023-06-16T00:00:00	2024-11-08T19:00:00	7	Dirección del viento	0
43219	7	Sololá	710	Panajachel	8	Panajachel	6	Junio	2023-06-16T00:00:00	2024-11-08T19:00:00	1	Precipitación	0
43220	7	Sololá	710	Panajachel	8	Panajachel	6	Junio	2023-06-16T00:00:00	2024-11-08T19:00:00	8	Radiación solar	0
43221	7	Sololá	710	Panajachel	8	Panajachel	6	Junio	2023-06-16T00:00:00	2024-11-08T20:00:00	2	Temperatura media	20.1
43222	7	Sololá	710	Panajachel	8	Panajachel	6	Junio	2023-06-16T00:00:00	2024-11-08T20:00:00	4	Temperatura máxima	20.3
43223	7	Sololá	710	Panajachel	8	Panajachel	6	Junio	2023-06-16T00:00:00	2024-11-08T20:00:00	3	Temperatura mínima	20.1
43224	7	Sololá	710	Panajachel	8	Panajachel	6	Junio	2023-06-16T00:00:00	2024-11-08T20:00:00	5	Humedad	93
43225	7	Sololá	710	Panajachel	8	Panajachel	6	Junio	2023-06-16T00:00:00	2024-11-08T20:00:00	6	Velocidad del viento	0
43226	7	Sololá	710	Panajachel	8	Panajachel	6	Junio	2023-06-16T00:00:00	2024-11-08T20:00:00	7	Dirección del viento	0
43227	7	Sololá	710	Panajachel	8	Panajachel	6	Junio	2023-06-16T00:00:00	2024-11-08T20:00:00	1	Precipitación	0
43228	7	Sololá	710	Panajachel	8	Panajachel	6	Junio	2023-06-16T00:00:00	2024-11-08T20:00:00	8	Radiación solar	0
43229	7	Sololá	710	Panajachel	8	Panajachel	6	Junio	2023-06-16T00:00:00	2024-11-08T21:00:00	2	Temperatura media	20.1
43230	7	Sololá	710	Panajachel	8	Panajachel	6	Junio	2023-06-16T00:00:00	2024-11-08T21:00:00	4	Temperatura máxima	20.2
43231	7	Sololá	710	Panajachel	8	Panajachel	6	Junio	2023-06-16T00:00:00	2024-11-08T21:00:00	3	Temperatura mínima	19.8
43232	7	Sololá	710	Panajachel	8	Panajachel	6	Junio	2023-06-16T00:00:00	2024-11-08T21:00:00	5	Humedad	78
43233	7	Sololá	710	Panajachel	8	Panajachel	6	Junio	2023-06-16T00:00:00	2024-11-08T21:00:00	6	Velocidad del viento	4.8
43234	7	Sololá	710	Panajachel	8	Panajachel	6	Junio	2023-06-16T00:00:00	2024-11-08T21:00:00	7	Dirección del viento	4.83
43235	7	Sololá	710	Panajachel	8	Panajachel	6	Junio	2023-06-16T00:00:00	2024-11-08T21:00:00	1	Precipitación	0
43236	7	Sololá	710	Panajachel	8	Panajachel	6	Junio	2023-06-16T00:00:00	2024-11-08T21:00:00	8	Radiación solar	0
43237	7	Sololá	710	Panajachel	8	Panajachel	6	Junio	2023-06-16T00:00:00	2024-11-08T22:00:00	2	Temperatura media	20.2
43238	7	Sololá	710	Panajachel	8	Panajachel	6	Junio	2023-06-16T00:00:00	2024-11-08T22:00:00	4	Temperatura máxima	20.2
43239	7	Sololá	710	Panajachel	8	Panajachel	6	Junio	2023-06-16T00:00:00	2024-11-08T22:00:00	3	Temperatura mínima	17.6
43240	7	Sololá	710	Panajachel	8	Panajachel	6	Junio	2023-06-16T00:00:00	2024-11-08T22:00:00	5	Humedad	83
43241	7	Sololá	710	Panajachel	8	Panajachel	6	Junio	2023-06-16T00:00:00	2024-11-08T22:00:00	6	Velocidad del viento	4.8
43242	7	Sololá	710	Panajachel	8	Panajachel	6	Junio	2023-06-16T00:00:00	2024-11-08T22:00:00	7	Dirección del viento	4.83
43243	7	Sololá	710	Panajachel	8	Panajachel	6	Junio	2023-06-16T00:00:00	2024-11-08T22:00:00	1	Precipitación	0.6
43244	7	Sololá	710	Panajachel	8	Panajachel	6	Junio	2023-06-16T00:00:00	2024-11-08T22:00:00	8	Radiación solar	0
43245	7	Sololá	710	Panajachel	8	Panajachel	6	Junio	2023-06-16T00:00:00	2024-11-08T23:00:00	2	Temperatura media	18.6
43246	7	Sololá	710	Panajachel	8	Panajachel	6	Junio	2023-06-16T00:00:00	2024-11-08T23:00:00	4	Temperatura máxima	21.3
43247	7	Sololá	710	Panajachel	8	Panajachel	6	Junio	2023-06-16T00:00:00	2024-11-08T23:00:00	3	Temperatura mínima	18.6
43248	7	Sololá	710	Panajachel	8	Panajachel	6	Junio	2023-06-16T00:00:00	2024-11-08T23:00:00	5	Humedad	82
43249	7	Sololá	710	Panajachel	8	Panajachel	6	Junio	2023-06-16T00:00:00	2024-11-08T23:00:00	6	Velocidad del viento	4.8
43250	7	Sololá	710	Panajachel	8	Panajachel	6	Junio	2023-06-16T00:00:00	2024-11-08T23:00:00	7	Dirección del viento	4.83
43251	7	Sololá	710	Panajachel	8	Panajachel	6	Junio	2023-06-16T00:00:00	2024-11-08T23:00:00	1	Precipitación	0
43252	7	Sololá	710	Panajachel	8	Panajachel	6	Junio	2023-06-16T00:00:00	2024-11-08T23:00:00	8	Radiación solar	0
43253	7	Sololá	710	Panajachel	8	Panajachel	6	Junio	2023-06-17T00:00:00	2024-11-08T00:00:00	2	Temperatura media	18.2
43254	7	Sololá	710	Panajachel	8	Panajachel	6	Junio	2023-06-17T00:00:00	2024-11-08T00:00:00	4	Temperatura máxima	18.8
43255	7	Sololá	710	Panajachel	8	Panajachel	6	Junio	2023-06-17T00:00:00	2024-11-08T00:00:00	3	Temperatura mínima	17.7
43256	7	Sololá	710	Panajachel	8	Panajachel	6	Junio	2023-06-17T00:00:00	2024-11-08T00:00:00	5	Humedad	83
43257	7	Sololá	710	Panajachel	8	Panajachel	6	Junio	2023-06-17T00:00:00	2024-11-08T00:00:00	6	Velocidad del viento	3.2
43258	7	Sololá	710	Panajachel	8	Panajachel	6	Junio	2023-06-17T00:00:00	2024-11-08T00:00:00	7	Dirección del viento	3.22
43259	7	Sololá	710	Panajachel	8	Panajachel	6	Junio	2023-06-17T00:00:00	2024-11-08T00:00:00	1	Precipitación	0
43260	7	Sololá	710	Panajachel	8	Panajachel	6	Junio	2023-06-17T00:00:00	2024-11-08T00:00:00	8	Radiación solar	0
43261	7	Sololá	710	Panajachel	8	Panajachel	6	Junio	2023-06-17T00:00:00	2024-11-08T01:00:00	2	Temperatura media	20.2
43262	7	Sololá	710	Panajachel	8	Panajachel	6	Junio	2023-06-17T00:00:00	2024-11-08T01:00:00	4	Temperatura máxima	20.2
43263	7	Sololá	710	Panajachel	8	Panajachel	6	Junio	2023-06-17T00:00:00	2024-11-08T01:00:00	3	Temperatura mínima	18.2
43264	7	Sololá	710	Panajachel	8	Panajachel	6	Junio	2023-06-17T00:00:00	2024-11-08T01:00:00	5	Humedad	79
43265	7	Sololá	710	Panajachel	8	Panajachel	6	Junio	2023-06-17T00:00:00	2024-11-08T01:00:00	6	Velocidad del viento	3.2
43266	7	Sololá	710	Panajachel	8	Panajachel	6	Junio	2023-06-17T00:00:00	2024-11-08T01:00:00	7	Dirección del viento	3.22
43267	7	Sololá	710	Panajachel	8	Panajachel	6	Junio	2023-06-17T00:00:00	2024-11-08T01:00:00	1	Precipitación	0
43268	7	Sololá	710	Panajachel	8	Panajachel	6	Junio	2023-06-17T00:00:00	2024-11-08T01:00:00	8	Radiación solar	0
43269	7	Sololá	710	Panajachel	8	Panajachel	6	Junio	2023-06-17T00:00:00	2024-11-08T02:00:00	2	Temperatura media	18.7
43270	7	Sololá	710	Panajachel	8	Panajachel	6	Junio	2023-06-17T00:00:00	2024-11-08T02:00:00	4	Temperatura máxima	21.1
43271	7	Sololá	710	Panajachel	8	Panajachel	6	Junio	2023-06-17T00:00:00	2024-11-08T02:00:00	3	Temperatura mínima	18.7
43272	7	Sololá	710	Panajachel	8	Panajachel	6	Junio	2023-06-17T00:00:00	2024-11-08T02:00:00	5	Humedad	86
43273	7	Sololá	710	Panajachel	8	Panajachel	6	Junio	2023-06-17T00:00:00	2024-11-08T02:00:00	6	Velocidad del viento	3.2
43274	7	Sololá	710	Panajachel	8	Panajachel	6	Junio	2023-06-17T00:00:00	2024-11-08T02:00:00	7	Dirección del viento	3.22
43275	7	Sololá	710	Panajachel	8	Panajachel	6	Junio	2023-06-17T00:00:00	2024-11-08T02:00:00	1	Precipitación	0
43276	7	Sololá	710	Panajachel	8	Panajachel	6	Junio	2023-06-17T00:00:00	2024-11-08T02:00:00	8	Radiación solar	0
43277	7	Sololá	710	Panajachel	8	Panajachel	6	Junio	2023-06-17T00:00:00	2024-11-08T03:00:00	2	Temperatura media	19.1
43278	7	Sololá	710	Panajachel	8	Panajachel	6	Junio	2023-06-17T00:00:00	2024-11-08T03:00:00	4	Temperatura máxima	19.8
43279	7	Sololá	710	Panajachel	8	Panajachel	6	Junio	2023-06-17T00:00:00	2024-11-08T03:00:00	3	Temperatura mínima	18.3
43280	7	Sololá	710	Panajachel	8	Panajachel	6	Junio	2023-06-17T00:00:00	2024-11-08T03:00:00	5	Humedad	83
43281	7	Sololá	710	Panajachel	8	Panajachel	6	Junio	2023-06-17T00:00:00	2024-11-08T03:00:00	6	Velocidad del viento	0
43282	7	Sololá	710	Panajachel	8	Panajachel	6	Junio	2023-06-17T00:00:00	2024-11-08T03:00:00	7	Dirección del viento	0
43283	7	Sololá	710	Panajachel	8	Panajachel	6	Junio	2023-06-17T00:00:00	2024-11-08T03:00:00	1	Precipitación	0
43284	7	Sololá	710	Panajachel	8	Panajachel	6	Junio	2023-06-17T00:00:00	2024-11-08T03:00:00	8	Radiación solar	0
43285	7	Sololá	710	Panajachel	8	Panajachel	6	Junio	2023-06-17T00:00:00	2024-11-08T04:00:00	2	Temperatura media	17.4
43286	7	Sololá	710	Panajachel	8	Panajachel	6	Junio	2023-06-17T00:00:00	2024-11-08T04:00:00	4	Temperatura máxima	19.1
43287	7	Sololá	710	Panajachel	8	Panajachel	6	Junio	2023-06-17T00:00:00	2024-11-08T04:00:00	3	Temperatura mínima	17.4
43288	7	Sololá	710	Panajachel	8	Panajachel	6	Junio	2023-06-17T00:00:00	2024-11-08T04:00:00	5	Humedad	89
43289	7	Sololá	710	Panajachel	8	Panajachel	6	Junio	2023-06-17T00:00:00	2024-11-08T04:00:00	6	Velocidad del viento	0
43290	7	Sololá	710	Panajachel	8	Panajachel	6	Junio	2023-06-17T00:00:00	2024-11-08T04:00:00	7	Dirección del viento	0
43291	7	Sololá	710	Panajachel	8	Panajachel	6	Junio	2023-06-17T00:00:00	2024-11-08T04:00:00	1	Precipitación	0
43292	7	Sololá	710	Panajachel	8	Panajachel	6	Junio	2023-06-17T00:00:00	2024-11-08T04:00:00	8	Radiación solar	0
43293	7	Sololá	710	Panajachel	8	Panajachel	6	Junio	2023-06-17T00:00:00	2024-11-08T05:00:00	2	Temperatura media	18.2
43294	7	Sololá	710	Panajachel	8	Panajachel	6	Junio	2023-06-17T00:00:00	2024-11-08T05:00:00	4	Temperatura máxima	18.2
43295	7	Sololá	710	Panajachel	8	Panajachel	6	Junio	2023-06-17T00:00:00	2024-11-08T05:00:00	3	Temperatura mínima	17
43296	7	Sololá	710	Panajachel	8	Panajachel	6	Junio	2023-06-17T00:00:00	2024-11-08T05:00:00	5	Humedad	83
43297	7	Sololá	710	Panajachel	8	Panajachel	6	Junio	2023-06-17T00:00:00	2024-11-08T05:00:00	6	Velocidad del viento	1.6
43298	7	Sololá	710	Panajachel	8	Panajachel	6	Junio	2023-06-17T00:00:00	2024-11-08T05:00:00	7	Dirección del viento	1.61
43299	7	Sololá	710	Panajachel	8	Panajachel	6	Junio	2023-06-17T00:00:00	2024-11-08T05:00:00	1	Precipitación	0
43300	7	Sololá	710	Panajachel	8	Panajachel	6	Junio	2023-06-17T00:00:00	2024-11-08T05:00:00	8	Radiación solar	0
43301	7	Sololá	710	Panajachel	8	Panajachel	6	Junio	2023-06-17T00:00:00	2024-11-08T06:00:00	2	Temperatura media	18
43302	7	Sololá	710	Panajachel	8	Panajachel	6	Junio	2023-06-17T00:00:00	2024-11-08T06:00:00	4	Temperatura máxima	18.8
43303	7	Sololá	710	Panajachel	8	Panajachel	6	Junio	2023-06-17T00:00:00	2024-11-08T06:00:00	3	Temperatura mínima	17.8
43304	7	Sololá	710	Panajachel	8	Panajachel	6	Junio	2023-06-17T00:00:00	2024-11-08T06:00:00	5	Humedad	84
43305	7	Sololá	710	Panajachel	8	Panajachel	6	Junio	2023-06-17T00:00:00	2024-11-08T06:00:00	6	Velocidad del viento	0
43306	7	Sololá	710	Panajachel	8	Panajachel	6	Junio	2023-06-17T00:00:00	2024-11-08T06:00:00	7	Dirección del viento	0
43307	7	Sololá	710	Panajachel	8	Panajachel	6	Junio	2023-06-17T00:00:00	2024-11-08T06:00:00	1	Precipitación	0
43308	7	Sololá	710	Panajachel	8	Panajachel	6	Junio	2023-06-17T00:00:00	2024-11-08T06:00:00	8	Radiación solar	3
43309	7	Sololá	710	Panajachel	8	Panajachel	6	Junio	2023-06-17T00:00:00	2024-11-08T07:00:00	2	Temperatura media	19.9
43310	7	Sololá	710	Panajachel	8	Panajachel	6	Junio	2023-06-17T00:00:00	2024-11-08T07:00:00	4	Temperatura máxima	19.9
43311	7	Sololá	710	Panajachel	8	Panajachel	6	Junio	2023-06-17T00:00:00	2024-11-08T07:00:00	3	Temperatura mínima	17.6
43312	7	Sololá	710	Panajachel	8	Panajachel	6	Junio	2023-06-17T00:00:00	2024-11-08T07:00:00	5	Humedad	79
43313	7	Sololá	710	Panajachel	8	Panajachel	6	Junio	2023-06-17T00:00:00	2024-11-08T07:00:00	6	Velocidad del viento	0
43314	7	Sololá	710	Panajachel	8	Panajachel	6	Junio	2023-06-17T00:00:00	2024-11-08T07:00:00	7	Dirección del viento	0
43315	7	Sololá	710	Panajachel	8	Panajachel	6	Junio	2023-06-17T00:00:00	2024-11-08T07:00:00	1	Precipitación	0
43316	7	Sololá	710	Panajachel	8	Panajachel	6	Junio	2023-06-17T00:00:00	2024-11-08T07:00:00	8	Radiación solar	111
43317	7	Sololá	710	Panajachel	8	Panajachel	6	Junio	2023-06-17T00:00:00	2024-11-08T08:00:00	2	Temperatura media	22.8
43318	7	Sololá	710	Panajachel	8	Panajachel	6	Junio	2023-06-17T00:00:00	2024-11-08T08:00:00	4	Temperatura máxima	23
43319	7	Sololá	710	Panajachel	8	Panajachel	6	Junio	2023-06-17T00:00:00	2024-11-08T08:00:00	3	Temperatura mínima	19.9
43320	7	Sololá	710	Panajachel	8	Panajachel	6	Junio	2023-06-17T00:00:00	2024-11-08T08:00:00	5	Humedad	71
43321	7	Sololá	710	Panajachel	8	Panajachel	6	Junio	2023-06-17T00:00:00	2024-11-08T08:00:00	6	Velocidad del viento	0
43322	7	Sololá	710	Panajachel	8	Panajachel	6	Junio	2023-06-17T00:00:00	2024-11-08T08:00:00	7	Dirección del viento	0
43323	7	Sololá	710	Panajachel	8	Panajachel	6	Junio	2023-06-17T00:00:00	2024-11-08T08:00:00	1	Precipitación	0.2
43324	7	Sololá	710	Panajachel	8	Panajachel	6	Junio	2023-06-17T00:00:00	2024-11-08T08:00:00	8	Radiación solar	342
43325	7	Sololá	710	Panajachel	8	Panajachel	6	Junio	2023-06-17T00:00:00	2024-11-08T09:00:00	2	Temperatura media	23.4
43326	7	Sololá	710	Panajachel	8	Panajachel	6	Junio	2023-06-17T00:00:00	2024-11-08T09:00:00	4	Temperatura máxima	23.8
43327	7	Sololá	710	Panajachel	8	Panajachel	6	Junio	2023-06-17T00:00:00	2024-11-08T09:00:00	3	Temperatura mínima	22.7
43328	7	Sololá	710	Panajachel	8	Panajachel	6	Junio	2023-06-17T00:00:00	2024-11-08T09:00:00	5	Humedad	70
43329	7	Sololá	710	Panajachel	8	Panajachel	6	Junio	2023-06-17T00:00:00	2024-11-08T09:00:00	6	Velocidad del viento	0
43330	7	Sololá	710	Panajachel	8	Panajachel	6	Junio	2023-06-17T00:00:00	2024-11-08T09:00:00	7	Dirección del viento	0
43331	7	Sololá	710	Panajachel	8	Panajachel	6	Junio	2023-06-17T00:00:00	2024-11-08T09:00:00	1	Precipitación	0
43332	7	Sololá	710	Panajachel	8	Panajachel	6	Junio	2023-06-17T00:00:00	2024-11-08T09:00:00	8	Radiación solar	553
43333	7	Sololá	710	Panajachel	8	Panajachel	6	Junio	2023-06-17T00:00:00	2024-11-08T10:00:00	2	Temperatura media	23.9
43334	7	Sololá	710	Panajachel	8	Panajachel	6	Junio	2023-06-17T00:00:00	2024-11-08T10:00:00	4	Temperatura máxima	23.9
43335	7	Sololá	710	Panajachel	8	Panajachel	6	Junio	2023-06-17T00:00:00	2024-11-08T10:00:00	3	Temperatura mínima	23.2
43336	7	Sololá	710	Panajachel	8	Panajachel	6	Junio	2023-06-17T00:00:00	2024-11-08T10:00:00	5	Humedad	72
43337	7	Sololá	710	Panajachel	8	Panajachel	6	Junio	2023-06-17T00:00:00	2024-11-08T10:00:00	6	Velocidad del viento	0
43338	7	Sololá	710	Panajachel	8	Panajachel	6	Junio	2023-06-17T00:00:00	2024-11-08T10:00:00	7	Dirección del viento	0
43339	7	Sololá	710	Panajachel	8	Panajachel	6	Junio	2023-06-17T00:00:00	2024-11-08T10:00:00	1	Precipitación	0
43340	7	Sololá	710	Panajachel	8	Panajachel	6	Junio	2023-06-17T00:00:00	2024-11-08T10:00:00	8	Radiación solar	727
43341	7	Sololá	710	Panajachel	8	Panajachel	6	Junio	2023-06-17T00:00:00	2024-11-08T11:00:00	2	Temperatura media	24.8
43342	7	Sololá	710	Panajachel	8	Panajachel	6	Junio	2023-06-17T00:00:00	2024-11-08T11:00:00	4	Temperatura máxima	25.8
43343	7	Sololá	710	Panajachel	8	Panajachel	6	Junio	2023-06-17T00:00:00	2024-11-08T11:00:00	3	Temperatura mínima	23.9
43344	7	Sololá	710	Panajachel	8	Panajachel	6	Junio	2023-06-17T00:00:00	2024-11-08T11:00:00	5	Humedad	71
43345	7	Sololá	710	Panajachel	8	Panajachel	6	Junio	2023-06-17T00:00:00	2024-11-08T11:00:00	6	Velocidad del viento	1.6
43346	7	Sololá	710	Panajachel	8	Panajachel	6	Junio	2023-06-17T00:00:00	2024-11-08T11:00:00	7	Dirección del viento	1.61
43347	7	Sololá	710	Panajachel	8	Panajachel	6	Junio	2023-06-17T00:00:00	2024-11-08T11:00:00	1	Precipitación	0
43348	7	Sololá	710	Panajachel	8	Panajachel	6	Junio	2023-06-17T00:00:00	2024-11-08T11:00:00	8	Radiación solar	822
43349	7	Sololá	710	Panajachel	8	Panajachel	6	Junio	2023-06-17T00:00:00	2024-11-08T12:00:00	2	Temperatura media	28.4
43350	7	Sololá	710	Panajachel	8	Panajachel	6	Junio	2023-06-17T00:00:00	2024-11-08T12:00:00	4	Temperatura máxima	28.5
43351	7	Sololá	710	Panajachel	8	Panajachel	6	Junio	2023-06-17T00:00:00	2024-11-08T12:00:00	3	Temperatura mínima	24.8
43352	7	Sololá	710	Panajachel	8	Panajachel	6	Junio	2023-06-17T00:00:00	2024-11-08T12:00:00	5	Humedad	48
43353	7	Sololá	710	Panajachel	8	Panajachel	6	Junio	2023-06-17T00:00:00	2024-11-08T12:00:00	6	Velocidad del viento	1.6
43354	7	Sololá	710	Panajachel	8	Panajachel	6	Junio	2023-06-17T00:00:00	2024-11-08T12:00:00	7	Dirección del viento	1.61
43355	7	Sololá	710	Panajachel	8	Panajachel	6	Junio	2023-06-17T00:00:00	2024-11-08T12:00:00	1	Precipitación	0
43356	7	Sololá	710	Panajachel	8	Panajachel	6	Junio	2023-06-17T00:00:00	2024-11-08T12:00:00	8	Radiación solar	845
43357	7	Sololá	710	Panajachel	8	Panajachel	6	Junio	2023-06-17T00:00:00	2024-11-08T13:00:00	2	Temperatura media	29.6
43358	7	Sololá	710	Panajachel	8	Panajachel	6	Junio	2023-06-17T00:00:00	2024-11-08T13:00:00	4	Temperatura máxima	29.6
43359	7	Sololá	710	Panajachel	8	Panajachel	6	Junio	2023-06-17T00:00:00	2024-11-08T13:00:00	3	Temperatura mínima	28.3
43360	7	Sololá	710	Panajachel	8	Panajachel	6	Junio	2023-06-17T00:00:00	2024-11-08T13:00:00	5	Humedad	43
43361	7	Sololá	710	Panajachel	8	Panajachel	6	Junio	2023-06-17T00:00:00	2024-11-08T13:00:00	6	Velocidad del viento	4.8
43362	7	Sololá	710	Panajachel	8	Panajachel	6	Junio	2023-06-17T00:00:00	2024-11-08T13:00:00	7	Dirección del viento	4.83
43363	7	Sololá	710	Panajachel	8	Panajachel	6	Junio	2023-06-17T00:00:00	2024-11-08T13:00:00	1	Precipitación	0
43364	7	Sololá	710	Panajachel	8	Panajachel	6	Junio	2023-06-17T00:00:00	2024-11-08T13:00:00	8	Radiación solar	996
43365	7	Sololá	710	Panajachel	8	Panajachel	6	Junio	2023-06-17T00:00:00	2024-11-08T14:00:00	2	Temperatura media	25.3
43366	7	Sololá	710	Panajachel	8	Panajachel	6	Junio	2023-06-17T00:00:00	2024-11-08T14:00:00	4	Temperatura máxima	29.7
43367	7	Sololá	710	Panajachel	8	Panajachel	6	Junio	2023-06-17T00:00:00	2024-11-08T14:00:00	3	Temperatura mínima	25.3
43368	7	Sololá	710	Panajachel	8	Panajachel	6	Junio	2023-06-17T00:00:00	2024-11-08T14:00:00	5	Humedad	75
43369	7	Sololá	710	Panajachel	8	Panajachel	6	Junio	2023-06-17T00:00:00	2024-11-08T14:00:00	6	Velocidad del viento	8
43370	7	Sololá	710	Panajachel	8	Panajachel	6	Junio	2023-06-17T00:00:00	2024-11-08T14:00:00	7	Dirección del viento	8.05
43371	7	Sololá	710	Panajachel	8	Panajachel	6	Junio	2023-06-17T00:00:00	2024-11-08T14:00:00	1	Precipitación	0
43372	7	Sololá	710	Panajachel	8	Panajachel	6	Junio	2023-06-17T00:00:00	2024-11-08T14:00:00	8	Radiación solar	908
43373	7	Sololá	710	Panajachel	8	Panajachel	6	Junio	2023-06-17T00:00:00	2024-11-08T15:00:00	2	Temperatura media	26.3
43374	7	Sololá	710	Panajachel	8	Panajachel	6	Junio	2023-06-17T00:00:00	2024-11-08T15:00:00	4	Temperatura máxima	26.4
43375	7	Sololá	710	Panajachel	8	Panajachel	6	Junio	2023-06-17T00:00:00	2024-11-08T15:00:00	3	Temperatura mínima	24.9
43376	7	Sololá	710	Panajachel	8	Panajachel	6	Junio	2023-06-17T00:00:00	2024-11-08T15:00:00	5	Humedad	75
43377	7	Sololá	710	Panajachel	8	Panajachel	6	Junio	2023-06-17T00:00:00	2024-11-08T15:00:00	6	Velocidad del viento	8
43378	7	Sololá	710	Panajachel	8	Panajachel	6	Junio	2023-06-17T00:00:00	2024-11-08T15:00:00	7	Dirección del viento	8.05
43379	7	Sololá	710	Panajachel	8	Panajachel	6	Junio	2023-06-17T00:00:00	2024-11-08T15:00:00	1	Precipitación	0
43380	7	Sololá	710	Panajachel	8	Panajachel	6	Junio	2023-06-17T00:00:00	2024-11-08T15:00:00	8	Radiación solar	790
43381	7	Sololá	710	Panajachel	8	Panajachel	6	Junio	2023-06-17T00:00:00	2024-11-08T16:00:00	2	Temperatura media	24.2
43382	7	Sololá	710	Panajachel	8	Panajachel	6	Junio	2023-06-17T00:00:00	2024-11-08T16:00:00	4	Temperatura máxima	26.3
43383	7	Sololá	710	Panajachel	8	Panajachel	6	Junio	2023-06-17T00:00:00	2024-11-08T16:00:00	3	Temperatura mínima	23.9
43384	7	Sololá	710	Panajachel	8	Panajachel	6	Junio	2023-06-17T00:00:00	2024-11-08T16:00:00	5	Humedad	82
43385	7	Sololá	710	Panajachel	8	Panajachel	6	Junio	2023-06-17T00:00:00	2024-11-08T16:00:00	6	Velocidad del viento	8
43386	7	Sololá	710	Panajachel	8	Panajachel	6	Junio	2023-06-17T00:00:00	2024-11-08T16:00:00	7	Dirección del viento	8.05
43387	7	Sololá	710	Panajachel	8	Panajachel	6	Junio	2023-06-17T00:00:00	2024-11-08T16:00:00	1	Precipitación	0
43388	7	Sololá	710	Panajachel	8	Panajachel	6	Junio	2023-06-17T00:00:00	2024-11-08T16:00:00	8	Radiación solar	489
43389	7	Sololá	710	Panajachel	8	Panajachel	6	Junio	2023-06-17T00:00:00	2024-11-08T17:00:00	2	Temperatura media	23.6
43390	7	Sololá	710	Panajachel	8	Panajachel	6	Junio	2023-06-17T00:00:00	2024-11-08T17:00:00	4	Temperatura máxima	24.4
43391	7	Sololá	710	Panajachel	8	Panajachel	6	Junio	2023-06-17T00:00:00	2024-11-08T17:00:00	3	Temperatura mínima	23.3
43392	7	Sololá	710	Panajachel	8	Panajachel	6	Junio	2023-06-17T00:00:00	2024-11-08T17:00:00	5	Humedad	84
43393	7	Sololá	710	Panajachel	8	Panajachel	6	Junio	2023-06-17T00:00:00	2024-11-08T17:00:00	6	Velocidad del viento	1.6
43394	7	Sololá	710	Panajachel	8	Panajachel	6	Junio	2023-06-17T00:00:00	2024-11-08T17:00:00	7	Dirección del viento	1.61
43395	7	Sololá	710	Panajachel	8	Panajachel	6	Junio	2023-06-17T00:00:00	2024-11-08T17:00:00	1	Precipitación	0
43396	7	Sololá	710	Panajachel	8	Panajachel	6	Junio	2023-06-17T00:00:00	2024-11-08T17:00:00	8	Radiación solar	180
43397	7	Sololá	710	Panajachel	8	Panajachel	6	Junio	2023-06-17T00:00:00	2024-11-08T18:00:00	2	Temperatura media	22.8
43398	7	Sololá	710	Panajachel	8	Panajachel	6	Junio	2023-06-17T00:00:00	2024-11-08T18:00:00	4	Temperatura máxima	23.7
43399	7	Sololá	710	Panajachel	8	Panajachel	6	Junio	2023-06-17T00:00:00	2024-11-08T18:00:00	3	Temperatura mínima	22.8
43400	7	Sololá	710	Panajachel	8	Panajachel	6	Junio	2023-06-17T00:00:00	2024-11-08T18:00:00	5	Humedad	86
43401	7	Sololá	710	Panajachel	8	Panajachel	6	Junio	2023-06-17T00:00:00	2024-11-08T18:00:00	6	Velocidad del viento	0
43402	7	Sololá	710	Panajachel	8	Panajachel	6	Junio	2023-06-17T00:00:00	2024-11-08T18:00:00	7	Dirección del viento	0
43403	7	Sololá	710	Panajachel	8	Panajachel	6	Junio	2023-06-17T00:00:00	2024-11-08T18:00:00	1	Precipitación	0
43404	7	Sololá	710	Panajachel	8	Panajachel	6	Junio	2023-06-17T00:00:00	2024-11-08T18:00:00	8	Radiación solar	38
43405	7	Sololá	710	Panajachel	8	Panajachel	6	Junio	2023-06-17T00:00:00	2024-11-08T19:00:00	2	Temperatura media	21.9
43406	7	Sololá	710	Panajachel	8	Panajachel	6	Junio	2023-06-17T00:00:00	2024-11-08T19:00:00	4	Temperatura máxima	22.8
43407	7	Sololá	710	Panajachel	8	Panajachel	6	Junio	2023-06-17T00:00:00	2024-11-08T19:00:00	3	Temperatura mínima	21.8
43408	7	Sololá	710	Panajachel	8	Panajachel	6	Junio	2023-06-17T00:00:00	2024-11-08T19:00:00	5	Humedad	90
43409	7	Sololá	710	Panajachel	8	Panajachel	6	Junio	2023-06-17T00:00:00	2024-11-08T19:00:00	6	Velocidad del viento	0
43410	7	Sololá	710	Panajachel	8	Panajachel	6	Junio	2023-06-17T00:00:00	2024-11-08T19:00:00	7	Dirección del viento	0
43411	7	Sololá	710	Panajachel	8	Panajachel	6	Junio	2023-06-17T00:00:00	2024-11-08T19:00:00	1	Precipitación	0
43412	7	Sololá	710	Panajachel	8	Panajachel	6	Junio	2023-06-17T00:00:00	2024-11-08T19:00:00	8	Radiación solar	0
43413	7	Sololá	710	Panajachel	8	Panajachel	6	Junio	2023-06-17T00:00:00	2024-11-08T20:00:00	2	Temperatura media	22.2
43414	7	Sololá	710	Panajachel	8	Panajachel	6	Junio	2023-06-17T00:00:00	2024-11-08T20:00:00	4	Temperatura máxima	22.5
43415	7	Sololá	710	Panajachel	8	Panajachel	6	Junio	2023-06-17T00:00:00	2024-11-08T20:00:00	3	Temperatura mínima	20.9
43416	7	Sololá	710	Panajachel	8	Panajachel	6	Junio	2023-06-17T00:00:00	2024-11-08T20:00:00	5	Humedad	75
43417	7	Sololá	710	Panajachel	8	Panajachel	6	Junio	2023-06-17T00:00:00	2024-11-08T20:00:00	6	Velocidad del viento	4.8
43418	7	Sololá	710	Panajachel	8	Panajachel	6	Junio	2023-06-17T00:00:00	2024-11-08T20:00:00	7	Dirección del viento	4.83
43419	7	Sololá	710	Panajachel	8	Panajachel	6	Junio	2023-06-17T00:00:00	2024-11-08T20:00:00	1	Precipitación	0
43420	7	Sololá	710	Panajachel	8	Panajachel	6	Junio	2023-06-17T00:00:00	2024-11-08T20:00:00	8	Radiación solar	0
43421	7	Sololá	710	Panajachel	8	Panajachel	6	Junio	2023-06-17T00:00:00	2024-11-08T21:00:00	2	Temperatura media	20.3
43422	7	Sololá	710	Panajachel	8	Panajachel	6	Junio	2023-06-17T00:00:00	2024-11-08T21:00:00	4	Temperatura máxima	22.2
43423	7	Sololá	710	Panajachel	8	Panajachel	6	Junio	2023-06-17T00:00:00	2024-11-08T21:00:00	3	Temperatura mínima	20.3
43424	7	Sololá	710	Panajachel	8	Panajachel	6	Junio	2023-06-17T00:00:00	2024-11-08T21:00:00	5	Humedad	91
43425	7	Sololá	710	Panajachel	8	Panajachel	6	Junio	2023-06-17T00:00:00	2024-11-08T21:00:00	6	Velocidad del viento	0
43426	7	Sololá	710	Panajachel	8	Panajachel	6	Junio	2023-06-17T00:00:00	2024-11-08T21:00:00	7	Dirección del viento	0
43427	7	Sololá	710	Panajachel	8	Panajachel	6	Junio	2023-06-17T00:00:00	2024-11-08T21:00:00	1	Precipitación	0
43428	7	Sololá	710	Panajachel	8	Panajachel	6	Junio	2023-06-17T00:00:00	2024-11-08T21:00:00	8	Radiación solar	0
43429	7	Sololá	710	Panajachel	8	Panajachel	6	Junio	2023-06-17T00:00:00	2024-11-08T22:00:00	2	Temperatura media	21.4
43430	7	Sololá	710	Panajachel	8	Panajachel	6	Junio	2023-06-17T00:00:00	2024-11-08T22:00:00	4	Temperatura máxima	22.3
43431	7	Sololá	710	Panajachel	8	Panajachel	6	Junio	2023-06-17T00:00:00	2024-11-08T22:00:00	3	Temperatura mínima	19.5
43432	7	Sololá	710	Panajachel	8	Panajachel	6	Junio	2023-06-17T00:00:00	2024-11-08T22:00:00	5	Humedad	76
43433	7	Sololá	710	Panajachel	8	Panajachel	6	Junio	2023-06-17T00:00:00	2024-11-08T22:00:00	6	Velocidad del viento	4.8
43434	7	Sololá	710	Panajachel	8	Panajachel	6	Junio	2023-06-17T00:00:00	2024-11-08T22:00:00	7	Dirección del viento	4.83
43435	7	Sololá	710	Panajachel	8	Panajachel	6	Junio	2023-06-17T00:00:00	2024-11-08T22:00:00	1	Precipitación	0
43436	7	Sololá	710	Panajachel	8	Panajachel	6	Junio	2023-06-17T00:00:00	2024-11-08T22:00:00	8	Radiación solar	0
43437	7	Sololá	710	Panajachel	8	Panajachel	6	Junio	2023-06-17T00:00:00	2024-11-08T23:00:00	2	Temperatura media	20.3
43438	7	Sololá	710	Panajachel	8	Panajachel	6	Junio	2023-06-17T00:00:00	2024-11-08T23:00:00	4	Temperatura máxima	21.4
43439	7	Sololá	710	Panajachel	8	Panajachel	6	Junio	2023-06-17T00:00:00	2024-11-08T23:00:00	3	Temperatura mínima	20.3
43440	7	Sololá	710	Panajachel	8	Panajachel	6	Junio	2023-06-17T00:00:00	2024-11-08T23:00:00	5	Humedad	82
43441	7	Sololá	710	Panajachel	8	Panajachel	6	Junio	2023-06-17T00:00:00	2024-11-08T23:00:00	6	Velocidad del viento	0
43442	7	Sololá	710	Panajachel	8	Panajachel	6	Junio	2023-06-17T00:00:00	2024-11-08T23:00:00	7	Dirección del viento	0
43443	7	Sololá	710	Panajachel	8	Panajachel	6	Junio	2023-06-17T00:00:00	2024-11-08T23:00:00	1	Precipitación	0
43444	7	Sololá	710	Panajachel	8	Panajachel	6	Junio	2023-06-17T00:00:00	2024-11-08T23:00:00	8	Radiación solar	0
43445	7	Sololá	710	Panajachel	8	Panajachel	6	Junio	2023-06-18T00:00:00	2024-11-08T00:00:00	2	Temperatura media	19.1
43446	7	Sololá	710	Panajachel	8	Panajachel	6	Junio	2023-06-18T00:00:00	2024-11-08T00:00:00	4	Temperatura máxima	20.3
43447	7	Sololá	710	Panajachel	8	Panajachel	6	Junio	2023-06-18T00:00:00	2024-11-08T00:00:00	3	Temperatura mínima	18.9
43448	7	Sololá	710	Panajachel	8	Panajachel	6	Junio	2023-06-18T00:00:00	2024-11-08T00:00:00	5	Humedad	82
43449	7	Sololá	710	Panajachel	8	Panajachel	6	Junio	2023-06-18T00:00:00	2024-11-08T00:00:00	6	Velocidad del viento	0
43450	7	Sololá	710	Panajachel	8	Panajachel	6	Junio	2023-06-18T00:00:00	2024-11-08T00:00:00	7	Dirección del viento	0
43451	7	Sololá	710	Panajachel	8	Panajachel	6	Junio	2023-06-18T00:00:00	2024-11-08T00:00:00	1	Precipitación	0
43452	7	Sololá	710	Panajachel	8	Panajachel	6	Junio	2023-06-18T00:00:00	2024-11-08T00:00:00	8	Radiación solar	0
43453	7	Sololá	710	Panajachel	8	Panajachel	6	Junio	2023-06-18T00:00:00	2024-11-08T01:00:00	2	Temperatura media	20.3
43454	7	Sololá	710	Panajachel	8	Panajachel	6	Junio	2023-06-18T00:00:00	2024-11-08T01:00:00	4	Temperatura máxima	20.6
43455	7	Sololá	710	Panajachel	8	Panajachel	6	Junio	2023-06-18T00:00:00	2024-11-08T01:00:00	3	Temperatura mínima	18.9
43456	7	Sololá	710	Panajachel	8	Panajachel	6	Junio	2023-06-18T00:00:00	2024-11-08T01:00:00	5	Humedad	73
43457	7	Sololá	710	Panajachel	8	Panajachel	6	Junio	2023-06-18T00:00:00	2024-11-08T01:00:00	6	Velocidad del viento	1.6
43458	7	Sololá	710	Panajachel	8	Panajachel	6	Junio	2023-06-18T00:00:00	2024-11-08T01:00:00	7	Dirección del viento	1.61
43459	7	Sololá	710	Panajachel	8	Panajachel	6	Junio	2023-06-18T00:00:00	2024-11-08T01:00:00	1	Precipitación	0
43460	7	Sololá	710	Panajachel	8	Panajachel	6	Junio	2023-06-18T00:00:00	2024-11-08T01:00:00	8	Radiación solar	0
43461	7	Sololá	710	Panajachel	8	Panajachel	6	Junio	2023-06-18T00:00:00	2024-11-08T02:00:00	2	Temperatura media	18.7
43462	7	Sololá	710	Panajachel	8	Panajachel	6	Junio	2023-06-18T00:00:00	2024-11-08T02:00:00	4	Temperatura máxima	20.4
43463	7	Sololá	710	Panajachel	8	Panajachel	6	Junio	2023-06-18T00:00:00	2024-11-08T02:00:00	3	Temperatura mínima	18.7
43464	7	Sololá	710	Panajachel	8	Panajachel	6	Junio	2023-06-18T00:00:00	2024-11-08T02:00:00	5	Humedad	78
43465	7	Sololá	710	Panajachel	8	Panajachel	6	Junio	2023-06-18T00:00:00	2024-11-08T02:00:00	6	Velocidad del viento	0
43466	7	Sololá	710	Panajachel	8	Panajachel	6	Junio	2023-06-18T00:00:00	2024-11-08T02:00:00	7	Dirección del viento	0
43467	7	Sololá	710	Panajachel	8	Panajachel	6	Junio	2023-06-18T00:00:00	2024-11-08T02:00:00	1	Precipitación	0
43468	7	Sololá	710	Panajachel	8	Panajachel	6	Junio	2023-06-18T00:00:00	2024-11-08T02:00:00	8	Radiación solar	0
43469	7	Sololá	710	Panajachel	8	Panajachel	6	Junio	2023-06-18T00:00:00	2024-11-08T03:00:00	2	Temperatura media	19.2
43470	7	Sololá	710	Panajachel	8	Panajachel	6	Junio	2023-06-18T00:00:00	2024-11-08T03:00:00	4	Temperatura máxima	19.2
43471	7	Sololá	710	Panajachel	8	Panajachel	6	Junio	2023-06-18T00:00:00	2024-11-08T03:00:00	3	Temperatura mínima	17.7
43472	7	Sololá	710	Panajachel	8	Panajachel	6	Junio	2023-06-18T00:00:00	2024-11-08T03:00:00	5	Humedad	72
43473	7	Sololá	710	Panajachel	8	Panajachel	6	Junio	2023-06-18T00:00:00	2024-11-08T03:00:00	6	Velocidad del viento	0
43474	7	Sololá	710	Panajachel	8	Panajachel	6	Junio	2023-06-18T00:00:00	2024-11-08T03:00:00	7	Dirección del viento	0
43475	7	Sololá	710	Panajachel	8	Panajachel	6	Junio	2023-06-18T00:00:00	2024-11-08T03:00:00	1	Precipitación	0
43476	7	Sololá	710	Panajachel	8	Panajachel	6	Junio	2023-06-18T00:00:00	2024-11-08T03:00:00	8	Radiación solar	0
43477	7	Sololá	710	Panajachel	8	Panajachel	6	Junio	2023-06-18T00:00:00	2024-11-08T04:00:00	2	Temperatura media	18.1
43478	7	Sololá	710	Panajachel	8	Panajachel	6	Junio	2023-06-18T00:00:00	2024-11-08T04:00:00	4	Temperatura máxima	19.4
43479	7	Sololá	710	Panajachel	8	Panajachel	6	Junio	2023-06-18T00:00:00	2024-11-08T04:00:00	3	Temperatura mínima	17.7
43480	7	Sololá	710	Panajachel	8	Panajachel	6	Junio	2023-06-18T00:00:00	2024-11-08T04:00:00	5	Humedad	76
43481	7	Sololá	710	Panajachel	8	Panajachel	6	Junio	2023-06-18T00:00:00	2024-11-08T04:00:00	6	Velocidad del viento	0
43482	7	Sololá	710	Panajachel	8	Panajachel	6	Junio	2023-06-18T00:00:00	2024-11-08T04:00:00	7	Dirección del viento	0
43483	7	Sololá	710	Panajachel	8	Panajachel	6	Junio	2023-06-18T00:00:00	2024-11-08T04:00:00	1	Precipitación	0
43484	7	Sololá	710	Panajachel	8	Panajachel	6	Junio	2023-06-18T00:00:00	2024-11-08T04:00:00	8	Radiación solar	0
43485	7	Sololá	710	Panajachel	8	Panajachel	6	Junio	2023-06-18T00:00:00	2024-11-08T05:00:00	2	Temperatura media	19.9
43486	7	Sololá	710	Panajachel	8	Panajachel	6	Junio	2023-06-18T00:00:00	2024-11-08T05:00:00	4	Temperatura máxima	20.6
43487	7	Sololá	710	Panajachel	8	Panajachel	6	Junio	2023-06-18T00:00:00	2024-11-08T05:00:00	3	Temperatura mínima	18.1
43488	7	Sololá	710	Panajachel	8	Panajachel	6	Junio	2023-06-18T00:00:00	2024-11-08T05:00:00	5	Humedad	68
43489	7	Sololá	710	Panajachel	8	Panajachel	6	Junio	2023-06-18T00:00:00	2024-11-08T05:00:00	6	Velocidad del viento	4.8
43490	7	Sololá	710	Panajachel	8	Panajachel	6	Junio	2023-06-18T00:00:00	2024-11-08T05:00:00	7	Dirección del viento	4.83
43491	7	Sololá	710	Panajachel	8	Panajachel	6	Junio	2023-06-18T00:00:00	2024-11-08T05:00:00	1	Precipitación	0
43492	7	Sololá	710	Panajachel	8	Panajachel	6	Junio	2023-06-18T00:00:00	2024-11-08T05:00:00	8	Radiación solar	0
43493	7	Sololá	710	Panajachel	8	Panajachel	6	Junio	2023-06-18T00:00:00	2024-11-08T06:00:00	2	Temperatura media	17.6
43494	7	Sololá	710	Panajachel	8	Panajachel	6	Junio	2023-06-18T00:00:00	2024-11-08T06:00:00	4	Temperatura máxima	19.9
43495	7	Sololá	710	Panajachel	8	Panajachel	6	Junio	2023-06-18T00:00:00	2024-11-08T06:00:00	3	Temperatura mínima	17.6
43496	7	Sololá	710	Panajachel	8	Panajachel	6	Junio	2023-06-18T00:00:00	2024-11-08T06:00:00	5	Humedad	78
43497	7	Sololá	710	Panajachel	8	Panajachel	6	Junio	2023-06-18T00:00:00	2024-11-08T06:00:00	6	Velocidad del viento	3.2
43498	7	Sololá	710	Panajachel	8	Panajachel	6	Junio	2023-06-18T00:00:00	2024-11-08T06:00:00	7	Dirección del viento	3.22
43499	7	Sololá	710	Panajachel	8	Panajachel	6	Junio	2023-06-18T00:00:00	2024-11-08T06:00:00	1	Precipitación	0
43500	7	Sololá	710	Panajachel	8	Panajachel	6	Junio	2023-06-18T00:00:00	2024-11-08T06:00:00	8	Radiación solar	5
43501	7	Sololá	710	Panajachel	8	Panajachel	6	Junio	2023-06-18T00:00:00	2024-11-08T07:00:00	2	Temperatura media	20.2
43502	7	Sololá	710	Panajachel	8	Panajachel	6	Junio	2023-06-18T00:00:00	2024-11-08T07:00:00	4	Temperatura máxima	20.2
43503	7	Sololá	710	Panajachel	8	Panajachel	6	Junio	2023-06-18T00:00:00	2024-11-08T07:00:00	3	Temperatura mínima	17.2
43504	7	Sololá	710	Panajachel	8	Panajachel	6	Junio	2023-06-18T00:00:00	2024-11-08T07:00:00	5	Humedad	69
43505	7	Sololá	710	Panajachel	8	Panajachel	6	Junio	2023-06-18T00:00:00	2024-11-08T07:00:00	6	Velocidad del viento	1.6
43506	7	Sololá	710	Panajachel	8	Panajachel	6	Junio	2023-06-18T00:00:00	2024-11-08T07:00:00	7	Dirección del viento	1.61
43507	7	Sololá	710	Panajachel	8	Panajachel	6	Junio	2023-06-18T00:00:00	2024-11-08T07:00:00	1	Precipitación	0
43508	7	Sololá	710	Panajachel	8	Panajachel	6	Junio	2023-06-18T00:00:00	2024-11-08T07:00:00	8	Radiación solar	113
43509	7	Sololá	710	Panajachel	8	Panajachel	6	Junio	2023-06-18T00:00:00	2024-11-08T08:00:00	2	Temperatura media	24.4
43510	7	Sololá	710	Panajachel	8	Panajachel	6	Junio	2023-06-18T00:00:00	2024-11-08T08:00:00	4	Temperatura máxima	24.4
43511	7	Sololá	710	Panajachel	8	Panajachel	6	Junio	2023-06-18T00:00:00	2024-11-08T08:00:00	3	Temperatura mínima	20.2
43512	7	Sololá	710	Panajachel	8	Panajachel	6	Junio	2023-06-18T00:00:00	2024-11-08T08:00:00	5	Humedad	55
43513	7	Sololá	710	Panajachel	8	Panajachel	6	Junio	2023-06-18T00:00:00	2024-11-08T08:00:00	6	Velocidad del viento	1.6
43514	7	Sololá	710	Panajachel	8	Panajachel	6	Junio	2023-06-18T00:00:00	2024-11-08T08:00:00	7	Dirección del viento	1.61
43515	7	Sololá	710	Panajachel	8	Panajachel	6	Junio	2023-06-18T00:00:00	2024-11-08T08:00:00	1	Precipitación	0
43516	7	Sololá	710	Panajachel	8	Panajachel	6	Junio	2023-06-18T00:00:00	2024-11-08T08:00:00	8	Radiación solar	349
43517	7	Sololá	710	Panajachel	8	Panajachel	6	Junio	2023-06-18T00:00:00	2024-11-08T09:00:00	2	Temperatura media	23.9
43518	7	Sololá	710	Panajachel	8	Panajachel	6	Junio	2023-06-18T00:00:00	2024-11-08T09:00:00	4	Temperatura máxima	25.3
43519	7	Sololá	710	Panajachel	8	Panajachel	6	Junio	2023-06-18T00:00:00	2024-11-08T09:00:00	3	Temperatura mínima	23.8
43520	7	Sololá	710	Panajachel	8	Panajachel	6	Junio	2023-06-18T00:00:00	2024-11-08T09:00:00	5	Humedad	61
43521	7	Sololá	710	Panajachel	8	Panajachel	6	Junio	2023-06-18T00:00:00	2024-11-08T09:00:00	6	Velocidad del viento	1.6
43522	7	Sololá	710	Panajachel	8	Panajachel	6	Junio	2023-06-18T00:00:00	2024-11-08T09:00:00	7	Dirección del viento	1.61
43523	7	Sololá	710	Panajachel	8	Panajachel	6	Junio	2023-06-18T00:00:00	2024-11-08T09:00:00	1	Precipitación	0
43524	7	Sololá	710	Panajachel	8	Panajachel	6	Junio	2023-06-18T00:00:00	2024-11-08T09:00:00	8	Radiación solar	554
43525	7	Sololá	710	Panajachel	8	Panajachel	6	Junio	2023-06-18T00:00:00	2024-11-08T10:00:00	2	Temperatura media	25.7
43526	7	Sololá	710	Panajachel	8	Panajachel	6	Junio	2023-06-18T00:00:00	2024-11-08T10:00:00	4	Temperatura máxima	25.7
43527	7	Sololá	710	Panajachel	8	Panajachel	6	Junio	2023-06-18T00:00:00	2024-11-08T10:00:00	3	Temperatura mínima	23.9
43528	7	Sololá	710	Panajachel	8	Panajachel	6	Junio	2023-06-18T00:00:00	2024-11-08T10:00:00	5	Humedad	58
43529	7	Sololá	710	Panajachel	8	Panajachel	6	Junio	2023-06-18T00:00:00	2024-11-08T10:00:00	6	Velocidad del viento	0
43530	7	Sololá	710	Panajachel	8	Panajachel	6	Junio	2023-06-18T00:00:00	2024-11-08T10:00:00	7	Dirección del viento	0
43531	7	Sololá	710	Panajachel	8	Panajachel	6	Junio	2023-06-18T00:00:00	2024-11-08T10:00:00	1	Precipitación	0
43532	7	Sololá	710	Panajachel	8	Panajachel	6	Junio	2023-06-18T00:00:00	2024-11-08T10:00:00	8	Radiación solar	733
43533	7	Sololá	710	Panajachel	8	Panajachel	6	Junio	2023-06-18T00:00:00	2024-11-08T11:00:00	2	Temperatura media	28.1
43534	7	Sololá	710	Panajachel	8	Panajachel	6	Junio	2023-06-18T00:00:00	2024-11-08T11:00:00	4	Temperatura máxima	28.1
43535	7	Sololá	710	Panajachel	8	Panajachel	6	Junio	2023-06-18T00:00:00	2024-11-08T11:00:00	3	Temperatura mínima	25.7
43536	7	Sololá	710	Panajachel	8	Panajachel	6	Junio	2023-06-18T00:00:00	2024-11-08T11:00:00	5	Humedad	47
43537	7	Sololá	710	Panajachel	8	Panajachel	6	Junio	2023-06-18T00:00:00	2024-11-08T11:00:00	6	Velocidad del viento	0
43538	7	Sololá	710	Panajachel	8	Panajachel	6	Junio	2023-06-18T00:00:00	2024-11-08T11:00:00	7	Dirección del viento	0
43539	7	Sololá	710	Panajachel	8	Panajachel	6	Junio	2023-06-18T00:00:00	2024-11-08T11:00:00	1	Precipitación	0
43540	7	Sololá	710	Panajachel	8	Panajachel	6	Junio	2023-06-18T00:00:00	2024-11-08T11:00:00	8	Radiación solar	863
43541	7	Sololá	710	Panajachel	8	Panajachel	6	Junio	2023-06-18T00:00:00	2024-11-08T12:00:00	2	Temperatura media	28.2
43542	7	Sololá	710	Panajachel	8	Panajachel	6	Junio	2023-06-18T00:00:00	2024-11-08T12:00:00	4	Temperatura máxima	28.2
43543	7	Sololá	710	Panajachel	8	Panajachel	6	Junio	2023-06-18T00:00:00	2024-11-08T12:00:00	3	Temperatura mínima	27.2
43544	7	Sololá	710	Panajachel	8	Panajachel	6	Junio	2023-06-18T00:00:00	2024-11-08T12:00:00	5	Humedad	39
43545	7	Sololá	710	Panajachel	8	Panajachel	6	Junio	2023-06-18T00:00:00	2024-11-08T12:00:00	6	Velocidad del viento	1.6
43546	7	Sololá	710	Panajachel	8	Panajachel	6	Junio	2023-06-18T00:00:00	2024-11-08T12:00:00	7	Dirección del viento	1.61
43547	7	Sololá	710	Panajachel	8	Panajachel	6	Junio	2023-06-18T00:00:00	2024-11-08T12:00:00	1	Precipitación	0
43548	7	Sololá	710	Panajachel	8	Panajachel	6	Junio	2023-06-18T00:00:00	2024-11-08T12:00:00	8	Radiación solar	948
43549	7	Sololá	710	Panajachel	8	Panajachel	6	Junio	2023-06-18T00:00:00	2024-11-08T13:00:00	2	Temperatura media	25.3
43550	7	Sololá	710	Panajachel	8	Panajachel	6	Junio	2023-06-18T00:00:00	2024-11-08T13:00:00	4	Temperatura máxima	28.7
43551	7	Sololá	710	Panajachel	8	Panajachel	6	Junio	2023-06-18T00:00:00	2024-11-08T13:00:00	3	Temperatura mínima	24.9
43552	7	Sololá	710	Panajachel	8	Panajachel	6	Junio	2023-06-18T00:00:00	2024-11-08T13:00:00	5	Humedad	69
43553	7	Sololá	710	Panajachel	8	Panajachel	6	Junio	2023-06-18T00:00:00	2024-11-08T13:00:00	6	Velocidad del viento	4.8
43554	7	Sololá	710	Panajachel	8	Panajachel	6	Junio	2023-06-18T00:00:00	2024-11-08T13:00:00	7	Dirección del viento	4.83
43555	7	Sololá	710	Panajachel	8	Panajachel	6	Junio	2023-06-18T00:00:00	2024-11-08T13:00:00	1	Precipitación	0
43556	7	Sololá	710	Panajachel	8	Panajachel	6	Junio	2023-06-18T00:00:00	2024-11-08T13:00:00	8	Radiación solar	946
43557	7	Sololá	710	Panajachel	8	Panajachel	6	Junio	2023-06-18T00:00:00	2024-11-08T14:00:00	2	Temperatura media	24.8
43558	7	Sololá	710	Panajachel	8	Panajachel	6	Junio	2023-06-18T00:00:00	2024-11-08T14:00:00	4	Temperatura máxima	27.1
43559	7	Sololá	710	Panajachel	8	Panajachel	6	Junio	2023-06-18T00:00:00	2024-11-08T14:00:00	3	Temperatura mínima	24.7
43560	7	Sololá	710	Panajachel	8	Panajachel	6	Junio	2023-06-18T00:00:00	2024-11-08T14:00:00	5	Humedad	74
43561	7	Sololá	710	Panajachel	8	Panajachel	6	Junio	2023-06-18T00:00:00	2024-11-08T14:00:00	6	Velocidad del viento	6.4
43562	7	Sololá	710	Panajachel	8	Panajachel	6	Junio	2023-06-18T00:00:00	2024-11-08T14:00:00	7	Dirección del viento	6.44
43563	7	Sololá	710	Panajachel	8	Panajachel	6	Junio	2023-06-18T00:00:00	2024-11-08T14:00:00	1	Precipitación	0
43564	7	Sololá	710	Panajachel	8	Panajachel	6	Junio	2023-06-18T00:00:00	2024-11-08T14:00:00	8	Radiación solar	952
43565	7	Sololá	710	Panajachel	8	Panajachel	6	Junio	2023-06-18T00:00:00	2024-11-08T15:00:00	2	Temperatura media	24.7
43566	7	Sololá	710	Panajachel	8	Panajachel	6	Junio	2023-06-18T00:00:00	2024-11-08T15:00:00	4	Temperatura máxima	25.3
43567	7	Sololá	710	Panajachel	8	Panajachel	6	Junio	2023-06-18T00:00:00	2024-11-08T15:00:00	3	Temperatura mínima	24.6
43568	7	Sololá	710	Panajachel	8	Panajachel	6	Junio	2023-06-18T00:00:00	2024-11-08T15:00:00	5	Humedad	76
43569	7	Sololá	710	Panajachel	8	Panajachel	6	Junio	2023-06-18T00:00:00	2024-11-08T15:00:00	6	Velocidad del viento	8
43570	7	Sololá	710	Panajachel	8	Panajachel	6	Junio	2023-06-18T00:00:00	2024-11-08T15:00:00	7	Dirección del viento	8.05
43571	7	Sololá	710	Panajachel	8	Panajachel	6	Junio	2023-06-18T00:00:00	2024-11-08T15:00:00	1	Precipitación	0
43572	7	Sololá	710	Panajachel	8	Panajachel	6	Junio	2023-06-18T00:00:00	2024-11-08T15:00:00	8	Radiación solar	720
43573	7	Sololá	710	Panajachel	8	Panajachel	6	Junio	2023-06-18T00:00:00	2024-11-08T16:00:00	2	Temperatura media	25
43574	7	Sololá	710	Panajachel	8	Panajachel	6	Junio	2023-06-18T00:00:00	2024-11-08T16:00:00	4	Temperatura máxima	25.2
43575	7	Sololá	710	Panajachel	8	Panajachel	6	Junio	2023-06-18T00:00:00	2024-11-08T16:00:00	3	Temperatura mínima	24.3
43576	7	Sololá	710	Panajachel	8	Panajachel	6	Junio	2023-06-18T00:00:00	2024-11-08T16:00:00	5	Humedad	78
43577	7	Sololá	710	Panajachel	8	Panajachel	6	Junio	2023-06-18T00:00:00	2024-11-08T16:00:00	6	Velocidad del viento	6.4
43578	7	Sololá	710	Panajachel	8	Panajachel	6	Junio	2023-06-18T00:00:00	2024-11-08T16:00:00	7	Dirección del viento	6.44
43579	7	Sololá	710	Panajachel	8	Panajachel	6	Junio	2023-06-18T00:00:00	2024-11-08T16:00:00	1	Precipitación	0
43580	7	Sololá	710	Panajachel	8	Panajachel	6	Junio	2023-06-18T00:00:00	2024-11-08T16:00:00	8	Radiación solar	383
43581	7	Sololá	710	Panajachel	8	Panajachel	6	Junio	2023-06-18T00:00:00	2024-11-08T17:00:00	2	Temperatura media	24.2
43582	7	Sololá	710	Panajachel	8	Panajachel	6	Junio	2023-06-18T00:00:00	2024-11-08T17:00:00	4	Temperatura máxima	25
43583	7	Sololá	710	Panajachel	8	Panajachel	6	Junio	2023-06-18T00:00:00	2024-11-08T17:00:00	3	Temperatura mínima	24.1
43584	7	Sololá	710	Panajachel	8	Panajachel	6	Junio	2023-06-18T00:00:00	2024-11-08T17:00:00	5	Humedad	79
43585	7	Sololá	710	Panajachel	8	Panajachel	6	Junio	2023-06-18T00:00:00	2024-11-08T17:00:00	6	Velocidad del viento	0
43586	7	Sololá	710	Panajachel	8	Panajachel	6	Junio	2023-06-18T00:00:00	2024-11-08T17:00:00	7	Dirección del viento	0
43587	7	Sololá	710	Panajachel	8	Panajachel	6	Junio	2023-06-18T00:00:00	2024-11-08T17:00:00	1	Precipitación	0
43588	7	Sololá	710	Panajachel	8	Panajachel	6	Junio	2023-06-18T00:00:00	2024-11-08T17:00:00	8	Radiación solar	167
43589	7	Sololá	710	Panajachel	8	Panajachel	6	Junio	2023-06-18T00:00:00	2024-11-08T18:00:00	2	Temperatura media	22.7
43590	7	Sololá	710	Panajachel	8	Panajachel	6	Junio	2023-06-18T00:00:00	2024-11-08T18:00:00	4	Temperatura máxima	24.2
43591	7	Sololá	710	Panajachel	8	Panajachel	6	Junio	2023-06-18T00:00:00	2024-11-08T18:00:00	3	Temperatura mínima	22.7
43592	7	Sololá	710	Panajachel	8	Panajachel	6	Junio	2023-06-18T00:00:00	2024-11-08T18:00:00	5	Humedad	84
43593	7	Sololá	710	Panajachel	8	Panajachel	6	Junio	2023-06-18T00:00:00	2024-11-08T18:00:00	6	Velocidad del viento	0
43594	7	Sololá	710	Panajachel	8	Panajachel	6	Junio	2023-06-18T00:00:00	2024-11-08T18:00:00	7	Dirección del viento	0
43595	7	Sololá	710	Panajachel	8	Panajachel	6	Junio	2023-06-18T00:00:00	2024-11-08T18:00:00	1	Precipitación	0
43596	7	Sololá	710	Panajachel	8	Panajachel	6	Junio	2023-06-18T00:00:00	2024-11-08T18:00:00	8	Radiación solar	76
43597	7	Sololá	710	Panajachel	8	Panajachel	6	Junio	2023-06-18T00:00:00	2024-11-08T19:00:00	2	Temperatura media	21.9
43598	7	Sololá	710	Panajachel	8	Panajachel	6	Junio	2023-06-18T00:00:00	2024-11-08T19:00:00	4	Temperatura máxima	22.7
43599	7	Sololá	710	Panajachel	8	Panajachel	6	Junio	2023-06-18T00:00:00	2024-11-08T19:00:00	3	Temperatura mínima	21.8
43600	7	Sololá	710	Panajachel	8	Panajachel	6	Junio	2023-06-18T00:00:00	2024-11-08T19:00:00	5	Humedad	88
43601	7	Sololá	710	Panajachel	8	Panajachel	6	Junio	2023-06-18T00:00:00	2024-11-08T19:00:00	6	Velocidad del viento	0
43602	7	Sololá	710	Panajachel	8	Panajachel	6	Junio	2023-06-18T00:00:00	2024-11-08T19:00:00	7	Dirección del viento	0
43603	7	Sololá	710	Panajachel	8	Panajachel	6	Junio	2023-06-18T00:00:00	2024-11-08T19:00:00	1	Precipitación	0
43604	7	Sololá	710	Panajachel	8	Panajachel	6	Junio	2023-06-18T00:00:00	2024-11-08T19:00:00	8	Radiación solar	0
43605	7	Sololá	710	Panajachel	8	Panajachel	6	Junio	2023-06-18T00:00:00	2024-11-08T20:00:00	2	Temperatura media	21.2
43606	7	Sololá	710	Panajachel	8	Panajachel	6	Junio	2023-06-18T00:00:00	2024-11-08T20:00:00	4	Temperatura máxima	21.9
43607	7	Sololá	710	Panajachel	8	Panajachel	6	Junio	2023-06-18T00:00:00	2024-11-08T20:00:00	3	Temperatura mínima	21.2
43608	7	Sololá	710	Panajachel	8	Panajachel	6	Junio	2023-06-18T00:00:00	2024-11-08T20:00:00	5	Humedad	88
43609	7	Sololá	710	Panajachel	8	Panajachel	6	Junio	2023-06-18T00:00:00	2024-11-08T20:00:00	6	Velocidad del viento	1.6
43610	7	Sololá	710	Panajachel	8	Panajachel	6	Junio	2023-06-18T00:00:00	2024-11-08T20:00:00	7	Dirección del viento	1.61
43611	7	Sololá	710	Panajachel	8	Panajachel	6	Junio	2023-06-18T00:00:00	2024-11-08T20:00:00	1	Precipitación	0
43612	7	Sololá	710	Panajachel	8	Panajachel	6	Junio	2023-06-18T00:00:00	2024-11-08T20:00:00	8	Radiación solar	0
43613	7	Sololá	710	Panajachel	8	Panajachel	6	Junio	2023-06-18T00:00:00	2024-11-08T21:00:00	2	Temperatura media	21.9
43614	7	Sololá	710	Panajachel	8	Panajachel	6	Junio	2023-06-18T00:00:00	2024-11-08T21:00:00	4	Temperatura máxima	21.9
43615	7	Sololá	710	Panajachel	8	Panajachel	6	Junio	2023-06-18T00:00:00	2024-11-08T21:00:00	3	Temperatura mínima	20.7
43616	7	Sololá	710	Panajachel	8	Panajachel	6	Junio	2023-06-18T00:00:00	2024-11-08T21:00:00	5	Humedad	73
43617	7	Sololá	710	Panajachel	8	Panajachel	6	Junio	2023-06-18T00:00:00	2024-11-08T21:00:00	6	Velocidad del viento	3.2
43618	7	Sololá	710	Panajachel	8	Panajachel	6	Junio	2023-06-18T00:00:00	2024-11-08T21:00:00	7	Dirección del viento	3.22
43619	7	Sololá	710	Panajachel	8	Panajachel	6	Junio	2023-06-18T00:00:00	2024-11-08T21:00:00	1	Precipitación	0
43620	7	Sololá	710	Panajachel	8	Panajachel	6	Junio	2023-06-18T00:00:00	2024-11-08T21:00:00	8	Radiación solar	0
43621	7	Sololá	710	Panajachel	8	Panajachel	6	Junio	2023-06-18T00:00:00	2024-11-08T22:00:00	2	Temperatura media	20.7
43622	7	Sololá	710	Panajachel	8	Panajachel	6	Junio	2023-06-18T00:00:00	2024-11-08T22:00:00	4	Temperatura máxima	21.9
43623	7	Sololá	710	Panajachel	8	Panajachel	6	Junio	2023-06-18T00:00:00	2024-11-08T22:00:00	3	Temperatura mínima	20.7
43624	7	Sololá	710	Panajachel	8	Panajachel	6	Junio	2023-06-18T00:00:00	2024-11-08T22:00:00	5	Humedad	77
43625	7	Sololá	710	Panajachel	8	Panajachel	6	Junio	2023-06-18T00:00:00	2024-11-08T22:00:00	6	Velocidad del viento	1.6
43626	7	Sololá	710	Panajachel	8	Panajachel	6	Junio	2023-06-18T00:00:00	2024-11-08T22:00:00	7	Dirección del viento	1.61
43627	7	Sololá	710	Panajachel	8	Panajachel	6	Junio	2023-06-18T00:00:00	2024-11-08T22:00:00	1	Precipitación	0
43628	7	Sololá	710	Panajachel	8	Panajachel	6	Junio	2023-06-18T00:00:00	2024-11-08T22:00:00	8	Radiación solar	0
43629	7	Sololá	710	Panajachel	8	Panajachel	6	Junio	2023-06-18T00:00:00	2024-11-08T23:00:00	2	Temperatura media	21.6
43630	7	Sololá	710	Panajachel	8	Panajachel	6	Junio	2023-06-18T00:00:00	2024-11-08T23:00:00	4	Temperatura máxima	21.6
43631	7	Sololá	710	Panajachel	8	Panajachel	6	Junio	2023-06-18T00:00:00	2024-11-08T23:00:00	3	Temperatura mínima	20.5
43632	7	Sololá	710	Panajachel	8	Panajachel	6	Junio	2023-06-18T00:00:00	2024-11-08T23:00:00	5	Humedad	70
43633	7	Sololá	710	Panajachel	8	Panajachel	6	Junio	2023-06-18T00:00:00	2024-11-08T23:00:00	6	Velocidad del viento	1.6
43634	7	Sololá	710	Panajachel	8	Panajachel	6	Junio	2023-06-18T00:00:00	2024-11-08T23:00:00	7	Dirección del viento	1.61
43635	7	Sololá	710	Panajachel	8	Panajachel	6	Junio	2023-06-18T00:00:00	2024-11-08T23:00:00	1	Precipitación	0
43636	7	Sololá	710	Panajachel	8	Panajachel	6	Junio	2023-06-18T00:00:00	2024-11-08T23:00:00	8	Radiación solar	0
43637	7	Sololá	710	Panajachel	8	Panajachel	6	Junio	2023-06-19T00:00:00	2024-11-08T00:00:00	2	Temperatura media	22
43638	7	Sololá	710	Panajachel	8	Panajachel	6	Junio	2023-06-19T00:00:00	2024-11-08T00:00:00	4	Temperatura máxima	22
43639	7	Sololá	710	Panajachel	8	Panajachel	6	Junio	2023-06-19T00:00:00	2024-11-08T00:00:00	3	Temperatura mínima	21.6
43640	7	Sololá	710	Panajachel	8	Panajachel	6	Junio	2023-06-19T00:00:00	2024-11-08T00:00:00	5	Humedad	68
43641	7	Sololá	710	Panajachel	8	Panajachel	6	Junio	2023-06-19T00:00:00	2024-11-08T00:00:00	6	Velocidad del viento	4.8
43642	7	Sololá	710	Panajachel	8	Panajachel	6	Junio	2023-06-19T00:00:00	2024-11-08T00:00:00	7	Dirección del viento	4.83
43643	7	Sololá	710	Panajachel	8	Panajachel	6	Junio	2023-06-19T00:00:00	2024-11-08T00:00:00	1	Precipitación	0
43644	7	Sololá	710	Panajachel	8	Panajachel	6	Junio	2023-06-19T00:00:00	2024-11-08T00:00:00	8	Radiación solar	0
43645	7	Sololá	710	Panajachel	8	Panajachel	6	Junio	2023-06-19T00:00:00	2024-11-08T01:00:00	2	Temperatura media	21.4
43646	7	Sololá	710	Panajachel	8	Panajachel	6	Junio	2023-06-19T00:00:00	2024-11-08T01:00:00	4	Temperatura máxima	22.1
43647	7	Sololá	710	Panajachel	8	Panajachel	6	Junio	2023-06-19T00:00:00	2024-11-08T01:00:00	3	Temperatura mínima	21.4
43648	7	Sololá	710	Panajachel	8	Panajachel	6	Junio	2023-06-19T00:00:00	2024-11-08T01:00:00	5	Humedad	71
43649	7	Sololá	710	Panajachel	8	Panajachel	6	Junio	2023-06-19T00:00:00	2024-11-08T01:00:00	6	Velocidad del viento	1.6
43650	7	Sololá	710	Panajachel	8	Panajachel	6	Junio	2023-06-19T00:00:00	2024-11-08T01:00:00	7	Dirección del viento	1.61
43651	7	Sololá	710	Panajachel	8	Panajachel	6	Junio	2023-06-19T00:00:00	2024-11-08T01:00:00	1	Precipitación	0
43652	7	Sololá	710	Panajachel	8	Panajachel	6	Junio	2023-06-19T00:00:00	2024-11-08T01:00:00	8	Radiación solar	0
43653	7	Sololá	710	Panajachel	8	Panajachel	6	Junio	2023-06-19T00:00:00	2024-11-08T02:00:00	2	Temperatura media	20.9
43654	7	Sololá	710	Panajachel	8	Panajachel	6	Junio	2023-06-19T00:00:00	2024-11-08T02:00:00	4	Temperatura máxima	21.4
43655	7	Sololá	710	Panajachel	8	Panajachel	6	Junio	2023-06-19T00:00:00	2024-11-08T02:00:00	3	Temperatura mínima	20.9
43656	7	Sololá	710	Panajachel	8	Panajachel	6	Junio	2023-06-19T00:00:00	2024-11-08T02:00:00	5	Humedad	73
43657	7	Sololá	710	Panajachel	8	Panajachel	6	Junio	2023-06-19T00:00:00	2024-11-08T02:00:00	6	Velocidad del viento	0
43658	7	Sololá	710	Panajachel	8	Panajachel	6	Junio	2023-06-19T00:00:00	2024-11-08T02:00:00	7	Dirección del viento	0
43659	7	Sololá	710	Panajachel	8	Panajachel	6	Junio	2023-06-19T00:00:00	2024-11-08T02:00:00	1	Precipitación	0
43660	7	Sololá	710	Panajachel	8	Panajachel	6	Junio	2023-06-19T00:00:00	2024-11-08T02:00:00	8	Radiación solar	0
43661	7	Sololá	710	Panajachel	8	Panajachel	6	Junio	2023-06-19T00:00:00	2024-11-08T03:00:00	2	Temperatura media	20.5
43662	7	Sololá	710	Panajachel	8	Panajachel	6	Junio	2023-06-19T00:00:00	2024-11-08T03:00:00	4	Temperatura máxima	21
43663	7	Sololá	710	Panajachel	8	Panajachel	6	Junio	2023-06-19T00:00:00	2024-11-08T03:00:00	3	Temperatura mínima	20.4
43664	7	Sololá	710	Panajachel	8	Panajachel	6	Junio	2023-06-19T00:00:00	2024-11-08T03:00:00	5	Humedad	75
43665	7	Sololá	710	Panajachel	8	Panajachel	6	Junio	2023-06-19T00:00:00	2024-11-08T03:00:00	6	Velocidad del viento	0
43666	7	Sololá	710	Panajachel	8	Panajachel	6	Junio	2023-06-19T00:00:00	2024-11-08T03:00:00	7	Dirección del viento	0
43667	7	Sololá	710	Panajachel	8	Panajachel	6	Junio	2023-06-19T00:00:00	2024-11-08T03:00:00	1	Precipitación	0
43668	7	Sololá	710	Panajachel	8	Panajachel	6	Junio	2023-06-19T00:00:00	2024-11-08T03:00:00	8	Radiación solar	0
43669	7	Sololá	710	Panajachel	8	Panajachel	6	Junio	2023-06-19T00:00:00	2024-11-08T04:00:00	2	Temperatura media	20.6
43670	7	Sololá	710	Panajachel	8	Panajachel	6	Junio	2023-06-19T00:00:00	2024-11-08T04:00:00	4	Temperatura máxima	20.6
43671	7	Sololá	710	Panajachel	8	Panajachel	6	Junio	2023-06-19T00:00:00	2024-11-08T04:00:00	3	Temperatura mínima	19.9
43672	7	Sololá	710	Panajachel	8	Panajachel	6	Junio	2023-06-19T00:00:00	2024-11-08T04:00:00	5	Humedad	72
43673	7	Sololá	710	Panajachel	8	Panajachel	6	Junio	2023-06-19T00:00:00	2024-11-08T04:00:00	6	Velocidad del viento	0
43674	7	Sololá	710	Panajachel	8	Panajachel	6	Junio	2023-06-19T00:00:00	2024-11-08T04:00:00	7	Dirección del viento	0
43675	7	Sololá	710	Panajachel	8	Panajachel	6	Junio	2023-06-19T00:00:00	2024-11-08T04:00:00	1	Precipitación	0
43676	7	Sololá	710	Panajachel	8	Panajachel	6	Junio	2023-06-19T00:00:00	2024-11-08T04:00:00	8	Radiación solar	0
43677	7	Sololá	710	Panajachel	8	Panajachel	6	Junio	2023-06-19T00:00:00	2024-11-08T05:00:00	2	Temperatura media	20.3
43678	7	Sololá	710	Panajachel	8	Panajachel	6	Junio	2023-06-19T00:00:00	2024-11-08T05:00:00	4	Temperatura máxima	20.8
43679	7	Sololá	710	Panajachel	8	Panajachel	6	Junio	2023-06-19T00:00:00	2024-11-08T05:00:00	3	Temperatura mínima	20.1
43680	7	Sololá	710	Panajachel	8	Panajachel	6	Junio	2023-06-19T00:00:00	2024-11-08T05:00:00	5	Humedad	72
43681	7	Sololá	710	Panajachel	8	Panajachel	6	Junio	2023-06-19T00:00:00	2024-11-08T05:00:00	6	Velocidad del viento	1.6
43682	7	Sololá	710	Panajachel	8	Panajachel	6	Junio	2023-06-19T00:00:00	2024-11-08T05:00:00	7	Dirección del viento	1.61
43683	7	Sololá	710	Panajachel	8	Panajachel	6	Junio	2023-06-19T00:00:00	2024-11-08T05:00:00	1	Precipitación	0
43684	7	Sololá	710	Panajachel	8	Panajachel	6	Junio	2023-06-19T00:00:00	2024-11-08T05:00:00	8	Radiación solar	0
43685	7	Sololá	710	Panajachel	8	Panajachel	6	Junio	2023-06-19T00:00:00	2024-11-08T06:00:00	2	Temperatura media	18.9
43686	7	Sololá	710	Panajachel	8	Panajachel	6	Junio	2023-06-19T00:00:00	2024-11-08T06:00:00	4	Temperatura máxima	20.3
43687	7	Sololá	710	Panajachel	8	Panajachel	6	Junio	2023-06-19T00:00:00	2024-11-08T06:00:00	3	Temperatura mínima	18.8
43688	7	Sololá	710	Panajachel	8	Panajachel	6	Junio	2023-06-19T00:00:00	2024-11-08T06:00:00	5	Humedad	79
43689	7	Sololá	710	Panajachel	8	Panajachel	6	Junio	2023-06-19T00:00:00	2024-11-08T06:00:00	6	Velocidad del viento	0
43690	7	Sololá	710	Panajachel	8	Panajachel	6	Junio	2023-06-19T00:00:00	2024-11-08T06:00:00	7	Dirección del viento	0
43691	7	Sololá	710	Panajachel	8	Panajachel	6	Junio	2023-06-19T00:00:00	2024-11-08T06:00:00	1	Precipitación	0
43692	7	Sololá	710	Panajachel	8	Panajachel	6	Junio	2023-06-19T00:00:00	2024-11-08T06:00:00	8	Radiación solar	7
43693	7	Sololá	710	Panajachel	8	Panajachel	6	Junio	2023-06-19T00:00:00	2024-11-08T07:00:00	2	Temperatura media	21.8
43694	7	Sololá	710	Panajachel	8	Panajachel	6	Junio	2023-06-19T00:00:00	2024-11-08T07:00:00	4	Temperatura máxima	21.8
43695	7	Sololá	710	Panajachel	8	Panajachel	6	Junio	2023-06-19T00:00:00	2024-11-08T07:00:00	3	Temperatura mínima	18.9
43696	7	Sololá	710	Panajachel	8	Panajachel	6	Junio	2023-06-19T00:00:00	2024-11-08T07:00:00	5	Humedad	71
43697	7	Sololá	710	Panajachel	8	Panajachel	6	Junio	2023-06-19T00:00:00	2024-11-08T07:00:00	6	Velocidad del viento	0
43698	7	Sololá	710	Panajachel	8	Panajachel	6	Junio	2023-06-19T00:00:00	2024-11-08T07:00:00	7	Dirección del viento	0
43699	7	Sololá	710	Panajachel	8	Panajachel	6	Junio	2023-06-19T00:00:00	2024-11-08T07:00:00	1	Precipitación	0
43700	7	Sololá	710	Panajachel	8	Panajachel	6	Junio	2023-06-19T00:00:00	2024-11-08T07:00:00	8	Radiación solar	149
43701	7	Sololá	710	Panajachel	8	Panajachel	6	Junio	2023-06-19T00:00:00	2024-11-08T08:00:00	2	Temperatura media	23
43702	7	Sololá	710	Panajachel	8	Panajachel	6	Junio	2023-06-19T00:00:00	2024-11-08T08:00:00	4	Temperatura máxima	23.1
43703	7	Sololá	710	Panajachel	8	Panajachel	6	Junio	2023-06-19T00:00:00	2024-11-08T08:00:00	3	Temperatura mínima	21.9
43704	7	Sololá	710	Panajachel	8	Panajachel	6	Junio	2023-06-19T00:00:00	2024-11-08T08:00:00	5	Humedad	70
43705	7	Sololá	710	Panajachel	8	Panajachel	6	Junio	2023-06-19T00:00:00	2024-11-08T08:00:00	6	Velocidad del viento	0
43706	7	Sololá	710	Panajachel	8	Panajachel	6	Junio	2023-06-19T00:00:00	2024-11-08T08:00:00	7	Dirección del viento	0
43707	7	Sololá	710	Panajachel	8	Panajachel	6	Junio	2023-06-19T00:00:00	2024-11-08T08:00:00	1	Precipitación	0
43708	7	Sololá	710	Panajachel	8	Panajachel	6	Junio	2023-06-19T00:00:00	2024-11-08T08:00:00	8	Radiación solar	309
43709	7	Sololá	710	Panajachel	8	Panajachel	6	Junio	2023-06-19T00:00:00	2024-11-08T09:00:00	2	Temperatura media	23.5
43710	7	Sololá	710	Panajachel	8	Panajachel	6	Junio	2023-06-19T00:00:00	2024-11-08T09:00:00	4	Temperatura máxima	24
43711	7	Sololá	710	Panajachel	8	Panajachel	6	Junio	2023-06-19T00:00:00	2024-11-08T09:00:00	3	Temperatura mínima	23.1
43712	7	Sololá	710	Panajachel	8	Panajachel	6	Junio	2023-06-19T00:00:00	2024-11-08T09:00:00	5	Humedad	67
43713	7	Sololá	710	Panajachel	8	Panajachel	6	Junio	2023-06-19T00:00:00	2024-11-08T09:00:00	6	Velocidad del viento	1.6
43714	7	Sololá	710	Panajachel	8	Panajachel	6	Junio	2023-06-19T00:00:00	2024-11-08T09:00:00	7	Dirección del viento	1.61
43715	7	Sololá	710	Panajachel	8	Panajachel	6	Junio	2023-06-19T00:00:00	2024-11-08T09:00:00	1	Precipitación	0
43716	7	Sololá	710	Panajachel	8	Panajachel	6	Junio	2023-06-19T00:00:00	2024-11-08T09:00:00	8	Radiación solar	499
43717	7	Sololá	710	Panajachel	8	Panajachel	6	Junio	2023-06-19T00:00:00	2024-11-08T10:00:00	2	Temperatura media	24.8
43718	7	Sololá	710	Panajachel	8	Panajachel	6	Junio	2023-06-19T00:00:00	2024-11-08T10:00:00	4	Temperatura máxima	24.8
43719	7	Sololá	710	Panajachel	8	Panajachel	6	Junio	2023-06-19T00:00:00	2024-11-08T10:00:00	3	Temperatura mínima	23.4
43720	7	Sololá	710	Panajachel	8	Panajachel	6	Junio	2023-06-19T00:00:00	2024-11-08T10:00:00	5	Humedad	69
43721	7	Sololá	710	Panajachel	8	Panajachel	6	Junio	2023-06-19T00:00:00	2024-11-08T10:00:00	6	Velocidad del viento	3.2
43722	7	Sololá	710	Panajachel	8	Panajachel	6	Junio	2023-06-19T00:00:00	2024-11-08T10:00:00	7	Dirección del viento	3.22
43723	7	Sololá	710	Panajachel	8	Panajachel	6	Junio	2023-06-19T00:00:00	2024-11-08T10:00:00	1	Precipitación	0
43724	7	Sololá	710	Panajachel	8	Panajachel	6	Junio	2023-06-19T00:00:00	2024-11-08T10:00:00	8	Radiación solar	710
43725	7	Sololá	710	Panajachel	8	Panajachel	6	Junio	2023-06-19T00:00:00	2024-11-08T11:00:00	2	Temperatura media	22.4
43726	7	Sololá	710	Panajachel	8	Panajachel	6	Junio	2023-06-19T00:00:00	2024-11-08T11:00:00	4	Temperatura máxima	25.6
43727	7	Sololá	710	Panajachel	8	Panajachel	6	Junio	2023-06-19T00:00:00	2024-11-08T11:00:00	3	Temperatura mínima	22.3
43728	7	Sololá	710	Panajachel	8	Panajachel	6	Junio	2023-06-19T00:00:00	2024-11-08T11:00:00	5	Humedad	80
43729	7	Sololá	710	Panajachel	8	Panajachel	6	Junio	2023-06-19T00:00:00	2024-11-08T11:00:00	6	Velocidad del viento	6.4
43730	7	Sololá	710	Panajachel	8	Panajachel	6	Junio	2023-06-19T00:00:00	2024-11-08T11:00:00	7	Dirección del viento	6.44
43731	7	Sololá	710	Panajachel	8	Panajachel	6	Junio	2023-06-19T00:00:00	2024-11-08T11:00:00	1	Precipitación	0
43732	7	Sololá	710	Panajachel	8	Panajachel	6	Junio	2023-06-19T00:00:00	2024-11-08T11:00:00	8	Radiación solar	608
43733	7	Sololá	710	Panajachel	8	Panajachel	6	Junio	2023-06-19T00:00:00	2024-11-08T12:00:00	2	Temperatura media	22.3
43734	7	Sololá	710	Panajachel	8	Panajachel	6	Junio	2023-06-19T00:00:00	2024-11-08T12:00:00	4	Temperatura máxima	22.9
43735	7	Sololá	710	Panajachel	8	Panajachel	6	Junio	2023-06-19T00:00:00	2024-11-08T12:00:00	3	Temperatura mínima	22.3
43736	7	Sololá	710	Panajachel	8	Panajachel	6	Junio	2023-06-19T00:00:00	2024-11-08T12:00:00	5	Humedad	82
43737	7	Sololá	710	Panajachel	8	Panajachel	6	Junio	2023-06-19T00:00:00	2024-11-08T12:00:00	6	Velocidad del viento	6.4
43738	7	Sololá	710	Panajachel	8	Panajachel	6	Junio	2023-06-19T00:00:00	2024-11-08T12:00:00	7	Dirección del viento	6.44
43739	7	Sololá	710	Panajachel	8	Panajachel	6	Junio	2023-06-19T00:00:00	2024-11-08T12:00:00	1	Precipitación	0
43740	7	Sololá	710	Panajachel	8	Panajachel	6	Junio	2023-06-19T00:00:00	2024-11-08T12:00:00	8	Radiación solar	316
43741	7	Sololá	710	Panajachel	8	Panajachel	6	Junio	2023-06-19T00:00:00	2024-11-08T13:00:00	2	Temperatura media	23.8
43742	7	Sololá	710	Panajachel	8	Panajachel	6	Junio	2023-06-19T00:00:00	2024-11-08T13:00:00	4	Temperatura máxima	23.8
43743	7	Sololá	710	Panajachel	8	Panajachel	6	Junio	2023-06-19T00:00:00	2024-11-08T13:00:00	3	Temperatura mínima	22.3
43744	7	Sololá	710	Panajachel	8	Panajachel	6	Junio	2023-06-19T00:00:00	2024-11-08T13:00:00	5	Humedad	79
43745	7	Sololá	710	Panajachel	8	Panajachel	6	Junio	2023-06-19T00:00:00	2024-11-08T13:00:00	6	Velocidad del viento	1.6
43746	7	Sololá	710	Panajachel	8	Panajachel	6	Junio	2023-06-19T00:00:00	2024-11-08T13:00:00	7	Dirección del viento	1.61
43747	7	Sololá	710	Panajachel	8	Panajachel	6	Junio	2023-06-19T00:00:00	2024-11-08T13:00:00	1	Precipitación	0
43748	7	Sololá	710	Panajachel	8	Panajachel	6	Junio	2023-06-19T00:00:00	2024-11-08T13:00:00	8	Radiación solar	239
43749	7	Sololá	710	Panajachel	8	Panajachel	6	Junio	2023-06-19T00:00:00	2024-11-08T14:00:00	2	Temperatura media	22.7
43750	7	Sololá	710	Panajachel	8	Panajachel	6	Junio	2023-06-19T00:00:00	2024-11-08T14:00:00	4	Temperatura máxima	23.8
43751	7	Sololá	710	Panajachel	8	Panajachel	6	Junio	2023-06-19T00:00:00	2024-11-08T14:00:00	3	Temperatura mínima	22.7
43752	7	Sololá	710	Panajachel	8	Panajachel	6	Junio	2023-06-19T00:00:00	2024-11-08T14:00:00	5	Humedad	83
43753	7	Sololá	710	Panajachel	8	Panajachel	6	Junio	2023-06-19T00:00:00	2024-11-08T14:00:00	6	Velocidad del viento	3.2
43754	7	Sololá	710	Panajachel	8	Panajachel	6	Junio	2023-06-19T00:00:00	2024-11-08T14:00:00	7	Dirección del viento	3.22
43755	7	Sololá	710	Panajachel	8	Panajachel	6	Junio	2023-06-19T00:00:00	2024-11-08T14:00:00	1	Precipitación	0
43756	7	Sololá	710	Panajachel	8	Panajachel	6	Junio	2023-06-19T00:00:00	2024-11-08T14:00:00	8	Radiación solar	243
43757	7	Sololá	710	Panajachel	8	Panajachel	6	Junio	2023-06-19T00:00:00	2024-11-08T15:00:00	2	Temperatura media	23.2
43758	7	Sololá	710	Panajachel	8	Panajachel	6	Junio	2023-06-19T00:00:00	2024-11-08T15:00:00	4	Temperatura máxima	23.3
43759	7	Sololá	710	Panajachel	8	Panajachel	6	Junio	2023-06-19T00:00:00	2024-11-08T15:00:00	3	Temperatura mínima	22.6
43760	7	Sololá	710	Panajachel	8	Panajachel	6	Junio	2023-06-19T00:00:00	2024-11-08T15:00:00	5	Humedad	81
43761	7	Sololá	710	Panajachel	8	Panajachel	6	Junio	2023-06-19T00:00:00	2024-11-08T15:00:00	6	Velocidad del viento	0
43762	7	Sololá	710	Panajachel	8	Panajachel	6	Junio	2023-06-19T00:00:00	2024-11-08T15:00:00	7	Dirección del viento	0
43763	7	Sololá	710	Panajachel	8	Panajachel	6	Junio	2023-06-19T00:00:00	2024-11-08T15:00:00	1	Precipitación	0
43764	7	Sololá	710	Panajachel	8	Panajachel	6	Junio	2023-06-19T00:00:00	2024-11-08T15:00:00	8	Radiación solar	311
43765	7	Sololá	710	Panajachel	8	Panajachel	6	Junio	2023-06-19T00:00:00	2024-11-08T16:00:00	2	Temperatura media	22.9
43766	7	Sololá	710	Panajachel	8	Panajachel	6	Junio	2023-06-19T00:00:00	2024-11-08T16:00:00	4	Temperatura máxima	24.1
43767	7	Sololá	710	Panajachel	8	Panajachel	6	Junio	2023-06-19T00:00:00	2024-11-08T16:00:00	3	Temperatura mínima	22.9
43768	7	Sololá	710	Panajachel	8	Panajachel	6	Junio	2023-06-19T00:00:00	2024-11-08T16:00:00	5	Humedad	84
43769	7	Sololá	710	Panajachel	8	Panajachel	6	Junio	2023-06-19T00:00:00	2024-11-08T16:00:00	6	Velocidad del viento	1.6
43770	7	Sololá	710	Panajachel	8	Panajachel	6	Junio	2023-06-19T00:00:00	2024-11-08T16:00:00	7	Dirección del viento	1.61
43771	7	Sololá	710	Panajachel	8	Panajachel	6	Junio	2023-06-19T00:00:00	2024-11-08T16:00:00	1	Precipitación	0
43772	7	Sololá	710	Panajachel	8	Panajachel	6	Junio	2023-06-19T00:00:00	2024-11-08T16:00:00	8	Radiación solar	336
43773	7	Sololá	710	Panajachel	8	Panajachel	6	Junio	2023-06-19T00:00:00	2024-11-08T17:00:00	2	Temperatura media	23.2
43774	7	Sololá	710	Panajachel	8	Panajachel	6	Junio	2023-06-19T00:00:00	2024-11-08T17:00:00	4	Temperatura máxima	24
43775	7	Sololá	710	Panajachel	8	Panajachel	6	Junio	2023-06-19T00:00:00	2024-11-08T17:00:00	3	Temperatura mínima	23.1
43776	7	Sololá	710	Panajachel	8	Panajachel	6	Junio	2023-06-19T00:00:00	2024-11-08T17:00:00	5	Humedad	79
43777	7	Sololá	710	Panajachel	8	Panajachel	6	Junio	2023-06-19T00:00:00	2024-11-08T17:00:00	6	Velocidad del viento	8
43778	7	Sololá	710	Panajachel	8	Panajachel	6	Junio	2023-06-19T00:00:00	2024-11-08T17:00:00	7	Dirección del viento	8.05
43779	7	Sololá	710	Panajachel	8	Panajachel	6	Junio	2023-06-19T00:00:00	2024-11-08T17:00:00	1	Precipitación	0
43780	7	Sololá	710	Panajachel	8	Panajachel	6	Junio	2023-06-19T00:00:00	2024-11-08T17:00:00	8	Radiación solar	331
43781	7	Sololá	710	Panajachel	8	Panajachel	6	Junio	2023-06-19T00:00:00	2024-11-08T18:00:00	2	Temperatura media	22.1
43782	7	Sololá	710	Panajachel	8	Panajachel	6	Junio	2023-06-19T00:00:00	2024-11-08T18:00:00	4	Temperatura máxima	23.4
43783	7	Sololá	710	Panajachel	8	Panajachel	6	Junio	2023-06-19T00:00:00	2024-11-08T18:00:00	3	Temperatura mínima	22.1
43784	7	Sololá	710	Panajachel	8	Panajachel	6	Junio	2023-06-19T00:00:00	2024-11-08T18:00:00	5	Humedad	86
43785	7	Sololá	710	Panajachel	8	Panajachel	6	Junio	2023-06-19T00:00:00	2024-11-08T18:00:00	6	Velocidad del viento	3.2
43786	7	Sololá	710	Panajachel	8	Panajachel	6	Junio	2023-06-19T00:00:00	2024-11-08T18:00:00	7	Dirección del viento	3.22
43787	7	Sololá	710	Panajachel	8	Panajachel	6	Junio	2023-06-19T00:00:00	2024-11-08T18:00:00	1	Precipitación	0
43788	7	Sololá	710	Panajachel	8	Panajachel	6	Junio	2023-06-19T00:00:00	2024-11-08T18:00:00	8	Radiación solar	113
43789	7	Sololá	710	Panajachel	8	Panajachel	6	Junio	2023-06-19T00:00:00	2024-11-08T19:00:00	2	Temperatura media	21.6
43790	7	Sololá	710	Panajachel	8	Panajachel	6	Junio	2023-06-19T00:00:00	2024-11-08T19:00:00	4	Temperatura máxima	22.1
43791	7	Sololá	710	Panajachel	8	Panajachel	6	Junio	2023-06-19T00:00:00	2024-11-08T19:00:00	3	Temperatura mínima	21.6
43792	7	Sololá	710	Panajachel	8	Panajachel	6	Junio	2023-06-19T00:00:00	2024-11-08T19:00:00	5	Humedad	88
43793	7	Sololá	710	Panajachel	8	Panajachel	6	Junio	2023-06-19T00:00:00	2024-11-08T19:00:00	6	Velocidad del viento	1.6
43794	7	Sololá	710	Panajachel	8	Panajachel	6	Junio	2023-06-19T00:00:00	2024-11-08T19:00:00	7	Dirección del viento	1.61
43795	7	Sololá	710	Panajachel	8	Panajachel	6	Junio	2023-06-19T00:00:00	2024-11-08T19:00:00	1	Precipitación	0
43796	7	Sololá	710	Panajachel	8	Panajachel	6	Junio	2023-06-19T00:00:00	2024-11-08T19:00:00	8	Radiación solar	0
43797	7	Sololá	710	Panajachel	8	Panajachel	6	Junio	2023-06-19T00:00:00	2024-11-08T20:00:00	2	Temperatura media	21.3
43798	7	Sololá	710	Panajachel	8	Panajachel	6	Junio	2023-06-19T00:00:00	2024-11-08T20:00:00	4	Temperatura máxima	21.6
43799	7	Sololá	710	Panajachel	8	Panajachel	6	Junio	2023-06-19T00:00:00	2024-11-08T20:00:00	3	Temperatura mínima	21.3
43800	7	Sololá	710	Panajachel	8	Panajachel	6	Junio	2023-06-19T00:00:00	2024-11-08T20:00:00	5	Humedad	89
43801	7	Sololá	710	Panajachel	8	Panajachel	6	Junio	2023-06-19T00:00:00	2024-11-08T20:00:00	6	Velocidad del viento	0
43802	7	Sololá	710	Panajachel	8	Panajachel	6	Junio	2023-06-19T00:00:00	2024-11-08T20:00:00	7	Dirección del viento	0
43803	7	Sololá	710	Panajachel	8	Panajachel	6	Junio	2023-06-19T00:00:00	2024-11-08T20:00:00	1	Precipitación	0
43804	7	Sololá	710	Panajachel	8	Panajachel	6	Junio	2023-06-19T00:00:00	2024-11-08T20:00:00	8	Radiación solar	0
43805	7	Sololá	710	Panajachel	8	Panajachel	6	Junio	2023-06-19T00:00:00	2024-11-08T21:00:00	2	Temperatura media	21.2
43806	7	Sololá	710	Panajachel	8	Panajachel	6	Junio	2023-06-19T00:00:00	2024-11-08T21:00:00	4	Temperatura máxima	21.3
43807	7	Sololá	710	Panajachel	8	Panajachel	6	Junio	2023-06-19T00:00:00	2024-11-08T21:00:00	3	Temperatura mínima	21.1
43808	7	Sololá	710	Panajachel	8	Panajachel	6	Junio	2023-06-19T00:00:00	2024-11-08T21:00:00	5	Humedad	90
43809	7	Sololá	710	Panajachel	8	Panajachel	6	Junio	2023-06-19T00:00:00	2024-11-08T21:00:00	6	Velocidad del viento	0
43810	7	Sololá	710	Panajachel	8	Panajachel	6	Junio	2023-06-19T00:00:00	2024-11-08T21:00:00	7	Dirección del viento	0
43811	7	Sololá	710	Panajachel	8	Panajachel	6	Junio	2023-06-19T00:00:00	2024-11-08T21:00:00	1	Precipitación	0
43812	7	Sololá	710	Panajachel	8	Panajachel	6	Junio	2023-06-19T00:00:00	2024-11-08T21:00:00	8	Radiación solar	0
43813	7	Sololá	710	Panajachel	8	Panajachel	6	Junio	2023-06-19T00:00:00	2024-11-08T22:00:00	2	Temperatura media	21
43814	7	Sololá	710	Panajachel	8	Panajachel	6	Junio	2023-06-19T00:00:00	2024-11-08T22:00:00	4	Temperatura máxima	21.2
43815	7	Sololá	710	Panajachel	8	Panajachel	6	Junio	2023-06-19T00:00:00	2024-11-08T22:00:00	3	Temperatura mínima	21
43816	7	Sololá	710	Panajachel	8	Panajachel	6	Junio	2023-06-19T00:00:00	2024-11-08T22:00:00	5	Humedad	89
43817	7	Sololá	710	Panajachel	8	Panajachel	6	Junio	2023-06-19T00:00:00	2024-11-08T22:00:00	6	Velocidad del viento	0
43818	7	Sololá	710	Panajachel	8	Panajachel	6	Junio	2023-06-19T00:00:00	2024-11-08T22:00:00	7	Dirección del viento	0
43819	7	Sololá	710	Panajachel	8	Panajachel	6	Junio	2023-06-19T00:00:00	2024-11-08T22:00:00	1	Precipitación	0
43820	7	Sololá	710	Panajachel	8	Panajachel	6	Junio	2023-06-19T00:00:00	2024-11-08T22:00:00	8	Radiación solar	0
43821	7	Sololá	710	Panajachel	8	Panajachel	6	Junio	2023-06-19T00:00:00	2024-11-08T23:00:00	2	Temperatura media	20.4
43822	7	Sololá	710	Panajachel	8	Panajachel	6	Junio	2023-06-19T00:00:00	2024-11-08T23:00:00	4	Temperatura máxima	21.1
43823	7	Sololá	710	Panajachel	8	Panajachel	6	Junio	2023-06-19T00:00:00	2024-11-08T23:00:00	3	Temperatura mínima	20.4
43824	7	Sololá	710	Panajachel	8	Panajachel	6	Junio	2023-06-19T00:00:00	2024-11-08T23:00:00	5	Humedad	84
43825	7	Sololá	710	Panajachel	8	Panajachel	6	Junio	2023-06-19T00:00:00	2024-11-08T23:00:00	6	Velocidad del viento	1.6
43826	7	Sololá	710	Panajachel	8	Panajachel	6	Junio	2023-06-19T00:00:00	2024-11-08T23:00:00	7	Dirección del viento	1.61
43827	7	Sololá	710	Panajachel	8	Panajachel	6	Junio	2023-06-19T00:00:00	2024-11-08T23:00:00	1	Precipitación	0
43828	7	Sololá	710	Panajachel	8	Panajachel	6	Junio	2023-06-19T00:00:00	2024-11-08T23:00:00	8	Radiación solar	0
43829	7	Sololá	710	Panajachel	8	Panajachel	6	Junio	2023-06-20T00:00:00	2024-11-08T00:00:00	2	Temperatura media	19.8
43830	7	Sololá	710	Panajachel	8	Panajachel	6	Junio	2023-06-20T00:00:00	2024-11-08T00:00:00	4	Temperatura máxima	20.4
43831	7	Sololá	710	Panajachel	8	Panajachel	6	Junio	2023-06-20T00:00:00	2024-11-08T00:00:00	3	Temperatura mínima	19.8
43832	7	Sololá	710	Panajachel	8	Panajachel	6	Junio	2023-06-20T00:00:00	2024-11-08T00:00:00	5	Humedad	84
43833	7	Sololá	710	Panajachel	8	Panajachel	6	Junio	2023-06-20T00:00:00	2024-11-08T00:00:00	6	Velocidad del viento	1.6
43834	7	Sololá	710	Panajachel	8	Panajachel	6	Junio	2023-06-20T00:00:00	2024-11-08T00:00:00	7	Dirección del viento	1.61
43835	7	Sololá	710	Panajachel	8	Panajachel	6	Junio	2023-06-20T00:00:00	2024-11-08T00:00:00	1	Precipitación	0
43836	7	Sololá	710	Panajachel	8	Panajachel	6	Junio	2023-06-20T00:00:00	2024-11-08T00:00:00	8	Radiación solar	0
43837	7	Sololá	710	Panajachel	8	Panajachel	6	Junio	2023-06-20T00:00:00	2024-11-08T01:00:00	2	Temperatura media	19.3
43838	7	Sololá	710	Panajachel	8	Panajachel	6	Junio	2023-06-20T00:00:00	2024-11-08T01:00:00	4	Temperatura máxima	19.8
43839	7	Sololá	710	Panajachel	8	Panajachel	6	Junio	2023-06-20T00:00:00	2024-11-08T01:00:00	3	Temperatura mínima	19.3
43840	7	Sololá	710	Panajachel	8	Panajachel	6	Junio	2023-06-20T00:00:00	2024-11-08T01:00:00	5	Humedad	86
43841	7	Sololá	710	Panajachel	8	Panajachel	6	Junio	2023-06-20T00:00:00	2024-11-08T01:00:00	6	Velocidad del viento	1.6
43842	7	Sololá	710	Panajachel	8	Panajachel	6	Junio	2023-06-20T00:00:00	2024-11-08T01:00:00	7	Dirección del viento	1.61
43843	7	Sololá	710	Panajachel	8	Panajachel	6	Junio	2023-06-20T00:00:00	2024-11-08T01:00:00	1	Precipitación	0
43844	7	Sololá	710	Panajachel	8	Panajachel	6	Junio	2023-06-20T00:00:00	2024-11-08T01:00:00	8	Radiación solar	0
43845	7	Sololá	710	Panajachel	8	Panajachel	6	Junio	2023-06-20T00:00:00	2024-11-08T02:00:00	2	Temperatura media	19.4
43846	7	Sololá	710	Panajachel	8	Panajachel	6	Junio	2023-06-20T00:00:00	2024-11-08T02:00:00	4	Temperatura máxima	19.4
43847	7	Sololá	710	Panajachel	8	Panajachel	6	Junio	2023-06-20T00:00:00	2024-11-08T02:00:00	3	Temperatura mínima	19.3
43848	7	Sololá	710	Panajachel	8	Panajachel	6	Junio	2023-06-20T00:00:00	2024-11-08T02:00:00	5	Humedad	88
43849	7	Sololá	710	Panajachel	8	Panajachel	6	Junio	2023-06-20T00:00:00	2024-11-08T02:00:00	6	Velocidad del viento	1.6
43850	7	Sololá	710	Panajachel	8	Panajachel	6	Junio	2023-06-20T00:00:00	2024-11-08T02:00:00	7	Dirección del viento	1.61
43851	7	Sololá	710	Panajachel	8	Panajachel	6	Junio	2023-06-20T00:00:00	2024-11-08T02:00:00	1	Precipitación	0
43852	7	Sololá	710	Panajachel	8	Panajachel	6	Junio	2023-06-20T00:00:00	2024-11-08T02:00:00	8	Radiación solar	0
43853	7	Sololá	710	Panajachel	8	Panajachel	6	Junio	2023-06-20T00:00:00	2024-11-08T03:00:00	2	Temperatura media	19.4
43854	7	Sololá	710	Panajachel	8	Panajachel	6	Junio	2023-06-20T00:00:00	2024-11-08T03:00:00	4	Temperatura máxima	19.4
43855	7	Sololá	710	Panajachel	8	Panajachel	6	Junio	2023-06-20T00:00:00	2024-11-08T03:00:00	3	Temperatura mínima	19.3
43856	7	Sololá	710	Panajachel	8	Panajachel	6	Junio	2023-06-20T00:00:00	2024-11-08T03:00:00	5	Humedad	88
43857	7	Sololá	710	Panajachel	8	Panajachel	6	Junio	2023-06-20T00:00:00	2024-11-08T03:00:00	6	Velocidad del viento	0
43858	7	Sololá	710	Panajachel	8	Panajachel	6	Junio	2023-06-20T00:00:00	2024-11-08T03:00:00	7	Dirección del viento	0
43859	7	Sololá	710	Panajachel	8	Panajachel	6	Junio	2023-06-20T00:00:00	2024-11-08T03:00:00	1	Precipitación	0
43860	7	Sololá	710	Panajachel	8	Panajachel	6	Junio	2023-06-20T00:00:00	2024-11-08T03:00:00	8	Radiación solar	0
43861	7	Sololá	710	Panajachel	8	Panajachel	6	Junio	2023-06-20T00:00:00	2024-11-08T04:00:00	2	Temperatura media	18.9
43862	7	Sololá	710	Panajachel	8	Panajachel	6	Junio	2023-06-20T00:00:00	2024-11-08T04:00:00	4	Temperatura máxima	19.5
43863	7	Sololá	710	Panajachel	8	Panajachel	6	Junio	2023-06-20T00:00:00	2024-11-08T04:00:00	3	Temperatura mínima	18.7
43864	7	Sololá	710	Panajachel	8	Panajachel	6	Junio	2023-06-20T00:00:00	2024-11-08T04:00:00	5	Humedad	94
43865	7	Sololá	710	Panajachel	8	Panajachel	6	Junio	2023-06-20T00:00:00	2024-11-08T04:00:00	6	Velocidad del viento	1.6
43866	7	Sololá	710	Panajachel	8	Panajachel	6	Junio	2023-06-20T00:00:00	2024-11-08T04:00:00	7	Dirección del viento	1.61
43867	7	Sololá	710	Panajachel	8	Panajachel	6	Junio	2023-06-20T00:00:00	2024-11-08T04:00:00	1	Precipitación	0.6
43868	7	Sololá	710	Panajachel	8	Panajachel	6	Junio	2023-06-20T00:00:00	2024-11-08T04:00:00	8	Radiación solar	0
43869	7	Sololá	710	Panajachel	8	Panajachel	6	Junio	2023-06-20T00:00:00	2024-11-08T05:00:00	2	Temperatura media	18.8
43870	7	Sololá	710	Panajachel	8	Panajachel	6	Junio	2023-06-20T00:00:00	2024-11-08T05:00:00	4	Temperatura máxima	19.2
43871	7	Sololá	710	Panajachel	8	Panajachel	6	Junio	2023-06-20T00:00:00	2024-11-08T05:00:00	3	Temperatura mínima	18.8
43872	7	Sololá	710	Panajachel	8	Panajachel	6	Junio	2023-06-20T00:00:00	2024-11-08T05:00:00	5	Humedad	91
43873	7	Sololá	710	Panajachel	8	Panajachel	6	Junio	2023-06-20T00:00:00	2024-11-08T05:00:00	6	Velocidad del viento	0
43874	7	Sololá	710	Panajachel	8	Panajachel	6	Junio	2023-06-20T00:00:00	2024-11-08T05:00:00	7	Dirección del viento	0
43875	7	Sololá	710	Panajachel	8	Panajachel	6	Junio	2023-06-20T00:00:00	2024-11-08T05:00:00	1	Precipitación	0
43876	7	Sololá	710	Panajachel	8	Panajachel	6	Junio	2023-06-20T00:00:00	2024-11-08T05:00:00	8	Radiación solar	0
43877	7	Sololá	710	Panajachel	8	Panajachel	6	Junio	2023-06-20T00:00:00	2024-11-08T06:00:00	2	Temperatura media	18.7
43878	7	Sololá	710	Panajachel	8	Panajachel	6	Junio	2023-06-20T00:00:00	2024-11-08T06:00:00	4	Temperatura máxima	19.1
43879	7	Sololá	710	Panajachel	8	Panajachel	6	Junio	2023-06-20T00:00:00	2024-11-08T06:00:00	3	Temperatura mínima	18.7
43880	7	Sololá	710	Panajachel	8	Panajachel	6	Junio	2023-06-20T00:00:00	2024-11-08T06:00:00	5	Humedad	90
43881	7	Sololá	710	Panajachel	8	Panajachel	6	Junio	2023-06-20T00:00:00	2024-11-08T06:00:00	6	Velocidad del viento	1.6
43882	7	Sololá	710	Panajachel	8	Panajachel	6	Junio	2023-06-20T00:00:00	2024-11-08T06:00:00	7	Dirección del viento	1.61
43883	7	Sololá	710	Panajachel	8	Panajachel	6	Junio	2023-06-20T00:00:00	2024-11-08T06:00:00	1	Precipitación	0
43884	7	Sololá	710	Panajachel	8	Panajachel	6	Junio	2023-06-20T00:00:00	2024-11-08T06:00:00	8	Radiación solar	3
43885	7	Sololá	710	Panajachel	8	Panajachel	6	Junio	2023-06-20T00:00:00	2024-11-08T07:00:00	2	Temperatura media	19.1
43886	7	Sololá	710	Panajachel	8	Panajachel	6	Junio	2023-06-20T00:00:00	2024-11-08T07:00:00	4	Temperatura máxima	19.1
43887	7	Sololá	710	Panajachel	8	Panajachel	6	Junio	2023-06-20T00:00:00	2024-11-08T07:00:00	3	Temperatura mínima	18.7
43888	7	Sololá	710	Panajachel	8	Panajachel	6	Junio	2023-06-20T00:00:00	2024-11-08T07:00:00	5	Humedad	93
43889	7	Sololá	710	Panajachel	8	Panajachel	6	Junio	2023-06-20T00:00:00	2024-11-08T07:00:00	6	Velocidad del viento	1.6
43890	7	Sololá	710	Panajachel	8	Panajachel	6	Junio	2023-06-20T00:00:00	2024-11-08T07:00:00	7	Dirección del viento	1.61
43891	7	Sololá	710	Panajachel	8	Panajachel	6	Junio	2023-06-20T00:00:00	2024-11-08T07:00:00	1	Precipitación	0
43892	7	Sololá	710	Panajachel	8	Panajachel	6	Junio	2023-06-20T00:00:00	2024-11-08T07:00:00	8	Radiación solar	21
43893	7	Sololá	710	Panajachel	8	Panajachel	6	Junio	2023-06-20T00:00:00	2024-11-08T08:00:00	2	Temperatura media	19.7
43894	7	Sololá	710	Panajachel	8	Panajachel	6	Junio	2023-06-20T00:00:00	2024-11-08T08:00:00	4	Temperatura máxima	19.7
43895	7	Sololá	710	Panajachel	8	Panajachel	6	Junio	2023-06-20T00:00:00	2024-11-08T08:00:00	3	Temperatura mínima	19.1
43896	7	Sololá	710	Panajachel	8	Panajachel	6	Junio	2023-06-20T00:00:00	2024-11-08T08:00:00	5	Humedad	83
43897	7	Sololá	710	Panajachel	8	Panajachel	6	Junio	2023-06-20T00:00:00	2024-11-08T08:00:00	6	Velocidad del viento	1.6
43898	7	Sololá	710	Panajachel	8	Panajachel	6	Junio	2023-06-20T00:00:00	2024-11-08T08:00:00	7	Dirección del viento	1.61
43899	7	Sololá	710	Panajachel	8	Panajachel	6	Junio	2023-06-20T00:00:00	2024-11-08T08:00:00	1	Precipitación	0
43900	7	Sololá	710	Panajachel	8	Panajachel	6	Junio	2023-06-20T00:00:00	2024-11-08T08:00:00	8	Radiación solar	87
43901	7	Sololá	710	Panajachel	8	Panajachel	6	Junio	2023-06-20T00:00:00	2024-11-08T09:00:00	2	Temperatura media	21.3
43902	7	Sololá	710	Panajachel	8	Panajachel	6	Junio	2023-06-20T00:00:00	2024-11-08T09:00:00	4	Temperatura máxima	21.3
43903	7	Sololá	710	Panajachel	8	Panajachel	6	Junio	2023-06-20T00:00:00	2024-11-08T09:00:00	3	Temperatura mínima	19.7
43904	7	Sololá	710	Panajachel	8	Panajachel	6	Junio	2023-06-20T00:00:00	2024-11-08T09:00:00	5	Humedad	84
43905	7	Sololá	710	Panajachel	8	Panajachel	6	Junio	2023-06-20T00:00:00	2024-11-08T09:00:00	6	Velocidad del viento	1.6
43906	7	Sololá	710	Panajachel	8	Panajachel	6	Junio	2023-06-20T00:00:00	2024-11-08T09:00:00	7	Dirección del viento	1.61
43907	7	Sololá	710	Panajachel	8	Panajachel	6	Junio	2023-06-20T00:00:00	2024-11-08T09:00:00	1	Precipitación	0
43908	7	Sololá	710	Panajachel	8	Panajachel	6	Junio	2023-06-20T00:00:00	2024-11-08T09:00:00	8	Radiación solar	293
43909	7	Sololá	710	Panajachel	8	Panajachel	6	Junio	2023-06-20T00:00:00	2024-11-08T10:00:00	2	Temperatura media	21.4
43910	7	Sololá	710	Panajachel	8	Panajachel	6	Junio	2023-06-20T00:00:00	2024-11-08T10:00:00	4	Temperatura máxima	21.5
43911	7	Sololá	710	Panajachel	8	Panajachel	6	Junio	2023-06-20T00:00:00	2024-11-08T10:00:00	3	Temperatura mínima	21.2
43912	7	Sololá	710	Panajachel	8	Panajachel	6	Junio	2023-06-20T00:00:00	2024-11-08T10:00:00	5	Humedad	80
43913	7	Sololá	710	Panajachel	8	Panajachel	6	Junio	2023-06-20T00:00:00	2024-11-08T10:00:00	6	Velocidad del viento	3.2
43914	7	Sololá	710	Panajachel	8	Panajachel	6	Junio	2023-06-20T00:00:00	2024-11-08T10:00:00	7	Dirección del viento	3.22
43915	7	Sololá	710	Panajachel	8	Panajachel	6	Junio	2023-06-20T00:00:00	2024-11-08T10:00:00	1	Precipitación	0
43916	7	Sololá	710	Panajachel	8	Panajachel	6	Junio	2023-06-20T00:00:00	2024-11-08T10:00:00	8	Radiación solar	285
43917	7	Sololá	710	Panajachel	8	Panajachel	6	Junio	2023-06-20T00:00:00	2024-11-08T11:00:00	2	Temperatura media	22.9
43918	7	Sololá	710	Panajachel	8	Panajachel	6	Junio	2023-06-20T00:00:00	2024-11-08T11:00:00	4	Temperatura máxima	23
43919	7	Sololá	710	Panajachel	8	Panajachel	6	Junio	2023-06-20T00:00:00	2024-11-08T11:00:00	3	Temperatura mínima	21.3
43920	7	Sololá	710	Panajachel	8	Panajachel	6	Junio	2023-06-20T00:00:00	2024-11-08T11:00:00	5	Humedad	75
43921	7	Sololá	710	Panajachel	8	Panajachel	6	Junio	2023-06-20T00:00:00	2024-11-08T11:00:00	6	Velocidad del viento	3.2
43922	7	Sololá	710	Panajachel	8	Panajachel	6	Junio	2023-06-20T00:00:00	2024-11-08T11:00:00	7	Dirección del viento	3.22
43923	7	Sololá	710	Panajachel	8	Panajachel	6	Junio	2023-06-20T00:00:00	2024-11-08T11:00:00	1	Precipitación	0
43924	7	Sololá	710	Panajachel	8	Panajachel	6	Junio	2023-06-20T00:00:00	2024-11-08T11:00:00	8	Radiación solar	743
43925	7	Sololá	710	Panajachel	8	Panajachel	6	Junio	2023-06-20T00:00:00	2024-11-08T12:00:00	2	Temperatura media	23.8
43926	7	Sololá	710	Panajachel	8	Panajachel	6	Junio	2023-06-20T00:00:00	2024-11-08T12:00:00	4	Temperatura máxima	23.8
43927	7	Sololá	710	Panajachel	8	Panajachel	6	Junio	2023-06-20T00:00:00	2024-11-08T12:00:00	3	Temperatura mínima	22.6
43928	7	Sololá	710	Panajachel	8	Panajachel	6	Junio	2023-06-20T00:00:00	2024-11-08T12:00:00	5	Humedad	73
43929	7	Sololá	710	Panajachel	8	Panajachel	6	Junio	2023-06-20T00:00:00	2024-11-08T12:00:00	6	Velocidad del viento	4.8
43930	7	Sololá	710	Panajachel	8	Panajachel	6	Junio	2023-06-20T00:00:00	2024-11-08T12:00:00	7	Dirección del viento	4.83
43931	7	Sololá	710	Panajachel	8	Panajachel	6	Junio	2023-06-20T00:00:00	2024-11-08T12:00:00	1	Precipitación	0
43932	7	Sololá	710	Panajachel	8	Panajachel	6	Junio	2023-06-20T00:00:00	2024-11-08T12:00:00	8	Radiación solar	833
43933	7	Sololá	710	Panajachel	8	Panajachel	6	Junio	2023-06-20T00:00:00	2024-11-08T13:00:00	2	Temperatura media	24.3
43934	7	Sololá	710	Panajachel	8	Panajachel	6	Junio	2023-06-20T00:00:00	2024-11-08T13:00:00	4	Temperatura máxima	24.3
43935	7	Sololá	710	Panajachel	8	Panajachel	6	Junio	2023-06-20T00:00:00	2024-11-08T13:00:00	3	Temperatura mínima	23.6
43936	7	Sololá	710	Panajachel	8	Panajachel	6	Junio	2023-06-20T00:00:00	2024-11-08T13:00:00	5	Humedad	72
43937	7	Sololá	710	Panajachel	8	Panajachel	6	Junio	2023-06-20T00:00:00	2024-11-08T13:00:00	6	Velocidad del viento	6.4
43938	7	Sololá	710	Panajachel	8	Panajachel	6	Junio	2023-06-20T00:00:00	2024-11-08T13:00:00	7	Dirección del viento	6.44
43939	7	Sololá	710	Panajachel	8	Panajachel	6	Junio	2023-06-20T00:00:00	2024-11-08T13:00:00	1	Precipitación	0
43940	7	Sololá	710	Panajachel	8	Panajachel	6	Junio	2023-06-20T00:00:00	2024-11-08T13:00:00	8	Radiación solar	994
43941	7	Sololá	710	Panajachel	8	Panajachel	6	Junio	2023-06-20T00:00:00	2024-11-08T14:00:00	2	Temperatura media	23.6
43942	7	Sololá	710	Panajachel	8	Panajachel	6	Junio	2023-06-20T00:00:00	2024-11-08T14:00:00	4	Temperatura máxima	24.3
43943	7	Sololá	710	Panajachel	8	Panajachel	6	Junio	2023-06-20T00:00:00	2024-11-08T14:00:00	3	Temperatura mínima	23.5
43944	7	Sololá	710	Panajachel	8	Panajachel	6	Junio	2023-06-20T00:00:00	2024-11-08T14:00:00	5	Humedad	78
43945	7	Sololá	710	Panajachel	8	Panajachel	6	Junio	2023-06-20T00:00:00	2024-11-08T14:00:00	6	Velocidad del viento	4.8
43946	7	Sololá	710	Panajachel	8	Panajachel	6	Junio	2023-06-20T00:00:00	2024-11-08T14:00:00	7	Dirección del viento	4.83
43947	7	Sololá	710	Panajachel	8	Panajachel	6	Junio	2023-06-20T00:00:00	2024-11-08T14:00:00	1	Precipitación	0.2
43948	7	Sololá	710	Panajachel	8	Panajachel	6	Junio	2023-06-20T00:00:00	2024-11-08T14:00:00	8	Radiación solar	809
43949	7	Sololá	710	Panajachel	8	Panajachel	6	Junio	2023-06-20T00:00:00	2024-11-08T15:00:00	2	Temperatura media	22.3
43950	7	Sololá	710	Panajachel	8	Panajachel	6	Junio	2023-06-20T00:00:00	2024-11-08T15:00:00	4	Temperatura máxima	23.6
43951	7	Sololá	710	Panajachel	8	Panajachel	6	Junio	2023-06-20T00:00:00	2024-11-08T15:00:00	3	Temperatura mínima	22.2
43952	7	Sololá	710	Panajachel	8	Panajachel	6	Junio	2023-06-20T00:00:00	2024-11-08T15:00:00	5	Humedad	85
43953	7	Sololá	710	Panajachel	8	Panajachel	6	Junio	2023-06-20T00:00:00	2024-11-08T15:00:00	6	Velocidad del viento	3.2
43954	7	Sololá	710	Panajachel	8	Panajachel	6	Junio	2023-06-20T00:00:00	2024-11-08T15:00:00	7	Dirección del viento	3.22
43955	7	Sololá	710	Panajachel	8	Panajachel	6	Junio	2023-06-20T00:00:00	2024-11-08T15:00:00	1	Precipitación	0
43956	7	Sololá	710	Panajachel	8	Panajachel	6	Junio	2023-06-20T00:00:00	2024-11-08T15:00:00	8	Radiación solar	201
43957	7	Sololá	710	Panajachel	8	Panajachel	6	Junio	2023-06-20T00:00:00	2024-11-08T16:00:00	2	Temperatura media	20.9
43958	7	Sololá	710	Panajachel	8	Panajachel	6	Junio	2023-06-20T00:00:00	2024-11-08T16:00:00	4	Temperatura máxima	22.3
43959	7	Sololá	710	Panajachel	8	Panajachel	6	Junio	2023-06-20T00:00:00	2024-11-08T16:00:00	3	Temperatura mínima	20.7
43960	7	Sololá	710	Panajachel	8	Panajachel	6	Junio	2023-06-20T00:00:00	2024-11-08T16:00:00	5	Humedad	92
43961	7	Sololá	710	Panajachel	8	Panajachel	6	Junio	2023-06-20T00:00:00	2024-11-08T16:00:00	6	Velocidad del viento	1.6
43962	7	Sololá	710	Panajachel	8	Panajachel	6	Junio	2023-06-20T00:00:00	2024-11-08T16:00:00	7	Dirección del viento	1.61
43963	7	Sololá	710	Panajachel	8	Panajachel	6	Junio	2023-06-20T00:00:00	2024-11-08T16:00:00	1	Precipitación	3.2
43964	7	Sololá	710	Panajachel	8	Panajachel	6	Junio	2023-06-20T00:00:00	2024-11-08T16:00:00	8	Radiación solar	137
43965	7	Sololá	710	Panajachel	8	Panajachel	6	Junio	2023-06-20T00:00:00	2024-11-08T17:00:00	2	Temperatura media	20.7
43966	7	Sololá	710	Panajachel	8	Panajachel	6	Junio	2023-06-20T00:00:00	2024-11-08T17:00:00	4	Temperatura máxima	20.9
43967	7	Sololá	710	Panajachel	8	Panajachel	6	Junio	2023-06-20T00:00:00	2024-11-08T17:00:00	3	Temperatura mínima	20.6
43968	7	Sololá	710	Panajachel	8	Panajachel	6	Junio	2023-06-20T00:00:00	2024-11-08T17:00:00	5	Humedad	91
43969	7	Sololá	710	Panajachel	8	Panajachel	6	Junio	2023-06-20T00:00:00	2024-11-08T17:00:00	6	Velocidad del viento	1.6
43970	7	Sololá	710	Panajachel	8	Panajachel	6	Junio	2023-06-20T00:00:00	2024-11-08T17:00:00	7	Dirección del viento	1.61
43971	7	Sololá	710	Panajachel	8	Panajachel	6	Junio	2023-06-20T00:00:00	2024-11-08T17:00:00	1	Precipitación	0
43972	7	Sololá	710	Panajachel	8	Panajachel	6	Junio	2023-06-20T00:00:00	2024-11-08T17:00:00	8	Radiación solar	92
43973	7	Sololá	710	Panajachel	8	Panajachel	6	Junio	2023-06-20T00:00:00	2024-11-08T18:00:00	2	Temperatura media	20.4
43974	7	Sololá	710	Panajachel	8	Panajachel	6	Junio	2023-06-20T00:00:00	2024-11-08T18:00:00	4	Temperatura máxima	20.7
43975	7	Sololá	710	Panajachel	8	Panajachel	6	Junio	2023-06-20T00:00:00	2024-11-08T18:00:00	3	Temperatura mínima	20.4
43976	7	Sololá	710	Panajachel	8	Panajachel	6	Junio	2023-06-20T00:00:00	2024-11-08T18:00:00	5	Humedad	93
43977	7	Sololá	710	Panajachel	8	Panajachel	6	Junio	2023-06-20T00:00:00	2024-11-08T18:00:00	6	Velocidad del viento	1.6
43978	7	Sololá	710	Panajachel	8	Panajachel	6	Junio	2023-06-20T00:00:00	2024-11-08T18:00:00	7	Dirección del viento	1.61
43979	7	Sololá	710	Panajachel	8	Panajachel	6	Junio	2023-06-20T00:00:00	2024-11-08T18:00:00	1	Precipitación	0
43980	7	Sololá	710	Panajachel	8	Panajachel	6	Junio	2023-06-20T00:00:00	2024-11-08T18:00:00	8	Radiación solar	39
43981	7	Sololá	710	Panajachel	8	Panajachel	6	Junio	2023-06-20T00:00:00	2024-11-08T19:00:00	2	Temperatura media	20.2
43982	7	Sololá	710	Panajachel	8	Panajachel	6	Junio	2023-06-20T00:00:00	2024-11-08T19:00:00	4	Temperatura máxima	20.4
43983	7	Sololá	710	Panajachel	8	Panajachel	6	Junio	2023-06-20T00:00:00	2024-11-08T19:00:00	3	Temperatura mínima	20.2
43984	7	Sololá	710	Panajachel	8	Panajachel	6	Junio	2023-06-20T00:00:00	2024-11-08T19:00:00	5	Humedad	92
43985	7	Sololá	710	Panajachel	8	Panajachel	6	Junio	2023-06-20T00:00:00	2024-11-08T19:00:00	6	Velocidad del viento	0
43986	7	Sololá	710	Panajachel	8	Panajachel	6	Junio	2023-06-20T00:00:00	2024-11-08T19:00:00	7	Dirección del viento	0
43987	7	Sololá	710	Panajachel	8	Panajachel	6	Junio	2023-06-20T00:00:00	2024-11-08T19:00:00	1	Precipitación	0
43988	7	Sololá	710	Panajachel	8	Panajachel	6	Junio	2023-06-20T00:00:00	2024-11-08T19:00:00	8	Radiación solar	0
43989	7	Sololá	710	Panajachel	8	Panajachel	6	Junio	2023-06-20T00:00:00	2024-11-08T20:00:00	2	Temperatura media	20.1
43990	7	Sololá	710	Panajachel	8	Panajachel	6	Junio	2023-06-20T00:00:00	2024-11-08T20:00:00	4	Temperatura máxima	20.2
43991	7	Sololá	710	Panajachel	8	Panajachel	6	Junio	2023-06-20T00:00:00	2024-11-08T20:00:00	3	Temperatura mínima	20.1
43992	7	Sololá	710	Panajachel	8	Panajachel	6	Junio	2023-06-20T00:00:00	2024-11-08T20:00:00	5	Humedad	92
43993	7	Sololá	710	Panajachel	8	Panajachel	6	Junio	2023-06-20T00:00:00	2024-11-08T20:00:00	6	Velocidad del viento	0
43994	7	Sololá	710	Panajachel	8	Panajachel	6	Junio	2023-06-20T00:00:00	2024-11-08T20:00:00	7	Dirección del viento	0
43995	7	Sololá	710	Panajachel	8	Panajachel	6	Junio	2023-06-20T00:00:00	2024-11-08T20:00:00	1	Precipitación	0
43996	7	Sololá	710	Panajachel	8	Panajachel	6	Junio	2023-06-20T00:00:00	2024-11-08T20:00:00	8	Radiación solar	0
43997	7	Sololá	710	Panajachel	8	Panajachel	6	Junio	2023-06-20T00:00:00	2024-11-08T21:00:00	2	Temperatura media	20.1
43998	7	Sololá	710	Panajachel	8	Panajachel	6	Junio	2023-06-20T00:00:00	2024-11-08T21:00:00	4	Temperatura máxima	20.2
43999	7	Sololá	710	Panajachel	8	Panajachel	6	Junio	2023-06-20T00:00:00	2024-11-08T21:00:00	3	Temperatura mínima	20
44000	7	Sololá	710	Panajachel	8	Panajachel	6	Junio	2023-06-20T00:00:00	2024-11-08T21:00:00	5	Humedad	92
44001	7	Sololá	710	Panajachel	8	Panajachel	6	Junio	2023-06-20T00:00:00	2024-11-08T21:00:00	6	Velocidad del viento	1.6
44002	7	Sololá	710	Panajachel	8	Panajachel	6	Junio	2023-06-20T00:00:00	2024-11-08T21:00:00	7	Dirección del viento	1.61
44003	7	Sololá	710	Panajachel	8	Panajachel	6	Junio	2023-06-20T00:00:00	2024-11-08T21:00:00	1	Precipitación	0
44004	7	Sololá	710	Panajachel	8	Panajachel	6	Junio	2023-06-20T00:00:00	2024-11-08T21:00:00	8	Radiación solar	0
44005	7	Sololá	710	Panajachel	8	Panajachel	6	Junio	2023-06-20T00:00:00	2024-11-08T22:00:00	2	Temperatura media	19.6
44006	7	Sololá	710	Panajachel	8	Panajachel	6	Junio	2023-06-20T00:00:00	2024-11-08T22:00:00	4	Temperatura máxima	20.1
44007	7	Sololá	710	Panajachel	8	Panajachel	6	Junio	2023-06-20T00:00:00	2024-11-08T22:00:00	3	Temperatura mínima	19.6
44008	7	Sololá	710	Panajachel	8	Panajachel	6	Junio	2023-06-20T00:00:00	2024-11-08T22:00:00	5	Humedad	93
44009	7	Sololá	710	Panajachel	8	Panajachel	6	Junio	2023-06-20T00:00:00	2024-11-08T22:00:00	6	Velocidad del viento	1.6
44010	7	Sololá	710	Panajachel	8	Panajachel	6	Junio	2023-06-20T00:00:00	2024-11-08T22:00:00	7	Dirección del viento	1.61
44011	7	Sololá	710	Panajachel	8	Panajachel	6	Junio	2023-06-20T00:00:00	2024-11-08T22:00:00	1	Precipitación	0
44012	7	Sololá	710	Panajachel	8	Panajachel	6	Junio	2023-06-20T00:00:00	2024-11-08T22:00:00	8	Radiación solar	0
44013	7	Sololá	710	Panajachel	8	Panajachel	6	Junio	2023-06-20T00:00:00	2024-11-08T23:00:00	2	Temperatura media	19.3
44014	7	Sololá	710	Panajachel	8	Panajachel	6	Junio	2023-06-20T00:00:00	2024-11-08T23:00:00	4	Temperatura máxima	19.6
44015	7	Sololá	710	Panajachel	8	Panajachel	6	Junio	2023-06-20T00:00:00	2024-11-08T23:00:00	3	Temperatura mínima	19.2
44016	7	Sololá	710	Panajachel	8	Panajachel	6	Junio	2023-06-20T00:00:00	2024-11-08T23:00:00	5	Humedad	91
44017	7	Sololá	710	Panajachel	8	Panajachel	6	Junio	2023-06-20T00:00:00	2024-11-08T23:00:00	6	Velocidad del viento	1.6
44018	7	Sololá	710	Panajachel	8	Panajachel	6	Junio	2023-06-20T00:00:00	2024-11-08T23:00:00	7	Dirección del viento	1.61
44019	7	Sololá	710	Panajachel	8	Panajachel	6	Junio	2023-06-20T00:00:00	2024-11-08T23:00:00	1	Precipitación	0
44020	7	Sololá	710	Panajachel	8	Panajachel	6	Junio	2023-06-20T00:00:00	2024-11-08T23:00:00	8	Radiación solar	0
44021	7	Sololá	710	Panajachel	8	Panajachel	6	Junio	2023-06-21T00:00:00	2024-11-08T00:00:00	2	Temperatura media	18.9
44022	7	Sololá	710	Panajachel	8	Panajachel	6	Junio	2023-06-21T00:00:00	2024-11-08T00:00:00	4	Temperatura máxima	19.3
44023	7	Sololá	710	Panajachel	8	Panajachel	6	Junio	2023-06-21T00:00:00	2024-11-08T00:00:00	3	Temperatura mínima	18.8
44024	7	Sololá	710	Panajachel	8	Panajachel	6	Junio	2023-06-21T00:00:00	2024-11-08T00:00:00	5	Humedad	91
44025	7	Sololá	710	Panajachel	8	Panajachel	6	Junio	2023-06-21T00:00:00	2024-11-08T00:00:00	6	Velocidad del viento	1.6
44026	7	Sololá	710	Panajachel	8	Panajachel	6	Junio	2023-06-21T00:00:00	2024-11-08T00:00:00	7	Dirección del viento	1.61
44027	7	Sololá	710	Panajachel	8	Panajachel	6	Junio	2023-06-21T00:00:00	2024-11-08T00:00:00	1	Precipitación	0
44028	7	Sololá	710	Panajachel	8	Panajachel	6	Junio	2023-06-21T00:00:00	2024-11-08T00:00:00	8	Radiación solar	0
44029	7	Sololá	710	Panajachel	8	Panajachel	6	Junio	2023-06-21T00:00:00	2024-11-08T01:00:00	2	Temperatura media	19.1
44030	7	Sololá	710	Panajachel	8	Panajachel	6	Junio	2023-06-21T00:00:00	2024-11-08T01:00:00	4	Temperatura máxima	19.1
44031	7	Sololá	710	Panajachel	8	Panajachel	6	Junio	2023-06-21T00:00:00	2024-11-08T01:00:00	3	Temperatura mínima	18.9
44032	7	Sololá	710	Panajachel	8	Panajachel	6	Junio	2023-06-21T00:00:00	2024-11-08T01:00:00	5	Humedad	89
44033	7	Sololá	710	Panajachel	8	Panajachel	6	Junio	2023-06-21T00:00:00	2024-11-08T01:00:00	6	Velocidad del viento	1.6
44034	7	Sololá	710	Panajachel	8	Panajachel	6	Junio	2023-06-21T00:00:00	2024-11-08T01:00:00	7	Dirección del viento	1.61
44035	7	Sololá	710	Panajachel	8	Panajachel	6	Junio	2023-06-21T00:00:00	2024-11-08T01:00:00	1	Precipitación	0
44036	7	Sololá	710	Panajachel	8	Panajachel	6	Junio	2023-06-21T00:00:00	2024-11-08T01:00:00	8	Radiación solar	0
44037	7	Sololá	710	Panajachel	8	Panajachel	6	Junio	2023-06-21T00:00:00	2024-11-08T02:00:00	2	Temperatura media	19.3
44038	7	Sololá	710	Panajachel	8	Panajachel	6	Junio	2023-06-21T00:00:00	2024-11-08T02:00:00	4	Temperatura máxima	19.3
44039	7	Sololá	710	Panajachel	8	Panajachel	6	Junio	2023-06-21T00:00:00	2024-11-08T02:00:00	3	Temperatura mínima	19.1
44040	7	Sololá	710	Panajachel	8	Panajachel	6	Junio	2023-06-21T00:00:00	2024-11-08T02:00:00	5	Humedad	90
44041	7	Sololá	710	Panajachel	8	Panajachel	6	Junio	2023-06-21T00:00:00	2024-11-08T02:00:00	6	Velocidad del viento	1.6
44042	7	Sololá	710	Panajachel	8	Panajachel	6	Junio	2023-06-21T00:00:00	2024-11-08T02:00:00	7	Dirección del viento	1.61
44043	7	Sololá	710	Panajachel	8	Panajachel	6	Junio	2023-06-21T00:00:00	2024-11-08T02:00:00	1	Precipitación	0
44044	7	Sololá	710	Panajachel	8	Panajachel	6	Junio	2023-06-21T00:00:00	2024-11-08T02:00:00	8	Radiación solar	0
44045	7	Sololá	710	Panajachel	8	Panajachel	6	Junio	2023-06-21T00:00:00	2024-11-08T03:00:00	2	Temperatura media	19.1
44046	7	Sololá	710	Panajachel	8	Panajachel	6	Junio	2023-06-21T00:00:00	2024-11-08T03:00:00	4	Temperatura máxima	19.3
44047	7	Sololá	710	Panajachel	8	Panajachel	6	Junio	2023-06-21T00:00:00	2024-11-08T03:00:00	3	Temperatura mínima	19.1
44048	7	Sololá	710	Panajachel	8	Panajachel	6	Junio	2023-06-21T00:00:00	2024-11-08T03:00:00	5	Humedad	92
44049	7	Sololá	710	Panajachel	8	Panajachel	6	Junio	2023-06-21T00:00:00	2024-11-08T03:00:00	6	Velocidad del viento	0
44050	7	Sololá	710	Panajachel	8	Panajachel	6	Junio	2023-06-21T00:00:00	2024-11-08T03:00:00	7	Dirección del viento	0
44051	7	Sololá	710	Panajachel	8	Panajachel	6	Junio	2023-06-21T00:00:00	2024-11-08T03:00:00	1	Precipitación	0
44052	7	Sololá	710	Panajachel	8	Panajachel	6	Junio	2023-06-21T00:00:00	2024-11-08T03:00:00	8	Radiación solar	0
44053	7	Sololá	710	Panajachel	8	Panajachel	6	Junio	2023-06-21T00:00:00	2024-11-08T04:00:00	2	Temperatura media	18.9
44054	7	Sololá	710	Panajachel	8	Panajachel	6	Junio	2023-06-21T00:00:00	2024-11-08T04:00:00	4	Temperatura máxima	19.1
44055	7	Sololá	710	Panajachel	8	Panajachel	6	Junio	2023-06-21T00:00:00	2024-11-08T04:00:00	3	Temperatura mínima	18.8
44056	7	Sololá	710	Panajachel	8	Panajachel	6	Junio	2023-06-21T00:00:00	2024-11-08T04:00:00	5	Humedad	92
44057	7	Sololá	710	Panajachel	8	Panajachel	6	Junio	2023-06-21T00:00:00	2024-11-08T04:00:00	6	Velocidad del viento	1.6
44058	7	Sololá	710	Panajachel	8	Panajachel	6	Junio	2023-06-21T00:00:00	2024-11-08T04:00:00	7	Dirección del viento	1.61
44059	7	Sololá	710	Panajachel	8	Panajachel	6	Junio	2023-06-21T00:00:00	2024-11-08T04:00:00	1	Precipitación	0
44060	7	Sololá	710	Panajachel	8	Panajachel	6	Junio	2023-06-21T00:00:00	2024-11-08T04:00:00	8	Radiación solar	0
44061	7	Sololá	710	Panajachel	8	Panajachel	6	Junio	2023-06-21T00:00:00	2024-11-08T05:00:00	2	Temperatura media	18.9
44062	7	Sololá	710	Panajachel	8	Panajachel	6	Junio	2023-06-21T00:00:00	2024-11-08T05:00:00	4	Temperatura máxima	18.9
44063	7	Sololá	710	Panajachel	8	Panajachel	6	Junio	2023-06-21T00:00:00	2024-11-08T05:00:00	3	Temperatura mínima	18.8
44064	7	Sololá	710	Panajachel	8	Panajachel	6	Junio	2023-06-21T00:00:00	2024-11-08T05:00:00	5	Humedad	90
44065	7	Sololá	710	Panajachel	8	Panajachel	6	Junio	2023-06-21T00:00:00	2024-11-08T05:00:00	6	Velocidad del viento	1.6
44066	7	Sololá	710	Panajachel	8	Panajachel	6	Junio	2023-06-21T00:00:00	2024-11-08T05:00:00	7	Dirección del viento	1.61
44067	7	Sololá	710	Panajachel	8	Panajachel	6	Junio	2023-06-21T00:00:00	2024-11-08T05:00:00	1	Precipitación	0
44068	7	Sololá	710	Panajachel	8	Panajachel	6	Junio	2023-06-21T00:00:00	2024-11-08T05:00:00	8	Radiación solar	0
44069	7	Sololá	710	Panajachel	8	Panajachel	6	Junio	2023-06-21T00:00:00	2024-11-08T06:00:00	2	Temperatura media	18.8
44070	7	Sololá	710	Panajachel	8	Panajachel	6	Junio	2023-06-21T00:00:00	2024-11-08T06:00:00	4	Temperatura máxima	18.9
44071	7	Sololá	710	Panajachel	8	Panajachel	6	Junio	2023-06-21T00:00:00	2024-11-08T06:00:00	3	Temperatura mínima	18.6
44072	7	Sololá	710	Panajachel	8	Panajachel	6	Junio	2023-06-21T00:00:00	2024-11-08T06:00:00	5	Humedad	88
44073	7	Sololá	710	Panajachel	8	Panajachel	6	Junio	2023-06-21T00:00:00	2024-11-08T06:00:00	6	Velocidad del viento	1.6
44074	7	Sololá	710	Panajachel	8	Panajachel	6	Junio	2023-06-21T00:00:00	2024-11-08T06:00:00	7	Dirección del viento	1.61
44075	7	Sololá	710	Panajachel	8	Panajachel	6	Junio	2023-06-21T00:00:00	2024-11-08T06:00:00	1	Precipitación	0
44076	7	Sololá	710	Panajachel	8	Panajachel	6	Junio	2023-06-21T00:00:00	2024-11-08T06:00:00	8	Radiación solar	3
44077	7	Sololá	710	Panajachel	8	Panajachel	6	Junio	2023-06-21T00:00:00	2024-11-08T07:00:00	2	Temperatura media	19.7
44078	7	Sololá	710	Panajachel	8	Panajachel	6	Junio	2023-06-21T00:00:00	2024-11-08T07:00:00	4	Temperatura máxima	19.7
44079	7	Sololá	710	Panajachel	8	Panajachel	6	Junio	2023-06-21T00:00:00	2024-11-08T07:00:00	3	Temperatura mínima	18.8
44080	7	Sololá	710	Panajachel	8	Panajachel	6	Junio	2023-06-21T00:00:00	2024-11-08T07:00:00	5	Humedad	86
44081	7	Sololá	710	Panajachel	8	Panajachel	6	Junio	2023-06-21T00:00:00	2024-11-08T07:00:00	6	Velocidad del viento	1.6
44082	7	Sololá	710	Panajachel	8	Panajachel	6	Junio	2023-06-21T00:00:00	2024-11-08T07:00:00	7	Dirección del viento	1.61
44083	7	Sololá	710	Panajachel	8	Panajachel	6	Junio	2023-06-21T00:00:00	2024-11-08T07:00:00	1	Precipitación	0
44084	7	Sololá	710	Panajachel	8	Panajachel	6	Junio	2023-06-21T00:00:00	2024-11-08T07:00:00	8	Radiación solar	74
44085	7	Sololá	710	Panajachel	8	Panajachel	6	Junio	2023-06-21T00:00:00	2024-11-08T08:00:00	2	Temperatura media	21.8
44086	7	Sololá	710	Panajachel	8	Panajachel	6	Junio	2023-06-21T00:00:00	2024-11-08T08:00:00	4	Temperatura máxima	21.9
44087	7	Sololá	710	Panajachel	8	Panajachel	6	Junio	2023-06-21T00:00:00	2024-11-08T08:00:00	3	Temperatura mínima	19.7
44088	7	Sololá	710	Panajachel	8	Panajachel	6	Junio	2023-06-21T00:00:00	2024-11-08T08:00:00	5	Humedad	82
44089	7	Sololá	710	Panajachel	8	Panajachel	6	Junio	2023-06-21T00:00:00	2024-11-08T08:00:00	6	Velocidad del viento	1.6
44090	7	Sololá	710	Panajachel	8	Panajachel	6	Junio	2023-06-21T00:00:00	2024-11-08T08:00:00	7	Dirección del viento	1.61
44091	7	Sololá	710	Panajachel	8	Panajachel	6	Junio	2023-06-21T00:00:00	2024-11-08T08:00:00	1	Precipitación	0
44092	7	Sololá	710	Panajachel	8	Panajachel	6	Junio	2023-06-21T00:00:00	2024-11-08T08:00:00	8	Radiación solar	310
44093	7	Sololá	710	Panajachel	8	Panajachel	6	Junio	2023-06-21T00:00:00	2024-11-08T09:00:00	2	Temperatura media	22.7
44094	7	Sololá	710	Panajachel	8	Panajachel	6	Junio	2023-06-21T00:00:00	2024-11-08T09:00:00	4	Temperatura máxima	22.7
44095	7	Sololá	710	Panajachel	8	Panajachel	6	Junio	2023-06-21T00:00:00	2024-11-08T09:00:00	3	Temperatura mínima	21.8
44096	7	Sololá	710	Panajachel	8	Panajachel	6	Junio	2023-06-21T00:00:00	2024-11-08T09:00:00	5	Humedad	80
44097	7	Sololá	710	Panajachel	8	Panajachel	6	Junio	2023-06-21T00:00:00	2024-11-08T09:00:00	6	Velocidad del viento	3.2
44098	7	Sololá	710	Panajachel	8	Panajachel	6	Junio	2023-06-21T00:00:00	2024-11-08T09:00:00	7	Dirección del viento	3.22
44099	7	Sololá	710	Panajachel	8	Panajachel	6	Junio	2023-06-21T00:00:00	2024-11-08T09:00:00	1	Precipitación	0
44100	7	Sololá	710	Panajachel	8	Panajachel	6	Junio	2023-06-21T00:00:00	2024-11-08T09:00:00	8	Radiación solar	556
44101	7	Sololá	710	Panajachel	8	Panajachel	6	Junio	2023-06-21T00:00:00	2024-11-08T10:00:00	2	Temperatura media	22.8
44102	7	Sololá	710	Panajachel	8	Panajachel	6	Junio	2023-06-21T00:00:00	2024-11-08T10:00:00	4	Temperatura máxima	23.4
44103	7	Sololá	710	Panajachel	8	Panajachel	6	Junio	2023-06-21T00:00:00	2024-11-08T10:00:00	3	Temperatura mínima	22.7
44104	7	Sololá	710	Panajachel	8	Panajachel	6	Junio	2023-06-21T00:00:00	2024-11-08T10:00:00	5	Humedad	77
44105	7	Sololá	710	Panajachel	8	Panajachel	6	Junio	2023-06-21T00:00:00	2024-11-08T10:00:00	6	Velocidad del viento	3.2
44106	7	Sololá	710	Panajachel	8	Panajachel	6	Junio	2023-06-21T00:00:00	2024-11-08T10:00:00	7	Dirección del viento	3.22
44107	7	Sololá	710	Panajachel	8	Panajachel	6	Junio	2023-06-21T00:00:00	2024-11-08T10:00:00	1	Precipitación	0
44108	7	Sololá	710	Panajachel	8	Panajachel	6	Junio	2023-06-21T00:00:00	2024-11-08T10:00:00	8	Radiación solar	628
44109	7	Sololá	710	Panajachel	8	Panajachel	6	Junio	2023-06-21T00:00:00	2024-11-08T11:00:00	2	Temperatura media	22.8
44110	7	Sololá	710	Panajachel	8	Panajachel	6	Junio	2023-06-21T00:00:00	2024-11-08T11:00:00	4	Temperatura máxima	23.7
44111	7	Sololá	710	Panajachel	8	Panajachel	6	Junio	2023-06-21T00:00:00	2024-11-08T11:00:00	3	Temperatura mínima	22.8
44112	7	Sololá	710	Panajachel	8	Panajachel	6	Junio	2023-06-21T00:00:00	2024-11-08T11:00:00	5	Humedad	81
44113	7	Sololá	710	Panajachel	8	Panajachel	6	Junio	2023-06-21T00:00:00	2024-11-08T11:00:00	6	Velocidad del viento	3.2
44114	7	Sololá	710	Panajachel	8	Panajachel	6	Junio	2023-06-21T00:00:00	2024-11-08T11:00:00	7	Dirección del viento	3.22
44115	7	Sololá	710	Panajachel	8	Panajachel	6	Junio	2023-06-21T00:00:00	2024-11-08T11:00:00	1	Precipitación	0
44116	7	Sololá	710	Panajachel	8	Panajachel	6	Junio	2023-06-21T00:00:00	2024-11-08T11:00:00	8	Radiación solar	395
44117	7	Sololá	710	Panajachel	8	Panajachel	6	Junio	2023-06-21T00:00:00	2024-11-08T12:00:00	2	Temperatura media	22.8
44118	7	Sololá	710	Panajachel	8	Panajachel	6	Junio	2023-06-21T00:00:00	2024-11-08T12:00:00	4	Temperatura máxima	23.1
44119	7	Sololá	710	Panajachel	8	Panajachel	6	Junio	2023-06-21T00:00:00	2024-11-08T12:00:00	3	Temperatura mínima	22.6
44120	7	Sololá	710	Panajachel	8	Panajachel	6	Junio	2023-06-21T00:00:00	2024-11-08T12:00:00	5	Humedad	82
44121	7	Sololá	710	Panajachel	8	Panajachel	6	Junio	2023-06-21T00:00:00	2024-11-08T12:00:00	6	Velocidad del viento	3.2
44122	7	Sololá	710	Panajachel	8	Panajachel	6	Junio	2023-06-21T00:00:00	2024-11-08T12:00:00	7	Dirección del viento	3.22
44123	7	Sololá	710	Panajachel	8	Panajachel	6	Junio	2023-06-21T00:00:00	2024-11-08T12:00:00	1	Precipitación	0
44124	7	Sololá	710	Panajachel	8	Panajachel	6	Junio	2023-06-21T00:00:00	2024-11-08T12:00:00	8	Radiación solar	292
44125	7	Sololá	710	Panajachel	8	Panajachel	6	Junio	2023-06-21T00:00:00	2024-11-08T13:00:00	2	Temperatura media	22.8
44126	7	Sololá	710	Panajachel	8	Panajachel	6	Junio	2023-06-21T00:00:00	2024-11-08T13:00:00	4	Temperatura máxima	23.1
44127	7	Sololá	710	Panajachel	8	Panajachel	6	Junio	2023-06-21T00:00:00	2024-11-08T13:00:00	3	Temperatura mínima	22.6
44128	7	Sololá	710	Panajachel	8	Panajachel	6	Junio	2023-06-21T00:00:00	2024-11-08T13:00:00	5	Humedad	85
44129	7	Sololá	710	Panajachel	8	Panajachel	6	Junio	2023-06-21T00:00:00	2024-11-08T13:00:00	6	Velocidad del viento	3.2
44130	7	Sololá	710	Panajachel	8	Panajachel	6	Junio	2023-06-21T00:00:00	2024-11-08T13:00:00	7	Dirección del viento	3.22
44131	7	Sololá	710	Panajachel	8	Panajachel	6	Junio	2023-06-21T00:00:00	2024-11-08T13:00:00	1	Precipitación	0
44132	7	Sololá	710	Panajachel	8	Panajachel	6	Junio	2023-06-21T00:00:00	2024-11-08T13:00:00	8	Radiación solar	297
44133	7	Sololá	710	Panajachel	8	Panajachel	6	Junio	2023-06-21T00:00:00	2024-11-08T14:00:00	2	Temperatura media	23.4
44134	7	Sololá	710	Panajachel	8	Panajachel	6	Junio	2023-06-21T00:00:00	2024-11-08T14:00:00	4	Temperatura máxima	23.5
44135	7	Sololá	710	Panajachel	8	Panajachel	6	Junio	2023-06-21T00:00:00	2024-11-08T14:00:00	3	Temperatura mínima	22.4
44136	7	Sololá	710	Panajachel	8	Panajachel	6	Junio	2023-06-21T00:00:00	2024-11-08T14:00:00	5	Humedad	81
44137	7	Sololá	710	Panajachel	8	Panajachel	6	Junio	2023-06-21T00:00:00	2024-11-08T14:00:00	6	Velocidad del viento	4.8
44138	7	Sololá	710	Panajachel	8	Panajachel	6	Junio	2023-06-21T00:00:00	2024-11-08T14:00:00	7	Dirección del viento	4.83
44139	7	Sololá	710	Panajachel	8	Panajachel	6	Junio	2023-06-21T00:00:00	2024-11-08T14:00:00	1	Precipitación	0
44140	7	Sololá	710	Panajachel	8	Panajachel	6	Junio	2023-06-21T00:00:00	2024-11-08T14:00:00	8	Radiación solar	530
44141	7	Sololá	710	Panajachel	8	Panajachel	6	Junio	2023-06-21T00:00:00	2024-11-08T15:00:00	2	Temperatura media	22.3
44142	7	Sololá	710	Panajachel	8	Panajachel	6	Junio	2023-06-21T00:00:00	2024-11-08T15:00:00	4	Temperatura máxima	23.4
44143	7	Sololá	710	Panajachel	8	Panajachel	6	Junio	2023-06-21T00:00:00	2024-11-08T15:00:00	3	Temperatura mínima	22.3
44144	7	Sololá	710	Panajachel	8	Panajachel	6	Junio	2023-06-21T00:00:00	2024-11-08T15:00:00	5	Humedad	85
44145	7	Sololá	710	Panajachel	8	Panajachel	6	Junio	2023-06-21T00:00:00	2024-11-08T15:00:00	6	Velocidad del viento	3.2
44146	7	Sololá	710	Panajachel	8	Panajachel	6	Junio	2023-06-21T00:00:00	2024-11-08T15:00:00	7	Dirección del viento	3.22
44147	7	Sololá	710	Panajachel	8	Panajachel	6	Junio	2023-06-21T00:00:00	2024-11-08T15:00:00	1	Precipitación	0
44148	7	Sololá	710	Panajachel	8	Panajachel	6	Junio	2023-06-21T00:00:00	2024-11-08T15:00:00	8	Radiación solar	257
44149	7	Sololá	710	Panajachel	8	Panajachel	6	Junio	2023-06-21T00:00:00	2024-11-08T16:00:00	2	Temperatura media	21.2
44150	7	Sololá	710	Panajachel	8	Panajachel	6	Junio	2023-06-21T00:00:00	2024-11-08T16:00:00	4	Temperatura máxima	22.4
44151	7	Sololá	710	Panajachel	8	Panajachel	6	Junio	2023-06-21T00:00:00	2024-11-08T16:00:00	3	Temperatura mínima	21.2
44152	7	Sololá	710	Panajachel	8	Panajachel	6	Junio	2023-06-21T00:00:00	2024-11-08T16:00:00	5	Humedad	90
44153	7	Sololá	710	Panajachel	8	Panajachel	6	Junio	2023-06-21T00:00:00	2024-11-08T16:00:00	6	Velocidad del viento	4.8
44154	7	Sololá	710	Panajachel	8	Panajachel	6	Junio	2023-06-21T00:00:00	2024-11-08T16:00:00	7	Dirección del viento	4.83
44155	7	Sololá	710	Panajachel	8	Panajachel	6	Junio	2023-06-21T00:00:00	2024-11-08T16:00:00	1	Precipitación	0
44156	7	Sololá	710	Panajachel	8	Panajachel	6	Junio	2023-06-21T00:00:00	2024-11-08T16:00:00	8	Radiación solar	139
44157	7	Sololá	710	Panajachel	8	Panajachel	6	Junio	2023-06-21T00:00:00	2024-11-08T17:00:00	2	Temperatura media	16.9
44158	7	Sololá	710	Panajachel	8	Panajachel	6	Junio	2023-06-21T00:00:00	2024-11-08T17:00:00	4	Temperatura máxima	21.2
44159	7	Sololá	710	Panajachel	8	Panajachel	6	Junio	2023-06-21T00:00:00	2024-11-08T17:00:00	3	Temperatura mínima	16.8
44160	7	Sololá	710	Panajachel	8	Panajachel	6	Junio	2023-06-21T00:00:00	2024-11-08T17:00:00	5	Humedad	94
44161	7	Sololá	710	Panajachel	8	Panajachel	6	Junio	2023-06-21T00:00:00	2024-11-08T17:00:00	6	Velocidad del viento	8
44162	7	Sololá	710	Panajachel	8	Panajachel	6	Junio	2023-06-21T00:00:00	2024-11-08T17:00:00	7	Dirección del viento	8.05
44163	7	Sololá	710	Panajachel	8	Panajachel	6	Junio	2023-06-21T00:00:00	2024-11-08T17:00:00	1	Precipitación	5.9
44164	7	Sololá	710	Panajachel	8	Panajachel	6	Junio	2023-06-21T00:00:00	2024-11-08T17:00:00	8	Radiación solar	9
44165	7	Sololá	710	Panajachel	8	Panajachel	6	Junio	2023-06-21T00:00:00	2024-11-08T18:00:00	2	Temperatura media	17.4
44166	7	Sololá	710	Panajachel	8	Panajachel	6	Junio	2023-06-21T00:00:00	2024-11-08T18:00:00	4	Temperatura máxima	17.6
44167	7	Sololá	710	Panajachel	8	Panajachel	6	Junio	2023-06-21T00:00:00	2024-11-08T18:00:00	3	Temperatura mínima	16.8
44168	7	Sololá	710	Panajachel	8	Panajachel	6	Junio	2023-06-21T00:00:00	2024-11-08T18:00:00	5	Humedad	95
44169	7	Sololá	710	Panajachel	8	Panajachel	6	Junio	2023-06-21T00:00:00	2024-11-08T18:00:00	6	Velocidad del viento	3.2
44170	7	Sololá	710	Panajachel	8	Panajachel	6	Junio	2023-06-21T00:00:00	2024-11-08T18:00:00	7	Dirección del viento	3.22
44171	7	Sololá	710	Panajachel	8	Panajachel	6	Junio	2023-06-21T00:00:00	2024-11-08T18:00:00	1	Precipitación	9.4
44172	7	Sololá	710	Panajachel	8	Panajachel	6	Junio	2023-06-21T00:00:00	2024-11-08T18:00:00	8	Radiación solar	3
44173	7	Sololá	710	Panajachel	8	Panajachel	6	Junio	2023-06-21T00:00:00	2024-11-08T19:00:00	2	Temperatura media	17.4
44174	7	Sololá	710	Panajachel	8	Panajachel	6	Junio	2023-06-21T00:00:00	2024-11-08T19:00:00	4	Temperatura máxima	17.5
44175	7	Sololá	710	Panajachel	8	Panajachel	6	Junio	2023-06-21T00:00:00	2024-11-08T19:00:00	3	Temperatura mínima	17.2
44176	7	Sololá	710	Panajachel	8	Panajachel	6	Junio	2023-06-21T00:00:00	2024-11-08T19:00:00	5	Humedad	97
44177	7	Sololá	710	Panajachel	8	Panajachel	6	Junio	2023-06-21T00:00:00	2024-11-08T19:00:00	6	Velocidad del viento	1.6
44178	7	Sololá	710	Panajachel	8	Panajachel	6	Junio	2023-06-21T00:00:00	2024-11-08T19:00:00	7	Dirección del viento	1.61
44179	7	Sololá	710	Panajachel	8	Panajachel	6	Junio	2023-06-21T00:00:00	2024-11-08T19:00:00	1	Precipitación	0
44180	7	Sololá	710	Panajachel	8	Panajachel	6	Junio	2023-06-21T00:00:00	2024-11-08T19:00:00	8	Radiación solar	0
44181	7	Sololá	710	Panajachel	8	Panajachel	6	Junio	2023-06-21T00:00:00	2024-11-08T20:00:00	2	Temperatura media	17.4
44182	7	Sololá	710	Panajachel	8	Panajachel	6	Junio	2023-06-21T00:00:00	2024-11-08T20:00:00	4	Temperatura máxima	17.5
44183	7	Sololá	710	Panajachel	8	Panajachel	6	Junio	2023-06-21T00:00:00	2024-11-08T20:00:00	3	Temperatura mínima	17.3
44184	7	Sololá	710	Panajachel	8	Panajachel	6	Junio	2023-06-21T00:00:00	2024-11-08T20:00:00	5	Humedad	94
44185	7	Sololá	710	Panajachel	8	Panajachel	6	Junio	2023-06-21T00:00:00	2024-11-08T20:00:00	6	Velocidad del viento	1.6
44186	7	Sololá	710	Panajachel	8	Panajachel	6	Junio	2023-06-21T00:00:00	2024-11-08T20:00:00	7	Dirección del viento	1.61
44187	7	Sololá	710	Panajachel	8	Panajachel	6	Junio	2023-06-21T00:00:00	2024-11-08T20:00:00	1	Precipitación	0
44188	7	Sololá	710	Panajachel	8	Panajachel	6	Junio	2023-06-21T00:00:00	2024-11-08T20:00:00	8	Radiación solar	0
44189	7	Sololá	710	Panajachel	8	Panajachel	6	Junio	2023-06-21T00:00:00	2024-11-08T21:00:00	2	Temperatura media	17.2
44190	7	Sololá	710	Panajachel	8	Panajachel	6	Junio	2023-06-21T00:00:00	2024-11-08T21:00:00	4	Temperatura máxima	17.4
44191	7	Sololá	710	Panajachel	8	Panajachel	6	Junio	2023-06-21T00:00:00	2024-11-08T21:00:00	3	Temperatura mínima	17.2
44192	7	Sololá	710	Panajachel	8	Panajachel	6	Junio	2023-06-21T00:00:00	2024-11-08T21:00:00	5	Humedad	94
44193	7	Sololá	710	Panajachel	8	Panajachel	6	Junio	2023-06-21T00:00:00	2024-11-08T21:00:00	6	Velocidad del viento	1.6
44194	7	Sololá	710	Panajachel	8	Panajachel	6	Junio	2023-06-21T00:00:00	2024-11-08T21:00:00	7	Dirección del viento	1.61
44195	7	Sololá	710	Panajachel	8	Panajachel	6	Junio	2023-06-21T00:00:00	2024-11-08T21:00:00	1	Precipitación	0
44196	7	Sololá	710	Panajachel	8	Panajachel	6	Junio	2023-06-21T00:00:00	2024-11-08T21:00:00	8	Radiación solar	0
44197	7	Sololá	710	Panajachel	8	Panajachel	6	Junio	2023-06-21T00:00:00	2024-11-08T22:00:00	2	Temperatura media	17.3
44198	7	Sololá	710	Panajachel	8	Panajachel	6	Junio	2023-06-21T00:00:00	2024-11-08T22:00:00	4	Temperatura máxima	17.3
44199	7	Sololá	710	Panajachel	8	Panajachel	6	Junio	2023-06-21T00:00:00	2024-11-08T22:00:00	3	Temperatura mínima	17.2
44200	7	Sololá	710	Panajachel	8	Panajachel	6	Junio	2023-06-21T00:00:00	2024-11-08T22:00:00	5	Humedad	94
44201	7	Sololá	710	Panajachel	8	Panajachel	6	Junio	2023-06-21T00:00:00	2024-11-08T22:00:00	6	Velocidad del viento	1.6
44202	7	Sololá	710	Panajachel	8	Panajachel	6	Junio	2023-06-21T00:00:00	2024-11-08T22:00:00	7	Dirección del viento	1.61
44203	7	Sololá	710	Panajachel	8	Panajachel	6	Junio	2023-06-21T00:00:00	2024-11-08T22:00:00	1	Precipitación	0
44204	7	Sololá	710	Panajachel	8	Panajachel	6	Junio	2023-06-21T00:00:00	2024-11-08T22:00:00	8	Radiación solar	0
44205	7	Sololá	710	Panajachel	8	Panajachel	6	Junio	2023-06-21T00:00:00	2024-11-08T23:00:00	2	Temperatura media	17.1
44206	7	Sololá	710	Panajachel	8	Panajachel	6	Junio	2023-06-21T00:00:00	2024-11-08T23:00:00	4	Temperatura máxima	17.3
44207	7	Sololá	710	Panajachel	8	Panajachel	6	Junio	2023-06-21T00:00:00	2024-11-08T23:00:00	3	Temperatura mínima	17.1
44208	7	Sololá	710	Panajachel	8	Panajachel	6	Junio	2023-06-21T00:00:00	2024-11-08T23:00:00	5	Humedad	95
44209	7	Sololá	710	Panajachel	8	Panajachel	6	Junio	2023-06-21T00:00:00	2024-11-08T23:00:00	6	Velocidad del viento	1.6
44210	7	Sololá	710	Panajachel	8	Panajachel	6	Junio	2023-06-21T00:00:00	2024-11-08T23:00:00	7	Dirección del viento	1.61
44211	7	Sololá	710	Panajachel	8	Panajachel	6	Junio	2023-06-21T00:00:00	2024-11-08T23:00:00	1	Precipitación	0
44212	7	Sololá	710	Panajachel	8	Panajachel	6	Junio	2023-06-21T00:00:00	2024-11-08T23:00:00	8	Radiación solar	0
44213	7	Sololá	710	Panajachel	8	Panajachel	6	Junio	2023-06-22T00:00:00	2024-11-08T00:00:00	2	Temperatura media	17.3
44214	7	Sololá	710	Panajachel	8	Panajachel	6	Junio	2023-06-22T00:00:00	2024-11-08T00:00:00	4	Temperatura máxima	17.3
44215	7	Sololá	710	Panajachel	8	Panajachel	6	Junio	2023-06-22T00:00:00	2024-11-08T00:00:00	3	Temperatura mínima	17.1
44216	7	Sololá	710	Panajachel	8	Panajachel	6	Junio	2023-06-22T00:00:00	2024-11-08T00:00:00	5	Humedad	96
44217	7	Sololá	710	Panajachel	8	Panajachel	6	Junio	2023-06-22T00:00:00	2024-11-08T00:00:00	6	Velocidad del viento	1.6
44218	7	Sololá	710	Panajachel	8	Panajachel	6	Junio	2023-06-22T00:00:00	2024-11-08T00:00:00	7	Dirección del viento	1.61
44219	7	Sololá	710	Panajachel	8	Panajachel	6	Junio	2023-06-22T00:00:00	2024-11-08T00:00:00	1	Precipitación	0
44220	7	Sololá	710	Panajachel	8	Panajachel	6	Junio	2023-06-22T00:00:00	2024-11-08T00:00:00	8	Radiación solar	0
44221	7	Sololá	710	Panajachel	8	Panajachel	6	Junio	2023-06-22T00:00:00	2024-11-08T01:00:00	2	Temperatura media	17.4
44222	7	Sololá	710	Panajachel	8	Panajachel	6	Junio	2023-06-22T00:00:00	2024-11-08T01:00:00	4	Temperatura máxima	17.5
44223	7	Sololá	710	Panajachel	8	Panajachel	6	Junio	2023-06-22T00:00:00	2024-11-08T01:00:00	3	Temperatura mínima	17.3
44224	7	Sololá	710	Panajachel	8	Panajachel	6	Junio	2023-06-22T00:00:00	2024-11-08T01:00:00	5	Humedad	95
44225	7	Sololá	710	Panajachel	8	Panajachel	6	Junio	2023-06-22T00:00:00	2024-11-08T01:00:00	6	Velocidad del viento	1.6
44226	7	Sololá	710	Panajachel	8	Panajachel	6	Junio	2023-06-22T00:00:00	2024-11-08T01:00:00	7	Dirección del viento	1.61
44227	7	Sololá	710	Panajachel	8	Panajachel	6	Junio	2023-06-22T00:00:00	2024-11-08T01:00:00	1	Precipitación	0
44228	7	Sololá	710	Panajachel	8	Panajachel	6	Junio	2023-06-22T00:00:00	2024-11-08T01:00:00	8	Radiación solar	0
44229	7	Sololá	710	Panajachel	8	Panajachel	6	Junio	2023-06-22T00:00:00	2024-11-08T02:00:00	2	Temperatura media	17.4
44230	7	Sololá	710	Panajachel	8	Panajachel	6	Junio	2023-06-22T00:00:00	2024-11-08T02:00:00	4	Temperatura máxima	17.5
44231	7	Sololá	710	Panajachel	8	Panajachel	6	Junio	2023-06-22T00:00:00	2024-11-08T02:00:00	3	Temperatura mínima	17.4
44232	7	Sololá	710	Panajachel	8	Panajachel	6	Junio	2023-06-22T00:00:00	2024-11-08T02:00:00	5	Humedad	95
44233	7	Sololá	710	Panajachel	8	Panajachel	6	Junio	2023-06-22T00:00:00	2024-11-08T02:00:00	6	Velocidad del viento	1.6
44234	7	Sololá	710	Panajachel	8	Panajachel	6	Junio	2023-06-22T00:00:00	2024-11-08T02:00:00	7	Dirección del viento	1.61
44235	7	Sololá	710	Panajachel	8	Panajachel	6	Junio	2023-06-22T00:00:00	2024-11-08T02:00:00	1	Precipitación	0
44236	7	Sololá	710	Panajachel	8	Panajachel	6	Junio	2023-06-22T00:00:00	2024-11-08T02:00:00	8	Radiación solar	0
44237	7	Sololá	710	Panajachel	8	Panajachel	6	Junio	2023-06-22T00:00:00	2024-11-08T03:00:00	2	Temperatura media	17.3
44238	7	Sololá	710	Panajachel	8	Panajachel	6	Junio	2023-06-22T00:00:00	2024-11-08T03:00:00	4	Temperatura máxima	17.5
44239	7	Sololá	710	Panajachel	8	Panajachel	6	Junio	2023-06-22T00:00:00	2024-11-08T03:00:00	3	Temperatura mínima	17.3
44240	7	Sololá	710	Panajachel	8	Panajachel	6	Junio	2023-06-22T00:00:00	2024-11-08T03:00:00	5	Humedad	95
44241	7	Sololá	710	Panajachel	8	Panajachel	6	Junio	2023-06-22T00:00:00	2024-11-08T03:00:00	6	Velocidad del viento	1.6
44242	7	Sololá	710	Panajachel	8	Panajachel	6	Junio	2023-06-22T00:00:00	2024-11-08T03:00:00	7	Dirección del viento	1.61
44243	7	Sololá	710	Panajachel	8	Panajachel	6	Junio	2023-06-22T00:00:00	2024-11-08T03:00:00	1	Precipitación	0
44244	7	Sololá	710	Panajachel	8	Panajachel	6	Junio	2023-06-22T00:00:00	2024-11-08T03:00:00	8	Radiación solar	0
44245	7	Sololá	710	Panajachel	8	Panajachel	6	Junio	2023-06-22T00:00:00	2024-11-08T04:00:00	2	Temperatura media	17.6
44246	7	Sololá	710	Panajachel	8	Panajachel	6	Junio	2023-06-22T00:00:00	2024-11-08T04:00:00	4	Temperatura máxima	17.7
44247	7	Sololá	710	Panajachel	8	Panajachel	6	Junio	2023-06-22T00:00:00	2024-11-08T04:00:00	3	Temperatura mínima	17.2
44248	7	Sololá	710	Panajachel	8	Panajachel	6	Junio	2023-06-22T00:00:00	2024-11-08T04:00:00	5	Humedad	93
44249	7	Sololá	710	Panajachel	8	Panajachel	6	Junio	2023-06-22T00:00:00	2024-11-08T04:00:00	6	Velocidad del viento	1.6
44250	7	Sololá	710	Panajachel	8	Panajachel	6	Junio	2023-06-22T00:00:00	2024-11-08T04:00:00	7	Dirección del viento	1.61
44251	7	Sololá	710	Panajachel	8	Panajachel	6	Junio	2023-06-22T00:00:00	2024-11-08T04:00:00	1	Precipitación	0.2
44252	7	Sololá	710	Panajachel	8	Panajachel	6	Junio	2023-06-22T00:00:00	2024-11-08T04:00:00	8	Radiación solar	0
44253	7	Sololá	710	Panajachel	8	Panajachel	6	Junio	2023-06-22T00:00:00	2024-11-08T05:00:00	2	Temperatura media	17.4
44254	7	Sololá	710	Panajachel	8	Panajachel	6	Junio	2023-06-22T00:00:00	2024-11-08T05:00:00	4	Temperatura máxima	17.6
44255	7	Sololá	710	Panajachel	8	Panajachel	6	Junio	2023-06-22T00:00:00	2024-11-08T05:00:00	3	Temperatura mínima	17.3
44256	7	Sololá	710	Panajachel	8	Panajachel	6	Junio	2023-06-22T00:00:00	2024-11-08T05:00:00	5	Humedad	91
44257	7	Sololá	710	Panajachel	8	Panajachel	6	Junio	2023-06-22T00:00:00	2024-11-08T05:00:00	6	Velocidad del viento	3.2
44258	7	Sololá	710	Panajachel	8	Panajachel	6	Junio	2023-06-22T00:00:00	2024-11-08T05:00:00	7	Dirección del viento	3.22
44259	7	Sololá	710	Panajachel	8	Panajachel	6	Junio	2023-06-22T00:00:00	2024-11-08T05:00:00	1	Precipitación	0
44260	7	Sololá	710	Panajachel	8	Panajachel	6	Junio	2023-06-22T00:00:00	2024-11-08T05:00:00	8	Radiación solar	0
44261	7	Sololá	710	Panajachel	8	Panajachel	6	Junio	2023-06-22T00:00:00	2024-11-08T06:00:00	2	Temperatura media	16.9
44262	7	Sololá	710	Panajachel	8	Panajachel	6	Junio	2023-06-22T00:00:00	2024-11-08T06:00:00	4	Temperatura máxima	17.5
44263	7	Sololá	710	Panajachel	8	Panajachel	6	Junio	2023-06-22T00:00:00	2024-11-08T06:00:00	3	Temperatura mínima	16.9
44264	7	Sololá	710	Panajachel	8	Panajachel	6	Junio	2023-06-22T00:00:00	2024-11-08T06:00:00	5	Humedad	92
44265	7	Sololá	710	Panajachel	8	Panajachel	6	Junio	2023-06-22T00:00:00	2024-11-08T06:00:00	6	Velocidad del viento	1.6
44266	7	Sololá	710	Panajachel	8	Panajachel	6	Junio	2023-06-22T00:00:00	2024-11-08T06:00:00	7	Dirección del viento	1.61
44267	7	Sololá	710	Panajachel	8	Panajachel	6	Junio	2023-06-22T00:00:00	2024-11-08T06:00:00	1	Precipitación	0
44268	7	Sololá	710	Panajachel	8	Panajachel	6	Junio	2023-06-22T00:00:00	2024-11-08T06:00:00	8	Radiación solar	5
44269	7	Sololá	710	Panajachel	8	Panajachel	6	Junio	2023-06-22T00:00:00	2024-11-08T07:00:00	2	Temperatura media	18
44270	7	Sololá	710	Panajachel	8	Panajachel	6	Junio	2023-06-22T00:00:00	2024-11-08T07:00:00	4	Temperatura máxima	18
44271	7	Sololá	710	Panajachel	8	Panajachel	6	Junio	2023-06-22T00:00:00	2024-11-08T07:00:00	3	Temperatura mínima	16.9
44272	7	Sololá	710	Panajachel	8	Panajachel	6	Junio	2023-06-22T00:00:00	2024-11-08T07:00:00	5	Humedad	89
44273	7	Sololá	710	Panajachel	8	Panajachel	6	Junio	2023-06-22T00:00:00	2024-11-08T07:00:00	6	Velocidad del viento	3.2
44274	7	Sololá	710	Panajachel	8	Panajachel	6	Junio	2023-06-22T00:00:00	2024-11-08T07:00:00	7	Dirección del viento	3.22
44275	7	Sololá	710	Panajachel	8	Panajachel	6	Junio	2023-06-22T00:00:00	2024-11-08T07:00:00	1	Precipitación	0
44276	7	Sololá	710	Panajachel	8	Panajachel	6	Junio	2023-06-22T00:00:00	2024-11-08T07:00:00	8	Radiación solar	48
44277	7	Sololá	710	Panajachel	8	Panajachel	6	Junio	2023-06-22T00:00:00	2024-11-08T08:00:00	2	Temperatura media	21.1
44278	7	Sololá	710	Panajachel	8	Panajachel	6	Junio	2023-06-22T00:00:00	2024-11-08T08:00:00	4	Temperatura máxima	21.1
44279	7	Sololá	710	Panajachel	8	Panajachel	6	Junio	2023-06-22T00:00:00	2024-11-08T08:00:00	3	Temperatura mínima	18
44280	7	Sololá	710	Panajachel	8	Panajachel	6	Junio	2023-06-22T00:00:00	2024-11-08T08:00:00	5	Humedad	83
44281	7	Sololá	710	Panajachel	8	Panajachel	6	Junio	2023-06-22T00:00:00	2024-11-08T08:00:00	6	Velocidad del viento	1.6
44282	7	Sololá	710	Panajachel	8	Panajachel	6	Junio	2023-06-22T00:00:00	2024-11-08T08:00:00	7	Dirección del viento	1.61
44283	7	Sololá	710	Panajachel	8	Panajachel	6	Junio	2023-06-22T00:00:00	2024-11-08T08:00:00	1	Precipitación	0
44284	7	Sololá	710	Panajachel	8	Panajachel	6	Junio	2023-06-22T00:00:00	2024-11-08T08:00:00	8	Radiación solar	335
44285	7	Sololá	710	Panajachel	8	Panajachel	6	Junio	2023-06-22T00:00:00	2024-11-08T09:00:00	2	Temperatura media	22.3
44286	7	Sololá	710	Panajachel	8	Panajachel	6	Junio	2023-06-22T00:00:00	2024-11-08T09:00:00	4	Temperatura máxima	22.3
44287	7	Sololá	710	Panajachel	8	Panajachel	6	Junio	2023-06-22T00:00:00	2024-11-08T09:00:00	3	Temperatura mínima	21
44288	7	Sololá	710	Panajachel	8	Panajachel	6	Junio	2023-06-22T00:00:00	2024-11-08T09:00:00	5	Humedad	81
44289	7	Sololá	710	Panajachel	8	Panajachel	6	Junio	2023-06-22T00:00:00	2024-11-08T09:00:00	6	Velocidad del viento	3.2
44290	7	Sololá	710	Panajachel	8	Panajachel	6	Junio	2023-06-22T00:00:00	2024-11-08T09:00:00	7	Dirección del viento	3.22
44291	7	Sololá	710	Panajachel	8	Panajachel	6	Junio	2023-06-22T00:00:00	2024-11-08T09:00:00	1	Precipitación	0
44292	7	Sololá	710	Panajachel	8	Panajachel	6	Junio	2023-06-22T00:00:00	2024-11-08T09:00:00	8	Radiación solar	552
44293	7	Sololá	710	Panajachel	8	Panajachel	6	Junio	2023-06-22T00:00:00	2024-11-08T10:00:00	2	Temperatura media	23.2
44294	7	Sololá	710	Panajachel	8	Panajachel	6	Junio	2023-06-22T00:00:00	2024-11-08T10:00:00	4	Temperatura máxima	23.2
44295	7	Sololá	710	Panajachel	8	Panajachel	6	Junio	2023-06-22T00:00:00	2024-11-08T10:00:00	3	Temperatura mínima	22.3
44296	7	Sololá	710	Panajachel	8	Panajachel	6	Junio	2023-06-22T00:00:00	2024-11-08T10:00:00	5	Humedad	76
44297	7	Sololá	710	Panajachel	8	Panajachel	6	Junio	2023-06-22T00:00:00	2024-11-08T10:00:00	6	Velocidad del viento	3.2
44298	7	Sololá	710	Panajachel	8	Panajachel	6	Junio	2023-06-22T00:00:00	2024-11-08T10:00:00	7	Dirección del viento	3.22
44299	7	Sololá	710	Panajachel	8	Panajachel	6	Junio	2023-06-22T00:00:00	2024-11-08T10:00:00	1	Precipitación	0
44300	7	Sololá	710	Panajachel	8	Panajachel	6	Junio	2023-06-22T00:00:00	2024-11-08T10:00:00	8	Radiación solar	735
44301	7	Sololá	710	Panajachel	8	Panajachel	6	Junio	2023-06-22T00:00:00	2024-11-08T11:00:00	2	Temperatura media	22.5
44302	7	Sololá	710	Panajachel	8	Panajachel	6	Junio	2023-06-22T00:00:00	2024-11-08T11:00:00	4	Temperatura máxima	22.7
44303	7	Sololá	710	Panajachel	8	Panajachel	6	Junio	2023-06-22T00:00:00	2024-11-08T11:00:00	3	Temperatura mínima	22.4
44304	7	Sololá	710	Panajachel	8	Panajachel	6	Junio	2023-06-22T00:00:00	2024-11-08T11:00:00	5	Humedad	78
44305	7	Sololá	710	Panajachel	8	Panajachel	6	Junio	2023-06-22T00:00:00	2024-11-08T11:00:00	6	Velocidad del viento	0
44306	7	Sololá	710	Panajachel	8	Panajachel	6	Junio	2023-06-22T00:00:00	2024-11-08T11:00:00	7	Dirección del viento	0
44307	7	Sololá	710	Panajachel	8	Panajachel	6	Junio	2023-06-22T00:00:00	2024-11-08T11:00:00	1	Precipitación	0
44308	7	Sololá	710	Panajachel	8	Panajachel	6	Junio	2023-06-22T00:00:00	2024-11-08T11:00:00	8	Radiación solar	286
44309	7	Sololá	710	Panajachel	8	Panajachel	6	Junio	2023-06-22T00:00:00	2024-11-08T12:00:00	2	Temperatura media	22.7
44310	7	Sololá	710	Panajachel	8	Panajachel	6	Junio	2023-06-22T00:00:00	2024-11-08T12:00:00	4	Temperatura máxima	23.1
44311	7	Sololá	710	Panajachel	8	Panajachel	6	Junio	2023-06-22T00:00:00	2024-11-08T12:00:00	3	Temperatura mínima	22.2
44312	7	Sololá	710	Panajachel	8	Panajachel	6	Junio	2023-06-22T00:00:00	2024-11-08T12:00:00	5	Humedad	80
44313	7	Sololá	710	Panajachel	8	Panajachel	6	Junio	2023-06-22T00:00:00	2024-11-08T12:00:00	6	Velocidad del viento	1.6
44314	7	Sololá	710	Panajachel	8	Panajachel	6	Junio	2023-06-22T00:00:00	2024-11-08T12:00:00	7	Dirección del viento	1.61
44315	7	Sololá	710	Panajachel	8	Panajachel	6	Junio	2023-06-22T00:00:00	2024-11-08T12:00:00	1	Precipitación	0
44316	7	Sololá	710	Panajachel	8	Panajachel	6	Junio	2023-06-22T00:00:00	2024-11-08T12:00:00	8	Radiación solar	436
44317	7	Sololá	710	Panajachel	8	Panajachel	6	Junio	2023-06-22T00:00:00	2024-11-08T13:00:00	2	Temperatura media	21.3
44318	7	Sololá	710	Panajachel	8	Panajachel	6	Junio	2023-06-22T00:00:00	2024-11-08T13:00:00	4	Temperatura máxima	22.7
44319	7	Sololá	710	Panajachel	8	Panajachel	6	Junio	2023-06-22T00:00:00	2024-11-08T13:00:00	3	Temperatura mínima	21.3
44320	7	Sololá	710	Panajachel	8	Panajachel	6	Junio	2023-06-22T00:00:00	2024-11-08T13:00:00	5	Humedad	85
44321	7	Sololá	710	Panajachel	8	Panajachel	6	Junio	2023-06-22T00:00:00	2024-11-08T13:00:00	6	Velocidad del viento	0
44322	7	Sololá	710	Panajachel	8	Panajachel	6	Junio	2023-06-22T00:00:00	2024-11-08T13:00:00	7	Dirección del viento	0
44323	7	Sololá	710	Panajachel	8	Panajachel	6	Junio	2023-06-22T00:00:00	2024-11-08T13:00:00	1	Precipitación	0
44324	7	Sololá	710	Panajachel	8	Panajachel	6	Junio	2023-06-22T00:00:00	2024-11-08T13:00:00	8	Radiación solar	205
44325	7	Sololá	710	Panajachel	8	Panajachel	6	Junio	2023-06-22T00:00:00	2024-11-08T14:00:00	2	Temperatura media	21.4
44326	7	Sololá	710	Panajachel	8	Panajachel	6	Junio	2023-06-22T00:00:00	2024-11-08T14:00:00	4	Temperatura máxima	21.4
44327	7	Sololá	710	Panajachel	8	Panajachel	6	Junio	2023-06-22T00:00:00	2024-11-08T14:00:00	3	Temperatura mínima	21.1
44328	7	Sololá	710	Panajachel	8	Panajachel	6	Junio	2023-06-22T00:00:00	2024-11-08T14:00:00	5	Humedad	86
44329	7	Sololá	710	Panajachel	8	Panajachel	6	Junio	2023-06-22T00:00:00	2024-11-08T14:00:00	6	Velocidad del viento	0
44330	7	Sololá	710	Panajachel	8	Panajachel	6	Junio	2023-06-22T00:00:00	2024-11-08T14:00:00	7	Dirección del viento	0
44331	7	Sololá	710	Panajachel	8	Panajachel	6	Junio	2023-06-22T00:00:00	2024-11-08T14:00:00	1	Precipitación	0
44332	7	Sololá	710	Panajachel	8	Panajachel	6	Junio	2023-06-22T00:00:00	2024-11-08T14:00:00	8	Radiación solar	201
44333	7	Sololá	710	Panajachel	8	Panajachel	6	Junio	2023-06-22T00:00:00	2024-11-08T15:00:00	2	Temperatura media	22.1
44334	7	Sololá	710	Panajachel	8	Panajachel	6	Junio	2023-06-22T00:00:00	2024-11-08T15:00:00	4	Temperatura máxima	22.1
44335	7	Sololá	710	Panajachel	8	Panajachel	6	Junio	2023-06-22T00:00:00	2024-11-08T15:00:00	3	Temperatura mínima	21.4
44336	7	Sololá	710	Panajachel	8	Panajachel	6	Junio	2023-06-22T00:00:00	2024-11-08T15:00:00	5	Humedad	83
44337	7	Sololá	710	Panajachel	8	Panajachel	6	Junio	2023-06-22T00:00:00	2024-11-08T15:00:00	6	Velocidad del viento	0
44338	7	Sololá	710	Panajachel	8	Panajachel	6	Junio	2023-06-22T00:00:00	2024-11-08T15:00:00	7	Dirección del viento	0
44339	7	Sololá	710	Panajachel	8	Panajachel	6	Junio	2023-06-22T00:00:00	2024-11-08T15:00:00	1	Precipitación	0
44340	7	Sololá	710	Panajachel	8	Panajachel	6	Junio	2023-06-22T00:00:00	2024-11-08T15:00:00	8	Radiación solar	358
44341	7	Sololá	710	Panajachel	8	Panajachel	6	Junio	2023-06-22T00:00:00	2024-11-08T16:00:00	2	Temperatura media	21.5
44342	7	Sololá	710	Panajachel	8	Panajachel	6	Junio	2023-06-22T00:00:00	2024-11-08T16:00:00	4	Temperatura máxima	22.6
44343	7	Sololá	710	Panajachel	8	Panajachel	6	Junio	2023-06-22T00:00:00	2024-11-08T16:00:00	3	Temperatura mínima	21.5
44344	7	Sololá	710	Panajachel	8	Panajachel	6	Junio	2023-06-22T00:00:00	2024-11-08T16:00:00	5	Humedad	82
44345	7	Sololá	710	Panajachel	8	Panajachel	6	Junio	2023-06-22T00:00:00	2024-11-08T16:00:00	6	Velocidad del viento	0
44346	7	Sololá	710	Panajachel	8	Panajachel	6	Junio	2023-06-22T00:00:00	2024-11-08T16:00:00	7	Dirección del viento	0
44347	7	Sololá	710	Panajachel	8	Panajachel	6	Junio	2023-06-22T00:00:00	2024-11-08T16:00:00	1	Precipitación	0
44348	7	Sololá	710	Panajachel	8	Panajachel	6	Junio	2023-06-22T00:00:00	2024-11-08T16:00:00	8	Radiación solar	307
44349	7	Sololá	710	Panajachel	8	Panajachel	6	Junio	2023-06-22T00:00:00	2024-11-08T17:00:00	2	Temperatura media	20.2
44350	7	Sololá	710	Panajachel	8	Panajachel	6	Junio	2023-06-22T00:00:00	2024-11-08T17:00:00	4	Temperatura máxima	21.6
44351	7	Sololá	710	Panajachel	8	Panajachel	6	Junio	2023-06-22T00:00:00	2024-11-08T17:00:00	3	Temperatura mínima	20.2
44352	7	Sololá	710	Panajachel	8	Panajachel	6	Junio	2023-06-22T00:00:00	2024-11-08T17:00:00	5	Humedad	89
44353	7	Sololá	710	Panajachel	8	Panajachel	6	Junio	2023-06-22T00:00:00	2024-11-08T17:00:00	6	Velocidad del viento	1.6
44354	7	Sololá	710	Panajachel	8	Panajachel	6	Junio	2023-06-22T00:00:00	2024-11-08T17:00:00	7	Dirección del viento	1.61
44355	7	Sololá	710	Panajachel	8	Panajachel	6	Junio	2023-06-22T00:00:00	2024-11-08T17:00:00	1	Precipitación	0
44356	7	Sololá	710	Panajachel	8	Panajachel	6	Junio	2023-06-22T00:00:00	2024-11-08T17:00:00	8	Radiación solar	58
44357	7	Sololá	710	Panajachel	8	Panajachel	6	Junio	2023-06-22T00:00:00	2024-11-08T18:00:00	2	Temperatura media	18.6
44358	7	Sololá	710	Panajachel	8	Panajachel	6	Junio	2023-06-22T00:00:00	2024-11-08T18:00:00	4	Temperatura máxima	20.2
44359	7	Sololá	710	Panajachel	8	Panajachel	6	Junio	2023-06-22T00:00:00	2024-11-08T18:00:00	3	Temperatura mínima	18.6
44360	7	Sololá	710	Panajachel	8	Panajachel	6	Junio	2023-06-22T00:00:00	2024-11-08T18:00:00	5	Humedad	94
44361	7	Sololá	710	Panajachel	8	Panajachel	6	Junio	2023-06-22T00:00:00	2024-11-08T18:00:00	6	Velocidad del viento	0
44362	7	Sololá	710	Panajachel	8	Panajachel	6	Junio	2023-06-22T00:00:00	2024-11-08T18:00:00	7	Dirección del viento	0
44363	7	Sololá	710	Panajachel	8	Panajachel	6	Junio	2023-06-22T00:00:00	2024-11-08T18:00:00	1	Precipitación	2.2
44364	7	Sololá	710	Panajachel	8	Panajachel	6	Junio	2023-06-22T00:00:00	2024-11-08T18:00:00	8	Radiación solar	5
44365	7	Sololá	710	Panajachel	8	Panajachel	6	Junio	2023-06-22T00:00:00	2024-11-08T19:00:00	2	Temperatura media	18.3
44366	7	Sololá	710	Panajachel	8	Panajachel	6	Junio	2023-06-22T00:00:00	2024-11-08T19:00:00	4	Temperatura máxima	18.6
44367	7	Sololá	710	Panajachel	8	Panajachel	6	Junio	2023-06-22T00:00:00	2024-11-08T19:00:00	3	Temperatura mínima	18.3
44368	7	Sololá	710	Panajachel	8	Panajachel	6	Junio	2023-06-22T00:00:00	2024-11-08T19:00:00	5	Humedad	96
44369	7	Sololá	710	Panajachel	8	Panajachel	6	Junio	2023-06-22T00:00:00	2024-11-08T19:00:00	6	Velocidad del viento	0
44370	7	Sololá	710	Panajachel	8	Panajachel	6	Junio	2023-06-22T00:00:00	2024-11-08T19:00:00	7	Dirección del viento	0
44371	7	Sololá	710	Panajachel	8	Panajachel	6	Junio	2023-06-22T00:00:00	2024-11-08T19:00:00	1	Precipitación	0.2
44372	7	Sololá	710	Panajachel	8	Panajachel	6	Junio	2023-06-22T00:00:00	2024-11-08T19:00:00	8	Radiación solar	0
44373	7	Sololá	710	Panajachel	8	Panajachel	6	Junio	2023-06-22T00:00:00	2024-11-08T20:00:00	2	Temperatura media	18.2
44374	7	Sololá	710	Panajachel	8	Panajachel	6	Junio	2023-06-22T00:00:00	2024-11-08T20:00:00	4	Temperatura máxima	18.4
44375	7	Sololá	710	Panajachel	8	Panajachel	6	Junio	2023-06-22T00:00:00	2024-11-08T20:00:00	3	Temperatura mínima	18.2
44376	7	Sololá	710	Panajachel	8	Panajachel	6	Junio	2023-06-22T00:00:00	2024-11-08T20:00:00	5	Humedad	96
44377	7	Sololá	710	Panajachel	8	Panajachel	6	Junio	2023-06-22T00:00:00	2024-11-08T20:00:00	6	Velocidad del viento	0
44378	7	Sololá	710	Panajachel	8	Panajachel	6	Junio	2023-06-22T00:00:00	2024-11-08T20:00:00	7	Dirección del viento	0
44379	7	Sololá	710	Panajachel	8	Panajachel	6	Junio	2023-06-22T00:00:00	2024-11-08T20:00:00	1	Precipitación	0.2
44380	7	Sololá	710	Panajachel	8	Panajachel	6	Junio	2023-06-22T00:00:00	2024-11-08T20:00:00	8	Radiación solar	0
44381	7	Sololá	710	Panajachel	8	Panajachel	6	Junio	2023-06-22T00:00:00	2024-11-08T21:00:00	2	Temperatura media	17.9
44382	7	Sololá	710	Panajachel	8	Panajachel	6	Junio	2023-06-22T00:00:00	2024-11-08T21:00:00	4	Temperatura máxima	18.2
44383	7	Sololá	710	Panajachel	8	Panajachel	6	Junio	2023-06-22T00:00:00	2024-11-08T21:00:00	3	Temperatura mínima	17.9
44384	7	Sololá	710	Panajachel	8	Panajachel	6	Junio	2023-06-22T00:00:00	2024-11-08T21:00:00	5	Humedad	96
44385	7	Sololá	710	Panajachel	8	Panajachel	6	Junio	2023-06-22T00:00:00	2024-11-08T21:00:00	6	Velocidad del viento	0
44386	7	Sololá	710	Panajachel	8	Panajachel	6	Junio	2023-06-22T00:00:00	2024-11-08T21:00:00	7	Dirección del viento	0
44387	7	Sololá	710	Panajachel	8	Panajachel	6	Junio	2023-06-22T00:00:00	2024-11-08T21:00:00	1	Precipitación	0.6
44388	7	Sololá	710	Panajachel	8	Panajachel	6	Junio	2023-06-22T00:00:00	2024-11-08T21:00:00	8	Radiación solar	0
44389	7	Sololá	710	Panajachel	8	Panajachel	6	Junio	2023-06-22T00:00:00	2024-11-08T22:00:00	2	Temperatura media	18.2
44390	7	Sololá	710	Panajachel	8	Panajachel	6	Junio	2023-06-22T00:00:00	2024-11-08T22:00:00	4	Temperatura máxima	18.2
44391	7	Sololá	710	Panajachel	8	Panajachel	6	Junio	2023-06-22T00:00:00	2024-11-08T22:00:00	3	Temperatura mínima	17.8
44392	7	Sololá	710	Panajachel	8	Panajachel	6	Junio	2023-06-22T00:00:00	2024-11-08T22:00:00	5	Humedad	96
44393	7	Sololá	710	Panajachel	8	Panajachel	6	Junio	2023-06-22T00:00:00	2024-11-08T22:00:00	6	Velocidad del viento	0
44394	7	Sololá	710	Panajachel	8	Panajachel	6	Junio	2023-06-22T00:00:00	2024-11-08T22:00:00	7	Dirección del viento	0
44395	7	Sololá	710	Panajachel	8	Panajachel	6	Junio	2023-06-22T00:00:00	2024-11-08T22:00:00	1	Precipitación	0.2
44396	7	Sololá	710	Panajachel	8	Panajachel	6	Junio	2023-06-22T00:00:00	2024-11-08T22:00:00	8	Radiación solar	0
44397	7	Sololá	710	Panajachel	8	Panajachel	6	Junio	2023-06-22T00:00:00	2024-11-08T23:00:00	2	Temperatura media	18.3
44398	7	Sololá	710	Panajachel	8	Panajachel	6	Junio	2023-06-22T00:00:00	2024-11-08T23:00:00	4	Temperatura máxima	18.4
44399	7	Sololá	710	Panajachel	8	Panajachel	6	Junio	2023-06-22T00:00:00	2024-11-08T23:00:00	3	Temperatura mínima	18.2
44400	7	Sololá	710	Panajachel	8	Panajachel	6	Junio	2023-06-22T00:00:00	2024-11-08T23:00:00	5	Humedad	95
44401	7	Sololá	710	Panajachel	8	Panajachel	6	Junio	2023-06-22T00:00:00	2024-11-08T23:00:00	6	Velocidad del viento	0
44402	7	Sololá	710	Panajachel	8	Panajachel	6	Junio	2023-06-22T00:00:00	2024-11-08T23:00:00	7	Dirección del viento	0
44403	7	Sololá	710	Panajachel	8	Panajachel	6	Junio	2023-06-22T00:00:00	2024-11-08T23:00:00	1	Precipitación	0
44404	7	Sololá	710	Panajachel	8	Panajachel	6	Junio	2023-06-22T00:00:00	2024-11-08T23:00:00	8	Radiación solar	0
44405	7	Sololá	710	Panajachel	8	Panajachel	6	Junio	2023-06-23T00:00:00	2024-11-08T00:00:00	2	Temperatura media	18.1
44406	7	Sololá	710	Panajachel	8	Panajachel	6	Junio	2023-06-23T00:00:00	2024-11-08T00:00:00	4	Temperatura máxima	18.3
44407	7	Sololá	710	Panajachel	8	Panajachel	6	Junio	2023-06-23T00:00:00	2024-11-08T00:00:00	3	Temperatura mínima	18.1
44408	7	Sololá	710	Panajachel	8	Panajachel	6	Junio	2023-06-23T00:00:00	2024-11-08T00:00:00	5	Humedad	95
44409	7	Sololá	710	Panajachel	8	Panajachel	6	Junio	2023-06-23T00:00:00	2024-11-08T00:00:00	6	Velocidad del viento	0
44410	7	Sololá	710	Panajachel	8	Panajachel	6	Junio	2023-06-23T00:00:00	2024-11-08T00:00:00	7	Dirección del viento	0
44411	7	Sololá	710	Panajachel	8	Panajachel	6	Junio	2023-06-23T00:00:00	2024-11-08T00:00:00	1	Precipitación	0
44412	7	Sololá	710	Panajachel	8	Panajachel	6	Junio	2023-06-23T00:00:00	2024-11-08T00:00:00	8	Radiación solar	0
44413	7	Sololá	710	Panajachel	8	Panajachel	6	Junio	2023-06-23T00:00:00	2024-11-08T01:00:00	2	Temperatura media	17.3
44414	7	Sololá	710	Panajachel	8	Panajachel	6	Junio	2023-06-23T00:00:00	2024-11-08T01:00:00	4	Temperatura máxima	18.1
44415	7	Sololá	710	Panajachel	8	Panajachel	6	Junio	2023-06-23T00:00:00	2024-11-08T01:00:00	3	Temperatura mínima	17.3
44416	7	Sololá	710	Panajachel	8	Panajachel	6	Junio	2023-06-23T00:00:00	2024-11-08T01:00:00	5	Humedad	95
44417	7	Sololá	710	Panajachel	8	Panajachel	6	Junio	2023-06-23T00:00:00	2024-11-08T01:00:00	6	Velocidad del viento	0
44418	7	Sololá	710	Panajachel	8	Panajachel	6	Junio	2023-06-23T00:00:00	2024-11-08T01:00:00	7	Dirección del viento	0
44419	7	Sololá	710	Panajachel	8	Panajachel	6	Junio	2023-06-23T00:00:00	2024-11-08T01:00:00	1	Precipitación	0
44420	7	Sololá	710	Panajachel	8	Panajachel	6	Junio	2023-06-23T00:00:00	2024-11-08T01:00:00	8	Radiación solar	0
44421	7	Sololá	710	Panajachel	8	Panajachel	6	Junio	2023-06-23T00:00:00	2024-11-08T02:00:00	2	Temperatura media	17.3
44422	7	Sololá	710	Panajachel	8	Panajachel	6	Junio	2023-06-23T00:00:00	2024-11-08T02:00:00	4	Temperatura máxima	17.4
44423	7	Sololá	710	Panajachel	8	Panajachel	6	Junio	2023-06-23T00:00:00	2024-11-08T02:00:00	3	Temperatura mínima	17.2
44424	7	Sololá	710	Panajachel	8	Panajachel	6	Junio	2023-06-23T00:00:00	2024-11-08T02:00:00	5	Humedad	94
44425	7	Sololá	710	Panajachel	8	Panajachel	6	Junio	2023-06-23T00:00:00	2024-11-08T02:00:00	6	Velocidad del viento	0
44426	7	Sololá	710	Panajachel	8	Panajachel	6	Junio	2023-06-23T00:00:00	2024-11-08T02:00:00	7	Dirección del viento	0
44427	7	Sololá	710	Panajachel	8	Panajachel	6	Junio	2023-06-23T00:00:00	2024-11-08T02:00:00	1	Precipitación	0
44428	7	Sololá	710	Panajachel	8	Panajachel	6	Junio	2023-06-23T00:00:00	2024-11-08T02:00:00	8	Radiación solar	0
44429	7	Sololá	710	Panajachel	8	Panajachel	6	Junio	2023-06-23T00:00:00	2024-11-08T03:00:00	2	Temperatura media	17.4
44430	7	Sololá	710	Panajachel	8	Panajachel	6	Junio	2023-06-23T00:00:00	2024-11-08T03:00:00	4	Temperatura máxima	17.5
44431	7	Sololá	710	Panajachel	8	Panajachel	6	Junio	2023-06-23T00:00:00	2024-11-08T03:00:00	3	Temperatura mínima	17.3
44432	7	Sololá	710	Panajachel	8	Panajachel	6	Junio	2023-06-23T00:00:00	2024-11-08T03:00:00	5	Humedad	94
44433	7	Sololá	710	Panajachel	8	Panajachel	6	Junio	2023-06-23T00:00:00	2024-11-08T03:00:00	6	Velocidad del viento	0
44434	7	Sololá	710	Panajachel	8	Panajachel	6	Junio	2023-06-23T00:00:00	2024-11-08T03:00:00	7	Dirección del viento	0
44435	7	Sololá	710	Panajachel	8	Panajachel	6	Junio	2023-06-23T00:00:00	2024-11-08T03:00:00	1	Precipitación	0
44436	7	Sololá	710	Panajachel	8	Panajachel	6	Junio	2023-06-23T00:00:00	2024-11-08T03:00:00	8	Radiación solar	0
44437	7	Sololá	710	Panajachel	8	Panajachel	6	Junio	2023-06-23T00:00:00	2024-11-08T04:00:00	2	Temperatura media	17.7
44438	7	Sololá	710	Panajachel	8	Panajachel	6	Junio	2023-06-23T00:00:00	2024-11-08T04:00:00	4	Temperatura máxima	17.7
44439	7	Sololá	710	Panajachel	8	Panajachel	6	Junio	2023-06-23T00:00:00	2024-11-08T04:00:00	3	Temperatura mínima	17.4
44440	7	Sololá	710	Panajachel	8	Panajachel	6	Junio	2023-06-23T00:00:00	2024-11-08T04:00:00	5	Humedad	91
44441	7	Sololá	710	Panajachel	8	Panajachel	6	Junio	2023-06-23T00:00:00	2024-11-08T04:00:00	6	Velocidad del viento	0
44442	7	Sololá	710	Panajachel	8	Panajachel	6	Junio	2023-06-23T00:00:00	2024-11-08T04:00:00	7	Dirección del viento	0
44443	7	Sololá	710	Panajachel	8	Panajachel	6	Junio	2023-06-23T00:00:00	2024-11-08T04:00:00	1	Precipitación	0
44444	7	Sololá	710	Panajachel	8	Panajachel	6	Junio	2023-06-23T00:00:00	2024-11-08T04:00:00	8	Radiación solar	0
44445	7	Sololá	710	Panajachel	8	Panajachel	6	Junio	2023-06-23T00:00:00	2024-11-08T05:00:00	2	Temperatura media	16.8
44446	7	Sololá	710	Panajachel	8	Panajachel	6	Junio	2023-06-23T00:00:00	2024-11-08T05:00:00	4	Temperatura máxima	17.7
44447	7	Sololá	710	Panajachel	8	Panajachel	6	Junio	2023-06-23T00:00:00	2024-11-08T05:00:00	3	Temperatura mínima	16.8
44448	7	Sololá	710	Panajachel	8	Panajachel	6	Junio	2023-06-23T00:00:00	2024-11-08T05:00:00	5	Humedad	93
44449	7	Sololá	710	Panajachel	8	Panajachel	6	Junio	2023-06-23T00:00:00	2024-11-08T05:00:00	6	Velocidad del viento	0
44450	7	Sololá	710	Panajachel	8	Panajachel	6	Junio	2023-06-23T00:00:00	2024-11-08T05:00:00	7	Dirección del viento	0
44451	7	Sololá	710	Panajachel	8	Panajachel	6	Junio	2023-06-23T00:00:00	2024-11-08T05:00:00	1	Precipitación	0
44452	7	Sololá	710	Panajachel	8	Panajachel	6	Junio	2023-06-23T00:00:00	2024-11-08T05:00:00	8	Radiación solar	0
44453	7	Sololá	710	Panajachel	8	Panajachel	6	Junio	2023-06-23T00:00:00	2024-11-08T06:00:00	2	Temperatura media	16.8
44454	7	Sololá	710	Panajachel	8	Panajachel	6	Junio	2023-06-23T00:00:00	2024-11-08T06:00:00	4	Temperatura máxima	16.8
44455	7	Sololá	710	Panajachel	8	Panajachel	6	Junio	2023-06-23T00:00:00	2024-11-08T06:00:00	3	Temperatura mínima	16.5
44456	7	Sololá	710	Panajachel	8	Panajachel	6	Junio	2023-06-23T00:00:00	2024-11-08T06:00:00	5	Humedad	91
44457	7	Sololá	710	Panajachel	8	Panajachel	6	Junio	2023-06-23T00:00:00	2024-11-08T06:00:00	6	Velocidad del viento	0
44458	7	Sololá	710	Panajachel	8	Panajachel	6	Junio	2023-06-23T00:00:00	2024-11-08T06:00:00	7	Dirección del viento	0
44459	7	Sololá	710	Panajachel	8	Panajachel	6	Junio	2023-06-23T00:00:00	2024-11-08T06:00:00	1	Precipitación	0
44460	7	Sololá	710	Panajachel	8	Panajachel	6	Junio	2023-06-23T00:00:00	2024-11-08T06:00:00	8	Radiación solar	2
44461	7	Sololá	710	Panajachel	8	Panajachel	6	Junio	2023-06-23T00:00:00	2024-11-08T07:00:00	2	Temperatura media	18.7
44462	7	Sololá	710	Panajachel	8	Panajachel	6	Junio	2023-06-23T00:00:00	2024-11-08T07:00:00	4	Temperatura máxima	18.7
44463	7	Sololá	710	Panajachel	8	Panajachel	6	Junio	2023-06-23T00:00:00	2024-11-08T07:00:00	3	Temperatura mínima	16.6
44464	7	Sololá	710	Panajachel	8	Panajachel	6	Junio	2023-06-23T00:00:00	2024-11-08T07:00:00	5	Humedad	85
44465	7	Sololá	710	Panajachel	8	Panajachel	6	Junio	2023-06-23T00:00:00	2024-11-08T07:00:00	6	Velocidad del viento	0
44466	7	Sololá	710	Panajachel	8	Panajachel	6	Junio	2023-06-23T00:00:00	2024-11-08T07:00:00	7	Dirección del viento	0
44467	7	Sololá	710	Panajachel	8	Panajachel	6	Junio	2023-06-23T00:00:00	2024-11-08T07:00:00	1	Precipitación	0
44468	7	Sololá	710	Panajachel	8	Panajachel	6	Junio	2023-06-23T00:00:00	2024-11-08T07:00:00	8	Radiación solar	111
44469	7	Sololá	710	Panajachel	8	Panajachel	6	Junio	2023-06-23T00:00:00	2024-11-08T08:00:00	2	Temperatura media	21.6
44470	7	Sololá	710	Panajachel	8	Panajachel	6	Junio	2023-06-23T00:00:00	2024-11-08T08:00:00	4	Temperatura máxima	21.6
44471	7	Sololá	710	Panajachel	8	Panajachel	6	Junio	2023-06-23T00:00:00	2024-11-08T08:00:00	3	Temperatura mínima	18.7
44472	7	Sololá	710	Panajachel	8	Panajachel	6	Junio	2023-06-23T00:00:00	2024-11-08T08:00:00	5	Humedad	76
44473	7	Sololá	710	Panajachel	8	Panajachel	6	Junio	2023-06-23T00:00:00	2024-11-08T08:00:00	6	Velocidad del viento	0
44474	7	Sololá	710	Panajachel	8	Panajachel	6	Junio	2023-06-23T00:00:00	2024-11-08T08:00:00	7	Dirección del viento	0
44475	7	Sololá	710	Panajachel	8	Panajachel	6	Junio	2023-06-23T00:00:00	2024-11-08T08:00:00	1	Precipitación	0
44476	7	Sololá	710	Panajachel	8	Panajachel	6	Junio	2023-06-23T00:00:00	2024-11-08T08:00:00	8	Radiación solar	330
44477	7	Sololá	710	Panajachel	8	Panajachel	6	Junio	2023-06-23T00:00:00	2024-11-08T09:00:00	2	Temperatura media	22.2
44478	7	Sololá	710	Panajachel	8	Panajachel	6	Junio	2023-06-23T00:00:00	2024-11-08T09:00:00	4	Temperatura máxima	22.7
44479	7	Sololá	710	Panajachel	8	Panajachel	6	Junio	2023-06-23T00:00:00	2024-11-08T09:00:00	3	Temperatura mínima	21.4
44480	7	Sololá	710	Panajachel	8	Panajachel	6	Junio	2023-06-23T00:00:00	2024-11-08T09:00:00	5	Humedad	77
44481	7	Sololá	710	Panajachel	8	Panajachel	6	Junio	2023-06-23T00:00:00	2024-11-08T09:00:00	6	Velocidad del viento	0
44482	7	Sololá	710	Panajachel	8	Panajachel	6	Junio	2023-06-23T00:00:00	2024-11-08T09:00:00	7	Dirección del viento	0
44483	7	Sololá	710	Panajachel	8	Panajachel	6	Junio	2023-06-23T00:00:00	2024-11-08T09:00:00	1	Precipitación	0
44484	7	Sololá	710	Panajachel	8	Panajachel	6	Junio	2023-06-23T00:00:00	2024-11-08T09:00:00	8	Radiación solar	516
44485	7	Sololá	710	Panajachel	8	Panajachel	6	Junio	2023-06-23T00:00:00	2024-11-08T10:00:00	2	Temperatura media	22.1
44486	7	Sololá	710	Panajachel	8	Panajachel	6	Junio	2023-06-23T00:00:00	2024-11-08T10:00:00	4	Temperatura máxima	22.2
44487	7	Sololá	710	Panajachel	8	Panajachel	6	Junio	2023-06-23T00:00:00	2024-11-08T10:00:00	3	Temperatura mínima	21.4
44488	7	Sololá	710	Panajachel	8	Panajachel	6	Junio	2023-06-23T00:00:00	2024-11-08T10:00:00	5	Humedad	76
44489	7	Sololá	710	Panajachel	8	Panajachel	6	Junio	2023-06-23T00:00:00	2024-11-08T10:00:00	6	Velocidad del viento	1.6
44490	7	Sololá	710	Panajachel	8	Panajachel	6	Junio	2023-06-23T00:00:00	2024-11-08T10:00:00	7	Dirección del viento	1.61
44491	7	Sololá	710	Panajachel	8	Panajachel	6	Junio	2023-06-23T00:00:00	2024-11-08T10:00:00	1	Precipitación	0
44492	7	Sololá	710	Panajachel	8	Panajachel	6	Junio	2023-06-23T00:00:00	2024-11-08T10:00:00	8	Radiación solar	729
44493	7	Sololá	710	Panajachel	8	Panajachel	6	Junio	2023-06-23T00:00:00	2024-11-08T11:00:00	2	Temperatura media	23.1
44494	7	Sololá	710	Panajachel	8	Panajachel	6	Junio	2023-06-23T00:00:00	2024-11-08T11:00:00	4	Temperatura máxima	23.3
44495	7	Sololá	710	Panajachel	8	Panajachel	6	Junio	2023-06-23T00:00:00	2024-11-08T11:00:00	3	Temperatura mínima	22.1
44496	7	Sololá	710	Panajachel	8	Panajachel	6	Junio	2023-06-23T00:00:00	2024-11-08T11:00:00	5	Humedad	74
44497	7	Sololá	710	Panajachel	8	Panajachel	6	Junio	2023-06-23T00:00:00	2024-11-08T11:00:00	6	Velocidad del viento	0
44498	7	Sololá	710	Panajachel	8	Panajachel	6	Junio	2023-06-23T00:00:00	2024-11-08T11:00:00	7	Dirección del viento	0
44499	7	Sololá	710	Panajachel	8	Panajachel	6	Junio	2023-06-23T00:00:00	2024-11-08T11:00:00	1	Precipitación	0
44500	7	Sololá	710	Panajachel	8	Panajachel	6	Junio	2023-06-23T00:00:00	2024-11-08T11:00:00	8	Radiación solar	659
44501	7	Sololá	710	Panajachel	8	Panajachel	6	Junio	2023-06-23T00:00:00	2024-11-08T12:00:00	2	Temperatura media	24.4
44502	7	Sololá	710	Panajachel	8	Panajachel	6	Junio	2023-06-23T00:00:00	2024-11-08T12:00:00	4	Temperatura máxima	24.6
44503	7	Sololá	710	Panajachel	8	Panajachel	6	Junio	2023-06-23T00:00:00	2024-11-08T12:00:00	3	Temperatura mínima	23
44504	7	Sololá	710	Panajachel	8	Panajachel	6	Junio	2023-06-23T00:00:00	2024-11-08T12:00:00	5	Humedad	73
44505	7	Sololá	710	Panajachel	8	Panajachel	6	Junio	2023-06-23T00:00:00	2024-11-08T12:00:00	6	Velocidad del viento	1.6
44506	7	Sololá	710	Panajachel	8	Panajachel	6	Junio	2023-06-23T00:00:00	2024-11-08T12:00:00	7	Dirección del viento	1.61
44507	7	Sololá	710	Panajachel	8	Panajachel	6	Junio	2023-06-23T00:00:00	2024-11-08T12:00:00	1	Precipitación	0
44508	7	Sololá	710	Panajachel	8	Panajachel	6	Junio	2023-06-23T00:00:00	2024-11-08T12:00:00	8	Radiación solar	913
44509	7	Sololá	710	Panajachel	8	Panajachel	6	Junio	2023-06-23T00:00:00	2024-11-08T13:00:00	2	Temperatura media	23.1
44510	7	Sololá	710	Panajachel	8	Panajachel	6	Junio	2023-06-23T00:00:00	2024-11-08T13:00:00	4	Temperatura máxima	24.5
44511	7	Sololá	710	Panajachel	8	Panajachel	6	Junio	2023-06-23T00:00:00	2024-11-08T13:00:00	3	Temperatura mínima	23.1
44512	7	Sololá	710	Panajachel	8	Panajachel	6	Junio	2023-06-23T00:00:00	2024-11-08T13:00:00	5	Humedad	77
44513	7	Sololá	710	Panajachel	8	Panajachel	6	Junio	2023-06-23T00:00:00	2024-11-08T13:00:00	6	Velocidad del viento	3.2
44514	7	Sololá	710	Panajachel	8	Panajachel	6	Junio	2023-06-23T00:00:00	2024-11-08T13:00:00	7	Dirección del viento	3.22
44515	7	Sololá	710	Panajachel	8	Panajachel	6	Junio	2023-06-23T00:00:00	2024-11-08T13:00:00	1	Precipitación	0
44516	7	Sololá	710	Panajachel	8	Panajachel	6	Junio	2023-06-23T00:00:00	2024-11-08T13:00:00	8	Radiación solar	624
44517	7	Sololá	710	Panajachel	8	Panajachel	6	Junio	2023-06-23T00:00:00	2024-11-08T14:00:00	2	Temperatura media	22.5
44518	7	Sololá	710	Panajachel	8	Panajachel	6	Junio	2023-06-23T00:00:00	2024-11-08T14:00:00	4	Temperatura máxima	23.4
44519	7	Sololá	710	Panajachel	8	Panajachel	6	Junio	2023-06-23T00:00:00	2024-11-08T14:00:00	3	Temperatura mínima	22.5
44520	7	Sololá	710	Panajachel	8	Panajachel	6	Junio	2023-06-23T00:00:00	2024-11-08T14:00:00	5	Humedad	82
44521	7	Sololá	710	Panajachel	8	Panajachel	6	Junio	2023-06-23T00:00:00	2024-11-08T14:00:00	6	Velocidad del viento	1.6
44522	7	Sololá	710	Panajachel	8	Panajachel	6	Junio	2023-06-23T00:00:00	2024-11-08T14:00:00	7	Dirección del viento	1.61
44523	7	Sololá	710	Panajachel	8	Panajachel	6	Junio	2023-06-23T00:00:00	2024-11-08T14:00:00	1	Precipitación	0
44524	7	Sololá	710	Panajachel	8	Panajachel	6	Junio	2023-06-23T00:00:00	2024-11-08T14:00:00	8	Radiación solar	362
44525	7	Sololá	710	Panajachel	8	Panajachel	6	Junio	2023-06-23T00:00:00	2024-11-08T15:00:00	2	Temperatura media	20.1
44526	7	Sololá	710	Panajachel	8	Panajachel	6	Junio	2023-06-23T00:00:00	2024-11-08T15:00:00	4	Temperatura máxima	22.5
44527	7	Sololá	710	Panajachel	8	Panajachel	6	Junio	2023-06-23T00:00:00	2024-11-08T15:00:00	3	Temperatura mínima	20.1
44528	7	Sololá	710	Panajachel	8	Panajachel	6	Junio	2023-06-23T00:00:00	2024-11-08T15:00:00	5	Humedad	89
44529	7	Sololá	710	Panajachel	8	Panajachel	6	Junio	2023-06-23T00:00:00	2024-11-08T15:00:00	6	Velocidad del viento	0
44530	7	Sololá	710	Panajachel	8	Panajachel	6	Junio	2023-06-23T00:00:00	2024-11-08T15:00:00	7	Dirección del viento	0
44531	7	Sololá	710	Panajachel	8	Panajachel	6	Junio	2023-06-23T00:00:00	2024-11-08T15:00:00	1	Precipitación	0.2
44532	7	Sololá	710	Panajachel	8	Panajachel	6	Junio	2023-06-23T00:00:00	2024-11-08T15:00:00	8	Radiación solar	88
44533	7	Sololá	710	Panajachel	8	Panajachel	6	Junio	2023-06-23T00:00:00	2024-11-08T16:00:00	2	Temperatura media	19.3
44534	7	Sololá	710	Panajachel	8	Panajachel	6	Junio	2023-06-23T00:00:00	2024-11-08T16:00:00	4	Temperatura máxima	20.1
44535	7	Sololá	710	Panajachel	8	Panajachel	6	Junio	2023-06-23T00:00:00	2024-11-08T16:00:00	3	Temperatura mínima	19.3
44536	7	Sololá	710	Panajachel	8	Panajachel	6	Junio	2023-06-23T00:00:00	2024-11-08T16:00:00	5	Humedad	92
44537	7	Sololá	710	Panajachel	8	Panajachel	6	Junio	2023-06-23T00:00:00	2024-11-08T16:00:00	6	Velocidad del viento	0
44538	7	Sololá	710	Panajachel	8	Panajachel	6	Junio	2023-06-23T00:00:00	2024-11-08T16:00:00	7	Dirección del viento	0
44539	7	Sololá	710	Panajachel	8	Panajachel	6	Junio	2023-06-23T00:00:00	2024-11-08T16:00:00	1	Precipitación	0.6
44540	7	Sololá	710	Panajachel	8	Panajachel	6	Junio	2023-06-23T00:00:00	2024-11-08T16:00:00	8	Radiación solar	41
44541	7	Sololá	710	Panajachel	8	Panajachel	6	Junio	2023-06-23T00:00:00	2024-11-08T17:00:00	2	Temperatura media	17.2
44542	7	Sololá	710	Panajachel	8	Panajachel	6	Junio	2023-06-23T00:00:00	2024-11-08T17:00:00	4	Temperatura máxima	19.3
44543	7	Sololá	710	Panajachel	8	Panajachel	6	Junio	2023-06-23T00:00:00	2024-11-08T17:00:00	3	Temperatura mínima	17.2
44544	7	Sololá	710	Panajachel	8	Panajachel	6	Junio	2023-06-23T00:00:00	2024-11-08T17:00:00	5	Humedad	95
44545	7	Sololá	710	Panajachel	8	Panajachel	6	Junio	2023-06-23T00:00:00	2024-11-08T17:00:00	6	Velocidad del viento	0
44546	7	Sololá	710	Panajachel	8	Panajachel	6	Junio	2023-06-23T00:00:00	2024-11-08T17:00:00	7	Dirección del viento	0
44547	7	Sololá	710	Panajachel	8	Panajachel	6	Junio	2023-06-23T00:00:00	2024-11-08T17:00:00	1	Precipitación	5
44548	7	Sololá	710	Panajachel	8	Panajachel	6	Junio	2023-06-23T00:00:00	2024-11-08T17:00:00	8	Radiación solar	0
44549	7	Sololá	710	Panajachel	8	Panajachel	6	Junio	2023-06-23T00:00:00	2024-11-08T18:00:00	2	Temperatura media	17.2
44550	7	Sololá	710	Panajachel	8	Panajachel	6	Junio	2023-06-23T00:00:00	2024-11-08T18:00:00	4	Temperatura máxima	17.3
44551	7	Sololá	710	Panajachel	8	Panajachel	6	Junio	2023-06-23T00:00:00	2024-11-08T18:00:00	3	Temperatura mínima	16.9
44552	7	Sololá	710	Panajachel	8	Panajachel	6	Junio	2023-06-23T00:00:00	2024-11-08T18:00:00	5	Humedad	96
44553	7	Sololá	710	Panajachel	8	Panajachel	6	Junio	2023-06-23T00:00:00	2024-11-08T18:00:00	6	Velocidad del viento	0
44554	7	Sololá	710	Panajachel	8	Panajachel	6	Junio	2023-06-23T00:00:00	2024-11-08T18:00:00	7	Dirección del viento	0
44555	7	Sololá	710	Panajachel	8	Panajachel	6	Junio	2023-06-23T00:00:00	2024-11-08T18:00:00	1	Precipitación	4.8
44556	7	Sololá	710	Panajachel	8	Panajachel	6	Junio	2023-06-23T00:00:00	2024-11-08T18:00:00	8	Radiación solar	0
44557	7	Sololá	710	Panajachel	8	Panajachel	6	Junio	2023-06-23T00:00:00	2024-11-08T19:00:00	2	Temperatura media	17.2
44558	7	Sololá	710	Panajachel	8	Panajachel	6	Junio	2023-06-23T00:00:00	2024-11-08T19:00:00	4	Temperatura máxima	17.3
44559	7	Sololá	710	Panajachel	8	Panajachel	6	Junio	2023-06-23T00:00:00	2024-11-08T19:00:00	3	Temperatura mínima	17.1
44560	7	Sololá	710	Panajachel	8	Panajachel	6	Junio	2023-06-23T00:00:00	2024-11-08T19:00:00	5	Humedad	96
44561	7	Sololá	710	Panajachel	8	Panajachel	6	Junio	2023-06-23T00:00:00	2024-11-08T19:00:00	6	Velocidad del viento	0
44562	7	Sololá	710	Panajachel	8	Panajachel	6	Junio	2023-06-23T00:00:00	2024-11-08T19:00:00	7	Dirección del viento	0
44563	7	Sololá	710	Panajachel	8	Panajachel	6	Junio	2023-06-23T00:00:00	2024-11-08T19:00:00	1	Precipitación	1.2
44564	7	Sololá	710	Panajachel	8	Panajachel	6	Junio	2023-06-23T00:00:00	2024-11-08T19:00:00	8	Radiación solar	0
44565	7	Sololá	710	Panajachel	8	Panajachel	6	Junio	2023-06-23T00:00:00	2024-11-08T20:00:00	2	Temperatura media	16.9
44566	7	Sololá	710	Panajachel	8	Panajachel	6	Junio	2023-06-23T00:00:00	2024-11-08T20:00:00	4	Temperatura máxima	17.3
44567	7	Sololá	710	Panajachel	8	Panajachel	6	Junio	2023-06-23T00:00:00	2024-11-08T20:00:00	3	Temperatura mínima	16.8
44568	7	Sololá	710	Panajachel	8	Panajachel	6	Junio	2023-06-23T00:00:00	2024-11-08T20:00:00	5	Humedad	96
44569	7	Sololá	710	Panajachel	8	Panajachel	6	Junio	2023-06-23T00:00:00	2024-11-08T20:00:00	6	Velocidad del viento	0
44570	7	Sololá	710	Panajachel	8	Panajachel	6	Junio	2023-06-23T00:00:00	2024-11-08T20:00:00	7	Dirección del viento	0
44571	7	Sololá	710	Panajachel	8	Panajachel	6	Junio	2023-06-23T00:00:00	2024-11-08T20:00:00	1	Precipitación	0
44572	7	Sololá	710	Panajachel	8	Panajachel	6	Junio	2023-06-23T00:00:00	2024-11-08T20:00:00	8	Radiación solar	0
44573	7	Sololá	710	Panajachel	8	Panajachel	6	Junio	2023-06-23T00:00:00	2024-11-08T21:00:00	2	Temperatura media	16.7
44574	7	Sololá	710	Panajachel	8	Panajachel	6	Junio	2023-06-23T00:00:00	2024-11-08T21:00:00	4	Temperatura máxima	16.9
44575	7	Sololá	710	Panajachel	8	Panajachel	6	Junio	2023-06-23T00:00:00	2024-11-08T21:00:00	3	Temperatura mínima	16.7
44576	7	Sololá	710	Panajachel	8	Panajachel	6	Junio	2023-06-23T00:00:00	2024-11-08T21:00:00	5	Humedad	95
44577	7	Sololá	710	Panajachel	8	Panajachel	6	Junio	2023-06-23T00:00:00	2024-11-08T21:00:00	6	Velocidad del viento	0
44578	7	Sololá	710	Panajachel	8	Panajachel	6	Junio	2023-06-23T00:00:00	2024-11-08T21:00:00	7	Dirección del viento	0
44579	7	Sololá	710	Panajachel	8	Panajachel	6	Junio	2023-06-23T00:00:00	2024-11-08T21:00:00	1	Precipitación	0
44580	7	Sololá	710	Panajachel	8	Panajachel	6	Junio	2023-06-23T00:00:00	2024-11-08T21:00:00	8	Radiación solar	0
44581	7	Sololá	710	Panajachel	8	Panajachel	6	Junio	2023-06-23T00:00:00	2024-11-08T22:00:00	2	Temperatura media	16.6
44582	7	Sololá	710	Panajachel	8	Panajachel	6	Junio	2023-06-23T00:00:00	2024-11-08T22:00:00	4	Temperatura máxima	16.7
44583	7	Sololá	710	Panajachel	8	Panajachel	6	Junio	2023-06-23T00:00:00	2024-11-08T22:00:00	3	Temperatura mínima	16.5
44584	7	Sololá	710	Panajachel	8	Panajachel	6	Junio	2023-06-23T00:00:00	2024-11-08T22:00:00	5	Humedad	95
44585	7	Sololá	710	Panajachel	8	Panajachel	6	Junio	2023-06-23T00:00:00	2024-11-08T22:00:00	6	Velocidad del viento	0
44586	7	Sololá	710	Panajachel	8	Panajachel	6	Junio	2023-06-23T00:00:00	2024-11-08T22:00:00	7	Dirección del viento	0
44587	7	Sololá	710	Panajachel	8	Panajachel	6	Junio	2023-06-23T00:00:00	2024-11-08T22:00:00	1	Precipitación	0
44588	7	Sololá	710	Panajachel	8	Panajachel	6	Junio	2023-06-23T00:00:00	2024-11-08T22:00:00	8	Radiación solar	0
44589	7	Sololá	710	Panajachel	8	Panajachel	6	Junio	2023-06-23T00:00:00	2024-11-08T23:00:00	2	Temperatura media	16.9
44590	7	Sololá	710	Panajachel	8	Panajachel	6	Junio	2023-06-23T00:00:00	2024-11-08T23:00:00	4	Temperatura máxima	16.9
44591	7	Sololá	710	Panajachel	8	Panajachel	6	Junio	2023-06-23T00:00:00	2024-11-08T23:00:00	3	Temperatura mínima	16.5
44592	7	Sololá	710	Panajachel	8	Panajachel	6	Junio	2023-06-23T00:00:00	2024-11-08T23:00:00	5	Humedad	92
44593	7	Sololá	710	Panajachel	8	Panajachel	6	Junio	2023-06-23T00:00:00	2024-11-08T23:00:00	6	Velocidad del viento	0
44594	7	Sololá	710	Panajachel	8	Panajachel	6	Junio	2023-06-23T00:00:00	2024-11-08T23:00:00	7	Dirección del viento	0
44595	7	Sololá	710	Panajachel	8	Panajachel	6	Junio	2023-06-23T00:00:00	2024-11-08T23:00:00	1	Precipitación	0
44596	7	Sololá	710	Panajachel	8	Panajachel	6	Junio	2023-06-23T00:00:00	2024-11-08T23:00:00	8	Radiación solar	0
44597	7	Sololá	710	Panajachel	8	Panajachel	6	Junio	2023-06-24T00:00:00	2024-11-08T00:00:00	2	Temperatura media	16.9
44598	7	Sololá	710	Panajachel	8	Panajachel	6	Junio	2023-06-24T00:00:00	2024-11-08T00:00:00	4	Temperatura máxima	17
44599	7	Sololá	710	Panajachel	8	Panajachel	6	Junio	2023-06-24T00:00:00	2024-11-08T00:00:00	3	Temperatura mínima	16.7
44600	7	Sololá	710	Panajachel	8	Panajachel	6	Junio	2023-06-24T00:00:00	2024-11-08T00:00:00	5	Humedad	94
44601	7	Sololá	710	Panajachel	8	Panajachel	6	Junio	2023-06-24T00:00:00	2024-11-08T00:00:00	6	Velocidad del viento	0
44602	7	Sololá	710	Panajachel	8	Panajachel	6	Junio	2023-06-24T00:00:00	2024-11-08T00:00:00	7	Dirección del viento	0
44603	7	Sololá	710	Panajachel	8	Panajachel	6	Junio	2023-06-24T00:00:00	2024-11-08T00:00:00	1	Precipitación	0
44604	7	Sololá	710	Panajachel	8	Panajachel	6	Junio	2023-06-24T00:00:00	2024-11-08T00:00:00	8	Radiación solar	0
44605	7	Sololá	710	Panajachel	8	Panajachel	6	Junio	2023-06-24T00:00:00	2024-11-08T01:00:00	2	Temperatura media	16.9
44606	7	Sololá	710	Panajachel	8	Panajachel	6	Junio	2023-06-24T00:00:00	2024-11-08T01:00:00	4	Temperatura máxima	17
44607	7	Sololá	710	Panajachel	8	Panajachel	6	Junio	2023-06-24T00:00:00	2024-11-08T01:00:00	3	Temperatura mínima	16.9
44608	7	Sololá	710	Panajachel	8	Panajachel	6	Junio	2023-06-24T00:00:00	2024-11-08T01:00:00	5	Humedad	92
44609	7	Sololá	710	Panajachel	8	Panajachel	6	Junio	2023-06-24T00:00:00	2024-11-08T01:00:00	6	Velocidad del viento	0
44610	7	Sololá	710	Panajachel	8	Panajachel	6	Junio	2023-06-24T00:00:00	2024-11-08T01:00:00	7	Dirección del viento	0
44611	7	Sololá	710	Panajachel	8	Panajachel	6	Junio	2023-06-24T00:00:00	2024-11-08T01:00:00	1	Precipitación	0
44612	7	Sololá	710	Panajachel	8	Panajachel	6	Junio	2023-06-24T00:00:00	2024-11-08T01:00:00	8	Radiación solar	0
44613	7	Sololá	710	Panajachel	8	Panajachel	6	Junio	2023-06-24T00:00:00	2024-11-08T02:00:00	2	Temperatura media	16.5
44614	7	Sololá	710	Panajachel	8	Panajachel	6	Junio	2023-06-24T00:00:00	2024-11-08T02:00:00	4	Temperatura máxima	16.9
44615	7	Sololá	710	Panajachel	8	Panajachel	6	Junio	2023-06-24T00:00:00	2024-11-08T02:00:00	3	Temperatura mínima	16.5
44616	7	Sololá	710	Panajachel	8	Panajachel	6	Junio	2023-06-24T00:00:00	2024-11-08T02:00:00	5	Humedad	93
44617	7	Sololá	710	Panajachel	8	Panajachel	6	Junio	2023-06-24T00:00:00	2024-11-08T02:00:00	6	Velocidad del viento	0
44618	7	Sololá	710	Panajachel	8	Panajachel	6	Junio	2023-06-24T00:00:00	2024-11-08T02:00:00	7	Dirección del viento	0
44619	7	Sololá	710	Panajachel	8	Panajachel	6	Junio	2023-06-24T00:00:00	2024-11-08T02:00:00	1	Precipitación	0
44620	7	Sololá	710	Panajachel	8	Panajachel	6	Junio	2023-06-24T00:00:00	2024-11-08T02:00:00	8	Radiación solar	0
44621	7	Sololá	710	Panajachel	8	Panajachel	6	Junio	2023-06-24T00:00:00	2024-11-08T03:00:00	2	Temperatura media	16.6
44622	7	Sololá	710	Panajachel	8	Panajachel	6	Junio	2023-06-24T00:00:00	2024-11-08T03:00:00	4	Temperatura máxima	16.7
44623	7	Sololá	710	Panajachel	8	Panajachel	6	Junio	2023-06-24T00:00:00	2024-11-08T03:00:00	3	Temperatura mínima	16.4
44624	7	Sololá	710	Panajachel	8	Panajachel	6	Junio	2023-06-24T00:00:00	2024-11-08T03:00:00	5	Humedad	92
44625	7	Sololá	710	Panajachel	8	Panajachel	6	Junio	2023-06-24T00:00:00	2024-11-08T03:00:00	6	Velocidad del viento	0
44626	7	Sololá	710	Panajachel	8	Panajachel	6	Junio	2023-06-24T00:00:00	2024-11-08T03:00:00	7	Dirección del viento	0
44627	7	Sololá	710	Panajachel	8	Panajachel	6	Junio	2023-06-24T00:00:00	2024-11-08T03:00:00	1	Precipitación	0
44628	7	Sololá	710	Panajachel	8	Panajachel	6	Junio	2023-06-24T00:00:00	2024-11-08T03:00:00	8	Radiación solar	0
44629	7	Sololá	710	Panajachel	8	Panajachel	6	Junio	2023-06-24T00:00:00	2024-11-08T04:00:00	2	Temperatura media	17.2
44630	7	Sololá	710	Panajachel	8	Panajachel	6	Junio	2023-06-24T00:00:00	2024-11-08T04:00:00	4	Temperatura máxima	17.2
44631	7	Sololá	710	Panajachel	8	Panajachel	6	Junio	2023-06-24T00:00:00	2024-11-08T04:00:00	3	Temperatura mínima	16.6
44632	7	Sololá	710	Panajachel	8	Panajachel	6	Junio	2023-06-24T00:00:00	2024-11-08T04:00:00	5	Humedad	89
44633	7	Sololá	710	Panajachel	8	Panajachel	6	Junio	2023-06-24T00:00:00	2024-11-08T04:00:00	6	Velocidad del viento	0
44634	7	Sololá	710	Panajachel	8	Panajachel	6	Junio	2023-06-24T00:00:00	2024-11-08T04:00:00	7	Dirección del viento	0
44635	7	Sololá	710	Panajachel	8	Panajachel	6	Junio	2023-06-24T00:00:00	2024-11-08T04:00:00	1	Precipitación	0
44636	7	Sololá	710	Panajachel	8	Panajachel	6	Junio	2023-06-24T00:00:00	2024-11-08T04:00:00	8	Radiación solar	0
44637	7	Sololá	710	Panajachel	8	Panajachel	6	Junio	2023-06-24T00:00:00	2024-11-08T05:00:00	2	Temperatura media	17.3
44638	7	Sololá	710	Panajachel	8	Panajachel	6	Junio	2023-06-24T00:00:00	2024-11-08T05:00:00	4	Temperatura máxima	17.3
44639	7	Sololá	710	Panajachel	8	Panajachel	6	Junio	2023-06-24T00:00:00	2024-11-08T05:00:00	3	Temperatura mínima	17.1
44640	7	Sololá	710	Panajachel	8	Panajachel	6	Junio	2023-06-24T00:00:00	2024-11-08T05:00:00	5	Humedad	89
44641	7	Sololá	710	Panajachel	8	Panajachel	6	Junio	2023-06-24T00:00:00	2024-11-08T05:00:00	6	Velocidad del viento	0
44642	7	Sololá	710	Panajachel	8	Panajachel	6	Junio	2023-06-24T00:00:00	2024-11-08T05:00:00	7	Dirección del viento	0
44643	7	Sololá	710	Panajachel	8	Panajachel	6	Junio	2023-06-24T00:00:00	2024-11-08T05:00:00	1	Precipitación	0
44644	7	Sololá	710	Panajachel	8	Panajachel	6	Junio	2023-06-24T00:00:00	2024-11-08T05:00:00	8	Radiación solar	0
44645	7	Sololá	710	Panajachel	8	Panajachel	6	Junio	2023-06-24T00:00:00	2024-11-08T06:00:00	2	Temperatura media	16.6
44646	7	Sololá	710	Panajachel	8	Panajachel	6	Junio	2023-06-24T00:00:00	2024-11-08T06:00:00	4	Temperatura máxima	17.3
44647	7	Sololá	710	Panajachel	8	Panajachel	6	Junio	2023-06-24T00:00:00	2024-11-08T06:00:00	3	Temperatura mínima	16.6
44648	7	Sololá	710	Panajachel	8	Panajachel	6	Junio	2023-06-24T00:00:00	2024-11-08T06:00:00	5	Humedad	90
44649	7	Sololá	710	Panajachel	8	Panajachel	6	Junio	2023-06-24T00:00:00	2024-11-08T06:00:00	6	Velocidad del viento	0
44650	7	Sololá	710	Panajachel	8	Panajachel	6	Junio	2023-06-24T00:00:00	2024-11-08T06:00:00	7	Dirección del viento	0
44651	7	Sololá	710	Panajachel	8	Panajachel	6	Junio	2023-06-24T00:00:00	2024-11-08T06:00:00	1	Precipitación	0
44652	7	Sololá	710	Panajachel	8	Panajachel	6	Junio	2023-06-24T00:00:00	2024-11-08T06:00:00	8	Radiación solar	4
44653	7	Sololá	710	Panajachel	8	Panajachel	6	Junio	2023-06-24T00:00:00	2024-11-08T07:00:00	2	Temperatura media	17.5
44654	7	Sololá	710	Panajachel	8	Panajachel	6	Junio	2023-06-24T00:00:00	2024-11-08T07:00:00	4	Temperatura máxima	17.5
44655	7	Sololá	710	Panajachel	8	Panajachel	6	Junio	2023-06-24T00:00:00	2024-11-08T07:00:00	3	Temperatura mínima	16.5
44656	7	Sololá	710	Panajachel	8	Panajachel	6	Junio	2023-06-24T00:00:00	2024-11-08T07:00:00	5	Humedad	87
44657	7	Sololá	710	Panajachel	8	Panajachel	6	Junio	2023-06-24T00:00:00	2024-11-08T07:00:00	6	Velocidad del viento	0
44658	7	Sololá	710	Panajachel	8	Panajachel	6	Junio	2023-06-24T00:00:00	2024-11-08T07:00:00	7	Dirección del viento	0
44659	7	Sololá	710	Panajachel	8	Panajachel	6	Junio	2023-06-24T00:00:00	2024-11-08T07:00:00	1	Precipitación	0
44660	7	Sololá	710	Panajachel	8	Panajachel	6	Junio	2023-06-24T00:00:00	2024-11-08T07:00:00	8	Radiación solar	57
44661	7	Sololá	710	Panajachel	8	Panajachel	6	Junio	2023-06-24T00:00:00	2024-11-08T08:00:00	2	Temperatura media	18.9
44662	7	Sololá	710	Panajachel	8	Panajachel	6	Junio	2023-06-24T00:00:00	2024-11-08T08:00:00	4	Temperatura máxima	18.9
44663	7	Sololá	710	Panajachel	8	Panajachel	6	Junio	2023-06-24T00:00:00	2024-11-08T08:00:00	3	Temperatura mínima	17.5
44664	7	Sololá	710	Panajachel	8	Panajachel	6	Junio	2023-06-24T00:00:00	2024-11-08T08:00:00	5	Humedad	88
44665	7	Sololá	710	Panajachel	8	Panajachel	6	Junio	2023-06-24T00:00:00	2024-11-08T08:00:00	6	Velocidad del viento	0
44666	7	Sololá	710	Panajachel	8	Panajachel	6	Junio	2023-06-24T00:00:00	2024-11-08T08:00:00	7	Dirección del viento	0
44667	7	Sololá	710	Panajachel	8	Panajachel	6	Junio	2023-06-24T00:00:00	2024-11-08T08:00:00	1	Precipitación	0
44668	7	Sololá	710	Panajachel	8	Panajachel	6	Junio	2023-06-24T00:00:00	2024-11-08T08:00:00	8	Radiación solar	159
44669	7	Sololá	710	Panajachel	8	Panajachel	6	Junio	2023-06-24T00:00:00	2024-11-08T09:00:00	2	Temperatura media	21.4
44670	7	Sololá	710	Panajachel	8	Panajachel	6	Junio	2023-06-24T00:00:00	2024-11-08T09:00:00	4	Temperatura máxima	21.4
44671	7	Sololá	710	Panajachel	8	Panajachel	6	Junio	2023-06-24T00:00:00	2024-11-08T09:00:00	3	Temperatura mínima	18.9
44672	7	Sololá	710	Panajachel	8	Panajachel	6	Junio	2023-06-24T00:00:00	2024-11-08T09:00:00	5	Humedad	81
44673	7	Sololá	710	Panajachel	8	Panajachel	6	Junio	2023-06-24T00:00:00	2024-11-08T09:00:00	6	Velocidad del viento	0
44674	7	Sololá	710	Panajachel	8	Panajachel	6	Junio	2023-06-24T00:00:00	2024-11-08T09:00:00	7	Dirección del viento	0
44675	7	Sololá	710	Panajachel	8	Panajachel	6	Junio	2023-06-24T00:00:00	2024-11-08T09:00:00	1	Precipitación	0
44676	7	Sololá	710	Panajachel	8	Panajachel	6	Junio	2023-06-24T00:00:00	2024-11-08T09:00:00	8	Radiación solar	491
44677	7	Sololá	710	Panajachel	8	Panajachel	6	Junio	2023-06-24T00:00:00	2024-11-08T10:00:00	2	Temperatura media	21.9
44678	7	Sololá	710	Panajachel	8	Panajachel	6	Junio	2023-06-24T00:00:00	2024-11-08T10:00:00	4	Temperatura máxima	22.7
44679	7	Sololá	710	Panajachel	8	Panajachel	6	Junio	2023-06-24T00:00:00	2024-11-08T10:00:00	3	Temperatura mínima	21.3
44680	7	Sololá	710	Panajachel	8	Panajachel	6	Junio	2023-06-24T00:00:00	2024-11-08T10:00:00	5	Humedad	82
44681	7	Sololá	710	Panajachel	8	Panajachel	6	Junio	2023-06-24T00:00:00	2024-11-08T10:00:00	6	Velocidad del viento	0
44682	7	Sololá	710	Panajachel	8	Panajachel	6	Junio	2023-06-24T00:00:00	2024-11-08T10:00:00	7	Dirección del viento	0
44683	7	Sololá	710	Panajachel	8	Panajachel	6	Junio	2023-06-24T00:00:00	2024-11-08T10:00:00	1	Precipitación	0
44684	7	Sololá	710	Panajachel	8	Panajachel	6	Junio	2023-06-24T00:00:00	2024-11-08T10:00:00	8	Radiación solar	709
44685	7	Sololá	710	Panajachel	8	Panajachel	6	Junio	2023-06-24T00:00:00	2024-11-08T11:00:00	2	Temperatura media	22.4
44686	7	Sololá	710	Panajachel	8	Panajachel	6	Junio	2023-06-24T00:00:00	2024-11-08T11:00:00	4	Temperatura máxima	22.5
44687	7	Sololá	710	Panajachel	8	Panajachel	6	Junio	2023-06-24T00:00:00	2024-11-08T11:00:00	3	Temperatura mínima	21.8
44688	7	Sololá	710	Panajachel	8	Panajachel	6	Junio	2023-06-24T00:00:00	2024-11-08T11:00:00	5	Humedad	81
44689	7	Sololá	710	Panajachel	8	Panajachel	6	Junio	2023-06-24T00:00:00	2024-11-08T11:00:00	6	Velocidad del viento	0
44690	7	Sololá	710	Panajachel	8	Panajachel	6	Junio	2023-06-24T00:00:00	2024-11-08T11:00:00	7	Dirección del viento	0
44691	7	Sololá	710	Panajachel	8	Panajachel	6	Junio	2023-06-24T00:00:00	2024-11-08T11:00:00	1	Precipitación	0
44692	7	Sololá	710	Panajachel	8	Panajachel	6	Junio	2023-06-24T00:00:00	2024-11-08T11:00:00	8	Radiación solar	565
44693	7	Sololá	710	Panajachel	8	Panajachel	6	Junio	2023-06-24T00:00:00	2024-11-08T12:00:00	2	Temperatura media	23.4
44694	7	Sololá	710	Panajachel	8	Panajachel	6	Junio	2023-06-24T00:00:00	2024-11-08T12:00:00	4	Temperatura máxima	23.8
44695	7	Sololá	710	Panajachel	8	Panajachel	6	Junio	2023-06-24T00:00:00	2024-11-08T12:00:00	3	Temperatura mínima	22.4
44696	7	Sololá	710	Panajachel	8	Panajachel	6	Junio	2023-06-24T00:00:00	2024-11-08T12:00:00	5	Humedad	74
44697	7	Sololá	710	Panajachel	8	Panajachel	6	Junio	2023-06-24T00:00:00	2024-11-08T12:00:00	6	Velocidad del viento	0
44698	7	Sololá	710	Panajachel	8	Panajachel	6	Junio	2023-06-24T00:00:00	2024-11-08T12:00:00	7	Dirección del viento	0
44699	7	Sololá	710	Panajachel	8	Panajachel	6	Junio	2023-06-24T00:00:00	2024-11-08T12:00:00	1	Precipitación	0
44700	7	Sololá	710	Panajachel	8	Panajachel	6	Junio	2023-06-24T00:00:00	2024-11-08T12:00:00	8	Radiación solar	884
44701	7	Sololá	710	Panajachel	8	Panajachel	6	Junio	2023-06-24T00:00:00	2024-11-08T13:00:00	2	Temperatura media	24.2
44702	7	Sololá	710	Panajachel	8	Panajachel	6	Junio	2023-06-24T00:00:00	2024-11-08T13:00:00	4	Temperatura máxima	24.2
44703	7	Sololá	710	Panajachel	8	Panajachel	6	Junio	2023-06-24T00:00:00	2024-11-08T13:00:00	3	Temperatura mínima	23.3
44704	7	Sololá	710	Panajachel	8	Panajachel	6	Junio	2023-06-24T00:00:00	2024-11-08T13:00:00	5	Humedad	77
44705	7	Sololá	710	Panajachel	8	Panajachel	6	Junio	2023-06-24T00:00:00	2024-11-08T13:00:00	6	Velocidad del viento	0
44706	7	Sololá	710	Panajachel	8	Panajachel	6	Junio	2023-06-24T00:00:00	2024-11-08T13:00:00	7	Dirección del viento	0
44707	7	Sololá	710	Panajachel	8	Panajachel	6	Junio	2023-06-24T00:00:00	2024-11-08T13:00:00	1	Precipitación	0
44708	7	Sololá	710	Panajachel	8	Panajachel	6	Junio	2023-06-24T00:00:00	2024-11-08T13:00:00	8	Radiación solar	883
44709	7	Sololá	710	Panajachel	8	Panajachel	6	Junio	2023-06-24T00:00:00	2024-11-08T14:00:00	2	Temperatura media	24.4
44710	7	Sololá	710	Panajachel	8	Panajachel	6	Junio	2023-06-24T00:00:00	2024-11-08T14:00:00	4	Temperatura máxima	25.2
44711	7	Sololá	710	Panajachel	8	Panajachel	6	Junio	2023-06-24T00:00:00	2024-11-08T14:00:00	3	Temperatura mínima	24.2
44712	7	Sololá	710	Panajachel	8	Panajachel	6	Junio	2023-06-24T00:00:00	2024-11-08T14:00:00	5	Humedad	74
44713	7	Sololá	710	Panajachel	8	Panajachel	6	Junio	2023-06-24T00:00:00	2024-11-08T14:00:00	6	Velocidad del viento	0
44714	7	Sololá	710	Panajachel	8	Panajachel	6	Junio	2023-06-24T00:00:00	2024-11-08T14:00:00	7	Dirección del viento	0
44715	7	Sololá	710	Panajachel	8	Panajachel	6	Junio	2023-06-24T00:00:00	2024-11-08T14:00:00	1	Precipitación	0
44716	7	Sololá	710	Panajachel	8	Panajachel	6	Junio	2023-06-24T00:00:00	2024-11-08T14:00:00	8	Radiación solar	906
44717	7	Sololá	710	Panajachel	8	Panajachel	6	Junio	2023-06-24T00:00:00	2024-11-08T15:00:00	2	Temperatura media	22.8
44718	7	Sololá	710	Panajachel	8	Panajachel	6	Junio	2023-06-24T00:00:00	2024-11-08T15:00:00	4	Temperatura máxima	24.5
44719	7	Sololá	710	Panajachel	8	Panajachel	6	Junio	2023-06-24T00:00:00	2024-11-08T15:00:00	3	Temperatura mínima	22.8
44720	7	Sololá	710	Panajachel	8	Panajachel	6	Junio	2023-06-24T00:00:00	2024-11-08T15:00:00	5	Humedad	82
44721	7	Sololá	710	Panajachel	8	Panajachel	6	Junio	2023-06-24T00:00:00	2024-11-08T15:00:00	6	Velocidad del viento	0
44722	7	Sololá	710	Panajachel	8	Panajachel	6	Junio	2023-06-24T00:00:00	2024-11-08T15:00:00	7	Dirección del viento	0
44723	7	Sololá	710	Panajachel	8	Panajachel	6	Junio	2023-06-24T00:00:00	2024-11-08T15:00:00	1	Precipitación	0
44724	7	Sololá	710	Panajachel	8	Panajachel	6	Junio	2023-06-24T00:00:00	2024-11-08T15:00:00	8	Radiación solar	173
44725	7	Sololá	710	Panajachel	8	Panajachel	6	Junio	2023-06-24T00:00:00	2024-11-08T16:00:00	2	Temperatura media	21.7
44726	7	Sololá	710	Panajachel	8	Panajachel	6	Junio	2023-06-24T00:00:00	2024-11-08T16:00:00	4	Temperatura máxima	22.9
44727	7	Sololá	710	Panajachel	8	Panajachel	6	Junio	2023-06-24T00:00:00	2024-11-08T16:00:00	3	Temperatura mínima	21.7
44728	7	Sololá	710	Panajachel	8	Panajachel	6	Junio	2023-06-24T00:00:00	2024-11-08T16:00:00	5	Humedad	89
44729	7	Sololá	710	Panajachel	8	Panajachel	6	Junio	2023-06-24T00:00:00	2024-11-08T16:00:00	6	Velocidad del viento	0
44730	7	Sololá	710	Panajachel	8	Panajachel	6	Junio	2023-06-24T00:00:00	2024-11-08T16:00:00	7	Dirección del viento	0
44731	7	Sololá	710	Panajachel	8	Panajachel	6	Junio	2023-06-24T00:00:00	2024-11-08T16:00:00	1	Precipitación	0
44732	7	Sololá	710	Panajachel	8	Panajachel	6	Junio	2023-06-24T00:00:00	2024-11-08T16:00:00	8	Radiación solar	65
44733	7	Sololá	710	Panajachel	8	Panajachel	6	Junio	2023-06-24T00:00:00	2024-11-08T17:00:00	2	Temperatura media	20.2
44734	7	Sololá	710	Panajachel	8	Panajachel	6	Junio	2023-06-24T00:00:00	2024-11-08T17:00:00	4	Temperatura máxima	21.7
44735	7	Sololá	710	Panajachel	8	Panajachel	6	Junio	2023-06-24T00:00:00	2024-11-08T17:00:00	3	Temperatura mínima	20.2
44736	7	Sololá	710	Panajachel	8	Panajachel	6	Junio	2023-06-24T00:00:00	2024-11-08T17:00:00	5	Humedad	91
44737	7	Sololá	710	Panajachel	8	Panajachel	6	Junio	2023-06-24T00:00:00	2024-11-08T17:00:00	6	Velocidad del viento	0
44738	7	Sololá	710	Panajachel	8	Panajachel	6	Junio	2023-06-24T00:00:00	2024-11-08T17:00:00	7	Dirección del viento	0
44739	7	Sololá	710	Panajachel	8	Panajachel	6	Junio	2023-06-24T00:00:00	2024-11-08T17:00:00	1	Precipitación	0.4
44740	7	Sololá	710	Panajachel	8	Panajachel	6	Junio	2023-06-24T00:00:00	2024-11-08T17:00:00	8	Radiación solar	24
44741	7	Sololá	710	Panajachel	8	Panajachel	6	Junio	2023-06-24T00:00:00	2024-11-08T18:00:00	2	Temperatura media	20.1
44742	7	Sololá	710	Panajachel	8	Panajachel	6	Junio	2023-06-24T00:00:00	2024-11-08T18:00:00	4	Temperatura máxima	20.2
44743	7	Sololá	710	Panajachel	8	Panajachel	6	Junio	2023-06-24T00:00:00	2024-11-08T18:00:00	3	Temperatura mínima	20
44744	7	Sololá	710	Panajachel	8	Panajachel	6	Junio	2023-06-24T00:00:00	2024-11-08T18:00:00	5	Humedad	93
44745	7	Sololá	710	Panajachel	8	Panajachel	6	Junio	2023-06-24T00:00:00	2024-11-08T18:00:00	6	Velocidad del viento	0
44746	7	Sololá	710	Panajachel	8	Panajachel	6	Junio	2023-06-24T00:00:00	2024-11-08T18:00:00	7	Dirección del viento	0
44747	7	Sololá	710	Panajachel	8	Panajachel	6	Junio	2023-06-24T00:00:00	2024-11-08T18:00:00	1	Precipitación	0
44748	7	Sololá	710	Panajachel	8	Panajachel	6	Junio	2023-06-24T00:00:00	2024-11-08T18:00:00	8	Radiación solar	9
44749	7	Sololá	710	Panajachel	8	Panajachel	6	Junio	2023-06-24T00:00:00	2024-11-08T19:00:00	2	Temperatura media	19.3
44750	7	Sololá	710	Panajachel	8	Panajachel	6	Junio	2023-06-24T00:00:00	2024-11-08T19:00:00	4	Temperatura máxima	20.1
44751	7	Sololá	710	Panajachel	8	Panajachel	6	Junio	2023-06-24T00:00:00	2024-11-08T19:00:00	3	Temperatura mínima	19.3
44752	7	Sololá	710	Panajachel	8	Panajachel	6	Junio	2023-06-24T00:00:00	2024-11-08T19:00:00	5	Humedad	91
44753	7	Sololá	710	Panajachel	8	Panajachel	6	Junio	2023-06-24T00:00:00	2024-11-08T19:00:00	6	Velocidad del viento	0
44754	7	Sololá	710	Panajachel	8	Panajachel	6	Junio	2023-06-24T00:00:00	2024-11-08T19:00:00	7	Dirección del viento	0
44755	7	Sololá	710	Panajachel	8	Panajachel	6	Junio	2023-06-24T00:00:00	2024-11-08T19:00:00	1	Precipitación	0.2
44756	7	Sololá	710	Panajachel	8	Panajachel	6	Junio	2023-06-24T00:00:00	2024-11-08T19:00:00	8	Radiación solar	0
44757	7	Sololá	710	Panajachel	8	Panajachel	6	Junio	2023-06-24T00:00:00	2024-11-08T20:00:00	2	Temperatura media	19.2
44758	7	Sololá	710	Panajachel	8	Panajachel	6	Junio	2023-06-24T00:00:00	2024-11-08T20:00:00	4	Temperatura máxima	19.3
44759	7	Sololá	710	Panajachel	8	Panajachel	6	Junio	2023-06-24T00:00:00	2024-11-08T20:00:00	3	Temperatura mínima	19
44760	7	Sololá	710	Panajachel	8	Panajachel	6	Junio	2023-06-24T00:00:00	2024-11-08T20:00:00	5	Humedad	92
44761	7	Sololá	710	Panajachel	8	Panajachel	6	Junio	2023-06-24T00:00:00	2024-11-08T20:00:00	6	Velocidad del viento	0
44762	7	Sololá	710	Panajachel	8	Panajachel	6	Junio	2023-06-24T00:00:00	2024-11-08T20:00:00	7	Dirección del viento	0
44763	7	Sololá	710	Panajachel	8	Panajachel	6	Junio	2023-06-24T00:00:00	2024-11-08T20:00:00	1	Precipitación	0
44764	7	Sololá	710	Panajachel	8	Panajachel	6	Junio	2023-06-24T00:00:00	2024-11-08T20:00:00	8	Radiación solar	0
44765	7	Sololá	710	Panajachel	8	Panajachel	6	Junio	2023-06-24T00:00:00	2024-11-08T21:00:00	2	Temperatura media	19
44766	7	Sololá	710	Panajachel	8	Panajachel	6	Junio	2023-06-24T00:00:00	2024-11-08T21:00:00	4	Temperatura máxima	19.2
44767	7	Sololá	710	Panajachel	8	Panajachel	6	Junio	2023-06-24T00:00:00	2024-11-08T21:00:00	3	Temperatura mínima	19
44768	7	Sololá	710	Panajachel	8	Panajachel	6	Junio	2023-06-24T00:00:00	2024-11-08T21:00:00	5	Humedad	93
44769	7	Sololá	710	Panajachel	8	Panajachel	6	Junio	2023-06-24T00:00:00	2024-11-08T21:00:00	6	Velocidad del viento	0
44770	7	Sololá	710	Panajachel	8	Panajachel	6	Junio	2023-06-24T00:00:00	2024-11-08T21:00:00	7	Dirección del viento	0
44771	7	Sololá	710	Panajachel	8	Panajachel	6	Junio	2023-06-24T00:00:00	2024-11-08T21:00:00	1	Precipitación	0
44772	7	Sololá	710	Panajachel	8	Panajachel	6	Junio	2023-06-24T00:00:00	2024-11-08T21:00:00	8	Radiación solar	0
44773	7	Sololá	710	Panajachel	8	Panajachel	6	Junio	2023-06-24T00:00:00	2024-11-08T22:00:00	2	Temperatura media	18.9
44774	7	Sololá	710	Panajachel	8	Panajachel	6	Junio	2023-06-24T00:00:00	2024-11-08T22:00:00	4	Temperatura máxima	19.1
44775	7	Sololá	710	Panajachel	8	Panajachel	6	Junio	2023-06-24T00:00:00	2024-11-08T22:00:00	3	Temperatura mínima	18.9
44776	7	Sololá	710	Panajachel	8	Panajachel	6	Junio	2023-06-24T00:00:00	2024-11-08T22:00:00	5	Humedad	93
44777	7	Sololá	710	Panajachel	8	Panajachel	6	Junio	2023-06-24T00:00:00	2024-11-08T22:00:00	6	Velocidad del viento	0
44778	7	Sololá	710	Panajachel	8	Panajachel	6	Junio	2023-06-24T00:00:00	2024-11-08T22:00:00	7	Dirección del viento	0
44779	7	Sololá	710	Panajachel	8	Panajachel	6	Junio	2023-06-24T00:00:00	2024-11-08T22:00:00	1	Precipitación	0
44780	7	Sololá	710	Panajachel	8	Panajachel	6	Junio	2023-06-24T00:00:00	2024-11-08T22:00:00	8	Radiación solar	0
44781	7	Sololá	710	Panajachel	8	Panajachel	6	Junio	2023-06-24T00:00:00	2024-11-08T23:00:00	2	Temperatura media	18.7
44782	7	Sololá	710	Panajachel	8	Panajachel	6	Junio	2023-06-24T00:00:00	2024-11-08T23:00:00	4	Temperatura máxima	18.9
44783	7	Sololá	710	Panajachel	8	Panajachel	6	Junio	2023-06-24T00:00:00	2024-11-08T23:00:00	3	Temperatura mínima	18.7
44784	7	Sololá	710	Panajachel	8	Panajachel	6	Junio	2023-06-24T00:00:00	2024-11-08T23:00:00	5	Humedad	93
44785	7	Sololá	710	Panajachel	8	Panajachel	6	Junio	2023-06-24T00:00:00	2024-11-08T23:00:00	6	Velocidad del viento	0
44786	7	Sololá	710	Panajachel	8	Panajachel	6	Junio	2023-06-24T00:00:00	2024-11-08T23:00:00	7	Dirección del viento	0
44787	7	Sololá	710	Panajachel	8	Panajachel	6	Junio	2023-06-24T00:00:00	2024-11-08T23:00:00	1	Precipitación	0
44788	7	Sololá	710	Panajachel	8	Panajachel	6	Junio	2023-06-24T00:00:00	2024-11-08T23:00:00	8	Radiación solar	0
44789	7	Sololá	710	Panajachel	8	Panajachel	6	Junio	2023-06-25T00:00:00	2024-11-08T00:00:00	2	Temperatura media	18.4
44790	7	Sololá	710	Panajachel	8	Panajachel	6	Junio	2023-06-25T00:00:00	2024-11-08T00:00:00	4	Temperatura máxima	18.7
44791	7	Sololá	710	Panajachel	8	Panajachel	6	Junio	2023-06-25T00:00:00	2024-11-08T00:00:00	3	Temperatura mínima	18.4
44792	7	Sololá	710	Panajachel	8	Panajachel	6	Junio	2023-06-25T00:00:00	2024-11-08T00:00:00	5	Humedad	93
44793	7	Sololá	710	Panajachel	8	Panajachel	6	Junio	2023-06-25T00:00:00	2024-11-08T00:00:00	6	Velocidad del viento	0
44794	7	Sololá	710	Panajachel	8	Panajachel	6	Junio	2023-06-25T00:00:00	2024-11-08T00:00:00	7	Dirección del viento	0
44795	7	Sololá	710	Panajachel	8	Panajachel	6	Junio	2023-06-25T00:00:00	2024-11-08T00:00:00	1	Precipitación	0
44796	7	Sololá	710	Panajachel	8	Panajachel	6	Junio	2023-06-25T00:00:00	2024-11-08T00:00:00	8	Radiación solar	0
44797	7	Sololá	710	Panajachel	8	Panajachel	6	Junio	2023-06-25T00:00:00	2024-11-08T01:00:00	2	Temperatura media	18.2
44798	7	Sololá	710	Panajachel	8	Panajachel	6	Junio	2023-06-25T00:00:00	2024-11-08T01:00:00	4	Temperatura máxima	18.6
44799	7	Sololá	710	Panajachel	8	Panajachel	6	Junio	2023-06-25T00:00:00	2024-11-08T01:00:00	3	Temperatura mínima	18.1
44800	7	Sololá	710	Panajachel	8	Panajachel	6	Junio	2023-06-25T00:00:00	2024-11-08T01:00:00	5	Humedad	94
44801	7	Sololá	710	Panajachel	8	Panajachel	6	Junio	2023-06-25T00:00:00	2024-11-08T01:00:00	6	Velocidad del viento	0
44802	7	Sololá	710	Panajachel	8	Panajachel	6	Junio	2023-06-25T00:00:00	2024-11-08T01:00:00	7	Dirección del viento	0
44803	7	Sololá	710	Panajachel	8	Panajachel	6	Junio	2023-06-25T00:00:00	2024-11-08T01:00:00	1	Precipitación	0
44804	7	Sololá	710	Panajachel	8	Panajachel	6	Junio	2023-06-25T00:00:00	2024-11-08T01:00:00	8	Radiación solar	0
44805	7	Sololá	710	Panajachel	8	Panajachel	6	Junio	2023-06-25T00:00:00	2024-11-08T02:00:00	2	Temperatura media	17.2
44806	7	Sololá	710	Panajachel	8	Panajachel	6	Junio	2023-06-25T00:00:00	2024-11-08T02:00:00	4	Temperatura máxima	18.3
44807	7	Sololá	710	Panajachel	8	Panajachel	6	Junio	2023-06-25T00:00:00	2024-11-08T02:00:00	3	Temperatura mínima	17.1
44808	7	Sololá	710	Panajachel	8	Panajachel	6	Junio	2023-06-25T00:00:00	2024-11-08T02:00:00	5	Humedad	92
44809	7	Sololá	710	Panajachel	8	Panajachel	6	Junio	2023-06-25T00:00:00	2024-11-08T02:00:00	6	Velocidad del viento	0
44810	7	Sololá	710	Panajachel	8	Panajachel	6	Junio	2023-06-25T00:00:00	2024-11-08T02:00:00	7	Dirección del viento	0
44811	7	Sololá	710	Panajachel	8	Panajachel	6	Junio	2023-06-25T00:00:00	2024-11-08T02:00:00	1	Precipitación	2.4
44812	7	Sololá	710	Panajachel	8	Panajachel	6	Junio	2023-06-25T00:00:00	2024-11-08T02:00:00	8	Radiación solar	0
44813	7	Sololá	710	Panajachel	8	Panajachel	6	Junio	2023-06-25T00:00:00	2024-11-08T03:00:00	2	Temperatura media	16.8
44814	7	Sololá	710	Panajachel	8	Panajachel	6	Junio	2023-06-25T00:00:00	2024-11-08T03:00:00	4	Temperatura máxima	17.3
44815	7	Sololá	710	Panajachel	8	Panajachel	6	Junio	2023-06-25T00:00:00	2024-11-08T03:00:00	3	Temperatura mínima	16.7
44816	7	Sololá	710	Panajachel	8	Panajachel	6	Junio	2023-06-25T00:00:00	2024-11-08T03:00:00	5	Humedad	93
44817	7	Sololá	710	Panajachel	8	Panajachel	6	Junio	2023-06-25T00:00:00	2024-11-08T03:00:00	6	Velocidad del viento	0
44818	7	Sololá	710	Panajachel	8	Panajachel	6	Junio	2023-06-25T00:00:00	2024-11-08T03:00:00	7	Dirección del viento	0
44819	7	Sololá	710	Panajachel	8	Panajachel	6	Junio	2023-06-25T00:00:00	2024-11-08T03:00:00	1	Precipitación	0
44820	7	Sololá	710	Panajachel	8	Panajachel	6	Junio	2023-06-25T00:00:00	2024-11-08T03:00:00	8	Radiación solar	0
44821	7	Sololá	710	Panajachel	8	Panajachel	6	Junio	2023-06-25T00:00:00	2024-11-08T04:00:00	2	Temperatura media	16.5
44822	7	Sololá	710	Panajachel	8	Panajachel	6	Junio	2023-06-25T00:00:00	2024-11-08T04:00:00	4	Temperatura máxima	16.9
44823	7	Sololá	710	Panajachel	8	Panajachel	6	Junio	2023-06-25T00:00:00	2024-11-08T04:00:00	3	Temperatura mínima	16.4
44824	7	Sololá	710	Panajachel	8	Panajachel	6	Junio	2023-06-25T00:00:00	2024-11-08T04:00:00	5	Humedad	92
44825	7	Sololá	710	Panajachel	8	Panajachel	6	Junio	2023-06-25T00:00:00	2024-11-08T04:00:00	6	Velocidad del viento	0
44826	7	Sololá	710	Panajachel	8	Panajachel	6	Junio	2023-06-25T00:00:00	2024-11-08T04:00:00	7	Dirección del viento	0
44827	7	Sololá	710	Panajachel	8	Panajachel	6	Junio	2023-06-25T00:00:00	2024-11-08T04:00:00	1	Precipitación	0
44828	7	Sololá	710	Panajachel	8	Panajachel	6	Junio	2023-06-25T00:00:00	2024-11-08T04:00:00	8	Radiación solar	0
44829	7	Sololá	710	Panajachel	8	Panajachel	6	Junio	2023-06-25T00:00:00	2024-11-08T05:00:00	2	Temperatura media	16.6
44830	7	Sololá	710	Panajachel	8	Panajachel	6	Junio	2023-06-25T00:00:00	2024-11-08T05:00:00	4	Temperatura máxima	16.7
44831	7	Sololá	710	Panajachel	8	Panajachel	6	Junio	2023-06-25T00:00:00	2024-11-08T05:00:00	3	Temperatura mínima	16.5
44832	7	Sololá	710	Panajachel	8	Panajachel	6	Junio	2023-06-25T00:00:00	2024-11-08T05:00:00	5	Humedad	90
44833	7	Sololá	710	Panajachel	8	Panajachel	6	Junio	2023-06-25T00:00:00	2024-11-08T05:00:00	6	Velocidad del viento	0
44834	7	Sololá	710	Panajachel	8	Panajachel	6	Junio	2023-06-25T00:00:00	2024-11-08T05:00:00	7	Dirección del viento	0
44835	7	Sololá	710	Panajachel	8	Panajachel	6	Junio	2023-06-25T00:00:00	2024-11-08T05:00:00	1	Precipitación	0
44836	7	Sololá	710	Panajachel	8	Panajachel	6	Junio	2023-06-25T00:00:00	2024-11-08T05:00:00	8	Radiación solar	0
44837	7	Sololá	710	Panajachel	8	Panajachel	6	Junio	2023-06-25T00:00:00	2024-11-08T06:00:00	2	Temperatura media	15.8
44838	7	Sololá	710	Panajachel	8	Panajachel	6	Junio	2023-06-25T00:00:00	2024-11-08T06:00:00	4	Temperatura máxima	16.6
44839	7	Sololá	710	Panajachel	8	Panajachel	6	Junio	2023-06-25T00:00:00	2024-11-08T06:00:00	3	Temperatura mínima	15.7
44840	7	Sololá	710	Panajachel	8	Panajachel	6	Junio	2023-06-25T00:00:00	2024-11-08T06:00:00	5	Humedad	90
44841	7	Sololá	710	Panajachel	8	Panajachel	6	Junio	2023-06-25T00:00:00	2024-11-08T06:00:00	6	Velocidad del viento	0
44842	7	Sololá	710	Panajachel	8	Panajachel	6	Junio	2023-06-25T00:00:00	2024-11-08T06:00:00	7	Dirección del viento	0
44843	7	Sololá	710	Panajachel	8	Panajachel	6	Junio	2023-06-25T00:00:00	2024-11-08T06:00:00	1	Precipitación	0
44844	7	Sololá	710	Panajachel	8	Panajachel	6	Junio	2023-06-25T00:00:00	2024-11-08T06:00:00	8	Radiación solar	2
44845	7	Sololá	710	Panajachel	8	Panajachel	6	Junio	2023-06-25T00:00:00	2024-11-08T07:00:00	2	Temperatura media	17.8
44846	7	Sololá	710	Panajachel	8	Panajachel	6	Junio	2023-06-25T00:00:00	2024-11-08T07:00:00	4	Temperatura máxima	17.8
44847	7	Sololá	710	Panajachel	8	Panajachel	6	Junio	2023-06-25T00:00:00	2024-11-08T07:00:00	3	Temperatura mínima	15.8
44848	7	Sololá	710	Panajachel	8	Panajachel	6	Junio	2023-06-25T00:00:00	2024-11-08T07:00:00	5	Humedad	80
44849	7	Sololá	710	Panajachel	8	Panajachel	6	Junio	2023-06-25T00:00:00	2024-11-08T07:00:00	6	Velocidad del viento	0
44850	7	Sololá	710	Panajachel	8	Panajachel	6	Junio	2023-06-25T00:00:00	2024-11-08T07:00:00	7	Dirección del viento	0
44851	7	Sololá	710	Panajachel	8	Panajachel	6	Junio	2023-06-25T00:00:00	2024-11-08T07:00:00	1	Precipitación	0
44852	7	Sololá	710	Panajachel	8	Panajachel	6	Junio	2023-06-25T00:00:00	2024-11-08T07:00:00	8	Radiación solar	87
44853	7	Sololá	710	Panajachel	8	Panajachel	6	Junio	2023-06-25T00:00:00	2024-11-08T08:00:00	2	Temperatura media	20.8
44854	7	Sololá	710	Panajachel	8	Panajachel	6	Junio	2023-06-25T00:00:00	2024-11-08T08:00:00	4	Temperatura máxima	20.8
44855	7	Sololá	710	Panajachel	8	Panajachel	6	Junio	2023-06-25T00:00:00	2024-11-08T08:00:00	3	Temperatura mínima	17.8
44856	7	Sololá	710	Panajachel	8	Panajachel	6	Junio	2023-06-25T00:00:00	2024-11-08T08:00:00	5	Humedad	76
44857	7	Sololá	710	Panajachel	8	Panajachel	6	Junio	2023-06-25T00:00:00	2024-11-08T08:00:00	6	Velocidad del viento	0
44858	7	Sololá	710	Panajachel	8	Panajachel	6	Junio	2023-06-25T00:00:00	2024-11-08T08:00:00	7	Dirección del viento	0
44859	7	Sololá	710	Panajachel	8	Panajachel	6	Junio	2023-06-25T00:00:00	2024-11-08T08:00:00	1	Precipitación	0
44860	7	Sololá	710	Panajachel	8	Panajachel	6	Junio	2023-06-25T00:00:00	2024-11-08T08:00:00	8	Radiación solar	323
44861	7	Sololá	710	Panajachel	8	Panajachel	6	Junio	2023-06-25T00:00:00	2024-11-08T09:00:00	2	Temperatura media	21.8
44862	7	Sololá	710	Panajachel	8	Panajachel	6	Junio	2023-06-25T00:00:00	2024-11-08T09:00:00	4	Temperatura máxima	21.8
44863	7	Sololá	710	Panajachel	8	Panajachel	6	Junio	2023-06-25T00:00:00	2024-11-08T09:00:00	3	Temperatura mínima	20.8
44864	7	Sololá	710	Panajachel	8	Panajachel	6	Junio	2023-06-25T00:00:00	2024-11-08T09:00:00	5	Humedad	75
44865	7	Sololá	710	Panajachel	8	Panajachel	6	Junio	2023-06-25T00:00:00	2024-11-08T09:00:00	6	Velocidad del viento	0
44866	7	Sololá	710	Panajachel	8	Panajachel	6	Junio	2023-06-25T00:00:00	2024-11-08T09:00:00	7	Dirección del viento	0
44867	7	Sololá	710	Panajachel	8	Panajachel	6	Junio	2023-06-25T00:00:00	2024-11-08T09:00:00	1	Precipitación	0.2
44868	7	Sololá	710	Panajachel	8	Panajachel	6	Junio	2023-06-25T00:00:00	2024-11-08T09:00:00	8	Radiación solar	505
44869	7	Sololá	710	Panajachel	8	Panajachel	6	Junio	2023-06-25T00:00:00	2024-11-08T10:00:00	2	Temperatura media	22.9
44870	7	Sololá	710	Panajachel	8	Panajachel	6	Junio	2023-06-25T00:00:00	2024-11-08T10:00:00	4	Temperatura máxima	22.9
44871	7	Sololá	710	Panajachel	8	Panajachel	6	Junio	2023-06-25T00:00:00	2024-11-08T10:00:00	3	Temperatura mínima	21.8
44872	7	Sololá	710	Panajachel	8	Panajachel	6	Junio	2023-06-25T00:00:00	2024-11-08T10:00:00	5	Humedad	72
44873	7	Sololá	710	Panajachel	8	Panajachel	6	Junio	2023-06-25T00:00:00	2024-11-08T10:00:00	6	Velocidad del viento	0
44874	7	Sololá	710	Panajachel	8	Panajachel	6	Junio	2023-06-25T00:00:00	2024-11-08T10:00:00	7	Dirección del viento	0
44875	7	Sololá	710	Panajachel	8	Panajachel	6	Junio	2023-06-25T00:00:00	2024-11-08T10:00:00	1	Precipitación	0
44876	7	Sololá	710	Panajachel	8	Panajachel	6	Junio	2023-06-25T00:00:00	2024-11-08T10:00:00	8	Radiación solar	637
44877	7	Sololá	710	Panajachel	8	Panajachel	6	Junio	2023-06-25T00:00:00	2024-11-08T11:00:00	2	Temperatura media	24.4
44878	7	Sololá	710	Panajachel	8	Panajachel	6	Junio	2023-06-25T00:00:00	2024-11-08T11:00:00	4	Temperatura máxima	24.4
44879	7	Sololá	710	Panajachel	8	Panajachel	6	Junio	2023-06-25T00:00:00	2024-11-08T11:00:00	3	Temperatura mínima	23
44880	7	Sololá	710	Panajachel	8	Panajachel	6	Junio	2023-06-25T00:00:00	2024-11-08T11:00:00	5	Humedad	64
44881	7	Sololá	710	Panajachel	8	Panajachel	6	Junio	2023-06-25T00:00:00	2024-11-08T11:00:00	6	Velocidad del viento	0
44882	7	Sololá	710	Panajachel	8	Panajachel	6	Junio	2023-06-25T00:00:00	2024-11-08T11:00:00	7	Dirección del viento	0
44883	7	Sololá	710	Panajachel	8	Panajachel	6	Junio	2023-06-25T00:00:00	2024-11-08T11:00:00	1	Precipitación	0
44884	7	Sololá	710	Panajachel	8	Panajachel	6	Junio	2023-06-25T00:00:00	2024-11-08T11:00:00	8	Radiación solar	707
44885	7	Sololá	710	Panajachel	8	Panajachel	6	Junio	2023-06-25T00:00:00	2024-11-08T12:00:00	2	Temperatura media	26
44886	7	Sololá	710	Panajachel	8	Panajachel	6	Junio	2023-06-25T00:00:00	2024-11-08T12:00:00	4	Temperatura máxima	26.3
44887	7	Sololá	710	Panajachel	8	Panajachel	6	Junio	2023-06-25T00:00:00	2024-11-08T12:00:00	3	Temperatura mínima	24.4
44888	7	Sololá	710	Panajachel	8	Panajachel	6	Junio	2023-06-25T00:00:00	2024-11-08T12:00:00	5	Humedad	52
44889	7	Sololá	710	Panajachel	8	Panajachel	6	Junio	2023-06-25T00:00:00	2024-11-08T12:00:00	6	Velocidad del viento	0
44890	7	Sololá	710	Panajachel	8	Panajachel	6	Junio	2023-06-25T00:00:00	2024-11-08T12:00:00	7	Dirección del viento	0
44891	7	Sololá	710	Panajachel	8	Panajachel	6	Junio	2023-06-25T00:00:00	2024-11-08T12:00:00	1	Precipitación	0
44892	7	Sololá	710	Panajachel	8	Panajachel	6	Junio	2023-06-25T00:00:00	2024-11-08T12:00:00	8	Radiación solar	976
44893	7	Sololá	710	Panajachel	8	Panajachel	6	Junio	2023-06-25T00:00:00	2024-11-08T13:00:00	2	Temperatura media	27.3
44894	7	Sololá	710	Panajachel	8	Panajachel	6	Junio	2023-06-25T00:00:00	2024-11-08T13:00:00	4	Temperatura máxima	27.4
44895	7	Sololá	710	Panajachel	8	Panajachel	6	Junio	2023-06-25T00:00:00	2024-11-08T13:00:00	3	Temperatura mínima	26
44896	7	Sololá	710	Panajachel	8	Panajachel	6	Junio	2023-06-25T00:00:00	2024-11-08T13:00:00	5	Humedad	43
44897	7	Sololá	710	Panajachel	8	Panajachel	6	Junio	2023-06-25T00:00:00	2024-11-08T13:00:00	6	Velocidad del viento	1.6
44898	7	Sololá	710	Panajachel	8	Panajachel	6	Junio	2023-06-25T00:00:00	2024-11-08T13:00:00	7	Dirección del viento	1.61
44899	7	Sololá	710	Panajachel	8	Panajachel	6	Junio	2023-06-25T00:00:00	2024-11-08T13:00:00	1	Precipitación	0
44900	7	Sololá	710	Panajachel	8	Panajachel	6	Junio	2023-06-25T00:00:00	2024-11-08T13:00:00	8	Radiación solar	950
44901	7	Sololá	710	Panajachel	8	Panajachel	6	Junio	2023-06-25T00:00:00	2024-11-08T14:00:00	2	Temperatura media	28.2
44902	7	Sololá	710	Panajachel	8	Panajachel	6	Junio	2023-06-25T00:00:00	2024-11-08T14:00:00	4	Temperatura máxima	28.2
44903	7	Sololá	710	Panajachel	8	Panajachel	6	Junio	2023-06-25T00:00:00	2024-11-08T14:00:00	3	Temperatura mínima	27.1
44904	7	Sololá	710	Panajachel	8	Panajachel	6	Junio	2023-06-25T00:00:00	2024-11-08T14:00:00	5	Humedad	38
44905	7	Sololá	710	Panajachel	8	Panajachel	6	Junio	2023-06-25T00:00:00	2024-11-08T14:00:00	6	Velocidad del viento	4.8
44906	7	Sololá	710	Panajachel	8	Panajachel	6	Junio	2023-06-25T00:00:00	2024-11-08T14:00:00	7	Dirección del viento	4.83
44907	7	Sololá	710	Panajachel	8	Panajachel	6	Junio	2023-06-25T00:00:00	2024-11-08T14:00:00	1	Precipitación	0
44908	7	Sololá	710	Panajachel	8	Panajachel	6	Junio	2023-06-25T00:00:00	2024-11-08T14:00:00	8	Radiación solar	931
44909	7	Sololá	710	Panajachel	8	Panajachel	6	Junio	2023-06-25T00:00:00	2024-11-08T15:00:00	2	Temperatura media	28.3
44910	7	Sololá	710	Panajachel	8	Panajachel	6	Junio	2023-06-25T00:00:00	2024-11-08T15:00:00	4	Temperatura máxima	28.3
44911	7	Sololá	710	Panajachel	8	Panajachel	6	Junio	2023-06-25T00:00:00	2024-11-08T15:00:00	3	Temperatura mínima	27.6
44912	7	Sololá	710	Panajachel	8	Panajachel	6	Junio	2023-06-25T00:00:00	2024-11-08T15:00:00	5	Humedad	35
44913	7	Sololá	710	Panajachel	8	Panajachel	6	Junio	2023-06-25T00:00:00	2024-11-08T15:00:00	6	Velocidad del viento	3.2
44914	7	Sololá	710	Panajachel	8	Panajachel	6	Junio	2023-06-25T00:00:00	2024-11-08T15:00:00	7	Dirección del viento	3.22
44915	7	Sololá	710	Panajachel	8	Panajachel	6	Junio	2023-06-25T00:00:00	2024-11-08T15:00:00	1	Precipitación	0
44916	7	Sololá	710	Panajachel	8	Panajachel	6	Junio	2023-06-25T00:00:00	2024-11-08T15:00:00	8	Radiación solar	818
44917	7	Sololá	710	Panajachel	8	Panajachel	6	Junio	2023-06-25T00:00:00	2024-11-08T16:00:00	2	Temperatura media	24.2
44918	7	Sololá	710	Panajachel	8	Panajachel	6	Junio	2023-06-25T00:00:00	2024-11-08T16:00:00	4	Temperatura máxima	28.3
44919	7	Sololá	710	Panajachel	8	Panajachel	6	Junio	2023-06-25T00:00:00	2024-11-08T16:00:00	3	Temperatura mínima	24.2
44920	7	Sololá	710	Panajachel	8	Panajachel	6	Junio	2023-06-25T00:00:00	2024-11-08T16:00:00	5	Humedad	69
44921	7	Sololá	710	Panajachel	8	Panajachel	6	Junio	2023-06-25T00:00:00	2024-11-08T16:00:00	6	Velocidad del viento	3.2
44922	7	Sololá	710	Panajachel	8	Panajachel	6	Junio	2023-06-25T00:00:00	2024-11-08T16:00:00	7	Dirección del viento	3.22
44923	7	Sololá	710	Panajachel	8	Panajachel	6	Junio	2023-06-25T00:00:00	2024-11-08T16:00:00	1	Precipitación	0
44924	7	Sololá	710	Panajachel	8	Panajachel	6	Junio	2023-06-25T00:00:00	2024-11-08T16:00:00	8	Radiación solar	266
44925	7	Sololá	710	Panajachel	8	Panajachel	6	Junio	2023-06-25T00:00:00	2024-11-08T17:00:00	2	Temperatura media	23.8
44926	7	Sololá	710	Panajachel	8	Panajachel	6	Junio	2023-06-25T00:00:00	2024-11-08T17:00:00	4	Temperatura máxima	24.3
44927	7	Sololá	710	Panajachel	8	Panajachel	6	Junio	2023-06-25T00:00:00	2024-11-08T17:00:00	3	Temperatura mínima	23.7
44928	7	Sololá	710	Panajachel	8	Panajachel	6	Junio	2023-06-25T00:00:00	2024-11-08T17:00:00	5	Humedad	71
44929	7	Sololá	710	Panajachel	8	Panajachel	6	Junio	2023-06-25T00:00:00	2024-11-08T17:00:00	6	Velocidad del viento	8
44930	7	Sololá	710	Panajachel	8	Panajachel	6	Junio	2023-06-25T00:00:00	2024-11-08T17:00:00	7	Dirección del viento	8.05
44931	7	Sololá	710	Panajachel	8	Panajachel	6	Junio	2023-06-25T00:00:00	2024-11-08T17:00:00	1	Precipitación	0
44932	7	Sololá	710	Panajachel	8	Panajachel	6	Junio	2023-06-25T00:00:00	2024-11-08T17:00:00	8	Radiación solar	159
44933	7	Sololá	710	Panajachel	8	Panajachel	6	Junio	2023-06-25T00:00:00	2024-11-08T18:00:00	2	Temperatura media	22.9
44934	7	Sololá	710	Panajachel	8	Panajachel	6	Junio	2023-06-25T00:00:00	2024-11-08T18:00:00	4	Temperatura máxima	23.8
44935	7	Sololá	710	Panajachel	8	Panajachel	6	Junio	2023-06-25T00:00:00	2024-11-08T18:00:00	3	Temperatura mínima	22.7
44936	7	Sololá	710	Panajachel	8	Panajachel	6	Junio	2023-06-25T00:00:00	2024-11-08T18:00:00	5	Humedad	77
44937	7	Sololá	710	Panajachel	8	Panajachel	6	Junio	2023-06-25T00:00:00	2024-11-08T18:00:00	6	Velocidad del viento	8
44938	7	Sololá	710	Panajachel	8	Panajachel	6	Junio	2023-06-25T00:00:00	2024-11-08T18:00:00	7	Dirección del viento	8.05
44939	7	Sololá	710	Panajachel	8	Panajachel	6	Junio	2023-06-25T00:00:00	2024-11-08T18:00:00	1	Precipitación	0
44940	7	Sololá	710	Panajachel	8	Panajachel	6	Junio	2023-06-25T00:00:00	2024-11-08T18:00:00	8	Radiación solar	85
44941	7	Sololá	710	Panajachel	8	Panajachel	6	Junio	2023-06-25T00:00:00	2024-11-08T19:00:00	2	Temperatura media	22.1
44942	7	Sololá	710	Panajachel	8	Panajachel	6	Junio	2023-06-25T00:00:00	2024-11-08T19:00:00	4	Temperatura máxima	22.9
44943	7	Sololá	710	Panajachel	8	Panajachel	6	Junio	2023-06-25T00:00:00	2024-11-08T19:00:00	3	Temperatura mínima	22.1
44944	7	Sololá	710	Panajachel	8	Panajachel	6	Junio	2023-06-25T00:00:00	2024-11-08T19:00:00	5	Humedad	77
44945	7	Sololá	710	Panajachel	8	Panajachel	6	Junio	2023-06-25T00:00:00	2024-11-08T19:00:00	6	Velocidad del viento	0
44946	7	Sololá	710	Panajachel	8	Panajachel	6	Junio	2023-06-25T00:00:00	2024-11-08T19:00:00	7	Dirección del viento	0
44947	7	Sololá	710	Panajachel	8	Panajachel	6	Junio	2023-06-25T00:00:00	2024-11-08T19:00:00	1	Precipitación	0
44948	7	Sololá	710	Panajachel	8	Panajachel	6	Junio	2023-06-25T00:00:00	2024-11-08T19:00:00	8	Radiación solar	0
44949	7	Sololá	710	Panajachel	8	Panajachel	6	Junio	2023-06-25T00:00:00	2024-11-08T20:00:00	2	Temperatura media	20.8
44950	7	Sololá	710	Panajachel	8	Panajachel	6	Junio	2023-06-25T00:00:00	2024-11-08T20:00:00	4	Temperatura máxima	22.1
44951	7	Sololá	710	Panajachel	8	Panajachel	6	Junio	2023-06-25T00:00:00	2024-11-08T20:00:00	3	Temperatura mínima	20.8
44952	7	Sololá	710	Panajachel	8	Panajachel	6	Junio	2023-06-25T00:00:00	2024-11-08T20:00:00	5	Humedad	74
44953	7	Sololá	710	Panajachel	8	Panajachel	6	Junio	2023-06-25T00:00:00	2024-11-08T20:00:00	6	Velocidad del viento	0
44954	7	Sololá	710	Panajachel	8	Panajachel	6	Junio	2023-06-25T00:00:00	2024-11-08T20:00:00	7	Dirección del viento	0
44955	7	Sololá	710	Panajachel	8	Panajachel	6	Junio	2023-06-25T00:00:00	2024-11-08T20:00:00	1	Precipitación	0
44956	7	Sololá	710	Panajachel	8	Panajachel	6	Junio	2023-06-25T00:00:00	2024-11-08T20:00:00	8	Radiación solar	0
44957	7	Sololá	710	Panajachel	8	Panajachel	6	Junio	2023-06-25T00:00:00	2024-11-08T21:00:00	2	Temperatura media	21.3
44958	7	Sololá	710	Panajachel	8	Panajachel	6	Junio	2023-06-25T00:00:00	2024-11-08T21:00:00	4	Temperatura máxima	21.7
44959	7	Sololá	710	Panajachel	8	Panajachel	6	Junio	2023-06-25T00:00:00	2024-11-08T21:00:00	3	Temperatura mínima	20.6
44960	7	Sololá	710	Panajachel	8	Panajachel	6	Junio	2023-06-25T00:00:00	2024-11-08T21:00:00	5	Humedad	59
44961	7	Sololá	710	Panajachel	8	Panajachel	6	Junio	2023-06-25T00:00:00	2024-11-08T21:00:00	6	Velocidad del viento	4.8
44962	7	Sololá	710	Panajachel	8	Panajachel	6	Junio	2023-06-25T00:00:00	2024-11-08T21:00:00	7	Dirección del viento	4.83
44963	7	Sololá	710	Panajachel	8	Panajachel	6	Junio	2023-06-25T00:00:00	2024-11-08T21:00:00	1	Precipitación	0
44964	7	Sololá	710	Panajachel	8	Panajachel	6	Junio	2023-06-25T00:00:00	2024-11-08T21:00:00	8	Radiación solar	0
44965	7	Sololá	710	Panajachel	8	Panajachel	6	Junio	2023-06-25T00:00:00	2024-11-08T22:00:00	2	Temperatura media	20.2
44966	7	Sololá	710	Panajachel	8	Panajachel	6	Junio	2023-06-25T00:00:00	2024-11-08T22:00:00	4	Temperatura máxima	21.3
44967	7	Sololá	710	Panajachel	8	Panajachel	6	Junio	2023-06-25T00:00:00	2024-11-08T22:00:00	3	Temperatura mínima	20.2
44968	7	Sololá	710	Panajachel	8	Panajachel	6	Junio	2023-06-25T00:00:00	2024-11-08T22:00:00	5	Humedad	61
44969	7	Sololá	710	Panajachel	8	Panajachel	6	Junio	2023-06-25T00:00:00	2024-11-08T22:00:00	6	Velocidad del viento	4.8
44970	7	Sololá	710	Panajachel	8	Panajachel	6	Junio	2023-06-25T00:00:00	2024-11-08T22:00:00	7	Dirección del viento	4.83
44971	7	Sololá	710	Panajachel	8	Panajachel	6	Junio	2023-06-25T00:00:00	2024-11-08T22:00:00	1	Precipitación	0
44972	7	Sololá	710	Panajachel	8	Panajachel	6	Junio	2023-06-25T00:00:00	2024-11-08T22:00:00	8	Radiación solar	0
44973	7	Sololá	710	Panajachel	8	Panajachel	6	Junio	2023-06-25T00:00:00	2024-11-08T23:00:00	2	Temperatura media	19.7
44974	7	Sololá	710	Panajachel	8	Panajachel	6	Junio	2023-06-25T00:00:00	2024-11-08T23:00:00	4	Temperatura máxima	20.2
44975	7	Sololá	710	Panajachel	8	Panajachel	6	Junio	2023-06-25T00:00:00	2024-11-08T23:00:00	3	Temperatura mínima	18.9
44976	7	Sololá	710	Panajachel	8	Panajachel	6	Junio	2023-06-25T00:00:00	2024-11-08T23:00:00	5	Humedad	64
44977	7	Sololá	710	Panajachel	8	Panajachel	6	Junio	2023-06-25T00:00:00	2024-11-08T23:00:00	6	Velocidad del viento	1.6
44978	7	Sololá	710	Panajachel	8	Panajachel	6	Junio	2023-06-25T00:00:00	2024-11-08T23:00:00	7	Dirección del viento	1.61
44979	7	Sololá	710	Panajachel	8	Panajachel	6	Junio	2023-06-25T00:00:00	2024-11-08T23:00:00	1	Precipitación	0
44980	7	Sololá	710	Panajachel	8	Panajachel	6	Junio	2023-06-25T00:00:00	2024-11-08T23:00:00	8	Radiación solar	0
44981	7	Sololá	710	Panajachel	8	Panajachel	6	Junio	2023-06-26T00:00:00	2024-11-08T00:00:00	2	Temperatura media	20.7
44982	7	Sololá	710	Panajachel	8	Panajachel	6	Junio	2023-06-26T00:00:00	2024-11-08T00:00:00	4	Temperatura máxima	20.9
44983	7	Sololá	710	Panajachel	8	Panajachel	6	Junio	2023-06-26T00:00:00	2024-11-08T00:00:00	3	Temperatura mínima	18.8
44984	7	Sololá	710	Panajachel	8	Panajachel	6	Junio	2023-06-26T00:00:00	2024-11-08T00:00:00	5	Humedad	61
44985	7	Sololá	710	Panajachel	8	Panajachel	6	Junio	2023-06-26T00:00:00	2024-11-08T00:00:00	6	Velocidad del viento	11.3
44986	7	Sololá	710	Panajachel	8	Panajachel	6	Junio	2023-06-26T00:00:00	2024-11-08T00:00:00	7	Dirección del viento	11.27
44987	7	Sololá	710	Panajachel	8	Panajachel	6	Junio	2023-06-26T00:00:00	2024-11-08T00:00:00	1	Precipitación	0
44988	7	Sololá	710	Panajachel	8	Panajachel	6	Junio	2023-06-26T00:00:00	2024-11-08T00:00:00	8	Radiación solar	0
44989	7	Sololá	710	Panajachel	8	Panajachel	6	Junio	2023-06-26T00:00:00	2024-11-08T01:00:00	2	Temperatura media	20.4
44990	7	Sololá	710	Panajachel	8	Panajachel	6	Junio	2023-06-26T00:00:00	2024-11-08T01:00:00	4	Temperatura máxima	20.7
44991	7	Sololá	710	Panajachel	8	Panajachel	6	Junio	2023-06-26T00:00:00	2024-11-08T01:00:00	3	Temperatura mínima	20.3
44992	7	Sololá	710	Panajachel	8	Panajachel	6	Junio	2023-06-26T00:00:00	2024-11-08T01:00:00	5	Humedad	63
44993	7	Sololá	710	Panajachel	8	Panajachel	6	Junio	2023-06-26T00:00:00	2024-11-08T01:00:00	6	Velocidad del viento	9.7
44994	7	Sololá	710	Panajachel	8	Panajachel	6	Junio	2023-06-26T00:00:00	2024-11-08T01:00:00	7	Dirección del viento	9.66
44995	7	Sololá	710	Panajachel	8	Panajachel	6	Junio	2023-06-26T00:00:00	2024-11-08T01:00:00	1	Precipitación	0
44996	7	Sololá	710	Panajachel	8	Panajachel	6	Junio	2023-06-26T00:00:00	2024-11-08T01:00:00	8	Radiación solar	0
44997	7	Sololá	710	Panajachel	8	Panajachel	6	Junio	2023-06-26T00:00:00	2024-11-08T02:00:00	2	Temperatura media	19.2
44998	7	Sololá	710	Panajachel	8	Panajachel	6	Junio	2023-06-26T00:00:00	2024-11-08T02:00:00	4	Temperatura máxima	20.4
44999	7	Sololá	710	Panajachel	8	Panajachel	6	Junio	2023-06-26T00:00:00	2024-11-08T02:00:00	3	Temperatura mínima	18.9
45000	7	Sololá	710	Panajachel	8	Panajachel	6	Junio	2023-06-26T00:00:00	2024-11-08T02:00:00	5	Humedad	69
45001	7	Sololá	710	Panajachel	8	Panajachel	6	Junio	2023-06-26T00:00:00	2024-11-08T02:00:00	6	Velocidad del viento	0
45002	7	Sololá	710	Panajachel	8	Panajachel	6	Junio	2023-06-26T00:00:00	2024-11-08T02:00:00	7	Dirección del viento	0
45003	7	Sololá	710	Panajachel	8	Panajachel	6	Junio	2023-06-26T00:00:00	2024-11-08T02:00:00	1	Precipitación	0
45004	7	Sololá	710	Panajachel	8	Panajachel	6	Junio	2023-06-26T00:00:00	2024-11-08T02:00:00	8	Radiación solar	0
45005	7	Sololá	710	Panajachel	8	Panajachel	6	Junio	2023-06-26T00:00:00	2024-11-08T03:00:00	2	Temperatura media	19.3
45006	7	Sololá	710	Panajachel	8	Panajachel	6	Junio	2023-06-26T00:00:00	2024-11-08T03:00:00	4	Temperatura máxima	19.7
45007	7	Sololá	710	Panajachel	8	Panajachel	6	Junio	2023-06-26T00:00:00	2024-11-08T03:00:00	3	Temperatura mínima	19.1
45008	7	Sololá	710	Panajachel	8	Panajachel	6	Junio	2023-06-26T00:00:00	2024-11-08T03:00:00	5	Humedad	63
45009	7	Sololá	710	Panajachel	8	Panajachel	6	Junio	2023-06-26T00:00:00	2024-11-08T03:00:00	6	Velocidad del viento	0
45010	7	Sololá	710	Panajachel	8	Panajachel	6	Junio	2023-06-26T00:00:00	2024-11-08T03:00:00	7	Dirección del viento	0
45011	7	Sololá	710	Panajachel	8	Panajachel	6	Junio	2023-06-26T00:00:00	2024-11-08T03:00:00	1	Precipitación	0
45012	7	Sololá	710	Panajachel	8	Panajachel	6	Junio	2023-06-26T00:00:00	2024-11-08T03:00:00	8	Radiación solar	0
45013	7	Sololá	710	Panajachel	8	Panajachel	6	Junio	2023-06-26T00:00:00	2024-11-08T04:00:00	2	Temperatura media	18.7
45014	7	Sololá	710	Panajachel	8	Panajachel	6	Junio	2023-06-26T00:00:00	2024-11-08T04:00:00	4	Temperatura máxima	19.9
45015	7	Sololá	710	Panajachel	8	Panajachel	6	Junio	2023-06-26T00:00:00	2024-11-08T04:00:00	3	Temperatura mínima	18.7
45016	7	Sololá	710	Panajachel	8	Panajachel	6	Junio	2023-06-26T00:00:00	2024-11-08T04:00:00	5	Humedad	68
45017	7	Sololá	710	Panajachel	8	Panajachel	6	Junio	2023-06-26T00:00:00	2024-11-08T04:00:00	6	Velocidad del viento	0
45018	7	Sololá	710	Panajachel	8	Panajachel	6	Junio	2023-06-26T00:00:00	2024-11-08T04:00:00	7	Dirección del viento	0
45019	7	Sololá	710	Panajachel	8	Panajachel	6	Junio	2023-06-26T00:00:00	2024-11-08T04:00:00	1	Precipitación	0
45020	7	Sololá	710	Panajachel	8	Panajachel	6	Junio	2023-06-26T00:00:00	2024-11-08T04:00:00	8	Radiación solar	0
45021	7	Sololá	710	Panajachel	8	Panajachel	6	Junio	2023-06-26T00:00:00	2024-11-08T05:00:00	2	Temperatura media	19.3
45022	7	Sololá	710	Panajachel	8	Panajachel	6	Junio	2023-06-26T00:00:00	2024-11-08T05:00:00	4	Temperatura máxima	19.8
45023	7	Sololá	710	Panajachel	8	Panajachel	6	Junio	2023-06-26T00:00:00	2024-11-08T05:00:00	3	Temperatura mínima	18.7
45024	7	Sololá	710	Panajachel	8	Panajachel	6	Junio	2023-06-26T00:00:00	2024-11-08T05:00:00	5	Humedad	53
45025	7	Sololá	710	Panajachel	8	Panajachel	6	Junio	2023-06-26T00:00:00	2024-11-08T05:00:00	6	Velocidad del viento	0
45026	7	Sololá	710	Panajachel	8	Panajachel	6	Junio	2023-06-26T00:00:00	2024-11-08T05:00:00	7	Dirección del viento	0
45027	7	Sololá	710	Panajachel	8	Panajachel	6	Junio	2023-06-26T00:00:00	2024-11-08T05:00:00	1	Precipitación	0
45028	7	Sololá	710	Panajachel	8	Panajachel	6	Junio	2023-06-26T00:00:00	2024-11-08T05:00:00	8	Radiación solar	0
45029	7	Sololá	710	Panajachel	8	Panajachel	6	Junio	2023-06-26T00:00:00	2024-11-08T06:00:00	2	Temperatura media	18
45030	7	Sololá	710	Panajachel	8	Panajachel	6	Junio	2023-06-26T00:00:00	2024-11-08T06:00:00	4	Temperatura máxima	19.3
45031	7	Sololá	710	Panajachel	8	Panajachel	6	Junio	2023-06-26T00:00:00	2024-11-08T06:00:00	3	Temperatura mínima	17.9
45032	7	Sololá	710	Panajachel	8	Panajachel	6	Junio	2023-06-26T00:00:00	2024-11-08T06:00:00	5	Humedad	59
45033	7	Sololá	710	Panajachel	8	Panajachel	6	Junio	2023-06-26T00:00:00	2024-11-08T06:00:00	6	Velocidad del viento	0
45034	7	Sololá	710	Panajachel	8	Panajachel	6	Junio	2023-06-26T00:00:00	2024-11-08T06:00:00	7	Dirección del viento	0
45035	7	Sololá	710	Panajachel	8	Panajachel	6	Junio	2023-06-26T00:00:00	2024-11-08T06:00:00	1	Precipitación	0
45036	7	Sololá	710	Panajachel	8	Panajachel	6	Junio	2023-06-26T00:00:00	2024-11-08T06:00:00	8	Radiación solar	4
45037	7	Sololá	710	Panajachel	8	Panajachel	6	Junio	2023-06-26T00:00:00	2024-11-08T07:00:00	2	Temperatura media	18.7
45038	7	Sololá	710	Panajachel	8	Panajachel	6	Junio	2023-06-26T00:00:00	2024-11-08T07:00:00	4	Temperatura máxima	19.6
45039	7	Sololá	710	Panajachel	8	Panajachel	6	Junio	2023-06-26T00:00:00	2024-11-08T07:00:00	3	Temperatura mínima	17.9
45040	7	Sololá	710	Panajachel	8	Panajachel	6	Junio	2023-06-26T00:00:00	2024-11-08T07:00:00	5	Humedad	63
45041	7	Sololá	710	Panajachel	8	Panajachel	6	Junio	2023-06-26T00:00:00	2024-11-08T07:00:00	6	Velocidad del viento	0
45042	7	Sololá	710	Panajachel	8	Panajachel	6	Junio	2023-06-26T00:00:00	2024-11-08T07:00:00	7	Dirección del viento	0
45043	7	Sololá	710	Panajachel	8	Panajachel	6	Junio	2023-06-26T00:00:00	2024-11-08T07:00:00	1	Precipitación	0
45044	7	Sololá	710	Panajachel	8	Panajachel	6	Junio	2023-06-26T00:00:00	2024-11-08T07:00:00	8	Radiación solar	43
45045	7	Sololá	710	Panajachel	8	Panajachel	6	Junio	2023-06-26T00:00:00	2024-11-08T08:00:00	2	Temperatura media	20.9
45046	7	Sololá	710	Panajachel	8	Panajachel	6	Junio	2023-06-26T00:00:00	2024-11-08T08:00:00	4	Temperatura máxima	21
45047	7	Sololá	710	Panajachel	8	Panajachel	6	Junio	2023-06-26T00:00:00	2024-11-08T08:00:00	3	Temperatura mínima	18.6
45048	7	Sololá	710	Panajachel	8	Panajachel	6	Junio	2023-06-26T00:00:00	2024-11-08T08:00:00	5	Humedad	61
45049	7	Sololá	710	Panajachel	8	Panajachel	6	Junio	2023-06-26T00:00:00	2024-11-08T08:00:00	6	Velocidad del viento	0
45050	7	Sololá	710	Panajachel	8	Panajachel	6	Junio	2023-06-26T00:00:00	2024-11-08T08:00:00	7	Dirección del viento	0
45051	7	Sololá	710	Panajachel	8	Panajachel	6	Junio	2023-06-26T00:00:00	2024-11-08T08:00:00	1	Precipitación	0
45052	7	Sololá	710	Panajachel	8	Panajachel	6	Junio	2023-06-26T00:00:00	2024-11-08T08:00:00	8	Radiación solar	170
45053	7	Sololá	710	Panajachel	8	Panajachel	6	Junio	2023-06-26T00:00:00	2024-11-08T09:00:00	2	Temperatura media	22.8
45054	7	Sololá	710	Panajachel	8	Panajachel	6	Junio	2023-06-26T00:00:00	2024-11-08T09:00:00	4	Temperatura máxima	22.8
45055	7	Sololá	710	Panajachel	8	Panajachel	6	Junio	2023-06-26T00:00:00	2024-11-08T09:00:00	3	Temperatura mínima	21
45056	7	Sololá	710	Panajachel	8	Panajachel	6	Junio	2023-06-26T00:00:00	2024-11-08T09:00:00	5	Humedad	60
45057	7	Sololá	710	Panajachel	8	Panajachel	6	Junio	2023-06-26T00:00:00	2024-11-08T09:00:00	6	Velocidad del viento	0
45058	7	Sololá	710	Panajachel	8	Panajachel	6	Junio	2023-06-26T00:00:00	2024-11-08T09:00:00	7	Dirección del viento	0
45059	7	Sololá	710	Panajachel	8	Panajachel	6	Junio	2023-06-26T00:00:00	2024-11-08T09:00:00	1	Precipitación	0
45060	7	Sololá	710	Panajachel	8	Panajachel	6	Junio	2023-06-26T00:00:00	2024-11-08T09:00:00	8	Radiación solar	254
45061	7	Sololá	710	Panajachel	8	Panajachel	6	Junio	2023-06-26T00:00:00	2024-11-08T10:00:00	2	Temperatura media	23.9
45062	7	Sololá	710	Panajachel	8	Panajachel	6	Junio	2023-06-26T00:00:00	2024-11-08T10:00:00	4	Temperatura máxima	23.9
45063	7	Sololá	710	Panajachel	8	Panajachel	6	Junio	2023-06-26T00:00:00	2024-11-08T10:00:00	3	Temperatura mínima	22.4
45064	7	Sololá	710	Panajachel	8	Panajachel	6	Junio	2023-06-26T00:00:00	2024-11-08T10:00:00	5	Humedad	58
45065	7	Sololá	710	Panajachel	8	Panajachel	6	Junio	2023-06-26T00:00:00	2024-11-08T10:00:00	6	Velocidad del viento	0
45066	7	Sololá	710	Panajachel	8	Panajachel	6	Junio	2023-06-26T00:00:00	2024-11-08T10:00:00	7	Dirección del viento	0
45067	7	Sololá	710	Panajachel	8	Panajachel	6	Junio	2023-06-26T00:00:00	2024-11-08T10:00:00	1	Precipitación	0
45068	7	Sololá	710	Panajachel	8	Panajachel	6	Junio	2023-06-26T00:00:00	2024-11-08T10:00:00	8	Radiación solar	490
45069	7	Sololá	710	Panajachel	8	Panajachel	6	Junio	2023-06-26T00:00:00	2024-11-08T11:00:00	2	Temperatura media	25.3
45070	7	Sololá	710	Panajachel	8	Panajachel	6	Junio	2023-06-26T00:00:00	2024-11-08T11:00:00	4	Temperatura máxima	25.4
45071	7	Sololá	710	Panajachel	8	Panajachel	6	Junio	2023-06-26T00:00:00	2024-11-08T11:00:00	3	Temperatura mínima	23.9
45072	7	Sololá	710	Panajachel	8	Panajachel	6	Junio	2023-06-26T00:00:00	2024-11-08T11:00:00	5	Humedad	59
45073	7	Sololá	710	Panajachel	8	Panajachel	6	Junio	2023-06-26T00:00:00	2024-11-08T11:00:00	6	Velocidad del viento	0
45074	7	Sololá	710	Panajachel	8	Panajachel	6	Junio	2023-06-26T00:00:00	2024-11-08T11:00:00	7	Dirección del viento	0
45075	7	Sololá	710	Panajachel	8	Panajachel	6	Junio	2023-06-26T00:00:00	2024-11-08T11:00:00	1	Precipitación	0
45076	7	Sololá	710	Panajachel	8	Panajachel	6	Junio	2023-06-26T00:00:00	2024-11-08T11:00:00	8	Radiación solar	957
45077	7	Sololá	710	Panajachel	8	Panajachel	6	Junio	2023-06-26T00:00:00	2024-11-08T12:00:00	2	Temperatura media	24.9
45078	7	Sololá	710	Panajachel	8	Panajachel	6	Junio	2023-06-26T00:00:00	2024-11-08T12:00:00	4	Temperatura máxima	25.3
45079	7	Sololá	710	Panajachel	8	Panajachel	6	Junio	2023-06-26T00:00:00	2024-11-08T12:00:00	3	Temperatura mínima	23.7
45080	7	Sololá	710	Panajachel	8	Panajachel	6	Junio	2023-06-26T00:00:00	2024-11-08T12:00:00	5	Humedad	61
45081	7	Sololá	710	Panajachel	8	Panajachel	6	Junio	2023-06-26T00:00:00	2024-11-08T12:00:00	6	Velocidad del viento	1.6
45082	7	Sololá	710	Panajachel	8	Panajachel	6	Junio	2023-06-26T00:00:00	2024-11-08T12:00:00	7	Dirección del viento	1.61
45083	7	Sololá	710	Panajachel	8	Panajachel	6	Junio	2023-06-26T00:00:00	2024-11-08T12:00:00	1	Precipitación	0
45084	7	Sololá	710	Panajachel	8	Panajachel	6	Junio	2023-06-26T00:00:00	2024-11-08T12:00:00	8	Radiación solar	656
45085	7	Sololá	710	Panajachel	8	Panajachel	6	Junio	2023-06-26T00:00:00	2024-11-08T13:00:00	2	Temperatura media	26.8
45086	7	Sololá	710	Panajachel	8	Panajachel	6	Junio	2023-06-26T00:00:00	2024-11-08T13:00:00	4	Temperatura máxima	26.9
45087	7	Sololá	710	Panajachel	8	Panajachel	6	Junio	2023-06-26T00:00:00	2024-11-08T13:00:00	3	Temperatura mínima	24.9
45088	7	Sololá	710	Panajachel	8	Panajachel	6	Junio	2023-06-26T00:00:00	2024-11-08T13:00:00	5	Humedad	57
45089	7	Sololá	710	Panajachel	8	Panajachel	6	Junio	2023-06-26T00:00:00	2024-11-08T13:00:00	6	Velocidad del viento	0
45090	7	Sololá	710	Panajachel	8	Panajachel	6	Junio	2023-06-26T00:00:00	2024-11-08T13:00:00	7	Dirección del viento	0
45091	7	Sololá	710	Panajachel	8	Panajachel	6	Junio	2023-06-26T00:00:00	2024-11-08T13:00:00	1	Precipitación	0
45092	7	Sololá	710	Panajachel	8	Panajachel	6	Junio	2023-06-26T00:00:00	2024-11-08T13:00:00	8	Radiación solar	551
45093	7	Sololá	710	Panajachel	8	Panajachel	6	Junio	2023-06-26T00:00:00	2024-11-08T14:00:00	2	Temperatura media	26.9
45094	7	Sololá	710	Panajachel	8	Panajachel	6	Junio	2023-06-26T00:00:00	2024-11-08T14:00:00	4	Temperatura máxima	26.9
45095	7	Sololá	710	Panajachel	8	Panajachel	6	Junio	2023-06-26T00:00:00	2024-11-08T14:00:00	3	Temperatura mínima	26.3
45096	7	Sololá	710	Panajachel	8	Panajachel	6	Junio	2023-06-26T00:00:00	2024-11-08T14:00:00	5	Humedad	51
45097	7	Sololá	710	Panajachel	8	Panajachel	6	Junio	2023-06-26T00:00:00	2024-11-08T14:00:00	6	Velocidad del viento	1.6
45098	7	Sololá	710	Panajachel	8	Panajachel	6	Junio	2023-06-26T00:00:00	2024-11-08T14:00:00	7	Dirección del viento	1.61
45099	7	Sololá	710	Panajachel	8	Panajachel	6	Junio	2023-06-26T00:00:00	2024-11-08T14:00:00	1	Precipitación	0
45100	7	Sololá	710	Panajachel	8	Panajachel	6	Junio	2023-06-26T00:00:00	2024-11-08T14:00:00	8	Radiación solar	319
45101	7	Sololá	710	Panajachel	8	Panajachel	6	Junio	2023-06-26T00:00:00	2024-11-08T15:00:00	2	Temperatura media	26.7
45102	7	Sololá	710	Panajachel	8	Panajachel	6	Junio	2023-06-26T00:00:00	2024-11-08T15:00:00	4	Temperatura máxima	27
45103	7	Sololá	710	Panajachel	8	Panajachel	6	Junio	2023-06-26T00:00:00	2024-11-08T15:00:00	3	Temperatura mínima	26.4
45104	7	Sololá	710	Panajachel	8	Panajachel	6	Junio	2023-06-26T00:00:00	2024-11-08T15:00:00	5	Humedad	51
45105	7	Sololá	710	Panajachel	8	Panajachel	6	Junio	2023-06-26T00:00:00	2024-11-08T15:00:00	6	Velocidad del viento	1.6
45106	7	Sololá	710	Panajachel	8	Panajachel	6	Junio	2023-06-26T00:00:00	2024-11-08T15:00:00	7	Dirección del viento	1.61
45107	7	Sololá	710	Panajachel	8	Panajachel	6	Junio	2023-06-26T00:00:00	2024-11-08T15:00:00	1	Precipitación	0
45108	7	Sololá	710	Panajachel	8	Panajachel	6	Junio	2023-06-26T00:00:00	2024-11-08T15:00:00	8	Radiación solar	244
45109	7	Sololá	710	Panajachel	8	Panajachel	6	Junio	2023-06-26T00:00:00	2024-11-08T16:00:00	2	Temperatura media	26.9
45110	7	Sololá	710	Panajachel	8	Panajachel	6	Junio	2023-06-26T00:00:00	2024-11-08T16:00:00	4	Temperatura máxima	27.4
45111	7	Sololá	710	Panajachel	8	Panajachel	6	Junio	2023-06-26T00:00:00	2024-11-08T16:00:00	3	Temperatura mínima	26.6
45112	7	Sololá	710	Panajachel	8	Panajachel	6	Junio	2023-06-26T00:00:00	2024-11-08T16:00:00	5	Humedad	65
45113	7	Sololá	710	Panajachel	8	Panajachel	6	Junio	2023-06-26T00:00:00	2024-11-08T16:00:00	6	Velocidad del viento	1.6
45114	7	Sololá	710	Panajachel	8	Panajachel	6	Junio	2023-06-26T00:00:00	2024-11-08T16:00:00	7	Dirección del viento	1.61
45115	7	Sololá	710	Panajachel	8	Panajachel	6	Junio	2023-06-26T00:00:00	2024-11-08T16:00:00	1	Precipitación	0
45116	7	Sololá	710	Panajachel	8	Panajachel	6	Junio	2023-06-26T00:00:00	2024-11-08T16:00:00	8	Radiación solar	279
45117	7	Sololá	710	Panajachel	8	Panajachel	6	Junio	2023-06-26T00:00:00	2024-11-08T17:00:00	2	Temperatura media	23.8
45118	7	Sololá	710	Panajachel	8	Panajachel	6	Junio	2023-06-26T00:00:00	2024-11-08T17:00:00	4	Temperatura máxima	26.9
45119	7	Sololá	710	Panajachel	8	Panajachel	6	Junio	2023-06-26T00:00:00	2024-11-08T17:00:00	3	Temperatura mínima	23.7
45120	7	Sololá	710	Panajachel	8	Panajachel	6	Junio	2023-06-26T00:00:00	2024-11-08T17:00:00	5	Humedad	82
45121	7	Sololá	710	Panajachel	8	Panajachel	6	Junio	2023-06-26T00:00:00	2024-11-08T17:00:00	6	Velocidad del viento	1.6
45122	7	Sololá	710	Panajachel	8	Panajachel	6	Junio	2023-06-26T00:00:00	2024-11-08T17:00:00	7	Dirección del viento	1.61
45123	7	Sololá	710	Panajachel	8	Panajachel	6	Junio	2023-06-26T00:00:00	2024-11-08T17:00:00	1	Precipitación	0
45124	7	Sololá	710	Panajachel	8	Panajachel	6	Junio	2023-06-26T00:00:00	2024-11-08T17:00:00	8	Radiación solar	135
45125	7	Sololá	710	Panajachel	8	Panajachel	6	Junio	2023-06-26T00:00:00	2024-11-08T18:00:00	2	Temperatura media	22.6
45126	7	Sololá	710	Panajachel	8	Panajachel	6	Junio	2023-06-26T00:00:00	2024-11-08T18:00:00	4	Temperatura máxima	23.7
45127	7	Sololá	710	Panajachel	8	Panajachel	6	Junio	2023-06-26T00:00:00	2024-11-08T18:00:00	3	Temperatura mínima	22.6
45128	7	Sololá	710	Panajachel	8	Panajachel	6	Junio	2023-06-26T00:00:00	2024-11-08T18:00:00	5	Humedad	85
45129	7	Sololá	710	Panajachel	8	Panajachel	6	Junio	2023-06-26T00:00:00	2024-11-08T18:00:00	6	Velocidad del viento	1.6
45130	7	Sololá	710	Panajachel	8	Panajachel	6	Junio	2023-06-26T00:00:00	2024-11-08T18:00:00	7	Dirección del viento	1.61
45131	7	Sololá	710	Panajachel	8	Panajachel	6	Junio	2023-06-26T00:00:00	2024-11-08T18:00:00	1	Precipitación	0
45132	7	Sololá	710	Panajachel	8	Panajachel	6	Junio	2023-06-26T00:00:00	2024-11-08T18:00:00	8	Radiación solar	95
45133	7	Sololá	710	Panajachel	8	Panajachel	6	Junio	2023-06-26T00:00:00	2024-11-08T19:00:00	2	Temperatura media	21.6
45134	7	Sololá	710	Panajachel	8	Panajachel	6	Junio	2023-06-26T00:00:00	2024-11-08T19:00:00	4	Temperatura máxima	22.6
45135	7	Sololá	710	Panajachel	8	Panajachel	6	Junio	2023-06-26T00:00:00	2024-11-08T19:00:00	3	Temperatura mínima	21.6
45136	7	Sololá	710	Panajachel	8	Panajachel	6	Junio	2023-06-26T00:00:00	2024-11-08T19:00:00	5	Humedad	85
45137	7	Sololá	710	Panajachel	8	Panajachel	6	Junio	2023-06-26T00:00:00	2024-11-08T19:00:00	6	Velocidad del viento	0
45138	7	Sololá	710	Panajachel	8	Panajachel	6	Junio	2023-06-26T00:00:00	2024-11-08T19:00:00	7	Dirección del viento	0
45139	7	Sololá	710	Panajachel	8	Panajachel	6	Junio	2023-06-26T00:00:00	2024-11-08T19:00:00	1	Precipitación	0
45140	7	Sololá	710	Panajachel	8	Panajachel	6	Junio	2023-06-26T00:00:00	2024-11-08T19:00:00	8	Radiación solar	0
45141	7	Sololá	710	Panajachel	8	Panajachel	6	Junio	2023-06-26T00:00:00	2024-11-08T20:00:00	2	Temperatura media	20.9
45142	7	Sololá	710	Panajachel	8	Panajachel	6	Junio	2023-06-26T00:00:00	2024-11-08T20:00:00	4	Temperatura máxima	21.6
45143	7	Sololá	710	Panajachel	8	Panajachel	6	Junio	2023-06-26T00:00:00	2024-11-08T20:00:00	3	Temperatura mínima	20.9
45144	7	Sololá	710	Panajachel	8	Panajachel	6	Junio	2023-06-26T00:00:00	2024-11-08T20:00:00	5	Humedad	89
45145	7	Sololá	710	Panajachel	8	Panajachel	6	Junio	2023-06-26T00:00:00	2024-11-08T20:00:00	6	Velocidad del viento	0
45146	7	Sololá	710	Panajachel	8	Panajachel	6	Junio	2023-06-26T00:00:00	2024-11-08T20:00:00	7	Dirección del viento	0
45147	7	Sololá	710	Panajachel	8	Panajachel	6	Junio	2023-06-26T00:00:00	2024-11-08T20:00:00	1	Precipitación	0
45148	7	Sololá	710	Panajachel	8	Panajachel	6	Junio	2023-06-26T00:00:00	2024-11-08T20:00:00	8	Radiación solar	0
45149	7	Sololá	710	Panajachel	8	Panajachel	6	Junio	2023-06-26T00:00:00	2024-11-08T21:00:00	2	Temperatura media	20.5
45150	7	Sololá	710	Panajachel	8	Panajachel	6	Junio	2023-06-26T00:00:00	2024-11-08T21:00:00	4	Temperatura máxima	20.9
45151	7	Sololá	710	Panajachel	8	Panajachel	6	Junio	2023-06-26T00:00:00	2024-11-08T21:00:00	3	Temperatura mínima	20.5
45152	7	Sololá	710	Panajachel	8	Panajachel	6	Junio	2023-06-26T00:00:00	2024-11-08T21:00:00	5	Humedad	89
45153	7	Sololá	710	Panajachel	8	Panajachel	6	Junio	2023-06-26T00:00:00	2024-11-08T21:00:00	6	Velocidad del viento	0
45154	7	Sololá	710	Panajachel	8	Panajachel	6	Junio	2023-06-26T00:00:00	2024-11-08T21:00:00	7	Dirección del viento	0
45155	7	Sololá	710	Panajachel	8	Panajachel	6	Junio	2023-06-26T00:00:00	2024-11-08T21:00:00	1	Precipitación	0
45156	7	Sololá	710	Panajachel	8	Panajachel	6	Junio	2023-06-26T00:00:00	2024-11-08T21:00:00	8	Radiación solar	0
45157	7	Sololá	710	Panajachel	8	Panajachel	6	Junio	2023-06-26T00:00:00	2024-11-08T22:00:00	2	Temperatura media	20.2
45158	7	Sololá	710	Panajachel	8	Panajachel	6	Junio	2023-06-26T00:00:00	2024-11-08T22:00:00	4	Temperatura máxima	21.2
45159	7	Sololá	710	Panajachel	8	Panajachel	6	Junio	2023-06-26T00:00:00	2024-11-08T22:00:00	3	Temperatura mínima	20.1
45160	7	Sololá	710	Panajachel	8	Panajachel	6	Junio	2023-06-26T00:00:00	2024-11-08T22:00:00	5	Humedad	78
45161	7	Sololá	710	Panajachel	8	Panajachel	6	Junio	2023-06-26T00:00:00	2024-11-08T22:00:00	6	Velocidad del viento	1.6
45162	7	Sololá	710	Panajachel	8	Panajachel	6	Junio	2023-06-26T00:00:00	2024-11-08T22:00:00	7	Dirección del viento	1.61
45163	7	Sololá	710	Panajachel	8	Panajachel	6	Junio	2023-06-26T00:00:00	2024-11-08T22:00:00	1	Precipitación	0
45164	7	Sololá	710	Panajachel	8	Panajachel	6	Junio	2023-06-26T00:00:00	2024-11-08T22:00:00	8	Radiación solar	0
45165	7	Sololá	710	Panajachel	8	Panajachel	6	Junio	2023-06-26T00:00:00	2024-11-08T23:00:00	2	Temperatura media	20.7
45166	7	Sololá	710	Panajachel	8	Panajachel	6	Junio	2023-06-26T00:00:00	2024-11-08T23:00:00	4	Temperatura máxima	21.1
45167	7	Sololá	710	Panajachel	8	Panajachel	6	Junio	2023-06-26T00:00:00	2024-11-08T23:00:00	3	Temperatura mínima	20.2
45168	7	Sololá	710	Panajachel	8	Panajachel	6	Junio	2023-06-26T00:00:00	2024-11-08T23:00:00	5	Humedad	75
45169	7	Sololá	710	Panajachel	8	Panajachel	6	Junio	2023-06-26T00:00:00	2024-11-08T23:00:00	6	Velocidad del viento	3.2
45170	7	Sololá	710	Panajachel	8	Panajachel	6	Junio	2023-06-26T00:00:00	2024-11-08T23:00:00	7	Dirección del viento	3.22
45171	7	Sololá	710	Panajachel	8	Panajachel	6	Junio	2023-06-26T00:00:00	2024-11-08T23:00:00	1	Precipitación	0
45172	7	Sololá	710	Panajachel	8	Panajachel	6	Junio	2023-06-26T00:00:00	2024-11-08T23:00:00	8	Radiación solar	0
45173	7	Sololá	710	Panajachel	8	Panajachel	6	Junio	2023-06-27T00:00:00	2024-11-08T00:00:00	2	Temperatura media	19.1
45174	7	Sololá	710	Panajachel	8	Panajachel	6	Junio	2023-06-27T00:00:00	2024-11-08T00:00:00	4	Temperatura máxima	20.7
45175	7	Sololá	710	Panajachel	8	Panajachel	6	Junio	2023-06-27T00:00:00	2024-11-08T00:00:00	3	Temperatura mínima	19.1
45176	7	Sololá	710	Panajachel	8	Panajachel	6	Junio	2023-06-27T00:00:00	2024-11-08T00:00:00	5	Humedad	82
45177	7	Sololá	710	Panajachel	8	Panajachel	6	Junio	2023-06-27T00:00:00	2024-11-08T00:00:00	6	Velocidad del viento	0
45178	7	Sololá	710	Panajachel	8	Panajachel	6	Junio	2023-06-27T00:00:00	2024-11-08T00:00:00	7	Dirección del viento	0
45179	7	Sololá	710	Panajachel	8	Panajachel	6	Junio	2023-06-27T00:00:00	2024-11-08T00:00:00	1	Precipitación	0
45180	7	Sololá	710	Panajachel	8	Panajachel	6	Junio	2023-06-27T00:00:00	2024-11-08T00:00:00	8	Radiación solar	0
45181	7	Sololá	710	Panajachel	8	Panajachel	6	Junio	2023-06-27T00:00:00	2024-11-08T01:00:00	2	Temperatura media	20.7
45182	7	Sololá	710	Panajachel	8	Panajachel	6	Junio	2023-06-27T00:00:00	2024-11-08T01:00:00	4	Temperatura máxima	20.8
45183	7	Sololá	710	Panajachel	8	Panajachel	6	Junio	2023-06-27T00:00:00	2024-11-08T01:00:00	3	Temperatura mínima	19
45184	7	Sololá	710	Panajachel	8	Panajachel	6	Junio	2023-06-27T00:00:00	2024-11-08T01:00:00	5	Humedad	74
45185	7	Sololá	710	Panajachel	8	Panajachel	6	Junio	2023-06-27T00:00:00	2024-11-08T01:00:00	6	Velocidad del viento	3.2
45186	7	Sololá	710	Panajachel	8	Panajachel	6	Junio	2023-06-27T00:00:00	2024-11-08T01:00:00	7	Dirección del viento	3.22
45187	7	Sololá	710	Panajachel	8	Panajachel	6	Junio	2023-06-27T00:00:00	2024-11-08T01:00:00	1	Precipitación	0
45188	7	Sololá	710	Panajachel	8	Panajachel	6	Junio	2023-06-27T00:00:00	2024-11-08T01:00:00	8	Radiación solar	0
45189	7	Sololá	710	Panajachel	8	Panajachel	6	Junio	2023-06-27T00:00:00	2024-11-08T02:00:00	2	Temperatura media	19.5
45190	7	Sololá	710	Panajachel	8	Panajachel	6	Junio	2023-06-27T00:00:00	2024-11-08T02:00:00	4	Temperatura máxima	20.7
45191	7	Sololá	710	Panajachel	8	Panajachel	6	Junio	2023-06-27T00:00:00	2024-11-08T02:00:00	3	Temperatura mínima	18.8
45192	7	Sololá	710	Panajachel	8	Panajachel	6	Junio	2023-06-27T00:00:00	2024-11-08T02:00:00	5	Humedad	80
45193	7	Sololá	710	Panajachel	8	Panajachel	6	Junio	2023-06-27T00:00:00	2024-11-08T02:00:00	6	Velocidad del viento	0
45194	7	Sololá	710	Panajachel	8	Panajachel	6	Junio	2023-06-27T00:00:00	2024-11-08T02:00:00	7	Dirección del viento	0
45195	7	Sololá	710	Panajachel	8	Panajachel	6	Junio	2023-06-27T00:00:00	2024-11-08T02:00:00	1	Precipitación	0
45196	7	Sololá	710	Panajachel	8	Panajachel	6	Junio	2023-06-27T00:00:00	2024-11-08T02:00:00	8	Radiación solar	0
45197	7	Sololá	710	Panajachel	8	Panajachel	6	Junio	2023-06-27T00:00:00	2024-11-08T03:00:00	2	Temperatura media	19.3
45198	7	Sololá	710	Panajachel	8	Panajachel	6	Junio	2023-06-27T00:00:00	2024-11-08T03:00:00	4	Temperatura máxima	19.5
45199	7	Sololá	710	Panajachel	8	Panajachel	6	Junio	2023-06-27T00:00:00	2024-11-08T03:00:00	3	Temperatura mínima	18.8
45200	7	Sololá	710	Panajachel	8	Panajachel	6	Junio	2023-06-27T00:00:00	2024-11-08T03:00:00	5	Humedad	78
45201	7	Sololá	710	Panajachel	8	Panajachel	6	Junio	2023-06-27T00:00:00	2024-11-08T03:00:00	6	Velocidad del viento	0
45202	7	Sololá	710	Panajachel	8	Panajachel	6	Junio	2023-06-27T00:00:00	2024-11-08T03:00:00	7	Dirección del viento	0
45203	7	Sololá	710	Panajachel	8	Panajachel	6	Junio	2023-06-27T00:00:00	2024-11-08T03:00:00	1	Precipitación	0
45204	7	Sololá	710	Panajachel	8	Panajachel	6	Junio	2023-06-27T00:00:00	2024-11-08T03:00:00	8	Radiación solar	0
45205	7	Sololá	710	Panajachel	8	Panajachel	6	Junio	2023-06-27T00:00:00	2024-11-08T04:00:00	2	Temperatura media	20.6
45206	7	Sololá	710	Panajachel	8	Panajachel	6	Junio	2023-06-27T00:00:00	2024-11-08T04:00:00	4	Temperatura máxima	20.7
45207	7	Sololá	710	Panajachel	8	Panajachel	6	Junio	2023-06-27T00:00:00	2024-11-08T04:00:00	3	Temperatura mínima	19.3
45208	7	Sololá	710	Panajachel	8	Panajachel	6	Junio	2023-06-27T00:00:00	2024-11-08T04:00:00	5	Humedad	73
45209	7	Sololá	710	Panajachel	8	Panajachel	6	Junio	2023-06-27T00:00:00	2024-11-08T04:00:00	6	Velocidad del viento	3.2
45210	7	Sololá	710	Panajachel	8	Panajachel	6	Junio	2023-06-27T00:00:00	2024-11-08T04:00:00	7	Dirección del viento	3.22
45211	7	Sololá	710	Panajachel	8	Panajachel	6	Junio	2023-06-27T00:00:00	2024-11-08T04:00:00	1	Precipitación	0
45212	7	Sololá	710	Panajachel	8	Panajachel	6	Junio	2023-06-27T00:00:00	2024-11-08T04:00:00	8	Radiación solar	0
45213	7	Sololá	710	Panajachel	8	Panajachel	6	Junio	2023-06-27T00:00:00	2024-11-08T05:00:00	2	Temperatura media	20.3
45214	7	Sololá	710	Panajachel	8	Panajachel	6	Junio	2023-06-27T00:00:00	2024-11-08T05:00:00	4	Temperatura máxima	20.7
45215	7	Sololá	710	Panajachel	8	Panajachel	6	Junio	2023-06-27T00:00:00	2024-11-08T05:00:00	3	Temperatura mínima	20.3
45216	7	Sololá	710	Panajachel	8	Panajachel	6	Junio	2023-06-27T00:00:00	2024-11-08T05:00:00	5	Humedad	74
45217	7	Sololá	710	Panajachel	8	Panajachel	6	Junio	2023-06-27T00:00:00	2024-11-08T05:00:00	6	Velocidad del viento	3.2
45218	7	Sololá	710	Panajachel	8	Panajachel	6	Junio	2023-06-27T00:00:00	2024-11-08T05:00:00	7	Dirección del viento	3.22
45219	7	Sololá	710	Panajachel	8	Panajachel	6	Junio	2023-06-27T00:00:00	2024-11-08T05:00:00	1	Precipitación	0
45220	7	Sololá	710	Panajachel	8	Panajachel	6	Junio	2023-06-27T00:00:00	2024-11-08T05:00:00	8	Radiación solar	0
45221	7	Sololá	710	Panajachel	8	Panajachel	6	Junio	2023-06-27T00:00:00	2024-11-08T06:00:00	2	Temperatura media	19.3
45222	7	Sololá	710	Panajachel	8	Panajachel	6	Junio	2023-06-27T00:00:00	2024-11-08T06:00:00	4	Temperatura máxima	20.3
45223	7	Sololá	710	Panajachel	8	Panajachel	6	Junio	2023-06-27T00:00:00	2024-11-08T06:00:00	3	Temperatura mínima	19.3
45224	7	Sololá	710	Panajachel	8	Panajachel	6	Junio	2023-06-27T00:00:00	2024-11-08T06:00:00	5	Humedad	77
45225	7	Sololá	710	Panajachel	8	Panajachel	6	Junio	2023-06-27T00:00:00	2024-11-08T06:00:00	6	Velocidad del viento	0
45226	7	Sololá	710	Panajachel	8	Panajachel	6	Junio	2023-06-27T00:00:00	2024-11-08T06:00:00	7	Dirección del viento	0
45227	7	Sololá	710	Panajachel	8	Panajachel	6	Junio	2023-06-27T00:00:00	2024-11-08T06:00:00	1	Precipitación	0
45228	7	Sololá	710	Panajachel	8	Panajachel	6	Junio	2023-06-27T00:00:00	2024-11-08T06:00:00	8	Radiación solar	2
45229	7	Sololá	710	Panajachel	8	Panajachel	6	Junio	2023-06-27T00:00:00	2024-11-08T07:00:00	2	Temperatura media	20.9
45230	7	Sololá	710	Panajachel	8	Panajachel	6	Junio	2023-06-27T00:00:00	2024-11-08T07:00:00	4	Temperatura máxima	20.9
45231	7	Sololá	710	Panajachel	8	Panajachel	6	Junio	2023-06-27T00:00:00	2024-11-08T07:00:00	3	Temperatura mínima	19.1
45232	7	Sololá	710	Panajachel	8	Panajachel	6	Junio	2023-06-27T00:00:00	2024-11-08T07:00:00	5	Humedad	70
45233	7	Sololá	710	Panajachel	8	Panajachel	6	Junio	2023-06-27T00:00:00	2024-11-08T07:00:00	6	Velocidad del viento	1.6
45234	7	Sololá	710	Panajachel	8	Panajachel	6	Junio	2023-06-27T00:00:00	2024-11-08T07:00:00	7	Dirección del viento	1.61
45235	7	Sololá	710	Panajachel	8	Panajachel	6	Junio	2023-06-27T00:00:00	2024-11-08T07:00:00	1	Precipitación	0
45236	7	Sololá	710	Panajachel	8	Panajachel	6	Junio	2023-06-27T00:00:00	2024-11-08T07:00:00	8	Radiación solar	77
45237	7	Sololá	710	Panajachel	8	Panajachel	6	Junio	2023-06-27T00:00:00	2024-11-08T08:00:00	2	Temperatura media	22.2
45238	7	Sololá	710	Panajachel	8	Panajachel	6	Junio	2023-06-27T00:00:00	2024-11-08T08:00:00	4	Temperatura máxima	22.3
45239	7	Sololá	710	Panajachel	8	Panajachel	6	Junio	2023-06-27T00:00:00	2024-11-08T08:00:00	3	Temperatura mínima	20.9
45240	7	Sololá	710	Panajachel	8	Panajachel	6	Junio	2023-06-27T00:00:00	2024-11-08T08:00:00	5	Humedad	65
45241	7	Sololá	710	Panajachel	8	Panajachel	6	Junio	2023-06-27T00:00:00	2024-11-08T08:00:00	6	Velocidad del viento	4.8
45242	7	Sololá	710	Panajachel	8	Panajachel	6	Junio	2023-06-27T00:00:00	2024-11-08T08:00:00	7	Dirección del viento	4.83
45243	7	Sololá	710	Panajachel	8	Panajachel	6	Junio	2023-06-27T00:00:00	2024-11-08T08:00:00	1	Precipitación	0
45244	7	Sololá	710	Panajachel	8	Panajachel	6	Junio	2023-06-27T00:00:00	2024-11-08T08:00:00	8	Radiación solar	245
45245	7	Sololá	710	Panajachel	8	Panajachel	6	Junio	2023-06-27T00:00:00	2024-11-08T09:00:00	2	Temperatura media	24.4
45246	7	Sololá	710	Panajachel	8	Panajachel	6	Junio	2023-06-27T00:00:00	2024-11-08T09:00:00	4	Temperatura máxima	24.4
45247	7	Sololá	710	Panajachel	8	Panajachel	6	Junio	2023-06-27T00:00:00	2024-11-08T09:00:00	3	Temperatura mínima	22.2
45248	7	Sololá	710	Panajachel	8	Panajachel	6	Junio	2023-06-27T00:00:00	2024-11-08T09:00:00	5	Humedad	62
45249	7	Sololá	710	Panajachel	8	Panajachel	6	Junio	2023-06-27T00:00:00	2024-11-08T09:00:00	6	Velocidad del viento	1.6
45250	7	Sololá	710	Panajachel	8	Panajachel	6	Junio	2023-06-27T00:00:00	2024-11-08T09:00:00	7	Dirección del viento	1.61
45251	7	Sololá	710	Panajachel	8	Panajachel	6	Junio	2023-06-27T00:00:00	2024-11-08T09:00:00	1	Precipitación	0
45252	7	Sololá	710	Panajachel	8	Panajachel	6	Junio	2023-06-27T00:00:00	2024-11-08T09:00:00	8	Radiación solar	613
45253	7	Sololá	710	Panajachel	8	Panajachel	6	Junio	2023-06-27T00:00:00	2024-11-08T10:00:00	2	Temperatura media	22.6
45254	7	Sololá	710	Panajachel	8	Panajachel	6	Junio	2023-06-27T00:00:00	2024-11-08T10:00:00	4	Temperatura máxima	24.9
45255	7	Sololá	710	Panajachel	8	Panajachel	6	Junio	2023-06-27T00:00:00	2024-11-08T10:00:00	3	Temperatura mínima	22.5
45256	7	Sololá	710	Panajachel	8	Panajachel	6	Junio	2023-06-27T00:00:00	2024-11-08T10:00:00	5	Humedad	78
45257	7	Sololá	710	Panajachel	8	Panajachel	6	Junio	2023-06-27T00:00:00	2024-11-08T10:00:00	6	Velocidad del viento	3.2
45258	7	Sololá	710	Panajachel	8	Panajachel	6	Junio	2023-06-27T00:00:00	2024-11-08T10:00:00	7	Dirección del viento	3.22
45259	7	Sololá	710	Panajachel	8	Panajachel	6	Junio	2023-06-27T00:00:00	2024-11-08T10:00:00	1	Precipitación	0
45260	7	Sololá	710	Panajachel	8	Panajachel	6	Junio	2023-06-27T00:00:00	2024-11-08T10:00:00	8	Radiación solar	553
45261	7	Sololá	710	Panajachel	8	Panajachel	6	Junio	2023-06-27T00:00:00	2024-11-08T11:00:00	2	Temperatura media	22.7
45262	7	Sololá	710	Panajachel	8	Panajachel	6	Junio	2023-06-27T00:00:00	2024-11-08T11:00:00	4	Temperatura máxima	23.8
45263	7	Sololá	710	Panajachel	8	Panajachel	6	Junio	2023-06-27T00:00:00	2024-11-08T11:00:00	3	Temperatura mínima	22.3
45264	7	Sololá	710	Panajachel	8	Panajachel	6	Junio	2023-06-27T00:00:00	2024-11-08T11:00:00	5	Humedad	77
45265	7	Sololá	710	Panajachel	8	Panajachel	6	Junio	2023-06-27T00:00:00	2024-11-08T11:00:00	6	Velocidad del viento	0
45266	7	Sololá	710	Panajachel	8	Panajachel	6	Junio	2023-06-27T00:00:00	2024-11-08T11:00:00	7	Dirección del viento	0
45267	7	Sololá	710	Panajachel	8	Panajachel	6	Junio	2023-06-27T00:00:00	2024-11-08T11:00:00	1	Precipitación	0
45268	7	Sololá	710	Panajachel	8	Panajachel	6	Junio	2023-06-27T00:00:00	2024-11-08T11:00:00	8	Radiación solar	397
45269	7	Sololá	710	Panajachel	8	Panajachel	6	Junio	2023-06-27T00:00:00	2024-11-08T12:00:00	2	Temperatura media	21.7
45270	7	Sololá	710	Panajachel	8	Panajachel	6	Junio	2023-06-27T00:00:00	2024-11-08T12:00:00	4	Temperatura máxima	22.8
45271	7	Sololá	710	Panajachel	8	Panajachel	6	Junio	2023-06-27T00:00:00	2024-11-08T12:00:00	3	Temperatura mínima	21.7
45272	7	Sololá	710	Panajachel	8	Panajachel	6	Junio	2023-06-27T00:00:00	2024-11-08T12:00:00	5	Humedad	82
45273	7	Sololá	710	Panajachel	8	Panajachel	6	Junio	2023-06-27T00:00:00	2024-11-08T12:00:00	6	Velocidad del viento	1.6
45274	7	Sololá	710	Panajachel	8	Panajachel	6	Junio	2023-06-27T00:00:00	2024-11-08T12:00:00	7	Dirección del viento	1.61
45275	7	Sololá	710	Panajachel	8	Panajachel	6	Junio	2023-06-27T00:00:00	2024-11-08T12:00:00	1	Precipitación	0
45276	7	Sololá	710	Panajachel	8	Panajachel	6	Junio	2023-06-27T00:00:00	2024-11-08T12:00:00	8	Radiación solar	342
45277	7	Sololá	710	Panajachel	8	Panajachel	6	Junio	2023-06-27T00:00:00	2024-11-08T13:00:00	2	Temperatura media	22.8
45278	7	Sololá	710	Panajachel	8	Panajachel	6	Junio	2023-06-27T00:00:00	2024-11-08T13:00:00	4	Temperatura máxima	22.9
45279	7	Sololá	710	Panajachel	8	Panajachel	6	Junio	2023-06-27T00:00:00	2024-11-08T13:00:00	3	Temperatura mínima	21.6
45280	7	Sololá	710	Panajachel	8	Panajachel	6	Junio	2023-06-27T00:00:00	2024-11-08T13:00:00	5	Humedad	79
45281	7	Sololá	710	Panajachel	8	Panajachel	6	Junio	2023-06-27T00:00:00	2024-11-08T13:00:00	6	Velocidad del viento	1.6
45282	7	Sololá	710	Panajachel	8	Panajachel	6	Junio	2023-06-27T00:00:00	2024-11-08T13:00:00	7	Dirección del viento	1.61
45283	7	Sololá	710	Panajachel	8	Panajachel	6	Junio	2023-06-27T00:00:00	2024-11-08T13:00:00	1	Precipitación	0
45284	7	Sololá	710	Panajachel	8	Panajachel	6	Junio	2023-06-27T00:00:00	2024-11-08T13:00:00	8	Radiación solar	380
45285	7	Sololá	710	Panajachel	8	Panajachel	6	Junio	2023-06-27T00:00:00	2024-11-08T14:00:00	2	Temperatura media	21.8
45286	7	Sololá	710	Panajachel	8	Panajachel	6	Junio	2023-06-27T00:00:00	2024-11-08T14:00:00	4	Temperatura máxima	23.1
45287	7	Sololá	710	Panajachel	8	Panajachel	6	Junio	2023-06-27T00:00:00	2024-11-08T14:00:00	3	Temperatura mínima	21.8
45288	7	Sololá	710	Panajachel	8	Panajachel	6	Junio	2023-06-27T00:00:00	2024-11-08T14:00:00	5	Humedad	83
45289	7	Sololá	710	Panajachel	8	Panajachel	6	Junio	2023-06-27T00:00:00	2024-11-08T14:00:00	6	Velocidad del viento	0
45290	7	Sololá	710	Panajachel	8	Panajachel	6	Junio	2023-06-27T00:00:00	2024-11-08T14:00:00	7	Dirección del viento	0
45291	7	Sololá	710	Panajachel	8	Panajachel	6	Junio	2023-06-27T00:00:00	2024-11-08T14:00:00	1	Precipitación	0
45292	7	Sololá	710	Panajachel	8	Panajachel	6	Junio	2023-06-27T00:00:00	2024-11-08T14:00:00	8	Radiación solar	247
45293	7	Sololá	710	Panajachel	8	Panajachel	6	Junio	2023-06-27T00:00:00	2024-11-08T15:00:00	2	Temperatura media	21.3
45294	7	Sololá	710	Panajachel	8	Panajachel	6	Junio	2023-06-27T00:00:00	2024-11-08T15:00:00	4	Temperatura máxima	22.4
45295	7	Sololá	710	Panajachel	8	Panajachel	6	Junio	2023-06-27T00:00:00	2024-11-08T15:00:00	3	Temperatura mínima	21.3
45296	7	Sololá	710	Panajachel	8	Panajachel	6	Junio	2023-06-27T00:00:00	2024-11-08T15:00:00	5	Humedad	89
45297	7	Sololá	710	Panajachel	8	Panajachel	6	Junio	2023-06-27T00:00:00	2024-11-08T15:00:00	6	Velocidad del viento	1.6
45298	7	Sololá	710	Panajachel	8	Panajachel	6	Junio	2023-06-27T00:00:00	2024-11-08T15:00:00	7	Dirección del viento	1.61
45299	7	Sololá	710	Panajachel	8	Panajachel	6	Junio	2023-06-27T00:00:00	2024-11-08T15:00:00	1	Precipitación	0
45300	7	Sololá	710	Panajachel	8	Panajachel	6	Junio	2023-06-27T00:00:00	2024-11-08T15:00:00	8	Radiación solar	315
45301	7	Sololá	710	Panajachel	8	Panajachel	6	Junio	2023-06-27T00:00:00	2024-11-08T16:00:00	2	Temperatura media	19.2
45302	7	Sololá	710	Panajachel	8	Panajachel	6	Junio	2023-06-27T00:00:00	2024-11-08T16:00:00	4	Temperatura máxima	21.2
45303	7	Sololá	710	Panajachel	8	Panajachel	6	Junio	2023-06-27T00:00:00	2024-11-08T16:00:00	3	Temperatura mínima	19.1
45304	7	Sololá	710	Panajachel	8	Panajachel	6	Junio	2023-06-27T00:00:00	2024-11-08T16:00:00	5	Humedad	95
45305	7	Sololá	710	Panajachel	8	Panajachel	6	Junio	2023-06-27T00:00:00	2024-11-08T16:00:00	6	Velocidad del viento	4.8
45306	7	Sololá	710	Panajachel	8	Panajachel	6	Junio	2023-06-27T00:00:00	2024-11-08T16:00:00	7	Dirección del viento	4.83
45307	7	Sololá	710	Panajachel	8	Panajachel	6	Junio	2023-06-27T00:00:00	2024-11-08T16:00:00	1	Precipitación	0
45308	7	Sololá	710	Panajachel	8	Panajachel	6	Junio	2023-06-27T00:00:00	2024-11-08T16:00:00	8	Radiación solar	122
45309	7	Sololá	710	Panajachel	8	Panajachel	6	Junio	2023-06-27T00:00:00	2024-11-08T17:00:00	2	Temperatura media	19.6
45310	7	Sololá	710	Panajachel	8	Panajachel	6	Junio	2023-06-27T00:00:00	2024-11-08T17:00:00	4	Temperatura máxima	19.7
45311	7	Sololá	710	Panajachel	8	Panajachel	6	Junio	2023-06-27T00:00:00	2024-11-08T17:00:00	3	Temperatura mínima	19.2
45312	7	Sololá	710	Panajachel	8	Panajachel	6	Junio	2023-06-27T00:00:00	2024-11-08T17:00:00	5	Humedad	93
45313	7	Sololá	710	Panajachel	8	Panajachel	6	Junio	2023-06-27T00:00:00	2024-11-08T17:00:00	6	Velocidad del viento	1.6
45314	7	Sololá	710	Panajachel	8	Panajachel	6	Junio	2023-06-27T00:00:00	2024-11-08T17:00:00	7	Dirección del viento	1.61
45315	7	Sololá	710	Panajachel	8	Panajachel	6	Junio	2023-06-27T00:00:00	2024-11-08T17:00:00	1	Precipitación	0
45316	7	Sololá	710	Panajachel	8	Panajachel	6	Junio	2023-06-27T00:00:00	2024-11-08T17:00:00	8	Radiación solar	31
45317	7	Sololá	710	Panajachel	8	Panajachel	6	Junio	2023-06-27T00:00:00	2024-11-08T18:00:00	2	Temperatura media	18.7
45318	7	Sololá	710	Panajachel	8	Panajachel	6	Junio	2023-06-27T00:00:00	2024-11-08T18:00:00	4	Temperatura máxima	19.7
45319	7	Sololá	710	Panajachel	8	Panajachel	6	Junio	2023-06-27T00:00:00	2024-11-08T18:00:00	3	Temperatura mínima	18.6
45320	7	Sololá	710	Panajachel	8	Panajachel	6	Junio	2023-06-27T00:00:00	2024-11-08T18:00:00	5	Humedad	96
45321	7	Sololá	710	Panajachel	8	Panajachel	6	Junio	2023-06-27T00:00:00	2024-11-08T18:00:00	6	Velocidad del viento	1.6
45322	7	Sololá	710	Panajachel	8	Panajachel	6	Junio	2023-06-27T00:00:00	2024-11-08T18:00:00	7	Dirección del viento	1.61
45323	7	Sololá	710	Panajachel	8	Panajachel	6	Junio	2023-06-27T00:00:00	2024-11-08T18:00:00	1	Precipitación	4.8
45324	7	Sololá	710	Panajachel	8	Panajachel	6	Junio	2023-06-27T00:00:00	2024-11-08T18:00:00	8	Radiación solar	9
45325	7	Sololá	710	Panajachel	8	Panajachel	6	Junio	2023-06-27T00:00:00	2024-11-08T19:00:00	2	Temperatura media	18.4
45326	7	Sololá	710	Panajachel	8	Panajachel	6	Junio	2023-06-27T00:00:00	2024-11-08T19:00:00	4	Temperatura máxima	18.7
45327	7	Sololá	710	Panajachel	8	Panajachel	6	Junio	2023-06-27T00:00:00	2024-11-08T19:00:00	3	Temperatura mínima	18.4
45328	7	Sololá	710	Panajachel	8	Panajachel	6	Junio	2023-06-27T00:00:00	2024-11-08T19:00:00	5	Humedad	96
45329	7	Sololá	710	Panajachel	8	Panajachel	6	Junio	2023-06-27T00:00:00	2024-11-08T19:00:00	6	Velocidad del viento	0
45330	7	Sololá	710	Panajachel	8	Panajachel	6	Junio	2023-06-27T00:00:00	2024-11-08T19:00:00	7	Dirección del viento	0
45331	7	Sololá	710	Panajachel	8	Panajachel	6	Junio	2023-06-27T00:00:00	2024-11-08T19:00:00	1	Precipitación	2.6
45332	7	Sololá	710	Panajachel	8	Panajachel	6	Junio	2023-06-27T00:00:00	2024-11-08T19:00:00	8	Radiación solar	0
45333	7	Sololá	710	Panajachel	8	Panajachel	6	Junio	2023-06-27T00:00:00	2024-11-08T20:00:00	2	Temperatura media	17.9
45334	7	Sololá	710	Panajachel	8	Panajachel	6	Junio	2023-06-27T00:00:00	2024-11-08T20:00:00	4	Temperatura máxima	18.7
45335	7	Sololá	710	Panajachel	8	Panajachel	6	Junio	2023-06-27T00:00:00	2024-11-08T20:00:00	3	Temperatura mínima	17.9
45336	7	Sololá	710	Panajachel	8	Panajachel	6	Junio	2023-06-27T00:00:00	2024-11-08T20:00:00	5	Humedad	93
45337	7	Sololá	710	Panajachel	8	Panajachel	6	Junio	2023-06-27T00:00:00	2024-11-08T20:00:00	6	Velocidad del viento	0
45338	7	Sololá	710	Panajachel	8	Panajachel	6	Junio	2023-06-27T00:00:00	2024-11-08T20:00:00	7	Dirección del viento	0
45339	7	Sololá	710	Panajachel	8	Panajachel	6	Junio	2023-06-27T00:00:00	2024-11-08T20:00:00	1	Precipitación	0.8
45340	7	Sololá	710	Panajachel	8	Panajachel	6	Junio	2023-06-27T00:00:00	2024-11-08T20:00:00	8	Radiación solar	0
45341	7	Sololá	710	Panajachel	8	Panajachel	6	Junio	2023-06-27T00:00:00	2024-11-08T21:00:00	2	Temperatura media	17.8
45342	7	Sololá	710	Panajachel	8	Panajachel	6	Junio	2023-06-27T00:00:00	2024-11-08T21:00:00	4	Temperatura máxima	18
45343	7	Sololá	710	Panajachel	8	Panajachel	6	Junio	2023-06-27T00:00:00	2024-11-08T21:00:00	3	Temperatura mínima	17.6
45344	7	Sololá	710	Panajachel	8	Panajachel	6	Junio	2023-06-27T00:00:00	2024-11-08T21:00:00	5	Humedad	96
45345	7	Sololá	710	Panajachel	8	Panajachel	6	Junio	2023-06-27T00:00:00	2024-11-08T21:00:00	6	Velocidad del viento	0
45346	7	Sololá	710	Panajachel	8	Panajachel	6	Junio	2023-06-27T00:00:00	2024-11-08T21:00:00	7	Dirección del viento	0
45347	7	Sololá	710	Panajachel	8	Panajachel	6	Junio	2023-06-27T00:00:00	2024-11-08T21:00:00	1	Precipitación	0.4
45348	7	Sololá	710	Panajachel	8	Panajachel	6	Junio	2023-06-27T00:00:00	2024-11-08T21:00:00	8	Radiación solar	0
45349	7	Sololá	710	Panajachel	8	Panajachel	6	Junio	2023-06-27T00:00:00	2024-11-08T22:00:00	2	Temperatura media	17.7
45350	7	Sololá	710	Panajachel	8	Panajachel	6	Junio	2023-06-27T00:00:00	2024-11-08T22:00:00	4	Temperatura máxima	17.8
45351	7	Sololá	710	Panajachel	8	Panajachel	6	Junio	2023-06-27T00:00:00	2024-11-08T22:00:00	3	Temperatura mínima	17.7
45352	7	Sololá	710	Panajachel	8	Panajachel	6	Junio	2023-06-27T00:00:00	2024-11-08T22:00:00	5	Humedad	97
45353	7	Sololá	710	Panajachel	8	Panajachel	6	Junio	2023-06-27T00:00:00	2024-11-08T22:00:00	6	Velocidad del viento	0
45354	7	Sololá	710	Panajachel	8	Panajachel	6	Junio	2023-06-27T00:00:00	2024-11-08T22:00:00	7	Dirección del viento	0
45355	7	Sololá	710	Panajachel	8	Panajachel	6	Junio	2023-06-27T00:00:00	2024-11-08T22:00:00	1	Precipitación	0
45356	7	Sololá	710	Panajachel	8	Panajachel	6	Junio	2023-06-27T00:00:00	2024-11-08T22:00:00	8	Radiación solar	0
45357	7	Sololá	710	Panajachel	8	Panajachel	6	Junio	2023-06-27T00:00:00	2024-11-08T23:00:00	2	Temperatura media	17.8
45358	7	Sololá	710	Panajachel	8	Panajachel	6	Junio	2023-06-27T00:00:00	2024-11-08T23:00:00	4	Temperatura máxima	17.8
45359	7	Sololá	710	Panajachel	8	Panajachel	6	Junio	2023-06-27T00:00:00	2024-11-08T23:00:00	3	Temperatura mínima	17.7
45360	7	Sololá	710	Panajachel	8	Panajachel	6	Junio	2023-06-27T00:00:00	2024-11-08T23:00:00	5	Humedad	96
45361	7	Sololá	710	Panajachel	8	Panajachel	6	Junio	2023-06-27T00:00:00	2024-11-08T23:00:00	6	Velocidad del viento	0
45362	7	Sololá	710	Panajachel	8	Panajachel	6	Junio	2023-06-27T00:00:00	2024-11-08T23:00:00	7	Dirección del viento	0
45363	7	Sololá	710	Panajachel	8	Panajachel	6	Junio	2023-06-27T00:00:00	2024-11-08T23:00:00	1	Precipitación	0
45364	7	Sololá	710	Panajachel	8	Panajachel	6	Junio	2023-06-27T00:00:00	2024-11-08T23:00:00	8	Radiación solar	0
45365	7	Sololá	710	Panajachel	8	Panajachel	6	Junio	2023-06-28T00:00:00	2024-11-08T00:00:00	2	Temperatura media	17.7
45366	7	Sololá	710	Panajachel	8	Panajachel	6	Junio	2023-06-28T00:00:00	2024-11-08T00:00:00	4	Temperatura máxima	17.8
45367	7	Sololá	710	Panajachel	8	Panajachel	6	Junio	2023-06-28T00:00:00	2024-11-08T00:00:00	3	Temperatura mínima	17.7
45368	7	Sololá	710	Panajachel	8	Panajachel	6	Junio	2023-06-28T00:00:00	2024-11-08T00:00:00	5	Humedad	95
45369	7	Sololá	710	Panajachel	8	Panajachel	6	Junio	2023-06-28T00:00:00	2024-11-08T00:00:00	6	Velocidad del viento	0
45370	7	Sololá	710	Panajachel	8	Panajachel	6	Junio	2023-06-28T00:00:00	2024-11-08T00:00:00	7	Dirección del viento	0
45371	7	Sololá	710	Panajachel	8	Panajachel	6	Junio	2023-06-28T00:00:00	2024-11-08T00:00:00	1	Precipitación	0
45372	7	Sololá	710	Panajachel	8	Panajachel	6	Junio	2023-06-28T00:00:00	2024-11-08T00:00:00	8	Radiación solar	0
45373	7	Sololá	710	Panajachel	8	Panajachel	6	Junio	2023-06-28T00:00:00	2024-11-08T01:00:00	2	Temperatura media	17.7
45374	7	Sololá	710	Panajachel	8	Panajachel	6	Junio	2023-06-28T00:00:00	2024-11-08T01:00:00	4	Temperatura máxima	17.8
45375	7	Sololá	710	Panajachel	8	Panajachel	6	Junio	2023-06-28T00:00:00	2024-11-08T01:00:00	3	Temperatura mínima	17.7
45376	7	Sololá	710	Panajachel	8	Panajachel	6	Junio	2023-06-28T00:00:00	2024-11-08T01:00:00	5	Humedad	94
45377	7	Sololá	710	Panajachel	8	Panajachel	6	Junio	2023-06-28T00:00:00	2024-11-08T01:00:00	6	Velocidad del viento	0
45378	7	Sololá	710	Panajachel	8	Panajachel	6	Junio	2023-06-28T00:00:00	2024-11-08T01:00:00	7	Dirección del viento	0
45379	7	Sololá	710	Panajachel	8	Panajachel	6	Junio	2023-06-28T00:00:00	2024-11-08T01:00:00	1	Precipitación	0
45380	7	Sololá	710	Panajachel	8	Panajachel	6	Junio	2023-06-28T00:00:00	2024-11-08T01:00:00	8	Radiación solar	0
45381	7	Sololá	710	Panajachel	8	Panajachel	6	Junio	2023-06-28T00:00:00	2024-11-08T02:00:00	2	Temperatura media	17.8
45382	7	Sololá	710	Panajachel	8	Panajachel	6	Junio	2023-06-28T00:00:00	2024-11-08T02:00:00	4	Temperatura máxima	17.8
45383	7	Sololá	710	Panajachel	8	Panajachel	6	Junio	2023-06-28T00:00:00	2024-11-08T02:00:00	3	Temperatura mínima	17.7
45384	7	Sololá	710	Panajachel	8	Panajachel	6	Junio	2023-06-28T00:00:00	2024-11-08T02:00:00	5	Humedad	93
45385	7	Sololá	710	Panajachel	8	Panajachel	6	Junio	2023-06-28T00:00:00	2024-11-08T02:00:00	6	Velocidad del viento	0
45386	7	Sololá	710	Panajachel	8	Panajachel	6	Junio	2023-06-28T00:00:00	2024-11-08T02:00:00	7	Dirección del viento	0
45387	7	Sololá	710	Panajachel	8	Panajachel	6	Junio	2023-06-28T00:00:00	2024-11-08T02:00:00	1	Precipitación	0
45388	7	Sololá	710	Panajachel	8	Panajachel	6	Junio	2023-06-28T00:00:00	2024-11-08T02:00:00	8	Radiación solar	0
45389	7	Sololá	710	Panajachel	8	Panajachel	6	Junio	2023-06-28T00:00:00	2024-11-08T03:00:00	2	Temperatura media	17.5
45390	7	Sololá	710	Panajachel	8	Panajachel	6	Junio	2023-06-28T00:00:00	2024-11-08T03:00:00	4	Temperatura máxima	18
45391	7	Sololá	710	Panajachel	8	Panajachel	6	Junio	2023-06-28T00:00:00	2024-11-08T03:00:00	3	Temperatura mínima	17.4
45392	7	Sololá	710	Panajachel	8	Panajachel	6	Junio	2023-06-28T00:00:00	2024-11-08T03:00:00	5	Humedad	95
45393	7	Sololá	710	Panajachel	8	Panajachel	6	Junio	2023-06-28T00:00:00	2024-11-08T03:00:00	6	Velocidad del viento	0
45394	7	Sololá	710	Panajachel	8	Panajachel	6	Junio	2023-06-28T00:00:00	2024-11-08T03:00:00	7	Dirección del viento	0
45395	7	Sololá	710	Panajachel	8	Panajachel	6	Junio	2023-06-28T00:00:00	2024-11-08T03:00:00	1	Precipitación	0.4
45396	7	Sololá	710	Panajachel	8	Panajachel	6	Junio	2023-06-28T00:00:00	2024-11-08T03:00:00	8	Radiación solar	0
45397	7	Sololá	710	Panajachel	8	Panajachel	6	Junio	2023-06-28T00:00:00	2024-11-08T04:00:00	2	Temperatura media	17.4
45398	7	Sololá	710	Panajachel	8	Panajachel	6	Junio	2023-06-28T00:00:00	2024-11-08T04:00:00	4	Temperatura máxima	17.8
45399	7	Sololá	710	Panajachel	8	Panajachel	6	Junio	2023-06-28T00:00:00	2024-11-08T04:00:00	3	Temperatura mínima	17.3
45400	7	Sololá	710	Panajachel	8	Panajachel	6	Junio	2023-06-28T00:00:00	2024-11-08T04:00:00	5	Humedad	94
45401	7	Sololá	710	Panajachel	8	Panajachel	6	Junio	2023-06-28T00:00:00	2024-11-08T04:00:00	6	Velocidad del viento	0
45402	7	Sololá	710	Panajachel	8	Panajachel	6	Junio	2023-06-28T00:00:00	2024-11-08T04:00:00	7	Dirección del viento	0
45403	7	Sololá	710	Panajachel	8	Panajachel	6	Junio	2023-06-28T00:00:00	2024-11-08T04:00:00	1	Precipitación	0
45404	7	Sololá	710	Panajachel	8	Panajachel	6	Junio	2023-06-28T00:00:00	2024-11-08T04:00:00	8	Radiación solar	0
45405	7	Sololá	710	Panajachel	8	Panajachel	6	Junio	2023-06-28T00:00:00	2024-11-08T05:00:00	2	Temperatura media	16.9
45406	7	Sololá	710	Panajachel	8	Panajachel	6	Junio	2023-06-28T00:00:00	2024-11-08T05:00:00	4	Temperatura máxima	17.4
45407	7	Sololá	710	Panajachel	8	Panajachel	6	Junio	2023-06-28T00:00:00	2024-11-08T05:00:00	3	Temperatura mínima	16.9
45408	7	Sololá	710	Panajachel	8	Panajachel	6	Junio	2023-06-28T00:00:00	2024-11-08T05:00:00	5	Humedad	94
45409	7	Sololá	710	Panajachel	8	Panajachel	6	Junio	2023-06-28T00:00:00	2024-11-08T05:00:00	6	Velocidad del viento	0
45410	7	Sololá	710	Panajachel	8	Panajachel	6	Junio	2023-06-28T00:00:00	2024-11-08T05:00:00	7	Dirección del viento	0
45411	7	Sololá	710	Panajachel	8	Panajachel	6	Junio	2023-06-28T00:00:00	2024-11-08T05:00:00	1	Precipitación	0.2
45412	7	Sololá	710	Panajachel	8	Panajachel	6	Junio	2023-06-28T00:00:00	2024-11-08T05:00:00	8	Radiación solar	0
45413	7	Sololá	710	Panajachel	8	Panajachel	6	Junio	2023-06-28T00:00:00	2024-11-08T06:00:00	2	Temperatura media	16.7
45414	7	Sololá	710	Panajachel	8	Panajachel	6	Junio	2023-06-28T00:00:00	2024-11-08T06:00:00	4	Temperatura máxima	16.9
45415	7	Sololá	710	Panajachel	8	Panajachel	6	Junio	2023-06-28T00:00:00	2024-11-08T06:00:00	3	Temperatura mínima	16.6
45416	7	Sololá	710	Panajachel	8	Panajachel	6	Junio	2023-06-28T00:00:00	2024-11-08T06:00:00	5	Humedad	92
45417	7	Sololá	710	Panajachel	8	Panajachel	6	Junio	2023-06-28T00:00:00	2024-11-08T06:00:00	6	Velocidad del viento	0
45418	7	Sololá	710	Panajachel	8	Panajachel	6	Junio	2023-06-28T00:00:00	2024-11-08T06:00:00	7	Dirección del viento	0
45419	7	Sololá	710	Panajachel	8	Panajachel	6	Junio	2023-06-28T00:00:00	2024-11-08T06:00:00	1	Precipitación	0
45420	7	Sololá	710	Panajachel	8	Panajachel	6	Junio	2023-06-28T00:00:00	2024-11-08T06:00:00	8	Radiación solar	3
45421	7	Sololá	710	Panajachel	8	Panajachel	6	Junio	2023-06-28T00:00:00	2024-11-08T07:00:00	2	Temperatura media	18.3
45422	7	Sololá	710	Panajachel	8	Panajachel	6	Junio	2023-06-28T00:00:00	2024-11-08T07:00:00	4	Temperatura máxima	18.3
45423	7	Sololá	710	Panajachel	8	Panajachel	6	Junio	2023-06-28T00:00:00	2024-11-08T07:00:00	3	Temperatura mínima	16.8
45424	7	Sololá	710	Panajachel	8	Panajachel	6	Junio	2023-06-28T00:00:00	2024-11-08T07:00:00	5	Humedad	88
45425	7	Sololá	710	Panajachel	8	Panajachel	6	Junio	2023-06-28T00:00:00	2024-11-08T07:00:00	6	Velocidad del viento	0
45426	7	Sololá	710	Panajachel	8	Panajachel	6	Junio	2023-06-28T00:00:00	2024-11-08T07:00:00	7	Dirección del viento	0
45427	7	Sololá	710	Panajachel	8	Panajachel	6	Junio	2023-06-28T00:00:00	2024-11-08T07:00:00	1	Precipitación	0
45428	7	Sololá	710	Panajachel	8	Panajachel	6	Junio	2023-06-28T00:00:00	2024-11-08T07:00:00	8	Radiación solar	96
45429	7	Sololá	710	Panajachel	8	Panajachel	6	Junio	2023-06-28T00:00:00	2024-11-08T08:00:00	2	Temperatura media	19.8
45430	7	Sololá	710	Panajachel	8	Panajachel	6	Junio	2023-06-28T00:00:00	2024-11-08T08:00:00	4	Temperatura máxima	19.8
45431	7	Sololá	710	Panajachel	8	Panajachel	6	Junio	2023-06-28T00:00:00	2024-11-08T08:00:00	3	Temperatura mínima	18.3
45432	7	Sololá	710	Panajachel	8	Panajachel	6	Junio	2023-06-28T00:00:00	2024-11-08T08:00:00	5	Humedad	88
45433	7	Sololá	710	Panajachel	8	Panajachel	6	Junio	2023-06-28T00:00:00	2024-11-08T08:00:00	6	Velocidad del viento	0
45434	7	Sololá	710	Panajachel	8	Panajachel	6	Junio	2023-06-28T00:00:00	2024-11-08T08:00:00	7	Dirección del viento	0
45435	7	Sololá	710	Panajachel	8	Panajachel	6	Junio	2023-06-28T00:00:00	2024-11-08T08:00:00	1	Precipitación	0
45436	7	Sololá	710	Panajachel	8	Panajachel	6	Junio	2023-06-28T00:00:00	2024-11-08T08:00:00	8	Radiación solar	180
45437	7	Sololá	710	Panajachel	8	Panajachel	6	Junio	2023-06-28T00:00:00	2024-11-08T09:00:00	2	Temperatura media	20.7
45438	7	Sololá	710	Panajachel	8	Panajachel	6	Junio	2023-06-28T00:00:00	2024-11-08T09:00:00	4	Temperatura máxima	20.7
45439	7	Sololá	710	Panajachel	8	Panajachel	6	Junio	2023-06-28T00:00:00	2024-11-08T09:00:00	3	Temperatura mínima	19.8
45440	7	Sololá	710	Panajachel	8	Panajachel	6	Junio	2023-06-28T00:00:00	2024-11-08T09:00:00	5	Humedad	84
45441	7	Sololá	710	Panajachel	8	Panajachel	6	Junio	2023-06-28T00:00:00	2024-11-08T09:00:00	6	Velocidad del viento	0
45442	7	Sololá	710	Panajachel	8	Panajachel	6	Junio	2023-06-28T00:00:00	2024-11-08T09:00:00	7	Dirección del viento	0
45443	7	Sololá	710	Panajachel	8	Panajachel	6	Junio	2023-06-28T00:00:00	2024-11-08T09:00:00	1	Precipitación	0
45444	7	Sololá	710	Panajachel	8	Panajachel	6	Junio	2023-06-28T00:00:00	2024-11-08T09:00:00	8	Radiación solar	265
45445	7	Sololá	710	Panajachel	8	Panajachel	6	Junio	2023-06-28T00:00:00	2024-11-08T10:00:00	2	Temperatura media	22.6
45446	7	Sololá	710	Panajachel	8	Panajachel	6	Junio	2023-06-28T00:00:00	2024-11-08T10:00:00	4	Temperatura máxima	22.6
45447	7	Sololá	710	Panajachel	8	Panajachel	6	Junio	2023-06-28T00:00:00	2024-11-08T10:00:00	3	Temperatura mínima	20.7
45448	7	Sololá	710	Panajachel	8	Panajachel	6	Junio	2023-06-28T00:00:00	2024-11-08T10:00:00	5	Humedad	80
45449	7	Sololá	710	Panajachel	8	Panajachel	6	Junio	2023-06-28T00:00:00	2024-11-08T10:00:00	6	Velocidad del viento	0
45450	7	Sololá	710	Panajachel	8	Panajachel	6	Junio	2023-06-28T00:00:00	2024-11-08T10:00:00	7	Dirección del viento	0
45451	7	Sololá	710	Panajachel	8	Panajachel	6	Junio	2023-06-28T00:00:00	2024-11-08T10:00:00	1	Precipitación	0
45452	7	Sololá	710	Panajachel	8	Panajachel	6	Junio	2023-06-28T00:00:00	2024-11-08T10:00:00	8	Radiación solar	457
45453	7	Sololá	710	Panajachel	8	Panajachel	6	Junio	2023-06-28T00:00:00	2024-11-08T11:00:00	2	Temperatura media	22.9
45454	7	Sololá	710	Panajachel	8	Panajachel	6	Junio	2023-06-28T00:00:00	2024-11-08T11:00:00	4	Temperatura máxima	22.9
45455	7	Sololá	710	Panajachel	8	Panajachel	6	Junio	2023-06-28T00:00:00	2024-11-08T11:00:00	3	Temperatura mínima	22.2
45456	7	Sololá	710	Panajachel	8	Panajachel	6	Junio	2023-06-28T00:00:00	2024-11-08T11:00:00	5	Humedad	79
45457	7	Sololá	710	Panajachel	8	Panajachel	6	Junio	2023-06-28T00:00:00	2024-11-08T11:00:00	6	Velocidad del viento	0
45458	7	Sololá	710	Panajachel	8	Panajachel	6	Junio	2023-06-28T00:00:00	2024-11-08T11:00:00	7	Dirección del viento	0
45459	7	Sololá	710	Panajachel	8	Panajachel	6	Junio	2023-06-28T00:00:00	2024-11-08T11:00:00	1	Precipitación	0
45460	7	Sololá	710	Panajachel	8	Panajachel	6	Junio	2023-06-28T00:00:00	2024-11-08T11:00:00	8	Radiación solar	745
45461	7	Sololá	710	Panajachel	8	Panajachel	6	Junio	2023-06-28T00:00:00	2024-11-08T12:00:00	2	Temperatura media	22.9
45462	7	Sololá	710	Panajachel	8	Panajachel	6	Junio	2023-06-28T00:00:00	2024-11-08T12:00:00	4	Temperatura máxima	23.4
45463	7	Sololá	710	Panajachel	8	Panajachel	6	Junio	2023-06-28T00:00:00	2024-11-08T12:00:00	3	Temperatura mínima	22.7
45464	7	Sololá	710	Panajachel	8	Panajachel	6	Junio	2023-06-28T00:00:00	2024-11-08T12:00:00	5	Humedad	78
45465	7	Sololá	710	Panajachel	8	Panajachel	6	Junio	2023-06-28T00:00:00	2024-11-08T12:00:00	6	Velocidad del viento	0
45466	7	Sololá	710	Panajachel	8	Panajachel	6	Junio	2023-06-28T00:00:00	2024-11-08T12:00:00	7	Dirección del viento	0
45467	7	Sololá	710	Panajachel	8	Panajachel	6	Junio	2023-06-28T00:00:00	2024-11-08T12:00:00	1	Precipitación	0
45468	7	Sololá	710	Panajachel	8	Panajachel	6	Junio	2023-06-28T00:00:00	2024-11-08T12:00:00	8	Radiación solar	973
45469	7	Sololá	710	Panajachel	8	Panajachel	6	Junio	2023-06-28T00:00:00	2024-11-08T13:00:00	2	Temperatura media	24.8
45470	7	Sololá	710	Panajachel	8	Panajachel	6	Junio	2023-06-28T00:00:00	2024-11-08T13:00:00	4	Temperatura máxima	24.8
45471	7	Sololá	710	Panajachel	8	Panajachel	6	Junio	2023-06-28T00:00:00	2024-11-08T13:00:00	3	Temperatura mínima	22.9
45472	7	Sololá	710	Panajachel	8	Panajachel	6	Junio	2023-06-28T00:00:00	2024-11-08T13:00:00	5	Humedad	71
45473	7	Sololá	710	Panajachel	8	Panajachel	6	Junio	2023-06-28T00:00:00	2024-11-08T13:00:00	6	Velocidad del viento	0
45474	7	Sololá	710	Panajachel	8	Panajachel	6	Junio	2023-06-28T00:00:00	2024-11-08T13:00:00	7	Dirección del viento	0
45475	7	Sololá	710	Panajachel	8	Panajachel	6	Junio	2023-06-28T00:00:00	2024-11-08T13:00:00	1	Precipitación	0
45476	7	Sololá	710	Panajachel	8	Panajachel	6	Junio	2023-06-28T00:00:00	2024-11-08T13:00:00	8	Radiación solar	966
45477	7	Sololá	710	Panajachel	8	Panajachel	6	Junio	2023-06-28T00:00:00	2024-11-08T14:00:00	2	Temperatura media	24.9
45478	7	Sololá	710	Panajachel	8	Panajachel	6	Junio	2023-06-28T00:00:00	2024-11-08T14:00:00	4	Temperatura máxima	25.3
45479	7	Sololá	710	Panajachel	8	Panajachel	6	Junio	2023-06-28T00:00:00	2024-11-08T14:00:00	3	Temperatura mínima	24.7
45480	7	Sololá	710	Panajachel	8	Panajachel	6	Junio	2023-06-28T00:00:00	2024-11-08T14:00:00	5	Humedad	75
45481	7	Sololá	710	Panajachel	8	Panajachel	6	Junio	2023-06-28T00:00:00	2024-11-08T14:00:00	6	Velocidad del viento	1.6
45482	7	Sololá	710	Panajachel	8	Panajachel	6	Junio	2023-06-28T00:00:00	2024-11-08T14:00:00	7	Dirección del viento	1.61
45483	7	Sololá	710	Panajachel	8	Panajachel	6	Junio	2023-06-28T00:00:00	2024-11-08T14:00:00	1	Precipitación	0
45484	7	Sololá	710	Panajachel	8	Panajachel	6	Junio	2023-06-28T00:00:00	2024-11-08T14:00:00	8	Radiación solar	912
45485	7	Sololá	710	Panajachel	8	Panajachel	6	Junio	2023-06-28T00:00:00	2024-11-08T15:00:00	2	Temperatura media	22.9
45486	7	Sololá	710	Panajachel	8	Panajachel	6	Junio	2023-06-28T00:00:00	2024-11-08T15:00:00	4	Temperatura máxima	25.8
45487	7	Sololá	710	Panajachel	8	Panajachel	6	Junio	2023-06-28T00:00:00	2024-11-08T15:00:00	3	Temperatura mínima	22.9
45488	7	Sololá	710	Panajachel	8	Panajachel	6	Junio	2023-06-28T00:00:00	2024-11-08T15:00:00	5	Humedad	84
45489	7	Sololá	710	Panajachel	8	Panajachel	6	Junio	2023-06-28T00:00:00	2024-11-08T15:00:00	6	Velocidad del viento	1.6
45490	7	Sololá	710	Panajachel	8	Panajachel	6	Junio	2023-06-28T00:00:00	2024-11-08T15:00:00	7	Dirección del viento	1.61
45491	7	Sololá	710	Panajachel	8	Panajachel	6	Junio	2023-06-28T00:00:00	2024-11-08T15:00:00	1	Precipitación	0
45492	7	Sololá	710	Panajachel	8	Panajachel	6	Junio	2023-06-28T00:00:00	2024-11-08T15:00:00	8	Radiación solar	490
45493	7	Sololá	710	Panajachel	8	Panajachel	6	Junio	2023-06-28T00:00:00	2024-11-08T16:00:00	2	Temperatura media	21.7
45494	7	Sololá	710	Panajachel	8	Panajachel	6	Junio	2023-06-28T00:00:00	2024-11-08T16:00:00	4	Temperatura máxima	23
45495	7	Sololá	710	Panajachel	8	Panajachel	6	Junio	2023-06-28T00:00:00	2024-11-08T16:00:00	3	Temperatura mínima	21.7
45496	7	Sololá	710	Panajachel	8	Panajachel	6	Junio	2023-06-28T00:00:00	2024-11-08T16:00:00	5	Humedad	88
45497	7	Sololá	710	Panajachel	8	Panajachel	6	Junio	2023-06-28T00:00:00	2024-11-08T16:00:00	6	Velocidad del viento	1.6
45498	7	Sololá	710	Panajachel	8	Panajachel	6	Junio	2023-06-28T00:00:00	2024-11-08T16:00:00	7	Dirección del viento	1.61
45499	7	Sololá	710	Panajachel	8	Panajachel	6	Junio	2023-06-28T00:00:00	2024-11-08T16:00:00	1	Precipitación	0.2
45500	7	Sololá	710	Panajachel	8	Panajachel	6	Junio	2023-06-28T00:00:00	2024-11-08T16:00:00	8	Radiación solar	203
45501	7	Sololá	710	Panajachel	8	Panajachel	6	Junio	2023-06-28T00:00:00	2024-11-08T17:00:00	2	Temperatura media	19.5
45502	7	Sololá	710	Panajachel	8	Panajachel	6	Junio	2023-06-28T00:00:00	2024-11-08T17:00:00	4	Temperatura máxima	21.7
45503	7	Sololá	710	Panajachel	8	Panajachel	6	Junio	2023-06-28T00:00:00	2024-11-08T17:00:00	3	Temperatura mínima	19.4
45504	7	Sololá	710	Panajachel	8	Panajachel	6	Junio	2023-06-28T00:00:00	2024-11-08T17:00:00	5	Humedad	96
45505	7	Sololá	710	Panajachel	8	Panajachel	6	Junio	2023-06-28T00:00:00	2024-11-08T17:00:00	6	Velocidad del viento	1.6
45506	7	Sololá	710	Panajachel	8	Panajachel	6	Junio	2023-06-28T00:00:00	2024-11-08T17:00:00	7	Dirección del viento	1.61
45507	7	Sololá	710	Panajachel	8	Panajachel	6	Junio	2023-06-28T00:00:00	2024-11-08T17:00:00	1	Precipitación	3.4
45508	7	Sololá	710	Panajachel	8	Panajachel	6	Junio	2023-06-28T00:00:00	2024-11-08T17:00:00	8	Radiación solar	8
45509	7	Sololá	710	Panajachel	8	Panajachel	6	Junio	2023-06-28T00:00:00	2024-11-08T18:00:00	2	Temperatura media	19.4
45510	7	Sololá	710	Panajachel	8	Panajachel	6	Junio	2023-06-28T00:00:00	2024-11-08T18:00:00	4	Temperatura máxima	19.6
45511	7	Sololá	710	Panajachel	8	Panajachel	6	Junio	2023-06-28T00:00:00	2024-11-08T18:00:00	3	Temperatura mínima	19.2
45512	7	Sololá	710	Panajachel	8	Panajachel	6	Junio	2023-06-28T00:00:00	2024-11-08T18:00:00	5	Humedad	96
45513	7	Sololá	710	Panajachel	8	Panajachel	6	Junio	2023-06-28T00:00:00	2024-11-08T18:00:00	6	Velocidad del viento	0
45514	7	Sololá	710	Panajachel	8	Panajachel	6	Junio	2023-06-28T00:00:00	2024-11-08T18:00:00	7	Dirección del viento	0
45515	7	Sololá	710	Panajachel	8	Panajachel	6	Junio	2023-06-28T00:00:00	2024-11-08T18:00:00	1	Precipitación	4
45516	7	Sololá	710	Panajachel	8	Panajachel	6	Junio	2023-06-28T00:00:00	2024-11-08T18:00:00	8	Radiación solar	11
45517	7	Sololá	710	Panajachel	8	Panajachel	6	Junio	2023-06-28T00:00:00	2024-11-08T19:00:00	2	Temperatura media	19.3
45518	7	Sololá	710	Panajachel	8	Panajachel	6	Junio	2023-06-28T00:00:00	2024-11-08T19:00:00	4	Temperatura máxima	19.7
45519	7	Sololá	710	Panajachel	8	Panajachel	6	Junio	2023-06-28T00:00:00	2024-11-08T19:00:00	3	Temperatura mínima	19.3
45520	7	Sololá	710	Panajachel	8	Panajachel	6	Junio	2023-06-28T00:00:00	2024-11-08T19:00:00	5	Humedad	96
45521	7	Sololá	710	Panajachel	8	Panajachel	6	Junio	2023-06-28T00:00:00	2024-11-08T19:00:00	6	Velocidad del viento	0
45522	7	Sololá	710	Panajachel	8	Panajachel	6	Junio	2023-06-28T00:00:00	2024-11-08T19:00:00	7	Dirección del viento	0
45523	7	Sololá	710	Panajachel	8	Panajachel	6	Junio	2023-06-28T00:00:00	2024-11-08T19:00:00	1	Precipitación	0.2
45524	7	Sololá	710	Panajachel	8	Panajachel	6	Junio	2023-06-28T00:00:00	2024-11-08T19:00:00	8	Radiación solar	0
45525	7	Sololá	710	Panajachel	8	Panajachel	6	Junio	2023-06-28T00:00:00	2024-11-08T20:00:00	2	Temperatura media	18.7
45526	7	Sololá	710	Panajachel	8	Panajachel	6	Junio	2023-06-28T00:00:00	2024-11-08T20:00:00	4	Temperatura máxima	19.3
45527	7	Sololá	710	Panajachel	8	Panajachel	6	Junio	2023-06-28T00:00:00	2024-11-08T20:00:00	3	Temperatura mínima	18.7
45528	7	Sololá	710	Panajachel	8	Panajachel	6	Junio	2023-06-28T00:00:00	2024-11-08T20:00:00	5	Humedad	95
45529	7	Sololá	710	Panajachel	8	Panajachel	6	Junio	2023-06-28T00:00:00	2024-11-08T20:00:00	6	Velocidad del viento	0
45530	7	Sololá	710	Panajachel	8	Panajachel	6	Junio	2023-06-28T00:00:00	2024-11-08T20:00:00	7	Dirección del viento	0
45531	7	Sololá	710	Panajachel	8	Panajachel	6	Junio	2023-06-28T00:00:00	2024-11-08T20:00:00	1	Precipitación	0
45532	7	Sololá	710	Panajachel	8	Panajachel	6	Junio	2023-06-28T00:00:00	2024-11-08T20:00:00	8	Radiación solar	0
45533	7	Sololá	710	Panajachel	8	Panajachel	6	Junio	2023-06-28T00:00:00	2024-11-08T21:00:00	2	Temperatura media	18.4
45534	7	Sololá	710	Panajachel	8	Panajachel	6	Junio	2023-06-28T00:00:00	2024-11-08T21:00:00	4	Temperatura máxima	18.7
45535	7	Sololá	710	Panajachel	8	Panajachel	6	Junio	2023-06-28T00:00:00	2024-11-08T21:00:00	3	Temperatura mínima	18.3
45536	7	Sololá	710	Panajachel	8	Panajachel	6	Junio	2023-06-28T00:00:00	2024-11-08T21:00:00	5	Humedad	95
45537	7	Sololá	710	Panajachel	8	Panajachel	6	Junio	2023-06-28T00:00:00	2024-11-08T21:00:00	6	Velocidad del viento	0
45538	7	Sololá	710	Panajachel	8	Panajachel	6	Junio	2023-06-28T00:00:00	2024-11-08T21:00:00	7	Dirección del viento	0
45539	7	Sololá	710	Panajachel	8	Panajachel	6	Junio	2023-06-28T00:00:00	2024-11-08T21:00:00	1	Precipitación	0
45540	7	Sololá	710	Panajachel	8	Panajachel	6	Junio	2023-06-28T00:00:00	2024-11-08T21:00:00	8	Radiación solar	0
45541	7	Sololá	710	Panajachel	8	Panajachel	6	Junio	2023-06-28T00:00:00	2024-11-08T22:00:00	2	Temperatura media	18.2
45542	7	Sololá	710	Panajachel	8	Panajachel	6	Junio	2023-06-28T00:00:00	2024-11-08T22:00:00	4	Temperatura máxima	18.4
45543	7	Sololá	710	Panajachel	8	Panajachel	6	Junio	2023-06-28T00:00:00	2024-11-08T22:00:00	3	Temperatura mínima	18.1
45544	7	Sololá	710	Panajachel	8	Panajachel	6	Junio	2023-06-28T00:00:00	2024-11-08T22:00:00	5	Humedad	94
45545	7	Sololá	710	Panajachel	8	Panajachel	6	Junio	2023-06-28T00:00:00	2024-11-08T22:00:00	6	Velocidad del viento	0
45546	7	Sololá	710	Panajachel	8	Panajachel	6	Junio	2023-06-28T00:00:00	2024-11-08T22:00:00	7	Dirección del viento	0
45547	7	Sololá	710	Panajachel	8	Panajachel	6	Junio	2023-06-28T00:00:00	2024-11-08T22:00:00	1	Precipitación	0
45548	7	Sololá	710	Panajachel	8	Panajachel	6	Junio	2023-06-28T00:00:00	2024-11-08T22:00:00	8	Radiación solar	0
45549	7	Sololá	710	Panajachel	8	Panajachel	6	Junio	2023-06-28T00:00:00	2024-11-08T23:00:00	2	Temperatura media	18.2
45550	7	Sololá	710	Panajachel	8	Panajachel	6	Junio	2023-06-28T00:00:00	2024-11-08T23:00:00	4	Temperatura máxima	18.4
45551	7	Sololá	710	Panajachel	8	Panajachel	6	Junio	2023-06-28T00:00:00	2024-11-08T23:00:00	3	Temperatura mínima	18.1
45552	7	Sololá	710	Panajachel	8	Panajachel	6	Junio	2023-06-28T00:00:00	2024-11-08T23:00:00	5	Humedad	94
45553	7	Sololá	710	Panajachel	8	Panajachel	6	Junio	2023-06-28T00:00:00	2024-11-08T23:00:00	6	Velocidad del viento	0
45554	7	Sololá	710	Panajachel	8	Panajachel	6	Junio	2023-06-28T00:00:00	2024-11-08T23:00:00	7	Dirección del viento	0
45555	7	Sololá	710	Panajachel	8	Panajachel	6	Junio	2023-06-28T00:00:00	2024-11-08T23:00:00	1	Precipitación	0
45556	7	Sololá	710	Panajachel	8	Panajachel	6	Junio	2023-06-28T00:00:00	2024-11-08T23:00:00	8	Radiación solar	0
45557	7	Sololá	710	Panajachel	8	Panajachel	6	Junio	2023-06-29T00:00:00	2024-11-08T00:00:00	2	Temperatura media	18.4
45558	7	Sololá	710	Panajachel	8	Panajachel	6	Junio	2023-06-29T00:00:00	2024-11-08T00:00:00	4	Temperatura máxima	18.4
45559	7	Sololá	710	Panajachel	8	Panajachel	6	Junio	2023-06-29T00:00:00	2024-11-08T00:00:00	3	Temperatura mínima	18.2
45560	7	Sololá	710	Panajachel	8	Panajachel	6	Junio	2023-06-29T00:00:00	2024-11-08T00:00:00	5	Humedad	93
45561	7	Sololá	710	Panajachel	8	Panajachel	6	Junio	2023-06-29T00:00:00	2024-11-08T00:00:00	6	Velocidad del viento	0
45562	7	Sololá	710	Panajachel	8	Panajachel	6	Junio	2023-06-29T00:00:00	2024-11-08T00:00:00	7	Dirección del viento	0
45563	7	Sololá	710	Panajachel	8	Panajachel	6	Junio	2023-06-29T00:00:00	2024-11-08T00:00:00	1	Precipitación	0
45564	7	Sololá	710	Panajachel	8	Panajachel	6	Junio	2023-06-29T00:00:00	2024-11-08T00:00:00	8	Radiación solar	0
45565	7	Sololá	710	Panajachel	8	Panajachel	6	Junio	2023-06-29T00:00:00	2024-11-08T01:00:00	2	Temperatura media	18.2
45566	7	Sololá	710	Panajachel	8	Panajachel	6	Junio	2023-06-29T00:00:00	2024-11-08T01:00:00	4	Temperatura máxima	18.4
45567	7	Sololá	710	Panajachel	8	Panajachel	6	Junio	2023-06-29T00:00:00	2024-11-08T01:00:00	3	Temperatura mínima	18.2
45568	7	Sololá	710	Panajachel	8	Panajachel	6	Junio	2023-06-29T00:00:00	2024-11-08T01:00:00	5	Humedad	94
45569	7	Sololá	710	Panajachel	8	Panajachel	6	Junio	2023-06-29T00:00:00	2024-11-08T01:00:00	6	Velocidad del viento	0
45570	7	Sololá	710	Panajachel	8	Panajachel	6	Junio	2023-06-29T00:00:00	2024-11-08T01:00:00	7	Dirección del viento	0
45571	7	Sololá	710	Panajachel	8	Panajachel	6	Junio	2023-06-29T00:00:00	2024-11-08T01:00:00	1	Precipitación	0
45572	7	Sololá	710	Panajachel	8	Panajachel	6	Junio	2023-06-29T00:00:00	2024-11-08T01:00:00	8	Radiación solar	0
45573	7	Sololá	710	Panajachel	8	Panajachel	6	Junio	2023-06-29T00:00:00	2024-11-08T02:00:00	2	Temperatura media	18.3
45574	7	Sololá	710	Panajachel	8	Panajachel	6	Junio	2023-06-29T00:00:00	2024-11-08T02:00:00	4	Temperatura máxima	18.6
45575	7	Sololá	710	Panajachel	8	Panajachel	6	Junio	2023-06-29T00:00:00	2024-11-08T02:00:00	3	Temperatura mínima	18.2
45576	7	Sololá	710	Panajachel	8	Panajachel	6	Junio	2023-06-29T00:00:00	2024-11-08T02:00:00	5	Humedad	91
45577	7	Sololá	710	Panajachel	8	Panajachel	6	Junio	2023-06-29T00:00:00	2024-11-08T02:00:00	6	Velocidad del viento	1.6
45578	7	Sololá	710	Panajachel	8	Panajachel	6	Junio	2023-06-29T00:00:00	2024-11-08T02:00:00	7	Dirección del viento	1.61
45579	7	Sololá	710	Panajachel	8	Panajachel	6	Junio	2023-06-29T00:00:00	2024-11-08T02:00:00	1	Precipitación	0
45580	7	Sololá	710	Panajachel	8	Panajachel	6	Junio	2023-06-29T00:00:00	2024-11-08T02:00:00	8	Radiación solar	0
45581	7	Sololá	710	Panajachel	8	Panajachel	6	Junio	2023-06-29T00:00:00	2024-11-08T03:00:00	2	Temperatura media	18
45582	7	Sololá	710	Panajachel	8	Panajachel	6	Junio	2023-06-29T00:00:00	2024-11-08T03:00:00	4	Temperatura máxima	18.4
45583	7	Sololá	710	Panajachel	8	Panajachel	6	Junio	2023-06-29T00:00:00	2024-11-08T03:00:00	3	Temperatura mínima	18
45584	7	Sololá	710	Panajachel	8	Panajachel	6	Junio	2023-06-29T00:00:00	2024-11-08T03:00:00	5	Humedad	92
45585	7	Sololá	710	Panajachel	8	Panajachel	6	Junio	2023-06-29T00:00:00	2024-11-08T03:00:00	6	Velocidad del viento	0
45586	7	Sololá	710	Panajachel	8	Panajachel	6	Junio	2023-06-29T00:00:00	2024-11-08T03:00:00	7	Dirección del viento	0
45587	7	Sololá	710	Panajachel	8	Panajachel	6	Junio	2023-06-29T00:00:00	2024-11-08T03:00:00	1	Precipitación	0
45588	7	Sololá	710	Panajachel	8	Panajachel	6	Junio	2023-06-29T00:00:00	2024-11-08T03:00:00	8	Radiación solar	0
45589	7	Sololá	710	Panajachel	8	Panajachel	6	Junio	2023-06-29T00:00:00	2024-11-08T04:00:00	2	Temperatura media	17.9
45590	7	Sololá	710	Panajachel	8	Panajachel	6	Junio	2023-06-29T00:00:00	2024-11-08T04:00:00	4	Temperatura máxima	18.1
45591	7	Sololá	710	Panajachel	8	Panajachel	6	Junio	2023-06-29T00:00:00	2024-11-08T04:00:00	3	Temperatura mínima	17.8
45592	7	Sololá	710	Panajachel	8	Panajachel	6	Junio	2023-06-29T00:00:00	2024-11-08T04:00:00	5	Humedad	91
45593	7	Sololá	710	Panajachel	8	Panajachel	6	Junio	2023-06-29T00:00:00	2024-11-08T04:00:00	6	Velocidad del viento	1.6
45594	7	Sololá	710	Panajachel	8	Panajachel	6	Junio	2023-06-29T00:00:00	2024-11-08T04:00:00	7	Dirección del viento	1.61
45595	7	Sololá	710	Panajachel	8	Panajachel	6	Junio	2023-06-29T00:00:00	2024-11-08T04:00:00	1	Precipitación	0
45596	7	Sololá	710	Panajachel	8	Panajachel	6	Junio	2023-06-29T00:00:00	2024-11-08T04:00:00	8	Radiación solar	0
45597	7	Sololá	710	Panajachel	8	Panajachel	6	Junio	2023-06-29T00:00:00	2024-11-08T05:00:00	2	Temperatura media	17.9
45598	7	Sololá	710	Panajachel	8	Panajachel	6	Junio	2023-06-29T00:00:00	2024-11-08T05:00:00	4	Temperatura máxima	18
45599	7	Sololá	710	Panajachel	8	Panajachel	6	Junio	2023-06-29T00:00:00	2024-11-08T05:00:00	3	Temperatura mínima	17.8
45600	7	Sololá	710	Panajachel	8	Panajachel	6	Junio	2023-06-29T00:00:00	2024-11-08T05:00:00	5	Humedad	90
45601	7	Sololá	710	Panajachel	8	Panajachel	6	Junio	2023-06-29T00:00:00	2024-11-08T05:00:00	6	Velocidad del viento	1.6
45602	7	Sololá	710	Panajachel	8	Panajachel	6	Junio	2023-06-29T00:00:00	2024-11-08T05:00:00	7	Dirección del viento	1.61
45603	7	Sololá	710	Panajachel	8	Panajachel	6	Junio	2023-06-29T00:00:00	2024-11-08T05:00:00	1	Precipitación	0
45604	7	Sololá	710	Panajachel	8	Panajachel	6	Junio	2023-06-29T00:00:00	2024-11-08T05:00:00	8	Radiación solar	0
45605	7	Sololá	710	Panajachel	8	Panajachel	6	Junio	2023-06-29T00:00:00	2024-11-08T06:00:00	2	Temperatura media	18.8
45606	7	Sololá	710	Panajachel	8	Panajachel	6	Junio	2023-06-29T00:00:00	2024-11-08T06:00:00	4	Temperatura máxima	18.8
45607	7	Sololá	710	Panajachel	8	Panajachel	6	Junio	2023-06-29T00:00:00	2024-11-08T06:00:00	3	Temperatura mínima	17.8
45608	7	Sololá	710	Panajachel	8	Panajachel	6	Junio	2023-06-29T00:00:00	2024-11-08T06:00:00	5	Humedad	86
45609	7	Sololá	710	Panajachel	8	Panajachel	6	Junio	2023-06-29T00:00:00	2024-11-08T06:00:00	6	Velocidad del viento	1.6
45610	7	Sololá	710	Panajachel	8	Panajachel	6	Junio	2023-06-29T00:00:00	2024-11-08T06:00:00	7	Dirección del viento	1.61
45611	7	Sololá	710	Panajachel	8	Panajachel	6	Junio	2023-06-29T00:00:00	2024-11-08T06:00:00	1	Precipitación	0
45612	7	Sololá	710	Panajachel	8	Panajachel	6	Junio	2023-06-29T00:00:00	2024-11-08T06:00:00	8	Radiación solar	0
45613	7	Sololá	710	Panajachel	8	Panajachel	6	Junio	2023-06-29T00:00:00	2024-11-08T07:00:00	2	Temperatura media	20.1
45614	7	Sololá	710	Panajachel	8	Panajachel	6	Junio	2023-06-29T00:00:00	2024-11-08T07:00:00	4	Temperatura máxima	20.1
45615	7	Sololá	710	Panajachel	8	Panajachel	6	Junio	2023-06-29T00:00:00	2024-11-08T07:00:00	3	Temperatura mínima	18.8
45616	7	Sololá	710	Panajachel	8	Panajachel	6	Junio	2023-06-29T00:00:00	2024-11-08T07:00:00	5	Humedad	84
45617	7	Sololá	710	Panajachel	8	Panajachel	6	Junio	2023-06-29T00:00:00	2024-11-08T07:00:00	6	Velocidad del viento	0
45618	7	Sololá	710	Panajachel	8	Panajachel	6	Junio	2023-06-29T00:00:00	2024-11-08T07:00:00	7	Dirección del viento	0
45619	7	Sololá	710	Panajachel	8	Panajachel	6	Junio	2023-06-29T00:00:00	2024-11-08T07:00:00	1	Precipitación	0
45620	7	Sololá	710	Panajachel	8	Panajachel	6	Junio	2023-06-29T00:00:00	2024-11-08T07:00:00	8	Radiación solar	61
45621	7	Sololá	710	Panajachel	8	Panajachel	6	Junio	2023-06-29T00:00:00	2024-11-08T08:00:00	2	Temperatura media	22
45622	7	Sololá	710	Panajachel	8	Panajachel	6	Junio	2023-06-29T00:00:00	2024-11-08T08:00:00	4	Temperatura máxima	22
45623	7	Sololá	710	Panajachel	8	Panajachel	6	Junio	2023-06-29T00:00:00	2024-11-08T08:00:00	3	Temperatura mínima	20.1
45624	7	Sololá	710	Panajachel	8	Panajachel	6	Junio	2023-06-29T00:00:00	2024-11-08T08:00:00	5	Humedad	82
45625	7	Sololá	710	Panajachel	8	Panajachel	6	Junio	2023-06-29T00:00:00	2024-11-08T08:00:00	6	Velocidad del viento	0
45626	7	Sololá	710	Panajachel	8	Panajachel	6	Junio	2023-06-29T00:00:00	2024-11-08T08:00:00	7	Dirección del viento	0
45627	7	Sololá	710	Panajachel	8	Panajachel	6	Junio	2023-06-29T00:00:00	2024-11-08T08:00:00	1	Precipitación	0
45628	7	Sololá	710	Panajachel	8	Panajachel	6	Junio	2023-06-29T00:00:00	2024-11-08T08:00:00	8	Radiación solar	257
45629	7	Sololá	710	Panajachel	8	Panajachel	6	Junio	2023-06-29T00:00:00	2024-11-08T09:00:00	2	Temperatura media	23.2
45630	7	Sololá	710	Panajachel	8	Panajachel	6	Junio	2023-06-29T00:00:00	2024-11-08T09:00:00	4	Temperatura máxima	23.2
45631	7	Sololá	710	Panajachel	8	Panajachel	6	Junio	2023-06-29T00:00:00	2024-11-08T09:00:00	3	Temperatura mínima	21.8
45632	7	Sololá	710	Panajachel	8	Panajachel	6	Junio	2023-06-29T00:00:00	2024-11-08T09:00:00	5	Humedad	77
45633	7	Sololá	710	Panajachel	8	Panajachel	6	Junio	2023-06-29T00:00:00	2024-11-08T09:00:00	6	Velocidad del viento	0
45634	7	Sololá	710	Panajachel	8	Panajachel	6	Junio	2023-06-29T00:00:00	2024-11-08T09:00:00	7	Dirección del viento	0
45635	7	Sololá	710	Panajachel	8	Panajachel	6	Junio	2023-06-29T00:00:00	2024-11-08T09:00:00	1	Precipitación	0
45636	7	Sololá	710	Panajachel	8	Panajachel	6	Junio	2023-06-29T00:00:00	2024-11-08T09:00:00	8	Radiación solar	355
45637	7	Sololá	710	Panajachel	8	Panajachel	6	Junio	2023-06-29T00:00:00	2024-11-08T10:00:00	2	Temperatura media	23.8
45638	7	Sololá	710	Panajachel	8	Panajachel	6	Junio	2023-06-29T00:00:00	2024-11-08T10:00:00	4	Temperatura máxima	24.5
45639	7	Sololá	710	Panajachel	8	Panajachel	6	Junio	2023-06-29T00:00:00	2024-11-08T10:00:00	3	Temperatura mínima	23.2
45640	7	Sololá	710	Panajachel	8	Panajachel	6	Junio	2023-06-29T00:00:00	2024-11-08T10:00:00	5	Humedad	80
45641	7	Sololá	710	Panajachel	8	Panajachel	6	Junio	2023-06-29T00:00:00	2024-11-08T10:00:00	6	Velocidad del viento	0
45642	7	Sololá	710	Panajachel	8	Panajachel	6	Junio	2023-06-29T00:00:00	2024-11-08T10:00:00	7	Dirección del viento	0
45643	7	Sololá	710	Panajachel	8	Panajachel	6	Junio	2023-06-29T00:00:00	2024-11-08T10:00:00	1	Precipitación	0
45644	7	Sololá	710	Panajachel	8	Panajachel	6	Junio	2023-06-29T00:00:00	2024-11-08T10:00:00	8	Radiación solar	716
45645	7	Sololá	710	Panajachel	8	Panajachel	6	Junio	2023-06-29T00:00:00	2024-11-08T11:00:00	2	Temperatura media	23.1
45646	7	Sololá	710	Panajachel	8	Panajachel	6	Junio	2023-06-29T00:00:00	2024-11-08T11:00:00	4	Temperatura máxima	23.9
45647	7	Sololá	710	Panajachel	8	Panajachel	6	Junio	2023-06-29T00:00:00	2024-11-08T11:00:00	3	Temperatura mínima	23.1
45648	7	Sololá	710	Panajachel	8	Panajachel	6	Junio	2023-06-29T00:00:00	2024-11-08T11:00:00	5	Humedad	83
45649	7	Sololá	710	Panajachel	8	Panajachel	6	Junio	2023-06-29T00:00:00	2024-11-08T11:00:00	6	Velocidad del viento	1.6
45650	7	Sololá	710	Panajachel	8	Panajachel	6	Junio	2023-06-29T00:00:00	2024-11-08T11:00:00	7	Dirección del viento	1.61
45651	7	Sololá	710	Panajachel	8	Panajachel	6	Junio	2023-06-29T00:00:00	2024-11-08T11:00:00	1	Precipitación	0
45652	7	Sololá	710	Panajachel	8	Panajachel	6	Junio	2023-06-29T00:00:00	2024-11-08T11:00:00	8	Radiación solar	667
45653	7	Sololá	710	Panajachel	8	Panajachel	6	Junio	2023-06-29T00:00:00	2024-11-08T12:00:00	2	Temperatura media	22.7
45654	7	Sololá	710	Panajachel	8	Panajachel	6	Junio	2023-06-29T00:00:00	2024-11-08T12:00:00	4	Temperatura máxima	23.4
45655	7	Sololá	710	Panajachel	8	Panajachel	6	Junio	2023-06-29T00:00:00	2024-11-08T12:00:00	3	Temperatura mínima	22.4
45656	7	Sololá	710	Panajachel	8	Panajachel	6	Junio	2023-06-29T00:00:00	2024-11-08T12:00:00	5	Humedad	83
45657	7	Sololá	710	Panajachel	8	Panajachel	6	Junio	2023-06-29T00:00:00	2024-11-08T12:00:00	6	Velocidad del viento	1.6
45658	7	Sololá	710	Panajachel	8	Panajachel	6	Junio	2023-06-29T00:00:00	2024-11-08T12:00:00	7	Dirección del viento	1.61
45659	7	Sololá	710	Panajachel	8	Panajachel	6	Junio	2023-06-29T00:00:00	2024-11-08T12:00:00	1	Precipitación	0
45660	7	Sololá	710	Panajachel	8	Panajachel	6	Junio	2023-06-29T00:00:00	2024-11-08T12:00:00	8	Radiación solar	275
45661	7	Sololá	710	Panajachel	8	Panajachel	6	Junio	2023-06-29T00:00:00	2024-11-08T13:00:00	2	Temperatura media	25.2
45662	7	Sololá	710	Panajachel	8	Panajachel	6	Junio	2023-06-29T00:00:00	2024-11-08T13:00:00	4	Temperatura máxima	25.2
45663	7	Sololá	710	Panajachel	8	Panajachel	6	Junio	2023-06-29T00:00:00	2024-11-08T13:00:00	3	Temperatura mínima	22.6
45664	7	Sololá	710	Panajachel	8	Panajachel	6	Junio	2023-06-29T00:00:00	2024-11-08T13:00:00	5	Humedad	76
45665	7	Sololá	710	Panajachel	8	Panajachel	6	Junio	2023-06-29T00:00:00	2024-11-08T13:00:00	6	Velocidad del viento	0
45666	7	Sololá	710	Panajachel	8	Panajachel	6	Junio	2023-06-29T00:00:00	2024-11-08T13:00:00	7	Dirección del viento	0
45667	7	Sololá	710	Panajachel	8	Panajachel	6	Junio	2023-06-29T00:00:00	2024-11-08T13:00:00	1	Precipitación	0
45668	7	Sololá	710	Panajachel	8	Panajachel	6	Junio	2023-06-29T00:00:00	2024-11-08T13:00:00	8	Radiación solar	720
45669	7	Sololá	710	Panajachel	8	Panajachel	6	Junio	2023-06-29T00:00:00	2024-11-08T14:00:00	2	Temperatura media	22.1
45670	7	Sololá	710	Panajachel	8	Panajachel	6	Junio	2023-06-29T00:00:00	2024-11-08T14:00:00	4	Temperatura máxima	25.2
45671	7	Sololá	710	Panajachel	8	Panajachel	6	Junio	2023-06-29T00:00:00	2024-11-08T14:00:00	3	Temperatura mínima	22.1
45672	7	Sololá	710	Panajachel	8	Panajachel	6	Junio	2023-06-29T00:00:00	2024-11-08T14:00:00	5	Humedad	87
45673	7	Sololá	710	Panajachel	8	Panajachel	6	Junio	2023-06-29T00:00:00	2024-11-08T14:00:00	6	Velocidad del viento	0
45674	7	Sololá	710	Panajachel	8	Panajachel	6	Junio	2023-06-29T00:00:00	2024-11-08T14:00:00	7	Dirección del viento	0
45675	7	Sololá	710	Panajachel	8	Panajachel	6	Junio	2023-06-29T00:00:00	2024-11-08T14:00:00	1	Precipitación	1.4
45676	7	Sololá	710	Panajachel	8	Panajachel	6	Junio	2023-06-29T00:00:00	2024-11-08T14:00:00	8	Radiación solar	442
45677	7	Sololá	710	Panajachel	8	Panajachel	6	Junio	2023-06-29T00:00:00	2024-11-08T15:00:00	2	Temperatura media	23.1
45678	7	Sololá	710	Panajachel	8	Panajachel	6	Junio	2023-06-29T00:00:00	2024-11-08T15:00:00	4	Temperatura máxima	23.7
45679	7	Sololá	710	Panajachel	8	Panajachel	6	Junio	2023-06-29T00:00:00	2024-11-08T15:00:00	3	Temperatura mínima	22.1
45680	7	Sololá	710	Panajachel	8	Panajachel	6	Junio	2023-06-29T00:00:00	2024-11-08T15:00:00	5	Humedad	85
45681	7	Sololá	710	Panajachel	8	Panajachel	6	Junio	2023-06-29T00:00:00	2024-11-08T15:00:00	6	Velocidad del viento	0
45682	7	Sololá	710	Panajachel	8	Panajachel	6	Junio	2023-06-29T00:00:00	2024-11-08T15:00:00	7	Dirección del viento	0
45683	7	Sololá	710	Panajachel	8	Panajachel	6	Junio	2023-06-29T00:00:00	2024-11-08T15:00:00	1	Precipitación	0
45684	7	Sololá	710	Panajachel	8	Panajachel	6	Junio	2023-06-29T00:00:00	2024-11-08T15:00:00	8	Radiación solar	470
45685	7	Sololá	710	Panajachel	8	Panajachel	6	Junio	2023-06-29T00:00:00	2024-11-08T16:00:00	2	Temperatura media	20.5
45686	7	Sololá	710	Panajachel	8	Panajachel	6	Junio	2023-06-29T00:00:00	2024-11-08T16:00:00	4	Temperatura máxima	23.7
45687	7	Sololá	710	Panajachel	8	Panajachel	6	Junio	2023-06-29T00:00:00	2024-11-08T16:00:00	3	Temperatura mínima	20.5
45688	7	Sololá	710	Panajachel	8	Panajachel	6	Junio	2023-06-29T00:00:00	2024-11-08T16:00:00	5	Humedad	92
45689	7	Sololá	710	Panajachel	8	Panajachel	6	Junio	2023-06-29T00:00:00	2024-11-08T16:00:00	6	Velocidad del viento	1.6
45690	7	Sololá	710	Panajachel	8	Panajachel	6	Junio	2023-06-29T00:00:00	2024-11-08T16:00:00	7	Dirección del viento	1.61
45691	7	Sololá	710	Panajachel	8	Panajachel	6	Junio	2023-06-29T00:00:00	2024-11-08T16:00:00	1	Precipitación	6
45692	7	Sololá	710	Panajachel	8	Panajachel	6	Junio	2023-06-29T00:00:00	2024-11-08T16:00:00	8	Radiación solar	172
45693	7	Sololá	710	Panajachel	8	Panajachel	6	Junio	2023-06-29T00:00:00	2024-11-08T17:00:00	2	Temperatura media	19.6
45694	7	Sololá	710	Panajachel	8	Panajachel	6	Junio	2023-06-29T00:00:00	2024-11-08T17:00:00	4	Temperatura máxima	20.6
45695	7	Sololá	710	Panajachel	8	Panajachel	6	Junio	2023-06-29T00:00:00	2024-11-08T17:00:00	3	Temperatura mínima	19.5
45696	7	Sololá	710	Panajachel	8	Panajachel	6	Junio	2023-06-29T00:00:00	2024-11-08T17:00:00	5	Humedad	94
45697	7	Sololá	710	Panajachel	8	Panajachel	6	Junio	2023-06-29T00:00:00	2024-11-08T17:00:00	6	Velocidad del viento	4.8
45698	7	Sololá	710	Panajachel	8	Panajachel	6	Junio	2023-06-29T00:00:00	2024-11-08T17:00:00	7	Dirección del viento	4.83
45699	7	Sololá	710	Panajachel	8	Panajachel	6	Junio	2023-06-29T00:00:00	2024-11-08T17:00:00	1	Precipitación	5
45700	7	Sololá	710	Panajachel	8	Panajachel	6	Junio	2023-06-29T00:00:00	2024-11-08T17:00:00	8	Radiación solar	61
45701	7	Sololá	710	Panajachel	8	Panajachel	6	Junio	2023-06-29T00:00:00	2024-11-08T18:00:00	2	Temperatura media	19.5
45702	7	Sololá	710	Panajachel	8	Panajachel	6	Junio	2023-06-29T00:00:00	2024-11-08T18:00:00	4	Temperatura máxima	19.7
45703	7	Sololá	710	Panajachel	8	Panajachel	6	Junio	2023-06-29T00:00:00	2024-11-08T18:00:00	3	Temperatura mínima	19.3
45704	7	Sololá	710	Panajachel	8	Panajachel	6	Junio	2023-06-29T00:00:00	2024-11-08T18:00:00	5	Humedad	96
45705	7	Sololá	710	Panajachel	8	Panajachel	6	Junio	2023-06-29T00:00:00	2024-11-08T18:00:00	6	Velocidad del viento	0
45706	7	Sololá	710	Panajachel	8	Panajachel	6	Junio	2023-06-29T00:00:00	2024-11-08T18:00:00	7	Dirección del viento	0
45707	7	Sololá	710	Panajachel	8	Panajachel	6	Junio	2023-06-29T00:00:00	2024-11-08T18:00:00	1	Precipitación	1
45708	7	Sololá	710	Panajachel	8	Panajachel	6	Junio	2023-06-29T00:00:00	2024-11-08T18:00:00	8	Radiación solar	22
45709	7	Sololá	710	Panajachel	8	Panajachel	6	Junio	2023-06-29T00:00:00	2024-11-08T19:00:00	2	Temperatura media	20
45710	7	Sololá	710	Panajachel	8	Panajachel	6	Junio	2023-06-29T00:00:00	2024-11-08T19:00:00	4	Temperatura máxima	20.1
45711	7	Sololá	710	Panajachel	8	Panajachel	6	Junio	2023-06-29T00:00:00	2024-11-08T19:00:00	3	Temperatura mínima	19.4
45712	7	Sololá	710	Panajachel	8	Panajachel	6	Junio	2023-06-29T00:00:00	2024-11-08T19:00:00	5	Humedad	97
45713	7	Sololá	710	Panajachel	8	Panajachel	6	Junio	2023-06-29T00:00:00	2024-11-08T19:00:00	6	Velocidad del viento	0
45714	7	Sololá	710	Panajachel	8	Panajachel	6	Junio	2023-06-29T00:00:00	2024-11-08T19:00:00	7	Dirección del viento	0
45715	7	Sololá	710	Panajachel	8	Panajachel	6	Junio	2023-06-29T00:00:00	2024-11-08T19:00:00	1	Precipitación	0
45716	7	Sololá	710	Panajachel	8	Panajachel	6	Junio	2023-06-29T00:00:00	2024-11-08T19:00:00	8	Radiación solar	0
45717	7	Sololá	710	Panajachel	8	Panajachel	6	Junio	2023-06-29T00:00:00	2024-11-08T20:00:00	2	Temperatura media	19.7
45718	7	Sololá	710	Panajachel	8	Panajachel	6	Junio	2023-06-29T00:00:00	2024-11-08T20:00:00	4	Temperatura máxima	20
45719	7	Sololá	710	Panajachel	8	Panajachel	6	Junio	2023-06-29T00:00:00	2024-11-08T20:00:00	3	Temperatura mínima	19.6
45720	7	Sololá	710	Panajachel	8	Panajachel	6	Junio	2023-06-29T00:00:00	2024-11-08T20:00:00	5	Humedad	97
45721	7	Sololá	710	Panajachel	8	Panajachel	6	Junio	2023-06-29T00:00:00	2024-11-08T20:00:00	6	Velocidad del viento	0
45722	7	Sololá	710	Panajachel	8	Panajachel	6	Junio	2023-06-29T00:00:00	2024-11-08T20:00:00	7	Dirección del viento	0
45723	7	Sololá	710	Panajachel	8	Panajachel	6	Junio	2023-06-29T00:00:00	2024-11-08T20:00:00	1	Precipitación	0
45724	7	Sololá	710	Panajachel	8	Panajachel	6	Junio	2023-06-29T00:00:00	2024-11-08T20:00:00	8	Radiación solar	0
45725	7	Sololá	710	Panajachel	8	Panajachel	6	Junio	2023-06-29T00:00:00	2024-11-08T21:00:00	2	Temperatura media	18.8
45726	7	Sololá	710	Panajachel	8	Panajachel	6	Junio	2023-06-29T00:00:00	2024-11-08T21:00:00	4	Temperatura máxima	19.7
45727	7	Sololá	710	Panajachel	8	Panajachel	6	Junio	2023-06-29T00:00:00	2024-11-08T21:00:00	3	Temperatura mínima	18.8
45728	7	Sololá	710	Panajachel	8	Panajachel	6	Junio	2023-06-29T00:00:00	2024-11-08T21:00:00	5	Humedad	94
45729	7	Sololá	710	Panajachel	8	Panajachel	6	Junio	2023-06-29T00:00:00	2024-11-08T21:00:00	6	Velocidad del viento	0
45730	7	Sololá	710	Panajachel	8	Panajachel	6	Junio	2023-06-29T00:00:00	2024-11-08T21:00:00	7	Dirección del viento	0
45731	7	Sololá	710	Panajachel	8	Panajachel	6	Junio	2023-06-29T00:00:00	2024-11-08T21:00:00	1	Precipitación	0
45732	7	Sololá	710	Panajachel	8	Panajachel	6	Junio	2023-06-29T00:00:00	2024-11-08T21:00:00	8	Radiación solar	0
45733	7	Sololá	710	Panajachel	8	Panajachel	6	Junio	2023-06-29T00:00:00	2024-11-08T22:00:00	2	Temperatura media	18
45734	7	Sololá	710	Panajachel	8	Panajachel	6	Junio	2023-06-29T00:00:00	2024-11-08T22:00:00	4	Temperatura máxima	18.8
45735	7	Sololá	710	Panajachel	8	Panajachel	6	Junio	2023-06-29T00:00:00	2024-11-08T22:00:00	3	Temperatura mínima	17.9
45736	7	Sololá	710	Panajachel	8	Panajachel	6	Junio	2023-06-29T00:00:00	2024-11-08T22:00:00	5	Humedad	93
45737	7	Sololá	710	Panajachel	8	Panajachel	6	Junio	2023-06-29T00:00:00	2024-11-08T22:00:00	6	Velocidad del viento	0
45738	7	Sololá	710	Panajachel	8	Panajachel	6	Junio	2023-06-29T00:00:00	2024-11-08T22:00:00	7	Dirección del viento	0
45739	7	Sololá	710	Panajachel	8	Panajachel	6	Junio	2023-06-29T00:00:00	2024-11-08T22:00:00	1	Precipitación	0
45740	7	Sololá	710	Panajachel	8	Panajachel	6	Junio	2023-06-29T00:00:00	2024-11-08T22:00:00	8	Radiación solar	0
45741	7	Sololá	710	Panajachel	8	Panajachel	6	Junio	2023-06-29T00:00:00	2024-11-08T23:00:00	2	Temperatura media	18.1
45742	7	Sololá	710	Panajachel	8	Panajachel	6	Junio	2023-06-29T00:00:00	2024-11-08T23:00:00	4	Temperatura máxima	18.2
45743	7	Sololá	710	Panajachel	8	Panajachel	6	Junio	2023-06-29T00:00:00	2024-11-08T23:00:00	3	Temperatura mínima	17.8
45744	7	Sololá	710	Panajachel	8	Panajachel	6	Junio	2023-06-29T00:00:00	2024-11-08T23:00:00	5	Humedad	88
45745	7	Sololá	710	Panajachel	8	Panajachel	6	Junio	2023-06-29T00:00:00	2024-11-08T23:00:00	6	Velocidad del viento	1.6
45746	7	Sololá	710	Panajachel	8	Panajachel	6	Junio	2023-06-29T00:00:00	2024-11-08T23:00:00	7	Dirección del viento	1.61
45747	7	Sololá	710	Panajachel	8	Panajachel	6	Junio	2023-06-29T00:00:00	2024-11-08T23:00:00	1	Precipitación	0
45748	7	Sololá	710	Panajachel	8	Panajachel	6	Junio	2023-06-29T00:00:00	2024-11-08T23:00:00	8	Radiación solar	0
45749	7	Sololá	710	Panajachel	8	Panajachel	6	Junio	2023-06-30T00:00:00	2024-11-08T00:00:00	2	Temperatura media	17.9
45750	7	Sololá	710	Panajachel	8	Panajachel	6	Junio	2023-06-30T00:00:00	2024-11-08T00:00:00	4	Temperatura máxima	18.3
45751	7	Sololá	710	Panajachel	8	Panajachel	6	Junio	2023-06-30T00:00:00	2024-11-08T00:00:00	3	Temperatura mínima	17.9
45752	7	Sololá	710	Panajachel	8	Panajachel	6	Junio	2023-06-30T00:00:00	2024-11-08T00:00:00	5	Humedad	90
45753	7	Sololá	710	Panajachel	8	Panajachel	6	Junio	2023-06-30T00:00:00	2024-11-08T00:00:00	6	Velocidad del viento	0
45754	7	Sololá	710	Panajachel	8	Panajachel	6	Junio	2023-06-30T00:00:00	2024-11-08T00:00:00	7	Dirección del viento	0
45755	7	Sololá	710	Panajachel	8	Panajachel	6	Junio	2023-06-30T00:00:00	2024-11-08T00:00:00	1	Precipitación	0
45756	7	Sololá	710	Panajachel	8	Panajachel	6	Junio	2023-06-30T00:00:00	2024-11-08T00:00:00	8	Radiación solar	0
45757	7	Sololá	710	Panajachel	8	Panajachel	6	Junio	2023-06-30T00:00:00	2024-11-08T01:00:00	2	Temperatura media	17.7
45758	7	Sololá	710	Panajachel	8	Panajachel	6	Junio	2023-06-30T00:00:00	2024-11-08T01:00:00	4	Temperatura máxima	18.1
45759	7	Sololá	710	Panajachel	8	Panajachel	6	Junio	2023-06-30T00:00:00	2024-11-08T01:00:00	3	Temperatura mínima	17.5
45760	7	Sololá	710	Panajachel	8	Panajachel	6	Junio	2023-06-30T00:00:00	2024-11-08T01:00:00	5	Humedad	89
45761	7	Sololá	710	Panajachel	8	Panajachel	6	Junio	2023-06-30T00:00:00	2024-11-08T01:00:00	6	Velocidad del viento	1.6
45762	7	Sololá	710	Panajachel	8	Panajachel	6	Junio	2023-06-30T00:00:00	2024-11-08T01:00:00	7	Dirección del viento	1.61
45763	7	Sololá	710	Panajachel	8	Panajachel	6	Junio	2023-06-30T00:00:00	2024-11-08T01:00:00	1	Precipitación	0
45764	7	Sololá	710	Panajachel	8	Panajachel	6	Junio	2023-06-30T00:00:00	2024-11-08T01:00:00	8	Radiación solar	0
45765	7	Sololá	710	Panajachel	8	Panajachel	6	Junio	2023-06-30T00:00:00	2024-11-08T02:00:00	2	Temperatura media	17.9
45766	7	Sololá	710	Panajachel	8	Panajachel	6	Junio	2023-06-30T00:00:00	2024-11-08T02:00:00	4	Temperatura máxima	18.2
45767	7	Sololá	710	Panajachel	8	Panajachel	6	Junio	2023-06-30T00:00:00	2024-11-08T02:00:00	3	Temperatura mínima	17.7
45768	7	Sololá	710	Panajachel	8	Panajachel	6	Junio	2023-06-30T00:00:00	2024-11-08T02:00:00	5	Humedad	87
45769	7	Sololá	710	Panajachel	8	Panajachel	6	Junio	2023-06-30T00:00:00	2024-11-08T02:00:00	6	Velocidad del viento	1.6
45770	7	Sololá	710	Panajachel	8	Panajachel	6	Junio	2023-06-30T00:00:00	2024-11-08T02:00:00	7	Dirección del viento	1.61
45771	7	Sololá	710	Panajachel	8	Panajachel	6	Junio	2023-06-30T00:00:00	2024-11-08T02:00:00	1	Precipitación	0
45772	7	Sololá	710	Panajachel	8	Panajachel	6	Junio	2023-06-30T00:00:00	2024-11-08T02:00:00	8	Radiación solar	0
45773	7	Sololá	710	Panajachel	8	Panajachel	6	Junio	2023-06-30T00:00:00	2024-11-08T03:00:00	2	Temperatura media	17.2
45774	7	Sololá	710	Panajachel	8	Panajachel	6	Junio	2023-06-30T00:00:00	2024-11-08T03:00:00	4	Temperatura máxima	17.9
45775	7	Sololá	710	Panajachel	8	Panajachel	6	Junio	2023-06-30T00:00:00	2024-11-08T03:00:00	3	Temperatura mínima	17.1
45776	7	Sololá	710	Panajachel	8	Panajachel	6	Junio	2023-06-30T00:00:00	2024-11-08T03:00:00	5	Humedad	87
45777	7	Sololá	710	Panajachel	8	Panajachel	6	Junio	2023-06-30T00:00:00	2024-11-08T03:00:00	6	Velocidad del viento	0
45778	7	Sololá	710	Panajachel	8	Panajachel	6	Junio	2023-06-30T00:00:00	2024-11-08T03:00:00	7	Dirección del viento	0
45779	7	Sololá	710	Panajachel	8	Panajachel	6	Junio	2023-06-30T00:00:00	2024-11-08T03:00:00	1	Precipitación	0
45780	7	Sololá	710	Panajachel	8	Panajachel	6	Junio	2023-06-30T00:00:00	2024-11-08T03:00:00	8	Radiación solar	0
45781	7	Sololá	710	Panajachel	8	Panajachel	6	Junio	2023-06-30T00:00:00	2024-11-08T04:00:00	2	Temperatura media	16.8
45782	7	Sololá	710	Panajachel	8	Panajachel	6	Junio	2023-06-30T00:00:00	2024-11-08T04:00:00	4	Temperatura máxima	17.3
45783	7	Sololá	710	Panajachel	8	Panajachel	6	Junio	2023-06-30T00:00:00	2024-11-08T04:00:00	3	Temperatura mínima	16.8
45784	7	Sololá	710	Panajachel	8	Panajachel	6	Junio	2023-06-30T00:00:00	2024-11-08T04:00:00	5	Humedad	90
45785	7	Sololá	710	Panajachel	8	Panajachel	6	Junio	2023-06-30T00:00:00	2024-11-08T04:00:00	6	Velocidad del viento	0
45786	7	Sololá	710	Panajachel	8	Panajachel	6	Junio	2023-06-30T00:00:00	2024-11-08T04:00:00	7	Dirección del viento	0
45787	7	Sololá	710	Panajachel	8	Panajachel	6	Junio	2023-06-30T00:00:00	2024-11-08T04:00:00	1	Precipitación	0
45788	7	Sololá	710	Panajachel	8	Panajachel	6	Junio	2023-06-30T00:00:00	2024-11-08T04:00:00	8	Radiación solar	0
45789	7	Sololá	710	Panajachel	8	Panajachel	6	Junio	2023-06-30T00:00:00	2024-11-08T05:00:00	2	Temperatura media	16.2
45790	7	Sololá	710	Panajachel	8	Panajachel	6	Junio	2023-06-30T00:00:00	2024-11-08T05:00:00	4	Temperatura máxima	16.8
45791	7	Sololá	710	Panajachel	8	Panajachel	6	Junio	2023-06-30T00:00:00	2024-11-08T05:00:00	3	Temperatura mínima	16.2
45792	7	Sololá	710	Panajachel	8	Panajachel	6	Junio	2023-06-30T00:00:00	2024-11-08T05:00:00	5	Humedad	91
45793	7	Sololá	710	Panajachel	8	Panajachel	6	Junio	2023-06-30T00:00:00	2024-11-08T05:00:00	6	Velocidad del viento	1.6
45794	7	Sololá	710	Panajachel	8	Panajachel	6	Junio	2023-06-30T00:00:00	2024-11-08T05:00:00	7	Dirección del viento	1.61
45795	7	Sololá	710	Panajachel	8	Panajachel	6	Junio	2023-06-30T00:00:00	2024-11-08T05:00:00	1	Precipitación	0
45796	7	Sololá	710	Panajachel	8	Panajachel	6	Junio	2023-06-30T00:00:00	2024-11-08T05:00:00	8	Radiación solar	0
45797	7	Sololá	710	Panajachel	8	Panajachel	6	Junio	2023-06-30T00:00:00	2024-11-08T06:00:00	2	Temperatura media	16.9
45798	7	Sololá	710	Panajachel	8	Panajachel	6	Junio	2023-06-30T00:00:00	2024-11-08T06:00:00	4	Temperatura máxima	17.2
45799	7	Sololá	710	Panajachel	8	Panajachel	6	Junio	2023-06-30T00:00:00	2024-11-08T06:00:00	3	Temperatura mínima	16.2
45800	7	Sololá	710	Panajachel	8	Panajachel	6	Junio	2023-06-30T00:00:00	2024-11-08T06:00:00	5	Humedad	88
45801	7	Sololá	710	Panajachel	8	Panajachel	6	Junio	2023-06-30T00:00:00	2024-11-08T06:00:00	6	Velocidad del viento	0
45802	7	Sololá	710	Panajachel	8	Panajachel	6	Junio	2023-06-30T00:00:00	2024-11-08T06:00:00	7	Dirección del viento	0
45803	7	Sololá	710	Panajachel	8	Panajachel	6	Junio	2023-06-30T00:00:00	2024-11-08T06:00:00	1	Precipitación	0
45804	7	Sololá	710	Panajachel	8	Panajachel	6	Junio	2023-06-30T00:00:00	2024-11-08T06:00:00	8	Radiación solar	2
45805	7	Sololá	710	Panajachel	8	Panajachel	6	Junio	2023-06-30T00:00:00	2024-11-08T07:00:00	2	Temperatura media	20.6
45806	7	Sololá	710	Panajachel	8	Panajachel	6	Junio	2023-06-30T00:00:00	2024-11-08T07:00:00	4	Temperatura máxima	20.6
45807	7	Sololá	710	Panajachel	8	Panajachel	6	Junio	2023-06-30T00:00:00	2024-11-08T07:00:00	3	Temperatura mínima	16.9
45808	7	Sololá	710	Panajachel	8	Panajachel	6	Junio	2023-06-30T00:00:00	2024-11-08T07:00:00	5	Humedad	81
45809	7	Sololá	710	Panajachel	8	Panajachel	6	Junio	2023-06-30T00:00:00	2024-11-08T07:00:00	6	Velocidad del viento	0
45810	7	Sololá	710	Panajachel	8	Panajachel	6	Junio	2023-06-30T00:00:00	2024-11-08T07:00:00	7	Dirección del viento	0
45811	7	Sololá	710	Panajachel	8	Panajachel	6	Junio	2023-06-30T00:00:00	2024-11-08T07:00:00	1	Precipitación	0
45812	7	Sololá	710	Panajachel	8	Panajachel	6	Junio	2023-06-30T00:00:00	2024-11-08T07:00:00	8	Radiación solar	145
45813	7	Sololá	710	Panajachel	8	Panajachel	6	Junio	2023-06-30T00:00:00	2024-11-08T08:00:00	2	Temperatura media	21.2
45814	7	Sololá	710	Panajachel	8	Panajachel	6	Junio	2023-06-30T00:00:00	2024-11-08T08:00:00	4	Temperatura máxima	21.7
45815	7	Sololá	710	Panajachel	8	Panajachel	6	Junio	2023-06-30T00:00:00	2024-11-08T08:00:00	3	Temperatura mínima	20.6
45816	7	Sololá	710	Panajachel	8	Panajachel	6	Junio	2023-06-30T00:00:00	2024-11-08T08:00:00	5	Humedad	80
45817	7	Sololá	710	Panajachel	8	Panajachel	6	Junio	2023-06-30T00:00:00	2024-11-08T08:00:00	6	Velocidad del viento	0
45818	7	Sololá	710	Panajachel	8	Panajachel	6	Junio	2023-06-30T00:00:00	2024-11-08T08:00:00	7	Dirección del viento	0
45819	7	Sololá	710	Panajachel	8	Panajachel	6	Junio	2023-06-30T00:00:00	2024-11-08T08:00:00	1	Precipitación	0
45820	7	Sololá	710	Panajachel	8	Panajachel	6	Junio	2023-06-30T00:00:00	2024-11-08T08:00:00	8	Radiación solar	301
45821	7	Sololá	710	Panajachel	8	Panajachel	6	Junio	2023-06-30T00:00:00	2024-11-08T09:00:00	2	Temperatura media	21.9
45822	7	Sololá	710	Panajachel	8	Panajachel	6	Junio	2023-06-30T00:00:00	2024-11-08T09:00:00	4	Temperatura máxima	22.2
45823	7	Sololá	710	Panajachel	8	Panajachel	6	Junio	2023-06-30T00:00:00	2024-11-08T09:00:00	3	Temperatura mínima	21.2
45824	7	Sololá	710	Panajachel	8	Panajachel	6	Junio	2023-06-30T00:00:00	2024-11-08T09:00:00	5	Humedad	78
45825	7	Sololá	710	Panajachel	8	Panajachel	6	Junio	2023-06-30T00:00:00	2024-11-08T09:00:00	6	Velocidad del viento	0
45826	7	Sololá	710	Panajachel	8	Panajachel	6	Junio	2023-06-30T00:00:00	2024-11-08T09:00:00	7	Dirección del viento	0
45827	7	Sololá	710	Panajachel	8	Panajachel	6	Junio	2023-06-30T00:00:00	2024-11-08T09:00:00	1	Precipitación	0
45828	7	Sololá	710	Panajachel	8	Panajachel	6	Junio	2023-06-30T00:00:00	2024-11-08T09:00:00	8	Radiación solar	558
45829	7	Sololá	710	Panajachel	8	Panajachel	6	Junio	2023-06-30T00:00:00	2024-11-08T10:00:00	2	Temperatura media	22.8
45830	7	Sololá	710	Panajachel	8	Panajachel	6	Junio	2023-06-30T00:00:00	2024-11-08T10:00:00	4	Temperatura máxima	23.1
45831	7	Sololá	710	Panajachel	8	Panajachel	6	Junio	2023-06-30T00:00:00	2024-11-08T10:00:00	3	Temperatura mínima	21.9
45832	7	Sololá	710	Panajachel	8	Panajachel	6	Junio	2023-06-30T00:00:00	2024-11-08T10:00:00	5	Humedad	76
45833	7	Sololá	710	Panajachel	8	Panajachel	6	Junio	2023-06-30T00:00:00	2024-11-08T10:00:00	6	Velocidad del viento	0
45834	7	Sololá	710	Panajachel	8	Panajachel	6	Junio	2023-06-30T00:00:00	2024-11-08T10:00:00	7	Dirección del viento	0
45835	7	Sololá	710	Panajachel	8	Panajachel	6	Junio	2023-06-30T00:00:00	2024-11-08T10:00:00	1	Precipitación	0
45836	7	Sololá	710	Panajachel	8	Panajachel	6	Junio	2023-06-30T00:00:00	2024-11-08T10:00:00	8	Radiación solar	617
45837	7	Sololá	710	Panajachel	8	Panajachel	6	Junio	2023-06-30T00:00:00	2024-11-08T11:00:00	2	Temperatura media	23.7
45838	7	Sololá	710	Panajachel	8	Panajachel	6	Junio	2023-06-30T00:00:00	2024-11-08T11:00:00	4	Temperatura máxima	23.7
45839	7	Sololá	710	Panajachel	8	Panajachel	6	Junio	2023-06-30T00:00:00	2024-11-08T11:00:00	3	Temperatura mínima	22.7
45840	7	Sololá	710	Panajachel	8	Panajachel	6	Junio	2023-06-30T00:00:00	2024-11-08T11:00:00	5	Humedad	70
45841	7	Sololá	710	Panajachel	8	Panajachel	6	Junio	2023-06-30T00:00:00	2024-11-08T11:00:00	6	Velocidad del viento	0
45842	7	Sololá	710	Panajachel	8	Panajachel	6	Junio	2023-06-30T00:00:00	2024-11-08T11:00:00	7	Dirección del viento	0
45843	7	Sololá	710	Panajachel	8	Panajachel	6	Junio	2023-06-30T00:00:00	2024-11-08T11:00:00	1	Precipitación	0
45844	7	Sololá	710	Panajachel	8	Panajachel	6	Junio	2023-06-30T00:00:00	2024-11-08T11:00:00	8	Radiación solar	253
45845	7	Sololá	710	Panajachel	8	Panajachel	6	Junio	2023-06-30T00:00:00	2024-11-08T12:00:00	2	Temperatura media	25.4
45846	7	Sololá	710	Panajachel	8	Panajachel	6	Junio	2023-06-30T00:00:00	2024-11-08T12:00:00	4	Temperatura máxima	25.7
45847	7	Sololá	710	Panajachel	8	Panajachel	6	Junio	2023-06-30T00:00:00	2024-11-08T12:00:00	3	Temperatura mínima	23.7
45848	7	Sololá	710	Panajachel	8	Panajachel	6	Junio	2023-06-30T00:00:00	2024-11-08T12:00:00	5	Humedad	67
45849	7	Sololá	710	Panajachel	8	Panajachel	6	Junio	2023-06-30T00:00:00	2024-11-08T12:00:00	6	Velocidad del viento	0
45850	7	Sololá	710	Panajachel	8	Panajachel	6	Junio	2023-06-30T00:00:00	2024-11-08T12:00:00	7	Dirección del viento	0
45851	7	Sololá	710	Panajachel	8	Panajachel	6	Junio	2023-06-30T00:00:00	2024-11-08T12:00:00	1	Precipitación	0
45852	7	Sololá	710	Panajachel	8	Panajachel	6	Junio	2023-06-30T00:00:00	2024-11-08T12:00:00	8	Radiación solar	1001
45853	7	Sololá	710	Panajachel	8	Panajachel	6	Junio	2023-06-30T00:00:00	2024-11-08T13:00:00	2	Temperatura media	25.1
45854	7	Sololá	710	Panajachel	8	Panajachel	6	Junio	2023-06-30T00:00:00	2024-11-08T13:00:00	4	Temperatura máxima	25.6
45855	7	Sololá	710	Panajachel	8	Panajachel	6	Junio	2023-06-30T00:00:00	2024-11-08T13:00:00	3	Temperatura mínima	24.7
45856	7	Sololá	710	Panajachel	8	Panajachel	6	Junio	2023-06-30T00:00:00	2024-11-08T13:00:00	5	Humedad	66
45857	7	Sololá	710	Panajachel	8	Panajachel	6	Junio	2023-06-30T00:00:00	2024-11-08T13:00:00	6	Velocidad del viento	1.6
45858	7	Sololá	710	Panajachel	8	Panajachel	6	Junio	2023-06-30T00:00:00	2024-11-08T13:00:00	7	Dirección del viento	1.61
45859	7	Sololá	710	Panajachel	8	Panajachel	6	Junio	2023-06-30T00:00:00	2024-11-08T13:00:00	1	Precipitación	0
45860	7	Sololá	710	Panajachel	8	Panajachel	6	Junio	2023-06-30T00:00:00	2024-11-08T13:00:00	8	Radiación solar	426
45861	7	Sololá	710	Panajachel	8	Panajachel	6	Junio	2023-06-30T00:00:00	2024-11-08T14:00:00	2	Temperatura media	25.7
45862	7	Sololá	710	Panajachel	8	Panajachel	6	Junio	2023-06-30T00:00:00	2024-11-08T14:00:00	4	Temperatura máxima	25.8
45863	7	Sololá	710	Panajachel	8	Panajachel	6	Junio	2023-06-30T00:00:00	2024-11-08T14:00:00	3	Temperatura mínima	25
45864	7	Sololá	710	Panajachel	8	Panajachel	6	Junio	2023-06-30T00:00:00	2024-11-08T14:00:00	5	Humedad	65
45865	7	Sololá	710	Panajachel	8	Panajachel	6	Junio	2023-06-30T00:00:00	2024-11-08T14:00:00	6	Velocidad del viento	1.6
45866	7	Sololá	710	Panajachel	8	Panajachel	6	Junio	2023-06-30T00:00:00	2024-11-08T14:00:00	7	Dirección del viento	1.61
45867	7	Sololá	710	Panajachel	8	Panajachel	6	Junio	2023-06-30T00:00:00	2024-11-08T14:00:00	1	Precipitación	0
45868	7	Sololá	710	Panajachel	8	Panajachel	6	Junio	2023-06-30T00:00:00	2024-11-08T14:00:00	8	Radiación solar	243
45869	7	Sololá	710	Panajachel	8	Panajachel	6	Junio	2023-06-30T00:00:00	2024-11-08T15:00:00	2	Temperatura media	26.3
45870	7	Sololá	710	Panajachel	8	Panajachel	6	Junio	2023-06-30T00:00:00	2024-11-08T15:00:00	4	Temperatura máxima	26.4
45871	7	Sololá	710	Panajachel	8	Panajachel	6	Junio	2023-06-30T00:00:00	2024-11-08T15:00:00	3	Temperatura mínima	24.9
45872	7	Sololá	710	Panajachel	8	Panajachel	6	Junio	2023-06-30T00:00:00	2024-11-08T15:00:00	5	Humedad	77
45873	7	Sololá	710	Panajachel	8	Panajachel	6	Junio	2023-06-30T00:00:00	2024-11-08T15:00:00	6	Velocidad del viento	3.2
45874	7	Sololá	710	Panajachel	8	Panajachel	6	Junio	2023-06-30T00:00:00	2024-11-08T15:00:00	7	Dirección del viento	3.22
45875	7	Sololá	710	Panajachel	8	Panajachel	6	Junio	2023-06-30T00:00:00	2024-11-08T15:00:00	1	Precipitación	0
45876	7	Sololá	710	Panajachel	8	Panajachel	6	Junio	2023-06-30T00:00:00	2024-11-08T15:00:00	8	Radiación solar	451
45877	7	Sololá	710	Panajachel	8	Panajachel	6	Junio	2023-06-30T00:00:00	2024-11-08T16:00:00	2	Temperatura media	24.8
45878	7	Sololá	710	Panajachel	8	Panajachel	6	Junio	2023-06-30T00:00:00	2024-11-08T16:00:00	4	Temperatura máxima	26.2
45879	7	Sololá	710	Panajachel	8	Panajachel	6	Junio	2023-06-30T00:00:00	2024-11-08T16:00:00	3	Temperatura mínima	24.5
45880	7	Sololá	710	Panajachel	8	Panajachel	6	Junio	2023-06-30T00:00:00	2024-11-08T16:00:00	5	Humedad	79
45881	7	Sololá	710	Panajachel	8	Panajachel	6	Junio	2023-06-30T00:00:00	2024-11-08T16:00:00	6	Velocidad del viento	3.2
45882	7	Sololá	710	Panajachel	8	Panajachel	6	Junio	2023-06-30T00:00:00	2024-11-08T16:00:00	7	Dirección del viento	3.22
45883	7	Sololá	710	Panajachel	8	Panajachel	6	Junio	2023-06-30T00:00:00	2024-11-08T16:00:00	1	Precipitación	0
45884	7	Sololá	710	Panajachel	8	Panajachel	6	Junio	2023-06-30T00:00:00	2024-11-08T16:00:00	8	Radiación solar	513
45885	7	Sololá	710	Panajachel	8	Panajachel	6	Junio	2023-06-30T00:00:00	2024-11-08T17:00:00	2	Temperatura media	22.9
45886	7	Sololá	710	Panajachel	8	Panajachel	6	Junio	2023-06-30T00:00:00	2024-11-08T17:00:00	4	Temperatura máxima	25.1
45887	7	Sololá	710	Panajachel	8	Panajachel	6	Junio	2023-06-30T00:00:00	2024-11-08T17:00:00	3	Temperatura mínima	22.9
45888	7	Sololá	710	Panajachel	8	Panajachel	6	Junio	2023-06-30T00:00:00	2024-11-08T17:00:00	5	Humedad	76
45889	7	Sololá	710	Panajachel	8	Panajachel	6	Junio	2023-06-30T00:00:00	2024-11-08T17:00:00	6	Velocidad del viento	1.6
45890	7	Sololá	710	Panajachel	8	Panajachel	6	Junio	2023-06-30T00:00:00	2024-11-08T17:00:00	7	Dirección del viento	1.61
45891	7	Sololá	710	Panajachel	8	Panajachel	6	Junio	2023-06-30T00:00:00	2024-11-08T17:00:00	1	Precipitación	0
45892	7	Sololá	710	Panajachel	8	Panajachel	6	Junio	2023-06-30T00:00:00	2024-11-08T17:00:00	8	Radiación solar	140
45893	7	Sololá	710	Panajachel	8	Panajachel	6	Junio	2023-06-30T00:00:00	2024-11-08T18:00:00	2	Temperatura media	22.3
45894	7	Sololá	710	Panajachel	8	Panajachel	6	Junio	2023-06-30T00:00:00	2024-11-08T18:00:00	4	Temperatura máxima	23.2
45895	7	Sololá	710	Panajachel	8	Panajachel	6	Junio	2023-06-30T00:00:00	2024-11-08T18:00:00	3	Temperatura mínima	22.2
45896	7	Sololá	710	Panajachel	8	Panajachel	6	Junio	2023-06-30T00:00:00	2024-11-08T18:00:00	5	Humedad	77
45897	7	Sololá	710	Panajachel	8	Panajachel	6	Junio	2023-06-30T00:00:00	2024-11-08T18:00:00	6	Velocidad del viento	0
45898	7	Sololá	710	Panajachel	8	Panajachel	6	Junio	2023-06-30T00:00:00	2024-11-08T18:00:00	7	Dirección del viento	0
45899	7	Sololá	710	Panajachel	8	Panajachel	6	Junio	2023-06-30T00:00:00	2024-11-08T18:00:00	1	Precipitación	0
45900	7	Sololá	710	Panajachel	8	Panajachel	6	Junio	2023-06-30T00:00:00	2024-11-08T18:00:00	8	Radiación solar	80
45901	7	Sololá	710	Panajachel	8	Panajachel	6	Junio	2023-06-30T00:00:00	2024-11-08T19:00:00	2	Temperatura media	21.3
45902	7	Sololá	710	Panajachel	8	Panajachel	6	Junio	2023-06-30T00:00:00	2024-11-08T19:00:00	4	Temperatura máxima	22.3
45903	7	Sololá	710	Panajachel	8	Panajachel	6	Junio	2023-06-30T00:00:00	2024-11-08T19:00:00	3	Temperatura mínima	21.3
45904	7	Sololá	710	Panajachel	8	Panajachel	6	Junio	2023-06-30T00:00:00	2024-11-08T19:00:00	5	Humedad	82
45905	7	Sololá	710	Panajachel	8	Panajachel	6	Junio	2023-06-30T00:00:00	2024-11-08T19:00:00	6	Velocidad del viento	0
45906	7	Sololá	710	Panajachel	8	Panajachel	6	Junio	2023-06-30T00:00:00	2024-11-08T19:00:00	7	Dirección del viento	0
45907	7	Sololá	710	Panajachel	8	Panajachel	6	Junio	2023-06-30T00:00:00	2024-11-08T19:00:00	1	Precipitación	0
45908	7	Sololá	710	Panajachel	8	Panajachel	6	Junio	2023-06-30T00:00:00	2024-11-08T19:00:00	8	Radiación solar	0
45909	7	Sololá	710	Panajachel	8	Panajachel	6	Junio	2023-06-30T00:00:00	2024-11-08T20:00:00	2	Temperatura media	20.2
45910	7	Sololá	710	Panajachel	8	Panajachel	6	Junio	2023-06-30T00:00:00	2024-11-08T20:00:00	4	Temperatura máxima	21.3
45911	7	Sololá	710	Panajachel	8	Panajachel	6	Junio	2023-06-30T00:00:00	2024-11-08T20:00:00	3	Temperatura mínima	20.2
45912	7	Sololá	710	Panajachel	8	Panajachel	6	Junio	2023-06-30T00:00:00	2024-11-08T20:00:00	5	Humedad	81
45913	7	Sololá	710	Panajachel	8	Panajachel	6	Junio	2023-06-30T00:00:00	2024-11-08T20:00:00	6	Velocidad del viento	0
45914	7	Sololá	710	Panajachel	8	Panajachel	6	Junio	2023-06-30T00:00:00	2024-11-08T20:00:00	7	Dirección del viento	0
45915	7	Sololá	710	Panajachel	8	Panajachel	6	Junio	2023-06-30T00:00:00	2024-11-08T20:00:00	1	Precipitación	0
45916	7	Sololá	710	Panajachel	8	Panajachel	6	Junio	2023-06-30T00:00:00	2024-11-08T20:00:00	8	Radiación solar	0
45917	7	Sololá	710	Panajachel	8	Panajachel	6	Junio	2023-06-30T00:00:00	2024-11-08T21:00:00	2	Temperatura media	20.4
45918	7	Sololá	710	Panajachel	8	Panajachel	6	Junio	2023-06-30T00:00:00	2024-11-08T21:00:00	4	Temperatura máxima	20.7
45919	7	Sololá	710	Panajachel	8	Panajachel	6	Junio	2023-06-30T00:00:00	2024-11-08T21:00:00	3	Temperatura mínima	20.2
45920	7	Sololá	710	Panajachel	8	Panajachel	6	Junio	2023-06-30T00:00:00	2024-11-08T21:00:00	5	Humedad	79
45921	7	Sololá	710	Panajachel	8	Panajachel	6	Junio	2023-06-30T00:00:00	2024-11-08T21:00:00	6	Velocidad del viento	0
45922	7	Sololá	710	Panajachel	8	Panajachel	6	Junio	2023-06-30T00:00:00	2024-11-08T21:00:00	7	Dirección del viento	0
45923	7	Sololá	710	Panajachel	8	Panajachel	6	Junio	2023-06-30T00:00:00	2024-11-08T21:00:00	1	Precipitación	0
45924	7	Sololá	710	Panajachel	8	Panajachel	6	Junio	2023-06-30T00:00:00	2024-11-08T21:00:00	8	Radiación solar	0
45925	7	Sololá	710	Panajachel	8	Panajachel	6	Junio	2023-06-30T00:00:00	2024-11-08T22:00:00	2	Temperatura media	19.6
45926	7	Sololá	710	Panajachel	8	Panajachel	6	Junio	2023-06-30T00:00:00	2024-11-08T22:00:00	4	Temperatura máxima	20.4
45927	7	Sololá	710	Panajachel	8	Panajachel	6	Junio	2023-06-30T00:00:00	2024-11-08T22:00:00	3	Temperatura mínima	19.3
45928	7	Sololá	710	Panajachel	8	Panajachel	6	Junio	2023-06-30T00:00:00	2024-11-08T22:00:00	5	Humedad	81
45929	7	Sololá	710	Panajachel	8	Panajachel	6	Junio	2023-06-30T00:00:00	2024-11-08T22:00:00	6	Velocidad del viento	0
45930	7	Sololá	710	Panajachel	8	Panajachel	6	Junio	2023-06-30T00:00:00	2024-11-08T22:00:00	7	Dirección del viento	0
45931	7	Sololá	710	Panajachel	8	Panajachel	6	Junio	2023-06-30T00:00:00	2024-11-08T22:00:00	1	Precipitación	0
45932	7	Sololá	710	Panajachel	8	Panajachel	6	Junio	2023-06-30T00:00:00	2024-11-08T22:00:00	8	Radiación solar	0
45933	7	Sololá	710	Panajachel	8	Panajachel	6	Junio	2023-06-30T00:00:00	2024-11-08T23:00:00	2	Temperatura media	19.6
45934	7	Sololá	710	Panajachel	8	Panajachel	6	Junio	2023-06-30T00:00:00	2024-11-08T23:00:00	4	Temperatura máxima	19.7
45935	7	Sololá	710	Panajachel	8	Panajachel	6	Junio	2023-06-30T00:00:00	2024-11-08T23:00:00	3	Temperatura mínima	19.2
45936	7	Sololá	710	Panajachel	8	Panajachel	6	Junio	2023-06-30T00:00:00	2024-11-08T23:00:00	5	Humedad	79
45937	7	Sololá	710	Panajachel	8	Panajachel	6	Junio	2023-06-30T00:00:00	2024-11-08T23:00:00	6	Velocidad del viento	0
45938	7	Sololá	710	Panajachel	8	Panajachel	6	Junio	2023-06-30T00:00:00	2024-11-08T23:00:00	7	Dirección del viento	0
45939	7	Sololá	710	Panajachel	8	Panajachel	6	Junio	2023-06-30T00:00:00	2024-11-08T23:00:00	1	Precipitación	0
45940	7	Sololá	710	Panajachel	8	Panajachel	6	Junio	2023-06-30T00:00:00	2024-11-08T23:00:00	8	Radiación solar	0
45941	7	Sololá	710	Panajachel	8	Panajachel	7	Julio	2023-01-07T00:00:00	2024-11-08T00:00:00	2	Temperatura media	18.5
45942	7	Sololá	710	Panajachel	8	Panajachel	7	Julio	2023-01-07T00:00:00	2024-11-08T00:00:00	4	Temperatura máxima	19.7
45943	7	Sololá	710	Panajachel	8	Panajachel	7	Julio	2023-01-07T00:00:00	2024-11-08T00:00:00	3	Temperatura mínima	18.4
45944	7	Sololá	710	Panajachel	8	Panajachel	7	Julio	2023-01-07T00:00:00	2024-11-08T00:00:00	5	Humedad	84
45945	7	Sololá	710	Panajachel	8	Panajachel	7	Julio	2023-01-07T00:00:00	2024-11-08T00:00:00	6	Velocidad del viento	0
45946	7	Sololá	710	Panajachel	8	Panajachel	7	Julio	2023-01-07T00:00:00	2024-11-08T00:00:00	7	Dirección del viento	0
45947	7	Sololá	710	Panajachel	8	Panajachel	7	Julio	2023-01-07T00:00:00	2024-11-08T00:00:00	1	Precipitación	0
45948	7	Sololá	710	Panajachel	8	Panajachel	7	Julio	2023-01-07T00:00:00	2024-11-08T00:00:00	8	Radiación solar	0
45949	7	Sololá	710	Panajachel	8	Panajachel	7	Julio	2023-01-07T00:00:00	2024-11-08T01:00:00	2	Temperatura media	20.1
45950	7	Sololá	710	Panajachel	8	Panajachel	7	Julio	2023-01-07T00:00:00	2024-11-08T01:00:00	4	Temperatura máxima	20.1
45951	7	Sololá	710	Panajachel	8	Panajachel	7	Julio	2023-01-07T00:00:00	2024-11-08T01:00:00	3	Temperatura mínima	18.4
45952	7	Sololá	710	Panajachel	8	Panajachel	7	Julio	2023-01-07T00:00:00	2024-11-08T01:00:00	5	Humedad	76
45953	7	Sololá	710	Panajachel	8	Panajachel	7	Julio	2023-01-07T00:00:00	2024-11-08T01:00:00	6	Velocidad del viento	0
45954	7	Sololá	710	Panajachel	8	Panajachel	7	Julio	2023-01-07T00:00:00	2024-11-08T01:00:00	7	Dirección del viento	0
45955	7	Sololá	710	Panajachel	8	Panajachel	7	Julio	2023-01-07T00:00:00	2024-11-08T01:00:00	1	Precipitación	0
45956	7	Sololá	710	Panajachel	8	Panajachel	7	Julio	2023-01-07T00:00:00	2024-11-08T01:00:00	8	Radiación solar	0
45957	7	Sololá	710	Panajachel	8	Panajachel	7	Julio	2023-01-07T00:00:00	2024-11-08T02:00:00	2	Temperatura media	19.4
45958	7	Sololá	710	Panajachel	8	Panajachel	7	Julio	2023-01-07T00:00:00	2024-11-08T02:00:00	4	Temperatura máxima	20.2
45959	7	Sololá	710	Panajachel	8	Panajachel	7	Julio	2023-01-07T00:00:00	2024-11-08T02:00:00	3	Temperatura mínima	19.4
45960	7	Sololá	710	Panajachel	8	Panajachel	7	Julio	2023-01-07T00:00:00	2024-11-08T02:00:00	5	Humedad	79
45961	7	Sololá	710	Panajachel	8	Panajachel	7	Julio	2023-01-07T00:00:00	2024-11-08T02:00:00	6	Velocidad del viento	0
45962	7	Sololá	710	Panajachel	8	Panajachel	7	Julio	2023-01-07T00:00:00	2024-11-08T02:00:00	7	Dirección del viento	0
45963	7	Sololá	710	Panajachel	8	Panajachel	7	Julio	2023-01-07T00:00:00	2024-11-08T02:00:00	1	Precipitación	0
45964	7	Sololá	710	Panajachel	8	Panajachel	7	Julio	2023-01-07T00:00:00	2024-11-08T02:00:00	8	Radiación solar	0
45965	7	Sololá	710	Panajachel	8	Panajachel	7	Julio	2023-01-07T00:00:00	2024-11-08T03:00:00	2	Temperatura media	18.9
45966	7	Sololá	710	Panajachel	8	Panajachel	7	Julio	2023-01-07T00:00:00	2024-11-08T03:00:00	4	Temperatura máxima	19.4
45967	7	Sololá	710	Panajachel	8	Panajachel	7	Julio	2023-01-07T00:00:00	2024-11-08T03:00:00	3	Temperatura mínima	18.7
45968	7	Sololá	710	Panajachel	8	Panajachel	7	Julio	2023-01-07T00:00:00	2024-11-08T03:00:00	5	Humedad	80
45969	7	Sololá	710	Panajachel	8	Panajachel	7	Julio	2023-01-07T00:00:00	2024-11-08T03:00:00	6	Velocidad del viento	0
45970	7	Sololá	710	Panajachel	8	Panajachel	7	Julio	2023-01-07T00:00:00	2024-11-08T03:00:00	7	Dirección del viento	0
45971	7	Sololá	710	Panajachel	8	Panajachel	7	Julio	2023-01-07T00:00:00	2024-11-08T03:00:00	1	Precipitación	0
45972	7	Sololá	710	Panajachel	8	Panajachel	7	Julio	2023-01-07T00:00:00	2024-11-08T03:00:00	8	Radiación solar	0
45973	7	Sololá	710	Panajachel	8	Panajachel	7	Julio	2023-01-07T00:00:00	2024-11-08T04:00:00	2	Temperatura media	17.8
45974	7	Sololá	710	Panajachel	8	Panajachel	7	Julio	2023-01-07T00:00:00	2024-11-08T04:00:00	4	Temperatura máxima	18.9
45975	7	Sololá	710	Panajachel	8	Panajachel	7	Julio	2023-01-07T00:00:00	2024-11-08T04:00:00	3	Temperatura mínima	17.8
45976	7	Sololá	710	Panajachel	8	Panajachel	7	Julio	2023-01-07T00:00:00	2024-11-08T04:00:00	5	Humedad	82
45977	7	Sololá	710	Panajachel	8	Panajachel	7	Julio	2023-01-07T00:00:00	2024-11-08T04:00:00	6	Velocidad del viento	0
45978	7	Sololá	710	Panajachel	8	Panajachel	7	Julio	2023-01-07T00:00:00	2024-11-08T04:00:00	7	Dirección del viento	0
45979	7	Sololá	710	Panajachel	8	Panajachel	7	Julio	2023-01-07T00:00:00	2024-11-08T04:00:00	1	Precipitación	0
45980	7	Sololá	710	Panajachel	8	Panajachel	7	Julio	2023-01-07T00:00:00	2024-11-08T04:00:00	8	Radiación solar	0
45981	7	Sololá	710	Panajachel	8	Panajachel	7	Julio	2023-01-07T00:00:00	2024-11-08T05:00:00	2	Temperatura media	17.9
45982	7	Sololá	710	Panajachel	8	Panajachel	7	Julio	2023-01-07T00:00:00	2024-11-08T05:00:00	4	Temperatura máxima	17.9
45983	7	Sololá	710	Panajachel	8	Panajachel	7	Julio	2023-01-07T00:00:00	2024-11-08T05:00:00	3	Temperatura mínima	17.6
45984	7	Sololá	710	Panajachel	8	Panajachel	7	Julio	2023-01-07T00:00:00	2024-11-08T05:00:00	5	Humedad	78
45985	7	Sololá	710	Panajachel	8	Panajachel	7	Julio	2023-01-07T00:00:00	2024-11-08T05:00:00	6	Velocidad del viento	1.6
45986	7	Sololá	710	Panajachel	8	Panajachel	7	Julio	2023-01-07T00:00:00	2024-11-08T05:00:00	7	Dirección del viento	1.61
45987	7	Sololá	710	Panajachel	8	Panajachel	7	Julio	2023-01-07T00:00:00	2024-11-08T05:00:00	1	Precipitación	0
45988	7	Sololá	710	Panajachel	8	Panajachel	7	Julio	2023-01-07T00:00:00	2024-11-08T05:00:00	8	Radiación solar	0
45989	7	Sololá	710	Panajachel	8	Panajachel	7	Julio	2023-01-07T00:00:00	2024-11-08T06:00:00	2	Temperatura media	16.9
45990	7	Sololá	710	Panajachel	8	Panajachel	7	Julio	2023-01-07T00:00:00	2024-11-08T06:00:00	4	Temperatura máxima	17.9
45991	7	Sololá	710	Panajachel	8	Panajachel	7	Julio	2023-01-07T00:00:00	2024-11-08T06:00:00	3	Temperatura mínima	16.8
45992	7	Sololá	710	Panajachel	8	Panajachel	7	Julio	2023-01-07T00:00:00	2024-11-08T06:00:00	5	Humedad	82
45993	7	Sololá	710	Panajachel	8	Panajachel	7	Julio	2023-01-07T00:00:00	2024-11-08T06:00:00	6	Velocidad del viento	0
45994	7	Sololá	710	Panajachel	8	Panajachel	7	Julio	2023-01-07T00:00:00	2024-11-08T06:00:00	7	Dirección del viento	0
45995	7	Sololá	710	Panajachel	8	Panajachel	7	Julio	2023-01-07T00:00:00	2024-11-08T06:00:00	1	Precipitación	0
45996	7	Sololá	710	Panajachel	8	Panajachel	7	Julio	2023-01-07T00:00:00	2024-11-08T06:00:00	8	Radiación solar	2
45997	7	Sololá	710	Panajachel	8	Panajachel	7	Julio	2023-01-07T00:00:00	2024-11-08T07:00:00	2	Temperatura media	19.3
45998	7	Sololá	710	Panajachel	8	Panajachel	7	Julio	2023-01-07T00:00:00	2024-11-08T07:00:00	4	Temperatura máxima	19.3
45999	7	Sololá	710	Panajachel	8	Panajachel	7	Julio	2023-01-07T00:00:00	2024-11-08T07:00:00	3	Temperatura mínima	16.8
46000	7	Sololá	710	Panajachel	8	Panajachel	7	Julio	2023-01-07T00:00:00	2024-11-08T07:00:00	5	Humedad	77
46001	7	Sololá	710	Panajachel	8	Panajachel	7	Julio	2023-01-07T00:00:00	2024-11-08T07:00:00	6	Velocidad del viento	0
46002	7	Sololá	710	Panajachel	8	Panajachel	7	Julio	2023-01-07T00:00:00	2024-11-08T07:00:00	7	Dirección del viento	0
46003	7	Sololá	710	Panajachel	8	Panajachel	7	Julio	2023-01-07T00:00:00	2024-11-08T07:00:00	1	Precipitación	0
46004	7	Sololá	710	Panajachel	8	Panajachel	7	Julio	2023-01-07T00:00:00	2024-11-08T07:00:00	8	Radiación solar	98
46005	7	Sololá	710	Panajachel	8	Panajachel	7	Julio	2023-01-07T00:00:00	2024-11-08T08:00:00	2	Temperatura media	22
46006	7	Sololá	710	Panajachel	8	Panajachel	7	Julio	2023-01-07T00:00:00	2024-11-08T08:00:00	4	Temperatura máxima	22
46007	7	Sololá	710	Panajachel	8	Panajachel	7	Julio	2023-01-07T00:00:00	2024-11-08T08:00:00	3	Temperatura mínima	19.2
46008	7	Sololá	710	Panajachel	8	Panajachel	7	Julio	2023-01-07T00:00:00	2024-11-08T08:00:00	5	Humedad	75
46009	7	Sololá	710	Panajachel	8	Panajachel	7	Julio	2023-01-07T00:00:00	2024-11-08T08:00:00	6	Velocidad del viento	0
46010	7	Sololá	710	Panajachel	8	Panajachel	7	Julio	2023-01-07T00:00:00	2024-11-08T08:00:00	7	Dirección del viento	0
46011	7	Sololá	710	Panajachel	8	Panajachel	7	Julio	2023-01-07T00:00:00	2024-11-08T08:00:00	1	Precipitación	0
46012	7	Sololá	710	Panajachel	8	Panajachel	7	Julio	2023-01-07T00:00:00	2024-11-08T08:00:00	8	Radiación solar	310
46013	7	Sololá	710	Panajachel	8	Panajachel	7	Julio	2023-01-07T00:00:00	2024-11-08T09:00:00	2	Temperatura media	22.4
46014	7	Sololá	710	Panajachel	8	Panajachel	7	Julio	2023-01-07T00:00:00	2024-11-08T09:00:00	4	Temperatura máxima	22.5
46015	7	Sololá	710	Panajachel	8	Panajachel	7	Julio	2023-01-07T00:00:00	2024-11-08T09:00:00	3	Temperatura mínima	21.4
46016	7	Sololá	710	Panajachel	8	Panajachel	7	Julio	2023-01-07T00:00:00	2024-11-08T09:00:00	5	Humedad	75
46017	7	Sololá	710	Panajachel	8	Panajachel	7	Julio	2023-01-07T00:00:00	2024-11-08T09:00:00	6	Velocidad del viento	0
46018	7	Sololá	710	Panajachel	8	Panajachel	7	Julio	2023-01-07T00:00:00	2024-11-08T09:00:00	7	Dirección del viento	0
46019	7	Sololá	710	Panajachel	8	Panajachel	7	Julio	2023-01-07T00:00:00	2024-11-08T09:00:00	1	Precipitación	0
46020	7	Sololá	710	Panajachel	8	Panajachel	7	Julio	2023-01-07T00:00:00	2024-11-08T09:00:00	8	Radiación solar	538
46021	7	Sololá	710	Panajachel	8	Panajachel	7	Julio	2023-01-07T00:00:00	2024-11-08T10:00:00	2	Temperatura media	22.7
46022	7	Sololá	710	Panajachel	8	Panajachel	7	Julio	2023-01-07T00:00:00	2024-11-08T10:00:00	4	Temperatura máxima	22.8
46023	7	Sololá	710	Panajachel	8	Panajachel	7	Julio	2023-01-07T00:00:00	2024-11-08T10:00:00	3	Temperatura mínima	22
46024	7	Sololá	710	Panajachel	8	Panajachel	7	Julio	2023-01-07T00:00:00	2024-11-08T10:00:00	5	Humedad	74
46025	7	Sololá	710	Panajachel	8	Panajachel	7	Julio	2023-01-07T00:00:00	2024-11-08T10:00:00	6	Velocidad del viento	0
46026	7	Sololá	710	Panajachel	8	Panajachel	7	Julio	2023-01-07T00:00:00	2024-11-08T10:00:00	7	Dirección del viento	0
46027	7	Sololá	710	Panajachel	8	Panajachel	7	Julio	2023-01-07T00:00:00	2024-11-08T10:00:00	1	Precipitación	0
46028	7	Sololá	710	Panajachel	8	Panajachel	7	Julio	2023-01-07T00:00:00	2024-11-08T10:00:00	8	Radiación solar	725
46029	7	Sololá	710	Panajachel	8	Panajachel	7	Julio	2023-01-07T00:00:00	2024-11-08T11:00:00	2	Temperatura media	24.5
46030	7	Sololá	710	Panajachel	8	Panajachel	7	Julio	2023-01-07T00:00:00	2024-11-08T11:00:00	4	Temperatura máxima	24.9
46031	7	Sololá	710	Panajachel	8	Panajachel	7	Julio	2023-01-07T00:00:00	2024-11-08T11:00:00	3	Temperatura mínima	22.8
46032	7	Sololá	710	Panajachel	8	Panajachel	7	Julio	2023-01-07T00:00:00	2024-11-08T11:00:00	5	Humedad	64
46033	7	Sololá	710	Panajachel	8	Panajachel	7	Julio	2023-01-07T00:00:00	2024-11-08T11:00:00	6	Velocidad del viento	0
46034	7	Sololá	710	Panajachel	8	Panajachel	7	Julio	2023-01-07T00:00:00	2024-11-08T11:00:00	7	Dirección del viento	0
46035	7	Sololá	710	Panajachel	8	Panajachel	7	Julio	2023-01-07T00:00:00	2024-11-08T11:00:00	1	Precipitación	0
46036	7	Sololá	710	Panajachel	8	Panajachel	7	Julio	2023-01-07T00:00:00	2024-11-08T11:00:00	8	Radiación solar	827
46037	7	Sololá	710	Panajachel	8	Panajachel	7	Julio	2023-01-07T00:00:00	2024-11-08T12:00:00	2	Temperatura media	25.2
46038	7	Sololá	710	Panajachel	8	Panajachel	7	Julio	2023-01-07T00:00:00	2024-11-08T12:00:00	4	Temperatura máxima	25.2
46039	7	Sololá	710	Panajachel	8	Panajachel	7	Julio	2023-01-07T00:00:00	2024-11-08T12:00:00	3	Temperatura mínima	23.8
46040	7	Sololá	710	Panajachel	8	Panajachel	7	Julio	2023-01-07T00:00:00	2024-11-08T12:00:00	5	Humedad	71
46041	7	Sololá	710	Panajachel	8	Panajachel	7	Julio	2023-01-07T00:00:00	2024-11-08T12:00:00	6	Velocidad del viento	0
46042	7	Sololá	710	Panajachel	8	Panajachel	7	Julio	2023-01-07T00:00:00	2024-11-08T12:00:00	7	Dirección del viento	0
46043	7	Sololá	710	Panajachel	8	Panajachel	7	Julio	2023-01-07T00:00:00	2024-11-08T12:00:00	1	Precipitación	0
46044	7	Sololá	710	Panajachel	8	Panajachel	7	Julio	2023-01-07T00:00:00	2024-11-08T12:00:00	8	Radiación solar	456
46045	7	Sololá	710	Panajachel	8	Panajachel	7	Julio	2023-01-07T00:00:00	2024-11-08T13:00:00	2	Temperatura media	24.8
46046	7	Sololá	710	Panajachel	8	Panajachel	7	Julio	2023-01-07T00:00:00	2024-11-08T13:00:00	4	Temperatura máxima	26.1
46047	7	Sololá	710	Panajachel	8	Panajachel	7	Julio	2023-01-07T00:00:00	2024-11-08T13:00:00	3	Temperatura mínima	24.6
46048	7	Sololá	710	Panajachel	8	Panajachel	7	Julio	2023-01-07T00:00:00	2024-11-08T13:00:00	5	Humedad	75
46049	7	Sololá	710	Panajachel	8	Panajachel	7	Julio	2023-01-07T00:00:00	2024-11-08T13:00:00	6	Velocidad del viento	3.2
46050	7	Sololá	710	Panajachel	8	Panajachel	7	Julio	2023-01-07T00:00:00	2024-11-08T13:00:00	7	Dirección del viento	3.22
46051	7	Sololá	710	Panajachel	8	Panajachel	7	Julio	2023-01-07T00:00:00	2024-11-08T13:00:00	1	Precipitación	0
46052	7	Sololá	710	Panajachel	8	Panajachel	7	Julio	2023-01-07T00:00:00	2024-11-08T13:00:00	8	Radiación solar	937
46053	7	Sololá	710	Panajachel	8	Panajachel	7	Julio	2023-01-07T00:00:00	2024-11-08T14:00:00	2	Temperatura media	23.8
46054	7	Sololá	710	Panajachel	8	Panajachel	7	Julio	2023-01-07T00:00:00	2024-11-08T14:00:00	4	Temperatura máxima	25.7
46055	7	Sololá	710	Panajachel	8	Panajachel	7	Julio	2023-01-07T00:00:00	2024-11-08T14:00:00	3	Temperatura mínima	23.8
46056	7	Sololá	710	Panajachel	8	Panajachel	7	Julio	2023-01-07T00:00:00	2024-11-08T14:00:00	5	Humedad	81
46057	7	Sololá	710	Panajachel	8	Panajachel	7	Julio	2023-01-07T00:00:00	2024-11-08T14:00:00	6	Velocidad del viento	1.6
46058	7	Sololá	710	Panajachel	8	Panajachel	7	Julio	2023-01-07T00:00:00	2024-11-08T14:00:00	7	Dirección del viento	1.61
46059	7	Sololá	710	Panajachel	8	Panajachel	7	Julio	2023-01-07T00:00:00	2024-11-08T14:00:00	1	Precipitación	0
46060	7	Sololá	710	Panajachel	8	Panajachel	7	Julio	2023-01-07T00:00:00	2024-11-08T14:00:00	8	Radiación solar	518
46061	7	Sololá	710	Panajachel	8	Panajachel	7	Julio	2023-01-07T00:00:00	2024-11-08T15:00:00	2	Temperatura media	18.1
46062	7	Sololá	710	Panajachel	8	Panajachel	7	Julio	2023-01-07T00:00:00	2024-11-08T15:00:00	4	Temperatura máxima	23.7
46063	7	Sololá	710	Panajachel	8	Panajachel	7	Julio	2023-01-07T00:00:00	2024-11-08T15:00:00	3	Temperatura mínima	18.1
46064	7	Sololá	710	Panajachel	8	Panajachel	7	Julio	2023-01-07T00:00:00	2024-11-08T15:00:00	5	Humedad	88
46065	7	Sololá	710	Panajachel	8	Panajachel	7	Julio	2023-01-07T00:00:00	2024-11-08T15:00:00	6	Velocidad del viento	4.8
46066	7	Sololá	710	Panajachel	8	Panajachel	7	Julio	2023-01-07T00:00:00	2024-11-08T15:00:00	7	Dirección del viento	4.83
46067	7	Sololá	710	Panajachel	8	Panajachel	7	Julio	2023-01-07T00:00:00	2024-11-08T15:00:00	1	Precipitación	10.2
46068	7	Sololá	710	Panajachel	8	Panajachel	7	Julio	2023-01-07T00:00:00	2024-11-08T15:00:00	8	Radiación solar	40
46069	7	Sololá	710	Panajachel	8	Panajachel	7	Julio	2023-01-07T00:00:00	2024-11-08T16:00:00	2	Temperatura media	17.3
46070	7	Sololá	710	Panajachel	8	Panajachel	7	Julio	2023-01-07T00:00:00	2024-11-08T16:00:00	4	Temperatura máxima	18.1
46071	7	Sololá	710	Panajachel	8	Panajachel	7	Julio	2023-01-07T00:00:00	2024-11-08T16:00:00	3	Temperatura mínima	17.1
46072	7	Sololá	710	Panajachel	8	Panajachel	7	Julio	2023-01-07T00:00:00	2024-11-08T16:00:00	5	Humedad	96
46073	7	Sololá	710	Panajachel	8	Panajachel	7	Julio	2023-01-07T00:00:00	2024-11-08T16:00:00	6	Velocidad del viento	1.6
46074	7	Sololá	710	Panajachel	8	Panajachel	7	Julio	2023-01-07T00:00:00	2024-11-08T16:00:00	7	Dirección del viento	1.61
46075	7	Sololá	710	Panajachel	8	Panajachel	7	Julio	2023-01-07T00:00:00	2024-11-08T16:00:00	1	Precipitación	9.2
46076	7	Sololá	710	Panajachel	8	Panajachel	7	Julio	2023-01-07T00:00:00	2024-11-08T16:00:00	8	Radiación solar	3
46077	7	Sololá	710	Panajachel	8	Panajachel	7	Julio	2023-01-07T00:00:00	2024-11-08T17:00:00	2	Temperatura media	17.3
46078	7	Sololá	710	Panajachel	8	Panajachel	7	Julio	2023-01-07T00:00:00	2024-11-08T17:00:00	4	Temperatura máxima	17.3
46079	7	Sololá	710	Panajachel	8	Panajachel	7	Julio	2023-01-07T00:00:00	2024-11-08T17:00:00	3	Temperatura mínima	16.9
46080	7	Sololá	710	Panajachel	8	Panajachel	7	Julio	2023-01-07T00:00:00	2024-11-08T17:00:00	5	Humedad	94
46081	7	Sololá	710	Panajachel	8	Panajachel	7	Julio	2023-01-07T00:00:00	2024-11-08T17:00:00	6	Velocidad del viento	0
46082	7	Sololá	710	Panajachel	8	Panajachel	7	Julio	2023-01-07T00:00:00	2024-11-08T17:00:00	7	Dirección del viento	0
46083	7	Sololá	710	Panajachel	8	Panajachel	7	Julio	2023-01-07T00:00:00	2024-11-08T17:00:00	1	Precipitación	0.6
46084	7	Sololá	710	Panajachel	8	Panajachel	7	Julio	2023-01-07T00:00:00	2024-11-08T17:00:00	8	Radiación solar	18
46085	7	Sololá	710	Panajachel	8	Panajachel	7	Julio	2023-01-07T00:00:00	2024-11-08T18:00:00	2	Temperatura media	16.5
46086	7	Sololá	710	Panajachel	8	Panajachel	7	Julio	2023-01-07T00:00:00	2024-11-08T18:00:00	4	Temperatura máxima	17.5
46087	7	Sololá	710	Panajachel	8	Panajachel	7	Julio	2023-01-07T00:00:00	2024-11-08T18:00:00	3	Temperatura mínima	16.3
46088	7	Sololá	710	Panajachel	8	Panajachel	7	Julio	2023-01-07T00:00:00	2024-11-08T18:00:00	5	Humedad	96
46089	7	Sololá	710	Panajachel	8	Panajachel	7	Julio	2023-01-07T00:00:00	2024-11-08T18:00:00	6	Velocidad del viento	1.6
46090	7	Sololá	710	Panajachel	8	Panajachel	7	Julio	2023-01-07T00:00:00	2024-11-08T18:00:00	7	Dirección del viento	1.61
46091	7	Sololá	710	Panajachel	8	Panajachel	7	Julio	2023-01-07T00:00:00	2024-11-08T18:00:00	1	Precipitación	8.8
46092	7	Sololá	710	Panajachel	8	Panajachel	7	Julio	2023-01-07T00:00:00	2024-11-08T18:00:00	8	Radiación solar	0
46093	7	Sololá	710	Panajachel	8	Panajachel	7	Julio	2023-01-07T00:00:00	2024-11-08T19:00:00	2	Temperatura media	16.8
46094	7	Sololá	710	Panajachel	8	Panajachel	7	Julio	2023-01-07T00:00:00	2024-11-08T19:00:00	4	Temperatura máxima	16.8
46095	7	Sololá	710	Panajachel	8	Panajachel	7	Julio	2023-01-07T00:00:00	2024-11-08T19:00:00	3	Temperatura mínima	16.5
46096	7	Sololá	710	Panajachel	8	Panajachel	7	Julio	2023-01-07T00:00:00	2024-11-08T19:00:00	5	Humedad	96
46097	7	Sololá	710	Panajachel	8	Panajachel	7	Julio	2023-01-07T00:00:00	2024-11-08T19:00:00	6	Velocidad del viento	0
46098	7	Sololá	710	Panajachel	8	Panajachel	7	Julio	2023-01-07T00:00:00	2024-11-08T19:00:00	7	Dirección del viento	0
46099	7	Sololá	710	Panajachel	8	Panajachel	7	Julio	2023-01-07T00:00:00	2024-11-08T19:00:00	1	Precipitación	0.8
46100	7	Sololá	710	Panajachel	8	Panajachel	7	Julio	2023-01-07T00:00:00	2024-11-08T19:00:00	8	Radiación solar	0
46101	7	Sololá	710	Panajachel	8	Panajachel	7	Julio	2023-01-07T00:00:00	2024-11-08T20:00:00	2	Temperatura media	17.3
46102	7	Sololá	710	Panajachel	8	Panajachel	7	Julio	2023-01-07T00:00:00	2024-11-08T20:00:00	4	Temperatura máxima	17.4
46103	7	Sololá	710	Panajachel	8	Panajachel	7	Julio	2023-01-07T00:00:00	2024-11-08T20:00:00	3	Temperatura mínima	16.8
46104	7	Sololá	710	Panajachel	8	Panajachel	7	Julio	2023-01-07T00:00:00	2024-11-08T20:00:00	5	Humedad	94
46105	7	Sololá	710	Panajachel	8	Panajachel	7	Julio	2023-01-07T00:00:00	2024-11-08T20:00:00	6	Velocidad del viento	0
46106	7	Sololá	710	Panajachel	8	Panajachel	7	Julio	2023-01-07T00:00:00	2024-11-08T20:00:00	7	Dirección del viento	0
46107	7	Sololá	710	Panajachel	8	Panajachel	7	Julio	2023-01-07T00:00:00	2024-11-08T20:00:00	1	Precipitación	0
46108	7	Sololá	710	Panajachel	8	Panajachel	7	Julio	2023-01-07T00:00:00	2024-11-08T20:00:00	8	Radiación solar	0
46109	7	Sololá	710	Panajachel	8	Panajachel	7	Julio	2023-01-07T00:00:00	2024-11-08T21:00:00	2	Temperatura media	17.2
46110	7	Sololá	710	Panajachel	8	Panajachel	7	Julio	2023-01-07T00:00:00	2024-11-08T21:00:00	4	Temperatura máxima	17.3
46111	7	Sololá	710	Panajachel	8	Panajachel	7	Julio	2023-01-07T00:00:00	2024-11-08T21:00:00	3	Temperatura mínima	17.1
46112	7	Sololá	710	Panajachel	8	Panajachel	7	Julio	2023-01-07T00:00:00	2024-11-08T21:00:00	5	Humedad	95
46113	7	Sololá	710	Panajachel	8	Panajachel	7	Julio	2023-01-07T00:00:00	2024-11-08T21:00:00	6	Velocidad del viento	0
46114	7	Sololá	710	Panajachel	8	Panajachel	7	Julio	2023-01-07T00:00:00	2024-11-08T21:00:00	7	Dirección del viento	0
46115	7	Sololá	710	Panajachel	8	Panajachel	7	Julio	2023-01-07T00:00:00	2024-11-08T21:00:00	1	Precipitación	0
46116	7	Sololá	710	Panajachel	8	Panajachel	7	Julio	2023-01-07T00:00:00	2024-11-08T21:00:00	8	Radiación solar	0
46117	7	Sololá	710	Panajachel	8	Panajachel	7	Julio	2023-01-07T00:00:00	2024-11-08T22:00:00	2	Temperatura media	17.2
46118	7	Sololá	710	Panajachel	8	Panajachel	7	Julio	2023-01-07T00:00:00	2024-11-08T22:00:00	4	Temperatura máxima	17.4
46119	7	Sololá	710	Panajachel	8	Panajachel	7	Julio	2023-01-07T00:00:00	2024-11-08T22:00:00	3	Temperatura mínima	17.2
46120	7	Sololá	710	Panajachel	8	Panajachel	7	Julio	2023-01-07T00:00:00	2024-11-08T22:00:00	5	Humedad	95
46121	7	Sololá	710	Panajachel	8	Panajachel	7	Julio	2023-01-07T00:00:00	2024-11-08T22:00:00	6	Velocidad del viento	0
46122	7	Sololá	710	Panajachel	8	Panajachel	7	Julio	2023-01-07T00:00:00	2024-11-08T22:00:00	7	Dirección del viento	0
46123	7	Sololá	710	Panajachel	8	Panajachel	7	Julio	2023-01-07T00:00:00	2024-11-08T22:00:00	1	Precipitación	0
46124	7	Sololá	710	Panajachel	8	Panajachel	7	Julio	2023-01-07T00:00:00	2024-11-08T22:00:00	8	Radiación solar	0
46125	7	Sololá	710	Panajachel	8	Panajachel	7	Julio	2023-01-07T00:00:00	2024-11-08T23:00:00	2	Temperatura media	17.3
46126	7	Sololá	710	Panajachel	8	Panajachel	7	Julio	2023-01-07T00:00:00	2024-11-08T23:00:00	4	Temperatura máxima	17.3
46127	7	Sololá	710	Panajachel	8	Panajachel	7	Julio	2023-01-07T00:00:00	2024-11-08T23:00:00	3	Temperatura mínima	17
46128	7	Sololá	710	Panajachel	8	Panajachel	7	Julio	2023-01-07T00:00:00	2024-11-08T23:00:00	5	Humedad	92
46129	7	Sololá	710	Panajachel	8	Panajachel	7	Julio	2023-01-07T00:00:00	2024-11-08T23:00:00	6	Velocidad del viento	0
46130	7	Sololá	710	Panajachel	8	Panajachel	7	Julio	2023-01-07T00:00:00	2024-11-08T23:00:00	7	Dirección del viento	0
46131	7	Sololá	710	Panajachel	8	Panajachel	7	Julio	2023-01-07T00:00:00	2024-11-08T23:00:00	1	Precipitación	0
46132	7	Sololá	710	Panajachel	8	Panajachel	7	Julio	2023-01-07T00:00:00	2024-11-08T23:00:00	8	Radiación solar	0
46133	7	Sololá	710	Panajachel	8	Panajachel	7	Julio	2023-02-07T00:00:00	2024-11-08T00:00:00	2	Temperatura media	17.1
46134	7	Sololá	710	Panajachel	8	Panajachel	7	Julio	2023-02-07T00:00:00	2024-11-08T00:00:00	4	Temperatura máxima	17.4
46135	7	Sololá	710	Panajachel	8	Panajachel	7	Julio	2023-02-07T00:00:00	2024-11-08T00:00:00	3	Temperatura mínima	16.9
46136	7	Sololá	710	Panajachel	8	Panajachel	7	Julio	2023-02-07T00:00:00	2024-11-08T00:00:00	5	Humedad	91
46137	7	Sololá	710	Panajachel	8	Panajachel	7	Julio	2023-02-07T00:00:00	2024-11-08T00:00:00	6	Velocidad del viento	0
46138	7	Sololá	710	Panajachel	8	Panajachel	7	Julio	2023-02-07T00:00:00	2024-11-08T00:00:00	7	Dirección del viento	0
46139	7	Sololá	710	Panajachel	8	Panajachel	7	Julio	2023-02-07T00:00:00	2024-11-08T00:00:00	1	Precipitación	0
46140	7	Sololá	710	Panajachel	8	Panajachel	7	Julio	2023-02-07T00:00:00	2024-11-08T00:00:00	8	Radiación solar	0
46141	7	Sololá	710	Panajachel	8	Panajachel	7	Julio	2023-02-07T00:00:00	2024-11-08T01:00:00	2	Temperatura media	16.9
46142	7	Sololá	710	Panajachel	8	Panajachel	7	Julio	2023-02-07T00:00:00	2024-11-08T01:00:00	4	Temperatura máxima	17.4
46143	7	Sololá	710	Panajachel	8	Panajachel	7	Julio	2023-02-07T00:00:00	2024-11-08T01:00:00	3	Temperatura mínima	16.8
46144	7	Sololá	710	Panajachel	8	Panajachel	7	Julio	2023-02-07T00:00:00	2024-11-08T01:00:00	5	Humedad	91
46145	7	Sololá	710	Panajachel	8	Panajachel	7	Julio	2023-02-07T00:00:00	2024-11-08T01:00:00	6	Velocidad del viento	0
46146	7	Sololá	710	Panajachel	8	Panajachel	7	Julio	2023-02-07T00:00:00	2024-11-08T01:00:00	7	Dirección del viento	0
46147	7	Sololá	710	Panajachel	8	Panajachel	7	Julio	2023-02-07T00:00:00	2024-11-08T01:00:00	1	Precipitación	0
46148	7	Sololá	710	Panajachel	8	Panajachel	7	Julio	2023-02-07T00:00:00	2024-11-08T01:00:00	8	Radiación solar	0
46149	7	Sololá	710	Panajachel	8	Panajachel	7	Julio	2023-02-07T00:00:00	2024-11-08T02:00:00	2	Temperatura media	16.8
46150	7	Sololá	710	Panajachel	8	Panajachel	7	Julio	2023-02-07T00:00:00	2024-11-08T02:00:00	4	Temperatura máxima	17
46151	7	Sololá	710	Panajachel	8	Panajachel	7	Julio	2023-02-07T00:00:00	2024-11-08T02:00:00	3	Temperatura mínima	16.7
46152	7	Sololá	710	Panajachel	8	Panajachel	7	Julio	2023-02-07T00:00:00	2024-11-08T02:00:00	5	Humedad	93
46153	7	Sololá	710	Panajachel	8	Panajachel	7	Julio	2023-02-07T00:00:00	2024-11-08T02:00:00	6	Velocidad del viento	0
46154	7	Sololá	710	Panajachel	8	Panajachel	7	Julio	2023-02-07T00:00:00	2024-11-08T02:00:00	7	Dirección del viento	0
46155	7	Sololá	710	Panajachel	8	Panajachel	7	Julio	2023-02-07T00:00:00	2024-11-08T02:00:00	1	Precipitación	0
46156	7	Sololá	710	Panajachel	8	Panajachel	7	Julio	2023-02-07T00:00:00	2024-11-08T02:00:00	8	Radiación solar	0
46157	7	Sololá	710	Panajachel	8	Panajachel	7	Julio	2023-02-07T00:00:00	2024-11-08T03:00:00	2	Temperatura media	16.5
46158	7	Sololá	710	Panajachel	8	Panajachel	7	Julio	2023-02-07T00:00:00	2024-11-08T03:00:00	4	Temperatura máxima	17
46159	7	Sololá	710	Panajachel	8	Panajachel	7	Julio	2023-02-07T00:00:00	2024-11-08T03:00:00	3	Temperatura mínima	16.4
46160	7	Sololá	710	Panajachel	8	Panajachel	7	Julio	2023-02-07T00:00:00	2024-11-08T03:00:00	5	Humedad	90
46161	7	Sololá	710	Panajachel	8	Panajachel	7	Julio	2023-02-07T00:00:00	2024-11-08T03:00:00	6	Velocidad del viento	0
46162	7	Sololá	710	Panajachel	8	Panajachel	7	Julio	2023-02-07T00:00:00	2024-11-08T03:00:00	7	Dirección del viento	0
46163	7	Sololá	710	Panajachel	8	Panajachel	7	Julio	2023-02-07T00:00:00	2024-11-08T03:00:00	1	Precipitación	0
46164	7	Sololá	710	Panajachel	8	Panajachel	7	Julio	2023-02-07T00:00:00	2024-11-08T03:00:00	8	Radiación solar	0
46165	7	Sololá	710	Panajachel	8	Panajachel	7	Julio	2023-02-07T00:00:00	2024-11-08T04:00:00	2	Temperatura media	16.6
46166	7	Sololá	710	Panajachel	8	Panajachel	7	Julio	2023-02-07T00:00:00	2024-11-08T04:00:00	4	Temperatura máxima	16.7
46167	7	Sololá	710	Panajachel	8	Panajachel	7	Julio	2023-02-07T00:00:00	2024-11-08T04:00:00	3	Temperatura mínima	16.4
46168	7	Sololá	710	Panajachel	8	Panajachel	7	Julio	2023-02-07T00:00:00	2024-11-08T04:00:00	5	Humedad	89
46169	7	Sololá	710	Panajachel	8	Panajachel	7	Julio	2023-02-07T00:00:00	2024-11-08T04:00:00	6	Velocidad del viento	0
46170	7	Sololá	710	Panajachel	8	Panajachel	7	Julio	2023-02-07T00:00:00	2024-11-08T04:00:00	7	Dirección del viento	0
46171	7	Sololá	710	Panajachel	8	Panajachel	7	Julio	2023-02-07T00:00:00	2024-11-08T04:00:00	1	Precipitación	0
46172	7	Sololá	710	Panajachel	8	Panajachel	7	Julio	2023-02-07T00:00:00	2024-11-08T04:00:00	8	Radiación solar	0
46173	7	Sololá	710	Panajachel	8	Panajachel	7	Julio	2023-02-07T00:00:00	2024-11-08T05:00:00	2	Temperatura media	15.9
46174	7	Sololá	710	Panajachel	8	Panajachel	7	Julio	2023-02-07T00:00:00	2024-11-08T05:00:00	4	Temperatura máxima	16.6
46175	7	Sololá	710	Panajachel	8	Panajachel	7	Julio	2023-02-07T00:00:00	2024-11-08T05:00:00	3	Temperatura mínima	15.9
46176	7	Sololá	710	Panajachel	8	Panajachel	7	Julio	2023-02-07T00:00:00	2024-11-08T05:00:00	5	Humedad	91
46177	7	Sololá	710	Panajachel	8	Panajachel	7	Julio	2023-02-07T00:00:00	2024-11-08T05:00:00	6	Velocidad del viento	0
46178	7	Sololá	710	Panajachel	8	Panajachel	7	Julio	2023-02-07T00:00:00	2024-11-08T05:00:00	7	Dirección del viento	0
46179	7	Sololá	710	Panajachel	8	Panajachel	7	Julio	2023-02-07T00:00:00	2024-11-08T05:00:00	1	Precipitación	0
46180	7	Sololá	710	Panajachel	8	Panajachel	7	Julio	2023-02-07T00:00:00	2024-11-08T05:00:00	8	Radiación solar	0
46181	7	Sololá	710	Panajachel	8	Panajachel	7	Julio	2023-02-07T00:00:00	2024-11-08T06:00:00	2	Temperatura media	15.9
46182	7	Sololá	710	Panajachel	8	Panajachel	7	Julio	2023-02-07T00:00:00	2024-11-08T06:00:00	4	Temperatura máxima	15.9
46183	7	Sololá	710	Panajachel	8	Panajachel	7	Julio	2023-02-07T00:00:00	2024-11-08T06:00:00	3	Temperatura mínima	15.7
46184	7	Sololá	710	Panajachel	8	Panajachel	7	Julio	2023-02-07T00:00:00	2024-11-08T06:00:00	5	Humedad	90
46185	7	Sololá	710	Panajachel	8	Panajachel	7	Julio	2023-02-07T00:00:00	2024-11-08T06:00:00	6	Velocidad del viento	0
46186	7	Sololá	710	Panajachel	8	Panajachel	7	Julio	2023-02-07T00:00:00	2024-11-08T06:00:00	7	Dirección del viento	0
46187	7	Sololá	710	Panajachel	8	Panajachel	7	Julio	2023-02-07T00:00:00	2024-11-08T06:00:00	1	Precipitación	0
46188	7	Sololá	710	Panajachel	8	Panajachel	7	Julio	2023-02-07T00:00:00	2024-11-08T06:00:00	8	Radiación solar	5
46189	7	Sololá	710	Panajachel	8	Panajachel	7	Julio	2023-02-07T00:00:00	2024-11-08T07:00:00	2	Temperatura media	17.4
46190	7	Sololá	710	Panajachel	8	Panajachel	7	Julio	2023-02-07T00:00:00	2024-11-08T07:00:00	4	Temperatura máxima	17.5
46191	7	Sololá	710	Panajachel	8	Panajachel	7	Julio	2023-02-07T00:00:00	2024-11-08T07:00:00	3	Temperatura mínima	15.9
46192	7	Sololá	710	Panajachel	8	Panajachel	7	Julio	2023-02-07T00:00:00	2024-11-08T07:00:00	5	Humedad	89
46193	7	Sololá	710	Panajachel	8	Panajachel	7	Julio	2023-02-07T00:00:00	2024-11-08T07:00:00	6	Velocidad del viento	0
46194	7	Sololá	710	Panajachel	8	Panajachel	7	Julio	2023-02-07T00:00:00	2024-11-08T07:00:00	7	Dirección del viento	0
46195	7	Sololá	710	Panajachel	8	Panajachel	7	Julio	2023-02-07T00:00:00	2024-11-08T07:00:00	1	Precipitación	0
46196	7	Sololá	710	Panajachel	8	Panajachel	7	Julio	2023-02-07T00:00:00	2024-11-08T07:00:00	8	Radiación solar	82
46197	7	Sololá	710	Panajachel	8	Panajachel	7	Julio	2023-02-07T00:00:00	2024-11-08T08:00:00	2	Temperatura media	19.7
46198	7	Sololá	710	Panajachel	8	Panajachel	7	Julio	2023-02-07T00:00:00	2024-11-08T08:00:00	4	Temperatura máxima	19.7
46199	7	Sololá	710	Panajachel	8	Panajachel	7	Julio	2023-02-07T00:00:00	2024-11-08T08:00:00	3	Temperatura mínima	17.3
46200	7	Sololá	710	Panajachel	8	Panajachel	7	Julio	2023-02-07T00:00:00	2024-11-08T08:00:00	5	Humedad	83
46201	7	Sololá	710	Panajachel	8	Panajachel	7	Julio	2023-02-07T00:00:00	2024-11-08T08:00:00	6	Velocidad del viento	0
46202	7	Sololá	710	Panajachel	8	Panajachel	7	Julio	2023-02-07T00:00:00	2024-11-08T08:00:00	7	Dirección del viento	0
46203	7	Sololá	710	Panajachel	8	Panajachel	7	Julio	2023-02-07T00:00:00	2024-11-08T08:00:00	1	Precipitación	0
46204	7	Sololá	710	Panajachel	8	Panajachel	7	Julio	2023-02-07T00:00:00	2024-11-08T08:00:00	8	Radiación solar	207
46205	7	Sololá	710	Panajachel	8	Panajachel	7	Julio	2023-02-07T00:00:00	2024-11-08T09:00:00	2	Temperatura media	21.4
46206	7	Sololá	710	Panajachel	8	Panajachel	7	Julio	2023-02-07T00:00:00	2024-11-08T09:00:00	4	Temperatura máxima	21.4
46207	7	Sololá	710	Panajachel	8	Panajachel	7	Julio	2023-02-07T00:00:00	2024-11-08T09:00:00	3	Temperatura mínima	19.7
46208	7	Sololá	710	Panajachel	8	Panajachel	7	Julio	2023-02-07T00:00:00	2024-11-08T09:00:00	5	Humedad	77
46209	7	Sololá	710	Panajachel	8	Panajachel	7	Julio	2023-02-07T00:00:00	2024-11-08T09:00:00	6	Velocidad del viento	0
46210	7	Sololá	710	Panajachel	8	Panajachel	7	Julio	2023-02-07T00:00:00	2024-11-08T09:00:00	7	Dirección del viento	0
46211	7	Sololá	710	Panajachel	8	Panajachel	7	Julio	2023-02-07T00:00:00	2024-11-08T09:00:00	1	Precipitación	0
46212	7	Sololá	710	Panajachel	8	Panajachel	7	Julio	2023-02-07T00:00:00	2024-11-08T09:00:00	8	Radiación solar	423
46213	7	Sololá	710	Panajachel	8	Panajachel	7	Julio	2023-02-07T00:00:00	2024-11-08T10:00:00	2	Temperatura media	22
46214	7	Sololá	710	Panajachel	8	Panajachel	7	Julio	2023-02-07T00:00:00	2024-11-08T10:00:00	4	Temperatura máxima	22.1
46215	7	Sololá	710	Panajachel	8	Panajachel	7	Julio	2023-02-07T00:00:00	2024-11-08T10:00:00	3	Temperatura mínima	21.3
46216	7	Sololá	710	Panajachel	8	Panajachel	7	Julio	2023-02-07T00:00:00	2024-11-08T10:00:00	5	Humedad	76
46217	7	Sololá	710	Panajachel	8	Panajachel	7	Julio	2023-02-07T00:00:00	2024-11-08T10:00:00	6	Velocidad del viento	0
46218	7	Sololá	710	Panajachel	8	Panajachel	7	Julio	2023-02-07T00:00:00	2024-11-08T10:00:00	7	Dirección del viento	0
46219	7	Sololá	710	Panajachel	8	Panajachel	7	Julio	2023-02-07T00:00:00	2024-11-08T10:00:00	1	Precipitación	0
46220	7	Sololá	710	Panajachel	8	Panajachel	7	Julio	2023-02-07T00:00:00	2024-11-08T10:00:00	8	Radiación solar	506
46221	7	Sololá	710	Panajachel	8	Panajachel	7	Julio	2023-02-07T00:00:00	2024-11-08T11:00:00	2	Temperatura media	23.4
46222	7	Sololá	710	Panajachel	8	Panajachel	7	Julio	2023-02-07T00:00:00	2024-11-08T11:00:00	4	Temperatura máxima	23.4
46223	7	Sololá	710	Panajachel	8	Panajachel	7	Julio	2023-02-07T00:00:00	2024-11-08T11:00:00	3	Temperatura mínima	21.7
46224	7	Sololá	710	Panajachel	8	Panajachel	7	Julio	2023-02-07T00:00:00	2024-11-08T11:00:00	5	Humedad	74
46225	7	Sololá	710	Panajachel	8	Panajachel	7	Julio	2023-02-07T00:00:00	2024-11-08T11:00:00	6	Velocidad del viento	0
46226	7	Sololá	710	Panajachel	8	Panajachel	7	Julio	2023-02-07T00:00:00	2024-11-08T11:00:00	7	Dirección del viento	0
46227	7	Sololá	710	Panajachel	8	Panajachel	7	Julio	2023-02-07T00:00:00	2024-11-08T11:00:00	1	Precipitación	0
46228	7	Sololá	710	Panajachel	8	Panajachel	7	Julio	2023-02-07T00:00:00	2024-11-08T11:00:00	8	Radiación solar	621
46229	7	Sololá	710	Panajachel	8	Panajachel	7	Julio	2023-02-07T00:00:00	2024-11-08T12:00:00	2	Temperatura media	21.4
46230	7	Sololá	710	Panajachel	8	Panajachel	7	Julio	2023-02-07T00:00:00	2024-11-08T12:00:00	4	Temperatura máxima	23.5
46231	7	Sololá	710	Panajachel	8	Panajachel	7	Julio	2023-02-07T00:00:00	2024-11-08T12:00:00	3	Temperatura mínima	21.4
46232	7	Sololá	710	Panajachel	8	Panajachel	7	Julio	2023-02-07T00:00:00	2024-11-08T12:00:00	5	Humedad	82
46233	7	Sololá	710	Panajachel	8	Panajachel	7	Julio	2023-02-07T00:00:00	2024-11-08T12:00:00	6	Velocidad del viento	1.6
46234	7	Sololá	710	Panajachel	8	Panajachel	7	Julio	2023-02-07T00:00:00	2024-11-08T12:00:00	7	Dirección del viento	1.61
46235	7	Sololá	710	Panajachel	8	Panajachel	7	Julio	2023-02-07T00:00:00	2024-11-08T12:00:00	1	Precipitación	0
46236	7	Sololá	710	Panajachel	8	Panajachel	7	Julio	2023-02-07T00:00:00	2024-11-08T12:00:00	8	Radiación solar	306
46237	7	Sololá	710	Panajachel	8	Panajachel	7	Julio	2023-02-07T00:00:00	2024-11-08T13:00:00	2	Temperatura media	20.9
46238	7	Sololá	710	Panajachel	8	Panajachel	7	Julio	2023-02-07T00:00:00	2024-11-08T13:00:00	4	Temperatura máxima	21.4
46239	7	Sololá	710	Panajachel	8	Panajachel	7	Julio	2023-02-07T00:00:00	2024-11-08T13:00:00	3	Temperatura mínima	20.9
46240	7	Sololá	710	Panajachel	8	Panajachel	7	Julio	2023-02-07T00:00:00	2024-11-08T13:00:00	5	Humedad	85
46241	7	Sololá	710	Panajachel	8	Panajachel	7	Julio	2023-02-07T00:00:00	2024-11-08T13:00:00	6	Velocidad del viento	1.6
46242	7	Sololá	710	Panajachel	8	Panajachel	7	Julio	2023-02-07T00:00:00	2024-11-08T13:00:00	7	Dirección del viento	1.61
46243	7	Sololá	710	Panajachel	8	Panajachel	7	Julio	2023-02-07T00:00:00	2024-11-08T13:00:00	1	Precipitación	0
46244	7	Sololá	710	Panajachel	8	Panajachel	7	Julio	2023-02-07T00:00:00	2024-11-08T13:00:00	8	Radiación solar	215
46245	7	Sololá	710	Panajachel	8	Panajachel	7	Julio	2023-02-07T00:00:00	2024-11-08T14:00:00	2	Temperatura media	21.3
46246	7	Sololá	710	Panajachel	8	Panajachel	7	Julio	2023-02-07T00:00:00	2024-11-08T14:00:00	4	Temperatura máxima	21.6
46247	7	Sololá	710	Panajachel	8	Panajachel	7	Julio	2023-02-07T00:00:00	2024-11-08T14:00:00	3	Temperatura mínima	20.7
46248	7	Sololá	710	Panajachel	8	Panajachel	7	Julio	2023-02-07T00:00:00	2024-11-08T14:00:00	5	Humedad	84
46249	7	Sololá	710	Panajachel	8	Panajachel	7	Julio	2023-02-07T00:00:00	2024-11-08T14:00:00	6	Velocidad del viento	0
46250	7	Sololá	710	Panajachel	8	Panajachel	7	Julio	2023-02-07T00:00:00	2024-11-08T14:00:00	7	Dirección del viento	0
46251	7	Sololá	710	Panajachel	8	Panajachel	7	Julio	2023-02-07T00:00:00	2024-11-08T14:00:00	1	Precipitación	0
46252	7	Sololá	710	Panajachel	8	Panajachel	7	Julio	2023-02-07T00:00:00	2024-11-08T14:00:00	8	Radiación solar	294
46253	7	Sololá	710	Panajachel	8	Panajachel	7	Julio	2023-02-07T00:00:00	2024-11-08T15:00:00	2	Temperatura media	19.6
46254	7	Sololá	710	Panajachel	8	Panajachel	7	Julio	2023-02-07T00:00:00	2024-11-08T15:00:00	4	Temperatura máxima	21.3
46255	7	Sololá	710	Panajachel	8	Panajachel	7	Julio	2023-02-07T00:00:00	2024-11-08T15:00:00	3	Temperatura mínima	19.6
46256	7	Sololá	710	Panajachel	8	Panajachel	7	Julio	2023-02-07T00:00:00	2024-11-08T15:00:00	5	Humedad	90
46257	7	Sololá	710	Panajachel	8	Panajachel	7	Julio	2023-02-07T00:00:00	2024-11-08T15:00:00	6	Velocidad del viento	1.6
46258	7	Sololá	710	Panajachel	8	Panajachel	7	Julio	2023-02-07T00:00:00	2024-11-08T15:00:00	7	Dirección del viento	1.61
46259	7	Sololá	710	Panajachel	8	Panajachel	7	Julio	2023-02-07T00:00:00	2024-11-08T15:00:00	1	Precipitación	0
46260	7	Sololá	710	Panajachel	8	Panajachel	7	Julio	2023-02-07T00:00:00	2024-11-08T15:00:00	8	Radiación solar	127
46261	7	Sololá	710	Panajachel	8	Panajachel	7	Julio	2023-02-07T00:00:00	2024-11-08T16:00:00	2	Temperatura media	19.7
46262	7	Sololá	710	Panajachel	8	Panajachel	7	Julio	2023-02-07T00:00:00	2024-11-08T16:00:00	4	Temperatura máxima	19.7
46263	7	Sololá	710	Panajachel	8	Panajachel	7	Julio	2023-02-07T00:00:00	2024-11-08T16:00:00	3	Temperatura mínima	19.4
46264	7	Sololá	710	Panajachel	8	Panajachel	7	Julio	2023-02-07T00:00:00	2024-11-08T16:00:00	5	Humedad	90
46265	7	Sololá	710	Panajachel	8	Panajachel	7	Julio	2023-02-07T00:00:00	2024-11-08T16:00:00	6	Velocidad del viento	0
46266	7	Sololá	710	Panajachel	8	Panajachel	7	Julio	2023-02-07T00:00:00	2024-11-08T16:00:00	7	Dirección del viento	0
46267	7	Sololá	710	Panajachel	8	Panajachel	7	Julio	2023-02-07T00:00:00	2024-11-08T16:00:00	1	Precipitación	0
46268	7	Sololá	710	Panajachel	8	Panajachel	7	Julio	2023-02-07T00:00:00	2024-11-08T16:00:00	8	Radiación solar	141
46269	7	Sololá	710	Panajachel	8	Panajachel	7	Julio	2023-02-07T00:00:00	2024-11-08T17:00:00	2	Temperatura media	20.6
46270	7	Sololá	710	Panajachel	8	Panajachel	7	Julio	2023-02-07T00:00:00	2024-11-08T17:00:00	4	Temperatura máxima	20.8
46271	7	Sololá	710	Panajachel	8	Panajachel	7	Julio	2023-02-07T00:00:00	2024-11-08T17:00:00	3	Temperatura mínima	19.7
46272	7	Sololá	710	Panajachel	8	Panajachel	7	Julio	2023-02-07T00:00:00	2024-11-08T17:00:00	5	Humedad	85
46273	7	Sololá	710	Panajachel	8	Panajachel	7	Julio	2023-02-07T00:00:00	2024-11-08T17:00:00	6	Velocidad del viento	0
46274	7	Sololá	710	Panajachel	8	Panajachel	7	Julio	2023-02-07T00:00:00	2024-11-08T17:00:00	7	Dirección del viento	0
46275	7	Sololá	710	Panajachel	8	Panajachel	7	Julio	2023-02-07T00:00:00	2024-11-08T17:00:00	1	Precipitación	0
46276	7	Sololá	710	Panajachel	8	Panajachel	7	Julio	2023-02-07T00:00:00	2024-11-08T17:00:00	8	Radiación solar	167
46277	7	Sololá	710	Panajachel	8	Panajachel	7	Julio	2023-02-07T00:00:00	2024-11-08T18:00:00	2	Temperatura media	19.9
46278	7	Sololá	710	Panajachel	8	Panajachel	7	Julio	2023-02-07T00:00:00	2024-11-08T18:00:00	4	Temperatura máxima	20.6
46279	7	Sololá	710	Panajachel	8	Panajachel	7	Julio	2023-02-07T00:00:00	2024-11-08T18:00:00	3	Temperatura mínima	19.9
46280	7	Sololá	710	Panajachel	8	Panajachel	7	Julio	2023-02-07T00:00:00	2024-11-08T18:00:00	5	Humedad	87
46281	7	Sololá	710	Panajachel	8	Panajachel	7	Julio	2023-02-07T00:00:00	2024-11-08T18:00:00	6	Velocidad del viento	0
46282	7	Sololá	710	Panajachel	8	Panajachel	7	Julio	2023-02-07T00:00:00	2024-11-08T18:00:00	7	Dirección del viento	0
46283	7	Sololá	710	Panajachel	8	Panajachel	7	Julio	2023-02-07T00:00:00	2024-11-08T18:00:00	1	Precipitación	0
46284	7	Sololá	710	Panajachel	8	Panajachel	7	Julio	2023-02-07T00:00:00	2024-11-08T18:00:00	8	Radiación solar	28
46285	7	Sololá	710	Panajachel	8	Panajachel	7	Julio	2023-02-07T00:00:00	2024-11-08T19:00:00	2	Temperatura media	19.3
46286	7	Sololá	710	Panajachel	8	Panajachel	7	Julio	2023-02-07T00:00:00	2024-11-08T19:00:00	4	Temperatura máxima	19.9
46287	7	Sololá	710	Panajachel	8	Panajachel	7	Julio	2023-02-07T00:00:00	2024-11-08T19:00:00	3	Temperatura mínima	19.3
46288	7	Sololá	710	Panajachel	8	Panajachel	7	Julio	2023-02-07T00:00:00	2024-11-08T19:00:00	5	Humedad	91
46289	7	Sololá	710	Panajachel	8	Panajachel	7	Julio	2023-02-07T00:00:00	2024-11-08T19:00:00	6	Velocidad del viento	1.6
46290	7	Sololá	710	Panajachel	8	Panajachel	7	Julio	2023-02-07T00:00:00	2024-11-08T19:00:00	7	Dirección del viento	1.61
46291	7	Sololá	710	Panajachel	8	Panajachel	7	Julio	2023-02-07T00:00:00	2024-11-08T19:00:00	1	Precipitación	0
46292	7	Sololá	710	Panajachel	8	Panajachel	7	Julio	2023-02-07T00:00:00	2024-11-08T19:00:00	8	Radiación solar	0
46293	7	Sololá	710	Panajachel	8	Panajachel	7	Julio	2023-02-07T00:00:00	2024-11-08T20:00:00	2	Temperatura media	19.2
46294	7	Sololá	710	Panajachel	8	Panajachel	7	Julio	2023-02-07T00:00:00	2024-11-08T20:00:00	4	Temperatura máxima	19.3
46295	7	Sololá	710	Panajachel	8	Panajachel	7	Julio	2023-02-07T00:00:00	2024-11-08T20:00:00	3	Temperatura mínima	19.2
46296	7	Sololá	710	Panajachel	8	Panajachel	7	Julio	2023-02-07T00:00:00	2024-11-08T20:00:00	5	Humedad	92
46297	7	Sololá	710	Panajachel	8	Panajachel	7	Julio	2023-02-07T00:00:00	2024-11-08T20:00:00	6	Velocidad del viento	0
46298	7	Sololá	710	Panajachel	8	Panajachel	7	Julio	2023-02-07T00:00:00	2024-11-08T20:00:00	7	Dirección del viento	0
46299	7	Sololá	710	Panajachel	8	Panajachel	7	Julio	2023-02-07T00:00:00	2024-11-08T20:00:00	1	Precipitación	0
46300	7	Sololá	710	Panajachel	8	Panajachel	7	Julio	2023-02-07T00:00:00	2024-11-08T20:00:00	8	Radiación solar	0
46301	7	Sololá	710	Panajachel	8	Panajachel	7	Julio	2023-02-07T00:00:00	2024-11-08T21:00:00	2	Temperatura media	18.9
46302	7	Sololá	710	Panajachel	8	Panajachel	7	Julio	2023-02-07T00:00:00	2024-11-08T21:00:00	4	Temperatura máxima	19.2
46303	7	Sololá	710	Panajachel	8	Panajachel	7	Julio	2023-02-07T00:00:00	2024-11-08T21:00:00	3	Temperatura mínima	18.9
46304	7	Sololá	710	Panajachel	8	Panajachel	7	Julio	2023-02-07T00:00:00	2024-11-08T21:00:00	5	Humedad	93
46305	7	Sololá	710	Panajachel	8	Panajachel	7	Julio	2023-02-07T00:00:00	2024-11-08T21:00:00	6	Velocidad del viento	0
46306	7	Sololá	710	Panajachel	8	Panajachel	7	Julio	2023-02-07T00:00:00	2024-11-08T21:00:00	7	Dirección del viento	0
46307	7	Sololá	710	Panajachel	8	Panajachel	7	Julio	2023-02-07T00:00:00	2024-11-08T21:00:00	1	Precipitación	0
46308	7	Sololá	710	Panajachel	8	Panajachel	7	Julio	2023-02-07T00:00:00	2024-11-08T21:00:00	8	Radiación solar	0
46309	7	Sololá	710	Panajachel	8	Panajachel	7	Julio	2023-02-07T00:00:00	2024-11-08T22:00:00	2	Temperatura media	18.4
46310	7	Sololá	710	Panajachel	8	Panajachel	7	Julio	2023-02-07T00:00:00	2024-11-08T22:00:00	4	Temperatura máxima	18.9
46311	7	Sololá	710	Panajachel	8	Panajachel	7	Julio	2023-02-07T00:00:00	2024-11-08T22:00:00	3	Temperatura mínima	18.4
46312	7	Sololá	710	Panajachel	8	Panajachel	7	Julio	2023-02-07T00:00:00	2024-11-08T22:00:00	5	Humedad	94
46313	7	Sololá	710	Panajachel	8	Panajachel	7	Julio	2023-02-07T00:00:00	2024-11-08T22:00:00	6	Velocidad del viento	0
46314	7	Sololá	710	Panajachel	8	Panajachel	7	Julio	2023-02-07T00:00:00	2024-11-08T22:00:00	7	Dirección del viento	0
46315	7	Sololá	710	Panajachel	8	Panajachel	7	Julio	2023-02-07T00:00:00	2024-11-08T22:00:00	1	Precipitación	0
46316	7	Sololá	710	Panajachel	8	Panajachel	7	Julio	2023-02-07T00:00:00	2024-11-08T22:00:00	8	Radiación solar	0
46317	7	Sololá	710	Panajachel	8	Panajachel	7	Julio	2023-02-07T00:00:00	2024-11-08T23:00:00	2	Temperatura media	18.4
46318	7	Sololá	710	Panajachel	8	Panajachel	7	Julio	2023-02-07T00:00:00	2024-11-08T23:00:00	4	Temperatura máxima	18.4
46319	7	Sololá	710	Panajachel	8	Panajachel	7	Julio	2023-02-07T00:00:00	2024-11-08T23:00:00	3	Temperatura mínima	18.2
46320	7	Sololá	710	Panajachel	8	Panajachel	7	Julio	2023-02-07T00:00:00	2024-11-08T23:00:00	5	Humedad	90
46321	7	Sololá	710	Panajachel	8	Panajachel	7	Julio	2023-02-07T00:00:00	2024-11-08T23:00:00	6	Velocidad del viento	0
46322	7	Sololá	710	Panajachel	8	Panajachel	7	Julio	2023-02-07T00:00:00	2024-11-08T23:00:00	7	Dirección del viento	0
46323	7	Sololá	710	Panajachel	8	Panajachel	7	Julio	2023-02-07T00:00:00	2024-11-08T23:00:00	1	Precipitación	0
46324	7	Sololá	710	Panajachel	8	Panajachel	7	Julio	2023-02-07T00:00:00	2024-11-08T23:00:00	8	Radiación solar	0
46325	7	Sololá	710	Panajachel	8	Panajachel	7	Julio	2023-03-07T00:00:00	2024-11-08T00:00:00	2	Temperatura media	18.6
46326	7	Sololá	710	Panajachel	8	Panajachel	7	Julio	2023-03-07T00:00:00	2024-11-08T00:00:00	4	Temperatura máxima	18.6
46327	7	Sololá	710	Panajachel	8	Panajachel	7	Julio	2023-03-07T00:00:00	2024-11-08T00:00:00	3	Temperatura mínima	18.4
46328	7	Sololá	710	Panajachel	8	Panajachel	7	Julio	2023-03-07T00:00:00	2024-11-08T00:00:00	5	Humedad	89
46329	7	Sololá	710	Panajachel	8	Panajachel	7	Julio	2023-03-07T00:00:00	2024-11-08T00:00:00	6	Velocidad del viento	1.6
46330	7	Sololá	710	Panajachel	8	Panajachel	7	Julio	2023-03-07T00:00:00	2024-11-08T00:00:00	7	Dirección del viento	1.61
46331	7	Sololá	710	Panajachel	8	Panajachel	7	Julio	2023-03-07T00:00:00	2024-11-08T00:00:00	1	Precipitación	0
46332	7	Sololá	710	Panajachel	8	Panajachel	7	Julio	2023-03-07T00:00:00	2024-11-08T00:00:00	8	Radiación solar	0
46333	7	Sololá	710	Panajachel	8	Panajachel	7	Julio	2023-03-07T00:00:00	2024-11-08T01:00:00	2	Temperatura media	18.2
46334	7	Sololá	710	Panajachel	8	Panajachel	7	Julio	2023-03-07T00:00:00	2024-11-08T01:00:00	4	Temperatura máxima	18.6
46335	7	Sololá	710	Panajachel	8	Panajachel	7	Julio	2023-03-07T00:00:00	2024-11-08T01:00:00	3	Temperatura mínima	18.2
46336	7	Sololá	710	Panajachel	8	Panajachel	7	Julio	2023-03-07T00:00:00	2024-11-08T01:00:00	5	Humedad	91
46337	7	Sololá	710	Panajachel	8	Panajachel	7	Julio	2023-03-07T00:00:00	2024-11-08T01:00:00	6	Velocidad del viento	0
46338	7	Sololá	710	Panajachel	8	Panajachel	7	Julio	2023-03-07T00:00:00	2024-11-08T01:00:00	7	Dirección del viento	0
46339	7	Sololá	710	Panajachel	8	Panajachel	7	Julio	2023-03-07T00:00:00	2024-11-08T01:00:00	1	Precipitación	0
46340	7	Sololá	710	Panajachel	8	Panajachel	7	Julio	2023-03-07T00:00:00	2024-11-08T01:00:00	8	Radiación solar	0
46341	7	Sololá	710	Panajachel	8	Panajachel	7	Julio	2023-03-07T00:00:00	2024-11-08T02:00:00	2	Temperatura media	18.3
46342	7	Sololá	710	Panajachel	8	Panajachel	7	Julio	2023-03-07T00:00:00	2024-11-08T02:00:00	4	Temperatura máxima	18.4
46343	7	Sololá	710	Panajachel	8	Panajachel	7	Julio	2023-03-07T00:00:00	2024-11-08T02:00:00	3	Temperatura mínima	18.1
46344	7	Sololá	710	Panajachel	8	Panajachel	7	Julio	2023-03-07T00:00:00	2024-11-08T02:00:00	5	Humedad	89
46345	7	Sololá	710	Panajachel	8	Panajachel	7	Julio	2023-03-07T00:00:00	2024-11-08T02:00:00	6	Velocidad del viento	1.6
46346	7	Sololá	710	Panajachel	8	Panajachel	7	Julio	2023-03-07T00:00:00	2024-11-08T02:00:00	7	Dirección del viento	1.61
46347	7	Sololá	710	Panajachel	8	Panajachel	7	Julio	2023-03-07T00:00:00	2024-11-08T02:00:00	1	Precipitación	0
46348	7	Sololá	710	Panajachel	8	Panajachel	7	Julio	2023-03-07T00:00:00	2024-11-08T02:00:00	8	Radiación solar	0
46349	7	Sololá	710	Panajachel	8	Panajachel	7	Julio	2023-03-07T00:00:00	2024-11-08T03:00:00	2	Temperatura media	18.1
46350	7	Sololá	710	Panajachel	8	Panajachel	7	Julio	2023-03-07T00:00:00	2024-11-08T03:00:00	4	Temperatura máxima	18.4
46351	7	Sololá	710	Panajachel	8	Panajachel	7	Julio	2023-03-07T00:00:00	2024-11-08T03:00:00	3	Temperatura mínima	18.1
46352	7	Sololá	710	Panajachel	8	Panajachel	7	Julio	2023-03-07T00:00:00	2024-11-08T03:00:00	5	Humedad	90
46353	7	Sololá	710	Panajachel	8	Panajachel	7	Julio	2023-03-07T00:00:00	2024-11-08T03:00:00	6	Velocidad del viento	0
46354	7	Sololá	710	Panajachel	8	Panajachel	7	Julio	2023-03-07T00:00:00	2024-11-08T03:00:00	7	Dirección del viento	0
46355	7	Sololá	710	Panajachel	8	Panajachel	7	Julio	2023-03-07T00:00:00	2024-11-08T03:00:00	1	Precipitación	0
46356	7	Sololá	710	Panajachel	8	Panajachel	7	Julio	2023-03-07T00:00:00	2024-11-08T03:00:00	8	Radiación solar	0
46357	7	Sololá	710	Panajachel	8	Panajachel	7	Julio	2023-03-07T00:00:00	2024-11-08T04:00:00	2	Temperatura media	18.2
46358	7	Sololá	710	Panajachel	8	Panajachel	7	Julio	2023-03-07T00:00:00	2024-11-08T04:00:00	4	Temperatura máxima	18.2
46359	7	Sololá	710	Panajachel	8	Panajachel	7	Julio	2023-03-07T00:00:00	2024-11-08T04:00:00	3	Temperatura mínima	18
46360	7	Sololá	710	Panajachel	8	Panajachel	7	Julio	2023-03-07T00:00:00	2024-11-08T04:00:00	5	Humedad	90
46361	7	Sololá	710	Panajachel	8	Panajachel	7	Julio	2023-03-07T00:00:00	2024-11-08T04:00:00	6	Velocidad del viento	0
46362	7	Sololá	710	Panajachel	8	Panajachel	7	Julio	2023-03-07T00:00:00	2024-11-08T04:00:00	7	Dirección del viento	0
46363	7	Sololá	710	Panajachel	8	Panajachel	7	Julio	2023-03-07T00:00:00	2024-11-08T04:00:00	1	Precipitación	0
46364	7	Sololá	710	Panajachel	8	Panajachel	7	Julio	2023-03-07T00:00:00	2024-11-08T04:00:00	8	Radiación solar	0
46365	7	Sololá	710	Panajachel	8	Panajachel	7	Julio	2023-03-07T00:00:00	2024-11-08T05:00:00	2	Temperatura media	18.4
46366	7	Sololá	710	Panajachel	8	Panajachel	7	Julio	2023-03-07T00:00:00	2024-11-08T05:00:00	4	Temperatura máxima	18.4
46367	7	Sololá	710	Panajachel	8	Panajachel	7	Julio	2023-03-07T00:00:00	2024-11-08T05:00:00	3	Temperatura mínima	18.1
46368	7	Sololá	710	Panajachel	8	Panajachel	7	Julio	2023-03-07T00:00:00	2024-11-08T05:00:00	5	Humedad	91
46369	7	Sololá	710	Panajachel	8	Panajachel	7	Julio	2023-03-07T00:00:00	2024-11-08T05:00:00	6	Velocidad del viento	0
46370	7	Sololá	710	Panajachel	8	Panajachel	7	Julio	2023-03-07T00:00:00	2024-11-08T05:00:00	7	Dirección del viento	0
46371	7	Sololá	710	Panajachel	8	Panajachel	7	Julio	2023-03-07T00:00:00	2024-11-08T05:00:00	1	Precipitación	0
46372	7	Sololá	710	Panajachel	8	Panajachel	7	Julio	2023-03-07T00:00:00	2024-11-08T05:00:00	8	Radiación solar	0
46373	7	Sololá	710	Panajachel	8	Panajachel	7	Julio	2023-03-07T00:00:00	2024-11-08T06:00:00	2	Temperatura media	18.1
46374	7	Sololá	710	Panajachel	8	Panajachel	7	Julio	2023-03-07T00:00:00	2024-11-08T06:00:00	4	Temperatura máxima	18.6
46375	7	Sololá	710	Panajachel	8	Panajachel	7	Julio	2023-03-07T00:00:00	2024-11-08T06:00:00	3	Temperatura mínima	18.1
46376	7	Sololá	710	Panajachel	8	Panajachel	7	Julio	2023-03-07T00:00:00	2024-11-08T06:00:00	5	Humedad	92
46377	7	Sololá	710	Panajachel	8	Panajachel	7	Julio	2023-03-07T00:00:00	2024-11-08T06:00:00	6	Velocidad del viento	0
46378	7	Sololá	710	Panajachel	8	Panajachel	7	Julio	2023-03-07T00:00:00	2024-11-08T06:00:00	7	Dirección del viento	0
46379	7	Sololá	710	Panajachel	8	Panajachel	7	Julio	2023-03-07T00:00:00	2024-11-08T06:00:00	1	Precipitación	0
46380	7	Sololá	710	Panajachel	8	Panajachel	7	Julio	2023-03-07T00:00:00	2024-11-08T06:00:00	8	Radiación solar	0
46381	7	Sololá	710	Panajachel	8	Panajachel	7	Julio	2023-03-07T00:00:00	2024-11-08T07:00:00	2	Temperatura media	18.6
46382	7	Sololá	710	Panajachel	8	Panajachel	7	Julio	2023-03-07T00:00:00	2024-11-08T07:00:00	4	Temperatura máxima	18.6
46383	7	Sololá	710	Panajachel	8	Panajachel	7	Julio	2023-03-07T00:00:00	2024-11-08T07:00:00	3	Temperatura mínima	18
46384	7	Sololá	710	Panajachel	8	Panajachel	7	Julio	2023-03-07T00:00:00	2024-11-08T07:00:00	5	Humedad	90
46385	7	Sololá	710	Panajachel	8	Panajachel	7	Julio	2023-03-07T00:00:00	2024-11-08T07:00:00	6	Velocidad del viento	0
46386	7	Sololá	710	Panajachel	8	Panajachel	7	Julio	2023-03-07T00:00:00	2024-11-08T07:00:00	7	Dirección del viento	0
46387	7	Sololá	710	Panajachel	8	Panajachel	7	Julio	2023-03-07T00:00:00	2024-11-08T07:00:00	1	Precipitación	0
46388	7	Sololá	710	Panajachel	8	Panajachel	7	Julio	2023-03-07T00:00:00	2024-11-08T07:00:00	8	Radiación solar	41
46389	7	Sololá	710	Panajachel	8	Panajachel	7	Julio	2023-03-07T00:00:00	2024-11-08T08:00:00	2	Temperatura media	19.8
46390	7	Sololá	710	Panajachel	8	Panajachel	7	Julio	2023-03-07T00:00:00	2024-11-08T08:00:00	4	Temperatura máxima	19.8
46391	7	Sololá	710	Panajachel	8	Panajachel	7	Julio	2023-03-07T00:00:00	2024-11-08T08:00:00	3	Temperatura mínima	18.6
46392	7	Sololá	710	Panajachel	8	Panajachel	7	Julio	2023-03-07T00:00:00	2024-11-08T08:00:00	5	Humedad	89
46393	7	Sololá	710	Panajachel	8	Panajachel	7	Julio	2023-03-07T00:00:00	2024-11-08T08:00:00	6	Velocidad del viento	0
46394	7	Sololá	710	Panajachel	8	Panajachel	7	Julio	2023-03-07T00:00:00	2024-11-08T08:00:00	7	Dirección del viento	0
46395	7	Sololá	710	Panajachel	8	Panajachel	7	Julio	2023-03-07T00:00:00	2024-11-08T08:00:00	1	Precipitación	0
46396	7	Sololá	710	Panajachel	8	Panajachel	7	Julio	2023-03-07T00:00:00	2024-11-08T08:00:00	8	Radiación solar	176
46397	7	Sololá	710	Panajachel	8	Panajachel	7	Julio	2023-03-07T00:00:00	2024-11-08T09:00:00	2	Temperatura media	21.6
46398	7	Sololá	710	Panajachel	8	Panajachel	7	Julio	2023-03-07T00:00:00	2024-11-08T09:00:00	4	Temperatura máxima	21.6
46399	7	Sololá	710	Panajachel	8	Panajachel	7	Julio	2023-03-07T00:00:00	2024-11-08T09:00:00	3	Temperatura mínima	19.8
46400	7	Sololá	710	Panajachel	8	Panajachel	7	Julio	2023-03-07T00:00:00	2024-11-08T09:00:00	5	Humedad	83
46401	7	Sololá	710	Panajachel	8	Panajachel	7	Julio	2023-03-07T00:00:00	2024-11-08T09:00:00	6	Velocidad del viento	0
46402	7	Sololá	710	Panajachel	8	Panajachel	7	Julio	2023-03-07T00:00:00	2024-11-08T09:00:00	7	Dirección del viento	0
46403	7	Sololá	710	Panajachel	8	Panajachel	7	Julio	2023-03-07T00:00:00	2024-11-08T09:00:00	1	Precipitación	0
46404	7	Sololá	710	Panajachel	8	Panajachel	7	Julio	2023-03-07T00:00:00	2024-11-08T09:00:00	8	Radiación solar	498
46405	7	Sololá	710	Panajachel	8	Panajachel	7	Julio	2023-03-07T00:00:00	2024-11-08T10:00:00	2	Temperatura media	22.2
46406	7	Sololá	710	Panajachel	8	Panajachel	7	Julio	2023-03-07T00:00:00	2024-11-08T10:00:00	4	Temperatura máxima	22.2
46407	7	Sololá	710	Panajachel	8	Panajachel	7	Julio	2023-03-07T00:00:00	2024-11-08T10:00:00	3	Temperatura mínima	21.5
46408	7	Sololá	710	Panajachel	8	Panajachel	7	Julio	2023-03-07T00:00:00	2024-11-08T10:00:00	5	Humedad	81
46409	7	Sololá	710	Panajachel	8	Panajachel	7	Julio	2023-03-07T00:00:00	2024-11-08T10:00:00	6	Velocidad del viento	0
46410	7	Sololá	710	Panajachel	8	Panajachel	7	Julio	2023-03-07T00:00:00	2024-11-08T10:00:00	7	Dirección del viento	0
46411	7	Sololá	710	Panajachel	8	Panajachel	7	Julio	2023-03-07T00:00:00	2024-11-08T10:00:00	1	Precipitación	0
46412	7	Sololá	710	Panajachel	8	Panajachel	7	Julio	2023-03-07T00:00:00	2024-11-08T10:00:00	8	Radiación solar	437
46413	7	Sololá	710	Panajachel	8	Panajachel	7	Julio	2023-03-07T00:00:00	2024-11-08T11:00:00	2	Temperatura media	22.6
46414	7	Sololá	710	Panajachel	8	Panajachel	7	Julio	2023-03-07T00:00:00	2024-11-08T11:00:00	4	Temperatura máxima	22.9
46415	7	Sololá	710	Panajachel	8	Panajachel	7	Julio	2023-03-07T00:00:00	2024-11-08T11:00:00	3	Temperatura mínima	22.2
46416	7	Sololá	710	Panajachel	8	Panajachel	7	Julio	2023-03-07T00:00:00	2024-11-08T11:00:00	5	Humedad	79
46417	7	Sololá	710	Panajachel	8	Panajachel	7	Julio	2023-03-07T00:00:00	2024-11-08T11:00:00	6	Velocidad del viento	0
46418	7	Sololá	710	Panajachel	8	Panajachel	7	Julio	2023-03-07T00:00:00	2024-11-08T11:00:00	7	Dirección del viento	0
46419	7	Sololá	710	Panajachel	8	Panajachel	7	Julio	2023-03-07T00:00:00	2024-11-08T11:00:00	1	Precipitación	0
46420	7	Sololá	710	Panajachel	8	Panajachel	7	Julio	2023-03-07T00:00:00	2024-11-08T11:00:00	8	Radiación solar	788
46421	7	Sololá	710	Panajachel	8	Panajachel	7	Julio	2023-03-07T00:00:00	2024-11-08T12:00:00	2	Temperatura media	22.7
46422	7	Sololá	710	Panajachel	8	Panajachel	7	Julio	2023-03-07T00:00:00	2024-11-08T12:00:00	4	Temperatura máxima	22.8
46423	7	Sololá	710	Panajachel	8	Panajachel	7	Julio	2023-03-07T00:00:00	2024-11-08T12:00:00	3	Temperatura mínima	22.4
46424	7	Sololá	710	Panajachel	8	Panajachel	7	Julio	2023-03-07T00:00:00	2024-11-08T12:00:00	5	Humedad	82
46425	7	Sololá	710	Panajachel	8	Panajachel	7	Julio	2023-03-07T00:00:00	2024-11-08T12:00:00	6	Velocidad del viento	1.6
46426	7	Sololá	710	Panajachel	8	Panajachel	7	Julio	2023-03-07T00:00:00	2024-11-08T12:00:00	7	Dirección del viento	1.61
46427	7	Sololá	710	Panajachel	8	Panajachel	7	Julio	2023-03-07T00:00:00	2024-11-08T12:00:00	1	Precipitación	0
46428	7	Sololá	710	Panajachel	8	Panajachel	7	Julio	2023-03-07T00:00:00	2024-11-08T12:00:00	8	Radiación solar	538
46429	7	Sololá	710	Panajachel	8	Panajachel	7	Julio	2023-03-07T00:00:00	2024-11-08T13:00:00	2	Temperatura media	23.7
46430	7	Sololá	710	Panajachel	8	Panajachel	7	Julio	2023-03-07T00:00:00	2024-11-08T13:00:00	4	Temperatura máxima	23.7
46431	7	Sololá	710	Panajachel	8	Panajachel	7	Julio	2023-03-07T00:00:00	2024-11-08T13:00:00	3	Temperatura mínima	22.6
46432	7	Sololá	710	Panajachel	8	Panajachel	7	Julio	2023-03-07T00:00:00	2024-11-08T13:00:00	5	Humedad	77
46433	7	Sololá	710	Panajachel	8	Panajachel	7	Julio	2023-03-07T00:00:00	2024-11-08T13:00:00	6	Velocidad del viento	0
46434	7	Sololá	710	Panajachel	8	Panajachel	7	Julio	2023-03-07T00:00:00	2024-11-08T13:00:00	7	Dirección del viento	0
46435	7	Sololá	710	Panajachel	8	Panajachel	7	Julio	2023-03-07T00:00:00	2024-11-08T13:00:00	1	Precipitación	0
46436	7	Sololá	710	Panajachel	8	Panajachel	7	Julio	2023-03-07T00:00:00	2024-11-08T13:00:00	8	Radiación solar	925
46437	7	Sololá	710	Panajachel	8	Panajachel	7	Julio	2023-03-07T00:00:00	2024-11-08T14:00:00	2	Temperatura media	22.4
46438	7	Sololá	710	Panajachel	8	Panajachel	7	Julio	2023-03-07T00:00:00	2024-11-08T14:00:00	4	Temperatura máxima	24.2
46439	7	Sololá	710	Panajachel	8	Panajachel	7	Julio	2023-03-07T00:00:00	2024-11-08T14:00:00	3	Temperatura mínima	22.4
46440	7	Sololá	710	Panajachel	8	Panajachel	7	Julio	2023-03-07T00:00:00	2024-11-08T14:00:00	5	Humedad	85
46441	7	Sololá	710	Panajachel	8	Panajachel	7	Julio	2023-03-07T00:00:00	2024-11-08T14:00:00	6	Velocidad del viento	0
46442	7	Sololá	710	Panajachel	8	Panajachel	7	Julio	2023-03-07T00:00:00	2024-11-08T14:00:00	7	Dirección del viento	0
46443	7	Sololá	710	Panajachel	8	Panajachel	7	Julio	2023-03-07T00:00:00	2024-11-08T14:00:00	1	Precipitación	0.6
46444	7	Sololá	710	Panajachel	8	Panajachel	7	Julio	2023-03-07T00:00:00	2024-11-08T14:00:00	8	Radiación solar	272
46445	7	Sololá	710	Panajachel	8	Panajachel	7	Julio	2023-03-07T00:00:00	2024-11-08T15:00:00	2	Temperatura media	19.9
46446	7	Sololá	710	Panajachel	8	Panajachel	7	Julio	2023-03-07T00:00:00	2024-11-08T15:00:00	4	Temperatura máxima	22.4
46447	7	Sololá	710	Panajachel	8	Panajachel	7	Julio	2023-03-07T00:00:00	2024-11-08T15:00:00	3	Temperatura mínima	19.8
46448	7	Sololá	710	Panajachel	8	Panajachel	7	Julio	2023-03-07T00:00:00	2024-11-08T15:00:00	5	Humedad	94
46449	7	Sololá	710	Panajachel	8	Panajachel	7	Julio	2023-03-07T00:00:00	2024-11-08T15:00:00	6	Velocidad del viento	1.6
46450	7	Sololá	710	Panajachel	8	Panajachel	7	Julio	2023-03-07T00:00:00	2024-11-08T15:00:00	7	Dirección del viento	1.61
46451	7	Sololá	710	Panajachel	8	Panajachel	7	Julio	2023-03-07T00:00:00	2024-11-08T15:00:00	1	Precipitación	2
46452	7	Sololá	710	Panajachel	8	Panajachel	7	Julio	2023-03-07T00:00:00	2024-11-08T15:00:00	8	Radiación solar	70
46453	7	Sololá	710	Panajachel	8	Panajachel	7	Julio	2023-03-07T00:00:00	2024-11-08T16:00:00	2	Temperatura media	21.2
46454	7	Sololá	710	Panajachel	8	Panajachel	7	Julio	2023-03-07T00:00:00	2024-11-08T16:00:00	4	Temperatura máxima	21.2
46455	7	Sololá	710	Panajachel	8	Panajachel	7	Julio	2023-03-07T00:00:00	2024-11-08T16:00:00	3	Temperatura mínima	19.8
46456	7	Sololá	710	Panajachel	8	Panajachel	7	Julio	2023-03-07T00:00:00	2024-11-08T16:00:00	5	Humedad	92
46457	7	Sololá	710	Panajachel	8	Panajachel	7	Julio	2023-03-07T00:00:00	2024-11-08T16:00:00	6	Velocidad del viento	0
46458	7	Sololá	710	Panajachel	8	Panajachel	7	Julio	2023-03-07T00:00:00	2024-11-08T16:00:00	7	Dirección del viento	0
46459	7	Sololá	710	Panajachel	8	Panajachel	7	Julio	2023-03-07T00:00:00	2024-11-08T16:00:00	1	Precipitación	0
46460	7	Sololá	710	Panajachel	8	Panajachel	7	Julio	2023-03-07T00:00:00	2024-11-08T16:00:00	8	Radiación solar	154
46461	7	Sololá	710	Panajachel	8	Panajachel	7	Julio	2023-03-07T00:00:00	2024-11-08T17:00:00	2	Temperatura media	20.6
46462	7	Sololá	710	Panajachel	8	Panajachel	7	Julio	2023-03-07T00:00:00	2024-11-08T17:00:00	4	Temperatura máxima	21.3
46463	7	Sololá	710	Panajachel	8	Panajachel	7	Julio	2023-03-07T00:00:00	2024-11-08T17:00:00	3	Temperatura mínima	20.6
46464	7	Sololá	710	Panajachel	8	Panajachel	7	Julio	2023-03-07T00:00:00	2024-11-08T17:00:00	5	Humedad	91
46465	7	Sololá	710	Panajachel	8	Panajachel	7	Julio	2023-03-07T00:00:00	2024-11-08T17:00:00	6	Velocidad del viento	0
46466	7	Sololá	710	Panajachel	8	Panajachel	7	Julio	2023-03-07T00:00:00	2024-11-08T17:00:00	7	Dirección del viento	0
46467	7	Sololá	710	Panajachel	8	Panajachel	7	Julio	2023-03-07T00:00:00	2024-11-08T17:00:00	1	Precipitación	0
46468	7	Sololá	710	Panajachel	8	Panajachel	7	Julio	2023-03-07T00:00:00	2024-11-08T17:00:00	8	Radiación solar	72
46469	7	Sololá	710	Panajachel	8	Panajachel	7	Julio	2023-03-07T00:00:00	2024-11-08T18:00:00	2	Temperatura media	19.4
46470	7	Sololá	710	Panajachel	8	Panajachel	7	Julio	2023-03-07T00:00:00	2024-11-08T18:00:00	4	Temperatura máxima	20.6
46471	7	Sololá	710	Panajachel	8	Panajachel	7	Julio	2023-03-07T00:00:00	2024-11-08T18:00:00	3	Temperatura mínima	19.4
46472	7	Sololá	710	Panajachel	8	Panajachel	7	Julio	2023-03-07T00:00:00	2024-11-08T18:00:00	5	Humedad	96
46473	7	Sololá	710	Panajachel	8	Panajachel	7	Julio	2023-03-07T00:00:00	2024-11-08T18:00:00	6	Velocidad del viento	0
46474	7	Sololá	710	Panajachel	8	Panajachel	7	Julio	2023-03-07T00:00:00	2024-11-08T18:00:00	7	Dirección del viento	0
46475	7	Sololá	710	Panajachel	8	Panajachel	7	Julio	2023-03-07T00:00:00	2024-11-08T18:00:00	1	Precipitación	7.6
46476	7	Sololá	710	Panajachel	8	Panajachel	7	Julio	2023-03-07T00:00:00	2024-11-08T18:00:00	8	Radiación solar	2
46477	7	Sololá	710	Panajachel	8	Panajachel	7	Julio	2023-03-07T00:00:00	2024-11-08T19:00:00	2	Temperatura media	19.3
46478	7	Sololá	710	Panajachel	8	Panajachel	7	Julio	2023-03-07T00:00:00	2024-11-08T19:00:00	4	Temperatura máxima	19.4
46479	7	Sololá	710	Panajachel	8	Panajachel	7	Julio	2023-03-07T00:00:00	2024-11-08T19:00:00	3	Temperatura mínima	19.2
46480	7	Sololá	710	Panajachel	8	Panajachel	7	Julio	2023-03-07T00:00:00	2024-11-08T19:00:00	5	Humedad	97
46481	7	Sololá	710	Panajachel	8	Panajachel	7	Julio	2023-03-07T00:00:00	2024-11-08T19:00:00	6	Velocidad del viento	0
46482	7	Sololá	710	Panajachel	8	Panajachel	7	Julio	2023-03-07T00:00:00	2024-11-08T19:00:00	7	Dirección del viento	0
46483	7	Sololá	710	Panajachel	8	Panajachel	7	Julio	2023-03-07T00:00:00	2024-11-08T19:00:00	1	Precipitación	0.2
46484	7	Sololá	710	Panajachel	8	Panajachel	7	Julio	2023-03-07T00:00:00	2024-11-08T19:00:00	8	Radiación solar	0
46485	7	Sololá	710	Panajachel	8	Panajachel	7	Julio	2023-03-07T00:00:00	2024-11-08T20:00:00	2	Temperatura media	18.5
46486	7	Sololá	710	Panajachel	8	Panajachel	7	Julio	2023-03-07T00:00:00	2024-11-08T20:00:00	4	Temperatura máxima	19.3
46487	7	Sololá	710	Panajachel	8	Panajachel	7	Julio	2023-03-07T00:00:00	2024-11-08T20:00:00	3	Temperatura mínima	18.5
46488	7	Sololá	710	Panajachel	8	Panajachel	7	Julio	2023-03-07T00:00:00	2024-11-08T20:00:00	5	Humedad	97
46489	7	Sololá	710	Panajachel	8	Panajachel	7	Julio	2023-03-07T00:00:00	2024-11-08T20:00:00	6	Velocidad del viento	0
46490	7	Sololá	710	Panajachel	8	Panajachel	7	Julio	2023-03-07T00:00:00	2024-11-08T20:00:00	7	Dirección del viento	0
46491	7	Sololá	710	Panajachel	8	Panajachel	7	Julio	2023-03-07T00:00:00	2024-11-08T20:00:00	1	Precipitación	3.2
46492	7	Sololá	710	Panajachel	8	Panajachel	7	Julio	2023-03-07T00:00:00	2024-11-08T20:00:00	8	Radiación solar	0
46493	7	Sololá	710	Panajachel	8	Panajachel	7	Julio	2023-03-07T00:00:00	2024-11-08T21:00:00	2	Temperatura media	18.4
46494	7	Sololá	710	Panajachel	8	Panajachel	7	Julio	2023-03-07T00:00:00	2024-11-08T21:00:00	4	Temperatura máxima	18.5
46495	7	Sololá	710	Panajachel	8	Panajachel	7	Julio	2023-03-07T00:00:00	2024-11-08T21:00:00	3	Temperatura mínima	18.3
46496	7	Sololá	710	Panajachel	8	Panajachel	7	Julio	2023-03-07T00:00:00	2024-11-08T21:00:00	5	Humedad	98
46497	7	Sololá	710	Panajachel	8	Panajachel	7	Julio	2023-03-07T00:00:00	2024-11-08T21:00:00	6	Velocidad del viento	0
46498	7	Sololá	710	Panajachel	8	Panajachel	7	Julio	2023-03-07T00:00:00	2024-11-08T21:00:00	7	Dirección del viento	0
46499	7	Sololá	710	Panajachel	8	Panajachel	7	Julio	2023-03-07T00:00:00	2024-11-08T21:00:00	1	Precipitación	3.4
46500	7	Sololá	710	Panajachel	8	Panajachel	7	Julio	2023-03-07T00:00:00	2024-11-08T21:00:00	8	Radiación solar	0
46501	7	Sololá	710	Panajachel	8	Panajachel	7	Julio	2023-03-07T00:00:00	2024-11-08T22:00:00	2	Temperatura media	18.2
46502	7	Sololá	710	Panajachel	8	Panajachel	7	Julio	2023-03-07T00:00:00	2024-11-08T22:00:00	4	Temperatura máxima	18.5
46503	7	Sololá	710	Panajachel	8	Panajachel	7	Julio	2023-03-07T00:00:00	2024-11-08T22:00:00	3	Temperatura mínima	18.2
46504	7	Sololá	710	Panajachel	8	Panajachel	7	Julio	2023-03-07T00:00:00	2024-11-08T22:00:00	5	Humedad	98
46505	7	Sololá	710	Panajachel	8	Panajachel	7	Julio	2023-03-07T00:00:00	2024-11-08T22:00:00	6	Velocidad del viento	0
46506	7	Sololá	710	Panajachel	8	Panajachel	7	Julio	2023-03-07T00:00:00	2024-11-08T22:00:00	7	Dirección del viento	0
46507	7	Sololá	710	Panajachel	8	Panajachel	7	Julio	2023-03-07T00:00:00	2024-11-08T22:00:00	1	Precipitación	4.4
46508	7	Sololá	710	Panajachel	8	Panajachel	7	Julio	2023-03-07T00:00:00	2024-11-08T22:00:00	8	Radiación solar	0
46509	7	Sololá	710	Panajachel	8	Panajachel	7	Julio	2023-03-07T00:00:00	2024-11-08T23:00:00	2	Temperatura media	17.8
46510	7	Sololá	710	Panajachel	8	Panajachel	7	Julio	2023-03-07T00:00:00	2024-11-08T23:00:00	4	Temperatura máxima	18.2
46511	7	Sololá	710	Panajachel	8	Panajachel	7	Julio	2023-03-07T00:00:00	2024-11-08T23:00:00	3	Temperatura mínima	17.7
46512	7	Sololá	710	Panajachel	8	Panajachel	7	Julio	2023-03-07T00:00:00	2024-11-08T23:00:00	5	Humedad	97
46513	7	Sololá	710	Panajachel	8	Panajachel	7	Julio	2023-03-07T00:00:00	2024-11-08T23:00:00	6	Velocidad del viento	0
46514	7	Sololá	710	Panajachel	8	Panajachel	7	Julio	2023-03-07T00:00:00	2024-11-08T23:00:00	7	Dirección del viento	0
46515	7	Sololá	710	Panajachel	8	Panajachel	7	Julio	2023-03-07T00:00:00	2024-11-08T23:00:00	1	Precipitación	2.4
46516	7	Sololá	710	Panajachel	8	Panajachel	7	Julio	2023-03-07T00:00:00	2024-11-08T23:00:00	8	Radiación solar	0
46517	7	Sololá	710	Panajachel	8	Panajachel	7	Julio	2023-04-07T00:00:00	2024-11-08T00:00:00	2	Temperatura media	17.7
46518	7	Sololá	710	Panajachel	8	Panajachel	7	Julio	2023-04-07T00:00:00	2024-11-08T00:00:00	4	Temperatura máxima	17.8
46519	7	Sololá	710	Panajachel	8	Panajachel	7	Julio	2023-04-07T00:00:00	2024-11-08T00:00:00	3	Temperatura mínima	17.6
46520	7	Sololá	710	Panajachel	8	Panajachel	7	Julio	2023-04-07T00:00:00	2024-11-08T00:00:00	5	Humedad	97
46521	7	Sololá	710	Panajachel	8	Panajachel	7	Julio	2023-04-07T00:00:00	2024-11-08T00:00:00	6	Velocidad del viento	0
46522	7	Sololá	710	Panajachel	8	Panajachel	7	Julio	2023-04-07T00:00:00	2024-11-08T00:00:00	7	Dirección del viento	0
46523	7	Sololá	710	Panajachel	8	Panajachel	7	Julio	2023-04-07T00:00:00	2024-11-08T00:00:00	1	Precipitación	0.2
46524	7	Sololá	710	Panajachel	8	Panajachel	7	Julio	2023-04-07T00:00:00	2024-11-08T00:00:00	8	Radiación solar	0
46525	7	Sololá	710	Panajachel	8	Panajachel	7	Julio	2023-04-07T00:00:00	2024-11-08T01:00:00	2	Temperatura media	17.7
46526	7	Sololá	710	Panajachel	8	Panajachel	7	Julio	2023-04-07T00:00:00	2024-11-08T01:00:00	4	Temperatura máxima	17.7
46527	7	Sololá	710	Panajachel	8	Panajachel	7	Julio	2023-04-07T00:00:00	2024-11-08T01:00:00	3	Temperatura mínima	17.6
46528	7	Sololá	710	Panajachel	8	Panajachel	7	Julio	2023-04-07T00:00:00	2024-11-08T01:00:00	5	Humedad	97
46529	7	Sololá	710	Panajachel	8	Panajachel	7	Julio	2023-04-07T00:00:00	2024-11-08T01:00:00	6	Velocidad del viento	0
46530	7	Sololá	710	Panajachel	8	Panajachel	7	Julio	2023-04-07T00:00:00	2024-11-08T01:00:00	7	Dirección del viento	0
46531	7	Sololá	710	Panajachel	8	Panajachel	7	Julio	2023-04-07T00:00:00	2024-11-08T01:00:00	1	Precipitación	0
46532	7	Sololá	710	Panajachel	8	Panajachel	7	Julio	2023-04-07T00:00:00	2024-11-08T01:00:00	8	Radiación solar	0
46533	7	Sololá	710	Panajachel	8	Panajachel	7	Julio	2023-04-07T00:00:00	2024-11-08T02:00:00	2	Temperatura media	17.5
46534	7	Sololá	710	Panajachel	8	Panajachel	7	Julio	2023-04-07T00:00:00	2024-11-08T02:00:00	4	Temperatura máxima	17.7
46535	7	Sololá	710	Panajachel	8	Panajachel	7	Julio	2023-04-07T00:00:00	2024-11-08T02:00:00	3	Temperatura mínima	17.4
46536	7	Sololá	710	Panajachel	8	Panajachel	7	Julio	2023-04-07T00:00:00	2024-11-08T02:00:00	5	Humedad	97
46537	7	Sololá	710	Panajachel	8	Panajachel	7	Julio	2023-04-07T00:00:00	2024-11-08T02:00:00	6	Velocidad del viento	0
46538	7	Sololá	710	Panajachel	8	Panajachel	7	Julio	2023-04-07T00:00:00	2024-11-08T02:00:00	7	Dirección del viento	0
46539	7	Sololá	710	Panajachel	8	Panajachel	7	Julio	2023-04-07T00:00:00	2024-11-08T02:00:00	1	Precipitación	0
46540	7	Sololá	710	Panajachel	8	Panajachel	7	Julio	2023-04-07T00:00:00	2024-11-08T02:00:00	8	Radiación solar	0
46541	7	Sololá	710	Panajachel	8	Panajachel	7	Julio	2023-04-07T00:00:00	2024-11-08T03:00:00	2	Temperatura media	17.4
46542	7	Sololá	710	Panajachel	8	Panajachel	7	Julio	2023-04-07T00:00:00	2024-11-08T03:00:00	4	Temperatura máxima	17.6
46543	7	Sololá	710	Panajachel	8	Panajachel	7	Julio	2023-04-07T00:00:00	2024-11-08T03:00:00	3	Temperatura mínima	17.4
46544	7	Sololá	710	Panajachel	8	Panajachel	7	Julio	2023-04-07T00:00:00	2024-11-08T03:00:00	5	Humedad	96
46545	7	Sololá	710	Panajachel	8	Panajachel	7	Julio	2023-04-07T00:00:00	2024-11-08T03:00:00	6	Velocidad del viento	0
46546	7	Sololá	710	Panajachel	8	Panajachel	7	Julio	2023-04-07T00:00:00	2024-11-08T03:00:00	7	Dirección del viento	0
46547	7	Sololá	710	Panajachel	8	Panajachel	7	Julio	2023-04-07T00:00:00	2024-11-08T03:00:00	1	Precipitación	0
46548	7	Sololá	710	Panajachel	8	Panajachel	7	Julio	2023-04-07T00:00:00	2024-11-08T03:00:00	8	Radiación solar	0
46549	7	Sololá	710	Panajachel	8	Panajachel	7	Julio	2023-04-07T00:00:00	2024-11-08T04:00:00	2	Temperatura media	17.3
46550	7	Sololá	710	Panajachel	8	Panajachel	7	Julio	2023-04-07T00:00:00	2024-11-08T04:00:00	4	Temperatura máxima	17.6
46551	7	Sololá	710	Panajachel	8	Panajachel	7	Julio	2023-04-07T00:00:00	2024-11-08T04:00:00	3	Temperatura mínima	17.3
46552	7	Sololá	710	Panajachel	8	Panajachel	7	Julio	2023-04-07T00:00:00	2024-11-08T04:00:00	5	Humedad	96
46553	7	Sololá	710	Panajachel	8	Panajachel	7	Julio	2023-04-07T00:00:00	2024-11-08T04:00:00	6	Velocidad del viento	0
46554	7	Sololá	710	Panajachel	8	Panajachel	7	Julio	2023-04-07T00:00:00	2024-11-08T04:00:00	7	Dirección del viento	0
46555	7	Sololá	710	Panajachel	8	Panajachel	7	Julio	2023-04-07T00:00:00	2024-11-08T04:00:00	1	Precipitación	0
46556	7	Sololá	710	Panajachel	8	Panajachel	7	Julio	2023-04-07T00:00:00	2024-11-08T04:00:00	8	Radiación solar	0
46557	7	Sololá	710	Panajachel	8	Panajachel	7	Julio	2023-04-07T00:00:00	2024-11-08T05:00:00	2	Temperatura media	17.3
46558	7	Sololá	710	Panajachel	8	Panajachel	7	Julio	2023-04-07T00:00:00	2024-11-08T05:00:00	4	Temperatura máxima	17.4
46559	7	Sololá	710	Panajachel	8	Panajachel	7	Julio	2023-04-07T00:00:00	2024-11-08T05:00:00	3	Temperatura mínima	17.2
46560	7	Sololá	710	Panajachel	8	Panajachel	7	Julio	2023-04-07T00:00:00	2024-11-08T05:00:00	5	Humedad	96
46561	7	Sololá	710	Panajachel	8	Panajachel	7	Julio	2023-04-07T00:00:00	2024-11-08T05:00:00	6	Velocidad del viento	0
46562	7	Sololá	710	Panajachel	8	Panajachel	7	Julio	2023-04-07T00:00:00	2024-11-08T05:00:00	7	Dirección del viento	0
46563	7	Sololá	710	Panajachel	8	Panajachel	7	Julio	2023-04-07T00:00:00	2024-11-08T05:00:00	1	Precipitación	0
46564	7	Sololá	710	Panajachel	8	Panajachel	7	Julio	2023-04-07T00:00:00	2024-11-08T05:00:00	8	Radiación solar	0
46565	7	Sololá	710	Panajachel	8	Panajachel	7	Julio	2023-04-07T00:00:00	2024-11-08T06:00:00	2	Temperatura media	17.3
46566	7	Sololá	710	Panajachel	8	Panajachel	7	Julio	2023-04-07T00:00:00	2024-11-08T06:00:00	4	Temperatura máxima	17.3
46567	7	Sololá	710	Panajachel	8	Panajachel	7	Julio	2023-04-07T00:00:00	2024-11-08T06:00:00	3	Temperatura mínima	17.2
46568	7	Sololá	710	Panajachel	8	Panajachel	7	Julio	2023-04-07T00:00:00	2024-11-08T06:00:00	5	Humedad	95
46569	7	Sololá	710	Panajachel	8	Panajachel	7	Julio	2023-04-07T00:00:00	2024-11-08T06:00:00	6	Velocidad del viento	0
46570	7	Sololá	710	Panajachel	8	Panajachel	7	Julio	2023-04-07T00:00:00	2024-11-08T06:00:00	7	Dirección del viento	0
46571	7	Sololá	710	Panajachel	8	Panajachel	7	Julio	2023-04-07T00:00:00	2024-11-08T06:00:00	1	Precipitación	0
46572	7	Sololá	710	Panajachel	8	Panajachel	7	Julio	2023-04-07T00:00:00	2024-11-08T06:00:00	8	Radiación solar	2
46573	7	Sololá	710	Panajachel	8	Panajachel	7	Julio	2023-04-07T00:00:00	2024-11-08T07:00:00	2	Temperatura media	17.7
46574	7	Sololá	710	Panajachel	8	Panajachel	7	Julio	2023-04-07T00:00:00	2024-11-08T07:00:00	4	Temperatura máxima	17.7
46575	7	Sololá	710	Panajachel	8	Panajachel	7	Julio	2023-04-07T00:00:00	2024-11-08T07:00:00	3	Temperatura mínima	17.1
46576	7	Sololá	710	Panajachel	8	Panajachel	7	Julio	2023-04-07T00:00:00	2024-11-08T07:00:00	5	Humedad	96
46577	7	Sololá	710	Panajachel	8	Panajachel	7	Julio	2023-04-07T00:00:00	2024-11-08T07:00:00	6	Velocidad del viento	0
46578	7	Sololá	710	Panajachel	8	Panajachel	7	Julio	2023-04-07T00:00:00	2024-11-08T07:00:00	7	Dirección del viento	0
46579	7	Sololá	710	Panajachel	8	Panajachel	7	Julio	2023-04-07T00:00:00	2024-11-08T07:00:00	1	Precipitación	0
46580	7	Sololá	710	Panajachel	8	Panajachel	7	Julio	2023-04-07T00:00:00	2024-11-08T07:00:00	8	Radiación solar	34
46581	7	Sololá	710	Panajachel	8	Panajachel	7	Julio	2023-04-07T00:00:00	2024-11-08T08:00:00	2	Temperatura media	18.5
46582	7	Sololá	710	Panajachel	8	Panajachel	7	Julio	2023-04-07T00:00:00	2024-11-08T08:00:00	4	Temperatura máxima	18.6
46583	7	Sololá	710	Panajachel	8	Panajachel	7	Julio	2023-04-07T00:00:00	2024-11-08T08:00:00	3	Temperatura mínima	17.7
46584	7	Sololá	710	Panajachel	8	Panajachel	7	Julio	2023-04-07T00:00:00	2024-11-08T08:00:00	5	Humedad	95
46585	7	Sololá	710	Panajachel	8	Panajachel	7	Julio	2023-04-07T00:00:00	2024-11-08T08:00:00	6	Velocidad del viento	0
46586	7	Sololá	710	Panajachel	8	Panajachel	7	Julio	2023-04-07T00:00:00	2024-11-08T08:00:00	7	Dirección del viento	0
46587	7	Sololá	710	Panajachel	8	Panajachel	7	Julio	2023-04-07T00:00:00	2024-11-08T08:00:00	1	Precipitación	0
46588	7	Sololá	710	Panajachel	8	Panajachel	7	Julio	2023-04-07T00:00:00	2024-11-08T08:00:00	8	Radiación solar	53
46589	7	Sololá	710	Panajachel	8	Panajachel	7	Julio	2023-04-07T00:00:00	2024-11-08T09:00:00	2	Temperatura media	20.3
46590	7	Sololá	710	Panajachel	8	Panajachel	7	Julio	2023-04-07T00:00:00	2024-11-08T09:00:00	4	Temperatura máxima	20.3
46591	7	Sololá	710	Panajachel	8	Panajachel	7	Julio	2023-04-07T00:00:00	2024-11-08T09:00:00	3	Temperatura mínima	18.6
46592	7	Sololá	710	Panajachel	8	Panajachel	7	Julio	2023-04-07T00:00:00	2024-11-08T09:00:00	5	Humedad	87
46593	7	Sololá	710	Panajachel	8	Panajachel	7	Julio	2023-04-07T00:00:00	2024-11-08T09:00:00	6	Velocidad del viento	0
46594	7	Sololá	710	Panajachel	8	Panajachel	7	Julio	2023-04-07T00:00:00	2024-11-08T09:00:00	7	Dirección del viento	0
46595	7	Sololá	710	Panajachel	8	Panajachel	7	Julio	2023-04-07T00:00:00	2024-11-08T09:00:00	1	Precipitación	0
46596	7	Sololá	710	Panajachel	8	Panajachel	7	Julio	2023-04-07T00:00:00	2024-11-08T09:00:00	8	Radiación solar	217
46597	7	Sololá	710	Panajachel	8	Panajachel	7	Julio	2023-04-07T00:00:00	2024-11-08T10:00:00	2	Temperatura media	21.9
46598	7	Sololá	710	Panajachel	8	Panajachel	7	Julio	2023-04-07T00:00:00	2024-11-08T10:00:00	4	Temperatura máxima	21.9
46599	7	Sololá	710	Panajachel	8	Panajachel	7	Julio	2023-04-07T00:00:00	2024-11-08T10:00:00	3	Temperatura mínima	20.3
46600	7	Sololá	710	Panajachel	8	Panajachel	7	Julio	2023-04-07T00:00:00	2024-11-08T10:00:00	5	Humedad	82
46601	7	Sololá	710	Panajachel	8	Panajachel	7	Julio	2023-04-07T00:00:00	2024-11-08T10:00:00	6	Velocidad del viento	0
46602	7	Sololá	710	Panajachel	8	Panajachel	7	Julio	2023-04-07T00:00:00	2024-11-08T10:00:00	7	Dirección del viento	0
46603	7	Sololá	710	Panajachel	8	Panajachel	7	Julio	2023-04-07T00:00:00	2024-11-08T10:00:00	1	Precipitación	0
46604	7	Sololá	710	Panajachel	8	Panajachel	7	Julio	2023-04-07T00:00:00	2024-11-08T10:00:00	8	Radiación solar	462
46605	7	Sololá	710	Panajachel	8	Panajachel	7	Julio	2023-04-07T00:00:00	2024-11-08T11:00:00	2	Temperatura media	22.9
46606	7	Sololá	710	Panajachel	8	Panajachel	7	Julio	2023-04-07T00:00:00	2024-11-08T11:00:00	4	Temperatura máxima	22.9
46607	7	Sololá	710	Panajachel	8	Panajachel	7	Julio	2023-04-07T00:00:00	2024-11-08T11:00:00	3	Temperatura mínima	21.9
46608	7	Sololá	710	Panajachel	8	Panajachel	7	Julio	2023-04-07T00:00:00	2024-11-08T11:00:00	5	Humedad	78
46609	7	Sololá	710	Panajachel	8	Panajachel	7	Julio	2023-04-07T00:00:00	2024-11-08T11:00:00	6	Velocidad del viento	0
46610	7	Sololá	710	Panajachel	8	Panajachel	7	Julio	2023-04-07T00:00:00	2024-11-08T11:00:00	7	Dirección del viento	0
46611	7	Sololá	710	Panajachel	8	Panajachel	7	Julio	2023-04-07T00:00:00	2024-11-08T11:00:00	1	Precipitación	0
46612	7	Sololá	710	Panajachel	8	Panajachel	7	Julio	2023-04-07T00:00:00	2024-11-08T11:00:00	8	Radiación solar	718
46613	7	Sololá	710	Panajachel	8	Panajachel	7	Julio	2023-04-07T00:00:00	2024-11-08T12:00:00	2	Temperatura media	22.7
46614	7	Sololá	710	Panajachel	8	Panajachel	7	Julio	2023-04-07T00:00:00	2024-11-08T12:00:00	4	Temperatura máxima	23.1
46615	7	Sololá	710	Panajachel	8	Panajachel	7	Julio	2023-04-07T00:00:00	2024-11-08T12:00:00	3	Temperatura mínima	22.3
46616	7	Sololá	710	Panajachel	8	Panajachel	7	Julio	2023-04-07T00:00:00	2024-11-08T12:00:00	5	Humedad	81
46617	7	Sololá	710	Panajachel	8	Panajachel	7	Julio	2023-04-07T00:00:00	2024-11-08T12:00:00	6	Velocidad del viento	0
46618	7	Sololá	710	Panajachel	8	Panajachel	7	Julio	2023-04-07T00:00:00	2024-11-08T12:00:00	7	Dirección del viento	0
46619	7	Sololá	710	Panajachel	8	Panajachel	7	Julio	2023-04-07T00:00:00	2024-11-08T12:00:00	1	Precipitación	0
46620	7	Sololá	710	Panajachel	8	Panajachel	7	Julio	2023-04-07T00:00:00	2024-11-08T12:00:00	8	Radiación solar	409
46621	7	Sololá	710	Panajachel	8	Panajachel	7	Julio	2023-04-07T00:00:00	2024-11-08T13:00:00	2	Temperatura media	23
46622	7	Sololá	710	Panajachel	8	Panajachel	7	Julio	2023-04-07T00:00:00	2024-11-08T13:00:00	4	Temperatura máxima	23.8
46623	7	Sololá	710	Panajachel	8	Panajachel	7	Julio	2023-04-07T00:00:00	2024-11-08T13:00:00	3	Temperatura mínima	22.7
46624	7	Sololá	710	Panajachel	8	Panajachel	7	Julio	2023-04-07T00:00:00	2024-11-08T13:00:00	5	Humedad	78
46625	7	Sololá	710	Panajachel	8	Panajachel	7	Julio	2023-04-07T00:00:00	2024-11-08T13:00:00	6	Velocidad del viento	0
46626	7	Sololá	710	Panajachel	8	Panajachel	7	Julio	2023-04-07T00:00:00	2024-11-08T13:00:00	7	Dirección del viento	0
46627	7	Sololá	710	Panajachel	8	Panajachel	7	Julio	2023-04-07T00:00:00	2024-11-08T13:00:00	1	Precipitación	0
46628	7	Sololá	710	Panajachel	8	Panajachel	7	Julio	2023-04-07T00:00:00	2024-11-08T13:00:00	8	Radiación solar	958
46629	7	Sololá	710	Panajachel	8	Panajachel	7	Julio	2023-04-07T00:00:00	2024-11-08T14:00:00	2	Temperatura media	23.2
46630	7	Sololá	710	Panajachel	8	Panajachel	7	Julio	2023-04-07T00:00:00	2024-11-08T14:00:00	4	Temperatura máxima	24
46631	7	Sololá	710	Panajachel	8	Panajachel	7	Julio	2023-04-07T00:00:00	2024-11-08T14:00:00	3	Temperatura mínima	22.7
46632	7	Sololá	710	Panajachel	8	Panajachel	7	Julio	2023-04-07T00:00:00	2024-11-08T14:00:00	5	Humedad	81
46633	7	Sololá	710	Panajachel	8	Panajachel	7	Julio	2023-04-07T00:00:00	2024-11-08T14:00:00	6	Velocidad del viento	0
46634	7	Sololá	710	Panajachel	8	Panajachel	7	Julio	2023-04-07T00:00:00	2024-11-08T14:00:00	7	Dirección del viento	0
46635	7	Sololá	710	Panajachel	8	Panajachel	7	Julio	2023-04-07T00:00:00	2024-11-08T14:00:00	1	Precipitación	0
46636	7	Sololá	710	Panajachel	8	Panajachel	7	Julio	2023-04-07T00:00:00	2024-11-08T14:00:00	8	Radiación solar	667
46637	7	Sololá	710	Panajachel	8	Panajachel	7	Julio	2023-04-07T00:00:00	2024-11-08T15:00:00	2	Temperatura media	20.7
46638	7	Sololá	710	Panajachel	8	Panajachel	7	Julio	2023-04-07T00:00:00	2024-11-08T15:00:00	4	Temperatura máxima	23.2
46639	7	Sololá	710	Panajachel	8	Panajachel	7	Julio	2023-04-07T00:00:00	2024-11-08T15:00:00	3	Temperatura mínima	20.7
46640	7	Sololá	710	Panajachel	8	Panajachel	7	Julio	2023-04-07T00:00:00	2024-11-08T15:00:00	5	Humedad	92
46641	7	Sololá	710	Panajachel	8	Panajachel	7	Julio	2023-04-07T00:00:00	2024-11-08T15:00:00	6	Velocidad del viento	1.6
46642	7	Sololá	710	Panajachel	8	Panajachel	7	Julio	2023-04-07T00:00:00	2024-11-08T15:00:00	7	Dirección del viento	1.61
46643	7	Sololá	710	Panajachel	8	Panajachel	7	Julio	2023-04-07T00:00:00	2024-11-08T15:00:00	1	Precipitación	0.4
46644	7	Sololá	710	Panajachel	8	Panajachel	7	Julio	2023-04-07T00:00:00	2024-11-08T15:00:00	8	Radiación solar	158
46645	7	Sololá	710	Panajachel	8	Panajachel	7	Julio	2023-04-07T00:00:00	2024-11-08T16:00:00	2	Temperatura media	19.7
46646	7	Sololá	710	Panajachel	8	Panajachel	7	Julio	2023-04-07T00:00:00	2024-11-08T16:00:00	4	Temperatura máxima	20.8
46647	7	Sololá	710	Panajachel	8	Panajachel	7	Julio	2023-04-07T00:00:00	2024-11-08T16:00:00	3	Temperatura mínima	19.7
46648	7	Sololá	710	Panajachel	8	Panajachel	7	Julio	2023-04-07T00:00:00	2024-11-08T16:00:00	5	Humedad	94
46649	7	Sololá	710	Panajachel	8	Panajachel	7	Julio	2023-04-07T00:00:00	2024-11-08T16:00:00	6	Velocidad del viento	0
46650	7	Sololá	710	Panajachel	8	Panajachel	7	Julio	2023-04-07T00:00:00	2024-11-08T16:00:00	7	Dirección del viento	0
46651	7	Sololá	710	Panajachel	8	Panajachel	7	Julio	2023-04-07T00:00:00	2024-11-08T16:00:00	1	Precipitación	3.4
46652	7	Sololá	710	Panajachel	8	Panajachel	7	Julio	2023-04-07T00:00:00	2024-11-08T16:00:00	8	Radiación solar	76
46653	7	Sololá	710	Panajachel	8	Panajachel	7	Julio	2023-04-07T00:00:00	2024-11-08T17:00:00	2	Temperatura media	20.1
46654	7	Sololá	710	Panajachel	8	Panajachel	7	Julio	2023-04-07T00:00:00	2024-11-08T17:00:00	4	Temperatura máxima	20.1
46655	7	Sololá	710	Panajachel	8	Panajachel	7	Julio	2023-04-07T00:00:00	2024-11-08T17:00:00	3	Temperatura mínima	19.6
46656	7	Sololá	710	Panajachel	8	Panajachel	7	Julio	2023-04-07T00:00:00	2024-11-08T17:00:00	5	Humedad	92
46657	7	Sololá	710	Panajachel	8	Panajachel	7	Julio	2023-04-07T00:00:00	2024-11-08T17:00:00	6	Velocidad del viento	0
46658	7	Sololá	710	Panajachel	8	Panajachel	7	Julio	2023-04-07T00:00:00	2024-11-08T17:00:00	7	Dirección del viento	0
46659	7	Sololá	710	Panajachel	8	Panajachel	7	Julio	2023-04-07T00:00:00	2024-11-08T17:00:00	1	Precipitación	0.6
46660	7	Sololá	710	Panajachel	8	Panajachel	7	Julio	2023-04-07T00:00:00	2024-11-08T17:00:00	8	Radiación solar	116
46661	7	Sololá	710	Panajachel	8	Panajachel	7	Julio	2023-04-07T00:00:00	2024-11-08T18:00:00	2	Temperatura media	19.3
46662	7	Sololá	710	Panajachel	8	Panajachel	7	Julio	2023-04-07T00:00:00	2024-11-08T18:00:00	4	Temperatura máxima	20.1
46663	7	Sololá	710	Panajachel	8	Panajachel	7	Julio	2023-04-07T00:00:00	2024-11-08T18:00:00	3	Temperatura mínima	19.2
46664	7	Sololá	710	Panajachel	8	Panajachel	7	Julio	2023-04-07T00:00:00	2024-11-08T18:00:00	5	Humedad	94
46665	7	Sololá	710	Panajachel	8	Panajachel	7	Julio	2023-04-07T00:00:00	2024-11-08T18:00:00	6	Velocidad del viento	0
46666	7	Sololá	710	Panajachel	8	Panajachel	7	Julio	2023-04-07T00:00:00	2024-11-08T18:00:00	7	Dirección del viento	0
46667	7	Sololá	710	Panajachel	8	Panajachel	7	Julio	2023-04-07T00:00:00	2024-11-08T18:00:00	1	Precipitación	1
46668	7	Sololá	710	Panajachel	8	Panajachel	7	Julio	2023-04-07T00:00:00	2024-11-08T18:00:00	8	Radiación solar	39
46669	7	Sololá	710	Panajachel	8	Panajachel	7	Julio	2023-04-07T00:00:00	2024-11-08T19:00:00	2	Temperatura media	18.6
46670	7	Sololá	710	Panajachel	8	Panajachel	7	Julio	2023-04-07T00:00:00	2024-11-08T19:00:00	4	Temperatura máxima	19.4
46671	7	Sololá	710	Panajachel	8	Panajachel	7	Julio	2023-04-07T00:00:00	2024-11-08T19:00:00	3	Temperatura mínima	18.6
46672	7	Sololá	710	Panajachel	8	Panajachel	7	Julio	2023-04-07T00:00:00	2024-11-08T19:00:00	5	Humedad	97
46673	7	Sololá	710	Panajachel	8	Panajachel	7	Julio	2023-04-07T00:00:00	2024-11-08T19:00:00	6	Velocidad del viento	0
46674	7	Sololá	710	Panajachel	8	Panajachel	7	Julio	2023-04-07T00:00:00	2024-11-08T19:00:00	7	Dirección del viento	0
46675	7	Sololá	710	Panajachel	8	Panajachel	7	Julio	2023-04-07T00:00:00	2024-11-08T19:00:00	1	Precipitación	6.4
46676	7	Sololá	710	Panajachel	8	Panajachel	7	Julio	2023-04-07T00:00:00	2024-11-08T19:00:00	8	Radiación solar	0
46677	7	Sololá	710	Panajachel	8	Panajachel	7	Julio	2023-04-07T00:00:00	2024-11-08T20:00:00	2	Temperatura media	18.6
46678	7	Sololá	710	Panajachel	8	Panajachel	7	Julio	2023-04-07T00:00:00	2024-11-08T20:00:00	4	Temperatura máxima	18.7
46679	7	Sololá	710	Panajachel	8	Panajachel	7	Julio	2023-04-07T00:00:00	2024-11-08T20:00:00	3	Temperatura mínima	18.6
46680	7	Sololá	710	Panajachel	8	Panajachel	7	Julio	2023-04-07T00:00:00	2024-11-08T20:00:00	5	Humedad	98
46681	7	Sololá	710	Panajachel	8	Panajachel	7	Julio	2023-04-07T00:00:00	2024-11-08T20:00:00	6	Velocidad del viento	0
46682	7	Sololá	710	Panajachel	8	Panajachel	7	Julio	2023-04-07T00:00:00	2024-11-08T20:00:00	7	Dirección del viento	0
46683	7	Sololá	710	Panajachel	8	Panajachel	7	Julio	2023-04-07T00:00:00	2024-11-08T20:00:00	1	Precipitación	1.2
46684	7	Sololá	710	Panajachel	8	Panajachel	7	Julio	2023-04-07T00:00:00	2024-11-08T20:00:00	8	Radiación solar	0
46685	7	Sololá	710	Panajachel	8	Panajachel	7	Julio	2023-04-07T00:00:00	2024-11-08T21:00:00	2	Temperatura media	18.2
46686	7	Sololá	710	Panajachel	8	Panajachel	7	Julio	2023-04-07T00:00:00	2024-11-08T21:00:00	4	Temperatura máxima	18.6
46687	7	Sololá	710	Panajachel	8	Panajachel	7	Julio	2023-04-07T00:00:00	2024-11-08T21:00:00	3	Temperatura mínima	18.1
46688	7	Sololá	710	Panajachel	8	Panajachel	7	Julio	2023-04-07T00:00:00	2024-11-08T21:00:00	5	Humedad	98
46689	7	Sololá	710	Panajachel	8	Panajachel	7	Julio	2023-04-07T00:00:00	2024-11-08T21:00:00	6	Velocidad del viento	0
46690	7	Sololá	710	Panajachel	8	Panajachel	7	Julio	2023-04-07T00:00:00	2024-11-08T21:00:00	7	Dirección del viento	0
46691	7	Sololá	710	Panajachel	8	Panajachel	7	Julio	2023-04-07T00:00:00	2024-11-08T21:00:00	1	Precipitación	0.4
46692	7	Sololá	710	Panajachel	8	Panajachel	7	Julio	2023-04-07T00:00:00	2024-11-08T21:00:00	8	Radiación solar	0
46693	7	Sololá	710	Panajachel	8	Panajachel	7	Julio	2023-04-07T00:00:00	2024-11-08T22:00:00	2	Temperatura media	18.1
46694	7	Sololá	710	Panajachel	8	Panajachel	7	Julio	2023-04-07T00:00:00	2024-11-08T22:00:00	4	Temperatura máxima	18.2
46695	7	Sololá	710	Panajachel	8	Panajachel	7	Julio	2023-04-07T00:00:00	2024-11-08T22:00:00	3	Temperatura mínima	18.1
46696	7	Sololá	710	Panajachel	8	Panajachel	7	Julio	2023-04-07T00:00:00	2024-11-08T22:00:00	5	Humedad	97
46697	7	Sololá	710	Panajachel	8	Panajachel	7	Julio	2023-04-07T00:00:00	2024-11-08T22:00:00	6	Velocidad del viento	0
46698	7	Sololá	710	Panajachel	8	Panajachel	7	Julio	2023-04-07T00:00:00	2024-11-08T22:00:00	7	Dirección del viento	0
46699	7	Sololá	710	Panajachel	8	Panajachel	7	Julio	2023-04-07T00:00:00	2024-11-08T22:00:00	1	Precipitación	2.8
46700	7	Sololá	710	Panajachel	8	Panajachel	7	Julio	2023-04-07T00:00:00	2024-11-08T22:00:00	8	Radiación solar	0
46701	7	Sololá	710	Panajachel	8	Panajachel	7	Julio	2023-04-07T00:00:00	2024-11-08T23:00:00	2	Temperatura media	17.9
46702	7	Sololá	710	Panajachel	8	Panajachel	7	Julio	2023-04-07T00:00:00	2024-11-08T23:00:00	4	Temperatura máxima	18.1
46703	7	Sololá	710	Panajachel	8	Panajachel	7	Julio	2023-04-07T00:00:00	2024-11-08T23:00:00	3	Temperatura mínima	17.8
46704	7	Sololá	710	Panajachel	8	Panajachel	7	Julio	2023-04-07T00:00:00	2024-11-08T23:00:00	5	Humedad	98
46705	7	Sololá	710	Panajachel	8	Panajachel	7	Julio	2023-04-07T00:00:00	2024-11-08T23:00:00	6	Velocidad del viento	0
46706	7	Sololá	710	Panajachel	8	Panajachel	7	Julio	2023-04-07T00:00:00	2024-11-08T23:00:00	7	Dirección del viento	0
46707	7	Sololá	710	Panajachel	8	Panajachel	7	Julio	2023-04-07T00:00:00	2024-11-08T23:00:00	1	Precipitación	3.2
46708	7	Sololá	710	Panajachel	8	Panajachel	7	Julio	2023-04-07T00:00:00	2024-11-08T23:00:00	8	Radiación solar	0
46709	7	Sololá	710	Panajachel	8	Panajachel	7	Julio	2023-05-07T00:00:00	2024-11-08T00:00:00	2	Temperatura media	17.7
46710	7	Sololá	710	Panajachel	8	Panajachel	7	Julio	2023-05-07T00:00:00	2024-11-08T00:00:00	4	Temperatura máxima	17.9
46711	7	Sololá	710	Panajachel	8	Panajachel	7	Julio	2023-05-07T00:00:00	2024-11-08T00:00:00	3	Temperatura mínima	17.7
46712	7	Sololá	710	Panajachel	8	Panajachel	7	Julio	2023-05-07T00:00:00	2024-11-08T00:00:00	5	Humedad	98
46713	7	Sololá	710	Panajachel	8	Panajachel	7	Julio	2023-05-07T00:00:00	2024-11-08T00:00:00	6	Velocidad del viento	0
46714	7	Sololá	710	Panajachel	8	Panajachel	7	Julio	2023-05-07T00:00:00	2024-11-08T00:00:00	7	Dirección del viento	0
46715	7	Sololá	710	Panajachel	8	Panajachel	7	Julio	2023-05-07T00:00:00	2024-11-08T00:00:00	1	Precipitación	0.8
46716	7	Sololá	710	Panajachel	8	Panajachel	7	Julio	2023-05-07T00:00:00	2024-11-08T00:00:00	8	Radiación solar	0
46717	7	Sololá	710	Panajachel	8	Panajachel	7	Julio	2023-05-07T00:00:00	2024-11-08T01:00:00	2	Temperatura media	17.6
46718	7	Sololá	710	Panajachel	8	Panajachel	7	Julio	2023-05-07T00:00:00	2024-11-08T01:00:00	4	Temperatura máxima	17.8
46719	7	Sololá	710	Panajachel	8	Panajachel	7	Julio	2023-05-07T00:00:00	2024-11-08T01:00:00	3	Temperatura mínima	17.5
46720	7	Sololá	710	Panajachel	8	Panajachel	7	Julio	2023-05-07T00:00:00	2024-11-08T01:00:00	5	Humedad	98
46721	7	Sololá	710	Panajachel	8	Panajachel	7	Julio	2023-05-07T00:00:00	2024-11-08T01:00:00	6	Velocidad del viento	0
46722	7	Sololá	710	Panajachel	8	Panajachel	7	Julio	2023-05-07T00:00:00	2024-11-08T01:00:00	7	Dirección del viento	0
46723	7	Sololá	710	Panajachel	8	Panajachel	7	Julio	2023-05-07T00:00:00	2024-11-08T01:00:00	1	Precipitación	0.4
46724	7	Sololá	710	Panajachel	8	Panajachel	7	Julio	2023-05-07T00:00:00	2024-11-08T01:00:00	8	Radiación solar	0
46725	7	Sololá	710	Panajachel	8	Panajachel	7	Julio	2023-05-07T00:00:00	2024-11-08T02:00:00	2	Temperatura media	17.5
46726	7	Sololá	710	Panajachel	8	Panajachel	7	Julio	2023-05-07T00:00:00	2024-11-08T02:00:00	4	Temperatura máxima	17.6
46727	7	Sololá	710	Panajachel	8	Panajachel	7	Julio	2023-05-07T00:00:00	2024-11-08T02:00:00	3	Temperatura mínima	17.4
46728	7	Sololá	710	Panajachel	8	Panajachel	7	Julio	2023-05-07T00:00:00	2024-11-08T02:00:00	5	Humedad	97
46729	7	Sololá	710	Panajachel	8	Panajachel	7	Julio	2023-05-07T00:00:00	2024-11-08T02:00:00	6	Velocidad del viento	0
46730	7	Sololá	710	Panajachel	8	Panajachel	7	Julio	2023-05-07T00:00:00	2024-11-08T02:00:00	7	Dirección del viento	0
46731	7	Sololá	710	Panajachel	8	Panajachel	7	Julio	2023-05-07T00:00:00	2024-11-08T02:00:00	1	Precipitación	0
46732	7	Sololá	710	Panajachel	8	Panajachel	7	Julio	2023-05-07T00:00:00	2024-11-08T02:00:00	8	Radiación solar	0
46733	7	Sololá	710	Panajachel	8	Panajachel	7	Julio	2023-05-07T00:00:00	2024-11-08T03:00:00	2	Temperatura media	17.1
46734	7	Sololá	710	Panajachel	8	Panajachel	7	Julio	2023-05-07T00:00:00	2024-11-08T03:00:00	4	Temperatura máxima	17.5
46735	7	Sololá	710	Panajachel	8	Panajachel	7	Julio	2023-05-07T00:00:00	2024-11-08T03:00:00	3	Temperatura mínima	17.1
46736	7	Sololá	710	Panajachel	8	Panajachel	7	Julio	2023-05-07T00:00:00	2024-11-08T03:00:00	5	Humedad	96
46737	7	Sololá	710	Panajachel	8	Panajachel	7	Julio	2023-05-07T00:00:00	2024-11-08T03:00:00	6	Velocidad del viento	0
46738	7	Sololá	710	Panajachel	8	Panajachel	7	Julio	2023-05-07T00:00:00	2024-11-08T03:00:00	7	Dirección del viento	0
46739	7	Sololá	710	Panajachel	8	Panajachel	7	Julio	2023-05-07T00:00:00	2024-11-08T03:00:00	1	Precipitación	0.2
46740	7	Sololá	710	Panajachel	8	Panajachel	7	Julio	2023-05-07T00:00:00	2024-11-08T03:00:00	8	Radiación solar	0
46741	7	Sololá	710	Panajachel	8	Panajachel	7	Julio	2023-05-07T00:00:00	2024-11-08T04:00:00	2	Temperatura media	16.8
46742	7	Sololá	710	Panajachel	8	Panajachel	7	Julio	2023-05-07T00:00:00	2024-11-08T04:00:00	4	Temperatura máxima	17.2
46743	7	Sololá	710	Panajachel	8	Panajachel	7	Julio	2023-05-07T00:00:00	2024-11-08T04:00:00	3	Temperatura mínima	16.8
46744	7	Sololá	710	Panajachel	8	Panajachel	7	Julio	2023-05-07T00:00:00	2024-11-08T04:00:00	5	Humedad	95
46745	7	Sololá	710	Panajachel	8	Panajachel	7	Julio	2023-05-07T00:00:00	2024-11-08T04:00:00	6	Velocidad del viento	0
46746	7	Sololá	710	Panajachel	8	Panajachel	7	Julio	2023-05-07T00:00:00	2024-11-08T04:00:00	7	Dirección del viento	0
46747	7	Sololá	710	Panajachel	8	Panajachel	7	Julio	2023-05-07T00:00:00	2024-11-08T04:00:00	1	Precipitación	0
46748	7	Sololá	710	Panajachel	8	Panajachel	7	Julio	2023-05-07T00:00:00	2024-11-08T04:00:00	8	Radiación solar	0
46749	7	Sololá	710	Panajachel	8	Panajachel	7	Julio	2023-05-07T00:00:00	2024-11-08T05:00:00	2	Temperatura media	17.1
46750	7	Sololá	710	Panajachel	8	Panajachel	7	Julio	2023-05-07T00:00:00	2024-11-08T05:00:00	4	Temperatura máxima	17.1
46751	7	Sololá	710	Panajachel	8	Panajachel	7	Julio	2023-05-07T00:00:00	2024-11-08T05:00:00	3	Temperatura mínima	16.7
46752	7	Sololá	710	Panajachel	8	Panajachel	7	Julio	2023-05-07T00:00:00	2024-11-08T05:00:00	5	Humedad	92
46753	7	Sololá	710	Panajachel	8	Panajachel	7	Julio	2023-05-07T00:00:00	2024-11-08T05:00:00	6	Velocidad del viento	0
46754	7	Sololá	710	Panajachel	8	Panajachel	7	Julio	2023-05-07T00:00:00	2024-11-08T05:00:00	7	Dirección del viento	0
46755	7	Sololá	710	Panajachel	8	Panajachel	7	Julio	2023-05-07T00:00:00	2024-11-08T05:00:00	1	Precipitación	0
46756	7	Sololá	710	Panajachel	8	Panajachel	7	Julio	2023-05-07T00:00:00	2024-11-08T05:00:00	8	Radiación solar	0
46757	7	Sololá	710	Panajachel	8	Panajachel	7	Julio	2023-05-07T00:00:00	2024-11-08T06:00:00	2	Temperatura media	16.6
46758	7	Sololá	710	Panajachel	8	Panajachel	7	Julio	2023-05-07T00:00:00	2024-11-08T06:00:00	4	Temperatura máxima	17.1
46759	7	Sololá	710	Panajachel	8	Panajachel	7	Julio	2023-05-07T00:00:00	2024-11-08T06:00:00	3	Temperatura mínima	16.6
46760	7	Sololá	710	Panajachel	8	Panajachel	7	Julio	2023-05-07T00:00:00	2024-11-08T06:00:00	5	Humedad	93
46761	7	Sololá	710	Panajachel	8	Panajachel	7	Julio	2023-05-07T00:00:00	2024-11-08T06:00:00	6	Velocidad del viento	0
46762	7	Sololá	710	Panajachel	8	Panajachel	7	Julio	2023-05-07T00:00:00	2024-11-08T06:00:00	7	Dirección del viento	0
46763	7	Sololá	710	Panajachel	8	Panajachel	7	Julio	2023-05-07T00:00:00	2024-11-08T06:00:00	1	Precipitación	0
46764	7	Sololá	710	Panajachel	8	Panajachel	7	Julio	2023-05-07T00:00:00	2024-11-08T06:00:00	8	Radiación solar	1
46765	7	Sololá	710	Panajachel	8	Panajachel	7	Julio	2023-05-07T00:00:00	2024-11-08T07:00:00	2	Temperatura media	17.8
46766	7	Sololá	710	Panajachel	8	Panajachel	7	Julio	2023-05-07T00:00:00	2024-11-08T07:00:00	4	Temperatura máxima	17.8
46767	7	Sololá	710	Panajachel	8	Panajachel	7	Julio	2023-05-07T00:00:00	2024-11-08T07:00:00	3	Temperatura mínima	16.5
46768	7	Sololá	710	Panajachel	8	Panajachel	7	Julio	2023-05-07T00:00:00	2024-11-08T07:00:00	5	Humedad	89
46769	7	Sololá	710	Panajachel	8	Panajachel	7	Julio	2023-05-07T00:00:00	2024-11-08T07:00:00	6	Velocidad del viento	0
46770	7	Sololá	710	Panajachel	8	Panajachel	7	Julio	2023-05-07T00:00:00	2024-11-08T07:00:00	7	Dirección del viento	0
46771	7	Sololá	710	Panajachel	8	Panajachel	7	Julio	2023-05-07T00:00:00	2024-11-08T07:00:00	1	Precipitación	0
46772	7	Sololá	710	Panajachel	8	Panajachel	7	Julio	2023-05-07T00:00:00	2024-11-08T07:00:00	8	Radiación solar	68
46773	7	Sololá	710	Panajachel	8	Panajachel	7	Julio	2023-05-07T00:00:00	2024-11-08T08:00:00	2	Temperatura media	20.3
46774	7	Sololá	710	Panajachel	8	Panajachel	7	Julio	2023-05-07T00:00:00	2024-11-08T08:00:00	4	Temperatura máxima	20.3
46775	7	Sololá	710	Panajachel	8	Panajachel	7	Julio	2023-05-07T00:00:00	2024-11-08T08:00:00	3	Temperatura mínima	17.8
46776	7	Sololá	710	Panajachel	8	Panajachel	7	Julio	2023-05-07T00:00:00	2024-11-08T08:00:00	5	Humedad	85
46777	7	Sololá	710	Panajachel	8	Panajachel	7	Julio	2023-05-07T00:00:00	2024-11-08T08:00:00	6	Velocidad del viento	1.6
46778	7	Sololá	710	Panajachel	8	Panajachel	7	Julio	2023-05-07T00:00:00	2024-11-08T08:00:00	7	Dirección del viento	1.61
46779	7	Sololá	710	Panajachel	8	Panajachel	7	Julio	2023-05-07T00:00:00	2024-11-08T08:00:00	1	Precipitación	0
46780	7	Sololá	710	Panajachel	8	Panajachel	7	Julio	2023-05-07T00:00:00	2024-11-08T08:00:00	8	Radiación solar	254
46781	7	Sololá	710	Panajachel	8	Panajachel	7	Julio	2023-05-07T00:00:00	2024-11-08T09:00:00	2	Temperatura media	22.3
46782	7	Sololá	710	Panajachel	8	Panajachel	7	Julio	2023-05-07T00:00:00	2024-11-08T09:00:00	4	Temperatura máxima	22.4
46783	7	Sololá	710	Panajachel	8	Panajachel	7	Julio	2023-05-07T00:00:00	2024-11-08T09:00:00	3	Temperatura mínima	20.3
46784	7	Sololá	710	Panajachel	8	Panajachel	7	Julio	2023-05-07T00:00:00	2024-11-08T09:00:00	5	Humedad	80
46785	7	Sololá	710	Panajachel	8	Panajachel	7	Julio	2023-05-07T00:00:00	2024-11-08T09:00:00	6	Velocidad del viento	0
46786	7	Sololá	710	Panajachel	8	Panajachel	7	Julio	2023-05-07T00:00:00	2024-11-08T09:00:00	7	Dirección del viento	0
46787	7	Sololá	710	Panajachel	8	Panajachel	7	Julio	2023-05-07T00:00:00	2024-11-08T09:00:00	1	Precipitación	0
46788	7	Sololá	710	Panajachel	8	Panajachel	7	Julio	2023-05-07T00:00:00	2024-11-08T09:00:00	8	Radiación solar	497
46789	7	Sololá	710	Panajachel	8	Panajachel	7	Julio	2023-05-07T00:00:00	2024-11-08T10:00:00	2	Temperatura media	22.3
46790	7	Sololá	710	Panajachel	8	Panajachel	7	Julio	2023-05-07T00:00:00	2024-11-08T10:00:00	4	Temperatura máxima	22.3
46791	7	Sololá	710	Panajachel	8	Panajachel	7	Julio	2023-05-07T00:00:00	2024-11-08T10:00:00	3	Temperatura mínima	21.9
46792	7	Sololá	710	Panajachel	8	Panajachel	7	Julio	2023-05-07T00:00:00	2024-11-08T10:00:00	5	Humedad	79
46793	7	Sololá	710	Panajachel	8	Panajachel	7	Julio	2023-05-07T00:00:00	2024-11-08T10:00:00	6	Velocidad del viento	4.8
46794	7	Sololá	710	Panajachel	8	Panajachel	7	Julio	2023-05-07T00:00:00	2024-11-08T10:00:00	7	Dirección del viento	4.83
46795	7	Sololá	710	Panajachel	8	Panajachel	7	Julio	2023-05-07T00:00:00	2024-11-08T10:00:00	1	Precipitación	0
46796	7	Sololá	710	Panajachel	8	Panajachel	7	Julio	2023-05-07T00:00:00	2024-11-08T10:00:00	8	Radiación solar	696
46797	7	Sololá	710	Panajachel	8	Panajachel	7	Julio	2023-05-07T00:00:00	2024-11-08T11:00:00	2	Temperatura media	24.1
46798	7	Sololá	710	Panajachel	8	Panajachel	7	Julio	2023-05-07T00:00:00	2024-11-08T11:00:00	4	Temperatura máxima	24.1
46799	7	Sololá	710	Panajachel	8	Panajachel	7	Julio	2023-05-07T00:00:00	2024-11-08T11:00:00	3	Temperatura mínima	22.3
46800	7	Sololá	710	Panajachel	8	Panajachel	7	Julio	2023-05-07T00:00:00	2024-11-08T11:00:00	5	Humedad	77
46801	7	Sololá	710	Panajachel	8	Panajachel	7	Julio	2023-05-07T00:00:00	2024-11-08T11:00:00	6	Velocidad del viento	4.8
46802	7	Sololá	710	Panajachel	8	Panajachel	7	Julio	2023-05-07T00:00:00	2024-11-08T11:00:00	7	Dirección del viento	4.83
46803	7	Sololá	710	Panajachel	8	Panajachel	7	Julio	2023-05-07T00:00:00	2024-11-08T11:00:00	1	Precipitación	0
46804	7	Sololá	710	Panajachel	8	Panajachel	7	Julio	2023-05-07T00:00:00	2024-11-08T11:00:00	8	Radiación solar	742
46805	7	Sololá	710	Panajachel	8	Panajachel	7	Julio	2023-05-07T00:00:00	2024-11-08T12:00:00	2	Temperatura media	24.1
46806	7	Sololá	710	Panajachel	8	Panajachel	7	Julio	2023-05-07T00:00:00	2024-11-08T12:00:00	4	Temperatura máxima	24.9
46807	7	Sololá	710	Panajachel	8	Panajachel	7	Julio	2023-05-07T00:00:00	2024-11-08T12:00:00	3	Temperatura mínima	24.1
46808	7	Sololá	710	Panajachel	8	Panajachel	7	Julio	2023-05-07T00:00:00	2024-11-08T12:00:00	5	Humedad	78
46809	7	Sololá	710	Panajachel	8	Panajachel	7	Julio	2023-05-07T00:00:00	2024-11-08T12:00:00	6	Velocidad del viento	1.6
46810	7	Sololá	710	Panajachel	8	Panajachel	7	Julio	2023-05-07T00:00:00	2024-11-08T12:00:00	7	Dirección del viento	1.61
46811	7	Sololá	710	Panajachel	8	Panajachel	7	Julio	2023-05-07T00:00:00	2024-11-08T12:00:00	1	Precipitación	0
46812	7	Sololá	710	Panajachel	8	Panajachel	7	Julio	2023-05-07T00:00:00	2024-11-08T12:00:00	8	Radiación solar	894
46813	7	Sololá	710	Panajachel	8	Panajachel	7	Julio	2023-05-07T00:00:00	2024-11-08T13:00:00	2	Temperatura media	23.6
46814	7	Sololá	710	Panajachel	8	Panajachel	7	Julio	2023-05-07T00:00:00	2024-11-08T13:00:00	4	Temperatura máxima	24.1
46815	7	Sololá	710	Panajachel	8	Panajachel	7	Julio	2023-05-07T00:00:00	2024-11-08T13:00:00	3	Temperatura mínima	23.5
46816	7	Sololá	710	Panajachel	8	Panajachel	7	Julio	2023-05-07T00:00:00	2024-11-08T13:00:00	5	Humedad	84
46817	7	Sololá	710	Panajachel	8	Panajachel	7	Julio	2023-05-07T00:00:00	2024-11-08T13:00:00	6	Velocidad del viento	1.6
46818	7	Sololá	710	Panajachel	8	Panajachel	7	Julio	2023-05-07T00:00:00	2024-11-08T13:00:00	7	Dirección del viento	1.61
46819	7	Sololá	710	Panajachel	8	Panajachel	7	Julio	2023-05-07T00:00:00	2024-11-08T13:00:00	1	Precipitación	0
46820	7	Sololá	710	Panajachel	8	Panajachel	7	Julio	2023-05-07T00:00:00	2024-11-08T13:00:00	8	Radiación solar	345
46821	7	Sololá	710	Panajachel	8	Panajachel	7	Julio	2023-05-07T00:00:00	2024-11-08T14:00:00	2	Temperatura media	22.4
46822	7	Sololá	710	Panajachel	8	Panajachel	7	Julio	2023-05-07T00:00:00	2024-11-08T14:00:00	4	Temperatura máxima	23.6
46823	7	Sololá	710	Panajachel	8	Panajachel	7	Julio	2023-05-07T00:00:00	2024-11-08T14:00:00	3	Temperatura mínima	22.4
46824	7	Sololá	710	Panajachel	8	Panajachel	7	Julio	2023-05-07T00:00:00	2024-11-08T14:00:00	5	Humedad	87
46825	7	Sololá	710	Panajachel	8	Panajachel	7	Julio	2023-05-07T00:00:00	2024-11-08T14:00:00	6	Velocidad del viento	1.6
46826	7	Sololá	710	Panajachel	8	Panajachel	7	Julio	2023-05-07T00:00:00	2024-11-08T14:00:00	7	Dirección del viento	1.61
46827	7	Sololá	710	Panajachel	8	Panajachel	7	Julio	2023-05-07T00:00:00	2024-11-08T14:00:00	1	Precipitación	0
46828	7	Sololá	710	Panajachel	8	Panajachel	7	Julio	2023-05-07T00:00:00	2024-11-08T14:00:00	8	Radiación solar	336
46829	7	Sololá	710	Panajachel	8	Panajachel	7	Julio	2023-05-07T00:00:00	2024-11-08T15:00:00	2	Temperatura media	21.4
46830	7	Sololá	710	Panajachel	8	Panajachel	7	Julio	2023-05-07T00:00:00	2024-11-08T15:00:00	4	Temperatura máxima	22.7
46831	7	Sololá	710	Panajachel	8	Panajachel	7	Julio	2023-05-07T00:00:00	2024-11-08T15:00:00	3	Temperatura mínima	21.4
46832	7	Sololá	710	Panajachel	8	Panajachel	7	Julio	2023-05-07T00:00:00	2024-11-08T15:00:00	5	Humedad	91
46833	7	Sololá	710	Panajachel	8	Panajachel	7	Julio	2023-05-07T00:00:00	2024-11-08T15:00:00	6	Velocidad del viento	1.6
46834	7	Sololá	710	Panajachel	8	Panajachel	7	Julio	2023-05-07T00:00:00	2024-11-08T15:00:00	7	Dirección del viento	1.61
46835	7	Sololá	710	Panajachel	8	Panajachel	7	Julio	2023-05-07T00:00:00	2024-11-08T15:00:00	1	Precipitación	0.2
46836	7	Sololá	710	Panajachel	8	Panajachel	7	Julio	2023-05-07T00:00:00	2024-11-08T15:00:00	8	Radiación solar	214
46837	7	Sololá	710	Panajachel	8	Panajachel	7	Julio	2023-05-07T00:00:00	2024-11-08T16:00:00	2	Temperatura media	22.6
46838	7	Sololá	710	Panajachel	8	Panajachel	7	Julio	2023-05-07T00:00:00	2024-11-08T16:00:00	4	Temperatura máxima	22.6
46839	7	Sololá	710	Panajachel	8	Panajachel	7	Julio	2023-05-07T00:00:00	2024-11-08T16:00:00	3	Temperatura mínima	21.3
46840	7	Sololá	710	Panajachel	8	Panajachel	7	Julio	2023-05-07T00:00:00	2024-11-08T16:00:00	5	Humedad	85
46841	7	Sololá	710	Panajachel	8	Panajachel	7	Julio	2023-05-07T00:00:00	2024-11-08T16:00:00	6	Velocidad del viento	0
46842	7	Sololá	710	Panajachel	8	Panajachel	7	Julio	2023-05-07T00:00:00	2024-11-08T16:00:00	7	Dirección del viento	0
46843	7	Sololá	710	Panajachel	8	Panajachel	7	Julio	2023-05-07T00:00:00	2024-11-08T16:00:00	1	Precipitación	0
46844	7	Sololá	710	Panajachel	8	Panajachel	7	Julio	2023-05-07T00:00:00	2024-11-08T16:00:00	8	Radiación solar	277
46845	7	Sololá	710	Panajachel	8	Panajachel	7	Julio	2023-05-07T00:00:00	2024-11-08T17:00:00	2	Temperatura media	22.1
46846	7	Sololá	710	Panajachel	8	Panajachel	7	Julio	2023-05-07T00:00:00	2024-11-08T17:00:00	4	Temperatura máxima	22.6
46847	7	Sololá	710	Panajachel	8	Panajachel	7	Julio	2023-05-07T00:00:00	2024-11-08T17:00:00	3	Temperatura mínima	21.9
46848	7	Sololá	710	Panajachel	8	Panajachel	7	Julio	2023-05-07T00:00:00	2024-11-08T17:00:00	5	Humedad	87
46849	7	Sololá	710	Panajachel	8	Panajachel	7	Julio	2023-05-07T00:00:00	2024-11-08T17:00:00	6	Velocidad del viento	0
46850	7	Sololá	710	Panajachel	8	Panajachel	7	Julio	2023-05-07T00:00:00	2024-11-08T17:00:00	7	Dirección del viento	0
46851	7	Sololá	710	Panajachel	8	Panajachel	7	Julio	2023-05-07T00:00:00	2024-11-08T17:00:00	1	Precipitación	0
46852	7	Sololá	710	Panajachel	8	Panajachel	7	Julio	2023-05-07T00:00:00	2024-11-08T17:00:00	8	Radiación solar	187
46853	7	Sololá	710	Panajachel	8	Panajachel	7	Julio	2023-05-07T00:00:00	2024-11-08T18:00:00	2	Temperatura media	20.7
46854	7	Sololá	710	Panajachel	8	Panajachel	7	Julio	2023-05-07T00:00:00	2024-11-08T18:00:00	4	Temperatura máxima	22.1
46855	7	Sololá	710	Panajachel	8	Panajachel	7	Julio	2023-05-07T00:00:00	2024-11-08T18:00:00	3	Temperatura mínima	20.6
46856	7	Sololá	710	Panajachel	8	Panajachel	7	Julio	2023-05-07T00:00:00	2024-11-08T18:00:00	5	Humedad	91
46857	7	Sololá	710	Panajachel	8	Panajachel	7	Julio	2023-05-07T00:00:00	2024-11-08T18:00:00	6	Velocidad del viento	1.6
46858	7	Sololá	710	Panajachel	8	Panajachel	7	Julio	2023-05-07T00:00:00	2024-11-08T18:00:00	7	Dirección del viento	1.61
46859	7	Sololá	710	Panajachel	8	Panajachel	7	Julio	2023-05-07T00:00:00	2024-11-08T18:00:00	1	Precipitación	0
46860	7	Sololá	710	Panajachel	8	Panajachel	7	Julio	2023-05-07T00:00:00	2024-11-08T18:00:00	8	Radiación solar	62
46861	7	Sololá	710	Panajachel	8	Panajachel	7	Julio	2023-05-07T00:00:00	2024-11-08T19:00:00	2	Temperatura media	20.1
46862	7	Sololá	710	Panajachel	8	Panajachel	7	Julio	2023-05-07T00:00:00	2024-11-08T19:00:00	4	Temperatura máxima	20.7
46863	7	Sololá	710	Panajachel	8	Panajachel	7	Julio	2023-05-07T00:00:00	2024-11-08T19:00:00	3	Temperatura mínima	20.1
46864	7	Sololá	710	Panajachel	8	Panajachel	7	Julio	2023-05-07T00:00:00	2024-11-08T19:00:00	5	Humedad	92
46865	7	Sololá	710	Panajachel	8	Panajachel	7	Julio	2023-05-07T00:00:00	2024-11-08T19:00:00	6	Velocidad del viento	0
46866	7	Sololá	710	Panajachel	8	Panajachel	7	Julio	2023-05-07T00:00:00	2024-11-08T19:00:00	7	Dirección del viento	0
46867	7	Sololá	710	Panajachel	8	Panajachel	7	Julio	2023-05-07T00:00:00	2024-11-08T19:00:00	1	Precipitación	0
46868	7	Sololá	710	Panajachel	8	Panajachel	7	Julio	2023-05-07T00:00:00	2024-11-08T19:00:00	8	Radiación solar	0
46869	7	Sololá	710	Panajachel	8	Panajachel	7	Julio	2023-05-07T00:00:00	2024-11-08T20:00:00	2	Temperatura media	18.9
46870	7	Sololá	710	Panajachel	8	Panajachel	7	Julio	2023-05-07T00:00:00	2024-11-08T20:00:00	4	Temperatura máxima	20.1
46871	7	Sololá	710	Panajachel	8	Panajachel	7	Julio	2023-05-07T00:00:00	2024-11-08T20:00:00	3	Temperatura mínima	18.9
46872	7	Sololá	710	Panajachel	8	Panajachel	7	Julio	2023-05-07T00:00:00	2024-11-08T20:00:00	5	Humedad	79
46873	7	Sololá	710	Panajachel	8	Panajachel	7	Julio	2023-05-07T00:00:00	2024-11-08T20:00:00	6	Velocidad del viento	1.6
46874	7	Sololá	710	Panajachel	8	Panajachel	7	Julio	2023-05-07T00:00:00	2024-11-08T20:00:00	7	Dirección del viento	1.61
46875	7	Sololá	710	Panajachel	8	Panajachel	7	Julio	2023-05-07T00:00:00	2024-11-08T20:00:00	1	Precipitación	0
46876	7	Sololá	710	Panajachel	8	Panajachel	7	Julio	2023-05-07T00:00:00	2024-11-08T20:00:00	8	Radiación solar	0
46877	7	Sololá	710	Panajachel	8	Panajachel	7	Julio	2023-05-07T00:00:00	2024-11-08T21:00:00	2	Temperatura media	19.1
46878	7	Sololá	710	Panajachel	8	Panajachel	7	Julio	2023-05-07T00:00:00	2024-11-08T21:00:00	4	Temperatura máxima	19.1
46879	7	Sololá	710	Panajachel	8	Panajachel	7	Julio	2023-05-07T00:00:00	2024-11-08T21:00:00	3	Temperatura mínima	18.6
46880	7	Sololá	710	Panajachel	8	Panajachel	7	Julio	2023-05-07T00:00:00	2024-11-08T21:00:00	5	Humedad	79
46881	7	Sololá	710	Panajachel	8	Panajachel	7	Julio	2023-05-07T00:00:00	2024-11-08T21:00:00	6	Velocidad del viento	1.6
46882	7	Sololá	710	Panajachel	8	Panajachel	7	Julio	2023-05-07T00:00:00	2024-11-08T21:00:00	7	Dirección del viento	1.61
46883	7	Sololá	710	Panajachel	8	Panajachel	7	Julio	2023-05-07T00:00:00	2024-11-08T21:00:00	1	Precipitación	0
46884	7	Sololá	710	Panajachel	8	Panajachel	7	Julio	2023-05-07T00:00:00	2024-11-08T21:00:00	8	Radiación solar	0
46885	7	Sololá	710	Panajachel	8	Panajachel	7	Julio	2023-05-07T00:00:00	2024-11-08T22:00:00	2	Temperatura media	19
46886	7	Sololá	710	Panajachel	8	Panajachel	7	Julio	2023-05-07T00:00:00	2024-11-08T22:00:00	4	Temperatura máxima	19.2
46887	7	Sololá	710	Panajachel	8	Panajachel	7	Julio	2023-05-07T00:00:00	2024-11-08T22:00:00	3	Temperatura mínima	18.7
46888	7	Sololá	710	Panajachel	8	Panajachel	7	Julio	2023-05-07T00:00:00	2024-11-08T22:00:00	5	Humedad	82
46889	7	Sololá	710	Panajachel	8	Panajachel	7	Julio	2023-05-07T00:00:00	2024-11-08T22:00:00	6	Velocidad del viento	1.6
46890	7	Sololá	710	Panajachel	8	Panajachel	7	Julio	2023-05-07T00:00:00	2024-11-08T22:00:00	7	Dirección del viento	1.61
46891	7	Sololá	710	Panajachel	8	Panajachel	7	Julio	2023-05-07T00:00:00	2024-11-08T22:00:00	1	Precipitación	0
46892	7	Sololá	710	Panajachel	8	Panajachel	7	Julio	2023-05-07T00:00:00	2024-11-08T22:00:00	8	Radiación solar	0
46893	7	Sololá	710	Panajachel	8	Panajachel	7	Julio	2023-05-07T00:00:00	2024-11-08T23:00:00	2	Temperatura media	19.4
46894	7	Sololá	710	Panajachel	8	Panajachel	7	Julio	2023-05-07T00:00:00	2024-11-08T23:00:00	4	Temperatura máxima	20.1
46895	7	Sololá	710	Panajachel	8	Panajachel	7	Julio	2023-05-07T00:00:00	2024-11-08T23:00:00	3	Temperatura mínima	18.8
46896	7	Sololá	710	Panajachel	8	Panajachel	7	Julio	2023-05-07T00:00:00	2024-11-08T23:00:00	5	Humedad	81
46897	7	Sololá	710	Panajachel	8	Panajachel	7	Julio	2023-05-07T00:00:00	2024-11-08T23:00:00	6	Velocidad del viento	0
46898	7	Sololá	710	Panajachel	8	Panajachel	7	Julio	2023-05-07T00:00:00	2024-11-08T23:00:00	7	Dirección del viento	0
46899	7	Sololá	710	Panajachel	8	Panajachel	7	Julio	2023-05-07T00:00:00	2024-11-08T23:00:00	1	Precipitación	0
46900	7	Sololá	710	Panajachel	8	Panajachel	7	Julio	2023-05-07T00:00:00	2024-11-08T23:00:00	8	Radiación solar	0
46901	7	Sololá	710	Panajachel	8	Panajachel	7	Julio	2023-06-07T00:00:00	2024-11-08T00:00:00	2	Temperatura media	18.5
46902	7	Sololá	710	Panajachel	8	Panajachel	7	Julio	2023-06-07T00:00:00	2024-11-08T00:00:00	4	Temperatura máxima	19.4
46903	7	Sololá	710	Panajachel	8	Panajachel	7	Julio	2023-06-07T00:00:00	2024-11-08T00:00:00	3	Temperatura mínima	18.4
46904	7	Sololá	710	Panajachel	8	Panajachel	7	Julio	2023-06-07T00:00:00	2024-11-08T00:00:00	5	Humedad	85
46905	7	Sololá	710	Panajachel	8	Panajachel	7	Julio	2023-06-07T00:00:00	2024-11-08T00:00:00	6	Velocidad del viento	0
46906	7	Sololá	710	Panajachel	8	Panajachel	7	Julio	2023-06-07T00:00:00	2024-11-08T00:00:00	7	Dirección del viento	0
46907	7	Sololá	710	Panajachel	8	Panajachel	7	Julio	2023-06-07T00:00:00	2024-11-08T00:00:00	1	Precipitación	0
46908	7	Sololá	710	Panajachel	8	Panajachel	7	Julio	2023-06-07T00:00:00	2024-11-08T00:00:00	8	Radiación solar	0
46909	7	Sololá	710	Panajachel	8	Panajachel	7	Julio	2023-06-07T00:00:00	2024-11-08T01:00:00	2	Temperatura media	17.7
46910	7	Sololá	710	Panajachel	8	Panajachel	7	Julio	2023-06-07T00:00:00	2024-11-08T01:00:00	4	Temperatura máxima	18.6
46911	7	Sololá	710	Panajachel	8	Panajachel	7	Julio	2023-06-07T00:00:00	2024-11-08T01:00:00	3	Temperatura mínima	17.5
46912	7	Sololá	710	Panajachel	8	Panajachel	7	Julio	2023-06-07T00:00:00	2024-11-08T01:00:00	5	Humedad	87
46913	7	Sololá	710	Panajachel	8	Panajachel	7	Julio	2023-06-07T00:00:00	2024-11-08T01:00:00	6	Velocidad del viento	1.6
46914	7	Sololá	710	Panajachel	8	Panajachel	7	Julio	2023-06-07T00:00:00	2024-11-08T01:00:00	7	Dirección del viento	1.61
46915	7	Sololá	710	Panajachel	8	Panajachel	7	Julio	2023-06-07T00:00:00	2024-11-08T01:00:00	1	Precipitación	0
46916	7	Sololá	710	Panajachel	8	Panajachel	7	Julio	2023-06-07T00:00:00	2024-11-08T01:00:00	8	Radiación solar	0
46917	7	Sololá	710	Panajachel	8	Panajachel	7	Julio	2023-06-07T00:00:00	2024-11-08T02:00:00	2	Temperatura media	18.2
46918	7	Sololá	710	Panajachel	8	Panajachel	7	Julio	2023-06-07T00:00:00	2024-11-08T02:00:00	4	Temperatura máxima	18.3
46919	7	Sololá	710	Panajachel	8	Panajachel	7	Julio	2023-06-07T00:00:00	2024-11-08T02:00:00	3	Temperatura mínima	17.7
46920	7	Sololá	710	Panajachel	8	Panajachel	7	Julio	2023-06-07T00:00:00	2024-11-08T02:00:00	5	Humedad	83
46921	7	Sololá	710	Panajachel	8	Panajachel	7	Julio	2023-06-07T00:00:00	2024-11-08T02:00:00	6	Velocidad del viento	0
46922	7	Sololá	710	Panajachel	8	Panajachel	7	Julio	2023-06-07T00:00:00	2024-11-08T02:00:00	7	Dirección del viento	0
46923	7	Sololá	710	Panajachel	8	Panajachel	7	Julio	2023-06-07T00:00:00	2024-11-08T02:00:00	1	Precipitación	0
46924	7	Sololá	710	Panajachel	8	Panajachel	7	Julio	2023-06-07T00:00:00	2024-11-08T02:00:00	8	Radiación solar	0
46925	7	Sololá	710	Panajachel	8	Panajachel	7	Julio	2023-06-07T00:00:00	2024-11-08T03:00:00	2	Temperatura media	17.1
46926	7	Sololá	710	Panajachel	8	Panajachel	7	Julio	2023-06-07T00:00:00	2024-11-08T03:00:00	4	Temperatura máxima	18.2
46927	7	Sololá	710	Panajachel	8	Panajachel	7	Julio	2023-06-07T00:00:00	2024-11-08T03:00:00	3	Temperatura mínima	17.1
46928	7	Sololá	710	Panajachel	8	Panajachel	7	Julio	2023-06-07T00:00:00	2024-11-08T03:00:00	5	Humedad	87
46929	7	Sololá	710	Panajachel	8	Panajachel	7	Julio	2023-06-07T00:00:00	2024-11-08T03:00:00	6	Velocidad del viento	0
46930	7	Sololá	710	Panajachel	8	Panajachel	7	Julio	2023-06-07T00:00:00	2024-11-08T03:00:00	7	Dirección del viento	0
46931	7	Sololá	710	Panajachel	8	Panajachel	7	Julio	2023-06-07T00:00:00	2024-11-08T03:00:00	1	Precipitación	0
46932	7	Sololá	710	Panajachel	8	Panajachel	7	Julio	2023-06-07T00:00:00	2024-11-08T03:00:00	8	Radiación solar	0
46933	7	Sololá	710	Panajachel	8	Panajachel	7	Julio	2023-06-07T00:00:00	2024-11-08T04:00:00	2	Temperatura media	17.3
46934	7	Sololá	710	Panajachel	8	Panajachel	7	Julio	2023-06-07T00:00:00	2024-11-08T04:00:00	4	Temperatura máxima	17.4
46935	7	Sololá	710	Panajachel	8	Panajachel	7	Julio	2023-06-07T00:00:00	2024-11-08T04:00:00	3	Temperatura mínima	17
46936	7	Sololá	710	Panajachel	8	Panajachel	7	Julio	2023-06-07T00:00:00	2024-11-08T04:00:00	5	Humedad	82
46937	7	Sololá	710	Panajachel	8	Panajachel	7	Julio	2023-06-07T00:00:00	2024-11-08T04:00:00	6	Velocidad del viento	3.2
46938	7	Sololá	710	Panajachel	8	Panajachel	7	Julio	2023-06-07T00:00:00	2024-11-08T04:00:00	7	Dirección del viento	3.22
46939	7	Sololá	710	Panajachel	8	Panajachel	7	Julio	2023-06-07T00:00:00	2024-11-08T04:00:00	1	Precipitación	0
46940	7	Sololá	710	Panajachel	8	Panajachel	7	Julio	2023-06-07T00:00:00	2024-11-08T04:00:00	8	Radiación solar	0
46941	7	Sololá	710	Panajachel	8	Panajachel	7	Julio	2023-06-07T00:00:00	2024-11-08T05:00:00	2	Temperatura media	17.4
46942	7	Sololá	710	Panajachel	8	Panajachel	7	Julio	2023-06-07T00:00:00	2024-11-08T05:00:00	4	Temperatura máxima	17.8
46943	7	Sololá	710	Panajachel	8	Panajachel	7	Julio	2023-06-07T00:00:00	2024-11-08T05:00:00	3	Temperatura mínima	17.3
46944	7	Sololá	710	Panajachel	8	Panajachel	7	Julio	2023-06-07T00:00:00	2024-11-08T05:00:00	5	Humedad	82
46945	7	Sololá	710	Panajachel	8	Panajachel	7	Julio	2023-06-07T00:00:00	2024-11-08T05:00:00	6	Velocidad del viento	1.6
46946	7	Sololá	710	Panajachel	8	Panajachel	7	Julio	2023-06-07T00:00:00	2024-11-08T05:00:00	7	Dirección del viento	1.61
46947	7	Sololá	710	Panajachel	8	Panajachel	7	Julio	2023-06-07T00:00:00	2024-11-08T05:00:00	1	Precipitación	0
46948	7	Sololá	710	Panajachel	8	Panajachel	7	Julio	2023-06-07T00:00:00	2024-11-08T05:00:00	8	Radiación solar	0
46949	7	Sololá	710	Panajachel	8	Panajachel	7	Julio	2023-06-07T00:00:00	2024-11-08T06:00:00	2	Temperatura media	16.3
46950	7	Sololá	710	Panajachel	8	Panajachel	7	Julio	2023-06-07T00:00:00	2024-11-08T06:00:00	4	Temperatura máxima	17.4
46951	7	Sololá	710	Panajachel	8	Panajachel	7	Julio	2023-06-07T00:00:00	2024-11-08T06:00:00	3	Temperatura mínima	16.3
46952	7	Sololá	710	Panajachel	8	Panajachel	7	Julio	2023-06-07T00:00:00	2024-11-08T06:00:00	5	Humedad	87
46953	7	Sololá	710	Panajachel	8	Panajachel	7	Julio	2023-06-07T00:00:00	2024-11-08T06:00:00	6	Velocidad del viento	0
46954	7	Sololá	710	Panajachel	8	Panajachel	7	Julio	2023-06-07T00:00:00	2024-11-08T06:00:00	7	Dirección del viento	0
46955	7	Sololá	710	Panajachel	8	Panajachel	7	Julio	2023-06-07T00:00:00	2024-11-08T06:00:00	1	Precipitación	0
46956	7	Sololá	710	Panajachel	8	Panajachel	7	Julio	2023-06-07T00:00:00	2024-11-08T06:00:00	8	Radiación solar	2
46957	7	Sololá	710	Panajachel	8	Panajachel	7	Julio	2023-06-07T00:00:00	2024-11-08T07:00:00	2	Temperatura media	19.3
46958	7	Sololá	710	Panajachel	8	Panajachel	7	Julio	2023-06-07T00:00:00	2024-11-08T07:00:00	4	Temperatura máxima	19.3
46959	7	Sololá	710	Panajachel	8	Panajachel	7	Julio	2023-06-07T00:00:00	2024-11-08T07:00:00	3	Temperatura mínima	16.3
46960	7	Sololá	710	Panajachel	8	Panajachel	7	Julio	2023-06-07T00:00:00	2024-11-08T07:00:00	5	Humedad	79
46961	7	Sololá	710	Panajachel	8	Panajachel	7	Julio	2023-06-07T00:00:00	2024-11-08T07:00:00	6	Velocidad del viento	1.6
46962	7	Sololá	710	Panajachel	8	Panajachel	7	Julio	2023-06-07T00:00:00	2024-11-08T07:00:00	7	Dirección del viento	1.61
46963	7	Sololá	710	Panajachel	8	Panajachel	7	Julio	2023-06-07T00:00:00	2024-11-08T07:00:00	1	Precipitación	0
46964	7	Sololá	710	Panajachel	8	Panajachel	7	Julio	2023-06-07T00:00:00	2024-11-08T07:00:00	8	Radiación solar	92
46965	7	Sololá	710	Panajachel	8	Panajachel	7	Julio	2023-06-07T00:00:00	2024-11-08T08:00:00	2	Temperatura media	21.5
46966	7	Sololá	710	Panajachel	8	Panajachel	7	Julio	2023-06-07T00:00:00	2024-11-08T08:00:00	4	Temperatura máxima	21.5
46967	7	Sololá	710	Panajachel	8	Panajachel	7	Julio	2023-06-07T00:00:00	2024-11-08T08:00:00	3	Temperatura mínima	19.3
46968	7	Sololá	710	Panajachel	8	Panajachel	7	Julio	2023-06-07T00:00:00	2024-11-08T08:00:00	5	Humedad	77
46969	7	Sololá	710	Panajachel	8	Panajachel	7	Julio	2023-06-07T00:00:00	2024-11-08T08:00:00	6	Velocidad del viento	0
46970	7	Sololá	710	Panajachel	8	Panajachel	7	Julio	2023-06-07T00:00:00	2024-11-08T08:00:00	7	Dirección del viento	0
46971	7	Sololá	710	Panajachel	8	Panajachel	7	Julio	2023-06-07T00:00:00	2024-11-08T08:00:00	1	Precipitación	0
46972	7	Sololá	710	Panajachel	8	Panajachel	7	Julio	2023-06-07T00:00:00	2024-11-08T08:00:00	8	Radiación solar	326
46973	7	Sololá	710	Panajachel	8	Panajachel	7	Julio	2023-06-07T00:00:00	2024-11-08T09:00:00	2	Temperatura media	22.2
46974	7	Sololá	710	Panajachel	8	Panajachel	7	Julio	2023-06-07T00:00:00	2024-11-08T09:00:00	4	Temperatura máxima	22.2
46975	7	Sololá	710	Panajachel	8	Panajachel	7	Julio	2023-06-07T00:00:00	2024-11-08T09:00:00	3	Temperatura mínima	21.5
46976	7	Sololá	710	Panajachel	8	Panajachel	7	Julio	2023-06-07T00:00:00	2024-11-08T09:00:00	5	Humedad	77
46977	7	Sololá	710	Panajachel	8	Panajachel	7	Julio	2023-06-07T00:00:00	2024-11-08T09:00:00	6	Velocidad del viento	0
46978	7	Sololá	710	Panajachel	8	Panajachel	7	Julio	2023-06-07T00:00:00	2024-11-08T09:00:00	7	Dirección del viento	0
46979	7	Sololá	710	Panajachel	8	Panajachel	7	Julio	2023-06-07T00:00:00	2024-11-08T09:00:00	1	Precipitación	0
46980	7	Sololá	710	Panajachel	8	Panajachel	7	Julio	2023-06-07T00:00:00	2024-11-08T09:00:00	8	Radiación solar	559
46981	7	Sololá	710	Panajachel	8	Panajachel	7	Julio	2023-06-07T00:00:00	2024-11-08T10:00:00	2	Temperatura media	23.6
46982	7	Sololá	710	Panajachel	8	Panajachel	7	Julio	2023-06-07T00:00:00	2024-11-08T10:00:00	4	Temperatura máxima	23.6
46983	7	Sololá	710	Panajachel	8	Panajachel	7	Julio	2023-06-07T00:00:00	2024-11-08T10:00:00	3	Temperatura mínima	22.1
46984	7	Sololá	710	Panajachel	8	Panajachel	7	Julio	2023-06-07T00:00:00	2024-11-08T10:00:00	5	Humedad	72
46985	7	Sololá	710	Panajachel	8	Panajachel	7	Julio	2023-06-07T00:00:00	2024-11-08T10:00:00	6	Velocidad del viento	0
46986	7	Sololá	710	Panajachel	8	Panajachel	7	Julio	2023-06-07T00:00:00	2024-11-08T10:00:00	7	Dirección del viento	0
46987	7	Sololá	710	Panajachel	8	Panajachel	7	Julio	2023-06-07T00:00:00	2024-11-08T10:00:00	1	Precipitación	0
46988	7	Sololá	710	Panajachel	8	Panajachel	7	Julio	2023-06-07T00:00:00	2024-11-08T10:00:00	8	Radiación solar	743
46989	7	Sololá	710	Panajachel	8	Panajachel	7	Julio	2023-06-07T00:00:00	2024-11-08T11:00:00	2	Temperatura media	23.9
46990	7	Sololá	710	Panajachel	8	Panajachel	7	Julio	2023-06-07T00:00:00	2024-11-08T11:00:00	4	Temperatura máxima	23.9
46991	7	Sololá	710	Panajachel	8	Panajachel	7	Julio	2023-06-07T00:00:00	2024-11-08T11:00:00	3	Temperatura mínima	22.8
46992	7	Sololá	710	Panajachel	8	Panajachel	7	Julio	2023-06-07T00:00:00	2024-11-08T11:00:00	5	Humedad	68
46993	7	Sololá	710	Panajachel	8	Panajachel	7	Julio	2023-06-07T00:00:00	2024-11-08T11:00:00	6	Velocidad del viento	0
46994	7	Sololá	710	Panajachel	8	Panajachel	7	Julio	2023-06-07T00:00:00	2024-11-08T11:00:00	7	Dirección del viento	0
46995	7	Sololá	710	Panajachel	8	Panajachel	7	Julio	2023-06-07T00:00:00	2024-11-08T11:00:00	1	Precipitación	0
46996	7	Sololá	710	Panajachel	8	Panajachel	7	Julio	2023-06-07T00:00:00	2024-11-08T11:00:00	8	Radiación solar	497
46997	7	Sololá	710	Panajachel	8	Panajachel	7	Julio	2023-06-07T00:00:00	2024-11-08T12:00:00	2	Temperatura media	24.1
46998	7	Sololá	710	Panajachel	8	Panajachel	7	Julio	2023-06-07T00:00:00	2024-11-08T12:00:00	4	Temperatura máxima	24.9
46999	7	Sololá	710	Panajachel	8	Panajachel	7	Julio	2023-06-07T00:00:00	2024-11-08T12:00:00	3	Temperatura mínima	23.9
47000	7	Sololá	710	Panajachel	8	Panajachel	7	Julio	2023-06-07T00:00:00	2024-11-08T12:00:00	5	Humedad	80
47001	7	Sololá	710	Panajachel	8	Panajachel	7	Julio	2023-06-07T00:00:00	2024-11-08T12:00:00	6	Velocidad del viento	0
47002	7	Sololá	710	Panajachel	8	Panajachel	7	Julio	2023-06-07T00:00:00	2024-11-08T12:00:00	7	Dirección del viento	0
47003	7	Sololá	710	Panajachel	8	Panajachel	7	Julio	2023-06-07T00:00:00	2024-11-08T12:00:00	1	Precipitación	0
47004	7	Sololá	710	Panajachel	8	Panajachel	7	Julio	2023-06-07T00:00:00	2024-11-08T12:00:00	8	Radiación solar	487
47005	7	Sololá	710	Panajachel	8	Panajachel	7	Julio	2023-06-07T00:00:00	2024-11-08T13:00:00	2	Temperatura media	23.9
47006	7	Sololá	710	Panajachel	8	Panajachel	7	Julio	2023-06-07T00:00:00	2024-11-08T13:00:00	4	Temperatura máxima	24.1
47007	7	Sololá	710	Panajachel	8	Panajachel	7	Julio	2023-06-07T00:00:00	2024-11-08T13:00:00	3	Temperatura mínima	23.5
47008	7	Sololá	710	Panajachel	8	Panajachel	7	Julio	2023-06-07T00:00:00	2024-11-08T13:00:00	5	Humedad	79
47009	7	Sololá	710	Panajachel	8	Panajachel	7	Julio	2023-06-07T00:00:00	2024-11-08T13:00:00	6	Velocidad del viento	1.6
47010	7	Sololá	710	Panajachel	8	Panajachel	7	Julio	2023-06-07T00:00:00	2024-11-08T13:00:00	7	Dirección del viento	1.61
47011	7	Sololá	710	Panajachel	8	Panajachel	7	Julio	2023-06-07T00:00:00	2024-11-08T13:00:00	1	Precipitación	0
47012	7	Sololá	710	Panajachel	8	Panajachel	7	Julio	2023-06-07T00:00:00	2024-11-08T13:00:00	8	Radiación solar	417
47013	7	Sololá	710	Panajachel	8	Panajachel	7	Julio	2023-06-07T00:00:00	2024-11-08T14:00:00	2	Temperatura media	23.9
47014	7	Sololá	710	Panajachel	8	Panajachel	7	Julio	2023-06-07T00:00:00	2024-11-08T14:00:00	4	Temperatura máxima	24.4
47015	7	Sololá	710	Panajachel	8	Panajachel	7	Julio	2023-06-07T00:00:00	2024-11-08T14:00:00	3	Temperatura mínima	23.8
47016	7	Sololá	710	Panajachel	8	Panajachel	7	Julio	2023-06-07T00:00:00	2024-11-08T14:00:00	5	Humedad	79
47017	7	Sololá	710	Panajachel	8	Panajachel	7	Julio	2023-06-07T00:00:00	2024-11-08T14:00:00	6	Velocidad del viento	1.6
47018	7	Sololá	710	Panajachel	8	Panajachel	7	Julio	2023-06-07T00:00:00	2024-11-08T14:00:00	7	Dirección del viento	1.61
47019	7	Sololá	710	Panajachel	8	Panajachel	7	Julio	2023-06-07T00:00:00	2024-11-08T14:00:00	1	Precipitación	0
47020	7	Sololá	710	Panajachel	8	Panajachel	7	Julio	2023-06-07T00:00:00	2024-11-08T14:00:00	8	Radiación solar	694
47021	7	Sololá	710	Panajachel	8	Panajachel	7	Julio	2023-06-07T00:00:00	2024-11-08T15:00:00	2	Temperatura media	23.6
47022	7	Sololá	710	Panajachel	8	Panajachel	7	Julio	2023-06-07T00:00:00	2024-11-08T15:00:00	4	Temperatura máxima	24.1
47023	7	Sololá	710	Panajachel	8	Panajachel	7	Julio	2023-06-07T00:00:00	2024-11-08T15:00:00	3	Temperatura mínima	23.3
47024	7	Sololá	710	Panajachel	8	Panajachel	7	Julio	2023-06-07T00:00:00	2024-11-08T15:00:00	5	Humedad	83
47025	7	Sololá	710	Panajachel	8	Panajachel	7	Julio	2023-06-07T00:00:00	2024-11-08T15:00:00	6	Velocidad del viento	3.2
47026	7	Sololá	710	Panajachel	8	Panajachel	7	Julio	2023-06-07T00:00:00	2024-11-08T15:00:00	7	Dirección del viento	3.22
47027	7	Sololá	710	Panajachel	8	Panajachel	7	Julio	2023-06-07T00:00:00	2024-11-08T15:00:00	1	Precipitación	0
47028	7	Sololá	710	Panajachel	8	Panajachel	7	Julio	2023-06-07T00:00:00	2024-11-08T15:00:00	8	Radiación solar	532
47029	7	Sololá	710	Panajachel	8	Panajachel	7	Julio	2023-06-07T00:00:00	2024-11-08T16:00:00	2	Temperatura media	23.1
47030	7	Sololá	710	Panajachel	8	Panajachel	7	Julio	2023-06-07T00:00:00	2024-11-08T16:00:00	4	Temperatura máxima	23.7
47031	7	Sololá	710	Panajachel	8	Panajachel	7	Julio	2023-06-07T00:00:00	2024-11-08T16:00:00	3	Temperatura mínima	22.9
47032	7	Sololá	710	Panajachel	8	Panajachel	7	Julio	2023-06-07T00:00:00	2024-11-08T16:00:00	5	Humedad	82
47033	7	Sololá	710	Panajachel	8	Panajachel	7	Julio	2023-06-07T00:00:00	2024-11-08T16:00:00	6	Velocidad del viento	1.6
47034	7	Sololá	710	Panajachel	8	Panajachel	7	Julio	2023-06-07T00:00:00	2024-11-08T16:00:00	7	Dirección del viento	1.61
47035	7	Sololá	710	Panajachel	8	Panajachel	7	Julio	2023-06-07T00:00:00	2024-11-08T16:00:00	1	Precipitación	0
47036	7	Sololá	710	Panajachel	8	Panajachel	7	Julio	2023-06-07T00:00:00	2024-11-08T16:00:00	8	Radiación solar	311
47037	7	Sololá	710	Panajachel	8	Panajachel	7	Julio	2023-06-07T00:00:00	2024-11-08T17:00:00	2	Temperatura media	22.1
47038	7	Sololá	710	Panajachel	8	Panajachel	7	Julio	2023-06-07T00:00:00	2024-11-08T17:00:00	4	Temperatura máxima	23.2
47039	7	Sololá	710	Panajachel	8	Panajachel	7	Julio	2023-06-07T00:00:00	2024-11-08T17:00:00	3	Temperatura mínima	22
47040	7	Sololá	710	Panajachel	8	Panajachel	7	Julio	2023-06-07T00:00:00	2024-11-08T17:00:00	5	Humedad	84
47041	7	Sololá	710	Panajachel	8	Panajachel	7	Julio	2023-06-07T00:00:00	2024-11-08T17:00:00	6	Velocidad del viento	1.6
47042	7	Sololá	710	Panajachel	8	Panajachel	7	Julio	2023-06-07T00:00:00	2024-11-08T17:00:00	7	Dirección del viento	1.61
47043	7	Sololá	710	Panajachel	8	Panajachel	7	Julio	2023-06-07T00:00:00	2024-11-08T17:00:00	1	Precipitación	0
47044	7	Sololá	710	Panajachel	8	Panajachel	7	Julio	2023-06-07T00:00:00	2024-11-08T17:00:00	8	Radiación solar	152
47045	7	Sololá	710	Panajachel	8	Panajachel	7	Julio	2023-06-07T00:00:00	2024-11-08T18:00:00	2	Temperatura media	21.7
47046	7	Sololá	710	Panajachel	8	Panajachel	7	Julio	2023-06-07T00:00:00	2024-11-08T18:00:00	4	Temperatura máxima	22.3
47047	7	Sololá	710	Panajachel	8	Panajachel	7	Julio	2023-06-07T00:00:00	2024-11-08T18:00:00	3	Temperatura mínima	21.7
47048	7	Sololá	710	Panajachel	8	Panajachel	7	Julio	2023-06-07T00:00:00	2024-11-08T18:00:00	5	Humedad	87
47049	7	Sololá	710	Panajachel	8	Panajachel	7	Julio	2023-06-07T00:00:00	2024-11-08T18:00:00	6	Velocidad del viento	1.6
47050	7	Sololá	710	Panajachel	8	Panajachel	7	Julio	2023-06-07T00:00:00	2024-11-08T18:00:00	7	Dirección del viento	1.61
47051	7	Sololá	710	Panajachel	8	Panajachel	7	Julio	2023-06-07T00:00:00	2024-11-08T18:00:00	1	Precipitación	0
47052	7	Sololá	710	Panajachel	8	Panajachel	7	Julio	2023-06-07T00:00:00	2024-11-08T18:00:00	8	Radiación solar	72
47053	7	Sololá	710	Panajachel	8	Panajachel	7	Julio	2023-06-07T00:00:00	2024-11-08T19:00:00	2	Temperatura media	20.8
47054	7	Sololá	710	Panajachel	8	Panajachel	7	Julio	2023-06-07T00:00:00	2024-11-08T19:00:00	4	Temperatura máxima	21.7
47055	7	Sololá	710	Panajachel	8	Panajachel	7	Julio	2023-06-07T00:00:00	2024-11-08T19:00:00	3	Temperatura mínima	20.8
47056	7	Sololá	710	Panajachel	8	Panajachel	7	Julio	2023-06-07T00:00:00	2024-11-08T19:00:00	5	Humedad	90
47057	7	Sololá	710	Panajachel	8	Panajachel	7	Julio	2023-06-07T00:00:00	2024-11-08T19:00:00	6	Velocidad del viento	0
47058	7	Sololá	710	Panajachel	8	Panajachel	7	Julio	2023-06-07T00:00:00	2024-11-08T19:00:00	7	Dirección del viento	0
47059	7	Sololá	710	Panajachel	8	Panajachel	7	Julio	2023-06-07T00:00:00	2024-11-08T19:00:00	1	Precipitación	0
47060	7	Sololá	710	Panajachel	8	Panajachel	7	Julio	2023-06-07T00:00:00	2024-11-08T19:00:00	8	Radiación solar	0
47061	7	Sololá	710	Panajachel	8	Panajachel	7	Julio	2023-06-07T00:00:00	2024-11-08T20:00:00	2	Temperatura media	20.1
47062	7	Sololá	710	Panajachel	8	Panajachel	7	Julio	2023-06-07T00:00:00	2024-11-08T20:00:00	4	Temperatura máxima	20.8
47063	7	Sololá	710	Panajachel	8	Panajachel	7	Julio	2023-06-07T00:00:00	2024-11-08T20:00:00	3	Temperatura mínima	20.1
47064	7	Sololá	710	Panajachel	8	Panajachel	7	Julio	2023-06-07T00:00:00	2024-11-08T20:00:00	5	Humedad	92
47065	7	Sololá	710	Panajachel	8	Panajachel	7	Julio	2023-06-07T00:00:00	2024-11-08T20:00:00	6	Velocidad del viento	0
47066	7	Sololá	710	Panajachel	8	Panajachel	7	Julio	2023-06-07T00:00:00	2024-11-08T20:00:00	7	Dirección del viento	0
47067	7	Sololá	710	Panajachel	8	Panajachel	7	Julio	2023-06-07T00:00:00	2024-11-08T20:00:00	1	Precipitación	0
47068	7	Sololá	710	Panajachel	8	Panajachel	7	Julio	2023-06-07T00:00:00	2024-11-08T20:00:00	8	Radiación solar	0
47069	7	Sololá	710	Panajachel	8	Panajachel	7	Julio	2023-06-07T00:00:00	2024-11-08T21:00:00	2	Temperatura media	18.6
47070	7	Sololá	710	Panajachel	8	Panajachel	7	Julio	2023-06-07T00:00:00	2024-11-08T21:00:00	4	Temperatura máxima	20.1
47071	7	Sololá	710	Panajachel	8	Panajachel	7	Julio	2023-06-07T00:00:00	2024-11-08T21:00:00	3	Temperatura mínima	18.6
47072	7	Sololá	710	Panajachel	8	Panajachel	7	Julio	2023-06-07T00:00:00	2024-11-08T21:00:00	5	Humedad	85
47073	7	Sololá	710	Panajachel	8	Panajachel	7	Julio	2023-06-07T00:00:00	2024-11-08T21:00:00	6	Velocidad del viento	1.6
47074	7	Sololá	710	Panajachel	8	Panajachel	7	Julio	2023-06-07T00:00:00	2024-11-08T21:00:00	7	Dirección del viento	1.61
47075	7	Sololá	710	Panajachel	8	Panajachel	7	Julio	2023-06-07T00:00:00	2024-11-08T21:00:00	1	Precipitación	0
47076	7	Sololá	710	Panajachel	8	Panajachel	7	Julio	2023-06-07T00:00:00	2024-11-08T21:00:00	8	Radiación solar	0
47077	7	Sololá	710	Panajachel	8	Panajachel	7	Julio	2023-06-07T00:00:00	2024-11-08T22:00:00	2	Temperatura media	18.7
47078	7	Sololá	710	Panajachel	8	Panajachel	7	Julio	2023-06-07T00:00:00	2024-11-08T22:00:00	4	Temperatura máxima	18.7
47079	7	Sololá	710	Panajachel	8	Panajachel	7	Julio	2023-06-07T00:00:00	2024-11-08T22:00:00	3	Temperatura mínima	18.1
47080	7	Sololá	710	Panajachel	8	Panajachel	7	Julio	2023-06-07T00:00:00	2024-11-08T22:00:00	5	Humedad	83
47081	7	Sololá	710	Panajachel	8	Panajachel	7	Julio	2023-06-07T00:00:00	2024-11-08T22:00:00	6	Velocidad del viento	3.2
47082	7	Sololá	710	Panajachel	8	Panajachel	7	Julio	2023-06-07T00:00:00	2024-11-08T22:00:00	7	Dirección del viento	3.22
47083	7	Sololá	710	Panajachel	8	Panajachel	7	Julio	2023-06-07T00:00:00	2024-11-08T22:00:00	1	Precipitación	0
47084	7	Sololá	710	Panajachel	8	Panajachel	7	Julio	2023-06-07T00:00:00	2024-11-08T22:00:00	8	Radiación solar	0
47085	7	Sololá	710	Panajachel	8	Panajachel	7	Julio	2023-06-07T00:00:00	2024-11-08T23:00:00	2	Temperatura media	18.4
47086	7	Sololá	710	Panajachel	8	Panajachel	7	Julio	2023-06-07T00:00:00	2024-11-08T23:00:00	4	Temperatura máxima	18.9
47087	7	Sololá	710	Panajachel	8	Panajachel	7	Julio	2023-06-07T00:00:00	2024-11-08T23:00:00	3	Temperatura mínima	18.2
47088	7	Sololá	710	Panajachel	8	Panajachel	7	Julio	2023-06-07T00:00:00	2024-11-08T23:00:00	5	Humedad	85
47089	7	Sololá	710	Panajachel	8	Panajachel	7	Julio	2023-06-07T00:00:00	2024-11-08T23:00:00	6	Velocidad del viento	0
47090	7	Sololá	710	Panajachel	8	Panajachel	7	Julio	2023-06-07T00:00:00	2024-11-08T23:00:00	7	Dirección del viento	0
47091	7	Sololá	710	Panajachel	8	Panajachel	7	Julio	2023-06-07T00:00:00	2024-11-08T23:00:00	1	Precipitación	0
47092	7	Sololá	710	Panajachel	8	Panajachel	7	Julio	2023-06-07T00:00:00	2024-11-08T23:00:00	8	Radiación solar	0
47093	7	Sololá	710	Panajachel	8	Panajachel	7	Julio	2023-07-07T00:00:00	2024-11-08T00:00:00	2	Temperatura media	18.1
47094	7	Sololá	710	Panajachel	8	Panajachel	7	Julio	2023-07-07T00:00:00	2024-11-08T00:00:00	4	Temperatura máxima	18.9
47095	7	Sololá	710	Panajachel	8	Panajachel	7	Julio	2023-07-07T00:00:00	2024-11-08T00:00:00	3	Temperatura mínima	18.1
47096	7	Sololá	710	Panajachel	8	Panajachel	7	Julio	2023-07-07T00:00:00	2024-11-08T00:00:00	5	Humedad	85
47097	7	Sololá	710	Panajachel	8	Panajachel	7	Julio	2023-07-07T00:00:00	2024-11-08T00:00:00	6	Velocidad del viento	0
47098	7	Sololá	710	Panajachel	8	Panajachel	7	Julio	2023-07-07T00:00:00	2024-11-08T00:00:00	7	Dirección del viento	0
47099	7	Sololá	710	Panajachel	8	Panajachel	7	Julio	2023-07-07T00:00:00	2024-11-08T00:00:00	1	Precipitación	0
47100	7	Sololá	710	Panajachel	8	Panajachel	7	Julio	2023-07-07T00:00:00	2024-11-08T00:00:00	8	Radiación solar	0
47101	7	Sololá	710	Panajachel	8	Panajachel	7	Julio	2023-07-07T00:00:00	2024-11-08T01:00:00	2	Temperatura media	19.1
47102	7	Sololá	710	Panajachel	8	Panajachel	7	Julio	2023-07-07T00:00:00	2024-11-08T01:00:00	4	Temperatura máxima	19.1
47103	7	Sololá	710	Panajachel	8	Panajachel	7	Julio	2023-07-07T00:00:00	2024-11-08T01:00:00	3	Temperatura mínima	18
47104	7	Sololá	710	Panajachel	8	Panajachel	7	Julio	2023-07-07T00:00:00	2024-11-08T01:00:00	5	Humedad	80
47105	7	Sololá	710	Panajachel	8	Panajachel	7	Julio	2023-07-07T00:00:00	2024-11-08T01:00:00	6	Velocidad del viento	0
47106	7	Sololá	710	Panajachel	8	Panajachel	7	Julio	2023-07-07T00:00:00	2024-11-08T01:00:00	7	Dirección del viento	0
47107	7	Sololá	710	Panajachel	8	Panajachel	7	Julio	2023-07-07T00:00:00	2024-11-08T01:00:00	1	Precipitación	0
47108	7	Sololá	710	Panajachel	8	Panajachel	7	Julio	2023-07-07T00:00:00	2024-11-08T01:00:00	8	Radiación solar	0
47109	7	Sololá	710	Panajachel	8	Panajachel	7	Julio	2023-07-07T00:00:00	2024-11-08T02:00:00	2	Temperatura media	17.4
47110	7	Sololá	710	Panajachel	8	Panajachel	7	Julio	2023-07-07T00:00:00	2024-11-08T02:00:00	4	Temperatura máxima	19.2
47111	7	Sololá	710	Panajachel	8	Panajachel	7	Julio	2023-07-07T00:00:00	2024-11-08T02:00:00	3	Temperatura mínima	17.4
47112	7	Sololá	710	Panajachel	8	Panajachel	7	Julio	2023-07-07T00:00:00	2024-11-08T02:00:00	5	Humedad	87
47113	7	Sololá	710	Panajachel	8	Panajachel	7	Julio	2023-07-07T00:00:00	2024-11-08T02:00:00	6	Velocidad del viento	0
47114	7	Sololá	710	Panajachel	8	Panajachel	7	Julio	2023-07-07T00:00:00	2024-11-08T02:00:00	7	Dirección del viento	0
47115	7	Sololá	710	Panajachel	8	Panajachel	7	Julio	2023-07-07T00:00:00	2024-11-08T02:00:00	1	Precipitación	0
47116	7	Sololá	710	Panajachel	8	Panajachel	7	Julio	2023-07-07T00:00:00	2024-11-08T02:00:00	8	Radiación solar	0
47117	7	Sololá	710	Panajachel	8	Panajachel	7	Julio	2023-07-07T00:00:00	2024-11-08T03:00:00	2	Temperatura media	17.3
47118	7	Sololá	710	Panajachel	8	Panajachel	7	Julio	2023-07-07T00:00:00	2024-11-08T03:00:00	4	Temperatura máxima	17.5
47119	7	Sololá	710	Panajachel	8	Panajachel	7	Julio	2023-07-07T00:00:00	2024-11-08T03:00:00	3	Temperatura mínima	17.1
47120	7	Sololá	710	Panajachel	8	Panajachel	7	Julio	2023-07-07T00:00:00	2024-11-08T03:00:00	5	Humedad	86
47121	7	Sololá	710	Panajachel	8	Panajachel	7	Julio	2023-07-07T00:00:00	2024-11-08T03:00:00	6	Velocidad del viento	1.6
47122	7	Sololá	710	Panajachel	8	Panajachel	7	Julio	2023-07-07T00:00:00	2024-11-08T03:00:00	7	Dirección del viento	1.61
47123	7	Sololá	710	Panajachel	8	Panajachel	7	Julio	2023-07-07T00:00:00	2024-11-08T03:00:00	1	Precipitación	0
47124	7	Sololá	710	Panajachel	8	Panajachel	7	Julio	2023-07-07T00:00:00	2024-11-08T03:00:00	8	Radiación solar	0
47125	7	Sololá	710	Panajachel	8	Panajachel	7	Julio	2023-07-07T00:00:00	2024-11-08T04:00:00	2	Temperatura media	17.3
47126	7	Sololá	710	Panajachel	8	Panajachel	7	Julio	2023-07-07T00:00:00	2024-11-08T04:00:00	4	Temperatura máxima	18
47127	7	Sololá	710	Panajachel	8	Panajachel	7	Julio	2023-07-07T00:00:00	2024-11-08T04:00:00	3	Temperatura mínima	17.3
47128	7	Sololá	710	Panajachel	8	Panajachel	7	Julio	2023-07-07T00:00:00	2024-11-08T04:00:00	5	Humedad	85
47129	7	Sololá	710	Panajachel	8	Panajachel	7	Julio	2023-07-07T00:00:00	2024-11-08T04:00:00	6	Velocidad del viento	0
47130	7	Sololá	710	Panajachel	8	Panajachel	7	Julio	2023-07-07T00:00:00	2024-11-08T04:00:00	7	Dirección del viento	0
47131	7	Sololá	710	Panajachel	8	Panajachel	7	Julio	2023-07-07T00:00:00	2024-11-08T04:00:00	1	Precipitación	0
47132	7	Sololá	710	Panajachel	8	Panajachel	7	Julio	2023-07-07T00:00:00	2024-11-08T04:00:00	8	Radiación solar	0
47133	7	Sololá	710	Panajachel	8	Panajachel	7	Julio	2023-07-07T00:00:00	2024-11-08T05:00:00	2	Temperatura media	16.8
47134	7	Sololá	710	Panajachel	8	Panajachel	7	Julio	2023-07-07T00:00:00	2024-11-08T05:00:00	4	Temperatura máxima	17.3
47135	7	Sololá	710	Panajachel	8	Panajachel	7	Julio	2023-07-07T00:00:00	2024-11-08T05:00:00	3	Temperatura mínima	16.5
47136	7	Sololá	710	Panajachel	8	Panajachel	7	Julio	2023-07-07T00:00:00	2024-11-08T05:00:00	5	Humedad	87
47137	7	Sololá	710	Panajachel	8	Panajachel	7	Julio	2023-07-07T00:00:00	2024-11-08T05:00:00	6	Velocidad del viento	0
47138	7	Sololá	710	Panajachel	8	Panajachel	7	Julio	2023-07-07T00:00:00	2024-11-08T05:00:00	7	Dirección del viento	0
47139	7	Sololá	710	Panajachel	8	Panajachel	7	Julio	2023-07-07T00:00:00	2024-11-08T05:00:00	1	Precipitación	0
47140	7	Sololá	710	Panajachel	8	Panajachel	7	Julio	2023-07-07T00:00:00	2024-11-08T05:00:00	8	Radiación solar	0
47141	7	Sololá	710	Panajachel	8	Panajachel	7	Julio	2023-07-07T00:00:00	2024-11-08T06:00:00	2	Temperatura media	17.2
47142	7	Sololá	710	Panajachel	8	Panajachel	7	Julio	2023-07-07T00:00:00	2024-11-08T06:00:00	4	Temperatura máxima	17.3
47143	7	Sololá	710	Panajachel	8	Panajachel	7	Julio	2023-07-07T00:00:00	2024-11-08T06:00:00	3	Temperatura mínima	16.7
47144	7	Sololá	710	Panajachel	8	Panajachel	7	Julio	2023-07-07T00:00:00	2024-11-08T06:00:00	5	Humedad	84
47145	7	Sololá	710	Panajachel	8	Panajachel	7	Julio	2023-07-07T00:00:00	2024-11-08T06:00:00	6	Velocidad del viento	1.6
47146	7	Sololá	710	Panajachel	8	Panajachel	7	Julio	2023-07-07T00:00:00	2024-11-08T06:00:00	7	Dirección del viento	1.61
47147	7	Sololá	710	Panajachel	8	Panajachel	7	Julio	2023-07-07T00:00:00	2024-11-08T06:00:00	1	Precipitación	0
47148	7	Sololá	710	Panajachel	8	Panajachel	7	Julio	2023-07-07T00:00:00	2024-11-08T06:00:00	8	Radiación solar	2
47149	7	Sololá	710	Panajachel	8	Panajachel	7	Julio	2023-07-07T00:00:00	2024-11-08T07:00:00	2	Temperatura media	19.4
47150	7	Sololá	710	Panajachel	8	Panajachel	7	Julio	2023-07-07T00:00:00	2024-11-08T07:00:00	4	Temperatura máxima	19.4
47151	7	Sololá	710	Panajachel	8	Panajachel	7	Julio	2023-07-07T00:00:00	2024-11-08T07:00:00	3	Temperatura mínima	16.8
47152	7	Sololá	710	Panajachel	8	Panajachel	7	Julio	2023-07-07T00:00:00	2024-11-08T07:00:00	5	Humedad	78
47153	7	Sololá	710	Panajachel	8	Panajachel	7	Julio	2023-07-07T00:00:00	2024-11-08T07:00:00	6	Velocidad del viento	0
47154	7	Sololá	710	Panajachel	8	Panajachel	7	Julio	2023-07-07T00:00:00	2024-11-08T07:00:00	7	Dirección del viento	0
47155	7	Sololá	710	Panajachel	8	Panajachel	7	Julio	2023-07-07T00:00:00	2024-11-08T07:00:00	1	Precipitación	0
47156	7	Sololá	710	Panajachel	8	Panajachel	7	Julio	2023-07-07T00:00:00	2024-11-08T07:00:00	8	Radiación solar	66
47157	7	Sololá	710	Panajachel	8	Panajachel	7	Julio	2023-07-07T00:00:00	2024-11-08T08:00:00	2	Temperatura media	22.1
47158	7	Sololá	710	Panajachel	8	Panajachel	7	Julio	2023-07-07T00:00:00	2024-11-08T08:00:00	4	Temperatura máxima	22.3
47159	7	Sololá	710	Panajachel	8	Panajachel	7	Julio	2023-07-07T00:00:00	2024-11-08T08:00:00	3	Temperatura mínima	19.4
47160	7	Sololá	710	Panajachel	8	Panajachel	7	Julio	2023-07-07T00:00:00	2024-11-08T08:00:00	5	Humedad	74
47161	7	Sololá	710	Panajachel	8	Panajachel	7	Julio	2023-07-07T00:00:00	2024-11-08T08:00:00	6	Velocidad del viento	0
47162	7	Sololá	710	Panajachel	8	Panajachel	7	Julio	2023-07-07T00:00:00	2024-11-08T08:00:00	7	Dirección del viento	0
47163	7	Sololá	710	Panajachel	8	Panajachel	7	Julio	2023-07-07T00:00:00	2024-11-08T08:00:00	1	Precipitación	0
47164	7	Sololá	710	Panajachel	8	Panajachel	7	Julio	2023-07-07T00:00:00	2024-11-08T08:00:00	8	Radiación solar	374
47165	7	Sololá	710	Panajachel	8	Panajachel	7	Julio	2023-07-07T00:00:00	2024-11-08T09:00:00	2	Temperatura media	22
47166	7	Sololá	710	Panajachel	8	Panajachel	7	Julio	2023-07-07T00:00:00	2024-11-08T09:00:00	4	Temperatura máxima	22.1
47167	7	Sololá	710	Panajachel	8	Panajachel	7	Julio	2023-07-07T00:00:00	2024-11-08T09:00:00	3	Temperatura mínima	21.2
47168	7	Sololá	710	Panajachel	8	Panajachel	7	Julio	2023-07-07T00:00:00	2024-11-08T09:00:00	5	Humedad	76
47169	7	Sololá	710	Panajachel	8	Panajachel	7	Julio	2023-07-07T00:00:00	2024-11-08T09:00:00	6	Velocidad del viento	3.2
47170	7	Sololá	710	Panajachel	8	Panajachel	7	Julio	2023-07-07T00:00:00	2024-11-08T09:00:00	7	Dirección del viento	3.22
47171	7	Sololá	710	Panajachel	8	Panajachel	7	Julio	2023-07-07T00:00:00	2024-11-08T09:00:00	1	Precipitación	0
47172	7	Sololá	710	Panajachel	8	Panajachel	7	Julio	2023-07-07T00:00:00	2024-11-08T09:00:00	8	Radiación solar	558
47173	7	Sololá	710	Panajachel	8	Panajachel	7	Julio	2023-07-07T00:00:00	2024-11-08T10:00:00	2	Temperatura media	23.6
47174	7	Sololá	710	Panajachel	8	Panajachel	7	Julio	2023-07-07T00:00:00	2024-11-08T10:00:00	4	Temperatura máxima	23.6
47175	7	Sololá	710	Panajachel	8	Panajachel	7	Julio	2023-07-07T00:00:00	2024-11-08T10:00:00	3	Temperatura mínima	22
47176	7	Sololá	710	Panajachel	8	Panajachel	7	Julio	2023-07-07T00:00:00	2024-11-08T10:00:00	5	Humedad	70
47177	7	Sololá	710	Panajachel	8	Panajachel	7	Julio	2023-07-07T00:00:00	2024-11-08T10:00:00	6	Velocidad del viento	0
47178	7	Sololá	710	Panajachel	8	Panajachel	7	Julio	2023-07-07T00:00:00	2024-11-08T10:00:00	7	Dirección del viento	0
47179	7	Sololá	710	Panajachel	8	Panajachel	7	Julio	2023-07-07T00:00:00	2024-11-08T10:00:00	1	Precipitación	0
47180	7	Sololá	710	Panajachel	8	Panajachel	7	Julio	2023-07-07T00:00:00	2024-11-08T10:00:00	8	Radiación solar	758
47181	7	Sololá	710	Panajachel	8	Panajachel	7	Julio	2023-07-07T00:00:00	2024-11-08T11:00:00	2	Temperatura media	23.3
47182	7	Sololá	710	Panajachel	8	Panajachel	7	Julio	2023-07-07T00:00:00	2024-11-08T11:00:00	4	Temperatura máxima	24.6
47183	7	Sololá	710	Panajachel	8	Panajachel	7	Julio	2023-07-07T00:00:00	2024-11-08T11:00:00	3	Temperatura mínima	23.3
47184	7	Sololá	710	Panajachel	8	Panajachel	7	Julio	2023-07-07T00:00:00	2024-11-08T11:00:00	5	Humedad	80
47185	7	Sololá	710	Panajachel	8	Panajachel	7	Julio	2023-07-07T00:00:00	2024-11-08T11:00:00	6	Velocidad del viento	1.6
47186	7	Sololá	710	Panajachel	8	Panajachel	7	Julio	2023-07-07T00:00:00	2024-11-08T11:00:00	7	Dirección del viento	1.61
47187	7	Sololá	710	Panajachel	8	Panajachel	7	Julio	2023-07-07T00:00:00	2024-11-08T11:00:00	1	Precipitación	0
47188	7	Sololá	710	Panajachel	8	Panajachel	7	Julio	2023-07-07T00:00:00	2024-11-08T11:00:00	8	Radiación solar	819
47189	7	Sololá	710	Panajachel	8	Panajachel	7	Julio	2023-07-07T00:00:00	2024-11-08T12:00:00	2	Temperatura media	21.6
47190	7	Sololá	710	Panajachel	8	Panajachel	7	Julio	2023-07-07T00:00:00	2024-11-08T12:00:00	4	Temperatura máxima	23.3
47191	7	Sololá	710	Panajachel	8	Panajachel	7	Julio	2023-07-07T00:00:00	2024-11-08T12:00:00	3	Temperatura mínima	21.6
47192	7	Sololá	710	Panajachel	8	Panajachel	7	Julio	2023-07-07T00:00:00	2024-11-08T12:00:00	5	Humedad	86
47193	7	Sololá	710	Panajachel	8	Panajachel	7	Julio	2023-07-07T00:00:00	2024-11-08T12:00:00	6	Velocidad del viento	3.2
47194	7	Sololá	710	Panajachel	8	Panajachel	7	Julio	2023-07-07T00:00:00	2024-11-08T12:00:00	7	Dirección del viento	3.22
47195	7	Sololá	710	Panajachel	8	Panajachel	7	Julio	2023-07-07T00:00:00	2024-11-08T12:00:00	1	Precipitación	0
47196	7	Sololá	710	Panajachel	8	Panajachel	7	Julio	2023-07-07T00:00:00	2024-11-08T12:00:00	8	Radiación solar	139
47197	7	Sololá	710	Panajachel	8	Panajachel	7	Julio	2023-07-07T00:00:00	2024-11-08T13:00:00	2	Temperatura media	22.5
47198	7	Sololá	710	Panajachel	8	Panajachel	7	Julio	2023-07-07T00:00:00	2024-11-08T13:00:00	4	Temperatura máxima	22.7
47199	7	Sololá	710	Panajachel	8	Panajachel	7	Julio	2023-07-07T00:00:00	2024-11-08T13:00:00	3	Temperatura mínima	21.4
47200	7	Sololá	710	Panajachel	8	Panajachel	7	Julio	2023-07-07T00:00:00	2024-11-08T13:00:00	5	Humedad	84
47201	7	Sololá	710	Panajachel	8	Panajachel	7	Julio	2023-07-07T00:00:00	2024-11-08T13:00:00	6	Velocidad del viento	0
47202	7	Sololá	710	Panajachel	8	Panajachel	7	Julio	2023-07-07T00:00:00	2024-11-08T13:00:00	7	Dirección del viento	0
47203	7	Sololá	710	Panajachel	8	Panajachel	7	Julio	2023-07-07T00:00:00	2024-11-08T13:00:00	1	Precipitación	0
47204	7	Sololá	710	Panajachel	8	Panajachel	7	Julio	2023-07-07T00:00:00	2024-11-08T13:00:00	8	Radiación solar	337
47205	7	Sololá	710	Panajachel	8	Panajachel	7	Julio	2023-07-07T00:00:00	2024-11-08T14:00:00	2	Temperatura media	21.8
47206	7	Sololá	710	Panajachel	8	Panajachel	7	Julio	2023-07-07T00:00:00	2024-11-08T14:00:00	4	Temperatura máxima	22.5
47207	7	Sololá	710	Panajachel	8	Panajachel	7	Julio	2023-07-07T00:00:00	2024-11-08T14:00:00	3	Temperatura mínima	21.7
47208	7	Sololá	710	Panajachel	8	Panajachel	7	Julio	2023-07-07T00:00:00	2024-11-08T14:00:00	5	Humedad	88
47209	7	Sololá	710	Panajachel	8	Panajachel	7	Julio	2023-07-07T00:00:00	2024-11-08T14:00:00	6	Velocidad del viento	3.2
47210	7	Sololá	710	Panajachel	8	Panajachel	7	Julio	2023-07-07T00:00:00	2024-11-08T14:00:00	7	Dirección del viento	3.22
47211	7	Sololá	710	Panajachel	8	Panajachel	7	Julio	2023-07-07T00:00:00	2024-11-08T14:00:00	1	Precipitación	0
47212	7	Sololá	710	Panajachel	8	Panajachel	7	Julio	2023-07-07T00:00:00	2024-11-08T14:00:00	8	Radiación solar	333
47213	7	Sololá	710	Panajachel	8	Panajachel	7	Julio	2023-07-07T00:00:00	2024-11-08T15:00:00	2	Temperatura media	20.3
47214	7	Sololá	710	Panajachel	8	Panajachel	7	Julio	2023-07-07T00:00:00	2024-11-08T15:00:00	4	Temperatura máxima	21.8
47215	7	Sololá	710	Panajachel	8	Panajachel	7	Julio	2023-07-07T00:00:00	2024-11-08T15:00:00	3	Temperatura mínima	20.3
47216	7	Sololá	710	Panajachel	8	Panajachel	7	Julio	2023-07-07T00:00:00	2024-11-08T15:00:00	5	Humedad	91
47217	7	Sololá	710	Panajachel	8	Panajachel	7	Julio	2023-07-07T00:00:00	2024-11-08T15:00:00	6	Velocidad del viento	1.6
47218	7	Sololá	710	Panajachel	8	Panajachel	7	Julio	2023-07-07T00:00:00	2024-11-08T15:00:00	7	Dirección del viento	1.61
47219	7	Sololá	710	Panajachel	8	Panajachel	7	Julio	2023-07-07T00:00:00	2024-11-08T15:00:00	1	Precipitación	0
47220	7	Sololá	710	Panajachel	8	Panajachel	7	Julio	2023-07-07T00:00:00	2024-11-08T15:00:00	8	Radiación solar	136
47221	7	Sololá	710	Panajachel	8	Panajachel	7	Julio	2023-07-07T00:00:00	2024-11-08T16:00:00	2	Temperatura media	18.8
47222	7	Sololá	710	Panajachel	8	Panajachel	7	Julio	2023-07-07T00:00:00	2024-11-08T16:00:00	4	Temperatura máxima	20.3
47223	7	Sololá	710	Panajachel	8	Panajachel	7	Julio	2023-07-07T00:00:00	2024-11-08T16:00:00	3	Temperatura mínima	18.8
47224	7	Sololá	710	Panajachel	8	Panajachel	7	Julio	2023-07-07T00:00:00	2024-11-08T16:00:00	5	Humedad	95
47225	7	Sololá	710	Panajachel	8	Panajachel	7	Julio	2023-07-07T00:00:00	2024-11-08T16:00:00	6	Velocidad del viento	1.6
47226	7	Sololá	710	Panajachel	8	Panajachel	7	Julio	2023-07-07T00:00:00	2024-11-08T16:00:00	7	Dirección del viento	1.61
47227	7	Sololá	710	Panajachel	8	Panajachel	7	Julio	2023-07-07T00:00:00	2024-11-08T16:00:00	1	Precipitación	1.2
47228	7	Sololá	710	Panajachel	8	Panajachel	7	Julio	2023-07-07T00:00:00	2024-11-08T16:00:00	8	Radiación solar	18
47229	7	Sololá	710	Panajachel	8	Panajachel	7	Julio	2023-07-07T00:00:00	2024-11-08T17:00:00	2	Temperatura media	17.9
47230	7	Sololá	710	Panajachel	8	Panajachel	7	Julio	2023-07-07T00:00:00	2024-11-08T17:00:00	4	Temperatura máxima	18.8
47231	7	Sololá	710	Panajachel	8	Panajachel	7	Julio	2023-07-07T00:00:00	2024-11-08T17:00:00	3	Temperatura mínima	17.9
47232	7	Sololá	710	Panajachel	8	Panajachel	7	Julio	2023-07-07T00:00:00	2024-11-08T17:00:00	5	Humedad	96
47233	7	Sololá	710	Panajachel	8	Panajachel	7	Julio	2023-07-07T00:00:00	2024-11-08T17:00:00	6	Velocidad del viento	0
47234	7	Sololá	710	Panajachel	8	Panajachel	7	Julio	2023-07-07T00:00:00	2024-11-08T17:00:00	7	Dirección del viento	0
47235	7	Sololá	710	Panajachel	8	Panajachel	7	Julio	2023-07-07T00:00:00	2024-11-08T17:00:00	1	Precipitación	6.6
47236	7	Sololá	710	Panajachel	8	Panajachel	7	Julio	2023-07-07T00:00:00	2024-11-08T17:00:00	8	Radiación solar	1
47237	7	Sololá	710	Panajachel	8	Panajachel	7	Julio	2023-07-07T00:00:00	2024-11-08T18:00:00	2	Temperatura media	17.7
47238	7	Sololá	710	Panajachel	8	Panajachel	7	Julio	2023-07-07T00:00:00	2024-11-08T18:00:00	4	Temperatura máxima	17.9
47239	7	Sololá	710	Panajachel	8	Panajachel	7	Julio	2023-07-07T00:00:00	2024-11-08T18:00:00	3	Temperatura mínima	17.6
47240	7	Sololá	710	Panajachel	8	Panajachel	7	Julio	2023-07-07T00:00:00	2024-11-08T18:00:00	5	Humedad	97
47241	7	Sololá	710	Panajachel	8	Panajachel	7	Julio	2023-07-07T00:00:00	2024-11-08T18:00:00	6	Velocidad del viento	0
47242	7	Sololá	710	Panajachel	8	Panajachel	7	Julio	2023-07-07T00:00:00	2024-11-08T18:00:00	7	Dirección del viento	0
47243	7	Sololá	710	Panajachel	8	Panajachel	7	Julio	2023-07-07T00:00:00	2024-11-08T18:00:00	1	Precipitación	5
47244	7	Sololá	710	Panajachel	8	Panajachel	7	Julio	2023-07-07T00:00:00	2024-11-08T18:00:00	8	Radiación solar	5
47245	7	Sololá	710	Panajachel	8	Panajachel	7	Julio	2023-07-07T00:00:00	2024-11-08T19:00:00	2	Temperatura media	17.4
47246	7	Sololá	710	Panajachel	8	Panajachel	7	Julio	2023-07-07T00:00:00	2024-11-08T19:00:00	4	Temperatura máxima	17.7
47247	7	Sololá	710	Panajachel	8	Panajachel	7	Julio	2023-07-07T00:00:00	2024-11-08T19:00:00	3	Temperatura mínima	17.4
47248	7	Sololá	710	Panajachel	8	Panajachel	7	Julio	2023-07-07T00:00:00	2024-11-08T19:00:00	5	Humedad	96
47249	7	Sololá	710	Panajachel	8	Panajachel	7	Julio	2023-07-07T00:00:00	2024-11-08T19:00:00	6	Velocidad del viento	0
47250	7	Sololá	710	Panajachel	8	Panajachel	7	Julio	2023-07-07T00:00:00	2024-11-08T19:00:00	7	Dirección del viento	0
47251	7	Sololá	710	Panajachel	8	Panajachel	7	Julio	2023-07-07T00:00:00	2024-11-08T19:00:00	1	Precipitación	2.2
47252	7	Sololá	710	Panajachel	8	Panajachel	7	Julio	2023-07-07T00:00:00	2024-11-08T19:00:00	8	Radiación solar	0
47253	7	Sololá	710	Panajachel	8	Panajachel	7	Julio	2023-07-07T00:00:00	2024-11-08T20:00:00	2	Temperatura media	17.3
47254	7	Sololá	710	Panajachel	8	Panajachel	7	Julio	2023-07-07T00:00:00	2024-11-08T20:00:00	4	Temperatura máxima	17.6
47255	7	Sololá	710	Panajachel	8	Panajachel	7	Julio	2023-07-07T00:00:00	2024-11-08T20:00:00	3	Temperatura mínima	17.3
47256	7	Sololá	710	Panajachel	8	Panajachel	7	Julio	2023-07-07T00:00:00	2024-11-08T20:00:00	5	Humedad	96
47257	7	Sololá	710	Panajachel	8	Panajachel	7	Julio	2023-07-07T00:00:00	2024-11-08T20:00:00	6	Velocidad del viento	0
47258	7	Sololá	710	Panajachel	8	Panajachel	7	Julio	2023-07-07T00:00:00	2024-11-08T20:00:00	7	Dirección del viento	0
47259	7	Sololá	710	Panajachel	8	Panajachel	7	Julio	2023-07-07T00:00:00	2024-11-08T20:00:00	1	Precipitación	0
47260	7	Sololá	710	Panajachel	8	Panajachel	7	Julio	2023-07-07T00:00:00	2024-11-08T20:00:00	8	Radiación solar	0
47261	7	Sololá	710	Panajachel	8	Panajachel	7	Julio	2023-07-07T00:00:00	2024-11-08T21:00:00	2	Temperatura media	17
47262	7	Sololá	710	Panajachel	8	Panajachel	7	Julio	2023-07-07T00:00:00	2024-11-08T21:00:00	4	Temperatura máxima	17.3
47263	7	Sololá	710	Panajachel	8	Panajachel	7	Julio	2023-07-07T00:00:00	2024-11-08T21:00:00	3	Temperatura mínima	16.9
47264	7	Sololá	710	Panajachel	8	Panajachel	7	Julio	2023-07-07T00:00:00	2024-11-08T21:00:00	5	Humedad	96
47265	7	Sololá	710	Panajachel	8	Panajachel	7	Julio	2023-07-07T00:00:00	2024-11-08T21:00:00	6	Velocidad del viento	0
47266	7	Sololá	710	Panajachel	8	Panajachel	7	Julio	2023-07-07T00:00:00	2024-11-08T21:00:00	7	Dirección del viento	0
47267	7	Sololá	710	Panajachel	8	Panajachel	7	Julio	2023-07-07T00:00:00	2024-11-08T21:00:00	1	Precipitación	0
47268	7	Sololá	710	Panajachel	8	Panajachel	7	Julio	2023-07-07T00:00:00	2024-11-08T21:00:00	8	Radiación solar	0
47269	7	Sololá	710	Panajachel	8	Panajachel	7	Julio	2023-07-07T00:00:00	2024-11-08T22:00:00	2	Temperatura media	17
47270	7	Sololá	710	Panajachel	8	Panajachel	7	Julio	2023-07-07T00:00:00	2024-11-08T22:00:00	4	Temperatura máxima	17.1
47271	7	Sololá	710	Panajachel	8	Panajachel	7	Julio	2023-07-07T00:00:00	2024-11-08T22:00:00	3	Temperatura mínima	16.9
47272	7	Sololá	710	Panajachel	8	Panajachel	7	Julio	2023-07-07T00:00:00	2024-11-08T22:00:00	5	Humedad	96
47273	7	Sololá	710	Panajachel	8	Panajachel	7	Julio	2023-07-07T00:00:00	2024-11-08T22:00:00	6	Velocidad del viento	0
47274	7	Sololá	710	Panajachel	8	Panajachel	7	Julio	2023-07-07T00:00:00	2024-11-08T22:00:00	7	Dirección del viento	0
47275	7	Sololá	710	Panajachel	8	Panajachel	7	Julio	2023-07-07T00:00:00	2024-11-08T22:00:00	1	Precipitación	0
47276	7	Sololá	710	Panajachel	8	Panajachel	7	Julio	2023-07-07T00:00:00	2024-11-08T22:00:00	8	Radiación solar	0
47277	7	Sololá	710	Panajachel	8	Panajachel	7	Julio	2023-07-07T00:00:00	2024-11-08T23:00:00	2	Temperatura media	16.8
47278	7	Sololá	710	Panajachel	8	Panajachel	7	Julio	2023-07-07T00:00:00	2024-11-08T23:00:00	4	Temperatura máxima	17.1
47279	7	Sololá	710	Panajachel	8	Panajachel	7	Julio	2023-07-07T00:00:00	2024-11-08T23:00:00	3	Temperatura mínima	16.8
47280	7	Sololá	710	Panajachel	8	Panajachel	7	Julio	2023-07-07T00:00:00	2024-11-08T23:00:00	5	Humedad	96
47281	7	Sololá	710	Panajachel	8	Panajachel	7	Julio	2023-07-07T00:00:00	2024-11-08T23:00:00	6	Velocidad del viento	0
47282	7	Sololá	710	Panajachel	8	Panajachel	7	Julio	2023-07-07T00:00:00	2024-11-08T23:00:00	7	Dirección del viento	0
47283	7	Sololá	710	Panajachel	8	Panajachel	7	Julio	2023-07-07T00:00:00	2024-11-08T23:00:00	1	Precipitación	0
47284	7	Sololá	710	Panajachel	8	Panajachel	7	Julio	2023-07-07T00:00:00	2024-11-08T23:00:00	8	Radiación solar	0
47285	7	Sololá	710	Panajachel	8	Panajachel	7	Julio	2023-08-07T00:00:00	2024-11-08T00:00:00	2	Temperatura media	16.9
47286	7	Sololá	710	Panajachel	8	Panajachel	7	Julio	2023-08-07T00:00:00	2024-11-08T00:00:00	4	Temperatura máxima	17
47287	7	Sololá	710	Panajachel	8	Panajachel	7	Julio	2023-08-07T00:00:00	2024-11-08T00:00:00	3	Temperatura mínima	16.8
47288	7	Sololá	710	Panajachel	8	Panajachel	7	Julio	2023-08-07T00:00:00	2024-11-08T00:00:00	5	Humedad	96
47289	7	Sololá	710	Panajachel	8	Panajachel	7	Julio	2023-08-07T00:00:00	2024-11-08T00:00:00	6	Velocidad del viento	0
47290	7	Sololá	710	Panajachel	8	Panajachel	7	Julio	2023-08-07T00:00:00	2024-11-08T00:00:00	7	Dirección del viento	0
47291	7	Sololá	710	Panajachel	8	Panajachel	7	Julio	2023-08-07T00:00:00	2024-11-08T00:00:00	1	Precipitación	0
47292	7	Sololá	710	Panajachel	8	Panajachel	7	Julio	2023-08-07T00:00:00	2024-11-08T00:00:00	8	Radiación solar	0
47293	7	Sololá	710	Panajachel	8	Panajachel	7	Julio	2023-08-07T00:00:00	2024-11-08T01:00:00	2	Temperatura media	17.1
47294	7	Sololá	710	Panajachel	8	Panajachel	7	Julio	2023-08-07T00:00:00	2024-11-08T01:00:00	4	Temperatura máxima	17.3
47295	7	Sololá	710	Panajachel	8	Panajachel	7	Julio	2023-08-07T00:00:00	2024-11-08T01:00:00	3	Temperatura mínima	16.9
47296	7	Sololá	710	Panajachel	8	Panajachel	7	Julio	2023-08-07T00:00:00	2024-11-08T01:00:00	5	Humedad	95
47297	7	Sololá	710	Panajachel	8	Panajachel	7	Julio	2023-08-07T00:00:00	2024-11-08T01:00:00	6	Velocidad del viento	0
47298	7	Sololá	710	Panajachel	8	Panajachel	7	Julio	2023-08-07T00:00:00	2024-11-08T01:00:00	7	Dirección del viento	0
47299	7	Sololá	710	Panajachel	8	Panajachel	7	Julio	2023-08-07T00:00:00	2024-11-08T01:00:00	1	Precipitación	0
47300	7	Sololá	710	Panajachel	8	Panajachel	7	Julio	2023-08-07T00:00:00	2024-11-08T01:00:00	8	Radiación solar	0
47301	7	Sololá	710	Panajachel	8	Panajachel	7	Julio	2023-08-07T00:00:00	2024-11-08T02:00:00	2	Temperatura media	17.3
47302	7	Sololá	710	Panajachel	8	Panajachel	7	Julio	2023-08-07T00:00:00	2024-11-08T02:00:00	4	Temperatura máxima	17.4
47303	7	Sololá	710	Panajachel	8	Panajachel	7	Julio	2023-08-07T00:00:00	2024-11-08T02:00:00	3	Temperatura mínima	17.1
47304	7	Sololá	710	Panajachel	8	Panajachel	7	Julio	2023-08-07T00:00:00	2024-11-08T02:00:00	5	Humedad	96
47305	7	Sololá	710	Panajachel	8	Panajachel	7	Julio	2023-08-07T00:00:00	2024-11-08T02:00:00	6	Velocidad del viento	0
47306	7	Sololá	710	Panajachel	8	Panajachel	7	Julio	2023-08-07T00:00:00	2024-11-08T02:00:00	7	Dirección del viento	0
47307	7	Sololá	710	Panajachel	8	Panajachel	7	Julio	2023-08-07T00:00:00	2024-11-08T02:00:00	1	Precipitación	0
47308	7	Sololá	710	Panajachel	8	Panajachel	7	Julio	2023-08-07T00:00:00	2024-11-08T02:00:00	8	Radiación solar	0
47309	7	Sololá	710	Panajachel	8	Panajachel	7	Julio	2023-08-07T00:00:00	2024-11-08T03:00:00	2	Temperatura media	17.3
47310	7	Sololá	710	Panajachel	8	Panajachel	7	Julio	2023-08-07T00:00:00	2024-11-08T03:00:00	4	Temperatura máxima	17.4
47311	7	Sololá	710	Panajachel	8	Panajachel	7	Julio	2023-08-07T00:00:00	2024-11-08T03:00:00	3	Temperatura mínima	17.2
47312	7	Sololá	710	Panajachel	8	Panajachel	7	Julio	2023-08-07T00:00:00	2024-11-08T03:00:00	5	Humedad	95
47313	7	Sololá	710	Panajachel	8	Panajachel	7	Julio	2023-08-07T00:00:00	2024-11-08T03:00:00	6	Velocidad del viento	0
47314	7	Sololá	710	Panajachel	8	Panajachel	7	Julio	2023-08-07T00:00:00	2024-11-08T03:00:00	7	Dirección del viento	0
47315	7	Sololá	710	Panajachel	8	Panajachel	7	Julio	2023-08-07T00:00:00	2024-11-08T03:00:00	1	Precipitación	0
47316	7	Sololá	710	Panajachel	8	Panajachel	7	Julio	2023-08-07T00:00:00	2024-11-08T03:00:00	8	Radiación solar	0
47317	7	Sololá	710	Panajachel	8	Panajachel	7	Julio	2023-08-07T00:00:00	2024-11-08T04:00:00	2	Temperatura media	17.3
47318	7	Sololá	710	Panajachel	8	Panajachel	7	Julio	2023-08-07T00:00:00	2024-11-08T04:00:00	4	Temperatura máxima	17.5
47319	7	Sololá	710	Panajachel	8	Panajachel	7	Julio	2023-08-07T00:00:00	2024-11-08T04:00:00	3	Temperatura mínima	17.3
47320	7	Sololá	710	Panajachel	8	Panajachel	7	Julio	2023-08-07T00:00:00	2024-11-08T04:00:00	5	Humedad	95
47321	7	Sololá	710	Panajachel	8	Panajachel	7	Julio	2023-08-07T00:00:00	2024-11-08T04:00:00	6	Velocidad del viento	0
47322	7	Sololá	710	Panajachel	8	Panajachel	7	Julio	2023-08-07T00:00:00	2024-11-08T04:00:00	7	Dirección del viento	0
47323	7	Sololá	710	Panajachel	8	Panajachel	7	Julio	2023-08-07T00:00:00	2024-11-08T04:00:00	1	Precipitación	0
47324	7	Sololá	710	Panajachel	8	Panajachel	7	Julio	2023-08-07T00:00:00	2024-11-08T04:00:00	8	Radiación solar	0
47325	7	Sololá	710	Panajachel	8	Panajachel	7	Julio	2023-08-07T00:00:00	2024-11-08T05:00:00	2	Temperatura media	16.8
47326	7	Sololá	710	Panajachel	8	Panajachel	7	Julio	2023-08-07T00:00:00	2024-11-08T05:00:00	4	Temperatura máxima	17.4
47327	7	Sololá	710	Panajachel	8	Panajachel	7	Julio	2023-08-07T00:00:00	2024-11-08T05:00:00	3	Temperatura mínima	16.8
47328	7	Sololá	710	Panajachel	8	Panajachel	7	Julio	2023-08-07T00:00:00	2024-11-08T05:00:00	5	Humedad	96
47329	7	Sololá	710	Panajachel	8	Panajachel	7	Julio	2023-08-07T00:00:00	2024-11-08T05:00:00	6	Velocidad del viento	0
47330	7	Sololá	710	Panajachel	8	Panajachel	7	Julio	2023-08-07T00:00:00	2024-11-08T05:00:00	7	Dirección del viento	0
47331	7	Sololá	710	Panajachel	8	Panajachel	7	Julio	2023-08-07T00:00:00	2024-11-08T05:00:00	1	Precipitación	0
47332	7	Sololá	710	Panajachel	8	Panajachel	7	Julio	2023-08-07T00:00:00	2024-11-08T05:00:00	8	Radiación solar	0
47333	7	Sololá	710	Panajachel	8	Panajachel	7	Julio	2023-08-07T00:00:00	2024-11-08T06:00:00	2	Temperatura media	16.6
47334	7	Sololá	710	Panajachel	8	Panajachel	7	Julio	2023-08-07T00:00:00	2024-11-08T06:00:00	4	Temperatura máxima	16.8
47335	7	Sololá	710	Panajachel	8	Panajachel	7	Julio	2023-08-07T00:00:00	2024-11-08T06:00:00	3	Temperatura mínima	16.6
47336	7	Sololá	710	Panajachel	8	Panajachel	7	Julio	2023-08-07T00:00:00	2024-11-08T06:00:00	5	Humedad	96
47337	7	Sololá	710	Panajachel	8	Panajachel	7	Julio	2023-08-07T00:00:00	2024-11-08T06:00:00	6	Velocidad del viento	0
47338	7	Sololá	710	Panajachel	8	Panajachel	7	Julio	2023-08-07T00:00:00	2024-11-08T06:00:00	7	Dirección del viento	0
47339	7	Sololá	710	Panajachel	8	Panajachel	7	Julio	2023-08-07T00:00:00	2024-11-08T06:00:00	1	Precipitación	0.2
47340	7	Sololá	710	Panajachel	8	Panajachel	7	Julio	2023-08-07T00:00:00	2024-11-08T06:00:00	8	Radiación solar	2
47341	7	Sololá	710	Panajachel	8	Panajachel	7	Julio	2023-08-07T00:00:00	2024-11-08T07:00:00	2	Temperatura media	17.2
47342	7	Sololá	710	Panajachel	8	Panajachel	7	Julio	2023-08-07T00:00:00	2024-11-08T07:00:00	4	Temperatura máxima	17.2
47343	7	Sololá	710	Panajachel	8	Panajachel	7	Julio	2023-08-07T00:00:00	2024-11-08T07:00:00	3	Temperatura mínima	16.5
47344	7	Sololá	710	Panajachel	8	Panajachel	7	Julio	2023-08-07T00:00:00	2024-11-08T07:00:00	5	Humedad	93
47345	7	Sololá	710	Panajachel	8	Panajachel	7	Julio	2023-08-07T00:00:00	2024-11-08T07:00:00	6	Velocidad del viento	0
47346	7	Sololá	710	Panajachel	8	Panajachel	7	Julio	2023-08-07T00:00:00	2024-11-08T07:00:00	7	Dirección del viento	0
47347	7	Sololá	710	Panajachel	8	Panajachel	7	Julio	2023-08-07T00:00:00	2024-11-08T07:00:00	1	Precipitación	0
47348	7	Sololá	710	Panajachel	8	Panajachel	7	Julio	2023-08-07T00:00:00	2024-11-08T07:00:00	8	Radiación solar	49
47349	7	Sololá	710	Panajachel	8	Panajachel	7	Julio	2023-08-07T00:00:00	2024-11-08T08:00:00	2	Temperatura media	18.9
47350	7	Sololá	710	Panajachel	8	Panajachel	7	Julio	2023-08-07T00:00:00	2024-11-08T08:00:00	4	Temperatura máxima	18.9
47351	7	Sololá	710	Panajachel	8	Panajachel	7	Julio	2023-08-07T00:00:00	2024-11-08T08:00:00	3	Temperatura mínima	17.2
47352	7	Sololá	710	Panajachel	8	Panajachel	7	Julio	2023-08-07T00:00:00	2024-11-08T08:00:00	5	Humedad	89
47353	7	Sololá	710	Panajachel	8	Panajachel	7	Julio	2023-08-07T00:00:00	2024-11-08T08:00:00	6	Velocidad del viento	0
47354	7	Sololá	710	Panajachel	8	Panajachel	7	Julio	2023-08-07T00:00:00	2024-11-08T08:00:00	7	Dirección del viento	0
47355	7	Sololá	710	Panajachel	8	Panajachel	7	Julio	2023-08-07T00:00:00	2024-11-08T08:00:00	1	Precipitación	0
47356	7	Sololá	710	Panajachel	8	Panajachel	7	Julio	2023-08-07T00:00:00	2024-11-08T08:00:00	8	Radiación solar	138
47357	7	Sololá	710	Panajachel	8	Panajachel	7	Julio	2023-08-07T00:00:00	2024-11-08T09:00:00	2	Temperatura media	20.4
47358	7	Sololá	710	Panajachel	8	Panajachel	7	Julio	2023-08-07T00:00:00	2024-11-08T09:00:00	4	Temperatura máxima	20.4
47359	7	Sololá	710	Panajachel	8	Panajachel	7	Julio	2023-08-07T00:00:00	2024-11-08T09:00:00	3	Temperatura mínima	18.9
47360	7	Sololá	710	Panajachel	8	Panajachel	7	Julio	2023-08-07T00:00:00	2024-11-08T09:00:00	5	Humedad	85
47361	7	Sololá	710	Panajachel	8	Panajachel	7	Julio	2023-08-07T00:00:00	2024-11-08T09:00:00	6	Velocidad del viento	0
47362	7	Sololá	710	Panajachel	8	Panajachel	7	Julio	2023-08-07T00:00:00	2024-11-08T09:00:00	7	Dirección del viento	0
47363	7	Sololá	710	Panajachel	8	Panajachel	7	Julio	2023-08-07T00:00:00	2024-11-08T09:00:00	1	Precipitación	0
47364	7	Sololá	710	Panajachel	8	Panajachel	7	Julio	2023-08-07T00:00:00	2024-11-08T09:00:00	8	Radiación solar	199
47365	7	Sololá	710	Panajachel	8	Panajachel	7	Julio	2023-08-07T00:00:00	2024-11-08T10:00:00	2	Temperatura media	21.2
47366	7	Sololá	710	Panajachel	8	Panajachel	7	Julio	2023-08-07T00:00:00	2024-11-08T10:00:00	4	Temperatura máxima	21.2
47367	7	Sololá	710	Panajachel	8	Panajachel	7	Julio	2023-08-07T00:00:00	2024-11-08T10:00:00	3	Temperatura mínima	20.3
47368	7	Sololá	710	Panajachel	8	Panajachel	7	Julio	2023-08-07T00:00:00	2024-11-08T10:00:00	5	Humedad	80
47369	7	Sololá	710	Panajachel	8	Panajachel	7	Julio	2023-08-07T00:00:00	2024-11-08T10:00:00	6	Velocidad del viento	0
47370	7	Sololá	710	Panajachel	8	Panajachel	7	Julio	2023-08-07T00:00:00	2024-11-08T10:00:00	7	Dirección del viento	0
47371	7	Sololá	710	Panajachel	8	Panajachel	7	Julio	2023-08-07T00:00:00	2024-11-08T10:00:00	1	Precipitación	0
47372	7	Sololá	710	Panajachel	8	Panajachel	7	Julio	2023-08-07T00:00:00	2024-11-08T10:00:00	8	Radiación solar	383
47373	7	Sololá	710	Panajachel	8	Panajachel	7	Julio	2023-08-07T00:00:00	2024-11-08T11:00:00	2	Temperatura media	21.1
47374	7	Sololá	710	Panajachel	8	Panajachel	7	Julio	2023-08-07T00:00:00	2024-11-08T11:00:00	4	Temperatura máxima	21.6
47375	7	Sololá	710	Panajachel	8	Panajachel	7	Julio	2023-08-07T00:00:00	2024-11-08T11:00:00	3	Temperatura mínima	21.1
47376	7	Sololá	710	Panajachel	8	Panajachel	7	Julio	2023-08-07T00:00:00	2024-11-08T11:00:00	5	Humedad	82
47377	7	Sololá	710	Panajachel	8	Panajachel	7	Julio	2023-08-07T00:00:00	2024-11-08T11:00:00	6	Velocidad del viento	0
47378	7	Sololá	710	Panajachel	8	Panajachel	7	Julio	2023-08-07T00:00:00	2024-11-08T11:00:00	7	Dirección del viento	0
47379	7	Sololá	710	Panajachel	8	Panajachel	7	Julio	2023-08-07T00:00:00	2024-11-08T11:00:00	1	Precipitación	0
47380	7	Sololá	710	Panajachel	8	Panajachel	7	Julio	2023-08-07T00:00:00	2024-11-08T11:00:00	8	Radiación solar	336
47381	7	Sololá	710	Panajachel	8	Panajachel	7	Julio	2023-08-07T00:00:00	2024-11-08T12:00:00	2	Temperatura media	21.6
47382	7	Sololá	710	Panajachel	8	Panajachel	7	Julio	2023-08-07T00:00:00	2024-11-08T12:00:00	4	Temperatura máxima	21.6
47383	7	Sololá	710	Panajachel	8	Panajachel	7	Julio	2023-08-07T00:00:00	2024-11-08T12:00:00	3	Temperatura mínima	21.1
47384	7	Sololá	710	Panajachel	8	Panajachel	7	Julio	2023-08-07T00:00:00	2024-11-08T12:00:00	5	Humedad	82
47385	7	Sololá	710	Panajachel	8	Panajachel	7	Julio	2023-08-07T00:00:00	2024-11-08T12:00:00	6	Velocidad del viento	0
47386	7	Sololá	710	Panajachel	8	Panajachel	7	Julio	2023-08-07T00:00:00	2024-11-08T12:00:00	7	Dirección del viento	0
47387	7	Sololá	710	Panajachel	8	Panajachel	7	Julio	2023-08-07T00:00:00	2024-11-08T12:00:00	1	Precipitación	0
47388	7	Sololá	710	Panajachel	8	Panajachel	7	Julio	2023-08-07T00:00:00	2024-11-08T12:00:00	8	Radiación solar	277
47389	7	Sololá	710	Panajachel	8	Panajachel	7	Julio	2023-08-07T00:00:00	2024-11-08T13:00:00	2	Temperatura media	22.1
47390	7	Sololá	710	Panajachel	8	Panajachel	7	Julio	2023-08-07T00:00:00	2024-11-08T13:00:00	4	Temperatura máxima	22.2
47391	7	Sololá	710	Panajachel	8	Panajachel	7	Julio	2023-08-07T00:00:00	2024-11-08T13:00:00	3	Temperatura mínima	21.5
47392	7	Sololá	710	Panajachel	8	Panajachel	7	Julio	2023-08-07T00:00:00	2024-11-08T13:00:00	5	Humedad	79
47393	7	Sololá	710	Panajachel	8	Panajachel	7	Julio	2023-08-07T00:00:00	2024-11-08T13:00:00	6	Velocidad del viento	0
47394	7	Sololá	710	Panajachel	8	Panajachel	7	Julio	2023-08-07T00:00:00	2024-11-08T13:00:00	7	Dirección del viento	0
47395	7	Sololá	710	Panajachel	8	Panajachel	7	Julio	2023-08-07T00:00:00	2024-11-08T13:00:00	1	Precipitación	0
47396	7	Sololá	710	Panajachel	8	Panajachel	7	Julio	2023-08-07T00:00:00	2024-11-08T13:00:00	8	Radiación solar	369
47397	7	Sololá	710	Panajachel	8	Panajachel	7	Julio	2023-08-07T00:00:00	2024-11-08T14:00:00	2	Temperatura media	21.7
47398	7	Sololá	710	Panajachel	8	Panajachel	7	Julio	2023-08-07T00:00:00	2024-11-08T14:00:00	4	Temperatura máxima	22.1
47399	7	Sololá	710	Panajachel	8	Panajachel	7	Julio	2023-08-07T00:00:00	2024-11-08T14:00:00	3	Temperatura mínima	21.2
47400	7	Sololá	710	Panajachel	8	Panajachel	7	Julio	2023-08-07T00:00:00	2024-11-08T14:00:00	5	Humedad	82
47401	7	Sololá	710	Panajachel	8	Panajachel	7	Julio	2023-08-07T00:00:00	2024-11-08T14:00:00	6	Velocidad del viento	0
47402	7	Sololá	710	Panajachel	8	Panajachel	7	Julio	2023-08-07T00:00:00	2024-11-08T14:00:00	7	Dirección del viento	0
47403	7	Sololá	710	Panajachel	8	Panajachel	7	Julio	2023-08-07T00:00:00	2024-11-08T14:00:00	1	Precipitación	0
47404	7	Sololá	710	Panajachel	8	Panajachel	7	Julio	2023-08-07T00:00:00	2024-11-08T14:00:00	8	Radiación solar	283
47405	7	Sololá	710	Panajachel	8	Panajachel	7	Julio	2023-08-07T00:00:00	2024-11-08T15:00:00	2	Temperatura media	18.9
47406	7	Sololá	710	Panajachel	8	Panajachel	7	Julio	2023-08-07T00:00:00	2024-11-08T15:00:00	4	Temperatura máxima	22.5
47407	7	Sololá	710	Panajachel	8	Panajachel	7	Julio	2023-08-07T00:00:00	2024-11-08T15:00:00	3	Temperatura mínima	18.9
47408	7	Sololá	710	Panajachel	8	Panajachel	7	Julio	2023-08-07T00:00:00	2024-11-08T15:00:00	5	Humedad	95
47409	7	Sololá	710	Panajachel	8	Panajachel	7	Julio	2023-08-07T00:00:00	2024-11-08T15:00:00	6	Velocidad del viento	1.6
47410	7	Sololá	710	Panajachel	8	Panajachel	7	Julio	2023-08-07T00:00:00	2024-11-08T15:00:00	7	Dirección del viento	1.61
47411	7	Sololá	710	Panajachel	8	Panajachel	7	Julio	2023-08-07T00:00:00	2024-11-08T15:00:00	1	Precipitación	10.4
47412	7	Sololá	710	Panajachel	8	Panajachel	7	Julio	2023-08-07T00:00:00	2024-11-08T15:00:00	8	Radiación solar	126
47413	7	Sololá	710	Panajachel	8	Panajachel	7	Julio	2023-08-07T00:00:00	2024-11-08T16:00:00	2	Temperatura media	18.7
47414	7	Sololá	710	Panajachel	8	Panajachel	7	Julio	2023-08-07T00:00:00	2024-11-08T16:00:00	4	Temperatura máxima	18.9
47415	7	Sololá	710	Panajachel	8	Panajachel	7	Julio	2023-08-07T00:00:00	2024-11-08T16:00:00	3	Temperatura mínima	18.6
47416	7	Sololá	710	Panajachel	8	Panajachel	7	Julio	2023-08-07T00:00:00	2024-11-08T16:00:00	5	Humedad	96
47417	7	Sololá	710	Panajachel	8	Panajachel	7	Julio	2023-08-07T00:00:00	2024-11-08T16:00:00	6	Velocidad del viento	0
47418	7	Sololá	710	Panajachel	8	Panajachel	7	Julio	2023-08-07T00:00:00	2024-11-08T16:00:00	7	Dirección del viento	0
47419	7	Sololá	710	Panajachel	8	Panajachel	7	Julio	2023-08-07T00:00:00	2024-11-08T16:00:00	1	Precipitación	2.4
47420	7	Sololá	710	Panajachel	8	Panajachel	7	Julio	2023-08-07T00:00:00	2024-11-08T16:00:00	8	Radiación solar	84
47421	7	Sololá	710	Panajachel	8	Panajachel	7	Julio	2023-08-07T00:00:00	2024-11-08T17:00:00	2	Temperatura media	18.2
47422	7	Sololá	710	Panajachel	8	Panajachel	7	Julio	2023-08-07T00:00:00	2024-11-08T17:00:00	4	Temperatura máxima	18.7
47423	7	Sololá	710	Panajachel	8	Panajachel	7	Julio	2023-08-07T00:00:00	2024-11-08T17:00:00	3	Temperatura mínima	18.2
47424	7	Sololá	710	Panajachel	8	Panajachel	7	Julio	2023-08-07T00:00:00	2024-11-08T17:00:00	5	Humedad	96
47425	7	Sololá	710	Panajachel	8	Panajachel	7	Julio	2023-08-07T00:00:00	2024-11-08T17:00:00	6	Velocidad del viento	0
47426	7	Sololá	710	Panajachel	8	Panajachel	7	Julio	2023-08-07T00:00:00	2024-11-08T17:00:00	7	Dirección del viento	0
47427	7	Sololá	710	Panajachel	8	Panajachel	7	Julio	2023-08-07T00:00:00	2024-11-08T17:00:00	1	Precipitación	2.8
47428	7	Sololá	710	Panajachel	8	Panajachel	7	Julio	2023-08-07T00:00:00	2024-11-08T17:00:00	8	Radiación solar	20
47429	7	Sololá	710	Panajachel	8	Panajachel	7	Julio	2023-08-07T00:00:00	2024-11-08T18:00:00	2	Temperatura media	18.1
47430	7	Sololá	710	Panajachel	8	Panajachel	7	Julio	2023-08-07T00:00:00	2024-11-08T18:00:00	4	Temperatura máxima	18.2
47431	7	Sololá	710	Panajachel	8	Panajachel	7	Julio	2023-08-07T00:00:00	2024-11-08T18:00:00	3	Temperatura mínima	18
47432	7	Sololá	710	Panajachel	8	Panajachel	7	Julio	2023-08-07T00:00:00	2024-11-08T18:00:00	5	Humedad	97
47433	7	Sololá	710	Panajachel	8	Panajachel	7	Julio	2023-08-07T00:00:00	2024-11-08T18:00:00	6	Velocidad del viento	0
47434	7	Sololá	710	Panajachel	8	Panajachel	7	Julio	2023-08-07T00:00:00	2024-11-08T18:00:00	7	Dirección del viento	0
47435	7	Sololá	710	Panajachel	8	Panajachel	7	Julio	2023-08-07T00:00:00	2024-11-08T18:00:00	1	Precipitación	0.8
47436	7	Sololá	710	Panajachel	8	Panajachel	7	Julio	2023-08-07T00:00:00	2024-11-08T18:00:00	8	Radiación solar	18
47437	7	Sololá	710	Panajachel	8	Panajachel	7	Julio	2023-08-07T00:00:00	2024-11-08T19:00:00	2	Temperatura media	18.1
47438	7	Sololá	710	Panajachel	8	Panajachel	7	Julio	2023-08-07T00:00:00	2024-11-08T19:00:00	4	Temperatura máxima	18.2
47439	7	Sololá	710	Panajachel	8	Panajachel	7	Julio	2023-08-07T00:00:00	2024-11-08T19:00:00	3	Temperatura mínima	18
47440	7	Sololá	710	Panajachel	8	Panajachel	7	Julio	2023-08-07T00:00:00	2024-11-08T19:00:00	5	Humedad	95
47441	7	Sololá	710	Panajachel	8	Panajachel	7	Julio	2023-08-07T00:00:00	2024-11-08T19:00:00	6	Velocidad del viento	0
47442	7	Sololá	710	Panajachel	8	Panajachel	7	Julio	2023-08-07T00:00:00	2024-11-08T19:00:00	7	Dirección del viento	0
47443	7	Sololá	710	Panajachel	8	Panajachel	7	Julio	2023-08-07T00:00:00	2024-11-08T19:00:00	1	Precipitación	0.8
47444	7	Sololá	710	Panajachel	8	Panajachel	7	Julio	2023-08-07T00:00:00	2024-11-08T19:00:00	8	Radiación solar	0
47445	7	Sololá	710	Panajachel	8	Panajachel	7	Julio	2023-08-07T00:00:00	2024-11-08T20:00:00	2	Temperatura media	17.6
47446	7	Sololá	710	Panajachel	8	Panajachel	7	Julio	2023-08-07T00:00:00	2024-11-08T20:00:00	4	Temperatura máxima	18.1
47447	7	Sololá	710	Panajachel	8	Panajachel	7	Julio	2023-08-07T00:00:00	2024-11-08T20:00:00	3	Temperatura mínima	17.6
47448	7	Sololá	710	Panajachel	8	Panajachel	7	Julio	2023-08-07T00:00:00	2024-11-08T20:00:00	5	Humedad	96
47449	7	Sololá	710	Panajachel	8	Panajachel	7	Julio	2023-08-07T00:00:00	2024-11-08T20:00:00	6	Velocidad del viento	0
47450	7	Sololá	710	Panajachel	8	Panajachel	7	Julio	2023-08-07T00:00:00	2024-11-08T20:00:00	7	Dirección del viento	0
47451	7	Sololá	710	Panajachel	8	Panajachel	7	Julio	2023-08-07T00:00:00	2024-11-08T20:00:00	1	Precipitación	0.4
47452	7	Sololá	710	Panajachel	8	Panajachel	7	Julio	2023-08-07T00:00:00	2024-11-08T20:00:00	8	Radiación solar	0
47453	7	Sololá	710	Panajachel	8	Panajachel	7	Julio	2023-08-07T00:00:00	2024-11-08T21:00:00	2	Temperatura media	17.7
47454	7	Sololá	710	Panajachel	8	Panajachel	7	Julio	2023-08-07T00:00:00	2024-11-08T21:00:00	4	Temperatura máxima	17.9
47455	7	Sololá	710	Panajachel	8	Panajachel	7	Julio	2023-08-07T00:00:00	2024-11-08T21:00:00	3	Temperatura mínima	17.5
47456	7	Sololá	710	Panajachel	8	Panajachel	7	Julio	2023-08-07T00:00:00	2024-11-08T21:00:00	5	Humedad	94
47457	7	Sololá	710	Panajachel	8	Panajachel	7	Julio	2023-08-07T00:00:00	2024-11-08T21:00:00	6	Velocidad del viento	0
47458	7	Sololá	710	Panajachel	8	Panajachel	7	Julio	2023-08-07T00:00:00	2024-11-08T21:00:00	7	Dirección del viento	0
47459	7	Sololá	710	Panajachel	8	Panajachel	7	Julio	2023-08-07T00:00:00	2024-11-08T21:00:00	1	Precipitación	0
47460	7	Sololá	710	Panajachel	8	Panajachel	7	Julio	2023-08-07T00:00:00	2024-11-08T21:00:00	8	Radiación solar	0
47461	7	Sololá	710	Panajachel	8	Panajachel	7	Julio	2023-08-07T00:00:00	2024-11-08T22:00:00	2	Temperatura media	16.9
47462	7	Sololá	710	Panajachel	8	Panajachel	7	Julio	2023-08-07T00:00:00	2024-11-08T22:00:00	4	Temperatura máxima	17.7
47463	7	Sololá	710	Panajachel	8	Panajachel	7	Julio	2023-08-07T00:00:00	2024-11-08T22:00:00	3	Temperatura mínima	16.8
47464	7	Sololá	710	Panajachel	8	Panajachel	7	Julio	2023-08-07T00:00:00	2024-11-08T22:00:00	5	Humedad	95
47465	7	Sololá	710	Panajachel	8	Panajachel	7	Julio	2023-08-07T00:00:00	2024-11-08T22:00:00	6	Velocidad del viento	0
47466	7	Sololá	710	Panajachel	8	Panajachel	7	Julio	2023-08-07T00:00:00	2024-11-08T22:00:00	7	Dirección del viento	0
47467	7	Sololá	710	Panajachel	8	Panajachel	7	Julio	2023-08-07T00:00:00	2024-11-08T22:00:00	1	Precipitación	0
47468	7	Sololá	710	Panajachel	8	Panajachel	7	Julio	2023-08-07T00:00:00	2024-11-08T22:00:00	8	Radiación solar	0
47469	7	Sololá	710	Panajachel	8	Panajachel	7	Julio	2023-08-07T00:00:00	2024-11-08T23:00:00	2	Temperatura media	17.2
47470	7	Sololá	710	Panajachel	8	Panajachel	7	Julio	2023-08-07T00:00:00	2024-11-08T23:00:00	4	Temperatura máxima	17.3
47471	7	Sololá	710	Panajachel	8	Panajachel	7	Julio	2023-08-07T00:00:00	2024-11-08T23:00:00	3	Temperatura mínima	16.7
47472	7	Sololá	710	Panajachel	8	Panajachel	7	Julio	2023-08-07T00:00:00	2024-11-08T23:00:00	5	Humedad	92
47473	7	Sololá	710	Panajachel	8	Panajachel	7	Julio	2023-08-07T00:00:00	2024-11-08T23:00:00	6	Velocidad del viento	0
47474	7	Sololá	710	Panajachel	8	Panajachel	7	Julio	2023-08-07T00:00:00	2024-11-08T23:00:00	7	Dirección del viento	0
47475	7	Sololá	710	Panajachel	8	Panajachel	7	Julio	2023-08-07T00:00:00	2024-11-08T23:00:00	1	Precipitación	0
47476	7	Sololá	710	Panajachel	8	Panajachel	7	Julio	2023-08-07T00:00:00	2024-11-08T23:00:00	8	Radiación solar	0
47477	7	Sololá	710	Panajachel	8	Panajachel	7	Julio	2023-09-07T00:00:00	2024-11-08T00:00:00	2	Temperatura media	17.2
47478	7	Sololá	710	Panajachel	8	Panajachel	7	Julio	2023-09-07T00:00:00	2024-11-08T00:00:00	4	Temperatura máxima	17.5
47479	7	Sololá	710	Panajachel	8	Panajachel	7	Julio	2023-09-07T00:00:00	2024-11-08T00:00:00	3	Temperatura mínima	17.2
47480	7	Sololá	710	Panajachel	8	Panajachel	7	Julio	2023-09-07T00:00:00	2024-11-08T00:00:00	5	Humedad	92
47481	7	Sololá	710	Panajachel	8	Panajachel	7	Julio	2023-09-07T00:00:00	2024-11-08T00:00:00	6	Velocidad del viento	0
47482	7	Sololá	710	Panajachel	8	Panajachel	7	Julio	2023-09-07T00:00:00	2024-11-08T00:00:00	7	Dirección del viento	0
47483	7	Sololá	710	Panajachel	8	Panajachel	7	Julio	2023-09-07T00:00:00	2024-11-08T00:00:00	1	Precipitación	0
47484	7	Sololá	710	Panajachel	8	Panajachel	7	Julio	2023-09-07T00:00:00	2024-11-08T00:00:00	8	Radiación solar	0
47485	7	Sololá	710	Panajachel	8	Panajachel	7	Julio	2023-09-07T00:00:00	2024-11-08T01:00:00	2	Temperatura media	17.3
47486	7	Sololá	710	Panajachel	8	Panajachel	7	Julio	2023-09-07T00:00:00	2024-11-08T01:00:00	4	Temperatura máxima	17.4
47487	7	Sololá	710	Panajachel	8	Panajachel	7	Julio	2023-09-07T00:00:00	2024-11-08T01:00:00	3	Temperatura mínima	17.2
47488	7	Sololá	710	Panajachel	8	Panajachel	7	Julio	2023-09-07T00:00:00	2024-11-08T01:00:00	5	Humedad	92
47489	7	Sololá	710	Panajachel	8	Panajachel	7	Julio	2023-09-07T00:00:00	2024-11-08T01:00:00	6	Velocidad del viento	0
47490	7	Sololá	710	Panajachel	8	Panajachel	7	Julio	2023-09-07T00:00:00	2024-11-08T01:00:00	7	Dirección del viento	0
47491	7	Sololá	710	Panajachel	8	Panajachel	7	Julio	2023-09-07T00:00:00	2024-11-08T01:00:00	1	Precipitación	0
47492	7	Sololá	710	Panajachel	8	Panajachel	7	Julio	2023-09-07T00:00:00	2024-11-08T01:00:00	8	Radiación solar	0
47493	7	Sololá	710	Panajachel	8	Panajachel	7	Julio	2023-09-07T00:00:00	2024-11-08T02:00:00	2	Temperatura media	17.1
47494	7	Sololá	710	Panajachel	8	Panajachel	7	Julio	2023-09-07T00:00:00	2024-11-08T02:00:00	4	Temperatura máxima	17.4
47495	7	Sololá	710	Panajachel	8	Panajachel	7	Julio	2023-09-07T00:00:00	2024-11-08T02:00:00	3	Temperatura mínima	17.1
47496	7	Sololá	710	Panajachel	8	Panajachel	7	Julio	2023-09-07T00:00:00	2024-11-08T02:00:00	5	Humedad	92
47497	7	Sololá	710	Panajachel	8	Panajachel	7	Julio	2023-09-07T00:00:00	2024-11-08T02:00:00	6	Velocidad del viento	0
47498	7	Sololá	710	Panajachel	8	Panajachel	7	Julio	2023-09-07T00:00:00	2024-11-08T02:00:00	7	Dirección del viento	0
47499	7	Sololá	710	Panajachel	8	Panajachel	7	Julio	2023-09-07T00:00:00	2024-11-08T02:00:00	1	Precipitación	0
47500	7	Sololá	710	Panajachel	8	Panajachel	7	Julio	2023-09-07T00:00:00	2024-11-08T02:00:00	8	Radiación solar	0
47501	7	Sololá	710	Panajachel	8	Panajachel	7	Julio	2023-09-07T00:00:00	2024-11-08T03:00:00	2	Temperatura media	17.3
47502	7	Sololá	710	Panajachel	8	Panajachel	7	Julio	2023-09-07T00:00:00	2024-11-08T03:00:00	4	Temperatura máxima	17.3
47503	7	Sololá	710	Panajachel	8	Panajachel	7	Julio	2023-09-07T00:00:00	2024-11-08T03:00:00	3	Temperatura mínima	17.1
47504	7	Sololá	710	Panajachel	8	Panajachel	7	Julio	2023-09-07T00:00:00	2024-11-08T03:00:00	5	Humedad	93
47505	7	Sololá	710	Panajachel	8	Panajachel	7	Julio	2023-09-07T00:00:00	2024-11-08T03:00:00	6	Velocidad del viento	0
47506	7	Sololá	710	Panajachel	8	Panajachel	7	Julio	2023-09-07T00:00:00	2024-11-08T03:00:00	7	Dirección del viento	0
47507	7	Sololá	710	Panajachel	8	Panajachel	7	Julio	2023-09-07T00:00:00	2024-11-08T03:00:00	1	Precipitación	0
47508	7	Sololá	710	Panajachel	8	Panajachel	7	Julio	2023-09-07T00:00:00	2024-11-08T03:00:00	8	Radiación solar	0
47509	7	Sololá	710	Panajachel	8	Panajachel	7	Julio	2023-09-07T00:00:00	2024-11-08T04:00:00	2	Temperatura media	17.1
47510	7	Sololá	710	Panajachel	8	Panajachel	7	Julio	2023-09-07T00:00:00	2024-11-08T04:00:00	4	Temperatura máxima	17.5
47511	7	Sololá	710	Panajachel	8	Panajachel	7	Julio	2023-09-07T00:00:00	2024-11-08T04:00:00	3	Temperatura mínima	17.1
47512	7	Sololá	710	Panajachel	8	Panajachel	7	Julio	2023-09-07T00:00:00	2024-11-08T04:00:00	5	Humedad	92
47513	7	Sololá	710	Panajachel	8	Panajachel	7	Julio	2023-09-07T00:00:00	2024-11-08T04:00:00	6	Velocidad del viento	0
47514	7	Sololá	710	Panajachel	8	Panajachel	7	Julio	2023-09-07T00:00:00	2024-11-08T04:00:00	7	Dirección del viento	0
47515	7	Sololá	710	Panajachel	8	Panajachel	7	Julio	2023-09-07T00:00:00	2024-11-08T04:00:00	1	Precipitación	0
47516	7	Sololá	710	Panajachel	8	Panajachel	7	Julio	2023-09-07T00:00:00	2024-11-08T04:00:00	8	Radiación solar	0
47517	7	Sololá	710	Panajachel	8	Panajachel	7	Julio	2023-09-07T00:00:00	2024-11-08T05:00:00	2	Temperatura media	17
47518	7	Sololá	710	Panajachel	8	Panajachel	7	Julio	2023-09-07T00:00:00	2024-11-08T05:00:00	4	Temperatura máxima	17.2
47519	7	Sololá	710	Panajachel	8	Panajachel	7	Julio	2023-09-07T00:00:00	2024-11-08T05:00:00	3	Temperatura mínima	17
47520	7	Sololá	710	Panajachel	8	Panajachel	7	Julio	2023-09-07T00:00:00	2024-11-08T05:00:00	5	Humedad	90
47521	7	Sololá	710	Panajachel	8	Panajachel	7	Julio	2023-09-07T00:00:00	2024-11-08T05:00:00	6	Velocidad del viento	0
47522	7	Sololá	710	Panajachel	8	Panajachel	7	Julio	2023-09-07T00:00:00	2024-11-08T05:00:00	7	Dirección del viento	0
47523	7	Sololá	710	Panajachel	8	Panajachel	7	Julio	2023-09-07T00:00:00	2024-11-08T05:00:00	1	Precipitación	0
47524	7	Sololá	710	Panajachel	8	Panajachel	7	Julio	2023-09-07T00:00:00	2024-11-08T05:00:00	8	Radiación solar	0
47525	7	Sololá	710	Panajachel	8	Panajachel	7	Julio	2023-09-07T00:00:00	2024-11-08T06:00:00	2	Temperatura media	16.8
47526	7	Sololá	710	Panajachel	8	Panajachel	7	Julio	2023-09-07T00:00:00	2024-11-08T06:00:00	4	Temperatura máxima	17.2
47527	7	Sololá	710	Panajachel	8	Panajachel	7	Julio	2023-09-07T00:00:00	2024-11-08T06:00:00	3	Temperatura mínima	16.8
47528	7	Sololá	710	Panajachel	8	Panajachel	7	Julio	2023-09-07T00:00:00	2024-11-08T06:00:00	5	Humedad	90
47529	7	Sololá	710	Panajachel	8	Panajachel	7	Julio	2023-09-07T00:00:00	2024-11-08T06:00:00	6	Velocidad del viento	0
47530	7	Sololá	710	Panajachel	8	Panajachel	7	Julio	2023-09-07T00:00:00	2024-11-08T06:00:00	7	Dirección del viento	0
47531	7	Sololá	710	Panajachel	8	Panajachel	7	Julio	2023-09-07T00:00:00	2024-11-08T06:00:00	1	Precipitación	0
47532	7	Sololá	710	Panajachel	8	Panajachel	7	Julio	2023-09-07T00:00:00	2024-11-08T06:00:00	8	Radiación solar	3
47533	7	Sololá	710	Panajachel	8	Panajachel	7	Julio	2023-09-07T00:00:00	2024-11-08T07:00:00	2	Temperatura media	18.3
47534	7	Sololá	710	Panajachel	8	Panajachel	7	Julio	2023-09-07T00:00:00	2024-11-08T07:00:00	4	Temperatura máxima	18.3
47535	7	Sololá	710	Panajachel	8	Panajachel	7	Julio	2023-09-07T00:00:00	2024-11-08T07:00:00	3	Temperatura mínima	16.7
47536	7	Sololá	710	Panajachel	8	Panajachel	7	Julio	2023-09-07T00:00:00	2024-11-08T07:00:00	5	Humedad	85
47537	7	Sololá	710	Panajachel	8	Panajachel	7	Julio	2023-09-07T00:00:00	2024-11-08T07:00:00	6	Velocidad del viento	3.2
47538	7	Sololá	710	Panajachel	8	Panajachel	7	Julio	2023-09-07T00:00:00	2024-11-08T07:00:00	7	Dirección del viento	3.22
47539	7	Sololá	710	Panajachel	8	Panajachel	7	Julio	2023-09-07T00:00:00	2024-11-08T07:00:00	1	Precipitación	0
47540	7	Sololá	710	Panajachel	8	Panajachel	7	Julio	2023-09-07T00:00:00	2024-11-08T07:00:00	8	Radiación solar	93
47541	7	Sololá	710	Panajachel	8	Panajachel	7	Julio	2023-09-07T00:00:00	2024-11-08T08:00:00	2	Temperatura media	20.2
47542	7	Sololá	710	Panajachel	8	Panajachel	7	Julio	2023-09-07T00:00:00	2024-11-08T08:00:00	4	Temperatura máxima	20.2
47543	7	Sololá	710	Panajachel	8	Panajachel	7	Julio	2023-09-07T00:00:00	2024-11-08T08:00:00	3	Temperatura mínima	18.2
47544	7	Sololá	710	Panajachel	8	Panajachel	7	Julio	2023-09-07T00:00:00	2024-11-08T08:00:00	5	Humedad	83
47545	7	Sololá	710	Panajachel	8	Panajachel	7	Julio	2023-09-07T00:00:00	2024-11-08T08:00:00	6	Velocidad del viento	1.6
47546	7	Sololá	710	Panajachel	8	Panajachel	7	Julio	2023-09-07T00:00:00	2024-11-08T08:00:00	7	Dirección del viento	1.61
47547	7	Sololá	710	Panajachel	8	Panajachel	7	Julio	2023-09-07T00:00:00	2024-11-08T08:00:00	1	Precipitación	0
47548	7	Sololá	710	Panajachel	8	Panajachel	7	Julio	2023-09-07T00:00:00	2024-11-08T08:00:00	8	Radiación solar	203
47549	7	Sololá	710	Panajachel	8	Panajachel	7	Julio	2023-09-07T00:00:00	2024-11-08T09:00:00	2	Temperatura media	20.9
47550	7	Sololá	710	Panajachel	8	Panajachel	7	Julio	2023-09-07T00:00:00	2024-11-08T09:00:00	4	Temperatura máxima	21.3
47551	7	Sololá	710	Panajachel	8	Panajachel	7	Julio	2023-09-07T00:00:00	2024-11-08T09:00:00	3	Temperatura mínima	20.2
47552	7	Sololá	710	Panajachel	8	Panajachel	7	Julio	2023-09-07T00:00:00	2024-11-08T09:00:00	5	Humedad	81
47553	7	Sololá	710	Panajachel	8	Panajachel	7	Julio	2023-09-07T00:00:00	2024-11-08T09:00:00	6	Velocidad del viento	0
47554	7	Sololá	710	Panajachel	8	Panajachel	7	Julio	2023-09-07T00:00:00	2024-11-08T09:00:00	7	Dirección del viento	0
47555	7	Sololá	710	Panajachel	8	Panajachel	7	Julio	2023-09-07T00:00:00	2024-11-08T09:00:00	1	Precipitación	0
47556	7	Sololá	710	Panajachel	8	Panajachel	7	Julio	2023-09-07T00:00:00	2024-11-08T09:00:00	8	Radiación solar	286
47557	7	Sololá	710	Panajachel	8	Panajachel	7	Julio	2023-09-07T00:00:00	2024-11-08T10:00:00	2	Temperatura media	22.5
47558	7	Sololá	710	Panajachel	8	Panajachel	7	Julio	2023-09-07T00:00:00	2024-11-08T10:00:00	4	Temperatura máxima	22.5
47559	7	Sololá	710	Panajachel	8	Panajachel	7	Julio	2023-09-07T00:00:00	2024-11-08T10:00:00	3	Temperatura mínima	20.9
47560	7	Sololá	710	Panajachel	8	Panajachel	7	Julio	2023-09-07T00:00:00	2024-11-08T10:00:00	5	Humedad	77
47561	7	Sololá	710	Panajachel	8	Panajachel	7	Julio	2023-09-07T00:00:00	2024-11-08T10:00:00	6	Velocidad del viento	0
47562	7	Sololá	710	Panajachel	8	Panajachel	7	Julio	2023-09-07T00:00:00	2024-11-08T10:00:00	7	Dirección del viento	0
47563	7	Sololá	710	Panajachel	8	Panajachel	7	Julio	2023-09-07T00:00:00	2024-11-08T10:00:00	1	Precipitación	0
47564	7	Sololá	710	Panajachel	8	Panajachel	7	Julio	2023-09-07T00:00:00	2024-11-08T10:00:00	8	Radiación solar	657
47565	7	Sololá	710	Panajachel	8	Panajachel	7	Julio	2023-09-07T00:00:00	2024-11-08T11:00:00	2	Temperatura media	22.4
47566	7	Sololá	710	Panajachel	8	Panajachel	7	Julio	2023-09-07T00:00:00	2024-11-08T11:00:00	4	Temperatura máxima	22.9
47567	7	Sololá	710	Panajachel	8	Panajachel	7	Julio	2023-09-07T00:00:00	2024-11-08T11:00:00	3	Temperatura mínima	22.4
47568	7	Sololá	710	Panajachel	8	Panajachel	7	Julio	2023-09-07T00:00:00	2024-11-08T11:00:00	5	Humedad	78
47569	7	Sololá	710	Panajachel	8	Panajachel	7	Julio	2023-09-07T00:00:00	2024-11-08T11:00:00	6	Velocidad del viento	0
47570	7	Sololá	710	Panajachel	8	Panajachel	7	Julio	2023-09-07T00:00:00	2024-11-08T11:00:00	7	Dirección del viento	0
47571	7	Sololá	710	Panajachel	8	Panajachel	7	Julio	2023-09-07T00:00:00	2024-11-08T11:00:00	1	Precipitación	0
47572	7	Sololá	710	Panajachel	8	Panajachel	7	Julio	2023-09-07T00:00:00	2024-11-08T11:00:00	8	Radiación solar	313
47573	7	Sololá	710	Panajachel	8	Panajachel	7	Julio	2023-09-07T00:00:00	2024-11-08T12:00:00	2	Temperatura media	22.9
47574	7	Sololá	710	Panajachel	8	Panajachel	7	Julio	2023-09-07T00:00:00	2024-11-08T12:00:00	4	Temperatura máxima	22.9
47575	7	Sololá	710	Panajachel	8	Panajachel	7	Julio	2023-09-07T00:00:00	2024-11-08T12:00:00	3	Temperatura mínima	22.2
47576	7	Sololá	710	Panajachel	8	Panajachel	7	Julio	2023-09-07T00:00:00	2024-11-08T12:00:00	5	Humedad	81
47577	7	Sololá	710	Panajachel	8	Panajachel	7	Julio	2023-09-07T00:00:00	2024-11-08T12:00:00	6	Velocidad del viento	1.6
47578	7	Sololá	710	Panajachel	8	Panajachel	7	Julio	2023-09-07T00:00:00	2024-11-08T12:00:00	7	Dirección del viento	1.61
47579	7	Sololá	710	Panajachel	8	Panajachel	7	Julio	2023-09-07T00:00:00	2024-11-08T12:00:00	1	Precipitación	0
47580	7	Sololá	710	Panajachel	8	Panajachel	7	Julio	2023-09-07T00:00:00	2024-11-08T12:00:00	8	Radiación solar	416
47581	7	Sololá	710	Panajachel	8	Panajachel	7	Julio	2023-09-07T00:00:00	2024-11-08T13:00:00	2	Temperatura media	23.6
47582	7	Sololá	710	Panajachel	8	Panajachel	7	Julio	2023-09-07T00:00:00	2024-11-08T13:00:00	4	Temperatura máxima	24.2
47583	7	Sololá	710	Panajachel	8	Panajachel	7	Julio	2023-09-07T00:00:00	2024-11-08T13:00:00	3	Temperatura mínima	22.9
47584	7	Sololá	710	Panajachel	8	Panajachel	7	Julio	2023-09-07T00:00:00	2024-11-08T13:00:00	5	Humedad	75
47585	7	Sololá	710	Panajachel	8	Panajachel	7	Julio	2023-09-07T00:00:00	2024-11-08T13:00:00	6	Velocidad del viento	3.2
47586	7	Sololá	710	Panajachel	8	Panajachel	7	Julio	2023-09-07T00:00:00	2024-11-08T13:00:00	7	Dirección del viento	3.22
47587	7	Sololá	710	Panajachel	8	Panajachel	7	Julio	2023-09-07T00:00:00	2024-11-08T13:00:00	1	Precipitación	0
47588	7	Sololá	710	Panajachel	8	Panajachel	7	Julio	2023-09-07T00:00:00	2024-11-08T13:00:00	8	Radiación solar	829
47589	7	Sololá	710	Panajachel	8	Panajachel	7	Julio	2023-09-07T00:00:00	2024-11-08T14:00:00	2	Temperatura media	22.6
47590	7	Sololá	710	Panajachel	8	Panajachel	7	Julio	2023-09-07T00:00:00	2024-11-08T14:00:00	4	Temperatura máxima	24.1
47591	7	Sololá	710	Panajachel	8	Panajachel	7	Julio	2023-09-07T00:00:00	2024-11-08T14:00:00	3	Temperatura mínima	22.6
47592	7	Sololá	710	Panajachel	8	Panajachel	7	Julio	2023-09-07T00:00:00	2024-11-08T14:00:00	5	Humedad	86
47593	7	Sololá	710	Panajachel	8	Panajachel	7	Julio	2023-09-07T00:00:00	2024-11-08T14:00:00	6	Velocidad del viento	4.8
47594	7	Sololá	710	Panajachel	8	Panajachel	7	Julio	2023-09-07T00:00:00	2024-11-08T14:00:00	7	Dirección del viento	4.83
47595	7	Sololá	710	Panajachel	8	Panajachel	7	Julio	2023-09-07T00:00:00	2024-11-08T14:00:00	1	Precipitación	0
47596	7	Sololá	710	Panajachel	8	Panajachel	7	Julio	2023-09-07T00:00:00	2024-11-08T14:00:00	8	Radiación solar	397
47597	7	Sololá	710	Panajachel	8	Panajachel	7	Julio	2023-09-07T00:00:00	2024-11-08T15:00:00	2	Temperatura media	21.1
47598	7	Sololá	710	Panajachel	8	Panajachel	7	Julio	2023-09-07T00:00:00	2024-11-08T15:00:00	4	Temperatura máxima	23.2
47599	7	Sololá	710	Panajachel	8	Panajachel	7	Julio	2023-09-07T00:00:00	2024-11-08T15:00:00	3	Temperatura mínima	21.1
47600	7	Sololá	710	Panajachel	8	Panajachel	7	Julio	2023-09-07T00:00:00	2024-11-08T15:00:00	5	Humedad	92
47601	7	Sololá	710	Panajachel	8	Panajachel	7	Julio	2023-09-07T00:00:00	2024-11-08T15:00:00	6	Velocidad del viento	3.2
47602	7	Sololá	710	Panajachel	8	Panajachel	7	Julio	2023-09-07T00:00:00	2024-11-08T15:00:00	7	Dirección del viento	3.22
47603	7	Sololá	710	Panajachel	8	Panajachel	7	Julio	2023-09-07T00:00:00	2024-11-08T15:00:00	1	Precipitación	0
47604	7	Sololá	710	Panajachel	8	Panajachel	7	Julio	2023-09-07T00:00:00	2024-11-08T15:00:00	8	Radiación solar	218
47605	7	Sololá	710	Panajachel	8	Panajachel	7	Julio	2023-09-07T00:00:00	2024-11-08T16:00:00	2	Temperatura media	20.3
47606	7	Sololá	710	Panajachel	8	Panajachel	7	Julio	2023-09-07T00:00:00	2024-11-08T16:00:00	4	Temperatura máxima	21.2
47607	7	Sololá	710	Panajachel	8	Panajachel	7	Julio	2023-09-07T00:00:00	2024-11-08T16:00:00	3	Temperatura mínima	20.3
47608	7	Sololá	710	Panajachel	8	Panajachel	7	Julio	2023-09-07T00:00:00	2024-11-08T16:00:00	5	Humedad	93
47609	7	Sololá	710	Panajachel	8	Panajachel	7	Julio	2023-09-07T00:00:00	2024-11-08T16:00:00	6	Velocidad del viento	0
47610	7	Sololá	710	Panajachel	8	Panajachel	7	Julio	2023-09-07T00:00:00	2024-11-08T16:00:00	7	Dirección del viento	0
47611	7	Sololá	710	Panajachel	8	Panajachel	7	Julio	2023-09-07T00:00:00	2024-11-08T16:00:00	1	Precipitación	1
47612	7	Sololá	710	Panajachel	8	Panajachel	7	Julio	2023-09-07T00:00:00	2024-11-08T16:00:00	8	Radiación solar	48
47613	7	Sololá	710	Panajachel	8	Panajachel	7	Julio	2023-09-07T00:00:00	2024-11-08T17:00:00	2	Temperatura media	20.3
47614	7	Sololá	710	Panajachel	8	Panajachel	7	Julio	2023-09-07T00:00:00	2024-11-08T17:00:00	4	Temperatura máxima	20.3
47615	7	Sololá	710	Panajachel	8	Panajachel	7	Julio	2023-09-07T00:00:00	2024-11-08T17:00:00	3	Temperatura mínima	19.9
47616	7	Sololá	710	Panajachel	8	Panajachel	7	Julio	2023-09-07T00:00:00	2024-11-08T17:00:00	5	Humedad	95
47617	7	Sololá	710	Panajachel	8	Panajachel	7	Julio	2023-09-07T00:00:00	2024-11-08T17:00:00	6	Velocidad del viento	0
47618	7	Sololá	710	Panajachel	8	Panajachel	7	Julio	2023-09-07T00:00:00	2024-11-08T17:00:00	7	Dirección del viento	0
47619	7	Sololá	710	Panajachel	8	Panajachel	7	Julio	2023-09-07T00:00:00	2024-11-08T17:00:00	1	Precipitación	1.2
47620	7	Sololá	710	Panajachel	8	Panajachel	7	Julio	2023-09-07T00:00:00	2024-11-08T17:00:00	8	Radiación solar	82
47621	7	Sololá	710	Panajachel	8	Panajachel	7	Julio	2023-09-07T00:00:00	2024-11-08T18:00:00	2	Temperatura media	20.3
47622	7	Sololá	710	Panajachel	8	Panajachel	7	Julio	2023-09-07T00:00:00	2024-11-08T18:00:00	4	Temperatura máxima	20.6
47623	7	Sololá	710	Panajachel	8	Panajachel	7	Julio	2023-09-07T00:00:00	2024-11-08T18:00:00	3	Temperatura mínima	20.2
47624	7	Sololá	710	Panajachel	8	Panajachel	7	Julio	2023-09-07T00:00:00	2024-11-08T18:00:00	5	Humedad	94
47625	7	Sololá	710	Panajachel	8	Panajachel	7	Julio	2023-09-07T00:00:00	2024-11-08T18:00:00	6	Velocidad del viento	0
47626	7	Sololá	710	Panajachel	8	Panajachel	7	Julio	2023-09-07T00:00:00	2024-11-08T18:00:00	7	Dirección del viento	0
47627	7	Sololá	710	Panajachel	8	Panajachel	7	Julio	2023-09-07T00:00:00	2024-11-08T18:00:00	1	Precipitación	0
47628	7	Sololá	710	Panajachel	8	Panajachel	7	Julio	2023-09-07T00:00:00	2024-11-08T18:00:00	8	Radiación solar	72
47629	7	Sololá	710	Panajachel	8	Panajachel	7	Julio	2023-09-07T00:00:00	2024-11-08T19:00:00	2	Temperatura media	19.2
47630	7	Sololá	710	Panajachel	8	Panajachel	7	Julio	2023-09-07T00:00:00	2024-11-08T19:00:00	4	Temperatura máxima	20.3
47631	7	Sololá	710	Panajachel	8	Panajachel	7	Julio	2023-09-07T00:00:00	2024-11-08T19:00:00	3	Temperatura mínima	19.2
47632	7	Sololá	710	Panajachel	8	Panajachel	7	Julio	2023-09-07T00:00:00	2024-11-08T19:00:00	5	Humedad	96
47633	7	Sololá	710	Panajachel	8	Panajachel	7	Julio	2023-09-07T00:00:00	2024-11-08T19:00:00	6	Velocidad del viento	0
47634	7	Sololá	710	Panajachel	8	Panajachel	7	Julio	2023-09-07T00:00:00	2024-11-08T19:00:00	7	Dirección del viento	0
47635	7	Sololá	710	Panajachel	8	Panajachel	7	Julio	2023-09-07T00:00:00	2024-11-08T19:00:00	1	Precipitación	0
47636	7	Sololá	710	Panajachel	8	Panajachel	7	Julio	2023-09-07T00:00:00	2024-11-08T19:00:00	8	Radiación solar	0
47637	7	Sololá	710	Panajachel	8	Panajachel	7	Julio	2023-09-07T00:00:00	2024-11-08T20:00:00	2	Temperatura media	18.2
47638	7	Sololá	710	Panajachel	8	Panajachel	7	Julio	2023-09-07T00:00:00	2024-11-08T20:00:00	4	Temperatura máxima	19.3
47639	7	Sololá	710	Panajachel	8	Panajachel	7	Julio	2023-09-07T00:00:00	2024-11-08T20:00:00	3	Temperatura mínima	18.2
47640	7	Sololá	710	Panajachel	8	Panajachel	7	Julio	2023-09-07T00:00:00	2024-11-08T20:00:00	5	Humedad	94
47641	7	Sololá	710	Panajachel	8	Panajachel	7	Julio	2023-09-07T00:00:00	2024-11-08T20:00:00	6	Velocidad del viento	1.6
47642	7	Sololá	710	Panajachel	8	Panajachel	7	Julio	2023-09-07T00:00:00	2024-11-08T20:00:00	7	Dirección del viento	1.61
47643	7	Sololá	710	Panajachel	8	Panajachel	7	Julio	2023-09-07T00:00:00	2024-11-08T20:00:00	1	Precipitación	0
47644	7	Sololá	710	Panajachel	8	Panajachel	7	Julio	2023-09-07T00:00:00	2024-11-08T20:00:00	8	Radiación solar	0
47645	7	Sololá	710	Panajachel	8	Panajachel	7	Julio	2023-09-07T00:00:00	2024-11-08T21:00:00	2	Temperatura media	17.9
47646	7	Sololá	710	Panajachel	8	Panajachel	7	Julio	2023-09-07T00:00:00	2024-11-08T21:00:00	4	Temperatura máxima	18.3
47647	7	Sololá	710	Panajachel	8	Panajachel	7	Julio	2023-09-07T00:00:00	2024-11-08T21:00:00	3	Temperatura mínima	17.8
47648	7	Sololá	710	Panajachel	8	Panajachel	7	Julio	2023-09-07T00:00:00	2024-11-08T21:00:00	5	Humedad	95
47649	7	Sololá	710	Panajachel	8	Panajachel	7	Julio	2023-09-07T00:00:00	2024-11-08T21:00:00	6	Velocidad del viento	0
47650	7	Sololá	710	Panajachel	8	Panajachel	7	Julio	2023-09-07T00:00:00	2024-11-08T21:00:00	7	Dirección del viento	0
47651	7	Sololá	710	Panajachel	8	Panajachel	7	Julio	2023-09-07T00:00:00	2024-11-08T21:00:00	1	Precipitación	0
47652	7	Sololá	710	Panajachel	8	Panajachel	7	Julio	2023-09-07T00:00:00	2024-11-08T21:00:00	8	Radiación solar	0
47653	7	Sololá	710	Panajachel	8	Panajachel	7	Julio	2023-09-07T00:00:00	2024-11-08T22:00:00	2	Temperatura media	17.8
47654	7	Sololá	710	Panajachel	8	Panajachel	7	Julio	2023-09-07T00:00:00	2024-11-08T22:00:00	4	Temperatura máxima	18.1
47655	7	Sololá	710	Panajachel	8	Panajachel	7	Julio	2023-09-07T00:00:00	2024-11-08T22:00:00	3	Temperatura mínima	17.8
47656	7	Sololá	710	Panajachel	8	Panajachel	7	Julio	2023-09-07T00:00:00	2024-11-08T22:00:00	5	Humedad	95
47657	7	Sololá	710	Panajachel	8	Panajachel	7	Julio	2023-09-07T00:00:00	2024-11-08T22:00:00	6	Velocidad del viento	0
47658	7	Sololá	710	Panajachel	8	Panajachel	7	Julio	2023-09-07T00:00:00	2024-11-08T22:00:00	7	Dirección del viento	0
47659	7	Sololá	710	Panajachel	8	Panajachel	7	Julio	2023-09-07T00:00:00	2024-11-08T22:00:00	1	Precipitación	0
47660	7	Sololá	710	Panajachel	8	Panajachel	7	Julio	2023-09-07T00:00:00	2024-11-08T22:00:00	8	Radiación solar	0
47661	7	Sololá	710	Panajachel	8	Panajachel	7	Julio	2023-09-07T00:00:00	2024-11-08T23:00:00	2	Temperatura media	17.5
47662	7	Sololá	710	Panajachel	8	Panajachel	7	Julio	2023-09-07T00:00:00	2024-11-08T23:00:00	4	Temperatura máxima	17.9
47663	7	Sololá	710	Panajachel	8	Panajachel	7	Julio	2023-09-07T00:00:00	2024-11-08T23:00:00	3	Temperatura mínima	17.5
47664	7	Sololá	710	Panajachel	8	Panajachel	7	Julio	2023-09-07T00:00:00	2024-11-08T23:00:00	5	Humedad	95
47665	7	Sololá	710	Panajachel	8	Panajachel	7	Julio	2023-09-07T00:00:00	2024-11-08T23:00:00	6	Velocidad del viento	0
47666	7	Sololá	710	Panajachel	8	Panajachel	7	Julio	2023-09-07T00:00:00	2024-11-08T23:00:00	7	Dirección del viento	0
47667	7	Sololá	710	Panajachel	8	Panajachel	7	Julio	2023-09-07T00:00:00	2024-11-08T23:00:00	1	Precipitación	0
47668	7	Sololá	710	Panajachel	8	Panajachel	7	Julio	2023-09-07T00:00:00	2024-11-08T23:00:00	8	Radiación solar	0
47669	7	Sololá	710	Panajachel	8	Panajachel	7	Julio	2023-10-07T00:00:00	2024-11-08T00:00:00	2	Temperatura media	17.4
47670	7	Sololá	710	Panajachel	8	Panajachel	7	Julio	2023-10-07T00:00:00	2024-11-08T00:00:00	4	Temperatura máxima	17.5
47671	7	Sololá	710	Panajachel	8	Panajachel	7	Julio	2023-10-07T00:00:00	2024-11-08T00:00:00	3	Temperatura mínima	17.2
47672	7	Sololá	710	Panajachel	8	Panajachel	7	Julio	2023-10-07T00:00:00	2024-11-08T00:00:00	5	Humedad	95
47673	7	Sololá	710	Panajachel	8	Panajachel	7	Julio	2023-10-07T00:00:00	2024-11-08T00:00:00	6	Velocidad del viento	0
47674	7	Sololá	710	Panajachel	8	Panajachel	7	Julio	2023-10-07T00:00:00	2024-11-08T00:00:00	7	Dirección del viento	0
47675	7	Sololá	710	Panajachel	8	Panajachel	7	Julio	2023-10-07T00:00:00	2024-11-08T00:00:00	1	Precipitación	0
47676	7	Sololá	710	Panajachel	8	Panajachel	7	Julio	2023-10-07T00:00:00	2024-11-08T00:00:00	8	Radiación solar	0
47677	7	Sololá	710	Panajachel	8	Panajachel	7	Julio	2023-10-07T00:00:00	2024-11-08T01:00:00	2	Temperatura media	17.2
47678	7	Sololá	710	Panajachel	8	Panajachel	7	Julio	2023-10-07T00:00:00	2024-11-08T01:00:00	4	Temperatura máxima	17.6
47679	7	Sololá	710	Panajachel	8	Panajachel	7	Julio	2023-10-07T00:00:00	2024-11-08T01:00:00	3	Temperatura mínima	17.2
47680	7	Sololá	710	Panajachel	8	Panajachel	7	Julio	2023-10-07T00:00:00	2024-11-08T01:00:00	5	Humedad	95
47681	7	Sololá	710	Panajachel	8	Panajachel	7	Julio	2023-10-07T00:00:00	2024-11-08T01:00:00	6	Velocidad del viento	0
47682	7	Sololá	710	Panajachel	8	Panajachel	7	Julio	2023-10-07T00:00:00	2024-11-08T01:00:00	7	Dirección del viento	0
47683	7	Sololá	710	Panajachel	8	Panajachel	7	Julio	2023-10-07T00:00:00	2024-11-08T01:00:00	1	Precipitación	0
47684	7	Sololá	710	Panajachel	8	Panajachel	7	Julio	2023-10-07T00:00:00	2024-11-08T01:00:00	8	Radiación solar	0
47685	7	Sololá	710	Panajachel	8	Panajachel	7	Julio	2023-10-07T00:00:00	2024-11-08T02:00:00	2	Temperatura media	17.1
47686	7	Sololá	710	Panajachel	8	Panajachel	7	Julio	2023-10-07T00:00:00	2024-11-08T02:00:00	4	Temperatura máxima	17.3
47687	7	Sololá	710	Panajachel	8	Panajachel	7	Julio	2023-10-07T00:00:00	2024-11-08T02:00:00	3	Temperatura mínima	17.1
47688	7	Sololá	710	Panajachel	8	Panajachel	7	Julio	2023-10-07T00:00:00	2024-11-08T02:00:00	5	Humedad	95
47689	7	Sololá	710	Panajachel	8	Panajachel	7	Julio	2023-10-07T00:00:00	2024-11-08T02:00:00	6	Velocidad del viento	0
47690	7	Sololá	710	Panajachel	8	Panajachel	7	Julio	2023-10-07T00:00:00	2024-11-08T02:00:00	7	Dirección del viento	0
47691	7	Sololá	710	Panajachel	8	Panajachel	7	Julio	2023-10-07T00:00:00	2024-11-08T02:00:00	1	Precipitación	0
47692	7	Sololá	710	Panajachel	8	Panajachel	7	Julio	2023-10-07T00:00:00	2024-11-08T02:00:00	8	Radiación solar	0
47693	7	Sololá	710	Panajachel	8	Panajachel	7	Julio	2023-10-07T00:00:00	2024-11-08T03:00:00	2	Temperatura media	16.9
47694	7	Sololá	710	Panajachel	8	Panajachel	7	Julio	2023-10-07T00:00:00	2024-11-08T03:00:00	4	Temperatura máxima	17.1
47695	7	Sololá	710	Panajachel	8	Panajachel	7	Julio	2023-10-07T00:00:00	2024-11-08T03:00:00	3	Temperatura mínima	16.8
47696	7	Sololá	710	Panajachel	8	Panajachel	7	Julio	2023-10-07T00:00:00	2024-11-08T03:00:00	5	Humedad	92
47697	7	Sololá	710	Panajachel	8	Panajachel	7	Julio	2023-10-07T00:00:00	2024-11-08T03:00:00	6	Velocidad del viento	0
47698	7	Sololá	710	Panajachel	8	Panajachel	7	Julio	2023-10-07T00:00:00	2024-11-08T03:00:00	7	Dirección del viento	0
47699	7	Sololá	710	Panajachel	8	Panajachel	7	Julio	2023-10-07T00:00:00	2024-11-08T03:00:00	1	Precipitación	0
47700	7	Sololá	710	Panajachel	8	Panajachel	7	Julio	2023-10-07T00:00:00	2024-11-08T03:00:00	8	Radiación solar	0
47701	7	Sololá	710	Panajachel	8	Panajachel	7	Julio	2023-10-07T00:00:00	2024-11-08T04:00:00	2	Temperatura media	16.8
47702	7	Sololá	710	Panajachel	8	Panajachel	7	Julio	2023-10-07T00:00:00	2024-11-08T04:00:00	4	Temperatura máxima	16.9
47703	7	Sololá	710	Panajachel	8	Panajachel	7	Julio	2023-10-07T00:00:00	2024-11-08T04:00:00	3	Temperatura mínima	16.6
47704	7	Sololá	710	Panajachel	8	Panajachel	7	Julio	2023-10-07T00:00:00	2024-11-08T04:00:00	5	Humedad	90
47705	7	Sololá	710	Panajachel	8	Panajachel	7	Julio	2023-10-07T00:00:00	2024-11-08T04:00:00	6	Velocidad del viento	0
47706	7	Sololá	710	Panajachel	8	Panajachel	7	Julio	2023-10-07T00:00:00	2024-11-08T04:00:00	7	Dirección del viento	0
47707	7	Sololá	710	Panajachel	8	Panajachel	7	Julio	2023-10-07T00:00:00	2024-11-08T04:00:00	1	Precipitación	0
47708	7	Sololá	710	Panajachel	8	Panajachel	7	Julio	2023-10-07T00:00:00	2024-11-08T04:00:00	8	Radiación solar	0
47709	7	Sololá	710	Panajachel	8	Panajachel	7	Julio	2023-10-07T00:00:00	2024-11-08T05:00:00	2	Temperatura media	17.6
47710	7	Sololá	710	Panajachel	8	Panajachel	7	Julio	2023-10-07T00:00:00	2024-11-08T05:00:00	4	Temperatura máxima	17.6
47711	7	Sololá	710	Panajachel	8	Panajachel	7	Julio	2023-10-07T00:00:00	2024-11-08T05:00:00	3	Temperatura mínima	16.8
47712	7	Sololá	710	Panajachel	8	Panajachel	7	Julio	2023-10-07T00:00:00	2024-11-08T05:00:00	5	Humedad	88
47713	7	Sololá	710	Panajachel	8	Panajachel	7	Julio	2023-10-07T00:00:00	2024-11-08T05:00:00	6	Velocidad del viento	0
47714	7	Sololá	710	Panajachel	8	Panajachel	7	Julio	2023-10-07T00:00:00	2024-11-08T05:00:00	7	Dirección del viento	0
47715	7	Sololá	710	Panajachel	8	Panajachel	7	Julio	2023-10-07T00:00:00	2024-11-08T05:00:00	1	Precipitación	0
47716	7	Sololá	710	Panajachel	8	Panajachel	7	Julio	2023-10-07T00:00:00	2024-11-08T05:00:00	8	Radiación solar	0
47717	7	Sololá	710	Panajachel	8	Panajachel	7	Julio	2023-10-07T00:00:00	2024-11-08T06:00:00	2	Temperatura media	19.6
47718	7	Sololá	710	Panajachel	8	Panajachel	7	Julio	2023-10-07T00:00:00	2024-11-08T06:00:00	4	Temperatura máxima	20.2
47719	7	Sololá	710	Panajachel	8	Panajachel	7	Julio	2023-10-07T00:00:00	2024-11-08T06:00:00	3	Temperatura mínima	17.6
47720	7	Sololá	710	Panajachel	8	Panajachel	7	Julio	2023-10-07T00:00:00	2024-11-08T06:00:00	5	Humedad	80
47721	7	Sololá	710	Panajachel	8	Panajachel	7	Julio	2023-10-07T00:00:00	2024-11-08T06:00:00	6	Velocidad del viento	4.8
47722	7	Sololá	710	Panajachel	8	Panajachel	7	Julio	2023-10-07T00:00:00	2024-11-08T06:00:00	7	Dirección del viento	4.83
47723	7	Sololá	710	Panajachel	8	Panajachel	7	Julio	2023-10-07T00:00:00	2024-11-08T06:00:00	1	Precipitación	0
47724	7	Sololá	710	Panajachel	8	Panajachel	7	Julio	2023-10-07T00:00:00	2024-11-08T06:00:00	8	Radiación solar	1
47725	7	Sololá	710	Panajachel	8	Panajachel	7	Julio	2023-10-07T00:00:00	2024-11-08T07:00:00	2	Temperatura media	19.2
47726	7	Sololá	710	Panajachel	8	Panajachel	7	Julio	2023-10-07T00:00:00	2024-11-08T07:00:00	4	Temperatura máxima	19.6
47727	7	Sololá	710	Panajachel	8	Panajachel	7	Julio	2023-10-07T00:00:00	2024-11-08T07:00:00	3	Temperatura mínima	18.6
47728	7	Sololá	710	Panajachel	8	Panajachel	7	Julio	2023-10-07T00:00:00	2024-11-08T07:00:00	5	Humedad	80
47729	7	Sololá	710	Panajachel	8	Panajachel	7	Julio	2023-10-07T00:00:00	2024-11-08T07:00:00	6	Velocidad del viento	0
47730	7	Sololá	710	Panajachel	8	Panajachel	7	Julio	2023-10-07T00:00:00	2024-11-08T07:00:00	7	Dirección del viento	0
47731	7	Sololá	710	Panajachel	8	Panajachel	7	Julio	2023-10-07T00:00:00	2024-11-08T07:00:00	1	Precipitación	0
47732	7	Sololá	710	Panajachel	8	Panajachel	7	Julio	2023-10-07T00:00:00	2024-11-08T07:00:00	8	Radiación solar	40
47733	7	Sololá	710	Panajachel	8	Panajachel	7	Julio	2023-10-07T00:00:00	2024-11-08T08:00:00	2	Temperatura media	22.2
47734	7	Sololá	710	Panajachel	8	Panajachel	7	Julio	2023-10-07T00:00:00	2024-11-08T08:00:00	4	Temperatura máxima	22.3
47735	7	Sololá	710	Panajachel	8	Panajachel	7	Julio	2023-10-07T00:00:00	2024-11-08T08:00:00	3	Temperatura mínima	19.2
47736	7	Sololá	710	Panajachel	8	Panajachel	7	Julio	2023-10-07T00:00:00	2024-11-08T08:00:00	5	Humedad	74
47737	7	Sololá	710	Panajachel	8	Panajachel	7	Julio	2023-10-07T00:00:00	2024-11-08T08:00:00	6	Velocidad del viento	1.6
47738	7	Sololá	710	Panajachel	8	Panajachel	7	Julio	2023-10-07T00:00:00	2024-11-08T08:00:00	7	Dirección del viento	1.61
47739	7	Sololá	710	Panajachel	8	Panajachel	7	Julio	2023-10-07T00:00:00	2024-11-08T08:00:00	1	Precipitación	0
47740	7	Sololá	710	Panajachel	8	Panajachel	7	Julio	2023-10-07T00:00:00	2024-11-08T08:00:00	8	Radiación solar	306
47741	7	Sololá	710	Panajachel	8	Panajachel	7	Julio	2023-10-07T00:00:00	2024-11-08T09:00:00	2	Temperatura media	23.3
47742	7	Sololá	710	Panajachel	8	Panajachel	7	Julio	2023-10-07T00:00:00	2024-11-08T09:00:00	4	Temperatura máxima	23.4
47743	7	Sololá	710	Panajachel	8	Panajachel	7	Julio	2023-10-07T00:00:00	2024-11-08T09:00:00	3	Temperatura mínima	21.8
47744	7	Sololá	710	Panajachel	8	Panajachel	7	Julio	2023-10-07T00:00:00	2024-11-08T09:00:00	5	Humedad	72
47745	7	Sololá	710	Panajachel	8	Panajachel	7	Julio	2023-10-07T00:00:00	2024-11-08T09:00:00	6	Velocidad del viento	1.6
47746	7	Sololá	710	Panajachel	8	Panajachel	7	Julio	2023-10-07T00:00:00	2024-11-08T09:00:00	7	Dirección del viento	1.61
47747	7	Sololá	710	Panajachel	8	Panajachel	7	Julio	2023-10-07T00:00:00	2024-11-08T09:00:00	1	Precipitación	0
47748	7	Sololá	710	Panajachel	8	Panajachel	7	Julio	2023-10-07T00:00:00	2024-11-08T09:00:00	8	Radiación solar	482
47749	7	Sololá	710	Panajachel	8	Panajachel	7	Julio	2023-10-07T00:00:00	2024-11-08T10:00:00	2	Temperatura media	23.2
47750	7	Sololá	710	Panajachel	8	Panajachel	7	Julio	2023-10-07T00:00:00	2024-11-08T10:00:00	4	Temperatura máxima	23.7
47751	7	Sololá	710	Panajachel	8	Panajachel	7	Julio	2023-10-07T00:00:00	2024-11-08T10:00:00	3	Temperatura mínima	23.2
47752	7	Sololá	710	Panajachel	8	Panajachel	7	Julio	2023-10-07T00:00:00	2024-11-08T10:00:00	5	Humedad	72
47753	7	Sololá	710	Panajachel	8	Panajachel	7	Julio	2023-10-07T00:00:00	2024-11-08T10:00:00	6	Velocidad del viento	0
47754	7	Sololá	710	Panajachel	8	Panajachel	7	Julio	2023-10-07T00:00:00	2024-11-08T10:00:00	7	Dirección del viento	0
47755	7	Sololá	710	Panajachel	8	Panajachel	7	Julio	2023-10-07T00:00:00	2024-11-08T10:00:00	1	Precipitación	0
47756	7	Sololá	710	Panajachel	8	Panajachel	7	Julio	2023-10-07T00:00:00	2024-11-08T10:00:00	8	Radiación solar	602
47757	7	Sololá	710	Panajachel	8	Panajachel	7	Julio	2023-10-07T00:00:00	2024-11-08T11:00:00	2	Temperatura media	24.7
47758	7	Sololá	710	Panajachel	8	Panajachel	7	Julio	2023-10-07T00:00:00	2024-11-08T11:00:00	4	Temperatura máxima	24.7
47759	7	Sololá	710	Panajachel	8	Panajachel	7	Julio	2023-10-07T00:00:00	2024-11-08T11:00:00	3	Temperatura mínima	23.1
47760	7	Sololá	710	Panajachel	8	Panajachel	7	Julio	2023-10-07T00:00:00	2024-11-08T11:00:00	5	Humedad	63
47761	7	Sololá	710	Panajachel	8	Panajachel	7	Julio	2023-10-07T00:00:00	2024-11-08T11:00:00	6	Velocidad del viento	0
47762	7	Sololá	710	Panajachel	8	Panajachel	7	Julio	2023-10-07T00:00:00	2024-11-08T11:00:00	7	Dirección del viento	0
47763	7	Sololá	710	Panajachel	8	Panajachel	7	Julio	2023-10-07T00:00:00	2024-11-08T11:00:00	1	Precipitación	0
47764	7	Sololá	710	Panajachel	8	Panajachel	7	Julio	2023-10-07T00:00:00	2024-11-08T11:00:00	8	Radiación solar	402
47765	7	Sololá	710	Panajachel	8	Panajachel	7	Julio	2023-10-07T00:00:00	2024-11-08T12:00:00	2	Temperatura media	24.7
47766	7	Sololá	710	Panajachel	8	Panajachel	7	Julio	2023-10-07T00:00:00	2024-11-08T12:00:00	4	Temperatura máxima	25.1
47767	7	Sololá	710	Panajachel	8	Panajachel	7	Julio	2023-10-07T00:00:00	2024-11-08T12:00:00	3	Temperatura mínima	24.3
47768	7	Sololá	710	Panajachel	8	Panajachel	7	Julio	2023-10-07T00:00:00	2024-11-08T12:00:00	5	Humedad	60
47769	7	Sololá	710	Panajachel	8	Panajachel	7	Julio	2023-10-07T00:00:00	2024-11-08T12:00:00	6	Velocidad del viento	3.2
47770	7	Sololá	710	Panajachel	8	Panajachel	7	Julio	2023-10-07T00:00:00	2024-11-08T12:00:00	7	Dirección del viento	3.22
47771	7	Sololá	710	Panajachel	8	Panajachel	7	Julio	2023-10-07T00:00:00	2024-11-08T12:00:00	1	Precipitación	0
47772	7	Sololá	710	Panajachel	8	Panajachel	7	Julio	2023-10-07T00:00:00	2024-11-08T12:00:00	8	Radiación solar	273
47773	7	Sololá	710	Panajachel	8	Panajachel	7	Julio	2023-10-07T00:00:00	2024-11-08T13:00:00	2	Temperatura media	27
47774	7	Sololá	710	Panajachel	8	Panajachel	7	Julio	2023-10-07T00:00:00	2024-11-08T13:00:00	4	Temperatura máxima	27.1
47775	7	Sololá	710	Panajachel	8	Panajachel	7	Julio	2023-10-07T00:00:00	2024-11-08T13:00:00	3	Temperatura mínima	24.7
47776	7	Sololá	710	Panajachel	8	Panajachel	7	Julio	2023-10-07T00:00:00	2024-11-08T13:00:00	5	Humedad	55
47777	7	Sololá	710	Panajachel	8	Panajachel	7	Julio	2023-10-07T00:00:00	2024-11-08T13:00:00	6	Velocidad del viento	1.6
47778	7	Sololá	710	Panajachel	8	Panajachel	7	Julio	2023-10-07T00:00:00	2024-11-08T13:00:00	7	Dirección del viento	1.61
47779	7	Sololá	710	Panajachel	8	Panajachel	7	Julio	2023-10-07T00:00:00	2024-11-08T13:00:00	1	Precipitación	0
47780	7	Sololá	710	Panajachel	8	Panajachel	7	Julio	2023-10-07T00:00:00	2024-11-08T13:00:00	8	Radiación solar	729
47781	7	Sololá	710	Panajachel	8	Panajachel	7	Julio	2023-10-07T00:00:00	2024-11-08T14:00:00	2	Temperatura media	27.5
47782	7	Sololá	710	Panajachel	8	Panajachel	7	Julio	2023-10-07T00:00:00	2024-11-08T14:00:00	4	Temperatura máxima	27.5
47783	7	Sololá	710	Panajachel	8	Panajachel	7	Julio	2023-10-07T00:00:00	2024-11-08T14:00:00	3	Temperatura mínima	26.9
47784	7	Sololá	710	Panajachel	8	Panajachel	7	Julio	2023-10-07T00:00:00	2024-11-08T14:00:00	5	Humedad	57
47785	7	Sololá	710	Panajachel	8	Panajachel	7	Julio	2023-10-07T00:00:00	2024-11-08T14:00:00	6	Velocidad del viento	3.2
47786	7	Sololá	710	Panajachel	8	Panajachel	7	Julio	2023-10-07T00:00:00	2024-11-08T14:00:00	7	Dirección del viento	3.22
47787	7	Sololá	710	Panajachel	8	Panajachel	7	Julio	2023-10-07T00:00:00	2024-11-08T14:00:00	1	Precipitación	0
47788	7	Sololá	710	Panajachel	8	Panajachel	7	Julio	2023-10-07T00:00:00	2024-11-08T14:00:00	8	Radiación solar	909
47789	7	Sololá	710	Panajachel	8	Panajachel	7	Julio	2023-10-07T00:00:00	2024-11-08T15:00:00	2	Temperatura media	26.2
47790	7	Sololá	710	Panajachel	8	Panajachel	7	Julio	2023-10-07T00:00:00	2024-11-08T15:00:00	4	Temperatura máxima	27.7
47791	7	Sololá	710	Panajachel	8	Panajachel	7	Julio	2023-10-07T00:00:00	2024-11-08T15:00:00	3	Temperatura mínima	25.7
47792	7	Sololá	710	Panajachel	8	Panajachel	7	Julio	2023-10-07T00:00:00	2024-11-08T15:00:00	5	Humedad	77
47793	7	Sololá	710	Panajachel	8	Panajachel	7	Julio	2023-10-07T00:00:00	2024-11-08T15:00:00	6	Velocidad del viento	3.2
47794	7	Sololá	710	Panajachel	8	Panajachel	7	Julio	2023-10-07T00:00:00	2024-11-08T15:00:00	7	Dirección del viento	3.22
47795	7	Sololá	710	Panajachel	8	Panajachel	7	Julio	2023-10-07T00:00:00	2024-11-08T15:00:00	1	Precipitación	0
47796	7	Sololá	710	Panajachel	8	Panajachel	7	Julio	2023-10-07T00:00:00	2024-11-08T15:00:00	8	Radiación solar	804
47797	7	Sololá	710	Panajachel	8	Panajachel	7	Julio	2023-10-07T00:00:00	2024-11-08T16:00:00	2	Temperatura media	22.9
47798	7	Sololá	710	Panajachel	8	Panajachel	7	Julio	2023-10-07T00:00:00	2024-11-08T16:00:00	4	Temperatura máxima	26.2
47799	7	Sololá	710	Panajachel	8	Panajachel	7	Julio	2023-10-07T00:00:00	2024-11-08T16:00:00	3	Temperatura mínima	22.9
47800	7	Sololá	710	Panajachel	8	Panajachel	7	Julio	2023-10-07T00:00:00	2024-11-08T16:00:00	5	Humedad	85
47801	7	Sololá	710	Panajachel	8	Panajachel	7	Julio	2023-10-07T00:00:00	2024-11-08T16:00:00	6	Velocidad del viento	1.6
47802	7	Sololá	710	Panajachel	8	Panajachel	7	Julio	2023-10-07T00:00:00	2024-11-08T16:00:00	7	Dirección del viento	1.61
47803	7	Sololá	710	Panajachel	8	Panajachel	7	Julio	2023-10-07T00:00:00	2024-11-08T16:00:00	1	Precipitación	0
47804	7	Sololá	710	Panajachel	8	Panajachel	7	Julio	2023-10-07T00:00:00	2024-11-08T16:00:00	8	Radiación solar	452
47805	7	Sololá	710	Panajachel	8	Panajachel	7	Julio	2023-10-07T00:00:00	2024-11-08T17:00:00	2	Temperatura media	21.7
47806	7	Sololá	710	Panajachel	8	Panajachel	7	Julio	2023-10-07T00:00:00	2024-11-08T17:00:00	4	Temperatura máxima	22.9
47807	7	Sololá	710	Panajachel	8	Panajachel	7	Julio	2023-10-07T00:00:00	2024-11-08T17:00:00	3	Temperatura mínima	21.7
47808	7	Sololá	710	Panajachel	8	Panajachel	7	Julio	2023-10-07T00:00:00	2024-11-08T17:00:00	5	Humedad	82
47809	7	Sololá	710	Panajachel	8	Panajachel	7	Julio	2023-10-07T00:00:00	2024-11-08T17:00:00	6	Velocidad del viento	1.6
47810	7	Sololá	710	Panajachel	8	Panajachel	7	Julio	2023-10-07T00:00:00	2024-11-08T17:00:00	7	Dirección del viento	1.61
47811	7	Sololá	710	Panajachel	8	Panajachel	7	Julio	2023-10-07T00:00:00	2024-11-08T17:00:00	1	Precipitación	0
47812	7	Sololá	710	Panajachel	8	Panajachel	7	Julio	2023-10-07T00:00:00	2024-11-08T17:00:00	8	Radiación solar	51
47813	7	Sololá	710	Panajachel	8	Panajachel	7	Julio	2023-10-07T00:00:00	2024-11-08T18:00:00	2	Temperatura media	21.8
47814	7	Sololá	710	Panajachel	8	Panajachel	7	Julio	2023-10-07T00:00:00	2024-11-08T18:00:00	4	Temperatura máxima	21.8
47815	7	Sololá	710	Panajachel	8	Panajachel	7	Julio	2023-10-07T00:00:00	2024-11-08T18:00:00	3	Temperatura mínima	21.6
47816	7	Sololá	710	Panajachel	8	Panajachel	7	Julio	2023-10-07T00:00:00	2024-11-08T18:00:00	5	Humedad	82
47817	7	Sololá	710	Panajachel	8	Panajachel	7	Julio	2023-10-07T00:00:00	2024-11-08T18:00:00	6	Velocidad del viento	0
47818	7	Sololá	710	Panajachel	8	Panajachel	7	Julio	2023-10-07T00:00:00	2024-11-08T18:00:00	7	Dirección del viento	0
47819	7	Sololá	710	Panajachel	8	Panajachel	7	Julio	2023-10-07T00:00:00	2024-11-08T18:00:00	1	Precipitación	0
47820	7	Sololá	710	Panajachel	8	Panajachel	7	Julio	2023-10-07T00:00:00	2024-11-08T18:00:00	8	Radiación solar	42
47821	7	Sololá	710	Panajachel	8	Panajachel	7	Julio	2023-10-07T00:00:00	2024-11-08T19:00:00	2	Temperatura media	21.2
47822	7	Sololá	710	Panajachel	8	Panajachel	7	Julio	2023-10-07T00:00:00	2024-11-08T19:00:00	4	Temperatura máxima	21.8
47823	7	Sololá	710	Panajachel	8	Panajachel	7	Julio	2023-10-07T00:00:00	2024-11-08T19:00:00	3	Temperatura mínima	21.1
47824	7	Sololá	710	Panajachel	8	Panajachel	7	Julio	2023-10-07T00:00:00	2024-11-08T19:00:00	5	Humedad	78
47825	7	Sololá	710	Panajachel	8	Panajachel	7	Julio	2023-10-07T00:00:00	2024-11-08T19:00:00	6	Velocidad del viento	0
47826	7	Sololá	710	Panajachel	8	Panajachel	7	Julio	2023-10-07T00:00:00	2024-11-08T19:00:00	7	Dirección del viento	0
47827	7	Sololá	710	Panajachel	8	Panajachel	7	Julio	2023-10-07T00:00:00	2024-11-08T19:00:00	1	Precipitación	0
47828	7	Sololá	710	Panajachel	8	Panajachel	7	Julio	2023-10-07T00:00:00	2024-11-08T19:00:00	8	Radiación solar	0
47829	7	Sololá	710	Panajachel	8	Panajachel	7	Julio	2023-10-07T00:00:00	2024-11-08T20:00:00	2	Temperatura media	19.6
47830	7	Sololá	710	Panajachel	8	Panajachel	7	Julio	2023-10-07T00:00:00	2024-11-08T20:00:00	4	Temperatura máxima	21.5
47831	7	Sololá	710	Panajachel	8	Panajachel	7	Julio	2023-10-07T00:00:00	2024-11-08T20:00:00	3	Temperatura mínima	19.6
47832	7	Sololá	710	Panajachel	8	Panajachel	7	Julio	2023-10-07T00:00:00	2024-11-08T20:00:00	5	Humedad	78
47833	7	Sololá	710	Panajachel	8	Panajachel	7	Julio	2023-10-07T00:00:00	2024-11-08T20:00:00	6	Velocidad del viento	9.7
47834	7	Sololá	710	Panajachel	8	Panajachel	7	Julio	2023-10-07T00:00:00	2024-11-08T20:00:00	7	Dirección del viento	9.66
47835	7	Sololá	710	Panajachel	8	Panajachel	7	Julio	2023-10-07T00:00:00	2024-11-08T20:00:00	1	Precipitación	0.2
47836	7	Sololá	710	Panajachel	8	Panajachel	7	Julio	2023-10-07T00:00:00	2024-11-08T20:00:00	8	Radiación solar	0
47837	7	Sololá	710	Panajachel	8	Panajachel	7	Julio	2023-10-07T00:00:00	2024-11-08T21:00:00	2	Temperatura media	19.1
47838	7	Sololá	710	Panajachel	8	Panajachel	7	Julio	2023-10-07T00:00:00	2024-11-08T21:00:00	4	Temperatura máxima	19.6
47839	7	Sololá	710	Panajachel	8	Panajachel	7	Julio	2023-10-07T00:00:00	2024-11-08T21:00:00	3	Temperatura mínima	18.6
47840	7	Sololá	710	Panajachel	8	Panajachel	7	Julio	2023-10-07T00:00:00	2024-11-08T21:00:00	5	Humedad	86
47841	7	Sololá	710	Panajachel	8	Panajachel	7	Julio	2023-10-07T00:00:00	2024-11-08T21:00:00	6	Velocidad del viento	1.6
47842	7	Sololá	710	Panajachel	8	Panajachel	7	Julio	2023-10-07T00:00:00	2024-11-08T21:00:00	7	Dirección del viento	1.61
47843	7	Sololá	710	Panajachel	8	Panajachel	7	Julio	2023-10-07T00:00:00	2024-11-08T21:00:00	1	Precipitación	0.4
47844	7	Sololá	710	Panajachel	8	Panajachel	7	Julio	2023-10-07T00:00:00	2024-11-08T21:00:00	8	Radiación solar	0
47845	7	Sololá	710	Panajachel	8	Panajachel	7	Julio	2023-10-07T00:00:00	2024-11-08T22:00:00	2	Temperatura media	19.8
47846	7	Sololá	710	Panajachel	8	Panajachel	7	Julio	2023-10-07T00:00:00	2024-11-08T22:00:00	4	Temperatura máxima	19.8
47847	7	Sololá	710	Panajachel	8	Panajachel	7	Julio	2023-10-07T00:00:00	2024-11-08T22:00:00	3	Temperatura mínima	18.3
47848	7	Sololá	710	Panajachel	8	Panajachel	7	Julio	2023-10-07T00:00:00	2024-11-08T22:00:00	5	Humedad	82
47849	7	Sololá	710	Panajachel	8	Panajachel	7	Julio	2023-10-07T00:00:00	2024-11-08T22:00:00	6	Velocidad del viento	0
47850	7	Sololá	710	Panajachel	8	Panajachel	7	Julio	2023-10-07T00:00:00	2024-11-08T22:00:00	7	Dirección del viento	0
47851	7	Sololá	710	Panajachel	8	Panajachel	7	Julio	2023-10-07T00:00:00	2024-11-08T22:00:00	1	Precipitación	0.2
47852	7	Sololá	710	Panajachel	8	Panajachel	7	Julio	2023-10-07T00:00:00	2024-11-08T22:00:00	8	Radiación solar	0
47853	7	Sololá	710	Panajachel	8	Panajachel	7	Julio	2023-10-07T00:00:00	2024-11-08T23:00:00	2	Temperatura media	20.8
47854	7	Sololá	710	Panajachel	8	Panajachel	7	Julio	2023-10-07T00:00:00	2024-11-08T23:00:00	4	Temperatura máxima	20.8
47855	7	Sololá	710	Panajachel	8	Panajachel	7	Julio	2023-10-07T00:00:00	2024-11-08T23:00:00	3	Temperatura mínima	19.6
47856	7	Sololá	710	Panajachel	8	Panajachel	7	Julio	2023-10-07T00:00:00	2024-11-08T23:00:00	5	Humedad	72
47857	7	Sololá	710	Panajachel	8	Panajachel	7	Julio	2023-10-07T00:00:00	2024-11-08T23:00:00	6	Velocidad del viento	0
47858	7	Sololá	710	Panajachel	8	Panajachel	7	Julio	2023-10-07T00:00:00	2024-11-08T23:00:00	7	Dirección del viento	0
47859	7	Sololá	710	Panajachel	8	Panajachel	7	Julio	2023-10-07T00:00:00	2024-11-08T23:00:00	1	Precipitación	0
47860	7	Sololá	710	Panajachel	8	Panajachel	7	Julio	2023-10-07T00:00:00	2024-11-08T23:00:00	8	Radiación solar	0
47861	7	Sololá	710	Panajachel	8	Panajachel	7	Julio	2023-11-07T00:00:00	2024-11-08T00:00:00	2	Temperatura media	19.3
47862	7	Sololá	710	Panajachel	8	Panajachel	7	Julio	2023-11-07T00:00:00	2024-11-08T00:00:00	4	Temperatura máxima	21.2
47863	7	Sololá	710	Panajachel	8	Panajachel	7	Julio	2023-11-07T00:00:00	2024-11-08T00:00:00	3	Temperatura mínima	19.3
47864	7	Sololá	710	Panajachel	8	Panajachel	7	Julio	2023-11-07T00:00:00	2024-11-08T00:00:00	5	Humedad	81
47865	7	Sololá	710	Panajachel	8	Panajachel	7	Julio	2023-11-07T00:00:00	2024-11-08T00:00:00	6	Velocidad del viento	0
47866	7	Sololá	710	Panajachel	8	Panajachel	7	Julio	2023-11-07T00:00:00	2024-11-08T00:00:00	7	Dirección del viento	0
47867	7	Sololá	710	Panajachel	8	Panajachel	7	Julio	2023-11-07T00:00:00	2024-11-08T00:00:00	1	Precipitación	0
47868	7	Sololá	710	Panajachel	8	Panajachel	7	Julio	2023-11-07T00:00:00	2024-11-08T00:00:00	8	Radiación solar	0
47869	7	Sololá	710	Panajachel	8	Panajachel	7	Julio	2023-11-07T00:00:00	2024-11-08T01:00:00	2	Temperatura media	19
47870	7	Sololá	710	Panajachel	8	Panajachel	7	Julio	2023-11-07T00:00:00	2024-11-08T01:00:00	4	Temperatura máxima	19.3
47871	7	Sololá	710	Panajachel	8	Panajachel	7	Julio	2023-11-07T00:00:00	2024-11-08T01:00:00	3	Temperatura mínima	18.7
47872	7	Sololá	710	Panajachel	8	Panajachel	7	Julio	2023-11-07T00:00:00	2024-11-08T01:00:00	5	Humedad	79
47873	7	Sololá	710	Panajachel	8	Panajachel	7	Julio	2023-11-07T00:00:00	2024-11-08T01:00:00	6	Velocidad del viento	0
47874	7	Sololá	710	Panajachel	8	Panajachel	7	Julio	2023-11-07T00:00:00	2024-11-08T01:00:00	7	Dirección del viento	0
47875	7	Sololá	710	Panajachel	8	Panajachel	7	Julio	2023-11-07T00:00:00	2024-11-08T01:00:00	1	Precipitación	0
47876	7	Sololá	710	Panajachel	8	Panajachel	7	Julio	2023-11-07T00:00:00	2024-11-08T01:00:00	8	Radiación solar	0
47877	7	Sololá	710	Panajachel	8	Panajachel	7	Julio	2023-11-07T00:00:00	2024-11-08T02:00:00	2	Temperatura media	21.2
47878	7	Sololá	710	Panajachel	8	Panajachel	7	Julio	2023-11-07T00:00:00	2024-11-08T02:00:00	4	Temperatura máxima	21.2
47879	7	Sololá	710	Panajachel	8	Panajachel	7	Julio	2023-11-07T00:00:00	2024-11-08T02:00:00	3	Temperatura mínima	18.7
47880	7	Sololá	710	Panajachel	8	Panajachel	7	Julio	2023-11-07T00:00:00	2024-11-08T02:00:00	5	Humedad	69
47881	7	Sololá	710	Panajachel	8	Panajachel	7	Julio	2023-11-07T00:00:00	2024-11-08T02:00:00	6	Velocidad del viento	0
47882	7	Sololá	710	Panajachel	8	Panajachel	7	Julio	2023-11-07T00:00:00	2024-11-08T02:00:00	7	Dirección del viento	0
47883	7	Sololá	710	Panajachel	8	Panajachel	7	Julio	2023-11-07T00:00:00	2024-11-08T02:00:00	1	Precipitación	0
47884	7	Sololá	710	Panajachel	8	Panajachel	7	Julio	2023-11-07T00:00:00	2024-11-08T02:00:00	8	Radiación solar	0
47885	7	Sololá	710	Panajachel	8	Panajachel	7	Julio	2023-11-07T00:00:00	2024-11-08T03:00:00	2	Temperatura media	18.2
47886	7	Sololá	710	Panajachel	8	Panajachel	7	Julio	2023-11-07T00:00:00	2024-11-08T03:00:00	4	Temperatura máxima	21.2
47887	7	Sololá	710	Panajachel	8	Panajachel	7	Julio	2023-11-07T00:00:00	2024-11-08T03:00:00	3	Temperatura mínima	18.2
47888	7	Sololá	710	Panajachel	8	Panajachel	7	Julio	2023-11-07T00:00:00	2024-11-08T03:00:00	5	Humedad	81
47889	7	Sololá	710	Panajachel	8	Panajachel	7	Julio	2023-11-07T00:00:00	2024-11-08T03:00:00	6	Velocidad del viento	0
47890	7	Sololá	710	Panajachel	8	Panajachel	7	Julio	2023-11-07T00:00:00	2024-11-08T03:00:00	7	Dirección del viento	0
47891	7	Sololá	710	Panajachel	8	Panajachel	7	Julio	2023-11-07T00:00:00	2024-11-08T03:00:00	1	Precipitación	0
47892	7	Sololá	710	Panajachel	8	Panajachel	7	Julio	2023-11-07T00:00:00	2024-11-08T03:00:00	8	Radiación solar	0
47893	7	Sololá	710	Panajachel	8	Panajachel	7	Julio	2023-11-07T00:00:00	2024-11-08T04:00:00	2	Temperatura media	17.5
47894	7	Sololá	710	Panajachel	8	Panajachel	7	Julio	2023-11-07T00:00:00	2024-11-08T04:00:00	4	Temperatura máxima	18.2
47895	7	Sololá	710	Panajachel	8	Panajachel	7	Julio	2023-11-07T00:00:00	2024-11-08T04:00:00	3	Temperatura mínima	17.5
47896	7	Sololá	710	Panajachel	8	Panajachel	7	Julio	2023-11-07T00:00:00	2024-11-08T04:00:00	5	Humedad	82
47897	7	Sololá	710	Panajachel	8	Panajachel	7	Julio	2023-11-07T00:00:00	2024-11-08T04:00:00	6	Velocidad del viento	0
47898	7	Sololá	710	Panajachel	8	Panajachel	7	Julio	2023-11-07T00:00:00	2024-11-08T04:00:00	7	Dirección del viento	0
47899	7	Sololá	710	Panajachel	8	Panajachel	7	Julio	2023-11-07T00:00:00	2024-11-08T04:00:00	1	Precipitación	0
47900	7	Sololá	710	Panajachel	8	Panajachel	7	Julio	2023-11-07T00:00:00	2024-11-08T04:00:00	8	Radiación solar	0
47901	7	Sololá	710	Panajachel	8	Panajachel	7	Julio	2023-11-07T00:00:00	2024-11-08T05:00:00	2	Temperatura media	17.3
47902	7	Sololá	710	Panajachel	8	Panajachel	7	Julio	2023-11-07T00:00:00	2024-11-08T05:00:00	4	Temperatura máxima	17.6
47903	7	Sololá	710	Panajachel	8	Panajachel	7	Julio	2023-11-07T00:00:00	2024-11-08T05:00:00	3	Temperatura mínima	17.3
47904	7	Sololá	710	Panajachel	8	Panajachel	7	Julio	2023-11-07T00:00:00	2024-11-08T05:00:00	5	Humedad	84
47905	7	Sololá	710	Panajachel	8	Panajachel	7	Julio	2023-11-07T00:00:00	2024-11-08T05:00:00	6	Velocidad del viento	0
47906	7	Sololá	710	Panajachel	8	Panajachel	7	Julio	2023-11-07T00:00:00	2024-11-08T05:00:00	7	Dirección del viento	0
47907	7	Sololá	710	Panajachel	8	Panajachel	7	Julio	2023-11-07T00:00:00	2024-11-08T05:00:00	1	Precipitación	0
47908	7	Sololá	710	Panajachel	8	Panajachel	7	Julio	2023-11-07T00:00:00	2024-11-08T05:00:00	8	Radiación solar	0
47909	7	Sololá	710	Panajachel	8	Panajachel	7	Julio	2023-11-07T00:00:00	2024-11-08T06:00:00	2	Temperatura media	19.4
47910	7	Sololá	710	Panajachel	8	Panajachel	7	Julio	2023-11-07T00:00:00	2024-11-08T06:00:00	4	Temperatura máxima	19.4
47911	7	Sololá	710	Panajachel	8	Panajachel	7	Julio	2023-11-07T00:00:00	2024-11-08T06:00:00	3	Temperatura mínima	17.3
47912	7	Sololá	710	Panajachel	8	Panajachel	7	Julio	2023-11-07T00:00:00	2024-11-08T06:00:00	5	Humedad	78
47913	7	Sololá	710	Panajachel	8	Panajachel	7	Julio	2023-11-07T00:00:00	2024-11-08T06:00:00	6	Velocidad del viento	1.6
47914	7	Sololá	710	Panajachel	8	Panajachel	7	Julio	2023-11-07T00:00:00	2024-11-08T06:00:00	7	Dirección del viento	1.61
47915	7	Sololá	710	Panajachel	8	Panajachel	7	Julio	2023-11-07T00:00:00	2024-11-08T06:00:00	1	Precipitación	0
47916	7	Sololá	710	Panajachel	8	Panajachel	7	Julio	2023-11-07T00:00:00	2024-11-08T06:00:00	8	Radiación solar	1
47917	7	Sololá	710	Panajachel	8	Panajachel	7	Julio	2023-11-07T00:00:00	2024-11-08T07:00:00	2	Temperatura media	20.9
47918	7	Sololá	710	Panajachel	8	Panajachel	7	Julio	2023-11-07T00:00:00	2024-11-08T07:00:00	4	Temperatura máxima	21
47919	7	Sololá	710	Panajachel	8	Panajachel	7	Julio	2023-11-07T00:00:00	2024-11-08T07:00:00	3	Temperatura mínima	19.4
47920	7	Sololá	710	Panajachel	8	Panajachel	7	Julio	2023-11-07T00:00:00	2024-11-08T07:00:00	5	Humedad	73
47921	7	Sololá	710	Panajachel	8	Panajachel	7	Julio	2023-11-07T00:00:00	2024-11-08T07:00:00	6	Velocidad del viento	3.2
47922	7	Sololá	710	Panajachel	8	Panajachel	7	Julio	2023-11-07T00:00:00	2024-11-08T07:00:00	7	Dirección del viento	3.22
47923	7	Sololá	710	Panajachel	8	Panajachel	7	Julio	2023-11-07T00:00:00	2024-11-08T07:00:00	1	Precipitación	0
47924	7	Sololá	710	Panajachel	8	Panajachel	7	Julio	2023-11-07T00:00:00	2024-11-08T07:00:00	8	Radiación solar	60
47925	7	Sololá	710	Panajachel	8	Panajachel	7	Julio	2023-11-07T00:00:00	2024-11-08T08:00:00	2	Temperatura media	21.5
47926	7	Sololá	710	Panajachel	8	Panajachel	7	Julio	2023-11-07T00:00:00	2024-11-08T08:00:00	4	Temperatura máxima	21.6
47927	7	Sololá	710	Panajachel	8	Panajachel	7	Julio	2023-11-07T00:00:00	2024-11-08T08:00:00	3	Temperatura mínima	20.9
47928	7	Sololá	710	Panajachel	8	Panajachel	7	Julio	2023-11-07T00:00:00	2024-11-08T08:00:00	5	Humedad	74
47929	7	Sololá	710	Panajachel	8	Panajachel	7	Julio	2023-11-07T00:00:00	2024-11-08T08:00:00	6	Velocidad del viento	0
47930	7	Sololá	710	Panajachel	8	Panajachel	7	Julio	2023-11-07T00:00:00	2024-11-08T08:00:00	7	Dirección del viento	0
47931	7	Sololá	710	Panajachel	8	Panajachel	7	Julio	2023-11-07T00:00:00	2024-11-08T08:00:00	1	Precipitación	0
47932	7	Sololá	710	Panajachel	8	Panajachel	7	Julio	2023-11-07T00:00:00	2024-11-08T08:00:00	8	Radiación solar	147
47933	7	Sololá	710	Panajachel	8	Panajachel	7	Julio	2023-11-07T00:00:00	2024-11-08T09:00:00	2	Temperatura media	23.8
47934	7	Sololá	710	Panajachel	8	Panajachel	7	Julio	2023-11-07T00:00:00	2024-11-08T09:00:00	4	Temperatura máxima	23.8
47935	7	Sololá	710	Panajachel	8	Panajachel	7	Julio	2023-11-07T00:00:00	2024-11-08T09:00:00	3	Temperatura mínima	21.5
47936	7	Sololá	710	Panajachel	8	Panajachel	7	Julio	2023-11-07T00:00:00	2024-11-08T09:00:00	5	Humedad	70
47937	7	Sololá	710	Panajachel	8	Panajachel	7	Julio	2023-11-07T00:00:00	2024-11-08T09:00:00	6	Velocidad del viento	0
47938	7	Sololá	710	Panajachel	8	Panajachel	7	Julio	2023-11-07T00:00:00	2024-11-08T09:00:00	7	Dirección del viento	0
47939	7	Sololá	710	Panajachel	8	Panajachel	7	Julio	2023-11-07T00:00:00	2024-11-08T09:00:00	1	Precipitación	0
47940	7	Sololá	710	Panajachel	8	Panajachel	7	Julio	2023-11-07T00:00:00	2024-11-08T09:00:00	8	Radiación solar	421
47941	7	Sololá	710	Panajachel	8	Panajachel	7	Julio	2023-11-07T00:00:00	2024-11-08T10:00:00	2	Temperatura media	25.7
47942	7	Sololá	710	Panajachel	8	Panajachel	7	Julio	2023-11-07T00:00:00	2024-11-08T10:00:00	4	Temperatura máxima	25.8
47943	7	Sololá	710	Panajachel	8	Panajachel	7	Julio	2023-11-07T00:00:00	2024-11-08T10:00:00	3	Temperatura mínima	23.8
47944	7	Sololá	710	Panajachel	8	Panajachel	7	Julio	2023-11-07T00:00:00	2024-11-08T10:00:00	5	Humedad	56
47945	7	Sololá	710	Panajachel	8	Panajachel	7	Julio	2023-11-07T00:00:00	2024-11-08T10:00:00	6	Velocidad del viento	3.2
47946	7	Sololá	710	Panajachel	8	Panajachel	7	Julio	2023-11-07T00:00:00	2024-11-08T10:00:00	7	Dirección del viento	3.22
47947	7	Sololá	710	Panajachel	8	Panajachel	7	Julio	2023-11-07T00:00:00	2024-11-08T10:00:00	1	Precipitación	0
47948	7	Sololá	710	Panajachel	8	Panajachel	7	Julio	2023-11-07T00:00:00	2024-11-08T10:00:00	8	Radiación solar	714
47949	7	Sololá	710	Panajachel	8	Panajachel	7	Julio	2023-11-07T00:00:00	2024-11-08T11:00:00	2	Temperatura media	26.1
47950	7	Sololá	710	Panajachel	8	Panajachel	7	Julio	2023-11-07T00:00:00	2024-11-08T11:00:00	4	Temperatura máxima	26.7
47951	7	Sololá	710	Panajachel	8	Panajachel	7	Julio	2023-11-07T00:00:00	2024-11-08T11:00:00	3	Temperatura mínima	25.7
47952	7	Sololá	710	Panajachel	8	Panajachel	7	Julio	2023-11-07T00:00:00	2024-11-08T11:00:00	5	Humedad	59
47953	7	Sololá	710	Panajachel	8	Panajachel	7	Julio	2023-11-07T00:00:00	2024-11-08T11:00:00	6	Velocidad del viento	4.8
47954	7	Sololá	710	Panajachel	8	Panajachel	7	Julio	2023-11-07T00:00:00	2024-11-08T11:00:00	7	Dirección del viento	4.83
47955	7	Sololá	710	Panajachel	8	Panajachel	7	Julio	2023-11-07T00:00:00	2024-11-08T11:00:00	1	Precipitación	0
47956	7	Sololá	710	Panajachel	8	Panajachel	7	Julio	2023-11-07T00:00:00	2024-11-08T11:00:00	8	Radiación solar	583
47957	7	Sololá	710	Panajachel	8	Panajachel	7	Julio	2023-11-07T00:00:00	2024-11-08T12:00:00	2	Temperatura media	27.4
47958	7	Sololá	710	Panajachel	8	Panajachel	7	Julio	2023-11-07T00:00:00	2024-11-08T12:00:00	4	Temperatura máxima	27.7
47959	7	Sololá	710	Panajachel	8	Panajachel	7	Julio	2023-11-07T00:00:00	2024-11-08T12:00:00	3	Temperatura mínima	26.1
47960	7	Sololá	710	Panajachel	8	Panajachel	7	Julio	2023-11-07T00:00:00	2024-11-08T12:00:00	5	Humedad	58
47961	7	Sololá	710	Panajachel	8	Panajachel	7	Julio	2023-11-07T00:00:00	2024-11-08T12:00:00	6	Velocidad del viento	3.2
47962	7	Sololá	710	Panajachel	8	Panajachel	7	Julio	2023-11-07T00:00:00	2024-11-08T12:00:00	7	Dirección del viento	3.22
47963	7	Sololá	710	Panajachel	8	Panajachel	7	Julio	2023-11-07T00:00:00	2024-11-08T12:00:00	1	Precipitación	0
47964	7	Sololá	710	Panajachel	8	Panajachel	7	Julio	2023-11-07T00:00:00	2024-11-08T12:00:00	8	Radiación solar	771
47965	7	Sololá	710	Panajachel	8	Panajachel	7	Julio	2023-11-07T00:00:00	2024-11-08T13:00:00	2	Temperatura media	26.7
47966	7	Sololá	710	Panajachel	8	Panajachel	7	Julio	2023-11-07T00:00:00	2024-11-08T13:00:00	4	Temperatura máxima	27.8
47967	7	Sololá	710	Panajachel	8	Panajachel	7	Julio	2023-11-07T00:00:00	2024-11-08T13:00:00	3	Temperatura mínima	26.7
47968	7	Sololá	710	Panajachel	8	Panajachel	7	Julio	2023-11-07T00:00:00	2024-11-08T13:00:00	5	Humedad	56
47969	7	Sololá	710	Panajachel	8	Panajachel	7	Julio	2023-11-07T00:00:00	2024-11-08T13:00:00	6	Velocidad del viento	0
47970	7	Sololá	710	Panajachel	8	Panajachel	7	Julio	2023-11-07T00:00:00	2024-11-08T13:00:00	7	Dirección del viento	0
47971	7	Sololá	710	Panajachel	8	Panajachel	7	Julio	2023-11-07T00:00:00	2024-11-08T13:00:00	1	Precipitación	0
47972	7	Sololá	710	Panajachel	8	Panajachel	7	Julio	2023-11-07T00:00:00	2024-11-08T13:00:00	8	Radiación solar	370
47973	7	Sololá	710	Panajachel	8	Panajachel	7	Julio	2023-11-07T00:00:00	2024-11-08T14:00:00	2	Temperatura media	27.4
47974	7	Sololá	710	Panajachel	8	Panajachel	7	Julio	2023-11-07T00:00:00	2024-11-08T14:00:00	4	Temperatura máxima	27.5
47975	7	Sololá	710	Panajachel	8	Panajachel	7	Julio	2023-11-07T00:00:00	2024-11-08T14:00:00	3	Temperatura mínima	26.6
47976	7	Sololá	710	Panajachel	8	Panajachel	7	Julio	2023-11-07T00:00:00	2024-11-08T14:00:00	5	Humedad	52
47977	7	Sololá	710	Panajachel	8	Panajachel	7	Julio	2023-11-07T00:00:00	2024-11-08T14:00:00	6	Velocidad del viento	1.6
47978	7	Sololá	710	Panajachel	8	Panajachel	7	Julio	2023-11-07T00:00:00	2024-11-08T14:00:00	7	Dirección del viento	1.61
47979	7	Sololá	710	Panajachel	8	Panajachel	7	Julio	2023-11-07T00:00:00	2024-11-08T14:00:00	1	Precipitación	0
47980	7	Sololá	710	Panajachel	8	Panajachel	7	Julio	2023-11-07T00:00:00	2024-11-08T14:00:00	8	Radiación solar	368
47981	7	Sololá	710	Panajachel	8	Panajachel	7	Julio	2023-11-07T00:00:00	2024-11-08T15:00:00	2	Temperatura media	27.2
47982	7	Sololá	710	Panajachel	8	Panajachel	7	Julio	2023-11-07T00:00:00	2024-11-08T15:00:00	4	Temperatura máxima	28.7
47983	7	Sololá	710	Panajachel	8	Panajachel	7	Julio	2023-11-07T00:00:00	2024-11-08T15:00:00	3	Temperatura mínima	27.1
47984	7	Sololá	710	Panajachel	8	Panajachel	7	Julio	2023-11-07T00:00:00	2024-11-08T15:00:00	5	Humedad	51
47985	7	Sololá	710	Panajachel	8	Panajachel	7	Julio	2023-11-07T00:00:00	2024-11-08T15:00:00	6	Velocidad del viento	4.8
47986	7	Sololá	710	Panajachel	8	Panajachel	7	Julio	2023-11-07T00:00:00	2024-11-08T15:00:00	7	Dirección del viento	4.83
47987	7	Sololá	710	Panajachel	8	Panajachel	7	Julio	2023-11-07T00:00:00	2024-11-08T15:00:00	1	Precipitación	0
47988	7	Sololá	710	Panajachel	8	Panajachel	7	Julio	2023-11-07T00:00:00	2024-11-08T15:00:00	8	Radiación solar	738
47989	7	Sololá	710	Panajachel	8	Panajachel	7	Julio	2023-11-07T00:00:00	2024-11-08T16:00:00	2	Temperatura media	27.8
47990	7	Sololá	710	Panajachel	8	Panajachel	7	Julio	2023-11-07T00:00:00	2024-11-08T16:00:00	4	Temperatura máxima	28.4
47991	7	Sololá	710	Panajachel	8	Panajachel	7	Julio	2023-11-07T00:00:00	2024-11-08T16:00:00	3	Temperatura mínima	27.2
47992	7	Sololá	710	Panajachel	8	Panajachel	7	Julio	2023-11-07T00:00:00	2024-11-08T16:00:00	5	Humedad	54
47993	7	Sololá	710	Panajachel	8	Panajachel	7	Julio	2023-11-07T00:00:00	2024-11-08T16:00:00	6	Velocidad del viento	6.4
47994	7	Sololá	710	Panajachel	8	Panajachel	7	Julio	2023-11-07T00:00:00	2024-11-08T16:00:00	7	Dirección del viento	6.44
47995	7	Sololá	710	Panajachel	8	Panajachel	7	Julio	2023-11-07T00:00:00	2024-11-08T16:00:00	1	Precipitación	0
47996	7	Sololá	710	Panajachel	8	Panajachel	7	Julio	2023-11-07T00:00:00	2024-11-08T16:00:00	8	Radiación solar	526
47997	7	Sololá	710	Panajachel	8	Panajachel	7	Julio	2023-11-07T00:00:00	2024-11-08T17:00:00	2	Temperatura media	25.9
47998	7	Sololá	710	Panajachel	8	Panajachel	7	Julio	2023-11-07T00:00:00	2024-11-08T17:00:00	4	Temperatura máxima	27.9
47999	7	Sololá	710	Panajachel	8	Panajachel	7	Julio	2023-11-07T00:00:00	2024-11-08T17:00:00	3	Temperatura mínima	25.9
48000	7	Sololá	710	Panajachel	8	Panajachel	7	Julio	2023-11-07T00:00:00	2024-11-08T17:00:00	5	Humedad	59
48001	7	Sololá	710	Panajachel	8	Panajachel	7	Julio	2023-11-07T00:00:00	2024-11-08T17:00:00	6	Velocidad del viento	9.7
48002	7	Sololá	710	Panajachel	8	Panajachel	7	Julio	2023-11-07T00:00:00	2024-11-08T17:00:00	7	Dirección del viento	9.66
48003	7	Sololá	710	Panajachel	8	Panajachel	7	Julio	2023-11-07T00:00:00	2024-11-08T17:00:00	1	Precipitación	0
48004	7	Sololá	710	Panajachel	8	Panajachel	7	Julio	2023-11-07T00:00:00	2024-11-08T17:00:00	8	Radiación solar	158
48005	7	Sololá	710	Panajachel	8	Panajachel	7	Julio	2023-11-07T00:00:00	2024-11-08T18:00:00	2	Temperatura media	24.4
48006	7	Sololá	710	Panajachel	8	Panajachel	7	Julio	2023-11-07T00:00:00	2024-11-08T18:00:00	4	Temperatura máxima	25.9
48007	7	Sololá	710	Panajachel	8	Panajachel	7	Julio	2023-11-07T00:00:00	2024-11-08T18:00:00	3	Temperatura mínima	24.4
48008	7	Sololá	710	Panajachel	8	Panajachel	7	Julio	2023-11-07T00:00:00	2024-11-08T18:00:00	5	Humedad	62
48009	7	Sololá	710	Panajachel	8	Panajachel	7	Julio	2023-11-07T00:00:00	2024-11-08T18:00:00	6	Velocidad del viento	4.8
48010	7	Sololá	710	Panajachel	8	Panajachel	7	Julio	2023-11-07T00:00:00	2024-11-08T18:00:00	7	Dirección del viento	4.83
48011	7	Sololá	710	Panajachel	8	Panajachel	7	Julio	2023-11-07T00:00:00	2024-11-08T18:00:00	1	Precipitación	0
48012	7	Sololá	710	Panajachel	8	Panajachel	7	Julio	2023-11-07T00:00:00	2024-11-08T18:00:00	8	Radiación solar	67
48013	7	Sololá	710	Panajachel	8	Panajachel	7	Julio	2023-11-07T00:00:00	2024-11-08T19:00:00	2	Temperatura media	23.5
48014	7	Sololá	710	Panajachel	8	Panajachel	7	Julio	2023-11-07T00:00:00	2024-11-08T19:00:00	4	Temperatura máxima	24.4
48015	7	Sololá	710	Panajachel	8	Panajachel	7	Julio	2023-11-07T00:00:00	2024-11-08T19:00:00	3	Temperatura mínima	23.5
48016	7	Sololá	710	Panajachel	8	Panajachel	7	Julio	2023-11-07T00:00:00	2024-11-08T19:00:00	5	Humedad	65
48017	7	Sololá	710	Panajachel	8	Panajachel	7	Julio	2023-11-07T00:00:00	2024-11-08T19:00:00	6	Velocidad del viento	0
48018	7	Sololá	710	Panajachel	8	Panajachel	7	Julio	2023-11-07T00:00:00	2024-11-08T19:00:00	7	Dirección del viento	0
48019	7	Sololá	710	Panajachel	8	Panajachel	7	Julio	2023-11-07T00:00:00	2024-11-08T19:00:00	1	Precipitación	0
48020	7	Sololá	710	Panajachel	8	Panajachel	7	Julio	2023-11-07T00:00:00	2024-11-08T19:00:00	8	Radiación solar	0
48021	7	Sololá	710	Panajachel	8	Panajachel	7	Julio	2023-11-07T00:00:00	2024-11-08T20:00:00	2	Temperatura media	23.1
48022	7	Sololá	710	Panajachel	8	Panajachel	7	Julio	2023-11-07T00:00:00	2024-11-08T20:00:00	4	Temperatura máxima	23.6
48023	7	Sololá	710	Panajachel	8	Panajachel	7	Julio	2023-11-07T00:00:00	2024-11-08T20:00:00	3	Temperatura mínima	22.9
48024	7	Sololá	710	Panajachel	8	Panajachel	7	Julio	2023-11-07T00:00:00	2024-11-08T20:00:00	5	Humedad	67
48025	7	Sololá	710	Panajachel	8	Panajachel	7	Julio	2023-11-07T00:00:00	2024-11-08T20:00:00	6	Velocidad del viento	3.2
48026	7	Sololá	710	Panajachel	8	Panajachel	7	Julio	2023-11-07T00:00:00	2024-11-08T20:00:00	7	Dirección del viento	3.22
48027	7	Sololá	710	Panajachel	8	Panajachel	7	Julio	2023-11-07T00:00:00	2024-11-08T20:00:00	1	Precipitación	0
48028	7	Sololá	710	Panajachel	8	Panajachel	7	Julio	2023-11-07T00:00:00	2024-11-08T20:00:00	8	Radiación solar	0
48029	7	Sololá	710	Panajachel	8	Panajachel	7	Julio	2023-11-07T00:00:00	2024-11-08T21:00:00	2	Temperatura media	22.2
48030	7	Sololá	710	Panajachel	8	Panajachel	7	Julio	2023-11-07T00:00:00	2024-11-08T21:00:00	4	Temperatura máxima	23.1
48031	7	Sololá	710	Panajachel	8	Panajachel	7	Julio	2023-11-07T00:00:00	2024-11-08T21:00:00	3	Temperatura mínima	21.7
48032	7	Sololá	710	Panajachel	8	Panajachel	7	Julio	2023-11-07T00:00:00	2024-11-08T21:00:00	5	Humedad	68
48033	7	Sololá	710	Panajachel	8	Panajachel	7	Julio	2023-11-07T00:00:00	2024-11-08T21:00:00	6	Velocidad del viento	1.6
48034	7	Sololá	710	Panajachel	8	Panajachel	7	Julio	2023-11-07T00:00:00	2024-11-08T21:00:00	7	Dirección del viento	1.61
48035	7	Sololá	710	Panajachel	8	Panajachel	7	Julio	2023-11-07T00:00:00	2024-11-08T21:00:00	1	Precipitación	0
48036	7	Sololá	710	Panajachel	8	Panajachel	7	Julio	2023-11-07T00:00:00	2024-11-08T21:00:00	8	Radiación solar	0
48037	7	Sololá	710	Panajachel	8	Panajachel	7	Julio	2023-11-07T00:00:00	2024-11-08T22:00:00	2	Temperatura media	22.5
48038	7	Sololá	710	Panajachel	8	Panajachel	7	Julio	2023-11-07T00:00:00	2024-11-08T22:00:00	4	Temperatura máxima	22.6
48039	7	Sololá	710	Panajachel	8	Panajachel	7	Julio	2023-11-07T00:00:00	2024-11-08T22:00:00	3	Temperatura mínima	21.6
48040	7	Sololá	710	Panajachel	8	Panajachel	7	Julio	2023-11-07T00:00:00	2024-11-08T22:00:00	5	Humedad	67
48041	7	Sololá	710	Panajachel	8	Panajachel	7	Julio	2023-11-07T00:00:00	2024-11-08T22:00:00	6	Velocidad del viento	6.4
48042	7	Sololá	710	Panajachel	8	Panajachel	7	Julio	2023-11-07T00:00:00	2024-11-08T22:00:00	7	Dirección del viento	6.44
48043	7	Sololá	710	Panajachel	8	Panajachel	7	Julio	2023-11-07T00:00:00	2024-11-08T22:00:00	1	Precipitación	0
48044	7	Sololá	710	Panajachel	8	Panajachel	7	Julio	2023-11-07T00:00:00	2024-11-08T22:00:00	8	Radiación solar	0
48045	7	Sololá	710	Panajachel	8	Panajachel	7	Julio	2023-11-07T00:00:00	2024-11-08T23:00:00	2	Temperatura media	22.5
48046	7	Sololá	710	Panajachel	8	Panajachel	7	Julio	2023-11-07T00:00:00	2024-11-08T23:00:00	4	Temperatura máxima	22.7
48047	7	Sololá	710	Panajachel	8	Panajachel	7	Julio	2023-11-07T00:00:00	2024-11-08T23:00:00	3	Temperatura mínima	22.4
48048	7	Sololá	710	Panajachel	8	Panajachel	7	Julio	2023-11-07T00:00:00	2024-11-08T23:00:00	5	Humedad	68
48049	7	Sololá	710	Panajachel	8	Panajachel	7	Julio	2023-11-07T00:00:00	2024-11-08T23:00:00	6	Velocidad del viento	14.5
48050	7	Sololá	710	Panajachel	8	Panajachel	7	Julio	2023-11-07T00:00:00	2024-11-08T23:00:00	7	Dirección del viento	14.48
48051	7	Sololá	710	Panajachel	8	Panajachel	7	Julio	2023-11-07T00:00:00	2024-11-08T23:00:00	1	Precipitación	0
48052	7	Sololá	710	Panajachel	8	Panajachel	7	Julio	2023-11-07T00:00:00	2024-11-08T23:00:00	8	Radiación solar	0
48053	7	Sololá	710	Panajachel	8	Panajachel	7	Julio	2023-12-07T00:00:00	2024-11-08T00:00:00	2	Temperatura media	21.6
48054	7	Sololá	710	Panajachel	8	Panajachel	7	Julio	2023-12-07T00:00:00	2024-11-08T00:00:00	4	Temperatura máxima	22.5
48055	7	Sololá	710	Panajachel	8	Panajachel	7	Julio	2023-12-07T00:00:00	2024-11-08T00:00:00	3	Temperatura mínima	21.6
48056	7	Sololá	710	Panajachel	8	Panajachel	7	Julio	2023-12-07T00:00:00	2024-11-08T00:00:00	5	Humedad	72
48057	7	Sololá	710	Panajachel	8	Panajachel	7	Julio	2023-12-07T00:00:00	2024-11-08T00:00:00	6	Velocidad del viento	4.8
48058	7	Sololá	710	Panajachel	8	Panajachel	7	Julio	2023-12-07T00:00:00	2024-11-08T00:00:00	7	Dirección del viento	4.83
48059	7	Sololá	710	Panajachel	8	Panajachel	7	Julio	2023-12-07T00:00:00	2024-11-08T00:00:00	1	Precipitación	0
48060	7	Sololá	710	Panajachel	8	Panajachel	7	Julio	2023-12-07T00:00:00	2024-11-08T00:00:00	8	Radiación solar	0
48061	7	Sololá	710	Panajachel	8	Panajachel	7	Julio	2023-12-07T00:00:00	2024-11-08T01:00:00	2	Temperatura media	20.9
48062	7	Sololá	710	Panajachel	8	Panajachel	7	Julio	2023-12-07T00:00:00	2024-11-08T01:00:00	4	Temperatura máxima	21.6
48063	7	Sololá	710	Panajachel	8	Panajachel	7	Julio	2023-12-07T00:00:00	2024-11-08T01:00:00	3	Temperatura mínima	20.9
48064	7	Sololá	710	Panajachel	8	Panajachel	7	Julio	2023-12-07T00:00:00	2024-11-08T01:00:00	5	Humedad	74
48065	7	Sololá	710	Panajachel	8	Panajachel	7	Julio	2023-12-07T00:00:00	2024-11-08T01:00:00	6	Velocidad del viento	3.2
48066	7	Sololá	710	Panajachel	8	Panajachel	7	Julio	2023-12-07T00:00:00	2024-11-08T01:00:00	7	Dirección del viento	3.22
48067	7	Sololá	710	Panajachel	8	Panajachel	7	Julio	2023-12-07T00:00:00	2024-11-08T01:00:00	1	Precipitación	0
48068	7	Sololá	710	Panajachel	8	Panajachel	7	Julio	2023-12-07T00:00:00	2024-11-08T01:00:00	8	Radiación solar	0
48069	7	Sololá	710	Panajachel	8	Panajachel	7	Julio	2023-12-07T00:00:00	2024-11-08T02:00:00	2	Temperatura media	20.3
48070	7	Sololá	710	Panajachel	8	Panajachel	7	Julio	2023-12-07T00:00:00	2024-11-08T02:00:00	4	Temperatura máxima	21.2
48071	7	Sololá	710	Panajachel	8	Panajachel	7	Julio	2023-12-07T00:00:00	2024-11-08T02:00:00	3	Temperatura mínima	19.7
48072	7	Sololá	710	Panajachel	8	Panajachel	7	Julio	2023-12-07T00:00:00	2024-11-08T02:00:00	5	Humedad	75
48073	7	Sololá	710	Panajachel	8	Panajachel	7	Julio	2023-12-07T00:00:00	2024-11-08T02:00:00	6	Velocidad del viento	3.2
48074	7	Sololá	710	Panajachel	8	Panajachel	7	Julio	2023-12-07T00:00:00	2024-11-08T02:00:00	7	Dirección del viento	3.22
48075	7	Sololá	710	Panajachel	8	Panajachel	7	Julio	2023-12-07T00:00:00	2024-11-08T02:00:00	1	Precipitación	0
48076	7	Sololá	710	Panajachel	8	Panajachel	7	Julio	2023-12-07T00:00:00	2024-11-08T02:00:00	8	Radiación solar	0
48077	7	Sololá	710	Panajachel	8	Panajachel	7	Julio	2023-12-07T00:00:00	2024-11-08T03:00:00	2	Temperatura media	18.5
48078	7	Sololá	710	Panajachel	8	Panajachel	7	Julio	2023-12-07T00:00:00	2024-11-08T03:00:00	4	Temperatura máxima	20.3
48079	7	Sololá	710	Panajachel	8	Panajachel	7	Julio	2023-12-07T00:00:00	2024-11-08T03:00:00	3	Temperatura mínima	18.5
48080	7	Sololá	710	Panajachel	8	Panajachel	7	Julio	2023-12-07T00:00:00	2024-11-08T03:00:00	5	Humedad	82
48081	7	Sololá	710	Panajachel	8	Panajachel	7	Julio	2023-12-07T00:00:00	2024-11-08T03:00:00	6	Velocidad del viento	1.6
48082	7	Sololá	710	Panajachel	8	Panajachel	7	Julio	2023-12-07T00:00:00	2024-11-08T03:00:00	7	Dirección del viento	1.61
48083	7	Sololá	710	Panajachel	8	Panajachel	7	Julio	2023-12-07T00:00:00	2024-11-08T03:00:00	1	Precipitación	0
48084	7	Sololá	710	Panajachel	8	Panajachel	7	Julio	2023-12-07T00:00:00	2024-11-08T03:00:00	8	Radiación solar	0
48085	7	Sololá	710	Panajachel	8	Panajachel	7	Julio	2023-12-07T00:00:00	2024-11-08T04:00:00	2	Temperatura media	19.3
48086	7	Sololá	710	Panajachel	8	Panajachel	7	Julio	2023-12-07T00:00:00	2024-11-08T04:00:00	4	Temperatura máxima	19.3
48087	7	Sololá	710	Panajachel	8	Panajachel	7	Julio	2023-12-07T00:00:00	2024-11-08T04:00:00	3	Temperatura mínima	18.2
48088	7	Sololá	710	Panajachel	8	Panajachel	7	Julio	2023-12-07T00:00:00	2024-11-08T04:00:00	5	Humedad	79
48089	7	Sololá	710	Panajachel	8	Panajachel	7	Julio	2023-12-07T00:00:00	2024-11-08T04:00:00	6	Velocidad del viento	0
48090	7	Sololá	710	Panajachel	8	Panajachel	7	Julio	2023-12-07T00:00:00	2024-11-08T04:00:00	7	Dirección del viento	0
48091	7	Sololá	710	Panajachel	8	Panajachel	7	Julio	2023-12-07T00:00:00	2024-11-08T04:00:00	1	Precipitación	0
48092	7	Sololá	710	Panajachel	8	Panajachel	7	Julio	2023-12-07T00:00:00	2024-11-08T04:00:00	8	Radiación solar	0
48093	7	Sololá	710	Panajachel	8	Panajachel	7	Julio	2023-12-07T00:00:00	2024-11-08T05:00:00	2	Temperatura media	18.9
48094	7	Sololá	710	Panajachel	8	Panajachel	7	Julio	2023-12-07T00:00:00	2024-11-08T05:00:00	4	Temperatura máxima	19.3
48095	7	Sololá	710	Panajachel	8	Panajachel	7	Julio	2023-12-07T00:00:00	2024-11-08T05:00:00	3	Temperatura mínima	18.8
48096	7	Sololá	710	Panajachel	8	Panajachel	7	Julio	2023-12-07T00:00:00	2024-11-08T05:00:00	5	Humedad	81
48097	7	Sololá	710	Panajachel	8	Panajachel	7	Julio	2023-12-07T00:00:00	2024-11-08T05:00:00	6	Velocidad del viento	0
48098	7	Sololá	710	Panajachel	8	Panajachel	7	Julio	2023-12-07T00:00:00	2024-11-08T05:00:00	7	Dirección del viento	0
48099	7	Sololá	710	Panajachel	8	Panajachel	7	Julio	2023-12-07T00:00:00	2024-11-08T05:00:00	1	Precipitación	0
48100	7	Sololá	710	Panajachel	8	Panajachel	7	Julio	2023-12-07T00:00:00	2024-11-08T05:00:00	8	Radiación solar	0
48101	7	Sololá	710	Panajachel	8	Panajachel	7	Julio	2023-12-07T00:00:00	2024-11-08T06:00:00	2	Temperatura media	20.6
48102	7	Sololá	710	Panajachel	8	Panajachel	7	Julio	2023-12-07T00:00:00	2024-11-08T06:00:00	4	Temperatura máxima	20.6
48103	7	Sololá	710	Panajachel	8	Panajachel	7	Julio	2023-12-07T00:00:00	2024-11-08T06:00:00	3	Temperatura mínima	18.2
48104	7	Sololá	710	Panajachel	8	Panajachel	7	Julio	2023-12-07T00:00:00	2024-11-08T06:00:00	5	Humedad	74
48105	7	Sololá	710	Panajachel	8	Panajachel	7	Julio	2023-12-07T00:00:00	2024-11-08T06:00:00	6	Velocidad del viento	4.8
48106	7	Sololá	710	Panajachel	8	Panajachel	7	Julio	2023-12-07T00:00:00	2024-11-08T06:00:00	7	Dirección del viento	4.83
48107	7	Sololá	710	Panajachel	8	Panajachel	7	Julio	2023-12-07T00:00:00	2024-11-08T06:00:00	1	Precipitación	0
48108	7	Sololá	710	Panajachel	8	Panajachel	7	Julio	2023-12-07T00:00:00	2024-11-08T06:00:00	8	Radiación solar	2
48109	7	Sololá	710	Panajachel	8	Panajachel	7	Julio	2023-12-07T00:00:00	2024-11-08T07:00:00	2	Temperatura media	21.3
48110	7	Sololá	710	Panajachel	8	Panajachel	7	Julio	2023-12-07T00:00:00	2024-11-08T07:00:00	4	Temperatura máxima	21.3
48111	7	Sololá	710	Panajachel	8	Panajachel	7	Julio	2023-12-07T00:00:00	2024-11-08T07:00:00	3	Temperatura mínima	20.4
48112	7	Sololá	710	Panajachel	8	Panajachel	7	Julio	2023-12-07T00:00:00	2024-11-08T07:00:00	5	Humedad	68
48113	7	Sololá	710	Panajachel	8	Panajachel	7	Julio	2023-12-07T00:00:00	2024-11-08T07:00:00	6	Velocidad del viento	6.4
48114	7	Sololá	710	Panajachel	8	Panajachel	7	Julio	2023-12-07T00:00:00	2024-11-08T07:00:00	7	Dirección del viento	6.44
48115	7	Sololá	710	Panajachel	8	Panajachel	7	Julio	2023-12-07T00:00:00	2024-11-08T07:00:00	1	Precipitación	0
48116	7	Sololá	710	Panajachel	8	Panajachel	7	Julio	2023-12-07T00:00:00	2024-11-08T07:00:00	8	Radiación solar	95
48117	7	Sololá	710	Panajachel	8	Panajachel	7	Julio	2023-12-07T00:00:00	2024-11-08T08:00:00	2	Temperatura media	22.5
48118	7	Sololá	710	Panajachel	8	Panajachel	7	Julio	2023-12-07T00:00:00	2024-11-08T08:00:00	4	Temperatura máxima	22.6
48119	7	Sololá	710	Panajachel	8	Panajachel	7	Julio	2023-12-07T00:00:00	2024-11-08T08:00:00	3	Temperatura mínima	21.3
48120	7	Sololá	710	Panajachel	8	Panajachel	7	Julio	2023-12-07T00:00:00	2024-11-08T08:00:00	5	Humedad	67
48121	7	Sololá	710	Panajachel	8	Panajachel	7	Julio	2023-12-07T00:00:00	2024-11-08T08:00:00	6	Velocidad del viento	9.7
48122	7	Sololá	710	Panajachel	8	Panajachel	7	Julio	2023-12-07T00:00:00	2024-11-08T08:00:00	7	Dirección del viento	9.66
48123	7	Sololá	710	Panajachel	8	Panajachel	7	Julio	2023-12-07T00:00:00	2024-11-08T08:00:00	1	Precipitación	0
48124	7	Sololá	710	Panajachel	8	Panajachel	7	Julio	2023-12-07T00:00:00	2024-11-08T08:00:00	8	Radiación solar	321
48125	7	Sololá	710	Panajachel	8	Panajachel	7	Julio	2023-12-07T00:00:00	2024-11-08T09:00:00	2	Temperatura media	23.8
48126	7	Sololá	710	Panajachel	8	Panajachel	7	Julio	2023-12-07T00:00:00	2024-11-08T09:00:00	4	Temperatura máxima	23.8
48127	7	Sololá	710	Panajachel	8	Panajachel	7	Julio	2023-12-07T00:00:00	2024-11-08T09:00:00	3	Temperatura mínima	22.4
48128	7	Sololá	710	Panajachel	8	Panajachel	7	Julio	2023-12-07T00:00:00	2024-11-08T09:00:00	5	Humedad	62
48129	7	Sololá	710	Panajachel	8	Panajachel	7	Julio	2023-12-07T00:00:00	2024-11-08T09:00:00	6	Velocidad del viento	8
48130	7	Sololá	710	Panajachel	8	Panajachel	7	Julio	2023-12-07T00:00:00	2024-11-08T09:00:00	7	Dirección del viento	8.05
48131	7	Sololá	710	Panajachel	8	Panajachel	7	Julio	2023-12-07T00:00:00	2024-11-08T09:00:00	1	Precipitación	0
48132	7	Sololá	710	Panajachel	8	Panajachel	7	Julio	2023-12-07T00:00:00	2024-11-08T09:00:00	8	Radiación solar	500
48133	7	Sololá	710	Panajachel	8	Panajachel	7	Julio	2023-12-07T00:00:00	2024-11-08T10:00:00	2	Temperatura media	24.6
48134	7	Sololá	710	Panajachel	8	Panajachel	7	Julio	2023-12-07T00:00:00	2024-11-08T10:00:00	4	Temperatura máxima	25.3
48135	7	Sololá	710	Panajachel	8	Panajachel	7	Julio	2023-12-07T00:00:00	2024-11-08T10:00:00	3	Temperatura mínima	23.7
48136	7	Sololá	710	Panajachel	8	Panajachel	7	Julio	2023-12-07T00:00:00	2024-11-08T10:00:00	5	Humedad	62
48137	7	Sololá	710	Panajachel	8	Panajachel	7	Julio	2023-12-07T00:00:00	2024-11-08T10:00:00	6	Velocidad del viento	4.8
48138	7	Sololá	710	Panajachel	8	Panajachel	7	Julio	2023-12-07T00:00:00	2024-11-08T10:00:00	7	Dirección del viento	4.83
48139	7	Sololá	710	Panajachel	8	Panajachel	7	Julio	2023-12-07T00:00:00	2024-11-08T10:00:00	1	Precipitación	0
48140	7	Sololá	710	Panajachel	8	Panajachel	7	Julio	2023-12-07T00:00:00	2024-11-08T10:00:00	8	Radiación solar	682
48141	7	Sololá	710	Panajachel	8	Panajachel	7	Julio	2023-12-07T00:00:00	2024-11-08T11:00:00	2	Temperatura media	25.6
48142	7	Sololá	710	Panajachel	8	Panajachel	7	Julio	2023-12-07T00:00:00	2024-11-08T11:00:00	4	Temperatura máxima	25.9
48143	7	Sololá	710	Panajachel	8	Panajachel	7	Julio	2023-12-07T00:00:00	2024-11-08T11:00:00	3	Temperatura mínima	24.5
48144	7	Sololá	710	Panajachel	8	Panajachel	7	Julio	2023-12-07T00:00:00	2024-11-08T11:00:00	5	Humedad	58
48145	7	Sololá	710	Panajachel	8	Panajachel	7	Julio	2023-12-07T00:00:00	2024-11-08T11:00:00	6	Velocidad del viento	1.6
48146	7	Sololá	710	Panajachel	8	Panajachel	7	Julio	2023-12-07T00:00:00	2024-11-08T11:00:00	7	Dirección del viento	1.61
48147	7	Sololá	710	Panajachel	8	Panajachel	7	Julio	2023-12-07T00:00:00	2024-11-08T11:00:00	1	Precipitación	0
48148	7	Sololá	710	Panajachel	8	Panajachel	7	Julio	2023-12-07T00:00:00	2024-11-08T11:00:00	8	Radiación solar	449
48149	7	Sololá	710	Panajachel	8	Panajachel	7	Julio	2023-12-07T00:00:00	2024-11-08T12:00:00	2	Temperatura media	26.7
48150	7	Sololá	710	Panajachel	8	Panajachel	7	Julio	2023-12-07T00:00:00	2024-11-08T12:00:00	4	Temperatura máxima	26.8
48151	7	Sololá	710	Panajachel	8	Panajachel	7	Julio	2023-12-07T00:00:00	2024-11-08T12:00:00	3	Temperatura mínima	24.9
48152	7	Sololá	710	Panajachel	8	Panajachel	7	Julio	2023-12-07T00:00:00	2024-11-08T12:00:00	5	Humedad	58
48153	7	Sololá	710	Panajachel	8	Panajachel	7	Julio	2023-12-07T00:00:00	2024-11-08T12:00:00	6	Velocidad del viento	3.2
48154	7	Sololá	710	Panajachel	8	Panajachel	7	Julio	2023-12-07T00:00:00	2024-11-08T12:00:00	7	Dirección del viento	3.22
48155	7	Sololá	710	Panajachel	8	Panajachel	7	Julio	2023-12-07T00:00:00	2024-11-08T12:00:00	1	Precipitación	0
48156	7	Sololá	710	Panajachel	8	Panajachel	7	Julio	2023-12-07T00:00:00	2024-11-08T12:00:00	8	Radiación solar	477
48157	7	Sololá	710	Panajachel	8	Panajachel	7	Julio	2023-12-07T00:00:00	2024-11-08T13:00:00	2	Temperatura media	28.1
48158	7	Sololá	710	Panajachel	8	Panajachel	7	Julio	2023-12-07T00:00:00	2024-11-08T13:00:00	4	Temperatura máxima	28.3
48159	7	Sololá	710	Panajachel	8	Panajachel	7	Julio	2023-12-07T00:00:00	2024-11-08T13:00:00	3	Temperatura mínima	26.1
48160	7	Sololá	710	Panajachel	8	Panajachel	7	Julio	2023-12-07T00:00:00	2024-11-08T13:00:00	5	Humedad	50
48161	7	Sololá	710	Panajachel	8	Panajachel	7	Julio	2023-12-07T00:00:00	2024-11-08T13:00:00	6	Velocidad del viento	6.4
48162	7	Sololá	710	Panajachel	8	Panajachel	7	Julio	2023-12-07T00:00:00	2024-11-08T13:00:00	7	Dirección del viento	6.44
48163	7	Sololá	710	Panajachel	8	Panajachel	7	Julio	2023-12-07T00:00:00	2024-11-08T13:00:00	1	Precipitación	0
48164	7	Sololá	710	Panajachel	8	Panajachel	7	Julio	2023-12-07T00:00:00	2024-11-08T13:00:00	8	Radiación solar	870
48165	7	Sololá	710	Panajachel	8	Panajachel	7	Julio	2023-12-07T00:00:00	2024-11-08T14:00:00	2	Temperatura media	28.3
48166	7	Sololá	710	Panajachel	8	Panajachel	7	Julio	2023-12-07T00:00:00	2024-11-08T14:00:00	4	Temperatura máxima	28.3
48167	7	Sololá	710	Panajachel	8	Panajachel	7	Julio	2023-12-07T00:00:00	2024-11-08T14:00:00	3	Temperatura mínima	27.6
48168	7	Sololá	710	Panajachel	8	Panajachel	7	Julio	2023-12-07T00:00:00	2024-11-08T14:00:00	5	Humedad	50
48169	7	Sololá	710	Panajachel	8	Panajachel	7	Julio	2023-12-07T00:00:00	2024-11-08T14:00:00	6	Velocidad del viento	3.2
48170	7	Sololá	710	Panajachel	8	Panajachel	7	Julio	2023-12-07T00:00:00	2024-11-08T14:00:00	7	Dirección del viento	3.22
48171	7	Sololá	710	Panajachel	8	Panajachel	7	Julio	2023-12-07T00:00:00	2024-11-08T14:00:00	1	Precipitación	0
48172	7	Sololá	710	Panajachel	8	Panajachel	7	Julio	2023-12-07T00:00:00	2024-11-08T14:00:00	8	Radiación solar	715
48173	7	Sololá	710	Panajachel	8	Panajachel	7	Julio	2023-12-07T00:00:00	2024-11-08T15:00:00	2	Temperatura media	28.5
48174	7	Sololá	710	Panajachel	8	Panajachel	7	Julio	2023-12-07T00:00:00	2024-11-08T15:00:00	4	Temperatura máxima	28.5
48175	7	Sololá	710	Panajachel	8	Panajachel	7	Julio	2023-12-07T00:00:00	2024-11-08T15:00:00	3	Temperatura mínima	28.1
48176	7	Sololá	710	Panajachel	8	Panajachel	7	Julio	2023-12-07T00:00:00	2024-11-08T15:00:00	5	Humedad	49
48177	7	Sololá	710	Panajachel	8	Panajachel	7	Julio	2023-12-07T00:00:00	2024-11-08T15:00:00	6	Velocidad del viento	4.8
48178	7	Sololá	710	Panajachel	8	Panajachel	7	Julio	2023-12-07T00:00:00	2024-11-08T15:00:00	7	Dirección del viento	4.83
48179	7	Sololá	710	Panajachel	8	Panajachel	7	Julio	2023-12-07T00:00:00	2024-11-08T15:00:00	1	Precipitación	0
48180	7	Sololá	710	Panajachel	8	Panajachel	7	Julio	2023-12-07T00:00:00	2024-11-08T15:00:00	8	Radiación solar	605
48181	7	Sololá	710	Panajachel	8	Panajachel	7	Julio	2023-12-07T00:00:00	2024-11-08T16:00:00	2	Temperatura media	26.1
48182	7	Sololá	710	Panajachel	8	Panajachel	7	Julio	2023-12-07T00:00:00	2024-11-08T16:00:00	4	Temperatura máxima	28.7
48183	7	Sololá	710	Panajachel	8	Panajachel	7	Julio	2023-12-07T00:00:00	2024-11-08T16:00:00	3	Temperatura mínima	26.1
48184	7	Sololá	710	Panajachel	8	Panajachel	7	Julio	2023-12-07T00:00:00	2024-11-08T16:00:00	5	Humedad	71
48185	7	Sololá	710	Panajachel	8	Panajachel	7	Julio	2023-12-07T00:00:00	2024-11-08T16:00:00	6	Velocidad del viento	3.2
48186	7	Sololá	710	Panajachel	8	Panajachel	7	Julio	2023-12-07T00:00:00	2024-11-08T16:00:00	7	Dirección del viento	3.22
48187	7	Sololá	710	Panajachel	8	Panajachel	7	Julio	2023-12-07T00:00:00	2024-11-08T16:00:00	1	Precipitación	0
48188	7	Sololá	710	Panajachel	8	Panajachel	7	Julio	2023-12-07T00:00:00	2024-11-08T16:00:00	8	Radiación solar	385
48189	7	Sololá	710	Panajachel	8	Panajachel	7	Julio	2023-12-07T00:00:00	2024-11-08T17:00:00	2	Temperatura media	23.8
48190	7	Sololá	710	Panajachel	8	Panajachel	7	Julio	2023-12-07T00:00:00	2024-11-08T17:00:00	4	Temperatura máxima	26.1
48191	7	Sololá	710	Panajachel	8	Panajachel	7	Julio	2023-12-07T00:00:00	2024-11-08T17:00:00	3	Temperatura mínima	23.8
48192	7	Sololá	710	Panajachel	8	Panajachel	7	Julio	2023-12-07T00:00:00	2024-11-08T17:00:00	5	Humedad	83
48193	7	Sololá	710	Panajachel	8	Panajachel	7	Julio	2023-12-07T00:00:00	2024-11-08T17:00:00	6	Velocidad del viento	4.8
48194	7	Sololá	710	Panajachel	8	Panajachel	7	Julio	2023-12-07T00:00:00	2024-11-08T17:00:00	7	Dirección del viento	4.83
48195	7	Sololá	710	Panajachel	8	Panajachel	7	Julio	2023-12-07T00:00:00	2024-11-08T17:00:00	1	Precipitación	0
48196	7	Sololá	710	Panajachel	8	Panajachel	7	Julio	2023-12-07T00:00:00	2024-11-08T17:00:00	8	Radiación solar	160
48197	7	Sololá	710	Panajachel	8	Panajachel	7	Julio	2023-12-07T00:00:00	2024-11-08T18:00:00	2	Temperatura media	22.9
48198	7	Sololá	710	Panajachel	8	Panajachel	7	Julio	2023-12-07T00:00:00	2024-11-08T18:00:00	4	Temperatura máxima	23.8
48199	7	Sololá	710	Panajachel	8	Panajachel	7	Julio	2023-12-07T00:00:00	2024-11-08T18:00:00	3	Temperatura mínima	22.6
48200	7	Sololá	710	Panajachel	8	Panajachel	7	Julio	2023-12-07T00:00:00	2024-11-08T18:00:00	5	Humedad	80
48201	7	Sololá	710	Panajachel	8	Panajachel	7	Julio	2023-12-07T00:00:00	2024-11-08T18:00:00	6	Velocidad del viento	3.2
48202	7	Sololá	710	Panajachel	8	Panajachel	7	Julio	2023-12-07T00:00:00	2024-11-08T18:00:00	7	Dirección del viento	3.22
48203	7	Sololá	710	Panajachel	8	Panajachel	7	Julio	2023-12-07T00:00:00	2024-11-08T18:00:00	1	Precipitación	0
48204	7	Sololá	710	Panajachel	8	Panajachel	7	Julio	2023-12-07T00:00:00	2024-11-08T18:00:00	8	Radiación solar	61
48205	7	Sololá	710	Panajachel	8	Panajachel	7	Julio	2023-12-07T00:00:00	2024-11-08T19:00:00	2	Temperatura media	20.9
48206	7	Sololá	710	Panajachel	8	Panajachel	7	Julio	2023-12-07T00:00:00	2024-11-08T19:00:00	4	Temperatura máxima	22.9
48207	7	Sololá	710	Panajachel	8	Panajachel	7	Julio	2023-12-07T00:00:00	2024-11-08T19:00:00	3	Temperatura mínima	20.9
48208	7	Sololá	710	Panajachel	8	Panajachel	7	Julio	2023-12-07T00:00:00	2024-11-08T19:00:00	5	Humedad	85
48209	7	Sololá	710	Panajachel	8	Panajachel	7	Julio	2023-12-07T00:00:00	2024-11-08T19:00:00	6	Velocidad del viento	1.6
48210	7	Sololá	710	Panajachel	8	Panajachel	7	Julio	2023-12-07T00:00:00	2024-11-08T19:00:00	7	Dirección del viento	1.61
48211	7	Sololá	710	Panajachel	8	Panajachel	7	Julio	2023-12-07T00:00:00	2024-11-08T19:00:00	1	Precipitación	0.2
48212	7	Sololá	710	Panajachel	8	Panajachel	7	Julio	2023-12-07T00:00:00	2024-11-08T19:00:00	8	Radiación solar	0
48213	7	Sololá	710	Panajachel	8	Panajachel	7	Julio	2023-12-07T00:00:00	2024-11-08T20:00:00	2	Temperatura media	18.6
48214	7	Sololá	710	Panajachel	8	Panajachel	7	Julio	2023-12-07T00:00:00	2024-11-08T20:00:00	4	Temperatura máxima	20.9
48215	7	Sololá	710	Panajachel	8	Panajachel	7	Julio	2023-12-07T00:00:00	2024-11-08T20:00:00	3	Temperatura mínima	18.6
48216	7	Sololá	710	Panajachel	8	Panajachel	7	Julio	2023-12-07T00:00:00	2024-11-08T20:00:00	5	Humedad	87
48217	7	Sololá	710	Panajachel	8	Panajachel	7	Julio	2023-12-07T00:00:00	2024-11-08T20:00:00	6	Velocidad del viento	4.8
48218	7	Sololá	710	Panajachel	8	Panajachel	7	Julio	2023-12-07T00:00:00	2024-11-08T20:00:00	7	Dirección del viento	4.83
48219	7	Sololá	710	Panajachel	8	Panajachel	7	Julio	2023-12-07T00:00:00	2024-11-08T20:00:00	1	Precipitación	2.6
48220	7	Sololá	710	Panajachel	8	Panajachel	7	Julio	2023-12-07T00:00:00	2024-11-08T20:00:00	8	Radiación solar	0
48221	7	Sololá	710	Panajachel	8	Panajachel	7	Julio	2023-12-07T00:00:00	2024-11-08T21:00:00	2	Temperatura media	18.8
48222	7	Sololá	710	Panajachel	8	Panajachel	7	Julio	2023-12-07T00:00:00	2024-11-08T21:00:00	4	Temperatura máxima	19.1
48223	7	Sololá	710	Panajachel	8	Panajachel	7	Julio	2023-12-07T00:00:00	2024-11-08T21:00:00	3	Temperatura mínima	17.8
48224	7	Sololá	710	Panajachel	8	Panajachel	7	Julio	2023-12-07T00:00:00	2024-11-08T21:00:00	5	Humedad	82
48225	7	Sololá	710	Panajachel	8	Panajachel	7	Julio	2023-12-07T00:00:00	2024-11-08T21:00:00	6	Velocidad del viento	8
48226	7	Sololá	710	Panajachel	8	Panajachel	7	Julio	2023-12-07T00:00:00	2024-11-08T21:00:00	7	Dirección del viento	8.05
48227	7	Sololá	710	Panajachel	8	Panajachel	7	Julio	2023-12-07T00:00:00	2024-11-08T21:00:00	1	Precipitación	3
48228	7	Sololá	710	Panajachel	8	Panajachel	7	Julio	2023-12-07T00:00:00	2024-11-08T21:00:00	8	Radiación solar	0
48229	7	Sololá	710	Panajachel	8	Panajachel	7	Julio	2023-12-07T00:00:00	2024-11-08T22:00:00	2	Temperatura media	17.4
48230	7	Sololá	710	Panajachel	8	Panajachel	7	Julio	2023-12-07T00:00:00	2024-11-08T22:00:00	4	Temperatura máxima	18.8
48231	7	Sololá	710	Panajachel	8	Panajachel	7	Julio	2023-12-07T00:00:00	2024-11-08T22:00:00	3	Temperatura mínima	17.4
48232	7	Sololá	710	Panajachel	8	Panajachel	7	Julio	2023-12-07T00:00:00	2024-11-08T22:00:00	5	Humedad	94
48233	7	Sololá	710	Panajachel	8	Panajachel	7	Julio	2023-12-07T00:00:00	2024-11-08T22:00:00	6	Velocidad del viento	3.2
48234	7	Sololá	710	Panajachel	8	Panajachel	7	Julio	2023-12-07T00:00:00	2024-11-08T22:00:00	7	Dirección del viento	3.22
48235	7	Sololá	710	Panajachel	8	Panajachel	7	Julio	2023-12-07T00:00:00	2024-11-08T22:00:00	1	Precipitación	0.4
48236	7	Sololá	710	Panajachel	8	Panajachel	7	Julio	2023-12-07T00:00:00	2024-11-08T22:00:00	8	Radiación solar	0
48237	7	Sololá	710	Panajachel	8	Panajachel	7	Julio	2023-12-07T00:00:00	2024-11-08T23:00:00	2	Temperatura media	17.4
48238	7	Sololá	710	Panajachel	8	Panajachel	7	Julio	2023-12-07T00:00:00	2024-11-08T23:00:00	4	Temperatura máxima	17.6
48239	7	Sololá	710	Panajachel	8	Panajachel	7	Julio	2023-12-07T00:00:00	2024-11-08T23:00:00	3	Temperatura mínima	17.3
48240	7	Sololá	710	Panajachel	8	Panajachel	7	Julio	2023-12-07T00:00:00	2024-11-08T23:00:00	5	Humedad	94
48241	7	Sololá	710	Panajachel	8	Panajachel	7	Julio	2023-12-07T00:00:00	2024-11-08T23:00:00	6	Velocidad del viento	3.2
48242	7	Sololá	710	Panajachel	8	Panajachel	7	Julio	2023-12-07T00:00:00	2024-11-08T23:00:00	7	Dirección del viento	3.22
48243	7	Sololá	710	Panajachel	8	Panajachel	7	Julio	2023-12-07T00:00:00	2024-11-08T23:00:00	1	Precipitación	0
48244	7	Sololá	710	Panajachel	8	Panajachel	7	Julio	2023-12-07T00:00:00	2024-11-08T23:00:00	8	Radiación solar	0
48245	7	Sololá	710	Panajachel	8	Panajachel	7	Julio	2023-07-13T00:00:00	2024-11-08T00:00:00	2	Temperatura media	20.9
48246	7	Sololá	710	Panajachel	8	Panajachel	7	Julio	2023-07-13T00:00:00	2024-11-08T00:00:00	4	Temperatura máxima	20.9
48247	7	Sololá	710	Panajachel	8	Panajachel	7	Julio	2023-07-13T00:00:00	2024-11-08T00:00:00	3	Temperatura mínima	17.4
48248	7	Sololá	710	Panajachel	8	Panajachel	7	Julio	2023-07-13T00:00:00	2024-11-08T00:00:00	5	Humedad	75
48249	7	Sololá	710	Panajachel	8	Panajachel	7	Julio	2023-07-13T00:00:00	2024-11-08T00:00:00	6	Velocidad del viento	9.7
48250	7	Sololá	710	Panajachel	8	Panajachel	7	Julio	2023-07-13T00:00:00	2024-11-08T00:00:00	7	Dirección del viento	9.66
48251	7	Sololá	710	Panajachel	8	Panajachel	7	Julio	2023-07-13T00:00:00	2024-11-08T00:00:00	1	Precipitación	0
48252	7	Sololá	710	Panajachel	8	Panajachel	7	Julio	2023-07-13T00:00:00	2024-11-08T00:00:00	8	Radiación solar	0
48253	7	Sololá	710	Panajachel	8	Panajachel	7	Julio	2023-07-13T00:00:00	2024-11-08T01:00:00	2	Temperatura media	20.6
48254	7	Sololá	710	Panajachel	8	Panajachel	7	Julio	2023-07-13T00:00:00	2024-11-08T01:00:00	4	Temperatura máxima	21
48255	7	Sololá	710	Panajachel	8	Panajachel	7	Julio	2023-07-13T00:00:00	2024-11-08T01:00:00	3	Temperatura mínima	20.6
48256	7	Sololá	710	Panajachel	8	Panajachel	7	Julio	2023-07-13T00:00:00	2024-11-08T01:00:00	5	Humedad	76
48257	7	Sololá	710	Panajachel	8	Panajachel	7	Julio	2023-07-13T00:00:00	2024-11-08T01:00:00	6	Velocidad del viento	8
48258	7	Sololá	710	Panajachel	8	Panajachel	7	Julio	2023-07-13T00:00:00	2024-11-08T01:00:00	7	Dirección del viento	8.05
48259	7	Sololá	710	Panajachel	8	Panajachel	7	Julio	2023-07-13T00:00:00	2024-11-08T01:00:00	1	Precipitación	0
48260	7	Sololá	710	Panajachel	8	Panajachel	7	Julio	2023-07-13T00:00:00	2024-11-08T01:00:00	8	Radiación solar	0
48261	7	Sololá	710	Panajachel	8	Panajachel	7	Julio	2023-07-13T00:00:00	2024-11-08T02:00:00	2	Temperatura media	20.8
48262	7	Sololá	710	Panajachel	8	Panajachel	7	Julio	2023-07-13T00:00:00	2024-11-08T02:00:00	4	Temperatura máxima	20.9
48263	7	Sololá	710	Panajachel	8	Panajachel	7	Julio	2023-07-13T00:00:00	2024-11-08T02:00:00	3	Temperatura mínima	20.6
48264	7	Sololá	710	Panajachel	8	Panajachel	7	Julio	2023-07-13T00:00:00	2024-11-08T02:00:00	5	Humedad	71
48265	7	Sololá	710	Panajachel	8	Panajachel	7	Julio	2023-07-13T00:00:00	2024-11-08T02:00:00	6	Velocidad del viento	8
48266	7	Sololá	710	Panajachel	8	Panajachel	7	Julio	2023-07-13T00:00:00	2024-11-08T02:00:00	7	Dirección del viento	8.05
48267	7	Sololá	710	Panajachel	8	Panajachel	7	Julio	2023-07-13T00:00:00	2024-11-08T02:00:00	1	Precipitación	0
48268	7	Sololá	710	Panajachel	8	Panajachel	7	Julio	2023-07-13T00:00:00	2024-11-08T02:00:00	8	Radiación solar	0
48269	7	Sololá	710	Panajachel	8	Panajachel	7	Julio	2023-07-13T00:00:00	2024-11-08T03:00:00	2	Temperatura media	19.6
48270	7	Sololá	710	Panajachel	8	Panajachel	7	Julio	2023-07-13T00:00:00	2024-11-08T03:00:00	4	Temperatura máxima	21.1
48271	7	Sololá	710	Panajachel	8	Panajachel	7	Julio	2023-07-13T00:00:00	2024-11-08T03:00:00	3	Temperatura mínima	19.3
48272	7	Sololá	710	Panajachel	8	Panajachel	7	Julio	2023-07-13T00:00:00	2024-11-08T03:00:00	5	Humedad	77
48273	7	Sololá	710	Panajachel	8	Panajachel	7	Julio	2023-07-13T00:00:00	2024-11-08T03:00:00	6	Velocidad del viento	3.2
48274	7	Sololá	710	Panajachel	8	Panajachel	7	Julio	2023-07-13T00:00:00	2024-11-08T03:00:00	7	Dirección del viento	3.22
48275	7	Sololá	710	Panajachel	8	Panajachel	7	Julio	2023-07-13T00:00:00	2024-11-08T03:00:00	1	Precipitación	0
48276	7	Sololá	710	Panajachel	8	Panajachel	7	Julio	2023-07-13T00:00:00	2024-11-08T03:00:00	8	Radiación solar	0
48277	7	Sololá	710	Panajachel	8	Panajachel	7	Julio	2023-07-13T00:00:00	2024-11-08T04:00:00	2	Temperatura media	20.3
48278	7	Sololá	710	Panajachel	8	Panajachel	7	Julio	2023-07-13T00:00:00	2024-11-08T04:00:00	4	Temperatura máxima	20.6
48279	7	Sololá	710	Panajachel	8	Panajachel	7	Julio	2023-07-13T00:00:00	2024-11-08T04:00:00	3	Temperatura mínima	19.5
48280	7	Sololá	710	Panajachel	8	Panajachel	7	Julio	2023-07-13T00:00:00	2024-11-08T04:00:00	5	Humedad	71
48281	7	Sololá	710	Panajachel	8	Panajachel	7	Julio	2023-07-13T00:00:00	2024-11-08T04:00:00	6	Velocidad del viento	8
48282	7	Sololá	710	Panajachel	8	Panajachel	7	Julio	2023-07-13T00:00:00	2024-11-08T04:00:00	7	Dirección del viento	8.05
48283	7	Sololá	710	Panajachel	8	Panajachel	7	Julio	2023-07-13T00:00:00	2024-11-08T04:00:00	1	Precipitación	0
48284	7	Sololá	710	Panajachel	8	Panajachel	7	Julio	2023-07-13T00:00:00	2024-11-08T04:00:00	8	Radiación solar	0
48285	7	Sololá	710	Panajachel	8	Panajachel	7	Julio	2023-07-13T00:00:00	2024-11-08T05:00:00	2	Temperatura media	19.9
48286	7	Sololá	710	Panajachel	8	Panajachel	7	Julio	2023-07-13T00:00:00	2024-11-08T05:00:00	4	Temperatura máxima	20.3
48287	7	Sololá	710	Panajachel	8	Panajachel	7	Julio	2023-07-13T00:00:00	2024-11-08T05:00:00	3	Temperatura mínima	19.8
48288	7	Sololá	710	Panajachel	8	Panajachel	7	Julio	2023-07-13T00:00:00	2024-11-08T05:00:00	5	Humedad	71
48289	7	Sololá	710	Panajachel	8	Panajachel	7	Julio	2023-07-13T00:00:00	2024-11-08T05:00:00	6	Velocidad del viento	8
48290	7	Sololá	710	Panajachel	8	Panajachel	7	Julio	2023-07-13T00:00:00	2024-11-08T05:00:00	7	Dirección del viento	8.05
48291	7	Sololá	710	Panajachel	8	Panajachel	7	Julio	2023-07-13T00:00:00	2024-11-08T05:00:00	1	Precipitación	0
48292	7	Sololá	710	Panajachel	8	Panajachel	7	Julio	2023-07-13T00:00:00	2024-11-08T05:00:00	8	Radiación solar	0
48293	7	Sololá	710	Panajachel	8	Panajachel	7	Julio	2023-07-13T00:00:00	2024-11-08T06:00:00	2	Temperatura media	20.1
48294	7	Sololá	710	Panajachel	8	Panajachel	7	Julio	2023-07-13T00:00:00	2024-11-08T06:00:00	4	Temperatura máxima	20.2
48295	7	Sololá	710	Panajachel	8	Panajachel	7	Julio	2023-07-13T00:00:00	2024-11-08T06:00:00	3	Temperatura mínima	19.8
48296	7	Sololá	710	Panajachel	8	Panajachel	7	Julio	2023-07-13T00:00:00	2024-11-08T06:00:00	5	Humedad	70
48297	7	Sololá	710	Panajachel	8	Panajachel	7	Julio	2023-07-13T00:00:00	2024-11-08T06:00:00	6	Velocidad del viento	9.7
48298	7	Sololá	710	Panajachel	8	Panajachel	7	Julio	2023-07-13T00:00:00	2024-11-08T06:00:00	7	Dirección del viento	9.66
48299	7	Sololá	710	Panajachel	8	Panajachel	7	Julio	2023-07-13T00:00:00	2024-11-08T06:00:00	1	Precipitación	0
48300	7	Sololá	710	Panajachel	8	Panajachel	7	Julio	2023-07-13T00:00:00	2024-11-08T06:00:00	8	Radiación solar	2
48301	7	Sololá	710	Panajachel	8	Panajachel	7	Julio	2023-07-13T00:00:00	2024-11-08T07:00:00	2	Temperatura media	20.8
48302	7	Sololá	710	Panajachel	8	Panajachel	7	Julio	2023-07-13T00:00:00	2024-11-08T07:00:00	4	Temperatura máxima	20.8
48303	7	Sololá	710	Panajachel	8	Panajachel	7	Julio	2023-07-13T00:00:00	2024-11-08T07:00:00	3	Temperatura mínima	20.1
48304	7	Sololá	710	Panajachel	8	Panajachel	7	Julio	2023-07-13T00:00:00	2024-11-08T07:00:00	5	Humedad	71
48305	7	Sololá	710	Panajachel	8	Panajachel	7	Julio	2023-07-13T00:00:00	2024-11-08T07:00:00	6	Velocidad del viento	11.3
48306	7	Sololá	710	Panajachel	8	Panajachel	7	Julio	2023-07-13T00:00:00	2024-11-08T07:00:00	7	Dirección del viento	11.27
48307	7	Sololá	710	Panajachel	8	Panajachel	7	Julio	2023-07-13T00:00:00	2024-11-08T07:00:00	1	Precipitación	0
48308	7	Sololá	710	Panajachel	8	Panajachel	7	Julio	2023-07-13T00:00:00	2024-11-08T07:00:00	8	Radiación solar	87
48309	7	Sololá	710	Panajachel	8	Panajachel	7	Julio	2023-07-13T00:00:00	2024-11-08T08:00:00	2	Temperatura media	22.1
48310	7	Sololá	710	Panajachel	8	Panajachel	7	Julio	2023-07-13T00:00:00	2024-11-08T08:00:00	4	Temperatura máxima	22.1
48311	7	Sololá	710	Panajachel	8	Panajachel	7	Julio	2023-07-13T00:00:00	2024-11-08T08:00:00	3	Temperatura mínima	20.8
48312	7	Sololá	710	Panajachel	8	Panajachel	7	Julio	2023-07-13T00:00:00	2024-11-08T08:00:00	5	Humedad	69
48313	7	Sololá	710	Panajachel	8	Panajachel	7	Julio	2023-07-13T00:00:00	2024-11-08T08:00:00	6	Velocidad del viento	6.4
48314	7	Sololá	710	Panajachel	8	Panajachel	7	Julio	2023-07-13T00:00:00	2024-11-08T08:00:00	7	Dirección del viento	6.44
48315	7	Sololá	710	Panajachel	8	Panajachel	7	Julio	2023-07-13T00:00:00	2024-11-08T08:00:00	1	Precipitación	0
48316	7	Sololá	710	Panajachel	8	Panajachel	7	Julio	2023-07-13T00:00:00	2024-11-08T08:00:00	8	Radiación solar	233
48317	7	Sololá	710	Panajachel	8	Panajachel	7	Julio	2023-07-13T00:00:00	2024-11-08T09:00:00	2	Temperatura media	23.2
48318	7	Sololá	710	Panajachel	8	Panajachel	7	Julio	2023-07-13T00:00:00	2024-11-08T09:00:00	4	Temperatura máxima	23.2
48319	7	Sololá	710	Panajachel	8	Panajachel	7	Julio	2023-07-13T00:00:00	2024-11-08T09:00:00	3	Temperatura mínima	22.1
48320	7	Sololá	710	Panajachel	8	Panajachel	7	Julio	2023-07-13T00:00:00	2024-11-08T09:00:00	5	Humedad	63
48321	7	Sololá	710	Panajachel	8	Panajachel	7	Julio	2023-07-13T00:00:00	2024-11-08T09:00:00	6	Velocidad del viento	8
48322	7	Sololá	710	Panajachel	8	Panajachel	7	Julio	2023-07-13T00:00:00	2024-11-08T09:00:00	7	Dirección del viento	8.05
48323	7	Sololá	710	Panajachel	8	Panajachel	7	Julio	2023-07-13T00:00:00	2024-11-08T09:00:00	1	Precipitación	0
48324	7	Sololá	710	Panajachel	8	Panajachel	7	Julio	2023-07-13T00:00:00	2024-11-08T09:00:00	8	Radiación solar	449
48325	7	Sololá	710	Panajachel	8	Panajachel	7	Julio	2023-07-13T00:00:00	2024-11-08T10:00:00	2	Temperatura media	24.2
48326	7	Sololá	710	Panajachel	8	Panajachel	7	Julio	2023-07-13T00:00:00	2024-11-08T10:00:00	4	Temperatura máxima	24.3
48327	7	Sololá	710	Panajachel	8	Panajachel	7	Julio	2023-07-13T00:00:00	2024-11-08T10:00:00	3	Temperatura mínima	23.2
48328	7	Sololá	710	Panajachel	8	Panajachel	7	Julio	2023-07-13T00:00:00	2024-11-08T10:00:00	5	Humedad	62
48329	7	Sololá	710	Panajachel	8	Panajachel	7	Julio	2023-07-13T00:00:00	2024-11-08T10:00:00	6	Velocidad del viento	6.4
48330	7	Sololá	710	Panajachel	8	Panajachel	7	Julio	2023-07-13T00:00:00	2024-11-08T10:00:00	7	Dirección del viento	6.44
48331	7	Sololá	710	Panajachel	8	Panajachel	7	Julio	2023-07-13T00:00:00	2024-11-08T10:00:00	1	Precipitación	0
48332	7	Sololá	710	Panajachel	8	Panajachel	7	Julio	2023-07-13T00:00:00	2024-11-08T10:00:00	8	Radiación solar	709
48333	7	Sololá	710	Panajachel	8	Panajachel	7	Julio	2023-07-13T00:00:00	2024-11-08T11:00:00	2	Temperatura media	24.6
48334	7	Sololá	710	Panajachel	8	Panajachel	7	Julio	2023-07-13T00:00:00	2024-11-08T11:00:00	4	Temperatura máxima	25
48335	7	Sololá	710	Panajachel	8	Panajachel	7	Julio	2023-07-13T00:00:00	2024-11-08T11:00:00	3	Temperatura mínima	23.6
48336	7	Sololá	710	Panajachel	8	Panajachel	7	Julio	2023-07-13T00:00:00	2024-11-08T11:00:00	5	Humedad	59
48337	7	Sololá	710	Panajachel	8	Panajachel	7	Julio	2023-07-13T00:00:00	2024-11-08T11:00:00	6	Velocidad del viento	4.8
48338	7	Sololá	710	Panajachel	8	Panajachel	7	Julio	2023-07-13T00:00:00	2024-11-08T11:00:00	7	Dirección del viento	4.83
48339	7	Sololá	710	Panajachel	8	Panajachel	7	Julio	2023-07-13T00:00:00	2024-11-08T11:00:00	1	Precipitación	0
48340	7	Sololá	710	Panajachel	8	Panajachel	7	Julio	2023-07-13T00:00:00	2024-11-08T11:00:00	8	Radiación solar	516
48341	7	Sololá	710	Panajachel	8	Panajachel	7	Julio	2023-07-13T00:00:00	2024-11-08T12:00:00	2	Temperatura media	26.7
48342	7	Sololá	710	Panajachel	8	Panajachel	7	Julio	2023-07-13T00:00:00	2024-11-08T12:00:00	4	Temperatura máxima	26.8
48343	7	Sololá	710	Panajachel	8	Panajachel	7	Julio	2023-07-13T00:00:00	2024-11-08T12:00:00	3	Temperatura mínima	24.6
48344	7	Sololá	710	Panajachel	8	Panajachel	7	Julio	2023-07-13T00:00:00	2024-11-08T12:00:00	5	Humedad	50
48345	7	Sololá	710	Panajachel	8	Panajachel	7	Julio	2023-07-13T00:00:00	2024-11-08T12:00:00	6	Velocidad del viento	4.8
48346	7	Sololá	710	Panajachel	8	Panajachel	7	Julio	2023-07-13T00:00:00	2024-11-08T12:00:00	7	Dirección del viento	4.83
48347	7	Sololá	710	Panajachel	8	Panajachel	7	Julio	2023-07-13T00:00:00	2024-11-08T12:00:00	1	Precipitación	0
48348	7	Sololá	710	Panajachel	8	Panajachel	7	Julio	2023-07-13T00:00:00	2024-11-08T12:00:00	8	Radiación solar	980
48349	7	Sololá	710	Panajachel	8	Panajachel	7	Julio	2023-07-13T00:00:00	2024-11-08T13:00:00	2	Temperatura media	26.3
48350	7	Sololá	710	Panajachel	8	Panajachel	7	Julio	2023-07-13T00:00:00	2024-11-08T13:00:00	4	Temperatura máxima	26.8
48351	7	Sololá	710	Panajachel	8	Panajachel	7	Julio	2023-07-13T00:00:00	2024-11-08T13:00:00	3	Temperatura mínima	26.3
48352	7	Sololá	710	Panajachel	8	Panajachel	7	Julio	2023-07-13T00:00:00	2024-11-08T13:00:00	5	Humedad	54
48353	7	Sololá	710	Panajachel	8	Panajachel	7	Julio	2023-07-13T00:00:00	2024-11-08T13:00:00	6	Velocidad del viento	3.2
48354	7	Sololá	710	Panajachel	8	Panajachel	7	Julio	2023-07-13T00:00:00	2024-11-08T13:00:00	7	Dirección del viento	3.22
48355	7	Sololá	710	Panajachel	8	Panajachel	7	Julio	2023-07-13T00:00:00	2024-11-08T13:00:00	1	Precipitación	0
48356	7	Sololá	710	Panajachel	8	Panajachel	7	Julio	2023-07-13T00:00:00	2024-11-08T13:00:00	8	Radiación solar	809
48357	7	Sololá	710	Panajachel	8	Panajachel	7	Julio	2023-07-13T00:00:00	2024-11-08T14:00:00	2	Temperatura media	26.4
48358	7	Sololá	710	Panajachel	8	Panajachel	7	Julio	2023-07-13T00:00:00	2024-11-08T14:00:00	4	Temperatura máxima	26.7
48359	7	Sololá	710	Panajachel	8	Panajachel	7	Julio	2023-07-13T00:00:00	2024-11-08T14:00:00	3	Temperatura mínima	26.2
48360	7	Sololá	710	Panajachel	8	Panajachel	7	Julio	2023-07-13T00:00:00	2024-11-08T14:00:00	5	Humedad	59
48361	7	Sololá	710	Panajachel	8	Panajachel	7	Julio	2023-07-13T00:00:00	2024-11-08T14:00:00	6	Velocidad del viento	3.2
48362	7	Sololá	710	Panajachel	8	Panajachel	7	Julio	2023-07-13T00:00:00	2024-11-08T14:00:00	7	Dirección del viento	3.22
48363	7	Sololá	710	Panajachel	8	Panajachel	7	Julio	2023-07-13T00:00:00	2024-11-08T14:00:00	1	Precipitación	0
48364	7	Sololá	710	Panajachel	8	Panajachel	7	Julio	2023-07-13T00:00:00	2024-11-08T14:00:00	8	Radiación solar	553
48365	7	Sololá	710	Panajachel	8	Panajachel	7	Julio	2023-07-13T00:00:00	2024-11-08T15:00:00	2	Temperatura media	25.2
48366	7	Sololá	710	Panajachel	8	Panajachel	7	Julio	2023-07-13T00:00:00	2024-11-08T15:00:00	4	Temperatura máxima	26.5
48367	7	Sololá	710	Panajachel	8	Panajachel	7	Julio	2023-07-13T00:00:00	2024-11-08T15:00:00	3	Temperatura mínima	25.2
48368	7	Sololá	710	Panajachel	8	Panajachel	7	Julio	2023-07-13T00:00:00	2024-11-08T15:00:00	5	Humedad	64
48369	7	Sololá	710	Panajachel	8	Panajachel	7	Julio	2023-07-13T00:00:00	2024-11-08T15:00:00	6	Velocidad del viento	4.8
48370	7	Sololá	710	Panajachel	8	Panajachel	7	Julio	2023-07-13T00:00:00	2024-11-08T15:00:00	7	Dirección del viento	4.83
48371	7	Sololá	710	Panajachel	8	Panajachel	7	Julio	2023-07-13T00:00:00	2024-11-08T15:00:00	1	Precipitación	0
48372	7	Sololá	710	Panajachel	8	Panajachel	7	Julio	2023-07-13T00:00:00	2024-11-08T15:00:00	8	Radiación solar	344
48373	7	Sololá	710	Panajachel	8	Panajachel	7	Julio	2023-07-13T00:00:00	2024-11-08T16:00:00	2	Temperatura media	26.7
48374	7	Sololá	710	Panajachel	8	Panajachel	7	Julio	2023-07-13T00:00:00	2024-11-08T16:00:00	4	Temperatura máxima	26.8
48375	7	Sololá	710	Panajachel	8	Panajachel	7	Julio	2023-07-13T00:00:00	2024-11-08T16:00:00	3	Temperatura mínima	25.2
48376	7	Sololá	710	Panajachel	8	Panajachel	7	Julio	2023-07-13T00:00:00	2024-11-08T16:00:00	5	Humedad	50
48377	7	Sololá	710	Panajachel	8	Panajachel	7	Julio	2023-07-13T00:00:00	2024-11-08T16:00:00	6	Velocidad del viento	4.8
48378	7	Sololá	710	Panajachel	8	Panajachel	7	Julio	2023-07-13T00:00:00	2024-11-08T16:00:00	7	Dirección del viento	4.83
48379	7	Sololá	710	Panajachel	8	Panajachel	7	Julio	2023-07-13T00:00:00	2024-11-08T16:00:00	1	Precipitación	0
48380	7	Sololá	710	Panajachel	8	Panajachel	7	Julio	2023-07-13T00:00:00	2024-11-08T16:00:00	8	Radiación solar	316
48381	7	Sololá	710	Panajachel	8	Panajachel	7	Julio	2023-07-13T00:00:00	2024-11-08T17:00:00	2	Temperatura media	25.9
48382	7	Sololá	710	Panajachel	8	Panajachel	7	Julio	2023-07-13T00:00:00	2024-11-08T17:00:00	4	Temperatura máxima	26.7
48383	7	Sololá	710	Panajachel	8	Panajachel	7	Julio	2023-07-13T00:00:00	2024-11-08T17:00:00	3	Temperatura mínima	25.9
48384	7	Sololá	710	Panajachel	8	Panajachel	7	Julio	2023-07-13T00:00:00	2024-11-08T17:00:00	5	Humedad	62
48385	7	Sololá	710	Panajachel	8	Panajachel	7	Julio	2023-07-13T00:00:00	2024-11-08T17:00:00	6	Velocidad del viento	8
48386	7	Sololá	710	Panajachel	8	Panajachel	7	Julio	2023-07-13T00:00:00	2024-11-08T17:00:00	7	Dirección del viento	8.05
48387	7	Sololá	710	Panajachel	8	Panajachel	7	Julio	2023-07-13T00:00:00	2024-11-08T17:00:00	1	Precipitación	0
48388	7	Sololá	710	Panajachel	8	Panajachel	7	Julio	2023-07-13T00:00:00	2024-11-08T17:00:00	8	Radiación solar	166
48389	7	Sololá	710	Panajachel	8	Panajachel	7	Julio	2023-07-13T00:00:00	2024-11-08T18:00:00	2	Temperatura media	22.8
48390	7	Sololá	710	Panajachel	8	Panajachel	7	Julio	2023-07-13T00:00:00	2024-11-08T18:00:00	4	Temperatura máxima	25.9
48391	7	Sololá	710	Panajachel	8	Panajachel	7	Julio	2023-07-13T00:00:00	2024-11-08T18:00:00	3	Temperatura mínima	22.8
48392	7	Sololá	710	Panajachel	8	Panajachel	7	Julio	2023-07-13T00:00:00	2024-11-08T18:00:00	5	Humedad	79
48393	7	Sololá	710	Panajachel	8	Panajachel	7	Julio	2023-07-13T00:00:00	2024-11-08T18:00:00	6	Velocidad del viento	3.2
48394	7	Sololá	710	Panajachel	8	Panajachel	7	Julio	2023-07-13T00:00:00	2024-11-08T18:00:00	7	Dirección del viento	3.22
48395	7	Sololá	710	Panajachel	8	Panajachel	7	Julio	2023-07-13T00:00:00	2024-11-08T18:00:00	1	Precipitación	0
48396	7	Sololá	710	Panajachel	8	Panajachel	7	Julio	2023-07-13T00:00:00	2024-11-08T18:00:00	8	Radiación solar	102
48397	7	Sololá	710	Panajachel	8	Panajachel	7	Julio	2023-07-13T00:00:00	2024-11-08T19:00:00	2	Temperatura media	21.9
48398	7	Sololá	710	Panajachel	8	Panajachel	7	Julio	2023-07-13T00:00:00	2024-11-08T19:00:00	4	Temperatura máxima	22.8
48399	7	Sololá	710	Panajachel	8	Panajachel	7	Julio	2023-07-13T00:00:00	2024-11-08T19:00:00	3	Temperatura mínima	21.9
48400	7	Sololá	710	Panajachel	8	Panajachel	7	Julio	2023-07-13T00:00:00	2024-11-08T19:00:00	5	Humedad	84
48401	7	Sololá	710	Panajachel	8	Panajachel	7	Julio	2023-07-13T00:00:00	2024-11-08T19:00:00	6	Velocidad del viento	1.6
48402	7	Sololá	710	Panajachel	8	Panajachel	7	Julio	2023-07-13T00:00:00	2024-11-08T19:00:00	7	Dirección del viento	1.61
48403	7	Sololá	710	Panajachel	8	Panajachel	7	Julio	2023-07-13T00:00:00	2024-11-08T19:00:00	1	Precipitación	0
48404	7	Sololá	710	Panajachel	8	Panajachel	7	Julio	2023-07-13T00:00:00	2024-11-08T19:00:00	8	Radiación solar	0
48405	7	Sololá	710	Panajachel	8	Panajachel	7	Julio	2023-07-13T00:00:00	2024-11-08T20:00:00	2	Temperatura media	22.6
48406	7	Sololá	710	Panajachel	8	Panajachel	7	Julio	2023-07-13T00:00:00	2024-11-08T20:00:00	4	Temperatura máxima	22.6
48407	7	Sololá	710	Panajachel	8	Panajachel	7	Julio	2023-07-13T00:00:00	2024-11-08T20:00:00	3	Temperatura mínima	21.7
48408	7	Sololá	710	Panajachel	8	Panajachel	7	Julio	2023-07-13T00:00:00	2024-11-08T20:00:00	5	Humedad	69
48409	7	Sololá	710	Panajachel	8	Panajachel	7	Julio	2023-07-13T00:00:00	2024-11-08T20:00:00	6	Velocidad del viento	4.8
48410	7	Sololá	710	Panajachel	8	Panajachel	7	Julio	2023-07-13T00:00:00	2024-11-08T20:00:00	7	Dirección del viento	4.83
48411	7	Sololá	710	Panajachel	8	Panajachel	7	Julio	2023-07-13T00:00:00	2024-11-08T20:00:00	1	Precipitación	0
48412	7	Sololá	710	Panajachel	8	Panajachel	7	Julio	2023-07-13T00:00:00	2024-11-08T20:00:00	8	Radiación solar	0
48413	7	Sololá	710	Panajachel	8	Panajachel	7	Julio	2023-07-13T00:00:00	2024-11-08T21:00:00	2	Temperatura media	21.7
48414	7	Sololá	710	Panajachel	8	Panajachel	7	Julio	2023-07-13T00:00:00	2024-11-08T21:00:00	4	Temperatura máxima	22.7
48415	7	Sololá	710	Panajachel	8	Panajachel	7	Julio	2023-07-13T00:00:00	2024-11-08T21:00:00	3	Temperatura mínima	21.7
48416	7	Sololá	710	Panajachel	8	Panajachel	7	Julio	2023-07-13T00:00:00	2024-11-08T21:00:00	5	Humedad	75
48417	7	Sololá	710	Panajachel	8	Panajachel	7	Julio	2023-07-13T00:00:00	2024-11-08T21:00:00	6	Velocidad del viento	3.2
48418	7	Sololá	710	Panajachel	8	Panajachel	7	Julio	2023-07-13T00:00:00	2024-11-08T21:00:00	7	Dirección del viento	3.22
48419	7	Sololá	710	Panajachel	8	Panajachel	7	Julio	2023-07-13T00:00:00	2024-11-08T21:00:00	1	Precipitación	0
48420	7	Sololá	710	Panajachel	8	Panajachel	7	Julio	2023-07-13T00:00:00	2024-11-08T21:00:00	8	Radiación solar	0
48421	7	Sololá	710	Panajachel	8	Panajachel	7	Julio	2023-07-13T00:00:00	2024-11-08T22:00:00	2	Temperatura media	20.6
48422	7	Sololá	710	Panajachel	8	Panajachel	7	Julio	2023-07-13T00:00:00	2024-11-08T22:00:00	4	Temperatura máxima	21.7
48423	7	Sololá	710	Panajachel	8	Panajachel	7	Julio	2023-07-13T00:00:00	2024-11-08T22:00:00	3	Temperatura mínima	20.6
48424	7	Sololá	710	Panajachel	8	Panajachel	7	Julio	2023-07-13T00:00:00	2024-11-08T22:00:00	5	Humedad	82
48425	7	Sololá	710	Panajachel	8	Panajachel	7	Julio	2023-07-13T00:00:00	2024-11-08T22:00:00	6	Velocidad del viento	1.6
48426	7	Sololá	710	Panajachel	8	Panajachel	7	Julio	2023-07-13T00:00:00	2024-11-08T22:00:00	7	Dirección del viento	1.61
48427	7	Sololá	710	Panajachel	8	Panajachel	7	Julio	2023-07-13T00:00:00	2024-11-08T22:00:00	1	Precipitación	0
48428	7	Sololá	710	Panajachel	8	Panajachel	7	Julio	2023-07-13T00:00:00	2024-11-08T22:00:00	8	Radiación solar	0
48429	7	Sololá	710	Panajachel	8	Panajachel	7	Julio	2023-07-13T00:00:00	2024-11-08T23:00:00	2	Temperatura media	18
48430	7	Sololá	710	Panajachel	8	Panajachel	7	Julio	2023-07-13T00:00:00	2024-11-08T23:00:00	4	Temperatura máxima	20.6
48431	7	Sololá	710	Panajachel	8	Panajachel	7	Julio	2023-07-13T00:00:00	2024-11-08T23:00:00	3	Temperatura mínima	18
48432	7	Sololá	710	Panajachel	8	Panajachel	7	Julio	2023-07-13T00:00:00	2024-11-08T23:00:00	5	Humedad	93
48433	7	Sololá	710	Panajachel	8	Panajachel	7	Julio	2023-07-13T00:00:00	2024-11-08T23:00:00	6	Velocidad del viento	3.2
48434	7	Sololá	710	Panajachel	8	Panajachel	7	Julio	2023-07-13T00:00:00	2024-11-08T23:00:00	7	Dirección del viento	3.22
48435	7	Sololá	710	Panajachel	8	Panajachel	7	Julio	2023-07-13T00:00:00	2024-11-08T23:00:00	1	Precipitación	5.6
48436	7	Sololá	710	Panajachel	8	Panajachel	7	Julio	2023-07-13T00:00:00	2024-11-08T23:00:00	8	Radiación solar	0
48437	7	Sololá	710	Panajachel	8	Panajachel	7	Julio	2023-07-14T00:00:00	2024-11-08T00:00:00	2	Temperatura media	17.1
48438	7	Sololá	710	Panajachel	8	Panajachel	7	Julio	2023-07-14T00:00:00	2024-11-08T00:00:00	4	Temperatura máxima	18.1
48439	7	Sololá	710	Panajachel	8	Panajachel	7	Julio	2023-07-14T00:00:00	2024-11-08T00:00:00	3	Temperatura mínima	17.1
48440	7	Sololá	710	Panajachel	8	Panajachel	7	Julio	2023-07-14T00:00:00	2024-11-08T00:00:00	5	Humedad	93
48441	7	Sololá	710	Panajachel	8	Panajachel	7	Julio	2023-07-14T00:00:00	2024-11-08T00:00:00	6	Velocidad del viento	4.8
48442	7	Sololá	710	Panajachel	8	Panajachel	7	Julio	2023-07-14T00:00:00	2024-11-08T00:00:00	7	Dirección del viento	4.83
48443	7	Sololá	710	Panajachel	8	Panajachel	7	Julio	2023-07-14T00:00:00	2024-11-08T00:00:00	1	Precipitación	3.2
48444	7	Sololá	710	Panajachel	8	Panajachel	7	Julio	2023-07-14T00:00:00	2024-11-08T00:00:00	8	Radiación solar	0
48445	7	Sololá	710	Panajachel	8	Panajachel	7	Julio	2023-07-14T00:00:00	2024-11-08T01:00:00	2	Temperatura media	17.2
48446	7	Sololá	710	Panajachel	8	Panajachel	7	Julio	2023-07-14T00:00:00	2024-11-08T01:00:00	4	Temperatura máxima	17.3
48447	7	Sololá	710	Panajachel	8	Panajachel	7	Julio	2023-07-14T00:00:00	2024-11-08T01:00:00	3	Temperatura mínima	17.1
48448	7	Sololá	710	Panajachel	8	Panajachel	7	Julio	2023-07-14T00:00:00	2024-11-08T01:00:00	5	Humedad	94
48449	7	Sololá	710	Panajachel	8	Panajachel	7	Julio	2023-07-14T00:00:00	2024-11-08T01:00:00	6	Velocidad del viento	3.2
48450	7	Sololá	710	Panajachel	8	Panajachel	7	Julio	2023-07-14T00:00:00	2024-11-08T01:00:00	7	Dirección del viento	3.22
48451	7	Sololá	710	Panajachel	8	Panajachel	7	Julio	2023-07-14T00:00:00	2024-11-08T01:00:00	1	Precipitación	2
48452	7	Sololá	710	Panajachel	8	Panajachel	7	Julio	2023-07-14T00:00:00	2024-11-08T01:00:00	8	Radiación solar	0
48453	7	Sololá	710	Panajachel	8	Panajachel	7	Julio	2023-07-14T00:00:00	2024-11-08T02:00:00	2	Temperatura media	16.9
48454	7	Sololá	710	Panajachel	8	Panajachel	7	Julio	2023-07-14T00:00:00	2024-11-08T02:00:00	4	Temperatura máxima	17.3
48455	7	Sololá	710	Panajachel	8	Panajachel	7	Julio	2023-07-14T00:00:00	2024-11-08T02:00:00	3	Temperatura mínima	16.9
48456	7	Sololá	710	Panajachel	8	Panajachel	7	Julio	2023-07-14T00:00:00	2024-11-08T02:00:00	5	Humedad	93
48457	7	Sololá	710	Panajachel	8	Panajachel	7	Julio	2023-07-14T00:00:00	2024-11-08T02:00:00	6	Velocidad del viento	1.6
48458	7	Sololá	710	Panajachel	8	Panajachel	7	Julio	2023-07-14T00:00:00	2024-11-08T02:00:00	7	Dirección del viento	1.61
48459	7	Sololá	710	Panajachel	8	Panajachel	7	Julio	2023-07-14T00:00:00	2024-11-08T02:00:00	1	Precipitación	0.4
48460	7	Sololá	710	Panajachel	8	Panajachel	7	Julio	2023-07-14T00:00:00	2024-11-08T02:00:00	8	Radiación solar	0
48461	7	Sololá	710	Panajachel	8	Panajachel	7	Julio	2023-07-14T00:00:00	2024-11-08T03:00:00	2	Temperatura media	16.7
48462	7	Sololá	710	Panajachel	8	Panajachel	7	Julio	2023-07-14T00:00:00	2024-11-08T03:00:00	4	Temperatura máxima	16.9
48463	7	Sololá	710	Panajachel	8	Panajachel	7	Julio	2023-07-14T00:00:00	2024-11-08T03:00:00	3	Temperatura mínima	16.6
48464	7	Sololá	710	Panajachel	8	Panajachel	7	Julio	2023-07-14T00:00:00	2024-11-08T03:00:00	5	Humedad	92
48465	7	Sololá	710	Panajachel	8	Panajachel	7	Julio	2023-07-14T00:00:00	2024-11-08T03:00:00	6	Velocidad del viento	4.8
48466	7	Sololá	710	Panajachel	8	Panajachel	7	Julio	2023-07-14T00:00:00	2024-11-08T03:00:00	7	Dirección del viento	4.83
48467	7	Sololá	710	Panajachel	8	Panajachel	7	Julio	2023-07-14T00:00:00	2024-11-08T03:00:00	1	Precipitación	0
48468	7	Sololá	710	Panajachel	8	Panajachel	7	Julio	2023-07-14T00:00:00	2024-11-08T03:00:00	8	Radiación solar	0
48469	7	Sololá	710	Panajachel	8	Panajachel	7	Julio	2023-07-14T00:00:00	2024-11-08T04:00:00	2	Temperatura media	16.6
48470	7	Sololá	710	Panajachel	8	Panajachel	7	Julio	2023-07-14T00:00:00	2024-11-08T04:00:00	4	Temperatura máxima	16.8
48471	7	Sololá	710	Panajachel	8	Panajachel	7	Julio	2023-07-14T00:00:00	2024-11-08T04:00:00	3	Temperatura mínima	16.5
48472	7	Sololá	710	Panajachel	8	Panajachel	7	Julio	2023-07-14T00:00:00	2024-11-08T04:00:00	5	Humedad	89
48473	7	Sololá	710	Panajachel	8	Panajachel	7	Julio	2023-07-14T00:00:00	2024-11-08T04:00:00	6	Velocidad del viento	3.2
48474	7	Sololá	710	Panajachel	8	Panajachel	7	Julio	2023-07-14T00:00:00	2024-11-08T04:00:00	7	Dirección del viento	3.22
48475	7	Sololá	710	Panajachel	8	Panajachel	7	Julio	2023-07-14T00:00:00	2024-11-08T04:00:00	1	Precipitación	0
48476	7	Sololá	710	Panajachel	8	Panajachel	7	Julio	2023-07-14T00:00:00	2024-11-08T04:00:00	8	Radiación solar	0
48477	7	Sololá	710	Panajachel	8	Panajachel	7	Julio	2023-07-14T00:00:00	2024-11-08T05:00:00	2	Temperatura media	19.6
48478	7	Sololá	710	Panajachel	8	Panajachel	7	Julio	2023-07-14T00:00:00	2024-11-08T05:00:00	4	Temperatura máxima	20.1
48479	7	Sololá	710	Panajachel	8	Panajachel	7	Julio	2023-07-14T00:00:00	2024-11-08T05:00:00	3	Temperatura mínima	16.6
48480	7	Sololá	710	Panajachel	8	Panajachel	7	Julio	2023-07-14T00:00:00	2024-11-08T05:00:00	5	Humedad	74
48481	7	Sololá	710	Panajachel	8	Panajachel	7	Julio	2023-07-14T00:00:00	2024-11-08T05:00:00	6	Velocidad del viento	8
48482	7	Sololá	710	Panajachel	8	Panajachel	7	Julio	2023-07-14T00:00:00	2024-11-08T05:00:00	7	Dirección del viento	8.05
48483	7	Sololá	710	Panajachel	8	Panajachel	7	Julio	2023-07-14T00:00:00	2024-11-08T05:00:00	1	Precipitación	0
48484	7	Sololá	710	Panajachel	8	Panajachel	7	Julio	2023-07-14T00:00:00	2024-11-08T05:00:00	8	Radiación solar	0
48485	7	Sololá	710	Panajachel	8	Panajachel	7	Julio	2023-07-14T00:00:00	2024-11-08T06:00:00	2	Temperatura media	20.1
48486	7	Sololá	710	Panajachel	8	Panajachel	7	Julio	2023-07-14T00:00:00	2024-11-08T06:00:00	4	Temperatura máxima	20.1
48487	7	Sololá	710	Panajachel	8	Panajachel	7	Julio	2023-07-14T00:00:00	2024-11-08T06:00:00	3	Temperatura mínima	18.9
48488	7	Sololá	710	Panajachel	8	Panajachel	7	Julio	2023-07-14T00:00:00	2024-11-08T06:00:00	5	Humedad	70
48489	7	Sololá	710	Panajachel	8	Panajachel	7	Julio	2023-07-14T00:00:00	2024-11-08T06:00:00	6	Velocidad del viento	8
48490	7	Sololá	710	Panajachel	8	Panajachel	7	Julio	2023-07-14T00:00:00	2024-11-08T06:00:00	7	Dirección del viento	8.05
48491	7	Sololá	710	Panajachel	8	Panajachel	7	Julio	2023-07-14T00:00:00	2024-11-08T06:00:00	1	Precipitación	0
48492	7	Sololá	710	Panajachel	8	Panajachel	7	Julio	2023-07-14T00:00:00	2024-11-08T06:00:00	8	Radiación solar	3
48493	7	Sololá	710	Panajachel	8	Panajachel	7	Julio	2023-07-14T00:00:00	2024-11-08T07:00:00	2	Temperatura media	20.5
48494	7	Sololá	710	Panajachel	8	Panajachel	7	Julio	2023-07-14T00:00:00	2024-11-08T07:00:00	4	Temperatura máxima	20.5
48495	7	Sololá	710	Panajachel	8	Panajachel	7	Julio	2023-07-14T00:00:00	2024-11-08T07:00:00	3	Temperatura mínima	19.9
48496	7	Sololá	710	Panajachel	8	Panajachel	7	Julio	2023-07-14T00:00:00	2024-11-08T07:00:00	5	Humedad	70
48497	7	Sololá	710	Panajachel	8	Panajachel	7	Julio	2023-07-14T00:00:00	2024-11-08T07:00:00	6	Velocidad del viento	11.3
48498	7	Sololá	710	Panajachel	8	Panajachel	7	Julio	2023-07-14T00:00:00	2024-11-08T07:00:00	7	Dirección del viento	11.27
48499	7	Sololá	710	Panajachel	8	Panajachel	7	Julio	2023-07-14T00:00:00	2024-11-08T07:00:00	1	Precipitación	0
48500	7	Sololá	710	Panajachel	8	Panajachel	7	Julio	2023-07-14T00:00:00	2024-11-08T07:00:00	8	Radiación solar	84
48501	7	Sololá	710	Panajachel	8	Panajachel	7	Julio	2023-07-14T00:00:00	2024-11-08T08:00:00	2	Temperatura media	21.3
48502	7	Sololá	710	Panajachel	8	Panajachel	7	Julio	2023-07-14T00:00:00	2024-11-08T08:00:00	4	Temperatura máxima	21.3
48503	7	Sololá	710	Panajachel	8	Panajachel	7	Julio	2023-07-14T00:00:00	2024-11-08T08:00:00	3	Temperatura mínima	20.5
48504	7	Sololá	710	Panajachel	8	Panajachel	7	Julio	2023-07-14T00:00:00	2024-11-08T08:00:00	5	Humedad	68
48505	7	Sololá	710	Panajachel	8	Panajachel	7	Julio	2023-07-14T00:00:00	2024-11-08T08:00:00	6	Velocidad del viento	11.3
48506	7	Sololá	710	Panajachel	8	Panajachel	7	Julio	2023-07-14T00:00:00	2024-11-08T08:00:00	7	Dirección del viento	11.27
48507	7	Sololá	710	Panajachel	8	Panajachel	7	Julio	2023-07-14T00:00:00	2024-11-08T08:00:00	1	Precipitación	0
48508	7	Sololá	710	Panajachel	8	Panajachel	7	Julio	2023-07-14T00:00:00	2024-11-08T08:00:00	8	Radiación solar	279
48509	7	Sololá	710	Panajachel	8	Panajachel	7	Julio	2023-07-14T00:00:00	2024-11-08T09:00:00	2	Temperatura media	21.8
48510	7	Sololá	710	Panajachel	8	Panajachel	7	Julio	2023-07-14T00:00:00	2024-11-08T09:00:00	4	Temperatura máxima	22
48511	7	Sololá	710	Panajachel	8	Panajachel	7	Julio	2023-07-14T00:00:00	2024-11-08T09:00:00	3	Temperatura mínima	21.2
48512	7	Sololá	710	Panajachel	8	Panajachel	7	Julio	2023-07-14T00:00:00	2024-11-08T09:00:00	5	Humedad	63
48513	7	Sololá	710	Panajachel	8	Panajachel	7	Julio	2023-07-14T00:00:00	2024-11-08T09:00:00	6	Velocidad del viento	16.1
48514	7	Sololá	710	Panajachel	8	Panajachel	7	Julio	2023-07-14T00:00:00	2024-11-08T09:00:00	7	Dirección del viento	16.09
48515	7	Sololá	710	Panajachel	8	Panajachel	7	Julio	2023-07-14T00:00:00	2024-11-08T09:00:00	1	Precipitación	0
48516	7	Sololá	710	Panajachel	8	Panajachel	7	Julio	2023-07-14T00:00:00	2024-11-08T09:00:00	8	Radiación solar	447
48517	7	Sololá	710	Panajachel	8	Panajachel	7	Julio	2023-07-14T00:00:00	2024-11-08T10:00:00	2	Temperatura media	23.9
48518	7	Sololá	710	Panajachel	8	Panajachel	7	Julio	2023-07-14T00:00:00	2024-11-08T10:00:00	4	Temperatura máxima	23.9
48519	7	Sololá	710	Panajachel	8	Panajachel	7	Julio	2023-07-14T00:00:00	2024-11-08T10:00:00	3	Temperatura mínima	21.8
48520	7	Sololá	710	Panajachel	8	Panajachel	7	Julio	2023-07-14T00:00:00	2024-11-08T10:00:00	5	Humedad	56
48521	7	Sololá	710	Panajachel	8	Panajachel	7	Julio	2023-07-14T00:00:00	2024-11-08T10:00:00	6	Velocidad del viento	14.5
48522	7	Sololá	710	Panajachel	8	Panajachel	7	Julio	2023-07-14T00:00:00	2024-11-08T10:00:00	7	Dirección del viento	14.48
48523	7	Sololá	710	Panajachel	8	Panajachel	7	Julio	2023-07-14T00:00:00	2024-11-08T10:00:00	1	Precipitación	0
48524	7	Sololá	710	Panajachel	8	Panajachel	7	Julio	2023-07-14T00:00:00	2024-11-08T10:00:00	8	Radiación solar	535
48525	7	Sololá	710	Panajachel	8	Panajachel	7	Julio	2023-07-14T00:00:00	2024-11-08T11:00:00	2	Temperatura media	25.8
48526	7	Sololá	710	Panajachel	8	Panajachel	7	Julio	2023-07-14T00:00:00	2024-11-08T11:00:00	4	Temperatura máxima	25.8
48527	7	Sololá	710	Panajachel	8	Panajachel	7	Julio	2023-07-14T00:00:00	2024-11-08T11:00:00	3	Temperatura mínima	23.9
48528	7	Sololá	710	Panajachel	8	Panajachel	7	Julio	2023-07-14T00:00:00	2024-11-08T11:00:00	5	Humedad	53
48529	7	Sololá	710	Panajachel	8	Panajachel	7	Julio	2023-07-14T00:00:00	2024-11-08T11:00:00	6	Velocidad del viento	9.7
48530	7	Sololá	710	Panajachel	8	Panajachel	7	Julio	2023-07-14T00:00:00	2024-11-08T11:00:00	7	Dirección del viento	9.66
48531	7	Sololá	710	Panajachel	8	Panajachel	7	Julio	2023-07-14T00:00:00	2024-11-08T11:00:00	1	Precipitación	0
48532	7	Sololá	710	Panajachel	8	Panajachel	7	Julio	2023-07-14T00:00:00	2024-11-08T11:00:00	8	Radiación solar	879
48533	7	Sololá	710	Panajachel	8	Panajachel	7	Julio	2023-07-14T00:00:00	2024-11-08T12:00:00	2	Temperatura media	26.2
48534	7	Sololá	710	Panajachel	8	Panajachel	7	Julio	2023-07-14T00:00:00	2024-11-08T12:00:00	4	Temperatura máxima	26.2
48535	7	Sololá	710	Panajachel	8	Panajachel	7	Julio	2023-07-14T00:00:00	2024-11-08T12:00:00	3	Temperatura mínima	25.8
48536	7	Sololá	710	Panajachel	8	Panajachel	7	Julio	2023-07-14T00:00:00	2024-11-08T12:00:00	5	Humedad	55
48537	7	Sololá	710	Panajachel	8	Panajachel	7	Julio	2023-07-14T00:00:00	2024-11-08T12:00:00	6	Velocidad del viento	6.4
48538	7	Sololá	710	Panajachel	8	Panajachel	7	Julio	2023-07-14T00:00:00	2024-11-08T12:00:00	7	Dirección del viento	6.44
48539	7	Sololá	710	Panajachel	8	Panajachel	7	Julio	2023-07-14T00:00:00	2024-11-08T12:00:00	1	Precipitación	0
48540	7	Sololá	710	Panajachel	8	Panajachel	7	Julio	2023-07-14T00:00:00	2024-11-08T12:00:00	8	Radiación solar	739
48541	7	Sololá	710	Panajachel	8	Panajachel	7	Julio	2023-07-14T00:00:00	2024-11-08T13:00:00	2	Temperatura media	26.2
48542	7	Sololá	710	Panajachel	8	Panajachel	7	Julio	2023-07-14T00:00:00	2024-11-08T13:00:00	4	Temperatura máxima	26.4
48543	7	Sololá	710	Panajachel	8	Panajachel	7	Julio	2023-07-14T00:00:00	2024-11-08T13:00:00	3	Temperatura mínima	26
48544	7	Sololá	710	Panajachel	8	Panajachel	7	Julio	2023-07-14T00:00:00	2024-11-08T13:00:00	5	Humedad	53
48545	7	Sololá	710	Panajachel	8	Panajachel	7	Julio	2023-07-14T00:00:00	2024-11-08T13:00:00	6	Velocidad del viento	11.3
48546	7	Sololá	710	Panajachel	8	Panajachel	7	Julio	2023-07-14T00:00:00	2024-11-08T13:00:00	7	Dirección del viento	11.27
48547	7	Sololá	710	Panajachel	8	Panajachel	7	Julio	2023-07-14T00:00:00	2024-11-08T13:00:00	1	Precipitación	0
48548	7	Sololá	710	Panajachel	8	Panajachel	7	Julio	2023-07-14T00:00:00	2024-11-08T13:00:00	8	Radiación solar	820
48549	7	Sololá	710	Panajachel	8	Panajachel	7	Julio	2023-07-14T00:00:00	2024-11-08T14:00:00	2	Temperatura media	27.4
48550	7	Sololá	710	Panajachel	8	Panajachel	7	Julio	2023-07-14T00:00:00	2024-11-08T14:00:00	4	Temperatura máxima	27.4
48551	7	Sololá	710	Panajachel	8	Panajachel	7	Julio	2023-07-14T00:00:00	2024-11-08T14:00:00	3	Temperatura mínima	26.2
48552	7	Sololá	710	Panajachel	8	Panajachel	7	Julio	2023-07-14T00:00:00	2024-11-08T14:00:00	5	Humedad	52
48553	7	Sololá	710	Panajachel	8	Panajachel	7	Julio	2023-07-14T00:00:00	2024-11-08T14:00:00	6	Velocidad del viento	11.3
48554	7	Sololá	710	Panajachel	8	Panajachel	7	Julio	2023-07-14T00:00:00	2024-11-08T14:00:00	7	Dirección del viento	11.27
48555	7	Sololá	710	Panajachel	8	Panajachel	7	Julio	2023-07-14T00:00:00	2024-11-08T14:00:00	1	Precipitación	0
48556	7	Sololá	710	Panajachel	8	Panajachel	7	Julio	2023-07-14T00:00:00	2024-11-08T14:00:00	8	Radiación solar	902
48557	7	Sololá	710	Panajachel	8	Panajachel	7	Julio	2023-07-14T00:00:00	2024-11-08T15:00:00	2	Temperatura media	26.5
48558	7	Sololá	710	Panajachel	8	Panajachel	7	Julio	2023-07-14T00:00:00	2024-11-08T15:00:00	4	Temperatura máxima	27.4
48559	7	Sololá	710	Panajachel	8	Panajachel	7	Julio	2023-07-14T00:00:00	2024-11-08T15:00:00	3	Temperatura mínima	26.5
48560	7	Sololá	710	Panajachel	8	Panajachel	7	Julio	2023-07-14T00:00:00	2024-11-08T15:00:00	5	Humedad	52
48561	7	Sololá	710	Panajachel	8	Panajachel	7	Julio	2023-07-14T00:00:00	2024-11-08T15:00:00	6	Velocidad del viento	11.3
48562	7	Sololá	710	Panajachel	8	Panajachel	7	Julio	2023-07-14T00:00:00	2024-11-08T15:00:00	7	Dirección del viento	11.27
48563	7	Sololá	710	Panajachel	8	Panajachel	7	Julio	2023-07-14T00:00:00	2024-11-08T15:00:00	1	Precipitación	0
48564	7	Sololá	710	Panajachel	8	Panajachel	7	Julio	2023-07-14T00:00:00	2024-11-08T15:00:00	8	Radiación solar	762
48565	7	Sololá	710	Panajachel	8	Panajachel	7	Julio	2023-07-14T00:00:00	2024-11-08T16:00:00	2	Temperatura media	26.1
48566	7	Sololá	710	Panajachel	8	Panajachel	7	Julio	2023-07-14T00:00:00	2024-11-08T16:00:00	4	Temperatura máxima	26.7
48567	7	Sololá	710	Panajachel	8	Panajachel	7	Julio	2023-07-14T00:00:00	2024-11-08T16:00:00	3	Temperatura mínima	26.1
48568	7	Sololá	710	Panajachel	8	Panajachel	7	Julio	2023-07-14T00:00:00	2024-11-08T16:00:00	5	Humedad	54
48569	7	Sololá	710	Panajachel	8	Panajachel	7	Julio	2023-07-14T00:00:00	2024-11-08T16:00:00	6	Velocidad del viento	8
48570	7	Sololá	710	Panajachel	8	Panajachel	7	Julio	2023-07-14T00:00:00	2024-11-08T16:00:00	7	Dirección del viento	8.05
48571	7	Sololá	710	Panajachel	8	Panajachel	7	Julio	2023-07-14T00:00:00	2024-11-08T16:00:00	1	Precipitación	0
48572	7	Sololá	710	Panajachel	8	Panajachel	7	Julio	2023-07-14T00:00:00	2024-11-08T16:00:00	8	Radiación solar	375
48573	7	Sololá	710	Panajachel	8	Panajachel	7	Julio	2023-07-14T00:00:00	2024-11-08T17:00:00	2	Temperatura media	24.7
48574	7	Sololá	710	Panajachel	8	Panajachel	7	Julio	2023-07-14T00:00:00	2024-11-08T17:00:00	4	Temperatura máxima	26.1
48575	7	Sololá	710	Panajachel	8	Panajachel	7	Julio	2023-07-14T00:00:00	2024-11-08T17:00:00	3	Temperatura mínima	24.7
48576	7	Sololá	710	Panajachel	8	Panajachel	7	Julio	2023-07-14T00:00:00	2024-11-08T17:00:00	5	Humedad	57
48577	7	Sololá	710	Panajachel	8	Panajachel	7	Julio	2023-07-14T00:00:00	2024-11-08T17:00:00	6	Velocidad del viento	6.4
48578	7	Sololá	710	Panajachel	8	Panajachel	7	Julio	2023-07-14T00:00:00	2024-11-08T17:00:00	7	Dirección del viento	6.44
48579	7	Sololá	710	Panajachel	8	Panajachel	7	Julio	2023-07-14T00:00:00	2024-11-08T17:00:00	1	Precipitación	0
48580	7	Sololá	710	Panajachel	8	Panajachel	7	Julio	2023-07-14T00:00:00	2024-11-08T17:00:00	8	Radiación solar	194
48581	7	Sololá	710	Panajachel	8	Panajachel	7	Julio	2023-07-14T00:00:00	2024-11-08T18:00:00	2	Temperatura media	24.3
48582	7	Sololá	710	Panajachel	8	Panajachel	7	Julio	2023-07-14T00:00:00	2024-11-08T18:00:00	4	Temperatura máxima	24.7
48583	7	Sololá	710	Panajachel	8	Panajachel	7	Julio	2023-07-14T00:00:00	2024-11-08T18:00:00	3	Temperatura mínima	24.2
48584	7	Sololá	710	Panajachel	8	Panajachel	7	Julio	2023-07-14T00:00:00	2024-11-08T18:00:00	5	Humedad	59
48585	7	Sololá	710	Panajachel	8	Panajachel	7	Julio	2023-07-14T00:00:00	2024-11-08T18:00:00	6	Velocidad del viento	3.2
48586	7	Sololá	710	Panajachel	8	Panajachel	7	Julio	2023-07-14T00:00:00	2024-11-08T18:00:00	7	Dirección del viento	3.22
48587	7	Sololá	710	Panajachel	8	Panajachel	7	Julio	2023-07-14T00:00:00	2024-11-08T18:00:00	1	Precipitación	0
48588	7	Sololá	710	Panajachel	8	Panajachel	7	Julio	2023-07-14T00:00:00	2024-11-08T18:00:00	8	Radiación solar	97
48589	7	Sololá	710	Panajachel	8	Panajachel	7	Julio	2023-07-14T00:00:00	2024-11-08T19:00:00	2	Temperatura media	22.9
48590	7	Sololá	710	Panajachel	8	Panajachel	7	Julio	2023-07-14T00:00:00	2024-11-08T19:00:00	4	Temperatura máxima	24.3
48591	7	Sololá	710	Panajachel	8	Panajachel	7	Julio	2023-07-14T00:00:00	2024-11-08T19:00:00	3	Temperatura mínima	22.8
48592	7	Sololá	710	Panajachel	8	Panajachel	7	Julio	2023-07-14T00:00:00	2024-11-08T19:00:00	5	Humedad	65
48593	7	Sololá	710	Panajachel	8	Panajachel	7	Julio	2023-07-14T00:00:00	2024-11-08T19:00:00	6	Velocidad del viento	3.2
48594	7	Sololá	710	Panajachel	8	Panajachel	7	Julio	2023-07-14T00:00:00	2024-11-08T19:00:00	7	Dirección del viento	3.22
48595	7	Sololá	710	Panajachel	8	Panajachel	7	Julio	2023-07-14T00:00:00	2024-11-08T19:00:00	1	Precipitación	0
48596	7	Sololá	710	Panajachel	8	Panajachel	7	Julio	2023-07-14T00:00:00	2024-11-08T19:00:00	8	Radiación solar	0
48597	7	Sololá	710	Panajachel	8	Panajachel	7	Julio	2023-07-14T00:00:00	2024-11-08T20:00:00	2	Temperatura media	21.4
48598	7	Sololá	710	Panajachel	8	Panajachel	7	Julio	2023-07-14T00:00:00	2024-11-08T20:00:00	4	Temperatura máxima	22.8
48599	7	Sololá	710	Panajachel	8	Panajachel	7	Julio	2023-07-14T00:00:00	2024-11-08T20:00:00	3	Temperatura mínima	21.4
48600	7	Sololá	710	Panajachel	8	Panajachel	7	Julio	2023-07-14T00:00:00	2024-11-08T20:00:00	5	Humedad	73
48601	7	Sololá	710	Panajachel	8	Panajachel	7	Julio	2023-07-14T00:00:00	2024-11-08T20:00:00	6	Velocidad del viento	0
48602	7	Sololá	710	Panajachel	8	Panajachel	7	Julio	2023-07-14T00:00:00	2024-11-08T20:00:00	7	Dirección del viento	0
48603	7	Sololá	710	Panajachel	8	Panajachel	7	Julio	2023-07-14T00:00:00	2024-11-08T20:00:00	1	Precipitación	0
48604	7	Sololá	710	Panajachel	8	Panajachel	7	Julio	2023-07-14T00:00:00	2024-11-08T20:00:00	8	Radiación solar	0
48605	7	Sololá	710	Panajachel	8	Panajachel	7	Julio	2023-07-14T00:00:00	2024-11-08T21:00:00	2	Temperatura media	21.9
48606	7	Sololá	710	Panajachel	8	Panajachel	7	Julio	2023-07-14T00:00:00	2024-11-08T21:00:00	4	Temperatura máxima	22
48607	7	Sololá	710	Panajachel	8	Panajachel	7	Julio	2023-07-14T00:00:00	2024-11-08T21:00:00	3	Temperatura mínima	21
48608	7	Sololá	710	Panajachel	8	Panajachel	7	Julio	2023-07-14T00:00:00	2024-11-08T21:00:00	5	Humedad	70
48609	7	Sololá	710	Panajachel	8	Panajachel	7	Julio	2023-07-14T00:00:00	2024-11-08T21:00:00	6	Velocidad del viento	4.8
48610	7	Sololá	710	Panajachel	8	Panajachel	7	Julio	2023-07-14T00:00:00	2024-11-08T21:00:00	7	Dirección del viento	4.83
48611	7	Sololá	710	Panajachel	8	Panajachel	7	Julio	2023-07-14T00:00:00	2024-11-08T21:00:00	1	Precipitación	0
48612	7	Sololá	710	Panajachel	8	Panajachel	7	Julio	2023-07-14T00:00:00	2024-11-08T21:00:00	8	Radiación solar	0
48613	7	Sololá	710	Panajachel	8	Panajachel	7	Julio	2023-07-14T00:00:00	2024-11-08T22:00:00	2	Temperatura media	21.6
48614	7	Sololá	710	Panajachel	8	Panajachel	7	Julio	2023-07-14T00:00:00	2024-11-08T22:00:00	4	Temperatura máxima	21.9
48615	7	Sololá	710	Panajachel	8	Panajachel	7	Julio	2023-07-14T00:00:00	2024-11-08T22:00:00	3	Temperatura mínima	21.6
48616	7	Sololá	710	Panajachel	8	Panajachel	7	Julio	2023-07-14T00:00:00	2024-11-08T22:00:00	5	Humedad	68
48617	7	Sololá	710	Panajachel	8	Panajachel	7	Julio	2023-07-14T00:00:00	2024-11-08T22:00:00	6	Velocidad del viento	9.7
48618	7	Sololá	710	Panajachel	8	Panajachel	7	Julio	2023-07-14T00:00:00	2024-11-08T22:00:00	7	Dirección del viento	9.66
48619	7	Sololá	710	Panajachel	8	Panajachel	7	Julio	2023-07-14T00:00:00	2024-11-08T22:00:00	1	Precipitación	0
48620	7	Sololá	710	Panajachel	8	Panajachel	7	Julio	2023-07-14T00:00:00	2024-11-08T22:00:00	8	Radiación solar	0
48621	7	Sololá	710	Panajachel	8	Panajachel	7	Julio	2023-07-14T00:00:00	2024-11-08T23:00:00	2	Temperatura media	21.2
48622	7	Sololá	710	Panajachel	8	Panajachel	7	Julio	2023-07-14T00:00:00	2024-11-08T23:00:00	4	Temperatura máxima	21.7
48623	7	Sololá	710	Panajachel	8	Panajachel	7	Julio	2023-07-14T00:00:00	2024-11-08T23:00:00	3	Temperatura mínima	21.1
48624	7	Sololá	710	Panajachel	8	Panajachel	7	Julio	2023-07-14T00:00:00	2024-11-08T23:00:00	5	Humedad	68
48625	7	Sololá	710	Panajachel	8	Panajachel	7	Julio	2023-07-14T00:00:00	2024-11-08T23:00:00	6	Velocidad del viento	9.7
48626	7	Sololá	710	Panajachel	8	Panajachel	7	Julio	2023-07-14T00:00:00	2024-11-08T23:00:00	7	Dirección del viento	9.66
48627	7	Sololá	710	Panajachel	8	Panajachel	7	Julio	2023-07-14T00:00:00	2024-11-08T23:00:00	1	Precipitación	0
48628	7	Sololá	710	Panajachel	8	Panajachel	7	Julio	2023-07-14T00:00:00	2024-11-08T23:00:00	8	Radiación solar	0
48629	7	Sololá	710	Panajachel	8	Panajachel	7	Julio	2023-07-15T00:00:00	2024-11-08T00:00:00	2	Temperatura media	20.9
48630	7	Sololá	710	Panajachel	8	Panajachel	7	Julio	2023-07-15T00:00:00	2024-11-08T00:00:00	4	Temperatura máxima	21.2
48631	7	Sololá	710	Panajachel	8	Panajachel	7	Julio	2023-07-15T00:00:00	2024-11-08T00:00:00	3	Temperatura mínima	20.9
48632	7	Sololá	710	Panajachel	8	Panajachel	7	Julio	2023-07-15T00:00:00	2024-11-08T00:00:00	5	Humedad	69
48633	7	Sololá	710	Panajachel	8	Panajachel	7	Julio	2023-07-15T00:00:00	2024-11-08T00:00:00	6	Velocidad del viento	8
48634	7	Sololá	710	Panajachel	8	Panajachel	7	Julio	2023-07-15T00:00:00	2024-11-08T00:00:00	7	Dirección del viento	8.05
48635	7	Sololá	710	Panajachel	8	Panajachel	7	Julio	2023-07-15T00:00:00	2024-11-08T00:00:00	1	Precipitación	0
48636	7	Sololá	710	Panajachel	8	Panajachel	7	Julio	2023-07-15T00:00:00	2024-11-08T00:00:00	8	Radiación solar	0
48637	7	Sololá	710	Panajachel	8	Panajachel	7	Julio	2023-07-15T00:00:00	2024-11-08T01:00:00	2	Temperatura media	20.7
48638	7	Sololá	710	Panajachel	8	Panajachel	7	Julio	2023-07-15T00:00:00	2024-11-08T01:00:00	4	Temperatura máxima	21
48639	7	Sololá	710	Panajachel	8	Panajachel	7	Julio	2023-07-15T00:00:00	2024-11-08T01:00:00	3	Temperatura mínima	20.6
48640	7	Sololá	710	Panajachel	8	Panajachel	7	Julio	2023-07-15T00:00:00	2024-11-08T01:00:00	5	Humedad	70
48641	7	Sololá	710	Panajachel	8	Panajachel	7	Julio	2023-07-15T00:00:00	2024-11-08T01:00:00	6	Velocidad del viento	6.4
48642	7	Sololá	710	Panajachel	8	Panajachel	7	Julio	2023-07-15T00:00:00	2024-11-08T01:00:00	7	Dirección del viento	6.44
48643	7	Sololá	710	Panajachel	8	Panajachel	7	Julio	2023-07-15T00:00:00	2024-11-08T01:00:00	1	Precipitación	0
48644	7	Sololá	710	Panajachel	8	Panajachel	7	Julio	2023-07-15T00:00:00	2024-11-08T01:00:00	8	Radiación solar	0
48645	7	Sololá	710	Panajachel	8	Panajachel	7	Julio	2023-07-15T00:00:00	2024-11-08T02:00:00	2	Temperatura media	20.2
48646	7	Sololá	710	Panajachel	8	Panajachel	7	Julio	2023-07-15T00:00:00	2024-11-08T02:00:00	4	Temperatura máxima	20.7
48647	7	Sololá	710	Panajachel	8	Panajachel	7	Julio	2023-07-15T00:00:00	2024-11-08T02:00:00	3	Temperatura mínima	20.2
48648	7	Sololá	710	Panajachel	8	Panajachel	7	Julio	2023-07-15T00:00:00	2024-11-08T02:00:00	5	Humedad	70
48649	7	Sololá	710	Panajachel	8	Panajachel	7	Julio	2023-07-15T00:00:00	2024-11-08T02:00:00	6	Velocidad del viento	4.8
48650	7	Sololá	710	Panajachel	8	Panajachel	7	Julio	2023-07-15T00:00:00	2024-11-08T02:00:00	7	Dirección del viento	4.83
48651	7	Sololá	710	Panajachel	8	Panajachel	7	Julio	2023-07-15T00:00:00	2024-11-08T02:00:00	1	Precipitación	0
48652	7	Sololá	710	Panajachel	8	Panajachel	7	Julio	2023-07-15T00:00:00	2024-11-08T02:00:00	8	Radiación solar	0
48653	7	Sololá	710	Panajachel	8	Panajachel	7	Julio	2023-07-15T00:00:00	2024-11-08T03:00:00	2	Temperatura media	19
48654	7	Sololá	710	Panajachel	8	Panajachel	7	Julio	2023-07-15T00:00:00	2024-11-08T03:00:00	4	Temperatura máxima	20.3
48655	7	Sololá	710	Panajachel	8	Panajachel	7	Julio	2023-07-15T00:00:00	2024-11-08T03:00:00	3	Temperatura mínima	19
48656	7	Sololá	710	Panajachel	8	Panajachel	7	Julio	2023-07-15T00:00:00	2024-11-08T03:00:00	5	Humedad	75
48657	7	Sololá	710	Panajachel	8	Panajachel	7	Julio	2023-07-15T00:00:00	2024-11-08T03:00:00	6	Velocidad del viento	0
48658	7	Sololá	710	Panajachel	8	Panajachel	7	Julio	2023-07-15T00:00:00	2024-11-08T03:00:00	7	Dirección del viento	0
48659	7	Sololá	710	Panajachel	8	Panajachel	7	Julio	2023-07-15T00:00:00	2024-11-08T03:00:00	1	Precipitación	0
48660	7	Sololá	710	Panajachel	8	Panajachel	7	Julio	2023-07-15T00:00:00	2024-11-08T03:00:00	8	Radiación solar	0
48661	7	Sololá	710	Panajachel	8	Panajachel	7	Julio	2023-07-15T00:00:00	2024-11-08T04:00:00	2	Temperatura media	19.9
48662	7	Sololá	710	Panajachel	8	Panajachel	7	Julio	2023-07-15T00:00:00	2024-11-08T04:00:00	4	Temperatura máxima	19.9
48663	7	Sololá	710	Panajachel	8	Panajachel	7	Julio	2023-07-15T00:00:00	2024-11-08T04:00:00	3	Temperatura mínima	18.1
48664	7	Sololá	710	Panajachel	8	Panajachel	7	Julio	2023-07-15T00:00:00	2024-11-08T04:00:00	5	Humedad	73
48665	7	Sololá	710	Panajachel	8	Panajachel	7	Julio	2023-07-15T00:00:00	2024-11-08T04:00:00	6	Velocidad del viento	1.6
48666	7	Sololá	710	Panajachel	8	Panajachel	7	Julio	2023-07-15T00:00:00	2024-11-08T04:00:00	7	Dirección del viento	1.61
48667	7	Sololá	710	Panajachel	8	Panajachel	7	Julio	2023-07-15T00:00:00	2024-11-08T04:00:00	1	Precipitación	0
48668	7	Sololá	710	Panajachel	8	Panajachel	7	Julio	2023-07-15T00:00:00	2024-11-08T04:00:00	8	Radiación solar	0
48669	7	Sololá	710	Panajachel	8	Panajachel	7	Julio	2023-07-15T00:00:00	2024-11-08T05:00:00	2	Temperatura media	20.4
48670	7	Sololá	710	Panajachel	8	Panajachel	7	Julio	2023-07-15T00:00:00	2024-11-08T05:00:00	4	Temperatura máxima	20.5
48671	7	Sololá	710	Panajachel	8	Panajachel	7	Julio	2023-07-15T00:00:00	2024-11-08T05:00:00	3	Temperatura mínima	19.4
48672	7	Sololá	710	Panajachel	8	Panajachel	7	Julio	2023-07-15T00:00:00	2024-11-08T05:00:00	5	Humedad	71
48673	7	Sololá	710	Panajachel	8	Panajachel	7	Julio	2023-07-15T00:00:00	2024-11-08T05:00:00	6	Velocidad del viento	3.2
48674	7	Sololá	710	Panajachel	8	Panajachel	7	Julio	2023-07-15T00:00:00	2024-11-08T05:00:00	7	Dirección del viento	3.22
48675	7	Sololá	710	Panajachel	8	Panajachel	7	Julio	2023-07-15T00:00:00	2024-11-08T05:00:00	1	Precipitación	0
48676	7	Sololá	710	Panajachel	8	Panajachel	7	Julio	2023-07-15T00:00:00	2024-11-08T05:00:00	8	Radiación solar	0
48677	7	Sololá	710	Panajachel	8	Panajachel	7	Julio	2023-07-15T00:00:00	2024-11-08T06:00:00	2	Temperatura media	20.5
48678	7	Sololá	710	Panajachel	8	Panajachel	7	Julio	2023-07-15T00:00:00	2024-11-08T06:00:00	4	Temperatura máxima	20.5
48679	7	Sololá	710	Panajachel	8	Panajachel	7	Julio	2023-07-15T00:00:00	2024-11-08T06:00:00	3	Temperatura mínima	19.8
48680	7	Sololá	710	Panajachel	8	Panajachel	7	Julio	2023-07-15T00:00:00	2024-11-08T06:00:00	5	Humedad	70
48681	7	Sololá	710	Panajachel	8	Panajachel	7	Julio	2023-07-15T00:00:00	2024-11-08T06:00:00	6	Velocidad del viento	6.4
48682	7	Sololá	710	Panajachel	8	Panajachel	7	Julio	2023-07-15T00:00:00	2024-11-08T06:00:00	7	Dirección del viento	6.44
48683	7	Sololá	710	Panajachel	8	Panajachel	7	Julio	2023-07-15T00:00:00	2024-11-08T06:00:00	1	Precipitación	0
48684	7	Sololá	710	Panajachel	8	Panajachel	7	Julio	2023-07-15T00:00:00	2024-11-08T06:00:00	8	Radiación solar	1
48685	7	Sololá	710	Panajachel	8	Panajachel	7	Julio	2023-07-15T00:00:00	2024-11-08T07:00:00	2	Temperatura media	20.3
48686	7	Sololá	710	Panajachel	8	Panajachel	7	Julio	2023-07-15T00:00:00	2024-11-08T07:00:00	4	Temperatura máxima	20.5
48687	7	Sololá	710	Panajachel	8	Panajachel	7	Julio	2023-07-15T00:00:00	2024-11-08T07:00:00	3	Temperatura mínima	20.2
48688	7	Sololá	710	Panajachel	8	Panajachel	7	Julio	2023-07-15T00:00:00	2024-11-08T07:00:00	5	Humedad	75
48689	7	Sololá	710	Panajachel	8	Panajachel	7	Julio	2023-07-15T00:00:00	2024-11-08T07:00:00	6	Velocidad del viento	6.4
48690	7	Sololá	710	Panajachel	8	Panajachel	7	Julio	2023-07-15T00:00:00	2024-11-08T07:00:00	7	Dirección del viento	6.44
48691	7	Sololá	710	Panajachel	8	Panajachel	7	Julio	2023-07-15T00:00:00	2024-11-08T07:00:00	1	Precipitación	0
48692	7	Sololá	710	Panajachel	8	Panajachel	7	Julio	2023-07-15T00:00:00	2024-11-08T07:00:00	8	Radiación solar	46
48693	7	Sololá	710	Panajachel	8	Panajachel	7	Julio	2023-07-15T00:00:00	2024-11-08T08:00:00	2	Temperatura media	21.8
48694	7	Sololá	710	Panajachel	8	Panajachel	7	Julio	2023-07-15T00:00:00	2024-11-08T08:00:00	4	Temperatura máxima	21.8
48695	7	Sololá	710	Panajachel	8	Panajachel	7	Julio	2023-07-15T00:00:00	2024-11-08T08:00:00	3	Temperatura mínima	20.1
48696	7	Sololá	710	Panajachel	8	Panajachel	7	Julio	2023-07-15T00:00:00	2024-11-08T08:00:00	5	Humedad	70
48697	7	Sololá	710	Panajachel	8	Panajachel	7	Julio	2023-07-15T00:00:00	2024-11-08T08:00:00	6	Velocidad del viento	4.8
48698	7	Sololá	710	Panajachel	8	Panajachel	7	Julio	2023-07-15T00:00:00	2024-11-08T08:00:00	7	Dirección del viento	4.83
48699	7	Sololá	710	Panajachel	8	Panajachel	7	Julio	2023-07-15T00:00:00	2024-11-08T08:00:00	1	Precipitación	0
48700	7	Sololá	710	Panajachel	8	Panajachel	7	Julio	2023-07-15T00:00:00	2024-11-08T08:00:00	8	Radiación solar	179
48701	7	Sololá	710	Panajachel	8	Panajachel	7	Julio	2023-07-15T00:00:00	2024-11-08T09:00:00	2	Temperatura media	23.6
48702	7	Sololá	710	Panajachel	8	Panajachel	7	Julio	2023-07-15T00:00:00	2024-11-08T09:00:00	4	Temperatura máxima	23.6
48703	7	Sololá	710	Panajachel	8	Panajachel	7	Julio	2023-07-15T00:00:00	2024-11-08T09:00:00	3	Temperatura mínima	21.8
48704	7	Sololá	710	Panajachel	8	Panajachel	7	Julio	2023-07-15T00:00:00	2024-11-08T09:00:00	5	Humedad	67
48705	7	Sololá	710	Panajachel	8	Panajachel	7	Julio	2023-07-15T00:00:00	2024-11-08T09:00:00	6	Velocidad del viento	4.8
48706	7	Sololá	710	Panajachel	8	Panajachel	7	Julio	2023-07-15T00:00:00	2024-11-08T09:00:00	7	Dirección del viento	4.83
48707	7	Sololá	710	Panajachel	8	Panajachel	7	Julio	2023-07-15T00:00:00	2024-11-08T09:00:00	1	Precipitación	0
48708	7	Sololá	710	Panajachel	8	Panajachel	7	Julio	2023-07-15T00:00:00	2024-11-08T09:00:00	8	Radiación solar	318
48709	7	Sololá	710	Panajachel	8	Panajachel	7	Julio	2023-07-15T00:00:00	2024-11-08T10:00:00	2	Temperatura media	23.9
48710	7	Sololá	710	Panajachel	8	Panajachel	7	Julio	2023-07-15T00:00:00	2024-11-08T10:00:00	4	Temperatura máxima	24
48711	7	Sololá	710	Panajachel	8	Panajachel	7	Julio	2023-07-15T00:00:00	2024-11-08T10:00:00	3	Temperatura mínima	23.3
48712	7	Sololá	710	Panajachel	8	Panajachel	7	Julio	2023-07-15T00:00:00	2024-11-08T10:00:00	5	Humedad	67
48713	7	Sololá	710	Panajachel	8	Panajachel	7	Julio	2023-07-15T00:00:00	2024-11-08T10:00:00	6	Velocidad del viento	0
48714	7	Sololá	710	Panajachel	8	Panajachel	7	Julio	2023-07-15T00:00:00	2024-11-08T10:00:00	7	Dirección del viento	0
48715	7	Sololá	710	Panajachel	8	Panajachel	7	Julio	2023-07-15T00:00:00	2024-11-08T10:00:00	1	Precipitación	0
48716	7	Sololá	710	Panajachel	8	Panajachel	7	Julio	2023-07-15T00:00:00	2024-11-08T10:00:00	8	Radiación solar	491
48717	7	Sololá	710	Panajachel	8	Panajachel	7	Julio	2023-07-15T00:00:00	2024-11-08T11:00:00	2	Temperatura media	24.2
48718	7	Sololá	710	Panajachel	8	Panajachel	7	Julio	2023-07-15T00:00:00	2024-11-08T11:00:00	4	Temperatura máxima	24.6
48719	7	Sololá	710	Panajachel	8	Panajachel	7	Julio	2023-07-15T00:00:00	2024-11-08T11:00:00	3	Temperatura mínima	23.8
48720	7	Sololá	710	Panajachel	8	Panajachel	7	Julio	2023-07-15T00:00:00	2024-11-08T11:00:00	5	Humedad	66
48721	7	Sololá	710	Panajachel	8	Panajachel	7	Julio	2023-07-15T00:00:00	2024-11-08T11:00:00	6	Velocidad del viento	1.6
48722	7	Sololá	710	Panajachel	8	Panajachel	7	Julio	2023-07-15T00:00:00	2024-11-08T11:00:00	7	Dirección del viento	1.61
48723	7	Sololá	710	Panajachel	8	Panajachel	7	Julio	2023-07-15T00:00:00	2024-11-08T11:00:00	1	Precipitación	0
48724	7	Sololá	710	Panajachel	8	Panajachel	7	Julio	2023-07-15T00:00:00	2024-11-08T11:00:00	8	Radiación solar	757
48725	7	Sololá	710	Panajachel	8	Panajachel	7	Julio	2023-07-15T00:00:00	2024-11-08T12:00:00	2	Temperatura media	26.4
48726	7	Sololá	710	Panajachel	8	Panajachel	7	Julio	2023-07-15T00:00:00	2024-11-08T12:00:00	4	Temperatura máxima	26.4
48727	7	Sololá	710	Panajachel	8	Panajachel	7	Julio	2023-07-15T00:00:00	2024-11-08T12:00:00	3	Temperatura mínima	23.9
48728	7	Sololá	710	Panajachel	8	Panajachel	7	Julio	2023-07-15T00:00:00	2024-11-08T12:00:00	5	Humedad	55
48729	7	Sololá	710	Panajachel	8	Panajachel	7	Julio	2023-07-15T00:00:00	2024-11-08T12:00:00	6	Velocidad del viento	3.2
48730	7	Sololá	710	Panajachel	8	Panajachel	7	Julio	2023-07-15T00:00:00	2024-11-08T12:00:00	7	Dirección del viento	3.22
48731	7	Sololá	710	Panajachel	8	Panajachel	7	Julio	2023-07-15T00:00:00	2024-11-08T12:00:00	1	Precipitación	0
48732	7	Sololá	710	Panajachel	8	Panajachel	7	Julio	2023-07-15T00:00:00	2024-11-08T12:00:00	8	Radiación solar	758
48733	7	Sololá	710	Panajachel	8	Panajachel	7	Julio	2023-07-15T00:00:00	2024-11-08T13:00:00	2	Temperatura media	24.5
48734	7	Sololá	710	Panajachel	8	Panajachel	7	Julio	2023-07-15T00:00:00	2024-11-08T13:00:00	4	Temperatura máxima	26.4
48735	7	Sololá	710	Panajachel	8	Panajachel	7	Julio	2023-07-15T00:00:00	2024-11-08T13:00:00	3	Temperatura mínima	23.8
48736	7	Sololá	710	Panajachel	8	Panajachel	7	Julio	2023-07-15T00:00:00	2024-11-08T13:00:00	5	Humedad	77
48737	7	Sololá	710	Panajachel	8	Panajachel	7	Julio	2023-07-15T00:00:00	2024-11-08T13:00:00	6	Velocidad del viento	3.2
48738	7	Sololá	710	Panajachel	8	Panajachel	7	Julio	2023-07-15T00:00:00	2024-11-08T13:00:00	7	Dirección del viento	3.22
48739	7	Sololá	710	Panajachel	8	Panajachel	7	Julio	2023-07-15T00:00:00	2024-11-08T13:00:00	1	Precipitación	0
48740	7	Sololá	710	Panajachel	8	Panajachel	7	Julio	2023-07-15T00:00:00	2024-11-08T13:00:00	8	Radiación solar	439
48741	7	Sololá	710	Panajachel	8	Panajachel	7	Julio	2023-07-15T00:00:00	2024-11-08T14:00:00	2	Temperatura media	24.1
48742	7	Sololá	710	Panajachel	8	Panajachel	7	Julio	2023-07-15T00:00:00	2024-11-08T14:00:00	4	Temperatura máxima	24.8
48743	7	Sololá	710	Panajachel	8	Panajachel	7	Julio	2023-07-15T00:00:00	2024-11-08T14:00:00	3	Temperatura mínima	23.6
48744	7	Sololá	710	Panajachel	8	Panajachel	7	Julio	2023-07-15T00:00:00	2024-11-08T14:00:00	5	Humedad	73
48745	7	Sololá	710	Panajachel	8	Panajachel	7	Julio	2023-07-15T00:00:00	2024-11-08T14:00:00	6	Velocidad del viento	0
48746	7	Sololá	710	Panajachel	8	Panajachel	7	Julio	2023-07-15T00:00:00	2024-11-08T14:00:00	7	Dirección del viento	0
48747	7	Sololá	710	Panajachel	8	Panajachel	7	Julio	2023-07-15T00:00:00	2024-11-08T14:00:00	1	Precipitación	0
48748	7	Sololá	710	Panajachel	8	Panajachel	7	Julio	2023-07-15T00:00:00	2024-11-08T14:00:00	8	Radiación solar	397
48749	7	Sololá	710	Panajachel	8	Panajachel	7	Julio	2023-07-15T00:00:00	2024-11-08T15:00:00	2	Temperatura media	23.6
48750	7	Sololá	710	Panajachel	8	Panajachel	7	Julio	2023-07-15T00:00:00	2024-11-08T15:00:00	4	Temperatura máxima	24.1
48751	7	Sololá	710	Panajachel	8	Panajachel	7	Julio	2023-07-15T00:00:00	2024-11-08T15:00:00	3	Temperatura mínima	23.4
48752	7	Sololá	710	Panajachel	8	Panajachel	7	Julio	2023-07-15T00:00:00	2024-11-08T15:00:00	5	Humedad	81
48753	7	Sololá	710	Panajachel	8	Panajachel	7	Julio	2023-07-15T00:00:00	2024-11-08T15:00:00	6	Velocidad del viento	3.2
48754	7	Sololá	710	Panajachel	8	Panajachel	7	Julio	2023-07-15T00:00:00	2024-11-08T15:00:00	7	Dirección del viento	3.22
48755	7	Sololá	710	Panajachel	8	Panajachel	7	Julio	2023-07-15T00:00:00	2024-11-08T15:00:00	1	Precipitación	0
48756	7	Sololá	710	Panajachel	8	Panajachel	7	Julio	2023-07-15T00:00:00	2024-11-08T15:00:00	8	Radiación solar	448
48757	7	Sololá	710	Panajachel	8	Panajachel	7	Julio	2023-07-15T00:00:00	2024-11-08T16:00:00	2	Temperatura media	22.8
48758	7	Sololá	710	Panajachel	8	Panajachel	7	Julio	2023-07-15T00:00:00	2024-11-08T16:00:00	4	Temperatura máxima	23.5
48759	7	Sololá	710	Panajachel	8	Panajachel	7	Julio	2023-07-15T00:00:00	2024-11-08T16:00:00	3	Temperatura mínima	22.6
48760	7	Sololá	710	Panajachel	8	Panajachel	7	Julio	2023-07-15T00:00:00	2024-11-08T16:00:00	5	Humedad	80
48761	7	Sololá	710	Panajachel	8	Panajachel	7	Julio	2023-07-15T00:00:00	2024-11-08T16:00:00	6	Velocidad del viento	1.6
48762	7	Sololá	710	Panajachel	8	Panajachel	7	Julio	2023-07-15T00:00:00	2024-11-08T16:00:00	7	Dirección del viento	1.61
48763	7	Sololá	710	Panajachel	8	Panajachel	7	Julio	2023-07-15T00:00:00	2024-11-08T16:00:00	1	Precipitación	0
48764	7	Sololá	710	Panajachel	8	Panajachel	7	Julio	2023-07-15T00:00:00	2024-11-08T16:00:00	8	Radiación solar	220
48765	7	Sololá	710	Panajachel	8	Panajachel	7	Julio	2023-07-15T00:00:00	2024-11-08T17:00:00	2	Temperatura media	22.2
48766	7	Sololá	710	Panajachel	8	Panajachel	7	Julio	2023-07-15T00:00:00	2024-11-08T17:00:00	4	Temperatura máxima	22.8
48767	7	Sololá	710	Panajachel	8	Panajachel	7	Julio	2023-07-15T00:00:00	2024-11-08T17:00:00	3	Temperatura mínima	22.2
48768	7	Sololá	710	Panajachel	8	Panajachel	7	Julio	2023-07-15T00:00:00	2024-11-08T17:00:00	5	Humedad	82
48769	7	Sololá	710	Panajachel	8	Panajachel	7	Julio	2023-07-15T00:00:00	2024-11-08T17:00:00	6	Velocidad del viento	1.6
48770	7	Sololá	710	Panajachel	8	Panajachel	7	Julio	2023-07-15T00:00:00	2024-11-08T17:00:00	7	Dirección del viento	1.61
48771	7	Sololá	710	Panajachel	8	Panajachel	7	Julio	2023-07-15T00:00:00	2024-11-08T17:00:00	1	Precipitación	0
48772	7	Sololá	710	Panajachel	8	Panajachel	7	Julio	2023-07-15T00:00:00	2024-11-08T17:00:00	8	Radiación solar	159
48773	7	Sololá	710	Panajachel	8	Panajachel	7	Julio	2023-07-15T00:00:00	2024-11-08T18:00:00	2	Temperatura media	21.8
48774	7	Sololá	710	Panajachel	8	Panajachel	7	Julio	2023-07-15T00:00:00	2024-11-08T18:00:00	4	Temperatura máxima	22.3
48775	7	Sololá	710	Panajachel	8	Panajachel	7	Julio	2023-07-15T00:00:00	2024-11-08T18:00:00	3	Temperatura mínima	21.6
48776	7	Sololá	710	Panajachel	8	Panajachel	7	Julio	2023-07-15T00:00:00	2024-11-08T18:00:00	5	Humedad	81
48777	7	Sololá	710	Panajachel	8	Panajachel	7	Julio	2023-07-15T00:00:00	2024-11-08T18:00:00	6	Velocidad del viento	0
48778	7	Sololá	710	Panajachel	8	Panajachel	7	Julio	2023-07-15T00:00:00	2024-11-08T18:00:00	7	Dirección del viento	0
48779	7	Sololá	710	Panajachel	8	Panajachel	7	Julio	2023-07-15T00:00:00	2024-11-08T18:00:00	1	Precipitación	0
48780	7	Sololá	710	Panajachel	8	Panajachel	7	Julio	2023-07-15T00:00:00	2024-11-08T18:00:00	8	Radiación solar	62
48781	7	Sololá	710	Panajachel	8	Panajachel	7	Julio	2023-07-15T00:00:00	2024-11-08T19:00:00	2	Temperatura media	20.7
48782	7	Sololá	710	Panajachel	8	Panajachel	7	Julio	2023-07-15T00:00:00	2024-11-08T19:00:00	4	Temperatura máxima	21.8
48783	7	Sololá	710	Panajachel	8	Panajachel	7	Julio	2023-07-15T00:00:00	2024-11-08T19:00:00	3	Temperatura mínima	20.7
48784	7	Sololá	710	Panajachel	8	Panajachel	7	Julio	2023-07-15T00:00:00	2024-11-08T19:00:00	5	Humedad	86
48785	7	Sololá	710	Panajachel	8	Panajachel	7	Julio	2023-07-15T00:00:00	2024-11-08T19:00:00	6	Velocidad del viento	0
48786	7	Sololá	710	Panajachel	8	Panajachel	7	Julio	2023-07-15T00:00:00	2024-11-08T19:00:00	7	Dirección del viento	0
48787	7	Sololá	710	Panajachel	8	Panajachel	7	Julio	2023-07-15T00:00:00	2024-11-08T19:00:00	1	Precipitación	0
48788	7	Sololá	710	Panajachel	8	Panajachel	7	Julio	2023-07-15T00:00:00	2024-11-08T19:00:00	8	Radiación solar	0
48789	7	Sololá	710	Panajachel	8	Panajachel	7	Julio	2023-07-15T00:00:00	2024-11-08T20:00:00	2	Temperatura media	19.8
48790	7	Sololá	710	Panajachel	8	Panajachel	7	Julio	2023-07-15T00:00:00	2024-11-08T20:00:00	4	Temperatura máxima	20.7
48791	7	Sololá	710	Panajachel	8	Panajachel	7	Julio	2023-07-15T00:00:00	2024-11-08T20:00:00	3	Temperatura mínima	19.8
48792	7	Sololá	710	Panajachel	8	Panajachel	7	Julio	2023-07-15T00:00:00	2024-11-08T20:00:00	5	Humedad	83
48793	7	Sololá	710	Panajachel	8	Panajachel	7	Julio	2023-07-15T00:00:00	2024-11-08T20:00:00	6	Velocidad del viento	0
48794	7	Sololá	710	Panajachel	8	Panajachel	7	Julio	2023-07-15T00:00:00	2024-11-08T20:00:00	7	Dirección del viento	0
48795	7	Sololá	710	Panajachel	8	Panajachel	7	Julio	2023-07-15T00:00:00	2024-11-08T20:00:00	1	Precipitación	0
48796	7	Sololá	710	Panajachel	8	Panajachel	7	Julio	2023-07-15T00:00:00	2024-11-08T20:00:00	8	Radiación solar	0
48797	7	Sololá	710	Panajachel	8	Panajachel	7	Julio	2023-07-15T00:00:00	2024-11-08T21:00:00	2	Temperatura media	20.3
48798	7	Sololá	710	Panajachel	8	Panajachel	7	Julio	2023-07-15T00:00:00	2024-11-08T21:00:00	4	Temperatura máxima	20.5
48799	7	Sololá	710	Panajachel	8	Panajachel	7	Julio	2023-07-15T00:00:00	2024-11-08T21:00:00	3	Temperatura mínima	19.8
48800	7	Sololá	710	Panajachel	8	Panajachel	7	Julio	2023-07-15T00:00:00	2024-11-08T21:00:00	5	Humedad	79
48801	7	Sololá	710	Panajachel	8	Panajachel	7	Julio	2023-07-15T00:00:00	2024-11-08T21:00:00	6	Velocidad del viento	1.6
48802	7	Sololá	710	Panajachel	8	Panajachel	7	Julio	2023-07-15T00:00:00	2024-11-08T21:00:00	7	Dirección del viento	1.61
48803	7	Sololá	710	Panajachel	8	Panajachel	7	Julio	2023-07-15T00:00:00	2024-11-08T21:00:00	1	Precipitación	0
48804	7	Sololá	710	Panajachel	8	Panajachel	7	Julio	2023-07-15T00:00:00	2024-11-08T21:00:00	8	Radiación solar	0
48805	7	Sololá	710	Panajachel	8	Panajachel	7	Julio	2023-07-15T00:00:00	2024-11-08T22:00:00	2	Temperatura media	19.4
48806	7	Sololá	710	Panajachel	8	Panajachel	7	Julio	2023-07-15T00:00:00	2024-11-08T22:00:00	4	Temperatura máxima	20.3
48807	7	Sololá	710	Panajachel	8	Panajachel	7	Julio	2023-07-15T00:00:00	2024-11-08T22:00:00	3	Temperatura mínima	19.4
48808	7	Sololá	710	Panajachel	8	Panajachel	7	Julio	2023-07-15T00:00:00	2024-11-08T22:00:00	5	Humedad	82
48809	7	Sololá	710	Panajachel	8	Panajachel	7	Julio	2023-07-15T00:00:00	2024-11-08T22:00:00	6	Velocidad del viento	0
48810	7	Sololá	710	Panajachel	8	Panajachel	7	Julio	2023-07-15T00:00:00	2024-11-08T22:00:00	7	Dirección del viento	0
48811	7	Sololá	710	Panajachel	8	Panajachel	7	Julio	2023-07-15T00:00:00	2024-11-08T22:00:00	1	Precipitación	0
48812	7	Sololá	710	Panajachel	8	Panajachel	7	Julio	2023-07-15T00:00:00	2024-11-08T22:00:00	8	Radiación solar	0
48813	7	Sololá	710	Panajachel	8	Panajachel	7	Julio	2023-07-15T00:00:00	2024-11-08T23:00:00	2	Temperatura media	19.1
48814	7	Sololá	710	Panajachel	8	Panajachel	7	Julio	2023-07-15T00:00:00	2024-11-08T23:00:00	4	Temperatura máxima	19.7
48815	7	Sololá	710	Panajachel	8	Panajachel	7	Julio	2023-07-15T00:00:00	2024-11-08T23:00:00	3	Temperatura mínima	19.1
48816	7	Sololá	710	Panajachel	8	Panajachel	7	Julio	2023-07-15T00:00:00	2024-11-08T23:00:00	5	Humedad	81
48817	7	Sololá	710	Panajachel	8	Panajachel	7	Julio	2023-07-15T00:00:00	2024-11-08T23:00:00	6	Velocidad del viento	0
48818	7	Sololá	710	Panajachel	8	Panajachel	7	Julio	2023-07-15T00:00:00	2024-11-08T23:00:00	7	Dirección del viento	0
48819	7	Sololá	710	Panajachel	8	Panajachel	7	Julio	2023-07-15T00:00:00	2024-11-08T23:00:00	1	Precipitación	0
48820	7	Sololá	710	Panajachel	8	Panajachel	7	Julio	2023-07-15T00:00:00	2024-11-08T23:00:00	8	Radiación solar	0
48821	7	Sololá	710	Panajachel	8	Panajachel	7	Julio	2023-07-16T00:00:00	2024-11-08T00:00:00	2	Temperatura media	19.3
48822	7	Sololá	710	Panajachel	8	Panajachel	7	Julio	2023-07-16T00:00:00	2024-11-08T00:00:00	4	Temperatura máxima	19.3
48823	7	Sololá	710	Panajachel	8	Panajachel	7	Julio	2023-07-16T00:00:00	2024-11-08T00:00:00	3	Temperatura mínima	18.7
48824	7	Sololá	710	Panajachel	8	Panajachel	7	Julio	2023-07-16T00:00:00	2024-11-08T00:00:00	5	Humedad	79
48825	7	Sololá	710	Panajachel	8	Panajachel	7	Julio	2023-07-16T00:00:00	2024-11-08T00:00:00	6	Velocidad del viento	0
48826	7	Sololá	710	Panajachel	8	Panajachel	7	Julio	2023-07-16T00:00:00	2024-11-08T00:00:00	7	Dirección del viento	0
48827	7	Sololá	710	Panajachel	8	Panajachel	7	Julio	2023-07-16T00:00:00	2024-11-08T00:00:00	1	Precipitación	0
48828	7	Sololá	710	Panajachel	8	Panajachel	7	Julio	2023-07-16T00:00:00	2024-11-08T00:00:00	8	Radiación solar	0
48829	7	Sololá	710	Panajachel	8	Panajachel	7	Julio	2023-07-16T00:00:00	2024-11-08T01:00:00	2	Temperatura media	19.6
48830	7	Sololá	710	Panajachel	8	Panajachel	7	Julio	2023-07-16T00:00:00	2024-11-08T01:00:00	4	Temperatura máxima	19.6
48831	7	Sololá	710	Panajachel	8	Panajachel	7	Julio	2023-07-16T00:00:00	2024-11-08T01:00:00	3	Temperatura mínima	18.9
48832	7	Sololá	710	Panajachel	8	Panajachel	7	Julio	2023-07-16T00:00:00	2024-11-08T01:00:00	5	Humedad	79
48833	7	Sololá	710	Panajachel	8	Panajachel	7	Julio	2023-07-16T00:00:00	2024-11-08T01:00:00	6	Velocidad del viento	0
48834	7	Sololá	710	Panajachel	8	Panajachel	7	Julio	2023-07-16T00:00:00	2024-11-08T01:00:00	7	Dirección del viento	0
48835	7	Sololá	710	Panajachel	8	Panajachel	7	Julio	2023-07-16T00:00:00	2024-11-08T01:00:00	1	Precipitación	0
48836	7	Sololá	710	Panajachel	8	Panajachel	7	Julio	2023-07-16T00:00:00	2024-11-08T01:00:00	8	Radiación solar	0
48837	7	Sololá	710	Panajachel	8	Panajachel	7	Julio	2023-07-16T00:00:00	2024-11-08T02:00:00	2	Temperatura media	18.9
48838	7	Sololá	710	Panajachel	8	Panajachel	7	Julio	2023-07-16T00:00:00	2024-11-08T02:00:00	4	Temperatura máxima	19.7
48839	7	Sololá	710	Panajachel	8	Panajachel	7	Julio	2023-07-16T00:00:00	2024-11-08T02:00:00	3	Temperatura mínima	18.9
48840	7	Sololá	710	Panajachel	8	Panajachel	7	Julio	2023-07-16T00:00:00	2024-11-08T02:00:00	5	Humedad	85
48841	7	Sololá	710	Panajachel	8	Panajachel	7	Julio	2023-07-16T00:00:00	2024-11-08T02:00:00	6	Velocidad del viento	1.6
48842	7	Sololá	710	Panajachel	8	Panajachel	7	Julio	2023-07-16T00:00:00	2024-11-08T02:00:00	7	Dirección del viento	1.61
48843	7	Sololá	710	Panajachel	8	Panajachel	7	Julio	2023-07-16T00:00:00	2024-11-08T02:00:00	1	Precipitación	0
48844	7	Sololá	710	Panajachel	8	Panajachel	7	Julio	2023-07-16T00:00:00	2024-11-08T02:00:00	8	Radiación solar	0
48845	7	Sololá	710	Panajachel	8	Panajachel	7	Julio	2023-07-16T00:00:00	2024-11-08T03:00:00	2	Temperatura media	18.2
48846	7	Sololá	710	Panajachel	8	Panajachel	7	Julio	2023-07-16T00:00:00	2024-11-08T03:00:00	4	Temperatura máxima	18.9
48847	7	Sololá	710	Panajachel	8	Panajachel	7	Julio	2023-07-16T00:00:00	2024-11-08T03:00:00	3	Temperatura mínima	18
48848	7	Sololá	710	Panajachel	8	Panajachel	7	Julio	2023-07-16T00:00:00	2024-11-08T03:00:00	5	Humedad	86
48849	7	Sololá	710	Panajachel	8	Panajachel	7	Julio	2023-07-16T00:00:00	2024-11-08T03:00:00	6	Velocidad del viento	1.6
48850	7	Sololá	710	Panajachel	8	Panajachel	7	Julio	2023-07-16T00:00:00	2024-11-08T03:00:00	7	Dirección del viento	1.61
48851	7	Sololá	710	Panajachel	8	Panajachel	7	Julio	2023-07-16T00:00:00	2024-11-08T03:00:00	1	Precipitación	0
48852	7	Sololá	710	Panajachel	8	Panajachel	7	Julio	2023-07-16T00:00:00	2024-11-08T03:00:00	8	Radiación solar	0
48853	7	Sololá	710	Panajachel	8	Panajachel	7	Julio	2023-07-16T00:00:00	2024-11-08T04:00:00	2	Temperatura media	17.7
48854	7	Sololá	710	Panajachel	8	Panajachel	7	Julio	2023-07-16T00:00:00	2024-11-08T04:00:00	4	Temperatura máxima	18.4
48855	7	Sololá	710	Panajachel	8	Panajachel	7	Julio	2023-07-16T00:00:00	2024-11-08T04:00:00	3	Temperatura mínima	17.7
48856	7	Sololá	710	Panajachel	8	Panajachel	7	Julio	2023-07-16T00:00:00	2024-11-08T04:00:00	5	Humedad	88
48857	7	Sololá	710	Panajachel	8	Panajachel	7	Julio	2023-07-16T00:00:00	2024-11-08T04:00:00	6	Velocidad del viento	0
48858	7	Sololá	710	Panajachel	8	Panajachel	7	Julio	2023-07-16T00:00:00	2024-11-08T04:00:00	7	Dirección del viento	0
48859	7	Sololá	710	Panajachel	8	Panajachel	7	Julio	2023-07-16T00:00:00	2024-11-08T04:00:00	1	Precipitación	0
48860	7	Sololá	710	Panajachel	8	Panajachel	7	Julio	2023-07-16T00:00:00	2024-11-08T04:00:00	8	Radiación solar	0
48861	7	Sololá	710	Panajachel	8	Panajachel	7	Julio	2023-07-16T00:00:00	2024-11-08T05:00:00	2	Temperatura media	20.2
48862	7	Sololá	710	Panajachel	8	Panajachel	7	Julio	2023-07-16T00:00:00	2024-11-08T05:00:00	4	Temperatura máxima	20.2
48863	7	Sololá	710	Panajachel	8	Panajachel	7	Julio	2023-07-16T00:00:00	2024-11-08T05:00:00	3	Temperatura mínima	17.7
48864	7	Sololá	710	Panajachel	8	Panajachel	7	Julio	2023-07-16T00:00:00	2024-11-08T05:00:00	5	Humedad	76
48865	7	Sololá	710	Panajachel	8	Panajachel	7	Julio	2023-07-16T00:00:00	2024-11-08T05:00:00	6	Velocidad del viento	1.6
48866	7	Sololá	710	Panajachel	8	Panajachel	7	Julio	2023-07-16T00:00:00	2024-11-08T05:00:00	7	Dirección del viento	1.61
48867	7	Sololá	710	Panajachel	8	Panajachel	7	Julio	2023-07-16T00:00:00	2024-11-08T05:00:00	1	Precipitación	0
48868	7	Sololá	710	Panajachel	8	Panajachel	7	Julio	2023-07-16T00:00:00	2024-11-08T05:00:00	8	Radiación solar	0
48869	7	Sololá	710	Panajachel	8	Panajachel	7	Julio	2023-07-16T00:00:00	2024-11-08T06:00:00	2	Temperatura media	20.9
48870	7	Sololá	710	Panajachel	8	Panajachel	7	Julio	2023-07-16T00:00:00	2024-11-08T06:00:00	4	Temperatura máxima	20.9
48871	7	Sololá	710	Panajachel	8	Panajachel	7	Julio	2023-07-16T00:00:00	2024-11-08T06:00:00	3	Temperatura mínima	20.1
48872	7	Sololá	710	Panajachel	8	Panajachel	7	Julio	2023-07-16T00:00:00	2024-11-08T06:00:00	5	Humedad	72
48873	7	Sololá	710	Panajachel	8	Panajachel	7	Julio	2023-07-16T00:00:00	2024-11-08T06:00:00	6	Velocidad del viento	11.3
48874	7	Sololá	710	Panajachel	8	Panajachel	7	Julio	2023-07-16T00:00:00	2024-11-08T06:00:00	7	Dirección del viento	11.27
48875	7	Sololá	710	Panajachel	8	Panajachel	7	Julio	2023-07-16T00:00:00	2024-11-08T06:00:00	1	Precipitación	0
48876	7	Sololá	710	Panajachel	8	Panajachel	7	Julio	2023-07-16T00:00:00	2024-11-08T06:00:00	8	Radiación solar	2
48877	7	Sololá	710	Panajachel	8	Panajachel	7	Julio	2023-07-16T00:00:00	2024-11-08T07:00:00	2	Temperatura media	21.6
48878	7	Sololá	710	Panajachel	8	Panajachel	7	Julio	2023-07-16T00:00:00	2024-11-08T07:00:00	4	Temperatura máxima	21.6
48879	7	Sololá	710	Panajachel	8	Panajachel	7	Julio	2023-07-16T00:00:00	2024-11-08T07:00:00	3	Temperatura mínima	20.7
48880	7	Sololá	710	Panajachel	8	Panajachel	7	Julio	2023-07-16T00:00:00	2024-11-08T07:00:00	5	Humedad	70
48881	7	Sololá	710	Panajachel	8	Panajachel	7	Julio	2023-07-16T00:00:00	2024-11-08T07:00:00	6	Velocidad del viento	6.4
48882	7	Sololá	710	Panajachel	8	Panajachel	7	Julio	2023-07-16T00:00:00	2024-11-08T07:00:00	7	Dirección del viento	6.44
48883	7	Sololá	710	Panajachel	8	Panajachel	7	Julio	2023-07-16T00:00:00	2024-11-08T07:00:00	1	Precipitación	0
48884	7	Sololá	710	Panajachel	8	Panajachel	7	Julio	2023-07-16T00:00:00	2024-11-08T07:00:00	8	Radiación solar	85
48885	7	Sololá	710	Panajachel	8	Panajachel	7	Julio	2023-07-16T00:00:00	2024-11-08T08:00:00	2	Temperatura media	22.5
48886	7	Sololá	710	Panajachel	8	Panajachel	7	Julio	2023-07-16T00:00:00	2024-11-08T08:00:00	4	Temperatura máxima	22.5
48887	7	Sololá	710	Panajachel	8	Panajachel	7	Julio	2023-07-16T00:00:00	2024-11-08T08:00:00	3	Temperatura mínima	21.3
48888	7	Sololá	710	Panajachel	8	Panajachel	7	Julio	2023-07-16T00:00:00	2024-11-08T08:00:00	5	Humedad	69
48889	7	Sololá	710	Panajachel	8	Panajachel	7	Julio	2023-07-16T00:00:00	2024-11-08T08:00:00	6	Velocidad del viento	3.2
48890	7	Sololá	710	Panajachel	8	Panajachel	7	Julio	2023-07-16T00:00:00	2024-11-08T08:00:00	7	Dirección del viento	3.22
48891	7	Sololá	710	Panajachel	8	Panajachel	7	Julio	2023-07-16T00:00:00	2024-11-08T08:00:00	1	Precipitación	0
48892	7	Sololá	710	Panajachel	8	Panajachel	7	Julio	2023-07-16T00:00:00	2024-11-08T08:00:00	8	Radiación solar	242
48893	7	Sololá	710	Panajachel	8	Panajachel	7	Julio	2023-07-16T00:00:00	2024-11-08T09:00:00	2	Temperatura media	23.2
48894	7	Sololá	710	Panajachel	8	Panajachel	7	Julio	2023-07-16T00:00:00	2024-11-08T09:00:00	4	Temperatura máxima	23.2
48895	7	Sololá	710	Panajachel	8	Panajachel	7	Julio	2023-07-16T00:00:00	2024-11-08T09:00:00	3	Temperatura mínima	22.5
48896	7	Sololá	710	Panajachel	8	Panajachel	7	Julio	2023-07-16T00:00:00	2024-11-08T09:00:00	5	Humedad	65
48897	7	Sololá	710	Panajachel	8	Panajachel	7	Julio	2023-07-16T00:00:00	2024-11-08T09:00:00	6	Velocidad del viento	8
48898	7	Sololá	710	Panajachel	8	Panajachel	7	Julio	2023-07-16T00:00:00	2024-11-08T09:00:00	7	Dirección del viento	8.05
48899	7	Sololá	710	Panajachel	8	Panajachel	7	Julio	2023-07-16T00:00:00	2024-11-08T09:00:00	1	Precipitación	0
48900	7	Sololá	710	Panajachel	8	Panajachel	7	Julio	2023-07-16T00:00:00	2024-11-08T09:00:00	8	Radiación solar	419
48901	7	Sololá	710	Panajachel	8	Panajachel	7	Julio	2023-07-16T00:00:00	2024-11-08T10:00:00	2	Temperatura media	24.1
48902	7	Sololá	710	Panajachel	8	Panajachel	7	Julio	2023-07-16T00:00:00	2024-11-08T10:00:00	4	Temperatura máxima	24.6
48903	7	Sololá	710	Panajachel	8	Panajachel	7	Julio	2023-07-16T00:00:00	2024-11-08T10:00:00	3	Temperatura mínima	23.2
48904	7	Sololá	710	Panajachel	8	Panajachel	7	Julio	2023-07-16T00:00:00	2024-11-08T10:00:00	5	Humedad	63
48905	7	Sololá	710	Panajachel	8	Panajachel	7	Julio	2023-07-16T00:00:00	2024-11-08T10:00:00	6	Velocidad del viento	11.3
48906	7	Sololá	710	Panajachel	8	Panajachel	7	Julio	2023-07-16T00:00:00	2024-11-08T10:00:00	7	Dirección del viento	11.27
48907	7	Sololá	710	Panajachel	8	Panajachel	7	Julio	2023-07-16T00:00:00	2024-11-08T10:00:00	1	Precipitación	0
48908	7	Sololá	710	Panajachel	8	Panajachel	7	Julio	2023-07-16T00:00:00	2024-11-08T10:00:00	8	Radiación solar	735
48909	7	Sololá	710	Panajachel	8	Panajachel	7	Julio	2023-07-16T00:00:00	2024-11-08T11:00:00	2	Temperatura media	24.5
48910	7	Sololá	710	Panajachel	8	Panajachel	7	Julio	2023-07-16T00:00:00	2024-11-08T11:00:00	4	Temperatura máxima	24.5
48911	7	Sololá	710	Panajachel	8	Panajachel	7	Julio	2023-07-16T00:00:00	2024-11-08T11:00:00	3	Temperatura mínima	23.8
48912	7	Sololá	710	Panajachel	8	Panajachel	7	Julio	2023-07-16T00:00:00	2024-11-08T11:00:00	5	Humedad	61
48913	7	Sololá	710	Panajachel	8	Panajachel	7	Julio	2023-07-16T00:00:00	2024-11-08T11:00:00	6	Velocidad del viento	9.7
48914	7	Sololá	710	Panajachel	8	Panajachel	7	Julio	2023-07-16T00:00:00	2024-11-08T11:00:00	7	Dirección del viento	9.66
48915	7	Sololá	710	Panajachel	8	Panajachel	7	Julio	2023-07-16T00:00:00	2024-11-08T11:00:00	1	Precipitación	0
48916	7	Sololá	710	Panajachel	8	Panajachel	7	Julio	2023-07-16T00:00:00	2024-11-08T11:00:00	8	Radiación solar	258
48917	7	Sololá	710	Panajachel	8	Panajachel	7	Julio	2023-07-16T00:00:00	2024-11-08T12:00:00	2	Temperatura media	25.3
48918	7	Sololá	710	Panajachel	8	Panajachel	7	Julio	2023-07-16T00:00:00	2024-11-08T12:00:00	4	Temperatura máxima	25.3
48919	7	Sololá	710	Panajachel	8	Panajachel	7	Julio	2023-07-16T00:00:00	2024-11-08T12:00:00	3	Temperatura mínima	24.2
48920	7	Sololá	710	Panajachel	8	Panajachel	7	Julio	2023-07-16T00:00:00	2024-11-08T12:00:00	5	Humedad	62
48921	7	Sololá	710	Panajachel	8	Panajachel	7	Julio	2023-07-16T00:00:00	2024-11-08T12:00:00	6	Velocidad del viento	1.6
48922	7	Sololá	710	Panajachel	8	Panajachel	7	Julio	2023-07-16T00:00:00	2024-11-08T12:00:00	7	Dirección del viento	1.61
48923	7	Sololá	710	Panajachel	8	Panajachel	7	Julio	2023-07-16T00:00:00	2024-11-08T12:00:00	1	Precipitación	0
48924	7	Sololá	710	Panajachel	8	Panajachel	7	Julio	2023-07-16T00:00:00	2024-11-08T12:00:00	8	Radiación solar	295
48925	7	Sololá	710	Panajachel	8	Panajachel	7	Julio	2023-07-16T00:00:00	2024-11-08T13:00:00	2	Temperatura media	25.1
48926	7	Sololá	710	Panajachel	8	Panajachel	7	Julio	2023-07-16T00:00:00	2024-11-08T13:00:00	4	Temperatura máxima	25.6
48927	7	Sololá	710	Panajachel	8	Panajachel	7	Julio	2023-07-16T00:00:00	2024-11-08T13:00:00	3	Temperatura mínima	24.8
48928	7	Sololá	710	Panajachel	8	Panajachel	7	Julio	2023-07-16T00:00:00	2024-11-08T13:00:00	5	Humedad	64
48929	7	Sololá	710	Panajachel	8	Panajachel	7	Julio	2023-07-16T00:00:00	2024-11-08T13:00:00	6	Velocidad del viento	1.6
48930	7	Sololá	710	Panajachel	8	Panajachel	7	Julio	2023-07-16T00:00:00	2024-11-08T13:00:00	7	Dirección del viento	1.61
48931	7	Sololá	710	Panajachel	8	Panajachel	7	Julio	2023-07-16T00:00:00	2024-11-08T13:00:00	1	Precipitación	0
48932	7	Sololá	710	Panajachel	8	Panajachel	7	Julio	2023-07-16T00:00:00	2024-11-08T13:00:00	8	Radiación solar	351
48933	7	Sololá	710	Panajachel	8	Panajachel	7	Julio	2023-07-16T00:00:00	2024-11-08T14:00:00	2	Temperatura media	26.1
48934	7	Sololá	710	Panajachel	8	Panajachel	7	Julio	2023-07-16T00:00:00	2024-11-08T14:00:00	4	Temperatura máxima	26.3
48935	7	Sololá	710	Panajachel	8	Panajachel	7	Julio	2023-07-16T00:00:00	2024-11-08T14:00:00	3	Temperatura mínima	25
48936	7	Sololá	710	Panajachel	8	Panajachel	7	Julio	2023-07-16T00:00:00	2024-11-08T14:00:00	5	Humedad	61
48937	7	Sololá	710	Panajachel	8	Panajachel	7	Julio	2023-07-16T00:00:00	2024-11-08T14:00:00	6	Velocidad del viento	1.6
48938	7	Sololá	710	Panajachel	8	Panajachel	7	Julio	2023-07-16T00:00:00	2024-11-08T14:00:00	7	Dirección del viento	1.61
48939	7	Sololá	710	Panajachel	8	Panajachel	7	Julio	2023-07-16T00:00:00	2024-11-08T14:00:00	1	Precipitación	0
48940	7	Sololá	710	Panajachel	8	Panajachel	7	Julio	2023-07-16T00:00:00	2024-11-08T14:00:00	8	Radiación solar	495
48941	7	Sololá	710	Panajachel	8	Panajachel	7	Julio	2023-07-16T00:00:00	2024-11-08T15:00:00	2	Temperatura media	26.6
48942	7	Sololá	710	Panajachel	8	Panajachel	7	Julio	2023-07-16T00:00:00	2024-11-08T15:00:00	4	Temperatura máxima	27.1
48943	7	Sololá	710	Panajachel	8	Panajachel	7	Julio	2023-07-16T00:00:00	2024-11-08T15:00:00	3	Temperatura mínima	25.8
48944	7	Sololá	710	Panajachel	8	Panajachel	7	Julio	2023-07-16T00:00:00	2024-11-08T15:00:00	5	Humedad	57
48945	7	Sololá	710	Panajachel	8	Panajachel	7	Julio	2023-07-16T00:00:00	2024-11-08T15:00:00	6	Velocidad del viento	4.8
48946	7	Sololá	710	Panajachel	8	Panajachel	7	Julio	2023-07-16T00:00:00	2024-11-08T15:00:00	7	Dirección del viento	4.83
48947	7	Sololá	710	Panajachel	8	Panajachel	7	Julio	2023-07-16T00:00:00	2024-11-08T15:00:00	1	Precipitación	0
48948	7	Sololá	710	Panajachel	8	Panajachel	7	Julio	2023-07-16T00:00:00	2024-11-08T15:00:00	8	Radiación solar	459
48949	7	Sololá	710	Panajachel	8	Panajachel	7	Julio	2023-07-16T00:00:00	2024-11-08T16:00:00	2	Temperatura media	22.2
48950	7	Sololá	710	Panajachel	8	Panajachel	7	Julio	2023-07-16T00:00:00	2024-11-08T16:00:00	4	Temperatura máxima	26.6
48951	7	Sololá	710	Panajachel	8	Panajachel	7	Julio	2023-07-16T00:00:00	2024-11-08T16:00:00	3	Temperatura mínima	22.2
48952	7	Sololá	710	Panajachel	8	Panajachel	7	Julio	2023-07-16T00:00:00	2024-11-08T16:00:00	5	Humedad	76
48953	7	Sololá	710	Panajachel	8	Panajachel	7	Julio	2023-07-16T00:00:00	2024-11-08T16:00:00	6	Velocidad del viento	3.2
48954	7	Sololá	710	Panajachel	8	Panajachel	7	Julio	2023-07-16T00:00:00	2024-11-08T16:00:00	7	Dirección del viento	3.22
48955	7	Sololá	710	Panajachel	8	Panajachel	7	Julio	2023-07-16T00:00:00	2024-11-08T16:00:00	1	Precipitación	0
48956	7	Sololá	710	Panajachel	8	Panajachel	7	Julio	2023-07-16T00:00:00	2024-11-08T16:00:00	8	Radiación solar	59
48957	7	Sololá	710	Panajachel	8	Panajachel	7	Julio	2023-07-16T00:00:00	2024-11-08T17:00:00	2	Temperatura media	20.8
48958	7	Sololá	710	Panajachel	8	Panajachel	7	Julio	2023-07-16T00:00:00	2024-11-08T17:00:00	4	Temperatura máxima	22.2
48959	7	Sololá	710	Panajachel	8	Panajachel	7	Julio	2023-07-16T00:00:00	2024-11-08T17:00:00	3	Temperatura mínima	20.8
48960	7	Sololá	710	Panajachel	8	Panajachel	7	Julio	2023-07-16T00:00:00	2024-11-08T17:00:00	5	Humedad	81
48961	7	Sololá	710	Panajachel	8	Panajachel	7	Julio	2023-07-16T00:00:00	2024-11-08T17:00:00	6	Velocidad del viento	0
48962	7	Sololá	710	Panajachel	8	Panajachel	7	Julio	2023-07-16T00:00:00	2024-11-08T17:00:00	7	Dirección del viento	0
48963	7	Sololá	710	Panajachel	8	Panajachel	7	Julio	2023-07-16T00:00:00	2024-11-08T17:00:00	1	Precipitación	0
48964	7	Sololá	710	Panajachel	8	Panajachel	7	Julio	2023-07-16T00:00:00	2024-11-08T17:00:00	8	Radiación solar	5
48965	7	Sololá	710	Panajachel	8	Panajachel	7	Julio	2023-07-16T00:00:00	2024-11-08T18:00:00	2	Temperatura media	19.2
48966	7	Sololá	710	Panajachel	8	Panajachel	7	Julio	2023-07-16T00:00:00	2024-11-08T18:00:00	4	Temperatura máxima	20.9
48967	7	Sololá	710	Panajachel	8	Panajachel	7	Julio	2023-07-16T00:00:00	2024-11-08T18:00:00	3	Temperatura mínima	19.2
48968	7	Sololá	710	Panajachel	8	Panajachel	7	Julio	2023-07-16T00:00:00	2024-11-08T18:00:00	5	Humedad	90
48969	7	Sololá	710	Panajachel	8	Panajachel	7	Julio	2023-07-16T00:00:00	2024-11-08T18:00:00	6	Velocidad del viento	1.6
48970	7	Sololá	710	Panajachel	8	Panajachel	7	Julio	2023-07-16T00:00:00	2024-11-08T18:00:00	7	Dirección del viento	1.61
48971	7	Sololá	710	Panajachel	8	Panajachel	7	Julio	2023-07-16T00:00:00	2024-11-08T18:00:00	1	Precipitación	0.8
48972	7	Sololá	710	Panajachel	8	Panajachel	7	Julio	2023-07-16T00:00:00	2024-11-08T18:00:00	8	Radiación solar	0
48973	7	Sololá	710	Panajachel	8	Panajachel	7	Julio	2023-07-16T00:00:00	2024-11-08T19:00:00	2	Temperatura media	18.3
48974	7	Sololá	710	Panajachel	8	Panajachel	7	Julio	2023-07-16T00:00:00	2024-11-08T19:00:00	4	Temperatura máxima	19.2
48975	7	Sololá	710	Panajachel	8	Panajachel	7	Julio	2023-07-16T00:00:00	2024-11-08T19:00:00	3	Temperatura mínima	18.3
48976	7	Sololá	710	Panajachel	8	Panajachel	7	Julio	2023-07-16T00:00:00	2024-11-08T19:00:00	5	Humedad	90
48977	7	Sololá	710	Panajachel	8	Panajachel	7	Julio	2023-07-16T00:00:00	2024-11-08T19:00:00	6	Velocidad del viento	1.6
48978	7	Sololá	710	Panajachel	8	Panajachel	7	Julio	2023-07-16T00:00:00	2024-11-08T19:00:00	7	Dirección del viento	1.61
48979	7	Sololá	710	Panajachel	8	Panajachel	7	Julio	2023-07-16T00:00:00	2024-11-08T19:00:00	1	Precipitación	0.2
48980	7	Sololá	710	Panajachel	8	Panajachel	7	Julio	2023-07-16T00:00:00	2024-11-08T19:00:00	8	Radiación solar	0
48981	7	Sololá	710	Panajachel	8	Panajachel	7	Julio	2023-07-16T00:00:00	2024-11-08T20:00:00	2	Temperatura media	18.1
48982	7	Sololá	710	Panajachel	8	Panajachel	7	Julio	2023-07-16T00:00:00	2024-11-08T20:00:00	4	Temperatura máxima	18.3
48983	7	Sololá	710	Panajachel	8	Panajachel	7	Julio	2023-07-16T00:00:00	2024-11-08T20:00:00	3	Temperatura mínima	18.1
48984	7	Sololá	710	Panajachel	8	Panajachel	7	Julio	2023-07-16T00:00:00	2024-11-08T20:00:00	5	Humedad	93
48985	7	Sololá	710	Panajachel	8	Panajachel	7	Julio	2023-07-16T00:00:00	2024-11-08T20:00:00	6	Velocidad del viento	1.6
48986	7	Sololá	710	Panajachel	8	Panajachel	7	Julio	2023-07-16T00:00:00	2024-11-08T20:00:00	7	Dirección del viento	1.61
48987	7	Sololá	710	Panajachel	8	Panajachel	7	Julio	2023-07-16T00:00:00	2024-11-08T20:00:00	1	Precipitación	0.2
48988	7	Sololá	710	Panajachel	8	Panajachel	7	Julio	2023-07-16T00:00:00	2024-11-08T20:00:00	8	Radiación solar	0
48989	7	Sololá	710	Panajachel	8	Panajachel	7	Julio	2023-07-16T00:00:00	2024-11-08T21:00:00	2	Temperatura media	19.6
48990	7	Sololá	710	Panajachel	8	Panajachel	7	Julio	2023-07-16T00:00:00	2024-11-08T21:00:00	4	Temperatura máxima	19.7
48991	7	Sololá	710	Panajachel	8	Panajachel	7	Julio	2023-07-16T00:00:00	2024-11-08T21:00:00	3	Temperatura mínima	18
48992	7	Sololá	710	Panajachel	8	Panajachel	7	Julio	2023-07-16T00:00:00	2024-11-08T21:00:00	5	Humedad	73
48993	7	Sololá	710	Panajachel	8	Panajachel	7	Julio	2023-07-16T00:00:00	2024-11-08T21:00:00	6	Velocidad del viento	1.6
48994	7	Sololá	710	Panajachel	8	Panajachel	7	Julio	2023-07-16T00:00:00	2024-11-08T21:00:00	7	Dirección del viento	1.61
48995	7	Sololá	710	Panajachel	8	Panajachel	7	Julio	2023-07-16T00:00:00	2024-11-08T21:00:00	1	Precipitación	0
48996	7	Sololá	710	Panajachel	8	Panajachel	7	Julio	2023-07-16T00:00:00	2024-11-08T21:00:00	8	Radiación solar	0
48997	7	Sololá	710	Panajachel	8	Panajachel	7	Julio	2023-07-16T00:00:00	2024-11-08T22:00:00	2	Temperatura media	18.2
48998	7	Sololá	710	Panajachel	8	Panajachel	7	Julio	2023-07-16T00:00:00	2024-11-08T22:00:00	4	Temperatura máxima	20.4
48999	7	Sololá	710	Panajachel	8	Panajachel	7	Julio	2023-07-16T00:00:00	2024-11-08T22:00:00	3	Temperatura mínima	18.2
49000	7	Sololá	710	Panajachel	8	Panajachel	7	Julio	2023-07-16T00:00:00	2024-11-08T22:00:00	5	Humedad	82
49001	7	Sololá	710	Panajachel	8	Panajachel	7	Julio	2023-07-16T00:00:00	2024-11-08T22:00:00	6	Velocidad del viento	4.8
49002	7	Sololá	710	Panajachel	8	Panajachel	7	Julio	2023-07-16T00:00:00	2024-11-08T22:00:00	7	Dirección del viento	4.83
49003	7	Sololá	710	Panajachel	8	Panajachel	7	Julio	2023-07-16T00:00:00	2024-11-08T22:00:00	1	Precipitación	0
49004	7	Sololá	710	Panajachel	8	Panajachel	7	Julio	2023-07-16T00:00:00	2024-11-08T22:00:00	8	Radiación solar	0
49005	7	Sololá	710	Panajachel	8	Panajachel	7	Julio	2023-07-16T00:00:00	2024-11-08T23:00:00	2	Temperatura media	18.1
49006	7	Sololá	710	Panajachel	8	Panajachel	7	Julio	2023-07-16T00:00:00	2024-11-08T23:00:00	4	Temperatura máxima	18.3
49007	7	Sololá	710	Panajachel	8	Panajachel	7	Julio	2023-07-16T00:00:00	2024-11-08T23:00:00	3	Temperatura mínima	17.9
49008	7	Sololá	710	Panajachel	8	Panajachel	7	Julio	2023-07-16T00:00:00	2024-11-08T23:00:00	5	Humedad	85
49009	7	Sololá	710	Panajachel	8	Panajachel	7	Julio	2023-07-16T00:00:00	2024-11-08T23:00:00	6	Velocidad del viento	0
49010	7	Sololá	710	Panajachel	8	Panajachel	7	Julio	2023-07-16T00:00:00	2024-11-08T23:00:00	7	Dirección del viento	0
49011	7	Sololá	710	Panajachel	8	Panajachel	7	Julio	2023-07-16T00:00:00	2024-11-08T23:00:00	1	Precipitación	0
49012	7	Sololá	710	Panajachel	8	Panajachel	7	Julio	2023-07-16T00:00:00	2024-11-08T23:00:00	8	Radiación solar	0
49013	7	Sololá	710	Panajachel	8	Panajachel	7	Julio	2023-07-17T00:00:00	2024-11-08T00:00:00	2	Temperatura media	19.6
49014	7	Sololá	710	Panajachel	8	Panajachel	7	Julio	2023-07-17T00:00:00	2024-11-08T00:00:00	4	Temperatura máxima	19.7
49015	7	Sololá	710	Panajachel	8	Panajachel	7	Julio	2023-07-17T00:00:00	2024-11-08T00:00:00	3	Temperatura mínima	17.8
49016	7	Sololá	710	Panajachel	8	Panajachel	7	Julio	2023-07-17T00:00:00	2024-11-08T00:00:00	5	Humedad	75
49017	7	Sololá	710	Panajachel	8	Panajachel	7	Julio	2023-07-17T00:00:00	2024-11-08T00:00:00	6	Velocidad del viento	3.2
49018	7	Sololá	710	Panajachel	8	Panajachel	7	Julio	2023-07-17T00:00:00	2024-11-08T00:00:00	7	Dirección del viento	3.22
49019	7	Sololá	710	Panajachel	8	Panajachel	7	Julio	2023-07-17T00:00:00	2024-11-08T00:00:00	1	Precipitación	0
49020	7	Sololá	710	Panajachel	8	Panajachel	7	Julio	2023-07-17T00:00:00	2024-11-08T00:00:00	8	Radiación solar	0
49021	7	Sololá	710	Panajachel	8	Panajachel	7	Julio	2023-07-17T00:00:00	2024-11-08T01:00:00	2	Temperatura media	19.4
49022	7	Sololá	710	Panajachel	8	Panajachel	7	Julio	2023-07-17T00:00:00	2024-11-08T01:00:00	4	Temperatura máxima	20
49023	7	Sololá	710	Panajachel	8	Panajachel	7	Julio	2023-07-17T00:00:00	2024-11-08T01:00:00	3	Temperatura mínima	18.9
49024	7	Sololá	710	Panajachel	8	Panajachel	7	Julio	2023-07-17T00:00:00	2024-11-08T01:00:00	5	Humedad	76
49025	7	Sololá	710	Panajachel	8	Panajachel	7	Julio	2023-07-17T00:00:00	2024-11-08T01:00:00	6	Velocidad del viento	0
49026	7	Sololá	710	Panajachel	8	Panajachel	7	Julio	2023-07-17T00:00:00	2024-11-08T01:00:00	7	Dirección del viento	0
49027	7	Sololá	710	Panajachel	8	Panajachel	7	Julio	2023-07-17T00:00:00	2024-11-08T01:00:00	1	Precipitación	0
49028	7	Sololá	710	Panajachel	8	Panajachel	7	Julio	2023-07-17T00:00:00	2024-11-08T01:00:00	8	Radiación solar	0
49029	7	Sololá	710	Panajachel	8	Panajachel	7	Julio	2023-07-17T00:00:00	2024-11-08T02:00:00	2	Temperatura media	18.6
49030	7	Sololá	710	Panajachel	8	Panajachel	7	Julio	2023-07-17T00:00:00	2024-11-08T02:00:00	4	Temperatura máxima	19.8
49031	7	Sololá	710	Panajachel	8	Panajachel	7	Julio	2023-07-17T00:00:00	2024-11-08T02:00:00	3	Temperatura mínima	18.4
49032	7	Sololá	710	Panajachel	8	Panajachel	7	Julio	2023-07-17T00:00:00	2024-11-08T02:00:00	5	Humedad	81
49033	7	Sololá	710	Panajachel	8	Panajachel	7	Julio	2023-07-17T00:00:00	2024-11-08T02:00:00	6	Velocidad del viento	0
49034	7	Sololá	710	Panajachel	8	Panajachel	7	Julio	2023-07-17T00:00:00	2024-11-08T02:00:00	7	Dirección del viento	0
49035	7	Sololá	710	Panajachel	8	Panajachel	7	Julio	2023-07-17T00:00:00	2024-11-08T02:00:00	1	Precipitación	0
49036	7	Sololá	710	Panajachel	8	Panajachel	7	Julio	2023-07-17T00:00:00	2024-11-08T02:00:00	8	Radiación solar	0
49037	7	Sololá	710	Panajachel	8	Panajachel	7	Julio	2023-07-17T00:00:00	2024-11-08T03:00:00	2	Temperatura media	18.8
49038	7	Sololá	710	Panajachel	8	Panajachel	7	Julio	2023-07-17T00:00:00	2024-11-08T03:00:00	4	Temperatura máxima	18.8
49039	7	Sololá	710	Panajachel	8	Panajachel	7	Julio	2023-07-17T00:00:00	2024-11-08T03:00:00	3	Temperatura mínima	18.2
49040	7	Sololá	710	Panajachel	8	Panajachel	7	Julio	2023-07-17T00:00:00	2024-11-08T03:00:00	5	Humedad	78
49041	7	Sololá	710	Panajachel	8	Panajachel	7	Julio	2023-07-17T00:00:00	2024-11-08T03:00:00	6	Velocidad del viento	0
49042	7	Sololá	710	Panajachel	8	Panajachel	7	Julio	2023-07-17T00:00:00	2024-11-08T03:00:00	7	Dirección del viento	0
49043	7	Sololá	710	Panajachel	8	Panajachel	7	Julio	2023-07-17T00:00:00	2024-11-08T03:00:00	1	Precipitación	0
49044	7	Sololá	710	Panajachel	8	Panajachel	7	Julio	2023-07-17T00:00:00	2024-11-08T03:00:00	8	Radiación solar	0
49045	7	Sololá	710	Panajachel	8	Panajachel	7	Julio	2023-07-17T00:00:00	2024-11-08T04:00:00	2	Temperatura media	20.9
49046	7	Sololá	710	Panajachel	8	Panajachel	7	Julio	2023-07-17T00:00:00	2024-11-08T04:00:00	4	Temperatura máxima	20.9
49047	7	Sololá	710	Panajachel	8	Panajachel	7	Julio	2023-07-17T00:00:00	2024-11-08T04:00:00	3	Temperatura mínima	18.8
49048	7	Sololá	710	Panajachel	8	Panajachel	7	Julio	2023-07-17T00:00:00	2024-11-08T04:00:00	5	Humedad	67
49049	7	Sololá	710	Panajachel	8	Panajachel	7	Julio	2023-07-17T00:00:00	2024-11-08T04:00:00	6	Velocidad del viento	4.8
49050	7	Sololá	710	Panajachel	8	Panajachel	7	Julio	2023-07-17T00:00:00	2024-11-08T04:00:00	7	Dirección del viento	4.83
49051	7	Sololá	710	Panajachel	8	Panajachel	7	Julio	2023-07-17T00:00:00	2024-11-08T04:00:00	1	Precipitación	0
49052	7	Sololá	710	Panajachel	8	Panajachel	7	Julio	2023-07-17T00:00:00	2024-11-08T04:00:00	8	Radiación solar	0
49053	7	Sololá	710	Panajachel	8	Panajachel	7	Julio	2023-07-17T00:00:00	2024-11-08T05:00:00	2	Temperatura media	20.7
49054	7	Sololá	710	Panajachel	8	Panajachel	7	Julio	2023-07-17T00:00:00	2024-11-08T05:00:00	4	Temperatura máxima	21.3
49055	7	Sololá	710	Panajachel	8	Panajachel	7	Julio	2023-07-17T00:00:00	2024-11-08T05:00:00	3	Temperatura mínima	20.7
49056	7	Sololá	710	Panajachel	8	Panajachel	7	Julio	2023-07-17T00:00:00	2024-11-08T05:00:00	5	Humedad	65
49057	7	Sololá	710	Panajachel	8	Panajachel	7	Julio	2023-07-17T00:00:00	2024-11-08T05:00:00	6	Velocidad del viento	9.7
49058	7	Sololá	710	Panajachel	8	Panajachel	7	Julio	2023-07-17T00:00:00	2024-11-08T05:00:00	7	Dirección del viento	9.66
49059	7	Sololá	710	Panajachel	8	Panajachel	7	Julio	2023-07-17T00:00:00	2024-11-08T05:00:00	1	Precipitación	0
49060	7	Sololá	710	Panajachel	8	Panajachel	7	Julio	2023-07-17T00:00:00	2024-11-08T05:00:00	8	Radiación solar	0
49061	7	Sololá	710	Panajachel	8	Panajachel	7	Julio	2023-07-17T00:00:00	2024-11-08T06:00:00	2	Temperatura media	20.1
49062	7	Sololá	710	Panajachel	8	Panajachel	7	Julio	2023-07-17T00:00:00	2024-11-08T06:00:00	4	Temperatura máxima	20.7
49063	7	Sololá	710	Panajachel	8	Panajachel	7	Julio	2023-07-17T00:00:00	2024-11-08T06:00:00	3	Temperatura mínima	20
49064	7	Sololá	710	Panajachel	8	Panajachel	7	Julio	2023-07-17T00:00:00	2024-11-08T06:00:00	5	Humedad	67
49065	7	Sololá	710	Panajachel	8	Panajachel	7	Julio	2023-07-17T00:00:00	2024-11-08T06:00:00	6	Velocidad del viento	11.3
49066	7	Sololá	710	Panajachel	8	Panajachel	7	Julio	2023-07-17T00:00:00	2024-11-08T06:00:00	7	Dirección del viento	11.27
49067	7	Sololá	710	Panajachel	8	Panajachel	7	Julio	2023-07-17T00:00:00	2024-11-08T06:00:00	1	Precipitación	0
49068	7	Sololá	710	Panajachel	8	Panajachel	7	Julio	2023-07-17T00:00:00	2024-11-08T06:00:00	8	Radiación solar	1
49069	7	Sololá	710	Panajachel	8	Panajachel	7	Julio	2023-07-17T00:00:00	2024-11-08T07:00:00	2	Temperatura media	20.8
49070	7	Sololá	710	Panajachel	8	Panajachel	7	Julio	2023-07-17T00:00:00	2024-11-08T07:00:00	4	Temperatura máxima	20.8
49071	7	Sololá	710	Panajachel	8	Panajachel	7	Julio	2023-07-17T00:00:00	2024-11-08T07:00:00	3	Temperatura mínima	19.9
49072	7	Sololá	710	Panajachel	8	Panajachel	7	Julio	2023-07-17T00:00:00	2024-11-08T07:00:00	5	Humedad	66
49073	7	Sololá	710	Panajachel	8	Panajachel	7	Julio	2023-07-17T00:00:00	2024-11-08T07:00:00	6	Velocidad del viento	9.7
49074	7	Sololá	710	Panajachel	8	Panajachel	7	Julio	2023-07-17T00:00:00	2024-11-08T07:00:00	7	Dirección del viento	9.66
49075	7	Sololá	710	Panajachel	8	Panajachel	7	Julio	2023-07-17T00:00:00	2024-11-08T07:00:00	1	Precipitación	0
49076	7	Sololá	710	Panajachel	8	Panajachel	7	Julio	2023-07-17T00:00:00	2024-11-08T07:00:00	8	Radiación solar	75
49077	7	Sololá	710	Panajachel	8	Panajachel	7	Julio	2023-07-17T00:00:00	2024-11-08T08:00:00	2	Temperatura media	21.9
49078	7	Sololá	710	Panajachel	8	Panajachel	7	Julio	2023-07-17T00:00:00	2024-11-08T08:00:00	4	Temperatura máxima	22
49079	7	Sololá	710	Panajachel	8	Panajachel	7	Julio	2023-07-17T00:00:00	2024-11-08T08:00:00	3	Temperatura mínima	20.8
49080	7	Sololá	710	Panajachel	8	Panajachel	7	Julio	2023-07-17T00:00:00	2024-11-08T08:00:00	5	Humedad	62
49081	7	Sololá	710	Panajachel	8	Panajachel	7	Julio	2023-07-17T00:00:00	2024-11-08T08:00:00	6	Velocidad del viento	3.2
49082	7	Sololá	710	Panajachel	8	Panajachel	7	Julio	2023-07-17T00:00:00	2024-11-08T08:00:00	7	Dirección del viento	3.22
49083	7	Sololá	710	Panajachel	8	Panajachel	7	Julio	2023-07-17T00:00:00	2024-11-08T08:00:00	1	Precipitación	0
49084	7	Sololá	710	Panajachel	8	Panajachel	7	Julio	2023-07-17T00:00:00	2024-11-08T08:00:00	8	Radiación solar	315
49085	7	Sololá	710	Panajachel	8	Panajachel	7	Julio	2023-07-17T00:00:00	2024-11-08T09:00:00	2	Temperatura media	23.3
49086	7	Sololá	710	Panajachel	8	Panajachel	7	Julio	2023-07-17T00:00:00	2024-11-08T09:00:00	4	Temperatura máxima	23.3
49087	7	Sololá	710	Panajachel	8	Panajachel	7	Julio	2023-07-17T00:00:00	2024-11-08T09:00:00	3	Temperatura mínima	21.9
49088	7	Sololá	710	Panajachel	8	Panajachel	7	Julio	2023-07-17T00:00:00	2024-11-08T09:00:00	5	Humedad	56
49089	7	Sololá	710	Panajachel	8	Panajachel	7	Julio	2023-07-17T00:00:00	2024-11-08T09:00:00	6	Velocidad del viento	6.4
49090	7	Sololá	710	Panajachel	8	Panajachel	7	Julio	2023-07-17T00:00:00	2024-11-08T09:00:00	7	Dirección del viento	6.44
49091	7	Sololá	710	Panajachel	8	Panajachel	7	Julio	2023-07-17T00:00:00	2024-11-08T09:00:00	1	Precipitación	0
49092	7	Sololá	710	Panajachel	8	Panajachel	7	Julio	2023-07-17T00:00:00	2024-11-08T09:00:00	8	Radiación solar	534
49093	7	Sololá	710	Panajachel	8	Panajachel	7	Julio	2023-07-17T00:00:00	2024-11-08T10:00:00	2	Temperatura media	24.5
49094	7	Sololá	710	Panajachel	8	Panajachel	7	Julio	2023-07-17T00:00:00	2024-11-08T10:00:00	4	Temperatura máxima	24.6
49095	7	Sololá	710	Panajachel	8	Panajachel	7	Julio	2023-07-17T00:00:00	2024-11-08T10:00:00	3	Temperatura mínima	23.3
49096	7	Sololá	710	Panajachel	8	Panajachel	7	Julio	2023-07-17T00:00:00	2024-11-08T10:00:00	5	Humedad	55
49097	7	Sololá	710	Panajachel	8	Panajachel	7	Julio	2023-07-17T00:00:00	2024-11-08T10:00:00	6	Velocidad del viento	8
49098	7	Sololá	710	Panajachel	8	Panajachel	7	Julio	2023-07-17T00:00:00	2024-11-08T10:00:00	7	Dirección del viento	8.05
49099	7	Sololá	710	Panajachel	8	Panajachel	7	Julio	2023-07-17T00:00:00	2024-11-08T10:00:00	1	Precipitación	0
49100	7	Sololá	710	Panajachel	8	Panajachel	7	Julio	2023-07-17T00:00:00	2024-11-08T10:00:00	8	Radiación solar	749
49101	7	Sololá	710	Panajachel	8	Panajachel	7	Julio	2023-07-17T00:00:00	2024-11-08T11:00:00	2	Temperatura media	25.2
49102	7	Sololá	710	Panajachel	8	Panajachel	7	Julio	2023-07-17T00:00:00	2024-11-08T11:00:00	4	Temperatura máxima	25.3
49103	7	Sololá	710	Panajachel	8	Panajachel	7	Julio	2023-07-17T00:00:00	2024-11-08T11:00:00	3	Temperatura mínima	24.3
49104	7	Sololá	710	Panajachel	8	Panajachel	7	Julio	2023-07-17T00:00:00	2024-11-08T11:00:00	5	Humedad	52
49105	7	Sololá	710	Panajachel	8	Panajachel	7	Julio	2023-07-17T00:00:00	2024-11-08T11:00:00	6	Velocidad del viento	9.7
49106	7	Sololá	710	Panajachel	8	Panajachel	7	Julio	2023-07-17T00:00:00	2024-11-08T11:00:00	7	Dirección del viento	9.66
49107	7	Sololá	710	Panajachel	8	Panajachel	7	Julio	2023-07-17T00:00:00	2024-11-08T11:00:00	1	Precipitación	0
49108	7	Sololá	710	Panajachel	8	Panajachel	7	Julio	2023-07-17T00:00:00	2024-11-08T11:00:00	8	Radiación solar	858
49109	7	Sololá	710	Panajachel	8	Panajachel	7	Julio	2023-07-17T00:00:00	2024-11-08T12:00:00	2	Temperatura media	25.9
49110	7	Sololá	710	Panajachel	8	Panajachel	7	Julio	2023-07-17T00:00:00	2024-11-08T12:00:00	4	Temperatura máxima	25.9
49111	7	Sololá	710	Panajachel	8	Panajachel	7	Julio	2023-07-17T00:00:00	2024-11-08T12:00:00	3	Temperatura mínima	25.1
49112	7	Sololá	710	Panajachel	8	Panajachel	7	Julio	2023-07-17T00:00:00	2024-11-08T12:00:00	5	Humedad	47
49113	7	Sololá	710	Panajachel	8	Panajachel	7	Julio	2023-07-17T00:00:00	2024-11-08T12:00:00	6	Velocidad del viento	11.3
49114	7	Sololá	710	Panajachel	8	Panajachel	7	Julio	2023-07-17T00:00:00	2024-11-08T12:00:00	7	Dirección del viento	11.27
49115	7	Sololá	710	Panajachel	8	Panajachel	7	Julio	2023-07-17T00:00:00	2024-11-08T12:00:00	1	Precipitación	0
49116	7	Sololá	710	Panajachel	8	Panajachel	7	Julio	2023-07-17T00:00:00	2024-11-08T12:00:00	8	Radiación solar	944
49117	7	Sololá	710	Panajachel	8	Panajachel	7	Julio	2023-07-17T00:00:00	2024-11-08T13:00:00	2	Temperatura media	26.6
49118	7	Sololá	710	Panajachel	8	Panajachel	7	Julio	2023-07-17T00:00:00	2024-11-08T13:00:00	4	Temperatura máxima	26.6
49119	7	Sololá	710	Panajachel	8	Panajachel	7	Julio	2023-07-17T00:00:00	2024-11-08T13:00:00	3	Temperatura mínima	25.8
49120	7	Sololá	710	Panajachel	8	Panajachel	7	Julio	2023-07-17T00:00:00	2024-11-08T13:00:00	5	Humedad	47
49121	7	Sololá	710	Panajachel	8	Panajachel	7	Julio	2023-07-17T00:00:00	2024-11-08T13:00:00	6	Velocidad del viento	9.7
49122	7	Sololá	710	Panajachel	8	Panajachel	7	Julio	2023-07-17T00:00:00	2024-11-08T13:00:00	7	Dirección del viento	9.66
49123	7	Sololá	710	Panajachel	8	Panajachel	7	Julio	2023-07-17T00:00:00	2024-11-08T13:00:00	1	Precipitación	0
49124	7	Sololá	710	Panajachel	8	Panajachel	7	Julio	2023-07-17T00:00:00	2024-11-08T13:00:00	8	Radiación solar	936
49125	7	Sololá	710	Panajachel	8	Panajachel	7	Julio	2023-07-17T00:00:00	2024-11-08T14:00:00	2	Temperatura media	27
49126	7	Sololá	710	Panajachel	8	Panajachel	7	Julio	2023-07-17T00:00:00	2024-11-08T14:00:00	4	Temperatura máxima	27.1
49127	7	Sololá	710	Panajachel	8	Panajachel	7	Julio	2023-07-17T00:00:00	2024-11-08T14:00:00	3	Temperatura mínima	25.9
49128	7	Sololá	710	Panajachel	8	Panajachel	7	Julio	2023-07-17T00:00:00	2024-11-08T14:00:00	5	Humedad	44
49129	7	Sololá	710	Panajachel	8	Panajachel	7	Julio	2023-07-17T00:00:00	2024-11-08T14:00:00	6	Velocidad del viento	9.7
49130	7	Sololá	710	Panajachel	8	Panajachel	7	Julio	2023-07-17T00:00:00	2024-11-08T14:00:00	7	Dirección del viento	9.66
49131	7	Sololá	710	Panajachel	8	Panajachel	7	Julio	2023-07-17T00:00:00	2024-11-08T14:00:00	1	Precipitación	0
49132	7	Sololá	710	Panajachel	8	Panajachel	7	Julio	2023-07-17T00:00:00	2024-11-08T14:00:00	8	Radiación solar	873
49133	7	Sololá	710	Panajachel	8	Panajachel	7	Julio	2023-07-17T00:00:00	2024-11-08T15:00:00	2	Temperatura media	27.3
49134	7	Sololá	710	Panajachel	8	Panajachel	7	Julio	2023-07-17T00:00:00	2024-11-08T15:00:00	4	Temperatura máxima	27.4
49135	7	Sololá	710	Panajachel	8	Panajachel	7	Julio	2023-07-17T00:00:00	2024-11-08T15:00:00	3	Temperatura mínima	26.8
49136	7	Sololá	710	Panajachel	8	Panajachel	7	Julio	2023-07-17T00:00:00	2024-11-08T15:00:00	5	Humedad	47
49137	7	Sololá	710	Panajachel	8	Panajachel	7	Julio	2023-07-17T00:00:00	2024-11-08T15:00:00	6	Velocidad del viento	8
49138	7	Sololá	710	Panajachel	8	Panajachel	7	Julio	2023-07-17T00:00:00	2024-11-08T15:00:00	7	Dirección del viento	8.05
49139	7	Sololá	710	Panajachel	8	Panajachel	7	Julio	2023-07-17T00:00:00	2024-11-08T15:00:00	1	Precipitación	0
49140	7	Sololá	710	Panajachel	8	Panajachel	7	Julio	2023-07-17T00:00:00	2024-11-08T15:00:00	8	Radiación solar	817
49141	7	Sololá	710	Panajachel	8	Panajachel	7	Julio	2023-07-17T00:00:00	2024-11-08T16:00:00	2	Temperatura media	26.1
49142	7	Sololá	710	Panajachel	8	Panajachel	7	Julio	2023-07-17T00:00:00	2024-11-08T16:00:00	4	Temperatura máxima	27.4
49143	7	Sololá	710	Panajachel	8	Panajachel	7	Julio	2023-07-17T00:00:00	2024-11-08T16:00:00	3	Temperatura mínima	25.9
49144	7	Sololá	710	Panajachel	8	Panajachel	7	Julio	2023-07-17T00:00:00	2024-11-08T16:00:00	5	Humedad	52
49145	7	Sololá	710	Panajachel	8	Panajachel	7	Julio	2023-07-17T00:00:00	2024-11-08T16:00:00	6	Velocidad del viento	6.4
49146	7	Sololá	710	Panajachel	8	Panajachel	7	Julio	2023-07-17T00:00:00	2024-11-08T16:00:00	7	Dirección del viento	6.44
49147	7	Sololá	710	Panajachel	8	Panajachel	7	Julio	2023-07-17T00:00:00	2024-11-08T16:00:00	1	Precipitación	0
49148	7	Sololá	710	Panajachel	8	Panajachel	7	Julio	2023-07-17T00:00:00	2024-11-08T16:00:00	8	Radiación solar	400
49149	7	Sololá	710	Panajachel	8	Panajachel	7	Julio	2023-07-17T00:00:00	2024-11-08T17:00:00	2	Temperatura media	25.4
49150	7	Sololá	710	Panajachel	8	Panajachel	7	Julio	2023-07-17T00:00:00	2024-11-08T17:00:00	4	Temperatura máxima	26.2
49151	7	Sololá	710	Panajachel	8	Panajachel	7	Julio	2023-07-17T00:00:00	2024-11-08T17:00:00	3	Temperatura mínima	25.3
49152	7	Sololá	710	Panajachel	8	Panajachel	7	Julio	2023-07-17T00:00:00	2024-11-08T17:00:00	5	Humedad	53
49153	7	Sololá	710	Panajachel	8	Panajachel	7	Julio	2023-07-17T00:00:00	2024-11-08T17:00:00	6	Velocidad del viento	9.7
49154	7	Sololá	710	Panajachel	8	Panajachel	7	Julio	2023-07-17T00:00:00	2024-11-08T17:00:00	7	Dirección del viento	9.66
49155	7	Sololá	710	Panajachel	8	Panajachel	7	Julio	2023-07-17T00:00:00	2024-11-08T17:00:00	1	Precipitación	0
49156	7	Sololá	710	Panajachel	8	Panajachel	7	Julio	2023-07-17T00:00:00	2024-11-08T17:00:00	8	Radiación solar	105
49157	7	Sololá	710	Panajachel	8	Panajachel	7	Julio	2023-07-17T00:00:00	2024-11-08T18:00:00	2	Temperatura media	24.3
49158	7	Sololá	710	Panajachel	8	Panajachel	7	Julio	2023-07-17T00:00:00	2024-11-08T18:00:00	4	Temperatura máxima	25.4
49159	7	Sololá	710	Panajachel	8	Panajachel	7	Julio	2023-07-17T00:00:00	2024-11-08T18:00:00	3	Temperatura mínima	24.3
49160	7	Sololá	710	Panajachel	8	Panajachel	7	Julio	2023-07-17T00:00:00	2024-11-08T18:00:00	5	Humedad	55
49161	7	Sololá	710	Panajachel	8	Panajachel	7	Julio	2023-07-17T00:00:00	2024-11-08T18:00:00	6	Velocidad del viento	9.7
49162	7	Sololá	710	Panajachel	8	Panajachel	7	Julio	2023-07-17T00:00:00	2024-11-08T18:00:00	7	Dirección del viento	9.66
49163	7	Sololá	710	Panajachel	8	Panajachel	7	Julio	2023-07-17T00:00:00	2024-11-08T18:00:00	1	Precipitación	0
49164	7	Sololá	710	Panajachel	8	Panajachel	7	Julio	2023-07-17T00:00:00	2024-11-08T18:00:00	8	Radiación solar	62
49165	7	Sololá	710	Panajachel	8	Panajachel	7	Julio	2023-07-17T00:00:00	2024-11-08T19:00:00	2	Temperatura media	22.9
49166	7	Sololá	710	Panajachel	8	Panajachel	7	Julio	2023-07-17T00:00:00	2024-11-08T19:00:00	4	Temperatura máxima	24.3
49167	7	Sololá	710	Panajachel	8	Panajachel	7	Julio	2023-07-17T00:00:00	2024-11-08T19:00:00	3	Temperatura mínima	22.9
49168	7	Sololá	710	Panajachel	8	Panajachel	7	Julio	2023-07-17T00:00:00	2024-11-08T19:00:00	5	Humedad	61
49169	7	Sololá	710	Panajachel	8	Panajachel	7	Julio	2023-07-17T00:00:00	2024-11-08T19:00:00	6	Velocidad del viento	9.7
49170	7	Sololá	710	Panajachel	8	Panajachel	7	Julio	2023-07-17T00:00:00	2024-11-08T19:00:00	7	Dirección del viento	9.66
49171	7	Sololá	710	Panajachel	8	Panajachel	7	Julio	2023-07-17T00:00:00	2024-11-08T19:00:00	1	Precipitación	0
49172	7	Sololá	710	Panajachel	8	Panajachel	7	Julio	2023-07-17T00:00:00	2024-11-08T19:00:00	8	Radiación solar	0
49173	7	Sololá	710	Panajachel	8	Panajachel	7	Julio	2023-07-17T00:00:00	2024-11-08T20:00:00	2	Temperatura media	21.6
49174	7	Sololá	710	Panajachel	8	Panajachel	7	Julio	2023-07-17T00:00:00	2024-11-08T20:00:00	4	Temperatura máxima	22.8
49175	7	Sololá	710	Panajachel	8	Panajachel	7	Julio	2023-07-17T00:00:00	2024-11-08T20:00:00	3	Temperatura mínima	21.5
49176	7	Sololá	710	Panajachel	8	Panajachel	7	Julio	2023-07-17T00:00:00	2024-11-08T20:00:00	5	Humedad	67
49177	7	Sololá	710	Panajachel	8	Panajachel	7	Julio	2023-07-17T00:00:00	2024-11-08T20:00:00	6	Velocidad del viento	1.6
49178	7	Sololá	710	Panajachel	8	Panajachel	7	Julio	2023-07-17T00:00:00	2024-11-08T20:00:00	7	Dirección del viento	1.61
49179	7	Sololá	710	Panajachel	8	Panajachel	7	Julio	2023-07-17T00:00:00	2024-11-08T20:00:00	1	Precipitación	0
49180	7	Sololá	710	Panajachel	8	Panajachel	7	Julio	2023-07-17T00:00:00	2024-11-08T20:00:00	8	Radiación solar	0
49181	7	Sololá	710	Panajachel	8	Panajachel	7	Julio	2023-07-17T00:00:00	2024-11-08T21:00:00	2	Temperatura media	21.3
49182	7	Sololá	710	Panajachel	8	Panajachel	7	Julio	2023-07-17T00:00:00	2024-11-08T21:00:00	4	Temperatura máxima	21.6
49183	7	Sololá	710	Panajachel	8	Panajachel	7	Julio	2023-07-17T00:00:00	2024-11-08T21:00:00	3	Temperatura mínima	20.9
49184	7	Sololá	710	Panajachel	8	Panajachel	7	Julio	2023-07-17T00:00:00	2024-11-08T21:00:00	5	Humedad	67
49185	7	Sololá	710	Panajachel	8	Panajachel	7	Julio	2023-07-17T00:00:00	2024-11-08T21:00:00	6	Velocidad del viento	1.6
49186	7	Sololá	710	Panajachel	8	Panajachel	7	Julio	2023-07-17T00:00:00	2024-11-08T21:00:00	7	Dirección del viento	1.61
49187	7	Sololá	710	Panajachel	8	Panajachel	7	Julio	2023-07-17T00:00:00	2024-11-08T21:00:00	1	Precipitación	0
49188	7	Sololá	710	Panajachel	8	Panajachel	7	Julio	2023-07-17T00:00:00	2024-11-08T21:00:00	8	Radiación solar	0
49189	7	Sololá	710	Panajachel	8	Panajachel	7	Julio	2023-07-17T00:00:00	2024-11-08T22:00:00	2	Temperatura media	21.1
49190	7	Sololá	710	Panajachel	8	Panajachel	7	Julio	2023-07-17T00:00:00	2024-11-08T22:00:00	4	Temperatura máxima	21.3
49191	7	Sololá	710	Panajachel	8	Panajachel	7	Julio	2023-07-17T00:00:00	2024-11-08T22:00:00	3	Temperatura mínima	21
49192	7	Sololá	710	Panajachel	8	Panajachel	7	Julio	2023-07-17T00:00:00	2024-11-08T22:00:00	5	Humedad	69
49193	7	Sololá	710	Panajachel	8	Panajachel	7	Julio	2023-07-17T00:00:00	2024-11-08T22:00:00	6	Velocidad del viento	4.8
49194	7	Sololá	710	Panajachel	8	Panajachel	7	Julio	2023-07-17T00:00:00	2024-11-08T22:00:00	7	Dirección del viento	4.83
49195	7	Sololá	710	Panajachel	8	Panajachel	7	Julio	2023-07-17T00:00:00	2024-11-08T22:00:00	1	Precipitación	0
49196	7	Sololá	710	Panajachel	8	Panajachel	7	Julio	2023-07-17T00:00:00	2024-11-08T22:00:00	8	Radiación solar	0
49197	7	Sololá	710	Panajachel	8	Panajachel	7	Julio	2023-07-17T00:00:00	2024-11-08T23:00:00	2	Temperatura media	20.8
49198	7	Sololá	710	Panajachel	8	Panajachel	7	Julio	2023-07-17T00:00:00	2024-11-08T23:00:00	4	Temperatura máxima	21.1
49199	7	Sololá	710	Panajachel	8	Panajachel	7	Julio	2023-07-17T00:00:00	2024-11-08T23:00:00	3	Temperatura mínima	20.8
49200	7	Sololá	710	Panajachel	8	Panajachel	7	Julio	2023-07-17T00:00:00	2024-11-08T23:00:00	5	Humedad	68
49201	7	Sololá	710	Panajachel	8	Panajachel	7	Julio	2023-07-17T00:00:00	2024-11-08T23:00:00	6	Velocidad del viento	4.8
49202	7	Sololá	710	Panajachel	8	Panajachel	7	Julio	2023-07-17T00:00:00	2024-11-08T23:00:00	7	Dirección del viento	4.83
49203	7	Sololá	710	Panajachel	8	Panajachel	7	Julio	2023-07-17T00:00:00	2024-11-08T23:00:00	1	Precipitación	0
49204	7	Sololá	710	Panajachel	8	Panajachel	7	Julio	2023-07-17T00:00:00	2024-11-08T23:00:00	8	Radiación solar	0
49205	7	Sololá	710	Panajachel	8	Panajachel	7	Julio	2023-07-18T00:00:00	2024-11-08T00:00:00	2	Temperatura media	20.1
49206	7	Sololá	710	Panajachel	8	Panajachel	7	Julio	2023-07-18T00:00:00	2024-11-08T00:00:00	4	Temperatura máxima	20.8
49207	7	Sololá	710	Panajachel	8	Panajachel	7	Julio	2023-07-18T00:00:00	2024-11-08T00:00:00	3	Temperatura mínima	20
49208	7	Sololá	710	Panajachel	8	Panajachel	7	Julio	2023-07-18T00:00:00	2024-11-08T00:00:00	5	Humedad	68
49209	7	Sololá	710	Panajachel	8	Panajachel	7	Julio	2023-07-18T00:00:00	2024-11-08T00:00:00	6	Velocidad del viento	4.8
49210	7	Sololá	710	Panajachel	8	Panajachel	7	Julio	2023-07-18T00:00:00	2024-11-08T00:00:00	7	Dirección del viento	4.83
49211	7	Sololá	710	Panajachel	8	Panajachel	7	Julio	2023-07-18T00:00:00	2024-11-08T00:00:00	1	Precipitación	0
49212	7	Sololá	710	Panajachel	8	Panajachel	7	Julio	2023-07-18T00:00:00	2024-11-08T00:00:00	8	Radiación solar	0
49213	7	Sololá	710	Panajachel	8	Panajachel	7	Julio	2023-07-18T00:00:00	2024-11-08T01:00:00	2	Temperatura media	20.1
49214	7	Sololá	710	Panajachel	8	Panajachel	7	Julio	2023-07-18T00:00:00	2024-11-08T01:00:00	4	Temperatura máxima	20.1
49215	7	Sololá	710	Panajachel	8	Panajachel	7	Julio	2023-07-18T00:00:00	2024-11-08T01:00:00	3	Temperatura mínima	19.8
49216	7	Sololá	710	Panajachel	8	Panajachel	7	Julio	2023-07-18T00:00:00	2024-11-08T01:00:00	5	Humedad	69
49217	7	Sololá	710	Panajachel	8	Panajachel	7	Julio	2023-07-18T00:00:00	2024-11-08T01:00:00	6	Velocidad del viento	6.4
49218	7	Sololá	710	Panajachel	8	Panajachel	7	Julio	2023-07-18T00:00:00	2024-11-08T01:00:00	7	Dirección del viento	6.44
49219	7	Sololá	710	Panajachel	8	Panajachel	7	Julio	2023-07-18T00:00:00	2024-11-08T01:00:00	1	Precipitación	0
49220	7	Sololá	710	Panajachel	8	Panajachel	7	Julio	2023-07-18T00:00:00	2024-11-08T01:00:00	8	Radiación solar	0
49221	7	Sololá	710	Panajachel	8	Panajachel	7	Julio	2023-07-18T00:00:00	2024-11-08T02:00:00	2	Temperatura media	19.8
49222	7	Sololá	710	Panajachel	8	Panajachel	7	Julio	2023-07-18T00:00:00	2024-11-08T02:00:00	4	Temperatura máxima	20.1
49223	7	Sololá	710	Panajachel	8	Panajachel	7	Julio	2023-07-18T00:00:00	2024-11-08T02:00:00	3	Temperatura mínima	19.3
49224	7	Sololá	710	Panajachel	8	Panajachel	7	Julio	2023-07-18T00:00:00	2024-11-08T02:00:00	5	Humedad	71
49225	7	Sololá	710	Panajachel	8	Panajachel	7	Julio	2023-07-18T00:00:00	2024-11-08T02:00:00	6	Velocidad del viento	3.2
49226	7	Sololá	710	Panajachel	8	Panajachel	7	Julio	2023-07-18T00:00:00	2024-11-08T02:00:00	7	Dirección del viento	3.22
49227	7	Sololá	710	Panajachel	8	Panajachel	7	Julio	2023-07-18T00:00:00	2024-11-08T02:00:00	1	Precipitación	0
49228	7	Sololá	710	Panajachel	8	Panajachel	7	Julio	2023-07-18T00:00:00	2024-11-08T02:00:00	8	Radiación solar	0
49229	7	Sololá	710	Panajachel	8	Panajachel	7	Julio	2023-07-18T00:00:00	2024-11-08T03:00:00	2	Temperatura media	19.4
49230	7	Sololá	710	Panajachel	8	Panajachel	7	Julio	2023-07-18T00:00:00	2024-11-08T03:00:00	4	Temperatura máxima	19.8
49231	7	Sololá	710	Panajachel	8	Panajachel	7	Julio	2023-07-18T00:00:00	2024-11-08T03:00:00	3	Temperatura mínima	19.4
49232	7	Sololá	710	Panajachel	8	Panajachel	7	Julio	2023-07-18T00:00:00	2024-11-08T03:00:00	5	Humedad	73
49233	7	Sololá	710	Panajachel	8	Panajachel	7	Julio	2023-07-18T00:00:00	2024-11-08T03:00:00	6	Velocidad del viento	3.2
49234	7	Sololá	710	Panajachel	8	Panajachel	7	Julio	2023-07-18T00:00:00	2024-11-08T03:00:00	7	Dirección del viento	3.22
49235	7	Sololá	710	Panajachel	8	Panajachel	7	Julio	2023-07-18T00:00:00	2024-11-08T03:00:00	1	Precipitación	0
49236	7	Sololá	710	Panajachel	8	Panajachel	7	Julio	2023-07-18T00:00:00	2024-11-08T03:00:00	8	Radiación solar	0
49237	7	Sololá	710	Panajachel	8	Panajachel	7	Julio	2023-07-18T00:00:00	2024-11-08T04:00:00	2	Temperatura media	19.2
49238	7	Sololá	710	Panajachel	8	Panajachel	7	Julio	2023-07-18T00:00:00	2024-11-08T04:00:00	4	Temperatura máxima	19.7
49239	7	Sololá	710	Panajachel	8	Panajachel	7	Julio	2023-07-18T00:00:00	2024-11-08T04:00:00	3	Temperatura mínima	18.6
49240	7	Sololá	710	Panajachel	8	Panajachel	7	Julio	2023-07-18T00:00:00	2024-11-08T04:00:00	5	Humedad	75
49241	7	Sololá	710	Panajachel	8	Panajachel	7	Julio	2023-07-18T00:00:00	2024-11-08T04:00:00	6	Velocidad del viento	1.6
49242	7	Sololá	710	Panajachel	8	Panajachel	7	Julio	2023-07-18T00:00:00	2024-11-08T04:00:00	7	Dirección del viento	1.61
49243	7	Sololá	710	Panajachel	8	Panajachel	7	Julio	2023-07-18T00:00:00	2024-11-08T04:00:00	1	Precipitación	0
49244	7	Sololá	710	Panajachel	8	Panajachel	7	Julio	2023-07-18T00:00:00	2024-11-08T04:00:00	8	Radiación solar	0
49245	7	Sololá	710	Panajachel	8	Panajachel	7	Julio	2023-07-18T00:00:00	2024-11-08T05:00:00	2	Temperatura media	20.3
49246	7	Sololá	710	Panajachel	8	Panajachel	7	Julio	2023-07-18T00:00:00	2024-11-08T05:00:00	4	Temperatura máxima	20.7
49247	7	Sololá	710	Panajachel	8	Panajachel	7	Julio	2023-07-18T00:00:00	2024-11-08T05:00:00	3	Temperatura mínima	19.2
49248	7	Sololá	710	Panajachel	8	Panajachel	7	Julio	2023-07-18T00:00:00	2024-11-08T05:00:00	5	Humedad	70
49249	7	Sololá	710	Panajachel	8	Panajachel	7	Julio	2023-07-18T00:00:00	2024-11-08T05:00:00	6	Velocidad del viento	6.4
49250	7	Sololá	710	Panajachel	8	Panajachel	7	Julio	2023-07-18T00:00:00	2024-11-08T05:00:00	7	Dirección del viento	6.44
49251	7	Sololá	710	Panajachel	8	Panajachel	7	Julio	2023-07-18T00:00:00	2024-11-08T05:00:00	1	Precipitación	0
49252	7	Sololá	710	Panajachel	8	Panajachel	7	Julio	2023-07-18T00:00:00	2024-11-08T05:00:00	8	Radiación solar	0
49253	7	Sololá	710	Panajachel	8	Panajachel	7	Julio	2023-07-18T00:00:00	2024-11-08T06:00:00	2	Temperatura media	20
49254	7	Sololá	710	Panajachel	8	Panajachel	7	Julio	2023-07-18T00:00:00	2024-11-08T06:00:00	4	Temperatura máxima	20.3
49255	7	Sololá	710	Panajachel	8	Panajachel	7	Julio	2023-07-18T00:00:00	2024-11-08T06:00:00	3	Temperatura mínima	19.9
49256	7	Sololá	710	Panajachel	8	Panajachel	7	Julio	2023-07-18T00:00:00	2024-11-08T06:00:00	5	Humedad	71
49257	7	Sololá	710	Panajachel	8	Panajachel	7	Julio	2023-07-18T00:00:00	2024-11-08T06:00:00	6	Velocidad del viento	1.6
49258	7	Sololá	710	Panajachel	8	Panajachel	7	Julio	2023-07-18T00:00:00	2024-11-08T06:00:00	7	Dirección del viento	1.61
49259	7	Sololá	710	Panajachel	8	Panajachel	7	Julio	2023-07-18T00:00:00	2024-11-08T06:00:00	1	Precipitación	0
49260	7	Sololá	710	Panajachel	8	Panajachel	7	Julio	2023-07-18T00:00:00	2024-11-08T06:00:00	8	Radiación solar	1
49261	7	Sololá	710	Panajachel	8	Panajachel	7	Julio	2023-07-18T00:00:00	2024-11-08T07:00:00	2	Temperatura media	20.4
49262	7	Sololá	710	Panajachel	8	Panajachel	7	Julio	2023-07-18T00:00:00	2024-11-08T07:00:00	4	Temperatura máxima	20.4
49263	7	Sololá	710	Panajachel	8	Panajachel	7	Julio	2023-07-18T00:00:00	2024-11-08T07:00:00	3	Temperatura mínima	19.5
49264	7	Sololá	710	Panajachel	8	Panajachel	7	Julio	2023-07-18T00:00:00	2024-11-08T07:00:00	5	Humedad	71
49265	7	Sololá	710	Panajachel	8	Panajachel	7	Julio	2023-07-18T00:00:00	2024-11-08T07:00:00	6	Velocidad del viento	0
49266	7	Sololá	710	Panajachel	8	Panajachel	7	Julio	2023-07-18T00:00:00	2024-11-08T07:00:00	7	Dirección del viento	0
49267	7	Sololá	710	Panajachel	8	Panajachel	7	Julio	2023-07-18T00:00:00	2024-11-08T07:00:00	1	Precipitación	0
49268	7	Sololá	710	Panajachel	8	Panajachel	7	Julio	2023-07-18T00:00:00	2024-11-08T07:00:00	8	Radiación solar	88
49269	7	Sololá	710	Panajachel	8	Panajachel	7	Julio	2023-07-18T00:00:00	2024-11-08T08:00:00	2	Temperatura media	22.3
49270	7	Sololá	710	Panajachel	8	Panajachel	7	Julio	2023-07-18T00:00:00	2024-11-08T08:00:00	4	Temperatura máxima	22.3
49271	7	Sololá	710	Panajachel	8	Panajachel	7	Julio	2023-07-18T00:00:00	2024-11-08T08:00:00	3	Temperatura mínima	20.4
49272	7	Sololá	710	Panajachel	8	Panajachel	7	Julio	2023-07-18T00:00:00	2024-11-08T08:00:00	5	Humedad	61
49273	7	Sololá	710	Panajachel	8	Panajachel	7	Julio	2023-07-18T00:00:00	2024-11-08T08:00:00	6	Velocidad del viento	9.7
49274	7	Sololá	710	Panajachel	8	Panajachel	7	Julio	2023-07-18T00:00:00	2024-11-08T08:00:00	7	Dirección del viento	9.66
49275	7	Sololá	710	Panajachel	8	Panajachel	7	Julio	2023-07-18T00:00:00	2024-11-08T08:00:00	1	Precipitación	0
49276	7	Sololá	710	Panajachel	8	Panajachel	7	Julio	2023-07-18T00:00:00	2024-11-08T08:00:00	8	Radiación solar	291
49277	7	Sololá	710	Panajachel	8	Panajachel	7	Julio	2023-07-18T00:00:00	2024-11-08T09:00:00	2	Temperatura media	23.4
49278	7	Sololá	710	Panajachel	8	Panajachel	7	Julio	2023-07-18T00:00:00	2024-11-08T09:00:00	4	Temperatura máxima	23.4
49279	7	Sololá	710	Panajachel	8	Panajachel	7	Julio	2023-07-18T00:00:00	2024-11-08T09:00:00	3	Temperatura mínima	22.2
49280	7	Sololá	710	Panajachel	8	Panajachel	7	Julio	2023-07-18T00:00:00	2024-11-08T09:00:00	5	Humedad	59
49281	7	Sololá	710	Panajachel	8	Panajachel	7	Julio	2023-07-18T00:00:00	2024-11-08T09:00:00	6	Velocidad del viento	14.5
49282	7	Sololá	710	Panajachel	8	Panajachel	7	Julio	2023-07-18T00:00:00	2024-11-08T09:00:00	7	Dirección del viento	14.48
49283	7	Sololá	710	Panajachel	8	Panajachel	7	Julio	2023-07-18T00:00:00	2024-11-08T09:00:00	1	Precipitación	0
49284	7	Sololá	710	Panajachel	8	Panajachel	7	Julio	2023-07-18T00:00:00	2024-11-08T09:00:00	8	Radiación solar	528
49285	7	Sololá	710	Panajachel	8	Panajachel	7	Julio	2023-07-18T00:00:00	2024-11-08T10:00:00	2	Temperatura media	24.4
49286	7	Sololá	710	Panajachel	8	Panajachel	7	Julio	2023-07-18T00:00:00	2024-11-08T10:00:00	4	Temperatura máxima	24.4
49287	7	Sololá	710	Panajachel	8	Panajachel	7	Julio	2023-07-18T00:00:00	2024-11-08T10:00:00	3	Temperatura mínima	23.3
49288	7	Sololá	710	Panajachel	8	Panajachel	7	Julio	2023-07-18T00:00:00	2024-11-08T10:00:00	5	Humedad	55
49289	7	Sololá	710	Panajachel	8	Panajachel	7	Julio	2023-07-18T00:00:00	2024-11-08T10:00:00	6	Velocidad del viento	11.3
49290	7	Sololá	710	Panajachel	8	Panajachel	7	Julio	2023-07-18T00:00:00	2024-11-08T10:00:00	7	Dirección del viento	11.27
49291	7	Sololá	710	Panajachel	8	Panajachel	7	Julio	2023-07-18T00:00:00	2024-11-08T10:00:00	1	Precipitación	0
49292	7	Sololá	710	Panajachel	8	Panajachel	7	Julio	2023-07-18T00:00:00	2024-11-08T10:00:00	8	Radiación solar	717
49293	7	Sololá	710	Panajachel	8	Panajachel	7	Julio	2023-07-18T00:00:00	2024-11-08T11:00:00	2	Temperatura media	25.6
49294	7	Sololá	710	Panajachel	8	Panajachel	7	Julio	2023-07-18T00:00:00	2024-11-08T11:00:00	4	Temperatura máxima	25.6
49295	7	Sololá	710	Panajachel	8	Panajachel	7	Julio	2023-07-18T00:00:00	2024-11-08T11:00:00	3	Temperatura mínima	24.3
49296	7	Sololá	710	Panajachel	8	Panajachel	7	Julio	2023-07-18T00:00:00	2024-11-08T11:00:00	5	Humedad	51
49297	7	Sololá	710	Panajachel	8	Panajachel	7	Julio	2023-07-18T00:00:00	2024-11-08T11:00:00	6	Velocidad del viento	11.3
49298	7	Sololá	710	Panajachel	8	Panajachel	7	Julio	2023-07-18T00:00:00	2024-11-08T11:00:00	7	Dirección del viento	11.27
49299	7	Sololá	710	Panajachel	8	Panajachel	7	Julio	2023-07-18T00:00:00	2024-11-08T11:00:00	1	Precipitación	0
49300	7	Sololá	710	Panajachel	8	Panajachel	7	Julio	2023-07-18T00:00:00	2024-11-08T11:00:00	8	Radiación solar	856
49301	7	Sololá	710	Panajachel	8	Panajachel	7	Julio	2023-07-18T00:00:00	2024-11-08T12:00:00	2	Temperatura media	26.6
49302	7	Sololá	710	Panajachel	8	Panajachel	7	Julio	2023-07-18T00:00:00	2024-11-08T12:00:00	4	Temperatura máxima	26.6
49303	7	Sololá	710	Panajachel	8	Panajachel	7	Julio	2023-07-18T00:00:00	2024-11-08T12:00:00	3	Temperatura mínima	25.5
49304	7	Sololá	710	Panajachel	8	Panajachel	7	Julio	2023-07-18T00:00:00	2024-11-08T12:00:00	5	Humedad	45
49305	7	Sololá	710	Panajachel	8	Panajachel	7	Julio	2023-07-18T00:00:00	2024-11-08T12:00:00	6	Velocidad del viento	8
49306	7	Sololá	710	Panajachel	8	Panajachel	7	Julio	2023-07-18T00:00:00	2024-11-08T12:00:00	7	Dirección del viento	8.05
49307	7	Sololá	710	Panajachel	8	Panajachel	7	Julio	2023-07-18T00:00:00	2024-11-08T12:00:00	1	Precipitación	0
49308	7	Sololá	710	Panajachel	8	Panajachel	7	Julio	2023-07-18T00:00:00	2024-11-08T12:00:00	8	Radiación solar	950
49309	7	Sololá	710	Panajachel	8	Panajachel	7	Julio	2023-07-18T00:00:00	2024-11-08T13:00:00	2	Temperatura media	27
49310	7	Sololá	710	Panajachel	8	Panajachel	7	Julio	2023-07-18T00:00:00	2024-11-08T13:00:00	4	Temperatura máxima	27.2
49311	7	Sololá	710	Panajachel	8	Panajachel	7	Julio	2023-07-18T00:00:00	2024-11-08T13:00:00	3	Temperatura mínima	26.6
49312	7	Sololá	710	Panajachel	8	Panajachel	7	Julio	2023-07-18T00:00:00	2024-11-08T13:00:00	5	Humedad	42
49313	7	Sololá	710	Panajachel	8	Panajachel	7	Julio	2023-07-18T00:00:00	2024-11-08T13:00:00	6	Velocidad del viento	9.7
49314	7	Sololá	710	Panajachel	8	Panajachel	7	Julio	2023-07-18T00:00:00	2024-11-08T13:00:00	7	Dirección del viento	9.66
49315	7	Sololá	710	Panajachel	8	Panajachel	7	Julio	2023-07-18T00:00:00	2024-11-08T13:00:00	1	Precipitación	0
49316	7	Sololá	710	Panajachel	8	Panajachel	7	Julio	2023-07-18T00:00:00	2024-11-08T13:00:00	8	Radiación solar	966
49317	7	Sololá	710	Panajachel	8	Panajachel	7	Julio	2023-07-18T00:00:00	2024-11-08T14:00:00	2	Temperatura media	28
49318	7	Sololá	710	Panajachel	8	Panajachel	7	Julio	2023-07-18T00:00:00	2024-11-08T14:00:00	4	Temperatura máxima	28.1
49319	7	Sololá	710	Panajachel	8	Panajachel	7	Julio	2023-07-18T00:00:00	2024-11-08T14:00:00	3	Temperatura mínima	26.7
49320	7	Sololá	710	Panajachel	8	Panajachel	7	Julio	2023-07-18T00:00:00	2024-11-08T14:00:00	5	Humedad	39
49321	7	Sololá	710	Panajachel	8	Panajachel	7	Julio	2023-07-18T00:00:00	2024-11-08T14:00:00	6	Velocidad del viento	9.7
49322	7	Sololá	710	Panajachel	8	Panajachel	7	Julio	2023-07-18T00:00:00	2024-11-08T14:00:00	7	Dirección del viento	9.66
49323	7	Sololá	710	Panajachel	8	Panajachel	7	Julio	2023-07-18T00:00:00	2024-11-08T14:00:00	1	Precipitación	0
49324	7	Sololá	710	Panajachel	8	Panajachel	7	Julio	2023-07-18T00:00:00	2024-11-08T14:00:00	8	Radiación solar	939
49325	7	Sololá	710	Panajachel	8	Panajachel	7	Julio	2023-07-18T00:00:00	2024-11-08T15:00:00	2	Temperatura media	27.8
49326	7	Sololá	710	Panajachel	8	Panajachel	7	Julio	2023-07-18T00:00:00	2024-11-08T15:00:00	4	Temperatura máxima	28.2
49327	7	Sololá	710	Panajachel	8	Panajachel	7	Julio	2023-07-18T00:00:00	2024-11-08T15:00:00	3	Temperatura mínima	27.6
49328	7	Sololá	710	Panajachel	8	Panajachel	7	Julio	2023-07-18T00:00:00	2024-11-08T15:00:00	5	Humedad	39
49329	7	Sololá	710	Panajachel	8	Panajachel	7	Julio	2023-07-18T00:00:00	2024-11-08T15:00:00	6	Velocidad del viento	9.7
49330	7	Sololá	710	Panajachel	8	Panajachel	7	Julio	2023-07-18T00:00:00	2024-11-08T15:00:00	7	Dirección del viento	9.66
49331	7	Sololá	710	Panajachel	8	Panajachel	7	Julio	2023-07-18T00:00:00	2024-11-08T15:00:00	1	Precipitación	0
49332	7	Sololá	710	Panajachel	8	Panajachel	7	Julio	2023-07-18T00:00:00	2024-11-08T15:00:00	8	Radiación solar	877
49333	7	Sololá	710	Panajachel	8	Panajachel	7	Julio	2023-07-18T00:00:00	2024-11-08T16:00:00	2	Temperatura media	25.9
49334	7	Sololá	710	Panajachel	8	Panajachel	7	Julio	2023-07-18T00:00:00	2024-11-08T16:00:00	4	Temperatura máxima	28.3
49335	7	Sololá	710	Panajachel	8	Panajachel	7	Julio	2023-07-18T00:00:00	2024-11-08T16:00:00	3	Temperatura mínima	25.9
49336	7	Sololá	710	Panajachel	8	Panajachel	7	Julio	2023-07-18T00:00:00	2024-11-08T16:00:00	5	Humedad	44
49337	7	Sololá	710	Panajachel	8	Panajachel	7	Julio	2023-07-18T00:00:00	2024-11-08T16:00:00	6	Velocidad del viento	8
49338	7	Sololá	710	Panajachel	8	Panajachel	7	Julio	2023-07-18T00:00:00	2024-11-08T16:00:00	7	Dirección del viento	8.05
49339	7	Sololá	710	Panajachel	8	Panajachel	7	Julio	2023-07-18T00:00:00	2024-11-08T16:00:00	1	Precipitación	0
49340	7	Sololá	710	Panajachel	8	Panajachel	7	Julio	2023-07-18T00:00:00	2024-11-08T16:00:00	8	Radiación solar	394
49341	7	Sololá	710	Panajachel	8	Panajachel	7	Julio	2023-07-18T00:00:00	2024-11-08T17:00:00	2	Temperatura media	24.7
49342	7	Sololá	710	Panajachel	8	Panajachel	7	Julio	2023-07-18T00:00:00	2024-11-08T17:00:00	4	Temperatura máxima	25.9
49343	7	Sololá	710	Panajachel	8	Panajachel	7	Julio	2023-07-18T00:00:00	2024-11-08T17:00:00	3	Temperatura mínima	24.7
49344	7	Sololá	710	Panajachel	8	Panajachel	7	Julio	2023-07-18T00:00:00	2024-11-08T17:00:00	5	Humedad	48
49345	7	Sololá	710	Panajachel	8	Panajachel	7	Julio	2023-07-18T00:00:00	2024-11-08T17:00:00	6	Velocidad del viento	6.4
49346	7	Sololá	710	Panajachel	8	Panajachel	7	Julio	2023-07-18T00:00:00	2024-11-08T17:00:00	7	Dirección del viento	6.44
49347	7	Sololá	710	Panajachel	8	Panajachel	7	Julio	2023-07-18T00:00:00	2024-11-08T17:00:00	1	Precipitación	0
49348	7	Sololá	710	Panajachel	8	Panajachel	7	Julio	2023-07-18T00:00:00	2024-11-08T17:00:00	8	Radiación solar	153
49349	7	Sololá	710	Panajachel	8	Panajachel	7	Julio	2023-07-18T00:00:00	2024-11-08T18:00:00	2	Temperatura media	24.1
49350	7	Sololá	710	Panajachel	8	Panajachel	7	Julio	2023-07-18T00:00:00	2024-11-08T18:00:00	4	Temperatura máxima	24.7
49351	7	Sololá	710	Panajachel	8	Panajachel	7	Julio	2023-07-18T00:00:00	2024-11-08T18:00:00	3	Temperatura mínima	24.1
49352	7	Sololá	710	Panajachel	8	Panajachel	7	Julio	2023-07-18T00:00:00	2024-11-08T18:00:00	5	Humedad	55
49353	7	Sololá	710	Panajachel	8	Panajachel	7	Julio	2023-07-18T00:00:00	2024-11-08T18:00:00	6	Velocidad del viento	8
49354	7	Sololá	710	Panajachel	8	Panajachel	7	Julio	2023-07-18T00:00:00	2024-11-08T18:00:00	7	Dirección del viento	8.05
49355	7	Sololá	710	Panajachel	8	Panajachel	7	Julio	2023-07-18T00:00:00	2024-11-08T18:00:00	1	Precipitación	0
49356	7	Sololá	710	Panajachel	8	Panajachel	7	Julio	2023-07-18T00:00:00	2024-11-08T18:00:00	8	Radiación solar	85
49357	7	Sololá	710	Panajachel	8	Panajachel	7	Julio	2023-07-18T00:00:00	2024-11-08T19:00:00	2	Temperatura media	22.8
49358	7	Sololá	710	Panajachel	8	Panajachel	7	Julio	2023-07-18T00:00:00	2024-11-08T19:00:00	4	Temperatura máxima	24.1
49359	7	Sololá	710	Panajachel	8	Panajachel	7	Julio	2023-07-18T00:00:00	2024-11-08T19:00:00	3	Temperatura mínima	22.8
49360	7	Sololá	710	Panajachel	8	Panajachel	7	Julio	2023-07-18T00:00:00	2024-11-08T19:00:00	5	Humedad	57
49361	7	Sololá	710	Panajachel	8	Panajachel	7	Julio	2023-07-18T00:00:00	2024-11-08T19:00:00	6	Velocidad del viento	4.8
49362	7	Sololá	710	Panajachel	8	Panajachel	7	Julio	2023-07-18T00:00:00	2024-11-08T19:00:00	7	Dirección del viento	4.83
49363	7	Sololá	710	Panajachel	8	Panajachel	7	Julio	2023-07-18T00:00:00	2024-11-08T19:00:00	1	Precipitación	0
49364	7	Sololá	710	Panajachel	8	Panajachel	7	Julio	2023-07-18T00:00:00	2024-11-08T19:00:00	8	Radiación solar	0
49365	7	Sololá	710	Panajachel	8	Panajachel	7	Julio	2023-07-18T00:00:00	2024-11-08T20:00:00	2	Temperatura media	20.7
49366	7	Sololá	710	Panajachel	8	Panajachel	7	Julio	2023-07-18T00:00:00	2024-11-08T20:00:00	4	Temperatura máxima	22.8
49367	7	Sololá	710	Panajachel	8	Panajachel	7	Julio	2023-07-18T00:00:00	2024-11-08T20:00:00	3	Temperatura mínima	20.7
49368	7	Sololá	710	Panajachel	8	Panajachel	7	Julio	2023-07-18T00:00:00	2024-11-08T20:00:00	5	Humedad	66
49369	7	Sololá	710	Panajachel	8	Panajachel	7	Julio	2023-07-18T00:00:00	2024-11-08T20:00:00	6	Velocidad del viento	1.6
49370	7	Sololá	710	Panajachel	8	Panajachel	7	Julio	2023-07-18T00:00:00	2024-11-08T20:00:00	7	Dirección del viento	1.61
49371	7	Sololá	710	Panajachel	8	Panajachel	7	Julio	2023-07-18T00:00:00	2024-11-08T20:00:00	1	Precipitación	0
49372	7	Sololá	710	Panajachel	8	Panajachel	7	Julio	2023-07-18T00:00:00	2024-11-08T20:00:00	8	Radiación solar	0
49373	7	Sololá	710	Panajachel	8	Panajachel	7	Julio	2023-07-18T00:00:00	2024-11-08T21:00:00	2	Temperatura media	19.8
49374	7	Sololá	710	Panajachel	8	Panajachel	7	Julio	2023-07-18T00:00:00	2024-11-08T21:00:00	4	Temperatura máxima	20.7
49375	7	Sololá	710	Panajachel	8	Panajachel	7	Julio	2023-07-18T00:00:00	2024-11-08T21:00:00	3	Temperatura mínima	19.7
49376	7	Sololá	710	Panajachel	8	Panajachel	7	Julio	2023-07-18T00:00:00	2024-11-08T21:00:00	5	Humedad	71
49377	7	Sololá	710	Panajachel	8	Panajachel	7	Julio	2023-07-18T00:00:00	2024-11-08T21:00:00	6	Velocidad del viento	0
49378	7	Sololá	710	Panajachel	8	Panajachel	7	Julio	2023-07-18T00:00:00	2024-11-08T21:00:00	7	Dirección del viento	0
49379	7	Sololá	710	Panajachel	8	Panajachel	7	Julio	2023-07-18T00:00:00	2024-11-08T21:00:00	1	Precipitación	0
49380	7	Sololá	710	Panajachel	8	Panajachel	7	Julio	2023-07-18T00:00:00	2024-11-08T21:00:00	8	Radiación solar	0
49381	7	Sololá	710	Panajachel	8	Panajachel	7	Julio	2023-07-18T00:00:00	2024-11-08T22:00:00	2	Temperatura media	20.7
49382	7	Sololá	710	Panajachel	8	Panajachel	7	Julio	2023-07-18T00:00:00	2024-11-08T22:00:00	4	Temperatura máxima	21.1
49383	7	Sololá	710	Panajachel	8	Panajachel	7	Julio	2023-07-18T00:00:00	2024-11-08T22:00:00	3	Temperatura mínima	19.2
49384	7	Sololá	710	Panajachel	8	Panajachel	7	Julio	2023-07-18T00:00:00	2024-11-08T22:00:00	5	Humedad	60
49385	7	Sololá	710	Panajachel	8	Panajachel	7	Julio	2023-07-18T00:00:00	2024-11-08T22:00:00	6	Velocidad del viento	8
49386	7	Sololá	710	Panajachel	8	Panajachel	7	Julio	2023-07-18T00:00:00	2024-11-08T22:00:00	7	Dirección del viento	8.05
49387	7	Sololá	710	Panajachel	8	Panajachel	7	Julio	2023-07-18T00:00:00	2024-11-08T22:00:00	1	Precipitación	0
49388	7	Sololá	710	Panajachel	8	Panajachel	7	Julio	2023-07-18T00:00:00	2024-11-08T22:00:00	8	Radiación solar	0
49389	7	Sololá	710	Panajachel	8	Panajachel	7	Julio	2023-07-18T00:00:00	2024-11-08T23:00:00	2	Temperatura media	20.7
49390	7	Sololá	710	Panajachel	8	Panajachel	7	Julio	2023-07-18T00:00:00	2024-11-08T23:00:00	4	Temperatura máxima	20.8
49391	7	Sololá	710	Panajachel	8	Panajachel	7	Julio	2023-07-18T00:00:00	2024-11-08T23:00:00	3	Temperatura mínima	20.6
49392	7	Sololá	710	Panajachel	8	Panajachel	7	Julio	2023-07-18T00:00:00	2024-11-08T23:00:00	5	Humedad	64
49393	7	Sololá	710	Panajachel	8	Panajachel	7	Julio	2023-07-18T00:00:00	2024-11-08T23:00:00	6	Velocidad del viento	14.5
49394	7	Sololá	710	Panajachel	8	Panajachel	7	Julio	2023-07-18T00:00:00	2024-11-08T23:00:00	7	Dirección del viento	14.48
49395	7	Sololá	710	Panajachel	8	Panajachel	7	Julio	2023-07-18T00:00:00	2024-11-08T23:00:00	1	Precipitación	0
49396	7	Sololá	710	Panajachel	8	Panajachel	7	Julio	2023-07-18T00:00:00	2024-11-08T23:00:00	8	Radiación solar	0
49397	7	Sololá	710	Panajachel	8	Panajachel	7	Julio	2023-07-19T00:00:00	2024-11-08T00:00:00	2	Temperatura media	20.3
49398	7	Sololá	710	Panajachel	8	Panajachel	7	Julio	2023-07-19T00:00:00	2024-11-08T00:00:00	4	Temperatura máxima	20.8
49399	7	Sololá	710	Panajachel	8	Panajachel	7	Julio	2023-07-19T00:00:00	2024-11-08T00:00:00	3	Temperatura mínima	20.3
49400	7	Sololá	710	Panajachel	8	Panajachel	7	Julio	2023-07-19T00:00:00	2024-11-08T00:00:00	5	Humedad	67
49401	7	Sololá	710	Panajachel	8	Panajachel	7	Julio	2023-07-19T00:00:00	2024-11-08T00:00:00	6	Velocidad del viento	11.3
49402	7	Sololá	710	Panajachel	8	Panajachel	7	Julio	2023-07-19T00:00:00	2024-11-08T00:00:00	7	Dirección del viento	11.27
49403	7	Sololá	710	Panajachel	8	Panajachel	7	Julio	2023-07-19T00:00:00	2024-11-08T00:00:00	1	Precipitación	0
49404	7	Sololá	710	Panajachel	8	Panajachel	7	Julio	2023-07-19T00:00:00	2024-11-08T00:00:00	8	Radiación solar	0
49405	7	Sololá	710	Panajachel	8	Panajachel	7	Julio	2023-07-19T00:00:00	2024-11-08T01:00:00	2	Temperatura media	20.3
49406	7	Sololá	710	Panajachel	8	Panajachel	7	Julio	2023-07-19T00:00:00	2024-11-08T01:00:00	4	Temperatura máxima	20.3
49407	7	Sololá	710	Panajachel	8	Panajachel	7	Julio	2023-07-19T00:00:00	2024-11-08T01:00:00	3	Temperatura mínima	20.2
49408	7	Sololá	710	Panajachel	8	Panajachel	7	Julio	2023-07-19T00:00:00	2024-11-08T01:00:00	5	Humedad	66
49409	7	Sololá	710	Panajachel	8	Panajachel	7	Julio	2023-07-19T00:00:00	2024-11-08T01:00:00	6	Velocidad del viento	9.7
49410	7	Sololá	710	Panajachel	8	Panajachel	7	Julio	2023-07-19T00:00:00	2024-11-08T01:00:00	7	Dirección del viento	9.66
49411	7	Sololá	710	Panajachel	8	Panajachel	7	Julio	2023-07-19T00:00:00	2024-11-08T01:00:00	1	Precipitación	0
49412	7	Sololá	710	Panajachel	8	Panajachel	7	Julio	2023-07-19T00:00:00	2024-11-08T01:00:00	8	Radiación solar	0
49413	7	Sololá	710	Panajachel	8	Panajachel	7	Julio	2023-07-19T00:00:00	2024-11-08T02:00:00	2	Temperatura media	19.9
49414	7	Sololá	710	Panajachel	8	Panajachel	7	Julio	2023-07-19T00:00:00	2024-11-08T02:00:00	4	Temperatura máxima	20.3
49415	7	Sololá	710	Panajachel	8	Panajachel	7	Julio	2023-07-19T00:00:00	2024-11-08T02:00:00	3	Temperatura mínima	19.9
49416	7	Sololá	710	Panajachel	8	Panajachel	7	Julio	2023-07-19T00:00:00	2024-11-08T02:00:00	5	Humedad	61
49417	7	Sololá	710	Panajachel	8	Panajachel	7	Julio	2023-07-19T00:00:00	2024-11-08T02:00:00	6	Velocidad del viento	8
49418	7	Sololá	710	Panajachel	8	Panajachel	7	Julio	2023-07-19T00:00:00	2024-11-08T02:00:00	7	Dirección del viento	8.05
49419	7	Sololá	710	Panajachel	8	Panajachel	7	Julio	2023-07-19T00:00:00	2024-11-08T02:00:00	1	Precipitación	0
49420	7	Sololá	710	Panajachel	8	Panajachel	7	Julio	2023-07-19T00:00:00	2024-11-08T02:00:00	8	Radiación solar	0
49421	7	Sololá	710	Panajachel	8	Panajachel	7	Julio	2023-07-19T00:00:00	2024-11-08T03:00:00	2	Temperatura media	19.8
49422	7	Sololá	710	Panajachel	8	Panajachel	7	Julio	2023-07-19T00:00:00	2024-11-08T03:00:00	4	Temperatura máxima	19.9
49423	7	Sololá	710	Panajachel	8	Panajachel	7	Julio	2023-07-19T00:00:00	2024-11-08T03:00:00	3	Temperatura mínima	19.5
49424	7	Sololá	710	Panajachel	8	Panajachel	7	Julio	2023-07-19T00:00:00	2024-11-08T03:00:00	5	Humedad	53
49425	7	Sololá	710	Panajachel	8	Panajachel	7	Julio	2023-07-19T00:00:00	2024-11-08T03:00:00	6	Velocidad del viento	4.8
49426	7	Sololá	710	Panajachel	8	Panajachel	7	Julio	2023-07-19T00:00:00	2024-11-08T03:00:00	7	Dirección del viento	4.83
49427	7	Sololá	710	Panajachel	8	Panajachel	7	Julio	2023-07-19T00:00:00	2024-11-08T03:00:00	1	Precipitación	0
49428	7	Sololá	710	Panajachel	8	Panajachel	7	Julio	2023-07-19T00:00:00	2024-11-08T03:00:00	8	Radiación solar	0
49429	7	Sololá	710	Panajachel	8	Panajachel	7	Julio	2023-07-19T00:00:00	2024-11-08T04:00:00	2	Temperatura media	19.5
49430	7	Sololá	710	Panajachel	8	Panajachel	7	Julio	2023-07-19T00:00:00	2024-11-08T04:00:00	4	Temperatura máxima	20.1
49431	7	Sololá	710	Panajachel	8	Panajachel	7	Julio	2023-07-19T00:00:00	2024-11-08T04:00:00	3	Temperatura mínima	19.5
49432	7	Sololá	710	Panajachel	8	Panajachel	7	Julio	2023-07-19T00:00:00	2024-11-08T04:00:00	5	Humedad	52
49433	7	Sololá	710	Panajachel	8	Panajachel	7	Julio	2023-07-19T00:00:00	2024-11-08T04:00:00	6	Velocidad del viento	8
49434	7	Sololá	710	Panajachel	8	Panajachel	7	Julio	2023-07-19T00:00:00	2024-11-08T04:00:00	7	Dirección del viento	8.05
49435	7	Sololá	710	Panajachel	8	Panajachel	7	Julio	2023-07-19T00:00:00	2024-11-08T04:00:00	1	Precipitación	0
49436	7	Sololá	710	Panajachel	8	Panajachel	7	Julio	2023-07-19T00:00:00	2024-11-08T04:00:00	8	Radiación solar	0
49437	7	Sololá	710	Panajachel	8	Panajachel	7	Julio	2023-07-19T00:00:00	2024-11-08T05:00:00	2	Temperatura media	19.4
49438	7	Sololá	710	Panajachel	8	Panajachel	7	Julio	2023-07-19T00:00:00	2024-11-08T05:00:00	4	Temperatura máxima	19.7
49439	7	Sololá	710	Panajachel	8	Panajachel	7	Julio	2023-07-19T00:00:00	2024-11-08T05:00:00	3	Temperatura mínima	19.3
49440	7	Sololá	710	Panajachel	8	Panajachel	7	Julio	2023-07-19T00:00:00	2024-11-08T05:00:00	5	Humedad	54
49441	7	Sololá	710	Panajachel	8	Panajachel	7	Julio	2023-07-19T00:00:00	2024-11-08T05:00:00	6	Velocidad del viento	11.3
49442	7	Sololá	710	Panajachel	8	Panajachel	7	Julio	2023-07-19T00:00:00	2024-11-08T05:00:00	7	Dirección del viento	11.27
49443	7	Sololá	710	Panajachel	8	Panajachel	7	Julio	2023-07-19T00:00:00	2024-11-08T05:00:00	1	Precipitación	0
49444	7	Sololá	710	Panajachel	8	Panajachel	7	Julio	2023-07-19T00:00:00	2024-11-08T05:00:00	8	Radiación solar	0
49445	7	Sololá	710	Panajachel	8	Panajachel	7	Julio	2023-07-19T00:00:00	2024-11-08T06:00:00	2	Temperatura media	19.4
49446	7	Sololá	710	Panajachel	8	Panajachel	7	Julio	2023-07-19T00:00:00	2024-11-08T06:00:00	4	Temperatura máxima	19.6
49447	7	Sololá	710	Panajachel	8	Panajachel	7	Julio	2023-07-19T00:00:00	2024-11-08T06:00:00	3	Temperatura mínima	19.1
49448	7	Sololá	710	Panajachel	8	Panajachel	7	Julio	2023-07-19T00:00:00	2024-11-08T06:00:00	5	Humedad	60
49449	7	Sololá	710	Panajachel	8	Panajachel	7	Julio	2023-07-19T00:00:00	2024-11-08T06:00:00	6	Velocidad del viento	6.4
49450	7	Sololá	710	Panajachel	8	Panajachel	7	Julio	2023-07-19T00:00:00	2024-11-08T06:00:00	7	Dirección del viento	6.44
49451	7	Sololá	710	Panajachel	8	Panajachel	7	Julio	2023-07-19T00:00:00	2024-11-08T06:00:00	1	Precipitación	0
49452	7	Sololá	710	Panajachel	8	Panajachel	7	Julio	2023-07-19T00:00:00	2024-11-08T06:00:00	8	Radiación solar	2
49453	7	Sololá	710	Panajachel	8	Panajachel	7	Julio	2023-07-19T00:00:00	2024-11-08T07:00:00	2	Temperatura media	20.1
49454	7	Sololá	710	Panajachel	8	Panajachel	7	Julio	2023-07-19T00:00:00	2024-11-08T07:00:00	4	Temperatura máxima	20.1
49455	7	Sololá	710	Panajachel	8	Panajachel	7	Julio	2023-07-19T00:00:00	2024-11-08T07:00:00	3	Temperatura mínima	19.3
49456	7	Sololá	710	Panajachel	8	Panajachel	7	Julio	2023-07-19T00:00:00	2024-11-08T07:00:00	5	Humedad	64
49457	7	Sololá	710	Panajachel	8	Panajachel	7	Julio	2023-07-19T00:00:00	2024-11-08T07:00:00	6	Velocidad del viento	9.7
49458	7	Sololá	710	Panajachel	8	Panajachel	7	Julio	2023-07-19T00:00:00	2024-11-08T07:00:00	7	Dirección del viento	9.66
49459	7	Sololá	710	Panajachel	8	Panajachel	7	Julio	2023-07-19T00:00:00	2024-11-08T07:00:00	1	Precipitación	0
49460	7	Sololá	710	Panajachel	8	Panajachel	7	Julio	2023-07-19T00:00:00	2024-11-08T07:00:00	8	Radiación solar	101
49461	7	Sololá	710	Panajachel	8	Panajachel	7	Julio	2023-07-19T00:00:00	2024-11-08T08:00:00	2	Temperatura media	21.1
49462	7	Sololá	710	Panajachel	8	Panajachel	7	Julio	2023-07-19T00:00:00	2024-11-08T08:00:00	4	Temperatura máxima	21.1
49463	7	Sololá	710	Panajachel	8	Panajachel	7	Julio	2023-07-19T00:00:00	2024-11-08T08:00:00	3	Temperatura mínima	20.1
49464	7	Sololá	710	Panajachel	8	Panajachel	7	Julio	2023-07-19T00:00:00	2024-11-08T08:00:00	5	Humedad	66
49465	7	Sololá	710	Panajachel	8	Panajachel	7	Julio	2023-07-19T00:00:00	2024-11-08T08:00:00	6	Velocidad del viento	12.9
49466	7	Sololá	710	Panajachel	8	Panajachel	7	Julio	2023-07-19T00:00:00	2024-11-08T08:00:00	7	Dirección del viento	12.87
49467	7	Sololá	710	Panajachel	8	Panajachel	7	Julio	2023-07-19T00:00:00	2024-11-08T08:00:00	1	Precipitación	0
49468	7	Sololá	710	Panajachel	8	Panajachel	7	Julio	2023-07-19T00:00:00	2024-11-08T08:00:00	8	Radiación solar	330
49469	7	Sololá	710	Panajachel	8	Panajachel	7	Julio	2023-07-19T00:00:00	2024-11-08T09:00:00	2	Temperatura media	22.8
49470	7	Sololá	710	Panajachel	8	Panajachel	7	Julio	2023-07-19T00:00:00	2024-11-08T09:00:00	4	Temperatura máxima	22.9
49471	7	Sololá	710	Panajachel	8	Panajachel	7	Julio	2023-07-19T00:00:00	2024-11-08T09:00:00	3	Temperatura mínima	21.1
49472	7	Sololá	710	Panajachel	8	Panajachel	7	Julio	2023-07-19T00:00:00	2024-11-08T09:00:00	5	Humedad	60
49473	7	Sololá	710	Panajachel	8	Panajachel	7	Julio	2023-07-19T00:00:00	2024-11-08T09:00:00	6	Velocidad del viento	6.4
49474	7	Sololá	710	Panajachel	8	Panajachel	7	Julio	2023-07-19T00:00:00	2024-11-08T09:00:00	7	Dirección del viento	6.44
49475	7	Sololá	710	Panajachel	8	Panajachel	7	Julio	2023-07-19T00:00:00	2024-11-08T09:00:00	1	Precipitación	0
49476	7	Sololá	710	Panajachel	8	Panajachel	7	Julio	2023-07-19T00:00:00	2024-11-08T09:00:00	8	Radiación solar	535
49477	7	Sololá	710	Panajachel	8	Panajachel	7	Julio	2023-07-19T00:00:00	2024-11-08T10:00:00	2	Temperatura media	23.7
49478	7	Sololá	710	Panajachel	8	Panajachel	7	Julio	2023-07-19T00:00:00	2024-11-08T10:00:00	4	Temperatura máxima	23.8
49479	7	Sololá	710	Panajachel	8	Panajachel	7	Julio	2023-07-19T00:00:00	2024-11-08T10:00:00	3	Temperatura mínima	22.5
49480	7	Sololá	710	Panajachel	8	Panajachel	7	Julio	2023-07-19T00:00:00	2024-11-08T10:00:00	5	Humedad	55
49481	7	Sololá	710	Panajachel	8	Panajachel	7	Julio	2023-07-19T00:00:00	2024-11-08T10:00:00	6	Velocidad del viento	11.3
49482	7	Sololá	710	Panajachel	8	Panajachel	7	Julio	2023-07-19T00:00:00	2024-11-08T10:00:00	7	Dirección del viento	11.27
49483	7	Sololá	710	Panajachel	8	Panajachel	7	Julio	2023-07-19T00:00:00	2024-11-08T10:00:00	1	Precipitación	0
49484	7	Sololá	710	Panajachel	8	Panajachel	7	Julio	2023-07-19T00:00:00	2024-11-08T10:00:00	8	Radiación solar	761
49485	7	Sololá	710	Panajachel	8	Panajachel	7	Julio	2023-07-19T00:00:00	2024-11-08T11:00:00	2	Temperatura media	24.6
49486	7	Sololá	710	Panajachel	8	Panajachel	7	Julio	2023-07-19T00:00:00	2024-11-08T11:00:00	4	Temperatura máxima	25.1
49487	7	Sololá	710	Panajachel	8	Panajachel	7	Julio	2023-07-19T00:00:00	2024-11-08T11:00:00	3	Temperatura mínima	23.8
49488	7	Sololá	710	Panajachel	8	Panajachel	7	Julio	2023-07-19T00:00:00	2024-11-08T11:00:00	5	Humedad	54
49489	7	Sololá	710	Panajachel	8	Panajachel	7	Julio	2023-07-19T00:00:00	2024-11-08T11:00:00	6	Velocidad del viento	9.7
49490	7	Sololá	710	Panajachel	8	Panajachel	7	Julio	2023-07-19T00:00:00	2024-11-08T11:00:00	7	Dirección del viento	9.66
49491	7	Sololá	710	Panajachel	8	Panajachel	7	Julio	2023-07-19T00:00:00	2024-11-08T11:00:00	1	Precipitación	0
49492	7	Sololá	710	Panajachel	8	Panajachel	7	Julio	2023-07-19T00:00:00	2024-11-08T11:00:00	8	Radiación solar	850
49493	7	Sololá	710	Panajachel	8	Panajachel	7	Julio	2023-07-19T00:00:00	2024-11-08T12:00:00	2	Temperatura media	26.1
49494	7	Sololá	710	Panajachel	8	Panajachel	7	Julio	2023-07-19T00:00:00	2024-11-08T12:00:00	4	Temperatura máxima	26.1
49495	7	Sololá	710	Panajachel	8	Panajachel	7	Julio	2023-07-19T00:00:00	2024-11-08T12:00:00	3	Temperatura mínima	24.5
49496	7	Sololá	710	Panajachel	8	Panajachel	7	Julio	2023-07-19T00:00:00	2024-11-08T12:00:00	5	Humedad	51
49497	7	Sololá	710	Panajachel	8	Panajachel	7	Julio	2023-07-19T00:00:00	2024-11-08T12:00:00	6	Velocidad del viento	9.7
49498	7	Sololá	710	Panajachel	8	Panajachel	7	Julio	2023-07-19T00:00:00	2024-11-08T12:00:00	7	Dirección del viento	9.66
49499	7	Sololá	710	Panajachel	8	Panajachel	7	Julio	2023-07-19T00:00:00	2024-11-08T12:00:00	1	Precipitación	0
49500	7	Sololá	710	Panajachel	8	Panajachel	7	Julio	2023-07-19T00:00:00	2024-11-08T12:00:00	8	Radiación solar	928
49501	7	Sololá	710	Panajachel	8	Panajachel	7	Julio	2023-07-19T00:00:00	2024-11-08T13:00:00	2	Temperatura media	26.8
49502	7	Sololá	710	Panajachel	8	Panajachel	7	Julio	2023-07-19T00:00:00	2024-11-08T13:00:00	4	Temperatura máxima	26.9
49503	7	Sololá	710	Panajachel	8	Panajachel	7	Julio	2023-07-19T00:00:00	2024-11-08T13:00:00	3	Temperatura mínima	25.7
49504	7	Sololá	710	Panajachel	8	Panajachel	7	Julio	2023-07-19T00:00:00	2024-11-08T13:00:00	5	Humedad	50
49505	7	Sololá	710	Panajachel	8	Panajachel	7	Julio	2023-07-19T00:00:00	2024-11-08T13:00:00	6	Velocidad del viento	9.7
49506	7	Sololá	710	Panajachel	8	Panajachel	7	Julio	2023-07-19T00:00:00	2024-11-08T13:00:00	7	Dirección del viento	9.66
49507	7	Sololá	710	Panajachel	8	Panajachel	7	Julio	2023-07-19T00:00:00	2024-11-08T13:00:00	1	Precipitación	0
49508	7	Sololá	710	Panajachel	8	Panajachel	7	Julio	2023-07-19T00:00:00	2024-11-08T13:00:00	8	Radiación solar	948
49509	7	Sololá	710	Panajachel	8	Panajachel	7	Julio	2023-07-19T00:00:00	2024-11-08T14:00:00	2	Temperatura media	26.5
49510	7	Sololá	710	Panajachel	8	Panajachel	7	Julio	2023-07-19T00:00:00	2024-11-08T14:00:00	4	Temperatura máxima	27.3
49511	7	Sololá	710	Panajachel	8	Panajachel	7	Julio	2023-07-19T00:00:00	2024-11-08T14:00:00	3	Temperatura mínima	26.4
49512	7	Sololá	710	Panajachel	8	Panajachel	7	Julio	2023-07-19T00:00:00	2024-11-08T14:00:00	5	Humedad	52
49513	7	Sololá	710	Panajachel	8	Panajachel	7	Julio	2023-07-19T00:00:00	2024-11-08T14:00:00	6	Velocidad del viento	9.7
49514	7	Sololá	710	Panajachel	8	Panajachel	7	Julio	2023-07-19T00:00:00	2024-11-08T14:00:00	7	Dirección del viento	9.66
49515	7	Sololá	710	Panajachel	8	Panajachel	7	Julio	2023-07-19T00:00:00	2024-11-08T14:00:00	1	Precipitación	0
49516	7	Sololá	710	Panajachel	8	Panajachel	7	Julio	2023-07-19T00:00:00	2024-11-08T14:00:00	8	Radiación solar	893
49517	7	Sololá	710	Panajachel	8	Panajachel	7	Julio	2023-07-19T00:00:00	2024-11-08T15:00:00	2	Temperatura media	27.3
49518	7	Sololá	710	Panajachel	8	Panajachel	7	Julio	2023-07-19T00:00:00	2024-11-08T15:00:00	4	Temperatura máxima	27.7
49519	7	Sololá	710	Panajachel	8	Panajachel	7	Julio	2023-07-19T00:00:00	2024-11-08T15:00:00	3	Temperatura mínima	26.2
49520	7	Sololá	710	Panajachel	8	Panajachel	7	Julio	2023-07-19T00:00:00	2024-11-08T15:00:00	5	Humedad	49
49521	7	Sololá	710	Panajachel	8	Panajachel	7	Julio	2023-07-19T00:00:00	2024-11-08T15:00:00	6	Velocidad del viento	8
49522	7	Sololá	710	Panajachel	8	Panajachel	7	Julio	2023-07-19T00:00:00	2024-11-08T15:00:00	7	Dirección del viento	8.05
49523	7	Sololá	710	Panajachel	8	Panajachel	7	Julio	2023-07-19T00:00:00	2024-11-08T15:00:00	1	Precipitación	0
49524	7	Sololá	710	Panajachel	8	Panajachel	7	Julio	2023-07-19T00:00:00	2024-11-08T15:00:00	8	Radiación solar	764
49525	7	Sololá	710	Panajachel	8	Panajachel	7	Julio	2023-07-19T00:00:00	2024-11-08T16:00:00	2	Temperatura media	25.6
49526	7	Sololá	710	Panajachel	8	Panajachel	7	Julio	2023-07-19T00:00:00	2024-11-08T16:00:00	4	Temperatura máxima	27.3
49527	7	Sololá	710	Panajachel	8	Panajachel	7	Julio	2023-07-19T00:00:00	2024-11-08T16:00:00	3	Temperatura mínima	25.6
49528	7	Sololá	710	Panajachel	8	Panajachel	7	Julio	2023-07-19T00:00:00	2024-11-08T16:00:00	5	Humedad	54
49529	7	Sololá	710	Panajachel	8	Panajachel	7	Julio	2023-07-19T00:00:00	2024-11-08T16:00:00	6	Velocidad del viento	8
49530	7	Sololá	710	Panajachel	8	Panajachel	7	Julio	2023-07-19T00:00:00	2024-11-08T16:00:00	7	Dirección del viento	8.05
49531	7	Sololá	710	Panajachel	8	Panajachel	7	Julio	2023-07-19T00:00:00	2024-11-08T16:00:00	1	Precipitación	0
49532	7	Sololá	710	Panajachel	8	Panajachel	7	Julio	2023-07-19T00:00:00	2024-11-08T16:00:00	8	Radiación solar	254
49533	7	Sololá	710	Panajachel	8	Panajachel	7	Julio	2023-07-19T00:00:00	2024-11-08T17:00:00	2	Temperatura media	25.4
49534	7	Sololá	710	Panajachel	8	Panajachel	7	Julio	2023-07-19T00:00:00	2024-11-08T17:00:00	4	Temperatura máxima	25.8
49535	7	Sololá	710	Panajachel	8	Panajachel	7	Julio	2023-07-19T00:00:00	2024-11-08T17:00:00	3	Temperatura mínima	25.4
49536	7	Sololá	710	Panajachel	8	Panajachel	7	Julio	2023-07-19T00:00:00	2024-11-08T17:00:00	5	Humedad	55
49537	7	Sololá	710	Panajachel	8	Panajachel	7	Julio	2023-07-19T00:00:00	2024-11-08T17:00:00	6	Velocidad del viento	8
49538	7	Sololá	710	Panajachel	8	Panajachel	7	Julio	2023-07-19T00:00:00	2024-11-08T17:00:00	7	Dirección del viento	8.05
49539	7	Sololá	710	Panajachel	8	Panajachel	7	Julio	2023-07-19T00:00:00	2024-11-08T17:00:00	1	Precipitación	0
49540	7	Sololá	710	Panajachel	8	Panajachel	7	Julio	2023-07-19T00:00:00	2024-11-08T17:00:00	8	Radiación solar	93
49541	7	Sololá	710	Panajachel	8	Panajachel	7	Julio	2023-07-19T00:00:00	2024-11-08T18:00:00	2	Temperatura media	23.7
49542	7	Sololá	710	Panajachel	8	Panajachel	7	Julio	2023-07-19T00:00:00	2024-11-08T18:00:00	4	Temperatura máxima	25.4
49543	7	Sololá	710	Panajachel	8	Panajachel	7	Julio	2023-07-19T00:00:00	2024-11-08T18:00:00	3	Temperatura mínima	23.7
49544	7	Sololá	710	Panajachel	8	Panajachel	7	Julio	2023-07-19T00:00:00	2024-11-08T18:00:00	5	Humedad	62
49545	7	Sololá	710	Panajachel	8	Panajachel	7	Julio	2023-07-19T00:00:00	2024-11-08T18:00:00	6	Velocidad del viento	8
49546	7	Sololá	710	Panajachel	8	Panajachel	7	Julio	2023-07-19T00:00:00	2024-11-08T18:00:00	7	Dirección del viento	8.05
49547	7	Sololá	710	Panajachel	8	Panajachel	7	Julio	2023-07-19T00:00:00	2024-11-08T18:00:00	1	Precipitación	0
49548	7	Sololá	710	Panajachel	8	Panajachel	7	Julio	2023-07-19T00:00:00	2024-11-08T18:00:00	8	Radiación solar	37
49549	7	Sololá	710	Panajachel	8	Panajachel	7	Julio	2023-07-19T00:00:00	2024-11-08T19:00:00	2	Temperatura media	22.9
49550	7	Sololá	710	Panajachel	8	Panajachel	7	Julio	2023-07-19T00:00:00	2024-11-08T19:00:00	4	Temperatura máxima	23.7
49551	7	Sololá	710	Panajachel	8	Panajachel	7	Julio	2023-07-19T00:00:00	2024-11-08T19:00:00	3	Temperatura mínima	22.9
49552	7	Sololá	710	Panajachel	8	Panajachel	7	Julio	2023-07-19T00:00:00	2024-11-08T19:00:00	5	Humedad	66
49553	7	Sololá	710	Panajachel	8	Panajachel	7	Julio	2023-07-19T00:00:00	2024-11-08T19:00:00	6	Velocidad del viento	6.4
49554	7	Sololá	710	Panajachel	8	Panajachel	7	Julio	2023-07-19T00:00:00	2024-11-08T19:00:00	7	Dirección del viento	6.44
49555	7	Sololá	710	Panajachel	8	Panajachel	7	Julio	2023-07-19T00:00:00	2024-11-08T19:00:00	1	Precipitación	0
49556	7	Sololá	710	Panajachel	8	Panajachel	7	Julio	2023-07-19T00:00:00	2024-11-08T19:00:00	8	Radiación solar	0
49557	7	Sololá	710	Panajachel	8	Panajachel	7	Julio	2023-07-19T00:00:00	2024-11-08T20:00:00	2	Temperatura media	22.7
49558	7	Sololá	710	Panajachel	8	Panajachel	7	Julio	2023-07-19T00:00:00	2024-11-08T20:00:00	4	Temperatura máxima	23
49559	7	Sololá	710	Panajachel	8	Panajachel	7	Julio	2023-07-19T00:00:00	2024-11-08T20:00:00	3	Temperatura mínima	22.7
49560	7	Sololá	710	Panajachel	8	Panajachel	7	Julio	2023-07-19T00:00:00	2024-11-08T20:00:00	5	Humedad	67
49561	7	Sololá	710	Panajachel	8	Panajachel	7	Julio	2023-07-19T00:00:00	2024-11-08T20:00:00	6	Velocidad del viento	4.8
49562	7	Sololá	710	Panajachel	8	Panajachel	7	Julio	2023-07-19T00:00:00	2024-11-08T20:00:00	7	Dirección del viento	4.83
49563	7	Sololá	710	Panajachel	8	Panajachel	7	Julio	2023-07-19T00:00:00	2024-11-08T20:00:00	1	Precipitación	0
49564	7	Sololá	710	Panajachel	8	Panajachel	7	Julio	2023-07-19T00:00:00	2024-11-08T20:00:00	8	Radiación solar	0
49565	7	Sololá	710	Panajachel	8	Panajachel	7	Julio	2023-07-19T00:00:00	2024-11-08T21:00:00	2	Temperatura media	22.4
49566	7	Sololá	710	Panajachel	8	Panajachel	7	Julio	2023-07-19T00:00:00	2024-11-08T21:00:00	4	Temperatura máxima	22.7
49567	7	Sololá	710	Panajachel	8	Panajachel	7	Julio	2023-07-19T00:00:00	2024-11-08T21:00:00	3	Temperatura mínima	22.4
49568	7	Sololá	710	Panajachel	8	Panajachel	7	Julio	2023-07-19T00:00:00	2024-11-08T21:00:00	5	Humedad	69
49569	7	Sololá	710	Panajachel	8	Panajachel	7	Julio	2023-07-19T00:00:00	2024-11-08T21:00:00	6	Velocidad del viento	6.4
49570	7	Sololá	710	Panajachel	8	Panajachel	7	Julio	2023-07-19T00:00:00	2024-11-08T21:00:00	7	Dirección del viento	6.44
49571	7	Sololá	710	Panajachel	8	Panajachel	7	Julio	2023-07-19T00:00:00	2024-11-08T21:00:00	1	Precipitación	0
49572	7	Sololá	710	Panajachel	8	Panajachel	7	Julio	2023-07-19T00:00:00	2024-11-08T21:00:00	8	Radiación solar	0
49573	7	Sololá	710	Panajachel	8	Panajachel	7	Julio	2023-07-19T00:00:00	2024-11-08T22:00:00	2	Temperatura media	21.7
49574	7	Sololá	710	Panajachel	8	Panajachel	7	Julio	2023-07-19T00:00:00	2024-11-08T22:00:00	4	Temperatura máxima	22.4
49575	7	Sololá	710	Panajachel	8	Panajachel	7	Julio	2023-07-19T00:00:00	2024-11-08T22:00:00	3	Temperatura mínima	21.6
49576	7	Sololá	710	Panajachel	8	Panajachel	7	Julio	2023-07-19T00:00:00	2024-11-08T22:00:00	5	Humedad	70
49577	7	Sololá	710	Panajachel	8	Panajachel	7	Julio	2023-07-19T00:00:00	2024-11-08T22:00:00	6	Velocidad del viento	4.8
49578	7	Sololá	710	Panajachel	8	Panajachel	7	Julio	2023-07-19T00:00:00	2024-11-08T22:00:00	7	Dirección del viento	4.83
49579	7	Sololá	710	Panajachel	8	Panajachel	7	Julio	2023-07-19T00:00:00	2024-11-08T22:00:00	1	Precipitación	0
49580	7	Sololá	710	Panajachel	8	Panajachel	7	Julio	2023-07-19T00:00:00	2024-11-08T22:00:00	8	Radiación solar	0
49581	7	Sololá	710	Panajachel	8	Panajachel	7	Julio	2023-07-19T00:00:00	2024-11-08T23:00:00	2	Temperatura media	21.7
49582	7	Sololá	710	Panajachel	8	Panajachel	7	Julio	2023-07-19T00:00:00	2024-11-08T23:00:00	4	Temperatura máxima	21.9
49583	7	Sololá	710	Panajachel	8	Panajachel	7	Julio	2023-07-19T00:00:00	2024-11-08T23:00:00	3	Temperatura mínima	21.6
49584	7	Sololá	710	Panajachel	8	Panajachel	7	Julio	2023-07-19T00:00:00	2024-11-08T23:00:00	5	Humedad	70
49585	7	Sololá	710	Panajachel	8	Panajachel	7	Julio	2023-07-19T00:00:00	2024-11-08T23:00:00	6	Velocidad del viento	4.8
49586	7	Sololá	710	Panajachel	8	Panajachel	7	Julio	2023-07-19T00:00:00	2024-11-08T23:00:00	7	Dirección del viento	4.83
49587	7	Sololá	710	Panajachel	8	Panajachel	7	Julio	2023-07-19T00:00:00	2024-11-08T23:00:00	1	Precipitación	0
49588	7	Sololá	710	Panajachel	8	Panajachel	7	Julio	2023-07-19T00:00:00	2024-11-08T23:00:00	8	Radiación solar	0
49589	7	Sololá	710	Panajachel	8	Panajachel	7	Julio	2023-07-20T00:00:00	2024-11-08T00:00:00	2	Temperatura media	21.7
49590	7	Sololá	710	Panajachel	8	Panajachel	7	Julio	2023-07-20T00:00:00	2024-11-08T00:00:00	4	Temperatura máxima	21.8
49591	7	Sololá	710	Panajachel	8	Panajachel	7	Julio	2023-07-20T00:00:00	2024-11-08T00:00:00	3	Temperatura mínima	21.5
49592	7	Sololá	710	Panajachel	8	Panajachel	7	Julio	2023-07-20T00:00:00	2024-11-08T00:00:00	5	Humedad	70
49593	7	Sololá	710	Panajachel	8	Panajachel	7	Julio	2023-07-20T00:00:00	2024-11-08T00:00:00	6	Velocidad del viento	6.4
49594	7	Sololá	710	Panajachel	8	Panajachel	7	Julio	2023-07-20T00:00:00	2024-11-08T00:00:00	7	Dirección del viento	6.44
49595	7	Sololá	710	Panajachel	8	Panajachel	7	Julio	2023-07-20T00:00:00	2024-11-08T00:00:00	1	Precipitación	0
49596	7	Sololá	710	Panajachel	8	Panajachel	7	Julio	2023-07-20T00:00:00	2024-11-08T00:00:00	8	Radiación solar	0
49597	7	Sololá	710	Panajachel	8	Panajachel	7	Julio	2023-07-20T00:00:00	2024-11-08T01:00:00	2	Temperatura media	21.6
49598	7	Sololá	710	Panajachel	8	Panajachel	7	Julio	2023-07-20T00:00:00	2024-11-08T01:00:00	4	Temperatura máxima	21.7
49599	7	Sololá	710	Panajachel	8	Panajachel	7	Julio	2023-07-20T00:00:00	2024-11-08T01:00:00	3	Temperatura mínima	21.1
49600	7	Sololá	710	Panajachel	8	Panajachel	7	Julio	2023-07-20T00:00:00	2024-11-08T01:00:00	5	Humedad	68
49601	7	Sololá	710	Panajachel	8	Panajachel	7	Julio	2023-07-20T00:00:00	2024-11-08T01:00:00	6	Velocidad del viento	3.2
49602	7	Sololá	710	Panajachel	8	Panajachel	7	Julio	2023-07-20T00:00:00	2024-11-08T01:00:00	7	Dirección del viento	3.22
49603	7	Sololá	710	Panajachel	8	Panajachel	7	Julio	2023-07-20T00:00:00	2024-11-08T01:00:00	1	Precipitación	0
49604	7	Sololá	710	Panajachel	8	Panajachel	7	Julio	2023-07-20T00:00:00	2024-11-08T01:00:00	8	Radiación solar	0
49605	7	Sololá	710	Panajachel	8	Panajachel	7	Julio	2023-07-20T00:00:00	2024-11-08T02:00:00	2	Temperatura media	21.6
49606	7	Sololá	710	Panajachel	8	Panajachel	7	Julio	2023-07-20T00:00:00	2024-11-08T02:00:00	4	Temperatura máxima	21.7
49607	7	Sololá	710	Panajachel	8	Panajachel	7	Julio	2023-07-20T00:00:00	2024-11-08T02:00:00	3	Temperatura mínima	21.4
49608	7	Sololá	710	Panajachel	8	Panajachel	7	Julio	2023-07-20T00:00:00	2024-11-08T02:00:00	5	Humedad	67
49609	7	Sololá	710	Panajachel	8	Panajachel	7	Julio	2023-07-20T00:00:00	2024-11-08T02:00:00	6	Velocidad del viento	3.2
49610	7	Sololá	710	Panajachel	8	Panajachel	7	Julio	2023-07-20T00:00:00	2024-11-08T02:00:00	7	Dirección del viento	3.22
49611	7	Sololá	710	Panajachel	8	Panajachel	7	Julio	2023-07-20T00:00:00	2024-11-08T02:00:00	1	Precipitación	0
49612	7	Sololá	710	Panajachel	8	Panajachel	7	Julio	2023-07-20T00:00:00	2024-11-08T02:00:00	8	Radiación solar	0
49613	7	Sololá	710	Panajachel	8	Panajachel	7	Julio	2023-07-20T00:00:00	2024-11-08T03:00:00	2	Temperatura media	21.5
49614	7	Sololá	710	Panajachel	8	Panajachel	7	Julio	2023-07-20T00:00:00	2024-11-08T03:00:00	4	Temperatura máxima	21.7
49615	7	Sololá	710	Panajachel	8	Panajachel	7	Julio	2023-07-20T00:00:00	2024-11-08T03:00:00	3	Temperatura mínima	21.4
49616	7	Sololá	710	Panajachel	8	Panajachel	7	Julio	2023-07-20T00:00:00	2024-11-08T03:00:00	5	Humedad	68
49617	7	Sololá	710	Panajachel	8	Panajachel	7	Julio	2023-07-20T00:00:00	2024-11-08T03:00:00	6	Velocidad del viento	6.4
49618	7	Sololá	710	Panajachel	8	Panajachel	7	Julio	2023-07-20T00:00:00	2024-11-08T03:00:00	7	Dirección del viento	6.44
49619	7	Sololá	710	Panajachel	8	Panajachel	7	Julio	2023-07-20T00:00:00	2024-11-08T03:00:00	1	Precipitación	0
49620	7	Sololá	710	Panajachel	8	Panajachel	7	Julio	2023-07-20T00:00:00	2024-11-08T03:00:00	8	Radiación solar	0
49621	7	Sololá	710	Panajachel	8	Panajachel	7	Julio	2023-07-20T00:00:00	2024-11-08T04:00:00	2	Temperatura media	21.3
49622	7	Sololá	710	Panajachel	8	Panajachel	7	Julio	2023-07-20T00:00:00	2024-11-08T04:00:00	4	Temperatura máxima	21.5
49623	7	Sololá	710	Panajachel	8	Panajachel	7	Julio	2023-07-20T00:00:00	2024-11-08T04:00:00	3	Temperatura mínima	21.3
49624	7	Sololá	710	Panajachel	8	Panajachel	7	Julio	2023-07-20T00:00:00	2024-11-08T04:00:00	5	Humedad	69
49625	7	Sololá	710	Panajachel	8	Panajachel	7	Julio	2023-07-20T00:00:00	2024-11-08T04:00:00	6	Velocidad del viento	8
49626	7	Sololá	710	Panajachel	8	Panajachel	7	Julio	2023-07-20T00:00:00	2024-11-08T04:00:00	7	Dirección del viento	8.05
49627	7	Sololá	710	Panajachel	8	Panajachel	7	Julio	2023-07-20T00:00:00	2024-11-08T04:00:00	1	Precipitación	0
49628	7	Sololá	710	Panajachel	8	Panajachel	7	Julio	2023-07-20T00:00:00	2024-11-08T04:00:00	8	Radiación solar	0
49629	7	Sololá	710	Panajachel	8	Panajachel	7	Julio	2023-07-20T00:00:00	2024-11-08T05:00:00	2	Temperatura media	21
49630	7	Sololá	710	Panajachel	8	Panajachel	7	Julio	2023-07-20T00:00:00	2024-11-08T05:00:00	4	Temperatura máxima	21.3
49631	7	Sololá	710	Panajachel	8	Panajachel	7	Julio	2023-07-20T00:00:00	2024-11-08T05:00:00	3	Temperatura mínima	21
49632	7	Sololá	710	Panajachel	8	Panajachel	7	Julio	2023-07-20T00:00:00	2024-11-08T05:00:00	5	Humedad	69
49633	7	Sololá	710	Panajachel	8	Panajachel	7	Julio	2023-07-20T00:00:00	2024-11-08T05:00:00	6	Velocidad del viento	8
49634	7	Sololá	710	Panajachel	8	Panajachel	7	Julio	2023-07-20T00:00:00	2024-11-08T05:00:00	7	Dirección del viento	8.05
49635	7	Sololá	710	Panajachel	8	Panajachel	7	Julio	2023-07-20T00:00:00	2024-11-08T05:00:00	1	Precipitación	0
49636	7	Sololá	710	Panajachel	8	Panajachel	7	Julio	2023-07-20T00:00:00	2024-11-08T05:00:00	8	Radiación solar	0
49637	7	Sololá	710	Panajachel	8	Panajachel	7	Julio	2023-07-20T00:00:00	2024-11-08T06:00:00	2	Temperatura media	20.8
49638	7	Sololá	710	Panajachel	8	Panajachel	7	Julio	2023-07-20T00:00:00	2024-11-08T06:00:00	4	Temperatura máxima	21
49639	7	Sololá	710	Panajachel	8	Panajachel	7	Julio	2023-07-20T00:00:00	2024-11-08T06:00:00	3	Temperatura mínima	20.7
49640	7	Sololá	710	Panajachel	8	Panajachel	7	Julio	2023-07-20T00:00:00	2024-11-08T06:00:00	5	Humedad	70
49641	7	Sololá	710	Panajachel	8	Panajachel	7	Julio	2023-07-20T00:00:00	2024-11-08T06:00:00	6	Velocidad del viento	4.8
49642	7	Sololá	710	Panajachel	8	Panajachel	7	Julio	2023-07-20T00:00:00	2024-11-08T06:00:00	7	Dirección del viento	4.83
49643	7	Sololá	710	Panajachel	8	Panajachel	7	Julio	2023-07-20T00:00:00	2024-11-08T06:00:00	1	Precipitación	0
49644	7	Sololá	710	Panajachel	8	Panajachel	7	Julio	2023-07-20T00:00:00	2024-11-08T06:00:00	8	Radiación solar	1
49645	7	Sololá	710	Panajachel	8	Panajachel	7	Julio	2023-07-20T00:00:00	2024-11-08T07:00:00	2	Temperatura media	21.6
49646	7	Sololá	710	Panajachel	8	Panajachel	7	Julio	2023-07-20T00:00:00	2024-11-08T07:00:00	4	Temperatura máxima	21.6
49647	7	Sololá	710	Panajachel	8	Panajachel	7	Julio	2023-07-20T00:00:00	2024-11-08T07:00:00	3	Temperatura mínima	20.8
49648	7	Sololá	710	Panajachel	8	Panajachel	7	Julio	2023-07-20T00:00:00	2024-11-08T07:00:00	5	Humedad	69
49649	7	Sololá	710	Panajachel	8	Panajachel	7	Julio	2023-07-20T00:00:00	2024-11-08T07:00:00	6	Velocidad del viento	9.7
49650	7	Sololá	710	Panajachel	8	Panajachel	7	Julio	2023-07-20T00:00:00	2024-11-08T07:00:00	7	Dirección del viento	9.66
49651	7	Sololá	710	Panajachel	8	Panajachel	7	Julio	2023-07-20T00:00:00	2024-11-08T07:00:00	1	Precipitación	0
49652	7	Sololá	710	Panajachel	8	Panajachel	7	Julio	2023-07-20T00:00:00	2024-11-08T07:00:00	8	Radiación solar	87
49653	7	Sololá	710	Panajachel	8	Panajachel	7	Julio	2023-07-20T00:00:00	2024-11-08T08:00:00	2	Temperatura media	22.6
49654	7	Sololá	710	Panajachel	8	Panajachel	7	Julio	2023-07-20T00:00:00	2024-11-08T08:00:00	4	Temperatura máxima	22.6
49655	7	Sololá	710	Panajachel	8	Panajachel	7	Julio	2023-07-20T00:00:00	2024-11-08T08:00:00	3	Temperatura mínima	21.6
49656	7	Sololá	710	Panajachel	8	Panajachel	7	Julio	2023-07-20T00:00:00	2024-11-08T08:00:00	5	Humedad	67
49657	7	Sololá	710	Panajachel	8	Panajachel	7	Julio	2023-07-20T00:00:00	2024-11-08T08:00:00	6	Velocidad del viento	11.3
49658	7	Sololá	710	Panajachel	8	Panajachel	7	Julio	2023-07-20T00:00:00	2024-11-08T08:00:00	7	Dirección del viento	11.27
49659	7	Sololá	710	Panajachel	8	Panajachel	7	Julio	2023-07-20T00:00:00	2024-11-08T08:00:00	1	Precipitación	0
49660	7	Sololá	710	Panajachel	8	Panajachel	7	Julio	2023-07-20T00:00:00	2024-11-08T08:00:00	8	Radiación solar	310
49661	7	Sololá	710	Panajachel	8	Panajachel	7	Julio	2023-07-20T00:00:00	2024-11-08T09:00:00	2	Temperatura media	23.7
49662	7	Sololá	710	Panajachel	8	Panajachel	7	Julio	2023-07-20T00:00:00	2024-11-08T09:00:00	4	Temperatura máxima	23.7
49663	7	Sololá	710	Panajachel	8	Panajachel	7	Julio	2023-07-20T00:00:00	2024-11-08T09:00:00	3	Temperatura mínima	22.4
49664	7	Sololá	710	Panajachel	8	Panajachel	7	Julio	2023-07-20T00:00:00	2024-11-08T09:00:00	5	Humedad	63
49665	7	Sololá	710	Panajachel	8	Panajachel	7	Julio	2023-07-20T00:00:00	2024-11-08T09:00:00	6	Velocidad del viento	11.3
49666	7	Sololá	710	Panajachel	8	Panajachel	7	Julio	2023-07-20T00:00:00	2024-11-08T09:00:00	7	Dirección del viento	11.27
49667	7	Sololá	710	Panajachel	8	Panajachel	7	Julio	2023-07-20T00:00:00	2024-11-08T09:00:00	1	Precipitación	0
49668	7	Sololá	710	Panajachel	8	Panajachel	7	Julio	2023-07-20T00:00:00	2024-11-08T09:00:00	8	Radiación solar	538
49669	7	Sololá	710	Panajachel	8	Panajachel	7	Julio	2023-07-20T00:00:00	2024-11-08T10:00:00	2	Temperatura media	25.1
49670	7	Sololá	710	Panajachel	8	Panajachel	7	Julio	2023-07-20T00:00:00	2024-11-08T10:00:00	4	Temperatura máxima	25.2
49671	7	Sololá	710	Panajachel	8	Panajachel	7	Julio	2023-07-20T00:00:00	2024-11-08T10:00:00	3	Temperatura mínima	23.8
49672	7	Sololá	710	Panajachel	8	Panajachel	7	Julio	2023-07-20T00:00:00	2024-11-08T10:00:00	5	Humedad	61
49673	7	Sololá	710	Panajachel	8	Panajachel	7	Julio	2023-07-20T00:00:00	2024-11-08T10:00:00	6	Velocidad del viento	8
49674	7	Sololá	710	Panajachel	8	Panajachel	7	Julio	2023-07-20T00:00:00	2024-11-08T10:00:00	7	Dirección del viento	8.05
49675	7	Sololá	710	Panajachel	8	Panajachel	7	Julio	2023-07-20T00:00:00	2024-11-08T10:00:00	1	Precipitación	0
49676	7	Sololá	710	Panajachel	8	Panajachel	7	Julio	2023-07-20T00:00:00	2024-11-08T10:00:00	8	Radiación solar	714
49677	7	Sololá	710	Panajachel	8	Panajachel	7	Julio	2023-07-20T00:00:00	2024-11-08T11:00:00	2	Temperatura media	25.6
49678	7	Sololá	710	Panajachel	8	Panajachel	7	Julio	2023-07-20T00:00:00	2024-11-08T11:00:00	4	Temperatura máxima	25.7
49679	7	Sololá	710	Panajachel	8	Panajachel	7	Julio	2023-07-20T00:00:00	2024-11-08T11:00:00	3	Temperatura mínima	25.1
49680	7	Sololá	710	Panajachel	8	Panajachel	7	Julio	2023-07-20T00:00:00	2024-11-08T11:00:00	5	Humedad	59
49681	7	Sololá	710	Panajachel	8	Panajachel	7	Julio	2023-07-20T00:00:00	2024-11-08T11:00:00	6	Velocidad del viento	9.7
49682	7	Sololá	710	Panajachel	8	Panajachel	7	Julio	2023-07-20T00:00:00	2024-11-08T11:00:00	7	Dirección del viento	9.66
49683	7	Sololá	710	Panajachel	8	Panajachel	7	Julio	2023-07-20T00:00:00	2024-11-08T11:00:00	1	Precipitación	0
49684	7	Sololá	710	Panajachel	8	Panajachel	7	Julio	2023-07-20T00:00:00	2024-11-08T11:00:00	8	Radiación solar	856
49685	7	Sololá	710	Panajachel	8	Panajachel	7	Julio	2023-07-20T00:00:00	2024-11-08T12:00:00	2	Temperatura media	27.1
49686	7	Sololá	710	Panajachel	8	Panajachel	7	Julio	2023-07-20T00:00:00	2024-11-08T12:00:00	4	Temperatura máxima	27.1
49687	7	Sololá	710	Panajachel	8	Panajachel	7	Julio	2023-07-20T00:00:00	2024-11-08T12:00:00	3	Temperatura mínima	25.5
49688	7	Sololá	710	Panajachel	8	Panajachel	7	Julio	2023-07-20T00:00:00	2024-11-08T12:00:00	5	Humedad	55
49689	7	Sololá	710	Panajachel	8	Panajachel	7	Julio	2023-07-20T00:00:00	2024-11-08T12:00:00	6	Velocidad del viento	8
49690	7	Sololá	710	Panajachel	8	Panajachel	7	Julio	2023-07-20T00:00:00	2024-11-08T12:00:00	7	Dirección del viento	8.05
49691	7	Sololá	710	Panajachel	8	Panajachel	7	Julio	2023-07-20T00:00:00	2024-11-08T12:00:00	1	Precipitación	0
49692	7	Sololá	710	Panajachel	8	Panajachel	7	Julio	2023-07-20T00:00:00	2024-11-08T12:00:00	8	Radiación solar	955
49693	7	Sololá	710	Panajachel	8	Panajachel	7	Julio	2023-07-20T00:00:00	2024-11-08T13:00:00	2	Temperatura media	27
49694	7	Sololá	710	Panajachel	8	Panajachel	7	Julio	2023-07-20T00:00:00	2024-11-08T13:00:00	4	Temperatura máxima	27.4
49695	7	Sololá	710	Panajachel	8	Panajachel	7	Julio	2023-07-20T00:00:00	2024-11-08T13:00:00	3	Temperatura mínima	26.7
49696	7	Sololá	710	Panajachel	8	Panajachel	7	Julio	2023-07-20T00:00:00	2024-11-08T13:00:00	5	Humedad	55
49697	7	Sololá	710	Panajachel	8	Panajachel	7	Julio	2023-07-20T00:00:00	2024-11-08T13:00:00	6	Velocidad del viento	9.7
49698	7	Sololá	710	Panajachel	8	Panajachel	7	Julio	2023-07-20T00:00:00	2024-11-08T13:00:00	7	Dirección del viento	9.66
49699	7	Sololá	710	Panajachel	8	Panajachel	7	Julio	2023-07-20T00:00:00	2024-11-08T13:00:00	1	Precipitación	0
49700	7	Sololá	710	Panajachel	8	Panajachel	7	Julio	2023-07-20T00:00:00	2024-11-08T13:00:00	8	Radiación solar	999
49701	7	Sololá	710	Panajachel	8	Panajachel	7	Julio	2023-07-20T00:00:00	2024-11-08T14:00:00	2	Temperatura media	27
49702	7	Sololá	710	Panajachel	8	Panajachel	7	Julio	2023-07-20T00:00:00	2024-11-08T14:00:00	4	Temperatura máxima	27.6
49703	7	Sololá	710	Panajachel	8	Panajachel	7	Julio	2023-07-20T00:00:00	2024-11-08T14:00:00	3	Temperatura mínima	26.8
49704	7	Sololá	710	Panajachel	8	Panajachel	7	Julio	2023-07-20T00:00:00	2024-11-08T14:00:00	5	Humedad	55
49705	7	Sololá	710	Panajachel	8	Panajachel	7	Julio	2023-07-20T00:00:00	2024-11-08T14:00:00	6	Velocidad del viento	8
49706	7	Sololá	710	Panajachel	8	Panajachel	7	Julio	2023-07-20T00:00:00	2024-11-08T14:00:00	7	Dirección del viento	8.05
49707	7	Sololá	710	Panajachel	8	Panajachel	7	Julio	2023-07-20T00:00:00	2024-11-08T14:00:00	1	Precipitación	0
49708	7	Sololá	710	Panajachel	8	Panajachel	7	Julio	2023-07-20T00:00:00	2024-11-08T14:00:00	8	Radiación solar	798
49709	7	Sololá	710	Panajachel	8	Panajachel	7	Julio	2023-07-20T00:00:00	2024-11-08T15:00:00	2	Temperatura media	26.2
49710	7	Sololá	710	Panajachel	8	Panajachel	7	Julio	2023-07-20T00:00:00	2024-11-08T15:00:00	4	Temperatura máxima	27
49711	7	Sololá	710	Panajachel	8	Panajachel	7	Julio	2023-07-20T00:00:00	2024-11-08T15:00:00	3	Temperatura mínima	25.9
49712	7	Sololá	710	Panajachel	8	Panajachel	7	Julio	2023-07-20T00:00:00	2024-11-08T15:00:00	5	Humedad	54
49713	7	Sololá	710	Panajachel	8	Panajachel	7	Julio	2023-07-20T00:00:00	2024-11-08T15:00:00	6	Velocidad del viento	8
49714	7	Sololá	710	Panajachel	8	Panajachel	7	Julio	2023-07-20T00:00:00	2024-11-08T15:00:00	7	Dirección del viento	8.05
49715	7	Sololá	710	Panajachel	8	Panajachel	7	Julio	2023-07-20T00:00:00	2024-11-08T15:00:00	1	Precipitación	0
49716	7	Sololá	710	Panajachel	8	Panajachel	7	Julio	2023-07-20T00:00:00	2024-11-08T15:00:00	8	Radiación solar	171
49717	7	Sololá	710	Panajachel	8	Panajachel	7	Julio	2023-07-20T00:00:00	2024-11-08T16:00:00	2	Temperatura media	26.7
49718	7	Sololá	710	Panajachel	8	Panajachel	7	Julio	2023-07-20T00:00:00	2024-11-08T16:00:00	4	Temperatura máxima	27.4
49719	7	Sololá	710	Panajachel	8	Panajachel	7	Julio	2023-07-20T00:00:00	2024-11-08T16:00:00	3	Temperatura mínima	26.2
49720	7	Sololá	710	Panajachel	8	Panajachel	7	Julio	2023-07-20T00:00:00	2024-11-08T16:00:00	5	Humedad	54
49721	7	Sololá	710	Panajachel	8	Panajachel	7	Julio	2023-07-20T00:00:00	2024-11-08T16:00:00	6	Velocidad del viento	11.3
49722	7	Sololá	710	Panajachel	8	Panajachel	7	Julio	2023-07-20T00:00:00	2024-11-08T16:00:00	7	Dirección del viento	11.27
49723	7	Sololá	710	Panajachel	8	Panajachel	7	Julio	2023-07-20T00:00:00	2024-11-08T16:00:00	1	Precipitación	0
49724	7	Sololá	710	Panajachel	8	Panajachel	7	Julio	2023-07-20T00:00:00	2024-11-08T16:00:00	8	Radiación solar	358
49725	7	Sololá	710	Panajachel	8	Panajachel	7	Julio	2023-07-20T00:00:00	2024-11-08T17:00:00	2	Temperatura media	26.3
49726	7	Sololá	710	Panajachel	8	Panajachel	7	Julio	2023-07-20T00:00:00	2024-11-08T17:00:00	4	Temperatura máxima	27
49727	7	Sololá	710	Panajachel	8	Panajachel	7	Julio	2023-07-20T00:00:00	2024-11-08T17:00:00	3	Temperatura mínima	26.3
49728	7	Sololá	710	Panajachel	8	Panajachel	7	Julio	2023-07-20T00:00:00	2024-11-08T17:00:00	5	Humedad	55
49729	7	Sololá	710	Panajachel	8	Panajachel	7	Julio	2023-07-20T00:00:00	2024-11-08T17:00:00	6	Velocidad del viento	8
49730	7	Sololá	710	Panajachel	8	Panajachel	7	Julio	2023-07-20T00:00:00	2024-11-08T17:00:00	7	Dirección del viento	8.05
49731	7	Sololá	710	Panajachel	8	Panajachel	7	Julio	2023-07-20T00:00:00	2024-11-08T17:00:00	1	Precipitación	0
49732	7	Sololá	710	Panajachel	8	Panajachel	7	Julio	2023-07-20T00:00:00	2024-11-08T17:00:00	8	Radiación solar	118
49733	7	Sololá	710	Panajachel	8	Panajachel	7	Julio	2023-07-20T00:00:00	2024-11-08T18:00:00	2	Temperatura media	24.6
49734	7	Sololá	710	Panajachel	8	Panajachel	7	Julio	2023-07-20T00:00:00	2024-11-08T18:00:00	4	Temperatura máxima	26.3
49735	7	Sololá	710	Panajachel	8	Panajachel	7	Julio	2023-07-20T00:00:00	2024-11-08T18:00:00	3	Temperatura mínima	24.5
49736	7	Sololá	710	Panajachel	8	Panajachel	7	Julio	2023-07-20T00:00:00	2024-11-08T18:00:00	5	Humedad	62
49737	7	Sololá	710	Panajachel	8	Panajachel	7	Julio	2023-07-20T00:00:00	2024-11-08T18:00:00	6	Velocidad del viento	9.7
49738	7	Sololá	710	Panajachel	8	Panajachel	7	Julio	2023-07-20T00:00:00	2024-11-08T18:00:00	7	Dirección del viento	9.66
49739	7	Sololá	710	Panajachel	8	Panajachel	7	Julio	2023-07-20T00:00:00	2024-11-08T18:00:00	1	Precipitación	0
49740	7	Sololá	710	Panajachel	8	Panajachel	7	Julio	2023-07-20T00:00:00	2024-11-08T18:00:00	8	Radiación solar	86
49741	7	Sololá	710	Panajachel	8	Panajachel	7	Julio	2023-07-20T00:00:00	2024-11-08T19:00:00	2	Temperatura media	22.6
49742	7	Sololá	710	Panajachel	8	Panajachel	7	Julio	2023-07-20T00:00:00	2024-11-08T19:00:00	4	Temperatura máxima	24.6
49743	7	Sololá	710	Panajachel	8	Panajachel	7	Julio	2023-07-20T00:00:00	2024-11-08T19:00:00	3	Temperatura mínima	22.6
49744	7	Sololá	710	Panajachel	8	Panajachel	7	Julio	2023-07-20T00:00:00	2024-11-08T19:00:00	5	Humedad	66
49745	7	Sololá	710	Panajachel	8	Panajachel	7	Julio	2023-07-20T00:00:00	2024-11-08T19:00:00	6	Velocidad del viento	11.3
49746	7	Sololá	710	Panajachel	8	Panajachel	7	Julio	2023-07-20T00:00:00	2024-11-08T19:00:00	7	Dirección del viento	11.27
49747	7	Sololá	710	Panajachel	8	Panajachel	7	Julio	2023-07-20T00:00:00	2024-11-08T19:00:00	1	Precipitación	0
49748	7	Sololá	710	Panajachel	8	Panajachel	7	Julio	2023-07-20T00:00:00	2024-11-08T19:00:00	8	Radiación solar	0
49749	7	Sololá	710	Panajachel	8	Panajachel	7	Julio	2023-07-20T00:00:00	2024-11-08T20:00:00	2	Temperatura media	22.2
49750	7	Sololá	710	Panajachel	8	Panajachel	7	Julio	2023-07-20T00:00:00	2024-11-08T20:00:00	4	Temperatura máxima	22.6
49751	7	Sololá	710	Panajachel	8	Panajachel	7	Julio	2023-07-20T00:00:00	2024-11-08T20:00:00	3	Temperatura mínima	22
49752	7	Sololá	710	Panajachel	8	Panajachel	7	Julio	2023-07-20T00:00:00	2024-11-08T20:00:00	5	Humedad	67
49753	7	Sololá	710	Panajachel	8	Panajachel	7	Julio	2023-07-20T00:00:00	2024-11-08T20:00:00	6	Velocidad del viento	6.4
49754	7	Sololá	710	Panajachel	8	Panajachel	7	Julio	2023-07-20T00:00:00	2024-11-08T20:00:00	7	Dirección del viento	6.44
49755	7	Sololá	710	Panajachel	8	Panajachel	7	Julio	2023-07-20T00:00:00	2024-11-08T20:00:00	1	Precipitación	0
49756	7	Sololá	710	Panajachel	8	Panajachel	7	Julio	2023-07-20T00:00:00	2024-11-08T20:00:00	8	Radiación solar	0
49757	7	Sololá	710	Panajachel	8	Panajachel	7	Julio	2023-07-20T00:00:00	2024-11-08T21:00:00	2	Temperatura media	22.2
49758	7	Sololá	710	Panajachel	8	Panajachel	7	Julio	2023-07-20T00:00:00	2024-11-08T21:00:00	4	Temperatura máxima	22.3
49759	7	Sololá	710	Panajachel	8	Panajachel	7	Julio	2023-07-20T00:00:00	2024-11-08T21:00:00	3	Temperatura mínima	22.2
49760	7	Sololá	710	Panajachel	8	Panajachel	7	Julio	2023-07-20T00:00:00	2024-11-08T21:00:00	5	Humedad	66
49761	7	Sololá	710	Panajachel	8	Panajachel	7	Julio	2023-07-20T00:00:00	2024-11-08T21:00:00	6	Velocidad del viento	9.7
49762	7	Sololá	710	Panajachel	8	Panajachel	7	Julio	2023-07-20T00:00:00	2024-11-08T21:00:00	7	Dirección del viento	9.66
49763	7	Sololá	710	Panajachel	8	Panajachel	7	Julio	2023-07-20T00:00:00	2024-11-08T21:00:00	1	Precipitación	0
49764	7	Sololá	710	Panajachel	8	Panajachel	7	Julio	2023-07-20T00:00:00	2024-11-08T21:00:00	8	Radiación solar	0
49765	7	Sololá	710	Panajachel	8	Panajachel	7	Julio	2023-07-20T00:00:00	2024-11-08T22:00:00	2	Temperatura media	22.1
49766	7	Sololá	710	Panajachel	8	Panajachel	7	Julio	2023-07-20T00:00:00	2024-11-08T22:00:00	4	Temperatura máxima	22.2
49767	7	Sololá	710	Panajachel	8	Panajachel	7	Julio	2023-07-20T00:00:00	2024-11-08T22:00:00	3	Temperatura mínima	22.1
49768	7	Sololá	710	Panajachel	8	Panajachel	7	Julio	2023-07-20T00:00:00	2024-11-08T22:00:00	5	Humedad	67
49769	7	Sololá	710	Panajachel	8	Panajachel	7	Julio	2023-07-20T00:00:00	2024-11-08T22:00:00	6	Velocidad del viento	6.4
49770	7	Sololá	710	Panajachel	8	Panajachel	7	Julio	2023-07-20T00:00:00	2024-11-08T22:00:00	7	Dirección del viento	6.44
49771	7	Sololá	710	Panajachel	8	Panajachel	7	Julio	2023-07-20T00:00:00	2024-11-08T22:00:00	1	Precipitación	0
49772	7	Sololá	710	Panajachel	8	Panajachel	7	Julio	2023-07-20T00:00:00	2024-11-08T22:00:00	8	Radiación solar	0
49773	7	Sololá	710	Panajachel	8	Panajachel	7	Julio	2023-07-20T00:00:00	2024-11-08T23:00:00	2	Temperatura media	21.8
49774	7	Sololá	710	Panajachel	8	Panajachel	7	Julio	2023-07-20T00:00:00	2024-11-08T23:00:00	4	Temperatura máxima	22.1
49775	7	Sololá	710	Panajachel	8	Panajachel	7	Julio	2023-07-20T00:00:00	2024-11-08T23:00:00	3	Temperatura mínima	21.8
49776	7	Sololá	710	Panajachel	8	Panajachel	7	Julio	2023-07-20T00:00:00	2024-11-08T23:00:00	5	Humedad	68
49777	7	Sololá	710	Panajachel	8	Panajachel	7	Julio	2023-07-20T00:00:00	2024-11-08T23:00:00	6	Velocidad del viento	6.4
49778	7	Sololá	710	Panajachel	8	Panajachel	7	Julio	2023-07-20T00:00:00	2024-11-08T23:00:00	7	Dirección del viento	6.44
49779	7	Sololá	710	Panajachel	8	Panajachel	7	Julio	2023-07-20T00:00:00	2024-11-08T23:00:00	1	Precipitación	0
49780	7	Sololá	710	Panajachel	8	Panajachel	7	Julio	2023-07-20T00:00:00	2024-11-08T23:00:00	8	Radiación solar	0
49781	7	Sololá	710	Panajachel	8	Panajachel	7	Julio	2023-07-21T00:00:00	2024-11-08T00:00:00	2	Temperatura media	21.4
49782	7	Sololá	710	Panajachel	8	Panajachel	7	Julio	2023-07-21T00:00:00	2024-11-08T00:00:00	4	Temperatura máxima	21.8
49783	7	Sololá	710	Panajachel	8	Panajachel	7	Julio	2023-07-21T00:00:00	2024-11-08T00:00:00	3	Temperatura mínima	21.4
49784	7	Sololá	710	Panajachel	8	Panajachel	7	Julio	2023-07-21T00:00:00	2024-11-08T00:00:00	5	Humedad	69
49785	7	Sololá	710	Panajachel	8	Panajachel	7	Julio	2023-07-21T00:00:00	2024-11-08T00:00:00	6	Velocidad del viento	6.4
49786	7	Sololá	710	Panajachel	8	Panajachel	7	Julio	2023-07-21T00:00:00	2024-11-08T00:00:00	7	Dirección del viento	6.44
49787	7	Sololá	710	Panajachel	8	Panajachel	7	Julio	2023-07-21T00:00:00	2024-11-08T00:00:00	1	Precipitación	0
49788	7	Sololá	710	Panajachel	8	Panajachel	7	Julio	2023-07-21T00:00:00	2024-11-08T00:00:00	8	Radiación solar	0
49789	7	Sololá	710	Panajachel	8	Panajachel	7	Julio	2023-07-21T00:00:00	2024-11-08T01:00:00	2	Temperatura media	21.1
49790	7	Sololá	710	Panajachel	8	Panajachel	7	Julio	2023-07-21T00:00:00	2024-11-08T01:00:00	4	Temperatura máxima	21.5
49791	7	Sololá	710	Panajachel	8	Panajachel	7	Julio	2023-07-21T00:00:00	2024-11-08T01:00:00	3	Temperatura mínima	21.1
49792	7	Sololá	710	Panajachel	8	Panajachel	7	Julio	2023-07-21T00:00:00	2024-11-08T01:00:00	5	Humedad	69
49793	7	Sololá	710	Panajachel	8	Panajachel	7	Julio	2023-07-21T00:00:00	2024-11-08T01:00:00	6	Velocidad del viento	8
49794	7	Sololá	710	Panajachel	8	Panajachel	7	Julio	2023-07-21T00:00:00	2024-11-08T01:00:00	7	Dirección del viento	8.05
49795	7	Sololá	710	Panajachel	8	Panajachel	7	Julio	2023-07-21T00:00:00	2024-11-08T01:00:00	1	Precipitación	0
49796	7	Sololá	710	Panajachel	8	Panajachel	7	Julio	2023-07-21T00:00:00	2024-11-08T01:00:00	8	Radiación solar	0
49797	7	Sololá	710	Panajachel	8	Panajachel	7	Julio	2023-07-21T00:00:00	2024-11-08T02:00:00	2	Temperatura media	20.8
49798	7	Sololá	710	Panajachel	8	Panajachel	7	Julio	2023-07-21T00:00:00	2024-11-08T02:00:00	4	Temperatura máxima	21.2
49799	7	Sololá	710	Panajachel	8	Panajachel	7	Julio	2023-07-21T00:00:00	2024-11-08T02:00:00	3	Temperatura mínima	20.8
49800	7	Sololá	710	Panajachel	8	Panajachel	7	Julio	2023-07-21T00:00:00	2024-11-08T02:00:00	5	Humedad	70
49801	7	Sololá	710	Panajachel	8	Panajachel	7	Julio	2023-07-21T00:00:00	2024-11-08T02:00:00	6	Velocidad del viento	4.8
49802	7	Sololá	710	Panajachel	8	Panajachel	7	Julio	2023-07-21T00:00:00	2024-11-08T02:00:00	7	Dirección del viento	4.83
49803	7	Sololá	710	Panajachel	8	Panajachel	7	Julio	2023-07-21T00:00:00	2024-11-08T02:00:00	1	Precipitación	0
49804	7	Sololá	710	Panajachel	8	Panajachel	7	Julio	2023-07-21T00:00:00	2024-11-08T02:00:00	8	Radiación solar	0
49805	7	Sololá	710	Panajachel	8	Panajachel	7	Julio	2023-07-21T00:00:00	2024-11-08T03:00:00	2	Temperatura media	19.9
49806	7	Sololá	710	Panajachel	8	Panajachel	7	Julio	2023-07-21T00:00:00	2024-11-08T03:00:00	4	Temperatura máxima	20.8
49807	7	Sololá	710	Panajachel	8	Panajachel	7	Julio	2023-07-21T00:00:00	2024-11-08T03:00:00	3	Temperatura mínima	19.9
49808	7	Sololá	710	Panajachel	8	Panajachel	7	Julio	2023-07-21T00:00:00	2024-11-08T03:00:00	5	Humedad	73
49809	7	Sololá	710	Panajachel	8	Panajachel	7	Julio	2023-07-21T00:00:00	2024-11-08T03:00:00	6	Velocidad del viento	3.2
49810	7	Sololá	710	Panajachel	8	Panajachel	7	Julio	2023-07-21T00:00:00	2024-11-08T03:00:00	7	Dirección del viento	3.22
49811	7	Sololá	710	Panajachel	8	Panajachel	7	Julio	2023-07-21T00:00:00	2024-11-08T03:00:00	1	Precipitación	0
49812	7	Sololá	710	Panajachel	8	Panajachel	7	Julio	2023-07-21T00:00:00	2024-11-08T03:00:00	8	Radiación solar	0
49813	7	Sololá	710	Panajachel	8	Panajachel	7	Julio	2023-07-21T00:00:00	2024-11-08T04:00:00	2	Temperatura media	20.8
49814	7	Sololá	710	Panajachel	8	Panajachel	7	Julio	2023-07-21T00:00:00	2024-11-08T04:00:00	4	Temperatura máxima	20.8
49815	7	Sololá	710	Panajachel	8	Panajachel	7	Julio	2023-07-21T00:00:00	2024-11-08T04:00:00	3	Temperatura mínima	19.8
49816	7	Sololá	710	Panajachel	8	Panajachel	7	Julio	2023-07-21T00:00:00	2024-11-08T04:00:00	5	Humedad	71
49817	7	Sololá	710	Panajachel	8	Panajachel	7	Julio	2023-07-21T00:00:00	2024-11-08T04:00:00	6	Velocidad del viento	6.4
49818	7	Sololá	710	Panajachel	8	Panajachel	7	Julio	2023-07-21T00:00:00	2024-11-08T04:00:00	7	Dirección del viento	6.44
49819	7	Sololá	710	Panajachel	8	Panajachel	7	Julio	2023-07-21T00:00:00	2024-11-08T04:00:00	1	Precipitación	0
49820	7	Sololá	710	Panajachel	8	Panajachel	7	Julio	2023-07-21T00:00:00	2024-11-08T04:00:00	8	Radiación solar	0
49821	7	Sololá	710	Panajachel	8	Panajachel	7	Julio	2023-07-21T00:00:00	2024-11-08T05:00:00	2	Temperatura media	19.4
49822	7	Sololá	710	Panajachel	8	Panajachel	7	Julio	2023-07-21T00:00:00	2024-11-08T05:00:00	4	Temperatura máxima	20.8
49823	7	Sololá	710	Panajachel	8	Panajachel	7	Julio	2023-07-21T00:00:00	2024-11-08T05:00:00	3	Temperatura mínima	19.4
49824	7	Sololá	710	Panajachel	8	Panajachel	7	Julio	2023-07-21T00:00:00	2024-11-08T05:00:00	5	Humedad	75
49825	7	Sololá	710	Panajachel	8	Panajachel	7	Julio	2023-07-21T00:00:00	2024-11-08T05:00:00	6	Velocidad del viento	3.2
49826	7	Sololá	710	Panajachel	8	Panajachel	7	Julio	2023-07-21T00:00:00	2024-11-08T05:00:00	7	Dirección del viento	3.22
49827	7	Sololá	710	Panajachel	8	Panajachel	7	Julio	2023-07-21T00:00:00	2024-11-08T05:00:00	1	Precipitación	0
49828	7	Sololá	710	Panajachel	8	Panajachel	7	Julio	2023-07-21T00:00:00	2024-11-08T05:00:00	8	Radiación solar	0
49829	7	Sololá	710	Panajachel	8	Panajachel	7	Julio	2023-07-21T00:00:00	2024-11-08T06:00:00	2	Temperatura media	20.2
49830	7	Sololá	710	Panajachel	8	Panajachel	7	Julio	2023-07-21T00:00:00	2024-11-08T06:00:00	4	Temperatura máxima	20.4
49831	7	Sololá	710	Panajachel	8	Panajachel	7	Julio	2023-07-21T00:00:00	2024-11-08T06:00:00	3	Temperatura mínima	18.8
49832	7	Sololá	710	Panajachel	8	Panajachel	7	Julio	2023-07-21T00:00:00	2024-11-08T06:00:00	5	Humedad	74
49833	7	Sololá	710	Panajachel	8	Panajachel	7	Julio	2023-07-21T00:00:00	2024-11-08T06:00:00	6	Velocidad del viento	1.6
49834	7	Sololá	710	Panajachel	8	Panajachel	7	Julio	2023-07-21T00:00:00	2024-11-08T06:00:00	7	Dirección del viento	1.61
49835	7	Sololá	710	Panajachel	8	Panajachel	7	Julio	2023-07-21T00:00:00	2024-11-08T06:00:00	1	Precipitación	0
49836	7	Sololá	710	Panajachel	8	Panajachel	7	Julio	2023-07-21T00:00:00	2024-11-08T06:00:00	8	Radiación solar	1
49837	7	Sololá	710	Panajachel	8	Panajachel	7	Julio	2023-07-21T00:00:00	2024-11-08T07:00:00	2	Temperatura media	21.8
49838	7	Sololá	710	Panajachel	8	Panajachel	7	Julio	2023-07-21T00:00:00	2024-11-08T07:00:00	4	Temperatura máxima	21.9
49839	7	Sololá	710	Panajachel	8	Panajachel	7	Julio	2023-07-21T00:00:00	2024-11-08T07:00:00	3	Temperatura mínima	19.9
49840	7	Sololá	710	Panajachel	8	Panajachel	7	Julio	2023-07-21T00:00:00	2024-11-08T07:00:00	5	Humedad	70
49841	7	Sololá	710	Panajachel	8	Panajachel	7	Julio	2023-07-21T00:00:00	2024-11-08T07:00:00	6	Velocidad del viento	4.8
49842	7	Sololá	710	Panajachel	8	Panajachel	7	Julio	2023-07-21T00:00:00	2024-11-08T07:00:00	7	Dirección del viento	4.83
49843	7	Sololá	710	Panajachel	8	Panajachel	7	Julio	2023-07-21T00:00:00	2024-11-08T07:00:00	1	Precipitación	0
49844	7	Sololá	710	Panajachel	8	Panajachel	7	Julio	2023-07-21T00:00:00	2024-11-08T07:00:00	8	Radiación solar	76
49845	7	Sololá	710	Panajachel	8	Panajachel	7	Julio	2023-07-21T00:00:00	2024-11-08T08:00:00	2	Temperatura media	22.7
49846	7	Sololá	710	Panajachel	8	Panajachel	7	Julio	2023-07-21T00:00:00	2024-11-08T08:00:00	4	Temperatura máxima	22.7
49847	7	Sololá	710	Panajachel	8	Panajachel	7	Julio	2023-07-21T00:00:00	2024-11-08T08:00:00	3	Temperatura mínima	21.9
49848	7	Sololá	710	Panajachel	8	Panajachel	7	Julio	2023-07-21T00:00:00	2024-11-08T08:00:00	5	Humedad	69
49849	7	Sololá	710	Panajachel	8	Panajachel	7	Julio	2023-07-21T00:00:00	2024-11-08T08:00:00	6	Velocidad del viento	8
49850	7	Sololá	710	Panajachel	8	Panajachel	7	Julio	2023-07-21T00:00:00	2024-11-08T08:00:00	7	Dirección del viento	8.05
49851	7	Sololá	710	Panajachel	8	Panajachel	7	Julio	2023-07-21T00:00:00	2024-11-08T08:00:00	1	Precipitación	0
49852	7	Sololá	710	Panajachel	8	Panajachel	7	Julio	2023-07-21T00:00:00	2024-11-08T08:00:00	8	Radiación solar	326
49853	7	Sololá	710	Panajachel	8	Panajachel	7	Julio	2023-07-21T00:00:00	2024-11-08T09:00:00	2	Temperatura media	24.4
49854	7	Sololá	710	Panajachel	8	Panajachel	7	Julio	2023-07-21T00:00:00	2024-11-08T09:00:00	4	Temperatura máxima	24.4
49855	7	Sololá	710	Panajachel	8	Panajachel	7	Julio	2023-07-21T00:00:00	2024-11-08T09:00:00	3	Temperatura mínima	22.7
49856	7	Sololá	710	Panajachel	8	Panajachel	7	Julio	2023-07-21T00:00:00	2024-11-08T09:00:00	5	Humedad	65
49857	7	Sololá	710	Panajachel	8	Panajachel	7	Julio	2023-07-21T00:00:00	2024-11-08T09:00:00	6	Velocidad del viento	6.4
49858	7	Sololá	710	Panajachel	8	Panajachel	7	Julio	2023-07-21T00:00:00	2024-11-08T09:00:00	7	Dirección del viento	6.44
49859	7	Sololá	710	Panajachel	8	Panajachel	7	Julio	2023-07-21T00:00:00	2024-11-08T09:00:00	1	Precipitación	0
49860	7	Sololá	710	Panajachel	8	Panajachel	7	Julio	2023-07-21T00:00:00	2024-11-08T09:00:00	8	Radiación solar	534
49861	7	Sololá	710	Panajachel	8	Panajachel	7	Julio	2023-07-21T00:00:00	2024-11-08T10:00:00	2	Temperatura media	26.2
49862	7	Sololá	710	Panajachel	8	Panajachel	7	Julio	2023-07-21T00:00:00	2024-11-08T10:00:00	4	Temperatura máxima	26.2
49863	7	Sololá	710	Panajachel	8	Panajachel	7	Julio	2023-07-21T00:00:00	2024-11-08T10:00:00	3	Temperatura mínima	24.3
49864	7	Sololá	710	Panajachel	8	Panajachel	7	Julio	2023-07-21T00:00:00	2024-11-08T10:00:00	5	Humedad	59
49865	7	Sololá	710	Panajachel	8	Panajachel	7	Julio	2023-07-21T00:00:00	2024-11-08T10:00:00	6	Velocidad del viento	6.4
49866	7	Sololá	710	Panajachel	8	Panajachel	7	Julio	2023-07-21T00:00:00	2024-11-08T10:00:00	7	Dirección del viento	6.44
49867	7	Sololá	710	Panajachel	8	Panajachel	7	Julio	2023-07-21T00:00:00	2024-11-08T10:00:00	1	Precipitación	0
49868	7	Sololá	710	Panajachel	8	Panajachel	7	Julio	2023-07-21T00:00:00	2024-11-08T10:00:00	8	Radiación solar	716
49869	7	Sololá	710	Panajachel	8	Panajachel	7	Julio	2023-07-21T00:00:00	2024-11-08T11:00:00	2	Temperatura media	26.5
49870	7	Sololá	710	Panajachel	8	Panajachel	7	Julio	2023-07-21T00:00:00	2024-11-08T11:00:00	4	Temperatura máxima	26.9
49871	7	Sololá	710	Panajachel	8	Panajachel	7	Julio	2023-07-21T00:00:00	2024-11-08T11:00:00	3	Temperatura mínima	25.9
49872	7	Sololá	710	Panajachel	8	Panajachel	7	Julio	2023-07-21T00:00:00	2024-11-08T11:00:00	5	Humedad	61
49873	7	Sololá	710	Panajachel	8	Panajachel	7	Julio	2023-07-21T00:00:00	2024-11-08T11:00:00	6	Velocidad del viento	4.8
49874	7	Sololá	710	Panajachel	8	Panajachel	7	Julio	2023-07-21T00:00:00	2024-11-08T11:00:00	7	Dirección del viento	4.83
49875	7	Sololá	710	Panajachel	8	Panajachel	7	Julio	2023-07-21T00:00:00	2024-11-08T11:00:00	1	Precipitación	0
49876	7	Sololá	710	Panajachel	8	Panajachel	7	Julio	2023-07-21T00:00:00	2024-11-08T11:00:00	8	Radiación solar	849
49877	7	Sololá	710	Panajachel	8	Panajachel	7	Julio	2023-07-21T00:00:00	2024-11-08T12:00:00	2	Temperatura media	27.5
49878	7	Sololá	710	Panajachel	8	Panajachel	7	Julio	2023-07-21T00:00:00	2024-11-08T12:00:00	4	Temperatura máxima	27.8
49879	7	Sololá	710	Panajachel	8	Panajachel	7	Julio	2023-07-21T00:00:00	2024-11-08T12:00:00	3	Temperatura mínima	26.6
49880	7	Sololá	710	Panajachel	8	Panajachel	7	Julio	2023-07-21T00:00:00	2024-11-08T12:00:00	5	Humedad	58
49881	7	Sololá	710	Panajachel	8	Panajachel	7	Julio	2023-07-21T00:00:00	2024-11-08T12:00:00	6	Velocidad del viento	1.6
49882	7	Sololá	710	Panajachel	8	Panajachel	7	Julio	2023-07-21T00:00:00	2024-11-08T12:00:00	7	Dirección del viento	1.61
49883	7	Sololá	710	Panajachel	8	Panajachel	7	Julio	2023-07-21T00:00:00	2024-11-08T12:00:00	1	Precipitación	0
49884	7	Sololá	710	Panajachel	8	Panajachel	7	Julio	2023-07-21T00:00:00	2024-11-08T12:00:00	8	Radiación solar	892
49885	7	Sololá	710	Panajachel	8	Panajachel	7	Julio	2023-07-21T00:00:00	2024-11-08T13:00:00	2	Temperatura media	25.8
49886	7	Sololá	710	Panajachel	8	Panajachel	7	Julio	2023-07-21T00:00:00	2024-11-08T13:00:00	4	Temperatura máxima	27.7
49887	7	Sololá	710	Panajachel	8	Panajachel	7	Julio	2023-07-21T00:00:00	2024-11-08T13:00:00	3	Temperatura mínima	25.8
49888	7	Sololá	710	Panajachel	8	Panajachel	7	Julio	2023-07-21T00:00:00	2024-11-08T13:00:00	5	Humedad	69
49889	7	Sololá	710	Panajachel	8	Panajachel	7	Julio	2023-07-21T00:00:00	2024-11-08T13:00:00	6	Velocidad del viento	3.2
49890	7	Sololá	710	Panajachel	8	Panajachel	7	Julio	2023-07-21T00:00:00	2024-11-08T13:00:00	7	Dirección del viento	3.22
49891	7	Sololá	710	Panajachel	8	Panajachel	7	Julio	2023-07-21T00:00:00	2024-11-08T13:00:00	1	Precipitación	0
49892	7	Sololá	710	Panajachel	8	Panajachel	7	Julio	2023-07-21T00:00:00	2024-11-08T13:00:00	8	Radiación solar	270
49893	7	Sololá	710	Panajachel	8	Panajachel	7	Julio	2023-07-21T00:00:00	2024-11-08T14:00:00	2	Temperatura media	26.7
49894	7	Sololá	710	Panajachel	8	Panajachel	7	Julio	2023-07-21T00:00:00	2024-11-08T14:00:00	4	Temperatura máxima	27.9
49895	7	Sololá	710	Panajachel	8	Panajachel	7	Julio	2023-07-21T00:00:00	2024-11-08T14:00:00	3	Temperatura mínima	25.8
49896	7	Sololá	710	Panajachel	8	Panajachel	7	Julio	2023-07-21T00:00:00	2024-11-08T14:00:00	5	Humedad	68
49897	7	Sololá	710	Panajachel	8	Panajachel	7	Julio	2023-07-21T00:00:00	2024-11-08T14:00:00	6	Velocidad del viento	3.2
49898	7	Sololá	710	Panajachel	8	Panajachel	7	Julio	2023-07-21T00:00:00	2024-11-08T14:00:00	7	Dirección del viento	3.22
49899	7	Sololá	710	Panajachel	8	Panajachel	7	Julio	2023-07-21T00:00:00	2024-11-08T14:00:00	1	Precipitación	0
49900	7	Sololá	710	Panajachel	8	Panajachel	7	Julio	2023-07-21T00:00:00	2024-11-08T14:00:00	8	Radiación solar	499
49901	7	Sololá	710	Panajachel	8	Panajachel	7	Julio	2023-07-21T00:00:00	2024-11-08T15:00:00	2	Temperatura media	24.3
49902	7	Sololá	710	Panajachel	8	Panajachel	7	Julio	2023-07-21T00:00:00	2024-11-08T15:00:00	4	Temperatura máxima	26.7
49903	7	Sololá	710	Panajachel	8	Panajachel	7	Julio	2023-07-21T00:00:00	2024-11-08T15:00:00	3	Temperatura mínima	24.3
49904	7	Sololá	710	Panajachel	8	Panajachel	7	Julio	2023-07-21T00:00:00	2024-11-08T15:00:00	5	Humedad	81
49905	7	Sololá	710	Panajachel	8	Panajachel	7	Julio	2023-07-21T00:00:00	2024-11-08T15:00:00	6	Velocidad del viento	12.9
49906	7	Sololá	710	Panajachel	8	Panajachel	7	Julio	2023-07-21T00:00:00	2024-11-08T15:00:00	7	Dirección del viento	12.87
49907	7	Sololá	710	Panajachel	8	Panajachel	7	Julio	2023-07-21T00:00:00	2024-11-08T15:00:00	1	Precipitación	0
49908	7	Sololá	710	Panajachel	8	Panajachel	7	Julio	2023-07-21T00:00:00	2024-11-08T15:00:00	8	Radiación solar	369
49909	7	Sololá	710	Panajachel	8	Panajachel	7	Julio	2023-07-21T00:00:00	2024-11-08T16:00:00	2	Temperatura media	24
49910	7	Sololá	710	Panajachel	8	Panajachel	7	Julio	2023-07-21T00:00:00	2024-11-08T16:00:00	4	Temperatura máxima	25.5
49911	7	Sololá	710	Panajachel	8	Panajachel	7	Julio	2023-07-21T00:00:00	2024-11-08T16:00:00	3	Temperatura mínima	23.9
49912	7	Sololá	710	Panajachel	8	Panajachel	7	Julio	2023-07-21T00:00:00	2024-11-08T16:00:00	5	Humedad	82
49913	7	Sololá	710	Panajachel	8	Panajachel	7	Julio	2023-07-21T00:00:00	2024-11-08T16:00:00	6	Velocidad del viento	8
49914	7	Sololá	710	Panajachel	8	Panajachel	7	Julio	2023-07-21T00:00:00	2024-11-08T16:00:00	7	Dirección del viento	8.05
49915	7	Sololá	710	Panajachel	8	Panajachel	7	Julio	2023-07-21T00:00:00	2024-11-08T16:00:00	1	Precipitación	0
49916	7	Sololá	710	Panajachel	8	Panajachel	7	Julio	2023-07-21T00:00:00	2024-11-08T16:00:00	8	Radiación solar	310
49917	7	Sololá	710	Panajachel	8	Panajachel	7	Julio	2023-07-21T00:00:00	2024-11-08T17:00:00	2	Temperatura media	23.9
49918	7	Sololá	710	Panajachel	8	Panajachel	7	Julio	2023-07-21T00:00:00	2024-11-08T17:00:00	4	Temperatura máxima	24.3
49919	7	Sololá	710	Panajachel	8	Panajachel	7	Julio	2023-07-21T00:00:00	2024-11-08T17:00:00	3	Temperatura mínima	23.8
49920	7	Sololá	710	Panajachel	8	Panajachel	7	Julio	2023-07-21T00:00:00	2024-11-08T17:00:00	5	Humedad	78
49921	7	Sololá	710	Panajachel	8	Panajachel	7	Julio	2023-07-21T00:00:00	2024-11-08T17:00:00	6	Velocidad del viento	6.4
49922	7	Sololá	710	Panajachel	8	Panajachel	7	Julio	2023-07-21T00:00:00	2024-11-08T17:00:00	7	Dirección del viento	6.44
49923	7	Sololá	710	Panajachel	8	Panajachel	7	Julio	2023-07-21T00:00:00	2024-11-08T17:00:00	1	Precipitación	0
49924	7	Sololá	710	Panajachel	8	Panajachel	7	Julio	2023-07-21T00:00:00	2024-11-08T17:00:00	8	Radiación solar	113
49925	7	Sololá	710	Panajachel	8	Panajachel	7	Julio	2023-07-21T00:00:00	2024-11-08T18:00:00	2	Temperatura media	23.2
49926	7	Sololá	710	Panajachel	8	Panajachel	7	Julio	2023-07-21T00:00:00	2024-11-08T18:00:00	4	Temperatura máxima	23.9
49927	7	Sololá	710	Panajachel	8	Panajachel	7	Julio	2023-07-21T00:00:00	2024-11-08T18:00:00	3	Temperatura mínima	23.2
49928	7	Sololá	710	Panajachel	8	Panajachel	7	Julio	2023-07-21T00:00:00	2024-11-08T18:00:00	5	Humedad	82
49929	7	Sololá	710	Panajachel	8	Panajachel	7	Julio	2023-07-21T00:00:00	2024-11-08T18:00:00	6	Velocidad del viento	4.8
49930	7	Sololá	710	Panajachel	8	Panajachel	7	Julio	2023-07-21T00:00:00	2024-11-08T18:00:00	7	Dirección del viento	4.83
49931	7	Sololá	710	Panajachel	8	Panajachel	7	Julio	2023-07-21T00:00:00	2024-11-08T18:00:00	1	Precipitación	0
49932	7	Sololá	710	Panajachel	8	Panajachel	7	Julio	2023-07-21T00:00:00	2024-11-08T18:00:00	8	Radiación solar	57
49933	7	Sololá	710	Panajachel	8	Panajachel	7	Julio	2023-07-21T00:00:00	2024-11-08T19:00:00	2	Temperatura media	22.6
49934	7	Sololá	710	Panajachel	8	Panajachel	7	Julio	2023-07-21T00:00:00	2024-11-08T19:00:00	4	Temperatura máxima	23.2
49935	7	Sololá	710	Panajachel	8	Panajachel	7	Julio	2023-07-21T00:00:00	2024-11-08T19:00:00	3	Temperatura mínima	22.5
49936	7	Sololá	710	Panajachel	8	Panajachel	7	Julio	2023-07-21T00:00:00	2024-11-08T19:00:00	5	Humedad	86
49937	7	Sololá	710	Panajachel	8	Panajachel	7	Julio	2023-07-21T00:00:00	2024-11-08T19:00:00	6	Velocidad del viento	1.6
49938	7	Sololá	710	Panajachel	8	Panajachel	7	Julio	2023-07-21T00:00:00	2024-11-08T19:00:00	7	Dirección del viento	1.61
49939	7	Sololá	710	Panajachel	8	Panajachel	7	Julio	2023-07-21T00:00:00	2024-11-08T19:00:00	1	Precipitación	0
49940	7	Sololá	710	Panajachel	8	Panajachel	7	Julio	2023-07-21T00:00:00	2024-11-08T19:00:00	8	Radiación solar	0
49941	7	Sololá	710	Panajachel	8	Panajachel	7	Julio	2023-07-21T00:00:00	2024-11-08T20:00:00	2	Temperatura media	21.7
49942	7	Sololá	710	Panajachel	8	Panajachel	7	Julio	2023-07-21T00:00:00	2024-11-08T20:00:00	4	Temperatura máxima	22.6
49943	7	Sololá	710	Panajachel	8	Panajachel	7	Julio	2023-07-21T00:00:00	2024-11-08T20:00:00	3	Temperatura mínima	21.7
49944	7	Sololá	710	Panajachel	8	Panajachel	7	Julio	2023-07-21T00:00:00	2024-11-08T20:00:00	5	Humedad	88
49945	7	Sololá	710	Panajachel	8	Panajachel	7	Julio	2023-07-21T00:00:00	2024-11-08T20:00:00	6	Velocidad del viento	0
49946	7	Sololá	710	Panajachel	8	Panajachel	7	Julio	2023-07-21T00:00:00	2024-11-08T20:00:00	7	Dirección del viento	0
49947	7	Sololá	710	Panajachel	8	Panajachel	7	Julio	2023-07-21T00:00:00	2024-11-08T20:00:00	1	Precipitación	0
49948	7	Sololá	710	Panajachel	8	Panajachel	7	Julio	2023-07-21T00:00:00	2024-11-08T20:00:00	8	Radiación solar	0
49949	7	Sololá	710	Panajachel	8	Panajachel	7	Julio	2023-07-21T00:00:00	2024-11-08T21:00:00	2	Temperatura media	20.9
49950	7	Sololá	710	Panajachel	8	Panajachel	7	Julio	2023-07-21T00:00:00	2024-11-08T21:00:00	4	Temperatura máxima	21.7
49951	7	Sololá	710	Panajachel	8	Panajachel	7	Julio	2023-07-21T00:00:00	2024-11-08T21:00:00	3	Temperatura mínima	20.9
49952	7	Sololá	710	Panajachel	8	Panajachel	7	Julio	2023-07-21T00:00:00	2024-11-08T21:00:00	5	Humedad	87
49953	7	Sololá	710	Panajachel	8	Panajachel	7	Julio	2023-07-21T00:00:00	2024-11-08T21:00:00	6	Velocidad del viento	1.6
49954	7	Sololá	710	Panajachel	8	Panajachel	7	Julio	2023-07-21T00:00:00	2024-11-08T21:00:00	7	Dirección del viento	1.61
49955	7	Sololá	710	Panajachel	8	Panajachel	7	Julio	2023-07-21T00:00:00	2024-11-08T21:00:00	1	Precipitación	0
49956	7	Sololá	710	Panajachel	8	Panajachel	7	Julio	2023-07-21T00:00:00	2024-11-08T21:00:00	8	Radiación solar	0
49957	7	Sololá	710	Panajachel	8	Panajachel	7	Julio	2023-07-21T00:00:00	2024-11-08T22:00:00	2	Temperatura media	20.3
49958	7	Sololá	710	Panajachel	8	Panajachel	7	Julio	2023-07-21T00:00:00	2024-11-08T22:00:00	4	Temperatura máxima	20.9
49959	7	Sololá	710	Panajachel	8	Panajachel	7	Julio	2023-07-21T00:00:00	2024-11-08T22:00:00	3	Temperatura mínima	20.3
49960	7	Sololá	710	Panajachel	8	Panajachel	7	Julio	2023-07-21T00:00:00	2024-11-08T22:00:00	5	Humedad	85
49961	7	Sololá	710	Panajachel	8	Panajachel	7	Julio	2023-07-21T00:00:00	2024-11-08T22:00:00	6	Velocidad del viento	3.2
49962	7	Sololá	710	Panajachel	8	Panajachel	7	Julio	2023-07-21T00:00:00	2024-11-08T22:00:00	7	Dirección del viento	3.22
49963	7	Sololá	710	Panajachel	8	Panajachel	7	Julio	2023-07-21T00:00:00	2024-11-08T22:00:00	1	Precipitación	0
49964	7	Sololá	710	Panajachel	8	Panajachel	7	Julio	2023-07-21T00:00:00	2024-11-08T22:00:00	8	Radiación solar	0
49965	7	Sololá	710	Panajachel	8	Panajachel	7	Julio	2023-07-21T00:00:00	2024-11-08T23:00:00	2	Temperatura media	19.8
49966	7	Sololá	710	Panajachel	8	Panajachel	7	Julio	2023-07-21T00:00:00	2024-11-08T23:00:00	4	Temperatura máxima	20.3
49967	7	Sololá	710	Panajachel	8	Panajachel	7	Julio	2023-07-21T00:00:00	2024-11-08T23:00:00	3	Temperatura mínima	19.7
49968	7	Sololá	710	Panajachel	8	Panajachel	7	Julio	2023-07-21T00:00:00	2024-11-08T23:00:00	5	Humedad	83
49969	7	Sololá	710	Panajachel	8	Panajachel	7	Julio	2023-07-21T00:00:00	2024-11-08T23:00:00	6	Velocidad del viento	3.2
49970	7	Sololá	710	Panajachel	8	Panajachel	7	Julio	2023-07-21T00:00:00	2024-11-08T23:00:00	7	Dirección del viento	3.22
49971	7	Sololá	710	Panajachel	8	Panajachel	7	Julio	2023-07-21T00:00:00	2024-11-08T23:00:00	1	Precipitación	0
49972	7	Sololá	710	Panajachel	8	Panajachel	7	Julio	2023-07-21T00:00:00	2024-11-08T23:00:00	8	Radiación solar	0
49973	7	Sololá	710	Panajachel	8	Panajachel	7	Julio	2023-07-22T00:00:00	2024-11-08T00:00:00	2	Temperatura media	19.4
49974	7	Sololá	710	Panajachel	8	Panajachel	7	Julio	2023-07-22T00:00:00	2024-11-08T00:00:00	4	Temperatura máxima	19.8
49975	7	Sololá	710	Panajachel	8	Panajachel	7	Julio	2023-07-22T00:00:00	2024-11-08T00:00:00	3	Temperatura mínima	19.2
49976	7	Sololá	710	Panajachel	8	Panajachel	7	Julio	2023-07-22T00:00:00	2024-11-08T00:00:00	5	Humedad	82
49977	7	Sololá	710	Panajachel	8	Panajachel	7	Julio	2023-07-22T00:00:00	2024-11-08T00:00:00	6	Velocidad del viento	3.2
49978	7	Sololá	710	Panajachel	8	Panajachel	7	Julio	2023-07-22T00:00:00	2024-11-08T00:00:00	7	Dirección del viento	3.22
49979	7	Sololá	710	Panajachel	8	Panajachel	7	Julio	2023-07-22T00:00:00	2024-11-08T00:00:00	1	Precipitación	0
49980	7	Sololá	710	Panajachel	8	Panajachel	7	Julio	2023-07-22T00:00:00	2024-11-08T00:00:00	8	Radiación solar	0
49981	7	Sololá	710	Panajachel	8	Panajachel	7	Julio	2023-07-22T00:00:00	2024-11-08T01:00:00	2	Temperatura media	19.2
49982	7	Sololá	710	Panajachel	8	Panajachel	7	Julio	2023-07-22T00:00:00	2024-11-08T01:00:00	4	Temperatura máxima	20.2
49983	7	Sololá	710	Panajachel	8	Panajachel	7	Julio	2023-07-22T00:00:00	2024-11-08T01:00:00	3	Temperatura mínima	19.1
49984	7	Sololá	710	Panajachel	8	Panajachel	7	Julio	2023-07-22T00:00:00	2024-11-08T01:00:00	5	Humedad	83
49985	7	Sololá	710	Panajachel	8	Panajachel	7	Julio	2023-07-22T00:00:00	2024-11-08T01:00:00	6	Velocidad del viento	4.8
49986	7	Sololá	710	Panajachel	8	Panajachel	7	Julio	2023-07-22T00:00:00	2024-11-08T01:00:00	7	Dirección del viento	4.83
49987	7	Sololá	710	Panajachel	8	Panajachel	7	Julio	2023-07-22T00:00:00	2024-11-08T01:00:00	1	Precipitación	0
49988	7	Sololá	710	Panajachel	8	Panajachel	7	Julio	2023-07-22T00:00:00	2024-11-08T01:00:00	8	Radiación solar	0
49989	7	Sololá	710	Panajachel	8	Panajachel	7	Julio	2023-07-22T00:00:00	2024-11-08T02:00:00	2	Temperatura media	18.9
49990	7	Sololá	710	Panajachel	8	Panajachel	7	Julio	2023-07-22T00:00:00	2024-11-08T02:00:00	4	Temperatura máxima	19.1
49991	7	Sololá	710	Panajachel	8	Panajachel	7	Julio	2023-07-22T00:00:00	2024-11-08T02:00:00	3	Temperatura mínima	18.7
49992	7	Sololá	710	Panajachel	8	Panajachel	7	Julio	2023-07-22T00:00:00	2024-11-08T02:00:00	5	Humedad	82
49993	7	Sololá	710	Panajachel	8	Panajachel	7	Julio	2023-07-22T00:00:00	2024-11-08T02:00:00	6	Velocidad del viento	3.2
49994	7	Sololá	710	Panajachel	8	Panajachel	7	Julio	2023-07-22T00:00:00	2024-11-08T02:00:00	7	Dirección del viento	3.22
49995	7	Sololá	710	Panajachel	8	Panajachel	7	Julio	2023-07-22T00:00:00	2024-11-08T02:00:00	1	Precipitación	0
49996	7	Sololá	710	Panajachel	8	Panajachel	7	Julio	2023-07-22T00:00:00	2024-11-08T02:00:00	8	Radiación solar	0
49997	7	Sololá	710	Panajachel	8	Panajachel	7	Julio	2023-07-22T00:00:00	2024-11-08T03:00:00	2	Temperatura media	18.8
49998	7	Sololá	710	Panajachel	8	Panajachel	7	Julio	2023-07-22T00:00:00	2024-11-08T03:00:00	4	Temperatura máxima	18.9
49999	7	Sololá	710	Panajachel	8	Panajachel	7	Julio	2023-07-22T00:00:00	2024-11-08T03:00:00	3	Temperatura mínima	18.4
50000	7	Sololá	710	Panajachel	8	Panajachel	7	Julio	2023-07-22T00:00:00	2024-11-08T03:00:00	5	Humedad	81
50001	7	Sololá	710	Panajachel	8	Panajachel	7	Julio	2023-07-22T00:00:00	2024-11-08T03:00:00	6	Velocidad del viento	3.2
50002	7	Sololá	710	Panajachel	8	Panajachel	7	Julio	2023-07-22T00:00:00	2024-11-08T03:00:00	7	Dirección del viento	3.22
50003	7	Sololá	710	Panajachel	8	Panajachel	7	Julio	2023-07-22T00:00:00	2024-11-08T03:00:00	1	Precipitación	0
50004	7	Sololá	710	Panajachel	8	Panajachel	7	Julio	2023-07-22T00:00:00	2024-11-08T03:00:00	8	Radiación solar	0
50005	7	Sololá	710	Panajachel	8	Panajachel	7	Julio	2023-07-22T00:00:00	2024-11-08T04:00:00	2	Temperatura media	19.1
50006	7	Sololá	710	Panajachel	8	Panajachel	7	Julio	2023-07-22T00:00:00	2024-11-08T04:00:00	4	Temperatura máxima	19.1
50007	7	Sololá	710	Panajachel	8	Panajachel	7	Julio	2023-07-22T00:00:00	2024-11-08T04:00:00	3	Temperatura mínima	18.6
50008	7	Sololá	710	Panajachel	8	Panajachel	7	Julio	2023-07-22T00:00:00	2024-11-08T04:00:00	5	Humedad	79
50009	7	Sololá	710	Panajachel	8	Panajachel	7	Julio	2023-07-22T00:00:00	2024-11-08T04:00:00	6	Velocidad del viento	1.6
50010	7	Sololá	710	Panajachel	8	Panajachel	7	Julio	2023-07-22T00:00:00	2024-11-08T04:00:00	7	Dirección del viento	1.61
50011	7	Sololá	710	Panajachel	8	Panajachel	7	Julio	2023-07-22T00:00:00	2024-11-08T04:00:00	1	Precipitación	0
50012	7	Sololá	710	Panajachel	8	Panajachel	7	Julio	2023-07-22T00:00:00	2024-11-08T04:00:00	8	Radiación solar	0
50013	7	Sololá	710	Panajachel	8	Panajachel	7	Julio	2023-07-22T00:00:00	2024-11-08T05:00:00	2	Temperatura media	18.8
50014	7	Sololá	710	Panajachel	8	Panajachel	7	Julio	2023-07-22T00:00:00	2024-11-08T05:00:00	4	Temperatura máxima	19.2
50015	7	Sololá	710	Panajachel	8	Panajachel	7	Julio	2023-07-22T00:00:00	2024-11-08T05:00:00	3	Temperatura mínima	18.8
50016	7	Sololá	710	Panajachel	8	Panajachel	7	Julio	2023-07-22T00:00:00	2024-11-08T05:00:00	5	Humedad	79
50017	7	Sololá	710	Panajachel	8	Panajachel	7	Julio	2023-07-22T00:00:00	2024-11-08T05:00:00	6	Velocidad del viento	1.6
50018	7	Sololá	710	Panajachel	8	Panajachel	7	Julio	2023-07-22T00:00:00	2024-11-08T05:00:00	7	Dirección del viento	1.61
50019	7	Sololá	710	Panajachel	8	Panajachel	7	Julio	2023-07-22T00:00:00	2024-11-08T05:00:00	1	Precipitación	0
50020	7	Sololá	710	Panajachel	8	Panajachel	7	Julio	2023-07-22T00:00:00	2024-11-08T05:00:00	8	Radiación solar	0
50021	7	Sololá	710	Panajachel	8	Panajachel	7	Julio	2023-07-22T00:00:00	2024-11-08T06:00:00	2	Temperatura media	18.8
50022	7	Sololá	710	Panajachel	8	Panajachel	7	Julio	2023-07-22T00:00:00	2024-11-08T06:00:00	4	Temperatura máxima	19.1
50023	7	Sololá	710	Panajachel	8	Panajachel	7	Julio	2023-07-22T00:00:00	2024-11-08T06:00:00	3	Temperatura mínima	18.6
50024	7	Sololá	710	Panajachel	8	Panajachel	7	Julio	2023-07-22T00:00:00	2024-11-08T06:00:00	5	Humedad	79
50025	7	Sololá	710	Panajachel	8	Panajachel	7	Julio	2023-07-22T00:00:00	2024-11-08T06:00:00	6	Velocidad del viento	3.2
50026	7	Sololá	710	Panajachel	8	Panajachel	7	Julio	2023-07-22T00:00:00	2024-11-08T06:00:00	7	Dirección del viento	3.22
50027	7	Sololá	710	Panajachel	8	Panajachel	7	Julio	2023-07-22T00:00:00	2024-11-08T06:00:00	1	Precipitación	0
50028	7	Sololá	710	Panajachel	8	Panajachel	7	Julio	2023-07-22T00:00:00	2024-11-08T06:00:00	8	Radiación solar	1
50029	7	Sololá	710	Panajachel	8	Panajachel	7	Julio	2023-07-22T00:00:00	2024-11-08T07:00:00	2	Temperatura media	20.2
50030	7	Sololá	710	Panajachel	8	Panajachel	7	Julio	2023-07-22T00:00:00	2024-11-08T07:00:00	4	Temperatura máxima	20.2
50031	7	Sololá	710	Panajachel	8	Panajachel	7	Julio	2023-07-22T00:00:00	2024-11-08T07:00:00	3	Temperatura mínima	18.8
50032	7	Sololá	710	Panajachel	8	Panajachel	7	Julio	2023-07-22T00:00:00	2024-11-08T07:00:00	5	Humedad	78
50033	7	Sololá	710	Panajachel	8	Panajachel	7	Julio	2023-07-22T00:00:00	2024-11-08T07:00:00	6	Velocidad del viento	0
50034	7	Sololá	710	Panajachel	8	Panajachel	7	Julio	2023-07-22T00:00:00	2024-11-08T07:00:00	7	Dirección del viento	0
50035	7	Sololá	710	Panajachel	8	Panajachel	7	Julio	2023-07-22T00:00:00	2024-11-08T07:00:00	1	Precipitación	0
50036	7	Sololá	710	Panajachel	8	Panajachel	7	Julio	2023-07-22T00:00:00	2024-11-08T07:00:00	8	Radiación solar	87
50037	7	Sololá	710	Panajachel	8	Panajachel	7	Julio	2023-07-22T00:00:00	2024-11-08T08:00:00	2	Temperatura media	22
50038	7	Sololá	710	Panajachel	8	Panajachel	7	Julio	2023-07-22T00:00:00	2024-11-08T08:00:00	4	Temperatura máxima	22.1
50039	7	Sololá	710	Panajachel	8	Panajachel	7	Julio	2023-07-22T00:00:00	2024-11-08T08:00:00	3	Temperatura mínima	20.2
50040	7	Sololá	710	Panajachel	8	Panajachel	7	Julio	2023-07-22T00:00:00	2024-11-08T08:00:00	5	Humedad	77
50041	7	Sololá	710	Panajachel	8	Panajachel	7	Julio	2023-07-22T00:00:00	2024-11-08T08:00:00	6	Velocidad del viento	1.6
50042	7	Sololá	710	Panajachel	8	Panajachel	7	Julio	2023-07-22T00:00:00	2024-11-08T08:00:00	7	Dirección del viento	1.61
50043	7	Sololá	710	Panajachel	8	Panajachel	7	Julio	2023-07-22T00:00:00	2024-11-08T08:00:00	1	Precipitación	0
50044	7	Sololá	710	Panajachel	8	Panajachel	7	Julio	2023-07-22T00:00:00	2024-11-08T08:00:00	8	Radiación solar	279
50045	7	Sololá	710	Panajachel	8	Panajachel	7	Julio	2023-07-22T00:00:00	2024-11-08T09:00:00	2	Temperatura media	22.1
50046	7	Sololá	710	Panajachel	8	Panajachel	7	Julio	2023-07-22T00:00:00	2024-11-08T09:00:00	4	Temperatura máxima	22.8
50047	7	Sololá	710	Panajachel	8	Panajachel	7	Julio	2023-07-22T00:00:00	2024-11-08T09:00:00	3	Temperatura mínima	21.9
50048	7	Sololá	710	Panajachel	8	Panajachel	7	Julio	2023-07-22T00:00:00	2024-11-08T09:00:00	5	Humedad	77
50049	7	Sololá	710	Panajachel	8	Panajachel	7	Julio	2023-07-22T00:00:00	2024-11-08T09:00:00	6	Velocidad del viento	3.2
50050	7	Sololá	710	Panajachel	8	Panajachel	7	Julio	2023-07-22T00:00:00	2024-11-08T09:00:00	7	Dirección del viento	3.22
50051	7	Sololá	710	Panajachel	8	Panajachel	7	Julio	2023-07-22T00:00:00	2024-11-08T09:00:00	1	Precipitación	0
50052	7	Sololá	710	Panajachel	8	Panajachel	7	Julio	2023-07-22T00:00:00	2024-11-08T09:00:00	8	Radiación solar	447
50053	7	Sololá	710	Panajachel	8	Panajachel	7	Julio	2023-07-22T00:00:00	2024-11-08T10:00:00	2	Temperatura media	24.2
50054	7	Sololá	710	Panajachel	8	Panajachel	7	Julio	2023-07-22T00:00:00	2024-11-08T10:00:00	4	Temperatura máxima	24.2
50055	7	Sololá	710	Panajachel	8	Panajachel	7	Julio	2023-07-22T00:00:00	2024-11-08T10:00:00	3	Temperatura mínima	21.9
50056	7	Sololá	710	Panajachel	8	Panajachel	7	Julio	2023-07-22T00:00:00	2024-11-08T10:00:00	5	Humedad	70
50057	7	Sololá	710	Panajachel	8	Panajachel	7	Julio	2023-07-22T00:00:00	2024-11-08T10:00:00	6	Velocidad del viento	4.8
50058	7	Sololá	710	Panajachel	8	Panajachel	7	Julio	2023-07-22T00:00:00	2024-11-08T10:00:00	7	Dirección del viento	4.83
50059	7	Sololá	710	Panajachel	8	Panajachel	7	Julio	2023-07-22T00:00:00	2024-11-08T10:00:00	1	Precipitación	0
50060	7	Sololá	710	Panajachel	8	Panajachel	7	Julio	2023-07-22T00:00:00	2024-11-08T10:00:00	8	Radiación solar	544
50061	7	Sololá	710	Panajachel	8	Panajachel	7	Julio	2023-07-22T00:00:00	2024-11-08T11:00:00	2	Temperatura media	23.7
50062	7	Sololá	710	Panajachel	8	Panajachel	7	Julio	2023-07-22T00:00:00	2024-11-08T11:00:00	4	Temperatura máxima	24.2
50063	7	Sololá	710	Panajachel	8	Panajachel	7	Julio	2023-07-22T00:00:00	2024-11-08T11:00:00	3	Temperatura mínima	23.4
50064	7	Sololá	710	Panajachel	8	Panajachel	7	Julio	2023-07-22T00:00:00	2024-11-08T11:00:00	5	Humedad	74
50065	7	Sololá	710	Panajachel	8	Panajachel	7	Julio	2023-07-22T00:00:00	2024-11-08T11:00:00	6	Velocidad del viento	3.2
50066	7	Sololá	710	Panajachel	8	Panajachel	7	Julio	2023-07-22T00:00:00	2024-11-08T11:00:00	7	Dirección del viento	3.22
50067	7	Sololá	710	Panajachel	8	Panajachel	7	Julio	2023-07-22T00:00:00	2024-11-08T11:00:00	1	Precipitación	0
50068	7	Sololá	710	Panajachel	8	Panajachel	7	Julio	2023-07-22T00:00:00	2024-11-08T11:00:00	8	Radiación solar	889
50069	7	Sololá	710	Panajachel	8	Panajachel	7	Julio	2023-07-22T00:00:00	2024-11-08T12:00:00	2	Temperatura media	24.2
50070	7	Sololá	710	Panajachel	8	Panajachel	7	Julio	2023-07-22T00:00:00	2024-11-08T12:00:00	4	Temperatura máxima	24.8
50071	7	Sololá	710	Panajachel	8	Panajachel	7	Julio	2023-07-22T00:00:00	2024-11-08T12:00:00	3	Temperatura mínima	23.7
50072	7	Sololá	710	Panajachel	8	Panajachel	7	Julio	2023-07-22T00:00:00	2024-11-08T12:00:00	5	Humedad	76
50073	7	Sololá	710	Panajachel	8	Panajachel	7	Julio	2023-07-22T00:00:00	2024-11-08T12:00:00	6	Velocidad del viento	3.2
50074	7	Sololá	710	Panajachel	8	Panajachel	7	Julio	2023-07-22T00:00:00	2024-11-08T12:00:00	7	Dirección del viento	3.22
50075	7	Sololá	710	Panajachel	8	Panajachel	7	Julio	2023-07-22T00:00:00	2024-11-08T12:00:00	1	Precipitación	0
50076	7	Sololá	710	Panajachel	8	Panajachel	7	Julio	2023-07-22T00:00:00	2024-11-08T12:00:00	8	Radiación solar	775
50077	7	Sololá	710	Panajachel	8	Panajachel	7	Julio	2023-07-22T00:00:00	2024-11-08T13:00:00	2	Temperatura media	19.6
50078	7	Sololá	710	Panajachel	8	Panajachel	7	Julio	2023-07-22T00:00:00	2024-11-08T13:00:00	4	Temperatura máxima	24.3
50079	7	Sololá	710	Panajachel	8	Panajachel	7	Julio	2023-07-22T00:00:00	2024-11-08T13:00:00	3	Temperatura mínima	19.6
50080	7	Sololá	710	Panajachel	8	Panajachel	7	Julio	2023-07-22T00:00:00	2024-11-08T13:00:00	5	Humedad	86
50081	7	Sololá	710	Panajachel	8	Panajachel	7	Julio	2023-07-22T00:00:00	2024-11-08T13:00:00	6	Velocidad del viento	6.4
50082	7	Sololá	710	Panajachel	8	Panajachel	7	Julio	2023-07-22T00:00:00	2024-11-08T13:00:00	7	Dirección del viento	6.44
50083	7	Sololá	710	Panajachel	8	Panajachel	7	Julio	2023-07-22T00:00:00	2024-11-08T13:00:00	1	Precipitación	0.2
50084	7	Sololá	710	Panajachel	8	Panajachel	7	Julio	2023-07-22T00:00:00	2024-11-08T13:00:00	8	Radiación solar	163
50085	7	Sololá	710	Panajachel	8	Panajachel	7	Julio	2023-07-22T00:00:00	2024-11-08T14:00:00	2	Temperatura media	19.1
50086	7	Sololá	710	Panajachel	8	Panajachel	7	Julio	2023-07-22T00:00:00	2024-11-08T14:00:00	4	Temperatura máxima	19.6
50087	7	Sololá	710	Panajachel	8	Panajachel	7	Julio	2023-07-22T00:00:00	2024-11-08T14:00:00	3	Temperatura mínima	19.1
50088	7	Sololá	710	Panajachel	8	Panajachel	7	Julio	2023-07-22T00:00:00	2024-11-08T14:00:00	5	Humedad	89
50089	7	Sololá	710	Panajachel	8	Panajachel	7	Julio	2023-07-22T00:00:00	2024-11-08T14:00:00	6	Velocidad del viento	3.2
50090	7	Sololá	710	Panajachel	8	Panajachel	7	Julio	2023-07-22T00:00:00	2024-11-08T14:00:00	7	Dirección del viento	3.22
50091	7	Sololá	710	Panajachel	8	Panajachel	7	Julio	2023-07-22T00:00:00	2024-11-08T14:00:00	1	Precipitación	0.8
50092	7	Sololá	710	Panajachel	8	Panajachel	7	Julio	2023-07-22T00:00:00	2024-11-08T14:00:00	8	Radiación solar	66
50093	7	Sololá	710	Panajachel	8	Panajachel	7	Julio	2023-07-22T00:00:00	2024-11-08T15:00:00	2	Temperatura media	19.5
50094	7	Sololá	710	Panajachel	8	Panajachel	7	Julio	2023-07-22T00:00:00	2024-11-08T15:00:00	4	Temperatura máxima	19.6
50095	7	Sololá	710	Panajachel	8	Panajachel	7	Julio	2023-07-22T00:00:00	2024-11-08T15:00:00	3	Temperatura mínima	19.1
50096	7	Sololá	710	Panajachel	8	Panajachel	7	Julio	2023-07-22T00:00:00	2024-11-08T15:00:00	5	Humedad	87
50097	7	Sololá	710	Panajachel	8	Panajachel	7	Julio	2023-07-22T00:00:00	2024-11-08T15:00:00	6	Velocidad del viento	1.6
50098	7	Sololá	710	Panajachel	8	Panajachel	7	Julio	2023-07-22T00:00:00	2024-11-08T15:00:00	7	Dirección del viento	1.61
50099	7	Sololá	710	Panajachel	8	Panajachel	7	Julio	2023-07-22T00:00:00	2024-11-08T15:00:00	1	Precipitación	0
50100	7	Sololá	710	Panajachel	8	Panajachel	7	Julio	2023-07-22T00:00:00	2024-11-08T15:00:00	8	Radiación solar	119
50101	7	Sololá	710	Panajachel	8	Panajachel	7	Julio	2023-07-22T00:00:00	2024-11-08T16:00:00	2	Temperatura media	19.6
50102	7	Sololá	710	Panajachel	8	Panajachel	7	Julio	2023-07-22T00:00:00	2024-11-08T16:00:00	4	Temperatura máxima	19.9
50103	7	Sololá	710	Panajachel	8	Panajachel	7	Julio	2023-07-22T00:00:00	2024-11-08T16:00:00	3	Temperatura mínima	19.5
50104	7	Sololá	710	Panajachel	8	Panajachel	7	Julio	2023-07-22T00:00:00	2024-11-08T16:00:00	5	Humedad	88
50105	7	Sololá	710	Panajachel	8	Panajachel	7	Julio	2023-07-22T00:00:00	2024-11-08T16:00:00	6	Velocidad del viento	0
50106	7	Sololá	710	Panajachel	8	Panajachel	7	Julio	2023-07-22T00:00:00	2024-11-08T16:00:00	7	Dirección del viento	0
50107	7	Sololá	710	Panajachel	8	Panajachel	7	Julio	2023-07-22T00:00:00	2024-11-08T16:00:00	1	Precipitación	0
50108	7	Sololá	710	Panajachel	8	Panajachel	7	Julio	2023-07-22T00:00:00	2024-11-08T16:00:00	8	Radiación solar	70
50109	7	Sololá	710	Panajachel	8	Panajachel	7	Julio	2023-07-22T00:00:00	2024-11-08T17:00:00	2	Temperatura media	19.4
50110	7	Sololá	710	Panajachel	8	Panajachel	7	Julio	2023-07-22T00:00:00	2024-11-08T17:00:00	4	Temperatura máxima	19.6
50111	7	Sololá	710	Panajachel	8	Panajachel	7	Julio	2023-07-22T00:00:00	2024-11-08T17:00:00	3	Temperatura mínima	19.3
50112	7	Sololá	710	Panajachel	8	Panajachel	7	Julio	2023-07-22T00:00:00	2024-11-08T17:00:00	5	Humedad	88
50113	7	Sololá	710	Panajachel	8	Panajachel	7	Julio	2023-07-22T00:00:00	2024-11-08T17:00:00	6	Velocidad del viento	0
50114	7	Sololá	710	Panajachel	8	Panajachel	7	Julio	2023-07-22T00:00:00	2024-11-08T17:00:00	7	Dirección del viento	0
50115	7	Sololá	710	Panajachel	8	Panajachel	7	Julio	2023-07-22T00:00:00	2024-11-08T17:00:00	1	Precipitación	0
50116	7	Sololá	710	Panajachel	8	Panajachel	7	Julio	2023-07-22T00:00:00	2024-11-08T17:00:00	8	Radiación solar	40
50117	7	Sololá	710	Panajachel	8	Panajachel	7	Julio	2023-07-22T00:00:00	2024-11-08T18:00:00	2	Temperatura media	19.3
50118	7	Sololá	710	Panajachel	8	Panajachel	7	Julio	2023-07-22T00:00:00	2024-11-08T18:00:00	4	Temperatura máxima	19.7
50119	7	Sololá	710	Panajachel	8	Panajachel	7	Julio	2023-07-22T00:00:00	2024-11-08T18:00:00	3	Temperatura mínima	19.3
50120	7	Sololá	710	Panajachel	8	Panajachel	7	Julio	2023-07-22T00:00:00	2024-11-08T18:00:00	5	Humedad	89
50121	7	Sololá	710	Panajachel	8	Panajachel	7	Julio	2023-07-22T00:00:00	2024-11-08T18:00:00	6	Velocidad del viento	0
50122	7	Sololá	710	Panajachel	8	Panajachel	7	Julio	2023-07-22T00:00:00	2024-11-08T18:00:00	7	Dirección del viento	0
50123	7	Sololá	710	Panajachel	8	Panajachel	7	Julio	2023-07-22T00:00:00	2024-11-08T18:00:00	1	Precipitación	0
50124	7	Sololá	710	Panajachel	8	Panajachel	7	Julio	2023-07-22T00:00:00	2024-11-08T18:00:00	8	Radiación solar	38
50125	7	Sololá	710	Panajachel	8	Panajachel	7	Julio	2023-07-22T00:00:00	2024-11-08T19:00:00	2	Temperatura media	18.9
50126	7	Sololá	710	Panajachel	8	Panajachel	7	Julio	2023-07-22T00:00:00	2024-11-08T19:00:00	4	Temperatura máxima	19.3
50127	7	Sololá	710	Panajachel	8	Panajachel	7	Julio	2023-07-22T00:00:00	2024-11-08T19:00:00	3	Temperatura mínima	18.9
50128	7	Sololá	710	Panajachel	8	Panajachel	7	Julio	2023-07-22T00:00:00	2024-11-08T19:00:00	5	Humedad	89
50129	7	Sololá	710	Panajachel	8	Panajachel	7	Julio	2023-07-22T00:00:00	2024-11-08T19:00:00	6	Velocidad del viento	1.6
50130	7	Sololá	710	Panajachel	8	Panajachel	7	Julio	2023-07-22T00:00:00	2024-11-08T19:00:00	7	Dirección del viento	1.61
50131	7	Sololá	710	Panajachel	8	Panajachel	7	Julio	2023-07-22T00:00:00	2024-11-08T19:00:00	1	Precipitación	0
50132	7	Sololá	710	Panajachel	8	Panajachel	7	Julio	2023-07-22T00:00:00	2024-11-08T19:00:00	8	Radiación solar	0
50133	7	Sololá	710	Panajachel	8	Panajachel	7	Julio	2023-07-22T00:00:00	2024-11-08T20:00:00	2	Temperatura media	18.4
50134	7	Sololá	710	Panajachel	8	Panajachel	7	Julio	2023-07-22T00:00:00	2024-11-08T20:00:00	4	Temperatura máxima	19
50135	7	Sololá	710	Panajachel	8	Panajachel	7	Julio	2023-07-22T00:00:00	2024-11-08T20:00:00	3	Temperatura mínima	18.4
50136	7	Sololá	710	Panajachel	8	Panajachel	7	Julio	2023-07-22T00:00:00	2024-11-08T20:00:00	5	Humedad	91
50137	7	Sololá	710	Panajachel	8	Panajachel	7	Julio	2023-07-22T00:00:00	2024-11-08T20:00:00	6	Velocidad del viento	1.6
50138	7	Sololá	710	Panajachel	8	Panajachel	7	Julio	2023-07-22T00:00:00	2024-11-08T20:00:00	7	Dirección del viento	1.61
50139	7	Sololá	710	Panajachel	8	Panajachel	7	Julio	2023-07-22T00:00:00	2024-11-08T20:00:00	1	Precipitación	0
50140	7	Sololá	710	Panajachel	8	Panajachel	7	Julio	2023-07-22T00:00:00	2024-11-08T20:00:00	8	Radiación solar	0
50141	7	Sololá	710	Panajachel	8	Panajachel	7	Julio	2023-07-22T00:00:00	2024-11-08T21:00:00	2	Temperatura media	17.9
50142	7	Sololá	710	Panajachel	8	Panajachel	7	Julio	2023-07-22T00:00:00	2024-11-08T21:00:00	4	Temperatura máxima	18.4
50143	7	Sololá	710	Panajachel	8	Panajachel	7	Julio	2023-07-22T00:00:00	2024-11-08T21:00:00	3	Temperatura mínima	17.9
50144	7	Sololá	710	Panajachel	8	Panajachel	7	Julio	2023-07-22T00:00:00	2024-11-08T21:00:00	5	Humedad	91
50145	7	Sololá	710	Panajachel	8	Panajachel	7	Julio	2023-07-22T00:00:00	2024-11-08T21:00:00	6	Velocidad del viento	1.6
50146	7	Sololá	710	Panajachel	8	Panajachel	7	Julio	2023-07-22T00:00:00	2024-11-08T21:00:00	7	Dirección del viento	1.61
50147	7	Sololá	710	Panajachel	8	Panajachel	7	Julio	2023-07-22T00:00:00	2024-11-08T21:00:00	1	Precipitación	0
50148	7	Sololá	710	Panajachel	8	Panajachel	7	Julio	2023-07-22T00:00:00	2024-11-08T21:00:00	8	Radiación solar	0
50149	7	Sololá	710	Panajachel	8	Panajachel	7	Julio	2023-07-22T00:00:00	2024-11-08T22:00:00	2	Temperatura media	17.7
50150	7	Sololá	710	Panajachel	8	Panajachel	7	Julio	2023-07-22T00:00:00	2024-11-08T22:00:00	4	Temperatura máxima	18.1
50151	7	Sololá	710	Panajachel	8	Panajachel	7	Julio	2023-07-22T00:00:00	2024-11-08T22:00:00	3	Temperatura mínima	17.7
50152	7	Sololá	710	Panajachel	8	Panajachel	7	Julio	2023-07-22T00:00:00	2024-11-08T22:00:00	5	Humedad	90
50153	7	Sololá	710	Panajachel	8	Panajachel	7	Julio	2023-07-22T00:00:00	2024-11-08T22:00:00	6	Velocidad del viento	3.2
50154	7	Sololá	710	Panajachel	8	Panajachel	7	Julio	2023-07-22T00:00:00	2024-11-08T22:00:00	7	Dirección del viento	3.22
50155	7	Sololá	710	Panajachel	8	Panajachel	7	Julio	2023-07-22T00:00:00	2024-11-08T22:00:00	1	Precipitación	0
50156	7	Sololá	710	Panajachel	8	Panajachel	7	Julio	2023-07-22T00:00:00	2024-11-08T22:00:00	8	Radiación solar	0
50157	7	Sololá	710	Panajachel	8	Panajachel	7	Julio	2023-07-22T00:00:00	2024-11-08T23:00:00	2	Temperatura media	17.8
50158	7	Sololá	710	Panajachel	8	Panajachel	7	Julio	2023-07-22T00:00:00	2024-11-08T23:00:00	4	Temperatura máxima	17.9
50159	7	Sololá	710	Panajachel	8	Panajachel	7	Julio	2023-07-22T00:00:00	2024-11-08T23:00:00	3	Temperatura mínima	17.6
50160	7	Sololá	710	Panajachel	8	Panajachel	7	Julio	2023-07-22T00:00:00	2024-11-08T23:00:00	5	Humedad	87
50161	7	Sololá	710	Panajachel	8	Panajachel	7	Julio	2023-07-22T00:00:00	2024-11-08T23:00:00	6	Velocidad del viento	3.2
50162	7	Sololá	710	Panajachel	8	Panajachel	7	Julio	2023-07-22T00:00:00	2024-11-08T23:00:00	7	Dirección del viento	3.22
50163	7	Sololá	710	Panajachel	8	Panajachel	7	Julio	2023-07-22T00:00:00	2024-11-08T23:00:00	1	Precipitación	0
50164	7	Sololá	710	Panajachel	8	Panajachel	7	Julio	2023-07-22T00:00:00	2024-11-08T23:00:00	8	Radiación solar	0
50165	7	Sololá	710	Panajachel	8	Panajachel	7	Julio	2023-07-23T00:00:00	2024-11-08T00:00:00	2	Temperatura media	17.3
50166	7	Sololá	710	Panajachel	8	Panajachel	7	Julio	2023-07-23T00:00:00	2024-11-08T00:00:00	4	Temperatura máxima	17.9
50167	7	Sololá	710	Panajachel	8	Panajachel	7	Julio	2023-07-23T00:00:00	2024-11-08T00:00:00	3	Temperatura mínima	17.3
50168	7	Sololá	710	Panajachel	8	Panajachel	7	Julio	2023-07-23T00:00:00	2024-11-08T00:00:00	5	Humedad	88
50169	7	Sololá	710	Panajachel	8	Panajachel	7	Julio	2023-07-23T00:00:00	2024-11-08T00:00:00	6	Velocidad del viento	3.2
50170	7	Sololá	710	Panajachel	8	Panajachel	7	Julio	2023-07-23T00:00:00	2024-11-08T00:00:00	7	Dirección del viento	3.22
50171	7	Sololá	710	Panajachel	8	Panajachel	7	Julio	2023-07-23T00:00:00	2024-11-08T00:00:00	1	Precipitación	0
50172	7	Sololá	710	Panajachel	8	Panajachel	7	Julio	2023-07-23T00:00:00	2024-11-08T00:00:00	8	Radiación solar	0
50173	7	Sololá	710	Panajachel	8	Panajachel	7	Julio	2023-07-23T00:00:00	2024-11-08T01:00:00	2	Temperatura media	17.8
50174	7	Sololá	710	Panajachel	8	Panajachel	7	Julio	2023-07-23T00:00:00	2024-11-08T01:00:00	4	Temperatura máxima	17.9
50175	7	Sololá	710	Panajachel	8	Panajachel	7	Julio	2023-07-23T00:00:00	2024-11-08T01:00:00	3	Temperatura mínima	17.3
50176	7	Sololá	710	Panajachel	8	Panajachel	7	Julio	2023-07-23T00:00:00	2024-11-08T01:00:00	5	Humedad	86
50177	7	Sololá	710	Panajachel	8	Panajachel	7	Julio	2023-07-23T00:00:00	2024-11-08T01:00:00	6	Velocidad del viento	1.6
50178	7	Sololá	710	Panajachel	8	Panajachel	7	Julio	2023-07-23T00:00:00	2024-11-08T01:00:00	7	Dirección del viento	1.61
50179	7	Sololá	710	Panajachel	8	Panajachel	7	Julio	2023-07-23T00:00:00	2024-11-08T01:00:00	1	Precipitación	0
50180	7	Sololá	710	Panajachel	8	Panajachel	7	Julio	2023-07-23T00:00:00	2024-11-08T01:00:00	8	Radiación solar	0
50181	7	Sololá	710	Panajachel	8	Panajachel	7	Julio	2023-07-23T00:00:00	2024-11-08T02:00:00	2	Temperatura media	17.2
50182	7	Sololá	710	Panajachel	8	Panajachel	7	Julio	2023-07-23T00:00:00	2024-11-08T02:00:00	4	Temperatura máxima	17.8
50183	7	Sololá	710	Panajachel	8	Panajachel	7	Julio	2023-07-23T00:00:00	2024-11-08T02:00:00	3	Temperatura mínima	17.1
50184	7	Sololá	710	Panajachel	8	Panajachel	7	Julio	2023-07-23T00:00:00	2024-11-08T02:00:00	5	Humedad	88
50185	7	Sololá	710	Panajachel	8	Panajachel	7	Julio	2023-07-23T00:00:00	2024-11-08T02:00:00	6	Velocidad del viento	3.2
50186	7	Sololá	710	Panajachel	8	Panajachel	7	Julio	2023-07-23T00:00:00	2024-11-08T02:00:00	7	Dirección del viento	3.22
50187	7	Sololá	710	Panajachel	8	Panajachel	7	Julio	2023-07-23T00:00:00	2024-11-08T02:00:00	1	Precipitación	0
50188	7	Sololá	710	Panajachel	8	Panajachel	7	Julio	2023-07-23T00:00:00	2024-11-08T02:00:00	8	Radiación solar	0
50189	7	Sololá	710	Panajachel	8	Panajachel	7	Julio	2023-07-23T00:00:00	2024-11-08T03:00:00	2	Temperatura media	16.8
50190	7	Sololá	710	Panajachel	8	Panajachel	7	Julio	2023-07-23T00:00:00	2024-11-08T03:00:00	4	Temperatura máxima	17.2
50191	7	Sololá	710	Panajachel	8	Panajachel	7	Julio	2023-07-23T00:00:00	2024-11-08T03:00:00	3	Temperatura mínima	16.7
50192	7	Sololá	710	Panajachel	8	Panajachel	7	Julio	2023-07-23T00:00:00	2024-11-08T03:00:00	5	Humedad	90
50193	7	Sololá	710	Panajachel	8	Panajachel	7	Julio	2023-07-23T00:00:00	2024-11-08T03:00:00	6	Velocidad del viento	1.6
50194	7	Sololá	710	Panajachel	8	Panajachel	7	Julio	2023-07-23T00:00:00	2024-11-08T03:00:00	7	Dirección del viento	1.61
50195	7	Sololá	710	Panajachel	8	Panajachel	7	Julio	2023-07-23T00:00:00	2024-11-08T03:00:00	1	Precipitación	0
50196	7	Sololá	710	Panajachel	8	Panajachel	7	Julio	2023-07-23T00:00:00	2024-11-08T03:00:00	8	Radiación solar	0
50197	7	Sololá	710	Panajachel	8	Panajachel	7	Julio	2023-07-23T00:00:00	2024-11-08T04:00:00	2	Temperatura media	17.1
50198	7	Sololá	710	Panajachel	8	Panajachel	7	Julio	2023-07-23T00:00:00	2024-11-08T04:00:00	4	Temperatura máxima	17.1
50199	7	Sololá	710	Panajachel	8	Panajachel	7	Julio	2023-07-23T00:00:00	2024-11-08T04:00:00	3	Temperatura mínima	16.7
50200	7	Sololá	710	Panajachel	8	Panajachel	7	Julio	2023-07-23T00:00:00	2024-11-08T04:00:00	5	Humedad	89
50201	7	Sololá	710	Panajachel	8	Panajachel	7	Julio	2023-07-23T00:00:00	2024-11-08T04:00:00	6	Velocidad del viento	1.6
50202	7	Sololá	710	Panajachel	8	Panajachel	7	Julio	2023-07-23T00:00:00	2024-11-08T04:00:00	7	Dirección del viento	1.61
50203	7	Sololá	710	Panajachel	8	Panajachel	7	Julio	2023-07-23T00:00:00	2024-11-08T04:00:00	1	Precipitación	0
50204	7	Sololá	710	Panajachel	8	Panajachel	7	Julio	2023-07-23T00:00:00	2024-11-08T04:00:00	8	Radiación solar	0
50205	7	Sololá	710	Panajachel	8	Panajachel	7	Julio	2023-07-23T00:00:00	2024-11-08T05:00:00	2	Temperatura media	17.7
50206	7	Sololá	710	Panajachel	8	Panajachel	7	Julio	2023-07-23T00:00:00	2024-11-08T05:00:00	4	Temperatura máxima	17.7
50207	7	Sololá	710	Panajachel	8	Panajachel	7	Julio	2023-07-23T00:00:00	2024-11-08T05:00:00	3	Temperatura mínima	17.1
50208	7	Sololá	710	Panajachel	8	Panajachel	7	Julio	2023-07-23T00:00:00	2024-11-08T05:00:00	5	Humedad	85
50209	7	Sololá	710	Panajachel	8	Panajachel	7	Julio	2023-07-23T00:00:00	2024-11-08T05:00:00	6	Velocidad del viento	3.2
50210	7	Sololá	710	Panajachel	8	Panajachel	7	Julio	2023-07-23T00:00:00	2024-11-08T05:00:00	7	Dirección del viento	3.22
50211	7	Sololá	710	Panajachel	8	Panajachel	7	Julio	2023-07-23T00:00:00	2024-11-08T05:00:00	1	Precipitación	0
50212	7	Sololá	710	Panajachel	8	Panajachel	7	Julio	2023-07-23T00:00:00	2024-11-08T05:00:00	8	Radiación solar	0
50213	7	Sololá	710	Panajachel	8	Panajachel	7	Julio	2023-07-23T00:00:00	2024-11-08T06:00:00	2	Temperatura media	17.1
50214	7	Sololá	710	Panajachel	8	Panajachel	7	Julio	2023-07-23T00:00:00	2024-11-08T06:00:00	4	Temperatura máxima	17.7
50215	7	Sololá	710	Panajachel	8	Panajachel	7	Julio	2023-07-23T00:00:00	2024-11-08T06:00:00	3	Temperatura mínima	17.1
50216	7	Sololá	710	Panajachel	8	Panajachel	7	Julio	2023-07-23T00:00:00	2024-11-08T06:00:00	5	Humedad	87
50217	7	Sololá	710	Panajachel	8	Panajachel	7	Julio	2023-07-23T00:00:00	2024-11-08T06:00:00	6	Velocidad del viento	3.2
50218	7	Sololá	710	Panajachel	8	Panajachel	7	Julio	2023-07-23T00:00:00	2024-11-08T06:00:00	7	Dirección del viento	3.22
50219	7	Sololá	710	Panajachel	8	Panajachel	7	Julio	2023-07-23T00:00:00	2024-11-08T06:00:00	1	Precipitación	0
50220	7	Sololá	710	Panajachel	8	Panajachel	7	Julio	2023-07-23T00:00:00	2024-11-08T06:00:00	8	Radiación solar	1
50221	7	Sololá	710	Panajachel	8	Panajachel	7	Julio	2023-07-23T00:00:00	2024-11-08T07:00:00	2	Temperatura media	18.5
50222	7	Sololá	710	Panajachel	8	Panajachel	7	Julio	2023-07-23T00:00:00	2024-11-08T07:00:00	4	Temperatura máxima	18.5
50223	7	Sololá	710	Panajachel	8	Panajachel	7	Julio	2023-07-23T00:00:00	2024-11-08T07:00:00	3	Temperatura mínima	16.8
50224	7	Sololá	710	Panajachel	8	Panajachel	7	Julio	2023-07-23T00:00:00	2024-11-08T07:00:00	5	Humedad	85
50225	7	Sololá	710	Panajachel	8	Panajachel	7	Julio	2023-07-23T00:00:00	2024-11-08T07:00:00	6	Velocidad del viento	1.6
50226	7	Sololá	710	Panajachel	8	Panajachel	7	Julio	2023-07-23T00:00:00	2024-11-08T07:00:00	7	Dirección del viento	1.61
50227	7	Sololá	710	Panajachel	8	Panajachel	7	Julio	2023-07-23T00:00:00	2024-11-08T07:00:00	1	Precipitación	0
50228	7	Sololá	710	Panajachel	8	Panajachel	7	Julio	2023-07-23T00:00:00	2024-11-08T07:00:00	8	Radiación solar	61
50229	7	Sololá	710	Panajachel	8	Panajachel	7	Julio	2023-07-23T00:00:00	2024-11-08T08:00:00	2	Temperatura media	22.5
50230	7	Sololá	710	Panajachel	8	Panajachel	7	Julio	2023-07-23T00:00:00	2024-11-08T08:00:00	4	Temperatura máxima	22.6
50231	7	Sololá	710	Panajachel	8	Panajachel	7	Julio	2023-07-23T00:00:00	2024-11-08T08:00:00	3	Temperatura mínima	18.5
50232	7	Sololá	710	Panajachel	8	Panajachel	7	Julio	2023-07-23T00:00:00	2024-11-08T08:00:00	5	Humedad	74
50233	7	Sololá	710	Panajachel	8	Panajachel	7	Julio	2023-07-23T00:00:00	2024-11-08T08:00:00	6	Velocidad del viento	0
50234	7	Sololá	710	Panajachel	8	Panajachel	7	Julio	2023-07-23T00:00:00	2024-11-08T08:00:00	7	Dirección del viento	0
50235	7	Sololá	710	Panajachel	8	Panajachel	7	Julio	2023-07-23T00:00:00	2024-11-08T08:00:00	1	Precipitación	0
50236	7	Sololá	710	Panajachel	8	Panajachel	7	Julio	2023-07-23T00:00:00	2024-11-08T08:00:00	8	Radiación solar	339
50237	7	Sololá	710	Panajachel	8	Panajachel	7	Julio	2023-07-23T00:00:00	2024-11-08T09:00:00	2	Temperatura media	22.1
50238	7	Sololá	710	Panajachel	8	Panajachel	7	Julio	2023-07-23T00:00:00	2024-11-08T09:00:00	4	Temperatura máxima	22.8
50239	7	Sololá	710	Panajachel	8	Panajachel	7	Julio	2023-07-23T00:00:00	2024-11-08T09:00:00	3	Temperatura mínima	21.7
50240	7	Sololá	710	Panajachel	8	Panajachel	7	Julio	2023-07-23T00:00:00	2024-11-08T09:00:00	5	Humedad	77
50241	7	Sololá	710	Panajachel	8	Panajachel	7	Julio	2023-07-23T00:00:00	2024-11-08T09:00:00	6	Velocidad del viento	1.6
50242	7	Sololá	710	Panajachel	8	Panajachel	7	Julio	2023-07-23T00:00:00	2024-11-08T09:00:00	7	Dirección del viento	1.61
50243	7	Sololá	710	Panajachel	8	Panajachel	7	Julio	2023-07-23T00:00:00	2024-11-08T09:00:00	1	Precipitación	0
50244	7	Sololá	710	Panajachel	8	Panajachel	7	Julio	2023-07-23T00:00:00	2024-11-08T09:00:00	8	Radiación solar	528
50245	7	Sololá	710	Panajachel	8	Panajachel	7	Julio	2023-07-23T00:00:00	2024-11-08T10:00:00	2	Temperatura media	22.7
50246	7	Sololá	710	Panajachel	8	Panajachel	7	Julio	2023-07-23T00:00:00	2024-11-08T10:00:00	4	Temperatura máxima	22.7
50247	7	Sololá	710	Panajachel	8	Panajachel	7	Julio	2023-07-23T00:00:00	2024-11-08T10:00:00	3	Temperatura mínima	21.9
50248	7	Sololá	710	Panajachel	8	Panajachel	7	Julio	2023-07-23T00:00:00	2024-11-08T10:00:00	5	Humedad	78
50249	7	Sololá	710	Panajachel	8	Panajachel	7	Julio	2023-07-23T00:00:00	2024-11-08T10:00:00	6	Velocidad del viento	3.2
50250	7	Sololá	710	Panajachel	8	Panajachel	7	Julio	2023-07-23T00:00:00	2024-11-08T10:00:00	7	Dirección del viento	3.22
50251	7	Sololá	710	Panajachel	8	Panajachel	7	Julio	2023-07-23T00:00:00	2024-11-08T10:00:00	1	Precipitación	0
50252	7	Sololá	710	Panajachel	8	Panajachel	7	Julio	2023-07-23T00:00:00	2024-11-08T10:00:00	8	Radiación solar	632
50253	7	Sololá	710	Panajachel	8	Panajachel	7	Julio	2023-07-23T00:00:00	2024-11-08T11:00:00	2	Temperatura media	23.7
50254	7	Sololá	710	Panajachel	8	Panajachel	7	Julio	2023-07-23T00:00:00	2024-11-08T11:00:00	4	Temperatura máxima	23.7
50255	7	Sololá	710	Panajachel	8	Panajachel	7	Julio	2023-07-23T00:00:00	2024-11-08T11:00:00	3	Temperatura mínima	22.5
50256	7	Sololá	710	Panajachel	8	Panajachel	7	Julio	2023-07-23T00:00:00	2024-11-08T11:00:00	5	Humedad	72
50257	7	Sololá	710	Panajachel	8	Panajachel	7	Julio	2023-07-23T00:00:00	2024-11-08T11:00:00	6	Velocidad del viento	1.6
50258	7	Sololá	710	Panajachel	8	Panajachel	7	Julio	2023-07-23T00:00:00	2024-11-08T11:00:00	7	Dirección del viento	1.61
50259	7	Sololá	710	Panajachel	8	Panajachel	7	Julio	2023-07-23T00:00:00	2024-11-08T11:00:00	1	Precipitación	0.2
50260	7	Sololá	710	Panajachel	8	Panajachel	7	Julio	2023-07-23T00:00:00	2024-11-08T11:00:00	8	Radiación solar	477
50261	7	Sololá	710	Panajachel	8	Panajachel	7	Julio	2023-07-23T00:00:00	2024-11-08T12:00:00	2	Temperatura media	23.8
50262	7	Sololá	710	Panajachel	8	Panajachel	7	Julio	2023-07-23T00:00:00	2024-11-08T12:00:00	4	Temperatura máxima	23.8
50263	7	Sololá	710	Panajachel	8	Panajachel	7	Julio	2023-07-23T00:00:00	2024-11-08T12:00:00	3	Temperatura mínima	23.1
50264	7	Sololá	710	Panajachel	8	Panajachel	7	Julio	2023-07-23T00:00:00	2024-11-08T12:00:00	5	Humedad	78
50265	7	Sololá	710	Panajachel	8	Panajachel	7	Julio	2023-07-23T00:00:00	2024-11-08T12:00:00	6	Velocidad del viento	1.6
50266	7	Sololá	710	Panajachel	8	Panajachel	7	Julio	2023-07-23T00:00:00	2024-11-08T12:00:00	7	Dirección del viento	1.61
50267	7	Sololá	710	Panajachel	8	Panajachel	7	Julio	2023-07-23T00:00:00	2024-11-08T12:00:00	1	Precipitación	0
50268	7	Sololá	710	Panajachel	8	Panajachel	7	Julio	2023-07-23T00:00:00	2024-11-08T12:00:00	8	Radiación solar	256
50269	7	Sololá	710	Panajachel	8	Panajachel	7	Julio	2023-07-23T00:00:00	2024-11-08T13:00:00	2	Temperatura media	23.1
50270	7	Sololá	710	Panajachel	8	Panajachel	7	Julio	2023-07-23T00:00:00	2024-11-08T13:00:00	4	Temperatura máxima	24.3
50271	7	Sololá	710	Panajachel	8	Panajachel	7	Julio	2023-07-23T00:00:00	2024-11-08T13:00:00	3	Temperatura mínima	23
50272	7	Sololá	710	Panajachel	8	Panajachel	7	Julio	2023-07-23T00:00:00	2024-11-08T13:00:00	5	Humedad	80
50273	7	Sololá	710	Panajachel	8	Panajachel	7	Julio	2023-07-23T00:00:00	2024-11-08T13:00:00	6	Velocidad del viento	3.2
50274	7	Sololá	710	Panajachel	8	Panajachel	7	Julio	2023-07-23T00:00:00	2024-11-08T13:00:00	7	Dirección del viento	3.22
50275	7	Sololá	710	Panajachel	8	Panajachel	7	Julio	2023-07-23T00:00:00	2024-11-08T13:00:00	1	Precipitación	0
50276	7	Sololá	710	Panajachel	8	Panajachel	7	Julio	2023-07-23T00:00:00	2024-11-08T13:00:00	8	Radiación solar	326
50277	7	Sololá	710	Panajachel	8	Panajachel	7	Julio	2023-07-23T00:00:00	2024-11-08T14:00:00	2	Temperatura media	22
50278	7	Sololá	710	Panajachel	8	Panajachel	7	Julio	2023-07-23T00:00:00	2024-11-08T14:00:00	4	Temperatura máxima	23.1
50279	7	Sololá	710	Panajachel	8	Panajachel	7	Julio	2023-07-23T00:00:00	2024-11-08T14:00:00	3	Temperatura mínima	22
50280	7	Sololá	710	Panajachel	8	Panajachel	7	Julio	2023-07-23T00:00:00	2024-11-08T14:00:00	5	Humedad	85
50281	7	Sololá	710	Panajachel	8	Panajachel	7	Julio	2023-07-23T00:00:00	2024-11-08T14:00:00	6	Velocidad del viento	3.2
50282	7	Sololá	710	Panajachel	8	Panajachel	7	Julio	2023-07-23T00:00:00	2024-11-08T14:00:00	7	Dirección del viento	3.22
50283	7	Sololá	710	Panajachel	8	Panajachel	7	Julio	2023-07-23T00:00:00	2024-11-08T14:00:00	1	Precipitación	0
50284	7	Sololá	710	Panajachel	8	Panajachel	7	Julio	2023-07-23T00:00:00	2024-11-08T14:00:00	8	Radiación solar	268
50285	7	Sololá	710	Panajachel	8	Panajachel	7	Julio	2023-07-23T00:00:00	2024-11-08T15:00:00	2	Temperatura media	21.3
50286	7	Sololá	710	Panajachel	8	Panajachel	7	Julio	2023-07-23T00:00:00	2024-11-08T15:00:00	4	Temperatura máxima	22
50287	7	Sololá	710	Panajachel	8	Panajachel	7	Julio	2023-07-23T00:00:00	2024-11-08T15:00:00	3	Temperatura mínima	21.3
50288	7	Sololá	710	Panajachel	8	Panajachel	7	Julio	2023-07-23T00:00:00	2024-11-08T15:00:00	5	Humedad	84
50289	7	Sololá	710	Panajachel	8	Panajachel	7	Julio	2023-07-23T00:00:00	2024-11-08T15:00:00	6	Velocidad del viento	6.4
50290	7	Sololá	710	Panajachel	8	Panajachel	7	Julio	2023-07-23T00:00:00	2024-11-08T15:00:00	7	Dirección del viento	6.44
50291	7	Sololá	710	Panajachel	8	Panajachel	7	Julio	2023-07-23T00:00:00	2024-11-08T15:00:00	1	Precipitación	0
50292	7	Sololá	710	Panajachel	8	Panajachel	7	Julio	2023-07-23T00:00:00	2024-11-08T15:00:00	8	Radiación solar	201
50293	7	Sololá	710	Panajachel	8	Panajachel	7	Julio	2023-07-23T00:00:00	2024-11-08T16:00:00	2	Temperatura media	21.4
50294	7	Sololá	710	Panajachel	8	Panajachel	7	Julio	2023-07-23T00:00:00	2024-11-08T16:00:00	4	Temperatura máxima	21.6
50295	7	Sololá	710	Panajachel	8	Panajachel	7	Julio	2023-07-23T00:00:00	2024-11-08T16:00:00	3	Temperatura mínima	21.3
50296	7	Sololá	710	Panajachel	8	Panajachel	7	Julio	2023-07-23T00:00:00	2024-11-08T16:00:00	5	Humedad	83
50297	7	Sololá	710	Panajachel	8	Panajachel	7	Julio	2023-07-23T00:00:00	2024-11-08T16:00:00	6	Velocidad del viento	1.6
50298	7	Sololá	710	Panajachel	8	Panajachel	7	Julio	2023-07-23T00:00:00	2024-11-08T16:00:00	7	Dirección del viento	1.61
50299	7	Sololá	710	Panajachel	8	Panajachel	7	Julio	2023-07-23T00:00:00	2024-11-08T16:00:00	1	Precipitación	0
50300	7	Sololá	710	Panajachel	8	Panajachel	7	Julio	2023-07-23T00:00:00	2024-11-08T16:00:00	8	Radiación solar	103
50301	7	Sololá	710	Panajachel	8	Panajachel	7	Julio	2023-07-23T00:00:00	2024-11-08T17:00:00	2	Temperatura media	20.8
50302	7	Sololá	710	Panajachel	8	Panajachel	7	Julio	2023-07-23T00:00:00	2024-11-08T17:00:00	4	Temperatura máxima	21.6
50303	7	Sololá	710	Panajachel	8	Panajachel	7	Julio	2023-07-23T00:00:00	2024-11-08T17:00:00	3	Temperatura mínima	20.7
50304	7	Sololá	710	Panajachel	8	Panajachel	7	Julio	2023-07-23T00:00:00	2024-11-08T17:00:00	5	Humedad	88
50305	7	Sololá	710	Panajachel	8	Panajachel	7	Julio	2023-07-23T00:00:00	2024-11-08T17:00:00	6	Velocidad del viento	3.2
50306	7	Sololá	710	Panajachel	8	Panajachel	7	Julio	2023-07-23T00:00:00	2024-11-08T17:00:00	7	Dirección del viento	3.22
50307	7	Sololá	710	Panajachel	8	Panajachel	7	Julio	2023-07-23T00:00:00	2024-11-08T17:00:00	1	Precipitación	0
50308	7	Sololá	710	Panajachel	8	Panajachel	7	Julio	2023-07-23T00:00:00	2024-11-08T17:00:00	8	Radiación solar	77
50309	7	Sololá	710	Panajachel	8	Panajachel	7	Julio	2023-07-23T00:00:00	2024-11-08T18:00:00	2	Temperatura media	21
50310	7	Sololá	710	Panajachel	8	Panajachel	7	Julio	2023-07-23T00:00:00	2024-11-08T18:00:00	4	Temperatura máxima	21.1
50311	7	Sololá	710	Panajachel	8	Panajachel	7	Julio	2023-07-23T00:00:00	2024-11-08T18:00:00	3	Temperatura mínima	20.8
50312	7	Sololá	710	Panajachel	8	Panajachel	7	Julio	2023-07-23T00:00:00	2024-11-08T18:00:00	5	Humedad	87
50313	7	Sololá	710	Panajachel	8	Panajachel	7	Julio	2023-07-23T00:00:00	2024-11-08T18:00:00	6	Velocidad del viento	1.6
50314	7	Sololá	710	Panajachel	8	Panajachel	7	Julio	2023-07-23T00:00:00	2024-11-08T18:00:00	7	Dirección del viento	1.61
50315	7	Sololá	710	Panajachel	8	Panajachel	7	Julio	2023-07-23T00:00:00	2024-11-08T18:00:00	1	Precipitación	0
50316	7	Sololá	710	Panajachel	8	Panajachel	7	Julio	2023-07-23T00:00:00	2024-11-08T18:00:00	8	Radiación solar	111
50317	7	Sololá	710	Panajachel	8	Panajachel	7	Julio	2023-07-23T00:00:00	2024-11-08T19:00:00	2	Temperatura media	19.4
50318	7	Sololá	710	Panajachel	8	Panajachel	7	Julio	2023-07-23T00:00:00	2024-11-08T19:00:00	4	Temperatura máxima	21
50319	7	Sololá	710	Panajachel	8	Panajachel	7	Julio	2023-07-23T00:00:00	2024-11-08T19:00:00	3	Temperatura mínima	19.4
50320	7	Sololá	710	Panajachel	8	Panajachel	7	Julio	2023-07-23T00:00:00	2024-11-08T19:00:00	5	Humedad	87
50321	7	Sololá	710	Panajachel	8	Panajachel	7	Julio	2023-07-23T00:00:00	2024-11-08T19:00:00	6	Velocidad del viento	1.6
50322	7	Sololá	710	Panajachel	8	Panajachel	7	Julio	2023-07-23T00:00:00	2024-11-08T19:00:00	7	Dirección del viento	1.61
50323	7	Sololá	710	Panajachel	8	Panajachel	7	Julio	2023-07-23T00:00:00	2024-11-08T19:00:00	1	Precipitación	0
50324	7	Sololá	710	Panajachel	8	Panajachel	7	Julio	2023-07-23T00:00:00	2024-11-08T19:00:00	8	Radiación solar	0
50325	7	Sololá	710	Panajachel	8	Panajachel	7	Julio	2023-07-23T00:00:00	2024-11-08T20:00:00	2	Temperatura media	18.7
50326	7	Sololá	710	Panajachel	8	Panajachel	7	Julio	2023-07-23T00:00:00	2024-11-08T20:00:00	4	Temperatura máxima	19.4
50327	7	Sololá	710	Panajachel	8	Panajachel	7	Julio	2023-07-23T00:00:00	2024-11-08T20:00:00	3	Temperatura mínima	18.7
50328	7	Sololá	710	Panajachel	8	Panajachel	7	Julio	2023-07-23T00:00:00	2024-11-08T20:00:00	5	Humedad	86
50329	7	Sololá	710	Panajachel	8	Panajachel	7	Julio	2023-07-23T00:00:00	2024-11-08T20:00:00	6	Velocidad del viento	4.8
50330	7	Sololá	710	Panajachel	8	Panajachel	7	Julio	2023-07-23T00:00:00	2024-11-08T20:00:00	7	Dirección del viento	4.83
50331	7	Sololá	710	Panajachel	8	Panajachel	7	Julio	2023-07-23T00:00:00	2024-11-08T20:00:00	1	Precipitación	0
50332	7	Sololá	710	Panajachel	8	Panajachel	7	Julio	2023-07-23T00:00:00	2024-11-08T20:00:00	8	Radiación solar	0
50333	7	Sololá	710	Panajachel	8	Panajachel	7	Julio	2023-07-23T00:00:00	2024-11-08T21:00:00	2	Temperatura media	18.6
50334	7	Sololá	710	Panajachel	8	Panajachel	7	Julio	2023-07-23T00:00:00	2024-11-08T21:00:00	4	Temperatura máxima	18.7
50335	7	Sololá	710	Panajachel	8	Panajachel	7	Julio	2023-07-23T00:00:00	2024-11-08T21:00:00	3	Temperatura mínima	18.6
50336	7	Sololá	710	Panajachel	8	Panajachel	7	Julio	2023-07-23T00:00:00	2024-11-08T21:00:00	5	Humedad	85
50337	7	Sololá	710	Panajachel	8	Panajachel	7	Julio	2023-07-23T00:00:00	2024-11-08T21:00:00	6	Velocidad del viento	3.2
50338	7	Sololá	710	Panajachel	8	Panajachel	7	Julio	2023-07-23T00:00:00	2024-11-08T21:00:00	7	Dirección del viento	3.22
50339	7	Sololá	710	Panajachel	8	Panajachel	7	Julio	2023-07-23T00:00:00	2024-11-08T21:00:00	1	Precipitación	0
50340	7	Sololá	710	Panajachel	8	Panajachel	7	Julio	2023-07-23T00:00:00	2024-11-08T21:00:00	8	Radiación solar	0
50341	7	Sololá	710	Panajachel	8	Panajachel	7	Julio	2023-07-23T00:00:00	2024-11-08T22:00:00	2	Temperatura media	18.4
50342	7	Sololá	710	Panajachel	8	Panajachel	7	Julio	2023-07-23T00:00:00	2024-11-08T22:00:00	4	Temperatura máxima	18.6
50343	7	Sololá	710	Panajachel	8	Panajachel	7	Julio	2023-07-23T00:00:00	2024-11-08T22:00:00	3	Temperatura mínima	18.4
50344	7	Sololá	710	Panajachel	8	Panajachel	7	Julio	2023-07-23T00:00:00	2024-11-08T22:00:00	5	Humedad	86
50345	7	Sololá	710	Panajachel	8	Panajachel	7	Julio	2023-07-23T00:00:00	2024-11-08T22:00:00	6	Velocidad del viento	1.6
50346	7	Sololá	710	Panajachel	8	Panajachel	7	Julio	2023-07-23T00:00:00	2024-11-08T22:00:00	7	Dirección del viento	1.61
50347	7	Sololá	710	Panajachel	8	Panajachel	7	Julio	2023-07-23T00:00:00	2024-11-08T22:00:00	1	Precipitación	0
50348	7	Sololá	710	Panajachel	8	Panajachel	7	Julio	2023-07-23T00:00:00	2024-11-08T22:00:00	8	Radiación solar	0
50349	7	Sololá	710	Panajachel	8	Panajachel	7	Julio	2023-07-23T00:00:00	2024-11-08T23:00:00	2	Temperatura media	18.2
50350	7	Sololá	710	Panajachel	8	Panajachel	7	Julio	2023-07-23T00:00:00	2024-11-08T23:00:00	4	Temperatura máxima	18.5
50351	7	Sololá	710	Panajachel	8	Panajachel	7	Julio	2023-07-23T00:00:00	2024-11-08T23:00:00	3	Temperatura mínima	18.2
50352	7	Sololá	710	Panajachel	8	Panajachel	7	Julio	2023-07-23T00:00:00	2024-11-08T23:00:00	5	Humedad	87
50353	7	Sololá	710	Panajachel	8	Panajachel	7	Julio	2023-07-23T00:00:00	2024-11-08T23:00:00	6	Velocidad del viento	1.6
50354	7	Sololá	710	Panajachel	8	Panajachel	7	Julio	2023-07-23T00:00:00	2024-11-08T23:00:00	7	Dirección del viento	1.61
50355	7	Sololá	710	Panajachel	8	Panajachel	7	Julio	2023-07-23T00:00:00	2024-11-08T23:00:00	1	Precipitación	0
50356	7	Sololá	710	Panajachel	8	Panajachel	7	Julio	2023-07-23T00:00:00	2024-11-08T23:00:00	8	Radiación solar	0
50357	7	Sololá	710	Panajachel	8	Panajachel	7	Julio	2023-07-24T00:00:00	2024-11-08T00:00:00	2	Temperatura media	18.3
50358	7	Sololá	710	Panajachel	8	Panajachel	7	Julio	2023-07-24T00:00:00	2024-11-08T00:00:00	4	Temperatura máxima	18.6
50359	7	Sololá	710	Panajachel	8	Panajachel	7	Julio	2023-07-24T00:00:00	2024-11-08T00:00:00	3	Temperatura mínima	18.2
50360	7	Sololá	710	Panajachel	8	Panajachel	7	Julio	2023-07-24T00:00:00	2024-11-08T00:00:00	5	Humedad	87
50361	7	Sololá	710	Panajachel	8	Panajachel	7	Julio	2023-07-24T00:00:00	2024-11-08T00:00:00	6	Velocidad del viento	1.6
50362	7	Sololá	710	Panajachel	8	Panajachel	7	Julio	2023-07-24T00:00:00	2024-11-08T00:00:00	7	Dirección del viento	1.61
50363	7	Sololá	710	Panajachel	8	Panajachel	7	Julio	2023-07-24T00:00:00	2024-11-08T00:00:00	1	Precipitación	0
50364	7	Sololá	710	Panajachel	8	Panajachel	7	Julio	2023-07-24T00:00:00	2024-11-08T00:00:00	8	Radiación solar	0
50365	7	Sololá	710	Panajachel	8	Panajachel	7	Julio	2023-07-24T00:00:00	2024-11-08T01:00:00	2	Temperatura media	18.6
50366	7	Sololá	710	Panajachel	8	Panajachel	7	Julio	2023-07-24T00:00:00	2024-11-08T01:00:00	4	Temperatura máxima	18.8
50367	7	Sololá	710	Panajachel	8	Panajachel	7	Julio	2023-07-24T00:00:00	2024-11-08T01:00:00	3	Temperatura mínima	18.3
50368	7	Sololá	710	Panajachel	8	Panajachel	7	Julio	2023-07-24T00:00:00	2024-11-08T01:00:00	5	Humedad	87
50369	7	Sololá	710	Panajachel	8	Panajachel	7	Julio	2023-07-24T00:00:00	2024-11-08T01:00:00	6	Velocidad del viento	1.6
50370	7	Sololá	710	Panajachel	8	Panajachel	7	Julio	2023-07-24T00:00:00	2024-11-08T01:00:00	7	Dirección del viento	1.61
50371	7	Sololá	710	Panajachel	8	Panajachel	7	Julio	2023-07-24T00:00:00	2024-11-08T01:00:00	1	Precipitación	0
50372	7	Sololá	710	Panajachel	8	Panajachel	7	Julio	2023-07-24T00:00:00	2024-11-08T01:00:00	8	Radiación solar	0
50373	7	Sololá	710	Panajachel	8	Panajachel	7	Julio	2023-07-24T00:00:00	2024-11-08T02:00:00	2	Temperatura media	17.7
50374	7	Sololá	710	Panajachel	8	Panajachel	7	Julio	2023-07-24T00:00:00	2024-11-08T02:00:00	4	Temperatura máxima	18.6
50375	7	Sololá	710	Panajachel	8	Panajachel	7	Julio	2023-07-24T00:00:00	2024-11-08T02:00:00	3	Temperatura mínima	17.6
50376	7	Sololá	710	Panajachel	8	Panajachel	7	Julio	2023-07-24T00:00:00	2024-11-08T02:00:00	5	Humedad	92
50377	7	Sololá	710	Panajachel	8	Panajachel	7	Julio	2023-07-24T00:00:00	2024-11-08T02:00:00	6	Velocidad del viento	3.2
50378	7	Sololá	710	Panajachel	8	Panajachel	7	Julio	2023-07-24T00:00:00	2024-11-08T02:00:00	7	Dirección del viento	3.22
50379	7	Sololá	710	Panajachel	8	Panajachel	7	Julio	2023-07-24T00:00:00	2024-11-08T02:00:00	1	Precipitación	0.4
50380	7	Sololá	710	Panajachel	8	Panajachel	7	Julio	2023-07-24T00:00:00	2024-11-08T02:00:00	8	Radiación solar	0
50381	7	Sololá	710	Panajachel	8	Panajachel	7	Julio	2023-07-24T00:00:00	2024-11-08T03:00:00	2	Temperatura media	17.4
50382	7	Sololá	710	Panajachel	8	Panajachel	7	Julio	2023-07-24T00:00:00	2024-11-08T03:00:00	4	Temperatura máxima	17.7
50383	7	Sololá	710	Panajachel	8	Panajachel	7	Julio	2023-07-24T00:00:00	2024-11-08T03:00:00	3	Temperatura mínima	17.3
50384	7	Sololá	710	Panajachel	8	Panajachel	7	Julio	2023-07-24T00:00:00	2024-11-08T03:00:00	5	Humedad	92
50385	7	Sololá	710	Panajachel	8	Panajachel	7	Julio	2023-07-24T00:00:00	2024-11-08T03:00:00	6	Velocidad del viento	3.2
50386	7	Sololá	710	Panajachel	8	Panajachel	7	Julio	2023-07-24T00:00:00	2024-11-08T03:00:00	7	Dirección del viento	3.22
50387	7	Sololá	710	Panajachel	8	Panajachel	7	Julio	2023-07-24T00:00:00	2024-11-08T03:00:00	1	Precipitación	0
50388	7	Sololá	710	Panajachel	8	Panajachel	7	Julio	2023-07-24T00:00:00	2024-11-08T03:00:00	8	Radiación solar	0
50389	7	Sololá	710	Panajachel	8	Panajachel	7	Julio	2023-07-24T00:00:00	2024-11-08T04:00:00	2	Temperatura media	17.6
50390	7	Sololá	710	Panajachel	8	Panajachel	7	Julio	2023-07-24T00:00:00	2024-11-08T04:00:00	4	Temperatura máxima	17.7
50391	7	Sololá	710	Panajachel	8	Panajachel	7	Julio	2023-07-24T00:00:00	2024-11-08T04:00:00	3	Temperatura mínima	17.3
50392	7	Sololá	710	Panajachel	8	Panajachel	7	Julio	2023-07-24T00:00:00	2024-11-08T04:00:00	5	Humedad	89
50393	7	Sololá	710	Panajachel	8	Panajachel	7	Julio	2023-07-24T00:00:00	2024-11-08T04:00:00	6	Velocidad del viento	3.2
50394	7	Sololá	710	Panajachel	8	Panajachel	7	Julio	2023-07-24T00:00:00	2024-11-08T04:00:00	7	Dirección del viento	3.22
50395	7	Sololá	710	Panajachel	8	Panajachel	7	Julio	2023-07-24T00:00:00	2024-11-08T04:00:00	1	Precipitación	0
50396	7	Sololá	710	Panajachel	8	Panajachel	7	Julio	2023-07-24T00:00:00	2024-11-08T04:00:00	8	Radiación solar	0
50397	7	Sololá	710	Panajachel	8	Panajachel	7	Julio	2023-07-24T00:00:00	2024-11-08T05:00:00	2	Temperatura media	17.8
50398	7	Sololá	710	Panajachel	8	Panajachel	7	Julio	2023-07-24T00:00:00	2024-11-08T05:00:00	4	Temperatura máxima	17.8
50399	7	Sololá	710	Panajachel	8	Panajachel	7	Julio	2023-07-24T00:00:00	2024-11-08T05:00:00	3	Temperatura mínima	17.4
50400	7	Sololá	710	Panajachel	8	Panajachel	7	Julio	2023-07-24T00:00:00	2024-11-08T05:00:00	5	Humedad	89
50401	7	Sololá	710	Panajachel	8	Panajachel	7	Julio	2023-07-24T00:00:00	2024-11-08T05:00:00	6	Velocidad del viento	1.6
50402	7	Sololá	710	Panajachel	8	Panajachel	7	Julio	2023-07-24T00:00:00	2024-11-08T05:00:00	7	Dirección del viento	1.61
50403	7	Sololá	710	Panajachel	8	Panajachel	7	Julio	2023-07-24T00:00:00	2024-11-08T05:00:00	1	Precipitación	0
50404	7	Sololá	710	Panajachel	8	Panajachel	7	Julio	2023-07-24T00:00:00	2024-11-08T05:00:00	8	Radiación solar	0
50405	7	Sololá	710	Panajachel	8	Panajachel	7	Julio	2023-07-24T00:00:00	2024-11-08T06:00:00	2	Temperatura media	18.1
50406	7	Sololá	710	Panajachel	8	Panajachel	7	Julio	2023-07-24T00:00:00	2024-11-08T06:00:00	4	Temperatura máxima	18.1
50407	7	Sololá	710	Panajachel	8	Panajachel	7	Julio	2023-07-24T00:00:00	2024-11-08T06:00:00	3	Temperatura mínima	17.8
50408	7	Sololá	710	Panajachel	8	Panajachel	7	Julio	2023-07-24T00:00:00	2024-11-08T06:00:00	5	Humedad	88
50409	7	Sololá	710	Panajachel	8	Panajachel	7	Julio	2023-07-24T00:00:00	2024-11-08T06:00:00	6	Velocidad del viento	1.6
50410	7	Sololá	710	Panajachel	8	Panajachel	7	Julio	2023-07-24T00:00:00	2024-11-08T06:00:00	7	Dirección del viento	1.61
50411	7	Sololá	710	Panajachel	8	Panajachel	7	Julio	2023-07-24T00:00:00	2024-11-08T06:00:00	1	Precipitación	0
50412	7	Sololá	710	Panajachel	8	Panajachel	7	Julio	2023-07-24T00:00:00	2024-11-08T06:00:00	8	Radiación solar	3
50413	7	Sololá	710	Panajachel	8	Panajachel	7	Julio	2023-07-24T00:00:00	2024-11-08T07:00:00	2	Temperatura media	20
50414	7	Sololá	710	Panajachel	8	Panajachel	7	Julio	2023-07-24T00:00:00	2024-11-08T07:00:00	4	Temperatura máxima	20
50415	7	Sololá	710	Panajachel	8	Panajachel	7	Julio	2023-07-24T00:00:00	2024-11-08T07:00:00	3	Temperatura mínima	18.1
50416	7	Sololá	710	Panajachel	8	Panajachel	7	Julio	2023-07-24T00:00:00	2024-11-08T07:00:00	5	Humedad	83
50417	7	Sololá	710	Panajachel	8	Panajachel	7	Julio	2023-07-24T00:00:00	2024-11-08T07:00:00	6	Velocidad del viento	1.6
50418	7	Sololá	710	Panajachel	8	Panajachel	7	Julio	2023-07-24T00:00:00	2024-11-08T07:00:00	7	Dirección del viento	1.61
50419	7	Sololá	710	Panajachel	8	Panajachel	7	Julio	2023-07-24T00:00:00	2024-11-08T07:00:00	1	Precipitación	0
50420	7	Sololá	710	Panajachel	8	Panajachel	7	Julio	2023-07-24T00:00:00	2024-11-08T07:00:00	8	Radiación solar	96
50421	7	Sololá	710	Panajachel	8	Panajachel	7	Julio	2023-07-24T00:00:00	2024-11-08T08:00:00	2	Temperatura media	22.8
50422	7	Sololá	710	Panajachel	8	Panajachel	7	Julio	2023-07-24T00:00:00	2024-11-08T08:00:00	4	Temperatura máxima	22.8
50423	7	Sololá	710	Panajachel	8	Panajachel	7	Julio	2023-07-24T00:00:00	2024-11-08T08:00:00	3	Temperatura mínima	20
50424	7	Sololá	710	Panajachel	8	Panajachel	7	Julio	2023-07-24T00:00:00	2024-11-08T08:00:00	5	Humedad	76
50425	7	Sololá	710	Panajachel	8	Panajachel	7	Julio	2023-07-24T00:00:00	2024-11-08T08:00:00	6	Velocidad del viento	1.6
50426	7	Sololá	710	Panajachel	8	Panajachel	7	Julio	2023-07-24T00:00:00	2024-11-08T08:00:00	7	Dirección del viento	1.61
50427	7	Sololá	710	Panajachel	8	Panajachel	7	Julio	2023-07-24T00:00:00	2024-11-08T08:00:00	1	Precipitación	0
50428	7	Sololá	710	Panajachel	8	Panajachel	7	Julio	2023-07-24T00:00:00	2024-11-08T08:00:00	8	Radiación solar	337
50429	7	Sololá	710	Panajachel	8	Panajachel	7	Julio	2023-07-24T00:00:00	2024-11-08T09:00:00	2	Temperatura media	22.6
50430	7	Sololá	710	Panajachel	8	Panajachel	7	Julio	2023-07-24T00:00:00	2024-11-08T09:00:00	4	Temperatura máxima	23
50431	7	Sololá	710	Panajachel	8	Panajachel	7	Julio	2023-07-24T00:00:00	2024-11-08T09:00:00	3	Temperatura mínima	22.2
50432	7	Sololá	710	Panajachel	8	Panajachel	7	Julio	2023-07-24T00:00:00	2024-11-08T09:00:00	5	Humedad	75
50433	7	Sololá	710	Panajachel	8	Panajachel	7	Julio	2023-07-24T00:00:00	2024-11-08T09:00:00	6	Velocidad del viento	3.2
50434	7	Sololá	710	Panajachel	8	Panajachel	7	Julio	2023-07-24T00:00:00	2024-11-08T09:00:00	7	Dirección del viento	3.22
50435	7	Sololá	710	Panajachel	8	Panajachel	7	Julio	2023-07-24T00:00:00	2024-11-08T09:00:00	1	Precipitación	0
50436	7	Sololá	710	Panajachel	8	Panajachel	7	Julio	2023-07-24T00:00:00	2024-11-08T09:00:00	8	Radiación solar	503
50437	7	Sololá	710	Panajachel	8	Panajachel	7	Julio	2023-07-24T00:00:00	2024-11-08T10:00:00	2	Temperatura media	22.6
50438	7	Sololá	710	Panajachel	8	Panajachel	7	Julio	2023-07-24T00:00:00	2024-11-08T10:00:00	4	Temperatura máxima	23.7
50439	7	Sololá	710	Panajachel	8	Panajachel	7	Julio	2023-07-24T00:00:00	2024-11-08T10:00:00	3	Temperatura mínima	22.4
50440	7	Sololá	710	Panajachel	8	Panajachel	7	Julio	2023-07-24T00:00:00	2024-11-08T10:00:00	5	Humedad	74
50441	7	Sololá	710	Panajachel	8	Panajachel	7	Julio	2023-07-24T00:00:00	2024-11-08T10:00:00	6	Velocidad del viento	3.2
50442	7	Sololá	710	Panajachel	8	Panajachel	7	Julio	2023-07-24T00:00:00	2024-11-08T10:00:00	7	Dirección del viento	3.22
50443	7	Sololá	710	Panajachel	8	Panajachel	7	Julio	2023-07-24T00:00:00	2024-11-08T10:00:00	1	Precipitación	0
50444	7	Sololá	710	Panajachel	8	Panajachel	7	Julio	2023-07-24T00:00:00	2024-11-08T10:00:00	8	Radiación solar	654
50445	7	Sololá	710	Panajachel	8	Panajachel	7	Julio	2023-07-24T00:00:00	2024-11-08T11:00:00	2	Temperatura media	24.6
50446	7	Sololá	710	Panajachel	8	Panajachel	7	Julio	2023-07-24T00:00:00	2024-11-08T11:00:00	4	Temperatura máxima	24.6
50447	7	Sololá	710	Panajachel	8	Panajachel	7	Julio	2023-07-24T00:00:00	2024-11-08T11:00:00	3	Temperatura mínima	22.6
50448	7	Sololá	710	Panajachel	8	Panajachel	7	Julio	2023-07-24T00:00:00	2024-11-08T11:00:00	5	Humedad	70
50449	7	Sololá	710	Panajachel	8	Panajachel	7	Julio	2023-07-24T00:00:00	2024-11-08T11:00:00	6	Velocidad del viento	3.2
50450	7	Sololá	710	Panajachel	8	Panajachel	7	Julio	2023-07-24T00:00:00	2024-11-08T11:00:00	7	Dirección del viento	3.22
50451	7	Sololá	710	Panajachel	8	Panajachel	7	Julio	2023-07-24T00:00:00	2024-11-08T11:00:00	1	Precipitación	0
50452	7	Sololá	710	Panajachel	8	Panajachel	7	Julio	2023-07-24T00:00:00	2024-11-08T11:00:00	8	Radiación solar	721
50453	7	Sololá	710	Panajachel	8	Panajachel	7	Julio	2023-07-24T00:00:00	2024-11-08T12:00:00	2	Temperatura media	24.8
50454	7	Sololá	710	Panajachel	8	Panajachel	7	Julio	2023-07-24T00:00:00	2024-11-08T12:00:00	4	Temperatura máxima	25
50455	7	Sololá	710	Panajachel	8	Panajachel	7	Julio	2023-07-24T00:00:00	2024-11-08T12:00:00	3	Temperatura mínima	23.9
50456	7	Sololá	710	Panajachel	8	Panajachel	7	Julio	2023-07-24T00:00:00	2024-11-08T12:00:00	5	Humedad	69
50457	7	Sololá	710	Panajachel	8	Panajachel	7	Julio	2023-07-24T00:00:00	2024-11-08T12:00:00	6	Velocidad del viento	4.8
50458	7	Sololá	710	Panajachel	8	Panajachel	7	Julio	2023-07-24T00:00:00	2024-11-08T12:00:00	7	Dirección del viento	4.83
50459	7	Sololá	710	Panajachel	8	Panajachel	7	Julio	2023-07-24T00:00:00	2024-11-08T12:00:00	1	Precipitación	0
50460	7	Sololá	710	Panajachel	8	Panajachel	7	Julio	2023-07-24T00:00:00	2024-11-08T12:00:00	8	Radiación solar	879
50461	7	Sololá	710	Panajachel	8	Panajachel	7	Julio	2023-07-24T00:00:00	2024-11-08T13:00:00	2	Temperatura media	25.7
50462	7	Sololá	710	Panajachel	8	Panajachel	7	Julio	2023-07-24T00:00:00	2024-11-08T13:00:00	4	Temperatura máxima	25.9
50463	7	Sololá	710	Panajachel	8	Panajachel	7	Julio	2023-07-24T00:00:00	2024-11-08T13:00:00	3	Temperatura mínima	24.8
50464	7	Sololá	710	Panajachel	8	Panajachel	7	Julio	2023-07-24T00:00:00	2024-11-08T13:00:00	5	Humedad	74
50465	7	Sololá	710	Panajachel	8	Panajachel	7	Julio	2023-07-24T00:00:00	2024-11-08T13:00:00	6	Velocidad del viento	4.8
50466	7	Sololá	710	Panajachel	8	Panajachel	7	Julio	2023-07-24T00:00:00	2024-11-08T13:00:00	7	Dirección del viento	4.83
50467	7	Sololá	710	Panajachel	8	Panajachel	7	Julio	2023-07-24T00:00:00	2024-11-08T13:00:00	1	Precipitación	0
50468	7	Sololá	710	Panajachel	8	Panajachel	7	Julio	2023-07-24T00:00:00	2024-11-08T13:00:00	8	Radiación solar	942
50469	7	Sololá	710	Panajachel	8	Panajachel	7	Julio	2023-07-24T00:00:00	2024-11-08T14:00:00	2	Temperatura media	24.3
50470	7	Sololá	710	Panajachel	8	Panajachel	7	Julio	2023-07-24T00:00:00	2024-11-08T14:00:00	4	Temperatura máxima	25.8
50471	7	Sololá	710	Panajachel	8	Panajachel	7	Julio	2023-07-24T00:00:00	2024-11-08T14:00:00	3	Temperatura mínima	24.1
50472	7	Sololá	710	Panajachel	8	Panajachel	7	Julio	2023-07-24T00:00:00	2024-11-08T14:00:00	5	Humedad	75
50473	7	Sololá	710	Panajachel	8	Panajachel	7	Julio	2023-07-24T00:00:00	2024-11-08T14:00:00	6	Velocidad del viento	4.8
50474	7	Sololá	710	Panajachel	8	Panajachel	7	Julio	2023-07-24T00:00:00	2024-11-08T14:00:00	7	Dirección del viento	4.83
50475	7	Sololá	710	Panajachel	8	Panajachel	7	Julio	2023-07-24T00:00:00	2024-11-08T14:00:00	1	Precipitación	0
50476	7	Sololá	710	Panajachel	8	Panajachel	7	Julio	2023-07-24T00:00:00	2024-11-08T14:00:00	8	Radiación solar	703
50477	7	Sololá	710	Panajachel	8	Panajachel	7	Julio	2023-07-24T00:00:00	2024-11-08T15:00:00	2	Temperatura media	21.6
50478	7	Sololá	710	Panajachel	8	Panajachel	7	Julio	2023-07-24T00:00:00	2024-11-08T15:00:00	4	Temperatura máxima	24.5
50479	7	Sololá	710	Panajachel	8	Panajachel	7	Julio	2023-07-24T00:00:00	2024-11-08T15:00:00	3	Temperatura mínima	21.6
50480	7	Sololá	710	Panajachel	8	Panajachel	7	Julio	2023-07-24T00:00:00	2024-11-08T15:00:00	5	Humedad	85
50481	7	Sololá	710	Panajachel	8	Panajachel	7	Julio	2023-07-24T00:00:00	2024-11-08T15:00:00	6	Velocidad del viento	6.4
50482	7	Sololá	710	Panajachel	8	Panajachel	7	Julio	2023-07-24T00:00:00	2024-11-08T15:00:00	7	Dirección del viento	6.44
50483	7	Sololá	710	Panajachel	8	Panajachel	7	Julio	2023-07-24T00:00:00	2024-11-08T15:00:00	1	Precipitación	0
50484	7	Sololá	710	Panajachel	8	Panajachel	7	Julio	2023-07-24T00:00:00	2024-11-08T15:00:00	8	Radiación solar	206
50485	7	Sololá	710	Panajachel	8	Panajachel	7	Julio	2023-07-24T00:00:00	2024-11-08T16:00:00	2	Temperatura media	19.3
50486	7	Sololá	710	Panajachel	8	Panajachel	7	Julio	2023-07-24T00:00:00	2024-11-08T16:00:00	4	Temperatura máxima	21.6
50487	7	Sololá	710	Panajachel	8	Panajachel	7	Julio	2023-07-24T00:00:00	2024-11-08T16:00:00	3	Temperatura mínima	19.1
50488	7	Sololá	710	Panajachel	8	Panajachel	7	Julio	2023-07-24T00:00:00	2024-11-08T16:00:00	5	Humedad	94
50489	7	Sololá	710	Panajachel	8	Panajachel	7	Julio	2023-07-24T00:00:00	2024-11-08T16:00:00	6	Velocidad del viento	3.2
50490	7	Sololá	710	Panajachel	8	Panajachel	7	Julio	2023-07-24T00:00:00	2024-11-08T16:00:00	7	Dirección del viento	3.22
50491	7	Sololá	710	Panajachel	8	Panajachel	7	Julio	2023-07-24T00:00:00	2024-11-08T16:00:00	1	Precipitación	8.8
50492	7	Sololá	710	Panajachel	8	Panajachel	7	Julio	2023-07-24T00:00:00	2024-11-08T16:00:00	8	Radiación solar	80
50493	7	Sololá	710	Panajachel	8	Panajachel	7	Julio	2023-07-24T00:00:00	2024-11-08T17:00:00	2	Temperatura media	20.1
50494	7	Sololá	710	Panajachel	8	Panajachel	7	Julio	2023-07-24T00:00:00	2024-11-08T17:00:00	4	Temperatura máxima	20.1
50495	7	Sololá	710	Panajachel	8	Panajachel	7	Julio	2023-07-24T00:00:00	2024-11-08T17:00:00	3	Temperatura mínima	19.3
50496	7	Sololá	710	Panajachel	8	Panajachel	7	Julio	2023-07-24T00:00:00	2024-11-08T17:00:00	5	Humedad	88
50497	7	Sololá	710	Panajachel	8	Panajachel	7	Julio	2023-07-24T00:00:00	2024-11-08T17:00:00	6	Velocidad del viento	1.6
50498	7	Sololá	710	Panajachel	8	Panajachel	7	Julio	2023-07-24T00:00:00	2024-11-08T17:00:00	7	Dirección del viento	1.61
50499	7	Sololá	710	Panajachel	8	Panajachel	7	Julio	2023-07-24T00:00:00	2024-11-08T17:00:00	1	Precipitación	0
50500	7	Sololá	710	Panajachel	8	Panajachel	7	Julio	2023-07-24T00:00:00	2024-11-08T17:00:00	8	Radiación solar	181
50501	7	Sololá	710	Panajachel	8	Panajachel	7	Julio	2023-07-24T00:00:00	2024-11-08T18:00:00	2	Temperatura media	18.9
50502	7	Sololá	710	Panajachel	8	Panajachel	7	Julio	2023-07-24T00:00:00	2024-11-08T18:00:00	4	Temperatura máxima	20.2
50503	7	Sololá	710	Panajachel	8	Panajachel	7	Julio	2023-07-24T00:00:00	2024-11-08T18:00:00	3	Temperatura mínima	18.9
50504	7	Sololá	710	Panajachel	8	Panajachel	7	Julio	2023-07-24T00:00:00	2024-11-08T18:00:00	5	Humedad	94
50505	7	Sololá	710	Panajachel	8	Panajachel	7	Julio	2023-07-24T00:00:00	2024-11-08T18:00:00	6	Velocidad del viento	1.6
50506	7	Sololá	710	Panajachel	8	Panajachel	7	Julio	2023-07-24T00:00:00	2024-11-08T18:00:00	7	Dirección del viento	1.61
50507	7	Sololá	710	Panajachel	8	Panajachel	7	Julio	2023-07-24T00:00:00	2024-11-08T18:00:00	1	Precipitación	3
50508	7	Sololá	710	Panajachel	8	Panajachel	7	Julio	2023-07-24T00:00:00	2024-11-08T18:00:00	8	Radiación solar	40
50509	7	Sololá	710	Panajachel	8	Panajachel	7	Julio	2023-07-24T00:00:00	2024-11-08T19:00:00	2	Temperatura media	18.7
50510	7	Sololá	710	Panajachel	8	Panajachel	7	Julio	2023-07-24T00:00:00	2024-11-08T19:00:00	4	Temperatura máxima	19.2
50511	7	Sololá	710	Panajachel	8	Panajachel	7	Julio	2023-07-24T00:00:00	2024-11-08T19:00:00	3	Temperatura mínima	18.6
50512	7	Sololá	710	Panajachel	8	Panajachel	7	Julio	2023-07-24T00:00:00	2024-11-08T19:00:00	5	Humedad	95
50513	7	Sololá	710	Panajachel	8	Panajachel	7	Julio	2023-07-24T00:00:00	2024-11-08T19:00:00	6	Velocidad del viento	1.6
50514	7	Sololá	710	Panajachel	8	Panajachel	7	Julio	2023-07-24T00:00:00	2024-11-08T19:00:00	7	Dirección del viento	1.61
50515	7	Sololá	710	Panajachel	8	Panajachel	7	Julio	2023-07-24T00:00:00	2024-11-08T19:00:00	1	Precipitación	0.2
50516	7	Sololá	710	Panajachel	8	Panajachel	7	Julio	2023-07-24T00:00:00	2024-11-08T19:00:00	8	Radiación solar	0
50517	7	Sololá	710	Panajachel	8	Panajachel	7	Julio	2023-07-24T00:00:00	2024-11-08T20:00:00	2	Temperatura media	18.1
50518	7	Sololá	710	Panajachel	8	Panajachel	7	Julio	2023-07-24T00:00:00	2024-11-08T20:00:00	4	Temperatura máxima	18.7
50519	7	Sololá	710	Panajachel	8	Panajachel	7	Julio	2023-07-24T00:00:00	2024-11-08T20:00:00	3	Temperatura mínima	18.1
50520	7	Sololá	710	Panajachel	8	Panajachel	7	Julio	2023-07-24T00:00:00	2024-11-08T20:00:00	5	Humedad	94
50521	7	Sololá	710	Panajachel	8	Panajachel	7	Julio	2023-07-24T00:00:00	2024-11-08T20:00:00	6	Velocidad del viento	1.6
50522	7	Sololá	710	Panajachel	8	Panajachel	7	Julio	2023-07-24T00:00:00	2024-11-08T20:00:00	7	Dirección del viento	1.61
50523	7	Sololá	710	Panajachel	8	Panajachel	7	Julio	2023-07-24T00:00:00	2024-11-08T20:00:00	1	Precipitación	1
50524	7	Sololá	710	Panajachel	8	Panajachel	7	Julio	2023-07-24T00:00:00	2024-11-08T20:00:00	8	Radiación solar	0
50525	7	Sololá	710	Panajachel	8	Panajachel	7	Julio	2023-07-24T00:00:00	2024-11-08T21:00:00	2	Temperatura media	17.9
50526	7	Sololá	710	Panajachel	8	Panajachel	7	Julio	2023-07-24T00:00:00	2024-11-08T21:00:00	4	Temperatura máxima	18.1
50527	7	Sololá	710	Panajachel	8	Panajachel	7	Julio	2023-07-24T00:00:00	2024-11-08T21:00:00	3	Temperatura mínima	17.9
50528	7	Sololá	710	Panajachel	8	Panajachel	7	Julio	2023-07-24T00:00:00	2024-11-08T21:00:00	5	Humedad	94
50529	7	Sololá	710	Panajachel	8	Panajachel	7	Julio	2023-07-24T00:00:00	2024-11-08T21:00:00	6	Velocidad del viento	1.6
50530	7	Sololá	710	Panajachel	8	Panajachel	7	Julio	2023-07-24T00:00:00	2024-11-08T21:00:00	7	Dirección del viento	1.61
50531	7	Sololá	710	Panajachel	8	Panajachel	7	Julio	2023-07-24T00:00:00	2024-11-08T21:00:00	1	Precipitación	0
50532	7	Sololá	710	Panajachel	8	Panajachel	7	Julio	2023-07-24T00:00:00	2024-11-08T21:00:00	8	Radiación solar	0
50533	7	Sololá	710	Panajachel	8	Panajachel	7	Julio	2023-07-24T00:00:00	2024-11-08T22:00:00	2	Temperatura media	17.7
50534	7	Sololá	710	Panajachel	8	Panajachel	7	Julio	2023-07-24T00:00:00	2024-11-08T22:00:00	4	Temperatura máxima	18
50535	7	Sololá	710	Panajachel	8	Panajachel	7	Julio	2023-07-24T00:00:00	2024-11-08T22:00:00	3	Temperatura mínima	17.6
50536	7	Sololá	710	Panajachel	8	Panajachel	7	Julio	2023-07-24T00:00:00	2024-11-08T22:00:00	5	Humedad	93
50537	7	Sololá	710	Panajachel	8	Panajachel	7	Julio	2023-07-24T00:00:00	2024-11-08T22:00:00	6	Velocidad del viento	1.6
50538	7	Sololá	710	Panajachel	8	Panajachel	7	Julio	2023-07-24T00:00:00	2024-11-08T22:00:00	7	Dirección del viento	1.61
50539	7	Sololá	710	Panajachel	8	Panajachel	7	Julio	2023-07-24T00:00:00	2024-11-08T22:00:00	1	Precipitación	0
50540	7	Sololá	710	Panajachel	8	Panajachel	7	Julio	2023-07-24T00:00:00	2024-11-08T22:00:00	8	Radiación solar	0
50541	7	Sololá	710	Panajachel	8	Panajachel	7	Julio	2023-07-24T00:00:00	2024-11-08T23:00:00	2	Temperatura media	17.8
50542	7	Sololá	710	Panajachel	8	Panajachel	7	Julio	2023-07-24T00:00:00	2024-11-08T23:00:00	4	Temperatura máxima	17.8
50543	7	Sololá	710	Panajachel	8	Panajachel	7	Julio	2023-07-24T00:00:00	2024-11-08T23:00:00	3	Temperatura mínima	17.6
50544	7	Sololá	710	Panajachel	8	Panajachel	7	Julio	2023-07-24T00:00:00	2024-11-08T23:00:00	5	Humedad	91
50545	7	Sololá	710	Panajachel	8	Panajachel	7	Julio	2023-07-24T00:00:00	2024-11-08T23:00:00	6	Velocidad del viento	3.2
50546	7	Sololá	710	Panajachel	8	Panajachel	7	Julio	2023-07-24T00:00:00	2024-11-08T23:00:00	7	Dirección del viento	3.22
50547	7	Sololá	710	Panajachel	8	Panajachel	7	Julio	2023-07-24T00:00:00	2024-11-08T23:00:00	1	Precipitación	0.2
50548	7	Sololá	710	Panajachel	8	Panajachel	7	Julio	2023-07-24T00:00:00	2024-11-08T23:00:00	8	Radiación solar	0
50549	7	Sololá	710	Panajachel	8	Panajachel	7	Julio	2023-07-25T00:00:00	2024-11-08T00:00:00	2	Temperatura media	18.4
50550	7	Sololá	710	Panajachel	8	Panajachel	7	Julio	2023-07-25T00:00:00	2024-11-08T00:00:00	4	Temperatura máxima	18.4
50551	7	Sololá	710	Panajachel	8	Panajachel	7	Julio	2023-07-25T00:00:00	2024-11-08T00:00:00	3	Temperatura mínima	17.7
50552	7	Sololá	710	Panajachel	8	Panajachel	7	Julio	2023-07-25T00:00:00	2024-11-08T00:00:00	5	Humedad	88
50553	7	Sololá	710	Panajachel	8	Panajachel	7	Julio	2023-07-25T00:00:00	2024-11-08T00:00:00	6	Velocidad del viento	3.2
50554	7	Sololá	710	Panajachel	8	Panajachel	7	Julio	2023-07-25T00:00:00	2024-11-08T00:00:00	7	Dirección del viento	3.22
50555	7	Sololá	710	Panajachel	8	Panajachel	7	Julio	2023-07-25T00:00:00	2024-11-08T00:00:00	1	Precipitación	0
50556	7	Sololá	710	Panajachel	8	Panajachel	7	Julio	2023-07-25T00:00:00	2024-11-08T00:00:00	8	Radiación solar	0
50557	7	Sololá	710	Panajachel	8	Panajachel	7	Julio	2023-07-25T00:00:00	2024-11-08T01:00:00	2	Temperatura media	17.7
50558	7	Sololá	710	Panajachel	8	Panajachel	7	Julio	2023-07-25T00:00:00	2024-11-08T01:00:00	4	Temperatura máxima	18.4
50559	7	Sololá	710	Panajachel	8	Panajachel	7	Julio	2023-07-25T00:00:00	2024-11-08T01:00:00	3	Temperatura mínima	17.7
50560	7	Sololá	710	Panajachel	8	Panajachel	7	Julio	2023-07-25T00:00:00	2024-11-08T01:00:00	5	Humedad	90
50561	7	Sololá	710	Panajachel	8	Panajachel	7	Julio	2023-07-25T00:00:00	2024-11-08T01:00:00	6	Velocidad del viento	3.2
50562	7	Sololá	710	Panajachel	8	Panajachel	7	Julio	2023-07-25T00:00:00	2024-11-08T01:00:00	7	Dirección del viento	3.22
50563	7	Sololá	710	Panajachel	8	Panajachel	7	Julio	2023-07-25T00:00:00	2024-11-08T01:00:00	1	Precipitación	0
50564	7	Sololá	710	Panajachel	8	Panajachel	7	Julio	2023-07-25T00:00:00	2024-11-08T01:00:00	8	Radiación solar	0
50565	7	Sololá	710	Panajachel	8	Panajachel	7	Julio	2023-07-25T00:00:00	2024-11-08T02:00:00	2	Temperatura media	17.4
50566	7	Sololá	710	Panajachel	8	Panajachel	7	Julio	2023-07-25T00:00:00	2024-11-08T02:00:00	4	Temperatura máxima	17.7
50567	7	Sololá	710	Panajachel	8	Panajachel	7	Julio	2023-07-25T00:00:00	2024-11-08T02:00:00	3	Temperatura mínima	17.3
50568	7	Sololá	710	Panajachel	8	Panajachel	7	Julio	2023-07-25T00:00:00	2024-11-08T02:00:00	5	Humedad	90
50569	7	Sololá	710	Panajachel	8	Panajachel	7	Julio	2023-07-25T00:00:00	2024-11-08T02:00:00	6	Velocidad del viento	3.2
50570	7	Sololá	710	Panajachel	8	Panajachel	7	Julio	2023-07-25T00:00:00	2024-11-08T02:00:00	7	Dirección del viento	3.22
50571	7	Sololá	710	Panajachel	8	Panajachel	7	Julio	2023-07-25T00:00:00	2024-11-08T02:00:00	1	Precipitación	0
50572	7	Sololá	710	Panajachel	8	Panajachel	7	Julio	2023-07-25T00:00:00	2024-11-08T02:00:00	8	Radiación solar	0
50573	7	Sololá	710	Panajachel	8	Panajachel	7	Julio	2023-07-25T00:00:00	2024-11-08T03:00:00	2	Temperatura media	17.1
50574	7	Sololá	710	Panajachel	8	Panajachel	7	Julio	2023-07-25T00:00:00	2024-11-08T03:00:00	4	Temperatura máxima	17.6
50575	7	Sololá	710	Panajachel	8	Panajachel	7	Julio	2023-07-25T00:00:00	2024-11-08T03:00:00	3	Temperatura mínima	17.1
50576	7	Sololá	710	Panajachel	8	Panajachel	7	Julio	2023-07-25T00:00:00	2024-11-08T03:00:00	5	Humedad	88
50577	7	Sololá	710	Panajachel	8	Panajachel	7	Julio	2023-07-25T00:00:00	2024-11-08T03:00:00	6	Velocidad del viento	3.2
50578	7	Sololá	710	Panajachel	8	Panajachel	7	Julio	2023-07-25T00:00:00	2024-11-08T03:00:00	7	Dirección del viento	3.22
50579	7	Sololá	710	Panajachel	8	Panajachel	7	Julio	2023-07-25T00:00:00	2024-11-08T03:00:00	1	Precipitación	0
50580	7	Sololá	710	Panajachel	8	Panajachel	7	Julio	2023-07-25T00:00:00	2024-11-08T03:00:00	8	Radiación solar	0
50581	7	Sololá	710	Panajachel	8	Panajachel	7	Julio	2023-07-25T00:00:00	2024-11-08T04:00:00	2	Temperatura media	16.7
50582	7	Sololá	710	Panajachel	8	Panajachel	7	Julio	2023-07-25T00:00:00	2024-11-08T04:00:00	4	Temperatura máxima	17.4
50583	7	Sololá	710	Panajachel	8	Panajachel	7	Julio	2023-07-25T00:00:00	2024-11-08T04:00:00	3	Temperatura mínima	16.7
50584	7	Sololá	710	Panajachel	8	Panajachel	7	Julio	2023-07-25T00:00:00	2024-11-08T04:00:00	5	Humedad	89
50585	7	Sololá	710	Panajachel	8	Panajachel	7	Julio	2023-07-25T00:00:00	2024-11-08T04:00:00	6	Velocidad del viento	3.2
50586	7	Sololá	710	Panajachel	8	Panajachel	7	Julio	2023-07-25T00:00:00	2024-11-08T04:00:00	7	Dirección del viento	3.22
50587	7	Sololá	710	Panajachel	8	Panajachel	7	Julio	2023-07-25T00:00:00	2024-11-08T04:00:00	1	Precipitación	0
50588	7	Sololá	710	Panajachel	8	Panajachel	7	Julio	2023-07-25T00:00:00	2024-11-08T04:00:00	8	Radiación solar	0
50589	7	Sololá	710	Panajachel	8	Panajachel	7	Julio	2023-07-25T00:00:00	2024-11-08T05:00:00	2	Temperatura media	17.4
50590	7	Sololá	710	Panajachel	8	Panajachel	7	Julio	2023-07-25T00:00:00	2024-11-08T05:00:00	4	Temperatura máxima	17.4
50591	7	Sololá	710	Panajachel	8	Panajachel	7	Julio	2023-07-25T00:00:00	2024-11-08T05:00:00	3	Temperatura mínima	16.3
50592	7	Sololá	710	Panajachel	8	Panajachel	7	Julio	2023-07-25T00:00:00	2024-11-08T05:00:00	5	Humedad	85
50593	7	Sololá	710	Panajachel	8	Panajachel	7	Julio	2023-07-25T00:00:00	2024-11-08T05:00:00	6	Velocidad del viento	3.2
50594	7	Sololá	710	Panajachel	8	Panajachel	7	Julio	2023-07-25T00:00:00	2024-11-08T05:00:00	7	Dirección del viento	3.22
50595	7	Sololá	710	Panajachel	8	Panajachel	7	Julio	2023-07-25T00:00:00	2024-11-08T05:00:00	1	Precipitación	0
50596	7	Sololá	710	Panajachel	8	Panajachel	7	Julio	2023-07-25T00:00:00	2024-11-08T05:00:00	8	Radiación solar	0
50597	7	Sololá	710	Panajachel	8	Panajachel	7	Julio	2023-07-25T00:00:00	2024-11-08T06:00:00	2	Temperatura media	19.8
50598	7	Sololá	710	Panajachel	8	Panajachel	7	Julio	2023-07-25T00:00:00	2024-11-08T06:00:00	4	Temperatura máxima	19.8
50599	7	Sololá	710	Panajachel	8	Panajachel	7	Julio	2023-07-25T00:00:00	2024-11-08T06:00:00	3	Temperatura mínima	17.4
50600	7	Sololá	710	Panajachel	8	Panajachel	7	Julio	2023-07-25T00:00:00	2024-11-08T06:00:00	5	Humedad	75
50601	7	Sololá	710	Panajachel	8	Panajachel	7	Julio	2023-07-25T00:00:00	2024-11-08T06:00:00	6	Velocidad del viento	6.4
50602	7	Sololá	710	Panajachel	8	Panajachel	7	Julio	2023-07-25T00:00:00	2024-11-08T06:00:00	7	Dirección del viento	6.44
50603	7	Sololá	710	Panajachel	8	Panajachel	7	Julio	2023-07-25T00:00:00	2024-11-08T06:00:00	1	Precipitación	0
50604	7	Sololá	710	Panajachel	8	Panajachel	7	Julio	2023-07-25T00:00:00	2024-11-08T06:00:00	8	Radiación solar	1
50605	7	Sololá	710	Panajachel	8	Panajachel	7	Julio	2023-07-25T00:00:00	2024-11-08T07:00:00	2	Temperatura media	20.7
50606	7	Sololá	710	Panajachel	8	Panajachel	7	Julio	2023-07-25T00:00:00	2024-11-08T07:00:00	4	Temperatura máxima	20.9
50607	7	Sololá	710	Panajachel	8	Panajachel	7	Julio	2023-07-25T00:00:00	2024-11-08T07:00:00	3	Temperatura mínima	19.8
50608	7	Sololá	710	Panajachel	8	Panajachel	7	Julio	2023-07-25T00:00:00	2024-11-08T07:00:00	5	Humedad	69
50609	7	Sololá	710	Panajachel	8	Panajachel	7	Julio	2023-07-25T00:00:00	2024-11-08T07:00:00	6	Velocidad del viento	4.8
50610	7	Sololá	710	Panajachel	8	Panajachel	7	Julio	2023-07-25T00:00:00	2024-11-08T07:00:00	7	Dirección del viento	4.83
50611	7	Sololá	710	Panajachel	8	Panajachel	7	Julio	2023-07-25T00:00:00	2024-11-08T07:00:00	1	Precipitación	0
50612	7	Sololá	710	Panajachel	8	Panajachel	7	Julio	2023-07-25T00:00:00	2024-11-08T07:00:00	8	Radiación solar	77
50613	7	Sololá	710	Panajachel	8	Panajachel	7	Julio	2023-07-25T00:00:00	2024-11-08T08:00:00	2	Temperatura media	22.9
50614	7	Sololá	710	Panajachel	8	Panajachel	7	Julio	2023-07-25T00:00:00	2024-11-08T08:00:00	4	Temperatura máxima	23.1
50615	7	Sololá	710	Panajachel	8	Panajachel	7	Julio	2023-07-25T00:00:00	2024-11-08T08:00:00	3	Temperatura mínima	20.7
50616	7	Sololá	710	Panajachel	8	Panajachel	7	Julio	2023-07-25T00:00:00	2024-11-08T08:00:00	5	Humedad	63
50617	7	Sololá	710	Panajachel	8	Panajachel	7	Julio	2023-07-25T00:00:00	2024-11-08T08:00:00	6	Velocidad del viento	3.2
50618	7	Sololá	710	Panajachel	8	Panajachel	7	Julio	2023-07-25T00:00:00	2024-11-08T08:00:00	7	Dirección del viento	3.22
50619	7	Sololá	710	Panajachel	8	Panajachel	7	Julio	2023-07-25T00:00:00	2024-11-08T08:00:00	1	Precipitación	0
50620	7	Sololá	710	Panajachel	8	Panajachel	7	Julio	2023-07-25T00:00:00	2024-11-08T08:00:00	8	Radiación solar	277
50621	7	Sololá	710	Panajachel	8	Panajachel	7	Julio	2023-07-25T00:00:00	2024-11-08T09:00:00	2	Temperatura media	24.8
50622	7	Sololá	710	Panajachel	8	Panajachel	7	Julio	2023-07-25T00:00:00	2024-11-08T09:00:00	4	Temperatura máxima	24.8
50623	7	Sololá	710	Panajachel	8	Panajachel	7	Julio	2023-07-25T00:00:00	2024-11-08T09:00:00	3	Temperatura mínima	22.9
50624	7	Sololá	710	Panajachel	8	Panajachel	7	Julio	2023-07-25T00:00:00	2024-11-08T09:00:00	5	Humedad	60
50625	7	Sololá	710	Panajachel	8	Panajachel	7	Julio	2023-07-25T00:00:00	2024-11-08T09:00:00	6	Velocidad del viento	4.8
50626	7	Sololá	710	Panajachel	8	Panajachel	7	Julio	2023-07-25T00:00:00	2024-11-08T09:00:00	7	Dirección del viento	4.83
50627	7	Sololá	710	Panajachel	8	Panajachel	7	Julio	2023-07-25T00:00:00	2024-11-08T09:00:00	1	Precipitación	0
50628	7	Sololá	710	Panajachel	8	Panajachel	7	Julio	2023-07-25T00:00:00	2024-11-08T09:00:00	8	Radiación solar	487
50629	7	Sololá	710	Panajachel	8	Panajachel	7	Julio	2023-07-25T00:00:00	2024-11-08T10:00:00	2	Temperatura media	25.2
50630	7	Sololá	710	Panajachel	8	Panajachel	7	Julio	2023-07-25T00:00:00	2024-11-08T10:00:00	4	Temperatura máxima	25.3
50631	7	Sololá	710	Panajachel	8	Panajachel	7	Julio	2023-07-25T00:00:00	2024-11-08T10:00:00	3	Temperatura mínima	24.7
50632	7	Sololá	710	Panajachel	8	Panajachel	7	Julio	2023-07-25T00:00:00	2024-11-08T10:00:00	5	Humedad	54
50633	7	Sololá	710	Panajachel	8	Panajachel	7	Julio	2023-07-25T00:00:00	2024-11-08T10:00:00	6	Velocidad del viento	8
50634	7	Sololá	710	Panajachel	8	Panajachel	7	Julio	2023-07-25T00:00:00	2024-11-08T10:00:00	7	Dirección del viento	8.05
50635	7	Sololá	710	Panajachel	8	Panajachel	7	Julio	2023-07-25T00:00:00	2024-11-08T10:00:00	1	Precipitación	0
50636	7	Sololá	710	Panajachel	8	Panajachel	7	Julio	2023-07-25T00:00:00	2024-11-08T10:00:00	8	Radiación solar	703
50637	7	Sololá	710	Panajachel	8	Panajachel	7	Julio	2023-07-25T00:00:00	2024-11-08T11:00:00	2	Temperatura media	26.7
50638	7	Sololá	710	Panajachel	8	Panajachel	7	Julio	2023-07-25T00:00:00	2024-11-08T11:00:00	4	Temperatura máxima	26.7
50639	7	Sololá	710	Panajachel	8	Panajachel	7	Julio	2023-07-25T00:00:00	2024-11-08T11:00:00	3	Temperatura mínima	25.3
50640	7	Sololá	710	Panajachel	8	Panajachel	7	Julio	2023-07-25T00:00:00	2024-11-08T11:00:00	5	Humedad	52
50641	7	Sololá	710	Panajachel	8	Panajachel	7	Julio	2023-07-25T00:00:00	2024-11-08T11:00:00	6	Velocidad del viento	6.4
50642	7	Sololá	710	Panajachel	8	Panajachel	7	Julio	2023-07-25T00:00:00	2024-11-08T11:00:00	7	Dirección del viento	6.44
50643	7	Sololá	710	Panajachel	8	Panajachel	7	Julio	2023-07-25T00:00:00	2024-11-08T11:00:00	1	Precipitación	0
50644	7	Sololá	710	Panajachel	8	Panajachel	7	Julio	2023-07-25T00:00:00	2024-11-08T11:00:00	8	Radiación solar	873
50645	7	Sololá	710	Panajachel	8	Panajachel	7	Julio	2023-07-25T00:00:00	2024-11-08T12:00:00	2	Temperatura media	27.3
50646	7	Sololá	710	Panajachel	8	Panajachel	7	Julio	2023-07-25T00:00:00	2024-11-08T12:00:00	4	Temperatura máxima	27.5
50647	7	Sololá	710	Panajachel	8	Panajachel	7	Julio	2023-07-25T00:00:00	2024-11-08T12:00:00	3	Temperatura mínima	26.7
50648	7	Sololá	710	Panajachel	8	Panajachel	7	Julio	2023-07-25T00:00:00	2024-11-08T12:00:00	5	Humedad	50
50649	7	Sololá	710	Panajachel	8	Panajachel	7	Julio	2023-07-25T00:00:00	2024-11-08T12:00:00	6	Velocidad del viento	3.2
50650	7	Sololá	710	Panajachel	8	Panajachel	7	Julio	2023-07-25T00:00:00	2024-11-08T12:00:00	7	Dirección del viento	3.22
50651	7	Sololá	710	Panajachel	8	Panajachel	7	Julio	2023-07-25T00:00:00	2024-11-08T12:00:00	1	Precipitación	0
50652	7	Sololá	710	Panajachel	8	Panajachel	7	Julio	2023-07-25T00:00:00	2024-11-08T12:00:00	8	Radiación solar	904
50653	7	Sololá	710	Panajachel	8	Panajachel	7	Julio	2023-07-25T00:00:00	2024-11-08T13:00:00	2	Temperatura media	27.7
50654	7	Sololá	710	Panajachel	8	Panajachel	7	Julio	2023-07-25T00:00:00	2024-11-08T13:00:00	4	Temperatura máxima	28.1
50655	7	Sololá	710	Panajachel	8	Panajachel	7	Julio	2023-07-25T00:00:00	2024-11-08T13:00:00	3	Temperatura mínima	27.2
50656	7	Sololá	710	Panajachel	8	Panajachel	7	Julio	2023-07-25T00:00:00	2024-11-08T13:00:00	5	Humedad	50
50657	7	Sololá	710	Panajachel	8	Panajachel	7	Julio	2023-07-25T00:00:00	2024-11-08T13:00:00	6	Velocidad del viento	3.2
50658	7	Sololá	710	Panajachel	8	Panajachel	7	Julio	2023-07-25T00:00:00	2024-11-08T13:00:00	7	Dirección del viento	3.22
50659	7	Sololá	710	Panajachel	8	Panajachel	7	Julio	2023-07-25T00:00:00	2024-11-08T13:00:00	1	Precipitación	0
50660	7	Sololá	710	Panajachel	8	Panajachel	7	Julio	2023-07-25T00:00:00	2024-11-08T13:00:00	8	Radiación solar	926
50661	7	Sololá	710	Panajachel	8	Panajachel	7	Julio	2023-07-25T00:00:00	2024-11-08T14:00:00	2	Temperatura media	28.3
50662	7	Sololá	710	Panajachel	8	Panajachel	7	Julio	2023-07-25T00:00:00	2024-11-08T14:00:00	4	Temperatura máxima	28.4
50663	7	Sololá	710	Panajachel	8	Panajachel	7	Julio	2023-07-25T00:00:00	2024-11-08T14:00:00	3	Temperatura mínima	27.3
50664	7	Sololá	710	Panajachel	8	Panajachel	7	Julio	2023-07-25T00:00:00	2024-11-08T14:00:00	5	Humedad	44
50665	7	Sololá	710	Panajachel	8	Panajachel	7	Julio	2023-07-25T00:00:00	2024-11-08T14:00:00	6	Velocidad del viento	6.4
50666	7	Sololá	710	Panajachel	8	Panajachel	7	Julio	2023-07-25T00:00:00	2024-11-08T14:00:00	7	Dirección del viento	6.44
50667	7	Sololá	710	Panajachel	8	Panajachel	7	Julio	2023-07-25T00:00:00	2024-11-08T14:00:00	1	Precipitación	0
50668	7	Sololá	710	Panajachel	8	Panajachel	7	Julio	2023-07-25T00:00:00	2024-11-08T14:00:00	8	Radiación solar	900
50669	7	Sololá	710	Panajachel	8	Panajachel	7	Julio	2023-07-25T00:00:00	2024-11-08T15:00:00	2	Temperatura media	28.3
50670	7	Sololá	710	Panajachel	8	Panajachel	7	Julio	2023-07-25T00:00:00	2024-11-08T15:00:00	4	Temperatura máxima	28.6
50671	7	Sololá	710	Panajachel	8	Panajachel	7	Julio	2023-07-25T00:00:00	2024-11-08T15:00:00	3	Temperatura mínima	28.1
50672	7	Sololá	710	Panajachel	8	Panajachel	7	Julio	2023-07-25T00:00:00	2024-11-08T15:00:00	5	Humedad	47
50673	7	Sololá	710	Panajachel	8	Panajachel	7	Julio	2023-07-25T00:00:00	2024-11-08T15:00:00	6	Velocidad del viento	6.4
50674	7	Sololá	710	Panajachel	8	Panajachel	7	Julio	2023-07-25T00:00:00	2024-11-08T15:00:00	7	Dirección del viento	6.44
50675	7	Sololá	710	Panajachel	8	Panajachel	7	Julio	2023-07-25T00:00:00	2024-11-08T15:00:00	1	Precipitación	0
50676	7	Sololá	710	Panajachel	8	Panajachel	7	Julio	2023-07-25T00:00:00	2024-11-08T15:00:00	8	Radiación solar	831
50677	7	Sololá	710	Panajachel	8	Panajachel	7	Julio	2023-07-25T00:00:00	2024-11-08T16:00:00	2	Temperatura media	27.1
50678	7	Sololá	710	Panajachel	8	Panajachel	7	Julio	2023-07-25T00:00:00	2024-11-08T16:00:00	4	Temperatura máxima	28.3
50679	7	Sololá	710	Panajachel	8	Panajachel	7	Julio	2023-07-25T00:00:00	2024-11-08T16:00:00	3	Temperatura mínima	27
50680	7	Sololá	710	Panajachel	8	Panajachel	7	Julio	2023-07-25T00:00:00	2024-11-08T16:00:00	5	Humedad	53
50681	7	Sololá	710	Panajachel	8	Panajachel	7	Julio	2023-07-25T00:00:00	2024-11-08T16:00:00	6	Velocidad del viento	8
50682	7	Sololá	710	Panajachel	8	Panajachel	7	Julio	2023-07-25T00:00:00	2024-11-08T16:00:00	7	Dirección del viento	8.05
50683	7	Sololá	710	Panajachel	8	Panajachel	7	Julio	2023-07-25T00:00:00	2024-11-08T16:00:00	1	Precipitación	0
50684	7	Sololá	710	Panajachel	8	Panajachel	7	Julio	2023-07-25T00:00:00	2024-11-08T16:00:00	8	Radiación solar	408
50685	7	Sololá	710	Panajachel	8	Panajachel	7	Julio	2023-07-25T00:00:00	2024-11-08T17:00:00	2	Temperatura media	25.8
50686	7	Sololá	710	Panajachel	8	Panajachel	7	Julio	2023-07-25T00:00:00	2024-11-08T17:00:00	4	Temperatura máxima	27.1
50687	7	Sololá	710	Panajachel	8	Panajachel	7	Julio	2023-07-25T00:00:00	2024-11-08T17:00:00	3	Temperatura mínima	25.8
50688	7	Sololá	710	Panajachel	8	Panajachel	7	Julio	2023-07-25T00:00:00	2024-11-08T17:00:00	5	Humedad	50
50689	7	Sololá	710	Panajachel	8	Panajachel	7	Julio	2023-07-25T00:00:00	2024-11-08T17:00:00	6	Velocidad del viento	9.7
50690	7	Sololá	710	Panajachel	8	Panajachel	7	Julio	2023-07-25T00:00:00	2024-11-08T17:00:00	7	Dirección del viento	9.66
50691	7	Sololá	710	Panajachel	8	Panajachel	7	Julio	2023-07-25T00:00:00	2024-11-08T17:00:00	1	Precipitación	0
50692	7	Sololá	710	Panajachel	8	Panajachel	7	Julio	2023-07-25T00:00:00	2024-11-08T17:00:00	8	Radiación solar	115
50693	7	Sololá	710	Panajachel	8	Panajachel	7	Julio	2023-07-25T00:00:00	2024-11-08T18:00:00	2	Temperatura media	24.3
50694	7	Sololá	710	Panajachel	8	Panajachel	7	Julio	2023-07-25T00:00:00	2024-11-08T18:00:00	4	Temperatura máxima	25.8
50695	7	Sololá	710	Panajachel	8	Panajachel	7	Julio	2023-07-25T00:00:00	2024-11-08T18:00:00	3	Temperatura mínima	24.3
50696	7	Sololá	710	Panajachel	8	Panajachel	7	Julio	2023-07-25T00:00:00	2024-11-08T18:00:00	5	Humedad	52
50697	7	Sololá	710	Panajachel	8	Panajachel	7	Julio	2023-07-25T00:00:00	2024-11-08T18:00:00	6	Velocidad del viento	9.7
50698	7	Sololá	710	Panajachel	8	Panajachel	7	Julio	2023-07-25T00:00:00	2024-11-08T18:00:00	7	Dirección del viento	9.66
50699	7	Sololá	710	Panajachel	8	Panajachel	7	Julio	2023-07-25T00:00:00	2024-11-08T18:00:00	1	Precipitación	0
50700	7	Sololá	710	Panajachel	8	Panajachel	7	Julio	2023-07-25T00:00:00	2024-11-08T18:00:00	8	Radiación solar	49
50701	7	Sololá	710	Panajachel	8	Panajachel	7	Julio	2023-07-25T00:00:00	2024-11-08T19:00:00	2	Temperatura media	22.3
50702	7	Sololá	710	Panajachel	8	Panajachel	7	Julio	2023-07-25T00:00:00	2024-11-08T19:00:00	4	Temperatura máxima	24.2
50703	7	Sololá	710	Panajachel	8	Panajachel	7	Julio	2023-07-25T00:00:00	2024-11-08T19:00:00	3	Temperatura mínima	22.3
50704	7	Sololá	710	Panajachel	8	Panajachel	7	Julio	2023-07-25T00:00:00	2024-11-08T19:00:00	5	Humedad	62
50705	7	Sololá	710	Panajachel	8	Panajachel	7	Julio	2023-07-25T00:00:00	2024-11-08T19:00:00	6	Velocidad del viento	3.2
50706	7	Sololá	710	Panajachel	8	Panajachel	7	Julio	2023-07-25T00:00:00	2024-11-08T19:00:00	7	Dirección del viento	3.22
50707	7	Sololá	710	Panajachel	8	Panajachel	7	Julio	2023-07-25T00:00:00	2024-11-08T19:00:00	1	Precipitación	0
50708	7	Sololá	710	Panajachel	8	Panajachel	7	Julio	2023-07-25T00:00:00	2024-11-08T19:00:00	8	Radiación solar	0
50709	7	Sololá	710	Panajachel	8	Panajachel	7	Julio	2023-07-25T00:00:00	2024-11-08T20:00:00	2	Temperatura media	20.8
50710	7	Sololá	710	Panajachel	8	Panajachel	7	Julio	2023-07-25T00:00:00	2024-11-08T20:00:00	4	Temperatura máxima	22.3
50711	7	Sololá	710	Panajachel	8	Panajachel	7	Julio	2023-07-25T00:00:00	2024-11-08T20:00:00	3	Temperatura mínima	20.7
50712	7	Sololá	710	Panajachel	8	Panajachel	7	Julio	2023-07-25T00:00:00	2024-11-08T20:00:00	5	Humedad	71
50713	7	Sololá	710	Panajachel	8	Panajachel	7	Julio	2023-07-25T00:00:00	2024-11-08T20:00:00	6	Velocidad del viento	1.6
50714	7	Sololá	710	Panajachel	8	Panajachel	7	Julio	2023-07-25T00:00:00	2024-11-08T20:00:00	7	Dirección del viento	1.61
50715	7	Sololá	710	Panajachel	8	Panajachel	7	Julio	2023-07-25T00:00:00	2024-11-08T20:00:00	1	Precipitación	0
50716	7	Sololá	710	Panajachel	8	Panajachel	7	Julio	2023-07-25T00:00:00	2024-11-08T20:00:00	8	Radiación solar	0
50717	7	Sololá	710	Panajachel	8	Panajachel	7	Julio	2023-07-25T00:00:00	2024-11-08T21:00:00	2	Temperatura media	21.8
50718	7	Sololá	710	Panajachel	8	Panajachel	7	Julio	2023-07-25T00:00:00	2024-11-08T21:00:00	4	Temperatura máxima	21.8
50719	7	Sololá	710	Panajachel	8	Panajachel	7	Julio	2023-07-25T00:00:00	2024-11-08T21:00:00	3	Temperatura mínima	20.7
50720	7	Sololá	710	Panajachel	8	Panajachel	7	Julio	2023-07-25T00:00:00	2024-11-08T21:00:00	5	Humedad	66
50721	7	Sololá	710	Panajachel	8	Panajachel	7	Julio	2023-07-25T00:00:00	2024-11-08T21:00:00	6	Velocidad del viento	3.2
50722	7	Sololá	710	Panajachel	8	Panajachel	7	Julio	2023-07-25T00:00:00	2024-11-08T21:00:00	7	Dirección del viento	3.22
50723	7	Sololá	710	Panajachel	8	Panajachel	7	Julio	2023-07-25T00:00:00	2024-11-08T21:00:00	1	Precipitación	0
50724	7	Sololá	710	Panajachel	8	Panajachel	7	Julio	2023-07-25T00:00:00	2024-11-08T21:00:00	8	Radiación solar	0
50725	7	Sololá	710	Panajachel	8	Panajachel	7	Julio	2023-07-25T00:00:00	2024-11-08T22:00:00	2	Temperatura media	20.2
50726	7	Sololá	710	Panajachel	8	Panajachel	7	Julio	2023-07-25T00:00:00	2024-11-08T22:00:00	4	Temperatura máxima	21.8
50727	7	Sololá	710	Panajachel	8	Panajachel	7	Julio	2023-07-25T00:00:00	2024-11-08T22:00:00	3	Temperatura mínima	20.2
50728	7	Sololá	710	Panajachel	8	Panajachel	7	Julio	2023-07-25T00:00:00	2024-11-08T22:00:00	5	Humedad	70
50729	7	Sololá	710	Panajachel	8	Panajachel	7	Julio	2023-07-25T00:00:00	2024-11-08T22:00:00	6	Velocidad del viento	1.6
50730	7	Sololá	710	Panajachel	8	Panajachel	7	Julio	2023-07-25T00:00:00	2024-11-08T22:00:00	7	Dirección del viento	1.61
50731	7	Sololá	710	Panajachel	8	Panajachel	7	Julio	2023-07-25T00:00:00	2024-11-08T22:00:00	1	Precipitación	0
50732	7	Sololá	710	Panajachel	8	Panajachel	7	Julio	2023-07-25T00:00:00	2024-11-08T22:00:00	8	Radiación solar	0
50733	7	Sololá	710	Panajachel	8	Panajachel	7	Julio	2023-07-25T00:00:00	2024-11-08T23:00:00	2	Temperatura media	20.4
50734	7	Sololá	710	Panajachel	8	Panajachel	7	Julio	2023-07-25T00:00:00	2024-11-08T23:00:00	4	Temperatura máxima	20.8
50735	7	Sololá	710	Panajachel	8	Panajachel	7	Julio	2023-07-25T00:00:00	2024-11-08T23:00:00	3	Temperatura mínima	20.2
50736	7	Sololá	710	Panajachel	8	Panajachel	7	Julio	2023-07-25T00:00:00	2024-11-08T23:00:00	5	Humedad	63
50737	7	Sololá	710	Panajachel	8	Panajachel	7	Julio	2023-07-25T00:00:00	2024-11-08T23:00:00	6	Velocidad del viento	6.4
50738	7	Sololá	710	Panajachel	8	Panajachel	7	Julio	2023-07-25T00:00:00	2024-11-08T23:00:00	7	Dirección del viento	6.44
50739	7	Sololá	710	Panajachel	8	Panajachel	7	Julio	2023-07-25T00:00:00	2024-11-08T23:00:00	1	Precipitación	0
50740	7	Sololá	710	Panajachel	8	Panajachel	7	Julio	2023-07-25T00:00:00	2024-11-08T23:00:00	8	Radiación solar	0
50741	7	Sololá	710	Panajachel	8	Panajachel	7	Julio	2023-07-26T00:00:00	2024-11-08T00:00:00	2	Temperatura media	19.8
50742	7	Sololá	710	Panajachel	8	Panajachel	7	Julio	2023-07-26T00:00:00	2024-11-08T00:00:00	4	Temperatura máxima	20.4
50743	7	Sololá	710	Panajachel	8	Panajachel	7	Julio	2023-07-26T00:00:00	2024-11-08T00:00:00	3	Temperatura mínima	19.8
50744	7	Sololá	710	Panajachel	8	Panajachel	7	Julio	2023-07-26T00:00:00	2024-11-08T00:00:00	5	Humedad	55
50745	7	Sololá	710	Panajachel	8	Panajachel	7	Julio	2023-07-26T00:00:00	2024-11-08T00:00:00	6	Velocidad del viento	8
50746	7	Sololá	710	Panajachel	8	Panajachel	7	Julio	2023-07-26T00:00:00	2024-11-08T00:00:00	7	Dirección del viento	8.05
50747	7	Sololá	710	Panajachel	8	Panajachel	7	Julio	2023-07-26T00:00:00	2024-11-08T00:00:00	1	Precipitación	0
50748	7	Sololá	710	Panajachel	8	Panajachel	7	Julio	2023-07-26T00:00:00	2024-11-08T00:00:00	8	Radiación solar	0
50749	7	Sololá	710	Panajachel	8	Panajachel	7	Julio	2023-07-26T00:00:00	2024-11-08T01:00:00	2	Temperatura media	19.1
50750	7	Sololá	710	Panajachel	8	Panajachel	7	Julio	2023-07-26T00:00:00	2024-11-08T01:00:00	4	Temperatura máxima	19.9
50751	7	Sololá	710	Panajachel	8	Panajachel	7	Julio	2023-07-26T00:00:00	2024-11-08T01:00:00	3	Temperatura mínima	19.1
50752	7	Sololá	710	Panajachel	8	Panajachel	7	Julio	2023-07-26T00:00:00	2024-11-08T01:00:00	5	Humedad	57
50753	7	Sololá	710	Panajachel	8	Panajachel	7	Julio	2023-07-26T00:00:00	2024-11-08T01:00:00	6	Velocidad del viento	6.4
50754	7	Sololá	710	Panajachel	8	Panajachel	7	Julio	2023-07-26T00:00:00	2024-11-08T01:00:00	7	Dirección del viento	6.44
50755	7	Sololá	710	Panajachel	8	Panajachel	7	Julio	2023-07-26T00:00:00	2024-11-08T01:00:00	1	Precipitación	0
50756	7	Sololá	710	Panajachel	8	Panajachel	7	Julio	2023-07-26T00:00:00	2024-11-08T01:00:00	8	Radiación solar	0
50757	7	Sololá	710	Panajachel	8	Panajachel	7	Julio	2023-07-26T00:00:00	2024-11-08T02:00:00	2	Temperatura media	18.2
50758	7	Sololá	710	Panajachel	8	Panajachel	7	Julio	2023-07-26T00:00:00	2024-11-08T02:00:00	4	Temperatura máxima	19.1
50759	7	Sololá	710	Panajachel	8	Panajachel	7	Julio	2023-07-26T00:00:00	2024-11-08T02:00:00	3	Temperatura mínima	17.3
50760	7	Sololá	710	Panajachel	8	Panajachel	7	Julio	2023-07-26T00:00:00	2024-11-08T02:00:00	5	Humedad	59
50761	7	Sololá	710	Panajachel	8	Panajachel	7	Julio	2023-07-26T00:00:00	2024-11-08T02:00:00	6	Velocidad del viento	4.8
50762	7	Sololá	710	Panajachel	8	Panajachel	7	Julio	2023-07-26T00:00:00	2024-11-08T02:00:00	7	Dirección del viento	4.83
50763	7	Sololá	710	Panajachel	8	Panajachel	7	Julio	2023-07-26T00:00:00	2024-11-08T02:00:00	1	Precipitación	0
50764	7	Sololá	710	Panajachel	8	Panajachel	7	Julio	2023-07-26T00:00:00	2024-11-08T02:00:00	8	Radiación solar	0
50765	7	Sololá	710	Panajachel	8	Panajachel	7	Julio	2023-07-26T00:00:00	2024-11-08T03:00:00	2	Temperatura media	19.6
50766	7	Sololá	710	Panajachel	8	Panajachel	7	Julio	2023-07-26T00:00:00	2024-11-08T03:00:00	4	Temperatura máxima	19.7
50767	7	Sololá	710	Panajachel	8	Panajachel	7	Julio	2023-07-26T00:00:00	2024-11-08T03:00:00	3	Temperatura mínima	18.2
50768	7	Sololá	710	Panajachel	8	Panajachel	7	Julio	2023-07-26T00:00:00	2024-11-08T03:00:00	5	Humedad	55
50769	7	Sololá	710	Panajachel	8	Panajachel	7	Julio	2023-07-26T00:00:00	2024-11-08T03:00:00	6	Velocidad del viento	11.3
50770	7	Sololá	710	Panajachel	8	Panajachel	7	Julio	2023-07-26T00:00:00	2024-11-08T03:00:00	7	Dirección del viento	11.27
50771	7	Sololá	710	Panajachel	8	Panajachel	7	Julio	2023-07-26T00:00:00	2024-11-08T03:00:00	1	Precipitación	0
50772	7	Sololá	710	Panajachel	8	Panajachel	7	Julio	2023-07-26T00:00:00	2024-11-08T03:00:00	8	Radiación solar	0
50773	7	Sololá	710	Panajachel	8	Panajachel	7	Julio	2023-07-26T00:00:00	2024-11-08T04:00:00	2	Temperatura media	19.2
50774	7	Sololá	710	Panajachel	8	Panajachel	7	Julio	2023-07-26T00:00:00	2024-11-08T04:00:00	4	Temperatura máxima	19.6
50775	7	Sololá	710	Panajachel	8	Panajachel	7	Julio	2023-07-26T00:00:00	2024-11-08T04:00:00	3	Temperatura mínima	19.1
50776	7	Sololá	710	Panajachel	8	Panajachel	7	Julio	2023-07-26T00:00:00	2024-11-08T04:00:00	5	Humedad	58
50777	7	Sololá	710	Panajachel	8	Panajachel	7	Julio	2023-07-26T00:00:00	2024-11-08T04:00:00	6	Velocidad del viento	6.4
50778	7	Sololá	710	Panajachel	8	Panajachel	7	Julio	2023-07-26T00:00:00	2024-11-08T04:00:00	7	Dirección del viento	6.44
50779	7	Sololá	710	Panajachel	8	Panajachel	7	Julio	2023-07-26T00:00:00	2024-11-08T04:00:00	1	Precipitación	0
50780	7	Sololá	710	Panajachel	8	Panajachel	7	Julio	2023-07-26T00:00:00	2024-11-08T04:00:00	8	Radiación solar	0
50781	7	Sololá	710	Panajachel	8	Panajachel	7	Julio	2023-07-26T00:00:00	2024-11-08T05:00:00	2	Temperatura media	17.4
50782	7	Sololá	710	Panajachel	8	Panajachel	7	Julio	2023-07-26T00:00:00	2024-11-08T05:00:00	4	Temperatura máxima	19.2
50783	7	Sololá	710	Panajachel	8	Panajachel	7	Julio	2023-07-26T00:00:00	2024-11-08T05:00:00	3	Temperatura mínima	17.4
50784	7	Sololá	710	Panajachel	8	Panajachel	7	Julio	2023-07-26T00:00:00	2024-11-08T05:00:00	5	Humedad	68
50785	7	Sololá	710	Panajachel	8	Panajachel	7	Julio	2023-07-26T00:00:00	2024-11-08T05:00:00	6	Velocidad del viento	3.2
50786	7	Sololá	710	Panajachel	8	Panajachel	7	Julio	2023-07-26T00:00:00	2024-11-08T05:00:00	7	Dirección del viento	3.22
50787	7	Sololá	710	Panajachel	8	Panajachel	7	Julio	2023-07-26T00:00:00	2024-11-08T05:00:00	1	Precipitación	0
50788	7	Sololá	710	Panajachel	8	Panajachel	7	Julio	2023-07-26T00:00:00	2024-11-08T05:00:00	8	Radiación solar	0
50789	7	Sololá	710	Panajachel	8	Panajachel	7	Julio	2023-07-26T00:00:00	2024-11-08T06:00:00	2	Temperatura media	19.8
50790	7	Sololá	710	Panajachel	8	Panajachel	7	Julio	2023-07-26T00:00:00	2024-11-08T06:00:00	4	Temperatura máxima	19.8
50791	7	Sololá	710	Panajachel	8	Panajachel	7	Julio	2023-07-26T00:00:00	2024-11-08T06:00:00	3	Temperatura mínima	17.2
50792	7	Sololá	710	Panajachel	8	Panajachel	7	Julio	2023-07-26T00:00:00	2024-11-08T06:00:00	5	Humedad	54
50793	7	Sololá	710	Panajachel	8	Panajachel	7	Julio	2023-07-26T00:00:00	2024-11-08T06:00:00	6	Velocidad del viento	4.8
50794	7	Sololá	710	Panajachel	8	Panajachel	7	Julio	2023-07-26T00:00:00	2024-11-08T06:00:00	7	Dirección del viento	4.83
50795	7	Sololá	710	Panajachel	8	Panajachel	7	Julio	2023-07-26T00:00:00	2024-11-08T06:00:00	1	Precipitación	0
50796	7	Sololá	710	Panajachel	8	Panajachel	7	Julio	2023-07-26T00:00:00	2024-11-08T06:00:00	8	Radiación solar	1
50797	7	Sololá	710	Panajachel	8	Panajachel	7	Julio	2023-07-26T00:00:00	2024-11-08T07:00:00	2	Temperatura media	20.8
50798	7	Sololá	710	Panajachel	8	Panajachel	7	Julio	2023-07-26T00:00:00	2024-11-08T07:00:00	4	Temperatura máxima	20.8
50799	7	Sololá	710	Panajachel	8	Panajachel	7	Julio	2023-07-26T00:00:00	2024-11-08T07:00:00	3	Temperatura mínima	19.6
50800	7	Sololá	710	Panajachel	8	Panajachel	7	Julio	2023-07-26T00:00:00	2024-11-08T07:00:00	5	Humedad	48
50801	7	Sololá	710	Panajachel	8	Panajachel	7	Julio	2023-07-26T00:00:00	2024-11-08T07:00:00	6	Velocidad del viento	8
50802	7	Sololá	710	Panajachel	8	Panajachel	7	Julio	2023-07-26T00:00:00	2024-11-08T07:00:00	7	Dirección del viento	8.05
50803	7	Sololá	710	Panajachel	8	Panajachel	7	Julio	2023-07-26T00:00:00	2024-11-08T07:00:00	1	Precipitación	0
50804	7	Sololá	710	Panajachel	8	Panajachel	7	Julio	2023-07-26T00:00:00	2024-11-08T07:00:00	8	Radiación solar	80
50805	7	Sololá	710	Panajachel	8	Panajachel	7	Julio	2023-07-26T00:00:00	2024-11-08T08:00:00	2	Temperatura media	22.6
50806	7	Sololá	710	Panajachel	8	Panajachel	7	Julio	2023-07-26T00:00:00	2024-11-08T08:00:00	4	Temperatura máxima	22.6
50807	7	Sololá	710	Panajachel	8	Panajachel	7	Julio	2023-07-26T00:00:00	2024-11-08T08:00:00	3	Temperatura mínima	20.8
50808	7	Sololá	710	Panajachel	8	Panajachel	7	Julio	2023-07-26T00:00:00	2024-11-08T08:00:00	5	Humedad	49
50809	7	Sololá	710	Panajachel	8	Panajachel	7	Julio	2023-07-26T00:00:00	2024-11-08T08:00:00	6	Velocidad del viento	8
50810	7	Sololá	710	Panajachel	8	Panajachel	7	Julio	2023-07-26T00:00:00	2024-11-08T08:00:00	7	Dirección del viento	8.05
50811	7	Sololá	710	Panajachel	8	Panajachel	7	Julio	2023-07-26T00:00:00	2024-11-08T08:00:00	1	Precipitación	0
50812	7	Sololá	710	Panajachel	8	Panajachel	7	Julio	2023-07-26T00:00:00	2024-11-08T08:00:00	8	Radiación solar	316
50813	7	Sololá	710	Panajachel	8	Panajachel	7	Julio	2023-07-26T00:00:00	2024-11-08T09:00:00	2	Temperatura media	23.4
50814	7	Sololá	710	Panajachel	8	Panajachel	7	Julio	2023-07-26T00:00:00	2024-11-08T09:00:00	4	Temperatura máxima	23.6
50815	7	Sololá	710	Panajachel	8	Panajachel	7	Julio	2023-07-26T00:00:00	2024-11-08T09:00:00	3	Temperatura mínima	22.6
50816	7	Sololá	710	Panajachel	8	Panajachel	7	Julio	2023-07-26T00:00:00	2024-11-08T09:00:00	5	Humedad	49
50817	7	Sololá	710	Panajachel	8	Panajachel	7	Julio	2023-07-26T00:00:00	2024-11-08T09:00:00	6	Velocidad del viento	9.7
50818	7	Sololá	710	Panajachel	8	Panajachel	7	Julio	2023-07-26T00:00:00	2024-11-08T09:00:00	7	Dirección del viento	9.66
50819	7	Sololá	710	Panajachel	8	Panajachel	7	Julio	2023-07-26T00:00:00	2024-11-08T09:00:00	1	Precipitación	0
50820	7	Sololá	710	Panajachel	8	Panajachel	7	Julio	2023-07-26T00:00:00	2024-11-08T09:00:00	8	Radiación solar	538
50821	7	Sololá	710	Panajachel	8	Panajachel	7	Julio	2023-07-26T00:00:00	2024-11-08T10:00:00	2	Temperatura media	24.8
50822	7	Sololá	710	Panajachel	8	Panajachel	7	Julio	2023-07-26T00:00:00	2024-11-08T10:00:00	4	Temperatura máxima	25.1
50823	7	Sololá	710	Panajachel	8	Panajachel	7	Julio	2023-07-26T00:00:00	2024-11-08T10:00:00	3	Temperatura mínima	23.4
50824	7	Sololá	710	Panajachel	8	Panajachel	7	Julio	2023-07-26T00:00:00	2024-11-08T10:00:00	5	Humedad	48
50825	7	Sololá	710	Panajachel	8	Panajachel	7	Julio	2023-07-26T00:00:00	2024-11-08T10:00:00	6	Velocidad del viento	9.7
50826	7	Sololá	710	Panajachel	8	Panajachel	7	Julio	2023-07-26T00:00:00	2024-11-08T10:00:00	7	Dirección del viento	9.66
50827	7	Sololá	710	Panajachel	8	Panajachel	7	Julio	2023-07-26T00:00:00	2024-11-08T10:00:00	1	Precipitación	0
50828	7	Sololá	710	Panajachel	8	Panajachel	7	Julio	2023-07-26T00:00:00	2024-11-08T10:00:00	8	Radiación solar	726
50829	7	Sololá	710	Panajachel	8	Panajachel	7	Julio	2023-07-26T00:00:00	2024-11-08T11:00:00	2	Temperatura media	26.2
50830	7	Sololá	710	Panajachel	8	Panajachel	7	Julio	2023-07-26T00:00:00	2024-11-08T11:00:00	4	Temperatura máxima	26.3
50831	7	Sololá	710	Panajachel	8	Panajachel	7	Julio	2023-07-26T00:00:00	2024-11-08T11:00:00	3	Temperatura mínima	24.8
50832	7	Sololá	710	Panajachel	8	Panajachel	7	Julio	2023-07-26T00:00:00	2024-11-08T11:00:00	5	Humedad	46
50833	7	Sololá	710	Panajachel	8	Panajachel	7	Julio	2023-07-26T00:00:00	2024-11-08T11:00:00	6	Velocidad del viento	9.7
50834	7	Sololá	710	Panajachel	8	Panajachel	7	Julio	2023-07-26T00:00:00	2024-11-08T11:00:00	7	Dirección del viento	9.66
50835	7	Sololá	710	Panajachel	8	Panajachel	7	Julio	2023-07-26T00:00:00	2024-11-08T11:00:00	1	Precipitación	0
50836	7	Sololá	710	Panajachel	8	Panajachel	7	Julio	2023-07-26T00:00:00	2024-11-08T11:00:00	8	Radiación solar	862
50837	7	Sololá	710	Panajachel	8	Panajachel	7	Julio	2023-07-26T00:00:00	2024-11-08T12:00:00	2	Temperatura media	26.9
50838	7	Sololá	710	Panajachel	8	Panajachel	7	Julio	2023-07-26T00:00:00	2024-11-08T12:00:00	4	Temperatura máxima	27
50839	7	Sololá	710	Panajachel	8	Panajachel	7	Julio	2023-07-26T00:00:00	2024-11-08T12:00:00	3	Temperatura mínima	26.2
50840	7	Sololá	710	Panajachel	8	Panajachel	7	Julio	2023-07-26T00:00:00	2024-11-08T12:00:00	5	Humedad	45
50841	7	Sololá	710	Panajachel	8	Panajachel	7	Julio	2023-07-26T00:00:00	2024-11-08T12:00:00	6	Velocidad del viento	8
50842	7	Sololá	710	Panajachel	8	Panajachel	7	Julio	2023-07-26T00:00:00	2024-11-08T12:00:00	7	Dirección del viento	8.05
50843	7	Sololá	710	Panajachel	8	Panajachel	7	Julio	2023-07-26T00:00:00	2024-11-08T12:00:00	1	Precipitación	0
50844	7	Sololá	710	Panajachel	8	Panajachel	7	Julio	2023-07-26T00:00:00	2024-11-08T12:00:00	8	Radiación solar	939
50845	7	Sololá	710	Panajachel	8	Panajachel	7	Julio	2023-07-26T00:00:00	2024-11-08T13:00:00	2	Temperatura media	26.9
50846	7	Sololá	710	Panajachel	8	Panajachel	7	Julio	2023-07-26T00:00:00	2024-11-08T13:00:00	4	Temperatura máxima	27.2
50847	7	Sololá	710	Panajachel	8	Panajachel	7	Julio	2023-07-26T00:00:00	2024-11-08T13:00:00	3	Temperatura mínima	26.6
50848	7	Sololá	710	Panajachel	8	Panajachel	7	Julio	2023-07-26T00:00:00	2024-11-08T13:00:00	5	Humedad	47
50849	7	Sololá	710	Panajachel	8	Panajachel	7	Julio	2023-07-26T00:00:00	2024-11-08T13:00:00	6	Velocidad del viento	8
50850	7	Sololá	710	Panajachel	8	Panajachel	7	Julio	2023-07-26T00:00:00	2024-11-08T13:00:00	7	Dirección del viento	8.05
50851	7	Sololá	710	Panajachel	8	Panajachel	7	Julio	2023-07-26T00:00:00	2024-11-08T13:00:00	1	Precipitación	0
50852	7	Sololá	710	Panajachel	8	Panajachel	7	Julio	2023-07-26T00:00:00	2024-11-08T13:00:00	8	Radiación solar	948
50853	7	Sololá	710	Panajachel	8	Panajachel	7	Julio	2023-07-26T00:00:00	2024-11-08T14:00:00	2	Temperatura media	27.4
50854	7	Sololá	710	Panajachel	8	Panajachel	7	Julio	2023-07-26T00:00:00	2024-11-08T14:00:00	4	Temperatura máxima	27.5
50855	7	Sololá	710	Panajachel	8	Panajachel	7	Julio	2023-07-26T00:00:00	2024-11-08T14:00:00	3	Temperatura mínima	26.9
50856	7	Sololá	710	Panajachel	8	Panajachel	7	Julio	2023-07-26T00:00:00	2024-11-08T14:00:00	5	Humedad	49
50857	7	Sololá	710	Panajachel	8	Panajachel	7	Julio	2023-07-26T00:00:00	2024-11-08T14:00:00	6	Velocidad del viento	9.7
50858	7	Sololá	710	Panajachel	8	Panajachel	7	Julio	2023-07-26T00:00:00	2024-11-08T14:00:00	7	Dirección del viento	9.66
50859	7	Sololá	710	Panajachel	8	Panajachel	7	Julio	2023-07-26T00:00:00	2024-11-08T14:00:00	1	Precipitación	0
50860	7	Sololá	710	Panajachel	8	Panajachel	7	Julio	2023-07-26T00:00:00	2024-11-08T14:00:00	8	Radiación solar	910
50861	7	Sololá	710	Panajachel	8	Panajachel	7	Julio	2023-07-26T00:00:00	2024-11-08T15:00:00	2	Temperatura media	26.6
50862	7	Sololá	710	Panajachel	8	Panajachel	7	Julio	2023-07-26T00:00:00	2024-11-08T15:00:00	4	Temperatura máxima	27.4
50863	7	Sololá	710	Panajachel	8	Panajachel	7	Julio	2023-07-26T00:00:00	2024-11-08T15:00:00	3	Temperatura mínima	26.6
50864	7	Sololá	710	Panajachel	8	Panajachel	7	Julio	2023-07-26T00:00:00	2024-11-08T15:00:00	5	Humedad	52
50865	7	Sololá	710	Panajachel	8	Panajachel	7	Julio	2023-07-26T00:00:00	2024-11-08T15:00:00	6	Velocidad del viento	9.7
50866	7	Sololá	710	Panajachel	8	Panajachel	7	Julio	2023-07-26T00:00:00	2024-11-08T15:00:00	7	Dirección del viento	9.66
50867	7	Sololá	710	Panajachel	8	Panajachel	7	Julio	2023-07-26T00:00:00	2024-11-08T15:00:00	1	Precipitación	0
50868	7	Sololá	710	Panajachel	8	Panajachel	7	Julio	2023-07-26T00:00:00	2024-11-08T15:00:00	8	Radiación solar	768
50869	7	Sololá	710	Panajachel	8	Panajachel	7	Julio	2023-07-26T00:00:00	2024-11-08T16:00:00	2	Temperatura media	25.5
50870	7	Sololá	710	Panajachel	8	Panajachel	7	Julio	2023-07-26T00:00:00	2024-11-08T16:00:00	4	Temperatura máxima	26.8
50871	7	Sololá	710	Panajachel	8	Panajachel	7	Julio	2023-07-26T00:00:00	2024-11-08T16:00:00	3	Temperatura mínima	25.5
50872	7	Sololá	710	Panajachel	8	Panajachel	7	Julio	2023-07-26T00:00:00	2024-11-08T16:00:00	5	Humedad	54
50873	7	Sololá	710	Panajachel	8	Panajachel	7	Julio	2023-07-26T00:00:00	2024-11-08T16:00:00	6	Velocidad del viento	11.3
50874	7	Sololá	710	Panajachel	8	Panajachel	7	Julio	2023-07-26T00:00:00	2024-11-08T16:00:00	7	Dirección del viento	11.27
50875	7	Sololá	710	Panajachel	8	Panajachel	7	Julio	2023-07-26T00:00:00	2024-11-08T16:00:00	1	Precipitación	0
50876	7	Sololá	710	Panajachel	8	Panajachel	7	Julio	2023-07-26T00:00:00	2024-11-08T16:00:00	8	Radiación solar	408
50877	7	Sololá	710	Panajachel	8	Panajachel	7	Julio	2023-07-26T00:00:00	2024-11-08T17:00:00	2	Temperatura media	25
50878	7	Sololá	710	Panajachel	8	Panajachel	7	Julio	2023-07-26T00:00:00	2024-11-08T17:00:00	4	Temperatura máxima	25.6
50879	7	Sololá	710	Panajachel	8	Panajachel	7	Julio	2023-07-26T00:00:00	2024-11-08T17:00:00	3	Temperatura mínima	24.9
50880	7	Sololá	710	Panajachel	8	Panajachel	7	Julio	2023-07-26T00:00:00	2024-11-08T17:00:00	5	Humedad	54
50881	7	Sololá	710	Panajachel	8	Panajachel	7	Julio	2023-07-26T00:00:00	2024-11-08T17:00:00	6	Velocidad del viento	9.7
50882	7	Sololá	710	Panajachel	8	Panajachel	7	Julio	2023-07-26T00:00:00	2024-11-08T17:00:00	7	Dirección del viento	9.66
50883	7	Sololá	710	Panajachel	8	Panajachel	7	Julio	2023-07-26T00:00:00	2024-11-08T17:00:00	1	Precipitación	0
50884	7	Sololá	710	Panajachel	8	Panajachel	7	Julio	2023-07-26T00:00:00	2024-11-08T17:00:00	8	Radiación solar	67
50885	7	Sololá	710	Panajachel	8	Panajachel	7	Julio	2023-07-26T00:00:00	2024-11-08T18:00:00	2	Temperatura media	23.6
50886	7	Sololá	710	Panajachel	8	Panajachel	7	Julio	2023-07-26T00:00:00	2024-11-08T18:00:00	4	Temperatura máxima	25
50887	7	Sololá	710	Panajachel	8	Panajachel	7	Julio	2023-07-26T00:00:00	2024-11-08T18:00:00	3	Temperatura mínima	23.6
50888	7	Sololá	710	Panajachel	8	Panajachel	7	Julio	2023-07-26T00:00:00	2024-11-08T18:00:00	5	Humedad	59
50889	7	Sololá	710	Panajachel	8	Panajachel	7	Julio	2023-07-26T00:00:00	2024-11-08T18:00:00	6	Velocidad del viento	11.3
50890	7	Sololá	710	Panajachel	8	Panajachel	7	Julio	2023-07-26T00:00:00	2024-11-08T18:00:00	7	Dirección del viento	11.27
50891	7	Sololá	710	Panajachel	8	Panajachel	7	Julio	2023-07-26T00:00:00	2024-11-08T18:00:00	1	Precipitación	0
50892	7	Sololá	710	Panajachel	8	Panajachel	7	Julio	2023-07-26T00:00:00	2024-11-08T18:00:00	8	Radiación solar	47
50893	7	Sololá	710	Panajachel	8	Panajachel	7	Julio	2023-07-26T00:00:00	2024-11-08T19:00:00	2	Temperatura media	22.4
50894	7	Sololá	710	Panajachel	8	Panajachel	7	Julio	2023-07-26T00:00:00	2024-11-08T19:00:00	4	Temperatura máxima	23.6
50895	7	Sololá	710	Panajachel	8	Panajachel	7	Julio	2023-07-26T00:00:00	2024-11-08T19:00:00	3	Temperatura mínima	22.4
50896	7	Sololá	710	Panajachel	8	Panajachel	7	Julio	2023-07-26T00:00:00	2024-11-08T19:00:00	5	Humedad	63
50897	7	Sololá	710	Panajachel	8	Panajachel	7	Julio	2023-07-26T00:00:00	2024-11-08T19:00:00	6	Velocidad del viento	11.3
50898	7	Sololá	710	Panajachel	8	Panajachel	7	Julio	2023-07-26T00:00:00	2024-11-08T19:00:00	7	Dirección del viento	11.27
50899	7	Sololá	710	Panajachel	8	Panajachel	7	Julio	2023-07-26T00:00:00	2024-11-08T19:00:00	1	Precipitación	0
50900	7	Sololá	710	Panajachel	8	Panajachel	7	Julio	2023-07-26T00:00:00	2024-11-08T19:00:00	8	Radiación solar	0
50901	7	Sololá	710	Panajachel	8	Panajachel	7	Julio	2023-07-26T00:00:00	2024-11-08T20:00:00	2	Temperatura media	21.8
50902	7	Sololá	710	Panajachel	8	Panajachel	7	Julio	2023-07-26T00:00:00	2024-11-08T20:00:00	4	Temperatura máxima	22.4
50903	7	Sololá	710	Panajachel	8	Panajachel	7	Julio	2023-07-26T00:00:00	2024-11-08T20:00:00	3	Temperatura mínima	21.7
50904	7	Sololá	710	Panajachel	8	Panajachel	7	Julio	2023-07-26T00:00:00	2024-11-08T20:00:00	5	Humedad	65
50905	7	Sololá	710	Panajachel	8	Panajachel	7	Julio	2023-07-26T00:00:00	2024-11-08T20:00:00	6	Velocidad del viento	6.4
50906	7	Sololá	710	Panajachel	8	Panajachel	7	Julio	2023-07-26T00:00:00	2024-11-08T20:00:00	7	Dirección del viento	6.44
50907	7	Sololá	710	Panajachel	8	Panajachel	7	Julio	2023-07-26T00:00:00	2024-11-08T20:00:00	1	Precipitación	0
50908	7	Sololá	710	Panajachel	8	Panajachel	7	Julio	2023-07-26T00:00:00	2024-11-08T20:00:00	8	Radiación solar	0
50909	7	Sololá	710	Panajachel	8	Panajachel	7	Julio	2023-07-26T00:00:00	2024-11-08T21:00:00	2	Temperatura media	20.9
50910	7	Sololá	710	Panajachel	8	Panajachel	7	Julio	2023-07-26T00:00:00	2024-11-08T21:00:00	4	Temperatura máxima	21.8
50911	7	Sololá	710	Panajachel	8	Panajachel	7	Julio	2023-07-26T00:00:00	2024-11-08T21:00:00	3	Temperatura mínima	20.9
50912	7	Sololá	710	Panajachel	8	Panajachel	7	Julio	2023-07-26T00:00:00	2024-11-08T21:00:00	5	Humedad	68
50913	7	Sololá	710	Panajachel	8	Panajachel	7	Julio	2023-07-26T00:00:00	2024-11-08T21:00:00	6	Velocidad del viento	3.2
50914	7	Sololá	710	Panajachel	8	Panajachel	7	Julio	2023-07-26T00:00:00	2024-11-08T21:00:00	7	Dirección del viento	3.22
50915	7	Sololá	710	Panajachel	8	Panajachel	7	Julio	2023-07-26T00:00:00	2024-11-08T21:00:00	1	Precipitación	0
50916	7	Sololá	710	Panajachel	8	Panajachel	7	Julio	2023-07-26T00:00:00	2024-11-08T21:00:00	8	Radiación solar	0
50917	7	Sololá	710	Panajachel	8	Panajachel	7	Julio	2023-07-26T00:00:00	2024-11-08T22:00:00	2	Temperatura media	20.6
50918	7	Sololá	710	Panajachel	8	Panajachel	7	Julio	2023-07-26T00:00:00	2024-11-08T22:00:00	4	Temperatura máxima	20.9
50919	7	Sololá	710	Panajachel	8	Panajachel	7	Julio	2023-07-26T00:00:00	2024-11-08T22:00:00	3	Temperatura mínima	20.6
50920	7	Sololá	710	Panajachel	8	Panajachel	7	Julio	2023-07-26T00:00:00	2024-11-08T22:00:00	5	Humedad	71
50921	7	Sololá	710	Panajachel	8	Panajachel	7	Julio	2023-07-26T00:00:00	2024-11-08T22:00:00	6	Velocidad del viento	1.6
50922	7	Sololá	710	Panajachel	8	Panajachel	7	Julio	2023-07-26T00:00:00	2024-11-08T22:00:00	7	Dirección del viento	1.61
50923	7	Sololá	710	Panajachel	8	Panajachel	7	Julio	2023-07-26T00:00:00	2024-11-08T22:00:00	1	Precipitación	0
50924	7	Sololá	710	Panajachel	8	Panajachel	7	Julio	2023-07-26T00:00:00	2024-11-08T22:00:00	8	Radiación solar	0
50925	7	Sololá	710	Panajachel	8	Panajachel	7	Julio	2023-07-26T00:00:00	2024-11-08T23:00:00	2	Temperatura media	19.1
50926	7	Sololá	710	Panajachel	8	Panajachel	7	Julio	2023-07-26T00:00:00	2024-11-08T23:00:00	4	Temperatura máxima	20.6
50927	7	Sololá	710	Panajachel	8	Panajachel	7	Julio	2023-07-26T00:00:00	2024-11-08T23:00:00	3	Temperatura mínima	19.1
50928	7	Sololá	710	Panajachel	8	Panajachel	7	Julio	2023-07-26T00:00:00	2024-11-08T23:00:00	5	Humedad	76
50929	7	Sololá	710	Panajachel	8	Panajachel	7	Julio	2023-07-26T00:00:00	2024-11-08T23:00:00	6	Velocidad del viento	1.6
50930	7	Sololá	710	Panajachel	8	Panajachel	7	Julio	2023-07-26T00:00:00	2024-11-08T23:00:00	7	Dirección del viento	1.61
50931	7	Sololá	710	Panajachel	8	Panajachel	7	Julio	2023-07-26T00:00:00	2024-11-08T23:00:00	1	Precipitación	0
50932	7	Sololá	710	Panajachel	8	Panajachel	7	Julio	2023-07-26T00:00:00	2024-11-08T23:00:00	8	Radiación solar	0
50933	7	Sololá	710	Panajachel	8	Panajachel	7	Julio	2023-07-27T00:00:00	2024-11-08T00:00:00	2	Temperatura media	19
50934	7	Sololá	710	Panajachel	8	Panajachel	7	Julio	2023-07-27T00:00:00	2024-11-08T00:00:00	4	Temperatura máxima	19.2
50935	7	Sololá	710	Panajachel	8	Panajachel	7	Julio	2023-07-27T00:00:00	2024-11-08T00:00:00	3	Temperatura mínima	18.4
50936	7	Sololá	710	Panajachel	8	Panajachel	7	Julio	2023-07-27T00:00:00	2024-11-08T00:00:00	5	Humedad	76
50937	7	Sololá	710	Panajachel	8	Panajachel	7	Julio	2023-07-27T00:00:00	2024-11-08T00:00:00	6	Velocidad del viento	1.6
50938	7	Sololá	710	Panajachel	8	Panajachel	7	Julio	2023-07-27T00:00:00	2024-11-08T00:00:00	7	Dirección del viento	1.61
50939	7	Sololá	710	Panajachel	8	Panajachel	7	Julio	2023-07-27T00:00:00	2024-11-08T00:00:00	1	Precipitación	0
50940	7	Sololá	710	Panajachel	8	Panajachel	7	Julio	2023-07-27T00:00:00	2024-11-08T00:00:00	8	Radiación solar	0
50941	7	Sololá	710	Panajachel	8	Panajachel	7	Julio	2023-07-27T00:00:00	2024-11-08T01:00:00	2	Temperatura media	20.3
50942	7	Sololá	710	Panajachel	8	Panajachel	7	Julio	2023-07-27T00:00:00	2024-11-08T01:00:00	4	Temperatura máxima	20.3
50943	7	Sololá	710	Panajachel	8	Panajachel	7	Julio	2023-07-27T00:00:00	2024-11-08T01:00:00	3	Temperatura mínima	18.8
50944	7	Sololá	710	Panajachel	8	Panajachel	7	Julio	2023-07-27T00:00:00	2024-11-08T01:00:00	5	Humedad	70
50945	7	Sololá	710	Panajachel	8	Panajachel	7	Julio	2023-07-27T00:00:00	2024-11-08T01:00:00	6	Velocidad del viento	3.2
50946	7	Sololá	710	Panajachel	8	Panajachel	7	Julio	2023-07-27T00:00:00	2024-11-08T01:00:00	7	Dirección del viento	3.22
50947	7	Sololá	710	Panajachel	8	Panajachel	7	Julio	2023-07-27T00:00:00	2024-11-08T01:00:00	1	Precipitación	0
50948	7	Sololá	710	Panajachel	8	Panajachel	7	Julio	2023-07-27T00:00:00	2024-11-08T01:00:00	8	Radiación solar	0
50949	7	Sololá	710	Panajachel	8	Panajachel	7	Julio	2023-07-27T00:00:00	2024-11-08T02:00:00	2	Temperatura media	20.5
50950	7	Sololá	710	Panajachel	8	Panajachel	7	Julio	2023-07-27T00:00:00	2024-11-08T02:00:00	4	Temperatura máxima	20.8
50951	7	Sololá	710	Panajachel	8	Panajachel	7	Julio	2023-07-27T00:00:00	2024-11-08T02:00:00	3	Temperatura mínima	20.3
50952	7	Sololá	710	Panajachel	8	Panajachel	7	Julio	2023-07-27T00:00:00	2024-11-08T02:00:00	5	Humedad	68
50953	7	Sololá	710	Panajachel	8	Panajachel	7	Julio	2023-07-27T00:00:00	2024-11-08T02:00:00	6	Velocidad del viento	6.4
50954	7	Sololá	710	Panajachel	8	Panajachel	7	Julio	2023-07-27T00:00:00	2024-11-08T02:00:00	7	Dirección del viento	6.44
50955	7	Sololá	710	Panajachel	8	Panajachel	7	Julio	2023-07-27T00:00:00	2024-11-08T02:00:00	1	Precipitación	0
50956	7	Sololá	710	Panajachel	8	Panajachel	7	Julio	2023-07-27T00:00:00	2024-11-08T02:00:00	8	Radiación solar	0
50957	7	Sololá	710	Panajachel	8	Panajachel	7	Julio	2023-07-27T00:00:00	2024-11-08T03:00:00	2	Temperatura media	19.6
50958	7	Sololá	710	Panajachel	8	Panajachel	7	Julio	2023-07-27T00:00:00	2024-11-08T03:00:00	4	Temperatura máxima	20.6
50959	7	Sololá	710	Panajachel	8	Panajachel	7	Julio	2023-07-27T00:00:00	2024-11-08T03:00:00	3	Temperatura mínima	19.2
50960	7	Sololá	710	Panajachel	8	Panajachel	7	Julio	2023-07-27T00:00:00	2024-11-08T03:00:00	5	Humedad	70
50961	7	Sololá	710	Panajachel	8	Panajachel	7	Julio	2023-07-27T00:00:00	2024-11-08T03:00:00	6	Velocidad del viento	1.6
50962	7	Sololá	710	Panajachel	8	Panajachel	7	Julio	2023-07-27T00:00:00	2024-11-08T03:00:00	7	Dirección del viento	1.61
50963	7	Sololá	710	Panajachel	8	Panajachel	7	Julio	2023-07-27T00:00:00	2024-11-08T03:00:00	1	Precipitación	0
50964	7	Sololá	710	Panajachel	8	Panajachel	7	Julio	2023-07-27T00:00:00	2024-11-08T03:00:00	8	Radiación solar	0
50965	7	Sololá	710	Panajachel	8	Panajachel	7	Julio	2023-07-27T00:00:00	2024-11-08T04:00:00	2	Temperatura media	19.8
50966	7	Sololá	710	Panajachel	8	Panajachel	7	Julio	2023-07-27T00:00:00	2024-11-08T04:00:00	4	Temperatura máxima	20
50967	7	Sololá	710	Panajachel	8	Panajachel	7	Julio	2023-07-27T00:00:00	2024-11-08T04:00:00	3	Temperatura mínima	19.2
50968	7	Sololá	710	Panajachel	8	Panajachel	7	Julio	2023-07-27T00:00:00	2024-11-08T04:00:00	5	Humedad	67
50969	7	Sololá	710	Panajachel	8	Panajachel	7	Julio	2023-07-27T00:00:00	2024-11-08T04:00:00	6	Velocidad del viento	6.4
50970	7	Sololá	710	Panajachel	8	Panajachel	7	Julio	2023-07-27T00:00:00	2024-11-08T04:00:00	7	Dirección del viento	6.44
50971	7	Sololá	710	Panajachel	8	Panajachel	7	Julio	2023-07-27T00:00:00	2024-11-08T04:00:00	1	Precipitación	0
50972	7	Sololá	710	Panajachel	8	Panajachel	7	Julio	2023-07-27T00:00:00	2024-11-08T04:00:00	8	Radiación solar	0
50973	7	Sololá	710	Panajachel	8	Panajachel	7	Julio	2023-07-27T00:00:00	2024-11-08T05:00:00	2	Temperatura media	19.8
50974	7	Sololá	710	Panajachel	8	Panajachel	7	Julio	2023-07-27T00:00:00	2024-11-08T05:00:00	4	Temperatura máxima	20.1
50975	7	Sololá	710	Panajachel	8	Panajachel	7	Julio	2023-07-27T00:00:00	2024-11-08T05:00:00	3	Temperatura mínima	19.7
50976	7	Sololá	710	Panajachel	8	Panajachel	7	Julio	2023-07-27T00:00:00	2024-11-08T05:00:00	5	Humedad	68
50977	7	Sololá	710	Panajachel	8	Panajachel	7	Julio	2023-07-27T00:00:00	2024-11-08T05:00:00	6	Velocidad del viento	11.3
50978	7	Sololá	710	Panajachel	8	Panajachel	7	Julio	2023-07-27T00:00:00	2024-11-08T05:00:00	7	Dirección del viento	11.27
50979	7	Sololá	710	Panajachel	8	Panajachel	7	Julio	2023-07-27T00:00:00	2024-11-08T05:00:00	1	Precipitación	0
50980	7	Sololá	710	Panajachel	8	Panajachel	7	Julio	2023-07-27T00:00:00	2024-11-08T05:00:00	8	Radiación solar	0
50981	7	Sololá	710	Panajachel	8	Panajachel	7	Julio	2023-07-27T00:00:00	2024-11-08T06:00:00	2	Temperatura media	19.2
50982	7	Sololá	710	Panajachel	8	Panajachel	7	Julio	2023-07-27T00:00:00	2024-11-08T06:00:00	4	Temperatura máxima	19.8
50983	7	Sololá	710	Panajachel	8	Panajachel	7	Julio	2023-07-27T00:00:00	2024-11-08T06:00:00	3	Temperatura mínima	19.2
50984	7	Sololá	710	Panajachel	8	Panajachel	7	Julio	2023-07-27T00:00:00	2024-11-08T06:00:00	5	Humedad	71
50985	7	Sololá	710	Panajachel	8	Panajachel	7	Julio	2023-07-27T00:00:00	2024-11-08T06:00:00	6	Velocidad del viento	6.4
50986	7	Sololá	710	Panajachel	8	Panajachel	7	Julio	2023-07-27T00:00:00	2024-11-08T06:00:00	7	Dirección del viento	6.44
50987	7	Sololá	710	Panajachel	8	Panajachel	7	Julio	2023-07-27T00:00:00	2024-11-08T06:00:00	1	Precipitación	0
50988	7	Sololá	710	Panajachel	8	Panajachel	7	Julio	2023-07-27T00:00:00	2024-11-08T06:00:00	8	Radiación solar	1
50989	7	Sololá	710	Panajachel	8	Panajachel	7	Julio	2023-07-27T00:00:00	2024-11-08T07:00:00	2	Temperatura media	19.9
50990	7	Sololá	710	Panajachel	8	Panajachel	7	Julio	2023-07-27T00:00:00	2024-11-08T07:00:00	4	Temperatura máxima	19.9
50991	7	Sololá	710	Panajachel	8	Panajachel	7	Julio	2023-07-27T00:00:00	2024-11-08T07:00:00	3	Temperatura mínima	18.2
50992	7	Sololá	710	Panajachel	8	Panajachel	7	Julio	2023-07-27T00:00:00	2024-11-08T07:00:00	5	Humedad	71
50993	7	Sololá	710	Panajachel	8	Panajachel	7	Julio	2023-07-27T00:00:00	2024-11-08T07:00:00	6	Velocidad del viento	1.6
50994	7	Sololá	710	Panajachel	8	Panajachel	7	Julio	2023-07-27T00:00:00	2024-11-08T07:00:00	7	Dirección del viento	1.61
50995	7	Sololá	710	Panajachel	8	Panajachel	7	Julio	2023-07-27T00:00:00	2024-11-08T07:00:00	1	Precipitación	0
50996	7	Sololá	710	Panajachel	8	Panajachel	7	Julio	2023-07-27T00:00:00	2024-11-08T07:00:00	8	Radiación solar	81
50997	7	Sololá	710	Panajachel	8	Panajachel	7	Julio	2023-07-27T00:00:00	2024-11-08T08:00:00	2	Temperatura media	22.8
50998	7	Sololá	710	Panajachel	8	Panajachel	7	Julio	2023-07-27T00:00:00	2024-11-08T08:00:00	4	Temperatura máxima	22.8
50999	7	Sololá	710	Panajachel	8	Panajachel	7	Julio	2023-07-27T00:00:00	2024-11-08T08:00:00	3	Temperatura mínima	19.9
51000	7	Sololá	710	Panajachel	8	Panajachel	7	Julio	2023-07-27T00:00:00	2024-11-08T08:00:00	5	Humedad	63
51001	7	Sololá	710	Panajachel	8	Panajachel	7	Julio	2023-07-27T00:00:00	2024-11-08T08:00:00	6	Velocidad del viento	4.8
51002	7	Sololá	710	Panajachel	8	Panajachel	7	Julio	2023-07-27T00:00:00	2024-11-08T08:00:00	7	Dirección del viento	4.83
51003	7	Sololá	710	Panajachel	8	Panajachel	7	Julio	2023-07-27T00:00:00	2024-11-08T08:00:00	1	Precipitación	0
51004	7	Sololá	710	Panajachel	8	Panajachel	7	Julio	2023-07-27T00:00:00	2024-11-08T08:00:00	8	Radiación solar	310
51005	7	Sololá	710	Panajachel	8	Panajachel	7	Julio	2023-07-27T00:00:00	2024-11-08T09:00:00	2	Temperatura media	24.1
51006	7	Sololá	710	Panajachel	8	Panajachel	7	Julio	2023-07-27T00:00:00	2024-11-08T09:00:00	4	Temperatura máxima	24.2
51007	7	Sololá	710	Panajachel	8	Panajachel	7	Julio	2023-07-27T00:00:00	2024-11-08T09:00:00	3	Temperatura mínima	22.9
51008	7	Sololá	710	Panajachel	8	Panajachel	7	Julio	2023-07-27T00:00:00	2024-11-08T09:00:00	5	Humedad	60
51009	7	Sololá	710	Panajachel	8	Panajachel	7	Julio	2023-07-27T00:00:00	2024-11-08T09:00:00	6	Velocidad del viento	4.8
51010	7	Sololá	710	Panajachel	8	Panajachel	7	Julio	2023-07-27T00:00:00	2024-11-08T09:00:00	7	Dirección del viento	4.83
51011	7	Sololá	710	Panajachel	8	Panajachel	7	Julio	2023-07-27T00:00:00	2024-11-08T09:00:00	1	Precipitación	0
51012	7	Sololá	710	Panajachel	8	Panajachel	7	Julio	2023-07-27T00:00:00	2024-11-08T09:00:00	8	Radiación solar	524
51013	7	Sololá	710	Panajachel	8	Panajachel	7	Julio	2023-07-27T00:00:00	2024-11-08T10:00:00	2	Temperatura media	25.3
51014	7	Sololá	710	Panajachel	8	Panajachel	7	Julio	2023-07-27T00:00:00	2024-11-08T10:00:00	4	Temperatura máxima	25.4
51015	7	Sololá	710	Panajachel	8	Panajachel	7	Julio	2023-07-27T00:00:00	2024-11-08T10:00:00	3	Temperatura mínima	24.1
51016	7	Sololá	710	Panajachel	8	Panajachel	7	Julio	2023-07-27T00:00:00	2024-11-08T10:00:00	5	Humedad	58
51017	7	Sololá	710	Panajachel	8	Panajachel	7	Julio	2023-07-27T00:00:00	2024-11-08T10:00:00	6	Velocidad del viento	6.4
51018	7	Sololá	710	Panajachel	8	Panajachel	7	Julio	2023-07-27T00:00:00	2024-11-08T10:00:00	7	Dirección del viento	6.44
51019	7	Sololá	710	Panajachel	8	Panajachel	7	Julio	2023-07-27T00:00:00	2024-11-08T10:00:00	1	Precipitación	0
51020	7	Sololá	710	Panajachel	8	Panajachel	7	Julio	2023-07-27T00:00:00	2024-11-08T10:00:00	8	Radiación solar	715
51021	7	Sololá	710	Panajachel	8	Panajachel	7	Julio	2023-07-27T00:00:00	2024-11-08T11:00:00	2	Temperatura media	26.1
51022	7	Sololá	710	Panajachel	8	Panajachel	7	Julio	2023-07-27T00:00:00	2024-11-08T11:00:00	4	Temperatura máxima	26.2
51023	7	Sololá	710	Panajachel	8	Panajachel	7	Julio	2023-07-27T00:00:00	2024-11-08T11:00:00	3	Temperatura mínima	25
51024	7	Sololá	710	Panajachel	8	Panajachel	7	Julio	2023-07-27T00:00:00	2024-11-08T11:00:00	5	Humedad	56
51025	7	Sololá	710	Panajachel	8	Panajachel	7	Julio	2023-07-27T00:00:00	2024-11-08T11:00:00	6	Velocidad del viento	8
51026	7	Sololá	710	Panajachel	8	Panajachel	7	Julio	2023-07-27T00:00:00	2024-11-08T11:00:00	7	Dirección del viento	8.05
51027	7	Sololá	710	Panajachel	8	Panajachel	7	Julio	2023-07-27T00:00:00	2024-11-08T11:00:00	1	Precipitación	0
51028	7	Sololá	710	Panajachel	8	Panajachel	7	Julio	2023-07-27T00:00:00	2024-11-08T11:00:00	8	Radiación solar	864
51029	7	Sololá	710	Panajachel	8	Panajachel	7	Julio	2023-07-27T00:00:00	2024-11-08T12:00:00	2	Temperatura media	26.9
51030	7	Sololá	710	Panajachel	8	Panajachel	7	Julio	2023-07-27T00:00:00	2024-11-08T12:00:00	4	Temperatura máxima	27.2
51031	7	Sololá	710	Panajachel	8	Panajachel	7	Julio	2023-07-27T00:00:00	2024-11-08T12:00:00	3	Temperatura mínima	26.1
51032	7	Sololá	710	Panajachel	8	Panajachel	7	Julio	2023-07-27T00:00:00	2024-11-08T12:00:00	5	Humedad	52
51033	7	Sololá	710	Panajachel	8	Panajachel	7	Julio	2023-07-27T00:00:00	2024-11-08T12:00:00	6	Velocidad del viento	8
51034	7	Sololá	710	Panajachel	8	Panajachel	7	Julio	2023-07-27T00:00:00	2024-11-08T12:00:00	7	Dirección del viento	8.05
51035	7	Sololá	710	Panajachel	8	Panajachel	7	Julio	2023-07-27T00:00:00	2024-11-08T12:00:00	1	Precipitación	0
51036	7	Sololá	710	Panajachel	8	Panajachel	7	Julio	2023-07-27T00:00:00	2024-11-08T12:00:00	8	Radiación solar	967
51037	7	Sololá	710	Panajachel	8	Panajachel	7	Julio	2023-07-27T00:00:00	2024-11-08T13:00:00	2	Temperatura media	27.6
51038	7	Sololá	710	Panajachel	8	Panajachel	7	Julio	2023-07-27T00:00:00	2024-11-08T13:00:00	4	Temperatura máxima	27.6
51039	7	Sololá	710	Panajachel	8	Panajachel	7	Julio	2023-07-27T00:00:00	2024-11-08T13:00:00	3	Temperatura mínima	26.8
51040	7	Sololá	710	Panajachel	8	Panajachel	7	Julio	2023-07-27T00:00:00	2024-11-08T13:00:00	5	Humedad	51
51041	7	Sololá	710	Panajachel	8	Panajachel	7	Julio	2023-07-27T00:00:00	2024-11-08T13:00:00	6	Velocidad del viento	8
51042	7	Sololá	710	Panajachel	8	Panajachel	7	Julio	2023-07-27T00:00:00	2024-11-08T13:00:00	7	Dirección del viento	8.05
51043	7	Sololá	710	Panajachel	8	Panajachel	7	Julio	2023-07-27T00:00:00	2024-11-08T13:00:00	1	Precipitación	0
51044	7	Sololá	710	Panajachel	8	Panajachel	7	Julio	2023-07-27T00:00:00	2024-11-08T13:00:00	8	Radiación solar	970
51045	7	Sololá	710	Panajachel	8	Panajachel	7	Julio	2023-07-27T00:00:00	2024-11-08T14:00:00	2	Temperatura media	27.6
51046	7	Sololá	710	Panajachel	8	Panajachel	7	Julio	2023-07-27T00:00:00	2024-11-08T14:00:00	4	Temperatura máxima	28.1
51047	7	Sololá	710	Panajachel	8	Panajachel	7	Julio	2023-07-27T00:00:00	2024-11-08T14:00:00	3	Temperatura mínima	27.4
51048	7	Sololá	710	Panajachel	8	Panajachel	7	Julio	2023-07-27T00:00:00	2024-11-08T14:00:00	5	Humedad	48
51049	7	Sololá	710	Panajachel	8	Panajachel	7	Julio	2023-07-27T00:00:00	2024-11-08T14:00:00	6	Velocidad del viento	8
51050	7	Sololá	710	Panajachel	8	Panajachel	7	Julio	2023-07-27T00:00:00	2024-11-08T14:00:00	7	Dirección del viento	8.05
51051	7	Sololá	710	Panajachel	8	Panajachel	7	Julio	2023-07-27T00:00:00	2024-11-08T14:00:00	1	Precipitación	0
51052	7	Sololá	710	Panajachel	8	Panajachel	7	Julio	2023-07-27T00:00:00	2024-11-08T14:00:00	8	Radiación solar	946
51053	7	Sololá	710	Panajachel	8	Panajachel	7	Julio	2023-07-27T00:00:00	2024-11-08T15:00:00	2	Temperatura media	27.8
51054	7	Sololá	710	Panajachel	8	Panajachel	7	Julio	2023-07-27T00:00:00	2024-11-08T15:00:00	4	Temperatura máxima	27.9
51055	7	Sololá	710	Panajachel	8	Panajachel	7	Julio	2023-07-27T00:00:00	2024-11-08T15:00:00	3	Temperatura mínima	27.4
51056	7	Sololá	710	Panajachel	8	Panajachel	7	Julio	2023-07-27T00:00:00	2024-11-08T15:00:00	5	Humedad	47
51057	7	Sololá	710	Panajachel	8	Panajachel	7	Julio	2023-07-27T00:00:00	2024-11-08T15:00:00	6	Velocidad del viento	8
51058	7	Sololá	710	Panajachel	8	Panajachel	7	Julio	2023-07-27T00:00:00	2024-11-08T15:00:00	7	Dirección del viento	8.05
51059	7	Sololá	710	Panajachel	8	Panajachel	7	Julio	2023-07-27T00:00:00	2024-11-08T15:00:00	1	Precipitación	0
51060	7	Sololá	710	Panajachel	8	Panajachel	7	Julio	2023-07-27T00:00:00	2024-11-08T15:00:00	8	Radiación solar	812
51061	7	Sololá	710	Panajachel	8	Panajachel	7	Julio	2023-07-27T00:00:00	2024-11-08T16:00:00	2	Temperatura media	27.9
51062	7	Sololá	710	Panajachel	8	Panajachel	7	Julio	2023-07-27T00:00:00	2024-11-08T16:00:00	4	Temperatura máxima	28.3
51063	7	Sololá	710	Panajachel	8	Panajachel	7	Julio	2023-07-27T00:00:00	2024-11-08T16:00:00	3	Temperatura mínima	27.8
51064	7	Sololá	710	Panajachel	8	Panajachel	7	Julio	2023-07-27T00:00:00	2024-11-08T16:00:00	5	Humedad	46
51065	7	Sololá	710	Panajachel	8	Panajachel	7	Julio	2023-07-27T00:00:00	2024-11-08T16:00:00	6	Velocidad del viento	6.4
51066	7	Sololá	710	Panajachel	8	Panajachel	7	Julio	2023-07-27T00:00:00	2024-11-08T16:00:00	7	Dirección del viento	6.44
51067	7	Sololá	710	Panajachel	8	Panajachel	7	Julio	2023-07-27T00:00:00	2024-11-08T16:00:00	1	Precipitación	0
51068	7	Sololá	710	Panajachel	8	Panajachel	7	Julio	2023-07-27T00:00:00	2024-11-08T16:00:00	8	Radiación solar	455
51069	7	Sololá	710	Panajachel	8	Panajachel	7	Julio	2023-07-27T00:00:00	2024-11-08T17:00:00	2	Temperatura media	24.8
51070	7	Sololá	710	Panajachel	8	Panajachel	7	Julio	2023-07-27T00:00:00	2024-11-08T17:00:00	4	Temperatura máxima	27.9
51071	7	Sololá	710	Panajachel	8	Panajachel	7	Julio	2023-07-27T00:00:00	2024-11-08T17:00:00	3	Temperatura mínima	24.8
51072	7	Sololá	710	Panajachel	8	Panajachel	7	Julio	2023-07-27T00:00:00	2024-11-08T17:00:00	5	Humedad	74
51073	7	Sololá	710	Panajachel	8	Panajachel	7	Julio	2023-07-27T00:00:00	2024-11-08T17:00:00	6	Velocidad del viento	6.4
51074	7	Sololá	710	Panajachel	8	Panajachel	7	Julio	2023-07-27T00:00:00	2024-11-08T17:00:00	7	Dirección del viento	6.44
51075	7	Sololá	710	Panajachel	8	Panajachel	7	Julio	2023-07-27T00:00:00	2024-11-08T17:00:00	1	Precipitación	0
51076	7	Sololá	710	Panajachel	8	Panajachel	7	Julio	2023-07-27T00:00:00	2024-11-08T17:00:00	8	Radiación solar	172
51077	7	Sololá	710	Panajachel	8	Panajachel	7	Julio	2023-07-27T00:00:00	2024-11-08T18:00:00	2	Temperatura media	23.7
51078	7	Sololá	710	Panajachel	8	Panajachel	7	Julio	2023-07-27T00:00:00	2024-11-08T18:00:00	4	Temperatura máxima	24.8
51079	7	Sololá	710	Panajachel	8	Panajachel	7	Julio	2023-07-27T00:00:00	2024-11-08T18:00:00	3	Temperatura mínima	23.7
51080	7	Sololá	710	Panajachel	8	Panajachel	7	Julio	2023-07-27T00:00:00	2024-11-08T18:00:00	5	Humedad	77
51081	7	Sololá	710	Panajachel	8	Panajachel	7	Julio	2023-07-27T00:00:00	2024-11-08T18:00:00	6	Velocidad del viento	3.2
51082	7	Sololá	710	Panajachel	8	Panajachel	7	Julio	2023-07-27T00:00:00	2024-11-08T18:00:00	7	Dirección del viento	3.22
51083	7	Sololá	710	Panajachel	8	Panajachel	7	Julio	2023-07-27T00:00:00	2024-11-08T18:00:00	1	Precipitación	0
51084	7	Sololá	710	Panajachel	8	Panajachel	7	Julio	2023-07-27T00:00:00	2024-11-08T18:00:00	8	Radiación solar	87
51085	7	Sololá	710	Panajachel	8	Panajachel	7	Julio	2023-07-27T00:00:00	2024-11-08T19:00:00	2	Temperatura media	22.6
51086	7	Sololá	710	Panajachel	8	Panajachel	7	Julio	2023-07-27T00:00:00	2024-11-08T19:00:00	4	Temperatura máxima	23.7
51087	7	Sololá	710	Panajachel	8	Panajachel	7	Julio	2023-07-27T00:00:00	2024-11-08T19:00:00	3	Temperatura mínima	22.6
51088	7	Sololá	710	Panajachel	8	Panajachel	7	Julio	2023-07-27T00:00:00	2024-11-08T19:00:00	5	Humedad	82
51089	7	Sololá	710	Panajachel	8	Panajachel	7	Julio	2023-07-27T00:00:00	2024-11-08T19:00:00	6	Velocidad del viento	1.6
51090	7	Sololá	710	Panajachel	8	Panajachel	7	Julio	2023-07-27T00:00:00	2024-11-08T19:00:00	7	Dirección del viento	1.61
51091	7	Sololá	710	Panajachel	8	Panajachel	7	Julio	2023-07-27T00:00:00	2024-11-08T19:00:00	1	Precipitación	0
51092	7	Sololá	710	Panajachel	8	Panajachel	7	Julio	2023-07-27T00:00:00	2024-11-08T19:00:00	8	Radiación solar	0
51093	7	Sololá	710	Panajachel	8	Panajachel	7	Julio	2023-07-27T00:00:00	2024-11-08T20:00:00	2	Temperatura media	22
51094	7	Sololá	710	Panajachel	8	Panajachel	7	Julio	2023-07-27T00:00:00	2024-11-08T20:00:00	4	Temperatura máxima	22.6
51095	7	Sololá	710	Panajachel	8	Panajachel	7	Julio	2023-07-27T00:00:00	2024-11-08T20:00:00	3	Temperatura mínima	21.8
51096	7	Sololá	710	Panajachel	8	Panajachel	7	Julio	2023-07-27T00:00:00	2024-11-08T20:00:00	5	Humedad	72
51097	7	Sololá	710	Panajachel	8	Panajachel	7	Julio	2023-07-27T00:00:00	2024-11-08T20:00:00	6	Velocidad del viento	1.6
51098	7	Sololá	710	Panajachel	8	Panajachel	7	Julio	2023-07-27T00:00:00	2024-11-08T20:00:00	7	Dirección del viento	1.61
51099	7	Sololá	710	Panajachel	8	Panajachel	7	Julio	2023-07-27T00:00:00	2024-11-08T20:00:00	1	Precipitación	0
51100	7	Sololá	710	Panajachel	8	Panajachel	7	Julio	2023-07-27T00:00:00	2024-11-08T20:00:00	8	Radiación solar	0
51101	7	Sololá	710	Panajachel	8	Panajachel	7	Julio	2023-07-27T00:00:00	2024-11-08T21:00:00	2	Temperatura media	22
51102	7	Sololá	710	Panajachel	8	Panajachel	7	Julio	2023-07-27T00:00:00	2024-11-08T21:00:00	4	Temperatura máxima	22.8
51103	7	Sololá	710	Panajachel	8	Panajachel	7	Julio	2023-07-27T00:00:00	2024-11-08T21:00:00	3	Temperatura mínima	21.9
51104	7	Sololá	710	Panajachel	8	Panajachel	7	Julio	2023-07-27T00:00:00	2024-11-08T21:00:00	5	Humedad	70
51105	7	Sololá	710	Panajachel	8	Panajachel	7	Julio	2023-07-27T00:00:00	2024-11-08T21:00:00	6	Velocidad del viento	4.8
51106	7	Sololá	710	Panajachel	8	Panajachel	7	Julio	2023-07-27T00:00:00	2024-11-08T21:00:00	7	Dirección del viento	4.83
51107	7	Sololá	710	Panajachel	8	Panajachel	7	Julio	2023-07-27T00:00:00	2024-11-08T21:00:00	1	Precipitación	0
51108	7	Sololá	710	Panajachel	8	Panajachel	7	Julio	2023-07-27T00:00:00	2024-11-08T21:00:00	8	Radiación solar	0
51109	7	Sololá	710	Panajachel	8	Panajachel	7	Julio	2023-07-27T00:00:00	2024-11-08T22:00:00	2	Temperatura media	21.7
51110	7	Sololá	710	Panajachel	8	Panajachel	7	Julio	2023-07-27T00:00:00	2024-11-08T22:00:00	4	Temperatura máxima	22
51111	7	Sololá	710	Panajachel	8	Panajachel	7	Julio	2023-07-27T00:00:00	2024-11-08T22:00:00	3	Temperatura mínima	21.6
51112	7	Sololá	710	Panajachel	8	Panajachel	7	Julio	2023-07-27T00:00:00	2024-11-08T22:00:00	5	Humedad	68
51113	7	Sololá	710	Panajachel	8	Panajachel	7	Julio	2023-07-27T00:00:00	2024-11-08T22:00:00	6	Velocidad del viento	4.8
51114	7	Sololá	710	Panajachel	8	Panajachel	7	Julio	2023-07-27T00:00:00	2024-11-08T22:00:00	7	Dirección del viento	4.83
51115	7	Sololá	710	Panajachel	8	Panajachel	7	Julio	2023-07-27T00:00:00	2024-11-08T22:00:00	1	Precipitación	0
51116	7	Sololá	710	Panajachel	8	Panajachel	7	Julio	2023-07-27T00:00:00	2024-11-08T22:00:00	8	Radiación solar	0
51117	7	Sololá	710	Panajachel	8	Panajachel	7	Julio	2023-07-27T00:00:00	2024-11-08T23:00:00	2	Temperatura media	20.2
51118	7	Sololá	710	Panajachel	8	Panajachel	7	Julio	2023-07-27T00:00:00	2024-11-08T23:00:00	4	Temperatura máxima	21.8
51119	7	Sololá	710	Panajachel	8	Panajachel	7	Julio	2023-07-27T00:00:00	2024-11-08T23:00:00	3	Temperatura mínima	20.1
51120	7	Sololá	710	Panajachel	8	Panajachel	7	Julio	2023-07-27T00:00:00	2024-11-08T23:00:00	5	Humedad	73
51121	7	Sololá	710	Panajachel	8	Panajachel	7	Julio	2023-07-27T00:00:00	2024-11-08T23:00:00	6	Velocidad del viento	1.6
51122	7	Sololá	710	Panajachel	8	Panajachel	7	Julio	2023-07-27T00:00:00	2024-11-08T23:00:00	7	Dirección del viento	1.61
51123	7	Sololá	710	Panajachel	8	Panajachel	7	Julio	2023-07-27T00:00:00	2024-11-08T23:00:00	1	Precipitación	0
51124	7	Sololá	710	Panajachel	8	Panajachel	7	Julio	2023-07-27T00:00:00	2024-11-08T23:00:00	8	Radiación solar	0
51125	7	Sololá	710	Panajachel	8	Panajachel	7	Julio	2023-07-28T00:00:00	2024-11-08T00:00:00	2	Temperatura media	21.4
51126	7	Sololá	710	Panajachel	8	Panajachel	7	Julio	2023-07-28T00:00:00	2024-11-08T00:00:00	4	Temperatura máxima	21.5
51127	7	Sololá	710	Panajachel	8	Panajachel	7	Julio	2023-07-28T00:00:00	2024-11-08T00:00:00	3	Temperatura mínima	20.2
51128	7	Sololá	710	Panajachel	8	Panajachel	7	Julio	2023-07-28T00:00:00	2024-11-08T00:00:00	5	Humedad	66
51129	7	Sololá	710	Panajachel	8	Panajachel	7	Julio	2023-07-28T00:00:00	2024-11-08T00:00:00	6	Velocidad del viento	8
51130	7	Sololá	710	Panajachel	8	Panajachel	7	Julio	2023-07-28T00:00:00	2024-11-08T00:00:00	7	Dirección del viento	8.05
51131	7	Sololá	710	Panajachel	8	Panajachel	7	Julio	2023-07-28T00:00:00	2024-11-08T00:00:00	1	Precipitación	0
51132	7	Sololá	710	Panajachel	8	Panajachel	7	Julio	2023-07-28T00:00:00	2024-11-08T00:00:00	8	Radiación solar	0
51133	7	Sololá	710	Panajachel	8	Panajachel	7	Julio	2023-07-28T00:00:00	2024-11-08T01:00:00	2	Temperatura media	21.4
51134	7	Sololá	710	Panajachel	8	Panajachel	7	Julio	2023-07-28T00:00:00	2024-11-08T01:00:00	4	Temperatura máxima	21.6
51135	7	Sololá	710	Panajachel	8	Panajachel	7	Julio	2023-07-28T00:00:00	2024-11-08T01:00:00	3	Temperatura mínima	21.3
51136	7	Sololá	710	Panajachel	8	Panajachel	7	Julio	2023-07-28T00:00:00	2024-11-08T01:00:00	5	Humedad	68
51137	7	Sololá	710	Panajachel	8	Panajachel	7	Julio	2023-07-28T00:00:00	2024-11-08T01:00:00	6	Velocidad del viento	12.9
51138	7	Sololá	710	Panajachel	8	Panajachel	7	Julio	2023-07-28T00:00:00	2024-11-08T01:00:00	7	Dirección del viento	12.87
51139	7	Sololá	710	Panajachel	8	Panajachel	7	Julio	2023-07-28T00:00:00	2024-11-08T01:00:00	1	Precipitación	0
51140	7	Sololá	710	Panajachel	8	Panajachel	7	Julio	2023-07-28T00:00:00	2024-11-08T01:00:00	8	Radiación solar	0
51141	7	Sololá	710	Panajachel	8	Panajachel	7	Julio	2023-07-28T00:00:00	2024-11-08T02:00:00	2	Temperatura media	21.1
51142	7	Sololá	710	Panajachel	8	Panajachel	7	Julio	2023-07-28T00:00:00	2024-11-08T02:00:00	4	Temperatura máxima	21.4
51143	7	Sololá	710	Panajachel	8	Panajachel	7	Julio	2023-07-28T00:00:00	2024-11-08T02:00:00	3	Temperatura mínima	21
51144	7	Sololá	710	Panajachel	8	Panajachel	7	Julio	2023-07-28T00:00:00	2024-11-08T02:00:00	5	Humedad	68
51145	7	Sololá	710	Panajachel	8	Panajachel	7	Julio	2023-07-28T00:00:00	2024-11-08T02:00:00	6	Velocidad del viento	11.3
51146	7	Sololá	710	Panajachel	8	Panajachel	7	Julio	2023-07-28T00:00:00	2024-11-08T02:00:00	7	Dirección del viento	11.27
51147	7	Sololá	710	Panajachel	8	Panajachel	7	Julio	2023-07-28T00:00:00	2024-11-08T02:00:00	1	Precipitación	0
51148	7	Sololá	710	Panajachel	8	Panajachel	7	Julio	2023-07-28T00:00:00	2024-11-08T02:00:00	8	Radiación solar	0
51149	7	Sololá	710	Panajachel	8	Panajachel	7	Julio	2023-07-28T00:00:00	2024-11-08T03:00:00	2	Temperatura media	20.9
51150	7	Sololá	710	Panajachel	8	Panajachel	7	Julio	2023-07-28T00:00:00	2024-11-08T03:00:00	4	Temperatura máxima	21.1
51151	7	Sololá	710	Panajachel	8	Panajachel	7	Julio	2023-07-28T00:00:00	2024-11-08T03:00:00	3	Temperatura mínima	20.7
51152	7	Sololá	710	Panajachel	8	Panajachel	7	Julio	2023-07-28T00:00:00	2024-11-08T03:00:00	5	Humedad	69
51153	7	Sololá	710	Panajachel	8	Panajachel	7	Julio	2023-07-28T00:00:00	2024-11-08T03:00:00	6	Velocidad del viento	6.4
51154	7	Sololá	710	Panajachel	8	Panajachel	7	Julio	2023-07-28T00:00:00	2024-11-08T03:00:00	7	Dirección del viento	6.44
51155	7	Sololá	710	Panajachel	8	Panajachel	7	Julio	2023-07-28T00:00:00	2024-11-08T03:00:00	1	Precipitación	0
51156	7	Sololá	710	Panajachel	8	Panajachel	7	Julio	2023-07-28T00:00:00	2024-11-08T03:00:00	8	Radiación solar	0
51157	7	Sololá	710	Panajachel	8	Panajachel	7	Julio	2023-07-28T00:00:00	2024-11-08T04:00:00	2	Temperatura media	19.3
51158	7	Sololá	710	Panajachel	8	Panajachel	7	Julio	2023-07-28T00:00:00	2024-11-08T04:00:00	4	Temperatura máxima	20.9
51159	7	Sololá	710	Panajachel	8	Panajachel	7	Julio	2023-07-28T00:00:00	2024-11-08T04:00:00	3	Temperatura mínima	19.3
51160	7	Sololá	710	Panajachel	8	Panajachel	7	Julio	2023-07-28T00:00:00	2024-11-08T04:00:00	5	Humedad	73
51161	7	Sololá	710	Panajachel	8	Panajachel	7	Julio	2023-07-28T00:00:00	2024-11-08T04:00:00	6	Velocidad del viento	3.2
51162	7	Sololá	710	Panajachel	8	Panajachel	7	Julio	2023-07-28T00:00:00	2024-11-08T04:00:00	7	Dirección del viento	3.22
51163	7	Sololá	710	Panajachel	8	Panajachel	7	Julio	2023-07-28T00:00:00	2024-11-08T04:00:00	1	Precipitación	0
51164	7	Sololá	710	Panajachel	8	Panajachel	7	Julio	2023-07-28T00:00:00	2024-11-08T04:00:00	8	Radiación solar	0
51165	7	Sololá	710	Panajachel	8	Panajachel	7	Julio	2023-07-28T00:00:00	2024-11-08T05:00:00	2	Temperatura media	18.5
51166	7	Sololá	710	Panajachel	8	Panajachel	7	Julio	2023-07-28T00:00:00	2024-11-08T05:00:00	4	Temperatura máxima	19.3
51167	7	Sololá	710	Panajachel	8	Panajachel	7	Julio	2023-07-28T00:00:00	2024-11-08T05:00:00	3	Temperatura mínima	18.4
51168	7	Sololá	710	Panajachel	8	Panajachel	7	Julio	2023-07-28T00:00:00	2024-11-08T05:00:00	5	Humedad	77
51169	7	Sololá	710	Panajachel	8	Panajachel	7	Julio	2023-07-28T00:00:00	2024-11-08T05:00:00	6	Velocidad del viento	3.2
51170	7	Sololá	710	Panajachel	8	Panajachel	7	Julio	2023-07-28T00:00:00	2024-11-08T05:00:00	7	Dirección del viento	3.22
51171	7	Sololá	710	Panajachel	8	Panajachel	7	Julio	2023-07-28T00:00:00	2024-11-08T05:00:00	1	Precipitación	0
51172	7	Sololá	710	Panajachel	8	Panajachel	7	Julio	2023-07-28T00:00:00	2024-11-08T05:00:00	8	Radiación solar	0
51173	7	Sololá	710	Panajachel	8	Panajachel	7	Julio	2023-07-28T00:00:00	2024-11-08T06:00:00	2	Temperatura media	19.7
51174	7	Sololá	710	Panajachel	8	Panajachel	7	Julio	2023-07-28T00:00:00	2024-11-08T06:00:00	4	Temperatura máxima	19.7
51175	7	Sololá	710	Panajachel	8	Panajachel	7	Julio	2023-07-28T00:00:00	2024-11-08T06:00:00	3	Temperatura mínima	18.5
51176	7	Sololá	710	Panajachel	8	Panajachel	7	Julio	2023-07-28T00:00:00	2024-11-08T06:00:00	5	Humedad	74
51177	7	Sololá	710	Panajachel	8	Panajachel	7	Julio	2023-07-28T00:00:00	2024-11-08T06:00:00	6	Velocidad del viento	3.2
51178	7	Sololá	710	Panajachel	8	Panajachel	7	Julio	2023-07-28T00:00:00	2024-11-08T06:00:00	7	Dirección del viento	3.22
51179	7	Sololá	710	Panajachel	8	Panajachel	7	Julio	2023-07-28T00:00:00	2024-11-08T06:00:00	1	Precipitación	0
51180	7	Sololá	710	Panajachel	8	Panajachel	7	Julio	2023-07-28T00:00:00	2024-11-08T06:00:00	8	Radiación solar	0
51181	7	Sololá	710	Panajachel	8	Panajachel	7	Julio	2023-07-28T00:00:00	2024-11-08T07:00:00	2	Temperatura media	20.1
51182	7	Sololá	710	Panajachel	8	Panajachel	7	Julio	2023-07-28T00:00:00	2024-11-08T07:00:00	4	Temperatura máxima	20.1
51183	7	Sololá	710	Panajachel	8	Panajachel	7	Julio	2023-07-28T00:00:00	2024-11-08T07:00:00	3	Temperatura mínima	18.8
51184	7	Sololá	710	Panajachel	8	Panajachel	7	Julio	2023-07-28T00:00:00	2024-11-08T07:00:00	5	Humedad	75
51185	7	Sololá	710	Panajachel	8	Panajachel	7	Julio	2023-07-28T00:00:00	2024-11-08T07:00:00	6	Velocidad del viento	1.6
51186	7	Sololá	710	Panajachel	8	Panajachel	7	Julio	2023-07-28T00:00:00	2024-11-08T07:00:00	7	Dirección del viento	1.61
51187	7	Sololá	710	Panajachel	8	Panajachel	7	Julio	2023-07-28T00:00:00	2024-11-08T07:00:00	1	Precipitación	0
51188	7	Sololá	710	Panajachel	8	Panajachel	7	Julio	2023-07-28T00:00:00	2024-11-08T07:00:00	8	Radiación solar	64
51189	7	Sololá	710	Panajachel	8	Panajachel	7	Julio	2023-07-28T00:00:00	2024-11-08T08:00:00	2	Temperatura media	23
51190	7	Sololá	710	Panajachel	8	Panajachel	7	Julio	2023-07-28T00:00:00	2024-11-08T08:00:00	4	Temperatura máxima	23
51191	7	Sololá	710	Panajachel	8	Panajachel	7	Julio	2023-07-28T00:00:00	2024-11-08T08:00:00	3	Temperatura mínima	20.1
51192	7	Sololá	710	Panajachel	8	Panajachel	7	Julio	2023-07-28T00:00:00	2024-11-08T08:00:00	5	Humedad	66
51193	7	Sololá	710	Panajachel	8	Panajachel	7	Julio	2023-07-28T00:00:00	2024-11-08T08:00:00	6	Velocidad del viento	4.8
51194	7	Sololá	710	Panajachel	8	Panajachel	7	Julio	2023-07-28T00:00:00	2024-11-08T08:00:00	7	Dirección del viento	4.83
51195	7	Sololá	710	Panajachel	8	Panajachel	7	Julio	2023-07-28T00:00:00	2024-11-08T08:00:00	1	Precipitación	0
51196	7	Sololá	710	Panajachel	8	Panajachel	7	Julio	2023-07-28T00:00:00	2024-11-08T08:00:00	8	Radiación solar	320
51197	7	Sololá	710	Panajachel	8	Panajachel	7	Julio	2023-07-28T00:00:00	2024-11-08T09:00:00	2	Temperatura media	23.9
51198	7	Sololá	710	Panajachel	8	Panajachel	7	Julio	2023-07-28T00:00:00	2024-11-08T09:00:00	4	Temperatura máxima	23.9
51199	7	Sololá	710	Panajachel	8	Panajachel	7	Julio	2023-07-28T00:00:00	2024-11-08T09:00:00	3	Temperatura mínima	22.9
51200	7	Sololá	710	Panajachel	8	Panajachel	7	Julio	2023-07-28T00:00:00	2024-11-08T09:00:00	5	Humedad	61
51201	7	Sololá	710	Panajachel	8	Panajachel	7	Julio	2023-07-28T00:00:00	2024-11-08T09:00:00	6	Velocidad del viento	8
51202	7	Sololá	710	Panajachel	8	Panajachel	7	Julio	2023-07-28T00:00:00	2024-11-08T09:00:00	7	Dirección del viento	8.05
51203	7	Sololá	710	Panajachel	8	Panajachel	7	Julio	2023-07-28T00:00:00	2024-11-08T09:00:00	1	Precipitación	0
51204	7	Sololá	710	Panajachel	8	Panajachel	7	Julio	2023-07-28T00:00:00	2024-11-08T09:00:00	8	Radiación solar	543
51205	7	Sololá	710	Panajachel	8	Panajachel	7	Julio	2023-07-28T00:00:00	2024-11-08T10:00:00	2	Temperatura media	25.6
51206	7	Sololá	710	Panajachel	8	Panajachel	7	Julio	2023-07-28T00:00:00	2024-11-08T10:00:00	4	Temperatura máxima	25.6
51207	7	Sololá	710	Panajachel	8	Panajachel	7	Julio	2023-07-28T00:00:00	2024-11-08T10:00:00	3	Temperatura mínima	23.9
51208	7	Sololá	710	Panajachel	8	Panajachel	7	Julio	2023-07-28T00:00:00	2024-11-08T10:00:00	5	Humedad	55
51209	7	Sololá	710	Panajachel	8	Panajachel	7	Julio	2023-07-28T00:00:00	2024-11-08T10:00:00	6	Velocidad del viento	4.8
51210	7	Sololá	710	Panajachel	8	Panajachel	7	Julio	2023-07-28T00:00:00	2024-11-08T10:00:00	7	Dirección del viento	4.83
51211	7	Sololá	710	Panajachel	8	Panajachel	7	Julio	2023-07-28T00:00:00	2024-11-08T10:00:00	1	Precipitación	0
51212	7	Sololá	710	Panajachel	8	Panajachel	7	Julio	2023-07-28T00:00:00	2024-11-08T10:00:00	8	Radiación solar	728
51213	7	Sololá	710	Panajachel	8	Panajachel	7	Julio	2023-07-28T00:00:00	2024-11-08T11:00:00	2	Temperatura media	26.1
51214	7	Sololá	710	Panajachel	8	Panajachel	7	Julio	2023-07-28T00:00:00	2024-11-08T11:00:00	4	Temperatura máxima	26.2
51215	7	Sololá	710	Panajachel	8	Panajachel	7	Julio	2023-07-28T00:00:00	2024-11-08T11:00:00	3	Temperatura mínima	25.4
51216	7	Sololá	710	Panajachel	8	Panajachel	7	Julio	2023-07-28T00:00:00	2024-11-08T11:00:00	5	Humedad	56
51217	7	Sololá	710	Panajachel	8	Panajachel	7	Julio	2023-07-28T00:00:00	2024-11-08T11:00:00	6	Velocidad del viento	6.4
51218	7	Sololá	710	Panajachel	8	Panajachel	7	Julio	2023-07-28T00:00:00	2024-11-08T11:00:00	7	Dirección del viento	6.44
51219	7	Sololá	710	Panajachel	8	Panajachel	7	Julio	2023-07-28T00:00:00	2024-11-08T11:00:00	1	Precipitación	0
51220	7	Sololá	710	Panajachel	8	Panajachel	7	Julio	2023-07-28T00:00:00	2024-11-08T11:00:00	8	Radiación solar	877
51221	7	Sololá	710	Panajachel	8	Panajachel	7	Julio	2023-07-28T00:00:00	2024-11-08T12:00:00	2	Temperatura media	25.9
51222	7	Sololá	710	Panajachel	8	Panajachel	7	Julio	2023-07-28T00:00:00	2024-11-08T12:00:00	4	Temperatura máxima	26.1
51223	7	Sololá	710	Panajachel	8	Panajachel	7	Julio	2023-07-28T00:00:00	2024-11-08T12:00:00	3	Temperatura mínima	25.7
51224	7	Sololá	710	Panajachel	8	Panajachel	7	Julio	2023-07-28T00:00:00	2024-11-08T12:00:00	5	Humedad	55
51225	7	Sololá	710	Panajachel	8	Panajachel	7	Julio	2023-07-28T00:00:00	2024-11-08T12:00:00	6	Velocidad del viento	12.9
51226	7	Sololá	710	Panajachel	8	Panajachel	7	Julio	2023-07-28T00:00:00	2024-11-08T12:00:00	7	Dirección del viento	12.87
51227	7	Sololá	710	Panajachel	8	Panajachel	7	Julio	2023-07-28T00:00:00	2024-11-08T12:00:00	1	Precipitación	0
51228	7	Sololá	710	Panajachel	8	Panajachel	7	Julio	2023-07-28T00:00:00	2024-11-08T12:00:00	8	Radiación solar	950
51229	7	Sololá	710	Panajachel	8	Panajachel	7	Julio	2023-07-28T00:00:00	2024-11-08T13:00:00	2	Temperatura media	27.2
51230	7	Sololá	710	Panajachel	8	Panajachel	7	Julio	2023-07-28T00:00:00	2024-11-08T13:00:00	4	Temperatura máxima	27.4
51231	7	Sololá	710	Panajachel	8	Panajachel	7	Julio	2023-07-28T00:00:00	2024-11-08T13:00:00	3	Temperatura mínima	25.8
51232	7	Sololá	710	Panajachel	8	Panajachel	7	Julio	2023-07-28T00:00:00	2024-11-08T13:00:00	5	Humedad	52
51233	7	Sololá	710	Panajachel	8	Panajachel	7	Julio	2023-07-28T00:00:00	2024-11-08T13:00:00	6	Velocidad del viento	9.7
51234	7	Sololá	710	Panajachel	8	Panajachel	7	Julio	2023-07-28T00:00:00	2024-11-08T13:00:00	7	Dirección del viento	9.66
51235	7	Sololá	710	Panajachel	8	Panajachel	7	Julio	2023-07-28T00:00:00	2024-11-08T13:00:00	1	Precipitación	0
51236	7	Sololá	710	Panajachel	8	Panajachel	7	Julio	2023-07-28T00:00:00	2024-11-08T13:00:00	8	Radiación solar	943
51237	7	Sololá	710	Panajachel	8	Panajachel	7	Julio	2023-07-28T00:00:00	2024-11-08T14:00:00	2	Temperatura media	28.2
51238	7	Sololá	710	Panajachel	8	Panajachel	7	Julio	2023-07-28T00:00:00	2024-11-08T14:00:00	4	Temperatura máxima	28.3
51239	7	Sololá	710	Panajachel	8	Panajachel	7	Julio	2023-07-28T00:00:00	2024-11-08T14:00:00	3	Temperatura mínima	27.2
51240	7	Sololá	710	Panajachel	8	Panajachel	7	Julio	2023-07-28T00:00:00	2024-11-08T14:00:00	5	Humedad	48
51241	7	Sololá	710	Panajachel	8	Panajachel	7	Julio	2023-07-28T00:00:00	2024-11-08T14:00:00	6	Velocidad del viento	9.7
51242	7	Sololá	710	Panajachel	8	Panajachel	7	Julio	2023-07-28T00:00:00	2024-11-08T14:00:00	7	Dirección del viento	9.66
51243	7	Sololá	710	Panajachel	8	Panajachel	7	Julio	2023-07-28T00:00:00	2024-11-08T14:00:00	1	Precipitación	0
51244	7	Sololá	710	Panajachel	8	Panajachel	7	Julio	2023-07-28T00:00:00	2024-11-08T14:00:00	8	Radiación solar	912
51245	7	Sololá	710	Panajachel	8	Panajachel	7	Julio	2023-07-28T00:00:00	2024-11-08T15:00:00	2	Temperatura media	27.7
51246	7	Sololá	710	Panajachel	8	Panajachel	7	Julio	2023-07-28T00:00:00	2024-11-08T15:00:00	4	Temperatura máxima	28.4
51247	7	Sololá	710	Panajachel	8	Panajachel	7	Julio	2023-07-28T00:00:00	2024-11-08T15:00:00	3	Temperatura mínima	27.5
51248	7	Sololá	710	Panajachel	8	Panajachel	7	Julio	2023-07-28T00:00:00	2024-11-08T15:00:00	5	Humedad	51
51249	7	Sololá	710	Panajachel	8	Panajachel	7	Julio	2023-07-28T00:00:00	2024-11-08T15:00:00	6	Velocidad del viento	9.7
51250	7	Sololá	710	Panajachel	8	Panajachel	7	Julio	2023-07-28T00:00:00	2024-11-08T15:00:00	7	Dirección del viento	9.66
51251	7	Sololá	710	Panajachel	8	Panajachel	7	Julio	2023-07-28T00:00:00	2024-11-08T15:00:00	1	Precipitación	0
51252	7	Sololá	710	Panajachel	8	Panajachel	7	Julio	2023-07-28T00:00:00	2024-11-08T15:00:00	8	Radiación solar	774
51253	7	Sololá	710	Panajachel	8	Panajachel	7	Julio	2023-07-28T00:00:00	2024-11-08T16:00:00	2	Temperatura media	26.8
51254	7	Sololá	710	Panajachel	8	Panajachel	7	Julio	2023-07-28T00:00:00	2024-11-08T16:00:00	4	Temperatura máxima	28.3
51255	7	Sololá	710	Panajachel	8	Panajachel	7	Julio	2023-07-28T00:00:00	2024-11-08T16:00:00	3	Temperatura mínima	26.7
51256	7	Sololá	710	Panajachel	8	Panajachel	7	Julio	2023-07-28T00:00:00	2024-11-08T16:00:00	5	Humedad	55
51257	7	Sololá	710	Panajachel	8	Panajachel	7	Julio	2023-07-28T00:00:00	2024-11-08T16:00:00	6	Velocidad del viento	8
51258	7	Sololá	710	Panajachel	8	Panajachel	7	Julio	2023-07-28T00:00:00	2024-11-08T16:00:00	7	Dirección del viento	8.05
51259	7	Sololá	710	Panajachel	8	Panajachel	7	Julio	2023-07-28T00:00:00	2024-11-08T16:00:00	1	Precipitación	0
51260	7	Sololá	710	Panajachel	8	Panajachel	7	Julio	2023-07-28T00:00:00	2024-11-08T16:00:00	8	Radiación solar	488
51261	7	Sololá	710	Panajachel	8	Panajachel	7	Julio	2023-07-28T00:00:00	2024-11-08T17:00:00	2	Temperatura media	25.7
51262	7	Sololá	710	Panajachel	8	Panajachel	7	Julio	2023-07-28T00:00:00	2024-11-08T17:00:00	4	Temperatura máxima	27.1
51263	7	Sololá	710	Panajachel	8	Panajachel	7	Julio	2023-07-28T00:00:00	2024-11-08T17:00:00	3	Temperatura mínima	25.7
51264	7	Sololá	710	Panajachel	8	Panajachel	7	Julio	2023-07-28T00:00:00	2024-11-08T17:00:00	5	Humedad	57
51265	7	Sololá	710	Panajachel	8	Panajachel	7	Julio	2023-07-28T00:00:00	2024-11-08T17:00:00	6	Velocidad del viento	6.4
51266	7	Sololá	710	Panajachel	8	Panajachel	7	Julio	2023-07-28T00:00:00	2024-11-08T17:00:00	7	Dirección del viento	6.44
51267	7	Sololá	710	Panajachel	8	Panajachel	7	Julio	2023-07-28T00:00:00	2024-11-08T17:00:00	1	Precipitación	0
51268	7	Sololá	710	Panajachel	8	Panajachel	7	Julio	2023-07-28T00:00:00	2024-11-08T17:00:00	8	Radiación solar	173
51269	7	Sololá	710	Panajachel	8	Panajachel	7	Julio	2023-07-28T00:00:00	2024-11-08T18:00:00	2	Temperatura media	24.8
51270	7	Sololá	710	Panajachel	8	Panajachel	7	Julio	2023-07-28T00:00:00	2024-11-08T18:00:00	4	Temperatura máxima	25.7
51271	7	Sololá	710	Panajachel	8	Panajachel	7	Julio	2023-07-28T00:00:00	2024-11-08T18:00:00	3	Temperatura mínima	24.8
51272	7	Sololá	710	Panajachel	8	Panajachel	7	Julio	2023-07-28T00:00:00	2024-11-08T18:00:00	5	Humedad	63
51273	7	Sololá	710	Panajachel	8	Panajachel	7	Julio	2023-07-28T00:00:00	2024-11-08T18:00:00	6	Velocidad del viento	4.8
51274	7	Sololá	710	Panajachel	8	Panajachel	7	Julio	2023-07-28T00:00:00	2024-11-08T18:00:00	7	Dirección del viento	4.83
51275	7	Sololá	710	Panajachel	8	Panajachel	7	Julio	2023-07-28T00:00:00	2024-11-08T18:00:00	1	Precipitación	0
51276	7	Sololá	710	Panajachel	8	Panajachel	7	Julio	2023-07-28T00:00:00	2024-11-08T18:00:00	8	Radiación solar	63
51277	7	Sololá	710	Panajachel	8	Panajachel	7	Julio	2023-07-28T00:00:00	2024-11-08T19:00:00	2	Temperatura media	22.9
51278	7	Sololá	710	Panajachel	8	Panajachel	7	Julio	2023-07-28T00:00:00	2024-11-08T19:00:00	4	Temperatura máxima	24.8
51279	7	Sololá	710	Panajachel	8	Panajachel	7	Julio	2023-07-28T00:00:00	2024-11-08T19:00:00	3	Temperatura mínima	22.9
51280	7	Sololá	710	Panajachel	8	Panajachel	7	Julio	2023-07-28T00:00:00	2024-11-08T19:00:00	5	Humedad	84
51281	7	Sololá	710	Panajachel	8	Panajachel	7	Julio	2023-07-28T00:00:00	2024-11-08T19:00:00	6	Velocidad del viento	1.6
51282	7	Sololá	710	Panajachel	8	Panajachel	7	Julio	2023-07-28T00:00:00	2024-11-08T19:00:00	7	Dirección del viento	1.61
51283	7	Sololá	710	Panajachel	8	Panajachel	7	Julio	2023-07-28T00:00:00	2024-11-08T19:00:00	1	Precipitación	0
51284	7	Sololá	710	Panajachel	8	Panajachel	7	Julio	2023-07-28T00:00:00	2024-11-08T19:00:00	8	Radiación solar	0
51285	7	Sololá	710	Panajachel	8	Panajachel	7	Julio	2023-07-28T00:00:00	2024-11-08T20:00:00	2	Temperatura media	23.3
51286	7	Sololá	710	Panajachel	8	Panajachel	7	Julio	2023-07-28T00:00:00	2024-11-08T20:00:00	4	Temperatura máxima	23.5
51287	7	Sololá	710	Panajachel	8	Panajachel	7	Julio	2023-07-28T00:00:00	2024-11-08T20:00:00	3	Temperatura mínima	22.6
51288	7	Sololá	710	Panajachel	8	Panajachel	7	Julio	2023-07-28T00:00:00	2024-11-08T20:00:00	5	Humedad	70
51289	7	Sololá	710	Panajachel	8	Panajachel	7	Julio	2023-07-28T00:00:00	2024-11-08T20:00:00	6	Velocidad del viento	3.2
51290	7	Sololá	710	Panajachel	8	Panajachel	7	Julio	2023-07-28T00:00:00	2024-11-08T20:00:00	7	Dirección del viento	3.22
51291	7	Sololá	710	Panajachel	8	Panajachel	7	Julio	2023-07-28T00:00:00	2024-11-08T20:00:00	1	Precipitación	0
51292	7	Sololá	710	Panajachel	8	Panajachel	7	Julio	2023-07-28T00:00:00	2024-11-08T20:00:00	8	Radiación solar	0
51293	7	Sololá	710	Panajachel	8	Panajachel	7	Julio	2023-07-28T00:00:00	2024-11-08T21:00:00	2	Temperatura media	23.1
51294	7	Sololá	710	Panajachel	8	Panajachel	7	Julio	2023-07-28T00:00:00	2024-11-08T21:00:00	4	Temperatura máxima	23.3
51295	7	Sololá	710	Panajachel	8	Panajachel	7	Julio	2023-07-28T00:00:00	2024-11-08T21:00:00	3	Temperatura mínima	23
51296	7	Sololá	710	Panajachel	8	Panajachel	7	Julio	2023-07-28T00:00:00	2024-11-08T21:00:00	5	Humedad	69
51297	7	Sololá	710	Panajachel	8	Panajachel	7	Julio	2023-07-28T00:00:00	2024-11-08T21:00:00	6	Velocidad del viento	3.2
51298	7	Sololá	710	Panajachel	8	Panajachel	7	Julio	2023-07-28T00:00:00	2024-11-08T21:00:00	7	Dirección del viento	3.22
51299	7	Sololá	710	Panajachel	8	Panajachel	7	Julio	2023-07-28T00:00:00	2024-11-08T21:00:00	1	Precipitación	0
51300	7	Sololá	710	Panajachel	8	Panajachel	7	Julio	2023-07-28T00:00:00	2024-11-08T21:00:00	8	Radiación solar	0
51301	7	Sololá	710	Panajachel	8	Panajachel	7	Julio	2023-07-28T00:00:00	2024-11-08T22:00:00	2	Temperatura media	22.7
51302	7	Sololá	710	Panajachel	8	Panajachel	7	Julio	2023-07-28T00:00:00	2024-11-08T22:00:00	4	Temperatura máxima	23.1
51303	7	Sololá	710	Panajachel	8	Panajachel	7	Julio	2023-07-28T00:00:00	2024-11-08T22:00:00	3	Temperatura mínima	22.7
51304	7	Sololá	710	Panajachel	8	Panajachel	7	Julio	2023-07-28T00:00:00	2024-11-08T22:00:00	5	Humedad	71
51305	7	Sololá	710	Panajachel	8	Panajachel	7	Julio	2023-07-28T00:00:00	2024-11-08T22:00:00	6	Velocidad del viento	6.4
51306	7	Sololá	710	Panajachel	8	Panajachel	7	Julio	2023-07-28T00:00:00	2024-11-08T22:00:00	7	Dirección del viento	6.44
51307	7	Sololá	710	Panajachel	8	Panajachel	7	Julio	2023-07-28T00:00:00	2024-11-08T22:00:00	1	Precipitación	0
51308	7	Sololá	710	Panajachel	8	Panajachel	7	Julio	2023-07-28T00:00:00	2024-11-08T22:00:00	8	Radiación solar	0
51309	7	Sololá	710	Panajachel	8	Panajachel	7	Julio	2023-07-28T00:00:00	2024-11-08T23:00:00	2	Temperatura media	21.7
51310	7	Sololá	710	Panajachel	8	Panajachel	7	Julio	2023-07-28T00:00:00	2024-11-08T23:00:00	4	Temperatura máxima	22.7
51311	7	Sololá	710	Panajachel	8	Panajachel	7	Julio	2023-07-28T00:00:00	2024-11-08T23:00:00	3	Temperatura mínima	21.7
51312	7	Sololá	710	Panajachel	8	Panajachel	7	Julio	2023-07-28T00:00:00	2024-11-08T23:00:00	5	Humedad	72
51313	7	Sololá	710	Panajachel	8	Panajachel	7	Julio	2023-07-28T00:00:00	2024-11-08T23:00:00	6	Velocidad del viento	6.4
51314	7	Sololá	710	Panajachel	8	Panajachel	7	Julio	2023-07-28T00:00:00	2024-11-08T23:00:00	7	Dirección del viento	6.44
51315	7	Sololá	710	Panajachel	8	Panajachel	7	Julio	2023-07-28T00:00:00	2024-11-08T23:00:00	1	Precipitación	0
51316	7	Sololá	710	Panajachel	8	Panajachel	7	Julio	2023-07-28T00:00:00	2024-11-08T23:00:00	8	Radiación solar	0
51317	7	Sololá	710	Panajachel	8	Panajachel	7	Julio	2023-07-29T00:00:00	2024-11-08T00:00:00	2	Temperatura media	21.3
51318	7	Sololá	710	Panajachel	8	Panajachel	7	Julio	2023-07-29T00:00:00	2024-11-08T00:00:00	4	Temperatura máxima	21.7
51319	7	Sololá	710	Panajachel	8	Panajachel	7	Julio	2023-07-29T00:00:00	2024-11-08T00:00:00	3	Temperatura mínima	21.2
51320	7	Sololá	710	Panajachel	8	Panajachel	7	Julio	2023-07-29T00:00:00	2024-11-08T00:00:00	5	Humedad	70
51321	7	Sololá	710	Panajachel	8	Panajachel	7	Julio	2023-07-29T00:00:00	2024-11-08T00:00:00	6	Velocidad del viento	4.8
51322	7	Sololá	710	Panajachel	8	Panajachel	7	Julio	2023-07-29T00:00:00	2024-11-08T00:00:00	7	Dirección del viento	4.83
51323	7	Sololá	710	Panajachel	8	Panajachel	7	Julio	2023-07-29T00:00:00	2024-11-08T00:00:00	1	Precipitación	0
51324	7	Sololá	710	Panajachel	8	Panajachel	7	Julio	2023-07-29T00:00:00	2024-11-08T00:00:00	8	Radiación solar	0
51325	7	Sololá	710	Panajachel	8	Panajachel	7	Julio	2023-07-29T00:00:00	2024-11-08T01:00:00	2	Temperatura media	21.3
51326	7	Sololá	710	Panajachel	8	Panajachel	7	Julio	2023-07-29T00:00:00	2024-11-08T01:00:00	4	Temperatura máxima	21.6
51327	7	Sololá	710	Panajachel	8	Panajachel	7	Julio	2023-07-29T00:00:00	2024-11-08T01:00:00	3	Temperatura mínima	21.2
51328	7	Sololá	710	Panajachel	8	Panajachel	7	Julio	2023-07-29T00:00:00	2024-11-08T01:00:00	5	Humedad	70
51329	7	Sololá	710	Panajachel	8	Panajachel	7	Julio	2023-07-29T00:00:00	2024-11-08T01:00:00	6	Velocidad del viento	4.8
51330	7	Sololá	710	Panajachel	8	Panajachel	7	Julio	2023-07-29T00:00:00	2024-11-08T01:00:00	7	Dirección del viento	4.83
51331	7	Sololá	710	Panajachel	8	Panajachel	7	Julio	2023-07-29T00:00:00	2024-11-08T01:00:00	1	Precipitación	0
51332	7	Sololá	710	Panajachel	8	Panajachel	7	Julio	2023-07-29T00:00:00	2024-11-08T01:00:00	8	Radiación solar	0
51333	7	Sololá	710	Panajachel	8	Panajachel	7	Julio	2023-07-29T00:00:00	2024-11-08T02:00:00	2	Temperatura media	21.2
51334	7	Sololá	710	Panajachel	8	Panajachel	7	Julio	2023-07-29T00:00:00	2024-11-08T02:00:00	4	Temperatura máxima	21.4
51335	7	Sololá	710	Panajachel	8	Panajachel	7	Julio	2023-07-29T00:00:00	2024-11-08T02:00:00	3	Temperatura mínima	21.2
51336	7	Sololá	710	Panajachel	8	Panajachel	7	Julio	2023-07-29T00:00:00	2024-11-08T02:00:00	5	Humedad	73
51337	7	Sololá	710	Panajachel	8	Panajachel	7	Julio	2023-07-29T00:00:00	2024-11-08T02:00:00	6	Velocidad del viento	9.7
51338	7	Sololá	710	Panajachel	8	Panajachel	7	Julio	2023-07-29T00:00:00	2024-11-08T02:00:00	7	Dirección del viento	9.66
51339	7	Sololá	710	Panajachel	8	Panajachel	7	Julio	2023-07-29T00:00:00	2024-11-08T02:00:00	1	Precipitación	0
51340	7	Sololá	710	Panajachel	8	Panajachel	7	Julio	2023-07-29T00:00:00	2024-11-08T02:00:00	8	Radiación solar	0
51341	7	Sololá	710	Panajachel	8	Panajachel	7	Julio	2023-07-29T00:00:00	2024-11-08T03:00:00	2	Temperatura media	19.3
51342	7	Sololá	710	Panajachel	8	Panajachel	7	Julio	2023-07-29T00:00:00	2024-11-08T03:00:00	4	Temperatura máxima	21.2
51343	7	Sololá	710	Panajachel	8	Panajachel	7	Julio	2023-07-29T00:00:00	2024-11-08T03:00:00	3	Temperatura mínima	19.3
51344	7	Sololá	710	Panajachel	8	Panajachel	7	Julio	2023-07-29T00:00:00	2024-11-08T03:00:00	5	Humedad	84
51345	7	Sololá	710	Panajachel	8	Panajachel	7	Julio	2023-07-29T00:00:00	2024-11-08T03:00:00	6	Velocidad del viento	4.8
51346	7	Sololá	710	Panajachel	8	Panajachel	7	Julio	2023-07-29T00:00:00	2024-11-08T03:00:00	7	Dirección del viento	4.83
51347	7	Sololá	710	Panajachel	8	Panajachel	7	Julio	2023-07-29T00:00:00	2024-11-08T03:00:00	1	Precipitación	0
51348	7	Sololá	710	Panajachel	8	Panajachel	7	Julio	2023-07-29T00:00:00	2024-11-08T03:00:00	8	Radiación solar	0
51349	7	Sololá	710	Panajachel	8	Panajachel	7	Julio	2023-07-29T00:00:00	2024-11-08T04:00:00	2	Temperatura media	20.1
51350	7	Sololá	710	Panajachel	8	Panajachel	7	Julio	2023-07-29T00:00:00	2024-11-08T04:00:00	4	Temperatura máxima	20.2
51351	7	Sololá	710	Panajachel	8	Panajachel	7	Julio	2023-07-29T00:00:00	2024-11-08T04:00:00	3	Temperatura mínima	18.7
51352	7	Sololá	710	Panajachel	8	Panajachel	7	Julio	2023-07-29T00:00:00	2024-11-08T04:00:00	5	Humedad	81
51353	7	Sololá	710	Panajachel	8	Panajachel	7	Julio	2023-07-29T00:00:00	2024-11-08T04:00:00	6	Velocidad del viento	4.8
51354	7	Sololá	710	Panajachel	8	Panajachel	7	Julio	2023-07-29T00:00:00	2024-11-08T04:00:00	7	Dirección del viento	4.83
51355	7	Sololá	710	Panajachel	8	Panajachel	7	Julio	2023-07-29T00:00:00	2024-11-08T04:00:00	1	Precipitación	0
51356	7	Sololá	710	Panajachel	8	Panajachel	7	Julio	2023-07-29T00:00:00	2024-11-08T04:00:00	8	Radiación solar	0
51357	7	Sololá	710	Panajachel	8	Panajachel	7	Julio	2023-07-29T00:00:00	2024-11-08T05:00:00	2	Temperatura media	17.9
51358	7	Sololá	710	Panajachel	8	Panajachel	7	Julio	2023-07-29T00:00:00	2024-11-08T05:00:00	4	Temperatura máxima	20.1
51359	7	Sololá	710	Panajachel	8	Panajachel	7	Julio	2023-07-29T00:00:00	2024-11-08T05:00:00	3	Temperatura mínima	17.9
51360	7	Sololá	710	Panajachel	8	Panajachel	7	Julio	2023-07-29T00:00:00	2024-11-08T05:00:00	5	Humedad	94
51361	7	Sololá	710	Panajachel	8	Panajachel	7	Julio	2023-07-29T00:00:00	2024-11-08T05:00:00	6	Velocidad del viento	1.6
51362	7	Sololá	710	Panajachel	8	Panajachel	7	Julio	2023-07-29T00:00:00	2024-11-08T05:00:00	7	Dirección del viento	1.61
51363	7	Sololá	710	Panajachel	8	Panajachel	7	Julio	2023-07-29T00:00:00	2024-11-08T05:00:00	1	Precipitación	0.8
51364	7	Sololá	710	Panajachel	8	Panajachel	7	Julio	2023-07-29T00:00:00	2024-11-08T05:00:00	8	Radiación solar	0
51365	7	Sololá	710	Panajachel	8	Panajachel	7	Julio	2023-07-29T00:00:00	2024-11-08T06:00:00	2	Temperatura media	17.7
51366	7	Sololá	710	Panajachel	8	Panajachel	7	Julio	2023-07-29T00:00:00	2024-11-08T06:00:00	4	Temperatura máxima	17.9
51367	7	Sololá	710	Panajachel	8	Panajachel	7	Julio	2023-07-29T00:00:00	2024-11-08T06:00:00	3	Temperatura mínima	17.7
51368	7	Sololá	710	Panajachel	8	Panajachel	7	Julio	2023-07-29T00:00:00	2024-11-08T06:00:00	5	Humedad	95
51369	7	Sololá	710	Panajachel	8	Panajachel	7	Julio	2023-07-29T00:00:00	2024-11-08T06:00:00	6	Velocidad del viento	1.6
51370	7	Sololá	710	Panajachel	8	Panajachel	7	Julio	2023-07-29T00:00:00	2024-11-08T06:00:00	7	Dirección del viento	1.61
51371	7	Sololá	710	Panajachel	8	Panajachel	7	Julio	2023-07-29T00:00:00	2024-11-08T06:00:00	1	Precipitación	0.6
51372	7	Sololá	710	Panajachel	8	Panajachel	7	Julio	2023-07-29T00:00:00	2024-11-08T06:00:00	8	Radiación solar	0
51373	7	Sololá	710	Panajachel	8	Panajachel	7	Julio	2023-07-29T00:00:00	2024-11-08T07:00:00	2	Temperatura media	18.3
51374	7	Sololá	710	Panajachel	8	Panajachel	7	Julio	2023-07-29T00:00:00	2024-11-08T07:00:00	4	Temperatura máxima	18.3
51375	7	Sololá	710	Panajachel	8	Panajachel	7	Julio	2023-07-29T00:00:00	2024-11-08T07:00:00	3	Temperatura mínima	17.7
51376	7	Sololá	710	Panajachel	8	Panajachel	7	Julio	2023-07-29T00:00:00	2024-11-08T07:00:00	5	Humedad	95
51377	7	Sololá	710	Panajachel	8	Panajachel	7	Julio	2023-07-29T00:00:00	2024-11-08T07:00:00	6	Velocidad del viento	1.6
51378	7	Sololá	710	Panajachel	8	Panajachel	7	Julio	2023-07-29T00:00:00	2024-11-08T07:00:00	7	Dirección del viento	1.61
51379	7	Sololá	710	Panajachel	8	Panajachel	7	Julio	2023-07-29T00:00:00	2024-11-08T07:00:00	1	Precipitación	0
51380	7	Sololá	710	Panajachel	8	Panajachel	7	Julio	2023-07-29T00:00:00	2024-11-08T07:00:00	8	Radiación solar	46
51381	7	Sololá	710	Panajachel	8	Panajachel	7	Julio	2023-07-29T00:00:00	2024-11-08T08:00:00	2	Temperatura media	20.3
51382	7	Sololá	710	Panajachel	8	Panajachel	7	Julio	2023-07-29T00:00:00	2024-11-08T08:00:00	4	Temperatura máxima	20.3
51383	7	Sololá	710	Panajachel	8	Panajachel	7	Julio	2023-07-29T00:00:00	2024-11-08T08:00:00	3	Temperatura mínima	18.3
51384	7	Sololá	710	Panajachel	8	Panajachel	7	Julio	2023-07-29T00:00:00	2024-11-08T08:00:00	5	Humedad	84
51385	7	Sololá	710	Panajachel	8	Panajachel	7	Julio	2023-07-29T00:00:00	2024-11-08T08:00:00	6	Velocidad del viento	1.6
51386	7	Sololá	710	Panajachel	8	Panajachel	7	Julio	2023-07-29T00:00:00	2024-11-08T08:00:00	7	Dirección del viento	1.61
51387	7	Sololá	710	Panajachel	8	Panajachel	7	Julio	2023-07-29T00:00:00	2024-11-08T08:00:00	1	Precipitación	0
51388	7	Sololá	710	Panajachel	8	Panajachel	7	Julio	2023-07-29T00:00:00	2024-11-08T08:00:00	8	Radiación solar	167
51389	7	Sololá	710	Panajachel	8	Panajachel	7	Julio	2023-07-29T00:00:00	2024-11-08T09:00:00	2	Temperatura media	21.9
51390	7	Sololá	710	Panajachel	8	Panajachel	7	Julio	2023-07-29T00:00:00	2024-11-08T09:00:00	4	Temperatura máxima	21.9
51391	7	Sololá	710	Panajachel	8	Panajachel	7	Julio	2023-07-29T00:00:00	2024-11-08T09:00:00	3	Temperatura mínima	20.3
51392	7	Sololá	710	Panajachel	8	Panajachel	7	Julio	2023-07-29T00:00:00	2024-11-08T09:00:00	5	Humedad	78
51393	7	Sololá	710	Panajachel	8	Panajachel	7	Julio	2023-07-29T00:00:00	2024-11-08T09:00:00	6	Velocidad del viento	3.2
51394	7	Sololá	710	Panajachel	8	Panajachel	7	Julio	2023-07-29T00:00:00	2024-11-08T09:00:00	7	Dirección del viento	3.22
51395	7	Sololá	710	Panajachel	8	Panajachel	7	Julio	2023-07-29T00:00:00	2024-11-08T09:00:00	1	Precipitación	0
51396	7	Sololá	710	Panajachel	8	Panajachel	7	Julio	2023-07-29T00:00:00	2024-11-08T09:00:00	8	Radiación solar	276
51397	7	Sololá	710	Panajachel	8	Panajachel	7	Julio	2023-07-29T00:00:00	2024-11-08T10:00:00	2	Temperatura media	23.5
51398	7	Sololá	710	Panajachel	8	Panajachel	7	Julio	2023-07-29T00:00:00	2024-11-08T10:00:00	4	Temperatura máxima	23.8
51399	7	Sololá	710	Panajachel	8	Panajachel	7	Julio	2023-07-29T00:00:00	2024-11-08T10:00:00	3	Temperatura mínima	21.9
51400	7	Sololá	710	Panajachel	8	Panajachel	7	Julio	2023-07-29T00:00:00	2024-11-08T10:00:00	5	Humedad	70
51401	7	Sololá	710	Panajachel	8	Panajachel	7	Julio	2023-07-29T00:00:00	2024-11-08T10:00:00	6	Velocidad del viento	3.2
51402	7	Sololá	710	Panajachel	8	Panajachel	7	Julio	2023-07-29T00:00:00	2024-11-08T10:00:00	7	Dirección del viento	3.22
51403	7	Sololá	710	Panajachel	8	Panajachel	7	Julio	2023-07-29T00:00:00	2024-11-08T10:00:00	1	Precipitación	0.2
51404	7	Sololá	710	Panajachel	8	Panajachel	7	Julio	2023-07-29T00:00:00	2024-11-08T10:00:00	8	Radiación solar	512
51405	7	Sololá	710	Panajachel	8	Panajachel	7	Julio	2023-07-29T00:00:00	2024-11-08T11:00:00	2	Temperatura media	22.7
51406	7	Sololá	710	Panajachel	8	Panajachel	7	Julio	2023-07-29T00:00:00	2024-11-08T11:00:00	4	Temperatura máxima	23.5
51407	7	Sololá	710	Panajachel	8	Panajachel	7	Julio	2023-07-29T00:00:00	2024-11-08T11:00:00	3	Temperatura mínima	22.7
51408	7	Sololá	710	Panajachel	8	Panajachel	7	Julio	2023-07-29T00:00:00	2024-11-08T11:00:00	5	Humedad	74
51409	7	Sololá	710	Panajachel	8	Panajachel	7	Julio	2023-07-29T00:00:00	2024-11-08T11:00:00	6	Velocidad del viento	4.8
51410	7	Sololá	710	Panajachel	8	Panajachel	7	Julio	2023-07-29T00:00:00	2024-11-08T11:00:00	7	Dirección del viento	4.83
51411	7	Sololá	710	Panajachel	8	Panajachel	7	Julio	2023-07-29T00:00:00	2024-11-08T11:00:00	1	Precipitación	0
51412	7	Sololá	710	Panajachel	8	Panajachel	7	Julio	2023-07-29T00:00:00	2024-11-08T11:00:00	8	Radiación solar	293
51413	7	Sololá	710	Panajachel	8	Panajachel	7	Julio	2023-07-29T00:00:00	2024-11-08T12:00:00	2	Temperatura media	22.1
51414	7	Sololá	710	Panajachel	8	Panajachel	7	Julio	2023-07-29T00:00:00	2024-11-08T12:00:00	4	Temperatura máxima	22.9
51415	7	Sololá	710	Panajachel	8	Panajachel	7	Julio	2023-07-29T00:00:00	2024-11-08T12:00:00	3	Temperatura mínima	22.1
51416	7	Sololá	710	Panajachel	8	Panajachel	7	Julio	2023-07-29T00:00:00	2024-11-08T12:00:00	5	Humedad	81
51417	7	Sololá	710	Panajachel	8	Panajachel	7	Julio	2023-07-29T00:00:00	2024-11-08T12:00:00	6	Velocidad del viento	3.2
51418	7	Sololá	710	Panajachel	8	Panajachel	7	Julio	2023-07-29T00:00:00	2024-11-08T12:00:00	7	Dirección del viento	3.22
51419	7	Sololá	710	Panajachel	8	Panajachel	7	Julio	2023-07-29T00:00:00	2024-11-08T12:00:00	1	Precipitación	0.2
51420	7	Sololá	710	Panajachel	8	Panajachel	7	Julio	2023-07-29T00:00:00	2024-11-08T12:00:00	8	Radiación solar	177
51421	7	Sololá	710	Panajachel	8	Panajachel	7	Julio	2023-07-29T00:00:00	2024-11-08T13:00:00	2	Temperatura media	19.4
51422	7	Sololá	710	Panajachel	8	Panajachel	7	Julio	2023-07-29T00:00:00	2024-11-08T13:00:00	4	Temperatura máxima	22.1
51423	7	Sololá	710	Panajachel	8	Panajachel	7	Julio	2023-07-29T00:00:00	2024-11-08T13:00:00	3	Temperatura mínima	19.1
51424	7	Sololá	710	Panajachel	8	Panajachel	7	Julio	2023-07-29T00:00:00	2024-11-08T13:00:00	5	Humedad	91
51425	7	Sololá	710	Panajachel	8	Panajachel	7	Julio	2023-07-29T00:00:00	2024-11-08T13:00:00	6	Velocidad del viento	3.2
51426	7	Sololá	710	Panajachel	8	Panajachel	7	Julio	2023-07-29T00:00:00	2024-11-08T13:00:00	7	Dirección del viento	3.22
51427	7	Sololá	710	Panajachel	8	Panajachel	7	Julio	2023-07-29T00:00:00	2024-11-08T13:00:00	1	Precipitación	4.4
51428	7	Sololá	710	Panajachel	8	Panajachel	7	Julio	2023-07-29T00:00:00	2024-11-08T13:00:00	8	Radiación solar	127
51429	7	Sololá	710	Panajachel	8	Panajachel	7	Julio	2023-07-29T00:00:00	2024-11-08T14:00:00	2	Temperatura media	20.1
51430	7	Sololá	710	Panajachel	8	Panajachel	7	Julio	2023-07-29T00:00:00	2024-11-08T14:00:00	4	Temperatura máxima	20.1
51431	7	Sololá	710	Panajachel	8	Panajachel	7	Julio	2023-07-29T00:00:00	2024-11-08T14:00:00	3	Temperatura mínima	18.9
51432	7	Sololá	710	Panajachel	8	Panajachel	7	Julio	2023-07-29T00:00:00	2024-11-08T14:00:00	5	Humedad	88
51433	7	Sololá	710	Panajachel	8	Panajachel	7	Julio	2023-07-29T00:00:00	2024-11-08T14:00:00	6	Velocidad del viento	3.2
51434	7	Sololá	710	Panajachel	8	Panajachel	7	Julio	2023-07-29T00:00:00	2024-11-08T14:00:00	7	Dirección del viento	3.22
51435	7	Sololá	710	Panajachel	8	Panajachel	7	Julio	2023-07-29T00:00:00	2024-11-08T14:00:00	1	Precipitación	2.2
51436	7	Sololá	710	Panajachel	8	Panajachel	7	Julio	2023-07-29T00:00:00	2024-11-08T14:00:00	8	Radiación solar	165
51437	7	Sololá	710	Panajachel	8	Panajachel	7	Julio	2023-07-29T00:00:00	2024-11-08T15:00:00	2	Temperatura media	21.6
51438	7	Sololá	710	Panajachel	8	Panajachel	7	Julio	2023-07-29T00:00:00	2024-11-08T15:00:00	4	Temperatura máxima	21.6
51439	7	Sololá	710	Panajachel	8	Panajachel	7	Julio	2023-07-29T00:00:00	2024-11-08T15:00:00	3	Temperatura mínima	20.1
51440	7	Sololá	710	Panajachel	8	Panajachel	7	Julio	2023-07-29T00:00:00	2024-11-08T15:00:00	5	Humedad	84
51441	7	Sololá	710	Panajachel	8	Panajachel	7	Julio	2023-07-29T00:00:00	2024-11-08T15:00:00	6	Velocidad del viento	0
51442	7	Sololá	710	Panajachel	8	Panajachel	7	Julio	2023-07-29T00:00:00	2024-11-08T15:00:00	7	Dirección del viento	0
51443	7	Sololá	710	Panajachel	8	Panajachel	7	Julio	2023-07-29T00:00:00	2024-11-08T15:00:00	1	Precipitación	0
51444	7	Sololá	710	Panajachel	8	Panajachel	7	Julio	2023-07-29T00:00:00	2024-11-08T15:00:00	8	Radiación solar	302
51445	7	Sololá	710	Panajachel	8	Panajachel	7	Julio	2023-07-29T00:00:00	2024-11-08T16:00:00	2	Temperatura media	22.3
51446	7	Sololá	710	Panajachel	8	Panajachel	7	Julio	2023-07-29T00:00:00	2024-11-08T16:00:00	4	Temperatura máxima	22.3
51447	7	Sololá	710	Panajachel	8	Panajachel	7	Julio	2023-07-29T00:00:00	2024-11-08T16:00:00	3	Temperatura mínima	21.6
51448	7	Sololá	710	Panajachel	8	Panajachel	7	Julio	2023-07-29T00:00:00	2024-11-08T16:00:00	5	Humedad	81
51449	7	Sololá	710	Panajachel	8	Panajachel	7	Julio	2023-07-29T00:00:00	2024-11-08T16:00:00	6	Velocidad del viento	4.8
51450	7	Sololá	710	Panajachel	8	Panajachel	7	Julio	2023-07-29T00:00:00	2024-11-08T16:00:00	7	Dirección del viento	4.83
51451	7	Sololá	710	Panajachel	8	Panajachel	7	Julio	2023-07-29T00:00:00	2024-11-08T16:00:00	1	Precipitación	0
51452	7	Sololá	710	Panajachel	8	Panajachel	7	Julio	2023-07-29T00:00:00	2024-11-08T16:00:00	8	Radiación solar	286
51453	7	Sololá	710	Panajachel	8	Panajachel	7	Julio	2023-07-29T00:00:00	2024-11-08T17:00:00	2	Temperatura media	22.6
51454	7	Sololá	710	Panajachel	8	Panajachel	7	Julio	2023-07-29T00:00:00	2024-11-08T17:00:00	4	Temperatura máxima	22.7
51455	7	Sololá	710	Panajachel	8	Panajachel	7	Julio	2023-07-29T00:00:00	2024-11-08T17:00:00	3	Temperatura mínima	22.3
51456	7	Sololá	710	Panajachel	8	Panajachel	7	Julio	2023-07-29T00:00:00	2024-11-08T17:00:00	5	Humedad	82
51457	7	Sololá	710	Panajachel	8	Panajachel	7	Julio	2023-07-29T00:00:00	2024-11-08T17:00:00	6	Velocidad del viento	1.6
51458	7	Sololá	710	Panajachel	8	Panajachel	7	Julio	2023-07-29T00:00:00	2024-11-08T17:00:00	7	Dirección del viento	1.61
51459	7	Sololá	710	Panajachel	8	Panajachel	7	Julio	2023-07-29T00:00:00	2024-11-08T17:00:00	1	Precipitación	0
51460	7	Sololá	710	Panajachel	8	Panajachel	7	Julio	2023-07-29T00:00:00	2024-11-08T17:00:00	8	Radiación solar	152
51461	7	Sololá	710	Panajachel	8	Panajachel	7	Julio	2023-07-29T00:00:00	2024-11-08T18:00:00	2	Temperatura media	21.3
51462	7	Sololá	710	Panajachel	8	Panajachel	7	Julio	2023-07-29T00:00:00	2024-11-08T18:00:00	4	Temperatura máxima	22.6
51463	7	Sololá	710	Panajachel	8	Panajachel	7	Julio	2023-07-29T00:00:00	2024-11-08T18:00:00	3	Temperatura mínima	21.3
51464	7	Sololá	710	Panajachel	8	Panajachel	7	Julio	2023-07-29T00:00:00	2024-11-08T18:00:00	5	Humedad	89
51465	7	Sololá	710	Panajachel	8	Panajachel	7	Julio	2023-07-29T00:00:00	2024-11-08T18:00:00	6	Velocidad del viento	0
51466	7	Sololá	710	Panajachel	8	Panajachel	7	Julio	2023-07-29T00:00:00	2024-11-08T18:00:00	7	Dirección del viento	0
51467	7	Sololá	710	Panajachel	8	Panajachel	7	Julio	2023-07-29T00:00:00	2024-11-08T18:00:00	1	Precipitación	0.4
51468	7	Sololá	710	Panajachel	8	Panajachel	7	Julio	2023-07-29T00:00:00	2024-11-08T18:00:00	8	Radiación solar	17
51469	7	Sololá	710	Panajachel	8	Panajachel	7	Julio	2023-07-29T00:00:00	2024-11-08T19:00:00	2	Temperatura media	18.9
51470	7	Sololá	710	Panajachel	8	Panajachel	7	Julio	2023-07-29T00:00:00	2024-11-08T19:00:00	4	Temperatura máxima	21.2
51471	7	Sololá	710	Panajachel	8	Panajachel	7	Julio	2023-07-29T00:00:00	2024-11-08T19:00:00	3	Temperatura mínima	18.9
51472	7	Sololá	710	Panajachel	8	Panajachel	7	Julio	2023-07-29T00:00:00	2024-11-08T19:00:00	5	Humedad	95
51473	7	Sololá	710	Panajachel	8	Panajachel	7	Julio	2023-07-29T00:00:00	2024-11-08T19:00:00	6	Velocidad del viento	0
51474	7	Sololá	710	Panajachel	8	Panajachel	7	Julio	2023-07-29T00:00:00	2024-11-08T19:00:00	7	Dirección del viento	0
51475	7	Sololá	710	Panajachel	8	Panajachel	7	Julio	2023-07-29T00:00:00	2024-11-08T19:00:00	1	Precipitación	2.4
51476	7	Sololá	710	Panajachel	8	Panajachel	7	Julio	2023-07-29T00:00:00	2024-11-08T19:00:00	8	Radiación solar	0
51477	7	Sololá	710	Panajachel	8	Panajachel	7	Julio	2023-07-29T00:00:00	2024-11-08T20:00:00	2	Temperatura media	18.6
51478	7	Sololá	710	Panajachel	8	Panajachel	7	Julio	2023-07-29T00:00:00	2024-11-08T20:00:00	4	Temperatura máxima	18.9
51479	7	Sololá	710	Panajachel	8	Panajachel	7	Julio	2023-07-29T00:00:00	2024-11-08T20:00:00	3	Temperatura mínima	18.6
51480	7	Sololá	710	Panajachel	8	Panajachel	7	Julio	2023-07-29T00:00:00	2024-11-08T20:00:00	5	Humedad	94
51481	7	Sololá	710	Panajachel	8	Panajachel	7	Julio	2023-07-29T00:00:00	2024-11-08T20:00:00	6	Velocidad del viento	1.6
51482	7	Sololá	710	Panajachel	8	Panajachel	7	Julio	2023-07-29T00:00:00	2024-11-08T20:00:00	7	Dirección del viento	1.61
51483	7	Sololá	710	Panajachel	8	Panajachel	7	Julio	2023-07-29T00:00:00	2024-11-08T20:00:00	1	Precipitación	0.8
51484	7	Sololá	710	Panajachel	8	Panajachel	7	Julio	2023-07-29T00:00:00	2024-11-08T20:00:00	8	Radiación solar	0
51485	7	Sololá	710	Panajachel	8	Panajachel	7	Julio	2023-07-29T00:00:00	2024-11-08T21:00:00	2	Temperatura media	17.7
51486	7	Sololá	710	Panajachel	8	Panajachel	7	Julio	2023-07-29T00:00:00	2024-11-08T21:00:00	4	Temperatura máxima	18.6
51487	7	Sololá	710	Panajachel	8	Panajachel	7	Julio	2023-07-29T00:00:00	2024-11-08T21:00:00	3	Temperatura mínima	17.6
51488	7	Sololá	710	Panajachel	8	Panajachel	7	Julio	2023-07-29T00:00:00	2024-11-08T21:00:00	5	Humedad	94
51489	7	Sololá	710	Panajachel	8	Panajachel	7	Julio	2023-07-29T00:00:00	2024-11-08T21:00:00	6	Velocidad del viento	3.2
51490	7	Sololá	710	Panajachel	8	Panajachel	7	Julio	2023-07-29T00:00:00	2024-11-08T21:00:00	7	Dirección del viento	3.22
51491	7	Sololá	710	Panajachel	8	Panajachel	7	Julio	2023-07-29T00:00:00	2024-11-08T21:00:00	1	Precipitación	4.2
51492	7	Sololá	710	Panajachel	8	Panajachel	7	Julio	2023-07-29T00:00:00	2024-11-08T21:00:00	8	Radiación solar	0
51493	7	Sololá	710	Panajachel	8	Panajachel	7	Julio	2023-07-29T00:00:00	2024-11-08T22:00:00	2	Temperatura media	17.4
51494	7	Sololá	710	Panajachel	8	Panajachel	7	Julio	2023-07-29T00:00:00	2024-11-08T22:00:00	4	Temperatura máxima	17.7
51495	7	Sololá	710	Panajachel	8	Panajachel	7	Julio	2023-07-29T00:00:00	2024-11-08T22:00:00	3	Temperatura mínima	17.3
51496	7	Sololá	710	Panajachel	8	Panajachel	7	Julio	2023-07-29T00:00:00	2024-11-08T22:00:00	5	Humedad	96
51497	7	Sololá	710	Panajachel	8	Panajachel	7	Julio	2023-07-29T00:00:00	2024-11-08T22:00:00	6	Velocidad del viento	1.6
51498	7	Sololá	710	Panajachel	8	Panajachel	7	Julio	2023-07-29T00:00:00	2024-11-08T22:00:00	7	Dirección del viento	1.61
51499	7	Sololá	710	Panajachel	8	Panajachel	7	Julio	2023-07-29T00:00:00	2024-11-08T22:00:00	1	Precipitación	2.2
51500	7	Sololá	710	Panajachel	8	Panajachel	7	Julio	2023-07-29T00:00:00	2024-11-08T22:00:00	8	Radiación solar	0
51501	7	Sololá	710	Panajachel	8	Panajachel	7	Julio	2023-07-29T00:00:00	2024-11-08T23:00:00	2	Temperatura media	17.3
51502	7	Sololá	710	Panajachel	8	Panajachel	7	Julio	2023-07-29T00:00:00	2024-11-08T23:00:00	4	Temperatura máxima	17.6
51503	7	Sololá	710	Panajachel	8	Panajachel	7	Julio	2023-07-29T00:00:00	2024-11-08T23:00:00	3	Temperatura mínima	17.3
51504	7	Sololá	710	Panajachel	8	Panajachel	7	Julio	2023-07-29T00:00:00	2024-11-08T23:00:00	5	Humedad	95
51505	7	Sololá	710	Panajachel	8	Panajachel	7	Julio	2023-07-29T00:00:00	2024-11-08T23:00:00	6	Velocidad del viento	1.6
51506	7	Sololá	710	Panajachel	8	Panajachel	7	Julio	2023-07-29T00:00:00	2024-11-08T23:00:00	7	Dirección del viento	1.61
51507	7	Sololá	710	Panajachel	8	Panajachel	7	Julio	2023-07-29T00:00:00	2024-11-08T23:00:00	1	Precipitación	0.2
51508	7	Sololá	710	Panajachel	8	Panajachel	7	Julio	2023-07-29T00:00:00	2024-11-08T23:00:00	8	Radiación solar	0
51509	7	Sololá	710	Panajachel	8	Panajachel	7	Julio	2023-07-30T00:00:00	2024-11-08T00:00:00	2	Temperatura media	17.1
51510	7	Sololá	710	Panajachel	8	Panajachel	7	Julio	2023-07-30T00:00:00	2024-11-08T00:00:00	4	Temperatura máxima	17.3
51511	7	Sololá	710	Panajachel	8	Panajachel	7	Julio	2023-07-30T00:00:00	2024-11-08T00:00:00	3	Temperatura mínima	17.1
51512	7	Sololá	710	Panajachel	8	Panajachel	7	Julio	2023-07-30T00:00:00	2024-11-08T00:00:00	5	Humedad	95
51513	7	Sololá	710	Panajachel	8	Panajachel	7	Julio	2023-07-30T00:00:00	2024-11-08T00:00:00	6	Velocidad del viento	1.6
51514	7	Sololá	710	Panajachel	8	Panajachel	7	Julio	2023-07-30T00:00:00	2024-11-08T00:00:00	7	Dirección del viento	1.61
51515	7	Sololá	710	Panajachel	8	Panajachel	7	Julio	2023-07-30T00:00:00	2024-11-08T00:00:00	1	Precipitación	0
51516	7	Sololá	710	Panajachel	8	Panajachel	7	Julio	2023-07-30T00:00:00	2024-11-08T00:00:00	8	Radiación solar	0
51517	7	Sololá	710	Panajachel	8	Panajachel	7	Julio	2023-07-30T00:00:00	2024-11-08T01:00:00	2	Temperatura media	17.1
51518	7	Sololá	710	Panajachel	8	Panajachel	7	Julio	2023-07-30T00:00:00	2024-11-08T01:00:00	4	Temperatura máxima	17.2
51519	7	Sololá	710	Panajachel	8	Panajachel	7	Julio	2023-07-30T00:00:00	2024-11-08T01:00:00	3	Temperatura mínima	17
51520	7	Sololá	710	Panajachel	8	Panajachel	7	Julio	2023-07-30T00:00:00	2024-11-08T01:00:00	5	Humedad	96
51521	7	Sololá	710	Panajachel	8	Panajachel	7	Julio	2023-07-30T00:00:00	2024-11-08T01:00:00	6	Velocidad del viento	1.6
51522	7	Sololá	710	Panajachel	8	Panajachel	7	Julio	2023-07-30T00:00:00	2024-11-08T01:00:00	7	Dirección del viento	1.61
51523	7	Sololá	710	Panajachel	8	Panajachel	7	Julio	2023-07-30T00:00:00	2024-11-08T01:00:00	1	Precipitación	0
51524	7	Sololá	710	Panajachel	8	Panajachel	7	Julio	2023-07-30T00:00:00	2024-11-08T01:00:00	8	Radiación solar	0
51525	7	Sololá	710	Panajachel	8	Panajachel	7	Julio	2023-07-30T00:00:00	2024-11-08T02:00:00	2	Temperatura media	17.8
51526	7	Sololá	710	Panajachel	8	Panajachel	7	Julio	2023-07-30T00:00:00	2024-11-08T02:00:00	4	Temperatura máxima	17.8
51527	7	Sololá	710	Panajachel	8	Panajachel	7	Julio	2023-07-30T00:00:00	2024-11-08T02:00:00	3	Temperatura mínima	16.9
51528	7	Sololá	710	Panajachel	8	Panajachel	7	Julio	2023-07-30T00:00:00	2024-11-08T02:00:00	5	Humedad	89
51529	7	Sololá	710	Panajachel	8	Panajachel	7	Julio	2023-07-30T00:00:00	2024-11-08T02:00:00	6	Velocidad del viento	1.6
51530	7	Sololá	710	Panajachel	8	Panajachel	7	Julio	2023-07-30T00:00:00	2024-11-08T02:00:00	7	Dirección del viento	1.61
51531	7	Sololá	710	Panajachel	8	Panajachel	7	Julio	2023-07-30T00:00:00	2024-11-08T02:00:00	1	Precipitación	0
51532	7	Sololá	710	Panajachel	8	Panajachel	7	Julio	2023-07-30T00:00:00	2024-11-08T02:00:00	8	Radiación solar	0
51533	7	Sololá	710	Panajachel	8	Panajachel	7	Julio	2023-07-30T00:00:00	2024-11-08T03:00:00	2	Temperatura media	17.2
51534	7	Sololá	710	Panajachel	8	Panajachel	7	Julio	2023-07-30T00:00:00	2024-11-08T03:00:00	4	Temperatura máxima	17.8
51535	7	Sololá	710	Panajachel	8	Panajachel	7	Julio	2023-07-30T00:00:00	2024-11-08T03:00:00	3	Temperatura mínima	17.2
51536	7	Sololá	710	Panajachel	8	Panajachel	7	Julio	2023-07-30T00:00:00	2024-11-08T03:00:00	5	Humedad	90
51537	7	Sololá	710	Panajachel	8	Panajachel	7	Julio	2023-07-30T00:00:00	2024-11-08T03:00:00	6	Velocidad del viento	1.6
51538	7	Sololá	710	Panajachel	8	Panajachel	7	Julio	2023-07-30T00:00:00	2024-11-08T03:00:00	7	Dirección del viento	1.61
51539	7	Sololá	710	Panajachel	8	Panajachel	7	Julio	2023-07-30T00:00:00	2024-11-08T03:00:00	1	Precipitación	0
51540	7	Sololá	710	Panajachel	8	Panajachel	7	Julio	2023-07-30T00:00:00	2024-11-08T03:00:00	8	Radiación solar	0
51541	7	Sololá	710	Panajachel	8	Panajachel	7	Julio	2023-07-30T00:00:00	2024-11-08T04:00:00	2	Temperatura media	17
51542	7	Sololá	710	Panajachel	8	Panajachel	7	Julio	2023-07-30T00:00:00	2024-11-08T04:00:00	4	Temperatura máxima	17.4
51543	7	Sololá	710	Panajachel	8	Panajachel	7	Julio	2023-07-30T00:00:00	2024-11-08T04:00:00	3	Temperatura mínima	17
51544	7	Sololá	710	Panajachel	8	Panajachel	7	Julio	2023-07-30T00:00:00	2024-11-08T04:00:00	5	Humedad	90
51545	7	Sololá	710	Panajachel	8	Panajachel	7	Julio	2023-07-30T00:00:00	2024-11-08T04:00:00	6	Velocidad del viento	1.6
51546	7	Sololá	710	Panajachel	8	Panajachel	7	Julio	2023-07-30T00:00:00	2024-11-08T04:00:00	7	Dirección del viento	1.61
51547	7	Sololá	710	Panajachel	8	Panajachel	7	Julio	2023-07-30T00:00:00	2024-11-08T04:00:00	1	Precipitación	0
51548	7	Sololá	710	Panajachel	8	Panajachel	7	Julio	2023-07-30T00:00:00	2024-11-08T04:00:00	8	Radiación solar	0
51549	7	Sololá	710	Panajachel	8	Panajachel	7	Julio	2023-07-30T00:00:00	2024-11-08T05:00:00	2	Temperatura media	16.7
51550	7	Sololá	710	Panajachel	8	Panajachel	7	Julio	2023-07-30T00:00:00	2024-11-08T05:00:00	4	Temperatura máxima	17.2
51551	7	Sololá	710	Panajachel	8	Panajachel	7	Julio	2023-07-30T00:00:00	2024-11-08T05:00:00	3	Temperatura mínima	16.4
51552	7	Sololá	710	Panajachel	8	Panajachel	7	Julio	2023-07-30T00:00:00	2024-11-08T05:00:00	5	Humedad	92
51553	7	Sololá	710	Panajachel	8	Panajachel	7	Julio	2023-07-30T00:00:00	2024-11-08T05:00:00	6	Velocidad del viento	0
51554	7	Sololá	710	Panajachel	8	Panajachel	7	Julio	2023-07-30T00:00:00	2024-11-08T05:00:00	7	Dirección del viento	0
51555	7	Sololá	710	Panajachel	8	Panajachel	7	Julio	2023-07-30T00:00:00	2024-11-08T05:00:00	1	Precipitación	0
51556	7	Sololá	710	Panajachel	8	Panajachel	7	Julio	2023-07-30T00:00:00	2024-11-08T05:00:00	8	Radiación solar	0
51557	7	Sololá	710	Panajachel	8	Panajachel	7	Julio	2023-07-30T00:00:00	2024-11-08T06:00:00	2	Temperatura media	17
51558	7	Sololá	710	Panajachel	8	Panajachel	7	Julio	2023-07-30T00:00:00	2024-11-08T06:00:00	4	Temperatura máxima	17.1
51559	7	Sololá	710	Panajachel	8	Panajachel	7	Julio	2023-07-30T00:00:00	2024-11-08T06:00:00	3	Temperatura mínima	16.7
51560	7	Sololá	710	Panajachel	8	Panajachel	7	Julio	2023-07-30T00:00:00	2024-11-08T06:00:00	5	Humedad	90
51561	7	Sololá	710	Panajachel	8	Panajachel	7	Julio	2023-07-30T00:00:00	2024-11-08T06:00:00	6	Velocidad del viento	1.6
51562	7	Sololá	710	Panajachel	8	Panajachel	7	Julio	2023-07-30T00:00:00	2024-11-08T06:00:00	7	Dirección del viento	1.61
51563	7	Sololá	710	Panajachel	8	Panajachel	7	Julio	2023-07-30T00:00:00	2024-11-08T06:00:00	1	Precipitación	0
51564	7	Sololá	710	Panajachel	8	Panajachel	7	Julio	2023-07-30T00:00:00	2024-11-08T06:00:00	8	Radiación solar	1
51565	7	Sololá	710	Panajachel	8	Panajachel	7	Julio	2023-07-30T00:00:00	2024-11-08T07:00:00	2	Temperatura media	19.6
51566	7	Sololá	710	Panajachel	8	Panajachel	7	Julio	2023-07-30T00:00:00	2024-11-08T07:00:00	4	Temperatura máxima	19.6
51567	7	Sololá	710	Panajachel	8	Panajachel	7	Julio	2023-07-30T00:00:00	2024-11-08T07:00:00	3	Temperatura mínima	16.8
51568	7	Sololá	710	Panajachel	8	Panajachel	7	Julio	2023-07-30T00:00:00	2024-11-08T07:00:00	5	Humedad	83
51569	7	Sololá	710	Panajachel	8	Panajachel	7	Julio	2023-07-30T00:00:00	2024-11-08T07:00:00	6	Velocidad del viento	1.6
51570	7	Sololá	710	Panajachel	8	Panajachel	7	Julio	2023-07-30T00:00:00	2024-11-08T07:00:00	7	Dirección del viento	1.61
51571	7	Sololá	710	Panajachel	8	Panajachel	7	Julio	2023-07-30T00:00:00	2024-11-08T07:00:00	1	Precipitación	0
51572	7	Sololá	710	Panajachel	8	Panajachel	7	Julio	2023-07-30T00:00:00	2024-11-08T07:00:00	8	Radiación solar	92
51573	7	Sololá	710	Panajachel	8	Panajachel	7	Julio	2023-07-30T00:00:00	2024-11-08T08:00:00	2	Temperatura media	22.6
51574	7	Sololá	710	Panajachel	8	Panajachel	7	Julio	2023-07-30T00:00:00	2024-11-08T08:00:00	4	Temperatura máxima	22.6
51575	7	Sololá	710	Panajachel	8	Panajachel	7	Julio	2023-07-30T00:00:00	2024-11-08T08:00:00	3	Temperatura mínima	19.6
51576	7	Sololá	710	Panajachel	8	Panajachel	7	Julio	2023-07-30T00:00:00	2024-11-08T08:00:00	5	Humedad	73
51577	7	Sololá	710	Panajachel	8	Panajachel	7	Julio	2023-07-30T00:00:00	2024-11-08T08:00:00	6	Velocidad del viento	0
51578	7	Sololá	710	Panajachel	8	Panajachel	7	Julio	2023-07-30T00:00:00	2024-11-08T08:00:00	7	Dirección del viento	0
51579	7	Sololá	710	Panajachel	8	Panajachel	7	Julio	2023-07-30T00:00:00	2024-11-08T08:00:00	1	Precipitación	0
51580	7	Sololá	710	Panajachel	8	Panajachel	7	Julio	2023-07-30T00:00:00	2024-11-08T08:00:00	8	Radiación solar	308
51581	7	Sololá	710	Panajachel	8	Panajachel	7	Julio	2023-07-30T00:00:00	2024-11-08T09:00:00	2	Temperatura media	22.7
51582	7	Sololá	710	Panajachel	8	Panajachel	7	Julio	2023-07-30T00:00:00	2024-11-08T09:00:00	4	Temperatura máxima	23.2
51583	7	Sololá	710	Panajachel	8	Panajachel	7	Julio	2023-07-30T00:00:00	2024-11-08T09:00:00	3	Temperatura mínima	22.3
51584	7	Sololá	710	Panajachel	8	Panajachel	7	Julio	2023-07-30T00:00:00	2024-11-08T09:00:00	5	Humedad	74
51585	7	Sololá	710	Panajachel	8	Panajachel	7	Julio	2023-07-30T00:00:00	2024-11-08T09:00:00	6	Velocidad del viento	1.6
51586	7	Sololá	710	Panajachel	8	Panajachel	7	Julio	2023-07-30T00:00:00	2024-11-08T09:00:00	7	Dirección del viento	1.61
51587	7	Sololá	710	Panajachel	8	Panajachel	7	Julio	2023-07-30T00:00:00	2024-11-08T09:00:00	1	Precipitación	0
51588	7	Sololá	710	Panajachel	8	Panajachel	7	Julio	2023-07-30T00:00:00	2024-11-08T09:00:00	8	Radiación solar	532
51589	7	Sololá	710	Panajachel	8	Panajachel	7	Julio	2023-07-30T00:00:00	2024-11-08T10:00:00	2	Temperatura media	22.7
51590	7	Sololá	710	Panajachel	8	Panajachel	7	Julio	2023-07-30T00:00:00	2024-11-08T10:00:00	4	Temperatura máxima	23
51591	7	Sololá	710	Panajachel	8	Panajachel	7	Julio	2023-07-30T00:00:00	2024-11-08T10:00:00	3	Temperatura mínima	22.6
51592	7	Sololá	710	Panajachel	8	Panajachel	7	Julio	2023-07-30T00:00:00	2024-11-08T10:00:00	5	Humedad	76
51593	7	Sololá	710	Panajachel	8	Panajachel	7	Julio	2023-07-30T00:00:00	2024-11-08T10:00:00	6	Velocidad del viento	1.6
51594	7	Sololá	710	Panajachel	8	Panajachel	7	Julio	2023-07-30T00:00:00	2024-11-08T10:00:00	7	Dirección del viento	1.61
51595	7	Sololá	710	Panajachel	8	Panajachel	7	Julio	2023-07-30T00:00:00	2024-11-08T10:00:00	1	Precipitación	0
51596	7	Sololá	710	Panajachel	8	Panajachel	7	Julio	2023-07-30T00:00:00	2024-11-08T10:00:00	8	Radiación solar	658
51597	7	Sololá	710	Panajachel	8	Panajachel	7	Julio	2023-07-30T00:00:00	2024-11-08T11:00:00	2	Temperatura media	24.1
51598	7	Sololá	710	Panajachel	8	Panajachel	7	Julio	2023-07-30T00:00:00	2024-11-08T11:00:00	4	Temperatura máxima	24.5
51599	7	Sololá	710	Panajachel	8	Panajachel	7	Julio	2023-07-30T00:00:00	2024-11-08T11:00:00	3	Temperatura mínima	22.7
51600	7	Sololá	710	Panajachel	8	Panajachel	7	Julio	2023-07-30T00:00:00	2024-11-08T11:00:00	5	Humedad	70
51601	7	Sololá	710	Panajachel	8	Panajachel	7	Julio	2023-07-30T00:00:00	2024-11-08T11:00:00	6	Velocidad del viento	1.6
51602	7	Sololá	710	Panajachel	8	Panajachel	7	Julio	2023-07-30T00:00:00	2024-11-08T11:00:00	7	Dirección del viento	1.61
51603	7	Sololá	710	Panajachel	8	Panajachel	7	Julio	2023-07-30T00:00:00	2024-11-08T11:00:00	1	Precipitación	0
51604	7	Sololá	710	Panajachel	8	Panajachel	7	Julio	2023-07-30T00:00:00	2024-11-08T11:00:00	8	Radiación solar	515
51605	7	Sololá	710	Panajachel	8	Panajachel	7	Julio	2023-07-30T00:00:00	2024-11-08T12:00:00	2	Temperatura media	24.4
51606	7	Sololá	710	Panajachel	8	Panajachel	7	Julio	2023-07-30T00:00:00	2024-11-08T12:00:00	4	Temperatura máxima	25.4
51607	7	Sololá	710	Panajachel	8	Panajachel	7	Julio	2023-07-30T00:00:00	2024-11-08T12:00:00	3	Temperatura mínima	24.1
51608	7	Sololá	710	Panajachel	8	Panajachel	7	Julio	2023-07-30T00:00:00	2024-11-08T12:00:00	5	Humedad	70
51609	7	Sololá	710	Panajachel	8	Panajachel	7	Julio	2023-07-30T00:00:00	2024-11-08T12:00:00	6	Velocidad del viento	3.2
51610	7	Sololá	710	Panajachel	8	Panajachel	7	Julio	2023-07-30T00:00:00	2024-11-08T12:00:00	7	Dirección del viento	3.22
51611	7	Sololá	710	Panajachel	8	Panajachel	7	Julio	2023-07-30T00:00:00	2024-11-08T12:00:00	1	Precipitación	0
51612	7	Sololá	710	Panajachel	8	Panajachel	7	Julio	2023-07-30T00:00:00	2024-11-08T12:00:00	8	Radiación solar	395
51613	7	Sololá	710	Panajachel	8	Panajachel	7	Julio	2023-07-30T00:00:00	2024-11-08T13:00:00	2	Temperatura media	24.9
51614	7	Sololá	710	Panajachel	8	Panajachel	7	Julio	2023-07-30T00:00:00	2024-11-08T13:00:00	4	Temperatura máxima	25.8
51615	7	Sololá	710	Panajachel	8	Panajachel	7	Julio	2023-07-30T00:00:00	2024-11-08T13:00:00	3	Temperatura mínima	24.4
51616	7	Sololá	710	Panajachel	8	Panajachel	7	Julio	2023-07-30T00:00:00	2024-11-08T13:00:00	5	Humedad	74
51617	7	Sololá	710	Panajachel	8	Panajachel	7	Julio	2023-07-30T00:00:00	2024-11-08T13:00:00	6	Velocidad del viento	6.4
51618	7	Sololá	710	Panajachel	8	Panajachel	7	Julio	2023-07-30T00:00:00	2024-11-08T13:00:00	7	Dirección del viento	6.44
51619	7	Sololá	710	Panajachel	8	Panajachel	7	Julio	2023-07-30T00:00:00	2024-11-08T13:00:00	1	Precipitación	0
51620	7	Sololá	710	Panajachel	8	Panajachel	7	Julio	2023-07-30T00:00:00	2024-11-08T13:00:00	8	Radiación solar	387
51621	7	Sololá	710	Panajachel	8	Panajachel	7	Julio	2023-07-30T00:00:00	2024-11-08T14:00:00	2	Temperatura media	25.2
51622	7	Sololá	710	Panajachel	8	Panajachel	7	Julio	2023-07-30T00:00:00	2024-11-08T14:00:00	4	Temperatura máxima	25.9
51623	7	Sololá	710	Panajachel	8	Panajachel	7	Julio	2023-07-30T00:00:00	2024-11-08T14:00:00	3	Temperatura mínima	24.1
51624	7	Sololá	710	Panajachel	8	Panajachel	7	Julio	2023-07-30T00:00:00	2024-11-08T14:00:00	5	Humedad	71
51625	7	Sololá	710	Panajachel	8	Panajachel	7	Julio	2023-07-30T00:00:00	2024-11-08T14:00:00	6	Velocidad del viento	8
51626	7	Sololá	710	Panajachel	8	Panajachel	7	Julio	2023-07-30T00:00:00	2024-11-08T14:00:00	7	Dirección del viento	8.05
51627	7	Sololá	710	Panajachel	8	Panajachel	7	Julio	2023-07-30T00:00:00	2024-11-08T14:00:00	1	Precipitación	0
51628	7	Sololá	710	Panajachel	8	Panajachel	7	Julio	2023-07-30T00:00:00	2024-11-08T14:00:00	8	Radiación solar	921
51629	7	Sololá	710	Panajachel	8	Panajachel	7	Julio	2023-07-30T00:00:00	2024-11-08T15:00:00	2	Temperatura media	25.5
51630	7	Sololá	710	Panajachel	8	Panajachel	7	Julio	2023-07-30T00:00:00	2024-11-08T15:00:00	4	Temperatura máxima	26.6
51631	7	Sololá	710	Panajachel	8	Panajachel	7	Julio	2023-07-30T00:00:00	2024-11-08T15:00:00	3	Temperatura mínima	25.2
51632	7	Sololá	710	Panajachel	8	Panajachel	7	Julio	2023-07-30T00:00:00	2024-11-08T15:00:00	5	Humedad	76
51633	7	Sololá	710	Panajachel	8	Panajachel	7	Julio	2023-07-30T00:00:00	2024-11-08T15:00:00	6	Velocidad del viento	3.2
51634	7	Sololá	710	Panajachel	8	Panajachel	7	Julio	2023-07-30T00:00:00	2024-11-08T15:00:00	7	Dirección del viento	3.22
51635	7	Sololá	710	Panajachel	8	Panajachel	7	Julio	2023-07-30T00:00:00	2024-11-08T15:00:00	1	Precipitación	0
51636	7	Sololá	710	Panajachel	8	Panajachel	7	Julio	2023-07-30T00:00:00	2024-11-08T15:00:00	8	Radiación solar	725
51637	7	Sololá	710	Panajachel	8	Panajachel	7	Julio	2023-07-30T00:00:00	2024-11-08T16:00:00	2	Temperatura media	23.3
51638	7	Sololá	710	Panajachel	8	Panajachel	7	Julio	2023-07-30T00:00:00	2024-11-08T16:00:00	4	Temperatura máxima	25.5
51639	7	Sololá	710	Panajachel	8	Panajachel	7	Julio	2023-07-30T00:00:00	2024-11-08T16:00:00	3	Temperatura mínima	23.3
51640	7	Sololá	710	Panajachel	8	Panajachel	7	Julio	2023-07-30T00:00:00	2024-11-08T16:00:00	5	Humedad	85
51641	7	Sololá	710	Panajachel	8	Panajachel	7	Julio	2023-07-30T00:00:00	2024-11-08T16:00:00	6	Velocidad del viento	3.2
51642	7	Sololá	710	Panajachel	8	Panajachel	7	Julio	2023-07-30T00:00:00	2024-11-08T16:00:00	7	Dirección del viento	3.22
51643	7	Sololá	710	Panajachel	8	Panajachel	7	Julio	2023-07-30T00:00:00	2024-11-08T16:00:00	1	Precipitación	0
51644	7	Sololá	710	Panajachel	8	Panajachel	7	Julio	2023-07-30T00:00:00	2024-11-08T16:00:00	8	Radiación solar	236
51645	7	Sololá	710	Panajachel	8	Panajachel	7	Julio	2023-07-30T00:00:00	2024-11-08T17:00:00	2	Temperatura media	23.4
51646	7	Sololá	710	Panajachel	8	Panajachel	7	Julio	2023-07-30T00:00:00	2024-11-08T17:00:00	4	Temperatura máxima	23.5
51647	7	Sololá	710	Panajachel	8	Panajachel	7	Julio	2023-07-30T00:00:00	2024-11-08T17:00:00	3	Temperatura mínima	22.8
51648	7	Sololá	710	Panajachel	8	Panajachel	7	Julio	2023-07-30T00:00:00	2024-11-08T17:00:00	5	Humedad	82
51649	7	Sololá	710	Panajachel	8	Panajachel	7	Julio	2023-07-30T00:00:00	2024-11-08T17:00:00	6	Velocidad del viento	3.2
51650	7	Sololá	710	Panajachel	8	Panajachel	7	Julio	2023-07-30T00:00:00	2024-11-08T17:00:00	7	Dirección del viento	3.22
51651	7	Sololá	710	Panajachel	8	Panajachel	7	Julio	2023-07-30T00:00:00	2024-11-08T17:00:00	1	Precipitación	0
51652	7	Sololá	710	Panajachel	8	Panajachel	7	Julio	2023-07-30T00:00:00	2024-11-08T17:00:00	8	Radiación solar	118
51653	7	Sololá	710	Panajachel	8	Panajachel	7	Julio	2023-07-30T00:00:00	2024-11-08T18:00:00	2	Temperatura media	23.1
51654	7	Sololá	710	Panajachel	8	Panajachel	7	Julio	2023-07-30T00:00:00	2024-11-08T18:00:00	4	Temperatura máxima	23.4
51655	7	Sololá	710	Panajachel	8	Panajachel	7	Julio	2023-07-30T00:00:00	2024-11-08T18:00:00	3	Temperatura mínima	22.9
51656	7	Sololá	710	Panajachel	8	Panajachel	7	Julio	2023-07-30T00:00:00	2024-11-08T18:00:00	5	Humedad	85
51657	7	Sololá	710	Panajachel	8	Panajachel	7	Julio	2023-07-30T00:00:00	2024-11-08T18:00:00	6	Velocidad del viento	1.6
51658	7	Sololá	710	Panajachel	8	Panajachel	7	Julio	2023-07-30T00:00:00	2024-11-08T18:00:00	7	Dirección del viento	1.61
51659	7	Sololá	710	Panajachel	8	Panajachel	7	Julio	2023-07-30T00:00:00	2024-11-08T18:00:00	1	Precipitación	0
51660	7	Sololá	710	Panajachel	8	Panajachel	7	Julio	2023-07-30T00:00:00	2024-11-08T18:00:00	8	Radiación solar	90
51661	7	Sololá	710	Panajachel	8	Panajachel	7	Julio	2023-07-30T00:00:00	2024-11-08T19:00:00	2	Temperatura media	21.9
51662	7	Sololá	710	Panajachel	8	Panajachel	7	Julio	2023-07-30T00:00:00	2024-11-08T19:00:00	4	Temperatura máxima	23.1
51663	7	Sololá	710	Panajachel	8	Panajachel	7	Julio	2023-07-30T00:00:00	2024-11-08T19:00:00	3	Temperatura mínima	21.9
51664	7	Sololá	710	Panajachel	8	Panajachel	7	Julio	2023-07-30T00:00:00	2024-11-08T19:00:00	5	Humedad	87
51665	7	Sololá	710	Panajachel	8	Panajachel	7	Julio	2023-07-30T00:00:00	2024-11-08T19:00:00	6	Velocidad del viento	1.6
51666	7	Sololá	710	Panajachel	8	Panajachel	7	Julio	2023-07-30T00:00:00	2024-11-08T19:00:00	7	Dirección del viento	1.61
51667	7	Sololá	710	Panajachel	8	Panajachel	7	Julio	2023-07-30T00:00:00	2024-11-08T19:00:00	1	Precipitación	0
51668	7	Sololá	710	Panajachel	8	Panajachel	7	Julio	2023-07-30T00:00:00	2024-11-08T19:00:00	8	Radiación solar	0
51669	7	Sololá	710	Panajachel	8	Panajachel	7	Julio	2023-07-30T00:00:00	2024-11-08T20:00:00	2	Temperatura media	21.6
51670	7	Sololá	710	Panajachel	8	Panajachel	7	Julio	2023-07-30T00:00:00	2024-11-08T20:00:00	4	Temperatura máxima	22
51671	7	Sololá	710	Panajachel	8	Panajachel	7	Julio	2023-07-30T00:00:00	2024-11-08T20:00:00	3	Temperatura mínima	21.6
51672	7	Sololá	710	Panajachel	8	Panajachel	7	Julio	2023-07-30T00:00:00	2024-11-08T20:00:00	5	Humedad	86
51673	7	Sololá	710	Panajachel	8	Panajachel	7	Julio	2023-07-30T00:00:00	2024-11-08T20:00:00	6	Velocidad del viento	6.4
51674	7	Sololá	710	Panajachel	8	Panajachel	7	Julio	2023-07-30T00:00:00	2024-11-08T20:00:00	7	Dirección del viento	6.44
51675	7	Sololá	710	Panajachel	8	Panajachel	7	Julio	2023-07-30T00:00:00	2024-11-08T20:00:00	1	Precipitación	0
51676	7	Sololá	710	Panajachel	8	Panajachel	7	Julio	2023-07-30T00:00:00	2024-11-08T20:00:00	8	Radiación solar	0
51677	7	Sololá	710	Panajachel	8	Panajachel	7	Julio	2023-07-30T00:00:00	2024-11-08T21:00:00	2	Temperatura media	21.1
51678	7	Sololá	710	Panajachel	8	Panajachel	7	Julio	2023-07-30T00:00:00	2024-11-08T21:00:00	4	Temperatura máxima	21.6
51679	7	Sololá	710	Panajachel	8	Panajachel	7	Julio	2023-07-30T00:00:00	2024-11-08T21:00:00	3	Temperatura mínima	21
51680	7	Sololá	710	Panajachel	8	Panajachel	7	Julio	2023-07-30T00:00:00	2024-11-08T21:00:00	5	Humedad	88
51681	7	Sololá	710	Panajachel	8	Panajachel	7	Julio	2023-07-30T00:00:00	2024-11-08T21:00:00	6	Velocidad del viento	1.6
51682	7	Sololá	710	Panajachel	8	Panajachel	7	Julio	2023-07-30T00:00:00	2024-11-08T21:00:00	7	Dirección del viento	1.61
51683	7	Sololá	710	Panajachel	8	Panajachel	7	Julio	2023-07-30T00:00:00	2024-11-08T21:00:00	1	Precipitación	0
51684	7	Sololá	710	Panajachel	8	Panajachel	7	Julio	2023-07-30T00:00:00	2024-11-08T21:00:00	8	Radiación solar	0
51685	7	Sololá	710	Panajachel	8	Panajachel	7	Julio	2023-07-30T00:00:00	2024-11-08T22:00:00	2	Temperatura media	19.9
51686	7	Sololá	710	Panajachel	8	Panajachel	7	Julio	2023-07-30T00:00:00	2024-11-08T22:00:00	4	Temperatura máxima	21.3
51687	7	Sololá	710	Panajachel	8	Panajachel	7	Julio	2023-07-30T00:00:00	2024-11-08T22:00:00	3	Temperatura mínima	19.8
51688	7	Sololá	710	Panajachel	8	Panajachel	7	Julio	2023-07-30T00:00:00	2024-11-08T22:00:00	5	Humedad	85
51689	7	Sololá	710	Panajachel	8	Panajachel	7	Julio	2023-07-30T00:00:00	2024-11-08T22:00:00	6	Velocidad del viento	3.2
51690	7	Sololá	710	Panajachel	8	Panajachel	7	Julio	2023-07-30T00:00:00	2024-11-08T22:00:00	7	Dirección del viento	3.22
51691	7	Sololá	710	Panajachel	8	Panajachel	7	Julio	2023-07-30T00:00:00	2024-11-08T22:00:00	1	Precipitación	0.2
51692	7	Sololá	710	Panajachel	8	Panajachel	7	Julio	2023-07-30T00:00:00	2024-11-08T22:00:00	8	Radiación solar	0
51693	7	Sololá	710	Panajachel	8	Panajachel	7	Julio	2023-07-30T00:00:00	2024-11-08T23:00:00	2	Temperatura media	19.6
51694	7	Sololá	710	Panajachel	8	Panajachel	7	Julio	2023-07-30T00:00:00	2024-11-08T23:00:00	4	Temperatura máxima	19.8
51695	7	Sololá	710	Panajachel	8	Panajachel	7	Julio	2023-07-30T00:00:00	2024-11-08T23:00:00	3	Temperatura mínima	19.4
51696	7	Sololá	710	Panajachel	8	Panajachel	7	Julio	2023-07-30T00:00:00	2024-11-08T23:00:00	5	Humedad	87
51697	7	Sololá	710	Panajachel	8	Panajachel	7	Julio	2023-07-30T00:00:00	2024-11-08T23:00:00	6	Velocidad del viento	4.8
51698	7	Sololá	710	Panajachel	8	Panajachel	7	Julio	2023-07-30T00:00:00	2024-11-08T23:00:00	7	Dirección del viento	4.83
51699	7	Sololá	710	Panajachel	8	Panajachel	7	Julio	2023-07-30T00:00:00	2024-11-08T23:00:00	1	Precipitación	0
51700	7	Sololá	710	Panajachel	8	Panajachel	7	Julio	2023-07-30T00:00:00	2024-11-08T23:00:00	8	Radiación solar	0
51701	7	Sololá	710	Panajachel	8	Panajachel	7	Julio	2023-07-31T00:00:00	2024-11-08T00:00:00	2	Temperatura media	18.1
51702	7	Sololá	710	Panajachel	8	Panajachel	7	Julio	2023-07-31T00:00:00	2024-11-08T00:00:00	4	Temperatura máxima	19.6
51703	7	Sololá	710	Panajachel	8	Panajachel	7	Julio	2023-07-31T00:00:00	2024-11-08T00:00:00	3	Temperatura mínima	18.1
51704	7	Sololá	710	Panajachel	8	Panajachel	7	Julio	2023-07-31T00:00:00	2024-11-08T00:00:00	5	Humedad	94
51705	7	Sololá	710	Panajachel	8	Panajachel	7	Julio	2023-07-31T00:00:00	2024-11-08T00:00:00	6	Velocidad del viento	3.2
51706	7	Sololá	710	Panajachel	8	Panajachel	7	Julio	2023-07-31T00:00:00	2024-11-08T00:00:00	7	Dirección del viento	3.22
51707	7	Sololá	710	Panajachel	8	Panajachel	7	Julio	2023-07-31T00:00:00	2024-11-08T00:00:00	1	Precipitación	1
51708	7	Sololá	710	Panajachel	8	Panajachel	7	Julio	2023-07-31T00:00:00	2024-11-08T00:00:00	8	Radiación solar	0
51709	7	Sololá	710	Panajachel	8	Panajachel	7	Julio	2023-07-31T00:00:00	2024-11-08T01:00:00	2	Temperatura media	17.7
51710	7	Sololá	710	Panajachel	8	Panajachel	7	Julio	2023-07-31T00:00:00	2024-11-08T01:00:00	4	Temperatura máxima	18.1
51711	7	Sololá	710	Panajachel	8	Panajachel	7	Julio	2023-07-31T00:00:00	2024-11-08T01:00:00	3	Temperatura mínima	17.7
51712	7	Sololá	710	Panajachel	8	Panajachel	7	Julio	2023-07-31T00:00:00	2024-11-08T01:00:00	5	Humedad	93
51713	7	Sololá	710	Panajachel	8	Panajachel	7	Julio	2023-07-31T00:00:00	2024-11-08T01:00:00	6	Velocidad del viento	3.2
51714	7	Sololá	710	Panajachel	8	Panajachel	7	Julio	2023-07-31T00:00:00	2024-11-08T01:00:00	7	Dirección del viento	3.22
51715	7	Sololá	710	Panajachel	8	Panajachel	7	Julio	2023-07-31T00:00:00	2024-11-08T01:00:00	1	Precipitación	0.2
51716	7	Sololá	710	Panajachel	8	Panajachel	7	Julio	2023-07-31T00:00:00	2024-11-08T01:00:00	8	Radiación solar	0
51717	7	Sololá	710	Panajachel	8	Panajachel	7	Julio	2023-07-31T00:00:00	2024-11-08T02:00:00	2	Temperatura media	17.6
51718	7	Sololá	710	Panajachel	8	Panajachel	7	Julio	2023-07-31T00:00:00	2024-11-08T02:00:00	4	Temperatura máxima	18.2
51719	7	Sololá	710	Panajachel	8	Panajachel	7	Julio	2023-07-31T00:00:00	2024-11-08T02:00:00	3	Temperatura mínima	17.6
51720	7	Sololá	710	Panajachel	8	Panajachel	7	Julio	2023-07-31T00:00:00	2024-11-08T02:00:00	5	Humedad	88
51721	7	Sololá	710	Panajachel	8	Panajachel	7	Julio	2023-07-31T00:00:00	2024-11-08T02:00:00	6	Velocidad del viento	4.8
51722	7	Sololá	710	Panajachel	8	Panajachel	7	Julio	2023-07-31T00:00:00	2024-11-08T02:00:00	7	Dirección del viento	4.83
51723	7	Sololá	710	Panajachel	8	Panajachel	7	Julio	2023-07-31T00:00:00	2024-11-08T02:00:00	1	Precipitación	3.2
51724	7	Sololá	710	Panajachel	8	Panajachel	7	Julio	2023-07-31T00:00:00	2024-11-08T02:00:00	8	Radiación solar	0
51725	7	Sololá	710	Panajachel	8	Panajachel	7	Julio	2023-07-31T00:00:00	2024-11-08T03:00:00	2	Temperatura media	16.7
51726	7	Sololá	710	Panajachel	8	Panajachel	7	Julio	2023-07-31T00:00:00	2024-11-08T03:00:00	4	Temperatura máxima	17.7
51727	7	Sololá	710	Panajachel	8	Panajachel	7	Julio	2023-07-31T00:00:00	2024-11-08T03:00:00	3	Temperatura mínima	16.7
51728	7	Sololá	710	Panajachel	8	Panajachel	7	Julio	2023-07-31T00:00:00	2024-11-08T03:00:00	5	Humedad	93
51729	7	Sololá	710	Panajachel	8	Panajachel	7	Julio	2023-07-31T00:00:00	2024-11-08T03:00:00	6	Velocidad del viento	4.8
51730	7	Sololá	710	Panajachel	8	Panajachel	7	Julio	2023-07-31T00:00:00	2024-11-08T03:00:00	7	Dirección del viento	4.83
51731	7	Sololá	710	Panajachel	8	Panajachel	7	Julio	2023-07-31T00:00:00	2024-11-08T03:00:00	1	Precipitación	1.6
51732	7	Sololá	710	Panajachel	8	Panajachel	7	Julio	2023-07-31T00:00:00	2024-11-08T03:00:00	8	Radiación solar	0
51733	7	Sololá	710	Panajachel	8	Panajachel	7	Julio	2023-07-31T00:00:00	2024-11-08T04:00:00	2	Temperatura media	16.6
51734	7	Sololá	710	Panajachel	8	Panajachel	7	Julio	2023-07-31T00:00:00	2024-11-08T04:00:00	4	Temperatura máxima	16.7
51735	7	Sololá	710	Panajachel	8	Panajachel	7	Julio	2023-07-31T00:00:00	2024-11-08T04:00:00	3	Temperatura mínima	16.4
51736	7	Sololá	710	Panajachel	8	Panajachel	7	Julio	2023-07-31T00:00:00	2024-11-08T04:00:00	5	Humedad	92
51737	7	Sololá	710	Panajachel	8	Panajachel	7	Julio	2023-07-31T00:00:00	2024-11-08T04:00:00	6	Velocidad del viento	3.2
51738	7	Sololá	710	Panajachel	8	Panajachel	7	Julio	2023-07-31T00:00:00	2024-11-08T04:00:00	7	Dirección del viento	3.22
51739	7	Sololá	710	Panajachel	8	Panajachel	7	Julio	2023-07-31T00:00:00	2024-11-08T04:00:00	1	Precipitación	0.4
51740	7	Sololá	710	Panajachel	8	Panajachel	7	Julio	2023-07-31T00:00:00	2024-11-08T04:00:00	8	Radiación solar	0
51741	7	Sololá	710	Panajachel	8	Panajachel	7	Julio	2023-07-31T00:00:00	2024-11-08T05:00:00	2	Temperatura media	16.7
51742	7	Sololá	710	Panajachel	8	Panajachel	7	Julio	2023-07-31T00:00:00	2024-11-08T05:00:00	4	Temperatura máxima	16.8
51743	7	Sololá	710	Panajachel	8	Panajachel	7	Julio	2023-07-31T00:00:00	2024-11-08T05:00:00	3	Temperatura mínima	16.3
51744	7	Sololá	710	Panajachel	8	Panajachel	7	Julio	2023-07-31T00:00:00	2024-11-08T05:00:00	5	Humedad	90
51745	7	Sololá	710	Panajachel	8	Panajachel	7	Julio	2023-07-31T00:00:00	2024-11-08T05:00:00	6	Velocidad del viento	3.2
51746	7	Sololá	710	Panajachel	8	Panajachel	7	Julio	2023-07-31T00:00:00	2024-11-08T05:00:00	7	Dirección del viento	3.22
51747	7	Sololá	710	Panajachel	8	Panajachel	7	Julio	2023-07-31T00:00:00	2024-11-08T05:00:00	1	Precipitación	0.2
51748	7	Sololá	710	Panajachel	8	Panajachel	7	Julio	2023-07-31T00:00:00	2024-11-08T05:00:00	8	Radiación solar	0
51749	7	Sololá	710	Panajachel	8	Panajachel	7	Julio	2023-07-31T00:00:00	2024-11-08T06:00:00	2	Temperatura media	16.6
51750	7	Sololá	710	Panajachel	8	Panajachel	7	Julio	2023-07-31T00:00:00	2024-11-08T06:00:00	4	Temperatura máxima	16.9
51751	7	Sololá	710	Panajachel	8	Panajachel	7	Julio	2023-07-31T00:00:00	2024-11-08T06:00:00	3	Temperatura mínima	16.3
51752	7	Sololá	710	Panajachel	8	Panajachel	7	Julio	2023-07-31T00:00:00	2024-11-08T06:00:00	5	Humedad	89
51753	7	Sololá	710	Panajachel	8	Panajachel	7	Julio	2023-07-31T00:00:00	2024-11-08T06:00:00	6	Velocidad del viento	4.8
51754	7	Sololá	710	Panajachel	8	Panajachel	7	Julio	2023-07-31T00:00:00	2024-11-08T06:00:00	7	Dirección del viento	4.83
51755	7	Sololá	710	Panajachel	8	Panajachel	7	Julio	2023-07-31T00:00:00	2024-11-08T06:00:00	1	Precipitación	0
51756	7	Sololá	710	Panajachel	8	Panajachel	7	Julio	2023-07-31T00:00:00	2024-11-08T06:00:00	8	Radiación solar	1
51757	7	Sololá	710	Panajachel	8	Panajachel	7	Julio	2023-07-31T00:00:00	2024-11-08T07:00:00	2	Temperatura media	17.6
51758	7	Sololá	710	Panajachel	8	Panajachel	7	Julio	2023-07-31T00:00:00	2024-11-08T07:00:00	4	Temperatura máxima	17.6
51759	7	Sololá	710	Panajachel	8	Panajachel	7	Julio	2023-07-31T00:00:00	2024-11-08T07:00:00	3	Temperatura mínima	16.4
51760	7	Sololá	710	Panajachel	8	Panajachel	7	Julio	2023-07-31T00:00:00	2024-11-08T07:00:00	5	Humedad	88
51761	7	Sololá	710	Panajachel	8	Panajachel	7	Julio	2023-07-31T00:00:00	2024-11-08T07:00:00	6	Velocidad del viento	3.2
51762	7	Sololá	710	Panajachel	8	Panajachel	7	Julio	2023-07-31T00:00:00	2024-11-08T07:00:00	7	Dirección del viento	3.22
51763	7	Sololá	710	Panajachel	8	Panajachel	7	Julio	2023-07-31T00:00:00	2024-11-08T07:00:00	1	Precipitación	0
51764	7	Sololá	710	Panajachel	8	Panajachel	7	Julio	2023-07-31T00:00:00	2024-11-08T07:00:00	8	Radiación solar	86
51765	7	Sololá	710	Panajachel	8	Panajachel	7	Julio	2023-07-31T00:00:00	2024-11-08T08:00:00	2	Temperatura media	20.1
51766	7	Sololá	710	Panajachel	8	Panajachel	7	Julio	2023-07-31T00:00:00	2024-11-08T08:00:00	4	Temperatura máxima	20.1
51767	7	Sololá	710	Panajachel	8	Panajachel	7	Julio	2023-07-31T00:00:00	2024-11-08T08:00:00	3	Temperatura mínima	17.5
51768	7	Sololá	710	Panajachel	8	Panajachel	7	Julio	2023-07-31T00:00:00	2024-11-08T08:00:00	5	Humedad	82
51769	7	Sololá	710	Panajachel	8	Panajachel	7	Julio	2023-07-31T00:00:00	2024-11-08T08:00:00	6	Velocidad del viento	1.6
51770	7	Sololá	710	Panajachel	8	Panajachel	7	Julio	2023-07-31T00:00:00	2024-11-08T08:00:00	7	Dirección del viento	1.61
51771	7	Sololá	710	Panajachel	8	Panajachel	7	Julio	2023-07-31T00:00:00	2024-11-08T08:00:00	1	Precipitación	0
51772	7	Sololá	710	Panajachel	8	Panajachel	7	Julio	2023-07-31T00:00:00	2024-11-08T08:00:00	8	Radiación solar	209
51773	7	Sololá	710	Panajachel	8	Panajachel	7	Julio	2023-07-31T00:00:00	2024-11-08T09:00:00	2	Temperatura media	20.6
51774	7	Sololá	710	Panajachel	8	Panajachel	7	Julio	2023-07-31T00:00:00	2024-11-08T09:00:00	4	Temperatura máxima	20.8
51775	7	Sololá	710	Panajachel	8	Panajachel	7	Julio	2023-07-31T00:00:00	2024-11-08T09:00:00	3	Temperatura mínima	20.1
51776	7	Sololá	710	Panajachel	8	Panajachel	7	Julio	2023-07-31T00:00:00	2024-11-08T09:00:00	5	Humedad	83
51777	7	Sololá	710	Panajachel	8	Panajachel	7	Julio	2023-07-31T00:00:00	2024-11-08T09:00:00	6	Velocidad del viento	0
51778	7	Sololá	710	Panajachel	8	Panajachel	7	Julio	2023-07-31T00:00:00	2024-11-08T09:00:00	7	Dirección del viento	0
51779	7	Sololá	710	Panajachel	8	Panajachel	7	Julio	2023-07-31T00:00:00	2024-11-08T09:00:00	1	Precipitación	0
51780	7	Sololá	710	Panajachel	8	Panajachel	7	Julio	2023-07-31T00:00:00	2024-11-08T09:00:00	8	Radiación solar	308
51781	7	Sololá	710	Panajachel	8	Panajachel	7	Julio	2023-07-31T00:00:00	2024-11-08T10:00:00	2	Temperatura media	21.7
51782	7	Sololá	710	Panajachel	8	Panajachel	7	Julio	2023-07-31T00:00:00	2024-11-08T10:00:00	4	Temperatura máxima	21.8
51783	7	Sololá	710	Panajachel	8	Panajachel	7	Julio	2023-07-31T00:00:00	2024-11-08T10:00:00	3	Temperatura mínima	20.6
51784	7	Sololá	710	Panajachel	8	Panajachel	7	Julio	2023-07-31T00:00:00	2024-11-08T10:00:00	5	Humedad	79
51785	7	Sololá	710	Panajachel	8	Panajachel	7	Julio	2023-07-31T00:00:00	2024-11-08T10:00:00	6	Velocidad del viento	1.6
51786	7	Sololá	710	Panajachel	8	Panajachel	7	Julio	2023-07-31T00:00:00	2024-11-08T10:00:00	7	Dirección del viento	1.61
51787	7	Sololá	710	Panajachel	8	Panajachel	7	Julio	2023-07-31T00:00:00	2024-11-08T10:00:00	1	Precipitación	0
51788	7	Sololá	710	Panajachel	8	Panajachel	7	Julio	2023-07-31T00:00:00	2024-11-08T10:00:00	8	Radiación solar	429
51789	7	Sololá	710	Panajachel	8	Panajachel	7	Julio	2023-07-31T00:00:00	2024-11-08T11:00:00	2	Temperatura media	22.9
51790	7	Sololá	710	Panajachel	8	Panajachel	7	Julio	2023-07-31T00:00:00	2024-11-08T11:00:00	4	Temperatura máxima	23
51791	7	Sololá	710	Panajachel	8	Panajachel	7	Julio	2023-07-31T00:00:00	2024-11-08T11:00:00	3	Temperatura mínima	21.7
51792	7	Sololá	710	Panajachel	8	Panajachel	7	Julio	2023-07-31T00:00:00	2024-11-08T11:00:00	5	Humedad	73
51793	7	Sololá	710	Panajachel	8	Panajachel	7	Julio	2023-07-31T00:00:00	2024-11-08T11:00:00	6	Velocidad del viento	3.2
51794	7	Sololá	710	Panajachel	8	Panajachel	7	Julio	2023-07-31T00:00:00	2024-11-08T11:00:00	7	Dirección del viento	3.22
51795	7	Sololá	710	Panajachel	8	Panajachel	7	Julio	2023-07-31T00:00:00	2024-11-08T11:00:00	1	Precipitación	0
51796	7	Sololá	710	Panajachel	8	Panajachel	7	Julio	2023-07-31T00:00:00	2024-11-08T11:00:00	8	Radiación solar	598
51797	7	Sololá	710	Panajachel	8	Panajachel	7	Julio	2023-07-31T00:00:00	2024-11-08T12:00:00	2	Temperatura media	25.7
51798	7	Sololá	710	Panajachel	8	Panajachel	7	Julio	2023-07-31T00:00:00	2024-11-08T12:00:00	4	Temperatura máxima	25.7
51799	7	Sololá	710	Panajachel	8	Panajachel	7	Julio	2023-07-31T00:00:00	2024-11-08T12:00:00	3	Temperatura mínima	22.9
51800	7	Sololá	710	Panajachel	8	Panajachel	7	Julio	2023-07-31T00:00:00	2024-11-08T12:00:00	5	Humedad	60
51801	7	Sololá	710	Panajachel	8	Panajachel	7	Julio	2023-07-31T00:00:00	2024-11-08T12:00:00	6	Velocidad del viento	3.2
51802	7	Sololá	710	Panajachel	8	Panajachel	7	Julio	2023-07-31T00:00:00	2024-11-08T12:00:00	7	Dirección del viento	3.22
51803	7	Sololá	710	Panajachel	8	Panajachel	7	Julio	2023-07-31T00:00:00	2024-11-08T12:00:00	1	Precipitación	0
51804	7	Sololá	710	Panajachel	8	Panajachel	7	Julio	2023-07-31T00:00:00	2024-11-08T12:00:00	8	Radiación solar	737
51805	7	Sololá	710	Panajachel	8	Panajachel	7	Julio	2023-07-31T00:00:00	2024-11-08T13:00:00	2	Temperatura media	27.6
51806	7	Sololá	710	Panajachel	8	Panajachel	7	Julio	2023-07-31T00:00:00	2024-11-08T13:00:00	4	Temperatura máxima	27.6
51807	7	Sololá	710	Panajachel	8	Panajachel	7	Julio	2023-07-31T00:00:00	2024-11-08T13:00:00	3	Temperatura mínima	25.4
51808	7	Sololá	710	Panajachel	8	Panajachel	7	Julio	2023-07-31T00:00:00	2024-11-08T13:00:00	5	Humedad	59
51809	7	Sololá	710	Panajachel	8	Panajachel	7	Julio	2023-07-31T00:00:00	2024-11-08T13:00:00	6	Velocidad del viento	4.8
51810	7	Sololá	710	Panajachel	8	Panajachel	7	Julio	2023-07-31T00:00:00	2024-11-08T13:00:00	7	Dirección del viento	4.83
51811	7	Sololá	710	Panajachel	8	Panajachel	7	Julio	2023-07-31T00:00:00	2024-11-08T13:00:00	1	Precipitación	0
51812	7	Sololá	710	Panajachel	8	Panajachel	7	Julio	2023-07-31T00:00:00	2024-11-08T13:00:00	8	Radiación solar	922
51813	7	Sololá	710	Panajachel	8	Panajachel	7	Julio	2023-07-31T00:00:00	2024-11-08T14:00:00	2	Temperatura media	25.7
51814	7	Sololá	710	Panajachel	8	Panajachel	7	Julio	2023-07-31T00:00:00	2024-11-08T14:00:00	4	Temperatura máxima	27.6
51815	7	Sololá	710	Panajachel	8	Panajachel	7	Julio	2023-07-31T00:00:00	2024-11-08T14:00:00	3	Temperatura mínima	25.7
51816	7	Sololá	710	Panajachel	8	Panajachel	7	Julio	2023-07-31T00:00:00	2024-11-08T14:00:00	5	Humedad	73
51817	7	Sololá	710	Panajachel	8	Panajachel	7	Julio	2023-07-31T00:00:00	2024-11-08T14:00:00	6	Velocidad del viento	3.2
51818	7	Sololá	710	Panajachel	8	Panajachel	7	Julio	2023-07-31T00:00:00	2024-11-08T14:00:00	7	Dirección del viento	3.22
51819	7	Sololá	710	Panajachel	8	Panajachel	7	Julio	2023-07-31T00:00:00	2024-11-08T14:00:00	1	Precipitación	0
51820	7	Sololá	710	Panajachel	8	Panajachel	7	Julio	2023-07-31T00:00:00	2024-11-08T14:00:00	8	Radiación solar	354
51821	7	Sololá	710	Panajachel	8	Panajachel	7	Julio	2023-07-31T00:00:00	2024-11-08T15:00:00	2	Temperatura media	24.4
51822	7	Sololá	710	Panajachel	8	Panajachel	7	Julio	2023-07-31T00:00:00	2024-11-08T15:00:00	4	Temperatura máxima	25.7
51823	7	Sololá	710	Panajachel	8	Panajachel	7	Julio	2023-07-31T00:00:00	2024-11-08T15:00:00	3	Temperatura mínima	24.2
51824	7	Sololá	710	Panajachel	8	Panajachel	7	Julio	2023-07-31T00:00:00	2024-11-08T15:00:00	5	Humedad	80
51825	7	Sololá	710	Panajachel	8	Panajachel	7	Julio	2023-07-31T00:00:00	2024-11-08T15:00:00	6	Velocidad del viento	4.8
51826	7	Sololá	710	Panajachel	8	Panajachel	7	Julio	2023-07-31T00:00:00	2024-11-08T15:00:00	7	Dirección del viento	4.83
51827	7	Sololá	710	Panajachel	8	Panajachel	7	Julio	2023-07-31T00:00:00	2024-11-08T15:00:00	1	Precipitación	0
51828	7	Sololá	710	Panajachel	8	Panajachel	7	Julio	2023-07-31T00:00:00	2024-11-08T15:00:00	8	Radiación solar	339
51829	7	Sololá	710	Panajachel	8	Panajachel	7	Julio	2023-07-31T00:00:00	2024-11-08T16:00:00	2	Temperatura media	23.7
51830	7	Sololá	710	Panajachel	8	Panajachel	7	Julio	2023-07-31T00:00:00	2024-11-08T16:00:00	4	Temperatura máxima	25.2
51831	7	Sololá	710	Panajachel	8	Panajachel	7	Julio	2023-07-31T00:00:00	2024-11-08T16:00:00	3	Temperatura mínima	23.3
51832	7	Sololá	710	Panajachel	8	Panajachel	7	Julio	2023-07-31T00:00:00	2024-11-08T16:00:00	5	Humedad	82
51833	7	Sololá	710	Panajachel	8	Panajachel	7	Julio	2023-07-31T00:00:00	2024-11-08T16:00:00	6	Velocidad del viento	4.8
51834	7	Sololá	710	Panajachel	8	Panajachel	7	Julio	2023-07-31T00:00:00	2024-11-08T16:00:00	7	Dirección del viento	4.83
51835	7	Sololá	710	Panajachel	8	Panajachel	7	Julio	2023-07-31T00:00:00	2024-11-08T16:00:00	1	Precipitación	0
51836	7	Sololá	710	Panajachel	8	Panajachel	7	Julio	2023-07-31T00:00:00	2024-11-08T16:00:00	8	Radiación solar	312
51837	7	Sololá	710	Panajachel	8	Panajachel	7	Julio	2023-07-31T00:00:00	2024-11-08T17:00:00	2	Temperatura media	22.6
51838	7	Sololá	710	Panajachel	8	Panajachel	7	Julio	2023-07-31T00:00:00	2024-11-08T17:00:00	4	Temperatura máxima	23.7
51839	7	Sololá	710	Panajachel	8	Panajachel	7	Julio	2023-07-31T00:00:00	2024-11-08T17:00:00	3	Temperatura mínima	22.4
51840	7	Sololá	710	Panajachel	8	Panajachel	7	Julio	2023-07-31T00:00:00	2024-11-08T17:00:00	5	Humedad	87
51841	7	Sololá	710	Panajachel	8	Panajachel	7	Julio	2023-07-31T00:00:00	2024-11-08T17:00:00	6	Velocidad del viento	6.4
51842	7	Sololá	710	Panajachel	8	Panajachel	7	Julio	2023-07-31T00:00:00	2024-11-08T17:00:00	7	Dirección del viento	6.44
51843	7	Sololá	710	Panajachel	8	Panajachel	7	Julio	2023-07-31T00:00:00	2024-11-08T17:00:00	1	Precipitación	0
51844	7	Sololá	710	Panajachel	8	Panajachel	7	Julio	2023-07-31T00:00:00	2024-11-08T17:00:00	8	Radiación solar	124
51845	7	Sololá	710	Panajachel	8	Panajachel	7	Julio	2023-07-31T00:00:00	2024-11-08T18:00:00	2	Temperatura media	21.8
51846	7	Sololá	710	Panajachel	8	Panajachel	7	Julio	2023-07-31T00:00:00	2024-11-08T18:00:00	4	Temperatura máxima	23
51847	7	Sololá	710	Panajachel	8	Panajachel	7	Julio	2023-07-31T00:00:00	2024-11-08T18:00:00	3	Temperatura mínima	21.8
51848	7	Sololá	710	Panajachel	8	Panajachel	7	Julio	2023-07-31T00:00:00	2024-11-08T18:00:00	5	Humedad	88
51849	7	Sololá	710	Panajachel	8	Panajachel	7	Julio	2023-07-31T00:00:00	2024-11-08T18:00:00	6	Velocidad del viento	4.8
51850	7	Sololá	710	Panajachel	8	Panajachel	7	Julio	2023-07-31T00:00:00	2024-11-08T18:00:00	7	Dirección del viento	4.83
51851	7	Sololá	710	Panajachel	8	Panajachel	7	Julio	2023-07-31T00:00:00	2024-11-08T18:00:00	1	Precipitación	0
51852	7	Sololá	710	Panajachel	8	Panajachel	7	Julio	2023-07-31T00:00:00	2024-11-08T18:00:00	8	Radiación solar	129
51853	7	Sololá	710	Panajachel	8	Panajachel	7	Julio	2023-07-31T00:00:00	2024-11-08T19:00:00	2	Temperatura media	21.1
51854	7	Sololá	710	Panajachel	8	Panajachel	7	Julio	2023-07-31T00:00:00	2024-11-08T19:00:00	4	Temperatura máxima	21.8
51855	7	Sololá	710	Panajachel	8	Panajachel	7	Julio	2023-07-31T00:00:00	2024-11-08T19:00:00	3	Temperatura mínima	21.1
51856	7	Sololá	710	Panajachel	8	Panajachel	7	Julio	2023-07-31T00:00:00	2024-11-08T19:00:00	5	Humedad	92
51857	7	Sololá	710	Panajachel	8	Panajachel	7	Julio	2023-07-31T00:00:00	2024-11-08T19:00:00	6	Velocidad del viento	1.6
51858	7	Sololá	710	Panajachel	8	Panajachel	7	Julio	2023-07-31T00:00:00	2024-11-08T19:00:00	7	Dirección del viento	1.61
51859	7	Sololá	710	Panajachel	8	Panajachel	7	Julio	2023-07-31T00:00:00	2024-11-08T19:00:00	1	Precipitación	0
51860	7	Sololá	710	Panajachel	8	Panajachel	7	Julio	2023-07-31T00:00:00	2024-11-08T19:00:00	8	Radiación solar	0
51861	7	Sololá	710	Panajachel	8	Panajachel	7	Julio	2023-07-31T00:00:00	2024-11-08T20:00:00	2	Temperatura media	20.2
51862	7	Sololá	710	Panajachel	8	Panajachel	7	Julio	2023-07-31T00:00:00	2024-11-08T20:00:00	4	Temperatura máxima	21.1
51863	7	Sololá	710	Panajachel	8	Panajachel	7	Julio	2023-07-31T00:00:00	2024-11-08T20:00:00	3	Temperatura mínima	20.2
51864	7	Sololá	710	Panajachel	8	Panajachel	7	Julio	2023-07-31T00:00:00	2024-11-08T20:00:00	5	Humedad	85
51865	7	Sololá	710	Panajachel	8	Panajachel	7	Julio	2023-07-31T00:00:00	2024-11-08T20:00:00	6	Velocidad del viento	1.6
51866	7	Sololá	710	Panajachel	8	Panajachel	7	Julio	2023-07-31T00:00:00	2024-11-08T20:00:00	7	Dirección del viento	1.61
51867	7	Sololá	710	Panajachel	8	Panajachel	7	Julio	2023-07-31T00:00:00	2024-11-08T20:00:00	1	Precipitación	0
51868	7	Sololá	710	Panajachel	8	Panajachel	7	Julio	2023-07-31T00:00:00	2024-11-08T20:00:00	8	Radiación solar	0
51869	7	Sololá	710	Panajachel	8	Panajachel	7	Julio	2023-07-31T00:00:00	2024-11-08T21:00:00	2	Temperatura media	19.9
51870	7	Sololá	710	Panajachel	8	Panajachel	7	Julio	2023-07-31T00:00:00	2024-11-08T21:00:00	4	Temperatura máxima	20.3
51871	7	Sololá	710	Panajachel	8	Panajachel	7	Julio	2023-07-31T00:00:00	2024-11-08T21:00:00	3	Temperatura mínima	19.9
51872	7	Sololá	710	Panajachel	8	Panajachel	7	Julio	2023-07-31T00:00:00	2024-11-08T21:00:00	5	Humedad	88
51873	7	Sololá	710	Panajachel	8	Panajachel	7	Julio	2023-07-31T00:00:00	2024-11-08T21:00:00	6	Velocidad del viento	1.6
51874	7	Sololá	710	Panajachel	8	Panajachel	7	Julio	2023-07-31T00:00:00	2024-11-08T21:00:00	7	Dirección del viento	1.61
51875	7	Sololá	710	Panajachel	8	Panajachel	7	Julio	2023-07-31T00:00:00	2024-11-08T21:00:00	1	Precipitación	0
51876	7	Sololá	710	Panajachel	8	Panajachel	7	Julio	2023-07-31T00:00:00	2024-11-08T21:00:00	8	Radiación solar	0
51877	7	Sololá	710	Panajachel	8	Panajachel	7	Julio	2023-07-31T00:00:00	2024-11-08T22:00:00	2	Temperatura media	19.3
51878	7	Sololá	710	Panajachel	8	Panajachel	7	Julio	2023-07-31T00:00:00	2024-11-08T22:00:00	4	Temperatura máxima	19.9
51879	7	Sololá	710	Panajachel	8	Panajachel	7	Julio	2023-07-31T00:00:00	2024-11-08T22:00:00	3	Temperatura mínima	19.3
51880	7	Sololá	710	Panajachel	8	Panajachel	7	Julio	2023-07-31T00:00:00	2024-11-08T22:00:00	5	Humedad	87
51881	7	Sololá	710	Panajachel	8	Panajachel	7	Julio	2023-07-31T00:00:00	2024-11-08T22:00:00	6	Velocidad del viento	3.2
51882	7	Sololá	710	Panajachel	8	Panajachel	7	Julio	2023-07-31T00:00:00	2024-11-08T22:00:00	7	Dirección del viento	3.22
51883	7	Sololá	710	Panajachel	8	Panajachel	7	Julio	2023-07-31T00:00:00	2024-11-08T22:00:00	1	Precipitación	0
51884	7	Sololá	710	Panajachel	8	Panajachel	7	Julio	2023-07-31T00:00:00	2024-11-08T22:00:00	8	Radiación solar	0
51885	7	Sololá	710	Panajachel	8	Panajachel	7	Julio	2023-07-31T00:00:00	2024-11-08T23:00:00	2	Temperatura media	19.2
51886	7	Sololá	710	Panajachel	8	Panajachel	7	Julio	2023-07-31T00:00:00	2024-11-08T23:00:00	4	Temperatura máxima	19.3
51887	7	Sololá	710	Panajachel	8	Panajachel	7	Julio	2023-07-31T00:00:00	2024-11-08T23:00:00	3	Temperatura mínima	18.9
51888	7	Sololá	710	Panajachel	8	Panajachel	7	Julio	2023-07-31T00:00:00	2024-11-08T23:00:00	5	Humedad	83
51889	7	Sololá	710	Panajachel	8	Panajachel	7	Julio	2023-07-31T00:00:00	2024-11-08T23:00:00	6	Velocidad del viento	3.2
51890	7	Sololá	710	Panajachel	8	Panajachel	7	Julio	2023-07-31T00:00:00	2024-11-08T23:00:00	7	Dirección del viento	3.22
51891	7	Sololá	710	Panajachel	8	Panajachel	7	Julio	2023-07-31T00:00:00	2024-11-08T23:00:00	1	Precipitación	0
51892	7	Sololá	710	Panajachel	8	Panajachel	7	Julio	2023-07-31T00:00:00	2024-11-08T23:00:00	8	Radiación solar	0
51893	7	Sololá	710	Panajachel	8	Panajachel	8	Agosto	2023-01-08T00:00:00	2024-11-08T00:00:00	2	Temperatura media	19.7
51894	7	Sololá	710	Panajachel	8	Panajachel	8	Agosto	2023-01-08T00:00:00	2024-11-08T00:00:00	4	Temperatura máxima	19.7
51895	7	Sololá	710	Panajachel	8	Panajachel	8	Agosto	2023-01-08T00:00:00	2024-11-08T00:00:00	3	Temperatura mínima	19.1
51896	7	Sololá	710	Panajachel	8	Panajachel	8	Agosto	2023-01-08T00:00:00	2024-11-08T00:00:00	5	Humedad	83
51897	7	Sololá	710	Panajachel	8	Panajachel	8	Agosto	2023-01-08T00:00:00	2024-11-08T00:00:00	6	Velocidad del viento	3.2
51898	7	Sololá	710	Panajachel	8	Panajachel	8	Agosto	2023-01-08T00:00:00	2024-11-08T00:00:00	7	Dirección del viento	3.22
51899	7	Sololá	710	Panajachel	8	Panajachel	8	Agosto	2023-01-08T00:00:00	2024-11-08T00:00:00	1	Precipitación	0
51900	7	Sololá	710	Panajachel	8	Panajachel	8	Agosto	2023-01-08T00:00:00	2024-11-08T00:00:00	8	Radiación solar	0
51901	7	Sololá	710	Panajachel	8	Panajachel	8	Agosto	2023-01-08T00:00:00	2024-11-08T01:00:00	2	Temperatura media	19.9
51902	7	Sololá	710	Panajachel	8	Panajachel	8	Agosto	2023-01-08T00:00:00	2024-11-08T01:00:00	4	Temperatura máxima	19.9
51903	7	Sololá	710	Panajachel	8	Panajachel	8	Agosto	2023-01-08T00:00:00	2024-11-08T01:00:00	3	Temperatura mínima	19.7
51904	7	Sololá	710	Panajachel	8	Panajachel	8	Agosto	2023-01-08T00:00:00	2024-11-08T01:00:00	5	Humedad	81
51905	7	Sololá	710	Panajachel	8	Panajachel	8	Agosto	2023-01-08T00:00:00	2024-11-08T01:00:00	6	Velocidad del viento	0
51906	7	Sololá	710	Panajachel	8	Panajachel	8	Agosto	2023-01-08T00:00:00	2024-11-08T01:00:00	7	Dirección del viento	0
51907	7	Sololá	710	Panajachel	8	Panajachel	8	Agosto	2023-01-08T00:00:00	2024-11-08T01:00:00	1	Precipitación	0
51908	7	Sololá	710	Panajachel	8	Panajachel	8	Agosto	2023-01-08T00:00:00	2024-11-08T01:00:00	8	Radiación solar	0
51909	7	Sololá	710	Panajachel	8	Panajachel	8	Agosto	2023-01-08T00:00:00	2024-11-08T02:00:00	2	Temperatura media	18.2
51910	7	Sololá	710	Panajachel	8	Panajachel	8	Agosto	2023-01-08T00:00:00	2024-11-08T02:00:00	4	Temperatura máxima	20.1
51911	7	Sololá	710	Panajachel	8	Panajachel	8	Agosto	2023-01-08T00:00:00	2024-11-08T02:00:00	3	Temperatura mínima	18.2
51912	7	Sololá	710	Panajachel	8	Panajachel	8	Agosto	2023-01-08T00:00:00	2024-11-08T02:00:00	5	Humedad	93
51913	7	Sololá	710	Panajachel	8	Panajachel	8	Agosto	2023-01-08T00:00:00	2024-11-08T02:00:00	6	Velocidad del viento	1.6
51914	7	Sololá	710	Panajachel	8	Panajachel	8	Agosto	2023-01-08T00:00:00	2024-11-08T02:00:00	7	Dirección del viento	1.61
51915	7	Sololá	710	Panajachel	8	Panajachel	8	Agosto	2023-01-08T00:00:00	2024-11-08T02:00:00	1	Precipitación	2
51916	7	Sololá	710	Panajachel	8	Panajachel	8	Agosto	2023-01-08T00:00:00	2024-11-08T02:00:00	8	Radiación solar	0
51917	7	Sololá	710	Panajachel	8	Panajachel	8	Agosto	2023-01-08T00:00:00	2024-11-08T03:00:00	2	Temperatura media	17.8
51918	7	Sololá	710	Panajachel	8	Panajachel	8	Agosto	2023-01-08T00:00:00	2024-11-08T03:00:00	4	Temperatura máxima	18.2
51919	7	Sololá	710	Panajachel	8	Panajachel	8	Agosto	2023-01-08T00:00:00	2024-11-08T03:00:00	3	Temperatura mínima	17.8
51920	7	Sololá	710	Panajachel	8	Panajachel	8	Agosto	2023-01-08T00:00:00	2024-11-08T03:00:00	5	Humedad	93
51921	7	Sololá	710	Panajachel	8	Panajachel	8	Agosto	2023-01-08T00:00:00	2024-11-08T03:00:00	6	Velocidad del viento	1.6
51922	7	Sololá	710	Panajachel	8	Panajachel	8	Agosto	2023-01-08T00:00:00	2024-11-08T03:00:00	7	Dirección del viento	1.61
51923	7	Sololá	710	Panajachel	8	Panajachel	8	Agosto	2023-01-08T00:00:00	2024-11-08T03:00:00	1	Precipitación	0.4
51924	7	Sololá	710	Panajachel	8	Panajachel	8	Agosto	2023-01-08T00:00:00	2024-11-08T03:00:00	8	Radiación solar	0
51925	7	Sololá	710	Panajachel	8	Panajachel	8	Agosto	2023-01-08T00:00:00	2024-11-08T04:00:00	2	Temperatura media	17.4
51926	7	Sololá	710	Panajachel	8	Panajachel	8	Agosto	2023-01-08T00:00:00	2024-11-08T04:00:00	4	Temperatura máxima	17.8
51927	7	Sololá	710	Panajachel	8	Panajachel	8	Agosto	2023-01-08T00:00:00	2024-11-08T04:00:00	3	Temperatura mínima	17.4
51928	7	Sololá	710	Panajachel	8	Panajachel	8	Agosto	2023-01-08T00:00:00	2024-11-08T04:00:00	5	Humedad	95
51929	7	Sololá	710	Panajachel	8	Panajachel	8	Agosto	2023-01-08T00:00:00	2024-11-08T04:00:00	6	Velocidad del viento	1.6
51930	7	Sololá	710	Panajachel	8	Panajachel	8	Agosto	2023-01-08T00:00:00	2024-11-08T04:00:00	7	Dirección del viento	1.61
51931	7	Sololá	710	Panajachel	8	Panajachel	8	Agosto	2023-01-08T00:00:00	2024-11-08T04:00:00	1	Precipitación	0
51932	7	Sololá	710	Panajachel	8	Panajachel	8	Agosto	2023-01-08T00:00:00	2024-11-08T04:00:00	8	Radiación solar	0
51933	7	Sololá	710	Panajachel	8	Panajachel	8	Agosto	2023-01-08T00:00:00	2024-11-08T05:00:00	2	Temperatura media	17.2
51934	7	Sololá	710	Panajachel	8	Panajachel	8	Agosto	2023-01-08T00:00:00	2024-11-08T05:00:00	4	Temperatura máxima	17.5
51935	7	Sololá	710	Panajachel	8	Panajachel	8	Agosto	2023-01-08T00:00:00	2024-11-08T05:00:00	3	Temperatura mínima	17.2
51936	7	Sololá	710	Panajachel	8	Panajachel	8	Agosto	2023-01-08T00:00:00	2024-11-08T05:00:00	5	Humedad	95
51937	7	Sololá	710	Panajachel	8	Panajachel	8	Agosto	2023-01-08T00:00:00	2024-11-08T05:00:00	6	Velocidad del viento	0
51938	7	Sololá	710	Panajachel	8	Panajachel	8	Agosto	2023-01-08T00:00:00	2024-11-08T05:00:00	7	Dirección del viento	0
51939	7	Sololá	710	Panajachel	8	Panajachel	8	Agosto	2023-01-08T00:00:00	2024-11-08T05:00:00	1	Precipitación	0
51940	7	Sololá	710	Panajachel	8	Panajachel	8	Agosto	2023-01-08T00:00:00	2024-11-08T05:00:00	8	Radiación solar	0
51941	7	Sololá	710	Panajachel	8	Panajachel	8	Agosto	2023-01-08T00:00:00	2024-11-08T06:00:00	2	Temperatura media	16.9
51942	7	Sololá	710	Panajachel	8	Panajachel	8	Agosto	2023-01-08T00:00:00	2024-11-08T06:00:00	4	Temperatura máxima	17.4
51943	7	Sololá	710	Panajachel	8	Panajachel	8	Agosto	2023-01-08T00:00:00	2024-11-08T06:00:00	3	Temperatura mínima	16.9
51944	7	Sololá	710	Panajachel	8	Panajachel	8	Agosto	2023-01-08T00:00:00	2024-11-08T06:00:00	5	Humedad	94
51945	7	Sololá	710	Panajachel	8	Panajachel	8	Agosto	2023-01-08T00:00:00	2024-11-08T06:00:00	6	Velocidad del viento	1.6
51946	7	Sololá	710	Panajachel	8	Panajachel	8	Agosto	2023-01-08T00:00:00	2024-11-08T06:00:00	7	Dirección del viento	1.61
51947	7	Sololá	710	Panajachel	8	Panajachel	8	Agosto	2023-01-08T00:00:00	2024-11-08T06:00:00	1	Precipitación	0.2
51948	7	Sololá	710	Panajachel	8	Panajachel	8	Agosto	2023-01-08T00:00:00	2024-11-08T06:00:00	8	Radiación solar	1
51949	7	Sololá	710	Panajachel	8	Panajachel	8	Agosto	2023-01-08T00:00:00	2024-11-08T07:00:00	2	Temperatura media	17.7
51950	7	Sololá	710	Panajachel	8	Panajachel	8	Agosto	2023-01-08T00:00:00	2024-11-08T07:00:00	4	Temperatura máxima	17.7
51951	7	Sololá	710	Panajachel	8	Panajachel	8	Agosto	2023-01-08T00:00:00	2024-11-08T07:00:00	3	Temperatura mínima	16.8
51952	7	Sololá	710	Panajachel	8	Panajachel	8	Agosto	2023-01-08T00:00:00	2024-11-08T07:00:00	5	Humedad	93
51953	7	Sololá	710	Panajachel	8	Panajachel	8	Agosto	2023-01-08T00:00:00	2024-11-08T07:00:00	6	Velocidad del viento	1.6
51954	7	Sololá	710	Panajachel	8	Panajachel	8	Agosto	2023-01-08T00:00:00	2024-11-08T07:00:00	7	Dirección del viento	1.61
51955	7	Sololá	710	Panajachel	8	Panajachel	8	Agosto	2023-01-08T00:00:00	2024-11-08T07:00:00	1	Precipitación	0
51956	7	Sololá	710	Panajachel	8	Panajachel	8	Agosto	2023-01-08T00:00:00	2024-11-08T07:00:00	8	Radiación solar	47
51957	7	Sololá	710	Panajachel	8	Panajachel	8	Agosto	2023-01-08T00:00:00	2024-11-08T08:00:00	2	Temperatura media	21.1
51958	7	Sololá	710	Panajachel	8	Panajachel	8	Agosto	2023-01-08T00:00:00	2024-11-08T08:00:00	4	Temperatura máxima	21.2
51959	7	Sololá	710	Panajachel	8	Panajachel	8	Agosto	2023-01-08T00:00:00	2024-11-08T08:00:00	3	Temperatura mínima	17.7
51960	7	Sololá	710	Panajachel	8	Panajachel	8	Agosto	2023-01-08T00:00:00	2024-11-08T08:00:00	5	Humedad	79
51961	7	Sololá	710	Panajachel	8	Panajachel	8	Agosto	2023-01-08T00:00:00	2024-11-08T08:00:00	6	Velocidad del viento	1.6
51962	7	Sololá	710	Panajachel	8	Panajachel	8	Agosto	2023-01-08T00:00:00	2024-11-08T08:00:00	7	Dirección del viento	1.61
51963	7	Sololá	710	Panajachel	8	Panajachel	8	Agosto	2023-01-08T00:00:00	2024-11-08T08:00:00	1	Precipitación	0
51964	7	Sololá	710	Panajachel	8	Panajachel	8	Agosto	2023-01-08T00:00:00	2024-11-08T08:00:00	8	Radiación solar	354
51965	7	Sololá	710	Panajachel	8	Panajachel	8	Agosto	2023-01-08T00:00:00	2024-11-08T09:00:00	2	Temperatura media	21.8
51966	7	Sololá	710	Panajachel	8	Panajachel	8	Agosto	2023-01-08T00:00:00	2024-11-08T09:00:00	4	Temperatura máxima	21.9
51967	7	Sololá	710	Panajachel	8	Panajachel	8	Agosto	2023-01-08T00:00:00	2024-11-08T09:00:00	3	Temperatura mínima	21.1
51968	7	Sololá	710	Panajachel	8	Panajachel	8	Agosto	2023-01-08T00:00:00	2024-11-08T09:00:00	5	Humedad	83
51969	7	Sololá	710	Panajachel	8	Panajachel	8	Agosto	2023-01-08T00:00:00	2024-11-08T09:00:00	6	Velocidad del viento	3.2
51970	7	Sololá	710	Panajachel	8	Panajachel	8	Agosto	2023-01-08T00:00:00	2024-11-08T09:00:00	7	Dirección del viento	3.22
51971	7	Sololá	710	Panajachel	8	Panajachel	8	Agosto	2023-01-08T00:00:00	2024-11-08T09:00:00	1	Precipitación	0
51972	7	Sololá	710	Panajachel	8	Panajachel	8	Agosto	2023-01-08T00:00:00	2024-11-08T09:00:00	8	Radiación solar	602
51973	7	Sololá	710	Panajachel	8	Panajachel	8	Agosto	2023-01-08T00:00:00	2024-11-08T10:00:00	2	Temperatura media	22.8
51974	7	Sololá	710	Panajachel	8	Panajachel	8	Agosto	2023-01-08T00:00:00	2024-11-08T10:00:00	4	Temperatura máxima	23
51975	7	Sololá	710	Panajachel	8	Panajachel	8	Agosto	2023-01-08T00:00:00	2024-11-08T10:00:00	3	Temperatura mínima	21.8
51976	7	Sololá	710	Panajachel	8	Panajachel	8	Agosto	2023-01-08T00:00:00	2024-11-08T10:00:00	5	Humedad	76
51977	7	Sololá	710	Panajachel	8	Panajachel	8	Agosto	2023-01-08T00:00:00	2024-11-08T10:00:00	6	Velocidad del viento	1.6
51978	7	Sololá	710	Panajachel	8	Panajachel	8	Agosto	2023-01-08T00:00:00	2024-11-08T10:00:00	7	Dirección del viento	1.61
51979	7	Sololá	710	Panajachel	8	Panajachel	8	Agosto	2023-01-08T00:00:00	2024-11-08T10:00:00	1	Precipitación	0
51980	7	Sololá	710	Panajachel	8	Panajachel	8	Agosto	2023-01-08T00:00:00	2024-11-08T10:00:00	8	Radiación solar	739
51981	7	Sololá	710	Panajachel	8	Panajachel	8	Agosto	2023-01-08T00:00:00	2024-11-08T11:00:00	2	Temperatura media	24.2
51982	7	Sololá	710	Panajachel	8	Panajachel	8	Agosto	2023-01-08T00:00:00	2024-11-08T11:00:00	4	Temperatura máxima	24.2
51983	7	Sololá	710	Panajachel	8	Panajachel	8	Agosto	2023-01-08T00:00:00	2024-11-08T11:00:00	3	Temperatura mínima	22.2
51984	7	Sololá	710	Panajachel	8	Panajachel	8	Agosto	2023-01-08T00:00:00	2024-11-08T11:00:00	5	Humedad	69
51985	7	Sololá	710	Panajachel	8	Panajachel	8	Agosto	2023-01-08T00:00:00	2024-11-08T11:00:00	6	Velocidad del viento	3.2
51986	7	Sololá	710	Panajachel	8	Panajachel	8	Agosto	2023-01-08T00:00:00	2024-11-08T11:00:00	7	Dirección del viento	3.22
51987	7	Sololá	710	Panajachel	8	Panajachel	8	Agosto	2023-01-08T00:00:00	2024-11-08T11:00:00	1	Precipitación	0
51988	7	Sololá	710	Panajachel	8	Panajachel	8	Agosto	2023-01-08T00:00:00	2024-11-08T11:00:00	8	Radiación solar	796
51989	7	Sololá	710	Panajachel	8	Panajachel	8	Agosto	2023-01-08T00:00:00	2024-11-08T12:00:00	2	Temperatura media	24.2
51990	7	Sololá	710	Panajachel	8	Panajachel	8	Agosto	2023-01-08T00:00:00	2024-11-08T12:00:00	4	Temperatura máxima	25.1
51991	7	Sololá	710	Panajachel	8	Panajachel	8	Agosto	2023-01-08T00:00:00	2024-11-08T12:00:00	3	Temperatura mínima	24
51992	7	Sololá	710	Panajachel	8	Panajachel	8	Agosto	2023-01-08T00:00:00	2024-11-08T12:00:00	5	Humedad	70
51993	7	Sololá	710	Panajachel	8	Panajachel	8	Agosto	2023-01-08T00:00:00	2024-11-08T12:00:00	6	Velocidad del viento	3.2
51994	7	Sololá	710	Panajachel	8	Panajachel	8	Agosto	2023-01-08T00:00:00	2024-11-08T12:00:00	7	Dirección del viento	3.22
51995	7	Sololá	710	Panajachel	8	Panajachel	8	Agosto	2023-01-08T00:00:00	2024-11-08T12:00:00	1	Precipitación	0
51996	7	Sololá	710	Panajachel	8	Panajachel	8	Agosto	2023-01-08T00:00:00	2024-11-08T12:00:00	8	Radiación solar	772
51997	7	Sololá	710	Panajachel	8	Panajachel	8	Agosto	2023-01-08T00:00:00	2024-11-08T13:00:00	2	Temperatura media	24.9
51998	7	Sololá	710	Panajachel	8	Panajachel	8	Agosto	2023-01-08T00:00:00	2024-11-08T13:00:00	4	Temperatura máxima	25.1
51999	7	Sololá	710	Panajachel	8	Panajachel	8	Agosto	2023-01-08T00:00:00	2024-11-08T13:00:00	3	Temperatura mínima	24.2
52000	7	Sololá	710	Panajachel	8	Panajachel	8	Agosto	2023-01-08T00:00:00	2024-11-08T13:00:00	5	Humedad	78
52001	7	Sololá	710	Panajachel	8	Panajachel	8	Agosto	2023-01-08T00:00:00	2024-11-08T13:00:00	6	Velocidad del viento	4.8
52002	7	Sololá	710	Panajachel	8	Panajachel	8	Agosto	2023-01-08T00:00:00	2024-11-08T13:00:00	7	Dirección del viento	4.83
52003	7	Sololá	710	Panajachel	8	Panajachel	8	Agosto	2023-01-08T00:00:00	2024-11-08T13:00:00	1	Precipitación	0
52004	7	Sololá	710	Panajachel	8	Panajachel	8	Agosto	2023-01-08T00:00:00	2024-11-08T13:00:00	8	Radiación solar	708
52005	7	Sololá	710	Panajachel	8	Panajachel	8	Agosto	2023-01-08T00:00:00	2024-11-08T14:00:00	2	Temperatura media	24.9
52006	7	Sololá	710	Panajachel	8	Panajachel	8	Agosto	2023-01-08T00:00:00	2024-11-08T14:00:00	4	Temperatura máxima	25.2
52007	7	Sololá	710	Panajachel	8	Panajachel	8	Agosto	2023-01-08T00:00:00	2024-11-08T14:00:00	3	Temperatura mínima	24.5
52008	7	Sololá	710	Panajachel	8	Panajachel	8	Agosto	2023-01-08T00:00:00	2024-11-08T14:00:00	5	Humedad	78
52009	7	Sololá	710	Panajachel	8	Panajachel	8	Agosto	2023-01-08T00:00:00	2024-11-08T14:00:00	6	Velocidad del viento	6.4
52010	7	Sololá	710	Panajachel	8	Panajachel	8	Agosto	2023-01-08T00:00:00	2024-11-08T14:00:00	7	Dirección del viento	6.44
52011	7	Sololá	710	Panajachel	8	Panajachel	8	Agosto	2023-01-08T00:00:00	2024-11-08T14:00:00	1	Precipitación	0
52012	7	Sololá	710	Panajachel	8	Panajachel	8	Agosto	2023-01-08T00:00:00	2024-11-08T14:00:00	8	Radiación solar	892
52013	7	Sololá	710	Panajachel	8	Panajachel	8	Agosto	2023-01-08T00:00:00	2024-11-08T15:00:00	2	Temperatura media	24.4
52014	7	Sololá	710	Panajachel	8	Panajachel	8	Agosto	2023-01-08T00:00:00	2024-11-08T15:00:00	4	Temperatura máxima	25.2
52015	7	Sololá	710	Panajachel	8	Panajachel	8	Agosto	2023-01-08T00:00:00	2024-11-08T15:00:00	3	Temperatura mínima	23.8
52016	7	Sololá	710	Panajachel	8	Panajachel	8	Agosto	2023-01-08T00:00:00	2024-11-08T15:00:00	5	Humedad	78
52017	7	Sololá	710	Panajachel	8	Panajachel	8	Agosto	2023-01-08T00:00:00	2024-11-08T15:00:00	6	Velocidad del viento	6.4
52018	7	Sololá	710	Panajachel	8	Panajachel	8	Agosto	2023-01-08T00:00:00	2024-11-08T15:00:00	7	Dirección del viento	6.44
52019	7	Sololá	710	Panajachel	8	Panajachel	8	Agosto	2023-01-08T00:00:00	2024-11-08T15:00:00	1	Precipitación	0
52020	7	Sololá	710	Panajachel	8	Panajachel	8	Agosto	2023-01-08T00:00:00	2024-11-08T15:00:00	8	Radiación solar	620
52021	7	Sololá	710	Panajachel	8	Panajachel	8	Agosto	2023-01-08T00:00:00	2024-11-08T16:00:00	2	Temperatura media	21.7
52022	7	Sololá	710	Panajachel	8	Panajachel	8	Agosto	2023-01-08T00:00:00	2024-11-08T16:00:00	4	Temperatura máxima	24.4
52023	7	Sololá	710	Panajachel	8	Panajachel	8	Agosto	2023-01-08T00:00:00	2024-11-08T16:00:00	3	Temperatura mínima	21.7
52024	7	Sololá	710	Panajachel	8	Panajachel	8	Agosto	2023-01-08T00:00:00	2024-11-08T16:00:00	5	Humedad	89
52025	7	Sololá	710	Panajachel	8	Panajachel	8	Agosto	2023-01-08T00:00:00	2024-11-08T16:00:00	6	Velocidad del viento	4.8
52026	7	Sololá	710	Panajachel	8	Panajachel	8	Agosto	2023-01-08T00:00:00	2024-11-08T16:00:00	7	Dirección del viento	4.83
52027	7	Sololá	710	Panajachel	8	Panajachel	8	Agosto	2023-01-08T00:00:00	2024-11-08T16:00:00	1	Precipitación	0.2
52028	7	Sololá	710	Panajachel	8	Panajachel	8	Agosto	2023-01-08T00:00:00	2024-11-08T16:00:00	8	Radiación solar	148
52029	7	Sololá	710	Panajachel	8	Panajachel	8	Agosto	2023-01-08T00:00:00	2024-11-08T17:00:00	2	Temperatura media	18.4
52030	7	Sololá	710	Panajachel	8	Panajachel	8	Agosto	2023-01-08T00:00:00	2024-11-08T17:00:00	4	Temperatura máxima	21.7
52031	7	Sololá	710	Panajachel	8	Panajachel	8	Agosto	2023-01-08T00:00:00	2024-11-08T17:00:00	3	Temperatura mínima	18.4
52032	7	Sololá	710	Panajachel	8	Panajachel	8	Agosto	2023-01-08T00:00:00	2024-11-08T17:00:00	5	Humedad	95
52033	7	Sololá	710	Panajachel	8	Panajachel	8	Agosto	2023-01-08T00:00:00	2024-11-08T17:00:00	6	Velocidad del viento	4.8
52034	7	Sololá	710	Panajachel	8	Panajachel	8	Agosto	2023-01-08T00:00:00	2024-11-08T17:00:00	7	Dirección del viento	4.83
52035	7	Sololá	710	Panajachel	8	Panajachel	8	Agosto	2023-01-08T00:00:00	2024-11-08T17:00:00	1	Precipitación	6.2
52036	7	Sololá	710	Panajachel	8	Panajachel	8	Agosto	2023-01-08T00:00:00	2024-11-08T17:00:00	8	Radiación solar	13
52037	7	Sololá	710	Panajachel	8	Panajachel	8	Agosto	2023-01-08T00:00:00	2024-11-08T18:00:00	2	Temperatura media	18.8
52038	7	Sololá	710	Panajachel	8	Panajachel	8	Agosto	2023-01-08T00:00:00	2024-11-08T18:00:00	4	Temperatura máxima	18.8
52039	7	Sololá	710	Panajachel	8	Panajachel	8	Agosto	2023-01-08T00:00:00	2024-11-08T18:00:00	3	Temperatura mínima	18.3
52040	7	Sololá	710	Panajachel	8	Panajachel	8	Agosto	2023-01-08T00:00:00	2024-11-08T18:00:00	5	Humedad	96
52041	7	Sololá	710	Panajachel	8	Panajachel	8	Agosto	2023-01-08T00:00:00	2024-11-08T18:00:00	6	Velocidad del viento	3.2
52042	7	Sololá	710	Panajachel	8	Panajachel	8	Agosto	2023-01-08T00:00:00	2024-11-08T18:00:00	7	Dirección del viento	3.22
52043	7	Sololá	710	Panajachel	8	Panajachel	8	Agosto	2023-01-08T00:00:00	2024-11-08T18:00:00	1	Precipitación	0.4
52044	7	Sololá	710	Panajachel	8	Panajachel	8	Agosto	2023-01-08T00:00:00	2024-11-08T18:00:00	8	Radiación solar	19
52045	7	Sololá	710	Panajachel	8	Panajachel	8	Agosto	2023-01-08T00:00:00	2024-11-08T19:00:00	2	Temperatura media	18.7
52046	7	Sololá	710	Panajachel	8	Panajachel	8	Agosto	2023-01-08T00:00:00	2024-11-08T19:00:00	4	Temperatura máxima	18.8
52047	7	Sololá	710	Panajachel	8	Panajachel	8	Agosto	2023-01-08T00:00:00	2024-11-08T19:00:00	3	Temperatura mínima	18.7
52048	7	Sololá	710	Panajachel	8	Panajachel	8	Agosto	2023-01-08T00:00:00	2024-11-08T19:00:00	5	Humedad	96
52049	7	Sololá	710	Panajachel	8	Panajachel	8	Agosto	2023-01-08T00:00:00	2024-11-08T19:00:00	6	Velocidad del viento	1.6
52050	7	Sololá	710	Panajachel	8	Panajachel	8	Agosto	2023-01-08T00:00:00	2024-11-08T19:00:00	7	Dirección del viento	1.61
52051	7	Sololá	710	Panajachel	8	Panajachel	8	Agosto	2023-01-08T00:00:00	2024-11-08T19:00:00	1	Precipitación	0
52052	7	Sololá	710	Panajachel	8	Panajachel	8	Agosto	2023-01-08T00:00:00	2024-11-08T19:00:00	8	Radiación solar	0
52053	7	Sololá	710	Panajachel	8	Panajachel	8	Agosto	2023-01-08T00:00:00	2024-11-08T20:00:00	2	Temperatura media	18.6
52054	7	Sololá	710	Panajachel	8	Panajachel	8	Agosto	2023-01-08T00:00:00	2024-11-08T20:00:00	4	Temperatura máxima	18.8
52055	7	Sololá	710	Panajachel	8	Panajachel	8	Agosto	2023-01-08T00:00:00	2024-11-08T20:00:00	3	Temperatura mínima	18.4
52056	7	Sololá	710	Panajachel	8	Panajachel	8	Agosto	2023-01-08T00:00:00	2024-11-08T20:00:00	5	Humedad	96
52057	7	Sololá	710	Panajachel	8	Panajachel	8	Agosto	2023-01-08T00:00:00	2024-11-08T20:00:00	6	Velocidad del viento	0
52058	7	Sololá	710	Panajachel	8	Panajachel	8	Agosto	2023-01-08T00:00:00	2024-11-08T20:00:00	7	Dirección del viento	0
52059	7	Sololá	710	Panajachel	8	Panajachel	8	Agosto	2023-01-08T00:00:00	2024-11-08T20:00:00	1	Precipitación	0
52060	7	Sololá	710	Panajachel	8	Panajachel	8	Agosto	2023-01-08T00:00:00	2024-11-08T20:00:00	8	Radiación solar	0
52061	7	Sololá	710	Panajachel	8	Panajachel	8	Agosto	2023-01-08T00:00:00	2024-11-08T21:00:00	2	Temperatura media	18.8
52062	7	Sololá	710	Panajachel	8	Panajachel	8	Agosto	2023-01-08T00:00:00	2024-11-08T21:00:00	4	Temperatura máxima	18.9
52063	7	Sololá	710	Panajachel	8	Panajachel	8	Agosto	2023-01-08T00:00:00	2024-11-08T21:00:00	3	Temperatura mínima	18.5
52064	7	Sololá	710	Panajachel	8	Panajachel	8	Agosto	2023-01-08T00:00:00	2024-11-08T21:00:00	5	Humedad	93
52065	7	Sololá	710	Panajachel	8	Panajachel	8	Agosto	2023-01-08T00:00:00	2024-11-08T21:00:00	6	Velocidad del viento	3.2
52066	7	Sololá	710	Panajachel	8	Panajachel	8	Agosto	2023-01-08T00:00:00	2024-11-08T21:00:00	7	Dirección del viento	3.22
52067	7	Sololá	710	Panajachel	8	Panajachel	8	Agosto	2023-01-08T00:00:00	2024-11-08T21:00:00	1	Precipitación	0.4
52068	7	Sololá	710	Panajachel	8	Panajachel	8	Agosto	2023-01-08T00:00:00	2024-11-08T21:00:00	8	Radiación solar	0
52069	7	Sololá	710	Panajachel	8	Panajachel	8	Agosto	2023-01-08T00:00:00	2024-11-08T22:00:00	2	Temperatura media	17.4
52070	7	Sololá	710	Panajachel	8	Panajachel	8	Agosto	2023-01-08T00:00:00	2024-11-08T22:00:00	4	Temperatura máxima	18.7
52071	7	Sololá	710	Panajachel	8	Panajachel	8	Agosto	2023-01-08T00:00:00	2024-11-08T22:00:00	3	Temperatura mínima	17.4
52072	7	Sololá	710	Panajachel	8	Panajachel	8	Agosto	2023-01-08T00:00:00	2024-11-08T22:00:00	5	Humedad	93
52073	7	Sololá	710	Panajachel	8	Panajachel	8	Agosto	2023-01-08T00:00:00	2024-11-08T22:00:00	6	Velocidad del viento	4.8
52074	7	Sololá	710	Panajachel	8	Panajachel	8	Agosto	2023-01-08T00:00:00	2024-11-08T22:00:00	7	Dirección del viento	4.83
52075	7	Sololá	710	Panajachel	8	Panajachel	8	Agosto	2023-01-08T00:00:00	2024-11-08T22:00:00	1	Precipitación	2.4
52076	7	Sololá	710	Panajachel	8	Panajachel	8	Agosto	2023-01-08T00:00:00	2024-11-08T22:00:00	8	Radiación solar	0
52077	7	Sololá	710	Panajachel	8	Panajachel	8	Agosto	2023-01-08T00:00:00	2024-11-08T23:00:00	2	Temperatura media	16.8
52078	7	Sololá	710	Panajachel	8	Panajachel	8	Agosto	2023-01-08T00:00:00	2024-11-08T23:00:00	4	Temperatura máxima	17.4
52079	7	Sololá	710	Panajachel	8	Panajachel	8	Agosto	2023-01-08T00:00:00	2024-11-08T23:00:00	3	Temperatura mínima	16.7
52080	7	Sololá	710	Panajachel	8	Panajachel	8	Agosto	2023-01-08T00:00:00	2024-11-08T23:00:00	5	Humedad	95
52081	7	Sololá	710	Panajachel	8	Panajachel	8	Agosto	2023-01-08T00:00:00	2024-11-08T23:00:00	6	Velocidad del viento	0
52082	7	Sololá	710	Panajachel	8	Panajachel	8	Agosto	2023-01-08T00:00:00	2024-11-08T23:00:00	7	Dirección del viento	0
52083	7	Sololá	710	Panajachel	8	Panajachel	8	Agosto	2023-01-08T00:00:00	2024-11-08T23:00:00	1	Precipitación	0.2
52084	7	Sololá	710	Panajachel	8	Panajachel	8	Agosto	2023-01-08T00:00:00	2024-11-08T23:00:00	8	Radiación solar	0
52085	7	Sololá	710	Panajachel	8	Panajachel	8	Agosto	2023-02-08T00:00:00	2024-11-08T00:00:00	2	Temperatura media	16.6
52086	7	Sololá	710	Panajachel	8	Panajachel	8	Agosto	2023-02-08T00:00:00	2024-11-08T00:00:00	4	Temperatura máxima	16.8
52087	7	Sololá	710	Panajachel	8	Panajachel	8	Agosto	2023-02-08T00:00:00	2024-11-08T00:00:00	3	Temperatura mínima	16.6
52088	7	Sololá	710	Panajachel	8	Panajachel	8	Agosto	2023-02-08T00:00:00	2024-11-08T00:00:00	5	Humedad	94
52089	7	Sololá	710	Panajachel	8	Panajachel	8	Agosto	2023-02-08T00:00:00	2024-11-08T00:00:00	6	Velocidad del viento	0
52090	7	Sololá	710	Panajachel	8	Panajachel	8	Agosto	2023-02-08T00:00:00	2024-11-08T00:00:00	7	Dirección del viento	0
52091	7	Sololá	710	Panajachel	8	Panajachel	8	Agosto	2023-02-08T00:00:00	2024-11-08T00:00:00	1	Precipitación	0.4
52092	7	Sololá	710	Panajachel	8	Panajachel	8	Agosto	2023-02-08T00:00:00	2024-11-08T00:00:00	8	Radiación solar	0
52093	7	Sololá	710	Panajachel	8	Panajachel	8	Agosto	2023-02-08T00:00:00	2024-11-08T01:00:00	2	Temperatura media	16.6
52094	7	Sololá	710	Panajachel	8	Panajachel	8	Agosto	2023-02-08T00:00:00	2024-11-08T01:00:00	4	Temperatura máxima	16.6
52095	7	Sololá	710	Panajachel	8	Panajachel	8	Agosto	2023-02-08T00:00:00	2024-11-08T01:00:00	3	Temperatura mínima	16.5
52096	7	Sololá	710	Panajachel	8	Panajachel	8	Agosto	2023-02-08T00:00:00	2024-11-08T01:00:00	5	Humedad	95
52097	7	Sololá	710	Panajachel	8	Panajachel	8	Agosto	2023-02-08T00:00:00	2024-11-08T01:00:00	6	Velocidad del viento	1.6
52098	7	Sololá	710	Panajachel	8	Panajachel	8	Agosto	2023-02-08T00:00:00	2024-11-08T01:00:00	7	Dirección del viento	1.61
52099	7	Sololá	710	Panajachel	8	Panajachel	8	Agosto	2023-02-08T00:00:00	2024-11-08T01:00:00	1	Precipitación	0
52100	7	Sololá	710	Panajachel	8	Panajachel	8	Agosto	2023-02-08T00:00:00	2024-11-08T01:00:00	8	Radiación solar	0
52101	7	Sololá	710	Panajachel	8	Panajachel	8	Agosto	2023-02-08T00:00:00	2024-11-08T02:00:00	2	Temperatura media	16.3
52102	7	Sololá	710	Panajachel	8	Panajachel	8	Agosto	2023-02-08T00:00:00	2024-11-08T02:00:00	4	Temperatura máxima	16.6
52103	7	Sololá	710	Panajachel	8	Panajachel	8	Agosto	2023-02-08T00:00:00	2024-11-08T02:00:00	3	Temperatura mínima	16.3
52104	7	Sololá	710	Panajachel	8	Panajachel	8	Agosto	2023-02-08T00:00:00	2024-11-08T02:00:00	5	Humedad	94
52105	7	Sololá	710	Panajachel	8	Panajachel	8	Agosto	2023-02-08T00:00:00	2024-11-08T02:00:00	6	Velocidad del viento	3.2
52106	7	Sololá	710	Panajachel	8	Panajachel	8	Agosto	2023-02-08T00:00:00	2024-11-08T02:00:00	7	Dirección del viento	3.22
52107	7	Sololá	710	Panajachel	8	Panajachel	8	Agosto	2023-02-08T00:00:00	2024-11-08T02:00:00	1	Precipitación	0
52108	7	Sololá	710	Panajachel	8	Panajachel	8	Agosto	2023-02-08T00:00:00	2024-11-08T02:00:00	8	Radiación solar	0
52109	7	Sololá	710	Panajachel	8	Panajachel	8	Agosto	2023-02-08T00:00:00	2024-11-08T03:00:00	2	Temperatura media	16.9
52110	7	Sololá	710	Panajachel	8	Panajachel	8	Agosto	2023-02-08T00:00:00	2024-11-08T03:00:00	4	Temperatura máxima	16.9
52111	7	Sololá	710	Panajachel	8	Panajachel	8	Agosto	2023-02-08T00:00:00	2024-11-08T03:00:00	3	Temperatura mínima	16.3
52112	7	Sololá	710	Panajachel	8	Panajachel	8	Agosto	2023-02-08T00:00:00	2024-11-08T03:00:00	5	Humedad	87
52113	7	Sololá	710	Panajachel	8	Panajachel	8	Agosto	2023-02-08T00:00:00	2024-11-08T03:00:00	6	Velocidad del viento	3.2
52114	7	Sololá	710	Panajachel	8	Panajachel	8	Agosto	2023-02-08T00:00:00	2024-11-08T03:00:00	7	Dirección del viento	3.22
52115	7	Sololá	710	Panajachel	8	Panajachel	8	Agosto	2023-02-08T00:00:00	2024-11-08T03:00:00	1	Precipitación	0
52116	7	Sololá	710	Panajachel	8	Panajachel	8	Agosto	2023-02-08T00:00:00	2024-11-08T03:00:00	8	Radiación solar	0
52117	7	Sololá	710	Panajachel	8	Panajachel	8	Agosto	2023-02-08T00:00:00	2024-11-08T04:00:00	2	Temperatura media	17
52118	7	Sololá	710	Panajachel	8	Panajachel	8	Agosto	2023-02-08T00:00:00	2024-11-08T04:00:00	4	Temperatura máxima	17.1
52119	7	Sololá	710	Panajachel	8	Panajachel	8	Agosto	2023-02-08T00:00:00	2024-11-08T04:00:00	3	Temperatura mínima	16.8
52120	7	Sololá	710	Panajachel	8	Panajachel	8	Agosto	2023-02-08T00:00:00	2024-11-08T04:00:00	5	Humedad	84
52121	7	Sololá	710	Panajachel	8	Panajachel	8	Agosto	2023-02-08T00:00:00	2024-11-08T04:00:00	6	Velocidad del viento	1.6
52122	7	Sololá	710	Panajachel	8	Panajachel	8	Agosto	2023-02-08T00:00:00	2024-11-08T04:00:00	7	Dirección del viento	1.61
52123	7	Sololá	710	Panajachel	8	Panajachel	8	Agosto	2023-02-08T00:00:00	2024-11-08T04:00:00	1	Precipitación	0
52124	7	Sololá	710	Panajachel	8	Panajachel	8	Agosto	2023-02-08T00:00:00	2024-11-08T04:00:00	8	Radiación solar	0
52125	7	Sololá	710	Panajachel	8	Panajachel	8	Agosto	2023-02-08T00:00:00	2024-11-08T05:00:00	2	Temperatura media	16.7
52126	7	Sololá	710	Panajachel	8	Panajachel	8	Agosto	2023-02-08T00:00:00	2024-11-08T05:00:00	4	Temperatura máxima	17.4
52127	7	Sololá	710	Panajachel	8	Panajachel	8	Agosto	2023-02-08T00:00:00	2024-11-08T05:00:00	3	Temperatura mínima	16.6
52128	7	Sololá	710	Panajachel	8	Panajachel	8	Agosto	2023-02-08T00:00:00	2024-11-08T05:00:00	5	Humedad	89
52129	7	Sololá	710	Panajachel	8	Panajachel	8	Agosto	2023-02-08T00:00:00	2024-11-08T05:00:00	6	Velocidad del viento	1.6
52130	7	Sololá	710	Panajachel	8	Panajachel	8	Agosto	2023-02-08T00:00:00	2024-11-08T05:00:00	7	Dirección del viento	1.61
52131	7	Sololá	710	Panajachel	8	Panajachel	8	Agosto	2023-02-08T00:00:00	2024-11-08T05:00:00	1	Precipitación	0
52132	7	Sololá	710	Panajachel	8	Panajachel	8	Agosto	2023-02-08T00:00:00	2024-11-08T05:00:00	8	Radiación solar	0
52133	7	Sololá	710	Panajachel	8	Panajachel	8	Agosto	2023-02-08T00:00:00	2024-11-08T06:00:00	2	Temperatura media	17.2
52134	7	Sololá	710	Panajachel	8	Panajachel	8	Agosto	2023-02-08T00:00:00	2024-11-08T06:00:00	4	Temperatura máxima	17.6
52135	7	Sololá	710	Panajachel	8	Panajachel	8	Agosto	2023-02-08T00:00:00	2024-11-08T06:00:00	3	Temperatura mínima	16.7
52136	7	Sololá	710	Panajachel	8	Panajachel	8	Agosto	2023-02-08T00:00:00	2024-11-08T06:00:00	5	Humedad	86
52137	7	Sololá	710	Panajachel	8	Panajachel	8	Agosto	2023-02-08T00:00:00	2024-11-08T06:00:00	6	Velocidad del viento	1.6
52138	7	Sololá	710	Panajachel	8	Panajachel	8	Agosto	2023-02-08T00:00:00	2024-11-08T06:00:00	7	Dirección del viento	1.61
52139	7	Sololá	710	Panajachel	8	Panajachel	8	Agosto	2023-02-08T00:00:00	2024-11-08T06:00:00	1	Precipitación	0
52140	7	Sololá	710	Panajachel	8	Panajachel	8	Agosto	2023-02-08T00:00:00	2024-11-08T06:00:00	8	Radiación solar	0
52141	7	Sololá	710	Panajachel	8	Panajachel	8	Agosto	2023-02-08T00:00:00	2024-11-08T07:00:00	2	Temperatura media	17.6
52142	7	Sololá	710	Panajachel	8	Panajachel	8	Agosto	2023-02-08T00:00:00	2024-11-08T07:00:00	4	Temperatura máxima	17.6
52143	7	Sololá	710	Panajachel	8	Panajachel	8	Agosto	2023-02-08T00:00:00	2024-11-08T07:00:00	3	Temperatura mínima	17.1
52144	7	Sololá	710	Panajachel	8	Panajachel	8	Agosto	2023-02-08T00:00:00	2024-11-08T07:00:00	5	Humedad	86
52145	7	Sololá	710	Panajachel	8	Panajachel	8	Agosto	2023-02-08T00:00:00	2024-11-08T07:00:00	6	Velocidad del viento	3.2
52146	7	Sololá	710	Panajachel	8	Panajachel	8	Agosto	2023-02-08T00:00:00	2024-11-08T07:00:00	7	Dirección del viento	3.22
52147	7	Sololá	710	Panajachel	8	Panajachel	8	Agosto	2023-02-08T00:00:00	2024-11-08T07:00:00	1	Precipitación	0
52148	7	Sololá	710	Panajachel	8	Panajachel	8	Agosto	2023-02-08T00:00:00	2024-11-08T07:00:00	8	Radiación solar	20
52149	7	Sololá	710	Panajachel	8	Panajachel	8	Agosto	2023-02-08T00:00:00	2024-11-08T08:00:00	2	Temperatura media	19.1
52150	7	Sololá	710	Panajachel	8	Panajachel	8	Agosto	2023-02-08T00:00:00	2024-11-08T08:00:00	4	Temperatura máxima	19.1
52151	7	Sololá	710	Panajachel	8	Panajachel	8	Agosto	2023-02-08T00:00:00	2024-11-08T08:00:00	3	Temperatura mínima	17.6
52152	7	Sololá	710	Panajachel	8	Panajachel	8	Agosto	2023-02-08T00:00:00	2024-11-08T08:00:00	5	Humedad	81
52153	7	Sololá	710	Panajachel	8	Panajachel	8	Agosto	2023-02-08T00:00:00	2024-11-08T08:00:00	6	Velocidad del viento	0
52154	7	Sololá	710	Panajachel	8	Panajachel	8	Agosto	2023-02-08T00:00:00	2024-11-08T08:00:00	7	Dirección del viento	0
52155	7	Sololá	710	Panajachel	8	Panajachel	8	Agosto	2023-02-08T00:00:00	2024-11-08T08:00:00	1	Precipitación	0
52156	7	Sololá	710	Panajachel	8	Panajachel	8	Agosto	2023-02-08T00:00:00	2024-11-08T08:00:00	8	Radiación solar	92
52157	7	Sololá	710	Panajachel	8	Panajachel	8	Agosto	2023-02-08T00:00:00	2024-11-08T09:00:00	2	Temperatura media	20.6
52158	7	Sololá	710	Panajachel	8	Panajachel	8	Agosto	2023-02-08T00:00:00	2024-11-08T09:00:00	4	Temperatura máxima	20.6
52159	7	Sololá	710	Panajachel	8	Panajachel	8	Agosto	2023-02-08T00:00:00	2024-11-08T09:00:00	3	Temperatura mínima	19.1
52160	7	Sololá	710	Panajachel	8	Panajachel	8	Agosto	2023-02-08T00:00:00	2024-11-08T09:00:00	5	Humedad	79
52161	7	Sololá	710	Panajachel	8	Panajachel	8	Agosto	2023-02-08T00:00:00	2024-11-08T09:00:00	6	Velocidad del viento	0
52162	7	Sololá	710	Panajachel	8	Panajachel	8	Agosto	2023-02-08T00:00:00	2024-11-08T09:00:00	7	Dirección del viento	0
52163	7	Sololá	710	Panajachel	8	Panajachel	8	Agosto	2023-02-08T00:00:00	2024-11-08T09:00:00	1	Precipitación	0
52164	7	Sololá	710	Panajachel	8	Panajachel	8	Agosto	2023-02-08T00:00:00	2024-11-08T09:00:00	8	Radiación solar	185
52165	7	Sololá	710	Panajachel	8	Panajachel	8	Agosto	2023-02-08T00:00:00	2024-11-08T10:00:00	2	Temperatura media	21.4
52166	7	Sololá	710	Panajachel	8	Panajachel	8	Agosto	2023-02-08T00:00:00	2024-11-08T10:00:00	4	Temperatura máxima	21.6
52167	7	Sololá	710	Panajachel	8	Panajachel	8	Agosto	2023-02-08T00:00:00	2024-11-08T10:00:00	3	Temperatura mínima	20.6
52168	7	Sololá	710	Panajachel	8	Panajachel	8	Agosto	2023-02-08T00:00:00	2024-11-08T10:00:00	5	Humedad	73
52169	7	Sololá	710	Panajachel	8	Panajachel	8	Agosto	2023-02-08T00:00:00	2024-11-08T10:00:00	6	Velocidad del viento	3.2
52170	7	Sololá	710	Panajachel	8	Panajachel	8	Agosto	2023-02-08T00:00:00	2024-11-08T10:00:00	7	Dirección del viento	3.22
52171	7	Sololá	710	Panajachel	8	Panajachel	8	Agosto	2023-02-08T00:00:00	2024-11-08T10:00:00	1	Precipitación	0
52172	7	Sololá	710	Panajachel	8	Panajachel	8	Agosto	2023-02-08T00:00:00	2024-11-08T10:00:00	8	Radiación solar	332
52173	7	Sololá	710	Panajachel	8	Panajachel	8	Agosto	2023-02-08T00:00:00	2024-11-08T11:00:00	2	Temperatura media	22.1
52174	7	Sololá	710	Panajachel	8	Panajachel	8	Agosto	2023-02-08T00:00:00	2024-11-08T11:00:00	4	Temperatura máxima	22.2
52175	7	Sololá	710	Panajachel	8	Panajachel	8	Agosto	2023-02-08T00:00:00	2024-11-08T11:00:00	3	Temperatura mínima	21.4
52176	7	Sololá	710	Panajachel	8	Panajachel	8	Agosto	2023-02-08T00:00:00	2024-11-08T11:00:00	5	Humedad	72
52177	7	Sololá	710	Panajachel	8	Panajachel	8	Agosto	2023-02-08T00:00:00	2024-11-08T11:00:00	6	Velocidad del viento	3.2
52178	7	Sololá	710	Panajachel	8	Panajachel	8	Agosto	2023-02-08T00:00:00	2024-11-08T11:00:00	7	Dirección del viento	3.22
52179	7	Sololá	710	Panajachel	8	Panajachel	8	Agosto	2023-02-08T00:00:00	2024-11-08T11:00:00	1	Precipitación	0
52180	7	Sololá	710	Panajachel	8	Panajachel	8	Agosto	2023-02-08T00:00:00	2024-11-08T11:00:00	8	Radiación solar	312
52181	7	Sololá	710	Panajachel	8	Panajachel	8	Agosto	2023-02-08T00:00:00	2024-11-08T12:00:00	2	Temperatura media	22.3
52182	7	Sololá	710	Panajachel	8	Panajachel	8	Agosto	2023-02-08T00:00:00	2024-11-08T12:00:00	4	Temperatura máxima	22.7
52183	7	Sololá	710	Panajachel	8	Panajachel	8	Agosto	2023-02-08T00:00:00	2024-11-08T12:00:00	3	Temperatura mínima	21.9
52184	7	Sololá	710	Panajachel	8	Panajachel	8	Agosto	2023-02-08T00:00:00	2024-11-08T12:00:00	5	Humedad	70
52185	7	Sololá	710	Panajachel	8	Panajachel	8	Agosto	2023-02-08T00:00:00	2024-11-08T12:00:00	6	Velocidad del viento	1.6
52186	7	Sololá	710	Panajachel	8	Panajachel	8	Agosto	2023-02-08T00:00:00	2024-11-08T12:00:00	7	Dirección del viento	1.61
52187	7	Sololá	710	Panajachel	8	Panajachel	8	Agosto	2023-02-08T00:00:00	2024-11-08T12:00:00	1	Precipitación	0
52188	7	Sololá	710	Panajachel	8	Panajachel	8	Agosto	2023-02-08T00:00:00	2024-11-08T12:00:00	8	Radiación solar	286
52189	7	Sololá	710	Panajachel	8	Panajachel	8	Agosto	2023-02-08T00:00:00	2024-11-08T13:00:00	2	Temperatura media	22
52190	7	Sololá	710	Panajachel	8	Panajachel	8	Agosto	2023-02-08T00:00:00	2024-11-08T13:00:00	4	Temperatura máxima	22.4
52191	7	Sololá	710	Panajachel	8	Panajachel	8	Agosto	2023-02-08T00:00:00	2024-11-08T13:00:00	3	Temperatura mínima	21.9
52192	7	Sololá	710	Panajachel	8	Panajachel	8	Agosto	2023-02-08T00:00:00	2024-11-08T13:00:00	5	Humedad	75
52193	7	Sololá	710	Panajachel	8	Panajachel	8	Agosto	2023-02-08T00:00:00	2024-11-08T13:00:00	6	Velocidad del viento	0
52194	7	Sololá	710	Panajachel	8	Panajachel	8	Agosto	2023-02-08T00:00:00	2024-11-08T13:00:00	7	Dirección del viento	0
52195	7	Sololá	710	Panajachel	8	Panajachel	8	Agosto	2023-02-08T00:00:00	2024-11-08T13:00:00	1	Precipitación	0
52196	7	Sololá	710	Panajachel	8	Panajachel	8	Agosto	2023-02-08T00:00:00	2024-11-08T13:00:00	8	Radiación solar	143
52197	7	Sololá	710	Panajachel	8	Panajachel	8	Agosto	2023-02-08T00:00:00	2024-11-08T14:00:00	2	Temperatura media	22.2
52198	7	Sololá	710	Panajachel	8	Panajachel	8	Agosto	2023-02-08T00:00:00	2024-11-08T14:00:00	4	Temperatura máxima	22.3
52199	7	Sololá	710	Panajachel	8	Panajachel	8	Agosto	2023-02-08T00:00:00	2024-11-08T14:00:00	3	Temperatura mínima	21.9
52200	7	Sololá	710	Panajachel	8	Panajachel	8	Agosto	2023-02-08T00:00:00	2024-11-08T14:00:00	5	Humedad	78
52201	7	Sololá	710	Panajachel	8	Panajachel	8	Agosto	2023-02-08T00:00:00	2024-11-08T14:00:00	6	Velocidad del viento	1.6
52202	7	Sololá	710	Panajachel	8	Panajachel	8	Agosto	2023-02-08T00:00:00	2024-11-08T14:00:00	7	Dirección del viento	1.61
52203	7	Sololá	710	Panajachel	8	Panajachel	8	Agosto	2023-02-08T00:00:00	2024-11-08T14:00:00	1	Precipitación	0
52204	7	Sololá	710	Panajachel	8	Panajachel	8	Agosto	2023-02-08T00:00:00	2024-11-08T14:00:00	8	Radiación solar	164
52205	7	Sololá	710	Panajachel	8	Panajachel	8	Agosto	2023-02-08T00:00:00	2024-11-08T15:00:00	2	Temperatura media	22.6
52206	7	Sololá	710	Panajachel	8	Panajachel	8	Agosto	2023-02-08T00:00:00	2024-11-08T15:00:00	4	Temperatura máxima	22.6
52207	7	Sololá	710	Panajachel	8	Panajachel	8	Agosto	2023-02-08T00:00:00	2024-11-08T15:00:00	3	Temperatura mínima	22.1
52208	7	Sololá	710	Panajachel	8	Panajachel	8	Agosto	2023-02-08T00:00:00	2024-11-08T15:00:00	5	Humedad	71
52209	7	Sololá	710	Panajachel	8	Panajachel	8	Agosto	2023-02-08T00:00:00	2024-11-08T15:00:00	6	Velocidad del viento	0
52210	7	Sololá	710	Panajachel	8	Panajachel	8	Agosto	2023-02-08T00:00:00	2024-11-08T15:00:00	7	Dirección del viento	0
52211	7	Sololá	710	Panajachel	8	Panajachel	8	Agosto	2023-02-08T00:00:00	2024-11-08T15:00:00	1	Precipitación	0
52212	7	Sololá	710	Panajachel	8	Panajachel	8	Agosto	2023-02-08T00:00:00	2024-11-08T15:00:00	8	Radiación solar	185
52213	7	Sololá	710	Panajachel	8	Panajachel	8	Agosto	2023-02-08T00:00:00	2024-11-08T16:00:00	2	Temperatura media	22.1
52214	7	Sololá	710	Panajachel	8	Panajachel	8	Agosto	2023-02-08T00:00:00	2024-11-08T16:00:00	4	Temperatura máxima	22.8
52215	7	Sololá	710	Panajachel	8	Panajachel	8	Agosto	2023-02-08T00:00:00	2024-11-08T16:00:00	3	Temperatura mínima	22.1
52216	7	Sololá	710	Panajachel	8	Panajachel	8	Agosto	2023-02-08T00:00:00	2024-11-08T16:00:00	5	Humedad	81
52217	7	Sololá	710	Panajachel	8	Panajachel	8	Agosto	2023-02-08T00:00:00	2024-11-08T16:00:00	6	Velocidad del viento	1.6
52218	7	Sololá	710	Panajachel	8	Panajachel	8	Agosto	2023-02-08T00:00:00	2024-11-08T16:00:00	7	Dirección del viento	1.61
52219	7	Sololá	710	Panajachel	8	Panajachel	8	Agosto	2023-02-08T00:00:00	2024-11-08T16:00:00	1	Precipitación	0
52220	7	Sololá	710	Panajachel	8	Panajachel	8	Agosto	2023-02-08T00:00:00	2024-11-08T16:00:00	8	Radiación solar	160
52221	7	Sololá	710	Panajachel	8	Panajachel	8	Agosto	2023-02-08T00:00:00	2024-11-08T17:00:00	2	Temperatura media	21.6
52222	7	Sololá	710	Panajachel	8	Panajachel	8	Agosto	2023-02-08T00:00:00	2024-11-08T17:00:00	4	Temperatura máxima	22.1
52223	7	Sololá	710	Panajachel	8	Panajachel	8	Agosto	2023-02-08T00:00:00	2024-11-08T17:00:00	3	Temperatura mínima	21.4
52224	7	Sololá	710	Panajachel	8	Panajachel	8	Agosto	2023-02-08T00:00:00	2024-11-08T17:00:00	5	Humedad	82
52225	7	Sololá	710	Panajachel	8	Panajachel	8	Agosto	2023-02-08T00:00:00	2024-11-08T17:00:00	6	Velocidad del viento	0
52226	7	Sololá	710	Panajachel	8	Panajachel	8	Agosto	2023-02-08T00:00:00	2024-11-08T17:00:00	7	Dirección del viento	0
52227	7	Sololá	710	Panajachel	8	Panajachel	8	Agosto	2023-02-08T00:00:00	2024-11-08T17:00:00	1	Precipitación	0
52228	7	Sololá	710	Panajachel	8	Panajachel	8	Agosto	2023-02-08T00:00:00	2024-11-08T17:00:00	8	Radiación solar	77
52229	7	Sololá	710	Panajachel	8	Panajachel	8	Agosto	2023-02-08T00:00:00	2024-11-08T18:00:00	2	Temperatura media	21
52230	7	Sololá	710	Panajachel	8	Panajachel	8	Agosto	2023-02-08T00:00:00	2024-11-08T18:00:00	4	Temperatura máxima	21.6
52231	7	Sololá	710	Panajachel	8	Panajachel	8	Agosto	2023-02-08T00:00:00	2024-11-08T18:00:00	3	Temperatura mínima	20.9
52232	7	Sololá	710	Panajachel	8	Panajachel	8	Agosto	2023-02-08T00:00:00	2024-11-08T18:00:00	5	Humedad	83
52233	7	Sololá	710	Panajachel	8	Panajachel	8	Agosto	2023-02-08T00:00:00	2024-11-08T18:00:00	6	Velocidad del viento	1.6
52234	7	Sololá	710	Panajachel	8	Panajachel	8	Agosto	2023-02-08T00:00:00	2024-11-08T18:00:00	7	Dirección del viento	1.61
52235	7	Sololá	710	Panajachel	8	Panajachel	8	Agosto	2023-02-08T00:00:00	2024-11-08T18:00:00	1	Precipitación	0
52236	7	Sololá	710	Panajachel	8	Panajachel	8	Agosto	2023-02-08T00:00:00	2024-11-08T18:00:00	8	Radiación solar	11
52237	7	Sololá	710	Panajachel	8	Panajachel	8	Agosto	2023-02-08T00:00:00	2024-11-08T19:00:00	2	Temperatura media	20.4
52238	7	Sololá	710	Panajachel	8	Panajachel	8	Agosto	2023-02-08T00:00:00	2024-11-08T19:00:00	4	Temperatura máxima	21
52239	7	Sololá	710	Panajachel	8	Panajachel	8	Agosto	2023-02-08T00:00:00	2024-11-08T19:00:00	3	Temperatura mínima	20.3
52240	7	Sololá	710	Panajachel	8	Panajachel	8	Agosto	2023-02-08T00:00:00	2024-11-08T19:00:00	5	Humedad	86
52241	7	Sololá	710	Panajachel	8	Panajachel	8	Agosto	2023-02-08T00:00:00	2024-11-08T19:00:00	6	Velocidad del viento	0
52242	7	Sololá	710	Panajachel	8	Panajachel	8	Agosto	2023-02-08T00:00:00	2024-11-08T19:00:00	7	Dirección del viento	0
52243	7	Sololá	710	Panajachel	8	Panajachel	8	Agosto	2023-02-08T00:00:00	2024-11-08T19:00:00	1	Precipitación	0
52244	7	Sololá	710	Panajachel	8	Panajachel	8	Agosto	2023-02-08T00:00:00	2024-11-08T19:00:00	8	Radiación solar	0
52245	7	Sololá	710	Panajachel	8	Panajachel	8	Agosto	2023-02-08T00:00:00	2024-11-08T20:00:00	2	Temperatura media	20.2
52246	7	Sololá	710	Panajachel	8	Panajachel	8	Agosto	2023-02-08T00:00:00	2024-11-08T20:00:00	4	Temperatura máxima	20.8
52247	7	Sololá	710	Panajachel	8	Panajachel	8	Agosto	2023-02-08T00:00:00	2024-11-08T20:00:00	3	Temperatura mínima	20.1
52248	7	Sololá	710	Panajachel	8	Panajachel	8	Agosto	2023-02-08T00:00:00	2024-11-08T20:00:00	5	Humedad	79
52249	7	Sololá	710	Panajachel	8	Panajachel	8	Agosto	2023-02-08T00:00:00	2024-11-08T20:00:00	6	Velocidad del viento	1.6
52250	7	Sololá	710	Panajachel	8	Panajachel	8	Agosto	2023-02-08T00:00:00	2024-11-08T20:00:00	7	Dirección del viento	1.61
52251	7	Sololá	710	Panajachel	8	Panajachel	8	Agosto	2023-02-08T00:00:00	2024-11-08T20:00:00	1	Precipitación	0
52252	7	Sololá	710	Panajachel	8	Panajachel	8	Agosto	2023-02-08T00:00:00	2024-11-08T20:00:00	8	Radiación solar	0
52253	7	Sololá	710	Panajachel	8	Panajachel	8	Agosto	2023-02-08T00:00:00	2024-11-08T21:00:00	2	Temperatura media	19.9
52254	7	Sololá	710	Panajachel	8	Panajachel	8	Agosto	2023-02-08T00:00:00	2024-11-08T21:00:00	4	Temperatura máxima	20.2
52255	7	Sololá	710	Panajachel	8	Panajachel	8	Agosto	2023-02-08T00:00:00	2024-11-08T21:00:00	3	Temperatura mínima	19.8
52256	7	Sololá	710	Panajachel	8	Panajachel	8	Agosto	2023-02-08T00:00:00	2024-11-08T21:00:00	5	Humedad	80
52257	7	Sololá	710	Panajachel	8	Panajachel	8	Agosto	2023-02-08T00:00:00	2024-11-08T21:00:00	6	Velocidad del viento	1.6
52258	7	Sololá	710	Panajachel	8	Panajachel	8	Agosto	2023-02-08T00:00:00	2024-11-08T21:00:00	7	Dirección del viento	1.61
52259	7	Sololá	710	Panajachel	8	Panajachel	8	Agosto	2023-02-08T00:00:00	2024-11-08T21:00:00	1	Precipitación	0
52260	7	Sololá	710	Panajachel	8	Panajachel	8	Agosto	2023-02-08T00:00:00	2024-11-08T21:00:00	8	Radiación solar	0
52261	7	Sololá	710	Panajachel	8	Panajachel	8	Agosto	2023-02-08T00:00:00	2024-11-08T22:00:00	2	Temperatura media	19.8
52262	7	Sololá	710	Panajachel	8	Panajachel	8	Agosto	2023-02-08T00:00:00	2024-11-08T22:00:00	4	Temperatura máxima	20.8
52263	7	Sololá	710	Panajachel	8	Panajachel	8	Agosto	2023-02-08T00:00:00	2024-11-08T22:00:00	3	Temperatura mínima	19.8
52264	7	Sololá	710	Panajachel	8	Panajachel	8	Agosto	2023-02-08T00:00:00	2024-11-08T22:00:00	5	Humedad	80
52265	7	Sololá	710	Panajachel	8	Panajachel	8	Agosto	2023-02-08T00:00:00	2024-11-08T22:00:00	6	Velocidad del viento	1.6
52266	7	Sololá	710	Panajachel	8	Panajachel	8	Agosto	2023-02-08T00:00:00	2024-11-08T22:00:00	7	Dirección del viento	1.61
52267	7	Sololá	710	Panajachel	8	Panajachel	8	Agosto	2023-02-08T00:00:00	2024-11-08T22:00:00	1	Precipitación	0
52268	7	Sololá	710	Panajachel	8	Panajachel	8	Agosto	2023-02-08T00:00:00	2024-11-08T22:00:00	8	Radiación solar	0
52269	7	Sololá	710	Panajachel	8	Panajachel	8	Agosto	2023-02-08T00:00:00	2024-11-08T23:00:00	2	Temperatura media	19.4
52270	7	Sololá	710	Panajachel	8	Panajachel	8	Agosto	2023-02-08T00:00:00	2024-11-08T23:00:00	4	Temperatura máxima	19.9
52271	7	Sololá	710	Panajachel	8	Panajachel	8	Agosto	2023-02-08T00:00:00	2024-11-08T23:00:00	3	Temperatura mínima	19.4
52272	7	Sololá	710	Panajachel	8	Panajachel	8	Agosto	2023-02-08T00:00:00	2024-11-08T23:00:00	5	Humedad	83
52273	7	Sololá	710	Panajachel	8	Panajachel	8	Agosto	2023-02-08T00:00:00	2024-11-08T23:00:00	6	Velocidad del viento	0
52274	7	Sololá	710	Panajachel	8	Panajachel	8	Agosto	2023-02-08T00:00:00	2024-11-08T23:00:00	7	Dirección del viento	0
52275	7	Sololá	710	Panajachel	8	Panajachel	8	Agosto	2023-02-08T00:00:00	2024-11-08T23:00:00	1	Precipitación	0
52276	7	Sololá	710	Panajachel	8	Panajachel	8	Agosto	2023-02-08T00:00:00	2024-11-08T23:00:00	8	Radiación solar	0
52277	7	Sololá	710	Panajachel	8	Panajachel	8	Agosto	2023-03-08T00:00:00	2024-11-08T00:00:00	2	Temperatura media	19.4
52278	7	Sololá	710	Panajachel	8	Panajachel	8	Agosto	2023-03-08T00:00:00	2024-11-08T00:00:00	4	Temperatura máxima	19.6
52279	7	Sololá	710	Panajachel	8	Panajachel	8	Agosto	2023-03-08T00:00:00	2024-11-08T00:00:00	3	Temperatura mínima	19.2
52280	7	Sololá	710	Panajachel	8	Panajachel	8	Agosto	2023-03-08T00:00:00	2024-11-08T00:00:00	5	Humedad	83
52281	7	Sololá	710	Panajachel	8	Panajachel	8	Agosto	2023-03-08T00:00:00	2024-11-08T00:00:00	6	Velocidad del viento	1.6
52282	7	Sololá	710	Panajachel	8	Panajachel	8	Agosto	2023-03-08T00:00:00	2024-11-08T00:00:00	7	Dirección del viento	1.61
52283	7	Sololá	710	Panajachel	8	Panajachel	8	Agosto	2023-03-08T00:00:00	2024-11-08T00:00:00	1	Precipitación	0
52284	7	Sololá	710	Panajachel	8	Panajachel	8	Agosto	2023-03-08T00:00:00	2024-11-08T00:00:00	8	Radiación solar	0
52285	7	Sololá	710	Panajachel	8	Panajachel	8	Agosto	2023-03-08T00:00:00	2024-11-08T01:00:00	2	Temperatura media	19.8
52286	7	Sololá	710	Panajachel	8	Panajachel	8	Agosto	2023-03-08T00:00:00	2024-11-08T01:00:00	4	Temperatura máxima	20.2
52287	7	Sololá	710	Panajachel	8	Panajachel	8	Agosto	2023-03-08T00:00:00	2024-11-08T01:00:00	3	Temperatura mínima	19.3
52288	7	Sololá	710	Panajachel	8	Panajachel	8	Agosto	2023-03-08T00:00:00	2024-11-08T01:00:00	5	Humedad	81
52289	7	Sololá	710	Panajachel	8	Panajachel	8	Agosto	2023-03-08T00:00:00	2024-11-08T01:00:00	6	Velocidad del viento	3.2
52290	7	Sololá	710	Panajachel	8	Panajachel	8	Agosto	2023-03-08T00:00:00	2024-11-08T01:00:00	7	Dirección del viento	3.22
52291	7	Sololá	710	Panajachel	8	Panajachel	8	Agosto	2023-03-08T00:00:00	2024-11-08T01:00:00	1	Precipitación	0
52292	7	Sololá	710	Panajachel	8	Panajachel	8	Agosto	2023-03-08T00:00:00	2024-11-08T01:00:00	8	Radiación solar	0
52293	7	Sololá	710	Panajachel	8	Panajachel	8	Agosto	2023-03-08T00:00:00	2024-11-08T02:00:00	2	Temperatura media	18.8
52294	7	Sololá	710	Panajachel	8	Panajachel	8	Agosto	2023-03-08T00:00:00	2024-11-08T02:00:00	4	Temperatura máxima	19.8
52295	7	Sololá	710	Panajachel	8	Panajachel	8	Agosto	2023-03-08T00:00:00	2024-11-08T02:00:00	3	Temperatura mínima	18.8
52296	7	Sololá	710	Panajachel	8	Panajachel	8	Agosto	2023-03-08T00:00:00	2024-11-08T02:00:00	5	Humedad	81
52297	7	Sololá	710	Panajachel	8	Panajachel	8	Agosto	2023-03-08T00:00:00	2024-11-08T02:00:00	6	Velocidad del viento	4.8
52298	7	Sololá	710	Panajachel	8	Panajachel	8	Agosto	2023-03-08T00:00:00	2024-11-08T02:00:00	7	Dirección del viento	4.83
52299	7	Sololá	710	Panajachel	8	Panajachel	8	Agosto	2023-03-08T00:00:00	2024-11-08T02:00:00	1	Precipitación	0
52300	7	Sololá	710	Panajachel	8	Panajachel	8	Agosto	2023-03-08T00:00:00	2024-11-08T02:00:00	8	Radiación solar	0
52301	7	Sololá	710	Panajachel	8	Panajachel	8	Agosto	2023-03-08T00:00:00	2024-11-08T03:00:00	2	Temperatura media	18.6
52302	7	Sololá	710	Panajachel	8	Panajachel	8	Agosto	2023-03-08T00:00:00	2024-11-08T03:00:00	4	Temperatura máxima	18.8
52303	7	Sololá	710	Panajachel	8	Panajachel	8	Agosto	2023-03-08T00:00:00	2024-11-08T03:00:00	3	Temperatura mínima	18.1
52304	7	Sololá	710	Panajachel	8	Panajachel	8	Agosto	2023-03-08T00:00:00	2024-11-08T03:00:00	5	Humedad	80
52305	7	Sololá	710	Panajachel	8	Panajachel	8	Agosto	2023-03-08T00:00:00	2024-11-08T03:00:00	6	Velocidad del viento	4.8
52306	7	Sololá	710	Panajachel	8	Panajachel	8	Agosto	2023-03-08T00:00:00	2024-11-08T03:00:00	7	Dirección del viento	4.83
52307	7	Sololá	710	Panajachel	8	Panajachel	8	Agosto	2023-03-08T00:00:00	2024-11-08T03:00:00	1	Precipitación	0
52308	7	Sololá	710	Panajachel	8	Panajachel	8	Agosto	2023-03-08T00:00:00	2024-11-08T03:00:00	8	Radiación solar	0
52309	7	Sololá	710	Panajachel	8	Panajachel	8	Agosto	2023-03-08T00:00:00	2024-11-08T04:00:00	2	Temperatura media	18.8
52310	7	Sololá	710	Panajachel	8	Panajachel	8	Agosto	2023-03-08T00:00:00	2024-11-08T04:00:00	4	Temperatura máxima	19
52311	7	Sololá	710	Panajachel	8	Panajachel	8	Agosto	2023-03-08T00:00:00	2024-11-08T04:00:00	3	Temperatura mínima	18.6
52312	7	Sololá	710	Panajachel	8	Panajachel	8	Agosto	2023-03-08T00:00:00	2024-11-08T04:00:00	5	Humedad	79
52313	7	Sololá	710	Panajachel	8	Panajachel	8	Agosto	2023-03-08T00:00:00	2024-11-08T04:00:00	6	Velocidad del viento	3.2
52314	7	Sololá	710	Panajachel	8	Panajachel	8	Agosto	2023-03-08T00:00:00	2024-11-08T04:00:00	7	Dirección del viento	3.22
52315	7	Sololá	710	Panajachel	8	Panajachel	8	Agosto	2023-03-08T00:00:00	2024-11-08T04:00:00	1	Precipitación	0
52316	7	Sololá	710	Panajachel	8	Panajachel	8	Agosto	2023-03-08T00:00:00	2024-11-08T04:00:00	8	Radiación solar	0
52317	7	Sololá	710	Panajachel	8	Panajachel	8	Agosto	2023-03-08T00:00:00	2024-11-08T05:00:00	2	Temperatura media	18
52318	7	Sololá	710	Panajachel	8	Panajachel	8	Agosto	2023-03-08T00:00:00	2024-11-08T05:00:00	4	Temperatura máxima	18.8
52319	7	Sololá	710	Panajachel	8	Panajachel	8	Agosto	2023-03-08T00:00:00	2024-11-08T05:00:00	3	Temperatura mínima	17.9
52320	7	Sololá	710	Panajachel	8	Panajachel	8	Agosto	2023-03-08T00:00:00	2024-11-08T05:00:00	5	Humedad	82
52321	7	Sololá	710	Panajachel	8	Panajachel	8	Agosto	2023-03-08T00:00:00	2024-11-08T05:00:00	6	Velocidad del viento	3.2
52322	7	Sololá	710	Panajachel	8	Panajachel	8	Agosto	2023-03-08T00:00:00	2024-11-08T05:00:00	7	Dirección del viento	3.22
52323	7	Sololá	710	Panajachel	8	Panajachel	8	Agosto	2023-03-08T00:00:00	2024-11-08T05:00:00	1	Precipitación	0
52324	7	Sololá	710	Panajachel	8	Panajachel	8	Agosto	2023-03-08T00:00:00	2024-11-08T05:00:00	8	Radiación solar	0
52325	7	Sololá	710	Panajachel	8	Panajachel	8	Agosto	2023-03-08T00:00:00	2024-11-08T06:00:00	2	Temperatura media	17.4
52326	7	Sololá	710	Panajachel	8	Panajachel	8	Agosto	2023-03-08T00:00:00	2024-11-08T06:00:00	4	Temperatura máxima	18
52327	7	Sololá	710	Panajachel	8	Panajachel	8	Agosto	2023-03-08T00:00:00	2024-11-08T06:00:00	3	Temperatura mínima	17.2
52328	7	Sololá	710	Panajachel	8	Panajachel	8	Agosto	2023-03-08T00:00:00	2024-11-08T06:00:00	5	Humedad	83
52329	7	Sololá	710	Panajachel	8	Panajachel	8	Agosto	2023-03-08T00:00:00	2024-11-08T06:00:00	6	Velocidad del viento	3.2
52330	7	Sololá	710	Panajachel	8	Panajachel	8	Agosto	2023-03-08T00:00:00	2024-11-08T06:00:00	7	Dirección del viento	3.22
52331	7	Sololá	710	Panajachel	8	Panajachel	8	Agosto	2023-03-08T00:00:00	2024-11-08T06:00:00	1	Precipitación	0
52332	7	Sololá	710	Panajachel	8	Panajachel	8	Agosto	2023-03-08T00:00:00	2024-11-08T06:00:00	8	Radiación solar	1
52333	7	Sololá	710	Panajachel	8	Panajachel	8	Agosto	2023-03-08T00:00:00	2024-11-08T07:00:00	2	Temperatura media	19.1
52334	7	Sololá	710	Panajachel	8	Panajachel	8	Agosto	2023-03-08T00:00:00	2024-11-08T07:00:00	4	Temperatura máxima	19.1
52335	7	Sololá	710	Panajachel	8	Panajachel	8	Agosto	2023-03-08T00:00:00	2024-11-08T07:00:00	3	Temperatura mínima	17.3
52336	7	Sololá	710	Panajachel	8	Panajachel	8	Agosto	2023-03-08T00:00:00	2024-11-08T07:00:00	5	Humedad	78
52337	7	Sololá	710	Panajachel	8	Panajachel	8	Agosto	2023-03-08T00:00:00	2024-11-08T07:00:00	6	Velocidad del viento	4.8
52338	7	Sololá	710	Panajachel	8	Panajachel	8	Agosto	2023-03-08T00:00:00	2024-11-08T07:00:00	7	Dirección del viento	4.83
52339	7	Sololá	710	Panajachel	8	Panajachel	8	Agosto	2023-03-08T00:00:00	2024-11-08T07:00:00	1	Precipitación	0
52340	7	Sololá	710	Panajachel	8	Panajachel	8	Agosto	2023-03-08T00:00:00	2024-11-08T07:00:00	8	Radiación solar	81
52341	7	Sololá	710	Panajachel	8	Panajachel	8	Agosto	2023-03-08T00:00:00	2024-11-08T08:00:00	2	Temperatura media	21.8
52342	7	Sololá	710	Panajachel	8	Panajachel	8	Agosto	2023-03-08T00:00:00	2024-11-08T08:00:00	4	Temperatura máxima	21.8
52343	7	Sololá	710	Panajachel	8	Panajachel	8	Agosto	2023-03-08T00:00:00	2024-11-08T08:00:00	3	Temperatura mínima	19.1
52344	7	Sololá	710	Panajachel	8	Panajachel	8	Agosto	2023-03-08T00:00:00	2024-11-08T08:00:00	5	Humedad	73
52345	7	Sololá	710	Panajachel	8	Panajachel	8	Agosto	2023-03-08T00:00:00	2024-11-08T08:00:00	6	Velocidad del viento	1.6
52346	7	Sololá	710	Panajachel	8	Panajachel	8	Agosto	2023-03-08T00:00:00	2024-11-08T08:00:00	7	Dirección del viento	1.61
52347	7	Sololá	710	Panajachel	8	Panajachel	8	Agosto	2023-03-08T00:00:00	2024-11-08T08:00:00	1	Precipitación	0
52348	7	Sololá	710	Panajachel	8	Panajachel	8	Agosto	2023-03-08T00:00:00	2024-11-08T08:00:00	8	Radiación solar	298
52349	7	Sololá	710	Panajachel	8	Panajachel	8	Agosto	2023-03-08T00:00:00	2024-11-08T09:00:00	2	Temperatura media	22.2
52350	7	Sololá	710	Panajachel	8	Panajachel	8	Agosto	2023-03-08T00:00:00	2024-11-08T09:00:00	4	Temperatura máxima	22.6
52351	7	Sololá	710	Panajachel	8	Panajachel	8	Agosto	2023-03-08T00:00:00	2024-11-08T09:00:00	3	Temperatura mínima	21.8
52352	7	Sololá	710	Panajachel	8	Panajachel	8	Agosto	2023-03-08T00:00:00	2024-11-08T09:00:00	5	Humedad	80
52353	7	Sololá	710	Panajachel	8	Panajachel	8	Agosto	2023-03-08T00:00:00	2024-11-08T09:00:00	6	Velocidad del viento	1.6
52354	7	Sololá	710	Panajachel	8	Panajachel	8	Agosto	2023-03-08T00:00:00	2024-11-08T09:00:00	7	Dirección del viento	1.61
52355	7	Sololá	710	Panajachel	8	Panajachel	8	Agosto	2023-03-08T00:00:00	2024-11-08T09:00:00	1	Precipitación	0
52356	7	Sololá	710	Panajachel	8	Panajachel	8	Agosto	2023-03-08T00:00:00	2024-11-08T09:00:00	8	Radiación solar	521
52357	7	Sololá	710	Panajachel	8	Panajachel	8	Agosto	2023-03-08T00:00:00	2024-11-08T10:00:00	2	Temperatura media	23
52358	7	Sololá	710	Panajachel	8	Panajachel	8	Agosto	2023-03-08T00:00:00	2024-11-08T10:00:00	4	Temperatura máxima	23.1
52359	7	Sololá	710	Panajachel	8	Panajachel	8	Agosto	2023-03-08T00:00:00	2024-11-08T10:00:00	3	Temperatura mínima	22.2
52360	7	Sololá	710	Panajachel	8	Panajachel	8	Agosto	2023-03-08T00:00:00	2024-11-08T10:00:00	5	Humedad	75
52361	7	Sololá	710	Panajachel	8	Panajachel	8	Agosto	2023-03-08T00:00:00	2024-11-08T10:00:00	6	Velocidad del viento	1.6
52362	7	Sololá	710	Panajachel	8	Panajachel	8	Agosto	2023-03-08T00:00:00	2024-11-08T10:00:00	7	Dirección del viento	1.61
52363	7	Sololá	710	Panajachel	8	Panajachel	8	Agosto	2023-03-08T00:00:00	2024-11-08T10:00:00	1	Precipitación	0
52364	7	Sololá	710	Panajachel	8	Panajachel	8	Agosto	2023-03-08T00:00:00	2024-11-08T10:00:00	8	Radiación solar	720
52365	7	Sololá	710	Panajachel	8	Panajachel	8	Agosto	2023-03-08T00:00:00	2024-11-08T11:00:00	2	Temperatura media	23.6
52366	7	Sololá	710	Panajachel	8	Panajachel	8	Agosto	2023-03-08T00:00:00	2024-11-08T11:00:00	4	Temperatura máxima	23.8
52367	7	Sololá	710	Panajachel	8	Panajachel	8	Agosto	2023-03-08T00:00:00	2024-11-08T11:00:00	3	Temperatura mínima	22.4
52368	7	Sololá	710	Panajachel	8	Panajachel	8	Agosto	2023-03-08T00:00:00	2024-11-08T11:00:00	5	Humedad	71
52369	7	Sololá	710	Panajachel	8	Panajachel	8	Agosto	2023-03-08T00:00:00	2024-11-08T11:00:00	6	Velocidad del viento	3.2
52370	7	Sololá	710	Panajachel	8	Panajachel	8	Agosto	2023-03-08T00:00:00	2024-11-08T11:00:00	7	Dirección del viento	3.22
52371	7	Sololá	710	Panajachel	8	Panajachel	8	Agosto	2023-03-08T00:00:00	2024-11-08T11:00:00	1	Precipitación	0
52372	7	Sololá	710	Panajachel	8	Panajachel	8	Agosto	2023-03-08T00:00:00	2024-11-08T11:00:00	8	Radiación solar	766
52373	7	Sololá	710	Panajachel	8	Panajachel	8	Agosto	2023-03-08T00:00:00	2024-11-08T12:00:00	2	Temperatura media	22.6
52374	7	Sololá	710	Panajachel	8	Panajachel	8	Agosto	2023-03-08T00:00:00	2024-11-08T12:00:00	4	Temperatura máxima	23.7
52375	7	Sololá	710	Panajachel	8	Panajachel	8	Agosto	2023-03-08T00:00:00	2024-11-08T12:00:00	3	Temperatura mínima	22.6
52376	7	Sololá	710	Panajachel	8	Panajachel	8	Agosto	2023-03-08T00:00:00	2024-11-08T12:00:00	5	Humedad	82
52377	7	Sololá	710	Panajachel	8	Panajachel	8	Agosto	2023-03-08T00:00:00	2024-11-08T12:00:00	6	Velocidad del viento	3.2
52378	7	Sololá	710	Panajachel	8	Panajachel	8	Agosto	2023-03-08T00:00:00	2024-11-08T12:00:00	7	Dirección del viento	3.22
52379	7	Sololá	710	Panajachel	8	Panajachel	8	Agosto	2023-03-08T00:00:00	2024-11-08T12:00:00	1	Precipitación	0
52380	7	Sololá	710	Panajachel	8	Panajachel	8	Agosto	2023-03-08T00:00:00	2024-11-08T12:00:00	8	Radiación solar	242
52381	7	Sololá	710	Panajachel	8	Panajachel	8	Agosto	2023-03-08T00:00:00	2024-11-08T13:00:00	2	Temperatura media	22.8
52382	7	Sololá	710	Panajachel	8	Panajachel	8	Agosto	2023-03-08T00:00:00	2024-11-08T13:00:00	4	Temperatura máxima	22.8
52383	7	Sololá	710	Panajachel	8	Panajachel	8	Agosto	2023-03-08T00:00:00	2024-11-08T13:00:00	3	Temperatura mínima	22.6
52384	7	Sololá	710	Panajachel	8	Panajachel	8	Agosto	2023-03-08T00:00:00	2024-11-08T13:00:00	5	Humedad	82
52385	7	Sololá	710	Panajachel	8	Panajachel	8	Agosto	2023-03-08T00:00:00	2024-11-08T13:00:00	6	Velocidad del viento	1.6
52386	7	Sololá	710	Panajachel	8	Panajachel	8	Agosto	2023-03-08T00:00:00	2024-11-08T13:00:00	7	Dirección del viento	1.61
52387	7	Sololá	710	Panajachel	8	Panajachel	8	Agosto	2023-03-08T00:00:00	2024-11-08T13:00:00	1	Precipitación	0
52388	7	Sololá	710	Panajachel	8	Panajachel	8	Agosto	2023-03-08T00:00:00	2024-11-08T13:00:00	8	Radiación solar	166
52389	7	Sololá	710	Panajachel	8	Panajachel	8	Agosto	2023-03-08T00:00:00	2024-11-08T14:00:00	2	Temperatura media	18.1
52390	7	Sololá	710	Panajachel	8	Panajachel	8	Agosto	2023-03-08T00:00:00	2024-11-08T14:00:00	4	Temperatura máxima	22.8
52391	7	Sololá	710	Panajachel	8	Panajachel	8	Agosto	2023-03-08T00:00:00	2024-11-08T14:00:00	3	Temperatura mínima	18.1
52392	7	Sololá	710	Panajachel	8	Panajachel	8	Agosto	2023-03-08T00:00:00	2024-11-08T14:00:00	5	Humedad	92
52393	7	Sololá	710	Panajachel	8	Panajachel	8	Agosto	2023-03-08T00:00:00	2024-11-08T14:00:00	6	Velocidad del viento	4.8
52394	7	Sololá	710	Panajachel	8	Panajachel	8	Agosto	2023-03-08T00:00:00	2024-11-08T14:00:00	7	Dirección del viento	4.83
52395	7	Sololá	710	Panajachel	8	Panajachel	8	Agosto	2023-03-08T00:00:00	2024-11-08T14:00:00	1	Precipitación	6
52396	7	Sololá	710	Panajachel	8	Panajachel	8	Agosto	2023-03-08T00:00:00	2024-11-08T14:00:00	8	Radiación solar	82
52397	7	Sololá	710	Panajachel	8	Panajachel	8	Agosto	2023-03-08T00:00:00	2024-11-08T15:00:00	2	Temperatura media	21.3
52398	7	Sololá	710	Panajachel	8	Panajachel	8	Agosto	2023-03-08T00:00:00	2024-11-08T15:00:00	4	Temperatura máxima	21.3
52399	7	Sololá	710	Panajachel	8	Panajachel	8	Agosto	2023-03-08T00:00:00	2024-11-08T15:00:00	3	Temperatura mínima	17.8
52400	7	Sololá	710	Panajachel	8	Panajachel	8	Agosto	2023-03-08T00:00:00	2024-11-08T15:00:00	5	Humedad	86
52401	7	Sololá	710	Panajachel	8	Panajachel	8	Agosto	2023-03-08T00:00:00	2024-11-08T15:00:00	6	Velocidad del viento	4.8
52402	7	Sololá	710	Panajachel	8	Panajachel	8	Agosto	2023-03-08T00:00:00	2024-11-08T15:00:00	7	Dirección del viento	4.83
52403	7	Sololá	710	Panajachel	8	Panajachel	8	Agosto	2023-03-08T00:00:00	2024-11-08T15:00:00	1	Precipitación	0.4
52404	7	Sololá	710	Panajachel	8	Panajachel	8	Agosto	2023-03-08T00:00:00	2024-11-08T15:00:00	8	Radiación solar	404
52405	7	Sololá	710	Panajachel	8	Panajachel	8	Agosto	2023-03-08T00:00:00	2024-11-08T16:00:00	2	Temperatura media	21.2
52406	7	Sololá	710	Panajachel	8	Panajachel	8	Agosto	2023-03-08T00:00:00	2024-11-08T16:00:00	4	Temperatura máxima	22.6
52407	7	Sololá	710	Panajachel	8	Panajachel	8	Agosto	2023-03-08T00:00:00	2024-11-08T16:00:00	3	Temperatura mínima	21.2
52408	7	Sololá	710	Panajachel	8	Panajachel	8	Agosto	2023-03-08T00:00:00	2024-11-08T16:00:00	5	Humedad	85
52409	7	Sololá	710	Panajachel	8	Panajachel	8	Agosto	2023-03-08T00:00:00	2024-11-08T16:00:00	6	Velocidad del viento	3.2
52410	7	Sololá	710	Panajachel	8	Panajachel	8	Agosto	2023-03-08T00:00:00	2024-11-08T16:00:00	7	Dirección del viento	3.22
52411	7	Sololá	710	Panajachel	8	Panajachel	8	Agosto	2023-03-08T00:00:00	2024-11-08T16:00:00	1	Precipitación	0
52412	7	Sololá	710	Panajachel	8	Panajachel	8	Agosto	2023-03-08T00:00:00	2024-11-08T16:00:00	8	Radiación solar	345
52413	7	Sololá	710	Panajachel	8	Panajachel	8	Agosto	2023-03-08T00:00:00	2024-11-08T17:00:00	2	Temperatura media	20.1
52414	7	Sololá	710	Panajachel	8	Panajachel	8	Agosto	2023-03-08T00:00:00	2024-11-08T17:00:00	4	Temperatura máxima	21.2
52415	7	Sololá	710	Panajachel	8	Panajachel	8	Agosto	2023-03-08T00:00:00	2024-11-08T17:00:00	3	Temperatura mínima	20.1
52416	7	Sololá	710	Panajachel	8	Panajachel	8	Agosto	2023-03-08T00:00:00	2024-11-08T17:00:00	5	Humedad	90
52417	7	Sololá	710	Panajachel	8	Panajachel	8	Agosto	2023-03-08T00:00:00	2024-11-08T17:00:00	6	Velocidad del viento	3.2
52418	7	Sololá	710	Panajachel	8	Panajachel	8	Agosto	2023-03-08T00:00:00	2024-11-08T17:00:00	7	Dirección del viento	3.22
52419	7	Sololá	710	Panajachel	8	Panajachel	8	Agosto	2023-03-08T00:00:00	2024-11-08T17:00:00	1	Precipitación	0
52420	7	Sololá	710	Panajachel	8	Panajachel	8	Agosto	2023-03-08T00:00:00	2024-11-08T17:00:00	8	Radiación solar	139
52421	7	Sololá	710	Panajachel	8	Panajachel	8	Agosto	2023-03-08T00:00:00	2024-11-08T18:00:00	2	Temperatura media	18.6
52422	7	Sololá	710	Panajachel	8	Panajachel	8	Agosto	2023-03-08T00:00:00	2024-11-08T18:00:00	4	Temperatura máxima	20.1
52423	7	Sololá	710	Panajachel	8	Panajachel	8	Agosto	2023-03-08T00:00:00	2024-11-08T18:00:00	3	Temperatura mínima	18.6
52424	7	Sololá	710	Panajachel	8	Panajachel	8	Agosto	2023-03-08T00:00:00	2024-11-08T18:00:00	5	Humedad	94
52425	7	Sololá	710	Panajachel	8	Panajachel	8	Agosto	2023-03-08T00:00:00	2024-11-08T18:00:00	6	Velocidad del viento	0
52426	7	Sololá	710	Panajachel	8	Panajachel	8	Agosto	2023-03-08T00:00:00	2024-11-08T18:00:00	7	Dirección del viento	0
52427	7	Sololá	710	Panajachel	8	Panajachel	8	Agosto	2023-03-08T00:00:00	2024-11-08T18:00:00	1	Precipitación	2.8
52428	7	Sololá	710	Panajachel	8	Panajachel	8	Agosto	2023-03-08T00:00:00	2024-11-08T18:00:00	8	Radiación solar	17
52429	7	Sololá	710	Panajachel	8	Panajachel	8	Agosto	2023-03-08T00:00:00	2024-11-08T19:00:00	2	Temperatura media	18.3
52430	7	Sololá	710	Panajachel	8	Panajachel	8	Agosto	2023-03-08T00:00:00	2024-11-08T19:00:00	4	Temperatura máxima	18.7
52431	7	Sololá	710	Panajachel	8	Panajachel	8	Agosto	2023-03-08T00:00:00	2024-11-08T19:00:00	3	Temperatura mínima	18.2
52432	7	Sololá	710	Panajachel	8	Panajachel	8	Agosto	2023-03-08T00:00:00	2024-11-08T19:00:00	5	Humedad	91
52433	7	Sololá	710	Panajachel	8	Panajachel	8	Agosto	2023-03-08T00:00:00	2024-11-08T19:00:00	6	Velocidad del viento	3.2
52434	7	Sololá	710	Panajachel	8	Panajachel	8	Agosto	2023-03-08T00:00:00	2024-11-08T19:00:00	7	Dirección del viento	3.22
52435	7	Sololá	710	Panajachel	8	Panajachel	8	Agosto	2023-03-08T00:00:00	2024-11-08T19:00:00	1	Precipitación	0.8
52436	7	Sololá	710	Panajachel	8	Panajachel	8	Agosto	2023-03-08T00:00:00	2024-11-08T19:00:00	8	Radiación solar	0
52437	7	Sololá	710	Panajachel	8	Panajachel	8	Agosto	2023-03-08T00:00:00	2024-11-08T20:00:00	2	Temperatura media	18
52438	7	Sololá	710	Panajachel	8	Panajachel	8	Agosto	2023-03-08T00:00:00	2024-11-08T20:00:00	4	Temperatura máxima	18.3
52439	7	Sololá	710	Panajachel	8	Panajachel	8	Agosto	2023-03-08T00:00:00	2024-11-08T20:00:00	3	Temperatura mínima	17.9
52440	7	Sololá	710	Panajachel	8	Panajachel	8	Agosto	2023-03-08T00:00:00	2024-11-08T20:00:00	5	Humedad	91
52441	7	Sololá	710	Panajachel	8	Panajachel	8	Agosto	2023-03-08T00:00:00	2024-11-08T20:00:00	6	Velocidad del viento	1.6
52442	7	Sololá	710	Panajachel	8	Panajachel	8	Agosto	2023-03-08T00:00:00	2024-11-08T20:00:00	7	Dirección del viento	1.61
52443	7	Sololá	710	Panajachel	8	Panajachel	8	Agosto	2023-03-08T00:00:00	2024-11-08T20:00:00	1	Precipitación	1.8
52444	7	Sololá	710	Panajachel	8	Panajachel	8	Agosto	2023-03-08T00:00:00	2024-11-08T20:00:00	8	Radiación solar	0
52445	7	Sololá	710	Panajachel	8	Panajachel	8	Agosto	2023-03-08T00:00:00	2024-11-08T21:00:00	2	Temperatura media	18
52446	7	Sololá	710	Panajachel	8	Panajachel	8	Agosto	2023-03-08T00:00:00	2024-11-08T21:00:00	4	Temperatura máxima	18.1
52447	7	Sololá	710	Panajachel	8	Panajachel	8	Agosto	2023-03-08T00:00:00	2024-11-08T21:00:00	3	Temperatura mínima	17.9
52448	7	Sololá	710	Panajachel	8	Panajachel	8	Agosto	2023-03-08T00:00:00	2024-11-08T21:00:00	5	Humedad	91
52449	7	Sololá	710	Panajachel	8	Panajachel	8	Agosto	2023-03-08T00:00:00	2024-11-08T21:00:00	6	Velocidad del viento	0
52450	7	Sololá	710	Panajachel	8	Panajachel	8	Agosto	2023-03-08T00:00:00	2024-11-08T21:00:00	7	Dirección del viento	0
52451	7	Sololá	710	Panajachel	8	Panajachel	8	Agosto	2023-03-08T00:00:00	2024-11-08T21:00:00	1	Precipitación	2.2
52452	7	Sololá	710	Panajachel	8	Panajachel	8	Agosto	2023-03-08T00:00:00	2024-11-08T21:00:00	8	Radiación solar	0
52453	7	Sololá	710	Panajachel	8	Panajachel	8	Agosto	2023-03-08T00:00:00	2024-11-08T22:00:00	2	Temperatura media	17.3
52454	7	Sololá	710	Panajachel	8	Panajachel	8	Agosto	2023-03-08T00:00:00	2024-11-08T22:00:00	4	Temperatura máxima	18
52455	7	Sololá	710	Panajachel	8	Panajachel	8	Agosto	2023-03-08T00:00:00	2024-11-08T22:00:00	3	Temperatura mínima	17.3
52456	7	Sololá	710	Panajachel	8	Panajachel	8	Agosto	2023-03-08T00:00:00	2024-11-08T22:00:00	5	Humedad	94
52457	7	Sololá	710	Panajachel	8	Panajachel	8	Agosto	2023-03-08T00:00:00	2024-11-08T22:00:00	6	Velocidad del viento	0
52458	7	Sololá	710	Panajachel	8	Panajachel	8	Agosto	2023-03-08T00:00:00	2024-11-08T22:00:00	7	Dirección del viento	0
52459	7	Sololá	710	Panajachel	8	Panajachel	8	Agosto	2023-03-08T00:00:00	2024-11-08T22:00:00	1	Precipitación	0.2
52460	7	Sololá	710	Panajachel	8	Panajachel	8	Agosto	2023-03-08T00:00:00	2024-11-08T22:00:00	8	Radiación solar	0
52461	7	Sololá	710	Panajachel	8	Panajachel	8	Agosto	2023-03-08T00:00:00	2024-11-08T23:00:00	2	Temperatura media	16.8
52462	7	Sololá	710	Panajachel	8	Panajachel	8	Agosto	2023-03-08T00:00:00	2024-11-08T23:00:00	4	Temperatura máxima	17.3
52463	7	Sololá	710	Panajachel	8	Panajachel	8	Agosto	2023-03-08T00:00:00	2024-11-08T23:00:00	3	Temperatura mínima	16.8
52464	7	Sololá	710	Panajachel	8	Panajachel	8	Agosto	2023-03-08T00:00:00	2024-11-08T23:00:00	5	Humedad	94
52465	7	Sololá	710	Panajachel	8	Panajachel	8	Agosto	2023-03-08T00:00:00	2024-11-08T23:00:00	6	Velocidad del viento	0
52466	7	Sololá	710	Panajachel	8	Panajachel	8	Agosto	2023-03-08T00:00:00	2024-11-08T23:00:00	7	Dirección del viento	0
52467	7	Sololá	710	Panajachel	8	Panajachel	8	Agosto	2023-03-08T00:00:00	2024-11-08T23:00:00	1	Precipitación	0
52468	7	Sololá	710	Panajachel	8	Panajachel	8	Agosto	2023-03-08T00:00:00	2024-11-08T23:00:00	8	Radiación solar	0
52469	7	Sololá	710	Panajachel	8	Panajachel	8	Agosto	2023-04-08T00:00:00	2024-11-08T00:00:00	2	Temperatura media	16.9
52470	7	Sololá	710	Panajachel	8	Panajachel	8	Agosto	2023-04-08T00:00:00	2024-11-08T00:00:00	4	Temperatura máxima	17.1
52471	7	Sololá	710	Panajachel	8	Panajachel	8	Agosto	2023-04-08T00:00:00	2024-11-08T00:00:00	3	Temperatura mínima	16.7
52472	7	Sololá	710	Panajachel	8	Panajachel	8	Agosto	2023-04-08T00:00:00	2024-11-08T00:00:00	5	Humedad	89
52473	7	Sololá	710	Panajachel	8	Panajachel	8	Agosto	2023-04-08T00:00:00	2024-11-08T00:00:00	6	Velocidad del viento	0
52474	7	Sololá	710	Panajachel	8	Panajachel	8	Agosto	2023-04-08T00:00:00	2024-11-08T00:00:00	7	Dirección del viento	0
52475	7	Sololá	710	Panajachel	8	Panajachel	8	Agosto	2023-04-08T00:00:00	2024-11-08T00:00:00	1	Precipitación	0
52476	7	Sololá	710	Panajachel	8	Panajachel	8	Agosto	2023-04-08T00:00:00	2024-11-08T00:00:00	8	Radiación solar	0
52477	7	Sololá	710	Panajachel	8	Panajachel	8	Agosto	2023-04-08T00:00:00	2024-11-08T01:00:00	2	Temperatura media	16.4
52478	7	Sololá	710	Panajachel	8	Panajachel	8	Agosto	2023-04-08T00:00:00	2024-11-08T01:00:00	4	Temperatura máxima	17.2
52479	7	Sololá	710	Panajachel	8	Panajachel	8	Agosto	2023-04-08T00:00:00	2024-11-08T01:00:00	3	Temperatura mínima	16.4
52480	7	Sololá	710	Panajachel	8	Panajachel	8	Agosto	2023-04-08T00:00:00	2024-11-08T01:00:00	5	Humedad	93
52481	7	Sololá	710	Panajachel	8	Panajachel	8	Agosto	2023-04-08T00:00:00	2024-11-08T01:00:00	6	Velocidad del viento	1.6
52482	7	Sololá	710	Panajachel	8	Panajachel	8	Agosto	2023-04-08T00:00:00	2024-11-08T01:00:00	7	Dirección del viento	1.61
52483	7	Sololá	710	Panajachel	8	Panajachel	8	Agosto	2023-04-08T00:00:00	2024-11-08T01:00:00	1	Precipitación	0
52484	7	Sololá	710	Panajachel	8	Panajachel	8	Agosto	2023-04-08T00:00:00	2024-11-08T01:00:00	8	Radiación solar	0
52485	7	Sololá	710	Panajachel	8	Panajachel	8	Agosto	2023-04-08T00:00:00	2024-11-08T02:00:00	2	Temperatura media	17.1
52486	7	Sololá	710	Panajachel	8	Panajachel	8	Agosto	2023-04-08T00:00:00	2024-11-08T02:00:00	4	Temperatura máxima	17.1
52487	7	Sololá	710	Panajachel	8	Panajachel	8	Agosto	2023-04-08T00:00:00	2024-11-08T02:00:00	3	Temperatura mínima	16.2
52488	7	Sololá	710	Panajachel	8	Panajachel	8	Agosto	2023-04-08T00:00:00	2024-11-08T02:00:00	5	Humedad	87
52489	7	Sololá	710	Panajachel	8	Panajachel	8	Agosto	2023-04-08T00:00:00	2024-11-08T02:00:00	6	Velocidad del viento	3.2
52490	7	Sololá	710	Panajachel	8	Panajachel	8	Agosto	2023-04-08T00:00:00	2024-11-08T02:00:00	7	Dirección del viento	3.22
52491	7	Sololá	710	Panajachel	8	Panajachel	8	Agosto	2023-04-08T00:00:00	2024-11-08T02:00:00	1	Precipitación	0.2
52492	7	Sololá	710	Panajachel	8	Panajachel	8	Agosto	2023-04-08T00:00:00	2024-11-08T02:00:00	8	Radiación solar	0
52493	7	Sololá	710	Panajachel	8	Panajachel	8	Agosto	2023-04-08T00:00:00	2024-11-08T03:00:00	2	Temperatura media	16.8
52494	7	Sololá	710	Panajachel	8	Panajachel	8	Agosto	2023-04-08T00:00:00	2024-11-08T03:00:00	4	Temperatura máxima	17.4
52495	7	Sololá	710	Panajachel	8	Panajachel	8	Agosto	2023-04-08T00:00:00	2024-11-08T03:00:00	3	Temperatura mínima	16.8
52496	7	Sololá	710	Panajachel	8	Panajachel	8	Agosto	2023-04-08T00:00:00	2024-11-08T03:00:00	5	Humedad	89
52497	7	Sololá	710	Panajachel	8	Panajachel	8	Agosto	2023-04-08T00:00:00	2024-11-08T03:00:00	6	Velocidad del viento	1.6
52498	7	Sololá	710	Panajachel	8	Panajachel	8	Agosto	2023-04-08T00:00:00	2024-11-08T03:00:00	7	Dirección del viento	1.61
52499	7	Sololá	710	Panajachel	8	Panajachel	8	Agosto	2023-04-08T00:00:00	2024-11-08T03:00:00	1	Precipitación	0
52500	7	Sololá	710	Panajachel	8	Panajachel	8	Agosto	2023-04-08T00:00:00	2024-11-08T03:00:00	8	Radiación solar	0
52501	7	Sololá	710	Panajachel	8	Panajachel	8	Agosto	2023-04-08T00:00:00	2024-11-08T04:00:00	2	Temperatura media	16.9
52502	7	Sololá	710	Panajachel	8	Panajachel	8	Agosto	2023-04-08T00:00:00	2024-11-08T04:00:00	4	Temperatura máxima	17.2
52503	7	Sololá	710	Panajachel	8	Panajachel	8	Agosto	2023-04-08T00:00:00	2024-11-08T04:00:00	3	Temperatura mínima	16.7
52504	7	Sololá	710	Panajachel	8	Panajachel	8	Agosto	2023-04-08T00:00:00	2024-11-08T04:00:00	5	Humedad	87
52505	7	Sololá	710	Panajachel	8	Panajachel	8	Agosto	2023-04-08T00:00:00	2024-11-08T04:00:00	6	Velocidad del viento	3.2
52506	7	Sololá	710	Panajachel	8	Panajachel	8	Agosto	2023-04-08T00:00:00	2024-11-08T04:00:00	7	Dirección del viento	3.22
52507	7	Sololá	710	Panajachel	8	Panajachel	8	Agosto	2023-04-08T00:00:00	2024-11-08T04:00:00	1	Precipitación	0
52508	7	Sololá	710	Panajachel	8	Panajachel	8	Agosto	2023-04-08T00:00:00	2024-11-08T04:00:00	8	Radiación solar	0
52509	7	Sololá	710	Panajachel	8	Panajachel	8	Agosto	2023-04-08T00:00:00	2024-11-08T05:00:00	2	Temperatura media	17.1
52510	7	Sololá	710	Panajachel	8	Panajachel	8	Agosto	2023-04-08T00:00:00	2024-11-08T05:00:00	4	Temperatura máxima	17.2
52511	7	Sololá	710	Panajachel	8	Panajachel	8	Agosto	2023-04-08T00:00:00	2024-11-08T05:00:00	3	Temperatura mínima	16.9
52512	7	Sololá	710	Panajachel	8	Panajachel	8	Agosto	2023-04-08T00:00:00	2024-11-08T05:00:00	5	Humedad	86
52513	7	Sololá	710	Panajachel	8	Panajachel	8	Agosto	2023-04-08T00:00:00	2024-11-08T05:00:00	6	Velocidad del viento	3.2
52514	7	Sololá	710	Panajachel	8	Panajachel	8	Agosto	2023-04-08T00:00:00	2024-11-08T05:00:00	7	Dirección del viento	3.22
52515	7	Sololá	710	Panajachel	8	Panajachel	8	Agosto	2023-04-08T00:00:00	2024-11-08T05:00:00	1	Precipitación	0
52516	7	Sololá	710	Panajachel	8	Panajachel	8	Agosto	2023-04-08T00:00:00	2024-11-08T05:00:00	8	Radiación solar	0
52517	7	Sololá	710	Panajachel	8	Panajachel	8	Agosto	2023-04-08T00:00:00	2024-11-08T06:00:00	2	Temperatura media	16.6
52518	7	Sololá	710	Panajachel	8	Panajachel	8	Agosto	2023-04-08T00:00:00	2024-11-08T06:00:00	4	Temperatura máxima	17.1
52519	7	Sololá	710	Panajachel	8	Panajachel	8	Agosto	2023-04-08T00:00:00	2024-11-08T06:00:00	3	Temperatura mínima	16.6
52520	7	Sololá	710	Panajachel	8	Panajachel	8	Agosto	2023-04-08T00:00:00	2024-11-08T06:00:00	5	Humedad	86
52521	7	Sololá	710	Panajachel	8	Panajachel	8	Agosto	2023-04-08T00:00:00	2024-11-08T06:00:00	6	Velocidad del viento	3.2
52522	7	Sololá	710	Panajachel	8	Panajachel	8	Agosto	2023-04-08T00:00:00	2024-11-08T06:00:00	7	Dirección del viento	3.22
52523	7	Sololá	710	Panajachel	8	Panajachel	8	Agosto	2023-04-08T00:00:00	2024-11-08T06:00:00	1	Precipitación	0
52524	7	Sololá	710	Panajachel	8	Panajachel	8	Agosto	2023-04-08T00:00:00	2024-11-08T06:00:00	8	Radiación solar	0
52525	7	Sololá	710	Panajachel	8	Panajachel	8	Agosto	2023-04-08T00:00:00	2024-11-08T07:00:00	2	Temperatura media	17.6
52526	7	Sololá	710	Panajachel	8	Panajachel	8	Agosto	2023-04-08T00:00:00	2024-11-08T07:00:00	4	Temperatura máxima	17.6
52527	7	Sololá	710	Panajachel	8	Panajachel	8	Agosto	2023-04-08T00:00:00	2024-11-08T07:00:00	3	Temperatura mínima	16.6
52528	7	Sololá	710	Panajachel	8	Panajachel	8	Agosto	2023-04-08T00:00:00	2024-11-08T07:00:00	5	Humedad	85
52529	7	Sololá	710	Panajachel	8	Panajachel	8	Agosto	2023-04-08T00:00:00	2024-11-08T07:00:00	6	Velocidad del viento	3.2
52530	7	Sololá	710	Panajachel	8	Panajachel	8	Agosto	2023-04-08T00:00:00	2024-11-08T07:00:00	7	Dirección del viento	3.22
52531	7	Sololá	710	Panajachel	8	Panajachel	8	Agosto	2023-04-08T00:00:00	2024-11-08T07:00:00	1	Precipitación	0
52532	7	Sololá	710	Panajachel	8	Panajachel	8	Agosto	2023-04-08T00:00:00	2024-11-08T07:00:00	8	Radiación solar	68
52533	7	Sololá	710	Panajachel	8	Panajachel	8	Agosto	2023-04-08T00:00:00	2024-11-08T08:00:00	2	Temperatura media	19.3
52534	7	Sololá	710	Panajachel	8	Panajachel	8	Agosto	2023-04-08T00:00:00	2024-11-08T08:00:00	4	Temperatura máxima	19.3
52535	7	Sololá	710	Panajachel	8	Panajachel	8	Agosto	2023-04-08T00:00:00	2024-11-08T08:00:00	3	Temperatura mínima	17.6
52536	7	Sololá	710	Panajachel	8	Panajachel	8	Agosto	2023-04-08T00:00:00	2024-11-08T08:00:00	5	Humedad	83
52537	7	Sololá	710	Panajachel	8	Panajachel	8	Agosto	2023-04-08T00:00:00	2024-11-08T08:00:00	6	Velocidad del viento	3.2
52538	7	Sololá	710	Panajachel	8	Panajachel	8	Agosto	2023-04-08T00:00:00	2024-11-08T08:00:00	7	Dirección del viento	3.22
52539	7	Sololá	710	Panajachel	8	Panajachel	8	Agosto	2023-04-08T00:00:00	2024-11-08T08:00:00	1	Precipitación	0
52540	7	Sololá	710	Panajachel	8	Panajachel	8	Agosto	2023-04-08T00:00:00	2024-11-08T08:00:00	8	Radiación solar	169
52541	7	Sololá	710	Panajachel	8	Panajachel	8	Agosto	2023-04-08T00:00:00	2024-11-08T09:00:00	2	Temperatura media	21.1
52542	7	Sololá	710	Panajachel	8	Panajachel	8	Agosto	2023-04-08T00:00:00	2024-11-08T09:00:00	4	Temperatura máxima	21.1
52543	7	Sololá	710	Panajachel	8	Panajachel	8	Agosto	2023-04-08T00:00:00	2024-11-08T09:00:00	3	Temperatura mínima	19.3
52544	7	Sololá	710	Panajachel	8	Panajachel	8	Agosto	2023-04-08T00:00:00	2024-11-08T09:00:00	5	Humedad	79
52545	7	Sololá	710	Panajachel	8	Panajachel	8	Agosto	2023-04-08T00:00:00	2024-11-08T09:00:00	6	Velocidad del viento	1.6
52546	7	Sololá	710	Panajachel	8	Panajachel	8	Agosto	2023-04-08T00:00:00	2024-11-08T09:00:00	7	Dirección del viento	1.61
52547	7	Sololá	710	Panajachel	8	Panajachel	8	Agosto	2023-04-08T00:00:00	2024-11-08T09:00:00	1	Precipitación	0
52548	7	Sololá	710	Panajachel	8	Panajachel	8	Agosto	2023-04-08T00:00:00	2024-11-08T09:00:00	8	Radiación solar	373
52549	7	Sololá	710	Panajachel	8	Panajachel	8	Agosto	2023-04-08T00:00:00	2024-11-08T10:00:00	2	Temperatura media	22.3
52550	7	Sololá	710	Panajachel	8	Panajachel	8	Agosto	2023-04-08T00:00:00	2024-11-08T10:00:00	4	Temperatura máxima	22.4
52551	7	Sololá	710	Panajachel	8	Panajachel	8	Agosto	2023-04-08T00:00:00	2024-11-08T10:00:00	3	Temperatura mínima	21.1
52552	7	Sololá	710	Panajachel	8	Panajachel	8	Agosto	2023-04-08T00:00:00	2024-11-08T10:00:00	5	Humedad	73
52553	7	Sololá	710	Panajachel	8	Panajachel	8	Agosto	2023-04-08T00:00:00	2024-11-08T10:00:00	6	Velocidad del viento	3.2
52554	7	Sololá	710	Panajachel	8	Panajachel	8	Agosto	2023-04-08T00:00:00	2024-11-08T10:00:00	7	Dirección del viento	3.22
52555	7	Sololá	710	Panajachel	8	Panajachel	8	Agosto	2023-04-08T00:00:00	2024-11-08T10:00:00	1	Precipitación	0
52556	7	Sololá	710	Panajachel	8	Panajachel	8	Agosto	2023-04-08T00:00:00	2024-11-08T10:00:00	8	Radiación solar	820
52557	7	Sololá	710	Panajachel	8	Panajachel	8	Agosto	2023-04-08T00:00:00	2024-11-08T11:00:00	2	Temperatura media	23.4
52558	7	Sololá	710	Panajachel	8	Panajachel	8	Agosto	2023-04-08T00:00:00	2024-11-08T11:00:00	4	Temperatura máxima	23.8
52559	7	Sololá	710	Panajachel	8	Panajachel	8	Agosto	2023-04-08T00:00:00	2024-11-08T11:00:00	3	Temperatura mínima	22.2
52560	7	Sololá	710	Panajachel	8	Panajachel	8	Agosto	2023-04-08T00:00:00	2024-11-08T11:00:00	5	Humedad	74
52561	7	Sololá	710	Panajachel	8	Panajachel	8	Agosto	2023-04-08T00:00:00	2024-11-08T11:00:00	6	Velocidad del viento	3.2
52562	7	Sololá	710	Panajachel	8	Panajachel	8	Agosto	2023-04-08T00:00:00	2024-11-08T11:00:00	7	Dirección del viento	3.22
52563	7	Sololá	710	Panajachel	8	Panajachel	8	Agosto	2023-04-08T00:00:00	2024-11-08T11:00:00	1	Precipitación	0
52564	7	Sololá	710	Panajachel	8	Panajachel	8	Agosto	2023-04-08T00:00:00	2024-11-08T11:00:00	8	Radiación solar	957
52565	7	Sololá	710	Panajachel	8	Panajachel	8	Agosto	2023-04-08T00:00:00	2024-11-08T12:00:00	2	Temperatura media	23.8
52566	7	Sololá	710	Panajachel	8	Panajachel	8	Agosto	2023-04-08T00:00:00	2024-11-08T12:00:00	4	Temperatura máxima	23.8
52567	7	Sololá	710	Panajachel	8	Panajachel	8	Agosto	2023-04-08T00:00:00	2024-11-08T12:00:00	3	Temperatura mínima	23
52568	7	Sololá	710	Panajachel	8	Panajachel	8	Agosto	2023-04-08T00:00:00	2024-11-08T12:00:00	5	Humedad	70
52569	7	Sololá	710	Panajachel	8	Panajachel	8	Agosto	2023-04-08T00:00:00	2024-11-08T12:00:00	6	Velocidad del viento	4.8
52570	7	Sololá	710	Panajachel	8	Panajachel	8	Agosto	2023-04-08T00:00:00	2024-11-08T12:00:00	7	Dirección del viento	4.83
52571	7	Sololá	710	Panajachel	8	Panajachel	8	Agosto	2023-04-08T00:00:00	2024-11-08T12:00:00	1	Precipitación	0
52572	7	Sololá	710	Panajachel	8	Panajachel	8	Agosto	2023-04-08T00:00:00	2024-11-08T12:00:00	8	Radiación solar	621
52573	7	Sololá	710	Panajachel	8	Panajachel	8	Agosto	2023-04-08T00:00:00	2024-11-08T13:00:00	2	Temperatura media	25.2
52574	7	Sololá	710	Panajachel	8	Panajachel	8	Agosto	2023-04-08T00:00:00	2024-11-08T13:00:00	4	Temperatura máxima	25.2
52575	7	Sololá	710	Panajachel	8	Panajachel	8	Agosto	2023-04-08T00:00:00	2024-11-08T13:00:00	3	Temperatura mínima	23.8
52576	7	Sololá	710	Panajachel	8	Panajachel	8	Agosto	2023-04-08T00:00:00	2024-11-08T13:00:00	5	Humedad	69
52577	7	Sololá	710	Panajachel	8	Panajachel	8	Agosto	2023-04-08T00:00:00	2024-11-08T13:00:00	6	Velocidad del viento	3.2
52578	7	Sololá	710	Panajachel	8	Panajachel	8	Agosto	2023-04-08T00:00:00	2024-11-08T13:00:00	7	Dirección del viento	3.22
52579	7	Sololá	710	Panajachel	8	Panajachel	8	Agosto	2023-04-08T00:00:00	2024-11-08T13:00:00	1	Precipitación	0
52580	7	Sololá	710	Panajachel	8	Panajachel	8	Agosto	2023-04-08T00:00:00	2024-11-08T13:00:00	8	Radiación solar	899
52581	7	Sololá	710	Panajachel	8	Panajachel	8	Agosto	2023-04-08T00:00:00	2024-11-08T14:00:00	2	Temperatura media	24.8
52582	7	Sololá	710	Panajachel	8	Panajachel	8	Agosto	2023-04-08T00:00:00	2024-11-08T14:00:00	4	Temperatura máxima	25.8
52583	7	Sololá	710	Panajachel	8	Panajachel	8	Agosto	2023-04-08T00:00:00	2024-11-08T14:00:00	3	Temperatura mínima	24.2
52584	7	Sololá	710	Panajachel	8	Panajachel	8	Agosto	2023-04-08T00:00:00	2024-11-08T14:00:00	5	Humedad	78
52585	7	Sololá	710	Panajachel	8	Panajachel	8	Agosto	2023-04-08T00:00:00	2024-11-08T14:00:00	6	Velocidad del viento	4.8
52586	7	Sololá	710	Panajachel	8	Panajachel	8	Agosto	2023-04-08T00:00:00	2024-11-08T14:00:00	7	Dirección del viento	4.83
52587	7	Sololá	710	Panajachel	8	Panajachel	8	Agosto	2023-04-08T00:00:00	2024-11-08T14:00:00	1	Precipitación	0
52588	7	Sololá	710	Panajachel	8	Panajachel	8	Agosto	2023-04-08T00:00:00	2024-11-08T14:00:00	8	Radiación solar	492
52589	7	Sololá	710	Panajachel	8	Panajachel	8	Agosto	2023-04-08T00:00:00	2024-11-08T15:00:00	2	Temperatura media	25.9
52590	7	Sololá	710	Panajachel	8	Panajachel	8	Agosto	2023-04-08T00:00:00	2024-11-08T15:00:00	4	Temperatura máxima	26.5
52591	7	Sololá	710	Panajachel	8	Panajachel	8	Agosto	2023-04-08T00:00:00	2024-11-08T15:00:00	3	Temperatura mínima	24.6
52592	7	Sololá	710	Panajachel	8	Panajachel	8	Agosto	2023-04-08T00:00:00	2024-11-08T15:00:00	5	Humedad	73
52593	7	Sololá	710	Panajachel	8	Panajachel	8	Agosto	2023-04-08T00:00:00	2024-11-08T15:00:00	6	Velocidad del viento	6.4
52594	7	Sololá	710	Panajachel	8	Panajachel	8	Agosto	2023-04-08T00:00:00	2024-11-08T15:00:00	7	Dirección del viento	6.44
52595	7	Sololá	710	Panajachel	8	Panajachel	8	Agosto	2023-04-08T00:00:00	2024-11-08T15:00:00	1	Precipitación	0
52596	7	Sololá	710	Panajachel	8	Panajachel	8	Agosto	2023-04-08T00:00:00	2024-11-08T15:00:00	8	Radiación solar	780
52597	7	Sololá	710	Panajachel	8	Panajachel	8	Agosto	2023-04-08T00:00:00	2024-11-08T16:00:00	2	Temperatura media	24.9
52598	7	Sololá	710	Panajachel	8	Panajachel	8	Agosto	2023-04-08T00:00:00	2024-11-08T16:00:00	4	Temperatura máxima	26.4
52599	7	Sololá	710	Panajachel	8	Panajachel	8	Agosto	2023-04-08T00:00:00	2024-11-08T16:00:00	3	Temperatura mínima	24.9
52600	7	Sololá	710	Panajachel	8	Panajachel	8	Agosto	2023-04-08T00:00:00	2024-11-08T16:00:00	5	Humedad	80
52601	7	Sololá	710	Panajachel	8	Panajachel	8	Agosto	2023-04-08T00:00:00	2024-11-08T16:00:00	6	Velocidad del viento	4.8
52602	7	Sololá	710	Panajachel	8	Panajachel	8	Agosto	2023-04-08T00:00:00	2024-11-08T16:00:00	7	Dirección del viento	4.83
52603	7	Sololá	710	Panajachel	8	Panajachel	8	Agosto	2023-04-08T00:00:00	2024-11-08T16:00:00	1	Precipitación	0
52604	7	Sololá	710	Panajachel	8	Panajachel	8	Agosto	2023-04-08T00:00:00	2024-11-08T16:00:00	8	Radiación solar	392
52605	7	Sololá	710	Panajachel	8	Panajachel	8	Agosto	2023-04-08T00:00:00	2024-11-08T17:00:00	2	Temperatura media	23.8
52606	7	Sololá	710	Panajachel	8	Panajachel	8	Agosto	2023-04-08T00:00:00	2024-11-08T17:00:00	4	Temperatura máxima	24.9
52607	7	Sololá	710	Panajachel	8	Panajachel	8	Agosto	2023-04-08T00:00:00	2024-11-08T17:00:00	3	Temperatura mínima	23.7
52608	7	Sololá	710	Panajachel	8	Panajachel	8	Agosto	2023-04-08T00:00:00	2024-11-08T17:00:00	5	Humedad	82
52609	7	Sololá	710	Panajachel	8	Panajachel	8	Agosto	2023-04-08T00:00:00	2024-11-08T17:00:00	6	Velocidad del viento	4.8
52610	7	Sololá	710	Panajachel	8	Panajachel	8	Agosto	2023-04-08T00:00:00	2024-11-08T17:00:00	7	Dirección del viento	4.83
52611	7	Sololá	710	Panajachel	8	Panajachel	8	Agosto	2023-04-08T00:00:00	2024-11-08T17:00:00	1	Precipitación	0
52612	7	Sololá	710	Panajachel	8	Panajachel	8	Agosto	2023-04-08T00:00:00	2024-11-08T17:00:00	8	Radiación solar	167
52613	7	Sololá	710	Panajachel	8	Panajachel	8	Agosto	2023-04-08T00:00:00	2024-11-08T18:00:00	2	Temperatura media	21.1
52614	7	Sololá	710	Panajachel	8	Panajachel	8	Agosto	2023-04-08T00:00:00	2024-11-08T18:00:00	4	Temperatura máxima	23.7
52615	7	Sololá	710	Panajachel	8	Panajachel	8	Agosto	2023-04-08T00:00:00	2024-11-08T18:00:00	3	Temperatura mínima	21.1
52616	7	Sololá	710	Panajachel	8	Panajachel	8	Agosto	2023-04-08T00:00:00	2024-11-08T18:00:00	5	Humedad	81
52617	7	Sololá	710	Panajachel	8	Panajachel	8	Agosto	2023-04-08T00:00:00	2024-11-08T18:00:00	6	Velocidad del viento	3.2
52618	7	Sololá	710	Panajachel	8	Panajachel	8	Agosto	2023-04-08T00:00:00	2024-11-08T18:00:00	7	Dirección del viento	3.22
52619	7	Sololá	710	Panajachel	8	Panajachel	8	Agosto	2023-04-08T00:00:00	2024-11-08T18:00:00	1	Precipitación	0
52620	7	Sololá	710	Panajachel	8	Panajachel	8	Agosto	2023-04-08T00:00:00	2024-11-08T18:00:00	8	Radiación solar	123
52621	7	Sololá	710	Panajachel	8	Panajachel	8	Agosto	2023-04-08T00:00:00	2024-11-08T19:00:00	2	Temperatura media	20.8
52622	7	Sololá	710	Panajachel	8	Panajachel	8	Agosto	2023-04-08T00:00:00	2024-11-08T19:00:00	4	Temperatura máxima	21.1
52623	7	Sololá	710	Panajachel	8	Panajachel	8	Agosto	2023-04-08T00:00:00	2024-11-08T19:00:00	3	Temperatura mínima	20.8
52624	7	Sololá	710	Panajachel	8	Panajachel	8	Agosto	2023-04-08T00:00:00	2024-11-08T19:00:00	5	Humedad	81
52625	7	Sololá	710	Panajachel	8	Panajachel	8	Agosto	2023-04-08T00:00:00	2024-11-08T19:00:00	6	Velocidad del viento	3.2
52626	7	Sololá	710	Panajachel	8	Panajachel	8	Agosto	2023-04-08T00:00:00	2024-11-08T19:00:00	7	Dirección del viento	3.22
52627	7	Sololá	710	Panajachel	8	Panajachel	8	Agosto	2023-04-08T00:00:00	2024-11-08T19:00:00	1	Precipitación	0
52628	7	Sololá	710	Panajachel	8	Panajachel	8	Agosto	2023-04-08T00:00:00	2024-11-08T19:00:00	8	Radiación solar	0
52629	7	Sololá	710	Panajachel	8	Panajachel	8	Agosto	2023-04-08T00:00:00	2024-11-08T20:00:00	2	Temperatura media	20.1
52630	7	Sololá	710	Panajachel	8	Panajachel	8	Agosto	2023-04-08T00:00:00	2024-11-08T20:00:00	4	Temperatura máxima	20.8
52631	7	Sololá	710	Panajachel	8	Panajachel	8	Agosto	2023-04-08T00:00:00	2024-11-08T20:00:00	3	Temperatura mínima	20.1
52632	7	Sololá	710	Panajachel	8	Panajachel	8	Agosto	2023-04-08T00:00:00	2024-11-08T20:00:00	5	Humedad	83
52633	7	Sololá	710	Panajachel	8	Panajachel	8	Agosto	2023-04-08T00:00:00	2024-11-08T20:00:00	6	Velocidad del viento	1.6
52634	7	Sololá	710	Panajachel	8	Panajachel	8	Agosto	2023-04-08T00:00:00	2024-11-08T20:00:00	7	Dirección del viento	1.61
52635	7	Sololá	710	Panajachel	8	Panajachel	8	Agosto	2023-04-08T00:00:00	2024-11-08T20:00:00	1	Precipitación	0
52636	7	Sololá	710	Panajachel	8	Panajachel	8	Agosto	2023-04-08T00:00:00	2024-11-08T20:00:00	8	Radiación solar	0
52637	7	Sololá	710	Panajachel	8	Panajachel	8	Agosto	2023-04-08T00:00:00	2024-11-08T21:00:00	2	Temperatura media	19.5
52638	7	Sololá	710	Panajachel	8	Panajachel	8	Agosto	2023-04-08T00:00:00	2024-11-08T21:00:00	4	Temperatura máxima	20.1
52639	7	Sololá	710	Panajachel	8	Panajachel	8	Agosto	2023-04-08T00:00:00	2024-11-08T21:00:00	3	Temperatura mínima	19.5
52640	7	Sololá	710	Panajachel	8	Panajachel	8	Agosto	2023-04-08T00:00:00	2024-11-08T21:00:00	5	Humedad	85
52641	7	Sololá	710	Panajachel	8	Panajachel	8	Agosto	2023-04-08T00:00:00	2024-11-08T21:00:00	6	Velocidad del viento	1.6
52642	7	Sololá	710	Panajachel	8	Panajachel	8	Agosto	2023-04-08T00:00:00	2024-11-08T21:00:00	7	Dirección del viento	1.61
52643	7	Sololá	710	Panajachel	8	Panajachel	8	Agosto	2023-04-08T00:00:00	2024-11-08T21:00:00	1	Precipitación	0
52644	7	Sololá	710	Panajachel	8	Panajachel	8	Agosto	2023-04-08T00:00:00	2024-11-08T21:00:00	8	Radiación solar	0
52645	7	Sololá	710	Panajachel	8	Panajachel	8	Agosto	2023-04-08T00:00:00	2024-11-08T22:00:00	2	Temperatura media	18.8
52646	7	Sololá	710	Panajachel	8	Panajachel	8	Agosto	2023-04-08T00:00:00	2024-11-08T22:00:00	4	Temperatura máxima	19.5
52647	7	Sololá	710	Panajachel	8	Panajachel	8	Agosto	2023-04-08T00:00:00	2024-11-08T22:00:00	3	Temperatura mínima	18.8
52648	7	Sololá	710	Panajachel	8	Panajachel	8	Agosto	2023-04-08T00:00:00	2024-11-08T22:00:00	5	Humedad	85
52649	7	Sololá	710	Panajachel	8	Panajachel	8	Agosto	2023-04-08T00:00:00	2024-11-08T22:00:00	6	Velocidad del viento	1.6
52650	7	Sololá	710	Panajachel	8	Panajachel	8	Agosto	2023-04-08T00:00:00	2024-11-08T22:00:00	7	Dirección del viento	1.61
52651	7	Sololá	710	Panajachel	8	Panajachel	8	Agosto	2023-04-08T00:00:00	2024-11-08T22:00:00	1	Precipitación	0
52652	7	Sololá	710	Panajachel	8	Panajachel	8	Agosto	2023-04-08T00:00:00	2024-11-08T22:00:00	8	Radiación solar	0
52653	7	Sololá	710	Panajachel	8	Panajachel	8	Agosto	2023-04-08T00:00:00	2024-11-08T23:00:00	2	Temperatura media	18.1
52654	7	Sololá	710	Panajachel	8	Panajachel	8	Agosto	2023-04-08T00:00:00	2024-11-08T23:00:00	4	Temperatura máxima	18.8
52655	7	Sololá	710	Panajachel	8	Panajachel	8	Agosto	2023-04-08T00:00:00	2024-11-08T23:00:00	3	Temperatura mínima	18.1
52656	7	Sololá	710	Panajachel	8	Panajachel	8	Agosto	2023-04-08T00:00:00	2024-11-08T23:00:00	5	Humedad	86
52657	7	Sololá	710	Panajachel	8	Panajachel	8	Agosto	2023-04-08T00:00:00	2024-11-08T23:00:00	6	Velocidad del viento	3.2
52658	7	Sololá	710	Panajachel	8	Panajachel	8	Agosto	2023-04-08T00:00:00	2024-11-08T23:00:00	7	Dirección del viento	3.22
52659	7	Sololá	710	Panajachel	8	Panajachel	8	Agosto	2023-04-08T00:00:00	2024-11-08T23:00:00	1	Precipitación	0
52660	7	Sololá	710	Panajachel	8	Panajachel	8	Agosto	2023-04-08T00:00:00	2024-11-08T23:00:00	8	Radiación solar	0
52661	7	Sololá	710	Panajachel	8	Panajachel	8	Agosto	2023-05-08T00:00:00	2024-11-08T00:00:00	2	Temperatura media	17.7
52662	7	Sololá	710	Panajachel	8	Panajachel	8	Agosto	2023-05-08T00:00:00	2024-11-08T00:00:00	4	Temperatura máxima	18.3
52663	7	Sololá	710	Panajachel	8	Panajachel	8	Agosto	2023-05-08T00:00:00	2024-11-08T00:00:00	3	Temperatura mínima	17.6
52664	7	Sololá	710	Panajachel	8	Panajachel	8	Agosto	2023-05-08T00:00:00	2024-11-08T00:00:00	5	Humedad	88
52665	7	Sololá	710	Panajachel	8	Panajachel	8	Agosto	2023-05-08T00:00:00	2024-11-08T00:00:00	6	Velocidad del viento	3.2
52666	7	Sololá	710	Panajachel	8	Panajachel	8	Agosto	2023-05-08T00:00:00	2024-11-08T00:00:00	7	Dirección del viento	3.22
52667	7	Sololá	710	Panajachel	8	Panajachel	8	Agosto	2023-05-08T00:00:00	2024-11-08T00:00:00	1	Precipitación	0
52668	7	Sololá	710	Panajachel	8	Panajachel	8	Agosto	2023-05-08T00:00:00	2024-11-08T00:00:00	8	Radiación solar	0
52669	7	Sololá	710	Panajachel	8	Panajachel	8	Agosto	2023-05-08T00:00:00	2024-11-08T01:00:00	2	Temperatura media	17.4
52670	7	Sololá	710	Panajachel	8	Panajachel	8	Agosto	2023-05-08T00:00:00	2024-11-08T01:00:00	4	Temperatura máxima	17.7
52671	7	Sololá	710	Panajachel	8	Panajachel	8	Agosto	2023-05-08T00:00:00	2024-11-08T01:00:00	3	Temperatura mínima	17.2
52672	7	Sololá	710	Panajachel	8	Panajachel	8	Agosto	2023-05-08T00:00:00	2024-11-08T01:00:00	5	Humedad	89
52673	7	Sololá	710	Panajachel	8	Panajachel	8	Agosto	2023-05-08T00:00:00	2024-11-08T01:00:00	6	Velocidad del viento	3.2
52674	7	Sololá	710	Panajachel	8	Panajachel	8	Agosto	2023-05-08T00:00:00	2024-11-08T01:00:00	7	Dirección del viento	3.22
52675	7	Sololá	710	Panajachel	8	Panajachel	8	Agosto	2023-05-08T00:00:00	2024-11-08T01:00:00	1	Precipitación	0
52676	7	Sololá	710	Panajachel	8	Panajachel	8	Agosto	2023-05-08T00:00:00	2024-11-08T01:00:00	8	Radiación solar	0
52677	7	Sololá	710	Panajachel	8	Panajachel	8	Agosto	2023-05-08T00:00:00	2024-11-08T02:00:00	2	Temperatura media	17.3
52678	7	Sololá	710	Panajachel	8	Panajachel	8	Agosto	2023-05-08T00:00:00	2024-11-08T02:00:00	4	Temperatura máxima	17.7
52679	7	Sololá	710	Panajachel	8	Panajachel	8	Agosto	2023-05-08T00:00:00	2024-11-08T02:00:00	3	Temperatura mínima	17.3
52680	7	Sololá	710	Panajachel	8	Panajachel	8	Agosto	2023-05-08T00:00:00	2024-11-08T02:00:00	5	Humedad	88
52681	7	Sololá	710	Panajachel	8	Panajachel	8	Agosto	2023-05-08T00:00:00	2024-11-08T02:00:00	6	Velocidad del viento	1.6
52682	7	Sololá	710	Panajachel	8	Panajachel	8	Agosto	2023-05-08T00:00:00	2024-11-08T02:00:00	7	Dirección del viento	1.61
52683	7	Sololá	710	Panajachel	8	Panajachel	8	Agosto	2023-05-08T00:00:00	2024-11-08T02:00:00	1	Precipitación	0
52684	7	Sololá	710	Panajachel	8	Panajachel	8	Agosto	2023-05-08T00:00:00	2024-11-08T02:00:00	8	Radiación solar	0
52685	7	Sololá	710	Panajachel	8	Panajachel	8	Agosto	2023-05-08T00:00:00	2024-11-08T03:00:00	2	Temperatura media	17.5
52686	7	Sololá	710	Panajachel	8	Panajachel	8	Agosto	2023-05-08T00:00:00	2024-11-08T03:00:00	4	Temperatura máxima	17.7
52687	7	Sololá	710	Panajachel	8	Panajachel	8	Agosto	2023-05-08T00:00:00	2024-11-08T03:00:00	3	Temperatura mínima	17.2
52688	7	Sololá	710	Panajachel	8	Panajachel	8	Agosto	2023-05-08T00:00:00	2024-11-08T03:00:00	5	Humedad	88
52689	7	Sololá	710	Panajachel	8	Panajachel	8	Agosto	2023-05-08T00:00:00	2024-11-08T03:00:00	6	Velocidad del viento	0
52690	7	Sololá	710	Panajachel	8	Panajachel	8	Agosto	2023-05-08T00:00:00	2024-11-08T03:00:00	7	Dirección del viento	0
52691	7	Sololá	710	Panajachel	8	Panajachel	8	Agosto	2023-05-08T00:00:00	2024-11-08T03:00:00	1	Precipitación	0
52692	7	Sololá	710	Panajachel	8	Panajachel	8	Agosto	2023-05-08T00:00:00	2024-11-08T03:00:00	8	Radiación solar	0
52693	7	Sololá	710	Panajachel	8	Panajachel	8	Agosto	2023-05-08T00:00:00	2024-11-08T04:00:00	2	Temperatura media	17.9
52694	7	Sololá	710	Panajachel	8	Panajachel	8	Agosto	2023-05-08T00:00:00	2024-11-08T04:00:00	4	Temperatura máxima	17.9
52695	7	Sololá	710	Panajachel	8	Panajachel	8	Agosto	2023-05-08T00:00:00	2024-11-08T04:00:00	3	Temperatura mínima	17.1
52696	7	Sololá	710	Panajachel	8	Panajachel	8	Agosto	2023-05-08T00:00:00	2024-11-08T04:00:00	5	Humedad	86
52697	7	Sololá	710	Panajachel	8	Panajachel	8	Agosto	2023-05-08T00:00:00	2024-11-08T04:00:00	6	Velocidad del viento	0
52698	7	Sololá	710	Panajachel	8	Panajachel	8	Agosto	2023-05-08T00:00:00	2024-11-08T04:00:00	7	Dirección del viento	0
52699	7	Sololá	710	Panajachel	8	Panajachel	8	Agosto	2023-05-08T00:00:00	2024-11-08T04:00:00	1	Precipitación	0
52700	7	Sololá	710	Panajachel	8	Panajachel	8	Agosto	2023-05-08T00:00:00	2024-11-08T04:00:00	8	Radiación solar	0
52701	7	Sololá	710	Panajachel	8	Panajachel	8	Agosto	2023-05-08T00:00:00	2024-11-08T05:00:00	2	Temperatura media	17.2
52702	7	Sololá	710	Panajachel	8	Panajachel	8	Agosto	2023-05-08T00:00:00	2024-11-08T05:00:00	4	Temperatura máxima	17.9
52703	7	Sololá	710	Panajachel	8	Panajachel	8	Agosto	2023-05-08T00:00:00	2024-11-08T05:00:00	3	Temperatura mínima	17.2
52704	7	Sololá	710	Panajachel	8	Panajachel	8	Agosto	2023-05-08T00:00:00	2024-11-08T05:00:00	5	Humedad	88
52705	7	Sololá	710	Panajachel	8	Panajachel	8	Agosto	2023-05-08T00:00:00	2024-11-08T05:00:00	6	Velocidad del viento	1.6
52706	7	Sololá	710	Panajachel	8	Panajachel	8	Agosto	2023-05-08T00:00:00	2024-11-08T05:00:00	7	Dirección del viento	1.61
52707	7	Sololá	710	Panajachel	8	Panajachel	8	Agosto	2023-05-08T00:00:00	2024-11-08T05:00:00	1	Precipitación	0
52708	7	Sololá	710	Panajachel	8	Panajachel	8	Agosto	2023-05-08T00:00:00	2024-11-08T05:00:00	8	Radiación solar	0
52709	7	Sololá	710	Panajachel	8	Panajachel	8	Agosto	2023-05-08T00:00:00	2024-11-08T06:00:00	2	Temperatura media	17
52710	7	Sololá	710	Panajachel	8	Panajachel	8	Agosto	2023-05-08T00:00:00	2024-11-08T06:00:00	4	Temperatura máxima	17.4
52711	7	Sololá	710	Panajachel	8	Panajachel	8	Agosto	2023-05-08T00:00:00	2024-11-08T06:00:00	3	Temperatura mínima	17
52712	7	Sololá	710	Panajachel	8	Panajachel	8	Agosto	2023-05-08T00:00:00	2024-11-08T06:00:00	5	Humedad	90
52713	7	Sololá	710	Panajachel	8	Panajachel	8	Agosto	2023-05-08T00:00:00	2024-11-08T06:00:00	6	Velocidad del viento	1.6
52714	7	Sololá	710	Panajachel	8	Panajachel	8	Agosto	2023-05-08T00:00:00	2024-11-08T06:00:00	7	Dirección del viento	1.61
52715	7	Sololá	710	Panajachel	8	Panajachel	8	Agosto	2023-05-08T00:00:00	2024-11-08T06:00:00	1	Precipitación	0
52716	7	Sololá	710	Panajachel	8	Panajachel	8	Agosto	2023-05-08T00:00:00	2024-11-08T06:00:00	8	Radiación solar	1
52717	7	Sololá	710	Panajachel	8	Panajachel	8	Agosto	2023-05-08T00:00:00	2024-11-08T07:00:00	2	Temperatura media	20.1
52718	7	Sololá	710	Panajachel	8	Panajachel	8	Agosto	2023-05-08T00:00:00	2024-11-08T07:00:00	4	Temperatura máxima	20.2
52719	7	Sololá	710	Panajachel	8	Panajachel	8	Agosto	2023-05-08T00:00:00	2024-11-08T07:00:00	3	Temperatura mínima	17
52720	7	Sololá	710	Panajachel	8	Panajachel	8	Agosto	2023-05-08T00:00:00	2024-11-08T07:00:00	5	Humedad	80
52721	7	Sololá	710	Panajachel	8	Panajachel	8	Agosto	2023-05-08T00:00:00	2024-11-08T07:00:00	6	Velocidad del viento	3.2
52722	7	Sololá	710	Panajachel	8	Panajachel	8	Agosto	2023-05-08T00:00:00	2024-11-08T07:00:00	7	Dirección del viento	3.22
52723	7	Sololá	710	Panajachel	8	Panajachel	8	Agosto	2023-05-08T00:00:00	2024-11-08T07:00:00	1	Precipitación	0
52724	7	Sololá	710	Panajachel	8	Panajachel	8	Agosto	2023-05-08T00:00:00	2024-11-08T07:00:00	8	Radiación solar	55
52725	7	Sololá	710	Panajachel	8	Panajachel	8	Agosto	2023-05-08T00:00:00	2024-11-08T08:00:00	2	Temperatura media	23.2
52726	7	Sololá	710	Panajachel	8	Panajachel	8	Agosto	2023-05-08T00:00:00	2024-11-08T08:00:00	4	Temperatura máxima	23.2
52727	7	Sololá	710	Panajachel	8	Panajachel	8	Agosto	2023-05-08T00:00:00	2024-11-08T08:00:00	3	Temperatura mínima	20.1
52728	7	Sololá	710	Panajachel	8	Panajachel	8	Agosto	2023-05-08T00:00:00	2024-11-08T08:00:00	5	Humedad	73
52729	7	Sololá	710	Panajachel	8	Panajachel	8	Agosto	2023-05-08T00:00:00	2024-11-08T08:00:00	6	Velocidad del viento	1.6
52730	7	Sololá	710	Panajachel	8	Panajachel	8	Agosto	2023-05-08T00:00:00	2024-11-08T08:00:00	7	Dirección del viento	1.61
52731	7	Sololá	710	Panajachel	8	Panajachel	8	Agosto	2023-05-08T00:00:00	2024-11-08T08:00:00	1	Precipitación	0
52732	7	Sololá	710	Panajachel	8	Panajachel	8	Agosto	2023-05-08T00:00:00	2024-11-08T08:00:00	8	Radiación solar	312
52733	7	Sololá	710	Panajachel	8	Panajachel	8	Agosto	2023-05-08T00:00:00	2024-11-08T09:00:00	2	Temperatura media	23.4
52734	7	Sololá	710	Panajachel	8	Panajachel	8	Agosto	2023-05-08T00:00:00	2024-11-08T09:00:00	4	Temperatura máxima	23.7
52735	7	Sololá	710	Panajachel	8	Panajachel	8	Agosto	2023-05-08T00:00:00	2024-11-08T09:00:00	3	Temperatura mínima	23.1
52736	7	Sololá	710	Panajachel	8	Panajachel	8	Agosto	2023-05-08T00:00:00	2024-11-08T09:00:00	5	Humedad	75
52737	7	Sololá	710	Panajachel	8	Panajachel	8	Agosto	2023-05-08T00:00:00	2024-11-08T09:00:00	6	Velocidad del viento	3.2
52738	7	Sololá	710	Panajachel	8	Panajachel	8	Agosto	2023-05-08T00:00:00	2024-11-08T09:00:00	7	Dirección del viento	3.22
52739	7	Sololá	710	Panajachel	8	Panajachel	8	Agosto	2023-05-08T00:00:00	2024-11-08T09:00:00	1	Precipitación	0
52740	7	Sololá	710	Panajachel	8	Panajachel	8	Agosto	2023-05-08T00:00:00	2024-11-08T09:00:00	8	Radiación solar	510
52741	7	Sololá	710	Panajachel	8	Panajachel	8	Agosto	2023-05-08T00:00:00	2024-11-08T10:00:00	2	Temperatura media	23.5
52742	7	Sololá	710	Panajachel	8	Panajachel	8	Agosto	2023-05-08T00:00:00	2024-11-08T10:00:00	4	Temperatura máxima	23.5
52743	7	Sololá	710	Panajachel	8	Panajachel	8	Agosto	2023-05-08T00:00:00	2024-11-08T10:00:00	3	Temperatura mínima	22.8
52744	7	Sololá	710	Panajachel	8	Panajachel	8	Agosto	2023-05-08T00:00:00	2024-11-08T10:00:00	5	Humedad	76
52745	7	Sololá	710	Panajachel	8	Panajachel	8	Agosto	2023-05-08T00:00:00	2024-11-08T10:00:00	6	Velocidad del viento	6.4
52746	7	Sololá	710	Panajachel	8	Panajachel	8	Agosto	2023-05-08T00:00:00	2024-11-08T10:00:00	7	Dirección del viento	6.44
52747	7	Sololá	710	Panajachel	8	Panajachel	8	Agosto	2023-05-08T00:00:00	2024-11-08T10:00:00	1	Precipitación	0
52748	7	Sololá	710	Panajachel	8	Panajachel	8	Agosto	2023-05-08T00:00:00	2024-11-08T10:00:00	8	Radiación solar	732
52749	7	Sololá	710	Panajachel	8	Panajachel	8	Agosto	2023-05-08T00:00:00	2024-11-08T11:00:00	2	Temperatura media	24
52750	7	Sololá	710	Panajachel	8	Panajachel	8	Agosto	2023-05-08T00:00:00	2024-11-08T11:00:00	4	Temperatura máxima	24.3
52751	7	Sololá	710	Panajachel	8	Panajachel	8	Agosto	2023-05-08T00:00:00	2024-11-08T11:00:00	3	Temperatura mínima	23.5
52752	7	Sololá	710	Panajachel	8	Panajachel	8	Agosto	2023-05-08T00:00:00	2024-11-08T11:00:00	5	Humedad	72
52753	7	Sololá	710	Panajachel	8	Panajachel	8	Agosto	2023-05-08T00:00:00	2024-11-08T11:00:00	6	Velocidad del viento	4.8
52754	7	Sololá	710	Panajachel	8	Panajachel	8	Agosto	2023-05-08T00:00:00	2024-11-08T11:00:00	7	Dirección del viento	4.83
52755	7	Sololá	710	Panajachel	8	Panajachel	8	Agosto	2023-05-08T00:00:00	2024-11-08T11:00:00	1	Precipitación	0
52756	7	Sololá	710	Panajachel	8	Panajachel	8	Agosto	2023-05-08T00:00:00	2024-11-08T11:00:00	8	Radiación solar	812
52757	7	Sololá	710	Panajachel	8	Panajachel	8	Agosto	2023-05-08T00:00:00	2024-11-08T12:00:00	2	Temperatura media	25.6
52758	7	Sololá	710	Panajachel	8	Panajachel	8	Agosto	2023-05-08T00:00:00	2024-11-08T12:00:00	4	Temperatura máxima	25.6
52759	7	Sololá	710	Panajachel	8	Panajachel	8	Agosto	2023-05-08T00:00:00	2024-11-08T12:00:00	3	Temperatura mínima	24
52760	7	Sololá	710	Panajachel	8	Panajachel	8	Agosto	2023-05-08T00:00:00	2024-11-08T12:00:00	5	Humedad	64
52761	7	Sololá	710	Panajachel	8	Panajachel	8	Agosto	2023-05-08T00:00:00	2024-11-08T12:00:00	6	Velocidad del viento	4.8
52762	7	Sololá	710	Panajachel	8	Panajachel	8	Agosto	2023-05-08T00:00:00	2024-11-08T12:00:00	7	Dirección del viento	4.83
52763	7	Sololá	710	Panajachel	8	Panajachel	8	Agosto	2023-05-08T00:00:00	2024-11-08T12:00:00	1	Precipitación	0
52764	7	Sololá	710	Panajachel	8	Panajachel	8	Agosto	2023-05-08T00:00:00	2024-11-08T12:00:00	8	Radiación solar	953
52765	7	Sololá	710	Panajachel	8	Panajachel	8	Agosto	2023-05-08T00:00:00	2024-11-08T13:00:00	2	Temperatura media	28.7
52766	7	Sololá	710	Panajachel	8	Panajachel	8	Agosto	2023-05-08T00:00:00	2024-11-08T13:00:00	4	Temperatura máxima	28.7
52767	7	Sololá	710	Panajachel	8	Panajachel	8	Agosto	2023-05-08T00:00:00	2024-11-08T13:00:00	3	Temperatura mínima	25.6
52768	7	Sololá	710	Panajachel	8	Panajachel	8	Agosto	2023-05-08T00:00:00	2024-11-08T13:00:00	5	Humedad	42
52769	7	Sololá	710	Panajachel	8	Panajachel	8	Agosto	2023-05-08T00:00:00	2024-11-08T13:00:00	6	Velocidad del viento	3.2
52770	7	Sololá	710	Panajachel	8	Panajachel	8	Agosto	2023-05-08T00:00:00	2024-11-08T13:00:00	7	Dirección del viento	3.22
52771	7	Sololá	710	Panajachel	8	Panajachel	8	Agosto	2023-05-08T00:00:00	2024-11-08T13:00:00	1	Precipitación	0
52772	7	Sololá	710	Panajachel	8	Panajachel	8	Agosto	2023-05-08T00:00:00	2024-11-08T13:00:00	8	Radiación solar	971
52773	7	Sololá	710	Panajachel	8	Panajachel	8	Agosto	2023-05-08T00:00:00	2024-11-08T14:00:00	2	Temperatura media	28.8
52774	7	Sololá	710	Panajachel	8	Panajachel	8	Agosto	2023-05-08T00:00:00	2024-11-08T14:00:00	4	Temperatura máxima	29.2
52775	7	Sololá	710	Panajachel	8	Panajachel	8	Agosto	2023-05-08T00:00:00	2024-11-08T14:00:00	3	Temperatura mínima	28.7
52776	7	Sololá	710	Panajachel	8	Panajachel	8	Agosto	2023-05-08T00:00:00	2024-11-08T14:00:00	5	Humedad	43
52777	7	Sololá	710	Panajachel	8	Panajachel	8	Agosto	2023-05-08T00:00:00	2024-11-08T14:00:00	6	Velocidad del viento	4.8
52778	7	Sololá	710	Panajachel	8	Panajachel	8	Agosto	2023-05-08T00:00:00	2024-11-08T14:00:00	7	Dirección del viento	4.83
52779	7	Sololá	710	Panajachel	8	Panajachel	8	Agosto	2023-05-08T00:00:00	2024-11-08T14:00:00	1	Precipitación	0
52780	7	Sololá	710	Panajachel	8	Panajachel	8	Agosto	2023-05-08T00:00:00	2024-11-08T14:00:00	8	Radiación solar	941
52781	7	Sololá	710	Panajachel	8	Panajachel	8	Agosto	2023-05-08T00:00:00	2024-11-08T15:00:00	2	Temperatura media	28.9
52782	7	Sololá	710	Panajachel	8	Panajachel	8	Agosto	2023-05-08T00:00:00	2024-11-08T15:00:00	4	Temperatura máxima	29.6
52783	7	Sololá	710	Panajachel	8	Panajachel	8	Agosto	2023-05-08T00:00:00	2024-11-08T15:00:00	3	Temperatura mínima	28.8
52784	7	Sololá	710	Panajachel	8	Panajachel	8	Agosto	2023-05-08T00:00:00	2024-11-08T15:00:00	5	Humedad	42
52785	7	Sololá	710	Panajachel	8	Panajachel	8	Agosto	2023-05-08T00:00:00	2024-11-08T15:00:00	6	Velocidad del viento	4.8
52786	7	Sololá	710	Panajachel	8	Panajachel	8	Agosto	2023-05-08T00:00:00	2024-11-08T15:00:00	7	Dirección del viento	4.83
52787	7	Sololá	710	Panajachel	8	Panajachel	8	Agosto	2023-05-08T00:00:00	2024-11-08T15:00:00	1	Precipitación	0
52788	7	Sololá	710	Panajachel	8	Panajachel	8	Agosto	2023-05-08T00:00:00	2024-11-08T15:00:00	8	Radiación solar	764
52789	7	Sololá	710	Panajachel	8	Panajachel	8	Agosto	2023-05-08T00:00:00	2024-11-08T16:00:00	2	Temperatura media	28.3
52790	7	Sololá	710	Panajachel	8	Panajachel	8	Agosto	2023-05-08T00:00:00	2024-11-08T16:00:00	4	Temperatura máxima	29.1
52791	7	Sololá	710	Panajachel	8	Panajachel	8	Agosto	2023-05-08T00:00:00	2024-11-08T16:00:00	3	Temperatura mínima	28.2
52792	7	Sololá	710	Panajachel	8	Panajachel	8	Agosto	2023-05-08T00:00:00	2024-11-08T16:00:00	5	Humedad	41
52793	7	Sololá	710	Panajachel	8	Panajachel	8	Agosto	2023-05-08T00:00:00	2024-11-08T16:00:00	6	Velocidad del viento	4.8
52794	7	Sololá	710	Panajachel	8	Panajachel	8	Agosto	2023-05-08T00:00:00	2024-11-08T16:00:00	7	Dirección del viento	4.83
52795	7	Sololá	710	Panajachel	8	Panajachel	8	Agosto	2023-05-08T00:00:00	2024-11-08T16:00:00	1	Precipitación	0
52796	7	Sololá	710	Panajachel	8	Panajachel	8	Agosto	2023-05-08T00:00:00	2024-11-08T16:00:00	8	Radiación solar	289
52797	7	Sololá	710	Panajachel	8	Panajachel	8	Agosto	2023-05-08T00:00:00	2024-11-08T17:00:00	2	Temperatura media	27.3
52798	7	Sololá	710	Panajachel	8	Panajachel	8	Agosto	2023-05-08T00:00:00	2024-11-08T17:00:00	4	Temperatura máxima	28.3
52799	7	Sololá	710	Panajachel	8	Panajachel	8	Agosto	2023-05-08T00:00:00	2024-11-08T17:00:00	3	Temperatura mínima	27.3
52800	7	Sololá	710	Panajachel	8	Panajachel	8	Agosto	2023-05-08T00:00:00	2024-11-08T17:00:00	5	Humedad	54
52801	7	Sololá	710	Panajachel	8	Panajachel	8	Agosto	2023-05-08T00:00:00	2024-11-08T17:00:00	6	Velocidad del viento	3.2
52802	7	Sololá	710	Panajachel	8	Panajachel	8	Agosto	2023-05-08T00:00:00	2024-11-08T17:00:00	7	Dirección del viento	3.22
52803	7	Sololá	710	Panajachel	8	Panajachel	8	Agosto	2023-05-08T00:00:00	2024-11-08T17:00:00	1	Precipitación	0
52804	7	Sololá	710	Panajachel	8	Panajachel	8	Agosto	2023-05-08T00:00:00	2024-11-08T17:00:00	8	Radiación solar	76
52805	7	Sololá	710	Panajachel	8	Panajachel	8	Agosto	2023-05-08T00:00:00	2024-11-08T18:00:00	2	Temperatura media	26.1
52806	7	Sololá	710	Panajachel	8	Panajachel	8	Agosto	2023-05-08T00:00:00	2024-11-08T18:00:00	4	Temperatura máxima	27.3
52807	7	Sololá	710	Panajachel	8	Panajachel	8	Agosto	2023-05-08T00:00:00	2024-11-08T18:00:00	3	Temperatura mínima	26.1
52808	7	Sololá	710	Panajachel	8	Panajachel	8	Agosto	2023-05-08T00:00:00	2024-11-08T18:00:00	5	Humedad	54
52809	7	Sololá	710	Panajachel	8	Panajachel	8	Agosto	2023-05-08T00:00:00	2024-11-08T18:00:00	6	Velocidad del viento	3.2
52810	7	Sololá	710	Panajachel	8	Panajachel	8	Agosto	2023-05-08T00:00:00	2024-11-08T18:00:00	7	Dirección del viento	3.22
52811	7	Sololá	710	Panajachel	8	Panajachel	8	Agosto	2023-05-08T00:00:00	2024-11-08T18:00:00	1	Precipitación	0
52812	7	Sololá	710	Panajachel	8	Panajachel	8	Agosto	2023-05-08T00:00:00	2024-11-08T18:00:00	8	Radiación solar	42
52813	7	Sololá	710	Panajachel	8	Panajachel	8	Agosto	2023-05-08T00:00:00	2024-11-08T19:00:00	2	Temperatura media	23.1
52814	7	Sololá	710	Panajachel	8	Panajachel	8	Agosto	2023-05-08T00:00:00	2024-11-08T19:00:00	4	Temperatura máxima	26.1
52815	7	Sololá	710	Panajachel	8	Panajachel	8	Agosto	2023-05-08T00:00:00	2024-11-08T19:00:00	3	Temperatura mínima	23.1
52816	7	Sololá	710	Panajachel	8	Panajachel	8	Agosto	2023-05-08T00:00:00	2024-11-08T19:00:00	5	Humedad	71
52817	7	Sololá	710	Panajachel	8	Panajachel	8	Agosto	2023-05-08T00:00:00	2024-11-08T19:00:00	6	Velocidad del viento	1.6
52818	7	Sololá	710	Panajachel	8	Panajachel	8	Agosto	2023-05-08T00:00:00	2024-11-08T19:00:00	7	Dirección del viento	1.61
52819	7	Sololá	710	Panajachel	8	Panajachel	8	Agosto	2023-05-08T00:00:00	2024-11-08T19:00:00	1	Precipitación	0
52820	7	Sololá	710	Panajachel	8	Panajachel	8	Agosto	2023-05-08T00:00:00	2024-11-08T19:00:00	8	Radiación solar	0
52821	7	Sololá	710	Panajachel	8	Panajachel	8	Agosto	2023-05-08T00:00:00	2024-11-08T20:00:00	2	Temperatura media	22.5
52822	7	Sololá	710	Panajachel	8	Panajachel	8	Agosto	2023-05-08T00:00:00	2024-11-08T20:00:00	4	Temperatura máxima	23.1
52823	7	Sololá	710	Panajachel	8	Panajachel	8	Agosto	2023-05-08T00:00:00	2024-11-08T20:00:00	3	Temperatura mínima	22.3
52824	7	Sololá	710	Panajachel	8	Panajachel	8	Agosto	2023-05-08T00:00:00	2024-11-08T20:00:00	5	Humedad	68
52825	7	Sololá	710	Panajachel	8	Panajachel	8	Agosto	2023-05-08T00:00:00	2024-11-08T20:00:00	6	Velocidad del viento	1.6
52826	7	Sololá	710	Panajachel	8	Panajachel	8	Agosto	2023-05-08T00:00:00	2024-11-08T20:00:00	7	Dirección del viento	1.61
52827	7	Sololá	710	Panajachel	8	Panajachel	8	Agosto	2023-05-08T00:00:00	2024-11-08T20:00:00	1	Precipitación	0
52828	7	Sololá	710	Panajachel	8	Panajachel	8	Agosto	2023-05-08T00:00:00	2024-11-08T20:00:00	8	Radiación solar	0
52829	7	Sololá	710	Panajachel	8	Panajachel	8	Agosto	2023-05-08T00:00:00	2024-11-08T21:00:00	2	Temperatura media	22.4
52830	7	Sololá	710	Panajachel	8	Panajachel	8	Agosto	2023-05-08T00:00:00	2024-11-08T21:00:00	4	Temperatura máxima	22.6
52831	7	Sololá	710	Panajachel	8	Panajachel	8	Agosto	2023-05-08T00:00:00	2024-11-08T21:00:00	3	Temperatura mínima	22.3
52832	7	Sololá	710	Panajachel	8	Panajachel	8	Agosto	2023-05-08T00:00:00	2024-11-08T21:00:00	5	Humedad	67
52833	7	Sololá	710	Panajachel	8	Panajachel	8	Agosto	2023-05-08T00:00:00	2024-11-08T21:00:00	6	Velocidad del viento	8
52834	7	Sololá	710	Panajachel	8	Panajachel	8	Agosto	2023-05-08T00:00:00	2024-11-08T21:00:00	7	Dirección del viento	8.05
52835	7	Sololá	710	Panajachel	8	Panajachel	8	Agosto	2023-05-08T00:00:00	2024-11-08T21:00:00	1	Precipitación	0
52836	7	Sololá	710	Panajachel	8	Panajachel	8	Agosto	2023-05-08T00:00:00	2024-11-08T21:00:00	8	Radiación solar	0
52837	7	Sololá	710	Panajachel	8	Panajachel	8	Agosto	2023-05-08T00:00:00	2024-11-08T22:00:00	2	Temperatura media	22.1
52838	7	Sololá	710	Panajachel	8	Panajachel	8	Agosto	2023-05-08T00:00:00	2024-11-08T22:00:00	4	Temperatura máxima	22.4
52839	7	Sololá	710	Panajachel	8	Panajachel	8	Agosto	2023-05-08T00:00:00	2024-11-08T22:00:00	3	Temperatura mínima	22.1
52840	7	Sololá	710	Panajachel	8	Panajachel	8	Agosto	2023-05-08T00:00:00	2024-11-08T22:00:00	5	Humedad	69
52841	7	Sololá	710	Panajachel	8	Panajachel	8	Agosto	2023-05-08T00:00:00	2024-11-08T22:00:00	6	Velocidad del viento	9.7
52842	7	Sololá	710	Panajachel	8	Panajachel	8	Agosto	2023-05-08T00:00:00	2024-11-08T22:00:00	7	Dirección del viento	9.66
52843	7	Sololá	710	Panajachel	8	Panajachel	8	Agosto	2023-05-08T00:00:00	2024-11-08T22:00:00	1	Precipitación	0
52844	7	Sololá	710	Panajachel	8	Panajachel	8	Agosto	2023-05-08T00:00:00	2024-11-08T22:00:00	8	Radiación solar	0
52845	7	Sololá	710	Panajachel	8	Panajachel	8	Agosto	2023-05-08T00:00:00	2024-11-08T23:00:00	2	Temperatura media	21.9
52846	7	Sololá	710	Panajachel	8	Panajachel	8	Agosto	2023-05-08T00:00:00	2024-11-08T23:00:00	4	Temperatura máxima	22.2
52847	7	Sololá	710	Panajachel	8	Panajachel	8	Agosto	2023-05-08T00:00:00	2024-11-08T23:00:00	3	Temperatura mínima	21.7
52848	7	Sololá	710	Panajachel	8	Panajachel	8	Agosto	2023-05-08T00:00:00	2024-11-08T23:00:00	5	Humedad	66
52849	7	Sololá	710	Panajachel	8	Panajachel	8	Agosto	2023-05-08T00:00:00	2024-11-08T23:00:00	6	Velocidad del viento	4.8
52850	7	Sololá	710	Panajachel	8	Panajachel	8	Agosto	2023-05-08T00:00:00	2024-11-08T23:00:00	7	Dirección del viento	4.83
52851	7	Sololá	710	Panajachel	8	Panajachel	8	Agosto	2023-05-08T00:00:00	2024-11-08T23:00:00	1	Precipitación	0
52852	7	Sololá	710	Panajachel	8	Panajachel	8	Agosto	2023-05-08T00:00:00	2024-11-08T23:00:00	8	Radiación solar	0
52853	7	Sololá	710	Panajachel	8	Panajachel	8	Agosto	2023-06-08T00:00:00	2024-11-08T00:00:00	2	Temperatura media	20.3
52854	7	Sololá	710	Panajachel	8	Panajachel	8	Agosto	2023-06-08T00:00:00	2024-11-08T00:00:00	4	Temperatura máxima	21.9
52855	7	Sololá	710	Panajachel	8	Panajachel	8	Agosto	2023-06-08T00:00:00	2024-11-08T00:00:00	3	Temperatura mínima	20.3
52856	7	Sololá	710	Panajachel	8	Panajachel	8	Agosto	2023-06-08T00:00:00	2024-11-08T00:00:00	5	Humedad	71
52857	7	Sololá	710	Panajachel	8	Panajachel	8	Agosto	2023-06-08T00:00:00	2024-11-08T00:00:00	6	Velocidad del viento	1.6
52858	7	Sololá	710	Panajachel	8	Panajachel	8	Agosto	2023-06-08T00:00:00	2024-11-08T00:00:00	7	Dirección del viento	1.61
52859	7	Sololá	710	Panajachel	8	Panajachel	8	Agosto	2023-06-08T00:00:00	2024-11-08T00:00:00	1	Precipitación	0
52860	7	Sololá	710	Panajachel	8	Panajachel	8	Agosto	2023-06-08T00:00:00	2024-11-08T00:00:00	8	Radiación solar	0
52861	7	Sololá	710	Panajachel	8	Panajachel	8	Agosto	2023-06-08T00:00:00	2024-11-08T01:00:00	2	Temperatura media	18.2
52862	7	Sololá	710	Panajachel	8	Panajachel	8	Agosto	2023-06-08T00:00:00	2024-11-08T01:00:00	4	Temperatura máxima	20.3
52863	7	Sololá	710	Panajachel	8	Panajachel	8	Agosto	2023-06-08T00:00:00	2024-11-08T01:00:00	3	Temperatura mínima	18.2
52864	7	Sololá	710	Panajachel	8	Panajachel	8	Agosto	2023-06-08T00:00:00	2024-11-08T01:00:00	5	Humedad	77
52865	7	Sololá	710	Panajachel	8	Panajachel	8	Agosto	2023-06-08T00:00:00	2024-11-08T01:00:00	6	Velocidad del viento	1.6
52866	7	Sololá	710	Panajachel	8	Panajachel	8	Agosto	2023-06-08T00:00:00	2024-11-08T01:00:00	7	Dirección del viento	1.61
52867	7	Sololá	710	Panajachel	8	Panajachel	8	Agosto	2023-06-08T00:00:00	2024-11-08T01:00:00	1	Precipitación	0
52868	7	Sololá	710	Panajachel	8	Panajachel	8	Agosto	2023-06-08T00:00:00	2024-11-08T01:00:00	8	Radiación solar	0
52869	7	Sololá	710	Panajachel	8	Panajachel	8	Agosto	2023-06-08T00:00:00	2024-11-08T02:00:00	2	Temperatura media	18.4
52870	7	Sololá	710	Panajachel	8	Panajachel	8	Agosto	2023-06-08T00:00:00	2024-11-08T02:00:00	4	Temperatura máxima	19.2
52871	7	Sololá	710	Panajachel	8	Panajachel	8	Agosto	2023-06-08T00:00:00	2024-11-08T02:00:00	3	Temperatura mínima	18.2
52872	7	Sololá	710	Panajachel	8	Panajachel	8	Agosto	2023-06-08T00:00:00	2024-11-08T02:00:00	5	Humedad	78
52873	7	Sololá	710	Panajachel	8	Panajachel	8	Agosto	2023-06-08T00:00:00	2024-11-08T02:00:00	6	Velocidad del viento	1.6
52874	7	Sololá	710	Panajachel	8	Panajachel	8	Agosto	2023-06-08T00:00:00	2024-11-08T02:00:00	7	Dirección del viento	1.61
52875	7	Sololá	710	Panajachel	8	Panajachel	8	Agosto	2023-06-08T00:00:00	2024-11-08T02:00:00	1	Precipitación	0
52876	7	Sololá	710	Panajachel	8	Panajachel	8	Agosto	2023-06-08T00:00:00	2024-11-08T02:00:00	8	Radiación solar	0
52877	7	Sololá	710	Panajachel	8	Panajachel	8	Agosto	2023-06-08T00:00:00	2024-11-08T03:00:00	2	Temperatura media	18.4
52878	7	Sololá	710	Panajachel	8	Panajachel	8	Agosto	2023-06-08T00:00:00	2024-11-08T03:00:00	4	Temperatura máxima	18.5
52879	7	Sololá	710	Panajachel	8	Panajachel	8	Agosto	2023-06-08T00:00:00	2024-11-08T03:00:00	3	Temperatura mínima	18.1
52880	7	Sololá	710	Panajachel	8	Panajachel	8	Agosto	2023-06-08T00:00:00	2024-11-08T03:00:00	5	Humedad	76
52881	7	Sololá	710	Panajachel	8	Panajachel	8	Agosto	2023-06-08T00:00:00	2024-11-08T03:00:00	6	Velocidad del viento	1.6
52882	7	Sololá	710	Panajachel	8	Panajachel	8	Agosto	2023-06-08T00:00:00	2024-11-08T03:00:00	7	Dirección del viento	1.61
52883	7	Sololá	710	Panajachel	8	Panajachel	8	Agosto	2023-06-08T00:00:00	2024-11-08T03:00:00	1	Precipitación	0
52884	7	Sololá	710	Panajachel	8	Panajachel	8	Agosto	2023-06-08T00:00:00	2024-11-08T03:00:00	8	Radiación solar	0
52885	7	Sololá	710	Panajachel	8	Panajachel	8	Agosto	2023-06-08T00:00:00	2024-11-08T04:00:00	2	Temperatura media	17.8
52886	7	Sololá	710	Panajachel	8	Panajachel	8	Agosto	2023-06-08T00:00:00	2024-11-08T04:00:00	4	Temperatura máxima	18.6
52887	7	Sololá	710	Panajachel	8	Panajachel	8	Agosto	2023-06-08T00:00:00	2024-11-08T04:00:00	3	Temperatura mínima	17.3
52888	7	Sololá	710	Panajachel	8	Panajachel	8	Agosto	2023-06-08T00:00:00	2024-11-08T04:00:00	5	Humedad	79
52889	7	Sololá	710	Panajachel	8	Panajachel	8	Agosto	2023-06-08T00:00:00	2024-11-08T04:00:00	6	Velocidad del viento	1.6
52890	7	Sololá	710	Panajachel	8	Panajachel	8	Agosto	2023-06-08T00:00:00	2024-11-08T04:00:00	7	Dirección del viento	1.61
52891	7	Sololá	710	Panajachel	8	Panajachel	8	Agosto	2023-06-08T00:00:00	2024-11-08T04:00:00	1	Precipitación	0
52892	7	Sololá	710	Panajachel	8	Panajachel	8	Agosto	2023-06-08T00:00:00	2024-11-08T04:00:00	8	Radiación solar	0
52893	7	Sololá	710	Panajachel	8	Panajachel	8	Agosto	2023-06-08T00:00:00	2024-11-08T05:00:00	2	Temperatura media	17.9
52894	7	Sololá	710	Panajachel	8	Panajachel	8	Agosto	2023-06-08T00:00:00	2024-11-08T05:00:00	4	Temperatura máxima	17.9
52895	7	Sololá	710	Panajachel	8	Panajachel	8	Agosto	2023-06-08T00:00:00	2024-11-08T05:00:00	3	Temperatura mínima	16.9
52896	7	Sololá	710	Panajachel	8	Panajachel	8	Agosto	2023-06-08T00:00:00	2024-11-08T05:00:00	5	Humedad	78
52897	7	Sololá	710	Panajachel	8	Panajachel	8	Agosto	2023-06-08T00:00:00	2024-11-08T05:00:00	6	Velocidad del viento	1.6
52898	7	Sololá	710	Panajachel	8	Panajachel	8	Agosto	2023-06-08T00:00:00	2024-11-08T05:00:00	7	Dirección del viento	1.61
52899	7	Sololá	710	Panajachel	8	Panajachel	8	Agosto	2023-06-08T00:00:00	2024-11-08T05:00:00	1	Precipitación	0
52900	7	Sololá	710	Panajachel	8	Panajachel	8	Agosto	2023-06-08T00:00:00	2024-11-08T05:00:00	8	Radiación solar	0
52901	7	Sololá	710	Panajachel	8	Panajachel	8	Agosto	2023-06-08T00:00:00	2024-11-08T06:00:00	2	Temperatura media	18
52902	7	Sololá	710	Panajachel	8	Panajachel	8	Agosto	2023-06-08T00:00:00	2024-11-08T06:00:00	4	Temperatura máxima	18.1
52903	7	Sololá	710	Panajachel	8	Panajachel	8	Agosto	2023-06-08T00:00:00	2024-11-08T06:00:00	3	Temperatura mínima	17.6
52904	7	Sololá	710	Panajachel	8	Panajachel	8	Agosto	2023-06-08T00:00:00	2024-11-08T06:00:00	5	Humedad	77
52905	7	Sololá	710	Panajachel	8	Panajachel	8	Agosto	2023-06-08T00:00:00	2024-11-08T06:00:00	6	Velocidad del viento	0
52906	7	Sololá	710	Panajachel	8	Panajachel	8	Agosto	2023-06-08T00:00:00	2024-11-08T06:00:00	7	Dirección del viento	0
52907	7	Sololá	710	Panajachel	8	Panajachel	8	Agosto	2023-06-08T00:00:00	2024-11-08T06:00:00	1	Precipitación	0
52908	7	Sololá	710	Panajachel	8	Panajachel	8	Agosto	2023-06-08T00:00:00	2024-11-08T06:00:00	8	Radiación solar	1
52909	7	Sololá	710	Panajachel	8	Panajachel	8	Agosto	2023-06-08T00:00:00	2024-11-08T07:00:00	2	Temperatura media	19.4
52910	7	Sololá	710	Panajachel	8	Panajachel	8	Agosto	2023-06-08T00:00:00	2024-11-08T07:00:00	4	Temperatura máxima	19.4
52911	7	Sololá	710	Panajachel	8	Panajachel	8	Agosto	2023-06-08T00:00:00	2024-11-08T07:00:00	3	Temperatura mínima	17.5
52912	7	Sololá	710	Panajachel	8	Panajachel	8	Agosto	2023-06-08T00:00:00	2024-11-08T07:00:00	5	Humedad	76
52913	7	Sololá	710	Panajachel	8	Panajachel	8	Agosto	2023-06-08T00:00:00	2024-11-08T07:00:00	6	Velocidad del viento	0
52914	7	Sololá	710	Panajachel	8	Panajachel	8	Agosto	2023-06-08T00:00:00	2024-11-08T07:00:00	7	Dirección del viento	0
52915	7	Sololá	710	Panajachel	8	Panajachel	8	Agosto	2023-06-08T00:00:00	2024-11-08T07:00:00	1	Precipitación	0
52916	7	Sololá	710	Panajachel	8	Panajachel	8	Agosto	2023-06-08T00:00:00	2024-11-08T07:00:00	8	Radiación solar	73
52917	7	Sololá	710	Panajachel	8	Panajachel	8	Agosto	2023-06-08T00:00:00	2024-11-08T08:00:00	2	Temperatura media	21.2
52918	7	Sololá	710	Panajachel	8	Panajachel	8	Agosto	2023-06-08T00:00:00	2024-11-08T08:00:00	4	Temperatura máxima	21.7
52919	7	Sololá	710	Panajachel	8	Panajachel	8	Agosto	2023-06-08T00:00:00	2024-11-08T08:00:00	3	Temperatura mínima	19.4
52920	7	Sololá	710	Panajachel	8	Panajachel	8	Agosto	2023-06-08T00:00:00	2024-11-08T08:00:00	5	Humedad	71
52921	7	Sololá	710	Panajachel	8	Panajachel	8	Agosto	2023-06-08T00:00:00	2024-11-08T08:00:00	6	Velocidad del viento	1.6
52922	7	Sololá	710	Panajachel	8	Panajachel	8	Agosto	2023-06-08T00:00:00	2024-11-08T08:00:00	7	Dirección del viento	1.61
52923	7	Sololá	710	Panajachel	8	Panajachel	8	Agosto	2023-06-08T00:00:00	2024-11-08T08:00:00	1	Precipitación	0
52924	7	Sololá	710	Panajachel	8	Panajachel	8	Agosto	2023-06-08T00:00:00	2024-11-08T08:00:00	8	Radiación solar	312
52925	7	Sololá	710	Panajachel	8	Panajachel	8	Agosto	2023-06-08T00:00:00	2024-11-08T09:00:00	2	Temperatura media	22.8
52926	7	Sololá	710	Panajachel	8	Panajachel	8	Agosto	2023-06-08T00:00:00	2024-11-08T09:00:00	4	Temperatura máxima	22.8
52927	7	Sololá	710	Panajachel	8	Panajachel	8	Agosto	2023-06-08T00:00:00	2024-11-08T09:00:00	3	Temperatura mínima	21.2
52928	7	Sololá	710	Panajachel	8	Panajachel	8	Agosto	2023-06-08T00:00:00	2024-11-08T09:00:00	5	Humedad	69
52929	7	Sololá	710	Panajachel	8	Panajachel	8	Agosto	2023-06-08T00:00:00	2024-11-08T09:00:00	6	Velocidad del viento	1.6
52930	7	Sololá	710	Panajachel	8	Panajachel	8	Agosto	2023-06-08T00:00:00	2024-11-08T09:00:00	7	Dirección del viento	1.61
52931	7	Sololá	710	Panajachel	8	Panajachel	8	Agosto	2023-06-08T00:00:00	2024-11-08T09:00:00	1	Precipitación	0
52932	7	Sololá	710	Panajachel	8	Panajachel	8	Agosto	2023-06-08T00:00:00	2024-11-08T09:00:00	8	Radiación solar	537
52933	7	Sololá	710	Panajachel	8	Panajachel	8	Agosto	2023-06-08T00:00:00	2024-11-08T10:00:00	2	Temperatura media	24.1
52934	7	Sololá	710	Panajachel	8	Panajachel	8	Agosto	2023-06-08T00:00:00	2024-11-08T10:00:00	4	Temperatura máxima	24.1
52935	7	Sololá	710	Panajachel	8	Panajachel	8	Agosto	2023-06-08T00:00:00	2024-11-08T10:00:00	3	Temperatura mínima	22.4
52936	7	Sololá	710	Panajachel	8	Panajachel	8	Agosto	2023-06-08T00:00:00	2024-11-08T10:00:00	5	Humedad	64
52937	7	Sololá	710	Panajachel	8	Panajachel	8	Agosto	2023-06-08T00:00:00	2024-11-08T10:00:00	6	Velocidad del viento	1.6
52938	7	Sololá	710	Panajachel	8	Panajachel	8	Agosto	2023-06-08T00:00:00	2024-11-08T10:00:00	7	Dirección del viento	1.61
52939	7	Sololá	710	Panajachel	8	Panajachel	8	Agosto	2023-06-08T00:00:00	2024-11-08T10:00:00	1	Precipitación	0
52940	7	Sololá	710	Panajachel	8	Panajachel	8	Agosto	2023-06-08T00:00:00	2024-11-08T10:00:00	8	Radiación solar	729
52941	7	Sololá	710	Panajachel	8	Panajachel	8	Agosto	2023-06-08T00:00:00	2024-11-08T11:00:00	2	Temperatura media	25
52942	7	Sololá	710	Panajachel	8	Panajachel	8	Agosto	2023-06-08T00:00:00	2024-11-08T11:00:00	4	Temperatura máxima	25
52943	7	Sololá	710	Panajachel	8	Panajachel	8	Agosto	2023-06-08T00:00:00	2024-11-08T11:00:00	3	Temperatura mínima	23.2
52944	7	Sololá	710	Panajachel	8	Panajachel	8	Agosto	2023-06-08T00:00:00	2024-11-08T11:00:00	5	Humedad	68
52945	7	Sololá	710	Panajachel	8	Panajachel	8	Agosto	2023-06-08T00:00:00	2024-11-08T11:00:00	6	Velocidad del viento	3.2
52946	7	Sololá	710	Panajachel	8	Panajachel	8	Agosto	2023-06-08T00:00:00	2024-11-08T11:00:00	7	Dirección del viento	3.22
52947	7	Sololá	710	Panajachel	8	Panajachel	8	Agosto	2023-06-08T00:00:00	2024-11-08T11:00:00	1	Precipitación	0
52948	7	Sololá	710	Panajachel	8	Panajachel	8	Agosto	2023-06-08T00:00:00	2024-11-08T11:00:00	8	Radiación solar	868
52949	7	Sololá	710	Panajachel	8	Panajachel	8	Agosto	2023-06-08T00:00:00	2024-11-08T12:00:00	2	Temperatura media	27.4
52950	7	Sololá	710	Panajachel	8	Panajachel	8	Agosto	2023-06-08T00:00:00	2024-11-08T12:00:00	4	Temperatura máxima	27.4
52951	7	Sololá	710	Panajachel	8	Panajachel	8	Agosto	2023-06-08T00:00:00	2024-11-08T12:00:00	3	Temperatura mínima	25
52952	7	Sololá	710	Panajachel	8	Panajachel	8	Agosto	2023-06-08T00:00:00	2024-11-08T12:00:00	5	Humedad	60
52953	7	Sololá	710	Panajachel	8	Panajachel	8	Agosto	2023-06-08T00:00:00	2024-11-08T12:00:00	6	Velocidad del viento	3.2
52954	7	Sololá	710	Panajachel	8	Panajachel	8	Agosto	2023-06-08T00:00:00	2024-11-08T12:00:00	7	Dirección del viento	3.22
52955	7	Sololá	710	Panajachel	8	Panajachel	8	Agosto	2023-06-08T00:00:00	2024-11-08T12:00:00	1	Precipitación	0
52956	7	Sololá	710	Panajachel	8	Panajachel	8	Agosto	2023-06-08T00:00:00	2024-11-08T12:00:00	8	Radiación solar	947
52957	7	Sololá	710	Panajachel	8	Panajachel	8	Agosto	2023-06-08T00:00:00	2024-11-08T13:00:00	2	Temperatura media	29.1
52958	7	Sololá	710	Panajachel	8	Panajachel	8	Agosto	2023-06-08T00:00:00	2024-11-08T13:00:00	4	Temperatura máxima	29.1
52959	7	Sololá	710	Panajachel	8	Panajachel	8	Agosto	2023-06-08T00:00:00	2024-11-08T13:00:00	3	Temperatura mínima	27.2
52960	7	Sololá	710	Panajachel	8	Panajachel	8	Agosto	2023-06-08T00:00:00	2024-11-08T13:00:00	5	Humedad	41
52961	7	Sololá	710	Panajachel	8	Panajachel	8	Agosto	2023-06-08T00:00:00	2024-11-08T13:00:00	6	Velocidad del viento	3.2
52962	7	Sololá	710	Panajachel	8	Panajachel	8	Agosto	2023-06-08T00:00:00	2024-11-08T13:00:00	7	Dirección del viento	3.22
52963	7	Sololá	710	Panajachel	8	Panajachel	8	Agosto	2023-06-08T00:00:00	2024-11-08T13:00:00	1	Precipitación	0
52964	7	Sololá	710	Panajachel	8	Panajachel	8	Agosto	2023-06-08T00:00:00	2024-11-08T13:00:00	8	Radiación solar	987
52965	7	Sololá	710	Panajachel	8	Panajachel	8	Agosto	2023-06-08T00:00:00	2024-11-08T14:00:00	2	Temperatura media	26.8
52966	7	Sololá	710	Panajachel	8	Panajachel	8	Agosto	2023-06-08T00:00:00	2024-11-08T14:00:00	4	Temperatura máxima	29.3
52967	7	Sololá	710	Panajachel	8	Panajachel	8	Agosto	2023-06-08T00:00:00	2024-11-08T14:00:00	3	Temperatura mínima	26.1
52968	7	Sololá	710	Panajachel	8	Panajachel	8	Agosto	2023-06-08T00:00:00	2024-11-08T14:00:00	5	Humedad	72
52969	7	Sololá	710	Panajachel	8	Panajachel	8	Agosto	2023-06-08T00:00:00	2024-11-08T14:00:00	6	Velocidad del viento	4.8
52970	7	Sololá	710	Panajachel	8	Panajachel	8	Agosto	2023-06-08T00:00:00	2024-11-08T14:00:00	7	Dirección del viento	4.83
52971	7	Sololá	710	Panajachel	8	Panajachel	8	Agosto	2023-06-08T00:00:00	2024-11-08T14:00:00	1	Precipitación	0
52972	7	Sololá	710	Panajachel	8	Panajachel	8	Agosto	2023-06-08T00:00:00	2024-11-08T14:00:00	8	Radiación solar	968
52973	7	Sololá	710	Panajachel	8	Panajachel	8	Agosto	2023-06-08T00:00:00	2024-11-08T15:00:00	2	Temperatura media	25
52974	7	Sololá	710	Panajachel	8	Panajachel	8	Agosto	2023-06-08T00:00:00	2024-11-08T15:00:00	4	Temperatura máxima	26.7
52975	7	Sololá	710	Panajachel	8	Panajachel	8	Agosto	2023-06-08T00:00:00	2024-11-08T15:00:00	3	Temperatura mínima	24.9
52976	7	Sololá	710	Panajachel	8	Panajachel	8	Agosto	2023-06-08T00:00:00	2024-11-08T15:00:00	5	Humedad	74
52977	7	Sololá	710	Panajachel	8	Panajachel	8	Agosto	2023-06-08T00:00:00	2024-11-08T15:00:00	6	Velocidad del viento	4.8
52978	7	Sololá	710	Panajachel	8	Panajachel	8	Agosto	2023-06-08T00:00:00	2024-11-08T15:00:00	7	Dirección del viento	4.83
52979	7	Sololá	710	Panajachel	8	Panajachel	8	Agosto	2023-06-08T00:00:00	2024-11-08T15:00:00	1	Precipitación	0
52980	7	Sololá	710	Panajachel	8	Panajachel	8	Agosto	2023-06-08T00:00:00	2024-11-08T15:00:00	8	Radiación solar	394
52981	7	Sololá	710	Panajachel	8	Panajachel	8	Agosto	2023-06-08T00:00:00	2024-11-08T16:00:00	2	Temperatura media	24.9
52982	7	Sololá	710	Panajachel	8	Panajachel	8	Agosto	2023-06-08T00:00:00	2024-11-08T16:00:00	4	Temperatura máxima	25.7
52983	7	Sololá	710	Panajachel	8	Panajachel	8	Agosto	2023-06-08T00:00:00	2024-11-08T16:00:00	3	Temperatura mínima	24.7
52984	7	Sololá	710	Panajachel	8	Panajachel	8	Agosto	2023-06-08T00:00:00	2024-11-08T16:00:00	5	Humedad	75
52985	7	Sololá	710	Panajachel	8	Panajachel	8	Agosto	2023-06-08T00:00:00	2024-11-08T16:00:00	6	Velocidad del viento	9.7
52986	7	Sololá	710	Panajachel	8	Panajachel	8	Agosto	2023-06-08T00:00:00	2024-11-08T16:00:00	7	Dirección del viento	9.66
52987	7	Sololá	710	Panajachel	8	Panajachel	8	Agosto	2023-06-08T00:00:00	2024-11-08T16:00:00	1	Precipitación	0
52988	7	Sololá	710	Panajachel	8	Panajachel	8	Agosto	2023-06-08T00:00:00	2024-11-08T16:00:00	8	Radiación solar	411
52989	7	Sololá	710	Panajachel	8	Panajachel	8	Agosto	2023-06-08T00:00:00	2024-11-08T17:00:00	2	Temperatura media	24.1
52990	7	Sololá	710	Panajachel	8	Panajachel	8	Agosto	2023-06-08T00:00:00	2024-11-08T17:00:00	4	Temperatura máxima	25.3
52991	7	Sololá	710	Panajachel	8	Panajachel	8	Agosto	2023-06-08T00:00:00	2024-11-08T17:00:00	3	Temperatura mínima	24
52992	7	Sololá	710	Panajachel	8	Panajachel	8	Agosto	2023-06-08T00:00:00	2024-11-08T17:00:00	5	Humedad	80
52993	7	Sololá	710	Panajachel	8	Panajachel	8	Agosto	2023-06-08T00:00:00	2024-11-08T17:00:00	6	Velocidad del viento	3.2
52994	7	Sololá	710	Panajachel	8	Panajachel	8	Agosto	2023-06-08T00:00:00	2024-11-08T17:00:00	7	Dirección del viento	3.22
52995	7	Sololá	710	Panajachel	8	Panajachel	8	Agosto	2023-06-08T00:00:00	2024-11-08T17:00:00	1	Precipitación	0
52996	7	Sololá	710	Panajachel	8	Panajachel	8	Agosto	2023-06-08T00:00:00	2024-11-08T17:00:00	8	Radiación solar	81
52997	7	Sololá	710	Panajachel	8	Panajachel	8	Agosto	2023-06-08T00:00:00	2024-11-08T18:00:00	2	Temperatura media	23.2
52998	7	Sololá	710	Panajachel	8	Panajachel	8	Agosto	2023-06-08T00:00:00	2024-11-08T18:00:00	4	Temperatura máxima	24.1
52999	7	Sololá	710	Panajachel	8	Panajachel	8	Agosto	2023-06-08T00:00:00	2024-11-08T18:00:00	3	Temperatura mínima	23.2
53000	7	Sololá	710	Panajachel	8	Panajachel	8	Agosto	2023-06-08T00:00:00	2024-11-08T18:00:00	5	Humedad	84
53001	7	Sololá	710	Panajachel	8	Panajachel	8	Agosto	2023-06-08T00:00:00	2024-11-08T18:00:00	6	Velocidad del viento	1.6
53002	7	Sololá	710	Panajachel	8	Panajachel	8	Agosto	2023-06-08T00:00:00	2024-11-08T18:00:00	7	Dirección del viento	1.61
53003	7	Sololá	710	Panajachel	8	Panajachel	8	Agosto	2023-06-08T00:00:00	2024-11-08T18:00:00	1	Precipitación	0
53004	7	Sololá	710	Panajachel	8	Panajachel	8	Agosto	2023-06-08T00:00:00	2024-11-08T18:00:00	8	Radiación solar	45
53005	7	Sololá	710	Panajachel	8	Panajachel	8	Agosto	2023-06-08T00:00:00	2024-11-08T19:00:00	2	Temperatura media	22.3
53006	7	Sololá	710	Panajachel	8	Panajachel	8	Agosto	2023-06-08T00:00:00	2024-11-08T19:00:00	4	Temperatura máxima	23.2
53007	7	Sololá	710	Panajachel	8	Panajachel	8	Agosto	2023-06-08T00:00:00	2024-11-08T19:00:00	3	Temperatura mínima	22.3
53008	7	Sololá	710	Panajachel	8	Panajachel	8	Agosto	2023-06-08T00:00:00	2024-11-08T19:00:00	5	Humedad	86
53009	7	Sololá	710	Panajachel	8	Panajachel	8	Agosto	2023-06-08T00:00:00	2024-11-08T19:00:00	6	Velocidad del viento	0
53010	7	Sololá	710	Panajachel	8	Panajachel	8	Agosto	2023-06-08T00:00:00	2024-11-08T19:00:00	7	Dirección del viento	0
53011	7	Sololá	710	Panajachel	8	Panajachel	8	Agosto	2023-06-08T00:00:00	2024-11-08T19:00:00	1	Precipitación	0
53012	7	Sololá	710	Panajachel	8	Panajachel	8	Agosto	2023-06-08T00:00:00	2024-11-08T19:00:00	8	Radiación solar	0
53013	7	Sololá	710	Panajachel	8	Panajachel	8	Agosto	2023-06-08T00:00:00	2024-11-08T20:00:00	2	Temperatura media	21.4
53014	7	Sololá	710	Panajachel	8	Panajachel	8	Agosto	2023-06-08T00:00:00	2024-11-08T20:00:00	4	Temperatura máxima	22.3
53015	7	Sololá	710	Panajachel	8	Panajachel	8	Agosto	2023-06-08T00:00:00	2024-11-08T20:00:00	3	Temperatura mínima	21.4
53016	7	Sololá	710	Panajachel	8	Panajachel	8	Agosto	2023-06-08T00:00:00	2024-11-08T20:00:00	5	Humedad	79
53017	7	Sololá	710	Panajachel	8	Panajachel	8	Agosto	2023-06-08T00:00:00	2024-11-08T20:00:00	6	Velocidad del viento	0
53018	7	Sololá	710	Panajachel	8	Panajachel	8	Agosto	2023-06-08T00:00:00	2024-11-08T20:00:00	7	Dirección del viento	0
53019	7	Sololá	710	Panajachel	8	Panajachel	8	Agosto	2023-06-08T00:00:00	2024-11-08T20:00:00	1	Precipitación	0
53020	7	Sololá	710	Panajachel	8	Panajachel	8	Agosto	2023-06-08T00:00:00	2024-11-08T20:00:00	8	Radiación solar	0
53021	7	Sololá	710	Panajachel	8	Panajachel	8	Agosto	2023-06-08T00:00:00	2024-11-08T21:00:00	2	Temperatura media	22.3
53022	7	Sololá	710	Panajachel	8	Panajachel	8	Agosto	2023-06-08T00:00:00	2024-11-08T21:00:00	4	Temperatura máxima	22.3
53023	7	Sololá	710	Panajachel	8	Panajachel	8	Agosto	2023-06-08T00:00:00	2024-11-08T21:00:00	3	Temperatura mínima	21.4
53024	7	Sololá	710	Panajachel	8	Panajachel	8	Agosto	2023-06-08T00:00:00	2024-11-08T21:00:00	5	Humedad	72
53025	7	Sololá	710	Panajachel	8	Panajachel	8	Agosto	2023-06-08T00:00:00	2024-11-08T21:00:00	6	Velocidad del viento	1.6
53026	7	Sololá	710	Panajachel	8	Panajachel	8	Agosto	2023-06-08T00:00:00	2024-11-08T21:00:00	7	Dirección del viento	1.61
53027	7	Sololá	710	Panajachel	8	Panajachel	8	Agosto	2023-06-08T00:00:00	2024-11-08T21:00:00	1	Precipitación	0
53028	7	Sololá	710	Panajachel	8	Panajachel	8	Agosto	2023-06-08T00:00:00	2024-11-08T21:00:00	8	Radiación solar	0
53029	7	Sololá	710	Panajachel	8	Panajachel	8	Agosto	2023-06-08T00:00:00	2024-11-08T22:00:00	2	Temperatura media	21.9
53030	7	Sololá	710	Panajachel	8	Panajachel	8	Agosto	2023-06-08T00:00:00	2024-11-08T22:00:00	4	Temperatura máxima	22.6
53031	7	Sololá	710	Panajachel	8	Panajachel	8	Agosto	2023-06-08T00:00:00	2024-11-08T22:00:00	3	Temperatura mínima	21.9
53032	7	Sololá	710	Panajachel	8	Panajachel	8	Agosto	2023-06-08T00:00:00	2024-11-08T22:00:00	5	Humedad	70
53033	7	Sololá	710	Panajachel	8	Panajachel	8	Agosto	2023-06-08T00:00:00	2024-11-08T22:00:00	6	Velocidad del viento	4.8
53034	7	Sololá	710	Panajachel	8	Panajachel	8	Agosto	2023-06-08T00:00:00	2024-11-08T22:00:00	7	Dirección del viento	4.83
53035	7	Sololá	710	Panajachel	8	Panajachel	8	Agosto	2023-06-08T00:00:00	2024-11-08T22:00:00	1	Precipitación	0
53036	7	Sololá	710	Panajachel	8	Panajachel	8	Agosto	2023-06-08T00:00:00	2024-11-08T22:00:00	8	Radiación solar	0
53037	7	Sololá	710	Panajachel	8	Panajachel	8	Agosto	2023-06-08T00:00:00	2024-11-08T23:00:00	2	Temperatura media	21.5
53038	7	Sololá	710	Panajachel	8	Panajachel	8	Agosto	2023-06-08T00:00:00	2024-11-08T23:00:00	4	Temperatura máxima	22.2
53039	7	Sololá	710	Panajachel	8	Panajachel	8	Agosto	2023-06-08T00:00:00	2024-11-08T23:00:00	3	Temperatura mínima	21.5
53040	7	Sololá	710	Panajachel	8	Panajachel	8	Agosto	2023-06-08T00:00:00	2024-11-08T23:00:00	5	Humedad	71
53041	7	Sololá	710	Panajachel	8	Panajachel	8	Agosto	2023-06-08T00:00:00	2024-11-08T23:00:00	6	Velocidad del viento	4.8
53042	7	Sololá	710	Panajachel	8	Panajachel	8	Agosto	2023-06-08T00:00:00	2024-11-08T23:00:00	7	Dirección del viento	4.83
53043	7	Sololá	710	Panajachel	8	Panajachel	8	Agosto	2023-06-08T00:00:00	2024-11-08T23:00:00	1	Precipitación	0
53044	7	Sololá	710	Panajachel	8	Panajachel	8	Agosto	2023-06-08T00:00:00	2024-11-08T23:00:00	8	Radiación solar	0
53045	7	Sololá	710	Panajachel	8	Panajachel	8	Agosto	2023-07-08T00:00:00	2024-11-08T00:00:00	2	Temperatura media	21.2
53046	7	Sololá	710	Panajachel	8	Panajachel	8	Agosto	2023-07-08T00:00:00	2024-11-08T00:00:00	4	Temperatura máxima	21.6
53047	7	Sololá	710	Panajachel	8	Panajachel	8	Agosto	2023-07-08T00:00:00	2024-11-08T00:00:00	3	Temperatura mínima	20.9
53048	7	Sololá	710	Panajachel	8	Panajachel	8	Agosto	2023-07-08T00:00:00	2024-11-08T00:00:00	5	Humedad	70
53049	7	Sololá	710	Panajachel	8	Panajachel	8	Agosto	2023-07-08T00:00:00	2024-11-08T00:00:00	6	Velocidad del viento	6.4
53050	7	Sololá	710	Panajachel	8	Panajachel	8	Agosto	2023-07-08T00:00:00	2024-11-08T00:00:00	7	Dirección del viento	6.44
53051	7	Sololá	710	Panajachel	8	Panajachel	8	Agosto	2023-07-08T00:00:00	2024-11-08T00:00:00	1	Precipitación	0
53052	7	Sololá	710	Panajachel	8	Panajachel	8	Agosto	2023-07-08T00:00:00	2024-11-08T00:00:00	8	Radiación solar	0
53053	7	Sololá	710	Panajachel	8	Panajachel	8	Agosto	2023-07-08T00:00:00	2024-11-08T01:00:00	2	Temperatura media	21.4
53054	7	Sololá	710	Panajachel	8	Panajachel	8	Agosto	2023-07-08T00:00:00	2024-11-08T01:00:00	4	Temperatura máxima	21.4
53055	7	Sololá	710	Panajachel	8	Panajachel	8	Agosto	2023-07-08T00:00:00	2024-11-08T01:00:00	3	Temperatura mínima	20.9
53056	7	Sololá	710	Panajachel	8	Panajachel	8	Agosto	2023-07-08T00:00:00	2024-11-08T01:00:00	5	Humedad	69
53057	7	Sololá	710	Panajachel	8	Panajachel	8	Agosto	2023-07-08T00:00:00	2024-11-08T01:00:00	6	Velocidad del viento	8
53058	7	Sololá	710	Panajachel	8	Panajachel	8	Agosto	2023-07-08T00:00:00	2024-11-08T01:00:00	7	Dirección del viento	8.05
53059	7	Sololá	710	Panajachel	8	Panajachel	8	Agosto	2023-07-08T00:00:00	2024-11-08T01:00:00	1	Precipitación	0
53060	7	Sololá	710	Panajachel	8	Panajachel	8	Agosto	2023-07-08T00:00:00	2024-11-08T01:00:00	8	Radiación solar	0
53061	7	Sololá	710	Panajachel	8	Panajachel	8	Agosto	2023-07-08T00:00:00	2024-11-08T02:00:00	2	Temperatura media	19.9
53062	7	Sololá	710	Panajachel	8	Panajachel	8	Agosto	2023-07-08T00:00:00	2024-11-08T02:00:00	4	Temperatura máxima	21.4
53063	7	Sololá	710	Panajachel	8	Panajachel	8	Agosto	2023-07-08T00:00:00	2024-11-08T02:00:00	3	Temperatura mínima	19.9
53064	7	Sololá	710	Panajachel	8	Panajachel	8	Agosto	2023-07-08T00:00:00	2024-11-08T02:00:00	5	Humedad	73
53065	7	Sololá	710	Panajachel	8	Panajachel	8	Agosto	2023-07-08T00:00:00	2024-11-08T02:00:00	6	Velocidad del viento	3.2
53066	7	Sololá	710	Panajachel	8	Panajachel	8	Agosto	2023-07-08T00:00:00	2024-11-08T02:00:00	7	Dirección del viento	3.22
53067	7	Sololá	710	Panajachel	8	Panajachel	8	Agosto	2023-07-08T00:00:00	2024-11-08T02:00:00	1	Precipitación	0
53068	7	Sololá	710	Panajachel	8	Panajachel	8	Agosto	2023-07-08T00:00:00	2024-11-08T02:00:00	8	Radiación solar	0
53069	7	Sololá	710	Panajachel	8	Panajachel	8	Agosto	2023-07-08T00:00:00	2024-11-08T03:00:00	2	Temperatura media	21.2
53070	7	Sololá	710	Panajachel	8	Panajachel	8	Agosto	2023-07-08T00:00:00	2024-11-08T03:00:00	4	Temperatura máxima	21.2
53071	7	Sololá	710	Panajachel	8	Panajachel	8	Agosto	2023-07-08T00:00:00	2024-11-08T03:00:00	3	Temperatura mínima	19.4
53072	7	Sololá	710	Panajachel	8	Panajachel	8	Agosto	2023-07-08T00:00:00	2024-11-08T03:00:00	5	Humedad	68
53073	7	Sololá	710	Panajachel	8	Panajachel	8	Agosto	2023-07-08T00:00:00	2024-11-08T03:00:00	6	Velocidad del viento	4.8
53074	7	Sololá	710	Panajachel	8	Panajachel	8	Agosto	2023-07-08T00:00:00	2024-11-08T03:00:00	7	Dirección del viento	4.83
53075	7	Sololá	710	Panajachel	8	Panajachel	8	Agosto	2023-07-08T00:00:00	2024-11-08T03:00:00	1	Precipitación	0
53076	7	Sololá	710	Panajachel	8	Panajachel	8	Agosto	2023-07-08T00:00:00	2024-11-08T03:00:00	8	Radiación solar	0
53077	7	Sololá	710	Panajachel	8	Panajachel	8	Agosto	2023-07-08T00:00:00	2024-11-08T04:00:00	2	Temperatura media	20.2
53078	7	Sololá	710	Panajachel	8	Panajachel	8	Agosto	2023-07-08T00:00:00	2024-11-08T04:00:00	4	Temperatura máxima	21.2
53079	7	Sololá	710	Panajachel	8	Panajachel	8	Agosto	2023-07-08T00:00:00	2024-11-08T04:00:00	3	Temperatura mínima	20.2
53080	7	Sololá	710	Panajachel	8	Panajachel	8	Agosto	2023-07-08T00:00:00	2024-11-08T04:00:00	5	Humedad	71
53081	7	Sololá	710	Panajachel	8	Panajachel	8	Agosto	2023-07-08T00:00:00	2024-11-08T04:00:00	6	Velocidad del viento	4.8
53082	7	Sololá	710	Panajachel	8	Panajachel	8	Agosto	2023-07-08T00:00:00	2024-11-08T04:00:00	7	Dirección del viento	4.83
53083	7	Sololá	710	Panajachel	8	Panajachel	8	Agosto	2023-07-08T00:00:00	2024-11-08T04:00:00	1	Precipitación	0
53084	7	Sololá	710	Panajachel	8	Panajachel	8	Agosto	2023-07-08T00:00:00	2024-11-08T04:00:00	8	Radiación solar	0
53085	7	Sololá	710	Panajachel	8	Panajachel	8	Agosto	2023-07-08T00:00:00	2024-11-08T05:00:00	2	Temperatura media	20.4
53086	7	Sololá	710	Panajachel	8	Panajachel	8	Agosto	2023-07-08T00:00:00	2024-11-08T05:00:00	4	Temperatura máxima	20.7
53087	7	Sololá	710	Panajachel	8	Panajachel	8	Agosto	2023-07-08T00:00:00	2024-11-08T05:00:00	3	Temperatura mínima	20.2
53088	7	Sololá	710	Panajachel	8	Panajachel	8	Agosto	2023-07-08T00:00:00	2024-11-08T05:00:00	5	Humedad	72
53089	7	Sololá	710	Panajachel	8	Panajachel	8	Agosto	2023-07-08T00:00:00	2024-11-08T05:00:00	6	Velocidad del viento	4.8
53090	7	Sololá	710	Panajachel	8	Panajachel	8	Agosto	2023-07-08T00:00:00	2024-11-08T05:00:00	7	Dirección del viento	4.83
53091	7	Sololá	710	Panajachel	8	Panajachel	8	Agosto	2023-07-08T00:00:00	2024-11-08T05:00:00	1	Precipitación	0
53092	7	Sololá	710	Panajachel	8	Panajachel	8	Agosto	2023-07-08T00:00:00	2024-11-08T05:00:00	8	Radiación solar	0
53093	7	Sololá	710	Panajachel	8	Panajachel	8	Agosto	2023-07-08T00:00:00	2024-11-08T06:00:00	2	Temperatura media	19.4
53094	7	Sololá	710	Panajachel	8	Panajachel	8	Agosto	2023-07-08T00:00:00	2024-11-08T06:00:00	4	Temperatura máxima	20.5
53095	7	Sololá	710	Panajachel	8	Panajachel	8	Agosto	2023-07-08T00:00:00	2024-11-08T06:00:00	3	Temperatura mínima	19
53096	7	Sololá	710	Panajachel	8	Panajachel	8	Agosto	2023-07-08T00:00:00	2024-11-08T06:00:00	5	Humedad	77
53097	7	Sololá	710	Panajachel	8	Panajachel	8	Agosto	2023-07-08T00:00:00	2024-11-08T06:00:00	6	Velocidad del viento	1.6
53098	7	Sololá	710	Panajachel	8	Panajachel	8	Agosto	2023-07-08T00:00:00	2024-11-08T06:00:00	7	Dirección del viento	1.61
53099	7	Sololá	710	Panajachel	8	Panajachel	8	Agosto	2023-07-08T00:00:00	2024-11-08T06:00:00	1	Precipitación	0
53100	7	Sololá	710	Panajachel	8	Panajachel	8	Agosto	2023-07-08T00:00:00	2024-11-08T06:00:00	8	Radiación solar	0
53101	7	Sololá	710	Panajachel	8	Panajachel	8	Agosto	2023-07-08T00:00:00	2024-11-08T07:00:00	2	Temperatura media	21.4
53102	7	Sololá	710	Panajachel	8	Panajachel	8	Agosto	2023-07-08T00:00:00	2024-11-08T07:00:00	4	Temperatura máxima	21.4
53103	7	Sololá	710	Panajachel	8	Panajachel	8	Agosto	2023-07-08T00:00:00	2024-11-08T07:00:00	3	Temperatura mínima	19.4
53104	7	Sololá	710	Panajachel	8	Panajachel	8	Agosto	2023-07-08T00:00:00	2024-11-08T07:00:00	5	Humedad	72
53105	7	Sololá	710	Panajachel	8	Panajachel	8	Agosto	2023-07-08T00:00:00	2024-11-08T07:00:00	6	Velocidad del viento	6.4
53106	7	Sololá	710	Panajachel	8	Panajachel	8	Agosto	2023-07-08T00:00:00	2024-11-08T07:00:00	7	Dirección del viento	6.44
53107	7	Sololá	710	Panajachel	8	Panajachel	8	Agosto	2023-07-08T00:00:00	2024-11-08T07:00:00	1	Precipitación	0
53108	7	Sololá	710	Panajachel	8	Panajachel	8	Agosto	2023-07-08T00:00:00	2024-11-08T07:00:00	8	Radiación solar	57
53109	7	Sololá	710	Panajachel	8	Panajachel	8	Agosto	2023-07-08T00:00:00	2024-11-08T08:00:00	2	Temperatura media	23.1
53110	7	Sololá	710	Panajachel	8	Panajachel	8	Agosto	2023-07-08T00:00:00	2024-11-08T08:00:00	4	Temperatura máxima	23.1
53111	7	Sololá	710	Panajachel	8	Panajachel	8	Agosto	2023-07-08T00:00:00	2024-11-08T08:00:00	3	Temperatura mínima	21.4
53112	7	Sololá	710	Panajachel	8	Panajachel	8	Agosto	2023-07-08T00:00:00	2024-11-08T08:00:00	5	Humedad	64
53113	7	Sololá	710	Panajachel	8	Panajachel	8	Agosto	2023-07-08T00:00:00	2024-11-08T08:00:00	6	Velocidad del viento	1.6
53114	7	Sololá	710	Panajachel	8	Panajachel	8	Agosto	2023-07-08T00:00:00	2024-11-08T08:00:00	7	Dirección del viento	1.61
53115	7	Sololá	710	Panajachel	8	Panajachel	8	Agosto	2023-07-08T00:00:00	2024-11-08T08:00:00	1	Precipitación	0
53116	7	Sololá	710	Panajachel	8	Panajachel	8	Agosto	2023-07-08T00:00:00	2024-11-08T08:00:00	8	Radiación solar	316
53117	7	Sololá	710	Panajachel	8	Panajachel	8	Agosto	2023-07-08T00:00:00	2024-11-08T09:00:00	2	Temperatura media	24.7
53118	7	Sololá	710	Panajachel	8	Panajachel	8	Agosto	2023-07-08T00:00:00	2024-11-08T09:00:00	4	Temperatura máxima	24.8
53119	7	Sololá	710	Panajachel	8	Panajachel	8	Agosto	2023-07-08T00:00:00	2024-11-08T09:00:00	3	Temperatura mínima	23.1
53120	7	Sololá	710	Panajachel	8	Panajachel	8	Agosto	2023-07-08T00:00:00	2024-11-08T09:00:00	5	Humedad	57
53121	7	Sololá	710	Panajachel	8	Panajachel	8	Agosto	2023-07-08T00:00:00	2024-11-08T09:00:00	6	Velocidad del viento	3.2
53122	7	Sololá	710	Panajachel	8	Panajachel	8	Agosto	2023-07-08T00:00:00	2024-11-08T09:00:00	7	Dirección del viento	3.22
53123	7	Sololá	710	Panajachel	8	Panajachel	8	Agosto	2023-07-08T00:00:00	2024-11-08T09:00:00	1	Precipitación	0
53124	7	Sololá	710	Panajachel	8	Panajachel	8	Agosto	2023-07-08T00:00:00	2024-11-08T09:00:00	8	Radiación solar	532
53125	7	Sololá	710	Panajachel	8	Panajachel	8	Agosto	2023-07-08T00:00:00	2024-11-08T10:00:00	2	Temperatura media	26.1
53126	7	Sololá	710	Panajachel	8	Panajachel	8	Agosto	2023-07-08T00:00:00	2024-11-08T10:00:00	4	Temperatura máxima	26.1
53127	7	Sololá	710	Panajachel	8	Panajachel	8	Agosto	2023-07-08T00:00:00	2024-11-08T10:00:00	3	Temperatura mínima	24.6
53128	7	Sololá	710	Panajachel	8	Panajachel	8	Agosto	2023-07-08T00:00:00	2024-11-08T10:00:00	5	Humedad	54
53129	7	Sololá	710	Panajachel	8	Panajachel	8	Agosto	2023-07-08T00:00:00	2024-11-08T10:00:00	6	Velocidad del viento	4.8
53130	7	Sololá	710	Panajachel	8	Panajachel	8	Agosto	2023-07-08T00:00:00	2024-11-08T10:00:00	7	Dirección del viento	4.83
53131	7	Sololá	710	Panajachel	8	Panajachel	8	Agosto	2023-07-08T00:00:00	2024-11-08T10:00:00	1	Precipitación	0
53132	7	Sololá	710	Panajachel	8	Panajachel	8	Agosto	2023-07-08T00:00:00	2024-11-08T10:00:00	8	Radiación solar	723
53133	7	Sololá	710	Panajachel	8	Panajachel	8	Agosto	2023-07-08T00:00:00	2024-11-08T11:00:00	2	Temperatura media	25.8
53134	7	Sololá	710	Panajachel	8	Panajachel	8	Agosto	2023-07-08T00:00:00	2024-11-08T11:00:00	4	Temperatura máxima	26.3
53135	7	Sololá	710	Panajachel	8	Panajachel	8	Agosto	2023-07-08T00:00:00	2024-11-08T11:00:00	3	Temperatura mínima	25.8
53136	7	Sololá	710	Panajachel	8	Panajachel	8	Agosto	2023-07-08T00:00:00	2024-11-08T11:00:00	5	Humedad	56
53137	7	Sololá	710	Panajachel	8	Panajachel	8	Agosto	2023-07-08T00:00:00	2024-11-08T11:00:00	6	Velocidad del viento	9.7
53138	7	Sololá	710	Panajachel	8	Panajachel	8	Agosto	2023-07-08T00:00:00	2024-11-08T11:00:00	7	Dirección del viento	9.66
53139	7	Sololá	710	Panajachel	8	Panajachel	8	Agosto	2023-07-08T00:00:00	2024-11-08T11:00:00	1	Precipitación	0
53140	7	Sololá	710	Panajachel	8	Panajachel	8	Agosto	2023-07-08T00:00:00	2024-11-08T11:00:00	8	Radiación solar	862
53141	7	Sololá	710	Panajachel	8	Panajachel	8	Agosto	2023-07-08T00:00:00	2024-11-08T12:00:00	2	Temperatura media	26.1
53142	7	Sololá	710	Panajachel	8	Panajachel	8	Agosto	2023-07-08T00:00:00	2024-11-08T12:00:00	4	Temperatura máxima	26.3
53143	7	Sololá	710	Panajachel	8	Panajachel	8	Agosto	2023-07-08T00:00:00	2024-11-08T12:00:00	3	Temperatura mínima	25.8
53144	7	Sololá	710	Panajachel	8	Panajachel	8	Agosto	2023-07-08T00:00:00	2024-11-08T12:00:00	5	Humedad	61
53145	7	Sololá	710	Panajachel	8	Panajachel	8	Agosto	2023-07-08T00:00:00	2024-11-08T12:00:00	6	Velocidad del viento	4.8
53146	7	Sololá	710	Panajachel	8	Panajachel	8	Agosto	2023-07-08T00:00:00	2024-11-08T12:00:00	7	Dirección del viento	4.83
53147	7	Sololá	710	Panajachel	8	Panajachel	8	Agosto	2023-07-08T00:00:00	2024-11-08T12:00:00	1	Precipitación	0
53148	7	Sololá	710	Panajachel	8	Panajachel	8	Agosto	2023-07-08T00:00:00	2024-11-08T12:00:00	8	Radiación solar	561
53149	7	Sololá	710	Panajachel	8	Panajachel	8	Agosto	2023-07-08T00:00:00	2024-11-08T13:00:00	2	Temperatura media	27
53150	7	Sololá	710	Panajachel	8	Panajachel	8	Agosto	2023-07-08T00:00:00	2024-11-08T13:00:00	4	Temperatura máxima	27.3
53151	7	Sololá	710	Panajachel	8	Panajachel	8	Agosto	2023-07-08T00:00:00	2024-11-08T13:00:00	3	Temperatura mínima	26
53152	7	Sololá	710	Panajachel	8	Panajachel	8	Agosto	2023-07-08T00:00:00	2024-11-08T13:00:00	5	Humedad	53
53153	7	Sololá	710	Panajachel	8	Panajachel	8	Agosto	2023-07-08T00:00:00	2024-11-08T13:00:00	6	Velocidad del viento	4.8
53154	7	Sololá	710	Panajachel	8	Panajachel	8	Agosto	2023-07-08T00:00:00	2024-11-08T13:00:00	7	Dirección del viento	4.83
53155	7	Sololá	710	Panajachel	8	Panajachel	8	Agosto	2023-07-08T00:00:00	2024-11-08T13:00:00	1	Precipitación	0
53156	7	Sololá	710	Panajachel	8	Panajachel	8	Agosto	2023-07-08T00:00:00	2024-11-08T13:00:00	8	Radiación solar	398
53157	7	Sololá	710	Panajachel	8	Panajachel	8	Agosto	2023-07-08T00:00:00	2024-11-08T14:00:00	2	Temperatura media	26.9
53158	7	Sololá	710	Panajachel	8	Panajachel	8	Agosto	2023-07-08T00:00:00	2024-11-08T14:00:00	4	Temperatura máxima	27.6
53159	7	Sololá	710	Panajachel	8	Panajachel	8	Agosto	2023-07-08T00:00:00	2024-11-08T14:00:00	3	Temperatura mínima	26.7
53160	7	Sololá	710	Panajachel	8	Panajachel	8	Agosto	2023-07-08T00:00:00	2024-11-08T14:00:00	5	Humedad	56
53161	7	Sololá	710	Panajachel	8	Panajachel	8	Agosto	2023-07-08T00:00:00	2024-11-08T14:00:00	6	Velocidad del viento	3.2
53162	7	Sololá	710	Panajachel	8	Panajachel	8	Agosto	2023-07-08T00:00:00	2024-11-08T14:00:00	7	Dirección del viento	3.22
53163	7	Sololá	710	Panajachel	8	Panajachel	8	Agosto	2023-07-08T00:00:00	2024-11-08T14:00:00	1	Precipitación	0
53164	7	Sololá	710	Panajachel	8	Panajachel	8	Agosto	2023-07-08T00:00:00	2024-11-08T14:00:00	8	Radiación solar	305
53165	7	Sololá	710	Panajachel	8	Panajachel	8	Agosto	2023-07-08T00:00:00	2024-11-08T15:00:00	2	Temperatura media	26.8
53166	7	Sololá	710	Panajachel	8	Panajachel	8	Agosto	2023-07-08T00:00:00	2024-11-08T15:00:00	4	Temperatura máxima	27.2
53167	7	Sololá	710	Panajachel	8	Panajachel	8	Agosto	2023-07-08T00:00:00	2024-11-08T15:00:00	3	Temperatura mínima	26
53168	7	Sololá	710	Panajachel	8	Panajachel	8	Agosto	2023-07-08T00:00:00	2024-11-08T15:00:00	5	Humedad	54
53169	7	Sololá	710	Panajachel	8	Panajachel	8	Agosto	2023-07-08T00:00:00	2024-11-08T15:00:00	6	Velocidad del viento	3.2
53170	7	Sololá	710	Panajachel	8	Panajachel	8	Agosto	2023-07-08T00:00:00	2024-11-08T15:00:00	7	Dirección del viento	3.22
53171	7	Sololá	710	Panajachel	8	Panajachel	8	Agosto	2023-07-08T00:00:00	2024-11-08T15:00:00	1	Precipitación	0
53172	7	Sololá	710	Panajachel	8	Panajachel	8	Agosto	2023-07-08T00:00:00	2024-11-08T15:00:00	8	Radiación solar	247
53173	7	Sololá	710	Panajachel	8	Panajachel	8	Agosto	2023-07-08T00:00:00	2024-11-08T16:00:00	2	Temperatura media	26.6
53174	7	Sololá	710	Panajachel	8	Panajachel	8	Agosto	2023-07-08T00:00:00	2024-11-08T16:00:00	4	Temperatura máxima	27.9
53175	7	Sololá	710	Panajachel	8	Panajachel	8	Agosto	2023-07-08T00:00:00	2024-11-08T16:00:00	3	Temperatura mínima	26.6
53176	7	Sololá	710	Panajachel	8	Panajachel	8	Agosto	2023-07-08T00:00:00	2024-11-08T16:00:00	5	Humedad	68
53177	7	Sololá	710	Panajachel	8	Panajachel	8	Agosto	2023-07-08T00:00:00	2024-11-08T16:00:00	6	Velocidad del viento	3.2
53178	7	Sololá	710	Panajachel	8	Panajachel	8	Agosto	2023-07-08T00:00:00	2024-11-08T16:00:00	7	Dirección del viento	3.22
53179	7	Sololá	710	Panajachel	8	Panajachel	8	Agosto	2023-07-08T00:00:00	2024-11-08T16:00:00	1	Precipitación	0
53180	7	Sololá	710	Panajachel	8	Panajachel	8	Agosto	2023-07-08T00:00:00	2024-11-08T16:00:00	8	Radiación solar	352
53181	7	Sololá	710	Panajachel	8	Panajachel	8	Agosto	2023-07-08T00:00:00	2024-11-08T17:00:00	2	Temperatura media	24.9
53182	7	Sololá	710	Panajachel	8	Panajachel	8	Agosto	2023-07-08T00:00:00	2024-11-08T17:00:00	4	Temperatura máxima	26.6
53183	7	Sololá	710	Panajachel	8	Panajachel	8	Agosto	2023-07-08T00:00:00	2024-11-08T17:00:00	3	Temperatura mínima	24.9
53184	7	Sololá	710	Panajachel	8	Panajachel	8	Agosto	2023-07-08T00:00:00	2024-11-08T17:00:00	5	Humedad	71
53185	7	Sololá	710	Panajachel	8	Panajachel	8	Agosto	2023-07-08T00:00:00	2024-11-08T17:00:00	6	Velocidad del viento	3.2
53186	7	Sololá	710	Panajachel	8	Panajachel	8	Agosto	2023-07-08T00:00:00	2024-11-08T17:00:00	7	Dirección del viento	3.22
53187	7	Sololá	710	Panajachel	8	Panajachel	8	Agosto	2023-07-08T00:00:00	2024-11-08T17:00:00	1	Precipitación	0
53188	7	Sololá	710	Panajachel	8	Panajachel	8	Agosto	2023-07-08T00:00:00	2024-11-08T17:00:00	8	Radiación solar	126
53189	7	Sololá	710	Panajachel	8	Panajachel	8	Agosto	2023-07-08T00:00:00	2024-11-08T18:00:00	2	Temperatura media	23.8
53190	7	Sololá	710	Panajachel	8	Panajachel	8	Agosto	2023-07-08T00:00:00	2024-11-08T18:00:00	4	Temperatura máxima	24.9
53191	7	Sololá	710	Panajachel	8	Panajachel	8	Agosto	2023-07-08T00:00:00	2024-11-08T18:00:00	3	Temperatura mínima	23.8
53192	7	Sololá	710	Panajachel	8	Panajachel	8	Agosto	2023-07-08T00:00:00	2024-11-08T18:00:00	5	Humedad	77
53193	7	Sololá	710	Panajachel	8	Panajachel	8	Agosto	2023-07-08T00:00:00	2024-11-08T18:00:00	6	Velocidad del viento	6.4
53194	7	Sololá	710	Panajachel	8	Panajachel	8	Agosto	2023-07-08T00:00:00	2024-11-08T18:00:00	7	Dirección del viento	6.44
53195	7	Sololá	710	Panajachel	8	Panajachel	8	Agosto	2023-07-08T00:00:00	2024-11-08T18:00:00	1	Precipitación	0
53196	7	Sololá	710	Panajachel	8	Panajachel	8	Agosto	2023-07-08T00:00:00	2024-11-08T18:00:00	8	Radiación solar	74
53197	7	Sololá	710	Panajachel	8	Panajachel	8	Agosto	2023-07-08T00:00:00	2024-11-08T19:00:00	2	Temperatura media	22.6
53198	7	Sololá	710	Panajachel	8	Panajachel	8	Agosto	2023-07-08T00:00:00	2024-11-08T19:00:00	4	Temperatura máxima	23.8
53199	7	Sololá	710	Panajachel	8	Panajachel	8	Agosto	2023-07-08T00:00:00	2024-11-08T19:00:00	3	Temperatura mínima	22.6
53200	7	Sololá	710	Panajachel	8	Panajachel	8	Agosto	2023-07-08T00:00:00	2024-11-08T19:00:00	5	Humedad	82
53201	7	Sololá	710	Panajachel	8	Panajachel	8	Agosto	2023-07-08T00:00:00	2024-11-08T19:00:00	6	Velocidad del viento	1.6
53202	7	Sololá	710	Panajachel	8	Panajachel	8	Agosto	2023-07-08T00:00:00	2024-11-08T19:00:00	7	Dirección del viento	1.61
53203	7	Sololá	710	Panajachel	8	Panajachel	8	Agosto	2023-07-08T00:00:00	2024-11-08T19:00:00	1	Precipitación	0
53204	7	Sololá	710	Panajachel	8	Panajachel	8	Agosto	2023-07-08T00:00:00	2024-11-08T19:00:00	8	Radiación solar	0
53205	7	Sololá	710	Panajachel	8	Panajachel	8	Agosto	2023-07-08T00:00:00	2024-11-08T20:00:00	2	Temperatura media	21.2
53206	7	Sololá	710	Panajachel	8	Panajachel	8	Agosto	2023-07-08T00:00:00	2024-11-08T20:00:00	4	Temperatura máxima	22.6
53207	7	Sololá	710	Panajachel	8	Panajachel	8	Agosto	2023-07-08T00:00:00	2024-11-08T20:00:00	3	Temperatura mínima	21.2
53208	7	Sololá	710	Panajachel	8	Panajachel	8	Agosto	2023-07-08T00:00:00	2024-11-08T20:00:00	5	Humedad	78
53209	7	Sololá	710	Panajachel	8	Panajachel	8	Agosto	2023-07-08T00:00:00	2024-11-08T20:00:00	6	Velocidad del viento	1.6
53210	7	Sololá	710	Panajachel	8	Panajachel	8	Agosto	2023-07-08T00:00:00	2024-11-08T20:00:00	7	Dirección del viento	1.61
53211	7	Sololá	710	Panajachel	8	Panajachel	8	Agosto	2023-07-08T00:00:00	2024-11-08T20:00:00	1	Precipitación	0
53212	7	Sololá	710	Panajachel	8	Panajachel	8	Agosto	2023-07-08T00:00:00	2024-11-08T20:00:00	8	Radiación solar	0
53213	7	Sololá	710	Panajachel	8	Panajachel	8	Agosto	2023-07-08T00:00:00	2024-11-08T21:00:00	2	Temperatura media	20.8
53214	7	Sololá	710	Panajachel	8	Panajachel	8	Agosto	2023-07-08T00:00:00	2024-11-08T21:00:00	4	Temperatura máxima	21.4
53215	7	Sololá	710	Panajachel	8	Panajachel	8	Agosto	2023-07-08T00:00:00	2024-11-08T21:00:00	3	Temperatura mínima	20.8
53216	7	Sololá	710	Panajachel	8	Panajachel	8	Agosto	2023-07-08T00:00:00	2024-11-08T21:00:00	5	Humedad	79
53217	7	Sololá	710	Panajachel	8	Panajachel	8	Agosto	2023-07-08T00:00:00	2024-11-08T21:00:00	6	Velocidad del viento	1.6
53218	7	Sololá	710	Panajachel	8	Panajachel	8	Agosto	2023-07-08T00:00:00	2024-11-08T21:00:00	7	Dirección del viento	1.61
53219	7	Sololá	710	Panajachel	8	Panajachel	8	Agosto	2023-07-08T00:00:00	2024-11-08T21:00:00	1	Precipitación	0
53220	7	Sololá	710	Panajachel	8	Panajachel	8	Agosto	2023-07-08T00:00:00	2024-11-08T21:00:00	8	Radiación solar	0
53221	7	Sololá	710	Panajachel	8	Panajachel	8	Agosto	2023-07-08T00:00:00	2024-11-08T22:00:00	2	Temperatura media	22.4
53222	7	Sololá	710	Panajachel	8	Panajachel	8	Agosto	2023-07-08T00:00:00	2024-11-08T22:00:00	4	Temperatura máxima	22.5
53223	7	Sololá	710	Panajachel	8	Panajachel	8	Agosto	2023-07-08T00:00:00	2024-11-08T22:00:00	3	Temperatura mínima	20.5
53224	7	Sololá	710	Panajachel	8	Panajachel	8	Agosto	2023-07-08T00:00:00	2024-11-08T22:00:00	5	Humedad	71
53225	7	Sololá	710	Panajachel	8	Panajachel	8	Agosto	2023-07-08T00:00:00	2024-11-08T22:00:00	6	Velocidad del viento	3.2
53226	7	Sololá	710	Panajachel	8	Panajachel	8	Agosto	2023-07-08T00:00:00	2024-11-08T22:00:00	7	Dirección del viento	3.22
53227	7	Sololá	710	Panajachel	8	Panajachel	8	Agosto	2023-07-08T00:00:00	2024-11-08T22:00:00	1	Precipitación	0
53228	7	Sololá	710	Panajachel	8	Panajachel	8	Agosto	2023-07-08T00:00:00	2024-11-08T22:00:00	8	Radiación solar	0
53229	7	Sololá	710	Panajachel	8	Panajachel	8	Agosto	2023-07-08T00:00:00	2024-11-08T23:00:00	2	Temperatura media	20.7
53230	7	Sololá	710	Panajachel	8	Panajachel	8	Agosto	2023-07-08T00:00:00	2024-11-08T23:00:00	4	Temperatura máxima	22.6
53231	7	Sololá	710	Panajachel	8	Panajachel	8	Agosto	2023-07-08T00:00:00	2024-11-08T23:00:00	3	Temperatura mínima	20.6
53232	7	Sololá	710	Panajachel	8	Panajachel	8	Agosto	2023-07-08T00:00:00	2024-11-08T23:00:00	5	Humedad	78
53233	7	Sololá	710	Panajachel	8	Panajachel	8	Agosto	2023-07-08T00:00:00	2024-11-08T23:00:00	6	Velocidad del viento	3.2
53234	7	Sololá	710	Panajachel	8	Panajachel	8	Agosto	2023-07-08T00:00:00	2024-11-08T23:00:00	7	Dirección del viento	3.22
53235	7	Sololá	710	Panajachel	8	Panajachel	8	Agosto	2023-07-08T00:00:00	2024-11-08T23:00:00	1	Precipitación	0
53236	7	Sololá	710	Panajachel	8	Panajachel	8	Agosto	2023-07-08T00:00:00	2024-11-08T23:00:00	8	Radiación solar	0
53237	7	Sololá	710	Panajachel	8	Panajachel	8	Agosto	2023-08-08T00:00:00	2024-11-08T00:00:00	2	Temperatura media	19.9
53238	7	Sololá	710	Panajachel	8	Panajachel	8	Agosto	2023-08-08T00:00:00	2024-11-08T00:00:00	4	Temperatura máxima	20.7
53239	7	Sololá	710	Panajachel	8	Panajachel	8	Agosto	2023-08-08T00:00:00	2024-11-08T00:00:00	3	Temperatura mínima	19.8
53240	7	Sololá	710	Panajachel	8	Panajachel	8	Agosto	2023-08-08T00:00:00	2024-11-08T00:00:00	5	Humedad	79
53241	7	Sololá	710	Panajachel	8	Panajachel	8	Agosto	2023-08-08T00:00:00	2024-11-08T00:00:00	6	Velocidad del viento	1.6
53242	7	Sololá	710	Panajachel	8	Panajachel	8	Agosto	2023-08-08T00:00:00	2024-11-08T00:00:00	7	Dirección del viento	1.61
53243	7	Sololá	710	Panajachel	8	Panajachel	8	Agosto	2023-08-08T00:00:00	2024-11-08T00:00:00	1	Precipitación	0
53244	7	Sololá	710	Panajachel	8	Panajachel	8	Agosto	2023-08-08T00:00:00	2024-11-08T00:00:00	8	Radiación solar	0
53245	7	Sololá	710	Panajachel	8	Panajachel	8	Agosto	2023-08-08T00:00:00	2024-11-08T01:00:00	2	Temperatura media	22.1
53246	7	Sololá	710	Panajachel	8	Panajachel	8	Agosto	2023-08-08T00:00:00	2024-11-08T01:00:00	4	Temperatura máxima	22.2
53247	7	Sololá	710	Panajachel	8	Panajachel	8	Agosto	2023-08-08T00:00:00	2024-11-08T01:00:00	3	Temperatura mínima	19.9
53248	7	Sololá	710	Panajachel	8	Panajachel	8	Agosto	2023-08-08T00:00:00	2024-11-08T01:00:00	5	Humedad	70
53249	7	Sololá	710	Panajachel	8	Panajachel	8	Agosto	2023-08-08T00:00:00	2024-11-08T01:00:00	6	Velocidad del viento	8
53250	7	Sololá	710	Panajachel	8	Panajachel	8	Agosto	2023-08-08T00:00:00	2024-11-08T01:00:00	7	Dirección del viento	8.05
53251	7	Sololá	710	Panajachel	8	Panajachel	8	Agosto	2023-08-08T00:00:00	2024-11-08T01:00:00	1	Precipitación	0
53252	7	Sololá	710	Panajachel	8	Panajachel	8	Agosto	2023-08-08T00:00:00	2024-11-08T01:00:00	8	Radiación solar	0
53253	7	Sololá	710	Panajachel	8	Panajachel	8	Agosto	2023-08-08T00:00:00	2024-11-08T02:00:00	2	Temperatura media	21.3
53254	7	Sololá	710	Panajachel	8	Panajachel	8	Agosto	2023-08-08T00:00:00	2024-11-08T02:00:00	4	Temperatura máxima	22.1
53255	7	Sololá	710	Panajachel	8	Panajachel	8	Agosto	2023-08-08T00:00:00	2024-11-08T02:00:00	3	Temperatura mínima	21.2
53256	7	Sololá	710	Panajachel	8	Panajachel	8	Agosto	2023-08-08T00:00:00	2024-11-08T02:00:00	5	Humedad	73
53257	7	Sololá	710	Panajachel	8	Panajachel	8	Agosto	2023-08-08T00:00:00	2024-11-08T02:00:00	6	Velocidad del viento	6.4
53258	7	Sololá	710	Panajachel	8	Panajachel	8	Agosto	2023-08-08T00:00:00	2024-11-08T02:00:00	7	Dirección del viento	6.44
53259	7	Sololá	710	Panajachel	8	Panajachel	8	Agosto	2023-08-08T00:00:00	2024-11-08T02:00:00	1	Precipitación	0
53260	7	Sololá	710	Panajachel	8	Panajachel	8	Agosto	2023-08-08T00:00:00	2024-11-08T02:00:00	8	Radiación solar	0
53261	7	Sololá	710	Panajachel	8	Panajachel	8	Agosto	2023-08-08T00:00:00	2024-11-08T03:00:00	2	Temperatura media	21.6
53262	7	Sololá	710	Panajachel	8	Panajachel	8	Agosto	2023-08-08T00:00:00	2024-11-08T03:00:00	4	Temperatura máxima	21.7
53263	7	Sololá	710	Panajachel	8	Panajachel	8	Agosto	2023-08-08T00:00:00	2024-11-08T03:00:00	3	Temperatura mínima	21.2
53264	7	Sololá	710	Panajachel	8	Panajachel	8	Agosto	2023-08-08T00:00:00	2024-11-08T03:00:00	5	Humedad	72
53265	7	Sololá	710	Panajachel	8	Panajachel	8	Agosto	2023-08-08T00:00:00	2024-11-08T03:00:00	6	Velocidad del viento	4.8
53266	7	Sololá	710	Panajachel	8	Panajachel	8	Agosto	2023-08-08T00:00:00	2024-11-08T03:00:00	7	Dirección del viento	4.83
53267	7	Sololá	710	Panajachel	8	Panajachel	8	Agosto	2023-08-08T00:00:00	2024-11-08T03:00:00	1	Precipitación	0
53268	7	Sololá	710	Panajachel	8	Panajachel	8	Agosto	2023-08-08T00:00:00	2024-11-08T03:00:00	8	Radiación solar	0
53269	7	Sololá	710	Panajachel	8	Panajachel	8	Agosto	2023-08-08T00:00:00	2024-11-08T04:00:00	2	Temperatura media	21.5
53270	7	Sololá	710	Panajachel	8	Panajachel	8	Agosto	2023-08-08T00:00:00	2024-11-08T04:00:00	4	Temperatura máxima	21.7
53271	7	Sololá	710	Panajachel	8	Panajachel	8	Agosto	2023-08-08T00:00:00	2024-11-08T04:00:00	3	Temperatura mínima	21.3
53272	7	Sololá	710	Panajachel	8	Panajachel	8	Agosto	2023-08-08T00:00:00	2024-11-08T04:00:00	5	Humedad	71
53273	7	Sololá	710	Panajachel	8	Panajachel	8	Agosto	2023-08-08T00:00:00	2024-11-08T04:00:00	6	Velocidad del viento	4.8
53274	7	Sololá	710	Panajachel	8	Panajachel	8	Agosto	2023-08-08T00:00:00	2024-11-08T04:00:00	7	Dirección del viento	4.83
53275	7	Sololá	710	Panajachel	8	Panajachel	8	Agosto	2023-08-08T00:00:00	2024-11-08T04:00:00	1	Precipitación	0
53276	7	Sololá	710	Panajachel	8	Panajachel	8	Agosto	2023-08-08T00:00:00	2024-11-08T04:00:00	8	Radiación solar	0
53277	7	Sololá	710	Panajachel	8	Panajachel	8	Agosto	2023-08-08T00:00:00	2024-11-08T05:00:00	2	Temperatura media	19.6
53278	7	Sololá	710	Panajachel	8	Panajachel	8	Agosto	2023-08-08T00:00:00	2024-11-08T05:00:00	4	Temperatura máxima	21.6
53279	7	Sololá	710	Panajachel	8	Panajachel	8	Agosto	2023-08-08T00:00:00	2024-11-08T05:00:00	3	Temperatura mínima	19.6
53280	7	Sololá	710	Panajachel	8	Panajachel	8	Agosto	2023-08-08T00:00:00	2024-11-08T05:00:00	5	Humedad	80
53281	7	Sololá	710	Panajachel	8	Panajachel	8	Agosto	2023-08-08T00:00:00	2024-11-08T05:00:00	6	Velocidad del viento	1.6
53282	7	Sololá	710	Panajachel	8	Panajachel	8	Agosto	2023-08-08T00:00:00	2024-11-08T05:00:00	7	Dirección del viento	1.61
53283	7	Sololá	710	Panajachel	8	Panajachel	8	Agosto	2023-08-08T00:00:00	2024-11-08T05:00:00	1	Precipitación	0
53284	7	Sololá	710	Panajachel	8	Panajachel	8	Agosto	2023-08-08T00:00:00	2024-11-08T05:00:00	8	Radiación solar	0
53285	7	Sololá	710	Panajachel	8	Panajachel	8	Agosto	2023-08-08T00:00:00	2024-11-08T06:00:00	2	Temperatura media	18.4
53286	7	Sololá	710	Panajachel	8	Panajachel	8	Agosto	2023-08-08T00:00:00	2024-11-08T06:00:00	4	Temperatura máxima	19.6
53287	7	Sololá	710	Panajachel	8	Panajachel	8	Agosto	2023-08-08T00:00:00	2024-11-08T06:00:00	3	Temperatura mínima	18.4
53288	7	Sololá	710	Panajachel	8	Panajachel	8	Agosto	2023-08-08T00:00:00	2024-11-08T06:00:00	5	Humedad	83
53289	7	Sololá	710	Panajachel	8	Panajachel	8	Agosto	2023-08-08T00:00:00	2024-11-08T06:00:00	6	Velocidad del viento	0
53290	7	Sololá	710	Panajachel	8	Panajachel	8	Agosto	2023-08-08T00:00:00	2024-11-08T06:00:00	7	Dirección del viento	0
53291	7	Sololá	710	Panajachel	8	Panajachel	8	Agosto	2023-08-08T00:00:00	2024-11-08T06:00:00	1	Precipitación	0
53292	7	Sololá	710	Panajachel	8	Panajachel	8	Agosto	2023-08-08T00:00:00	2024-11-08T06:00:00	8	Radiación solar	0
53293	7	Sololá	710	Panajachel	8	Panajachel	8	Agosto	2023-08-08T00:00:00	2024-11-08T07:00:00	2	Temperatura media	21.9
53294	7	Sololá	710	Panajachel	8	Panajachel	8	Agosto	2023-08-08T00:00:00	2024-11-08T07:00:00	4	Temperatura máxima	21.9
53295	7	Sololá	710	Panajachel	8	Panajachel	8	Agosto	2023-08-08T00:00:00	2024-11-08T07:00:00	3	Temperatura mínima	18.3
53296	7	Sololá	710	Panajachel	8	Panajachel	8	Agosto	2023-08-08T00:00:00	2024-11-08T07:00:00	5	Humedad	71
53297	7	Sololá	710	Panajachel	8	Panajachel	8	Agosto	2023-08-08T00:00:00	2024-11-08T07:00:00	6	Velocidad del viento	3.2
53298	7	Sololá	710	Panajachel	8	Panajachel	8	Agosto	2023-08-08T00:00:00	2024-11-08T07:00:00	7	Dirección del viento	3.22
53299	7	Sololá	710	Panajachel	8	Panajachel	8	Agosto	2023-08-08T00:00:00	2024-11-08T07:00:00	1	Precipitación	0
53300	7	Sololá	710	Panajachel	8	Panajachel	8	Agosto	2023-08-08T00:00:00	2024-11-08T07:00:00	8	Radiación solar	68
53301	7	Sololá	710	Panajachel	8	Panajachel	8	Agosto	2023-08-08T00:00:00	2024-11-08T08:00:00	2	Temperatura media	24.3
53302	7	Sololá	710	Panajachel	8	Panajachel	8	Agosto	2023-08-08T00:00:00	2024-11-08T08:00:00	4	Temperatura máxima	24.3
53303	7	Sololá	710	Panajachel	8	Panajachel	8	Agosto	2023-08-08T00:00:00	2024-11-08T08:00:00	3	Temperatura mínima	21.9
53304	7	Sololá	710	Panajachel	8	Panajachel	8	Agosto	2023-08-08T00:00:00	2024-11-08T08:00:00	5	Humedad	63
53305	7	Sololá	710	Panajachel	8	Panajachel	8	Agosto	2023-08-08T00:00:00	2024-11-08T08:00:00	6	Velocidad del viento	3.2
53306	7	Sololá	710	Panajachel	8	Panajachel	8	Agosto	2023-08-08T00:00:00	2024-11-08T08:00:00	7	Dirección del viento	3.22
53307	7	Sololá	710	Panajachel	8	Panajachel	8	Agosto	2023-08-08T00:00:00	2024-11-08T08:00:00	1	Precipitación	0
53308	7	Sololá	710	Panajachel	8	Panajachel	8	Agosto	2023-08-08T00:00:00	2024-11-08T08:00:00	8	Radiación solar	395
53309	7	Sololá	710	Panajachel	8	Panajachel	8	Agosto	2023-08-08T00:00:00	2024-11-08T09:00:00	2	Temperatura media	25.3
53310	7	Sololá	710	Panajachel	8	Panajachel	8	Agosto	2023-08-08T00:00:00	2024-11-08T09:00:00	4	Temperatura máxima	25.7
53311	7	Sololá	710	Panajachel	8	Panajachel	8	Agosto	2023-08-08T00:00:00	2024-11-08T09:00:00	3	Temperatura mínima	24.3
53312	7	Sololá	710	Panajachel	8	Panajachel	8	Agosto	2023-08-08T00:00:00	2024-11-08T09:00:00	5	Humedad	60
53313	7	Sololá	710	Panajachel	8	Panajachel	8	Agosto	2023-08-08T00:00:00	2024-11-08T09:00:00	6	Velocidad del viento	4.8
53314	7	Sololá	710	Panajachel	8	Panajachel	8	Agosto	2023-08-08T00:00:00	2024-11-08T09:00:00	7	Dirección del viento	4.83
53315	7	Sololá	710	Panajachel	8	Panajachel	8	Agosto	2023-08-08T00:00:00	2024-11-08T09:00:00	1	Precipitación	0
53316	7	Sololá	710	Panajachel	8	Panajachel	8	Agosto	2023-08-08T00:00:00	2024-11-08T09:00:00	8	Radiación solar	634
53317	7	Sololá	710	Panajachel	8	Panajachel	8	Agosto	2023-08-08T00:00:00	2024-11-08T10:00:00	2	Temperatura media	25.2
53318	7	Sololá	710	Panajachel	8	Panajachel	8	Agosto	2023-08-08T00:00:00	2024-11-08T10:00:00	4	Temperatura máxima	25.9
53319	7	Sololá	710	Panajachel	8	Panajachel	8	Agosto	2023-08-08T00:00:00	2024-11-08T10:00:00	3	Temperatura mínima	24.8
53320	7	Sololá	710	Panajachel	8	Panajachel	8	Agosto	2023-08-08T00:00:00	2024-11-08T10:00:00	5	Humedad	60
53321	7	Sololá	710	Panajachel	8	Panajachel	8	Agosto	2023-08-08T00:00:00	2024-11-08T10:00:00	6	Velocidad del viento	8
53322	7	Sololá	710	Panajachel	8	Panajachel	8	Agosto	2023-08-08T00:00:00	2024-11-08T10:00:00	7	Dirección del viento	8.05
53323	7	Sololá	710	Panajachel	8	Panajachel	8	Agosto	2023-08-08T00:00:00	2024-11-08T10:00:00	1	Precipitación	0
53324	7	Sololá	710	Panajachel	8	Panajachel	8	Agosto	2023-08-08T00:00:00	2024-11-08T10:00:00	8	Radiación solar	568
53325	7	Sololá	710	Panajachel	8	Panajachel	8	Agosto	2023-08-08T00:00:00	2024-11-08T11:00:00	2	Temperatura media	26.3
53326	7	Sololá	710	Panajachel	8	Panajachel	8	Agosto	2023-08-08T00:00:00	2024-11-08T11:00:00	4	Temperatura máxima	26.6
53327	7	Sololá	710	Panajachel	8	Panajachel	8	Agosto	2023-08-08T00:00:00	2024-11-08T11:00:00	3	Temperatura mínima	25.2
53328	7	Sololá	710	Panajachel	8	Panajachel	8	Agosto	2023-08-08T00:00:00	2024-11-08T11:00:00	5	Humedad	57
53329	7	Sololá	710	Panajachel	8	Panajachel	8	Agosto	2023-08-08T00:00:00	2024-11-08T11:00:00	6	Velocidad del viento	9.7
53330	7	Sololá	710	Panajachel	8	Panajachel	8	Agosto	2023-08-08T00:00:00	2024-11-08T11:00:00	7	Dirección del viento	9.66
53331	7	Sololá	710	Panajachel	8	Panajachel	8	Agosto	2023-08-08T00:00:00	2024-11-08T11:00:00	1	Precipitación	0
53332	7	Sololá	710	Panajachel	8	Panajachel	8	Agosto	2023-08-08T00:00:00	2024-11-08T11:00:00	8	Radiación solar	730
53333	7	Sololá	710	Panajachel	8	Panajachel	8	Agosto	2023-08-08T00:00:00	2024-11-08T12:00:00	2	Temperatura media	26.6
53334	7	Sololá	710	Panajachel	8	Panajachel	8	Agosto	2023-08-08T00:00:00	2024-11-08T12:00:00	4	Temperatura máxima	26.9
53335	7	Sololá	710	Panajachel	8	Panajachel	8	Agosto	2023-08-08T00:00:00	2024-11-08T12:00:00	3	Temperatura mínima	26.1
53336	7	Sololá	710	Panajachel	8	Panajachel	8	Agosto	2023-08-08T00:00:00	2024-11-08T12:00:00	5	Humedad	55
53337	7	Sololá	710	Panajachel	8	Panajachel	8	Agosto	2023-08-08T00:00:00	2024-11-08T12:00:00	6	Velocidad del viento	8
53338	7	Sololá	710	Panajachel	8	Panajachel	8	Agosto	2023-08-08T00:00:00	2024-11-08T12:00:00	7	Dirección del viento	8.05
53339	7	Sololá	710	Panajachel	8	Panajachel	8	Agosto	2023-08-08T00:00:00	2024-11-08T12:00:00	1	Precipitación	0
53340	7	Sololá	710	Panajachel	8	Panajachel	8	Agosto	2023-08-08T00:00:00	2024-11-08T12:00:00	8	Radiación solar	291
53341	7	Sololá	710	Panajachel	8	Panajachel	8	Agosto	2023-08-08T00:00:00	2024-11-08T13:00:00	2	Temperatura media	26.8
53342	7	Sololá	710	Panajachel	8	Panajachel	8	Agosto	2023-08-08T00:00:00	2024-11-08T13:00:00	4	Temperatura máxima	27.8
53343	7	Sololá	710	Panajachel	8	Panajachel	8	Agosto	2023-08-08T00:00:00	2024-11-08T13:00:00	3	Temperatura mínima	26.6
53344	7	Sololá	710	Panajachel	8	Panajachel	8	Agosto	2023-08-08T00:00:00	2024-11-08T13:00:00	5	Humedad	54
53345	7	Sololá	710	Panajachel	8	Panajachel	8	Agosto	2023-08-08T00:00:00	2024-11-08T13:00:00	6	Velocidad del viento	4.8
53346	7	Sololá	710	Panajachel	8	Panajachel	8	Agosto	2023-08-08T00:00:00	2024-11-08T13:00:00	7	Dirección del viento	4.83
53347	7	Sololá	710	Panajachel	8	Panajachel	8	Agosto	2023-08-08T00:00:00	2024-11-08T13:00:00	1	Precipitación	0
53348	7	Sololá	710	Panajachel	8	Panajachel	8	Agosto	2023-08-08T00:00:00	2024-11-08T13:00:00	8	Radiación solar	402
53349	7	Sololá	710	Panajachel	8	Panajachel	8	Agosto	2023-08-08T00:00:00	2024-11-08T14:00:00	2	Temperatura media	24.9
53350	7	Sololá	710	Panajachel	8	Panajachel	8	Agosto	2023-08-08T00:00:00	2024-11-08T14:00:00	4	Temperatura máxima	26.9
53351	7	Sololá	710	Panajachel	8	Panajachel	8	Agosto	2023-08-08T00:00:00	2024-11-08T14:00:00	3	Temperatura mínima	24.9
53352	7	Sololá	710	Panajachel	8	Panajachel	8	Agosto	2023-08-08T00:00:00	2024-11-08T14:00:00	5	Humedad	75
53353	7	Sololá	710	Panajachel	8	Panajachel	8	Agosto	2023-08-08T00:00:00	2024-11-08T14:00:00	6	Velocidad del viento	4.8
53354	7	Sololá	710	Panajachel	8	Panajachel	8	Agosto	2023-08-08T00:00:00	2024-11-08T14:00:00	7	Dirección del viento	4.83
53355	7	Sololá	710	Panajachel	8	Panajachel	8	Agosto	2023-08-08T00:00:00	2024-11-08T14:00:00	1	Precipitación	0
53356	7	Sololá	710	Panajachel	8	Panajachel	8	Agosto	2023-08-08T00:00:00	2024-11-08T14:00:00	8	Radiación solar	360
53357	7	Sololá	710	Panajachel	8	Panajachel	8	Agosto	2023-08-08T00:00:00	2024-11-08T15:00:00	2	Temperatura media	25.3
53358	7	Sololá	710	Panajachel	8	Panajachel	8	Agosto	2023-08-08T00:00:00	2024-11-08T15:00:00	4	Temperatura máxima	26.1
53359	7	Sololá	710	Panajachel	8	Panajachel	8	Agosto	2023-08-08T00:00:00	2024-11-08T15:00:00	3	Temperatura mínima	23.5
53360	7	Sololá	710	Panajachel	8	Panajachel	8	Agosto	2023-08-08T00:00:00	2024-11-08T15:00:00	5	Humedad	73
53361	7	Sololá	710	Panajachel	8	Panajachel	8	Agosto	2023-08-08T00:00:00	2024-11-08T15:00:00	6	Velocidad del viento	6.4
53362	7	Sololá	710	Panajachel	8	Panajachel	8	Agosto	2023-08-08T00:00:00	2024-11-08T15:00:00	7	Dirección del viento	6.44
53363	7	Sololá	710	Panajachel	8	Panajachel	8	Agosto	2023-08-08T00:00:00	2024-11-08T15:00:00	1	Precipitación	0
53364	7	Sololá	710	Panajachel	8	Panajachel	8	Agosto	2023-08-08T00:00:00	2024-11-08T15:00:00	8	Radiación solar	624
53365	7	Sololá	710	Panajachel	8	Panajachel	8	Agosto	2023-08-08T00:00:00	2024-11-08T16:00:00	2	Temperatura media	25
53366	7	Sololá	710	Panajachel	8	Panajachel	8	Agosto	2023-08-08T00:00:00	2024-11-08T16:00:00	4	Temperatura máxima	25.5
53367	7	Sololá	710	Panajachel	8	Panajachel	8	Agosto	2023-08-08T00:00:00	2024-11-08T16:00:00	3	Temperatura mínima	24.9
53368	7	Sololá	710	Panajachel	8	Panajachel	8	Agosto	2023-08-08T00:00:00	2024-11-08T16:00:00	5	Humedad	75
53369	7	Sololá	710	Panajachel	8	Panajachel	8	Agosto	2023-08-08T00:00:00	2024-11-08T16:00:00	6	Velocidad del viento	4.8
53370	7	Sololá	710	Panajachel	8	Panajachel	8	Agosto	2023-08-08T00:00:00	2024-11-08T16:00:00	7	Dirección del viento	4.83
53371	7	Sololá	710	Panajachel	8	Panajachel	8	Agosto	2023-08-08T00:00:00	2024-11-08T16:00:00	1	Precipitación	0
53372	7	Sololá	710	Panajachel	8	Panajachel	8	Agosto	2023-08-08T00:00:00	2024-11-08T16:00:00	8	Radiación solar	337
53373	7	Sololá	710	Panajachel	8	Panajachel	8	Agosto	2023-08-08T00:00:00	2024-11-08T17:00:00	2	Temperatura media	24.1
53374	7	Sololá	710	Panajachel	8	Panajachel	8	Agosto	2023-08-08T00:00:00	2024-11-08T17:00:00	4	Temperatura máxima	25.1
53375	7	Sololá	710	Panajachel	8	Panajachel	8	Agosto	2023-08-08T00:00:00	2024-11-08T17:00:00	3	Temperatura mínima	23.6
53376	7	Sololá	710	Panajachel	8	Panajachel	8	Agosto	2023-08-08T00:00:00	2024-11-08T17:00:00	5	Humedad	79
53377	7	Sololá	710	Panajachel	8	Panajachel	8	Agosto	2023-08-08T00:00:00	2024-11-08T17:00:00	6	Velocidad del viento	3.2
53378	7	Sololá	710	Panajachel	8	Panajachel	8	Agosto	2023-08-08T00:00:00	2024-11-08T17:00:00	7	Dirección del viento	3.22
53379	7	Sololá	710	Panajachel	8	Panajachel	8	Agosto	2023-08-08T00:00:00	2024-11-08T17:00:00	1	Precipitación	0
53380	7	Sololá	710	Panajachel	8	Panajachel	8	Agosto	2023-08-08T00:00:00	2024-11-08T17:00:00	8	Radiación solar	143
53381	7	Sololá	710	Panajachel	8	Panajachel	8	Agosto	2023-08-08T00:00:00	2024-11-08T18:00:00	2	Temperatura media	21.6
53382	7	Sololá	710	Panajachel	8	Panajachel	8	Agosto	2023-08-08T00:00:00	2024-11-08T18:00:00	4	Temperatura máxima	24.1
53383	7	Sololá	710	Panajachel	8	Panajachel	8	Agosto	2023-08-08T00:00:00	2024-11-08T18:00:00	3	Temperatura mínima	21.6
53384	7	Sololá	710	Panajachel	8	Panajachel	8	Agosto	2023-08-08T00:00:00	2024-11-08T18:00:00	5	Humedad	89
53385	7	Sololá	710	Panajachel	8	Panajachel	8	Agosto	2023-08-08T00:00:00	2024-11-08T18:00:00	6	Velocidad del viento	3.2
53386	7	Sololá	710	Panajachel	8	Panajachel	8	Agosto	2023-08-08T00:00:00	2024-11-08T18:00:00	7	Dirección del viento	3.22
53387	7	Sololá	710	Panajachel	8	Panajachel	8	Agosto	2023-08-08T00:00:00	2024-11-08T18:00:00	1	Precipitación	0
53388	7	Sololá	710	Panajachel	8	Panajachel	8	Agosto	2023-08-08T00:00:00	2024-11-08T18:00:00	8	Radiación solar	50
53389	7	Sololá	710	Panajachel	8	Panajachel	8	Agosto	2023-08-08T00:00:00	2024-11-08T19:00:00	2	Temperatura media	21
53390	7	Sololá	710	Panajachel	8	Panajachel	8	Agosto	2023-08-08T00:00:00	2024-11-08T19:00:00	4	Temperatura máxima	21.7
53391	7	Sololá	710	Panajachel	8	Panajachel	8	Agosto	2023-08-08T00:00:00	2024-11-08T19:00:00	3	Temperatura mínima	21
53392	7	Sololá	710	Panajachel	8	Panajachel	8	Agosto	2023-08-08T00:00:00	2024-11-08T19:00:00	5	Humedad	89
53393	7	Sololá	710	Panajachel	8	Panajachel	8	Agosto	2023-08-08T00:00:00	2024-11-08T19:00:00	6	Velocidad del viento	0
53394	7	Sololá	710	Panajachel	8	Panajachel	8	Agosto	2023-08-08T00:00:00	2024-11-08T19:00:00	7	Dirección del viento	0
53395	7	Sololá	710	Panajachel	8	Panajachel	8	Agosto	2023-08-08T00:00:00	2024-11-08T19:00:00	1	Precipitación	0
53396	7	Sololá	710	Panajachel	8	Panajachel	8	Agosto	2023-08-08T00:00:00	2024-11-08T19:00:00	8	Radiación solar	0
53397	7	Sololá	710	Panajachel	8	Panajachel	8	Agosto	2023-08-08T00:00:00	2024-11-08T20:00:00	2	Temperatura media	20.3
53398	7	Sololá	710	Panajachel	8	Panajachel	8	Agosto	2023-08-08T00:00:00	2024-11-08T20:00:00	4	Temperatura máxima	21
53399	7	Sololá	710	Panajachel	8	Panajachel	8	Agosto	2023-08-08T00:00:00	2024-11-08T20:00:00	3	Temperatura mínima	20.2
53400	7	Sololá	710	Panajachel	8	Panajachel	8	Agosto	2023-08-08T00:00:00	2024-11-08T20:00:00	5	Humedad	90
53401	7	Sololá	710	Panajachel	8	Panajachel	8	Agosto	2023-08-08T00:00:00	2024-11-08T20:00:00	6	Velocidad del viento	0
53402	7	Sololá	710	Panajachel	8	Panajachel	8	Agosto	2023-08-08T00:00:00	2024-11-08T20:00:00	7	Dirección del viento	0
53403	7	Sololá	710	Panajachel	8	Panajachel	8	Agosto	2023-08-08T00:00:00	2024-11-08T20:00:00	1	Precipitación	0
53404	7	Sololá	710	Panajachel	8	Panajachel	8	Agosto	2023-08-08T00:00:00	2024-11-08T20:00:00	8	Radiación solar	0
53405	7	Sololá	710	Panajachel	8	Panajachel	8	Agosto	2023-08-08T00:00:00	2024-11-08T21:00:00	2	Temperatura media	19.7
53406	7	Sololá	710	Panajachel	8	Panajachel	8	Agosto	2023-08-08T00:00:00	2024-11-08T21:00:00	4	Temperatura máxima	20.3
53407	7	Sololá	710	Panajachel	8	Panajachel	8	Agosto	2023-08-08T00:00:00	2024-11-08T21:00:00	3	Temperatura mínima	19.7
53408	7	Sololá	710	Panajachel	8	Panajachel	8	Agosto	2023-08-08T00:00:00	2024-11-08T21:00:00	5	Humedad	86
53409	7	Sololá	710	Panajachel	8	Panajachel	8	Agosto	2023-08-08T00:00:00	2024-11-08T21:00:00	6	Velocidad del viento	1.6
53410	7	Sololá	710	Panajachel	8	Panajachel	8	Agosto	2023-08-08T00:00:00	2024-11-08T21:00:00	7	Dirección del viento	1.61
53411	7	Sololá	710	Panajachel	8	Panajachel	8	Agosto	2023-08-08T00:00:00	2024-11-08T21:00:00	1	Precipitación	0
53412	7	Sololá	710	Panajachel	8	Panajachel	8	Agosto	2023-08-08T00:00:00	2024-11-08T21:00:00	8	Radiación solar	0
53413	7	Sololá	710	Panajachel	8	Panajachel	8	Agosto	2023-08-08T00:00:00	2024-11-08T22:00:00	2	Temperatura media	19
53414	7	Sololá	710	Panajachel	8	Panajachel	8	Agosto	2023-08-08T00:00:00	2024-11-08T22:00:00	4	Temperatura máxima	19.7
53415	7	Sololá	710	Panajachel	8	Panajachel	8	Agosto	2023-08-08T00:00:00	2024-11-08T22:00:00	3	Temperatura mínima	18.8
53416	7	Sololá	710	Panajachel	8	Panajachel	8	Agosto	2023-08-08T00:00:00	2024-11-08T22:00:00	5	Humedad	83
53417	7	Sololá	710	Panajachel	8	Panajachel	8	Agosto	2023-08-08T00:00:00	2024-11-08T22:00:00	6	Velocidad del viento	3.2
53418	7	Sololá	710	Panajachel	8	Panajachel	8	Agosto	2023-08-08T00:00:00	2024-11-08T22:00:00	7	Dirección del viento	3.22
53419	7	Sololá	710	Panajachel	8	Panajachel	8	Agosto	2023-08-08T00:00:00	2024-11-08T22:00:00	1	Precipitación	0
53420	7	Sololá	710	Panajachel	8	Panajachel	8	Agosto	2023-08-08T00:00:00	2024-11-08T22:00:00	8	Radiación solar	0
53421	7	Sololá	710	Panajachel	8	Panajachel	8	Agosto	2023-08-08T00:00:00	2024-11-08T23:00:00	2	Temperatura media	18.9
53422	7	Sololá	710	Panajachel	8	Panajachel	8	Agosto	2023-08-08T00:00:00	2024-11-08T23:00:00	4	Temperatura máxima	19.2
53423	7	Sololá	710	Panajachel	8	Panajachel	8	Agosto	2023-08-08T00:00:00	2024-11-08T23:00:00	3	Temperatura mínima	18.6
53424	7	Sololá	710	Panajachel	8	Panajachel	8	Agosto	2023-08-08T00:00:00	2024-11-08T23:00:00	5	Humedad	81
53425	7	Sololá	710	Panajachel	8	Panajachel	8	Agosto	2023-08-08T00:00:00	2024-11-08T23:00:00	6	Velocidad del viento	3.2
53426	7	Sololá	710	Panajachel	8	Panajachel	8	Agosto	2023-08-08T00:00:00	2024-11-08T23:00:00	7	Dirección del viento	3.22
53427	7	Sololá	710	Panajachel	8	Panajachel	8	Agosto	2023-08-08T00:00:00	2024-11-08T23:00:00	1	Precipitación	0
53428	7	Sololá	710	Panajachel	8	Panajachel	8	Agosto	2023-08-08T00:00:00	2024-11-08T23:00:00	8	Radiación solar	0
53429	7	Sololá	710	Panajachel	8	Panajachel	8	Agosto	2023-09-08T00:00:00	2024-11-08T00:00:00	2	Temperatura media	18.8
53430	7	Sololá	710	Panajachel	8	Panajachel	8	Agosto	2023-09-08T00:00:00	2024-11-08T00:00:00	4	Temperatura máxima	19.1
53431	7	Sololá	710	Panajachel	8	Panajachel	8	Agosto	2023-09-08T00:00:00	2024-11-08T00:00:00	3	Temperatura mínima	18.7
53432	7	Sololá	710	Panajachel	8	Panajachel	8	Agosto	2023-09-08T00:00:00	2024-11-08T00:00:00	5	Humedad	83
53433	7	Sololá	710	Panajachel	8	Panajachel	8	Agosto	2023-09-08T00:00:00	2024-11-08T00:00:00	6	Velocidad del viento	1.6
53434	7	Sololá	710	Panajachel	8	Panajachel	8	Agosto	2023-09-08T00:00:00	2024-11-08T00:00:00	7	Dirección del viento	1.61
53435	7	Sololá	710	Panajachel	8	Panajachel	8	Agosto	2023-09-08T00:00:00	2024-11-08T00:00:00	1	Precipitación	0
53436	7	Sololá	710	Panajachel	8	Panajachel	8	Agosto	2023-09-08T00:00:00	2024-11-08T00:00:00	8	Radiación solar	0
53437	7	Sololá	710	Panajachel	8	Panajachel	8	Agosto	2023-09-08T00:00:00	2024-11-08T01:00:00	2	Temperatura media	18.1
53438	7	Sololá	710	Panajachel	8	Panajachel	8	Agosto	2023-09-08T00:00:00	2024-11-08T01:00:00	4	Temperatura máxima	18.8
53439	7	Sololá	710	Panajachel	8	Panajachel	8	Agosto	2023-09-08T00:00:00	2024-11-08T01:00:00	3	Temperatura mínima	18.1
53440	7	Sololá	710	Panajachel	8	Panajachel	8	Agosto	2023-09-08T00:00:00	2024-11-08T01:00:00	5	Humedad	84
53441	7	Sololá	710	Panajachel	8	Panajachel	8	Agosto	2023-09-08T00:00:00	2024-11-08T01:00:00	6	Velocidad del viento	1.6
53442	7	Sololá	710	Panajachel	8	Panajachel	8	Agosto	2023-09-08T00:00:00	2024-11-08T01:00:00	7	Dirección del viento	1.61
53443	7	Sololá	710	Panajachel	8	Panajachel	8	Agosto	2023-09-08T00:00:00	2024-11-08T01:00:00	1	Precipitación	0
53444	7	Sololá	710	Panajachel	8	Panajachel	8	Agosto	2023-09-08T00:00:00	2024-11-08T01:00:00	8	Radiación solar	0
53445	7	Sololá	710	Panajachel	8	Panajachel	8	Agosto	2023-09-08T00:00:00	2024-11-08T02:00:00	2	Temperatura media	17.7
53446	7	Sololá	710	Panajachel	8	Panajachel	8	Agosto	2023-09-08T00:00:00	2024-11-08T02:00:00	4	Temperatura máxima	18.1
53447	7	Sololá	710	Panajachel	8	Panajachel	8	Agosto	2023-09-08T00:00:00	2024-11-08T02:00:00	3	Temperatura mínima	17.7
53448	7	Sololá	710	Panajachel	8	Panajachel	8	Agosto	2023-09-08T00:00:00	2024-11-08T02:00:00	5	Humedad	86
53449	7	Sololá	710	Panajachel	8	Panajachel	8	Agosto	2023-09-08T00:00:00	2024-11-08T02:00:00	6	Velocidad del viento	1.6
53450	7	Sololá	710	Panajachel	8	Panajachel	8	Agosto	2023-09-08T00:00:00	2024-11-08T02:00:00	7	Dirección del viento	1.61
53451	7	Sololá	710	Panajachel	8	Panajachel	8	Agosto	2023-09-08T00:00:00	2024-11-08T02:00:00	1	Precipitación	0
53452	7	Sololá	710	Panajachel	8	Panajachel	8	Agosto	2023-09-08T00:00:00	2024-11-08T02:00:00	8	Radiación solar	0
53453	7	Sololá	710	Panajachel	8	Panajachel	8	Agosto	2023-09-08T00:00:00	2024-11-08T03:00:00	2	Temperatura media	18.1
53454	7	Sololá	710	Panajachel	8	Panajachel	8	Agosto	2023-09-08T00:00:00	2024-11-08T03:00:00	4	Temperatura máxima	18.1
53455	7	Sololá	710	Panajachel	8	Panajachel	8	Agosto	2023-09-08T00:00:00	2024-11-08T03:00:00	3	Temperatura mínima	17.4
53456	7	Sololá	710	Panajachel	8	Panajachel	8	Agosto	2023-09-08T00:00:00	2024-11-08T03:00:00	5	Humedad	84
53457	7	Sololá	710	Panajachel	8	Panajachel	8	Agosto	2023-09-08T00:00:00	2024-11-08T03:00:00	6	Velocidad del viento	1.6
53458	7	Sololá	710	Panajachel	8	Panajachel	8	Agosto	2023-09-08T00:00:00	2024-11-08T03:00:00	7	Dirección del viento	1.61
53459	7	Sololá	710	Panajachel	8	Panajachel	8	Agosto	2023-09-08T00:00:00	2024-11-08T03:00:00	1	Precipitación	0
53460	7	Sololá	710	Panajachel	8	Panajachel	8	Agosto	2023-09-08T00:00:00	2024-11-08T03:00:00	8	Radiación solar	0
53461	7	Sololá	710	Panajachel	8	Panajachel	8	Agosto	2023-09-08T00:00:00	2024-11-08T04:00:00	2	Temperatura media	18.1
53462	7	Sololá	710	Panajachel	8	Panajachel	8	Agosto	2023-09-08T00:00:00	2024-11-08T04:00:00	4	Temperatura máxima	18.5
53463	7	Sololá	710	Panajachel	8	Panajachel	8	Agosto	2023-09-08T00:00:00	2024-11-08T04:00:00	3	Temperatura mínima	18.1
53464	7	Sololá	710	Panajachel	8	Panajachel	8	Agosto	2023-09-08T00:00:00	2024-11-08T04:00:00	5	Humedad	84
53465	7	Sololá	710	Panajachel	8	Panajachel	8	Agosto	2023-09-08T00:00:00	2024-11-08T04:00:00	6	Velocidad del viento	0
53466	7	Sololá	710	Panajachel	8	Panajachel	8	Agosto	2023-09-08T00:00:00	2024-11-08T04:00:00	7	Dirección del viento	0
53467	7	Sololá	710	Panajachel	8	Panajachel	8	Agosto	2023-09-08T00:00:00	2024-11-08T04:00:00	1	Precipitación	0
53468	7	Sololá	710	Panajachel	8	Panajachel	8	Agosto	2023-09-08T00:00:00	2024-11-08T04:00:00	8	Radiación solar	0
53469	7	Sololá	710	Panajachel	8	Panajachel	8	Agosto	2023-09-08T00:00:00	2024-11-08T05:00:00	2	Temperatura media	17.5
53470	7	Sololá	710	Panajachel	8	Panajachel	8	Agosto	2023-09-08T00:00:00	2024-11-08T05:00:00	4	Temperatura máxima	18.1
53471	7	Sololá	710	Panajachel	8	Panajachel	8	Agosto	2023-09-08T00:00:00	2024-11-08T05:00:00	3	Temperatura mínima	17.4
53472	7	Sololá	710	Panajachel	8	Panajachel	8	Agosto	2023-09-08T00:00:00	2024-11-08T05:00:00	5	Humedad	87
53473	7	Sololá	710	Panajachel	8	Panajachel	8	Agosto	2023-09-08T00:00:00	2024-11-08T05:00:00	6	Velocidad del viento	0
53474	7	Sololá	710	Panajachel	8	Panajachel	8	Agosto	2023-09-08T00:00:00	2024-11-08T05:00:00	7	Dirección del viento	0
53475	7	Sololá	710	Panajachel	8	Panajachel	8	Agosto	2023-09-08T00:00:00	2024-11-08T05:00:00	1	Precipitación	0
53476	7	Sololá	710	Panajachel	8	Panajachel	8	Agosto	2023-09-08T00:00:00	2024-11-08T05:00:00	8	Radiación solar	0
53477	7	Sololá	710	Panajachel	8	Panajachel	8	Agosto	2023-09-08T00:00:00	2024-11-08T06:00:00	2	Temperatura media	17.1
53478	7	Sololá	710	Panajachel	8	Panajachel	8	Agosto	2023-09-08T00:00:00	2024-11-08T06:00:00	4	Temperatura máxima	17.5
53479	7	Sololá	710	Panajachel	8	Panajachel	8	Agosto	2023-09-08T00:00:00	2024-11-08T06:00:00	3	Temperatura mínima	17.1
53480	7	Sololá	710	Panajachel	8	Panajachel	8	Agosto	2023-09-08T00:00:00	2024-11-08T06:00:00	5	Humedad	88
53481	7	Sololá	710	Panajachel	8	Panajachel	8	Agosto	2023-09-08T00:00:00	2024-11-08T06:00:00	6	Velocidad del viento	0
53482	7	Sololá	710	Panajachel	8	Panajachel	8	Agosto	2023-09-08T00:00:00	2024-11-08T06:00:00	7	Dirección del viento	0
53483	7	Sololá	710	Panajachel	8	Panajachel	8	Agosto	2023-09-08T00:00:00	2024-11-08T06:00:00	1	Precipitación	0
53484	7	Sololá	710	Panajachel	8	Panajachel	8	Agosto	2023-09-08T00:00:00	2024-11-08T06:00:00	8	Radiación solar	0
53485	7	Sololá	710	Panajachel	8	Panajachel	8	Agosto	2023-09-08T00:00:00	2024-11-08T07:00:00	2	Temperatura media	19.1
53486	7	Sololá	710	Panajachel	8	Panajachel	8	Agosto	2023-09-08T00:00:00	2024-11-08T07:00:00	4	Temperatura máxima	19.1
53487	7	Sololá	710	Panajachel	8	Panajachel	8	Agosto	2023-09-08T00:00:00	2024-11-08T07:00:00	3	Temperatura mínima	16.9
53488	7	Sololá	710	Panajachel	8	Panajachel	8	Agosto	2023-09-08T00:00:00	2024-11-08T07:00:00	5	Humedad	81
53489	7	Sololá	710	Panajachel	8	Panajachel	8	Agosto	2023-09-08T00:00:00	2024-11-08T07:00:00	6	Velocidad del viento	0
53490	7	Sololá	710	Panajachel	8	Panajachel	8	Agosto	2023-09-08T00:00:00	2024-11-08T07:00:00	7	Dirección del viento	0
53491	7	Sololá	710	Panajachel	8	Panajachel	8	Agosto	2023-09-08T00:00:00	2024-11-08T07:00:00	1	Precipitación	0
53492	7	Sololá	710	Panajachel	8	Panajachel	8	Agosto	2023-09-08T00:00:00	2024-11-08T07:00:00	8	Radiación solar	74
53493	7	Sololá	710	Panajachel	8	Panajachel	8	Agosto	2023-09-08T00:00:00	2024-11-08T08:00:00	2	Temperatura media	22.4
53494	7	Sololá	710	Panajachel	8	Panajachel	8	Agosto	2023-09-08T00:00:00	2024-11-08T08:00:00	4	Temperatura máxima	22.6
53495	7	Sololá	710	Panajachel	8	Panajachel	8	Agosto	2023-09-08T00:00:00	2024-11-08T08:00:00	3	Temperatura mínima	19.1
53496	7	Sololá	710	Panajachel	8	Panajachel	8	Agosto	2023-09-08T00:00:00	2024-11-08T08:00:00	5	Humedad	70
53497	7	Sololá	710	Panajachel	8	Panajachel	8	Agosto	2023-09-08T00:00:00	2024-11-08T08:00:00	6	Velocidad del viento	0
53498	7	Sololá	710	Panajachel	8	Panajachel	8	Agosto	2023-09-08T00:00:00	2024-11-08T08:00:00	7	Dirección del viento	0
53499	7	Sololá	710	Panajachel	8	Panajachel	8	Agosto	2023-09-08T00:00:00	2024-11-08T08:00:00	1	Precipitación	0
53500	7	Sololá	710	Panajachel	8	Panajachel	8	Agosto	2023-09-08T00:00:00	2024-11-08T08:00:00	8	Radiación solar	345
53501	7	Sololá	710	Panajachel	8	Panajachel	8	Agosto	2023-09-08T00:00:00	2024-11-08T09:00:00	2	Temperatura media	22.1
53502	7	Sololá	710	Panajachel	8	Panajachel	8	Agosto	2023-09-08T00:00:00	2024-11-08T09:00:00	4	Temperatura máxima	22.3
53503	7	Sololá	710	Panajachel	8	Panajachel	8	Agosto	2023-09-08T00:00:00	2024-11-08T09:00:00	3	Temperatura mínima	21.4
53504	7	Sololá	710	Panajachel	8	Panajachel	8	Agosto	2023-09-08T00:00:00	2024-11-08T09:00:00	5	Humedad	74
53505	7	Sololá	710	Panajachel	8	Panajachel	8	Agosto	2023-09-08T00:00:00	2024-11-08T09:00:00	6	Velocidad del viento	3.2
53506	7	Sololá	710	Panajachel	8	Panajachel	8	Agosto	2023-09-08T00:00:00	2024-11-08T09:00:00	7	Dirección del viento	3.22
53507	7	Sololá	710	Panajachel	8	Panajachel	8	Agosto	2023-09-08T00:00:00	2024-11-08T09:00:00	1	Precipitación	0
53508	7	Sololá	710	Panajachel	8	Panajachel	8	Agosto	2023-09-08T00:00:00	2024-11-08T09:00:00	8	Radiación solar	591
53509	7	Sololá	710	Panajachel	8	Panajachel	8	Agosto	2023-09-08T00:00:00	2024-11-08T10:00:00	2	Temperatura media	24.6
53510	7	Sololá	710	Panajachel	8	Panajachel	8	Agosto	2023-09-08T00:00:00	2024-11-08T10:00:00	4	Temperatura máxima	24.6
53511	7	Sololá	710	Panajachel	8	Panajachel	8	Agosto	2023-09-08T00:00:00	2024-11-08T10:00:00	3	Temperatura mínima	22.1
53512	7	Sololá	710	Panajachel	8	Panajachel	8	Agosto	2023-09-08T00:00:00	2024-11-08T10:00:00	5	Humedad	63
53513	7	Sololá	710	Panajachel	8	Panajachel	8	Agosto	2023-09-08T00:00:00	2024-11-08T10:00:00	6	Velocidad del viento	1.6
53514	7	Sololá	710	Panajachel	8	Panajachel	8	Agosto	2023-09-08T00:00:00	2024-11-08T10:00:00	7	Dirección del viento	1.61
53515	7	Sololá	710	Panajachel	8	Panajachel	8	Agosto	2023-09-08T00:00:00	2024-11-08T10:00:00	1	Precipitación	0
53516	7	Sololá	710	Panajachel	8	Panajachel	8	Agosto	2023-09-08T00:00:00	2024-11-08T10:00:00	8	Radiación solar	780
53517	7	Sololá	710	Panajachel	8	Panajachel	8	Agosto	2023-09-08T00:00:00	2024-11-08T11:00:00	2	Temperatura media	23.7
53518	7	Sololá	710	Panajachel	8	Panajachel	8	Agosto	2023-09-08T00:00:00	2024-11-08T11:00:00	4	Temperatura máxima	24.8
53519	7	Sololá	710	Panajachel	8	Panajachel	8	Agosto	2023-09-08T00:00:00	2024-11-08T11:00:00	3	Temperatura mínima	23.7
53520	7	Sololá	710	Panajachel	8	Panajachel	8	Agosto	2023-09-08T00:00:00	2024-11-08T11:00:00	5	Humedad	68
53521	7	Sololá	710	Panajachel	8	Panajachel	8	Agosto	2023-09-08T00:00:00	2024-11-08T11:00:00	6	Velocidad del viento	3.2
53522	7	Sololá	710	Panajachel	8	Panajachel	8	Agosto	2023-09-08T00:00:00	2024-11-08T11:00:00	7	Dirección del viento	3.22
53523	7	Sololá	710	Panajachel	8	Panajachel	8	Agosto	2023-09-08T00:00:00	2024-11-08T11:00:00	1	Precipitación	0
53524	7	Sololá	710	Panajachel	8	Panajachel	8	Agosto	2023-09-08T00:00:00	2024-11-08T11:00:00	8	Radiación solar	877
53525	7	Sololá	710	Panajachel	8	Panajachel	8	Agosto	2023-09-08T00:00:00	2024-11-08T12:00:00	2	Temperatura media	26.1
53526	7	Sololá	710	Panajachel	8	Panajachel	8	Agosto	2023-09-08T00:00:00	2024-11-08T12:00:00	4	Temperatura máxima	26.1
53527	7	Sololá	710	Panajachel	8	Panajachel	8	Agosto	2023-09-08T00:00:00	2024-11-08T12:00:00	3	Temperatura mínima	23.7
53528	7	Sololá	710	Panajachel	8	Panajachel	8	Agosto	2023-09-08T00:00:00	2024-11-08T12:00:00	5	Humedad	72
53529	7	Sololá	710	Panajachel	8	Panajachel	8	Agosto	2023-09-08T00:00:00	2024-11-08T12:00:00	6	Velocidad del viento	3.2
53530	7	Sololá	710	Panajachel	8	Panajachel	8	Agosto	2023-09-08T00:00:00	2024-11-08T12:00:00	7	Dirección del viento	3.22
53531	7	Sololá	710	Panajachel	8	Panajachel	8	Agosto	2023-09-08T00:00:00	2024-11-08T12:00:00	1	Precipitación	0
53532	7	Sololá	710	Panajachel	8	Panajachel	8	Agosto	2023-09-08T00:00:00	2024-11-08T12:00:00	8	Radiación solar	924
53533	7	Sololá	710	Panajachel	8	Panajachel	8	Agosto	2023-09-08T00:00:00	2024-11-08T13:00:00	2	Temperatura media	25.7
53534	7	Sololá	710	Panajachel	8	Panajachel	8	Agosto	2023-09-08T00:00:00	2024-11-08T13:00:00	4	Temperatura máxima	26.1
53535	7	Sololá	710	Panajachel	8	Panajachel	8	Agosto	2023-09-08T00:00:00	2024-11-08T13:00:00	3	Temperatura mínima	24.6
53536	7	Sololá	710	Panajachel	8	Panajachel	8	Agosto	2023-09-08T00:00:00	2024-11-08T13:00:00	5	Humedad	75
53537	7	Sololá	710	Panajachel	8	Panajachel	8	Agosto	2023-09-08T00:00:00	2024-11-08T13:00:00	6	Velocidad del viento	4.8
53538	7	Sololá	710	Panajachel	8	Panajachel	8	Agosto	2023-09-08T00:00:00	2024-11-08T13:00:00	7	Dirección del viento	4.83
53539	7	Sololá	710	Panajachel	8	Panajachel	8	Agosto	2023-09-08T00:00:00	2024-11-08T13:00:00	1	Precipitación	0
53540	7	Sololá	710	Panajachel	8	Panajachel	8	Agosto	2023-09-08T00:00:00	2024-11-08T13:00:00	8	Radiación solar	866
53541	7	Sololá	710	Panajachel	8	Panajachel	8	Agosto	2023-09-08T00:00:00	2024-11-08T14:00:00	2	Temperatura media	24.5
53542	7	Sololá	710	Panajachel	8	Panajachel	8	Agosto	2023-09-08T00:00:00	2024-11-08T14:00:00	4	Temperatura máxima	25.7
53543	7	Sololá	710	Panajachel	8	Panajachel	8	Agosto	2023-09-08T00:00:00	2024-11-08T14:00:00	3	Temperatura mínima	24.2
53544	7	Sololá	710	Panajachel	8	Panajachel	8	Agosto	2023-09-08T00:00:00	2024-11-08T14:00:00	5	Humedad	80
53545	7	Sololá	710	Panajachel	8	Panajachel	8	Agosto	2023-09-08T00:00:00	2024-11-08T14:00:00	6	Velocidad del viento	6.4
53546	7	Sololá	710	Panajachel	8	Panajachel	8	Agosto	2023-09-08T00:00:00	2024-11-08T14:00:00	7	Dirección del viento	6.44
53547	7	Sololá	710	Panajachel	8	Panajachel	8	Agosto	2023-09-08T00:00:00	2024-11-08T14:00:00	1	Precipitación	0
53548	7	Sololá	710	Panajachel	8	Panajachel	8	Agosto	2023-09-08T00:00:00	2024-11-08T14:00:00	8	Radiación solar	504
53549	7	Sololá	710	Panajachel	8	Panajachel	8	Agosto	2023-09-08T00:00:00	2024-11-08T15:00:00	2	Temperatura media	22.7
53550	7	Sololá	710	Panajachel	8	Panajachel	8	Agosto	2023-09-08T00:00:00	2024-11-08T15:00:00	4	Temperatura máxima	24.6
53551	7	Sololá	710	Panajachel	8	Panajachel	8	Agosto	2023-09-08T00:00:00	2024-11-08T15:00:00	3	Temperatura mínima	22.7
53552	7	Sololá	710	Panajachel	8	Panajachel	8	Agosto	2023-09-08T00:00:00	2024-11-08T15:00:00	5	Humedad	86
53553	7	Sololá	710	Panajachel	8	Panajachel	8	Agosto	2023-09-08T00:00:00	2024-11-08T15:00:00	6	Velocidad del viento	4.8
53554	7	Sololá	710	Panajachel	8	Panajachel	8	Agosto	2023-09-08T00:00:00	2024-11-08T15:00:00	7	Dirección del viento	4.83
53555	7	Sololá	710	Panajachel	8	Panajachel	8	Agosto	2023-09-08T00:00:00	2024-11-08T15:00:00	1	Precipitación	0
53556	7	Sololá	710	Panajachel	8	Panajachel	8	Agosto	2023-09-08T00:00:00	2024-11-08T15:00:00	8	Radiación solar	97
53557	7	Sololá	710	Panajachel	8	Panajachel	8	Agosto	2023-09-08T00:00:00	2024-11-08T16:00:00	2	Temperatura media	21.4
53558	7	Sololá	710	Panajachel	8	Panajachel	8	Agosto	2023-09-08T00:00:00	2024-11-08T16:00:00	4	Temperatura máxima	22.7
53559	7	Sololá	710	Panajachel	8	Panajachel	8	Agosto	2023-09-08T00:00:00	2024-11-08T16:00:00	3	Temperatura mínima	21.4
53560	7	Sololá	710	Panajachel	8	Panajachel	8	Agosto	2023-09-08T00:00:00	2024-11-08T16:00:00	5	Humedad	81
53561	7	Sololá	710	Panajachel	8	Panajachel	8	Agosto	2023-09-08T00:00:00	2024-11-08T16:00:00	6	Velocidad del viento	3.2
53562	7	Sololá	710	Panajachel	8	Panajachel	8	Agosto	2023-09-08T00:00:00	2024-11-08T16:00:00	7	Dirección del viento	3.22
53563	7	Sololá	710	Panajachel	8	Panajachel	8	Agosto	2023-09-08T00:00:00	2024-11-08T16:00:00	1	Precipitación	0
53564	7	Sololá	710	Panajachel	8	Panajachel	8	Agosto	2023-09-08T00:00:00	2024-11-08T16:00:00	8	Radiación solar	70
53565	7	Sololá	710	Panajachel	8	Panajachel	8	Agosto	2023-09-08T00:00:00	2024-11-08T17:00:00	2	Temperatura media	21.3
53566	7	Sololá	710	Panajachel	8	Panajachel	8	Agosto	2023-09-08T00:00:00	2024-11-08T17:00:00	4	Temperatura máxima	21.7
53567	7	Sololá	710	Panajachel	8	Panajachel	8	Agosto	2023-09-08T00:00:00	2024-11-08T17:00:00	3	Temperatura mínima	21.2
53568	7	Sololá	710	Panajachel	8	Panajachel	8	Agosto	2023-09-08T00:00:00	2024-11-08T17:00:00	5	Humedad	85
53569	7	Sololá	710	Panajachel	8	Panajachel	8	Agosto	2023-09-08T00:00:00	2024-11-08T17:00:00	6	Velocidad del viento	1.6
53570	7	Sololá	710	Panajachel	8	Panajachel	8	Agosto	2023-09-08T00:00:00	2024-11-08T17:00:00	7	Dirección del viento	1.61
53571	7	Sololá	710	Panajachel	8	Panajachel	8	Agosto	2023-09-08T00:00:00	2024-11-08T17:00:00	1	Precipitación	0
53572	7	Sololá	710	Panajachel	8	Panajachel	8	Agosto	2023-09-08T00:00:00	2024-11-08T17:00:00	8	Radiación solar	43
53573	7	Sololá	710	Panajachel	8	Panajachel	8	Agosto	2023-09-08T00:00:00	2024-11-08T18:00:00	2	Temperatura media	21.1
53574	7	Sololá	710	Panajachel	8	Panajachel	8	Agosto	2023-09-08T00:00:00	2024-11-08T18:00:00	4	Temperatura máxima	21.7
53575	7	Sololá	710	Panajachel	8	Panajachel	8	Agosto	2023-09-08T00:00:00	2024-11-08T18:00:00	3	Temperatura mínima	21.1
53576	7	Sololá	710	Panajachel	8	Panajachel	8	Agosto	2023-09-08T00:00:00	2024-11-08T18:00:00	5	Humedad	89
53577	7	Sololá	710	Panajachel	8	Panajachel	8	Agosto	2023-09-08T00:00:00	2024-11-08T18:00:00	6	Velocidad del viento	0
53578	7	Sololá	710	Panajachel	8	Panajachel	8	Agosto	2023-09-08T00:00:00	2024-11-08T18:00:00	7	Dirección del viento	0
53579	7	Sololá	710	Panajachel	8	Panajachel	8	Agosto	2023-09-08T00:00:00	2024-11-08T18:00:00	1	Precipitación	0
53580	7	Sololá	710	Panajachel	8	Panajachel	8	Agosto	2023-09-08T00:00:00	2024-11-08T18:00:00	8	Radiación solar	62
53581	7	Sololá	710	Panajachel	8	Panajachel	8	Agosto	2023-09-08T00:00:00	2024-11-08T19:00:00	2	Temperatura media	20.7
53582	7	Sololá	710	Panajachel	8	Panajachel	8	Agosto	2023-09-08T00:00:00	2024-11-08T19:00:00	4	Temperatura máxima	21.1
53583	7	Sololá	710	Panajachel	8	Panajachel	8	Agosto	2023-09-08T00:00:00	2024-11-08T19:00:00	3	Temperatura mínima	20.4
53584	7	Sololá	710	Panajachel	8	Panajachel	8	Agosto	2023-09-08T00:00:00	2024-11-08T19:00:00	5	Humedad	90
53585	7	Sololá	710	Panajachel	8	Panajachel	8	Agosto	2023-09-08T00:00:00	2024-11-08T19:00:00	6	Velocidad del viento	1.6
53586	7	Sololá	710	Panajachel	8	Panajachel	8	Agosto	2023-09-08T00:00:00	2024-11-08T19:00:00	7	Dirección del viento	1.61
53587	7	Sololá	710	Panajachel	8	Panajachel	8	Agosto	2023-09-08T00:00:00	2024-11-08T19:00:00	1	Precipitación	0
53588	7	Sololá	710	Panajachel	8	Panajachel	8	Agosto	2023-09-08T00:00:00	2024-11-08T19:00:00	8	Radiación solar	0
53589	7	Sololá	710	Panajachel	8	Panajachel	8	Agosto	2023-09-08T00:00:00	2024-11-08T20:00:00	2	Temperatura media	19.6
53590	7	Sololá	710	Panajachel	8	Panajachel	8	Agosto	2023-09-08T00:00:00	2024-11-08T20:00:00	4	Temperatura máxima	20.7
53591	7	Sololá	710	Panajachel	8	Panajachel	8	Agosto	2023-09-08T00:00:00	2024-11-08T20:00:00	3	Temperatura mínima	19.6
53592	7	Sololá	710	Panajachel	8	Panajachel	8	Agosto	2023-09-08T00:00:00	2024-11-08T20:00:00	5	Humedad	89
53593	7	Sololá	710	Panajachel	8	Panajachel	8	Agosto	2023-09-08T00:00:00	2024-11-08T20:00:00	6	Velocidad del viento	1.6
53594	7	Sololá	710	Panajachel	8	Panajachel	8	Agosto	2023-09-08T00:00:00	2024-11-08T20:00:00	7	Dirección del viento	1.61
53595	7	Sololá	710	Panajachel	8	Panajachel	8	Agosto	2023-09-08T00:00:00	2024-11-08T20:00:00	1	Precipitación	0
53596	7	Sololá	710	Panajachel	8	Panajachel	8	Agosto	2023-09-08T00:00:00	2024-11-08T20:00:00	8	Radiación solar	0
53597	7	Sololá	710	Panajachel	8	Panajachel	8	Agosto	2023-09-08T00:00:00	2024-11-08T21:00:00	2	Temperatura media	18.8
53598	7	Sololá	710	Panajachel	8	Panajachel	8	Agosto	2023-09-08T00:00:00	2024-11-08T21:00:00	4	Temperatura máxima	19.7
53599	7	Sololá	710	Panajachel	8	Panajachel	8	Agosto	2023-09-08T00:00:00	2024-11-08T21:00:00	3	Temperatura mínima	18.8
53600	7	Sololá	710	Panajachel	8	Panajachel	8	Agosto	2023-09-08T00:00:00	2024-11-08T21:00:00	5	Humedad	89
53601	7	Sololá	710	Panajachel	8	Panajachel	8	Agosto	2023-09-08T00:00:00	2024-11-08T21:00:00	6	Velocidad del viento	1.6
53602	7	Sololá	710	Panajachel	8	Panajachel	8	Agosto	2023-09-08T00:00:00	2024-11-08T21:00:00	7	Dirección del viento	1.61
53603	7	Sololá	710	Panajachel	8	Panajachel	8	Agosto	2023-09-08T00:00:00	2024-11-08T21:00:00	1	Precipitación	0
53604	7	Sololá	710	Panajachel	8	Panajachel	8	Agosto	2023-09-08T00:00:00	2024-11-08T21:00:00	8	Radiación solar	0
53605	7	Sololá	710	Panajachel	8	Panajachel	8	Agosto	2023-09-08T00:00:00	2024-11-08T22:00:00	2	Temperatura media	18.5
53606	7	Sololá	710	Panajachel	8	Panajachel	8	Agosto	2023-09-08T00:00:00	2024-11-08T22:00:00	4	Temperatura máxima	18.8
53607	7	Sololá	710	Panajachel	8	Panajachel	8	Agosto	2023-09-08T00:00:00	2024-11-08T22:00:00	3	Temperatura mínima	18.3
53608	7	Sololá	710	Panajachel	8	Panajachel	8	Agosto	2023-09-08T00:00:00	2024-11-08T22:00:00	5	Humedad	87
53609	7	Sololá	710	Panajachel	8	Panajachel	8	Agosto	2023-09-08T00:00:00	2024-11-08T22:00:00	6	Velocidad del viento	3.2
53610	7	Sololá	710	Panajachel	8	Panajachel	8	Agosto	2023-09-08T00:00:00	2024-11-08T22:00:00	7	Dirección del viento	3.22
53611	7	Sololá	710	Panajachel	8	Panajachel	8	Agosto	2023-09-08T00:00:00	2024-11-08T22:00:00	1	Precipitación	0
53612	7	Sololá	710	Panajachel	8	Panajachel	8	Agosto	2023-09-08T00:00:00	2024-11-08T22:00:00	8	Radiación solar	0
53613	7	Sololá	710	Panajachel	8	Panajachel	8	Agosto	2023-09-08T00:00:00	2024-11-08T23:00:00	2	Temperatura media	18.5
53614	7	Sololá	710	Panajachel	8	Panajachel	8	Agosto	2023-09-08T00:00:00	2024-11-08T23:00:00	4	Temperatura máxima	19.2
53615	7	Sololá	710	Panajachel	8	Panajachel	8	Agosto	2023-09-08T00:00:00	2024-11-08T23:00:00	3	Temperatura mínima	18.5
53616	7	Sololá	710	Panajachel	8	Panajachel	8	Agosto	2023-09-08T00:00:00	2024-11-08T23:00:00	5	Humedad	86
53617	7	Sololá	710	Panajachel	8	Panajachel	8	Agosto	2023-09-08T00:00:00	2024-11-08T23:00:00	6	Velocidad del viento	1.6
53618	7	Sololá	710	Panajachel	8	Panajachel	8	Agosto	2023-09-08T00:00:00	2024-11-08T23:00:00	7	Dirección del viento	1.61
53619	7	Sololá	710	Panajachel	8	Panajachel	8	Agosto	2023-09-08T00:00:00	2024-11-08T23:00:00	1	Precipitación	0
53620	7	Sololá	710	Panajachel	8	Panajachel	8	Agosto	2023-09-08T00:00:00	2024-11-08T23:00:00	8	Radiación solar	0
53621	7	Sololá	710	Panajachel	8	Panajachel	8	Agosto	2023-10-08T00:00:00	2024-11-08T00:00:00	2	Temperatura media	17.9
53622	7	Sololá	710	Panajachel	8	Panajachel	8	Agosto	2023-10-08T00:00:00	2024-11-08T00:00:00	4	Temperatura máxima	18.5
53623	7	Sololá	710	Panajachel	8	Panajachel	8	Agosto	2023-10-08T00:00:00	2024-11-08T00:00:00	3	Temperatura mínima	17.9
53624	7	Sololá	710	Panajachel	8	Panajachel	8	Agosto	2023-10-08T00:00:00	2024-11-08T00:00:00	5	Humedad	88
53625	7	Sololá	710	Panajachel	8	Panajachel	8	Agosto	2023-10-08T00:00:00	2024-11-08T00:00:00	6	Velocidad del viento	1.6
53626	7	Sololá	710	Panajachel	8	Panajachel	8	Agosto	2023-10-08T00:00:00	2024-11-08T00:00:00	7	Dirección del viento	1.61
53627	7	Sololá	710	Panajachel	8	Panajachel	8	Agosto	2023-10-08T00:00:00	2024-11-08T00:00:00	1	Precipitación	0
53628	7	Sololá	710	Panajachel	8	Panajachel	8	Agosto	2023-10-08T00:00:00	2024-11-08T00:00:00	8	Radiación solar	0
53629	7	Sololá	710	Panajachel	8	Panajachel	8	Agosto	2023-10-08T00:00:00	2024-11-08T01:00:00	2	Temperatura media	18.7
53630	7	Sololá	710	Panajachel	8	Panajachel	8	Agosto	2023-10-08T00:00:00	2024-11-08T01:00:00	4	Temperatura máxima	18.7
53631	7	Sololá	710	Panajachel	8	Panajachel	8	Agosto	2023-10-08T00:00:00	2024-11-08T01:00:00	3	Temperatura mínima	17.8
53632	7	Sololá	710	Panajachel	8	Panajachel	8	Agosto	2023-10-08T00:00:00	2024-11-08T01:00:00	5	Humedad	85
53633	7	Sololá	710	Panajachel	8	Panajachel	8	Agosto	2023-10-08T00:00:00	2024-11-08T01:00:00	6	Velocidad del viento	1.6
53634	7	Sololá	710	Panajachel	8	Panajachel	8	Agosto	2023-10-08T00:00:00	2024-11-08T01:00:00	7	Dirección del viento	1.61
53635	7	Sololá	710	Panajachel	8	Panajachel	8	Agosto	2023-10-08T00:00:00	2024-11-08T01:00:00	1	Precipitación	0
53636	7	Sololá	710	Panajachel	8	Panajachel	8	Agosto	2023-10-08T00:00:00	2024-11-08T01:00:00	8	Radiación solar	0
53637	7	Sololá	710	Panajachel	8	Panajachel	8	Agosto	2023-10-08T00:00:00	2024-11-08T02:00:00	2	Temperatura media	17.9
53638	7	Sololá	710	Panajachel	8	Panajachel	8	Agosto	2023-10-08T00:00:00	2024-11-08T02:00:00	4	Temperatura máxima	18.7
53639	7	Sololá	710	Panajachel	8	Panajachel	8	Agosto	2023-10-08T00:00:00	2024-11-08T02:00:00	3	Temperatura mínima	17.9
53640	7	Sololá	710	Panajachel	8	Panajachel	8	Agosto	2023-10-08T00:00:00	2024-11-08T02:00:00	5	Humedad	87
53641	7	Sololá	710	Panajachel	8	Panajachel	8	Agosto	2023-10-08T00:00:00	2024-11-08T02:00:00	6	Velocidad del viento	1.6
53642	7	Sololá	710	Panajachel	8	Panajachel	8	Agosto	2023-10-08T00:00:00	2024-11-08T02:00:00	7	Dirección del viento	1.61
53643	7	Sololá	710	Panajachel	8	Panajachel	8	Agosto	2023-10-08T00:00:00	2024-11-08T02:00:00	1	Precipitación	0
53644	7	Sololá	710	Panajachel	8	Panajachel	8	Agosto	2023-10-08T00:00:00	2024-11-08T02:00:00	8	Radiación solar	0
53645	7	Sololá	710	Panajachel	8	Panajachel	8	Agosto	2023-10-08T00:00:00	2024-11-08T03:00:00	2	Temperatura media	18.1
53646	7	Sololá	710	Panajachel	8	Panajachel	8	Agosto	2023-10-08T00:00:00	2024-11-08T03:00:00	4	Temperatura máxima	18.1
53647	7	Sololá	710	Panajachel	8	Panajachel	8	Agosto	2023-10-08T00:00:00	2024-11-08T03:00:00	3	Temperatura mínima	17.8
53648	7	Sololá	710	Panajachel	8	Panajachel	8	Agosto	2023-10-08T00:00:00	2024-11-08T03:00:00	5	Humedad	85
53649	7	Sololá	710	Panajachel	8	Panajachel	8	Agosto	2023-10-08T00:00:00	2024-11-08T03:00:00	6	Velocidad del viento	1.6
53650	7	Sololá	710	Panajachel	8	Panajachel	8	Agosto	2023-10-08T00:00:00	2024-11-08T03:00:00	7	Dirección del viento	1.61
53651	7	Sololá	710	Panajachel	8	Panajachel	8	Agosto	2023-10-08T00:00:00	2024-11-08T03:00:00	1	Precipitación	0
53652	7	Sololá	710	Panajachel	8	Panajachel	8	Agosto	2023-10-08T00:00:00	2024-11-08T03:00:00	8	Radiación solar	0
53653	7	Sololá	710	Panajachel	8	Panajachel	8	Agosto	2023-10-08T00:00:00	2024-11-08T04:00:00	2	Temperatura media	17.8
53654	7	Sololá	710	Panajachel	8	Panajachel	8	Agosto	2023-10-08T00:00:00	2024-11-08T04:00:00	4	Temperatura máxima	18.4
53655	7	Sololá	710	Panajachel	8	Panajachel	8	Agosto	2023-10-08T00:00:00	2024-11-08T04:00:00	3	Temperatura mínima	17.8
53656	7	Sololá	710	Panajachel	8	Panajachel	8	Agosto	2023-10-08T00:00:00	2024-11-08T04:00:00	5	Humedad	86
53657	7	Sololá	710	Panajachel	8	Panajachel	8	Agosto	2023-10-08T00:00:00	2024-11-08T04:00:00	6	Velocidad del viento	1.6
53658	7	Sololá	710	Panajachel	8	Panajachel	8	Agosto	2023-10-08T00:00:00	2024-11-08T04:00:00	7	Dirección del viento	1.61
53659	7	Sololá	710	Panajachel	8	Panajachel	8	Agosto	2023-10-08T00:00:00	2024-11-08T04:00:00	1	Precipitación	0
53660	7	Sololá	710	Panajachel	8	Panajachel	8	Agosto	2023-10-08T00:00:00	2024-11-08T04:00:00	8	Radiación solar	0
53661	7	Sololá	710	Panajachel	8	Panajachel	8	Agosto	2023-10-08T00:00:00	2024-11-08T05:00:00	2	Temperatura media	17.9
53662	7	Sololá	710	Panajachel	8	Panajachel	8	Agosto	2023-10-08T00:00:00	2024-11-08T05:00:00	4	Temperatura máxima	17.9
53663	7	Sololá	710	Panajachel	8	Panajachel	8	Agosto	2023-10-08T00:00:00	2024-11-08T05:00:00	3	Temperatura mínima	17.7
53664	7	Sololá	710	Panajachel	8	Panajachel	8	Agosto	2023-10-08T00:00:00	2024-11-08T05:00:00	5	Humedad	87
53665	7	Sololá	710	Panajachel	8	Panajachel	8	Agosto	2023-10-08T00:00:00	2024-11-08T05:00:00	6	Velocidad del viento	1.6
53666	7	Sololá	710	Panajachel	8	Panajachel	8	Agosto	2023-10-08T00:00:00	2024-11-08T05:00:00	7	Dirección del viento	1.61
53667	7	Sololá	710	Panajachel	8	Panajachel	8	Agosto	2023-10-08T00:00:00	2024-11-08T05:00:00	1	Precipitación	0
53668	7	Sololá	710	Panajachel	8	Panajachel	8	Agosto	2023-10-08T00:00:00	2024-11-08T05:00:00	8	Radiación solar	0
53669	7	Sololá	710	Panajachel	8	Panajachel	8	Agosto	2023-10-08T00:00:00	2024-11-08T06:00:00	2	Temperatura media	18
53670	7	Sololá	710	Panajachel	8	Panajachel	8	Agosto	2023-10-08T00:00:00	2024-11-08T06:00:00	4	Temperatura máxima	18
53671	7	Sololá	710	Panajachel	8	Panajachel	8	Agosto	2023-10-08T00:00:00	2024-11-08T06:00:00	3	Temperatura mínima	17.8
53672	7	Sololá	710	Panajachel	8	Panajachel	8	Agosto	2023-10-08T00:00:00	2024-11-08T06:00:00	5	Humedad	85
53673	7	Sololá	710	Panajachel	8	Panajachel	8	Agosto	2023-10-08T00:00:00	2024-11-08T06:00:00	6	Velocidad del viento	3.2
53674	7	Sololá	710	Panajachel	8	Panajachel	8	Agosto	2023-10-08T00:00:00	2024-11-08T06:00:00	7	Dirección del viento	3.22
53675	7	Sololá	710	Panajachel	8	Panajachel	8	Agosto	2023-10-08T00:00:00	2024-11-08T06:00:00	1	Precipitación	0
53676	7	Sololá	710	Panajachel	8	Panajachel	8	Agosto	2023-10-08T00:00:00	2024-11-08T06:00:00	8	Radiación solar	0
53677	7	Sololá	710	Panajachel	8	Panajachel	8	Agosto	2023-10-08T00:00:00	2024-11-08T07:00:00	2	Temperatura media	19.7
53678	7	Sololá	710	Panajachel	8	Panajachel	8	Agosto	2023-10-08T00:00:00	2024-11-08T07:00:00	4	Temperatura máxima	19.7
53679	7	Sololá	710	Panajachel	8	Panajachel	8	Agosto	2023-10-08T00:00:00	2024-11-08T07:00:00	3	Temperatura mínima	18
53680	7	Sololá	710	Panajachel	8	Panajachel	8	Agosto	2023-10-08T00:00:00	2024-11-08T07:00:00	5	Humedad	80
53681	7	Sololá	710	Panajachel	8	Panajachel	8	Agosto	2023-10-08T00:00:00	2024-11-08T07:00:00	6	Velocidad del viento	1.6
53682	7	Sololá	710	Panajachel	8	Panajachel	8	Agosto	2023-10-08T00:00:00	2024-11-08T07:00:00	7	Dirección del viento	1.61
53683	7	Sololá	710	Panajachel	8	Panajachel	8	Agosto	2023-10-08T00:00:00	2024-11-08T07:00:00	1	Precipitación	0
53684	7	Sololá	710	Panajachel	8	Panajachel	8	Agosto	2023-10-08T00:00:00	2024-11-08T07:00:00	8	Radiación solar	90
53685	7	Sololá	710	Panajachel	8	Panajachel	8	Agosto	2023-10-08T00:00:00	2024-11-08T08:00:00	2	Temperatura media	22
53686	7	Sololá	710	Panajachel	8	Panajachel	8	Agosto	2023-10-08T00:00:00	2024-11-08T08:00:00	4	Temperatura máxima	22.2
53687	7	Sololá	710	Panajachel	8	Panajachel	8	Agosto	2023-10-08T00:00:00	2024-11-08T08:00:00	3	Temperatura mínima	19.7
53688	7	Sololá	710	Panajachel	8	Panajachel	8	Agosto	2023-10-08T00:00:00	2024-11-08T08:00:00	5	Humedad	76
53689	7	Sololá	710	Panajachel	8	Panajachel	8	Agosto	2023-10-08T00:00:00	2024-11-08T08:00:00	6	Velocidad del viento	1.6
53690	7	Sololá	710	Panajachel	8	Panajachel	8	Agosto	2023-10-08T00:00:00	2024-11-08T08:00:00	7	Dirección del viento	1.61
53691	7	Sololá	710	Panajachel	8	Panajachel	8	Agosto	2023-10-08T00:00:00	2024-11-08T08:00:00	1	Precipitación	0
53692	7	Sololá	710	Panajachel	8	Panajachel	8	Agosto	2023-10-08T00:00:00	2024-11-08T08:00:00	8	Radiación solar	303
53693	7	Sololá	710	Panajachel	8	Panajachel	8	Agosto	2023-10-08T00:00:00	2024-11-08T09:00:00	2	Temperatura media	22.7
53694	7	Sololá	710	Panajachel	8	Panajachel	8	Agosto	2023-10-08T00:00:00	2024-11-08T09:00:00	4	Temperatura máxima	22.7
53695	7	Sololá	710	Panajachel	8	Panajachel	8	Agosto	2023-10-08T00:00:00	2024-11-08T09:00:00	3	Temperatura mínima	21.6
53696	7	Sololá	710	Panajachel	8	Panajachel	8	Agosto	2023-10-08T00:00:00	2024-11-08T09:00:00	5	Humedad	75
53697	7	Sololá	710	Panajachel	8	Panajachel	8	Agosto	2023-10-08T00:00:00	2024-11-08T09:00:00	6	Velocidad del viento	1.6
53698	7	Sololá	710	Panajachel	8	Panajachel	8	Agosto	2023-10-08T00:00:00	2024-11-08T09:00:00	7	Dirección del viento	1.61
53699	7	Sololá	710	Panajachel	8	Panajachel	8	Agosto	2023-10-08T00:00:00	2024-11-08T09:00:00	1	Precipitación	0
53700	7	Sololá	710	Panajachel	8	Panajachel	8	Agosto	2023-10-08T00:00:00	2024-11-08T09:00:00	8	Radiación solar	515
53701	7	Sololá	710	Panajachel	8	Panajachel	8	Agosto	2023-10-08T00:00:00	2024-11-08T10:00:00	2	Temperatura media	22.9
53702	7	Sololá	710	Panajachel	8	Panajachel	8	Agosto	2023-10-08T00:00:00	2024-11-08T10:00:00	4	Temperatura máxima	22.9
53703	7	Sololá	710	Panajachel	8	Panajachel	8	Agosto	2023-10-08T00:00:00	2024-11-08T10:00:00	3	Temperatura mínima	22.3
53704	7	Sololá	710	Panajachel	8	Panajachel	8	Agosto	2023-10-08T00:00:00	2024-11-08T10:00:00	5	Humedad	78
53705	7	Sololá	710	Panajachel	8	Panajachel	8	Agosto	2023-10-08T00:00:00	2024-11-08T10:00:00	6	Velocidad del viento	1.6
53706	7	Sololá	710	Panajachel	8	Panajachel	8	Agosto	2023-10-08T00:00:00	2024-11-08T10:00:00	7	Dirección del viento	1.61
53707	7	Sololá	710	Panajachel	8	Panajachel	8	Agosto	2023-10-08T00:00:00	2024-11-08T10:00:00	1	Precipitación	0
53708	7	Sololá	710	Panajachel	8	Panajachel	8	Agosto	2023-10-08T00:00:00	2024-11-08T10:00:00	8	Radiación solar	671
53709	7	Sololá	710	Panajachel	8	Panajachel	8	Agosto	2023-10-08T00:00:00	2024-11-08T11:00:00	2	Temperatura media	24.1
53710	7	Sololá	710	Panajachel	8	Panajachel	8	Agosto	2023-10-08T00:00:00	2024-11-08T11:00:00	4	Temperatura máxima	24.2
53711	7	Sololá	710	Panajachel	8	Panajachel	8	Agosto	2023-10-08T00:00:00	2024-11-08T11:00:00	3	Temperatura mínima	22.9
53712	7	Sololá	710	Panajachel	8	Panajachel	8	Agosto	2023-10-08T00:00:00	2024-11-08T11:00:00	5	Humedad	71
53713	7	Sololá	710	Panajachel	8	Panajachel	8	Agosto	2023-10-08T00:00:00	2024-11-08T11:00:00	6	Velocidad del viento	1.6
53714	7	Sololá	710	Panajachel	8	Panajachel	8	Agosto	2023-10-08T00:00:00	2024-11-08T11:00:00	7	Dirección del viento	1.61
53715	7	Sololá	710	Panajachel	8	Panajachel	8	Agosto	2023-10-08T00:00:00	2024-11-08T11:00:00	1	Precipitación	0
53716	7	Sololá	710	Panajachel	8	Panajachel	8	Agosto	2023-10-08T00:00:00	2024-11-08T11:00:00	8	Radiación solar	801
53717	7	Sololá	710	Panajachel	8	Panajachel	8	Agosto	2023-10-08T00:00:00	2024-11-08T12:00:00	2	Temperatura media	25.4
53718	7	Sololá	710	Panajachel	8	Panajachel	8	Agosto	2023-10-08T00:00:00	2024-11-08T12:00:00	4	Temperatura máxima	25.7
53719	7	Sololá	710	Panajachel	8	Panajachel	8	Agosto	2023-10-08T00:00:00	2024-11-08T12:00:00	3	Temperatura mínima	24.1
53720	7	Sololá	710	Panajachel	8	Panajachel	8	Agosto	2023-10-08T00:00:00	2024-11-08T12:00:00	5	Humedad	70
53721	7	Sololá	710	Panajachel	8	Panajachel	8	Agosto	2023-10-08T00:00:00	2024-11-08T12:00:00	6	Velocidad del viento	3.2
53722	7	Sololá	710	Panajachel	8	Panajachel	8	Agosto	2023-10-08T00:00:00	2024-11-08T12:00:00	7	Dirección del viento	3.22
53723	7	Sololá	710	Panajachel	8	Panajachel	8	Agosto	2023-10-08T00:00:00	2024-11-08T12:00:00	1	Precipitación	0
53724	7	Sololá	710	Panajachel	8	Panajachel	8	Agosto	2023-10-08T00:00:00	2024-11-08T12:00:00	8	Radiación solar	962
53725	7	Sololá	710	Panajachel	8	Panajachel	8	Agosto	2023-10-08T00:00:00	2024-11-08T13:00:00	2	Temperatura media	24.3
53726	7	Sololá	710	Panajachel	8	Panajachel	8	Agosto	2023-10-08T00:00:00	2024-11-08T13:00:00	4	Temperatura máxima	25.4
53727	7	Sololá	710	Panajachel	8	Panajachel	8	Agosto	2023-10-08T00:00:00	2024-11-08T13:00:00	3	Temperatura mínima	24.3
53728	7	Sololá	710	Panajachel	8	Panajachel	8	Agosto	2023-10-08T00:00:00	2024-11-08T13:00:00	5	Humedad	78
53729	7	Sololá	710	Panajachel	8	Panajachel	8	Agosto	2023-10-08T00:00:00	2024-11-08T13:00:00	6	Velocidad del viento	3.2
53730	7	Sololá	710	Panajachel	8	Panajachel	8	Agosto	2023-10-08T00:00:00	2024-11-08T13:00:00	7	Dirección del viento	3.22
53731	7	Sololá	710	Panajachel	8	Panajachel	8	Agosto	2023-10-08T00:00:00	2024-11-08T13:00:00	1	Precipitación	0
53732	7	Sololá	710	Panajachel	8	Panajachel	8	Agosto	2023-10-08T00:00:00	2024-11-08T13:00:00	8	Radiación solar	355
53733	7	Sololá	710	Panajachel	8	Panajachel	8	Agosto	2023-10-08T00:00:00	2024-11-08T14:00:00	2	Temperatura media	23.2
53734	7	Sololá	710	Panajachel	8	Panajachel	8	Agosto	2023-10-08T00:00:00	2024-11-08T14:00:00	4	Temperatura máxima	24.3
53735	7	Sololá	710	Panajachel	8	Panajachel	8	Agosto	2023-10-08T00:00:00	2024-11-08T14:00:00	3	Temperatura mínima	23.2
53736	7	Sololá	710	Panajachel	8	Panajachel	8	Agosto	2023-10-08T00:00:00	2024-11-08T14:00:00	5	Humedad	84
53737	7	Sololá	710	Panajachel	8	Panajachel	8	Agosto	2023-10-08T00:00:00	2024-11-08T14:00:00	6	Velocidad del viento	4.8
53738	7	Sololá	710	Panajachel	8	Panajachel	8	Agosto	2023-10-08T00:00:00	2024-11-08T14:00:00	7	Dirección del viento	4.83
53739	7	Sololá	710	Panajachel	8	Panajachel	8	Agosto	2023-10-08T00:00:00	2024-11-08T14:00:00	1	Precipitación	0
53740	7	Sololá	710	Panajachel	8	Panajachel	8	Agosto	2023-10-08T00:00:00	2024-11-08T14:00:00	8	Radiación solar	193
53741	7	Sololá	710	Panajachel	8	Panajachel	8	Agosto	2023-10-08T00:00:00	2024-11-08T15:00:00	2	Temperatura media	20.7
53742	7	Sololá	710	Panajachel	8	Panajachel	8	Agosto	2023-10-08T00:00:00	2024-11-08T15:00:00	4	Temperatura máxima	23.2
53743	7	Sololá	710	Panajachel	8	Panajachel	8	Agosto	2023-10-08T00:00:00	2024-11-08T15:00:00	3	Temperatura mínima	20.4
53744	7	Sololá	710	Panajachel	8	Panajachel	8	Agosto	2023-10-08T00:00:00	2024-11-08T15:00:00	5	Humedad	85
53745	7	Sololá	710	Panajachel	8	Panajachel	8	Agosto	2023-10-08T00:00:00	2024-11-08T15:00:00	6	Velocidad del viento	6.4
53746	7	Sololá	710	Panajachel	8	Panajachel	8	Agosto	2023-10-08T00:00:00	2024-11-08T15:00:00	7	Dirección del viento	6.44
53747	7	Sololá	710	Panajachel	8	Panajachel	8	Agosto	2023-10-08T00:00:00	2024-11-08T15:00:00	1	Precipitación	0
53748	7	Sololá	710	Panajachel	8	Panajachel	8	Agosto	2023-10-08T00:00:00	2024-11-08T15:00:00	8	Radiación solar	80
53749	7	Sololá	710	Panajachel	8	Panajachel	8	Agosto	2023-10-08T00:00:00	2024-11-08T16:00:00	2	Temperatura media	21.3
53750	7	Sololá	710	Panajachel	8	Panajachel	8	Agosto	2023-10-08T00:00:00	2024-11-08T16:00:00	4	Temperatura máxima	21.3
53751	7	Sololá	710	Panajachel	8	Panajachel	8	Agosto	2023-10-08T00:00:00	2024-11-08T16:00:00	3	Temperatura mínima	20.4
53752	7	Sololá	710	Panajachel	8	Panajachel	8	Agosto	2023-10-08T00:00:00	2024-11-08T16:00:00	5	Humedad	80
53753	7	Sololá	710	Panajachel	8	Panajachel	8	Agosto	2023-10-08T00:00:00	2024-11-08T16:00:00	6	Velocidad del viento	6.4
53754	7	Sololá	710	Panajachel	8	Panajachel	8	Agosto	2023-10-08T00:00:00	2024-11-08T16:00:00	7	Dirección del viento	6.44
53755	7	Sololá	710	Panajachel	8	Panajachel	8	Agosto	2023-10-08T00:00:00	2024-11-08T16:00:00	1	Precipitación	0
53756	7	Sololá	710	Panajachel	8	Panajachel	8	Agosto	2023-10-08T00:00:00	2024-11-08T16:00:00	8	Radiación solar	146
53757	7	Sololá	710	Panajachel	8	Panajachel	8	Agosto	2023-10-08T00:00:00	2024-11-08T17:00:00	2	Temperatura media	22.6
53758	7	Sololá	710	Panajachel	8	Panajachel	8	Agosto	2023-10-08T00:00:00	2024-11-08T17:00:00	4	Temperatura máxima	22.7
53759	7	Sololá	710	Panajachel	8	Panajachel	8	Agosto	2023-10-08T00:00:00	2024-11-08T17:00:00	3	Temperatura mínima	21.3
53760	7	Sololá	710	Panajachel	8	Panajachel	8	Agosto	2023-10-08T00:00:00	2024-11-08T17:00:00	5	Humedad	78
53761	7	Sololá	710	Panajachel	8	Panajachel	8	Agosto	2023-10-08T00:00:00	2024-11-08T17:00:00	6	Velocidad del viento	6.4
53762	7	Sololá	710	Panajachel	8	Panajachel	8	Agosto	2023-10-08T00:00:00	2024-11-08T17:00:00	7	Dirección del viento	6.44
53763	7	Sololá	710	Panajachel	8	Panajachel	8	Agosto	2023-10-08T00:00:00	2024-11-08T17:00:00	1	Precipitación	0
53764	7	Sololá	710	Panajachel	8	Panajachel	8	Agosto	2023-10-08T00:00:00	2024-11-08T17:00:00	8	Radiación solar	169
53765	7	Sololá	710	Panajachel	8	Panajachel	8	Agosto	2023-10-08T00:00:00	2024-11-08T18:00:00	2	Temperatura media	22.3
53766	7	Sololá	710	Panajachel	8	Panajachel	8	Agosto	2023-10-08T00:00:00	2024-11-08T18:00:00	4	Temperatura máxima	22.6
53767	7	Sololá	710	Panajachel	8	Panajachel	8	Agosto	2023-10-08T00:00:00	2024-11-08T18:00:00	3	Temperatura mínima	22.1
53768	7	Sololá	710	Panajachel	8	Panajachel	8	Agosto	2023-10-08T00:00:00	2024-11-08T18:00:00	5	Humedad	78
53769	7	Sololá	710	Panajachel	8	Panajachel	8	Agosto	2023-10-08T00:00:00	2024-11-08T18:00:00	6	Velocidad del viento	3.2
53770	7	Sololá	710	Panajachel	8	Panajachel	8	Agosto	2023-10-08T00:00:00	2024-11-08T18:00:00	7	Dirección del viento	3.22
53771	7	Sololá	710	Panajachel	8	Panajachel	8	Agosto	2023-10-08T00:00:00	2024-11-08T18:00:00	1	Precipitación	0
53772	7	Sololá	710	Panajachel	8	Panajachel	8	Agosto	2023-10-08T00:00:00	2024-11-08T18:00:00	8	Radiación solar	54
53773	7	Sololá	710	Panajachel	8	Panajachel	8	Agosto	2023-10-08T00:00:00	2024-11-08T19:00:00	2	Temperatura media	20.9
53774	7	Sololá	710	Panajachel	8	Panajachel	8	Agosto	2023-10-08T00:00:00	2024-11-08T19:00:00	4	Temperatura máxima	22.3
53775	7	Sololá	710	Panajachel	8	Panajachel	8	Agosto	2023-10-08T00:00:00	2024-11-08T19:00:00	3	Temperatura mínima	20.9
53776	7	Sololá	710	Panajachel	8	Panajachel	8	Agosto	2023-10-08T00:00:00	2024-11-08T19:00:00	5	Humedad	81
53777	7	Sololá	710	Panajachel	8	Panajachel	8	Agosto	2023-10-08T00:00:00	2024-11-08T19:00:00	6	Velocidad del viento	3.2
53778	7	Sololá	710	Panajachel	8	Panajachel	8	Agosto	2023-10-08T00:00:00	2024-11-08T19:00:00	7	Dirección del viento	3.22
53779	7	Sololá	710	Panajachel	8	Panajachel	8	Agosto	2023-10-08T00:00:00	2024-11-08T19:00:00	1	Precipitación	0
53780	7	Sololá	710	Panajachel	8	Panajachel	8	Agosto	2023-10-08T00:00:00	2024-11-08T19:00:00	8	Radiación solar	0
53781	7	Sololá	710	Panajachel	8	Panajachel	8	Agosto	2023-10-08T00:00:00	2024-11-08T20:00:00	2	Temperatura media	20.6
53782	7	Sololá	710	Panajachel	8	Panajachel	8	Agosto	2023-10-08T00:00:00	2024-11-08T20:00:00	4	Temperatura máxima	21
53783	7	Sololá	710	Panajachel	8	Panajachel	8	Agosto	2023-10-08T00:00:00	2024-11-08T20:00:00	3	Temperatura mínima	20.6
53784	7	Sololá	710	Panajachel	8	Panajachel	8	Agosto	2023-10-08T00:00:00	2024-11-08T20:00:00	5	Humedad	81
53785	7	Sololá	710	Panajachel	8	Panajachel	8	Agosto	2023-10-08T00:00:00	2024-11-08T20:00:00	6	Velocidad del viento	3.2
53786	7	Sololá	710	Panajachel	8	Panajachel	8	Agosto	2023-10-08T00:00:00	2024-11-08T20:00:00	7	Dirección del viento	3.22
53787	7	Sololá	710	Panajachel	8	Panajachel	8	Agosto	2023-10-08T00:00:00	2024-11-08T20:00:00	1	Precipitación	0
53788	7	Sololá	710	Panajachel	8	Panajachel	8	Agosto	2023-10-08T00:00:00	2024-11-08T20:00:00	8	Radiación solar	0
53789	7	Sololá	710	Panajachel	8	Panajachel	8	Agosto	2023-10-08T00:00:00	2024-11-08T21:00:00	2	Temperatura media	19.7
53790	7	Sololá	710	Panajachel	8	Panajachel	8	Agosto	2023-10-08T00:00:00	2024-11-08T21:00:00	4	Temperatura máxima	20.8
53791	7	Sololá	710	Panajachel	8	Panajachel	8	Agosto	2023-10-08T00:00:00	2024-11-08T21:00:00	3	Temperatura mínima	19.7
53792	7	Sololá	710	Panajachel	8	Panajachel	8	Agosto	2023-10-08T00:00:00	2024-11-08T21:00:00	5	Humedad	84
53793	7	Sololá	710	Panajachel	8	Panajachel	8	Agosto	2023-10-08T00:00:00	2024-11-08T21:00:00	6	Velocidad del viento	3.2
53794	7	Sololá	710	Panajachel	8	Panajachel	8	Agosto	2023-10-08T00:00:00	2024-11-08T21:00:00	7	Dirección del viento	3.22
53795	7	Sololá	710	Panajachel	8	Panajachel	8	Agosto	2023-10-08T00:00:00	2024-11-08T21:00:00	1	Precipitación	0
53796	7	Sololá	710	Panajachel	8	Panajachel	8	Agosto	2023-10-08T00:00:00	2024-11-08T21:00:00	8	Radiación solar	0
53797	7	Sololá	710	Panajachel	8	Panajachel	8	Agosto	2023-10-08T00:00:00	2024-11-08T22:00:00	2	Temperatura media	19.6
53798	7	Sololá	710	Panajachel	8	Panajachel	8	Agosto	2023-10-08T00:00:00	2024-11-08T22:00:00	4	Temperatura máxima	19.7
53799	7	Sololá	710	Panajachel	8	Panajachel	8	Agosto	2023-10-08T00:00:00	2024-11-08T22:00:00	3	Temperatura mínima	19.3
53800	7	Sololá	710	Panajachel	8	Panajachel	8	Agosto	2023-10-08T00:00:00	2024-11-08T22:00:00	5	Humedad	83
53801	7	Sololá	710	Panajachel	8	Panajachel	8	Agosto	2023-10-08T00:00:00	2024-11-08T22:00:00	6	Velocidad del viento	3.2
53802	7	Sololá	710	Panajachel	8	Panajachel	8	Agosto	2023-10-08T00:00:00	2024-11-08T22:00:00	7	Dirección del viento	3.22
53803	7	Sololá	710	Panajachel	8	Panajachel	8	Agosto	2023-10-08T00:00:00	2024-11-08T22:00:00	1	Precipitación	0
53804	7	Sololá	710	Panajachel	8	Panajachel	8	Agosto	2023-10-08T00:00:00	2024-11-08T22:00:00	8	Radiación solar	0
53805	7	Sololá	710	Panajachel	8	Panajachel	8	Agosto	2023-10-08T00:00:00	2024-11-08T23:00:00	2	Temperatura media	19.6
53806	7	Sololá	710	Panajachel	8	Panajachel	8	Agosto	2023-10-08T00:00:00	2024-11-08T23:00:00	4	Temperatura máxima	19.7
53807	7	Sololá	710	Panajachel	8	Panajachel	8	Agosto	2023-10-08T00:00:00	2024-11-08T23:00:00	3	Temperatura mínima	19.4
53808	7	Sololá	710	Panajachel	8	Panajachel	8	Agosto	2023-10-08T00:00:00	2024-11-08T23:00:00	5	Humedad	84
53809	7	Sololá	710	Panajachel	8	Panajachel	8	Agosto	2023-10-08T00:00:00	2024-11-08T23:00:00	6	Velocidad del viento	1.6
53810	7	Sololá	710	Panajachel	8	Panajachel	8	Agosto	2023-10-08T00:00:00	2024-11-08T23:00:00	7	Dirección del viento	1.61
53811	7	Sololá	710	Panajachel	8	Panajachel	8	Agosto	2023-10-08T00:00:00	2024-11-08T23:00:00	1	Precipitación	0
53812	7	Sololá	710	Panajachel	8	Panajachel	8	Agosto	2023-10-08T00:00:00	2024-11-08T23:00:00	8	Radiación solar	0
53813	7	Sololá	710	Panajachel	8	Panajachel	8	Agosto	2023-11-08T00:00:00	2024-11-08T00:00:00	2	Temperatura media	19.6
53814	7	Sololá	710	Panajachel	8	Panajachel	8	Agosto	2023-11-08T00:00:00	2024-11-08T00:00:00	4	Temperatura máxima	19.7
53815	7	Sololá	710	Panajachel	8	Panajachel	8	Agosto	2023-11-08T00:00:00	2024-11-08T00:00:00	3	Temperatura mínima	19.3
53816	7	Sololá	710	Panajachel	8	Panajachel	8	Agosto	2023-11-08T00:00:00	2024-11-08T00:00:00	5	Humedad	82
53817	7	Sololá	710	Panajachel	8	Panajachel	8	Agosto	2023-11-08T00:00:00	2024-11-08T00:00:00	6	Velocidad del viento	3.2
53818	7	Sololá	710	Panajachel	8	Panajachel	8	Agosto	2023-11-08T00:00:00	2024-11-08T00:00:00	7	Dirección del viento	3.22
53819	7	Sololá	710	Panajachel	8	Panajachel	8	Agosto	2023-11-08T00:00:00	2024-11-08T00:00:00	1	Precipitación	0
53820	7	Sololá	710	Panajachel	8	Panajachel	8	Agosto	2023-11-08T00:00:00	2024-11-08T00:00:00	8	Radiación solar	0
53821	7	Sololá	710	Panajachel	8	Panajachel	8	Agosto	2023-11-08T00:00:00	2024-11-08T01:00:00	2	Temperatura media	18.8
53822	7	Sololá	710	Panajachel	8	Panajachel	8	Agosto	2023-11-08T00:00:00	2024-11-08T01:00:00	4	Temperatura máxima	20.1
53823	7	Sololá	710	Panajachel	8	Panajachel	8	Agosto	2023-11-08T00:00:00	2024-11-08T01:00:00	3	Temperatura mínima	18.8
53824	7	Sololá	710	Panajachel	8	Panajachel	8	Agosto	2023-11-08T00:00:00	2024-11-08T01:00:00	5	Humedad	85
53825	7	Sololá	710	Panajachel	8	Panajachel	8	Agosto	2023-11-08T00:00:00	2024-11-08T01:00:00	6	Velocidad del viento	1.6
53826	7	Sololá	710	Panajachel	8	Panajachel	8	Agosto	2023-11-08T00:00:00	2024-11-08T01:00:00	7	Dirección del viento	1.61
53827	7	Sololá	710	Panajachel	8	Panajachel	8	Agosto	2023-11-08T00:00:00	2024-11-08T01:00:00	1	Precipitación	0
53828	7	Sololá	710	Panajachel	8	Panajachel	8	Agosto	2023-11-08T00:00:00	2024-11-08T01:00:00	8	Radiación solar	0
53829	7	Sololá	710	Panajachel	8	Panajachel	8	Agosto	2023-11-08T00:00:00	2024-11-08T02:00:00	2	Temperatura media	18.2
53830	7	Sololá	710	Panajachel	8	Panajachel	8	Agosto	2023-11-08T00:00:00	2024-11-08T02:00:00	4	Temperatura máxima	18.8
53831	7	Sololá	710	Panajachel	8	Panajachel	8	Agosto	2023-11-08T00:00:00	2024-11-08T02:00:00	3	Temperatura mínima	18.2
53832	7	Sololá	710	Panajachel	8	Panajachel	8	Agosto	2023-11-08T00:00:00	2024-11-08T02:00:00	5	Humedad	85
53833	7	Sololá	710	Panajachel	8	Panajachel	8	Agosto	2023-11-08T00:00:00	2024-11-08T02:00:00	6	Velocidad del viento	3.2
53834	7	Sololá	710	Panajachel	8	Panajachel	8	Agosto	2023-11-08T00:00:00	2024-11-08T02:00:00	7	Dirección del viento	3.22
53835	7	Sololá	710	Panajachel	8	Panajachel	8	Agosto	2023-11-08T00:00:00	2024-11-08T02:00:00	1	Precipitación	0
53836	7	Sololá	710	Panajachel	8	Panajachel	8	Agosto	2023-11-08T00:00:00	2024-11-08T02:00:00	8	Radiación solar	0
53837	7	Sololá	710	Panajachel	8	Panajachel	8	Agosto	2023-11-08T00:00:00	2024-11-08T03:00:00	2	Temperatura media	17.7
53838	7	Sololá	710	Panajachel	8	Panajachel	8	Agosto	2023-11-08T00:00:00	2024-11-08T03:00:00	4	Temperatura máxima	18.2
53839	7	Sololá	710	Panajachel	8	Panajachel	8	Agosto	2023-11-08T00:00:00	2024-11-08T03:00:00	3	Temperatura mínima	17.7
53840	7	Sololá	710	Panajachel	8	Panajachel	8	Agosto	2023-11-08T00:00:00	2024-11-08T03:00:00	5	Humedad	84
53841	7	Sololá	710	Panajachel	8	Panajachel	8	Agosto	2023-11-08T00:00:00	2024-11-08T03:00:00	6	Velocidad del viento	3.2
53842	7	Sololá	710	Panajachel	8	Panajachel	8	Agosto	2023-11-08T00:00:00	2024-11-08T03:00:00	7	Dirección del viento	3.22
53843	7	Sololá	710	Panajachel	8	Panajachel	8	Agosto	2023-11-08T00:00:00	2024-11-08T03:00:00	1	Precipitación	0
53844	7	Sololá	710	Panajachel	8	Panajachel	8	Agosto	2023-11-08T00:00:00	2024-11-08T03:00:00	8	Radiación solar	0
53845	7	Sololá	710	Panajachel	8	Panajachel	8	Agosto	2023-11-08T00:00:00	2024-11-08T04:00:00	2	Temperatura media	17.3
53846	7	Sololá	710	Panajachel	8	Panajachel	8	Agosto	2023-11-08T00:00:00	2024-11-08T04:00:00	4	Temperatura máxima	17.7
53847	7	Sololá	710	Panajachel	8	Panajachel	8	Agosto	2023-11-08T00:00:00	2024-11-08T04:00:00	3	Temperatura mínima	17.3
53848	7	Sololá	710	Panajachel	8	Panajachel	8	Agosto	2023-11-08T00:00:00	2024-11-08T04:00:00	5	Humedad	87
53849	7	Sololá	710	Panajachel	8	Panajachel	8	Agosto	2023-11-08T00:00:00	2024-11-08T04:00:00	6	Velocidad del viento	3.2
53850	7	Sololá	710	Panajachel	8	Panajachel	8	Agosto	2023-11-08T00:00:00	2024-11-08T04:00:00	7	Dirección del viento	3.22
53851	7	Sololá	710	Panajachel	8	Panajachel	8	Agosto	2023-11-08T00:00:00	2024-11-08T04:00:00	1	Precipitación	0
53852	7	Sololá	710	Panajachel	8	Panajachel	8	Agosto	2023-11-08T00:00:00	2024-11-08T04:00:00	8	Radiación solar	0
53853	7	Sololá	710	Panajachel	8	Panajachel	8	Agosto	2023-11-08T00:00:00	2024-11-08T05:00:00	2	Temperatura media	17.1
53854	7	Sololá	710	Panajachel	8	Panajachel	8	Agosto	2023-11-08T00:00:00	2024-11-08T05:00:00	4	Temperatura máxima	17.3
53855	7	Sololá	710	Panajachel	8	Panajachel	8	Agosto	2023-11-08T00:00:00	2024-11-08T05:00:00	3	Temperatura mínima	16.9
53856	7	Sololá	710	Panajachel	8	Panajachel	8	Agosto	2023-11-08T00:00:00	2024-11-08T05:00:00	5	Humedad	85
53857	7	Sololá	710	Panajachel	8	Panajachel	8	Agosto	2023-11-08T00:00:00	2024-11-08T05:00:00	6	Velocidad del viento	3.2
53858	7	Sololá	710	Panajachel	8	Panajachel	8	Agosto	2023-11-08T00:00:00	2024-11-08T05:00:00	7	Dirección del viento	3.22
53859	7	Sololá	710	Panajachel	8	Panajachel	8	Agosto	2023-11-08T00:00:00	2024-11-08T05:00:00	1	Precipitación	0
53860	7	Sololá	710	Panajachel	8	Panajachel	8	Agosto	2023-11-08T00:00:00	2024-11-08T05:00:00	8	Radiación solar	0
53861	7	Sololá	710	Panajachel	8	Panajachel	8	Agosto	2023-11-08T00:00:00	2024-11-08T06:00:00	2	Temperatura media	16.4
53862	7	Sololá	710	Panajachel	8	Panajachel	8	Agosto	2023-11-08T00:00:00	2024-11-08T06:00:00	4	Temperatura máxima	17.1
53863	7	Sololá	710	Panajachel	8	Panajachel	8	Agosto	2023-11-08T00:00:00	2024-11-08T06:00:00	3	Temperatura mínima	16.4
53864	7	Sololá	710	Panajachel	8	Panajachel	8	Agosto	2023-11-08T00:00:00	2024-11-08T06:00:00	5	Humedad	86
53865	7	Sololá	710	Panajachel	8	Panajachel	8	Agosto	2023-11-08T00:00:00	2024-11-08T06:00:00	6	Velocidad del viento	3.2
53866	7	Sololá	710	Panajachel	8	Panajachel	8	Agosto	2023-11-08T00:00:00	2024-11-08T06:00:00	7	Dirección del viento	3.22
53867	7	Sololá	710	Panajachel	8	Panajachel	8	Agosto	2023-11-08T00:00:00	2024-11-08T06:00:00	1	Precipitación	0
53868	7	Sololá	710	Panajachel	8	Panajachel	8	Agosto	2023-11-08T00:00:00	2024-11-08T06:00:00	8	Radiación solar	0
53869	7	Sololá	710	Panajachel	8	Panajachel	8	Agosto	2023-11-08T00:00:00	2024-11-08T07:00:00	2	Temperatura media	18.4
53870	7	Sololá	710	Panajachel	8	Panajachel	8	Agosto	2023-11-08T00:00:00	2024-11-08T07:00:00	4	Temperatura máxima	18.4
53871	7	Sololá	710	Panajachel	8	Panajachel	8	Agosto	2023-11-08T00:00:00	2024-11-08T07:00:00	3	Temperatura mínima	16.3
53872	7	Sololá	710	Panajachel	8	Panajachel	8	Agosto	2023-11-08T00:00:00	2024-11-08T07:00:00	5	Humedad	83
53873	7	Sololá	710	Panajachel	8	Panajachel	8	Agosto	2023-11-08T00:00:00	2024-11-08T07:00:00	6	Velocidad del viento	3.2
53874	7	Sololá	710	Panajachel	8	Panajachel	8	Agosto	2023-11-08T00:00:00	2024-11-08T07:00:00	7	Dirección del viento	3.22
53875	7	Sololá	710	Panajachel	8	Panajachel	8	Agosto	2023-11-08T00:00:00	2024-11-08T07:00:00	1	Precipitación	0
53876	7	Sololá	710	Panajachel	8	Panajachel	8	Agosto	2023-11-08T00:00:00	2024-11-08T07:00:00	8	Radiación solar	69
53877	7	Sololá	710	Panajachel	8	Panajachel	8	Agosto	2023-11-08T00:00:00	2024-11-08T08:00:00	2	Temperatura media	22.3
53878	7	Sololá	710	Panajachel	8	Panajachel	8	Agosto	2023-11-08T00:00:00	2024-11-08T08:00:00	4	Temperatura máxima	22.3
53879	7	Sololá	710	Panajachel	8	Panajachel	8	Agosto	2023-11-08T00:00:00	2024-11-08T08:00:00	3	Temperatura mínima	18.5
53880	7	Sololá	710	Panajachel	8	Panajachel	8	Agosto	2023-11-08T00:00:00	2024-11-08T08:00:00	5	Humedad	72
53881	7	Sololá	710	Panajachel	8	Panajachel	8	Agosto	2023-11-08T00:00:00	2024-11-08T08:00:00	6	Velocidad del viento	0
53882	7	Sololá	710	Panajachel	8	Panajachel	8	Agosto	2023-11-08T00:00:00	2024-11-08T08:00:00	7	Dirección del viento	0
53883	7	Sololá	710	Panajachel	8	Panajachel	8	Agosto	2023-11-08T00:00:00	2024-11-08T08:00:00	1	Precipitación	0
53884	7	Sololá	710	Panajachel	8	Panajachel	8	Agosto	2023-11-08T00:00:00	2024-11-08T08:00:00	8	Radiación solar	319
53885	7	Sololá	710	Panajachel	8	Panajachel	8	Agosto	2023-11-08T00:00:00	2024-11-08T09:00:00	2	Temperatura media	21.8
53886	7	Sololá	710	Panajachel	8	Panajachel	8	Agosto	2023-11-08T00:00:00	2024-11-08T09:00:00	4	Temperatura máxima	22.6
53887	7	Sololá	710	Panajachel	8	Panajachel	8	Agosto	2023-11-08T00:00:00	2024-11-08T09:00:00	3	Temperatura mínima	21.7
53888	7	Sololá	710	Panajachel	8	Panajachel	8	Agosto	2023-11-08T00:00:00	2024-11-08T09:00:00	5	Humedad	77
53889	7	Sololá	710	Panajachel	8	Panajachel	8	Agosto	2023-11-08T00:00:00	2024-11-08T09:00:00	6	Velocidad del viento	1.6
53890	7	Sololá	710	Panajachel	8	Panajachel	8	Agosto	2023-11-08T00:00:00	2024-11-08T09:00:00	7	Dirección del viento	1.61
53891	7	Sololá	710	Panajachel	8	Panajachel	8	Agosto	2023-11-08T00:00:00	2024-11-08T09:00:00	1	Precipitación	0
53892	7	Sololá	710	Panajachel	8	Panajachel	8	Agosto	2023-11-08T00:00:00	2024-11-08T09:00:00	8	Radiación solar	440
53893	7	Sololá	710	Panajachel	8	Panajachel	8	Agosto	2023-11-08T00:00:00	2024-11-08T10:00:00	2	Temperatura media	21.8
53894	7	Sololá	710	Panajachel	8	Panajachel	8	Agosto	2023-11-08T00:00:00	2024-11-08T10:00:00	4	Temperatura máxima	22.7
53895	7	Sololá	710	Panajachel	8	Panajachel	8	Agosto	2023-11-08T00:00:00	2024-11-08T10:00:00	3	Temperatura mínima	21.8
53896	7	Sololá	710	Panajachel	8	Panajachel	8	Agosto	2023-11-08T00:00:00	2024-11-08T10:00:00	5	Humedad	80
53897	7	Sololá	710	Panajachel	8	Panajachel	8	Agosto	2023-11-08T00:00:00	2024-11-08T10:00:00	6	Velocidad del viento	3.2
53898	7	Sololá	710	Panajachel	8	Panajachel	8	Agosto	2023-11-08T00:00:00	2024-11-08T10:00:00	7	Dirección del viento	3.22
53899	7	Sololá	710	Panajachel	8	Panajachel	8	Agosto	2023-11-08T00:00:00	2024-11-08T10:00:00	1	Precipitación	0
53900	7	Sololá	710	Panajachel	8	Panajachel	8	Agosto	2023-11-08T00:00:00	2024-11-08T10:00:00	8	Radiación solar	527
53901	7	Sololá	710	Panajachel	8	Panajachel	8	Agosto	2023-11-08T00:00:00	2024-11-08T11:00:00	2	Temperatura media	23.1
53902	7	Sololá	710	Panajachel	8	Panajachel	8	Agosto	2023-11-08T00:00:00	2024-11-08T11:00:00	4	Temperatura máxima	23.1
53903	7	Sololá	710	Panajachel	8	Panajachel	8	Agosto	2023-11-08T00:00:00	2024-11-08T11:00:00	3	Temperatura mínima	21.8
53904	7	Sololá	710	Panajachel	8	Panajachel	8	Agosto	2023-11-08T00:00:00	2024-11-08T11:00:00	5	Humedad	76
53905	7	Sololá	710	Panajachel	8	Panajachel	8	Agosto	2023-11-08T00:00:00	2024-11-08T11:00:00	6	Velocidad del viento	1.6
53906	7	Sololá	710	Panajachel	8	Panajachel	8	Agosto	2023-11-08T00:00:00	2024-11-08T11:00:00	7	Dirección del viento	1.61
53907	7	Sololá	710	Panajachel	8	Panajachel	8	Agosto	2023-11-08T00:00:00	2024-11-08T11:00:00	1	Precipitación	0
53908	7	Sololá	710	Panajachel	8	Panajachel	8	Agosto	2023-11-08T00:00:00	2024-11-08T11:00:00	8	Radiación solar	530
53909	7	Sololá	710	Panajachel	8	Panajachel	8	Agosto	2023-11-08T00:00:00	2024-11-08T12:00:00	2	Temperatura media	24.9
53910	7	Sololá	710	Panajachel	8	Panajachel	8	Agosto	2023-11-08T00:00:00	2024-11-08T12:00:00	4	Temperatura máxima	24.9
53911	7	Sololá	710	Panajachel	8	Panajachel	8	Agosto	2023-11-08T00:00:00	2024-11-08T12:00:00	3	Temperatura mínima	23.1
53912	7	Sololá	710	Panajachel	8	Panajachel	8	Agosto	2023-11-08T00:00:00	2024-11-08T12:00:00	5	Humedad	68
53913	7	Sololá	710	Panajachel	8	Panajachel	8	Agosto	2023-11-08T00:00:00	2024-11-08T12:00:00	6	Velocidad del viento	1.6
53914	7	Sololá	710	Panajachel	8	Panajachel	8	Agosto	2023-11-08T00:00:00	2024-11-08T12:00:00	7	Dirección del viento	1.61
53915	7	Sololá	710	Panajachel	8	Panajachel	8	Agosto	2023-11-08T00:00:00	2024-11-08T12:00:00	1	Precipitación	0
53916	7	Sololá	710	Panajachel	8	Panajachel	8	Agosto	2023-11-08T00:00:00	2024-11-08T12:00:00	8	Radiación solar	777
53917	7	Sololá	710	Panajachel	8	Panajachel	8	Agosto	2023-11-08T00:00:00	2024-11-08T13:00:00	2	Temperatura media	24.9
53918	7	Sololá	710	Panajachel	8	Panajachel	8	Agosto	2023-11-08T00:00:00	2024-11-08T13:00:00	4	Temperatura máxima	25.1
53919	7	Sololá	710	Panajachel	8	Panajachel	8	Agosto	2023-11-08T00:00:00	2024-11-08T13:00:00	3	Temperatura mínima	24.2
53920	7	Sololá	710	Panajachel	8	Panajachel	8	Agosto	2023-11-08T00:00:00	2024-11-08T13:00:00	5	Humedad	70
53921	7	Sololá	710	Panajachel	8	Panajachel	8	Agosto	2023-11-08T00:00:00	2024-11-08T13:00:00	6	Velocidad del viento	3.2
53922	7	Sololá	710	Panajachel	8	Panajachel	8	Agosto	2023-11-08T00:00:00	2024-11-08T13:00:00	7	Dirección del viento	3.22
53923	7	Sololá	710	Panajachel	8	Panajachel	8	Agosto	2023-11-08T00:00:00	2024-11-08T13:00:00	1	Precipitación	0
53924	7	Sololá	710	Panajachel	8	Panajachel	8	Agosto	2023-11-08T00:00:00	2024-11-08T13:00:00	8	Radiación solar	707
53925	7	Sololá	710	Panajachel	8	Panajachel	8	Agosto	2023-11-08T00:00:00	2024-11-08T14:00:00	2	Temperatura media	25.3
53926	7	Sololá	710	Panajachel	8	Panajachel	8	Agosto	2023-11-08T00:00:00	2024-11-08T14:00:00	4	Temperatura máxima	25.4
53927	7	Sololá	710	Panajachel	8	Panajachel	8	Agosto	2023-11-08T00:00:00	2024-11-08T14:00:00	3	Temperatura mínima	24.8
53928	7	Sololá	710	Panajachel	8	Panajachel	8	Agosto	2023-11-08T00:00:00	2024-11-08T14:00:00	5	Humedad	69
53929	7	Sololá	710	Panajachel	8	Panajachel	8	Agosto	2023-11-08T00:00:00	2024-11-08T14:00:00	6	Velocidad del viento	3.2
53930	7	Sololá	710	Panajachel	8	Panajachel	8	Agosto	2023-11-08T00:00:00	2024-11-08T14:00:00	7	Dirección del viento	3.22
53931	7	Sololá	710	Panajachel	8	Panajachel	8	Agosto	2023-11-08T00:00:00	2024-11-08T14:00:00	1	Precipitación	0
53932	7	Sololá	710	Panajachel	8	Panajachel	8	Agosto	2023-11-08T00:00:00	2024-11-08T14:00:00	8	Radiación solar	706
53933	7	Sololá	710	Panajachel	8	Panajachel	8	Agosto	2023-11-08T00:00:00	2024-11-08T15:00:00	2	Temperatura media	24.6
53934	7	Sololá	710	Panajachel	8	Panajachel	8	Agosto	2023-11-08T00:00:00	2024-11-08T15:00:00	4	Temperatura máxima	25.4
53935	7	Sololá	710	Panajachel	8	Panajachel	8	Agosto	2023-11-08T00:00:00	2024-11-08T15:00:00	3	Temperatura mínima	24.4
53936	7	Sololá	710	Panajachel	8	Panajachel	8	Agosto	2023-11-08T00:00:00	2024-11-08T15:00:00	5	Humedad	76
53937	7	Sololá	710	Panajachel	8	Panajachel	8	Agosto	2023-11-08T00:00:00	2024-11-08T15:00:00	6	Velocidad del viento	3.2
53938	7	Sololá	710	Panajachel	8	Panajachel	8	Agosto	2023-11-08T00:00:00	2024-11-08T15:00:00	7	Dirección del viento	3.22
53939	7	Sololá	710	Panajachel	8	Panajachel	8	Agosto	2023-11-08T00:00:00	2024-11-08T15:00:00	1	Precipitación	0
53940	7	Sololá	710	Panajachel	8	Panajachel	8	Agosto	2023-11-08T00:00:00	2024-11-08T15:00:00	8	Radiación solar	563
53941	7	Sololá	710	Panajachel	8	Panajachel	8	Agosto	2023-11-08T00:00:00	2024-11-08T16:00:00	2	Temperatura media	23.6
53942	7	Sololá	710	Panajachel	8	Panajachel	8	Agosto	2023-11-08T00:00:00	2024-11-08T16:00:00	4	Temperatura máxima	24.7
53943	7	Sololá	710	Panajachel	8	Panajachel	8	Agosto	2023-11-08T00:00:00	2024-11-08T16:00:00	3	Temperatura mínima	23.4
53944	7	Sololá	710	Panajachel	8	Panajachel	8	Agosto	2023-11-08T00:00:00	2024-11-08T16:00:00	5	Humedad	85
53945	7	Sololá	710	Panajachel	8	Panajachel	8	Agosto	2023-11-08T00:00:00	2024-11-08T16:00:00	6	Velocidad del viento	1.6
53946	7	Sololá	710	Panajachel	8	Panajachel	8	Agosto	2023-11-08T00:00:00	2024-11-08T16:00:00	7	Dirección del viento	1.61
53947	7	Sololá	710	Panajachel	8	Panajachel	8	Agosto	2023-11-08T00:00:00	2024-11-08T16:00:00	1	Precipitación	1.2
53948	7	Sololá	710	Panajachel	8	Panajachel	8	Agosto	2023-11-08T00:00:00	2024-11-08T16:00:00	8	Radiación solar	311
53949	7	Sololá	710	Panajachel	8	Panajachel	8	Agosto	2023-11-08T00:00:00	2024-11-08T17:00:00	2	Temperatura media	23.4
53950	7	Sololá	710	Panajachel	8	Panajachel	8	Agosto	2023-11-08T00:00:00	2024-11-08T17:00:00	4	Temperatura máxima	23.8
53951	7	Sololá	710	Panajachel	8	Panajachel	8	Agosto	2023-11-08T00:00:00	2024-11-08T17:00:00	3	Temperatura mínima	23.4
53952	7	Sololá	710	Panajachel	8	Panajachel	8	Agosto	2023-11-08T00:00:00	2024-11-08T17:00:00	5	Humedad	83
53953	7	Sololá	710	Panajachel	8	Panajachel	8	Agosto	2023-11-08T00:00:00	2024-11-08T17:00:00	6	Velocidad del viento	1.6
53954	7	Sololá	710	Panajachel	8	Panajachel	8	Agosto	2023-11-08T00:00:00	2024-11-08T17:00:00	7	Dirección del viento	1.61
53955	7	Sololá	710	Panajachel	8	Panajachel	8	Agosto	2023-11-08T00:00:00	2024-11-08T17:00:00	1	Precipitación	0
53956	7	Sololá	710	Panajachel	8	Panajachel	8	Agosto	2023-11-08T00:00:00	2024-11-08T17:00:00	8	Radiación solar	185
53957	7	Sololá	710	Panajachel	8	Panajachel	8	Agosto	2023-11-08T00:00:00	2024-11-08T18:00:00	2	Temperatura media	22.6
53958	7	Sololá	710	Panajachel	8	Panajachel	8	Agosto	2023-11-08T00:00:00	2024-11-08T18:00:00	4	Temperatura máxima	23.4
53959	7	Sololá	710	Panajachel	8	Panajachel	8	Agosto	2023-11-08T00:00:00	2024-11-08T18:00:00	3	Temperatura mínima	22.6
53960	7	Sololá	710	Panajachel	8	Panajachel	8	Agosto	2023-11-08T00:00:00	2024-11-08T18:00:00	5	Humedad	87
53961	7	Sololá	710	Panajachel	8	Panajachel	8	Agosto	2023-11-08T00:00:00	2024-11-08T18:00:00	6	Velocidad del viento	0
53962	7	Sololá	710	Panajachel	8	Panajachel	8	Agosto	2023-11-08T00:00:00	2024-11-08T18:00:00	7	Dirección del viento	0
53963	7	Sololá	710	Panajachel	8	Panajachel	8	Agosto	2023-11-08T00:00:00	2024-11-08T18:00:00	1	Precipitación	0
53964	7	Sololá	710	Panajachel	8	Panajachel	8	Agosto	2023-11-08T00:00:00	2024-11-08T18:00:00	8	Radiación solar	56
53965	7	Sololá	710	Panajachel	8	Panajachel	8	Agosto	2023-11-08T00:00:00	2024-11-08T19:00:00	2	Temperatura media	21.3
53966	7	Sololá	710	Panajachel	8	Panajachel	8	Agosto	2023-11-08T00:00:00	2024-11-08T19:00:00	4	Temperatura máxima	22.6
53967	7	Sololá	710	Panajachel	8	Panajachel	8	Agosto	2023-11-08T00:00:00	2024-11-08T19:00:00	3	Temperatura mínima	21.3
53968	7	Sololá	710	Panajachel	8	Panajachel	8	Agosto	2023-11-08T00:00:00	2024-11-08T19:00:00	5	Humedad	92
53969	7	Sololá	710	Panajachel	8	Panajachel	8	Agosto	2023-11-08T00:00:00	2024-11-08T19:00:00	6	Velocidad del viento	1.6
53970	7	Sololá	710	Panajachel	8	Panajachel	8	Agosto	2023-11-08T00:00:00	2024-11-08T19:00:00	7	Dirección del viento	1.61
53971	7	Sololá	710	Panajachel	8	Panajachel	8	Agosto	2023-11-08T00:00:00	2024-11-08T19:00:00	1	Precipitación	0
53972	7	Sololá	710	Panajachel	8	Panajachel	8	Agosto	2023-11-08T00:00:00	2024-11-08T19:00:00	8	Radiación solar	0
53973	7	Sololá	710	Panajachel	8	Panajachel	8	Agosto	2023-11-08T00:00:00	2024-11-08T20:00:00	2	Temperatura media	20.5
53974	7	Sololá	710	Panajachel	8	Panajachel	8	Agosto	2023-11-08T00:00:00	2024-11-08T20:00:00	4	Temperatura máxima	21.4
53975	7	Sololá	710	Panajachel	8	Panajachel	8	Agosto	2023-11-08T00:00:00	2024-11-08T20:00:00	3	Temperatura mínima	20.5
53976	7	Sololá	710	Panajachel	8	Panajachel	8	Agosto	2023-11-08T00:00:00	2024-11-08T20:00:00	5	Humedad	93
53977	7	Sololá	710	Panajachel	8	Panajachel	8	Agosto	2023-11-08T00:00:00	2024-11-08T20:00:00	6	Velocidad del viento	1.6
53978	7	Sololá	710	Panajachel	8	Panajachel	8	Agosto	2023-11-08T00:00:00	2024-11-08T20:00:00	7	Dirección del viento	1.61
53979	7	Sololá	710	Panajachel	8	Panajachel	8	Agosto	2023-11-08T00:00:00	2024-11-08T20:00:00	1	Precipitación	0
53980	7	Sololá	710	Panajachel	8	Panajachel	8	Agosto	2023-11-08T00:00:00	2024-11-08T20:00:00	8	Radiación solar	0
53981	7	Sololá	710	Panajachel	8	Panajachel	8	Agosto	2023-11-08T00:00:00	2024-11-08T21:00:00	2	Temperatura media	20.1
53982	7	Sololá	710	Panajachel	8	Panajachel	8	Agosto	2023-11-08T00:00:00	2024-11-08T21:00:00	4	Temperatura máxima	20.5
53983	7	Sololá	710	Panajachel	8	Panajachel	8	Agosto	2023-11-08T00:00:00	2024-11-08T21:00:00	3	Temperatura mínima	19.9
53984	7	Sololá	710	Panajachel	8	Panajachel	8	Agosto	2023-11-08T00:00:00	2024-11-08T21:00:00	5	Humedad	91
53985	7	Sololá	710	Panajachel	8	Panajachel	8	Agosto	2023-11-08T00:00:00	2024-11-08T21:00:00	6	Velocidad del viento	1.6
53986	7	Sololá	710	Panajachel	8	Panajachel	8	Agosto	2023-11-08T00:00:00	2024-11-08T21:00:00	7	Dirección del viento	1.61
53987	7	Sololá	710	Panajachel	8	Panajachel	8	Agosto	2023-11-08T00:00:00	2024-11-08T21:00:00	1	Precipitación	0
53988	7	Sololá	710	Panajachel	8	Panajachel	8	Agosto	2023-11-08T00:00:00	2024-11-08T21:00:00	8	Radiación solar	0
53989	7	Sololá	710	Panajachel	8	Panajachel	8	Agosto	2023-11-08T00:00:00	2024-11-08T22:00:00	2	Temperatura media	19.4
53990	7	Sololá	710	Panajachel	8	Panajachel	8	Agosto	2023-11-08T00:00:00	2024-11-08T22:00:00	4	Temperatura máxima	20.1
53991	7	Sololá	710	Panajachel	8	Panajachel	8	Agosto	2023-11-08T00:00:00	2024-11-08T22:00:00	3	Temperatura mínima	19.4
53992	7	Sololá	710	Panajachel	8	Panajachel	8	Agosto	2023-11-08T00:00:00	2024-11-08T22:00:00	5	Humedad	89
53993	7	Sololá	710	Panajachel	8	Panajachel	8	Agosto	2023-11-08T00:00:00	2024-11-08T22:00:00	6	Velocidad del viento	3.2
53994	7	Sololá	710	Panajachel	8	Panajachel	8	Agosto	2023-11-08T00:00:00	2024-11-08T22:00:00	7	Dirección del viento	3.22
53995	7	Sololá	710	Panajachel	8	Panajachel	8	Agosto	2023-11-08T00:00:00	2024-11-08T22:00:00	1	Precipitación	0
53996	7	Sololá	710	Panajachel	8	Panajachel	8	Agosto	2023-11-08T00:00:00	2024-11-08T22:00:00	8	Radiación solar	0
53997	7	Sololá	710	Panajachel	8	Panajachel	8	Agosto	2023-11-08T00:00:00	2024-11-08T23:00:00	2	Temperatura media	19
53998	7	Sololá	710	Panajachel	8	Panajachel	8	Agosto	2023-11-08T00:00:00	2024-11-08T23:00:00	4	Temperatura máxima	19.4
53999	7	Sololá	710	Panajachel	8	Panajachel	8	Agosto	2023-11-08T00:00:00	2024-11-08T23:00:00	3	Temperatura mínima	18.9
54000	7	Sololá	710	Panajachel	8	Panajachel	8	Agosto	2023-11-08T00:00:00	2024-11-08T23:00:00	5	Humedad	88
54001	7	Sololá	710	Panajachel	8	Panajachel	8	Agosto	2023-11-08T00:00:00	2024-11-08T23:00:00	6	Velocidad del viento	3.2
54002	7	Sololá	710	Panajachel	8	Panajachel	8	Agosto	2023-11-08T00:00:00	2024-11-08T23:00:00	7	Dirección del viento	3.22
54003	7	Sololá	710	Panajachel	8	Panajachel	8	Agosto	2023-11-08T00:00:00	2024-11-08T23:00:00	1	Precipitación	0
54004	7	Sololá	710	Panajachel	8	Panajachel	8	Agosto	2023-11-08T00:00:00	2024-11-08T23:00:00	8	Radiación solar	0
54005	7	Sololá	710	Panajachel	8	Panajachel	8	Agosto	2023-12-08T00:00:00	2024-11-08T00:00:00	2	Temperatura media	18.9
54006	7	Sololá	710	Panajachel	8	Panajachel	8	Agosto	2023-12-08T00:00:00	2024-11-08T00:00:00	4	Temperatura máxima	19.2
54007	7	Sololá	710	Panajachel	8	Panajachel	8	Agosto	2023-12-08T00:00:00	2024-11-08T00:00:00	3	Temperatura mínima	18.8
54008	7	Sololá	710	Panajachel	8	Panajachel	8	Agosto	2023-12-08T00:00:00	2024-11-08T00:00:00	5	Humedad	84
54009	7	Sololá	710	Panajachel	8	Panajachel	8	Agosto	2023-12-08T00:00:00	2024-11-08T00:00:00	6	Velocidad del viento	3.2
54010	7	Sololá	710	Panajachel	8	Panajachel	8	Agosto	2023-12-08T00:00:00	2024-11-08T00:00:00	7	Dirección del viento	3.22
54011	7	Sololá	710	Panajachel	8	Panajachel	8	Agosto	2023-12-08T00:00:00	2024-11-08T00:00:00	1	Precipitación	0
54012	7	Sololá	710	Panajachel	8	Panajachel	8	Agosto	2023-12-08T00:00:00	2024-11-08T00:00:00	8	Radiación solar	0
54013	7	Sololá	710	Panajachel	8	Panajachel	8	Agosto	2023-12-08T00:00:00	2024-11-08T01:00:00	2	Temperatura media	18.6
54014	7	Sololá	710	Panajachel	8	Panajachel	8	Agosto	2023-12-08T00:00:00	2024-11-08T01:00:00	4	Temperatura máxima	19.2
54015	7	Sololá	710	Panajachel	8	Panajachel	8	Agosto	2023-12-08T00:00:00	2024-11-08T01:00:00	3	Temperatura mínima	18.6
54016	7	Sololá	710	Panajachel	8	Panajachel	8	Agosto	2023-12-08T00:00:00	2024-11-08T01:00:00	5	Humedad	86
54017	7	Sololá	710	Panajachel	8	Panajachel	8	Agosto	2023-12-08T00:00:00	2024-11-08T01:00:00	6	Velocidad del viento	3.2
54018	7	Sololá	710	Panajachel	8	Panajachel	8	Agosto	2023-12-08T00:00:00	2024-11-08T01:00:00	7	Dirección del viento	3.22
54019	7	Sololá	710	Panajachel	8	Panajachel	8	Agosto	2023-12-08T00:00:00	2024-11-08T01:00:00	1	Precipitación	0
54020	7	Sololá	710	Panajachel	8	Panajachel	8	Agosto	2023-12-08T00:00:00	2024-11-08T01:00:00	8	Radiación solar	0
54021	7	Sololá	710	Panajachel	8	Panajachel	8	Agosto	2023-12-08T00:00:00	2024-11-08T02:00:00	2	Temperatura media	18.6
54022	7	Sololá	710	Panajachel	8	Panajachel	8	Agosto	2023-12-08T00:00:00	2024-11-08T02:00:00	4	Temperatura máxima	18.8
54023	7	Sololá	710	Panajachel	8	Panajachel	8	Agosto	2023-12-08T00:00:00	2024-11-08T02:00:00	3	Temperatura mínima	18.2
54024	7	Sololá	710	Panajachel	8	Panajachel	8	Agosto	2023-12-08T00:00:00	2024-11-08T02:00:00	5	Humedad	85
54025	7	Sololá	710	Panajachel	8	Panajachel	8	Agosto	2023-12-08T00:00:00	2024-11-08T02:00:00	6	Velocidad del viento	3.2
54026	7	Sololá	710	Panajachel	8	Panajachel	8	Agosto	2023-12-08T00:00:00	2024-11-08T02:00:00	7	Dirección del viento	3.22
54027	7	Sololá	710	Panajachel	8	Panajachel	8	Agosto	2023-12-08T00:00:00	2024-11-08T02:00:00	1	Precipitación	0
54028	7	Sololá	710	Panajachel	8	Panajachel	8	Agosto	2023-12-08T00:00:00	2024-11-08T02:00:00	8	Radiación solar	0
54029	7	Sololá	710	Panajachel	8	Panajachel	8	Agosto	2023-12-08T00:00:00	2024-11-08T03:00:00	2	Temperatura media	17.9
54030	7	Sololá	710	Panajachel	8	Panajachel	8	Agosto	2023-12-08T00:00:00	2024-11-08T03:00:00	4	Temperatura máxima	18.6
54031	7	Sololá	710	Panajachel	8	Panajachel	8	Agosto	2023-12-08T00:00:00	2024-11-08T03:00:00	3	Temperatura mínima	17.8
54032	7	Sololá	710	Panajachel	8	Panajachel	8	Agosto	2023-12-08T00:00:00	2024-11-08T03:00:00	5	Humedad	86
54033	7	Sololá	710	Panajachel	8	Panajachel	8	Agosto	2023-12-08T00:00:00	2024-11-08T03:00:00	6	Velocidad del viento	4.8
54034	7	Sololá	710	Panajachel	8	Panajachel	8	Agosto	2023-12-08T00:00:00	2024-11-08T03:00:00	7	Dirección del viento	4.83
54035	7	Sololá	710	Panajachel	8	Panajachel	8	Agosto	2023-12-08T00:00:00	2024-11-08T03:00:00	1	Precipitación	0
54036	7	Sololá	710	Panajachel	8	Panajachel	8	Agosto	2023-12-08T00:00:00	2024-11-08T03:00:00	8	Radiación solar	0
54037	7	Sololá	710	Panajachel	8	Panajachel	8	Agosto	2023-12-08T00:00:00	2024-11-08T04:00:00	2	Temperatura media	18.1
54038	7	Sololá	710	Panajachel	8	Panajachel	8	Agosto	2023-12-08T00:00:00	2024-11-08T04:00:00	4	Temperatura máxima	18.7
54039	7	Sololá	710	Panajachel	8	Panajachel	8	Agosto	2023-12-08T00:00:00	2024-11-08T04:00:00	3	Temperatura mínima	17.9
54040	7	Sololá	710	Panajachel	8	Panajachel	8	Agosto	2023-12-08T00:00:00	2024-11-08T04:00:00	5	Humedad	84
54041	7	Sololá	710	Panajachel	8	Panajachel	8	Agosto	2023-12-08T00:00:00	2024-11-08T04:00:00	6	Velocidad del viento	4.8
54042	7	Sololá	710	Panajachel	8	Panajachel	8	Agosto	2023-12-08T00:00:00	2024-11-08T04:00:00	7	Dirección del viento	4.83
54043	7	Sololá	710	Panajachel	8	Panajachel	8	Agosto	2023-12-08T00:00:00	2024-11-08T04:00:00	1	Precipitación	0
54044	7	Sololá	710	Panajachel	8	Panajachel	8	Agosto	2023-12-08T00:00:00	2024-11-08T04:00:00	8	Radiación solar	0
54045	7	Sololá	710	Panajachel	8	Panajachel	8	Agosto	2023-12-08T00:00:00	2024-11-08T05:00:00	2	Temperatura media	19.1
54046	7	Sololá	710	Panajachel	8	Panajachel	8	Agosto	2023-12-08T00:00:00	2024-11-08T05:00:00	4	Temperatura máxima	19.1
54047	7	Sololá	710	Panajachel	8	Panajachel	8	Agosto	2023-12-08T00:00:00	2024-11-08T05:00:00	3	Temperatura mínima	18.1
54048	7	Sololá	710	Panajachel	8	Panajachel	8	Agosto	2023-12-08T00:00:00	2024-11-08T05:00:00	5	Humedad	81
54049	7	Sololá	710	Panajachel	8	Panajachel	8	Agosto	2023-12-08T00:00:00	2024-11-08T05:00:00	6	Velocidad del viento	3.2
54050	7	Sololá	710	Panajachel	8	Panajachel	8	Agosto	2023-12-08T00:00:00	2024-11-08T05:00:00	7	Dirección del viento	3.22
54051	7	Sololá	710	Panajachel	8	Panajachel	8	Agosto	2023-12-08T00:00:00	2024-11-08T05:00:00	1	Precipitación	0
54052	7	Sololá	710	Panajachel	8	Panajachel	8	Agosto	2023-12-08T00:00:00	2024-11-08T05:00:00	8	Radiación solar	0
54053	7	Sololá	710	Panajachel	8	Panajachel	8	Agosto	2023-12-08T00:00:00	2024-11-08T06:00:00	2	Temperatura media	20
54054	7	Sololá	710	Panajachel	8	Panajachel	8	Agosto	2023-12-08T00:00:00	2024-11-08T06:00:00	4	Temperatura máxima	20.1
54055	7	Sololá	710	Panajachel	8	Panajachel	8	Agosto	2023-12-08T00:00:00	2024-11-08T06:00:00	3	Temperatura mínima	19
54056	7	Sololá	710	Panajachel	8	Panajachel	8	Agosto	2023-12-08T00:00:00	2024-11-08T06:00:00	5	Humedad	77
54057	7	Sololá	710	Panajachel	8	Panajachel	8	Agosto	2023-12-08T00:00:00	2024-11-08T06:00:00	6	Velocidad del viento	3.2
54058	7	Sololá	710	Panajachel	8	Panajachel	8	Agosto	2023-12-08T00:00:00	2024-11-08T06:00:00	7	Dirección del viento	3.22
54059	7	Sololá	710	Panajachel	8	Panajachel	8	Agosto	2023-12-08T00:00:00	2024-11-08T06:00:00	1	Precipitación	0
54060	7	Sololá	710	Panajachel	8	Panajachel	8	Agosto	2023-12-08T00:00:00	2024-11-08T06:00:00	8	Radiación solar	2
54061	7	Sololá	710	Panajachel	8	Panajachel	8	Agosto	2023-12-08T00:00:00	2024-11-08T07:00:00	2	Temperatura media	18.7
54062	7	Sololá	710	Panajachel	8	Panajachel	8	Agosto	2023-12-08T00:00:00	2024-11-08T07:00:00	4	Temperatura máxima	20.1
54063	7	Sololá	710	Panajachel	8	Panajachel	8	Agosto	2023-12-08T00:00:00	2024-11-08T07:00:00	3	Temperatura mínima	18.7
54064	7	Sololá	710	Panajachel	8	Panajachel	8	Agosto	2023-12-08T00:00:00	2024-11-08T07:00:00	5	Humedad	85
54065	7	Sololá	710	Panajachel	8	Panajachel	8	Agosto	2023-12-08T00:00:00	2024-11-08T07:00:00	6	Velocidad del viento	1.6
54066	7	Sololá	710	Panajachel	8	Panajachel	8	Agosto	2023-12-08T00:00:00	2024-11-08T07:00:00	7	Dirección del viento	1.61
54067	7	Sololá	710	Panajachel	8	Panajachel	8	Agosto	2023-12-08T00:00:00	2024-11-08T07:00:00	1	Precipitación	0
54068	7	Sololá	710	Panajachel	8	Panajachel	8	Agosto	2023-12-08T00:00:00	2024-11-08T07:00:00	8	Radiación solar	44
54069	7	Sololá	710	Panajachel	8	Panajachel	8	Agosto	2023-12-08T00:00:00	2024-11-08T08:00:00	2	Temperatura media	20.6
54070	7	Sololá	710	Panajachel	8	Panajachel	8	Agosto	2023-12-08T00:00:00	2024-11-08T08:00:00	4	Temperatura máxima	20.6
54071	7	Sololá	710	Panajachel	8	Panajachel	8	Agosto	2023-12-08T00:00:00	2024-11-08T08:00:00	3	Temperatura mínima	18.7
54072	7	Sololá	710	Panajachel	8	Panajachel	8	Agosto	2023-12-08T00:00:00	2024-11-08T08:00:00	5	Humedad	81
54073	7	Sololá	710	Panajachel	8	Panajachel	8	Agosto	2023-12-08T00:00:00	2024-11-08T08:00:00	6	Velocidad del viento	1.6
54074	7	Sololá	710	Panajachel	8	Panajachel	8	Agosto	2023-12-08T00:00:00	2024-11-08T08:00:00	7	Dirección del viento	1.61
54075	7	Sololá	710	Panajachel	8	Panajachel	8	Agosto	2023-12-08T00:00:00	2024-11-08T08:00:00	1	Precipitación	0
54076	7	Sololá	710	Panajachel	8	Panajachel	8	Agosto	2023-12-08T00:00:00	2024-11-08T08:00:00	8	Radiación solar	159
54077	7	Sololá	710	Panajachel	8	Panajachel	8	Agosto	2023-12-08T00:00:00	2024-11-08T09:00:00	2	Temperatura media	22.6
54078	7	Sololá	710	Panajachel	8	Panajachel	8	Agosto	2023-12-08T00:00:00	2024-11-08T09:00:00	4	Temperatura máxima	22.6
54079	7	Sololá	710	Panajachel	8	Panajachel	8	Agosto	2023-12-08T00:00:00	2024-11-08T09:00:00	3	Temperatura mínima	20.6
54080	7	Sololá	710	Panajachel	8	Panajachel	8	Agosto	2023-12-08T00:00:00	2024-11-08T09:00:00	5	Humedad	75
54081	7	Sololá	710	Panajachel	8	Panajachel	8	Agosto	2023-12-08T00:00:00	2024-11-08T09:00:00	6	Velocidad del viento	1.6
54082	7	Sololá	710	Panajachel	8	Panajachel	8	Agosto	2023-12-08T00:00:00	2024-11-08T09:00:00	7	Dirección del viento	1.61
54083	7	Sololá	710	Panajachel	8	Panajachel	8	Agosto	2023-12-08T00:00:00	2024-11-08T09:00:00	1	Precipitación	0
54084	7	Sololá	710	Panajachel	8	Panajachel	8	Agosto	2023-12-08T00:00:00	2024-11-08T09:00:00	8	Radiación solar	383
54085	7	Sololá	710	Panajachel	8	Panajachel	8	Agosto	2023-12-08T00:00:00	2024-11-08T10:00:00	2	Temperatura media	23.6
54086	7	Sololá	710	Panajachel	8	Panajachel	8	Agosto	2023-12-08T00:00:00	2024-11-08T10:00:00	4	Temperatura máxima	23.8
54087	7	Sololá	710	Panajachel	8	Panajachel	8	Agosto	2023-12-08T00:00:00	2024-11-08T10:00:00	3	Temperatura mínima	22.6
54088	7	Sololá	710	Panajachel	8	Panajachel	8	Agosto	2023-12-08T00:00:00	2024-11-08T10:00:00	5	Humedad	71
54089	7	Sololá	710	Panajachel	8	Panajachel	8	Agosto	2023-12-08T00:00:00	2024-11-08T10:00:00	6	Velocidad del viento	1.6
54090	7	Sololá	710	Panajachel	8	Panajachel	8	Agosto	2023-12-08T00:00:00	2024-11-08T10:00:00	7	Dirección del viento	1.61
54091	7	Sololá	710	Panajachel	8	Panajachel	8	Agosto	2023-12-08T00:00:00	2024-11-08T10:00:00	1	Precipitación	0
54092	7	Sololá	710	Panajachel	8	Panajachel	8	Agosto	2023-12-08T00:00:00	2024-11-08T10:00:00	8	Radiación solar	678
54093	7	Sololá	710	Panajachel	8	Panajachel	8	Agosto	2023-12-08T00:00:00	2024-11-08T11:00:00	2	Temperatura media	24.3
54094	7	Sololá	710	Panajachel	8	Panajachel	8	Agosto	2023-12-08T00:00:00	2024-11-08T11:00:00	4	Temperatura máxima	24.8
54095	7	Sololá	710	Panajachel	8	Panajachel	8	Agosto	2023-12-08T00:00:00	2024-11-08T11:00:00	3	Temperatura mínima	23.6
54096	7	Sololá	710	Panajachel	8	Panajachel	8	Agosto	2023-12-08T00:00:00	2024-11-08T11:00:00	5	Humedad	69
54097	7	Sololá	710	Panajachel	8	Panajachel	8	Agosto	2023-12-08T00:00:00	2024-11-08T11:00:00	6	Velocidad del viento	3.2
54098	7	Sololá	710	Panajachel	8	Panajachel	8	Agosto	2023-12-08T00:00:00	2024-11-08T11:00:00	7	Dirección del viento	3.22
54099	7	Sololá	710	Panajachel	8	Panajachel	8	Agosto	2023-12-08T00:00:00	2024-11-08T11:00:00	1	Precipitación	0
54100	7	Sololá	710	Panajachel	8	Panajachel	8	Agosto	2023-12-08T00:00:00	2024-11-08T11:00:00	8	Radiación solar	843
54101	7	Sololá	710	Panajachel	8	Panajachel	8	Agosto	2023-12-08T00:00:00	2024-11-08T12:00:00	2	Temperatura media	24.9
54102	7	Sololá	710	Panajachel	8	Panajachel	8	Agosto	2023-12-08T00:00:00	2024-11-08T12:00:00	4	Temperatura máxima	24.9
54103	7	Sololá	710	Panajachel	8	Panajachel	8	Agosto	2023-12-08T00:00:00	2024-11-08T12:00:00	3	Temperatura mínima	23.8
54104	7	Sololá	710	Panajachel	8	Panajachel	8	Agosto	2023-12-08T00:00:00	2024-11-08T12:00:00	5	Humedad	71
54105	7	Sololá	710	Panajachel	8	Panajachel	8	Agosto	2023-12-08T00:00:00	2024-11-08T12:00:00	6	Velocidad del viento	4.8
54106	7	Sololá	710	Panajachel	8	Panajachel	8	Agosto	2023-12-08T00:00:00	2024-11-08T12:00:00	7	Dirección del viento	4.83
54107	7	Sololá	710	Panajachel	8	Panajachel	8	Agosto	2023-12-08T00:00:00	2024-11-08T12:00:00	1	Precipitación	0
54108	7	Sololá	710	Panajachel	8	Panajachel	8	Agosto	2023-12-08T00:00:00	2024-11-08T12:00:00	8	Radiación solar	754
54109	7	Sololá	710	Panajachel	8	Panajachel	8	Agosto	2023-12-08T00:00:00	2024-11-08T13:00:00	2	Temperatura media	25.4
54110	7	Sololá	710	Panajachel	8	Panajachel	8	Agosto	2023-12-08T00:00:00	2024-11-08T13:00:00	4	Temperatura máxima	25.4
54111	7	Sololá	710	Panajachel	8	Panajachel	8	Agosto	2023-12-08T00:00:00	2024-11-08T13:00:00	3	Temperatura mínima	24.8
54112	7	Sololá	710	Panajachel	8	Panajachel	8	Agosto	2023-12-08T00:00:00	2024-11-08T13:00:00	5	Humedad	77
54113	7	Sololá	710	Panajachel	8	Panajachel	8	Agosto	2023-12-08T00:00:00	2024-11-08T13:00:00	6	Velocidad del viento	4.8
54114	7	Sololá	710	Panajachel	8	Panajachel	8	Agosto	2023-12-08T00:00:00	2024-11-08T13:00:00	7	Dirección del viento	4.83
54115	7	Sololá	710	Panajachel	8	Panajachel	8	Agosto	2023-12-08T00:00:00	2024-11-08T13:00:00	1	Precipitación	0
54116	7	Sololá	710	Panajachel	8	Panajachel	8	Agosto	2023-12-08T00:00:00	2024-11-08T13:00:00	8	Radiación solar	846
54117	7	Sololá	710	Panajachel	8	Panajachel	8	Agosto	2023-12-08T00:00:00	2024-11-08T14:00:00	2	Temperatura media	24.9
54118	7	Sololá	710	Panajachel	8	Panajachel	8	Agosto	2023-12-08T00:00:00	2024-11-08T14:00:00	4	Temperatura máxima	26.1
54119	7	Sololá	710	Panajachel	8	Panajachel	8	Agosto	2023-12-08T00:00:00	2024-11-08T14:00:00	3	Temperatura mínima	24.9
54120	7	Sololá	710	Panajachel	8	Panajachel	8	Agosto	2023-12-08T00:00:00	2024-11-08T14:00:00	5	Humedad	76
54121	7	Sololá	710	Panajachel	8	Panajachel	8	Agosto	2023-12-08T00:00:00	2024-11-08T14:00:00	6	Velocidad del viento	3.2
54122	7	Sololá	710	Panajachel	8	Panajachel	8	Agosto	2023-12-08T00:00:00	2024-11-08T14:00:00	7	Dirección del viento	3.22
54123	7	Sololá	710	Panajachel	8	Panajachel	8	Agosto	2023-12-08T00:00:00	2024-11-08T14:00:00	1	Precipitación	0
54124	7	Sololá	710	Panajachel	8	Panajachel	8	Agosto	2023-12-08T00:00:00	2024-11-08T14:00:00	8	Radiación solar	627
54125	7	Sololá	710	Panajachel	8	Panajachel	8	Agosto	2023-12-08T00:00:00	2024-11-08T15:00:00	2	Temperatura media	24.7
54126	7	Sololá	710	Panajachel	8	Panajachel	8	Agosto	2023-12-08T00:00:00	2024-11-08T15:00:00	4	Temperatura máxima	25.8
54127	7	Sololá	710	Panajachel	8	Panajachel	8	Agosto	2023-12-08T00:00:00	2024-11-08T15:00:00	3	Temperatura mínima	24.5
54128	7	Sololá	710	Panajachel	8	Panajachel	8	Agosto	2023-12-08T00:00:00	2024-11-08T15:00:00	5	Humedad	83
54129	7	Sololá	710	Panajachel	8	Panajachel	8	Agosto	2023-12-08T00:00:00	2024-11-08T15:00:00	6	Velocidad del viento	4.8
54130	7	Sololá	710	Panajachel	8	Panajachel	8	Agosto	2023-12-08T00:00:00	2024-11-08T15:00:00	7	Dirección del viento	4.83
54131	7	Sololá	710	Panajachel	8	Panajachel	8	Agosto	2023-12-08T00:00:00	2024-11-08T15:00:00	1	Precipitación	0
54132	7	Sololá	710	Panajachel	8	Panajachel	8	Agosto	2023-12-08T00:00:00	2024-11-08T15:00:00	8	Radiación solar	721
54133	7	Sololá	710	Panajachel	8	Panajachel	8	Agosto	2023-12-08T00:00:00	2024-11-08T16:00:00	2	Temperatura media	24.6
54134	7	Sololá	710	Panajachel	8	Panajachel	8	Agosto	2023-12-08T00:00:00	2024-11-08T16:00:00	4	Temperatura máxima	24.8
54135	7	Sololá	710	Panajachel	8	Panajachel	8	Agosto	2023-12-08T00:00:00	2024-11-08T16:00:00	3	Temperatura mínima	23.9
54136	7	Sololá	710	Panajachel	8	Panajachel	8	Agosto	2023-12-08T00:00:00	2024-11-08T16:00:00	5	Humedad	83
54137	7	Sololá	710	Panajachel	8	Panajachel	8	Agosto	2023-12-08T00:00:00	2024-11-08T16:00:00	6	Velocidad del viento	6.4
54138	7	Sololá	710	Panajachel	8	Panajachel	8	Agosto	2023-12-08T00:00:00	2024-11-08T16:00:00	7	Dirección del viento	6.44
54139	7	Sololá	710	Panajachel	8	Panajachel	8	Agosto	2023-12-08T00:00:00	2024-11-08T16:00:00	1	Precipitación	0
54140	7	Sololá	710	Panajachel	8	Panajachel	8	Agosto	2023-12-08T00:00:00	2024-11-08T16:00:00	8	Radiación solar	253
54141	7	Sololá	710	Panajachel	8	Panajachel	8	Agosto	2023-12-08T00:00:00	2024-11-08T17:00:00	2	Temperatura media	23.4
54142	7	Sololá	710	Panajachel	8	Panajachel	8	Agosto	2023-12-08T00:00:00	2024-11-08T17:00:00	4	Temperatura máxima	25
54143	7	Sololá	710	Panajachel	8	Panajachel	8	Agosto	2023-12-08T00:00:00	2024-11-08T17:00:00	3	Temperatura mínima	23.4
54144	7	Sololá	710	Panajachel	8	Panajachel	8	Agosto	2023-12-08T00:00:00	2024-11-08T17:00:00	5	Humedad	84
54145	7	Sololá	710	Panajachel	8	Panajachel	8	Agosto	2023-12-08T00:00:00	2024-11-08T17:00:00	6	Velocidad del viento	6.4
54146	7	Sololá	710	Panajachel	8	Panajachel	8	Agosto	2023-12-08T00:00:00	2024-11-08T17:00:00	7	Dirección del viento	6.44
54147	7	Sololá	710	Panajachel	8	Panajachel	8	Agosto	2023-12-08T00:00:00	2024-11-08T17:00:00	1	Precipitación	0
54148	7	Sololá	710	Panajachel	8	Panajachel	8	Agosto	2023-12-08T00:00:00	2024-11-08T17:00:00	8	Radiación solar	179
54149	7	Sololá	710	Panajachel	8	Panajachel	8	Agosto	2023-12-08T00:00:00	2024-11-08T18:00:00	2	Temperatura media	23.1
54150	7	Sololá	710	Panajachel	8	Panajachel	8	Agosto	2023-12-08T00:00:00	2024-11-08T18:00:00	4	Temperatura máxima	23.7
54151	7	Sololá	710	Panajachel	8	Panajachel	8	Agosto	2023-12-08T00:00:00	2024-11-08T18:00:00	3	Temperatura mínima	23.1
54152	7	Sololá	710	Panajachel	8	Panajachel	8	Agosto	2023-12-08T00:00:00	2024-11-08T18:00:00	5	Humedad	85
54153	7	Sololá	710	Panajachel	8	Panajachel	8	Agosto	2023-12-08T00:00:00	2024-11-08T18:00:00	6	Velocidad del viento	1.6
54154	7	Sololá	710	Panajachel	8	Panajachel	8	Agosto	2023-12-08T00:00:00	2024-11-08T18:00:00	7	Dirección del viento	1.61
54155	7	Sololá	710	Panajachel	8	Panajachel	8	Agosto	2023-12-08T00:00:00	2024-11-08T18:00:00	1	Precipitación	0
54156	7	Sololá	710	Panajachel	8	Panajachel	8	Agosto	2023-12-08T00:00:00	2024-11-08T18:00:00	8	Radiación solar	81
54157	7	Sololá	710	Panajachel	8	Panajachel	8	Agosto	2023-12-08T00:00:00	2024-11-08T19:00:00	2	Temperatura media	21.9
54158	7	Sololá	710	Panajachel	8	Panajachel	8	Agosto	2023-12-08T00:00:00	2024-11-08T19:00:00	4	Temperatura máxima	23.1
54159	7	Sololá	710	Panajachel	8	Panajachel	8	Agosto	2023-12-08T00:00:00	2024-11-08T19:00:00	3	Temperatura mínima	21.9
54160	7	Sololá	710	Panajachel	8	Panajachel	8	Agosto	2023-12-08T00:00:00	2024-11-08T19:00:00	5	Humedad	83
54161	7	Sololá	710	Panajachel	8	Panajachel	8	Agosto	2023-12-08T00:00:00	2024-11-08T19:00:00	6	Velocidad del viento	0
54162	7	Sololá	710	Panajachel	8	Panajachel	8	Agosto	2023-12-08T00:00:00	2024-11-08T19:00:00	7	Dirección del viento	0
54163	7	Sololá	710	Panajachel	8	Panajachel	8	Agosto	2023-12-08T00:00:00	2024-11-08T19:00:00	1	Precipitación	0
54164	7	Sololá	710	Panajachel	8	Panajachel	8	Agosto	2023-12-08T00:00:00	2024-11-08T19:00:00	8	Radiación solar	0
54165	7	Sololá	710	Panajachel	8	Panajachel	8	Agosto	2023-12-08T00:00:00	2024-11-08T20:00:00	2	Temperatura media	21.5
54166	7	Sololá	710	Panajachel	8	Panajachel	8	Agosto	2023-12-08T00:00:00	2024-11-08T20:00:00	4	Temperatura máxima	21.9
54167	7	Sololá	710	Panajachel	8	Panajachel	8	Agosto	2023-12-08T00:00:00	2024-11-08T20:00:00	3	Temperatura mínima	21.4
54168	7	Sololá	710	Panajachel	8	Panajachel	8	Agosto	2023-12-08T00:00:00	2024-11-08T20:00:00	5	Humedad	80
54169	7	Sololá	710	Panajachel	8	Panajachel	8	Agosto	2023-12-08T00:00:00	2024-11-08T20:00:00	6	Velocidad del viento	1.6
54170	7	Sololá	710	Panajachel	8	Panajachel	8	Agosto	2023-12-08T00:00:00	2024-11-08T20:00:00	7	Dirección del viento	1.61
54171	7	Sololá	710	Panajachel	8	Panajachel	8	Agosto	2023-12-08T00:00:00	2024-11-08T20:00:00	1	Precipitación	0
54172	7	Sololá	710	Panajachel	8	Panajachel	8	Agosto	2023-12-08T00:00:00	2024-11-08T20:00:00	8	Radiación solar	0
54173	7	Sololá	710	Panajachel	8	Panajachel	8	Agosto	2023-12-08T00:00:00	2024-11-08T21:00:00	2	Temperatura media	21.8
54174	7	Sololá	710	Panajachel	8	Panajachel	8	Agosto	2023-12-08T00:00:00	2024-11-08T21:00:00	4	Temperatura máxima	21.9
54175	7	Sololá	710	Panajachel	8	Panajachel	8	Agosto	2023-12-08T00:00:00	2024-11-08T21:00:00	3	Temperatura mínima	21.4
54176	7	Sololá	710	Panajachel	8	Panajachel	8	Agosto	2023-12-08T00:00:00	2024-11-08T21:00:00	5	Humedad	76
54177	7	Sololá	710	Panajachel	8	Panajachel	8	Agosto	2023-12-08T00:00:00	2024-11-08T21:00:00	6	Velocidad del viento	1.6
54178	7	Sololá	710	Panajachel	8	Panajachel	8	Agosto	2023-12-08T00:00:00	2024-11-08T21:00:00	7	Dirección del viento	1.61
54179	7	Sololá	710	Panajachel	8	Panajachel	8	Agosto	2023-12-08T00:00:00	2024-11-08T21:00:00	1	Precipitación	0
54180	7	Sololá	710	Panajachel	8	Panajachel	8	Agosto	2023-12-08T00:00:00	2024-11-08T21:00:00	8	Radiación solar	0
54181	7	Sololá	710	Panajachel	8	Panajachel	8	Agosto	2023-12-08T00:00:00	2024-11-08T22:00:00	2	Temperatura media	20.6
54182	7	Sololá	710	Panajachel	8	Panajachel	8	Agosto	2023-12-08T00:00:00	2024-11-08T22:00:00	4	Temperatura máxima	21.9
54183	7	Sololá	710	Panajachel	8	Panajachel	8	Agosto	2023-12-08T00:00:00	2024-11-08T22:00:00	3	Temperatura mínima	20.6
54184	7	Sololá	710	Panajachel	8	Panajachel	8	Agosto	2023-12-08T00:00:00	2024-11-08T22:00:00	5	Humedad	78
54185	7	Sololá	710	Panajachel	8	Panajachel	8	Agosto	2023-12-08T00:00:00	2024-11-08T22:00:00	6	Velocidad del viento	1.6
54186	7	Sololá	710	Panajachel	8	Panajachel	8	Agosto	2023-12-08T00:00:00	2024-11-08T22:00:00	7	Dirección del viento	1.61
54187	7	Sololá	710	Panajachel	8	Panajachel	8	Agosto	2023-12-08T00:00:00	2024-11-08T22:00:00	1	Precipitación	0
54188	7	Sololá	710	Panajachel	8	Panajachel	8	Agosto	2023-12-08T00:00:00	2024-11-08T22:00:00	8	Radiación solar	0
54189	7	Sololá	710	Panajachel	8	Panajachel	8	Agosto	2023-12-08T00:00:00	2024-11-08T23:00:00	2	Temperatura media	21.8
54190	7	Sololá	710	Panajachel	8	Panajachel	8	Agosto	2023-12-08T00:00:00	2024-11-08T23:00:00	4	Temperatura máxima	21.8
54191	7	Sololá	710	Panajachel	8	Panajachel	8	Agosto	2023-12-08T00:00:00	2024-11-08T23:00:00	3	Temperatura mínima	20.4
54192	7	Sololá	710	Panajachel	8	Panajachel	8	Agosto	2023-12-08T00:00:00	2024-11-08T23:00:00	5	Humedad	71
54193	7	Sololá	710	Panajachel	8	Panajachel	8	Agosto	2023-12-08T00:00:00	2024-11-08T23:00:00	6	Velocidad del viento	4.8
54194	7	Sololá	710	Panajachel	8	Panajachel	8	Agosto	2023-12-08T00:00:00	2024-11-08T23:00:00	7	Dirección del viento	4.83
54195	7	Sololá	710	Panajachel	8	Panajachel	8	Agosto	2023-12-08T00:00:00	2024-11-08T23:00:00	1	Precipitación	0
54196	7	Sololá	710	Panajachel	8	Panajachel	8	Agosto	2023-12-08T00:00:00	2024-11-08T23:00:00	8	Radiación solar	0
54197	7	Sololá	710	Panajachel	8	Panajachel	8	Agosto	2023-08-13T00:00:00	2024-11-08T00:00:00	2	Temperatura media	21.3
54198	7	Sololá	710	Panajachel	8	Panajachel	8	Agosto	2023-08-13T00:00:00	2024-11-08T00:00:00	4	Temperatura máxima	21.9
54199	7	Sololá	710	Panajachel	8	Panajachel	8	Agosto	2023-08-13T00:00:00	2024-11-08T00:00:00	3	Temperatura mínima	21.3
54200	7	Sololá	710	Panajachel	8	Panajachel	8	Agosto	2023-08-13T00:00:00	2024-11-08T00:00:00	5	Humedad	69
54201	7	Sololá	710	Panajachel	8	Panajachel	8	Agosto	2023-08-13T00:00:00	2024-11-08T00:00:00	6	Velocidad del viento	12.9
54202	7	Sololá	710	Panajachel	8	Panajachel	8	Agosto	2023-08-13T00:00:00	2024-11-08T00:00:00	7	Dirección del viento	12.87
54203	7	Sololá	710	Panajachel	8	Panajachel	8	Agosto	2023-08-13T00:00:00	2024-11-08T00:00:00	1	Precipitación	0
54204	7	Sololá	710	Panajachel	8	Panajachel	8	Agosto	2023-08-13T00:00:00	2024-11-08T00:00:00	8	Radiación solar	0
54205	7	Sololá	710	Panajachel	8	Panajachel	8	Agosto	2023-08-13T00:00:00	2024-11-08T01:00:00	2	Temperatura media	20.5
54206	7	Sololá	710	Panajachel	8	Panajachel	8	Agosto	2023-08-13T00:00:00	2024-11-08T01:00:00	4	Temperatura máxima	21.3
54207	7	Sololá	710	Panajachel	8	Panajachel	8	Agosto	2023-08-13T00:00:00	2024-11-08T01:00:00	3	Temperatura mínima	20.4
54208	7	Sololá	710	Panajachel	8	Panajachel	8	Agosto	2023-08-13T00:00:00	2024-11-08T01:00:00	5	Humedad	69
54209	7	Sololá	710	Panajachel	8	Panajachel	8	Agosto	2023-08-13T00:00:00	2024-11-08T01:00:00	6	Velocidad del viento	9.7
54210	7	Sololá	710	Panajachel	8	Panajachel	8	Agosto	2023-08-13T00:00:00	2024-11-08T01:00:00	7	Dirección del viento	9.66
54211	7	Sololá	710	Panajachel	8	Panajachel	8	Agosto	2023-08-13T00:00:00	2024-11-08T01:00:00	1	Precipitación	0
54212	7	Sololá	710	Panajachel	8	Panajachel	8	Agosto	2023-08-13T00:00:00	2024-11-08T01:00:00	8	Radiación solar	0
54213	7	Sololá	710	Panajachel	8	Panajachel	8	Agosto	2023-08-13T00:00:00	2024-11-08T02:00:00	2	Temperatura media	20.6
54214	7	Sololá	710	Panajachel	8	Panajachel	8	Agosto	2023-08-13T00:00:00	2024-11-08T02:00:00	4	Temperatura máxima	20.6
54215	7	Sololá	710	Panajachel	8	Panajachel	8	Agosto	2023-08-13T00:00:00	2024-11-08T02:00:00	3	Temperatura mínima	20.3
54216	7	Sololá	710	Panajachel	8	Panajachel	8	Agosto	2023-08-13T00:00:00	2024-11-08T02:00:00	5	Humedad	66
54217	7	Sololá	710	Panajachel	8	Panajachel	8	Agosto	2023-08-13T00:00:00	2024-11-08T02:00:00	6	Velocidad del viento	12.9
54218	7	Sololá	710	Panajachel	8	Panajachel	8	Agosto	2023-08-13T00:00:00	2024-11-08T02:00:00	7	Dirección del viento	12.87
54219	7	Sololá	710	Panajachel	8	Panajachel	8	Agosto	2023-08-13T00:00:00	2024-11-08T02:00:00	1	Precipitación	0
54220	7	Sololá	710	Panajachel	8	Panajachel	8	Agosto	2023-08-13T00:00:00	2024-11-08T02:00:00	8	Radiación solar	0
54221	7	Sololá	710	Panajachel	8	Panajachel	8	Agosto	2023-08-13T00:00:00	2024-11-08T03:00:00	2	Temperatura media	20.8
54222	7	Sololá	710	Panajachel	8	Panajachel	8	Agosto	2023-08-13T00:00:00	2024-11-08T03:00:00	4	Temperatura máxima	20.8
54223	7	Sololá	710	Panajachel	8	Panajachel	8	Agosto	2023-08-13T00:00:00	2024-11-08T03:00:00	3	Temperatura mínima	20.6
54224	7	Sololá	710	Panajachel	8	Panajachel	8	Agosto	2023-08-13T00:00:00	2024-11-08T03:00:00	5	Humedad	67
54225	7	Sololá	710	Panajachel	8	Panajachel	8	Agosto	2023-08-13T00:00:00	2024-11-08T03:00:00	6	Velocidad del viento	16.1
54226	7	Sololá	710	Panajachel	8	Panajachel	8	Agosto	2023-08-13T00:00:00	2024-11-08T03:00:00	7	Dirección del viento	16.09
54227	7	Sololá	710	Panajachel	8	Panajachel	8	Agosto	2023-08-13T00:00:00	2024-11-08T03:00:00	1	Precipitación	0
54228	7	Sololá	710	Panajachel	8	Panajachel	8	Agosto	2023-08-13T00:00:00	2024-11-08T03:00:00	8	Radiación solar	0
54229	7	Sololá	710	Panajachel	8	Panajachel	8	Agosto	2023-08-13T00:00:00	2024-11-08T04:00:00	2	Temperatura media	20.7
54230	7	Sololá	710	Panajachel	8	Panajachel	8	Agosto	2023-08-13T00:00:00	2024-11-08T04:00:00	4	Temperatura máxima	21
54231	7	Sololá	710	Panajachel	8	Panajachel	8	Agosto	2023-08-13T00:00:00	2024-11-08T04:00:00	3	Temperatura mínima	20.6
54232	7	Sololá	710	Panajachel	8	Panajachel	8	Agosto	2023-08-13T00:00:00	2024-11-08T04:00:00	5	Humedad	67
54233	7	Sololá	710	Panajachel	8	Panajachel	8	Agosto	2023-08-13T00:00:00	2024-11-08T04:00:00	6	Velocidad del viento	6.4
54234	7	Sololá	710	Panajachel	8	Panajachel	8	Agosto	2023-08-13T00:00:00	2024-11-08T04:00:00	7	Dirección del viento	6.44
54235	7	Sololá	710	Panajachel	8	Panajachel	8	Agosto	2023-08-13T00:00:00	2024-11-08T04:00:00	1	Precipitación	0
54236	7	Sololá	710	Panajachel	8	Panajachel	8	Agosto	2023-08-13T00:00:00	2024-11-08T04:00:00	8	Radiación solar	0
54237	7	Sololá	710	Panajachel	8	Panajachel	8	Agosto	2023-08-13T00:00:00	2024-11-08T05:00:00	2	Temperatura media	21.1
54238	7	Sololá	710	Panajachel	8	Panajachel	8	Agosto	2023-08-13T00:00:00	2024-11-08T05:00:00	4	Temperatura máxima	21.1
54239	7	Sololá	710	Panajachel	8	Panajachel	8	Agosto	2023-08-13T00:00:00	2024-11-08T05:00:00	3	Temperatura mínima	19.8
54240	7	Sololá	710	Panajachel	8	Panajachel	8	Agosto	2023-08-13T00:00:00	2024-11-08T05:00:00	5	Humedad	67
54241	7	Sololá	710	Panajachel	8	Panajachel	8	Agosto	2023-08-13T00:00:00	2024-11-08T05:00:00	6	Velocidad del viento	3.2
54242	7	Sololá	710	Panajachel	8	Panajachel	8	Agosto	2023-08-13T00:00:00	2024-11-08T05:00:00	7	Dirección del viento	3.22
54243	7	Sololá	710	Panajachel	8	Panajachel	8	Agosto	2023-08-13T00:00:00	2024-11-08T05:00:00	1	Precipitación	0
54244	7	Sololá	710	Panajachel	8	Panajachel	8	Agosto	2023-08-13T00:00:00	2024-11-08T05:00:00	8	Radiación solar	0
54245	7	Sololá	710	Panajachel	8	Panajachel	8	Agosto	2023-08-13T00:00:00	2024-11-08T06:00:00	2	Temperatura media	19.8
54246	7	Sololá	710	Panajachel	8	Panajachel	8	Agosto	2023-08-13T00:00:00	2024-11-08T06:00:00	4	Temperatura máxima	21.1
54247	7	Sololá	710	Panajachel	8	Panajachel	8	Agosto	2023-08-13T00:00:00	2024-11-08T06:00:00	3	Temperatura mínima	19.8
54248	7	Sololá	710	Panajachel	8	Panajachel	8	Agosto	2023-08-13T00:00:00	2024-11-08T06:00:00	5	Humedad	73
54249	7	Sololá	710	Panajachel	8	Panajachel	8	Agosto	2023-08-13T00:00:00	2024-11-08T06:00:00	6	Velocidad del viento	1.6
54250	7	Sololá	710	Panajachel	8	Panajachel	8	Agosto	2023-08-13T00:00:00	2024-11-08T06:00:00	7	Dirección del viento	1.61
54251	7	Sololá	710	Panajachel	8	Panajachel	8	Agosto	2023-08-13T00:00:00	2024-11-08T06:00:00	1	Precipitación	0
54252	7	Sololá	710	Panajachel	8	Panajachel	8	Agosto	2023-08-13T00:00:00	2024-11-08T06:00:00	8	Radiación solar	0
54253	7	Sololá	710	Panajachel	8	Panajachel	8	Agosto	2023-08-13T00:00:00	2024-11-08T07:00:00	2	Temperatura media	21.4
54254	7	Sololá	710	Panajachel	8	Panajachel	8	Agosto	2023-08-13T00:00:00	2024-11-08T07:00:00	4	Temperatura máxima	21.4
54255	7	Sololá	710	Panajachel	8	Panajachel	8	Agosto	2023-08-13T00:00:00	2024-11-08T07:00:00	3	Temperatura mínima	19.8
54256	7	Sololá	710	Panajachel	8	Panajachel	8	Agosto	2023-08-13T00:00:00	2024-11-08T07:00:00	5	Humedad	70
54257	7	Sololá	710	Panajachel	8	Panajachel	8	Agosto	2023-08-13T00:00:00	2024-11-08T07:00:00	6	Velocidad del viento	6.4
54258	7	Sololá	710	Panajachel	8	Panajachel	8	Agosto	2023-08-13T00:00:00	2024-11-08T07:00:00	7	Dirección del viento	6.44
54259	7	Sololá	710	Panajachel	8	Panajachel	8	Agosto	2023-08-13T00:00:00	2024-11-08T07:00:00	1	Precipitación	0
54260	7	Sololá	710	Panajachel	8	Panajachel	8	Agosto	2023-08-13T00:00:00	2024-11-08T07:00:00	8	Radiación solar	45
54261	7	Sololá	710	Panajachel	8	Panajachel	8	Agosto	2023-08-13T00:00:00	2024-11-08T08:00:00	2	Temperatura media	22.1
54262	7	Sololá	710	Panajachel	8	Panajachel	8	Agosto	2023-08-13T00:00:00	2024-11-08T08:00:00	4	Temperatura máxima	22.1
54263	7	Sololá	710	Panajachel	8	Panajachel	8	Agosto	2023-08-13T00:00:00	2024-11-08T08:00:00	3	Temperatura mínima	21.3
54264	7	Sololá	710	Panajachel	8	Panajachel	8	Agosto	2023-08-13T00:00:00	2024-11-08T08:00:00	5	Humedad	69
54265	7	Sololá	710	Panajachel	8	Panajachel	8	Agosto	2023-08-13T00:00:00	2024-11-08T08:00:00	6	Velocidad del viento	8
54266	7	Sololá	710	Panajachel	8	Panajachel	8	Agosto	2023-08-13T00:00:00	2024-11-08T08:00:00	7	Dirección del viento	8.05
54267	7	Sololá	710	Panajachel	8	Panajachel	8	Agosto	2023-08-13T00:00:00	2024-11-08T08:00:00	1	Precipitación	0
54268	7	Sololá	710	Panajachel	8	Panajachel	8	Agosto	2023-08-13T00:00:00	2024-11-08T08:00:00	8	Radiación solar	193
54269	7	Sololá	710	Panajachel	8	Panajachel	8	Agosto	2023-08-13T00:00:00	2024-11-08T09:00:00	2	Temperatura media	23.9
54270	7	Sololá	710	Panajachel	8	Panajachel	8	Agosto	2023-08-13T00:00:00	2024-11-08T09:00:00	4	Temperatura máxima	23.9
54271	7	Sololá	710	Panajachel	8	Panajachel	8	Agosto	2023-08-13T00:00:00	2024-11-08T09:00:00	3	Temperatura mínima	22.1
54272	7	Sololá	710	Panajachel	8	Panajachel	8	Agosto	2023-08-13T00:00:00	2024-11-08T09:00:00	5	Humedad	68
54273	7	Sololá	710	Panajachel	8	Panajachel	8	Agosto	2023-08-13T00:00:00	2024-11-08T09:00:00	6	Velocidad del viento	8
54274	7	Sololá	710	Panajachel	8	Panajachel	8	Agosto	2023-08-13T00:00:00	2024-11-08T09:00:00	7	Dirección del viento	8.05
54275	7	Sololá	710	Panajachel	8	Panajachel	8	Agosto	2023-08-13T00:00:00	2024-11-08T09:00:00	1	Precipitación	0
54276	7	Sololá	710	Panajachel	8	Panajachel	8	Agosto	2023-08-13T00:00:00	2024-11-08T09:00:00	8	Radiación solar	477
54277	7	Sololá	710	Panajachel	8	Panajachel	8	Agosto	2023-08-13T00:00:00	2024-11-08T10:00:00	2	Temperatura media	24.9
54278	7	Sololá	710	Panajachel	8	Panajachel	8	Agosto	2023-08-13T00:00:00	2024-11-08T10:00:00	4	Temperatura máxima	25
54279	7	Sololá	710	Panajachel	8	Panajachel	8	Agosto	2023-08-13T00:00:00	2024-11-08T10:00:00	3	Temperatura mínima	23.6
54280	7	Sololá	710	Panajachel	8	Panajachel	8	Agosto	2023-08-13T00:00:00	2024-11-08T10:00:00	5	Humedad	62
54281	7	Sololá	710	Panajachel	8	Panajachel	8	Agosto	2023-08-13T00:00:00	2024-11-08T10:00:00	6	Velocidad del viento	4.8
54282	7	Sololá	710	Panajachel	8	Panajachel	8	Agosto	2023-08-13T00:00:00	2024-11-08T10:00:00	7	Dirección del viento	4.83
54283	7	Sololá	710	Panajachel	8	Panajachel	8	Agosto	2023-08-13T00:00:00	2024-11-08T10:00:00	1	Precipitación	0
54284	7	Sololá	710	Panajachel	8	Panajachel	8	Agosto	2023-08-13T00:00:00	2024-11-08T10:00:00	8	Radiación solar	659
54285	7	Sololá	710	Panajachel	8	Panajachel	8	Agosto	2023-08-13T00:00:00	2024-11-08T11:00:00	2	Temperatura media	25
54286	7	Sololá	710	Panajachel	8	Panajachel	8	Agosto	2023-08-13T00:00:00	2024-11-08T11:00:00	4	Temperatura máxima	25.5
54287	7	Sololá	710	Panajachel	8	Panajachel	8	Agosto	2023-08-13T00:00:00	2024-11-08T11:00:00	3	Temperatura mínima	24.8
54288	7	Sololá	710	Panajachel	8	Panajachel	8	Agosto	2023-08-13T00:00:00	2024-11-08T11:00:00	5	Humedad	62
54289	7	Sololá	710	Panajachel	8	Panajachel	8	Agosto	2023-08-13T00:00:00	2024-11-08T11:00:00	6	Velocidad del viento	4.8
54290	7	Sololá	710	Panajachel	8	Panajachel	8	Agosto	2023-08-13T00:00:00	2024-11-08T11:00:00	7	Dirección del viento	4.83
54291	7	Sololá	710	Panajachel	8	Panajachel	8	Agosto	2023-08-13T00:00:00	2024-11-08T11:00:00	1	Precipitación	0
54292	7	Sololá	710	Panajachel	8	Panajachel	8	Agosto	2023-08-13T00:00:00	2024-11-08T11:00:00	8	Radiación solar	568
54293	7	Sololá	710	Panajachel	8	Panajachel	8	Agosto	2023-08-13T00:00:00	2024-11-08T12:00:00	2	Temperatura media	24.8
54294	7	Sololá	710	Panajachel	8	Panajachel	8	Agosto	2023-08-13T00:00:00	2024-11-08T12:00:00	4	Temperatura máxima	25.2
54295	7	Sololá	710	Panajachel	8	Panajachel	8	Agosto	2023-08-13T00:00:00	2024-11-08T12:00:00	3	Temperatura mínima	24.7
54296	7	Sololá	710	Panajachel	8	Panajachel	8	Agosto	2023-08-13T00:00:00	2024-11-08T12:00:00	5	Humedad	66
54297	7	Sololá	710	Panajachel	8	Panajachel	8	Agosto	2023-08-13T00:00:00	2024-11-08T12:00:00	6	Velocidad del viento	1.6
54298	7	Sololá	710	Panajachel	8	Panajachel	8	Agosto	2023-08-13T00:00:00	2024-11-08T12:00:00	7	Dirección del viento	1.61
54299	7	Sololá	710	Panajachel	8	Panajachel	8	Agosto	2023-08-13T00:00:00	2024-11-08T12:00:00	1	Precipitación	0
54300	7	Sololá	710	Panajachel	8	Panajachel	8	Agosto	2023-08-13T00:00:00	2024-11-08T12:00:00	8	Radiación solar	273
54301	7	Sololá	710	Panajachel	8	Panajachel	8	Agosto	2023-08-13T00:00:00	2024-11-08T13:00:00	2	Temperatura media	25.7
54302	7	Sololá	710	Panajachel	8	Panajachel	8	Agosto	2023-08-13T00:00:00	2024-11-08T13:00:00	4	Temperatura máxima	26.7
54303	7	Sololá	710	Panajachel	8	Panajachel	8	Agosto	2023-08-13T00:00:00	2024-11-08T13:00:00	3	Temperatura mínima	24.8
54304	7	Sololá	710	Panajachel	8	Panajachel	8	Agosto	2023-08-13T00:00:00	2024-11-08T13:00:00	5	Humedad	73
54305	7	Sololá	710	Panajachel	8	Panajachel	8	Agosto	2023-08-13T00:00:00	2024-11-08T13:00:00	6	Velocidad del viento	4.8
54306	7	Sololá	710	Panajachel	8	Panajachel	8	Agosto	2023-08-13T00:00:00	2024-11-08T13:00:00	7	Dirección del viento	4.83
54307	7	Sololá	710	Panajachel	8	Panajachel	8	Agosto	2023-08-13T00:00:00	2024-11-08T13:00:00	1	Precipitación	0
54308	7	Sololá	710	Panajachel	8	Panajachel	8	Agosto	2023-08-13T00:00:00	2024-11-08T13:00:00	8	Radiación solar	904
54309	7	Sololá	710	Panajachel	8	Panajachel	8	Agosto	2023-08-13T00:00:00	2024-11-08T14:00:00	2	Temperatura media	23.9
54310	7	Sololá	710	Panajachel	8	Panajachel	8	Agosto	2023-08-13T00:00:00	2024-11-08T14:00:00	4	Temperatura máxima	25.6
54311	7	Sololá	710	Panajachel	8	Panajachel	8	Agosto	2023-08-13T00:00:00	2024-11-08T14:00:00	3	Temperatura mínima	23.7
54312	7	Sololá	710	Panajachel	8	Panajachel	8	Agosto	2023-08-13T00:00:00	2024-11-08T14:00:00	5	Humedad	73
54313	7	Sololá	710	Panajachel	8	Panajachel	8	Agosto	2023-08-13T00:00:00	2024-11-08T14:00:00	6	Velocidad del viento	3.2
54314	7	Sololá	710	Panajachel	8	Panajachel	8	Agosto	2023-08-13T00:00:00	2024-11-08T14:00:00	7	Dirección del viento	3.22
54315	7	Sololá	710	Panajachel	8	Panajachel	8	Agosto	2023-08-13T00:00:00	2024-11-08T14:00:00	1	Precipitación	0
54316	7	Sololá	710	Panajachel	8	Panajachel	8	Agosto	2023-08-13T00:00:00	2024-11-08T14:00:00	8	Radiación solar	402
54317	7	Sololá	710	Panajachel	8	Panajachel	8	Agosto	2023-08-13T00:00:00	2024-11-08T15:00:00	2	Temperatura media	22.4
54318	7	Sololá	710	Panajachel	8	Panajachel	8	Agosto	2023-08-13T00:00:00	2024-11-08T15:00:00	4	Temperatura máxima	24
54319	7	Sololá	710	Panajachel	8	Panajachel	8	Agosto	2023-08-13T00:00:00	2024-11-08T15:00:00	3	Temperatura mínima	22.4
54320	7	Sololá	710	Panajachel	8	Panajachel	8	Agosto	2023-08-13T00:00:00	2024-11-08T15:00:00	5	Humedad	86
54321	7	Sololá	710	Panajachel	8	Panajachel	8	Agosto	2023-08-13T00:00:00	2024-11-08T15:00:00	6	Velocidad del viento	4.8
54322	7	Sololá	710	Panajachel	8	Panajachel	8	Agosto	2023-08-13T00:00:00	2024-11-08T15:00:00	7	Dirección del viento	4.83
54323	7	Sololá	710	Panajachel	8	Panajachel	8	Agosto	2023-08-13T00:00:00	2024-11-08T15:00:00	1	Precipitación	0
54324	7	Sololá	710	Panajachel	8	Panajachel	8	Agosto	2023-08-13T00:00:00	2024-11-08T15:00:00	8	Radiación solar	299
54325	7	Sololá	710	Panajachel	8	Panajachel	8	Agosto	2023-08-13T00:00:00	2024-11-08T16:00:00	2	Temperatura media	21.4
54326	7	Sololá	710	Panajachel	8	Panajachel	8	Agosto	2023-08-13T00:00:00	2024-11-08T16:00:00	4	Temperatura máxima	22.4
54327	7	Sololá	710	Panajachel	8	Panajachel	8	Agosto	2023-08-13T00:00:00	2024-11-08T16:00:00	3	Temperatura mínima	21.3
54328	7	Sololá	710	Panajachel	8	Panajachel	8	Agosto	2023-08-13T00:00:00	2024-11-08T16:00:00	5	Humedad	88
54329	7	Sololá	710	Panajachel	8	Panajachel	8	Agosto	2023-08-13T00:00:00	2024-11-08T16:00:00	6	Velocidad del viento	6.4
54330	7	Sololá	710	Panajachel	8	Panajachel	8	Agosto	2023-08-13T00:00:00	2024-11-08T16:00:00	7	Dirección del viento	6.44
54331	7	Sololá	710	Panajachel	8	Panajachel	8	Agosto	2023-08-13T00:00:00	2024-11-08T16:00:00	1	Precipitación	0
54332	7	Sololá	710	Panajachel	8	Panajachel	8	Agosto	2023-08-13T00:00:00	2024-11-08T16:00:00	8	Radiación solar	210
54333	7	Sololá	710	Panajachel	8	Panajachel	8	Agosto	2023-08-13T00:00:00	2024-11-08T17:00:00	2	Temperatura media	21.1
54334	7	Sololá	710	Panajachel	8	Panajachel	8	Agosto	2023-08-13T00:00:00	2024-11-08T17:00:00	4	Temperatura máxima	21.4
54335	7	Sololá	710	Panajachel	8	Panajachel	8	Agosto	2023-08-13T00:00:00	2024-11-08T17:00:00	3	Temperatura mínima	21.1
54336	7	Sololá	710	Panajachel	8	Panajachel	8	Agosto	2023-08-13T00:00:00	2024-11-08T17:00:00	5	Humedad	85
54337	7	Sololá	710	Panajachel	8	Panajachel	8	Agosto	2023-08-13T00:00:00	2024-11-08T17:00:00	6	Velocidad del viento	1.6
54338	7	Sololá	710	Panajachel	8	Panajachel	8	Agosto	2023-08-13T00:00:00	2024-11-08T17:00:00	7	Dirección del viento	1.61
54339	7	Sololá	710	Panajachel	8	Panajachel	8	Agosto	2023-08-13T00:00:00	2024-11-08T17:00:00	1	Precipitación	0
54340	7	Sololá	710	Panajachel	8	Panajachel	8	Agosto	2023-08-13T00:00:00	2024-11-08T17:00:00	8	Radiación solar	115
54341	7	Sololá	710	Panajachel	8	Panajachel	8	Agosto	2023-08-13T00:00:00	2024-11-08T18:00:00	2	Temperatura media	20.9
54342	7	Sololá	710	Panajachel	8	Panajachel	8	Agosto	2023-08-13T00:00:00	2024-11-08T18:00:00	4	Temperatura máxima	21.1
54343	7	Sololá	710	Panajachel	8	Panajachel	8	Agosto	2023-08-13T00:00:00	2024-11-08T18:00:00	3	Temperatura mínima	20.9
54344	7	Sololá	710	Panajachel	8	Panajachel	8	Agosto	2023-08-13T00:00:00	2024-11-08T18:00:00	5	Humedad	87
54345	7	Sololá	710	Panajachel	8	Panajachel	8	Agosto	2023-08-13T00:00:00	2024-11-08T18:00:00	6	Velocidad del viento	1.6
54346	7	Sololá	710	Panajachel	8	Panajachel	8	Agosto	2023-08-13T00:00:00	2024-11-08T18:00:00	7	Dirección del viento	1.61
54347	7	Sololá	710	Panajachel	8	Panajachel	8	Agosto	2023-08-13T00:00:00	2024-11-08T18:00:00	1	Precipitación	0
54348	7	Sololá	710	Panajachel	8	Panajachel	8	Agosto	2023-08-13T00:00:00	2024-11-08T18:00:00	8	Radiación solar	69
54349	7	Sololá	710	Panajachel	8	Panajachel	8	Agosto	2023-08-13T00:00:00	2024-11-08T19:00:00	2	Temperatura media	18.4
54350	7	Sololá	710	Panajachel	8	Panajachel	8	Agosto	2023-08-13T00:00:00	2024-11-08T19:00:00	4	Temperatura máxima	20.9
54351	7	Sololá	710	Panajachel	8	Panajachel	8	Agosto	2023-08-13T00:00:00	2024-11-08T19:00:00	3	Temperatura mínima	18.4
54352	7	Sololá	710	Panajachel	8	Panajachel	8	Agosto	2023-08-13T00:00:00	2024-11-08T19:00:00	5	Humedad	91
54353	7	Sololá	710	Panajachel	8	Panajachel	8	Agosto	2023-08-13T00:00:00	2024-11-08T19:00:00	6	Velocidad del viento	3.2
54354	7	Sololá	710	Panajachel	8	Panajachel	8	Agosto	2023-08-13T00:00:00	2024-11-08T19:00:00	7	Dirección del viento	3.22
54355	7	Sololá	710	Panajachel	8	Panajachel	8	Agosto	2023-08-13T00:00:00	2024-11-08T19:00:00	1	Precipitación	5.6
54356	7	Sololá	710	Panajachel	8	Panajachel	8	Agosto	2023-08-13T00:00:00	2024-11-08T19:00:00	8	Radiación solar	0
54357	7	Sololá	710	Panajachel	8	Panajachel	8	Agosto	2023-08-13T00:00:00	2024-11-08T20:00:00	2	Temperatura media	17.7
54358	7	Sololá	710	Panajachel	8	Panajachel	8	Agosto	2023-08-13T00:00:00	2024-11-08T20:00:00	4	Temperatura máxima	18.4
54359	7	Sololá	710	Panajachel	8	Panajachel	8	Agosto	2023-08-13T00:00:00	2024-11-08T20:00:00	3	Temperatura mínima	17.6
54360	7	Sololá	710	Panajachel	8	Panajachel	8	Agosto	2023-08-13T00:00:00	2024-11-08T20:00:00	5	Humedad	91
54361	7	Sololá	710	Panajachel	8	Panajachel	8	Agosto	2023-08-13T00:00:00	2024-11-08T20:00:00	6	Velocidad del viento	0
54362	7	Sololá	710	Panajachel	8	Panajachel	8	Agosto	2023-08-13T00:00:00	2024-11-08T20:00:00	7	Dirección del viento	0
54363	7	Sololá	710	Panajachel	8	Panajachel	8	Agosto	2023-08-13T00:00:00	2024-11-08T20:00:00	1	Precipitación	0
54364	7	Sololá	710	Panajachel	8	Panajachel	8	Agosto	2023-08-13T00:00:00	2024-11-08T20:00:00	8	Radiación solar	0
54365	7	Sololá	710	Panajachel	8	Panajachel	8	Agosto	2023-08-13T00:00:00	2024-11-08T21:00:00	2	Temperatura media	17.9
54366	7	Sololá	710	Panajachel	8	Panajachel	8	Agosto	2023-08-13T00:00:00	2024-11-08T21:00:00	4	Temperatura máxima	18.2
54367	7	Sololá	710	Panajachel	8	Panajachel	8	Agosto	2023-08-13T00:00:00	2024-11-08T21:00:00	3	Temperatura mínima	17.7
54368	7	Sololá	710	Panajachel	8	Panajachel	8	Agosto	2023-08-13T00:00:00	2024-11-08T21:00:00	5	Humedad	90
54369	7	Sololá	710	Panajachel	8	Panajachel	8	Agosto	2023-08-13T00:00:00	2024-11-08T21:00:00	6	Velocidad del viento	1.6
54370	7	Sololá	710	Panajachel	8	Panajachel	8	Agosto	2023-08-13T00:00:00	2024-11-08T21:00:00	7	Dirección del viento	1.61
54371	7	Sololá	710	Panajachel	8	Panajachel	8	Agosto	2023-08-13T00:00:00	2024-11-08T21:00:00	1	Precipitación	0
54372	7	Sololá	710	Panajachel	8	Panajachel	8	Agosto	2023-08-13T00:00:00	2024-11-08T21:00:00	8	Radiación solar	0
54373	7	Sololá	710	Panajachel	8	Panajachel	8	Agosto	2023-08-13T00:00:00	2024-11-08T22:00:00	2	Temperatura media	17.7
54374	7	Sololá	710	Panajachel	8	Panajachel	8	Agosto	2023-08-13T00:00:00	2024-11-08T22:00:00	4	Temperatura máxima	17.9
54375	7	Sololá	710	Panajachel	8	Panajachel	8	Agosto	2023-08-13T00:00:00	2024-11-08T22:00:00	3	Temperatura mínima	17.5
54376	7	Sololá	710	Panajachel	8	Panajachel	8	Agosto	2023-08-13T00:00:00	2024-11-08T22:00:00	5	Humedad	93
54377	7	Sololá	710	Panajachel	8	Panajachel	8	Agosto	2023-08-13T00:00:00	2024-11-08T22:00:00	6	Velocidad del viento	0
54378	7	Sololá	710	Panajachel	8	Panajachel	8	Agosto	2023-08-13T00:00:00	2024-11-08T22:00:00	7	Dirección del viento	0
54379	7	Sololá	710	Panajachel	8	Panajachel	8	Agosto	2023-08-13T00:00:00	2024-11-08T22:00:00	1	Precipitación	0
54380	7	Sololá	710	Panajachel	8	Panajachel	8	Agosto	2023-08-13T00:00:00	2024-11-08T22:00:00	8	Radiación solar	0
54381	7	Sololá	710	Panajachel	8	Panajachel	8	Agosto	2023-08-13T00:00:00	2024-11-08T23:00:00	2	Temperatura media	17.8
54382	7	Sololá	710	Panajachel	8	Panajachel	8	Agosto	2023-08-13T00:00:00	2024-11-08T23:00:00	4	Temperatura máxima	18.1
54383	7	Sololá	710	Panajachel	8	Panajachel	8	Agosto	2023-08-13T00:00:00	2024-11-08T23:00:00	3	Temperatura mínima	17.6
54384	7	Sololá	710	Panajachel	8	Panajachel	8	Agosto	2023-08-13T00:00:00	2024-11-08T23:00:00	5	Humedad	92
54385	7	Sololá	710	Panajachel	8	Panajachel	8	Agosto	2023-08-13T00:00:00	2024-11-08T23:00:00	6	Velocidad del viento	1.6
54386	7	Sololá	710	Panajachel	8	Panajachel	8	Agosto	2023-08-13T00:00:00	2024-11-08T23:00:00	7	Dirección del viento	1.61
54387	7	Sololá	710	Panajachel	8	Panajachel	8	Agosto	2023-08-13T00:00:00	2024-11-08T23:00:00	1	Precipitación	0
54388	7	Sololá	710	Panajachel	8	Panajachel	8	Agosto	2023-08-13T00:00:00	2024-11-08T23:00:00	8	Radiación solar	0
54389	7	Sololá	710	Panajachel	8	Panajachel	8	Agosto	2023-08-14T00:00:00	2024-11-08T00:00:00	2	Temperatura media	17.9
54390	7	Sololá	710	Panajachel	8	Panajachel	8	Agosto	2023-08-14T00:00:00	2024-11-08T00:00:00	4	Temperatura máxima	18.1
54391	7	Sololá	710	Panajachel	8	Panajachel	8	Agosto	2023-08-14T00:00:00	2024-11-08T00:00:00	3	Temperatura mínima	17.8
54392	7	Sololá	710	Panajachel	8	Panajachel	8	Agosto	2023-08-14T00:00:00	2024-11-08T00:00:00	5	Humedad	91
54393	7	Sololá	710	Panajachel	8	Panajachel	8	Agosto	2023-08-14T00:00:00	2024-11-08T00:00:00	6	Velocidad del viento	1.6
54394	7	Sololá	710	Panajachel	8	Panajachel	8	Agosto	2023-08-14T00:00:00	2024-11-08T00:00:00	7	Dirección del viento	1.61
54395	7	Sololá	710	Panajachel	8	Panajachel	8	Agosto	2023-08-14T00:00:00	2024-11-08T00:00:00	1	Precipitación	0
54396	7	Sololá	710	Panajachel	8	Panajachel	8	Agosto	2023-08-14T00:00:00	2024-11-08T00:00:00	8	Radiación solar	0
54397	7	Sololá	710	Panajachel	8	Panajachel	8	Agosto	2023-08-14T00:00:00	2024-11-08T01:00:00	2	Temperatura media	18
54398	7	Sololá	710	Panajachel	8	Panajachel	8	Agosto	2023-08-14T00:00:00	2024-11-08T01:00:00	4	Temperatura máxima	18.2
54399	7	Sololá	710	Panajachel	8	Panajachel	8	Agosto	2023-08-14T00:00:00	2024-11-08T01:00:00	3	Temperatura mínima	17.9
54400	7	Sololá	710	Panajachel	8	Panajachel	8	Agosto	2023-08-14T00:00:00	2024-11-08T01:00:00	5	Humedad	89
54401	7	Sololá	710	Panajachel	8	Panajachel	8	Agosto	2023-08-14T00:00:00	2024-11-08T01:00:00	6	Velocidad del viento	3.2
54402	7	Sololá	710	Panajachel	8	Panajachel	8	Agosto	2023-08-14T00:00:00	2024-11-08T01:00:00	7	Dirección del viento	3.22
54403	7	Sololá	710	Panajachel	8	Panajachel	8	Agosto	2023-08-14T00:00:00	2024-11-08T01:00:00	1	Precipitación	0
54404	7	Sololá	710	Panajachel	8	Panajachel	8	Agosto	2023-08-14T00:00:00	2024-11-08T01:00:00	8	Radiación solar	0
54405	7	Sololá	710	Panajachel	8	Panajachel	8	Agosto	2023-08-14T00:00:00	2024-11-08T02:00:00	2	Temperatura media	18
54406	7	Sololá	710	Panajachel	8	Panajachel	8	Agosto	2023-08-14T00:00:00	2024-11-08T02:00:00	4	Temperatura máxima	18.1
54407	7	Sololá	710	Panajachel	8	Panajachel	8	Agosto	2023-08-14T00:00:00	2024-11-08T02:00:00	3	Temperatura mínima	17.8
54408	7	Sololá	710	Panajachel	8	Panajachel	8	Agosto	2023-08-14T00:00:00	2024-11-08T02:00:00	5	Humedad	86
54409	7	Sololá	710	Panajachel	8	Panajachel	8	Agosto	2023-08-14T00:00:00	2024-11-08T02:00:00	6	Velocidad del viento	3.2
54410	7	Sololá	710	Panajachel	8	Panajachel	8	Agosto	2023-08-14T00:00:00	2024-11-08T02:00:00	7	Dirección del viento	3.22
54411	7	Sololá	710	Panajachel	8	Panajachel	8	Agosto	2023-08-14T00:00:00	2024-11-08T02:00:00	1	Precipitación	0
54412	7	Sololá	710	Panajachel	8	Panajachel	8	Agosto	2023-08-14T00:00:00	2024-11-08T02:00:00	8	Radiación solar	0
54413	7	Sololá	710	Panajachel	8	Panajachel	8	Agosto	2023-08-14T00:00:00	2024-11-08T03:00:00	2	Temperatura media	17.5
54414	7	Sololá	710	Panajachel	8	Panajachel	8	Agosto	2023-08-14T00:00:00	2024-11-08T03:00:00	4	Temperatura máxima	18.6
54415	7	Sololá	710	Panajachel	8	Panajachel	8	Agosto	2023-08-14T00:00:00	2024-11-08T03:00:00	3	Temperatura mínima	17.5
54416	7	Sololá	710	Panajachel	8	Panajachel	8	Agosto	2023-08-14T00:00:00	2024-11-08T03:00:00	5	Humedad	86
54417	7	Sololá	710	Panajachel	8	Panajachel	8	Agosto	2023-08-14T00:00:00	2024-11-08T03:00:00	6	Velocidad del viento	3.2
54418	7	Sololá	710	Panajachel	8	Panajachel	8	Agosto	2023-08-14T00:00:00	2024-11-08T03:00:00	7	Dirección del viento	3.22
54419	7	Sololá	710	Panajachel	8	Panajachel	8	Agosto	2023-08-14T00:00:00	2024-11-08T03:00:00	1	Precipitación	0
54420	7	Sololá	710	Panajachel	8	Panajachel	8	Agosto	2023-08-14T00:00:00	2024-11-08T03:00:00	8	Radiación solar	0
54421	7	Sololá	710	Panajachel	8	Panajachel	8	Agosto	2023-08-14T00:00:00	2024-11-08T04:00:00	2	Temperatura media	16.9
54422	7	Sololá	710	Panajachel	8	Panajachel	8	Agosto	2023-08-14T00:00:00	2024-11-08T04:00:00	4	Temperatura máxima	17.6
54423	7	Sololá	710	Panajachel	8	Panajachel	8	Agosto	2023-08-14T00:00:00	2024-11-08T04:00:00	3	Temperatura mínima	16.9
54424	7	Sololá	710	Panajachel	8	Panajachel	8	Agosto	2023-08-14T00:00:00	2024-11-08T04:00:00	5	Humedad	86
54425	7	Sololá	710	Panajachel	8	Panajachel	8	Agosto	2023-08-14T00:00:00	2024-11-08T04:00:00	6	Velocidad del viento	3.2
54426	7	Sololá	710	Panajachel	8	Panajachel	8	Agosto	2023-08-14T00:00:00	2024-11-08T04:00:00	7	Dirección del viento	3.22
54427	7	Sololá	710	Panajachel	8	Panajachel	8	Agosto	2023-08-14T00:00:00	2024-11-08T04:00:00	1	Precipitación	0
54428	7	Sololá	710	Panajachel	8	Panajachel	8	Agosto	2023-08-14T00:00:00	2024-11-08T04:00:00	8	Radiación solar	0
54429	7	Sololá	710	Panajachel	8	Panajachel	8	Agosto	2023-08-14T00:00:00	2024-11-08T05:00:00	2	Temperatura media	17.7
54430	7	Sololá	710	Panajachel	8	Panajachel	8	Agosto	2023-08-14T00:00:00	2024-11-08T05:00:00	4	Temperatura máxima	19.2
54431	7	Sololá	710	Panajachel	8	Panajachel	8	Agosto	2023-08-14T00:00:00	2024-11-08T05:00:00	3	Temperatura mínima	16.9
54432	7	Sololá	710	Panajachel	8	Panajachel	8	Agosto	2023-08-14T00:00:00	2024-11-08T05:00:00	5	Humedad	83
54433	7	Sololá	710	Panajachel	8	Panajachel	8	Agosto	2023-08-14T00:00:00	2024-11-08T05:00:00	6	Velocidad del viento	3.2
54434	7	Sololá	710	Panajachel	8	Panajachel	8	Agosto	2023-08-14T00:00:00	2024-11-08T05:00:00	7	Dirección del viento	3.22
54435	7	Sololá	710	Panajachel	8	Panajachel	8	Agosto	2023-08-14T00:00:00	2024-11-08T05:00:00	1	Precipitación	0
54436	7	Sololá	710	Panajachel	8	Panajachel	8	Agosto	2023-08-14T00:00:00	2024-11-08T05:00:00	8	Radiación solar	0
54437	7	Sololá	710	Panajachel	8	Panajachel	8	Agosto	2023-08-14T00:00:00	2024-11-08T06:00:00	2	Temperatura media	16.4
54438	7	Sololá	710	Panajachel	8	Panajachel	8	Agosto	2023-08-14T00:00:00	2024-11-08T06:00:00	4	Temperatura máxima	17.7
54439	7	Sololá	710	Panajachel	8	Panajachel	8	Agosto	2023-08-14T00:00:00	2024-11-08T06:00:00	3	Temperatura mínima	16.4
54440	7	Sololá	710	Panajachel	8	Panajachel	8	Agosto	2023-08-14T00:00:00	2024-11-08T06:00:00	5	Humedad	88
54441	7	Sololá	710	Panajachel	8	Panajachel	8	Agosto	2023-08-14T00:00:00	2024-11-08T06:00:00	6	Velocidad del viento	3.2
54442	7	Sololá	710	Panajachel	8	Panajachel	8	Agosto	2023-08-14T00:00:00	2024-11-08T06:00:00	7	Dirección del viento	3.22
54443	7	Sololá	710	Panajachel	8	Panajachel	8	Agosto	2023-08-14T00:00:00	2024-11-08T06:00:00	1	Precipitación	0
54444	7	Sololá	710	Panajachel	8	Panajachel	8	Agosto	2023-08-14T00:00:00	2024-11-08T06:00:00	8	Radiación solar	0
54445	7	Sololá	710	Panajachel	8	Panajachel	8	Agosto	2023-08-14T00:00:00	2024-11-08T07:00:00	2	Temperatura media	17.9
54446	7	Sololá	710	Panajachel	8	Panajachel	8	Agosto	2023-08-14T00:00:00	2024-11-08T07:00:00	4	Temperatura máxima	17.9
54447	7	Sololá	710	Panajachel	8	Panajachel	8	Agosto	2023-08-14T00:00:00	2024-11-08T07:00:00	3	Temperatura mínima	16.4
54448	7	Sololá	710	Panajachel	8	Panajachel	8	Agosto	2023-08-14T00:00:00	2024-11-08T07:00:00	5	Humedad	85
54449	7	Sololá	710	Panajachel	8	Panajachel	8	Agosto	2023-08-14T00:00:00	2024-11-08T07:00:00	6	Velocidad del viento	3.2
54450	7	Sololá	710	Panajachel	8	Panajachel	8	Agosto	2023-08-14T00:00:00	2024-11-08T07:00:00	7	Dirección del viento	3.22
54451	7	Sololá	710	Panajachel	8	Panajachel	8	Agosto	2023-08-14T00:00:00	2024-11-08T07:00:00	1	Precipitación	0
54452	7	Sololá	710	Panajachel	8	Panajachel	8	Agosto	2023-08-14T00:00:00	2024-11-08T07:00:00	8	Radiación solar	45
54453	7	Sololá	710	Panajachel	8	Panajachel	8	Agosto	2023-08-14T00:00:00	2024-11-08T08:00:00	2	Temperatura media	22.7
54454	7	Sololá	710	Panajachel	8	Panajachel	8	Agosto	2023-08-14T00:00:00	2024-11-08T08:00:00	4	Temperatura máxima	22.7
54455	7	Sololá	710	Panajachel	8	Panajachel	8	Agosto	2023-08-14T00:00:00	2024-11-08T08:00:00	3	Temperatura mínima	17.9
54456	7	Sololá	710	Panajachel	8	Panajachel	8	Agosto	2023-08-14T00:00:00	2024-11-08T08:00:00	5	Humedad	67
54457	7	Sololá	710	Panajachel	8	Panajachel	8	Agosto	2023-08-14T00:00:00	2024-11-08T08:00:00	6	Velocidad del viento	4.8
54458	7	Sololá	710	Panajachel	8	Panajachel	8	Agosto	2023-08-14T00:00:00	2024-11-08T08:00:00	7	Dirección del viento	4.83
54459	7	Sololá	710	Panajachel	8	Panajachel	8	Agosto	2023-08-14T00:00:00	2024-11-08T08:00:00	1	Precipitación	0
54460	7	Sololá	710	Panajachel	8	Panajachel	8	Agosto	2023-08-14T00:00:00	2024-11-08T08:00:00	8	Radiación solar	255
54461	7	Sololá	710	Panajachel	8	Panajachel	8	Agosto	2023-08-14T00:00:00	2024-11-08T09:00:00	2	Temperatura media	23.6
54462	7	Sololá	710	Panajachel	8	Panajachel	8	Agosto	2023-08-14T00:00:00	2024-11-08T09:00:00	4	Temperatura máxima	23.7
54463	7	Sololá	710	Panajachel	8	Panajachel	8	Agosto	2023-08-14T00:00:00	2024-11-08T09:00:00	3	Temperatura mínima	22.7
54464	7	Sololá	710	Panajachel	8	Panajachel	8	Agosto	2023-08-14T00:00:00	2024-11-08T09:00:00	5	Humedad	61
54465	7	Sololá	710	Panajachel	8	Panajachel	8	Agosto	2023-08-14T00:00:00	2024-11-08T09:00:00	6	Velocidad del viento	4.8
54466	7	Sololá	710	Panajachel	8	Panajachel	8	Agosto	2023-08-14T00:00:00	2024-11-08T09:00:00	7	Dirección del viento	4.83
54467	7	Sololá	710	Panajachel	8	Panajachel	8	Agosto	2023-08-14T00:00:00	2024-11-08T09:00:00	1	Precipitación	0
54468	7	Sololá	710	Panajachel	8	Panajachel	8	Agosto	2023-08-14T00:00:00	2024-11-08T09:00:00	8	Radiación solar	560
54469	7	Sololá	710	Panajachel	8	Panajachel	8	Agosto	2023-08-14T00:00:00	2024-11-08T10:00:00	2	Temperatura media	24.2
54470	7	Sololá	710	Panajachel	8	Panajachel	8	Agosto	2023-08-14T00:00:00	2024-11-08T10:00:00	4	Temperatura máxima	24.5
54471	7	Sololá	710	Panajachel	8	Panajachel	8	Agosto	2023-08-14T00:00:00	2024-11-08T10:00:00	3	Temperatura mínima	23.6
54472	7	Sololá	710	Panajachel	8	Panajachel	8	Agosto	2023-08-14T00:00:00	2024-11-08T10:00:00	5	Humedad	58
54473	7	Sololá	710	Panajachel	8	Panajachel	8	Agosto	2023-08-14T00:00:00	2024-11-08T10:00:00	6	Velocidad del viento	8
54474	7	Sololá	710	Panajachel	8	Panajachel	8	Agosto	2023-08-14T00:00:00	2024-11-08T10:00:00	7	Dirección del viento	8.05
54475	7	Sololá	710	Panajachel	8	Panajachel	8	Agosto	2023-08-14T00:00:00	2024-11-08T10:00:00	1	Precipitación	0
54476	7	Sololá	710	Panajachel	8	Panajachel	8	Agosto	2023-08-14T00:00:00	2024-11-08T10:00:00	8	Radiación solar	685
54477	7	Sololá	710	Panajachel	8	Panajachel	8	Agosto	2023-08-14T00:00:00	2024-11-08T11:00:00	2	Temperatura media	25.7
54478	7	Sololá	710	Panajachel	8	Panajachel	8	Agosto	2023-08-14T00:00:00	2024-11-08T11:00:00	4	Temperatura máxima	25.7
54479	7	Sololá	710	Panajachel	8	Panajachel	8	Agosto	2023-08-14T00:00:00	2024-11-08T11:00:00	3	Temperatura mínima	24.2
54480	7	Sololá	710	Panajachel	8	Panajachel	8	Agosto	2023-08-14T00:00:00	2024-11-08T11:00:00	5	Humedad	52
54481	7	Sololá	710	Panajachel	8	Panajachel	8	Agosto	2023-08-14T00:00:00	2024-11-08T11:00:00	6	Velocidad del viento	4.8
54482	7	Sololá	710	Panajachel	8	Panajachel	8	Agosto	2023-08-14T00:00:00	2024-11-08T11:00:00	7	Dirección del viento	4.83
54483	7	Sololá	710	Panajachel	8	Panajachel	8	Agosto	2023-08-14T00:00:00	2024-11-08T11:00:00	1	Precipitación	0
54484	7	Sololá	710	Panajachel	8	Panajachel	8	Agosto	2023-08-14T00:00:00	2024-11-08T11:00:00	8	Radiación solar	785
54485	7	Sololá	710	Panajachel	8	Panajachel	8	Agosto	2023-08-14T00:00:00	2024-11-08T12:00:00	2	Temperatura media	26.8
54486	7	Sololá	710	Panajachel	8	Panajachel	8	Agosto	2023-08-14T00:00:00	2024-11-08T12:00:00	4	Temperatura máxima	26.8
54487	7	Sololá	710	Panajachel	8	Panajachel	8	Agosto	2023-08-14T00:00:00	2024-11-08T12:00:00	3	Temperatura mínima	25.4
54488	7	Sololá	710	Panajachel	8	Panajachel	8	Agosto	2023-08-14T00:00:00	2024-11-08T12:00:00	5	Humedad	51
54489	7	Sololá	710	Panajachel	8	Panajachel	8	Agosto	2023-08-14T00:00:00	2024-11-08T12:00:00	6	Velocidad del viento	3.2
54490	7	Sololá	710	Panajachel	8	Panajachel	8	Agosto	2023-08-14T00:00:00	2024-11-08T12:00:00	7	Dirección del viento	3.22
54491	7	Sololá	710	Panajachel	8	Panajachel	8	Agosto	2023-08-14T00:00:00	2024-11-08T12:00:00	1	Precipitación	0
54492	7	Sololá	710	Panajachel	8	Panajachel	8	Agosto	2023-08-14T00:00:00	2024-11-08T12:00:00	8	Radiación solar	930
54493	7	Sololá	710	Panajachel	8	Panajachel	8	Agosto	2023-08-14T00:00:00	2024-11-08T13:00:00	2	Temperatura media	26.6
54494	7	Sololá	710	Panajachel	8	Panajachel	8	Agosto	2023-08-14T00:00:00	2024-11-08T13:00:00	4	Temperatura máxima	27
54495	7	Sololá	710	Panajachel	8	Panajachel	8	Agosto	2023-08-14T00:00:00	2024-11-08T13:00:00	3	Temperatura mínima	26.2
54496	7	Sololá	710	Panajachel	8	Panajachel	8	Agosto	2023-08-14T00:00:00	2024-11-08T13:00:00	5	Humedad	51
54497	7	Sololá	710	Panajachel	8	Panajachel	8	Agosto	2023-08-14T00:00:00	2024-11-08T13:00:00	6	Velocidad del viento	6.4
54498	7	Sololá	710	Panajachel	8	Panajachel	8	Agosto	2023-08-14T00:00:00	2024-11-08T13:00:00	7	Dirección del viento	6.44
54499	7	Sololá	710	Panajachel	8	Panajachel	8	Agosto	2023-08-14T00:00:00	2024-11-08T13:00:00	1	Precipitación	0
54500	7	Sololá	710	Panajachel	8	Panajachel	8	Agosto	2023-08-14T00:00:00	2024-11-08T13:00:00	8	Radiación solar	934
54501	7	Sololá	710	Panajachel	8	Panajachel	8	Agosto	2023-08-14T00:00:00	2024-11-08T14:00:00	2	Temperatura media	27.3
54502	7	Sololá	710	Panajachel	8	Panajachel	8	Agosto	2023-08-14T00:00:00	2024-11-08T14:00:00	4	Temperatura máxima	28.1
54503	7	Sololá	710	Panajachel	8	Panajachel	8	Agosto	2023-08-14T00:00:00	2024-11-08T14:00:00	3	Temperatura mínima	26.4
54504	7	Sololá	710	Panajachel	8	Panajachel	8	Agosto	2023-08-14T00:00:00	2024-11-08T14:00:00	5	Humedad	49
54505	7	Sololá	710	Panajachel	8	Panajachel	8	Agosto	2023-08-14T00:00:00	2024-11-08T14:00:00	6	Velocidad del viento	4.8
54506	7	Sololá	710	Panajachel	8	Panajachel	8	Agosto	2023-08-14T00:00:00	2024-11-08T14:00:00	7	Dirección del viento	4.83
54507	7	Sololá	710	Panajachel	8	Panajachel	8	Agosto	2023-08-14T00:00:00	2024-11-08T14:00:00	1	Precipitación	0
54508	7	Sololá	710	Panajachel	8	Panajachel	8	Agosto	2023-08-14T00:00:00	2024-11-08T14:00:00	8	Radiación solar	931
54509	7	Sololá	710	Panajachel	8	Panajachel	8	Agosto	2023-08-14T00:00:00	2024-11-08T15:00:00	2	Temperatura media	25.6
54510	7	Sololá	710	Panajachel	8	Panajachel	8	Agosto	2023-08-14T00:00:00	2024-11-08T15:00:00	4	Temperatura máxima	27.2
54511	7	Sololá	710	Panajachel	8	Panajachel	8	Agosto	2023-08-14T00:00:00	2024-11-08T15:00:00	3	Temperatura mínima	25.6
54512	7	Sololá	710	Panajachel	8	Panajachel	8	Agosto	2023-08-14T00:00:00	2024-11-08T15:00:00	5	Humedad	55
54513	7	Sololá	710	Panajachel	8	Panajachel	8	Agosto	2023-08-14T00:00:00	2024-11-08T15:00:00	6	Velocidad del viento	8
54514	7	Sololá	710	Panajachel	8	Panajachel	8	Agosto	2023-08-14T00:00:00	2024-11-08T15:00:00	7	Dirección del viento	8.05
54515	7	Sololá	710	Panajachel	8	Panajachel	8	Agosto	2023-08-14T00:00:00	2024-11-08T15:00:00	1	Precipitación	0
54516	7	Sololá	710	Panajachel	8	Panajachel	8	Agosto	2023-08-14T00:00:00	2024-11-08T15:00:00	8	Radiación solar	321
54517	7	Sololá	710	Panajachel	8	Panajachel	8	Agosto	2023-08-14T00:00:00	2024-11-08T16:00:00	2	Temperatura media	25.7
54518	7	Sololá	710	Panajachel	8	Panajachel	8	Agosto	2023-08-14T00:00:00	2024-11-08T16:00:00	4	Temperatura máxima	26.1
54519	7	Sololá	710	Panajachel	8	Panajachel	8	Agosto	2023-08-14T00:00:00	2024-11-08T16:00:00	3	Temperatura mínima	25.1
54520	7	Sololá	710	Panajachel	8	Panajachel	8	Agosto	2023-08-14T00:00:00	2024-11-08T16:00:00	5	Humedad	57
54521	7	Sololá	710	Panajachel	8	Panajachel	8	Agosto	2023-08-14T00:00:00	2024-11-08T16:00:00	6	Velocidad del viento	4.8
54522	7	Sololá	710	Panajachel	8	Panajachel	8	Agosto	2023-08-14T00:00:00	2024-11-08T16:00:00	7	Dirección del viento	4.83
54523	7	Sololá	710	Panajachel	8	Panajachel	8	Agosto	2023-08-14T00:00:00	2024-11-08T16:00:00	1	Precipitación	0
54524	7	Sololá	710	Panajachel	8	Panajachel	8	Agosto	2023-08-14T00:00:00	2024-11-08T16:00:00	8	Radiación solar	223
54525	7	Sololá	710	Panajachel	8	Panajachel	8	Agosto	2023-08-14T00:00:00	2024-11-08T17:00:00	2	Temperatura media	24.9
54526	7	Sololá	710	Panajachel	8	Panajachel	8	Agosto	2023-08-14T00:00:00	2024-11-08T17:00:00	4	Temperatura máxima	25.7
54527	7	Sololá	710	Panajachel	8	Panajachel	8	Agosto	2023-08-14T00:00:00	2024-11-08T17:00:00	3	Temperatura mínima	24.8
54528	7	Sololá	710	Panajachel	8	Panajachel	8	Agosto	2023-08-14T00:00:00	2024-11-08T17:00:00	5	Humedad	57
54529	7	Sololá	710	Panajachel	8	Panajachel	8	Agosto	2023-08-14T00:00:00	2024-11-08T17:00:00	6	Velocidad del viento	8
54530	7	Sololá	710	Panajachel	8	Panajachel	8	Agosto	2023-08-14T00:00:00	2024-11-08T17:00:00	7	Dirección del viento	8.05
54531	7	Sololá	710	Panajachel	8	Panajachel	8	Agosto	2023-08-14T00:00:00	2024-11-08T17:00:00	1	Precipitación	0
54532	7	Sololá	710	Panajachel	8	Panajachel	8	Agosto	2023-08-14T00:00:00	2024-11-08T17:00:00	8	Radiación solar	149
54533	7	Sololá	710	Panajachel	8	Panajachel	8	Agosto	2023-08-14T00:00:00	2024-11-08T18:00:00	2	Temperatura media	23.3
54534	7	Sololá	710	Panajachel	8	Panajachel	8	Agosto	2023-08-14T00:00:00	2024-11-08T18:00:00	4	Temperatura máxima	24.9
54535	7	Sololá	710	Panajachel	8	Panajachel	8	Agosto	2023-08-14T00:00:00	2024-11-08T18:00:00	3	Temperatura mínima	23.3
54536	7	Sololá	710	Panajachel	8	Panajachel	8	Agosto	2023-08-14T00:00:00	2024-11-08T18:00:00	5	Humedad	63
54537	7	Sololá	710	Panajachel	8	Panajachel	8	Agosto	2023-08-14T00:00:00	2024-11-08T18:00:00	6	Velocidad del viento	8
54538	7	Sololá	710	Panajachel	8	Panajachel	8	Agosto	2023-08-14T00:00:00	2024-11-08T18:00:00	7	Dirección del viento	8.05
54539	7	Sololá	710	Panajachel	8	Panajachel	8	Agosto	2023-08-14T00:00:00	2024-11-08T18:00:00	1	Precipitación	0
54540	7	Sololá	710	Panajachel	8	Panajachel	8	Agosto	2023-08-14T00:00:00	2024-11-08T18:00:00	8	Radiación solar	62
54541	7	Sololá	710	Panajachel	8	Panajachel	8	Agosto	2023-08-14T00:00:00	2024-11-08T19:00:00	2	Temperatura media	21.6
54542	7	Sololá	710	Panajachel	8	Panajachel	8	Agosto	2023-08-14T00:00:00	2024-11-08T19:00:00	4	Temperatura máxima	23.3
54543	7	Sololá	710	Panajachel	8	Panajachel	8	Agosto	2023-08-14T00:00:00	2024-11-08T19:00:00	3	Temperatura mínima	21.6
54544	7	Sololá	710	Panajachel	8	Panajachel	8	Agosto	2023-08-14T00:00:00	2024-11-08T19:00:00	5	Humedad	78
54545	7	Sololá	710	Panajachel	8	Panajachel	8	Agosto	2023-08-14T00:00:00	2024-11-08T19:00:00	6	Velocidad del viento	3.2
54546	7	Sololá	710	Panajachel	8	Panajachel	8	Agosto	2023-08-14T00:00:00	2024-11-08T19:00:00	7	Dirección del viento	3.22
54547	7	Sololá	710	Panajachel	8	Panajachel	8	Agosto	2023-08-14T00:00:00	2024-11-08T19:00:00	1	Precipitación	0
54548	7	Sololá	710	Panajachel	8	Panajachel	8	Agosto	2023-08-14T00:00:00	2024-11-08T19:00:00	8	Radiación solar	0
54549	7	Sololá	710	Panajachel	8	Panajachel	8	Agosto	2023-08-14T00:00:00	2024-11-08T20:00:00	2	Temperatura media	20.1
54550	7	Sololá	710	Panajachel	8	Panajachel	8	Agosto	2023-08-14T00:00:00	2024-11-08T20:00:00	4	Temperatura máxima	21.6
54551	7	Sololá	710	Panajachel	8	Panajachel	8	Agosto	2023-08-14T00:00:00	2024-11-08T20:00:00	3	Temperatura mínima	20
54552	7	Sololá	710	Panajachel	8	Panajachel	8	Agosto	2023-08-14T00:00:00	2024-11-08T20:00:00	5	Humedad	78
54553	7	Sololá	710	Panajachel	8	Panajachel	8	Agosto	2023-08-14T00:00:00	2024-11-08T20:00:00	6	Velocidad del viento	0
54554	7	Sololá	710	Panajachel	8	Panajachel	8	Agosto	2023-08-14T00:00:00	2024-11-08T20:00:00	7	Dirección del viento	0
54555	7	Sololá	710	Panajachel	8	Panajachel	8	Agosto	2023-08-14T00:00:00	2024-11-08T20:00:00	1	Precipitación	0
54556	7	Sololá	710	Panajachel	8	Panajachel	8	Agosto	2023-08-14T00:00:00	2024-11-08T20:00:00	8	Radiación solar	0
54557	7	Sololá	710	Panajachel	8	Panajachel	8	Agosto	2023-08-14T00:00:00	2024-11-08T21:00:00	2	Temperatura media	19.8
54558	7	Sololá	710	Panajachel	8	Panajachel	8	Agosto	2023-08-14T00:00:00	2024-11-08T21:00:00	4	Temperatura máxima	20.4
54559	7	Sololá	710	Panajachel	8	Panajachel	8	Agosto	2023-08-14T00:00:00	2024-11-08T21:00:00	3	Temperatura mínima	19.8
54560	7	Sololá	710	Panajachel	8	Panajachel	8	Agosto	2023-08-14T00:00:00	2024-11-08T21:00:00	5	Humedad	81
54561	7	Sololá	710	Panajachel	8	Panajachel	8	Agosto	2023-08-14T00:00:00	2024-11-08T21:00:00	6	Velocidad del viento	1.6
54562	7	Sololá	710	Panajachel	8	Panajachel	8	Agosto	2023-08-14T00:00:00	2024-11-08T21:00:00	7	Dirección del viento	1.61
54563	7	Sololá	710	Panajachel	8	Panajachel	8	Agosto	2023-08-14T00:00:00	2024-11-08T21:00:00	1	Precipitación	0
54564	7	Sololá	710	Panajachel	8	Panajachel	8	Agosto	2023-08-14T00:00:00	2024-11-08T21:00:00	8	Radiación solar	0
54565	7	Sololá	710	Panajachel	8	Panajachel	8	Agosto	2023-08-14T00:00:00	2024-11-08T22:00:00	2	Temperatura media	20.5
54566	7	Sololá	710	Panajachel	8	Panajachel	8	Agosto	2023-08-14T00:00:00	2024-11-08T22:00:00	4	Temperatura máxima	20.9
54567	7	Sololá	710	Panajachel	8	Panajachel	8	Agosto	2023-08-14T00:00:00	2024-11-08T22:00:00	3	Temperatura mínima	19.3
54568	7	Sololá	710	Panajachel	8	Panajachel	8	Agosto	2023-08-14T00:00:00	2024-11-08T22:00:00	5	Humedad	77
54569	7	Sololá	710	Panajachel	8	Panajachel	8	Agosto	2023-08-14T00:00:00	2024-11-08T22:00:00	6	Velocidad del viento	4.8
54570	7	Sololá	710	Panajachel	8	Panajachel	8	Agosto	2023-08-14T00:00:00	2024-11-08T22:00:00	7	Dirección del viento	4.83
54571	7	Sololá	710	Panajachel	8	Panajachel	8	Agosto	2023-08-14T00:00:00	2024-11-08T22:00:00	1	Precipitación	0
54572	7	Sololá	710	Panajachel	8	Panajachel	8	Agosto	2023-08-14T00:00:00	2024-11-08T22:00:00	8	Radiación solar	0
54573	7	Sololá	710	Panajachel	8	Panajachel	8	Agosto	2023-08-14T00:00:00	2024-11-08T23:00:00	2	Temperatura media	20.3
54574	7	Sololá	710	Panajachel	8	Panajachel	8	Agosto	2023-08-14T00:00:00	2024-11-08T23:00:00	4	Temperatura máxima	20.5
54575	7	Sololá	710	Panajachel	8	Panajachel	8	Agosto	2023-08-14T00:00:00	2024-11-08T23:00:00	3	Temperatura mínima	20.1
54576	7	Sololá	710	Panajachel	8	Panajachel	8	Agosto	2023-08-14T00:00:00	2024-11-08T23:00:00	5	Humedad	84
54577	7	Sololá	710	Panajachel	8	Panajachel	8	Agosto	2023-08-14T00:00:00	2024-11-08T23:00:00	6	Velocidad del viento	1.6
54578	7	Sololá	710	Panajachel	8	Panajachel	8	Agosto	2023-08-14T00:00:00	2024-11-08T23:00:00	7	Dirección del viento	1.61
54579	7	Sololá	710	Panajachel	8	Panajachel	8	Agosto	2023-08-14T00:00:00	2024-11-08T23:00:00	1	Precipitación	0
54580	7	Sololá	710	Panajachel	8	Panajachel	8	Agosto	2023-08-14T00:00:00	2024-11-08T23:00:00	8	Radiación solar	0
54581	7	Sololá	710	Panajachel	8	Panajachel	8	Agosto	2023-08-15T00:00:00	2024-11-08T00:00:00	2	Temperatura media	17.6
54582	7	Sololá	710	Panajachel	8	Panajachel	8	Agosto	2023-08-15T00:00:00	2024-11-08T00:00:00	4	Temperatura máxima	20.3
54583	7	Sololá	710	Panajachel	8	Panajachel	8	Agosto	2023-08-15T00:00:00	2024-11-08T00:00:00	3	Temperatura mínima	17.6
54584	7	Sololá	710	Panajachel	8	Panajachel	8	Agosto	2023-08-15T00:00:00	2024-11-08T00:00:00	5	Humedad	93
54585	7	Sololá	710	Panajachel	8	Panajachel	8	Agosto	2023-08-15T00:00:00	2024-11-08T00:00:00	6	Velocidad del viento	1.6
54586	7	Sololá	710	Panajachel	8	Panajachel	8	Agosto	2023-08-15T00:00:00	2024-11-08T00:00:00	7	Dirección del viento	1.61
54587	7	Sololá	710	Panajachel	8	Panajachel	8	Agosto	2023-08-15T00:00:00	2024-11-08T00:00:00	1	Precipitación	1.8
54588	7	Sololá	710	Panajachel	8	Panajachel	8	Agosto	2023-08-15T00:00:00	2024-11-08T00:00:00	8	Radiación solar	0
54589	7	Sololá	710	Panajachel	8	Panajachel	8	Agosto	2023-08-15T00:00:00	2024-11-08T01:00:00	2	Temperatura media	17.2
54590	7	Sololá	710	Panajachel	8	Panajachel	8	Agosto	2023-08-15T00:00:00	2024-11-08T01:00:00	4	Temperatura máxima	17.6
54591	7	Sololá	710	Panajachel	8	Panajachel	8	Agosto	2023-08-15T00:00:00	2024-11-08T01:00:00	3	Temperatura mínima	17.2
54592	7	Sololá	710	Panajachel	8	Panajachel	8	Agosto	2023-08-15T00:00:00	2024-11-08T01:00:00	5	Humedad	95
54593	7	Sololá	710	Panajachel	8	Panajachel	8	Agosto	2023-08-15T00:00:00	2024-11-08T01:00:00	6	Velocidad del viento	0
54594	7	Sololá	710	Panajachel	8	Panajachel	8	Agosto	2023-08-15T00:00:00	2024-11-08T01:00:00	7	Dirección del viento	0
54595	7	Sololá	710	Panajachel	8	Panajachel	8	Agosto	2023-08-15T00:00:00	2024-11-08T01:00:00	1	Precipitación	2
54596	7	Sololá	710	Panajachel	8	Panajachel	8	Agosto	2023-08-15T00:00:00	2024-11-08T01:00:00	8	Radiación solar	0
54597	7	Sololá	710	Panajachel	8	Panajachel	8	Agosto	2023-08-15T00:00:00	2024-11-08T02:00:00	2	Temperatura media	17.2
54598	7	Sololá	710	Panajachel	8	Panajachel	8	Agosto	2023-08-15T00:00:00	2024-11-08T02:00:00	4	Temperatura máxima	17.3
54599	7	Sololá	710	Panajachel	8	Panajachel	8	Agosto	2023-08-15T00:00:00	2024-11-08T02:00:00	3	Temperatura mínima	16.9
54600	7	Sololá	710	Panajachel	8	Panajachel	8	Agosto	2023-08-15T00:00:00	2024-11-08T02:00:00	5	Humedad	94
54601	7	Sololá	710	Panajachel	8	Panajachel	8	Agosto	2023-08-15T00:00:00	2024-11-08T02:00:00	6	Velocidad del viento	0
54602	7	Sololá	710	Panajachel	8	Panajachel	8	Agosto	2023-08-15T00:00:00	2024-11-08T02:00:00	7	Dirección del viento	0
54603	7	Sololá	710	Panajachel	8	Panajachel	8	Agosto	2023-08-15T00:00:00	2024-11-08T02:00:00	1	Precipitación	0
54604	7	Sololá	710	Panajachel	8	Panajachel	8	Agosto	2023-08-15T00:00:00	2024-11-08T02:00:00	8	Radiación solar	0
54605	7	Sololá	710	Panajachel	8	Panajachel	8	Agosto	2023-08-15T00:00:00	2024-11-08T03:00:00	2	Temperatura media	16.7
54606	7	Sololá	710	Panajachel	8	Panajachel	8	Agosto	2023-08-15T00:00:00	2024-11-08T03:00:00	4	Temperatura máxima	17.2
54607	7	Sololá	710	Panajachel	8	Panajachel	8	Agosto	2023-08-15T00:00:00	2024-11-08T03:00:00	3	Temperatura mínima	16.5
54608	7	Sololá	710	Panajachel	8	Panajachel	8	Agosto	2023-08-15T00:00:00	2024-11-08T03:00:00	5	Humedad	95
54609	7	Sololá	710	Panajachel	8	Panajachel	8	Agosto	2023-08-15T00:00:00	2024-11-08T03:00:00	6	Velocidad del viento	0
54610	7	Sololá	710	Panajachel	8	Panajachel	8	Agosto	2023-08-15T00:00:00	2024-11-08T03:00:00	7	Dirección del viento	0
54611	7	Sololá	710	Panajachel	8	Panajachel	8	Agosto	2023-08-15T00:00:00	2024-11-08T03:00:00	1	Precipitación	0
54612	7	Sololá	710	Panajachel	8	Panajachel	8	Agosto	2023-08-15T00:00:00	2024-11-08T03:00:00	8	Radiación solar	0
54613	7	Sololá	710	Panajachel	8	Panajachel	8	Agosto	2023-08-15T00:00:00	2024-11-08T04:00:00	2	Temperatura media	16.3
54614	7	Sololá	710	Panajachel	8	Panajachel	8	Agosto	2023-08-15T00:00:00	2024-11-08T04:00:00	4	Temperatura máxima	16.8
54615	7	Sololá	710	Panajachel	8	Panajachel	8	Agosto	2023-08-15T00:00:00	2024-11-08T04:00:00	3	Temperatura mínima	16.2
54616	7	Sololá	710	Panajachel	8	Panajachel	8	Agosto	2023-08-15T00:00:00	2024-11-08T04:00:00	5	Humedad	94
54617	7	Sololá	710	Panajachel	8	Panajachel	8	Agosto	2023-08-15T00:00:00	2024-11-08T04:00:00	6	Velocidad del viento	0
54618	7	Sololá	710	Panajachel	8	Panajachel	8	Agosto	2023-08-15T00:00:00	2024-11-08T04:00:00	7	Dirección del viento	0
54619	7	Sololá	710	Panajachel	8	Panajachel	8	Agosto	2023-08-15T00:00:00	2024-11-08T04:00:00	1	Precipitación	0
54620	7	Sololá	710	Panajachel	8	Panajachel	8	Agosto	2023-08-15T00:00:00	2024-11-08T04:00:00	8	Radiación solar	0
54621	7	Sololá	710	Panajachel	8	Panajachel	8	Agosto	2023-08-15T00:00:00	2024-11-08T05:00:00	2	Temperatura media	16.4
54622	7	Sololá	710	Panajachel	8	Panajachel	8	Agosto	2023-08-15T00:00:00	2024-11-08T05:00:00	4	Temperatura máxima	16.4
54623	7	Sololá	710	Panajachel	8	Panajachel	8	Agosto	2023-08-15T00:00:00	2024-11-08T05:00:00	3	Temperatura mínima	16.2
54624	7	Sololá	710	Panajachel	8	Panajachel	8	Agosto	2023-08-15T00:00:00	2024-11-08T05:00:00	5	Humedad	93
54625	7	Sololá	710	Panajachel	8	Panajachel	8	Agosto	2023-08-15T00:00:00	2024-11-08T05:00:00	6	Velocidad del viento	1.6
54626	7	Sololá	710	Panajachel	8	Panajachel	8	Agosto	2023-08-15T00:00:00	2024-11-08T05:00:00	7	Dirección del viento	1.61
54627	7	Sololá	710	Panajachel	8	Panajachel	8	Agosto	2023-08-15T00:00:00	2024-11-08T05:00:00	1	Precipitación	0
54628	7	Sololá	710	Panajachel	8	Panajachel	8	Agosto	2023-08-15T00:00:00	2024-11-08T05:00:00	8	Radiación solar	0
54629	7	Sololá	710	Panajachel	8	Panajachel	8	Agosto	2023-08-15T00:00:00	2024-11-08T06:00:00	2	Temperatura media	17.1
54630	7	Sololá	710	Panajachel	8	Panajachel	8	Agosto	2023-08-15T00:00:00	2024-11-08T06:00:00	4	Temperatura máxima	17.1
54631	7	Sololá	710	Panajachel	8	Panajachel	8	Agosto	2023-08-15T00:00:00	2024-11-08T06:00:00	3	Temperatura mínima	16.3
54632	7	Sololá	710	Panajachel	8	Panajachel	8	Agosto	2023-08-15T00:00:00	2024-11-08T06:00:00	5	Humedad	87
54633	7	Sololá	710	Panajachel	8	Panajachel	8	Agosto	2023-08-15T00:00:00	2024-11-08T06:00:00	6	Velocidad del viento	1.6
54634	7	Sololá	710	Panajachel	8	Panajachel	8	Agosto	2023-08-15T00:00:00	2024-11-08T06:00:00	7	Dirección del viento	1.61
54635	7	Sololá	710	Panajachel	8	Panajachel	8	Agosto	2023-08-15T00:00:00	2024-11-08T06:00:00	1	Precipitación	0
54636	7	Sololá	710	Panajachel	8	Panajachel	8	Agosto	2023-08-15T00:00:00	2024-11-08T06:00:00	8	Radiación solar	1
54637	7	Sololá	710	Panajachel	8	Panajachel	8	Agosto	2023-08-15T00:00:00	2024-11-08T07:00:00	2	Temperatura media	19.4
54638	7	Sololá	710	Panajachel	8	Panajachel	8	Agosto	2023-08-15T00:00:00	2024-11-08T07:00:00	4	Temperatura máxima	19.4
54639	7	Sololá	710	Panajachel	8	Panajachel	8	Agosto	2023-08-15T00:00:00	2024-11-08T07:00:00	3	Temperatura mínima	17.1
54640	7	Sololá	710	Panajachel	8	Panajachel	8	Agosto	2023-08-15T00:00:00	2024-11-08T07:00:00	5	Humedad	79
54641	7	Sololá	710	Panajachel	8	Panajachel	8	Agosto	2023-08-15T00:00:00	2024-11-08T07:00:00	6	Velocidad del viento	3.2
54642	7	Sololá	710	Panajachel	8	Panajachel	8	Agosto	2023-08-15T00:00:00	2024-11-08T07:00:00	7	Dirección del viento	3.22
54643	7	Sololá	710	Panajachel	8	Panajachel	8	Agosto	2023-08-15T00:00:00	2024-11-08T07:00:00	1	Precipitación	0
54644	7	Sololá	710	Panajachel	8	Panajachel	8	Agosto	2023-08-15T00:00:00	2024-11-08T07:00:00	8	Radiación solar	103
54645	7	Sololá	710	Panajachel	8	Panajachel	8	Agosto	2023-08-15T00:00:00	2024-11-08T08:00:00	2	Temperatura media	21.9
54646	7	Sololá	710	Panajachel	8	Panajachel	8	Agosto	2023-08-15T00:00:00	2024-11-08T08:00:00	4	Temperatura máxima	21.9
54647	7	Sololá	710	Panajachel	8	Panajachel	8	Agosto	2023-08-15T00:00:00	2024-11-08T08:00:00	3	Temperatura mínima	19.4
54648	7	Sololá	710	Panajachel	8	Panajachel	8	Agosto	2023-08-15T00:00:00	2024-11-08T08:00:00	5	Humedad	74
54649	7	Sololá	710	Panajachel	8	Panajachel	8	Agosto	2023-08-15T00:00:00	2024-11-08T08:00:00	6	Velocidad del viento	3.2
54650	7	Sololá	710	Panajachel	8	Panajachel	8	Agosto	2023-08-15T00:00:00	2024-11-08T08:00:00	7	Dirección del viento	3.22
54651	7	Sololá	710	Panajachel	8	Panajachel	8	Agosto	2023-08-15T00:00:00	2024-11-08T08:00:00	1	Precipitación	0
54652	7	Sololá	710	Panajachel	8	Panajachel	8	Agosto	2023-08-15T00:00:00	2024-11-08T08:00:00	8	Radiación solar	316
54653	7	Sololá	710	Panajachel	8	Panajachel	8	Agosto	2023-08-15T00:00:00	2024-11-08T09:00:00	2	Temperatura media	23.2
54654	7	Sololá	710	Panajachel	8	Panajachel	8	Agosto	2023-08-15T00:00:00	2024-11-08T09:00:00	4	Temperatura máxima	23.4
54655	7	Sololá	710	Panajachel	8	Panajachel	8	Agosto	2023-08-15T00:00:00	2024-11-08T09:00:00	3	Temperatura mínima	21.9
54656	7	Sololá	710	Panajachel	8	Panajachel	8	Agosto	2023-08-15T00:00:00	2024-11-08T09:00:00	5	Humedad	68
54657	7	Sololá	710	Panajachel	8	Panajachel	8	Agosto	2023-08-15T00:00:00	2024-11-08T09:00:00	6	Velocidad del viento	1.6
54658	7	Sololá	710	Panajachel	8	Panajachel	8	Agosto	2023-08-15T00:00:00	2024-11-08T09:00:00	7	Dirección del viento	1.61
54659	7	Sololá	710	Panajachel	8	Panajachel	8	Agosto	2023-08-15T00:00:00	2024-11-08T09:00:00	1	Precipitación	0
54660	7	Sololá	710	Panajachel	8	Panajachel	8	Agosto	2023-08-15T00:00:00	2024-11-08T09:00:00	8	Radiación solar	525
54661	7	Sololá	710	Panajachel	8	Panajachel	8	Agosto	2023-08-15T00:00:00	2024-11-08T10:00:00	2	Temperatura media	23.6
54662	7	Sololá	710	Panajachel	8	Panajachel	8	Agosto	2023-08-15T00:00:00	2024-11-08T10:00:00	4	Temperatura máxima	23.7
54663	7	Sololá	710	Panajachel	8	Panajachel	8	Agosto	2023-08-15T00:00:00	2024-11-08T10:00:00	3	Temperatura mínima	22.4
54664	7	Sololá	710	Panajachel	8	Panajachel	8	Agosto	2023-08-15T00:00:00	2024-11-08T10:00:00	5	Humedad	66
54665	7	Sololá	710	Panajachel	8	Panajachel	8	Agosto	2023-08-15T00:00:00	2024-11-08T10:00:00	6	Velocidad del viento	3.2
54666	7	Sololá	710	Panajachel	8	Panajachel	8	Agosto	2023-08-15T00:00:00	2024-11-08T10:00:00	7	Dirección del viento	3.22
54667	7	Sololá	710	Panajachel	8	Panajachel	8	Agosto	2023-08-15T00:00:00	2024-11-08T10:00:00	1	Precipitación	0
54668	7	Sololá	710	Panajachel	8	Panajachel	8	Agosto	2023-08-15T00:00:00	2024-11-08T10:00:00	8	Radiación solar	750
54669	7	Sololá	710	Panajachel	8	Panajachel	8	Agosto	2023-08-15T00:00:00	2024-11-08T11:00:00	2	Temperatura media	23
54670	7	Sololá	710	Panajachel	8	Panajachel	8	Agosto	2023-08-15T00:00:00	2024-11-08T11:00:00	4	Temperatura máxima	24.2
54671	7	Sololá	710	Panajachel	8	Panajachel	8	Agosto	2023-08-15T00:00:00	2024-11-08T11:00:00	3	Temperatura mínima	23
54672	7	Sololá	710	Panajachel	8	Panajachel	8	Agosto	2023-08-15T00:00:00	2024-11-08T11:00:00	5	Humedad	65
54673	7	Sololá	710	Panajachel	8	Panajachel	8	Agosto	2023-08-15T00:00:00	2024-11-08T11:00:00	6	Velocidad del viento	0
54674	7	Sololá	710	Panajachel	8	Panajachel	8	Agosto	2023-08-15T00:00:00	2024-11-08T11:00:00	7	Dirección del viento	0
54675	7	Sololá	710	Panajachel	8	Panajachel	8	Agosto	2023-08-15T00:00:00	2024-11-08T11:00:00	1	Precipitación	0
54676	7	Sololá	710	Panajachel	8	Panajachel	8	Agosto	2023-08-15T00:00:00	2024-11-08T11:00:00	8	Radiación solar	232
54677	7	Sololá	710	Panajachel	8	Panajachel	8	Agosto	2023-08-15T00:00:00	2024-11-08T12:00:00	2	Temperatura media	23.4
54678	7	Sololá	710	Panajachel	8	Panajachel	8	Agosto	2023-08-15T00:00:00	2024-11-08T12:00:00	4	Temperatura máxima	23.6
54679	7	Sololá	710	Panajachel	8	Panajachel	8	Agosto	2023-08-15T00:00:00	2024-11-08T12:00:00	3	Temperatura mínima	22.9
54680	7	Sololá	710	Panajachel	8	Panajachel	8	Agosto	2023-08-15T00:00:00	2024-11-08T12:00:00	5	Humedad	67
54681	7	Sololá	710	Panajachel	8	Panajachel	8	Agosto	2023-08-15T00:00:00	2024-11-08T12:00:00	6	Velocidad del viento	4.8
54682	7	Sololá	710	Panajachel	8	Panajachel	8	Agosto	2023-08-15T00:00:00	2024-11-08T12:00:00	7	Dirección del viento	4.83
54683	7	Sololá	710	Panajachel	8	Panajachel	8	Agosto	2023-08-15T00:00:00	2024-11-08T12:00:00	1	Precipitación	0
54684	7	Sololá	710	Panajachel	8	Panajachel	8	Agosto	2023-08-15T00:00:00	2024-11-08T12:00:00	8	Radiación solar	409
54685	7	Sololá	710	Panajachel	8	Panajachel	8	Agosto	2023-08-15T00:00:00	2024-11-08T13:00:00	2	Temperatura media	23.1
54686	7	Sololá	710	Panajachel	8	Panajachel	8	Agosto	2023-08-15T00:00:00	2024-11-08T13:00:00	4	Temperatura máxima	24.1
54687	7	Sololá	710	Panajachel	8	Panajachel	8	Agosto	2023-08-15T00:00:00	2024-11-08T13:00:00	3	Temperatura mínima	23.1
54688	7	Sololá	710	Panajachel	8	Panajachel	8	Agosto	2023-08-15T00:00:00	2024-11-08T13:00:00	5	Humedad	80
54689	7	Sololá	710	Panajachel	8	Panajachel	8	Agosto	2023-08-15T00:00:00	2024-11-08T13:00:00	6	Velocidad del viento	8
54690	7	Sololá	710	Panajachel	8	Panajachel	8	Agosto	2023-08-15T00:00:00	2024-11-08T13:00:00	7	Dirección del viento	8.05
54691	7	Sololá	710	Panajachel	8	Panajachel	8	Agosto	2023-08-15T00:00:00	2024-11-08T13:00:00	1	Precipitación	0
54692	7	Sololá	710	Panajachel	8	Panajachel	8	Agosto	2023-08-15T00:00:00	2024-11-08T13:00:00	8	Radiación solar	590
54693	7	Sololá	710	Panajachel	8	Panajachel	8	Agosto	2023-08-15T00:00:00	2024-11-08T14:00:00	2	Temperatura media	23.2
54694	7	Sololá	710	Panajachel	8	Panajachel	8	Agosto	2023-08-15T00:00:00	2024-11-08T14:00:00	4	Temperatura máxima	23.6
54695	7	Sololá	710	Panajachel	8	Panajachel	8	Agosto	2023-08-15T00:00:00	2024-11-08T14:00:00	3	Temperatura mínima	22.9
54696	7	Sololá	710	Panajachel	8	Panajachel	8	Agosto	2023-08-15T00:00:00	2024-11-08T14:00:00	5	Humedad	74
54697	7	Sololá	710	Panajachel	8	Panajachel	8	Agosto	2023-08-15T00:00:00	2024-11-08T14:00:00	6	Velocidad del viento	1.6
54698	7	Sololá	710	Panajachel	8	Panajachel	8	Agosto	2023-08-15T00:00:00	2024-11-08T14:00:00	7	Dirección del viento	1.61
54699	7	Sololá	710	Panajachel	8	Panajachel	8	Agosto	2023-08-15T00:00:00	2024-11-08T14:00:00	1	Precipitación	0
54700	7	Sololá	710	Panajachel	8	Panajachel	8	Agosto	2023-08-15T00:00:00	2024-11-08T14:00:00	8	Radiación solar	300
54701	7	Sololá	710	Panajachel	8	Panajachel	8	Agosto	2023-08-15T00:00:00	2024-11-08T15:00:00	2	Temperatura media	23.9
54702	7	Sololá	710	Panajachel	8	Panajachel	8	Agosto	2023-08-15T00:00:00	2024-11-08T15:00:00	4	Temperatura máxima	24.2
54703	7	Sololá	710	Panajachel	8	Panajachel	8	Agosto	2023-08-15T00:00:00	2024-11-08T15:00:00	3	Temperatura mínima	22.6
54704	7	Sololá	710	Panajachel	8	Panajachel	8	Agosto	2023-08-15T00:00:00	2024-11-08T15:00:00	5	Humedad	68
54705	7	Sololá	710	Panajachel	8	Panajachel	8	Agosto	2023-08-15T00:00:00	2024-11-08T15:00:00	6	Velocidad del viento	1.6
54706	7	Sololá	710	Panajachel	8	Panajachel	8	Agosto	2023-08-15T00:00:00	2024-11-08T15:00:00	7	Dirección del viento	1.61
54707	7	Sololá	710	Panajachel	8	Panajachel	8	Agosto	2023-08-15T00:00:00	2024-11-08T15:00:00	1	Precipitación	0
54708	7	Sololá	710	Panajachel	8	Panajachel	8	Agosto	2023-08-15T00:00:00	2024-11-08T15:00:00	8	Radiación solar	359
54709	7	Sololá	710	Panajachel	8	Panajachel	8	Agosto	2023-08-15T00:00:00	2024-11-08T16:00:00	2	Temperatura media	21.3
54710	7	Sololá	710	Panajachel	8	Panajachel	8	Agosto	2023-08-15T00:00:00	2024-11-08T16:00:00	4	Temperatura máxima	23.9
54711	7	Sololá	710	Panajachel	8	Panajachel	8	Agosto	2023-08-15T00:00:00	2024-11-08T16:00:00	3	Temperatura mínima	21.3
54712	7	Sololá	710	Panajachel	8	Panajachel	8	Agosto	2023-08-15T00:00:00	2024-11-08T16:00:00	5	Humedad	82
54713	7	Sololá	710	Panajachel	8	Panajachel	8	Agosto	2023-08-15T00:00:00	2024-11-08T16:00:00	6	Velocidad del viento	3.2
54714	7	Sololá	710	Panajachel	8	Panajachel	8	Agosto	2023-08-15T00:00:00	2024-11-08T16:00:00	7	Dirección del viento	3.22
54715	7	Sololá	710	Panajachel	8	Panajachel	8	Agosto	2023-08-15T00:00:00	2024-11-08T16:00:00	1	Precipitación	0
54716	7	Sololá	710	Panajachel	8	Panajachel	8	Agosto	2023-08-15T00:00:00	2024-11-08T16:00:00	8	Radiación solar	118
54717	7	Sololá	710	Panajachel	8	Panajachel	8	Agosto	2023-08-15T00:00:00	2024-11-08T17:00:00	2	Temperatura media	21.1
54718	7	Sololá	710	Panajachel	8	Panajachel	8	Agosto	2023-08-15T00:00:00	2024-11-08T17:00:00	4	Temperatura máxima	21.4
54719	7	Sololá	710	Panajachel	8	Panajachel	8	Agosto	2023-08-15T00:00:00	2024-11-08T17:00:00	3	Temperatura mínima	20.9
54720	7	Sololá	710	Panajachel	8	Panajachel	8	Agosto	2023-08-15T00:00:00	2024-11-08T17:00:00	5	Humedad	83
54721	7	Sololá	710	Panajachel	8	Panajachel	8	Agosto	2023-08-15T00:00:00	2024-11-08T17:00:00	6	Velocidad del viento	3.2
54722	7	Sololá	710	Panajachel	8	Panajachel	8	Agosto	2023-08-15T00:00:00	2024-11-08T17:00:00	7	Dirección del viento	3.22
54723	7	Sololá	710	Panajachel	8	Panajachel	8	Agosto	2023-08-15T00:00:00	2024-11-08T17:00:00	1	Precipitación	0
54724	7	Sololá	710	Panajachel	8	Panajachel	8	Agosto	2023-08-15T00:00:00	2024-11-08T17:00:00	8	Radiación solar	140
54725	7	Sololá	710	Panajachel	8	Panajachel	8	Agosto	2023-08-15T00:00:00	2024-11-08T18:00:00	2	Temperatura media	21.1
54726	7	Sololá	710	Panajachel	8	Panajachel	8	Agosto	2023-08-15T00:00:00	2024-11-08T18:00:00	4	Temperatura máxima	21.3
54727	7	Sololá	710	Panajachel	8	Panajachel	8	Agosto	2023-08-15T00:00:00	2024-11-08T18:00:00	3	Temperatura mínima	21
54728	7	Sololá	710	Panajachel	8	Panajachel	8	Agosto	2023-08-15T00:00:00	2024-11-08T18:00:00	5	Humedad	83
54729	7	Sololá	710	Panajachel	8	Panajachel	8	Agosto	2023-08-15T00:00:00	2024-11-08T18:00:00	6	Velocidad del viento	0
54730	7	Sololá	710	Panajachel	8	Panajachel	8	Agosto	2023-08-15T00:00:00	2024-11-08T18:00:00	7	Dirección del viento	0
54731	7	Sololá	710	Panajachel	8	Panajachel	8	Agosto	2023-08-15T00:00:00	2024-11-08T18:00:00	1	Precipitación	0
54732	7	Sololá	710	Panajachel	8	Panajachel	8	Agosto	2023-08-15T00:00:00	2024-11-08T18:00:00	8	Radiación solar	81
54733	7	Sololá	710	Panajachel	8	Panajachel	8	Agosto	2023-08-15T00:00:00	2024-11-08T19:00:00	2	Temperatura media	20.3
54734	7	Sololá	710	Panajachel	8	Panajachel	8	Agosto	2023-08-15T00:00:00	2024-11-08T19:00:00	4	Temperatura máxima	21.1
54735	7	Sololá	710	Panajachel	8	Panajachel	8	Agosto	2023-08-15T00:00:00	2024-11-08T19:00:00	3	Temperatura mínima	20.3
54736	7	Sololá	710	Panajachel	8	Panajachel	8	Agosto	2023-08-15T00:00:00	2024-11-08T19:00:00	5	Humedad	86
54737	7	Sololá	710	Panajachel	8	Panajachel	8	Agosto	2023-08-15T00:00:00	2024-11-08T19:00:00	6	Velocidad del viento	0
54738	7	Sololá	710	Panajachel	8	Panajachel	8	Agosto	2023-08-15T00:00:00	2024-11-08T19:00:00	7	Dirección del viento	0
54739	7	Sololá	710	Panajachel	8	Panajachel	8	Agosto	2023-08-15T00:00:00	2024-11-08T19:00:00	1	Precipitación	0
54740	7	Sololá	710	Panajachel	8	Panajachel	8	Agosto	2023-08-15T00:00:00	2024-11-08T19:00:00	8	Radiación solar	0
54741	7	Sololá	710	Panajachel	8	Panajachel	8	Agosto	2023-08-15T00:00:00	2024-11-08T20:00:00	2	Temperatura media	19.8
54742	7	Sololá	710	Panajachel	8	Panajachel	8	Agosto	2023-08-15T00:00:00	2024-11-08T20:00:00	4	Temperatura máxima	20.3
54743	7	Sololá	710	Panajachel	8	Panajachel	8	Agosto	2023-08-15T00:00:00	2024-11-08T20:00:00	3	Temperatura mínima	19.8
54744	7	Sololá	710	Panajachel	8	Panajachel	8	Agosto	2023-08-15T00:00:00	2024-11-08T20:00:00	5	Humedad	82
54745	7	Sololá	710	Panajachel	8	Panajachel	8	Agosto	2023-08-15T00:00:00	2024-11-08T20:00:00	6	Velocidad del viento	1.6
54746	7	Sololá	710	Panajachel	8	Panajachel	8	Agosto	2023-08-15T00:00:00	2024-11-08T20:00:00	7	Dirección del viento	1.61
54747	7	Sololá	710	Panajachel	8	Panajachel	8	Agosto	2023-08-15T00:00:00	2024-11-08T20:00:00	1	Precipitación	0
54748	7	Sololá	710	Panajachel	8	Panajachel	8	Agosto	2023-08-15T00:00:00	2024-11-08T20:00:00	8	Radiación solar	0
54749	7	Sololá	710	Panajachel	8	Panajachel	8	Agosto	2023-08-15T00:00:00	2024-11-08T21:00:00	2	Temperatura media	19.7
54750	7	Sololá	710	Panajachel	8	Panajachel	8	Agosto	2023-08-15T00:00:00	2024-11-08T21:00:00	4	Temperatura máxima	19.8
54751	7	Sololá	710	Panajachel	8	Panajachel	8	Agosto	2023-08-15T00:00:00	2024-11-08T21:00:00	3	Temperatura mínima	19.7
54752	7	Sololá	710	Panajachel	8	Panajachel	8	Agosto	2023-08-15T00:00:00	2024-11-08T21:00:00	5	Humedad	82
54753	7	Sololá	710	Panajachel	8	Panajachel	8	Agosto	2023-08-15T00:00:00	2024-11-08T21:00:00	6	Velocidad del viento	1.6
54754	7	Sololá	710	Panajachel	8	Panajachel	8	Agosto	2023-08-15T00:00:00	2024-11-08T21:00:00	7	Dirección del viento	1.61
54755	7	Sololá	710	Panajachel	8	Panajachel	8	Agosto	2023-08-15T00:00:00	2024-11-08T21:00:00	1	Precipitación	0
54756	7	Sololá	710	Panajachel	8	Panajachel	8	Agosto	2023-08-15T00:00:00	2024-11-08T21:00:00	8	Radiación solar	0
54757	7	Sololá	710	Panajachel	8	Panajachel	8	Agosto	2023-08-15T00:00:00	2024-11-08T22:00:00	2	Temperatura media	19.8
54758	7	Sololá	710	Panajachel	8	Panajachel	8	Agosto	2023-08-15T00:00:00	2024-11-08T22:00:00	4	Temperatura máxima	19.9
54759	7	Sololá	710	Panajachel	8	Panajachel	8	Agosto	2023-08-15T00:00:00	2024-11-08T22:00:00	3	Temperatura mínima	19.2
54760	7	Sololá	710	Panajachel	8	Panajachel	8	Agosto	2023-08-15T00:00:00	2024-11-08T22:00:00	5	Humedad	78
54761	7	Sololá	710	Panajachel	8	Panajachel	8	Agosto	2023-08-15T00:00:00	2024-11-08T22:00:00	6	Velocidad del viento	3.2
54762	7	Sololá	710	Panajachel	8	Panajachel	8	Agosto	2023-08-15T00:00:00	2024-11-08T22:00:00	7	Dirección del viento	3.22
54763	7	Sololá	710	Panajachel	8	Panajachel	8	Agosto	2023-08-15T00:00:00	2024-11-08T22:00:00	1	Precipitación	0
54764	7	Sololá	710	Panajachel	8	Panajachel	8	Agosto	2023-08-15T00:00:00	2024-11-08T22:00:00	8	Radiación solar	0
54765	7	Sololá	710	Panajachel	8	Panajachel	8	Agosto	2023-08-15T00:00:00	2024-11-08T23:00:00	2	Temperatura media	20.7
54766	7	Sololá	710	Panajachel	8	Panajachel	8	Agosto	2023-08-15T00:00:00	2024-11-08T23:00:00	4	Temperatura máxima	20.8
54767	7	Sololá	710	Panajachel	8	Panajachel	8	Agosto	2023-08-15T00:00:00	2024-11-08T23:00:00	3	Temperatura mínima	19.7
54768	7	Sololá	710	Panajachel	8	Panajachel	8	Agosto	2023-08-15T00:00:00	2024-11-08T23:00:00	5	Humedad	73
54769	7	Sololá	710	Panajachel	8	Panajachel	8	Agosto	2023-08-15T00:00:00	2024-11-08T23:00:00	6	Velocidad del viento	6.4
54770	7	Sololá	710	Panajachel	8	Panajachel	8	Agosto	2023-08-15T00:00:00	2024-11-08T23:00:00	7	Dirección del viento	6.44
54771	7	Sololá	710	Panajachel	8	Panajachel	8	Agosto	2023-08-15T00:00:00	2024-11-08T23:00:00	1	Precipitación	0
54772	7	Sololá	710	Panajachel	8	Panajachel	8	Agosto	2023-08-15T00:00:00	2024-11-08T23:00:00	8	Radiación solar	0
54773	7	Sololá	710	Panajachel	8	Panajachel	8	Agosto	2023-08-16T00:00:00	2024-11-08T00:00:00	2	Temperatura media	18.9
54774	7	Sololá	710	Panajachel	8	Panajachel	8	Agosto	2023-08-16T00:00:00	2024-11-08T00:00:00	4	Temperatura máxima	20.7
54775	7	Sololá	710	Panajachel	8	Panajachel	8	Agosto	2023-08-16T00:00:00	2024-11-08T00:00:00	3	Temperatura mínima	18.9
54776	7	Sololá	710	Panajachel	8	Panajachel	8	Agosto	2023-08-16T00:00:00	2024-11-08T00:00:00	5	Humedad	80
54777	7	Sololá	710	Panajachel	8	Panajachel	8	Agosto	2023-08-16T00:00:00	2024-11-08T00:00:00	6	Velocidad del viento	4.8
54778	7	Sololá	710	Panajachel	8	Panajachel	8	Agosto	2023-08-16T00:00:00	2024-11-08T00:00:00	7	Dirección del viento	4.83
54779	7	Sololá	710	Panajachel	8	Panajachel	8	Agosto	2023-08-16T00:00:00	2024-11-08T00:00:00	1	Precipitación	0
54780	7	Sololá	710	Panajachel	8	Panajachel	8	Agosto	2023-08-16T00:00:00	2024-11-08T00:00:00	8	Radiación solar	0
54781	7	Sololá	710	Panajachel	8	Panajachel	8	Agosto	2023-08-16T00:00:00	2024-11-08T01:00:00	2	Temperatura media	19.1
54782	7	Sololá	710	Panajachel	8	Panajachel	8	Agosto	2023-08-16T00:00:00	2024-11-08T01:00:00	4	Temperatura máxima	19.5
54783	7	Sololá	710	Panajachel	8	Panajachel	8	Agosto	2023-08-16T00:00:00	2024-11-08T01:00:00	3	Temperatura mínima	18.8
54784	7	Sololá	710	Panajachel	8	Panajachel	8	Agosto	2023-08-16T00:00:00	2024-11-08T01:00:00	5	Humedad	79
54785	7	Sololá	710	Panajachel	8	Panajachel	8	Agosto	2023-08-16T00:00:00	2024-11-08T01:00:00	6	Velocidad del viento	3.2
54786	7	Sololá	710	Panajachel	8	Panajachel	8	Agosto	2023-08-16T00:00:00	2024-11-08T01:00:00	7	Dirección del viento	3.22
54787	7	Sololá	710	Panajachel	8	Panajachel	8	Agosto	2023-08-16T00:00:00	2024-11-08T01:00:00	1	Precipitación	0
54788	7	Sololá	710	Panajachel	8	Panajachel	8	Agosto	2023-08-16T00:00:00	2024-11-08T01:00:00	8	Radiación solar	0
54789	7	Sololá	710	Panajachel	8	Panajachel	8	Agosto	2023-08-16T00:00:00	2024-11-08T02:00:00	2	Temperatura media	17.7
54790	7	Sololá	710	Panajachel	8	Panajachel	8	Agosto	2023-08-16T00:00:00	2024-11-08T02:00:00	4	Temperatura máxima	19.1
54791	7	Sololá	710	Panajachel	8	Panajachel	8	Agosto	2023-08-16T00:00:00	2024-11-08T02:00:00	3	Temperatura mínima	17.7
54792	7	Sololá	710	Panajachel	8	Panajachel	8	Agosto	2023-08-16T00:00:00	2024-11-08T02:00:00	5	Humedad	83
54793	7	Sololá	710	Panajachel	8	Panajachel	8	Agosto	2023-08-16T00:00:00	2024-11-08T02:00:00	6	Velocidad del viento	3.2
54794	7	Sololá	710	Panajachel	8	Panajachel	8	Agosto	2023-08-16T00:00:00	2024-11-08T02:00:00	7	Dirección del viento	3.22
54795	7	Sololá	710	Panajachel	8	Panajachel	8	Agosto	2023-08-16T00:00:00	2024-11-08T02:00:00	1	Precipitación	0
54796	7	Sololá	710	Panajachel	8	Panajachel	8	Agosto	2023-08-16T00:00:00	2024-11-08T02:00:00	8	Radiación solar	0
54797	7	Sololá	710	Panajachel	8	Panajachel	8	Agosto	2023-08-16T00:00:00	2024-11-08T03:00:00	2	Temperatura media	17.7
54798	7	Sololá	710	Panajachel	8	Panajachel	8	Agosto	2023-08-16T00:00:00	2024-11-08T03:00:00	4	Temperatura máxima	17.7
54799	7	Sololá	710	Panajachel	8	Panajachel	8	Agosto	2023-08-16T00:00:00	2024-11-08T03:00:00	3	Temperatura mínima	17.6
54800	7	Sololá	710	Panajachel	8	Panajachel	8	Agosto	2023-08-16T00:00:00	2024-11-08T03:00:00	5	Humedad	82
54801	7	Sololá	710	Panajachel	8	Panajachel	8	Agosto	2023-08-16T00:00:00	2024-11-08T03:00:00	6	Velocidad del viento	3.2
54802	7	Sololá	710	Panajachel	8	Panajachel	8	Agosto	2023-08-16T00:00:00	2024-11-08T03:00:00	7	Dirección del viento	3.22
54803	7	Sololá	710	Panajachel	8	Panajachel	8	Agosto	2023-08-16T00:00:00	2024-11-08T03:00:00	1	Precipitación	0
54804	7	Sololá	710	Panajachel	8	Panajachel	8	Agosto	2023-08-16T00:00:00	2024-11-08T03:00:00	8	Radiación solar	0
54805	7	Sololá	710	Panajachel	8	Panajachel	8	Agosto	2023-08-16T00:00:00	2024-11-08T04:00:00	2	Temperatura media	17.7
54806	7	Sololá	710	Panajachel	8	Panajachel	8	Agosto	2023-08-16T00:00:00	2024-11-08T04:00:00	4	Temperatura máxima	17.8
54807	7	Sololá	710	Panajachel	8	Panajachel	8	Agosto	2023-08-16T00:00:00	2024-11-08T04:00:00	3	Temperatura mínima	17.5
54808	7	Sololá	710	Panajachel	8	Panajachel	8	Agosto	2023-08-16T00:00:00	2024-11-08T04:00:00	5	Humedad	84
54809	7	Sololá	710	Panajachel	8	Panajachel	8	Agosto	2023-08-16T00:00:00	2024-11-08T04:00:00	6	Velocidad del viento	0
54810	7	Sololá	710	Panajachel	8	Panajachel	8	Agosto	2023-08-16T00:00:00	2024-11-08T04:00:00	7	Dirección del viento	0
54811	7	Sololá	710	Panajachel	8	Panajachel	8	Agosto	2023-08-16T00:00:00	2024-11-08T04:00:00	1	Precipitación	0
54812	7	Sololá	710	Panajachel	8	Panajachel	8	Agosto	2023-08-16T00:00:00	2024-11-08T04:00:00	8	Radiación solar	0
54813	7	Sololá	710	Panajachel	8	Panajachel	8	Agosto	2023-08-16T00:00:00	2024-11-08T05:00:00	2	Temperatura media	19.6
54814	7	Sololá	710	Panajachel	8	Panajachel	8	Agosto	2023-08-16T00:00:00	2024-11-08T05:00:00	4	Temperatura máxima	19.6
54815	7	Sololá	710	Panajachel	8	Panajachel	8	Agosto	2023-08-16T00:00:00	2024-11-08T05:00:00	3	Temperatura mínima	17.7
54816	7	Sololá	710	Panajachel	8	Panajachel	8	Agosto	2023-08-16T00:00:00	2024-11-08T05:00:00	5	Humedad	76
54817	7	Sololá	710	Panajachel	8	Panajachel	8	Agosto	2023-08-16T00:00:00	2024-11-08T05:00:00	6	Velocidad del viento	1.6
54818	7	Sololá	710	Panajachel	8	Panajachel	8	Agosto	2023-08-16T00:00:00	2024-11-08T05:00:00	7	Dirección del viento	1.61
54819	7	Sololá	710	Panajachel	8	Panajachel	8	Agosto	2023-08-16T00:00:00	2024-11-08T05:00:00	1	Precipitación	0
54820	7	Sololá	710	Panajachel	8	Panajachel	8	Agosto	2023-08-16T00:00:00	2024-11-08T05:00:00	8	Radiación solar	0
54821	7	Sololá	710	Panajachel	8	Panajachel	8	Agosto	2023-08-16T00:00:00	2024-11-08T06:00:00	2	Temperatura media	17.9
54822	7	Sololá	710	Panajachel	8	Panajachel	8	Agosto	2023-08-16T00:00:00	2024-11-08T06:00:00	4	Temperatura máxima	19.6
54823	7	Sololá	710	Panajachel	8	Panajachel	8	Agosto	2023-08-16T00:00:00	2024-11-08T06:00:00	3	Temperatura mínima	17.9
54824	7	Sololá	710	Panajachel	8	Panajachel	8	Agosto	2023-08-16T00:00:00	2024-11-08T06:00:00	5	Humedad	84
54825	7	Sololá	710	Panajachel	8	Panajachel	8	Agosto	2023-08-16T00:00:00	2024-11-08T06:00:00	6	Velocidad del viento	1.6
54826	7	Sololá	710	Panajachel	8	Panajachel	8	Agosto	2023-08-16T00:00:00	2024-11-08T06:00:00	7	Dirección del viento	1.61
54827	7	Sololá	710	Panajachel	8	Panajachel	8	Agosto	2023-08-16T00:00:00	2024-11-08T06:00:00	1	Precipitación	0
54828	7	Sololá	710	Panajachel	8	Panajachel	8	Agosto	2023-08-16T00:00:00	2024-11-08T06:00:00	8	Radiación solar	1
54829	7	Sololá	710	Panajachel	8	Panajachel	8	Agosto	2023-08-16T00:00:00	2024-11-08T07:00:00	2	Temperatura media	18.8
54830	7	Sololá	710	Panajachel	8	Panajachel	8	Agosto	2023-08-16T00:00:00	2024-11-08T07:00:00	4	Temperatura máxima	18.8
54831	7	Sololá	710	Panajachel	8	Panajachel	8	Agosto	2023-08-16T00:00:00	2024-11-08T07:00:00	3	Temperatura mínima	17.8
54832	7	Sololá	710	Panajachel	8	Panajachel	8	Agosto	2023-08-16T00:00:00	2024-11-08T07:00:00	5	Humedad	83
54833	7	Sololá	710	Panajachel	8	Panajachel	8	Agosto	2023-08-16T00:00:00	2024-11-08T07:00:00	6	Velocidad del viento	0
54834	7	Sololá	710	Panajachel	8	Panajachel	8	Agosto	2023-08-16T00:00:00	2024-11-08T07:00:00	7	Dirección del viento	0
54835	7	Sololá	710	Panajachel	8	Panajachel	8	Agosto	2023-08-16T00:00:00	2024-11-08T07:00:00	1	Precipitación	0
54836	7	Sololá	710	Panajachel	8	Panajachel	8	Agosto	2023-08-16T00:00:00	2024-11-08T07:00:00	8	Radiación solar	51
54837	7	Sololá	710	Panajachel	8	Panajachel	8	Agosto	2023-08-16T00:00:00	2024-11-08T08:00:00	2	Temperatura media	21.3
54838	7	Sololá	710	Panajachel	8	Panajachel	8	Agosto	2023-08-16T00:00:00	2024-11-08T08:00:00	4	Temperatura máxima	21.3
54839	7	Sololá	710	Panajachel	8	Panajachel	8	Agosto	2023-08-16T00:00:00	2024-11-08T08:00:00	3	Temperatura mínima	18.8
54840	7	Sololá	710	Panajachel	8	Panajachel	8	Agosto	2023-08-16T00:00:00	2024-11-08T08:00:00	5	Humedad	76
54841	7	Sololá	710	Panajachel	8	Panajachel	8	Agosto	2023-08-16T00:00:00	2024-11-08T08:00:00	6	Velocidad del viento	0
54842	7	Sololá	710	Panajachel	8	Panajachel	8	Agosto	2023-08-16T00:00:00	2024-11-08T08:00:00	7	Dirección del viento	0
54843	7	Sololá	710	Panajachel	8	Panajachel	8	Agosto	2023-08-16T00:00:00	2024-11-08T08:00:00	1	Precipitación	0
54844	7	Sololá	710	Panajachel	8	Panajachel	8	Agosto	2023-08-16T00:00:00	2024-11-08T08:00:00	8	Radiación solar	182
54845	7	Sololá	710	Panajachel	8	Panajachel	8	Agosto	2023-08-16T00:00:00	2024-11-08T09:00:00	2	Temperatura media	23.1
54846	7	Sololá	710	Panajachel	8	Panajachel	8	Agosto	2023-08-16T00:00:00	2024-11-08T09:00:00	4	Temperatura máxima	23.2
54847	7	Sololá	710	Panajachel	8	Panajachel	8	Agosto	2023-08-16T00:00:00	2024-11-08T09:00:00	3	Temperatura mínima	21.4
54848	7	Sololá	710	Panajachel	8	Panajachel	8	Agosto	2023-08-16T00:00:00	2024-11-08T09:00:00	5	Humedad	64
54849	7	Sololá	710	Panajachel	8	Panajachel	8	Agosto	2023-08-16T00:00:00	2024-11-08T09:00:00	6	Velocidad del viento	6.4
54850	7	Sololá	710	Panajachel	8	Panajachel	8	Agosto	2023-08-16T00:00:00	2024-11-08T09:00:00	7	Dirección del viento	6.44
54851	7	Sololá	710	Panajachel	8	Panajachel	8	Agosto	2023-08-16T00:00:00	2024-11-08T09:00:00	1	Precipitación	0
54852	7	Sololá	710	Panajachel	8	Panajachel	8	Agosto	2023-08-16T00:00:00	2024-11-08T09:00:00	8	Radiación solar	557
54853	7	Sololá	710	Panajachel	8	Panajachel	8	Agosto	2023-08-16T00:00:00	2024-11-08T10:00:00	2	Temperatura media	24.2
54854	7	Sololá	710	Panajachel	8	Panajachel	8	Agosto	2023-08-16T00:00:00	2024-11-08T10:00:00	4	Temperatura máxima	24.3
54855	7	Sololá	710	Panajachel	8	Panajachel	8	Agosto	2023-08-16T00:00:00	2024-11-08T10:00:00	3	Temperatura mínima	23.1
54856	7	Sololá	710	Panajachel	8	Panajachel	8	Agosto	2023-08-16T00:00:00	2024-11-08T10:00:00	5	Humedad	60
54857	7	Sololá	710	Panajachel	8	Panajachel	8	Agosto	2023-08-16T00:00:00	2024-11-08T10:00:00	6	Velocidad del viento	8
54858	7	Sololá	710	Panajachel	8	Panajachel	8	Agosto	2023-08-16T00:00:00	2024-11-08T10:00:00	7	Dirección del viento	8.05
54859	7	Sololá	710	Panajachel	8	Panajachel	8	Agosto	2023-08-16T00:00:00	2024-11-08T10:00:00	1	Precipitación	0
54860	7	Sololá	710	Panajachel	8	Panajachel	8	Agosto	2023-08-16T00:00:00	2024-11-08T10:00:00	8	Radiación solar	733
54861	7	Sololá	710	Panajachel	8	Panajachel	8	Agosto	2023-08-16T00:00:00	2024-11-08T11:00:00	2	Temperatura media	25.9
54862	7	Sololá	710	Panajachel	8	Panajachel	8	Agosto	2023-08-16T00:00:00	2024-11-08T11:00:00	4	Temperatura máxima	26.1
54863	7	Sololá	710	Panajachel	8	Panajachel	8	Agosto	2023-08-16T00:00:00	2024-11-08T11:00:00	3	Temperatura mínima	24.2
54864	7	Sololá	710	Panajachel	8	Panajachel	8	Agosto	2023-08-16T00:00:00	2024-11-08T11:00:00	5	Humedad	59
54865	7	Sololá	710	Panajachel	8	Panajachel	8	Agosto	2023-08-16T00:00:00	2024-11-08T11:00:00	6	Velocidad del viento	6.4
54866	7	Sololá	710	Panajachel	8	Panajachel	8	Agosto	2023-08-16T00:00:00	2024-11-08T11:00:00	7	Dirección del viento	6.44
54867	7	Sololá	710	Panajachel	8	Panajachel	8	Agosto	2023-08-16T00:00:00	2024-11-08T11:00:00	1	Precipitación	0
54868	7	Sololá	710	Panajachel	8	Panajachel	8	Agosto	2023-08-16T00:00:00	2024-11-08T11:00:00	8	Radiación solar	898
54869	7	Sololá	710	Panajachel	8	Panajachel	8	Agosto	2023-08-16T00:00:00	2024-11-08T12:00:00	2	Temperatura media	24.4
54870	7	Sololá	710	Panajachel	8	Panajachel	8	Agosto	2023-08-16T00:00:00	2024-11-08T12:00:00	4	Temperatura máxima	25.9
54871	7	Sololá	710	Panajachel	8	Panajachel	8	Agosto	2023-08-16T00:00:00	2024-11-08T12:00:00	3	Temperatura mínima	24.3
54872	7	Sololá	710	Panajachel	8	Panajachel	8	Agosto	2023-08-16T00:00:00	2024-11-08T12:00:00	5	Humedad	60
54873	7	Sololá	710	Panajachel	8	Panajachel	8	Agosto	2023-08-16T00:00:00	2024-11-08T12:00:00	6	Velocidad del viento	3.2
54874	7	Sololá	710	Panajachel	8	Panajachel	8	Agosto	2023-08-16T00:00:00	2024-11-08T12:00:00	7	Dirección del viento	3.22
54875	7	Sololá	710	Panajachel	8	Panajachel	8	Agosto	2023-08-16T00:00:00	2024-11-08T12:00:00	1	Precipitación	0
54876	7	Sololá	710	Panajachel	8	Panajachel	8	Agosto	2023-08-16T00:00:00	2024-11-08T12:00:00	8	Radiación solar	257
54877	7	Sololá	710	Panajachel	8	Panajachel	8	Agosto	2023-08-16T00:00:00	2024-11-08T13:00:00	2	Temperatura media	23.7
54878	7	Sololá	710	Panajachel	8	Panajachel	8	Agosto	2023-08-16T00:00:00	2024-11-08T13:00:00	4	Temperatura máxima	24.7
54879	7	Sololá	710	Panajachel	8	Panajachel	8	Agosto	2023-08-16T00:00:00	2024-11-08T13:00:00	3	Temperatura mínima	23.7
54880	7	Sololá	710	Panajachel	8	Panajachel	8	Agosto	2023-08-16T00:00:00	2024-11-08T13:00:00	5	Humedad	77
54881	7	Sololá	710	Panajachel	8	Panajachel	8	Agosto	2023-08-16T00:00:00	2024-11-08T13:00:00	6	Velocidad del viento	3.2
54882	7	Sololá	710	Panajachel	8	Panajachel	8	Agosto	2023-08-16T00:00:00	2024-11-08T13:00:00	7	Dirección del viento	3.22
54883	7	Sololá	710	Panajachel	8	Panajachel	8	Agosto	2023-08-16T00:00:00	2024-11-08T13:00:00	1	Precipitación	0
54884	7	Sololá	710	Panajachel	8	Panajachel	8	Agosto	2023-08-16T00:00:00	2024-11-08T13:00:00	8	Radiación solar	256
54885	7	Sololá	710	Panajachel	8	Panajachel	8	Agosto	2023-08-16T00:00:00	2024-11-08T14:00:00	2	Temperatura media	23.6
54886	7	Sololá	710	Panajachel	8	Panajachel	8	Agosto	2023-08-16T00:00:00	2024-11-08T14:00:00	4	Temperatura máxima	23.8
54887	7	Sololá	710	Panajachel	8	Panajachel	8	Agosto	2023-08-16T00:00:00	2024-11-08T14:00:00	3	Temperatura mínima	23.1
54888	7	Sololá	710	Panajachel	8	Panajachel	8	Agosto	2023-08-16T00:00:00	2024-11-08T14:00:00	5	Humedad	79
54889	7	Sololá	710	Panajachel	8	Panajachel	8	Agosto	2023-08-16T00:00:00	2024-11-08T14:00:00	6	Velocidad del viento	3.2
54890	7	Sololá	710	Panajachel	8	Panajachel	8	Agosto	2023-08-16T00:00:00	2024-11-08T14:00:00	7	Dirección del viento	3.22
54891	7	Sololá	710	Panajachel	8	Panajachel	8	Agosto	2023-08-16T00:00:00	2024-11-08T14:00:00	1	Precipitación	0
54892	7	Sololá	710	Panajachel	8	Panajachel	8	Agosto	2023-08-16T00:00:00	2024-11-08T14:00:00	8	Radiación solar	260
54893	7	Sololá	710	Panajachel	8	Panajachel	8	Agosto	2023-08-16T00:00:00	2024-11-08T15:00:00	2	Temperatura media	23.1
54894	7	Sololá	710	Panajachel	8	Panajachel	8	Agosto	2023-08-16T00:00:00	2024-11-08T15:00:00	4	Temperatura máxima	25.4
54895	7	Sololá	710	Panajachel	8	Panajachel	8	Agosto	2023-08-16T00:00:00	2024-11-08T15:00:00	3	Temperatura mínima	23.1
54896	7	Sololá	710	Panajachel	8	Panajachel	8	Agosto	2023-08-16T00:00:00	2024-11-08T15:00:00	5	Humedad	80
54897	7	Sololá	710	Panajachel	8	Panajachel	8	Agosto	2023-08-16T00:00:00	2024-11-08T15:00:00	6	Velocidad del viento	4.8
54898	7	Sololá	710	Panajachel	8	Panajachel	8	Agosto	2023-08-16T00:00:00	2024-11-08T15:00:00	7	Dirección del viento	4.83
54899	7	Sololá	710	Panajachel	8	Panajachel	8	Agosto	2023-08-16T00:00:00	2024-11-08T15:00:00	1	Precipitación	0
54900	7	Sololá	710	Panajachel	8	Panajachel	8	Agosto	2023-08-16T00:00:00	2024-11-08T15:00:00	8	Radiación solar	510
54901	7	Sololá	710	Panajachel	8	Panajachel	8	Agosto	2023-08-16T00:00:00	2024-11-08T16:00:00	2	Temperatura media	22.4
54902	7	Sololá	710	Panajachel	8	Panajachel	8	Agosto	2023-08-16T00:00:00	2024-11-08T16:00:00	4	Temperatura máxima	23.2
54903	7	Sololá	710	Panajachel	8	Panajachel	8	Agosto	2023-08-16T00:00:00	2024-11-08T16:00:00	3	Temperatura mínima	22.4
54904	7	Sololá	710	Panajachel	8	Panajachel	8	Agosto	2023-08-16T00:00:00	2024-11-08T16:00:00	5	Humedad	84
54905	7	Sololá	710	Panajachel	8	Panajachel	8	Agosto	2023-08-16T00:00:00	2024-11-08T16:00:00	6	Velocidad del viento	3.2
54906	7	Sololá	710	Panajachel	8	Panajachel	8	Agosto	2023-08-16T00:00:00	2024-11-08T16:00:00	7	Dirección del viento	3.22
54907	7	Sololá	710	Panajachel	8	Panajachel	8	Agosto	2023-08-16T00:00:00	2024-11-08T16:00:00	1	Precipitación	0
54908	7	Sololá	710	Panajachel	8	Panajachel	8	Agosto	2023-08-16T00:00:00	2024-11-08T16:00:00	8	Radiación solar	137
54909	7	Sololá	710	Panajachel	8	Panajachel	8	Agosto	2023-08-16T00:00:00	2024-11-08T17:00:00	2	Temperatura media	21.5
54910	7	Sololá	710	Panajachel	8	Panajachel	8	Agosto	2023-08-16T00:00:00	2024-11-08T17:00:00	4	Temperatura máxima	22.4
54911	7	Sololá	710	Panajachel	8	Panajachel	8	Agosto	2023-08-16T00:00:00	2024-11-08T17:00:00	3	Temperatura mínima	21.4
54912	7	Sololá	710	Panajachel	8	Panajachel	8	Agosto	2023-08-16T00:00:00	2024-11-08T17:00:00	5	Humedad	87
54913	7	Sololá	710	Panajachel	8	Panajachel	8	Agosto	2023-08-16T00:00:00	2024-11-08T17:00:00	6	Velocidad del viento	3.2
54914	7	Sololá	710	Panajachel	8	Panajachel	8	Agosto	2023-08-16T00:00:00	2024-11-08T17:00:00	7	Dirección del viento	3.22
54915	7	Sololá	710	Panajachel	8	Panajachel	8	Agosto	2023-08-16T00:00:00	2024-11-08T17:00:00	1	Precipitación	0
54916	7	Sololá	710	Panajachel	8	Panajachel	8	Agosto	2023-08-16T00:00:00	2024-11-08T17:00:00	8	Radiación solar	65
54917	7	Sololá	710	Panajachel	8	Panajachel	8	Agosto	2023-08-16T00:00:00	2024-11-08T18:00:00	2	Temperatura media	20.8
54918	7	Sololá	710	Panajachel	8	Panajachel	8	Agosto	2023-08-16T00:00:00	2024-11-08T18:00:00	4	Temperatura máxima	21.5
54919	7	Sololá	710	Panajachel	8	Panajachel	8	Agosto	2023-08-16T00:00:00	2024-11-08T18:00:00	3	Temperatura mínima	20.8
54920	7	Sololá	710	Panajachel	8	Panajachel	8	Agosto	2023-08-16T00:00:00	2024-11-08T18:00:00	5	Humedad	87
54921	7	Sololá	710	Panajachel	8	Panajachel	8	Agosto	2023-08-16T00:00:00	2024-11-08T18:00:00	6	Velocidad del viento	3.2
54922	7	Sololá	710	Panajachel	8	Panajachel	8	Agosto	2023-08-16T00:00:00	2024-11-08T18:00:00	7	Dirección del viento	3.22
54923	7	Sololá	710	Panajachel	8	Panajachel	8	Agosto	2023-08-16T00:00:00	2024-11-08T18:00:00	1	Precipitación	0
54924	7	Sololá	710	Panajachel	8	Panajachel	8	Agosto	2023-08-16T00:00:00	2024-11-08T18:00:00	8	Radiación solar	22
54925	7	Sololá	710	Panajachel	8	Panajachel	8	Agosto	2023-08-16T00:00:00	2024-11-08T19:00:00	2	Temperatura media	20.4
54926	7	Sololá	710	Panajachel	8	Panajachel	8	Agosto	2023-08-16T00:00:00	2024-11-08T19:00:00	4	Temperatura máxima	20.9
54927	7	Sololá	710	Panajachel	8	Panajachel	8	Agosto	2023-08-16T00:00:00	2024-11-08T19:00:00	3	Temperatura mínima	20.4
54928	7	Sololá	710	Panajachel	8	Panajachel	8	Agosto	2023-08-16T00:00:00	2024-11-08T19:00:00	5	Humedad	89
54929	7	Sololá	710	Panajachel	8	Panajachel	8	Agosto	2023-08-16T00:00:00	2024-11-08T19:00:00	6	Velocidad del viento	0
54930	7	Sololá	710	Panajachel	8	Panajachel	8	Agosto	2023-08-16T00:00:00	2024-11-08T19:00:00	7	Dirección del viento	0
54931	7	Sololá	710	Panajachel	8	Panajachel	8	Agosto	2023-08-16T00:00:00	2024-11-08T19:00:00	1	Precipitación	0
54932	7	Sololá	710	Panajachel	8	Panajachel	8	Agosto	2023-08-16T00:00:00	2024-11-08T19:00:00	8	Radiación solar	0
54933	7	Sololá	710	Panajachel	8	Panajachel	8	Agosto	2023-08-16T00:00:00	2024-11-08T20:00:00	2	Temperatura media	19.5
54934	7	Sololá	710	Panajachel	8	Panajachel	8	Agosto	2023-08-16T00:00:00	2024-11-08T20:00:00	4	Temperatura máxima	20.4
54935	7	Sololá	710	Panajachel	8	Panajachel	8	Agosto	2023-08-16T00:00:00	2024-11-08T20:00:00	3	Temperatura mínima	19.4
54936	7	Sololá	710	Panajachel	8	Panajachel	8	Agosto	2023-08-16T00:00:00	2024-11-08T20:00:00	5	Humedad	89
54937	7	Sololá	710	Panajachel	8	Panajachel	8	Agosto	2023-08-16T00:00:00	2024-11-08T20:00:00	6	Velocidad del viento	1.6
54938	7	Sololá	710	Panajachel	8	Panajachel	8	Agosto	2023-08-16T00:00:00	2024-11-08T20:00:00	7	Dirección del viento	1.61
54939	7	Sololá	710	Panajachel	8	Panajachel	8	Agosto	2023-08-16T00:00:00	2024-11-08T20:00:00	1	Precipitación	0
54940	7	Sololá	710	Panajachel	8	Panajachel	8	Agosto	2023-08-16T00:00:00	2024-11-08T20:00:00	8	Radiación solar	0
54941	7	Sololá	710	Panajachel	8	Panajachel	8	Agosto	2023-08-16T00:00:00	2024-11-08T21:00:00	2	Temperatura media	18.9
54942	7	Sololá	710	Panajachel	8	Panajachel	8	Agosto	2023-08-16T00:00:00	2024-11-08T21:00:00	4	Temperatura máxima	19.5
54943	7	Sololá	710	Panajachel	8	Panajachel	8	Agosto	2023-08-16T00:00:00	2024-11-08T21:00:00	3	Temperatura mínima	18.9
54944	7	Sololá	710	Panajachel	8	Panajachel	8	Agosto	2023-08-16T00:00:00	2024-11-08T21:00:00	5	Humedad	84
54945	7	Sololá	710	Panajachel	8	Panajachel	8	Agosto	2023-08-16T00:00:00	2024-11-08T21:00:00	6	Velocidad del viento	1.6
54946	7	Sololá	710	Panajachel	8	Panajachel	8	Agosto	2023-08-16T00:00:00	2024-11-08T21:00:00	7	Dirección del viento	1.61
54947	7	Sololá	710	Panajachel	8	Panajachel	8	Agosto	2023-08-16T00:00:00	2024-11-08T21:00:00	1	Precipitación	0
54948	7	Sololá	710	Panajachel	8	Panajachel	8	Agosto	2023-08-16T00:00:00	2024-11-08T21:00:00	8	Radiación solar	0
54949	7	Sololá	710	Panajachel	8	Panajachel	8	Agosto	2023-08-16T00:00:00	2024-11-08T22:00:00	2	Temperatura media	18.7
54950	7	Sololá	710	Panajachel	8	Panajachel	8	Agosto	2023-08-16T00:00:00	2024-11-08T22:00:00	4	Temperatura máxima	19.1
54951	7	Sololá	710	Panajachel	8	Panajachel	8	Agosto	2023-08-16T00:00:00	2024-11-08T22:00:00	3	Temperatura mínima	18.6
54952	7	Sololá	710	Panajachel	8	Panajachel	8	Agosto	2023-08-16T00:00:00	2024-11-08T22:00:00	5	Humedad	83
54953	7	Sololá	710	Panajachel	8	Panajachel	8	Agosto	2023-08-16T00:00:00	2024-11-08T22:00:00	6	Velocidad del viento	4.8
54954	7	Sololá	710	Panajachel	8	Panajachel	8	Agosto	2023-08-16T00:00:00	2024-11-08T22:00:00	7	Dirección del viento	4.83
54955	7	Sololá	710	Panajachel	8	Panajachel	8	Agosto	2023-08-16T00:00:00	2024-11-08T22:00:00	1	Precipitación	0
54956	7	Sololá	710	Panajachel	8	Panajachel	8	Agosto	2023-08-16T00:00:00	2024-11-08T22:00:00	8	Radiación solar	0
54957	7	Sololá	710	Panajachel	8	Panajachel	8	Agosto	2023-08-16T00:00:00	2024-11-08T23:00:00	2	Temperatura media	18.7
54958	7	Sololá	710	Panajachel	8	Panajachel	8	Agosto	2023-08-16T00:00:00	2024-11-08T23:00:00	4	Temperatura máxima	18.7
54959	7	Sololá	710	Panajachel	8	Panajachel	8	Agosto	2023-08-16T00:00:00	2024-11-08T23:00:00	3	Temperatura mínima	18.4
54960	7	Sololá	710	Panajachel	8	Panajachel	8	Agosto	2023-08-16T00:00:00	2024-11-08T23:00:00	5	Humedad	82
54961	7	Sololá	710	Panajachel	8	Panajachel	8	Agosto	2023-08-16T00:00:00	2024-11-08T23:00:00	6	Velocidad del viento	3.2
54962	7	Sololá	710	Panajachel	8	Panajachel	8	Agosto	2023-08-16T00:00:00	2024-11-08T23:00:00	7	Dirección del viento	3.22
54963	7	Sololá	710	Panajachel	8	Panajachel	8	Agosto	2023-08-16T00:00:00	2024-11-08T23:00:00	1	Precipitación	0
54964	7	Sololá	710	Panajachel	8	Panajachel	8	Agosto	2023-08-16T00:00:00	2024-11-08T23:00:00	8	Radiación solar	0
54965	7	Sololá	710	Panajachel	8	Panajachel	8	Agosto	2023-08-17T00:00:00	2024-11-08T00:00:00	2	Temperatura media	18.2
54966	7	Sololá	710	Panajachel	8	Panajachel	8	Agosto	2023-08-17T00:00:00	2024-11-08T00:00:00	4	Temperatura máxima	19
54967	7	Sololá	710	Panajachel	8	Panajachel	8	Agosto	2023-08-17T00:00:00	2024-11-08T00:00:00	3	Temperatura mínima	18.2
54968	7	Sololá	710	Panajachel	8	Panajachel	8	Agosto	2023-08-17T00:00:00	2024-11-08T00:00:00	5	Humedad	85
54969	7	Sololá	710	Panajachel	8	Panajachel	8	Agosto	2023-08-17T00:00:00	2024-11-08T00:00:00	6	Velocidad del viento	1.6
54970	7	Sololá	710	Panajachel	8	Panajachel	8	Agosto	2023-08-17T00:00:00	2024-11-08T00:00:00	7	Dirección del viento	1.61
54971	7	Sololá	710	Panajachel	8	Panajachel	8	Agosto	2023-08-17T00:00:00	2024-11-08T00:00:00	1	Precipitación	0
54972	7	Sololá	710	Panajachel	8	Panajachel	8	Agosto	2023-08-17T00:00:00	2024-11-08T00:00:00	8	Radiación solar	0
54973	7	Sololá	710	Panajachel	8	Panajachel	8	Agosto	2023-08-17T00:00:00	2024-11-08T01:00:00	2	Temperatura media	17.8
54974	7	Sololá	710	Panajachel	8	Panajachel	8	Agosto	2023-08-17T00:00:00	2024-11-08T01:00:00	4	Temperatura máxima	18.2
54975	7	Sololá	710	Panajachel	8	Panajachel	8	Agosto	2023-08-17T00:00:00	2024-11-08T01:00:00	3	Temperatura mínima	17.7
54976	7	Sololá	710	Panajachel	8	Panajachel	8	Agosto	2023-08-17T00:00:00	2024-11-08T01:00:00	5	Humedad	84
54977	7	Sololá	710	Panajachel	8	Panajachel	8	Agosto	2023-08-17T00:00:00	2024-11-08T01:00:00	6	Velocidad del viento	3.2
54978	7	Sololá	710	Panajachel	8	Panajachel	8	Agosto	2023-08-17T00:00:00	2024-11-08T01:00:00	7	Dirección del viento	3.22
54979	7	Sololá	710	Panajachel	8	Panajachel	8	Agosto	2023-08-17T00:00:00	2024-11-08T01:00:00	1	Precipitación	0
54980	7	Sololá	710	Panajachel	8	Panajachel	8	Agosto	2023-08-17T00:00:00	2024-11-08T01:00:00	8	Radiación solar	0
54981	7	Sololá	710	Panajachel	8	Panajachel	8	Agosto	2023-08-17T00:00:00	2024-11-08T02:00:00	2	Temperatura media	18
54982	7	Sololá	710	Panajachel	8	Panajachel	8	Agosto	2023-08-17T00:00:00	2024-11-08T02:00:00	4	Temperatura máxima	18.1
54983	7	Sololá	710	Panajachel	8	Panajachel	8	Agosto	2023-08-17T00:00:00	2024-11-08T02:00:00	3	Temperatura mínima	17.7
54984	7	Sololá	710	Panajachel	8	Panajachel	8	Agosto	2023-08-17T00:00:00	2024-11-08T02:00:00	5	Humedad	82
54985	7	Sololá	710	Panajachel	8	Panajachel	8	Agosto	2023-08-17T00:00:00	2024-11-08T02:00:00	6	Velocidad del viento	0
54986	7	Sololá	710	Panajachel	8	Panajachel	8	Agosto	2023-08-17T00:00:00	2024-11-08T02:00:00	7	Dirección del viento	0
54987	7	Sololá	710	Panajachel	8	Panajachel	8	Agosto	2023-08-17T00:00:00	2024-11-08T02:00:00	1	Precipitación	0
54988	7	Sololá	710	Panajachel	8	Panajachel	8	Agosto	2023-08-17T00:00:00	2024-11-08T02:00:00	8	Radiación solar	0
54989	7	Sololá	710	Panajachel	8	Panajachel	8	Agosto	2023-08-17T00:00:00	2024-11-08T03:00:00	2	Temperatura media	18
54990	7	Sololá	710	Panajachel	8	Panajachel	8	Agosto	2023-08-17T00:00:00	2024-11-08T03:00:00	4	Temperatura máxima	18.7
54991	7	Sololá	710	Panajachel	8	Panajachel	8	Agosto	2023-08-17T00:00:00	2024-11-08T03:00:00	3	Temperatura mínima	17.9
54992	7	Sololá	710	Panajachel	8	Panajachel	8	Agosto	2023-08-17T00:00:00	2024-11-08T03:00:00	5	Humedad	81
54993	7	Sololá	710	Panajachel	8	Panajachel	8	Agosto	2023-08-17T00:00:00	2024-11-08T03:00:00	6	Velocidad del viento	1.6
54994	7	Sololá	710	Panajachel	8	Panajachel	8	Agosto	2023-08-17T00:00:00	2024-11-08T03:00:00	7	Dirección del viento	1.61
54995	7	Sololá	710	Panajachel	8	Panajachel	8	Agosto	2023-08-17T00:00:00	2024-11-08T03:00:00	1	Precipitación	0
54996	7	Sololá	710	Panajachel	8	Panajachel	8	Agosto	2023-08-17T00:00:00	2024-11-08T03:00:00	8	Radiación solar	0
54997	7	Sololá	710	Panajachel	8	Panajachel	8	Agosto	2023-08-17T00:00:00	2024-11-08T04:00:00	2	Temperatura media	17.9
54998	7	Sololá	710	Panajachel	8	Panajachel	8	Agosto	2023-08-17T00:00:00	2024-11-08T04:00:00	4	Temperatura máxima	18
54999	7	Sololá	710	Panajachel	8	Panajachel	8	Agosto	2023-08-17T00:00:00	2024-11-08T04:00:00	3	Temperatura mínima	17.6
55000	7	Sololá	710	Panajachel	8	Panajachel	8	Agosto	2023-08-17T00:00:00	2024-11-08T04:00:00	5	Humedad	82
55001	7	Sololá	710	Panajachel	8	Panajachel	8	Agosto	2023-08-17T00:00:00	2024-11-08T04:00:00	6	Velocidad del viento	1.6
55002	7	Sololá	710	Panajachel	8	Panajachel	8	Agosto	2023-08-17T00:00:00	2024-11-08T04:00:00	7	Dirección del viento	1.61
55003	7	Sololá	710	Panajachel	8	Panajachel	8	Agosto	2023-08-17T00:00:00	2024-11-08T04:00:00	1	Precipitación	0
55004	7	Sololá	710	Panajachel	8	Panajachel	8	Agosto	2023-08-17T00:00:00	2024-11-08T04:00:00	8	Radiación solar	0
55005	7	Sololá	710	Panajachel	8	Panajachel	8	Agosto	2023-08-17T00:00:00	2024-11-08T05:00:00	2	Temperatura media	17
55006	7	Sololá	710	Panajachel	8	Panajachel	8	Agosto	2023-08-17T00:00:00	2024-11-08T05:00:00	4	Temperatura máxima	17.8
55007	7	Sololá	710	Panajachel	8	Panajachel	8	Agosto	2023-08-17T00:00:00	2024-11-08T05:00:00	3	Temperatura mínima	17
55008	7	Sololá	710	Panajachel	8	Panajachel	8	Agosto	2023-08-17T00:00:00	2024-11-08T05:00:00	5	Humedad	85
55009	7	Sololá	710	Panajachel	8	Panajachel	8	Agosto	2023-08-17T00:00:00	2024-11-08T05:00:00	6	Velocidad del viento	0
55010	7	Sololá	710	Panajachel	8	Panajachel	8	Agosto	2023-08-17T00:00:00	2024-11-08T05:00:00	7	Dirección del viento	0
55011	7	Sololá	710	Panajachel	8	Panajachel	8	Agosto	2023-08-17T00:00:00	2024-11-08T05:00:00	1	Precipitación	0
55012	7	Sololá	710	Panajachel	8	Panajachel	8	Agosto	2023-08-17T00:00:00	2024-11-08T05:00:00	8	Radiación solar	0
55013	7	Sololá	710	Panajachel	8	Panajachel	8	Agosto	2023-08-17T00:00:00	2024-11-08T06:00:00	2	Temperatura media	17
55014	7	Sololá	710	Panajachel	8	Panajachel	8	Agosto	2023-08-17T00:00:00	2024-11-08T06:00:00	4	Temperatura máxima	17.3
55015	7	Sololá	710	Panajachel	8	Panajachel	8	Agosto	2023-08-17T00:00:00	2024-11-08T06:00:00	3	Temperatura mínima	16.6
55016	7	Sololá	710	Panajachel	8	Panajachel	8	Agosto	2023-08-17T00:00:00	2024-11-08T06:00:00	5	Humedad	84
55017	7	Sololá	710	Panajachel	8	Panajachel	8	Agosto	2023-08-17T00:00:00	2024-11-08T06:00:00	6	Velocidad del viento	1.6
55018	7	Sololá	710	Panajachel	8	Panajachel	8	Agosto	2023-08-17T00:00:00	2024-11-08T06:00:00	7	Dirección del viento	1.61
55019	7	Sololá	710	Panajachel	8	Panajachel	8	Agosto	2023-08-17T00:00:00	2024-11-08T06:00:00	1	Precipitación	0
55020	7	Sololá	710	Panajachel	8	Panajachel	8	Agosto	2023-08-17T00:00:00	2024-11-08T06:00:00	8	Radiación solar	0
55021	7	Sololá	710	Panajachel	8	Panajachel	8	Agosto	2023-08-17T00:00:00	2024-11-08T07:00:00	2	Temperatura media	18.6
55022	7	Sololá	710	Panajachel	8	Panajachel	8	Agosto	2023-08-17T00:00:00	2024-11-08T07:00:00	4	Temperatura máxima	18.6
55023	7	Sololá	710	Panajachel	8	Panajachel	8	Agosto	2023-08-17T00:00:00	2024-11-08T07:00:00	3	Temperatura mínima	16.9
55024	7	Sololá	710	Panajachel	8	Panajachel	8	Agosto	2023-08-17T00:00:00	2024-11-08T07:00:00	5	Humedad	79
55025	7	Sololá	710	Panajachel	8	Panajachel	8	Agosto	2023-08-17T00:00:00	2024-11-08T07:00:00	6	Velocidad del viento	1.6
55026	7	Sololá	710	Panajachel	8	Panajachel	8	Agosto	2023-08-17T00:00:00	2024-11-08T07:00:00	7	Dirección del viento	1.61
55027	7	Sololá	710	Panajachel	8	Panajachel	8	Agosto	2023-08-17T00:00:00	2024-11-08T07:00:00	1	Precipitación	0
55028	7	Sololá	710	Panajachel	8	Panajachel	8	Agosto	2023-08-17T00:00:00	2024-11-08T07:00:00	8	Radiación solar	48
55029	7	Sololá	710	Panajachel	8	Panajachel	8	Agosto	2023-08-17T00:00:00	2024-11-08T08:00:00	2	Temperatura media	22.3
55030	7	Sololá	710	Panajachel	8	Panajachel	8	Agosto	2023-08-17T00:00:00	2024-11-08T08:00:00	4	Temperatura máxima	22.3
55031	7	Sololá	710	Panajachel	8	Panajachel	8	Agosto	2023-08-17T00:00:00	2024-11-08T08:00:00	3	Temperatura mínima	18.6
55032	7	Sololá	710	Panajachel	8	Panajachel	8	Agosto	2023-08-17T00:00:00	2024-11-08T08:00:00	5	Humedad	68
55033	7	Sololá	710	Panajachel	8	Panajachel	8	Agosto	2023-08-17T00:00:00	2024-11-08T08:00:00	6	Velocidad del viento	3.2
55034	7	Sololá	710	Panajachel	8	Panajachel	8	Agosto	2023-08-17T00:00:00	2024-11-08T08:00:00	7	Dirección del viento	3.22
55035	7	Sololá	710	Panajachel	8	Panajachel	8	Agosto	2023-08-17T00:00:00	2024-11-08T08:00:00	1	Precipitación	0
55036	7	Sololá	710	Panajachel	8	Panajachel	8	Agosto	2023-08-17T00:00:00	2024-11-08T08:00:00	8	Radiación solar	293
55037	7	Sololá	710	Panajachel	8	Panajachel	8	Agosto	2023-08-17T00:00:00	2024-11-08T09:00:00	2	Temperatura media	23
55038	7	Sololá	710	Panajachel	8	Panajachel	8	Agosto	2023-08-17T00:00:00	2024-11-08T09:00:00	4	Temperatura máxima	23.8
55039	7	Sololá	710	Panajachel	8	Panajachel	8	Agosto	2023-08-17T00:00:00	2024-11-08T09:00:00	3	Temperatura mínima	22.3
55040	7	Sololá	710	Panajachel	8	Panajachel	8	Agosto	2023-08-17T00:00:00	2024-11-08T09:00:00	5	Humedad	69
55041	7	Sololá	710	Panajachel	8	Panajachel	8	Agosto	2023-08-17T00:00:00	2024-11-08T09:00:00	6	Velocidad del viento	3.2
55042	7	Sololá	710	Panajachel	8	Panajachel	8	Agosto	2023-08-17T00:00:00	2024-11-08T09:00:00	7	Dirección del viento	3.22
55043	7	Sololá	710	Panajachel	8	Panajachel	8	Agosto	2023-08-17T00:00:00	2024-11-08T09:00:00	1	Precipitación	0
55044	7	Sololá	710	Panajachel	8	Panajachel	8	Agosto	2023-08-17T00:00:00	2024-11-08T09:00:00	8	Radiación solar	520
55045	7	Sololá	710	Panajachel	8	Panajachel	8	Agosto	2023-08-17T00:00:00	2024-11-08T10:00:00	2	Temperatura media	25
55046	7	Sololá	710	Panajachel	8	Panajachel	8	Agosto	2023-08-17T00:00:00	2024-11-08T10:00:00	4	Temperatura máxima	25
55047	7	Sololá	710	Panajachel	8	Panajachel	8	Agosto	2023-08-17T00:00:00	2024-11-08T10:00:00	3	Temperatura mínima	23
55048	7	Sololá	710	Panajachel	8	Panajachel	8	Agosto	2023-08-17T00:00:00	2024-11-08T10:00:00	5	Humedad	58
55049	7	Sololá	710	Panajachel	8	Panajachel	8	Agosto	2023-08-17T00:00:00	2024-11-08T10:00:00	6	Velocidad del viento	3.2
55050	7	Sololá	710	Panajachel	8	Panajachel	8	Agosto	2023-08-17T00:00:00	2024-11-08T10:00:00	7	Dirección del viento	3.22
55051	7	Sololá	710	Panajachel	8	Panajachel	8	Agosto	2023-08-17T00:00:00	2024-11-08T10:00:00	1	Precipitación	0
55052	7	Sololá	710	Panajachel	8	Panajachel	8	Agosto	2023-08-17T00:00:00	2024-11-08T10:00:00	8	Radiación solar	729
55053	7	Sololá	710	Panajachel	8	Panajachel	8	Agosto	2023-08-17T00:00:00	2024-11-08T11:00:00	2	Temperatura media	26.4
55054	7	Sololá	710	Panajachel	8	Panajachel	8	Agosto	2023-08-17T00:00:00	2024-11-08T11:00:00	4	Temperatura máxima	26.5
55055	7	Sololá	710	Panajachel	8	Panajachel	8	Agosto	2023-08-17T00:00:00	2024-11-08T11:00:00	3	Temperatura mínima	24.8
55056	7	Sololá	710	Panajachel	8	Panajachel	8	Agosto	2023-08-17T00:00:00	2024-11-08T11:00:00	5	Humedad	51
55057	7	Sololá	710	Panajachel	8	Panajachel	8	Agosto	2023-08-17T00:00:00	2024-11-08T11:00:00	6	Velocidad del viento	6.4
55058	7	Sololá	710	Panajachel	8	Panajachel	8	Agosto	2023-08-17T00:00:00	2024-11-08T11:00:00	7	Dirección del viento	6.44
55059	7	Sololá	710	Panajachel	8	Panajachel	8	Agosto	2023-08-17T00:00:00	2024-11-08T11:00:00	1	Precipitación	0
55060	7	Sololá	710	Panajachel	8	Panajachel	8	Agosto	2023-08-17T00:00:00	2024-11-08T11:00:00	8	Radiación solar	868
55061	7	Sololá	710	Panajachel	8	Panajachel	8	Agosto	2023-08-17T00:00:00	2024-11-08T12:00:00	2	Temperatura media	27.4
55062	7	Sololá	710	Panajachel	8	Panajachel	8	Agosto	2023-08-17T00:00:00	2024-11-08T12:00:00	4	Temperatura máxima	27.4
55063	7	Sololá	710	Panajachel	8	Panajachel	8	Agosto	2023-08-17T00:00:00	2024-11-08T12:00:00	3	Temperatura mínima	26.2
55064	7	Sololá	710	Panajachel	8	Panajachel	8	Agosto	2023-08-17T00:00:00	2024-11-08T12:00:00	5	Humedad	48
55065	7	Sololá	710	Panajachel	8	Panajachel	8	Agosto	2023-08-17T00:00:00	2024-11-08T12:00:00	6	Velocidad del viento	6.4
55066	7	Sololá	710	Panajachel	8	Panajachel	8	Agosto	2023-08-17T00:00:00	2024-11-08T12:00:00	7	Dirección del viento	6.44
55067	7	Sololá	710	Panajachel	8	Panajachel	8	Agosto	2023-08-17T00:00:00	2024-11-08T12:00:00	1	Precipitación	0
55068	7	Sololá	710	Panajachel	8	Panajachel	8	Agosto	2023-08-17T00:00:00	2024-11-08T12:00:00	8	Radiación solar	998
55069	7	Sololá	710	Panajachel	8	Panajachel	8	Agosto	2023-08-17T00:00:00	2024-11-08T13:00:00	2	Temperatura media	25.7
55070	7	Sololá	710	Panajachel	8	Panajachel	8	Agosto	2023-08-17T00:00:00	2024-11-08T13:00:00	4	Temperatura máxima	27.8
55071	7	Sololá	710	Panajachel	8	Panajachel	8	Agosto	2023-08-17T00:00:00	2024-11-08T13:00:00	3	Temperatura mínima	25.7
55072	7	Sololá	710	Panajachel	8	Panajachel	8	Agosto	2023-08-17T00:00:00	2024-11-08T13:00:00	5	Humedad	68
55073	7	Sololá	710	Panajachel	8	Panajachel	8	Agosto	2023-08-17T00:00:00	2024-11-08T13:00:00	6	Velocidad del viento	4.8
55074	7	Sololá	710	Panajachel	8	Panajachel	8	Agosto	2023-08-17T00:00:00	2024-11-08T13:00:00	7	Dirección del viento	4.83
55075	7	Sololá	710	Panajachel	8	Panajachel	8	Agosto	2023-08-17T00:00:00	2024-11-08T13:00:00	1	Precipitación	0
55076	7	Sololá	710	Panajachel	8	Panajachel	8	Agosto	2023-08-17T00:00:00	2024-11-08T13:00:00	8	Radiación solar	772
55077	7	Sololá	710	Panajachel	8	Panajachel	8	Agosto	2023-08-17T00:00:00	2024-11-08T14:00:00	2	Temperatura media	24.4
55078	7	Sololá	710	Panajachel	8	Panajachel	8	Agosto	2023-08-17T00:00:00	2024-11-08T14:00:00	4	Temperatura máxima	25.7
55079	7	Sololá	710	Panajachel	8	Panajachel	8	Agosto	2023-08-17T00:00:00	2024-11-08T14:00:00	3	Temperatura mínima	24.4
55080	7	Sololá	710	Panajachel	8	Panajachel	8	Agosto	2023-08-17T00:00:00	2024-11-08T14:00:00	5	Humedad	73
55081	7	Sololá	710	Panajachel	8	Panajachel	8	Agosto	2023-08-17T00:00:00	2024-11-08T14:00:00	6	Velocidad del viento	4.8
55082	7	Sololá	710	Panajachel	8	Panajachel	8	Agosto	2023-08-17T00:00:00	2024-11-08T14:00:00	7	Dirección del viento	4.83
55083	7	Sololá	710	Panajachel	8	Panajachel	8	Agosto	2023-08-17T00:00:00	2024-11-08T14:00:00	1	Precipitación	0
55084	7	Sololá	710	Panajachel	8	Panajachel	8	Agosto	2023-08-17T00:00:00	2024-11-08T14:00:00	8	Radiación solar	451
55085	7	Sololá	710	Panajachel	8	Panajachel	8	Agosto	2023-08-17T00:00:00	2024-11-08T15:00:00	2	Temperatura media	24.8
55086	7	Sololá	710	Panajachel	8	Panajachel	8	Agosto	2023-08-17T00:00:00	2024-11-08T15:00:00	4	Temperatura máxima	24.9
55087	7	Sololá	710	Panajachel	8	Panajachel	8	Agosto	2023-08-17T00:00:00	2024-11-08T15:00:00	3	Temperatura mínima	23.9
55088	7	Sololá	710	Panajachel	8	Panajachel	8	Agosto	2023-08-17T00:00:00	2024-11-08T15:00:00	5	Humedad	73
55089	7	Sololá	710	Panajachel	8	Panajachel	8	Agosto	2023-08-17T00:00:00	2024-11-08T15:00:00	6	Velocidad del viento	3.2
55090	7	Sololá	710	Panajachel	8	Panajachel	8	Agosto	2023-08-17T00:00:00	2024-11-08T15:00:00	7	Dirección del viento	3.22
55091	7	Sololá	710	Panajachel	8	Panajachel	8	Agosto	2023-08-17T00:00:00	2024-11-08T15:00:00	1	Precipitación	0
55092	7	Sololá	710	Panajachel	8	Panajachel	8	Agosto	2023-08-17T00:00:00	2024-11-08T15:00:00	8	Radiación solar	320
55093	7	Sololá	710	Panajachel	8	Panajachel	8	Agosto	2023-08-17T00:00:00	2024-11-08T16:00:00	2	Temperatura media	24.3
55094	7	Sololá	710	Panajachel	8	Panajachel	8	Agosto	2023-08-17T00:00:00	2024-11-08T16:00:00	4	Temperatura máxima	24.8
55095	7	Sololá	710	Panajachel	8	Panajachel	8	Agosto	2023-08-17T00:00:00	2024-11-08T16:00:00	3	Temperatura mínima	24
55096	7	Sololá	710	Panajachel	8	Panajachel	8	Agosto	2023-08-17T00:00:00	2024-11-08T16:00:00	5	Humedad	76
55097	7	Sololá	710	Panajachel	8	Panajachel	8	Agosto	2023-08-17T00:00:00	2024-11-08T16:00:00	6	Velocidad del viento	3.2
55098	7	Sololá	710	Panajachel	8	Panajachel	8	Agosto	2023-08-17T00:00:00	2024-11-08T16:00:00	7	Dirección del viento	3.22
55099	7	Sololá	710	Panajachel	8	Panajachel	8	Agosto	2023-08-17T00:00:00	2024-11-08T16:00:00	1	Precipitación	0
55100	7	Sololá	710	Panajachel	8	Panajachel	8	Agosto	2023-08-17T00:00:00	2024-11-08T16:00:00	8	Radiación solar	190
55101	7	Sololá	710	Panajachel	8	Panajachel	8	Agosto	2023-08-17T00:00:00	2024-11-08T17:00:00	2	Temperatura media	23.9
55102	7	Sololá	710	Panajachel	8	Panajachel	8	Agosto	2023-08-17T00:00:00	2024-11-08T17:00:00	4	Temperatura máxima	24.4
55103	7	Sololá	710	Panajachel	8	Panajachel	8	Agosto	2023-08-17T00:00:00	2024-11-08T17:00:00	3	Temperatura mínima	23.8
55104	7	Sololá	710	Panajachel	8	Panajachel	8	Agosto	2023-08-17T00:00:00	2024-11-08T17:00:00	5	Humedad	77
55105	7	Sololá	710	Panajachel	8	Panajachel	8	Agosto	2023-08-17T00:00:00	2024-11-08T17:00:00	6	Velocidad del viento	3.2
55106	7	Sololá	710	Panajachel	8	Panajachel	8	Agosto	2023-08-17T00:00:00	2024-11-08T17:00:00	7	Dirección del viento	3.22
55107	7	Sololá	710	Panajachel	8	Panajachel	8	Agosto	2023-08-17T00:00:00	2024-11-08T17:00:00	1	Precipitación	0
55108	7	Sololá	710	Panajachel	8	Panajachel	8	Agosto	2023-08-17T00:00:00	2024-11-08T17:00:00	8	Radiación solar	145
55109	7	Sololá	710	Panajachel	8	Panajachel	8	Agosto	2023-08-17T00:00:00	2024-11-08T18:00:00	2	Temperatura media	22.7
55110	7	Sololá	710	Panajachel	8	Panajachel	8	Agosto	2023-08-17T00:00:00	2024-11-08T18:00:00	4	Temperatura máxima	23.9
55111	7	Sololá	710	Panajachel	8	Panajachel	8	Agosto	2023-08-17T00:00:00	2024-11-08T18:00:00	3	Temperatura mínima	22.7
55112	7	Sololá	710	Panajachel	8	Panajachel	8	Agosto	2023-08-17T00:00:00	2024-11-08T18:00:00	5	Humedad	83
55113	7	Sololá	710	Panajachel	8	Panajachel	8	Agosto	2023-08-17T00:00:00	2024-11-08T18:00:00	6	Velocidad del viento	3.2
55114	7	Sololá	710	Panajachel	8	Panajachel	8	Agosto	2023-08-17T00:00:00	2024-11-08T18:00:00	7	Dirección del viento	3.22
55115	7	Sololá	710	Panajachel	8	Panajachel	8	Agosto	2023-08-17T00:00:00	2024-11-08T18:00:00	1	Precipitación	0
55116	7	Sololá	710	Panajachel	8	Panajachel	8	Agosto	2023-08-17T00:00:00	2024-11-08T18:00:00	8	Radiación solar	88
55117	7	Sololá	710	Panajachel	8	Panajachel	8	Agosto	2023-08-17T00:00:00	2024-11-08T19:00:00	2	Temperatura media	21.6
55118	7	Sololá	710	Panajachel	8	Panajachel	8	Agosto	2023-08-17T00:00:00	2024-11-08T19:00:00	4	Temperatura máxima	22.7
55119	7	Sololá	710	Panajachel	8	Panajachel	8	Agosto	2023-08-17T00:00:00	2024-11-08T19:00:00	3	Temperatura mínima	21.6
55120	7	Sololá	710	Panajachel	8	Panajachel	8	Agosto	2023-08-17T00:00:00	2024-11-08T19:00:00	5	Humedad	88
55121	7	Sololá	710	Panajachel	8	Panajachel	8	Agosto	2023-08-17T00:00:00	2024-11-08T19:00:00	6	Velocidad del viento	1.6
55122	7	Sololá	710	Panajachel	8	Panajachel	8	Agosto	2023-08-17T00:00:00	2024-11-08T19:00:00	7	Dirección del viento	1.61
55123	7	Sololá	710	Panajachel	8	Panajachel	8	Agosto	2023-08-17T00:00:00	2024-11-08T19:00:00	1	Precipitación	0
55124	7	Sololá	710	Panajachel	8	Panajachel	8	Agosto	2023-08-17T00:00:00	2024-11-08T19:00:00	8	Radiación solar	0
55125	7	Sololá	710	Panajachel	8	Panajachel	8	Agosto	2023-08-17T00:00:00	2024-11-08T20:00:00	2	Temperatura media	20.8
55126	7	Sololá	710	Panajachel	8	Panajachel	8	Agosto	2023-08-17T00:00:00	2024-11-08T20:00:00	4	Temperatura máxima	21.7
55127	7	Sololá	710	Panajachel	8	Panajachel	8	Agosto	2023-08-17T00:00:00	2024-11-08T20:00:00	3	Temperatura mínima	20.8
55128	7	Sololá	710	Panajachel	8	Panajachel	8	Agosto	2023-08-17T00:00:00	2024-11-08T20:00:00	5	Humedad	87
55129	7	Sololá	710	Panajachel	8	Panajachel	8	Agosto	2023-08-17T00:00:00	2024-11-08T20:00:00	6	Velocidad del viento	0
55130	7	Sololá	710	Panajachel	8	Panajachel	8	Agosto	2023-08-17T00:00:00	2024-11-08T20:00:00	7	Dirección del viento	0
55131	7	Sololá	710	Panajachel	8	Panajachel	8	Agosto	2023-08-17T00:00:00	2024-11-08T20:00:00	1	Precipitación	0
55132	7	Sololá	710	Panajachel	8	Panajachel	8	Agosto	2023-08-17T00:00:00	2024-11-08T20:00:00	8	Radiación solar	0
55133	7	Sololá	710	Panajachel	8	Panajachel	8	Agosto	2023-08-17T00:00:00	2024-11-08T21:00:00	2	Temperatura media	20.5
55134	7	Sololá	710	Panajachel	8	Panajachel	8	Agosto	2023-08-17T00:00:00	2024-11-08T21:00:00	4	Temperatura máxima	21
55135	7	Sololá	710	Panajachel	8	Panajachel	8	Agosto	2023-08-17T00:00:00	2024-11-08T21:00:00	3	Temperatura mínima	20.5
55136	7	Sololá	710	Panajachel	8	Panajachel	8	Agosto	2023-08-17T00:00:00	2024-11-08T21:00:00	5	Humedad	79
55137	7	Sololá	710	Panajachel	8	Panajachel	8	Agosto	2023-08-17T00:00:00	2024-11-08T21:00:00	6	Velocidad del viento	1.6
55138	7	Sololá	710	Panajachel	8	Panajachel	8	Agosto	2023-08-17T00:00:00	2024-11-08T21:00:00	7	Dirección del viento	1.61
55139	7	Sololá	710	Panajachel	8	Panajachel	8	Agosto	2023-08-17T00:00:00	2024-11-08T21:00:00	1	Precipitación	0
55140	7	Sololá	710	Panajachel	8	Panajachel	8	Agosto	2023-08-17T00:00:00	2024-11-08T21:00:00	8	Radiación solar	0
55141	7	Sololá	710	Panajachel	8	Panajachel	8	Agosto	2023-08-17T00:00:00	2024-11-08T22:00:00	2	Temperatura media	19.1
55142	7	Sololá	710	Panajachel	8	Panajachel	8	Agosto	2023-08-17T00:00:00	2024-11-08T22:00:00	4	Temperatura máxima	20.5
55143	7	Sololá	710	Panajachel	8	Panajachel	8	Agosto	2023-08-17T00:00:00	2024-11-08T22:00:00	3	Temperatura mínima	19.1
55144	7	Sololá	710	Panajachel	8	Panajachel	8	Agosto	2023-08-17T00:00:00	2024-11-08T22:00:00	5	Humedad	82
55145	7	Sololá	710	Panajachel	8	Panajachel	8	Agosto	2023-08-17T00:00:00	2024-11-08T22:00:00	6	Velocidad del viento	3.2
55146	7	Sololá	710	Panajachel	8	Panajachel	8	Agosto	2023-08-17T00:00:00	2024-11-08T22:00:00	7	Dirección del viento	3.22
55147	7	Sololá	710	Panajachel	8	Panajachel	8	Agosto	2023-08-17T00:00:00	2024-11-08T22:00:00	1	Precipitación	0
55148	7	Sololá	710	Panajachel	8	Panajachel	8	Agosto	2023-08-17T00:00:00	2024-11-08T22:00:00	8	Radiación solar	0
55149	7	Sololá	710	Panajachel	8	Panajachel	8	Agosto	2023-08-17T00:00:00	2024-11-08T23:00:00	2	Temperatura media	18.4
55150	7	Sololá	710	Panajachel	8	Panajachel	8	Agosto	2023-08-17T00:00:00	2024-11-08T23:00:00	4	Temperatura máxima	19.1
55151	7	Sololá	710	Panajachel	8	Panajachel	8	Agosto	2023-08-17T00:00:00	2024-11-08T23:00:00	3	Temperatura mínima	18.4
55152	7	Sololá	710	Panajachel	8	Panajachel	8	Agosto	2023-08-17T00:00:00	2024-11-08T23:00:00	5	Humedad	83
55153	7	Sololá	710	Panajachel	8	Panajachel	8	Agosto	2023-08-17T00:00:00	2024-11-08T23:00:00	6	Velocidad del viento	3.2
55154	7	Sololá	710	Panajachel	8	Panajachel	8	Agosto	2023-08-17T00:00:00	2024-11-08T23:00:00	7	Dirección del viento	3.22
55155	7	Sololá	710	Panajachel	8	Panajachel	8	Agosto	2023-08-17T00:00:00	2024-11-08T23:00:00	1	Precipitación	0
55156	7	Sololá	710	Panajachel	8	Panajachel	8	Agosto	2023-08-17T00:00:00	2024-11-08T23:00:00	8	Radiación solar	0
55157	7	Sololá	710	Panajachel	8	Panajachel	8	Agosto	2023-08-18T00:00:00	2024-11-08T00:00:00	2	Temperatura media	18.9
55158	7	Sololá	710	Panajachel	8	Panajachel	8	Agosto	2023-08-18T00:00:00	2024-11-08T00:00:00	4	Temperatura máxima	19.3
55159	7	Sololá	710	Panajachel	8	Panajachel	8	Agosto	2023-08-18T00:00:00	2024-11-08T00:00:00	3	Temperatura mínima	18.4
55160	7	Sololá	710	Panajachel	8	Panajachel	8	Agosto	2023-08-18T00:00:00	2024-11-08T00:00:00	5	Humedad	79
55161	7	Sololá	710	Panajachel	8	Panajachel	8	Agosto	2023-08-18T00:00:00	2024-11-08T00:00:00	6	Velocidad del viento	3.2
55162	7	Sololá	710	Panajachel	8	Panajachel	8	Agosto	2023-08-18T00:00:00	2024-11-08T00:00:00	7	Dirección del viento	3.22
55163	7	Sololá	710	Panajachel	8	Panajachel	8	Agosto	2023-08-18T00:00:00	2024-11-08T00:00:00	1	Precipitación	0
55164	7	Sololá	710	Panajachel	8	Panajachel	8	Agosto	2023-08-18T00:00:00	2024-11-08T00:00:00	8	Radiación solar	0
55165	7	Sololá	710	Panajachel	8	Panajachel	8	Agosto	2023-08-18T00:00:00	2024-11-08T01:00:00	2	Temperatura media	18.1
55166	7	Sololá	710	Panajachel	8	Panajachel	8	Agosto	2023-08-18T00:00:00	2024-11-08T01:00:00	4	Temperatura máxima	19.1
55167	7	Sololá	710	Panajachel	8	Panajachel	8	Agosto	2023-08-18T00:00:00	2024-11-08T01:00:00	3	Temperatura mínima	18.1
55168	7	Sololá	710	Panajachel	8	Panajachel	8	Agosto	2023-08-18T00:00:00	2024-11-08T01:00:00	5	Humedad	83
55169	7	Sololá	710	Panajachel	8	Panajachel	8	Agosto	2023-08-18T00:00:00	2024-11-08T01:00:00	6	Velocidad del viento	1.6
55170	7	Sololá	710	Panajachel	8	Panajachel	8	Agosto	2023-08-18T00:00:00	2024-11-08T01:00:00	7	Dirección del viento	1.61
55171	7	Sololá	710	Panajachel	8	Panajachel	8	Agosto	2023-08-18T00:00:00	2024-11-08T01:00:00	1	Precipitación	0
55172	7	Sololá	710	Panajachel	8	Panajachel	8	Agosto	2023-08-18T00:00:00	2024-11-08T01:00:00	8	Radiación solar	0
55173	7	Sololá	710	Panajachel	8	Panajachel	8	Agosto	2023-08-18T00:00:00	2024-11-08T02:00:00	2	Temperatura media	19.2
55174	7	Sololá	710	Panajachel	8	Panajachel	8	Agosto	2023-08-18T00:00:00	2024-11-08T02:00:00	4	Temperatura máxima	19.2
55175	7	Sololá	710	Panajachel	8	Panajachel	8	Agosto	2023-08-18T00:00:00	2024-11-08T02:00:00	3	Temperatura mínima	18
55176	7	Sololá	710	Panajachel	8	Panajachel	8	Agosto	2023-08-18T00:00:00	2024-11-08T02:00:00	5	Humedad	79
55177	7	Sololá	710	Panajachel	8	Panajachel	8	Agosto	2023-08-18T00:00:00	2024-11-08T02:00:00	6	Velocidad del viento	1.6
55178	7	Sololá	710	Panajachel	8	Panajachel	8	Agosto	2023-08-18T00:00:00	2024-11-08T02:00:00	7	Dirección del viento	1.61
55179	7	Sololá	710	Panajachel	8	Panajachel	8	Agosto	2023-08-18T00:00:00	2024-11-08T02:00:00	1	Precipitación	0
55180	7	Sololá	710	Panajachel	8	Panajachel	8	Agosto	2023-08-18T00:00:00	2024-11-08T02:00:00	8	Radiación solar	0
55181	7	Sololá	710	Panajachel	8	Panajachel	8	Agosto	2023-08-18T00:00:00	2024-11-08T03:00:00	2	Temperatura media	19.8
55182	7	Sololá	710	Panajachel	8	Panajachel	8	Agosto	2023-08-18T00:00:00	2024-11-08T03:00:00	4	Temperatura máxima	19.9
55183	7	Sololá	710	Panajachel	8	Panajachel	8	Agosto	2023-08-18T00:00:00	2024-11-08T03:00:00	3	Temperatura mínima	19.2
55184	7	Sololá	710	Panajachel	8	Panajachel	8	Agosto	2023-08-18T00:00:00	2024-11-08T03:00:00	5	Humedad	78
55185	7	Sololá	710	Panajachel	8	Panajachel	8	Agosto	2023-08-18T00:00:00	2024-11-08T03:00:00	6	Velocidad del viento	0
55186	7	Sololá	710	Panajachel	8	Panajachel	8	Agosto	2023-08-18T00:00:00	2024-11-08T03:00:00	7	Dirección del viento	0
55187	7	Sololá	710	Panajachel	8	Panajachel	8	Agosto	2023-08-18T00:00:00	2024-11-08T03:00:00	1	Precipitación	0
55188	7	Sololá	710	Panajachel	8	Panajachel	8	Agosto	2023-08-18T00:00:00	2024-11-08T03:00:00	8	Radiación solar	0
55189	7	Sololá	710	Panajachel	8	Panajachel	8	Agosto	2023-08-18T00:00:00	2024-11-08T04:00:00	2	Temperatura media	19.8
55190	7	Sololá	710	Panajachel	8	Panajachel	8	Agosto	2023-08-18T00:00:00	2024-11-08T04:00:00	4	Temperatura máxima	19.8
55191	7	Sololá	710	Panajachel	8	Panajachel	8	Agosto	2023-08-18T00:00:00	2024-11-08T04:00:00	3	Temperatura mínima	19.4
55192	7	Sololá	710	Panajachel	8	Panajachel	8	Agosto	2023-08-18T00:00:00	2024-11-08T04:00:00	5	Humedad	77
55193	7	Sololá	710	Panajachel	8	Panajachel	8	Agosto	2023-08-18T00:00:00	2024-11-08T04:00:00	6	Velocidad del viento	0
55194	7	Sololá	710	Panajachel	8	Panajachel	8	Agosto	2023-08-18T00:00:00	2024-11-08T04:00:00	7	Dirección del viento	0
55195	7	Sololá	710	Panajachel	8	Panajachel	8	Agosto	2023-08-18T00:00:00	2024-11-08T04:00:00	1	Precipitación	0
55196	7	Sololá	710	Panajachel	8	Panajachel	8	Agosto	2023-08-18T00:00:00	2024-11-08T04:00:00	8	Radiación solar	0
55197	7	Sololá	710	Panajachel	8	Panajachel	8	Agosto	2023-08-18T00:00:00	2024-11-08T05:00:00	2	Temperatura media	19.7
55198	7	Sololá	710	Panajachel	8	Panajachel	8	Agosto	2023-08-18T00:00:00	2024-11-08T05:00:00	4	Temperatura máxima	19.9
55199	7	Sololá	710	Panajachel	8	Panajachel	8	Agosto	2023-08-18T00:00:00	2024-11-08T05:00:00	3	Temperatura mínima	19.6
55200	7	Sololá	710	Panajachel	8	Panajachel	8	Agosto	2023-08-18T00:00:00	2024-11-08T05:00:00	5	Humedad	79
55201	7	Sololá	710	Panajachel	8	Panajachel	8	Agosto	2023-08-18T00:00:00	2024-11-08T05:00:00	6	Velocidad del viento	0
55202	7	Sololá	710	Panajachel	8	Panajachel	8	Agosto	2023-08-18T00:00:00	2024-11-08T05:00:00	7	Dirección del viento	0
55203	7	Sololá	710	Panajachel	8	Panajachel	8	Agosto	2023-08-18T00:00:00	2024-11-08T05:00:00	1	Precipitación	0
55204	7	Sololá	710	Panajachel	8	Panajachel	8	Agosto	2023-08-18T00:00:00	2024-11-08T05:00:00	8	Radiación solar	0
55205	7	Sololá	710	Panajachel	8	Panajachel	8	Agosto	2023-08-18T00:00:00	2024-11-08T06:00:00	2	Temperatura media	18.7
55206	7	Sololá	710	Panajachel	8	Panajachel	8	Agosto	2023-08-18T00:00:00	2024-11-08T06:00:00	4	Temperatura máxima	19.7
55207	7	Sololá	710	Panajachel	8	Panajachel	8	Agosto	2023-08-18T00:00:00	2024-11-08T06:00:00	3	Temperatura mínima	18.5
55208	7	Sololá	710	Panajachel	8	Panajachel	8	Agosto	2023-08-18T00:00:00	2024-11-08T06:00:00	5	Humedad	81
55209	7	Sololá	710	Panajachel	8	Panajachel	8	Agosto	2023-08-18T00:00:00	2024-11-08T06:00:00	6	Velocidad del viento	1.6
55210	7	Sololá	710	Panajachel	8	Panajachel	8	Agosto	2023-08-18T00:00:00	2024-11-08T06:00:00	7	Dirección del viento	1.61
55211	7	Sololá	710	Panajachel	8	Panajachel	8	Agosto	2023-08-18T00:00:00	2024-11-08T06:00:00	1	Precipitación	0
55212	7	Sololá	710	Panajachel	8	Panajachel	8	Agosto	2023-08-18T00:00:00	2024-11-08T06:00:00	8	Radiación solar	0
55213	7	Sololá	710	Panajachel	8	Panajachel	8	Agosto	2023-08-18T00:00:00	2024-11-08T07:00:00	2	Temperatura media	19.6
55214	7	Sololá	710	Panajachel	8	Panajachel	8	Agosto	2023-08-18T00:00:00	2024-11-08T07:00:00	4	Temperatura máxima	19.6
55215	7	Sololá	710	Panajachel	8	Panajachel	8	Agosto	2023-08-18T00:00:00	2024-11-08T07:00:00	3	Temperatura mínima	18.3
55216	7	Sololá	710	Panajachel	8	Panajachel	8	Agosto	2023-08-18T00:00:00	2024-11-08T07:00:00	5	Humedad	79
55217	7	Sololá	710	Panajachel	8	Panajachel	8	Agosto	2023-08-18T00:00:00	2024-11-08T07:00:00	6	Velocidad del viento	1.6
55218	7	Sololá	710	Panajachel	8	Panajachel	8	Agosto	2023-08-18T00:00:00	2024-11-08T07:00:00	7	Dirección del viento	1.61
55219	7	Sololá	710	Panajachel	8	Panajachel	8	Agosto	2023-08-18T00:00:00	2024-11-08T07:00:00	1	Precipitación	0
55220	7	Sololá	710	Panajachel	8	Panajachel	8	Agosto	2023-08-18T00:00:00	2024-11-08T07:00:00	8	Radiación solar	55
55221	7	Sololá	710	Panajachel	8	Panajachel	8	Agosto	2023-08-18T00:00:00	2024-11-08T08:00:00	2	Temperatura media	22.6
55222	7	Sololá	710	Panajachel	8	Panajachel	8	Agosto	2023-08-18T00:00:00	2024-11-08T08:00:00	4	Temperatura máxima	22.6
55223	7	Sololá	710	Panajachel	8	Panajachel	8	Agosto	2023-08-18T00:00:00	2024-11-08T08:00:00	3	Temperatura mínima	19.7
55224	7	Sololá	710	Panajachel	8	Panajachel	8	Agosto	2023-08-18T00:00:00	2024-11-08T08:00:00	5	Humedad	69
55225	7	Sololá	710	Panajachel	8	Panajachel	8	Agosto	2023-08-18T00:00:00	2024-11-08T08:00:00	6	Velocidad del viento	1.6
55226	7	Sololá	710	Panajachel	8	Panajachel	8	Agosto	2023-08-18T00:00:00	2024-11-08T08:00:00	7	Dirección del viento	1.61
55227	7	Sololá	710	Panajachel	8	Panajachel	8	Agosto	2023-08-18T00:00:00	2024-11-08T08:00:00	1	Precipitación	0
55228	7	Sololá	710	Panajachel	8	Panajachel	8	Agosto	2023-08-18T00:00:00	2024-11-08T08:00:00	8	Radiación solar	313
55229	7	Sololá	710	Panajachel	8	Panajachel	8	Agosto	2023-08-18T00:00:00	2024-11-08T09:00:00	2	Temperatura media	23.8
55230	7	Sololá	710	Panajachel	8	Panajachel	8	Agosto	2023-08-18T00:00:00	2024-11-08T09:00:00	4	Temperatura máxima	23.8
55231	7	Sololá	710	Panajachel	8	Panajachel	8	Agosto	2023-08-18T00:00:00	2024-11-08T09:00:00	3	Temperatura mínima	22
55232	7	Sololá	710	Panajachel	8	Panajachel	8	Agosto	2023-08-18T00:00:00	2024-11-08T09:00:00	5	Humedad	67
55233	7	Sololá	710	Panajachel	8	Panajachel	8	Agosto	2023-08-18T00:00:00	2024-11-08T09:00:00	6	Velocidad del viento	1.6
55234	7	Sololá	710	Panajachel	8	Panajachel	8	Agosto	2023-08-18T00:00:00	2024-11-08T09:00:00	7	Dirección del viento	1.61
55235	7	Sololá	710	Panajachel	8	Panajachel	8	Agosto	2023-08-18T00:00:00	2024-11-08T09:00:00	1	Precipitación	0
55236	7	Sololá	710	Panajachel	8	Panajachel	8	Agosto	2023-08-18T00:00:00	2024-11-08T09:00:00	8	Radiación solar	540
55237	7	Sololá	710	Panajachel	8	Panajachel	8	Agosto	2023-08-18T00:00:00	2024-11-08T10:00:00	2	Temperatura media	25
55238	7	Sololá	710	Panajachel	8	Panajachel	8	Agosto	2023-08-18T00:00:00	2024-11-08T10:00:00	4	Temperatura máxima	25.3
55239	7	Sololá	710	Panajachel	8	Panajachel	8	Agosto	2023-08-18T00:00:00	2024-11-08T10:00:00	3	Temperatura mínima	23.7
55240	7	Sololá	710	Panajachel	8	Panajachel	8	Agosto	2023-08-18T00:00:00	2024-11-08T10:00:00	5	Humedad	62
55241	7	Sololá	710	Panajachel	8	Panajachel	8	Agosto	2023-08-18T00:00:00	2024-11-08T10:00:00	6	Velocidad del viento	4.8
55242	7	Sololá	710	Panajachel	8	Panajachel	8	Agosto	2023-08-18T00:00:00	2024-11-08T10:00:00	7	Dirección del viento	4.83
55243	7	Sololá	710	Panajachel	8	Panajachel	8	Agosto	2023-08-18T00:00:00	2024-11-08T10:00:00	1	Precipitación	0
55244	7	Sololá	710	Panajachel	8	Panajachel	8	Agosto	2023-08-18T00:00:00	2024-11-08T10:00:00	8	Radiación solar	742
55245	7	Sololá	710	Panajachel	8	Panajachel	8	Agosto	2023-08-18T00:00:00	2024-11-08T11:00:00	2	Temperatura media	24.8
55246	7	Sololá	710	Panajachel	8	Panajachel	8	Agosto	2023-08-18T00:00:00	2024-11-08T11:00:00	4	Temperatura máxima	25.8
55247	7	Sololá	710	Panajachel	8	Panajachel	8	Agosto	2023-08-18T00:00:00	2024-11-08T11:00:00	3	Temperatura mínima	24.8
55248	7	Sololá	710	Panajachel	8	Panajachel	8	Agosto	2023-08-18T00:00:00	2024-11-08T11:00:00	5	Humedad	61
55249	7	Sololá	710	Panajachel	8	Panajachel	8	Agosto	2023-08-18T00:00:00	2024-11-08T11:00:00	6	Velocidad del viento	1.6
55250	7	Sololá	710	Panajachel	8	Panajachel	8	Agosto	2023-08-18T00:00:00	2024-11-08T11:00:00	7	Dirección del viento	1.61
55251	7	Sololá	710	Panajachel	8	Panajachel	8	Agosto	2023-08-18T00:00:00	2024-11-08T11:00:00	1	Precipitación	0
55252	7	Sololá	710	Panajachel	8	Panajachel	8	Agosto	2023-08-18T00:00:00	2024-11-08T11:00:00	8	Radiación solar	511
55253	7	Sololá	710	Panajachel	8	Panajachel	8	Agosto	2023-08-18T00:00:00	2024-11-08T12:00:00	2	Temperatura media	24.6
55254	7	Sololá	710	Panajachel	8	Panajachel	8	Agosto	2023-08-18T00:00:00	2024-11-08T12:00:00	4	Temperatura máxima	24.8
55255	7	Sololá	710	Panajachel	8	Panajachel	8	Agosto	2023-08-18T00:00:00	2024-11-08T12:00:00	3	Temperatura mínima	24.1
55256	7	Sololá	710	Panajachel	8	Panajachel	8	Agosto	2023-08-18T00:00:00	2024-11-08T12:00:00	5	Humedad	64
55257	7	Sololá	710	Panajachel	8	Panajachel	8	Agosto	2023-08-18T00:00:00	2024-11-08T12:00:00	6	Velocidad del viento	8
55258	7	Sololá	710	Panajachel	8	Panajachel	8	Agosto	2023-08-18T00:00:00	2024-11-08T12:00:00	7	Dirección del viento	8.05
55259	7	Sololá	710	Panajachel	8	Panajachel	8	Agosto	2023-08-18T00:00:00	2024-11-08T12:00:00	1	Precipitación	0
55260	7	Sololá	710	Panajachel	8	Panajachel	8	Agosto	2023-08-18T00:00:00	2024-11-08T12:00:00	8	Radiación solar	374
55261	7	Sololá	710	Panajachel	8	Panajachel	8	Agosto	2023-08-18T00:00:00	2024-11-08T13:00:00	2	Temperatura media	25.7
55262	7	Sololá	710	Panajachel	8	Panajachel	8	Agosto	2023-08-18T00:00:00	2024-11-08T13:00:00	4	Temperatura máxima	26.4
55263	7	Sololá	710	Panajachel	8	Panajachel	8	Agosto	2023-08-18T00:00:00	2024-11-08T13:00:00	3	Temperatura mínima	24.6
55264	7	Sololá	710	Panajachel	8	Panajachel	8	Agosto	2023-08-18T00:00:00	2024-11-08T13:00:00	5	Humedad	57
55265	7	Sololá	710	Panajachel	8	Panajachel	8	Agosto	2023-08-18T00:00:00	2024-11-08T13:00:00	6	Velocidad del viento	4.8
55266	7	Sololá	710	Panajachel	8	Panajachel	8	Agosto	2023-08-18T00:00:00	2024-11-08T13:00:00	7	Dirección del viento	4.83
55267	7	Sololá	710	Panajachel	8	Panajachel	8	Agosto	2023-08-18T00:00:00	2024-11-08T13:00:00	1	Precipitación	0
55268	7	Sololá	710	Panajachel	8	Panajachel	8	Agosto	2023-08-18T00:00:00	2024-11-08T13:00:00	8	Radiación solar	368
55269	7	Sololá	710	Panajachel	8	Panajachel	8	Agosto	2023-08-18T00:00:00	2024-11-08T14:00:00	2	Temperatura media	26.4
55270	7	Sololá	710	Panajachel	8	Panajachel	8	Agosto	2023-08-18T00:00:00	2024-11-08T14:00:00	4	Temperatura máxima	27.3
55271	7	Sololá	710	Panajachel	8	Panajachel	8	Agosto	2023-08-18T00:00:00	2024-11-08T14:00:00	3	Temperatura mínima	25.7
55272	7	Sololá	710	Panajachel	8	Panajachel	8	Agosto	2023-08-18T00:00:00	2024-11-08T14:00:00	5	Humedad	57
55273	7	Sololá	710	Panajachel	8	Panajachel	8	Agosto	2023-08-18T00:00:00	2024-11-08T14:00:00	6	Velocidad del viento	3.2
55274	7	Sololá	710	Panajachel	8	Panajachel	8	Agosto	2023-08-18T00:00:00	2024-11-08T14:00:00	7	Dirección del viento	3.22
55275	7	Sololá	710	Panajachel	8	Panajachel	8	Agosto	2023-08-18T00:00:00	2024-11-08T14:00:00	1	Precipitación	0
55276	7	Sololá	710	Panajachel	8	Panajachel	8	Agosto	2023-08-18T00:00:00	2024-11-08T14:00:00	8	Radiación solar	619
55277	7	Sololá	710	Panajachel	8	Panajachel	8	Agosto	2023-08-18T00:00:00	2024-11-08T15:00:00	2	Temperatura media	24.9
55278	7	Sololá	710	Panajachel	8	Panajachel	8	Agosto	2023-08-18T00:00:00	2024-11-08T15:00:00	4	Temperatura máxima	26.4
55279	7	Sololá	710	Panajachel	8	Panajachel	8	Agosto	2023-08-18T00:00:00	2024-11-08T15:00:00	3	Temperatura mínima	24.5
55280	7	Sololá	710	Panajachel	8	Panajachel	8	Agosto	2023-08-18T00:00:00	2024-11-08T15:00:00	5	Humedad	74
55281	7	Sololá	710	Panajachel	8	Panajachel	8	Agosto	2023-08-18T00:00:00	2024-11-08T15:00:00	6	Velocidad del viento	4.8
55282	7	Sololá	710	Panajachel	8	Panajachel	8	Agosto	2023-08-18T00:00:00	2024-11-08T15:00:00	7	Dirección del viento	4.83
55283	7	Sololá	710	Panajachel	8	Panajachel	8	Agosto	2023-08-18T00:00:00	2024-11-08T15:00:00	1	Precipitación	0
55284	7	Sololá	710	Panajachel	8	Panajachel	8	Agosto	2023-08-18T00:00:00	2024-11-08T15:00:00	8	Radiación solar	193
55285	7	Sololá	710	Panajachel	8	Panajachel	8	Agosto	2023-08-18T00:00:00	2024-11-08T16:00:00	2	Temperatura media	23.8
55286	7	Sololá	710	Panajachel	8	Panajachel	8	Agosto	2023-08-18T00:00:00	2024-11-08T16:00:00	4	Temperatura máxima	25.1
55287	7	Sololá	710	Panajachel	8	Panajachel	8	Agosto	2023-08-18T00:00:00	2024-11-08T16:00:00	3	Temperatura mínima	23.7
55288	7	Sololá	710	Panajachel	8	Panajachel	8	Agosto	2023-08-18T00:00:00	2024-11-08T16:00:00	5	Humedad	77
55289	7	Sololá	710	Panajachel	8	Panajachel	8	Agosto	2023-08-18T00:00:00	2024-11-08T16:00:00	6	Velocidad del viento	3.2
55290	7	Sololá	710	Panajachel	8	Panajachel	8	Agosto	2023-08-18T00:00:00	2024-11-08T16:00:00	7	Dirección del viento	3.22
55291	7	Sololá	710	Panajachel	8	Panajachel	8	Agosto	2023-08-18T00:00:00	2024-11-08T16:00:00	1	Precipitación	0
55292	7	Sololá	710	Panajachel	8	Panajachel	8	Agosto	2023-08-18T00:00:00	2024-11-08T16:00:00	8	Radiación solar	252
55293	7	Sololá	710	Panajachel	8	Panajachel	8	Agosto	2023-08-18T00:00:00	2024-11-08T17:00:00	2	Temperatura media	22.6
55294	7	Sololá	710	Panajachel	8	Panajachel	8	Agosto	2023-08-18T00:00:00	2024-11-08T17:00:00	4	Temperatura máxima	23.9
55295	7	Sololá	710	Panajachel	8	Panajachel	8	Agosto	2023-08-18T00:00:00	2024-11-08T17:00:00	3	Temperatura mínima	22.6
55296	7	Sololá	710	Panajachel	8	Panajachel	8	Agosto	2023-08-18T00:00:00	2024-11-08T17:00:00	5	Humedad	81
55297	7	Sololá	710	Panajachel	8	Panajachel	8	Agosto	2023-08-18T00:00:00	2024-11-08T17:00:00	6	Velocidad del viento	8
55298	7	Sololá	710	Panajachel	8	Panajachel	8	Agosto	2023-08-18T00:00:00	2024-11-08T17:00:00	7	Dirección del viento	8.05
55299	7	Sololá	710	Panajachel	8	Panajachel	8	Agosto	2023-08-18T00:00:00	2024-11-08T17:00:00	1	Precipitación	0
55300	7	Sololá	710	Panajachel	8	Panajachel	8	Agosto	2023-08-18T00:00:00	2024-11-08T17:00:00	8	Radiación solar	93
55301	7	Sololá	710	Panajachel	8	Panajachel	8	Agosto	2023-08-18T00:00:00	2024-11-08T18:00:00	2	Temperatura media	21.8
55302	7	Sololá	710	Panajachel	8	Panajachel	8	Agosto	2023-08-18T00:00:00	2024-11-08T18:00:00	4	Temperatura máxima	22.6
55303	7	Sololá	710	Panajachel	8	Panajachel	8	Agosto	2023-08-18T00:00:00	2024-11-08T18:00:00	3	Temperatura mínima	21.8
55304	7	Sololá	710	Panajachel	8	Panajachel	8	Agosto	2023-08-18T00:00:00	2024-11-08T18:00:00	5	Humedad	84
55305	7	Sololá	710	Panajachel	8	Panajachel	8	Agosto	2023-08-18T00:00:00	2024-11-08T18:00:00	6	Velocidad del viento	8
55306	7	Sololá	710	Panajachel	8	Panajachel	8	Agosto	2023-08-18T00:00:00	2024-11-08T18:00:00	7	Dirección del viento	8.05
55307	7	Sololá	710	Panajachel	8	Panajachel	8	Agosto	2023-08-18T00:00:00	2024-11-08T18:00:00	1	Precipitación	0
55308	7	Sololá	710	Panajachel	8	Panajachel	8	Agosto	2023-08-18T00:00:00	2024-11-08T18:00:00	8	Radiación solar	44
55309	7	Sololá	710	Panajachel	8	Panajachel	8	Agosto	2023-08-18T00:00:00	2024-11-08T19:00:00	2	Temperatura media	21.4
55310	7	Sololá	710	Panajachel	8	Panajachel	8	Agosto	2023-08-18T00:00:00	2024-11-08T19:00:00	4	Temperatura máxima	21.8
55311	7	Sololá	710	Panajachel	8	Panajachel	8	Agosto	2023-08-18T00:00:00	2024-11-08T19:00:00	3	Temperatura mínima	21.4
55312	7	Sololá	710	Panajachel	8	Panajachel	8	Agosto	2023-08-18T00:00:00	2024-11-08T19:00:00	5	Humedad	85
55313	7	Sololá	710	Panajachel	8	Panajachel	8	Agosto	2023-08-18T00:00:00	2024-11-08T19:00:00	6	Velocidad del viento	1.6
55314	7	Sololá	710	Panajachel	8	Panajachel	8	Agosto	2023-08-18T00:00:00	2024-11-08T19:00:00	7	Dirección del viento	1.61
55315	7	Sololá	710	Panajachel	8	Panajachel	8	Agosto	2023-08-18T00:00:00	2024-11-08T19:00:00	1	Precipitación	0
55316	7	Sololá	710	Panajachel	8	Panajachel	8	Agosto	2023-08-18T00:00:00	2024-11-08T19:00:00	8	Radiación solar	0
55317	7	Sololá	710	Panajachel	8	Panajachel	8	Agosto	2023-08-18T00:00:00	2024-11-08T20:00:00	2	Temperatura media	20.6
55318	7	Sololá	710	Panajachel	8	Panajachel	8	Agosto	2023-08-18T00:00:00	2024-11-08T20:00:00	4	Temperatura máxima	21.4
55319	7	Sololá	710	Panajachel	8	Panajachel	8	Agosto	2023-08-18T00:00:00	2024-11-08T20:00:00	3	Temperatura mínima	20.5
55320	7	Sololá	710	Panajachel	8	Panajachel	8	Agosto	2023-08-18T00:00:00	2024-11-08T20:00:00	5	Humedad	81
55321	7	Sololá	710	Panajachel	8	Panajachel	8	Agosto	2023-08-18T00:00:00	2024-11-08T20:00:00	6	Velocidad del viento	0
55322	7	Sololá	710	Panajachel	8	Panajachel	8	Agosto	2023-08-18T00:00:00	2024-11-08T20:00:00	7	Dirección del viento	0
55323	7	Sololá	710	Panajachel	8	Panajachel	8	Agosto	2023-08-18T00:00:00	2024-11-08T20:00:00	1	Precipitación	0
55324	7	Sololá	710	Panajachel	8	Panajachel	8	Agosto	2023-08-18T00:00:00	2024-11-08T20:00:00	8	Radiación solar	0
55325	7	Sololá	710	Panajachel	8	Panajachel	8	Agosto	2023-08-18T00:00:00	2024-11-08T21:00:00	2	Temperatura media	21.6
55326	7	Sololá	710	Panajachel	8	Panajachel	8	Agosto	2023-08-18T00:00:00	2024-11-08T21:00:00	4	Temperatura máxima	21.6
55327	7	Sololá	710	Panajachel	8	Panajachel	8	Agosto	2023-08-18T00:00:00	2024-11-08T21:00:00	3	Temperatura mínima	20.4
55328	7	Sololá	710	Panajachel	8	Panajachel	8	Agosto	2023-08-18T00:00:00	2024-11-08T21:00:00	5	Humedad	68
55329	7	Sololá	710	Panajachel	8	Panajachel	8	Agosto	2023-08-18T00:00:00	2024-11-08T21:00:00	6	Velocidad del viento	4.8
55330	7	Sololá	710	Panajachel	8	Panajachel	8	Agosto	2023-08-18T00:00:00	2024-11-08T21:00:00	7	Dirección del viento	4.83
55331	7	Sololá	710	Panajachel	8	Panajachel	8	Agosto	2023-08-18T00:00:00	2024-11-08T21:00:00	1	Precipitación	0
55332	7	Sololá	710	Panajachel	8	Panajachel	8	Agosto	2023-08-18T00:00:00	2024-11-08T21:00:00	8	Radiación solar	0
55333	7	Sololá	710	Panajachel	8	Panajachel	8	Agosto	2023-08-18T00:00:00	2024-11-08T22:00:00	2	Temperatura media	21.2
55334	7	Sololá	710	Panajachel	8	Panajachel	8	Agosto	2023-08-18T00:00:00	2024-11-08T22:00:00	4	Temperatura máxima	21.6
55335	7	Sololá	710	Panajachel	8	Panajachel	8	Agosto	2023-08-18T00:00:00	2024-11-08T22:00:00	3	Temperatura mínima	21.1
55336	7	Sololá	710	Panajachel	8	Panajachel	8	Agosto	2023-08-18T00:00:00	2024-11-08T22:00:00	5	Humedad	68
55337	7	Sololá	710	Panajachel	8	Panajachel	8	Agosto	2023-08-18T00:00:00	2024-11-08T22:00:00	6	Velocidad del viento	6.4
55338	7	Sololá	710	Panajachel	8	Panajachel	8	Agosto	2023-08-18T00:00:00	2024-11-08T22:00:00	7	Dirección del viento	6.44
55339	7	Sololá	710	Panajachel	8	Panajachel	8	Agosto	2023-08-18T00:00:00	2024-11-08T22:00:00	1	Precipitación	0
55340	7	Sololá	710	Panajachel	8	Panajachel	8	Agosto	2023-08-18T00:00:00	2024-11-08T22:00:00	8	Radiación solar	0
55341	7	Sololá	710	Panajachel	8	Panajachel	8	Agosto	2023-08-18T00:00:00	2024-11-08T23:00:00	2	Temperatura media	20.5
55342	7	Sololá	710	Panajachel	8	Panajachel	8	Agosto	2023-08-18T00:00:00	2024-11-08T23:00:00	4	Temperatura máxima	21.2
55343	7	Sololá	710	Panajachel	8	Panajachel	8	Agosto	2023-08-18T00:00:00	2024-11-08T23:00:00	3	Temperatura mínima	20.5
55344	7	Sololá	710	Panajachel	8	Panajachel	8	Agosto	2023-08-18T00:00:00	2024-11-08T23:00:00	5	Humedad	70
55345	7	Sololá	710	Panajachel	8	Panajachel	8	Agosto	2023-08-18T00:00:00	2024-11-08T23:00:00	6	Velocidad del viento	6.4
55346	7	Sololá	710	Panajachel	8	Panajachel	8	Agosto	2023-08-18T00:00:00	2024-11-08T23:00:00	7	Dirección del viento	6.44
55347	7	Sololá	710	Panajachel	8	Panajachel	8	Agosto	2023-08-18T00:00:00	2024-11-08T23:00:00	1	Precipitación	0
55348	7	Sololá	710	Panajachel	8	Panajachel	8	Agosto	2023-08-18T00:00:00	2024-11-08T23:00:00	8	Radiación solar	0
55349	7	Sololá	710	Panajachel	8	Panajachel	8	Agosto	2023-08-19T00:00:00	2024-11-08T00:00:00	2	Temperatura media	20.8
55350	7	Sololá	710	Panajachel	8	Panajachel	8	Agosto	2023-08-19T00:00:00	2024-11-08T00:00:00	4	Temperatura máxima	20.8
55351	7	Sololá	710	Panajachel	8	Panajachel	8	Agosto	2023-08-19T00:00:00	2024-11-08T00:00:00	3	Temperatura mínima	20.1
55352	7	Sololá	710	Panajachel	8	Panajachel	8	Agosto	2023-08-19T00:00:00	2024-11-08T00:00:00	5	Humedad	67
55353	7	Sololá	710	Panajachel	8	Panajachel	8	Agosto	2023-08-19T00:00:00	2024-11-08T00:00:00	6	Velocidad del viento	9.7
55354	7	Sololá	710	Panajachel	8	Panajachel	8	Agosto	2023-08-19T00:00:00	2024-11-08T00:00:00	7	Dirección del viento	9.66
55355	7	Sololá	710	Panajachel	8	Panajachel	8	Agosto	2023-08-19T00:00:00	2024-11-08T00:00:00	1	Precipitación	0
55356	7	Sololá	710	Panajachel	8	Panajachel	8	Agosto	2023-08-19T00:00:00	2024-11-08T00:00:00	8	Radiación solar	0
55357	7	Sololá	710	Panajachel	8	Panajachel	8	Agosto	2023-08-19T00:00:00	2024-11-08T01:00:00	2	Temperatura media	20.3
55358	7	Sololá	710	Panajachel	8	Panajachel	8	Agosto	2023-08-19T00:00:00	2024-11-08T01:00:00	4	Temperatura máxima	20.8
55359	7	Sololá	710	Panajachel	8	Panajachel	8	Agosto	2023-08-19T00:00:00	2024-11-08T01:00:00	3	Temperatura mínima	20.2
55360	7	Sololá	710	Panajachel	8	Panajachel	8	Agosto	2023-08-19T00:00:00	2024-11-08T01:00:00	5	Humedad	67
55361	7	Sololá	710	Panajachel	8	Panajachel	8	Agosto	2023-08-19T00:00:00	2024-11-08T01:00:00	6	Velocidad del viento	8
55362	7	Sololá	710	Panajachel	8	Panajachel	8	Agosto	2023-08-19T00:00:00	2024-11-08T01:00:00	7	Dirección del viento	8.05
55363	7	Sololá	710	Panajachel	8	Panajachel	8	Agosto	2023-08-19T00:00:00	2024-11-08T01:00:00	1	Precipitación	0
55364	7	Sololá	710	Panajachel	8	Panajachel	8	Agosto	2023-08-19T00:00:00	2024-11-08T01:00:00	8	Radiación solar	0
55365	7	Sololá	710	Panajachel	8	Panajachel	8	Agosto	2023-08-19T00:00:00	2024-11-08T02:00:00	2	Temperatura media	19.8
55366	7	Sololá	710	Panajachel	8	Panajachel	8	Agosto	2023-08-19T00:00:00	2024-11-08T02:00:00	4	Temperatura máxima	20.3
55367	7	Sololá	710	Panajachel	8	Panajachel	8	Agosto	2023-08-19T00:00:00	2024-11-08T02:00:00	3	Temperatura mínima	19.8
55368	7	Sololá	710	Panajachel	8	Panajachel	8	Agosto	2023-08-19T00:00:00	2024-11-08T02:00:00	5	Humedad	67
55369	7	Sololá	710	Panajachel	8	Panajachel	8	Agosto	2023-08-19T00:00:00	2024-11-08T02:00:00	6	Velocidad del viento	11.3
55370	7	Sololá	710	Panajachel	8	Panajachel	8	Agosto	2023-08-19T00:00:00	2024-11-08T02:00:00	7	Dirección del viento	11.27
55371	7	Sololá	710	Panajachel	8	Panajachel	8	Agosto	2023-08-19T00:00:00	2024-11-08T02:00:00	1	Precipitación	0
55372	7	Sololá	710	Panajachel	8	Panajachel	8	Agosto	2023-08-19T00:00:00	2024-11-08T02:00:00	8	Radiación solar	0
55373	7	Sololá	710	Panajachel	8	Panajachel	8	Agosto	2023-08-19T00:00:00	2024-11-08T03:00:00	2	Temperatura media	19.4
55374	7	Sololá	710	Panajachel	8	Panajachel	8	Agosto	2023-08-19T00:00:00	2024-11-08T03:00:00	4	Temperatura máxima	19.8
55375	7	Sololá	710	Panajachel	8	Panajachel	8	Agosto	2023-08-19T00:00:00	2024-11-08T03:00:00	3	Temperatura mínima	19.4
55376	7	Sololá	710	Panajachel	8	Panajachel	8	Agosto	2023-08-19T00:00:00	2024-11-08T03:00:00	5	Humedad	66
55377	7	Sololá	710	Panajachel	8	Panajachel	8	Agosto	2023-08-19T00:00:00	2024-11-08T03:00:00	6	Velocidad del viento	8
55378	7	Sololá	710	Panajachel	8	Panajachel	8	Agosto	2023-08-19T00:00:00	2024-11-08T03:00:00	7	Dirección del viento	8.05
55379	7	Sololá	710	Panajachel	8	Panajachel	8	Agosto	2023-08-19T00:00:00	2024-11-08T03:00:00	1	Precipitación	0
55380	7	Sololá	710	Panajachel	8	Panajachel	8	Agosto	2023-08-19T00:00:00	2024-11-08T03:00:00	8	Radiación solar	0
55381	7	Sololá	710	Panajachel	8	Panajachel	8	Agosto	2023-08-19T00:00:00	2024-11-08T04:00:00	2	Temperatura media	18.5
55382	7	Sololá	710	Panajachel	8	Panajachel	8	Agosto	2023-08-19T00:00:00	2024-11-08T04:00:00	4	Temperatura máxima	19.4
55383	7	Sololá	710	Panajachel	8	Panajachel	8	Agosto	2023-08-19T00:00:00	2024-11-08T04:00:00	3	Temperatura mínima	18.5
55384	7	Sololá	710	Panajachel	8	Panajachel	8	Agosto	2023-08-19T00:00:00	2024-11-08T04:00:00	5	Humedad	69
55385	7	Sololá	710	Panajachel	8	Panajachel	8	Agosto	2023-08-19T00:00:00	2024-11-08T04:00:00	6	Velocidad del viento	0
55386	7	Sololá	710	Panajachel	8	Panajachel	8	Agosto	2023-08-19T00:00:00	2024-11-08T04:00:00	7	Dirección del viento	0
55387	7	Sololá	710	Panajachel	8	Panajachel	8	Agosto	2023-08-19T00:00:00	2024-11-08T04:00:00	1	Precipitación	0
55388	7	Sololá	710	Panajachel	8	Panajachel	8	Agosto	2023-08-19T00:00:00	2024-11-08T04:00:00	8	Radiación solar	0
55389	7	Sololá	710	Panajachel	8	Panajachel	8	Agosto	2023-08-19T00:00:00	2024-11-08T05:00:00	2	Temperatura media	18.2
55390	7	Sololá	710	Panajachel	8	Panajachel	8	Agosto	2023-08-19T00:00:00	2024-11-08T05:00:00	4	Temperatura máxima	18.5
55391	7	Sololá	710	Panajachel	8	Panajachel	8	Agosto	2023-08-19T00:00:00	2024-11-08T05:00:00	3	Temperatura mínima	18.2
55392	7	Sololá	710	Panajachel	8	Panajachel	8	Agosto	2023-08-19T00:00:00	2024-11-08T05:00:00	5	Humedad	67
55393	7	Sololá	710	Panajachel	8	Panajachel	8	Agosto	2023-08-19T00:00:00	2024-11-08T05:00:00	6	Velocidad del viento	0
55394	7	Sololá	710	Panajachel	8	Panajachel	8	Agosto	2023-08-19T00:00:00	2024-11-08T05:00:00	7	Dirección del viento	0
55395	7	Sololá	710	Panajachel	8	Panajachel	8	Agosto	2023-08-19T00:00:00	2024-11-08T05:00:00	1	Precipitación	0
55396	7	Sololá	710	Panajachel	8	Panajachel	8	Agosto	2023-08-19T00:00:00	2024-11-08T05:00:00	8	Radiación solar	0
55397	7	Sololá	710	Panajachel	8	Panajachel	8	Agosto	2023-08-19T00:00:00	2024-11-08T06:00:00	2	Temperatura media	16.1
55398	7	Sololá	710	Panajachel	8	Panajachel	8	Agosto	2023-08-19T00:00:00	2024-11-08T06:00:00	4	Temperatura máxima	18.2
55399	7	Sololá	710	Panajachel	8	Panajachel	8	Agosto	2023-08-19T00:00:00	2024-11-08T06:00:00	3	Temperatura mínima	16.1
55400	7	Sololá	710	Panajachel	8	Panajachel	8	Agosto	2023-08-19T00:00:00	2024-11-08T06:00:00	5	Humedad	76
55401	7	Sololá	710	Panajachel	8	Panajachel	8	Agosto	2023-08-19T00:00:00	2024-11-08T06:00:00	6	Velocidad del viento	0
55402	7	Sololá	710	Panajachel	8	Panajachel	8	Agosto	2023-08-19T00:00:00	2024-11-08T06:00:00	7	Dirección del viento	0
55403	7	Sololá	710	Panajachel	8	Panajachel	8	Agosto	2023-08-19T00:00:00	2024-11-08T06:00:00	1	Precipitación	0
55404	7	Sololá	710	Panajachel	8	Panajachel	8	Agosto	2023-08-19T00:00:00	2024-11-08T06:00:00	8	Radiación solar	2
55405	7	Sololá	710	Panajachel	8	Panajachel	8	Agosto	2023-08-19T00:00:00	2024-11-08T07:00:00	2	Temperatura media	17.8
55406	7	Sololá	710	Panajachel	8	Panajachel	8	Agosto	2023-08-19T00:00:00	2024-11-08T07:00:00	4	Temperatura máxima	17.8
55407	7	Sololá	710	Panajachel	8	Panajachel	8	Agosto	2023-08-19T00:00:00	2024-11-08T07:00:00	3	Temperatura mínima	16
55408	7	Sololá	710	Panajachel	8	Panajachel	8	Agosto	2023-08-19T00:00:00	2024-11-08T07:00:00	5	Humedad	73
55409	7	Sololá	710	Panajachel	8	Panajachel	8	Agosto	2023-08-19T00:00:00	2024-11-08T07:00:00	6	Velocidad del viento	0
55410	7	Sololá	710	Panajachel	8	Panajachel	8	Agosto	2023-08-19T00:00:00	2024-11-08T07:00:00	7	Dirección del viento	0
55411	7	Sololá	710	Panajachel	8	Panajachel	8	Agosto	2023-08-19T00:00:00	2024-11-08T07:00:00	1	Precipitación	0
55412	7	Sololá	710	Panajachel	8	Panajachel	8	Agosto	2023-08-19T00:00:00	2024-11-08T07:00:00	8	Radiación solar	69
55413	7	Sololá	710	Panajachel	8	Panajachel	8	Agosto	2023-08-19T00:00:00	2024-11-08T08:00:00	2	Temperatura media	21.7
55414	7	Sololá	710	Panajachel	8	Panajachel	8	Agosto	2023-08-19T00:00:00	2024-11-08T08:00:00	4	Temperatura máxima	21.7
55415	7	Sololá	710	Panajachel	8	Panajachel	8	Agosto	2023-08-19T00:00:00	2024-11-08T08:00:00	3	Temperatura mínima	17.8
55416	7	Sololá	710	Panajachel	8	Panajachel	8	Agosto	2023-08-19T00:00:00	2024-11-08T08:00:00	5	Humedad	61
55417	7	Sololá	710	Panajachel	8	Panajachel	8	Agosto	2023-08-19T00:00:00	2024-11-08T08:00:00	6	Velocidad del viento	1.6
55418	7	Sololá	710	Panajachel	8	Panajachel	8	Agosto	2023-08-19T00:00:00	2024-11-08T08:00:00	7	Dirección del viento	1.61
55419	7	Sololá	710	Panajachel	8	Panajachel	8	Agosto	2023-08-19T00:00:00	2024-11-08T08:00:00	1	Precipitación	0
55420	7	Sololá	710	Panajachel	8	Panajachel	8	Agosto	2023-08-19T00:00:00	2024-11-08T08:00:00	8	Radiación solar	295
55421	7	Sololá	710	Panajachel	8	Panajachel	8	Agosto	2023-08-19T00:00:00	2024-11-08T09:00:00	2	Temperatura media	23.7
55422	7	Sololá	710	Panajachel	8	Panajachel	8	Agosto	2023-08-19T00:00:00	2024-11-08T09:00:00	4	Temperatura máxima	23.7
55423	7	Sololá	710	Panajachel	8	Panajachel	8	Agosto	2023-08-19T00:00:00	2024-11-08T09:00:00	3	Temperatura mínima	21.6
55424	7	Sololá	710	Panajachel	8	Panajachel	8	Agosto	2023-08-19T00:00:00	2024-11-08T09:00:00	5	Humedad	56
55425	7	Sololá	710	Panajachel	8	Panajachel	8	Agosto	2023-08-19T00:00:00	2024-11-08T09:00:00	6	Velocidad del viento	3.2
55426	7	Sololá	710	Panajachel	8	Panajachel	8	Agosto	2023-08-19T00:00:00	2024-11-08T09:00:00	7	Dirección del viento	3.22
55427	7	Sololá	710	Panajachel	8	Panajachel	8	Agosto	2023-08-19T00:00:00	2024-11-08T09:00:00	1	Precipitación	0
55428	7	Sololá	710	Panajachel	8	Panajachel	8	Agosto	2023-08-19T00:00:00	2024-11-08T09:00:00	8	Radiación solar	538
55429	7	Sololá	710	Panajachel	8	Panajachel	8	Agosto	2023-08-19T00:00:00	2024-11-08T10:00:00	2	Temperatura media	25.2
55430	7	Sololá	710	Panajachel	8	Panajachel	8	Agosto	2023-08-19T00:00:00	2024-11-08T10:00:00	4	Temperatura máxima	25.2
55431	7	Sololá	710	Panajachel	8	Panajachel	8	Agosto	2023-08-19T00:00:00	2024-11-08T10:00:00	3	Temperatura mínima	23.7
55432	7	Sololá	710	Panajachel	8	Panajachel	8	Agosto	2023-08-19T00:00:00	2024-11-08T10:00:00	5	Humedad	53
55433	7	Sololá	710	Panajachel	8	Panajachel	8	Agosto	2023-08-19T00:00:00	2024-11-08T10:00:00	6	Velocidad del viento	4.8
55434	7	Sololá	710	Panajachel	8	Panajachel	8	Agosto	2023-08-19T00:00:00	2024-11-08T10:00:00	7	Dirección del viento	4.83
55435	7	Sololá	710	Panajachel	8	Panajachel	8	Agosto	2023-08-19T00:00:00	2024-11-08T10:00:00	1	Precipitación	0
55436	7	Sololá	710	Panajachel	8	Panajachel	8	Agosto	2023-08-19T00:00:00	2024-11-08T10:00:00	8	Radiación solar	729
55437	7	Sololá	710	Panajachel	8	Panajachel	8	Agosto	2023-08-19T00:00:00	2024-11-08T11:00:00	2	Temperatura media	25.9
55438	7	Sololá	710	Panajachel	8	Panajachel	8	Agosto	2023-08-19T00:00:00	2024-11-08T11:00:00	4	Temperatura máxima	26.1
55439	7	Sololá	710	Panajachel	8	Panajachel	8	Agosto	2023-08-19T00:00:00	2024-11-08T11:00:00	3	Temperatura mínima	25.1
55440	7	Sololá	710	Panajachel	8	Panajachel	8	Agosto	2023-08-19T00:00:00	2024-11-08T11:00:00	5	Humedad	53
55441	7	Sololá	710	Panajachel	8	Panajachel	8	Agosto	2023-08-19T00:00:00	2024-11-08T11:00:00	6	Velocidad del viento	6.4
55442	7	Sololá	710	Panajachel	8	Panajachel	8	Agosto	2023-08-19T00:00:00	2024-11-08T11:00:00	7	Dirección del viento	6.44
55443	7	Sololá	710	Panajachel	8	Panajachel	8	Agosto	2023-08-19T00:00:00	2024-11-08T11:00:00	1	Precipitación	0
55444	7	Sololá	710	Panajachel	8	Panajachel	8	Agosto	2023-08-19T00:00:00	2024-11-08T11:00:00	8	Radiación solar	870
55445	7	Sololá	710	Panajachel	8	Panajachel	8	Agosto	2023-08-19T00:00:00	2024-11-08T12:00:00	2	Temperatura media	26.2
55446	7	Sololá	710	Panajachel	8	Panajachel	8	Agosto	2023-08-19T00:00:00	2024-11-08T12:00:00	4	Temperatura máxima	26.3
55447	7	Sololá	710	Panajachel	8	Panajachel	8	Agosto	2023-08-19T00:00:00	2024-11-08T12:00:00	3	Temperatura mínima	25.9
55448	7	Sololá	710	Panajachel	8	Panajachel	8	Agosto	2023-08-19T00:00:00	2024-11-08T12:00:00	5	Humedad	52
55449	7	Sololá	710	Panajachel	8	Panajachel	8	Agosto	2023-08-19T00:00:00	2024-11-08T12:00:00	6	Velocidad del viento	8
55450	7	Sololá	710	Panajachel	8	Panajachel	8	Agosto	2023-08-19T00:00:00	2024-11-08T12:00:00	7	Dirección del viento	8.05
55451	7	Sololá	710	Panajachel	8	Panajachel	8	Agosto	2023-08-19T00:00:00	2024-11-08T12:00:00	1	Precipitación	0
55452	7	Sololá	710	Panajachel	8	Panajachel	8	Agosto	2023-08-19T00:00:00	2024-11-08T12:00:00	8	Radiación solar	949
55453	7	Sololá	710	Panajachel	8	Panajachel	8	Agosto	2023-08-19T00:00:00	2024-11-08T13:00:00	2	Temperatura media	26.9
55454	7	Sololá	710	Panajachel	8	Panajachel	8	Agosto	2023-08-19T00:00:00	2024-11-08T13:00:00	4	Temperatura máxima	27.3
55455	7	Sololá	710	Panajachel	8	Panajachel	8	Agosto	2023-08-19T00:00:00	2024-11-08T13:00:00	3	Temperatura mínima	26.2
55456	7	Sololá	710	Panajachel	8	Panajachel	8	Agosto	2023-08-19T00:00:00	2024-11-08T13:00:00	5	Humedad	50
55457	7	Sololá	710	Panajachel	8	Panajachel	8	Agosto	2023-08-19T00:00:00	2024-11-08T13:00:00	6	Velocidad del viento	8
55458	7	Sololá	710	Panajachel	8	Panajachel	8	Agosto	2023-08-19T00:00:00	2024-11-08T13:00:00	7	Dirección del viento	8.05
55459	7	Sololá	710	Panajachel	8	Panajachel	8	Agosto	2023-08-19T00:00:00	2024-11-08T13:00:00	1	Precipitación	0
55460	7	Sololá	710	Panajachel	8	Panajachel	8	Agosto	2023-08-19T00:00:00	2024-11-08T13:00:00	8	Radiación solar	995
55461	7	Sololá	710	Panajachel	8	Panajachel	8	Agosto	2023-08-19T00:00:00	2024-11-08T14:00:00	2	Temperatura media	27.2
55462	7	Sololá	710	Panajachel	8	Panajachel	8	Agosto	2023-08-19T00:00:00	2024-11-08T14:00:00	4	Temperatura máxima	27.3
55463	7	Sololá	710	Panajachel	8	Panajachel	8	Agosto	2023-08-19T00:00:00	2024-11-08T14:00:00	3	Temperatura mínima	26.6
55464	7	Sololá	710	Panajachel	8	Panajachel	8	Agosto	2023-08-19T00:00:00	2024-11-08T14:00:00	5	Humedad	50
55465	7	Sololá	710	Panajachel	8	Panajachel	8	Agosto	2023-08-19T00:00:00	2024-11-08T14:00:00	6	Velocidad del viento	8
55466	7	Sololá	710	Panajachel	8	Panajachel	8	Agosto	2023-08-19T00:00:00	2024-11-08T14:00:00	7	Dirección del viento	8.05
55467	7	Sololá	710	Panajachel	8	Panajachel	8	Agosto	2023-08-19T00:00:00	2024-11-08T14:00:00	1	Precipitación	0
55468	7	Sololá	710	Panajachel	8	Panajachel	8	Agosto	2023-08-19T00:00:00	2024-11-08T14:00:00	8	Radiación solar	934
55469	7	Sololá	710	Panajachel	8	Panajachel	8	Agosto	2023-08-19T00:00:00	2024-11-08T15:00:00	2	Temperatura media	26.2
55470	7	Sololá	710	Panajachel	8	Panajachel	8	Agosto	2023-08-19T00:00:00	2024-11-08T15:00:00	4	Temperatura máxima	27.6
55471	7	Sololá	710	Panajachel	8	Panajachel	8	Agosto	2023-08-19T00:00:00	2024-11-08T15:00:00	3	Temperatura mínima	26.1
55472	7	Sololá	710	Panajachel	8	Panajachel	8	Agosto	2023-08-19T00:00:00	2024-11-08T15:00:00	5	Humedad	69
55473	7	Sololá	710	Panajachel	8	Panajachel	8	Agosto	2023-08-19T00:00:00	2024-11-08T15:00:00	6	Velocidad del viento	6.4
55474	7	Sololá	710	Panajachel	8	Panajachel	8	Agosto	2023-08-19T00:00:00	2024-11-08T15:00:00	7	Dirección del viento	6.44
55475	7	Sololá	710	Panajachel	8	Panajachel	8	Agosto	2023-08-19T00:00:00	2024-11-08T15:00:00	1	Precipitación	0
55476	7	Sololá	710	Panajachel	8	Panajachel	8	Agosto	2023-08-19T00:00:00	2024-11-08T15:00:00	8	Radiación solar	650
55477	7	Sololá	710	Panajachel	8	Panajachel	8	Agosto	2023-08-19T00:00:00	2024-11-08T16:00:00	2	Temperatura media	24.9
55478	7	Sololá	710	Panajachel	8	Panajachel	8	Agosto	2023-08-19T00:00:00	2024-11-08T16:00:00	4	Temperatura máxima	26.2
55479	7	Sololá	710	Panajachel	8	Panajachel	8	Agosto	2023-08-19T00:00:00	2024-11-08T16:00:00	3	Temperatura mínima	24.6
55480	7	Sololá	710	Panajachel	8	Panajachel	8	Agosto	2023-08-19T00:00:00	2024-11-08T16:00:00	5	Humedad	70
55481	7	Sololá	710	Panajachel	8	Panajachel	8	Agosto	2023-08-19T00:00:00	2024-11-08T16:00:00	6	Velocidad del viento	3.2
55482	7	Sololá	710	Panajachel	8	Panajachel	8	Agosto	2023-08-19T00:00:00	2024-11-08T16:00:00	7	Dirección del viento	3.22
55483	7	Sololá	710	Panajachel	8	Panajachel	8	Agosto	2023-08-19T00:00:00	2024-11-08T16:00:00	1	Precipitación	0
55484	7	Sololá	710	Panajachel	8	Panajachel	8	Agosto	2023-08-19T00:00:00	2024-11-08T16:00:00	8	Radiación solar	248
55485	7	Sololá	710	Panajachel	8	Panajachel	8	Agosto	2023-08-19T00:00:00	2024-11-08T17:00:00	2	Temperatura media	22.6
55486	7	Sololá	710	Panajachel	8	Panajachel	8	Agosto	2023-08-19T00:00:00	2024-11-08T17:00:00	4	Temperatura máxima	24.9
55487	7	Sololá	710	Panajachel	8	Panajachel	8	Agosto	2023-08-19T00:00:00	2024-11-08T17:00:00	3	Temperatura mínima	22.6
55488	7	Sololá	710	Panajachel	8	Panajachel	8	Agosto	2023-08-19T00:00:00	2024-11-08T17:00:00	5	Humedad	81
55489	7	Sololá	710	Panajachel	8	Panajachel	8	Agosto	2023-08-19T00:00:00	2024-11-08T17:00:00	6	Velocidad del viento	4.8
55490	7	Sololá	710	Panajachel	8	Panajachel	8	Agosto	2023-08-19T00:00:00	2024-11-08T17:00:00	7	Dirección del viento	4.83
55491	7	Sololá	710	Panajachel	8	Panajachel	8	Agosto	2023-08-19T00:00:00	2024-11-08T17:00:00	1	Precipitación	0
55492	7	Sololá	710	Panajachel	8	Panajachel	8	Agosto	2023-08-19T00:00:00	2024-11-08T17:00:00	8	Radiación solar	108
55493	7	Sololá	710	Panajachel	8	Panajachel	8	Agosto	2023-08-19T00:00:00	2024-11-08T18:00:00	2	Temperatura media	21.9
55494	7	Sololá	710	Panajachel	8	Panajachel	8	Agosto	2023-08-19T00:00:00	2024-11-08T18:00:00	4	Temperatura máxima	22.7
55495	7	Sololá	710	Panajachel	8	Panajachel	8	Agosto	2023-08-19T00:00:00	2024-11-08T18:00:00	3	Temperatura mínima	21.9
55496	7	Sololá	710	Panajachel	8	Panajachel	8	Agosto	2023-08-19T00:00:00	2024-11-08T18:00:00	5	Humedad	81
55497	7	Sololá	710	Panajachel	8	Panajachel	8	Agosto	2023-08-19T00:00:00	2024-11-08T18:00:00	6	Velocidad del viento	3.2
55498	7	Sololá	710	Panajachel	8	Panajachel	8	Agosto	2023-08-19T00:00:00	2024-11-08T18:00:00	7	Dirección del viento	3.22
55499	7	Sololá	710	Panajachel	8	Panajachel	8	Agosto	2023-08-19T00:00:00	2024-11-08T18:00:00	1	Precipitación	0
55500	7	Sololá	710	Panajachel	8	Panajachel	8	Agosto	2023-08-19T00:00:00	2024-11-08T18:00:00	8	Radiación solar	56
55501	7	Sololá	710	Panajachel	8	Panajachel	8	Agosto	2023-08-19T00:00:00	2024-11-08T19:00:00	2	Temperatura media	21.2
55502	7	Sololá	710	Panajachel	8	Panajachel	8	Agosto	2023-08-19T00:00:00	2024-11-08T19:00:00	4	Temperatura máxima	21.9
55503	7	Sololá	710	Panajachel	8	Panajachel	8	Agosto	2023-08-19T00:00:00	2024-11-08T19:00:00	3	Temperatura mínima	21.2
55504	7	Sololá	710	Panajachel	8	Panajachel	8	Agosto	2023-08-19T00:00:00	2024-11-08T19:00:00	5	Humedad	85
55505	7	Sololá	710	Panajachel	8	Panajachel	8	Agosto	2023-08-19T00:00:00	2024-11-08T19:00:00	6	Velocidad del viento	0
55506	7	Sololá	710	Panajachel	8	Panajachel	8	Agosto	2023-08-19T00:00:00	2024-11-08T19:00:00	7	Dirección del viento	0
55507	7	Sololá	710	Panajachel	8	Panajachel	8	Agosto	2023-08-19T00:00:00	2024-11-08T19:00:00	1	Precipitación	0
55508	7	Sololá	710	Panajachel	8	Panajachel	8	Agosto	2023-08-19T00:00:00	2024-11-08T19:00:00	8	Radiación solar	0
55509	7	Sololá	710	Panajachel	8	Panajachel	8	Agosto	2023-08-19T00:00:00	2024-11-08T20:00:00	2	Temperatura media	21.3
55510	7	Sololá	710	Panajachel	8	Panajachel	8	Agosto	2023-08-19T00:00:00	2024-11-08T20:00:00	4	Temperatura máxima	21.5
55511	7	Sololá	710	Panajachel	8	Panajachel	8	Agosto	2023-08-19T00:00:00	2024-11-08T20:00:00	3	Temperatura mínima	21.2
55512	7	Sololá	710	Panajachel	8	Panajachel	8	Agosto	2023-08-19T00:00:00	2024-11-08T20:00:00	5	Humedad	68
55513	7	Sololá	710	Panajachel	8	Panajachel	8	Agosto	2023-08-19T00:00:00	2024-11-08T20:00:00	6	Velocidad del viento	4.8
55514	7	Sololá	710	Panajachel	8	Panajachel	8	Agosto	2023-08-19T00:00:00	2024-11-08T20:00:00	7	Dirección del viento	4.83
55515	7	Sololá	710	Panajachel	8	Panajachel	8	Agosto	2023-08-19T00:00:00	2024-11-08T20:00:00	1	Precipitación	0
55516	7	Sololá	710	Panajachel	8	Panajachel	8	Agosto	2023-08-19T00:00:00	2024-11-08T20:00:00	8	Radiación solar	0
55517	7	Sololá	710	Panajachel	8	Panajachel	8	Agosto	2023-08-19T00:00:00	2024-11-08T21:00:00	2	Temperatura media	20.7
55518	7	Sololá	710	Panajachel	8	Panajachel	8	Agosto	2023-08-19T00:00:00	2024-11-08T21:00:00	4	Temperatura máxima	21.3
55519	7	Sololá	710	Panajachel	8	Panajachel	8	Agosto	2023-08-19T00:00:00	2024-11-08T21:00:00	3	Temperatura mínima	20.7
55520	7	Sololá	710	Panajachel	8	Panajachel	8	Agosto	2023-08-19T00:00:00	2024-11-08T21:00:00	5	Humedad	68
55521	7	Sololá	710	Panajachel	8	Panajachel	8	Agosto	2023-08-19T00:00:00	2024-11-08T21:00:00	6	Velocidad del viento	6.4
55522	7	Sololá	710	Panajachel	8	Panajachel	8	Agosto	2023-08-19T00:00:00	2024-11-08T21:00:00	7	Dirección del viento	6.44
55523	7	Sololá	710	Panajachel	8	Panajachel	8	Agosto	2023-08-19T00:00:00	2024-11-08T21:00:00	1	Precipitación	0
55524	7	Sololá	710	Panajachel	8	Panajachel	8	Agosto	2023-08-19T00:00:00	2024-11-08T21:00:00	8	Radiación solar	0
55525	7	Sololá	710	Panajachel	8	Panajachel	8	Agosto	2023-08-19T00:00:00	2024-11-08T22:00:00	2	Temperatura media	20.3
55526	7	Sololá	710	Panajachel	8	Panajachel	8	Agosto	2023-08-19T00:00:00	2024-11-08T22:00:00	4	Temperatura máxima	20.7
55527	7	Sololá	710	Panajachel	8	Panajachel	8	Agosto	2023-08-19T00:00:00	2024-11-08T22:00:00	3	Temperatura mínima	20.3
55528	7	Sololá	710	Panajachel	8	Panajachel	8	Agosto	2023-08-19T00:00:00	2024-11-08T22:00:00	5	Humedad	68
55529	7	Sololá	710	Panajachel	8	Panajachel	8	Agosto	2023-08-19T00:00:00	2024-11-08T22:00:00	6	Velocidad del viento	6.4
55530	7	Sololá	710	Panajachel	8	Panajachel	8	Agosto	2023-08-19T00:00:00	2024-11-08T22:00:00	7	Dirección del viento	6.44
55531	7	Sololá	710	Panajachel	8	Panajachel	8	Agosto	2023-08-19T00:00:00	2024-11-08T22:00:00	1	Precipitación	0
55532	7	Sololá	710	Panajachel	8	Panajachel	8	Agosto	2023-08-19T00:00:00	2024-11-08T22:00:00	8	Radiación solar	0
55533	7	Sololá	710	Panajachel	8	Panajachel	8	Agosto	2023-08-19T00:00:00	2024-11-08T23:00:00	2	Temperatura media	20.1
55534	7	Sololá	710	Panajachel	8	Panajachel	8	Agosto	2023-08-19T00:00:00	2024-11-08T23:00:00	4	Temperatura máxima	20.4
55535	7	Sololá	710	Panajachel	8	Panajachel	8	Agosto	2023-08-19T00:00:00	2024-11-08T23:00:00	3	Temperatura mínima	20.1
55536	7	Sololá	710	Panajachel	8	Panajachel	8	Agosto	2023-08-19T00:00:00	2024-11-08T23:00:00	5	Humedad	67
55537	7	Sololá	710	Panajachel	8	Panajachel	8	Agosto	2023-08-19T00:00:00	2024-11-08T23:00:00	6	Velocidad del viento	8
55538	7	Sololá	710	Panajachel	8	Panajachel	8	Agosto	2023-08-19T00:00:00	2024-11-08T23:00:00	7	Dirección del viento	8.05
55539	7	Sololá	710	Panajachel	8	Panajachel	8	Agosto	2023-08-19T00:00:00	2024-11-08T23:00:00	1	Precipitación	0
55540	7	Sololá	710	Panajachel	8	Panajachel	8	Agosto	2023-08-19T00:00:00	2024-11-08T23:00:00	8	Radiación solar	0
55541	7	Sololá	710	Panajachel	8	Panajachel	8	Agosto	2023-08-20T00:00:00	2024-11-08T00:00:00	2	Temperatura media	19.7
55542	7	Sololá	710	Panajachel	8	Panajachel	8	Agosto	2023-08-20T00:00:00	2024-11-08T00:00:00	4	Temperatura máxima	20.1
55543	7	Sololá	710	Panajachel	8	Panajachel	8	Agosto	2023-08-20T00:00:00	2024-11-08T00:00:00	3	Temperatura mínima	19.7
55544	7	Sololá	710	Panajachel	8	Panajachel	8	Agosto	2023-08-20T00:00:00	2024-11-08T00:00:00	5	Humedad	68
55545	7	Sololá	710	Panajachel	8	Panajachel	8	Agosto	2023-08-20T00:00:00	2024-11-08T00:00:00	6	Velocidad del viento	6.4
55546	7	Sololá	710	Panajachel	8	Panajachel	8	Agosto	2023-08-20T00:00:00	2024-11-08T00:00:00	7	Dirección del viento	6.44
55547	7	Sololá	710	Panajachel	8	Panajachel	8	Agosto	2023-08-20T00:00:00	2024-11-08T00:00:00	1	Precipitación	0
55548	7	Sololá	710	Panajachel	8	Panajachel	8	Agosto	2023-08-20T00:00:00	2024-11-08T00:00:00	8	Radiación solar	0
55549	7	Sololá	710	Panajachel	8	Panajachel	8	Agosto	2023-08-20T00:00:00	2024-11-08T01:00:00	2	Temperatura media	19.4
55550	7	Sololá	710	Panajachel	8	Panajachel	8	Agosto	2023-08-20T00:00:00	2024-11-08T01:00:00	4	Temperatura máxima	19.7
55551	7	Sololá	710	Panajachel	8	Panajachel	8	Agosto	2023-08-20T00:00:00	2024-11-08T01:00:00	3	Temperatura mínima	19.1
55552	7	Sololá	710	Panajachel	8	Panajachel	8	Agosto	2023-08-20T00:00:00	2024-11-08T01:00:00	5	Humedad	68
55553	7	Sololá	710	Panajachel	8	Panajachel	8	Agosto	2023-08-20T00:00:00	2024-11-08T01:00:00	6	Velocidad del viento	4.8
55554	7	Sololá	710	Panajachel	8	Panajachel	8	Agosto	2023-08-20T00:00:00	2024-11-08T01:00:00	7	Dirección del viento	4.83
55555	7	Sololá	710	Panajachel	8	Panajachel	8	Agosto	2023-08-20T00:00:00	2024-11-08T01:00:00	1	Precipitación	0
55556	7	Sololá	710	Panajachel	8	Panajachel	8	Agosto	2023-08-20T00:00:00	2024-11-08T01:00:00	8	Radiación solar	0
55557	7	Sololá	710	Panajachel	8	Panajachel	8	Agosto	2023-08-20T00:00:00	2024-11-08T02:00:00	2	Temperatura media	19.3
55558	7	Sololá	710	Panajachel	8	Panajachel	8	Agosto	2023-08-20T00:00:00	2024-11-08T02:00:00	4	Temperatura máxima	19.4
55559	7	Sololá	710	Panajachel	8	Panajachel	8	Agosto	2023-08-20T00:00:00	2024-11-08T02:00:00	3	Temperatura mínima	19.2
55560	7	Sololá	710	Panajachel	8	Panajachel	8	Agosto	2023-08-20T00:00:00	2024-11-08T02:00:00	5	Humedad	67
55561	7	Sololá	710	Panajachel	8	Panajachel	8	Agosto	2023-08-20T00:00:00	2024-11-08T02:00:00	6	Velocidad del viento	6.4
55562	7	Sololá	710	Panajachel	8	Panajachel	8	Agosto	2023-08-20T00:00:00	2024-11-08T02:00:00	7	Dirección del viento	6.44
55563	7	Sololá	710	Panajachel	8	Panajachel	8	Agosto	2023-08-20T00:00:00	2024-11-08T02:00:00	1	Precipitación	0
55564	7	Sololá	710	Panajachel	8	Panajachel	8	Agosto	2023-08-20T00:00:00	2024-11-08T02:00:00	8	Radiación solar	0
55565	7	Sololá	710	Panajachel	8	Panajachel	8	Agosto	2023-08-20T00:00:00	2024-11-08T03:00:00	2	Temperatura media	19.2
55566	7	Sololá	710	Panajachel	8	Panajachel	8	Agosto	2023-08-20T00:00:00	2024-11-08T03:00:00	4	Temperatura máxima	19.3
55567	7	Sololá	710	Panajachel	8	Panajachel	8	Agosto	2023-08-20T00:00:00	2024-11-08T03:00:00	3	Temperatura mínima	19
55568	7	Sololá	710	Panajachel	8	Panajachel	8	Agosto	2023-08-20T00:00:00	2024-11-08T03:00:00	5	Humedad	63
55569	7	Sololá	710	Panajachel	8	Panajachel	8	Agosto	2023-08-20T00:00:00	2024-11-08T03:00:00	6	Velocidad del viento	3.2
55570	7	Sololá	710	Panajachel	8	Panajachel	8	Agosto	2023-08-20T00:00:00	2024-11-08T03:00:00	7	Dirección del viento	3.22
55571	7	Sololá	710	Panajachel	8	Panajachel	8	Agosto	2023-08-20T00:00:00	2024-11-08T03:00:00	1	Precipitación	0
55572	7	Sololá	710	Panajachel	8	Panajachel	8	Agosto	2023-08-20T00:00:00	2024-11-08T03:00:00	8	Radiación solar	0
55573	7	Sololá	710	Panajachel	8	Panajachel	8	Agosto	2023-08-20T00:00:00	2024-11-08T04:00:00	2	Temperatura media	18.6
55574	7	Sololá	710	Panajachel	8	Panajachel	8	Agosto	2023-08-20T00:00:00	2024-11-08T04:00:00	4	Temperatura máxima	19.3
55575	7	Sololá	710	Panajachel	8	Panajachel	8	Agosto	2023-08-20T00:00:00	2024-11-08T04:00:00	3	Temperatura mínima	18.6
55576	7	Sololá	710	Panajachel	8	Panajachel	8	Agosto	2023-08-20T00:00:00	2024-11-08T04:00:00	5	Humedad	65
55577	7	Sololá	710	Panajachel	8	Panajachel	8	Agosto	2023-08-20T00:00:00	2024-11-08T04:00:00	6	Velocidad del viento	3.2
55578	7	Sololá	710	Panajachel	8	Panajachel	8	Agosto	2023-08-20T00:00:00	2024-11-08T04:00:00	7	Dirección del viento	3.22
55579	7	Sololá	710	Panajachel	8	Panajachel	8	Agosto	2023-08-20T00:00:00	2024-11-08T04:00:00	1	Precipitación	0
55580	7	Sololá	710	Panajachel	8	Panajachel	8	Agosto	2023-08-20T00:00:00	2024-11-08T04:00:00	8	Radiación solar	0
55581	7	Sololá	710	Panajachel	8	Panajachel	8	Agosto	2023-08-20T00:00:00	2024-11-08T05:00:00	2	Temperatura media	19.1
55582	7	Sololá	710	Panajachel	8	Panajachel	8	Agosto	2023-08-20T00:00:00	2024-11-08T05:00:00	4	Temperatura máxima	19.1
55583	7	Sololá	710	Panajachel	8	Panajachel	8	Agosto	2023-08-20T00:00:00	2024-11-08T05:00:00	3	Temperatura mínima	18.1
55584	7	Sololá	710	Panajachel	8	Panajachel	8	Agosto	2023-08-20T00:00:00	2024-11-08T05:00:00	5	Humedad	61
55585	7	Sololá	710	Panajachel	8	Panajachel	8	Agosto	2023-08-20T00:00:00	2024-11-08T05:00:00	6	Velocidad del viento	3.2
55586	7	Sololá	710	Panajachel	8	Panajachel	8	Agosto	2023-08-20T00:00:00	2024-11-08T05:00:00	7	Dirección del viento	3.22
55587	7	Sololá	710	Panajachel	8	Panajachel	8	Agosto	2023-08-20T00:00:00	2024-11-08T05:00:00	1	Precipitación	0
55588	7	Sololá	710	Panajachel	8	Panajachel	8	Agosto	2023-08-20T00:00:00	2024-11-08T05:00:00	8	Radiación solar	0
55589	7	Sololá	710	Panajachel	8	Panajachel	8	Agosto	2023-08-20T00:00:00	2024-11-08T06:00:00	2	Temperatura media	19.5
55590	7	Sololá	710	Panajachel	8	Panajachel	8	Agosto	2023-08-20T00:00:00	2024-11-08T06:00:00	4	Temperatura máxima	19.6
55591	7	Sololá	710	Panajachel	8	Panajachel	8	Agosto	2023-08-20T00:00:00	2024-11-08T06:00:00	3	Temperatura mínima	19.1
55592	7	Sololá	710	Panajachel	8	Panajachel	8	Agosto	2023-08-20T00:00:00	2024-11-08T06:00:00	5	Humedad	57
55593	7	Sololá	710	Panajachel	8	Panajachel	8	Agosto	2023-08-20T00:00:00	2024-11-08T06:00:00	6	Velocidad del viento	3.2
55594	7	Sololá	710	Panajachel	8	Panajachel	8	Agosto	2023-08-20T00:00:00	2024-11-08T06:00:00	7	Dirección del viento	3.22
55595	7	Sololá	710	Panajachel	8	Panajachel	8	Agosto	2023-08-20T00:00:00	2024-11-08T06:00:00	1	Precipitación	0
55596	7	Sololá	710	Panajachel	8	Panajachel	8	Agosto	2023-08-20T00:00:00	2024-11-08T06:00:00	8	Radiación solar	0
55597	7	Sololá	710	Panajachel	8	Panajachel	8	Agosto	2023-08-20T00:00:00	2024-11-08T07:00:00	2	Temperatura media	19.8
55598	7	Sololá	710	Panajachel	8	Panajachel	8	Agosto	2023-08-20T00:00:00	2024-11-08T07:00:00	4	Temperatura máxima	19.8
55599	7	Sololá	710	Panajachel	8	Panajachel	8	Agosto	2023-08-20T00:00:00	2024-11-08T07:00:00	3	Temperatura mínima	18.4
55600	7	Sololá	710	Panajachel	8	Panajachel	8	Agosto	2023-08-20T00:00:00	2024-11-08T07:00:00	5	Humedad	63
55601	7	Sololá	710	Panajachel	8	Panajachel	8	Agosto	2023-08-20T00:00:00	2024-11-08T07:00:00	6	Velocidad del viento	0
55602	7	Sololá	710	Panajachel	8	Panajachel	8	Agosto	2023-08-20T00:00:00	2024-11-08T07:00:00	7	Dirección del viento	0
55603	7	Sololá	710	Panajachel	8	Panajachel	8	Agosto	2023-08-20T00:00:00	2024-11-08T07:00:00	1	Precipitación	0
55604	7	Sololá	710	Panajachel	8	Panajachel	8	Agosto	2023-08-20T00:00:00	2024-11-08T07:00:00	8	Radiación solar	63
55605	7	Sololá	710	Panajachel	8	Panajachel	8	Agosto	2023-08-20T00:00:00	2024-11-08T08:00:00	2	Temperatura media	22.6
55606	7	Sololá	710	Panajachel	8	Panajachel	8	Agosto	2023-08-20T00:00:00	2024-11-08T08:00:00	4	Temperatura máxima	22.6
55607	7	Sololá	710	Panajachel	8	Panajachel	8	Agosto	2023-08-20T00:00:00	2024-11-08T08:00:00	3	Temperatura mínima	19.7
55608	7	Sololá	710	Panajachel	8	Panajachel	8	Agosto	2023-08-20T00:00:00	2024-11-08T08:00:00	5	Humedad	50
55609	7	Sololá	710	Panajachel	8	Panajachel	8	Agosto	2023-08-20T00:00:00	2024-11-08T08:00:00	6	Velocidad del viento	1.6
55610	7	Sololá	710	Panajachel	8	Panajachel	8	Agosto	2023-08-20T00:00:00	2024-11-08T08:00:00	7	Dirección del viento	1.61
55611	7	Sololá	710	Panajachel	8	Panajachel	8	Agosto	2023-08-20T00:00:00	2024-11-08T08:00:00	1	Precipitación	0
55612	7	Sololá	710	Panajachel	8	Panajachel	8	Agosto	2023-08-20T00:00:00	2024-11-08T08:00:00	8	Radiación solar	318
55613	7	Sololá	710	Panajachel	8	Panajachel	8	Agosto	2023-08-20T00:00:00	2024-11-08T09:00:00	2	Temperatura media	24.5
55614	7	Sololá	710	Panajachel	8	Panajachel	8	Agosto	2023-08-20T00:00:00	2024-11-08T09:00:00	4	Temperatura máxima	24.5
55615	7	Sololá	710	Panajachel	8	Panajachel	8	Agosto	2023-08-20T00:00:00	2024-11-08T09:00:00	3	Temperatura mínima	22.6
55616	7	Sololá	710	Panajachel	8	Panajachel	8	Agosto	2023-08-20T00:00:00	2024-11-08T09:00:00	5	Humedad	47
55617	7	Sololá	710	Panajachel	8	Panajachel	8	Agosto	2023-08-20T00:00:00	2024-11-08T09:00:00	6	Velocidad del viento	8
55618	7	Sololá	710	Panajachel	8	Panajachel	8	Agosto	2023-08-20T00:00:00	2024-11-08T09:00:00	7	Dirección del viento	8.05
55619	7	Sololá	710	Panajachel	8	Panajachel	8	Agosto	2023-08-20T00:00:00	2024-11-08T09:00:00	1	Precipitación	0
55620	7	Sololá	710	Panajachel	8	Panajachel	8	Agosto	2023-08-20T00:00:00	2024-11-08T09:00:00	8	Radiación solar	548
55621	7	Sololá	710	Panajachel	8	Panajachel	8	Agosto	2023-08-20T00:00:00	2024-11-08T10:00:00	2	Temperatura media	25.6
55622	7	Sololá	710	Panajachel	8	Panajachel	8	Agosto	2023-08-20T00:00:00	2024-11-08T10:00:00	4	Temperatura máxima	25.7
55623	7	Sololá	710	Panajachel	8	Panajachel	8	Agosto	2023-08-20T00:00:00	2024-11-08T10:00:00	3	Temperatura mínima	24.4
55624	7	Sololá	710	Panajachel	8	Panajachel	8	Agosto	2023-08-20T00:00:00	2024-11-08T10:00:00	5	Humedad	47
55625	7	Sololá	710	Panajachel	8	Panajachel	8	Agosto	2023-08-20T00:00:00	2024-11-08T10:00:00	6	Velocidad del viento	4.8
55626	7	Sololá	710	Panajachel	8	Panajachel	8	Agosto	2023-08-20T00:00:00	2024-11-08T10:00:00	7	Dirección del viento	4.83
55627	7	Sololá	710	Panajachel	8	Panajachel	8	Agosto	2023-08-20T00:00:00	2024-11-08T10:00:00	1	Precipitación	0
55628	7	Sololá	710	Panajachel	8	Panajachel	8	Agosto	2023-08-20T00:00:00	2024-11-08T10:00:00	8	Radiación solar	739
55629	7	Sololá	710	Panajachel	8	Panajachel	8	Agosto	2023-08-20T00:00:00	2024-11-08T11:00:00	2	Temperatura media	26.7
55630	7	Sololá	710	Panajachel	8	Panajachel	8	Agosto	2023-08-20T00:00:00	2024-11-08T11:00:00	4	Temperatura máxima	26.8
55631	7	Sololá	710	Panajachel	8	Panajachel	8	Agosto	2023-08-20T00:00:00	2024-11-08T11:00:00	3	Temperatura mínima	25.6
55632	7	Sololá	710	Panajachel	8	Panajachel	8	Agosto	2023-08-20T00:00:00	2024-11-08T11:00:00	5	Humedad	47
55633	7	Sololá	710	Panajachel	8	Panajachel	8	Agosto	2023-08-20T00:00:00	2024-11-08T11:00:00	6	Velocidad del viento	6.4
55634	7	Sololá	710	Panajachel	8	Panajachel	8	Agosto	2023-08-20T00:00:00	2024-11-08T11:00:00	7	Dirección del viento	6.44
55635	7	Sololá	710	Panajachel	8	Panajachel	8	Agosto	2023-08-20T00:00:00	2024-11-08T11:00:00	1	Precipitación	0
55636	7	Sololá	710	Panajachel	8	Panajachel	8	Agosto	2023-08-20T00:00:00	2024-11-08T11:00:00	8	Radiación solar	874
55637	7	Sololá	710	Panajachel	8	Panajachel	8	Agosto	2023-08-20T00:00:00	2024-11-08T12:00:00	2	Temperatura media	26.3
55638	7	Sololá	710	Panajachel	8	Panajachel	8	Agosto	2023-08-20T00:00:00	2024-11-08T12:00:00	4	Temperatura máxima	27.2
55639	7	Sololá	710	Panajachel	8	Panajachel	8	Agosto	2023-08-20T00:00:00	2024-11-08T12:00:00	3	Temperatura mínima	25.8
55640	7	Sololá	710	Panajachel	8	Panajachel	8	Agosto	2023-08-20T00:00:00	2024-11-08T12:00:00	5	Humedad	61
55641	7	Sololá	710	Panajachel	8	Panajachel	8	Agosto	2023-08-20T00:00:00	2024-11-08T12:00:00	6	Velocidad del viento	4.8
55642	7	Sololá	710	Panajachel	8	Panajachel	8	Agosto	2023-08-20T00:00:00	2024-11-08T12:00:00	7	Dirección del viento	4.83
55643	7	Sololá	710	Panajachel	8	Panajachel	8	Agosto	2023-08-20T00:00:00	2024-11-08T12:00:00	1	Precipitación	0
55644	7	Sololá	710	Panajachel	8	Panajachel	8	Agosto	2023-08-20T00:00:00	2024-11-08T12:00:00	8	Radiación solar	950
55645	7	Sololá	710	Panajachel	8	Panajachel	8	Agosto	2023-08-20T00:00:00	2024-11-08T13:00:00	2	Temperatura media	26.1
55646	7	Sololá	710	Panajachel	8	Panajachel	8	Agosto	2023-08-20T00:00:00	2024-11-08T13:00:00	4	Temperatura máxima	26.2
55647	7	Sololá	710	Panajachel	8	Panajachel	8	Agosto	2023-08-20T00:00:00	2024-11-08T13:00:00	3	Temperatura mínima	25
55648	7	Sololá	710	Panajachel	8	Panajachel	8	Agosto	2023-08-20T00:00:00	2024-11-08T13:00:00	5	Humedad	66
55649	7	Sololá	710	Panajachel	8	Panajachel	8	Agosto	2023-08-20T00:00:00	2024-11-08T13:00:00	6	Velocidad del viento	6.4
55650	7	Sololá	710	Panajachel	8	Panajachel	8	Agosto	2023-08-20T00:00:00	2024-11-08T13:00:00	7	Dirección del viento	6.44
55651	7	Sololá	710	Panajachel	8	Panajachel	8	Agosto	2023-08-20T00:00:00	2024-11-08T13:00:00	1	Precipitación	0
55652	7	Sololá	710	Panajachel	8	Panajachel	8	Agosto	2023-08-20T00:00:00	2024-11-08T13:00:00	8	Radiación solar	981
55653	7	Sololá	710	Panajachel	8	Panajachel	8	Agosto	2023-08-20T00:00:00	2024-11-08T14:00:00	2	Temperatura media	23.7
55654	7	Sololá	710	Panajachel	8	Panajachel	8	Agosto	2023-08-20T00:00:00	2024-11-08T14:00:00	4	Temperatura máxima	26.2
55655	7	Sololá	710	Panajachel	8	Panajachel	8	Agosto	2023-08-20T00:00:00	2024-11-08T14:00:00	3	Temperatura mínima	23.4
55656	7	Sololá	710	Panajachel	8	Panajachel	8	Agosto	2023-08-20T00:00:00	2024-11-08T14:00:00	5	Humedad	79
55657	7	Sololá	710	Panajachel	8	Panajachel	8	Agosto	2023-08-20T00:00:00	2024-11-08T14:00:00	6	Velocidad del viento	4.8
55658	7	Sololá	710	Panajachel	8	Panajachel	8	Agosto	2023-08-20T00:00:00	2024-11-08T14:00:00	7	Dirección del viento	4.83
55659	7	Sololá	710	Panajachel	8	Panajachel	8	Agosto	2023-08-20T00:00:00	2024-11-08T14:00:00	1	Precipitación	0
55660	7	Sololá	710	Panajachel	8	Panajachel	8	Agosto	2023-08-20T00:00:00	2024-11-08T14:00:00	8	Radiación solar	608
55661	7	Sololá	710	Panajachel	8	Panajachel	8	Agosto	2023-08-20T00:00:00	2024-11-08T15:00:00	2	Temperatura media	23.3
55662	7	Sololá	710	Panajachel	8	Panajachel	8	Agosto	2023-08-20T00:00:00	2024-11-08T15:00:00	4	Temperatura máxima	24.4
55663	7	Sololá	710	Panajachel	8	Panajachel	8	Agosto	2023-08-20T00:00:00	2024-11-08T15:00:00	3	Temperatura mínima	22.9
55664	7	Sololá	710	Panajachel	8	Panajachel	8	Agosto	2023-08-20T00:00:00	2024-11-08T15:00:00	5	Humedad	77
55665	7	Sololá	710	Panajachel	8	Panajachel	8	Agosto	2023-08-20T00:00:00	2024-11-08T15:00:00	6	Velocidad del viento	4.8
55666	7	Sololá	710	Panajachel	8	Panajachel	8	Agosto	2023-08-20T00:00:00	2024-11-08T15:00:00	7	Dirección del viento	4.83
55667	7	Sololá	710	Panajachel	8	Panajachel	8	Agosto	2023-08-20T00:00:00	2024-11-08T15:00:00	1	Precipitación	0
55668	7	Sololá	710	Panajachel	8	Panajachel	8	Agosto	2023-08-20T00:00:00	2024-11-08T15:00:00	8	Radiación solar	488
55669	7	Sololá	710	Panajachel	8	Panajachel	8	Agosto	2023-08-20T00:00:00	2024-11-08T16:00:00	2	Temperatura media	23.6
55670	7	Sololá	710	Panajachel	8	Panajachel	8	Agosto	2023-08-20T00:00:00	2024-11-08T16:00:00	4	Temperatura máxima	24.1
55671	7	Sololá	710	Panajachel	8	Panajachel	8	Agosto	2023-08-20T00:00:00	2024-11-08T16:00:00	3	Temperatura mínima	23.3
55672	7	Sololá	710	Panajachel	8	Panajachel	8	Agosto	2023-08-20T00:00:00	2024-11-08T16:00:00	5	Humedad	77
55673	7	Sololá	710	Panajachel	8	Panajachel	8	Agosto	2023-08-20T00:00:00	2024-11-08T16:00:00	6	Velocidad del viento	4.8
55674	7	Sololá	710	Panajachel	8	Panajachel	8	Agosto	2023-08-20T00:00:00	2024-11-08T16:00:00	7	Dirección del viento	4.83
55675	7	Sololá	710	Panajachel	8	Panajachel	8	Agosto	2023-08-20T00:00:00	2024-11-08T16:00:00	1	Precipitación	0
55676	7	Sololá	710	Panajachel	8	Panajachel	8	Agosto	2023-08-20T00:00:00	2024-11-08T16:00:00	8	Radiación solar	423
55677	7	Sololá	710	Panajachel	8	Panajachel	8	Agosto	2023-08-20T00:00:00	2024-11-08T17:00:00	2	Temperatura media	23.9
55678	7	Sololá	710	Panajachel	8	Panajachel	8	Agosto	2023-08-20T00:00:00	2024-11-08T17:00:00	4	Temperatura máxima	24
55679	7	Sololá	710	Panajachel	8	Panajachel	8	Agosto	2023-08-20T00:00:00	2024-11-08T17:00:00	3	Temperatura mínima	23.4
55680	7	Sololá	710	Panajachel	8	Panajachel	8	Agosto	2023-08-20T00:00:00	2024-11-08T17:00:00	5	Humedad	79
55681	7	Sololá	710	Panajachel	8	Panajachel	8	Agosto	2023-08-20T00:00:00	2024-11-08T17:00:00	6	Velocidad del viento	1.6
55682	7	Sololá	710	Panajachel	8	Panajachel	8	Agosto	2023-08-20T00:00:00	2024-11-08T17:00:00	7	Dirección del viento	1.61
55683	7	Sololá	710	Panajachel	8	Panajachel	8	Agosto	2023-08-20T00:00:00	2024-11-08T17:00:00	1	Precipitación	0
55684	7	Sololá	710	Panajachel	8	Panajachel	8	Agosto	2023-08-20T00:00:00	2024-11-08T17:00:00	8	Radiación solar	148
55685	7	Sololá	710	Panajachel	8	Panajachel	8	Agosto	2023-08-20T00:00:00	2024-11-08T18:00:00	2	Temperatura media	22.9
55686	7	Sololá	710	Panajachel	8	Panajachel	8	Agosto	2023-08-20T00:00:00	2024-11-08T18:00:00	4	Temperatura máxima	24
55687	7	Sololá	710	Panajachel	8	Panajachel	8	Agosto	2023-08-20T00:00:00	2024-11-08T18:00:00	3	Temperatura mínima	22.9
55688	7	Sololá	710	Panajachel	8	Panajachel	8	Agosto	2023-08-20T00:00:00	2024-11-08T18:00:00	5	Humedad	80
55689	7	Sololá	710	Panajachel	8	Panajachel	8	Agosto	2023-08-20T00:00:00	2024-11-08T18:00:00	6	Velocidad del viento	1.6
55690	7	Sololá	710	Panajachel	8	Panajachel	8	Agosto	2023-08-20T00:00:00	2024-11-08T18:00:00	7	Dirección del viento	1.61
55691	7	Sololá	710	Panajachel	8	Panajachel	8	Agosto	2023-08-20T00:00:00	2024-11-08T18:00:00	1	Precipitación	0
55692	7	Sololá	710	Panajachel	8	Panajachel	8	Agosto	2023-08-20T00:00:00	2024-11-08T18:00:00	8	Radiación solar	79
55693	7	Sololá	710	Panajachel	8	Panajachel	8	Agosto	2023-08-20T00:00:00	2024-11-08T19:00:00	2	Temperatura media	21.6
55694	7	Sololá	710	Panajachel	8	Panajachel	8	Agosto	2023-08-20T00:00:00	2024-11-08T19:00:00	4	Temperatura máxima	23
55695	7	Sololá	710	Panajachel	8	Panajachel	8	Agosto	2023-08-20T00:00:00	2024-11-08T19:00:00	3	Temperatura mínima	21.6
55696	7	Sololá	710	Panajachel	8	Panajachel	8	Agosto	2023-08-20T00:00:00	2024-11-08T19:00:00	5	Humedad	87
55697	7	Sololá	710	Panajachel	8	Panajachel	8	Agosto	2023-08-20T00:00:00	2024-11-08T19:00:00	6	Velocidad del viento	0
55698	7	Sololá	710	Panajachel	8	Panajachel	8	Agosto	2023-08-20T00:00:00	2024-11-08T19:00:00	7	Dirección del viento	0
55699	7	Sololá	710	Panajachel	8	Panajachel	8	Agosto	2023-08-20T00:00:00	2024-11-08T19:00:00	1	Precipitación	0
55700	7	Sololá	710	Panajachel	8	Panajachel	8	Agosto	2023-08-20T00:00:00	2024-11-08T19:00:00	8	Radiación solar	0
55701	7	Sololá	710	Panajachel	8	Panajachel	8	Agosto	2023-08-20T00:00:00	2024-11-08T20:00:00	2	Temperatura media	20.8
55702	7	Sololá	710	Panajachel	8	Panajachel	8	Agosto	2023-08-20T00:00:00	2024-11-08T20:00:00	4	Temperatura máxima	21.7
55703	7	Sololá	710	Panajachel	8	Panajachel	8	Agosto	2023-08-20T00:00:00	2024-11-08T20:00:00	3	Temperatura mínima	20.8
55704	7	Sololá	710	Panajachel	8	Panajachel	8	Agosto	2023-08-20T00:00:00	2024-11-08T20:00:00	5	Humedad	87
55705	7	Sololá	710	Panajachel	8	Panajachel	8	Agosto	2023-08-20T00:00:00	2024-11-08T20:00:00	6	Velocidad del viento	0
55706	7	Sololá	710	Panajachel	8	Panajachel	8	Agosto	2023-08-20T00:00:00	2024-11-08T20:00:00	7	Dirección del viento	0
55707	7	Sololá	710	Panajachel	8	Panajachel	8	Agosto	2023-08-20T00:00:00	2024-11-08T20:00:00	1	Precipitación	0
55708	7	Sololá	710	Panajachel	8	Panajachel	8	Agosto	2023-08-20T00:00:00	2024-11-08T20:00:00	8	Radiación solar	0
55709	7	Sololá	710	Panajachel	8	Panajachel	8	Agosto	2023-08-20T00:00:00	2024-11-08T21:00:00	2	Temperatura media	20.4
55710	7	Sololá	710	Panajachel	8	Panajachel	8	Agosto	2023-08-20T00:00:00	2024-11-08T21:00:00	4	Temperatura máxima	20.8
55711	7	Sololá	710	Panajachel	8	Panajachel	8	Agosto	2023-08-20T00:00:00	2024-11-08T21:00:00	3	Temperatura mínima	20.4
55712	7	Sololá	710	Panajachel	8	Panajachel	8	Agosto	2023-08-20T00:00:00	2024-11-08T21:00:00	5	Humedad	80
55713	7	Sololá	710	Panajachel	8	Panajachel	8	Agosto	2023-08-20T00:00:00	2024-11-08T21:00:00	6	Velocidad del viento	0
55714	7	Sololá	710	Panajachel	8	Panajachel	8	Agosto	2023-08-20T00:00:00	2024-11-08T21:00:00	7	Dirección del viento	0
55715	7	Sololá	710	Panajachel	8	Panajachel	8	Agosto	2023-08-20T00:00:00	2024-11-08T21:00:00	1	Precipitación	0
55716	7	Sololá	710	Panajachel	8	Panajachel	8	Agosto	2023-08-20T00:00:00	2024-11-08T21:00:00	8	Radiación solar	0
55717	7	Sololá	710	Panajachel	8	Panajachel	8	Agosto	2023-08-20T00:00:00	2024-11-08T22:00:00	2	Temperatura media	21.8
55718	7	Sololá	710	Panajachel	8	Panajachel	8	Agosto	2023-08-20T00:00:00	2024-11-08T22:00:00	4	Temperatura máxima	21.8
55719	7	Sololá	710	Panajachel	8	Panajachel	8	Agosto	2023-08-20T00:00:00	2024-11-08T22:00:00	3	Temperatura mínima	20.3
55720	7	Sololá	710	Panajachel	8	Panajachel	8	Agosto	2023-08-20T00:00:00	2024-11-08T22:00:00	5	Humedad	70
55721	7	Sololá	710	Panajachel	8	Panajachel	8	Agosto	2023-08-20T00:00:00	2024-11-08T22:00:00	6	Velocidad del viento	3.2
55722	7	Sololá	710	Panajachel	8	Panajachel	8	Agosto	2023-08-20T00:00:00	2024-11-08T22:00:00	7	Dirección del viento	3.22
55723	7	Sololá	710	Panajachel	8	Panajachel	8	Agosto	2023-08-20T00:00:00	2024-11-08T22:00:00	1	Precipitación	0
55724	7	Sololá	710	Panajachel	8	Panajachel	8	Agosto	2023-08-20T00:00:00	2024-11-08T22:00:00	8	Radiación solar	0
55725	7	Sololá	710	Panajachel	8	Panajachel	8	Agosto	2023-08-20T00:00:00	2024-11-08T23:00:00	2	Temperatura media	21.3
55726	7	Sololá	710	Panajachel	8	Panajachel	8	Agosto	2023-08-20T00:00:00	2024-11-08T23:00:00	4	Temperatura máxima	21.8
55727	7	Sololá	710	Panajachel	8	Panajachel	8	Agosto	2023-08-20T00:00:00	2024-11-08T23:00:00	3	Temperatura mínima	21.3
55728	7	Sololá	710	Panajachel	8	Panajachel	8	Agosto	2023-08-20T00:00:00	2024-11-08T23:00:00	5	Humedad	71
55729	7	Sololá	710	Panajachel	8	Panajachel	8	Agosto	2023-08-20T00:00:00	2024-11-08T23:00:00	6	Velocidad del viento	3.2
55730	7	Sololá	710	Panajachel	8	Panajachel	8	Agosto	2023-08-20T00:00:00	2024-11-08T23:00:00	7	Dirección del viento	3.22
55731	7	Sololá	710	Panajachel	8	Panajachel	8	Agosto	2023-08-20T00:00:00	2024-11-08T23:00:00	1	Precipitación	0
55732	7	Sololá	710	Panajachel	8	Panajachel	8	Agosto	2023-08-20T00:00:00	2024-11-08T23:00:00	8	Radiación solar	0
55733	7	Sololá	710	Panajachel	8	Panajachel	8	Agosto	2023-08-21T00:00:00	2024-11-08T00:00:00	2	Temperatura media	20.1
55734	7	Sololá	710	Panajachel	8	Panajachel	8	Agosto	2023-08-21T00:00:00	2024-11-08T00:00:00	4	Temperatura máxima	21.3
55735	7	Sololá	710	Panajachel	8	Panajachel	8	Agosto	2023-08-21T00:00:00	2024-11-08T00:00:00	3	Temperatura mínima	19.9
55736	7	Sololá	710	Panajachel	8	Panajachel	8	Agosto	2023-08-21T00:00:00	2024-11-08T00:00:00	5	Humedad	74
55737	7	Sololá	710	Panajachel	8	Panajachel	8	Agosto	2023-08-21T00:00:00	2024-11-08T00:00:00	6	Velocidad del viento	0
55738	7	Sololá	710	Panajachel	8	Panajachel	8	Agosto	2023-08-21T00:00:00	2024-11-08T00:00:00	7	Dirección del viento	0
55739	7	Sololá	710	Panajachel	8	Panajachel	8	Agosto	2023-08-21T00:00:00	2024-11-08T00:00:00	1	Precipitación	0
55740	7	Sololá	710	Panajachel	8	Panajachel	8	Agosto	2023-08-21T00:00:00	2024-11-08T00:00:00	8	Radiación solar	0
55741	7	Sololá	710	Panajachel	8	Panajachel	8	Agosto	2023-08-21T00:00:00	2024-11-08T01:00:00	2	Temperatura media	20.9
55742	7	Sololá	710	Panajachel	8	Panajachel	8	Agosto	2023-08-21T00:00:00	2024-11-08T01:00:00	4	Temperatura máxima	21
55743	7	Sololá	710	Panajachel	8	Panajachel	8	Agosto	2023-08-21T00:00:00	2024-11-08T01:00:00	3	Temperatura mínima	20.1
55744	7	Sololá	710	Panajachel	8	Panajachel	8	Agosto	2023-08-21T00:00:00	2024-11-08T01:00:00	5	Humedad	71
55745	7	Sololá	710	Panajachel	8	Panajachel	8	Agosto	2023-08-21T00:00:00	2024-11-08T01:00:00	6	Velocidad del viento	6.4
55746	7	Sololá	710	Panajachel	8	Panajachel	8	Agosto	2023-08-21T00:00:00	2024-11-08T01:00:00	7	Dirección del viento	6.44
55747	7	Sololá	710	Panajachel	8	Panajachel	8	Agosto	2023-08-21T00:00:00	2024-11-08T01:00:00	1	Precipitación	0
55748	7	Sololá	710	Panajachel	8	Panajachel	8	Agosto	2023-08-21T00:00:00	2024-11-08T01:00:00	8	Radiación solar	0
55749	7	Sololá	710	Panajachel	8	Panajachel	8	Agosto	2023-08-21T00:00:00	2024-11-08T02:00:00	2	Temperatura media	20.7
55750	7	Sololá	710	Panajachel	8	Panajachel	8	Agosto	2023-08-21T00:00:00	2024-11-08T02:00:00	4	Temperatura máxima	20.9
55751	7	Sololá	710	Panajachel	8	Panajachel	8	Agosto	2023-08-21T00:00:00	2024-11-08T02:00:00	3	Temperatura mínima	20.7
55752	7	Sololá	710	Panajachel	8	Panajachel	8	Agosto	2023-08-21T00:00:00	2024-11-08T02:00:00	5	Humedad	71
55753	7	Sololá	710	Panajachel	8	Panajachel	8	Agosto	2023-08-21T00:00:00	2024-11-08T02:00:00	6	Velocidad del viento	4.8
55754	7	Sololá	710	Panajachel	8	Panajachel	8	Agosto	2023-08-21T00:00:00	2024-11-08T02:00:00	7	Dirección del viento	4.83
55755	7	Sololá	710	Panajachel	8	Panajachel	8	Agosto	2023-08-21T00:00:00	2024-11-08T02:00:00	1	Precipitación	0
55756	7	Sololá	710	Panajachel	8	Panajachel	8	Agosto	2023-08-21T00:00:00	2024-11-08T02:00:00	8	Radiación solar	0
55757	7	Sololá	710	Panajachel	8	Panajachel	8	Agosto	2023-08-21T00:00:00	2024-11-08T03:00:00	2	Temperatura media	20.4
55758	7	Sololá	710	Panajachel	8	Panajachel	8	Agosto	2023-08-21T00:00:00	2024-11-08T03:00:00	4	Temperatura máxima	20.8
55759	7	Sololá	710	Panajachel	8	Panajachel	8	Agosto	2023-08-21T00:00:00	2024-11-08T03:00:00	3	Temperatura mínima	20.3
55760	7	Sololá	710	Panajachel	8	Panajachel	8	Agosto	2023-08-21T00:00:00	2024-11-08T03:00:00	5	Humedad	71
55761	7	Sololá	710	Panajachel	8	Panajachel	8	Agosto	2023-08-21T00:00:00	2024-11-08T03:00:00	6	Velocidad del viento	3.2
55762	7	Sololá	710	Panajachel	8	Panajachel	8	Agosto	2023-08-21T00:00:00	2024-11-08T03:00:00	7	Dirección del viento	3.22
55763	7	Sololá	710	Panajachel	8	Panajachel	8	Agosto	2023-08-21T00:00:00	2024-11-08T03:00:00	1	Precipitación	0
55764	7	Sololá	710	Panajachel	8	Panajachel	8	Agosto	2023-08-21T00:00:00	2024-11-08T03:00:00	8	Radiación solar	0
55765	7	Sololá	710	Panajachel	8	Panajachel	8	Agosto	2023-08-21T00:00:00	2024-11-08T04:00:00	2	Temperatura media	20.3
55766	7	Sololá	710	Panajachel	8	Panajachel	8	Agosto	2023-08-21T00:00:00	2024-11-08T04:00:00	4	Temperatura máxima	20.5
55767	7	Sololá	710	Panajachel	8	Panajachel	8	Agosto	2023-08-21T00:00:00	2024-11-08T04:00:00	3	Temperatura mínima	20.1
55768	7	Sololá	710	Panajachel	8	Panajachel	8	Agosto	2023-08-21T00:00:00	2024-11-08T04:00:00	5	Humedad	69
55769	7	Sololá	710	Panajachel	8	Panajachel	8	Agosto	2023-08-21T00:00:00	2024-11-08T04:00:00	6	Velocidad del viento	8
55770	7	Sololá	710	Panajachel	8	Panajachel	8	Agosto	2023-08-21T00:00:00	2024-11-08T04:00:00	7	Dirección del viento	8.05
55771	7	Sololá	710	Panajachel	8	Panajachel	8	Agosto	2023-08-21T00:00:00	2024-11-08T04:00:00	1	Precipitación	0
55772	7	Sololá	710	Panajachel	8	Panajachel	8	Agosto	2023-08-21T00:00:00	2024-11-08T04:00:00	8	Radiación solar	0
55773	7	Sololá	710	Panajachel	8	Panajachel	8	Agosto	2023-08-21T00:00:00	2024-11-08T05:00:00	2	Temperatura media	20.2
55774	7	Sololá	710	Panajachel	8	Panajachel	8	Agosto	2023-08-21T00:00:00	2024-11-08T05:00:00	4	Temperatura máxima	20.4
55775	7	Sololá	710	Panajachel	8	Panajachel	8	Agosto	2023-08-21T00:00:00	2024-11-08T05:00:00	3	Temperatura mínima	20.2
55776	7	Sololá	710	Panajachel	8	Panajachel	8	Agosto	2023-08-21T00:00:00	2024-11-08T05:00:00	5	Humedad	70
55777	7	Sololá	710	Panajachel	8	Panajachel	8	Agosto	2023-08-21T00:00:00	2024-11-08T05:00:00	6	Velocidad del viento	3.2
55778	7	Sololá	710	Panajachel	8	Panajachel	8	Agosto	2023-08-21T00:00:00	2024-11-08T05:00:00	7	Dirección del viento	3.22
55779	7	Sololá	710	Panajachel	8	Panajachel	8	Agosto	2023-08-21T00:00:00	2024-11-08T05:00:00	1	Precipitación	0
55780	7	Sololá	710	Panajachel	8	Panajachel	8	Agosto	2023-08-21T00:00:00	2024-11-08T05:00:00	8	Radiación solar	0
55781	7	Sololá	710	Panajachel	8	Panajachel	8	Agosto	2023-08-21T00:00:00	2024-11-08T06:00:00	2	Temperatura media	19.7
55782	7	Sololá	710	Panajachel	8	Panajachel	8	Agosto	2023-08-21T00:00:00	2024-11-08T06:00:00	4	Temperatura máxima	20.3
55783	7	Sololá	710	Panajachel	8	Panajachel	8	Agosto	2023-08-21T00:00:00	2024-11-08T06:00:00	3	Temperatura mínima	19.6
55784	7	Sololá	710	Panajachel	8	Panajachel	8	Agosto	2023-08-21T00:00:00	2024-11-08T06:00:00	5	Humedad	72
55785	7	Sololá	710	Panajachel	8	Panajachel	8	Agosto	2023-08-21T00:00:00	2024-11-08T06:00:00	6	Velocidad del viento	0
55786	7	Sololá	710	Panajachel	8	Panajachel	8	Agosto	2023-08-21T00:00:00	2024-11-08T06:00:00	7	Dirección del viento	0
55787	7	Sololá	710	Panajachel	8	Panajachel	8	Agosto	2023-08-21T00:00:00	2024-11-08T06:00:00	1	Precipitación	0
55788	7	Sololá	710	Panajachel	8	Panajachel	8	Agosto	2023-08-21T00:00:00	2024-11-08T06:00:00	8	Radiación solar	0
55789	7	Sololá	710	Panajachel	8	Panajachel	8	Agosto	2023-08-21T00:00:00	2024-11-08T07:00:00	2	Temperatura media	19.2
55790	7	Sololá	710	Panajachel	8	Panajachel	8	Agosto	2023-08-21T00:00:00	2024-11-08T07:00:00	4	Temperatura máxima	19.6
55791	7	Sololá	710	Panajachel	8	Panajachel	8	Agosto	2023-08-21T00:00:00	2024-11-08T07:00:00	3	Temperatura mínima	19
55792	7	Sololá	710	Panajachel	8	Panajachel	8	Agosto	2023-08-21T00:00:00	2024-11-08T07:00:00	5	Humedad	76
55793	7	Sololá	710	Panajachel	8	Panajachel	8	Agosto	2023-08-21T00:00:00	2024-11-08T07:00:00	6	Velocidad del viento	0
55794	7	Sololá	710	Panajachel	8	Panajachel	8	Agosto	2023-08-21T00:00:00	2024-11-08T07:00:00	7	Dirección del viento	0
55795	7	Sololá	710	Panajachel	8	Panajachel	8	Agosto	2023-08-21T00:00:00	2024-11-08T07:00:00	1	Precipitación	0
55796	7	Sololá	710	Panajachel	8	Panajachel	8	Agosto	2023-08-21T00:00:00	2024-11-08T07:00:00	8	Radiación solar	32
55797	7	Sololá	710	Panajachel	8	Panajachel	8	Agosto	2023-08-21T00:00:00	2024-11-08T08:00:00	2	Temperatura media	20.7
55798	7	Sololá	710	Panajachel	8	Panajachel	8	Agosto	2023-08-21T00:00:00	2024-11-08T08:00:00	4	Temperatura máxima	20.7
55799	7	Sololá	710	Panajachel	8	Panajachel	8	Agosto	2023-08-21T00:00:00	2024-11-08T08:00:00	3	Temperatura mínima	19.1
55800	7	Sololá	710	Panajachel	8	Panajachel	8	Agosto	2023-08-21T00:00:00	2024-11-08T08:00:00	5	Humedad	73
55801	7	Sololá	710	Panajachel	8	Panajachel	8	Agosto	2023-08-21T00:00:00	2024-11-08T08:00:00	6	Velocidad del viento	0
55802	7	Sololá	710	Panajachel	8	Panajachel	8	Agosto	2023-08-21T00:00:00	2024-11-08T08:00:00	7	Dirección del viento	0
55803	7	Sololá	710	Panajachel	8	Panajachel	8	Agosto	2023-08-21T00:00:00	2024-11-08T08:00:00	1	Precipitación	0
55804	7	Sololá	710	Panajachel	8	Panajachel	8	Agosto	2023-08-21T00:00:00	2024-11-08T08:00:00	8	Radiación solar	146
55805	7	Sololá	710	Panajachel	8	Panajachel	8	Agosto	2023-08-21T00:00:00	2024-11-08T09:00:00	2	Temperatura media	21.8
55806	7	Sololá	710	Panajachel	8	Panajachel	8	Agosto	2023-08-21T00:00:00	2024-11-08T09:00:00	4	Temperatura máxima	21.8
55807	7	Sololá	710	Panajachel	8	Panajachel	8	Agosto	2023-08-21T00:00:00	2024-11-08T09:00:00	3	Temperatura mínima	20.7
55808	7	Sololá	710	Panajachel	8	Panajachel	8	Agosto	2023-08-21T00:00:00	2024-11-08T09:00:00	5	Humedad	70
55809	7	Sololá	710	Panajachel	8	Panajachel	8	Agosto	2023-08-21T00:00:00	2024-11-08T09:00:00	6	Velocidad del viento	0
55810	7	Sololá	710	Panajachel	8	Panajachel	8	Agosto	2023-08-21T00:00:00	2024-11-08T09:00:00	7	Dirección del viento	0
55811	7	Sololá	710	Panajachel	8	Panajachel	8	Agosto	2023-08-21T00:00:00	2024-11-08T09:00:00	1	Precipitación	0
55812	7	Sololá	710	Panajachel	8	Panajachel	8	Agosto	2023-08-21T00:00:00	2024-11-08T09:00:00	8	Radiación solar	288
55813	7	Sololá	710	Panajachel	8	Panajachel	8	Agosto	2023-08-21T00:00:00	2024-11-08T10:00:00	2	Temperatura media	22.6
55814	7	Sololá	710	Panajachel	8	Panajachel	8	Agosto	2023-08-21T00:00:00	2024-11-08T10:00:00	4	Temperatura máxima	22.8
55815	7	Sololá	710	Panajachel	8	Panajachel	8	Agosto	2023-08-21T00:00:00	2024-11-08T10:00:00	3	Temperatura mínima	21.8
55816	7	Sololá	710	Panajachel	8	Panajachel	8	Agosto	2023-08-21T00:00:00	2024-11-08T10:00:00	5	Humedad	70
55817	7	Sololá	710	Panajachel	8	Panajachel	8	Agosto	2023-08-21T00:00:00	2024-11-08T10:00:00	6	Velocidad del viento	0
55818	7	Sololá	710	Panajachel	8	Panajachel	8	Agosto	2023-08-21T00:00:00	2024-11-08T10:00:00	7	Dirección del viento	0
55819	7	Sololá	710	Panajachel	8	Panajachel	8	Agosto	2023-08-21T00:00:00	2024-11-08T10:00:00	1	Precipitación	0
55820	7	Sololá	710	Panajachel	8	Panajachel	8	Agosto	2023-08-21T00:00:00	2024-11-08T10:00:00	8	Radiación solar	477
55821	7	Sololá	710	Panajachel	8	Panajachel	8	Agosto	2023-08-21T00:00:00	2024-11-08T11:00:00	2	Temperatura media	22.9
55822	7	Sololá	710	Panajachel	8	Panajachel	8	Agosto	2023-08-21T00:00:00	2024-11-08T11:00:00	4	Temperatura máxima	23.4
55823	7	Sololá	710	Panajachel	8	Panajachel	8	Agosto	2023-08-21T00:00:00	2024-11-08T11:00:00	3	Temperatura mínima	22.5
55824	7	Sololá	710	Panajachel	8	Panajachel	8	Agosto	2023-08-21T00:00:00	2024-11-08T11:00:00	5	Humedad	71
55825	7	Sololá	710	Panajachel	8	Panajachel	8	Agosto	2023-08-21T00:00:00	2024-11-08T11:00:00	6	Velocidad del viento	0
55826	7	Sololá	710	Panajachel	8	Panajachel	8	Agosto	2023-08-21T00:00:00	2024-11-08T11:00:00	7	Dirección del viento	0
55827	7	Sololá	710	Panajachel	8	Panajachel	8	Agosto	2023-08-21T00:00:00	2024-11-08T11:00:00	1	Precipitación	0
55828	7	Sololá	710	Panajachel	8	Panajachel	8	Agosto	2023-08-21T00:00:00	2024-11-08T11:00:00	8	Radiación solar	599
55829	7	Sololá	710	Panajachel	8	Panajachel	8	Agosto	2023-08-21T00:00:00	2024-11-08T12:00:00	2	Temperatura media	24.2
55830	7	Sololá	710	Panajachel	8	Panajachel	8	Agosto	2023-08-21T00:00:00	2024-11-08T12:00:00	4	Temperatura máxima	24.2
55831	7	Sololá	710	Panajachel	8	Panajachel	8	Agosto	2023-08-21T00:00:00	2024-11-08T12:00:00	3	Temperatura mínima	22.8
55832	7	Sololá	710	Panajachel	8	Panajachel	8	Agosto	2023-08-21T00:00:00	2024-11-08T12:00:00	5	Humedad	65
55833	7	Sololá	710	Panajachel	8	Panajachel	8	Agosto	2023-08-21T00:00:00	2024-11-08T12:00:00	6	Velocidad del viento	1.6
55834	7	Sololá	710	Panajachel	8	Panajachel	8	Agosto	2023-08-21T00:00:00	2024-11-08T12:00:00	7	Dirección del viento	1.61
55835	7	Sololá	710	Panajachel	8	Panajachel	8	Agosto	2023-08-21T00:00:00	2024-11-08T12:00:00	1	Precipitación	0
55836	7	Sololá	710	Panajachel	8	Panajachel	8	Agosto	2023-08-21T00:00:00	2024-11-08T12:00:00	8	Radiación solar	512
55837	7	Sololá	710	Panajachel	8	Panajachel	8	Agosto	2023-08-21T00:00:00	2024-11-08T13:00:00	2	Temperatura media	23.4
55838	7	Sololá	710	Panajachel	8	Panajachel	8	Agosto	2023-08-21T00:00:00	2024-11-08T13:00:00	4	Temperatura máxima	24.3
55839	7	Sololá	710	Panajachel	8	Panajachel	8	Agosto	2023-08-21T00:00:00	2024-11-08T13:00:00	3	Temperatura mínima	23.4
55840	7	Sololá	710	Panajachel	8	Panajachel	8	Agosto	2023-08-21T00:00:00	2024-11-08T13:00:00	5	Humedad	81
55841	7	Sololá	710	Panajachel	8	Panajachel	8	Agosto	2023-08-21T00:00:00	2024-11-08T13:00:00	6	Velocidad del viento	3.2
55842	7	Sololá	710	Panajachel	8	Panajachel	8	Agosto	2023-08-21T00:00:00	2024-11-08T13:00:00	7	Dirección del viento	3.22
55843	7	Sololá	710	Panajachel	8	Panajachel	8	Agosto	2023-08-21T00:00:00	2024-11-08T13:00:00	1	Precipitación	0
55844	7	Sololá	710	Panajachel	8	Panajachel	8	Agosto	2023-08-21T00:00:00	2024-11-08T13:00:00	8	Radiación solar	456
55845	7	Sololá	710	Panajachel	8	Panajachel	8	Agosto	2023-08-21T00:00:00	2024-11-08T14:00:00	2	Temperatura media	24.4
55846	7	Sololá	710	Panajachel	8	Panajachel	8	Agosto	2023-08-21T00:00:00	2024-11-08T14:00:00	4	Temperatura máxima	24.4
55847	7	Sololá	710	Panajachel	8	Panajachel	8	Agosto	2023-08-21T00:00:00	2024-11-08T14:00:00	3	Temperatura mínima	23.2
55848	7	Sololá	710	Panajachel	8	Panajachel	8	Agosto	2023-08-21T00:00:00	2024-11-08T14:00:00	5	Humedad	78
55849	7	Sololá	710	Panajachel	8	Panajachel	8	Agosto	2023-08-21T00:00:00	2024-11-08T14:00:00	6	Velocidad del viento	1.6
55850	7	Sololá	710	Panajachel	8	Panajachel	8	Agosto	2023-08-21T00:00:00	2024-11-08T14:00:00	7	Dirección del viento	1.61
55851	7	Sololá	710	Panajachel	8	Panajachel	8	Agosto	2023-08-21T00:00:00	2024-11-08T14:00:00	1	Precipitación	0
55852	7	Sololá	710	Panajachel	8	Panajachel	8	Agosto	2023-08-21T00:00:00	2024-11-08T14:00:00	8	Radiación solar	464
55853	7	Sololá	710	Panajachel	8	Panajachel	8	Agosto	2023-08-21T00:00:00	2024-11-08T15:00:00	2	Temperatura media	23.4
55854	7	Sololá	710	Panajachel	8	Panajachel	8	Agosto	2023-08-21T00:00:00	2024-11-08T15:00:00	4	Temperatura máxima	24.6
55855	7	Sololá	710	Panajachel	8	Panajachel	8	Agosto	2023-08-21T00:00:00	2024-11-08T15:00:00	3	Temperatura mínima	23.4
55856	7	Sololá	710	Panajachel	8	Panajachel	8	Agosto	2023-08-21T00:00:00	2024-11-08T15:00:00	5	Humedad	81
55857	7	Sololá	710	Panajachel	8	Panajachel	8	Agosto	2023-08-21T00:00:00	2024-11-08T15:00:00	6	Velocidad del viento	1.6
55858	7	Sololá	710	Panajachel	8	Panajachel	8	Agosto	2023-08-21T00:00:00	2024-11-08T15:00:00	7	Dirección del viento	1.61
55859	7	Sololá	710	Panajachel	8	Panajachel	8	Agosto	2023-08-21T00:00:00	2024-11-08T15:00:00	1	Precipitación	0
55860	7	Sololá	710	Panajachel	8	Panajachel	8	Agosto	2023-08-21T00:00:00	2024-11-08T15:00:00	8	Radiación solar	424
55861	7	Sololá	710	Panajachel	8	Panajachel	8	Agosto	2023-08-21T00:00:00	2024-11-08T16:00:00	2	Temperatura media	21.3
55862	7	Sololá	710	Panajachel	8	Panajachel	8	Agosto	2023-08-21T00:00:00	2024-11-08T16:00:00	4	Temperatura máxima	23.4
55863	7	Sololá	710	Panajachel	8	Panajachel	8	Agosto	2023-08-21T00:00:00	2024-11-08T16:00:00	3	Temperatura mínima	21.3
55864	7	Sololá	710	Panajachel	8	Panajachel	8	Agosto	2023-08-21T00:00:00	2024-11-08T16:00:00	5	Humedad	90
55865	7	Sololá	710	Panajachel	8	Panajachel	8	Agosto	2023-08-21T00:00:00	2024-11-08T16:00:00	6	Velocidad del viento	4.8
55866	7	Sololá	710	Panajachel	8	Panajachel	8	Agosto	2023-08-21T00:00:00	2024-11-08T16:00:00	7	Dirección del viento	4.83
55867	7	Sololá	710	Panajachel	8	Panajachel	8	Agosto	2023-08-21T00:00:00	2024-11-08T16:00:00	1	Precipitación	0
55868	7	Sololá	710	Panajachel	8	Panajachel	8	Agosto	2023-08-21T00:00:00	2024-11-08T16:00:00	8	Radiación solar	142
55869	7	Sololá	710	Panajachel	8	Panajachel	8	Agosto	2023-08-21T00:00:00	2024-11-08T17:00:00	2	Temperatura media	19.9
55870	7	Sololá	710	Panajachel	8	Panajachel	8	Agosto	2023-08-21T00:00:00	2024-11-08T17:00:00	4	Temperatura máxima	21.3
55871	7	Sololá	710	Panajachel	8	Panajachel	8	Agosto	2023-08-21T00:00:00	2024-11-08T17:00:00	3	Temperatura mínima	19.9
55872	7	Sololá	710	Panajachel	8	Panajachel	8	Agosto	2023-08-21T00:00:00	2024-11-08T17:00:00	5	Humedad	92
55873	7	Sololá	710	Panajachel	8	Panajachel	8	Agosto	2023-08-21T00:00:00	2024-11-08T17:00:00	6	Velocidad del viento	3.2
55874	7	Sololá	710	Panajachel	8	Panajachel	8	Agosto	2023-08-21T00:00:00	2024-11-08T17:00:00	7	Dirección del viento	3.22
55875	7	Sololá	710	Panajachel	8	Panajachel	8	Agosto	2023-08-21T00:00:00	2024-11-08T17:00:00	1	Precipitación	3
55876	7	Sololá	710	Panajachel	8	Panajachel	8	Agosto	2023-08-21T00:00:00	2024-11-08T17:00:00	8	Radiación solar	4
55877	7	Sololá	710	Panajachel	8	Panajachel	8	Agosto	2023-08-21T00:00:00	2024-11-08T18:00:00	2	Temperatura media	19.6
55878	7	Sololá	710	Panajachel	8	Panajachel	8	Agosto	2023-08-21T00:00:00	2024-11-08T18:00:00	4	Temperatura máxima	19.9
55879	7	Sololá	710	Panajachel	8	Panajachel	8	Agosto	2023-08-21T00:00:00	2024-11-08T18:00:00	3	Temperatura mínima	19.5
55880	7	Sololá	710	Panajachel	8	Panajachel	8	Agosto	2023-08-21T00:00:00	2024-11-08T18:00:00	5	Humedad	92
55881	7	Sololá	710	Panajachel	8	Panajachel	8	Agosto	2023-08-21T00:00:00	2024-11-08T18:00:00	6	Velocidad del viento	1.6
55882	7	Sololá	710	Panajachel	8	Panajachel	8	Agosto	2023-08-21T00:00:00	2024-11-08T18:00:00	7	Dirección del viento	1.61
55883	7	Sololá	710	Panajachel	8	Panajachel	8	Agosto	2023-08-21T00:00:00	2024-11-08T18:00:00	1	Precipitación	0
55884	7	Sololá	710	Panajachel	8	Panajachel	8	Agosto	2023-08-21T00:00:00	2024-11-08T18:00:00	8	Radiación solar	6
55885	7	Sololá	710	Panajachel	8	Panajachel	8	Agosto	2023-08-21T00:00:00	2024-11-08T19:00:00	2	Temperatura media	19.2
55886	7	Sololá	710	Panajachel	8	Panajachel	8	Agosto	2023-08-21T00:00:00	2024-11-08T19:00:00	4	Temperatura máxima	19.7
55887	7	Sololá	710	Panajachel	8	Panajachel	8	Agosto	2023-08-21T00:00:00	2024-11-08T19:00:00	3	Temperatura mínima	19.2
55888	7	Sololá	710	Panajachel	8	Panajachel	8	Agosto	2023-08-21T00:00:00	2024-11-08T19:00:00	5	Humedad	94
55889	7	Sololá	710	Panajachel	8	Panajachel	8	Agosto	2023-08-21T00:00:00	2024-11-08T19:00:00	6	Velocidad del viento	0
55890	7	Sololá	710	Panajachel	8	Panajachel	8	Agosto	2023-08-21T00:00:00	2024-11-08T19:00:00	7	Dirección del viento	0
55891	7	Sololá	710	Panajachel	8	Panajachel	8	Agosto	2023-08-21T00:00:00	2024-11-08T19:00:00	1	Precipitación	0
55892	7	Sololá	710	Panajachel	8	Panajachel	8	Agosto	2023-08-21T00:00:00	2024-11-08T19:00:00	8	Radiación solar	0
55893	7	Sololá	710	Panajachel	8	Panajachel	8	Agosto	2023-08-21T00:00:00	2024-11-08T20:00:00	2	Temperatura media	19.2
55894	7	Sololá	710	Panajachel	8	Panajachel	8	Agosto	2023-08-21T00:00:00	2024-11-08T20:00:00	4	Temperatura máxima	19.3
55895	7	Sololá	710	Panajachel	8	Panajachel	8	Agosto	2023-08-21T00:00:00	2024-11-08T20:00:00	3	Temperatura mínima	19
55896	7	Sololá	710	Panajachel	8	Panajachel	8	Agosto	2023-08-21T00:00:00	2024-11-08T20:00:00	5	Humedad	94
55897	7	Sololá	710	Panajachel	8	Panajachel	8	Agosto	2023-08-21T00:00:00	2024-11-08T20:00:00	6	Velocidad del viento	0
55898	7	Sololá	710	Panajachel	8	Panajachel	8	Agosto	2023-08-21T00:00:00	2024-11-08T20:00:00	7	Dirección del viento	0
55899	7	Sololá	710	Panajachel	8	Panajachel	8	Agosto	2023-08-21T00:00:00	2024-11-08T20:00:00	1	Precipitación	0
55900	7	Sololá	710	Panajachel	8	Panajachel	8	Agosto	2023-08-21T00:00:00	2024-11-08T20:00:00	8	Radiación solar	0
55901	7	Sololá	710	Panajachel	8	Panajachel	8	Agosto	2023-08-21T00:00:00	2024-11-08T21:00:00	2	Temperatura media	18.8
55902	7	Sololá	710	Panajachel	8	Panajachel	8	Agosto	2023-08-21T00:00:00	2024-11-08T21:00:00	4	Temperatura máxima	19.2
55903	7	Sololá	710	Panajachel	8	Panajachel	8	Agosto	2023-08-21T00:00:00	2024-11-08T21:00:00	3	Temperatura mínima	18.8
55904	7	Sololá	710	Panajachel	8	Panajachel	8	Agosto	2023-08-21T00:00:00	2024-11-08T21:00:00	5	Humedad	91
55905	7	Sololá	710	Panajachel	8	Panajachel	8	Agosto	2023-08-21T00:00:00	2024-11-08T21:00:00	6	Velocidad del viento	0
55906	7	Sololá	710	Panajachel	8	Panajachel	8	Agosto	2023-08-21T00:00:00	2024-11-08T21:00:00	7	Dirección del viento	0
55907	7	Sololá	710	Panajachel	8	Panajachel	8	Agosto	2023-08-21T00:00:00	2024-11-08T21:00:00	1	Precipitación	0
55908	7	Sololá	710	Panajachel	8	Panajachel	8	Agosto	2023-08-21T00:00:00	2024-11-08T21:00:00	8	Radiación solar	0
55909	7	Sololá	710	Panajachel	8	Panajachel	8	Agosto	2023-08-21T00:00:00	2024-11-08T22:00:00	2	Temperatura media	18.7
55910	7	Sololá	710	Panajachel	8	Panajachel	8	Agosto	2023-08-21T00:00:00	2024-11-08T22:00:00	4	Temperatura máxima	18.9
55911	7	Sololá	710	Panajachel	8	Panajachel	8	Agosto	2023-08-21T00:00:00	2024-11-08T22:00:00	3	Temperatura mínima	18.4
55912	7	Sololá	710	Panajachel	8	Panajachel	8	Agosto	2023-08-21T00:00:00	2024-11-08T22:00:00	5	Humedad	90
55913	7	Sololá	710	Panajachel	8	Panajachel	8	Agosto	2023-08-21T00:00:00	2024-11-08T22:00:00	6	Velocidad del viento	0
55914	7	Sololá	710	Panajachel	8	Panajachel	8	Agosto	2023-08-21T00:00:00	2024-11-08T22:00:00	7	Dirección del viento	0
55915	7	Sololá	710	Panajachel	8	Panajachel	8	Agosto	2023-08-21T00:00:00	2024-11-08T22:00:00	1	Precipitación	0
55916	7	Sololá	710	Panajachel	8	Panajachel	8	Agosto	2023-08-21T00:00:00	2024-11-08T22:00:00	8	Radiación solar	0
55917	7	Sololá	710	Panajachel	8	Panajachel	8	Agosto	2023-08-21T00:00:00	2024-11-08T23:00:00	2	Temperatura media	18.3
55918	7	Sololá	710	Panajachel	8	Panajachel	8	Agosto	2023-08-21T00:00:00	2024-11-08T23:00:00	4	Temperatura máxima	18.7
55919	7	Sololá	710	Panajachel	8	Panajachel	8	Agosto	2023-08-21T00:00:00	2024-11-08T23:00:00	3	Temperatura mínima	18.2
55920	7	Sololá	710	Panajachel	8	Panajachel	8	Agosto	2023-08-21T00:00:00	2024-11-08T23:00:00	5	Humedad	89
55921	7	Sololá	710	Panajachel	8	Panajachel	8	Agosto	2023-08-21T00:00:00	2024-11-08T23:00:00	6	Velocidad del viento	1.6
55922	7	Sololá	710	Panajachel	8	Panajachel	8	Agosto	2023-08-21T00:00:00	2024-11-08T23:00:00	7	Dirección del viento	1.61
55923	7	Sololá	710	Panajachel	8	Panajachel	8	Agosto	2023-08-21T00:00:00	2024-11-08T23:00:00	1	Precipitación	0
55924	7	Sololá	710	Panajachel	8	Panajachel	8	Agosto	2023-08-21T00:00:00	2024-11-08T23:00:00	8	Radiación solar	0
55925	7	Sololá	710	Panajachel	8	Panajachel	8	Agosto	2023-08-22T00:00:00	2024-11-08T00:00:00	2	Temperatura media	18.3
55926	7	Sololá	710	Panajachel	8	Panajachel	8	Agosto	2023-08-22T00:00:00	2024-11-08T00:00:00	4	Temperatura máxima	18.3
55927	7	Sololá	710	Panajachel	8	Panajachel	8	Agosto	2023-08-22T00:00:00	2024-11-08T00:00:00	3	Temperatura mínima	17.9
55928	7	Sololá	710	Panajachel	8	Panajachel	8	Agosto	2023-08-22T00:00:00	2024-11-08T00:00:00	5	Humedad	88
55929	7	Sololá	710	Panajachel	8	Panajachel	8	Agosto	2023-08-22T00:00:00	2024-11-08T00:00:00	6	Velocidad del viento	1.6
55930	7	Sololá	710	Panajachel	8	Panajachel	8	Agosto	2023-08-22T00:00:00	2024-11-08T00:00:00	7	Dirección del viento	1.61
55931	7	Sololá	710	Panajachel	8	Panajachel	8	Agosto	2023-08-22T00:00:00	2024-11-08T00:00:00	1	Precipitación	0
55932	7	Sololá	710	Panajachel	8	Panajachel	8	Agosto	2023-08-22T00:00:00	2024-11-08T00:00:00	8	Radiación solar	0
55933	7	Sololá	710	Panajachel	8	Panajachel	8	Agosto	2023-08-22T00:00:00	2024-11-08T01:00:00	2	Temperatura media	18.9
55934	7	Sololá	710	Panajachel	8	Panajachel	8	Agosto	2023-08-22T00:00:00	2024-11-08T01:00:00	4	Temperatura máxima	19.1
55935	7	Sololá	710	Panajachel	8	Panajachel	8	Agosto	2023-08-22T00:00:00	2024-11-08T01:00:00	3	Temperatura mínima	18.3
55936	7	Sololá	710	Panajachel	8	Panajachel	8	Agosto	2023-08-22T00:00:00	2024-11-08T01:00:00	5	Humedad	85
55937	7	Sololá	710	Panajachel	8	Panajachel	8	Agosto	2023-08-22T00:00:00	2024-11-08T01:00:00	6	Velocidad del viento	1.6
55938	7	Sololá	710	Panajachel	8	Panajachel	8	Agosto	2023-08-22T00:00:00	2024-11-08T01:00:00	7	Dirección del viento	1.61
55939	7	Sololá	710	Panajachel	8	Panajachel	8	Agosto	2023-08-22T00:00:00	2024-11-08T01:00:00	1	Precipitación	0
55940	7	Sololá	710	Panajachel	8	Panajachel	8	Agosto	2023-08-22T00:00:00	2024-11-08T01:00:00	8	Radiación solar	0
55941	7	Sololá	710	Panajachel	8	Panajachel	8	Agosto	2023-08-22T00:00:00	2024-11-08T02:00:00	2	Temperatura media	19.7
55942	7	Sololá	710	Panajachel	8	Panajachel	8	Agosto	2023-08-22T00:00:00	2024-11-08T02:00:00	4	Temperatura máxima	20.5
55943	7	Sololá	710	Panajachel	8	Panajachel	8	Agosto	2023-08-22T00:00:00	2024-11-08T02:00:00	3	Temperatura mínima	18.8
55944	7	Sololá	710	Panajachel	8	Panajachel	8	Agosto	2023-08-22T00:00:00	2024-11-08T02:00:00	5	Humedad	79
55945	7	Sololá	710	Panajachel	8	Panajachel	8	Agosto	2023-08-22T00:00:00	2024-11-08T02:00:00	6	Velocidad del viento	3.2
55946	7	Sololá	710	Panajachel	8	Panajachel	8	Agosto	2023-08-22T00:00:00	2024-11-08T02:00:00	7	Dirección del viento	3.22
55947	7	Sololá	710	Panajachel	8	Panajachel	8	Agosto	2023-08-22T00:00:00	2024-11-08T02:00:00	1	Precipitación	0
55948	7	Sololá	710	Panajachel	8	Panajachel	8	Agosto	2023-08-22T00:00:00	2024-11-08T02:00:00	8	Radiación solar	0
55949	7	Sololá	710	Panajachel	8	Panajachel	8	Agosto	2023-08-22T00:00:00	2024-11-08T03:00:00	2	Temperatura media	19.9
55950	7	Sololá	710	Panajachel	8	Panajachel	8	Agosto	2023-08-22T00:00:00	2024-11-08T03:00:00	4	Temperatura máxima	19.9
55951	7	Sololá	710	Panajachel	8	Panajachel	8	Agosto	2023-08-22T00:00:00	2024-11-08T03:00:00	3	Temperatura mínima	18.1
55952	7	Sololá	710	Panajachel	8	Panajachel	8	Agosto	2023-08-22T00:00:00	2024-11-08T03:00:00	5	Humedad	73
55953	7	Sololá	710	Panajachel	8	Panajachel	8	Agosto	2023-08-22T00:00:00	2024-11-08T03:00:00	6	Velocidad del viento	3.2
55954	7	Sololá	710	Panajachel	8	Panajachel	8	Agosto	2023-08-22T00:00:00	2024-11-08T03:00:00	7	Dirección del viento	3.22
55955	7	Sololá	710	Panajachel	8	Panajachel	8	Agosto	2023-08-22T00:00:00	2024-11-08T03:00:00	1	Precipitación	0
55956	7	Sololá	710	Panajachel	8	Panajachel	8	Agosto	2023-08-22T00:00:00	2024-11-08T03:00:00	8	Radiación solar	0
55957	7	Sololá	710	Panajachel	8	Panajachel	8	Agosto	2023-08-22T00:00:00	2024-11-08T04:00:00	2	Temperatura media	19.6
55958	7	Sololá	710	Panajachel	8	Panajachel	8	Agosto	2023-08-22T00:00:00	2024-11-08T04:00:00	4	Temperatura máxima	20.2
55959	7	Sololá	710	Panajachel	8	Panajachel	8	Agosto	2023-08-22T00:00:00	2024-11-08T04:00:00	3	Temperatura mínima	19.6
55960	7	Sololá	710	Panajachel	8	Panajachel	8	Agosto	2023-08-22T00:00:00	2024-11-08T04:00:00	5	Humedad	72
55961	7	Sololá	710	Panajachel	8	Panajachel	8	Agosto	2023-08-22T00:00:00	2024-11-08T04:00:00	6	Velocidad del viento	6.4
55962	7	Sololá	710	Panajachel	8	Panajachel	8	Agosto	2023-08-22T00:00:00	2024-11-08T04:00:00	7	Dirección del viento	6.44
55963	7	Sololá	710	Panajachel	8	Panajachel	8	Agosto	2023-08-22T00:00:00	2024-11-08T04:00:00	1	Precipitación	0
55964	7	Sololá	710	Panajachel	8	Panajachel	8	Agosto	2023-08-22T00:00:00	2024-11-08T04:00:00	8	Radiación solar	0
55965	7	Sololá	710	Panajachel	8	Panajachel	8	Agosto	2023-08-22T00:00:00	2024-11-08T05:00:00	2	Temperatura media	18.6
55966	7	Sololá	710	Panajachel	8	Panajachel	8	Agosto	2023-08-22T00:00:00	2024-11-08T05:00:00	4	Temperatura máxima	19.9
55967	7	Sololá	710	Panajachel	8	Panajachel	8	Agosto	2023-08-22T00:00:00	2024-11-08T05:00:00	3	Temperatura mínima	18.6
55968	7	Sololá	710	Panajachel	8	Panajachel	8	Agosto	2023-08-22T00:00:00	2024-11-08T05:00:00	5	Humedad	77
55969	7	Sololá	710	Panajachel	8	Panajachel	8	Agosto	2023-08-22T00:00:00	2024-11-08T05:00:00	6	Velocidad del viento	3.2
55970	7	Sololá	710	Panajachel	8	Panajachel	8	Agosto	2023-08-22T00:00:00	2024-11-08T05:00:00	7	Dirección del viento	3.22
55971	7	Sololá	710	Panajachel	8	Panajachel	8	Agosto	2023-08-22T00:00:00	2024-11-08T05:00:00	1	Precipitación	0
55972	7	Sololá	710	Panajachel	8	Panajachel	8	Agosto	2023-08-22T00:00:00	2024-11-08T05:00:00	8	Radiación solar	0
55973	7	Sololá	710	Panajachel	8	Panajachel	8	Agosto	2023-08-22T00:00:00	2024-11-08T06:00:00	2	Temperatura media	17.8
55974	7	Sololá	710	Panajachel	8	Panajachel	8	Agosto	2023-08-22T00:00:00	2024-11-08T06:00:00	4	Temperatura máxima	18.6
55975	7	Sololá	710	Panajachel	8	Panajachel	8	Agosto	2023-08-22T00:00:00	2024-11-08T06:00:00	3	Temperatura mínima	17.8
55976	7	Sololá	710	Panajachel	8	Panajachel	8	Agosto	2023-08-22T00:00:00	2024-11-08T06:00:00	5	Humedad	80
55977	7	Sololá	710	Panajachel	8	Panajachel	8	Agosto	2023-08-22T00:00:00	2024-11-08T06:00:00	6	Velocidad del viento	1.6
55978	7	Sololá	710	Panajachel	8	Panajachel	8	Agosto	2023-08-22T00:00:00	2024-11-08T06:00:00	7	Dirección del viento	1.61
55979	7	Sololá	710	Panajachel	8	Panajachel	8	Agosto	2023-08-22T00:00:00	2024-11-08T06:00:00	1	Precipitación	0
55980	7	Sololá	710	Panajachel	8	Panajachel	8	Agosto	2023-08-22T00:00:00	2024-11-08T06:00:00	8	Radiación solar	0
55981	7	Sololá	710	Panajachel	8	Panajachel	8	Agosto	2023-08-22T00:00:00	2024-11-08T07:00:00	2	Temperatura media	18.6
55982	7	Sololá	710	Panajachel	8	Panajachel	8	Agosto	2023-08-22T00:00:00	2024-11-08T07:00:00	4	Temperatura máxima	18.6
55983	7	Sololá	710	Panajachel	8	Panajachel	8	Agosto	2023-08-22T00:00:00	2024-11-08T07:00:00	3	Temperatura mínima	17.3
55984	7	Sololá	710	Panajachel	8	Panajachel	8	Agosto	2023-08-22T00:00:00	2024-11-08T07:00:00	5	Humedad	78
55985	7	Sololá	710	Panajachel	8	Panajachel	8	Agosto	2023-08-22T00:00:00	2024-11-08T07:00:00	6	Velocidad del viento	1.6
55986	7	Sololá	710	Panajachel	8	Panajachel	8	Agosto	2023-08-22T00:00:00	2024-11-08T07:00:00	7	Dirección del viento	1.61
55987	7	Sololá	710	Panajachel	8	Panajachel	8	Agosto	2023-08-22T00:00:00	2024-11-08T07:00:00	1	Precipitación	0
55988	7	Sololá	710	Panajachel	8	Panajachel	8	Agosto	2023-08-22T00:00:00	2024-11-08T07:00:00	8	Radiación solar	71
55989	7	Sololá	710	Panajachel	8	Panajachel	8	Agosto	2023-08-22T00:00:00	2024-11-08T08:00:00	2	Temperatura media	21.7
55990	7	Sololá	710	Panajachel	8	Panajachel	8	Agosto	2023-08-22T00:00:00	2024-11-08T08:00:00	4	Temperatura máxima	21.7
55991	7	Sololá	710	Panajachel	8	Panajachel	8	Agosto	2023-08-22T00:00:00	2024-11-08T08:00:00	3	Temperatura mínima	18.6
55992	7	Sololá	710	Panajachel	8	Panajachel	8	Agosto	2023-08-22T00:00:00	2024-11-08T08:00:00	5	Humedad	69
55993	7	Sololá	710	Panajachel	8	Panajachel	8	Agosto	2023-08-22T00:00:00	2024-11-08T08:00:00	6	Velocidad del viento	0
55994	7	Sololá	710	Panajachel	8	Panajachel	8	Agosto	2023-08-22T00:00:00	2024-11-08T08:00:00	7	Dirección del viento	0
55995	7	Sololá	710	Panajachel	8	Panajachel	8	Agosto	2023-08-22T00:00:00	2024-11-08T08:00:00	1	Precipitación	0
55996	7	Sololá	710	Panajachel	8	Panajachel	8	Agosto	2023-08-22T00:00:00	2024-11-08T08:00:00	8	Radiación solar	314
55997	7	Sololá	710	Panajachel	8	Panajachel	8	Agosto	2023-08-22T00:00:00	2024-11-08T09:00:00	2	Temperatura media	22.9
55998	7	Sololá	710	Panajachel	8	Panajachel	8	Agosto	2023-08-22T00:00:00	2024-11-08T09:00:00	4	Temperatura máxima	23.2
55999	7	Sololá	710	Panajachel	8	Panajachel	8	Agosto	2023-08-22T00:00:00	2024-11-08T09:00:00	3	Temperatura mínima	21.6
56000	7	Sololá	710	Panajachel	8	Panajachel	8	Agosto	2023-08-22T00:00:00	2024-11-08T09:00:00	5	Humedad	69
56001	7	Sololá	710	Panajachel	8	Panajachel	8	Agosto	2023-08-22T00:00:00	2024-11-08T09:00:00	6	Velocidad del viento	3.2
56002	7	Sololá	710	Panajachel	8	Panajachel	8	Agosto	2023-08-22T00:00:00	2024-11-08T09:00:00	7	Dirección del viento	3.22
56003	7	Sololá	710	Panajachel	8	Panajachel	8	Agosto	2023-08-22T00:00:00	2024-11-08T09:00:00	1	Precipitación	0
56004	7	Sololá	710	Panajachel	8	Panajachel	8	Agosto	2023-08-22T00:00:00	2024-11-08T09:00:00	8	Radiación solar	467
56005	7	Sololá	710	Panajachel	8	Panajachel	8	Agosto	2023-08-22T00:00:00	2024-11-08T10:00:00	2	Temperatura media	22.7
56006	7	Sololá	710	Panajachel	8	Panajachel	8	Agosto	2023-08-22T00:00:00	2024-11-08T10:00:00	4	Temperatura máxima	23.9
56007	7	Sololá	710	Panajachel	8	Panajachel	8	Agosto	2023-08-22T00:00:00	2024-11-08T10:00:00	3	Temperatura mínima	22.7
56008	7	Sololá	710	Panajachel	8	Panajachel	8	Agosto	2023-08-22T00:00:00	2024-11-08T10:00:00	5	Humedad	71
56009	7	Sololá	710	Panajachel	8	Panajachel	8	Agosto	2023-08-22T00:00:00	2024-11-08T10:00:00	6	Velocidad del viento	4.8
56010	7	Sololá	710	Panajachel	8	Panajachel	8	Agosto	2023-08-22T00:00:00	2024-11-08T10:00:00	7	Dirección del viento	4.83
56011	7	Sololá	710	Panajachel	8	Panajachel	8	Agosto	2023-08-22T00:00:00	2024-11-08T10:00:00	1	Precipitación	0
56012	7	Sololá	710	Panajachel	8	Panajachel	8	Agosto	2023-08-22T00:00:00	2024-11-08T10:00:00	8	Radiación solar	769
56013	7	Sololá	710	Panajachel	8	Panajachel	8	Agosto	2023-08-22T00:00:00	2024-11-08T11:00:00	2	Temperatura media	24.3
56014	7	Sololá	710	Panajachel	8	Panajachel	8	Agosto	2023-08-22T00:00:00	2024-11-08T11:00:00	4	Temperatura máxima	24.3
56015	7	Sololá	710	Panajachel	8	Panajachel	8	Agosto	2023-08-22T00:00:00	2024-11-08T11:00:00	3	Temperatura mínima	22.6
56016	7	Sololá	710	Panajachel	8	Panajachel	8	Agosto	2023-08-22T00:00:00	2024-11-08T11:00:00	5	Humedad	73
56017	7	Sololá	710	Panajachel	8	Panajachel	8	Agosto	2023-08-22T00:00:00	2024-11-08T11:00:00	6	Velocidad del viento	1.6
56018	7	Sololá	710	Panajachel	8	Panajachel	8	Agosto	2023-08-22T00:00:00	2024-11-08T11:00:00	7	Dirección del viento	1.61
56019	7	Sololá	710	Panajachel	8	Panajachel	8	Agosto	2023-08-22T00:00:00	2024-11-08T11:00:00	1	Precipitación	0
56020	7	Sololá	710	Panajachel	8	Panajachel	8	Agosto	2023-08-22T00:00:00	2024-11-08T11:00:00	8	Radiación solar	901
56021	7	Sololá	710	Panajachel	8	Panajachel	8	Agosto	2023-08-22T00:00:00	2024-11-08T12:00:00	2	Temperatura media	24.2
56022	7	Sololá	710	Panajachel	8	Panajachel	8	Agosto	2023-08-22T00:00:00	2024-11-08T12:00:00	4	Temperatura máxima	24.6
56023	7	Sololá	710	Panajachel	8	Panajachel	8	Agosto	2023-08-22T00:00:00	2024-11-08T12:00:00	3	Temperatura mínima	23.8
56024	7	Sololá	710	Panajachel	8	Panajachel	8	Agosto	2023-08-22T00:00:00	2024-11-08T12:00:00	5	Humedad	70
56025	7	Sololá	710	Panajachel	8	Panajachel	8	Agosto	2023-08-22T00:00:00	2024-11-08T12:00:00	6	Velocidad del viento	0
56026	7	Sololá	710	Panajachel	8	Panajachel	8	Agosto	2023-08-22T00:00:00	2024-11-08T12:00:00	7	Dirección del viento	0
56027	7	Sololá	710	Panajachel	8	Panajachel	8	Agosto	2023-08-22T00:00:00	2024-11-08T12:00:00	1	Precipitación	0
56028	7	Sololá	710	Panajachel	8	Panajachel	8	Agosto	2023-08-22T00:00:00	2024-11-08T12:00:00	8	Radiación solar	805
56029	7	Sololá	710	Panajachel	8	Panajachel	8	Agosto	2023-08-22T00:00:00	2024-11-08T13:00:00	2	Temperatura media	23.8
56030	7	Sololá	710	Panajachel	8	Panajachel	8	Agosto	2023-08-22T00:00:00	2024-11-08T13:00:00	4	Temperatura máxima	24.7
56031	7	Sololá	710	Panajachel	8	Panajachel	8	Agosto	2023-08-22T00:00:00	2024-11-08T13:00:00	3	Temperatura mínima	23.6
56032	7	Sololá	710	Panajachel	8	Panajachel	8	Agosto	2023-08-22T00:00:00	2024-11-08T13:00:00	5	Humedad	74
56033	7	Sololá	710	Panajachel	8	Panajachel	8	Agosto	2023-08-22T00:00:00	2024-11-08T13:00:00	6	Velocidad del viento	0
56034	7	Sololá	710	Panajachel	8	Panajachel	8	Agosto	2023-08-22T00:00:00	2024-11-08T13:00:00	7	Dirección del viento	0
56035	7	Sololá	710	Panajachel	8	Panajachel	8	Agosto	2023-08-22T00:00:00	2024-11-08T13:00:00	1	Precipitación	0
56036	7	Sololá	710	Panajachel	8	Panajachel	8	Agosto	2023-08-22T00:00:00	2024-11-08T13:00:00	8	Radiación solar	313
56037	7	Sololá	710	Panajachel	8	Panajachel	8	Agosto	2023-08-22T00:00:00	2024-11-08T14:00:00	2	Temperatura media	23
56038	7	Sololá	710	Panajachel	8	Panajachel	8	Agosto	2023-08-22T00:00:00	2024-11-08T14:00:00	4	Temperatura máxima	24
56039	7	Sololá	710	Panajachel	8	Panajachel	8	Agosto	2023-08-22T00:00:00	2024-11-08T14:00:00	3	Temperatura mínima	22.8
56040	7	Sololá	710	Panajachel	8	Panajachel	8	Agosto	2023-08-22T00:00:00	2024-11-08T14:00:00	5	Humedad	78
56041	7	Sololá	710	Panajachel	8	Panajachel	8	Agosto	2023-08-22T00:00:00	2024-11-08T14:00:00	6	Velocidad del viento	3.2
56042	7	Sololá	710	Panajachel	8	Panajachel	8	Agosto	2023-08-22T00:00:00	2024-11-08T14:00:00	7	Dirección del viento	3.22
56043	7	Sololá	710	Panajachel	8	Panajachel	8	Agosto	2023-08-22T00:00:00	2024-11-08T14:00:00	1	Precipitación	0
56044	7	Sololá	710	Panajachel	8	Panajachel	8	Agosto	2023-08-22T00:00:00	2024-11-08T14:00:00	8	Radiación solar	344
56045	7	Sololá	710	Panajachel	8	Panajachel	8	Agosto	2023-08-22T00:00:00	2024-11-08T15:00:00	2	Temperatura media	23.7
56046	7	Sololá	710	Panajachel	8	Panajachel	8	Agosto	2023-08-22T00:00:00	2024-11-08T15:00:00	4	Temperatura máxima	24.2
56047	7	Sololá	710	Panajachel	8	Panajachel	8	Agosto	2023-08-22T00:00:00	2024-11-08T15:00:00	3	Temperatura mínima	22.8
56048	7	Sololá	710	Panajachel	8	Panajachel	8	Agosto	2023-08-22T00:00:00	2024-11-08T15:00:00	5	Humedad	80
56049	7	Sololá	710	Panajachel	8	Panajachel	8	Agosto	2023-08-22T00:00:00	2024-11-08T15:00:00	6	Velocidad del viento	4.8
56050	7	Sololá	710	Panajachel	8	Panajachel	8	Agosto	2023-08-22T00:00:00	2024-11-08T15:00:00	7	Dirección del viento	4.83
56051	7	Sololá	710	Panajachel	8	Panajachel	8	Agosto	2023-08-22T00:00:00	2024-11-08T15:00:00	1	Precipitación	0
56052	7	Sololá	710	Panajachel	8	Panajachel	8	Agosto	2023-08-22T00:00:00	2024-11-08T15:00:00	8	Radiación solar	488
56053	7	Sololá	710	Panajachel	8	Panajachel	8	Agosto	2023-08-22T00:00:00	2024-11-08T16:00:00	2	Temperatura media	23.2
56054	7	Sololá	710	Panajachel	8	Panajachel	8	Agosto	2023-08-22T00:00:00	2024-11-08T16:00:00	4	Temperatura máxima	23.7
56055	7	Sololá	710	Panajachel	8	Panajachel	8	Agosto	2023-08-22T00:00:00	2024-11-08T16:00:00	3	Temperatura mínima	22.9
56056	7	Sololá	710	Panajachel	8	Panajachel	8	Agosto	2023-08-22T00:00:00	2024-11-08T16:00:00	5	Humedad	80
56057	7	Sololá	710	Panajachel	8	Panajachel	8	Agosto	2023-08-22T00:00:00	2024-11-08T16:00:00	6	Velocidad del viento	0
56058	7	Sololá	710	Panajachel	8	Panajachel	8	Agosto	2023-08-22T00:00:00	2024-11-08T16:00:00	7	Dirección del viento	0
56059	7	Sololá	710	Panajachel	8	Panajachel	8	Agosto	2023-08-22T00:00:00	2024-11-08T16:00:00	1	Precipitación	0
56060	7	Sololá	710	Panajachel	8	Panajachel	8	Agosto	2023-08-22T00:00:00	2024-11-08T16:00:00	8	Radiación solar	174
56061	7	Sololá	710	Panajachel	8	Panajachel	8	Agosto	2023-08-22T00:00:00	2024-11-08T17:00:00	2	Temperatura media	22.6
56062	7	Sololá	710	Panajachel	8	Panajachel	8	Agosto	2023-08-22T00:00:00	2024-11-08T17:00:00	4	Temperatura máxima	23.2
56063	7	Sololá	710	Panajachel	8	Panajachel	8	Agosto	2023-08-22T00:00:00	2024-11-08T17:00:00	3	Temperatura mínima	22.6
56064	7	Sololá	710	Panajachel	8	Panajachel	8	Agosto	2023-08-22T00:00:00	2024-11-08T17:00:00	5	Humedad	81
56065	7	Sololá	710	Panajachel	8	Panajachel	8	Agosto	2023-08-22T00:00:00	2024-11-08T17:00:00	6	Velocidad del viento	1.6
56066	7	Sololá	710	Panajachel	8	Panajachel	8	Agosto	2023-08-22T00:00:00	2024-11-08T17:00:00	7	Dirección del viento	1.61
56067	7	Sololá	710	Panajachel	8	Panajachel	8	Agosto	2023-08-22T00:00:00	2024-11-08T17:00:00	1	Precipitación	0
56068	7	Sololá	710	Panajachel	8	Panajachel	8	Agosto	2023-08-22T00:00:00	2024-11-08T17:00:00	8	Radiación solar	114
56069	7	Sololá	710	Panajachel	8	Panajachel	8	Agosto	2023-08-22T00:00:00	2024-11-08T18:00:00	2	Temperatura media	22.4
56070	7	Sololá	710	Panajachel	8	Panajachel	8	Agosto	2023-08-22T00:00:00	2024-11-08T18:00:00	4	Temperatura máxima	22.6
56071	7	Sololá	710	Panajachel	8	Panajachel	8	Agosto	2023-08-22T00:00:00	2024-11-08T18:00:00	3	Temperatura mínima	22.3
56072	7	Sololá	710	Panajachel	8	Panajachel	8	Agosto	2023-08-22T00:00:00	2024-11-08T18:00:00	5	Humedad	80
56073	7	Sololá	710	Panajachel	8	Panajachel	8	Agosto	2023-08-22T00:00:00	2024-11-08T18:00:00	6	Velocidad del viento	0
56074	7	Sololá	710	Panajachel	8	Panajachel	8	Agosto	2023-08-22T00:00:00	2024-11-08T18:00:00	7	Dirección del viento	0
56075	7	Sololá	710	Panajachel	8	Panajachel	8	Agosto	2023-08-22T00:00:00	2024-11-08T18:00:00	1	Precipitación	0
56076	7	Sololá	710	Panajachel	8	Panajachel	8	Agosto	2023-08-22T00:00:00	2024-11-08T18:00:00	8	Radiación solar	56
56077	7	Sololá	710	Panajachel	8	Panajachel	8	Agosto	2023-08-22T00:00:00	2024-11-08T19:00:00	2	Temperatura media	21.1
56078	7	Sololá	710	Panajachel	8	Panajachel	8	Agosto	2023-08-22T00:00:00	2024-11-08T19:00:00	4	Temperatura máxima	22.4
56079	7	Sololá	710	Panajachel	8	Panajachel	8	Agosto	2023-08-22T00:00:00	2024-11-08T19:00:00	3	Temperatura mínima	21.1
56080	7	Sololá	710	Panajachel	8	Panajachel	8	Agosto	2023-08-22T00:00:00	2024-11-08T19:00:00	5	Humedad	85
56081	7	Sololá	710	Panajachel	8	Panajachel	8	Agosto	2023-08-22T00:00:00	2024-11-08T19:00:00	6	Velocidad del viento	0
56082	7	Sololá	710	Panajachel	8	Panajachel	8	Agosto	2023-08-22T00:00:00	2024-11-08T19:00:00	7	Dirección del viento	0
56083	7	Sololá	710	Panajachel	8	Panajachel	8	Agosto	2023-08-22T00:00:00	2024-11-08T19:00:00	1	Precipitación	0
56084	7	Sololá	710	Panajachel	8	Panajachel	8	Agosto	2023-08-22T00:00:00	2024-11-08T19:00:00	8	Radiación solar	0
56085	7	Sololá	710	Panajachel	8	Panajachel	8	Agosto	2023-08-22T00:00:00	2024-11-08T20:00:00	2	Temperatura media	21.1
56086	7	Sololá	710	Panajachel	8	Panajachel	8	Agosto	2023-08-22T00:00:00	2024-11-08T20:00:00	4	Temperatura máxima	21.2
56087	7	Sololá	710	Panajachel	8	Panajachel	8	Agosto	2023-08-22T00:00:00	2024-11-08T20:00:00	3	Temperatura mínima	20.9
56088	7	Sololá	710	Panajachel	8	Panajachel	8	Agosto	2023-08-22T00:00:00	2024-11-08T20:00:00	5	Humedad	82
56089	7	Sololá	710	Panajachel	8	Panajachel	8	Agosto	2023-08-22T00:00:00	2024-11-08T20:00:00	6	Velocidad del viento	0
56090	7	Sololá	710	Panajachel	8	Panajachel	8	Agosto	2023-08-22T00:00:00	2024-11-08T20:00:00	7	Dirección del viento	0
56091	7	Sololá	710	Panajachel	8	Panajachel	8	Agosto	2023-08-22T00:00:00	2024-11-08T20:00:00	1	Precipitación	0
56092	7	Sololá	710	Panajachel	8	Panajachel	8	Agosto	2023-08-22T00:00:00	2024-11-08T20:00:00	8	Radiación solar	0
56093	7	Sololá	710	Panajachel	8	Panajachel	8	Agosto	2023-08-22T00:00:00	2024-11-08T21:00:00	2	Temperatura media	19.7
56094	7	Sololá	710	Panajachel	8	Panajachel	8	Agosto	2023-08-22T00:00:00	2024-11-08T21:00:00	4	Temperatura máxima	21.2
56095	7	Sololá	710	Panajachel	8	Panajachel	8	Agosto	2023-08-22T00:00:00	2024-11-08T21:00:00	3	Temperatura mínima	19.1
56096	7	Sololá	710	Panajachel	8	Panajachel	8	Agosto	2023-08-22T00:00:00	2024-11-08T21:00:00	5	Humedad	83
56097	7	Sololá	710	Panajachel	8	Panajachel	8	Agosto	2023-08-22T00:00:00	2024-11-08T21:00:00	6	Velocidad del viento	0
56098	7	Sololá	710	Panajachel	8	Panajachel	8	Agosto	2023-08-22T00:00:00	2024-11-08T21:00:00	7	Dirección del viento	0
56099	7	Sololá	710	Panajachel	8	Panajachel	8	Agosto	2023-08-22T00:00:00	2024-11-08T21:00:00	1	Precipitación	0.2
56100	7	Sololá	710	Panajachel	8	Panajachel	8	Agosto	2023-08-22T00:00:00	2024-11-08T21:00:00	8	Radiación solar	0
56101	7	Sololá	710	Panajachel	8	Panajachel	8	Agosto	2023-08-22T00:00:00	2024-11-08T22:00:00	2	Temperatura media	18.9
56102	7	Sololá	710	Panajachel	8	Panajachel	8	Agosto	2023-08-22T00:00:00	2024-11-08T22:00:00	4	Temperatura máxima	20.3
56103	7	Sololá	710	Panajachel	8	Panajachel	8	Agosto	2023-08-22T00:00:00	2024-11-08T22:00:00	3	Temperatura mínima	18.6
56104	7	Sololá	710	Panajachel	8	Panajachel	8	Agosto	2023-08-22T00:00:00	2024-11-08T22:00:00	5	Humedad	80
56105	7	Sololá	710	Panajachel	8	Panajachel	8	Agosto	2023-08-22T00:00:00	2024-11-08T22:00:00	6	Velocidad del viento	1.6
56106	7	Sololá	710	Panajachel	8	Panajachel	8	Agosto	2023-08-22T00:00:00	2024-11-08T22:00:00	7	Dirección del viento	1.61
56107	7	Sololá	710	Panajachel	8	Panajachel	8	Agosto	2023-08-22T00:00:00	2024-11-08T22:00:00	1	Precipitación	0
56108	7	Sololá	710	Panajachel	8	Panajachel	8	Agosto	2023-08-22T00:00:00	2024-11-08T22:00:00	8	Radiación solar	0
56109	7	Sololá	710	Panajachel	8	Panajachel	8	Agosto	2023-08-22T00:00:00	2024-11-08T23:00:00	2	Temperatura media	20.6
56110	7	Sololá	710	Panajachel	8	Panajachel	8	Agosto	2023-08-22T00:00:00	2024-11-08T23:00:00	4	Temperatura máxima	20.6
56111	7	Sololá	710	Panajachel	8	Panajachel	8	Agosto	2023-08-22T00:00:00	2024-11-08T23:00:00	3	Temperatura mínima	18.9
56112	7	Sololá	710	Panajachel	8	Panajachel	8	Agosto	2023-08-22T00:00:00	2024-11-08T23:00:00	5	Humedad	70
56113	7	Sololá	710	Panajachel	8	Panajachel	8	Agosto	2023-08-22T00:00:00	2024-11-08T23:00:00	6	Velocidad del viento	4.8
56114	7	Sololá	710	Panajachel	8	Panajachel	8	Agosto	2023-08-22T00:00:00	2024-11-08T23:00:00	7	Dirección del viento	4.83
56115	7	Sololá	710	Panajachel	8	Panajachel	8	Agosto	2023-08-22T00:00:00	2024-11-08T23:00:00	1	Precipitación	0
56116	7	Sololá	710	Panajachel	8	Panajachel	8	Agosto	2023-08-22T00:00:00	2024-11-08T23:00:00	8	Radiación solar	0
56117	7	Sololá	710	Panajachel	8	Panajachel	8	Agosto	2023-08-23T00:00:00	2024-11-08T00:00:00	2	Temperatura media	19.7
56118	7	Sololá	710	Panajachel	8	Panajachel	8	Agosto	2023-08-23T00:00:00	2024-11-08T00:00:00	4	Temperatura máxima	20.6
56119	7	Sololá	710	Panajachel	8	Panajachel	8	Agosto	2023-08-23T00:00:00	2024-11-08T00:00:00	3	Temperatura mínima	18.8
56120	7	Sololá	710	Panajachel	8	Panajachel	8	Agosto	2023-08-23T00:00:00	2024-11-08T00:00:00	5	Humedad	72
56121	7	Sololá	710	Panajachel	8	Panajachel	8	Agosto	2023-08-23T00:00:00	2024-11-08T00:00:00	6	Velocidad del viento	1.6
56122	7	Sololá	710	Panajachel	8	Panajachel	8	Agosto	2023-08-23T00:00:00	2024-11-08T00:00:00	7	Dirección del viento	1.61
56123	7	Sololá	710	Panajachel	8	Panajachel	8	Agosto	2023-08-23T00:00:00	2024-11-08T00:00:00	1	Precipitación	0
56124	7	Sololá	710	Panajachel	8	Panajachel	8	Agosto	2023-08-23T00:00:00	2024-11-08T00:00:00	8	Radiación solar	0
56125	7	Sololá	710	Panajachel	8	Panajachel	8	Agosto	2023-08-23T00:00:00	2024-11-08T01:00:00	2	Temperatura media	19.9
56126	7	Sololá	710	Panajachel	8	Panajachel	8	Agosto	2023-08-23T00:00:00	2024-11-08T01:00:00	4	Temperatura máxima	20.3
56127	7	Sololá	710	Panajachel	8	Panajachel	8	Agosto	2023-08-23T00:00:00	2024-11-08T01:00:00	3	Temperatura mínima	19.8
56128	7	Sololá	710	Panajachel	8	Panajachel	8	Agosto	2023-08-23T00:00:00	2024-11-08T01:00:00	5	Humedad	71
56129	7	Sololá	710	Panajachel	8	Panajachel	8	Agosto	2023-08-23T00:00:00	2024-11-08T01:00:00	6	Velocidad del viento	8
56130	7	Sololá	710	Panajachel	8	Panajachel	8	Agosto	2023-08-23T00:00:00	2024-11-08T01:00:00	7	Dirección del viento	8.05
56131	7	Sololá	710	Panajachel	8	Panajachel	8	Agosto	2023-08-23T00:00:00	2024-11-08T01:00:00	1	Precipitación	0
56132	7	Sololá	710	Panajachel	8	Panajachel	8	Agosto	2023-08-23T00:00:00	2024-11-08T01:00:00	8	Radiación solar	0
56133	7	Sololá	710	Panajachel	8	Panajachel	8	Agosto	2023-08-23T00:00:00	2024-11-08T02:00:00	2	Temperatura media	19.5
56134	7	Sololá	710	Panajachel	8	Panajachel	8	Agosto	2023-08-23T00:00:00	2024-11-08T02:00:00	4	Temperatura máxima	20.1
56135	7	Sololá	710	Panajachel	8	Panajachel	8	Agosto	2023-08-23T00:00:00	2024-11-08T02:00:00	3	Temperatura mínima	19.4
56136	7	Sololá	710	Panajachel	8	Panajachel	8	Agosto	2023-08-23T00:00:00	2024-11-08T02:00:00	5	Humedad	71
56137	7	Sololá	710	Panajachel	8	Panajachel	8	Agosto	2023-08-23T00:00:00	2024-11-08T02:00:00	6	Velocidad del viento	6.4
56138	7	Sololá	710	Panajachel	8	Panajachel	8	Agosto	2023-08-23T00:00:00	2024-11-08T02:00:00	7	Dirección del viento	6.44
56139	7	Sololá	710	Panajachel	8	Panajachel	8	Agosto	2023-08-23T00:00:00	2024-11-08T02:00:00	1	Precipitación	0
56140	7	Sololá	710	Panajachel	8	Panajachel	8	Agosto	2023-08-23T00:00:00	2024-11-08T02:00:00	8	Radiación solar	0
56141	7	Sololá	710	Panajachel	8	Panajachel	8	Agosto	2023-08-23T00:00:00	2024-11-08T03:00:00	2	Temperatura media	19.2
56142	7	Sololá	710	Panajachel	8	Panajachel	8	Agosto	2023-08-23T00:00:00	2024-11-08T03:00:00	4	Temperatura máxima	19.6
56143	7	Sololá	710	Panajachel	8	Panajachel	8	Agosto	2023-08-23T00:00:00	2024-11-08T03:00:00	3	Temperatura mínima	19.2
56144	7	Sololá	710	Panajachel	8	Panajachel	8	Agosto	2023-08-23T00:00:00	2024-11-08T03:00:00	5	Humedad	71
56145	7	Sololá	710	Panajachel	8	Panajachel	8	Agosto	2023-08-23T00:00:00	2024-11-08T03:00:00	6	Velocidad del viento	9.7
56146	7	Sololá	710	Panajachel	8	Panajachel	8	Agosto	2023-08-23T00:00:00	2024-11-08T03:00:00	7	Dirección del viento	9.66
56147	7	Sololá	710	Panajachel	8	Panajachel	8	Agosto	2023-08-23T00:00:00	2024-11-08T03:00:00	1	Precipitación	0
56148	7	Sololá	710	Panajachel	8	Panajachel	8	Agosto	2023-08-23T00:00:00	2024-11-08T03:00:00	8	Radiación solar	0
56149	7	Sololá	710	Panajachel	8	Panajachel	8	Agosto	2023-08-23T00:00:00	2024-11-08T04:00:00	2	Temperatura media	19.4
56150	7	Sololá	710	Panajachel	8	Panajachel	8	Agosto	2023-08-23T00:00:00	2024-11-08T04:00:00	4	Temperatura máxima	19.5
56151	7	Sololá	710	Panajachel	8	Panajachel	8	Agosto	2023-08-23T00:00:00	2024-11-08T04:00:00	3	Temperatura mínima	19.2
56152	7	Sololá	710	Panajachel	8	Panajachel	8	Agosto	2023-08-23T00:00:00	2024-11-08T04:00:00	5	Humedad	70
56153	7	Sololá	710	Panajachel	8	Panajachel	8	Agosto	2023-08-23T00:00:00	2024-11-08T04:00:00	6	Velocidad del viento	6.4
56154	7	Sololá	710	Panajachel	8	Panajachel	8	Agosto	2023-08-23T00:00:00	2024-11-08T04:00:00	7	Dirección del viento	6.44
56155	7	Sololá	710	Panajachel	8	Panajachel	8	Agosto	2023-08-23T00:00:00	2024-11-08T04:00:00	1	Precipitación	0
56156	7	Sololá	710	Panajachel	8	Panajachel	8	Agosto	2023-08-23T00:00:00	2024-11-08T04:00:00	8	Radiación solar	0
56157	7	Sololá	710	Panajachel	8	Panajachel	8	Agosto	2023-08-23T00:00:00	2024-11-08T05:00:00	2	Temperatura media	18.6
56158	7	Sololá	710	Panajachel	8	Panajachel	8	Agosto	2023-08-23T00:00:00	2024-11-08T05:00:00	4	Temperatura máxima	19.5
56159	7	Sololá	710	Panajachel	8	Panajachel	8	Agosto	2023-08-23T00:00:00	2024-11-08T05:00:00	3	Temperatura mínima	18.6
56160	7	Sololá	710	Panajachel	8	Panajachel	8	Agosto	2023-08-23T00:00:00	2024-11-08T05:00:00	5	Humedad	74
56161	7	Sololá	710	Panajachel	8	Panajachel	8	Agosto	2023-08-23T00:00:00	2024-11-08T05:00:00	6	Velocidad del viento	1.6
56162	7	Sololá	710	Panajachel	8	Panajachel	8	Agosto	2023-08-23T00:00:00	2024-11-08T05:00:00	7	Dirección del viento	1.61
56163	7	Sololá	710	Panajachel	8	Panajachel	8	Agosto	2023-08-23T00:00:00	2024-11-08T05:00:00	1	Precipitación	0
56164	7	Sololá	710	Panajachel	8	Panajachel	8	Agosto	2023-08-23T00:00:00	2024-11-08T05:00:00	8	Radiación solar	0
56165	7	Sololá	710	Panajachel	8	Panajachel	8	Agosto	2023-08-23T00:00:00	2024-11-08T06:00:00	2	Temperatura media	17.6
56166	7	Sololá	710	Panajachel	8	Panajachel	8	Agosto	2023-08-23T00:00:00	2024-11-08T06:00:00	4	Temperatura máxima	18.6
56167	7	Sololá	710	Panajachel	8	Panajachel	8	Agosto	2023-08-23T00:00:00	2024-11-08T06:00:00	3	Temperatura mínima	17.6
56168	7	Sololá	710	Panajachel	8	Panajachel	8	Agosto	2023-08-23T00:00:00	2024-11-08T06:00:00	5	Humedad	79
56169	7	Sololá	710	Panajachel	8	Panajachel	8	Agosto	2023-08-23T00:00:00	2024-11-08T06:00:00	6	Velocidad del viento	0
56170	7	Sololá	710	Panajachel	8	Panajachel	8	Agosto	2023-08-23T00:00:00	2024-11-08T06:00:00	7	Dirección del viento	0
56171	7	Sololá	710	Panajachel	8	Panajachel	8	Agosto	2023-08-23T00:00:00	2024-11-08T06:00:00	1	Precipitación	0
56172	7	Sololá	710	Panajachel	8	Panajachel	8	Agosto	2023-08-23T00:00:00	2024-11-08T06:00:00	8	Radiación solar	0
56173	7	Sololá	710	Panajachel	8	Panajachel	8	Agosto	2023-08-23T00:00:00	2024-11-08T07:00:00	2	Temperatura media	17.8
56174	7	Sololá	710	Panajachel	8	Panajachel	8	Agosto	2023-08-23T00:00:00	2024-11-08T07:00:00	4	Temperatura máxima	17.8
56175	7	Sololá	710	Panajachel	8	Panajachel	8	Agosto	2023-08-23T00:00:00	2024-11-08T07:00:00	3	Temperatura mínima	17.5
56176	7	Sololá	710	Panajachel	8	Panajachel	8	Agosto	2023-08-23T00:00:00	2024-11-08T07:00:00	5	Humedad	80
56177	7	Sololá	710	Panajachel	8	Panajachel	8	Agosto	2023-08-23T00:00:00	2024-11-08T07:00:00	6	Velocidad del viento	0
56178	7	Sololá	710	Panajachel	8	Panajachel	8	Agosto	2023-08-23T00:00:00	2024-11-08T07:00:00	7	Dirección del viento	0
56179	7	Sololá	710	Panajachel	8	Panajachel	8	Agosto	2023-08-23T00:00:00	2024-11-08T07:00:00	1	Precipitación	0
56180	7	Sololá	710	Panajachel	8	Panajachel	8	Agosto	2023-08-23T00:00:00	2024-11-08T07:00:00	8	Radiación solar	36
56181	7	Sololá	710	Panajachel	8	Panajachel	8	Agosto	2023-08-23T00:00:00	2024-11-08T08:00:00	2	Temperatura media	20.4
56182	7	Sololá	710	Panajachel	8	Panajachel	8	Agosto	2023-08-23T00:00:00	2024-11-08T08:00:00	4	Temperatura máxima	20.4
56183	7	Sololá	710	Panajachel	8	Panajachel	8	Agosto	2023-08-23T00:00:00	2024-11-08T08:00:00	3	Temperatura mínima	17.8
56184	7	Sololá	710	Panajachel	8	Panajachel	8	Agosto	2023-08-23T00:00:00	2024-11-08T08:00:00	5	Humedad	73
56185	7	Sololá	710	Panajachel	8	Panajachel	8	Agosto	2023-08-23T00:00:00	2024-11-08T08:00:00	6	Velocidad del viento	0
56186	7	Sololá	710	Panajachel	8	Panajachel	8	Agosto	2023-08-23T00:00:00	2024-11-08T08:00:00	7	Dirección del viento	0
56187	7	Sololá	710	Panajachel	8	Panajachel	8	Agosto	2023-08-23T00:00:00	2024-11-08T08:00:00	1	Precipitación	0
56188	7	Sololá	710	Panajachel	8	Panajachel	8	Agosto	2023-08-23T00:00:00	2024-11-08T08:00:00	8	Radiación solar	200
56189	7	Sololá	710	Panajachel	8	Panajachel	8	Agosto	2023-08-23T00:00:00	2024-11-08T09:00:00	2	Temperatura media	20.9
56190	7	Sololá	710	Panajachel	8	Panajachel	8	Agosto	2023-08-23T00:00:00	2024-11-08T09:00:00	4	Temperatura máxima	21.2
56191	7	Sololá	710	Panajachel	8	Panajachel	8	Agosto	2023-08-23T00:00:00	2024-11-08T09:00:00	3	Temperatura mínima	20.4
56192	7	Sololá	710	Panajachel	8	Panajachel	8	Agosto	2023-08-23T00:00:00	2024-11-08T09:00:00	5	Humedad	75
56193	7	Sololá	710	Panajachel	8	Panajachel	8	Agosto	2023-08-23T00:00:00	2024-11-08T09:00:00	6	Velocidad del viento	0
56194	7	Sololá	710	Panajachel	8	Panajachel	8	Agosto	2023-08-23T00:00:00	2024-11-08T09:00:00	7	Dirección del viento	0
56195	7	Sololá	710	Panajachel	8	Panajachel	8	Agosto	2023-08-23T00:00:00	2024-11-08T09:00:00	1	Precipitación	0
56196	7	Sololá	710	Panajachel	8	Panajachel	8	Agosto	2023-08-23T00:00:00	2024-11-08T09:00:00	8	Radiación solar	312
56197	7	Sololá	710	Panajachel	8	Panajachel	8	Agosto	2023-08-23T00:00:00	2024-11-08T10:00:00	2	Temperatura media	21.4
56198	7	Sololá	710	Panajachel	8	Panajachel	8	Agosto	2023-08-23T00:00:00	2024-11-08T10:00:00	4	Temperatura máxima	21.6
56199	7	Sololá	710	Panajachel	8	Panajachel	8	Agosto	2023-08-23T00:00:00	2024-11-08T10:00:00	3	Temperatura mínima	20.8
56200	7	Sololá	710	Panajachel	8	Panajachel	8	Agosto	2023-08-23T00:00:00	2024-11-08T10:00:00	5	Humedad	73
56201	7	Sololá	710	Panajachel	8	Panajachel	8	Agosto	2023-08-23T00:00:00	2024-11-08T10:00:00	6	Velocidad del viento	0
56202	7	Sololá	710	Panajachel	8	Panajachel	8	Agosto	2023-08-23T00:00:00	2024-11-08T10:00:00	7	Dirección del viento	0
56203	7	Sololá	710	Panajachel	8	Panajachel	8	Agosto	2023-08-23T00:00:00	2024-11-08T10:00:00	1	Precipitación	0
56204	7	Sololá	710	Panajachel	8	Panajachel	8	Agosto	2023-08-23T00:00:00	2024-11-08T10:00:00	8	Radiación solar	489
56205	7	Sololá	710	Panajachel	8	Panajachel	8	Agosto	2023-08-23T00:00:00	2024-11-08T11:00:00	2	Temperatura media	22
56206	7	Sololá	710	Panajachel	8	Panajachel	8	Agosto	2023-08-23T00:00:00	2024-11-08T11:00:00	4	Temperatura máxima	22.8
56207	7	Sololá	710	Panajachel	8	Panajachel	8	Agosto	2023-08-23T00:00:00	2024-11-08T11:00:00	3	Temperatura mínima	21.4
56208	7	Sololá	710	Panajachel	8	Panajachel	8	Agosto	2023-08-23T00:00:00	2024-11-08T11:00:00	5	Humedad	73
56209	7	Sololá	710	Panajachel	8	Panajachel	8	Agosto	2023-08-23T00:00:00	2024-11-08T11:00:00	6	Velocidad del viento	0
56210	7	Sololá	710	Panajachel	8	Panajachel	8	Agosto	2023-08-23T00:00:00	2024-11-08T11:00:00	7	Dirección del viento	0
56211	7	Sololá	710	Panajachel	8	Panajachel	8	Agosto	2023-08-23T00:00:00	2024-11-08T11:00:00	1	Precipitación	0
56212	7	Sololá	710	Panajachel	8	Panajachel	8	Agosto	2023-08-23T00:00:00	2024-11-08T11:00:00	8	Radiación solar	574
56213	7	Sololá	710	Panajachel	8	Panajachel	8	Agosto	2023-08-23T00:00:00	2024-11-08T12:00:00	2	Temperatura media	22.7
56214	7	Sololá	710	Panajachel	8	Panajachel	8	Agosto	2023-08-23T00:00:00	2024-11-08T12:00:00	4	Temperatura máxima	22.9
56215	7	Sololá	710	Panajachel	8	Panajachel	8	Agosto	2023-08-23T00:00:00	2024-11-08T12:00:00	3	Temperatura mínima	21.8
56216	7	Sololá	710	Panajachel	8	Panajachel	8	Agosto	2023-08-23T00:00:00	2024-11-08T12:00:00	5	Humedad	71
56217	7	Sololá	710	Panajachel	8	Panajachel	8	Agosto	2023-08-23T00:00:00	2024-11-08T12:00:00	6	Velocidad del viento	0
56218	7	Sololá	710	Panajachel	8	Panajachel	8	Agosto	2023-08-23T00:00:00	2024-11-08T12:00:00	7	Dirección del viento	0
56219	7	Sololá	710	Panajachel	8	Panajachel	8	Agosto	2023-08-23T00:00:00	2024-11-08T12:00:00	1	Precipitación	0
56220	7	Sololá	710	Panajachel	8	Panajachel	8	Agosto	2023-08-23T00:00:00	2024-11-08T12:00:00	8	Radiación solar	527
56221	7	Sololá	710	Panajachel	8	Panajachel	8	Agosto	2023-08-23T00:00:00	2024-11-08T13:00:00	2	Temperatura media	22.6
56222	7	Sololá	710	Panajachel	8	Panajachel	8	Agosto	2023-08-23T00:00:00	2024-11-08T13:00:00	4	Temperatura máxima	23.3
56223	7	Sololá	710	Panajachel	8	Panajachel	8	Agosto	2023-08-23T00:00:00	2024-11-08T13:00:00	3	Temperatura mínima	22.6
56224	7	Sololá	710	Panajachel	8	Panajachel	8	Agosto	2023-08-23T00:00:00	2024-11-08T13:00:00	5	Humedad	81
56225	7	Sololá	710	Panajachel	8	Panajachel	8	Agosto	2023-08-23T00:00:00	2024-11-08T13:00:00	6	Velocidad del viento	0
56226	7	Sololá	710	Panajachel	8	Panajachel	8	Agosto	2023-08-23T00:00:00	2024-11-08T13:00:00	7	Dirección del viento	0
56227	7	Sololá	710	Panajachel	8	Panajachel	8	Agosto	2023-08-23T00:00:00	2024-11-08T13:00:00	1	Precipitación	0
56228	7	Sololá	710	Panajachel	8	Panajachel	8	Agosto	2023-08-23T00:00:00	2024-11-08T13:00:00	8	Radiación solar	465
56229	7	Sololá	710	Panajachel	8	Panajachel	8	Agosto	2023-08-23T00:00:00	2024-11-08T14:00:00	2	Temperatura media	22.8
56230	7	Sololá	710	Panajachel	8	Panajachel	8	Agosto	2023-08-23T00:00:00	2024-11-08T14:00:00	4	Temperatura máxima	23.3
56231	7	Sololá	710	Panajachel	8	Panajachel	8	Agosto	2023-08-23T00:00:00	2024-11-08T14:00:00	3	Temperatura mínima	22.4
56232	7	Sololá	710	Panajachel	8	Panajachel	8	Agosto	2023-08-23T00:00:00	2024-11-08T14:00:00	5	Humedad	79
56233	7	Sololá	710	Panajachel	8	Panajachel	8	Agosto	2023-08-23T00:00:00	2024-11-08T14:00:00	6	Velocidad del viento	1.6
56234	7	Sololá	710	Panajachel	8	Panajachel	8	Agosto	2023-08-23T00:00:00	2024-11-08T14:00:00	7	Dirección del viento	1.61
56235	7	Sololá	710	Panajachel	8	Panajachel	8	Agosto	2023-08-23T00:00:00	2024-11-08T14:00:00	1	Precipitación	0
56236	7	Sololá	710	Panajachel	8	Panajachel	8	Agosto	2023-08-23T00:00:00	2024-11-08T14:00:00	8	Radiación solar	418
56237	7	Sololá	710	Panajachel	8	Panajachel	8	Agosto	2023-08-23T00:00:00	2024-11-08T15:00:00	2	Temperatura media	23.1
56238	7	Sololá	710	Panajachel	8	Panajachel	8	Agosto	2023-08-23T00:00:00	2024-11-08T15:00:00	4	Temperatura máxima	23.1
56239	7	Sololá	710	Panajachel	8	Panajachel	8	Agosto	2023-08-23T00:00:00	2024-11-08T15:00:00	3	Temperatura mínima	22.7
56240	7	Sololá	710	Panajachel	8	Panajachel	8	Agosto	2023-08-23T00:00:00	2024-11-08T15:00:00	5	Humedad	77
56241	7	Sololá	710	Panajachel	8	Panajachel	8	Agosto	2023-08-23T00:00:00	2024-11-08T15:00:00	6	Velocidad del viento	0
56242	7	Sololá	710	Panajachel	8	Panajachel	8	Agosto	2023-08-23T00:00:00	2024-11-08T15:00:00	7	Dirección del viento	0
56243	7	Sololá	710	Panajachel	8	Panajachel	8	Agosto	2023-08-23T00:00:00	2024-11-08T15:00:00	1	Precipitación	0
56244	7	Sololá	710	Panajachel	8	Panajachel	8	Agosto	2023-08-23T00:00:00	2024-11-08T15:00:00	8	Radiación solar	313
56245	7	Sololá	710	Panajachel	8	Panajachel	8	Agosto	2023-08-23T00:00:00	2024-11-08T16:00:00	2	Temperatura media	23.2
56246	7	Sololá	710	Panajachel	8	Panajachel	8	Agosto	2023-08-23T00:00:00	2024-11-08T16:00:00	4	Temperatura máxima	23.3
56247	7	Sololá	710	Panajachel	8	Panajachel	8	Agosto	2023-08-23T00:00:00	2024-11-08T16:00:00	3	Temperatura mínima	22.7
56248	7	Sololá	710	Panajachel	8	Panajachel	8	Agosto	2023-08-23T00:00:00	2024-11-08T16:00:00	5	Humedad	76
56249	7	Sololá	710	Panajachel	8	Panajachel	8	Agosto	2023-08-23T00:00:00	2024-11-08T16:00:00	6	Velocidad del viento	0
56250	7	Sololá	710	Panajachel	8	Panajachel	8	Agosto	2023-08-23T00:00:00	2024-11-08T16:00:00	7	Dirección del viento	0
56251	7	Sololá	710	Panajachel	8	Panajachel	8	Agosto	2023-08-23T00:00:00	2024-11-08T16:00:00	1	Precipitación	0
56252	7	Sololá	710	Panajachel	8	Panajachel	8	Agosto	2023-08-23T00:00:00	2024-11-08T16:00:00	8	Radiación solar	294
56253	7	Sololá	710	Panajachel	8	Panajachel	8	Agosto	2023-08-23T00:00:00	2024-11-08T17:00:00	2	Temperatura media	21.9
56254	7	Sololá	710	Panajachel	8	Panajachel	8	Agosto	2023-08-23T00:00:00	2024-11-08T17:00:00	4	Temperatura máxima	23.2
56255	7	Sololá	710	Panajachel	8	Panajachel	8	Agosto	2023-08-23T00:00:00	2024-11-08T17:00:00	3	Temperatura mínima	21.9
56256	7	Sololá	710	Panajachel	8	Panajachel	8	Agosto	2023-08-23T00:00:00	2024-11-08T17:00:00	5	Humedad	83
56257	7	Sololá	710	Panajachel	8	Panajachel	8	Agosto	2023-08-23T00:00:00	2024-11-08T17:00:00	6	Velocidad del viento	0
56258	7	Sololá	710	Panajachel	8	Panajachel	8	Agosto	2023-08-23T00:00:00	2024-11-08T17:00:00	7	Dirección del viento	0
56259	7	Sololá	710	Panajachel	8	Panajachel	8	Agosto	2023-08-23T00:00:00	2024-11-08T17:00:00	1	Precipitación	0
56260	7	Sololá	710	Panajachel	8	Panajachel	8	Agosto	2023-08-23T00:00:00	2024-11-08T17:00:00	8	Radiación solar	168
56261	7	Sololá	710	Panajachel	8	Panajachel	8	Agosto	2023-08-23T00:00:00	2024-11-08T18:00:00	2	Temperatura media	21.4
56262	7	Sololá	710	Panajachel	8	Panajachel	8	Agosto	2023-08-23T00:00:00	2024-11-08T18:00:00	4	Temperatura máxima	21.9
56263	7	Sololá	710	Panajachel	8	Panajachel	8	Agosto	2023-08-23T00:00:00	2024-11-08T18:00:00	3	Temperatura mínima	21.4
56264	7	Sololá	710	Panajachel	8	Panajachel	8	Agosto	2023-08-23T00:00:00	2024-11-08T18:00:00	5	Humedad	85
56265	7	Sololá	710	Panajachel	8	Panajachel	8	Agosto	2023-08-23T00:00:00	2024-11-08T18:00:00	6	Velocidad del viento	1.6
56266	7	Sololá	710	Panajachel	8	Panajachel	8	Agosto	2023-08-23T00:00:00	2024-11-08T18:00:00	7	Dirección del viento	1.61
56267	7	Sololá	710	Panajachel	8	Panajachel	8	Agosto	2023-08-23T00:00:00	2024-11-08T18:00:00	1	Precipitación	0
56268	7	Sololá	710	Panajachel	8	Panajachel	8	Agosto	2023-08-23T00:00:00	2024-11-08T18:00:00	8	Radiación solar	59
56269	7	Sololá	710	Panajachel	8	Panajachel	8	Agosto	2023-08-23T00:00:00	2024-11-08T19:00:00	2	Temperatura media	20.4
56270	7	Sololá	710	Panajachel	8	Panajachel	8	Agosto	2023-08-23T00:00:00	2024-11-08T19:00:00	4	Temperatura máxima	21.4
56271	7	Sololá	710	Panajachel	8	Panajachel	8	Agosto	2023-08-23T00:00:00	2024-11-08T19:00:00	3	Temperatura mínima	20.4
56272	7	Sololá	710	Panajachel	8	Panajachel	8	Agosto	2023-08-23T00:00:00	2024-11-08T19:00:00	5	Humedad	88
56273	7	Sololá	710	Panajachel	8	Panajachel	8	Agosto	2023-08-23T00:00:00	2024-11-08T19:00:00	6	Velocidad del viento	0
56274	7	Sololá	710	Panajachel	8	Panajachel	8	Agosto	2023-08-23T00:00:00	2024-11-08T19:00:00	7	Dirección del viento	0
56275	7	Sololá	710	Panajachel	8	Panajachel	8	Agosto	2023-08-23T00:00:00	2024-11-08T19:00:00	1	Precipitación	0
56276	7	Sololá	710	Panajachel	8	Panajachel	8	Agosto	2023-08-23T00:00:00	2024-11-08T19:00:00	8	Radiación solar	0
56277	7	Sololá	710	Panajachel	8	Panajachel	8	Agosto	2023-08-23T00:00:00	2024-11-08T20:00:00	2	Temperatura media	19.7
56278	7	Sololá	710	Panajachel	8	Panajachel	8	Agosto	2023-08-23T00:00:00	2024-11-08T20:00:00	4	Temperatura máxima	20.4
56279	7	Sololá	710	Panajachel	8	Panajachel	8	Agosto	2023-08-23T00:00:00	2024-11-08T20:00:00	3	Temperatura mínima	19.7
56280	7	Sololá	710	Panajachel	8	Panajachel	8	Agosto	2023-08-23T00:00:00	2024-11-08T20:00:00	5	Humedad	88
56281	7	Sololá	710	Panajachel	8	Panajachel	8	Agosto	2023-08-23T00:00:00	2024-11-08T20:00:00	6	Velocidad del viento	0
56282	7	Sololá	710	Panajachel	8	Panajachel	8	Agosto	2023-08-23T00:00:00	2024-11-08T20:00:00	7	Dirección del viento	0
56283	7	Sololá	710	Panajachel	8	Panajachel	8	Agosto	2023-08-23T00:00:00	2024-11-08T20:00:00	1	Precipitación	0
56284	7	Sololá	710	Panajachel	8	Panajachel	8	Agosto	2023-08-23T00:00:00	2024-11-08T20:00:00	8	Radiación solar	0
56285	7	Sololá	710	Panajachel	8	Panajachel	8	Agosto	2023-08-23T00:00:00	2024-11-08T21:00:00	2	Temperatura media	19.1
56286	7	Sololá	710	Panajachel	8	Panajachel	8	Agosto	2023-08-23T00:00:00	2024-11-08T21:00:00	4	Temperatura máxima	19.7
56287	7	Sololá	710	Panajachel	8	Panajachel	8	Agosto	2023-08-23T00:00:00	2024-11-08T21:00:00	3	Temperatura mínima	19.1
56288	7	Sololá	710	Panajachel	8	Panajachel	8	Agosto	2023-08-23T00:00:00	2024-11-08T21:00:00	5	Humedad	87
56289	7	Sololá	710	Panajachel	8	Panajachel	8	Agosto	2023-08-23T00:00:00	2024-11-08T21:00:00	6	Velocidad del viento	0
56290	7	Sololá	710	Panajachel	8	Panajachel	8	Agosto	2023-08-23T00:00:00	2024-11-08T21:00:00	7	Dirección del viento	0
56291	7	Sololá	710	Panajachel	8	Panajachel	8	Agosto	2023-08-23T00:00:00	2024-11-08T21:00:00	1	Precipitación	0
56292	7	Sololá	710	Panajachel	8	Panajachel	8	Agosto	2023-08-23T00:00:00	2024-11-08T21:00:00	8	Radiación solar	0
56293	7	Sololá	710	Panajachel	8	Panajachel	8	Agosto	2023-08-23T00:00:00	2024-11-08T22:00:00	2	Temperatura media	19.5
56294	7	Sololá	710	Panajachel	8	Panajachel	8	Agosto	2023-08-23T00:00:00	2024-11-08T22:00:00	4	Temperatura máxima	19.7
56295	7	Sololá	710	Panajachel	8	Panajachel	8	Agosto	2023-08-23T00:00:00	2024-11-08T22:00:00	3	Temperatura mínima	18.8
56296	7	Sololá	710	Panajachel	8	Panajachel	8	Agosto	2023-08-23T00:00:00	2024-11-08T22:00:00	5	Humedad	81
56297	7	Sololá	710	Panajachel	8	Panajachel	8	Agosto	2023-08-23T00:00:00	2024-11-08T22:00:00	6	Velocidad del viento	0
56298	7	Sololá	710	Panajachel	8	Panajachel	8	Agosto	2023-08-23T00:00:00	2024-11-08T22:00:00	7	Dirección del viento	0
56299	7	Sololá	710	Panajachel	8	Panajachel	8	Agosto	2023-08-23T00:00:00	2024-11-08T22:00:00	1	Precipitación	0
56300	7	Sololá	710	Panajachel	8	Panajachel	8	Agosto	2023-08-23T00:00:00	2024-11-08T22:00:00	8	Radiación solar	0
56301	7	Sololá	710	Panajachel	8	Panajachel	8	Agosto	2023-08-23T00:00:00	2024-11-08T23:00:00	2	Temperatura media	21
56302	7	Sololá	710	Panajachel	8	Panajachel	8	Agosto	2023-08-23T00:00:00	2024-11-08T23:00:00	4	Temperatura máxima	21
56303	7	Sololá	710	Panajachel	8	Panajachel	8	Agosto	2023-08-23T00:00:00	2024-11-08T23:00:00	3	Temperatura mínima	19.4
56304	7	Sololá	710	Panajachel	8	Panajachel	8	Agosto	2023-08-23T00:00:00	2024-11-08T23:00:00	5	Humedad	72
56305	7	Sololá	710	Panajachel	8	Panajachel	8	Agosto	2023-08-23T00:00:00	2024-11-08T23:00:00	6	Velocidad del viento	1.6
56306	7	Sololá	710	Panajachel	8	Panajachel	8	Agosto	2023-08-23T00:00:00	2024-11-08T23:00:00	7	Dirección del viento	1.61
56307	7	Sololá	710	Panajachel	8	Panajachel	8	Agosto	2023-08-23T00:00:00	2024-11-08T23:00:00	1	Precipitación	0
56308	7	Sololá	710	Panajachel	8	Panajachel	8	Agosto	2023-08-23T00:00:00	2024-11-08T23:00:00	8	Radiación solar	0
56309	7	Sololá	710	Panajachel	8	Panajachel	8	Agosto	2023-08-24T00:00:00	2024-11-08T00:00:00	2	Temperatura media	19.7
56310	7	Sololá	710	Panajachel	8	Panajachel	8	Agosto	2023-08-24T00:00:00	2024-11-08T00:00:00	4	Temperatura máxima	21.2
56311	7	Sololá	710	Panajachel	8	Panajachel	8	Agosto	2023-08-24T00:00:00	2024-11-08T00:00:00	3	Temperatura mínima	19.7
56312	7	Sololá	710	Panajachel	8	Panajachel	8	Agosto	2023-08-24T00:00:00	2024-11-08T00:00:00	5	Humedad	77
56313	7	Sololá	710	Panajachel	8	Panajachel	8	Agosto	2023-08-24T00:00:00	2024-11-08T00:00:00	6	Velocidad del viento	1.6
56314	7	Sololá	710	Panajachel	8	Panajachel	8	Agosto	2023-08-24T00:00:00	2024-11-08T00:00:00	7	Dirección del viento	1.61
56315	7	Sololá	710	Panajachel	8	Panajachel	8	Agosto	2023-08-24T00:00:00	2024-11-08T00:00:00	1	Precipitación	0
56316	7	Sololá	710	Panajachel	8	Panajachel	8	Agosto	2023-08-24T00:00:00	2024-11-08T00:00:00	8	Radiación solar	0
56317	7	Sololá	710	Panajachel	8	Panajachel	8	Agosto	2023-08-24T00:00:00	2024-11-08T01:00:00	2	Temperatura media	19
56318	7	Sololá	710	Panajachel	8	Panajachel	8	Agosto	2023-08-24T00:00:00	2024-11-08T01:00:00	4	Temperatura máxima	19.7
56319	7	Sololá	710	Panajachel	8	Panajachel	8	Agosto	2023-08-24T00:00:00	2024-11-08T01:00:00	3	Temperatura mínima	18.7
56320	7	Sololá	710	Panajachel	8	Panajachel	8	Agosto	2023-08-24T00:00:00	2024-11-08T01:00:00	5	Humedad	78
56321	7	Sololá	710	Panajachel	8	Panajachel	8	Agosto	2023-08-24T00:00:00	2024-11-08T01:00:00	6	Velocidad del viento	0
56322	7	Sololá	710	Panajachel	8	Panajachel	8	Agosto	2023-08-24T00:00:00	2024-11-08T01:00:00	7	Dirección del viento	0
56323	7	Sololá	710	Panajachel	8	Panajachel	8	Agosto	2023-08-24T00:00:00	2024-11-08T01:00:00	1	Precipitación	0
56324	7	Sololá	710	Panajachel	8	Panajachel	8	Agosto	2023-08-24T00:00:00	2024-11-08T01:00:00	8	Radiación solar	0
56325	7	Sololá	710	Panajachel	8	Panajachel	8	Agosto	2023-08-24T00:00:00	2024-11-08T02:00:00	2	Temperatura media	18.2
56326	7	Sololá	710	Panajachel	8	Panajachel	8	Agosto	2023-08-24T00:00:00	2024-11-08T02:00:00	4	Temperatura máxima	19.1
56327	7	Sololá	710	Panajachel	8	Panajachel	8	Agosto	2023-08-24T00:00:00	2024-11-08T02:00:00	3	Temperatura mínima	17.9
56328	7	Sololá	710	Panajachel	8	Panajachel	8	Agosto	2023-08-24T00:00:00	2024-11-08T02:00:00	5	Humedad	80
56329	7	Sololá	710	Panajachel	8	Panajachel	8	Agosto	2023-08-24T00:00:00	2024-11-08T02:00:00	6	Velocidad del viento	0
56330	7	Sololá	710	Panajachel	8	Panajachel	8	Agosto	2023-08-24T00:00:00	2024-11-08T02:00:00	7	Dirección del viento	0
56331	7	Sololá	710	Panajachel	8	Panajachel	8	Agosto	2023-08-24T00:00:00	2024-11-08T02:00:00	1	Precipitación	0
56332	7	Sololá	710	Panajachel	8	Panajachel	8	Agosto	2023-08-24T00:00:00	2024-11-08T02:00:00	8	Radiación solar	0
56333	7	Sololá	710	Panajachel	8	Panajachel	8	Agosto	2023-08-24T00:00:00	2024-11-08T03:00:00	2	Temperatura media	17.9
56334	7	Sololá	710	Panajachel	8	Panajachel	8	Agosto	2023-08-24T00:00:00	2024-11-08T03:00:00	4	Temperatura máxima	18.2
56335	7	Sololá	710	Panajachel	8	Panajachel	8	Agosto	2023-08-24T00:00:00	2024-11-08T03:00:00	3	Temperatura mínima	17.8
56336	7	Sololá	710	Panajachel	8	Panajachel	8	Agosto	2023-08-24T00:00:00	2024-11-08T03:00:00	5	Humedad	82
56337	7	Sololá	710	Panajachel	8	Panajachel	8	Agosto	2023-08-24T00:00:00	2024-11-08T03:00:00	6	Velocidad del viento	0
56338	7	Sololá	710	Panajachel	8	Panajachel	8	Agosto	2023-08-24T00:00:00	2024-11-08T03:00:00	7	Dirección del viento	0
56339	7	Sololá	710	Panajachel	8	Panajachel	8	Agosto	2023-08-24T00:00:00	2024-11-08T03:00:00	1	Precipitación	0
56340	7	Sololá	710	Panajachel	8	Panajachel	8	Agosto	2023-08-24T00:00:00	2024-11-08T03:00:00	8	Radiación solar	0
56341	7	Sololá	710	Panajachel	8	Panajachel	8	Agosto	2023-08-24T00:00:00	2024-11-08T04:00:00	2	Temperatura media	17.8
56342	7	Sololá	710	Panajachel	8	Panajachel	8	Agosto	2023-08-24T00:00:00	2024-11-08T04:00:00	4	Temperatura máxima	18
56343	7	Sololá	710	Panajachel	8	Panajachel	8	Agosto	2023-08-24T00:00:00	2024-11-08T04:00:00	3	Temperatura mínima	17.8
56344	7	Sololá	710	Panajachel	8	Panajachel	8	Agosto	2023-08-24T00:00:00	2024-11-08T04:00:00	5	Humedad	82
56345	7	Sololá	710	Panajachel	8	Panajachel	8	Agosto	2023-08-24T00:00:00	2024-11-08T04:00:00	6	Velocidad del viento	1.6
56346	7	Sololá	710	Panajachel	8	Panajachel	8	Agosto	2023-08-24T00:00:00	2024-11-08T04:00:00	7	Dirección del viento	1.61
56347	7	Sololá	710	Panajachel	8	Panajachel	8	Agosto	2023-08-24T00:00:00	2024-11-08T04:00:00	1	Precipitación	0
56348	7	Sololá	710	Panajachel	8	Panajachel	8	Agosto	2023-08-24T00:00:00	2024-11-08T04:00:00	8	Radiación solar	0
56349	7	Sololá	710	Panajachel	8	Panajachel	8	Agosto	2023-08-24T00:00:00	2024-11-08T05:00:00	2	Temperatura media	17.7
56350	7	Sololá	710	Panajachel	8	Panajachel	8	Agosto	2023-08-24T00:00:00	2024-11-08T05:00:00	4	Temperatura máxima	18
56351	7	Sololá	710	Panajachel	8	Panajachel	8	Agosto	2023-08-24T00:00:00	2024-11-08T05:00:00	3	Temperatura mínima	17.7
56352	7	Sololá	710	Panajachel	8	Panajachel	8	Agosto	2023-08-24T00:00:00	2024-11-08T05:00:00	5	Humedad	83
56353	7	Sololá	710	Panajachel	8	Panajachel	8	Agosto	2023-08-24T00:00:00	2024-11-08T05:00:00	6	Velocidad del viento	1.6
56354	7	Sololá	710	Panajachel	8	Panajachel	8	Agosto	2023-08-24T00:00:00	2024-11-08T05:00:00	7	Dirección del viento	1.61
56355	7	Sololá	710	Panajachel	8	Panajachel	8	Agosto	2023-08-24T00:00:00	2024-11-08T05:00:00	1	Precipitación	0
56356	7	Sololá	710	Panajachel	8	Panajachel	8	Agosto	2023-08-24T00:00:00	2024-11-08T05:00:00	8	Radiación solar	0
56357	7	Sololá	710	Panajachel	8	Panajachel	8	Agosto	2023-08-24T00:00:00	2024-11-08T06:00:00	2	Temperatura media	17.8
56358	7	Sololá	710	Panajachel	8	Panajachel	8	Agosto	2023-08-24T00:00:00	2024-11-08T06:00:00	4	Temperatura máxima	17.8
56359	7	Sololá	710	Panajachel	8	Panajachel	8	Agosto	2023-08-24T00:00:00	2024-11-08T06:00:00	3	Temperatura mínima	17.7
56360	7	Sololá	710	Panajachel	8	Panajachel	8	Agosto	2023-08-24T00:00:00	2024-11-08T06:00:00	5	Humedad	83
56361	7	Sololá	710	Panajachel	8	Panajachel	8	Agosto	2023-08-24T00:00:00	2024-11-08T06:00:00	6	Velocidad del viento	0
56362	7	Sololá	710	Panajachel	8	Panajachel	8	Agosto	2023-08-24T00:00:00	2024-11-08T06:00:00	7	Dirección del viento	0
56363	7	Sololá	710	Panajachel	8	Panajachel	8	Agosto	2023-08-24T00:00:00	2024-11-08T06:00:00	1	Precipitación	0
56364	7	Sololá	710	Panajachel	8	Panajachel	8	Agosto	2023-08-24T00:00:00	2024-11-08T06:00:00	8	Radiación solar	0
56365	7	Sololá	710	Panajachel	8	Panajachel	8	Agosto	2023-08-24T00:00:00	2024-11-08T07:00:00	2	Temperatura media	18.4
56366	7	Sololá	710	Panajachel	8	Panajachel	8	Agosto	2023-08-24T00:00:00	2024-11-08T07:00:00	4	Temperatura máxima	18.4
56367	7	Sololá	710	Panajachel	8	Panajachel	8	Agosto	2023-08-24T00:00:00	2024-11-08T07:00:00	3	Temperatura mínima	17.8
56368	7	Sololá	710	Panajachel	8	Panajachel	8	Agosto	2023-08-24T00:00:00	2024-11-08T07:00:00	5	Humedad	79
56369	7	Sololá	710	Panajachel	8	Panajachel	8	Agosto	2023-08-24T00:00:00	2024-11-08T07:00:00	6	Velocidad del viento	0
56370	7	Sololá	710	Panajachel	8	Panajachel	8	Agosto	2023-08-24T00:00:00	2024-11-08T07:00:00	7	Dirección del viento	0
56371	7	Sololá	710	Panajachel	8	Panajachel	8	Agosto	2023-08-24T00:00:00	2024-11-08T07:00:00	1	Precipitación	0
56372	7	Sololá	710	Panajachel	8	Panajachel	8	Agosto	2023-08-24T00:00:00	2024-11-08T07:00:00	8	Radiación solar	31
56373	7	Sololá	710	Panajachel	8	Panajachel	8	Agosto	2023-08-24T00:00:00	2024-11-08T08:00:00	2	Temperatura media	19.9
56374	7	Sololá	710	Panajachel	8	Panajachel	8	Agosto	2023-08-24T00:00:00	2024-11-08T08:00:00	4	Temperatura máxima	19.9
56375	7	Sololá	710	Panajachel	8	Panajachel	8	Agosto	2023-08-24T00:00:00	2024-11-08T08:00:00	3	Temperatura mínima	18.4
56376	7	Sololá	710	Panajachel	8	Panajachel	8	Agosto	2023-08-24T00:00:00	2024-11-08T08:00:00	5	Humedad	78
56377	7	Sololá	710	Panajachel	8	Panajachel	8	Agosto	2023-08-24T00:00:00	2024-11-08T08:00:00	6	Velocidad del viento	0
56378	7	Sololá	710	Panajachel	8	Panajachel	8	Agosto	2023-08-24T00:00:00	2024-11-08T08:00:00	7	Dirección del viento	0
56379	7	Sololá	710	Panajachel	8	Panajachel	8	Agosto	2023-08-24T00:00:00	2024-11-08T08:00:00	1	Precipitación	0
56380	7	Sololá	710	Panajachel	8	Panajachel	8	Agosto	2023-08-24T00:00:00	2024-11-08T08:00:00	8	Radiación solar	125
56381	7	Sololá	710	Panajachel	8	Panajachel	8	Agosto	2023-08-24T00:00:00	2024-11-08T09:00:00	2	Temperatura media	20.9
56382	7	Sololá	710	Panajachel	8	Panajachel	8	Agosto	2023-08-24T00:00:00	2024-11-08T09:00:00	4	Temperatura máxima	21.1
56383	7	Sololá	710	Panajachel	8	Panajachel	8	Agosto	2023-08-24T00:00:00	2024-11-08T09:00:00	3	Temperatura mínima	19.9
56384	7	Sololá	710	Panajachel	8	Panajachel	8	Agosto	2023-08-24T00:00:00	2024-11-08T09:00:00	5	Humedad	80
56385	7	Sololá	710	Panajachel	8	Panajachel	8	Agosto	2023-08-24T00:00:00	2024-11-08T09:00:00	6	Velocidad del viento	0
56386	7	Sololá	710	Panajachel	8	Panajachel	8	Agosto	2023-08-24T00:00:00	2024-11-08T09:00:00	7	Dirección del viento	0
56387	7	Sololá	710	Panajachel	8	Panajachel	8	Agosto	2023-08-24T00:00:00	2024-11-08T09:00:00	1	Precipitación	0
56388	7	Sololá	710	Panajachel	8	Panajachel	8	Agosto	2023-08-24T00:00:00	2024-11-08T09:00:00	8	Radiación solar	181
56389	7	Sololá	710	Panajachel	8	Panajachel	8	Agosto	2023-08-24T00:00:00	2024-11-08T10:00:00	2	Temperatura media	21.3
56390	7	Sololá	710	Panajachel	8	Panajachel	8	Agosto	2023-08-24T00:00:00	2024-11-08T10:00:00	4	Temperatura máxima	21.3
56391	7	Sololá	710	Panajachel	8	Panajachel	8	Agosto	2023-08-24T00:00:00	2024-11-08T10:00:00	3	Temperatura mínima	20.9
56392	7	Sololá	710	Panajachel	8	Panajachel	8	Agosto	2023-08-24T00:00:00	2024-11-08T10:00:00	5	Humedad	80
56393	7	Sololá	710	Panajachel	8	Panajachel	8	Agosto	2023-08-24T00:00:00	2024-11-08T10:00:00	6	Velocidad del viento	0
56394	7	Sololá	710	Panajachel	8	Panajachel	8	Agosto	2023-08-24T00:00:00	2024-11-08T10:00:00	7	Dirección del viento	0
56395	7	Sololá	710	Panajachel	8	Panajachel	8	Agosto	2023-08-24T00:00:00	2024-11-08T10:00:00	1	Precipitación	0
56396	7	Sololá	710	Panajachel	8	Panajachel	8	Agosto	2023-08-24T00:00:00	2024-11-08T10:00:00	8	Radiación solar	245
56397	7	Sololá	710	Panajachel	8	Panajachel	8	Agosto	2023-08-24T00:00:00	2024-11-08T11:00:00	2	Temperatura media	20.7
56398	7	Sololá	710	Panajachel	8	Panajachel	8	Agosto	2023-08-24T00:00:00	2024-11-08T11:00:00	4	Temperatura máxima	21.6
56399	7	Sololá	710	Panajachel	8	Panajachel	8	Agosto	2023-08-24T00:00:00	2024-11-08T11:00:00	3	Temperatura mínima	20.7
56400	7	Sololá	710	Panajachel	8	Panajachel	8	Agosto	2023-08-24T00:00:00	2024-11-08T11:00:00	5	Humedad	86
56401	7	Sololá	710	Panajachel	8	Panajachel	8	Agosto	2023-08-24T00:00:00	2024-11-08T11:00:00	6	Velocidad del viento	3.2
56402	7	Sololá	710	Panajachel	8	Panajachel	8	Agosto	2023-08-24T00:00:00	2024-11-08T11:00:00	7	Dirección del viento	3.22
56403	7	Sololá	710	Panajachel	8	Panajachel	8	Agosto	2023-08-24T00:00:00	2024-11-08T11:00:00	1	Precipitación	0
56404	7	Sololá	710	Panajachel	8	Panajachel	8	Agosto	2023-08-24T00:00:00	2024-11-08T11:00:00	8	Radiación solar	348
56405	7	Sololá	710	Panajachel	8	Panajachel	8	Agosto	2023-08-24T00:00:00	2024-11-08T12:00:00	2	Temperatura media	20.7
56406	7	Sololá	710	Panajachel	8	Panajachel	8	Agosto	2023-08-24T00:00:00	2024-11-08T12:00:00	4	Temperatura máxima	20.9
56407	7	Sololá	710	Panajachel	8	Panajachel	8	Agosto	2023-08-24T00:00:00	2024-11-08T12:00:00	3	Temperatura mínima	20.4
56408	7	Sololá	710	Panajachel	8	Panajachel	8	Agosto	2023-08-24T00:00:00	2024-11-08T12:00:00	5	Humedad	85
56409	7	Sololá	710	Panajachel	8	Panajachel	8	Agosto	2023-08-24T00:00:00	2024-11-08T12:00:00	6	Velocidad del viento	4.8
56410	7	Sololá	710	Panajachel	8	Panajachel	8	Agosto	2023-08-24T00:00:00	2024-11-08T12:00:00	7	Dirección del viento	4.83
56411	7	Sololá	710	Panajachel	8	Panajachel	8	Agosto	2023-08-24T00:00:00	2024-11-08T12:00:00	1	Precipitación	0
56412	7	Sololá	710	Panajachel	8	Panajachel	8	Agosto	2023-08-24T00:00:00	2024-11-08T12:00:00	8	Radiación solar	358
56413	7	Sololá	710	Panajachel	8	Panajachel	8	Agosto	2023-08-24T00:00:00	2024-11-08T13:00:00	2	Temperatura media	20.8
56414	7	Sololá	710	Panajachel	8	Panajachel	8	Agosto	2023-08-24T00:00:00	2024-11-08T13:00:00	4	Temperatura máxima	21
56415	7	Sololá	710	Panajachel	8	Panajachel	8	Agosto	2023-08-24T00:00:00	2024-11-08T13:00:00	3	Temperatura mínima	20.7
56416	7	Sololá	710	Panajachel	8	Panajachel	8	Agosto	2023-08-24T00:00:00	2024-11-08T13:00:00	5	Humedad	84
56417	7	Sololá	710	Panajachel	8	Panajachel	8	Agosto	2023-08-24T00:00:00	2024-11-08T13:00:00	6	Velocidad del viento	0
56418	7	Sololá	710	Panajachel	8	Panajachel	8	Agosto	2023-08-24T00:00:00	2024-11-08T13:00:00	7	Dirección del viento	0
56419	7	Sololá	710	Panajachel	8	Panajachel	8	Agosto	2023-08-24T00:00:00	2024-11-08T13:00:00	1	Precipitación	0
56420	7	Sololá	710	Panajachel	8	Panajachel	8	Agosto	2023-08-24T00:00:00	2024-11-08T13:00:00	8	Radiación solar	212
56421	7	Sololá	710	Panajachel	8	Panajachel	8	Agosto	2023-08-24T00:00:00	2024-11-08T14:00:00	2	Temperatura media	21.7
56422	7	Sololá	710	Panajachel	8	Panajachel	8	Agosto	2023-08-24T00:00:00	2024-11-08T14:00:00	4	Temperatura máxima	21.8
56423	7	Sololá	710	Panajachel	8	Panajachel	8	Agosto	2023-08-24T00:00:00	2024-11-08T14:00:00	3	Temperatura mínima	20.8
56424	7	Sololá	710	Panajachel	8	Panajachel	8	Agosto	2023-08-24T00:00:00	2024-11-08T14:00:00	5	Humedad	82
56425	7	Sololá	710	Panajachel	8	Panajachel	8	Agosto	2023-08-24T00:00:00	2024-11-08T14:00:00	6	Velocidad del viento	0
56426	7	Sololá	710	Panajachel	8	Panajachel	8	Agosto	2023-08-24T00:00:00	2024-11-08T14:00:00	7	Dirección del viento	0
56427	7	Sololá	710	Panajachel	8	Panajachel	8	Agosto	2023-08-24T00:00:00	2024-11-08T14:00:00	1	Precipitación	0
56428	7	Sololá	710	Panajachel	8	Panajachel	8	Agosto	2023-08-24T00:00:00	2024-11-08T14:00:00	8	Radiación solar	373
56429	7	Sololá	710	Panajachel	8	Panajachel	8	Agosto	2023-08-24T00:00:00	2024-11-08T15:00:00	2	Temperatura media	21.8
56430	7	Sololá	710	Panajachel	8	Panajachel	8	Agosto	2023-08-24T00:00:00	2024-11-08T15:00:00	4	Temperatura máxima	21.9
56431	7	Sololá	710	Panajachel	8	Panajachel	8	Agosto	2023-08-24T00:00:00	2024-11-08T15:00:00	3	Temperatura mínima	21.6
56432	7	Sololá	710	Panajachel	8	Panajachel	8	Agosto	2023-08-24T00:00:00	2024-11-08T15:00:00	5	Humedad	81
56433	7	Sololá	710	Panajachel	8	Panajachel	8	Agosto	2023-08-24T00:00:00	2024-11-08T15:00:00	6	Velocidad del viento	0
56434	7	Sololá	710	Panajachel	8	Panajachel	8	Agosto	2023-08-24T00:00:00	2024-11-08T15:00:00	7	Dirección del viento	0
56435	7	Sololá	710	Panajachel	8	Panajachel	8	Agosto	2023-08-24T00:00:00	2024-11-08T15:00:00	1	Precipitación	0
56436	7	Sololá	710	Panajachel	8	Panajachel	8	Agosto	2023-08-24T00:00:00	2024-11-08T15:00:00	8	Radiación solar	356
56437	7	Sololá	710	Panajachel	8	Panajachel	8	Agosto	2023-08-24T00:00:00	2024-11-08T16:00:00	2	Temperatura media	21.6
56438	7	Sololá	710	Panajachel	8	Panajachel	8	Agosto	2023-08-24T00:00:00	2024-11-08T16:00:00	4	Temperatura máxima	22.1
56439	7	Sololá	710	Panajachel	8	Panajachel	8	Agosto	2023-08-24T00:00:00	2024-11-08T16:00:00	3	Temperatura mínima	21.6
56440	7	Sololá	710	Panajachel	8	Panajachel	8	Agosto	2023-08-24T00:00:00	2024-11-08T16:00:00	5	Humedad	82
56441	7	Sololá	710	Panajachel	8	Panajachel	8	Agosto	2023-08-24T00:00:00	2024-11-08T16:00:00	6	Velocidad del viento	0
56442	7	Sololá	710	Panajachel	8	Panajachel	8	Agosto	2023-08-24T00:00:00	2024-11-08T16:00:00	7	Dirección del viento	0
56443	7	Sololá	710	Panajachel	8	Panajachel	8	Agosto	2023-08-24T00:00:00	2024-11-08T16:00:00	1	Precipitación	0
56444	7	Sololá	710	Panajachel	8	Panajachel	8	Agosto	2023-08-24T00:00:00	2024-11-08T16:00:00	8	Radiación solar	273
56445	7	Sololá	710	Panajachel	8	Panajachel	8	Agosto	2023-08-24T00:00:00	2024-11-08T17:00:00	2	Temperatura media	20.2
56446	7	Sololá	710	Panajachel	8	Panajachel	8	Agosto	2023-08-24T00:00:00	2024-11-08T17:00:00	4	Temperatura máxima	21.6
56447	7	Sololá	710	Panajachel	8	Panajachel	8	Agosto	2023-08-24T00:00:00	2024-11-08T17:00:00	3	Temperatura mínima	19.9
56448	7	Sololá	710	Panajachel	8	Panajachel	8	Agosto	2023-08-24T00:00:00	2024-11-08T17:00:00	5	Humedad	82
56449	7	Sololá	710	Panajachel	8	Panajachel	8	Agosto	2023-08-24T00:00:00	2024-11-08T17:00:00	6	Velocidad del viento	1.6
56450	7	Sololá	710	Panajachel	8	Panajachel	8	Agosto	2023-08-24T00:00:00	2024-11-08T17:00:00	7	Dirección del viento	1.61
56451	7	Sololá	710	Panajachel	8	Panajachel	8	Agosto	2023-08-24T00:00:00	2024-11-08T17:00:00	1	Precipitación	0
56452	7	Sololá	710	Panajachel	8	Panajachel	8	Agosto	2023-08-24T00:00:00	2024-11-08T17:00:00	8	Radiación solar	84
56453	7	Sololá	710	Panajachel	8	Panajachel	8	Agosto	2023-08-24T00:00:00	2024-11-08T18:00:00	2	Temperatura media	19.8
56454	7	Sololá	710	Panajachel	8	Panajachel	8	Agosto	2023-08-24T00:00:00	2024-11-08T18:00:00	4	Temperatura máxima	20.3
56455	7	Sololá	710	Panajachel	8	Panajachel	8	Agosto	2023-08-24T00:00:00	2024-11-08T18:00:00	3	Temperatura mínima	19.8
56456	7	Sololá	710	Panajachel	8	Panajachel	8	Agosto	2023-08-24T00:00:00	2024-11-08T18:00:00	5	Humedad	87
56457	7	Sololá	710	Panajachel	8	Panajachel	8	Agosto	2023-08-24T00:00:00	2024-11-08T18:00:00	6	Velocidad del viento	0
56458	7	Sololá	710	Panajachel	8	Panajachel	8	Agosto	2023-08-24T00:00:00	2024-11-08T18:00:00	7	Dirección del viento	0
56459	7	Sololá	710	Panajachel	8	Panajachel	8	Agosto	2023-08-24T00:00:00	2024-11-08T18:00:00	1	Precipitación	0
56460	7	Sololá	710	Panajachel	8	Panajachel	8	Agosto	2023-08-24T00:00:00	2024-11-08T18:00:00	8	Radiación solar	53
56461	7	Sololá	710	Panajachel	8	Panajachel	8	Agosto	2023-08-24T00:00:00	2024-11-08T19:00:00	2	Temperatura media	18.9
56462	7	Sololá	710	Panajachel	8	Panajachel	8	Agosto	2023-08-24T00:00:00	2024-11-08T19:00:00	4	Temperatura máxima	19.8
56463	7	Sololá	710	Panajachel	8	Panajachel	8	Agosto	2023-08-24T00:00:00	2024-11-08T19:00:00	3	Temperatura mínima	18.9
56464	7	Sololá	710	Panajachel	8	Panajachel	8	Agosto	2023-08-24T00:00:00	2024-11-08T19:00:00	5	Humedad	88
56465	7	Sololá	710	Panajachel	8	Panajachel	8	Agosto	2023-08-24T00:00:00	2024-11-08T19:00:00	6	Velocidad del viento	0
56466	7	Sololá	710	Panajachel	8	Panajachel	8	Agosto	2023-08-24T00:00:00	2024-11-08T19:00:00	7	Dirección del viento	0
56467	7	Sololá	710	Panajachel	8	Panajachel	8	Agosto	2023-08-24T00:00:00	2024-11-08T19:00:00	1	Precipitación	0
56468	7	Sololá	710	Panajachel	8	Panajachel	8	Agosto	2023-08-24T00:00:00	2024-11-08T19:00:00	8	Radiación solar	0
56469	7	Sololá	710	Panajachel	8	Panajachel	8	Agosto	2023-08-24T00:00:00	2024-11-08T20:00:00	2	Temperatura media	18.7
56470	7	Sololá	710	Panajachel	8	Panajachel	8	Agosto	2023-08-24T00:00:00	2024-11-08T20:00:00	4	Temperatura máxima	18.9
56471	7	Sololá	710	Panajachel	8	Panajachel	8	Agosto	2023-08-24T00:00:00	2024-11-08T20:00:00	3	Temperatura mínima	18.6
56472	7	Sololá	710	Panajachel	8	Panajachel	8	Agosto	2023-08-24T00:00:00	2024-11-08T20:00:00	5	Humedad	88
56473	7	Sololá	710	Panajachel	8	Panajachel	8	Agosto	2023-08-24T00:00:00	2024-11-08T20:00:00	6	Velocidad del viento	1.6
56474	7	Sololá	710	Panajachel	8	Panajachel	8	Agosto	2023-08-24T00:00:00	2024-11-08T20:00:00	7	Dirección del viento	1.61
56475	7	Sololá	710	Panajachel	8	Panajachel	8	Agosto	2023-08-24T00:00:00	2024-11-08T20:00:00	1	Precipitación	0
56476	7	Sololá	710	Panajachel	8	Panajachel	8	Agosto	2023-08-24T00:00:00	2024-11-08T20:00:00	8	Radiación solar	0
56477	7	Sololá	710	Panajachel	8	Panajachel	8	Agosto	2023-08-24T00:00:00	2024-11-08T21:00:00	2	Temperatura media	18.5
56478	7	Sololá	710	Panajachel	8	Panajachel	8	Agosto	2023-08-24T00:00:00	2024-11-08T21:00:00	4	Temperatura máxima	18.7
56479	7	Sololá	710	Panajachel	8	Panajachel	8	Agosto	2023-08-24T00:00:00	2024-11-08T21:00:00	3	Temperatura mínima	18.4
56480	7	Sololá	710	Panajachel	8	Panajachel	8	Agosto	2023-08-24T00:00:00	2024-11-08T21:00:00	5	Humedad	88
56481	7	Sololá	710	Panajachel	8	Panajachel	8	Agosto	2023-08-24T00:00:00	2024-11-08T21:00:00	6	Velocidad del viento	1.6
56482	7	Sololá	710	Panajachel	8	Panajachel	8	Agosto	2023-08-24T00:00:00	2024-11-08T21:00:00	7	Dirección del viento	1.61
56483	7	Sololá	710	Panajachel	8	Panajachel	8	Agosto	2023-08-24T00:00:00	2024-11-08T21:00:00	1	Precipitación	0
56484	7	Sololá	710	Panajachel	8	Panajachel	8	Agosto	2023-08-24T00:00:00	2024-11-08T21:00:00	8	Radiación solar	0
56485	7	Sololá	710	Panajachel	8	Panajachel	8	Agosto	2023-08-24T00:00:00	2024-11-08T22:00:00	2	Temperatura media	18
56486	7	Sololá	710	Panajachel	8	Panajachel	8	Agosto	2023-08-24T00:00:00	2024-11-08T22:00:00	4	Temperatura máxima	18.6
56487	7	Sololá	710	Panajachel	8	Panajachel	8	Agosto	2023-08-24T00:00:00	2024-11-08T22:00:00	3	Temperatura mínima	18
56488	7	Sololá	710	Panajachel	8	Panajachel	8	Agosto	2023-08-24T00:00:00	2024-11-08T22:00:00	5	Humedad	88
56489	7	Sololá	710	Panajachel	8	Panajachel	8	Agosto	2023-08-24T00:00:00	2024-11-08T22:00:00	6	Velocidad del viento	0
56490	7	Sololá	710	Panajachel	8	Panajachel	8	Agosto	2023-08-24T00:00:00	2024-11-08T22:00:00	7	Dirección del viento	0
56491	7	Sololá	710	Panajachel	8	Panajachel	8	Agosto	2023-08-24T00:00:00	2024-11-08T22:00:00	1	Precipitación	0
56492	7	Sololá	710	Panajachel	8	Panajachel	8	Agosto	2023-08-24T00:00:00	2024-11-08T22:00:00	8	Radiación solar	0
56493	7	Sololá	710	Panajachel	8	Panajachel	8	Agosto	2023-08-24T00:00:00	2024-11-08T23:00:00	2	Temperatura media	18.1
56494	7	Sololá	710	Panajachel	8	Panajachel	8	Agosto	2023-08-24T00:00:00	2024-11-08T23:00:00	4	Temperatura máxima	18.2
56495	7	Sololá	710	Panajachel	8	Panajachel	8	Agosto	2023-08-24T00:00:00	2024-11-08T23:00:00	3	Temperatura mínima	18
56496	7	Sololá	710	Panajachel	8	Panajachel	8	Agosto	2023-08-24T00:00:00	2024-11-08T23:00:00	5	Humedad	89
56497	7	Sololá	710	Panajachel	8	Panajachel	8	Agosto	2023-08-24T00:00:00	2024-11-08T23:00:00	6	Velocidad del viento	0
56498	7	Sololá	710	Panajachel	8	Panajachel	8	Agosto	2023-08-24T00:00:00	2024-11-08T23:00:00	7	Dirección del viento	0
56499	7	Sololá	710	Panajachel	8	Panajachel	8	Agosto	2023-08-24T00:00:00	2024-11-08T23:00:00	1	Precipitación	0
56500	7	Sololá	710	Panajachel	8	Panajachel	8	Agosto	2023-08-24T00:00:00	2024-11-08T23:00:00	8	Radiación solar	0
56501	7	Sololá	710	Panajachel	8	Panajachel	8	Agosto	2023-08-25T00:00:00	2024-11-08T00:00:00	2	Temperatura media	18.2
56502	7	Sololá	710	Panajachel	8	Panajachel	8	Agosto	2023-08-25T00:00:00	2024-11-08T00:00:00	4	Temperatura máxima	18.3
56503	7	Sololá	710	Panajachel	8	Panajachel	8	Agosto	2023-08-25T00:00:00	2024-11-08T00:00:00	3	Temperatura mínima	18.1
56504	7	Sololá	710	Panajachel	8	Panajachel	8	Agosto	2023-08-25T00:00:00	2024-11-08T00:00:00	5	Humedad	87
56505	7	Sololá	710	Panajachel	8	Panajachel	8	Agosto	2023-08-25T00:00:00	2024-11-08T00:00:00	6	Velocidad del viento	1.6
56506	7	Sololá	710	Panajachel	8	Panajachel	8	Agosto	2023-08-25T00:00:00	2024-11-08T00:00:00	7	Dirección del viento	1.61
56507	7	Sololá	710	Panajachel	8	Panajachel	8	Agosto	2023-08-25T00:00:00	2024-11-08T00:00:00	1	Precipitación	0
56508	7	Sololá	710	Panajachel	8	Panajachel	8	Agosto	2023-08-25T00:00:00	2024-11-08T00:00:00	8	Radiación solar	0
56509	7	Sololá	710	Panajachel	8	Panajachel	8	Agosto	2023-08-25T00:00:00	2024-11-08T01:00:00	2	Temperatura media	18.2
56510	7	Sololá	710	Panajachel	8	Panajachel	8	Agosto	2023-08-25T00:00:00	2024-11-08T01:00:00	4	Temperatura máxima	18.3
56511	7	Sololá	710	Panajachel	8	Panajachel	8	Agosto	2023-08-25T00:00:00	2024-11-08T01:00:00	3	Temperatura mínima	18.1
56512	7	Sololá	710	Panajachel	8	Panajachel	8	Agosto	2023-08-25T00:00:00	2024-11-08T01:00:00	5	Humedad	88
56513	7	Sololá	710	Panajachel	8	Panajachel	8	Agosto	2023-08-25T00:00:00	2024-11-08T01:00:00	6	Velocidad del viento	0
56514	7	Sololá	710	Panajachel	8	Panajachel	8	Agosto	2023-08-25T00:00:00	2024-11-08T01:00:00	7	Dirección del viento	0
56515	7	Sololá	710	Panajachel	8	Panajachel	8	Agosto	2023-08-25T00:00:00	2024-11-08T01:00:00	1	Precipitación	0
56516	7	Sololá	710	Panajachel	8	Panajachel	8	Agosto	2023-08-25T00:00:00	2024-11-08T01:00:00	8	Radiación solar	0
56517	7	Sololá	710	Panajachel	8	Panajachel	8	Agosto	2023-08-25T00:00:00	2024-11-08T02:00:00	2	Temperatura media	18.1
56518	7	Sololá	710	Panajachel	8	Panajachel	8	Agosto	2023-08-25T00:00:00	2024-11-08T02:00:00	4	Temperatura máxima	18.2
56519	7	Sololá	710	Panajachel	8	Panajachel	8	Agosto	2023-08-25T00:00:00	2024-11-08T02:00:00	3	Temperatura mínima	18.1
56520	7	Sololá	710	Panajachel	8	Panajachel	8	Agosto	2023-08-25T00:00:00	2024-11-08T02:00:00	5	Humedad	89
56521	7	Sololá	710	Panajachel	8	Panajachel	8	Agosto	2023-08-25T00:00:00	2024-11-08T02:00:00	6	Velocidad del viento	0
56522	7	Sololá	710	Panajachel	8	Panajachel	8	Agosto	2023-08-25T00:00:00	2024-11-08T02:00:00	7	Dirección del viento	0
56523	7	Sololá	710	Panajachel	8	Panajachel	8	Agosto	2023-08-25T00:00:00	2024-11-08T02:00:00	1	Precipitación	0
56524	7	Sololá	710	Panajachel	8	Panajachel	8	Agosto	2023-08-25T00:00:00	2024-11-08T02:00:00	8	Radiación solar	0
56525	7	Sololá	710	Panajachel	8	Panajachel	8	Agosto	2023-08-25T00:00:00	2024-11-08T03:00:00	2	Temperatura media	17.6
56526	7	Sololá	710	Panajachel	8	Panajachel	8	Agosto	2023-08-25T00:00:00	2024-11-08T03:00:00	4	Temperatura máxima	18.2
56527	7	Sololá	710	Panajachel	8	Panajachel	8	Agosto	2023-08-25T00:00:00	2024-11-08T03:00:00	3	Temperatura mínima	17.6
56528	7	Sololá	710	Panajachel	8	Panajachel	8	Agosto	2023-08-25T00:00:00	2024-11-08T03:00:00	5	Humedad	89
56529	7	Sololá	710	Panajachel	8	Panajachel	8	Agosto	2023-08-25T00:00:00	2024-11-08T03:00:00	6	Velocidad del viento	0
56530	7	Sololá	710	Panajachel	8	Panajachel	8	Agosto	2023-08-25T00:00:00	2024-11-08T03:00:00	7	Dirección del viento	0
56531	7	Sololá	710	Panajachel	8	Panajachel	8	Agosto	2023-08-25T00:00:00	2024-11-08T03:00:00	1	Precipitación	0
56532	7	Sololá	710	Panajachel	8	Panajachel	8	Agosto	2023-08-25T00:00:00	2024-11-08T03:00:00	8	Radiación solar	0
56533	7	Sololá	710	Panajachel	8	Panajachel	8	Agosto	2023-08-25T00:00:00	2024-11-08T04:00:00	2	Temperatura media	17.2
56534	7	Sololá	710	Panajachel	8	Panajachel	8	Agosto	2023-08-25T00:00:00	2024-11-08T04:00:00	4	Temperatura máxima	17.7
56535	7	Sololá	710	Panajachel	8	Panajachel	8	Agosto	2023-08-25T00:00:00	2024-11-08T04:00:00	3	Temperatura mínima	17.2
56536	7	Sololá	710	Panajachel	8	Panajachel	8	Agosto	2023-08-25T00:00:00	2024-11-08T04:00:00	5	Humedad	91
56537	7	Sololá	710	Panajachel	8	Panajachel	8	Agosto	2023-08-25T00:00:00	2024-11-08T04:00:00	6	Velocidad del viento	0
56538	7	Sololá	710	Panajachel	8	Panajachel	8	Agosto	2023-08-25T00:00:00	2024-11-08T04:00:00	7	Dirección del viento	0
56539	7	Sololá	710	Panajachel	8	Panajachel	8	Agosto	2023-08-25T00:00:00	2024-11-08T04:00:00	1	Precipitación	0
56540	7	Sololá	710	Panajachel	8	Panajachel	8	Agosto	2023-08-25T00:00:00	2024-11-08T04:00:00	8	Radiación solar	0
56541	7	Sololá	710	Panajachel	8	Panajachel	8	Agosto	2023-08-25T00:00:00	2024-11-08T05:00:00	2	Temperatura media	16.9
56542	7	Sololá	710	Panajachel	8	Panajachel	8	Agosto	2023-08-25T00:00:00	2024-11-08T05:00:00	4	Temperatura máxima	17.2
56543	7	Sololá	710	Panajachel	8	Panajachel	8	Agosto	2023-08-25T00:00:00	2024-11-08T05:00:00	3	Temperatura mínima	16.9
56544	7	Sololá	710	Panajachel	8	Panajachel	8	Agosto	2023-08-25T00:00:00	2024-11-08T05:00:00	5	Humedad	92
56545	7	Sololá	710	Panajachel	8	Panajachel	8	Agosto	2023-08-25T00:00:00	2024-11-08T05:00:00	6	Velocidad del viento	0
56546	7	Sololá	710	Panajachel	8	Panajachel	8	Agosto	2023-08-25T00:00:00	2024-11-08T05:00:00	7	Dirección del viento	0
56547	7	Sololá	710	Panajachel	8	Panajachel	8	Agosto	2023-08-25T00:00:00	2024-11-08T05:00:00	1	Precipitación	0
56548	7	Sololá	710	Panajachel	8	Panajachel	8	Agosto	2023-08-25T00:00:00	2024-11-08T05:00:00	8	Radiación solar	0
56549	7	Sololá	710	Panajachel	8	Panajachel	8	Agosto	2023-08-25T00:00:00	2024-11-08T06:00:00	2	Temperatura media	17.1
56550	7	Sololá	710	Panajachel	8	Panajachel	8	Agosto	2023-08-25T00:00:00	2024-11-08T06:00:00	4	Temperatura máxima	17.3
56551	7	Sololá	710	Panajachel	8	Panajachel	8	Agosto	2023-08-25T00:00:00	2024-11-08T06:00:00	3	Temperatura mínima	16.9
56552	7	Sololá	710	Panajachel	8	Panajachel	8	Agosto	2023-08-25T00:00:00	2024-11-08T06:00:00	5	Humedad	89
56553	7	Sololá	710	Panajachel	8	Panajachel	8	Agosto	2023-08-25T00:00:00	2024-11-08T06:00:00	6	Velocidad del viento	1.6
56554	7	Sololá	710	Panajachel	8	Panajachel	8	Agosto	2023-08-25T00:00:00	2024-11-08T06:00:00	7	Dirección del viento	1.61
56555	7	Sololá	710	Panajachel	8	Panajachel	8	Agosto	2023-08-25T00:00:00	2024-11-08T06:00:00	1	Precipitación	0
56556	7	Sololá	710	Panajachel	8	Panajachel	8	Agosto	2023-08-25T00:00:00	2024-11-08T06:00:00	8	Radiación solar	0
56557	7	Sololá	710	Panajachel	8	Panajachel	8	Agosto	2023-08-25T00:00:00	2024-11-08T07:00:00	2	Temperatura media	17.3
56558	7	Sololá	710	Panajachel	8	Panajachel	8	Agosto	2023-08-25T00:00:00	2024-11-08T07:00:00	4	Temperatura máxima	17.3
56559	7	Sololá	710	Panajachel	8	Panajachel	8	Agosto	2023-08-25T00:00:00	2024-11-08T07:00:00	3	Temperatura mínima	16.8
56560	7	Sololá	710	Panajachel	8	Panajachel	8	Agosto	2023-08-25T00:00:00	2024-11-08T07:00:00	5	Humedad	89
56561	7	Sololá	710	Panajachel	8	Panajachel	8	Agosto	2023-08-25T00:00:00	2024-11-08T07:00:00	6	Velocidad del viento	1.6
56562	7	Sololá	710	Panajachel	8	Panajachel	8	Agosto	2023-08-25T00:00:00	2024-11-08T07:00:00	7	Dirección del viento	1.61
56563	7	Sololá	710	Panajachel	8	Panajachel	8	Agosto	2023-08-25T00:00:00	2024-11-08T07:00:00	1	Precipitación	0
56564	7	Sololá	710	Panajachel	8	Panajachel	8	Agosto	2023-08-25T00:00:00	2024-11-08T07:00:00	8	Radiación solar	33
56565	7	Sololá	710	Panajachel	8	Panajachel	8	Agosto	2023-08-25T00:00:00	2024-11-08T08:00:00	2	Temperatura media	20.8
56566	7	Sololá	710	Panajachel	8	Panajachel	8	Agosto	2023-08-25T00:00:00	2024-11-08T08:00:00	4	Temperatura máxima	20.8
56567	7	Sololá	710	Panajachel	8	Panajachel	8	Agosto	2023-08-25T00:00:00	2024-11-08T08:00:00	3	Temperatura mínima	17.3
56568	7	Sololá	710	Panajachel	8	Panajachel	8	Agosto	2023-08-25T00:00:00	2024-11-08T08:00:00	5	Humedad	79
56569	7	Sololá	710	Panajachel	8	Panajachel	8	Agosto	2023-08-25T00:00:00	2024-11-08T08:00:00	6	Velocidad del viento	1.6
56570	7	Sololá	710	Panajachel	8	Panajachel	8	Agosto	2023-08-25T00:00:00	2024-11-08T08:00:00	7	Dirección del viento	1.61
56571	7	Sololá	710	Panajachel	8	Panajachel	8	Agosto	2023-08-25T00:00:00	2024-11-08T08:00:00	1	Precipitación	0
56572	7	Sololá	710	Panajachel	8	Panajachel	8	Agosto	2023-08-25T00:00:00	2024-11-08T08:00:00	8	Radiación solar	218
56573	7	Sololá	710	Panajachel	8	Panajachel	8	Agosto	2023-08-25T00:00:00	2024-11-08T09:00:00	2	Temperatura media	22.2
56574	7	Sololá	710	Panajachel	8	Panajachel	8	Agosto	2023-08-25T00:00:00	2024-11-08T09:00:00	4	Temperatura máxima	22.2
56575	7	Sololá	710	Panajachel	8	Panajachel	8	Agosto	2023-08-25T00:00:00	2024-11-08T09:00:00	3	Temperatura mínima	20.8
56576	7	Sololá	710	Panajachel	8	Panajachel	8	Agosto	2023-08-25T00:00:00	2024-11-08T09:00:00	5	Humedad	79
56577	7	Sololá	710	Panajachel	8	Panajachel	8	Agosto	2023-08-25T00:00:00	2024-11-08T09:00:00	6	Velocidad del viento	0
56578	7	Sololá	710	Panajachel	8	Panajachel	8	Agosto	2023-08-25T00:00:00	2024-11-08T09:00:00	7	Dirección del viento	0
56579	7	Sololá	710	Panajachel	8	Panajachel	8	Agosto	2023-08-25T00:00:00	2024-11-08T09:00:00	1	Precipitación	0
56580	7	Sololá	710	Panajachel	8	Panajachel	8	Agosto	2023-08-25T00:00:00	2024-11-08T09:00:00	8	Radiación solar	586
56581	7	Sololá	710	Panajachel	8	Panajachel	8	Agosto	2023-08-25T00:00:00	2024-11-08T10:00:00	2	Temperatura media	23.2
56582	7	Sololá	710	Panajachel	8	Panajachel	8	Agosto	2023-08-25T00:00:00	2024-11-08T10:00:00	4	Temperatura máxima	23.2
56583	7	Sololá	710	Panajachel	8	Panajachel	8	Agosto	2023-08-25T00:00:00	2024-11-08T10:00:00	3	Temperatura mínima	22.2
56584	7	Sololá	710	Panajachel	8	Panajachel	8	Agosto	2023-08-25T00:00:00	2024-11-08T10:00:00	5	Humedad	76
56585	7	Sololá	710	Panajachel	8	Panajachel	8	Agosto	2023-08-25T00:00:00	2024-11-08T10:00:00	6	Velocidad del viento	1.6
56586	7	Sololá	710	Panajachel	8	Panajachel	8	Agosto	2023-08-25T00:00:00	2024-11-08T10:00:00	7	Dirección del viento	1.61
56587	7	Sololá	710	Panajachel	8	Panajachel	8	Agosto	2023-08-25T00:00:00	2024-11-08T10:00:00	1	Precipitación	0
56588	7	Sololá	710	Panajachel	8	Panajachel	8	Agosto	2023-08-25T00:00:00	2024-11-08T10:00:00	8	Radiación solar	842
56589	7	Sololá	710	Panajachel	8	Panajachel	8	Agosto	2023-08-25T00:00:00	2024-11-08T11:00:00	2	Temperatura media	22.9
56590	7	Sololá	710	Panajachel	8	Panajachel	8	Agosto	2023-08-25T00:00:00	2024-11-08T11:00:00	4	Temperatura máxima	23.4
56591	7	Sololá	710	Panajachel	8	Panajachel	8	Agosto	2023-08-25T00:00:00	2024-11-08T11:00:00	3	Temperatura mínima	22.6
56592	7	Sololá	710	Panajachel	8	Panajachel	8	Agosto	2023-08-25T00:00:00	2024-11-08T11:00:00	5	Humedad	79
56593	7	Sololá	710	Panajachel	8	Panajachel	8	Agosto	2023-08-25T00:00:00	2024-11-08T11:00:00	6	Velocidad del viento	0
56594	7	Sololá	710	Panajachel	8	Panajachel	8	Agosto	2023-08-25T00:00:00	2024-11-08T11:00:00	7	Dirección del viento	0
56595	7	Sololá	710	Panajachel	8	Panajachel	8	Agosto	2023-08-25T00:00:00	2024-11-08T11:00:00	1	Precipitación	0
56596	7	Sololá	710	Panajachel	8	Panajachel	8	Agosto	2023-08-25T00:00:00	2024-11-08T11:00:00	8	Radiación solar	816
56597	7	Sololá	710	Panajachel	8	Panajachel	8	Agosto	2023-08-25T00:00:00	2024-11-08T12:00:00	2	Temperatura media	24.9
56598	7	Sololá	710	Panajachel	8	Panajachel	8	Agosto	2023-08-25T00:00:00	2024-11-08T12:00:00	4	Temperatura máxima	24.9
56599	7	Sololá	710	Panajachel	8	Panajachel	8	Agosto	2023-08-25T00:00:00	2024-11-08T12:00:00	3	Temperatura mínima	24.3
56600	7	Sololá	710	Panajachel	8	Panajachel	8	Agosto	2023-08-25T00:00:00	2024-11-08T12:00:00	5	Humedad	65
56601	7	Sololá	710	Panajachel	8	Panajachel	8	Agosto	2023-08-25T00:00:00	2024-11-08T12:00:00	6	Velocidad del viento	3.2
56602	7	Sololá	710	Panajachel	8	Panajachel	8	Agosto	2023-08-25T00:00:00	2024-11-08T12:00:00	7	Dirección del viento	3.22
56603	7	Sololá	710	Panajachel	8	Panajachel	8	Agosto	2023-08-25T00:00:00	2024-11-08T12:00:00	1	Precipitación	0
56604	7	Sololá	710	Panajachel	8	Panajachel	8	Agosto	2023-08-25T00:00:00	2024-11-08T12:00:00	8	Radiación solar	990
56605	7	Sololá	710	Panajachel	8	Panajachel	8	Agosto	2023-08-25T00:00:00	2024-11-08T13:00:00	2	Temperatura media	25.7
56606	7	Sololá	710	Panajachel	8	Panajachel	8	Agosto	2023-08-25T00:00:00	2024-11-08T13:00:00	4	Temperatura máxima	25.7
56607	7	Sololá	710	Panajachel	8	Panajachel	8	Agosto	2023-08-25T00:00:00	2024-11-08T13:00:00	3	Temperatura mínima	24.8
56608	7	Sololá	710	Panajachel	8	Panajachel	8	Agosto	2023-08-25T00:00:00	2024-11-08T13:00:00	5	Humedad	61
56609	7	Sololá	710	Panajachel	8	Panajachel	8	Agosto	2023-08-25T00:00:00	2024-11-08T13:00:00	6	Velocidad del viento	4.8
56610	7	Sololá	710	Panajachel	8	Panajachel	8	Agosto	2023-08-25T00:00:00	2024-11-08T13:00:00	7	Dirección del viento	4.83
56611	7	Sololá	710	Panajachel	8	Panajachel	8	Agosto	2023-08-25T00:00:00	2024-11-08T13:00:00	1	Precipitación	0
56612	7	Sololá	710	Panajachel	8	Panajachel	8	Agosto	2023-08-25T00:00:00	2024-11-08T13:00:00	8	Radiación solar	1000
56613	7	Sololá	710	Panajachel	8	Panajachel	8	Agosto	2023-08-25T00:00:00	2024-11-08T14:00:00	2	Temperatura media	25.3
56614	7	Sololá	710	Panajachel	8	Panajachel	8	Agosto	2023-08-25T00:00:00	2024-11-08T14:00:00	4	Temperatura máxima	26.1
56615	7	Sololá	710	Panajachel	8	Panajachel	8	Agosto	2023-08-25T00:00:00	2024-11-08T14:00:00	3	Temperatura mínima	25.2
56616	7	Sololá	710	Panajachel	8	Panajachel	8	Agosto	2023-08-25T00:00:00	2024-11-08T14:00:00	5	Humedad	64
56617	7	Sololá	710	Panajachel	8	Panajachel	8	Agosto	2023-08-25T00:00:00	2024-11-08T14:00:00	6	Velocidad del viento	3.2
56618	7	Sololá	710	Panajachel	8	Panajachel	8	Agosto	2023-08-25T00:00:00	2024-11-08T14:00:00	7	Dirección del viento	3.22
56619	7	Sololá	710	Panajachel	8	Panajachel	8	Agosto	2023-08-25T00:00:00	2024-11-08T14:00:00	1	Precipitación	0
56620	7	Sololá	710	Panajachel	8	Panajachel	8	Agosto	2023-08-25T00:00:00	2024-11-08T14:00:00	8	Radiación solar	939
56621	7	Sololá	710	Panajachel	8	Panajachel	8	Agosto	2023-08-25T00:00:00	2024-11-08T15:00:00	2	Temperatura media	25.6
56622	7	Sololá	710	Panajachel	8	Panajachel	8	Agosto	2023-08-25T00:00:00	2024-11-08T15:00:00	4	Temperatura máxima	25.6
56623	7	Sololá	710	Panajachel	8	Panajachel	8	Agosto	2023-08-25T00:00:00	2024-11-08T15:00:00	3	Temperatura mínima	25.1
56624	7	Sololá	710	Panajachel	8	Panajachel	8	Agosto	2023-08-25T00:00:00	2024-11-08T15:00:00	5	Humedad	70
56625	7	Sololá	710	Panajachel	8	Panajachel	8	Agosto	2023-08-25T00:00:00	2024-11-08T15:00:00	6	Velocidad del viento	6.4
56626	7	Sololá	710	Panajachel	8	Panajachel	8	Agosto	2023-08-25T00:00:00	2024-11-08T15:00:00	7	Dirección del viento	6.44
56627	7	Sololá	710	Panajachel	8	Panajachel	8	Agosto	2023-08-25T00:00:00	2024-11-08T15:00:00	1	Precipitación	0
56628	7	Sololá	710	Panajachel	8	Panajachel	8	Agosto	2023-08-25T00:00:00	2024-11-08T15:00:00	8	Radiación solar	836
56629	7	Sololá	710	Panajachel	8	Panajachel	8	Agosto	2023-08-25T00:00:00	2024-11-08T16:00:00	2	Temperatura media	24.7
56630	7	Sololá	710	Panajachel	8	Panajachel	8	Agosto	2023-08-25T00:00:00	2024-11-08T16:00:00	4	Temperatura máxima	25.6
56631	7	Sololá	710	Panajachel	8	Panajachel	8	Agosto	2023-08-25T00:00:00	2024-11-08T16:00:00	3	Temperatura mínima	24.7
56632	7	Sololá	710	Panajachel	8	Panajachel	8	Agosto	2023-08-25T00:00:00	2024-11-08T16:00:00	5	Humedad	71
56633	7	Sololá	710	Panajachel	8	Panajachel	8	Agosto	2023-08-25T00:00:00	2024-11-08T16:00:00	6	Velocidad del viento	6.4
56634	7	Sololá	710	Panajachel	8	Panajachel	8	Agosto	2023-08-25T00:00:00	2024-11-08T16:00:00	7	Dirección del viento	6.44
56635	7	Sololá	710	Panajachel	8	Panajachel	8	Agosto	2023-08-25T00:00:00	2024-11-08T16:00:00	1	Precipitación	0
56636	7	Sololá	710	Panajachel	8	Panajachel	8	Agosto	2023-08-25T00:00:00	2024-11-08T16:00:00	8	Radiación solar	659
56637	7	Sololá	710	Panajachel	8	Panajachel	8	Agosto	2023-08-25T00:00:00	2024-11-08T17:00:00	2	Temperatura media	24.2
56638	7	Sololá	710	Panajachel	8	Panajachel	8	Agosto	2023-08-25T00:00:00	2024-11-08T17:00:00	4	Temperatura máxima	25.3
56639	7	Sololá	710	Panajachel	8	Panajachel	8	Agosto	2023-08-25T00:00:00	2024-11-08T17:00:00	3	Temperatura mínima	24.2
56640	7	Sololá	710	Panajachel	8	Panajachel	8	Agosto	2023-08-25T00:00:00	2024-11-08T17:00:00	5	Humedad	73
56641	7	Sololá	710	Panajachel	8	Panajachel	8	Agosto	2023-08-25T00:00:00	2024-11-08T17:00:00	6	Velocidad del viento	6.4
56642	7	Sololá	710	Panajachel	8	Panajachel	8	Agosto	2023-08-25T00:00:00	2024-11-08T17:00:00	7	Dirección del viento	6.44
56643	7	Sololá	710	Panajachel	8	Panajachel	8	Agosto	2023-08-25T00:00:00	2024-11-08T17:00:00	1	Precipitación	0
56644	7	Sololá	710	Panajachel	8	Panajachel	8	Agosto	2023-08-25T00:00:00	2024-11-08T17:00:00	8	Radiación solar	531
56645	7	Sololá	710	Panajachel	8	Panajachel	8	Agosto	2023-08-25T00:00:00	2024-11-08T18:00:00	2	Temperatura media	22.4
56646	7	Sololá	710	Panajachel	8	Panajachel	8	Agosto	2023-08-25T00:00:00	2024-11-08T18:00:00	4	Temperatura máxima	24.3
56647	7	Sololá	710	Panajachel	8	Panajachel	8	Agosto	2023-08-25T00:00:00	2024-11-08T18:00:00	3	Temperatura mínima	22.4
56648	7	Sololá	710	Panajachel	8	Panajachel	8	Agosto	2023-08-25T00:00:00	2024-11-08T18:00:00	5	Humedad	82
56649	7	Sololá	710	Panajachel	8	Panajachel	8	Agosto	2023-08-25T00:00:00	2024-11-08T18:00:00	6	Velocidad del viento	3.2
56650	7	Sololá	710	Panajachel	8	Panajachel	8	Agosto	2023-08-25T00:00:00	2024-11-08T18:00:00	7	Dirección del viento	3.22
56651	7	Sololá	710	Panajachel	8	Panajachel	8	Agosto	2023-08-25T00:00:00	2024-11-08T18:00:00	1	Precipitación	0
56652	7	Sololá	710	Panajachel	8	Panajachel	8	Agosto	2023-08-25T00:00:00	2024-11-08T18:00:00	8	Radiación solar	81
56653	7	Sololá	710	Panajachel	8	Panajachel	8	Agosto	2023-08-25T00:00:00	2024-11-08T19:00:00	2	Temperatura media	22.1
56654	7	Sololá	710	Panajachel	8	Panajachel	8	Agosto	2023-08-25T00:00:00	2024-11-08T19:00:00	4	Temperatura máxima	22.4
56655	7	Sololá	710	Panajachel	8	Panajachel	8	Agosto	2023-08-25T00:00:00	2024-11-08T19:00:00	3	Temperatura mínima	22
56656	7	Sololá	710	Panajachel	8	Panajachel	8	Agosto	2023-08-25T00:00:00	2024-11-08T19:00:00	5	Humedad	82
56657	7	Sololá	710	Panajachel	8	Panajachel	8	Agosto	2023-08-25T00:00:00	2024-11-08T19:00:00	6	Velocidad del viento	1.6
56658	7	Sololá	710	Panajachel	8	Panajachel	8	Agosto	2023-08-25T00:00:00	2024-11-08T19:00:00	7	Dirección del viento	1.61
56659	7	Sololá	710	Panajachel	8	Panajachel	8	Agosto	2023-08-25T00:00:00	2024-11-08T19:00:00	1	Precipitación	0
56660	7	Sololá	710	Panajachel	8	Panajachel	8	Agosto	2023-08-25T00:00:00	2024-11-08T19:00:00	8	Radiación solar	0
56661	7	Sololá	710	Panajachel	8	Panajachel	8	Agosto	2023-08-25T00:00:00	2024-11-08T20:00:00	2	Temperatura media	21.4
56662	7	Sololá	710	Panajachel	8	Panajachel	8	Agosto	2023-08-25T00:00:00	2024-11-08T20:00:00	4	Temperatura máxima	22.1
56663	7	Sololá	710	Panajachel	8	Panajachel	8	Agosto	2023-08-25T00:00:00	2024-11-08T20:00:00	3	Temperatura mínima	21.3
56664	7	Sololá	710	Panajachel	8	Panajachel	8	Agosto	2023-08-25T00:00:00	2024-11-08T20:00:00	5	Humedad	85
56665	7	Sololá	710	Panajachel	8	Panajachel	8	Agosto	2023-08-25T00:00:00	2024-11-08T20:00:00	6	Velocidad del viento	1.6
56666	7	Sololá	710	Panajachel	8	Panajachel	8	Agosto	2023-08-25T00:00:00	2024-11-08T20:00:00	7	Dirección del viento	1.61
56667	7	Sololá	710	Panajachel	8	Panajachel	8	Agosto	2023-08-25T00:00:00	2024-11-08T20:00:00	1	Precipitación	0
56668	7	Sololá	710	Panajachel	8	Panajachel	8	Agosto	2023-08-25T00:00:00	2024-11-08T20:00:00	8	Radiación solar	0
56669	7	Sololá	710	Panajachel	8	Panajachel	8	Agosto	2023-08-25T00:00:00	2024-11-08T21:00:00	2	Temperatura media	21.4
56670	7	Sololá	710	Panajachel	8	Panajachel	8	Agosto	2023-08-25T00:00:00	2024-11-08T21:00:00	4	Temperatura máxima	21.6
56671	7	Sololá	710	Panajachel	8	Panajachel	8	Agosto	2023-08-25T00:00:00	2024-11-08T21:00:00	3	Temperatura mínima	21.4
56672	7	Sololá	710	Panajachel	8	Panajachel	8	Agosto	2023-08-25T00:00:00	2024-11-08T21:00:00	5	Humedad	84
56673	7	Sololá	710	Panajachel	8	Panajachel	8	Agosto	2023-08-25T00:00:00	2024-11-08T21:00:00	6	Velocidad del viento	1.6
56674	7	Sololá	710	Panajachel	8	Panajachel	8	Agosto	2023-08-25T00:00:00	2024-11-08T21:00:00	7	Dirección del viento	1.61
56675	7	Sololá	710	Panajachel	8	Panajachel	8	Agosto	2023-08-25T00:00:00	2024-11-08T21:00:00	1	Precipitación	0
56676	7	Sololá	710	Panajachel	8	Panajachel	8	Agosto	2023-08-25T00:00:00	2024-11-08T21:00:00	8	Radiación solar	0
56677	7	Sololá	710	Panajachel	8	Panajachel	8	Agosto	2023-08-25T00:00:00	2024-11-08T22:00:00	2	Temperatura media	21.2
56678	7	Sololá	710	Panajachel	8	Panajachel	8	Agosto	2023-08-25T00:00:00	2024-11-08T22:00:00	4	Temperatura máxima	21.4
56679	7	Sololá	710	Panajachel	8	Panajachel	8	Agosto	2023-08-25T00:00:00	2024-11-08T22:00:00	3	Temperatura mínima	21.1
56680	7	Sololá	710	Panajachel	8	Panajachel	8	Agosto	2023-08-25T00:00:00	2024-11-08T22:00:00	5	Humedad	76
56681	7	Sololá	710	Panajachel	8	Panajachel	8	Agosto	2023-08-25T00:00:00	2024-11-08T22:00:00	6	Velocidad del viento	1.6
56682	7	Sololá	710	Panajachel	8	Panajachel	8	Agosto	2023-08-25T00:00:00	2024-11-08T22:00:00	7	Dirección del viento	1.61
56683	7	Sololá	710	Panajachel	8	Panajachel	8	Agosto	2023-08-25T00:00:00	2024-11-08T22:00:00	1	Precipitación	0
56684	7	Sololá	710	Panajachel	8	Panajachel	8	Agosto	2023-08-25T00:00:00	2024-11-08T22:00:00	8	Radiación solar	0
56685	7	Sololá	710	Panajachel	8	Panajachel	8	Agosto	2023-08-25T00:00:00	2024-11-08T23:00:00	2	Temperatura media	20.6
56686	7	Sololá	710	Panajachel	8	Panajachel	8	Agosto	2023-08-25T00:00:00	2024-11-08T23:00:00	4	Temperatura máxima	21.2
56687	7	Sololá	710	Panajachel	8	Panajachel	8	Agosto	2023-08-25T00:00:00	2024-11-08T23:00:00	3	Temperatura mínima	20.6
56688	7	Sololá	710	Panajachel	8	Panajachel	8	Agosto	2023-08-25T00:00:00	2024-11-08T23:00:00	5	Humedad	75
56689	7	Sololá	710	Panajachel	8	Panajachel	8	Agosto	2023-08-25T00:00:00	2024-11-08T23:00:00	6	Velocidad del viento	1.6
56690	7	Sololá	710	Panajachel	8	Panajachel	8	Agosto	2023-08-25T00:00:00	2024-11-08T23:00:00	7	Dirección del viento	1.61
56691	7	Sololá	710	Panajachel	8	Panajachel	8	Agosto	2023-08-25T00:00:00	2024-11-08T23:00:00	1	Precipitación	0
56692	7	Sololá	710	Panajachel	8	Panajachel	8	Agosto	2023-08-25T00:00:00	2024-11-08T23:00:00	8	Radiación solar	0
56693	7	Sololá	710	Panajachel	8	Panajachel	8	Agosto	2023-08-26T00:00:00	2024-11-08T00:00:00	2	Temperatura media	20.6
56694	7	Sololá	710	Panajachel	8	Panajachel	8	Agosto	2023-08-26T00:00:00	2024-11-08T00:00:00	4	Temperatura máxima	20.6
56695	7	Sololá	710	Panajachel	8	Panajachel	8	Agosto	2023-08-26T00:00:00	2024-11-08T00:00:00	3	Temperatura mínima	20.5
56696	7	Sololá	710	Panajachel	8	Panajachel	8	Agosto	2023-08-26T00:00:00	2024-11-08T00:00:00	5	Humedad	72
56697	7	Sololá	710	Panajachel	8	Panajachel	8	Agosto	2023-08-26T00:00:00	2024-11-08T00:00:00	6	Velocidad del viento	1.6
56698	7	Sololá	710	Panajachel	8	Panajachel	8	Agosto	2023-08-26T00:00:00	2024-11-08T00:00:00	7	Dirección del viento	1.61
56699	7	Sololá	710	Panajachel	8	Panajachel	8	Agosto	2023-08-26T00:00:00	2024-11-08T00:00:00	1	Precipitación	0
56700	7	Sololá	710	Panajachel	8	Panajachel	8	Agosto	2023-08-26T00:00:00	2024-11-08T00:00:00	8	Radiación solar	0
56701	7	Sololá	710	Panajachel	8	Panajachel	8	Agosto	2023-08-26T00:00:00	2024-11-08T01:00:00	2	Temperatura media	21.2
56702	7	Sololá	710	Panajachel	8	Panajachel	8	Agosto	2023-08-26T00:00:00	2024-11-08T01:00:00	4	Temperatura máxima	21.2
56703	7	Sololá	710	Panajachel	8	Panajachel	8	Agosto	2023-08-26T00:00:00	2024-11-08T01:00:00	3	Temperatura mínima	20.5
56704	7	Sololá	710	Panajachel	8	Panajachel	8	Agosto	2023-08-26T00:00:00	2024-11-08T01:00:00	5	Humedad	66
56705	7	Sololá	710	Panajachel	8	Panajachel	8	Agosto	2023-08-26T00:00:00	2024-11-08T01:00:00	6	Velocidad del viento	1.6
56706	7	Sololá	710	Panajachel	8	Panajachel	8	Agosto	2023-08-26T00:00:00	2024-11-08T01:00:00	7	Dirección del viento	1.61
56707	7	Sololá	710	Panajachel	8	Panajachel	8	Agosto	2023-08-26T00:00:00	2024-11-08T01:00:00	1	Precipitación	0
56708	7	Sololá	710	Panajachel	8	Panajachel	8	Agosto	2023-08-26T00:00:00	2024-11-08T01:00:00	8	Radiación solar	0
56709	7	Sololá	710	Panajachel	8	Panajachel	8	Agosto	2023-08-26T00:00:00	2024-11-08T02:00:00	2	Temperatura media	20.9
56710	7	Sololá	710	Panajachel	8	Panajachel	8	Agosto	2023-08-26T00:00:00	2024-11-08T02:00:00	4	Temperatura máxima	21.2
56711	7	Sololá	710	Panajachel	8	Panajachel	8	Agosto	2023-08-26T00:00:00	2024-11-08T02:00:00	3	Temperatura mínima	20.8
56712	7	Sololá	710	Panajachel	8	Panajachel	8	Agosto	2023-08-26T00:00:00	2024-11-08T02:00:00	5	Humedad	64
56713	7	Sololá	710	Panajachel	8	Panajachel	8	Agosto	2023-08-26T00:00:00	2024-11-08T02:00:00	6	Velocidad del viento	3.2
56714	7	Sololá	710	Panajachel	8	Panajachel	8	Agosto	2023-08-26T00:00:00	2024-11-08T02:00:00	7	Dirección del viento	3.22
56715	7	Sololá	710	Panajachel	8	Panajachel	8	Agosto	2023-08-26T00:00:00	2024-11-08T02:00:00	1	Precipitación	0
56716	7	Sololá	710	Panajachel	8	Panajachel	8	Agosto	2023-08-26T00:00:00	2024-11-08T02:00:00	8	Radiación solar	0
56717	7	Sololá	710	Panajachel	8	Panajachel	8	Agosto	2023-08-26T00:00:00	2024-11-08T03:00:00	2	Temperatura media	20.2
56718	7	Sololá	710	Panajachel	8	Panajachel	8	Agosto	2023-08-26T00:00:00	2024-11-08T03:00:00	4	Temperatura máxima	21.1
56719	7	Sololá	710	Panajachel	8	Panajachel	8	Agosto	2023-08-26T00:00:00	2024-11-08T03:00:00	3	Temperatura mínima	20.2
56720	7	Sololá	710	Panajachel	8	Panajachel	8	Agosto	2023-08-26T00:00:00	2024-11-08T03:00:00	5	Humedad	67
56721	7	Sololá	710	Panajachel	8	Panajachel	8	Agosto	2023-08-26T00:00:00	2024-11-08T03:00:00	6	Velocidad del viento	3.2
56722	7	Sololá	710	Panajachel	8	Panajachel	8	Agosto	2023-08-26T00:00:00	2024-11-08T03:00:00	7	Dirección del viento	3.22
56723	7	Sololá	710	Panajachel	8	Panajachel	8	Agosto	2023-08-26T00:00:00	2024-11-08T03:00:00	1	Precipitación	0
56724	7	Sololá	710	Panajachel	8	Panajachel	8	Agosto	2023-08-26T00:00:00	2024-11-08T03:00:00	8	Radiación solar	0
56725	7	Sololá	710	Panajachel	8	Panajachel	8	Agosto	2023-08-26T00:00:00	2024-11-08T04:00:00	2	Temperatura media	19.8
56726	7	Sololá	710	Panajachel	8	Panajachel	8	Agosto	2023-08-26T00:00:00	2024-11-08T04:00:00	4	Temperatura máxima	20.2
56727	7	Sololá	710	Panajachel	8	Panajachel	8	Agosto	2023-08-26T00:00:00	2024-11-08T04:00:00	3	Temperatura mínima	19.7
56728	7	Sololá	710	Panajachel	8	Panajachel	8	Agosto	2023-08-26T00:00:00	2024-11-08T04:00:00	5	Humedad	68
56729	7	Sololá	710	Panajachel	8	Panajachel	8	Agosto	2023-08-26T00:00:00	2024-11-08T04:00:00	6	Velocidad del viento	1.6
56730	7	Sololá	710	Panajachel	8	Panajachel	8	Agosto	2023-08-26T00:00:00	2024-11-08T04:00:00	7	Dirección del viento	1.61
56731	7	Sololá	710	Panajachel	8	Panajachel	8	Agosto	2023-08-26T00:00:00	2024-11-08T04:00:00	1	Precipitación	0
56732	7	Sololá	710	Panajachel	8	Panajachel	8	Agosto	2023-08-26T00:00:00	2024-11-08T04:00:00	8	Radiación solar	0
56733	7	Sololá	710	Panajachel	8	Panajachel	8	Agosto	2023-08-26T00:00:00	2024-11-08T05:00:00	2	Temperatura media	18.6
56734	7	Sololá	710	Panajachel	8	Panajachel	8	Agosto	2023-08-26T00:00:00	2024-11-08T05:00:00	4	Temperatura máxima	19.8
56735	7	Sololá	710	Panajachel	8	Panajachel	8	Agosto	2023-08-26T00:00:00	2024-11-08T05:00:00	3	Temperatura mínima	18.5
56736	7	Sololá	710	Panajachel	8	Panajachel	8	Agosto	2023-08-26T00:00:00	2024-11-08T05:00:00	5	Humedad	73
56737	7	Sololá	710	Panajachel	8	Panajachel	8	Agosto	2023-08-26T00:00:00	2024-11-08T05:00:00	6	Velocidad del viento	1.6
56738	7	Sololá	710	Panajachel	8	Panajachel	8	Agosto	2023-08-26T00:00:00	2024-11-08T05:00:00	7	Dirección del viento	1.61
56739	7	Sololá	710	Panajachel	8	Panajachel	8	Agosto	2023-08-26T00:00:00	2024-11-08T05:00:00	1	Precipitación	0
56740	7	Sololá	710	Panajachel	8	Panajachel	8	Agosto	2023-08-26T00:00:00	2024-11-08T05:00:00	8	Radiación solar	0
56741	7	Sololá	710	Panajachel	8	Panajachel	8	Agosto	2023-08-26T00:00:00	2024-11-08T06:00:00	2	Temperatura media	17.9
56742	7	Sololá	710	Panajachel	8	Panajachel	8	Agosto	2023-08-26T00:00:00	2024-11-08T06:00:00	4	Temperatura máxima	18.6
56743	7	Sololá	710	Panajachel	8	Panajachel	8	Agosto	2023-08-26T00:00:00	2024-11-08T06:00:00	3	Temperatura mínima	17.9
56744	7	Sololá	710	Panajachel	8	Panajachel	8	Agosto	2023-08-26T00:00:00	2024-11-08T06:00:00	5	Humedad	74
56745	7	Sololá	710	Panajachel	8	Panajachel	8	Agosto	2023-08-26T00:00:00	2024-11-08T06:00:00	6	Velocidad del viento	1.6
56746	7	Sololá	710	Panajachel	8	Panajachel	8	Agosto	2023-08-26T00:00:00	2024-11-08T06:00:00	7	Dirección del viento	1.61
56747	7	Sololá	710	Panajachel	8	Panajachel	8	Agosto	2023-08-26T00:00:00	2024-11-08T06:00:00	1	Precipitación	0
56748	7	Sololá	710	Panajachel	8	Panajachel	8	Agosto	2023-08-26T00:00:00	2024-11-08T06:00:00	8	Radiación solar	1
56749	7	Sololá	710	Panajachel	8	Panajachel	8	Agosto	2023-08-26T00:00:00	2024-11-08T07:00:00	2	Temperatura media	17.8
56750	7	Sololá	710	Panajachel	8	Panajachel	8	Agosto	2023-08-26T00:00:00	2024-11-08T07:00:00	4	Temperatura máxima	17.9
56751	7	Sololá	710	Panajachel	8	Panajachel	8	Agosto	2023-08-26T00:00:00	2024-11-08T07:00:00	3	Temperatura mínima	17.3
56752	7	Sololá	710	Panajachel	8	Panajachel	8	Agosto	2023-08-26T00:00:00	2024-11-08T07:00:00	5	Humedad	74
56753	7	Sololá	710	Panajachel	8	Panajachel	8	Agosto	2023-08-26T00:00:00	2024-11-08T07:00:00	6	Velocidad del viento	1.6
56754	7	Sololá	710	Panajachel	8	Panajachel	8	Agosto	2023-08-26T00:00:00	2024-11-08T07:00:00	7	Dirección del viento	1.61
56755	7	Sololá	710	Panajachel	8	Panajachel	8	Agosto	2023-08-26T00:00:00	2024-11-08T07:00:00	1	Precipitación	0
56756	7	Sololá	710	Panajachel	8	Panajachel	8	Agosto	2023-08-26T00:00:00	2024-11-08T07:00:00	8	Radiación solar	25
56757	7	Sololá	710	Panajachel	8	Panajachel	8	Agosto	2023-08-26T00:00:00	2024-11-08T08:00:00	2	Temperatura media	21.3
56758	7	Sololá	710	Panajachel	8	Panajachel	8	Agosto	2023-08-26T00:00:00	2024-11-08T08:00:00	4	Temperatura máxima	21.4
56759	7	Sololá	710	Panajachel	8	Panajachel	8	Agosto	2023-08-26T00:00:00	2024-11-08T08:00:00	3	Temperatura mínima	17.9
56760	7	Sololá	710	Panajachel	8	Panajachel	8	Agosto	2023-08-26T00:00:00	2024-11-08T08:00:00	5	Humedad	69
56761	7	Sololá	710	Panajachel	8	Panajachel	8	Agosto	2023-08-26T00:00:00	2024-11-08T08:00:00	6	Velocidad del viento	1.6
56762	7	Sololá	710	Panajachel	8	Panajachel	8	Agosto	2023-08-26T00:00:00	2024-11-08T08:00:00	7	Dirección del viento	1.61
56763	7	Sololá	710	Panajachel	8	Panajachel	8	Agosto	2023-08-26T00:00:00	2024-11-08T08:00:00	1	Precipitación	0
56764	7	Sololá	710	Panajachel	8	Panajachel	8	Agosto	2023-08-26T00:00:00	2024-11-08T08:00:00	8	Radiación solar	295
56765	7	Sololá	710	Panajachel	8	Panajachel	8	Agosto	2023-08-26T00:00:00	2024-11-08T09:00:00	2	Temperatura media	21.8
56766	7	Sololá	710	Panajachel	8	Panajachel	8	Agosto	2023-08-26T00:00:00	2024-11-08T09:00:00	4	Temperatura máxima	22
56767	7	Sololá	710	Panajachel	8	Panajachel	8	Agosto	2023-08-26T00:00:00	2024-11-08T09:00:00	3	Temperatura mínima	21.4
56768	7	Sololá	710	Panajachel	8	Panajachel	8	Agosto	2023-08-26T00:00:00	2024-11-08T09:00:00	5	Humedad	73
56769	7	Sololá	710	Panajachel	8	Panajachel	8	Agosto	2023-08-26T00:00:00	2024-11-08T09:00:00	6	Velocidad del viento	3.2
56770	7	Sololá	710	Panajachel	8	Panajachel	8	Agosto	2023-08-26T00:00:00	2024-11-08T09:00:00	7	Dirección del viento	3.22
56771	7	Sololá	710	Panajachel	8	Panajachel	8	Agosto	2023-08-26T00:00:00	2024-11-08T09:00:00	1	Precipitación	0
56772	7	Sololá	710	Panajachel	8	Panajachel	8	Agosto	2023-08-26T00:00:00	2024-11-08T09:00:00	8	Radiación solar	448
56773	7	Sololá	710	Panajachel	8	Panajachel	8	Agosto	2023-08-26T00:00:00	2024-11-08T10:00:00	2	Temperatura media	22.8
56774	7	Sololá	710	Panajachel	8	Panajachel	8	Agosto	2023-08-26T00:00:00	2024-11-08T10:00:00	4	Temperatura máxima	23.2
56775	7	Sololá	710	Panajachel	8	Panajachel	8	Agosto	2023-08-26T00:00:00	2024-11-08T10:00:00	3	Temperatura mínima	21.8
56776	7	Sololá	710	Panajachel	8	Panajachel	8	Agosto	2023-08-26T00:00:00	2024-11-08T10:00:00	5	Humedad	69
56777	7	Sololá	710	Panajachel	8	Panajachel	8	Agosto	2023-08-26T00:00:00	2024-11-08T10:00:00	6	Velocidad del viento	3.2
56778	7	Sololá	710	Panajachel	8	Panajachel	8	Agosto	2023-08-26T00:00:00	2024-11-08T10:00:00	7	Dirección del viento	3.22
56779	7	Sololá	710	Panajachel	8	Panajachel	8	Agosto	2023-08-26T00:00:00	2024-11-08T10:00:00	1	Precipitación	0
56780	7	Sololá	710	Panajachel	8	Panajachel	8	Agosto	2023-08-26T00:00:00	2024-11-08T10:00:00	8	Radiación solar	678
56781	7	Sololá	710	Panajachel	8	Panajachel	8	Agosto	2023-08-26T00:00:00	2024-11-08T11:00:00	2	Temperatura media	23.6
56782	7	Sololá	710	Panajachel	8	Panajachel	8	Agosto	2023-08-26T00:00:00	2024-11-08T11:00:00	4	Temperatura máxima	23.9
56783	7	Sololá	710	Panajachel	8	Panajachel	8	Agosto	2023-08-26T00:00:00	2024-11-08T11:00:00	3	Temperatura mínima	22.8
56784	7	Sololá	710	Panajachel	8	Panajachel	8	Agosto	2023-08-26T00:00:00	2024-11-08T11:00:00	5	Humedad	69
56785	7	Sololá	710	Panajachel	8	Panajachel	8	Agosto	2023-08-26T00:00:00	2024-11-08T11:00:00	6	Velocidad del viento	3.2
56786	7	Sololá	710	Panajachel	8	Panajachel	8	Agosto	2023-08-26T00:00:00	2024-11-08T11:00:00	7	Dirección del viento	3.22
56787	7	Sololá	710	Panajachel	8	Panajachel	8	Agosto	2023-08-26T00:00:00	2024-11-08T11:00:00	1	Precipitación	0
56788	7	Sololá	710	Panajachel	8	Panajachel	8	Agosto	2023-08-26T00:00:00	2024-11-08T11:00:00	8	Radiación solar	808
56789	7	Sololá	710	Panajachel	8	Panajachel	8	Agosto	2023-08-26T00:00:00	2024-11-08T12:00:00	2	Temperatura media	25
56790	7	Sololá	710	Panajachel	8	Panajachel	8	Agosto	2023-08-26T00:00:00	2024-11-08T12:00:00	4	Temperatura máxima	25
56791	7	Sololá	710	Panajachel	8	Panajachel	8	Agosto	2023-08-26T00:00:00	2024-11-08T12:00:00	3	Temperatura mínima	23.4
56792	7	Sololá	710	Panajachel	8	Panajachel	8	Agosto	2023-08-26T00:00:00	2024-11-08T12:00:00	5	Humedad	57
56793	7	Sololá	710	Panajachel	8	Panajachel	8	Agosto	2023-08-26T00:00:00	2024-11-08T12:00:00	6	Velocidad del viento	4.8
56794	7	Sololá	710	Panajachel	8	Panajachel	8	Agosto	2023-08-26T00:00:00	2024-11-08T12:00:00	7	Dirección del viento	4.83
56795	7	Sololá	710	Panajachel	8	Panajachel	8	Agosto	2023-08-26T00:00:00	2024-11-08T12:00:00	1	Precipitación	0
56796	7	Sololá	710	Panajachel	8	Panajachel	8	Agosto	2023-08-26T00:00:00	2024-11-08T12:00:00	8	Radiación solar	846
56797	7	Sololá	710	Panajachel	8	Panajachel	8	Agosto	2023-08-26T00:00:00	2024-11-08T13:00:00	2	Temperatura media	25.2
56798	7	Sololá	710	Panajachel	8	Panajachel	8	Agosto	2023-08-26T00:00:00	2024-11-08T13:00:00	4	Temperatura máxima	25.4
56799	7	Sololá	710	Panajachel	8	Panajachel	8	Agosto	2023-08-26T00:00:00	2024-11-08T13:00:00	3	Temperatura mínima	24.7
56800	7	Sololá	710	Panajachel	8	Panajachel	8	Agosto	2023-08-26T00:00:00	2024-11-08T13:00:00	5	Humedad	68
56801	7	Sololá	710	Panajachel	8	Panajachel	8	Agosto	2023-08-26T00:00:00	2024-11-08T13:00:00	6	Velocidad del viento	4.8
56802	7	Sololá	710	Panajachel	8	Panajachel	8	Agosto	2023-08-26T00:00:00	2024-11-08T13:00:00	7	Dirección del viento	4.83
56803	7	Sololá	710	Panajachel	8	Panajachel	8	Agosto	2023-08-26T00:00:00	2024-11-08T13:00:00	1	Precipitación	0
56804	7	Sololá	710	Panajachel	8	Panajachel	8	Agosto	2023-08-26T00:00:00	2024-11-08T13:00:00	8	Radiación solar	994
56805	7	Sololá	710	Panajachel	8	Panajachel	8	Agosto	2023-08-26T00:00:00	2024-11-08T14:00:00	2	Temperatura media	23.8
56806	7	Sololá	710	Panajachel	8	Panajachel	8	Agosto	2023-08-26T00:00:00	2024-11-08T14:00:00	4	Temperatura máxima	25.4
56807	7	Sololá	710	Panajachel	8	Panajachel	8	Agosto	2023-08-26T00:00:00	2024-11-08T14:00:00	3	Temperatura mínima	23.8
56808	7	Sololá	710	Panajachel	8	Panajachel	8	Agosto	2023-08-26T00:00:00	2024-11-08T14:00:00	5	Humedad	74
56809	7	Sololá	710	Panajachel	8	Panajachel	8	Agosto	2023-08-26T00:00:00	2024-11-08T14:00:00	6	Velocidad del viento	4.8
56810	7	Sololá	710	Panajachel	8	Panajachel	8	Agosto	2023-08-26T00:00:00	2024-11-08T14:00:00	7	Dirección del viento	4.83
56811	7	Sololá	710	Panajachel	8	Panajachel	8	Agosto	2023-08-26T00:00:00	2024-11-08T14:00:00	1	Precipitación	0
56812	7	Sololá	710	Panajachel	8	Panajachel	8	Agosto	2023-08-26T00:00:00	2024-11-08T14:00:00	8	Radiación solar	481
56813	7	Sololá	710	Panajachel	8	Panajachel	8	Agosto	2023-08-26T00:00:00	2024-11-08T15:00:00	2	Temperatura media	23.8
56814	7	Sololá	710	Panajachel	8	Panajachel	8	Agosto	2023-08-26T00:00:00	2024-11-08T15:00:00	4	Temperatura máxima	24.7
56815	7	Sololá	710	Panajachel	8	Panajachel	8	Agosto	2023-08-26T00:00:00	2024-11-08T15:00:00	3	Temperatura mínima	23.6
56816	7	Sololá	710	Panajachel	8	Panajachel	8	Agosto	2023-08-26T00:00:00	2024-11-08T15:00:00	5	Humedad	71
56817	7	Sololá	710	Panajachel	8	Panajachel	8	Agosto	2023-08-26T00:00:00	2024-11-08T15:00:00	6	Velocidad del viento	4.8
56818	7	Sololá	710	Panajachel	8	Panajachel	8	Agosto	2023-08-26T00:00:00	2024-11-08T15:00:00	7	Dirección del viento	4.83
56819	7	Sololá	710	Panajachel	8	Panajachel	8	Agosto	2023-08-26T00:00:00	2024-11-08T15:00:00	1	Precipitación	0
56820	7	Sololá	710	Panajachel	8	Panajachel	8	Agosto	2023-08-26T00:00:00	2024-11-08T15:00:00	8	Radiación solar	309
56821	7	Sololá	710	Panajachel	8	Panajachel	8	Agosto	2023-08-26T00:00:00	2024-11-08T16:00:00	2	Temperatura media	20.9
56822	7	Sololá	710	Panajachel	8	Panajachel	8	Agosto	2023-08-26T00:00:00	2024-11-08T16:00:00	4	Temperatura máxima	23.9
56823	7	Sololá	710	Panajachel	8	Panajachel	8	Agosto	2023-08-26T00:00:00	2024-11-08T16:00:00	3	Temperatura mínima	20.9
56824	7	Sololá	710	Panajachel	8	Panajachel	8	Agosto	2023-08-26T00:00:00	2024-11-08T16:00:00	5	Humedad	90
56825	7	Sololá	710	Panajachel	8	Panajachel	8	Agosto	2023-08-26T00:00:00	2024-11-08T16:00:00	6	Velocidad del viento	3.2
56826	7	Sololá	710	Panajachel	8	Panajachel	8	Agosto	2023-08-26T00:00:00	2024-11-08T16:00:00	7	Dirección del viento	3.22
56827	7	Sololá	710	Panajachel	8	Panajachel	8	Agosto	2023-08-26T00:00:00	2024-11-08T16:00:00	1	Precipitación	7
56828	7	Sololá	710	Panajachel	8	Panajachel	8	Agosto	2023-08-26T00:00:00	2024-11-08T16:00:00	8	Radiación solar	63
56829	7	Sololá	710	Panajachel	8	Panajachel	8	Agosto	2023-08-26T00:00:00	2024-11-08T17:00:00	2	Temperatura media	20.9
56830	7	Sololá	710	Panajachel	8	Panajachel	8	Agosto	2023-08-26T00:00:00	2024-11-08T17:00:00	4	Temperatura máxima	21
56831	7	Sololá	710	Panajachel	8	Panajachel	8	Agosto	2023-08-26T00:00:00	2024-11-08T17:00:00	3	Temperatura mínima	20.7
56832	7	Sololá	710	Panajachel	8	Panajachel	8	Agosto	2023-08-26T00:00:00	2024-11-08T17:00:00	5	Humedad	91
56833	7	Sololá	710	Panajachel	8	Panajachel	8	Agosto	2023-08-26T00:00:00	2024-11-08T17:00:00	6	Velocidad del viento	1.6
56834	7	Sololá	710	Panajachel	8	Panajachel	8	Agosto	2023-08-26T00:00:00	2024-11-08T17:00:00	7	Dirección del viento	1.61
56835	7	Sololá	710	Panajachel	8	Panajachel	8	Agosto	2023-08-26T00:00:00	2024-11-08T17:00:00	1	Precipitación	0
56836	7	Sololá	710	Panajachel	8	Panajachel	8	Agosto	2023-08-26T00:00:00	2024-11-08T17:00:00	8	Radiación solar	40
56837	7	Sololá	710	Panajachel	8	Panajachel	8	Agosto	2023-08-26T00:00:00	2024-11-08T18:00:00	2	Temperatura media	19.9
56838	7	Sololá	710	Panajachel	8	Panajachel	8	Agosto	2023-08-26T00:00:00	2024-11-08T18:00:00	4	Temperatura máxima	20.9
56839	7	Sololá	710	Panajachel	8	Panajachel	8	Agosto	2023-08-26T00:00:00	2024-11-08T18:00:00	3	Temperatura mínima	19.8
56840	7	Sololá	710	Panajachel	8	Panajachel	8	Agosto	2023-08-26T00:00:00	2024-11-08T18:00:00	5	Humedad	90
56841	7	Sololá	710	Panajachel	8	Panajachel	8	Agosto	2023-08-26T00:00:00	2024-11-08T18:00:00	6	Velocidad del viento	1.6
56842	7	Sololá	710	Panajachel	8	Panajachel	8	Agosto	2023-08-26T00:00:00	2024-11-08T18:00:00	7	Dirección del viento	1.61
56843	7	Sololá	710	Panajachel	8	Panajachel	8	Agosto	2023-08-26T00:00:00	2024-11-08T18:00:00	1	Precipitación	0
56844	7	Sololá	710	Panajachel	8	Panajachel	8	Agosto	2023-08-26T00:00:00	2024-11-08T18:00:00	8	Radiación solar	8
56845	7	Sololá	710	Panajachel	8	Panajachel	8	Agosto	2023-08-26T00:00:00	2024-11-08T19:00:00	2	Temperatura media	19.8
56846	7	Sololá	710	Panajachel	8	Panajachel	8	Agosto	2023-08-26T00:00:00	2024-11-08T19:00:00	4	Temperatura máxima	20.1
56847	7	Sololá	710	Panajachel	8	Panajachel	8	Agosto	2023-08-26T00:00:00	2024-11-08T19:00:00	3	Temperatura mínima	19.7
56848	7	Sololá	710	Panajachel	8	Panajachel	8	Agosto	2023-08-26T00:00:00	2024-11-08T19:00:00	5	Humedad	92
56849	7	Sololá	710	Panajachel	8	Panajachel	8	Agosto	2023-08-26T00:00:00	2024-11-08T19:00:00	6	Velocidad del viento	0
56850	7	Sololá	710	Panajachel	8	Panajachel	8	Agosto	2023-08-26T00:00:00	2024-11-08T19:00:00	7	Dirección del viento	0
56851	7	Sololá	710	Panajachel	8	Panajachel	8	Agosto	2023-08-26T00:00:00	2024-11-08T19:00:00	1	Precipitación	0
56852	7	Sololá	710	Panajachel	8	Panajachel	8	Agosto	2023-08-26T00:00:00	2024-11-08T19:00:00	8	Radiación solar	0
56853	7	Sololá	710	Panajachel	8	Panajachel	8	Agosto	2023-08-26T00:00:00	2024-11-08T20:00:00	2	Temperatura media	18.6
56854	7	Sololá	710	Panajachel	8	Panajachel	8	Agosto	2023-08-26T00:00:00	2024-11-08T20:00:00	4	Temperatura máxima	19.8
56855	7	Sololá	710	Panajachel	8	Panajachel	8	Agosto	2023-08-26T00:00:00	2024-11-08T20:00:00	3	Temperatura mínima	18.6
56856	7	Sololá	710	Panajachel	8	Panajachel	8	Agosto	2023-08-26T00:00:00	2024-11-08T20:00:00	5	Humedad	93
56857	7	Sololá	710	Panajachel	8	Panajachel	8	Agosto	2023-08-26T00:00:00	2024-11-08T20:00:00	6	Velocidad del viento	1.6
56858	7	Sololá	710	Panajachel	8	Panajachel	8	Agosto	2023-08-26T00:00:00	2024-11-08T20:00:00	7	Dirección del viento	1.61
56859	7	Sololá	710	Panajachel	8	Panajachel	8	Agosto	2023-08-26T00:00:00	2024-11-08T20:00:00	1	Precipitación	2.6
56860	7	Sololá	710	Panajachel	8	Panajachel	8	Agosto	2023-08-26T00:00:00	2024-11-08T20:00:00	8	Radiación solar	0
56861	7	Sololá	710	Panajachel	8	Panajachel	8	Agosto	2023-08-26T00:00:00	2024-11-08T21:00:00	2	Temperatura media	18.2
56862	7	Sololá	710	Panajachel	8	Panajachel	8	Agosto	2023-08-26T00:00:00	2024-11-08T21:00:00	4	Temperatura máxima	18.6
56863	7	Sololá	710	Panajachel	8	Panajachel	8	Agosto	2023-08-26T00:00:00	2024-11-08T21:00:00	3	Temperatura mínima	17.8
56864	7	Sololá	710	Panajachel	8	Panajachel	8	Agosto	2023-08-26T00:00:00	2024-11-08T21:00:00	5	Humedad	93
56865	7	Sololá	710	Panajachel	8	Panajachel	8	Agosto	2023-08-26T00:00:00	2024-11-08T21:00:00	6	Velocidad del viento	1.6
56866	7	Sololá	710	Panajachel	8	Panajachel	8	Agosto	2023-08-26T00:00:00	2024-11-08T21:00:00	7	Dirección del viento	1.61
56867	7	Sololá	710	Panajachel	8	Panajachel	8	Agosto	2023-08-26T00:00:00	2024-11-08T21:00:00	1	Precipitación	1.8
56868	7	Sololá	710	Panajachel	8	Panajachel	8	Agosto	2023-08-26T00:00:00	2024-11-08T21:00:00	8	Radiación solar	0
56869	7	Sololá	710	Panajachel	8	Panajachel	8	Agosto	2023-08-26T00:00:00	2024-11-08T22:00:00	2	Temperatura media	17.8
56870	7	Sololá	710	Panajachel	8	Panajachel	8	Agosto	2023-08-26T00:00:00	2024-11-08T22:00:00	4	Temperatura máxima	18.2
56871	7	Sololá	710	Panajachel	8	Panajachel	8	Agosto	2023-08-26T00:00:00	2024-11-08T22:00:00	3	Temperatura mínima	17.7
56872	7	Sololá	710	Panajachel	8	Panajachel	8	Agosto	2023-08-26T00:00:00	2024-11-08T22:00:00	5	Humedad	94
56873	7	Sololá	710	Panajachel	8	Panajachel	8	Agosto	2023-08-26T00:00:00	2024-11-08T22:00:00	6	Velocidad del viento	0
56874	7	Sololá	710	Panajachel	8	Panajachel	8	Agosto	2023-08-26T00:00:00	2024-11-08T22:00:00	7	Dirección del viento	0
56875	7	Sololá	710	Panajachel	8	Panajachel	8	Agosto	2023-08-26T00:00:00	2024-11-08T22:00:00	1	Precipitación	0.8
56876	7	Sololá	710	Panajachel	8	Panajachel	8	Agosto	2023-08-26T00:00:00	2024-11-08T22:00:00	8	Radiación solar	0
56877	7	Sololá	710	Panajachel	8	Panajachel	8	Agosto	2023-08-26T00:00:00	2024-11-08T23:00:00	2	Temperatura media	17.8
56878	7	Sololá	710	Panajachel	8	Panajachel	8	Agosto	2023-08-26T00:00:00	2024-11-08T23:00:00	4	Temperatura máxima	17.9
56879	7	Sololá	710	Panajachel	8	Panajachel	8	Agosto	2023-08-26T00:00:00	2024-11-08T23:00:00	3	Temperatura mínima	17.7
56880	7	Sololá	710	Panajachel	8	Panajachel	8	Agosto	2023-08-26T00:00:00	2024-11-08T23:00:00	5	Humedad	95
56881	7	Sololá	710	Panajachel	8	Panajachel	8	Agosto	2023-08-26T00:00:00	2024-11-08T23:00:00	6	Velocidad del viento	1.6
56882	7	Sololá	710	Panajachel	8	Panajachel	8	Agosto	2023-08-26T00:00:00	2024-11-08T23:00:00	7	Dirección del viento	1.61
56883	7	Sololá	710	Panajachel	8	Panajachel	8	Agosto	2023-08-26T00:00:00	2024-11-08T23:00:00	1	Precipitación	0
56884	7	Sololá	710	Panajachel	8	Panajachel	8	Agosto	2023-08-26T00:00:00	2024-11-08T23:00:00	8	Radiación solar	0
56885	7	Sololá	710	Panajachel	8	Panajachel	8	Agosto	2023-08-27T00:00:00	2024-11-08T00:00:00	2	Temperatura media	17.6
56886	7	Sololá	710	Panajachel	8	Panajachel	8	Agosto	2023-08-27T00:00:00	2024-11-08T00:00:00	4	Temperatura máxima	17.8
56887	7	Sololá	710	Panajachel	8	Panajachel	8	Agosto	2023-08-27T00:00:00	2024-11-08T00:00:00	3	Temperatura mínima	17.6
56888	7	Sololá	710	Panajachel	8	Panajachel	8	Agosto	2023-08-27T00:00:00	2024-11-08T00:00:00	5	Humedad	96
56889	7	Sololá	710	Panajachel	8	Panajachel	8	Agosto	2023-08-27T00:00:00	2024-11-08T00:00:00	6	Velocidad del viento	0
56890	7	Sololá	710	Panajachel	8	Panajachel	8	Agosto	2023-08-27T00:00:00	2024-11-08T00:00:00	7	Dirección del viento	0
56891	7	Sololá	710	Panajachel	8	Panajachel	8	Agosto	2023-08-27T00:00:00	2024-11-08T00:00:00	1	Precipitación	0
56892	7	Sololá	710	Panajachel	8	Panajachel	8	Agosto	2023-08-27T00:00:00	2024-11-08T00:00:00	8	Radiación solar	0
56893	7	Sololá	710	Panajachel	8	Panajachel	8	Agosto	2023-08-27T00:00:00	2024-11-08T01:00:00	2	Temperatura media	17.4
56894	7	Sololá	710	Panajachel	8	Panajachel	8	Agosto	2023-08-27T00:00:00	2024-11-08T01:00:00	4	Temperatura máxima	17.7
56895	7	Sololá	710	Panajachel	8	Panajachel	8	Agosto	2023-08-27T00:00:00	2024-11-08T01:00:00	3	Temperatura mínima	17.3
56896	7	Sololá	710	Panajachel	8	Panajachel	8	Agosto	2023-08-27T00:00:00	2024-11-08T01:00:00	5	Humedad	94
56897	7	Sololá	710	Panajachel	8	Panajachel	8	Agosto	2023-08-27T00:00:00	2024-11-08T01:00:00	6	Velocidad del viento	1.6
56898	7	Sololá	710	Panajachel	8	Panajachel	8	Agosto	2023-08-27T00:00:00	2024-11-08T01:00:00	7	Dirección del viento	1.61
56899	7	Sololá	710	Panajachel	8	Panajachel	8	Agosto	2023-08-27T00:00:00	2024-11-08T01:00:00	1	Precipitación	0
56900	7	Sololá	710	Panajachel	8	Panajachel	8	Agosto	2023-08-27T00:00:00	2024-11-08T01:00:00	8	Radiación solar	0
56901	7	Sololá	710	Panajachel	8	Panajachel	8	Agosto	2023-08-27T00:00:00	2024-11-08T02:00:00	2	Temperatura media	17.3
56902	7	Sololá	710	Panajachel	8	Panajachel	8	Agosto	2023-08-27T00:00:00	2024-11-08T02:00:00	4	Temperatura máxima	17.4
56903	7	Sololá	710	Panajachel	8	Panajachel	8	Agosto	2023-08-27T00:00:00	2024-11-08T02:00:00	3	Temperatura mínima	17.2
56904	7	Sololá	710	Panajachel	8	Panajachel	8	Agosto	2023-08-27T00:00:00	2024-11-08T02:00:00	5	Humedad	93
56905	7	Sololá	710	Panajachel	8	Panajachel	8	Agosto	2023-08-27T00:00:00	2024-11-08T02:00:00	6	Velocidad del viento	1.6
56906	7	Sololá	710	Panajachel	8	Panajachel	8	Agosto	2023-08-27T00:00:00	2024-11-08T02:00:00	7	Dirección del viento	1.61
56907	7	Sololá	710	Panajachel	8	Panajachel	8	Agosto	2023-08-27T00:00:00	2024-11-08T02:00:00	1	Precipitación	0
56908	7	Sololá	710	Panajachel	8	Panajachel	8	Agosto	2023-08-27T00:00:00	2024-11-08T02:00:00	8	Radiación solar	0
56909	7	Sololá	710	Panajachel	8	Panajachel	8	Agosto	2023-08-27T00:00:00	2024-11-08T03:00:00	2	Temperatura media	17.1
56910	7	Sololá	710	Panajachel	8	Panajachel	8	Agosto	2023-08-27T00:00:00	2024-11-08T03:00:00	4	Temperatura máxima	17.3
56911	7	Sololá	710	Panajachel	8	Panajachel	8	Agosto	2023-08-27T00:00:00	2024-11-08T03:00:00	3	Temperatura mínima	17.1
56912	7	Sololá	710	Panajachel	8	Panajachel	8	Agosto	2023-08-27T00:00:00	2024-11-08T03:00:00	5	Humedad	94
56913	7	Sololá	710	Panajachel	8	Panajachel	8	Agosto	2023-08-27T00:00:00	2024-11-08T03:00:00	6	Velocidad del viento	1.6
56914	7	Sololá	710	Panajachel	8	Panajachel	8	Agosto	2023-08-27T00:00:00	2024-11-08T03:00:00	7	Dirección del viento	1.61
56915	7	Sololá	710	Panajachel	8	Panajachel	8	Agosto	2023-08-27T00:00:00	2024-11-08T03:00:00	1	Precipitación	0
56916	7	Sololá	710	Panajachel	8	Panajachel	8	Agosto	2023-08-27T00:00:00	2024-11-08T03:00:00	8	Radiación solar	0
56917	7	Sololá	710	Panajachel	8	Panajachel	8	Agosto	2023-08-27T00:00:00	2024-11-08T04:00:00	2	Temperatura media	16.9
56918	7	Sololá	710	Panajachel	8	Panajachel	8	Agosto	2023-08-27T00:00:00	2024-11-08T04:00:00	4	Temperatura máxima	17.2
56919	7	Sololá	710	Panajachel	8	Panajachel	8	Agosto	2023-08-27T00:00:00	2024-11-08T04:00:00	3	Temperatura mínima	16.9
56920	7	Sololá	710	Panajachel	8	Panajachel	8	Agosto	2023-08-27T00:00:00	2024-11-08T04:00:00	5	Humedad	92
56921	7	Sololá	710	Panajachel	8	Panajachel	8	Agosto	2023-08-27T00:00:00	2024-11-08T04:00:00	6	Velocidad del viento	1.6
56922	7	Sololá	710	Panajachel	8	Panajachel	8	Agosto	2023-08-27T00:00:00	2024-11-08T04:00:00	7	Dirección del viento	1.61
56923	7	Sololá	710	Panajachel	8	Panajachel	8	Agosto	2023-08-27T00:00:00	2024-11-08T04:00:00	1	Precipitación	0
56924	7	Sololá	710	Panajachel	8	Panajachel	8	Agosto	2023-08-27T00:00:00	2024-11-08T04:00:00	8	Radiación solar	0
56925	7	Sololá	710	Panajachel	8	Panajachel	8	Agosto	2023-08-27T00:00:00	2024-11-08T05:00:00	2	Temperatura media	16.9
56926	7	Sololá	710	Panajachel	8	Panajachel	8	Agosto	2023-08-27T00:00:00	2024-11-08T05:00:00	4	Temperatura máxima	17.1
56927	7	Sololá	710	Panajachel	8	Panajachel	8	Agosto	2023-08-27T00:00:00	2024-11-08T05:00:00	3	Temperatura mínima	16.8
56928	7	Sololá	710	Panajachel	8	Panajachel	8	Agosto	2023-08-27T00:00:00	2024-11-08T05:00:00	5	Humedad	91
56929	7	Sololá	710	Panajachel	8	Panajachel	8	Agosto	2023-08-27T00:00:00	2024-11-08T05:00:00	6	Velocidad del viento	1.6
56930	7	Sololá	710	Panajachel	8	Panajachel	8	Agosto	2023-08-27T00:00:00	2024-11-08T05:00:00	7	Dirección del viento	1.61
56931	7	Sololá	710	Panajachel	8	Panajachel	8	Agosto	2023-08-27T00:00:00	2024-11-08T05:00:00	1	Precipitación	0
56932	7	Sololá	710	Panajachel	8	Panajachel	8	Agosto	2023-08-27T00:00:00	2024-11-08T05:00:00	8	Radiación solar	0
56933	7	Sololá	710	Panajachel	8	Panajachel	8	Agosto	2023-08-27T00:00:00	2024-11-08T06:00:00	2	Temperatura media	18.7
56934	7	Sololá	710	Panajachel	8	Panajachel	8	Agosto	2023-08-27T00:00:00	2024-11-08T06:00:00	4	Temperatura máxima	18.9
56935	7	Sololá	710	Panajachel	8	Panajachel	8	Agosto	2023-08-27T00:00:00	2024-11-08T06:00:00	3	Temperatura mínima	16.9
56936	7	Sololá	710	Panajachel	8	Panajachel	8	Agosto	2023-08-27T00:00:00	2024-11-08T06:00:00	5	Humedad	79
56937	7	Sololá	710	Panajachel	8	Panajachel	8	Agosto	2023-08-27T00:00:00	2024-11-08T06:00:00	6	Velocidad del viento	3.2
56938	7	Sololá	710	Panajachel	8	Panajachel	8	Agosto	2023-08-27T00:00:00	2024-11-08T06:00:00	7	Dirección del viento	3.22
56939	7	Sololá	710	Panajachel	8	Panajachel	8	Agosto	2023-08-27T00:00:00	2024-11-08T06:00:00	1	Precipitación	0
56940	7	Sololá	710	Panajachel	8	Panajachel	8	Agosto	2023-08-27T00:00:00	2024-11-08T06:00:00	8	Radiación solar	0
56941	7	Sololá	710	Panajachel	8	Panajachel	8	Agosto	2023-08-27T00:00:00	2024-11-08T07:00:00	2	Temperatura media	18.2
56942	7	Sololá	710	Panajachel	8	Panajachel	8	Agosto	2023-08-27T00:00:00	2024-11-08T07:00:00	4	Temperatura máxima	18.7
56943	7	Sololá	710	Panajachel	8	Panajachel	8	Agosto	2023-08-27T00:00:00	2024-11-08T07:00:00	3	Temperatura mínima	17.8
56944	7	Sololá	710	Panajachel	8	Panajachel	8	Agosto	2023-08-27T00:00:00	2024-11-08T07:00:00	5	Humedad	88
56945	7	Sololá	710	Panajachel	8	Panajachel	8	Agosto	2023-08-27T00:00:00	2024-11-08T07:00:00	6	Velocidad del viento	0
56946	7	Sololá	710	Panajachel	8	Panajachel	8	Agosto	2023-08-27T00:00:00	2024-11-08T07:00:00	7	Dirección del viento	0
56947	7	Sololá	710	Panajachel	8	Panajachel	8	Agosto	2023-08-27T00:00:00	2024-11-08T07:00:00	1	Precipitación	0
56948	7	Sololá	710	Panajachel	8	Panajachel	8	Agosto	2023-08-27T00:00:00	2024-11-08T07:00:00	8	Radiación solar	42
56949	7	Sololá	710	Panajachel	8	Panajachel	8	Agosto	2023-08-27T00:00:00	2024-11-08T08:00:00	2	Temperatura media	18.9
56950	7	Sololá	710	Panajachel	8	Panajachel	8	Agosto	2023-08-27T00:00:00	2024-11-08T08:00:00	4	Temperatura máxima	18.9
56951	7	Sololá	710	Panajachel	8	Panajachel	8	Agosto	2023-08-27T00:00:00	2024-11-08T08:00:00	3	Temperatura mínima	18.2
56952	7	Sololá	710	Panajachel	8	Panajachel	8	Agosto	2023-08-27T00:00:00	2024-11-08T08:00:00	5	Humedad	86
56953	7	Sololá	710	Panajachel	8	Panajachel	8	Agosto	2023-08-27T00:00:00	2024-11-08T08:00:00	6	Velocidad del viento	0
56954	7	Sololá	710	Panajachel	8	Panajachel	8	Agosto	2023-08-27T00:00:00	2024-11-08T08:00:00	7	Dirección del viento	0
56955	7	Sololá	710	Panajachel	8	Panajachel	8	Agosto	2023-08-27T00:00:00	2024-11-08T08:00:00	1	Precipitación	0
56956	7	Sololá	710	Panajachel	8	Panajachel	8	Agosto	2023-08-27T00:00:00	2024-11-08T08:00:00	8	Radiación solar	114
56957	7	Sololá	710	Panajachel	8	Panajachel	8	Agosto	2023-08-27T00:00:00	2024-11-08T09:00:00	2	Temperatura media	20.9
56958	7	Sololá	710	Panajachel	8	Panajachel	8	Agosto	2023-08-27T00:00:00	2024-11-08T09:00:00	4	Temperatura máxima	20.9
56959	7	Sololá	710	Panajachel	8	Panajachel	8	Agosto	2023-08-27T00:00:00	2024-11-08T09:00:00	3	Temperatura mínima	18.9
56960	7	Sololá	710	Panajachel	8	Panajachel	8	Agosto	2023-08-27T00:00:00	2024-11-08T09:00:00	5	Humedad	78
56961	7	Sololá	710	Panajachel	8	Panajachel	8	Agosto	2023-08-27T00:00:00	2024-11-08T09:00:00	6	Velocidad del viento	1.6
56962	7	Sololá	710	Panajachel	8	Panajachel	8	Agosto	2023-08-27T00:00:00	2024-11-08T09:00:00	7	Dirección del viento	1.61
56963	7	Sololá	710	Panajachel	8	Panajachel	8	Agosto	2023-08-27T00:00:00	2024-11-08T09:00:00	1	Precipitación	0
56964	7	Sololá	710	Panajachel	8	Panajachel	8	Agosto	2023-08-27T00:00:00	2024-11-08T09:00:00	8	Radiación solar	276
56965	7	Sololá	710	Panajachel	8	Panajachel	8	Agosto	2023-08-27T00:00:00	2024-11-08T10:00:00	2	Temperatura media	22.4
56966	7	Sololá	710	Panajachel	8	Panajachel	8	Agosto	2023-08-27T00:00:00	2024-11-08T10:00:00	4	Temperatura máxima	22.8
56967	7	Sololá	710	Panajachel	8	Panajachel	8	Agosto	2023-08-27T00:00:00	2024-11-08T10:00:00	3	Temperatura mínima	20.9
56968	7	Sololá	710	Panajachel	8	Panajachel	8	Agosto	2023-08-27T00:00:00	2024-11-08T10:00:00	5	Humedad	69
56969	7	Sololá	710	Panajachel	8	Panajachel	8	Agosto	2023-08-27T00:00:00	2024-11-08T10:00:00	6	Velocidad del viento	3.2
56970	7	Sololá	710	Panajachel	8	Panajachel	8	Agosto	2023-08-27T00:00:00	2024-11-08T10:00:00	7	Dirección del viento	3.22
56971	7	Sololá	710	Panajachel	8	Panajachel	8	Agosto	2023-08-27T00:00:00	2024-11-08T10:00:00	1	Precipitación	0
56972	7	Sololá	710	Panajachel	8	Panajachel	8	Agosto	2023-08-27T00:00:00	2024-11-08T10:00:00	8	Radiación solar	615
56973	7	Sololá	710	Panajachel	8	Panajachel	8	Agosto	2023-08-27T00:00:00	2024-11-08T11:00:00	2	Temperatura media	23.6
56974	7	Sololá	710	Panajachel	8	Panajachel	8	Agosto	2023-08-27T00:00:00	2024-11-08T11:00:00	4	Temperatura máxima	23.6
56975	7	Sololá	710	Panajachel	8	Panajachel	8	Agosto	2023-08-27T00:00:00	2024-11-08T11:00:00	3	Temperatura mínima	22.6
56976	7	Sololá	710	Panajachel	8	Panajachel	8	Agosto	2023-08-27T00:00:00	2024-11-08T11:00:00	5	Humedad	79
56977	7	Sololá	710	Panajachel	8	Panajachel	8	Agosto	2023-08-27T00:00:00	2024-11-08T11:00:00	6	Velocidad del viento	1.6
56978	7	Sololá	710	Panajachel	8	Panajachel	8	Agosto	2023-08-27T00:00:00	2024-11-08T11:00:00	7	Dirección del viento	1.61
56979	7	Sololá	710	Panajachel	8	Panajachel	8	Agosto	2023-08-27T00:00:00	2024-11-08T11:00:00	1	Precipitación	0
56980	7	Sololá	710	Panajachel	8	Panajachel	8	Agosto	2023-08-27T00:00:00	2024-11-08T11:00:00	8	Radiación solar	862
56981	7	Sololá	710	Panajachel	8	Panajachel	8	Agosto	2023-08-27T00:00:00	2024-11-08T12:00:00	2	Temperatura media	23.3
56982	7	Sololá	710	Panajachel	8	Panajachel	8	Agosto	2023-08-27T00:00:00	2024-11-08T12:00:00	4	Temperatura máxima	23.8
56983	7	Sololá	710	Panajachel	8	Panajachel	8	Agosto	2023-08-27T00:00:00	2024-11-08T12:00:00	3	Temperatura mínima	23.2
56984	7	Sololá	710	Panajachel	8	Panajachel	8	Agosto	2023-08-27T00:00:00	2024-11-08T12:00:00	5	Humedad	80
56985	7	Sololá	710	Panajachel	8	Panajachel	8	Agosto	2023-08-27T00:00:00	2024-11-08T12:00:00	6	Velocidad del viento	3.2
56986	7	Sololá	710	Panajachel	8	Panajachel	8	Agosto	2023-08-27T00:00:00	2024-11-08T12:00:00	7	Dirección del viento	3.22
56987	7	Sololá	710	Panajachel	8	Panajachel	8	Agosto	2023-08-27T00:00:00	2024-11-08T12:00:00	1	Precipitación	0
56988	7	Sololá	710	Panajachel	8	Panajachel	8	Agosto	2023-08-27T00:00:00	2024-11-08T12:00:00	8	Radiación solar	903
56989	7	Sololá	710	Panajachel	8	Panajachel	8	Agosto	2023-08-27T00:00:00	2024-11-08T13:00:00	2	Temperatura media	25.1
56990	7	Sololá	710	Panajachel	8	Panajachel	8	Agosto	2023-08-27T00:00:00	2024-11-08T13:00:00	4	Temperatura máxima	25.1
56991	7	Sololá	710	Panajachel	8	Panajachel	8	Agosto	2023-08-27T00:00:00	2024-11-08T13:00:00	3	Temperatura mínima	23.3
56992	7	Sololá	710	Panajachel	8	Panajachel	8	Agosto	2023-08-27T00:00:00	2024-11-08T13:00:00	5	Humedad	75
56993	7	Sololá	710	Panajachel	8	Panajachel	8	Agosto	2023-08-27T00:00:00	2024-11-08T13:00:00	6	Velocidad del viento	4.8
56994	7	Sololá	710	Panajachel	8	Panajachel	8	Agosto	2023-08-27T00:00:00	2024-11-08T13:00:00	7	Dirección del viento	4.83
56995	7	Sololá	710	Panajachel	8	Panajachel	8	Agosto	2023-08-27T00:00:00	2024-11-08T13:00:00	1	Precipitación	0
56996	7	Sololá	710	Panajachel	8	Panajachel	8	Agosto	2023-08-27T00:00:00	2024-11-08T13:00:00	8	Radiación solar	776
56997	7	Sololá	710	Panajachel	8	Panajachel	8	Agosto	2023-08-27T00:00:00	2024-11-08T14:00:00	2	Temperatura media	25.7
56998	7	Sololá	710	Panajachel	8	Panajachel	8	Agosto	2023-08-27T00:00:00	2024-11-08T14:00:00	4	Temperatura máxima	25.8
56999	7	Sololá	710	Panajachel	8	Panajachel	8	Agosto	2023-08-27T00:00:00	2024-11-08T14:00:00	3	Temperatura mínima	24.9
57000	7	Sololá	710	Panajachel	8	Panajachel	8	Agosto	2023-08-27T00:00:00	2024-11-08T14:00:00	5	Humedad	72
57001	7	Sololá	710	Panajachel	8	Panajachel	8	Agosto	2023-08-27T00:00:00	2024-11-08T14:00:00	6	Velocidad del viento	1.6
57002	7	Sololá	710	Panajachel	8	Panajachel	8	Agosto	2023-08-27T00:00:00	2024-11-08T14:00:00	7	Dirección del viento	1.61
57003	7	Sololá	710	Panajachel	8	Panajachel	8	Agosto	2023-08-27T00:00:00	2024-11-08T14:00:00	1	Precipitación	0
57004	7	Sololá	710	Panajachel	8	Panajachel	8	Agosto	2023-08-27T00:00:00	2024-11-08T14:00:00	8	Radiación solar	801
57005	7	Sololá	710	Panajachel	8	Panajachel	8	Agosto	2023-08-27T00:00:00	2024-11-08T15:00:00	2	Temperatura media	23.7
57006	7	Sololá	710	Panajachel	8	Panajachel	8	Agosto	2023-08-27T00:00:00	2024-11-08T15:00:00	4	Temperatura máxima	25.7
57007	7	Sololá	710	Panajachel	8	Panajachel	8	Agosto	2023-08-27T00:00:00	2024-11-08T15:00:00	3	Temperatura mínima	23.6
57008	7	Sololá	710	Panajachel	8	Panajachel	8	Agosto	2023-08-27T00:00:00	2024-11-08T15:00:00	5	Humedad	82
57009	7	Sololá	710	Panajachel	8	Panajachel	8	Agosto	2023-08-27T00:00:00	2024-11-08T15:00:00	6	Velocidad del viento	1.6
57010	7	Sololá	710	Panajachel	8	Panajachel	8	Agosto	2023-08-27T00:00:00	2024-11-08T15:00:00	7	Dirección del viento	1.61
57011	7	Sololá	710	Panajachel	8	Panajachel	8	Agosto	2023-08-27T00:00:00	2024-11-08T15:00:00	1	Precipitación	0
57012	7	Sololá	710	Panajachel	8	Panajachel	8	Agosto	2023-08-27T00:00:00	2024-11-08T15:00:00	8	Radiación solar	355
57013	7	Sololá	710	Panajachel	8	Panajachel	8	Agosto	2023-08-27T00:00:00	2024-11-08T16:00:00	2	Temperatura media	24.3
57014	7	Sololá	710	Panajachel	8	Panajachel	8	Agosto	2023-08-27T00:00:00	2024-11-08T16:00:00	4	Temperatura máxima	24.3
57015	7	Sololá	710	Panajachel	8	Panajachel	8	Agosto	2023-08-27T00:00:00	2024-11-08T16:00:00	3	Temperatura mínima	23.6
57016	7	Sololá	710	Panajachel	8	Panajachel	8	Agosto	2023-08-27T00:00:00	2024-11-08T16:00:00	5	Humedad	79
57017	7	Sololá	710	Panajachel	8	Panajachel	8	Agosto	2023-08-27T00:00:00	2024-11-08T16:00:00	6	Velocidad del viento	0
57018	7	Sololá	710	Panajachel	8	Panajachel	8	Agosto	2023-08-27T00:00:00	2024-11-08T16:00:00	7	Dirección del viento	0
57019	7	Sololá	710	Panajachel	8	Panajachel	8	Agosto	2023-08-27T00:00:00	2024-11-08T16:00:00	1	Precipitación	0
57020	7	Sololá	710	Panajachel	8	Panajachel	8	Agosto	2023-08-27T00:00:00	2024-11-08T16:00:00	8	Radiación solar	289
57021	7	Sololá	710	Panajachel	8	Panajachel	8	Agosto	2023-08-27T00:00:00	2024-11-08T17:00:00	2	Temperatura media	23.2
57022	7	Sololá	710	Panajachel	8	Panajachel	8	Agosto	2023-08-27T00:00:00	2024-11-08T17:00:00	4	Temperatura máxima	24.3
57023	7	Sololá	710	Panajachel	8	Panajachel	8	Agosto	2023-08-27T00:00:00	2024-11-08T17:00:00	3	Temperatura mínima	22.8
57024	7	Sololá	710	Panajachel	8	Panajachel	8	Agosto	2023-08-27T00:00:00	2024-11-08T17:00:00	5	Humedad	84
57025	7	Sololá	710	Panajachel	8	Panajachel	8	Agosto	2023-08-27T00:00:00	2024-11-08T17:00:00	6	Velocidad del viento	1.6
57026	7	Sololá	710	Panajachel	8	Panajachel	8	Agosto	2023-08-27T00:00:00	2024-11-08T17:00:00	7	Dirección del viento	1.61
57027	7	Sololá	710	Panajachel	8	Panajachel	8	Agosto	2023-08-27T00:00:00	2024-11-08T17:00:00	1	Precipitación	0
57028	7	Sololá	710	Panajachel	8	Panajachel	8	Agosto	2023-08-27T00:00:00	2024-11-08T17:00:00	8	Radiación solar	156
57029	7	Sololá	710	Panajachel	8	Panajachel	8	Agosto	2023-08-27T00:00:00	2024-11-08T18:00:00	2	Temperatura media	22.2
57030	7	Sololá	710	Panajachel	8	Panajachel	8	Agosto	2023-08-27T00:00:00	2024-11-08T18:00:00	4	Temperatura máxima	23.2
57031	7	Sololá	710	Panajachel	8	Panajachel	8	Agosto	2023-08-27T00:00:00	2024-11-08T18:00:00	3	Temperatura mínima	22.2
57032	7	Sololá	710	Panajachel	8	Panajachel	8	Agosto	2023-08-27T00:00:00	2024-11-08T18:00:00	5	Humedad	86
57033	7	Sololá	710	Panajachel	8	Panajachel	8	Agosto	2023-08-27T00:00:00	2024-11-08T18:00:00	6	Velocidad del viento	0
57034	7	Sololá	710	Panajachel	8	Panajachel	8	Agosto	2023-08-27T00:00:00	2024-11-08T18:00:00	7	Dirección del viento	0
57035	7	Sololá	710	Panajachel	8	Panajachel	8	Agosto	2023-08-27T00:00:00	2024-11-08T18:00:00	1	Precipitación	0
57036	7	Sololá	710	Panajachel	8	Panajachel	8	Agosto	2023-08-27T00:00:00	2024-11-08T18:00:00	8	Radiación solar	50
57037	7	Sololá	710	Panajachel	8	Panajachel	8	Agosto	2023-08-27T00:00:00	2024-11-08T19:00:00	2	Temperatura media	21.9
57038	7	Sololá	710	Panajachel	8	Panajachel	8	Agosto	2023-08-27T00:00:00	2024-11-08T19:00:00	4	Temperatura máxima	22.3
57039	7	Sololá	710	Panajachel	8	Panajachel	8	Agosto	2023-08-27T00:00:00	2024-11-08T19:00:00	3	Temperatura mínima	21.9
57040	7	Sololá	710	Panajachel	8	Panajachel	8	Agosto	2023-08-27T00:00:00	2024-11-08T19:00:00	5	Humedad	88
57041	7	Sololá	710	Panajachel	8	Panajachel	8	Agosto	2023-08-27T00:00:00	2024-11-08T19:00:00	6	Velocidad del viento	0
57042	7	Sololá	710	Panajachel	8	Panajachel	8	Agosto	2023-08-27T00:00:00	2024-11-08T19:00:00	7	Dirección del viento	0
57043	7	Sololá	710	Panajachel	8	Panajachel	8	Agosto	2023-08-27T00:00:00	2024-11-08T19:00:00	1	Precipitación	0
57044	7	Sololá	710	Panajachel	8	Panajachel	8	Agosto	2023-08-27T00:00:00	2024-11-08T19:00:00	8	Radiación solar	0
57045	7	Sololá	710	Panajachel	8	Panajachel	8	Agosto	2023-08-27T00:00:00	2024-11-08T20:00:00	2	Temperatura media	20.4
57046	7	Sololá	710	Panajachel	8	Panajachel	8	Agosto	2023-08-27T00:00:00	2024-11-08T20:00:00	4	Temperatura máxima	22
57047	7	Sololá	710	Panajachel	8	Panajachel	8	Agosto	2023-08-27T00:00:00	2024-11-08T20:00:00	3	Temperatura mínima	20.4
57048	7	Sololá	710	Panajachel	8	Panajachel	8	Agosto	2023-08-27T00:00:00	2024-11-08T20:00:00	5	Humedad	83
57049	7	Sololá	710	Panajachel	8	Panajachel	8	Agosto	2023-08-27T00:00:00	2024-11-08T20:00:00	6	Velocidad del viento	3.2
57050	7	Sololá	710	Panajachel	8	Panajachel	8	Agosto	2023-08-27T00:00:00	2024-11-08T20:00:00	7	Dirección del viento	3.22
57051	7	Sololá	710	Panajachel	8	Panajachel	8	Agosto	2023-08-27T00:00:00	2024-11-08T20:00:00	1	Precipitación	0
57052	7	Sololá	710	Panajachel	8	Panajachel	8	Agosto	2023-08-27T00:00:00	2024-11-08T20:00:00	8	Radiación solar	0
57053	7	Sololá	710	Panajachel	8	Panajachel	8	Agosto	2023-08-27T00:00:00	2024-11-08T21:00:00	2	Temperatura media	20.3
57054	7	Sololá	710	Panajachel	8	Panajachel	8	Agosto	2023-08-27T00:00:00	2024-11-08T21:00:00	4	Temperatura máxima	20.5
57055	7	Sololá	710	Panajachel	8	Panajachel	8	Agosto	2023-08-27T00:00:00	2024-11-08T21:00:00	3	Temperatura mínima	20.3
57056	7	Sololá	710	Panajachel	8	Panajachel	8	Agosto	2023-08-27T00:00:00	2024-11-08T21:00:00	5	Humedad	87
57057	7	Sololá	710	Panajachel	8	Panajachel	8	Agosto	2023-08-27T00:00:00	2024-11-08T21:00:00	6	Velocidad del viento	0
57058	7	Sololá	710	Panajachel	8	Panajachel	8	Agosto	2023-08-27T00:00:00	2024-11-08T21:00:00	7	Dirección del viento	0
57059	7	Sololá	710	Panajachel	8	Panajachel	8	Agosto	2023-08-27T00:00:00	2024-11-08T21:00:00	1	Precipitación	0
57060	7	Sololá	710	Panajachel	8	Panajachel	8	Agosto	2023-08-27T00:00:00	2024-11-08T21:00:00	8	Radiación solar	0
57061	7	Sololá	710	Panajachel	8	Panajachel	8	Agosto	2023-08-27T00:00:00	2024-11-08T22:00:00	2	Temperatura media	19.4
57062	7	Sololá	710	Panajachel	8	Panajachel	8	Agosto	2023-08-27T00:00:00	2024-11-08T22:00:00	4	Temperatura máxima	20.4
57063	7	Sololá	710	Panajachel	8	Panajachel	8	Agosto	2023-08-27T00:00:00	2024-11-08T22:00:00	3	Temperatura mínima	19.4
57064	7	Sololá	710	Panajachel	8	Panajachel	8	Agosto	2023-08-27T00:00:00	2024-11-08T22:00:00	5	Humedad	92
57065	7	Sololá	710	Panajachel	8	Panajachel	8	Agosto	2023-08-27T00:00:00	2024-11-08T22:00:00	6	Velocidad del viento	0
57066	7	Sololá	710	Panajachel	8	Panajachel	8	Agosto	2023-08-27T00:00:00	2024-11-08T22:00:00	7	Dirección del viento	0
57067	7	Sololá	710	Panajachel	8	Panajachel	8	Agosto	2023-08-27T00:00:00	2024-11-08T22:00:00	1	Precipitación	1
57068	7	Sololá	710	Panajachel	8	Panajachel	8	Agosto	2023-08-27T00:00:00	2024-11-08T22:00:00	8	Radiación solar	0
57069	7	Sololá	710	Panajachel	8	Panajachel	8	Agosto	2023-08-27T00:00:00	2024-11-08T23:00:00	2	Temperatura media	19.1
57070	7	Sololá	710	Panajachel	8	Panajachel	8	Agosto	2023-08-27T00:00:00	2024-11-08T23:00:00	4	Temperatura máxima	19.5
57071	7	Sololá	710	Panajachel	8	Panajachel	8	Agosto	2023-08-27T00:00:00	2024-11-08T23:00:00	3	Temperatura mínima	19
57072	7	Sololá	710	Panajachel	8	Panajachel	8	Agosto	2023-08-27T00:00:00	2024-11-08T23:00:00	5	Humedad	95
57073	7	Sololá	710	Panajachel	8	Panajachel	8	Agosto	2023-08-27T00:00:00	2024-11-08T23:00:00	6	Velocidad del viento	0
57074	7	Sololá	710	Panajachel	8	Panajachel	8	Agosto	2023-08-27T00:00:00	2024-11-08T23:00:00	7	Dirección del viento	0
57075	7	Sololá	710	Panajachel	8	Panajachel	8	Agosto	2023-08-27T00:00:00	2024-11-08T23:00:00	1	Precipitación	1
57076	7	Sololá	710	Panajachel	8	Panajachel	8	Agosto	2023-08-27T00:00:00	2024-11-08T23:00:00	8	Radiación solar	0
57077	7	Sololá	710	Panajachel	8	Panajachel	8	Agosto	2023-08-28T00:00:00	2024-11-08T00:00:00	2	Temperatura media	18.9
57078	7	Sololá	710	Panajachel	8	Panajachel	8	Agosto	2023-08-28T00:00:00	2024-11-08T00:00:00	4	Temperatura máxima	19.1
57079	7	Sololá	710	Panajachel	8	Panajachel	8	Agosto	2023-08-28T00:00:00	2024-11-08T00:00:00	3	Temperatura mínima	18.8
57080	7	Sololá	710	Panajachel	8	Panajachel	8	Agosto	2023-08-28T00:00:00	2024-11-08T00:00:00	5	Humedad	96
57081	7	Sololá	710	Panajachel	8	Panajachel	8	Agosto	2023-08-28T00:00:00	2024-11-08T00:00:00	6	Velocidad del viento	0
57082	7	Sololá	710	Panajachel	8	Panajachel	8	Agosto	2023-08-28T00:00:00	2024-11-08T00:00:00	7	Dirección del viento	0
57083	7	Sololá	710	Panajachel	8	Panajachel	8	Agosto	2023-08-28T00:00:00	2024-11-08T00:00:00	1	Precipitación	1
57084	7	Sololá	710	Panajachel	8	Panajachel	8	Agosto	2023-08-28T00:00:00	2024-11-08T00:00:00	8	Radiación solar	0
57085	7	Sololá	710	Panajachel	8	Panajachel	8	Agosto	2023-08-28T00:00:00	2024-11-08T01:00:00	2	Temperatura media	18.7
57086	7	Sololá	710	Panajachel	8	Panajachel	8	Agosto	2023-08-28T00:00:00	2024-11-08T01:00:00	4	Temperatura máxima	18.9
57087	7	Sololá	710	Panajachel	8	Panajachel	8	Agosto	2023-08-28T00:00:00	2024-11-08T01:00:00	3	Temperatura mínima	18.6
57088	7	Sololá	710	Panajachel	8	Panajachel	8	Agosto	2023-08-28T00:00:00	2024-11-08T01:00:00	5	Humedad	96
57089	7	Sololá	710	Panajachel	8	Panajachel	8	Agosto	2023-08-28T00:00:00	2024-11-08T01:00:00	6	Velocidad del viento	0
57090	7	Sololá	710	Panajachel	8	Panajachel	8	Agosto	2023-08-28T00:00:00	2024-11-08T01:00:00	7	Dirección del viento	0
57091	7	Sololá	710	Panajachel	8	Panajachel	8	Agosto	2023-08-28T00:00:00	2024-11-08T01:00:00	1	Precipitación	0.2
57092	7	Sololá	710	Panajachel	8	Panajachel	8	Agosto	2023-08-28T00:00:00	2024-11-08T01:00:00	8	Radiación solar	0
57093	7	Sololá	710	Panajachel	8	Panajachel	8	Agosto	2023-08-28T00:00:00	2024-11-08T02:00:00	2	Temperatura media	17.7
57094	7	Sololá	710	Panajachel	8	Panajachel	8	Agosto	2023-08-28T00:00:00	2024-11-08T02:00:00	4	Temperatura máxima	18.8
57095	7	Sololá	710	Panajachel	8	Panajachel	8	Agosto	2023-08-28T00:00:00	2024-11-08T02:00:00	3	Temperatura mínima	17.7
57096	7	Sololá	710	Panajachel	8	Panajachel	8	Agosto	2023-08-28T00:00:00	2024-11-08T02:00:00	5	Humedad	95
57097	7	Sololá	710	Panajachel	8	Panajachel	8	Agosto	2023-08-28T00:00:00	2024-11-08T02:00:00	6	Velocidad del viento	3.2
57098	7	Sololá	710	Panajachel	8	Panajachel	8	Agosto	2023-08-28T00:00:00	2024-11-08T02:00:00	7	Dirección del viento	3.22
57099	7	Sololá	710	Panajachel	8	Panajachel	8	Agosto	2023-08-28T00:00:00	2024-11-08T02:00:00	1	Precipitación	5.4
57100	7	Sololá	710	Panajachel	8	Panajachel	8	Agosto	2023-08-28T00:00:00	2024-11-08T02:00:00	8	Radiación solar	0
57101	7	Sololá	710	Panajachel	8	Panajachel	8	Agosto	2023-08-28T00:00:00	2024-11-08T03:00:00	2	Temperatura media	17.4
57102	7	Sololá	710	Panajachel	8	Panajachel	8	Agosto	2023-08-28T00:00:00	2024-11-08T03:00:00	4	Temperatura máxima	17.8
57103	7	Sololá	710	Panajachel	8	Panajachel	8	Agosto	2023-08-28T00:00:00	2024-11-08T03:00:00	3	Temperatura mínima	17.3
57104	7	Sololá	710	Panajachel	8	Panajachel	8	Agosto	2023-08-28T00:00:00	2024-11-08T03:00:00	5	Humedad	95
57105	7	Sololá	710	Panajachel	8	Panajachel	8	Agosto	2023-08-28T00:00:00	2024-11-08T03:00:00	6	Velocidad del viento	0
57106	7	Sololá	710	Panajachel	8	Panajachel	8	Agosto	2023-08-28T00:00:00	2024-11-08T03:00:00	7	Dirección del viento	0
57107	7	Sololá	710	Panajachel	8	Panajachel	8	Agosto	2023-08-28T00:00:00	2024-11-08T03:00:00	1	Precipitación	0
57108	7	Sololá	710	Panajachel	8	Panajachel	8	Agosto	2023-08-28T00:00:00	2024-11-08T03:00:00	8	Radiación solar	0
57109	7	Sololá	710	Panajachel	8	Panajachel	8	Agosto	2023-08-28T00:00:00	2024-11-08T04:00:00	2	Temperatura media	17.3
57110	7	Sololá	710	Panajachel	8	Panajachel	8	Agosto	2023-08-28T00:00:00	2024-11-08T04:00:00	4	Temperatura máxima	17.4
57111	7	Sololá	710	Panajachel	8	Panajachel	8	Agosto	2023-08-28T00:00:00	2024-11-08T04:00:00	3	Temperatura mínima	17.2
57112	7	Sololá	710	Panajachel	8	Panajachel	8	Agosto	2023-08-28T00:00:00	2024-11-08T04:00:00	5	Humedad	94
57113	7	Sololá	710	Panajachel	8	Panajachel	8	Agosto	2023-08-28T00:00:00	2024-11-08T04:00:00	6	Velocidad del viento	0
57114	7	Sololá	710	Panajachel	8	Panajachel	8	Agosto	2023-08-28T00:00:00	2024-11-08T04:00:00	7	Dirección del viento	0
57115	7	Sololá	710	Panajachel	8	Panajachel	8	Agosto	2023-08-28T00:00:00	2024-11-08T04:00:00	1	Precipitación	0.2
57116	7	Sololá	710	Panajachel	8	Panajachel	8	Agosto	2023-08-28T00:00:00	2024-11-08T04:00:00	8	Radiación solar	0
57117	7	Sololá	710	Panajachel	8	Panajachel	8	Agosto	2023-08-28T00:00:00	2024-11-08T05:00:00	2	Temperatura media	17.1
57118	7	Sololá	710	Panajachel	8	Panajachel	8	Agosto	2023-08-28T00:00:00	2024-11-08T05:00:00	4	Temperatura máxima	17.3
57119	7	Sololá	710	Panajachel	8	Panajachel	8	Agosto	2023-08-28T00:00:00	2024-11-08T05:00:00	3	Temperatura mínima	17.1
57120	7	Sololá	710	Panajachel	8	Panajachel	8	Agosto	2023-08-28T00:00:00	2024-11-08T05:00:00	5	Humedad	94
57121	7	Sololá	710	Panajachel	8	Panajachel	8	Agosto	2023-08-28T00:00:00	2024-11-08T05:00:00	6	Velocidad del viento	0
57122	7	Sololá	710	Panajachel	8	Panajachel	8	Agosto	2023-08-28T00:00:00	2024-11-08T05:00:00	7	Dirección del viento	0
57123	7	Sololá	710	Panajachel	8	Panajachel	8	Agosto	2023-08-28T00:00:00	2024-11-08T05:00:00	1	Precipitación	0
57124	7	Sololá	710	Panajachel	8	Panajachel	8	Agosto	2023-08-28T00:00:00	2024-11-08T05:00:00	8	Radiación solar	0
57125	7	Sololá	710	Panajachel	8	Panajachel	8	Agosto	2023-08-28T00:00:00	2024-11-08T06:00:00	2	Temperatura media	16.9
57126	7	Sololá	710	Panajachel	8	Panajachel	8	Agosto	2023-08-28T00:00:00	2024-11-08T06:00:00	4	Temperatura máxima	17.2
57127	7	Sololá	710	Panajachel	8	Panajachel	8	Agosto	2023-08-28T00:00:00	2024-11-08T06:00:00	3	Temperatura mínima	16.8
57128	7	Sololá	710	Panajachel	8	Panajachel	8	Agosto	2023-08-28T00:00:00	2024-11-08T06:00:00	5	Humedad	94
57129	7	Sololá	710	Panajachel	8	Panajachel	8	Agosto	2023-08-28T00:00:00	2024-11-08T06:00:00	6	Velocidad del viento	1.6
57130	7	Sololá	710	Panajachel	8	Panajachel	8	Agosto	2023-08-28T00:00:00	2024-11-08T06:00:00	7	Dirección del viento	1.61
57131	7	Sololá	710	Panajachel	8	Panajachel	8	Agosto	2023-08-28T00:00:00	2024-11-08T06:00:00	1	Precipitación	0
57132	7	Sololá	710	Panajachel	8	Panajachel	8	Agosto	2023-08-28T00:00:00	2024-11-08T06:00:00	8	Radiación solar	0
57133	7	Sololá	710	Panajachel	8	Panajachel	8	Agosto	2023-08-28T00:00:00	2024-11-08T07:00:00	2	Temperatura media	17.9
57134	7	Sololá	710	Panajachel	8	Panajachel	8	Agosto	2023-08-28T00:00:00	2024-11-08T07:00:00	4	Temperatura máxima	17.9
57135	7	Sololá	710	Panajachel	8	Panajachel	8	Agosto	2023-08-28T00:00:00	2024-11-08T07:00:00	3	Temperatura mínima	16.8
57136	7	Sololá	710	Panajachel	8	Panajachel	8	Agosto	2023-08-28T00:00:00	2024-11-08T07:00:00	5	Humedad	92
57137	7	Sololá	710	Panajachel	8	Panajachel	8	Agosto	2023-08-28T00:00:00	2024-11-08T07:00:00	6	Velocidad del viento	1.6
57138	7	Sololá	710	Panajachel	8	Panajachel	8	Agosto	2023-08-28T00:00:00	2024-11-08T07:00:00	7	Dirección del viento	1.61
57139	7	Sololá	710	Panajachel	8	Panajachel	8	Agosto	2023-08-28T00:00:00	2024-11-08T07:00:00	1	Precipitación	0
57140	7	Sololá	710	Panajachel	8	Panajachel	8	Agosto	2023-08-28T00:00:00	2024-11-08T07:00:00	8	Radiación solar	49
57141	7	Sololá	710	Panajachel	8	Panajachel	8	Agosto	2023-08-28T00:00:00	2024-11-08T08:00:00	2	Temperatura media	20.7
57142	7	Sololá	710	Panajachel	8	Panajachel	8	Agosto	2023-08-28T00:00:00	2024-11-08T08:00:00	4	Temperatura máxima	20.7
57143	7	Sololá	710	Panajachel	8	Panajachel	8	Agosto	2023-08-28T00:00:00	2024-11-08T08:00:00	3	Temperatura mínima	17.9
57144	7	Sololá	710	Panajachel	8	Panajachel	8	Agosto	2023-08-28T00:00:00	2024-11-08T08:00:00	5	Humedad	83
57145	7	Sololá	710	Panajachel	8	Panajachel	8	Agosto	2023-08-28T00:00:00	2024-11-08T08:00:00	6	Velocidad del viento	0
57146	7	Sololá	710	Panajachel	8	Panajachel	8	Agosto	2023-08-28T00:00:00	2024-11-08T08:00:00	7	Dirección del viento	0
57147	7	Sololá	710	Panajachel	8	Panajachel	8	Agosto	2023-08-28T00:00:00	2024-11-08T08:00:00	1	Precipitación	0
57148	7	Sololá	710	Panajachel	8	Panajachel	8	Agosto	2023-08-28T00:00:00	2024-11-08T08:00:00	8	Radiación solar	270
57149	7	Sololá	710	Panajachel	8	Panajachel	8	Agosto	2023-08-28T00:00:00	2024-11-08T09:00:00	2	Temperatura media	21.8
57150	7	Sololá	710	Panajachel	8	Panajachel	8	Agosto	2023-08-28T00:00:00	2024-11-08T09:00:00	4	Temperatura máxima	21.8
57151	7	Sololá	710	Panajachel	8	Panajachel	8	Agosto	2023-08-28T00:00:00	2024-11-08T09:00:00	3	Temperatura mínima	20.6
57152	7	Sololá	710	Panajachel	8	Panajachel	8	Agosto	2023-08-28T00:00:00	2024-11-08T09:00:00	5	Humedad	79
57153	7	Sololá	710	Panajachel	8	Panajachel	8	Agosto	2023-08-28T00:00:00	2024-11-08T09:00:00	6	Velocidad del viento	0
57154	7	Sololá	710	Panajachel	8	Panajachel	8	Agosto	2023-08-28T00:00:00	2024-11-08T09:00:00	7	Dirección del viento	0
57155	7	Sololá	710	Panajachel	8	Panajachel	8	Agosto	2023-08-28T00:00:00	2024-11-08T09:00:00	1	Precipitación	0
57156	7	Sololá	710	Panajachel	8	Panajachel	8	Agosto	2023-08-28T00:00:00	2024-11-08T09:00:00	8	Radiación solar	508
57157	7	Sololá	710	Panajachel	8	Panajachel	8	Agosto	2023-08-28T00:00:00	2024-11-08T10:00:00	2	Temperatura media	22.3
57158	7	Sololá	710	Panajachel	8	Panajachel	8	Agosto	2023-08-28T00:00:00	2024-11-08T10:00:00	4	Temperatura máxima	22.7
57159	7	Sololá	710	Panajachel	8	Panajachel	8	Agosto	2023-08-28T00:00:00	2024-11-08T10:00:00	3	Temperatura mínima	21.8
57160	7	Sololá	710	Panajachel	8	Panajachel	8	Agosto	2023-08-28T00:00:00	2024-11-08T10:00:00	5	Humedad	77
57161	7	Sololá	710	Panajachel	8	Panajachel	8	Agosto	2023-08-28T00:00:00	2024-11-08T10:00:00	6	Velocidad del viento	1.6
57162	7	Sololá	710	Panajachel	8	Panajachel	8	Agosto	2023-08-28T00:00:00	2024-11-08T10:00:00	7	Dirección del viento	1.61
57163	7	Sololá	710	Panajachel	8	Panajachel	8	Agosto	2023-08-28T00:00:00	2024-11-08T10:00:00	1	Precipitación	0
57164	7	Sololá	710	Panajachel	8	Panajachel	8	Agosto	2023-08-28T00:00:00	2024-11-08T10:00:00	8	Radiación solar	763
57165	7	Sololá	710	Panajachel	8	Panajachel	8	Agosto	2023-08-28T00:00:00	2024-11-08T11:00:00	2	Temperatura media	23.4
57166	7	Sololá	710	Panajachel	8	Panajachel	8	Agosto	2023-08-28T00:00:00	2024-11-08T11:00:00	4	Temperatura máxima	23.6
57167	7	Sololá	710	Panajachel	8	Panajachel	8	Agosto	2023-08-28T00:00:00	2024-11-08T11:00:00	3	Temperatura mínima	22.3
57168	7	Sololá	710	Panajachel	8	Panajachel	8	Agosto	2023-08-28T00:00:00	2024-11-08T11:00:00	5	Humedad	74
57169	7	Sololá	710	Panajachel	8	Panajachel	8	Agosto	2023-08-28T00:00:00	2024-11-08T11:00:00	6	Velocidad del viento	1.6
57170	7	Sololá	710	Panajachel	8	Panajachel	8	Agosto	2023-08-28T00:00:00	2024-11-08T11:00:00	7	Dirección del viento	1.61
57171	7	Sololá	710	Panajachel	8	Panajachel	8	Agosto	2023-08-28T00:00:00	2024-11-08T11:00:00	1	Precipitación	0
57172	7	Sololá	710	Panajachel	8	Panajachel	8	Agosto	2023-08-28T00:00:00	2024-11-08T11:00:00	8	Radiación solar	887
57173	7	Sololá	710	Panajachel	8	Panajachel	8	Agosto	2023-08-28T00:00:00	2024-11-08T12:00:00	2	Temperatura media	23.8
57174	7	Sololá	710	Panajachel	8	Panajachel	8	Agosto	2023-08-28T00:00:00	2024-11-08T12:00:00	4	Temperatura máxima	24
57175	7	Sololá	710	Panajachel	8	Panajachel	8	Agosto	2023-08-28T00:00:00	2024-11-08T12:00:00	3	Temperatura mínima	22.8
57176	7	Sololá	710	Panajachel	8	Panajachel	8	Agosto	2023-08-28T00:00:00	2024-11-08T12:00:00	5	Humedad	76
57177	7	Sololá	710	Panajachel	8	Panajachel	8	Agosto	2023-08-28T00:00:00	2024-11-08T12:00:00	6	Velocidad del viento	0
57178	7	Sololá	710	Panajachel	8	Panajachel	8	Agosto	2023-08-28T00:00:00	2024-11-08T12:00:00	7	Dirección del viento	0
57179	7	Sololá	710	Panajachel	8	Panajachel	8	Agosto	2023-08-28T00:00:00	2024-11-08T12:00:00	1	Precipitación	0
57180	7	Sololá	710	Panajachel	8	Panajachel	8	Agosto	2023-08-28T00:00:00	2024-11-08T12:00:00	8	Radiación solar	804
57181	7	Sololá	710	Panajachel	8	Panajachel	8	Agosto	2023-08-28T00:00:00	2024-11-08T13:00:00	2	Temperatura media	23.3
57182	7	Sololá	710	Panajachel	8	Panajachel	8	Agosto	2023-08-28T00:00:00	2024-11-08T13:00:00	4	Temperatura máxima	24.5
57183	7	Sololá	710	Panajachel	8	Panajachel	8	Agosto	2023-08-28T00:00:00	2024-11-08T13:00:00	3	Temperatura mínima	23.2
57184	7	Sololá	710	Panajachel	8	Panajachel	8	Agosto	2023-08-28T00:00:00	2024-11-08T13:00:00	5	Humedad	84
57185	7	Sololá	710	Panajachel	8	Panajachel	8	Agosto	2023-08-28T00:00:00	2024-11-08T13:00:00	6	Velocidad del viento	1.6
57186	7	Sololá	710	Panajachel	8	Panajachel	8	Agosto	2023-08-28T00:00:00	2024-11-08T13:00:00	7	Dirección del viento	1.61
57187	7	Sololá	710	Panajachel	8	Panajachel	8	Agosto	2023-08-28T00:00:00	2024-11-08T13:00:00	1	Precipitación	0
57188	7	Sololá	710	Panajachel	8	Panajachel	8	Agosto	2023-08-28T00:00:00	2024-11-08T13:00:00	8	Radiación solar	802
57189	7	Sololá	710	Panajachel	8	Panajachel	8	Agosto	2023-08-28T00:00:00	2024-11-08T14:00:00	2	Temperatura media	23.5
57190	7	Sololá	710	Panajachel	8	Panajachel	8	Agosto	2023-08-28T00:00:00	2024-11-08T14:00:00	4	Temperatura máxima	23.8
57191	7	Sololá	710	Panajachel	8	Panajachel	8	Agosto	2023-08-28T00:00:00	2024-11-08T14:00:00	3	Temperatura mínima	22.8
57192	7	Sololá	710	Panajachel	8	Panajachel	8	Agosto	2023-08-28T00:00:00	2024-11-08T14:00:00	5	Humedad	80
57193	7	Sololá	710	Panajachel	8	Panajachel	8	Agosto	2023-08-28T00:00:00	2024-11-08T14:00:00	6	Velocidad del viento	4.8
57194	7	Sololá	710	Panajachel	8	Panajachel	8	Agosto	2023-08-28T00:00:00	2024-11-08T14:00:00	7	Dirección del viento	4.83
57195	7	Sololá	710	Panajachel	8	Panajachel	8	Agosto	2023-08-28T00:00:00	2024-11-08T14:00:00	1	Precipitación	0
57196	7	Sololá	710	Panajachel	8	Panajachel	8	Agosto	2023-08-28T00:00:00	2024-11-08T14:00:00	8	Radiación solar	507
57197	7	Sololá	710	Panajachel	8	Panajachel	8	Agosto	2023-08-28T00:00:00	2024-11-08T15:00:00	2	Temperatura media	20.7
57198	7	Sololá	710	Panajachel	8	Panajachel	8	Agosto	2023-08-28T00:00:00	2024-11-08T15:00:00	4	Temperatura máxima	23.5
57199	7	Sololá	710	Panajachel	8	Panajachel	8	Agosto	2023-08-28T00:00:00	2024-11-08T15:00:00	3	Temperatura mínima	20.7
57200	7	Sololá	710	Panajachel	8	Panajachel	8	Agosto	2023-08-28T00:00:00	2024-11-08T15:00:00	5	Humedad	91
57201	7	Sololá	710	Panajachel	8	Panajachel	8	Agosto	2023-08-28T00:00:00	2024-11-08T15:00:00	6	Velocidad del viento	4.8
57202	7	Sololá	710	Panajachel	8	Panajachel	8	Agosto	2023-08-28T00:00:00	2024-11-08T15:00:00	7	Dirección del viento	4.83
57203	7	Sololá	710	Panajachel	8	Panajachel	8	Agosto	2023-08-28T00:00:00	2024-11-08T15:00:00	1	Precipitación	0
57204	7	Sololá	710	Panajachel	8	Panajachel	8	Agosto	2023-08-28T00:00:00	2024-11-08T15:00:00	8	Radiación solar	55
57205	7	Sololá	710	Panajachel	8	Panajachel	8	Agosto	2023-08-28T00:00:00	2024-11-08T16:00:00	2	Temperatura media	20.9
57206	7	Sololá	710	Panajachel	8	Panajachel	8	Agosto	2023-08-28T00:00:00	2024-11-08T16:00:00	4	Temperatura máxima	21.1
57207	7	Sololá	710	Panajachel	8	Panajachel	8	Agosto	2023-08-28T00:00:00	2024-11-08T16:00:00	3	Temperatura mínima	20.4
57208	7	Sololá	710	Panajachel	8	Panajachel	8	Agosto	2023-08-28T00:00:00	2024-11-08T16:00:00	5	Humedad	90
57209	7	Sololá	710	Panajachel	8	Panajachel	8	Agosto	2023-08-28T00:00:00	2024-11-08T16:00:00	6	Velocidad del viento	3.2
57210	7	Sololá	710	Panajachel	8	Panajachel	8	Agosto	2023-08-28T00:00:00	2024-11-08T16:00:00	7	Dirección del viento	3.22
57211	7	Sololá	710	Panajachel	8	Panajachel	8	Agosto	2023-08-28T00:00:00	2024-11-08T16:00:00	1	Precipitación	0
57212	7	Sololá	710	Panajachel	8	Panajachel	8	Agosto	2023-08-28T00:00:00	2024-11-08T16:00:00	8	Radiación solar	120
57213	7	Sololá	710	Panajachel	8	Panajachel	8	Agosto	2023-08-28T00:00:00	2024-11-08T17:00:00	2	Temperatura media	20.1
57214	7	Sololá	710	Panajachel	8	Panajachel	8	Agosto	2023-08-28T00:00:00	2024-11-08T17:00:00	4	Temperatura máxima	20.9
57215	7	Sololá	710	Panajachel	8	Panajachel	8	Agosto	2023-08-28T00:00:00	2024-11-08T17:00:00	3	Temperatura mínima	20.1
57216	7	Sololá	710	Panajachel	8	Panajachel	8	Agosto	2023-08-28T00:00:00	2024-11-08T17:00:00	5	Humedad	92
57217	7	Sololá	710	Panajachel	8	Panajachel	8	Agosto	2023-08-28T00:00:00	2024-11-08T17:00:00	6	Velocidad del viento	0
57218	7	Sololá	710	Panajachel	8	Panajachel	8	Agosto	2023-08-28T00:00:00	2024-11-08T17:00:00	7	Dirección del viento	0
57219	7	Sololá	710	Panajachel	8	Panajachel	8	Agosto	2023-08-28T00:00:00	2024-11-08T17:00:00	1	Precipitación	0.4
57220	7	Sololá	710	Panajachel	8	Panajachel	8	Agosto	2023-08-28T00:00:00	2024-11-08T17:00:00	8	Radiación solar	30
57221	7	Sololá	710	Panajachel	8	Panajachel	8	Agosto	2023-08-28T00:00:00	2024-11-08T18:00:00	2	Temperatura media	19.8
57222	7	Sololá	710	Panajachel	8	Panajachel	8	Agosto	2023-08-28T00:00:00	2024-11-08T18:00:00	4	Temperatura máxima	20.1
57223	7	Sololá	710	Panajachel	8	Panajachel	8	Agosto	2023-08-28T00:00:00	2024-11-08T18:00:00	3	Temperatura mínima	19.5
57224	7	Sololá	710	Panajachel	8	Panajachel	8	Agosto	2023-08-28T00:00:00	2024-11-08T18:00:00	5	Humedad	90
57225	7	Sololá	710	Panajachel	8	Panajachel	8	Agosto	2023-08-28T00:00:00	2024-11-08T18:00:00	6	Velocidad del viento	3.2
57226	7	Sololá	710	Panajachel	8	Panajachel	8	Agosto	2023-08-28T00:00:00	2024-11-08T18:00:00	7	Dirección del viento	3.22
57227	7	Sololá	710	Panajachel	8	Panajachel	8	Agosto	2023-08-28T00:00:00	2024-11-08T18:00:00	1	Precipitación	0.2
57228	7	Sololá	710	Panajachel	8	Panajachel	8	Agosto	2023-08-28T00:00:00	2024-11-08T18:00:00	8	Radiación solar	16
57229	7	Sololá	710	Panajachel	8	Panajachel	8	Agosto	2023-08-28T00:00:00	2024-11-08T19:00:00	2	Temperatura media	18.6
57230	7	Sololá	710	Panajachel	8	Panajachel	8	Agosto	2023-08-28T00:00:00	2024-11-08T19:00:00	4	Temperatura máxima	19.8
57231	7	Sololá	710	Panajachel	8	Panajachel	8	Agosto	2023-08-28T00:00:00	2024-11-08T19:00:00	3	Temperatura mínima	18.6
57232	7	Sololá	710	Panajachel	8	Panajachel	8	Agosto	2023-08-28T00:00:00	2024-11-08T19:00:00	5	Humedad	92
57233	7	Sololá	710	Panajachel	8	Panajachel	8	Agosto	2023-08-28T00:00:00	2024-11-08T19:00:00	6	Velocidad del viento	1.6
57234	7	Sololá	710	Panajachel	8	Panajachel	8	Agosto	2023-08-28T00:00:00	2024-11-08T19:00:00	7	Dirección del viento	1.61
57235	7	Sololá	710	Panajachel	8	Panajachel	8	Agosto	2023-08-28T00:00:00	2024-11-08T19:00:00	1	Precipitación	0.2
57236	7	Sololá	710	Panajachel	8	Panajachel	8	Agosto	2023-08-28T00:00:00	2024-11-08T19:00:00	8	Radiación solar	0
57237	7	Sololá	710	Panajachel	8	Panajachel	8	Agosto	2023-08-28T00:00:00	2024-11-08T20:00:00	2	Temperatura media	18.3
57238	7	Sololá	710	Panajachel	8	Panajachel	8	Agosto	2023-08-28T00:00:00	2024-11-08T20:00:00	4	Temperatura máxima	18.6
57239	7	Sololá	710	Panajachel	8	Panajachel	8	Agosto	2023-08-28T00:00:00	2024-11-08T20:00:00	3	Temperatura mínima	18.3
57240	7	Sololá	710	Panajachel	8	Panajachel	8	Agosto	2023-08-28T00:00:00	2024-11-08T20:00:00	5	Humedad	93
57241	7	Sololá	710	Panajachel	8	Panajachel	8	Agosto	2023-08-28T00:00:00	2024-11-08T20:00:00	6	Velocidad del viento	0
57242	7	Sololá	710	Panajachel	8	Panajachel	8	Agosto	2023-08-28T00:00:00	2024-11-08T20:00:00	7	Dirección del viento	0
57243	7	Sololá	710	Panajachel	8	Panajachel	8	Agosto	2023-08-28T00:00:00	2024-11-08T20:00:00	1	Precipitación	0
57244	7	Sololá	710	Panajachel	8	Panajachel	8	Agosto	2023-08-28T00:00:00	2024-11-08T20:00:00	8	Radiación solar	0
57245	7	Sololá	710	Panajachel	8	Panajachel	8	Agosto	2023-08-28T00:00:00	2024-11-08T21:00:00	2	Temperatura media	18.3
57246	7	Sololá	710	Panajachel	8	Panajachel	8	Agosto	2023-08-28T00:00:00	2024-11-08T21:00:00	4	Temperatura máxima	18.4
57247	7	Sololá	710	Panajachel	8	Panajachel	8	Agosto	2023-08-28T00:00:00	2024-11-08T21:00:00	3	Temperatura mínima	18.3
57248	7	Sololá	710	Panajachel	8	Panajachel	8	Agosto	2023-08-28T00:00:00	2024-11-08T21:00:00	5	Humedad	92
57249	7	Sololá	710	Panajachel	8	Panajachel	8	Agosto	2023-08-28T00:00:00	2024-11-08T21:00:00	6	Velocidad del viento	0
57250	7	Sololá	710	Panajachel	8	Panajachel	8	Agosto	2023-08-28T00:00:00	2024-11-08T21:00:00	7	Dirección del viento	0
57251	7	Sololá	710	Panajachel	8	Panajachel	8	Agosto	2023-08-28T00:00:00	2024-11-08T21:00:00	1	Precipitación	0
57252	7	Sololá	710	Panajachel	8	Panajachel	8	Agosto	2023-08-28T00:00:00	2024-11-08T21:00:00	8	Radiación solar	0
57253	7	Sololá	710	Panajachel	8	Panajachel	8	Agosto	2023-08-28T00:00:00	2024-11-08T22:00:00	2	Temperatura media	18
57254	7	Sololá	710	Panajachel	8	Panajachel	8	Agosto	2023-08-28T00:00:00	2024-11-08T22:00:00	4	Temperatura máxima	18.3
57255	7	Sololá	710	Panajachel	8	Panajachel	8	Agosto	2023-08-28T00:00:00	2024-11-08T22:00:00	3	Temperatura mínima	18
57256	7	Sololá	710	Panajachel	8	Panajachel	8	Agosto	2023-08-28T00:00:00	2024-11-08T22:00:00	5	Humedad	93
57257	7	Sololá	710	Panajachel	8	Panajachel	8	Agosto	2023-08-28T00:00:00	2024-11-08T22:00:00	6	Velocidad del viento	0
57258	7	Sololá	710	Panajachel	8	Panajachel	8	Agosto	2023-08-28T00:00:00	2024-11-08T22:00:00	7	Dirección del viento	0
57259	7	Sololá	710	Panajachel	8	Panajachel	8	Agosto	2023-08-28T00:00:00	2024-11-08T22:00:00	1	Precipitación	0
57260	7	Sololá	710	Panajachel	8	Panajachel	8	Agosto	2023-08-28T00:00:00	2024-11-08T22:00:00	8	Radiación solar	0
57261	7	Sololá	710	Panajachel	8	Panajachel	8	Agosto	2023-08-28T00:00:00	2024-11-08T23:00:00	2	Temperatura media	17.9
57262	7	Sololá	710	Panajachel	8	Panajachel	8	Agosto	2023-08-28T00:00:00	2024-11-08T23:00:00	4	Temperatura máxima	18.1
57263	7	Sololá	710	Panajachel	8	Panajachel	8	Agosto	2023-08-28T00:00:00	2024-11-08T23:00:00	3	Temperatura mínima	17.8
57264	7	Sololá	710	Panajachel	8	Panajachel	8	Agosto	2023-08-28T00:00:00	2024-11-08T23:00:00	5	Humedad	94
57265	7	Sololá	710	Panajachel	8	Panajachel	8	Agosto	2023-08-28T00:00:00	2024-11-08T23:00:00	6	Velocidad del viento	0
57266	7	Sololá	710	Panajachel	8	Panajachel	8	Agosto	2023-08-28T00:00:00	2024-11-08T23:00:00	7	Dirección del viento	0
57267	7	Sololá	710	Panajachel	8	Panajachel	8	Agosto	2023-08-28T00:00:00	2024-11-08T23:00:00	1	Precipitación	0
57268	7	Sololá	710	Panajachel	8	Panajachel	8	Agosto	2023-08-28T00:00:00	2024-11-08T23:00:00	8	Radiación solar	0
57269	7	Sololá	710	Panajachel	8	Panajachel	8	Agosto	2023-08-29T00:00:00	2024-11-08T00:00:00	2	Temperatura media	17.9
57270	7	Sololá	710	Panajachel	8	Panajachel	8	Agosto	2023-08-29T00:00:00	2024-11-08T00:00:00	4	Temperatura máxima	18
57271	7	Sololá	710	Panajachel	8	Panajachel	8	Agosto	2023-08-29T00:00:00	2024-11-08T00:00:00	3	Temperatura mínima	17.8
57272	7	Sololá	710	Panajachel	8	Panajachel	8	Agosto	2023-08-29T00:00:00	2024-11-08T00:00:00	5	Humedad	91
57273	7	Sololá	710	Panajachel	8	Panajachel	8	Agosto	2023-08-29T00:00:00	2024-11-08T00:00:00	6	Velocidad del viento	1.6
57274	7	Sololá	710	Panajachel	8	Panajachel	8	Agosto	2023-08-29T00:00:00	2024-11-08T00:00:00	7	Dirección del viento	1.61
57275	7	Sololá	710	Panajachel	8	Panajachel	8	Agosto	2023-08-29T00:00:00	2024-11-08T00:00:00	1	Precipitación	0
57276	7	Sololá	710	Panajachel	8	Panajachel	8	Agosto	2023-08-29T00:00:00	2024-11-08T00:00:00	8	Radiación solar	0
57277	7	Sololá	710	Panajachel	8	Panajachel	8	Agosto	2023-08-29T00:00:00	2024-11-08T01:00:00	2	Temperatura media	17.9
57278	7	Sololá	710	Panajachel	8	Panajachel	8	Agosto	2023-08-29T00:00:00	2024-11-08T01:00:00	4	Temperatura máxima	18
57279	7	Sololá	710	Panajachel	8	Panajachel	8	Agosto	2023-08-29T00:00:00	2024-11-08T01:00:00	3	Temperatura mínima	17.8
57280	7	Sololá	710	Panajachel	8	Panajachel	8	Agosto	2023-08-29T00:00:00	2024-11-08T01:00:00	5	Humedad	91
57281	7	Sololá	710	Panajachel	8	Panajachel	8	Agosto	2023-08-29T00:00:00	2024-11-08T01:00:00	6	Velocidad del viento	1.6
57282	7	Sololá	710	Panajachel	8	Panajachel	8	Agosto	2023-08-29T00:00:00	2024-11-08T01:00:00	7	Dirección del viento	1.61
57283	7	Sololá	710	Panajachel	8	Panajachel	8	Agosto	2023-08-29T00:00:00	2024-11-08T01:00:00	1	Precipitación	0
57284	7	Sololá	710	Panajachel	8	Panajachel	8	Agosto	2023-08-29T00:00:00	2024-11-08T01:00:00	8	Radiación solar	0
57285	7	Sololá	710	Panajachel	8	Panajachel	8	Agosto	2023-08-29T00:00:00	2024-11-08T02:00:00	2	Temperatura media	17.6
57286	7	Sololá	710	Panajachel	8	Panajachel	8	Agosto	2023-08-29T00:00:00	2024-11-08T02:00:00	4	Temperatura máxima	17.9
57287	7	Sololá	710	Panajachel	8	Panajachel	8	Agosto	2023-08-29T00:00:00	2024-11-08T02:00:00	3	Temperatura mínima	17.6
57288	7	Sololá	710	Panajachel	8	Panajachel	8	Agosto	2023-08-29T00:00:00	2024-11-08T02:00:00	5	Humedad	92
57289	7	Sololá	710	Panajachel	8	Panajachel	8	Agosto	2023-08-29T00:00:00	2024-11-08T02:00:00	6	Velocidad del viento	0
57290	7	Sololá	710	Panajachel	8	Panajachel	8	Agosto	2023-08-29T00:00:00	2024-11-08T02:00:00	7	Dirección del viento	0
57291	7	Sololá	710	Panajachel	8	Panajachel	8	Agosto	2023-08-29T00:00:00	2024-11-08T02:00:00	1	Precipitación	0
57292	7	Sololá	710	Panajachel	8	Panajachel	8	Agosto	2023-08-29T00:00:00	2024-11-08T02:00:00	8	Radiación solar	0
57293	7	Sololá	710	Panajachel	8	Panajachel	8	Agosto	2023-08-29T00:00:00	2024-11-08T03:00:00	2	Temperatura media	17.5
57294	7	Sololá	710	Panajachel	8	Panajachel	8	Agosto	2023-08-29T00:00:00	2024-11-08T03:00:00	4	Temperatura máxima	17.6
57295	7	Sololá	710	Panajachel	8	Panajachel	8	Agosto	2023-08-29T00:00:00	2024-11-08T03:00:00	3	Temperatura mínima	17.4
57296	7	Sololá	710	Panajachel	8	Panajachel	8	Agosto	2023-08-29T00:00:00	2024-11-08T03:00:00	5	Humedad	92
57297	7	Sololá	710	Panajachel	8	Panajachel	8	Agosto	2023-08-29T00:00:00	2024-11-08T03:00:00	6	Velocidad del viento	1.6
57298	7	Sololá	710	Panajachel	8	Panajachel	8	Agosto	2023-08-29T00:00:00	2024-11-08T03:00:00	7	Dirección del viento	1.61
57299	7	Sololá	710	Panajachel	8	Panajachel	8	Agosto	2023-08-29T00:00:00	2024-11-08T03:00:00	1	Precipitación	0
57300	7	Sololá	710	Panajachel	8	Panajachel	8	Agosto	2023-08-29T00:00:00	2024-11-08T03:00:00	8	Radiación solar	0
57301	7	Sololá	710	Panajachel	8	Panajachel	8	Agosto	2023-08-29T00:00:00	2024-11-08T04:00:00	2	Temperatura media	17.8
57302	7	Sololá	710	Panajachel	8	Panajachel	8	Agosto	2023-08-29T00:00:00	2024-11-08T04:00:00	4	Temperatura máxima	17.9
57303	7	Sololá	710	Panajachel	8	Panajachel	8	Agosto	2023-08-29T00:00:00	2024-11-08T04:00:00	3	Temperatura mínima	17.5
57304	7	Sololá	710	Panajachel	8	Panajachel	8	Agosto	2023-08-29T00:00:00	2024-11-08T04:00:00	5	Humedad	89
57305	7	Sololá	710	Panajachel	8	Panajachel	8	Agosto	2023-08-29T00:00:00	2024-11-08T04:00:00	6	Velocidad del viento	1.6
57306	7	Sololá	710	Panajachel	8	Panajachel	8	Agosto	2023-08-29T00:00:00	2024-11-08T04:00:00	7	Dirección del viento	1.61
57307	7	Sololá	710	Panajachel	8	Panajachel	8	Agosto	2023-08-29T00:00:00	2024-11-08T04:00:00	1	Precipitación	0
57308	7	Sololá	710	Panajachel	8	Panajachel	8	Agosto	2023-08-29T00:00:00	2024-11-08T04:00:00	8	Radiación solar	0
57309	7	Sololá	710	Panajachel	8	Panajachel	8	Agosto	2023-08-29T00:00:00	2024-11-08T05:00:00	2	Temperatura media	17.1
57310	7	Sololá	710	Panajachel	8	Panajachel	8	Agosto	2023-08-29T00:00:00	2024-11-08T05:00:00	4	Temperatura máxima	17.8
57311	7	Sololá	710	Panajachel	8	Panajachel	8	Agosto	2023-08-29T00:00:00	2024-11-08T05:00:00	3	Temperatura mínima	17.1
57312	7	Sololá	710	Panajachel	8	Panajachel	8	Agosto	2023-08-29T00:00:00	2024-11-08T05:00:00	5	Humedad	91
57313	7	Sololá	710	Panajachel	8	Panajachel	8	Agosto	2023-08-29T00:00:00	2024-11-08T05:00:00	6	Velocidad del viento	1.6
57314	7	Sololá	710	Panajachel	8	Panajachel	8	Agosto	2023-08-29T00:00:00	2024-11-08T05:00:00	7	Dirección del viento	1.61
57315	7	Sololá	710	Panajachel	8	Panajachel	8	Agosto	2023-08-29T00:00:00	2024-11-08T05:00:00	1	Precipitación	0
57316	7	Sololá	710	Panajachel	8	Panajachel	8	Agosto	2023-08-29T00:00:00	2024-11-08T05:00:00	8	Radiación solar	0
57317	7	Sololá	710	Panajachel	8	Panajachel	8	Agosto	2023-08-29T00:00:00	2024-11-08T06:00:00	2	Temperatura media	17.2
57318	7	Sololá	710	Panajachel	8	Panajachel	8	Agosto	2023-08-29T00:00:00	2024-11-08T06:00:00	4	Temperatura máxima	17.2
57319	7	Sololá	710	Panajachel	8	Panajachel	8	Agosto	2023-08-29T00:00:00	2024-11-08T06:00:00	3	Temperatura mínima	17
57320	7	Sololá	710	Panajachel	8	Panajachel	8	Agosto	2023-08-29T00:00:00	2024-11-08T06:00:00	5	Humedad	89
57321	7	Sololá	710	Panajachel	8	Panajachel	8	Agosto	2023-08-29T00:00:00	2024-11-08T06:00:00	6	Velocidad del viento	3.2
57322	7	Sololá	710	Panajachel	8	Panajachel	8	Agosto	2023-08-29T00:00:00	2024-11-08T06:00:00	7	Dirección del viento	3.22
57323	7	Sololá	710	Panajachel	8	Panajachel	8	Agosto	2023-08-29T00:00:00	2024-11-08T06:00:00	1	Precipitación	0
57324	7	Sololá	710	Panajachel	8	Panajachel	8	Agosto	2023-08-29T00:00:00	2024-11-08T06:00:00	8	Radiación solar	0
57325	7	Sololá	710	Panajachel	8	Panajachel	8	Agosto	2023-08-29T00:00:00	2024-11-08T07:00:00	2	Temperatura media	17.8
57326	7	Sololá	710	Panajachel	8	Panajachel	8	Agosto	2023-08-29T00:00:00	2024-11-08T07:00:00	4	Temperatura máxima	17.8
57327	7	Sololá	710	Panajachel	8	Panajachel	8	Agosto	2023-08-29T00:00:00	2024-11-08T07:00:00	3	Temperatura mínima	17.2
57328	7	Sololá	710	Panajachel	8	Panajachel	8	Agosto	2023-08-29T00:00:00	2024-11-08T07:00:00	5	Humedad	88
57329	7	Sololá	710	Panajachel	8	Panajachel	8	Agosto	2023-08-29T00:00:00	2024-11-08T07:00:00	6	Velocidad del viento	3.2
57330	7	Sololá	710	Panajachel	8	Panajachel	8	Agosto	2023-08-29T00:00:00	2024-11-08T07:00:00	7	Dirección del viento	3.22
57331	7	Sololá	710	Panajachel	8	Panajachel	8	Agosto	2023-08-29T00:00:00	2024-11-08T07:00:00	1	Precipitación	0
57332	7	Sololá	710	Panajachel	8	Panajachel	8	Agosto	2023-08-29T00:00:00	2024-11-08T07:00:00	8	Radiación solar	40
57333	7	Sololá	710	Panajachel	8	Panajachel	8	Agosto	2023-08-29T00:00:00	2024-11-08T08:00:00	2	Temperatura media	19.2
57334	7	Sololá	710	Panajachel	8	Panajachel	8	Agosto	2023-08-29T00:00:00	2024-11-08T08:00:00	4	Temperatura máxima	19.2
57335	7	Sololá	710	Panajachel	8	Panajachel	8	Agosto	2023-08-29T00:00:00	2024-11-08T08:00:00	3	Temperatura mínima	17.8
57336	7	Sololá	710	Panajachel	8	Panajachel	8	Agosto	2023-08-29T00:00:00	2024-11-08T08:00:00	5	Humedad	87
57337	7	Sololá	710	Panajachel	8	Panajachel	8	Agosto	2023-08-29T00:00:00	2024-11-08T08:00:00	6	Velocidad del viento	0
57338	7	Sololá	710	Panajachel	8	Panajachel	8	Agosto	2023-08-29T00:00:00	2024-11-08T08:00:00	7	Dirección del viento	0
57339	7	Sololá	710	Panajachel	8	Panajachel	8	Agosto	2023-08-29T00:00:00	2024-11-08T08:00:00	1	Precipitación	0
57340	7	Sololá	710	Panajachel	8	Panajachel	8	Agosto	2023-08-29T00:00:00	2024-11-08T08:00:00	8	Radiación solar	114
57341	7	Sololá	710	Panajachel	8	Panajachel	8	Agosto	2023-08-29T00:00:00	2024-11-08T09:00:00	2	Temperatura media	21.3
57342	7	Sololá	710	Panajachel	8	Panajachel	8	Agosto	2023-08-29T00:00:00	2024-11-08T09:00:00	4	Temperatura máxima	21.7
57343	7	Sololá	710	Panajachel	8	Panajachel	8	Agosto	2023-08-29T00:00:00	2024-11-08T09:00:00	3	Temperatura mínima	19.2
57344	7	Sololá	710	Panajachel	8	Panajachel	8	Agosto	2023-08-29T00:00:00	2024-11-08T09:00:00	5	Humedad	81
57345	7	Sololá	710	Panajachel	8	Panajachel	8	Agosto	2023-08-29T00:00:00	2024-11-08T09:00:00	6	Velocidad del viento	0
57346	7	Sololá	710	Panajachel	8	Panajachel	8	Agosto	2023-08-29T00:00:00	2024-11-08T09:00:00	7	Dirección del viento	0
57347	7	Sololá	710	Panajachel	8	Panajachel	8	Agosto	2023-08-29T00:00:00	2024-11-08T09:00:00	1	Precipitación	0
57348	7	Sololá	710	Panajachel	8	Panajachel	8	Agosto	2023-08-29T00:00:00	2024-11-08T09:00:00	8	Radiación solar	355
57349	7	Sololá	710	Panajachel	8	Panajachel	8	Agosto	2023-08-29T00:00:00	2024-11-08T10:00:00	2	Temperatura media	21.5
57350	7	Sololá	710	Panajachel	8	Panajachel	8	Agosto	2023-08-29T00:00:00	2024-11-08T10:00:00	4	Temperatura máxima	21.7
57351	7	Sololá	710	Panajachel	8	Panajachel	8	Agosto	2023-08-29T00:00:00	2024-11-08T10:00:00	3	Temperatura mínima	21.1
57352	7	Sololá	710	Panajachel	8	Panajachel	8	Agosto	2023-08-29T00:00:00	2024-11-08T10:00:00	5	Humedad	81
57353	7	Sololá	710	Panajachel	8	Panajachel	8	Agosto	2023-08-29T00:00:00	2024-11-08T10:00:00	6	Velocidad del viento	3.2
57354	7	Sololá	710	Panajachel	8	Panajachel	8	Agosto	2023-08-29T00:00:00	2024-11-08T10:00:00	7	Dirección del viento	3.22
57355	7	Sololá	710	Panajachel	8	Panajachel	8	Agosto	2023-08-29T00:00:00	2024-11-08T10:00:00	1	Precipitación	0
57356	7	Sololá	710	Panajachel	8	Panajachel	8	Agosto	2023-08-29T00:00:00	2024-11-08T10:00:00	8	Radiación solar	575
57357	7	Sololá	710	Panajachel	8	Panajachel	8	Agosto	2023-08-29T00:00:00	2024-11-08T11:00:00	2	Temperatura media	21.8
57358	7	Sololá	710	Panajachel	8	Panajachel	8	Agosto	2023-08-29T00:00:00	2024-11-08T11:00:00	4	Temperatura máxima	22.6
57359	7	Sololá	710	Panajachel	8	Panajachel	8	Agosto	2023-08-29T00:00:00	2024-11-08T11:00:00	3	Temperatura mínima	21.4
57360	7	Sololá	710	Panajachel	8	Panajachel	8	Agosto	2023-08-29T00:00:00	2024-11-08T11:00:00	5	Humedad	81
57361	7	Sololá	710	Panajachel	8	Panajachel	8	Agosto	2023-08-29T00:00:00	2024-11-08T11:00:00	6	Velocidad del viento	1.6
57362	7	Sololá	710	Panajachel	8	Panajachel	8	Agosto	2023-08-29T00:00:00	2024-11-08T11:00:00	7	Dirección del viento	1.61
57363	7	Sololá	710	Panajachel	8	Panajachel	8	Agosto	2023-08-29T00:00:00	2024-11-08T11:00:00	1	Precipitación	0
57364	7	Sololá	710	Panajachel	8	Panajachel	8	Agosto	2023-08-29T00:00:00	2024-11-08T11:00:00	8	Radiación solar	612
57365	7	Sololá	710	Panajachel	8	Panajachel	8	Agosto	2023-08-29T00:00:00	2024-11-08T12:00:00	2	Temperatura media	22.5
57366	7	Sololá	710	Panajachel	8	Panajachel	8	Agosto	2023-08-29T00:00:00	2024-11-08T12:00:00	4	Temperatura máxima	23.8
57367	7	Sololá	710	Panajachel	8	Panajachel	8	Agosto	2023-08-29T00:00:00	2024-11-08T12:00:00	3	Temperatura mínima	21.8
57368	7	Sololá	710	Panajachel	8	Panajachel	8	Agosto	2023-08-29T00:00:00	2024-11-08T12:00:00	5	Humedad	80
57369	7	Sololá	710	Panajachel	8	Panajachel	8	Agosto	2023-08-29T00:00:00	2024-11-08T12:00:00	6	Velocidad del viento	0
57370	7	Sololá	710	Panajachel	8	Panajachel	8	Agosto	2023-08-29T00:00:00	2024-11-08T12:00:00	7	Dirección del viento	0
57371	7	Sololá	710	Panajachel	8	Panajachel	8	Agosto	2023-08-29T00:00:00	2024-11-08T12:00:00	1	Precipitación	0
57372	7	Sololá	710	Panajachel	8	Panajachel	8	Agosto	2023-08-29T00:00:00	2024-11-08T12:00:00	8	Radiación solar	832
57373	7	Sololá	710	Panajachel	8	Panajachel	8	Agosto	2023-08-29T00:00:00	2024-11-08T13:00:00	2	Temperatura media	23.3
57374	7	Sololá	710	Panajachel	8	Panajachel	8	Agosto	2023-08-29T00:00:00	2024-11-08T13:00:00	4	Temperatura máxima	23.4
57375	7	Sololá	710	Panajachel	8	Panajachel	8	Agosto	2023-08-29T00:00:00	2024-11-08T13:00:00	3	Temperatura mínima	22.3
57376	7	Sololá	710	Panajachel	8	Panajachel	8	Agosto	2023-08-29T00:00:00	2024-11-08T13:00:00	5	Humedad	80
57377	7	Sololá	710	Panajachel	8	Panajachel	8	Agosto	2023-08-29T00:00:00	2024-11-08T13:00:00	6	Velocidad del viento	3.2
57378	7	Sololá	710	Panajachel	8	Panajachel	8	Agosto	2023-08-29T00:00:00	2024-11-08T13:00:00	7	Dirección del viento	3.22
57379	7	Sololá	710	Panajachel	8	Panajachel	8	Agosto	2023-08-29T00:00:00	2024-11-08T13:00:00	1	Precipitación	0
57380	7	Sololá	710	Panajachel	8	Panajachel	8	Agosto	2023-08-29T00:00:00	2024-11-08T13:00:00	8	Radiación solar	525
57381	7	Sololá	710	Panajachel	8	Panajachel	8	Agosto	2023-08-29T00:00:00	2024-11-08T14:00:00	2	Temperatura media	24
57382	7	Sololá	710	Panajachel	8	Panajachel	8	Agosto	2023-08-29T00:00:00	2024-11-08T14:00:00	4	Temperatura máxima	24.6
57383	7	Sololá	710	Panajachel	8	Panajachel	8	Agosto	2023-08-29T00:00:00	2024-11-08T14:00:00	3	Temperatura mínima	23.3
57384	7	Sololá	710	Panajachel	8	Panajachel	8	Agosto	2023-08-29T00:00:00	2024-11-08T14:00:00	5	Humedad	74
57385	7	Sololá	710	Panajachel	8	Panajachel	8	Agosto	2023-08-29T00:00:00	2024-11-08T14:00:00	6	Velocidad del viento	4.8
57386	7	Sololá	710	Panajachel	8	Panajachel	8	Agosto	2023-08-29T00:00:00	2024-11-08T14:00:00	7	Dirección del viento	4.83
57387	7	Sololá	710	Panajachel	8	Panajachel	8	Agosto	2023-08-29T00:00:00	2024-11-08T14:00:00	1	Precipitación	0
57388	7	Sololá	710	Panajachel	8	Panajachel	8	Agosto	2023-08-29T00:00:00	2024-11-08T14:00:00	8	Radiación solar	823
57389	7	Sololá	710	Panajachel	8	Panajachel	8	Agosto	2023-08-29T00:00:00	2024-11-08T15:00:00	2	Temperatura media	23.1
57390	7	Sololá	710	Panajachel	8	Panajachel	8	Agosto	2023-08-29T00:00:00	2024-11-08T15:00:00	4	Temperatura máxima	23.9
57391	7	Sololá	710	Panajachel	8	Panajachel	8	Agosto	2023-08-29T00:00:00	2024-11-08T15:00:00	3	Temperatura mínima	22.9
57392	7	Sololá	710	Panajachel	8	Panajachel	8	Agosto	2023-08-29T00:00:00	2024-11-08T15:00:00	5	Humedad	81
57393	7	Sololá	710	Panajachel	8	Panajachel	8	Agosto	2023-08-29T00:00:00	2024-11-08T15:00:00	6	Velocidad del viento	1.6
57394	7	Sololá	710	Panajachel	8	Panajachel	8	Agosto	2023-08-29T00:00:00	2024-11-08T15:00:00	7	Dirección del viento	1.61
57395	7	Sololá	710	Panajachel	8	Panajachel	8	Agosto	2023-08-29T00:00:00	2024-11-08T15:00:00	1	Precipitación	0
57396	7	Sololá	710	Panajachel	8	Panajachel	8	Agosto	2023-08-29T00:00:00	2024-11-08T15:00:00	8	Radiación solar	244
57397	7	Sololá	710	Panajachel	8	Panajachel	8	Agosto	2023-08-29T00:00:00	2024-11-08T16:00:00	2	Temperatura media	22.3
57398	7	Sololá	710	Panajachel	8	Panajachel	8	Agosto	2023-08-29T00:00:00	2024-11-08T16:00:00	4	Temperatura máxima	23.2
57399	7	Sololá	710	Panajachel	8	Panajachel	8	Agosto	2023-08-29T00:00:00	2024-11-08T16:00:00	3	Temperatura mínima	22.3
57400	7	Sololá	710	Panajachel	8	Panajachel	8	Agosto	2023-08-29T00:00:00	2024-11-08T16:00:00	5	Humedad	82
57401	7	Sololá	710	Panajachel	8	Panajachel	8	Agosto	2023-08-29T00:00:00	2024-11-08T16:00:00	6	Velocidad del viento	1.6
57402	7	Sololá	710	Panajachel	8	Panajachel	8	Agosto	2023-08-29T00:00:00	2024-11-08T16:00:00	7	Dirección del viento	1.61
57403	7	Sololá	710	Panajachel	8	Panajachel	8	Agosto	2023-08-29T00:00:00	2024-11-08T16:00:00	1	Precipitación	0
57404	7	Sololá	710	Panajachel	8	Panajachel	8	Agosto	2023-08-29T00:00:00	2024-11-08T16:00:00	8	Radiación solar	125
57405	7	Sololá	710	Panajachel	8	Panajachel	8	Agosto	2023-08-29T00:00:00	2024-11-08T17:00:00	2	Temperatura media	21.8
57406	7	Sololá	710	Panajachel	8	Panajachel	8	Agosto	2023-08-29T00:00:00	2024-11-08T17:00:00	4	Temperatura máxima	22.3
57407	7	Sololá	710	Panajachel	8	Panajachel	8	Agosto	2023-08-29T00:00:00	2024-11-08T17:00:00	3	Temperatura mínima	21.7
57408	7	Sololá	710	Panajachel	8	Panajachel	8	Agosto	2023-08-29T00:00:00	2024-11-08T17:00:00	5	Humedad	85
57409	7	Sololá	710	Panajachel	8	Panajachel	8	Agosto	2023-08-29T00:00:00	2024-11-08T17:00:00	6	Velocidad del viento	0
57410	7	Sololá	710	Panajachel	8	Panajachel	8	Agosto	2023-08-29T00:00:00	2024-11-08T17:00:00	7	Dirección del viento	0
57411	7	Sololá	710	Panajachel	8	Panajachel	8	Agosto	2023-08-29T00:00:00	2024-11-08T17:00:00	1	Precipitación	0
57412	7	Sololá	710	Panajachel	8	Panajachel	8	Agosto	2023-08-29T00:00:00	2024-11-08T17:00:00	8	Radiación solar	33
57413	7	Sololá	710	Panajachel	8	Panajachel	8	Agosto	2023-08-29T00:00:00	2024-11-08T18:00:00	2	Temperatura media	20.9
57414	7	Sololá	710	Panajachel	8	Panajachel	8	Agosto	2023-08-29T00:00:00	2024-11-08T18:00:00	4	Temperatura máxima	21.7
57415	7	Sololá	710	Panajachel	8	Panajachel	8	Agosto	2023-08-29T00:00:00	2024-11-08T18:00:00	3	Temperatura mínima	20.9
57416	7	Sololá	710	Panajachel	8	Panajachel	8	Agosto	2023-08-29T00:00:00	2024-11-08T18:00:00	5	Humedad	90
57417	7	Sololá	710	Panajachel	8	Panajachel	8	Agosto	2023-08-29T00:00:00	2024-11-08T18:00:00	6	Velocidad del viento	0
57418	7	Sololá	710	Panajachel	8	Panajachel	8	Agosto	2023-08-29T00:00:00	2024-11-08T18:00:00	7	Dirección del viento	0
57419	7	Sololá	710	Panajachel	8	Panajachel	8	Agosto	2023-08-29T00:00:00	2024-11-08T18:00:00	1	Precipitación	0.4
57420	7	Sololá	710	Panajachel	8	Panajachel	8	Agosto	2023-08-29T00:00:00	2024-11-08T18:00:00	8	Radiación solar	12
57421	7	Sololá	710	Panajachel	8	Panajachel	8	Agosto	2023-08-29T00:00:00	2024-11-08T19:00:00	2	Temperatura media	19.4
57422	7	Sololá	710	Panajachel	8	Panajachel	8	Agosto	2023-08-29T00:00:00	2024-11-08T19:00:00	4	Temperatura máxima	20.9
57423	7	Sololá	710	Panajachel	8	Panajachel	8	Agosto	2023-08-29T00:00:00	2024-11-08T19:00:00	3	Temperatura mínima	19.4
57424	7	Sololá	710	Panajachel	8	Panajachel	8	Agosto	2023-08-29T00:00:00	2024-11-08T19:00:00	5	Humedad	96
57425	7	Sololá	710	Panajachel	8	Panajachel	8	Agosto	2023-08-29T00:00:00	2024-11-08T19:00:00	6	Velocidad del viento	0
57426	7	Sololá	710	Panajachel	8	Panajachel	8	Agosto	2023-08-29T00:00:00	2024-11-08T19:00:00	7	Dirección del viento	0
57427	7	Sololá	710	Panajachel	8	Panajachel	8	Agosto	2023-08-29T00:00:00	2024-11-08T19:00:00	1	Precipitación	1
57428	7	Sololá	710	Panajachel	8	Panajachel	8	Agosto	2023-08-29T00:00:00	2024-11-08T19:00:00	8	Radiación solar	0
57429	7	Sololá	710	Panajachel	8	Panajachel	8	Agosto	2023-08-29T00:00:00	2024-11-08T20:00:00	2	Temperatura media	18.7
57430	7	Sololá	710	Panajachel	8	Panajachel	8	Agosto	2023-08-29T00:00:00	2024-11-08T20:00:00	4	Temperatura máxima	19.6
57431	7	Sololá	710	Panajachel	8	Panajachel	8	Agosto	2023-08-29T00:00:00	2024-11-08T20:00:00	3	Temperatura mínima	18.6
57432	7	Sololá	710	Panajachel	8	Panajachel	8	Agosto	2023-08-29T00:00:00	2024-11-08T20:00:00	5	Humedad	94
57433	7	Sololá	710	Panajachel	8	Panajachel	8	Agosto	2023-08-29T00:00:00	2024-11-08T20:00:00	6	Velocidad del viento	0
57434	7	Sololá	710	Panajachel	8	Panajachel	8	Agosto	2023-08-29T00:00:00	2024-11-08T20:00:00	7	Dirección del viento	0
57435	7	Sololá	710	Panajachel	8	Panajachel	8	Agosto	2023-08-29T00:00:00	2024-11-08T20:00:00	1	Precipitación	3.4
57436	7	Sololá	710	Panajachel	8	Panajachel	8	Agosto	2023-08-29T00:00:00	2024-11-08T20:00:00	8	Radiación solar	0
57437	7	Sololá	710	Panajachel	8	Panajachel	8	Agosto	2023-08-29T00:00:00	2024-11-08T21:00:00	2	Temperatura media	18.3
57438	7	Sololá	710	Panajachel	8	Panajachel	8	Agosto	2023-08-29T00:00:00	2024-11-08T21:00:00	4	Temperatura máxima	18.6
57439	7	Sololá	710	Panajachel	8	Panajachel	8	Agosto	2023-08-29T00:00:00	2024-11-08T21:00:00	3	Temperatura mínima	18.3
57440	7	Sololá	710	Panajachel	8	Panajachel	8	Agosto	2023-08-29T00:00:00	2024-11-08T21:00:00	5	Humedad	96
57441	7	Sololá	710	Panajachel	8	Panajachel	8	Agosto	2023-08-29T00:00:00	2024-11-08T21:00:00	6	Velocidad del viento	0
57442	7	Sololá	710	Panajachel	8	Panajachel	8	Agosto	2023-08-29T00:00:00	2024-11-08T21:00:00	7	Dirección del viento	0
57443	7	Sololá	710	Panajachel	8	Panajachel	8	Agosto	2023-08-29T00:00:00	2024-11-08T21:00:00	1	Precipitación	1.2
57444	7	Sololá	710	Panajachel	8	Panajachel	8	Agosto	2023-08-29T00:00:00	2024-11-08T21:00:00	8	Radiación solar	0
57445	7	Sololá	710	Panajachel	8	Panajachel	8	Agosto	2023-08-29T00:00:00	2024-11-08T22:00:00	2	Temperatura media	18.6
57446	7	Sololá	710	Panajachel	8	Panajachel	8	Agosto	2023-08-29T00:00:00	2024-11-08T22:00:00	4	Temperatura máxima	18.6
57447	7	Sololá	710	Panajachel	8	Panajachel	8	Agosto	2023-08-29T00:00:00	2024-11-08T22:00:00	3	Temperatura mínima	18.3
57448	7	Sololá	710	Panajachel	8	Panajachel	8	Agosto	2023-08-29T00:00:00	2024-11-08T22:00:00	5	Humedad	97
57449	7	Sololá	710	Panajachel	8	Panajachel	8	Agosto	2023-08-29T00:00:00	2024-11-08T22:00:00	6	Velocidad del viento	0
57450	7	Sololá	710	Panajachel	8	Panajachel	8	Agosto	2023-08-29T00:00:00	2024-11-08T22:00:00	7	Dirección del viento	0
57451	7	Sololá	710	Panajachel	8	Panajachel	8	Agosto	2023-08-29T00:00:00	2024-11-08T22:00:00	1	Precipitación	0.4
57452	7	Sololá	710	Panajachel	8	Panajachel	8	Agosto	2023-08-29T00:00:00	2024-11-08T22:00:00	8	Radiación solar	0
57453	7	Sololá	710	Panajachel	8	Panajachel	8	Agosto	2023-08-29T00:00:00	2024-11-08T23:00:00	2	Temperatura media	18.5
57454	7	Sololá	710	Panajachel	8	Panajachel	8	Agosto	2023-08-29T00:00:00	2024-11-08T23:00:00	4	Temperatura máxima	18.7
57455	7	Sololá	710	Panajachel	8	Panajachel	8	Agosto	2023-08-29T00:00:00	2024-11-08T23:00:00	3	Temperatura mínima	18.5
57456	7	Sololá	710	Panajachel	8	Panajachel	8	Agosto	2023-08-29T00:00:00	2024-11-08T23:00:00	5	Humedad	97
57457	7	Sololá	710	Panajachel	8	Panajachel	8	Agosto	2023-08-29T00:00:00	2024-11-08T23:00:00	6	Velocidad del viento	0
57458	7	Sololá	710	Panajachel	8	Panajachel	8	Agosto	2023-08-29T00:00:00	2024-11-08T23:00:00	7	Dirección del viento	0
57459	7	Sololá	710	Panajachel	8	Panajachel	8	Agosto	2023-08-29T00:00:00	2024-11-08T23:00:00	1	Precipitación	0
57460	7	Sololá	710	Panajachel	8	Panajachel	8	Agosto	2023-08-29T00:00:00	2024-11-08T23:00:00	8	Radiación solar	0
57461	7	Sololá	710	Panajachel	8	Panajachel	8	Agosto	2023-08-30T00:00:00	2024-11-08T00:00:00	2	Temperatura media	18.6
57462	7	Sololá	710	Panajachel	8	Panajachel	8	Agosto	2023-08-30T00:00:00	2024-11-08T00:00:00	4	Temperatura máxima	18.6
57463	7	Sololá	710	Panajachel	8	Panajachel	8	Agosto	2023-08-30T00:00:00	2024-11-08T00:00:00	3	Temperatura mínima	18.2
57464	7	Sololá	710	Panajachel	8	Panajachel	8	Agosto	2023-08-30T00:00:00	2024-11-08T00:00:00	5	Humedad	95
57465	7	Sololá	710	Panajachel	8	Panajachel	8	Agosto	2023-08-30T00:00:00	2024-11-08T00:00:00	6	Velocidad del viento	0
57466	7	Sololá	710	Panajachel	8	Panajachel	8	Agosto	2023-08-30T00:00:00	2024-11-08T00:00:00	7	Dirección del viento	0
57467	7	Sololá	710	Panajachel	8	Panajachel	8	Agosto	2023-08-30T00:00:00	2024-11-08T00:00:00	1	Precipitación	0
57468	7	Sololá	710	Panajachel	8	Panajachel	8	Agosto	2023-08-30T00:00:00	2024-11-08T00:00:00	8	Radiación solar	0
57469	7	Sololá	710	Panajachel	8	Panajachel	8	Agosto	2023-08-30T00:00:00	2024-11-08T01:00:00	2	Temperatura media	18.3
57470	7	Sololá	710	Panajachel	8	Panajachel	8	Agosto	2023-08-30T00:00:00	2024-11-08T01:00:00	4	Temperatura máxima	18.7
57471	7	Sololá	710	Panajachel	8	Panajachel	8	Agosto	2023-08-30T00:00:00	2024-11-08T01:00:00	3	Temperatura mínima	18.3
57472	7	Sololá	710	Panajachel	8	Panajachel	8	Agosto	2023-08-30T00:00:00	2024-11-08T01:00:00	5	Humedad	96
57473	7	Sololá	710	Panajachel	8	Panajachel	8	Agosto	2023-08-30T00:00:00	2024-11-08T01:00:00	6	Velocidad del viento	0
57474	7	Sololá	710	Panajachel	8	Panajachel	8	Agosto	2023-08-30T00:00:00	2024-11-08T01:00:00	7	Dirección del viento	0
57475	7	Sololá	710	Panajachel	8	Panajachel	8	Agosto	2023-08-30T00:00:00	2024-11-08T01:00:00	1	Precipitación	0
57476	7	Sololá	710	Panajachel	8	Panajachel	8	Agosto	2023-08-30T00:00:00	2024-11-08T01:00:00	8	Radiación solar	0
57477	7	Sololá	710	Panajachel	8	Panajachel	8	Agosto	2023-08-30T00:00:00	2024-11-08T02:00:00	2	Temperatura media	18.1
57478	7	Sololá	710	Panajachel	8	Panajachel	8	Agosto	2023-08-30T00:00:00	2024-11-08T02:00:00	4	Temperatura máxima	18.3
57479	7	Sololá	710	Panajachel	8	Panajachel	8	Agosto	2023-08-30T00:00:00	2024-11-08T02:00:00	3	Temperatura mínima	18.1
57480	7	Sololá	710	Panajachel	8	Panajachel	8	Agosto	2023-08-30T00:00:00	2024-11-08T02:00:00	5	Humedad	97
57481	7	Sololá	710	Panajachel	8	Panajachel	8	Agosto	2023-08-30T00:00:00	2024-11-08T02:00:00	6	Velocidad del viento	0
57482	7	Sololá	710	Panajachel	8	Panajachel	8	Agosto	2023-08-30T00:00:00	2024-11-08T02:00:00	7	Dirección del viento	0
57483	7	Sololá	710	Panajachel	8	Panajachel	8	Agosto	2023-08-30T00:00:00	2024-11-08T02:00:00	1	Precipitación	0.4
57484	7	Sololá	710	Panajachel	8	Panajachel	8	Agosto	2023-08-30T00:00:00	2024-11-08T02:00:00	8	Radiación solar	0
57485	7	Sololá	710	Panajachel	8	Panajachel	8	Agosto	2023-08-30T00:00:00	2024-11-08T03:00:00	2	Temperatura media	18.3
57486	7	Sololá	710	Panajachel	8	Panajachel	8	Agosto	2023-08-30T00:00:00	2024-11-08T03:00:00	4	Temperatura máxima	18.3
57487	7	Sololá	710	Panajachel	8	Panajachel	8	Agosto	2023-08-30T00:00:00	2024-11-08T03:00:00	3	Temperatura mínima	18.1
57488	7	Sololá	710	Panajachel	8	Panajachel	8	Agosto	2023-08-30T00:00:00	2024-11-08T03:00:00	5	Humedad	89
57489	7	Sololá	710	Panajachel	8	Panajachel	8	Agosto	2023-08-30T00:00:00	2024-11-08T03:00:00	6	Velocidad del viento	1.6
57490	7	Sololá	710	Panajachel	8	Panajachel	8	Agosto	2023-08-30T00:00:00	2024-11-08T03:00:00	7	Dirección del viento	1.61
57491	7	Sololá	710	Panajachel	8	Panajachel	8	Agosto	2023-08-30T00:00:00	2024-11-08T03:00:00	1	Precipitación	0
57492	7	Sololá	710	Panajachel	8	Panajachel	8	Agosto	2023-08-30T00:00:00	2024-11-08T03:00:00	8	Radiación solar	0
57493	7	Sololá	710	Panajachel	8	Panajachel	8	Agosto	2023-08-30T00:00:00	2024-11-08T04:00:00	2	Temperatura media	17.5
57494	7	Sololá	710	Panajachel	8	Panajachel	8	Agosto	2023-08-30T00:00:00	2024-11-08T04:00:00	4	Temperatura máxima	18.3
57495	7	Sololá	710	Panajachel	8	Panajachel	8	Agosto	2023-08-30T00:00:00	2024-11-08T04:00:00	3	Temperatura mínima	17.4
57496	7	Sololá	710	Panajachel	8	Panajachel	8	Agosto	2023-08-30T00:00:00	2024-11-08T04:00:00	5	Humedad	92
57497	7	Sololá	710	Panajachel	8	Panajachel	8	Agosto	2023-08-30T00:00:00	2024-11-08T04:00:00	6	Velocidad del viento	1.6
57498	7	Sololá	710	Panajachel	8	Panajachel	8	Agosto	2023-08-30T00:00:00	2024-11-08T04:00:00	7	Dirección del viento	1.61
57499	7	Sololá	710	Panajachel	8	Panajachel	8	Agosto	2023-08-30T00:00:00	2024-11-08T04:00:00	1	Precipitación	0
57500	7	Sololá	710	Panajachel	8	Panajachel	8	Agosto	2023-08-30T00:00:00	2024-11-08T04:00:00	8	Radiación solar	0
57501	7	Sololá	710	Panajachel	8	Panajachel	8	Agosto	2023-08-30T00:00:00	2024-11-08T05:00:00	2	Temperatura media	17.4
57502	7	Sololá	710	Panajachel	8	Panajachel	8	Agosto	2023-08-30T00:00:00	2024-11-08T05:00:00	4	Temperatura máxima	17.7
57503	7	Sololá	710	Panajachel	8	Panajachel	8	Agosto	2023-08-30T00:00:00	2024-11-08T05:00:00	3	Temperatura mínima	17.3
57504	7	Sololá	710	Panajachel	8	Panajachel	8	Agosto	2023-08-30T00:00:00	2024-11-08T05:00:00	5	Humedad	92
57505	7	Sololá	710	Panajachel	8	Panajachel	8	Agosto	2023-08-30T00:00:00	2024-11-08T05:00:00	6	Velocidad del viento	1.6
57506	7	Sololá	710	Panajachel	8	Panajachel	8	Agosto	2023-08-30T00:00:00	2024-11-08T05:00:00	7	Dirección del viento	1.61
57507	7	Sololá	710	Panajachel	8	Panajachel	8	Agosto	2023-08-30T00:00:00	2024-11-08T05:00:00	1	Precipitación	0
57508	7	Sololá	710	Panajachel	8	Panajachel	8	Agosto	2023-08-30T00:00:00	2024-11-08T05:00:00	8	Radiación solar	0
57509	7	Sololá	710	Panajachel	8	Panajachel	8	Agosto	2023-08-30T00:00:00	2024-11-08T06:00:00	2	Temperatura media	17.4
57510	7	Sololá	710	Panajachel	8	Panajachel	8	Agosto	2023-08-30T00:00:00	2024-11-08T06:00:00	4	Temperatura máxima	17.6
57511	7	Sololá	710	Panajachel	8	Panajachel	8	Agosto	2023-08-30T00:00:00	2024-11-08T06:00:00	3	Temperatura mínima	17.4
57512	7	Sololá	710	Panajachel	8	Panajachel	8	Agosto	2023-08-30T00:00:00	2024-11-08T06:00:00	5	Humedad	92
57513	7	Sololá	710	Panajachel	8	Panajachel	8	Agosto	2023-08-30T00:00:00	2024-11-08T06:00:00	6	Velocidad del viento	1.6
57514	7	Sololá	710	Panajachel	8	Panajachel	8	Agosto	2023-08-30T00:00:00	2024-11-08T06:00:00	7	Dirección del viento	1.61
57515	7	Sololá	710	Panajachel	8	Panajachel	8	Agosto	2023-08-30T00:00:00	2024-11-08T06:00:00	1	Precipitación	0
57516	7	Sololá	710	Panajachel	8	Panajachel	8	Agosto	2023-08-30T00:00:00	2024-11-08T06:00:00	8	Radiación solar	0
57517	7	Sololá	710	Panajachel	8	Panajachel	8	Agosto	2023-08-30T00:00:00	2024-11-08T07:00:00	2	Temperatura media	18
57518	7	Sololá	710	Panajachel	8	Panajachel	8	Agosto	2023-08-30T00:00:00	2024-11-08T07:00:00	4	Temperatura máxima	18
57519	7	Sololá	710	Panajachel	8	Panajachel	8	Agosto	2023-08-30T00:00:00	2024-11-08T07:00:00	3	Temperatura mínima	17.4
57520	7	Sololá	710	Panajachel	8	Panajachel	8	Agosto	2023-08-30T00:00:00	2024-11-08T07:00:00	5	Humedad	90
57521	7	Sololá	710	Panajachel	8	Panajachel	8	Agosto	2023-08-30T00:00:00	2024-11-08T07:00:00	6	Velocidad del viento	3.2
57522	7	Sololá	710	Panajachel	8	Panajachel	8	Agosto	2023-08-30T00:00:00	2024-11-08T07:00:00	7	Dirección del viento	3.22
57523	7	Sololá	710	Panajachel	8	Panajachel	8	Agosto	2023-08-30T00:00:00	2024-11-08T07:00:00	1	Precipitación	0
57524	7	Sololá	710	Panajachel	8	Panajachel	8	Agosto	2023-08-30T00:00:00	2024-11-08T07:00:00	8	Radiación solar	30
57525	7	Sololá	710	Panajachel	8	Panajachel	8	Agosto	2023-08-30T00:00:00	2024-11-08T08:00:00	2	Temperatura media	19.9
57526	7	Sololá	710	Panajachel	8	Panajachel	8	Agosto	2023-08-30T00:00:00	2024-11-08T08:00:00	4	Temperatura máxima	19.9
57527	7	Sololá	710	Panajachel	8	Panajachel	8	Agosto	2023-08-30T00:00:00	2024-11-08T08:00:00	3	Temperatura mínima	17.9
57528	7	Sololá	710	Panajachel	8	Panajachel	8	Agosto	2023-08-30T00:00:00	2024-11-08T08:00:00	5	Humedad	87
57529	7	Sololá	710	Panajachel	8	Panajachel	8	Agosto	2023-08-30T00:00:00	2024-11-08T08:00:00	6	Velocidad del viento	0
57530	7	Sololá	710	Panajachel	8	Panajachel	8	Agosto	2023-08-30T00:00:00	2024-11-08T08:00:00	7	Dirección del viento	0
57531	7	Sololá	710	Panajachel	8	Panajachel	8	Agosto	2023-08-30T00:00:00	2024-11-08T08:00:00	1	Precipitación	0
57532	7	Sololá	710	Panajachel	8	Panajachel	8	Agosto	2023-08-30T00:00:00	2024-11-08T08:00:00	8	Radiación solar	153
57533	7	Sololá	710	Panajachel	8	Panajachel	8	Agosto	2023-08-30T00:00:00	2024-11-08T09:00:00	2	Temperatura media	21.5
57534	7	Sololá	710	Panajachel	8	Panajachel	8	Agosto	2023-08-30T00:00:00	2024-11-08T09:00:00	4	Temperatura máxima	21.5
57535	7	Sololá	710	Panajachel	8	Panajachel	8	Agosto	2023-08-30T00:00:00	2024-11-08T09:00:00	3	Temperatura mínima	19.9
57536	7	Sololá	710	Panajachel	8	Panajachel	8	Agosto	2023-08-30T00:00:00	2024-11-08T09:00:00	5	Humedad	85
57537	7	Sololá	710	Panajachel	8	Panajachel	8	Agosto	2023-08-30T00:00:00	2024-11-08T09:00:00	6	Velocidad del viento	0
57538	7	Sololá	710	Panajachel	8	Panajachel	8	Agosto	2023-08-30T00:00:00	2024-11-08T09:00:00	7	Dirección del viento	0
57539	7	Sololá	710	Panajachel	8	Panajachel	8	Agosto	2023-08-30T00:00:00	2024-11-08T09:00:00	1	Precipitación	0
57540	7	Sololá	710	Panajachel	8	Panajachel	8	Agosto	2023-08-30T00:00:00	2024-11-08T09:00:00	8	Radiación solar	241
57541	7	Sololá	710	Panajachel	8	Panajachel	8	Agosto	2023-08-30T00:00:00	2024-11-08T10:00:00	2	Temperatura media	22.5
57542	7	Sololá	710	Panajachel	8	Panajachel	8	Agosto	2023-08-30T00:00:00	2024-11-08T10:00:00	4	Temperatura máxima	22.7
57543	7	Sololá	710	Panajachel	8	Panajachel	8	Agosto	2023-08-30T00:00:00	2024-11-08T10:00:00	3	Temperatura mínima	21.3
57544	7	Sololá	710	Panajachel	8	Panajachel	8	Agosto	2023-08-30T00:00:00	2024-11-08T10:00:00	5	Humedad	79
57545	7	Sololá	710	Panajachel	8	Panajachel	8	Agosto	2023-08-30T00:00:00	2024-11-08T10:00:00	6	Velocidad del viento	0
57546	7	Sololá	710	Panajachel	8	Panajachel	8	Agosto	2023-08-30T00:00:00	2024-11-08T10:00:00	7	Dirección del viento	0
57547	7	Sololá	710	Panajachel	8	Panajachel	8	Agosto	2023-08-30T00:00:00	2024-11-08T10:00:00	1	Precipitación	0
57548	7	Sololá	710	Panajachel	8	Panajachel	8	Agosto	2023-08-30T00:00:00	2024-11-08T10:00:00	8	Radiación solar	470
57549	7	Sololá	710	Panajachel	8	Panajachel	8	Agosto	2023-08-30T00:00:00	2024-11-08T11:00:00	2	Temperatura media	22.8
57550	7	Sololá	710	Panajachel	8	Panajachel	8	Agosto	2023-08-30T00:00:00	2024-11-08T11:00:00	4	Temperatura máxima	23
57551	7	Sololá	710	Panajachel	8	Panajachel	8	Agosto	2023-08-30T00:00:00	2024-11-08T11:00:00	3	Temperatura mínima	22.4
57552	7	Sololá	710	Panajachel	8	Panajachel	8	Agosto	2023-08-30T00:00:00	2024-11-08T11:00:00	5	Humedad	79
57553	7	Sololá	710	Panajachel	8	Panajachel	8	Agosto	2023-08-30T00:00:00	2024-11-08T11:00:00	6	Velocidad del viento	3.2
57554	7	Sololá	710	Panajachel	8	Panajachel	8	Agosto	2023-08-30T00:00:00	2024-11-08T11:00:00	7	Dirección del viento	3.22
57555	7	Sololá	710	Panajachel	8	Panajachel	8	Agosto	2023-08-30T00:00:00	2024-11-08T11:00:00	1	Precipitación	0
57556	7	Sololá	710	Panajachel	8	Panajachel	8	Agosto	2023-08-30T00:00:00	2024-11-08T11:00:00	8	Radiación solar	931
57557	7	Sololá	710	Panajachel	8	Panajachel	8	Agosto	2023-08-30T00:00:00	2024-11-08T12:00:00	2	Temperatura media	24.5
57558	7	Sololá	710	Panajachel	8	Panajachel	8	Agosto	2023-08-30T00:00:00	2024-11-08T12:00:00	4	Temperatura máxima	24.6
57559	7	Sololá	710	Panajachel	8	Panajachel	8	Agosto	2023-08-30T00:00:00	2024-11-08T12:00:00	3	Temperatura mínima	22.6
57560	7	Sololá	710	Panajachel	8	Panajachel	8	Agosto	2023-08-30T00:00:00	2024-11-08T12:00:00	5	Humedad	76
57561	7	Sololá	710	Panajachel	8	Panajachel	8	Agosto	2023-08-30T00:00:00	2024-11-08T12:00:00	6	Velocidad del viento	3.2
57562	7	Sololá	710	Panajachel	8	Panajachel	8	Agosto	2023-08-30T00:00:00	2024-11-08T12:00:00	7	Dirección del viento	3.22
57563	7	Sololá	710	Panajachel	8	Panajachel	8	Agosto	2023-08-30T00:00:00	2024-11-08T12:00:00	1	Precipitación	0
57564	7	Sololá	710	Panajachel	8	Panajachel	8	Agosto	2023-08-30T00:00:00	2024-11-08T12:00:00	8	Radiación solar	729
57565	7	Sololá	710	Panajachel	8	Panajachel	8	Agosto	2023-08-30T00:00:00	2024-11-08T13:00:00	2	Temperatura media	24.6
57566	7	Sololá	710	Panajachel	8	Panajachel	8	Agosto	2023-08-30T00:00:00	2024-11-08T13:00:00	4	Temperatura máxima	24.8
57567	7	Sololá	710	Panajachel	8	Panajachel	8	Agosto	2023-08-30T00:00:00	2024-11-08T13:00:00	3	Temperatura mínima	23.7
57568	7	Sololá	710	Panajachel	8	Panajachel	8	Agosto	2023-08-30T00:00:00	2024-11-08T13:00:00	5	Humedad	73
57569	7	Sololá	710	Panajachel	8	Panajachel	8	Agosto	2023-08-30T00:00:00	2024-11-08T13:00:00	6	Velocidad del viento	3.2
57570	7	Sololá	710	Panajachel	8	Panajachel	8	Agosto	2023-08-30T00:00:00	2024-11-08T13:00:00	7	Dirección del viento	3.22
57571	7	Sololá	710	Panajachel	8	Panajachel	8	Agosto	2023-08-30T00:00:00	2024-11-08T13:00:00	1	Precipitación	0
57572	7	Sololá	710	Panajachel	8	Panajachel	8	Agosto	2023-08-30T00:00:00	2024-11-08T13:00:00	8	Radiación solar	655
57573	7	Sololá	710	Panajachel	8	Panajachel	8	Agosto	2023-08-30T00:00:00	2024-11-08T14:00:00	2	Temperatura media	23.8
57574	7	Sololá	710	Panajachel	8	Panajachel	8	Agosto	2023-08-30T00:00:00	2024-11-08T14:00:00	4	Temperatura máxima	25
57575	7	Sololá	710	Panajachel	8	Panajachel	8	Agosto	2023-08-30T00:00:00	2024-11-08T14:00:00	3	Temperatura mínima	23.8
57576	7	Sololá	710	Panajachel	8	Panajachel	8	Agosto	2023-08-30T00:00:00	2024-11-08T14:00:00	5	Humedad	81
57577	7	Sololá	710	Panajachel	8	Panajachel	8	Agosto	2023-08-30T00:00:00	2024-11-08T14:00:00	6	Velocidad del viento	3.2
57578	7	Sololá	710	Panajachel	8	Panajachel	8	Agosto	2023-08-30T00:00:00	2024-11-08T14:00:00	7	Dirección del viento	3.22
57579	7	Sololá	710	Panajachel	8	Panajachel	8	Agosto	2023-08-30T00:00:00	2024-11-08T14:00:00	1	Precipitación	0
57580	7	Sololá	710	Panajachel	8	Panajachel	8	Agosto	2023-08-30T00:00:00	2024-11-08T14:00:00	8	Radiación solar	388
57581	7	Sololá	710	Panajachel	8	Panajachel	8	Agosto	2023-08-30T00:00:00	2024-11-08T15:00:00	2	Temperatura media	21.2
57582	7	Sololá	710	Panajachel	8	Panajachel	8	Agosto	2023-08-30T00:00:00	2024-11-08T15:00:00	4	Temperatura máxima	23.7
57583	7	Sololá	710	Panajachel	8	Panajachel	8	Agosto	2023-08-30T00:00:00	2024-11-08T15:00:00	3	Temperatura mínima	21.2
57584	7	Sololá	710	Panajachel	8	Panajachel	8	Agosto	2023-08-30T00:00:00	2024-11-08T15:00:00	5	Humedad	90
57585	7	Sololá	710	Panajachel	8	Panajachel	8	Agosto	2023-08-30T00:00:00	2024-11-08T15:00:00	6	Velocidad del viento	3.2
57586	7	Sololá	710	Panajachel	8	Panajachel	8	Agosto	2023-08-30T00:00:00	2024-11-08T15:00:00	7	Dirección del viento	3.22
57587	7	Sololá	710	Panajachel	8	Panajachel	8	Agosto	2023-08-30T00:00:00	2024-11-08T15:00:00	1	Precipitación	0.6
57588	7	Sololá	710	Panajachel	8	Panajachel	8	Agosto	2023-08-30T00:00:00	2024-11-08T15:00:00	8	Radiación solar	175
57589	7	Sololá	710	Panajachel	8	Panajachel	8	Agosto	2023-08-30T00:00:00	2024-11-08T16:00:00	2	Temperatura media	21.4
57590	7	Sololá	710	Panajachel	8	Panajachel	8	Agosto	2023-08-30T00:00:00	2024-11-08T16:00:00	4	Temperatura máxima	21.4
57591	7	Sololá	710	Panajachel	8	Panajachel	8	Agosto	2023-08-30T00:00:00	2024-11-08T16:00:00	3	Temperatura mínima	21
57592	7	Sololá	710	Panajachel	8	Panajachel	8	Agosto	2023-08-30T00:00:00	2024-11-08T16:00:00	5	Humedad	83
57593	7	Sololá	710	Panajachel	8	Panajachel	8	Agosto	2023-08-30T00:00:00	2024-11-08T16:00:00	6	Velocidad del viento	3.2
57594	7	Sololá	710	Panajachel	8	Panajachel	8	Agosto	2023-08-30T00:00:00	2024-11-08T16:00:00	7	Dirección del viento	3.22
57595	7	Sololá	710	Panajachel	8	Panajachel	8	Agosto	2023-08-30T00:00:00	2024-11-08T16:00:00	1	Precipitación	0
57596	7	Sololá	710	Panajachel	8	Panajachel	8	Agosto	2023-08-30T00:00:00	2024-11-08T16:00:00	8	Radiación solar	177
57597	7	Sololá	710	Panajachel	8	Panajachel	8	Agosto	2023-08-30T00:00:00	2024-11-08T17:00:00	2	Temperatura media	21.2
57598	7	Sololá	710	Panajachel	8	Panajachel	8	Agosto	2023-08-30T00:00:00	2024-11-08T17:00:00	4	Temperatura máxima	21.7
57599	7	Sololá	710	Panajachel	8	Panajachel	8	Agosto	2023-08-30T00:00:00	2024-11-08T17:00:00	3	Temperatura mínima	21.2
57600	7	Sololá	710	Panajachel	8	Panajachel	8	Agosto	2023-08-30T00:00:00	2024-11-08T17:00:00	5	Humedad	86
57601	7	Sololá	710	Panajachel	8	Panajachel	8	Agosto	2023-08-30T00:00:00	2024-11-08T17:00:00	6	Velocidad del viento	0
57602	7	Sololá	710	Panajachel	8	Panajachel	8	Agosto	2023-08-30T00:00:00	2024-11-08T17:00:00	7	Dirección del viento	0
57603	7	Sololá	710	Panajachel	8	Panajachel	8	Agosto	2023-08-30T00:00:00	2024-11-08T17:00:00	1	Precipitación	0
57604	7	Sololá	710	Panajachel	8	Panajachel	8	Agosto	2023-08-30T00:00:00	2024-11-08T17:00:00	8	Radiación solar	86
57605	7	Sololá	710	Panajachel	8	Panajachel	8	Agosto	2023-08-30T00:00:00	2024-11-08T18:00:00	2	Temperatura media	20.7
57606	7	Sololá	710	Panajachel	8	Panajachel	8	Agosto	2023-08-30T00:00:00	2024-11-08T18:00:00	4	Temperatura máxima	21.2
57607	7	Sololá	710	Panajachel	8	Panajachel	8	Agosto	2023-08-30T00:00:00	2024-11-08T18:00:00	3	Temperatura mínima	20.7
57608	7	Sololá	710	Panajachel	8	Panajachel	8	Agosto	2023-08-30T00:00:00	2024-11-08T18:00:00	5	Humedad	88
57609	7	Sololá	710	Panajachel	8	Panajachel	8	Agosto	2023-08-30T00:00:00	2024-11-08T18:00:00	6	Velocidad del viento	0
57610	7	Sololá	710	Panajachel	8	Panajachel	8	Agosto	2023-08-30T00:00:00	2024-11-08T18:00:00	7	Dirección del viento	0
57611	7	Sololá	710	Panajachel	8	Panajachel	8	Agosto	2023-08-30T00:00:00	2024-11-08T18:00:00	1	Precipitación	0
57612	7	Sololá	710	Panajachel	8	Panajachel	8	Agosto	2023-08-30T00:00:00	2024-11-08T18:00:00	8	Radiación solar	28
57613	7	Sololá	710	Panajachel	8	Panajachel	8	Agosto	2023-08-30T00:00:00	2024-11-08T19:00:00	2	Temperatura media	20.1
57614	7	Sololá	710	Panajachel	8	Panajachel	8	Agosto	2023-08-30T00:00:00	2024-11-08T19:00:00	4	Temperatura máxima	20.7
57615	7	Sololá	710	Panajachel	8	Panajachel	8	Agosto	2023-08-30T00:00:00	2024-11-08T19:00:00	3	Temperatura mínima	20.1
57616	7	Sololá	710	Panajachel	8	Panajachel	8	Agosto	2023-08-30T00:00:00	2024-11-08T19:00:00	5	Humedad	90
57617	7	Sololá	710	Panajachel	8	Panajachel	8	Agosto	2023-08-30T00:00:00	2024-11-08T19:00:00	6	Velocidad del viento	0
57618	7	Sololá	710	Panajachel	8	Panajachel	8	Agosto	2023-08-30T00:00:00	2024-11-08T19:00:00	7	Dirección del viento	0
57619	7	Sololá	710	Panajachel	8	Panajachel	8	Agosto	2023-08-30T00:00:00	2024-11-08T19:00:00	1	Precipitación	0
57620	7	Sololá	710	Panajachel	8	Panajachel	8	Agosto	2023-08-30T00:00:00	2024-11-08T19:00:00	8	Radiación solar	0
57621	7	Sololá	710	Panajachel	8	Panajachel	8	Agosto	2023-08-30T00:00:00	2024-11-08T20:00:00	2	Temperatura media	19.9
57622	7	Sololá	710	Panajachel	8	Panajachel	8	Agosto	2023-08-30T00:00:00	2024-11-08T20:00:00	4	Temperatura máxima	20.1
57623	7	Sololá	710	Panajachel	8	Panajachel	8	Agosto	2023-08-30T00:00:00	2024-11-08T20:00:00	3	Temperatura mínima	19.8
57624	7	Sololá	710	Panajachel	8	Panajachel	8	Agosto	2023-08-30T00:00:00	2024-11-08T20:00:00	5	Humedad	90
57625	7	Sololá	710	Panajachel	8	Panajachel	8	Agosto	2023-08-30T00:00:00	2024-11-08T20:00:00	6	Velocidad del viento	0
57626	7	Sololá	710	Panajachel	8	Panajachel	8	Agosto	2023-08-30T00:00:00	2024-11-08T20:00:00	7	Dirección del viento	0
57627	7	Sololá	710	Panajachel	8	Panajachel	8	Agosto	2023-08-30T00:00:00	2024-11-08T20:00:00	1	Precipitación	0
57628	7	Sololá	710	Panajachel	8	Panajachel	8	Agosto	2023-08-30T00:00:00	2024-11-08T20:00:00	8	Radiación solar	0
57629	7	Sololá	710	Panajachel	8	Panajachel	8	Agosto	2023-08-30T00:00:00	2024-11-08T21:00:00	2	Temperatura media	19.8
57630	7	Sololá	710	Panajachel	8	Panajachel	8	Agosto	2023-08-30T00:00:00	2024-11-08T21:00:00	4	Temperatura máxima	19.9
57631	7	Sololá	710	Panajachel	8	Panajachel	8	Agosto	2023-08-30T00:00:00	2024-11-08T21:00:00	3	Temperatura mínima	19.8
57632	7	Sololá	710	Panajachel	8	Panajachel	8	Agosto	2023-08-30T00:00:00	2024-11-08T21:00:00	5	Humedad	88
57633	7	Sololá	710	Panajachel	8	Panajachel	8	Agosto	2023-08-30T00:00:00	2024-11-08T21:00:00	6	Velocidad del viento	0
57634	7	Sololá	710	Panajachel	8	Panajachel	8	Agosto	2023-08-30T00:00:00	2024-11-08T21:00:00	7	Dirección del viento	0
57635	7	Sololá	710	Panajachel	8	Panajachel	8	Agosto	2023-08-30T00:00:00	2024-11-08T21:00:00	1	Precipitación	0
57636	7	Sololá	710	Panajachel	8	Panajachel	8	Agosto	2023-08-30T00:00:00	2024-11-08T21:00:00	8	Radiación solar	0
57637	7	Sololá	710	Panajachel	8	Panajachel	8	Agosto	2023-08-30T00:00:00	2024-11-08T22:00:00	2	Temperatura media	19.5
57638	7	Sololá	710	Panajachel	8	Panajachel	8	Agosto	2023-08-30T00:00:00	2024-11-08T22:00:00	4	Temperatura máxima	19.8
57639	7	Sololá	710	Panajachel	8	Panajachel	8	Agosto	2023-08-30T00:00:00	2024-11-08T22:00:00	3	Temperatura mínima	19.5
57640	7	Sololá	710	Panajachel	8	Panajachel	8	Agosto	2023-08-30T00:00:00	2024-11-08T22:00:00	5	Humedad	88
57641	7	Sololá	710	Panajachel	8	Panajachel	8	Agosto	2023-08-30T00:00:00	2024-11-08T22:00:00	6	Velocidad del viento	0
57642	7	Sololá	710	Panajachel	8	Panajachel	8	Agosto	2023-08-30T00:00:00	2024-11-08T22:00:00	7	Dirección del viento	0
57643	7	Sololá	710	Panajachel	8	Panajachel	8	Agosto	2023-08-30T00:00:00	2024-11-08T22:00:00	1	Precipitación	0
57644	7	Sololá	710	Panajachel	8	Panajachel	8	Agosto	2023-08-30T00:00:00	2024-11-08T22:00:00	8	Radiación solar	0
57645	7	Sololá	710	Panajachel	8	Panajachel	8	Agosto	2023-08-30T00:00:00	2024-11-08T23:00:00	2	Temperatura media	19.2
57646	7	Sololá	710	Panajachel	8	Panajachel	8	Agosto	2023-08-30T00:00:00	2024-11-08T23:00:00	4	Temperatura máxima	19.6
57647	7	Sololá	710	Panajachel	8	Panajachel	8	Agosto	2023-08-30T00:00:00	2024-11-08T23:00:00	3	Temperatura mínima	19.2
57648	7	Sololá	710	Panajachel	8	Panajachel	8	Agosto	2023-08-30T00:00:00	2024-11-08T23:00:00	5	Humedad	89
57649	7	Sololá	710	Panajachel	8	Panajachel	8	Agosto	2023-08-30T00:00:00	2024-11-08T23:00:00	6	Velocidad del viento	1.6
57650	7	Sololá	710	Panajachel	8	Panajachel	8	Agosto	2023-08-30T00:00:00	2024-11-08T23:00:00	7	Dirección del viento	1.61
57651	7	Sololá	710	Panajachel	8	Panajachel	8	Agosto	2023-08-30T00:00:00	2024-11-08T23:00:00	1	Precipitación	0
57652	7	Sololá	710	Panajachel	8	Panajachel	8	Agosto	2023-08-30T00:00:00	2024-11-08T23:00:00	8	Radiación solar	0
57653	7	Sololá	710	Panajachel	8	Panajachel	8	Agosto	2023-08-31T00:00:00	2024-11-08T00:00:00	2	Temperatura media	19.3
57654	7	Sololá	710	Panajachel	8	Panajachel	8	Agosto	2023-08-31T00:00:00	2024-11-08T00:00:00	4	Temperatura máxima	19.3
57655	7	Sololá	710	Panajachel	8	Panajachel	8	Agosto	2023-08-31T00:00:00	2024-11-08T00:00:00	3	Temperatura mínima	19.2
57656	7	Sololá	710	Panajachel	8	Panajachel	8	Agosto	2023-08-31T00:00:00	2024-11-08T00:00:00	5	Humedad	85
57657	7	Sololá	710	Panajachel	8	Panajachel	8	Agosto	2023-08-31T00:00:00	2024-11-08T00:00:00	6	Velocidad del viento	1.6
57658	7	Sololá	710	Panajachel	8	Panajachel	8	Agosto	2023-08-31T00:00:00	2024-11-08T00:00:00	7	Dirección del viento	1.61
57659	7	Sololá	710	Panajachel	8	Panajachel	8	Agosto	2023-08-31T00:00:00	2024-11-08T00:00:00	1	Precipitación	0
57660	7	Sololá	710	Panajachel	8	Panajachel	8	Agosto	2023-08-31T00:00:00	2024-11-08T00:00:00	8	Radiación solar	0
57661	7	Sololá	710	Panajachel	8	Panajachel	8	Agosto	2023-08-31T00:00:00	2024-11-08T01:00:00	2	Temperatura media	18.8
57662	7	Sololá	710	Panajachel	8	Panajachel	8	Agosto	2023-08-31T00:00:00	2024-11-08T01:00:00	4	Temperatura máxima	19.3
57663	7	Sololá	710	Panajachel	8	Panajachel	8	Agosto	2023-08-31T00:00:00	2024-11-08T01:00:00	3	Temperatura mínima	18.7
57664	7	Sololá	710	Panajachel	8	Panajachel	8	Agosto	2023-08-31T00:00:00	2024-11-08T01:00:00	5	Humedad	86
57665	7	Sololá	710	Panajachel	8	Panajachel	8	Agosto	2023-08-31T00:00:00	2024-11-08T01:00:00	6	Velocidad del viento	1.6
57666	7	Sololá	710	Panajachel	8	Panajachel	8	Agosto	2023-08-31T00:00:00	2024-11-08T01:00:00	7	Dirección del viento	1.61
57667	7	Sololá	710	Panajachel	8	Panajachel	8	Agosto	2023-08-31T00:00:00	2024-11-08T01:00:00	1	Precipitación	0
57668	7	Sololá	710	Panajachel	8	Panajachel	8	Agosto	2023-08-31T00:00:00	2024-11-08T01:00:00	8	Radiación solar	0
57669	7	Sololá	710	Panajachel	8	Panajachel	8	Agosto	2023-08-31T00:00:00	2024-11-08T02:00:00	2	Temperatura media	18.7
57670	7	Sololá	710	Panajachel	8	Panajachel	8	Agosto	2023-08-31T00:00:00	2024-11-08T02:00:00	4	Temperatura máxima	18.9
57671	7	Sololá	710	Panajachel	8	Panajachel	8	Agosto	2023-08-31T00:00:00	2024-11-08T02:00:00	3	Temperatura mínima	18.6
57672	7	Sololá	710	Panajachel	8	Panajachel	8	Agosto	2023-08-31T00:00:00	2024-11-08T02:00:00	5	Humedad	86
57673	7	Sololá	710	Panajachel	8	Panajachel	8	Agosto	2023-08-31T00:00:00	2024-11-08T02:00:00	6	Velocidad del viento	1.6
57674	7	Sololá	710	Panajachel	8	Panajachel	8	Agosto	2023-08-31T00:00:00	2024-11-08T02:00:00	7	Dirección del viento	1.61
57675	7	Sololá	710	Panajachel	8	Panajachel	8	Agosto	2023-08-31T00:00:00	2024-11-08T02:00:00	1	Precipitación	0
57676	7	Sololá	710	Panajachel	8	Panajachel	8	Agosto	2023-08-31T00:00:00	2024-11-08T02:00:00	8	Radiación solar	0
57677	7	Sololá	710	Panajachel	8	Panajachel	8	Agosto	2023-08-31T00:00:00	2024-11-08T03:00:00	2	Temperatura media	18.3
57678	7	Sololá	710	Panajachel	8	Panajachel	8	Agosto	2023-08-31T00:00:00	2024-11-08T03:00:00	4	Temperatura máxima	18.7
57679	7	Sololá	710	Panajachel	8	Panajachel	8	Agosto	2023-08-31T00:00:00	2024-11-08T03:00:00	3	Temperatura mínima	18.2
57680	7	Sololá	710	Panajachel	8	Panajachel	8	Agosto	2023-08-31T00:00:00	2024-11-08T03:00:00	5	Humedad	87
57681	7	Sololá	710	Panajachel	8	Panajachel	8	Agosto	2023-08-31T00:00:00	2024-11-08T03:00:00	6	Velocidad del viento	1.6
57682	7	Sololá	710	Panajachel	8	Panajachel	8	Agosto	2023-08-31T00:00:00	2024-11-08T03:00:00	7	Dirección del viento	1.61
57683	7	Sololá	710	Panajachel	8	Panajachel	8	Agosto	2023-08-31T00:00:00	2024-11-08T03:00:00	1	Precipitación	0
57684	7	Sololá	710	Panajachel	8	Panajachel	8	Agosto	2023-08-31T00:00:00	2024-11-08T03:00:00	8	Radiación solar	0
57685	7	Sololá	710	Panajachel	8	Panajachel	8	Agosto	2023-08-31T00:00:00	2024-11-08T04:00:00	2	Temperatura media	18.4
57686	7	Sololá	710	Panajachel	8	Panajachel	8	Agosto	2023-08-31T00:00:00	2024-11-08T04:00:00	4	Temperatura máxima	18.7
57687	7	Sololá	710	Panajachel	8	Panajachel	8	Agosto	2023-08-31T00:00:00	2024-11-08T04:00:00	3	Temperatura mínima	18.3
57688	7	Sololá	710	Panajachel	8	Panajachel	8	Agosto	2023-08-31T00:00:00	2024-11-08T04:00:00	5	Humedad	87
57689	7	Sololá	710	Panajachel	8	Panajachel	8	Agosto	2023-08-31T00:00:00	2024-11-08T04:00:00	6	Velocidad del viento	0
57690	7	Sololá	710	Panajachel	8	Panajachel	8	Agosto	2023-08-31T00:00:00	2024-11-08T04:00:00	7	Dirección del viento	0
57691	7	Sololá	710	Panajachel	8	Panajachel	8	Agosto	2023-08-31T00:00:00	2024-11-08T04:00:00	1	Precipitación	0
57692	7	Sololá	710	Panajachel	8	Panajachel	8	Agosto	2023-08-31T00:00:00	2024-11-08T04:00:00	8	Radiación solar	0
57693	7	Sololá	710	Panajachel	8	Panajachel	8	Agosto	2023-08-31T00:00:00	2024-11-08T05:00:00	2	Temperatura media	18.2
57694	7	Sololá	710	Panajachel	8	Panajachel	8	Agosto	2023-08-31T00:00:00	2024-11-08T05:00:00	4	Temperatura máxima	18.4
57695	7	Sololá	710	Panajachel	8	Panajachel	8	Agosto	2023-08-31T00:00:00	2024-11-08T05:00:00	3	Temperatura mínima	18.1
57696	7	Sololá	710	Panajachel	8	Panajachel	8	Agosto	2023-08-31T00:00:00	2024-11-08T05:00:00	5	Humedad	87
57697	7	Sololá	710	Panajachel	8	Panajachel	8	Agosto	2023-08-31T00:00:00	2024-11-08T05:00:00	6	Velocidad del viento	1.6
57698	7	Sololá	710	Panajachel	8	Panajachel	8	Agosto	2023-08-31T00:00:00	2024-11-08T05:00:00	7	Dirección del viento	1.61
57699	7	Sololá	710	Panajachel	8	Panajachel	8	Agosto	2023-08-31T00:00:00	2024-11-08T05:00:00	1	Precipitación	0
57700	7	Sololá	710	Panajachel	8	Panajachel	8	Agosto	2023-08-31T00:00:00	2024-11-08T05:00:00	8	Radiación solar	0
57701	7	Sololá	710	Panajachel	8	Panajachel	8	Agosto	2023-08-31T00:00:00	2024-11-08T06:00:00	2	Temperatura media	18
57702	7	Sololá	710	Panajachel	8	Panajachel	8	Agosto	2023-08-31T00:00:00	2024-11-08T06:00:00	4	Temperatura máxima	18.2
57703	7	Sololá	710	Panajachel	8	Panajachel	8	Agosto	2023-08-31T00:00:00	2024-11-08T06:00:00	3	Temperatura mínima	17.9
57704	7	Sololá	710	Panajachel	8	Panajachel	8	Agosto	2023-08-31T00:00:00	2024-11-08T06:00:00	5	Humedad	86
57705	7	Sololá	710	Panajachel	8	Panajachel	8	Agosto	2023-08-31T00:00:00	2024-11-08T06:00:00	6	Velocidad del viento	1.6
57706	7	Sololá	710	Panajachel	8	Panajachel	8	Agosto	2023-08-31T00:00:00	2024-11-08T06:00:00	7	Dirección del viento	1.61
57707	7	Sololá	710	Panajachel	8	Panajachel	8	Agosto	2023-08-31T00:00:00	2024-11-08T06:00:00	1	Precipitación	0
57708	7	Sololá	710	Panajachel	8	Panajachel	8	Agosto	2023-08-31T00:00:00	2024-11-08T06:00:00	8	Radiación solar	0
57709	7	Sololá	710	Panajachel	8	Panajachel	8	Agosto	2023-08-31T00:00:00	2024-11-08T07:00:00	2	Temperatura media	18.8
57710	7	Sololá	710	Panajachel	8	Panajachel	8	Agosto	2023-08-31T00:00:00	2024-11-08T07:00:00	4	Temperatura máxima	18.8
57711	7	Sololá	710	Panajachel	8	Panajachel	8	Agosto	2023-08-31T00:00:00	2024-11-08T07:00:00	3	Temperatura mínima	17.9
57712	7	Sololá	710	Panajachel	8	Panajachel	8	Agosto	2023-08-31T00:00:00	2024-11-08T07:00:00	5	Humedad	83
57713	7	Sololá	710	Panajachel	8	Panajachel	8	Agosto	2023-08-31T00:00:00	2024-11-08T07:00:00	6	Velocidad del viento	1.6
57714	7	Sololá	710	Panajachel	8	Panajachel	8	Agosto	2023-08-31T00:00:00	2024-11-08T07:00:00	7	Dirección del viento	1.61
57715	7	Sololá	710	Panajachel	8	Panajachel	8	Agosto	2023-08-31T00:00:00	2024-11-08T07:00:00	1	Precipitación	0
57716	7	Sololá	710	Panajachel	8	Panajachel	8	Agosto	2023-08-31T00:00:00	2024-11-08T07:00:00	8	Radiación solar	53
57717	7	Sololá	710	Panajachel	8	Panajachel	8	Agosto	2023-08-31T00:00:00	2024-11-08T08:00:00	2	Temperatura media	22.4
57718	7	Sololá	710	Panajachel	8	Panajachel	8	Agosto	2023-08-31T00:00:00	2024-11-08T08:00:00	4	Temperatura máxima	22.4
57719	7	Sololá	710	Panajachel	8	Panajachel	8	Agosto	2023-08-31T00:00:00	2024-11-08T08:00:00	3	Temperatura mínima	18.8
57720	7	Sololá	710	Panajachel	8	Panajachel	8	Agosto	2023-08-31T00:00:00	2024-11-08T08:00:00	5	Humedad	74
57721	7	Sololá	710	Panajachel	8	Panajachel	8	Agosto	2023-08-31T00:00:00	2024-11-08T08:00:00	6	Velocidad del viento	0
57722	7	Sololá	710	Panajachel	8	Panajachel	8	Agosto	2023-08-31T00:00:00	2024-11-08T08:00:00	7	Dirección del viento	0
57723	7	Sololá	710	Panajachel	8	Panajachel	8	Agosto	2023-08-31T00:00:00	2024-11-08T08:00:00	1	Precipitación	0
57724	7	Sololá	710	Panajachel	8	Panajachel	8	Agosto	2023-08-31T00:00:00	2024-11-08T08:00:00	8	Radiación solar	315
57725	7	Sololá	710	Panajachel	8	Panajachel	8	Agosto	2023-08-31T00:00:00	2024-11-08T09:00:00	2	Temperatura media	21.9
57726	7	Sololá	710	Panajachel	8	Panajachel	8	Agosto	2023-08-31T00:00:00	2024-11-08T09:00:00	4	Temperatura máxima	22.5
57727	7	Sololá	710	Panajachel	8	Panajachel	8	Agosto	2023-08-31T00:00:00	2024-11-08T09:00:00	3	Temperatura mínima	21.8
57728	7	Sololá	710	Panajachel	8	Panajachel	8	Agosto	2023-08-31T00:00:00	2024-11-08T09:00:00	5	Humedad	83
57729	7	Sololá	710	Panajachel	8	Panajachel	8	Agosto	2023-08-31T00:00:00	2024-11-08T09:00:00	6	Velocidad del viento	1.6
57730	7	Sololá	710	Panajachel	8	Panajachel	8	Agosto	2023-08-31T00:00:00	2024-11-08T09:00:00	7	Dirección del viento	1.61
57731	7	Sololá	710	Panajachel	8	Panajachel	8	Agosto	2023-08-31T00:00:00	2024-11-08T09:00:00	1	Precipitación	0
57732	7	Sololá	710	Panajachel	8	Panajachel	8	Agosto	2023-08-31T00:00:00	2024-11-08T09:00:00	8	Radiación solar	538
57733	7	Sololá	710	Panajachel	8	Panajachel	8	Agosto	2023-08-31T00:00:00	2024-11-08T10:00:00	2	Temperatura media	22.8
57734	7	Sololá	710	Panajachel	8	Panajachel	8	Agosto	2023-08-31T00:00:00	2024-11-08T10:00:00	4	Temperatura máxima	22.8
57735	7	Sololá	710	Panajachel	8	Panajachel	8	Agosto	2023-08-31T00:00:00	2024-11-08T10:00:00	3	Temperatura mínima	21.8
57736	7	Sololá	710	Panajachel	8	Panajachel	8	Agosto	2023-08-31T00:00:00	2024-11-08T10:00:00	5	Humedad	78
57737	7	Sololá	710	Panajachel	8	Panajachel	8	Agosto	2023-08-31T00:00:00	2024-11-08T10:00:00	6	Velocidad del viento	1.6
57738	7	Sololá	710	Panajachel	8	Panajachel	8	Agosto	2023-08-31T00:00:00	2024-11-08T10:00:00	7	Dirección del viento	1.61
57739	7	Sololá	710	Panajachel	8	Panajachel	8	Agosto	2023-08-31T00:00:00	2024-11-08T10:00:00	1	Precipitación	0
57740	7	Sololá	710	Panajachel	8	Panajachel	8	Agosto	2023-08-31T00:00:00	2024-11-08T10:00:00	8	Radiación solar	579
57741	7	Sololá	710	Panajachel	8	Panajachel	8	Agosto	2023-08-31T00:00:00	2024-11-08T11:00:00	2	Temperatura media	23.9
57742	7	Sololá	710	Panajachel	8	Panajachel	8	Agosto	2023-08-31T00:00:00	2024-11-08T11:00:00	4	Temperatura máxima	24.3
57743	7	Sololá	710	Panajachel	8	Panajachel	8	Agosto	2023-08-31T00:00:00	2024-11-08T11:00:00	3	Temperatura mínima	22.7
57744	7	Sololá	710	Panajachel	8	Panajachel	8	Agosto	2023-08-31T00:00:00	2024-11-08T11:00:00	5	Humedad	72
57745	7	Sololá	710	Panajachel	8	Panajachel	8	Agosto	2023-08-31T00:00:00	2024-11-08T11:00:00	6	Velocidad del viento	3.2
57746	7	Sololá	710	Panajachel	8	Panajachel	8	Agosto	2023-08-31T00:00:00	2024-11-08T11:00:00	7	Dirección del viento	3.22
57747	7	Sololá	710	Panajachel	8	Panajachel	8	Agosto	2023-08-31T00:00:00	2024-11-08T11:00:00	1	Precipitación	0
57748	7	Sololá	710	Panajachel	8	Panajachel	8	Agosto	2023-08-31T00:00:00	2024-11-08T11:00:00	8	Radiación solar	879
57749	7	Sololá	710	Panajachel	8	Panajachel	8	Agosto	2023-08-31T00:00:00	2024-11-08T12:00:00	2	Temperatura media	25.1
57750	7	Sololá	710	Panajachel	8	Panajachel	8	Agosto	2023-08-31T00:00:00	2024-11-08T12:00:00	4	Temperatura máxima	25.3
57751	7	Sololá	710	Panajachel	8	Panajachel	8	Agosto	2023-08-31T00:00:00	2024-11-08T12:00:00	3	Temperatura mínima	23.9
57752	7	Sololá	710	Panajachel	8	Panajachel	8	Agosto	2023-08-31T00:00:00	2024-11-08T12:00:00	5	Humedad	78
57753	7	Sololá	710	Panajachel	8	Panajachel	8	Agosto	2023-08-31T00:00:00	2024-11-08T12:00:00	6	Velocidad del viento	4.8
57754	7	Sololá	710	Panajachel	8	Panajachel	8	Agosto	2023-08-31T00:00:00	2024-11-08T12:00:00	7	Dirección del viento	4.83
57755	7	Sololá	710	Panajachel	8	Panajachel	8	Agosto	2023-08-31T00:00:00	2024-11-08T12:00:00	1	Precipitación	0
57756	7	Sololá	710	Panajachel	8	Panajachel	8	Agosto	2023-08-31T00:00:00	2024-11-08T12:00:00	8	Radiación solar	960
57757	7	Sololá	710	Panajachel	8	Panajachel	8	Agosto	2023-08-31T00:00:00	2024-11-08T13:00:00	2	Temperatura media	24.8
57758	7	Sololá	710	Panajachel	8	Panajachel	8	Agosto	2023-08-31T00:00:00	2024-11-08T13:00:00	4	Temperatura máxima	25.6
57759	7	Sololá	710	Panajachel	8	Panajachel	8	Agosto	2023-08-31T00:00:00	2024-11-08T13:00:00	3	Temperatura mínima	24.8
57760	7	Sololá	710	Panajachel	8	Panajachel	8	Agosto	2023-08-31T00:00:00	2024-11-08T13:00:00	5	Humedad	79
57761	7	Sololá	710	Panajachel	8	Panajachel	8	Agosto	2023-08-31T00:00:00	2024-11-08T13:00:00	6	Velocidad del viento	4.8
57762	7	Sololá	710	Panajachel	8	Panajachel	8	Agosto	2023-08-31T00:00:00	2024-11-08T13:00:00	7	Dirección del viento	4.83
57763	7	Sololá	710	Panajachel	8	Panajachel	8	Agosto	2023-08-31T00:00:00	2024-11-08T13:00:00	1	Precipitación	0
57764	7	Sololá	710	Panajachel	8	Panajachel	8	Agosto	2023-08-31T00:00:00	2024-11-08T13:00:00	8	Radiación solar	961
57765	7	Sololá	710	Panajachel	8	Panajachel	8	Agosto	2023-08-31T00:00:00	2024-11-08T14:00:00	2	Temperatura media	20
57766	7	Sololá	710	Panajachel	8	Panajachel	8	Agosto	2023-08-31T00:00:00	2024-11-08T14:00:00	4	Temperatura máxima	24.8
57767	7	Sololá	710	Panajachel	8	Panajachel	8	Agosto	2023-08-31T00:00:00	2024-11-08T14:00:00	3	Temperatura mínima	20
57768	7	Sololá	710	Panajachel	8	Panajachel	8	Agosto	2023-08-31T00:00:00	2024-11-08T14:00:00	5	Humedad	86
57769	7	Sololá	710	Panajachel	8	Panajachel	8	Agosto	2023-08-31T00:00:00	2024-11-08T14:00:00	6	Velocidad del viento	6.4
57770	7	Sololá	710	Panajachel	8	Panajachel	8	Agosto	2023-08-31T00:00:00	2024-11-08T14:00:00	7	Dirección del viento	6.44
57771	7	Sololá	710	Panajachel	8	Panajachel	8	Agosto	2023-08-31T00:00:00	2024-11-08T14:00:00	1	Precipitación	0.2
57772	7	Sololá	710	Panajachel	8	Panajachel	8	Agosto	2023-08-31T00:00:00	2024-11-08T14:00:00	8	Radiación solar	95
57773	7	Sololá	710	Panajachel	8	Panajachel	8	Agosto	2023-08-31T00:00:00	2024-11-08T15:00:00	2	Temperatura media	19.4
57774	7	Sololá	710	Panajachel	8	Panajachel	8	Agosto	2023-08-31T00:00:00	2024-11-08T15:00:00	4	Temperatura máxima	20
57775	7	Sololá	710	Panajachel	8	Panajachel	8	Agosto	2023-08-31T00:00:00	2024-11-08T15:00:00	3	Temperatura mínima	19.3
57776	7	Sololá	710	Panajachel	8	Panajachel	8	Agosto	2023-08-31T00:00:00	2024-11-08T15:00:00	5	Humedad	87
57777	7	Sololá	710	Panajachel	8	Panajachel	8	Agosto	2023-08-31T00:00:00	2024-11-08T15:00:00	6	Velocidad del viento	1.6
57778	7	Sololá	710	Panajachel	8	Panajachel	8	Agosto	2023-08-31T00:00:00	2024-11-08T15:00:00	7	Dirección del viento	1.61
57779	7	Sololá	710	Panajachel	8	Panajachel	8	Agosto	2023-08-31T00:00:00	2024-11-08T15:00:00	1	Precipitación	0
57780	7	Sololá	710	Panajachel	8	Panajachel	8	Agosto	2023-08-31T00:00:00	2024-11-08T15:00:00	8	Radiación solar	46
57781	7	Sololá	710	Panajachel	8	Panajachel	8	Agosto	2023-08-31T00:00:00	2024-11-08T16:00:00	2	Temperatura media	19.8
57782	7	Sololá	710	Panajachel	8	Panajachel	8	Agosto	2023-08-31T00:00:00	2024-11-08T16:00:00	4	Temperatura máxima	19.8
57783	7	Sololá	710	Panajachel	8	Panajachel	8	Agosto	2023-08-31T00:00:00	2024-11-08T16:00:00	3	Temperatura mínima	19.3
57784	7	Sololá	710	Panajachel	8	Panajachel	8	Agosto	2023-08-31T00:00:00	2024-11-08T16:00:00	5	Humedad	87
57785	7	Sololá	710	Panajachel	8	Panajachel	8	Agosto	2023-08-31T00:00:00	2024-11-08T16:00:00	6	Velocidad del viento	1.6
57786	7	Sololá	710	Panajachel	8	Panajachel	8	Agosto	2023-08-31T00:00:00	2024-11-08T16:00:00	7	Dirección del viento	1.61
57787	7	Sololá	710	Panajachel	8	Panajachel	8	Agosto	2023-08-31T00:00:00	2024-11-08T16:00:00	1	Precipitación	0
57788	7	Sololá	710	Panajachel	8	Panajachel	8	Agosto	2023-08-31T00:00:00	2024-11-08T16:00:00	8	Radiación solar	66
57789	7	Sololá	710	Panajachel	8	Panajachel	8	Agosto	2023-08-31T00:00:00	2024-11-08T17:00:00	2	Temperatura media	19.8
57790	7	Sololá	710	Panajachel	8	Panajachel	8	Agosto	2023-08-31T00:00:00	2024-11-08T17:00:00	4	Temperatura máxima	20.5
57791	7	Sololá	710	Panajachel	8	Panajachel	8	Agosto	2023-08-31T00:00:00	2024-11-08T17:00:00	3	Temperatura mínima	19.8
57792	7	Sololá	710	Panajachel	8	Panajachel	8	Agosto	2023-08-31T00:00:00	2024-11-08T17:00:00	5	Humedad	87
57793	7	Sololá	710	Panajachel	8	Panajachel	8	Agosto	2023-08-31T00:00:00	2024-11-08T17:00:00	6	Velocidad del viento	0
57794	7	Sololá	710	Panajachel	8	Panajachel	8	Agosto	2023-08-31T00:00:00	2024-11-08T17:00:00	7	Dirección del viento	0
57795	7	Sololá	710	Panajachel	8	Panajachel	8	Agosto	2023-08-31T00:00:00	2024-11-08T17:00:00	1	Precipitación	0
57796	7	Sololá	710	Panajachel	8	Panajachel	8	Agosto	2023-08-31T00:00:00	2024-11-08T17:00:00	8	Radiación solar	35
57797	7	Sololá	710	Panajachel	8	Panajachel	8	Agosto	2023-08-31T00:00:00	2024-11-08T18:00:00	2	Temperatura media	19.7
57798	7	Sololá	710	Panajachel	8	Panajachel	8	Agosto	2023-08-31T00:00:00	2024-11-08T18:00:00	4	Temperatura máxima	19.8
57799	7	Sololá	710	Panajachel	8	Panajachel	8	Agosto	2023-08-31T00:00:00	2024-11-08T18:00:00	3	Temperatura mínima	19.7
57800	7	Sololá	710	Panajachel	8	Panajachel	8	Agosto	2023-08-31T00:00:00	2024-11-08T18:00:00	5	Humedad	88
57801	7	Sololá	710	Panajachel	8	Panajachel	8	Agosto	2023-08-31T00:00:00	2024-11-08T18:00:00	6	Velocidad del viento	0
57802	7	Sololá	710	Panajachel	8	Panajachel	8	Agosto	2023-08-31T00:00:00	2024-11-08T18:00:00	7	Dirección del viento	0
57803	7	Sololá	710	Panajachel	8	Panajachel	8	Agosto	2023-08-31T00:00:00	2024-11-08T18:00:00	1	Precipitación	0
57804	7	Sololá	710	Panajachel	8	Panajachel	8	Agosto	2023-08-31T00:00:00	2024-11-08T18:00:00	8	Radiación solar	2
57805	7	Sololá	710	Panajachel	8	Panajachel	8	Agosto	2023-08-31T00:00:00	2024-11-08T19:00:00	2	Temperatura media	18.9
57806	7	Sololá	710	Panajachel	8	Panajachel	8	Agosto	2023-08-31T00:00:00	2024-11-08T19:00:00	4	Temperatura máxima	19.7
57807	7	Sololá	710	Panajachel	8	Panajachel	8	Agosto	2023-08-31T00:00:00	2024-11-08T19:00:00	3	Temperatura mínima	18.9
57808	7	Sololá	710	Panajachel	8	Panajachel	8	Agosto	2023-08-31T00:00:00	2024-11-08T19:00:00	5	Humedad	91
57809	7	Sololá	710	Panajachel	8	Panajachel	8	Agosto	2023-08-31T00:00:00	2024-11-08T19:00:00	6	Velocidad del viento	0
57810	7	Sololá	710	Panajachel	8	Panajachel	8	Agosto	2023-08-31T00:00:00	2024-11-08T19:00:00	7	Dirección del viento	0
57811	7	Sololá	710	Panajachel	8	Panajachel	8	Agosto	2023-08-31T00:00:00	2024-11-08T19:00:00	1	Precipitación	0.4
57812	7	Sololá	710	Panajachel	8	Panajachel	8	Agosto	2023-08-31T00:00:00	2024-11-08T19:00:00	8	Radiación solar	0
57813	7	Sololá	710	Panajachel	8	Panajachel	8	Agosto	2023-08-31T00:00:00	2024-11-08T20:00:00	2	Temperatura media	18.5
57814	7	Sololá	710	Panajachel	8	Panajachel	8	Agosto	2023-08-31T00:00:00	2024-11-08T20:00:00	4	Temperatura máxima	18.9
57815	7	Sololá	710	Panajachel	8	Panajachel	8	Agosto	2023-08-31T00:00:00	2024-11-08T20:00:00	3	Temperatura mínima	18.5
57816	7	Sololá	710	Panajachel	8	Panajachel	8	Agosto	2023-08-31T00:00:00	2024-11-08T20:00:00	5	Humedad	95
57817	7	Sololá	710	Panajachel	8	Panajachel	8	Agosto	2023-08-31T00:00:00	2024-11-08T20:00:00	6	Velocidad del viento	0
57818	7	Sololá	710	Panajachel	8	Panajachel	8	Agosto	2023-08-31T00:00:00	2024-11-08T20:00:00	7	Dirección del viento	0
57819	7	Sololá	710	Panajachel	8	Panajachel	8	Agosto	2023-08-31T00:00:00	2024-11-08T20:00:00	1	Precipitación	1.4
57820	7	Sololá	710	Panajachel	8	Panajachel	8	Agosto	2023-08-31T00:00:00	2024-11-08T20:00:00	8	Radiación solar	0
57821	7	Sololá	710	Panajachel	8	Panajachel	8	Agosto	2023-08-31T00:00:00	2024-11-08T21:00:00	2	Temperatura media	18.3
57822	7	Sololá	710	Panajachel	8	Panajachel	8	Agosto	2023-08-31T00:00:00	2024-11-08T21:00:00	4	Temperatura máxima	18.5
57823	7	Sololá	710	Panajachel	8	Panajachel	8	Agosto	2023-08-31T00:00:00	2024-11-08T21:00:00	3	Temperatura mínima	18.3
57824	7	Sololá	710	Panajachel	8	Panajachel	8	Agosto	2023-08-31T00:00:00	2024-11-08T21:00:00	5	Humedad	94
57825	7	Sololá	710	Panajachel	8	Panajachel	8	Agosto	2023-08-31T00:00:00	2024-11-08T21:00:00	6	Velocidad del viento	0
57826	7	Sololá	710	Panajachel	8	Panajachel	8	Agosto	2023-08-31T00:00:00	2024-11-08T21:00:00	7	Dirección del viento	0
57827	7	Sololá	710	Panajachel	8	Panajachel	8	Agosto	2023-08-31T00:00:00	2024-11-08T21:00:00	1	Precipitación	0
57828	7	Sololá	710	Panajachel	8	Panajachel	8	Agosto	2023-08-31T00:00:00	2024-11-08T21:00:00	8	Radiación solar	0
57829	7	Sololá	710	Panajachel	8	Panajachel	8	Agosto	2023-08-31T00:00:00	2024-11-08T22:00:00	2	Temperatura media	18.3
57830	7	Sololá	710	Panajachel	8	Panajachel	8	Agosto	2023-08-31T00:00:00	2024-11-08T22:00:00	4	Temperatura máxima	18.4
57831	7	Sololá	710	Panajachel	8	Panajachel	8	Agosto	2023-08-31T00:00:00	2024-11-08T22:00:00	3	Temperatura mínima	17.9
57832	7	Sololá	710	Panajachel	8	Panajachel	8	Agosto	2023-08-31T00:00:00	2024-11-08T22:00:00	5	Humedad	92
57833	7	Sololá	710	Panajachel	8	Panajachel	8	Agosto	2023-08-31T00:00:00	2024-11-08T22:00:00	6	Velocidad del viento	0
57834	7	Sololá	710	Panajachel	8	Panajachel	8	Agosto	2023-08-31T00:00:00	2024-11-08T22:00:00	7	Dirección del viento	0
57835	7	Sololá	710	Panajachel	8	Panajachel	8	Agosto	2023-08-31T00:00:00	2024-11-08T22:00:00	1	Precipitación	0.2
57836	7	Sololá	710	Panajachel	8	Panajachel	8	Agosto	2023-08-31T00:00:00	2024-11-08T22:00:00	8	Radiación solar	0
57837	7	Sololá	710	Panajachel	8	Panajachel	8	Agosto	2023-08-31T00:00:00	2024-11-08T23:00:00	2	Temperatura media	18.2
57838	7	Sololá	710	Panajachel	8	Panajachel	8	Agosto	2023-08-31T00:00:00	2024-11-08T23:00:00	4	Temperatura máxima	18.4
57839	7	Sololá	710	Panajachel	8	Panajachel	8	Agosto	2023-08-31T00:00:00	2024-11-08T23:00:00	3	Temperatura mínima	18.2
57840	7	Sololá	710	Panajachel	8	Panajachel	8	Agosto	2023-08-31T00:00:00	2024-11-08T23:00:00	5	Humedad	94
57841	7	Sololá	710	Panajachel	8	Panajachel	8	Agosto	2023-08-31T00:00:00	2024-11-08T23:00:00	6	Velocidad del viento	0
57842	7	Sololá	710	Panajachel	8	Panajachel	8	Agosto	2023-08-31T00:00:00	2024-11-08T23:00:00	7	Dirección del viento	0
57843	7	Sololá	710	Panajachel	8	Panajachel	8	Agosto	2023-08-31T00:00:00	2024-11-08T23:00:00	1	Precipitación	0
57844	7	Sololá	710	Panajachel	8	Panajachel	8	Agosto	2023-08-31T00:00:00	2024-11-08T23:00:00	8	Radiación solar	0
57845	7	Sololá	710	Panajachel	8	Panajachel	9	Septiembre	2023-01-09T00:00:00	2024-11-08T00:00:00	2	Temperatura media	18.2
57846	7	Sololá	710	Panajachel	8	Panajachel	9	Septiembre	2023-01-09T00:00:00	2024-11-08T00:00:00	4	Temperatura máxima	18.3
57847	7	Sololá	710	Panajachel	8	Panajachel	9	Septiembre	2023-01-09T00:00:00	2024-11-08T00:00:00	3	Temperatura mínima	18.1
57848	7	Sololá	710	Panajachel	8	Panajachel	9	Septiembre	2023-01-09T00:00:00	2024-11-08T00:00:00	5	Humedad	92
57849	7	Sololá	710	Panajachel	8	Panajachel	9	Septiembre	2023-01-09T00:00:00	2024-11-08T00:00:00	6	Velocidad del viento	1.6
57850	7	Sololá	710	Panajachel	8	Panajachel	9	Septiembre	2023-01-09T00:00:00	2024-11-08T00:00:00	7	Dirección del viento	1.61
57851	7	Sololá	710	Panajachel	8	Panajachel	9	Septiembre	2023-01-09T00:00:00	2024-11-08T00:00:00	1	Precipitación	0
57852	7	Sololá	710	Panajachel	8	Panajachel	9	Septiembre	2023-01-09T00:00:00	2024-11-08T00:00:00	8	Radiación solar	0
57853	7	Sololá	710	Panajachel	8	Panajachel	9	Septiembre	2023-01-09T00:00:00	2024-11-08T01:00:00	2	Temperatura media	18.2
57854	7	Sololá	710	Panajachel	8	Panajachel	9	Septiembre	2023-01-09T00:00:00	2024-11-08T01:00:00	4	Temperatura máxima	19.5
57855	7	Sololá	710	Panajachel	8	Panajachel	9	Septiembre	2023-01-09T00:00:00	2024-11-08T01:00:00	3	Temperatura mínima	18.2
57856	7	Sololá	710	Panajachel	8	Panajachel	9	Septiembre	2023-01-09T00:00:00	2024-11-08T01:00:00	5	Humedad	80
57857	7	Sololá	710	Panajachel	8	Panajachel	9	Septiembre	2023-01-09T00:00:00	2024-11-08T01:00:00	6	Velocidad del viento	6.4
57858	7	Sololá	710	Panajachel	8	Panajachel	9	Septiembre	2023-01-09T00:00:00	2024-11-08T01:00:00	7	Dirección del viento	6.44
57859	7	Sololá	710	Panajachel	8	Panajachel	9	Septiembre	2023-01-09T00:00:00	2024-11-08T01:00:00	1	Precipitación	0
57860	7	Sololá	710	Panajachel	8	Panajachel	9	Septiembre	2023-01-09T00:00:00	2024-11-08T01:00:00	8	Radiación solar	0
57861	7	Sololá	710	Panajachel	8	Panajachel	9	Septiembre	2023-01-09T00:00:00	2024-11-08T02:00:00	2	Temperatura media	17.7
57862	7	Sololá	710	Panajachel	8	Panajachel	9	Septiembre	2023-01-09T00:00:00	2024-11-08T02:00:00	4	Temperatura máxima	18.5
57863	7	Sololá	710	Panajachel	8	Panajachel	9	Septiembre	2023-01-09T00:00:00	2024-11-08T02:00:00	3	Temperatura mínima	17.7
57864	7	Sololá	710	Panajachel	8	Panajachel	9	Septiembre	2023-01-09T00:00:00	2024-11-08T02:00:00	5	Humedad	82
57865	7	Sololá	710	Panajachel	8	Panajachel	9	Septiembre	2023-01-09T00:00:00	2024-11-08T02:00:00	6	Velocidad del viento	4.8
57866	7	Sololá	710	Panajachel	8	Panajachel	9	Septiembre	2023-01-09T00:00:00	2024-11-08T02:00:00	7	Dirección del viento	4.83
57867	7	Sololá	710	Panajachel	8	Panajachel	9	Septiembre	2023-01-09T00:00:00	2024-11-08T02:00:00	1	Precipitación	0
57868	7	Sololá	710	Panajachel	8	Panajachel	9	Septiembre	2023-01-09T00:00:00	2024-11-08T02:00:00	8	Radiación solar	0
57869	7	Sololá	710	Panajachel	8	Panajachel	9	Septiembre	2023-01-09T00:00:00	2024-11-08T03:00:00	2	Temperatura media	17.7
57870	7	Sololá	710	Panajachel	8	Panajachel	9	Septiembre	2023-01-09T00:00:00	2024-11-08T03:00:00	4	Temperatura máxima	18.3
57871	7	Sololá	710	Panajachel	8	Panajachel	9	Septiembre	2023-01-09T00:00:00	2024-11-08T03:00:00	3	Temperatura mínima	17.7
57872	7	Sololá	710	Panajachel	8	Panajachel	9	Septiembre	2023-01-09T00:00:00	2024-11-08T03:00:00	5	Humedad	80
57873	7	Sololá	710	Panajachel	8	Panajachel	9	Septiembre	2023-01-09T00:00:00	2024-11-08T03:00:00	6	Velocidad del viento	3.2
57874	7	Sololá	710	Panajachel	8	Panajachel	9	Septiembre	2023-01-09T00:00:00	2024-11-08T03:00:00	7	Dirección del viento	3.22
57875	7	Sololá	710	Panajachel	8	Panajachel	9	Septiembre	2023-01-09T00:00:00	2024-11-08T03:00:00	1	Precipitación	0
57876	7	Sololá	710	Panajachel	8	Panajachel	9	Septiembre	2023-01-09T00:00:00	2024-11-08T03:00:00	8	Radiación solar	0
57877	7	Sololá	710	Panajachel	8	Panajachel	9	Septiembre	2023-01-09T00:00:00	2024-11-08T04:00:00	2	Temperatura media	18
57878	7	Sololá	710	Panajachel	8	Panajachel	9	Septiembre	2023-01-09T00:00:00	2024-11-08T04:00:00	4	Temperatura máxima	18
57879	7	Sololá	710	Panajachel	8	Panajachel	9	Septiembre	2023-01-09T00:00:00	2024-11-08T04:00:00	3	Temperatura mínima	17.4
57880	7	Sololá	710	Panajachel	8	Panajachel	9	Septiembre	2023-01-09T00:00:00	2024-11-08T04:00:00	5	Humedad	80
57881	7	Sololá	710	Panajachel	8	Panajachel	9	Septiembre	2023-01-09T00:00:00	2024-11-08T04:00:00	6	Velocidad del viento	3.2
57882	7	Sololá	710	Panajachel	8	Panajachel	9	Septiembre	2023-01-09T00:00:00	2024-11-08T04:00:00	7	Dirección del viento	3.22
57883	7	Sololá	710	Panajachel	8	Panajachel	9	Septiembre	2023-01-09T00:00:00	2024-11-08T04:00:00	1	Precipitación	0
57884	7	Sololá	710	Panajachel	8	Panajachel	9	Septiembre	2023-01-09T00:00:00	2024-11-08T04:00:00	8	Radiación solar	0
57885	7	Sololá	710	Panajachel	8	Panajachel	9	Septiembre	2023-01-09T00:00:00	2024-11-08T05:00:00	2	Temperatura media	17.2
57886	7	Sololá	710	Panajachel	8	Panajachel	9	Septiembre	2023-01-09T00:00:00	2024-11-08T05:00:00	4	Temperatura máxima	18
57887	7	Sololá	710	Panajachel	8	Panajachel	9	Septiembre	2023-01-09T00:00:00	2024-11-08T05:00:00	3	Temperatura mínima	17.2
57888	7	Sololá	710	Panajachel	8	Panajachel	9	Septiembre	2023-01-09T00:00:00	2024-11-08T05:00:00	5	Humedad	84
57889	7	Sololá	710	Panajachel	8	Panajachel	9	Septiembre	2023-01-09T00:00:00	2024-11-08T05:00:00	6	Velocidad del viento	4.8
57890	7	Sololá	710	Panajachel	8	Panajachel	9	Septiembre	2023-01-09T00:00:00	2024-11-08T05:00:00	7	Dirección del viento	4.83
57891	7	Sololá	710	Panajachel	8	Panajachel	9	Septiembre	2023-01-09T00:00:00	2024-11-08T05:00:00	1	Precipitación	0
57892	7	Sololá	710	Panajachel	8	Panajachel	9	Septiembre	2023-01-09T00:00:00	2024-11-08T05:00:00	8	Radiación solar	0
57893	7	Sololá	710	Panajachel	8	Panajachel	9	Septiembre	2023-01-09T00:00:00	2024-11-08T06:00:00	2	Temperatura media	16.2
57894	7	Sololá	710	Panajachel	8	Panajachel	9	Septiembre	2023-01-09T00:00:00	2024-11-08T06:00:00	4	Temperatura máxima	17.3
57895	7	Sololá	710	Panajachel	8	Panajachel	9	Septiembre	2023-01-09T00:00:00	2024-11-08T06:00:00	3	Temperatura mínima	16.2
57896	7	Sololá	710	Panajachel	8	Panajachel	9	Septiembre	2023-01-09T00:00:00	2024-11-08T06:00:00	5	Humedad	88
57897	7	Sololá	710	Panajachel	8	Panajachel	9	Septiembre	2023-01-09T00:00:00	2024-11-08T06:00:00	6	Velocidad del viento	3.2
57898	7	Sololá	710	Panajachel	8	Panajachel	9	Septiembre	2023-01-09T00:00:00	2024-11-08T06:00:00	7	Dirección del viento	3.22
57899	7	Sololá	710	Panajachel	8	Panajachel	9	Septiembre	2023-01-09T00:00:00	2024-11-08T06:00:00	1	Precipitación	0
57900	7	Sololá	710	Panajachel	8	Panajachel	9	Septiembre	2023-01-09T00:00:00	2024-11-08T06:00:00	8	Radiación solar	0
57901	7	Sololá	710	Panajachel	8	Panajachel	9	Septiembre	2023-01-09T00:00:00	2024-11-08T07:00:00	2	Temperatura media	18
57902	7	Sololá	710	Panajachel	8	Panajachel	9	Septiembre	2023-01-09T00:00:00	2024-11-08T07:00:00	4	Temperatura máxima	18
57903	7	Sololá	710	Panajachel	8	Panajachel	9	Septiembre	2023-01-09T00:00:00	2024-11-08T07:00:00	3	Temperatura mínima	16.1
57904	7	Sololá	710	Panajachel	8	Panajachel	9	Septiembre	2023-01-09T00:00:00	2024-11-08T07:00:00	5	Humedad	83
57905	7	Sololá	710	Panajachel	8	Panajachel	9	Septiembre	2023-01-09T00:00:00	2024-11-08T07:00:00	6	Velocidad del viento	3.2
57906	7	Sololá	710	Panajachel	8	Panajachel	9	Septiembre	2023-01-09T00:00:00	2024-11-08T07:00:00	7	Dirección del viento	3.22
57907	7	Sololá	710	Panajachel	8	Panajachel	9	Septiembre	2023-01-09T00:00:00	2024-11-08T07:00:00	1	Precipitación	0
57908	7	Sololá	710	Panajachel	8	Panajachel	9	Septiembre	2023-01-09T00:00:00	2024-11-08T07:00:00	8	Radiación solar	68
57909	7	Sololá	710	Panajachel	8	Panajachel	9	Septiembre	2023-01-09T00:00:00	2024-11-08T08:00:00	2	Temperatura media	23.1
57910	7	Sololá	710	Panajachel	8	Panajachel	9	Septiembre	2023-01-09T00:00:00	2024-11-08T08:00:00	4	Temperatura máxima	23.1
57911	7	Sololá	710	Panajachel	8	Panajachel	9	Septiembre	2023-01-09T00:00:00	2024-11-08T08:00:00	3	Temperatura mínima	18
57912	7	Sololá	710	Panajachel	8	Panajachel	9	Septiembre	2023-01-09T00:00:00	2024-11-08T08:00:00	5	Humedad	64
57913	7	Sololá	710	Panajachel	8	Panajachel	9	Septiembre	2023-01-09T00:00:00	2024-11-08T08:00:00	6	Velocidad del viento	1.6
57914	7	Sololá	710	Panajachel	8	Panajachel	9	Septiembre	2023-01-09T00:00:00	2024-11-08T08:00:00	7	Dirección del viento	1.61
57915	7	Sololá	710	Panajachel	8	Panajachel	9	Septiembre	2023-01-09T00:00:00	2024-11-08T08:00:00	1	Precipitación	0
57916	7	Sololá	710	Panajachel	8	Panajachel	9	Septiembre	2023-01-09T00:00:00	2024-11-08T08:00:00	8	Radiación solar	304
57917	7	Sololá	710	Panajachel	8	Panajachel	9	Septiembre	2023-01-09T00:00:00	2024-11-08T09:00:00	2	Temperatura media	25.6
57918	7	Sololá	710	Panajachel	8	Panajachel	9	Septiembre	2023-01-09T00:00:00	2024-11-08T09:00:00	4	Temperatura máxima	25.6
57919	7	Sololá	710	Panajachel	8	Panajachel	9	Septiembre	2023-01-09T00:00:00	2024-11-08T09:00:00	3	Temperatura mínima	22.4
57920	7	Sololá	710	Panajachel	8	Panajachel	9	Septiembre	2023-01-09T00:00:00	2024-11-08T09:00:00	5	Humedad	56
57921	7	Sololá	710	Panajachel	8	Panajachel	9	Septiembre	2023-01-09T00:00:00	2024-11-08T09:00:00	6	Velocidad del viento	4.8
57922	7	Sololá	710	Panajachel	8	Panajachel	9	Septiembre	2023-01-09T00:00:00	2024-11-08T09:00:00	7	Dirección del viento	4.83
57923	7	Sololá	710	Panajachel	8	Panajachel	9	Septiembre	2023-01-09T00:00:00	2024-11-08T09:00:00	1	Precipitación	0
57924	7	Sololá	710	Panajachel	8	Panajachel	9	Septiembre	2023-01-09T00:00:00	2024-11-08T09:00:00	8	Radiación solar	550
57925	7	Sololá	710	Panajachel	8	Panajachel	9	Septiembre	2023-01-09T00:00:00	2024-11-08T10:00:00	2	Temperatura media	27
57926	7	Sololá	710	Panajachel	8	Panajachel	9	Septiembre	2023-01-09T00:00:00	2024-11-08T10:00:00	4	Temperatura máxima	27.1
57927	7	Sololá	710	Panajachel	8	Panajachel	9	Septiembre	2023-01-09T00:00:00	2024-11-08T10:00:00	3	Temperatura mínima	25.6
57928	7	Sololá	710	Panajachel	8	Panajachel	9	Septiembre	2023-01-09T00:00:00	2024-11-08T10:00:00	5	Humedad	58
57929	7	Sololá	710	Panajachel	8	Panajachel	9	Septiembre	2023-01-09T00:00:00	2024-11-08T10:00:00	6	Velocidad del viento	1.6
57930	7	Sololá	710	Panajachel	8	Panajachel	9	Septiembre	2023-01-09T00:00:00	2024-11-08T10:00:00	7	Dirección del viento	1.61
57931	7	Sololá	710	Panajachel	8	Panajachel	9	Septiembre	2023-01-09T00:00:00	2024-11-08T10:00:00	1	Precipitación	0
57932	7	Sololá	710	Panajachel	8	Panajachel	9	Septiembre	2023-01-09T00:00:00	2024-11-08T10:00:00	8	Radiación solar	730
57933	7	Sololá	710	Panajachel	8	Panajachel	9	Septiembre	2023-01-09T00:00:00	2024-11-08T11:00:00	2	Temperatura media	26.8
57934	7	Sololá	710	Panajachel	8	Panajachel	9	Septiembre	2023-01-09T00:00:00	2024-11-08T11:00:00	4	Temperatura máxima	27.1
57935	7	Sololá	710	Panajachel	8	Panajachel	9	Septiembre	2023-01-09T00:00:00	2024-11-08T11:00:00	3	Temperatura mínima	26.6
57936	7	Sololá	710	Panajachel	8	Panajachel	9	Septiembre	2023-01-09T00:00:00	2024-11-08T11:00:00	5	Humedad	63
57937	7	Sololá	710	Panajachel	8	Panajachel	9	Septiembre	2023-01-09T00:00:00	2024-11-08T11:00:00	6	Velocidad del viento	0
57938	7	Sololá	710	Panajachel	8	Panajachel	9	Septiembre	2023-01-09T00:00:00	2024-11-08T11:00:00	7	Dirección del viento	0
57939	7	Sololá	710	Panajachel	8	Panajachel	9	Septiembre	2023-01-09T00:00:00	2024-11-08T11:00:00	1	Precipitación	0
57940	7	Sololá	710	Panajachel	8	Panajachel	9	Septiembre	2023-01-09T00:00:00	2024-11-08T11:00:00	8	Radiación solar	868
57941	7	Sololá	710	Panajachel	8	Panajachel	9	Septiembre	2023-01-09T00:00:00	2024-11-08T12:00:00	2	Temperatura media	27.9
57942	7	Sololá	710	Panajachel	8	Panajachel	9	Septiembre	2023-01-09T00:00:00	2024-11-08T12:00:00	4	Temperatura máxima	28.2
57943	7	Sololá	710	Panajachel	8	Panajachel	9	Septiembre	2023-01-09T00:00:00	2024-11-08T12:00:00	3	Temperatura mínima	26.8
57944	7	Sololá	710	Panajachel	8	Panajachel	9	Septiembre	2023-01-09T00:00:00	2024-11-08T12:00:00	5	Humedad	54
57945	7	Sololá	710	Panajachel	8	Panajachel	9	Septiembre	2023-01-09T00:00:00	2024-11-08T12:00:00	6	Velocidad del viento	1.6
57946	7	Sololá	710	Panajachel	8	Panajachel	9	Septiembre	2023-01-09T00:00:00	2024-11-08T12:00:00	7	Dirección del viento	1.61
57947	7	Sololá	710	Panajachel	8	Panajachel	9	Septiembre	2023-01-09T00:00:00	2024-11-08T12:00:00	1	Precipitación	0
57948	7	Sololá	710	Panajachel	8	Panajachel	9	Septiembre	2023-01-09T00:00:00	2024-11-08T12:00:00	8	Radiación solar	955
57949	7	Sololá	710	Panajachel	8	Panajachel	9	Septiembre	2023-01-09T00:00:00	2024-11-08T13:00:00	2	Temperatura media	26.8
57950	7	Sololá	710	Panajachel	8	Panajachel	9	Septiembre	2023-01-09T00:00:00	2024-11-08T13:00:00	4	Temperatura máxima	28.4
57951	7	Sololá	710	Panajachel	8	Panajachel	9	Septiembre	2023-01-09T00:00:00	2024-11-08T13:00:00	3	Temperatura mínima	26.8
57952	7	Sololá	710	Panajachel	8	Panajachel	9	Septiembre	2023-01-09T00:00:00	2024-11-08T13:00:00	5	Humedad	74
57953	7	Sololá	710	Panajachel	8	Panajachel	9	Septiembre	2023-01-09T00:00:00	2024-11-08T13:00:00	6	Velocidad del viento	3.2
57954	7	Sololá	710	Panajachel	8	Panajachel	9	Septiembre	2023-01-09T00:00:00	2024-11-08T13:00:00	7	Dirección del viento	3.22
57955	7	Sololá	710	Panajachel	8	Panajachel	9	Septiembre	2023-01-09T00:00:00	2024-11-08T13:00:00	1	Precipitación	0
57956	7	Sololá	710	Panajachel	8	Panajachel	9	Septiembre	2023-01-09T00:00:00	2024-11-08T13:00:00	8	Radiación solar	986
57957	7	Sololá	710	Panajachel	8	Panajachel	9	Septiembre	2023-01-09T00:00:00	2024-11-08T14:00:00	2	Temperatura media	25.3
57958	7	Sololá	710	Panajachel	8	Panajachel	9	Septiembre	2023-01-09T00:00:00	2024-11-08T14:00:00	4	Temperatura máxima	27.2
57959	7	Sololá	710	Panajachel	8	Panajachel	9	Septiembre	2023-01-09T00:00:00	2024-11-08T14:00:00	3	Temperatura mínima	25.3
57960	7	Sololá	710	Panajachel	8	Panajachel	9	Septiembre	2023-01-09T00:00:00	2024-11-08T14:00:00	5	Humedad	78
57961	7	Sololá	710	Panajachel	8	Panajachel	9	Septiembre	2023-01-09T00:00:00	2024-11-08T14:00:00	6	Velocidad del viento	6.4
57962	7	Sololá	710	Panajachel	8	Panajachel	9	Septiembre	2023-01-09T00:00:00	2024-11-08T14:00:00	7	Dirección del viento	6.44
57963	7	Sololá	710	Panajachel	8	Panajachel	9	Septiembre	2023-01-09T00:00:00	2024-11-08T14:00:00	1	Precipitación	0
57964	7	Sololá	710	Panajachel	8	Panajachel	9	Septiembre	2023-01-09T00:00:00	2024-11-08T14:00:00	8	Radiación solar	992
57965	7	Sololá	710	Panajachel	8	Panajachel	9	Septiembre	2023-01-09T00:00:00	2024-11-08T15:00:00	2	Temperatura media	25.7
57966	7	Sololá	710	Panajachel	8	Panajachel	9	Septiembre	2023-01-09T00:00:00	2024-11-08T15:00:00	4	Temperatura máxima	25.8
57967	7	Sololá	710	Panajachel	8	Panajachel	9	Septiembre	2023-01-09T00:00:00	2024-11-08T15:00:00	3	Temperatura mínima	24.9
57968	7	Sololá	710	Panajachel	8	Panajachel	9	Septiembre	2023-01-09T00:00:00	2024-11-08T15:00:00	5	Humedad	78
57969	7	Sololá	710	Panajachel	8	Panajachel	9	Septiembre	2023-01-09T00:00:00	2024-11-08T15:00:00	6	Velocidad del viento	4.8
57970	7	Sololá	710	Panajachel	8	Panajachel	9	Septiembre	2023-01-09T00:00:00	2024-11-08T15:00:00	7	Dirección del viento	4.83
57971	7	Sololá	710	Panajachel	8	Panajachel	9	Septiembre	2023-01-09T00:00:00	2024-11-08T15:00:00	1	Precipitación	0
57972	7	Sololá	710	Panajachel	8	Panajachel	9	Septiembre	2023-01-09T00:00:00	2024-11-08T15:00:00	8	Radiación solar	731
57973	7	Sololá	710	Panajachel	8	Panajachel	9	Septiembre	2023-01-09T00:00:00	2024-11-08T16:00:00	2	Temperatura media	24.5
57974	7	Sololá	710	Panajachel	8	Panajachel	9	Septiembre	2023-01-09T00:00:00	2024-11-08T16:00:00	4	Temperatura máxima	25.7
57975	7	Sololá	710	Panajachel	8	Panajachel	9	Septiembre	2023-01-09T00:00:00	2024-11-08T16:00:00	3	Temperatura mínima	24.4
57976	7	Sololá	710	Panajachel	8	Panajachel	9	Septiembre	2023-01-09T00:00:00	2024-11-08T16:00:00	5	Humedad	83
57977	7	Sololá	710	Panajachel	8	Panajachel	9	Septiembre	2023-01-09T00:00:00	2024-11-08T16:00:00	6	Velocidad del viento	3.2
57978	7	Sololá	710	Panajachel	8	Panajachel	9	Septiembre	2023-01-09T00:00:00	2024-11-08T16:00:00	7	Dirección del viento	3.22
57979	7	Sololá	710	Panajachel	8	Panajachel	9	Septiembre	2023-01-09T00:00:00	2024-11-08T16:00:00	1	Precipitación	0
57980	7	Sololá	710	Panajachel	8	Panajachel	9	Septiembre	2023-01-09T00:00:00	2024-11-08T16:00:00	8	Radiación solar	384
57981	7	Sololá	710	Panajachel	8	Panajachel	9	Septiembre	2023-01-09T00:00:00	2024-11-08T17:00:00	2	Temperatura media	23.3
57982	7	Sololá	710	Panajachel	8	Panajachel	9	Septiembre	2023-01-09T00:00:00	2024-11-08T17:00:00	4	Temperatura máxima	25.2
57983	7	Sololá	710	Panajachel	8	Panajachel	9	Septiembre	2023-01-09T00:00:00	2024-11-08T17:00:00	3	Temperatura mínima	23.3
57984	7	Sololá	710	Panajachel	8	Panajachel	9	Septiembre	2023-01-09T00:00:00	2024-11-08T17:00:00	5	Humedad	85
57985	7	Sololá	710	Panajachel	8	Panajachel	9	Septiembre	2023-01-09T00:00:00	2024-11-08T17:00:00	6	Velocidad del viento	4.8
57986	7	Sololá	710	Panajachel	8	Panajachel	9	Septiembre	2023-01-09T00:00:00	2024-11-08T17:00:00	7	Dirección del viento	4.83
57987	7	Sololá	710	Panajachel	8	Panajachel	9	Septiembre	2023-01-09T00:00:00	2024-11-08T17:00:00	1	Precipitación	0
57988	7	Sololá	710	Panajachel	8	Panajachel	9	Septiembre	2023-01-09T00:00:00	2024-11-08T17:00:00	8	Radiación solar	194
57989	7	Sololá	710	Panajachel	8	Panajachel	9	Septiembre	2023-01-09T00:00:00	2024-11-08T18:00:00	2	Temperatura media	22.1
57990	7	Sololá	710	Panajachel	8	Panajachel	9	Septiembre	2023-01-09T00:00:00	2024-11-08T18:00:00	4	Temperatura máxima	23.3
57991	7	Sololá	710	Panajachel	8	Panajachel	9	Septiembre	2023-01-09T00:00:00	2024-11-08T18:00:00	3	Temperatura mínima	22
57992	7	Sololá	710	Panajachel	8	Panajachel	9	Septiembre	2023-01-09T00:00:00	2024-11-08T18:00:00	5	Humedad	89
57993	7	Sololá	710	Panajachel	8	Panajachel	9	Septiembre	2023-01-09T00:00:00	2024-11-08T18:00:00	6	Velocidad del viento	3.2
57994	7	Sololá	710	Panajachel	8	Panajachel	9	Septiembre	2023-01-09T00:00:00	2024-11-08T18:00:00	7	Dirección del viento	3.22
57995	7	Sololá	710	Panajachel	8	Panajachel	9	Septiembre	2023-01-09T00:00:00	2024-11-08T18:00:00	1	Precipitación	0
57996	7	Sololá	710	Panajachel	8	Panajachel	9	Septiembre	2023-01-09T00:00:00	2024-11-08T18:00:00	8	Radiación solar	20
57997	7	Sololá	710	Panajachel	8	Panajachel	9	Septiembre	2023-01-09T00:00:00	2024-11-08T19:00:00	2	Temperatura media	21.9
57998	7	Sololá	710	Panajachel	8	Panajachel	9	Septiembre	2023-01-09T00:00:00	2024-11-08T19:00:00	4	Temperatura máxima	22.1
57999	7	Sololá	710	Panajachel	8	Panajachel	9	Septiembre	2023-01-09T00:00:00	2024-11-08T19:00:00	3	Temperatura mínima	21.8
58000	7	Sololá	710	Panajachel	8	Panajachel	9	Septiembre	2023-01-09T00:00:00	2024-11-08T19:00:00	5	Humedad	90
58001	7	Sololá	710	Panajachel	8	Panajachel	9	Septiembre	2023-01-09T00:00:00	2024-11-08T19:00:00	6	Velocidad del viento	0
58002	7	Sololá	710	Panajachel	8	Panajachel	9	Septiembre	2023-01-09T00:00:00	2024-11-08T19:00:00	7	Dirección del viento	0
58003	7	Sololá	710	Panajachel	8	Panajachel	9	Septiembre	2023-01-09T00:00:00	2024-11-08T19:00:00	1	Precipitación	0
58004	7	Sololá	710	Panajachel	8	Panajachel	9	Septiembre	2023-01-09T00:00:00	2024-11-08T19:00:00	8	Radiación solar	0
58005	7	Sololá	710	Panajachel	8	Panajachel	9	Septiembre	2023-01-09T00:00:00	2024-11-08T20:00:00	2	Temperatura media	20.5
58006	7	Sololá	710	Panajachel	8	Panajachel	9	Septiembre	2023-01-09T00:00:00	2024-11-08T20:00:00	4	Temperatura máxima	21.9
58007	7	Sololá	710	Panajachel	8	Panajachel	9	Septiembre	2023-01-09T00:00:00	2024-11-08T20:00:00	3	Temperatura mínima	20.5
58008	7	Sololá	710	Panajachel	8	Panajachel	9	Septiembre	2023-01-09T00:00:00	2024-11-08T20:00:00	5	Humedad	88
58009	7	Sololá	710	Panajachel	8	Panajachel	9	Septiembre	2023-01-09T00:00:00	2024-11-08T20:00:00	6	Velocidad del viento	1.6
58010	7	Sololá	710	Panajachel	8	Panajachel	9	Septiembre	2023-01-09T00:00:00	2024-11-08T20:00:00	7	Dirección del viento	1.61
58011	7	Sololá	710	Panajachel	8	Panajachel	9	Septiembre	2023-01-09T00:00:00	2024-11-08T20:00:00	1	Precipitación	1
58012	7	Sololá	710	Panajachel	8	Panajachel	9	Septiembre	2023-01-09T00:00:00	2024-11-08T20:00:00	8	Radiación solar	0
58013	7	Sololá	710	Panajachel	8	Panajachel	9	Septiembre	2023-01-09T00:00:00	2024-11-08T21:00:00	2	Temperatura media	18.4
58014	7	Sololá	710	Panajachel	8	Panajachel	9	Septiembre	2023-01-09T00:00:00	2024-11-08T21:00:00	4	Temperatura máxima	20.5
58015	7	Sololá	710	Panajachel	8	Panajachel	9	Septiembre	2023-01-09T00:00:00	2024-11-08T21:00:00	3	Temperatura mínima	18.4
58016	7	Sololá	710	Panajachel	8	Panajachel	9	Septiembre	2023-01-09T00:00:00	2024-11-08T21:00:00	5	Humedad	93
58017	7	Sololá	710	Panajachel	8	Panajachel	9	Septiembre	2023-01-09T00:00:00	2024-11-08T21:00:00	6	Velocidad del viento	1.6
58018	7	Sololá	710	Panajachel	8	Panajachel	9	Septiembre	2023-01-09T00:00:00	2024-11-08T21:00:00	7	Dirección del viento	1.61
58019	7	Sololá	710	Panajachel	8	Panajachel	9	Septiembre	2023-01-09T00:00:00	2024-11-08T21:00:00	1	Precipitación	3.4
58020	7	Sololá	710	Panajachel	8	Panajachel	9	Septiembre	2023-01-09T00:00:00	2024-11-08T21:00:00	8	Radiación solar	0
58021	7	Sololá	710	Panajachel	8	Panajachel	9	Septiembre	2023-01-09T00:00:00	2024-11-08T22:00:00	2	Temperatura media	18.3
58022	7	Sololá	710	Panajachel	8	Panajachel	9	Septiembre	2023-01-09T00:00:00	2024-11-08T22:00:00	4	Temperatura máxima	18.6
58023	7	Sololá	710	Panajachel	8	Panajachel	9	Septiembre	2023-01-09T00:00:00	2024-11-08T22:00:00	3	Temperatura mínima	18.2
58024	7	Sololá	710	Panajachel	8	Panajachel	9	Septiembre	2023-01-09T00:00:00	2024-11-08T22:00:00	5	Humedad	86
58025	7	Sololá	710	Panajachel	8	Panajachel	9	Septiembre	2023-01-09T00:00:00	2024-11-08T22:00:00	6	Velocidad del viento	1.6
58026	7	Sololá	710	Panajachel	8	Panajachel	9	Septiembre	2023-01-09T00:00:00	2024-11-08T22:00:00	7	Dirección del viento	1.61
58027	7	Sololá	710	Panajachel	8	Panajachel	9	Septiembre	2023-01-09T00:00:00	2024-11-08T22:00:00	1	Precipitación	0
58028	7	Sololá	710	Panajachel	8	Panajachel	9	Septiembre	2023-01-09T00:00:00	2024-11-08T22:00:00	8	Radiación solar	0
58029	7	Sololá	710	Panajachel	8	Panajachel	9	Septiembre	2023-01-09T00:00:00	2024-11-08T23:00:00	2	Temperatura media	20.6
58030	7	Sololá	710	Panajachel	8	Panajachel	9	Septiembre	2023-01-09T00:00:00	2024-11-08T23:00:00	4	Temperatura máxima	21
58031	7	Sololá	710	Panajachel	8	Panajachel	9	Septiembre	2023-01-09T00:00:00	2024-11-08T23:00:00	3	Temperatura mínima	18.3
58032	7	Sololá	710	Panajachel	8	Panajachel	9	Septiembre	2023-01-09T00:00:00	2024-11-08T23:00:00	5	Humedad	80
58033	7	Sololá	710	Panajachel	8	Panajachel	9	Septiembre	2023-01-09T00:00:00	2024-11-08T23:00:00	6	Velocidad del viento	8
58034	7	Sololá	710	Panajachel	8	Panajachel	9	Septiembre	2023-01-09T00:00:00	2024-11-08T23:00:00	7	Dirección del viento	8.05
58035	7	Sololá	710	Panajachel	8	Panajachel	9	Septiembre	2023-01-09T00:00:00	2024-11-08T23:00:00	1	Precipitación	0
58036	7	Sololá	710	Panajachel	8	Panajachel	9	Septiembre	2023-01-09T00:00:00	2024-11-08T23:00:00	8	Radiación solar	0
58037	7	Sololá	710	Panajachel	8	Panajachel	9	Septiembre	2023-02-09T00:00:00	2024-11-08T00:00:00	2	Temperatura media	21.1
58038	7	Sololá	710	Panajachel	8	Panajachel	9	Septiembre	2023-02-09T00:00:00	2024-11-08T00:00:00	4	Temperatura máxima	21.2
58039	7	Sololá	710	Panajachel	8	Panajachel	9	Septiembre	2023-02-09T00:00:00	2024-11-08T00:00:00	3	Temperatura mínima	19.3
58040	7	Sololá	710	Panajachel	8	Panajachel	9	Septiembre	2023-02-09T00:00:00	2024-11-08T00:00:00	5	Humedad	74
58041	7	Sololá	710	Panajachel	8	Panajachel	9	Septiembre	2023-02-09T00:00:00	2024-11-08T00:00:00	6	Velocidad del viento	8
58042	7	Sololá	710	Panajachel	8	Panajachel	9	Septiembre	2023-02-09T00:00:00	2024-11-08T00:00:00	7	Dirección del viento	8.05
58043	7	Sololá	710	Panajachel	8	Panajachel	9	Septiembre	2023-02-09T00:00:00	2024-11-08T00:00:00	1	Precipitación	0
58044	7	Sololá	710	Panajachel	8	Panajachel	9	Septiembre	2023-02-09T00:00:00	2024-11-08T00:00:00	8	Radiación solar	0
58045	7	Sololá	710	Panajachel	8	Panajachel	9	Septiembre	2023-02-09T00:00:00	2024-11-08T01:00:00	2	Temperatura media	19.6
58046	7	Sololá	710	Panajachel	8	Panajachel	9	Septiembre	2023-02-09T00:00:00	2024-11-08T01:00:00	4	Temperatura máxima	21.1
58047	7	Sololá	710	Panajachel	8	Panajachel	9	Septiembre	2023-02-09T00:00:00	2024-11-08T01:00:00	3	Temperatura mínima	19.6
58048	7	Sololá	710	Panajachel	8	Panajachel	9	Septiembre	2023-02-09T00:00:00	2024-11-08T01:00:00	5	Humedad	83
58049	7	Sololá	710	Panajachel	8	Panajachel	9	Septiembre	2023-02-09T00:00:00	2024-11-08T01:00:00	6	Velocidad del viento	3.2
58050	7	Sololá	710	Panajachel	8	Panajachel	9	Septiembre	2023-02-09T00:00:00	2024-11-08T01:00:00	7	Dirección del viento	3.22
58051	7	Sololá	710	Panajachel	8	Panajachel	9	Septiembre	2023-02-09T00:00:00	2024-11-08T01:00:00	1	Precipitación	0
58052	7	Sololá	710	Panajachel	8	Panajachel	9	Septiembre	2023-02-09T00:00:00	2024-11-08T01:00:00	8	Radiación solar	0
58053	7	Sololá	710	Panajachel	8	Panajachel	9	Septiembre	2023-02-09T00:00:00	2024-11-08T02:00:00	2	Temperatura media	19.3
58054	7	Sololá	710	Panajachel	8	Panajachel	9	Septiembre	2023-02-09T00:00:00	2024-11-08T02:00:00	4	Temperatura máxima	19.7
58055	7	Sololá	710	Panajachel	8	Panajachel	9	Septiembre	2023-02-09T00:00:00	2024-11-08T02:00:00	3	Temperatura mínima	19.3
58056	7	Sololá	710	Panajachel	8	Panajachel	9	Septiembre	2023-02-09T00:00:00	2024-11-08T02:00:00	5	Humedad	83
58057	7	Sololá	710	Panajachel	8	Panajachel	9	Septiembre	2023-02-09T00:00:00	2024-11-08T02:00:00	6	Velocidad del viento	1.6
58058	7	Sololá	710	Panajachel	8	Panajachel	9	Septiembre	2023-02-09T00:00:00	2024-11-08T02:00:00	7	Dirección del viento	1.61
58059	7	Sololá	710	Panajachel	8	Panajachel	9	Septiembre	2023-02-09T00:00:00	2024-11-08T02:00:00	1	Precipitación	0
58060	7	Sololá	710	Panajachel	8	Panajachel	9	Septiembre	2023-02-09T00:00:00	2024-11-08T02:00:00	8	Radiación solar	0
58061	7	Sololá	710	Panajachel	8	Panajachel	9	Septiembre	2023-02-09T00:00:00	2024-11-08T03:00:00	2	Temperatura media	21.3
58062	7	Sololá	710	Panajachel	8	Panajachel	9	Septiembre	2023-02-09T00:00:00	2024-11-08T03:00:00	4	Temperatura máxima	21.3
58063	7	Sololá	710	Panajachel	8	Panajachel	9	Septiembre	2023-02-09T00:00:00	2024-11-08T03:00:00	3	Temperatura mínima	19.1
58064	7	Sololá	710	Panajachel	8	Panajachel	9	Septiembre	2023-02-09T00:00:00	2024-11-08T03:00:00	5	Humedad	69
58065	7	Sololá	710	Panajachel	8	Panajachel	9	Septiembre	2023-02-09T00:00:00	2024-11-08T03:00:00	6	Velocidad del viento	6.4
58066	7	Sololá	710	Panajachel	8	Panajachel	9	Septiembre	2023-02-09T00:00:00	2024-11-08T03:00:00	7	Dirección del viento	6.44
58067	7	Sololá	710	Panajachel	8	Panajachel	9	Septiembre	2023-02-09T00:00:00	2024-11-08T03:00:00	1	Precipitación	0
58068	7	Sololá	710	Panajachel	8	Panajachel	9	Septiembre	2023-02-09T00:00:00	2024-11-08T03:00:00	8	Radiación solar	0
58069	7	Sololá	710	Panajachel	8	Panajachel	9	Septiembre	2023-02-09T00:00:00	2024-11-08T04:00:00	2	Temperatura media	19.2
58070	7	Sololá	710	Panajachel	8	Panajachel	9	Septiembre	2023-02-09T00:00:00	2024-11-08T04:00:00	4	Temperatura máxima	21.3
58071	7	Sololá	710	Panajachel	8	Panajachel	9	Septiembre	2023-02-09T00:00:00	2024-11-08T04:00:00	3	Temperatura mínima	19.1
58072	7	Sololá	710	Panajachel	8	Panajachel	9	Septiembre	2023-02-09T00:00:00	2024-11-08T04:00:00	5	Humedad	79
58073	7	Sololá	710	Panajachel	8	Panajachel	9	Septiembre	2023-02-09T00:00:00	2024-11-08T04:00:00	6	Velocidad del viento	0
58074	7	Sololá	710	Panajachel	8	Panajachel	9	Septiembre	2023-02-09T00:00:00	2024-11-08T04:00:00	7	Dirección del viento	0
58075	7	Sololá	710	Panajachel	8	Panajachel	9	Septiembre	2023-02-09T00:00:00	2024-11-08T04:00:00	1	Precipitación	0
58076	7	Sololá	710	Panajachel	8	Panajachel	9	Septiembre	2023-02-09T00:00:00	2024-11-08T04:00:00	8	Radiación solar	0
58077	7	Sololá	710	Panajachel	8	Panajachel	9	Septiembre	2023-02-09T00:00:00	2024-11-08T05:00:00	2	Temperatura media	18.2
58078	7	Sololá	710	Panajachel	8	Panajachel	9	Septiembre	2023-02-09T00:00:00	2024-11-08T05:00:00	4	Temperatura máxima	19.5
58079	7	Sololá	710	Panajachel	8	Panajachel	9	Septiembre	2023-02-09T00:00:00	2024-11-08T05:00:00	3	Temperatura mínima	18.2
58080	7	Sololá	710	Panajachel	8	Panajachel	9	Septiembre	2023-02-09T00:00:00	2024-11-08T05:00:00	5	Humedad	83
58081	7	Sololá	710	Panajachel	8	Panajachel	9	Septiembre	2023-02-09T00:00:00	2024-11-08T05:00:00	6	Velocidad del viento	1.6
58082	7	Sololá	710	Panajachel	8	Panajachel	9	Septiembre	2023-02-09T00:00:00	2024-11-08T05:00:00	7	Dirección del viento	1.61
58083	7	Sololá	710	Panajachel	8	Panajachel	9	Septiembre	2023-02-09T00:00:00	2024-11-08T05:00:00	1	Precipitación	0
58084	7	Sololá	710	Panajachel	8	Panajachel	9	Septiembre	2023-02-09T00:00:00	2024-11-08T05:00:00	8	Radiación solar	0
58085	7	Sololá	710	Panajachel	8	Panajachel	9	Septiembre	2023-02-09T00:00:00	2024-11-08T06:00:00	2	Temperatura media	17.6
58086	7	Sololá	710	Panajachel	8	Panajachel	9	Septiembre	2023-02-09T00:00:00	2024-11-08T06:00:00	4	Temperatura máxima	18.2
58087	7	Sololá	710	Panajachel	8	Panajachel	9	Septiembre	2023-02-09T00:00:00	2024-11-08T06:00:00	3	Temperatura mínima	17.6
58088	7	Sololá	710	Panajachel	8	Panajachel	9	Septiembre	2023-02-09T00:00:00	2024-11-08T06:00:00	5	Humedad	84
58089	7	Sololá	710	Panajachel	8	Panajachel	9	Septiembre	2023-02-09T00:00:00	2024-11-08T06:00:00	6	Velocidad del viento	4.8
58090	7	Sololá	710	Panajachel	8	Panajachel	9	Septiembre	2023-02-09T00:00:00	2024-11-08T06:00:00	7	Dirección del viento	4.83
58091	7	Sololá	710	Panajachel	8	Panajachel	9	Septiembre	2023-02-09T00:00:00	2024-11-08T06:00:00	1	Precipitación	0
58092	7	Sololá	710	Panajachel	8	Panajachel	9	Septiembre	2023-02-09T00:00:00	2024-11-08T06:00:00	8	Radiación solar	1
58093	7	Sololá	710	Panajachel	8	Panajachel	9	Septiembre	2023-02-09T00:00:00	2024-11-08T07:00:00	2	Temperatura media	19.6
58094	7	Sololá	710	Panajachel	8	Panajachel	9	Septiembre	2023-02-09T00:00:00	2024-11-08T07:00:00	4	Temperatura máxima	19.6
58095	7	Sololá	710	Panajachel	8	Panajachel	9	Septiembre	2023-02-09T00:00:00	2024-11-08T07:00:00	3	Temperatura mínima	17.3
58096	7	Sololá	710	Panajachel	8	Panajachel	9	Septiembre	2023-02-09T00:00:00	2024-11-08T07:00:00	5	Humedad	77
58097	7	Sololá	710	Panajachel	8	Panajachel	9	Septiembre	2023-02-09T00:00:00	2024-11-08T07:00:00	6	Velocidad del viento	4.8
58098	7	Sololá	710	Panajachel	8	Panajachel	9	Septiembre	2023-02-09T00:00:00	2024-11-08T07:00:00	7	Dirección del viento	4.83
58099	7	Sololá	710	Panajachel	8	Panajachel	9	Septiembre	2023-02-09T00:00:00	2024-11-08T07:00:00	1	Precipitación	0
58100	7	Sololá	710	Panajachel	8	Panajachel	9	Septiembre	2023-02-09T00:00:00	2024-11-08T07:00:00	8	Radiación solar	72
58101	7	Sololá	710	Panajachel	8	Panajachel	9	Septiembre	2023-02-09T00:00:00	2024-11-08T08:00:00	2	Temperatura media	23.1
58102	7	Sololá	710	Panajachel	8	Panajachel	9	Septiembre	2023-02-09T00:00:00	2024-11-08T08:00:00	4	Temperatura máxima	23.1
58103	7	Sololá	710	Panajachel	8	Panajachel	9	Septiembre	2023-02-09T00:00:00	2024-11-08T08:00:00	3	Temperatura mínima	19.6
58104	7	Sololá	710	Panajachel	8	Panajachel	9	Septiembre	2023-02-09T00:00:00	2024-11-08T08:00:00	5	Humedad	71
58105	7	Sololá	710	Panajachel	8	Panajachel	9	Septiembre	2023-02-09T00:00:00	2024-11-08T08:00:00	6	Velocidad del viento	3.2
58106	7	Sololá	710	Panajachel	8	Panajachel	9	Septiembre	2023-02-09T00:00:00	2024-11-08T08:00:00	7	Dirección del viento	3.22
58107	7	Sololá	710	Panajachel	8	Panajachel	9	Septiembre	2023-02-09T00:00:00	2024-11-08T08:00:00	1	Precipitación	0
58108	7	Sololá	710	Panajachel	8	Panajachel	9	Septiembre	2023-02-09T00:00:00	2024-11-08T08:00:00	8	Radiación solar	305
58109	7	Sololá	710	Panajachel	8	Panajachel	9	Septiembre	2023-02-09T00:00:00	2024-11-08T09:00:00	2	Temperatura media	22.8
58110	7	Sololá	710	Panajachel	8	Panajachel	9	Septiembre	2023-02-09T00:00:00	2024-11-08T09:00:00	4	Temperatura máxima	23.7
58111	7	Sololá	710	Panajachel	8	Panajachel	9	Septiembre	2023-02-09T00:00:00	2024-11-08T09:00:00	3	Temperatura mínima	22.7
58112	7	Sololá	710	Panajachel	8	Panajachel	9	Septiembre	2023-02-09T00:00:00	2024-11-08T09:00:00	5	Humedad	70
58113	7	Sololá	710	Panajachel	8	Panajachel	9	Septiembre	2023-02-09T00:00:00	2024-11-08T09:00:00	6	Velocidad del viento	1.6
58114	7	Sololá	710	Panajachel	8	Panajachel	9	Septiembre	2023-02-09T00:00:00	2024-11-08T09:00:00	7	Dirección del viento	1.61
58115	7	Sololá	710	Panajachel	8	Panajachel	9	Septiembre	2023-02-09T00:00:00	2024-11-08T09:00:00	1	Precipitación	0
58116	7	Sololá	710	Panajachel	8	Panajachel	9	Septiembre	2023-02-09T00:00:00	2024-11-08T09:00:00	8	Radiación solar	524
58117	7	Sololá	710	Panajachel	8	Panajachel	9	Septiembre	2023-02-09T00:00:00	2024-11-08T10:00:00	2	Temperatura media	23.4
58118	7	Sololá	710	Panajachel	8	Panajachel	9	Septiembre	2023-02-09T00:00:00	2024-11-08T10:00:00	4	Temperatura máxima	23.7
58119	7	Sololá	710	Panajachel	8	Panajachel	9	Septiembre	2023-02-09T00:00:00	2024-11-08T10:00:00	3	Temperatura mínima	22.8
58120	7	Sololá	710	Panajachel	8	Panajachel	9	Septiembre	2023-02-09T00:00:00	2024-11-08T10:00:00	5	Humedad	68
58121	7	Sololá	710	Panajachel	8	Panajachel	9	Septiembre	2023-02-09T00:00:00	2024-11-08T10:00:00	6	Velocidad del viento	4.8
58122	7	Sololá	710	Panajachel	8	Panajachel	9	Septiembre	2023-02-09T00:00:00	2024-11-08T10:00:00	7	Dirección del viento	4.83
58123	7	Sololá	710	Panajachel	8	Panajachel	9	Septiembre	2023-02-09T00:00:00	2024-11-08T10:00:00	1	Precipitación	0
58124	7	Sololá	710	Panajachel	8	Panajachel	9	Septiembre	2023-02-09T00:00:00	2024-11-08T10:00:00	8	Radiación solar	730
58125	7	Sololá	710	Panajachel	8	Panajachel	9	Septiembre	2023-02-09T00:00:00	2024-11-08T11:00:00	2	Temperatura media	26.4
58126	7	Sololá	710	Panajachel	8	Panajachel	9	Septiembre	2023-02-09T00:00:00	2024-11-08T11:00:00	4	Temperatura máxima	26.4
58127	7	Sololá	710	Panajachel	8	Panajachel	9	Septiembre	2023-02-09T00:00:00	2024-11-08T11:00:00	3	Temperatura mínima	23.4
58128	7	Sololá	710	Panajachel	8	Panajachel	9	Septiembre	2023-02-09T00:00:00	2024-11-08T11:00:00	5	Humedad	60
58129	7	Sololá	710	Panajachel	8	Panajachel	9	Septiembre	2023-02-09T00:00:00	2024-11-08T11:00:00	6	Velocidad del viento	4.8
58130	7	Sololá	710	Panajachel	8	Panajachel	9	Septiembre	2023-02-09T00:00:00	2024-11-08T11:00:00	7	Dirección del viento	4.83
58131	7	Sololá	710	Panajachel	8	Panajachel	9	Septiembre	2023-02-09T00:00:00	2024-11-08T11:00:00	1	Precipitación	0
58132	7	Sololá	710	Panajachel	8	Panajachel	9	Septiembre	2023-02-09T00:00:00	2024-11-08T11:00:00	8	Radiación solar	906
58133	7	Sololá	710	Panajachel	8	Panajachel	9	Septiembre	2023-02-09T00:00:00	2024-11-08T12:00:00	2	Temperatura media	27.7
58134	7	Sololá	710	Panajachel	8	Panajachel	9	Septiembre	2023-02-09T00:00:00	2024-11-08T12:00:00	4	Temperatura máxima	27.7
58135	7	Sololá	710	Panajachel	8	Panajachel	9	Septiembre	2023-02-09T00:00:00	2024-11-08T12:00:00	3	Temperatura mínima	26.4
58136	7	Sololá	710	Panajachel	8	Panajachel	9	Septiembre	2023-02-09T00:00:00	2024-11-08T12:00:00	5	Humedad	55
58137	7	Sololá	710	Panajachel	8	Panajachel	9	Septiembre	2023-02-09T00:00:00	2024-11-08T12:00:00	6	Velocidad del viento	6.4
58138	7	Sololá	710	Panajachel	8	Panajachel	9	Septiembre	2023-02-09T00:00:00	2024-11-08T12:00:00	7	Dirección del viento	6.44
58139	7	Sololá	710	Panajachel	8	Panajachel	9	Septiembre	2023-02-09T00:00:00	2024-11-08T12:00:00	1	Precipitación	0
58140	7	Sololá	710	Panajachel	8	Panajachel	9	Septiembre	2023-02-09T00:00:00	2024-11-08T12:00:00	8	Radiación solar	995
58141	7	Sololá	710	Panajachel	8	Panajachel	9	Septiembre	2023-02-09T00:00:00	2024-11-08T13:00:00	2	Temperatura media	27.8
58142	7	Sololá	710	Panajachel	8	Panajachel	9	Septiembre	2023-02-09T00:00:00	2024-11-08T13:00:00	4	Temperatura máxima	27.9
58143	7	Sololá	710	Panajachel	8	Panajachel	9	Septiembre	2023-02-09T00:00:00	2024-11-08T13:00:00	3	Temperatura mínima	27.3
58144	7	Sololá	710	Panajachel	8	Panajachel	9	Septiembre	2023-02-09T00:00:00	2024-11-08T13:00:00	5	Humedad	51
58145	7	Sololá	710	Panajachel	8	Panajachel	9	Septiembre	2023-02-09T00:00:00	2024-11-08T13:00:00	6	Velocidad del viento	4.8
58146	7	Sololá	710	Panajachel	8	Panajachel	9	Septiembre	2023-02-09T00:00:00	2024-11-08T13:00:00	7	Dirección del viento	4.83
58147	7	Sololá	710	Panajachel	8	Panajachel	9	Septiembre	2023-02-09T00:00:00	2024-11-08T13:00:00	1	Precipitación	0
58148	7	Sololá	710	Panajachel	8	Panajachel	9	Septiembre	2023-02-09T00:00:00	2024-11-08T13:00:00	8	Radiación solar	975
58149	7	Sololá	710	Panajachel	8	Panajachel	9	Septiembre	2023-02-09T00:00:00	2024-11-08T14:00:00	2	Temperatura media	23.8
58150	7	Sololá	710	Panajachel	8	Panajachel	9	Septiembre	2023-02-09T00:00:00	2024-11-08T14:00:00	4	Temperatura máxima	27.9
58151	7	Sololá	710	Panajachel	8	Panajachel	9	Septiembre	2023-02-09T00:00:00	2024-11-08T14:00:00	3	Temperatura mínima	23.8
58152	7	Sololá	710	Panajachel	8	Panajachel	9	Septiembre	2023-02-09T00:00:00	2024-11-08T14:00:00	5	Humedad	77
58153	7	Sololá	710	Panajachel	8	Panajachel	9	Septiembre	2023-02-09T00:00:00	2024-11-08T14:00:00	6	Velocidad del viento	3.2
58154	7	Sololá	710	Panajachel	8	Panajachel	9	Septiembre	2023-02-09T00:00:00	2024-11-08T14:00:00	7	Dirección del viento	3.22
58155	7	Sololá	710	Panajachel	8	Panajachel	9	Septiembre	2023-02-09T00:00:00	2024-11-08T14:00:00	1	Precipitación	0
58156	7	Sololá	710	Panajachel	8	Panajachel	9	Septiembre	2023-02-09T00:00:00	2024-11-08T14:00:00	8	Radiación solar	455
58157	7	Sololá	710	Panajachel	8	Panajachel	9	Septiembre	2023-02-09T00:00:00	2024-11-08T15:00:00	2	Temperatura media	21.6
58158	7	Sololá	710	Panajachel	8	Panajachel	9	Septiembre	2023-02-09T00:00:00	2024-11-08T15:00:00	4	Temperatura máxima	23.8
58159	7	Sololá	710	Panajachel	8	Panajachel	9	Septiembre	2023-02-09T00:00:00	2024-11-08T15:00:00	3	Temperatura mínima	20.8
58160	7	Sololá	710	Panajachel	8	Panajachel	9	Septiembre	2023-02-09T00:00:00	2024-11-08T15:00:00	5	Humedad	83
58161	7	Sololá	710	Panajachel	8	Panajachel	9	Septiembre	2023-02-09T00:00:00	2024-11-08T15:00:00	6	Velocidad del viento	3.2
58162	7	Sololá	710	Panajachel	8	Panajachel	9	Septiembre	2023-02-09T00:00:00	2024-11-08T15:00:00	7	Dirección del viento	3.22
58163	7	Sololá	710	Panajachel	8	Panajachel	9	Septiembre	2023-02-09T00:00:00	2024-11-08T15:00:00	1	Precipitación	0
58164	7	Sololá	710	Panajachel	8	Panajachel	9	Septiembre	2023-02-09T00:00:00	2024-11-08T15:00:00	8	Radiación solar	187
58165	7	Sololá	710	Panajachel	8	Panajachel	9	Septiembre	2023-02-09T00:00:00	2024-11-08T16:00:00	2	Temperatura media	22.3
58166	7	Sololá	710	Panajachel	8	Panajachel	9	Septiembre	2023-02-09T00:00:00	2024-11-08T16:00:00	4	Temperatura máxima	22.9
58167	7	Sololá	710	Panajachel	8	Panajachel	9	Septiembre	2023-02-09T00:00:00	2024-11-08T16:00:00	3	Temperatura mínima	21.6
58168	7	Sololá	710	Panajachel	8	Panajachel	9	Septiembre	2023-02-09T00:00:00	2024-11-08T16:00:00	5	Humedad	78
58169	7	Sololá	710	Panajachel	8	Panajachel	9	Septiembre	2023-02-09T00:00:00	2024-11-08T16:00:00	6	Velocidad del viento	0
58170	7	Sololá	710	Panajachel	8	Panajachel	9	Septiembre	2023-02-09T00:00:00	2024-11-08T16:00:00	7	Dirección del viento	0
58171	7	Sololá	710	Panajachel	8	Panajachel	9	Septiembre	2023-02-09T00:00:00	2024-11-08T16:00:00	1	Precipitación	0
58172	7	Sololá	710	Panajachel	8	Panajachel	9	Septiembre	2023-02-09T00:00:00	2024-11-08T16:00:00	8	Radiación solar	255
58173	7	Sololá	710	Panajachel	8	Panajachel	9	Septiembre	2023-02-09T00:00:00	2024-11-08T17:00:00	2	Temperatura media	22.3
58174	7	Sololá	710	Panajachel	8	Panajachel	9	Septiembre	2023-02-09T00:00:00	2024-11-08T17:00:00	4	Temperatura máxima	22.6
58175	7	Sololá	710	Panajachel	8	Panajachel	9	Septiembre	2023-02-09T00:00:00	2024-11-08T17:00:00	3	Temperatura mínima	22.2
58176	7	Sololá	710	Panajachel	8	Panajachel	9	Septiembre	2023-02-09T00:00:00	2024-11-08T17:00:00	5	Humedad	77
58177	7	Sololá	710	Panajachel	8	Panajachel	9	Septiembre	2023-02-09T00:00:00	2024-11-08T17:00:00	6	Velocidad del viento	0
58178	7	Sololá	710	Panajachel	8	Panajachel	9	Septiembre	2023-02-09T00:00:00	2024-11-08T17:00:00	7	Dirección del viento	0
58179	7	Sololá	710	Panajachel	8	Panajachel	9	Septiembre	2023-02-09T00:00:00	2024-11-08T17:00:00	1	Precipitación	0
58180	7	Sololá	710	Panajachel	8	Panajachel	9	Septiembre	2023-02-09T00:00:00	2024-11-08T17:00:00	8	Radiación solar	109
58181	7	Sololá	710	Panajachel	8	Panajachel	9	Septiembre	2023-02-09T00:00:00	2024-11-08T18:00:00	2	Temperatura media	21.4
58182	7	Sololá	710	Panajachel	8	Panajachel	9	Septiembre	2023-02-09T00:00:00	2024-11-08T18:00:00	4	Temperatura máxima	22.3
58183	7	Sololá	710	Panajachel	8	Panajachel	9	Septiembre	2023-02-09T00:00:00	2024-11-08T18:00:00	3	Temperatura mínima	21.4
58184	7	Sololá	710	Panajachel	8	Panajachel	9	Septiembre	2023-02-09T00:00:00	2024-11-08T18:00:00	5	Humedad	84
58185	7	Sololá	710	Panajachel	8	Panajachel	9	Septiembre	2023-02-09T00:00:00	2024-11-08T18:00:00	6	Velocidad del viento	0
58186	7	Sololá	710	Panajachel	8	Panajachel	9	Septiembre	2023-02-09T00:00:00	2024-11-08T18:00:00	7	Dirección del viento	0
58187	7	Sololá	710	Panajachel	8	Panajachel	9	Septiembre	2023-02-09T00:00:00	2024-11-08T18:00:00	1	Precipitación	0
58188	7	Sololá	710	Panajachel	8	Panajachel	9	Septiembre	2023-02-09T00:00:00	2024-11-08T18:00:00	8	Radiación solar	36
58189	7	Sololá	710	Panajachel	8	Panajachel	9	Septiembre	2023-02-09T00:00:00	2024-11-08T19:00:00	2	Temperatura media	20.7
58190	7	Sololá	710	Panajachel	8	Panajachel	9	Septiembre	2023-02-09T00:00:00	2024-11-08T19:00:00	4	Temperatura máxima	21.4
58191	7	Sololá	710	Panajachel	8	Panajachel	9	Septiembre	2023-02-09T00:00:00	2024-11-08T19:00:00	3	Temperatura mínima	20.7
58192	7	Sololá	710	Panajachel	8	Panajachel	9	Septiembre	2023-02-09T00:00:00	2024-11-08T19:00:00	5	Humedad	83
58193	7	Sololá	710	Panajachel	8	Panajachel	9	Septiembre	2023-02-09T00:00:00	2024-11-08T19:00:00	6	Velocidad del viento	0
58194	7	Sololá	710	Panajachel	8	Panajachel	9	Septiembre	2023-02-09T00:00:00	2024-11-08T19:00:00	7	Dirección del viento	0
58195	7	Sololá	710	Panajachel	8	Panajachel	9	Septiembre	2023-02-09T00:00:00	2024-11-08T19:00:00	1	Precipitación	0
58196	7	Sololá	710	Panajachel	8	Panajachel	9	Septiembre	2023-02-09T00:00:00	2024-11-08T19:00:00	8	Radiación solar	0
58197	7	Sololá	710	Panajachel	8	Panajachel	9	Septiembre	2023-02-09T00:00:00	2024-11-08T20:00:00	2	Temperatura media	21.8
58198	7	Sololá	710	Panajachel	8	Panajachel	9	Septiembre	2023-02-09T00:00:00	2024-11-08T20:00:00	4	Temperatura máxima	21.8
58199	7	Sololá	710	Panajachel	8	Panajachel	9	Septiembre	2023-02-09T00:00:00	2024-11-08T20:00:00	3	Temperatura mínima	20.7
58200	7	Sololá	710	Panajachel	8	Panajachel	9	Septiembre	2023-02-09T00:00:00	2024-11-08T20:00:00	5	Humedad	70
58201	7	Sololá	710	Panajachel	8	Panajachel	9	Septiembre	2023-02-09T00:00:00	2024-11-08T20:00:00	6	Velocidad del viento	4.8
58202	7	Sololá	710	Panajachel	8	Panajachel	9	Septiembre	2023-02-09T00:00:00	2024-11-08T20:00:00	7	Dirección del viento	4.83
58203	7	Sololá	710	Panajachel	8	Panajachel	9	Septiembre	2023-02-09T00:00:00	2024-11-08T20:00:00	1	Precipitación	0
58204	7	Sololá	710	Panajachel	8	Panajachel	9	Septiembre	2023-02-09T00:00:00	2024-11-08T20:00:00	8	Radiación solar	0
58205	7	Sololá	710	Panajachel	8	Panajachel	9	Septiembre	2023-02-09T00:00:00	2024-11-08T21:00:00	2	Temperatura media	19.8
58206	7	Sololá	710	Panajachel	8	Panajachel	9	Septiembre	2023-02-09T00:00:00	2024-11-08T21:00:00	4	Temperatura máxima	21.8
58207	7	Sololá	710	Panajachel	8	Panajachel	9	Septiembre	2023-02-09T00:00:00	2024-11-08T21:00:00	3	Temperatura mínima	19.8
58208	7	Sololá	710	Panajachel	8	Panajachel	9	Septiembre	2023-02-09T00:00:00	2024-11-08T21:00:00	5	Humedad	83
58209	7	Sololá	710	Panajachel	8	Panajachel	9	Septiembre	2023-02-09T00:00:00	2024-11-08T21:00:00	6	Velocidad del viento	0
58210	7	Sololá	710	Panajachel	8	Panajachel	9	Septiembre	2023-02-09T00:00:00	2024-11-08T21:00:00	7	Dirección del viento	0
58211	7	Sololá	710	Panajachel	8	Panajachel	9	Septiembre	2023-02-09T00:00:00	2024-11-08T21:00:00	1	Precipitación	0
58212	7	Sololá	710	Panajachel	8	Panajachel	9	Septiembre	2023-02-09T00:00:00	2024-11-08T21:00:00	8	Radiación solar	0
58213	7	Sololá	710	Panajachel	8	Panajachel	9	Septiembre	2023-02-09T00:00:00	2024-11-08T22:00:00	2	Temperatura media	19.6
58214	7	Sololá	710	Panajachel	8	Panajachel	9	Septiembre	2023-02-09T00:00:00	2024-11-08T22:00:00	4	Temperatura máxima	19.8
58215	7	Sololá	710	Panajachel	8	Panajachel	9	Septiembre	2023-02-09T00:00:00	2024-11-08T22:00:00	3	Temperatura mínima	19.5
58216	7	Sololá	710	Panajachel	8	Panajachel	9	Septiembre	2023-02-09T00:00:00	2024-11-08T22:00:00	5	Humedad	83
58217	7	Sololá	710	Panajachel	8	Panajachel	9	Septiembre	2023-02-09T00:00:00	2024-11-08T22:00:00	6	Velocidad del viento	0
58218	7	Sololá	710	Panajachel	8	Panajachel	9	Septiembre	2023-02-09T00:00:00	2024-11-08T22:00:00	7	Dirección del viento	0
58219	7	Sololá	710	Panajachel	8	Panajachel	9	Septiembre	2023-02-09T00:00:00	2024-11-08T22:00:00	1	Precipitación	0
58220	7	Sololá	710	Panajachel	8	Panajachel	9	Septiembre	2023-02-09T00:00:00	2024-11-08T22:00:00	8	Radiación solar	0
58221	7	Sololá	710	Panajachel	8	Panajachel	9	Septiembre	2023-02-09T00:00:00	2024-11-08T23:00:00	2	Temperatura media	19.6
58222	7	Sololá	710	Panajachel	8	Panajachel	9	Septiembre	2023-02-09T00:00:00	2024-11-08T23:00:00	4	Temperatura máxima	19.8
58223	7	Sololá	710	Panajachel	8	Panajachel	9	Septiembre	2023-02-09T00:00:00	2024-11-08T23:00:00	3	Temperatura mínima	19.4
58224	7	Sololá	710	Panajachel	8	Panajachel	9	Septiembre	2023-02-09T00:00:00	2024-11-08T23:00:00	5	Humedad	83
58225	7	Sololá	710	Panajachel	8	Panajachel	9	Septiembre	2023-02-09T00:00:00	2024-11-08T23:00:00	6	Velocidad del viento	0
58226	7	Sololá	710	Panajachel	8	Panajachel	9	Septiembre	2023-02-09T00:00:00	2024-11-08T23:00:00	7	Dirección del viento	0
58227	7	Sololá	710	Panajachel	8	Panajachel	9	Septiembre	2023-02-09T00:00:00	2024-11-08T23:00:00	1	Precipitación	0
58228	7	Sololá	710	Panajachel	8	Panajachel	9	Septiembre	2023-02-09T00:00:00	2024-11-08T23:00:00	8	Radiación solar	0
58229	7	Sololá	710	Panajachel	8	Panajachel	9	Septiembre	2023-03-09T00:00:00	2024-11-08T00:00:00	2	Temperatura media	20.9
58230	7	Sololá	710	Panajachel	8	Panajachel	9	Septiembre	2023-03-09T00:00:00	2024-11-08T00:00:00	4	Temperatura máxima	21
58231	7	Sololá	710	Panajachel	8	Panajachel	9	Septiembre	2023-03-09T00:00:00	2024-11-08T00:00:00	3	Temperatura mínima	19.6
58232	7	Sololá	710	Panajachel	8	Panajachel	9	Septiembre	2023-03-09T00:00:00	2024-11-08T00:00:00	5	Humedad	75
58233	7	Sololá	710	Panajachel	8	Panajachel	9	Septiembre	2023-03-09T00:00:00	2024-11-08T00:00:00	6	Velocidad del viento	1.6
58234	7	Sololá	710	Panajachel	8	Panajachel	9	Septiembre	2023-03-09T00:00:00	2024-11-08T00:00:00	7	Dirección del viento	1.61
58235	7	Sololá	710	Panajachel	8	Panajachel	9	Septiembre	2023-03-09T00:00:00	2024-11-08T00:00:00	1	Precipitación	0
58236	7	Sololá	710	Panajachel	8	Panajachel	9	Septiembre	2023-03-09T00:00:00	2024-11-08T00:00:00	8	Radiación solar	0
58237	7	Sololá	710	Panajachel	8	Panajachel	9	Septiembre	2023-03-09T00:00:00	2024-11-08T01:00:00	2	Temperatura media	18.7
58238	7	Sololá	710	Panajachel	8	Panajachel	9	Septiembre	2023-03-09T00:00:00	2024-11-08T01:00:00	4	Temperatura máxima	20.9
58239	7	Sololá	710	Panajachel	8	Panajachel	9	Septiembre	2023-03-09T00:00:00	2024-11-08T01:00:00	3	Temperatura mínima	18.7
58240	7	Sololá	710	Panajachel	8	Panajachel	9	Septiembre	2023-03-09T00:00:00	2024-11-08T01:00:00	5	Humedad	83
58241	7	Sololá	710	Panajachel	8	Panajachel	9	Septiembre	2023-03-09T00:00:00	2024-11-08T01:00:00	6	Velocidad del viento	0
58242	7	Sololá	710	Panajachel	8	Panajachel	9	Septiembre	2023-03-09T00:00:00	2024-11-08T01:00:00	7	Dirección del viento	0
58243	7	Sololá	710	Panajachel	8	Panajachel	9	Septiembre	2023-03-09T00:00:00	2024-11-08T01:00:00	1	Precipitación	0
58244	7	Sololá	710	Panajachel	8	Panajachel	9	Septiembre	2023-03-09T00:00:00	2024-11-08T01:00:00	8	Radiación solar	0
58245	7	Sololá	710	Panajachel	8	Panajachel	9	Septiembre	2023-03-09T00:00:00	2024-11-08T02:00:00	2	Temperatura media	19.7
58246	7	Sololá	710	Panajachel	8	Panajachel	9	Septiembre	2023-03-09T00:00:00	2024-11-08T02:00:00	4	Temperatura máxima	19.9
58247	7	Sololá	710	Panajachel	8	Panajachel	9	Septiembre	2023-03-09T00:00:00	2024-11-08T02:00:00	3	Temperatura mínima	18.6
58248	7	Sololá	710	Panajachel	8	Panajachel	9	Septiembre	2023-03-09T00:00:00	2024-11-08T02:00:00	5	Humedad	79
58249	7	Sololá	710	Panajachel	8	Panajachel	9	Septiembre	2023-03-09T00:00:00	2024-11-08T02:00:00	6	Velocidad del viento	1.6
58250	7	Sololá	710	Panajachel	8	Panajachel	9	Septiembre	2023-03-09T00:00:00	2024-11-08T02:00:00	7	Dirección del viento	1.61
58251	7	Sololá	710	Panajachel	8	Panajachel	9	Septiembre	2023-03-09T00:00:00	2024-11-08T02:00:00	1	Precipitación	0
58252	7	Sololá	710	Panajachel	8	Panajachel	9	Septiembre	2023-03-09T00:00:00	2024-11-08T02:00:00	8	Radiación solar	0
58253	7	Sololá	710	Panajachel	8	Panajachel	9	Septiembre	2023-03-09T00:00:00	2024-11-08T03:00:00	2	Temperatura media	20.2
58254	7	Sololá	710	Panajachel	8	Panajachel	9	Septiembre	2023-03-09T00:00:00	2024-11-08T03:00:00	4	Temperatura máxima	20.4
58255	7	Sololá	710	Panajachel	8	Panajachel	9	Septiembre	2023-03-09T00:00:00	2024-11-08T03:00:00	3	Temperatura mínima	19.6
58256	7	Sololá	710	Panajachel	8	Panajachel	9	Septiembre	2023-03-09T00:00:00	2024-11-08T03:00:00	5	Humedad	74
58257	7	Sololá	710	Panajachel	8	Panajachel	9	Septiembre	2023-03-09T00:00:00	2024-11-08T03:00:00	6	Velocidad del viento	1.6
58258	7	Sololá	710	Panajachel	8	Panajachel	9	Septiembre	2023-03-09T00:00:00	2024-11-08T03:00:00	7	Dirección del viento	1.61
58259	7	Sololá	710	Panajachel	8	Panajachel	9	Septiembre	2023-03-09T00:00:00	2024-11-08T03:00:00	1	Precipitación	0
58260	7	Sololá	710	Panajachel	8	Panajachel	9	Septiembre	2023-03-09T00:00:00	2024-11-08T03:00:00	8	Radiación solar	0
58261	7	Sololá	710	Panajachel	8	Panajachel	9	Septiembre	2023-03-09T00:00:00	2024-11-08T04:00:00	2	Temperatura media	20.4
58262	7	Sololá	710	Panajachel	8	Panajachel	9	Septiembre	2023-03-09T00:00:00	2024-11-08T04:00:00	4	Temperatura máxima	20.4
58263	7	Sololá	710	Panajachel	8	Panajachel	9	Septiembre	2023-03-09T00:00:00	2024-11-08T04:00:00	3	Temperatura mínima	19.8
58264	7	Sololá	710	Panajachel	8	Panajachel	9	Septiembre	2023-03-09T00:00:00	2024-11-08T04:00:00	5	Humedad	73
58265	7	Sololá	710	Panajachel	8	Panajachel	9	Septiembre	2023-03-09T00:00:00	2024-11-08T04:00:00	6	Velocidad del viento	3.2
58266	7	Sololá	710	Panajachel	8	Panajachel	9	Septiembre	2023-03-09T00:00:00	2024-11-08T04:00:00	7	Dirección del viento	3.22
58267	7	Sololá	710	Panajachel	8	Panajachel	9	Septiembre	2023-03-09T00:00:00	2024-11-08T04:00:00	1	Precipitación	0
58268	7	Sololá	710	Panajachel	8	Panajachel	9	Septiembre	2023-03-09T00:00:00	2024-11-08T04:00:00	8	Radiación solar	0
58269	7	Sololá	710	Panajachel	8	Panajachel	9	Septiembre	2023-03-09T00:00:00	2024-11-08T05:00:00	2	Temperatura media	19.6
58270	7	Sololá	710	Panajachel	8	Panajachel	9	Septiembre	2023-03-09T00:00:00	2024-11-08T05:00:00	4	Temperatura máxima	20.4
58271	7	Sololá	710	Panajachel	8	Panajachel	9	Septiembre	2023-03-09T00:00:00	2024-11-08T05:00:00	3	Temperatura mínima	19.6
58272	7	Sololá	710	Panajachel	8	Panajachel	9	Septiembre	2023-03-09T00:00:00	2024-11-08T05:00:00	5	Humedad	76
58273	7	Sololá	710	Panajachel	8	Panajachel	9	Septiembre	2023-03-09T00:00:00	2024-11-08T05:00:00	6	Velocidad del viento	4.8
58274	7	Sololá	710	Panajachel	8	Panajachel	9	Septiembre	2023-03-09T00:00:00	2024-11-08T05:00:00	7	Dirección del viento	4.83
58275	7	Sololá	710	Panajachel	8	Panajachel	9	Septiembre	2023-03-09T00:00:00	2024-11-08T05:00:00	1	Precipitación	0
58276	7	Sololá	710	Panajachel	8	Panajachel	9	Septiembre	2023-03-09T00:00:00	2024-11-08T05:00:00	8	Radiación solar	0
58277	7	Sololá	710	Panajachel	8	Panajachel	9	Septiembre	2023-03-09T00:00:00	2024-11-08T06:00:00	2	Temperatura media	19.7
58278	7	Sololá	710	Panajachel	8	Panajachel	9	Septiembre	2023-03-09T00:00:00	2024-11-08T06:00:00	4	Temperatura máxima	19.7
58279	7	Sololá	710	Panajachel	8	Panajachel	9	Septiembre	2023-03-09T00:00:00	2024-11-08T06:00:00	3	Temperatura mínima	18.7
58280	7	Sololá	710	Panajachel	8	Panajachel	9	Septiembre	2023-03-09T00:00:00	2024-11-08T06:00:00	5	Humedad	74
58281	7	Sololá	710	Panajachel	8	Panajachel	9	Septiembre	2023-03-09T00:00:00	2024-11-08T06:00:00	6	Velocidad del viento	1.6
58282	7	Sololá	710	Panajachel	8	Panajachel	9	Septiembre	2023-03-09T00:00:00	2024-11-08T06:00:00	7	Dirección del viento	1.61
58283	7	Sololá	710	Panajachel	8	Panajachel	9	Septiembre	2023-03-09T00:00:00	2024-11-08T06:00:00	1	Precipitación	0
58284	7	Sololá	710	Panajachel	8	Panajachel	9	Septiembre	2023-03-09T00:00:00	2024-11-08T06:00:00	8	Radiación solar	0
58285	7	Sololá	710	Panajachel	8	Panajachel	9	Septiembre	2023-03-09T00:00:00	2024-11-08T07:00:00	2	Temperatura media	19.6
58286	7	Sololá	710	Panajachel	8	Panajachel	9	Septiembre	2023-03-09T00:00:00	2024-11-08T07:00:00	4	Temperatura máxima	20.3
58287	7	Sololá	710	Panajachel	8	Panajachel	9	Septiembre	2023-03-09T00:00:00	2024-11-08T07:00:00	3	Temperatura mínima	19.6
58288	7	Sololá	710	Panajachel	8	Panajachel	9	Septiembre	2023-03-09T00:00:00	2024-11-08T07:00:00	5	Humedad	79
58289	7	Sololá	710	Panajachel	8	Panajachel	9	Septiembre	2023-03-09T00:00:00	2024-11-08T07:00:00	6	Velocidad del viento	1.6
58290	7	Sololá	710	Panajachel	8	Panajachel	9	Septiembre	2023-03-09T00:00:00	2024-11-08T07:00:00	7	Dirección del viento	1.61
58291	7	Sololá	710	Panajachel	8	Panajachel	9	Septiembre	2023-03-09T00:00:00	2024-11-08T07:00:00	1	Precipitación	0
58292	7	Sololá	710	Panajachel	8	Panajachel	9	Septiembre	2023-03-09T00:00:00	2024-11-08T07:00:00	8	Radiación solar	58
58293	7	Sololá	710	Panajachel	8	Panajachel	9	Septiembre	2023-03-09T00:00:00	2024-11-08T08:00:00	2	Temperatura media	22.1
58294	7	Sololá	710	Panajachel	8	Panajachel	9	Septiembre	2023-03-09T00:00:00	2024-11-08T08:00:00	4	Temperatura máxima	22.1
58295	7	Sololá	710	Panajachel	8	Panajachel	9	Septiembre	2023-03-09T00:00:00	2024-11-08T08:00:00	3	Temperatura mínima	19.6
58296	7	Sololá	710	Panajachel	8	Panajachel	9	Septiembre	2023-03-09T00:00:00	2024-11-08T08:00:00	5	Humedad	71
58297	7	Sololá	710	Panajachel	8	Panajachel	9	Septiembre	2023-03-09T00:00:00	2024-11-08T08:00:00	6	Velocidad del viento	0
58298	7	Sololá	710	Panajachel	8	Panajachel	9	Septiembre	2023-03-09T00:00:00	2024-11-08T08:00:00	7	Dirección del viento	0
58299	7	Sololá	710	Panajachel	8	Panajachel	9	Septiembre	2023-03-09T00:00:00	2024-11-08T08:00:00	1	Precipitación	0
58300	7	Sololá	710	Panajachel	8	Panajachel	9	Septiembre	2023-03-09T00:00:00	2024-11-08T08:00:00	8	Radiación solar	273
58301	7	Sololá	710	Panajachel	8	Panajachel	9	Septiembre	2023-03-09T00:00:00	2024-11-08T09:00:00	2	Temperatura media	23.6
58302	7	Sololá	710	Panajachel	8	Panajachel	9	Septiembre	2023-03-09T00:00:00	2024-11-08T09:00:00	4	Temperatura máxima	23.6
58303	7	Sololá	710	Panajachel	8	Panajachel	9	Septiembre	2023-03-09T00:00:00	2024-11-08T09:00:00	3	Temperatura mínima	22.1
58304	7	Sololá	710	Panajachel	8	Panajachel	9	Septiembre	2023-03-09T00:00:00	2024-11-08T09:00:00	5	Humedad	67
58305	7	Sololá	710	Panajachel	8	Panajachel	9	Septiembre	2023-03-09T00:00:00	2024-11-08T09:00:00	6	Velocidad del viento	0
58306	7	Sololá	710	Panajachel	8	Panajachel	9	Septiembre	2023-03-09T00:00:00	2024-11-08T09:00:00	7	Dirección del viento	0
58307	7	Sololá	710	Panajachel	8	Panajachel	9	Septiembre	2023-03-09T00:00:00	2024-11-08T09:00:00	1	Precipitación	0
58308	7	Sololá	710	Panajachel	8	Panajachel	9	Septiembre	2023-03-09T00:00:00	2024-11-08T09:00:00	8	Radiación solar	505
58309	7	Sololá	710	Panajachel	8	Panajachel	9	Septiembre	2023-03-09T00:00:00	2024-11-08T10:00:00	2	Temperatura media	23.4
58310	7	Sololá	710	Panajachel	8	Panajachel	9	Septiembre	2023-03-09T00:00:00	2024-11-08T10:00:00	4	Temperatura máxima	23.8
58311	7	Sololá	710	Panajachel	8	Panajachel	9	Septiembre	2023-03-09T00:00:00	2024-11-08T10:00:00	3	Temperatura mínima	23.1
58312	7	Sololá	710	Panajachel	8	Panajachel	9	Septiembre	2023-03-09T00:00:00	2024-11-08T10:00:00	5	Humedad	68
58313	7	Sololá	710	Panajachel	8	Panajachel	9	Septiembre	2023-03-09T00:00:00	2024-11-08T10:00:00	6	Velocidad del viento	3.2
58314	7	Sololá	710	Panajachel	8	Panajachel	9	Septiembre	2023-03-09T00:00:00	2024-11-08T10:00:00	7	Dirección del viento	3.22
58315	7	Sololá	710	Panajachel	8	Panajachel	9	Septiembre	2023-03-09T00:00:00	2024-11-08T10:00:00	1	Precipitación	0
58316	7	Sololá	710	Panajachel	8	Panajachel	9	Septiembre	2023-03-09T00:00:00	2024-11-08T10:00:00	8	Radiación solar	728
58317	7	Sololá	710	Panajachel	8	Panajachel	9	Septiembre	2023-03-09T00:00:00	2024-11-08T11:00:00	2	Temperatura media	24.6
58318	7	Sololá	710	Panajachel	8	Panajachel	9	Septiembre	2023-03-09T00:00:00	2024-11-08T11:00:00	4	Temperatura máxima	24.9
58319	7	Sololá	710	Panajachel	8	Panajachel	9	Septiembre	2023-03-09T00:00:00	2024-11-08T11:00:00	3	Temperatura mínima	23.3
58320	7	Sololá	710	Panajachel	8	Panajachel	9	Septiembre	2023-03-09T00:00:00	2024-11-08T11:00:00	5	Humedad	67
58321	7	Sololá	710	Panajachel	8	Panajachel	9	Septiembre	2023-03-09T00:00:00	2024-11-08T11:00:00	6	Velocidad del viento	0
58322	7	Sololá	710	Panajachel	8	Panajachel	9	Septiembre	2023-03-09T00:00:00	2024-11-08T11:00:00	7	Dirección del viento	0
58323	7	Sololá	710	Panajachel	8	Panajachel	9	Septiembre	2023-03-09T00:00:00	2024-11-08T11:00:00	1	Precipitación	0
58324	7	Sololá	710	Panajachel	8	Panajachel	9	Septiembre	2023-03-09T00:00:00	2024-11-08T11:00:00	8	Radiación solar	745
58325	7	Sololá	710	Panajachel	8	Panajachel	9	Septiembre	2023-03-09T00:00:00	2024-11-08T12:00:00	2	Temperatura media	25
58326	7	Sololá	710	Panajachel	8	Panajachel	9	Septiembre	2023-03-09T00:00:00	2024-11-08T12:00:00	4	Temperatura máxima	25.6
58327	7	Sololá	710	Panajachel	8	Panajachel	9	Septiembre	2023-03-09T00:00:00	2024-11-08T12:00:00	3	Temperatura mínima	24.4
58328	7	Sololá	710	Panajachel	8	Panajachel	9	Septiembre	2023-03-09T00:00:00	2024-11-08T12:00:00	5	Humedad	70
58329	7	Sololá	710	Panajachel	8	Panajachel	9	Septiembre	2023-03-09T00:00:00	2024-11-08T12:00:00	6	Velocidad del viento	1.6
58330	7	Sololá	710	Panajachel	8	Panajachel	9	Septiembre	2023-03-09T00:00:00	2024-11-08T12:00:00	7	Dirección del viento	1.61
58331	7	Sololá	710	Panajachel	8	Panajachel	9	Septiembre	2023-03-09T00:00:00	2024-11-08T12:00:00	1	Precipitación	0
58332	7	Sololá	710	Panajachel	8	Panajachel	9	Septiembre	2023-03-09T00:00:00	2024-11-08T12:00:00	8	Radiación solar	439
58333	7	Sololá	710	Panajachel	8	Panajachel	9	Septiembre	2023-03-09T00:00:00	2024-11-08T13:00:00	2	Temperatura media	24.4
58334	7	Sololá	710	Panajachel	8	Panajachel	9	Septiembre	2023-03-09T00:00:00	2024-11-08T13:00:00	4	Temperatura máxima	25.6
58335	7	Sololá	710	Panajachel	8	Panajachel	9	Septiembre	2023-03-09T00:00:00	2024-11-08T13:00:00	3	Temperatura mínima	24.2
58336	7	Sololá	710	Panajachel	8	Panajachel	9	Septiembre	2023-03-09T00:00:00	2024-11-08T13:00:00	5	Humedad	78
58337	7	Sololá	710	Panajachel	8	Panajachel	9	Septiembre	2023-03-09T00:00:00	2024-11-08T13:00:00	6	Velocidad del viento	4.8
58338	7	Sololá	710	Panajachel	8	Panajachel	9	Septiembre	2023-03-09T00:00:00	2024-11-08T13:00:00	7	Dirección del viento	4.83
58339	7	Sololá	710	Panajachel	8	Panajachel	9	Septiembre	2023-03-09T00:00:00	2024-11-08T13:00:00	1	Precipitación	0
58340	7	Sololá	710	Panajachel	8	Panajachel	9	Septiembre	2023-03-09T00:00:00	2024-11-08T13:00:00	8	Radiación solar	746
58341	7	Sololá	710	Panajachel	8	Panajachel	9	Septiembre	2023-03-09T00:00:00	2024-11-08T14:00:00	2	Temperatura media	24.7
58342	7	Sololá	710	Panajachel	8	Panajachel	9	Septiembre	2023-03-09T00:00:00	2024-11-08T14:00:00	4	Temperatura máxima	24.9
58343	7	Sololá	710	Panajachel	8	Panajachel	9	Septiembre	2023-03-09T00:00:00	2024-11-08T14:00:00	3	Temperatura mínima	24
58344	7	Sololá	710	Panajachel	8	Panajachel	9	Septiembre	2023-03-09T00:00:00	2024-11-08T14:00:00	5	Humedad	78
58345	7	Sololá	710	Panajachel	8	Panajachel	9	Septiembre	2023-03-09T00:00:00	2024-11-08T14:00:00	6	Velocidad del viento	4.8
58346	7	Sololá	710	Panajachel	8	Panajachel	9	Septiembre	2023-03-09T00:00:00	2024-11-08T14:00:00	7	Dirección del viento	4.83
58347	7	Sololá	710	Panajachel	8	Panajachel	9	Septiembre	2023-03-09T00:00:00	2024-11-08T14:00:00	1	Precipitación	0
58348	7	Sololá	710	Panajachel	8	Panajachel	9	Septiembre	2023-03-09T00:00:00	2024-11-08T14:00:00	8	Radiación solar	543
58349	7	Sololá	710	Panajachel	8	Panajachel	9	Septiembre	2023-03-09T00:00:00	2024-11-08T15:00:00	2	Temperatura media	23.4
58350	7	Sololá	710	Panajachel	8	Panajachel	9	Septiembre	2023-03-09T00:00:00	2024-11-08T15:00:00	4	Temperatura máxima	24.7
58351	7	Sololá	710	Panajachel	8	Panajachel	9	Septiembre	2023-03-09T00:00:00	2024-11-08T15:00:00	3	Temperatura mínima	22.8
58352	7	Sololá	710	Panajachel	8	Panajachel	9	Septiembre	2023-03-09T00:00:00	2024-11-08T15:00:00	5	Humedad	80
58353	7	Sololá	710	Panajachel	8	Panajachel	9	Septiembre	2023-03-09T00:00:00	2024-11-08T15:00:00	6	Velocidad del viento	8
58354	7	Sololá	710	Panajachel	8	Panajachel	9	Septiembre	2023-03-09T00:00:00	2024-11-08T15:00:00	7	Dirección del viento	8.05
58355	7	Sololá	710	Panajachel	8	Panajachel	9	Septiembre	2023-03-09T00:00:00	2024-11-08T15:00:00	1	Precipitación	0
58356	7	Sololá	710	Panajachel	8	Panajachel	9	Septiembre	2023-03-09T00:00:00	2024-11-08T15:00:00	8	Radiación solar	448
58357	7	Sololá	710	Panajachel	8	Panajachel	9	Septiembre	2023-03-09T00:00:00	2024-11-08T16:00:00	2	Temperatura media	22.4
58358	7	Sololá	710	Panajachel	8	Panajachel	9	Septiembre	2023-03-09T00:00:00	2024-11-08T16:00:00	4	Temperatura máxima	23.7
58359	7	Sololá	710	Panajachel	8	Panajachel	9	Septiembre	2023-03-09T00:00:00	2024-11-08T16:00:00	3	Temperatura mínima	22.4
58360	7	Sololá	710	Panajachel	8	Panajachel	9	Septiembre	2023-03-09T00:00:00	2024-11-08T16:00:00	5	Humedad	83
58361	7	Sololá	710	Panajachel	8	Panajachel	9	Septiembre	2023-03-09T00:00:00	2024-11-08T16:00:00	6	Velocidad del viento	8
58362	7	Sololá	710	Panajachel	8	Panajachel	9	Septiembre	2023-03-09T00:00:00	2024-11-08T16:00:00	7	Dirección del viento	8.05
58363	7	Sololá	710	Panajachel	8	Panajachel	9	Septiembre	2023-03-09T00:00:00	2024-11-08T16:00:00	1	Precipitación	0
58364	7	Sololá	710	Panajachel	8	Panajachel	9	Septiembre	2023-03-09T00:00:00	2024-11-08T16:00:00	8	Radiación solar	214
58365	7	Sololá	710	Panajachel	8	Panajachel	9	Septiembre	2023-03-09T00:00:00	2024-11-08T17:00:00	2	Temperatura media	18.7
58366	7	Sololá	710	Panajachel	8	Panajachel	9	Septiembre	2023-03-09T00:00:00	2024-11-08T17:00:00	4	Temperatura máxima	22.9
58367	7	Sololá	710	Panajachel	8	Panajachel	9	Septiembre	2023-03-09T00:00:00	2024-11-08T17:00:00	3	Temperatura mínima	18.7
58368	7	Sololá	710	Panajachel	8	Panajachel	9	Septiembre	2023-03-09T00:00:00	2024-11-08T17:00:00	5	Humedad	91
58369	7	Sololá	710	Panajachel	8	Panajachel	9	Septiembre	2023-03-09T00:00:00	2024-11-08T17:00:00	6	Velocidad del viento	11.3
58370	7	Sololá	710	Panajachel	8	Panajachel	9	Septiembre	2023-03-09T00:00:00	2024-11-08T17:00:00	7	Dirección del viento	11.27
58371	7	Sololá	710	Panajachel	8	Panajachel	9	Septiembre	2023-03-09T00:00:00	2024-11-08T17:00:00	1	Precipitación	13.4
58372	7	Sololá	710	Panajachel	8	Panajachel	9	Septiembre	2023-03-09T00:00:00	2024-11-08T17:00:00	8	Radiación solar	49
58373	7	Sololá	710	Panajachel	8	Panajachel	9	Septiembre	2023-03-09T00:00:00	2024-11-08T18:00:00	2	Temperatura media	18.4
58374	7	Sololá	710	Panajachel	8	Panajachel	9	Septiembre	2023-03-09T00:00:00	2024-11-08T18:00:00	4	Temperatura máxima	18.6
58375	7	Sololá	710	Panajachel	8	Panajachel	9	Septiembre	2023-03-09T00:00:00	2024-11-08T18:00:00	3	Temperatura mínima	18.2
58376	7	Sololá	710	Panajachel	8	Panajachel	9	Septiembre	2023-03-09T00:00:00	2024-11-08T18:00:00	5	Humedad	96
58377	7	Sololá	710	Panajachel	8	Panajachel	9	Septiembre	2023-03-09T00:00:00	2024-11-08T18:00:00	6	Velocidad del viento	1.6
58378	7	Sololá	710	Panajachel	8	Panajachel	9	Septiembre	2023-03-09T00:00:00	2024-11-08T18:00:00	7	Dirección del viento	1.61
58379	7	Sololá	710	Panajachel	8	Panajachel	9	Septiembre	2023-03-09T00:00:00	2024-11-08T18:00:00	1	Precipitación	5.6
58380	7	Sololá	710	Panajachel	8	Panajachel	9	Septiembre	2023-03-09T00:00:00	2024-11-08T18:00:00	8	Radiación solar	23
58381	7	Sololá	710	Panajachel	8	Panajachel	9	Septiembre	2023-03-09T00:00:00	2024-11-08T19:00:00	2	Temperatura media	18.3
58382	7	Sololá	710	Panajachel	8	Panajachel	9	Septiembre	2023-03-09T00:00:00	2024-11-08T19:00:00	4	Temperatura máxima	18.6
58383	7	Sololá	710	Panajachel	8	Panajachel	9	Septiembre	2023-03-09T00:00:00	2024-11-08T19:00:00	3	Temperatura mínima	18.3
58384	7	Sololá	710	Panajachel	8	Panajachel	9	Septiembre	2023-03-09T00:00:00	2024-11-08T19:00:00	5	Humedad	96
58385	7	Sololá	710	Panajachel	8	Panajachel	9	Septiembre	2023-03-09T00:00:00	2024-11-08T19:00:00	6	Velocidad del viento	0
58386	7	Sololá	710	Panajachel	8	Panajachel	9	Septiembre	2023-03-09T00:00:00	2024-11-08T19:00:00	7	Dirección del viento	0
58387	7	Sololá	710	Panajachel	8	Panajachel	9	Septiembre	2023-03-09T00:00:00	2024-11-08T19:00:00	1	Precipitación	0.4
58388	7	Sololá	710	Panajachel	8	Panajachel	9	Septiembre	2023-03-09T00:00:00	2024-11-08T19:00:00	8	Radiación solar	0
58389	7	Sololá	710	Panajachel	8	Panajachel	9	Septiembre	2023-03-09T00:00:00	2024-11-08T20:00:00	2	Temperatura media	18
58390	7	Sololá	710	Panajachel	8	Panajachel	9	Septiembre	2023-03-09T00:00:00	2024-11-08T20:00:00	4	Temperatura máxima	18.3
58391	7	Sololá	710	Panajachel	8	Panajachel	9	Septiembre	2023-03-09T00:00:00	2024-11-08T20:00:00	3	Temperatura mínima	17.9
58392	7	Sololá	710	Panajachel	8	Panajachel	9	Septiembre	2023-03-09T00:00:00	2024-11-08T20:00:00	5	Humedad	97
58393	7	Sololá	710	Panajachel	8	Panajachel	9	Septiembre	2023-03-09T00:00:00	2024-11-08T20:00:00	6	Velocidad del viento	0
58394	7	Sololá	710	Panajachel	8	Panajachel	9	Septiembre	2023-03-09T00:00:00	2024-11-08T20:00:00	7	Dirección del viento	0
58395	7	Sololá	710	Panajachel	8	Panajachel	9	Septiembre	2023-03-09T00:00:00	2024-11-08T20:00:00	1	Precipitación	0.2
58396	7	Sololá	710	Panajachel	8	Panajachel	9	Septiembre	2023-03-09T00:00:00	2024-11-08T20:00:00	8	Radiación solar	0
58397	7	Sololá	710	Panajachel	8	Panajachel	9	Septiembre	2023-03-09T00:00:00	2024-11-08T21:00:00	2	Temperatura media	18.1
58398	7	Sololá	710	Panajachel	8	Panajachel	9	Septiembre	2023-03-09T00:00:00	2024-11-08T21:00:00	4	Temperatura máxima	18.1
58399	7	Sololá	710	Panajachel	8	Panajachel	9	Septiembre	2023-03-09T00:00:00	2024-11-08T21:00:00	3	Temperatura mínima	17.9
58400	7	Sololá	710	Panajachel	8	Panajachel	9	Septiembre	2023-03-09T00:00:00	2024-11-08T21:00:00	5	Humedad	97
58401	7	Sololá	710	Panajachel	8	Panajachel	9	Septiembre	2023-03-09T00:00:00	2024-11-08T21:00:00	6	Velocidad del viento	1.6
58402	7	Sololá	710	Panajachel	8	Panajachel	9	Septiembre	2023-03-09T00:00:00	2024-11-08T21:00:00	7	Dirección del viento	1.61
58403	7	Sololá	710	Panajachel	8	Panajachel	9	Septiembre	2023-03-09T00:00:00	2024-11-08T21:00:00	1	Precipitación	0.6
58404	7	Sololá	710	Panajachel	8	Panajachel	9	Septiembre	2023-03-09T00:00:00	2024-11-08T21:00:00	8	Radiación solar	0
58405	7	Sololá	710	Panajachel	8	Panajachel	9	Septiembre	2023-03-09T00:00:00	2024-11-08T22:00:00	2	Temperatura media	17.4
58406	7	Sololá	710	Panajachel	8	Panajachel	9	Septiembre	2023-03-09T00:00:00	2024-11-08T22:00:00	4	Temperatura máxima	18.1
58407	7	Sololá	710	Panajachel	8	Panajachel	9	Septiembre	2023-03-09T00:00:00	2024-11-08T22:00:00	3	Temperatura mínima	17.4
58408	7	Sololá	710	Panajachel	8	Panajachel	9	Septiembre	2023-03-09T00:00:00	2024-11-08T22:00:00	5	Humedad	94
58409	7	Sololá	710	Panajachel	8	Panajachel	9	Septiembre	2023-03-09T00:00:00	2024-11-08T22:00:00	6	Velocidad del viento	3.2
58410	7	Sololá	710	Panajachel	8	Panajachel	9	Septiembre	2023-03-09T00:00:00	2024-11-08T22:00:00	7	Dirección del viento	3.22
58411	7	Sololá	710	Panajachel	8	Panajachel	9	Septiembre	2023-03-09T00:00:00	2024-11-08T22:00:00	1	Precipitación	3
58412	7	Sololá	710	Panajachel	8	Panajachel	9	Septiembre	2023-03-09T00:00:00	2024-11-08T22:00:00	8	Radiación solar	0
58413	7	Sololá	710	Panajachel	8	Panajachel	9	Septiembre	2023-03-09T00:00:00	2024-11-08T23:00:00	2	Temperatura media	17
58414	7	Sololá	710	Panajachel	8	Panajachel	9	Septiembre	2023-03-09T00:00:00	2024-11-08T23:00:00	4	Temperatura máxima	17.4
58415	7	Sololá	710	Panajachel	8	Panajachel	9	Septiembre	2023-03-09T00:00:00	2024-11-08T23:00:00	3	Temperatura mínima	16.9
58416	7	Sololá	710	Panajachel	8	Panajachel	9	Septiembre	2023-03-09T00:00:00	2024-11-08T23:00:00	5	Humedad	95
58417	7	Sololá	710	Panajachel	8	Panajachel	9	Septiembre	2023-03-09T00:00:00	2024-11-08T23:00:00	6	Velocidad del viento	1.6
58418	7	Sololá	710	Panajachel	8	Panajachel	9	Septiembre	2023-03-09T00:00:00	2024-11-08T23:00:00	7	Dirección del viento	1.61
58419	7	Sololá	710	Panajachel	8	Panajachel	9	Septiembre	2023-03-09T00:00:00	2024-11-08T23:00:00	1	Precipitación	1.6
58420	7	Sololá	710	Panajachel	8	Panajachel	9	Septiembre	2023-03-09T00:00:00	2024-11-08T23:00:00	8	Radiación solar	0
58421	7	Sololá	710	Panajachel	8	Panajachel	9	Septiembre	2023-04-09T00:00:00	2024-11-08T00:00:00	2	Temperatura media	16.8
58422	7	Sololá	710	Panajachel	8	Panajachel	9	Septiembre	2023-04-09T00:00:00	2024-11-08T00:00:00	4	Temperatura máxima	17
58423	7	Sololá	710	Panajachel	8	Panajachel	9	Septiembre	2023-04-09T00:00:00	2024-11-08T00:00:00	3	Temperatura mínima	16.8
58424	7	Sololá	710	Panajachel	8	Panajachel	9	Septiembre	2023-04-09T00:00:00	2024-11-08T00:00:00	5	Humedad	97
58425	7	Sololá	710	Panajachel	8	Panajachel	9	Septiembre	2023-04-09T00:00:00	2024-11-08T00:00:00	6	Velocidad del viento	0
58426	7	Sololá	710	Panajachel	8	Panajachel	9	Septiembre	2023-04-09T00:00:00	2024-11-08T00:00:00	7	Dirección del viento	0
58427	7	Sololá	710	Panajachel	8	Panajachel	9	Septiembre	2023-04-09T00:00:00	2024-11-08T00:00:00	1	Precipitación	0.2
58428	7	Sololá	710	Panajachel	8	Panajachel	9	Septiembre	2023-04-09T00:00:00	2024-11-08T00:00:00	8	Radiación solar	0
58429	7	Sololá	710	Panajachel	8	Panajachel	9	Septiembre	2023-04-09T00:00:00	2024-11-08T01:00:00	2	Temperatura media	16.7
58430	7	Sololá	710	Panajachel	8	Panajachel	9	Septiembre	2023-04-09T00:00:00	2024-11-08T01:00:00	4	Temperatura máxima	16.9
58431	7	Sololá	710	Panajachel	8	Panajachel	9	Septiembre	2023-04-09T00:00:00	2024-11-08T01:00:00	3	Temperatura mínima	16.7
58432	7	Sololá	710	Panajachel	8	Panajachel	9	Septiembre	2023-04-09T00:00:00	2024-11-08T01:00:00	5	Humedad	97
58433	7	Sololá	710	Panajachel	8	Panajachel	9	Septiembre	2023-04-09T00:00:00	2024-11-08T01:00:00	6	Velocidad del viento	1.6
58434	7	Sololá	710	Panajachel	8	Panajachel	9	Septiembre	2023-04-09T00:00:00	2024-11-08T01:00:00	7	Dirección del viento	1.61
58435	7	Sololá	710	Panajachel	8	Panajachel	9	Septiembre	2023-04-09T00:00:00	2024-11-08T01:00:00	1	Precipitación	0
58436	7	Sololá	710	Panajachel	8	Panajachel	9	Septiembre	2023-04-09T00:00:00	2024-11-08T01:00:00	8	Radiación solar	0
58437	7	Sololá	710	Panajachel	8	Panajachel	9	Septiembre	2023-04-09T00:00:00	2024-11-08T02:00:00	2	Temperatura media	16.6
58438	7	Sololá	710	Panajachel	8	Panajachel	9	Septiembre	2023-04-09T00:00:00	2024-11-08T02:00:00	4	Temperatura máxima	16.8
58439	7	Sololá	710	Panajachel	8	Panajachel	9	Septiembre	2023-04-09T00:00:00	2024-11-08T02:00:00	3	Temperatura mínima	16.6
58440	7	Sololá	710	Panajachel	8	Panajachel	9	Septiembre	2023-04-09T00:00:00	2024-11-08T02:00:00	5	Humedad	96
58441	7	Sololá	710	Panajachel	8	Panajachel	9	Septiembre	2023-04-09T00:00:00	2024-11-08T02:00:00	6	Velocidad del viento	0
58442	7	Sololá	710	Panajachel	8	Panajachel	9	Septiembre	2023-04-09T00:00:00	2024-11-08T02:00:00	7	Dirección del viento	0
58443	7	Sololá	710	Panajachel	8	Panajachel	9	Septiembre	2023-04-09T00:00:00	2024-11-08T02:00:00	1	Precipitación	0
58444	7	Sololá	710	Panajachel	8	Panajachel	9	Septiembre	2023-04-09T00:00:00	2024-11-08T02:00:00	8	Radiación solar	0
58445	7	Sololá	710	Panajachel	8	Panajachel	9	Septiembre	2023-04-09T00:00:00	2024-11-08T03:00:00	2	Temperatura media	16.3
58446	7	Sololá	710	Panajachel	8	Panajachel	9	Septiembre	2023-04-09T00:00:00	2024-11-08T03:00:00	4	Temperatura máxima	16.6
58447	7	Sololá	710	Panajachel	8	Panajachel	9	Septiembre	2023-04-09T00:00:00	2024-11-08T03:00:00	3	Temperatura mínima	16.3
58448	7	Sololá	710	Panajachel	8	Panajachel	9	Septiembre	2023-04-09T00:00:00	2024-11-08T03:00:00	5	Humedad	94
58449	7	Sololá	710	Panajachel	8	Panajachel	9	Septiembre	2023-04-09T00:00:00	2024-11-08T03:00:00	6	Velocidad del viento	1.6
58450	7	Sololá	710	Panajachel	8	Panajachel	9	Septiembre	2023-04-09T00:00:00	2024-11-08T03:00:00	7	Dirección del viento	1.61
58451	7	Sololá	710	Panajachel	8	Panajachel	9	Septiembre	2023-04-09T00:00:00	2024-11-08T03:00:00	1	Precipitación	0
58452	7	Sololá	710	Panajachel	8	Panajachel	9	Septiembre	2023-04-09T00:00:00	2024-11-08T03:00:00	8	Radiación solar	0
58453	7	Sololá	710	Panajachel	8	Panajachel	9	Septiembre	2023-04-09T00:00:00	2024-11-08T04:00:00	2	Temperatura media	15.7
58454	7	Sololá	710	Panajachel	8	Panajachel	9	Septiembre	2023-04-09T00:00:00	2024-11-08T04:00:00	4	Temperatura máxima	16.4
58455	7	Sololá	710	Panajachel	8	Panajachel	9	Septiembre	2023-04-09T00:00:00	2024-11-08T04:00:00	3	Temperatura mínima	15.7
58456	7	Sololá	710	Panajachel	8	Panajachel	9	Septiembre	2023-04-09T00:00:00	2024-11-08T04:00:00	5	Humedad	96
58457	7	Sololá	710	Panajachel	8	Panajachel	9	Septiembre	2023-04-09T00:00:00	2024-11-08T04:00:00	6	Velocidad del viento	0
58458	7	Sololá	710	Panajachel	8	Panajachel	9	Septiembre	2023-04-09T00:00:00	2024-11-08T04:00:00	7	Dirección del viento	0
58459	7	Sololá	710	Panajachel	8	Panajachel	9	Septiembre	2023-04-09T00:00:00	2024-11-08T04:00:00	1	Precipitación	0
58460	7	Sololá	710	Panajachel	8	Panajachel	9	Septiembre	2023-04-09T00:00:00	2024-11-08T04:00:00	8	Radiación solar	0
58461	7	Sololá	710	Panajachel	8	Panajachel	9	Septiembre	2023-04-09T00:00:00	2024-11-08T05:00:00	2	Temperatura media	15.7
58462	7	Sololá	710	Panajachel	8	Panajachel	9	Septiembre	2023-04-09T00:00:00	2024-11-08T05:00:00	4	Temperatura máxima	15.8
58463	7	Sololá	710	Panajachel	8	Panajachel	9	Septiembre	2023-04-09T00:00:00	2024-11-08T05:00:00	3	Temperatura mínima	15.5
58464	7	Sololá	710	Panajachel	8	Panajachel	9	Septiembre	2023-04-09T00:00:00	2024-11-08T05:00:00	5	Humedad	94
58465	7	Sololá	710	Panajachel	8	Panajachel	9	Septiembre	2023-04-09T00:00:00	2024-11-08T05:00:00	6	Velocidad del viento	1.6
58466	7	Sololá	710	Panajachel	8	Panajachel	9	Septiembre	2023-04-09T00:00:00	2024-11-08T05:00:00	7	Dirección del viento	1.61
58467	7	Sololá	710	Panajachel	8	Panajachel	9	Septiembre	2023-04-09T00:00:00	2024-11-08T05:00:00	1	Precipitación	0
58468	7	Sololá	710	Panajachel	8	Panajachel	9	Septiembre	2023-04-09T00:00:00	2024-11-08T05:00:00	8	Radiación solar	0
58469	7	Sololá	710	Panajachel	8	Panajachel	9	Septiembre	2023-04-09T00:00:00	2024-11-08T06:00:00	2	Temperatura media	15.6
58470	7	Sololá	710	Panajachel	8	Panajachel	9	Septiembre	2023-04-09T00:00:00	2024-11-08T06:00:00	4	Temperatura máxima	15.9
58471	7	Sololá	710	Panajachel	8	Panajachel	9	Septiembre	2023-04-09T00:00:00	2024-11-08T06:00:00	3	Temperatura mínima	15.4
58472	7	Sololá	710	Panajachel	8	Panajachel	9	Septiembre	2023-04-09T00:00:00	2024-11-08T06:00:00	5	Humedad	92
58473	7	Sololá	710	Panajachel	8	Panajachel	9	Septiembre	2023-04-09T00:00:00	2024-11-08T06:00:00	6	Velocidad del viento	3.2
58474	7	Sololá	710	Panajachel	8	Panajachel	9	Septiembre	2023-04-09T00:00:00	2024-11-08T06:00:00	7	Dirección del viento	3.22
58475	7	Sololá	710	Panajachel	8	Panajachel	9	Septiembre	2023-04-09T00:00:00	2024-11-08T06:00:00	1	Precipitación	0
58476	7	Sololá	710	Panajachel	8	Panajachel	9	Septiembre	2023-04-09T00:00:00	2024-11-08T06:00:00	8	Radiación solar	0
58477	7	Sololá	710	Panajachel	8	Panajachel	9	Septiembre	2023-04-09T00:00:00	2024-11-08T07:00:00	2	Temperatura media	17.2
58478	7	Sololá	710	Panajachel	8	Panajachel	9	Septiembre	2023-04-09T00:00:00	2024-11-08T07:00:00	4	Temperatura máxima	17.2
58479	7	Sololá	710	Panajachel	8	Panajachel	9	Septiembre	2023-04-09T00:00:00	2024-11-08T07:00:00	3	Temperatura mínima	15.6
58480	7	Sololá	710	Panajachel	8	Panajachel	9	Septiembre	2023-04-09T00:00:00	2024-11-08T07:00:00	5	Humedad	88
58481	7	Sololá	710	Panajachel	8	Panajachel	9	Septiembre	2023-04-09T00:00:00	2024-11-08T07:00:00	6	Velocidad del viento	1.6
58482	7	Sololá	710	Panajachel	8	Panajachel	9	Septiembre	2023-04-09T00:00:00	2024-11-08T07:00:00	7	Dirección del viento	1.61
58483	7	Sololá	710	Panajachel	8	Panajachel	9	Septiembre	2023-04-09T00:00:00	2024-11-08T07:00:00	1	Precipitación	0
58484	7	Sololá	710	Panajachel	8	Panajachel	9	Septiembre	2023-04-09T00:00:00	2024-11-08T07:00:00	8	Radiación solar	64
58485	7	Sololá	710	Panajachel	8	Panajachel	9	Septiembre	2023-04-09T00:00:00	2024-11-08T08:00:00	2	Temperatura media	20.1
58486	7	Sololá	710	Panajachel	8	Panajachel	9	Septiembre	2023-04-09T00:00:00	2024-11-08T08:00:00	4	Temperatura máxima	20.2
58487	7	Sololá	710	Panajachel	8	Panajachel	9	Septiembre	2023-04-09T00:00:00	2024-11-08T08:00:00	3	Temperatura mínima	17.2
58488	7	Sololá	710	Panajachel	8	Panajachel	9	Septiembre	2023-04-09T00:00:00	2024-11-08T08:00:00	5	Humedad	82
58489	7	Sololá	710	Panajachel	8	Panajachel	9	Septiembre	2023-04-09T00:00:00	2024-11-08T08:00:00	6	Velocidad del viento	0
58490	7	Sololá	710	Panajachel	8	Panajachel	9	Septiembre	2023-04-09T00:00:00	2024-11-08T08:00:00	7	Dirección del viento	0
58491	7	Sololá	710	Panajachel	8	Panajachel	9	Septiembre	2023-04-09T00:00:00	2024-11-08T08:00:00	1	Precipitación	0
58492	7	Sololá	710	Panajachel	8	Panajachel	9	Septiembre	2023-04-09T00:00:00	2024-11-08T08:00:00	8	Radiación solar	289
58493	7	Sololá	710	Panajachel	8	Panajachel	9	Septiembre	2023-04-09T00:00:00	2024-11-08T09:00:00	2	Temperatura media	21.3
58494	7	Sololá	710	Panajachel	8	Panajachel	9	Septiembre	2023-04-09T00:00:00	2024-11-08T09:00:00	4	Temperatura máxima	21.6
58495	7	Sololá	710	Panajachel	8	Panajachel	9	Septiembre	2023-04-09T00:00:00	2024-11-08T09:00:00	3	Temperatura mínima	20.1
58496	7	Sololá	710	Panajachel	8	Panajachel	9	Septiembre	2023-04-09T00:00:00	2024-11-08T09:00:00	5	Humedad	78
58497	7	Sololá	710	Panajachel	8	Panajachel	9	Septiembre	2023-04-09T00:00:00	2024-11-08T09:00:00	6	Velocidad del viento	1.6
58498	7	Sololá	710	Panajachel	8	Panajachel	9	Septiembre	2023-04-09T00:00:00	2024-11-08T09:00:00	7	Dirección del viento	1.61
58499	7	Sololá	710	Panajachel	8	Panajachel	9	Septiembre	2023-04-09T00:00:00	2024-11-08T09:00:00	1	Precipitación	0
58500	7	Sololá	710	Panajachel	8	Panajachel	9	Septiembre	2023-04-09T00:00:00	2024-11-08T09:00:00	8	Radiación solar	543
58501	7	Sololá	710	Panajachel	8	Panajachel	9	Septiembre	2023-04-09T00:00:00	2024-11-08T10:00:00	2	Temperatura media	21.8
58502	7	Sololá	710	Panajachel	8	Panajachel	9	Septiembre	2023-04-09T00:00:00	2024-11-08T10:00:00	4	Temperatura máxima	22.3
58503	7	Sololá	710	Panajachel	8	Panajachel	9	Septiembre	2023-04-09T00:00:00	2024-11-08T10:00:00	3	Temperatura mínima	21.2
58504	7	Sololá	710	Panajachel	8	Panajachel	9	Septiembre	2023-04-09T00:00:00	2024-11-08T10:00:00	5	Humedad	78
58505	7	Sololá	710	Panajachel	8	Panajachel	9	Septiembre	2023-04-09T00:00:00	2024-11-08T10:00:00	6	Velocidad del viento	3.2
58506	7	Sololá	710	Panajachel	8	Panajachel	9	Septiembre	2023-04-09T00:00:00	2024-11-08T10:00:00	7	Dirección del viento	3.22
58507	7	Sololá	710	Panajachel	8	Panajachel	9	Septiembre	2023-04-09T00:00:00	2024-11-08T10:00:00	1	Precipitación	0
58508	7	Sololá	710	Panajachel	8	Panajachel	9	Septiembre	2023-04-09T00:00:00	2024-11-08T10:00:00	8	Radiación solar	691
58509	7	Sololá	710	Panajachel	8	Panajachel	9	Septiembre	2023-04-09T00:00:00	2024-11-08T11:00:00	2	Temperatura media	22.3
58510	7	Sololá	710	Panajachel	8	Panajachel	9	Septiembre	2023-04-09T00:00:00	2024-11-08T11:00:00	4	Temperatura máxima	22.6
58511	7	Sololá	710	Panajachel	8	Panajachel	9	Septiembre	2023-04-09T00:00:00	2024-11-08T11:00:00	3	Temperatura mínima	21.7
58512	7	Sololá	710	Panajachel	8	Panajachel	9	Septiembre	2023-04-09T00:00:00	2024-11-08T11:00:00	5	Humedad	79
58513	7	Sololá	710	Panajachel	8	Panajachel	9	Septiembre	2023-04-09T00:00:00	2024-11-08T11:00:00	6	Velocidad del viento	3.2
58514	7	Sololá	710	Panajachel	8	Panajachel	9	Septiembre	2023-04-09T00:00:00	2024-11-08T11:00:00	7	Dirección del viento	3.22
58515	7	Sololá	710	Panajachel	8	Panajachel	9	Septiembre	2023-04-09T00:00:00	2024-11-08T11:00:00	1	Precipitación	0
58516	7	Sololá	710	Panajachel	8	Panajachel	9	Septiembre	2023-04-09T00:00:00	2024-11-08T11:00:00	8	Radiación solar	778
58517	7	Sololá	710	Panajachel	8	Panajachel	9	Septiembre	2023-04-09T00:00:00	2024-11-08T12:00:00	2	Temperatura media	24.1
58518	7	Sololá	710	Panajachel	8	Panajachel	9	Septiembre	2023-04-09T00:00:00	2024-11-08T12:00:00	4	Temperatura máxima	24.1
58519	7	Sololá	710	Panajachel	8	Panajachel	9	Septiembre	2023-04-09T00:00:00	2024-11-08T12:00:00	3	Temperatura mínima	22.3
58520	7	Sololá	710	Panajachel	8	Panajachel	9	Septiembre	2023-04-09T00:00:00	2024-11-08T12:00:00	5	Humedad	70
58521	7	Sololá	710	Panajachel	8	Panajachel	9	Septiembre	2023-04-09T00:00:00	2024-11-08T12:00:00	6	Velocidad del viento	3.2
58522	7	Sololá	710	Panajachel	8	Panajachel	9	Septiembre	2023-04-09T00:00:00	2024-11-08T12:00:00	7	Dirección del viento	3.22
58523	7	Sololá	710	Panajachel	8	Panajachel	9	Septiembre	2023-04-09T00:00:00	2024-11-08T12:00:00	1	Precipitación	0
58524	7	Sololá	710	Panajachel	8	Panajachel	9	Septiembre	2023-04-09T00:00:00	2024-11-08T12:00:00	8	Radiación solar	989
58525	7	Sololá	710	Panajachel	8	Panajachel	9	Septiembre	2023-04-09T00:00:00	2024-11-08T13:00:00	2	Temperatura media	23.7
58526	7	Sololá	710	Panajachel	8	Panajachel	9	Septiembre	2023-04-09T00:00:00	2024-11-08T13:00:00	4	Temperatura máxima	24.6
58527	7	Sololá	710	Panajachel	8	Panajachel	9	Septiembre	2023-04-09T00:00:00	2024-11-08T13:00:00	3	Temperatura mínima	23.4
58528	7	Sololá	710	Panajachel	8	Panajachel	9	Septiembre	2023-04-09T00:00:00	2024-11-08T13:00:00	5	Humedad	80
58529	7	Sololá	710	Panajachel	8	Panajachel	9	Septiembre	2023-04-09T00:00:00	2024-11-08T13:00:00	6	Velocidad del viento	3.2
58530	7	Sololá	710	Panajachel	8	Panajachel	9	Septiembre	2023-04-09T00:00:00	2024-11-08T13:00:00	7	Dirección del viento	3.22
58531	7	Sololá	710	Panajachel	8	Panajachel	9	Septiembre	2023-04-09T00:00:00	2024-11-08T13:00:00	1	Precipitación	0
58532	7	Sololá	710	Panajachel	8	Panajachel	9	Septiembre	2023-04-09T00:00:00	2024-11-08T13:00:00	8	Radiación solar	428
58533	7	Sololá	710	Panajachel	8	Panajachel	9	Septiembre	2023-04-09T00:00:00	2024-11-08T14:00:00	2	Temperatura media	21.4
58534	7	Sololá	710	Panajachel	8	Panajachel	9	Septiembre	2023-04-09T00:00:00	2024-11-08T14:00:00	4	Temperatura máxima	23.7
58535	7	Sololá	710	Panajachel	8	Panajachel	9	Septiembre	2023-04-09T00:00:00	2024-11-08T14:00:00	3	Temperatura mínima	21.4
58536	7	Sololá	710	Panajachel	8	Panajachel	9	Septiembre	2023-04-09T00:00:00	2024-11-08T14:00:00	5	Humedad	89
58537	7	Sololá	710	Panajachel	8	Panajachel	9	Septiembre	2023-04-09T00:00:00	2024-11-08T14:00:00	6	Velocidad del viento	4.8
58538	7	Sololá	710	Panajachel	8	Panajachel	9	Septiembre	2023-04-09T00:00:00	2024-11-08T14:00:00	7	Dirección del viento	4.83
58539	7	Sololá	710	Panajachel	8	Panajachel	9	Septiembre	2023-04-09T00:00:00	2024-11-08T14:00:00	1	Precipitación	0
58540	7	Sololá	710	Panajachel	8	Panajachel	9	Septiembre	2023-04-09T00:00:00	2024-11-08T14:00:00	8	Radiación solar	218
58541	7	Sololá	710	Panajachel	8	Panajachel	9	Septiembre	2023-04-09T00:00:00	2024-11-08T15:00:00	2	Temperatura media	21.2
58542	7	Sololá	710	Panajachel	8	Panajachel	9	Septiembre	2023-04-09T00:00:00	2024-11-08T15:00:00	4	Temperatura máxima	21.4
58543	7	Sololá	710	Panajachel	8	Panajachel	9	Septiembre	2023-04-09T00:00:00	2024-11-08T15:00:00	3	Temperatura mínima	20.8
58544	7	Sololá	710	Panajachel	8	Panajachel	9	Septiembre	2023-04-09T00:00:00	2024-11-08T15:00:00	5	Humedad	85
58545	7	Sololá	710	Panajachel	8	Panajachel	9	Septiembre	2023-04-09T00:00:00	2024-11-08T15:00:00	6	Velocidad del viento	4.8
58546	7	Sololá	710	Panajachel	8	Panajachel	9	Septiembre	2023-04-09T00:00:00	2024-11-08T15:00:00	7	Dirección del viento	4.83
58547	7	Sololá	710	Panajachel	8	Panajachel	9	Septiembre	2023-04-09T00:00:00	2024-11-08T15:00:00	1	Precipitación	0
58548	7	Sololá	710	Panajachel	8	Panajachel	9	Septiembre	2023-04-09T00:00:00	2024-11-08T15:00:00	8	Radiación solar	213
58549	7	Sololá	710	Panajachel	8	Panajachel	9	Septiembre	2023-04-09T00:00:00	2024-11-08T16:00:00	2	Temperatura media	19.2
58550	7	Sololá	710	Panajachel	8	Panajachel	9	Septiembre	2023-04-09T00:00:00	2024-11-08T16:00:00	4	Temperatura máxima	21.2
58551	7	Sololá	710	Panajachel	8	Panajachel	9	Septiembre	2023-04-09T00:00:00	2024-11-08T16:00:00	3	Temperatura mínima	19.2
58552	7	Sololá	710	Panajachel	8	Panajachel	9	Septiembre	2023-04-09T00:00:00	2024-11-08T16:00:00	5	Humedad	94
58553	7	Sololá	710	Panajachel	8	Panajachel	9	Septiembre	2023-04-09T00:00:00	2024-11-08T16:00:00	6	Velocidad del viento	3.2
58554	7	Sololá	710	Panajachel	8	Panajachel	9	Septiembre	2023-04-09T00:00:00	2024-11-08T16:00:00	7	Dirección del viento	3.22
58555	7	Sololá	710	Panajachel	8	Panajachel	9	Septiembre	2023-04-09T00:00:00	2024-11-08T16:00:00	1	Precipitación	1.8
58556	7	Sololá	710	Panajachel	8	Panajachel	9	Septiembre	2023-04-09T00:00:00	2024-11-08T16:00:00	8	Radiación solar	84
58557	7	Sololá	710	Panajachel	8	Panajachel	9	Septiembre	2023-04-09T00:00:00	2024-11-08T17:00:00	2	Temperatura media	18.3
58558	7	Sololá	710	Panajachel	8	Panajachel	9	Septiembre	2023-04-09T00:00:00	2024-11-08T17:00:00	4	Temperatura máxima	19.2
58559	7	Sololá	710	Panajachel	8	Panajachel	9	Septiembre	2023-04-09T00:00:00	2024-11-08T17:00:00	3	Temperatura mínima	18.3
58560	7	Sololá	710	Panajachel	8	Panajachel	9	Septiembre	2023-04-09T00:00:00	2024-11-08T17:00:00	5	Humedad	95
58561	7	Sololá	710	Panajachel	8	Panajachel	9	Septiembre	2023-04-09T00:00:00	2024-11-08T17:00:00	6	Velocidad del viento	1.6
58562	7	Sololá	710	Panajachel	8	Panajachel	9	Septiembre	2023-04-09T00:00:00	2024-11-08T17:00:00	7	Dirección del viento	1.61
58563	7	Sololá	710	Panajachel	8	Panajachel	9	Septiembre	2023-04-09T00:00:00	2024-11-08T17:00:00	1	Precipitación	1.2
58564	7	Sololá	710	Panajachel	8	Panajachel	9	Septiembre	2023-04-09T00:00:00	2024-11-08T17:00:00	8	Radiación solar	32
58565	7	Sololá	710	Panajachel	8	Panajachel	9	Septiembre	2023-04-09T00:00:00	2024-11-08T18:00:00	2	Temperatura media	18.3
58566	7	Sololá	710	Panajachel	8	Panajachel	9	Septiembre	2023-04-09T00:00:00	2024-11-08T18:00:00	4	Temperatura máxima	18.3
58567	7	Sololá	710	Panajachel	8	Panajachel	9	Septiembre	2023-04-09T00:00:00	2024-11-08T18:00:00	3	Temperatura mínima	18.1
58568	7	Sololá	710	Panajachel	8	Panajachel	9	Septiembre	2023-04-09T00:00:00	2024-11-08T18:00:00	5	Humedad	96
58569	7	Sololá	710	Panajachel	8	Panajachel	9	Septiembre	2023-04-09T00:00:00	2024-11-08T18:00:00	6	Velocidad del viento	1.6
58570	7	Sololá	710	Panajachel	8	Panajachel	9	Septiembre	2023-04-09T00:00:00	2024-11-08T18:00:00	7	Dirección del viento	1.61
58571	7	Sololá	710	Panajachel	8	Panajachel	9	Septiembre	2023-04-09T00:00:00	2024-11-08T18:00:00	1	Precipitación	1.4
58572	7	Sololá	710	Panajachel	8	Panajachel	9	Septiembre	2023-04-09T00:00:00	2024-11-08T18:00:00	8	Radiación solar	5
58573	7	Sololá	710	Panajachel	8	Panajachel	9	Septiembre	2023-04-09T00:00:00	2024-11-08T19:00:00	2	Temperatura media	17.9
58574	7	Sololá	710	Panajachel	8	Panajachel	9	Septiembre	2023-04-09T00:00:00	2024-11-08T19:00:00	4	Temperatura máxima	18.3
58575	7	Sololá	710	Panajachel	8	Panajachel	9	Septiembre	2023-04-09T00:00:00	2024-11-08T19:00:00	3	Temperatura mínima	17.9
58576	7	Sololá	710	Panajachel	8	Panajachel	9	Septiembre	2023-04-09T00:00:00	2024-11-08T19:00:00	5	Humedad	96
58577	7	Sololá	710	Panajachel	8	Panajachel	9	Septiembre	2023-04-09T00:00:00	2024-11-08T19:00:00	6	Velocidad del viento	0
58578	7	Sololá	710	Panajachel	8	Panajachel	9	Septiembre	2023-04-09T00:00:00	2024-11-08T19:00:00	7	Dirección del viento	0
58579	7	Sololá	710	Panajachel	8	Panajachel	9	Septiembre	2023-04-09T00:00:00	2024-11-08T19:00:00	1	Precipitación	2.2
58580	7	Sololá	710	Panajachel	8	Panajachel	9	Septiembre	2023-04-09T00:00:00	2024-11-08T19:00:00	8	Radiación solar	0
58581	7	Sololá	710	Panajachel	8	Panajachel	9	Septiembre	2023-04-09T00:00:00	2024-11-08T20:00:00	2	Temperatura media	17.9
58582	7	Sololá	710	Panajachel	8	Panajachel	9	Septiembre	2023-04-09T00:00:00	2024-11-08T20:00:00	4	Temperatura máxima	18
58583	7	Sololá	710	Panajachel	8	Panajachel	9	Septiembre	2023-04-09T00:00:00	2024-11-08T20:00:00	3	Temperatura mínima	17.8
58584	7	Sololá	710	Panajachel	8	Panajachel	9	Septiembre	2023-04-09T00:00:00	2024-11-08T20:00:00	5	Humedad	97
58585	7	Sololá	710	Panajachel	8	Panajachel	9	Septiembre	2023-04-09T00:00:00	2024-11-08T20:00:00	6	Velocidad del viento	0
58586	7	Sololá	710	Panajachel	8	Panajachel	9	Septiembre	2023-04-09T00:00:00	2024-11-08T20:00:00	7	Dirección del viento	0
58587	7	Sololá	710	Panajachel	8	Panajachel	9	Septiembre	2023-04-09T00:00:00	2024-11-08T20:00:00	1	Precipitación	0
58588	7	Sololá	710	Panajachel	8	Panajachel	9	Septiembre	2023-04-09T00:00:00	2024-11-08T20:00:00	8	Radiación solar	0
58589	7	Sololá	710	Panajachel	8	Panajachel	9	Septiembre	2023-04-09T00:00:00	2024-11-08T21:00:00	2	Temperatura media	17.8
58590	7	Sololá	710	Panajachel	8	Panajachel	9	Septiembre	2023-04-09T00:00:00	2024-11-08T21:00:00	4	Temperatura máxima	17.9
58591	7	Sololá	710	Panajachel	8	Panajachel	9	Septiembre	2023-04-09T00:00:00	2024-11-08T21:00:00	3	Temperatura mínima	17.7
58592	7	Sololá	710	Panajachel	8	Panajachel	9	Septiembre	2023-04-09T00:00:00	2024-11-08T21:00:00	5	Humedad	97
58593	7	Sololá	710	Panajachel	8	Panajachel	9	Septiembre	2023-04-09T00:00:00	2024-11-08T21:00:00	6	Velocidad del viento	1.6
58594	7	Sololá	710	Panajachel	8	Panajachel	9	Septiembre	2023-04-09T00:00:00	2024-11-08T21:00:00	7	Dirección del viento	1.61
58595	7	Sololá	710	Panajachel	8	Panajachel	9	Septiembre	2023-04-09T00:00:00	2024-11-08T21:00:00	1	Precipitación	0
58596	7	Sololá	710	Panajachel	8	Panajachel	9	Septiembre	2023-04-09T00:00:00	2024-11-08T21:00:00	8	Radiación solar	0
58597	7	Sololá	710	Panajachel	8	Panajachel	9	Septiembre	2023-04-09T00:00:00	2024-11-08T22:00:00	2	Temperatura media	17.4
58598	7	Sololá	710	Panajachel	8	Panajachel	9	Septiembre	2023-04-09T00:00:00	2024-11-08T22:00:00	4	Temperatura máxima	17.8
58599	7	Sololá	710	Panajachel	8	Panajachel	9	Septiembre	2023-04-09T00:00:00	2024-11-08T22:00:00	3	Temperatura mínima	17.4
58600	7	Sololá	710	Panajachel	8	Panajachel	9	Septiembre	2023-04-09T00:00:00	2024-11-08T22:00:00	5	Humedad	97
58601	7	Sololá	710	Panajachel	8	Panajachel	9	Septiembre	2023-04-09T00:00:00	2024-11-08T22:00:00	6	Velocidad del viento	1.6
58602	7	Sololá	710	Panajachel	8	Panajachel	9	Septiembre	2023-04-09T00:00:00	2024-11-08T22:00:00	7	Dirección del viento	1.61
58603	7	Sololá	710	Panajachel	8	Panajachel	9	Septiembre	2023-04-09T00:00:00	2024-11-08T22:00:00	1	Precipitación	0
58604	7	Sololá	710	Panajachel	8	Panajachel	9	Septiembre	2023-04-09T00:00:00	2024-11-08T22:00:00	8	Radiación solar	0
58605	7	Sololá	710	Panajachel	8	Panajachel	9	Septiembre	2023-04-09T00:00:00	2024-11-08T23:00:00	2	Temperatura media	17.6
58606	7	Sololá	710	Panajachel	8	Panajachel	9	Septiembre	2023-04-09T00:00:00	2024-11-08T23:00:00	4	Temperatura máxima	17.6
58607	7	Sololá	710	Panajachel	8	Panajachel	9	Septiembre	2023-04-09T00:00:00	2024-11-08T23:00:00	3	Temperatura mínima	17.4
58608	7	Sololá	710	Panajachel	8	Panajachel	9	Septiembre	2023-04-09T00:00:00	2024-11-08T23:00:00	5	Humedad	97
58609	7	Sololá	710	Panajachel	8	Panajachel	9	Septiembre	2023-04-09T00:00:00	2024-11-08T23:00:00	6	Velocidad del viento	1.6
58610	7	Sololá	710	Panajachel	8	Panajachel	9	Septiembre	2023-04-09T00:00:00	2024-11-08T23:00:00	7	Dirección del viento	1.61
58611	7	Sololá	710	Panajachel	8	Panajachel	9	Septiembre	2023-04-09T00:00:00	2024-11-08T23:00:00	1	Precipitación	0
58612	7	Sololá	710	Panajachel	8	Panajachel	9	Septiembre	2023-04-09T00:00:00	2024-11-08T23:00:00	8	Radiación solar	0
58613	7	Sololá	710	Panajachel	8	Panajachel	9	Septiembre	2023-05-09T00:00:00	2024-11-08T00:00:00	2	Temperatura media	17.6
58614	7	Sololá	710	Panajachel	8	Panajachel	9	Septiembre	2023-05-09T00:00:00	2024-11-08T00:00:00	4	Temperatura máxima	17.6
58615	7	Sololá	710	Panajachel	8	Panajachel	9	Septiembre	2023-05-09T00:00:00	2024-11-08T00:00:00	3	Temperatura mínima	17.5
58616	7	Sololá	710	Panajachel	8	Panajachel	9	Septiembre	2023-05-09T00:00:00	2024-11-08T00:00:00	5	Humedad	96
58617	7	Sololá	710	Panajachel	8	Panajachel	9	Septiembre	2023-05-09T00:00:00	2024-11-08T00:00:00	6	Velocidad del viento	1.6
58618	7	Sololá	710	Panajachel	8	Panajachel	9	Septiembre	2023-05-09T00:00:00	2024-11-08T00:00:00	7	Dirección del viento	1.61
58619	7	Sololá	710	Panajachel	8	Panajachel	9	Septiembre	2023-05-09T00:00:00	2024-11-08T00:00:00	1	Precipitación	0
58620	7	Sololá	710	Panajachel	8	Panajachel	9	Septiembre	2023-05-09T00:00:00	2024-11-08T00:00:00	8	Radiación solar	0
58621	7	Sololá	710	Panajachel	8	Panajachel	9	Septiembre	2023-05-09T00:00:00	2024-11-08T01:00:00	2	Temperatura media	17.2
58622	7	Sololá	710	Panajachel	8	Panajachel	9	Septiembre	2023-05-09T00:00:00	2024-11-08T01:00:00	4	Temperatura máxima	17.6
58623	7	Sololá	710	Panajachel	8	Panajachel	9	Septiembre	2023-05-09T00:00:00	2024-11-08T01:00:00	3	Temperatura mínima	17.2
58624	7	Sololá	710	Panajachel	8	Panajachel	9	Septiembre	2023-05-09T00:00:00	2024-11-08T01:00:00	5	Humedad	95
58625	7	Sololá	710	Panajachel	8	Panajachel	9	Septiembre	2023-05-09T00:00:00	2024-11-08T01:00:00	6	Velocidad del viento	1.6
58626	7	Sololá	710	Panajachel	8	Panajachel	9	Septiembre	2023-05-09T00:00:00	2024-11-08T01:00:00	7	Dirección del viento	1.61
58627	7	Sololá	710	Panajachel	8	Panajachel	9	Septiembre	2023-05-09T00:00:00	2024-11-08T01:00:00	1	Precipitación	0
58628	7	Sololá	710	Panajachel	8	Panajachel	9	Septiembre	2023-05-09T00:00:00	2024-11-08T01:00:00	8	Radiación solar	0
58629	7	Sololá	710	Panajachel	8	Panajachel	9	Septiembre	2023-05-09T00:00:00	2024-11-08T02:00:00	2	Temperatura media	17.2
58630	7	Sololá	710	Panajachel	8	Panajachel	9	Septiembre	2023-05-09T00:00:00	2024-11-08T02:00:00	4	Temperatura máxima	17.3
58631	7	Sololá	710	Panajachel	8	Panajachel	9	Septiembre	2023-05-09T00:00:00	2024-11-08T02:00:00	3	Temperatura mínima	17.2
58632	7	Sololá	710	Panajachel	8	Panajachel	9	Septiembre	2023-05-09T00:00:00	2024-11-08T02:00:00	5	Humedad	94
58633	7	Sololá	710	Panajachel	8	Panajachel	9	Septiembre	2023-05-09T00:00:00	2024-11-08T02:00:00	6	Velocidad del viento	3.2
58634	7	Sololá	710	Panajachel	8	Panajachel	9	Septiembre	2023-05-09T00:00:00	2024-11-08T02:00:00	7	Dirección del viento	3.22
58635	7	Sololá	710	Panajachel	8	Panajachel	9	Septiembre	2023-05-09T00:00:00	2024-11-08T02:00:00	1	Precipitación	0
58636	7	Sololá	710	Panajachel	8	Panajachel	9	Septiembre	2023-05-09T00:00:00	2024-11-08T02:00:00	8	Radiación solar	0
58637	7	Sololá	710	Panajachel	8	Panajachel	9	Septiembre	2023-05-09T00:00:00	2024-11-08T03:00:00	2	Temperatura media	16.6
58638	7	Sololá	710	Panajachel	8	Panajachel	9	Septiembre	2023-05-09T00:00:00	2024-11-08T03:00:00	4	Temperatura máxima	17.2
58639	7	Sololá	710	Panajachel	8	Panajachel	9	Septiembre	2023-05-09T00:00:00	2024-11-08T03:00:00	3	Temperatura mínima	16.6
58640	7	Sololá	710	Panajachel	8	Panajachel	9	Septiembre	2023-05-09T00:00:00	2024-11-08T03:00:00	5	Humedad	93
58641	7	Sololá	710	Panajachel	8	Panajachel	9	Septiembre	2023-05-09T00:00:00	2024-11-08T03:00:00	6	Velocidad del viento	3.2
58642	7	Sololá	710	Panajachel	8	Panajachel	9	Septiembre	2023-05-09T00:00:00	2024-11-08T03:00:00	7	Dirección del viento	3.22
58643	7	Sololá	710	Panajachel	8	Panajachel	9	Septiembre	2023-05-09T00:00:00	2024-11-08T03:00:00	1	Precipitación	0
58644	7	Sololá	710	Panajachel	8	Panajachel	9	Septiembre	2023-05-09T00:00:00	2024-11-08T03:00:00	8	Radiación solar	0
58645	7	Sololá	710	Panajachel	8	Panajachel	9	Septiembre	2023-05-09T00:00:00	2024-11-08T04:00:00	2	Temperatura media	16.4
58646	7	Sololá	710	Panajachel	8	Panajachel	9	Septiembre	2023-05-09T00:00:00	2024-11-08T04:00:00	4	Temperatura máxima	16.7
58647	7	Sololá	710	Panajachel	8	Panajachel	9	Septiembre	2023-05-09T00:00:00	2024-11-08T04:00:00	3	Temperatura mínima	16.4
58648	7	Sololá	710	Panajachel	8	Panajachel	9	Septiembre	2023-05-09T00:00:00	2024-11-08T04:00:00	5	Humedad	90
58649	7	Sololá	710	Panajachel	8	Panajachel	9	Septiembre	2023-05-09T00:00:00	2024-11-08T04:00:00	6	Velocidad del viento	3.2
58650	7	Sololá	710	Panajachel	8	Panajachel	9	Septiembre	2023-05-09T00:00:00	2024-11-08T04:00:00	7	Dirección del viento	3.22
58651	7	Sololá	710	Panajachel	8	Panajachel	9	Septiembre	2023-05-09T00:00:00	2024-11-08T04:00:00	1	Precipitación	0
58652	7	Sololá	710	Panajachel	8	Panajachel	9	Septiembre	2023-05-09T00:00:00	2024-11-08T04:00:00	8	Radiación solar	0
58653	7	Sololá	710	Panajachel	8	Panajachel	9	Septiembre	2023-05-09T00:00:00	2024-11-08T05:00:00	2	Temperatura media	16.3
58654	7	Sololá	710	Panajachel	8	Panajachel	9	Septiembre	2023-05-09T00:00:00	2024-11-08T05:00:00	4	Temperatura máxima	16.7
58655	7	Sololá	710	Panajachel	8	Panajachel	9	Septiembre	2023-05-09T00:00:00	2024-11-08T05:00:00	3	Temperatura mínima	16.3
58656	7	Sololá	710	Panajachel	8	Panajachel	9	Septiembre	2023-05-09T00:00:00	2024-11-08T05:00:00	5	Humedad	90
58657	7	Sololá	710	Panajachel	8	Panajachel	9	Septiembre	2023-05-09T00:00:00	2024-11-08T05:00:00	6	Velocidad del viento	3.2
58658	7	Sololá	710	Panajachel	8	Panajachel	9	Septiembre	2023-05-09T00:00:00	2024-11-08T05:00:00	7	Dirección del viento	3.22
58659	7	Sololá	710	Panajachel	8	Panajachel	9	Septiembre	2023-05-09T00:00:00	2024-11-08T05:00:00	1	Precipitación	0
58660	7	Sololá	710	Panajachel	8	Panajachel	9	Septiembre	2023-05-09T00:00:00	2024-11-08T05:00:00	8	Radiación solar	0
58661	7	Sololá	710	Panajachel	8	Panajachel	9	Septiembre	2023-05-09T00:00:00	2024-11-08T06:00:00	2	Temperatura media	16
58662	7	Sololá	710	Panajachel	8	Panajachel	9	Septiembre	2023-05-09T00:00:00	2024-11-08T06:00:00	4	Temperatura máxima	16.4
58663	7	Sololá	710	Panajachel	8	Panajachel	9	Septiembre	2023-05-09T00:00:00	2024-11-08T06:00:00	3	Temperatura mínima	15.9
58664	7	Sololá	710	Panajachel	8	Panajachel	9	Septiembre	2023-05-09T00:00:00	2024-11-08T06:00:00	5	Humedad	91
58665	7	Sololá	710	Panajachel	8	Panajachel	9	Septiembre	2023-05-09T00:00:00	2024-11-08T06:00:00	6	Velocidad del viento	3.2
58666	7	Sololá	710	Panajachel	8	Panajachel	9	Septiembre	2023-05-09T00:00:00	2024-11-08T06:00:00	7	Dirección del viento	3.22
58667	7	Sololá	710	Panajachel	8	Panajachel	9	Septiembre	2023-05-09T00:00:00	2024-11-08T06:00:00	1	Precipitación	0
58668	7	Sololá	710	Panajachel	8	Panajachel	9	Septiembre	2023-05-09T00:00:00	2024-11-08T06:00:00	8	Radiación solar	0
58669	7	Sololá	710	Panajachel	8	Panajachel	9	Septiembre	2023-05-09T00:00:00	2024-11-08T07:00:00	2	Temperatura media	17.7
58670	7	Sololá	710	Panajachel	8	Panajachel	9	Septiembre	2023-05-09T00:00:00	2024-11-08T07:00:00	4	Temperatura máxima	17.7
58671	7	Sololá	710	Panajachel	8	Panajachel	9	Septiembre	2023-05-09T00:00:00	2024-11-08T07:00:00	3	Temperatura mínima	16
58672	7	Sololá	710	Panajachel	8	Panajachel	9	Septiembre	2023-05-09T00:00:00	2024-11-08T07:00:00	5	Humedad	85
58673	7	Sololá	710	Panajachel	8	Panajachel	9	Septiembre	2023-05-09T00:00:00	2024-11-08T07:00:00	6	Velocidad del viento	3.2
58674	7	Sololá	710	Panajachel	8	Panajachel	9	Septiembre	2023-05-09T00:00:00	2024-11-08T07:00:00	7	Dirección del viento	3.22
58675	7	Sololá	710	Panajachel	8	Panajachel	9	Septiembre	2023-05-09T00:00:00	2024-11-08T07:00:00	1	Precipitación	0
58676	7	Sololá	710	Panajachel	8	Panajachel	9	Septiembre	2023-05-09T00:00:00	2024-11-08T07:00:00	8	Radiación solar	67
58677	7	Sololá	710	Panajachel	8	Panajachel	9	Septiembre	2023-05-09T00:00:00	2024-11-08T08:00:00	2	Temperatura media	20.9
58678	7	Sololá	710	Panajachel	8	Panajachel	9	Septiembre	2023-05-09T00:00:00	2024-11-08T08:00:00	4	Temperatura máxima	20.9
58679	7	Sololá	710	Panajachel	8	Panajachel	9	Septiembre	2023-05-09T00:00:00	2024-11-08T08:00:00	3	Temperatura mínima	17.7
58680	7	Sololá	710	Panajachel	8	Panajachel	9	Septiembre	2023-05-09T00:00:00	2024-11-08T08:00:00	5	Humedad	78
58681	7	Sololá	710	Panajachel	8	Panajachel	9	Septiembre	2023-05-09T00:00:00	2024-11-08T08:00:00	6	Velocidad del viento	1.6
58682	7	Sololá	710	Panajachel	8	Panajachel	9	Septiembre	2023-05-09T00:00:00	2024-11-08T08:00:00	7	Dirección del viento	1.61
58683	7	Sololá	710	Panajachel	8	Panajachel	9	Septiembre	2023-05-09T00:00:00	2024-11-08T08:00:00	1	Precipitación	0
58684	7	Sololá	710	Panajachel	8	Panajachel	9	Septiembre	2023-05-09T00:00:00	2024-11-08T08:00:00	8	Radiación solar	358
58685	7	Sololá	710	Panajachel	8	Panajachel	9	Septiembre	2023-05-09T00:00:00	2024-11-08T09:00:00	2	Temperatura media	21.2
58686	7	Sololá	710	Panajachel	8	Panajachel	9	Septiembre	2023-05-09T00:00:00	2024-11-08T09:00:00	4	Temperatura máxima	21.3
58687	7	Sololá	710	Panajachel	8	Panajachel	9	Septiembre	2023-05-09T00:00:00	2024-11-08T09:00:00	3	Temperatura mínima	20.7
58688	7	Sololá	710	Panajachel	8	Panajachel	9	Septiembre	2023-05-09T00:00:00	2024-11-08T09:00:00	5	Humedad	81
58689	7	Sololá	710	Panajachel	8	Panajachel	9	Septiembre	2023-05-09T00:00:00	2024-11-08T09:00:00	6	Velocidad del viento	3.2
58690	7	Sololá	710	Panajachel	8	Panajachel	9	Septiembre	2023-05-09T00:00:00	2024-11-08T09:00:00	7	Dirección del viento	3.22
58691	7	Sololá	710	Panajachel	8	Panajachel	9	Septiembre	2023-05-09T00:00:00	2024-11-08T09:00:00	1	Precipitación	0
58692	7	Sololá	710	Panajachel	8	Panajachel	9	Septiembre	2023-05-09T00:00:00	2024-11-08T09:00:00	8	Radiación solar	528
58693	7	Sololá	710	Panajachel	8	Panajachel	9	Septiembre	2023-05-09T00:00:00	2024-11-08T10:00:00	2	Temperatura media	22.1
58694	7	Sololá	710	Panajachel	8	Panajachel	9	Septiembre	2023-05-09T00:00:00	2024-11-08T10:00:00	4	Temperatura máxima	22.1
58695	7	Sololá	710	Panajachel	8	Panajachel	9	Septiembre	2023-05-09T00:00:00	2024-11-08T10:00:00	3	Temperatura mínima	21.2
58696	7	Sololá	710	Panajachel	8	Panajachel	9	Septiembre	2023-05-09T00:00:00	2024-11-08T10:00:00	5	Humedad	77
58697	7	Sololá	710	Panajachel	8	Panajachel	9	Septiembre	2023-05-09T00:00:00	2024-11-08T10:00:00	6	Velocidad del viento	3.2
58698	7	Sololá	710	Panajachel	8	Panajachel	9	Septiembre	2023-05-09T00:00:00	2024-11-08T10:00:00	7	Dirección del viento	3.22
58699	7	Sololá	710	Panajachel	8	Panajachel	9	Septiembre	2023-05-09T00:00:00	2024-11-08T10:00:00	1	Precipitación	0
58700	7	Sololá	710	Panajachel	8	Panajachel	9	Septiembre	2023-05-09T00:00:00	2024-11-08T10:00:00	8	Radiación solar	670
58701	7	Sololá	710	Panajachel	8	Panajachel	9	Septiembre	2023-05-09T00:00:00	2024-11-08T11:00:00	2	Temperatura media	22.8
58702	7	Sololá	710	Panajachel	8	Panajachel	9	Septiembre	2023-05-09T00:00:00	2024-11-08T11:00:00	4	Temperatura máxima	22.9
58703	7	Sololá	710	Panajachel	8	Panajachel	9	Septiembre	2023-05-09T00:00:00	2024-11-08T11:00:00	3	Temperatura mínima	22
58704	7	Sololá	710	Panajachel	8	Panajachel	9	Septiembre	2023-05-09T00:00:00	2024-11-08T11:00:00	5	Humedad	75
58705	7	Sololá	710	Panajachel	8	Panajachel	9	Septiembre	2023-05-09T00:00:00	2024-11-08T11:00:00	6	Velocidad del viento	3.2
58706	7	Sololá	710	Panajachel	8	Panajachel	9	Septiembre	2023-05-09T00:00:00	2024-11-08T11:00:00	7	Dirección del viento	3.22
58707	7	Sololá	710	Panajachel	8	Panajachel	9	Septiembre	2023-05-09T00:00:00	2024-11-08T11:00:00	1	Precipitación	0
58708	7	Sololá	710	Panajachel	8	Panajachel	9	Septiembre	2023-05-09T00:00:00	2024-11-08T11:00:00	8	Radiación solar	877
58709	7	Sololá	710	Panajachel	8	Panajachel	9	Septiembre	2023-05-09T00:00:00	2024-11-08T12:00:00	2	Temperatura media	22.3
58710	7	Sololá	710	Panajachel	8	Panajachel	9	Septiembre	2023-05-09T00:00:00	2024-11-08T12:00:00	4	Temperatura máxima	23.4
58711	7	Sololá	710	Panajachel	8	Panajachel	9	Septiembre	2023-05-09T00:00:00	2024-11-08T12:00:00	3	Temperatura mínima	22.3
58712	7	Sololá	710	Panajachel	8	Panajachel	9	Septiembre	2023-05-09T00:00:00	2024-11-08T12:00:00	5	Humedad	81
58713	7	Sololá	710	Panajachel	8	Panajachel	9	Septiembre	2023-05-09T00:00:00	2024-11-08T12:00:00	6	Velocidad del viento	3.2
58714	7	Sololá	710	Panajachel	8	Panajachel	9	Septiembre	2023-05-09T00:00:00	2024-11-08T12:00:00	7	Dirección del viento	3.22
58715	7	Sololá	710	Panajachel	8	Panajachel	9	Septiembre	2023-05-09T00:00:00	2024-11-08T12:00:00	1	Precipitación	0
58716	7	Sololá	710	Panajachel	8	Panajachel	9	Septiembre	2023-05-09T00:00:00	2024-11-08T12:00:00	8	Radiación solar	470
58717	7	Sololá	710	Panajachel	8	Panajachel	9	Septiembre	2023-05-09T00:00:00	2024-11-08T13:00:00	2	Temperatura media	23.1
58718	7	Sololá	710	Panajachel	8	Panajachel	9	Septiembre	2023-05-09T00:00:00	2024-11-08T13:00:00	4	Temperatura máxima	23.1
58719	7	Sololá	710	Panajachel	8	Panajachel	9	Septiembre	2023-05-09T00:00:00	2024-11-08T13:00:00	3	Temperatura mínima	21.9
58720	7	Sololá	710	Panajachel	8	Panajachel	9	Septiembre	2023-05-09T00:00:00	2024-11-08T13:00:00	5	Humedad	77
58721	7	Sololá	710	Panajachel	8	Panajachel	9	Septiembre	2023-05-09T00:00:00	2024-11-08T13:00:00	6	Velocidad del viento	3.2
58722	7	Sololá	710	Panajachel	8	Panajachel	9	Septiembre	2023-05-09T00:00:00	2024-11-08T13:00:00	7	Dirección del viento	3.22
58723	7	Sololá	710	Panajachel	8	Panajachel	9	Septiembre	2023-05-09T00:00:00	2024-11-08T13:00:00	1	Precipitación	0
58724	7	Sololá	710	Panajachel	8	Panajachel	9	Septiembre	2023-05-09T00:00:00	2024-11-08T13:00:00	8	Radiación solar	375
58725	7	Sololá	710	Panajachel	8	Panajachel	9	Septiembre	2023-05-09T00:00:00	2024-11-08T14:00:00	2	Temperatura media	21.8
58726	7	Sololá	710	Panajachel	8	Panajachel	9	Septiembre	2023-05-09T00:00:00	2024-11-08T14:00:00	4	Temperatura máxima	23.7
58727	7	Sololá	710	Panajachel	8	Panajachel	9	Septiembre	2023-05-09T00:00:00	2024-11-08T14:00:00	3	Temperatura mínima	21.8
58728	7	Sololá	710	Panajachel	8	Panajachel	9	Septiembre	2023-05-09T00:00:00	2024-11-08T14:00:00	5	Humedad	87
58729	7	Sololá	710	Panajachel	8	Panajachel	9	Septiembre	2023-05-09T00:00:00	2024-11-08T14:00:00	6	Velocidad del viento	3.2
58730	7	Sololá	710	Panajachel	8	Panajachel	9	Septiembre	2023-05-09T00:00:00	2024-11-08T14:00:00	7	Dirección del viento	3.22
58731	7	Sololá	710	Panajachel	8	Panajachel	9	Septiembre	2023-05-09T00:00:00	2024-11-08T14:00:00	1	Precipitación	0
58732	7	Sololá	710	Panajachel	8	Panajachel	9	Septiembre	2023-05-09T00:00:00	2024-11-08T14:00:00	8	Radiación solar	217
58733	7	Sololá	710	Panajachel	8	Panajachel	9	Septiembre	2023-05-09T00:00:00	2024-11-08T15:00:00	2	Temperatura media	18.8
58734	7	Sololá	710	Panajachel	8	Panajachel	9	Septiembre	2023-05-09T00:00:00	2024-11-08T15:00:00	4	Temperatura máxima	21.8
58735	7	Sololá	710	Panajachel	8	Panajachel	9	Septiembre	2023-05-09T00:00:00	2024-11-08T15:00:00	3	Temperatura mínima	18.7
58736	7	Sololá	710	Panajachel	8	Panajachel	9	Septiembre	2023-05-09T00:00:00	2024-11-08T15:00:00	5	Humedad	95
58737	7	Sololá	710	Panajachel	8	Panajachel	9	Septiembre	2023-05-09T00:00:00	2024-11-08T15:00:00	6	Velocidad del viento	3.2
58738	7	Sololá	710	Panajachel	8	Panajachel	9	Septiembre	2023-05-09T00:00:00	2024-11-08T15:00:00	7	Dirección del viento	3.22
58739	7	Sololá	710	Panajachel	8	Panajachel	9	Septiembre	2023-05-09T00:00:00	2024-11-08T15:00:00	1	Precipitación	3.8
58740	7	Sololá	710	Panajachel	8	Panajachel	9	Septiembre	2023-05-09T00:00:00	2024-11-08T15:00:00	8	Radiación solar	37
58741	7	Sololá	710	Panajachel	8	Panajachel	9	Septiembre	2023-05-09T00:00:00	2024-11-08T16:00:00	2	Temperatura media	18.5
58742	7	Sololá	710	Panajachel	8	Panajachel	9	Septiembre	2023-05-09T00:00:00	2024-11-08T16:00:00	4	Temperatura máxima	18.8
58743	7	Sololá	710	Panajachel	8	Panajachel	9	Septiembre	2023-05-09T00:00:00	2024-11-08T16:00:00	3	Temperatura mínima	18.4
58744	7	Sololá	710	Panajachel	8	Panajachel	9	Septiembre	2023-05-09T00:00:00	2024-11-08T16:00:00	5	Humedad	96
58745	7	Sololá	710	Panajachel	8	Panajachel	9	Septiembre	2023-05-09T00:00:00	2024-11-08T16:00:00	6	Velocidad del viento	1.6
58746	7	Sololá	710	Panajachel	8	Panajachel	9	Septiembre	2023-05-09T00:00:00	2024-11-08T16:00:00	7	Dirección del viento	1.61
58747	7	Sololá	710	Panajachel	8	Panajachel	9	Septiembre	2023-05-09T00:00:00	2024-11-08T16:00:00	1	Precipitación	0.4
58748	7	Sololá	710	Panajachel	8	Panajachel	9	Septiembre	2023-05-09T00:00:00	2024-11-08T16:00:00	8	Radiación solar	16
58749	7	Sololá	710	Panajachel	8	Panajachel	9	Septiembre	2023-05-09T00:00:00	2024-11-08T17:00:00	2	Temperatura media	18.2
58750	7	Sololá	710	Panajachel	8	Panajachel	9	Septiembre	2023-05-09T00:00:00	2024-11-08T17:00:00	4	Temperatura máxima	18.4
58751	7	Sololá	710	Panajachel	8	Panajachel	9	Septiembre	2023-05-09T00:00:00	2024-11-08T17:00:00	3	Temperatura mínima	18.1
58752	7	Sololá	710	Panajachel	8	Panajachel	9	Septiembre	2023-05-09T00:00:00	2024-11-08T17:00:00	5	Humedad	95
58753	7	Sololá	710	Panajachel	8	Panajachel	9	Septiembre	2023-05-09T00:00:00	2024-11-08T17:00:00	6	Velocidad del viento	0
58754	7	Sololá	710	Panajachel	8	Panajachel	9	Septiembre	2023-05-09T00:00:00	2024-11-08T17:00:00	7	Dirección del viento	0
58755	7	Sololá	710	Panajachel	8	Panajachel	9	Septiembre	2023-05-09T00:00:00	2024-11-08T17:00:00	1	Precipitación	0.2
58756	7	Sololá	710	Panajachel	8	Panajachel	9	Septiembre	2023-05-09T00:00:00	2024-11-08T17:00:00	8	Radiación solar	15
58757	7	Sololá	710	Panajachel	8	Panajachel	9	Septiembre	2023-05-09T00:00:00	2024-11-08T18:00:00	2	Temperatura media	17.9
58758	7	Sololá	710	Panajachel	8	Panajachel	9	Septiembre	2023-05-09T00:00:00	2024-11-08T18:00:00	4	Temperatura máxima	18.2
58759	7	Sololá	710	Panajachel	8	Panajachel	9	Septiembre	2023-05-09T00:00:00	2024-11-08T18:00:00	3	Temperatura mínima	17.8
58760	7	Sololá	710	Panajachel	8	Panajachel	9	Septiembre	2023-05-09T00:00:00	2024-11-08T18:00:00	5	Humedad	96
58761	7	Sololá	710	Panajachel	8	Panajachel	9	Septiembre	2023-05-09T00:00:00	2024-11-08T18:00:00	6	Velocidad del viento	0
58762	7	Sololá	710	Panajachel	8	Panajachel	9	Septiembre	2023-05-09T00:00:00	2024-11-08T18:00:00	7	Dirección del viento	0
58763	7	Sololá	710	Panajachel	8	Panajachel	9	Septiembre	2023-05-09T00:00:00	2024-11-08T18:00:00	1	Precipitación	0.2
58764	7	Sololá	710	Panajachel	8	Panajachel	9	Septiembre	2023-05-09T00:00:00	2024-11-08T18:00:00	8	Radiación solar	2
58765	7	Sololá	710	Panajachel	8	Panajachel	9	Septiembre	2023-05-09T00:00:00	2024-11-08T19:00:00	2	Temperatura media	17.6
58766	7	Sololá	710	Panajachel	8	Panajachel	9	Septiembre	2023-05-09T00:00:00	2024-11-08T19:00:00	4	Temperatura máxima	17.9
58767	7	Sololá	710	Panajachel	8	Panajachel	9	Septiembre	2023-05-09T00:00:00	2024-11-08T19:00:00	3	Temperatura mínima	17.6
58768	7	Sololá	710	Panajachel	8	Panajachel	9	Septiembre	2023-05-09T00:00:00	2024-11-08T19:00:00	5	Humedad	95
58769	7	Sololá	710	Panajachel	8	Panajachel	9	Septiembre	2023-05-09T00:00:00	2024-11-08T19:00:00	6	Velocidad del viento	1.6
58770	7	Sololá	710	Panajachel	8	Panajachel	9	Septiembre	2023-05-09T00:00:00	2024-11-08T19:00:00	7	Dirección del viento	1.61
58771	7	Sololá	710	Panajachel	8	Panajachel	9	Septiembre	2023-05-09T00:00:00	2024-11-08T19:00:00	1	Precipitación	0
58772	7	Sololá	710	Panajachel	8	Panajachel	9	Septiembre	2023-05-09T00:00:00	2024-11-08T19:00:00	8	Radiación solar	0
58773	7	Sololá	710	Panajachel	8	Panajachel	9	Septiembre	2023-05-09T00:00:00	2024-11-08T20:00:00	2	Temperatura media	17
58774	7	Sololá	710	Panajachel	8	Panajachel	9	Septiembre	2023-05-09T00:00:00	2024-11-08T20:00:00	4	Temperatura máxima	17.6
58775	7	Sololá	710	Panajachel	8	Panajachel	9	Septiembre	2023-05-09T00:00:00	2024-11-08T20:00:00	3	Temperatura mínima	17
58776	7	Sololá	710	Panajachel	8	Panajachel	9	Septiembre	2023-05-09T00:00:00	2024-11-08T20:00:00	5	Humedad	95
58777	7	Sololá	710	Panajachel	8	Panajachel	9	Septiembre	2023-05-09T00:00:00	2024-11-08T20:00:00	6	Velocidad del viento	3.2
58778	7	Sololá	710	Panajachel	8	Panajachel	9	Septiembre	2023-05-09T00:00:00	2024-11-08T20:00:00	7	Dirección del viento	3.22
58779	7	Sololá	710	Panajachel	8	Panajachel	9	Septiembre	2023-05-09T00:00:00	2024-11-08T20:00:00	1	Precipitación	0.2
58780	7	Sololá	710	Panajachel	8	Panajachel	9	Septiembre	2023-05-09T00:00:00	2024-11-08T20:00:00	8	Radiación solar	0
58781	7	Sololá	710	Panajachel	8	Panajachel	9	Septiembre	2023-05-09T00:00:00	2024-11-08T21:00:00	2	Temperatura media	17.2
58782	7	Sololá	710	Panajachel	8	Panajachel	9	Septiembre	2023-05-09T00:00:00	2024-11-08T21:00:00	4	Temperatura máxima	17.3
58783	7	Sololá	710	Panajachel	8	Panajachel	9	Septiembre	2023-05-09T00:00:00	2024-11-08T21:00:00	3	Temperatura mínima	17
58784	7	Sololá	710	Panajachel	8	Panajachel	9	Septiembre	2023-05-09T00:00:00	2024-11-08T21:00:00	5	Humedad	96
58785	7	Sololá	710	Panajachel	8	Panajachel	9	Septiembre	2023-05-09T00:00:00	2024-11-08T21:00:00	6	Velocidad del viento	3.2
58786	7	Sololá	710	Panajachel	8	Panajachel	9	Septiembre	2023-05-09T00:00:00	2024-11-08T21:00:00	7	Dirección del viento	3.22
58787	7	Sololá	710	Panajachel	8	Panajachel	9	Septiembre	2023-05-09T00:00:00	2024-11-08T21:00:00	1	Precipitación	0
58788	7	Sololá	710	Panajachel	8	Panajachel	9	Septiembre	2023-05-09T00:00:00	2024-11-08T21:00:00	8	Radiación solar	0
58789	7	Sololá	710	Panajachel	8	Panajachel	9	Septiembre	2023-05-09T00:00:00	2024-11-08T22:00:00	2	Temperatura media	17.4
58790	7	Sololá	710	Panajachel	8	Panajachel	9	Septiembre	2023-05-09T00:00:00	2024-11-08T22:00:00	4	Temperatura máxima	17.5
58791	7	Sololá	710	Panajachel	8	Panajachel	9	Septiembre	2023-05-09T00:00:00	2024-11-08T22:00:00	3	Temperatura mínima	17.1
58792	7	Sololá	710	Panajachel	8	Panajachel	9	Septiembre	2023-05-09T00:00:00	2024-11-08T22:00:00	5	Humedad	94
58793	7	Sololá	710	Panajachel	8	Panajachel	9	Septiembre	2023-05-09T00:00:00	2024-11-08T22:00:00	6	Velocidad del viento	0
58794	7	Sololá	710	Panajachel	8	Panajachel	9	Septiembre	2023-05-09T00:00:00	2024-11-08T22:00:00	7	Dirección del viento	0
58795	7	Sololá	710	Panajachel	8	Panajachel	9	Septiembre	2023-05-09T00:00:00	2024-11-08T22:00:00	1	Precipitación	0
58796	7	Sololá	710	Panajachel	8	Panajachel	9	Septiembre	2023-05-09T00:00:00	2024-11-08T22:00:00	8	Radiación solar	0
58797	7	Sololá	710	Panajachel	8	Panajachel	9	Septiembre	2023-05-09T00:00:00	2024-11-08T23:00:00	2	Temperatura media	17
58798	7	Sololá	710	Panajachel	8	Panajachel	9	Septiembre	2023-05-09T00:00:00	2024-11-08T23:00:00	4	Temperatura máxima	17.5
58799	7	Sololá	710	Panajachel	8	Panajachel	9	Septiembre	2023-05-09T00:00:00	2024-11-08T23:00:00	3	Temperatura mínima	17
58800	7	Sololá	710	Panajachel	8	Panajachel	9	Septiembre	2023-05-09T00:00:00	2024-11-08T23:00:00	5	Humedad	94
58801	7	Sololá	710	Panajachel	8	Panajachel	9	Septiembre	2023-05-09T00:00:00	2024-11-08T23:00:00	6	Velocidad del viento	1.6
58802	7	Sololá	710	Panajachel	8	Panajachel	9	Septiembre	2023-05-09T00:00:00	2024-11-08T23:00:00	7	Dirección del viento	1.61
58803	7	Sololá	710	Panajachel	8	Panajachel	9	Septiembre	2023-05-09T00:00:00	2024-11-08T23:00:00	1	Precipitación	0
58804	7	Sololá	710	Panajachel	8	Panajachel	9	Septiembre	2023-05-09T00:00:00	2024-11-08T23:00:00	8	Radiación solar	0
58805	7	Sololá	710	Panajachel	8	Panajachel	9	Septiembre	2023-06-09T00:00:00	2024-11-08T00:00:00	2	Temperatura media	17.1
58806	7	Sololá	710	Panajachel	8	Panajachel	9	Septiembre	2023-06-09T00:00:00	2024-11-08T00:00:00	4	Temperatura máxima	17.2
58807	7	Sololá	710	Panajachel	8	Panajachel	9	Septiembre	2023-06-09T00:00:00	2024-11-08T00:00:00	3	Temperatura mínima	16.9
58808	7	Sololá	710	Panajachel	8	Panajachel	9	Septiembre	2023-06-09T00:00:00	2024-11-08T00:00:00	5	Humedad	92
58809	7	Sololá	710	Panajachel	8	Panajachel	9	Septiembre	2023-06-09T00:00:00	2024-11-08T00:00:00	6	Velocidad del viento	3.2
58810	7	Sololá	710	Panajachel	8	Panajachel	9	Septiembre	2023-06-09T00:00:00	2024-11-08T00:00:00	7	Dirección del viento	3.22
58811	7	Sololá	710	Panajachel	8	Panajachel	9	Septiembre	2023-06-09T00:00:00	2024-11-08T00:00:00	1	Precipitación	0
58812	7	Sololá	710	Panajachel	8	Panajachel	9	Septiembre	2023-06-09T00:00:00	2024-11-08T00:00:00	8	Radiación solar	0
58813	7	Sololá	710	Panajachel	8	Panajachel	9	Septiembre	2023-06-09T00:00:00	2024-11-08T01:00:00	2	Temperatura media	17.9
58814	7	Sololá	710	Panajachel	8	Panajachel	9	Septiembre	2023-06-09T00:00:00	2024-11-08T01:00:00	4	Temperatura máxima	17.9
58815	7	Sololá	710	Panajachel	8	Panajachel	9	Septiembre	2023-06-09T00:00:00	2024-11-08T01:00:00	3	Temperatura mínima	17.1
58816	7	Sololá	710	Panajachel	8	Panajachel	9	Septiembre	2023-06-09T00:00:00	2024-11-08T01:00:00	5	Humedad	87
58817	7	Sololá	710	Panajachel	8	Panajachel	9	Septiembre	2023-06-09T00:00:00	2024-11-08T01:00:00	6	Velocidad del viento	3.2
58818	7	Sololá	710	Panajachel	8	Panajachel	9	Septiembre	2023-06-09T00:00:00	2024-11-08T01:00:00	7	Dirección del viento	3.22
58819	7	Sololá	710	Panajachel	8	Panajachel	9	Septiembre	2023-06-09T00:00:00	2024-11-08T01:00:00	1	Precipitación	0
58820	7	Sololá	710	Panajachel	8	Panajachel	9	Septiembre	2023-06-09T00:00:00	2024-11-08T01:00:00	8	Radiación solar	0
58821	7	Sololá	710	Panajachel	8	Panajachel	9	Septiembre	2023-06-09T00:00:00	2024-11-08T02:00:00	2	Temperatura media	17.7
58822	7	Sololá	710	Panajachel	8	Panajachel	9	Septiembre	2023-06-09T00:00:00	2024-11-08T02:00:00	4	Temperatura máxima	18.2
58823	7	Sololá	710	Panajachel	8	Panajachel	9	Septiembre	2023-06-09T00:00:00	2024-11-08T02:00:00	3	Temperatura mínima	17.7
58824	7	Sololá	710	Panajachel	8	Panajachel	9	Septiembre	2023-06-09T00:00:00	2024-11-08T02:00:00	5	Humedad	89
58825	7	Sololá	710	Panajachel	8	Panajachel	9	Septiembre	2023-06-09T00:00:00	2024-11-08T02:00:00	6	Velocidad del viento	3.2
58826	7	Sololá	710	Panajachel	8	Panajachel	9	Septiembre	2023-06-09T00:00:00	2024-11-08T02:00:00	7	Dirección del viento	3.22
58827	7	Sololá	710	Panajachel	8	Panajachel	9	Septiembre	2023-06-09T00:00:00	2024-11-08T02:00:00	1	Precipitación	0
58828	7	Sololá	710	Panajachel	8	Panajachel	9	Septiembre	2023-06-09T00:00:00	2024-11-08T02:00:00	8	Radiación solar	0
58829	7	Sololá	710	Panajachel	8	Panajachel	9	Septiembre	2023-06-09T00:00:00	2024-11-08T03:00:00	2	Temperatura media	17.3
58830	7	Sololá	710	Panajachel	8	Panajachel	9	Septiembre	2023-06-09T00:00:00	2024-11-08T03:00:00	4	Temperatura máxima	17.7
58831	7	Sololá	710	Panajachel	8	Panajachel	9	Septiembre	2023-06-09T00:00:00	2024-11-08T03:00:00	3	Temperatura mínima	17.1
58832	7	Sololá	710	Panajachel	8	Panajachel	9	Septiembre	2023-06-09T00:00:00	2024-11-08T03:00:00	5	Humedad	88
58833	7	Sololá	710	Panajachel	8	Panajachel	9	Septiembre	2023-06-09T00:00:00	2024-11-08T03:00:00	6	Velocidad del viento	4.8
58834	7	Sololá	710	Panajachel	8	Panajachel	9	Septiembre	2023-06-09T00:00:00	2024-11-08T03:00:00	7	Dirección del viento	4.83
58835	7	Sololá	710	Panajachel	8	Panajachel	9	Septiembre	2023-06-09T00:00:00	2024-11-08T03:00:00	1	Precipitación	0
58836	7	Sololá	710	Panajachel	8	Panajachel	9	Septiembre	2023-06-09T00:00:00	2024-11-08T03:00:00	8	Radiación solar	0
58837	7	Sololá	710	Panajachel	8	Panajachel	9	Septiembre	2023-06-09T00:00:00	2024-11-08T04:00:00	2	Temperatura media	17.3
58838	7	Sololá	710	Panajachel	8	Panajachel	9	Septiembre	2023-06-09T00:00:00	2024-11-08T04:00:00	4	Temperatura máxima	17.6
58839	7	Sololá	710	Panajachel	8	Panajachel	9	Septiembre	2023-06-09T00:00:00	2024-11-08T04:00:00	3	Temperatura mínima	17.2
58840	7	Sololá	710	Panajachel	8	Panajachel	9	Septiembre	2023-06-09T00:00:00	2024-11-08T04:00:00	5	Humedad	87
58841	7	Sololá	710	Panajachel	8	Panajachel	9	Septiembre	2023-06-09T00:00:00	2024-11-08T04:00:00	6	Velocidad del viento	4.8
58842	7	Sololá	710	Panajachel	8	Panajachel	9	Septiembre	2023-06-09T00:00:00	2024-11-08T04:00:00	7	Dirección del viento	4.83
58843	7	Sololá	710	Panajachel	8	Panajachel	9	Septiembre	2023-06-09T00:00:00	2024-11-08T04:00:00	1	Precipitación	0
58844	7	Sololá	710	Panajachel	8	Panajachel	9	Septiembre	2023-06-09T00:00:00	2024-11-08T04:00:00	8	Radiación solar	0
58845	7	Sololá	710	Panajachel	8	Panajachel	9	Septiembre	2023-06-09T00:00:00	2024-11-08T05:00:00	2	Temperatura media	17.1
58846	7	Sololá	710	Panajachel	8	Panajachel	9	Septiembre	2023-06-09T00:00:00	2024-11-08T05:00:00	4	Temperatura máxima	17.9
58847	7	Sololá	710	Panajachel	8	Panajachel	9	Septiembre	2023-06-09T00:00:00	2024-11-08T05:00:00	3	Temperatura mínima	17.1
58848	7	Sololá	710	Panajachel	8	Panajachel	9	Septiembre	2023-06-09T00:00:00	2024-11-08T05:00:00	5	Humedad	89
58849	7	Sololá	710	Panajachel	8	Panajachel	9	Septiembre	2023-06-09T00:00:00	2024-11-08T05:00:00	6	Velocidad del viento	3.2
58850	7	Sololá	710	Panajachel	8	Panajachel	9	Septiembre	2023-06-09T00:00:00	2024-11-08T05:00:00	7	Dirección del viento	3.22
58851	7	Sololá	710	Panajachel	8	Panajachel	9	Septiembre	2023-06-09T00:00:00	2024-11-08T05:00:00	1	Precipitación	0
58852	7	Sololá	710	Panajachel	8	Panajachel	9	Septiembre	2023-06-09T00:00:00	2024-11-08T05:00:00	8	Radiación solar	0
58853	7	Sololá	710	Panajachel	8	Panajachel	9	Septiembre	2023-06-09T00:00:00	2024-11-08T06:00:00	2	Temperatura media	16.9
58854	7	Sololá	710	Panajachel	8	Panajachel	9	Septiembre	2023-06-09T00:00:00	2024-11-08T06:00:00	4	Temperatura máxima	17.2
58855	7	Sololá	710	Panajachel	8	Panajachel	9	Septiembre	2023-06-09T00:00:00	2024-11-08T06:00:00	3	Temperatura mínima	16.9
58856	7	Sololá	710	Panajachel	8	Panajachel	9	Septiembre	2023-06-09T00:00:00	2024-11-08T06:00:00	5	Humedad	90
58857	7	Sololá	710	Panajachel	8	Panajachel	9	Septiembre	2023-06-09T00:00:00	2024-11-08T06:00:00	6	Velocidad del viento	3.2
58858	7	Sololá	710	Panajachel	8	Panajachel	9	Septiembre	2023-06-09T00:00:00	2024-11-08T06:00:00	7	Dirección del viento	3.22
58859	7	Sololá	710	Panajachel	8	Panajachel	9	Septiembre	2023-06-09T00:00:00	2024-11-08T06:00:00	1	Precipitación	0
58860	7	Sololá	710	Panajachel	8	Panajachel	9	Septiembre	2023-06-09T00:00:00	2024-11-08T06:00:00	8	Radiación solar	0
58861	7	Sololá	710	Panajachel	8	Panajachel	9	Septiembre	2023-06-09T00:00:00	2024-11-08T07:00:00	2	Temperatura media	17.7
58862	7	Sololá	710	Panajachel	8	Panajachel	9	Septiembre	2023-06-09T00:00:00	2024-11-08T07:00:00	4	Temperatura máxima	17.7
58863	7	Sololá	710	Panajachel	8	Panajachel	9	Septiembre	2023-06-09T00:00:00	2024-11-08T07:00:00	3	Temperatura mínima	16.9
58864	7	Sololá	710	Panajachel	8	Panajachel	9	Septiembre	2023-06-09T00:00:00	2024-11-08T07:00:00	5	Humedad	88
58865	7	Sololá	710	Panajachel	8	Panajachel	9	Septiembre	2023-06-09T00:00:00	2024-11-08T07:00:00	6	Velocidad del viento	3.2
58866	7	Sololá	710	Panajachel	8	Panajachel	9	Septiembre	2023-06-09T00:00:00	2024-11-08T07:00:00	7	Dirección del viento	3.22
58867	7	Sololá	710	Panajachel	8	Panajachel	9	Septiembre	2023-06-09T00:00:00	2024-11-08T07:00:00	1	Precipitación	0
58868	7	Sololá	710	Panajachel	8	Panajachel	9	Septiembre	2023-06-09T00:00:00	2024-11-08T07:00:00	8	Radiación solar	46
58869	7	Sololá	710	Panajachel	8	Panajachel	9	Septiembre	2023-06-09T00:00:00	2024-11-08T08:00:00	2	Temperatura media	19.8
58870	7	Sololá	710	Panajachel	8	Panajachel	9	Septiembre	2023-06-09T00:00:00	2024-11-08T08:00:00	4	Temperatura máxima	19.9
58871	7	Sololá	710	Panajachel	8	Panajachel	9	Septiembre	2023-06-09T00:00:00	2024-11-08T08:00:00	3	Temperatura mínima	17.7
58872	7	Sololá	710	Panajachel	8	Panajachel	9	Septiembre	2023-06-09T00:00:00	2024-11-08T08:00:00	5	Humedad	82
58873	7	Sololá	710	Panajachel	8	Panajachel	9	Septiembre	2023-06-09T00:00:00	2024-11-08T08:00:00	6	Velocidad del viento	1.6
58874	7	Sololá	710	Panajachel	8	Panajachel	9	Septiembre	2023-06-09T00:00:00	2024-11-08T08:00:00	7	Dirección del viento	1.61
58875	7	Sololá	710	Panajachel	8	Panajachel	9	Septiembre	2023-06-09T00:00:00	2024-11-08T08:00:00	1	Precipitación	0
58876	7	Sololá	710	Panajachel	8	Panajachel	9	Septiembre	2023-06-09T00:00:00	2024-11-08T08:00:00	8	Radiación solar	179
58877	7	Sololá	710	Panajachel	8	Panajachel	9	Septiembre	2023-06-09T00:00:00	2024-11-08T09:00:00	2	Temperatura media	21.6
58878	7	Sololá	710	Panajachel	8	Panajachel	9	Septiembre	2023-06-09T00:00:00	2024-11-08T09:00:00	4	Temperatura máxima	21.6
58879	7	Sololá	710	Panajachel	8	Panajachel	9	Septiembre	2023-06-09T00:00:00	2024-11-08T09:00:00	3	Temperatura mínima	19.8
58880	7	Sololá	710	Panajachel	8	Panajachel	9	Septiembre	2023-06-09T00:00:00	2024-11-08T09:00:00	5	Humedad	80
58881	7	Sololá	710	Panajachel	8	Panajachel	9	Septiembre	2023-06-09T00:00:00	2024-11-08T09:00:00	6	Velocidad del viento	1.6
58882	7	Sololá	710	Panajachel	8	Panajachel	9	Septiembre	2023-06-09T00:00:00	2024-11-08T09:00:00	7	Dirección del viento	1.61
58883	7	Sololá	710	Panajachel	8	Panajachel	9	Septiembre	2023-06-09T00:00:00	2024-11-08T09:00:00	1	Precipitación	0
58884	7	Sololá	710	Panajachel	8	Panajachel	9	Septiembre	2023-06-09T00:00:00	2024-11-08T09:00:00	8	Radiación solar	277
58885	7	Sololá	710	Panajachel	8	Panajachel	9	Septiembre	2023-06-09T00:00:00	2024-11-08T10:00:00	2	Temperatura media	22.1
58886	7	Sololá	710	Panajachel	8	Panajachel	9	Septiembre	2023-06-09T00:00:00	2024-11-08T10:00:00	4	Temperatura máxima	22.2
58887	7	Sololá	710	Panajachel	8	Panajachel	9	Septiembre	2023-06-09T00:00:00	2024-11-08T10:00:00	3	Temperatura mínima	21.6
58888	7	Sololá	710	Panajachel	8	Panajachel	9	Septiembre	2023-06-09T00:00:00	2024-11-08T10:00:00	5	Humedad	76
58889	7	Sololá	710	Panajachel	8	Panajachel	9	Septiembre	2023-06-09T00:00:00	2024-11-08T10:00:00	6	Velocidad del viento	6.4
58890	7	Sololá	710	Panajachel	8	Panajachel	9	Septiembre	2023-06-09T00:00:00	2024-11-08T10:00:00	7	Dirección del viento	6.44
58891	7	Sololá	710	Panajachel	8	Panajachel	9	Septiembre	2023-06-09T00:00:00	2024-11-08T10:00:00	1	Precipitación	0
58892	7	Sololá	710	Panajachel	8	Panajachel	9	Septiembre	2023-06-09T00:00:00	2024-11-08T10:00:00	8	Radiación solar	651
58893	7	Sololá	710	Panajachel	8	Panajachel	9	Septiembre	2023-06-09T00:00:00	2024-11-08T11:00:00	2	Temperatura media	23.5
58894	7	Sololá	710	Panajachel	8	Panajachel	9	Septiembre	2023-06-09T00:00:00	2024-11-08T11:00:00	4	Temperatura máxima	23.5
58895	7	Sololá	710	Panajachel	8	Panajachel	9	Septiembre	2023-06-09T00:00:00	2024-11-08T11:00:00	3	Temperatura mínima	21.9
58896	7	Sololá	710	Panajachel	8	Panajachel	9	Septiembre	2023-06-09T00:00:00	2024-11-08T11:00:00	5	Humedad	71
58897	7	Sololá	710	Panajachel	8	Panajachel	9	Septiembre	2023-06-09T00:00:00	2024-11-08T11:00:00	6	Velocidad del viento	1.6
58898	7	Sololá	710	Panajachel	8	Panajachel	9	Septiembre	2023-06-09T00:00:00	2024-11-08T11:00:00	7	Dirección del viento	1.61
58899	7	Sololá	710	Panajachel	8	Panajachel	9	Septiembre	2023-06-09T00:00:00	2024-11-08T11:00:00	1	Precipitación	0
58900	7	Sololá	710	Panajachel	8	Panajachel	9	Septiembre	2023-06-09T00:00:00	2024-11-08T11:00:00	8	Radiación solar	594
58901	7	Sololá	710	Panajachel	8	Panajachel	9	Septiembre	2023-06-09T00:00:00	2024-11-08T12:00:00	2	Temperatura media	23.4
58902	7	Sololá	710	Panajachel	8	Panajachel	9	Septiembre	2023-06-09T00:00:00	2024-11-08T12:00:00	4	Temperatura máxima	24.1
58903	7	Sololá	710	Panajachel	8	Panajachel	9	Septiembre	2023-06-09T00:00:00	2024-11-08T12:00:00	3	Temperatura mínima	23.2
58904	7	Sololá	710	Panajachel	8	Panajachel	9	Septiembre	2023-06-09T00:00:00	2024-11-08T12:00:00	5	Humedad	70
58905	7	Sololá	710	Panajachel	8	Panajachel	9	Septiembre	2023-06-09T00:00:00	2024-11-08T12:00:00	6	Velocidad del viento	3.2
58906	7	Sololá	710	Panajachel	8	Panajachel	9	Septiembre	2023-06-09T00:00:00	2024-11-08T12:00:00	7	Dirección del viento	3.22
58907	7	Sololá	710	Panajachel	8	Panajachel	9	Septiembre	2023-06-09T00:00:00	2024-11-08T12:00:00	1	Precipitación	0
58908	7	Sololá	710	Panajachel	8	Panajachel	9	Septiembre	2023-06-09T00:00:00	2024-11-08T12:00:00	8	Radiación solar	864
58909	7	Sololá	710	Panajachel	8	Panajachel	9	Septiembre	2023-06-09T00:00:00	2024-11-08T13:00:00	2	Temperatura media	25
58910	7	Sololá	710	Panajachel	8	Panajachel	9	Septiembre	2023-06-09T00:00:00	2024-11-08T13:00:00	4	Temperatura máxima	25
58911	7	Sololá	710	Panajachel	8	Panajachel	9	Septiembre	2023-06-09T00:00:00	2024-11-08T13:00:00	3	Temperatura mínima	23.5
58912	7	Sololá	710	Panajachel	8	Panajachel	9	Septiembre	2023-06-09T00:00:00	2024-11-08T13:00:00	5	Humedad	67
58913	7	Sololá	710	Panajachel	8	Panajachel	9	Septiembre	2023-06-09T00:00:00	2024-11-08T13:00:00	6	Velocidad del viento	3.2
58914	7	Sololá	710	Panajachel	8	Panajachel	9	Septiembre	2023-06-09T00:00:00	2024-11-08T13:00:00	7	Dirección del viento	3.22
58915	7	Sololá	710	Panajachel	8	Panajachel	9	Septiembre	2023-06-09T00:00:00	2024-11-08T13:00:00	1	Precipitación	0
58916	7	Sololá	710	Panajachel	8	Panajachel	9	Septiembre	2023-06-09T00:00:00	2024-11-08T13:00:00	8	Radiación solar	729
58917	7	Sololá	710	Panajachel	8	Panajachel	9	Septiembre	2023-06-09T00:00:00	2024-11-08T14:00:00	2	Temperatura media	25.6
58918	7	Sololá	710	Panajachel	8	Panajachel	9	Septiembre	2023-06-09T00:00:00	2024-11-08T14:00:00	4	Temperatura máxima	25.6
58919	7	Sololá	710	Panajachel	8	Panajachel	9	Septiembre	2023-06-09T00:00:00	2024-11-08T14:00:00	3	Temperatura mínima	24.3
58920	7	Sololá	710	Panajachel	8	Panajachel	9	Septiembre	2023-06-09T00:00:00	2024-11-08T14:00:00	5	Humedad	67
58921	7	Sololá	710	Panajachel	8	Panajachel	9	Septiembre	2023-06-09T00:00:00	2024-11-08T14:00:00	6	Velocidad del viento	3.2
58922	7	Sololá	710	Panajachel	8	Panajachel	9	Septiembre	2023-06-09T00:00:00	2024-11-08T14:00:00	7	Dirección del viento	3.22
58923	7	Sololá	710	Panajachel	8	Panajachel	9	Septiembre	2023-06-09T00:00:00	2024-11-08T14:00:00	1	Precipitación	0
58924	7	Sololá	710	Panajachel	8	Panajachel	9	Septiembre	2023-06-09T00:00:00	2024-11-08T14:00:00	8	Radiación solar	897
58925	7	Sololá	710	Panajachel	8	Panajachel	9	Septiembre	2023-06-09T00:00:00	2024-11-08T15:00:00	2	Temperatura media	25.4
58926	7	Sololá	710	Panajachel	8	Panajachel	9	Septiembre	2023-06-09T00:00:00	2024-11-08T15:00:00	4	Temperatura máxima	25.6
58927	7	Sololá	710	Panajachel	8	Panajachel	9	Septiembre	2023-06-09T00:00:00	2024-11-08T15:00:00	3	Temperatura mínima	24.4
58928	7	Sololá	710	Panajachel	8	Panajachel	9	Septiembre	2023-06-09T00:00:00	2024-11-08T15:00:00	5	Humedad	72
58929	7	Sololá	710	Panajachel	8	Panajachel	9	Septiembre	2023-06-09T00:00:00	2024-11-08T15:00:00	6	Velocidad del viento	3.2
58930	7	Sololá	710	Panajachel	8	Panajachel	9	Septiembre	2023-06-09T00:00:00	2024-11-08T15:00:00	7	Dirección del viento	3.22
58931	7	Sololá	710	Panajachel	8	Panajachel	9	Septiembre	2023-06-09T00:00:00	2024-11-08T15:00:00	1	Precipitación	0
58932	7	Sololá	710	Panajachel	8	Panajachel	9	Septiembre	2023-06-09T00:00:00	2024-11-08T15:00:00	8	Radiación solar	559
58933	7	Sololá	710	Panajachel	8	Panajachel	9	Septiembre	2023-06-09T00:00:00	2024-11-08T16:00:00	2	Temperatura media	24.2
58934	7	Sololá	710	Panajachel	8	Panajachel	9	Septiembre	2023-06-09T00:00:00	2024-11-08T16:00:00	4	Temperatura máxima	25.6
58935	7	Sololá	710	Panajachel	8	Panajachel	9	Septiembre	2023-06-09T00:00:00	2024-11-08T16:00:00	3	Temperatura mínima	23.9
58936	7	Sololá	710	Panajachel	8	Panajachel	9	Septiembre	2023-06-09T00:00:00	2024-11-08T16:00:00	5	Humedad	81
58937	7	Sololá	710	Panajachel	8	Panajachel	9	Septiembre	2023-06-09T00:00:00	2024-11-08T16:00:00	6	Velocidad del viento	3.2
58938	7	Sololá	710	Panajachel	8	Panajachel	9	Septiembre	2023-06-09T00:00:00	2024-11-08T16:00:00	7	Dirección del viento	3.22
58939	7	Sololá	710	Panajachel	8	Panajachel	9	Septiembre	2023-06-09T00:00:00	2024-11-08T16:00:00	1	Precipitación	0
58940	7	Sololá	710	Panajachel	8	Panajachel	9	Septiembre	2023-06-09T00:00:00	2024-11-08T16:00:00	8	Radiación solar	326
58941	7	Sololá	710	Panajachel	8	Panajachel	9	Septiembre	2023-06-09T00:00:00	2024-11-08T17:00:00	2	Temperatura media	23.8
58942	7	Sololá	710	Panajachel	8	Panajachel	9	Septiembre	2023-06-09T00:00:00	2024-11-08T17:00:00	4	Temperatura máxima	24.4
58943	7	Sololá	710	Panajachel	8	Panajachel	9	Septiembre	2023-06-09T00:00:00	2024-11-08T17:00:00	3	Temperatura mínima	23.6
58944	7	Sololá	710	Panajachel	8	Panajachel	9	Septiembre	2023-06-09T00:00:00	2024-11-08T17:00:00	5	Humedad	80
58945	7	Sololá	710	Panajachel	8	Panajachel	9	Septiembre	2023-06-09T00:00:00	2024-11-08T17:00:00	6	Velocidad del viento	3.2
58946	7	Sololá	710	Panajachel	8	Panajachel	9	Septiembre	2023-06-09T00:00:00	2024-11-08T17:00:00	7	Dirección del viento	3.22
58947	7	Sololá	710	Panajachel	8	Panajachel	9	Septiembre	2023-06-09T00:00:00	2024-11-08T17:00:00	1	Precipitación	0
58948	7	Sololá	710	Panajachel	8	Panajachel	9	Septiembre	2023-06-09T00:00:00	2024-11-08T17:00:00	8	Radiación solar	146
58949	7	Sololá	710	Panajachel	8	Panajachel	9	Septiembre	2023-06-09T00:00:00	2024-11-08T18:00:00	2	Temperatura media	22.7
58950	7	Sololá	710	Panajachel	8	Panajachel	9	Septiembre	2023-06-09T00:00:00	2024-11-08T18:00:00	4	Temperatura máxima	23.9
58951	7	Sololá	710	Panajachel	8	Panajachel	9	Septiembre	2023-06-09T00:00:00	2024-11-08T18:00:00	3	Temperatura mínima	22.7
58952	7	Sololá	710	Panajachel	8	Panajachel	9	Septiembre	2023-06-09T00:00:00	2024-11-08T18:00:00	5	Humedad	81
58953	7	Sololá	710	Panajachel	8	Panajachel	9	Septiembre	2023-06-09T00:00:00	2024-11-08T18:00:00	6	Velocidad del viento	3.2
58954	7	Sololá	710	Panajachel	8	Panajachel	9	Septiembre	2023-06-09T00:00:00	2024-11-08T18:00:00	7	Dirección del viento	3.22
58955	7	Sololá	710	Panajachel	8	Panajachel	9	Septiembre	2023-06-09T00:00:00	2024-11-08T18:00:00	1	Precipitación	0
58956	7	Sololá	710	Panajachel	8	Panajachel	9	Septiembre	2023-06-09T00:00:00	2024-11-08T18:00:00	8	Radiación solar	135
58957	7	Sololá	710	Panajachel	8	Panajachel	9	Septiembre	2023-06-09T00:00:00	2024-11-08T19:00:00	2	Temperatura media	21.1
58958	7	Sololá	710	Panajachel	8	Panajachel	9	Septiembre	2023-06-09T00:00:00	2024-11-08T19:00:00	4	Temperatura máxima	22.7
58959	7	Sololá	710	Panajachel	8	Panajachel	9	Septiembre	2023-06-09T00:00:00	2024-11-08T19:00:00	3	Temperatura mínima	21.1
58960	7	Sololá	710	Panajachel	8	Panajachel	9	Septiembre	2023-06-09T00:00:00	2024-11-08T19:00:00	5	Humedad	89
58961	7	Sololá	710	Panajachel	8	Panajachel	9	Septiembre	2023-06-09T00:00:00	2024-11-08T19:00:00	6	Velocidad del viento	0
58962	7	Sololá	710	Panajachel	8	Panajachel	9	Septiembre	2023-06-09T00:00:00	2024-11-08T19:00:00	7	Dirección del viento	0
58963	7	Sololá	710	Panajachel	8	Panajachel	9	Septiembre	2023-06-09T00:00:00	2024-11-08T19:00:00	1	Precipitación	0
58964	7	Sololá	710	Panajachel	8	Panajachel	9	Septiembre	2023-06-09T00:00:00	2024-11-08T19:00:00	8	Radiación solar	0
58965	7	Sololá	710	Panajachel	8	Panajachel	9	Septiembre	2023-06-09T00:00:00	2024-11-08T20:00:00	2	Temperatura media	19.9
58966	7	Sololá	710	Panajachel	8	Panajachel	9	Septiembre	2023-06-09T00:00:00	2024-11-08T20:00:00	4	Temperatura máxima	21.1
58967	7	Sololá	710	Panajachel	8	Panajachel	9	Septiembre	2023-06-09T00:00:00	2024-11-08T20:00:00	3	Temperatura mínima	19.9
58968	7	Sololá	710	Panajachel	8	Panajachel	9	Septiembre	2023-06-09T00:00:00	2024-11-08T20:00:00	5	Humedad	87
58969	7	Sololá	710	Panajachel	8	Panajachel	9	Septiembre	2023-06-09T00:00:00	2024-11-08T20:00:00	6	Velocidad del viento	3.2
58970	7	Sololá	710	Panajachel	8	Panajachel	9	Septiembre	2023-06-09T00:00:00	2024-11-08T20:00:00	7	Dirección del viento	3.22
58971	7	Sololá	710	Panajachel	8	Panajachel	9	Septiembre	2023-06-09T00:00:00	2024-11-08T20:00:00	1	Precipitación	0
58972	7	Sololá	710	Panajachel	8	Panajachel	9	Septiembre	2023-06-09T00:00:00	2024-11-08T20:00:00	8	Radiación solar	0
58973	7	Sololá	710	Panajachel	8	Panajachel	9	Septiembre	2023-06-09T00:00:00	2024-11-08T21:00:00	2	Temperatura media	19.6
58974	7	Sololá	710	Panajachel	8	Panajachel	9	Septiembre	2023-06-09T00:00:00	2024-11-08T21:00:00	4	Temperatura máxima	19.9
58975	7	Sololá	710	Panajachel	8	Panajachel	9	Septiembre	2023-06-09T00:00:00	2024-11-08T21:00:00	3	Temperatura mínima	19.3
58976	7	Sololá	710	Panajachel	8	Panajachel	9	Septiembre	2023-06-09T00:00:00	2024-11-08T21:00:00	5	Humedad	84
58977	7	Sololá	710	Panajachel	8	Panajachel	9	Septiembre	2023-06-09T00:00:00	2024-11-08T21:00:00	6	Velocidad del viento	3.2
58978	7	Sololá	710	Panajachel	8	Panajachel	9	Septiembre	2023-06-09T00:00:00	2024-11-08T21:00:00	7	Dirección del viento	3.22
58979	7	Sololá	710	Panajachel	8	Panajachel	9	Septiembre	2023-06-09T00:00:00	2024-11-08T21:00:00	1	Precipitación	0
58980	7	Sololá	710	Panajachel	8	Panajachel	9	Septiembre	2023-06-09T00:00:00	2024-11-08T21:00:00	8	Radiación solar	0
58981	7	Sololá	710	Panajachel	8	Panajachel	9	Septiembre	2023-06-09T00:00:00	2024-11-08T22:00:00	2	Temperatura media	19.2
58982	7	Sololá	710	Panajachel	8	Panajachel	9	Septiembre	2023-06-09T00:00:00	2024-11-08T22:00:00	4	Temperatura máxima	19.6
58983	7	Sololá	710	Panajachel	8	Panajachel	9	Septiembre	2023-06-09T00:00:00	2024-11-08T22:00:00	3	Temperatura mínima	19
58984	7	Sololá	710	Panajachel	8	Panajachel	9	Septiembre	2023-06-09T00:00:00	2024-11-08T22:00:00	5	Humedad	83
58985	7	Sololá	710	Panajachel	8	Panajachel	9	Septiembre	2023-06-09T00:00:00	2024-11-08T22:00:00	6	Velocidad del viento	3.2
58986	7	Sololá	710	Panajachel	8	Panajachel	9	Septiembre	2023-06-09T00:00:00	2024-11-08T22:00:00	7	Dirección del viento	3.22
58987	7	Sololá	710	Panajachel	8	Panajachel	9	Septiembre	2023-06-09T00:00:00	2024-11-08T22:00:00	1	Precipitación	0
58988	7	Sololá	710	Panajachel	8	Panajachel	9	Septiembre	2023-06-09T00:00:00	2024-11-08T22:00:00	8	Radiación solar	0
58989	7	Sololá	710	Panajachel	8	Panajachel	9	Septiembre	2023-06-09T00:00:00	2024-11-08T23:00:00	2	Temperatura media	19.3
58990	7	Sololá	710	Panajachel	8	Panajachel	9	Septiembre	2023-06-09T00:00:00	2024-11-08T23:00:00	4	Temperatura máxima	19.6
58991	7	Sololá	710	Panajachel	8	Panajachel	9	Septiembre	2023-06-09T00:00:00	2024-11-08T23:00:00	3	Temperatura mínima	19.2
58992	7	Sololá	710	Panajachel	8	Panajachel	9	Septiembre	2023-06-09T00:00:00	2024-11-08T23:00:00	5	Humedad	83
58993	7	Sololá	710	Panajachel	8	Panajachel	9	Septiembre	2023-06-09T00:00:00	2024-11-08T23:00:00	6	Velocidad del viento	3.2
58994	7	Sololá	710	Panajachel	8	Panajachel	9	Septiembre	2023-06-09T00:00:00	2024-11-08T23:00:00	7	Dirección del viento	3.22
58995	7	Sololá	710	Panajachel	8	Panajachel	9	Septiembre	2023-06-09T00:00:00	2024-11-08T23:00:00	1	Precipitación	0
58996	7	Sololá	710	Panajachel	8	Panajachel	9	Septiembre	2023-06-09T00:00:00	2024-11-08T23:00:00	8	Radiación solar	0
58997	7	Sololá	710	Panajachel	8	Panajachel	9	Septiembre	2023-07-09T00:00:00	2024-11-08T00:00:00	2	Temperatura media	18.7
58998	7	Sololá	710	Panajachel	8	Panajachel	9	Septiembre	2023-07-09T00:00:00	2024-11-08T00:00:00	4	Temperatura máxima	19.2
58999	7	Sololá	710	Panajachel	8	Panajachel	9	Septiembre	2023-07-09T00:00:00	2024-11-08T00:00:00	3	Temperatura mínima	18.7
59000	7	Sololá	710	Panajachel	8	Panajachel	9	Septiembre	2023-07-09T00:00:00	2024-11-08T00:00:00	5	Humedad	85
59001	7	Sololá	710	Panajachel	8	Panajachel	9	Septiembre	2023-07-09T00:00:00	2024-11-08T00:00:00	6	Velocidad del viento	3.2
59002	7	Sololá	710	Panajachel	8	Panajachel	9	Septiembre	2023-07-09T00:00:00	2024-11-08T00:00:00	7	Dirección del viento	3.22
59003	7	Sololá	710	Panajachel	8	Panajachel	9	Septiembre	2023-07-09T00:00:00	2024-11-08T00:00:00	1	Precipitación	0
59004	7	Sololá	710	Panajachel	8	Panajachel	9	Septiembre	2023-07-09T00:00:00	2024-11-08T00:00:00	8	Radiación solar	0
59005	7	Sololá	710	Panajachel	8	Panajachel	9	Septiembre	2023-07-09T00:00:00	2024-11-08T01:00:00	2	Temperatura media	18.3
59006	7	Sololá	710	Panajachel	8	Panajachel	9	Septiembre	2023-07-09T00:00:00	2024-11-08T01:00:00	4	Temperatura máxima	18.9
59007	7	Sololá	710	Panajachel	8	Panajachel	9	Septiembre	2023-07-09T00:00:00	2024-11-08T01:00:00	3	Temperatura mínima	18.3
59008	7	Sololá	710	Panajachel	8	Panajachel	9	Septiembre	2023-07-09T00:00:00	2024-11-08T01:00:00	5	Humedad	86
59009	7	Sololá	710	Panajachel	8	Panajachel	9	Septiembre	2023-07-09T00:00:00	2024-11-08T01:00:00	6	Velocidad del viento	3.2
59010	7	Sololá	710	Panajachel	8	Panajachel	9	Septiembre	2023-07-09T00:00:00	2024-11-08T01:00:00	7	Dirección del viento	3.22
59011	7	Sololá	710	Panajachel	8	Panajachel	9	Septiembre	2023-07-09T00:00:00	2024-11-08T01:00:00	1	Precipitación	0
59012	7	Sololá	710	Panajachel	8	Panajachel	9	Septiembre	2023-07-09T00:00:00	2024-11-08T01:00:00	8	Radiación solar	0
59013	7	Sololá	710	Panajachel	8	Panajachel	9	Septiembre	2023-07-09T00:00:00	2024-11-08T02:00:00	2	Temperatura media	18.3
59014	7	Sololá	710	Panajachel	8	Panajachel	9	Septiembre	2023-07-09T00:00:00	2024-11-08T02:00:00	4	Temperatura máxima	18.6
59015	7	Sololá	710	Panajachel	8	Panajachel	9	Septiembre	2023-07-09T00:00:00	2024-11-08T02:00:00	3	Temperatura mínima	18.2
59016	7	Sololá	710	Panajachel	8	Panajachel	9	Septiembre	2023-07-09T00:00:00	2024-11-08T02:00:00	5	Humedad	86
59017	7	Sololá	710	Panajachel	8	Panajachel	9	Septiembre	2023-07-09T00:00:00	2024-11-08T02:00:00	6	Velocidad del viento	3.2
59018	7	Sololá	710	Panajachel	8	Panajachel	9	Septiembre	2023-07-09T00:00:00	2024-11-08T02:00:00	7	Dirección del viento	3.22
59019	7	Sololá	710	Panajachel	8	Panajachel	9	Septiembre	2023-07-09T00:00:00	2024-11-08T02:00:00	1	Precipitación	0
59020	7	Sololá	710	Panajachel	8	Panajachel	9	Septiembre	2023-07-09T00:00:00	2024-11-08T02:00:00	8	Radiación solar	0
59021	7	Sololá	710	Panajachel	8	Panajachel	9	Septiembre	2023-07-09T00:00:00	2024-11-08T03:00:00	2	Temperatura media	17.9
59022	7	Sololá	710	Panajachel	8	Panajachel	9	Septiembre	2023-07-09T00:00:00	2024-11-08T03:00:00	4	Temperatura máxima	18.6
59023	7	Sololá	710	Panajachel	8	Panajachel	9	Septiembre	2023-07-09T00:00:00	2024-11-08T03:00:00	3	Temperatura mínima	17.8
59024	7	Sololá	710	Panajachel	8	Panajachel	9	Septiembre	2023-07-09T00:00:00	2024-11-08T03:00:00	5	Humedad	88
59025	7	Sololá	710	Panajachel	8	Panajachel	9	Septiembre	2023-07-09T00:00:00	2024-11-08T03:00:00	6	Velocidad del viento	3.2
59026	7	Sololá	710	Panajachel	8	Panajachel	9	Septiembre	2023-07-09T00:00:00	2024-11-08T03:00:00	7	Dirección del viento	3.22
59027	7	Sololá	710	Panajachel	8	Panajachel	9	Septiembre	2023-07-09T00:00:00	2024-11-08T03:00:00	1	Precipitación	0
59028	7	Sololá	710	Panajachel	8	Panajachel	9	Septiembre	2023-07-09T00:00:00	2024-11-08T03:00:00	8	Radiación solar	0
59029	7	Sololá	710	Panajachel	8	Panajachel	9	Septiembre	2023-07-09T00:00:00	2024-11-08T04:00:00	2	Temperatura media	17.4
59030	7	Sololá	710	Panajachel	8	Panajachel	9	Septiembre	2023-07-09T00:00:00	2024-11-08T04:00:00	4	Temperatura máxima	17.9
59031	7	Sololá	710	Panajachel	8	Panajachel	9	Septiembre	2023-07-09T00:00:00	2024-11-08T04:00:00	3	Temperatura mínima	17.2
59032	7	Sololá	710	Panajachel	8	Panajachel	9	Septiembre	2023-07-09T00:00:00	2024-11-08T04:00:00	5	Humedad	89
59033	7	Sololá	710	Panajachel	8	Panajachel	9	Septiembre	2023-07-09T00:00:00	2024-11-08T04:00:00	6	Velocidad del viento	1.6
59034	7	Sololá	710	Panajachel	8	Panajachel	9	Septiembre	2023-07-09T00:00:00	2024-11-08T04:00:00	7	Dirección del viento	1.61
59035	7	Sololá	710	Panajachel	8	Panajachel	9	Septiembre	2023-07-09T00:00:00	2024-11-08T04:00:00	1	Precipitación	0
59036	7	Sololá	710	Panajachel	8	Panajachel	9	Septiembre	2023-07-09T00:00:00	2024-11-08T04:00:00	8	Radiación solar	0
59037	7	Sololá	710	Panajachel	8	Panajachel	9	Septiembre	2023-07-09T00:00:00	2024-11-08T05:00:00	2	Temperatura media	17.9
59038	7	Sololá	710	Panajachel	8	Panajachel	9	Septiembre	2023-07-09T00:00:00	2024-11-08T05:00:00	4	Temperatura máxima	18.1
59039	7	Sololá	710	Panajachel	8	Panajachel	9	Septiembre	2023-07-09T00:00:00	2024-11-08T05:00:00	3	Temperatura mínima	17.3
59040	7	Sololá	710	Panajachel	8	Panajachel	9	Septiembre	2023-07-09T00:00:00	2024-11-08T05:00:00	5	Humedad	87
59041	7	Sololá	710	Panajachel	8	Panajachel	9	Septiembre	2023-07-09T00:00:00	2024-11-08T05:00:00	6	Velocidad del viento	3.2
59042	7	Sololá	710	Panajachel	8	Panajachel	9	Septiembre	2023-07-09T00:00:00	2024-11-08T05:00:00	7	Dirección del viento	3.22
59043	7	Sololá	710	Panajachel	8	Panajachel	9	Septiembre	2023-07-09T00:00:00	2024-11-08T05:00:00	1	Precipitación	0
59044	7	Sololá	710	Panajachel	8	Panajachel	9	Septiembre	2023-07-09T00:00:00	2024-11-08T05:00:00	8	Radiación solar	0
59045	7	Sololá	710	Panajachel	8	Panajachel	9	Septiembre	2023-07-09T00:00:00	2024-11-08T06:00:00	2	Temperatura media	17
59046	7	Sololá	710	Panajachel	8	Panajachel	9	Septiembre	2023-07-09T00:00:00	2024-11-08T06:00:00	4	Temperatura máxima	17.9
59047	7	Sololá	710	Panajachel	8	Panajachel	9	Septiembre	2023-07-09T00:00:00	2024-11-08T06:00:00	3	Temperatura mínima	17
59048	7	Sololá	710	Panajachel	8	Panajachel	9	Septiembre	2023-07-09T00:00:00	2024-11-08T06:00:00	5	Humedad	90
59049	7	Sololá	710	Panajachel	8	Panajachel	9	Septiembre	2023-07-09T00:00:00	2024-11-08T06:00:00	6	Velocidad del viento	1.6
59050	7	Sololá	710	Panajachel	8	Panajachel	9	Septiembre	2023-07-09T00:00:00	2024-11-08T06:00:00	7	Dirección del viento	1.61
59051	7	Sololá	710	Panajachel	8	Panajachel	9	Septiembre	2023-07-09T00:00:00	2024-11-08T06:00:00	1	Precipitación	0
59052	7	Sololá	710	Panajachel	8	Panajachel	9	Septiembre	2023-07-09T00:00:00	2024-11-08T06:00:00	8	Radiación solar	0
59053	7	Sololá	710	Panajachel	8	Panajachel	9	Septiembre	2023-07-09T00:00:00	2024-11-08T07:00:00	2	Temperatura media	18.1
59054	7	Sololá	710	Panajachel	8	Panajachel	9	Septiembre	2023-07-09T00:00:00	2024-11-08T07:00:00	4	Temperatura máxima	18.1
59055	7	Sololá	710	Panajachel	8	Panajachel	9	Septiembre	2023-07-09T00:00:00	2024-11-08T07:00:00	3	Temperatura mínima	16.8
59056	7	Sololá	710	Panajachel	8	Panajachel	9	Septiembre	2023-07-09T00:00:00	2024-11-08T07:00:00	5	Humedad	88
59057	7	Sololá	710	Panajachel	8	Panajachel	9	Septiembre	2023-07-09T00:00:00	2024-11-08T07:00:00	6	Velocidad del viento	3.2
59058	7	Sololá	710	Panajachel	8	Panajachel	9	Septiembre	2023-07-09T00:00:00	2024-11-08T07:00:00	7	Dirección del viento	3.22
59059	7	Sololá	710	Panajachel	8	Panajachel	9	Septiembre	2023-07-09T00:00:00	2024-11-08T07:00:00	1	Precipitación	0
59060	7	Sololá	710	Panajachel	8	Panajachel	9	Septiembre	2023-07-09T00:00:00	2024-11-08T07:00:00	8	Radiación solar	52
59061	7	Sololá	710	Panajachel	8	Panajachel	9	Septiembre	2023-07-09T00:00:00	2024-11-08T08:00:00	2	Temperatura media	21.9
59062	7	Sololá	710	Panajachel	8	Panajachel	9	Septiembre	2023-07-09T00:00:00	2024-11-08T08:00:00	4	Temperatura máxima	21.9
59063	7	Sololá	710	Panajachel	8	Panajachel	9	Septiembre	2023-07-09T00:00:00	2024-11-08T08:00:00	3	Temperatura mínima	18.1
59064	7	Sololá	710	Panajachel	8	Panajachel	9	Septiembre	2023-07-09T00:00:00	2024-11-08T08:00:00	5	Humedad	76
59065	7	Sololá	710	Panajachel	8	Panajachel	9	Septiembre	2023-07-09T00:00:00	2024-11-08T08:00:00	6	Velocidad del viento	0
59066	7	Sololá	710	Panajachel	8	Panajachel	9	Septiembre	2023-07-09T00:00:00	2024-11-08T08:00:00	7	Dirección del viento	0
59067	7	Sololá	710	Panajachel	8	Panajachel	9	Septiembre	2023-07-09T00:00:00	2024-11-08T08:00:00	1	Precipitación	0
59068	7	Sololá	710	Panajachel	8	Panajachel	9	Septiembre	2023-07-09T00:00:00	2024-11-08T08:00:00	8	Radiación solar	267
59069	7	Sololá	710	Panajachel	8	Panajachel	9	Septiembre	2023-07-09T00:00:00	2024-11-08T09:00:00	2	Temperatura media	22.4
59070	7	Sololá	710	Panajachel	8	Panajachel	9	Septiembre	2023-07-09T00:00:00	2024-11-08T09:00:00	4	Temperatura máxima	22.9
59071	7	Sololá	710	Panajachel	8	Panajachel	9	Septiembre	2023-07-09T00:00:00	2024-11-08T09:00:00	3	Temperatura mínima	21.9
59072	7	Sololá	710	Panajachel	8	Panajachel	9	Septiembre	2023-07-09T00:00:00	2024-11-08T09:00:00	5	Humedad	80
59073	7	Sololá	710	Panajachel	8	Panajachel	9	Septiembre	2023-07-09T00:00:00	2024-11-08T09:00:00	6	Velocidad del viento	1.6
59074	7	Sololá	710	Panajachel	8	Panajachel	9	Septiembre	2023-07-09T00:00:00	2024-11-08T09:00:00	7	Dirección del viento	1.61
59075	7	Sololá	710	Panajachel	8	Panajachel	9	Septiembre	2023-07-09T00:00:00	2024-11-08T09:00:00	1	Precipitación	0
59076	7	Sololá	710	Panajachel	8	Panajachel	9	Septiembre	2023-07-09T00:00:00	2024-11-08T09:00:00	8	Radiación solar	535
59077	7	Sololá	710	Panajachel	8	Panajachel	9	Septiembre	2023-07-09T00:00:00	2024-11-08T10:00:00	2	Temperatura media	23.3
59078	7	Sololá	710	Panajachel	8	Panajachel	9	Septiembre	2023-07-09T00:00:00	2024-11-08T10:00:00	4	Temperatura máxima	23.4
59079	7	Sololá	710	Panajachel	8	Panajachel	9	Septiembre	2023-07-09T00:00:00	2024-11-08T10:00:00	3	Temperatura mínima	22.4
59080	7	Sololá	710	Panajachel	8	Panajachel	9	Septiembre	2023-07-09T00:00:00	2024-11-08T10:00:00	5	Humedad	76
59081	7	Sololá	710	Panajachel	8	Panajachel	9	Septiembre	2023-07-09T00:00:00	2024-11-08T10:00:00	6	Velocidad del viento	3.2
59082	7	Sololá	710	Panajachel	8	Panajachel	9	Septiembre	2023-07-09T00:00:00	2024-11-08T10:00:00	7	Dirección del viento	3.22
59083	7	Sololá	710	Panajachel	8	Panajachel	9	Septiembre	2023-07-09T00:00:00	2024-11-08T10:00:00	1	Precipitación	0
59084	7	Sololá	710	Panajachel	8	Panajachel	9	Septiembre	2023-07-09T00:00:00	2024-11-08T10:00:00	8	Radiación solar	662
59085	7	Sololá	710	Panajachel	8	Panajachel	9	Septiembre	2023-07-09T00:00:00	2024-11-08T11:00:00	2	Temperatura media	24.7
59086	7	Sololá	710	Panajachel	8	Panajachel	9	Septiembre	2023-07-09T00:00:00	2024-11-08T11:00:00	4	Temperatura máxima	24.8
59087	7	Sololá	710	Panajachel	8	Panajachel	9	Septiembre	2023-07-09T00:00:00	2024-11-08T11:00:00	3	Temperatura mínima	23.3
59088	7	Sololá	710	Panajachel	8	Panajachel	9	Septiembre	2023-07-09T00:00:00	2024-11-08T11:00:00	5	Humedad	65
59089	7	Sololá	710	Panajachel	8	Panajachel	9	Septiembre	2023-07-09T00:00:00	2024-11-08T11:00:00	6	Velocidad del viento	3.2
59090	7	Sololá	710	Panajachel	8	Panajachel	9	Septiembre	2023-07-09T00:00:00	2024-11-08T11:00:00	7	Dirección del viento	3.22
59091	7	Sololá	710	Panajachel	8	Panajachel	9	Septiembre	2023-07-09T00:00:00	2024-11-08T11:00:00	1	Precipitación	0
59092	7	Sololá	710	Panajachel	8	Panajachel	9	Septiembre	2023-07-09T00:00:00	2024-11-08T11:00:00	8	Radiación solar	801
59093	7	Sololá	710	Panajachel	8	Panajachel	9	Septiembre	2023-07-09T00:00:00	2024-11-08T12:00:00	2	Temperatura media	24.6
59094	7	Sololá	710	Panajachel	8	Panajachel	9	Septiembre	2023-07-09T00:00:00	2024-11-08T12:00:00	4	Temperatura máxima	25.3
59095	7	Sololá	710	Panajachel	8	Panajachel	9	Septiembre	2023-07-09T00:00:00	2024-11-08T12:00:00	3	Temperatura mínima	24.6
59096	7	Sololá	710	Panajachel	8	Panajachel	9	Septiembre	2023-07-09T00:00:00	2024-11-08T12:00:00	5	Humedad	66
59097	7	Sololá	710	Panajachel	8	Panajachel	9	Septiembre	2023-07-09T00:00:00	2024-11-08T12:00:00	6	Velocidad del viento	3.2
59098	7	Sololá	710	Panajachel	8	Panajachel	9	Septiembre	2023-07-09T00:00:00	2024-11-08T12:00:00	7	Dirección del viento	3.22
59099	7	Sololá	710	Panajachel	8	Panajachel	9	Septiembre	2023-07-09T00:00:00	2024-11-08T12:00:00	1	Precipitación	0
59100	7	Sololá	710	Panajachel	8	Panajachel	9	Septiembre	2023-07-09T00:00:00	2024-11-08T12:00:00	8	Radiación solar	883
59101	7	Sololá	710	Panajachel	8	Panajachel	9	Septiembre	2023-07-09T00:00:00	2024-11-08T13:00:00	2	Temperatura media	26.4
59102	7	Sololá	710	Panajachel	8	Panajachel	9	Septiembre	2023-07-09T00:00:00	2024-11-08T13:00:00	4	Temperatura máxima	26.6
59103	7	Sololá	710	Panajachel	8	Panajachel	9	Septiembre	2023-07-09T00:00:00	2024-11-08T13:00:00	3	Temperatura mínima	24.6
59104	7	Sololá	710	Panajachel	8	Panajachel	9	Septiembre	2023-07-09T00:00:00	2024-11-08T13:00:00	5	Humedad	77
59105	7	Sololá	710	Panajachel	8	Panajachel	9	Septiembre	2023-07-09T00:00:00	2024-11-08T13:00:00	6	Velocidad del viento	3.2
59106	7	Sololá	710	Panajachel	8	Panajachel	9	Septiembre	2023-07-09T00:00:00	2024-11-08T13:00:00	7	Dirección del viento	3.22
59107	7	Sololá	710	Panajachel	8	Panajachel	9	Septiembre	2023-07-09T00:00:00	2024-11-08T13:00:00	1	Precipitación	0
59108	7	Sololá	710	Panajachel	8	Panajachel	9	Septiembre	2023-07-09T00:00:00	2024-11-08T13:00:00	8	Radiación solar	892
59109	7	Sololá	710	Panajachel	8	Panajachel	9	Septiembre	2023-07-09T00:00:00	2024-11-08T14:00:00	2	Temperatura media	23
59110	7	Sololá	710	Panajachel	8	Panajachel	9	Septiembre	2023-07-09T00:00:00	2024-11-08T14:00:00	4	Temperatura máxima	26.4
59111	7	Sololá	710	Panajachel	8	Panajachel	9	Septiembre	2023-07-09T00:00:00	2024-11-08T14:00:00	3	Temperatura mínima	23
59112	7	Sololá	710	Panajachel	8	Panajachel	9	Septiembre	2023-07-09T00:00:00	2024-11-08T14:00:00	5	Humedad	84
59113	7	Sololá	710	Panajachel	8	Panajachel	9	Septiembre	2023-07-09T00:00:00	2024-11-08T14:00:00	6	Velocidad del viento	6.4
59114	7	Sololá	710	Panajachel	8	Panajachel	9	Septiembre	2023-07-09T00:00:00	2024-11-08T14:00:00	7	Dirección del viento	6.44
59115	7	Sololá	710	Panajachel	8	Panajachel	9	Septiembre	2023-07-09T00:00:00	2024-11-08T14:00:00	1	Precipitación	0
59116	7	Sololá	710	Panajachel	8	Panajachel	9	Septiembre	2023-07-09T00:00:00	2024-11-08T14:00:00	8	Radiación solar	509
59117	7	Sololá	710	Panajachel	8	Panajachel	9	Septiembre	2023-07-09T00:00:00	2024-11-08T15:00:00	2	Temperatura media	22.4
59118	7	Sololá	710	Panajachel	8	Panajachel	9	Septiembre	2023-07-09T00:00:00	2024-11-08T15:00:00	4	Temperatura máxima	22.9
59119	7	Sololá	710	Panajachel	8	Panajachel	9	Septiembre	2023-07-09T00:00:00	2024-11-08T15:00:00	3	Temperatura mínima	22.3
59120	7	Sololá	710	Panajachel	8	Panajachel	9	Septiembre	2023-07-09T00:00:00	2024-11-08T15:00:00	5	Humedad	88
59121	7	Sololá	710	Panajachel	8	Panajachel	9	Septiembre	2023-07-09T00:00:00	2024-11-08T15:00:00	6	Velocidad del viento	4.8
59122	7	Sololá	710	Panajachel	8	Panajachel	9	Septiembre	2023-07-09T00:00:00	2024-11-08T15:00:00	7	Dirección del viento	4.83
59123	7	Sololá	710	Panajachel	8	Panajachel	9	Septiembre	2023-07-09T00:00:00	2024-11-08T15:00:00	1	Precipitación	0
59124	7	Sololá	710	Panajachel	8	Panajachel	9	Septiembre	2023-07-09T00:00:00	2024-11-08T15:00:00	8	Radiación solar	214
59125	7	Sololá	710	Panajachel	8	Panajachel	9	Septiembre	2023-07-09T00:00:00	2024-11-08T16:00:00	2	Temperatura media	21.7
59126	7	Sololá	710	Panajachel	8	Panajachel	9	Septiembre	2023-07-09T00:00:00	2024-11-08T16:00:00	4	Temperatura máxima	22.7
59127	7	Sololá	710	Panajachel	8	Panajachel	9	Septiembre	2023-07-09T00:00:00	2024-11-08T16:00:00	3	Temperatura mínima	21.7
59128	7	Sololá	710	Panajachel	8	Panajachel	9	Septiembre	2023-07-09T00:00:00	2024-11-08T16:00:00	5	Humedad	90
59129	7	Sololá	710	Panajachel	8	Panajachel	9	Septiembre	2023-07-09T00:00:00	2024-11-08T16:00:00	6	Velocidad del viento	3.2
59130	7	Sololá	710	Panajachel	8	Panajachel	9	Septiembre	2023-07-09T00:00:00	2024-11-08T16:00:00	7	Dirección del viento	3.22
59131	7	Sololá	710	Panajachel	8	Panajachel	9	Septiembre	2023-07-09T00:00:00	2024-11-08T16:00:00	1	Precipitación	0
59132	7	Sololá	710	Panajachel	8	Panajachel	9	Septiembre	2023-07-09T00:00:00	2024-11-08T16:00:00	8	Radiación solar	207
59133	7	Sololá	710	Panajachel	8	Panajachel	9	Septiembre	2023-07-09T00:00:00	2024-11-08T17:00:00	2	Temperatura media	21
59134	7	Sololá	710	Panajachel	8	Panajachel	9	Septiembre	2023-07-09T00:00:00	2024-11-08T17:00:00	4	Temperatura máxima	21.7
59135	7	Sololá	710	Panajachel	8	Panajachel	9	Septiembre	2023-07-09T00:00:00	2024-11-08T17:00:00	3	Temperatura mínima	20.9
59136	7	Sololá	710	Panajachel	8	Panajachel	9	Septiembre	2023-07-09T00:00:00	2024-11-08T17:00:00	5	Humedad	92
59137	7	Sololá	710	Panajachel	8	Panajachel	9	Septiembre	2023-07-09T00:00:00	2024-11-08T17:00:00	6	Velocidad del viento	3.2
59138	7	Sololá	710	Panajachel	8	Panajachel	9	Septiembre	2023-07-09T00:00:00	2024-11-08T17:00:00	7	Dirección del viento	3.22
59139	7	Sololá	710	Panajachel	8	Panajachel	9	Septiembre	2023-07-09T00:00:00	2024-11-08T17:00:00	1	Precipitación	0
59140	7	Sololá	710	Panajachel	8	Panajachel	9	Septiembre	2023-07-09T00:00:00	2024-11-08T17:00:00	8	Radiación solar	53
59141	7	Sololá	710	Panajachel	8	Panajachel	9	Septiembre	2023-07-09T00:00:00	2024-11-08T18:00:00	2	Temperatura media	20
59142	7	Sololá	710	Panajachel	8	Panajachel	9	Septiembre	2023-07-09T00:00:00	2024-11-08T18:00:00	4	Temperatura máxima	21.2
59143	7	Sololá	710	Panajachel	8	Panajachel	9	Septiembre	2023-07-09T00:00:00	2024-11-08T18:00:00	3	Temperatura mínima	20
59144	7	Sololá	710	Panajachel	8	Panajachel	9	Septiembre	2023-07-09T00:00:00	2024-11-08T18:00:00	5	Humedad	84
59145	7	Sololá	710	Panajachel	8	Panajachel	9	Septiembre	2023-07-09T00:00:00	2024-11-08T18:00:00	6	Velocidad del viento	3.2
59146	7	Sololá	710	Panajachel	8	Panajachel	9	Septiembre	2023-07-09T00:00:00	2024-11-08T18:00:00	7	Dirección del viento	3.22
59147	7	Sololá	710	Panajachel	8	Panajachel	9	Septiembre	2023-07-09T00:00:00	2024-11-08T18:00:00	1	Precipitación	0.6
59148	7	Sololá	710	Panajachel	8	Panajachel	9	Septiembre	2023-07-09T00:00:00	2024-11-08T18:00:00	8	Radiación solar	21
59149	7	Sololá	710	Panajachel	8	Panajachel	9	Septiembre	2023-07-09T00:00:00	2024-11-08T19:00:00	2	Temperatura media	18.1
59150	7	Sololá	710	Panajachel	8	Panajachel	9	Septiembre	2023-07-09T00:00:00	2024-11-08T19:00:00	4	Temperatura máxima	20
59151	7	Sololá	710	Panajachel	8	Panajachel	9	Septiembre	2023-07-09T00:00:00	2024-11-08T19:00:00	3	Temperatura mínima	18.1
59152	7	Sololá	710	Panajachel	8	Panajachel	9	Septiembre	2023-07-09T00:00:00	2024-11-08T19:00:00	5	Humedad	90
59153	7	Sololá	710	Panajachel	8	Panajachel	9	Septiembre	2023-07-09T00:00:00	2024-11-08T19:00:00	6	Velocidad del viento	3.2
59154	7	Sololá	710	Panajachel	8	Panajachel	9	Septiembre	2023-07-09T00:00:00	2024-11-08T19:00:00	7	Dirección del viento	3.22
59155	7	Sololá	710	Panajachel	8	Panajachel	9	Septiembre	2023-07-09T00:00:00	2024-11-08T19:00:00	1	Precipitación	0
59156	7	Sololá	710	Panajachel	8	Panajachel	9	Septiembre	2023-07-09T00:00:00	2024-11-08T19:00:00	8	Radiación solar	0
59157	7	Sololá	710	Panajachel	8	Panajachel	9	Septiembre	2023-07-09T00:00:00	2024-11-08T20:00:00	2	Temperatura media	18.4
59158	7	Sololá	710	Panajachel	8	Panajachel	9	Septiembre	2023-07-09T00:00:00	2024-11-08T20:00:00	4	Temperatura máxima	18.6
59159	7	Sololá	710	Panajachel	8	Panajachel	9	Septiembre	2023-07-09T00:00:00	2024-11-08T20:00:00	3	Temperatura mínima	18.1
59160	7	Sololá	710	Panajachel	8	Panajachel	9	Septiembre	2023-07-09T00:00:00	2024-11-08T20:00:00	5	Humedad	92
59161	7	Sololá	710	Panajachel	8	Panajachel	9	Septiembre	2023-07-09T00:00:00	2024-11-08T20:00:00	6	Velocidad del viento	1.6
59162	7	Sololá	710	Panajachel	8	Panajachel	9	Septiembre	2023-07-09T00:00:00	2024-11-08T20:00:00	7	Dirección del viento	1.61
59163	7	Sololá	710	Panajachel	8	Panajachel	9	Septiembre	2023-07-09T00:00:00	2024-11-08T20:00:00	1	Precipitación	0.2
59164	7	Sololá	710	Panajachel	8	Panajachel	9	Septiembre	2023-07-09T00:00:00	2024-11-08T20:00:00	8	Radiación solar	0
59165	7	Sololá	710	Panajachel	8	Panajachel	9	Septiembre	2023-07-09T00:00:00	2024-11-08T21:00:00	2	Temperatura media	18.1
59166	7	Sololá	710	Panajachel	8	Panajachel	9	Septiembre	2023-07-09T00:00:00	2024-11-08T21:00:00	4	Temperatura máxima	18.4
59167	7	Sololá	710	Panajachel	8	Panajachel	9	Septiembre	2023-07-09T00:00:00	2024-11-08T21:00:00	3	Temperatura mínima	18.1
59168	7	Sololá	710	Panajachel	8	Panajachel	9	Septiembre	2023-07-09T00:00:00	2024-11-08T21:00:00	5	Humedad	91
59169	7	Sololá	710	Panajachel	8	Panajachel	9	Septiembre	2023-07-09T00:00:00	2024-11-08T21:00:00	6	Velocidad del viento	1.6
59170	7	Sololá	710	Panajachel	8	Panajachel	9	Septiembre	2023-07-09T00:00:00	2024-11-08T21:00:00	7	Dirección del viento	1.61
59171	7	Sololá	710	Panajachel	8	Panajachel	9	Septiembre	2023-07-09T00:00:00	2024-11-08T21:00:00	1	Precipitación	0
59172	7	Sololá	710	Panajachel	8	Panajachel	9	Septiembre	2023-07-09T00:00:00	2024-11-08T21:00:00	8	Radiación solar	0
59173	7	Sololá	710	Panajachel	8	Panajachel	9	Septiembre	2023-07-09T00:00:00	2024-11-08T22:00:00	2	Temperatura media	17.9
59174	7	Sololá	710	Panajachel	8	Panajachel	9	Septiembre	2023-07-09T00:00:00	2024-11-08T22:00:00	4	Temperatura máxima	18.1
59175	7	Sololá	710	Panajachel	8	Panajachel	9	Septiembre	2023-07-09T00:00:00	2024-11-08T22:00:00	3	Temperatura mínima	17.6
59176	7	Sololá	710	Panajachel	8	Panajachel	9	Septiembre	2023-07-09T00:00:00	2024-11-08T22:00:00	5	Humedad	90
59177	7	Sololá	710	Panajachel	8	Panajachel	9	Septiembre	2023-07-09T00:00:00	2024-11-08T22:00:00	6	Velocidad del viento	1.6
59178	7	Sololá	710	Panajachel	8	Panajachel	9	Septiembre	2023-07-09T00:00:00	2024-11-08T22:00:00	7	Dirección del viento	1.61
59179	7	Sololá	710	Panajachel	8	Panajachel	9	Septiembre	2023-07-09T00:00:00	2024-11-08T22:00:00	1	Precipitación	0
59180	7	Sololá	710	Panajachel	8	Panajachel	9	Septiembre	2023-07-09T00:00:00	2024-11-08T22:00:00	8	Radiación solar	0
59181	7	Sololá	710	Panajachel	8	Panajachel	9	Septiembre	2023-07-09T00:00:00	2024-11-08T23:00:00	2	Temperatura media	18.4
59182	7	Sololá	710	Panajachel	8	Panajachel	9	Septiembre	2023-07-09T00:00:00	2024-11-08T23:00:00	4	Temperatura máxima	18.4
59183	7	Sololá	710	Panajachel	8	Panajachel	9	Septiembre	2023-07-09T00:00:00	2024-11-08T23:00:00	3	Temperatura mínima	17.8
59184	7	Sololá	710	Panajachel	8	Panajachel	9	Septiembre	2023-07-09T00:00:00	2024-11-08T23:00:00	5	Humedad	85
59185	7	Sololá	710	Panajachel	8	Panajachel	9	Septiembre	2023-07-09T00:00:00	2024-11-08T23:00:00	6	Velocidad del viento	1.6
59186	7	Sololá	710	Panajachel	8	Panajachel	9	Septiembre	2023-07-09T00:00:00	2024-11-08T23:00:00	7	Dirección del viento	1.61
59187	7	Sololá	710	Panajachel	8	Panajachel	9	Septiembre	2023-07-09T00:00:00	2024-11-08T23:00:00	1	Precipitación	0
59188	7	Sololá	710	Panajachel	8	Panajachel	9	Septiembre	2023-07-09T00:00:00	2024-11-08T23:00:00	8	Radiación solar	0
59189	7	Sololá	710	Panajachel	8	Panajachel	9	Septiembre	2023-08-09T00:00:00	2024-11-08T00:00:00	2	Temperatura media	18.2
59190	7	Sololá	710	Panajachel	8	Panajachel	9	Septiembre	2023-08-09T00:00:00	2024-11-08T00:00:00	4	Temperatura máxima	18.9
59191	7	Sololá	710	Panajachel	8	Panajachel	9	Septiembre	2023-08-09T00:00:00	2024-11-08T00:00:00	3	Temperatura mínima	18.2
59192	7	Sololá	710	Panajachel	8	Panajachel	9	Septiembre	2023-08-09T00:00:00	2024-11-08T00:00:00	5	Humedad	86
59193	7	Sololá	710	Panajachel	8	Panajachel	9	Septiembre	2023-08-09T00:00:00	2024-11-08T00:00:00	6	Velocidad del viento	1.6
59194	7	Sololá	710	Panajachel	8	Panajachel	9	Septiembre	2023-08-09T00:00:00	2024-11-08T00:00:00	7	Dirección del viento	1.61
59195	7	Sololá	710	Panajachel	8	Panajachel	9	Septiembre	2023-08-09T00:00:00	2024-11-08T00:00:00	1	Precipitación	0
59196	7	Sololá	710	Panajachel	8	Panajachel	9	Septiembre	2023-08-09T00:00:00	2024-11-08T00:00:00	8	Radiación solar	0
59197	7	Sololá	710	Panajachel	8	Panajachel	9	Septiembre	2023-08-09T00:00:00	2024-11-08T01:00:00	2	Temperatura media	19.7
59198	7	Sololá	710	Panajachel	8	Panajachel	9	Septiembre	2023-08-09T00:00:00	2024-11-08T01:00:00	4	Temperatura máxima	19.8
59199	7	Sololá	710	Panajachel	8	Panajachel	9	Septiembre	2023-08-09T00:00:00	2024-11-08T01:00:00	3	Temperatura mínima	17.7
59200	7	Sololá	710	Panajachel	8	Panajachel	9	Septiembre	2023-08-09T00:00:00	2024-11-08T01:00:00	5	Humedad	76
59201	7	Sololá	710	Panajachel	8	Panajachel	9	Septiembre	2023-08-09T00:00:00	2024-11-08T01:00:00	6	Velocidad del viento	3.2
59202	7	Sololá	710	Panajachel	8	Panajachel	9	Septiembre	2023-08-09T00:00:00	2024-11-08T01:00:00	7	Dirección del viento	3.22
59203	7	Sololá	710	Panajachel	8	Panajachel	9	Septiembre	2023-08-09T00:00:00	2024-11-08T01:00:00	1	Precipitación	0
59204	7	Sololá	710	Panajachel	8	Panajachel	9	Septiembre	2023-08-09T00:00:00	2024-11-08T01:00:00	8	Radiación solar	0
59205	7	Sololá	710	Panajachel	8	Panajachel	9	Septiembre	2023-08-09T00:00:00	2024-11-08T02:00:00	2	Temperatura media	19.8
59206	7	Sololá	710	Panajachel	8	Panajachel	9	Septiembre	2023-08-09T00:00:00	2024-11-08T02:00:00	4	Temperatura máxima	20.1
59207	7	Sololá	710	Panajachel	8	Panajachel	9	Septiembre	2023-08-09T00:00:00	2024-11-08T02:00:00	3	Temperatura mínima	19.7
59208	7	Sololá	710	Panajachel	8	Panajachel	9	Septiembre	2023-08-09T00:00:00	2024-11-08T02:00:00	5	Humedad	75
59209	7	Sololá	710	Panajachel	8	Panajachel	9	Septiembre	2023-08-09T00:00:00	2024-11-08T02:00:00	6	Velocidad del viento	4.8
59210	7	Sololá	710	Panajachel	8	Panajachel	9	Septiembre	2023-08-09T00:00:00	2024-11-08T02:00:00	7	Dirección del viento	4.83
59211	7	Sololá	710	Panajachel	8	Panajachel	9	Septiembre	2023-08-09T00:00:00	2024-11-08T02:00:00	1	Precipitación	0
59212	7	Sololá	710	Panajachel	8	Panajachel	9	Septiembre	2023-08-09T00:00:00	2024-11-08T02:00:00	8	Radiación solar	0
59213	7	Sololá	710	Panajachel	8	Panajachel	9	Septiembre	2023-08-09T00:00:00	2024-11-08T03:00:00	2	Temperatura media	18.2
59214	7	Sololá	710	Panajachel	8	Panajachel	9	Septiembre	2023-08-09T00:00:00	2024-11-08T03:00:00	4	Temperatura máxima	19.8
59215	7	Sololá	710	Panajachel	8	Panajachel	9	Septiembre	2023-08-09T00:00:00	2024-11-08T03:00:00	3	Temperatura mínima	18.2
59216	7	Sololá	710	Panajachel	8	Panajachel	9	Septiembre	2023-08-09T00:00:00	2024-11-08T03:00:00	5	Humedad	81
59217	7	Sololá	710	Panajachel	8	Panajachel	9	Septiembre	2023-08-09T00:00:00	2024-11-08T03:00:00	6	Velocidad del viento	3.2
59218	7	Sololá	710	Panajachel	8	Panajachel	9	Septiembre	2023-08-09T00:00:00	2024-11-08T03:00:00	7	Dirección del viento	3.22
59219	7	Sololá	710	Panajachel	8	Panajachel	9	Septiembre	2023-08-09T00:00:00	2024-11-08T03:00:00	1	Precipitación	0
59220	7	Sololá	710	Panajachel	8	Panajachel	9	Septiembre	2023-08-09T00:00:00	2024-11-08T03:00:00	8	Radiación solar	0
59221	7	Sololá	710	Panajachel	8	Panajachel	9	Septiembre	2023-08-09T00:00:00	2024-11-08T04:00:00	2	Temperatura media	20
59222	7	Sololá	710	Panajachel	8	Panajachel	9	Septiembre	2023-08-09T00:00:00	2024-11-08T04:00:00	4	Temperatura máxima	20
59223	7	Sololá	710	Panajachel	8	Panajachel	9	Septiembre	2023-08-09T00:00:00	2024-11-08T04:00:00	3	Temperatura mínima	17.3
59224	7	Sololá	710	Panajachel	8	Panajachel	9	Septiembre	2023-08-09T00:00:00	2024-11-08T04:00:00	5	Humedad	72
59225	7	Sololá	710	Panajachel	8	Panajachel	9	Septiembre	2023-08-09T00:00:00	2024-11-08T04:00:00	6	Velocidad del viento	3.2
59226	7	Sololá	710	Panajachel	8	Panajachel	9	Septiembre	2023-08-09T00:00:00	2024-11-08T04:00:00	7	Dirección del viento	3.22
59227	7	Sololá	710	Panajachel	8	Panajachel	9	Septiembre	2023-08-09T00:00:00	2024-11-08T04:00:00	1	Precipitación	0
59228	7	Sololá	710	Panajachel	8	Panajachel	9	Septiembre	2023-08-09T00:00:00	2024-11-08T04:00:00	8	Radiación solar	0
59229	7	Sololá	710	Panajachel	8	Panajachel	9	Septiembre	2023-08-09T00:00:00	2024-11-08T05:00:00	2	Temperatura media	20.1
59230	7	Sololá	710	Panajachel	8	Panajachel	9	Septiembre	2023-08-09T00:00:00	2024-11-08T05:00:00	4	Temperatura máxima	20.3
59231	7	Sololá	710	Panajachel	8	Panajachel	9	Septiembre	2023-08-09T00:00:00	2024-11-08T05:00:00	3	Temperatura mínima	19.9
59232	7	Sololá	710	Panajachel	8	Panajachel	9	Septiembre	2023-08-09T00:00:00	2024-11-08T05:00:00	5	Humedad	70
59233	7	Sololá	710	Panajachel	8	Panajachel	9	Septiembre	2023-08-09T00:00:00	2024-11-08T05:00:00	6	Velocidad del viento	4.8
59234	7	Sololá	710	Panajachel	8	Panajachel	9	Septiembre	2023-08-09T00:00:00	2024-11-08T05:00:00	7	Dirección del viento	4.83
59235	7	Sololá	710	Panajachel	8	Panajachel	9	Septiembre	2023-08-09T00:00:00	2024-11-08T05:00:00	1	Precipitación	0
59236	7	Sololá	710	Panajachel	8	Panajachel	9	Septiembre	2023-08-09T00:00:00	2024-11-08T05:00:00	8	Radiación solar	0
59237	7	Sololá	710	Panajachel	8	Panajachel	9	Septiembre	2023-08-09T00:00:00	2024-11-08T06:00:00	2	Temperatura media	20.3
59238	7	Sololá	710	Panajachel	8	Panajachel	9	Septiembre	2023-08-09T00:00:00	2024-11-08T06:00:00	4	Temperatura máxima	20.3
59239	7	Sololá	710	Panajachel	8	Panajachel	9	Septiembre	2023-08-09T00:00:00	2024-11-08T06:00:00	3	Temperatura mínima	19.9
59240	7	Sololá	710	Panajachel	8	Panajachel	9	Septiembre	2023-08-09T00:00:00	2024-11-08T06:00:00	5	Humedad	68
59241	7	Sololá	710	Panajachel	8	Panajachel	9	Septiembre	2023-08-09T00:00:00	2024-11-08T06:00:00	6	Velocidad del viento	3.2
59242	7	Sololá	710	Panajachel	8	Panajachel	9	Septiembre	2023-08-09T00:00:00	2024-11-08T06:00:00	7	Dirección del viento	3.22
59243	7	Sololá	710	Panajachel	8	Panajachel	9	Septiembre	2023-08-09T00:00:00	2024-11-08T06:00:00	1	Precipitación	0
59244	7	Sololá	710	Panajachel	8	Panajachel	9	Septiembre	2023-08-09T00:00:00	2024-11-08T06:00:00	8	Radiación solar	0
59245	7	Sololá	710	Panajachel	8	Panajachel	9	Septiembre	2023-08-09T00:00:00	2024-11-08T07:00:00	2	Temperatura media	20.6
59246	7	Sololá	710	Panajachel	8	Panajachel	9	Septiembre	2023-08-09T00:00:00	2024-11-08T07:00:00	4	Temperatura máxima	20.6
59247	7	Sololá	710	Panajachel	8	Panajachel	9	Septiembre	2023-08-09T00:00:00	2024-11-08T07:00:00	3	Temperatura mínima	20
59248	7	Sololá	710	Panajachel	8	Panajachel	9	Septiembre	2023-08-09T00:00:00	2024-11-08T07:00:00	5	Humedad	69
59249	7	Sololá	710	Panajachel	8	Panajachel	9	Septiembre	2023-08-09T00:00:00	2024-11-08T07:00:00	6	Velocidad del viento	1.6
59250	7	Sololá	710	Panajachel	8	Panajachel	9	Septiembre	2023-08-09T00:00:00	2024-11-08T07:00:00	7	Dirección del viento	1.61
59251	7	Sololá	710	Panajachel	8	Panajachel	9	Septiembre	2023-08-09T00:00:00	2024-11-08T07:00:00	1	Precipitación	0
59252	7	Sololá	710	Panajachel	8	Panajachel	9	Septiembre	2023-08-09T00:00:00	2024-11-08T07:00:00	8	Radiación solar	69
59253	7	Sololá	710	Panajachel	8	Panajachel	9	Septiembre	2023-08-09T00:00:00	2024-11-08T08:00:00	2	Temperatura media	21.6
59254	7	Sololá	710	Panajachel	8	Panajachel	9	Septiembre	2023-08-09T00:00:00	2024-11-08T08:00:00	4	Temperatura máxima	21.8
59255	7	Sololá	710	Panajachel	8	Panajachel	9	Septiembre	2023-08-09T00:00:00	2024-11-08T08:00:00	3	Temperatura mínima	20.5
59256	7	Sololá	710	Panajachel	8	Panajachel	9	Septiembre	2023-08-09T00:00:00	2024-11-08T08:00:00	5	Humedad	74
59257	7	Sololá	710	Panajachel	8	Panajachel	9	Septiembre	2023-08-09T00:00:00	2024-11-08T08:00:00	6	Velocidad del viento	0
59258	7	Sololá	710	Panajachel	8	Panajachel	9	Septiembre	2023-08-09T00:00:00	2024-11-08T08:00:00	7	Dirección del viento	0
59259	7	Sololá	710	Panajachel	8	Panajachel	9	Septiembre	2023-08-09T00:00:00	2024-11-08T08:00:00	1	Precipitación	0
59260	7	Sololá	710	Panajachel	8	Panajachel	9	Septiembre	2023-08-09T00:00:00	2024-11-08T08:00:00	8	Radiación solar	309
59261	7	Sololá	710	Panajachel	8	Panajachel	9	Septiembre	2023-08-09T00:00:00	2024-11-08T09:00:00	2	Temperatura media	23.2
59262	7	Sololá	710	Panajachel	8	Panajachel	9	Septiembre	2023-08-09T00:00:00	2024-11-08T09:00:00	4	Temperatura máxima	23.2
59263	7	Sololá	710	Panajachel	8	Panajachel	9	Septiembre	2023-08-09T00:00:00	2024-11-08T09:00:00	3	Temperatura mínima	21.6
59264	7	Sololá	710	Panajachel	8	Panajachel	9	Septiembre	2023-08-09T00:00:00	2024-11-08T09:00:00	5	Humedad	69
59265	7	Sololá	710	Panajachel	8	Panajachel	9	Septiembre	2023-08-09T00:00:00	2024-11-08T09:00:00	6	Velocidad del viento	0
59266	7	Sololá	710	Panajachel	8	Panajachel	9	Septiembre	2023-08-09T00:00:00	2024-11-08T09:00:00	7	Dirección del viento	0
59267	7	Sololá	710	Panajachel	8	Panajachel	9	Septiembre	2023-08-09T00:00:00	2024-11-08T09:00:00	1	Precipitación	0
59268	7	Sololá	710	Panajachel	8	Panajachel	9	Septiembre	2023-08-09T00:00:00	2024-11-08T09:00:00	8	Radiación solar	522
59269	7	Sololá	710	Panajachel	8	Panajachel	9	Septiembre	2023-08-09T00:00:00	2024-11-08T10:00:00	2	Temperatura media	23.5
59270	7	Sololá	710	Panajachel	8	Panajachel	9	Septiembre	2023-08-09T00:00:00	2024-11-08T10:00:00	4	Temperatura máxima	23.6
59271	7	Sololá	710	Panajachel	8	Panajachel	9	Septiembre	2023-08-09T00:00:00	2024-11-08T10:00:00	3	Temperatura mínima	22.9
59272	7	Sololá	710	Panajachel	8	Panajachel	9	Septiembre	2023-08-09T00:00:00	2024-11-08T10:00:00	5	Humedad	74
59273	7	Sololá	710	Panajachel	8	Panajachel	9	Septiembre	2023-08-09T00:00:00	2024-11-08T10:00:00	6	Velocidad del viento	1.6
59274	7	Sololá	710	Panajachel	8	Panajachel	9	Septiembre	2023-08-09T00:00:00	2024-11-08T10:00:00	7	Dirección del viento	1.61
59275	7	Sololá	710	Panajachel	8	Panajachel	9	Septiembre	2023-08-09T00:00:00	2024-11-08T10:00:00	1	Precipitación	0
59276	7	Sololá	710	Panajachel	8	Panajachel	9	Septiembre	2023-08-09T00:00:00	2024-11-08T10:00:00	8	Radiación solar	688
59277	7	Sololá	710	Panajachel	8	Panajachel	9	Septiembre	2023-08-09T00:00:00	2024-11-08T11:00:00	2	Temperatura media	24.3
59278	7	Sololá	710	Panajachel	8	Panajachel	9	Septiembre	2023-08-09T00:00:00	2024-11-08T11:00:00	4	Temperatura máxima	24.4
59279	7	Sololá	710	Panajachel	8	Panajachel	9	Septiembre	2023-08-09T00:00:00	2024-11-08T11:00:00	3	Temperatura mínima	23.5
59280	7	Sololá	710	Panajachel	8	Panajachel	9	Septiembre	2023-08-09T00:00:00	2024-11-08T11:00:00	5	Humedad	74
59281	7	Sololá	710	Panajachel	8	Panajachel	9	Septiembre	2023-08-09T00:00:00	2024-11-08T11:00:00	6	Velocidad del viento	3.2
59282	7	Sololá	710	Panajachel	8	Panajachel	9	Septiembre	2023-08-09T00:00:00	2024-11-08T11:00:00	7	Dirección del viento	3.22
59283	7	Sololá	710	Panajachel	8	Panajachel	9	Septiembre	2023-08-09T00:00:00	2024-11-08T11:00:00	1	Precipitación	0
59284	7	Sololá	710	Panajachel	8	Panajachel	9	Septiembre	2023-08-09T00:00:00	2024-11-08T11:00:00	8	Radiación solar	816
59285	7	Sololá	710	Panajachel	8	Panajachel	9	Septiembre	2023-08-09T00:00:00	2024-11-08T12:00:00	2	Temperatura media	23.4
59286	7	Sololá	710	Panajachel	8	Panajachel	9	Septiembre	2023-08-09T00:00:00	2024-11-08T12:00:00	4	Temperatura máxima	24.8
59287	7	Sololá	710	Panajachel	8	Panajachel	9	Septiembre	2023-08-09T00:00:00	2024-11-08T12:00:00	3	Temperatura mínima	23.3
59288	7	Sololá	710	Panajachel	8	Panajachel	9	Septiembre	2023-08-09T00:00:00	2024-11-08T12:00:00	5	Humedad	76
59289	7	Sololá	710	Panajachel	8	Panajachel	9	Septiembre	2023-08-09T00:00:00	2024-11-08T12:00:00	6	Velocidad del viento	1.6
59290	7	Sololá	710	Panajachel	8	Panajachel	9	Septiembre	2023-08-09T00:00:00	2024-11-08T12:00:00	7	Dirección del viento	1.61
59291	7	Sololá	710	Panajachel	8	Panajachel	9	Septiembre	2023-08-09T00:00:00	2024-11-08T12:00:00	1	Precipitación	0
59292	7	Sololá	710	Panajachel	8	Panajachel	9	Septiembre	2023-08-09T00:00:00	2024-11-08T12:00:00	8	Radiación solar	512
59293	7	Sololá	710	Panajachel	8	Panajachel	9	Septiembre	2023-08-09T00:00:00	2024-11-08T13:00:00	2	Temperatura media	23.4
59294	7	Sololá	710	Panajachel	8	Panajachel	9	Septiembre	2023-08-09T00:00:00	2024-11-08T13:00:00	4	Temperatura máxima	23.6
59295	7	Sololá	710	Panajachel	8	Panajachel	9	Septiembre	2023-08-09T00:00:00	2024-11-08T13:00:00	3	Temperatura mínima	22.9
59296	7	Sololá	710	Panajachel	8	Panajachel	9	Septiembre	2023-08-09T00:00:00	2024-11-08T13:00:00	5	Humedad	81
59297	7	Sololá	710	Panajachel	8	Panajachel	9	Septiembre	2023-08-09T00:00:00	2024-11-08T13:00:00	6	Velocidad del viento	4.8
59298	7	Sololá	710	Panajachel	8	Panajachel	9	Septiembre	2023-08-09T00:00:00	2024-11-08T13:00:00	7	Dirección del viento	4.83
59299	7	Sololá	710	Panajachel	8	Panajachel	9	Septiembre	2023-08-09T00:00:00	2024-11-08T13:00:00	1	Precipitación	0
59300	7	Sololá	710	Panajachel	8	Panajachel	9	Septiembre	2023-08-09T00:00:00	2024-11-08T13:00:00	8	Radiación solar	487
59301	7	Sololá	710	Panajachel	8	Panajachel	9	Septiembre	2023-08-09T00:00:00	2024-11-08T14:00:00	2	Temperatura media	24.6
59302	7	Sololá	710	Panajachel	8	Panajachel	9	Septiembre	2023-08-09T00:00:00	2024-11-08T14:00:00	4	Temperatura máxima	24.7
59303	7	Sololá	710	Panajachel	8	Panajachel	9	Septiembre	2023-08-09T00:00:00	2024-11-08T14:00:00	3	Temperatura mínima	23.1
59304	7	Sololá	710	Panajachel	8	Panajachel	9	Septiembre	2023-08-09T00:00:00	2024-11-08T14:00:00	5	Humedad	76
59305	7	Sololá	710	Panajachel	8	Panajachel	9	Septiembre	2023-08-09T00:00:00	2024-11-08T14:00:00	6	Velocidad del viento	3.2
59306	7	Sololá	710	Panajachel	8	Panajachel	9	Septiembre	2023-08-09T00:00:00	2024-11-08T14:00:00	7	Dirección del viento	3.22
59307	7	Sololá	710	Panajachel	8	Panajachel	9	Septiembre	2023-08-09T00:00:00	2024-11-08T14:00:00	1	Precipitación	0
59308	7	Sololá	710	Panajachel	8	Panajachel	9	Septiembre	2023-08-09T00:00:00	2024-11-08T14:00:00	8	Radiación solar	422
59309	7	Sololá	710	Panajachel	8	Panajachel	9	Septiembre	2023-08-09T00:00:00	2024-11-08T15:00:00	2	Temperatura media	24.2
59310	7	Sololá	710	Panajachel	8	Panajachel	9	Septiembre	2023-08-09T00:00:00	2024-11-08T15:00:00	4	Temperatura máxima	24.9
59311	7	Sololá	710	Panajachel	8	Panajachel	9	Septiembre	2023-08-09T00:00:00	2024-11-08T15:00:00	3	Temperatura mínima	24.1
59312	7	Sololá	710	Panajachel	8	Panajachel	9	Septiembre	2023-08-09T00:00:00	2024-11-08T15:00:00	5	Humedad	77
59313	7	Sololá	710	Panajachel	8	Panajachel	9	Septiembre	2023-08-09T00:00:00	2024-11-08T15:00:00	6	Velocidad del viento	4.8
59314	7	Sololá	710	Panajachel	8	Panajachel	9	Septiembre	2023-08-09T00:00:00	2024-11-08T15:00:00	7	Dirección del viento	4.83
59315	7	Sololá	710	Panajachel	8	Panajachel	9	Septiembre	2023-08-09T00:00:00	2024-11-08T15:00:00	1	Precipitación	0
59316	7	Sololá	710	Panajachel	8	Panajachel	9	Septiembre	2023-08-09T00:00:00	2024-11-08T15:00:00	8	Radiación solar	727
59317	7	Sololá	710	Panajachel	8	Panajachel	9	Septiembre	2023-08-09T00:00:00	2024-11-08T16:00:00	2	Temperatura media	21.5
59318	7	Sololá	710	Panajachel	8	Panajachel	9	Septiembre	2023-08-09T00:00:00	2024-11-08T16:00:00	4	Temperatura máxima	24.2
59319	7	Sololá	710	Panajachel	8	Panajachel	9	Septiembre	2023-08-09T00:00:00	2024-11-08T16:00:00	3	Temperatura mínima	21.5
59320	7	Sololá	710	Panajachel	8	Panajachel	9	Septiembre	2023-08-09T00:00:00	2024-11-08T16:00:00	5	Humedad	89
59321	7	Sololá	710	Panajachel	8	Panajachel	9	Septiembre	2023-08-09T00:00:00	2024-11-08T16:00:00	6	Velocidad del viento	4.8
59322	7	Sololá	710	Panajachel	8	Panajachel	9	Septiembre	2023-08-09T00:00:00	2024-11-08T16:00:00	7	Dirección del viento	4.83
59323	7	Sololá	710	Panajachel	8	Panajachel	9	Septiembre	2023-08-09T00:00:00	2024-11-08T16:00:00	1	Precipitación	9.2
59324	7	Sololá	710	Panajachel	8	Panajachel	9	Septiembre	2023-08-09T00:00:00	2024-11-08T16:00:00	8	Radiación solar	207
59325	7	Sololá	710	Panajachel	8	Panajachel	9	Septiembre	2023-08-09T00:00:00	2024-11-08T17:00:00	2	Temperatura media	20.6
59326	7	Sololá	710	Panajachel	8	Panajachel	9	Septiembre	2023-08-09T00:00:00	2024-11-08T17:00:00	4	Temperatura máxima	21.5
59327	7	Sololá	710	Panajachel	8	Panajachel	9	Septiembre	2023-08-09T00:00:00	2024-11-08T17:00:00	3	Temperatura mínima	20.3
59328	7	Sololá	710	Panajachel	8	Panajachel	9	Septiembre	2023-08-09T00:00:00	2024-11-08T17:00:00	5	Humedad	92
59329	7	Sololá	710	Panajachel	8	Panajachel	9	Septiembre	2023-08-09T00:00:00	2024-11-08T17:00:00	6	Velocidad del viento	1.6
59330	7	Sololá	710	Panajachel	8	Panajachel	9	Septiembre	2023-08-09T00:00:00	2024-11-08T17:00:00	7	Dirección del viento	1.61
59331	7	Sololá	710	Panajachel	8	Panajachel	9	Septiembre	2023-08-09T00:00:00	2024-11-08T17:00:00	1	Precipitación	2.2
59332	7	Sololá	710	Panajachel	8	Panajachel	9	Septiembre	2023-08-09T00:00:00	2024-11-08T17:00:00	8	Radiación solar	39
59333	7	Sololá	710	Panajachel	8	Panajachel	9	Septiembre	2023-08-09T00:00:00	2024-11-08T18:00:00	2	Temperatura media	20.6
59334	7	Sololá	710	Panajachel	8	Panajachel	9	Septiembre	2023-08-09T00:00:00	2024-11-08T18:00:00	4	Temperatura máxima	20.9
59335	7	Sololá	710	Panajachel	8	Panajachel	9	Septiembre	2023-08-09T00:00:00	2024-11-08T18:00:00	3	Temperatura mínima	20.5
59336	7	Sololá	710	Panajachel	8	Panajachel	9	Septiembre	2023-08-09T00:00:00	2024-11-08T18:00:00	5	Humedad	92
59337	7	Sololá	710	Panajachel	8	Panajachel	9	Septiembre	2023-08-09T00:00:00	2024-11-08T18:00:00	6	Velocidad del viento	1.6
59338	7	Sololá	710	Panajachel	8	Panajachel	9	Septiembre	2023-08-09T00:00:00	2024-11-08T18:00:00	7	Dirección del viento	1.61
59339	7	Sololá	710	Panajachel	8	Panajachel	9	Septiembre	2023-08-09T00:00:00	2024-11-08T18:00:00	1	Precipitación	0
59340	7	Sololá	710	Panajachel	8	Panajachel	9	Septiembre	2023-08-09T00:00:00	2024-11-08T18:00:00	8	Radiación solar	7
59341	7	Sololá	710	Panajachel	8	Panajachel	9	Septiembre	2023-08-09T00:00:00	2024-11-08T19:00:00	2	Temperatura media	18.7
59342	7	Sololá	710	Panajachel	8	Panajachel	9	Septiembre	2023-08-09T00:00:00	2024-11-08T19:00:00	4	Temperatura máxima	20.6
59343	7	Sololá	710	Panajachel	8	Panajachel	9	Septiembre	2023-08-09T00:00:00	2024-11-08T19:00:00	3	Temperatura mínima	18.7
59344	7	Sololá	710	Panajachel	8	Panajachel	9	Septiembre	2023-08-09T00:00:00	2024-11-08T19:00:00	5	Humedad	93
59345	7	Sololá	710	Panajachel	8	Panajachel	9	Septiembre	2023-08-09T00:00:00	2024-11-08T19:00:00	6	Velocidad del viento	1.6
59346	7	Sololá	710	Panajachel	8	Panajachel	9	Septiembre	2023-08-09T00:00:00	2024-11-08T19:00:00	7	Dirección del viento	1.61
59347	7	Sololá	710	Panajachel	8	Panajachel	9	Septiembre	2023-08-09T00:00:00	2024-11-08T19:00:00	1	Precipitación	5.4
59348	7	Sololá	710	Panajachel	8	Panajachel	9	Septiembre	2023-08-09T00:00:00	2024-11-08T19:00:00	8	Radiación solar	0
59349	7	Sololá	710	Panajachel	8	Panajachel	9	Septiembre	2023-08-09T00:00:00	2024-11-08T20:00:00	2	Temperatura media	18.1
59350	7	Sololá	710	Panajachel	8	Panajachel	9	Septiembre	2023-08-09T00:00:00	2024-11-08T20:00:00	4	Temperatura máxima	18.8
59351	7	Sololá	710	Panajachel	8	Panajachel	9	Septiembre	2023-08-09T00:00:00	2024-11-08T20:00:00	3	Temperatura mínima	18.1
59352	7	Sololá	710	Panajachel	8	Panajachel	9	Septiembre	2023-08-09T00:00:00	2024-11-08T20:00:00	5	Humedad	95
59353	7	Sololá	710	Panajachel	8	Panajachel	9	Septiembre	2023-08-09T00:00:00	2024-11-08T20:00:00	6	Velocidad del viento	0
59354	7	Sololá	710	Panajachel	8	Panajachel	9	Septiembre	2023-08-09T00:00:00	2024-11-08T20:00:00	7	Dirección del viento	0
59355	7	Sololá	710	Panajachel	8	Panajachel	9	Septiembre	2023-08-09T00:00:00	2024-11-08T20:00:00	1	Precipitación	1.6
59356	7	Sololá	710	Panajachel	8	Panajachel	9	Septiembre	2023-08-09T00:00:00	2024-11-08T20:00:00	8	Radiación solar	0
59357	7	Sololá	710	Panajachel	8	Panajachel	9	Septiembre	2023-08-09T00:00:00	2024-11-08T21:00:00	2	Temperatura media	17.9
59358	7	Sololá	710	Panajachel	8	Panajachel	9	Septiembre	2023-08-09T00:00:00	2024-11-08T21:00:00	4	Temperatura máxima	18.3
59359	7	Sololá	710	Panajachel	8	Panajachel	9	Septiembre	2023-08-09T00:00:00	2024-11-08T21:00:00	3	Temperatura mínima	17.9
59360	7	Sololá	710	Panajachel	8	Panajachel	9	Septiembre	2023-08-09T00:00:00	2024-11-08T21:00:00	5	Humedad	95
59361	7	Sololá	710	Panajachel	8	Panajachel	9	Septiembre	2023-08-09T00:00:00	2024-11-08T21:00:00	6	Velocidad del viento	1.6
59362	7	Sololá	710	Panajachel	8	Panajachel	9	Septiembre	2023-08-09T00:00:00	2024-11-08T21:00:00	7	Dirección del viento	1.61
59363	7	Sololá	710	Panajachel	8	Panajachel	9	Septiembre	2023-08-09T00:00:00	2024-11-08T21:00:00	1	Precipitación	0.4
59364	7	Sololá	710	Panajachel	8	Panajachel	9	Septiembre	2023-08-09T00:00:00	2024-11-08T21:00:00	8	Radiación solar	0
59365	7	Sololá	710	Panajachel	8	Panajachel	9	Septiembre	2023-08-09T00:00:00	2024-11-08T22:00:00	2	Temperatura media	18
59366	7	Sololá	710	Panajachel	8	Panajachel	9	Septiembre	2023-08-09T00:00:00	2024-11-08T22:00:00	4	Temperatura máxima	18
59367	7	Sololá	710	Panajachel	8	Panajachel	9	Septiembre	2023-08-09T00:00:00	2024-11-08T22:00:00	3	Temperatura mínima	17.8
59368	7	Sololá	710	Panajachel	8	Panajachel	9	Septiembre	2023-08-09T00:00:00	2024-11-08T22:00:00	5	Humedad	93
59369	7	Sololá	710	Panajachel	8	Panajachel	9	Septiembre	2023-08-09T00:00:00	2024-11-08T22:00:00	6	Velocidad del viento	1.6
59370	7	Sololá	710	Panajachel	8	Panajachel	9	Septiembre	2023-08-09T00:00:00	2024-11-08T22:00:00	7	Dirección del viento	1.61
59371	7	Sololá	710	Panajachel	8	Panajachel	9	Septiembre	2023-08-09T00:00:00	2024-11-08T22:00:00	1	Precipitación	0
59372	7	Sololá	710	Panajachel	8	Panajachel	9	Septiembre	2023-08-09T00:00:00	2024-11-08T22:00:00	8	Radiación solar	0
59373	7	Sololá	710	Panajachel	8	Panajachel	9	Septiembre	2023-08-09T00:00:00	2024-11-08T23:00:00	2	Temperatura media	17.7
59374	7	Sololá	710	Panajachel	8	Panajachel	9	Septiembre	2023-08-09T00:00:00	2024-11-08T23:00:00	4	Temperatura máxima	18.1
59375	7	Sololá	710	Panajachel	8	Panajachel	9	Septiembre	2023-08-09T00:00:00	2024-11-08T23:00:00	3	Temperatura mínima	17.7
59376	7	Sololá	710	Panajachel	8	Panajachel	9	Septiembre	2023-08-09T00:00:00	2024-11-08T23:00:00	5	Humedad	96
59377	7	Sololá	710	Panajachel	8	Panajachel	9	Septiembre	2023-08-09T00:00:00	2024-11-08T23:00:00	6	Velocidad del viento	0
59378	7	Sololá	710	Panajachel	8	Panajachel	9	Septiembre	2023-08-09T00:00:00	2024-11-08T23:00:00	7	Dirección del viento	0
59379	7	Sololá	710	Panajachel	8	Panajachel	9	Septiembre	2023-08-09T00:00:00	2024-11-08T23:00:00	1	Precipitación	0
59380	7	Sololá	710	Panajachel	8	Panajachel	9	Septiembre	2023-08-09T00:00:00	2024-11-08T23:00:00	8	Radiación solar	0
59381	7	Sololá	710	Panajachel	8	Panajachel	9	Septiembre	2023-09-09T00:00:00	2024-11-08T00:00:00	2	Temperatura media	17.1
59382	7	Sololá	710	Panajachel	8	Panajachel	9	Septiembre	2023-09-09T00:00:00	2024-11-08T00:00:00	4	Temperatura máxima	17.7
59383	7	Sololá	710	Panajachel	8	Panajachel	9	Septiembre	2023-09-09T00:00:00	2024-11-08T00:00:00	3	Temperatura mínima	17.1
59384	7	Sololá	710	Panajachel	8	Panajachel	9	Septiembre	2023-09-09T00:00:00	2024-11-08T00:00:00	5	Humedad	95
59385	7	Sololá	710	Panajachel	8	Panajachel	9	Septiembre	2023-09-09T00:00:00	2024-11-08T00:00:00	6	Velocidad del viento	3.2
59386	7	Sololá	710	Panajachel	8	Panajachel	9	Septiembre	2023-09-09T00:00:00	2024-11-08T00:00:00	7	Dirección del viento	3.22
59387	7	Sololá	710	Panajachel	8	Panajachel	9	Septiembre	2023-09-09T00:00:00	2024-11-08T00:00:00	1	Precipitación	0
59388	7	Sololá	710	Panajachel	8	Panajachel	9	Septiembre	2023-09-09T00:00:00	2024-11-08T00:00:00	8	Radiación solar	0
59389	7	Sololá	710	Panajachel	8	Panajachel	9	Septiembre	2023-09-09T00:00:00	2024-11-08T01:00:00	2	Temperatura media	16.8
59390	7	Sololá	710	Panajachel	8	Panajachel	9	Septiembre	2023-09-09T00:00:00	2024-11-08T01:00:00	4	Temperatura máxima	17.3
59391	7	Sololá	710	Panajachel	8	Panajachel	9	Septiembre	2023-09-09T00:00:00	2024-11-08T01:00:00	3	Temperatura mínima	16.8
59392	7	Sololá	710	Panajachel	8	Panajachel	9	Septiembre	2023-09-09T00:00:00	2024-11-08T01:00:00	5	Humedad	95
59393	7	Sololá	710	Panajachel	8	Panajachel	9	Septiembre	2023-09-09T00:00:00	2024-11-08T01:00:00	6	Velocidad del viento	3.2
59394	7	Sololá	710	Panajachel	8	Panajachel	9	Septiembre	2023-09-09T00:00:00	2024-11-08T01:00:00	7	Dirección del viento	3.22
59395	7	Sololá	710	Panajachel	8	Panajachel	9	Septiembre	2023-09-09T00:00:00	2024-11-08T01:00:00	1	Precipitación	0
59396	7	Sololá	710	Panajachel	8	Panajachel	9	Septiembre	2023-09-09T00:00:00	2024-11-08T01:00:00	8	Radiación solar	0
59397	7	Sololá	710	Panajachel	8	Panajachel	9	Septiembre	2023-09-09T00:00:00	2024-11-08T02:00:00	2	Temperatura media	16.7
59398	7	Sololá	710	Panajachel	8	Panajachel	9	Septiembre	2023-09-09T00:00:00	2024-11-08T02:00:00	4	Temperatura máxima	16.8
59399	7	Sololá	710	Panajachel	8	Panajachel	9	Septiembre	2023-09-09T00:00:00	2024-11-08T02:00:00	3	Temperatura mínima	16.7
59400	7	Sololá	710	Panajachel	8	Panajachel	9	Septiembre	2023-09-09T00:00:00	2024-11-08T02:00:00	5	Humedad	95
59401	7	Sololá	710	Panajachel	8	Panajachel	9	Septiembre	2023-09-09T00:00:00	2024-11-08T02:00:00	6	Velocidad del viento	1.6
59402	7	Sololá	710	Panajachel	8	Panajachel	9	Septiembre	2023-09-09T00:00:00	2024-11-08T02:00:00	7	Dirección del viento	1.61
59403	7	Sololá	710	Panajachel	8	Panajachel	9	Septiembre	2023-09-09T00:00:00	2024-11-08T02:00:00	1	Precipitación	0
59404	7	Sololá	710	Panajachel	8	Panajachel	9	Septiembre	2023-09-09T00:00:00	2024-11-08T02:00:00	8	Radiación solar	0
59405	7	Sololá	710	Panajachel	8	Panajachel	9	Septiembre	2023-09-09T00:00:00	2024-11-08T03:00:00	2	Temperatura media	16.8
59406	7	Sololá	710	Panajachel	8	Panajachel	9	Septiembre	2023-09-09T00:00:00	2024-11-08T03:00:00	4	Temperatura máxima	16.9
59407	7	Sololá	710	Panajachel	8	Panajachel	9	Septiembre	2023-09-09T00:00:00	2024-11-08T03:00:00	3	Temperatura mínima	16.7
59408	7	Sololá	710	Panajachel	8	Panajachel	9	Septiembre	2023-09-09T00:00:00	2024-11-08T03:00:00	5	Humedad	96
59409	7	Sololá	710	Panajachel	8	Panajachel	9	Septiembre	2023-09-09T00:00:00	2024-11-08T03:00:00	6	Velocidad del viento	1.6
59410	7	Sololá	710	Panajachel	8	Panajachel	9	Septiembre	2023-09-09T00:00:00	2024-11-08T03:00:00	7	Dirección del viento	1.61
59411	7	Sololá	710	Panajachel	8	Panajachel	9	Septiembre	2023-09-09T00:00:00	2024-11-08T03:00:00	1	Precipitación	0.2
59412	7	Sololá	710	Panajachel	8	Panajachel	9	Septiembre	2023-09-09T00:00:00	2024-11-08T03:00:00	8	Radiación solar	0
59413	7	Sololá	710	Panajachel	8	Panajachel	9	Septiembre	2023-09-09T00:00:00	2024-11-08T04:00:00	2	Temperatura media	16.8
59414	7	Sololá	710	Panajachel	8	Panajachel	9	Septiembre	2023-09-09T00:00:00	2024-11-08T04:00:00	4	Temperatura máxima	16.9
59415	7	Sololá	710	Panajachel	8	Panajachel	9	Septiembre	2023-09-09T00:00:00	2024-11-08T04:00:00	3	Temperatura mínima	16.8
59416	7	Sololá	710	Panajachel	8	Panajachel	9	Septiembre	2023-09-09T00:00:00	2024-11-08T04:00:00	5	Humedad	92
59417	7	Sololá	710	Panajachel	8	Panajachel	9	Septiembre	2023-09-09T00:00:00	2024-11-08T04:00:00	6	Velocidad del viento	1.6
59418	7	Sololá	710	Panajachel	8	Panajachel	9	Septiembre	2023-09-09T00:00:00	2024-11-08T04:00:00	7	Dirección del viento	1.61
59419	7	Sololá	710	Panajachel	8	Panajachel	9	Septiembre	2023-09-09T00:00:00	2024-11-08T04:00:00	1	Precipitación	0
59420	7	Sololá	710	Panajachel	8	Panajachel	9	Septiembre	2023-09-09T00:00:00	2024-11-08T04:00:00	8	Radiación solar	0
59421	7	Sololá	710	Panajachel	8	Panajachel	9	Septiembre	2023-09-09T00:00:00	2024-11-08T05:00:00	2	Temperatura media	16.6
59422	7	Sololá	710	Panajachel	8	Panajachel	9	Septiembre	2023-09-09T00:00:00	2024-11-08T05:00:00	4	Temperatura máxima	17.2
59423	7	Sololá	710	Panajachel	8	Panajachel	9	Septiembre	2023-09-09T00:00:00	2024-11-08T05:00:00	3	Temperatura mínima	16.6
59424	7	Sololá	710	Panajachel	8	Panajachel	9	Septiembre	2023-09-09T00:00:00	2024-11-08T05:00:00	5	Humedad	90
59425	7	Sololá	710	Panajachel	8	Panajachel	9	Septiembre	2023-09-09T00:00:00	2024-11-08T05:00:00	6	Velocidad del viento	3.2
59426	7	Sololá	710	Panajachel	8	Panajachel	9	Septiembre	2023-09-09T00:00:00	2024-11-08T05:00:00	7	Dirección del viento	3.22
59427	7	Sololá	710	Panajachel	8	Panajachel	9	Septiembre	2023-09-09T00:00:00	2024-11-08T05:00:00	1	Precipitación	0.2
59428	7	Sololá	710	Panajachel	8	Panajachel	9	Septiembre	2023-09-09T00:00:00	2024-11-08T05:00:00	8	Radiación solar	0
59429	7	Sololá	710	Panajachel	8	Panajachel	9	Septiembre	2023-09-09T00:00:00	2024-11-08T06:00:00	2	Temperatura media	16.3
59430	7	Sololá	710	Panajachel	8	Panajachel	9	Septiembre	2023-09-09T00:00:00	2024-11-08T06:00:00	4	Temperatura máxima	16.6
59431	7	Sololá	710	Panajachel	8	Panajachel	9	Septiembre	2023-09-09T00:00:00	2024-11-08T06:00:00	3	Temperatura mínima	16.3
59432	7	Sololá	710	Panajachel	8	Panajachel	9	Septiembre	2023-09-09T00:00:00	2024-11-08T06:00:00	5	Humedad	88
59433	7	Sololá	710	Panajachel	8	Panajachel	9	Septiembre	2023-09-09T00:00:00	2024-11-08T06:00:00	6	Velocidad del viento	4.8
59434	7	Sololá	710	Panajachel	8	Panajachel	9	Septiembre	2023-09-09T00:00:00	2024-11-08T06:00:00	7	Dirección del viento	4.83
59435	7	Sololá	710	Panajachel	8	Panajachel	9	Septiembre	2023-09-09T00:00:00	2024-11-08T06:00:00	1	Precipitación	0
59436	7	Sololá	710	Panajachel	8	Panajachel	9	Septiembre	2023-09-09T00:00:00	2024-11-08T06:00:00	8	Radiación solar	1
59437	7	Sololá	710	Panajachel	8	Panajachel	9	Septiembre	2023-09-09T00:00:00	2024-11-08T07:00:00	2	Temperatura media	16.9
59438	7	Sololá	710	Panajachel	8	Panajachel	9	Septiembre	2023-09-09T00:00:00	2024-11-08T07:00:00	4	Temperatura máxima	16.9
59439	7	Sololá	710	Panajachel	8	Panajachel	9	Septiembre	2023-09-09T00:00:00	2024-11-08T07:00:00	3	Temperatura mínima	15.8
59440	7	Sololá	710	Panajachel	8	Panajachel	9	Septiembre	2023-09-09T00:00:00	2024-11-08T07:00:00	5	Humedad	88
59441	7	Sololá	710	Panajachel	8	Panajachel	9	Septiembre	2023-09-09T00:00:00	2024-11-08T07:00:00	6	Velocidad del viento	4.8
59442	7	Sololá	710	Panajachel	8	Panajachel	9	Septiembre	2023-09-09T00:00:00	2024-11-08T07:00:00	7	Dirección del viento	4.83
59443	7	Sololá	710	Panajachel	8	Panajachel	9	Septiembre	2023-09-09T00:00:00	2024-11-08T07:00:00	1	Precipitación	0
59444	7	Sololá	710	Panajachel	8	Panajachel	9	Septiembre	2023-09-09T00:00:00	2024-11-08T07:00:00	8	Radiación solar	52
59445	7	Sololá	710	Panajachel	8	Panajachel	9	Septiembre	2023-09-09T00:00:00	2024-11-08T08:00:00	2	Temperatura media	20.3
59446	7	Sololá	710	Panajachel	8	Panajachel	9	Septiembre	2023-09-09T00:00:00	2024-11-08T08:00:00	4	Temperatura máxima	20.3
59447	7	Sololá	710	Panajachel	8	Panajachel	9	Septiembre	2023-09-09T00:00:00	2024-11-08T08:00:00	3	Temperatura mínima	16.9
59448	7	Sololá	710	Panajachel	8	Panajachel	9	Septiembre	2023-09-09T00:00:00	2024-11-08T08:00:00	5	Humedad	81
59449	7	Sololá	710	Panajachel	8	Panajachel	9	Septiembre	2023-09-09T00:00:00	2024-11-08T08:00:00	6	Velocidad del viento	3.2
59450	7	Sololá	710	Panajachel	8	Panajachel	9	Septiembre	2023-09-09T00:00:00	2024-11-08T08:00:00	7	Dirección del viento	3.22
59451	7	Sololá	710	Panajachel	8	Panajachel	9	Septiembre	2023-09-09T00:00:00	2024-11-08T08:00:00	1	Precipitación	0
59452	7	Sololá	710	Panajachel	8	Panajachel	9	Septiembre	2023-09-09T00:00:00	2024-11-08T08:00:00	8	Radiación solar	273
59453	7	Sololá	710	Panajachel	8	Panajachel	9	Septiembre	2023-09-09T00:00:00	2024-11-08T09:00:00	2	Temperatura media	21.4
59454	7	Sololá	710	Panajachel	8	Panajachel	9	Septiembre	2023-09-09T00:00:00	2024-11-08T09:00:00	4	Temperatura máxima	21.4
59455	7	Sololá	710	Panajachel	8	Panajachel	9	Septiembre	2023-09-09T00:00:00	2024-11-08T09:00:00	3	Temperatura mínima	20.2
59456	7	Sololá	710	Panajachel	8	Panajachel	9	Septiembre	2023-09-09T00:00:00	2024-11-08T09:00:00	5	Humedad	79
59457	7	Sololá	710	Panajachel	8	Panajachel	9	Septiembre	2023-09-09T00:00:00	2024-11-08T09:00:00	6	Velocidad del viento	0
59458	7	Sololá	710	Panajachel	8	Panajachel	9	Septiembre	2023-09-09T00:00:00	2024-11-08T09:00:00	7	Dirección del viento	0
59459	7	Sololá	710	Panajachel	8	Panajachel	9	Septiembre	2023-09-09T00:00:00	2024-11-08T09:00:00	1	Precipitación	0
59460	7	Sololá	710	Panajachel	8	Panajachel	9	Septiembre	2023-09-09T00:00:00	2024-11-08T09:00:00	8	Radiación solar	372
59461	7	Sololá	710	Panajachel	8	Panajachel	9	Septiembre	2023-09-09T00:00:00	2024-11-08T10:00:00	2	Temperatura media	23.1
59462	7	Sololá	710	Panajachel	8	Panajachel	9	Septiembre	2023-09-09T00:00:00	2024-11-08T10:00:00	4	Temperatura máxima	23.1
59463	7	Sololá	710	Panajachel	8	Panajachel	9	Septiembre	2023-09-09T00:00:00	2024-11-08T10:00:00	3	Temperatura mínima	21.1
59464	7	Sololá	710	Panajachel	8	Panajachel	9	Septiembre	2023-09-09T00:00:00	2024-11-08T10:00:00	5	Humedad	71
59465	7	Sololá	710	Panajachel	8	Panajachel	9	Septiembre	2023-09-09T00:00:00	2024-11-08T10:00:00	6	Velocidad del viento	3.2
59466	7	Sololá	710	Panajachel	8	Panajachel	9	Septiembre	2023-09-09T00:00:00	2024-11-08T10:00:00	7	Dirección del viento	3.22
59467	7	Sololá	710	Panajachel	8	Panajachel	9	Septiembre	2023-09-09T00:00:00	2024-11-08T10:00:00	1	Precipitación	0
59468	7	Sololá	710	Panajachel	8	Panajachel	9	Septiembre	2023-09-09T00:00:00	2024-11-08T10:00:00	8	Radiación solar	696
59469	7	Sololá	710	Panajachel	8	Panajachel	9	Septiembre	2023-09-09T00:00:00	2024-11-08T11:00:00	2	Temperatura media	23.5
59470	7	Sololá	710	Panajachel	8	Panajachel	9	Septiembre	2023-09-09T00:00:00	2024-11-08T11:00:00	4	Temperatura máxima	23.5
59471	7	Sololá	710	Panajachel	8	Panajachel	9	Septiembre	2023-09-09T00:00:00	2024-11-08T11:00:00	3	Temperatura mínima	22.8
59472	7	Sololá	710	Panajachel	8	Panajachel	9	Septiembre	2023-09-09T00:00:00	2024-11-08T11:00:00	5	Humedad	67
59473	7	Sololá	710	Panajachel	8	Panajachel	9	Septiembre	2023-09-09T00:00:00	2024-11-08T11:00:00	6	Velocidad del viento	1.6
59474	7	Sololá	710	Panajachel	8	Panajachel	9	Septiembre	2023-09-09T00:00:00	2024-11-08T11:00:00	7	Dirección del viento	1.61
59475	7	Sololá	710	Panajachel	8	Panajachel	9	Septiembre	2023-09-09T00:00:00	2024-11-08T11:00:00	1	Precipitación	0
59476	7	Sololá	710	Panajachel	8	Panajachel	9	Septiembre	2023-09-09T00:00:00	2024-11-08T11:00:00	8	Radiación solar	797
59477	7	Sololá	710	Panajachel	8	Panajachel	9	Septiembre	2023-09-09T00:00:00	2024-11-08T12:00:00	2	Temperatura media	24.1
59478	7	Sololá	710	Panajachel	8	Panajachel	9	Septiembre	2023-09-09T00:00:00	2024-11-08T12:00:00	4	Temperatura máxima	24.1
59479	7	Sololá	710	Panajachel	8	Panajachel	9	Septiembre	2023-09-09T00:00:00	2024-11-08T12:00:00	3	Temperatura mínima	23.4
59480	7	Sololá	710	Panajachel	8	Panajachel	9	Septiembre	2023-09-09T00:00:00	2024-11-08T12:00:00	5	Humedad	71
59481	7	Sololá	710	Panajachel	8	Panajachel	9	Septiembre	2023-09-09T00:00:00	2024-11-08T12:00:00	6	Velocidad del viento	0
59482	7	Sololá	710	Panajachel	8	Panajachel	9	Septiembre	2023-09-09T00:00:00	2024-11-08T12:00:00	7	Dirección del viento	0
59483	7	Sololá	710	Panajachel	8	Panajachel	9	Septiembre	2023-09-09T00:00:00	2024-11-08T12:00:00	1	Precipitación	0
59484	7	Sololá	710	Panajachel	8	Panajachel	9	Septiembre	2023-09-09T00:00:00	2024-11-08T12:00:00	8	Radiación solar	855
59485	7	Sololá	710	Panajachel	8	Panajachel	9	Septiembre	2023-09-09T00:00:00	2024-11-08T13:00:00	2	Temperatura media	24.3
59486	7	Sololá	710	Panajachel	8	Panajachel	9	Septiembre	2023-09-09T00:00:00	2024-11-08T13:00:00	4	Temperatura máxima	24.8
59487	7	Sololá	710	Panajachel	8	Panajachel	9	Septiembre	2023-09-09T00:00:00	2024-11-08T13:00:00	3	Temperatura mínima	23.8
59488	7	Sololá	710	Panajachel	8	Panajachel	9	Septiembre	2023-09-09T00:00:00	2024-11-08T13:00:00	5	Humedad	72
59489	7	Sololá	710	Panajachel	8	Panajachel	9	Septiembre	2023-09-09T00:00:00	2024-11-08T13:00:00	6	Velocidad del viento	0
59490	7	Sololá	710	Panajachel	8	Panajachel	9	Septiembre	2023-09-09T00:00:00	2024-11-08T13:00:00	7	Dirección del viento	0
59491	7	Sololá	710	Panajachel	8	Panajachel	9	Septiembre	2023-09-09T00:00:00	2024-11-08T13:00:00	1	Precipitación	0
59492	7	Sololá	710	Panajachel	8	Panajachel	9	Septiembre	2023-09-09T00:00:00	2024-11-08T13:00:00	8	Radiación solar	929
59493	7	Sololá	710	Panajachel	8	Panajachel	9	Septiembre	2023-09-09T00:00:00	2024-11-08T14:00:00	2	Temperatura media	23.6
59494	7	Sololá	710	Panajachel	8	Panajachel	9	Septiembre	2023-09-09T00:00:00	2024-11-08T14:00:00	4	Temperatura máxima	24.5
59495	7	Sololá	710	Panajachel	8	Panajachel	9	Septiembre	2023-09-09T00:00:00	2024-11-08T14:00:00	3	Temperatura mínima	23.6
59496	7	Sololá	710	Panajachel	8	Panajachel	9	Septiembre	2023-09-09T00:00:00	2024-11-08T14:00:00	5	Humedad	76
59497	7	Sololá	710	Panajachel	8	Panajachel	9	Septiembre	2023-09-09T00:00:00	2024-11-08T14:00:00	6	Velocidad del viento	0
59498	7	Sololá	710	Panajachel	8	Panajachel	9	Septiembre	2023-09-09T00:00:00	2024-11-08T14:00:00	7	Dirección del viento	0
59499	7	Sololá	710	Panajachel	8	Panajachel	9	Septiembre	2023-09-09T00:00:00	2024-11-08T14:00:00	1	Precipitación	0
59500	7	Sololá	710	Panajachel	8	Panajachel	9	Septiembre	2023-09-09T00:00:00	2024-11-08T14:00:00	8	Radiación solar	302
59501	7	Sololá	710	Panajachel	8	Panajachel	9	Septiembre	2023-09-09T00:00:00	2024-11-08T15:00:00	2	Temperatura media	22.6
59502	7	Sololá	710	Panajachel	8	Panajachel	9	Septiembre	2023-09-09T00:00:00	2024-11-08T15:00:00	4	Temperatura máxima	24.2
59503	7	Sololá	710	Panajachel	8	Panajachel	9	Septiembre	2023-09-09T00:00:00	2024-11-08T15:00:00	3	Temperatura mínima	22.6
59504	7	Sololá	710	Panajachel	8	Panajachel	9	Septiembre	2023-09-09T00:00:00	2024-11-08T15:00:00	5	Humedad	88
59505	7	Sololá	710	Panajachel	8	Panajachel	9	Septiembre	2023-09-09T00:00:00	2024-11-08T15:00:00	6	Velocidad del viento	0
59506	7	Sololá	710	Panajachel	8	Panajachel	9	Septiembre	2023-09-09T00:00:00	2024-11-08T15:00:00	7	Dirección del viento	0
59507	7	Sololá	710	Panajachel	8	Panajachel	9	Septiembre	2023-09-09T00:00:00	2024-11-08T15:00:00	1	Precipitación	0.4
59508	7	Sololá	710	Panajachel	8	Panajachel	9	Septiembre	2023-09-09T00:00:00	2024-11-08T15:00:00	8	Radiación solar	243
59509	7	Sololá	710	Panajachel	8	Panajachel	9	Septiembre	2023-09-09T00:00:00	2024-11-08T16:00:00	2	Temperatura media	19.5
59510	7	Sololá	710	Panajachel	8	Panajachel	9	Septiembre	2023-09-09T00:00:00	2024-11-08T16:00:00	4	Temperatura máxima	22.6
59511	7	Sololá	710	Panajachel	8	Panajachel	9	Septiembre	2023-09-09T00:00:00	2024-11-08T16:00:00	3	Temperatura mínima	19.4
59512	7	Sololá	710	Panajachel	8	Panajachel	9	Septiembre	2023-09-09T00:00:00	2024-11-08T16:00:00	5	Humedad	94
59513	7	Sololá	710	Panajachel	8	Panajachel	9	Septiembre	2023-09-09T00:00:00	2024-11-08T16:00:00	6	Velocidad del viento	3.2
59514	7	Sololá	710	Panajachel	8	Panajachel	9	Septiembre	2023-09-09T00:00:00	2024-11-08T16:00:00	7	Dirección del viento	3.22
59515	7	Sololá	710	Panajachel	8	Panajachel	9	Septiembre	2023-09-09T00:00:00	2024-11-08T16:00:00	1	Precipitación	10.6
59516	7	Sololá	710	Panajachel	8	Panajachel	9	Septiembre	2023-09-09T00:00:00	2024-11-08T16:00:00	8	Radiación solar	25
59517	7	Sololá	710	Panajachel	8	Panajachel	9	Septiembre	2023-09-09T00:00:00	2024-11-08T17:00:00	2	Temperatura media	19.3
59518	7	Sololá	710	Panajachel	8	Panajachel	9	Septiembre	2023-09-09T00:00:00	2024-11-08T17:00:00	4	Temperatura máxima	19.5
59519	7	Sololá	710	Panajachel	8	Panajachel	9	Septiembre	2023-09-09T00:00:00	2024-11-08T17:00:00	3	Temperatura mínima	19.2
59520	7	Sololá	710	Panajachel	8	Panajachel	9	Septiembre	2023-09-09T00:00:00	2024-11-08T17:00:00	5	Humedad	93
59521	7	Sololá	710	Panajachel	8	Panajachel	9	Septiembre	2023-09-09T00:00:00	2024-11-08T17:00:00	6	Velocidad del viento	1.6
59522	7	Sololá	710	Panajachel	8	Panajachel	9	Septiembre	2023-09-09T00:00:00	2024-11-08T17:00:00	7	Dirección del viento	1.61
59523	7	Sololá	710	Panajachel	8	Panajachel	9	Septiembre	2023-09-09T00:00:00	2024-11-08T17:00:00	1	Precipitación	0.2
59524	7	Sololá	710	Panajachel	8	Panajachel	9	Septiembre	2023-09-09T00:00:00	2024-11-08T17:00:00	8	Radiación solar	16
59525	7	Sololá	710	Panajachel	8	Panajachel	9	Septiembre	2023-09-09T00:00:00	2024-11-08T18:00:00	2	Temperatura media	19.3
59526	7	Sololá	710	Panajachel	8	Panajachel	9	Septiembre	2023-09-09T00:00:00	2024-11-08T18:00:00	4	Temperatura máxima	19.6
59527	7	Sololá	710	Panajachel	8	Panajachel	9	Septiembre	2023-09-09T00:00:00	2024-11-08T18:00:00	3	Temperatura mínima	19.3
59528	7	Sololá	710	Panajachel	8	Panajachel	9	Septiembre	2023-09-09T00:00:00	2024-11-08T18:00:00	5	Humedad	95
59529	7	Sololá	710	Panajachel	8	Panajachel	9	Septiembre	2023-09-09T00:00:00	2024-11-08T18:00:00	6	Velocidad del viento	0
59530	7	Sololá	710	Panajachel	8	Panajachel	9	Septiembre	2023-09-09T00:00:00	2024-11-08T18:00:00	7	Dirección del viento	0
59531	7	Sololá	710	Panajachel	8	Panajachel	9	Septiembre	2023-09-09T00:00:00	2024-11-08T18:00:00	1	Precipitación	0
59532	7	Sololá	710	Panajachel	8	Panajachel	9	Septiembre	2023-09-09T00:00:00	2024-11-08T18:00:00	8	Radiación solar	10
59533	7	Sololá	710	Panajachel	8	Panajachel	9	Septiembre	2023-09-09T00:00:00	2024-11-08T19:00:00	2	Temperatura media	19.2
59534	7	Sololá	710	Panajachel	8	Panajachel	9	Septiembre	2023-09-09T00:00:00	2024-11-08T19:00:00	4	Temperatura máxima	19.3
59535	7	Sololá	710	Panajachel	8	Panajachel	9	Septiembre	2023-09-09T00:00:00	2024-11-08T19:00:00	3	Temperatura mínima	19.1
59536	7	Sololá	710	Panajachel	8	Panajachel	9	Septiembre	2023-09-09T00:00:00	2024-11-08T19:00:00	5	Humedad	96
59537	7	Sololá	710	Panajachel	8	Panajachel	9	Septiembre	2023-09-09T00:00:00	2024-11-08T19:00:00	6	Velocidad del viento	0
59538	7	Sololá	710	Panajachel	8	Panajachel	9	Septiembre	2023-09-09T00:00:00	2024-11-08T19:00:00	7	Dirección del viento	0
59539	7	Sololá	710	Panajachel	8	Panajachel	9	Septiembre	2023-09-09T00:00:00	2024-11-08T19:00:00	1	Precipitación	0
59540	7	Sololá	710	Panajachel	8	Panajachel	9	Septiembre	2023-09-09T00:00:00	2024-11-08T19:00:00	8	Radiación solar	0
59541	7	Sololá	710	Panajachel	8	Panajachel	9	Septiembre	2023-09-09T00:00:00	2024-11-08T20:00:00	2	Temperatura media	19.1
59542	7	Sololá	710	Panajachel	8	Panajachel	9	Septiembre	2023-09-09T00:00:00	2024-11-08T20:00:00	4	Temperatura máxima	19.2
59543	7	Sololá	710	Panajachel	8	Panajachel	9	Septiembre	2023-09-09T00:00:00	2024-11-08T20:00:00	3	Temperatura mínima	19
59544	7	Sololá	710	Panajachel	8	Panajachel	9	Septiembre	2023-09-09T00:00:00	2024-11-08T20:00:00	5	Humedad	96
59545	7	Sololá	710	Panajachel	8	Panajachel	9	Septiembre	2023-09-09T00:00:00	2024-11-08T20:00:00	6	Velocidad del viento	0
59546	7	Sololá	710	Panajachel	8	Panajachel	9	Septiembre	2023-09-09T00:00:00	2024-11-08T20:00:00	7	Dirección del viento	0
59547	7	Sololá	710	Panajachel	8	Panajachel	9	Septiembre	2023-09-09T00:00:00	2024-11-08T20:00:00	1	Precipitación	0
59548	7	Sololá	710	Panajachel	8	Panajachel	9	Septiembre	2023-09-09T00:00:00	2024-11-08T20:00:00	8	Radiación solar	0
59549	7	Sololá	710	Panajachel	8	Panajachel	9	Septiembre	2023-09-09T00:00:00	2024-11-08T21:00:00	2	Temperatura media	18.8
59550	7	Sololá	710	Panajachel	8	Panajachel	9	Septiembre	2023-09-09T00:00:00	2024-11-08T21:00:00	4	Temperatura máxima	19.1
59551	7	Sololá	710	Panajachel	8	Panajachel	9	Septiembre	2023-09-09T00:00:00	2024-11-08T21:00:00	3	Temperatura mínima	18.8
59552	7	Sololá	710	Panajachel	8	Panajachel	9	Septiembre	2023-09-09T00:00:00	2024-11-08T21:00:00	5	Humedad	95
59553	7	Sololá	710	Panajachel	8	Panajachel	9	Septiembre	2023-09-09T00:00:00	2024-11-08T21:00:00	6	Velocidad del viento	1.6
59554	7	Sololá	710	Panajachel	8	Panajachel	9	Septiembre	2023-09-09T00:00:00	2024-11-08T21:00:00	7	Dirección del viento	1.61
59555	7	Sololá	710	Panajachel	8	Panajachel	9	Septiembre	2023-09-09T00:00:00	2024-11-08T21:00:00	1	Precipitación	0
59556	7	Sololá	710	Panajachel	8	Panajachel	9	Septiembre	2023-09-09T00:00:00	2024-11-08T21:00:00	8	Radiación solar	0
59557	7	Sololá	710	Panajachel	8	Panajachel	9	Septiembre	2023-09-09T00:00:00	2024-11-08T22:00:00	2	Temperatura media	18.7
59558	7	Sololá	710	Panajachel	8	Panajachel	9	Septiembre	2023-09-09T00:00:00	2024-11-08T22:00:00	4	Temperatura máxima	18.9
59559	7	Sololá	710	Panajachel	8	Panajachel	9	Septiembre	2023-09-09T00:00:00	2024-11-08T22:00:00	3	Temperatura mínima	18.6
59560	7	Sololá	710	Panajachel	8	Panajachel	9	Septiembre	2023-09-09T00:00:00	2024-11-08T22:00:00	5	Humedad	92
59561	7	Sololá	710	Panajachel	8	Panajachel	9	Septiembre	2023-09-09T00:00:00	2024-11-08T22:00:00	6	Velocidad del viento	1.6
59562	7	Sololá	710	Panajachel	8	Panajachel	9	Septiembre	2023-09-09T00:00:00	2024-11-08T22:00:00	7	Dirección del viento	1.61
59563	7	Sololá	710	Panajachel	8	Panajachel	9	Septiembre	2023-09-09T00:00:00	2024-11-08T22:00:00	1	Precipitación	0
59564	7	Sololá	710	Panajachel	8	Panajachel	9	Septiembre	2023-09-09T00:00:00	2024-11-08T22:00:00	8	Radiación solar	0
59565	7	Sololá	710	Panajachel	8	Panajachel	9	Septiembre	2023-09-09T00:00:00	2024-11-08T23:00:00	2	Temperatura media	18.6
59566	7	Sololá	710	Panajachel	8	Panajachel	9	Septiembre	2023-09-09T00:00:00	2024-11-08T23:00:00	4	Temperatura máxima	18.8
59567	7	Sololá	710	Panajachel	8	Panajachel	9	Septiembre	2023-09-09T00:00:00	2024-11-08T23:00:00	3	Temperatura mínima	18.6
59568	7	Sololá	710	Panajachel	8	Panajachel	9	Septiembre	2023-09-09T00:00:00	2024-11-08T23:00:00	5	Humedad	93
59569	7	Sololá	710	Panajachel	8	Panajachel	9	Septiembre	2023-09-09T00:00:00	2024-11-08T23:00:00	6	Velocidad del viento	0
59570	7	Sololá	710	Panajachel	8	Panajachel	9	Septiembre	2023-09-09T00:00:00	2024-11-08T23:00:00	7	Dirección del viento	0
59571	7	Sololá	710	Panajachel	8	Panajachel	9	Septiembre	2023-09-09T00:00:00	2024-11-08T23:00:00	1	Precipitación	0
59572	7	Sololá	710	Panajachel	8	Panajachel	9	Septiembre	2023-09-09T00:00:00	2024-11-08T23:00:00	8	Radiación solar	0
59573	7	Sololá	710	Panajachel	8	Panajachel	9	Septiembre	2023-10-09T00:00:00	2024-11-08T00:00:00	2	Temperatura media	18.5
59574	7	Sololá	710	Panajachel	8	Panajachel	9	Septiembre	2023-10-09T00:00:00	2024-11-08T00:00:00	4	Temperatura máxima	18.7
59575	7	Sololá	710	Panajachel	8	Panajachel	9	Septiembre	2023-10-09T00:00:00	2024-11-08T00:00:00	3	Temperatura mínima	18.4
59576	7	Sololá	710	Panajachel	8	Panajachel	9	Septiembre	2023-10-09T00:00:00	2024-11-08T00:00:00	5	Humedad	90
59577	7	Sololá	710	Panajachel	8	Panajachel	9	Septiembre	2023-10-09T00:00:00	2024-11-08T00:00:00	6	Velocidad del viento	1.6
59578	7	Sololá	710	Panajachel	8	Panajachel	9	Septiembre	2023-10-09T00:00:00	2024-11-08T00:00:00	7	Dirección del viento	1.61
59579	7	Sololá	710	Panajachel	8	Panajachel	9	Septiembre	2023-10-09T00:00:00	2024-11-08T00:00:00	1	Precipitación	0
59580	7	Sololá	710	Panajachel	8	Panajachel	9	Septiembre	2023-10-09T00:00:00	2024-11-08T00:00:00	8	Radiación solar	0
59581	7	Sololá	710	Panajachel	8	Panajachel	9	Septiembre	2023-10-09T00:00:00	2024-11-08T01:00:00	2	Temperatura media	18.4
59582	7	Sololá	710	Panajachel	8	Panajachel	9	Septiembre	2023-10-09T00:00:00	2024-11-08T01:00:00	4	Temperatura máxima	18.7
59583	7	Sololá	710	Panajachel	8	Panajachel	9	Septiembre	2023-10-09T00:00:00	2024-11-08T01:00:00	3	Temperatura mínima	18.4
59584	7	Sololá	710	Panajachel	8	Panajachel	9	Septiembre	2023-10-09T00:00:00	2024-11-08T01:00:00	5	Humedad	87
59585	7	Sololá	710	Panajachel	8	Panajachel	9	Septiembre	2023-10-09T00:00:00	2024-11-08T01:00:00	6	Velocidad del viento	1.6
59586	7	Sololá	710	Panajachel	8	Panajachel	9	Septiembre	2023-10-09T00:00:00	2024-11-08T01:00:00	7	Dirección del viento	1.61
59587	7	Sololá	710	Panajachel	8	Panajachel	9	Septiembre	2023-10-09T00:00:00	2024-11-08T01:00:00	1	Precipitación	0
59588	7	Sololá	710	Panajachel	8	Panajachel	9	Septiembre	2023-10-09T00:00:00	2024-11-08T01:00:00	8	Radiación solar	0
59589	7	Sololá	710	Panajachel	8	Panajachel	9	Septiembre	2023-10-09T00:00:00	2024-11-08T02:00:00	2	Temperatura media	18.1
59590	7	Sololá	710	Panajachel	8	Panajachel	9	Septiembre	2023-10-09T00:00:00	2024-11-08T02:00:00	4	Temperatura máxima	18.4
59591	7	Sololá	710	Panajachel	8	Panajachel	9	Septiembre	2023-10-09T00:00:00	2024-11-08T02:00:00	3	Temperatura mínima	18.1
59592	7	Sololá	710	Panajachel	8	Panajachel	9	Septiembre	2023-10-09T00:00:00	2024-11-08T02:00:00	5	Humedad	88
59593	7	Sololá	710	Panajachel	8	Panajachel	9	Septiembre	2023-10-09T00:00:00	2024-11-08T02:00:00	6	Velocidad del viento	1.6
59594	7	Sololá	710	Panajachel	8	Panajachel	9	Septiembre	2023-10-09T00:00:00	2024-11-08T02:00:00	7	Dirección del viento	1.61
59595	7	Sololá	710	Panajachel	8	Panajachel	9	Septiembre	2023-10-09T00:00:00	2024-11-08T02:00:00	1	Precipitación	0
59596	7	Sololá	710	Panajachel	8	Panajachel	9	Septiembre	2023-10-09T00:00:00	2024-11-08T02:00:00	8	Radiación solar	0
59597	7	Sololá	710	Panajachel	8	Panajachel	9	Septiembre	2023-10-09T00:00:00	2024-11-08T03:00:00	2	Temperatura media	18
59598	7	Sololá	710	Panajachel	8	Panajachel	9	Septiembre	2023-10-09T00:00:00	2024-11-08T03:00:00	4	Temperatura máxima	18.1
59599	7	Sololá	710	Panajachel	8	Panajachel	9	Septiembre	2023-10-09T00:00:00	2024-11-08T03:00:00	3	Temperatura mínima	17.9
59600	7	Sololá	710	Panajachel	8	Panajachel	9	Septiembre	2023-10-09T00:00:00	2024-11-08T03:00:00	5	Humedad	88
59601	7	Sololá	710	Panajachel	8	Panajachel	9	Septiembre	2023-10-09T00:00:00	2024-11-08T03:00:00	6	Velocidad del viento	3.2
59602	7	Sololá	710	Panajachel	8	Panajachel	9	Septiembre	2023-10-09T00:00:00	2024-11-08T03:00:00	7	Dirección del viento	3.22
59603	7	Sololá	710	Panajachel	8	Panajachel	9	Septiembre	2023-10-09T00:00:00	2024-11-08T03:00:00	1	Precipitación	0
59604	7	Sololá	710	Panajachel	8	Panajachel	9	Septiembre	2023-10-09T00:00:00	2024-11-08T03:00:00	8	Radiación solar	0
59605	7	Sololá	710	Panajachel	8	Panajachel	9	Septiembre	2023-10-09T00:00:00	2024-11-08T04:00:00	2	Temperatura media	17.9
59606	7	Sololá	710	Panajachel	8	Panajachel	9	Septiembre	2023-10-09T00:00:00	2024-11-08T04:00:00	4	Temperatura máxima	18.1
59607	7	Sololá	710	Panajachel	8	Panajachel	9	Septiembre	2023-10-09T00:00:00	2024-11-08T04:00:00	3	Temperatura mínima	17.8
59608	7	Sololá	710	Panajachel	8	Panajachel	9	Septiembre	2023-10-09T00:00:00	2024-11-08T04:00:00	5	Humedad	86
59609	7	Sololá	710	Panajachel	8	Panajachel	9	Septiembre	2023-10-09T00:00:00	2024-11-08T04:00:00	6	Velocidad del viento	1.6
59610	7	Sololá	710	Panajachel	8	Panajachel	9	Septiembre	2023-10-09T00:00:00	2024-11-08T04:00:00	7	Dirección del viento	1.61
59611	7	Sololá	710	Panajachel	8	Panajachel	9	Septiembre	2023-10-09T00:00:00	2024-11-08T04:00:00	1	Precipitación	0
59612	7	Sololá	710	Panajachel	8	Panajachel	9	Septiembre	2023-10-09T00:00:00	2024-11-08T04:00:00	8	Radiación solar	0
59613	7	Sololá	710	Panajachel	8	Panajachel	9	Septiembre	2023-10-09T00:00:00	2024-11-08T05:00:00	2	Temperatura media	18.5
59614	7	Sololá	710	Panajachel	8	Panajachel	9	Septiembre	2023-10-09T00:00:00	2024-11-08T05:00:00	4	Temperatura máxima	18.5
59615	7	Sololá	710	Panajachel	8	Panajachel	9	Septiembre	2023-10-09T00:00:00	2024-11-08T05:00:00	3	Temperatura mínima	17.9
59616	7	Sololá	710	Panajachel	8	Panajachel	9	Septiembre	2023-10-09T00:00:00	2024-11-08T05:00:00	5	Humedad	83
59617	7	Sololá	710	Panajachel	8	Panajachel	9	Septiembre	2023-10-09T00:00:00	2024-11-08T05:00:00	6	Velocidad del viento	1.6
59618	7	Sololá	710	Panajachel	8	Panajachel	9	Septiembre	2023-10-09T00:00:00	2024-11-08T05:00:00	7	Dirección del viento	1.61
59619	7	Sololá	710	Panajachel	8	Panajachel	9	Septiembre	2023-10-09T00:00:00	2024-11-08T05:00:00	1	Precipitación	0
59620	7	Sololá	710	Panajachel	8	Panajachel	9	Septiembre	2023-10-09T00:00:00	2024-11-08T05:00:00	8	Radiación solar	0
59621	7	Sololá	710	Panajachel	8	Panajachel	9	Septiembre	2023-10-09T00:00:00	2024-11-08T06:00:00	2	Temperatura media	18.1
59622	7	Sololá	710	Panajachel	8	Panajachel	9	Septiembre	2023-10-09T00:00:00	2024-11-08T06:00:00	4	Temperatura máxima	18.5
59623	7	Sololá	710	Panajachel	8	Panajachel	9	Septiembre	2023-10-09T00:00:00	2024-11-08T06:00:00	3	Temperatura mínima	18.1
59624	7	Sololá	710	Panajachel	8	Panajachel	9	Septiembre	2023-10-09T00:00:00	2024-11-08T06:00:00	5	Humedad	83
59625	7	Sololá	710	Panajachel	8	Panajachel	9	Septiembre	2023-10-09T00:00:00	2024-11-08T06:00:00	6	Velocidad del viento	1.6
59626	7	Sololá	710	Panajachel	8	Panajachel	9	Septiembre	2023-10-09T00:00:00	2024-11-08T06:00:00	7	Dirección del viento	1.61
59627	7	Sololá	710	Panajachel	8	Panajachel	9	Septiembre	2023-10-09T00:00:00	2024-11-08T06:00:00	1	Precipitación	0
59628	7	Sololá	710	Panajachel	8	Panajachel	9	Septiembre	2023-10-09T00:00:00	2024-11-08T06:00:00	8	Radiación solar	0
59629	7	Sololá	710	Panajachel	8	Panajachel	9	Septiembre	2023-10-09T00:00:00	2024-11-08T07:00:00	2	Temperatura media	18.2
59630	7	Sololá	710	Panajachel	8	Panajachel	9	Septiembre	2023-10-09T00:00:00	2024-11-08T07:00:00	4	Temperatura máxima	18.3
59631	7	Sololá	710	Panajachel	8	Panajachel	9	Septiembre	2023-10-09T00:00:00	2024-11-08T07:00:00	3	Temperatura mínima	17.9
59632	7	Sololá	710	Panajachel	8	Panajachel	9	Septiembre	2023-10-09T00:00:00	2024-11-08T07:00:00	5	Humedad	84
59633	7	Sololá	710	Panajachel	8	Panajachel	9	Septiembre	2023-10-09T00:00:00	2024-11-08T07:00:00	6	Velocidad del viento	1.6
59634	7	Sololá	710	Panajachel	8	Panajachel	9	Septiembre	2023-10-09T00:00:00	2024-11-08T07:00:00	7	Dirección del viento	1.61
59635	7	Sololá	710	Panajachel	8	Panajachel	9	Septiembre	2023-10-09T00:00:00	2024-11-08T07:00:00	1	Precipitación	0
59636	7	Sololá	710	Panajachel	8	Panajachel	9	Septiembre	2023-10-09T00:00:00	2024-11-08T07:00:00	8	Radiación solar	18
59637	7	Sololá	710	Panajachel	8	Panajachel	9	Septiembre	2023-10-09T00:00:00	2024-11-08T08:00:00	2	Temperatura media	19.3
59638	7	Sololá	710	Panajachel	8	Panajachel	9	Septiembre	2023-10-09T00:00:00	2024-11-08T08:00:00	4	Temperatura máxima	19.3
59639	7	Sololá	710	Panajachel	8	Panajachel	9	Septiembre	2023-10-09T00:00:00	2024-11-08T08:00:00	3	Temperatura mínima	18.2
59640	7	Sololá	710	Panajachel	8	Panajachel	9	Septiembre	2023-10-09T00:00:00	2024-11-08T08:00:00	5	Humedad	82
59641	7	Sololá	710	Panajachel	8	Panajachel	9	Septiembre	2023-10-09T00:00:00	2024-11-08T08:00:00	6	Velocidad del viento	0
59642	7	Sololá	710	Panajachel	8	Panajachel	9	Septiembre	2023-10-09T00:00:00	2024-11-08T08:00:00	7	Dirección del viento	0
59643	7	Sololá	710	Panajachel	8	Panajachel	9	Septiembre	2023-10-09T00:00:00	2024-11-08T08:00:00	1	Precipitación	0
59644	7	Sololá	710	Panajachel	8	Panajachel	9	Septiembre	2023-10-09T00:00:00	2024-11-08T08:00:00	8	Radiación solar	91
59645	7	Sololá	710	Panajachel	8	Panajachel	9	Septiembre	2023-10-09T00:00:00	2024-11-08T09:00:00	2	Temperatura media	20.6
59646	7	Sololá	710	Panajachel	8	Panajachel	9	Septiembre	2023-10-09T00:00:00	2024-11-08T09:00:00	4	Temperatura máxima	20.6
59647	7	Sololá	710	Panajachel	8	Panajachel	9	Septiembre	2023-10-09T00:00:00	2024-11-08T09:00:00	3	Temperatura mínima	19.3
59648	7	Sololá	710	Panajachel	8	Panajachel	9	Septiembre	2023-10-09T00:00:00	2024-11-08T09:00:00	5	Humedad	81
59649	7	Sololá	710	Panajachel	8	Panajachel	9	Septiembre	2023-10-09T00:00:00	2024-11-08T09:00:00	6	Velocidad del viento	0
59650	7	Sololá	710	Panajachel	8	Panajachel	9	Septiembre	2023-10-09T00:00:00	2024-11-08T09:00:00	7	Dirección del viento	0
59651	7	Sololá	710	Panajachel	8	Panajachel	9	Septiembre	2023-10-09T00:00:00	2024-11-08T09:00:00	1	Precipitación	0
59652	7	Sololá	710	Panajachel	8	Panajachel	9	Septiembre	2023-10-09T00:00:00	2024-11-08T09:00:00	8	Radiación solar	167
59653	7	Sololá	710	Panajachel	8	Panajachel	9	Septiembre	2023-10-09T00:00:00	2024-11-08T10:00:00	2	Temperatura media	22.9
59654	7	Sololá	710	Panajachel	8	Panajachel	9	Septiembre	2023-10-09T00:00:00	2024-11-08T10:00:00	4	Temperatura máxima	22.9
59655	7	Sololá	710	Panajachel	8	Panajachel	9	Septiembre	2023-10-09T00:00:00	2024-11-08T10:00:00	3	Temperatura mínima	20.6
59656	7	Sololá	710	Panajachel	8	Panajachel	9	Septiembre	2023-10-09T00:00:00	2024-11-08T10:00:00	5	Humedad	75
59657	7	Sololá	710	Panajachel	8	Panajachel	9	Septiembre	2023-10-09T00:00:00	2024-11-08T10:00:00	6	Velocidad del viento	0
59658	7	Sololá	710	Panajachel	8	Panajachel	9	Septiembre	2023-10-09T00:00:00	2024-11-08T10:00:00	7	Dirección del viento	0
59659	7	Sololá	710	Panajachel	8	Panajachel	9	Septiembre	2023-10-09T00:00:00	2024-11-08T10:00:00	1	Precipitación	0
59660	7	Sololá	710	Panajachel	8	Panajachel	9	Septiembre	2023-10-09T00:00:00	2024-11-08T10:00:00	8	Radiación solar	309
59661	7	Sololá	710	Panajachel	8	Panajachel	9	Septiembre	2023-10-09T00:00:00	2024-11-08T11:00:00	2	Temperatura media	22.9
59662	7	Sololá	710	Panajachel	8	Panajachel	9	Septiembre	2023-10-09T00:00:00	2024-11-08T11:00:00	4	Temperatura máxima	23
59663	7	Sololá	710	Panajachel	8	Panajachel	9	Septiembre	2023-10-09T00:00:00	2024-11-08T11:00:00	3	Temperatura mínima	22.4
59664	7	Sololá	710	Panajachel	8	Panajachel	9	Septiembre	2023-10-09T00:00:00	2024-11-08T11:00:00	5	Humedad	76
59665	7	Sololá	710	Panajachel	8	Panajachel	9	Septiembre	2023-10-09T00:00:00	2024-11-08T11:00:00	6	Velocidad del viento	6.4
59666	7	Sololá	710	Panajachel	8	Panajachel	9	Septiembre	2023-10-09T00:00:00	2024-11-08T11:00:00	7	Dirección del viento	6.44
59667	7	Sololá	710	Panajachel	8	Panajachel	9	Septiembre	2023-10-09T00:00:00	2024-11-08T11:00:00	1	Precipitación	0
59668	7	Sololá	710	Panajachel	8	Panajachel	9	Septiembre	2023-10-09T00:00:00	2024-11-08T11:00:00	8	Radiación solar	830
59669	7	Sololá	710	Panajachel	8	Panajachel	9	Septiembre	2023-10-09T00:00:00	2024-11-08T12:00:00	2	Temperatura media	22.9
59670	7	Sololá	710	Panajachel	8	Panajachel	9	Septiembre	2023-10-09T00:00:00	2024-11-08T12:00:00	4	Temperatura máxima	23.1
59671	7	Sololá	710	Panajachel	8	Panajachel	9	Septiembre	2023-10-09T00:00:00	2024-11-08T12:00:00	3	Temperatura mínima	22.5
59672	7	Sololá	710	Panajachel	8	Panajachel	9	Septiembre	2023-10-09T00:00:00	2024-11-08T12:00:00	5	Humedad	75
59673	7	Sololá	710	Panajachel	8	Panajachel	9	Septiembre	2023-10-09T00:00:00	2024-11-08T12:00:00	6	Velocidad del viento	6.4
59674	7	Sololá	710	Panajachel	8	Panajachel	9	Septiembre	2023-10-09T00:00:00	2024-11-08T12:00:00	7	Dirección del viento	6.44
59675	7	Sololá	710	Panajachel	8	Panajachel	9	Septiembre	2023-10-09T00:00:00	2024-11-08T12:00:00	1	Precipitación	0
59676	7	Sololá	710	Panajachel	8	Panajachel	9	Septiembre	2023-10-09T00:00:00	2024-11-08T12:00:00	8	Radiación solar	938
59677	7	Sololá	710	Panajachel	8	Panajachel	9	Septiembre	2023-10-09T00:00:00	2024-11-08T13:00:00	2	Temperatura media	23.9
59678	7	Sololá	710	Panajachel	8	Panajachel	9	Septiembre	2023-10-09T00:00:00	2024-11-08T13:00:00	4	Temperatura máxima	24.4
59679	7	Sololá	710	Panajachel	8	Panajachel	9	Septiembre	2023-10-09T00:00:00	2024-11-08T13:00:00	3	Temperatura mínima	22.9
59680	7	Sololá	710	Panajachel	8	Panajachel	9	Septiembre	2023-10-09T00:00:00	2024-11-08T13:00:00	5	Humedad	79
59681	7	Sololá	710	Panajachel	8	Panajachel	9	Septiembre	2023-10-09T00:00:00	2024-11-08T13:00:00	6	Velocidad del viento	3.2
59682	7	Sololá	710	Panajachel	8	Panajachel	9	Septiembre	2023-10-09T00:00:00	2024-11-08T13:00:00	7	Dirección del viento	3.22
59683	7	Sololá	710	Panajachel	8	Panajachel	9	Septiembre	2023-10-09T00:00:00	2024-11-08T13:00:00	1	Precipitación	0
59684	7	Sololá	710	Panajachel	8	Panajachel	9	Septiembre	2023-10-09T00:00:00	2024-11-08T13:00:00	8	Radiación solar	525
59685	7	Sololá	710	Panajachel	8	Panajachel	9	Septiembre	2023-10-09T00:00:00	2024-11-08T14:00:00	2	Temperatura media	23.4
59686	7	Sololá	710	Panajachel	8	Panajachel	9	Septiembre	2023-10-09T00:00:00	2024-11-08T14:00:00	4	Temperatura máxima	24.6
59687	7	Sololá	710	Panajachel	8	Panajachel	9	Septiembre	2023-10-09T00:00:00	2024-11-08T14:00:00	3	Temperatura mínima	23.4
59688	7	Sololá	710	Panajachel	8	Panajachel	9	Septiembre	2023-10-09T00:00:00	2024-11-08T14:00:00	5	Humedad	81
59689	7	Sololá	710	Panajachel	8	Panajachel	9	Septiembre	2023-10-09T00:00:00	2024-11-08T14:00:00	6	Velocidad del viento	3.2
59690	7	Sololá	710	Panajachel	8	Panajachel	9	Septiembre	2023-10-09T00:00:00	2024-11-08T14:00:00	7	Dirección del viento	3.22
59691	7	Sololá	710	Panajachel	8	Panajachel	9	Septiembre	2023-10-09T00:00:00	2024-11-08T14:00:00	1	Precipitación	0
59692	7	Sololá	710	Panajachel	8	Panajachel	9	Septiembre	2023-10-09T00:00:00	2024-11-08T14:00:00	8	Radiación solar	548
59693	7	Sololá	710	Panajachel	8	Panajachel	9	Septiembre	2023-10-09T00:00:00	2024-11-08T15:00:00	2	Temperatura media	24.3
59694	7	Sololá	710	Panajachel	8	Panajachel	9	Septiembre	2023-10-09T00:00:00	2024-11-08T15:00:00	4	Temperatura máxima	24.7
59695	7	Sololá	710	Panajachel	8	Panajachel	9	Septiembre	2023-10-09T00:00:00	2024-11-08T15:00:00	3	Temperatura mínima	23.4
59696	7	Sololá	710	Panajachel	8	Panajachel	9	Septiembre	2023-10-09T00:00:00	2024-11-08T15:00:00	5	Humedad	77
59697	7	Sololá	710	Panajachel	8	Panajachel	9	Septiembre	2023-10-09T00:00:00	2024-11-08T15:00:00	6	Velocidad del viento	1.6
59698	7	Sololá	710	Panajachel	8	Panajachel	9	Septiembre	2023-10-09T00:00:00	2024-11-08T15:00:00	7	Dirección del viento	1.61
59699	7	Sololá	710	Panajachel	8	Panajachel	9	Septiembre	2023-10-09T00:00:00	2024-11-08T15:00:00	1	Precipitación	0
59700	7	Sololá	710	Panajachel	8	Panajachel	9	Septiembre	2023-10-09T00:00:00	2024-11-08T15:00:00	8	Radiación solar	517
59701	7	Sololá	710	Panajachel	8	Panajachel	9	Septiembre	2023-10-09T00:00:00	2024-11-08T16:00:00	2	Temperatura media	23
59702	7	Sololá	710	Panajachel	8	Panajachel	9	Septiembre	2023-10-09T00:00:00	2024-11-08T16:00:00	4	Temperatura máxima	25
59703	7	Sololá	710	Panajachel	8	Panajachel	9	Septiembre	2023-10-09T00:00:00	2024-11-08T16:00:00	3	Temperatura mínima	23
59704	7	Sololá	710	Panajachel	8	Panajachel	9	Septiembre	2023-10-09T00:00:00	2024-11-08T16:00:00	5	Humedad	83
59705	7	Sololá	710	Panajachel	8	Panajachel	9	Septiembre	2023-10-09T00:00:00	2024-11-08T16:00:00	6	Velocidad del viento	4.8
59706	7	Sololá	710	Panajachel	8	Panajachel	9	Septiembre	2023-10-09T00:00:00	2024-11-08T16:00:00	7	Dirección del viento	4.83
59707	7	Sololá	710	Panajachel	8	Panajachel	9	Septiembre	2023-10-09T00:00:00	2024-11-08T16:00:00	1	Precipitación	0
59708	7	Sololá	710	Panajachel	8	Panajachel	9	Septiembre	2023-10-09T00:00:00	2024-11-08T16:00:00	8	Radiación solar	305
59709	7	Sololá	710	Panajachel	8	Panajachel	9	Septiembre	2023-10-09T00:00:00	2024-11-08T17:00:00	2	Temperatura media	22.5
59710	7	Sololá	710	Panajachel	8	Panajachel	9	Septiembre	2023-10-09T00:00:00	2024-11-08T17:00:00	4	Temperatura máxima	23.2
59711	7	Sololá	710	Panajachel	8	Panajachel	9	Septiembre	2023-10-09T00:00:00	2024-11-08T17:00:00	3	Temperatura mínima	22.5
59712	7	Sololá	710	Panajachel	8	Panajachel	9	Septiembre	2023-10-09T00:00:00	2024-11-08T17:00:00	5	Humedad	87
59713	7	Sololá	710	Panajachel	8	Panajachel	9	Septiembre	2023-10-09T00:00:00	2024-11-08T17:00:00	6	Velocidad del viento	3.2
59714	7	Sololá	710	Panajachel	8	Panajachel	9	Septiembre	2023-10-09T00:00:00	2024-11-08T17:00:00	7	Dirección del viento	3.22
59715	7	Sololá	710	Panajachel	8	Panajachel	9	Septiembre	2023-10-09T00:00:00	2024-11-08T17:00:00	1	Precipitación	0
59716	7	Sololá	710	Panajachel	8	Panajachel	9	Septiembre	2023-10-09T00:00:00	2024-11-08T17:00:00	8	Radiación solar	94
59717	7	Sololá	710	Panajachel	8	Panajachel	9	Septiembre	2023-10-09T00:00:00	2024-11-08T18:00:00	2	Temperatura media	20.8
59718	7	Sololá	710	Panajachel	8	Panajachel	9	Septiembre	2023-10-09T00:00:00	2024-11-08T18:00:00	4	Temperatura máxima	22.5
59719	7	Sololá	710	Panajachel	8	Panajachel	9	Septiembre	2023-10-09T00:00:00	2024-11-08T18:00:00	3	Temperatura mínima	20.8
59720	7	Sololá	710	Panajachel	8	Panajachel	9	Septiembre	2023-10-09T00:00:00	2024-11-08T18:00:00	5	Humedad	90
59721	7	Sololá	710	Panajachel	8	Panajachel	9	Septiembre	2023-10-09T00:00:00	2024-11-08T18:00:00	6	Velocidad del viento	3.2
59722	7	Sololá	710	Panajachel	8	Panajachel	9	Septiembre	2023-10-09T00:00:00	2024-11-08T18:00:00	7	Dirección del viento	3.22
59723	7	Sololá	710	Panajachel	8	Panajachel	9	Septiembre	2023-10-09T00:00:00	2024-11-08T18:00:00	1	Precipitación	0
59724	7	Sololá	710	Panajachel	8	Panajachel	9	Septiembre	2023-10-09T00:00:00	2024-11-08T18:00:00	8	Radiación solar	13
59725	7	Sololá	710	Panajachel	8	Panajachel	9	Septiembre	2023-10-09T00:00:00	2024-11-08T19:00:00	2	Temperatura media	20.8
59726	7	Sololá	710	Panajachel	8	Panajachel	9	Septiembre	2023-10-09T00:00:00	2024-11-08T19:00:00	4	Temperatura máxima	21.2
59727	7	Sololá	710	Panajachel	8	Panajachel	9	Septiembre	2023-10-09T00:00:00	2024-11-08T19:00:00	3	Temperatura mínima	20.8
59728	7	Sololá	710	Panajachel	8	Panajachel	9	Septiembre	2023-10-09T00:00:00	2024-11-08T19:00:00	5	Humedad	88
59729	7	Sololá	710	Panajachel	8	Panajachel	9	Septiembre	2023-10-09T00:00:00	2024-11-08T19:00:00	6	Velocidad del viento	1.6
59730	7	Sololá	710	Panajachel	8	Panajachel	9	Septiembre	2023-10-09T00:00:00	2024-11-08T19:00:00	7	Dirección del viento	1.61
59731	7	Sololá	710	Panajachel	8	Panajachel	9	Septiembre	2023-10-09T00:00:00	2024-11-08T19:00:00	1	Precipitación	0
59732	7	Sololá	710	Panajachel	8	Panajachel	9	Septiembre	2023-10-09T00:00:00	2024-11-08T19:00:00	8	Radiación solar	0
59733	7	Sololá	710	Panajachel	8	Panajachel	9	Septiembre	2023-10-09T00:00:00	2024-11-08T20:00:00	2	Temperatura media	20.6
59734	7	Sololá	710	Panajachel	8	Panajachel	9	Septiembre	2023-10-09T00:00:00	2024-11-08T20:00:00	4	Temperatura máxima	20.9
59735	7	Sololá	710	Panajachel	8	Panajachel	9	Septiembre	2023-10-09T00:00:00	2024-11-08T20:00:00	3	Temperatura mínima	20.6
59736	7	Sololá	710	Panajachel	8	Panajachel	9	Septiembre	2023-10-09T00:00:00	2024-11-08T20:00:00	5	Humedad	89
59737	7	Sololá	710	Panajachel	8	Panajachel	9	Septiembre	2023-10-09T00:00:00	2024-11-08T20:00:00	6	Velocidad del viento	0
59738	7	Sololá	710	Panajachel	8	Panajachel	9	Septiembre	2023-10-09T00:00:00	2024-11-08T20:00:00	7	Dirección del viento	0
59739	7	Sololá	710	Panajachel	8	Panajachel	9	Septiembre	2023-10-09T00:00:00	2024-11-08T20:00:00	1	Precipitación	0
59740	7	Sololá	710	Panajachel	8	Panajachel	9	Septiembre	2023-10-09T00:00:00	2024-11-08T20:00:00	8	Radiación solar	0
59741	7	Sololá	710	Panajachel	8	Panajachel	9	Septiembre	2023-10-09T00:00:00	2024-11-08T21:00:00	2	Temperatura media	20.1
59742	7	Sololá	710	Panajachel	8	Panajachel	9	Septiembre	2023-10-09T00:00:00	2024-11-08T21:00:00	4	Temperatura máxima	20.6
59743	7	Sololá	710	Panajachel	8	Panajachel	9	Septiembre	2023-10-09T00:00:00	2024-11-08T21:00:00	3	Temperatura mínima	20.1
59744	7	Sololá	710	Panajachel	8	Panajachel	9	Septiembre	2023-10-09T00:00:00	2024-11-08T21:00:00	5	Humedad	89
59745	7	Sololá	710	Panajachel	8	Panajachel	9	Septiembre	2023-10-09T00:00:00	2024-11-08T21:00:00	6	Velocidad del viento	0
59746	7	Sololá	710	Panajachel	8	Panajachel	9	Septiembre	2023-10-09T00:00:00	2024-11-08T21:00:00	7	Dirección del viento	0
59747	7	Sololá	710	Panajachel	8	Panajachel	9	Septiembre	2023-10-09T00:00:00	2024-11-08T21:00:00	1	Precipitación	0
59748	7	Sololá	710	Panajachel	8	Panajachel	9	Septiembre	2023-10-09T00:00:00	2024-11-08T21:00:00	8	Radiación solar	0
59749	7	Sololá	710	Panajachel	8	Panajachel	9	Septiembre	2023-10-09T00:00:00	2024-11-08T22:00:00	2	Temperatura media	19.8
59750	7	Sololá	710	Panajachel	8	Panajachel	9	Septiembre	2023-10-09T00:00:00	2024-11-08T22:00:00	4	Temperatura máxima	20.2
59751	7	Sololá	710	Panajachel	8	Panajachel	9	Septiembre	2023-10-09T00:00:00	2024-11-08T22:00:00	3	Temperatura mínima	19.8
59752	7	Sololá	710	Panajachel	8	Panajachel	9	Septiembre	2023-10-09T00:00:00	2024-11-08T22:00:00	5	Humedad	88
59753	7	Sololá	710	Panajachel	8	Panajachel	9	Septiembre	2023-10-09T00:00:00	2024-11-08T22:00:00	6	Velocidad del viento	0
59754	7	Sololá	710	Panajachel	8	Panajachel	9	Septiembre	2023-10-09T00:00:00	2024-11-08T22:00:00	7	Dirección del viento	0
59755	7	Sololá	710	Panajachel	8	Panajachel	9	Septiembre	2023-10-09T00:00:00	2024-11-08T22:00:00	1	Precipitación	0
59756	7	Sololá	710	Panajachel	8	Panajachel	9	Septiembre	2023-10-09T00:00:00	2024-11-08T22:00:00	8	Radiación solar	0
59757	7	Sololá	710	Panajachel	8	Panajachel	9	Septiembre	2023-10-09T00:00:00	2024-11-08T23:00:00	2	Temperatura media	19.3
59758	7	Sololá	710	Panajachel	8	Panajachel	9	Septiembre	2023-10-09T00:00:00	2024-11-08T23:00:00	4	Temperatura máxima	19.8
59759	7	Sololá	710	Panajachel	8	Panajachel	9	Septiembre	2023-10-09T00:00:00	2024-11-08T23:00:00	3	Temperatura mínima	19.3
59760	7	Sololá	710	Panajachel	8	Panajachel	9	Septiembre	2023-10-09T00:00:00	2024-11-08T23:00:00	5	Humedad	86
59761	7	Sololá	710	Panajachel	8	Panajachel	9	Septiembre	2023-10-09T00:00:00	2024-11-08T23:00:00	6	Velocidad del viento	0
59762	7	Sololá	710	Panajachel	8	Panajachel	9	Septiembre	2023-10-09T00:00:00	2024-11-08T23:00:00	7	Dirección del viento	0
59763	7	Sololá	710	Panajachel	8	Panajachel	9	Septiembre	2023-10-09T00:00:00	2024-11-08T23:00:00	1	Precipitación	0
59764	7	Sololá	710	Panajachel	8	Panajachel	9	Septiembre	2023-10-09T00:00:00	2024-11-08T23:00:00	8	Radiación solar	0
59765	7	Sololá	710	Panajachel	8	Panajachel	9	Septiembre	2023-11-09T00:00:00	2024-11-08T00:00:00	2	Temperatura media	18.8
59766	7	Sololá	710	Panajachel	8	Panajachel	9	Septiembre	2023-11-09T00:00:00	2024-11-08T00:00:00	4	Temperatura máxima	19.3
59767	7	Sololá	710	Panajachel	8	Panajachel	9	Septiembre	2023-11-09T00:00:00	2024-11-08T00:00:00	3	Temperatura mínima	18.8
59768	7	Sololá	710	Panajachel	8	Panajachel	9	Septiembre	2023-11-09T00:00:00	2024-11-08T00:00:00	5	Humedad	88
59769	7	Sololá	710	Panajachel	8	Panajachel	9	Septiembre	2023-11-09T00:00:00	2024-11-08T00:00:00	6	Velocidad del viento	1.6
59770	7	Sololá	710	Panajachel	8	Panajachel	9	Septiembre	2023-11-09T00:00:00	2024-11-08T00:00:00	7	Dirección del viento	1.61
59771	7	Sololá	710	Panajachel	8	Panajachel	9	Septiembre	2023-11-09T00:00:00	2024-11-08T00:00:00	1	Precipitación	0
59772	7	Sololá	710	Panajachel	8	Panajachel	9	Septiembre	2023-11-09T00:00:00	2024-11-08T00:00:00	8	Radiación solar	0
59773	7	Sololá	710	Panajachel	8	Panajachel	9	Septiembre	2023-11-09T00:00:00	2024-11-08T01:00:00	2	Temperatura media	18.9
59774	7	Sololá	710	Panajachel	8	Panajachel	9	Septiembre	2023-11-09T00:00:00	2024-11-08T01:00:00	4	Temperatura máxima	18.9
59775	7	Sololá	710	Panajachel	8	Panajachel	9	Septiembre	2023-11-09T00:00:00	2024-11-08T01:00:00	3	Temperatura mínima	18.4
59776	7	Sololá	710	Panajachel	8	Panajachel	9	Septiembre	2023-11-09T00:00:00	2024-11-08T01:00:00	5	Humedad	84
59777	7	Sololá	710	Panajachel	8	Panajachel	9	Septiembre	2023-11-09T00:00:00	2024-11-08T01:00:00	6	Velocidad del viento	3.2
59778	7	Sololá	710	Panajachel	8	Panajachel	9	Septiembre	2023-11-09T00:00:00	2024-11-08T01:00:00	7	Dirección del viento	3.22
59779	7	Sololá	710	Panajachel	8	Panajachel	9	Septiembre	2023-11-09T00:00:00	2024-11-08T01:00:00	1	Precipitación	0
59780	7	Sololá	710	Panajachel	8	Panajachel	9	Septiembre	2023-11-09T00:00:00	2024-11-08T01:00:00	8	Radiación solar	0
59781	7	Sololá	710	Panajachel	8	Panajachel	9	Septiembre	2023-11-09T00:00:00	2024-11-08T02:00:00	2	Temperatura media	18.3
59782	7	Sololá	710	Panajachel	8	Panajachel	9	Septiembre	2023-11-09T00:00:00	2024-11-08T02:00:00	4	Temperatura máxima	19.1
59783	7	Sololá	710	Panajachel	8	Panajachel	9	Septiembre	2023-11-09T00:00:00	2024-11-08T02:00:00	3	Temperatura mínima	18.3
59784	7	Sololá	710	Panajachel	8	Panajachel	9	Septiembre	2023-11-09T00:00:00	2024-11-08T02:00:00	5	Humedad	84
59785	7	Sololá	710	Panajachel	8	Panajachel	9	Septiembre	2023-11-09T00:00:00	2024-11-08T02:00:00	6	Velocidad del viento	3.2
59786	7	Sololá	710	Panajachel	8	Panajachel	9	Septiembre	2023-11-09T00:00:00	2024-11-08T02:00:00	7	Dirección del viento	3.22
59787	7	Sololá	710	Panajachel	8	Panajachel	9	Septiembre	2023-11-09T00:00:00	2024-11-08T02:00:00	1	Precipitación	0
59788	7	Sololá	710	Panajachel	8	Panajachel	9	Septiembre	2023-11-09T00:00:00	2024-11-08T02:00:00	8	Radiación solar	0
59789	7	Sololá	710	Panajachel	8	Panajachel	9	Septiembre	2023-11-09T00:00:00	2024-11-08T03:00:00	2	Temperatura media	18
59790	7	Sololá	710	Panajachel	8	Panajachel	9	Septiembre	2023-11-09T00:00:00	2024-11-08T03:00:00	4	Temperatura máxima	18.4
59791	7	Sololá	710	Panajachel	8	Panajachel	9	Septiembre	2023-11-09T00:00:00	2024-11-08T03:00:00	3	Temperatura mínima	18
59792	7	Sololá	710	Panajachel	8	Panajachel	9	Septiembre	2023-11-09T00:00:00	2024-11-08T03:00:00	5	Humedad	85
59793	7	Sololá	710	Panajachel	8	Panajachel	9	Septiembre	2023-11-09T00:00:00	2024-11-08T03:00:00	6	Velocidad del viento	3.2
59794	7	Sololá	710	Panajachel	8	Panajachel	9	Septiembre	2023-11-09T00:00:00	2024-11-08T03:00:00	7	Dirección del viento	3.22
59795	7	Sololá	710	Panajachel	8	Panajachel	9	Septiembre	2023-11-09T00:00:00	2024-11-08T03:00:00	1	Precipitación	0
59796	7	Sololá	710	Panajachel	8	Panajachel	9	Septiembre	2023-11-09T00:00:00	2024-11-08T03:00:00	8	Radiación solar	0
59797	7	Sololá	710	Panajachel	8	Panajachel	9	Septiembre	2023-11-09T00:00:00	2024-11-08T04:00:00	2	Temperatura media	17.8
59798	7	Sololá	710	Panajachel	8	Panajachel	9	Septiembre	2023-11-09T00:00:00	2024-11-08T04:00:00	4	Temperatura máxima	18
59799	7	Sololá	710	Panajachel	8	Panajachel	9	Septiembre	2023-11-09T00:00:00	2024-11-08T04:00:00	3	Temperatura mínima	17.8
59800	7	Sololá	710	Panajachel	8	Panajachel	9	Septiembre	2023-11-09T00:00:00	2024-11-08T04:00:00	5	Humedad	83
59801	7	Sololá	710	Panajachel	8	Panajachel	9	Septiembre	2023-11-09T00:00:00	2024-11-08T04:00:00	6	Velocidad del viento	3.2
59802	7	Sololá	710	Panajachel	8	Panajachel	9	Septiembre	2023-11-09T00:00:00	2024-11-08T04:00:00	7	Dirección del viento	3.22
59803	7	Sololá	710	Panajachel	8	Panajachel	9	Septiembre	2023-11-09T00:00:00	2024-11-08T04:00:00	1	Precipitación	0
59804	7	Sololá	710	Panajachel	8	Panajachel	9	Septiembre	2023-11-09T00:00:00	2024-11-08T04:00:00	8	Radiación solar	0
59805	7	Sololá	710	Panajachel	8	Panajachel	9	Septiembre	2023-11-09T00:00:00	2024-11-08T05:00:00	2	Temperatura media	17.7
59806	7	Sololá	710	Panajachel	8	Panajachel	9	Septiembre	2023-11-09T00:00:00	2024-11-08T05:00:00	4	Temperatura máxima	17.8
59807	7	Sololá	710	Panajachel	8	Panajachel	9	Septiembre	2023-11-09T00:00:00	2024-11-08T05:00:00	3	Temperatura mínima	17.3
59808	7	Sololá	710	Panajachel	8	Panajachel	9	Septiembre	2023-11-09T00:00:00	2024-11-08T05:00:00	5	Humedad	83
59809	7	Sololá	710	Panajachel	8	Panajachel	9	Septiembre	2023-11-09T00:00:00	2024-11-08T05:00:00	6	Velocidad del viento	4.8
59810	7	Sololá	710	Panajachel	8	Panajachel	9	Septiembre	2023-11-09T00:00:00	2024-11-08T05:00:00	7	Dirección del viento	4.83
59811	7	Sololá	710	Panajachel	8	Panajachel	9	Septiembre	2023-11-09T00:00:00	2024-11-08T05:00:00	1	Precipitación	0
59812	7	Sololá	710	Panajachel	8	Panajachel	9	Septiembre	2023-11-09T00:00:00	2024-11-08T05:00:00	8	Radiación solar	0
59813	7	Sololá	710	Panajachel	8	Panajachel	9	Septiembre	2023-11-09T00:00:00	2024-11-08T06:00:00	2	Temperatura media	17.4
59814	7	Sololá	710	Panajachel	8	Panajachel	9	Septiembre	2023-11-09T00:00:00	2024-11-08T06:00:00	4	Temperatura máxima	17.7
59815	7	Sololá	710	Panajachel	8	Panajachel	9	Septiembre	2023-11-09T00:00:00	2024-11-08T06:00:00	3	Temperatura mínima	17.1
59816	7	Sololá	710	Panajachel	8	Panajachel	9	Septiembre	2023-11-09T00:00:00	2024-11-08T06:00:00	5	Humedad	82
59817	7	Sololá	710	Panajachel	8	Panajachel	9	Septiembre	2023-11-09T00:00:00	2024-11-08T06:00:00	6	Velocidad del viento	3.2
59818	7	Sololá	710	Panajachel	8	Panajachel	9	Septiembre	2023-11-09T00:00:00	2024-11-08T06:00:00	7	Dirección del viento	3.22
59819	7	Sololá	710	Panajachel	8	Panajachel	9	Septiembre	2023-11-09T00:00:00	2024-11-08T06:00:00	1	Precipitación	0
59820	7	Sololá	710	Panajachel	8	Panajachel	9	Septiembre	2023-11-09T00:00:00	2024-11-08T06:00:00	8	Radiación solar	0
59821	7	Sololá	710	Panajachel	8	Panajachel	9	Septiembre	2023-11-09T00:00:00	2024-11-08T07:00:00	2	Temperatura media	18.6
59822	7	Sololá	710	Panajachel	8	Panajachel	9	Septiembre	2023-11-09T00:00:00	2024-11-08T07:00:00	4	Temperatura máxima	18.6
59823	7	Sololá	710	Panajachel	8	Panajachel	9	Septiembre	2023-11-09T00:00:00	2024-11-08T07:00:00	3	Temperatura mínima	17.4
59824	7	Sololá	710	Panajachel	8	Panajachel	9	Septiembre	2023-11-09T00:00:00	2024-11-08T07:00:00	5	Humedad	80
59825	7	Sololá	710	Panajachel	8	Panajachel	9	Septiembre	2023-11-09T00:00:00	2024-11-08T07:00:00	6	Velocidad del viento	3.2
59826	7	Sololá	710	Panajachel	8	Panajachel	9	Septiembre	2023-11-09T00:00:00	2024-11-08T07:00:00	7	Dirección del viento	3.22
59827	7	Sololá	710	Panajachel	8	Panajachel	9	Septiembre	2023-11-09T00:00:00	2024-11-08T07:00:00	1	Precipitación	0
59828	7	Sololá	710	Panajachel	8	Panajachel	9	Septiembre	2023-11-09T00:00:00	2024-11-08T07:00:00	8	Radiación solar	60
59829	7	Sololá	710	Panajachel	8	Panajachel	9	Septiembre	2023-11-09T00:00:00	2024-11-08T08:00:00	2	Temperatura media	20.9
59830	7	Sololá	710	Panajachel	8	Panajachel	9	Septiembre	2023-11-09T00:00:00	2024-11-08T08:00:00	4	Temperatura máxima	20.9
59831	7	Sololá	710	Panajachel	8	Panajachel	9	Septiembre	2023-11-09T00:00:00	2024-11-08T08:00:00	3	Temperatura mínima	18.6
59832	7	Sololá	710	Panajachel	8	Panajachel	9	Septiembre	2023-11-09T00:00:00	2024-11-08T08:00:00	5	Humedad	79
59833	7	Sololá	710	Panajachel	8	Panajachel	9	Septiembre	2023-11-09T00:00:00	2024-11-08T08:00:00	6	Velocidad del viento	0
59834	7	Sololá	710	Panajachel	8	Panajachel	9	Septiembre	2023-11-09T00:00:00	2024-11-08T08:00:00	7	Dirección del viento	0
59835	7	Sololá	710	Panajachel	8	Panajachel	9	Septiembre	2023-11-09T00:00:00	2024-11-08T08:00:00	1	Precipitación	0
59836	7	Sololá	710	Panajachel	8	Panajachel	9	Septiembre	2023-11-09T00:00:00	2024-11-08T08:00:00	8	Radiación solar	187
59837	7	Sololá	710	Panajachel	8	Panajachel	9	Septiembre	2023-11-09T00:00:00	2024-11-08T09:00:00	2	Temperatura media	22.6
59838	7	Sololá	710	Panajachel	8	Panajachel	9	Septiembre	2023-11-09T00:00:00	2024-11-08T09:00:00	4	Temperatura máxima	22.6
59839	7	Sololá	710	Panajachel	8	Panajachel	9	Septiembre	2023-11-09T00:00:00	2024-11-08T09:00:00	3	Temperatura mínima	20.9
59840	7	Sololá	710	Panajachel	8	Panajachel	9	Septiembre	2023-11-09T00:00:00	2024-11-08T09:00:00	5	Humedad	72
59841	7	Sololá	710	Panajachel	8	Panajachel	9	Septiembre	2023-11-09T00:00:00	2024-11-08T09:00:00	6	Velocidad del viento	4.8
59842	7	Sololá	710	Panajachel	8	Panajachel	9	Septiembre	2023-11-09T00:00:00	2024-11-08T09:00:00	7	Dirección del viento	4.83
59843	7	Sololá	710	Panajachel	8	Panajachel	9	Septiembre	2023-11-09T00:00:00	2024-11-08T09:00:00	1	Precipitación	0
59844	7	Sololá	710	Panajachel	8	Panajachel	9	Septiembre	2023-11-09T00:00:00	2024-11-08T09:00:00	8	Radiación solar	485
59845	7	Sololá	710	Panajachel	8	Panajachel	9	Septiembre	2023-11-09T00:00:00	2024-11-08T10:00:00	2	Temperatura media	23.4
59846	7	Sololá	710	Panajachel	8	Panajachel	9	Septiembre	2023-11-09T00:00:00	2024-11-08T10:00:00	4	Temperatura máxima	23.4
59847	7	Sololá	710	Panajachel	8	Panajachel	9	Septiembre	2023-11-09T00:00:00	2024-11-08T10:00:00	3	Temperatura mínima	22.1
59848	7	Sololá	710	Panajachel	8	Panajachel	9	Septiembre	2023-11-09T00:00:00	2024-11-08T10:00:00	5	Humedad	68
59849	7	Sololá	710	Panajachel	8	Panajachel	9	Septiembre	2023-11-09T00:00:00	2024-11-08T10:00:00	6	Velocidad del viento	3.2
59850	7	Sololá	710	Panajachel	8	Panajachel	9	Septiembre	2023-11-09T00:00:00	2024-11-08T10:00:00	7	Dirección del viento	3.22
59851	7	Sololá	710	Panajachel	8	Panajachel	9	Septiembre	2023-11-09T00:00:00	2024-11-08T10:00:00	1	Precipitación	0
59852	7	Sololá	710	Panajachel	8	Panajachel	9	Septiembre	2023-11-09T00:00:00	2024-11-08T10:00:00	8	Radiación solar	704
59853	7	Sololá	710	Panajachel	8	Panajachel	9	Septiembre	2023-11-09T00:00:00	2024-11-08T11:00:00	2	Temperatura media	23.6
59854	7	Sololá	710	Panajachel	8	Panajachel	9	Septiembre	2023-11-09T00:00:00	2024-11-08T11:00:00	4	Temperatura máxima	23.8
59855	7	Sololá	710	Panajachel	8	Panajachel	9	Septiembre	2023-11-09T00:00:00	2024-11-08T11:00:00	3	Temperatura mínima	22.7
59856	7	Sololá	710	Panajachel	8	Panajachel	9	Septiembre	2023-11-09T00:00:00	2024-11-08T11:00:00	5	Humedad	70
59857	7	Sololá	710	Panajachel	8	Panajachel	9	Septiembre	2023-11-09T00:00:00	2024-11-08T11:00:00	6	Velocidad del viento	1.6
59858	7	Sololá	710	Panajachel	8	Panajachel	9	Septiembre	2023-11-09T00:00:00	2024-11-08T11:00:00	7	Dirección del viento	1.61
59859	7	Sololá	710	Panajachel	8	Panajachel	9	Septiembre	2023-11-09T00:00:00	2024-11-08T11:00:00	1	Precipitación	0
59860	7	Sololá	710	Panajachel	8	Panajachel	9	Septiembre	2023-11-09T00:00:00	2024-11-08T11:00:00	8	Radiación solar	623
59861	7	Sololá	710	Panajachel	8	Panajachel	9	Septiembre	2023-11-09T00:00:00	2024-11-08T12:00:00	2	Temperatura media	23.7
59862	7	Sololá	710	Panajachel	8	Panajachel	9	Septiembre	2023-11-09T00:00:00	2024-11-08T12:00:00	4	Temperatura máxima	24.6
59863	7	Sololá	710	Panajachel	8	Panajachel	9	Septiembre	2023-11-09T00:00:00	2024-11-08T12:00:00	3	Temperatura mínima	23
59864	7	Sololá	710	Panajachel	8	Panajachel	9	Septiembre	2023-11-09T00:00:00	2024-11-08T12:00:00	5	Humedad	79
59865	7	Sololá	710	Panajachel	8	Panajachel	9	Septiembre	2023-11-09T00:00:00	2024-11-08T12:00:00	6	Velocidad del viento	3.2
59866	7	Sololá	710	Panajachel	8	Panajachel	9	Septiembre	2023-11-09T00:00:00	2024-11-08T12:00:00	7	Dirección del viento	3.22
59867	7	Sololá	710	Panajachel	8	Panajachel	9	Septiembre	2023-11-09T00:00:00	2024-11-08T12:00:00	1	Precipitación	0
59868	7	Sololá	710	Panajachel	8	Panajachel	9	Septiembre	2023-11-09T00:00:00	2024-11-08T12:00:00	8	Radiación solar	369
59869	7	Sololá	710	Panajachel	8	Panajachel	9	Septiembre	2023-11-09T00:00:00	2024-11-08T13:00:00	2	Temperatura media	24.6
59870	7	Sololá	710	Panajachel	8	Panajachel	9	Septiembre	2023-11-09T00:00:00	2024-11-08T13:00:00	4	Temperatura máxima	24.6
59871	7	Sololá	710	Panajachel	8	Panajachel	9	Septiembre	2023-11-09T00:00:00	2024-11-08T13:00:00	3	Temperatura mínima	23.4
59872	7	Sololá	710	Panajachel	8	Panajachel	9	Septiembre	2023-11-09T00:00:00	2024-11-08T13:00:00	5	Humedad	79
59873	7	Sololá	710	Panajachel	8	Panajachel	9	Septiembre	2023-11-09T00:00:00	2024-11-08T13:00:00	6	Velocidad del viento	3.2
59874	7	Sololá	710	Panajachel	8	Panajachel	9	Septiembre	2023-11-09T00:00:00	2024-11-08T13:00:00	7	Dirección del viento	3.22
59875	7	Sololá	710	Panajachel	8	Panajachel	9	Septiembre	2023-11-09T00:00:00	2024-11-08T13:00:00	1	Precipitación	0
59876	7	Sololá	710	Panajachel	8	Panajachel	9	Septiembre	2023-11-09T00:00:00	2024-11-08T13:00:00	8	Radiación solar	511
59877	7	Sololá	710	Panajachel	8	Panajachel	9	Septiembre	2023-11-09T00:00:00	2024-11-08T14:00:00	2	Temperatura media	23.7
59878	7	Sololá	710	Panajachel	8	Panajachel	9	Septiembre	2023-11-09T00:00:00	2024-11-08T14:00:00	4	Temperatura máxima	25.8
59879	7	Sololá	710	Panajachel	8	Panajachel	9	Septiembre	2023-11-09T00:00:00	2024-11-08T14:00:00	3	Temperatura mínima	23.6
59880	7	Sololá	710	Panajachel	8	Panajachel	9	Septiembre	2023-11-09T00:00:00	2024-11-08T14:00:00	5	Humedad	82
59881	7	Sololá	710	Panajachel	8	Panajachel	9	Septiembre	2023-11-09T00:00:00	2024-11-08T14:00:00	6	Velocidad del viento	4.8
59882	7	Sololá	710	Panajachel	8	Panajachel	9	Septiembre	2023-11-09T00:00:00	2024-11-08T14:00:00	7	Dirección del viento	4.83
59883	7	Sololá	710	Panajachel	8	Panajachel	9	Septiembre	2023-11-09T00:00:00	2024-11-08T14:00:00	1	Precipitación	0
59884	7	Sololá	710	Panajachel	8	Panajachel	9	Septiembre	2023-11-09T00:00:00	2024-11-08T14:00:00	8	Radiación solar	810
59885	7	Sololá	710	Panajachel	8	Panajachel	9	Septiembre	2023-11-09T00:00:00	2024-11-08T15:00:00	2	Temperatura media	23.9
59886	7	Sololá	710	Panajachel	8	Panajachel	9	Septiembre	2023-11-09T00:00:00	2024-11-08T15:00:00	4	Temperatura máxima	24.5
59887	7	Sololá	710	Panajachel	8	Panajachel	9	Septiembre	2023-11-09T00:00:00	2024-11-08T15:00:00	3	Temperatura mínima	23.7
59888	7	Sololá	710	Panajachel	8	Panajachel	9	Septiembre	2023-11-09T00:00:00	2024-11-08T15:00:00	5	Humedad	81
59889	7	Sololá	710	Panajachel	8	Panajachel	9	Septiembre	2023-11-09T00:00:00	2024-11-08T15:00:00	6	Velocidad del viento	4.8
59890	7	Sololá	710	Panajachel	8	Panajachel	9	Septiembre	2023-11-09T00:00:00	2024-11-08T15:00:00	7	Dirección del viento	4.83
59891	7	Sololá	710	Panajachel	8	Panajachel	9	Septiembre	2023-11-09T00:00:00	2024-11-08T15:00:00	1	Precipitación	0
59892	7	Sololá	710	Panajachel	8	Panajachel	9	Septiembre	2023-11-09T00:00:00	2024-11-08T15:00:00	8	Radiación solar	382
59893	7	Sololá	710	Panajachel	8	Panajachel	9	Septiembre	2023-11-09T00:00:00	2024-11-08T16:00:00	2	Temperatura media	22.1
59894	7	Sololá	710	Panajachel	8	Panajachel	9	Septiembre	2023-11-09T00:00:00	2024-11-08T16:00:00	4	Temperatura máxima	23.8
59895	7	Sololá	710	Panajachel	8	Panajachel	9	Septiembre	2023-11-09T00:00:00	2024-11-08T16:00:00	3	Temperatura mínima	22.1
59896	7	Sololá	710	Panajachel	8	Panajachel	9	Septiembre	2023-11-09T00:00:00	2024-11-08T16:00:00	5	Humedad	88
59897	7	Sololá	710	Panajachel	8	Panajachel	9	Septiembre	2023-11-09T00:00:00	2024-11-08T16:00:00	6	Velocidad del viento	4.8
59898	7	Sololá	710	Panajachel	8	Panajachel	9	Septiembre	2023-11-09T00:00:00	2024-11-08T16:00:00	7	Dirección del viento	4.83
59899	7	Sololá	710	Panajachel	8	Panajachel	9	Septiembre	2023-11-09T00:00:00	2024-11-08T16:00:00	1	Precipitación	0
59900	7	Sololá	710	Panajachel	8	Panajachel	9	Septiembre	2023-11-09T00:00:00	2024-11-08T16:00:00	8	Radiación solar	118
59901	7	Sololá	710	Panajachel	8	Panajachel	9	Septiembre	2023-11-09T00:00:00	2024-11-08T17:00:00	2	Temperatura media	20.9
59902	7	Sololá	710	Panajachel	8	Panajachel	9	Septiembre	2023-11-09T00:00:00	2024-11-08T17:00:00	4	Temperatura máxima	22.1
59903	7	Sololá	710	Panajachel	8	Panajachel	9	Septiembre	2023-11-09T00:00:00	2024-11-08T17:00:00	3	Temperatura mínima	20.8
59904	7	Sololá	710	Panajachel	8	Panajachel	9	Septiembre	2023-11-09T00:00:00	2024-11-08T17:00:00	5	Humedad	92
59905	7	Sololá	710	Panajachel	8	Panajachel	9	Septiembre	2023-11-09T00:00:00	2024-11-08T17:00:00	6	Velocidad del viento	1.6
59906	7	Sololá	710	Panajachel	8	Panajachel	9	Septiembre	2023-11-09T00:00:00	2024-11-08T17:00:00	7	Dirección del viento	1.61
59907	7	Sololá	710	Panajachel	8	Panajachel	9	Septiembre	2023-11-09T00:00:00	2024-11-08T17:00:00	1	Precipitación	0.4
59908	7	Sololá	710	Panajachel	8	Panajachel	9	Septiembre	2023-11-09T00:00:00	2024-11-08T17:00:00	8	Radiación solar	25
59909	7	Sololá	710	Panajachel	8	Panajachel	9	Septiembre	2023-11-09T00:00:00	2024-11-08T18:00:00	2	Temperatura media	20.9
59910	7	Sololá	710	Panajachel	8	Panajachel	9	Septiembre	2023-11-09T00:00:00	2024-11-08T18:00:00	4	Temperatura máxima	20.9
59911	7	Sololá	710	Panajachel	8	Panajachel	9	Septiembre	2023-11-09T00:00:00	2024-11-08T18:00:00	3	Temperatura mínima	20.8
59912	7	Sololá	710	Panajachel	8	Panajachel	9	Septiembre	2023-11-09T00:00:00	2024-11-08T18:00:00	5	Humedad	92
59913	7	Sololá	710	Panajachel	8	Panajachel	9	Septiembre	2023-11-09T00:00:00	2024-11-08T18:00:00	6	Velocidad del viento	1.6
59914	7	Sololá	710	Panajachel	8	Panajachel	9	Septiembre	2023-11-09T00:00:00	2024-11-08T18:00:00	7	Dirección del viento	1.61
59915	7	Sololá	710	Panajachel	8	Panajachel	9	Septiembre	2023-11-09T00:00:00	2024-11-08T18:00:00	1	Precipitación	0
59916	7	Sololá	710	Panajachel	8	Panajachel	9	Septiembre	2023-11-09T00:00:00	2024-11-08T18:00:00	8	Radiación solar	7
59917	7	Sololá	710	Panajachel	8	Panajachel	9	Septiembre	2023-11-09T00:00:00	2024-11-08T19:00:00	2	Temperatura media	20.6
59918	7	Sololá	710	Panajachel	8	Panajachel	9	Septiembre	2023-11-09T00:00:00	2024-11-08T19:00:00	4	Temperatura máxima	20.9
59919	7	Sololá	710	Panajachel	8	Panajachel	9	Septiembre	2023-11-09T00:00:00	2024-11-08T19:00:00	3	Temperatura mínima	20.6
59920	7	Sololá	710	Panajachel	8	Panajachel	9	Septiembre	2023-11-09T00:00:00	2024-11-08T19:00:00	5	Humedad	92
59921	7	Sololá	710	Panajachel	8	Panajachel	9	Septiembre	2023-11-09T00:00:00	2024-11-08T19:00:00	6	Velocidad del viento	1.6
59922	7	Sololá	710	Panajachel	8	Panajachel	9	Septiembre	2023-11-09T00:00:00	2024-11-08T19:00:00	7	Dirección del viento	1.61
59923	7	Sololá	710	Panajachel	8	Panajachel	9	Septiembre	2023-11-09T00:00:00	2024-11-08T19:00:00	1	Precipitación	0
59924	7	Sololá	710	Panajachel	8	Panajachel	9	Septiembre	2023-11-09T00:00:00	2024-11-08T19:00:00	8	Radiación solar	0
59925	7	Sololá	710	Panajachel	8	Panajachel	9	Septiembre	2023-11-09T00:00:00	2024-11-08T20:00:00	2	Temperatura media	19.2
59926	7	Sololá	710	Panajachel	8	Panajachel	9	Septiembre	2023-11-09T00:00:00	2024-11-08T20:00:00	4	Temperatura máxima	20.6
59927	7	Sololá	710	Panajachel	8	Panajachel	9	Septiembre	2023-11-09T00:00:00	2024-11-08T20:00:00	3	Temperatura mínima	19.2
59928	7	Sololá	710	Panajachel	8	Panajachel	9	Septiembre	2023-11-09T00:00:00	2024-11-08T20:00:00	5	Humedad	90
59929	7	Sololá	710	Panajachel	8	Panajachel	9	Septiembre	2023-11-09T00:00:00	2024-11-08T20:00:00	6	Velocidad del viento	1.6
59930	7	Sololá	710	Panajachel	8	Panajachel	9	Septiembre	2023-11-09T00:00:00	2024-11-08T20:00:00	7	Dirección del viento	1.61
59931	7	Sololá	710	Panajachel	8	Panajachel	9	Septiembre	2023-11-09T00:00:00	2024-11-08T20:00:00	1	Precipitación	0
59932	7	Sololá	710	Panajachel	8	Panajachel	9	Septiembre	2023-11-09T00:00:00	2024-11-08T20:00:00	8	Radiación solar	0
59933	7	Sololá	710	Panajachel	8	Panajachel	9	Septiembre	2023-11-09T00:00:00	2024-11-08T21:00:00	2	Temperatura media	19
59934	7	Sololá	710	Panajachel	8	Panajachel	9	Septiembre	2023-11-09T00:00:00	2024-11-08T21:00:00	4	Temperatura máxima	19.2
59935	7	Sololá	710	Panajachel	8	Panajachel	9	Septiembre	2023-11-09T00:00:00	2024-11-08T21:00:00	3	Temperatura mínima	18.9
59936	7	Sololá	710	Panajachel	8	Panajachel	9	Septiembre	2023-11-09T00:00:00	2024-11-08T21:00:00	5	Humedad	91
59937	7	Sololá	710	Panajachel	8	Panajachel	9	Septiembre	2023-11-09T00:00:00	2024-11-08T21:00:00	6	Velocidad del viento	3.2
59938	7	Sololá	710	Panajachel	8	Panajachel	9	Septiembre	2023-11-09T00:00:00	2024-11-08T21:00:00	7	Dirección del viento	3.22
59939	7	Sololá	710	Panajachel	8	Panajachel	9	Septiembre	2023-11-09T00:00:00	2024-11-08T21:00:00	1	Precipitación	0
59940	7	Sololá	710	Panajachel	8	Panajachel	9	Septiembre	2023-11-09T00:00:00	2024-11-08T21:00:00	8	Radiación solar	0
59941	7	Sololá	710	Panajachel	8	Panajachel	9	Septiembre	2023-11-09T00:00:00	2024-11-08T22:00:00	2	Temperatura media	18.6
59942	7	Sololá	710	Panajachel	8	Panajachel	9	Septiembre	2023-11-09T00:00:00	2024-11-08T22:00:00	4	Temperatura máxima	19
59943	7	Sololá	710	Panajachel	8	Panajachel	9	Septiembre	2023-11-09T00:00:00	2024-11-08T22:00:00	3	Temperatura mínima	18.6
59944	7	Sololá	710	Panajachel	8	Panajachel	9	Septiembre	2023-11-09T00:00:00	2024-11-08T22:00:00	5	Humedad	91
59945	7	Sololá	710	Panajachel	8	Panajachel	9	Septiembre	2023-11-09T00:00:00	2024-11-08T22:00:00	6	Velocidad del viento	1.6
59946	7	Sololá	710	Panajachel	8	Panajachel	9	Septiembre	2023-11-09T00:00:00	2024-11-08T22:00:00	7	Dirección del viento	1.61
59947	7	Sololá	710	Panajachel	8	Panajachel	9	Septiembre	2023-11-09T00:00:00	2024-11-08T22:00:00	1	Precipitación	0
59948	7	Sololá	710	Panajachel	8	Panajachel	9	Septiembre	2023-11-09T00:00:00	2024-11-08T22:00:00	8	Radiación solar	0
59949	7	Sololá	710	Panajachel	8	Panajachel	9	Septiembre	2023-11-09T00:00:00	2024-11-08T23:00:00	2	Temperatura media	18.5
59950	7	Sololá	710	Panajachel	8	Panajachel	9	Septiembre	2023-11-09T00:00:00	2024-11-08T23:00:00	4	Temperatura máxima	18.7
59951	7	Sololá	710	Panajachel	8	Panajachel	9	Septiembre	2023-11-09T00:00:00	2024-11-08T23:00:00	3	Temperatura mínima	18.5
59952	7	Sololá	710	Panajachel	8	Panajachel	9	Septiembre	2023-11-09T00:00:00	2024-11-08T23:00:00	5	Humedad	90
59953	7	Sololá	710	Panajachel	8	Panajachel	9	Septiembre	2023-11-09T00:00:00	2024-11-08T23:00:00	6	Velocidad del viento	1.6
59954	7	Sololá	710	Panajachel	8	Panajachel	9	Septiembre	2023-11-09T00:00:00	2024-11-08T23:00:00	7	Dirección del viento	1.61
59955	7	Sololá	710	Panajachel	8	Panajachel	9	Septiembre	2023-11-09T00:00:00	2024-11-08T23:00:00	1	Precipitación	0
59956	7	Sololá	710	Panajachel	8	Panajachel	9	Septiembre	2023-11-09T00:00:00	2024-11-08T23:00:00	8	Radiación solar	0
59957	7	Sololá	710	Panajachel	8	Panajachel	9	Septiembre	2023-12-09T00:00:00	2024-11-08T00:00:00	2	Temperatura media	17.8
59958	7	Sololá	710	Panajachel	8	Panajachel	9	Septiembre	2023-12-09T00:00:00	2024-11-08T00:00:00	4	Temperatura máxima	18.6
59959	7	Sololá	710	Panajachel	8	Panajachel	9	Septiembre	2023-12-09T00:00:00	2024-11-08T00:00:00	3	Temperatura mínima	17.8
59960	7	Sololá	710	Panajachel	8	Panajachel	9	Septiembre	2023-12-09T00:00:00	2024-11-08T00:00:00	5	Humedad	90
59961	7	Sololá	710	Panajachel	8	Panajachel	9	Septiembre	2023-12-09T00:00:00	2024-11-08T00:00:00	6	Velocidad del viento	3.2
59962	7	Sololá	710	Panajachel	8	Panajachel	9	Septiembre	2023-12-09T00:00:00	2024-11-08T00:00:00	7	Dirección del viento	3.22
59963	7	Sololá	710	Panajachel	8	Panajachel	9	Septiembre	2023-12-09T00:00:00	2024-11-08T00:00:00	1	Precipitación	0
59964	7	Sololá	710	Panajachel	8	Panajachel	9	Septiembre	2023-12-09T00:00:00	2024-11-08T00:00:00	8	Radiación solar	0
59965	7	Sololá	710	Panajachel	8	Panajachel	9	Septiembre	2023-12-09T00:00:00	2024-11-08T01:00:00	2	Temperatura media	17.9
59966	7	Sololá	710	Panajachel	8	Panajachel	9	Septiembre	2023-12-09T00:00:00	2024-11-08T01:00:00	4	Temperatura máxima	18
59967	7	Sololá	710	Panajachel	8	Panajachel	9	Septiembre	2023-12-09T00:00:00	2024-11-08T01:00:00	3	Temperatura mínima	17.7
59968	7	Sololá	710	Panajachel	8	Panajachel	9	Septiembre	2023-12-09T00:00:00	2024-11-08T01:00:00	5	Humedad	88
59969	7	Sololá	710	Panajachel	8	Panajachel	9	Septiembre	2023-12-09T00:00:00	2024-11-08T01:00:00	6	Velocidad del viento	3.2
59970	7	Sololá	710	Panajachel	8	Panajachel	9	Septiembre	2023-12-09T00:00:00	2024-11-08T01:00:00	7	Dirección del viento	3.22
59971	7	Sololá	710	Panajachel	8	Panajachel	9	Septiembre	2023-12-09T00:00:00	2024-11-08T01:00:00	1	Precipitación	0
59972	7	Sololá	710	Panajachel	8	Panajachel	9	Septiembre	2023-12-09T00:00:00	2024-11-08T01:00:00	8	Radiación solar	0
59973	7	Sololá	710	Panajachel	8	Panajachel	9	Septiembre	2023-12-09T00:00:00	2024-11-08T02:00:00	2	Temperatura media	17.7
59974	7	Sololá	710	Panajachel	8	Panajachel	9	Septiembre	2023-12-09T00:00:00	2024-11-08T02:00:00	4	Temperatura máxima	18.3
59975	7	Sololá	710	Panajachel	8	Panajachel	9	Septiembre	2023-12-09T00:00:00	2024-11-08T02:00:00	3	Temperatura mínima	17.7
59976	7	Sololá	710	Panajachel	8	Panajachel	9	Septiembre	2023-12-09T00:00:00	2024-11-08T02:00:00	5	Humedad	90
59977	7	Sololá	710	Panajachel	8	Panajachel	9	Septiembre	2023-12-09T00:00:00	2024-11-08T02:00:00	6	Velocidad del viento	1.6
59978	7	Sololá	710	Panajachel	8	Panajachel	9	Septiembre	2023-12-09T00:00:00	2024-11-08T02:00:00	7	Dirección del viento	1.61
59979	7	Sololá	710	Panajachel	8	Panajachel	9	Septiembre	2023-12-09T00:00:00	2024-11-08T02:00:00	1	Precipitación	0
59980	7	Sololá	710	Panajachel	8	Panajachel	9	Septiembre	2023-12-09T00:00:00	2024-11-08T02:00:00	8	Radiación solar	0
59981	7	Sololá	710	Panajachel	8	Panajachel	9	Septiembre	2023-12-09T00:00:00	2024-11-08T03:00:00	2	Temperatura media	17.8
59982	7	Sololá	710	Panajachel	8	Panajachel	9	Septiembre	2023-12-09T00:00:00	2024-11-08T03:00:00	4	Temperatura máxima	18.1
59983	7	Sololá	710	Panajachel	8	Panajachel	9	Septiembre	2023-12-09T00:00:00	2024-11-08T03:00:00	3	Temperatura mínima	17.7
59984	7	Sololá	710	Panajachel	8	Panajachel	9	Septiembre	2023-12-09T00:00:00	2024-11-08T03:00:00	5	Humedad	90
59985	7	Sololá	710	Panajachel	8	Panajachel	9	Septiembre	2023-12-09T00:00:00	2024-11-08T03:00:00	6	Velocidad del viento	3.2
59986	7	Sololá	710	Panajachel	8	Panajachel	9	Septiembre	2023-12-09T00:00:00	2024-11-08T03:00:00	7	Dirección del viento	3.22
59987	7	Sololá	710	Panajachel	8	Panajachel	9	Septiembre	2023-12-09T00:00:00	2024-11-08T03:00:00	1	Precipitación	0
59988	7	Sololá	710	Panajachel	8	Panajachel	9	Septiembre	2023-12-09T00:00:00	2024-11-08T03:00:00	8	Radiación solar	0
59989	7	Sololá	710	Panajachel	8	Panajachel	9	Septiembre	2023-12-09T00:00:00	2024-11-08T04:00:00	2	Temperatura media	17.4
59990	7	Sololá	710	Panajachel	8	Panajachel	9	Septiembre	2023-12-09T00:00:00	2024-11-08T04:00:00	4	Temperatura máxima	17.9
59991	7	Sololá	710	Panajachel	8	Panajachel	9	Septiembre	2023-12-09T00:00:00	2024-11-08T04:00:00	3	Temperatura mínima	17.3
59992	7	Sololá	710	Panajachel	8	Panajachel	9	Septiembre	2023-12-09T00:00:00	2024-11-08T04:00:00	5	Humedad	89
59993	7	Sololá	710	Panajachel	8	Panajachel	9	Septiembre	2023-12-09T00:00:00	2024-11-08T04:00:00	6	Velocidad del viento	3.2
59994	7	Sololá	710	Panajachel	8	Panajachel	9	Septiembre	2023-12-09T00:00:00	2024-11-08T04:00:00	7	Dirección del viento	3.22
59995	7	Sololá	710	Panajachel	8	Panajachel	9	Septiembre	2023-12-09T00:00:00	2024-11-08T04:00:00	1	Precipitación	0
59996	7	Sololá	710	Panajachel	8	Panajachel	9	Septiembre	2023-12-09T00:00:00	2024-11-08T04:00:00	8	Radiación solar	0
59997	7	Sololá	710	Panajachel	8	Panajachel	9	Septiembre	2023-12-09T00:00:00	2024-11-08T05:00:00	2	Temperatura media	17.6
59998	7	Sololá	710	Panajachel	8	Panajachel	9	Septiembre	2023-12-09T00:00:00	2024-11-08T05:00:00	4	Temperatura máxima	17.8
59999	7	Sololá	710	Panajachel	8	Panajachel	9	Septiembre	2023-12-09T00:00:00	2024-11-08T05:00:00	3	Temperatura mínima	17.3
60000	7	Sololá	710	Panajachel	8	Panajachel	9	Septiembre	2023-12-09T00:00:00	2024-11-08T05:00:00	5	Humedad	86
60001	7	Sololá	710	Panajachel	8	Panajachel	9	Septiembre	2023-12-09T00:00:00	2024-11-08T05:00:00	6	Velocidad del viento	1.6
60002	7	Sololá	710	Panajachel	8	Panajachel	9	Septiembre	2023-12-09T00:00:00	2024-11-08T05:00:00	7	Dirección del viento	1.61
60003	7	Sololá	710	Panajachel	8	Panajachel	9	Septiembre	2023-12-09T00:00:00	2024-11-08T05:00:00	1	Precipitación	0
60004	7	Sololá	710	Panajachel	8	Panajachel	9	Septiembre	2023-12-09T00:00:00	2024-11-08T05:00:00	8	Radiación solar	0
60005	7	Sololá	710	Panajachel	8	Panajachel	9	Septiembre	2023-12-09T00:00:00	2024-11-08T06:00:00	2	Temperatura media	16.7
60006	7	Sololá	710	Panajachel	8	Panajachel	9	Septiembre	2023-12-09T00:00:00	2024-11-08T06:00:00	4	Temperatura máxima	17.6
60007	7	Sololá	710	Panajachel	8	Panajachel	9	Septiembre	2023-12-09T00:00:00	2024-11-08T06:00:00	3	Temperatura mínima	16.4
60008	7	Sololá	710	Panajachel	8	Panajachel	9	Septiembre	2023-12-09T00:00:00	2024-11-08T06:00:00	5	Humedad	88
60009	7	Sololá	710	Panajachel	8	Panajachel	9	Septiembre	2023-12-09T00:00:00	2024-11-08T06:00:00	6	Velocidad del viento	3.2
60010	7	Sololá	710	Panajachel	8	Panajachel	9	Septiembre	2023-12-09T00:00:00	2024-11-08T06:00:00	7	Dirección del viento	3.22
60011	7	Sololá	710	Panajachel	8	Panajachel	9	Septiembre	2023-12-09T00:00:00	2024-11-08T06:00:00	1	Precipitación	0
60012	7	Sololá	710	Panajachel	8	Panajachel	9	Septiembre	2023-12-09T00:00:00	2024-11-08T06:00:00	8	Radiación solar	0
60013	7	Sololá	710	Panajachel	8	Panajachel	9	Septiembre	2023-12-09T00:00:00	2024-11-08T07:00:00	2	Temperatura media	18.6
60014	7	Sololá	710	Panajachel	8	Panajachel	9	Septiembre	2023-12-09T00:00:00	2024-11-08T07:00:00	4	Temperatura máxima	18.6
60015	7	Sololá	710	Panajachel	8	Panajachel	9	Septiembre	2023-12-09T00:00:00	2024-11-08T07:00:00	3	Temperatura mínima	16.7
60016	7	Sololá	710	Panajachel	8	Panajachel	9	Septiembre	2023-12-09T00:00:00	2024-11-08T07:00:00	5	Humedad	82
60017	7	Sololá	710	Panajachel	8	Panajachel	9	Septiembre	2023-12-09T00:00:00	2024-11-08T07:00:00	6	Velocidad del viento	1.6
60018	7	Sololá	710	Panajachel	8	Panajachel	9	Septiembre	2023-12-09T00:00:00	2024-11-08T07:00:00	7	Dirección del viento	1.61
60019	7	Sololá	710	Panajachel	8	Panajachel	9	Septiembre	2023-12-09T00:00:00	2024-11-08T07:00:00	1	Precipitación	0
60020	7	Sololá	710	Panajachel	8	Panajachel	9	Septiembre	2023-12-09T00:00:00	2024-11-08T07:00:00	8	Radiación solar	55
60021	7	Sololá	710	Panajachel	8	Panajachel	9	Septiembre	2023-12-09T00:00:00	2024-11-08T08:00:00	2	Temperatura media	22
60022	7	Sololá	710	Panajachel	8	Panajachel	9	Septiembre	2023-12-09T00:00:00	2024-11-08T08:00:00	4	Temperatura máxima	22.4
60023	7	Sololá	710	Panajachel	8	Panajachel	9	Septiembre	2023-12-09T00:00:00	2024-11-08T08:00:00	3	Temperatura mínima	18.7
60024	7	Sololá	710	Panajachel	8	Panajachel	9	Septiembre	2023-12-09T00:00:00	2024-11-08T08:00:00	5	Humedad	73
60025	7	Sololá	710	Panajachel	8	Panajachel	9	Septiembre	2023-12-09T00:00:00	2024-11-08T08:00:00	6	Velocidad del viento	0
60026	7	Sololá	710	Panajachel	8	Panajachel	9	Septiembre	2023-12-09T00:00:00	2024-11-08T08:00:00	7	Dirección del viento	0
60027	7	Sololá	710	Panajachel	8	Panajachel	9	Septiembre	2023-12-09T00:00:00	2024-11-08T08:00:00	1	Precipitación	0
60028	7	Sololá	710	Panajachel	8	Panajachel	9	Septiembre	2023-12-09T00:00:00	2024-11-08T08:00:00	8	Radiación solar	313
60029	7	Sololá	710	Panajachel	8	Panajachel	9	Septiembre	2023-12-09T00:00:00	2024-11-08T09:00:00	2	Temperatura media	21.6
60030	7	Sololá	710	Panajachel	8	Panajachel	9	Septiembre	2023-12-09T00:00:00	2024-11-08T09:00:00	4	Temperatura máxima	22.2
60031	7	Sololá	710	Panajachel	8	Panajachel	9	Septiembre	2023-12-09T00:00:00	2024-11-08T09:00:00	3	Temperatura mínima	21.4
60032	7	Sololá	710	Panajachel	8	Panajachel	9	Septiembre	2023-12-09T00:00:00	2024-11-08T09:00:00	5	Humedad	80
60033	7	Sololá	710	Panajachel	8	Panajachel	9	Septiembre	2023-12-09T00:00:00	2024-11-08T09:00:00	6	Velocidad del viento	3.2
60034	7	Sololá	710	Panajachel	8	Panajachel	9	Septiembre	2023-12-09T00:00:00	2024-11-08T09:00:00	7	Dirección del viento	3.22
60035	7	Sololá	710	Panajachel	8	Panajachel	9	Septiembre	2023-12-09T00:00:00	2024-11-08T09:00:00	1	Precipitación	0
60036	7	Sololá	710	Panajachel	8	Panajachel	9	Septiembre	2023-12-09T00:00:00	2024-11-08T09:00:00	8	Radiación solar	530
60037	7	Sololá	710	Panajachel	8	Panajachel	9	Septiembre	2023-12-09T00:00:00	2024-11-08T10:00:00	2	Temperatura media	22.3
60038	7	Sololá	710	Panajachel	8	Panajachel	9	Septiembre	2023-12-09T00:00:00	2024-11-08T10:00:00	4	Temperatura máxima	22.3
60039	7	Sololá	710	Panajachel	8	Panajachel	9	Septiembre	2023-12-09T00:00:00	2024-11-08T10:00:00	3	Temperatura mínima	21.6
60040	7	Sololá	710	Panajachel	8	Panajachel	9	Septiembre	2023-12-09T00:00:00	2024-11-08T10:00:00	5	Humedad	75
60041	7	Sololá	710	Panajachel	8	Panajachel	9	Septiembre	2023-12-09T00:00:00	2024-11-08T10:00:00	6	Velocidad del viento	6.4
60042	7	Sololá	710	Panajachel	8	Panajachel	9	Septiembre	2023-12-09T00:00:00	2024-11-08T10:00:00	7	Dirección del viento	6.44
60043	7	Sololá	710	Panajachel	8	Panajachel	9	Septiembre	2023-12-09T00:00:00	2024-11-08T10:00:00	1	Precipitación	0
60044	7	Sololá	710	Panajachel	8	Panajachel	9	Septiembre	2023-12-09T00:00:00	2024-11-08T10:00:00	8	Radiación solar	721
60045	7	Sololá	710	Panajachel	8	Panajachel	9	Septiembre	2023-12-09T00:00:00	2024-11-08T11:00:00	2	Temperatura media	23.1
60046	7	Sololá	710	Panajachel	8	Panajachel	9	Septiembre	2023-12-09T00:00:00	2024-11-08T11:00:00	4	Temperatura máxima	23.3
60047	7	Sololá	710	Panajachel	8	Panajachel	9	Septiembre	2023-12-09T00:00:00	2024-11-08T11:00:00	3	Temperatura mínima	22.3
60048	7	Sololá	710	Panajachel	8	Panajachel	9	Septiembre	2023-12-09T00:00:00	2024-11-08T11:00:00	5	Humedad	74
60049	7	Sololá	710	Panajachel	8	Panajachel	9	Septiembre	2023-12-09T00:00:00	2024-11-08T11:00:00	6	Velocidad del viento	3.2
60050	7	Sololá	710	Panajachel	8	Panajachel	9	Septiembre	2023-12-09T00:00:00	2024-11-08T11:00:00	7	Dirección del viento	3.22
60051	7	Sololá	710	Panajachel	8	Panajachel	9	Septiembre	2023-12-09T00:00:00	2024-11-08T11:00:00	1	Precipitación	0
60052	7	Sololá	710	Panajachel	8	Panajachel	9	Septiembre	2023-12-09T00:00:00	2024-11-08T11:00:00	8	Radiación solar	860
60053	7	Sololá	710	Panajachel	8	Panajachel	9	Septiembre	2023-12-09T00:00:00	2024-11-08T12:00:00	2	Temperatura media	24.4
60054	7	Sololá	710	Panajachel	8	Panajachel	9	Septiembre	2023-12-09T00:00:00	2024-11-08T12:00:00	4	Temperatura máxima	24.4
60055	7	Sololá	710	Panajachel	8	Panajachel	9	Septiembre	2023-12-09T00:00:00	2024-11-08T12:00:00	3	Temperatura mínima	23.1
60056	7	Sololá	710	Panajachel	8	Panajachel	9	Septiembre	2023-12-09T00:00:00	2024-11-08T12:00:00	5	Humedad	75
60057	7	Sololá	710	Panajachel	8	Panajachel	9	Septiembre	2023-12-09T00:00:00	2024-11-08T12:00:00	6	Velocidad del viento	4.8
60058	7	Sololá	710	Panajachel	8	Panajachel	9	Septiembre	2023-12-09T00:00:00	2024-11-08T12:00:00	7	Dirección del viento	4.83
60059	7	Sololá	710	Panajachel	8	Panajachel	9	Septiembre	2023-12-09T00:00:00	2024-11-08T12:00:00	1	Precipitación	0
60060	7	Sololá	710	Panajachel	8	Panajachel	9	Septiembre	2023-12-09T00:00:00	2024-11-08T12:00:00	8	Radiación solar	889
60061	7	Sololá	710	Panajachel	8	Panajachel	9	Septiembre	2023-12-09T00:00:00	2024-11-08T13:00:00	2	Temperatura media	25.3
60062	7	Sololá	710	Panajachel	8	Panajachel	9	Septiembre	2023-12-09T00:00:00	2024-11-08T13:00:00	4	Temperatura máxima	25.3
60063	7	Sololá	710	Panajachel	8	Panajachel	9	Septiembre	2023-12-09T00:00:00	2024-11-08T13:00:00	3	Temperatura mínima	24.4
60064	7	Sololá	710	Panajachel	8	Panajachel	9	Septiembre	2023-12-09T00:00:00	2024-11-08T13:00:00	5	Humedad	75
60065	7	Sololá	710	Panajachel	8	Panajachel	9	Septiembre	2023-12-09T00:00:00	2024-11-08T13:00:00	6	Velocidad del viento	4.8
60066	7	Sololá	710	Panajachel	8	Panajachel	9	Septiembre	2023-12-09T00:00:00	2024-11-08T13:00:00	7	Dirección del viento	4.83
60067	7	Sololá	710	Panajachel	8	Panajachel	9	Septiembre	2023-12-09T00:00:00	2024-11-08T13:00:00	1	Precipitación	0
60068	7	Sololá	710	Panajachel	8	Panajachel	9	Septiembre	2023-12-09T00:00:00	2024-11-08T13:00:00	8	Radiación solar	985
60069	7	Sololá	710	Panajachel	8	Panajachel	9	Septiembre	2023-12-09T00:00:00	2024-11-08T14:00:00	2	Temperatura media	24.7
60070	7	Sololá	710	Panajachel	8	Panajachel	9	Septiembre	2023-12-09T00:00:00	2024-11-08T14:00:00	4	Temperatura máxima	25.7
60071	7	Sololá	710	Panajachel	8	Panajachel	9	Septiembre	2023-12-09T00:00:00	2024-11-08T14:00:00	3	Temperatura mínima	24.6
60072	7	Sololá	710	Panajachel	8	Panajachel	9	Septiembre	2023-12-09T00:00:00	2024-11-08T14:00:00	5	Humedad	78
60073	7	Sololá	710	Panajachel	8	Panajachel	9	Septiembre	2023-12-09T00:00:00	2024-11-08T14:00:00	6	Velocidad del viento	4.8
60074	7	Sololá	710	Panajachel	8	Panajachel	9	Septiembre	2023-12-09T00:00:00	2024-11-08T14:00:00	7	Dirección del viento	4.83
60075	7	Sololá	710	Panajachel	8	Panajachel	9	Septiembre	2023-12-09T00:00:00	2024-11-08T14:00:00	1	Precipitación	0
60076	7	Sololá	710	Panajachel	8	Panajachel	9	Septiembre	2023-12-09T00:00:00	2024-11-08T14:00:00	8	Radiación solar	685
60077	7	Sololá	710	Panajachel	8	Panajachel	9	Septiembre	2023-12-09T00:00:00	2024-11-08T15:00:00	2	Temperatura media	23.6
60078	7	Sololá	710	Panajachel	8	Panajachel	9	Septiembre	2023-12-09T00:00:00	2024-11-08T15:00:00	4	Temperatura máxima	24.7
60079	7	Sololá	710	Panajachel	8	Panajachel	9	Septiembre	2023-12-09T00:00:00	2024-11-08T15:00:00	3	Temperatura mínima	23.6
60080	7	Sololá	710	Panajachel	8	Panajachel	9	Septiembre	2023-12-09T00:00:00	2024-11-08T15:00:00	5	Humedad	80
60081	7	Sololá	710	Panajachel	8	Panajachel	9	Septiembre	2023-12-09T00:00:00	2024-11-08T15:00:00	6	Velocidad del viento	4.8
60082	7	Sololá	710	Panajachel	8	Panajachel	9	Septiembre	2023-12-09T00:00:00	2024-11-08T15:00:00	7	Dirección del viento	4.83
60083	7	Sololá	710	Panajachel	8	Panajachel	9	Septiembre	2023-12-09T00:00:00	2024-11-08T15:00:00	1	Precipitación	0
60084	7	Sololá	710	Panajachel	8	Panajachel	9	Septiembre	2023-12-09T00:00:00	2024-11-08T15:00:00	8	Radiación solar	271
60085	7	Sololá	710	Panajachel	8	Panajachel	9	Septiembre	2023-12-09T00:00:00	2024-11-08T16:00:00	2	Temperatura media	22.8
60086	7	Sololá	710	Panajachel	8	Panajachel	9	Septiembre	2023-12-09T00:00:00	2024-11-08T16:00:00	4	Temperatura máxima	23.6
60087	7	Sololá	710	Panajachel	8	Panajachel	9	Septiembre	2023-12-09T00:00:00	2024-11-08T16:00:00	3	Temperatura mínima	22.8
60088	7	Sololá	710	Panajachel	8	Panajachel	9	Septiembre	2023-12-09T00:00:00	2024-11-08T16:00:00	5	Humedad	84
60089	7	Sololá	710	Panajachel	8	Panajachel	9	Septiembre	2023-12-09T00:00:00	2024-11-08T16:00:00	6	Velocidad del viento	4.8
60090	7	Sololá	710	Panajachel	8	Panajachel	9	Septiembre	2023-12-09T00:00:00	2024-11-08T16:00:00	7	Dirección del viento	4.83
60091	7	Sololá	710	Panajachel	8	Panajachel	9	Septiembre	2023-12-09T00:00:00	2024-11-08T16:00:00	1	Precipitación	0
60092	7	Sololá	710	Panajachel	8	Panajachel	9	Septiembre	2023-12-09T00:00:00	2024-11-08T16:00:00	8	Radiación solar	187
60093	7	Sololá	710	Panajachel	8	Panajachel	9	Septiembre	2023-12-09T00:00:00	2024-11-08T17:00:00	2	Temperatura media	22.2
60094	7	Sololá	710	Panajachel	8	Panajachel	9	Septiembre	2023-12-09T00:00:00	2024-11-08T17:00:00	4	Temperatura máxima	23.1
60095	7	Sololá	710	Panajachel	8	Panajachel	9	Septiembre	2023-12-09T00:00:00	2024-11-08T17:00:00	3	Temperatura mínima	22.2
60096	7	Sololá	710	Panajachel	8	Panajachel	9	Septiembre	2023-12-09T00:00:00	2024-11-08T17:00:00	5	Humedad	88
60097	7	Sololá	710	Panajachel	8	Panajachel	9	Septiembre	2023-12-09T00:00:00	2024-11-08T17:00:00	6	Velocidad del viento	3.2
60098	7	Sololá	710	Panajachel	8	Panajachel	9	Septiembre	2023-12-09T00:00:00	2024-11-08T17:00:00	7	Dirección del viento	3.22
60099	7	Sololá	710	Panajachel	8	Panajachel	9	Septiembre	2023-12-09T00:00:00	2024-11-08T17:00:00	1	Precipitación	0
60100	7	Sololá	710	Panajachel	8	Panajachel	9	Septiembre	2023-12-09T00:00:00	2024-11-08T17:00:00	8	Radiación solar	79
60101	7	Sololá	710	Panajachel	8	Panajachel	9	Septiembre	2023-12-09T00:00:00	2024-11-08T18:00:00	2	Temperatura media	21.5
60102	7	Sololá	710	Panajachel	8	Panajachel	9	Septiembre	2023-12-09T00:00:00	2024-11-08T18:00:00	4	Temperatura máxima	22.3
60103	7	Sololá	710	Panajachel	8	Panajachel	9	Septiembre	2023-12-09T00:00:00	2024-11-08T18:00:00	3	Temperatura mínima	21.5
60104	7	Sololá	710	Panajachel	8	Panajachel	9	Septiembre	2023-12-09T00:00:00	2024-11-08T18:00:00	5	Humedad	90
60105	7	Sololá	710	Panajachel	8	Panajachel	9	Septiembre	2023-12-09T00:00:00	2024-11-08T18:00:00	6	Velocidad del viento	3.2
60106	7	Sololá	710	Panajachel	8	Panajachel	9	Septiembre	2023-12-09T00:00:00	2024-11-08T18:00:00	7	Dirección del viento	3.22
60107	7	Sololá	710	Panajachel	8	Panajachel	9	Septiembre	2023-12-09T00:00:00	2024-11-08T18:00:00	1	Precipitación	0
60108	7	Sololá	710	Panajachel	8	Panajachel	9	Septiembre	2023-12-09T00:00:00	2024-11-08T18:00:00	8	Radiación solar	29
60109	7	Sololá	710	Panajachel	8	Panajachel	9	Septiembre	2023-12-09T00:00:00	2024-11-08T19:00:00	2	Temperatura media	21.2
60110	7	Sololá	710	Panajachel	8	Panajachel	9	Septiembre	2023-12-09T00:00:00	2024-11-08T19:00:00	4	Temperatura máxima	21.5
60111	7	Sololá	710	Panajachel	8	Panajachel	9	Septiembre	2023-12-09T00:00:00	2024-11-08T19:00:00	3	Temperatura mínima	21.1
60112	7	Sololá	710	Panajachel	8	Panajachel	9	Septiembre	2023-12-09T00:00:00	2024-11-08T19:00:00	5	Humedad	89
60113	7	Sololá	710	Panajachel	8	Panajachel	9	Septiembre	2023-12-09T00:00:00	2024-11-08T19:00:00	6	Velocidad del viento	3.2
60114	7	Sololá	710	Panajachel	8	Panajachel	9	Septiembre	2023-12-09T00:00:00	2024-11-08T19:00:00	7	Dirección del viento	3.22
60115	7	Sololá	710	Panajachel	8	Panajachel	9	Septiembre	2023-12-09T00:00:00	2024-11-08T19:00:00	1	Precipitación	0
60116	7	Sololá	710	Panajachel	8	Panajachel	9	Septiembre	2023-12-09T00:00:00	2024-11-08T19:00:00	8	Radiación solar	0
60117	7	Sololá	710	Panajachel	8	Panajachel	9	Septiembre	2023-12-09T00:00:00	2024-11-08T20:00:00	2	Temperatura media	20.9
60118	7	Sololá	710	Panajachel	8	Panajachel	9	Septiembre	2023-12-09T00:00:00	2024-11-08T20:00:00	4	Temperatura máxima	21.2
60119	7	Sololá	710	Panajachel	8	Panajachel	9	Septiembre	2023-12-09T00:00:00	2024-11-08T20:00:00	3	Temperatura mínima	20.9
60120	7	Sololá	710	Panajachel	8	Panajachel	9	Septiembre	2023-12-09T00:00:00	2024-11-08T20:00:00	5	Humedad	93
60121	7	Sololá	710	Panajachel	8	Panajachel	9	Septiembre	2023-12-09T00:00:00	2024-11-08T20:00:00	6	Velocidad del viento	1.6
60122	7	Sololá	710	Panajachel	8	Panajachel	9	Septiembre	2023-12-09T00:00:00	2024-11-08T20:00:00	7	Dirección del viento	1.61
60123	7	Sololá	710	Panajachel	8	Panajachel	9	Septiembre	2023-12-09T00:00:00	2024-11-08T20:00:00	1	Precipitación	0
60124	7	Sololá	710	Panajachel	8	Panajachel	9	Septiembre	2023-12-09T00:00:00	2024-11-08T20:00:00	8	Radiación solar	0
60125	7	Sololá	710	Panajachel	8	Panajachel	9	Septiembre	2023-12-09T00:00:00	2024-11-08T21:00:00	2	Temperatura media	20.2
60126	7	Sololá	710	Panajachel	8	Panajachel	9	Septiembre	2023-12-09T00:00:00	2024-11-08T21:00:00	4	Temperatura máxima	20.9
60127	7	Sololá	710	Panajachel	8	Panajachel	9	Septiembre	2023-12-09T00:00:00	2024-11-08T21:00:00	3	Temperatura mínima	20.2
60128	7	Sololá	710	Panajachel	8	Panajachel	9	Septiembre	2023-12-09T00:00:00	2024-11-08T21:00:00	5	Humedad	92
60129	7	Sololá	710	Panajachel	8	Panajachel	9	Septiembre	2023-12-09T00:00:00	2024-11-08T21:00:00	6	Velocidad del viento	1.6
60130	7	Sololá	710	Panajachel	8	Panajachel	9	Septiembre	2023-12-09T00:00:00	2024-11-08T21:00:00	7	Dirección del viento	1.61
60131	7	Sololá	710	Panajachel	8	Panajachel	9	Septiembre	2023-12-09T00:00:00	2024-11-08T21:00:00	1	Precipitación	0
60132	7	Sololá	710	Panajachel	8	Panajachel	9	Septiembre	2023-12-09T00:00:00	2024-11-08T21:00:00	8	Radiación solar	0
60133	7	Sololá	710	Panajachel	8	Panajachel	9	Septiembre	2023-12-09T00:00:00	2024-11-08T22:00:00	2	Temperatura media	19.9
60134	7	Sololá	710	Panajachel	8	Panajachel	9	Septiembre	2023-12-09T00:00:00	2024-11-08T22:00:00	4	Temperatura máxima	20.2
60135	7	Sololá	710	Panajachel	8	Panajachel	9	Septiembre	2023-12-09T00:00:00	2024-11-08T22:00:00	3	Temperatura mínima	19.9
60136	7	Sololá	710	Panajachel	8	Panajachel	9	Septiembre	2023-12-09T00:00:00	2024-11-08T22:00:00	5	Humedad	92
60137	7	Sololá	710	Panajachel	8	Panajachel	9	Septiembre	2023-12-09T00:00:00	2024-11-08T22:00:00	6	Velocidad del viento	0
60138	7	Sololá	710	Panajachel	8	Panajachel	9	Septiembre	2023-12-09T00:00:00	2024-11-08T22:00:00	7	Dirección del viento	0
60139	7	Sololá	710	Panajachel	8	Panajachel	9	Septiembre	2023-12-09T00:00:00	2024-11-08T22:00:00	1	Precipitación	0
60140	7	Sololá	710	Panajachel	8	Panajachel	9	Septiembre	2023-12-09T00:00:00	2024-11-08T22:00:00	8	Radiación solar	0
60141	7	Sololá	710	Panajachel	8	Panajachel	9	Septiembre	2023-12-09T00:00:00	2024-11-08T23:00:00	2	Temperatura media	19.4
60142	7	Sololá	710	Panajachel	8	Panajachel	9	Septiembre	2023-12-09T00:00:00	2024-11-08T23:00:00	4	Temperatura máxima	19.9
60143	7	Sololá	710	Panajachel	8	Panajachel	9	Septiembre	2023-12-09T00:00:00	2024-11-08T23:00:00	3	Temperatura mínima	19.4
60144	7	Sololá	710	Panajachel	8	Panajachel	9	Septiembre	2023-12-09T00:00:00	2024-11-08T23:00:00	5	Humedad	89
60145	7	Sololá	710	Panajachel	8	Panajachel	9	Septiembre	2023-12-09T00:00:00	2024-11-08T23:00:00	6	Velocidad del viento	1.6
60146	7	Sololá	710	Panajachel	8	Panajachel	9	Septiembre	2023-12-09T00:00:00	2024-11-08T23:00:00	7	Dirección del viento	1.61
60147	7	Sololá	710	Panajachel	8	Panajachel	9	Septiembre	2023-12-09T00:00:00	2024-11-08T23:00:00	1	Precipitación	0
60148	7	Sololá	710	Panajachel	8	Panajachel	9	Septiembre	2023-12-09T00:00:00	2024-11-08T23:00:00	8	Radiación solar	0
60149	7	Sololá	710	Panajachel	8	Panajachel	9	Septiembre	2023-09-13T00:00:00	2024-11-08T00:00:00	2	Temperatura media	19.1
60150	7	Sololá	710	Panajachel	8	Panajachel	9	Septiembre	2023-09-13T00:00:00	2024-11-08T00:00:00	4	Temperatura máxima	19.4
60151	7	Sololá	710	Panajachel	8	Panajachel	9	Septiembre	2023-09-13T00:00:00	2024-11-08T00:00:00	3	Temperatura mínima	18.9
60152	7	Sololá	710	Panajachel	8	Panajachel	9	Septiembre	2023-09-13T00:00:00	2024-11-08T00:00:00	5	Humedad	88
60153	7	Sololá	710	Panajachel	8	Panajachel	9	Septiembre	2023-09-13T00:00:00	2024-11-08T00:00:00	6	Velocidad del viento	3.2
60154	7	Sololá	710	Panajachel	8	Panajachel	9	Septiembre	2023-09-13T00:00:00	2024-11-08T00:00:00	7	Dirección del viento	3.22
60155	7	Sololá	710	Panajachel	8	Panajachel	9	Septiembre	2023-09-13T00:00:00	2024-11-08T00:00:00	1	Precipitación	0
60156	7	Sololá	710	Panajachel	8	Panajachel	9	Septiembre	2023-09-13T00:00:00	2024-11-08T00:00:00	8	Radiación solar	0
60157	7	Sololá	710	Panajachel	8	Panajachel	9	Septiembre	2023-09-13T00:00:00	2024-11-08T01:00:00	2	Temperatura media	19.2
60158	7	Sololá	710	Panajachel	8	Panajachel	9	Septiembre	2023-09-13T00:00:00	2024-11-08T01:00:00	4	Temperatura máxima	19.2
60159	7	Sololá	710	Panajachel	8	Panajachel	9	Septiembre	2023-09-13T00:00:00	2024-11-08T01:00:00	3	Temperatura mínima	19.1
60160	7	Sololá	710	Panajachel	8	Panajachel	9	Septiembre	2023-09-13T00:00:00	2024-11-08T01:00:00	5	Humedad	88
60161	7	Sololá	710	Panajachel	8	Panajachel	9	Septiembre	2023-09-13T00:00:00	2024-11-08T01:00:00	6	Velocidad del viento	3.2
60162	7	Sololá	710	Panajachel	8	Panajachel	9	Septiembre	2023-09-13T00:00:00	2024-11-08T01:00:00	7	Dirección del viento	3.22
60163	7	Sololá	710	Panajachel	8	Panajachel	9	Septiembre	2023-09-13T00:00:00	2024-11-08T01:00:00	1	Precipitación	0
60164	7	Sololá	710	Panajachel	8	Panajachel	9	Septiembre	2023-09-13T00:00:00	2024-11-08T01:00:00	8	Radiación solar	0
60165	7	Sololá	710	Panajachel	8	Panajachel	9	Septiembre	2023-09-13T00:00:00	2024-11-08T02:00:00	2	Temperatura media	19.2
60166	7	Sololá	710	Panajachel	8	Panajachel	9	Septiembre	2023-09-13T00:00:00	2024-11-08T02:00:00	4	Temperatura máxima	19.3
60167	7	Sololá	710	Panajachel	8	Panajachel	9	Septiembre	2023-09-13T00:00:00	2024-11-08T02:00:00	3	Temperatura mínima	19.2
60168	7	Sololá	710	Panajachel	8	Panajachel	9	Septiembre	2023-09-13T00:00:00	2024-11-08T02:00:00	5	Humedad	89
60169	7	Sololá	710	Panajachel	8	Panajachel	9	Septiembre	2023-09-13T00:00:00	2024-11-08T02:00:00	6	Velocidad del viento	1.6
60170	7	Sololá	710	Panajachel	8	Panajachel	9	Septiembre	2023-09-13T00:00:00	2024-11-08T02:00:00	7	Dirección del viento	1.61
60171	7	Sololá	710	Panajachel	8	Panajachel	9	Septiembre	2023-09-13T00:00:00	2024-11-08T02:00:00	1	Precipitación	0
60172	7	Sololá	710	Panajachel	8	Panajachel	9	Septiembre	2023-09-13T00:00:00	2024-11-08T02:00:00	8	Radiación solar	0
60173	7	Sololá	710	Panajachel	8	Panajachel	9	Septiembre	2023-09-13T00:00:00	2024-11-08T03:00:00	2	Temperatura media	18.3
60174	7	Sololá	710	Panajachel	8	Panajachel	9	Septiembre	2023-09-13T00:00:00	2024-11-08T03:00:00	4	Temperatura máxima	19.2
60175	7	Sololá	710	Panajachel	8	Panajachel	9	Septiembre	2023-09-13T00:00:00	2024-11-08T03:00:00	3	Temperatura mínima	18.2
60176	7	Sololá	710	Panajachel	8	Panajachel	9	Septiembre	2023-09-13T00:00:00	2024-11-08T03:00:00	5	Humedad	94
60177	7	Sololá	710	Panajachel	8	Panajachel	9	Septiembre	2023-09-13T00:00:00	2024-11-08T03:00:00	6	Velocidad del viento	3.2
60178	7	Sololá	710	Panajachel	8	Panajachel	9	Septiembre	2023-09-13T00:00:00	2024-11-08T03:00:00	7	Dirección del viento	3.22
60179	7	Sololá	710	Panajachel	8	Panajachel	9	Septiembre	2023-09-13T00:00:00	2024-11-08T03:00:00	1	Precipitación	0.4
60180	7	Sololá	710	Panajachel	8	Panajachel	9	Septiembre	2023-09-13T00:00:00	2024-11-08T03:00:00	8	Radiación solar	0
60181	7	Sololá	710	Panajachel	8	Panajachel	9	Septiembre	2023-09-13T00:00:00	2024-11-08T04:00:00	2	Temperatura media	17.9
60182	7	Sololá	710	Panajachel	8	Panajachel	9	Septiembre	2023-09-13T00:00:00	2024-11-08T04:00:00	4	Temperatura máxima	18.3
60183	7	Sololá	710	Panajachel	8	Panajachel	9	Septiembre	2023-09-13T00:00:00	2024-11-08T04:00:00	3	Temperatura mínima	17.8
60184	7	Sololá	710	Panajachel	8	Panajachel	9	Septiembre	2023-09-13T00:00:00	2024-11-08T04:00:00	5	Humedad	93
60185	7	Sololá	710	Panajachel	8	Panajachel	9	Septiembre	2023-09-13T00:00:00	2024-11-08T04:00:00	6	Velocidad del viento	1.6
60186	7	Sololá	710	Panajachel	8	Panajachel	9	Septiembre	2023-09-13T00:00:00	2024-11-08T04:00:00	7	Dirección del viento	1.61
60187	7	Sololá	710	Panajachel	8	Panajachel	9	Septiembre	2023-09-13T00:00:00	2024-11-08T04:00:00	1	Precipitación	0.6
60188	7	Sololá	710	Panajachel	8	Panajachel	9	Septiembre	2023-09-13T00:00:00	2024-11-08T04:00:00	8	Radiación solar	0
60189	7	Sololá	710	Panajachel	8	Panajachel	9	Septiembre	2023-09-13T00:00:00	2024-11-08T05:00:00	2	Temperatura media	17.7
60190	7	Sololá	710	Panajachel	8	Panajachel	9	Septiembre	2023-09-13T00:00:00	2024-11-08T05:00:00	4	Temperatura máxima	18.1
60191	7	Sololá	710	Panajachel	8	Panajachel	9	Septiembre	2023-09-13T00:00:00	2024-11-08T05:00:00	3	Temperatura mínima	17.7
60192	7	Sololá	710	Panajachel	8	Panajachel	9	Septiembre	2023-09-13T00:00:00	2024-11-08T05:00:00	5	Humedad	94
60193	7	Sololá	710	Panajachel	8	Panajachel	9	Septiembre	2023-09-13T00:00:00	2024-11-08T05:00:00	6	Velocidad del viento	1.6
60194	7	Sololá	710	Panajachel	8	Panajachel	9	Septiembre	2023-09-13T00:00:00	2024-11-08T05:00:00	7	Dirección del viento	1.61
60195	7	Sololá	710	Panajachel	8	Panajachel	9	Septiembre	2023-09-13T00:00:00	2024-11-08T05:00:00	1	Precipitación	0
60196	7	Sololá	710	Panajachel	8	Panajachel	9	Septiembre	2023-09-13T00:00:00	2024-11-08T05:00:00	8	Radiación solar	0
60197	7	Sololá	710	Panajachel	8	Panajachel	9	Septiembre	2023-09-13T00:00:00	2024-11-08T06:00:00	2	Temperatura media	17.6
60198	7	Sololá	710	Panajachel	8	Panajachel	9	Septiembre	2023-09-13T00:00:00	2024-11-08T06:00:00	4	Temperatura máxima	17.7
60199	7	Sololá	710	Panajachel	8	Panajachel	9	Septiembre	2023-09-13T00:00:00	2024-11-08T06:00:00	3	Temperatura mínima	17.4
60200	7	Sololá	710	Panajachel	8	Panajachel	9	Septiembre	2023-09-13T00:00:00	2024-11-08T06:00:00	5	Humedad	93
60201	7	Sololá	710	Panajachel	8	Panajachel	9	Septiembre	2023-09-13T00:00:00	2024-11-08T06:00:00	6	Velocidad del viento	1.6
60202	7	Sololá	710	Panajachel	8	Panajachel	9	Septiembre	2023-09-13T00:00:00	2024-11-08T06:00:00	7	Dirección del viento	1.61
60203	7	Sololá	710	Panajachel	8	Panajachel	9	Septiembre	2023-09-13T00:00:00	2024-11-08T06:00:00	1	Precipitación	0
60204	7	Sololá	710	Panajachel	8	Panajachel	9	Septiembre	2023-09-13T00:00:00	2024-11-08T06:00:00	8	Radiación solar	0
60205	7	Sololá	710	Panajachel	8	Panajachel	9	Septiembre	2023-09-13T00:00:00	2024-11-08T07:00:00	2	Temperatura media	18.6
60206	7	Sololá	710	Panajachel	8	Panajachel	9	Septiembre	2023-09-13T00:00:00	2024-11-08T07:00:00	4	Temperatura máxima	18.6
60207	7	Sololá	710	Panajachel	8	Panajachel	9	Septiembre	2023-09-13T00:00:00	2024-11-08T07:00:00	3	Temperatura mínima	17.4
60208	7	Sololá	710	Panajachel	8	Panajachel	9	Septiembre	2023-09-13T00:00:00	2024-11-08T07:00:00	5	Humedad	86
60209	7	Sololá	710	Panajachel	8	Panajachel	9	Septiembre	2023-09-13T00:00:00	2024-11-08T07:00:00	6	Velocidad del viento	0
60210	7	Sololá	710	Panajachel	8	Panajachel	9	Septiembre	2023-09-13T00:00:00	2024-11-08T07:00:00	7	Dirección del viento	0
60211	7	Sololá	710	Panajachel	8	Panajachel	9	Septiembre	2023-09-13T00:00:00	2024-11-08T07:00:00	1	Precipitación	0
60212	7	Sololá	710	Panajachel	8	Panajachel	9	Septiembre	2023-09-13T00:00:00	2024-11-08T07:00:00	8	Radiación solar	49
60213	7	Sololá	710	Panajachel	8	Panajachel	9	Septiembre	2023-09-13T00:00:00	2024-11-08T08:00:00	2	Temperatura media	20.4
60214	7	Sololá	710	Panajachel	8	Panajachel	9	Septiembre	2023-09-13T00:00:00	2024-11-08T08:00:00	4	Temperatura máxima	20.4
60215	7	Sololá	710	Panajachel	8	Panajachel	9	Septiembre	2023-09-13T00:00:00	2024-11-08T08:00:00	3	Temperatura mínima	18.6
60216	7	Sololá	710	Panajachel	8	Panajachel	9	Septiembre	2023-09-13T00:00:00	2024-11-08T08:00:00	5	Humedad	87
60217	7	Sololá	710	Panajachel	8	Panajachel	9	Septiembre	2023-09-13T00:00:00	2024-11-08T08:00:00	6	Velocidad del viento	0
60218	7	Sololá	710	Panajachel	8	Panajachel	9	Septiembre	2023-09-13T00:00:00	2024-11-08T08:00:00	7	Dirección del viento	0
60219	7	Sololá	710	Panajachel	8	Panajachel	9	Septiembre	2023-09-13T00:00:00	2024-11-08T08:00:00	1	Precipitación	0
60220	7	Sololá	710	Panajachel	8	Panajachel	9	Septiembre	2023-09-13T00:00:00	2024-11-08T08:00:00	8	Radiación solar	165
60221	7	Sololá	710	Panajachel	8	Panajachel	9	Septiembre	2023-09-13T00:00:00	2024-11-08T09:00:00	2	Temperatura media	22.1
60222	7	Sololá	710	Panajachel	8	Panajachel	9	Septiembre	2023-09-13T00:00:00	2024-11-08T09:00:00	4	Temperatura máxima	22.1
60223	7	Sololá	710	Panajachel	8	Panajachel	9	Septiembre	2023-09-13T00:00:00	2024-11-08T09:00:00	3	Temperatura mínima	20.4
60224	7	Sololá	710	Panajachel	8	Panajachel	9	Septiembre	2023-09-13T00:00:00	2024-11-08T09:00:00	5	Humedad	82
60225	7	Sololá	710	Panajachel	8	Panajachel	9	Septiembre	2023-09-13T00:00:00	2024-11-08T09:00:00	6	Velocidad del viento	3.2
60226	7	Sololá	710	Panajachel	8	Panajachel	9	Septiembre	2023-09-13T00:00:00	2024-11-08T09:00:00	7	Dirección del viento	3.22
60227	7	Sololá	710	Panajachel	8	Panajachel	9	Septiembre	2023-09-13T00:00:00	2024-11-08T09:00:00	1	Precipitación	0
60228	7	Sololá	710	Panajachel	8	Panajachel	9	Septiembre	2023-09-13T00:00:00	2024-11-08T09:00:00	8	Radiación solar	575
60229	7	Sololá	710	Panajachel	8	Panajachel	9	Septiembre	2023-09-13T00:00:00	2024-11-08T10:00:00	2	Temperatura media	23.6
60230	7	Sololá	710	Panajachel	8	Panajachel	9	Septiembre	2023-09-13T00:00:00	2024-11-08T10:00:00	4	Temperatura máxima	23.7
60231	7	Sololá	710	Panajachel	8	Panajachel	9	Septiembre	2023-09-13T00:00:00	2024-11-08T10:00:00	3	Temperatura mínima	22.1
60232	7	Sololá	710	Panajachel	8	Panajachel	9	Septiembre	2023-09-13T00:00:00	2024-11-08T10:00:00	5	Humedad	78
60233	7	Sololá	710	Panajachel	8	Panajachel	9	Septiembre	2023-09-13T00:00:00	2024-11-08T10:00:00	6	Velocidad del viento	3.2
60234	7	Sololá	710	Panajachel	8	Panajachel	9	Septiembre	2023-09-13T00:00:00	2024-11-08T10:00:00	7	Dirección del viento	3.22
60235	7	Sololá	710	Panajachel	8	Panajachel	9	Septiembre	2023-09-13T00:00:00	2024-11-08T10:00:00	1	Precipitación	0
60236	7	Sololá	710	Panajachel	8	Panajachel	9	Septiembre	2023-09-13T00:00:00	2024-11-08T10:00:00	8	Radiación solar	776
60237	7	Sololá	710	Panajachel	8	Panajachel	9	Septiembre	2023-09-13T00:00:00	2024-11-08T11:00:00	2	Temperatura media	24.3
60238	7	Sololá	710	Panajachel	8	Panajachel	9	Septiembre	2023-09-13T00:00:00	2024-11-08T11:00:00	4	Temperatura máxima	24.4
60239	7	Sololá	710	Panajachel	8	Panajachel	9	Septiembre	2023-09-13T00:00:00	2024-11-08T11:00:00	3	Temperatura mínima	23.4
60240	7	Sololá	710	Panajachel	8	Panajachel	9	Septiembre	2023-09-13T00:00:00	2024-11-08T11:00:00	5	Humedad	77
60241	7	Sololá	710	Panajachel	8	Panajachel	9	Septiembre	2023-09-13T00:00:00	2024-11-08T11:00:00	6	Velocidad del viento	4.8
60242	7	Sololá	710	Panajachel	8	Panajachel	9	Septiembre	2023-09-13T00:00:00	2024-11-08T11:00:00	7	Dirección del viento	4.83
60243	7	Sololá	710	Panajachel	8	Panajachel	9	Septiembre	2023-09-13T00:00:00	2024-11-08T11:00:00	1	Precipitación	0
60244	7	Sololá	710	Panajachel	8	Panajachel	9	Septiembre	2023-09-13T00:00:00	2024-11-08T11:00:00	8	Radiación solar	885
60245	7	Sololá	710	Panajachel	8	Panajachel	9	Septiembre	2023-09-13T00:00:00	2024-11-08T12:00:00	2	Temperatura media	24.6
60246	7	Sololá	710	Panajachel	8	Panajachel	9	Septiembre	2023-09-13T00:00:00	2024-11-08T12:00:00	4	Temperatura máxima	24.8
60247	7	Sololá	710	Panajachel	8	Panajachel	9	Septiembre	2023-09-13T00:00:00	2024-11-08T12:00:00	3	Temperatura mínima	24.2
60248	7	Sololá	710	Panajachel	8	Panajachel	9	Septiembre	2023-09-13T00:00:00	2024-11-08T12:00:00	5	Humedad	75
60249	7	Sololá	710	Panajachel	8	Panajachel	9	Septiembre	2023-09-13T00:00:00	2024-11-08T12:00:00	6	Velocidad del viento	3.2
60250	7	Sololá	710	Panajachel	8	Panajachel	9	Septiembre	2023-09-13T00:00:00	2024-11-08T12:00:00	7	Dirección del viento	3.22
60251	7	Sololá	710	Panajachel	8	Panajachel	9	Septiembre	2023-09-13T00:00:00	2024-11-08T12:00:00	1	Precipitación	0
60252	7	Sololá	710	Panajachel	8	Panajachel	9	Septiembre	2023-09-13T00:00:00	2024-11-08T12:00:00	8	Radiación solar	888
60253	7	Sololá	710	Panajachel	8	Panajachel	9	Septiembre	2023-09-13T00:00:00	2024-11-08T13:00:00	2	Temperatura media	24.2
60254	7	Sololá	710	Panajachel	8	Panajachel	9	Septiembre	2023-09-13T00:00:00	2024-11-08T13:00:00	4	Temperatura máxima	24.8
60255	7	Sololá	710	Panajachel	8	Panajachel	9	Septiembre	2023-09-13T00:00:00	2024-11-08T13:00:00	3	Temperatura mínima	23.9
60256	7	Sololá	710	Panajachel	8	Panajachel	9	Septiembre	2023-09-13T00:00:00	2024-11-08T13:00:00	5	Humedad	79
60257	7	Sololá	710	Panajachel	8	Panajachel	9	Septiembre	2023-09-13T00:00:00	2024-11-08T13:00:00	6	Velocidad del viento	3.2
60258	7	Sololá	710	Panajachel	8	Panajachel	9	Septiembre	2023-09-13T00:00:00	2024-11-08T13:00:00	7	Dirección del viento	3.22
60259	7	Sololá	710	Panajachel	8	Panajachel	9	Septiembre	2023-09-13T00:00:00	2024-11-08T13:00:00	1	Precipitación	0
60260	7	Sololá	710	Panajachel	8	Panajachel	9	Septiembre	2023-09-13T00:00:00	2024-11-08T13:00:00	8	Radiación solar	859
60261	7	Sololá	710	Panajachel	8	Panajachel	9	Septiembre	2023-09-13T00:00:00	2024-11-08T14:00:00	2	Temperatura media	21.4
60262	7	Sololá	710	Panajachel	8	Panajachel	9	Septiembre	2023-09-13T00:00:00	2024-11-08T14:00:00	4	Temperatura máxima	24.7
60263	7	Sololá	710	Panajachel	8	Panajachel	9	Septiembre	2023-09-13T00:00:00	2024-11-08T14:00:00	3	Temperatura mínima	21.4
60264	7	Sololá	710	Panajachel	8	Panajachel	9	Septiembre	2023-09-13T00:00:00	2024-11-08T14:00:00	5	Humedad	92
60265	7	Sololá	710	Panajachel	8	Panajachel	9	Septiembre	2023-09-13T00:00:00	2024-11-08T14:00:00	6	Velocidad del viento	3.2
60266	7	Sololá	710	Panajachel	8	Panajachel	9	Septiembre	2023-09-13T00:00:00	2024-11-08T14:00:00	7	Dirección del viento	3.22
60267	7	Sololá	710	Panajachel	8	Panajachel	9	Septiembre	2023-09-13T00:00:00	2024-11-08T14:00:00	1	Precipitación	7.2
60268	7	Sololá	710	Panajachel	8	Panajachel	9	Septiembre	2023-09-13T00:00:00	2024-11-08T14:00:00	8	Radiación solar	157
60269	7	Sololá	710	Panajachel	8	Panajachel	9	Septiembre	2023-09-13T00:00:00	2024-11-08T15:00:00	2	Temperatura media	19.3
60270	7	Sololá	710	Panajachel	8	Panajachel	9	Septiembre	2023-09-13T00:00:00	2024-11-08T15:00:00	4	Temperatura máxima	21.6
60271	7	Sololá	710	Panajachel	8	Panajachel	9	Septiembre	2023-09-13T00:00:00	2024-11-08T15:00:00	3	Temperatura mínima	19.3
60272	7	Sololá	710	Panajachel	8	Panajachel	9	Septiembre	2023-09-13T00:00:00	2024-11-08T15:00:00	5	Humedad	95
60273	7	Sololá	710	Panajachel	8	Panajachel	9	Septiembre	2023-09-13T00:00:00	2024-11-08T15:00:00	6	Velocidad del viento	4.8
60274	7	Sololá	710	Panajachel	8	Panajachel	9	Septiembre	2023-09-13T00:00:00	2024-11-08T15:00:00	7	Dirección del viento	4.83
60275	7	Sololá	710	Panajachel	8	Panajachel	9	Septiembre	2023-09-13T00:00:00	2024-11-08T15:00:00	1	Precipitación	13.6
60276	7	Sololá	710	Panajachel	8	Panajachel	9	Septiembre	2023-09-13T00:00:00	2024-11-08T15:00:00	8	Radiación solar	22
60277	7	Sololá	710	Panajachel	8	Panajachel	9	Septiembre	2023-09-13T00:00:00	2024-11-08T16:00:00	2	Temperatura media	19.7
60278	7	Sololá	710	Panajachel	8	Panajachel	9	Septiembre	2023-09-13T00:00:00	2024-11-08T16:00:00	4	Temperatura máxima	19.7
60279	7	Sololá	710	Panajachel	8	Panajachel	9	Septiembre	2023-09-13T00:00:00	2024-11-08T16:00:00	3	Temperatura mínima	18.8
60280	7	Sololá	710	Panajachel	8	Panajachel	9	Septiembre	2023-09-13T00:00:00	2024-11-08T16:00:00	5	Humedad	98
60281	7	Sololá	710	Panajachel	8	Panajachel	9	Septiembre	2023-09-13T00:00:00	2024-11-08T16:00:00	6	Velocidad del viento	1.6
60282	7	Sololá	710	Panajachel	8	Panajachel	9	Septiembre	2023-09-13T00:00:00	2024-11-08T16:00:00	7	Dirección del viento	1.61
60283	7	Sololá	710	Panajachel	8	Panajachel	9	Septiembre	2023-09-13T00:00:00	2024-11-08T16:00:00	1	Precipitación	8.2
60284	7	Sololá	710	Panajachel	8	Panajachel	9	Septiembre	2023-09-13T00:00:00	2024-11-08T16:00:00	8	Radiación solar	17
60285	7	Sololá	710	Panajachel	8	Panajachel	9	Septiembre	2023-09-13T00:00:00	2024-11-08T17:00:00	2	Temperatura media	19.3
60286	7	Sololá	710	Panajachel	8	Panajachel	9	Septiembre	2023-09-13T00:00:00	2024-11-08T17:00:00	4	Temperatura máxima	19.9
60287	7	Sololá	710	Panajachel	8	Panajachel	9	Septiembre	2023-09-13T00:00:00	2024-11-08T17:00:00	3	Temperatura mínima	19.3
60288	7	Sololá	710	Panajachel	8	Panajachel	9	Septiembre	2023-09-13T00:00:00	2024-11-08T17:00:00	5	Humedad	97
60289	7	Sololá	710	Panajachel	8	Panajachel	9	Septiembre	2023-09-13T00:00:00	2024-11-08T17:00:00	6	Velocidad del viento	1.6
60290	7	Sololá	710	Panajachel	8	Panajachel	9	Septiembre	2023-09-13T00:00:00	2024-11-08T17:00:00	7	Dirección del viento	1.61
60291	7	Sololá	710	Panajachel	8	Panajachel	9	Septiembre	2023-09-13T00:00:00	2024-11-08T17:00:00	1	Precipitación	13.2
60292	7	Sololá	710	Panajachel	8	Panajachel	9	Septiembre	2023-09-13T00:00:00	2024-11-08T17:00:00	8	Radiación solar	12
60293	7	Sololá	710	Panajachel	8	Panajachel	9	Septiembre	2023-09-13T00:00:00	2024-11-08T18:00:00	2	Temperatura media	19.4
60294	7	Sololá	710	Panajachel	8	Panajachel	9	Septiembre	2023-09-13T00:00:00	2024-11-08T18:00:00	4	Temperatura máxima	19.6
60295	7	Sololá	710	Panajachel	8	Panajachel	9	Septiembre	2023-09-13T00:00:00	2024-11-08T18:00:00	3	Temperatura mínima	19.2
60296	7	Sololá	710	Panajachel	8	Panajachel	9	Septiembre	2023-09-13T00:00:00	2024-11-08T18:00:00	5	Humedad	97
60297	7	Sololá	710	Panajachel	8	Panajachel	9	Septiembre	2023-09-13T00:00:00	2024-11-08T18:00:00	6	Velocidad del viento	1.6
60298	7	Sololá	710	Panajachel	8	Panajachel	9	Septiembre	2023-09-13T00:00:00	2024-11-08T18:00:00	7	Dirección del viento	1.61
60299	7	Sololá	710	Panajachel	8	Panajachel	9	Septiembre	2023-09-13T00:00:00	2024-11-08T18:00:00	1	Precipitación	0.2
60300	7	Sololá	710	Panajachel	8	Panajachel	9	Septiembre	2023-09-13T00:00:00	2024-11-08T18:00:00	8	Radiación solar	17
60301	7	Sololá	710	Panajachel	8	Panajachel	9	Septiembre	2023-09-13T00:00:00	2024-11-08T19:00:00	2	Temperatura media	19.4
60302	7	Sololá	710	Panajachel	8	Panajachel	9	Septiembre	2023-09-13T00:00:00	2024-11-08T19:00:00	4	Temperatura máxima	19.5
60303	7	Sololá	710	Panajachel	8	Panajachel	9	Septiembre	2023-09-13T00:00:00	2024-11-08T19:00:00	3	Temperatura mínima	19.3
60304	7	Sololá	710	Panajachel	8	Panajachel	9	Septiembre	2023-09-13T00:00:00	2024-11-08T19:00:00	5	Humedad	98
60305	7	Sololá	710	Panajachel	8	Panajachel	9	Septiembre	2023-09-13T00:00:00	2024-11-08T19:00:00	6	Velocidad del viento	0
60306	7	Sololá	710	Panajachel	8	Panajachel	9	Septiembre	2023-09-13T00:00:00	2024-11-08T19:00:00	7	Dirección del viento	0
60307	7	Sololá	710	Panajachel	8	Panajachel	9	Septiembre	2023-09-13T00:00:00	2024-11-08T19:00:00	1	Precipitación	0.6
60308	7	Sololá	710	Panajachel	8	Panajachel	9	Septiembre	2023-09-13T00:00:00	2024-11-08T19:00:00	8	Radiación solar	0
60309	7	Sololá	710	Panajachel	8	Panajachel	9	Septiembre	2023-09-13T00:00:00	2024-11-08T20:00:00	2	Temperatura media	19.2
60310	7	Sololá	710	Panajachel	8	Panajachel	9	Septiembre	2023-09-13T00:00:00	2024-11-08T20:00:00	4	Temperatura máxima	19.4
60311	7	Sololá	710	Panajachel	8	Panajachel	9	Septiembre	2023-09-13T00:00:00	2024-11-08T20:00:00	3	Temperatura mínima	19.2
60312	7	Sololá	710	Panajachel	8	Panajachel	9	Septiembre	2023-09-13T00:00:00	2024-11-08T20:00:00	5	Humedad	98
60313	7	Sololá	710	Panajachel	8	Panajachel	9	Septiembre	2023-09-13T00:00:00	2024-11-08T20:00:00	6	Velocidad del viento	0
60314	7	Sololá	710	Panajachel	8	Panajachel	9	Septiembre	2023-09-13T00:00:00	2024-11-08T20:00:00	7	Dirección del viento	0
60315	7	Sololá	710	Panajachel	8	Panajachel	9	Septiembre	2023-09-13T00:00:00	2024-11-08T20:00:00	1	Precipitación	0.2
60316	7	Sololá	710	Panajachel	8	Panajachel	9	Septiembre	2023-09-13T00:00:00	2024-11-08T20:00:00	8	Radiación solar	0
60317	7	Sololá	710	Panajachel	8	Panajachel	9	Septiembre	2023-09-13T00:00:00	2024-11-08T21:00:00	2	Temperatura media	18.9
60318	7	Sololá	710	Panajachel	8	Panajachel	9	Septiembre	2023-09-13T00:00:00	2024-11-08T21:00:00	4	Temperatura máxima	19.3
60319	7	Sololá	710	Panajachel	8	Panajachel	9	Septiembre	2023-09-13T00:00:00	2024-11-08T21:00:00	3	Temperatura mínima	18.9
60320	7	Sololá	710	Panajachel	8	Panajachel	9	Septiembre	2023-09-13T00:00:00	2024-11-08T21:00:00	5	Humedad	98
60321	7	Sololá	710	Panajachel	8	Panajachel	9	Septiembre	2023-09-13T00:00:00	2024-11-08T21:00:00	6	Velocidad del viento	1.6
60322	7	Sololá	710	Panajachel	8	Panajachel	9	Septiembre	2023-09-13T00:00:00	2024-11-08T21:00:00	7	Dirección del viento	1.61
60323	7	Sololá	710	Panajachel	8	Panajachel	9	Septiembre	2023-09-13T00:00:00	2024-11-08T21:00:00	1	Precipitación	0.2
60324	7	Sololá	710	Panajachel	8	Panajachel	9	Septiembre	2023-09-13T00:00:00	2024-11-08T21:00:00	8	Radiación solar	0
60325	7	Sololá	710	Panajachel	8	Panajachel	9	Septiembre	2023-09-13T00:00:00	2024-11-08T22:00:00	2	Temperatura media	18.6
60326	7	Sololá	710	Panajachel	8	Panajachel	9	Septiembre	2023-09-13T00:00:00	2024-11-08T22:00:00	4	Temperatura máxima	19
60327	7	Sololá	710	Panajachel	8	Panajachel	9	Septiembre	2023-09-13T00:00:00	2024-11-08T22:00:00	3	Temperatura mínima	18.6
60328	7	Sololá	710	Panajachel	8	Panajachel	9	Septiembre	2023-09-13T00:00:00	2024-11-08T22:00:00	5	Humedad	97
60329	7	Sololá	710	Panajachel	8	Panajachel	9	Septiembre	2023-09-13T00:00:00	2024-11-08T22:00:00	6	Velocidad del viento	1.6
60330	7	Sololá	710	Panajachel	8	Panajachel	9	Septiembre	2023-09-13T00:00:00	2024-11-08T22:00:00	7	Dirección del viento	1.61
60331	7	Sololá	710	Panajachel	8	Panajachel	9	Septiembre	2023-09-13T00:00:00	2024-11-08T22:00:00	1	Precipitación	0
60332	7	Sololá	710	Panajachel	8	Panajachel	9	Septiembre	2023-09-13T00:00:00	2024-11-08T22:00:00	8	Radiación solar	0
60333	7	Sololá	710	Panajachel	8	Panajachel	9	Septiembre	2023-09-13T00:00:00	2024-11-08T23:00:00	2	Temperatura media	18.2
60334	7	Sololá	710	Panajachel	8	Panajachel	9	Septiembre	2023-09-13T00:00:00	2024-11-08T23:00:00	4	Temperatura máxima	18.6
60335	7	Sololá	710	Panajachel	8	Panajachel	9	Septiembre	2023-09-13T00:00:00	2024-11-08T23:00:00	3	Temperatura mínima	18.2
60336	7	Sololá	710	Panajachel	8	Panajachel	9	Septiembre	2023-09-13T00:00:00	2024-11-08T23:00:00	5	Humedad	97
60337	7	Sololá	710	Panajachel	8	Panajachel	9	Septiembre	2023-09-13T00:00:00	2024-11-08T23:00:00	6	Velocidad del viento	1.6
60338	7	Sololá	710	Panajachel	8	Panajachel	9	Septiembre	2023-09-13T00:00:00	2024-11-08T23:00:00	7	Dirección del viento	1.61
60339	7	Sololá	710	Panajachel	8	Panajachel	9	Septiembre	2023-09-13T00:00:00	2024-11-08T23:00:00	1	Precipitación	0
60340	7	Sololá	710	Panajachel	8	Panajachel	9	Septiembre	2023-09-13T00:00:00	2024-11-08T23:00:00	8	Radiación solar	0
60341	7	Sololá	710	Panajachel	8	Panajachel	9	Septiembre	2023-09-14T00:00:00	2024-11-08T00:00:00	2	Temperatura media	17.9
60342	7	Sololá	710	Panajachel	8	Panajachel	9	Septiembre	2023-09-14T00:00:00	2024-11-08T00:00:00	4	Temperatura máxima	18.2
60343	7	Sololá	710	Panajachel	8	Panajachel	9	Septiembre	2023-09-14T00:00:00	2024-11-08T00:00:00	3	Temperatura mínima	17.9
60344	7	Sololá	710	Panajachel	8	Panajachel	9	Septiembre	2023-09-14T00:00:00	2024-11-08T00:00:00	5	Humedad	96
60345	7	Sololá	710	Panajachel	8	Panajachel	9	Septiembre	2023-09-14T00:00:00	2024-11-08T00:00:00	6	Velocidad del viento	1.6
60346	7	Sololá	710	Panajachel	8	Panajachel	9	Septiembre	2023-09-14T00:00:00	2024-11-08T00:00:00	7	Dirección del viento	1.61
60347	7	Sololá	710	Panajachel	8	Panajachel	9	Septiembre	2023-09-14T00:00:00	2024-11-08T00:00:00	1	Precipitación	0.4
60348	7	Sololá	710	Panajachel	8	Panajachel	9	Septiembre	2023-09-14T00:00:00	2024-11-08T00:00:00	8	Radiación solar	0
60349	7	Sololá	710	Panajachel	8	Panajachel	9	Septiembre	2023-09-14T00:00:00	2024-11-08T01:00:00	2	Temperatura media	17.7
60350	7	Sololá	710	Panajachel	8	Panajachel	9	Septiembre	2023-09-14T00:00:00	2024-11-08T01:00:00	4	Temperatura máxima	17.9
60351	7	Sololá	710	Panajachel	8	Panajachel	9	Septiembre	2023-09-14T00:00:00	2024-11-08T01:00:00	3	Temperatura mínima	17.6
60352	7	Sololá	710	Panajachel	8	Panajachel	9	Septiembre	2023-09-14T00:00:00	2024-11-08T01:00:00	5	Humedad	95
60353	7	Sololá	710	Panajachel	8	Panajachel	9	Septiembre	2023-09-14T00:00:00	2024-11-08T01:00:00	6	Velocidad del viento	1.6
60354	7	Sololá	710	Panajachel	8	Panajachel	9	Septiembre	2023-09-14T00:00:00	2024-11-08T01:00:00	7	Dirección del viento	1.61
60355	7	Sololá	710	Panajachel	8	Panajachel	9	Septiembre	2023-09-14T00:00:00	2024-11-08T01:00:00	1	Precipitación	0
60356	7	Sololá	710	Panajachel	8	Panajachel	9	Septiembre	2023-09-14T00:00:00	2024-11-08T01:00:00	8	Radiación solar	0
60357	7	Sololá	710	Panajachel	8	Panajachel	9	Septiembre	2023-09-14T00:00:00	2024-11-08T02:00:00	2	Temperatura media	17.4
60358	7	Sololá	710	Panajachel	8	Panajachel	9	Septiembre	2023-09-14T00:00:00	2024-11-08T02:00:00	4	Temperatura máxima	17.7
60359	7	Sololá	710	Panajachel	8	Panajachel	9	Septiembre	2023-09-14T00:00:00	2024-11-08T02:00:00	3	Temperatura mínima	17.3
60360	7	Sololá	710	Panajachel	8	Panajachel	9	Septiembre	2023-09-14T00:00:00	2024-11-08T02:00:00	5	Humedad	96
60361	7	Sololá	710	Panajachel	8	Panajachel	9	Septiembre	2023-09-14T00:00:00	2024-11-08T02:00:00	6	Velocidad del viento	0
60362	7	Sololá	710	Panajachel	8	Panajachel	9	Septiembre	2023-09-14T00:00:00	2024-11-08T02:00:00	7	Dirección del viento	0
60363	7	Sololá	710	Panajachel	8	Panajachel	9	Septiembre	2023-09-14T00:00:00	2024-11-08T02:00:00	1	Precipitación	0
60364	7	Sololá	710	Panajachel	8	Panajachel	9	Septiembre	2023-09-14T00:00:00	2024-11-08T02:00:00	8	Radiación solar	0
60365	7	Sololá	710	Panajachel	8	Panajachel	9	Septiembre	2023-09-14T00:00:00	2024-11-08T03:00:00	2	Temperatura media	16.8
60366	7	Sololá	710	Panajachel	8	Panajachel	9	Septiembre	2023-09-14T00:00:00	2024-11-08T03:00:00	4	Temperatura máxima	17.4
60367	7	Sololá	710	Panajachel	8	Panajachel	9	Septiembre	2023-09-14T00:00:00	2024-11-08T03:00:00	3	Temperatura mínima	16.8
60368	7	Sololá	710	Panajachel	8	Panajachel	9	Septiembre	2023-09-14T00:00:00	2024-11-08T03:00:00	5	Humedad	95
60369	7	Sololá	710	Panajachel	8	Panajachel	9	Septiembre	2023-09-14T00:00:00	2024-11-08T03:00:00	6	Velocidad del viento	0
60370	7	Sololá	710	Panajachel	8	Panajachel	9	Septiembre	2023-09-14T00:00:00	2024-11-08T03:00:00	7	Dirección del viento	0
60371	7	Sololá	710	Panajachel	8	Panajachel	9	Septiembre	2023-09-14T00:00:00	2024-11-08T03:00:00	1	Precipitación	0
60372	7	Sololá	710	Panajachel	8	Panajachel	9	Septiembre	2023-09-14T00:00:00	2024-11-08T03:00:00	8	Radiación solar	0
60373	7	Sololá	710	Panajachel	8	Panajachel	9	Septiembre	2023-09-14T00:00:00	2024-11-08T04:00:00	2	Temperatura media	16.3
60374	7	Sololá	710	Panajachel	8	Panajachel	9	Septiembre	2023-09-14T00:00:00	2024-11-08T04:00:00	4	Temperatura máxima	16.8
60375	7	Sololá	710	Panajachel	8	Panajachel	9	Septiembre	2023-09-14T00:00:00	2024-11-08T04:00:00	3	Temperatura mínima	16.3
60376	7	Sololá	710	Panajachel	8	Panajachel	9	Septiembre	2023-09-14T00:00:00	2024-11-08T04:00:00	5	Humedad	95
60377	7	Sololá	710	Panajachel	8	Panajachel	9	Septiembre	2023-09-14T00:00:00	2024-11-08T04:00:00	6	Velocidad del viento	1.6
60378	7	Sololá	710	Panajachel	8	Panajachel	9	Septiembre	2023-09-14T00:00:00	2024-11-08T04:00:00	7	Dirección del viento	1.61
60379	7	Sololá	710	Panajachel	8	Panajachel	9	Septiembre	2023-09-14T00:00:00	2024-11-08T04:00:00	1	Precipitación	0
60380	7	Sololá	710	Panajachel	8	Panajachel	9	Septiembre	2023-09-14T00:00:00	2024-11-08T04:00:00	8	Radiación solar	0
60381	7	Sololá	710	Panajachel	8	Panajachel	9	Septiembre	2023-09-14T00:00:00	2024-11-08T05:00:00	2	Temperatura media	16.3
60382	7	Sololá	710	Panajachel	8	Panajachel	9	Septiembre	2023-09-14T00:00:00	2024-11-08T05:00:00	4	Temperatura máxima	16.3
60383	7	Sololá	710	Panajachel	8	Panajachel	9	Septiembre	2023-09-14T00:00:00	2024-11-08T05:00:00	3	Temperatura mínima	16.1
60384	7	Sololá	710	Panajachel	8	Panajachel	9	Septiembre	2023-09-14T00:00:00	2024-11-08T05:00:00	5	Humedad	95
60385	7	Sololá	710	Panajachel	8	Panajachel	9	Septiembre	2023-09-14T00:00:00	2024-11-08T05:00:00	6	Velocidad del viento	0
60386	7	Sololá	710	Panajachel	8	Panajachel	9	Septiembre	2023-09-14T00:00:00	2024-11-08T05:00:00	7	Dirección del viento	0
60387	7	Sololá	710	Panajachel	8	Panajachel	9	Septiembre	2023-09-14T00:00:00	2024-11-08T05:00:00	1	Precipitación	0
60388	7	Sololá	710	Panajachel	8	Panajachel	9	Septiembre	2023-09-14T00:00:00	2024-11-08T05:00:00	8	Radiación solar	0
60389	7	Sololá	710	Panajachel	8	Panajachel	9	Septiembre	2023-09-14T00:00:00	2024-11-08T06:00:00	2	Temperatura media	16.4
60390	7	Sololá	710	Panajachel	8	Panajachel	9	Septiembre	2023-09-14T00:00:00	2024-11-08T06:00:00	4	Temperatura máxima	16.6
60391	7	Sololá	710	Panajachel	8	Panajachel	9	Septiembre	2023-09-14T00:00:00	2024-11-08T06:00:00	3	Temperatura mínima	16.2
60392	7	Sololá	710	Panajachel	8	Panajachel	9	Septiembre	2023-09-14T00:00:00	2024-11-08T06:00:00	5	Humedad	95
60393	7	Sololá	710	Panajachel	8	Panajachel	9	Septiembre	2023-09-14T00:00:00	2024-11-08T06:00:00	6	Velocidad del viento	0
60394	7	Sololá	710	Panajachel	8	Panajachel	9	Septiembre	2023-09-14T00:00:00	2024-11-08T06:00:00	7	Dirección del viento	0
60395	7	Sololá	710	Panajachel	8	Panajachel	9	Septiembre	2023-09-14T00:00:00	2024-11-08T06:00:00	1	Precipitación	0
60396	7	Sololá	710	Panajachel	8	Panajachel	9	Septiembre	2023-09-14T00:00:00	2024-11-08T06:00:00	8	Radiación solar	0
60397	7	Sololá	710	Panajachel	8	Panajachel	9	Septiembre	2023-09-14T00:00:00	2024-11-08T07:00:00	2	Temperatura media	17.3
60398	7	Sololá	710	Panajachel	8	Panajachel	9	Septiembre	2023-09-14T00:00:00	2024-11-08T07:00:00	4	Temperatura máxima	17.3
60399	7	Sololá	710	Panajachel	8	Panajachel	9	Septiembre	2023-09-14T00:00:00	2024-11-08T07:00:00	3	Temperatura mínima	16.3
60400	7	Sololá	710	Panajachel	8	Panajachel	9	Septiembre	2023-09-14T00:00:00	2024-11-08T07:00:00	5	Humedad	92
60401	7	Sololá	710	Panajachel	8	Panajachel	9	Septiembre	2023-09-14T00:00:00	2024-11-08T07:00:00	6	Velocidad del viento	3.2
60402	7	Sololá	710	Panajachel	8	Panajachel	9	Septiembre	2023-09-14T00:00:00	2024-11-08T07:00:00	7	Dirección del viento	3.22
60403	7	Sololá	710	Panajachel	8	Panajachel	9	Septiembre	2023-09-14T00:00:00	2024-11-08T07:00:00	1	Precipitación	0
60404	7	Sololá	710	Panajachel	8	Panajachel	9	Septiembre	2023-09-14T00:00:00	2024-11-08T07:00:00	8	Radiación solar	43
60405	7	Sololá	710	Panajachel	8	Panajachel	9	Septiembre	2023-09-14T00:00:00	2024-11-08T08:00:00	2	Temperatura media	18.8
60406	7	Sololá	710	Panajachel	8	Panajachel	9	Septiembre	2023-09-14T00:00:00	2024-11-08T08:00:00	4	Temperatura máxima	18.8
60407	7	Sololá	710	Panajachel	8	Panajachel	9	Septiembre	2023-09-14T00:00:00	2024-11-08T08:00:00	3	Temperatura mínima	17.3
60408	7	Sololá	710	Panajachel	8	Panajachel	9	Septiembre	2023-09-14T00:00:00	2024-11-08T08:00:00	5	Humedad	90
60409	7	Sololá	710	Panajachel	8	Panajachel	9	Septiembre	2023-09-14T00:00:00	2024-11-08T08:00:00	6	Velocidad del viento	0
60410	7	Sololá	710	Panajachel	8	Panajachel	9	Septiembre	2023-09-14T00:00:00	2024-11-08T08:00:00	7	Dirección del viento	0
60411	7	Sololá	710	Panajachel	8	Panajachel	9	Septiembre	2023-09-14T00:00:00	2024-11-08T08:00:00	1	Precipitación	0
60412	7	Sololá	710	Panajachel	8	Panajachel	9	Septiembre	2023-09-14T00:00:00	2024-11-08T08:00:00	8	Radiación solar	103
60413	7	Sololá	710	Panajachel	8	Panajachel	9	Septiembre	2023-09-14T00:00:00	2024-11-08T09:00:00	2	Temperatura media	21.8
60414	7	Sololá	710	Panajachel	8	Panajachel	9	Septiembre	2023-09-14T00:00:00	2024-11-08T09:00:00	4	Temperatura máxima	21.8
60415	7	Sololá	710	Panajachel	8	Panajachel	9	Septiembre	2023-09-14T00:00:00	2024-11-08T09:00:00	3	Temperatura mínima	18.8
60416	7	Sololá	710	Panajachel	8	Panajachel	9	Septiembre	2023-09-14T00:00:00	2024-11-08T09:00:00	5	Humedad	83
60417	7	Sololá	710	Panajachel	8	Panajachel	9	Septiembre	2023-09-14T00:00:00	2024-11-08T09:00:00	6	Velocidad del viento	0
60418	7	Sololá	710	Panajachel	8	Panajachel	9	Septiembre	2023-09-14T00:00:00	2024-11-08T09:00:00	7	Dirección del viento	0
60419	7	Sololá	710	Panajachel	8	Panajachel	9	Septiembre	2023-09-14T00:00:00	2024-11-08T09:00:00	1	Precipitación	0
60420	7	Sololá	710	Panajachel	8	Panajachel	9	Septiembre	2023-09-14T00:00:00	2024-11-08T09:00:00	8	Radiación solar	314
60421	7	Sololá	710	Panajachel	8	Panajachel	9	Septiembre	2023-09-14T00:00:00	2024-11-08T10:00:00	2	Temperatura media	22.6
60422	7	Sololá	710	Panajachel	8	Panajachel	9	Septiembre	2023-09-14T00:00:00	2024-11-08T10:00:00	4	Temperatura máxima	22.6
60423	7	Sololá	710	Panajachel	8	Panajachel	9	Septiembre	2023-09-14T00:00:00	2024-11-08T10:00:00	3	Temperatura mínima	21.9
60424	7	Sololá	710	Panajachel	8	Panajachel	9	Septiembre	2023-09-14T00:00:00	2024-11-08T10:00:00	5	Humedad	80
60425	7	Sololá	710	Panajachel	8	Panajachel	9	Septiembre	2023-09-14T00:00:00	2024-11-08T10:00:00	6	Velocidad del viento	1.6
60426	7	Sololá	710	Panajachel	8	Panajachel	9	Septiembre	2023-09-14T00:00:00	2024-11-08T10:00:00	7	Dirección del viento	1.61
60427	7	Sololá	710	Panajachel	8	Panajachel	9	Septiembre	2023-09-14T00:00:00	2024-11-08T10:00:00	1	Precipitación	0.2
60428	7	Sololá	710	Panajachel	8	Panajachel	9	Septiembre	2023-09-14T00:00:00	2024-11-08T10:00:00	8	Radiación solar	720
60429	7	Sololá	710	Panajachel	8	Panajachel	9	Septiembre	2023-09-14T00:00:00	2024-11-08T11:00:00	2	Temperatura media	23.1
60430	7	Sololá	710	Panajachel	8	Panajachel	9	Septiembre	2023-09-14T00:00:00	2024-11-08T11:00:00	4	Temperatura máxima	23.1
60431	7	Sololá	710	Panajachel	8	Panajachel	9	Septiembre	2023-09-14T00:00:00	2024-11-08T11:00:00	3	Temperatura mínima	21.8
60432	7	Sololá	710	Panajachel	8	Panajachel	9	Septiembre	2023-09-14T00:00:00	2024-11-08T11:00:00	5	Humedad	78
60433	7	Sololá	710	Panajachel	8	Panajachel	9	Septiembre	2023-09-14T00:00:00	2024-11-08T11:00:00	6	Velocidad del viento	4.8
60434	7	Sololá	710	Panajachel	8	Panajachel	9	Septiembre	2023-09-14T00:00:00	2024-11-08T11:00:00	7	Dirección del viento	4.83
60435	7	Sololá	710	Panajachel	8	Panajachel	9	Septiembre	2023-09-14T00:00:00	2024-11-08T11:00:00	1	Precipitación	0
60436	7	Sololá	710	Panajachel	8	Panajachel	9	Septiembre	2023-09-14T00:00:00	2024-11-08T11:00:00	8	Radiación solar	875
60437	7	Sololá	710	Panajachel	8	Panajachel	9	Septiembre	2023-09-14T00:00:00	2024-11-08T12:00:00	2	Temperatura media	23.8
60438	7	Sololá	710	Panajachel	8	Panajachel	9	Septiembre	2023-09-14T00:00:00	2024-11-08T12:00:00	4	Temperatura máxima	23.8
60439	7	Sololá	710	Panajachel	8	Panajachel	9	Septiembre	2023-09-14T00:00:00	2024-11-08T12:00:00	3	Temperatura mínima	22.5
60440	7	Sololá	710	Panajachel	8	Panajachel	9	Septiembre	2023-09-14T00:00:00	2024-11-08T12:00:00	5	Humedad	69
60441	7	Sololá	710	Panajachel	8	Panajachel	9	Septiembre	2023-09-14T00:00:00	2024-11-08T12:00:00	6	Velocidad del viento	1.6
60442	7	Sololá	710	Panajachel	8	Panajachel	9	Septiembre	2023-09-14T00:00:00	2024-11-08T12:00:00	7	Dirección del viento	1.61
60443	7	Sololá	710	Panajachel	8	Panajachel	9	Septiembre	2023-09-14T00:00:00	2024-11-08T12:00:00	1	Precipitación	0
60444	7	Sololá	710	Panajachel	8	Panajachel	9	Septiembre	2023-09-14T00:00:00	2024-11-08T12:00:00	8	Radiación solar	458
60445	7	Sololá	710	Panajachel	8	Panajachel	9	Septiembre	2023-09-14T00:00:00	2024-11-08T13:00:00	2	Temperatura media	25.6
60446	7	Sololá	710	Panajachel	8	Panajachel	9	Septiembre	2023-09-14T00:00:00	2024-11-08T13:00:00	4	Temperatura máxima	25.6
60447	7	Sololá	710	Panajachel	8	Panajachel	9	Septiembre	2023-09-14T00:00:00	2024-11-08T13:00:00	3	Temperatura mínima	23.8
60448	7	Sololá	710	Panajachel	8	Panajachel	9	Septiembre	2023-09-14T00:00:00	2024-11-08T13:00:00	5	Humedad	67
60449	7	Sololá	710	Panajachel	8	Panajachel	9	Septiembre	2023-09-14T00:00:00	2024-11-08T13:00:00	6	Velocidad del viento	3.2
60450	7	Sololá	710	Panajachel	8	Panajachel	9	Septiembre	2023-09-14T00:00:00	2024-11-08T13:00:00	7	Dirección del viento	3.22
60451	7	Sololá	710	Panajachel	8	Panajachel	9	Septiembre	2023-09-14T00:00:00	2024-11-08T13:00:00	1	Precipitación	0
60452	7	Sololá	710	Panajachel	8	Panajachel	9	Septiembre	2023-09-14T00:00:00	2024-11-08T13:00:00	8	Radiación solar	802
60453	7	Sololá	710	Panajachel	8	Panajachel	9	Septiembre	2023-09-14T00:00:00	2024-11-08T14:00:00	2	Temperatura media	24.2
60454	7	Sololá	710	Panajachel	8	Panajachel	9	Septiembre	2023-09-14T00:00:00	2024-11-08T14:00:00	4	Temperatura máxima	25.9
60455	7	Sololá	710	Panajachel	8	Panajachel	9	Septiembre	2023-09-14T00:00:00	2024-11-08T14:00:00	3	Temperatura mínima	24.2
60456	7	Sololá	710	Panajachel	8	Panajachel	9	Septiembre	2023-09-14T00:00:00	2024-11-08T14:00:00	5	Humedad	82
60457	7	Sololá	710	Panajachel	8	Panajachel	9	Septiembre	2023-09-14T00:00:00	2024-11-08T14:00:00	6	Velocidad del viento	4.8
60458	7	Sololá	710	Panajachel	8	Panajachel	9	Septiembre	2023-09-14T00:00:00	2024-11-08T14:00:00	7	Dirección del viento	4.83
60459	7	Sololá	710	Panajachel	8	Panajachel	9	Septiembre	2023-09-14T00:00:00	2024-11-08T14:00:00	1	Precipitación	0
60460	7	Sololá	710	Panajachel	8	Panajachel	9	Septiembre	2023-09-14T00:00:00	2024-11-08T14:00:00	8	Radiación solar	569
60461	7	Sololá	710	Panajachel	8	Panajachel	9	Septiembre	2023-09-14T00:00:00	2024-11-08T15:00:00	2	Temperatura media	22.7
60462	7	Sololá	710	Panajachel	8	Panajachel	9	Septiembre	2023-09-14T00:00:00	2024-11-08T15:00:00	4	Temperatura máxima	24.2
60463	7	Sololá	710	Panajachel	8	Panajachel	9	Septiembre	2023-09-14T00:00:00	2024-11-08T15:00:00	3	Temperatura mínima	22.7
60464	7	Sololá	710	Panajachel	8	Panajachel	9	Septiembre	2023-09-14T00:00:00	2024-11-08T15:00:00	5	Humedad	87
60465	7	Sololá	710	Panajachel	8	Panajachel	9	Septiembre	2023-09-14T00:00:00	2024-11-08T15:00:00	6	Velocidad del viento	6.4
60466	7	Sololá	710	Panajachel	8	Panajachel	9	Septiembre	2023-09-14T00:00:00	2024-11-08T15:00:00	7	Dirección del viento	6.44
60467	7	Sololá	710	Panajachel	8	Panajachel	9	Septiembre	2023-09-14T00:00:00	2024-11-08T15:00:00	1	Precipitación	0
60468	7	Sololá	710	Panajachel	8	Panajachel	9	Septiembre	2023-09-14T00:00:00	2024-11-08T15:00:00	8	Radiación solar	376
60469	7	Sololá	710	Panajachel	8	Panajachel	9	Septiembre	2023-09-14T00:00:00	2024-11-08T16:00:00	2	Temperatura media	22.1
60470	7	Sololá	710	Panajachel	8	Panajachel	9	Septiembre	2023-09-14T00:00:00	2024-11-08T16:00:00	4	Temperatura máxima	22.7
60471	7	Sololá	710	Panajachel	8	Panajachel	9	Septiembre	2023-09-14T00:00:00	2024-11-08T16:00:00	3	Temperatura mínima	21.7
60472	7	Sololá	710	Panajachel	8	Panajachel	9	Septiembre	2023-09-14T00:00:00	2024-11-08T16:00:00	5	Humedad	87
60473	7	Sololá	710	Panajachel	8	Panajachel	9	Septiembre	2023-09-14T00:00:00	2024-11-08T16:00:00	6	Velocidad del viento	4.8
60474	7	Sololá	710	Panajachel	8	Panajachel	9	Septiembre	2023-09-14T00:00:00	2024-11-08T16:00:00	7	Dirección del viento	4.83
60475	7	Sololá	710	Panajachel	8	Panajachel	9	Septiembre	2023-09-14T00:00:00	2024-11-08T16:00:00	1	Precipitación	0
60476	7	Sololá	710	Panajachel	8	Panajachel	9	Septiembre	2023-09-14T00:00:00	2024-11-08T16:00:00	8	Radiación solar	234
60477	7	Sololá	710	Panajachel	8	Panajachel	9	Septiembre	2023-09-14T00:00:00	2024-11-08T17:00:00	2	Temperatura media	21.9
60478	7	Sololá	710	Panajachel	8	Panajachel	9	Septiembre	2023-09-14T00:00:00	2024-11-08T17:00:00	4	Temperatura máxima	22.3
60479	7	Sololá	710	Panajachel	8	Panajachel	9	Septiembre	2023-09-14T00:00:00	2024-11-08T17:00:00	3	Temperatura mínima	21.9
60480	7	Sololá	710	Panajachel	8	Panajachel	9	Septiembre	2023-09-14T00:00:00	2024-11-08T17:00:00	5	Humedad	87
60481	7	Sololá	710	Panajachel	8	Panajachel	9	Septiembre	2023-09-14T00:00:00	2024-11-08T17:00:00	6	Velocidad del viento	3.2
60482	7	Sololá	710	Panajachel	8	Panajachel	9	Septiembre	2023-09-14T00:00:00	2024-11-08T17:00:00	7	Dirección del viento	3.22
60483	7	Sololá	710	Panajachel	8	Panajachel	9	Septiembre	2023-09-14T00:00:00	2024-11-08T17:00:00	1	Precipitación	0
60484	7	Sololá	710	Panajachel	8	Panajachel	9	Septiembre	2023-09-14T00:00:00	2024-11-08T17:00:00	8	Radiación solar	153
60485	7	Sololá	710	Panajachel	8	Panajachel	9	Septiembre	2023-09-14T00:00:00	2024-11-08T18:00:00	2	Temperatura media	21.1
60486	7	Sololá	710	Panajachel	8	Panajachel	9	Septiembre	2023-09-14T00:00:00	2024-11-08T18:00:00	4	Temperatura máxima	21.9
60487	7	Sololá	710	Panajachel	8	Panajachel	9	Septiembre	2023-09-14T00:00:00	2024-11-08T18:00:00	3	Temperatura mínima	21.1
60488	7	Sololá	710	Panajachel	8	Panajachel	9	Septiembre	2023-09-14T00:00:00	2024-11-08T18:00:00	5	Humedad	90
60489	7	Sololá	710	Panajachel	8	Panajachel	9	Septiembre	2023-09-14T00:00:00	2024-11-08T18:00:00	6	Velocidad del viento	1.6
60490	7	Sololá	710	Panajachel	8	Panajachel	9	Septiembre	2023-09-14T00:00:00	2024-11-08T18:00:00	7	Dirección del viento	1.61
60491	7	Sololá	710	Panajachel	8	Panajachel	9	Septiembre	2023-09-14T00:00:00	2024-11-08T18:00:00	1	Precipitación	0
60492	7	Sololá	710	Panajachel	8	Panajachel	9	Septiembre	2023-09-14T00:00:00	2024-11-08T18:00:00	8	Radiación solar	34
60493	7	Sololá	710	Panajachel	8	Panajachel	9	Septiembre	2023-09-14T00:00:00	2024-11-08T19:00:00	2	Temperatura media	20.7
60494	7	Sololá	710	Panajachel	8	Panajachel	9	Septiembre	2023-09-14T00:00:00	2024-11-08T19:00:00	4	Temperatura máxima	21.1
60495	7	Sololá	710	Panajachel	8	Panajachel	9	Septiembre	2023-09-14T00:00:00	2024-11-08T19:00:00	3	Temperatura mínima	20.7
60496	7	Sololá	710	Panajachel	8	Panajachel	9	Septiembre	2023-09-14T00:00:00	2024-11-08T19:00:00	5	Humedad	91
60497	7	Sololá	710	Panajachel	8	Panajachel	9	Septiembre	2023-09-14T00:00:00	2024-11-08T19:00:00	6	Velocidad del viento	0
60498	7	Sololá	710	Panajachel	8	Panajachel	9	Septiembre	2023-09-14T00:00:00	2024-11-08T19:00:00	7	Dirección del viento	0
60499	7	Sololá	710	Panajachel	8	Panajachel	9	Septiembre	2023-09-14T00:00:00	2024-11-08T19:00:00	1	Precipitación	0
60500	7	Sololá	710	Panajachel	8	Panajachel	9	Septiembre	2023-09-14T00:00:00	2024-11-08T19:00:00	8	Radiación solar	0
60501	7	Sololá	710	Panajachel	8	Panajachel	9	Septiembre	2023-09-14T00:00:00	2024-11-08T20:00:00	2	Temperatura media	19.9
60502	7	Sololá	710	Panajachel	8	Panajachel	9	Septiembre	2023-09-14T00:00:00	2024-11-08T20:00:00	4	Temperatura máxima	20.7
60503	7	Sololá	710	Panajachel	8	Panajachel	9	Septiembre	2023-09-14T00:00:00	2024-11-08T20:00:00	3	Temperatura mínima	19.9
60504	7	Sololá	710	Panajachel	8	Panajachel	9	Septiembre	2023-09-14T00:00:00	2024-11-08T20:00:00	5	Humedad	92
60505	7	Sololá	710	Panajachel	8	Panajachel	9	Septiembre	2023-09-14T00:00:00	2024-11-08T20:00:00	6	Velocidad del viento	1.6
60506	7	Sololá	710	Panajachel	8	Panajachel	9	Septiembre	2023-09-14T00:00:00	2024-11-08T20:00:00	7	Dirección del viento	1.61
60507	7	Sololá	710	Panajachel	8	Panajachel	9	Septiembre	2023-09-14T00:00:00	2024-11-08T20:00:00	1	Precipitación	0
60508	7	Sololá	710	Panajachel	8	Panajachel	9	Septiembre	2023-09-14T00:00:00	2024-11-08T20:00:00	8	Radiación solar	0
60509	7	Sololá	710	Panajachel	8	Panajachel	9	Septiembre	2023-09-14T00:00:00	2024-11-08T21:00:00	2	Temperatura media	19.3
60510	7	Sololá	710	Panajachel	8	Panajachel	9	Septiembre	2023-09-14T00:00:00	2024-11-08T21:00:00	4	Temperatura máxima	20
60511	7	Sololá	710	Panajachel	8	Panajachel	9	Septiembre	2023-09-14T00:00:00	2024-11-08T21:00:00	3	Temperatura mínima	19.3
60512	7	Sololá	710	Panajachel	8	Panajachel	9	Septiembre	2023-09-14T00:00:00	2024-11-08T21:00:00	5	Humedad	91
60513	7	Sololá	710	Panajachel	8	Panajachel	9	Septiembre	2023-09-14T00:00:00	2024-11-08T21:00:00	6	Velocidad del viento	1.6
60514	7	Sololá	710	Panajachel	8	Panajachel	9	Septiembre	2023-09-14T00:00:00	2024-11-08T21:00:00	7	Dirección del viento	1.61
60515	7	Sololá	710	Panajachel	8	Panajachel	9	Septiembre	2023-09-14T00:00:00	2024-11-08T21:00:00	1	Precipitación	0
60516	7	Sololá	710	Panajachel	8	Panajachel	9	Septiembre	2023-09-14T00:00:00	2024-11-08T21:00:00	8	Radiación solar	0
60517	7	Sololá	710	Panajachel	8	Panajachel	9	Septiembre	2023-09-14T00:00:00	2024-11-08T22:00:00	2	Temperatura media	19.5
60518	7	Sololá	710	Panajachel	8	Panajachel	9	Septiembre	2023-09-14T00:00:00	2024-11-08T22:00:00	4	Temperatura máxima	19.5
60519	7	Sololá	710	Panajachel	8	Panajachel	9	Septiembre	2023-09-14T00:00:00	2024-11-08T22:00:00	3	Temperatura mínima	19.2
60520	7	Sololá	710	Panajachel	8	Panajachel	9	Septiembre	2023-09-14T00:00:00	2024-11-08T22:00:00	5	Humedad	89
60521	7	Sololá	710	Panajachel	8	Panajachel	9	Septiembre	2023-09-14T00:00:00	2024-11-08T22:00:00	6	Velocidad del viento	1.6
60522	7	Sololá	710	Panajachel	8	Panajachel	9	Septiembre	2023-09-14T00:00:00	2024-11-08T22:00:00	7	Dirección del viento	1.61
60523	7	Sololá	710	Panajachel	8	Panajachel	9	Septiembre	2023-09-14T00:00:00	2024-11-08T22:00:00	1	Precipitación	0
60524	7	Sololá	710	Panajachel	8	Panajachel	9	Septiembre	2023-09-14T00:00:00	2024-11-08T22:00:00	8	Radiación solar	0
60525	7	Sololá	710	Panajachel	8	Panajachel	9	Septiembre	2023-09-14T00:00:00	2024-11-08T23:00:00	2	Temperatura media	18.9
60526	7	Sololá	710	Panajachel	8	Panajachel	9	Septiembre	2023-09-14T00:00:00	2024-11-08T23:00:00	4	Temperatura máxima	19.7
60527	7	Sololá	710	Panajachel	8	Panajachel	9	Septiembre	2023-09-14T00:00:00	2024-11-08T23:00:00	3	Temperatura mínima	18.9
60528	7	Sololá	710	Panajachel	8	Panajachel	9	Septiembre	2023-09-14T00:00:00	2024-11-08T23:00:00	5	Humedad	92
60529	7	Sololá	710	Panajachel	8	Panajachel	9	Septiembre	2023-09-14T00:00:00	2024-11-08T23:00:00	6	Velocidad del viento	3.2
60530	7	Sololá	710	Panajachel	8	Panajachel	9	Septiembre	2023-09-14T00:00:00	2024-11-08T23:00:00	7	Dirección del viento	3.22
60531	7	Sololá	710	Panajachel	8	Panajachel	9	Septiembre	2023-09-14T00:00:00	2024-11-08T23:00:00	1	Precipitación	0
60532	7	Sololá	710	Panajachel	8	Panajachel	9	Septiembre	2023-09-14T00:00:00	2024-11-08T23:00:00	8	Radiación solar	0
60533	7	Sololá	710	Panajachel	8	Panajachel	9	Septiembre	2023-09-15T00:00:00	2024-11-08T00:00:00	2	Temperatura media	18.3
60534	7	Sololá	710	Panajachel	8	Panajachel	9	Septiembre	2023-09-15T00:00:00	2024-11-08T00:00:00	4	Temperatura máxima	18.9
60535	7	Sololá	710	Panajachel	8	Panajachel	9	Septiembre	2023-09-15T00:00:00	2024-11-08T00:00:00	3	Temperatura mínima	18.3
60536	7	Sololá	710	Panajachel	8	Panajachel	9	Septiembre	2023-09-15T00:00:00	2024-11-08T00:00:00	5	Humedad	92
60537	7	Sololá	710	Panajachel	8	Panajachel	9	Septiembre	2023-09-15T00:00:00	2024-11-08T00:00:00	6	Velocidad del viento	3.2
60538	7	Sololá	710	Panajachel	8	Panajachel	9	Septiembre	2023-09-15T00:00:00	2024-11-08T00:00:00	7	Dirección del viento	3.22
60539	7	Sololá	710	Panajachel	8	Panajachel	9	Septiembre	2023-09-15T00:00:00	2024-11-08T00:00:00	1	Precipitación	0
60540	7	Sololá	710	Panajachel	8	Panajachel	9	Septiembre	2023-09-15T00:00:00	2024-11-08T00:00:00	8	Radiación solar	0
60541	7	Sololá	710	Panajachel	8	Panajachel	9	Septiembre	2023-09-15T00:00:00	2024-11-08T01:00:00	2	Temperatura media	18.4
60542	7	Sololá	710	Panajachel	8	Panajachel	9	Septiembre	2023-09-15T00:00:00	2024-11-08T01:00:00	4	Temperatura máxima	18.5
60543	7	Sololá	710	Panajachel	8	Panajachel	9	Septiembre	2023-09-15T00:00:00	2024-11-08T01:00:00	3	Temperatura mínima	18.2
60544	7	Sololá	710	Panajachel	8	Panajachel	9	Septiembre	2023-09-15T00:00:00	2024-11-08T01:00:00	5	Humedad	89
60545	7	Sololá	710	Panajachel	8	Panajachel	9	Septiembre	2023-09-15T00:00:00	2024-11-08T01:00:00	6	Velocidad del viento	3.2
60546	7	Sololá	710	Panajachel	8	Panajachel	9	Septiembre	2023-09-15T00:00:00	2024-11-08T01:00:00	7	Dirección del viento	3.22
60547	7	Sololá	710	Panajachel	8	Panajachel	9	Septiembre	2023-09-15T00:00:00	2024-11-08T01:00:00	1	Precipitación	0
60548	7	Sololá	710	Panajachel	8	Panajachel	9	Septiembre	2023-09-15T00:00:00	2024-11-08T01:00:00	8	Radiación solar	0
60549	7	Sololá	710	Panajachel	8	Panajachel	9	Septiembre	2023-09-15T00:00:00	2024-11-08T02:00:00	2	Temperatura media	18.1
60550	7	Sololá	710	Panajachel	8	Panajachel	9	Septiembre	2023-09-15T00:00:00	2024-11-08T02:00:00	4	Temperatura máxima	18.7
60551	7	Sololá	710	Panajachel	8	Panajachel	9	Septiembre	2023-09-15T00:00:00	2024-11-08T02:00:00	3	Temperatura mínima	18.1
60552	7	Sololá	710	Panajachel	8	Panajachel	9	Septiembre	2023-09-15T00:00:00	2024-11-08T02:00:00	5	Humedad	90
60553	7	Sololá	710	Panajachel	8	Panajachel	9	Septiembre	2023-09-15T00:00:00	2024-11-08T02:00:00	6	Velocidad del viento	3.2
60554	7	Sololá	710	Panajachel	8	Panajachel	9	Septiembre	2023-09-15T00:00:00	2024-11-08T02:00:00	7	Dirección del viento	3.22
60555	7	Sololá	710	Panajachel	8	Panajachel	9	Septiembre	2023-09-15T00:00:00	2024-11-08T02:00:00	1	Precipitación	0
60556	7	Sololá	710	Panajachel	8	Panajachel	9	Septiembre	2023-09-15T00:00:00	2024-11-08T02:00:00	8	Radiación solar	0
60557	7	Sololá	710	Panajachel	8	Panajachel	9	Septiembre	2023-09-15T00:00:00	2024-11-08T03:00:00	2	Temperatura media	17.7
60558	7	Sololá	710	Panajachel	8	Panajachel	9	Septiembre	2023-09-15T00:00:00	2024-11-08T03:00:00	4	Temperatura máxima	18.1
60559	7	Sololá	710	Panajachel	8	Panajachel	9	Septiembre	2023-09-15T00:00:00	2024-11-08T03:00:00	3	Temperatura mínima	17.7
60560	7	Sololá	710	Panajachel	8	Panajachel	9	Septiembre	2023-09-15T00:00:00	2024-11-08T03:00:00	5	Humedad	90
60561	7	Sololá	710	Panajachel	8	Panajachel	9	Septiembre	2023-09-15T00:00:00	2024-11-08T03:00:00	6	Velocidad del viento	3.2
60562	7	Sololá	710	Panajachel	8	Panajachel	9	Septiembre	2023-09-15T00:00:00	2024-11-08T03:00:00	7	Dirección del viento	3.22
60563	7	Sololá	710	Panajachel	8	Panajachel	9	Septiembre	2023-09-15T00:00:00	2024-11-08T03:00:00	1	Precipitación	0
60564	7	Sololá	710	Panajachel	8	Panajachel	9	Septiembre	2023-09-15T00:00:00	2024-11-08T03:00:00	8	Radiación solar	0
60565	7	Sololá	710	Panajachel	8	Panajachel	9	Septiembre	2023-09-15T00:00:00	2024-11-08T04:00:00	2	Temperatura media	17.9
60566	7	Sololá	710	Panajachel	8	Panajachel	9	Septiembre	2023-09-15T00:00:00	2024-11-08T04:00:00	4	Temperatura máxima	18.3
60567	7	Sololá	710	Panajachel	8	Panajachel	9	Septiembre	2023-09-15T00:00:00	2024-11-08T04:00:00	3	Temperatura mínima	17.7
60568	7	Sololá	710	Panajachel	8	Panajachel	9	Septiembre	2023-09-15T00:00:00	2024-11-08T04:00:00	5	Humedad	86
60569	7	Sololá	710	Panajachel	8	Panajachel	9	Septiembre	2023-09-15T00:00:00	2024-11-08T04:00:00	6	Velocidad del viento	3.2
60570	7	Sololá	710	Panajachel	8	Panajachel	9	Septiembre	2023-09-15T00:00:00	2024-11-08T04:00:00	7	Dirección del viento	3.22
60571	7	Sololá	710	Panajachel	8	Panajachel	9	Septiembre	2023-09-15T00:00:00	2024-11-08T04:00:00	1	Precipitación	0
60572	7	Sololá	710	Panajachel	8	Panajachel	9	Septiembre	2023-09-15T00:00:00	2024-11-08T04:00:00	8	Radiación solar	0
60573	7	Sololá	710	Panajachel	8	Panajachel	9	Septiembre	2023-09-15T00:00:00	2024-11-08T05:00:00	2	Temperatura media	17.3
60574	7	Sololá	710	Panajachel	8	Panajachel	9	Septiembre	2023-09-15T00:00:00	2024-11-08T05:00:00	4	Temperatura máxima	18.2
60575	7	Sololá	710	Panajachel	8	Panajachel	9	Septiembre	2023-09-15T00:00:00	2024-11-08T05:00:00	3	Temperatura mínima	17.2
60576	7	Sololá	710	Panajachel	8	Panajachel	9	Septiembre	2023-09-15T00:00:00	2024-11-08T05:00:00	5	Humedad	88
60577	7	Sololá	710	Panajachel	8	Panajachel	9	Septiembre	2023-09-15T00:00:00	2024-11-08T05:00:00	6	Velocidad del viento	1.6
60578	7	Sololá	710	Panajachel	8	Panajachel	9	Septiembre	2023-09-15T00:00:00	2024-11-08T05:00:00	7	Dirección del viento	1.61
60579	7	Sololá	710	Panajachel	8	Panajachel	9	Septiembre	2023-09-15T00:00:00	2024-11-08T05:00:00	1	Precipitación	0
60580	7	Sololá	710	Panajachel	8	Panajachel	9	Septiembre	2023-09-15T00:00:00	2024-11-08T05:00:00	8	Radiación solar	0
60581	7	Sololá	710	Panajachel	8	Panajachel	9	Septiembre	2023-09-15T00:00:00	2024-11-08T06:00:00	2	Temperatura media	18.2
60582	7	Sololá	710	Panajachel	8	Panajachel	9	Septiembre	2023-09-15T00:00:00	2024-11-08T06:00:00	4	Temperatura máxima	18.2
60583	7	Sololá	710	Panajachel	8	Panajachel	9	Septiembre	2023-09-15T00:00:00	2024-11-08T06:00:00	3	Temperatura mínima	17.3
60584	7	Sololá	710	Panajachel	8	Panajachel	9	Septiembre	2023-09-15T00:00:00	2024-11-08T06:00:00	5	Humedad	83
60585	7	Sololá	710	Panajachel	8	Panajachel	9	Septiembre	2023-09-15T00:00:00	2024-11-08T06:00:00	6	Velocidad del viento	3.2
60586	7	Sololá	710	Panajachel	8	Panajachel	9	Septiembre	2023-09-15T00:00:00	2024-11-08T06:00:00	7	Dirección del viento	3.22
60587	7	Sololá	710	Panajachel	8	Panajachel	9	Septiembre	2023-09-15T00:00:00	2024-11-08T06:00:00	1	Precipitación	0
60588	7	Sololá	710	Panajachel	8	Panajachel	9	Septiembre	2023-09-15T00:00:00	2024-11-08T06:00:00	8	Radiación solar	0
60589	7	Sololá	710	Panajachel	8	Panajachel	9	Septiembre	2023-09-15T00:00:00	2024-11-08T07:00:00	2	Temperatura media	18.4
60590	7	Sololá	710	Panajachel	8	Panajachel	9	Septiembre	2023-09-15T00:00:00	2024-11-08T07:00:00	4	Temperatura máxima	18.6
60591	7	Sololá	710	Panajachel	8	Panajachel	9	Septiembre	2023-09-15T00:00:00	2024-11-08T07:00:00	3	Temperatura mínima	18.2
60592	7	Sololá	710	Panajachel	8	Panajachel	9	Septiembre	2023-09-15T00:00:00	2024-11-08T07:00:00	5	Humedad	84
60593	7	Sololá	710	Panajachel	8	Panajachel	9	Septiembre	2023-09-15T00:00:00	2024-11-08T07:00:00	6	Velocidad del viento	1.6
60594	7	Sololá	710	Panajachel	8	Panajachel	9	Septiembre	2023-09-15T00:00:00	2024-11-08T07:00:00	7	Dirección del viento	1.61
60595	7	Sololá	710	Panajachel	8	Panajachel	9	Septiembre	2023-09-15T00:00:00	2024-11-08T07:00:00	1	Precipitación	0
60596	7	Sololá	710	Panajachel	8	Panajachel	9	Septiembre	2023-09-15T00:00:00	2024-11-08T07:00:00	8	Radiación solar	43
60597	7	Sololá	710	Panajachel	8	Panajachel	9	Septiembre	2023-09-15T00:00:00	2024-11-08T08:00:00	2	Temperatura media	20.4
60598	7	Sololá	710	Panajachel	8	Panajachel	9	Septiembre	2023-09-15T00:00:00	2024-11-08T08:00:00	4	Temperatura máxima	20.4
60599	7	Sololá	710	Panajachel	8	Panajachel	9	Septiembre	2023-09-15T00:00:00	2024-11-08T08:00:00	3	Temperatura mínima	18.4
60600	7	Sololá	710	Panajachel	8	Panajachel	9	Septiembre	2023-09-15T00:00:00	2024-11-08T08:00:00	5	Humedad	79
60601	7	Sololá	710	Panajachel	8	Panajachel	9	Septiembre	2023-09-15T00:00:00	2024-11-08T08:00:00	6	Velocidad del viento	3.2
60602	7	Sololá	710	Panajachel	8	Panajachel	9	Septiembre	2023-09-15T00:00:00	2024-11-08T08:00:00	7	Dirección del viento	3.22
60603	7	Sololá	710	Panajachel	8	Panajachel	9	Septiembre	2023-09-15T00:00:00	2024-11-08T08:00:00	1	Precipitación	0
60604	7	Sololá	710	Panajachel	8	Panajachel	9	Septiembre	2023-09-15T00:00:00	2024-11-08T08:00:00	8	Radiación solar	194
60605	7	Sololá	710	Panajachel	8	Panajachel	9	Septiembre	2023-09-15T00:00:00	2024-11-08T09:00:00	2	Temperatura media	22.6
60606	7	Sololá	710	Panajachel	8	Panajachel	9	Septiembre	2023-09-15T00:00:00	2024-11-08T09:00:00	4	Temperatura máxima	23.4
60607	7	Sololá	710	Panajachel	8	Panajachel	9	Septiembre	2023-09-15T00:00:00	2024-11-08T09:00:00	3	Temperatura mínima	20.4
60608	7	Sololá	710	Panajachel	8	Panajachel	9	Septiembre	2023-09-15T00:00:00	2024-11-08T09:00:00	5	Humedad	72
60609	7	Sololá	710	Panajachel	8	Panajachel	9	Septiembre	2023-09-15T00:00:00	2024-11-08T09:00:00	6	Velocidad del viento	1.6
60610	7	Sololá	710	Panajachel	8	Panajachel	9	Septiembre	2023-09-15T00:00:00	2024-11-08T09:00:00	7	Dirección del viento	1.61
60611	7	Sololá	710	Panajachel	8	Panajachel	9	Septiembre	2023-09-15T00:00:00	2024-11-08T09:00:00	1	Precipitación	0
60612	7	Sololá	710	Panajachel	8	Panajachel	9	Septiembre	2023-09-15T00:00:00	2024-11-08T09:00:00	8	Radiación solar	527
60613	7	Sololá	710	Panajachel	8	Panajachel	9	Septiembre	2023-09-15T00:00:00	2024-11-08T10:00:00	2	Temperatura media	22.8
60614	7	Sololá	710	Panajachel	8	Panajachel	9	Septiembre	2023-09-15T00:00:00	2024-11-08T10:00:00	4	Temperatura máxima	23.2
60615	7	Sololá	710	Panajachel	8	Panajachel	9	Septiembre	2023-09-15T00:00:00	2024-11-08T10:00:00	3	Temperatura mínima	22.3
60616	7	Sololá	710	Panajachel	8	Panajachel	9	Septiembre	2023-09-15T00:00:00	2024-11-08T10:00:00	5	Humedad	72
60617	7	Sololá	710	Panajachel	8	Panajachel	9	Septiembre	2023-09-15T00:00:00	2024-11-08T10:00:00	6	Velocidad del viento	3.2
60618	7	Sololá	710	Panajachel	8	Panajachel	9	Septiembre	2023-09-15T00:00:00	2024-11-08T10:00:00	7	Dirección del viento	3.22
60619	7	Sololá	710	Panajachel	8	Panajachel	9	Septiembre	2023-09-15T00:00:00	2024-11-08T10:00:00	1	Precipitación	0
60620	7	Sololá	710	Panajachel	8	Panajachel	9	Septiembre	2023-09-15T00:00:00	2024-11-08T10:00:00	8	Radiación solar	549
60621	7	Sololá	710	Panajachel	8	Panajachel	9	Septiembre	2023-09-15T00:00:00	2024-11-08T11:00:00	2	Temperatura media	24.3
60622	7	Sololá	710	Panajachel	8	Panajachel	9	Septiembre	2023-09-15T00:00:00	2024-11-08T11:00:00	4	Temperatura máxima	24.3
60623	7	Sololá	710	Panajachel	8	Panajachel	9	Septiembre	2023-09-15T00:00:00	2024-11-08T11:00:00	3	Temperatura mínima	22.8
60624	7	Sololá	710	Panajachel	8	Panajachel	9	Septiembre	2023-09-15T00:00:00	2024-11-08T11:00:00	5	Humedad	69
60625	7	Sololá	710	Panajachel	8	Panajachel	9	Septiembre	2023-09-15T00:00:00	2024-11-08T11:00:00	6	Velocidad del viento	1.6
60626	7	Sololá	710	Panajachel	8	Panajachel	9	Septiembre	2023-09-15T00:00:00	2024-11-08T11:00:00	7	Dirección del viento	1.61
60627	7	Sololá	710	Panajachel	8	Panajachel	9	Septiembre	2023-09-15T00:00:00	2024-11-08T11:00:00	1	Precipitación	0
60628	7	Sololá	710	Panajachel	8	Panajachel	9	Septiembre	2023-09-15T00:00:00	2024-11-08T11:00:00	8	Radiación solar	659
60629	7	Sololá	710	Panajachel	8	Panajachel	9	Septiembre	2023-09-15T00:00:00	2024-11-08T12:00:00	2	Temperatura media	24.8
60630	7	Sololá	710	Panajachel	8	Panajachel	9	Septiembre	2023-09-15T00:00:00	2024-11-08T12:00:00	4	Temperatura máxima	24.8
60631	7	Sololá	710	Panajachel	8	Panajachel	9	Septiembre	2023-09-15T00:00:00	2024-11-08T12:00:00	3	Temperatura mínima	23.6
60632	7	Sololá	710	Panajachel	8	Panajachel	9	Septiembre	2023-09-15T00:00:00	2024-11-08T12:00:00	5	Humedad	74
60633	7	Sololá	710	Panajachel	8	Panajachel	9	Septiembre	2023-09-15T00:00:00	2024-11-08T12:00:00	6	Velocidad del viento	4.8
60634	7	Sololá	710	Panajachel	8	Panajachel	9	Septiembre	2023-09-15T00:00:00	2024-11-08T12:00:00	7	Dirección del viento	4.83
60635	7	Sololá	710	Panajachel	8	Panajachel	9	Septiembre	2023-09-15T00:00:00	2024-11-08T12:00:00	1	Precipitación	0
60636	7	Sololá	710	Panajachel	8	Panajachel	9	Septiembre	2023-09-15T00:00:00	2024-11-08T12:00:00	8	Radiación solar	995
60637	7	Sololá	710	Panajachel	8	Panajachel	9	Septiembre	2023-09-15T00:00:00	2024-11-08T13:00:00	2	Temperatura media	24.6
60638	7	Sololá	710	Panajachel	8	Panajachel	9	Septiembre	2023-09-15T00:00:00	2024-11-08T13:00:00	4	Temperatura máxima	25.4
60639	7	Sololá	710	Panajachel	8	Panajachel	9	Septiembre	2023-09-15T00:00:00	2024-11-08T13:00:00	3	Temperatura mínima	24.2
60640	7	Sololá	710	Panajachel	8	Panajachel	9	Septiembre	2023-09-15T00:00:00	2024-11-08T13:00:00	5	Humedad	78
60641	7	Sololá	710	Panajachel	8	Panajachel	9	Septiembre	2023-09-15T00:00:00	2024-11-08T13:00:00	6	Velocidad del viento	4.8
60642	7	Sololá	710	Panajachel	8	Panajachel	9	Septiembre	2023-09-15T00:00:00	2024-11-08T13:00:00	7	Dirección del viento	4.83
60643	7	Sololá	710	Panajachel	8	Panajachel	9	Septiembre	2023-09-15T00:00:00	2024-11-08T13:00:00	1	Precipitación	0
60644	7	Sololá	710	Panajachel	8	Panajachel	9	Septiembre	2023-09-15T00:00:00	2024-11-08T13:00:00	8	Radiación solar	357
60645	7	Sololá	710	Panajachel	8	Panajachel	9	Septiembre	2023-09-15T00:00:00	2024-11-08T14:00:00	2	Temperatura media	23.1
60646	7	Sololá	710	Panajachel	8	Panajachel	9	Septiembre	2023-09-15T00:00:00	2024-11-08T14:00:00	4	Temperatura máxima	24.7
60647	7	Sololá	710	Panajachel	8	Panajachel	9	Septiembre	2023-09-15T00:00:00	2024-11-08T14:00:00	3	Temperatura mínima	23.1
60648	7	Sololá	710	Panajachel	8	Panajachel	9	Septiembre	2023-09-15T00:00:00	2024-11-08T14:00:00	5	Humedad	85
60649	7	Sololá	710	Panajachel	8	Panajachel	9	Septiembre	2023-09-15T00:00:00	2024-11-08T14:00:00	6	Velocidad del viento	4.8
60650	7	Sololá	710	Panajachel	8	Panajachel	9	Septiembre	2023-09-15T00:00:00	2024-11-08T14:00:00	7	Dirección del viento	4.83
60651	7	Sololá	710	Panajachel	8	Panajachel	9	Septiembre	2023-09-15T00:00:00	2024-11-08T14:00:00	1	Precipitación	0
60652	7	Sololá	710	Panajachel	8	Panajachel	9	Septiembre	2023-09-15T00:00:00	2024-11-08T14:00:00	8	Radiación solar	165
60653	7	Sololá	710	Panajachel	8	Panajachel	9	Septiembre	2023-09-15T00:00:00	2024-11-08T15:00:00	2	Temperatura media	21.8
60654	7	Sololá	710	Panajachel	8	Panajachel	9	Septiembre	2023-09-15T00:00:00	2024-11-08T15:00:00	4	Temperatura máxima	23.1
60655	7	Sololá	710	Panajachel	8	Panajachel	9	Septiembre	2023-09-15T00:00:00	2024-11-08T15:00:00	3	Temperatura mínima	21.7
60656	7	Sololá	710	Panajachel	8	Panajachel	9	Septiembre	2023-09-15T00:00:00	2024-11-08T15:00:00	5	Humedad	88
60657	7	Sololá	710	Panajachel	8	Panajachel	9	Septiembre	2023-09-15T00:00:00	2024-11-08T15:00:00	6	Velocidad del viento	4.8
60658	7	Sololá	710	Panajachel	8	Panajachel	9	Septiembre	2023-09-15T00:00:00	2024-11-08T15:00:00	7	Dirección del viento	4.83
60659	7	Sololá	710	Panajachel	8	Panajachel	9	Septiembre	2023-09-15T00:00:00	2024-11-08T15:00:00	1	Precipitación	0
60660	7	Sololá	710	Panajachel	8	Panajachel	9	Septiembre	2023-09-15T00:00:00	2024-11-08T15:00:00	8	Radiación solar	137
60661	7	Sololá	710	Panajachel	8	Panajachel	9	Septiembre	2023-09-15T00:00:00	2024-11-08T16:00:00	2	Temperatura media	21.2
60662	7	Sololá	710	Panajachel	8	Panajachel	9	Septiembre	2023-09-15T00:00:00	2024-11-08T16:00:00	4	Temperatura máxima	21.8
60663	7	Sololá	710	Panajachel	8	Panajachel	9	Septiembre	2023-09-15T00:00:00	2024-11-08T16:00:00	3	Temperatura mínima	21.1
60664	7	Sololá	710	Panajachel	8	Panajachel	9	Septiembre	2023-09-15T00:00:00	2024-11-08T16:00:00	5	Humedad	90
60665	7	Sololá	710	Panajachel	8	Panajachel	9	Septiembre	2023-09-15T00:00:00	2024-11-08T16:00:00	6	Velocidad del viento	4.8
60666	7	Sololá	710	Panajachel	8	Panajachel	9	Septiembre	2023-09-15T00:00:00	2024-11-08T16:00:00	7	Dirección del viento	4.83
60667	7	Sololá	710	Panajachel	8	Panajachel	9	Septiembre	2023-09-15T00:00:00	2024-11-08T16:00:00	1	Precipitación	0
60668	7	Sololá	710	Panajachel	8	Panajachel	9	Septiembre	2023-09-15T00:00:00	2024-11-08T16:00:00	8	Radiación solar	122
60669	7	Sololá	710	Panajachel	8	Panajachel	9	Septiembre	2023-09-15T00:00:00	2024-11-08T17:00:00	2	Temperatura media	19.9
60670	7	Sololá	710	Panajachel	8	Panajachel	9	Septiembre	2023-09-15T00:00:00	2024-11-08T17:00:00	4	Temperatura máxima	21.2
60671	7	Sololá	710	Panajachel	8	Panajachel	9	Septiembre	2023-09-15T00:00:00	2024-11-08T17:00:00	3	Temperatura mínima	19.9
60672	7	Sololá	710	Panajachel	8	Panajachel	9	Septiembre	2023-09-15T00:00:00	2024-11-08T17:00:00	5	Humedad	95
60673	7	Sololá	710	Panajachel	8	Panajachel	9	Septiembre	2023-09-15T00:00:00	2024-11-08T17:00:00	6	Velocidad del viento	4.8
60674	7	Sololá	710	Panajachel	8	Panajachel	9	Septiembre	2023-09-15T00:00:00	2024-11-08T17:00:00	7	Dirección del viento	4.83
60675	7	Sololá	710	Panajachel	8	Panajachel	9	Septiembre	2023-09-15T00:00:00	2024-11-08T17:00:00	1	Precipitación	0
60676	7	Sololá	710	Panajachel	8	Panajachel	9	Septiembre	2023-09-15T00:00:00	2024-11-08T17:00:00	8	Radiación solar	23
60677	7	Sololá	710	Panajachel	8	Panajachel	9	Septiembre	2023-09-15T00:00:00	2024-11-08T18:00:00	2	Temperatura media	20
60678	7	Sololá	710	Panajachel	8	Panajachel	9	Septiembre	2023-09-15T00:00:00	2024-11-08T18:00:00	4	Temperatura máxima	20
60679	7	Sololá	710	Panajachel	8	Panajachel	9	Septiembre	2023-09-15T00:00:00	2024-11-08T18:00:00	3	Temperatura mínima	19.7
60680	7	Sololá	710	Panajachel	8	Panajachel	9	Septiembre	2023-09-15T00:00:00	2024-11-08T18:00:00	5	Humedad	91
60681	7	Sololá	710	Panajachel	8	Panajachel	9	Septiembre	2023-09-15T00:00:00	2024-11-08T18:00:00	6	Velocidad del viento	3.2
60682	7	Sololá	710	Panajachel	8	Panajachel	9	Septiembre	2023-09-15T00:00:00	2024-11-08T18:00:00	7	Dirección del viento	3.22
60683	7	Sololá	710	Panajachel	8	Panajachel	9	Septiembre	2023-09-15T00:00:00	2024-11-08T18:00:00	1	Precipitación	0
60684	7	Sololá	710	Panajachel	8	Panajachel	9	Septiembre	2023-09-15T00:00:00	2024-11-08T18:00:00	8	Radiación solar	14
60685	7	Sololá	710	Panajachel	8	Panajachel	9	Septiembre	2023-09-15T00:00:00	2024-11-08T19:00:00	2	Temperatura media	19.5
60686	7	Sololá	710	Panajachel	8	Panajachel	9	Septiembre	2023-09-15T00:00:00	2024-11-08T19:00:00	4	Temperatura máxima	20.1
60687	7	Sololá	710	Panajachel	8	Panajachel	9	Septiembre	2023-09-15T00:00:00	2024-11-08T19:00:00	3	Temperatura mínima	19.4
60688	7	Sololá	710	Panajachel	8	Panajachel	9	Septiembre	2023-09-15T00:00:00	2024-11-08T19:00:00	5	Humedad	93
60689	7	Sololá	710	Panajachel	8	Panajachel	9	Septiembre	2023-09-15T00:00:00	2024-11-08T19:00:00	6	Velocidad del viento	0
60690	7	Sololá	710	Panajachel	8	Panajachel	9	Septiembre	2023-09-15T00:00:00	2024-11-08T19:00:00	7	Dirección del viento	0
60691	7	Sololá	710	Panajachel	8	Panajachel	9	Septiembre	2023-09-15T00:00:00	2024-11-08T19:00:00	1	Precipitación	0
60692	7	Sololá	710	Panajachel	8	Panajachel	9	Septiembre	2023-09-15T00:00:00	2024-11-08T19:00:00	8	Radiación solar	0
60693	7	Sololá	710	Panajachel	8	Panajachel	9	Septiembre	2023-09-15T00:00:00	2024-11-08T20:00:00	2	Temperatura media	19.3
60694	7	Sololá	710	Panajachel	8	Panajachel	9	Septiembre	2023-09-15T00:00:00	2024-11-08T20:00:00	4	Temperatura máxima	19.5
60695	7	Sololá	710	Panajachel	8	Panajachel	9	Septiembre	2023-09-15T00:00:00	2024-11-08T20:00:00	3	Temperatura mínima	19.3
60696	7	Sololá	710	Panajachel	8	Panajachel	9	Septiembre	2023-09-15T00:00:00	2024-11-08T20:00:00	5	Humedad	92
60697	7	Sololá	710	Panajachel	8	Panajachel	9	Septiembre	2023-09-15T00:00:00	2024-11-08T20:00:00	6	Velocidad del viento	0
60698	7	Sololá	710	Panajachel	8	Panajachel	9	Septiembre	2023-09-15T00:00:00	2024-11-08T20:00:00	7	Dirección del viento	0
60699	7	Sololá	710	Panajachel	8	Panajachel	9	Septiembre	2023-09-15T00:00:00	2024-11-08T20:00:00	1	Precipitación	0
60700	7	Sololá	710	Panajachel	8	Panajachel	9	Septiembre	2023-09-15T00:00:00	2024-11-08T20:00:00	8	Radiación solar	0
60701	7	Sololá	710	Panajachel	8	Panajachel	9	Septiembre	2023-09-15T00:00:00	2024-11-08T21:00:00	2	Temperatura media	18.4
60702	7	Sololá	710	Panajachel	8	Panajachel	9	Septiembre	2023-09-15T00:00:00	2024-11-08T21:00:00	4	Temperatura máxima	19.3
60703	7	Sololá	710	Panajachel	8	Panajachel	9	Septiembre	2023-09-15T00:00:00	2024-11-08T21:00:00	3	Temperatura mínima	18.4
60704	7	Sololá	710	Panajachel	8	Panajachel	9	Septiembre	2023-09-15T00:00:00	2024-11-08T21:00:00	5	Humedad	91
60705	7	Sololá	710	Panajachel	8	Panajachel	9	Septiembre	2023-09-15T00:00:00	2024-11-08T21:00:00	6	Velocidad del viento	1.6
60706	7	Sololá	710	Panajachel	8	Panajachel	9	Septiembre	2023-09-15T00:00:00	2024-11-08T21:00:00	7	Dirección del viento	1.61
60707	7	Sololá	710	Panajachel	8	Panajachel	9	Septiembre	2023-09-15T00:00:00	2024-11-08T21:00:00	1	Precipitación	0
60708	7	Sololá	710	Panajachel	8	Panajachel	9	Septiembre	2023-09-15T00:00:00	2024-11-08T21:00:00	8	Radiación solar	0
60709	7	Sololá	710	Panajachel	8	Panajachel	9	Septiembre	2023-09-15T00:00:00	2024-11-08T22:00:00	2	Temperatura media	18.1
60710	7	Sololá	710	Panajachel	8	Panajachel	9	Septiembre	2023-09-15T00:00:00	2024-11-08T22:00:00	4	Temperatura máxima	18.4
60711	7	Sololá	710	Panajachel	8	Panajachel	9	Septiembre	2023-09-15T00:00:00	2024-11-08T22:00:00	3	Temperatura mínima	18
60712	7	Sololá	710	Panajachel	8	Panajachel	9	Septiembre	2023-09-15T00:00:00	2024-11-08T22:00:00	5	Humedad	91
60713	7	Sololá	710	Panajachel	8	Panajachel	9	Septiembre	2023-09-15T00:00:00	2024-11-08T22:00:00	6	Velocidad del viento	3.2
60714	7	Sololá	710	Panajachel	8	Panajachel	9	Septiembre	2023-09-15T00:00:00	2024-11-08T22:00:00	7	Dirección del viento	3.22
60715	7	Sololá	710	Panajachel	8	Panajachel	9	Septiembre	2023-09-15T00:00:00	2024-11-08T22:00:00	1	Precipitación	0
60716	7	Sololá	710	Panajachel	8	Panajachel	9	Septiembre	2023-09-15T00:00:00	2024-11-08T22:00:00	8	Radiación solar	0
60717	7	Sololá	710	Panajachel	8	Panajachel	9	Septiembre	2023-09-15T00:00:00	2024-11-08T23:00:00	2	Temperatura media	17.4
60718	7	Sololá	710	Panajachel	8	Panajachel	9	Septiembre	2023-09-15T00:00:00	2024-11-08T23:00:00	4	Temperatura máxima	18.1
60719	7	Sololá	710	Panajachel	8	Panajachel	9	Septiembre	2023-09-15T00:00:00	2024-11-08T23:00:00	3	Temperatura mínima	17.4
60720	7	Sololá	710	Panajachel	8	Panajachel	9	Septiembre	2023-09-15T00:00:00	2024-11-08T23:00:00	5	Humedad	90
60721	7	Sololá	710	Panajachel	8	Panajachel	9	Septiembre	2023-09-15T00:00:00	2024-11-08T23:00:00	6	Velocidad del viento	3.2
60722	7	Sololá	710	Panajachel	8	Panajachel	9	Septiembre	2023-09-15T00:00:00	2024-11-08T23:00:00	7	Dirección del viento	3.22
60723	7	Sololá	710	Panajachel	8	Panajachel	9	Septiembre	2023-09-15T00:00:00	2024-11-08T23:00:00	1	Precipitación	0
60724	7	Sololá	710	Panajachel	8	Panajachel	9	Septiembre	2023-09-15T00:00:00	2024-11-08T23:00:00	8	Radiación solar	0
60725	7	Sololá	710	Panajachel	8	Panajachel	9	Septiembre	2023-09-16T00:00:00	2024-11-08T00:00:00	2	Temperatura media	17.1
60726	7	Sololá	710	Panajachel	8	Panajachel	9	Septiembre	2023-09-16T00:00:00	2024-11-08T00:00:00	4	Temperatura máxima	17.4
60727	7	Sololá	710	Panajachel	8	Panajachel	9	Septiembre	2023-09-16T00:00:00	2024-11-08T00:00:00	3	Temperatura mínima	17
60728	7	Sololá	710	Panajachel	8	Panajachel	9	Septiembre	2023-09-16T00:00:00	2024-11-08T00:00:00	5	Humedad	90
60729	7	Sololá	710	Panajachel	8	Panajachel	9	Septiembre	2023-09-16T00:00:00	2024-11-08T00:00:00	6	Velocidad del viento	3.2
60730	7	Sololá	710	Panajachel	8	Panajachel	9	Septiembre	2023-09-16T00:00:00	2024-11-08T00:00:00	7	Dirección del viento	3.22
60731	7	Sololá	710	Panajachel	8	Panajachel	9	Septiembre	2023-09-16T00:00:00	2024-11-08T00:00:00	1	Precipitación	0
60732	7	Sololá	710	Panajachel	8	Panajachel	9	Septiembre	2023-09-16T00:00:00	2024-11-08T00:00:00	8	Radiación solar	0
60733	7	Sololá	710	Panajachel	8	Panajachel	9	Septiembre	2023-09-16T00:00:00	2024-11-08T01:00:00	2	Temperatura media	17.4
60734	7	Sololá	710	Panajachel	8	Panajachel	9	Septiembre	2023-09-16T00:00:00	2024-11-08T01:00:00	4	Temperatura máxima	17.6
60735	7	Sololá	710	Panajachel	8	Panajachel	9	Septiembre	2023-09-16T00:00:00	2024-11-08T01:00:00	3	Temperatura mínima	17.1
60736	7	Sololá	710	Panajachel	8	Panajachel	9	Septiembre	2023-09-16T00:00:00	2024-11-08T01:00:00	5	Humedad	86
60737	7	Sololá	710	Panajachel	8	Panajachel	9	Septiembre	2023-09-16T00:00:00	2024-11-08T01:00:00	6	Velocidad del viento	3.2
60738	7	Sololá	710	Panajachel	8	Panajachel	9	Septiembre	2023-09-16T00:00:00	2024-11-08T01:00:00	7	Dirección del viento	3.22
60739	7	Sololá	710	Panajachel	8	Panajachel	9	Septiembre	2023-09-16T00:00:00	2024-11-08T01:00:00	1	Precipitación	0
60740	7	Sololá	710	Panajachel	8	Panajachel	9	Septiembre	2023-09-16T00:00:00	2024-11-08T01:00:00	8	Radiación solar	0
60741	7	Sololá	710	Panajachel	8	Panajachel	9	Septiembre	2023-09-16T00:00:00	2024-11-08T02:00:00	2	Temperatura media	16.6
60742	7	Sololá	710	Panajachel	8	Panajachel	9	Septiembre	2023-09-16T00:00:00	2024-11-08T02:00:00	4	Temperatura máxima	17.4
60743	7	Sololá	710	Panajachel	8	Panajachel	9	Septiembre	2023-09-16T00:00:00	2024-11-08T02:00:00	3	Temperatura mínima	16.6
60744	7	Sololá	710	Panajachel	8	Panajachel	9	Septiembre	2023-09-16T00:00:00	2024-11-08T02:00:00	5	Humedad	88
60745	7	Sololá	710	Panajachel	8	Panajachel	9	Septiembre	2023-09-16T00:00:00	2024-11-08T02:00:00	6	Velocidad del viento	3.2
60746	7	Sololá	710	Panajachel	8	Panajachel	9	Septiembre	2023-09-16T00:00:00	2024-11-08T02:00:00	7	Dirección del viento	3.22
60747	7	Sololá	710	Panajachel	8	Panajachel	9	Septiembre	2023-09-16T00:00:00	2024-11-08T02:00:00	1	Precipitación	0
60748	7	Sololá	710	Panajachel	8	Panajachel	9	Septiembre	2023-09-16T00:00:00	2024-11-08T02:00:00	8	Radiación solar	0
60749	7	Sololá	710	Panajachel	8	Panajachel	9	Septiembre	2023-09-16T00:00:00	2024-11-08T03:00:00	2	Temperatura media	16.7
60750	7	Sololá	710	Panajachel	8	Panajachel	9	Septiembre	2023-09-16T00:00:00	2024-11-08T03:00:00	4	Temperatura máxima	17
60751	7	Sololá	710	Panajachel	8	Panajachel	9	Septiembre	2023-09-16T00:00:00	2024-11-08T03:00:00	3	Temperatura mínima	16.6
60752	7	Sololá	710	Panajachel	8	Panajachel	9	Septiembre	2023-09-16T00:00:00	2024-11-08T03:00:00	5	Humedad	87
60753	7	Sololá	710	Panajachel	8	Panajachel	9	Septiembre	2023-09-16T00:00:00	2024-11-08T03:00:00	6	Velocidad del viento	1.6
60754	7	Sololá	710	Panajachel	8	Panajachel	9	Septiembre	2023-09-16T00:00:00	2024-11-08T03:00:00	7	Dirección del viento	1.61
60755	7	Sololá	710	Panajachel	8	Panajachel	9	Septiembre	2023-09-16T00:00:00	2024-11-08T03:00:00	1	Precipitación	0
60756	7	Sololá	710	Panajachel	8	Panajachel	9	Septiembre	2023-09-16T00:00:00	2024-11-08T03:00:00	8	Radiación solar	0
60757	7	Sololá	710	Panajachel	8	Panajachel	9	Septiembre	2023-09-16T00:00:00	2024-11-08T04:00:00	2	Temperatura media	16.5
60758	7	Sololá	710	Panajachel	8	Panajachel	9	Septiembre	2023-09-16T00:00:00	2024-11-08T04:00:00	4	Temperatura máxima	16.9
60759	7	Sololá	710	Panajachel	8	Panajachel	9	Septiembre	2023-09-16T00:00:00	2024-11-08T04:00:00	3	Temperatura mínima	16.4
60760	7	Sololá	710	Panajachel	8	Panajachel	9	Septiembre	2023-09-16T00:00:00	2024-11-08T04:00:00	5	Humedad	88
60761	7	Sololá	710	Panajachel	8	Panajachel	9	Septiembre	2023-09-16T00:00:00	2024-11-08T04:00:00	6	Velocidad del viento	1.6
60762	7	Sololá	710	Panajachel	8	Panajachel	9	Septiembre	2023-09-16T00:00:00	2024-11-08T04:00:00	7	Dirección del viento	1.61
60763	7	Sololá	710	Panajachel	8	Panajachel	9	Septiembre	2023-09-16T00:00:00	2024-11-08T04:00:00	1	Precipitación	0
60764	7	Sololá	710	Panajachel	8	Panajachel	9	Septiembre	2023-09-16T00:00:00	2024-11-08T04:00:00	8	Radiación solar	0
60765	7	Sololá	710	Panajachel	8	Panajachel	9	Septiembre	2023-09-16T00:00:00	2024-11-08T05:00:00	2	Temperatura media	16.1
60766	7	Sololá	710	Panajachel	8	Panajachel	9	Septiembre	2023-09-16T00:00:00	2024-11-08T05:00:00	4	Temperatura máxima	17
60767	7	Sololá	710	Panajachel	8	Panajachel	9	Septiembre	2023-09-16T00:00:00	2024-11-08T05:00:00	3	Temperatura mínima	16.1
60768	7	Sololá	710	Panajachel	8	Panajachel	9	Septiembre	2023-09-16T00:00:00	2024-11-08T05:00:00	5	Humedad	89
60769	7	Sololá	710	Panajachel	8	Panajachel	9	Septiembre	2023-09-16T00:00:00	2024-11-08T05:00:00	6	Velocidad del viento	1.6
60770	7	Sololá	710	Panajachel	8	Panajachel	9	Septiembre	2023-09-16T00:00:00	2024-11-08T05:00:00	7	Dirección del viento	1.61
60771	7	Sololá	710	Panajachel	8	Panajachel	9	Septiembre	2023-09-16T00:00:00	2024-11-08T05:00:00	1	Precipitación	0
60772	7	Sololá	710	Panajachel	8	Panajachel	9	Septiembre	2023-09-16T00:00:00	2024-11-08T05:00:00	8	Radiación solar	0
60773	7	Sololá	710	Panajachel	8	Panajachel	9	Septiembre	2023-09-16T00:00:00	2024-11-08T06:00:00	2	Temperatura media	16.4
60774	7	Sololá	710	Panajachel	8	Panajachel	9	Septiembre	2023-09-16T00:00:00	2024-11-08T06:00:00	4	Temperatura máxima	16.7
60775	7	Sololá	710	Panajachel	8	Panajachel	9	Septiembre	2023-09-16T00:00:00	2024-11-08T06:00:00	3	Temperatura mínima	16.1
60776	7	Sololá	710	Panajachel	8	Panajachel	9	Septiembre	2023-09-16T00:00:00	2024-11-08T06:00:00	5	Humedad	88
60777	7	Sololá	710	Panajachel	8	Panajachel	9	Septiembre	2023-09-16T00:00:00	2024-11-08T06:00:00	6	Velocidad del viento	1.6
60778	7	Sololá	710	Panajachel	8	Panajachel	9	Septiembre	2023-09-16T00:00:00	2024-11-08T06:00:00	7	Dirección del viento	1.61
60779	7	Sololá	710	Panajachel	8	Panajachel	9	Septiembre	2023-09-16T00:00:00	2024-11-08T06:00:00	1	Precipitación	0
60780	7	Sololá	710	Panajachel	8	Panajachel	9	Septiembre	2023-09-16T00:00:00	2024-11-08T06:00:00	8	Radiación solar	0
60781	7	Sololá	710	Panajachel	8	Panajachel	9	Septiembre	2023-09-16T00:00:00	2024-11-08T07:00:00	2	Temperatura media	18.7
60782	7	Sololá	710	Panajachel	8	Panajachel	9	Septiembre	2023-09-16T00:00:00	2024-11-08T07:00:00	4	Temperatura máxima	18.7
60783	7	Sololá	710	Panajachel	8	Panajachel	9	Septiembre	2023-09-16T00:00:00	2024-11-08T07:00:00	3	Temperatura mínima	16.3
60784	7	Sololá	710	Panajachel	8	Panajachel	9	Septiembre	2023-09-16T00:00:00	2024-11-08T07:00:00	5	Humedad	80
60785	7	Sololá	710	Panajachel	8	Panajachel	9	Septiembre	2023-09-16T00:00:00	2024-11-08T07:00:00	6	Velocidad del viento	1.6
60786	7	Sololá	710	Panajachel	8	Panajachel	9	Septiembre	2023-09-16T00:00:00	2024-11-08T07:00:00	7	Dirección del viento	1.61
60787	7	Sololá	710	Panajachel	8	Panajachel	9	Septiembre	2023-09-16T00:00:00	2024-11-08T07:00:00	1	Precipitación	0
60788	7	Sololá	710	Panajachel	8	Panajachel	9	Septiembre	2023-09-16T00:00:00	2024-11-08T07:00:00	8	Radiación solar	60
60789	7	Sololá	710	Panajachel	8	Panajachel	9	Septiembre	2023-09-16T00:00:00	2024-11-08T08:00:00	2	Temperatura media	21.9
60790	7	Sololá	710	Panajachel	8	Panajachel	9	Septiembre	2023-09-16T00:00:00	2024-11-08T08:00:00	4	Temperatura máxima	21.9
60791	7	Sololá	710	Panajachel	8	Panajachel	9	Septiembre	2023-09-16T00:00:00	2024-11-08T08:00:00	3	Temperatura mínima	18.8
60792	7	Sololá	710	Panajachel	8	Panajachel	9	Septiembre	2023-09-16T00:00:00	2024-11-08T08:00:00	5	Humedad	70
60793	7	Sololá	710	Panajachel	8	Panajachel	9	Septiembre	2023-09-16T00:00:00	2024-11-08T08:00:00	6	Velocidad del viento	3.2
60794	7	Sololá	710	Panajachel	8	Panajachel	9	Septiembre	2023-09-16T00:00:00	2024-11-08T08:00:00	7	Dirección del viento	3.22
60795	7	Sololá	710	Panajachel	8	Panajachel	9	Septiembre	2023-09-16T00:00:00	2024-11-08T08:00:00	1	Precipitación	0
60796	7	Sololá	710	Panajachel	8	Panajachel	9	Septiembre	2023-09-16T00:00:00	2024-11-08T08:00:00	8	Radiación solar	315
60797	7	Sololá	710	Panajachel	8	Panajachel	9	Septiembre	2023-09-16T00:00:00	2024-11-08T09:00:00	2	Temperatura media	23.7
60798	7	Sololá	710	Panajachel	8	Panajachel	9	Septiembre	2023-09-16T00:00:00	2024-11-08T09:00:00	4	Temperatura máxima	23.7
60799	7	Sololá	710	Panajachel	8	Panajachel	9	Septiembre	2023-09-16T00:00:00	2024-11-08T09:00:00	3	Temperatura mínima	22
60800	7	Sololá	710	Panajachel	8	Panajachel	9	Septiembre	2023-09-16T00:00:00	2024-11-08T09:00:00	5	Humedad	65
60801	7	Sololá	710	Panajachel	8	Panajachel	9	Septiembre	2023-09-16T00:00:00	2024-11-08T09:00:00	6	Velocidad del viento	6.4
60802	7	Sololá	710	Panajachel	8	Panajachel	9	Septiembre	2023-09-16T00:00:00	2024-11-08T09:00:00	7	Dirección del viento	6.44
60803	7	Sololá	710	Panajachel	8	Panajachel	9	Septiembre	2023-09-16T00:00:00	2024-11-08T09:00:00	1	Precipitación	0
60804	7	Sololá	710	Panajachel	8	Panajachel	9	Septiembre	2023-09-16T00:00:00	2024-11-08T09:00:00	8	Radiación solar	543
60805	7	Sololá	710	Panajachel	8	Panajachel	9	Septiembre	2023-09-16T00:00:00	2024-11-08T10:00:00	2	Temperatura media	25.1
60806	7	Sololá	710	Panajachel	8	Panajachel	9	Septiembre	2023-09-16T00:00:00	2024-11-08T10:00:00	4	Temperatura máxima	25.3
60807	7	Sololá	710	Panajachel	8	Panajachel	9	Septiembre	2023-09-16T00:00:00	2024-11-08T10:00:00	3	Temperatura mínima	23.6
60808	7	Sololá	710	Panajachel	8	Panajachel	9	Septiembre	2023-09-16T00:00:00	2024-11-08T10:00:00	5	Humedad	66
60809	7	Sololá	710	Panajachel	8	Panajachel	9	Septiembre	2023-09-16T00:00:00	2024-11-08T10:00:00	6	Velocidad del viento	6.4
60810	7	Sololá	710	Panajachel	8	Panajachel	9	Septiembre	2023-09-16T00:00:00	2024-11-08T10:00:00	7	Dirección del viento	6.44
60811	7	Sololá	710	Panajachel	8	Panajachel	9	Septiembre	2023-09-16T00:00:00	2024-11-08T10:00:00	1	Precipitación	0
60812	7	Sololá	710	Panajachel	8	Panajachel	9	Septiembre	2023-09-16T00:00:00	2024-11-08T10:00:00	8	Radiación solar	730
60813	7	Sololá	710	Panajachel	8	Panajachel	9	Septiembre	2023-09-16T00:00:00	2024-11-08T11:00:00	2	Temperatura media	25
60814	7	Sololá	710	Panajachel	8	Panajachel	9	Septiembre	2023-09-16T00:00:00	2024-11-08T11:00:00	4	Temperatura máxima	25.2
60815	7	Sololá	710	Panajachel	8	Panajachel	9	Septiembre	2023-09-16T00:00:00	2024-11-08T11:00:00	3	Temperatura mínima	24.6
60816	7	Sololá	710	Panajachel	8	Panajachel	9	Septiembre	2023-09-16T00:00:00	2024-11-08T11:00:00	5	Humedad	66
60817	7	Sololá	710	Panajachel	8	Panajachel	9	Septiembre	2023-09-16T00:00:00	2024-11-08T11:00:00	6	Velocidad del viento	4.8
60818	7	Sololá	710	Panajachel	8	Panajachel	9	Septiembre	2023-09-16T00:00:00	2024-11-08T11:00:00	7	Dirección del viento	4.83
60819	7	Sololá	710	Panajachel	8	Panajachel	9	Septiembre	2023-09-16T00:00:00	2024-11-08T11:00:00	1	Precipitación	0
60820	7	Sololá	710	Panajachel	8	Panajachel	9	Septiembre	2023-09-16T00:00:00	2024-11-08T11:00:00	8	Radiación solar	889
60821	7	Sololá	710	Panajachel	8	Panajachel	9	Septiembre	2023-09-16T00:00:00	2024-11-08T12:00:00	2	Temperatura media	25.9
60822	7	Sololá	710	Panajachel	8	Panajachel	9	Septiembre	2023-09-16T00:00:00	2024-11-08T12:00:00	4	Temperatura máxima	26.3
60823	7	Sololá	710	Panajachel	8	Panajachel	9	Septiembre	2023-09-16T00:00:00	2024-11-08T12:00:00	3	Temperatura mínima	25
60824	7	Sololá	710	Panajachel	8	Panajachel	9	Septiembre	2023-09-16T00:00:00	2024-11-08T12:00:00	5	Humedad	66
60825	7	Sololá	710	Panajachel	8	Panajachel	9	Septiembre	2023-09-16T00:00:00	2024-11-08T12:00:00	6	Velocidad del viento	4.8
60826	7	Sololá	710	Panajachel	8	Panajachel	9	Septiembre	2023-09-16T00:00:00	2024-11-08T12:00:00	7	Dirección del viento	4.83
60827	7	Sololá	710	Panajachel	8	Panajachel	9	Septiembre	2023-09-16T00:00:00	2024-11-08T12:00:00	1	Precipitación	0
60828	7	Sololá	710	Panajachel	8	Panajachel	9	Septiembre	2023-09-16T00:00:00	2024-11-08T12:00:00	8	Radiación solar	944
60829	7	Sololá	710	Panajachel	8	Panajachel	9	Septiembre	2023-09-16T00:00:00	2024-11-08T13:00:00	2	Temperatura media	26.6
60830	7	Sololá	710	Panajachel	8	Panajachel	9	Septiembre	2023-09-16T00:00:00	2024-11-08T13:00:00	4	Temperatura máxima	26.6
60831	7	Sololá	710	Panajachel	8	Panajachel	9	Septiembre	2023-09-16T00:00:00	2024-11-08T13:00:00	3	Temperatura mínima	25.7
60832	7	Sololá	710	Panajachel	8	Panajachel	9	Septiembre	2023-09-16T00:00:00	2024-11-08T13:00:00	5	Humedad	63
60833	7	Sololá	710	Panajachel	8	Panajachel	9	Septiembre	2023-09-16T00:00:00	2024-11-08T13:00:00	6	Velocidad del viento	3.2
60834	7	Sololá	710	Panajachel	8	Panajachel	9	Septiembre	2023-09-16T00:00:00	2024-11-08T13:00:00	7	Dirección del viento	3.22
60835	7	Sololá	710	Panajachel	8	Panajachel	9	Septiembre	2023-09-16T00:00:00	2024-11-08T13:00:00	1	Precipitación	0
60836	7	Sololá	710	Panajachel	8	Panajachel	9	Septiembre	2023-09-16T00:00:00	2024-11-08T13:00:00	8	Radiación solar	552
60837	7	Sololá	710	Panajachel	8	Panajachel	9	Septiembre	2023-09-16T00:00:00	2024-11-08T14:00:00	2	Temperatura media	26.9
60838	7	Sololá	710	Panajachel	8	Panajachel	9	Septiembre	2023-09-16T00:00:00	2024-11-08T14:00:00	4	Temperatura máxima	27.5
60839	7	Sololá	710	Panajachel	8	Panajachel	9	Septiembre	2023-09-16T00:00:00	2024-11-08T14:00:00	3	Temperatura mínima	26.4
60840	7	Sololá	710	Panajachel	8	Panajachel	9	Septiembre	2023-09-16T00:00:00	2024-11-08T14:00:00	5	Humedad	69
60841	7	Sololá	710	Panajachel	8	Panajachel	9	Septiembre	2023-09-16T00:00:00	2024-11-08T14:00:00	6	Velocidad del viento	4.8
60842	7	Sololá	710	Panajachel	8	Panajachel	9	Septiembre	2023-09-16T00:00:00	2024-11-08T14:00:00	7	Dirección del viento	4.83
60843	7	Sololá	710	Panajachel	8	Panajachel	9	Septiembre	2023-09-16T00:00:00	2024-11-08T14:00:00	1	Precipitación	0
60844	7	Sololá	710	Panajachel	8	Panajachel	9	Septiembre	2023-09-16T00:00:00	2024-11-08T14:00:00	8	Radiación solar	715
60845	7	Sololá	710	Panajachel	8	Panajachel	9	Septiembre	2023-09-16T00:00:00	2024-11-08T15:00:00	2	Temperatura media	25.6
60846	7	Sololá	710	Panajachel	8	Panajachel	9	Septiembre	2023-09-16T00:00:00	2024-11-08T15:00:00	4	Temperatura máxima	26.9
60847	7	Sololá	710	Panajachel	8	Panajachel	9	Septiembre	2023-09-16T00:00:00	2024-11-08T15:00:00	3	Temperatura mínima	25.2
60848	7	Sololá	710	Panajachel	8	Panajachel	9	Septiembre	2023-09-16T00:00:00	2024-11-08T15:00:00	5	Humedad	77
60849	7	Sololá	710	Panajachel	8	Panajachel	9	Septiembre	2023-09-16T00:00:00	2024-11-08T15:00:00	6	Velocidad del viento	3.2
60850	7	Sololá	710	Panajachel	8	Panajachel	9	Septiembre	2023-09-16T00:00:00	2024-11-08T15:00:00	7	Dirección del viento	3.22
60851	7	Sololá	710	Panajachel	8	Panajachel	9	Septiembre	2023-09-16T00:00:00	2024-11-08T15:00:00	1	Precipitación	0
60852	7	Sololá	710	Panajachel	8	Panajachel	9	Septiembre	2023-09-16T00:00:00	2024-11-08T15:00:00	8	Radiación solar	395
60853	7	Sololá	710	Panajachel	8	Panajachel	9	Septiembre	2023-09-16T00:00:00	2024-11-08T16:00:00	2	Temperatura media	26
60854	7	Sololá	710	Panajachel	8	Panajachel	9	Septiembre	2023-09-16T00:00:00	2024-11-08T16:00:00	4	Temperatura máxima	26.7
60855	7	Sololá	710	Panajachel	8	Panajachel	9	Septiembre	2023-09-16T00:00:00	2024-11-08T16:00:00	3	Temperatura mínima	25.1
60856	7	Sololá	710	Panajachel	8	Panajachel	9	Septiembre	2023-09-16T00:00:00	2024-11-08T16:00:00	5	Humedad	73
60857	7	Sololá	710	Panajachel	8	Panajachel	9	Septiembre	2023-09-16T00:00:00	2024-11-08T16:00:00	6	Velocidad del viento	3.2
60858	7	Sololá	710	Panajachel	8	Panajachel	9	Septiembre	2023-09-16T00:00:00	2024-11-08T16:00:00	7	Dirección del viento	3.22
60859	7	Sololá	710	Panajachel	8	Panajachel	9	Septiembre	2023-09-16T00:00:00	2024-11-08T16:00:00	1	Precipitación	0
60860	7	Sololá	710	Panajachel	8	Panajachel	9	Septiembre	2023-09-16T00:00:00	2024-11-08T16:00:00	8	Radiación solar	387
60861	7	Sololá	710	Panajachel	8	Panajachel	9	Septiembre	2023-09-16T00:00:00	2024-11-08T17:00:00	2	Temperatura media	23.9
60862	7	Sololá	710	Panajachel	8	Panajachel	9	Septiembre	2023-09-16T00:00:00	2024-11-08T17:00:00	4	Temperatura máxima	26.1
60863	7	Sololá	710	Panajachel	8	Panajachel	9	Septiembre	2023-09-16T00:00:00	2024-11-08T17:00:00	3	Temperatura mínima	23.9
60864	7	Sololá	710	Panajachel	8	Panajachel	9	Septiembre	2023-09-16T00:00:00	2024-11-08T17:00:00	5	Humedad	82
60865	7	Sololá	710	Panajachel	8	Panajachel	9	Septiembre	2023-09-16T00:00:00	2024-11-08T17:00:00	6	Velocidad del viento	3.2
60866	7	Sololá	710	Panajachel	8	Panajachel	9	Septiembre	2023-09-16T00:00:00	2024-11-08T17:00:00	7	Dirección del viento	3.22
60867	7	Sololá	710	Panajachel	8	Panajachel	9	Septiembre	2023-09-16T00:00:00	2024-11-08T17:00:00	1	Precipitación	0
60868	7	Sololá	710	Panajachel	8	Panajachel	9	Septiembre	2023-09-16T00:00:00	2024-11-08T17:00:00	8	Radiación solar	139
60869	7	Sololá	710	Panajachel	8	Panajachel	9	Septiembre	2023-09-16T00:00:00	2024-11-08T18:00:00	2	Temperatura media	22.4
60870	7	Sololá	710	Panajachel	8	Panajachel	9	Septiembre	2023-09-16T00:00:00	2024-11-08T18:00:00	4	Temperatura máxima	23.9
60871	7	Sololá	710	Panajachel	8	Panajachel	9	Septiembre	2023-09-16T00:00:00	2024-11-08T18:00:00	3	Temperatura mínima	22.4
60872	7	Sololá	710	Panajachel	8	Panajachel	9	Septiembre	2023-09-16T00:00:00	2024-11-08T18:00:00	5	Humedad	87
60873	7	Sololá	710	Panajachel	8	Panajachel	9	Septiembre	2023-09-16T00:00:00	2024-11-08T18:00:00	6	Velocidad del viento	3.2
60874	7	Sololá	710	Panajachel	8	Panajachel	9	Septiembre	2023-09-16T00:00:00	2024-11-08T18:00:00	7	Dirección del viento	3.22
60875	7	Sololá	710	Panajachel	8	Panajachel	9	Septiembre	2023-09-16T00:00:00	2024-11-08T18:00:00	1	Precipitación	0
60876	7	Sololá	710	Panajachel	8	Panajachel	9	Septiembre	2023-09-16T00:00:00	2024-11-08T18:00:00	8	Radiación solar	28
60877	7	Sololá	710	Panajachel	8	Panajachel	9	Septiembre	2023-09-16T00:00:00	2024-11-08T19:00:00	2	Temperatura media	21.9
60878	7	Sololá	710	Panajachel	8	Panajachel	9	Septiembre	2023-09-16T00:00:00	2024-11-08T19:00:00	4	Temperatura máxima	22.4
60879	7	Sololá	710	Panajachel	8	Panajachel	9	Septiembre	2023-09-16T00:00:00	2024-11-08T19:00:00	3	Temperatura mínima	21.9
60880	7	Sololá	710	Panajachel	8	Panajachel	9	Septiembre	2023-09-16T00:00:00	2024-11-08T19:00:00	5	Humedad	87
60881	7	Sololá	710	Panajachel	8	Panajachel	9	Septiembre	2023-09-16T00:00:00	2024-11-08T19:00:00	6	Velocidad del viento	3.2
60882	7	Sololá	710	Panajachel	8	Panajachel	9	Septiembre	2023-09-16T00:00:00	2024-11-08T19:00:00	7	Dirección del viento	3.22
60883	7	Sololá	710	Panajachel	8	Panajachel	9	Septiembre	2023-09-16T00:00:00	2024-11-08T19:00:00	1	Precipitación	0
60884	7	Sololá	710	Panajachel	8	Panajachel	9	Septiembre	2023-09-16T00:00:00	2024-11-08T19:00:00	8	Radiación solar	0
60885	7	Sololá	710	Panajachel	8	Panajachel	9	Septiembre	2023-09-16T00:00:00	2024-11-08T20:00:00	2	Temperatura media	21.2
60886	7	Sololá	710	Panajachel	8	Panajachel	9	Septiembre	2023-09-16T00:00:00	2024-11-08T20:00:00	4	Temperatura máxima	22
60887	7	Sololá	710	Panajachel	8	Panajachel	9	Septiembre	2023-09-16T00:00:00	2024-11-08T20:00:00	3	Temperatura mínima	21.2
60888	7	Sololá	710	Panajachel	8	Panajachel	9	Septiembre	2023-09-16T00:00:00	2024-11-08T20:00:00	5	Humedad	88
60889	7	Sololá	710	Panajachel	8	Panajachel	9	Septiembre	2023-09-16T00:00:00	2024-11-08T20:00:00	6	Velocidad del viento	1.6
60890	7	Sololá	710	Panajachel	8	Panajachel	9	Septiembre	2023-09-16T00:00:00	2024-11-08T20:00:00	7	Dirección del viento	1.61
60891	7	Sololá	710	Panajachel	8	Panajachel	9	Septiembre	2023-09-16T00:00:00	2024-11-08T20:00:00	1	Precipitación	0
60892	7	Sololá	710	Panajachel	8	Panajachel	9	Septiembre	2023-09-16T00:00:00	2024-11-08T20:00:00	8	Radiación solar	0
60893	7	Sololá	710	Panajachel	8	Panajachel	9	Septiembre	2023-09-16T00:00:00	2024-11-08T21:00:00	2	Temperatura media	21.3
60894	7	Sololá	710	Panajachel	8	Panajachel	9	Septiembre	2023-09-16T00:00:00	2024-11-08T21:00:00	4	Temperatura máxima	21.3
60895	7	Sololá	710	Panajachel	8	Panajachel	9	Septiembre	2023-09-16T00:00:00	2024-11-08T21:00:00	3	Temperatura mínima	20.6
60896	7	Sololá	710	Panajachel	8	Panajachel	9	Septiembre	2023-09-16T00:00:00	2024-11-08T21:00:00	5	Humedad	76
60897	7	Sololá	710	Panajachel	8	Panajachel	9	Septiembre	2023-09-16T00:00:00	2024-11-08T21:00:00	6	Velocidad del viento	3.2
60898	7	Sololá	710	Panajachel	8	Panajachel	9	Septiembre	2023-09-16T00:00:00	2024-11-08T21:00:00	7	Dirección del viento	3.22
60899	7	Sololá	710	Panajachel	8	Panajachel	9	Septiembre	2023-09-16T00:00:00	2024-11-08T21:00:00	1	Precipitación	0
60900	7	Sololá	710	Panajachel	8	Panajachel	9	Septiembre	2023-09-16T00:00:00	2024-11-08T21:00:00	8	Radiación solar	0
60901	7	Sololá	710	Panajachel	8	Panajachel	9	Septiembre	2023-09-16T00:00:00	2024-11-08T22:00:00	2	Temperatura media	20.6
60902	7	Sololá	710	Panajachel	8	Panajachel	9	Septiembre	2023-09-16T00:00:00	2024-11-08T22:00:00	4	Temperatura máxima	21.9
60903	7	Sololá	710	Panajachel	8	Panajachel	9	Septiembre	2023-09-16T00:00:00	2024-11-08T22:00:00	3	Temperatura mínima	20.6
60904	7	Sololá	710	Panajachel	8	Panajachel	9	Septiembre	2023-09-16T00:00:00	2024-11-08T22:00:00	5	Humedad	79
60905	7	Sololá	710	Panajachel	8	Panajachel	9	Septiembre	2023-09-16T00:00:00	2024-11-08T22:00:00	6	Velocidad del viento	4.8
60906	7	Sololá	710	Panajachel	8	Panajachel	9	Septiembre	2023-09-16T00:00:00	2024-11-08T22:00:00	7	Dirección del viento	4.83
60907	7	Sololá	710	Panajachel	8	Panajachel	9	Septiembre	2023-09-16T00:00:00	2024-11-08T22:00:00	1	Precipitación	0
60908	7	Sololá	710	Panajachel	8	Panajachel	9	Septiembre	2023-09-16T00:00:00	2024-11-08T22:00:00	8	Radiación solar	0
60909	7	Sololá	710	Panajachel	8	Panajachel	9	Septiembre	2023-09-16T00:00:00	2024-11-08T23:00:00	2	Temperatura media	19.4
60910	7	Sololá	710	Panajachel	8	Panajachel	9	Septiembre	2023-09-16T00:00:00	2024-11-08T23:00:00	4	Temperatura máxima	20.6
60911	7	Sololá	710	Panajachel	8	Panajachel	9	Septiembre	2023-09-16T00:00:00	2024-11-08T23:00:00	3	Temperatura mínima	19.4
60912	7	Sololá	710	Panajachel	8	Panajachel	9	Septiembre	2023-09-16T00:00:00	2024-11-08T23:00:00	5	Humedad	84
60913	7	Sololá	710	Panajachel	8	Panajachel	9	Septiembre	2023-09-16T00:00:00	2024-11-08T23:00:00	6	Velocidad del viento	1.6
60914	7	Sololá	710	Panajachel	8	Panajachel	9	Septiembre	2023-09-16T00:00:00	2024-11-08T23:00:00	7	Dirección del viento	1.61
60915	7	Sololá	710	Panajachel	8	Panajachel	9	Septiembre	2023-09-16T00:00:00	2024-11-08T23:00:00	1	Precipitación	0
60916	7	Sololá	710	Panajachel	8	Panajachel	9	Septiembre	2023-09-16T00:00:00	2024-11-08T23:00:00	8	Radiación solar	0
60917	7	Sololá	710	Panajachel	8	Panajachel	9	Septiembre	2023-09-17T00:00:00	2024-11-08T00:00:00	2	Temperatura media	19
60918	7	Sololá	710	Panajachel	8	Panajachel	9	Septiembre	2023-09-17T00:00:00	2024-11-08T00:00:00	4	Temperatura máxima	19.4
60919	7	Sololá	710	Panajachel	8	Panajachel	9	Septiembre	2023-09-17T00:00:00	2024-11-08T00:00:00	3	Temperatura mínima	18.7
60920	7	Sololá	710	Panajachel	8	Panajachel	9	Septiembre	2023-09-17T00:00:00	2024-11-08T00:00:00	5	Humedad	82
60921	7	Sololá	710	Panajachel	8	Panajachel	9	Septiembre	2023-09-17T00:00:00	2024-11-08T00:00:00	6	Velocidad del viento	3.2
60922	7	Sololá	710	Panajachel	8	Panajachel	9	Septiembre	2023-09-17T00:00:00	2024-11-08T00:00:00	7	Dirección del viento	3.22
60923	7	Sololá	710	Panajachel	8	Panajachel	9	Septiembre	2023-09-17T00:00:00	2024-11-08T00:00:00	1	Precipitación	0
60924	7	Sololá	710	Panajachel	8	Panajachel	9	Septiembre	2023-09-17T00:00:00	2024-11-08T00:00:00	8	Radiación solar	0
60925	7	Sololá	710	Panajachel	8	Panajachel	9	Septiembre	2023-09-17T00:00:00	2024-11-08T01:00:00	2	Temperatura media	19.9
60926	7	Sololá	710	Panajachel	8	Panajachel	9	Septiembre	2023-09-17T00:00:00	2024-11-08T01:00:00	4	Temperatura máxima	20.5
60927	7	Sololá	710	Panajachel	8	Panajachel	9	Septiembre	2023-09-17T00:00:00	2024-11-08T01:00:00	3	Temperatura mínima	18.9
60928	7	Sololá	710	Panajachel	8	Panajachel	9	Septiembre	2023-09-17T00:00:00	2024-11-08T01:00:00	5	Humedad	74
60929	7	Sololá	710	Panajachel	8	Panajachel	9	Septiembre	2023-09-17T00:00:00	2024-11-08T01:00:00	6	Velocidad del viento	4.8
60930	7	Sololá	710	Panajachel	8	Panajachel	9	Septiembre	2023-09-17T00:00:00	2024-11-08T01:00:00	7	Dirección del viento	4.83
60931	7	Sololá	710	Panajachel	8	Panajachel	9	Septiembre	2023-09-17T00:00:00	2024-11-08T01:00:00	1	Precipitación	0
60932	7	Sololá	710	Panajachel	8	Panajachel	9	Septiembre	2023-09-17T00:00:00	2024-11-08T01:00:00	8	Radiación solar	0
60933	7	Sololá	710	Panajachel	8	Panajachel	9	Septiembre	2023-09-17T00:00:00	2024-11-08T02:00:00	2	Temperatura media	18.6
60934	7	Sololá	710	Panajachel	8	Panajachel	9	Septiembre	2023-09-17T00:00:00	2024-11-08T02:00:00	4	Temperatura máxima	19.9
60935	7	Sololá	710	Panajachel	8	Panajachel	9	Septiembre	2023-09-17T00:00:00	2024-11-08T02:00:00	3	Temperatura mínima	18.6
60936	7	Sololá	710	Panajachel	8	Panajachel	9	Septiembre	2023-09-17T00:00:00	2024-11-08T02:00:00	5	Humedad	77
60937	7	Sololá	710	Panajachel	8	Panajachel	9	Septiembre	2023-09-17T00:00:00	2024-11-08T02:00:00	6	Velocidad del viento	3.2
60938	7	Sololá	710	Panajachel	8	Panajachel	9	Septiembre	2023-09-17T00:00:00	2024-11-08T02:00:00	7	Dirección del viento	3.22
60939	7	Sololá	710	Panajachel	8	Panajachel	9	Septiembre	2023-09-17T00:00:00	2024-11-08T02:00:00	1	Precipitación	0
60940	7	Sololá	710	Panajachel	8	Panajachel	9	Septiembre	2023-09-17T00:00:00	2024-11-08T02:00:00	8	Radiación solar	0
60941	7	Sololá	710	Panajachel	8	Panajachel	9	Septiembre	2023-09-17T00:00:00	2024-11-08T03:00:00	2	Temperatura media	18.1
60942	7	Sololá	710	Panajachel	8	Panajachel	9	Septiembre	2023-09-17T00:00:00	2024-11-08T03:00:00	4	Temperatura máxima	18.7
60943	7	Sololá	710	Panajachel	8	Panajachel	9	Septiembre	2023-09-17T00:00:00	2024-11-08T03:00:00	3	Temperatura mínima	17.9
60944	7	Sololá	710	Panajachel	8	Panajachel	9	Septiembre	2023-09-17T00:00:00	2024-11-08T03:00:00	5	Humedad	77
60945	7	Sololá	710	Panajachel	8	Panajachel	9	Septiembre	2023-09-17T00:00:00	2024-11-08T03:00:00	6	Velocidad del viento	3.2
60946	7	Sololá	710	Panajachel	8	Panajachel	9	Septiembre	2023-09-17T00:00:00	2024-11-08T03:00:00	7	Dirección del viento	3.22
60947	7	Sololá	710	Panajachel	8	Panajachel	9	Septiembre	2023-09-17T00:00:00	2024-11-08T03:00:00	1	Precipitación	0
60948	7	Sololá	710	Panajachel	8	Panajachel	9	Septiembre	2023-09-17T00:00:00	2024-11-08T03:00:00	8	Radiación solar	0
60949	7	Sololá	710	Panajachel	8	Panajachel	9	Septiembre	2023-09-17T00:00:00	2024-11-08T04:00:00	2	Temperatura media	18
60950	7	Sololá	710	Panajachel	8	Panajachel	9	Septiembre	2023-09-17T00:00:00	2024-11-08T04:00:00	4	Temperatura máxima	19
60951	7	Sololá	710	Panajachel	8	Panajachel	9	Septiembre	2023-09-17T00:00:00	2024-11-08T04:00:00	3	Temperatura mínima	18
60952	7	Sololá	710	Panajachel	8	Panajachel	9	Septiembre	2023-09-17T00:00:00	2024-11-08T04:00:00	5	Humedad	78
60953	7	Sololá	710	Panajachel	8	Panajachel	9	Septiembre	2023-09-17T00:00:00	2024-11-08T04:00:00	6	Velocidad del viento	3.2
60954	7	Sololá	710	Panajachel	8	Panajachel	9	Septiembre	2023-09-17T00:00:00	2024-11-08T04:00:00	7	Dirección del viento	3.22
60955	7	Sololá	710	Panajachel	8	Panajachel	9	Septiembre	2023-09-17T00:00:00	2024-11-08T04:00:00	1	Precipitación	0
60956	7	Sololá	710	Panajachel	8	Panajachel	9	Septiembre	2023-09-17T00:00:00	2024-11-08T04:00:00	8	Radiación solar	0
60957	7	Sololá	710	Panajachel	8	Panajachel	9	Septiembre	2023-09-17T00:00:00	2024-11-08T05:00:00	2	Temperatura media	16.8
60958	7	Sololá	710	Panajachel	8	Panajachel	9	Septiembre	2023-09-17T00:00:00	2024-11-08T05:00:00	4	Temperatura máxima	18
60959	7	Sololá	710	Panajachel	8	Panajachel	9	Septiembre	2023-09-17T00:00:00	2024-11-08T05:00:00	3	Temperatura mínima	16.8
60960	7	Sololá	710	Panajachel	8	Panajachel	9	Septiembre	2023-09-17T00:00:00	2024-11-08T05:00:00	5	Humedad	80
60961	7	Sololá	710	Panajachel	8	Panajachel	9	Septiembre	2023-09-17T00:00:00	2024-11-08T05:00:00	6	Velocidad del viento	3.2
60962	7	Sololá	710	Panajachel	8	Panajachel	9	Septiembre	2023-09-17T00:00:00	2024-11-08T05:00:00	7	Dirección del viento	3.22
60963	7	Sololá	710	Panajachel	8	Panajachel	9	Septiembre	2023-09-17T00:00:00	2024-11-08T05:00:00	1	Precipitación	0
60964	7	Sololá	710	Panajachel	8	Panajachel	9	Septiembre	2023-09-17T00:00:00	2024-11-08T05:00:00	8	Radiación solar	0
60965	7	Sololá	710	Panajachel	8	Panajachel	9	Septiembre	2023-09-17T00:00:00	2024-11-08T06:00:00	2	Temperatura media	16.9
60966	7	Sololá	710	Panajachel	8	Panajachel	9	Septiembre	2023-09-17T00:00:00	2024-11-08T06:00:00	4	Temperatura máxima	17.1
60967	7	Sololá	710	Panajachel	8	Panajachel	9	Septiembre	2023-09-17T00:00:00	2024-11-08T06:00:00	3	Temperatura mínima	16.8
60968	7	Sololá	710	Panajachel	8	Panajachel	9	Septiembre	2023-09-17T00:00:00	2024-11-08T06:00:00	5	Humedad	76
60969	7	Sololá	710	Panajachel	8	Panajachel	9	Septiembre	2023-09-17T00:00:00	2024-11-08T06:00:00	6	Velocidad del viento	3.2
60970	7	Sololá	710	Panajachel	8	Panajachel	9	Septiembre	2023-09-17T00:00:00	2024-11-08T06:00:00	7	Dirección del viento	3.22
60971	7	Sololá	710	Panajachel	8	Panajachel	9	Septiembre	2023-09-17T00:00:00	2024-11-08T06:00:00	1	Precipitación	0
60972	7	Sololá	710	Panajachel	8	Panajachel	9	Septiembre	2023-09-17T00:00:00	2024-11-08T06:00:00	8	Radiación solar	0
60973	7	Sololá	710	Panajachel	8	Panajachel	9	Septiembre	2023-09-17T00:00:00	2024-11-08T07:00:00	2	Temperatura media	17.7
60974	7	Sololá	710	Panajachel	8	Panajachel	9	Septiembre	2023-09-17T00:00:00	2024-11-08T07:00:00	4	Temperatura máxima	17.7
60975	7	Sololá	710	Panajachel	8	Panajachel	9	Septiembre	2023-09-17T00:00:00	2024-11-08T07:00:00	3	Temperatura mínima	16.7
60976	7	Sololá	710	Panajachel	8	Panajachel	9	Septiembre	2023-09-17T00:00:00	2024-11-08T07:00:00	5	Humedad	76
60977	7	Sololá	710	Panajachel	8	Panajachel	9	Septiembre	2023-09-17T00:00:00	2024-11-08T07:00:00	6	Velocidad del viento	1.6
60978	7	Sololá	710	Panajachel	8	Panajachel	9	Septiembre	2023-09-17T00:00:00	2024-11-08T07:00:00	7	Dirección del viento	1.61
60979	7	Sololá	710	Panajachel	8	Panajachel	9	Septiembre	2023-09-17T00:00:00	2024-11-08T07:00:00	1	Precipitación	0
60980	7	Sololá	710	Panajachel	8	Panajachel	9	Septiembre	2023-09-17T00:00:00	2024-11-08T07:00:00	8	Radiación solar	37
60981	7	Sololá	710	Panajachel	8	Panajachel	9	Septiembre	2023-09-17T00:00:00	2024-11-08T08:00:00	2	Temperatura media	21.1
60982	7	Sololá	710	Panajachel	8	Panajachel	9	Septiembre	2023-09-17T00:00:00	2024-11-08T08:00:00	4	Temperatura máxima	21.1
60983	7	Sololá	710	Panajachel	8	Panajachel	9	Septiembre	2023-09-17T00:00:00	2024-11-08T08:00:00	3	Temperatura mínima	17.7
60984	7	Sololá	710	Panajachel	8	Panajachel	9	Septiembre	2023-09-17T00:00:00	2024-11-08T08:00:00	5	Humedad	71
60985	7	Sololá	710	Panajachel	8	Panajachel	9	Septiembre	2023-09-17T00:00:00	2024-11-08T08:00:00	6	Velocidad del viento	0
60986	7	Sololá	710	Panajachel	8	Panajachel	9	Septiembre	2023-09-17T00:00:00	2024-11-08T08:00:00	7	Dirección del viento	0
60987	7	Sololá	710	Panajachel	8	Panajachel	9	Septiembre	2023-09-17T00:00:00	2024-11-08T08:00:00	1	Precipitación	0
60988	7	Sololá	710	Panajachel	8	Panajachel	9	Septiembre	2023-09-17T00:00:00	2024-11-08T08:00:00	8	Radiación solar	257
60989	7	Sololá	710	Panajachel	8	Panajachel	9	Septiembre	2023-09-17T00:00:00	2024-11-08T09:00:00	2	Temperatura media	22.8
60990	7	Sololá	710	Panajachel	8	Panajachel	9	Septiembre	2023-09-17T00:00:00	2024-11-08T09:00:00	4	Temperatura máxima	22.8
60991	7	Sololá	710	Panajachel	8	Panajachel	9	Septiembre	2023-09-17T00:00:00	2024-11-08T09:00:00	3	Temperatura mínima	21.1
60992	7	Sololá	710	Panajachel	8	Panajachel	9	Septiembre	2023-09-17T00:00:00	2024-11-08T09:00:00	5	Humedad	68
60993	7	Sololá	710	Panajachel	8	Panajachel	9	Septiembre	2023-09-17T00:00:00	2024-11-08T09:00:00	6	Velocidad del viento	1.6
60994	7	Sololá	710	Panajachel	8	Panajachel	9	Septiembre	2023-09-17T00:00:00	2024-11-08T09:00:00	7	Dirección del viento	1.61
60995	7	Sololá	710	Panajachel	8	Panajachel	9	Septiembre	2023-09-17T00:00:00	2024-11-08T09:00:00	1	Precipitación	0
60996	7	Sololá	710	Panajachel	8	Panajachel	9	Septiembre	2023-09-17T00:00:00	2024-11-08T09:00:00	8	Radiación solar	470
60997	7	Sololá	710	Panajachel	8	Panajachel	9	Septiembre	2023-09-17T00:00:00	2024-11-08T10:00:00	2	Temperatura media	22.6
60998	7	Sololá	710	Panajachel	8	Panajachel	9	Septiembre	2023-09-17T00:00:00	2024-11-08T10:00:00	4	Temperatura máxima	23.3
60999	7	Sololá	710	Panajachel	8	Panajachel	9	Septiembre	2023-09-17T00:00:00	2024-11-08T10:00:00	3	Temperatura mínima	22
61000	7	Sololá	710	Panajachel	8	Panajachel	9	Septiembre	2023-09-17T00:00:00	2024-11-08T10:00:00	5	Humedad	70
61001	7	Sololá	710	Panajachel	8	Panajachel	9	Septiembre	2023-09-17T00:00:00	2024-11-08T10:00:00	6	Velocidad del viento	6.4
61002	7	Sololá	710	Panajachel	8	Panajachel	9	Septiembre	2023-09-17T00:00:00	2024-11-08T10:00:00	7	Dirección del viento	6.44
61003	7	Sololá	710	Panajachel	8	Panajachel	9	Septiembre	2023-09-17T00:00:00	2024-11-08T10:00:00	1	Precipitación	0
61004	7	Sololá	710	Panajachel	8	Panajachel	9	Septiembre	2023-09-17T00:00:00	2024-11-08T10:00:00	8	Radiación solar	729
61005	7	Sololá	710	Panajachel	8	Panajachel	9	Septiembre	2023-09-17T00:00:00	2024-11-08T11:00:00	2	Temperatura media	23.7
61006	7	Sololá	710	Panajachel	8	Panajachel	9	Septiembre	2023-09-17T00:00:00	2024-11-08T11:00:00	4	Temperatura máxima	23.8
61007	7	Sololá	710	Panajachel	8	Panajachel	9	Septiembre	2023-09-17T00:00:00	2024-11-08T11:00:00	3	Temperatura mínima	22.6
61008	7	Sololá	710	Panajachel	8	Panajachel	9	Septiembre	2023-09-17T00:00:00	2024-11-08T11:00:00	5	Humedad	65
61009	7	Sololá	710	Panajachel	8	Panajachel	9	Septiembre	2023-09-17T00:00:00	2024-11-08T11:00:00	6	Velocidad del viento	6.4
61010	7	Sololá	710	Panajachel	8	Panajachel	9	Septiembre	2023-09-17T00:00:00	2024-11-08T11:00:00	7	Dirección del viento	6.44
61011	7	Sololá	710	Panajachel	8	Panajachel	9	Septiembre	2023-09-17T00:00:00	2024-11-08T11:00:00	1	Precipitación	0
61012	7	Sololá	710	Panajachel	8	Panajachel	9	Septiembre	2023-09-17T00:00:00	2024-11-08T11:00:00	8	Radiación solar	837
61013	7	Sololá	710	Panajachel	8	Panajachel	9	Septiembre	2023-09-17T00:00:00	2024-11-08T12:00:00	2	Temperatura media	24.8
61014	7	Sololá	710	Panajachel	8	Panajachel	9	Septiembre	2023-09-17T00:00:00	2024-11-08T12:00:00	4	Temperatura máxima	24.9
61015	7	Sololá	710	Panajachel	8	Panajachel	9	Septiembre	2023-09-17T00:00:00	2024-11-08T12:00:00	3	Temperatura mínima	23.7
61016	7	Sololá	710	Panajachel	8	Panajachel	9	Septiembre	2023-09-17T00:00:00	2024-11-08T12:00:00	5	Humedad	61
61017	7	Sololá	710	Panajachel	8	Panajachel	9	Septiembre	2023-09-17T00:00:00	2024-11-08T12:00:00	6	Velocidad del viento	3.2
61018	7	Sololá	710	Panajachel	8	Panajachel	9	Septiembre	2023-09-17T00:00:00	2024-11-08T12:00:00	7	Dirección del viento	3.22
61019	7	Sololá	710	Panajachel	8	Panajachel	9	Septiembre	2023-09-17T00:00:00	2024-11-08T12:00:00	1	Precipitación	0
61020	7	Sololá	710	Panajachel	8	Panajachel	9	Septiembre	2023-09-17T00:00:00	2024-11-08T12:00:00	8	Radiación solar	902
61021	7	Sololá	710	Panajachel	8	Panajachel	9	Septiembre	2023-09-17T00:00:00	2024-11-08T13:00:00	2	Temperatura media	25.3
61022	7	Sololá	710	Panajachel	8	Panajachel	9	Septiembre	2023-09-17T00:00:00	2024-11-08T13:00:00	4	Temperatura máxima	25.8
61023	7	Sololá	710	Panajachel	8	Panajachel	9	Septiembre	2023-09-17T00:00:00	2024-11-08T13:00:00	3	Temperatura mínima	24.7
61024	7	Sololá	710	Panajachel	8	Panajachel	9	Septiembre	2023-09-17T00:00:00	2024-11-08T13:00:00	5	Humedad	72
61025	7	Sololá	710	Panajachel	8	Panajachel	9	Septiembre	2023-09-17T00:00:00	2024-11-08T13:00:00	6	Velocidad del viento	3.2
61026	7	Sololá	710	Panajachel	8	Panajachel	9	Septiembre	2023-09-17T00:00:00	2024-11-08T13:00:00	7	Dirección del viento	3.22
61027	7	Sololá	710	Panajachel	8	Panajachel	9	Septiembre	2023-09-17T00:00:00	2024-11-08T13:00:00	1	Precipitación	0
61028	7	Sololá	710	Panajachel	8	Panajachel	9	Septiembre	2023-09-17T00:00:00	2024-11-08T13:00:00	8	Radiación solar	886
61029	7	Sololá	710	Panajachel	8	Panajachel	9	Septiembre	2023-09-17T00:00:00	2024-11-08T14:00:00	2	Temperatura media	25.2
61030	7	Sololá	710	Panajachel	8	Panajachel	9	Septiembre	2023-09-17T00:00:00	2024-11-08T14:00:00	4	Temperatura máxima	25.4
61031	7	Sololá	710	Panajachel	8	Panajachel	9	Septiembre	2023-09-17T00:00:00	2024-11-08T14:00:00	3	Temperatura mínima	24.9
61032	7	Sololá	710	Panajachel	8	Panajachel	9	Septiembre	2023-09-17T00:00:00	2024-11-08T14:00:00	5	Humedad	72
61033	7	Sololá	710	Panajachel	8	Panajachel	9	Septiembre	2023-09-17T00:00:00	2024-11-08T14:00:00	6	Velocidad del viento	4.8
61034	7	Sololá	710	Panajachel	8	Panajachel	9	Septiembre	2023-09-17T00:00:00	2024-11-08T14:00:00	7	Dirección del viento	4.83
61035	7	Sololá	710	Panajachel	8	Panajachel	9	Septiembre	2023-09-17T00:00:00	2024-11-08T14:00:00	1	Precipitación	0
61036	7	Sololá	710	Panajachel	8	Panajachel	9	Septiembre	2023-09-17T00:00:00	2024-11-08T14:00:00	8	Radiación solar	853
61037	7	Sololá	710	Panajachel	8	Panajachel	9	Septiembre	2023-09-17T00:00:00	2024-11-08T15:00:00	2	Temperatura media	25.8
61038	7	Sololá	710	Panajachel	8	Panajachel	9	Septiembre	2023-09-17T00:00:00	2024-11-08T15:00:00	4	Temperatura máxima	25.8
61039	7	Sololá	710	Panajachel	8	Panajachel	9	Septiembre	2023-09-17T00:00:00	2024-11-08T15:00:00	3	Temperatura mínima	25.2
61040	7	Sololá	710	Panajachel	8	Panajachel	9	Septiembre	2023-09-17T00:00:00	2024-11-08T15:00:00	5	Humedad	70
61041	7	Sololá	710	Panajachel	8	Panajachel	9	Septiembre	2023-09-17T00:00:00	2024-11-08T15:00:00	6	Velocidad del viento	3.2
61042	7	Sololá	710	Panajachel	8	Panajachel	9	Septiembre	2023-09-17T00:00:00	2024-11-08T15:00:00	7	Dirección del viento	3.22
61043	7	Sololá	710	Panajachel	8	Panajachel	9	Septiembre	2023-09-17T00:00:00	2024-11-08T15:00:00	1	Precipitación	0
61044	7	Sololá	710	Panajachel	8	Panajachel	9	Septiembre	2023-09-17T00:00:00	2024-11-08T15:00:00	8	Radiación solar	739
61045	7	Sololá	710	Panajachel	8	Panajachel	9	Septiembre	2023-09-17T00:00:00	2024-11-08T16:00:00	2	Temperatura media	25.3
61046	7	Sololá	710	Panajachel	8	Panajachel	9	Septiembre	2023-09-17T00:00:00	2024-11-08T16:00:00	4	Temperatura máxima	25.8
61047	7	Sololá	710	Panajachel	8	Panajachel	9	Septiembre	2023-09-17T00:00:00	2024-11-08T16:00:00	3	Temperatura mínima	24.9
61048	7	Sololá	710	Panajachel	8	Panajachel	9	Septiembre	2023-09-17T00:00:00	2024-11-08T16:00:00	5	Humedad	73
61049	7	Sololá	710	Panajachel	8	Panajachel	9	Septiembre	2023-09-17T00:00:00	2024-11-08T16:00:00	6	Velocidad del viento	3.2
61050	7	Sololá	710	Panajachel	8	Panajachel	9	Septiembre	2023-09-17T00:00:00	2024-11-08T16:00:00	7	Dirección del viento	3.22
61051	7	Sololá	710	Panajachel	8	Panajachel	9	Septiembre	2023-09-17T00:00:00	2024-11-08T16:00:00	1	Precipitación	0
61052	7	Sololá	710	Panajachel	8	Panajachel	9	Septiembre	2023-09-17T00:00:00	2024-11-08T16:00:00	8	Radiación solar	491
61053	7	Sololá	710	Panajachel	8	Panajachel	9	Septiembre	2023-09-17T00:00:00	2024-11-08T17:00:00	2	Temperatura media	24.3
61054	7	Sololá	710	Panajachel	8	Panajachel	9	Septiembre	2023-09-17T00:00:00	2024-11-08T17:00:00	4	Temperatura máxima	25.7
61055	7	Sololá	710	Panajachel	8	Panajachel	9	Septiembre	2023-09-17T00:00:00	2024-11-08T17:00:00	3	Temperatura mínima	24.3
61056	7	Sololá	710	Panajachel	8	Panajachel	9	Septiembre	2023-09-17T00:00:00	2024-11-08T17:00:00	5	Humedad	80
61057	7	Sololá	710	Panajachel	8	Panajachel	9	Septiembre	2023-09-17T00:00:00	2024-11-08T17:00:00	6	Velocidad del viento	1.6
61058	7	Sololá	710	Panajachel	8	Panajachel	9	Septiembre	2023-09-17T00:00:00	2024-11-08T17:00:00	7	Dirección del viento	1.61
61059	7	Sololá	710	Panajachel	8	Panajachel	9	Septiembre	2023-09-17T00:00:00	2024-11-08T17:00:00	1	Precipitación	0
61060	7	Sololá	710	Panajachel	8	Panajachel	9	Septiembre	2023-09-17T00:00:00	2024-11-08T17:00:00	8	Radiación solar	121
61061	7	Sololá	710	Panajachel	8	Panajachel	9	Septiembre	2023-09-17T00:00:00	2024-11-08T18:00:00	2	Temperatura media	22.6
61062	7	Sololá	710	Panajachel	8	Panajachel	9	Septiembre	2023-09-17T00:00:00	2024-11-08T18:00:00	4	Temperatura máxima	24.3
61063	7	Sololá	710	Panajachel	8	Panajachel	9	Septiembre	2023-09-17T00:00:00	2024-11-08T18:00:00	3	Temperatura mínima	22.6
61064	7	Sololá	710	Panajachel	8	Panajachel	9	Septiembre	2023-09-17T00:00:00	2024-11-08T18:00:00	5	Humedad	87
61065	7	Sololá	710	Panajachel	8	Panajachel	9	Septiembre	2023-09-17T00:00:00	2024-11-08T18:00:00	6	Velocidad del viento	3.2
61066	7	Sololá	710	Panajachel	8	Panajachel	9	Septiembre	2023-09-17T00:00:00	2024-11-08T18:00:00	7	Dirección del viento	3.22
61067	7	Sololá	710	Panajachel	8	Panajachel	9	Septiembre	2023-09-17T00:00:00	2024-11-08T18:00:00	1	Precipitación	0
61068	7	Sololá	710	Panajachel	8	Panajachel	9	Septiembre	2023-09-17T00:00:00	2024-11-08T18:00:00	8	Radiación solar	24
61069	7	Sololá	710	Panajachel	8	Panajachel	9	Septiembre	2023-09-17T00:00:00	2024-11-08T19:00:00	2	Temperatura media	21.9
61070	7	Sololá	710	Panajachel	8	Panajachel	9	Septiembre	2023-09-17T00:00:00	2024-11-08T19:00:00	4	Temperatura máxima	22.6
61071	7	Sololá	710	Panajachel	8	Panajachel	9	Septiembre	2023-09-17T00:00:00	2024-11-08T19:00:00	3	Temperatura mínima	21.9
61072	7	Sololá	710	Panajachel	8	Panajachel	9	Septiembre	2023-09-17T00:00:00	2024-11-08T19:00:00	5	Humedad	88
61073	7	Sololá	710	Panajachel	8	Panajachel	9	Septiembre	2023-09-17T00:00:00	2024-11-08T19:00:00	6	Velocidad del viento	1.6
61074	7	Sololá	710	Panajachel	8	Panajachel	9	Septiembre	2023-09-17T00:00:00	2024-11-08T19:00:00	7	Dirección del viento	1.61
61075	7	Sololá	710	Panajachel	8	Panajachel	9	Septiembre	2023-09-17T00:00:00	2024-11-08T19:00:00	1	Precipitación	0
61076	7	Sololá	710	Panajachel	8	Panajachel	9	Septiembre	2023-09-17T00:00:00	2024-11-08T19:00:00	8	Radiación solar	0
61077	7	Sololá	710	Panajachel	8	Panajachel	9	Septiembre	2023-09-17T00:00:00	2024-11-08T20:00:00	2	Temperatura media	21.6
61078	7	Sololá	710	Panajachel	8	Panajachel	9	Septiembre	2023-09-17T00:00:00	2024-11-08T20:00:00	4	Temperatura máxima	21.9
61079	7	Sololá	710	Panajachel	8	Panajachel	9	Septiembre	2023-09-17T00:00:00	2024-11-08T20:00:00	3	Temperatura mínima	21.6
61080	7	Sololá	710	Panajachel	8	Panajachel	9	Septiembre	2023-09-17T00:00:00	2024-11-08T20:00:00	5	Humedad	88
61081	7	Sololá	710	Panajachel	8	Panajachel	9	Septiembre	2023-09-17T00:00:00	2024-11-08T20:00:00	6	Velocidad del viento	1.6
61082	7	Sololá	710	Panajachel	8	Panajachel	9	Septiembre	2023-09-17T00:00:00	2024-11-08T20:00:00	7	Dirección del viento	1.61
61083	7	Sololá	710	Panajachel	8	Panajachel	9	Septiembre	2023-09-17T00:00:00	2024-11-08T20:00:00	1	Precipitación	0
61084	7	Sololá	710	Panajachel	8	Panajachel	9	Septiembre	2023-09-17T00:00:00	2024-11-08T20:00:00	8	Radiación solar	0
61085	7	Sololá	710	Panajachel	8	Panajachel	9	Septiembre	2023-09-17T00:00:00	2024-11-08T21:00:00	2	Temperatura media	20.8
61086	7	Sololá	710	Panajachel	8	Panajachel	9	Septiembre	2023-09-17T00:00:00	2024-11-08T21:00:00	4	Temperatura máxima	21.6
61087	7	Sololá	710	Panajachel	8	Panajachel	9	Septiembre	2023-09-17T00:00:00	2024-11-08T21:00:00	3	Temperatura mínima	20.8
61088	7	Sololá	710	Panajachel	8	Panajachel	9	Septiembre	2023-09-17T00:00:00	2024-11-08T21:00:00	5	Humedad	85
61089	7	Sololá	710	Panajachel	8	Panajachel	9	Septiembre	2023-09-17T00:00:00	2024-11-08T21:00:00	6	Velocidad del viento	1.6
61090	7	Sololá	710	Panajachel	8	Panajachel	9	Septiembre	2023-09-17T00:00:00	2024-11-08T21:00:00	7	Dirección del viento	1.61
61091	7	Sololá	710	Panajachel	8	Panajachel	9	Septiembre	2023-09-17T00:00:00	2024-11-08T21:00:00	1	Precipitación	0
61092	7	Sololá	710	Panajachel	8	Panajachel	9	Septiembre	2023-09-17T00:00:00	2024-11-08T21:00:00	8	Radiación solar	0
61093	7	Sololá	710	Panajachel	8	Panajachel	9	Septiembre	2023-09-17T00:00:00	2024-11-08T22:00:00	2	Temperatura media	20
61094	7	Sololá	710	Panajachel	8	Panajachel	9	Septiembre	2023-09-17T00:00:00	2024-11-08T22:00:00	4	Temperatura máxima	20.9
61095	7	Sololá	710	Panajachel	8	Panajachel	9	Septiembre	2023-09-17T00:00:00	2024-11-08T22:00:00	3	Temperatura mínima	20
61096	7	Sololá	710	Panajachel	8	Panajachel	9	Septiembre	2023-09-17T00:00:00	2024-11-08T22:00:00	5	Humedad	93
61097	7	Sololá	710	Panajachel	8	Panajachel	9	Septiembre	2023-09-17T00:00:00	2024-11-08T22:00:00	6	Velocidad del viento	1.6
61098	7	Sololá	710	Panajachel	8	Panajachel	9	Septiembre	2023-09-17T00:00:00	2024-11-08T22:00:00	7	Dirección del viento	1.61
61099	7	Sololá	710	Panajachel	8	Panajachel	9	Septiembre	2023-09-17T00:00:00	2024-11-08T22:00:00	1	Precipitación	2
61100	7	Sololá	710	Panajachel	8	Panajachel	9	Septiembre	2023-09-17T00:00:00	2024-11-08T22:00:00	8	Radiación solar	0
61101	7	Sololá	710	Panajachel	8	Panajachel	9	Septiembre	2023-09-17T00:00:00	2024-11-08T23:00:00	2	Temperatura media	19.3
61102	7	Sololá	710	Panajachel	8	Panajachel	9	Septiembre	2023-09-17T00:00:00	2024-11-08T23:00:00	4	Temperatura máxima	20
61103	7	Sololá	710	Panajachel	8	Panajachel	9	Septiembre	2023-09-17T00:00:00	2024-11-08T23:00:00	3	Temperatura mínima	19.3
61104	7	Sololá	710	Panajachel	8	Panajachel	9	Septiembre	2023-09-17T00:00:00	2024-11-08T23:00:00	5	Humedad	95
61105	7	Sololá	710	Panajachel	8	Panajachel	9	Septiembre	2023-09-17T00:00:00	2024-11-08T23:00:00	6	Velocidad del viento	1.6
61106	7	Sololá	710	Panajachel	8	Panajachel	9	Septiembre	2023-09-17T00:00:00	2024-11-08T23:00:00	7	Dirección del viento	1.61
61107	7	Sololá	710	Panajachel	8	Panajachel	9	Septiembre	2023-09-17T00:00:00	2024-11-08T23:00:00	1	Precipitación	1.6
61108	7	Sololá	710	Panajachel	8	Panajachel	9	Septiembre	2023-09-17T00:00:00	2024-11-08T23:00:00	8	Radiación solar	0
61109	7	Sololá	710	Panajachel	8	Panajachel	9	Septiembre	2023-09-18T00:00:00	2024-11-08T00:00:00	2	Temperatura media	18.6
61110	7	Sololá	710	Panajachel	8	Panajachel	9	Septiembre	2023-09-18T00:00:00	2024-11-08T00:00:00	4	Temperatura máxima	19.4
61111	7	Sololá	710	Panajachel	8	Panajachel	9	Septiembre	2023-09-18T00:00:00	2024-11-08T00:00:00	3	Temperatura mínima	18.4
61112	7	Sololá	710	Panajachel	8	Panajachel	9	Septiembre	2023-09-18T00:00:00	2024-11-08T00:00:00	5	Humedad	95
61113	7	Sololá	710	Panajachel	8	Panajachel	9	Septiembre	2023-09-18T00:00:00	2024-11-08T00:00:00	6	Velocidad del viento	8
61114	7	Sololá	710	Panajachel	8	Panajachel	9	Septiembre	2023-09-18T00:00:00	2024-11-08T00:00:00	7	Dirección del viento	8.05
61115	7	Sololá	710	Panajachel	8	Panajachel	9	Septiembre	2023-09-18T00:00:00	2024-11-08T00:00:00	1	Precipitación	2.2
61116	7	Sololá	710	Panajachel	8	Panajachel	9	Septiembre	2023-09-18T00:00:00	2024-11-08T00:00:00	8	Radiación solar	0
61117	7	Sololá	710	Panajachel	8	Panajachel	9	Septiembre	2023-09-18T00:00:00	2024-11-08T01:00:00	2	Temperatura media	18.1
61118	7	Sololá	710	Panajachel	8	Panajachel	9	Septiembre	2023-09-18T00:00:00	2024-11-08T01:00:00	4	Temperatura máxima	18.6
61119	7	Sololá	710	Panajachel	8	Panajachel	9	Septiembre	2023-09-18T00:00:00	2024-11-08T01:00:00	3	Temperatura mínima	17.9
61120	7	Sololá	710	Panajachel	8	Panajachel	9	Septiembre	2023-09-18T00:00:00	2024-11-08T01:00:00	5	Humedad	90
61121	7	Sololá	710	Panajachel	8	Panajachel	9	Septiembre	2023-09-18T00:00:00	2024-11-08T01:00:00	6	Velocidad del viento	1.6
61122	7	Sololá	710	Panajachel	8	Panajachel	9	Septiembre	2023-09-18T00:00:00	2024-11-08T01:00:00	7	Dirección del viento	1.61
61123	7	Sololá	710	Panajachel	8	Panajachel	9	Septiembre	2023-09-18T00:00:00	2024-11-08T01:00:00	1	Precipitación	0
61124	7	Sololá	710	Panajachel	8	Panajachel	9	Septiembre	2023-09-18T00:00:00	2024-11-08T01:00:00	8	Radiación solar	0
61125	7	Sololá	710	Panajachel	8	Panajachel	9	Septiembre	2023-09-18T00:00:00	2024-11-08T02:00:00	2	Temperatura media	17.3
61126	7	Sololá	710	Panajachel	8	Panajachel	9	Septiembre	2023-09-18T00:00:00	2024-11-08T02:00:00	4	Temperatura máxima	18.4
61127	7	Sololá	710	Panajachel	8	Panajachel	9	Septiembre	2023-09-18T00:00:00	2024-11-08T02:00:00	3	Temperatura mínima	17.2
61128	7	Sololá	710	Panajachel	8	Panajachel	9	Septiembre	2023-09-18T00:00:00	2024-11-08T02:00:00	5	Humedad	90
61129	7	Sololá	710	Panajachel	8	Panajachel	9	Septiembre	2023-09-18T00:00:00	2024-11-08T02:00:00	6	Velocidad del viento	1.6
61130	7	Sololá	710	Panajachel	8	Panajachel	9	Septiembre	2023-09-18T00:00:00	2024-11-08T02:00:00	7	Dirección del viento	1.61
61131	7	Sololá	710	Panajachel	8	Panajachel	9	Septiembre	2023-09-18T00:00:00	2024-11-08T02:00:00	1	Precipitación	0
61132	7	Sololá	710	Panajachel	8	Panajachel	9	Septiembre	2023-09-18T00:00:00	2024-11-08T02:00:00	8	Radiación solar	0
61133	7	Sololá	710	Panajachel	8	Panajachel	9	Septiembre	2023-09-18T00:00:00	2024-11-08T03:00:00	2	Temperatura media	16.9
61134	7	Sololá	710	Panajachel	8	Panajachel	9	Septiembre	2023-09-18T00:00:00	2024-11-08T03:00:00	4	Temperatura máxima	17.4
61135	7	Sololá	710	Panajachel	8	Panajachel	9	Septiembre	2023-09-18T00:00:00	2024-11-08T03:00:00	3	Temperatura mínima	16.6
61136	7	Sololá	710	Panajachel	8	Panajachel	9	Septiembre	2023-09-18T00:00:00	2024-11-08T03:00:00	5	Humedad	92
61137	7	Sololá	710	Panajachel	8	Panajachel	9	Septiembre	2023-09-18T00:00:00	2024-11-08T03:00:00	6	Velocidad del viento	1.6
61138	7	Sololá	710	Panajachel	8	Panajachel	9	Septiembre	2023-09-18T00:00:00	2024-11-08T03:00:00	7	Dirección del viento	1.61
61139	7	Sololá	710	Panajachel	8	Panajachel	9	Septiembre	2023-09-18T00:00:00	2024-11-08T03:00:00	1	Precipitación	0
61140	7	Sololá	710	Panajachel	8	Panajachel	9	Septiembre	2023-09-18T00:00:00	2024-11-08T03:00:00	8	Radiación solar	0
61141	7	Sololá	710	Panajachel	8	Panajachel	9	Septiembre	2023-09-18T00:00:00	2024-11-08T04:00:00	2	Temperatura media	17.6
61142	7	Sololá	710	Panajachel	8	Panajachel	9	Septiembre	2023-09-18T00:00:00	2024-11-08T04:00:00	4	Temperatura máxima	17.6
61143	7	Sololá	710	Panajachel	8	Panajachel	9	Septiembre	2023-09-18T00:00:00	2024-11-08T04:00:00	3	Temperatura mínima	16.9
61144	7	Sololá	710	Panajachel	8	Panajachel	9	Septiembre	2023-09-18T00:00:00	2024-11-08T04:00:00	5	Humedad	84
61145	7	Sololá	710	Panajachel	8	Panajachel	9	Septiembre	2023-09-18T00:00:00	2024-11-08T04:00:00	6	Velocidad del viento	3.2
61146	7	Sololá	710	Panajachel	8	Panajachel	9	Septiembre	2023-09-18T00:00:00	2024-11-08T04:00:00	7	Dirección del viento	3.22
61147	7	Sololá	710	Panajachel	8	Panajachel	9	Septiembre	2023-09-18T00:00:00	2024-11-08T04:00:00	1	Precipitación	0
61148	7	Sololá	710	Panajachel	8	Panajachel	9	Septiembre	2023-09-18T00:00:00	2024-11-08T04:00:00	8	Radiación solar	0
61149	7	Sololá	710	Panajachel	8	Panajachel	9	Septiembre	2023-09-18T00:00:00	2024-11-08T05:00:00	2	Temperatura media	18.7
61150	7	Sololá	710	Panajachel	8	Panajachel	9	Septiembre	2023-09-18T00:00:00	2024-11-08T05:00:00	4	Temperatura máxima	18.9
61151	7	Sololá	710	Panajachel	8	Panajachel	9	Septiembre	2023-09-18T00:00:00	2024-11-08T05:00:00	3	Temperatura mínima	17.4
61152	7	Sololá	710	Panajachel	8	Panajachel	9	Septiembre	2023-09-18T00:00:00	2024-11-08T05:00:00	5	Humedad	76
61153	7	Sololá	710	Panajachel	8	Panajachel	9	Septiembre	2023-09-18T00:00:00	2024-11-08T05:00:00	6	Velocidad del viento	6.4
61154	7	Sololá	710	Panajachel	8	Panajachel	9	Septiembre	2023-09-18T00:00:00	2024-11-08T05:00:00	7	Dirección del viento	6.44
61155	7	Sololá	710	Panajachel	8	Panajachel	9	Septiembre	2023-09-18T00:00:00	2024-11-08T05:00:00	1	Precipitación	0
61156	7	Sololá	710	Panajachel	8	Panajachel	9	Septiembre	2023-09-18T00:00:00	2024-11-08T05:00:00	8	Radiación solar	0
61157	7	Sololá	710	Panajachel	8	Panajachel	9	Septiembre	2023-09-18T00:00:00	2024-11-08T06:00:00	2	Temperatura media	18.7
61158	7	Sololá	710	Panajachel	8	Panajachel	9	Septiembre	2023-09-18T00:00:00	2024-11-08T06:00:00	4	Temperatura máxima	18.9
61159	7	Sololá	710	Panajachel	8	Panajachel	9	Septiembre	2023-09-18T00:00:00	2024-11-08T06:00:00	3	Temperatura mínima	17.4
61160	7	Sololá	710	Panajachel	8	Panajachel	9	Septiembre	2023-09-18T00:00:00	2024-11-08T06:00:00	5	Humedad	77
61161	7	Sololá	710	Panajachel	8	Panajachel	9	Septiembre	2023-09-18T00:00:00	2024-11-08T06:00:00	6	Velocidad del viento	4.8
61162	7	Sololá	710	Panajachel	8	Panajachel	9	Septiembre	2023-09-18T00:00:00	2024-11-08T06:00:00	7	Dirección del viento	4.83
61163	7	Sololá	710	Panajachel	8	Panajachel	9	Septiembre	2023-09-18T00:00:00	2024-11-08T06:00:00	1	Precipitación	0
61164	7	Sololá	710	Panajachel	8	Panajachel	9	Septiembre	2023-09-18T00:00:00	2024-11-08T06:00:00	8	Radiación solar	0
61165	7	Sololá	710	Panajachel	8	Panajachel	9	Septiembre	2023-09-18T00:00:00	2024-11-08T07:00:00	2	Temperatura media	19.1
61166	7	Sololá	710	Panajachel	8	Panajachel	9	Septiembre	2023-09-18T00:00:00	2024-11-08T07:00:00	4	Temperatura máxima	19.1
61167	7	Sololá	710	Panajachel	8	Panajachel	9	Septiembre	2023-09-18T00:00:00	2024-11-08T07:00:00	3	Temperatura mínima	18.6
61168	7	Sololá	710	Panajachel	8	Panajachel	9	Septiembre	2023-09-18T00:00:00	2024-11-08T07:00:00	5	Humedad	77
61169	7	Sololá	710	Panajachel	8	Panajachel	9	Septiembre	2023-09-18T00:00:00	2024-11-08T07:00:00	6	Velocidad del viento	3.2
61170	7	Sololá	710	Panajachel	8	Panajachel	9	Septiembre	2023-09-18T00:00:00	2024-11-08T07:00:00	7	Dirección del viento	3.22
61171	7	Sololá	710	Panajachel	8	Panajachel	9	Septiembre	2023-09-18T00:00:00	2024-11-08T07:00:00	1	Precipitación	0
61172	7	Sololá	710	Panajachel	8	Panajachel	9	Septiembre	2023-09-18T00:00:00	2024-11-08T07:00:00	8	Radiación solar	53
61173	7	Sololá	710	Panajachel	8	Panajachel	9	Septiembre	2023-09-18T00:00:00	2024-11-08T08:00:00	2	Temperatura media	20.6
61174	7	Sololá	710	Panajachel	8	Panajachel	9	Septiembre	2023-09-18T00:00:00	2024-11-08T08:00:00	4	Temperatura máxima	20.6
61175	7	Sololá	710	Panajachel	8	Panajachel	9	Septiembre	2023-09-18T00:00:00	2024-11-08T08:00:00	3	Temperatura mínima	19.1
61176	7	Sololá	710	Panajachel	8	Panajachel	9	Septiembre	2023-09-18T00:00:00	2024-11-08T08:00:00	5	Humedad	72
61177	7	Sololá	710	Panajachel	8	Panajachel	9	Septiembre	2023-09-18T00:00:00	2024-11-08T08:00:00	6	Velocidad del viento	3.2
61178	7	Sololá	710	Panajachel	8	Panajachel	9	Septiembre	2023-09-18T00:00:00	2024-11-08T08:00:00	7	Dirección del viento	3.22
61179	7	Sololá	710	Panajachel	8	Panajachel	9	Septiembre	2023-09-18T00:00:00	2024-11-08T08:00:00	1	Precipitación	0
61180	7	Sololá	710	Panajachel	8	Panajachel	9	Septiembre	2023-09-18T00:00:00	2024-11-08T08:00:00	8	Radiación solar	176
61181	7	Sololá	710	Panajachel	8	Panajachel	9	Septiembre	2023-09-18T00:00:00	2024-11-08T09:00:00	2	Temperatura media	23.4
61182	7	Sololá	710	Panajachel	8	Panajachel	9	Septiembre	2023-09-18T00:00:00	2024-11-08T09:00:00	4	Temperatura máxima	23.4
61183	7	Sololá	710	Panajachel	8	Panajachel	9	Septiembre	2023-09-18T00:00:00	2024-11-08T09:00:00	3	Temperatura mínima	20.7
61184	7	Sololá	710	Panajachel	8	Panajachel	9	Septiembre	2023-09-18T00:00:00	2024-11-08T09:00:00	5	Humedad	59
61185	7	Sololá	710	Panajachel	8	Panajachel	9	Septiembre	2023-09-18T00:00:00	2024-11-08T09:00:00	6	Velocidad del viento	6.4
61186	7	Sololá	710	Panajachel	8	Panajachel	9	Septiembre	2023-09-18T00:00:00	2024-11-08T09:00:00	7	Dirección del viento	6.44
61187	7	Sololá	710	Panajachel	8	Panajachel	9	Septiembre	2023-09-18T00:00:00	2024-11-08T09:00:00	1	Precipitación	0
61188	7	Sololá	710	Panajachel	8	Panajachel	9	Septiembre	2023-09-18T00:00:00	2024-11-08T09:00:00	8	Radiación solar	575
61189	7	Sololá	710	Panajachel	8	Panajachel	9	Septiembre	2023-09-18T00:00:00	2024-11-08T10:00:00	2	Temperatura media	24.6
61190	7	Sololá	710	Panajachel	8	Panajachel	9	Septiembre	2023-09-18T00:00:00	2024-11-08T10:00:00	4	Temperatura máxima	25
61191	7	Sololá	710	Panajachel	8	Panajachel	9	Septiembre	2023-09-18T00:00:00	2024-11-08T10:00:00	3	Temperatura mínima	23.4
61192	7	Sololá	710	Panajachel	8	Panajachel	9	Septiembre	2023-09-18T00:00:00	2024-11-08T10:00:00	5	Humedad	60
61193	7	Sololá	710	Panajachel	8	Panajachel	9	Septiembre	2023-09-18T00:00:00	2024-11-08T10:00:00	6	Velocidad del viento	3.2
61194	7	Sololá	710	Panajachel	8	Panajachel	9	Septiembre	2023-09-18T00:00:00	2024-11-08T10:00:00	7	Dirección del viento	3.22
61195	7	Sololá	710	Panajachel	8	Panajachel	9	Septiembre	2023-09-18T00:00:00	2024-11-08T10:00:00	1	Precipitación	0
61196	7	Sololá	710	Panajachel	8	Panajachel	9	Septiembre	2023-09-18T00:00:00	2024-11-08T10:00:00	8	Radiación solar	769
61197	7	Sololá	710	Panajachel	8	Panajachel	9	Septiembre	2023-09-18T00:00:00	2024-11-08T11:00:00	2	Temperatura media	24.8
61198	7	Sololá	710	Panajachel	8	Panajachel	9	Septiembre	2023-09-18T00:00:00	2024-11-08T11:00:00	4	Temperatura máxima	24.9
61199	7	Sololá	710	Panajachel	8	Panajachel	9	Septiembre	2023-09-18T00:00:00	2024-11-08T11:00:00	3	Temperatura mínima	24.2
61200	7	Sololá	710	Panajachel	8	Panajachel	9	Septiembre	2023-09-18T00:00:00	2024-11-08T11:00:00	5	Humedad	68
61201	7	Sololá	710	Panajachel	8	Panajachel	9	Septiembre	2023-09-18T00:00:00	2024-11-08T11:00:00	6	Velocidad del viento	3.2
61202	7	Sololá	710	Panajachel	8	Panajachel	9	Septiembre	2023-09-18T00:00:00	2024-11-08T11:00:00	7	Dirección del viento	3.22
61203	7	Sololá	710	Panajachel	8	Panajachel	9	Septiembre	2023-09-18T00:00:00	2024-11-08T11:00:00	1	Precipitación	0
61204	7	Sololá	710	Panajachel	8	Panajachel	9	Septiembre	2023-09-18T00:00:00	2024-11-08T11:00:00	8	Radiación solar	667
61205	7	Sololá	710	Panajachel	8	Panajachel	9	Septiembre	2023-09-18T00:00:00	2024-11-08T12:00:00	2	Temperatura media	24.4
61206	7	Sololá	710	Panajachel	8	Panajachel	9	Septiembre	2023-09-18T00:00:00	2024-11-08T12:00:00	4	Temperatura máxima	24.8
61207	7	Sololá	710	Panajachel	8	Panajachel	9	Septiembre	2023-09-18T00:00:00	2024-11-08T12:00:00	3	Temperatura mínima	24.1
61208	7	Sololá	710	Panajachel	8	Panajachel	9	Septiembre	2023-09-18T00:00:00	2024-11-08T12:00:00	5	Humedad	70
61209	7	Sololá	710	Panajachel	8	Panajachel	9	Septiembre	2023-09-18T00:00:00	2024-11-08T12:00:00	6	Velocidad del viento	4.8
61210	7	Sololá	710	Panajachel	8	Panajachel	9	Septiembre	2023-09-18T00:00:00	2024-11-08T12:00:00	7	Dirección del viento	4.83
61211	7	Sololá	710	Panajachel	8	Panajachel	9	Septiembre	2023-09-18T00:00:00	2024-11-08T12:00:00	1	Precipitación	0
61212	7	Sololá	710	Panajachel	8	Panajachel	9	Septiembre	2023-09-18T00:00:00	2024-11-08T12:00:00	8	Radiación solar	717
61213	7	Sololá	710	Panajachel	8	Panajachel	9	Septiembre	2023-09-18T00:00:00	2024-11-08T13:00:00	2	Temperatura media	22.2
61214	7	Sololá	710	Panajachel	8	Panajachel	9	Septiembre	2023-09-18T00:00:00	2024-11-08T13:00:00	4	Temperatura máxima	24.4
61215	7	Sololá	710	Panajachel	8	Panajachel	9	Septiembre	2023-09-18T00:00:00	2024-11-08T13:00:00	3	Temperatura mínima	22.2
61216	7	Sololá	710	Panajachel	8	Panajachel	9	Septiembre	2023-09-18T00:00:00	2024-11-08T13:00:00	5	Humedad	84
61217	7	Sololá	710	Panajachel	8	Panajachel	9	Septiembre	2023-09-18T00:00:00	2024-11-08T13:00:00	6	Velocidad del viento	4.8
61218	7	Sololá	710	Panajachel	8	Panajachel	9	Septiembre	2023-09-18T00:00:00	2024-11-08T13:00:00	7	Dirección del viento	4.83
61219	7	Sololá	710	Panajachel	8	Panajachel	9	Septiembre	2023-09-18T00:00:00	2024-11-08T13:00:00	1	Precipitación	0
61220	7	Sololá	710	Panajachel	8	Panajachel	9	Septiembre	2023-09-18T00:00:00	2024-11-08T13:00:00	8	Radiación solar	260
61221	7	Sololá	710	Panajachel	8	Panajachel	9	Septiembre	2023-09-18T00:00:00	2024-11-08T14:00:00	2	Temperatura media	22.9
61222	7	Sololá	710	Panajachel	8	Panajachel	9	Septiembre	2023-09-18T00:00:00	2024-11-08T14:00:00	4	Temperatura máxima	22.9
61223	7	Sololá	710	Panajachel	8	Panajachel	9	Septiembre	2023-09-18T00:00:00	2024-11-08T14:00:00	3	Temperatura mínima	21.9
61224	7	Sololá	710	Panajachel	8	Panajachel	9	Septiembre	2023-09-18T00:00:00	2024-11-08T14:00:00	5	Humedad	80
61225	7	Sololá	710	Panajachel	8	Panajachel	9	Septiembre	2023-09-18T00:00:00	2024-11-08T14:00:00	6	Velocidad del viento	1.6
61226	7	Sololá	710	Panajachel	8	Panajachel	9	Septiembre	2023-09-18T00:00:00	2024-11-08T14:00:00	7	Dirección del viento	1.61
61227	7	Sololá	710	Panajachel	8	Panajachel	9	Septiembre	2023-09-18T00:00:00	2024-11-08T14:00:00	1	Precipitación	0
61228	7	Sololá	710	Panajachel	8	Panajachel	9	Septiembre	2023-09-18T00:00:00	2024-11-08T14:00:00	8	Radiación solar	171
61229	7	Sololá	710	Panajachel	8	Panajachel	9	Septiembre	2023-09-18T00:00:00	2024-11-08T15:00:00	2	Temperatura media	23.2
61230	7	Sololá	710	Panajachel	8	Panajachel	9	Septiembre	2023-09-18T00:00:00	2024-11-08T15:00:00	4	Temperatura máxima	24.2
61231	7	Sololá	710	Panajachel	8	Panajachel	9	Septiembre	2023-09-18T00:00:00	2024-11-08T15:00:00	3	Temperatura mínima	22.8
61232	7	Sololá	710	Panajachel	8	Panajachel	9	Septiembre	2023-09-18T00:00:00	2024-11-08T15:00:00	5	Humedad	78
61233	7	Sololá	710	Panajachel	8	Panajachel	9	Septiembre	2023-09-18T00:00:00	2024-11-08T15:00:00	6	Velocidad del viento	3.2
61234	7	Sololá	710	Panajachel	8	Panajachel	9	Septiembre	2023-09-18T00:00:00	2024-11-08T15:00:00	7	Dirección del viento	3.22
61235	7	Sololá	710	Panajachel	8	Panajachel	9	Septiembre	2023-09-18T00:00:00	2024-11-08T15:00:00	1	Precipitación	0
61236	7	Sololá	710	Panajachel	8	Panajachel	9	Septiembre	2023-09-18T00:00:00	2024-11-08T15:00:00	8	Radiación solar	506
61237	7	Sololá	710	Panajachel	8	Panajachel	9	Septiembre	2023-09-18T00:00:00	2024-11-08T16:00:00	2	Temperatura media	22.5
61238	7	Sololá	710	Panajachel	8	Panajachel	9	Septiembre	2023-09-18T00:00:00	2024-11-08T16:00:00	4	Temperatura máxima	23.9
61239	7	Sololá	710	Panajachel	8	Panajachel	9	Septiembre	2023-09-18T00:00:00	2024-11-08T16:00:00	3	Temperatura mínima	22.5
61240	7	Sololá	710	Panajachel	8	Panajachel	9	Septiembre	2023-09-18T00:00:00	2024-11-08T16:00:00	5	Humedad	82
61241	7	Sololá	710	Panajachel	8	Panajachel	9	Septiembre	2023-09-18T00:00:00	2024-11-08T16:00:00	6	Velocidad del viento	3.2
61242	7	Sololá	710	Panajachel	8	Panajachel	9	Septiembre	2023-09-18T00:00:00	2024-11-08T16:00:00	7	Dirección del viento	3.22
61243	7	Sololá	710	Panajachel	8	Panajachel	9	Septiembre	2023-09-18T00:00:00	2024-11-08T16:00:00	1	Precipitación	0
61244	7	Sololá	710	Panajachel	8	Panajachel	9	Septiembre	2023-09-18T00:00:00	2024-11-08T16:00:00	8	Radiación solar	233
61245	7	Sololá	710	Panajachel	8	Panajachel	9	Septiembre	2023-09-18T00:00:00	2024-11-08T17:00:00	2	Temperatura media	21.5
61246	7	Sololá	710	Panajachel	8	Panajachel	9	Septiembre	2023-09-18T00:00:00	2024-11-08T17:00:00	4	Temperatura máxima	22.5
61247	7	Sololá	710	Panajachel	8	Panajachel	9	Septiembre	2023-09-18T00:00:00	2024-11-08T17:00:00	3	Temperatura mínima	21.5
61248	7	Sololá	710	Panajachel	8	Panajachel	9	Septiembre	2023-09-18T00:00:00	2024-11-08T17:00:00	5	Humedad	89
61249	7	Sololá	710	Panajachel	8	Panajachel	9	Septiembre	2023-09-18T00:00:00	2024-11-08T17:00:00	6	Velocidad del viento	3.2
61250	7	Sololá	710	Panajachel	8	Panajachel	9	Septiembre	2023-09-18T00:00:00	2024-11-08T17:00:00	7	Dirección del viento	3.22
61251	7	Sololá	710	Panajachel	8	Panajachel	9	Septiembre	2023-09-18T00:00:00	2024-11-08T17:00:00	1	Precipitación	0
61252	7	Sololá	710	Panajachel	8	Panajachel	9	Septiembre	2023-09-18T00:00:00	2024-11-08T17:00:00	8	Radiación solar	47
61253	7	Sololá	710	Panajachel	8	Panajachel	9	Septiembre	2023-09-18T00:00:00	2024-11-08T18:00:00	2	Temperatura media	20
61254	7	Sololá	710	Panajachel	8	Panajachel	9	Septiembre	2023-09-18T00:00:00	2024-11-08T18:00:00	4	Temperatura máxima	21.5
61255	7	Sololá	710	Panajachel	8	Panajachel	9	Septiembre	2023-09-18T00:00:00	2024-11-08T18:00:00	3	Temperatura mínima	20
61256	7	Sololá	710	Panajachel	8	Panajachel	9	Septiembre	2023-09-18T00:00:00	2024-11-08T18:00:00	5	Humedad	91
61257	7	Sololá	710	Panajachel	8	Panajachel	9	Septiembre	2023-09-18T00:00:00	2024-11-08T18:00:00	6	Velocidad del viento	3.2
61258	7	Sololá	710	Panajachel	8	Panajachel	9	Septiembre	2023-09-18T00:00:00	2024-11-08T18:00:00	7	Dirección del viento	3.22
61259	7	Sololá	710	Panajachel	8	Panajachel	9	Septiembre	2023-09-18T00:00:00	2024-11-08T18:00:00	1	Precipitación	0
61260	7	Sololá	710	Panajachel	8	Panajachel	9	Septiembre	2023-09-18T00:00:00	2024-11-08T18:00:00	8	Radiación solar	12
61261	7	Sololá	710	Panajachel	8	Panajachel	9	Septiembre	2023-09-18T00:00:00	2024-11-08T19:00:00	2	Temperatura media	19.9
61262	7	Sololá	710	Panajachel	8	Panajachel	9	Septiembre	2023-09-18T00:00:00	2024-11-08T19:00:00	4	Temperatura máxima	20.1
61263	7	Sololá	710	Panajachel	8	Panajachel	9	Septiembre	2023-09-18T00:00:00	2024-11-08T19:00:00	3	Temperatura mínima	19.9
61264	7	Sololá	710	Panajachel	8	Panajachel	9	Septiembre	2023-09-18T00:00:00	2024-11-08T19:00:00	5	Humedad	90
61265	7	Sololá	710	Panajachel	8	Panajachel	9	Septiembre	2023-09-18T00:00:00	2024-11-08T19:00:00	6	Velocidad del viento	3.2
61266	7	Sololá	710	Panajachel	8	Panajachel	9	Septiembre	2023-09-18T00:00:00	2024-11-08T19:00:00	7	Dirección del viento	3.22
61267	7	Sololá	710	Panajachel	8	Panajachel	9	Septiembre	2023-09-18T00:00:00	2024-11-08T19:00:00	1	Precipitación	0
61268	7	Sololá	710	Panajachel	8	Panajachel	9	Septiembre	2023-09-18T00:00:00	2024-11-08T19:00:00	8	Radiación solar	0
61269	7	Sololá	710	Panajachel	8	Panajachel	9	Septiembre	2023-09-18T00:00:00	2024-11-08T20:00:00	2	Temperatura media	19.9
61270	7	Sololá	710	Panajachel	8	Panajachel	9	Septiembre	2023-09-18T00:00:00	2024-11-08T20:00:00	4	Temperatura máxima	19.9
61271	7	Sololá	710	Panajachel	8	Panajachel	9	Septiembre	2023-09-18T00:00:00	2024-11-08T20:00:00	3	Temperatura mínima	19.8
61272	7	Sololá	710	Panajachel	8	Panajachel	9	Septiembre	2023-09-18T00:00:00	2024-11-08T20:00:00	5	Humedad	90
61273	7	Sololá	710	Panajachel	8	Panajachel	9	Septiembre	2023-09-18T00:00:00	2024-11-08T20:00:00	6	Velocidad del viento	0
61274	7	Sololá	710	Panajachel	8	Panajachel	9	Septiembre	2023-09-18T00:00:00	2024-11-08T20:00:00	7	Dirección del viento	0
61275	7	Sololá	710	Panajachel	8	Panajachel	9	Septiembre	2023-09-18T00:00:00	2024-11-08T20:00:00	1	Precipitación	0
61276	7	Sololá	710	Panajachel	8	Panajachel	9	Septiembre	2023-09-18T00:00:00	2024-11-08T20:00:00	8	Radiación solar	0
61277	7	Sololá	710	Panajachel	8	Panajachel	9	Septiembre	2023-09-18T00:00:00	2024-11-08T21:00:00	2	Temperatura media	19.1
61278	7	Sololá	710	Panajachel	8	Panajachel	9	Septiembre	2023-09-18T00:00:00	2024-11-08T21:00:00	4	Temperatura máxima	19.9
61279	7	Sololá	710	Panajachel	8	Panajachel	9	Septiembre	2023-09-18T00:00:00	2024-11-08T21:00:00	3	Temperatura mínima	19.1
61280	7	Sololá	710	Panajachel	8	Panajachel	9	Septiembre	2023-09-18T00:00:00	2024-11-08T21:00:00	5	Humedad	92
61281	7	Sololá	710	Panajachel	8	Panajachel	9	Septiembre	2023-09-18T00:00:00	2024-11-08T21:00:00	6	Velocidad del viento	0
61282	7	Sololá	710	Panajachel	8	Panajachel	9	Septiembre	2023-09-18T00:00:00	2024-11-08T21:00:00	7	Dirección del viento	0
61283	7	Sololá	710	Panajachel	8	Panajachel	9	Septiembre	2023-09-18T00:00:00	2024-11-08T21:00:00	1	Precipitación	0
61284	7	Sololá	710	Panajachel	8	Panajachel	9	Septiembre	2023-09-18T00:00:00	2024-11-08T21:00:00	8	Radiación solar	0
61285	7	Sololá	710	Panajachel	8	Panajachel	9	Septiembre	2023-09-18T00:00:00	2024-11-08T22:00:00	2	Temperatura media	18.5
61286	7	Sololá	710	Panajachel	8	Panajachel	9	Septiembre	2023-09-18T00:00:00	2024-11-08T22:00:00	4	Temperatura máxima	19.1
61287	7	Sololá	710	Panajachel	8	Panajachel	9	Septiembre	2023-09-18T00:00:00	2024-11-08T22:00:00	3	Temperatura mínima	18.2
61288	7	Sololá	710	Panajachel	8	Panajachel	9	Septiembre	2023-09-18T00:00:00	2024-11-08T22:00:00	5	Humedad	83
61289	7	Sololá	710	Panajachel	8	Panajachel	9	Septiembre	2023-09-18T00:00:00	2024-11-08T22:00:00	6	Velocidad del viento	1.6
61290	7	Sololá	710	Panajachel	8	Panajachel	9	Septiembre	2023-09-18T00:00:00	2024-11-08T22:00:00	7	Dirección del viento	1.61
61291	7	Sololá	710	Panajachel	8	Panajachel	9	Septiembre	2023-09-18T00:00:00	2024-11-08T22:00:00	1	Precipitación	0
61292	7	Sololá	710	Panajachel	8	Panajachel	9	Septiembre	2023-09-18T00:00:00	2024-11-08T22:00:00	8	Radiación solar	0
61293	7	Sololá	710	Panajachel	8	Panajachel	9	Septiembre	2023-09-18T00:00:00	2024-11-08T23:00:00	2	Temperatura media	18.1
61294	7	Sololá	710	Panajachel	8	Panajachel	9	Septiembre	2023-09-18T00:00:00	2024-11-08T23:00:00	4	Temperatura máxima	18.8
61295	7	Sololá	710	Panajachel	8	Panajachel	9	Septiembre	2023-09-18T00:00:00	2024-11-08T23:00:00	3	Temperatura mínima	18
61296	7	Sololá	710	Panajachel	8	Panajachel	9	Septiembre	2023-09-18T00:00:00	2024-11-08T23:00:00	5	Humedad	85
61297	7	Sololá	710	Panajachel	8	Panajachel	9	Septiembre	2023-09-18T00:00:00	2024-11-08T23:00:00	6	Velocidad del viento	3.2
61298	7	Sololá	710	Panajachel	8	Panajachel	9	Septiembre	2023-09-18T00:00:00	2024-11-08T23:00:00	7	Dirección del viento	3.22
61299	7	Sololá	710	Panajachel	8	Panajachel	9	Septiembre	2023-09-18T00:00:00	2024-11-08T23:00:00	1	Precipitación	0
61300	7	Sololá	710	Panajachel	8	Panajachel	9	Septiembre	2023-09-18T00:00:00	2024-11-08T23:00:00	8	Radiación solar	0
61301	7	Sololá	710	Panajachel	8	Panajachel	9	Septiembre	2023-09-19T00:00:00	2024-11-08T00:00:00	2	Temperatura media	17.4
61302	7	Sololá	710	Panajachel	8	Panajachel	9	Septiembre	2023-09-19T00:00:00	2024-11-08T00:00:00	4	Temperatura máxima	18.1
61303	7	Sololá	710	Panajachel	8	Panajachel	9	Septiembre	2023-09-19T00:00:00	2024-11-08T00:00:00	3	Temperatura mínima	17.3
61304	7	Sololá	710	Panajachel	8	Panajachel	9	Septiembre	2023-09-19T00:00:00	2024-11-08T00:00:00	5	Humedad	86
61305	7	Sololá	710	Panajachel	8	Panajachel	9	Septiembre	2023-09-19T00:00:00	2024-11-08T00:00:00	6	Velocidad del viento	3.2
61306	7	Sololá	710	Panajachel	8	Panajachel	9	Septiembre	2023-09-19T00:00:00	2024-11-08T00:00:00	7	Dirección del viento	3.22
61307	7	Sololá	710	Panajachel	8	Panajachel	9	Septiembre	2023-09-19T00:00:00	2024-11-08T00:00:00	1	Precipitación	0
61308	7	Sololá	710	Panajachel	8	Panajachel	9	Septiembre	2023-09-19T00:00:00	2024-11-08T00:00:00	8	Radiación solar	0
61309	7	Sololá	710	Panajachel	8	Panajachel	9	Septiembre	2023-09-19T00:00:00	2024-11-08T01:00:00	2	Temperatura media	17.2
61310	7	Sololá	710	Panajachel	8	Panajachel	9	Septiembre	2023-09-19T00:00:00	2024-11-08T01:00:00	4	Temperatura máxima	17.4
61311	7	Sololá	710	Panajachel	8	Panajachel	9	Septiembre	2023-09-19T00:00:00	2024-11-08T01:00:00	3	Temperatura mínima	17.1
61312	7	Sololá	710	Panajachel	8	Panajachel	9	Septiembre	2023-09-19T00:00:00	2024-11-08T01:00:00	5	Humedad	86
61313	7	Sololá	710	Panajachel	8	Panajachel	9	Septiembre	2023-09-19T00:00:00	2024-11-08T01:00:00	6	Velocidad del viento	3.2
61314	7	Sololá	710	Panajachel	8	Panajachel	9	Septiembre	2023-09-19T00:00:00	2024-11-08T01:00:00	7	Dirección del viento	3.22
61315	7	Sololá	710	Panajachel	8	Panajachel	9	Septiembre	2023-09-19T00:00:00	2024-11-08T01:00:00	1	Precipitación	0
61316	7	Sololá	710	Panajachel	8	Panajachel	9	Septiembre	2023-09-19T00:00:00	2024-11-08T01:00:00	8	Radiación solar	0
61317	7	Sololá	710	Panajachel	8	Panajachel	9	Septiembre	2023-09-19T00:00:00	2024-11-08T02:00:00	2	Temperatura media	17.2
61318	7	Sololá	710	Panajachel	8	Panajachel	9	Septiembre	2023-09-19T00:00:00	2024-11-08T02:00:00	4	Temperatura máxima	17.6
61319	7	Sololá	710	Panajachel	8	Panajachel	9	Septiembre	2023-09-19T00:00:00	2024-11-08T02:00:00	3	Temperatura mínima	17.2
61320	7	Sololá	710	Panajachel	8	Panajachel	9	Septiembre	2023-09-19T00:00:00	2024-11-08T02:00:00	5	Humedad	86
61321	7	Sololá	710	Panajachel	8	Panajachel	9	Septiembre	2023-09-19T00:00:00	2024-11-08T02:00:00	6	Velocidad del viento	3.2
61322	7	Sololá	710	Panajachel	8	Panajachel	9	Septiembre	2023-09-19T00:00:00	2024-11-08T02:00:00	7	Dirección del viento	3.22
61323	7	Sololá	710	Panajachel	8	Panajachel	9	Septiembre	2023-09-19T00:00:00	2024-11-08T02:00:00	1	Precipitación	0
61324	7	Sololá	710	Panajachel	8	Panajachel	9	Septiembre	2023-09-19T00:00:00	2024-11-08T02:00:00	8	Radiación solar	0
61325	7	Sololá	710	Panajachel	8	Panajachel	9	Septiembre	2023-09-19T00:00:00	2024-11-08T03:00:00	2	Temperatura media	18.4
61326	7	Sololá	710	Panajachel	8	Panajachel	9	Septiembre	2023-09-19T00:00:00	2024-11-08T03:00:00	4	Temperatura máxima	18.7
61327	7	Sololá	710	Panajachel	8	Panajachel	9	Septiembre	2023-09-19T00:00:00	2024-11-08T03:00:00	3	Temperatura mínima	17.2
61328	7	Sololá	710	Panajachel	8	Panajachel	9	Septiembre	2023-09-19T00:00:00	2024-11-08T03:00:00	5	Humedad	78
61329	7	Sololá	710	Panajachel	8	Panajachel	9	Septiembre	2023-09-19T00:00:00	2024-11-08T03:00:00	6	Velocidad del viento	3.2
61330	7	Sololá	710	Panajachel	8	Panajachel	9	Septiembre	2023-09-19T00:00:00	2024-11-08T03:00:00	7	Dirección del viento	3.22
61331	7	Sololá	710	Panajachel	8	Panajachel	9	Septiembre	2023-09-19T00:00:00	2024-11-08T03:00:00	1	Precipitación	0
61332	7	Sololá	710	Panajachel	8	Panajachel	9	Septiembre	2023-09-19T00:00:00	2024-11-08T03:00:00	8	Radiación solar	0
61333	7	Sololá	710	Panajachel	8	Panajachel	9	Septiembre	2023-09-19T00:00:00	2024-11-08T04:00:00	2	Temperatura media	19.7
61334	7	Sololá	710	Panajachel	8	Panajachel	9	Septiembre	2023-09-19T00:00:00	2024-11-08T04:00:00	4	Temperatura máxima	19.8
61335	7	Sololá	710	Panajachel	8	Panajachel	9	Septiembre	2023-09-19T00:00:00	2024-11-08T04:00:00	3	Temperatura mínima	18.4
61336	7	Sololá	710	Panajachel	8	Panajachel	9	Septiembre	2023-09-19T00:00:00	2024-11-08T04:00:00	5	Humedad	68
61337	7	Sololá	710	Panajachel	8	Panajachel	9	Septiembre	2023-09-19T00:00:00	2024-11-08T04:00:00	6	Velocidad del viento	9.7
61338	7	Sololá	710	Panajachel	8	Panajachel	9	Septiembre	2023-09-19T00:00:00	2024-11-08T04:00:00	7	Dirección del viento	9.66
61339	7	Sololá	710	Panajachel	8	Panajachel	9	Septiembre	2023-09-19T00:00:00	2024-11-08T04:00:00	1	Precipitación	0
61340	7	Sololá	710	Panajachel	8	Panajachel	9	Septiembre	2023-09-19T00:00:00	2024-11-08T04:00:00	8	Radiación solar	0
61341	7	Sololá	710	Panajachel	8	Panajachel	9	Septiembre	2023-09-19T00:00:00	2024-11-08T05:00:00	2	Temperatura media	18.8
61342	7	Sololá	710	Panajachel	8	Panajachel	9	Septiembre	2023-09-19T00:00:00	2024-11-08T05:00:00	4	Temperatura máxima	19.7
61343	7	Sololá	710	Panajachel	8	Panajachel	9	Septiembre	2023-09-19T00:00:00	2024-11-08T05:00:00	3	Temperatura mínima	18.8
61344	7	Sololá	710	Panajachel	8	Panajachel	9	Septiembre	2023-09-19T00:00:00	2024-11-08T05:00:00	5	Humedad	73
61345	7	Sololá	710	Panajachel	8	Panajachel	9	Septiembre	2023-09-19T00:00:00	2024-11-08T05:00:00	6	Velocidad del viento	6.4
61346	7	Sololá	710	Panajachel	8	Panajachel	9	Septiembre	2023-09-19T00:00:00	2024-11-08T05:00:00	7	Dirección del viento	6.44
61347	7	Sololá	710	Panajachel	8	Panajachel	9	Septiembre	2023-09-19T00:00:00	2024-11-08T05:00:00	1	Precipitación	0
61348	7	Sololá	710	Panajachel	8	Panajachel	9	Septiembre	2023-09-19T00:00:00	2024-11-08T05:00:00	8	Radiación solar	0
61349	7	Sololá	710	Panajachel	8	Panajachel	9	Septiembre	2023-09-19T00:00:00	2024-11-08T06:00:00	2	Temperatura media	17.8
61350	7	Sololá	710	Panajachel	8	Panajachel	9	Septiembre	2023-09-19T00:00:00	2024-11-08T06:00:00	4	Temperatura máxima	19.1
61351	7	Sololá	710	Panajachel	8	Panajachel	9	Septiembre	2023-09-19T00:00:00	2024-11-08T06:00:00	3	Temperatura mínima	17.8
61352	7	Sololá	710	Panajachel	8	Panajachel	9	Septiembre	2023-09-19T00:00:00	2024-11-08T06:00:00	5	Humedad	73
61353	7	Sololá	710	Panajachel	8	Panajachel	9	Septiembre	2023-09-19T00:00:00	2024-11-08T06:00:00	6	Velocidad del viento	3.2
61354	7	Sololá	710	Panajachel	8	Panajachel	9	Septiembre	2023-09-19T00:00:00	2024-11-08T06:00:00	7	Dirección del viento	3.22
61355	7	Sololá	710	Panajachel	8	Panajachel	9	Septiembre	2023-09-19T00:00:00	2024-11-08T06:00:00	1	Precipitación	0
61356	7	Sololá	710	Panajachel	8	Panajachel	9	Septiembre	2023-09-19T00:00:00	2024-11-08T06:00:00	8	Radiación solar	0
61357	7	Sololá	710	Panajachel	8	Panajachel	9	Septiembre	2023-09-19T00:00:00	2024-11-08T07:00:00	2	Temperatura media	17.7
61358	7	Sololá	710	Panajachel	8	Panajachel	9	Septiembre	2023-09-19T00:00:00	2024-11-08T07:00:00	4	Temperatura máxima	18.2
61359	7	Sololá	710	Panajachel	8	Panajachel	9	Septiembre	2023-09-19T00:00:00	2024-11-08T07:00:00	3	Temperatura mínima	17.4
61360	7	Sololá	710	Panajachel	8	Panajachel	9	Septiembre	2023-09-19T00:00:00	2024-11-08T07:00:00	5	Humedad	77
61361	7	Sololá	710	Panajachel	8	Panajachel	9	Septiembre	2023-09-19T00:00:00	2024-11-08T07:00:00	6	Velocidad del viento	3.2
61362	7	Sololá	710	Panajachel	8	Panajachel	9	Septiembre	2023-09-19T00:00:00	2024-11-08T07:00:00	7	Dirección del viento	3.22
61363	7	Sololá	710	Panajachel	8	Panajachel	9	Septiembre	2023-09-19T00:00:00	2024-11-08T07:00:00	1	Precipitación	0
61364	7	Sololá	710	Panajachel	8	Panajachel	9	Septiembre	2023-09-19T00:00:00	2024-11-08T07:00:00	8	Radiación solar	64
61365	7	Sololá	710	Panajachel	8	Panajachel	9	Septiembre	2023-09-19T00:00:00	2024-11-08T08:00:00	2	Temperatura media	21.2
61366	7	Sololá	710	Panajachel	8	Panajachel	9	Septiembre	2023-09-19T00:00:00	2024-11-08T08:00:00	4	Temperatura máxima	21.2
61367	7	Sololá	710	Panajachel	8	Panajachel	9	Septiembre	2023-09-19T00:00:00	2024-11-08T08:00:00	3	Temperatura mínima	17.8
61368	7	Sololá	710	Panajachel	8	Panajachel	9	Septiembre	2023-09-19T00:00:00	2024-11-08T08:00:00	5	Humedad	63
61369	7	Sololá	710	Panajachel	8	Panajachel	9	Septiembre	2023-09-19T00:00:00	2024-11-08T08:00:00	6	Velocidad del viento	1.6
61370	7	Sololá	710	Panajachel	8	Panajachel	9	Septiembre	2023-09-19T00:00:00	2024-11-08T08:00:00	7	Dirección del viento	1.61
61371	7	Sololá	710	Panajachel	8	Panajachel	9	Septiembre	2023-09-19T00:00:00	2024-11-08T08:00:00	1	Precipitación	0
61372	7	Sololá	710	Panajachel	8	Panajachel	9	Septiembre	2023-09-19T00:00:00	2024-11-08T08:00:00	8	Radiación solar	322
61373	7	Sololá	710	Panajachel	8	Panajachel	9	Septiembre	2023-09-19T00:00:00	2024-11-08T09:00:00	2	Temperatura media	21.8
61374	7	Sololá	710	Panajachel	8	Panajachel	9	Septiembre	2023-09-19T00:00:00	2024-11-08T09:00:00	4	Temperatura máxima	23.4
61375	7	Sololá	710	Panajachel	8	Panajachel	9	Septiembre	2023-09-19T00:00:00	2024-11-08T09:00:00	3	Temperatura mínima	21.2
61376	7	Sololá	710	Panajachel	8	Panajachel	9	Septiembre	2023-09-19T00:00:00	2024-11-08T09:00:00	5	Humedad	68
61377	7	Sololá	710	Panajachel	8	Panajachel	9	Septiembre	2023-09-19T00:00:00	2024-11-08T09:00:00	6	Velocidad del viento	4.8
61378	7	Sololá	710	Panajachel	8	Panajachel	9	Septiembre	2023-09-19T00:00:00	2024-11-08T09:00:00	7	Dirección del viento	4.83
61379	7	Sololá	710	Panajachel	8	Panajachel	9	Septiembre	2023-09-19T00:00:00	2024-11-08T09:00:00	1	Precipitación	0
61380	7	Sololá	710	Panajachel	8	Panajachel	9	Septiembre	2023-09-19T00:00:00	2024-11-08T09:00:00	8	Radiación solar	550
61381	7	Sololá	710	Panajachel	8	Panajachel	9	Septiembre	2023-09-19T00:00:00	2024-11-08T10:00:00	2	Temperatura media	23.4
61382	7	Sololá	710	Panajachel	8	Panajachel	9	Septiembre	2023-09-19T00:00:00	2024-11-08T10:00:00	4	Temperatura máxima	23.6
61383	7	Sololá	710	Panajachel	8	Panajachel	9	Septiembre	2023-09-19T00:00:00	2024-11-08T10:00:00	3	Temperatura mínima	21.8
61384	7	Sololá	710	Panajachel	8	Panajachel	9	Septiembre	2023-09-19T00:00:00	2024-11-08T10:00:00	5	Humedad	59
61385	7	Sololá	710	Panajachel	8	Panajachel	9	Septiembre	2023-09-19T00:00:00	2024-11-08T10:00:00	6	Velocidad del viento	4.8
61386	7	Sololá	710	Panajachel	8	Panajachel	9	Septiembre	2023-09-19T00:00:00	2024-11-08T10:00:00	7	Dirección del viento	4.83
61387	7	Sololá	710	Panajachel	8	Panajachel	9	Septiembre	2023-09-19T00:00:00	2024-11-08T10:00:00	1	Precipitación	0
61388	7	Sololá	710	Panajachel	8	Panajachel	9	Septiembre	2023-09-19T00:00:00	2024-11-08T10:00:00	8	Radiación solar	711
61389	7	Sololá	710	Panajachel	8	Panajachel	9	Septiembre	2023-09-19T00:00:00	2024-11-08T11:00:00	2	Temperatura media	24.8
61390	7	Sololá	710	Panajachel	8	Panajachel	9	Septiembre	2023-09-19T00:00:00	2024-11-08T11:00:00	4	Temperatura máxima	24.8
61391	7	Sololá	710	Panajachel	8	Panajachel	9	Septiembre	2023-09-19T00:00:00	2024-11-08T11:00:00	3	Temperatura mínima	23.4
61392	7	Sololá	710	Panajachel	8	Panajachel	9	Septiembre	2023-09-19T00:00:00	2024-11-08T11:00:00	5	Humedad	61
61393	7	Sololá	710	Panajachel	8	Panajachel	9	Septiembre	2023-09-19T00:00:00	2024-11-08T11:00:00	6	Velocidad del viento	3.2
61394	7	Sololá	710	Panajachel	8	Panajachel	9	Septiembre	2023-09-19T00:00:00	2024-11-08T11:00:00	7	Dirección del viento	3.22
61395	7	Sololá	710	Panajachel	8	Panajachel	9	Septiembre	2023-09-19T00:00:00	2024-11-08T11:00:00	1	Precipitación	0
61396	7	Sololá	710	Panajachel	8	Panajachel	9	Septiembre	2023-09-19T00:00:00	2024-11-08T11:00:00	8	Radiación solar	845
61397	7	Sololá	710	Panajachel	8	Panajachel	9	Septiembre	2023-09-19T00:00:00	2024-11-08T12:00:00	2	Temperatura media	25.2
61398	7	Sololá	710	Panajachel	8	Panajachel	9	Septiembre	2023-09-19T00:00:00	2024-11-08T12:00:00	4	Temperatura máxima	25.2
61399	7	Sololá	710	Panajachel	8	Panajachel	9	Septiembre	2023-09-19T00:00:00	2024-11-08T12:00:00	3	Temperatura mínima	23.9
61400	7	Sololá	710	Panajachel	8	Panajachel	9	Septiembre	2023-09-19T00:00:00	2024-11-08T12:00:00	5	Humedad	59
61401	7	Sololá	710	Panajachel	8	Panajachel	9	Septiembre	2023-09-19T00:00:00	2024-11-08T12:00:00	6	Velocidad del viento	3.2
61402	7	Sololá	710	Panajachel	8	Panajachel	9	Septiembre	2023-09-19T00:00:00	2024-11-08T12:00:00	7	Dirección del viento	3.22
61403	7	Sololá	710	Panajachel	8	Panajachel	9	Septiembre	2023-09-19T00:00:00	2024-11-08T12:00:00	1	Precipitación	0
61404	7	Sololá	710	Panajachel	8	Panajachel	9	Septiembre	2023-09-19T00:00:00	2024-11-08T12:00:00	8	Radiación solar	917
61405	7	Sololá	710	Panajachel	8	Panajachel	9	Septiembre	2023-09-19T00:00:00	2024-11-08T13:00:00	2	Temperatura media	24.4
61406	7	Sololá	710	Panajachel	8	Panajachel	9	Septiembre	2023-09-19T00:00:00	2024-11-08T13:00:00	4	Temperatura máxima	25.3
61407	7	Sololá	710	Panajachel	8	Panajachel	9	Septiembre	2023-09-19T00:00:00	2024-11-08T13:00:00	3	Temperatura mínima	24.1
61408	7	Sololá	710	Panajachel	8	Panajachel	9	Septiembre	2023-09-19T00:00:00	2024-11-08T13:00:00	5	Humedad	67
61409	7	Sololá	710	Panajachel	8	Panajachel	9	Septiembre	2023-09-19T00:00:00	2024-11-08T13:00:00	6	Velocidad del viento	9.7
61410	7	Sololá	710	Panajachel	8	Panajachel	9	Septiembre	2023-09-19T00:00:00	2024-11-08T13:00:00	7	Dirección del viento	9.66
61411	7	Sololá	710	Panajachel	8	Panajachel	9	Septiembre	2023-09-19T00:00:00	2024-11-08T13:00:00	1	Precipitación	0
61412	7	Sololá	710	Panajachel	8	Panajachel	9	Septiembre	2023-09-19T00:00:00	2024-11-08T13:00:00	8	Radiación solar	908
61413	7	Sololá	710	Panajachel	8	Panajachel	9	Septiembre	2023-09-19T00:00:00	2024-11-08T14:00:00	2	Temperatura media	24.8
61414	7	Sololá	710	Panajachel	8	Panajachel	9	Septiembre	2023-09-19T00:00:00	2024-11-08T14:00:00	4	Temperatura máxima	32.2
61415	7	Sololá	710	Panajachel	8	Panajachel	9	Septiembre	2023-09-19T00:00:00	2024-11-08T14:00:00	3	Temperatura mínima	24.4
61416	7	Sololá	710	Panajachel	8	Panajachel	9	Septiembre	2023-09-19T00:00:00	2024-11-08T14:00:00	5	Humedad	71
61417	7	Sololá	710	Panajachel	8	Panajachel	9	Septiembre	2023-09-19T00:00:00	2024-11-08T14:00:00	6	Velocidad del viento	4.8
61418	7	Sololá	710	Panajachel	8	Panajachel	9	Septiembre	2023-09-19T00:00:00	2024-11-08T14:00:00	7	Dirección del viento	4.83
61419	7	Sololá	710	Panajachel	8	Panajachel	9	Septiembre	2023-09-19T00:00:00	2024-11-08T14:00:00	1	Precipitación	0.2
61420	7	Sololá	710	Panajachel	8	Panajachel	9	Septiembre	2023-09-19T00:00:00	2024-11-08T14:00:00	8	Radiación solar	738
61421	7	Sololá	710	Panajachel	8	Panajachel	9	Septiembre	2023-09-19T00:00:00	2024-11-08T15:00:00	2	Temperatura media	23.7
61422	7	Sololá	710	Panajachel	8	Panajachel	9	Septiembre	2023-09-19T00:00:00	2024-11-08T15:00:00	4	Temperatura máxima	25.1
61423	7	Sololá	710	Panajachel	8	Panajachel	9	Septiembre	2023-09-19T00:00:00	2024-11-08T15:00:00	3	Temperatura mínima	23.7
61424	7	Sololá	710	Panajachel	8	Panajachel	9	Septiembre	2023-09-19T00:00:00	2024-11-08T15:00:00	5	Humedad	75
61425	7	Sololá	710	Panajachel	8	Panajachel	9	Septiembre	2023-09-19T00:00:00	2024-11-08T15:00:00	6	Velocidad del viento	6.4
61426	7	Sololá	710	Panajachel	8	Panajachel	9	Septiembre	2023-09-19T00:00:00	2024-11-08T15:00:00	7	Dirección del viento	6.44
61427	7	Sololá	710	Panajachel	8	Panajachel	9	Septiembre	2023-09-19T00:00:00	2024-11-08T15:00:00	1	Precipitación	0
61428	7	Sololá	710	Panajachel	8	Panajachel	9	Septiembre	2023-09-19T00:00:00	2024-11-08T15:00:00	8	Radiación solar	438
61429	7	Sololá	710	Panajachel	8	Panajachel	9	Septiembre	2023-09-19T00:00:00	2024-11-08T16:00:00	2	Temperatura media	24.4
61430	7	Sololá	710	Panajachel	8	Panajachel	9	Septiembre	2023-09-19T00:00:00	2024-11-08T16:00:00	4	Temperatura máxima	24.6
61431	7	Sololá	710	Panajachel	8	Panajachel	9	Septiembre	2023-09-19T00:00:00	2024-11-08T16:00:00	3	Temperatura mínima	22.9
61432	7	Sololá	710	Panajachel	8	Panajachel	9	Septiembre	2023-09-19T00:00:00	2024-11-08T16:00:00	5	Humedad	71
61433	7	Sololá	710	Panajachel	8	Panajachel	9	Septiembre	2023-09-19T00:00:00	2024-11-08T16:00:00	6	Velocidad del viento	6.4
61434	7	Sololá	710	Panajachel	8	Panajachel	9	Septiembre	2023-09-19T00:00:00	2024-11-08T16:00:00	7	Dirección del viento	6.44
61435	7	Sololá	710	Panajachel	8	Panajachel	9	Septiembre	2023-09-19T00:00:00	2024-11-08T16:00:00	1	Precipitación	0
61436	7	Sololá	710	Panajachel	8	Panajachel	9	Septiembre	2023-09-19T00:00:00	2024-11-08T16:00:00	8	Radiación solar	344
61437	7	Sololá	710	Panajachel	8	Panajachel	9	Septiembre	2023-09-19T00:00:00	2024-11-08T17:00:00	2	Temperatura media	23.2
61438	7	Sololá	710	Panajachel	8	Panajachel	9	Septiembre	2023-09-19T00:00:00	2024-11-08T17:00:00	4	Temperatura máxima	24.7
61439	7	Sololá	710	Panajachel	8	Panajachel	9	Septiembre	2023-09-19T00:00:00	2024-11-08T17:00:00	3	Temperatura mínima	23.2
61440	7	Sololá	710	Panajachel	8	Panajachel	9	Septiembre	2023-09-19T00:00:00	2024-11-08T17:00:00	5	Humedad	78
61441	7	Sololá	710	Panajachel	8	Panajachel	9	Septiembre	2023-09-19T00:00:00	2024-11-08T17:00:00	6	Velocidad del viento	4.8
61442	7	Sololá	710	Panajachel	8	Panajachel	9	Septiembre	2023-09-19T00:00:00	2024-11-08T17:00:00	7	Dirección del viento	4.83
61443	7	Sololá	710	Panajachel	8	Panajachel	9	Septiembre	2023-09-19T00:00:00	2024-11-08T17:00:00	1	Precipitación	0
61444	7	Sololá	710	Panajachel	8	Panajachel	9	Septiembre	2023-09-19T00:00:00	2024-11-08T17:00:00	8	Radiación solar	214
61445	7	Sololá	710	Panajachel	8	Panajachel	9	Septiembre	2023-09-19T00:00:00	2024-11-08T18:00:00	2	Temperatura media	21.7
61446	7	Sololá	710	Panajachel	8	Panajachel	9	Septiembre	2023-09-19T00:00:00	2024-11-08T18:00:00	4	Temperatura máxima	23.3
61447	7	Sololá	710	Panajachel	8	Panajachel	9	Septiembre	2023-09-19T00:00:00	2024-11-08T18:00:00	3	Temperatura mínima	21.7
61448	7	Sololá	710	Panajachel	8	Panajachel	9	Septiembre	2023-09-19T00:00:00	2024-11-08T18:00:00	5	Humedad	84
61449	7	Sololá	710	Panajachel	8	Panajachel	9	Septiembre	2023-09-19T00:00:00	2024-11-08T18:00:00	6	Velocidad del viento	1.6
61450	7	Sololá	710	Panajachel	8	Panajachel	9	Septiembre	2023-09-19T00:00:00	2024-11-08T18:00:00	7	Dirección del viento	1.61
61451	7	Sololá	710	Panajachel	8	Panajachel	9	Septiembre	2023-09-19T00:00:00	2024-11-08T18:00:00	1	Precipitación	0
61452	7	Sololá	710	Panajachel	8	Panajachel	9	Septiembre	2023-09-19T00:00:00	2024-11-08T18:00:00	8	Radiación solar	30
61453	7	Sololá	710	Panajachel	8	Panajachel	9	Septiembre	2023-09-19T00:00:00	2024-11-08T19:00:00	2	Temperatura media	20.9
61454	7	Sololá	710	Panajachel	8	Panajachel	9	Septiembre	2023-09-19T00:00:00	2024-11-08T19:00:00	4	Temperatura máxima	21.8
61455	7	Sololá	710	Panajachel	8	Panajachel	9	Septiembre	2023-09-19T00:00:00	2024-11-08T19:00:00	3	Temperatura mínima	20.8
61456	7	Sololá	710	Panajachel	8	Panajachel	9	Septiembre	2023-09-19T00:00:00	2024-11-08T19:00:00	5	Humedad	88
61457	7	Sololá	710	Panajachel	8	Panajachel	9	Septiembre	2023-09-19T00:00:00	2024-11-08T19:00:00	6	Velocidad del viento	1.6
61458	7	Sololá	710	Panajachel	8	Panajachel	9	Septiembre	2023-09-19T00:00:00	2024-11-08T19:00:00	7	Dirección del viento	1.61
61459	7	Sololá	710	Panajachel	8	Panajachel	9	Septiembre	2023-09-19T00:00:00	2024-11-08T19:00:00	1	Precipitación	0
61460	7	Sololá	710	Panajachel	8	Panajachel	9	Septiembre	2023-09-19T00:00:00	2024-11-08T19:00:00	8	Radiación solar	0
61461	7	Sololá	710	Panajachel	8	Panajachel	9	Septiembre	2023-09-19T00:00:00	2024-11-08T20:00:00	2	Temperatura media	20.7
61462	7	Sololá	710	Panajachel	8	Panajachel	9	Septiembre	2023-09-19T00:00:00	2024-11-08T20:00:00	4	Temperatura máxima	21
61463	7	Sololá	710	Panajachel	8	Panajachel	9	Septiembre	2023-09-19T00:00:00	2024-11-08T20:00:00	3	Temperatura mínima	20.7
61464	7	Sololá	710	Panajachel	8	Panajachel	9	Septiembre	2023-09-19T00:00:00	2024-11-08T20:00:00	5	Humedad	87
61465	7	Sololá	710	Panajachel	8	Panajachel	9	Septiembre	2023-09-19T00:00:00	2024-11-08T20:00:00	6	Velocidad del viento	0
61466	7	Sololá	710	Panajachel	8	Panajachel	9	Septiembre	2023-09-19T00:00:00	2024-11-08T20:00:00	7	Dirección del viento	0
61467	7	Sololá	710	Panajachel	8	Panajachel	9	Septiembre	2023-09-19T00:00:00	2024-11-08T20:00:00	1	Precipitación	0
61468	7	Sololá	710	Panajachel	8	Panajachel	9	Septiembre	2023-09-19T00:00:00	2024-11-08T20:00:00	8	Radiación solar	0
61469	7	Sololá	710	Panajachel	8	Panajachel	9	Septiembre	2023-09-19T00:00:00	2024-11-08T21:00:00	2	Temperatura media	18.9
61470	7	Sololá	710	Panajachel	8	Panajachel	9	Septiembre	2023-09-19T00:00:00	2024-11-08T21:00:00	4	Temperatura máxima	20.7
61471	7	Sololá	710	Panajachel	8	Panajachel	9	Septiembre	2023-09-19T00:00:00	2024-11-08T21:00:00	3	Temperatura mínima	18.9
61472	7	Sololá	710	Panajachel	8	Panajachel	9	Septiembre	2023-09-19T00:00:00	2024-11-08T21:00:00	5	Humedad	87
61473	7	Sololá	710	Panajachel	8	Panajachel	9	Septiembre	2023-09-19T00:00:00	2024-11-08T21:00:00	6	Velocidad del viento	0
61474	7	Sololá	710	Panajachel	8	Panajachel	9	Septiembre	2023-09-19T00:00:00	2024-11-08T21:00:00	7	Dirección del viento	0
61475	7	Sololá	710	Panajachel	8	Panajachel	9	Septiembre	2023-09-19T00:00:00	2024-11-08T21:00:00	1	Precipitación	0
61476	7	Sololá	710	Panajachel	8	Panajachel	9	Septiembre	2023-09-19T00:00:00	2024-11-08T21:00:00	8	Radiación solar	0
61477	7	Sololá	710	Panajachel	8	Panajachel	9	Septiembre	2023-09-19T00:00:00	2024-11-08T22:00:00	2	Temperatura media	18
61478	7	Sololá	710	Panajachel	8	Panajachel	9	Septiembre	2023-09-19T00:00:00	2024-11-08T22:00:00	4	Temperatura máxima	19
61479	7	Sololá	710	Panajachel	8	Panajachel	9	Septiembre	2023-09-19T00:00:00	2024-11-08T22:00:00	3	Temperatura mínima	18
61480	7	Sololá	710	Panajachel	8	Panajachel	9	Septiembre	2023-09-19T00:00:00	2024-11-08T22:00:00	5	Humedad	86
61481	7	Sololá	710	Panajachel	8	Panajachel	9	Septiembre	2023-09-19T00:00:00	2024-11-08T22:00:00	6	Velocidad del viento	1.6
61482	7	Sololá	710	Panajachel	8	Panajachel	9	Septiembre	2023-09-19T00:00:00	2024-11-08T22:00:00	7	Dirección del viento	1.61
61483	7	Sololá	710	Panajachel	8	Panajachel	9	Septiembre	2023-09-19T00:00:00	2024-11-08T22:00:00	1	Precipitación	0
61484	7	Sololá	710	Panajachel	8	Panajachel	9	Septiembre	2023-09-19T00:00:00	2024-11-08T22:00:00	8	Radiación solar	0
61485	7	Sololá	710	Panajachel	8	Panajachel	9	Septiembre	2023-09-19T00:00:00	2024-11-08T23:00:00	2	Temperatura media	18.1
61486	7	Sololá	710	Panajachel	8	Panajachel	9	Septiembre	2023-09-19T00:00:00	2024-11-08T23:00:00	4	Temperatura máxima	18.1
61487	7	Sololá	710	Panajachel	8	Panajachel	9	Septiembre	2023-09-19T00:00:00	2024-11-08T23:00:00	3	Temperatura mínima	17.6
61488	7	Sololá	710	Panajachel	8	Panajachel	9	Septiembre	2023-09-19T00:00:00	2024-11-08T23:00:00	5	Humedad	84
61489	7	Sololá	710	Panajachel	8	Panajachel	9	Septiembre	2023-09-19T00:00:00	2024-11-08T23:00:00	6	Velocidad del viento	1.6
61490	7	Sololá	710	Panajachel	8	Panajachel	9	Septiembre	2023-09-19T00:00:00	2024-11-08T23:00:00	7	Dirección del viento	1.61
61491	7	Sololá	710	Panajachel	8	Panajachel	9	Septiembre	2023-09-19T00:00:00	2024-11-08T23:00:00	1	Precipitación	0
61492	7	Sololá	710	Panajachel	8	Panajachel	9	Septiembre	2023-09-19T00:00:00	2024-11-08T23:00:00	8	Radiación solar	0
61493	7	Sololá	710	Panajachel	8	Panajachel	9	Septiembre	2023-09-20T00:00:00	2024-11-08T00:00:00	2	Temperatura media	20.1
61494	7	Sololá	710	Panajachel	8	Panajachel	9	Septiembre	2023-09-20T00:00:00	2024-11-08T00:00:00	4	Temperatura máxima	20.1
61495	7	Sololá	710	Panajachel	8	Panajachel	9	Septiembre	2023-09-20T00:00:00	2024-11-08T00:00:00	3	Temperatura mínima	18.1
61496	7	Sololá	710	Panajachel	8	Panajachel	9	Septiembre	2023-09-20T00:00:00	2024-11-08T00:00:00	5	Humedad	74
61497	7	Sololá	710	Panajachel	8	Panajachel	9	Septiembre	2023-09-20T00:00:00	2024-11-08T00:00:00	6	Velocidad del viento	1.6
61498	7	Sololá	710	Panajachel	8	Panajachel	9	Septiembre	2023-09-20T00:00:00	2024-11-08T00:00:00	7	Dirección del viento	1.61
61499	7	Sololá	710	Panajachel	8	Panajachel	9	Septiembre	2023-09-20T00:00:00	2024-11-08T00:00:00	1	Precipitación	0
61500	7	Sololá	710	Panajachel	8	Panajachel	9	Septiembre	2023-09-20T00:00:00	2024-11-08T00:00:00	8	Radiación solar	0
61501	7	Sololá	710	Panajachel	8	Panajachel	9	Septiembre	2023-09-20T00:00:00	2024-11-08T01:00:00	2	Temperatura media	19.2
61502	7	Sololá	710	Panajachel	8	Panajachel	9	Septiembre	2023-09-20T00:00:00	2024-11-08T01:00:00	4	Temperatura máxima	20.3
61503	7	Sololá	710	Panajachel	8	Panajachel	9	Septiembre	2023-09-20T00:00:00	2024-11-08T01:00:00	3	Temperatura mínima	19.1
61504	7	Sololá	710	Panajachel	8	Panajachel	9	Septiembre	2023-09-20T00:00:00	2024-11-08T01:00:00	5	Humedad	77
61505	7	Sololá	710	Panajachel	8	Panajachel	9	Septiembre	2023-09-20T00:00:00	2024-11-08T01:00:00	6	Velocidad del viento	1.6
61506	7	Sololá	710	Panajachel	8	Panajachel	9	Septiembre	2023-09-20T00:00:00	2024-11-08T01:00:00	7	Dirección del viento	1.61
61507	7	Sololá	710	Panajachel	8	Panajachel	9	Septiembre	2023-09-20T00:00:00	2024-11-08T01:00:00	1	Precipitación	0
61508	7	Sololá	710	Panajachel	8	Panajachel	9	Septiembre	2023-09-20T00:00:00	2024-11-08T01:00:00	8	Radiación solar	0
61509	7	Sololá	710	Panajachel	8	Panajachel	9	Septiembre	2023-09-20T00:00:00	2024-11-08T02:00:00	2	Temperatura media	17.2
61510	7	Sololá	710	Panajachel	8	Panajachel	9	Septiembre	2023-09-20T00:00:00	2024-11-08T02:00:00	4	Temperatura máxima	19.2
61511	7	Sololá	710	Panajachel	8	Panajachel	9	Septiembre	2023-09-20T00:00:00	2024-11-08T02:00:00	3	Temperatura mínima	17.2
61512	7	Sololá	710	Panajachel	8	Panajachel	9	Septiembre	2023-09-20T00:00:00	2024-11-08T02:00:00	5	Humedad	84
61513	7	Sololá	710	Panajachel	8	Panajachel	9	Septiembre	2023-09-20T00:00:00	2024-11-08T02:00:00	6	Velocidad del viento	0
61514	7	Sololá	710	Panajachel	8	Panajachel	9	Septiembre	2023-09-20T00:00:00	2024-11-08T02:00:00	7	Dirección del viento	0
61515	7	Sololá	710	Panajachel	8	Panajachel	9	Septiembre	2023-09-20T00:00:00	2024-11-08T02:00:00	1	Precipitación	0
61516	7	Sololá	710	Panajachel	8	Panajachel	9	Septiembre	2023-09-20T00:00:00	2024-11-08T02:00:00	8	Radiación solar	0
61517	7	Sololá	710	Panajachel	8	Panajachel	9	Septiembre	2023-09-20T00:00:00	2024-11-08T03:00:00	2	Temperatura media	16.9
61518	7	Sololá	710	Panajachel	8	Panajachel	9	Septiembre	2023-09-20T00:00:00	2024-11-08T03:00:00	4	Temperatura máxima	17.4
61519	7	Sololá	710	Panajachel	8	Panajachel	9	Septiembre	2023-09-20T00:00:00	2024-11-08T03:00:00	3	Temperatura mínima	16.9
61520	7	Sololá	710	Panajachel	8	Panajachel	9	Septiembre	2023-09-20T00:00:00	2024-11-08T03:00:00	5	Humedad	84
61521	7	Sololá	710	Panajachel	8	Panajachel	9	Septiembre	2023-09-20T00:00:00	2024-11-08T03:00:00	6	Velocidad del viento	1.6
61522	7	Sololá	710	Panajachel	8	Panajachel	9	Septiembre	2023-09-20T00:00:00	2024-11-08T03:00:00	7	Dirección del viento	1.61
61523	7	Sololá	710	Panajachel	8	Panajachel	9	Septiembre	2023-09-20T00:00:00	2024-11-08T03:00:00	1	Precipitación	0
61524	7	Sololá	710	Panajachel	8	Panajachel	9	Septiembre	2023-09-20T00:00:00	2024-11-08T03:00:00	8	Radiación solar	0
61525	7	Sololá	710	Panajachel	8	Panajachel	9	Septiembre	2023-09-20T00:00:00	2024-11-08T04:00:00	2	Temperatura media	16.8
61526	7	Sololá	710	Panajachel	8	Panajachel	9	Septiembre	2023-09-20T00:00:00	2024-11-08T04:00:00	4	Temperatura máxima	16.9
61527	7	Sololá	710	Panajachel	8	Panajachel	9	Septiembre	2023-09-20T00:00:00	2024-11-08T04:00:00	3	Temperatura mínima	16.5
61528	7	Sololá	710	Panajachel	8	Panajachel	9	Septiembre	2023-09-20T00:00:00	2024-11-08T04:00:00	5	Humedad	84
61529	7	Sololá	710	Panajachel	8	Panajachel	9	Septiembre	2023-09-20T00:00:00	2024-11-08T04:00:00	6	Velocidad del viento	0
61530	7	Sololá	710	Panajachel	8	Panajachel	9	Septiembre	2023-09-20T00:00:00	2024-11-08T04:00:00	7	Dirección del viento	0
61531	7	Sololá	710	Panajachel	8	Panajachel	9	Septiembre	2023-09-20T00:00:00	2024-11-08T04:00:00	1	Precipitación	0
61532	7	Sololá	710	Panajachel	8	Panajachel	9	Septiembre	2023-09-20T00:00:00	2024-11-08T04:00:00	8	Radiación solar	0
61533	7	Sololá	710	Panajachel	8	Panajachel	9	Septiembre	2023-09-20T00:00:00	2024-11-08T05:00:00	2	Temperatura media	16.2
61534	7	Sololá	710	Panajachel	8	Panajachel	9	Septiembre	2023-09-20T00:00:00	2024-11-08T05:00:00	4	Temperatura máxima	17.6
61535	7	Sololá	710	Panajachel	8	Panajachel	9	Septiembre	2023-09-20T00:00:00	2024-11-08T05:00:00	3	Temperatura mínima	16.2
61536	7	Sololá	710	Panajachel	8	Panajachel	9	Septiembre	2023-09-20T00:00:00	2024-11-08T05:00:00	5	Humedad	86
61537	7	Sololá	710	Panajachel	8	Panajachel	9	Septiembre	2023-09-20T00:00:00	2024-11-08T05:00:00	6	Velocidad del viento	0
61538	7	Sololá	710	Panajachel	8	Panajachel	9	Septiembre	2023-09-20T00:00:00	2024-11-08T05:00:00	7	Dirección del viento	0
61539	7	Sololá	710	Panajachel	8	Panajachel	9	Septiembre	2023-09-20T00:00:00	2024-11-08T05:00:00	1	Precipitación	0
61540	7	Sololá	710	Panajachel	8	Panajachel	9	Septiembre	2023-09-20T00:00:00	2024-11-08T05:00:00	8	Radiación solar	0
61541	7	Sololá	710	Panajachel	8	Panajachel	9	Septiembre	2023-09-20T00:00:00	2024-11-08T06:00:00	2	Temperatura media	16.3
61542	7	Sololá	710	Panajachel	8	Panajachel	9	Septiembre	2023-09-20T00:00:00	2024-11-08T06:00:00	4	Temperatura máxima	16.3
61543	7	Sololá	710	Panajachel	8	Panajachel	9	Septiembre	2023-09-20T00:00:00	2024-11-08T06:00:00	3	Temperatura mínima	15.9
61544	7	Sololá	710	Panajachel	8	Panajachel	9	Septiembre	2023-09-20T00:00:00	2024-11-08T06:00:00	5	Humedad	84
61545	7	Sololá	710	Panajachel	8	Panajachel	9	Septiembre	2023-09-20T00:00:00	2024-11-08T06:00:00	6	Velocidad del viento	0
61546	7	Sololá	710	Panajachel	8	Panajachel	9	Septiembre	2023-09-20T00:00:00	2024-11-08T06:00:00	7	Dirección del viento	0
61547	7	Sololá	710	Panajachel	8	Panajachel	9	Septiembre	2023-09-20T00:00:00	2024-11-08T06:00:00	1	Precipitación	0
61548	7	Sololá	710	Panajachel	8	Panajachel	9	Septiembre	2023-09-20T00:00:00	2024-11-08T06:00:00	8	Radiación solar	0
61549	7	Sololá	710	Panajachel	8	Panajachel	9	Septiembre	2023-09-20T00:00:00	2024-11-08T07:00:00	2	Temperatura media	17.7
61550	7	Sololá	710	Panajachel	8	Panajachel	9	Septiembre	2023-09-20T00:00:00	2024-11-08T07:00:00	4	Temperatura máxima	17.7
61551	7	Sololá	710	Panajachel	8	Panajachel	9	Septiembre	2023-09-20T00:00:00	2024-11-08T07:00:00	3	Temperatura mínima	16.3
61552	7	Sololá	710	Panajachel	8	Panajachel	9	Septiembre	2023-09-20T00:00:00	2024-11-08T07:00:00	5	Humedad	83
61553	7	Sololá	710	Panajachel	8	Panajachel	9	Septiembre	2023-09-20T00:00:00	2024-11-08T07:00:00	6	Velocidad del viento	0
61554	7	Sololá	710	Panajachel	8	Panajachel	9	Septiembre	2023-09-20T00:00:00	2024-11-08T07:00:00	7	Dirección del viento	0
61555	7	Sololá	710	Panajachel	8	Panajachel	9	Septiembre	2023-09-20T00:00:00	2024-11-08T07:00:00	1	Precipitación	0
61556	7	Sololá	710	Panajachel	8	Panajachel	9	Septiembre	2023-09-20T00:00:00	2024-11-08T07:00:00	8	Radiación solar	56
61557	7	Sololá	710	Panajachel	8	Panajachel	9	Septiembre	2023-09-20T00:00:00	2024-11-08T08:00:00	2	Temperatura media	21.1
61558	7	Sololá	710	Panajachel	8	Panajachel	9	Septiembre	2023-09-20T00:00:00	2024-11-08T08:00:00	4	Temperatura máxima	21.1
61559	7	Sololá	710	Panajachel	8	Panajachel	9	Septiembre	2023-09-20T00:00:00	2024-11-08T08:00:00	3	Temperatura mínima	17.7
61560	7	Sololá	710	Panajachel	8	Panajachel	9	Septiembre	2023-09-20T00:00:00	2024-11-08T08:00:00	5	Humedad	74
61561	7	Sololá	710	Panajachel	8	Panajachel	9	Septiembre	2023-09-20T00:00:00	2024-11-08T08:00:00	6	Velocidad del viento	0
61562	7	Sololá	710	Panajachel	8	Panajachel	9	Septiembre	2023-09-20T00:00:00	2024-11-08T08:00:00	7	Dirección del viento	0
61563	7	Sololá	710	Panajachel	8	Panajachel	9	Septiembre	2023-09-20T00:00:00	2024-11-08T08:00:00	1	Precipitación	0
61564	7	Sololá	710	Panajachel	8	Panajachel	9	Septiembre	2023-09-20T00:00:00	2024-11-08T08:00:00	8	Radiación solar	277
61565	7	Sololá	710	Panajachel	8	Panajachel	9	Septiembre	2023-09-20T00:00:00	2024-11-08T09:00:00	2	Temperatura media	21.7
61566	7	Sololá	710	Panajachel	8	Panajachel	9	Septiembre	2023-09-20T00:00:00	2024-11-08T09:00:00	4	Temperatura máxima	21.7
61567	7	Sololá	710	Panajachel	8	Panajachel	9	Septiembre	2023-09-20T00:00:00	2024-11-08T09:00:00	3	Temperatura mínima	20.7
61568	7	Sololá	710	Panajachel	8	Panajachel	9	Septiembre	2023-09-20T00:00:00	2024-11-08T09:00:00	5	Humedad	77
61569	7	Sololá	710	Panajachel	8	Panajachel	9	Septiembre	2023-09-20T00:00:00	2024-11-08T09:00:00	6	Velocidad del viento	0
61570	7	Sololá	710	Panajachel	8	Panajachel	9	Septiembre	2023-09-20T00:00:00	2024-11-08T09:00:00	7	Dirección del viento	0
61571	7	Sololá	710	Panajachel	8	Panajachel	9	Septiembre	2023-09-20T00:00:00	2024-11-08T09:00:00	1	Precipitación	0
61572	7	Sololá	710	Panajachel	8	Panajachel	9	Septiembre	2023-09-20T00:00:00	2024-11-08T09:00:00	8	Radiación solar	509
61573	7	Sololá	710	Panajachel	8	Panajachel	9	Septiembre	2023-09-20T00:00:00	2024-11-08T10:00:00	2	Temperatura media	22.3
61574	7	Sololá	710	Panajachel	8	Panajachel	9	Septiembre	2023-09-20T00:00:00	2024-11-08T10:00:00	4	Temperatura máxima	22.8
61575	7	Sololá	710	Panajachel	8	Panajachel	9	Septiembre	2023-09-20T00:00:00	2024-11-08T10:00:00	3	Temperatura mínima	21.5
61576	7	Sololá	710	Panajachel	8	Panajachel	9	Septiembre	2023-09-20T00:00:00	2024-11-08T10:00:00	5	Humedad	75
61577	7	Sololá	710	Panajachel	8	Panajachel	9	Septiembre	2023-09-20T00:00:00	2024-11-08T10:00:00	6	Velocidad del viento	0
61578	7	Sololá	710	Panajachel	8	Panajachel	9	Septiembre	2023-09-20T00:00:00	2024-11-08T10:00:00	7	Dirección del viento	0
61579	7	Sololá	710	Panajachel	8	Panajachel	9	Septiembre	2023-09-20T00:00:00	2024-11-08T10:00:00	1	Precipitación	0
61580	7	Sololá	710	Panajachel	8	Panajachel	9	Septiembre	2023-09-20T00:00:00	2024-11-08T10:00:00	8	Radiación solar	655
61581	7	Sololá	710	Panajachel	8	Panajachel	9	Septiembre	2023-09-20T00:00:00	2024-11-08T11:00:00	2	Temperatura media	23.4
61582	7	Sololá	710	Panajachel	8	Panajachel	9	Septiembre	2023-09-20T00:00:00	2024-11-08T11:00:00	4	Temperatura máxima	23.4
61583	7	Sololá	710	Panajachel	8	Panajachel	9	Septiembre	2023-09-20T00:00:00	2024-11-08T11:00:00	3	Temperatura mínima	22.3
61584	7	Sololá	710	Panajachel	8	Panajachel	9	Septiembre	2023-09-20T00:00:00	2024-11-08T11:00:00	5	Humedad	69
61585	7	Sololá	710	Panajachel	8	Panajachel	9	Septiembre	2023-09-20T00:00:00	2024-11-08T11:00:00	6	Velocidad del viento	0
61586	7	Sololá	710	Panajachel	8	Panajachel	9	Septiembre	2023-09-20T00:00:00	2024-11-08T11:00:00	7	Dirección del viento	0
61587	7	Sololá	710	Panajachel	8	Panajachel	9	Septiembre	2023-09-20T00:00:00	2024-11-08T11:00:00	1	Precipitación	0
61588	7	Sololá	710	Panajachel	8	Panajachel	9	Septiembre	2023-09-20T00:00:00	2024-11-08T11:00:00	8	Radiación solar	566
61589	7	Sololá	710	Panajachel	8	Panajachel	9	Septiembre	2023-09-20T00:00:00	2024-11-08T12:00:00	2	Temperatura media	23.9
61590	7	Sololá	710	Panajachel	8	Panajachel	9	Septiembre	2023-09-20T00:00:00	2024-11-08T12:00:00	4	Temperatura máxima	24.5
61591	7	Sololá	710	Panajachel	8	Panajachel	9	Septiembre	2023-09-20T00:00:00	2024-11-08T12:00:00	3	Temperatura mínima	23.4
61592	7	Sololá	710	Panajachel	8	Panajachel	9	Septiembre	2023-09-20T00:00:00	2024-11-08T12:00:00	5	Humedad	68
61593	7	Sololá	710	Panajachel	8	Panajachel	9	Septiembre	2023-09-20T00:00:00	2024-11-08T12:00:00	6	Velocidad del viento	0
61594	7	Sololá	710	Panajachel	8	Panajachel	9	Septiembre	2023-09-20T00:00:00	2024-11-08T12:00:00	7	Dirección del viento	0
61595	7	Sololá	710	Panajachel	8	Panajachel	9	Septiembre	2023-09-20T00:00:00	2024-11-08T12:00:00	1	Precipitación	0
61596	7	Sololá	710	Panajachel	8	Panajachel	9	Septiembre	2023-09-20T00:00:00	2024-11-08T12:00:00	8	Radiación solar	543
61597	7	Sololá	710	Panajachel	8	Panajachel	9	Septiembre	2023-09-20T00:00:00	2024-11-08T13:00:00	2	Temperatura media	25.5
61598	7	Sololá	710	Panajachel	8	Panajachel	9	Septiembre	2023-09-20T00:00:00	2024-11-08T13:00:00	4	Temperatura máxima	26.3
61599	7	Sololá	710	Panajachel	8	Panajachel	9	Septiembre	2023-09-20T00:00:00	2024-11-08T13:00:00	3	Temperatura mínima	23.9
61600	7	Sololá	710	Panajachel	8	Panajachel	9	Septiembre	2023-09-20T00:00:00	2024-11-08T13:00:00	5	Humedad	68
61601	7	Sololá	710	Panajachel	8	Panajachel	9	Septiembre	2023-09-20T00:00:00	2024-11-08T13:00:00	6	Velocidad del viento	1.6
61602	7	Sololá	710	Panajachel	8	Panajachel	9	Septiembre	2023-09-20T00:00:00	2024-11-08T13:00:00	7	Dirección del viento	1.61
61603	7	Sololá	710	Panajachel	8	Panajachel	9	Septiembre	2023-09-20T00:00:00	2024-11-08T13:00:00	1	Precipitación	0
61604	7	Sololá	710	Panajachel	8	Panajachel	9	Septiembre	2023-09-20T00:00:00	2024-11-08T13:00:00	8	Radiación solar	728
61605	7	Sololá	710	Panajachel	8	Panajachel	9	Septiembre	2023-09-20T00:00:00	2024-11-08T14:00:00	2	Temperatura media	24.8
61606	7	Sololá	710	Panajachel	8	Panajachel	9	Septiembre	2023-09-20T00:00:00	2024-11-08T14:00:00	4	Temperatura máxima	26.7
61607	7	Sololá	710	Panajachel	8	Panajachel	9	Septiembre	2023-09-20T00:00:00	2024-11-08T14:00:00	3	Temperatura mínima	24.8
61608	7	Sololá	710	Panajachel	8	Panajachel	9	Septiembre	2023-09-20T00:00:00	2024-11-08T14:00:00	5	Humedad	77
61609	7	Sololá	710	Panajachel	8	Panajachel	9	Septiembre	2023-09-20T00:00:00	2024-11-08T14:00:00	6	Velocidad del viento	1.6
61610	7	Sololá	710	Panajachel	8	Panajachel	9	Septiembre	2023-09-20T00:00:00	2024-11-08T14:00:00	7	Dirección del viento	1.61
61611	7	Sololá	710	Panajachel	8	Panajachel	9	Septiembre	2023-09-20T00:00:00	2024-11-08T14:00:00	1	Precipitación	0
61612	7	Sololá	710	Panajachel	8	Panajachel	9	Septiembre	2023-09-20T00:00:00	2024-11-08T14:00:00	8	Radiación solar	385
61613	7	Sololá	710	Panajachel	8	Panajachel	9	Septiembre	2023-09-20T00:00:00	2024-11-08T15:00:00	2	Temperatura media	23.6
61614	7	Sololá	710	Panajachel	8	Panajachel	9	Septiembre	2023-09-20T00:00:00	2024-11-08T15:00:00	4	Temperatura máxima	25.6
61615	7	Sololá	710	Panajachel	8	Panajachel	9	Septiembre	2023-09-20T00:00:00	2024-11-08T15:00:00	3	Temperatura mínima	23.5
61616	7	Sololá	710	Panajachel	8	Panajachel	9	Septiembre	2023-09-20T00:00:00	2024-11-08T15:00:00	5	Humedad	82
61617	7	Sololá	710	Panajachel	8	Panajachel	9	Septiembre	2023-09-20T00:00:00	2024-11-08T15:00:00	6	Velocidad del viento	6.4
61618	7	Sololá	710	Panajachel	8	Panajachel	9	Septiembre	2023-09-20T00:00:00	2024-11-08T15:00:00	7	Dirección del viento	6.44
61619	7	Sololá	710	Panajachel	8	Panajachel	9	Septiembre	2023-09-20T00:00:00	2024-11-08T15:00:00	1	Precipitación	0
61620	7	Sololá	710	Panajachel	8	Panajachel	9	Septiembre	2023-09-20T00:00:00	2024-11-08T15:00:00	8	Radiación solar	700
61621	7	Sololá	710	Panajachel	8	Panajachel	9	Septiembre	2023-09-20T00:00:00	2024-11-08T16:00:00	2	Temperatura media	22.2
61622	7	Sololá	710	Panajachel	8	Panajachel	9	Septiembre	2023-09-20T00:00:00	2024-11-08T16:00:00	4	Temperatura máxima	23.5
61623	7	Sololá	710	Panajachel	8	Panajachel	9	Septiembre	2023-09-20T00:00:00	2024-11-08T16:00:00	3	Temperatura mínima	22.2
61624	7	Sololá	710	Panajachel	8	Panajachel	9	Septiembre	2023-09-20T00:00:00	2024-11-08T16:00:00	5	Humedad	85
61625	7	Sololá	710	Panajachel	8	Panajachel	9	Septiembre	2023-09-20T00:00:00	2024-11-08T16:00:00	6	Velocidad del viento	6.4
61626	7	Sololá	710	Panajachel	8	Panajachel	9	Septiembre	2023-09-20T00:00:00	2024-11-08T16:00:00	7	Dirección del viento	6.44
61627	7	Sololá	710	Panajachel	8	Panajachel	9	Septiembre	2023-09-20T00:00:00	2024-11-08T16:00:00	1	Precipitación	0
61628	7	Sololá	710	Panajachel	8	Panajachel	9	Septiembre	2023-09-20T00:00:00	2024-11-08T16:00:00	8	Radiación solar	247
61629	7	Sololá	710	Panajachel	8	Panajachel	9	Septiembre	2023-09-20T00:00:00	2024-11-08T17:00:00	2	Temperatura media	20.7
61630	7	Sololá	710	Panajachel	8	Panajachel	9	Septiembre	2023-09-20T00:00:00	2024-11-08T17:00:00	4	Temperatura máxima	22.3
61631	7	Sololá	710	Panajachel	8	Panajachel	9	Septiembre	2023-09-20T00:00:00	2024-11-08T17:00:00	3	Temperatura mínima	20.6
61632	7	Sololá	710	Panajachel	8	Panajachel	9	Septiembre	2023-09-20T00:00:00	2024-11-08T17:00:00	5	Humedad	89
61633	7	Sololá	710	Panajachel	8	Panajachel	9	Septiembre	2023-09-20T00:00:00	2024-11-08T17:00:00	6	Velocidad del viento	3.2
61634	7	Sololá	710	Panajachel	8	Panajachel	9	Septiembre	2023-09-20T00:00:00	2024-11-08T17:00:00	7	Dirección del viento	3.22
61635	7	Sololá	710	Panajachel	8	Panajachel	9	Septiembre	2023-09-20T00:00:00	2024-11-08T17:00:00	1	Precipitación	0
61636	7	Sololá	710	Panajachel	8	Panajachel	9	Septiembre	2023-09-20T00:00:00	2024-11-08T17:00:00	8	Radiación solar	41
61637	7	Sololá	710	Panajachel	8	Panajachel	9	Septiembre	2023-09-20T00:00:00	2024-11-08T18:00:00	2	Temperatura media	20.3
61638	7	Sololá	710	Panajachel	8	Panajachel	9	Septiembre	2023-09-20T00:00:00	2024-11-08T18:00:00	4	Temperatura máxima	20.7
61639	7	Sololá	710	Panajachel	8	Panajachel	9	Septiembre	2023-09-20T00:00:00	2024-11-08T18:00:00	3	Temperatura mínima	20.2
61640	7	Sololá	710	Panajachel	8	Panajachel	9	Septiembre	2023-09-20T00:00:00	2024-11-08T18:00:00	5	Humedad	90
61641	7	Sololá	710	Panajachel	8	Panajachel	9	Septiembre	2023-09-20T00:00:00	2024-11-08T18:00:00	6	Velocidad del viento	1.6
61642	7	Sololá	710	Panajachel	8	Panajachel	9	Septiembre	2023-09-20T00:00:00	2024-11-08T18:00:00	7	Dirección del viento	1.61
61643	7	Sololá	710	Panajachel	8	Panajachel	9	Septiembre	2023-09-20T00:00:00	2024-11-08T18:00:00	1	Precipitación	0
61644	7	Sololá	710	Panajachel	8	Panajachel	9	Septiembre	2023-09-20T00:00:00	2024-11-08T18:00:00	8	Radiación solar	15
61645	7	Sololá	710	Panajachel	8	Panajachel	9	Septiembre	2023-09-20T00:00:00	2024-11-08T19:00:00	2	Temperatura media	20.2
61646	7	Sololá	710	Panajachel	8	Panajachel	9	Septiembre	2023-09-20T00:00:00	2024-11-08T19:00:00	4	Temperatura máxima	20.3
61647	7	Sololá	710	Panajachel	8	Panajachel	9	Septiembre	2023-09-20T00:00:00	2024-11-08T19:00:00	3	Temperatura mínima	20.2
61648	7	Sololá	710	Panajachel	8	Panajachel	9	Septiembre	2023-09-20T00:00:00	2024-11-08T19:00:00	5	Humedad	89
61649	7	Sololá	710	Panajachel	8	Panajachel	9	Septiembre	2023-09-20T00:00:00	2024-11-08T19:00:00	6	Velocidad del viento	0
61650	7	Sololá	710	Panajachel	8	Panajachel	9	Septiembre	2023-09-20T00:00:00	2024-11-08T19:00:00	7	Dirección del viento	0
61651	7	Sololá	710	Panajachel	8	Panajachel	9	Septiembre	2023-09-20T00:00:00	2024-11-08T19:00:00	1	Precipitación	0
61652	7	Sololá	710	Panajachel	8	Panajachel	9	Septiembre	2023-09-20T00:00:00	2024-11-08T19:00:00	8	Radiación solar	0
61653	7	Sololá	710	Panajachel	8	Panajachel	9	Septiembre	2023-09-20T00:00:00	2024-11-08T20:00:00	2	Temperatura media	19.9
61654	7	Sololá	710	Panajachel	8	Panajachel	9	Septiembre	2023-09-20T00:00:00	2024-11-08T20:00:00	4	Temperatura máxima	20.2
61655	7	Sololá	710	Panajachel	8	Panajachel	9	Septiembre	2023-09-20T00:00:00	2024-11-08T20:00:00	3	Temperatura mínima	19.9
61656	7	Sololá	710	Panajachel	8	Panajachel	9	Septiembre	2023-09-20T00:00:00	2024-11-08T20:00:00	5	Humedad	90
61657	7	Sololá	710	Panajachel	8	Panajachel	9	Septiembre	2023-09-20T00:00:00	2024-11-08T20:00:00	6	Velocidad del viento	0
61658	7	Sololá	710	Panajachel	8	Panajachel	9	Septiembre	2023-09-20T00:00:00	2024-11-08T20:00:00	7	Dirección del viento	0
61659	7	Sololá	710	Panajachel	8	Panajachel	9	Septiembre	2023-09-20T00:00:00	2024-11-08T20:00:00	1	Precipitación	0
61660	7	Sololá	710	Panajachel	8	Panajachel	9	Septiembre	2023-09-20T00:00:00	2024-11-08T20:00:00	8	Radiación solar	0
61661	7	Sololá	710	Panajachel	8	Panajachel	9	Septiembre	2023-09-20T00:00:00	2024-11-08T21:00:00	2	Temperatura media	19.4
61662	7	Sololá	710	Panajachel	8	Panajachel	9	Septiembre	2023-09-20T00:00:00	2024-11-08T21:00:00	4	Temperatura máxima	19.9
61663	7	Sololá	710	Panajachel	8	Panajachel	9	Septiembre	2023-09-20T00:00:00	2024-11-08T21:00:00	3	Temperatura mínima	19.4
61664	7	Sololá	710	Panajachel	8	Panajachel	9	Septiembre	2023-09-20T00:00:00	2024-11-08T21:00:00	5	Humedad	91
61665	7	Sololá	710	Panajachel	8	Panajachel	9	Septiembre	2023-09-20T00:00:00	2024-11-08T21:00:00	6	Velocidad del viento	0
61666	7	Sololá	710	Panajachel	8	Panajachel	9	Septiembre	2023-09-20T00:00:00	2024-11-08T21:00:00	7	Dirección del viento	0
61667	7	Sololá	710	Panajachel	8	Panajachel	9	Septiembre	2023-09-20T00:00:00	2024-11-08T21:00:00	1	Precipitación	0
61668	7	Sololá	710	Panajachel	8	Panajachel	9	Septiembre	2023-09-20T00:00:00	2024-11-08T21:00:00	8	Radiación solar	0
61669	7	Sololá	710	Panajachel	8	Panajachel	9	Septiembre	2023-09-20T00:00:00	2024-11-08T22:00:00	2	Temperatura media	19.1
61670	7	Sololá	710	Panajachel	8	Panajachel	9	Septiembre	2023-09-20T00:00:00	2024-11-08T22:00:00	4	Temperatura máxima	19.4
61671	7	Sololá	710	Panajachel	8	Panajachel	9	Septiembre	2023-09-20T00:00:00	2024-11-08T22:00:00	3	Temperatura mínima	19.1
61672	7	Sololá	710	Panajachel	8	Panajachel	9	Septiembre	2023-09-20T00:00:00	2024-11-08T22:00:00	5	Humedad	90
61673	7	Sololá	710	Panajachel	8	Panajachel	9	Septiembre	2023-09-20T00:00:00	2024-11-08T22:00:00	6	Velocidad del viento	0
61674	7	Sololá	710	Panajachel	8	Panajachel	9	Septiembre	2023-09-20T00:00:00	2024-11-08T22:00:00	7	Dirección del viento	0
61675	7	Sololá	710	Panajachel	8	Panajachel	9	Septiembre	2023-09-20T00:00:00	2024-11-08T22:00:00	1	Precipitación	0
61676	7	Sololá	710	Panajachel	8	Panajachel	9	Septiembre	2023-09-20T00:00:00	2024-11-08T22:00:00	8	Radiación solar	0
61677	7	Sololá	710	Panajachel	8	Panajachel	9	Septiembre	2023-09-20T00:00:00	2024-11-08T23:00:00	2	Temperatura media	18.9
61678	7	Sololá	710	Panajachel	8	Panajachel	9	Septiembre	2023-09-20T00:00:00	2024-11-08T23:00:00	4	Temperatura máxima	19.2
61679	7	Sololá	710	Panajachel	8	Panajachel	9	Septiembre	2023-09-20T00:00:00	2024-11-08T23:00:00	3	Temperatura mínima	18.7
61680	7	Sololá	710	Panajachel	8	Panajachel	9	Septiembre	2023-09-20T00:00:00	2024-11-08T23:00:00	5	Humedad	90
61681	7	Sololá	710	Panajachel	8	Panajachel	9	Septiembre	2023-09-20T00:00:00	2024-11-08T23:00:00	6	Velocidad del viento	0
61682	7	Sololá	710	Panajachel	8	Panajachel	9	Septiembre	2023-09-20T00:00:00	2024-11-08T23:00:00	7	Dirección del viento	0
61683	7	Sololá	710	Panajachel	8	Panajachel	9	Septiembre	2023-09-20T00:00:00	2024-11-08T23:00:00	1	Precipitación	0
61684	7	Sololá	710	Panajachel	8	Panajachel	9	Septiembre	2023-09-20T00:00:00	2024-11-08T23:00:00	8	Radiación solar	0
61685	7	Sololá	710	Panajachel	8	Panajachel	9	Septiembre	2023-09-21T00:00:00	2024-11-08T00:00:00	2	Temperatura media	18.3
61686	7	Sololá	710	Panajachel	8	Panajachel	9	Septiembre	2023-09-21T00:00:00	2024-11-08T00:00:00	4	Temperatura máxima	19
61687	7	Sololá	710	Panajachel	8	Panajachel	9	Septiembre	2023-09-21T00:00:00	2024-11-08T00:00:00	3	Temperatura mínima	18.3
61688	7	Sololá	710	Panajachel	8	Panajachel	9	Septiembre	2023-09-21T00:00:00	2024-11-08T00:00:00	5	Humedad	90
61689	7	Sololá	710	Panajachel	8	Panajachel	9	Septiembre	2023-09-21T00:00:00	2024-11-08T00:00:00	6	Velocidad del viento	0
61690	7	Sololá	710	Panajachel	8	Panajachel	9	Septiembre	2023-09-21T00:00:00	2024-11-08T00:00:00	7	Dirección del viento	0
61691	7	Sololá	710	Panajachel	8	Panajachel	9	Septiembre	2023-09-21T00:00:00	2024-11-08T00:00:00	1	Precipitación	0
61692	7	Sololá	710	Panajachel	8	Panajachel	9	Septiembre	2023-09-21T00:00:00	2024-11-08T00:00:00	8	Radiación solar	0
61693	7	Sololá	710	Panajachel	8	Panajachel	9	Septiembre	2023-09-21T00:00:00	2024-11-08T01:00:00	2	Temperatura media	17.6
61694	7	Sololá	710	Panajachel	8	Panajachel	9	Septiembre	2023-09-21T00:00:00	2024-11-08T01:00:00	4	Temperatura máxima	18.3
61695	7	Sololá	710	Panajachel	8	Panajachel	9	Septiembre	2023-09-21T00:00:00	2024-11-08T01:00:00	3	Temperatura mínima	17.5
61696	7	Sololá	710	Panajachel	8	Panajachel	9	Septiembre	2023-09-21T00:00:00	2024-11-08T01:00:00	5	Humedad	89
61697	7	Sololá	710	Panajachel	8	Panajachel	9	Septiembre	2023-09-21T00:00:00	2024-11-08T01:00:00	6	Velocidad del viento	0
61698	7	Sololá	710	Panajachel	8	Panajachel	9	Septiembre	2023-09-21T00:00:00	2024-11-08T01:00:00	7	Dirección del viento	0
61699	7	Sololá	710	Panajachel	8	Panajachel	9	Septiembre	2023-09-21T00:00:00	2024-11-08T01:00:00	1	Precipitación	0
61700	7	Sololá	710	Panajachel	8	Panajachel	9	Septiembre	2023-09-21T00:00:00	2024-11-08T01:00:00	8	Radiación solar	0
61701	7	Sololá	710	Panajachel	8	Panajachel	9	Septiembre	2023-09-21T00:00:00	2024-11-08T02:00:00	2	Temperatura media	17.5
61702	7	Sololá	710	Panajachel	8	Panajachel	9	Septiembre	2023-09-21T00:00:00	2024-11-08T02:00:00	4	Temperatura máxima	17.6
61703	7	Sololá	710	Panajachel	8	Panajachel	9	Septiembre	2023-09-21T00:00:00	2024-11-08T02:00:00	3	Temperatura mínima	17.3
61704	7	Sololá	710	Panajachel	8	Panajachel	9	Septiembre	2023-09-21T00:00:00	2024-11-08T02:00:00	5	Humedad	88
61705	7	Sololá	710	Panajachel	8	Panajachel	9	Septiembre	2023-09-21T00:00:00	2024-11-08T02:00:00	6	Velocidad del viento	0
61706	7	Sololá	710	Panajachel	8	Panajachel	9	Septiembre	2023-09-21T00:00:00	2024-11-08T02:00:00	7	Dirección del viento	0
61707	7	Sololá	710	Panajachel	8	Panajachel	9	Septiembre	2023-09-21T00:00:00	2024-11-08T02:00:00	1	Precipitación	0
61708	7	Sololá	710	Panajachel	8	Panajachel	9	Septiembre	2023-09-21T00:00:00	2024-11-08T02:00:00	8	Radiación solar	0
61709	7	Sololá	710	Panajachel	8	Panajachel	9	Septiembre	2023-09-21T00:00:00	2024-11-08T03:00:00	2	Temperatura media	17.3
61710	7	Sololá	710	Panajachel	8	Panajachel	9	Septiembre	2023-09-21T00:00:00	2024-11-08T03:00:00	4	Temperatura máxima	17.7
61711	7	Sololá	710	Panajachel	8	Panajachel	9	Septiembre	2023-09-21T00:00:00	2024-11-08T03:00:00	3	Temperatura mínima	17.2
61712	7	Sololá	710	Panajachel	8	Panajachel	9	Septiembre	2023-09-21T00:00:00	2024-11-08T03:00:00	5	Humedad	87
61713	7	Sololá	710	Panajachel	8	Panajachel	9	Septiembre	2023-09-21T00:00:00	2024-11-08T03:00:00	6	Velocidad del viento	0
61714	7	Sololá	710	Panajachel	8	Panajachel	9	Septiembre	2023-09-21T00:00:00	2024-11-08T03:00:00	7	Dirección del viento	0
61715	7	Sololá	710	Panajachel	8	Panajachel	9	Septiembre	2023-09-21T00:00:00	2024-11-08T03:00:00	1	Precipitación	0
61716	7	Sololá	710	Panajachel	8	Panajachel	9	Septiembre	2023-09-21T00:00:00	2024-11-08T03:00:00	8	Radiación solar	0
61717	7	Sololá	710	Panajachel	8	Panajachel	9	Septiembre	2023-09-21T00:00:00	2024-11-08T04:00:00	2	Temperatura media	18.8
61718	7	Sololá	710	Panajachel	8	Panajachel	9	Septiembre	2023-09-21T00:00:00	2024-11-08T04:00:00	4	Temperatura máxima	19.3
61719	7	Sololá	710	Panajachel	8	Panajachel	9	Septiembre	2023-09-21T00:00:00	2024-11-08T04:00:00	3	Temperatura mínima	17.1
61720	7	Sololá	710	Panajachel	8	Panajachel	9	Septiembre	2023-09-21T00:00:00	2024-11-08T04:00:00	5	Humedad	79
61721	7	Sololá	710	Panajachel	8	Panajachel	9	Septiembre	2023-09-21T00:00:00	2024-11-08T04:00:00	6	Velocidad del viento	1.6
61722	7	Sololá	710	Panajachel	8	Panajachel	9	Septiembre	2023-09-21T00:00:00	2024-11-08T04:00:00	7	Dirección del viento	1.61
61723	7	Sololá	710	Panajachel	8	Panajachel	9	Septiembre	2023-09-21T00:00:00	2024-11-08T04:00:00	1	Precipitación	0
61724	7	Sololá	710	Panajachel	8	Panajachel	9	Septiembre	2023-09-21T00:00:00	2024-11-08T04:00:00	8	Radiación solar	0
61725	7	Sololá	710	Panajachel	8	Panajachel	9	Septiembre	2023-09-21T00:00:00	2024-11-08T05:00:00	2	Temperatura media	17.2
61726	7	Sololá	710	Panajachel	8	Panajachel	9	Septiembre	2023-09-21T00:00:00	2024-11-08T05:00:00	4	Temperatura máxima	18.8
61727	7	Sololá	710	Panajachel	8	Panajachel	9	Septiembre	2023-09-21T00:00:00	2024-11-08T05:00:00	3	Temperatura mínima	17.1
61728	7	Sololá	710	Panajachel	8	Panajachel	9	Septiembre	2023-09-21T00:00:00	2024-11-08T05:00:00	5	Humedad	83
61729	7	Sololá	710	Panajachel	8	Panajachel	9	Septiembre	2023-09-21T00:00:00	2024-11-08T05:00:00	6	Velocidad del viento	0
61730	7	Sololá	710	Panajachel	8	Panajachel	9	Septiembre	2023-09-21T00:00:00	2024-11-08T05:00:00	7	Dirección del viento	0
61731	7	Sololá	710	Panajachel	8	Panajachel	9	Septiembre	2023-09-21T00:00:00	2024-11-08T05:00:00	1	Precipitación	0
61732	7	Sololá	710	Panajachel	8	Panajachel	9	Septiembre	2023-09-21T00:00:00	2024-11-08T05:00:00	8	Radiación solar	0
61733	7	Sololá	710	Panajachel	8	Panajachel	9	Septiembre	2023-09-21T00:00:00	2024-11-08T06:00:00	2	Temperatura media	16.9
61734	7	Sololá	710	Panajachel	8	Panajachel	9	Septiembre	2023-09-21T00:00:00	2024-11-08T06:00:00	4	Temperatura máxima	17.3
61735	7	Sololá	710	Panajachel	8	Panajachel	9	Septiembre	2023-09-21T00:00:00	2024-11-08T06:00:00	3	Temperatura mínima	16.9
61736	7	Sololá	710	Panajachel	8	Panajachel	9	Septiembre	2023-09-21T00:00:00	2024-11-08T06:00:00	5	Humedad	84
61737	7	Sololá	710	Panajachel	8	Panajachel	9	Septiembre	2023-09-21T00:00:00	2024-11-08T06:00:00	6	Velocidad del viento	0
61738	7	Sololá	710	Panajachel	8	Panajachel	9	Septiembre	2023-09-21T00:00:00	2024-11-08T06:00:00	7	Dirección del viento	0
61739	7	Sololá	710	Panajachel	8	Panajachel	9	Septiembre	2023-09-21T00:00:00	2024-11-08T06:00:00	1	Precipitación	0
61740	7	Sololá	710	Panajachel	8	Panajachel	9	Septiembre	2023-09-21T00:00:00	2024-11-08T06:00:00	8	Radiación solar	0
61741	7	Sololá	710	Panajachel	8	Panajachel	9	Septiembre	2023-09-21T00:00:00	2024-11-08T07:00:00	2	Temperatura media	20.8
61742	7	Sololá	710	Panajachel	8	Panajachel	9	Septiembre	2023-09-21T00:00:00	2024-11-08T07:00:00	4	Temperatura máxima	20.8
61743	7	Sololá	710	Panajachel	8	Panajachel	9	Septiembre	2023-09-21T00:00:00	2024-11-08T07:00:00	3	Temperatura mínima	16.8
61744	7	Sololá	710	Panajachel	8	Panajachel	9	Septiembre	2023-09-21T00:00:00	2024-11-08T07:00:00	5	Humedad	73
61745	7	Sololá	710	Panajachel	8	Panajachel	9	Septiembre	2023-09-21T00:00:00	2024-11-08T07:00:00	6	Velocidad del viento	1.6
61746	7	Sololá	710	Panajachel	8	Panajachel	9	Septiembre	2023-09-21T00:00:00	2024-11-08T07:00:00	7	Dirección del viento	1.61
61747	7	Sololá	710	Panajachel	8	Panajachel	9	Septiembre	2023-09-21T00:00:00	2024-11-08T07:00:00	1	Precipitación	0
61748	7	Sololá	710	Panajachel	8	Panajachel	9	Septiembre	2023-09-21T00:00:00	2024-11-08T07:00:00	8	Radiación solar	82
61749	7	Sololá	710	Panajachel	8	Panajachel	9	Septiembre	2023-09-21T00:00:00	2024-11-08T08:00:00	2	Temperatura media	22.7
61750	7	Sololá	710	Panajachel	8	Panajachel	9	Septiembre	2023-09-21T00:00:00	2024-11-08T08:00:00	4	Temperatura máxima	22.7
61751	7	Sololá	710	Panajachel	8	Panajachel	9	Septiembre	2023-09-21T00:00:00	2024-11-08T08:00:00	3	Temperatura mínima	20.8
61752	7	Sololá	710	Panajachel	8	Panajachel	9	Septiembre	2023-09-21T00:00:00	2024-11-08T08:00:00	5	Humedad	68
61753	7	Sololá	710	Panajachel	8	Panajachel	9	Septiembre	2023-09-21T00:00:00	2024-11-08T08:00:00	6	Velocidad del viento	3.2
61754	7	Sololá	710	Panajachel	8	Panajachel	9	Septiembre	2023-09-21T00:00:00	2024-11-08T08:00:00	7	Dirección del viento	3.22
61755	7	Sololá	710	Panajachel	8	Panajachel	9	Septiembre	2023-09-21T00:00:00	2024-11-08T08:00:00	1	Precipitación	0
61756	7	Sololá	710	Panajachel	8	Panajachel	9	Septiembre	2023-09-21T00:00:00	2024-11-08T08:00:00	8	Radiación solar	321
61757	7	Sololá	710	Panajachel	8	Panajachel	9	Septiembre	2023-09-21T00:00:00	2024-11-08T09:00:00	2	Temperatura media	24.7
61758	7	Sololá	710	Panajachel	8	Panajachel	9	Septiembre	2023-09-21T00:00:00	2024-11-08T09:00:00	4	Temperatura máxima	24.7
61759	7	Sololá	710	Panajachel	8	Panajachel	9	Septiembre	2023-09-21T00:00:00	2024-11-08T09:00:00	3	Temperatura mínima	22.7
61760	7	Sololá	710	Panajachel	8	Panajachel	9	Septiembre	2023-09-21T00:00:00	2024-11-08T09:00:00	5	Humedad	62
61761	7	Sololá	710	Panajachel	8	Panajachel	9	Septiembre	2023-09-21T00:00:00	2024-11-08T09:00:00	6	Velocidad del viento	1.6
61762	7	Sololá	710	Panajachel	8	Panajachel	9	Septiembre	2023-09-21T00:00:00	2024-11-08T09:00:00	7	Dirección del viento	1.61
61763	7	Sololá	710	Panajachel	8	Panajachel	9	Septiembre	2023-09-21T00:00:00	2024-11-08T09:00:00	1	Precipitación	0
61764	7	Sololá	710	Panajachel	8	Panajachel	9	Septiembre	2023-09-21T00:00:00	2024-11-08T09:00:00	8	Radiación solar	594
61765	7	Sololá	710	Panajachel	8	Panajachel	9	Septiembre	2023-09-21T00:00:00	2024-11-08T10:00:00	2	Temperatura media	24.8
61766	7	Sololá	710	Panajachel	8	Panajachel	9	Septiembre	2023-09-21T00:00:00	2024-11-08T10:00:00	4	Temperatura máxima	24.9
61767	7	Sololá	710	Panajachel	8	Panajachel	9	Septiembre	2023-09-21T00:00:00	2024-11-08T10:00:00	3	Temperatura mínima	23.7
61768	7	Sololá	710	Panajachel	8	Panajachel	9	Septiembre	2023-09-21T00:00:00	2024-11-08T10:00:00	5	Humedad	66
61769	7	Sololá	710	Panajachel	8	Panajachel	9	Septiembre	2023-09-21T00:00:00	2024-11-08T10:00:00	6	Velocidad del viento	3.2
61770	7	Sololá	710	Panajachel	8	Panajachel	9	Septiembre	2023-09-21T00:00:00	2024-11-08T10:00:00	7	Dirección del viento	3.22
61771	7	Sololá	710	Panajachel	8	Panajachel	9	Septiembre	2023-09-21T00:00:00	2024-11-08T10:00:00	1	Precipitación	0
61772	7	Sololá	710	Panajachel	8	Panajachel	9	Septiembre	2023-09-21T00:00:00	2024-11-08T10:00:00	8	Radiación solar	779
61773	7	Sololá	710	Panajachel	8	Panajachel	9	Septiembre	2023-09-21T00:00:00	2024-11-08T11:00:00	2	Temperatura media	24.8
61774	7	Sololá	710	Panajachel	8	Panajachel	9	Septiembre	2023-09-21T00:00:00	2024-11-08T11:00:00	4	Temperatura máxima	25
61775	7	Sololá	710	Panajachel	8	Panajachel	9	Septiembre	2023-09-21T00:00:00	2024-11-08T11:00:00	3	Temperatura mínima	24.4
61776	7	Sololá	710	Panajachel	8	Panajachel	9	Septiembre	2023-09-21T00:00:00	2024-11-08T11:00:00	5	Humedad	71
61777	7	Sololá	710	Panajachel	8	Panajachel	9	Septiembre	2023-09-21T00:00:00	2024-11-08T11:00:00	6	Velocidad del viento	3.2
61778	7	Sololá	710	Panajachel	8	Panajachel	9	Septiembre	2023-09-21T00:00:00	2024-11-08T11:00:00	7	Dirección del viento	3.22
61779	7	Sololá	710	Panajachel	8	Panajachel	9	Septiembre	2023-09-21T00:00:00	2024-11-08T11:00:00	1	Precipitación	0
61780	7	Sololá	710	Panajachel	8	Panajachel	9	Septiembre	2023-09-21T00:00:00	2024-11-08T11:00:00	8	Radiación solar	847
61781	7	Sololá	710	Panajachel	8	Panajachel	9	Septiembre	2023-09-21T00:00:00	2024-11-08T12:00:00	2	Temperatura media	24.8
61782	7	Sololá	710	Panajachel	8	Panajachel	9	Septiembre	2023-09-21T00:00:00	2024-11-08T12:00:00	4	Temperatura máxima	25.8
61783	7	Sololá	710	Panajachel	8	Panajachel	9	Septiembre	2023-09-21T00:00:00	2024-11-08T12:00:00	3	Temperatura mínima	24.8
61784	7	Sololá	710	Panajachel	8	Panajachel	9	Septiembre	2023-09-21T00:00:00	2024-11-08T12:00:00	5	Humedad	72
61785	7	Sololá	710	Panajachel	8	Panajachel	9	Septiembre	2023-09-21T00:00:00	2024-11-08T12:00:00	6	Velocidad del viento	3.2
61786	7	Sololá	710	Panajachel	8	Panajachel	9	Septiembre	2023-09-21T00:00:00	2024-11-08T12:00:00	7	Dirección del viento	3.22
61787	7	Sololá	710	Panajachel	8	Panajachel	9	Septiembre	2023-09-21T00:00:00	2024-11-08T12:00:00	1	Precipitación	0
61788	7	Sololá	710	Panajachel	8	Panajachel	9	Septiembre	2023-09-21T00:00:00	2024-11-08T12:00:00	8	Radiación solar	669
61789	7	Sololá	710	Panajachel	8	Panajachel	9	Septiembre	2023-09-21T00:00:00	2024-11-08T13:00:00	2	Temperatura media	24.7
61790	7	Sololá	710	Panajachel	8	Panajachel	9	Septiembre	2023-09-21T00:00:00	2024-11-08T13:00:00	4	Temperatura máxima	25.4
61791	7	Sololá	710	Panajachel	8	Panajachel	9	Septiembre	2023-09-21T00:00:00	2024-11-08T13:00:00	3	Temperatura mínima	24.4
61792	7	Sololá	710	Panajachel	8	Panajachel	9	Septiembre	2023-09-21T00:00:00	2024-11-08T13:00:00	5	Humedad	76
61793	7	Sololá	710	Panajachel	8	Panajachel	9	Septiembre	2023-09-21T00:00:00	2024-11-08T13:00:00	6	Velocidad del viento	3.2
61794	7	Sololá	710	Panajachel	8	Panajachel	9	Septiembre	2023-09-21T00:00:00	2024-11-08T13:00:00	7	Dirección del viento	3.22
61795	7	Sololá	710	Panajachel	8	Panajachel	9	Septiembre	2023-09-21T00:00:00	2024-11-08T13:00:00	1	Precipitación	0
61796	7	Sololá	710	Panajachel	8	Panajachel	9	Septiembre	2023-09-21T00:00:00	2024-11-08T13:00:00	8	Radiación solar	681
61797	7	Sololá	710	Panajachel	8	Panajachel	9	Septiembre	2023-09-21T00:00:00	2024-11-08T14:00:00	2	Temperatura media	26.4
61798	7	Sololá	710	Panajachel	8	Panajachel	9	Septiembre	2023-09-21T00:00:00	2024-11-08T14:00:00	4	Temperatura máxima	26.4
61799	7	Sololá	710	Panajachel	8	Panajachel	9	Septiembre	2023-09-21T00:00:00	2024-11-08T14:00:00	3	Temperatura mínima	24.6
61800	7	Sololá	710	Panajachel	8	Panajachel	9	Septiembre	2023-09-21T00:00:00	2024-11-08T14:00:00	5	Humedad	72
61801	7	Sololá	710	Panajachel	8	Panajachel	9	Septiembre	2023-09-21T00:00:00	2024-11-08T14:00:00	6	Velocidad del viento	0
61802	7	Sololá	710	Panajachel	8	Panajachel	9	Septiembre	2023-09-21T00:00:00	2024-11-08T14:00:00	7	Dirección del viento	0
61803	7	Sololá	710	Panajachel	8	Panajachel	9	Septiembre	2023-09-21T00:00:00	2024-11-08T14:00:00	1	Precipitación	0
61804	7	Sololá	710	Panajachel	8	Panajachel	9	Septiembre	2023-09-21T00:00:00	2024-11-08T14:00:00	8	Radiación solar	787
61805	7	Sololá	710	Panajachel	8	Panajachel	9	Septiembre	2023-09-21T00:00:00	2024-11-08T15:00:00	2	Temperatura media	26.7
61806	7	Sololá	710	Panajachel	8	Panajachel	9	Septiembre	2023-09-21T00:00:00	2024-11-08T15:00:00	4	Temperatura máxima	27.3
61807	7	Sololá	710	Panajachel	8	Panajachel	9	Septiembre	2023-09-21T00:00:00	2024-11-08T15:00:00	3	Temperatura mínima	25.9
61808	7	Sololá	710	Panajachel	8	Panajachel	9	Septiembre	2023-09-21T00:00:00	2024-11-08T15:00:00	5	Humedad	64
61809	7	Sololá	710	Panajachel	8	Panajachel	9	Septiembre	2023-09-21T00:00:00	2024-11-08T15:00:00	6	Velocidad del viento	1.6
61810	7	Sololá	710	Panajachel	8	Panajachel	9	Septiembre	2023-09-21T00:00:00	2024-11-08T15:00:00	7	Dirección del viento	1.61
61811	7	Sololá	710	Panajachel	8	Panajachel	9	Septiembre	2023-09-21T00:00:00	2024-11-08T15:00:00	1	Precipitación	0
61812	7	Sololá	710	Panajachel	8	Panajachel	9	Septiembre	2023-09-21T00:00:00	2024-11-08T15:00:00	8	Radiación solar	332
61813	7	Sololá	710	Panajachel	8	Panajachel	9	Septiembre	2023-09-21T00:00:00	2024-11-08T16:00:00	2	Temperatura media	25.3
61814	7	Sololá	710	Panajachel	8	Panajachel	9	Septiembre	2023-09-21T00:00:00	2024-11-08T16:00:00	4	Temperatura máxima	26.7
61815	7	Sololá	710	Panajachel	8	Panajachel	9	Septiembre	2023-09-21T00:00:00	2024-11-08T16:00:00	3	Temperatura mínima	24.4
61816	7	Sololá	710	Panajachel	8	Panajachel	9	Septiembre	2023-09-21T00:00:00	2024-11-08T16:00:00	5	Humedad	79
61817	7	Sololá	710	Panajachel	8	Panajachel	9	Septiembre	2023-09-21T00:00:00	2024-11-08T16:00:00	6	Velocidad del viento	4.8
61818	7	Sololá	710	Panajachel	8	Panajachel	9	Septiembre	2023-09-21T00:00:00	2024-11-08T16:00:00	7	Dirección del viento	4.83
61819	7	Sololá	710	Panajachel	8	Panajachel	9	Septiembre	2023-09-21T00:00:00	2024-11-08T16:00:00	1	Precipitación	0
61820	7	Sololá	710	Panajachel	8	Panajachel	9	Septiembre	2023-09-21T00:00:00	2024-11-08T16:00:00	8	Radiación solar	245
61821	7	Sololá	710	Panajachel	8	Panajachel	9	Septiembre	2023-09-21T00:00:00	2024-11-08T17:00:00	2	Temperatura media	22.6
61822	7	Sololá	710	Panajachel	8	Panajachel	9	Septiembre	2023-09-21T00:00:00	2024-11-08T17:00:00	4	Temperatura máxima	25.3
61823	7	Sololá	710	Panajachel	8	Panajachel	9	Septiembre	2023-09-21T00:00:00	2024-11-08T17:00:00	3	Temperatura mínima	22.6
61824	7	Sololá	710	Panajachel	8	Panajachel	9	Septiembre	2023-09-21T00:00:00	2024-11-08T17:00:00	5	Humedad	89
61825	7	Sololá	710	Panajachel	8	Panajachel	9	Septiembre	2023-09-21T00:00:00	2024-11-08T17:00:00	6	Velocidad del viento	4.8
61826	7	Sololá	710	Panajachel	8	Panajachel	9	Septiembre	2023-09-21T00:00:00	2024-11-08T17:00:00	7	Dirección del viento	4.83
61827	7	Sololá	710	Panajachel	8	Panajachel	9	Septiembre	2023-09-21T00:00:00	2024-11-08T17:00:00	1	Precipitación	0
61828	7	Sololá	710	Panajachel	8	Panajachel	9	Septiembre	2023-09-21T00:00:00	2024-11-08T17:00:00	8	Radiación solar	137
61829	7	Sololá	710	Panajachel	8	Panajachel	9	Septiembre	2023-09-21T00:00:00	2024-11-08T18:00:00	2	Temperatura media	21.7
61830	7	Sololá	710	Panajachel	8	Panajachel	9	Septiembre	2023-09-21T00:00:00	2024-11-08T18:00:00	4	Temperatura máxima	22.5
61831	7	Sololá	710	Panajachel	8	Panajachel	9	Septiembre	2023-09-21T00:00:00	2024-11-08T18:00:00	3	Temperatura mínima	21.6
61832	7	Sololá	710	Panajachel	8	Panajachel	9	Septiembre	2023-09-21T00:00:00	2024-11-08T18:00:00	5	Humedad	85
61833	7	Sololá	710	Panajachel	8	Panajachel	9	Septiembre	2023-09-21T00:00:00	2024-11-08T18:00:00	6	Velocidad del viento	1.6
61834	7	Sololá	710	Panajachel	8	Panajachel	9	Septiembre	2023-09-21T00:00:00	2024-11-08T18:00:00	7	Dirección del viento	1.61
61835	7	Sololá	710	Panajachel	8	Panajachel	9	Septiembre	2023-09-21T00:00:00	2024-11-08T18:00:00	1	Precipitación	0
61836	7	Sololá	710	Panajachel	8	Panajachel	9	Septiembre	2023-09-21T00:00:00	2024-11-08T18:00:00	8	Radiación solar	10
61837	7	Sololá	710	Panajachel	8	Panajachel	9	Septiembre	2023-09-21T00:00:00	2024-11-08T19:00:00	2	Temperatura media	21.3
61838	7	Sololá	710	Panajachel	8	Panajachel	9	Septiembre	2023-09-21T00:00:00	2024-11-08T19:00:00	4	Temperatura máxima	21.7
61839	7	Sololá	710	Panajachel	8	Panajachel	9	Septiembre	2023-09-21T00:00:00	2024-11-08T19:00:00	3	Temperatura mínima	21.3
61840	7	Sololá	710	Panajachel	8	Panajachel	9	Septiembre	2023-09-21T00:00:00	2024-11-08T19:00:00	5	Humedad	88
61841	7	Sololá	710	Panajachel	8	Panajachel	9	Septiembre	2023-09-21T00:00:00	2024-11-08T19:00:00	6	Velocidad del viento	0
61842	7	Sololá	710	Panajachel	8	Panajachel	9	Septiembre	2023-09-21T00:00:00	2024-11-08T19:00:00	7	Dirección del viento	0
61843	7	Sololá	710	Panajachel	8	Panajachel	9	Septiembre	2023-09-21T00:00:00	2024-11-08T19:00:00	1	Precipitación	0
61844	7	Sololá	710	Panajachel	8	Panajachel	9	Septiembre	2023-09-21T00:00:00	2024-11-08T19:00:00	8	Radiación solar	0
61845	7	Sololá	710	Panajachel	8	Panajachel	9	Septiembre	2023-09-21T00:00:00	2024-11-08T20:00:00	2	Temperatura media	20.6
61846	7	Sololá	710	Panajachel	8	Panajachel	9	Septiembre	2023-09-21T00:00:00	2024-11-08T20:00:00	4	Temperatura máxima	21.3
61847	7	Sololá	710	Panajachel	8	Panajachel	9	Septiembre	2023-09-21T00:00:00	2024-11-08T20:00:00	3	Temperatura mínima	20.6
61848	7	Sololá	710	Panajachel	8	Panajachel	9	Septiembre	2023-09-21T00:00:00	2024-11-08T20:00:00	5	Humedad	90
61849	7	Sololá	710	Panajachel	8	Panajachel	9	Septiembre	2023-09-21T00:00:00	2024-11-08T20:00:00	6	Velocidad del viento	0
61850	7	Sololá	710	Panajachel	8	Panajachel	9	Septiembre	2023-09-21T00:00:00	2024-11-08T20:00:00	7	Dirección del viento	0
61851	7	Sololá	710	Panajachel	8	Panajachel	9	Septiembre	2023-09-21T00:00:00	2024-11-08T20:00:00	1	Precipitación	0
61852	7	Sololá	710	Panajachel	8	Panajachel	9	Septiembre	2023-09-21T00:00:00	2024-11-08T20:00:00	8	Radiación solar	0
61853	7	Sololá	710	Panajachel	8	Panajachel	9	Septiembre	2023-09-21T00:00:00	2024-11-08T21:00:00	2	Temperatura media	19.6
61854	7	Sololá	710	Panajachel	8	Panajachel	9	Septiembre	2023-09-21T00:00:00	2024-11-08T21:00:00	4	Temperatura máxima	20.7
61855	7	Sololá	710	Panajachel	8	Panajachel	9	Septiembre	2023-09-21T00:00:00	2024-11-08T21:00:00	3	Temperatura mínima	19.6
61856	7	Sololá	710	Panajachel	8	Panajachel	9	Septiembre	2023-09-21T00:00:00	2024-11-08T21:00:00	5	Humedad	95
61857	7	Sololá	710	Panajachel	8	Panajachel	9	Septiembre	2023-09-21T00:00:00	2024-11-08T21:00:00	6	Velocidad del viento	0
61858	7	Sololá	710	Panajachel	8	Panajachel	9	Septiembre	2023-09-21T00:00:00	2024-11-08T21:00:00	7	Dirección del viento	0
61859	7	Sololá	710	Panajachel	8	Panajachel	9	Septiembre	2023-09-21T00:00:00	2024-11-08T21:00:00	1	Precipitación	6.8
61860	7	Sololá	710	Panajachel	8	Panajachel	9	Septiembre	2023-09-21T00:00:00	2024-11-08T21:00:00	8	Radiación solar	0
61861	7	Sololá	710	Panajachel	8	Panajachel	9	Septiembre	2023-09-21T00:00:00	2024-11-08T22:00:00	2	Temperatura media	19.2
61862	7	Sololá	710	Panajachel	8	Panajachel	9	Septiembre	2023-09-21T00:00:00	2024-11-08T22:00:00	4	Temperatura máxima	19.6
61863	7	Sololá	710	Panajachel	8	Panajachel	9	Septiembre	2023-09-21T00:00:00	2024-11-08T22:00:00	3	Temperatura mínima	19.2
61864	7	Sololá	710	Panajachel	8	Panajachel	9	Septiembre	2023-09-21T00:00:00	2024-11-08T22:00:00	5	Humedad	97
61865	7	Sololá	710	Panajachel	8	Panajachel	9	Septiembre	2023-09-21T00:00:00	2024-11-08T22:00:00	6	Velocidad del viento	0
61866	7	Sololá	710	Panajachel	8	Panajachel	9	Septiembre	2023-09-21T00:00:00	2024-11-08T22:00:00	7	Dirección del viento	0
61867	7	Sololá	710	Panajachel	8	Panajachel	9	Septiembre	2023-09-21T00:00:00	2024-11-08T22:00:00	1	Precipitación	6.4
61868	7	Sololá	710	Panajachel	8	Panajachel	9	Septiembre	2023-09-21T00:00:00	2024-11-08T22:00:00	8	Radiación solar	0
61869	7	Sololá	710	Panajachel	8	Panajachel	9	Septiembre	2023-09-21T00:00:00	2024-11-08T23:00:00	2	Temperatura media	19.1
61870	7	Sololá	710	Panajachel	8	Panajachel	9	Septiembre	2023-09-21T00:00:00	2024-11-08T23:00:00	4	Temperatura máxima	19.4
61871	7	Sololá	710	Panajachel	8	Panajachel	9	Septiembre	2023-09-21T00:00:00	2024-11-08T23:00:00	3	Temperatura mínima	19.1
61872	7	Sololá	710	Panajachel	8	Panajachel	9	Septiembre	2023-09-21T00:00:00	2024-11-08T23:00:00	5	Humedad	95
61873	7	Sololá	710	Panajachel	8	Panajachel	9	Septiembre	2023-09-21T00:00:00	2024-11-08T23:00:00	6	Velocidad del viento	0
61874	7	Sololá	710	Panajachel	8	Panajachel	9	Septiembre	2023-09-21T00:00:00	2024-11-08T23:00:00	7	Dirección del viento	0
61875	7	Sololá	710	Panajachel	8	Panajachel	9	Septiembre	2023-09-21T00:00:00	2024-11-08T23:00:00	1	Precipitación	0.2
61876	7	Sololá	710	Panajachel	8	Panajachel	9	Septiembre	2023-09-21T00:00:00	2024-11-08T23:00:00	8	Radiación solar	0
61877	7	Sololá	710	Panajachel	8	Panajachel	9	Septiembre	2023-09-22T00:00:00	2024-11-08T00:00:00	2	Temperatura media	18.9
61878	7	Sololá	710	Panajachel	8	Panajachel	9	Septiembre	2023-09-22T00:00:00	2024-11-08T00:00:00	4	Temperatura máxima	19.1
61879	7	Sololá	710	Panajachel	8	Panajachel	9	Septiembre	2023-09-22T00:00:00	2024-11-08T00:00:00	3	Temperatura mínima	18.8
61880	7	Sololá	710	Panajachel	8	Panajachel	9	Septiembre	2023-09-22T00:00:00	2024-11-08T00:00:00	5	Humedad	97
61881	7	Sololá	710	Panajachel	8	Panajachel	9	Septiembre	2023-09-22T00:00:00	2024-11-08T00:00:00	6	Velocidad del viento	0
61882	7	Sololá	710	Panajachel	8	Panajachel	9	Septiembre	2023-09-22T00:00:00	2024-11-08T00:00:00	7	Dirección del viento	0
61883	7	Sololá	710	Panajachel	8	Panajachel	9	Septiembre	2023-09-22T00:00:00	2024-11-08T00:00:00	1	Precipitación	0
61884	7	Sololá	710	Panajachel	8	Panajachel	9	Septiembre	2023-09-22T00:00:00	2024-11-08T00:00:00	8	Radiación solar	0
61885	7	Sololá	710	Panajachel	8	Panajachel	9	Septiembre	2023-09-22T00:00:00	2024-11-08T01:00:00	2	Temperatura media	18.4
61886	7	Sololá	710	Panajachel	8	Panajachel	9	Septiembre	2023-09-22T00:00:00	2024-11-08T01:00:00	4	Temperatura máxima	18.9
61887	7	Sololá	710	Panajachel	8	Panajachel	9	Septiembre	2023-09-22T00:00:00	2024-11-08T01:00:00	3	Temperatura mínima	18.3
61888	7	Sololá	710	Panajachel	8	Panajachel	9	Septiembre	2023-09-22T00:00:00	2024-11-08T01:00:00	5	Humedad	96
61889	7	Sololá	710	Panajachel	8	Panajachel	9	Septiembre	2023-09-22T00:00:00	2024-11-08T01:00:00	6	Velocidad del viento	0
61890	7	Sololá	710	Panajachel	8	Panajachel	9	Septiembre	2023-09-22T00:00:00	2024-11-08T01:00:00	7	Dirección del viento	0
61891	7	Sololá	710	Panajachel	8	Panajachel	9	Septiembre	2023-09-22T00:00:00	2024-11-08T01:00:00	1	Precipitación	0
61892	7	Sololá	710	Panajachel	8	Panajachel	9	Septiembre	2023-09-22T00:00:00	2024-11-08T01:00:00	8	Radiación solar	0
61893	7	Sololá	710	Panajachel	8	Panajachel	9	Septiembre	2023-09-22T00:00:00	2024-11-08T02:00:00	2	Temperatura media	17.9
61894	7	Sololá	710	Panajachel	8	Panajachel	9	Septiembre	2023-09-22T00:00:00	2024-11-08T02:00:00	4	Temperatura máxima	18.4
61895	7	Sololá	710	Panajachel	8	Panajachel	9	Septiembre	2023-09-22T00:00:00	2024-11-08T02:00:00	3	Temperatura mínima	17.9
61896	7	Sololá	710	Panajachel	8	Panajachel	9	Septiembre	2023-09-22T00:00:00	2024-11-08T02:00:00	5	Humedad	96
61897	7	Sololá	710	Panajachel	8	Panajachel	9	Septiembre	2023-09-22T00:00:00	2024-11-08T02:00:00	6	Velocidad del viento	0
61898	7	Sololá	710	Panajachel	8	Panajachel	9	Septiembre	2023-09-22T00:00:00	2024-11-08T02:00:00	7	Dirección del viento	0
61899	7	Sololá	710	Panajachel	8	Panajachel	9	Septiembre	2023-09-22T00:00:00	2024-11-08T02:00:00	1	Precipitación	0
61900	7	Sololá	710	Panajachel	8	Panajachel	9	Septiembre	2023-09-22T00:00:00	2024-11-08T02:00:00	8	Radiación solar	0
61901	7	Sololá	710	Panajachel	8	Panajachel	9	Septiembre	2023-09-22T00:00:00	2024-11-08T03:00:00	2	Temperatura media	17.5
61902	7	Sololá	710	Panajachel	8	Panajachel	9	Septiembre	2023-09-22T00:00:00	2024-11-08T03:00:00	4	Temperatura máxima	18
61903	7	Sololá	710	Panajachel	8	Panajachel	9	Septiembre	2023-09-22T00:00:00	2024-11-08T03:00:00	3	Temperatura mínima	17.4
61904	7	Sololá	710	Panajachel	8	Panajachel	9	Septiembre	2023-09-22T00:00:00	2024-11-08T03:00:00	5	Humedad	95
61905	7	Sololá	710	Panajachel	8	Panajachel	9	Septiembre	2023-09-22T00:00:00	2024-11-08T03:00:00	6	Velocidad del viento	0
61906	7	Sololá	710	Panajachel	8	Panajachel	9	Septiembre	2023-09-22T00:00:00	2024-11-08T03:00:00	7	Dirección del viento	0
61907	7	Sololá	710	Panajachel	8	Panajachel	9	Septiembre	2023-09-22T00:00:00	2024-11-08T03:00:00	1	Precipitación	0
61908	7	Sololá	710	Panajachel	8	Panajachel	9	Septiembre	2023-09-22T00:00:00	2024-11-08T03:00:00	8	Radiación solar	0
61909	7	Sololá	710	Panajachel	8	Panajachel	9	Septiembre	2023-09-22T00:00:00	2024-11-08T04:00:00	2	Temperatura media	17.8
61910	7	Sololá	710	Panajachel	8	Panajachel	9	Septiembre	2023-09-22T00:00:00	2024-11-08T04:00:00	4	Temperatura máxima	17.8
61911	7	Sololá	710	Panajachel	8	Panajachel	9	Septiembre	2023-09-22T00:00:00	2024-11-08T04:00:00	3	Temperatura mínima	17.3
61912	7	Sololá	710	Panajachel	8	Panajachel	9	Septiembre	2023-09-22T00:00:00	2024-11-08T04:00:00	5	Humedad	90
61913	7	Sololá	710	Panajachel	8	Panajachel	9	Septiembre	2023-09-22T00:00:00	2024-11-08T04:00:00	6	Velocidad del viento	0
61914	7	Sololá	710	Panajachel	8	Panajachel	9	Septiembre	2023-09-22T00:00:00	2024-11-08T04:00:00	7	Dirección del viento	0
61915	7	Sololá	710	Panajachel	8	Panajachel	9	Septiembre	2023-09-22T00:00:00	2024-11-08T04:00:00	1	Precipitación	0
61916	7	Sololá	710	Panajachel	8	Panajachel	9	Septiembre	2023-09-22T00:00:00	2024-11-08T04:00:00	8	Radiación solar	0
61917	7	Sololá	710	Panajachel	8	Panajachel	9	Septiembre	2023-09-22T00:00:00	2024-11-08T05:00:00	2	Temperatura media	17.2
61918	7	Sololá	710	Panajachel	8	Panajachel	9	Septiembre	2023-09-22T00:00:00	2024-11-08T05:00:00	4	Temperatura máxima	18.2
61919	7	Sololá	710	Panajachel	8	Panajachel	9	Septiembre	2023-09-22T00:00:00	2024-11-08T05:00:00	3	Temperatura mínima	17.2
61920	7	Sololá	710	Panajachel	8	Panajachel	9	Septiembre	2023-09-22T00:00:00	2024-11-08T05:00:00	5	Humedad	94
61921	7	Sololá	710	Panajachel	8	Panajachel	9	Septiembre	2023-09-22T00:00:00	2024-11-08T05:00:00	6	Velocidad del viento	0
61922	7	Sololá	710	Panajachel	8	Panajachel	9	Septiembre	2023-09-22T00:00:00	2024-11-08T05:00:00	7	Dirección del viento	0
61923	7	Sololá	710	Panajachel	8	Panajachel	9	Septiembre	2023-09-22T00:00:00	2024-11-08T05:00:00	1	Precipitación	0
61924	7	Sololá	710	Panajachel	8	Panajachel	9	Septiembre	2023-09-22T00:00:00	2024-11-08T05:00:00	8	Radiación solar	0
61925	7	Sololá	710	Panajachel	8	Panajachel	9	Septiembre	2023-09-22T00:00:00	2024-11-08T06:00:00	2	Temperatura media	16.6
61926	7	Sololá	710	Panajachel	8	Panajachel	9	Septiembre	2023-09-22T00:00:00	2024-11-08T06:00:00	4	Temperatura máxima	17.2
61927	7	Sololá	710	Panajachel	8	Panajachel	9	Septiembre	2023-09-22T00:00:00	2024-11-08T06:00:00	3	Temperatura mínima	16.6
61928	7	Sololá	710	Panajachel	8	Panajachel	9	Septiembre	2023-09-22T00:00:00	2024-11-08T06:00:00	5	Humedad	94
61929	7	Sololá	710	Panajachel	8	Panajachel	9	Septiembre	2023-09-22T00:00:00	2024-11-08T06:00:00	6	Velocidad del viento	0
61930	7	Sololá	710	Panajachel	8	Panajachel	9	Septiembre	2023-09-22T00:00:00	2024-11-08T06:00:00	7	Dirección del viento	0
61931	7	Sololá	710	Panajachel	8	Panajachel	9	Septiembre	2023-09-22T00:00:00	2024-11-08T06:00:00	1	Precipitación	0
61932	7	Sololá	710	Panajachel	8	Panajachel	9	Septiembre	2023-09-22T00:00:00	2024-11-08T06:00:00	8	Radiación solar	0
61933	7	Sololá	710	Panajachel	8	Panajachel	9	Septiembre	2023-09-22T00:00:00	2024-11-08T07:00:00	2	Temperatura media	17.7
61934	7	Sololá	710	Panajachel	8	Panajachel	9	Septiembre	2023-09-22T00:00:00	2024-11-08T07:00:00	4	Temperatura máxima	17.7
61935	7	Sololá	710	Panajachel	8	Panajachel	9	Septiembre	2023-09-22T00:00:00	2024-11-08T07:00:00	3	Temperatura mínima	16.6
61936	7	Sololá	710	Panajachel	8	Panajachel	9	Septiembre	2023-09-22T00:00:00	2024-11-08T07:00:00	5	Humedad	91
61937	7	Sololá	710	Panajachel	8	Panajachel	9	Septiembre	2023-09-22T00:00:00	2024-11-08T07:00:00	6	Velocidad del viento	0
61938	7	Sololá	710	Panajachel	8	Panajachel	9	Septiembre	2023-09-22T00:00:00	2024-11-08T07:00:00	7	Dirección del viento	0
61939	7	Sololá	710	Panajachel	8	Panajachel	9	Septiembre	2023-09-22T00:00:00	2024-11-08T07:00:00	1	Precipitación	0
61940	7	Sololá	710	Panajachel	8	Panajachel	9	Septiembre	2023-09-22T00:00:00	2024-11-08T07:00:00	8	Radiación solar	45
61941	7	Sololá	710	Panajachel	8	Panajachel	9	Septiembre	2023-09-22T00:00:00	2024-11-08T08:00:00	2	Temperatura media	22.4
61942	7	Sololá	710	Panajachel	8	Panajachel	9	Septiembre	2023-09-22T00:00:00	2024-11-08T08:00:00	4	Temperatura máxima	22.4
61943	7	Sololá	710	Panajachel	8	Panajachel	9	Septiembre	2023-09-22T00:00:00	2024-11-08T08:00:00	3	Temperatura mínima	17.7
61944	7	Sololá	710	Panajachel	8	Panajachel	9	Septiembre	2023-09-22T00:00:00	2024-11-08T08:00:00	5	Humedad	73
61945	7	Sololá	710	Panajachel	8	Panajachel	9	Septiembre	2023-09-22T00:00:00	2024-11-08T08:00:00	6	Velocidad del viento	1.6
61946	7	Sololá	710	Panajachel	8	Panajachel	9	Septiembre	2023-09-22T00:00:00	2024-11-08T08:00:00	7	Dirección del viento	1.61
61947	7	Sololá	710	Panajachel	8	Panajachel	9	Septiembre	2023-09-22T00:00:00	2024-11-08T08:00:00	1	Precipitación	0
61948	7	Sololá	710	Panajachel	8	Panajachel	9	Septiembre	2023-09-22T00:00:00	2024-11-08T08:00:00	8	Radiación solar	306
61949	7	Sololá	710	Panajachel	8	Panajachel	9	Septiembre	2023-09-22T00:00:00	2024-11-08T09:00:00	2	Temperatura media	22.6
61950	7	Sololá	710	Panajachel	8	Panajachel	9	Septiembre	2023-09-22T00:00:00	2024-11-08T09:00:00	4	Temperatura máxima	23.3
61951	7	Sololá	710	Panajachel	8	Panajachel	9	Septiembre	2023-09-22T00:00:00	2024-11-08T09:00:00	3	Temperatura mínima	22.4
61952	7	Sololá	710	Panajachel	8	Panajachel	9	Septiembre	2023-09-22T00:00:00	2024-11-08T09:00:00	5	Humedad	74
61953	7	Sololá	710	Panajachel	8	Panajachel	9	Septiembre	2023-09-22T00:00:00	2024-11-08T09:00:00	6	Velocidad del viento	1.6
61954	7	Sololá	710	Panajachel	8	Panajachel	9	Septiembre	2023-09-22T00:00:00	2024-11-08T09:00:00	7	Dirección del viento	1.61
61955	7	Sololá	710	Panajachel	8	Panajachel	9	Septiembre	2023-09-22T00:00:00	2024-11-08T09:00:00	1	Precipitación	0
61956	7	Sololá	710	Panajachel	8	Panajachel	9	Septiembre	2023-09-22T00:00:00	2024-11-08T09:00:00	8	Radiación solar	482
61957	7	Sololá	710	Panajachel	8	Panajachel	9	Septiembre	2023-09-22T00:00:00	2024-11-08T10:00:00	2	Temperatura media	23.7
61958	7	Sololá	710	Panajachel	8	Panajachel	9	Septiembre	2023-09-22T00:00:00	2024-11-08T10:00:00	4	Temperatura máxima	23.7
61959	7	Sololá	710	Panajachel	8	Panajachel	9	Septiembre	2023-09-22T00:00:00	2024-11-08T10:00:00	3	Temperatura mínima	22.3
61960	7	Sololá	710	Panajachel	8	Panajachel	9	Septiembre	2023-09-22T00:00:00	2024-11-08T10:00:00	5	Humedad	69
61961	7	Sololá	710	Panajachel	8	Panajachel	9	Septiembre	2023-09-22T00:00:00	2024-11-08T10:00:00	6	Velocidad del viento	0
61962	7	Sololá	710	Panajachel	8	Panajachel	9	Septiembre	2023-09-22T00:00:00	2024-11-08T10:00:00	7	Dirección del viento	0
61963	7	Sololá	710	Panajachel	8	Panajachel	9	Septiembre	2023-09-22T00:00:00	2024-11-08T10:00:00	1	Precipitación	0
61964	7	Sololá	710	Panajachel	8	Panajachel	9	Septiembre	2023-09-22T00:00:00	2024-11-08T10:00:00	8	Radiación solar	277
61965	7	Sololá	710	Panajachel	8	Panajachel	9	Septiembre	2023-09-22T00:00:00	2024-11-08T11:00:00	2	Temperatura media	26.2
61966	7	Sololá	710	Panajachel	8	Panajachel	9	Septiembre	2023-09-22T00:00:00	2024-11-08T11:00:00	4	Temperatura máxima	26.2
61967	7	Sololá	710	Panajachel	8	Panajachel	9	Septiembre	2023-09-22T00:00:00	2024-11-08T11:00:00	3	Temperatura mínima	23.7
61968	7	Sololá	710	Panajachel	8	Panajachel	9	Septiembre	2023-09-22T00:00:00	2024-11-08T11:00:00	5	Humedad	57
61969	7	Sololá	710	Panajachel	8	Panajachel	9	Septiembre	2023-09-22T00:00:00	2024-11-08T11:00:00	6	Velocidad del viento	1.6
61970	7	Sololá	710	Panajachel	8	Panajachel	9	Septiembre	2023-09-22T00:00:00	2024-11-08T11:00:00	7	Dirección del viento	1.61
61971	7	Sololá	710	Panajachel	8	Panajachel	9	Septiembre	2023-09-22T00:00:00	2024-11-08T11:00:00	1	Precipitación	0
61972	7	Sololá	710	Panajachel	8	Panajachel	9	Septiembre	2023-09-22T00:00:00	2024-11-08T11:00:00	8	Radiación solar	903
61973	7	Sololá	710	Panajachel	8	Panajachel	9	Septiembre	2023-09-22T00:00:00	2024-11-08T12:00:00	2	Temperatura media	25
61974	7	Sololá	710	Panajachel	8	Panajachel	9	Septiembre	2023-09-22T00:00:00	2024-11-08T12:00:00	4	Temperatura máxima	26.7
61975	7	Sololá	710	Panajachel	8	Panajachel	9	Septiembre	2023-09-22T00:00:00	2024-11-08T12:00:00	3	Temperatura mínima	24.2
61976	7	Sololá	710	Panajachel	8	Panajachel	9	Septiembre	2023-09-22T00:00:00	2024-11-08T12:00:00	5	Humedad	67
61977	7	Sololá	710	Panajachel	8	Panajachel	9	Septiembre	2023-09-22T00:00:00	2024-11-08T12:00:00	6	Velocidad del viento	0
61978	7	Sololá	710	Panajachel	8	Panajachel	9	Septiembre	2023-09-22T00:00:00	2024-11-08T12:00:00	7	Dirección del viento	0
61979	7	Sololá	710	Panajachel	8	Panajachel	9	Septiembre	2023-09-22T00:00:00	2024-11-08T12:00:00	1	Precipitación	0
61980	7	Sololá	710	Panajachel	8	Panajachel	9	Septiembre	2023-09-22T00:00:00	2024-11-08T12:00:00	8	Radiación solar	390
61981	7	Sololá	710	Panajachel	8	Panajachel	9	Septiembre	2023-09-22T00:00:00	2024-11-08T13:00:00	2	Temperatura media	24.4
61982	7	Sololá	710	Panajachel	8	Panajachel	9	Septiembre	2023-09-22T00:00:00	2024-11-08T13:00:00	4	Temperatura máxima	25.1
61983	7	Sololá	710	Panajachel	8	Panajachel	9	Septiembre	2023-09-22T00:00:00	2024-11-08T13:00:00	3	Temperatura mínima	23.9
61984	7	Sololá	710	Panajachel	8	Panajachel	9	Septiembre	2023-09-22T00:00:00	2024-11-08T13:00:00	5	Humedad	78
61985	7	Sololá	710	Panajachel	8	Panajachel	9	Septiembre	2023-09-22T00:00:00	2024-11-08T13:00:00	6	Velocidad del viento	1.6
61986	7	Sololá	710	Panajachel	8	Panajachel	9	Septiembre	2023-09-22T00:00:00	2024-11-08T13:00:00	7	Dirección del viento	1.61
61987	7	Sololá	710	Panajachel	8	Panajachel	9	Septiembre	2023-09-22T00:00:00	2024-11-08T13:00:00	1	Precipitación	0
61988	7	Sololá	710	Panajachel	8	Panajachel	9	Septiembre	2023-09-22T00:00:00	2024-11-08T13:00:00	8	Radiación solar	312
61989	7	Sololá	710	Panajachel	8	Panajachel	9	Septiembre	2023-09-22T00:00:00	2024-11-08T14:00:00	2	Temperatura media	23.6
61990	7	Sololá	710	Panajachel	8	Panajachel	9	Septiembre	2023-09-22T00:00:00	2024-11-08T14:00:00	4	Temperatura máxima	24.4
61991	7	Sololá	710	Panajachel	8	Panajachel	9	Septiembre	2023-09-22T00:00:00	2024-11-08T14:00:00	3	Temperatura mínima	22.8
61992	7	Sololá	710	Panajachel	8	Panajachel	9	Septiembre	2023-09-22T00:00:00	2024-11-08T14:00:00	5	Humedad	80
61993	7	Sololá	710	Panajachel	8	Panajachel	9	Septiembre	2023-09-22T00:00:00	2024-11-08T14:00:00	6	Velocidad del viento	1.6
61994	7	Sololá	710	Panajachel	8	Panajachel	9	Septiembre	2023-09-22T00:00:00	2024-11-08T14:00:00	7	Dirección del viento	1.61
61995	7	Sololá	710	Panajachel	8	Panajachel	9	Septiembre	2023-09-22T00:00:00	2024-11-08T14:00:00	1	Precipitación	0
61996	7	Sololá	710	Panajachel	8	Panajachel	9	Septiembre	2023-09-22T00:00:00	2024-11-08T14:00:00	8	Radiación solar	445
61997	7	Sololá	710	Panajachel	8	Panajachel	9	Septiembre	2023-09-22T00:00:00	2024-11-08T15:00:00	2	Temperatura media	24
61998	7	Sololá	710	Panajachel	8	Panajachel	9	Septiembre	2023-09-22T00:00:00	2024-11-08T15:00:00	4	Temperatura máxima	24.3
61999	7	Sololá	710	Panajachel	8	Panajachel	9	Septiembre	2023-09-22T00:00:00	2024-11-08T15:00:00	3	Temperatura mínima	23.6
62000	7	Sololá	710	Panajachel	8	Panajachel	9	Septiembre	2023-09-22T00:00:00	2024-11-08T15:00:00	5	Humedad	79
62001	7	Sololá	710	Panajachel	8	Panajachel	9	Septiembre	2023-09-22T00:00:00	2024-11-08T15:00:00	6	Velocidad del viento	1.6
62002	7	Sololá	710	Panajachel	8	Panajachel	9	Septiembre	2023-09-22T00:00:00	2024-11-08T15:00:00	7	Dirección del viento	1.61
62003	7	Sololá	710	Panajachel	8	Panajachel	9	Septiembre	2023-09-22T00:00:00	2024-11-08T15:00:00	1	Precipitación	0
62004	7	Sololá	710	Panajachel	8	Panajachel	9	Septiembre	2023-09-22T00:00:00	2024-11-08T15:00:00	8	Radiación solar	647
62005	7	Sololá	710	Panajachel	8	Panajachel	9	Septiembre	2023-09-22T00:00:00	2024-11-08T16:00:00	2	Temperatura media	23.9
62006	7	Sololá	710	Panajachel	8	Panajachel	9	Septiembre	2023-09-22T00:00:00	2024-11-08T16:00:00	4	Temperatura máxima	24.1
62007	7	Sololá	710	Panajachel	8	Panajachel	9	Septiembre	2023-09-22T00:00:00	2024-11-08T16:00:00	3	Temperatura mínima	23.5
62008	7	Sololá	710	Panajachel	8	Panajachel	9	Septiembre	2023-09-22T00:00:00	2024-11-08T16:00:00	5	Humedad	83
62009	7	Sololá	710	Panajachel	8	Panajachel	9	Septiembre	2023-09-22T00:00:00	2024-11-08T16:00:00	6	Velocidad del viento	3.2
62010	7	Sololá	710	Panajachel	8	Panajachel	9	Septiembre	2023-09-22T00:00:00	2024-11-08T16:00:00	7	Dirección del viento	3.22
62011	7	Sololá	710	Panajachel	8	Panajachel	9	Septiembre	2023-09-22T00:00:00	2024-11-08T16:00:00	1	Precipitación	0
62012	7	Sololá	710	Panajachel	8	Panajachel	9	Septiembre	2023-09-22T00:00:00	2024-11-08T16:00:00	8	Radiación solar	503
62013	7	Sololá	710	Panajachel	8	Panajachel	9	Septiembre	2023-09-22T00:00:00	2024-11-08T17:00:00	2	Temperatura media	22.9
62014	7	Sololá	710	Panajachel	8	Panajachel	9	Septiembre	2023-09-22T00:00:00	2024-11-08T17:00:00	4	Temperatura máxima	24.2
62015	7	Sololá	710	Panajachel	8	Panajachel	9	Septiembre	2023-09-22T00:00:00	2024-11-08T17:00:00	3	Temperatura mínima	22.9
62016	7	Sololá	710	Panajachel	8	Panajachel	9	Septiembre	2023-09-22T00:00:00	2024-11-08T17:00:00	5	Humedad	84
62017	7	Sololá	710	Panajachel	8	Panajachel	9	Septiembre	2023-09-22T00:00:00	2024-11-08T17:00:00	6	Velocidad del viento	1.6
62018	7	Sololá	710	Panajachel	8	Panajachel	9	Septiembre	2023-09-22T00:00:00	2024-11-08T17:00:00	7	Dirección del viento	1.61
62019	7	Sololá	710	Panajachel	8	Panajachel	9	Septiembre	2023-09-22T00:00:00	2024-11-08T17:00:00	1	Precipitación	0
62020	7	Sololá	710	Panajachel	8	Panajachel	9	Septiembre	2023-09-22T00:00:00	2024-11-08T17:00:00	8	Radiación solar	239
62021	7	Sololá	710	Panajachel	8	Panajachel	9	Septiembre	2023-09-22T00:00:00	2024-11-08T18:00:00	2	Temperatura media	22.2
62022	7	Sololá	710	Panajachel	8	Panajachel	9	Septiembre	2023-09-22T00:00:00	2024-11-08T18:00:00	4	Temperatura máxima	22.9
62023	7	Sololá	710	Panajachel	8	Panajachel	9	Septiembre	2023-09-22T00:00:00	2024-11-08T18:00:00	3	Temperatura mínima	22.2
62024	7	Sololá	710	Panajachel	8	Panajachel	9	Septiembre	2023-09-22T00:00:00	2024-11-08T18:00:00	5	Humedad	86
62025	7	Sololá	710	Panajachel	8	Panajachel	9	Septiembre	2023-09-22T00:00:00	2024-11-08T18:00:00	6	Velocidad del viento	0
62026	7	Sololá	710	Panajachel	8	Panajachel	9	Septiembre	2023-09-22T00:00:00	2024-11-08T18:00:00	7	Dirección del viento	0
62027	7	Sololá	710	Panajachel	8	Panajachel	9	Septiembre	2023-09-22T00:00:00	2024-11-08T18:00:00	1	Precipitación	0
62028	7	Sololá	710	Panajachel	8	Panajachel	9	Septiembre	2023-09-22T00:00:00	2024-11-08T18:00:00	8	Radiación solar	73
62029	7	Sololá	710	Panajachel	8	Panajachel	9	Septiembre	2023-09-22T00:00:00	2024-11-08T19:00:00	2	Temperatura media	21.6
62030	7	Sololá	710	Panajachel	8	Panajachel	9	Septiembre	2023-09-22T00:00:00	2024-11-08T19:00:00	4	Temperatura máxima	22.3
62031	7	Sololá	710	Panajachel	8	Panajachel	9	Septiembre	2023-09-22T00:00:00	2024-11-08T19:00:00	3	Temperatura mínima	21.6
62032	7	Sololá	710	Panajachel	8	Panajachel	9	Septiembre	2023-09-22T00:00:00	2024-11-08T19:00:00	5	Humedad	89
62033	7	Sololá	710	Panajachel	8	Panajachel	9	Septiembre	2023-09-22T00:00:00	2024-11-08T19:00:00	6	Velocidad del viento	0
62034	7	Sololá	710	Panajachel	8	Panajachel	9	Septiembre	2023-09-22T00:00:00	2024-11-08T19:00:00	7	Dirección del viento	0
62035	7	Sololá	710	Panajachel	8	Panajachel	9	Septiembre	2023-09-22T00:00:00	2024-11-08T19:00:00	1	Precipitación	0
62036	7	Sololá	710	Panajachel	8	Panajachel	9	Septiembre	2023-09-22T00:00:00	2024-11-08T19:00:00	8	Radiación solar	0
62037	7	Sololá	710	Panajachel	8	Panajachel	9	Septiembre	2023-09-22T00:00:00	2024-11-08T20:00:00	2	Temperatura media	21.3
62038	7	Sololá	710	Panajachel	8	Panajachel	9	Septiembre	2023-09-22T00:00:00	2024-11-08T20:00:00	4	Temperatura máxima	21.6
62039	7	Sololá	710	Panajachel	8	Panajachel	9	Septiembre	2023-09-22T00:00:00	2024-11-08T20:00:00	3	Temperatura mínima	21.3
62040	7	Sololá	710	Panajachel	8	Panajachel	9	Septiembre	2023-09-22T00:00:00	2024-11-08T20:00:00	5	Humedad	88
62041	7	Sololá	710	Panajachel	8	Panajachel	9	Septiembre	2023-09-22T00:00:00	2024-11-08T20:00:00	6	Velocidad del viento	0
62042	7	Sololá	710	Panajachel	8	Panajachel	9	Septiembre	2023-09-22T00:00:00	2024-11-08T20:00:00	7	Dirección del viento	0
62043	7	Sololá	710	Panajachel	8	Panajachel	9	Septiembre	2023-09-22T00:00:00	2024-11-08T20:00:00	1	Precipitación	0
62044	7	Sololá	710	Panajachel	8	Panajachel	9	Septiembre	2023-09-22T00:00:00	2024-11-08T20:00:00	8	Radiación solar	0
62045	7	Sololá	710	Panajachel	8	Panajachel	9	Septiembre	2023-09-22T00:00:00	2024-11-08T21:00:00	2	Temperatura media	21.1
62046	7	Sololá	710	Panajachel	8	Panajachel	9	Septiembre	2023-09-22T00:00:00	2024-11-08T21:00:00	4	Temperatura máxima	21.4
62047	7	Sololá	710	Panajachel	8	Panajachel	9	Septiembre	2023-09-22T00:00:00	2024-11-08T21:00:00	3	Temperatura mínima	21.1
62048	7	Sololá	710	Panajachel	8	Panajachel	9	Septiembre	2023-09-22T00:00:00	2024-11-08T21:00:00	5	Humedad	88
62049	7	Sololá	710	Panajachel	8	Panajachel	9	Septiembre	2023-09-22T00:00:00	2024-11-08T21:00:00	6	Velocidad del viento	0
62050	7	Sololá	710	Panajachel	8	Panajachel	9	Septiembre	2023-09-22T00:00:00	2024-11-08T21:00:00	7	Dirección del viento	0
62051	7	Sololá	710	Panajachel	8	Panajachel	9	Septiembre	2023-09-22T00:00:00	2024-11-08T21:00:00	1	Precipitación	0
62052	7	Sololá	710	Panajachel	8	Panajachel	9	Septiembre	2023-09-22T00:00:00	2024-11-08T21:00:00	8	Radiación solar	0
62053	7	Sololá	710	Panajachel	8	Panajachel	9	Septiembre	2023-09-22T00:00:00	2024-11-08T22:00:00	2	Temperatura media	20.4
62054	7	Sololá	710	Panajachel	8	Panajachel	9	Septiembre	2023-09-22T00:00:00	2024-11-08T22:00:00	4	Temperatura máxima	21.1
62055	7	Sololá	710	Panajachel	8	Panajachel	9	Septiembre	2023-09-22T00:00:00	2024-11-08T22:00:00	3	Temperatura mínima	20.4
62056	7	Sololá	710	Panajachel	8	Panajachel	9	Septiembre	2023-09-22T00:00:00	2024-11-08T22:00:00	5	Humedad	83
62057	7	Sololá	710	Panajachel	8	Panajachel	9	Septiembre	2023-09-22T00:00:00	2024-11-08T22:00:00	6	Velocidad del viento	0
62058	7	Sololá	710	Panajachel	8	Panajachel	9	Septiembre	2023-09-22T00:00:00	2024-11-08T22:00:00	7	Dirección del viento	0
62059	7	Sololá	710	Panajachel	8	Panajachel	9	Septiembre	2023-09-22T00:00:00	2024-11-08T22:00:00	1	Precipitación	0
62060	7	Sololá	710	Panajachel	8	Panajachel	9	Septiembre	2023-09-22T00:00:00	2024-11-08T22:00:00	8	Radiación solar	0
62061	7	Sololá	710	Panajachel	8	Panajachel	9	Septiembre	2023-09-22T00:00:00	2024-11-08T23:00:00	2	Temperatura media	19.8
62062	7	Sololá	710	Panajachel	8	Panajachel	9	Septiembre	2023-09-22T00:00:00	2024-11-08T23:00:00	4	Temperatura máxima	20.5
62063	7	Sololá	710	Panajachel	8	Panajachel	9	Septiembre	2023-09-22T00:00:00	2024-11-08T23:00:00	3	Temperatura mínima	19.8
62064	7	Sololá	710	Panajachel	8	Panajachel	9	Septiembre	2023-09-22T00:00:00	2024-11-08T23:00:00	5	Humedad	82
62065	7	Sololá	710	Panajachel	8	Panajachel	9	Septiembre	2023-09-22T00:00:00	2024-11-08T23:00:00	6	Velocidad del viento	0
62066	7	Sololá	710	Panajachel	8	Panajachel	9	Septiembre	2023-09-22T00:00:00	2024-11-08T23:00:00	7	Dirección del viento	0
62067	7	Sololá	710	Panajachel	8	Panajachel	9	Septiembre	2023-09-22T00:00:00	2024-11-08T23:00:00	1	Precipitación	0
62068	7	Sololá	710	Panajachel	8	Panajachel	9	Septiembre	2023-09-22T00:00:00	2024-11-08T23:00:00	8	Radiación solar	0
62069	7	Sololá	710	Panajachel	8	Panajachel	9	Septiembre	2023-09-23T00:00:00	2024-11-08T00:00:00	2	Temperatura media	18.7
62070	7	Sololá	710	Panajachel	8	Panajachel	9	Septiembre	2023-09-23T00:00:00	2024-11-08T00:00:00	4	Temperatura máxima	19.8
62071	7	Sololá	710	Panajachel	8	Panajachel	9	Septiembre	2023-09-23T00:00:00	2024-11-08T00:00:00	3	Temperatura mínima	18.7
62072	7	Sololá	710	Panajachel	8	Panajachel	9	Septiembre	2023-09-23T00:00:00	2024-11-08T00:00:00	5	Humedad	82
62073	7	Sololá	710	Panajachel	8	Panajachel	9	Septiembre	2023-09-23T00:00:00	2024-11-08T00:00:00	6	Velocidad del viento	0
62074	7	Sololá	710	Panajachel	8	Panajachel	9	Septiembre	2023-09-23T00:00:00	2024-11-08T00:00:00	7	Dirección del viento	0
62075	7	Sololá	710	Panajachel	8	Panajachel	9	Septiembre	2023-09-23T00:00:00	2024-11-08T00:00:00	1	Precipitación	0
62076	7	Sololá	710	Panajachel	8	Panajachel	9	Septiembre	2023-09-23T00:00:00	2024-11-08T00:00:00	8	Radiación solar	0
62077	7	Sololá	710	Panajachel	8	Panajachel	9	Septiembre	2023-09-23T00:00:00	2024-11-08T01:00:00	2	Temperatura media	19
62078	7	Sololá	710	Panajachel	8	Panajachel	9	Septiembre	2023-09-23T00:00:00	2024-11-08T01:00:00	4	Temperatura máxima	19.1
62079	7	Sololá	710	Panajachel	8	Panajachel	9	Septiembre	2023-09-23T00:00:00	2024-11-08T01:00:00	3	Temperatura mínima	18.4
62080	7	Sololá	710	Panajachel	8	Panajachel	9	Septiembre	2023-09-23T00:00:00	2024-11-08T01:00:00	5	Humedad	79
62081	7	Sololá	710	Panajachel	8	Panajachel	9	Septiembre	2023-09-23T00:00:00	2024-11-08T01:00:00	6	Velocidad del viento	0
62082	7	Sololá	710	Panajachel	8	Panajachel	9	Septiembre	2023-09-23T00:00:00	2024-11-08T01:00:00	7	Dirección del viento	0
62083	7	Sololá	710	Panajachel	8	Panajachel	9	Septiembre	2023-09-23T00:00:00	2024-11-08T01:00:00	1	Precipitación	0
62084	7	Sololá	710	Panajachel	8	Panajachel	9	Septiembre	2023-09-23T00:00:00	2024-11-08T01:00:00	8	Radiación solar	0
62085	7	Sololá	710	Panajachel	8	Panajachel	9	Septiembre	2023-09-23T00:00:00	2024-11-08T02:00:00	2	Temperatura media	18.9
62086	7	Sololá	710	Panajachel	8	Panajachel	9	Septiembre	2023-09-23T00:00:00	2024-11-08T02:00:00	4	Temperatura máxima	19.3
62087	7	Sololá	710	Panajachel	8	Panajachel	9	Septiembre	2023-09-23T00:00:00	2024-11-08T02:00:00	3	Temperatura mínima	18.8
62088	7	Sololá	710	Panajachel	8	Panajachel	9	Septiembre	2023-09-23T00:00:00	2024-11-08T02:00:00	5	Humedad	79
62089	7	Sololá	710	Panajachel	8	Panajachel	9	Septiembre	2023-09-23T00:00:00	2024-11-08T02:00:00	6	Velocidad del viento	0
62090	7	Sololá	710	Panajachel	8	Panajachel	9	Septiembre	2023-09-23T00:00:00	2024-11-08T02:00:00	7	Dirección del viento	0
62091	7	Sololá	710	Panajachel	8	Panajachel	9	Septiembre	2023-09-23T00:00:00	2024-11-08T02:00:00	1	Precipitación	0
62092	7	Sololá	710	Panajachel	8	Panajachel	9	Septiembre	2023-09-23T00:00:00	2024-11-08T02:00:00	8	Radiación solar	0
62093	7	Sololá	710	Panajachel	8	Panajachel	9	Septiembre	2023-09-23T00:00:00	2024-11-08T03:00:00	2	Temperatura media	17.2
62094	7	Sololá	710	Panajachel	8	Panajachel	9	Septiembre	2023-09-23T00:00:00	2024-11-08T03:00:00	4	Temperatura máxima	18.9
62095	7	Sololá	710	Panajachel	8	Panajachel	9	Septiembre	2023-09-23T00:00:00	2024-11-08T03:00:00	3	Temperatura mínima	17.2
62096	7	Sololá	710	Panajachel	8	Panajachel	9	Septiembre	2023-09-23T00:00:00	2024-11-08T03:00:00	5	Humedad	85
62097	7	Sololá	710	Panajachel	8	Panajachel	9	Septiembre	2023-09-23T00:00:00	2024-11-08T03:00:00	6	Velocidad del viento	0
62098	7	Sololá	710	Panajachel	8	Panajachel	9	Septiembre	2023-09-23T00:00:00	2024-11-08T03:00:00	7	Dirección del viento	0
62099	7	Sololá	710	Panajachel	8	Panajachel	9	Septiembre	2023-09-23T00:00:00	2024-11-08T03:00:00	1	Precipitación	0
62100	7	Sololá	710	Panajachel	8	Panajachel	9	Septiembre	2023-09-23T00:00:00	2024-11-08T03:00:00	8	Radiación solar	0
62101	7	Sololá	710	Panajachel	8	Panajachel	9	Septiembre	2023-09-23T00:00:00	2024-11-08T04:00:00	2	Temperatura media	16.4
62102	7	Sololá	710	Panajachel	8	Panajachel	9	Septiembre	2023-09-23T00:00:00	2024-11-08T04:00:00	4	Temperatura máxima	17.2
62103	7	Sololá	710	Panajachel	8	Panajachel	9	Septiembre	2023-09-23T00:00:00	2024-11-08T04:00:00	3	Temperatura mínima	16.4
62104	7	Sololá	710	Panajachel	8	Panajachel	9	Septiembre	2023-09-23T00:00:00	2024-11-08T04:00:00	5	Humedad	86
62105	7	Sololá	710	Panajachel	8	Panajachel	9	Septiembre	2023-09-23T00:00:00	2024-11-08T04:00:00	6	Velocidad del viento	0
62106	7	Sololá	710	Panajachel	8	Panajachel	9	Septiembre	2023-09-23T00:00:00	2024-11-08T04:00:00	7	Dirección del viento	0
62107	7	Sololá	710	Panajachel	8	Panajachel	9	Septiembre	2023-09-23T00:00:00	2024-11-08T04:00:00	1	Precipitación	0
62108	7	Sololá	710	Panajachel	8	Panajachel	9	Septiembre	2023-09-23T00:00:00	2024-11-08T04:00:00	8	Radiación solar	0
62109	7	Sololá	710	Panajachel	8	Panajachel	9	Septiembre	2023-09-23T00:00:00	2024-11-08T05:00:00	2	Temperatura media	16.1
62110	7	Sololá	710	Panajachel	8	Panajachel	9	Septiembre	2023-09-23T00:00:00	2024-11-08T05:00:00	4	Temperatura máxima	16.4
62111	7	Sololá	710	Panajachel	8	Panajachel	9	Septiembre	2023-09-23T00:00:00	2024-11-08T05:00:00	3	Temperatura mínima	16.1
62112	7	Sololá	710	Panajachel	8	Panajachel	9	Septiembre	2023-09-23T00:00:00	2024-11-08T05:00:00	5	Humedad	85
62113	7	Sololá	710	Panajachel	8	Panajachel	9	Septiembre	2023-09-23T00:00:00	2024-11-08T05:00:00	6	Velocidad del viento	0
62114	7	Sololá	710	Panajachel	8	Panajachel	9	Septiembre	2023-09-23T00:00:00	2024-11-08T05:00:00	7	Dirección del viento	0
62115	7	Sololá	710	Panajachel	8	Panajachel	9	Septiembre	2023-09-23T00:00:00	2024-11-08T05:00:00	1	Precipitación	0
62116	7	Sololá	710	Panajachel	8	Panajachel	9	Septiembre	2023-09-23T00:00:00	2024-11-08T05:00:00	8	Radiación solar	0
62117	7	Sololá	710	Panajachel	8	Panajachel	9	Septiembre	2023-09-23T00:00:00	2024-11-08T06:00:00	2	Temperatura media	16.4
62118	7	Sololá	710	Panajachel	8	Panajachel	9	Septiembre	2023-09-23T00:00:00	2024-11-08T06:00:00	4	Temperatura máxima	16.4
62119	7	Sololá	710	Panajachel	8	Panajachel	9	Septiembre	2023-09-23T00:00:00	2024-11-08T06:00:00	3	Temperatura mínima	16.1
62120	7	Sololá	710	Panajachel	8	Panajachel	9	Septiembre	2023-09-23T00:00:00	2024-11-08T06:00:00	5	Humedad	81
62121	7	Sololá	710	Panajachel	8	Panajachel	9	Septiembre	2023-09-23T00:00:00	2024-11-08T06:00:00	6	Velocidad del viento	0
62122	7	Sololá	710	Panajachel	8	Panajachel	9	Septiembre	2023-09-23T00:00:00	2024-11-08T06:00:00	7	Dirección del viento	0
62123	7	Sololá	710	Panajachel	8	Panajachel	9	Septiembre	2023-09-23T00:00:00	2024-11-08T06:00:00	1	Precipitación	0
62124	7	Sololá	710	Panajachel	8	Panajachel	9	Septiembre	2023-09-23T00:00:00	2024-11-08T06:00:00	8	Radiación solar	0
62125	7	Sololá	710	Panajachel	8	Panajachel	9	Septiembre	2023-09-23T00:00:00	2024-11-08T07:00:00	2	Temperatura media	17.8
62126	7	Sololá	710	Panajachel	8	Panajachel	9	Septiembre	2023-09-23T00:00:00	2024-11-08T07:00:00	4	Temperatura máxima	17.8
62127	7	Sololá	710	Panajachel	8	Panajachel	9	Septiembre	2023-09-23T00:00:00	2024-11-08T07:00:00	3	Temperatura mínima	16
62128	7	Sololá	710	Panajachel	8	Panajachel	9	Septiembre	2023-09-23T00:00:00	2024-11-08T07:00:00	5	Humedad	78
62129	7	Sololá	710	Panajachel	8	Panajachel	9	Septiembre	2023-09-23T00:00:00	2024-11-08T07:00:00	6	Velocidad del viento	0
62130	7	Sololá	710	Panajachel	8	Panajachel	9	Septiembre	2023-09-23T00:00:00	2024-11-08T07:00:00	7	Dirección del viento	0
62131	7	Sololá	710	Panajachel	8	Panajachel	9	Septiembre	2023-09-23T00:00:00	2024-11-08T07:00:00	1	Precipitación	0
62132	7	Sololá	710	Panajachel	8	Panajachel	9	Septiembre	2023-09-23T00:00:00	2024-11-08T07:00:00	8	Radiación solar	49
62133	7	Sololá	710	Panajachel	8	Panajachel	9	Septiembre	2023-09-23T00:00:00	2024-11-08T08:00:00	2	Temperatura media	21.3
62134	7	Sololá	710	Panajachel	8	Panajachel	9	Septiembre	2023-09-23T00:00:00	2024-11-08T08:00:00	4	Temperatura máxima	21.3
62135	7	Sololá	710	Panajachel	8	Panajachel	9	Septiembre	2023-09-23T00:00:00	2024-11-08T08:00:00	3	Temperatura mínima	17.8
62136	7	Sololá	710	Panajachel	8	Panajachel	9	Septiembre	2023-09-23T00:00:00	2024-11-08T08:00:00	5	Humedad	68
62137	7	Sololá	710	Panajachel	8	Panajachel	9	Septiembre	2023-09-23T00:00:00	2024-11-08T08:00:00	6	Velocidad del viento	0
62138	7	Sololá	710	Panajachel	8	Panajachel	9	Septiembre	2023-09-23T00:00:00	2024-11-08T08:00:00	7	Dirección del viento	0
62139	7	Sololá	710	Panajachel	8	Panajachel	9	Septiembre	2023-09-23T00:00:00	2024-11-08T08:00:00	1	Precipitación	0
62140	7	Sololá	710	Panajachel	8	Panajachel	9	Septiembre	2023-09-23T00:00:00	2024-11-08T08:00:00	8	Radiación solar	290
62141	7	Sololá	710	Panajachel	8	Panajachel	9	Septiembre	2023-09-23T00:00:00	2024-11-08T09:00:00	2	Temperatura media	21.7
62142	7	Sololá	710	Panajachel	8	Panajachel	9	Septiembre	2023-09-23T00:00:00	2024-11-08T09:00:00	4	Temperatura máxima	21.9
62143	7	Sololá	710	Panajachel	8	Panajachel	9	Septiembre	2023-09-23T00:00:00	2024-11-08T09:00:00	3	Temperatura mínima	21.2
62144	7	Sololá	710	Panajachel	8	Panajachel	9	Septiembre	2023-09-23T00:00:00	2024-11-08T09:00:00	5	Humedad	73
62145	7	Sololá	710	Panajachel	8	Panajachel	9	Septiembre	2023-09-23T00:00:00	2024-11-08T09:00:00	6	Velocidad del viento	0
62146	7	Sololá	710	Panajachel	8	Panajachel	9	Septiembre	2023-09-23T00:00:00	2024-11-08T09:00:00	7	Dirección del viento	0
62147	7	Sololá	710	Panajachel	8	Panajachel	9	Septiembre	2023-09-23T00:00:00	2024-11-08T09:00:00	1	Precipitación	0
62148	7	Sololá	710	Panajachel	8	Panajachel	9	Septiembre	2023-09-23T00:00:00	2024-11-08T09:00:00	8	Radiación solar	520
62149	7	Sololá	710	Panajachel	8	Panajachel	9	Septiembre	2023-09-23T00:00:00	2024-11-08T10:00:00	2	Temperatura media	22.2
62150	7	Sololá	710	Panajachel	8	Panajachel	9	Septiembre	2023-09-23T00:00:00	2024-11-08T10:00:00	4	Temperatura máxima	22.3
62151	7	Sololá	710	Panajachel	8	Panajachel	9	Septiembre	2023-09-23T00:00:00	2024-11-08T10:00:00	3	Temperatura mínima	21.7
62152	7	Sololá	710	Panajachel	8	Panajachel	9	Septiembre	2023-09-23T00:00:00	2024-11-08T10:00:00	5	Humedad	75
62153	7	Sololá	710	Panajachel	8	Panajachel	9	Septiembre	2023-09-23T00:00:00	2024-11-08T10:00:00	6	Velocidad del viento	0
62154	7	Sololá	710	Panajachel	8	Panajachel	9	Septiembre	2023-09-23T00:00:00	2024-11-08T10:00:00	7	Dirección del viento	0
62155	7	Sololá	710	Panajachel	8	Panajachel	9	Septiembre	2023-09-23T00:00:00	2024-11-08T10:00:00	1	Precipitación	0
62156	7	Sololá	710	Panajachel	8	Panajachel	9	Septiembre	2023-09-23T00:00:00	2024-11-08T10:00:00	8	Radiación solar	716
62157	7	Sololá	710	Panajachel	8	Panajachel	9	Septiembre	2023-09-23T00:00:00	2024-11-08T11:00:00	2	Temperatura media	24.4
62158	7	Sololá	710	Panajachel	8	Panajachel	9	Septiembre	2023-09-23T00:00:00	2024-11-08T11:00:00	4	Temperatura máxima	24.5
62159	7	Sololá	710	Panajachel	8	Panajachel	9	Septiembre	2023-09-23T00:00:00	2024-11-08T11:00:00	3	Temperatura mínima	22.2
62160	7	Sololá	710	Panajachel	8	Panajachel	9	Septiembre	2023-09-23T00:00:00	2024-11-08T11:00:00	5	Humedad	66
62161	7	Sololá	710	Panajachel	8	Panajachel	9	Septiembre	2023-09-23T00:00:00	2024-11-08T11:00:00	6	Velocidad del viento	0
62162	7	Sololá	710	Panajachel	8	Panajachel	9	Septiembre	2023-09-23T00:00:00	2024-11-08T11:00:00	7	Dirección del viento	0
62163	7	Sololá	710	Panajachel	8	Panajachel	9	Septiembre	2023-09-23T00:00:00	2024-11-08T11:00:00	1	Precipitación	0
62164	7	Sololá	710	Panajachel	8	Panajachel	9	Septiembre	2023-09-23T00:00:00	2024-11-08T11:00:00	8	Radiación solar	854
62165	7	Sololá	710	Panajachel	8	Panajachel	9	Septiembre	2023-09-23T00:00:00	2024-11-08T12:00:00	2	Temperatura media	26.3
62166	7	Sololá	710	Panajachel	8	Panajachel	9	Septiembre	2023-09-23T00:00:00	2024-11-08T12:00:00	4	Temperatura máxima	26.3
62167	7	Sololá	710	Panajachel	8	Panajachel	9	Septiembre	2023-09-23T00:00:00	2024-11-08T12:00:00	3	Temperatura mínima	24.3
62168	7	Sololá	710	Panajachel	8	Panajachel	9	Septiembre	2023-09-23T00:00:00	2024-11-08T12:00:00	5	Humedad	62
62169	7	Sololá	710	Panajachel	8	Panajachel	9	Septiembre	2023-09-23T00:00:00	2024-11-08T12:00:00	6	Velocidad del viento	0
62170	7	Sololá	710	Panajachel	8	Panajachel	9	Septiembre	2023-09-23T00:00:00	2024-11-08T12:00:00	7	Dirección del viento	0
62171	7	Sololá	710	Panajachel	8	Panajachel	9	Septiembre	2023-09-23T00:00:00	2024-11-08T12:00:00	1	Precipitación	0
62172	7	Sololá	710	Panajachel	8	Panajachel	9	Septiembre	2023-09-23T00:00:00	2024-11-08T12:00:00	8	Radiación solar	925
62173	7	Sololá	710	Panajachel	8	Panajachel	9	Septiembre	2023-09-23T00:00:00	2024-11-08T13:00:00	2	Temperatura media	25.9
62174	7	Sololá	710	Panajachel	8	Panajachel	9	Septiembre	2023-09-23T00:00:00	2024-11-08T13:00:00	4	Temperatura máxima	27.1
62175	7	Sololá	710	Panajachel	8	Panajachel	9	Septiembre	2023-09-23T00:00:00	2024-11-08T13:00:00	3	Temperatura mínima	25.9
62176	7	Sololá	710	Panajachel	8	Panajachel	9	Septiembre	2023-09-23T00:00:00	2024-11-08T13:00:00	5	Humedad	74
62177	7	Sololá	710	Panajachel	8	Panajachel	9	Septiembre	2023-09-23T00:00:00	2024-11-08T13:00:00	6	Velocidad del viento	3.2
62178	7	Sololá	710	Panajachel	8	Panajachel	9	Septiembre	2023-09-23T00:00:00	2024-11-08T13:00:00	7	Dirección del viento	3.22
62179	7	Sololá	710	Panajachel	8	Panajachel	9	Septiembre	2023-09-23T00:00:00	2024-11-08T13:00:00	1	Precipitación	0
62180	7	Sololá	710	Panajachel	8	Panajachel	9	Septiembre	2023-09-23T00:00:00	2024-11-08T13:00:00	8	Radiación solar	942
62181	7	Sololá	710	Panajachel	8	Panajachel	9	Septiembre	2023-09-23T00:00:00	2024-11-08T14:00:00	2	Temperatura media	25.8
62182	7	Sololá	710	Panajachel	8	Panajachel	9	Septiembre	2023-09-23T00:00:00	2024-11-08T14:00:00	4	Temperatura máxima	26.4
62183	7	Sololá	710	Panajachel	8	Panajachel	9	Septiembre	2023-09-23T00:00:00	2024-11-08T14:00:00	3	Temperatura mínima	25.6
62184	7	Sololá	710	Panajachel	8	Panajachel	9	Septiembre	2023-09-23T00:00:00	2024-11-08T14:00:00	5	Humedad	75
62185	7	Sololá	710	Panajachel	8	Panajachel	9	Septiembre	2023-09-23T00:00:00	2024-11-08T14:00:00	6	Velocidad del viento	3.2
62186	7	Sololá	710	Panajachel	8	Panajachel	9	Septiembre	2023-09-23T00:00:00	2024-11-08T14:00:00	7	Dirección del viento	3.22
62187	7	Sololá	710	Panajachel	8	Panajachel	9	Septiembre	2023-09-23T00:00:00	2024-11-08T14:00:00	1	Precipitación	0
62188	7	Sololá	710	Panajachel	8	Panajachel	9	Septiembre	2023-09-23T00:00:00	2024-11-08T14:00:00	8	Radiación solar	904
62189	7	Sololá	710	Panajachel	8	Panajachel	9	Septiembre	2023-09-23T00:00:00	2024-11-08T15:00:00	2	Temperatura media	24.8
62190	7	Sololá	710	Panajachel	8	Panajachel	9	Septiembre	2023-09-23T00:00:00	2024-11-08T15:00:00	4	Temperatura máxima	25.8
62191	7	Sololá	710	Panajachel	8	Panajachel	9	Septiembre	2023-09-23T00:00:00	2024-11-08T15:00:00	3	Temperatura mínima	24.7
62192	7	Sololá	710	Panajachel	8	Panajachel	9	Septiembre	2023-09-23T00:00:00	2024-11-08T15:00:00	5	Humedad	80
62193	7	Sololá	710	Panajachel	8	Panajachel	9	Septiembre	2023-09-23T00:00:00	2024-11-08T15:00:00	6	Velocidad del viento	3.2
62194	7	Sololá	710	Panajachel	8	Panajachel	9	Septiembre	2023-09-23T00:00:00	2024-11-08T15:00:00	7	Dirección del viento	3.22
62195	7	Sololá	710	Panajachel	8	Panajachel	9	Septiembre	2023-09-23T00:00:00	2024-11-08T15:00:00	1	Precipitación	0
62196	7	Sololá	710	Panajachel	8	Panajachel	9	Septiembre	2023-09-23T00:00:00	2024-11-08T15:00:00	8	Radiación solar	664
62197	7	Sololá	710	Panajachel	8	Panajachel	9	Septiembre	2023-09-23T00:00:00	2024-11-08T16:00:00	2	Temperatura media	23.8
62198	7	Sololá	710	Panajachel	8	Panajachel	9	Septiembre	2023-09-23T00:00:00	2024-11-08T16:00:00	4	Temperatura máxima	25.4
62199	7	Sololá	710	Panajachel	8	Panajachel	9	Septiembre	2023-09-23T00:00:00	2024-11-08T16:00:00	3	Temperatura mínima	23.7
62200	7	Sololá	710	Panajachel	8	Panajachel	9	Septiembre	2023-09-23T00:00:00	2024-11-08T16:00:00	5	Humedad	83
62201	7	Sololá	710	Panajachel	8	Panajachel	9	Septiembre	2023-09-23T00:00:00	2024-11-08T16:00:00	6	Velocidad del viento	3.2
62202	7	Sololá	710	Panajachel	8	Panajachel	9	Septiembre	2023-09-23T00:00:00	2024-11-08T16:00:00	7	Dirección del viento	3.22
62203	7	Sololá	710	Panajachel	8	Panajachel	9	Septiembre	2023-09-23T00:00:00	2024-11-08T16:00:00	1	Precipitación	0
62204	7	Sololá	710	Panajachel	8	Panajachel	9	Septiembre	2023-09-23T00:00:00	2024-11-08T16:00:00	8	Radiación solar	394
62205	7	Sololá	710	Panajachel	8	Panajachel	9	Septiembre	2023-09-23T00:00:00	2024-11-08T17:00:00	2	Temperatura media	24
62206	7	Sololá	710	Panajachel	8	Panajachel	9	Septiembre	2023-09-23T00:00:00	2024-11-08T17:00:00	4	Temperatura máxima	24.7
62207	7	Sololá	710	Panajachel	8	Panajachel	9	Septiembre	2023-09-23T00:00:00	2024-11-08T17:00:00	3	Temperatura mínima	23.7
62208	7	Sololá	710	Panajachel	8	Panajachel	9	Septiembre	2023-09-23T00:00:00	2024-11-08T17:00:00	5	Humedad	81
62209	7	Sololá	710	Panajachel	8	Panajachel	9	Septiembre	2023-09-23T00:00:00	2024-11-08T17:00:00	6	Velocidad del viento	1.6
62210	7	Sololá	710	Panajachel	8	Panajachel	9	Septiembre	2023-09-23T00:00:00	2024-11-08T17:00:00	7	Dirección del viento	1.61
62211	7	Sololá	710	Panajachel	8	Panajachel	9	Septiembre	2023-09-23T00:00:00	2024-11-08T17:00:00	1	Precipitación	0
62212	7	Sololá	710	Panajachel	8	Panajachel	9	Septiembre	2023-09-23T00:00:00	2024-11-08T17:00:00	8	Radiación solar	202
62213	7	Sololá	710	Panajachel	8	Panajachel	9	Septiembre	2023-09-23T00:00:00	2024-11-08T18:00:00	2	Temperatura media	22
62214	7	Sololá	710	Panajachel	8	Panajachel	9	Septiembre	2023-09-23T00:00:00	2024-11-08T18:00:00	4	Temperatura máxima	24
62215	7	Sololá	710	Panajachel	8	Panajachel	9	Septiembre	2023-09-23T00:00:00	2024-11-08T18:00:00	3	Temperatura mínima	22
62216	7	Sololá	710	Panajachel	8	Panajachel	9	Septiembre	2023-09-23T00:00:00	2024-11-08T18:00:00	5	Humedad	89
62217	7	Sololá	710	Panajachel	8	Panajachel	9	Septiembre	2023-09-23T00:00:00	2024-11-08T18:00:00	6	Velocidad del viento	1.6
62218	7	Sololá	710	Panajachel	8	Panajachel	9	Septiembre	2023-09-23T00:00:00	2024-11-08T18:00:00	7	Dirección del viento	1.61
62219	7	Sololá	710	Panajachel	8	Panajachel	9	Septiembre	2023-09-23T00:00:00	2024-11-08T18:00:00	1	Precipitación	0
62220	7	Sololá	710	Panajachel	8	Panajachel	9	Septiembre	2023-09-23T00:00:00	2024-11-08T18:00:00	8	Radiación solar	38
62221	7	Sololá	710	Panajachel	8	Panajachel	9	Septiembre	2023-09-23T00:00:00	2024-11-08T19:00:00	2	Temperatura media	21.7
62222	7	Sololá	710	Panajachel	8	Panajachel	9	Septiembre	2023-09-23T00:00:00	2024-11-08T19:00:00	4	Temperatura máxima	22
62223	7	Sololá	710	Panajachel	8	Panajachel	9	Septiembre	2023-09-23T00:00:00	2024-11-08T19:00:00	3	Temperatura mínima	21.3
62224	7	Sololá	710	Panajachel	8	Panajachel	9	Septiembre	2023-09-23T00:00:00	2024-11-08T19:00:00	5	Humedad	89
62225	7	Sololá	710	Panajachel	8	Panajachel	9	Septiembre	2023-09-23T00:00:00	2024-11-08T19:00:00	6	Velocidad del viento	1.6
62226	7	Sololá	710	Panajachel	8	Panajachel	9	Septiembre	2023-09-23T00:00:00	2024-11-08T19:00:00	7	Dirección del viento	1.61
62227	7	Sololá	710	Panajachel	8	Panajachel	9	Septiembre	2023-09-23T00:00:00	2024-11-08T19:00:00	1	Precipitación	0
62228	7	Sololá	710	Panajachel	8	Panajachel	9	Septiembre	2023-09-23T00:00:00	2024-11-08T19:00:00	8	Radiación solar	0
62229	7	Sololá	710	Panajachel	8	Panajachel	9	Septiembre	2023-09-23T00:00:00	2024-11-08T20:00:00	2	Temperatura media	20.2
62230	7	Sololá	710	Panajachel	8	Panajachel	9	Septiembre	2023-09-23T00:00:00	2024-11-08T20:00:00	4	Temperatura máxima	21.7
62231	7	Sololá	710	Panajachel	8	Panajachel	9	Septiembre	2023-09-23T00:00:00	2024-11-08T20:00:00	3	Temperatura mínima	20.2
62232	7	Sololá	710	Panajachel	8	Panajachel	9	Septiembre	2023-09-23T00:00:00	2024-11-08T20:00:00	5	Humedad	94
62233	7	Sololá	710	Panajachel	8	Panajachel	9	Septiembre	2023-09-23T00:00:00	2024-11-08T20:00:00	6	Velocidad del viento	1.6
62234	7	Sololá	710	Panajachel	8	Panajachel	9	Septiembre	2023-09-23T00:00:00	2024-11-08T20:00:00	7	Dirección del viento	1.61
62235	7	Sololá	710	Panajachel	8	Panajachel	9	Septiembre	2023-09-23T00:00:00	2024-11-08T20:00:00	1	Precipitación	0
62236	7	Sololá	710	Panajachel	8	Panajachel	9	Septiembre	2023-09-23T00:00:00	2024-11-08T20:00:00	8	Radiación solar	0
62237	7	Sololá	710	Panajachel	8	Panajachel	9	Septiembre	2023-09-23T00:00:00	2024-11-08T21:00:00	2	Temperatura media	19.6
62238	7	Sololá	710	Panajachel	8	Panajachel	9	Septiembre	2023-09-23T00:00:00	2024-11-08T21:00:00	4	Temperatura máxima	20.3
62239	7	Sololá	710	Panajachel	8	Panajachel	9	Septiembre	2023-09-23T00:00:00	2024-11-08T21:00:00	3	Temperatura mínima	19.6
62240	7	Sololá	710	Panajachel	8	Panajachel	9	Septiembre	2023-09-23T00:00:00	2024-11-08T21:00:00	5	Humedad	93
62241	7	Sololá	710	Panajachel	8	Panajachel	9	Septiembre	2023-09-23T00:00:00	2024-11-08T21:00:00	6	Velocidad del viento	0
62242	7	Sololá	710	Panajachel	8	Panajachel	9	Septiembre	2023-09-23T00:00:00	2024-11-08T21:00:00	7	Dirección del viento	0
62243	7	Sololá	710	Panajachel	8	Panajachel	9	Septiembre	2023-09-23T00:00:00	2024-11-08T21:00:00	1	Precipitación	0.4
62244	7	Sololá	710	Panajachel	8	Panajachel	9	Septiembre	2023-09-23T00:00:00	2024-11-08T21:00:00	8	Radiación solar	0
62245	7	Sololá	710	Panajachel	8	Panajachel	9	Septiembre	2023-09-23T00:00:00	2024-11-08T22:00:00	2	Temperatura media	19.4
62246	7	Sololá	710	Panajachel	8	Panajachel	9	Septiembre	2023-09-23T00:00:00	2024-11-08T22:00:00	4	Temperatura máxima	19.7
62247	7	Sololá	710	Panajachel	8	Panajachel	9	Septiembre	2023-09-23T00:00:00	2024-11-08T22:00:00	3	Temperatura mínima	19.2
62248	7	Sololá	710	Panajachel	8	Panajachel	9	Septiembre	2023-09-23T00:00:00	2024-11-08T22:00:00	5	Humedad	93
62249	7	Sololá	710	Panajachel	8	Panajachel	9	Septiembre	2023-09-23T00:00:00	2024-11-08T22:00:00	6	Velocidad del viento	0
62250	7	Sololá	710	Panajachel	8	Panajachel	9	Septiembre	2023-09-23T00:00:00	2024-11-08T22:00:00	7	Dirección del viento	0
62251	7	Sololá	710	Panajachel	8	Panajachel	9	Septiembre	2023-09-23T00:00:00	2024-11-08T22:00:00	1	Precipitación	0
62252	7	Sololá	710	Panajachel	8	Panajachel	9	Septiembre	2023-09-23T00:00:00	2024-11-08T22:00:00	8	Radiación solar	0
62253	7	Sololá	710	Panajachel	8	Panajachel	9	Septiembre	2023-09-23T00:00:00	2024-11-08T23:00:00	2	Temperatura media	19
62254	7	Sololá	710	Panajachel	8	Panajachel	9	Septiembre	2023-09-23T00:00:00	2024-11-08T23:00:00	4	Temperatura máxima	19.6
62255	7	Sololá	710	Panajachel	8	Panajachel	9	Septiembre	2023-09-23T00:00:00	2024-11-08T23:00:00	3	Temperatura mínima	19
62256	7	Sololá	710	Panajachel	8	Panajachel	9	Septiembre	2023-09-23T00:00:00	2024-11-08T23:00:00	5	Humedad	90
62257	7	Sololá	710	Panajachel	8	Panajachel	9	Septiembre	2023-09-23T00:00:00	2024-11-08T23:00:00	6	Velocidad del viento	0
62258	7	Sololá	710	Panajachel	8	Panajachel	9	Septiembre	2023-09-23T00:00:00	2024-11-08T23:00:00	7	Dirección del viento	0
62259	7	Sololá	710	Panajachel	8	Panajachel	9	Septiembre	2023-09-23T00:00:00	2024-11-08T23:00:00	1	Precipitación	0
62260	7	Sololá	710	Panajachel	8	Panajachel	9	Septiembre	2023-09-23T00:00:00	2024-11-08T23:00:00	8	Radiación solar	0
62261	7	Sololá	710	Panajachel	8	Panajachel	9	Septiembre	2023-09-24T00:00:00	2024-11-08T00:00:00	2	Temperatura media	18.7
62262	7	Sololá	710	Panajachel	8	Panajachel	9	Septiembre	2023-09-24T00:00:00	2024-11-08T00:00:00	4	Temperatura máxima	19.1
62263	7	Sololá	710	Panajachel	8	Panajachel	9	Septiembre	2023-09-24T00:00:00	2024-11-08T00:00:00	3	Temperatura mínima	18.6
62264	7	Sololá	710	Panajachel	8	Panajachel	9	Septiembre	2023-09-24T00:00:00	2024-11-08T00:00:00	5	Humedad	90
62265	7	Sololá	710	Panajachel	8	Panajachel	9	Septiembre	2023-09-24T00:00:00	2024-11-08T00:00:00	6	Velocidad del viento	0
62266	7	Sololá	710	Panajachel	8	Panajachel	9	Septiembre	2023-09-24T00:00:00	2024-11-08T00:00:00	7	Dirección del viento	0
62267	7	Sololá	710	Panajachel	8	Panajachel	9	Septiembre	2023-09-24T00:00:00	2024-11-08T00:00:00	1	Precipitación	0
62268	7	Sololá	710	Panajachel	8	Panajachel	9	Septiembre	2023-09-24T00:00:00	2024-11-08T00:00:00	8	Radiación solar	0
62269	7	Sololá	710	Panajachel	8	Panajachel	9	Septiembre	2023-09-24T00:00:00	2024-11-08T01:00:00	2	Temperatura media	17.9
62270	7	Sololá	710	Panajachel	8	Panajachel	9	Septiembre	2023-09-24T00:00:00	2024-11-08T01:00:00	4	Temperatura máxima	18.7
62271	7	Sololá	710	Panajachel	8	Panajachel	9	Septiembre	2023-09-24T00:00:00	2024-11-08T01:00:00	3	Temperatura mínima	17.9
62272	7	Sololá	710	Panajachel	8	Panajachel	9	Septiembre	2023-09-24T00:00:00	2024-11-08T01:00:00	5	Humedad	89
62273	7	Sololá	710	Panajachel	8	Panajachel	9	Septiembre	2023-09-24T00:00:00	2024-11-08T01:00:00	6	Velocidad del viento	0
62274	7	Sololá	710	Panajachel	8	Panajachel	9	Septiembre	2023-09-24T00:00:00	2024-11-08T01:00:00	7	Dirección del viento	0
62275	7	Sololá	710	Panajachel	8	Panajachel	9	Septiembre	2023-09-24T00:00:00	2024-11-08T01:00:00	1	Precipitación	0
62276	7	Sololá	710	Panajachel	8	Panajachel	9	Septiembre	2023-09-24T00:00:00	2024-11-08T01:00:00	8	Radiación solar	0
62277	7	Sololá	710	Panajachel	8	Panajachel	9	Septiembre	2023-09-24T00:00:00	2024-11-08T02:00:00	2	Temperatura media	17.3
62278	7	Sololá	710	Panajachel	8	Panajachel	9	Septiembre	2023-09-24T00:00:00	2024-11-08T02:00:00	4	Temperatura máxima	17.9
62279	7	Sololá	710	Panajachel	8	Panajachel	9	Septiembre	2023-09-24T00:00:00	2024-11-08T02:00:00	3	Temperatura mínima	17.3
62280	7	Sololá	710	Panajachel	8	Panajachel	9	Septiembre	2023-09-24T00:00:00	2024-11-08T02:00:00	5	Humedad	90
62281	7	Sololá	710	Panajachel	8	Panajachel	9	Septiembre	2023-09-24T00:00:00	2024-11-08T02:00:00	6	Velocidad del viento	0
62282	7	Sololá	710	Panajachel	8	Panajachel	9	Septiembre	2023-09-24T00:00:00	2024-11-08T02:00:00	7	Dirección del viento	0
62283	7	Sololá	710	Panajachel	8	Panajachel	9	Septiembre	2023-09-24T00:00:00	2024-11-08T02:00:00	1	Precipitación	0
62284	7	Sololá	710	Panajachel	8	Panajachel	9	Septiembre	2023-09-24T00:00:00	2024-11-08T02:00:00	8	Radiación solar	0
62285	7	Sololá	710	Panajachel	8	Panajachel	9	Septiembre	2023-09-24T00:00:00	2024-11-08T03:00:00	2	Temperatura media	17.4
62286	7	Sololá	710	Panajachel	8	Panajachel	9	Septiembre	2023-09-24T00:00:00	2024-11-08T03:00:00	4	Temperatura máxima	17.6
62287	7	Sololá	710	Panajachel	8	Panajachel	9	Septiembre	2023-09-24T00:00:00	2024-11-08T03:00:00	3	Temperatura mínima	17.3
62288	7	Sololá	710	Panajachel	8	Panajachel	9	Septiembre	2023-09-24T00:00:00	2024-11-08T03:00:00	5	Humedad	88
62289	7	Sololá	710	Panajachel	8	Panajachel	9	Septiembre	2023-09-24T00:00:00	2024-11-08T03:00:00	6	Velocidad del viento	1.6
62290	7	Sololá	710	Panajachel	8	Panajachel	9	Septiembre	2023-09-24T00:00:00	2024-11-08T03:00:00	7	Dirección del viento	1.61
62291	7	Sololá	710	Panajachel	8	Panajachel	9	Septiembre	2023-09-24T00:00:00	2024-11-08T03:00:00	1	Precipitación	0
62292	7	Sololá	710	Panajachel	8	Panajachel	9	Septiembre	2023-09-24T00:00:00	2024-11-08T03:00:00	8	Radiación solar	0
62293	7	Sololá	710	Panajachel	8	Panajachel	9	Septiembre	2023-09-24T00:00:00	2024-11-08T04:00:00	2	Temperatura media	16.9
62294	7	Sololá	710	Panajachel	8	Panajachel	9	Septiembre	2023-09-24T00:00:00	2024-11-08T04:00:00	4	Temperatura máxima	17.4
62295	7	Sololá	710	Panajachel	8	Panajachel	9	Septiembre	2023-09-24T00:00:00	2024-11-08T04:00:00	3	Temperatura mínima	16.9
62296	7	Sololá	710	Panajachel	8	Panajachel	9	Septiembre	2023-09-24T00:00:00	2024-11-08T04:00:00	5	Humedad	87
62297	7	Sololá	710	Panajachel	8	Panajachel	9	Septiembre	2023-09-24T00:00:00	2024-11-08T04:00:00	6	Velocidad del viento	1.6
62298	7	Sololá	710	Panajachel	8	Panajachel	9	Septiembre	2023-09-24T00:00:00	2024-11-08T04:00:00	7	Dirección del viento	1.61
62299	7	Sololá	710	Panajachel	8	Panajachel	9	Septiembre	2023-09-24T00:00:00	2024-11-08T04:00:00	1	Precipitación	0
62300	7	Sololá	710	Panajachel	8	Panajachel	9	Septiembre	2023-09-24T00:00:00	2024-11-08T04:00:00	8	Radiación solar	0
62301	7	Sololá	710	Panajachel	8	Panajachel	9	Septiembre	2023-09-24T00:00:00	2024-11-08T05:00:00	2	Temperatura media	17
62302	7	Sololá	710	Panajachel	8	Panajachel	9	Septiembre	2023-09-24T00:00:00	2024-11-08T05:00:00	4	Temperatura máxima	17.2
62303	7	Sololá	710	Panajachel	8	Panajachel	9	Septiembre	2023-09-24T00:00:00	2024-11-08T05:00:00	3	Temperatura mínima	16.9
62304	7	Sololá	710	Panajachel	8	Panajachel	9	Septiembre	2023-09-24T00:00:00	2024-11-08T05:00:00	5	Humedad	86
62305	7	Sololá	710	Panajachel	8	Panajachel	9	Septiembre	2023-09-24T00:00:00	2024-11-08T05:00:00	6	Velocidad del viento	1.6
62306	7	Sololá	710	Panajachel	8	Panajachel	9	Septiembre	2023-09-24T00:00:00	2024-11-08T05:00:00	7	Dirección del viento	1.61
62307	7	Sololá	710	Panajachel	8	Panajachel	9	Septiembre	2023-09-24T00:00:00	2024-11-08T05:00:00	1	Precipitación	0
62308	7	Sololá	710	Panajachel	8	Panajachel	9	Septiembre	2023-09-24T00:00:00	2024-11-08T05:00:00	8	Radiación solar	0
62309	7	Sololá	710	Panajachel	8	Panajachel	9	Septiembre	2023-09-24T00:00:00	2024-11-08T06:00:00	2	Temperatura media	16.7
62310	7	Sololá	710	Panajachel	8	Panajachel	9	Septiembre	2023-09-24T00:00:00	2024-11-08T06:00:00	4	Temperatura máxima	17.1
62311	7	Sololá	710	Panajachel	8	Panajachel	9	Septiembre	2023-09-24T00:00:00	2024-11-08T06:00:00	3	Temperatura mínima	16.7
62312	7	Sololá	710	Panajachel	8	Panajachel	9	Septiembre	2023-09-24T00:00:00	2024-11-08T06:00:00	5	Humedad	86
62313	7	Sololá	710	Panajachel	8	Panajachel	9	Septiembre	2023-09-24T00:00:00	2024-11-08T06:00:00	6	Velocidad del viento	0
62314	7	Sololá	710	Panajachel	8	Panajachel	9	Septiembre	2023-09-24T00:00:00	2024-11-08T06:00:00	7	Dirección del viento	0
62315	7	Sololá	710	Panajachel	8	Panajachel	9	Septiembre	2023-09-24T00:00:00	2024-11-08T06:00:00	1	Precipitación	0
62316	7	Sololá	710	Panajachel	8	Panajachel	9	Septiembre	2023-09-24T00:00:00	2024-11-08T06:00:00	8	Radiación solar	2
62317	7	Sololá	710	Panajachel	8	Panajachel	9	Septiembre	2023-09-24T00:00:00	2024-11-08T07:00:00	2	Temperatura media	17.1
62318	7	Sololá	710	Panajachel	8	Panajachel	9	Septiembre	2023-09-24T00:00:00	2024-11-08T07:00:00	4	Temperatura máxima	17.1
62319	7	Sololá	710	Panajachel	8	Panajachel	9	Septiembre	2023-09-24T00:00:00	2024-11-08T07:00:00	3	Temperatura mínima	16.3
62320	7	Sololá	710	Panajachel	8	Panajachel	9	Septiembre	2023-09-24T00:00:00	2024-11-08T07:00:00	5	Humedad	85
62321	7	Sololá	710	Panajachel	8	Panajachel	9	Septiembre	2023-09-24T00:00:00	2024-11-08T07:00:00	6	Velocidad del viento	0
62322	7	Sololá	710	Panajachel	8	Panajachel	9	Septiembre	2023-09-24T00:00:00	2024-11-08T07:00:00	7	Dirección del viento	0
62323	7	Sololá	710	Panajachel	8	Panajachel	9	Septiembre	2023-09-24T00:00:00	2024-11-08T07:00:00	1	Precipitación	0
62324	7	Sololá	710	Panajachel	8	Panajachel	9	Septiembre	2023-09-24T00:00:00	2024-11-08T07:00:00	8	Radiación solar	51
62325	7	Sololá	710	Panajachel	8	Panajachel	9	Septiembre	2023-09-24T00:00:00	2024-11-08T08:00:00	2	Temperatura media	21.3
62326	7	Sololá	710	Panajachel	8	Panajachel	9	Septiembre	2023-09-24T00:00:00	2024-11-08T08:00:00	4	Temperatura máxima	21.3
62327	7	Sololá	710	Panajachel	8	Panajachel	9	Septiembre	2023-09-24T00:00:00	2024-11-08T08:00:00	3	Temperatura mínima	17.1
62328	7	Sololá	710	Panajachel	8	Panajachel	9	Septiembre	2023-09-24T00:00:00	2024-11-08T08:00:00	5	Humedad	78
62329	7	Sololá	710	Panajachel	8	Panajachel	9	Septiembre	2023-09-24T00:00:00	2024-11-08T08:00:00	6	Velocidad del viento	0
62330	7	Sololá	710	Panajachel	8	Panajachel	9	Septiembre	2023-09-24T00:00:00	2024-11-08T08:00:00	7	Dirección del viento	0
62331	7	Sololá	710	Panajachel	8	Panajachel	9	Septiembre	2023-09-24T00:00:00	2024-11-08T08:00:00	1	Precipitación	0
62332	7	Sololá	710	Panajachel	8	Panajachel	9	Septiembre	2023-09-24T00:00:00	2024-11-08T08:00:00	8	Radiación solar	296
62333	7	Sololá	710	Panajachel	8	Panajachel	9	Septiembre	2023-09-24T00:00:00	2024-11-08T09:00:00	2	Temperatura media	22
62334	7	Sololá	710	Panajachel	8	Panajachel	9	Septiembre	2023-09-24T00:00:00	2024-11-08T09:00:00	4	Temperatura máxima	22
62335	7	Sololá	710	Panajachel	8	Panajachel	9	Septiembre	2023-09-24T00:00:00	2024-11-08T09:00:00	3	Temperatura mínima	20.7
62336	7	Sololá	710	Panajachel	8	Panajachel	9	Septiembre	2023-09-24T00:00:00	2024-11-08T09:00:00	5	Humedad	78
62337	7	Sololá	710	Panajachel	8	Panajachel	9	Septiembre	2023-09-24T00:00:00	2024-11-08T09:00:00	6	Velocidad del viento	0
62338	7	Sololá	710	Panajachel	8	Panajachel	9	Septiembre	2023-09-24T00:00:00	2024-11-08T09:00:00	7	Dirección del viento	0
62339	7	Sololá	710	Panajachel	8	Panajachel	9	Septiembre	2023-09-24T00:00:00	2024-11-08T09:00:00	1	Precipitación	0
62340	7	Sololá	710	Panajachel	8	Panajachel	9	Septiembre	2023-09-24T00:00:00	2024-11-08T09:00:00	8	Radiación solar	319
62341	7	Sololá	710	Panajachel	8	Panajachel	9	Septiembre	2023-09-24T00:00:00	2024-11-08T10:00:00	2	Temperatura media	22.2
62342	7	Sololá	710	Panajachel	8	Panajachel	9	Septiembre	2023-09-24T00:00:00	2024-11-08T10:00:00	4	Temperatura máxima	22.5
62343	7	Sololá	710	Panajachel	8	Panajachel	9	Septiembre	2023-09-24T00:00:00	2024-11-08T10:00:00	3	Temperatura mínima	21.8
62344	7	Sololá	710	Panajachel	8	Panajachel	9	Septiembre	2023-09-24T00:00:00	2024-11-08T10:00:00	5	Humedad	80
62345	7	Sololá	710	Panajachel	8	Panajachel	9	Septiembre	2023-09-24T00:00:00	2024-11-08T10:00:00	6	Velocidad del viento	0
62346	7	Sololá	710	Panajachel	8	Panajachel	9	Septiembre	2023-09-24T00:00:00	2024-11-08T10:00:00	7	Dirección del viento	0
62347	7	Sololá	710	Panajachel	8	Panajachel	9	Septiembre	2023-09-24T00:00:00	2024-11-08T10:00:00	1	Precipitación	0
62348	7	Sololá	710	Panajachel	8	Panajachel	9	Septiembre	2023-09-24T00:00:00	2024-11-08T10:00:00	8	Radiación solar	421
62349	7	Sololá	710	Panajachel	8	Panajachel	9	Septiembre	2023-09-24T00:00:00	2024-11-08T11:00:00	2	Temperatura media	23.6
62350	7	Sololá	710	Panajachel	8	Panajachel	9	Septiembre	2023-09-24T00:00:00	2024-11-08T11:00:00	4	Temperatura máxima	23.7
62351	7	Sololá	710	Panajachel	8	Panajachel	9	Septiembre	2023-09-24T00:00:00	2024-11-08T11:00:00	3	Temperatura mínima	22.2
62352	7	Sololá	710	Panajachel	8	Panajachel	9	Septiembre	2023-09-24T00:00:00	2024-11-08T11:00:00	5	Humedad	75
62353	7	Sololá	710	Panajachel	8	Panajachel	9	Septiembre	2023-09-24T00:00:00	2024-11-08T11:00:00	6	Velocidad del viento	0
62354	7	Sololá	710	Panajachel	8	Panajachel	9	Septiembre	2023-09-24T00:00:00	2024-11-08T11:00:00	7	Dirección del viento	0
62355	7	Sololá	710	Panajachel	8	Panajachel	9	Septiembre	2023-09-24T00:00:00	2024-11-08T11:00:00	1	Precipitación	0
62356	7	Sololá	710	Panajachel	8	Panajachel	9	Septiembre	2023-09-24T00:00:00	2024-11-08T11:00:00	8	Radiación solar	904
62357	7	Sololá	710	Panajachel	8	Panajachel	9	Septiembre	2023-09-24T00:00:00	2024-11-08T12:00:00	2	Temperatura media	24.3
62358	7	Sololá	710	Panajachel	8	Panajachel	9	Septiembre	2023-09-24T00:00:00	2024-11-08T12:00:00	4	Temperatura máxima	24.7
62359	7	Sololá	710	Panajachel	8	Panajachel	9	Septiembre	2023-09-24T00:00:00	2024-11-08T12:00:00	3	Temperatura mínima	23.5
62360	7	Sololá	710	Panajachel	8	Panajachel	9	Septiembre	2023-09-24T00:00:00	2024-11-08T12:00:00	5	Humedad	76
62361	7	Sololá	710	Panajachel	8	Panajachel	9	Septiembre	2023-09-24T00:00:00	2024-11-08T12:00:00	6	Velocidad del viento	1.6
62362	7	Sololá	710	Panajachel	8	Panajachel	9	Septiembre	2023-09-24T00:00:00	2024-11-08T12:00:00	7	Dirección del viento	1.61
62363	7	Sololá	710	Panajachel	8	Panajachel	9	Septiembre	2023-09-24T00:00:00	2024-11-08T12:00:00	1	Precipitación	0
62364	7	Sololá	710	Panajachel	8	Panajachel	9	Septiembre	2023-09-24T00:00:00	2024-11-08T12:00:00	8	Radiación solar	975
62365	7	Sololá	710	Panajachel	8	Panajachel	9	Septiembre	2023-09-24T00:00:00	2024-11-08T13:00:00	2	Temperatura media	23.8
62366	7	Sololá	710	Panajachel	8	Panajachel	9	Septiembre	2023-09-24T00:00:00	2024-11-08T13:00:00	4	Temperatura máxima	24.9
62367	7	Sololá	710	Panajachel	8	Panajachel	9	Septiembre	2023-09-24T00:00:00	2024-11-08T13:00:00	3	Temperatura mínima	23.8
62368	7	Sololá	710	Panajachel	8	Panajachel	9	Septiembre	2023-09-24T00:00:00	2024-11-08T13:00:00	5	Humedad	78
62369	7	Sololá	710	Panajachel	8	Panajachel	9	Septiembre	2023-09-24T00:00:00	2024-11-08T13:00:00	6	Velocidad del viento	1.6
62370	7	Sololá	710	Panajachel	8	Panajachel	9	Septiembre	2023-09-24T00:00:00	2024-11-08T13:00:00	7	Dirección del viento	1.61
62371	7	Sololá	710	Panajachel	8	Panajachel	9	Septiembre	2023-09-24T00:00:00	2024-11-08T13:00:00	1	Precipitación	0
62372	7	Sololá	710	Panajachel	8	Panajachel	9	Septiembre	2023-09-24T00:00:00	2024-11-08T13:00:00	8	Radiación solar	791
62373	7	Sololá	710	Panajachel	8	Panajachel	9	Septiembre	2023-09-24T00:00:00	2024-11-08T14:00:00	2	Temperatura media	22.4
62374	7	Sololá	710	Panajachel	8	Panajachel	9	Septiembre	2023-09-24T00:00:00	2024-11-08T14:00:00	4	Temperatura máxima	23.9
62375	7	Sololá	710	Panajachel	8	Panajachel	9	Septiembre	2023-09-24T00:00:00	2024-11-08T14:00:00	3	Temperatura mínima	22.4
62376	7	Sololá	710	Panajachel	8	Panajachel	9	Septiembre	2023-09-24T00:00:00	2024-11-08T14:00:00	5	Humedad	81
62377	7	Sololá	710	Panajachel	8	Panajachel	9	Septiembre	2023-09-24T00:00:00	2024-11-08T14:00:00	6	Velocidad del viento	1.6
62378	7	Sololá	710	Panajachel	8	Panajachel	9	Septiembre	2023-09-24T00:00:00	2024-11-08T14:00:00	7	Dirección del viento	1.61
62379	7	Sololá	710	Panajachel	8	Panajachel	9	Septiembre	2023-09-24T00:00:00	2024-11-08T14:00:00	1	Precipitación	0
62380	7	Sololá	710	Panajachel	8	Panajachel	9	Septiembre	2023-09-24T00:00:00	2024-11-08T14:00:00	8	Radiación solar	236
62381	7	Sololá	710	Panajachel	8	Panajachel	9	Septiembre	2023-09-24T00:00:00	2024-11-08T15:00:00	2	Temperatura media	21
62382	7	Sololá	710	Panajachel	8	Panajachel	9	Septiembre	2023-09-24T00:00:00	2024-11-08T15:00:00	4	Temperatura máxima	22.4
62383	7	Sololá	710	Panajachel	8	Panajachel	9	Septiembre	2023-09-24T00:00:00	2024-11-08T15:00:00	3	Temperatura mínima	20.7
62384	7	Sololá	710	Panajachel	8	Panajachel	9	Septiembre	2023-09-24T00:00:00	2024-11-08T15:00:00	5	Humedad	86
62385	7	Sololá	710	Panajachel	8	Panajachel	9	Septiembre	2023-09-24T00:00:00	2024-11-08T15:00:00	6	Velocidad del viento	4.8
62386	7	Sololá	710	Panajachel	8	Panajachel	9	Septiembre	2023-09-24T00:00:00	2024-11-08T15:00:00	7	Dirección del viento	4.83
62387	7	Sololá	710	Panajachel	8	Panajachel	9	Septiembre	2023-09-24T00:00:00	2024-11-08T15:00:00	1	Precipitación	0.2
62388	7	Sololá	710	Panajachel	8	Panajachel	9	Septiembre	2023-09-24T00:00:00	2024-11-08T15:00:00	8	Radiación solar	139
62389	7	Sololá	710	Panajachel	8	Panajachel	9	Septiembre	2023-09-24T00:00:00	2024-11-08T16:00:00	2	Temperatura media	22.2
62390	7	Sololá	710	Panajachel	8	Panajachel	9	Septiembre	2023-09-24T00:00:00	2024-11-08T16:00:00	4	Temperatura máxima	23.1
62391	7	Sololá	710	Panajachel	8	Panajachel	9	Septiembre	2023-09-24T00:00:00	2024-11-08T16:00:00	3	Temperatura mínima	21
62392	7	Sololá	710	Panajachel	8	Panajachel	9	Septiembre	2023-09-24T00:00:00	2024-11-08T16:00:00	5	Humedad	79
62393	7	Sololá	710	Panajachel	8	Panajachel	9	Septiembre	2023-09-24T00:00:00	2024-11-08T16:00:00	6	Velocidad del viento	0
62394	7	Sololá	710	Panajachel	8	Panajachel	9	Septiembre	2023-09-24T00:00:00	2024-11-08T16:00:00	7	Dirección del viento	0
62395	7	Sololá	710	Panajachel	8	Panajachel	9	Septiembre	2023-09-24T00:00:00	2024-11-08T16:00:00	1	Precipitación	0
62396	7	Sololá	710	Panajachel	8	Panajachel	9	Septiembre	2023-09-24T00:00:00	2024-11-08T16:00:00	8	Radiación solar	341
62397	7	Sololá	710	Panajachel	8	Panajachel	9	Septiembre	2023-09-24T00:00:00	2024-11-08T17:00:00	2	Temperatura media	21.7
62398	7	Sololá	710	Panajachel	8	Panajachel	9	Septiembre	2023-09-24T00:00:00	2024-11-08T17:00:00	4	Temperatura máxima	22.6
62399	7	Sololá	710	Panajachel	8	Panajachel	9	Septiembre	2023-09-24T00:00:00	2024-11-08T17:00:00	3	Temperatura mínima	21.7
62400	7	Sololá	710	Panajachel	8	Panajachel	9	Septiembre	2023-09-24T00:00:00	2024-11-08T17:00:00	5	Humedad	80
62401	7	Sololá	710	Panajachel	8	Panajachel	9	Septiembre	2023-09-24T00:00:00	2024-11-08T17:00:00	6	Velocidad del viento	0
62402	7	Sololá	710	Panajachel	8	Panajachel	9	Septiembre	2023-09-24T00:00:00	2024-11-08T17:00:00	7	Dirección del viento	0
62403	7	Sololá	710	Panajachel	8	Panajachel	9	Septiembre	2023-09-24T00:00:00	2024-11-08T17:00:00	1	Precipitación	0
62404	7	Sololá	710	Panajachel	8	Panajachel	9	Septiembre	2023-09-24T00:00:00	2024-11-08T17:00:00	8	Radiación solar	104
62405	7	Sololá	710	Panajachel	8	Panajachel	9	Septiembre	2023-09-24T00:00:00	2024-11-08T18:00:00	2	Temperatura media	20.7
62406	7	Sololá	710	Panajachel	8	Panajachel	9	Septiembre	2023-09-24T00:00:00	2024-11-08T18:00:00	4	Temperatura máxima	21.7
62407	7	Sololá	710	Panajachel	8	Panajachel	9	Septiembre	2023-09-24T00:00:00	2024-11-08T18:00:00	3	Temperatura mínima	20.7
62408	7	Sololá	710	Panajachel	8	Panajachel	9	Septiembre	2023-09-24T00:00:00	2024-11-08T18:00:00	5	Humedad	85
62409	7	Sololá	710	Panajachel	8	Panajachel	9	Septiembre	2023-09-24T00:00:00	2024-11-08T18:00:00	6	Velocidad del viento	0
62410	7	Sololá	710	Panajachel	8	Panajachel	9	Septiembre	2023-09-24T00:00:00	2024-11-08T18:00:00	7	Dirección del viento	0
62411	7	Sololá	710	Panajachel	8	Panajachel	9	Septiembre	2023-09-24T00:00:00	2024-11-08T18:00:00	1	Precipitación	0
62412	7	Sololá	710	Panajachel	8	Panajachel	9	Septiembre	2023-09-24T00:00:00	2024-11-08T18:00:00	8	Radiación solar	3
62413	7	Sololá	710	Panajachel	8	Panajachel	9	Septiembre	2023-09-24T00:00:00	2024-11-08T19:00:00	2	Temperatura media	20.2
62414	7	Sololá	710	Panajachel	8	Panajachel	9	Septiembre	2023-09-24T00:00:00	2024-11-08T19:00:00	4	Temperatura máxima	20.7
62415	7	Sololá	710	Panajachel	8	Panajachel	9	Septiembre	2023-09-24T00:00:00	2024-11-08T19:00:00	3	Temperatura mínima	20.2
62416	7	Sololá	710	Panajachel	8	Panajachel	9	Septiembre	2023-09-24T00:00:00	2024-11-08T19:00:00	5	Humedad	91
62417	7	Sololá	710	Panajachel	8	Panajachel	9	Septiembre	2023-09-24T00:00:00	2024-11-08T19:00:00	6	Velocidad del viento	0
62418	7	Sololá	710	Panajachel	8	Panajachel	9	Septiembre	2023-09-24T00:00:00	2024-11-08T19:00:00	7	Dirección del viento	0
62419	7	Sololá	710	Panajachel	8	Panajachel	9	Septiembre	2023-09-24T00:00:00	2024-11-08T19:00:00	1	Precipitación	0
62420	7	Sololá	710	Panajachel	8	Panajachel	9	Septiembre	2023-09-24T00:00:00	2024-11-08T19:00:00	8	Radiación solar	0
62421	7	Sololá	710	Panajachel	8	Panajachel	9	Septiembre	2023-09-24T00:00:00	2024-11-08T20:00:00	2	Temperatura media	20.1
62422	7	Sololá	710	Panajachel	8	Panajachel	9	Septiembre	2023-09-24T00:00:00	2024-11-08T20:00:00	4	Temperatura máxima	20.3
62423	7	Sololá	710	Panajachel	8	Panajachel	9	Septiembre	2023-09-24T00:00:00	2024-11-08T20:00:00	3	Temperatura mínima	20.1
62424	7	Sololá	710	Panajachel	8	Panajachel	9	Septiembre	2023-09-24T00:00:00	2024-11-08T20:00:00	5	Humedad	90
62425	7	Sololá	710	Panajachel	8	Panajachel	9	Septiembre	2023-09-24T00:00:00	2024-11-08T20:00:00	6	Velocidad del viento	0
62426	7	Sololá	710	Panajachel	8	Panajachel	9	Septiembre	2023-09-24T00:00:00	2024-11-08T20:00:00	7	Dirección del viento	0
62427	7	Sololá	710	Panajachel	8	Panajachel	9	Septiembre	2023-09-24T00:00:00	2024-11-08T20:00:00	1	Precipitación	0
62428	7	Sololá	710	Panajachel	8	Panajachel	9	Septiembre	2023-09-24T00:00:00	2024-11-08T20:00:00	8	Radiación solar	0
62429	7	Sololá	710	Panajachel	8	Panajachel	9	Septiembre	2023-09-24T00:00:00	2024-11-08T21:00:00	2	Temperatura media	19.9
62430	7	Sololá	710	Panajachel	8	Panajachel	9	Septiembre	2023-09-24T00:00:00	2024-11-08T21:00:00	4	Temperatura máxima	20.1
62431	7	Sololá	710	Panajachel	8	Panajachel	9	Septiembre	2023-09-24T00:00:00	2024-11-08T21:00:00	3	Temperatura mínima	19.8
62432	7	Sololá	710	Panajachel	8	Panajachel	9	Septiembre	2023-09-24T00:00:00	2024-11-08T21:00:00	5	Humedad	90
62433	7	Sololá	710	Panajachel	8	Panajachel	9	Septiembre	2023-09-24T00:00:00	2024-11-08T21:00:00	6	Velocidad del viento	0
62434	7	Sololá	710	Panajachel	8	Panajachel	9	Septiembre	2023-09-24T00:00:00	2024-11-08T21:00:00	7	Dirección del viento	0
62435	7	Sololá	710	Panajachel	8	Panajachel	9	Septiembre	2023-09-24T00:00:00	2024-11-08T21:00:00	1	Precipitación	0
62436	7	Sololá	710	Panajachel	8	Panajachel	9	Septiembre	2023-09-24T00:00:00	2024-11-08T21:00:00	8	Radiación solar	0
62437	7	Sololá	710	Panajachel	8	Panajachel	9	Septiembre	2023-09-24T00:00:00	2024-11-08T22:00:00	2	Temperatura media	19.7
62438	7	Sololá	710	Panajachel	8	Panajachel	9	Septiembre	2023-09-24T00:00:00	2024-11-08T22:00:00	4	Temperatura máxima	20
62439	7	Sololá	710	Panajachel	8	Panajachel	9	Septiembre	2023-09-24T00:00:00	2024-11-08T22:00:00	3	Temperatura mínima	19.6
62440	7	Sololá	710	Panajachel	8	Panajachel	9	Septiembre	2023-09-24T00:00:00	2024-11-08T22:00:00	5	Humedad	91
62441	7	Sololá	710	Panajachel	8	Panajachel	9	Septiembre	2023-09-24T00:00:00	2024-11-08T22:00:00	6	Velocidad del viento	0
62442	7	Sololá	710	Panajachel	8	Panajachel	9	Septiembre	2023-09-24T00:00:00	2024-11-08T22:00:00	7	Dirección del viento	0
62443	7	Sololá	710	Panajachel	8	Panajachel	9	Septiembre	2023-09-24T00:00:00	2024-11-08T22:00:00	1	Precipitación	0
62444	7	Sololá	710	Panajachel	8	Panajachel	9	Septiembre	2023-09-24T00:00:00	2024-11-08T22:00:00	8	Radiación solar	0
62445	7	Sololá	710	Panajachel	8	Panajachel	9	Septiembre	2023-09-24T00:00:00	2024-11-08T23:00:00	2	Temperatura media	17.8
62446	7	Sololá	710	Panajachel	8	Panajachel	9	Septiembre	2023-09-24T00:00:00	2024-11-08T23:00:00	4	Temperatura máxima	19.7
62447	7	Sololá	710	Panajachel	8	Panajachel	9	Septiembre	2023-09-24T00:00:00	2024-11-08T23:00:00	3	Temperatura mínima	17.7
62448	7	Sololá	710	Panajachel	8	Panajachel	9	Septiembre	2023-09-24T00:00:00	2024-11-08T23:00:00	5	Humedad	96
62449	7	Sololá	710	Panajachel	8	Panajachel	9	Septiembre	2023-09-24T00:00:00	2024-11-08T23:00:00	6	Velocidad del viento	0
62450	7	Sololá	710	Panajachel	8	Panajachel	9	Septiembre	2023-09-24T00:00:00	2024-11-08T23:00:00	7	Dirección del viento	0
62451	7	Sololá	710	Panajachel	8	Panajachel	9	Septiembre	2023-09-24T00:00:00	2024-11-08T23:00:00	1	Precipitación	2.2
62452	7	Sololá	710	Panajachel	8	Panajachel	9	Septiembre	2023-09-24T00:00:00	2024-11-08T23:00:00	8	Radiación solar	0
62453	7	Sololá	710	Panajachel	8	Panajachel	9	Septiembre	2023-09-25T00:00:00	2024-11-08T00:00:00	2	Temperatura media	17.4
62454	7	Sololá	710	Panajachel	8	Panajachel	9	Septiembre	2023-09-25T00:00:00	2024-11-08T00:00:00	4	Temperatura máxima	18.1
62455	7	Sololá	710	Panajachel	8	Panajachel	9	Septiembre	2023-09-25T00:00:00	2024-11-08T00:00:00	3	Temperatura mínima	17.3
62456	7	Sololá	710	Panajachel	8	Panajachel	9	Septiembre	2023-09-25T00:00:00	2024-11-08T00:00:00	5	Humedad	97
62457	7	Sololá	710	Panajachel	8	Panajachel	9	Septiembre	2023-09-25T00:00:00	2024-11-08T00:00:00	6	Velocidad del viento	0
62458	7	Sololá	710	Panajachel	8	Panajachel	9	Septiembre	2023-09-25T00:00:00	2024-11-08T00:00:00	7	Dirección del viento	0
62459	7	Sololá	710	Panajachel	8	Panajachel	9	Septiembre	2023-09-25T00:00:00	2024-11-08T00:00:00	1	Precipitación	14
62460	7	Sololá	710	Panajachel	8	Panajachel	9	Septiembre	2023-09-25T00:00:00	2024-11-08T00:00:00	8	Radiación solar	0
62461	7	Sololá	710	Panajachel	8	Panajachel	9	Septiembre	2023-09-25T00:00:00	2024-11-08T01:00:00	2	Temperatura media	17.4
62462	7	Sololá	710	Panajachel	8	Panajachel	9	Septiembre	2023-09-25T00:00:00	2024-11-08T01:00:00	4	Temperatura máxima	17.4
62463	7	Sololá	710	Panajachel	8	Panajachel	9	Septiembre	2023-09-25T00:00:00	2024-11-08T01:00:00	3	Temperatura mínima	17.2
62464	7	Sololá	710	Panajachel	8	Panajachel	9	Septiembre	2023-09-25T00:00:00	2024-11-08T01:00:00	5	Humedad	97
62465	7	Sololá	710	Panajachel	8	Panajachel	9	Septiembre	2023-09-25T00:00:00	2024-11-08T01:00:00	6	Velocidad del viento	0
62466	7	Sololá	710	Panajachel	8	Panajachel	9	Septiembre	2023-09-25T00:00:00	2024-11-08T01:00:00	7	Dirección del viento	0
62467	7	Sololá	710	Panajachel	8	Panajachel	9	Septiembre	2023-09-25T00:00:00	2024-11-08T01:00:00	1	Precipitación	4.6
62468	7	Sololá	710	Panajachel	8	Panajachel	9	Septiembre	2023-09-25T00:00:00	2024-11-08T01:00:00	8	Radiación solar	0
62469	7	Sololá	710	Panajachel	8	Panajachel	9	Septiembre	2023-09-25T00:00:00	2024-11-08T02:00:00	2	Temperatura media	17.1
62470	7	Sololá	710	Panajachel	8	Panajachel	9	Septiembre	2023-09-25T00:00:00	2024-11-08T02:00:00	4	Temperatura máxima	17.4
62471	7	Sololá	710	Panajachel	8	Panajachel	9	Septiembre	2023-09-25T00:00:00	2024-11-08T02:00:00	3	Temperatura mínima	17
62472	7	Sololá	710	Panajachel	8	Panajachel	9	Septiembre	2023-09-25T00:00:00	2024-11-08T02:00:00	5	Humedad	98
62473	7	Sololá	710	Panajachel	8	Panajachel	9	Septiembre	2023-09-25T00:00:00	2024-11-08T02:00:00	6	Velocidad del viento	0
62474	7	Sololá	710	Panajachel	8	Panajachel	9	Septiembre	2023-09-25T00:00:00	2024-11-08T02:00:00	7	Dirección del viento	0
62475	7	Sololá	710	Panajachel	8	Panajachel	9	Septiembre	2023-09-25T00:00:00	2024-11-08T02:00:00	1	Precipitación	2.2
62476	7	Sololá	710	Panajachel	8	Panajachel	9	Septiembre	2023-09-25T00:00:00	2024-11-08T02:00:00	8	Radiación solar	0
62477	7	Sololá	710	Panajachel	8	Panajachel	9	Septiembre	2023-09-25T00:00:00	2024-11-08T03:00:00	2	Temperatura media	17.1
62478	7	Sololá	710	Panajachel	8	Panajachel	9	Septiembre	2023-09-25T00:00:00	2024-11-08T03:00:00	4	Temperatura máxima	17.2
62479	7	Sololá	710	Panajachel	8	Panajachel	9	Septiembre	2023-09-25T00:00:00	2024-11-08T03:00:00	3	Temperatura mínima	17
62480	7	Sololá	710	Panajachel	8	Panajachel	9	Septiembre	2023-09-25T00:00:00	2024-11-08T03:00:00	5	Humedad	97
62481	7	Sololá	710	Panajachel	8	Panajachel	9	Septiembre	2023-09-25T00:00:00	2024-11-08T03:00:00	6	Velocidad del viento	0
62482	7	Sololá	710	Panajachel	8	Panajachel	9	Septiembre	2023-09-25T00:00:00	2024-11-08T03:00:00	7	Dirección del viento	0
62483	7	Sololá	710	Panajachel	8	Panajachel	9	Septiembre	2023-09-25T00:00:00	2024-11-08T03:00:00	1	Precipitación	0
62484	7	Sololá	710	Panajachel	8	Panajachel	9	Septiembre	2023-09-25T00:00:00	2024-11-08T03:00:00	8	Radiación solar	0
62485	7	Sololá	710	Panajachel	8	Panajachel	9	Septiembre	2023-09-25T00:00:00	2024-11-08T04:00:00	2	Temperatura media	16.9
62486	7	Sololá	710	Panajachel	8	Panajachel	9	Septiembre	2023-09-25T00:00:00	2024-11-08T04:00:00	4	Temperatura máxima	17
62487	7	Sololá	710	Panajachel	8	Panajachel	9	Septiembre	2023-09-25T00:00:00	2024-11-08T04:00:00	3	Temperatura mínima	16.7
62488	7	Sololá	710	Panajachel	8	Panajachel	9	Septiembre	2023-09-25T00:00:00	2024-11-08T04:00:00	5	Humedad	95
62489	7	Sololá	710	Panajachel	8	Panajachel	9	Septiembre	2023-09-25T00:00:00	2024-11-08T04:00:00	6	Velocidad del viento	0
62490	7	Sololá	710	Panajachel	8	Panajachel	9	Septiembre	2023-09-25T00:00:00	2024-11-08T04:00:00	7	Dirección del viento	0
62491	7	Sololá	710	Panajachel	8	Panajachel	9	Septiembre	2023-09-25T00:00:00	2024-11-08T04:00:00	1	Precipitación	0
62492	7	Sololá	710	Panajachel	8	Panajachel	9	Septiembre	2023-09-25T00:00:00	2024-11-08T04:00:00	8	Radiación solar	0
62493	7	Sololá	710	Panajachel	8	Panajachel	9	Septiembre	2023-09-25T00:00:00	2024-11-08T05:00:00	2	Temperatura media	16.8
62494	7	Sololá	710	Panajachel	8	Panajachel	9	Septiembre	2023-09-25T00:00:00	2024-11-08T05:00:00	4	Temperatura máxima	16.9
62495	7	Sololá	710	Panajachel	8	Panajachel	9	Septiembre	2023-09-25T00:00:00	2024-11-08T05:00:00	3	Temperatura mínima	16.7
62496	7	Sololá	710	Panajachel	8	Panajachel	9	Septiembre	2023-09-25T00:00:00	2024-11-08T05:00:00	5	Humedad	95
62497	7	Sololá	710	Panajachel	8	Panajachel	9	Septiembre	2023-09-25T00:00:00	2024-11-08T05:00:00	6	Velocidad del viento	0
62498	7	Sololá	710	Panajachel	8	Panajachel	9	Septiembre	2023-09-25T00:00:00	2024-11-08T05:00:00	7	Dirección del viento	0
62499	7	Sololá	710	Panajachel	8	Panajachel	9	Septiembre	2023-09-25T00:00:00	2024-11-08T05:00:00	1	Precipitación	0
62500	7	Sololá	710	Panajachel	8	Panajachel	9	Septiembre	2023-09-25T00:00:00	2024-11-08T05:00:00	8	Radiación solar	0
62501	7	Sololá	710	Panajachel	8	Panajachel	9	Septiembre	2023-09-25T00:00:00	2024-11-08T06:00:00	2	Temperatura media	16.7
62502	7	Sololá	710	Panajachel	8	Panajachel	9	Septiembre	2023-09-25T00:00:00	2024-11-08T06:00:00	4	Temperatura máxima	16.8
62503	7	Sololá	710	Panajachel	8	Panajachel	9	Septiembre	2023-09-25T00:00:00	2024-11-08T06:00:00	3	Temperatura mínima	16.7
62504	7	Sololá	710	Panajachel	8	Panajachel	9	Septiembre	2023-09-25T00:00:00	2024-11-08T06:00:00	5	Humedad	94
62505	7	Sololá	710	Panajachel	8	Panajachel	9	Septiembre	2023-09-25T00:00:00	2024-11-08T06:00:00	6	Velocidad del viento	0
62506	7	Sololá	710	Panajachel	8	Panajachel	9	Septiembre	2023-09-25T00:00:00	2024-11-08T06:00:00	7	Dirección del viento	0
62507	7	Sololá	710	Panajachel	8	Panajachel	9	Septiembre	2023-09-25T00:00:00	2024-11-08T06:00:00	1	Precipitación	0
62508	7	Sololá	710	Panajachel	8	Panajachel	9	Septiembre	2023-09-25T00:00:00	2024-11-08T06:00:00	8	Radiación solar	0
62509	7	Sololá	710	Panajachel	8	Panajachel	9	Septiembre	2023-09-25T00:00:00	2024-11-08T07:00:00	2	Temperatura media	17.2
62510	7	Sololá	710	Panajachel	8	Panajachel	9	Septiembre	2023-09-25T00:00:00	2024-11-08T07:00:00	4	Temperatura máxima	17.2
62511	7	Sololá	710	Panajachel	8	Panajachel	9	Septiembre	2023-09-25T00:00:00	2024-11-08T07:00:00	3	Temperatura mínima	16.7
62512	7	Sololá	710	Panajachel	8	Panajachel	9	Septiembre	2023-09-25T00:00:00	2024-11-08T07:00:00	5	Humedad	92
62513	7	Sololá	710	Panajachel	8	Panajachel	9	Septiembre	2023-09-25T00:00:00	2024-11-08T07:00:00	6	Velocidad del viento	0
62514	7	Sololá	710	Panajachel	8	Panajachel	9	Septiembre	2023-09-25T00:00:00	2024-11-08T07:00:00	7	Dirección del viento	0
62515	7	Sololá	710	Panajachel	8	Panajachel	9	Septiembre	2023-09-25T00:00:00	2024-11-08T07:00:00	1	Precipitación	0
62516	7	Sololá	710	Panajachel	8	Panajachel	9	Septiembre	2023-09-25T00:00:00	2024-11-08T07:00:00	8	Radiación solar	42
62517	7	Sololá	710	Panajachel	8	Panajachel	9	Septiembre	2023-09-25T00:00:00	2024-11-08T08:00:00	2	Temperatura media	20.3
62518	7	Sololá	710	Panajachel	8	Panajachel	9	Septiembre	2023-09-25T00:00:00	2024-11-08T08:00:00	4	Temperatura máxima	20.3
62519	7	Sololá	710	Panajachel	8	Panajachel	9	Septiembre	2023-09-25T00:00:00	2024-11-08T08:00:00	3	Temperatura mínima	17.2
62520	7	Sololá	710	Panajachel	8	Panajachel	9	Septiembre	2023-09-25T00:00:00	2024-11-08T08:00:00	5	Humedad	76
62521	7	Sololá	710	Panajachel	8	Panajachel	9	Septiembre	2023-09-25T00:00:00	2024-11-08T08:00:00	6	Velocidad del viento	0
62522	7	Sololá	710	Panajachel	8	Panajachel	9	Septiembre	2023-09-25T00:00:00	2024-11-08T08:00:00	7	Dirección del viento	0
62523	7	Sololá	710	Panajachel	8	Panajachel	9	Septiembre	2023-09-25T00:00:00	2024-11-08T08:00:00	1	Precipitación	0
62524	7	Sololá	710	Panajachel	8	Panajachel	9	Septiembre	2023-09-25T00:00:00	2024-11-08T08:00:00	8	Radiación solar	314
62525	7	Sololá	710	Panajachel	8	Panajachel	9	Septiembre	2023-09-25T00:00:00	2024-11-08T09:00:00	2	Temperatura media	20.6
62526	7	Sololá	710	Panajachel	8	Panajachel	9	Septiembre	2023-09-25T00:00:00	2024-11-08T09:00:00	4	Temperatura máxima	21.1
62527	7	Sololá	710	Panajachel	8	Panajachel	9	Septiembre	2023-09-25T00:00:00	2024-11-08T09:00:00	3	Temperatura mínima	20.3
62528	7	Sololá	710	Panajachel	8	Panajachel	9	Septiembre	2023-09-25T00:00:00	2024-11-08T09:00:00	5	Humedad	79
62529	7	Sololá	710	Panajachel	8	Panajachel	9	Septiembre	2023-09-25T00:00:00	2024-11-08T09:00:00	6	Velocidad del viento	0
62530	7	Sololá	710	Panajachel	8	Panajachel	9	Septiembre	2023-09-25T00:00:00	2024-11-08T09:00:00	7	Dirección del viento	0
62531	7	Sololá	710	Panajachel	8	Panajachel	9	Septiembre	2023-09-25T00:00:00	2024-11-08T09:00:00	1	Precipitación	0
62532	7	Sololá	710	Panajachel	8	Panajachel	9	Septiembre	2023-09-25T00:00:00	2024-11-08T09:00:00	8	Radiación solar	297
62533	7	Sololá	710	Panajachel	8	Panajachel	9	Septiembre	2023-09-25T00:00:00	2024-11-08T10:00:00	2	Temperatura media	21.3
62534	7	Sololá	710	Panajachel	8	Panajachel	9	Septiembre	2023-09-25T00:00:00	2024-11-08T10:00:00	4	Temperatura máxima	21.6
62535	7	Sololá	710	Panajachel	8	Panajachel	9	Septiembre	2023-09-25T00:00:00	2024-11-08T10:00:00	3	Temperatura mínima	20.6
62536	7	Sololá	710	Panajachel	8	Panajachel	9	Septiembre	2023-09-25T00:00:00	2024-11-08T10:00:00	5	Humedad	78
62537	7	Sololá	710	Panajachel	8	Panajachel	9	Septiembre	2023-09-25T00:00:00	2024-11-08T10:00:00	6	Velocidad del viento	1.6
62538	7	Sololá	710	Panajachel	8	Panajachel	9	Septiembre	2023-09-25T00:00:00	2024-11-08T10:00:00	7	Dirección del viento	1.61
62539	7	Sololá	710	Panajachel	8	Panajachel	9	Septiembre	2023-09-25T00:00:00	2024-11-08T10:00:00	1	Precipitación	0
62540	7	Sololá	710	Panajachel	8	Panajachel	9	Septiembre	2023-09-25T00:00:00	2024-11-08T10:00:00	8	Radiación solar	578
62541	7	Sololá	710	Panajachel	8	Panajachel	9	Septiembre	2023-09-25T00:00:00	2024-11-08T11:00:00	2	Temperatura media	22.4
62542	7	Sololá	710	Panajachel	8	Panajachel	9	Septiembre	2023-09-25T00:00:00	2024-11-08T11:00:00	4	Temperatura máxima	22.7
62543	7	Sololá	710	Panajachel	8	Panajachel	9	Septiembre	2023-09-25T00:00:00	2024-11-08T11:00:00	3	Temperatura mínima	21.2
62544	7	Sololá	710	Panajachel	8	Panajachel	9	Septiembre	2023-09-25T00:00:00	2024-11-08T11:00:00	5	Humedad	74
62545	7	Sololá	710	Panajachel	8	Panajachel	9	Septiembre	2023-09-25T00:00:00	2024-11-08T11:00:00	6	Velocidad del viento	0
62546	7	Sololá	710	Panajachel	8	Panajachel	9	Septiembre	2023-09-25T00:00:00	2024-11-08T11:00:00	7	Dirección del viento	0
62547	7	Sololá	710	Panajachel	8	Panajachel	9	Septiembre	2023-09-25T00:00:00	2024-11-08T11:00:00	1	Precipitación	0
62548	7	Sololá	710	Panajachel	8	Panajachel	9	Septiembre	2023-09-25T00:00:00	2024-11-08T11:00:00	8	Radiación solar	494
62549	7	Sololá	710	Panajachel	8	Panajachel	9	Septiembre	2023-09-25T00:00:00	2024-11-08T12:00:00	2	Temperatura media	22.8
62550	7	Sololá	710	Panajachel	8	Panajachel	9	Septiembre	2023-09-25T00:00:00	2024-11-08T12:00:00	4	Temperatura máxima	23.3
62551	7	Sololá	710	Panajachel	8	Panajachel	9	Septiembre	2023-09-25T00:00:00	2024-11-08T12:00:00	3	Temperatura mínima	22.3
62552	7	Sololá	710	Panajachel	8	Panajachel	9	Septiembre	2023-09-25T00:00:00	2024-11-08T12:00:00	5	Humedad	81
62553	7	Sololá	710	Panajachel	8	Panajachel	9	Septiembre	2023-09-25T00:00:00	2024-11-08T12:00:00	6	Velocidad del viento	0
62554	7	Sololá	710	Panajachel	8	Panajachel	9	Septiembre	2023-09-25T00:00:00	2024-11-08T12:00:00	7	Dirección del viento	0
62555	7	Sololá	710	Panajachel	8	Panajachel	9	Septiembre	2023-09-25T00:00:00	2024-11-08T12:00:00	1	Precipitación	0
62556	7	Sololá	710	Panajachel	8	Panajachel	9	Septiembre	2023-09-25T00:00:00	2024-11-08T12:00:00	8	Radiación solar	516
62557	7	Sololá	710	Panajachel	8	Panajachel	9	Septiembre	2023-09-25T00:00:00	2024-11-08T13:00:00	2	Temperatura media	22.7
62558	7	Sololá	710	Panajachel	8	Panajachel	9	Septiembre	2023-09-25T00:00:00	2024-11-08T13:00:00	4	Temperatura máxima	22.9
62559	7	Sololá	710	Panajachel	8	Panajachel	9	Septiembre	2023-09-25T00:00:00	2024-11-08T13:00:00	3	Temperatura mínima	21.6
62560	7	Sololá	710	Panajachel	8	Panajachel	9	Septiembre	2023-09-25T00:00:00	2024-11-08T13:00:00	5	Humedad	83
62561	7	Sololá	710	Panajachel	8	Panajachel	9	Septiembre	2023-09-25T00:00:00	2024-11-08T13:00:00	6	Velocidad del viento	3.2
62562	7	Sololá	710	Panajachel	8	Panajachel	9	Septiembre	2023-09-25T00:00:00	2024-11-08T13:00:00	7	Dirección del viento	3.22
62563	7	Sololá	710	Panajachel	8	Panajachel	9	Septiembre	2023-09-25T00:00:00	2024-11-08T13:00:00	1	Precipitación	0
62564	7	Sololá	710	Panajachel	8	Panajachel	9	Septiembre	2023-09-25T00:00:00	2024-11-08T13:00:00	8	Radiación solar	509
62565	7	Sololá	710	Panajachel	8	Panajachel	9	Septiembre	2023-09-25T00:00:00	2024-11-08T14:00:00	2	Temperatura media	21.2
62566	7	Sololá	710	Panajachel	8	Panajachel	9	Septiembre	2023-09-25T00:00:00	2024-11-08T14:00:00	4	Temperatura máxima	22.7
62567	7	Sololá	710	Panajachel	8	Panajachel	9	Septiembre	2023-09-25T00:00:00	2024-11-08T14:00:00	3	Temperatura mínima	21.2
62568	7	Sololá	710	Panajachel	8	Panajachel	9	Septiembre	2023-09-25T00:00:00	2024-11-08T14:00:00	5	Humedad	82
62569	7	Sololá	710	Panajachel	8	Panajachel	9	Septiembre	2023-09-25T00:00:00	2024-11-08T14:00:00	6	Velocidad del viento	1.6
62570	7	Sololá	710	Panajachel	8	Panajachel	9	Septiembre	2023-09-25T00:00:00	2024-11-08T14:00:00	7	Dirección del viento	1.61
62571	7	Sololá	710	Panajachel	8	Panajachel	9	Septiembre	2023-09-25T00:00:00	2024-11-08T14:00:00	1	Precipitación	0
62572	7	Sololá	710	Panajachel	8	Panajachel	9	Septiembre	2023-09-25T00:00:00	2024-11-08T14:00:00	8	Radiación solar	358
62573	7	Sololá	710	Panajachel	8	Panajachel	9	Septiembre	2023-09-25T00:00:00	2024-11-08T15:00:00	2	Temperatura media	20.9
62574	7	Sololá	710	Panajachel	8	Panajachel	9	Septiembre	2023-09-25T00:00:00	2024-11-08T15:00:00	4	Temperatura máxima	21.3
62575	7	Sololá	710	Panajachel	8	Panajachel	9	Septiembre	2023-09-25T00:00:00	2024-11-08T15:00:00	3	Temperatura mínima	20.9
62576	7	Sololá	710	Panajachel	8	Panajachel	9	Septiembre	2023-09-25T00:00:00	2024-11-08T15:00:00	5	Humedad	82
62577	7	Sololá	710	Panajachel	8	Panajachel	9	Septiembre	2023-09-25T00:00:00	2024-11-08T15:00:00	6	Velocidad del viento	0
62578	7	Sololá	710	Panajachel	8	Panajachel	9	Septiembre	2023-09-25T00:00:00	2024-11-08T15:00:00	7	Dirección del viento	0
62579	7	Sololá	710	Panajachel	8	Panajachel	9	Septiembre	2023-09-25T00:00:00	2024-11-08T15:00:00	1	Precipitación	0
62580	7	Sololá	710	Panajachel	8	Panajachel	9	Septiembre	2023-09-25T00:00:00	2024-11-08T15:00:00	8	Radiación solar	108
62581	7	Sololá	710	Panajachel	8	Panajachel	9	Septiembre	2023-09-25T00:00:00	2024-11-08T16:00:00	2	Temperatura media	20.8
62582	7	Sololá	710	Panajachel	8	Panajachel	9	Septiembre	2023-09-25T00:00:00	2024-11-08T16:00:00	4	Temperatura máxima	21.1
62583	7	Sololá	710	Panajachel	8	Panajachel	9	Septiembre	2023-09-25T00:00:00	2024-11-08T16:00:00	3	Temperatura mínima	20.8
62584	7	Sololá	710	Panajachel	8	Panajachel	9	Septiembre	2023-09-25T00:00:00	2024-11-08T16:00:00	5	Humedad	87
62585	7	Sololá	710	Panajachel	8	Panajachel	9	Septiembre	2023-09-25T00:00:00	2024-11-08T16:00:00	6	Velocidad del viento	0
62586	7	Sololá	710	Panajachel	8	Panajachel	9	Septiembre	2023-09-25T00:00:00	2024-11-08T16:00:00	7	Dirección del viento	0
62587	7	Sololá	710	Panajachel	8	Panajachel	9	Septiembre	2023-09-25T00:00:00	2024-11-08T16:00:00	1	Precipitación	0
62588	7	Sololá	710	Panajachel	8	Panajachel	9	Septiembre	2023-09-25T00:00:00	2024-11-08T16:00:00	8	Radiación solar	61
62589	7	Sololá	710	Panajachel	8	Panajachel	9	Septiembre	2023-09-25T00:00:00	2024-11-08T17:00:00	2	Temperatura media	20.8
62590	7	Sololá	710	Panajachel	8	Panajachel	9	Septiembre	2023-09-25T00:00:00	2024-11-08T17:00:00	4	Temperatura máxima	20.9
62591	7	Sololá	710	Panajachel	8	Panajachel	9	Septiembre	2023-09-25T00:00:00	2024-11-08T17:00:00	3	Temperatura mínima	20.6
62592	7	Sololá	710	Panajachel	8	Panajachel	9	Septiembre	2023-09-25T00:00:00	2024-11-08T17:00:00	5	Humedad	84
62593	7	Sololá	710	Panajachel	8	Panajachel	9	Septiembre	2023-09-25T00:00:00	2024-11-08T17:00:00	6	Velocidad del viento	0
62594	7	Sololá	710	Panajachel	8	Panajachel	9	Septiembre	2023-09-25T00:00:00	2024-11-08T17:00:00	7	Dirección del viento	0
62595	7	Sololá	710	Panajachel	8	Panajachel	9	Septiembre	2023-09-25T00:00:00	2024-11-08T17:00:00	1	Precipitación	0
62596	7	Sololá	710	Panajachel	8	Panajachel	9	Septiembre	2023-09-25T00:00:00	2024-11-08T17:00:00	8	Radiación solar	63
62597	7	Sololá	710	Panajachel	8	Panajachel	9	Septiembre	2023-09-25T00:00:00	2024-11-08T18:00:00	2	Temperatura media	20.6
62598	7	Sololá	710	Panajachel	8	Panajachel	9	Septiembre	2023-09-25T00:00:00	2024-11-08T18:00:00	4	Temperatura máxima	20.9
62599	7	Sololá	710	Panajachel	8	Panajachel	9	Septiembre	2023-09-25T00:00:00	2024-11-08T18:00:00	3	Temperatura mínima	20.6
62600	7	Sololá	710	Panajachel	8	Panajachel	9	Septiembre	2023-09-25T00:00:00	2024-11-08T18:00:00	5	Humedad	87
62601	7	Sololá	710	Panajachel	8	Panajachel	9	Septiembre	2023-09-25T00:00:00	2024-11-08T18:00:00	6	Velocidad del viento	0
62602	7	Sololá	710	Panajachel	8	Panajachel	9	Septiembre	2023-09-25T00:00:00	2024-11-08T18:00:00	7	Dirección del viento	0
62603	7	Sololá	710	Panajachel	8	Panajachel	9	Septiembre	2023-09-25T00:00:00	2024-11-08T18:00:00	1	Precipitación	0
62604	7	Sololá	710	Panajachel	8	Panajachel	9	Septiembre	2023-09-25T00:00:00	2024-11-08T18:00:00	8	Radiación solar	13
62605	7	Sololá	710	Panajachel	8	Panajachel	9	Septiembre	2023-09-25T00:00:00	2024-11-08T19:00:00	2	Temperatura media	19.8
62606	7	Sololá	710	Panajachel	8	Panajachel	9	Septiembre	2023-09-25T00:00:00	2024-11-08T19:00:00	4	Temperatura máxima	20.6
62607	7	Sololá	710	Panajachel	8	Panajachel	9	Septiembre	2023-09-25T00:00:00	2024-11-08T19:00:00	3	Temperatura mínima	19.7
62608	7	Sololá	710	Panajachel	8	Panajachel	9	Septiembre	2023-09-25T00:00:00	2024-11-08T19:00:00	5	Humedad	90
62609	7	Sololá	710	Panajachel	8	Panajachel	9	Septiembre	2023-09-25T00:00:00	2024-11-08T19:00:00	6	Velocidad del viento	0
62610	7	Sololá	710	Panajachel	8	Panajachel	9	Septiembre	2023-09-25T00:00:00	2024-11-08T19:00:00	7	Dirección del viento	0
62611	7	Sololá	710	Panajachel	8	Panajachel	9	Septiembre	2023-09-25T00:00:00	2024-11-08T19:00:00	1	Precipitación	0
62612	7	Sololá	710	Panajachel	8	Panajachel	9	Septiembre	2023-09-25T00:00:00	2024-11-08T19:00:00	8	Radiación solar	0
62613	7	Sololá	710	Panajachel	8	Panajachel	9	Septiembre	2023-09-25T00:00:00	2024-11-08T20:00:00	2	Temperatura media	19.1
62614	7	Sololá	710	Panajachel	8	Panajachel	9	Septiembre	2023-09-25T00:00:00	2024-11-08T20:00:00	4	Temperatura máxima	19.8
62615	7	Sololá	710	Panajachel	8	Panajachel	9	Septiembre	2023-09-25T00:00:00	2024-11-08T20:00:00	3	Temperatura mínima	19.1
62616	7	Sololá	710	Panajachel	8	Panajachel	9	Septiembre	2023-09-25T00:00:00	2024-11-08T20:00:00	5	Humedad	91
62617	7	Sololá	710	Panajachel	8	Panajachel	9	Septiembre	2023-09-25T00:00:00	2024-11-08T20:00:00	6	Velocidad del viento	0
62618	7	Sololá	710	Panajachel	8	Panajachel	9	Septiembre	2023-09-25T00:00:00	2024-11-08T20:00:00	7	Dirección del viento	0
62619	7	Sololá	710	Panajachel	8	Panajachel	9	Septiembre	2023-09-25T00:00:00	2024-11-08T20:00:00	1	Precipitación	0
62620	7	Sololá	710	Panajachel	8	Panajachel	9	Septiembre	2023-09-25T00:00:00	2024-11-08T20:00:00	8	Radiación solar	0
62621	7	Sololá	710	Panajachel	8	Panajachel	9	Septiembre	2023-09-25T00:00:00	2024-11-08T21:00:00	2	Temperatura media	18.8
62622	7	Sololá	710	Panajachel	8	Panajachel	9	Septiembre	2023-09-25T00:00:00	2024-11-08T21:00:00	4	Temperatura máxima	19.1
62623	7	Sololá	710	Panajachel	8	Panajachel	9	Septiembre	2023-09-25T00:00:00	2024-11-08T21:00:00	3	Temperatura mínima	18.7
62624	7	Sololá	710	Panajachel	8	Panajachel	9	Septiembre	2023-09-25T00:00:00	2024-11-08T21:00:00	5	Humedad	91
62625	7	Sololá	710	Panajachel	8	Panajachel	9	Septiembre	2023-09-25T00:00:00	2024-11-08T21:00:00	6	Velocidad del viento	0
62626	7	Sololá	710	Panajachel	8	Panajachel	9	Septiembre	2023-09-25T00:00:00	2024-11-08T21:00:00	7	Dirección del viento	0
62627	7	Sololá	710	Panajachel	8	Panajachel	9	Septiembre	2023-09-25T00:00:00	2024-11-08T21:00:00	1	Precipitación	0
62628	7	Sololá	710	Panajachel	8	Panajachel	9	Septiembre	2023-09-25T00:00:00	2024-11-08T21:00:00	8	Radiación solar	0
62629	7	Sololá	710	Panajachel	8	Panajachel	9	Septiembre	2023-09-25T00:00:00	2024-11-08T22:00:00	2	Temperatura media	18.9
62630	7	Sololá	710	Panajachel	8	Panajachel	9	Septiembre	2023-09-25T00:00:00	2024-11-08T22:00:00	4	Temperatura máxima	19.1
62631	7	Sololá	710	Panajachel	8	Panajachel	9	Septiembre	2023-09-25T00:00:00	2024-11-08T22:00:00	3	Temperatura mínima	18.8
62632	7	Sololá	710	Panajachel	8	Panajachel	9	Septiembre	2023-09-25T00:00:00	2024-11-08T22:00:00	5	Humedad	90
62633	7	Sololá	710	Panajachel	8	Panajachel	9	Septiembre	2023-09-25T00:00:00	2024-11-08T22:00:00	6	Velocidad del viento	0
62634	7	Sololá	710	Panajachel	8	Panajachel	9	Septiembre	2023-09-25T00:00:00	2024-11-08T22:00:00	7	Dirección del viento	0
62635	7	Sololá	710	Panajachel	8	Panajachel	9	Septiembre	2023-09-25T00:00:00	2024-11-08T22:00:00	1	Precipitación	0
62636	7	Sololá	710	Panajachel	8	Panajachel	9	Septiembre	2023-09-25T00:00:00	2024-11-08T22:00:00	8	Radiación solar	0
62637	7	Sololá	710	Panajachel	8	Panajachel	9	Septiembre	2023-09-25T00:00:00	2024-11-08T23:00:00	2	Temperatura media	18.7
62638	7	Sololá	710	Panajachel	8	Panajachel	9	Septiembre	2023-09-25T00:00:00	2024-11-08T23:00:00	4	Temperatura máxima	18.8
62639	7	Sololá	710	Panajachel	8	Panajachel	9	Septiembre	2023-09-25T00:00:00	2024-11-08T23:00:00	3	Temperatura mínima	18.7
62640	7	Sololá	710	Panajachel	8	Panajachel	9	Septiembre	2023-09-25T00:00:00	2024-11-08T23:00:00	5	Humedad	90
62641	7	Sololá	710	Panajachel	8	Panajachel	9	Septiembre	2023-09-25T00:00:00	2024-11-08T23:00:00	6	Velocidad del viento	0
62642	7	Sololá	710	Panajachel	8	Panajachel	9	Septiembre	2023-09-25T00:00:00	2024-11-08T23:00:00	7	Dirección del viento	0
62643	7	Sololá	710	Panajachel	8	Panajachel	9	Septiembre	2023-09-25T00:00:00	2024-11-08T23:00:00	1	Precipitación	0
62644	7	Sololá	710	Panajachel	8	Panajachel	9	Septiembre	2023-09-25T00:00:00	2024-11-08T23:00:00	8	Radiación solar	0
62645	7	Sololá	710	Panajachel	8	Panajachel	9	Septiembre	2023-09-26T00:00:00	2024-11-08T00:00:00	2	Temperatura media	18.8
62646	7	Sololá	710	Panajachel	8	Panajachel	9	Septiembre	2023-09-26T00:00:00	2024-11-08T00:00:00	4	Temperatura máxima	18.9
62647	7	Sololá	710	Panajachel	8	Panajachel	9	Septiembre	2023-09-26T00:00:00	2024-11-08T00:00:00	3	Temperatura mínima	18.7
62648	7	Sololá	710	Panajachel	8	Panajachel	9	Septiembre	2023-09-26T00:00:00	2024-11-08T00:00:00	5	Humedad	90
62649	7	Sololá	710	Panajachel	8	Panajachel	9	Septiembre	2023-09-26T00:00:00	2024-11-08T00:00:00	6	Velocidad del viento	0
62650	7	Sololá	710	Panajachel	8	Panajachel	9	Septiembre	2023-09-26T00:00:00	2024-11-08T00:00:00	7	Dirección del viento	0
62651	7	Sololá	710	Panajachel	8	Panajachel	9	Septiembre	2023-09-26T00:00:00	2024-11-08T00:00:00	1	Precipitación	0
62652	7	Sololá	710	Panajachel	8	Panajachel	9	Septiembre	2023-09-26T00:00:00	2024-11-08T00:00:00	8	Radiación solar	0
62653	7	Sololá	710	Panajachel	8	Panajachel	9	Septiembre	2023-09-26T00:00:00	2024-11-08T01:00:00	2	Temperatura media	18.5
62654	7	Sololá	710	Panajachel	8	Panajachel	9	Septiembre	2023-09-26T00:00:00	2024-11-08T01:00:00	4	Temperatura máxima	18.8
62655	7	Sololá	710	Panajachel	8	Panajachel	9	Septiembre	2023-09-26T00:00:00	2024-11-08T01:00:00	3	Temperatura mínima	18.4
62656	7	Sololá	710	Panajachel	8	Panajachel	9	Septiembre	2023-09-26T00:00:00	2024-11-08T01:00:00	5	Humedad	90
62657	7	Sololá	710	Panajachel	8	Panajachel	9	Septiembre	2023-09-26T00:00:00	2024-11-08T01:00:00	6	Velocidad del viento	0
62658	7	Sololá	710	Panajachel	8	Panajachel	9	Septiembre	2023-09-26T00:00:00	2024-11-08T01:00:00	7	Dirección del viento	0
62659	7	Sololá	710	Panajachel	8	Panajachel	9	Septiembre	2023-09-26T00:00:00	2024-11-08T01:00:00	1	Precipitación	0
62660	7	Sololá	710	Panajachel	8	Panajachel	9	Septiembre	2023-09-26T00:00:00	2024-11-08T01:00:00	8	Radiación solar	0
62661	7	Sololá	710	Panajachel	8	Panajachel	9	Septiembre	2023-09-26T00:00:00	2024-11-08T02:00:00	2	Temperatura media	17.8
62662	7	Sololá	710	Panajachel	8	Panajachel	9	Septiembre	2023-09-26T00:00:00	2024-11-08T02:00:00	4	Temperatura máxima	18.7
62663	7	Sololá	710	Panajachel	8	Panajachel	9	Septiembre	2023-09-26T00:00:00	2024-11-08T02:00:00	3	Temperatura mínima	17.8
62664	7	Sololá	710	Panajachel	8	Panajachel	9	Septiembre	2023-09-26T00:00:00	2024-11-08T02:00:00	5	Humedad	95
62665	7	Sololá	710	Panajachel	8	Panajachel	9	Septiembre	2023-09-26T00:00:00	2024-11-08T02:00:00	6	Velocidad del viento	0
62666	7	Sololá	710	Panajachel	8	Panajachel	9	Septiembre	2023-09-26T00:00:00	2024-11-08T02:00:00	7	Dirección del viento	0
62667	7	Sololá	710	Panajachel	8	Panajachel	9	Septiembre	2023-09-26T00:00:00	2024-11-08T02:00:00	1	Precipitación	2.6
62668	7	Sololá	710	Panajachel	8	Panajachel	9	Septiembre	2023-09-26T00:00:00	2024-11-08T02:00:00	8	Radiación solar	0
62669	7	Sololá	710	Panajachel	8	Panajachel	9	Septiembre	2023-09-26T00:00:00	2024-11-08T03:00:00	2	Temperatura media	17.7
62670	7	Sololá	710	Panajachel	8	Panajachel	9	Septiembre	2023-09-26T00:00:00	2024-11-08T03:00:00	4	Temperatura máxima	17.8
62671	7	Sololá	710	Panajachel	8	Panajachel	9	Septiembre	2023-09-26T00:00:00	2024-11-08T03:00:00	3	Temperatura mínima	17.4
62672	7	Sololá	710	Panajachel	8	Panajachel	9	Septiembre	2023-09-26T00:00:00	2024-11-08T03:00:00	5	Humedad	92
62673	7	Sololá	710	Panajachel	8	Panajachel	9	Septiembre	2023-09-26T00:00:00	2024-11-08T03:00:00	6	Velocidad del viento	0
62674	7	Sololá	710	Panajachel	8	Panajachel	9	Septiembre	2023-09-26T00:00:00	2024-11-08T03:00:00	7	Dirección del viento	0
62675	7	Sololá	710	Panajachel	8	Panajachel	9	Septiembre	2023-09-26T00:00:00	2024-11-08T03:00:00	1	Precipitación	0.2
62676	7	Sololá	710	Panajachel	8	Panajachel	9	Septiembre	2023-09-26T00:00:00	2024-11-08T03:00:00	8	Radiación solar	0
62677	7	Sololá	710	Panajachel	8	Panajachel	9	Septiembre	2023-09-26T00:00:00	2024-11-08T04:00:00	2	Temperatura media	16.8
62678	7	Sololá	710	Panajachel	8	Panajachel	9	Septiembre	2023-09-26T00:00:00	2024-11-08T04:00:00	4	Temperatura máxima	17.8
62679	7	Sololá	710	Panajachel	8	Panajachel	9	Septiembre	2023-09-26T00:00:00	2024-11-08T04:00:00	3	Temperatura mínima	16.8
62680	7	Sololá	710	Panajachel	8	Panajachel	9	Septiembre	2023-09-26T00:00:00	2024-11-08T04:00:00	5	Humedad	94
62681	7	Sololá	710	Panajachel	8	Panajachel	9	Septiembre	2023-09-26T00:00:00	2024-11-08T04:00:00	6	Velocidad del viento	0
62682	7	Sololá	710	Panajachel	8	Panajachel	9	Septiembre	2023-09-26T00:00:00	2024-11-08T04:00:00	7	Dirección del viento	0
62683	7	Sololá	710	Panajachel	8	Panajachel	9	Septiembre	2023-09-26T00:00:00	2024-11-08T04:00:00	1	Precipitación	0
62684	7	Sololá	710	Panajachel	8	Panajachel	9	Septiembre	2023-09-26T00:00:00	2024-11-08T04:00:00	8	Radiación solar	0
62685	7	Sololá	710	Panajachel	8	Panajachel	9	Septiembre	2023-09-26T00:00:00	2024-11-08T05:00:00	2	Temperatura media	16.4
62686	7	Sololá	710	Panajachel	8	Panajachel	9	Septiembre	2023-09-26T00:00:00	2024-11-08T05:00:00	4	Temperatura máxima	17
62687	7	Sololá	710	Panajachel	8	Panajachel	9	Septiembre	2023-09-26T00:00:00	2024-11-08T05:00:00	3	Temperatura mínima	16.4
62688	7	Sololá	710	Panajachel	8	Panajachel	9	Septiembre	2023-09-26T00:00:00	2024-11-08T05:00:00	5	Humedad	93
62689	7	Sololá	710	Panajachel	8	Panajachel	9	Septiembre	2023-09-26T00:00:00	2024-11-08T05:00:00	6	Velocidad del viento	0
62690	7	Sololá	710	Panajachel	8	Panajachel	9	Septiembre	2023-09-26T00:00:00	2024-11-08T05:00:00	7	Dirección del viento	0
62691	7	Sololá	710	Panajachel	8	Panajachel	9	Septiembre	2023-09-26T00:00:00	2024-11-08T05:00:00	1	Precipitación	0
62692	7	Sololá	710	Panajachel	8	Panajachel	9	Septiembre	2023-09-26T00:00:00	2024-11-08T05:00:00	8	Radiación solar	0
62693	7	Sololá	710	Panajachel	8	Panajachel	9	Septiembre	2023-09-26T00:00:00	2024-11-08T06:00:00	2	Temperatura media	16.3
62694	7	Sololá	710	Panajachel	8	Panajachel	9	Septiembre	2023-09-26T00:00:00	2024-11-08T06:00:00	4	Temperatura máxima	16.5
62695	7	Sololá	710	Panajachel	8	Panajachel	9	Septiembre	2023-09-26T00:00:00	2024-11-08T06:00:00	3	Temperatura mínima	16.1
62696	7	Sololá	710	Panajachel	8	Panajachel	9	Septiembre	2023-09-26T00:00:00	2024-11-08T06:00:00	5	Humedad	91
62697	7	Sololá	710	Panajachel	8	Panajachel	9	Septiembre	2023-09-26T00:00:00	2024-11-08T06:00:00	6	Velocidad del viento	1.6
62698	7	Sololá	710	Panajachel	8	Panajachel	9	Septiembre	2023-09-26T00:00:00	2024-11-08T06:00:00	7	Dirección del viento	1.61
62699	7	Sololá	710	Panajachel	8	Panajachel	9	Septiembre	2023-09-26T00:00:00	2024-11-08T06:00:00	1	Precipitación	0
62700	7	Sololá	710	Panajachel	8	Panajachel	9	Septiembre	2023-09-26T00:00:00	2024-11-08T06:00:00	8	Radiación solar	0
62701	7	Sololá	710	Panajachel	8	Panajachel	9	Septiembre	2023-09-26T00:00:00	2024-11-08T07:00:00	2	Temperatura media	17.6
62702	7	Sololá	710	Panajachel	8	Panajachel	9	Septiembre	2023-09-26T00:00:00	2024-11-08T07:00:00	4	Temperatura máxima	17.6
62703	7	Sololá	710	Panajachel	8	Panajachel	9	Septiembre	2023-09-26T00:00:00	2024-11-08T07:00:00	3	Temperatura mínima	16.2
62704	7	Sololá	710	Panajachel	8	Panajachel	9	Septiembre	2023-09-26T00:00:00	2024-11-08T07:00:00	5	Humedad	87
62705	7	Sololá	710	Panajachel	8	Panajachel	9	Septiembre	2023-09-26T00:00:00	2024-11-08T07:00:00	6	Velocidad del viento	1.6
62706	7	Sololá	710	Panajachel	8	Panajachel	9	Septiembre	2023-09-26T00:00:00	2024-11-08T07:00:00	7	Dirección del viento	1.61
62707	7	Sololá	710	Panajachel	8	Panajachel	9	Septiembre	2023-09-26T00:00:00	2024-11-08T07:00:00	1	Precipitación	0
62708	7	Sololá	710	Panajachel	8	Panajachel	9	Septiembre	2023-09-26T00:00:00	2024-11-08T07:00:00	8	Radiación solar	56
62709	7	Sololá	710	Panajachel	8	Panajachel	9	Septiembre	2023-09-26T00:00:00	2024-11-08T08:00:00	2	Temperatura media	20.6
62710	7	Sololá	710	Panajachel	8	Panajachel	9	Septiembre	2023-09-26T00:00:00	2024-11-08T08:00:00	4	Temperatura máxima	20.6
62711	7	Sololá	710	Panajachel	8	Panajachel	9	Septiembre	2023-09-26T00:00:00	2024-11-08T08:00:00	3	Temperatura mínima	17.6
62712	7	Sololá	710	Panajachel	8	Panajachel	9	Septiembre	2023-09-26T00:00:00	2024-11-08T08:00:00	5	Humedad	78
62713	7	Sololá	710	Panajachel	8	Panajachel	9	Septiembre	2023-09-26T00:00:00	2024-11-08T08:00:00	6	Velocidad del viento	0
62714	7	Sololá	710	Panajachel	8	Panajachel	9	Septiembre	2023-09-26T00:00:00	2024-11-08T08:00:00	7	Dirección del viento	0
62715	7	Sololá	710	Panajachel	8	Panajachel	9	Septiembre	2023-09-26T00:00:00	2024-11-08T08:00:00	1	Precipitación	0
62716	7	Sololá	710	Panajachel	8	Panajachel	9	Septiembre	2023-09-26T00:00:00	2024-11-08T08:00:00	8	Radiación solar	293
62717	7	Sololá	710	Panajachel	8	Panajachel	9	Septiembre	2023-09-26T00:00:00	2024-11-08T09:00:00	2	Temperatura media	21.3
62718	7	Sololá	710	Panajachel	8	Panajachel	9	Septiembre	2023-09-26T00:00:00	2024-11-08T09:00:00	4	Temperatura máxima	21.7
62719	7	Sololá	710	Panajachel	8	Panajachel	9	Septiembre	2023-09-26T00:00:00	2024-11-08T09:00:00	3	Temperatura mínima	20.5
62720	7	Sololá	710	Panajachel	8	Panajachel	9	Septiembre	2023-09-26T00:00:00	2024-11-08T09:00:00	5	Humedad	77
62721	7	Sololá	710	Panajachel	8	Panajachel	9	Septiembre	2023-09-26T00:00:00	2024-11-08T09:00:00	6	Velocidad del viento	0
62722	7	Sololá	710	Panajachel	8	Panajachel	9	Septiembre	2023-09-26T00:00:00	2024-11-08T09:00:00	7	Dirección del viento	0
62723	7	Sololá	710	Panajachel	8	Panajachel	9	Septiembre	2023-09-26T00:00:00	2024-11-08T09:00:00	1	Precipitación	0
62724	7	Sololá	710	Panajachel	8	Panajachel	9	Septiembre	2023-09-26T00:00:00	2024-11-08T09:00:00	8	Radiación solar	514
62725	7	Sololá	710	Panajachel	8	Panajachel	9	Septiembre	2023-09-26T00:00:00	2024-11-08T10:00:00	2	Temperatura media	22.7
62726	7	Sololá	710	Panajachel	8	Panajachel	9	Septiembre	2023-09-26T00:00:00	2024-11-08T10:00:00	4	Temperatura máxima	22.7
62727	7	Sololá	710	Panajachel	8	Panajachel	9	Septiembre	2023-09-26T00:00:00	2024-11-08T10:00:00	3	Temperatura mínima	21.2
62728	7	Sololá	710	Panajachel	8	Panajachel	9	Septiembre	2023-09-26T00:00:00	2024-11-08T10:00:00	5	Humedad	75
62729	7	Sololá	710	Panajachel	8	Panajachel	9	Septiembre	2023-09-26T00:00:00	2024-11-08T10:00:00	6	Velocidad del viento	1.6
62730	7	Sololá	710	Panajachel	8	Panajachel	9	Septiembre	2023-09-26T00:00:00	2024-11-08T10:00:00	7	Dirección del viento	1.61
62731	7	Sololá	710	Panajachel	8	Panajachel	9	Septiembre	2023-09-26T00:00:00	2024-11-08T10:00:00	1	Precipitación	0
62732	7	Sololá	710	Panajachel	8	Panajachel	9	Septiembre	2023-09-26T00:00:00	2024-11-08T10:00:00	8	Radiación solar	704
62733	7	Sololá	710	Panajachel	8	Panajachel	9	Septiembre	2023-09-26T00:00:00	2024-11-08T11:00:00	2	Temperatura media	23.6
62734	7	Sololá	710	Panajachel	8	Panajachel	9	Septiembre	2023-09-26T00:00:00	2024-11-08T11:00:00	4	Temperatura máxima	23.8
62735	7	Sololá	710	Panajachel	8	Panajachel	9	Septiembre	2023-09-26T00:00:00	2024-11-08T11:00:00	3	Temperatura mínima	22.3
62736	7	Sololá	710	Panajachel	8	Panajachel	9	Septiembre	2023-09-26T00:00:00	2024-11-08T11:00:00	5	Humedad	71
62737	7	Sololá	710	Panajachel	8	Panajachel	9	Septiembre	2023-09-26T00:00:00	2024-11-08T11:00:00	6	Velocidad del viento	0
62738	7	Sololá	710	Panajachel	8	Panajachel	9	Septiembre	2023-09-26T00:00:00	2024-11-08T11:00:00	7	Dirección del viento	0
62739	7	Sololá	710	Panajachel	8	Panajachel	9	Septiembre	2023-09-26T00:00:00	2024-11-08T11:00:00	1	Precipitación	0
62740	7	Sololá	710	Panajachel	8	Panajachel	9	Septiembre	2023-09-26T00:00:00	2024-11-08T11:00:00	8	Radiación solar	849
62741	7	Sololá	710	Panajachel	8	Panajachel	9	Septiembre	2023-09-26T00:00:00	2024-11-08T12:00:00	2	Temperatura media	24.1
62742	7	Sololá	710	Panajachel	8	Panajachel	9	Septiembre	2023-09-26T00:00:00	2024-11-08T12:00:00	4	Temperatura máxima	24.8
62743	7	Sololá	710	Panajachel	8	Panajachel	9	Septiembre	2023-09-26T00:00:00	2024-11-08T12:00:00	3	Temperatura mínima	23.4
62744	7	Sololá	710	Panajachel	8	Panajachel	9	Septiembre	2023-09-26T00:00:00	2024-11-08T12:00:00	5	Humedad	73
62745	7	Sololá	710	Panajachel	8	Panajachel	9	Septiembre	2023-09-26T00:00:00	2024-11-08T12:00:00	6	Velocidad del viento	0
62746	7	Sololá	710	Panajachel	8	Panajachel	9	Septiembre	2023-09-26T00:00:00	2024-11-08T12:00:00	7	Dirección del viento	0
62747	7	Sololá	710	Panajachel	8	Panajachel	9	Septiembre	2023-09-26T00:00:00	2024-11-08T12:00:00	1	Precipitación	0
62748	7	Sololá	710	Panajachel	8	Panajachel	9	Septiembre	2023-09-26T00:00:00	2024-11-08T12:00:00	8	Radiación solar	859
62749	7	Sololá	710	Panajachel	8	Panajachel	9	Septiembre	2023-09-26T00:00:00	2024-11-08T13:00:00	2	Temperatura media	25
62750	7	Sololá	710	Panajachel	8	Panajachel	9	Septiembre	2023-09-26T00:00:00	2024-11-08T13:00:00	4	Temperatura máxima	25.6
62751	7	Sololá	710	Panajachel	8	Panajachel	9	Septiembre	2023-09-26T00:00:00	2024-11-08T13:00:00	3	Temperatura mínima	24
62752	7	Sololá	710	Panajachel	8	Panajachel	9	Septiembre	2023-09-26T00:00:00	2024-11-08T13:00:00	5	Humedad	79
62753	7	Sololá	710	Panajachel	8	Panajachel	9	Septiembre	2023-09-26T00:00:00	2024-11-08T13:00:00	6	Velocidad del viento	0
62754	7	Sololá	710	Panajachel	8	Panajachel	9	Septiembre	2023-09-26T00:00:00	2024-11-08T13:00:00	7	Dirección del viento	0
62755	7	Sololá	710	Panajachel	8	Panajachel	9	Septiembre	2023-09-26T00:00:00	2024-11-08T13:00:00	1	Precipitación	0
62756	7	Sololá	710	Panajachel	8	Panajachel	9	Septiembre	2023-09-26T00:00:00	2024-11-08T13:00:00	8	Radiación solar	916
62757	7	Sololá	710	Panajachel	8	Panajachel	9	Septiembre	2023-09-26T00:00:00	2024-11-08T14:00:00	2	Temperatura media	22.7
62758	7	Sololá	710	Panajachel	8	Panajachel	9	Septiembre	2023-09-26T00:00:00	2024-11-08T14:00:00	4	Temperatura máxima	25.7
62759	7	Sololá	710	Panajachel	8	Panajachel	9	Septiembre	2023-09-26T00:00:00	2024-11-08T14:00:00	3	Temperatura mínima	22.7
62760	7	Sololá	710	Panajachel	8	Panajachel	9	Septiembre	2023-09-26T00:00:00	2024-11-08T14:00:00	5	Humedad	88
62761	7	Sololá	710	Panajachel	8	Panajachel	9	Septiembre	2023-09-26T00:00:00	2024-11-08T14:00:00	6	Velocidad del viento	1.6
62762	7	Sololá	710	Panajachel	8	Panajachel	9	Septiembre	2023-09-26T00:00:00	2024-11-08T14:00:00	7	Dirección del viento	1.61
62763	7	Sololá	710	Panajachel	8	Panajachel	9	Septiembre	2023-09-26T00:00:00	2024-11-08T14:00:00	1	Precipitación	0
62764	7	Sololá	710	Panajachel	8	Panajachel	9	Septiembre	2023-09-26T00:00:00	2024-11-08T14:00:00	8	Radiación solar	403
62765	7	Sololá	710	Panajachel	8	Panajachel	9	Septiembre	2023-09-26T00:00:00	2024-11-08T15:00:00	2	Temperatura media	22.2
62766	7	Sololá	710	Panajachel	8	Panajachel	9	Septiembre	2023-09-26T00:00:00	2024-11-08T15:00:00	4	Temperatura máxima	23.1
62767	7	Sololá	710	Panajachel	8	Panajachel	9	Septiembre	2023-09-26T00:00:00	2024-11-08T15:00:00	3	Temperatura mínima	22.2
62768	7	Sololá	710	Panajachel	8	Panajachel	9	Septiembre	2023-09-26T00:00:00	2024-11-08T15:00:00	5	Humedad	88
62769	7	Sololá	710	Panajachel	8	Panajachel	9	Septiembre	2023-09-26T00:00:00	2024-11-08T15:00:00	6	Velocidad del viento	0
62770	7	Sololá	710	Panajachel	8	Panajachel	9	Septiembre	2023-09-26T00:00:00	2024-11-08T15:00:00	7	Dirección del viento	0
62771	7	Sololá	710	Panajachel	8	Panajachel	9	Septiembre	2023-09-26T00:00:00	2024-11-08T15:00:00	1	Precipitación	0
62772	7	Sololá	710	Panajachel	8	Panajachel	9	Septiembre	2023-09-26T00:00:00	2024-11-08T15:00:00	8	Radiación solar	227
62773	7	Sololá	710	Panajachel	8	Panajachel	9	Septiembre	2023-09-26T00:00:00	2024-11-08T16:00:00	2	Temperatura media	21.8
62774	7	Sololá	710	Panajachel	8	Panajachel	9	Septiembre	2023-09-26T00:00:00	2024-11-08T16:00:00	4	Temperatura máxima	22.5
62775	7	Sololá	710	Panajachel	8	Panajachel	9	Septiembre	2023-09-26T00:00:00	2024-11-08T16:00:00	3	Temperatura mínima	21.8
62776	7	Sololá	710	Panajachel	8	Panajachel	9	Septiembre	2023-09-26T00:00:00	2024-11-08T16:00:00	5	Humedad	88
62777	7	Sololá	710	Panajachel	8	Panajachel	9	Septiembre	2023-09-26T00:00:00	2024-11-08T16:00:00	6	Velocidad del viento	1.6
62778	7	Sololá	710	Panajachel	8	Panajachel	9	Septiembre	2023-09-26T00:00:00	2024-11-08T16:00:00	7	Dirección del viento	1.61
62779	7	Sololá	710	Panajachel	8	Panajachel	9	Septiembre	2023-09-26T00:00:00	2024-11-08T16:00:00	1	Precipitación	0
62780	7	Sololá	710	Panajachel	8	Panajachel	9	Septiembre	2023-09-26T00:00:00	2024-11-08T16:00:00	8	Radiación solar	126
62781	7	Sololá	710	Panajachel	8	Panajachel	9	Septiembre	2023-09-26T00:00:00	2024-11-08T17:00:00	2	Temperatura media	18.8
62782	7	Sololá	710	Panajachel	8	Panajachel	9	Septiembre	2023-09-26T00:00:00	2024-11-08T17:00:00	4	Temperatura máxima	21.8
62783	7	Sololá	710	Panajachel	8	Panajachel	9	Septiembre	2023-09-26T00:00:00	2024-11-08T17:00:00	3	Temperatura mínima	18.7
62784	7	Sololá	710	Panajachel	8	Panajachel	9	Septiembre	2023-09-26T00:00:00	2024-11-08T17:00:00	5	Humedad	95
62785	7	Sololá	710	Panajachel	8	Panajachel	9	Septiembre	2023-09-26T00:00:00	2024-11-08T17:00:00	6	Velocidad del viento	0
62786	7	Sololá	710	Panajachel	8	Panajachel	9	Septiembre	2023-09-26T00:00:00	2024-11-08T17:00:00	7	Dirección del viento	0
62787	7	Sololá	710	Panajachel	8	Panajachel	9	Septiembre	2023-09-26T00:00:00	2024-11-08T17:00:00	1	Precipitación	4.8
62788	7	Sololá	710	Panajachel	8	Panajachel	9	Septiembre	2023-09-26T00:00:00	2024-11-08T17:00:00	8	Radiación solar	1
62789	7	Sololá	710	Panajachel	8	Panajachel	9	Septiembre	2023-09-26T00:00:00	2024-11-08T18:00:00	2	Temperatura media	18.9
62790	7	Sololá	710	Panajachel	8	Panajachel	9	Septiembre	2023-09-26T00:00:00	2024-11-08T18:00:00	4	Temperatura máxima	18.9
62791	7	Sololá	710	Panajachel	8	Panajachel	9	Septiembre	2023-09-26T00:00:00	2024-11-08T18:00:00	3	Temperatura mínima	18.6
62792	7	Sololá	710	Panajachel	8	Panajachel	9	Septiembre	2023-09-26T00:00:00	2024-11-08T18:00:00	5	Humedad	96
62793	7	Sololá	710	Panajachel	8	Panajachel	9	Septiembre	2023-09-26T00:00:00	2024-11-08T18:00:00	6	Velocidad del viento	0
62794	7	Sololá	710	Panajachel	8	Panajachel	9	Septiembre	2023-09-26T00:00:00	2024-11-08T18:00:00	7	Dirección del viento	0
62795	7	Sololá	710	Panajachel	8	Panajachel	9	Septiembre	2023-09-26T00:00:00	2024-11-08T18:00:00	1	Precipitación	0.4
62796	7	Sololá	710	Panajachel	8	Panajachel	9	Septiembre	2023-09-26T00:00:00	2024-11-08T18:00:00	8	Radiación solar	0
62797	7	Sololá	710	Panajachel	8	Panajachel	9	Septiembre	2023-09-26T00:00:00	2024-11-08T19:00:00	2	Temperatura media	18.9
62798	7	Sololá	710	Panajachel	8	Panajachel	9	Septiembre	2023-09-26T00:00:00	2024-11-08T19:00:00	4	Temperatura máxima	19
62799	7	Sololá	710	Panajachel	8	Panajachel	9	Septiembre	2023-09-26T00:00:00	2024-11-08T19:00:00	3	Temperatura mínima	18.8
62800	7	Sololá	710	Panajachel	8	Panajachel	9	Septiembre	2023-09-26T00:00:00	2024-11-08T19:00:00	5	Humedad	96
62801	7	Sololá	710	Panajachel	8	Panajachel	9	Septiembre	2023-09-26T00:00:00	2024-11-08T19:00:00	6	Velocidad del viento	0
62802	7	Sololá	710	Panajachel	8	Panajachel	9	Septiembre	2023-09-26T00:00:00	2024-11-08T19:00:00	7	Dirección del viento	0
62803	7	Sololá	710	Panajachel	8	Panajachel	9	Septiembre	2023-09-26T00:00:00	2024-11-08T19:00:00	1	Precipitación	1.2
62804	7	Sololá	710	Panajachel	8	Panajachel	9	Septiembre	2023-09-26T00:00:00	2024-11-08T19:00:00	8	Radiación solar	0
62805	7	Sololá	710	Panajachel	8	Panajachel	9	Septiembre	2023-09-26T00:00:00	2024-11-08T20:00:00	2	Temperatura media	18.3
62806	7	Sololá	710	Panajachel	8	Panajachel	9	Septiembre	2023-09-26T00:00:00	2024-11-08T20:00:00	4	Temperatura máxima	18.9
62807	7	Sololá	710	Panajachel	8	Panajachel	9	Septiembre	2023-09-26T00:00:00	2024-11-08T20:00:00	3	Temperatura mínima	18.3
62808	7	Sololá	710	Panajachel	8	Panajachel	9	Septiembre	2023-09-26T00:00:00	2024-11-08T20:00:00	5	Humedad	96
62809	7	Sololá	710	Panajachel	8	Panajachel	9	Septiembre	2023-09-26T00:00:00	2024-11-08T20:00:00	6	Velocidad del viento	0
62810	7	Sololá	710	Panajachel	8	Panajachel	9	Septiembre	2023-09-26T00:00:00	2024-11-08T20:00:00	7	Dirección del viento	0
62811	7	Sololá	710	Panajachel	8	Panajachel	9	Septiembre	2023-09-26T00:00:00	2024-11-08T20:00:00	1	Precipitación	1.2
62812	7	Sololá	710	Panajachel	8	Panajachel	9	Septiembre	2023-09-26T00:00:00	2024-11-08T20:00:00	8	Radiación solar	0
62813	7	Sololá	710	Panajachel	8	Panajachel	9	Septiembre	2023-09-26T00:00:00	2024-11-08T21:00:00	2	Temperatura media	18.6
62814	7	Sololá	710	Panajachel	8	Panajachel	9	Septiembre	2023-09-26T00:00:00	2024-11-08T21:00:00	4	Temperatura máxima	18.6
62815	7	Sololá	710	Panajachel	8	Panajachel	9	Septiembre	2023-09-26T00:00:00	2024-11-08T21:00:00	3	Temperatura mínima	18.4
62816	7	Sololá	710	Panajachel	8	Panajachel	9	Septiembre	2023-09-26T00:00:00	2024-11-08T21:00:00	5	Humedad	98
62817	7	Sololá	710	Panajachel	8	Panajachel	9	Septiembre	2023-09-26T00:00:00	2024-11-08T21:00:00	6	Velocidad del viento	0
62818	7	Sololá	710	Panajachel	8	Panajachel	9	Septiembre	2023-09-26T00:00:00	2024-11-08T21:00:00	7	Dirección del viento	0
62819	7	Sololá	710	Panajachel	8	Panajachel	9	Septiembre	2023-09-26T00:00:00	2024-11-08T21:00:00	1	Precipitación	0.2
62820	7	Sololá	710	Panajachel	8	Panajachel	9	Septiembre	2023-09-26T00:00:00	2024-11-08T21:00:00	8	Radiación solar	0
62821	7	Sololá	710	Panajachel	8	Panajachel	9	Septiembre	2023-09-26T00:00:00	2024-11-08T22:00:00	2	Temperatura media	18.4
62822	7	Sololá	710	Panajachel	8	Panajachel	9	Septiembre	2023-09-26T00:00:00	2024-11-08T22:00:00	4	Temperatura máxima	18.6
62823	7	Sololá	710	Panajachel	8	Panajachel	9	Septiembre	2023-09-26T00:00:00	2024-11-08T22:00:00	3	Temperatura mínima	18.4
62824	7	Sololá	710	Panajachel	8	Panajachel	9	Septiembre	2023-09-26T00:00:00	2024-11-08T22:00:00	5	Humedad	96
62825	7	Sololá	710	Panajachel	8	Panajachel	9	Septiembre	2023-09-26T00:00:00	2024-11-08T22:00:00	6	Velocidad del viento	0
62826	7	Sololá	710	Panajachel	8	Panajachel	9	Septiembre	2023-09-26T00:00:00	2024-11-08T22:00:00	7	Dirección del viento	0
62827	7	Sololá	710	Panajachel	8	Panajachel	9	Septiembre	2023-09-26T00:00:00	2024-11-08T22:00:00	1	Precipitación	0
62828	7	Sololá	710	Panajachel	8	Panajachel	9	Septiembre	2023-09-26T00:00:00	2024-11-08T22:00:00	8	Radiación solar	0
62829	7	Sololá	710	Panajachel	8	Panajachel	9	Septiembre	2023-09-26T00:00:00	2024-11-08T23:00:00	2	Temperatura media	18
62830	7	Sololá	710	Panajachel	8	Panajachel	9	Septiembre	2023-09-26T00:00:00	2024-11-08T23:00:00	4	Temperatura máxima	18.4
62831	7	Sololá	710	Panajachel	8	Panajachel	9	Septiembre	2023-09-26T00:00:00	2024-11-08T23:00:00	3	Temperatura mínima	18
62832	7	Sololá	710	Panajachel	8	Panajachel	9	Septiembre	2023-09-26T00:00:00	2024-11-08T23:00:00	5	Humedad	96
62833	7	Sololá	710	Panajachel	8	Panajachel	9	Septiembre	2023-09-26T00:00:00	2024-11-08T23:00:00	6	Velocidad del viento	0
62834	7	Sololá	710	Panajachel	8	Panajachel	9	Septiembre	2023-09-26T00:00:00	2024-11-08T23:00:00	7	Dirección del viento	0
62835	7	Sololá	710	Panajachel	8	Panajachel	9	Septiembre	2023-09-26T00:00:00	2024-11-08T23:00:00	1	Precipitación	0
62836	7	Sololá	710	Panajachel	8	Panajachel	9	Septiembre	2023-09-26T00:00:00	2024-11-08T23:00:00	8	Radiación solar	0
62837	7	Sololá	710	Panajachel	8	Panajachel	9	Septiembre	2023-09-27T00:00:00	2024-11-08T00:00:00	2	Temperatura media	17.6
62838	7	Sololá	710	Panajachel	8	Panajachel	9	Septiembre	2023-09-27T00:00:00	2024-11-08T00:00:00	4	Temperatura máxima	18
62839	7	Sololá	710	Panajachel	8	Panajachel	9	Septiembre	2023-09-27T00:00:00	2024-11-08T00:00:00	3	Temperatura mínima	17.6
62840	7	Sololá	710	Panajachel	8	Panajachel	9	Septiembre	2023-09-27T00:00:00	2024-11-08T00:00:00	5	Humedad	93
62841	7	Sololá	710	Panajachel	8	Panajachel	9	Septiembre	2023-09-27T00:00:00	2024-11-08T00:00:00	6	Velocidad del viento	0
62842	7	Sololá	710	Panajachel	8	Panajachel	9	Septiembre	2023-09-27T00:00:00	2024-11-08T00:00:00	7	Dirección del viento	0
62843	7	Sololá	710	Panajachel	8	Panajachel	9	Septiembre	2023-09-27T00:00:00	2024-11-08T00:00:00	1	Precipitación	0
62844	7	Sololá	710	Panajachel	8	Panajachel	9	Septiembre	2023-09-27T00:00:00	2024-11-08T00:00:00	8	Radiación solar	0
62845	7	Sololá	710	Panajachel	8	Panajachel	9	Septiembre	2023-09-27T00:00:00	2024-11-08T01:00:00	2	Temperatura media	17.2
62846	7	Sololá	710	Panajachel	8	Panajachel	9	Septiembre	2023-09-27T00:00:00	2024-11-08T01:00:00	4	Temperatura máxima	17.6
62847	7	Sololá	710	Panajachel	8	Panajachel	9	Septiembre	2023-09-27T00:00:00	2024-11-08T01:00:00	3	Temperatura mínima	17.2
62848	7	Sololá	710	Panajachel	8	Panajachel	9	Septiembre	2023-09-27T00:00:00	2024-11-08T01:00:00	5	Humedad	94
62849	7	Sololá	710	Panajachel	8	Panajachel	9	Septiembre	2023-09-27T00:00:00	2024-11-08T01:00:00	6	Velocidad del viento	0
62850	7	Sololá	710	Panajachel	8	Panajachel	9	Septiembre	2023-09-27T00:00:00	2024-11-08T01:00:00	7	Dirección del viento	0
62851	7	Sololá	710	Panajachel	8	Panajachel	9	Septiembre	2023-09-27T00:00:00	2024-11-08T01:00:00	1	Precipitación	0
62852	7	Sololá	710	Panajachel	8	Panajachel	9	Septiembre	2023-09-27T00:00:00	2024-11-08T01:00:00	8	Radiación solar	0
62853	7	Sololá	710	Panajachel	8	Panajachel	9	Septiembre	2023-09-27T00:00:00	2024-11-08T02:00:00	2	Temperatura media	17
62854	7	Sololá	710	Panajachel	8	Panajachel	9	Septiembre	2023-09-27T00:00:00	2024-11-08T02:00:00	4	Temperatura máxima	17.2
62855	7	Sololá	710	Panajachel	8	Panajachel	9	Septiembre	2023-09-27T00:00:00	2024-11-08T02:00:00	3	Temperatura mínima	16.9
62856	7	Sololá	710	Panajachel	8	Panajachel	9	Septiembre	2023-09-27T00:00:00	2024-11-08T02:00:00	5	Humedad	95
62857	7	Sololá	710	Panajachel	8	Panajachel	9	Septiembre	2023-09-27T00:00:00	2024-11-08T02:00:00	6	Velocidad del viento	1.6
62858	7	Sololá	710	Panajachel	8	Panajachel	9	Septiembre	2023-09-27T00:00:00	2024-11-08T02:00:00	7	Dirección del viento	1.61
62859	7	Sololá	710	Panajachel	8	Panajachel	9	Septiembre	2023-09-27T00:00:00	2024-11-08T02:00:00	1	Precipitación	0
62860	7	Sololá	710	Panajachel	8	Panajachel	9	Septiembre	2023-09-27T00:00:00	2024-11-08T02:00:00	8	Radiación solar	0
62861	7	Sololá	710	Panajachel	8	Panajachel	9	Septiembre	2023-09-27T00:00:00	2024-11-08T03:00:00	2	Temperatura media	16.9
62862	7	Sololá	710	Panajachel	8	Panajachel	9	Septiembre	2023-09-27T00:00:00	2024-11-08T03:00:00	4	Temperatura máxima	17.1
62863	7	Sololá	710	Panajachel	8	Panajachel	9	Septiembre	2023-09-27T00:00:00	2024-11-08T03:00:00	3	Temperatura mínima	16.8
62864	7	Sololá	710	Panajachel	8	Panajachel	9	Septiembre	2023-09-27T00:00:00	2024-11-08T03:00:00	5	Humedad	93
62865	7	Sololá	710	Panajachel	8	Panajachel	9	Septiembre	2023-09-27T00:00:00	2024-11-08T03:00:00	6	Velocidad del viento	1.6
62866	7	Sololá	710	Panajachel	8	Panajachel	9	Septiembre	2023-09-27T00:00:00	2024-11-08T03:00:00	7	Dirección del viento	1.61
62867	7	Sololá	710	Panajachel	8	Panajachel	9	Septiembre	2023-09-27T00:00:00	2024-11-08T03:00:00	1	Precipitación	0
62868	7	Sololá	710	Panajachel	8	Panajachel	9	Septiembre	2023-09-27T00:00:00	2024-11-08T03:00:00	8	Radiación solar	0
62869	7	Sololá	710	Panajachel	8	Panajachel	9	Septiembre	2023-09-27T00:00:00	2024-11-08T04:00:00	2	Temperatura media	17.1
62870	7	Sololá	710	Panajachel	8	Panajachel	9	Septiembre	2023-09-27T00:00:00	2024-11-08T04:00:00	4	Temperatura máxima	17.3
62871	7	Sololá	710	Panajachel	8	Panajachel	9	Septiembre	2023-09-27T00:00:00	2024-11-08T04:00:00	3	Temperatura mínima	16.8
62872	7	Sololá	710	Panajachel	8	Panajachel	9	Septiembre	2023-09-27T00:00:00	2024-11-08T04:00:00	5	Humedad	93
62873	7	Sololá	710	Panajachel	8	Panajachel	9	Septiembre	2023-09-27T00:00:00	2024-11-08T04:00:00	6	Velocidad del viento	1.6
62874	7	Sololá	710	Panajachel	8	Panajachel	9	Septiembre	2023-09-27T00:00:00	2024-11-08T04:00:00	7	Dirección del viento	1.61
62875	7	Sololá	710	Panajachel	8	Panajachel	9	Septiembre	2023-09-27T00:00:00	2024-11-08T04:00:00	1	Precipitación	0
62876	7	Sololá	710	Panajachel	8	Panajachel	9	Septiembre	2023-09-27T00:00:00	2024-11-08T04:00:00	8	Radiación solar	0
62877	7	Sololá	710	Panajachel	8	Panajachel	9	Septiembre	2023-09-27T00:00:00	2024-11-08T05:00:00	2	Temperatura media	16.9
62878	7	Sololá	710	Panajachel	8	Panajachel	9	Septiembre	2023-09-27T00:00:00	2024-11-08T05:00:00	4	Temperatura máxima	17.1
62879	7	Sololá	710	Panajachel	8	Panajachel	9	Septiembre	2023-09-27T00:00:00	2024-11-08T05:00:00	3	Temperatura mínima	16.9
62880	7	Sololá	710	Panajachel	8	Panajachel	9	Septiembre	2023-09-27T00:00:00	2024-11-08T05:00:00	5	Humedad	92
62881	7	Sololá	710	Panajachel	8	Panajachel	9	Septiembre	2023-09-27T00:00:00	2024-11-08T05:00:00	6	Velocidad del viento	1.6
62882	7	Sololá	710	Panajachel	8	Panajachel	9	Septiembre	2023-09-27T00:00:00	2024-11-08T05:00:00	7	Dirección del viento	1.61
62883	7	Sololá	710	Panajachel	8	Panajachel	9	Septiembre	2023-09-27T00:00:00	2024-11-08T05:00:00	1	Precipitación	0
62884	7	Sololá	710	Panajachel	8	Panajachel	9	Septiembre	2023-09-27T00:00:00	2024-11-08T05:00:00	8	Radiación solar	0
62885	7	Sololá	710	Panajachel	8	Panajachel	9	Septiembre	2023-09-27T00:00:00	2024-11-08T06:00:00	2	Temperatura media	16.8
62886	7	Sololá	710	Panajachel	8	Panajachel	9	Septiembre	2023-09-27T00:00:00	2024-11-08T06:00:00	4	Temperatura máxima	16.9
62887	7	Sololá	710	Panajachel	8	Panajachel	9	Septiembre	2023-09-27T00:00:00	2024-11-08T06:00:00	3	Temperatura mínima	16.6
62888	7	Sololá	710	Panajachel	8	Panajachel	9	Septiembre	2023-09-27T00:00:00	2024-11-08T06:00:00	5	Humedad	91
62889	7	Sololá	710	Panajachel	8	Panajachel	9	Septiembre	2023-09-27T00:00:00	2024-11-08T06:00:00	6	Velocidad del viento	1.6
62890	7	Sololá	710	Panajachel	8	Panajachel	9	Septiembre	2023-09-27T00:00:00	2024-11-08T06:00:00	7	Dirección del viento	1.61
62891	7	Sololá	710	Panajachel	8	Panajachel	9	Septiembre	2023-09-27T00:00:00	2024-11-08T06:00:00	1	Precipitación	0
62892	7	Sololá	710	Panajachel	8	Panajachel	9	Septiembre	2023-09-27T00:00:00	2024-11-08T06:00:00	8	Radiación solar	0
62893	7	Sololá	710	Panajachel	8	Panajachel	9	Septiembre	2023-09-27T00:00:00	2024-11-08T07:00:00	2	Temperatura media	17.2
62894	7	Sololá	710	Panajachel	8	Panajachel	9	Septiembre	2023-09-27T00:00:00	2024-11-08T07:00:00	4	Temperatura máxima	17.3
62895	7	Sololá	710	Panajachel	8	Panajachel	9	Septiembre	2023-09-27T00:00:00	2024-11-08T07:00:00	3	Temperatura mínima	16.3
62896	7	Sololá	710	Panajachel	8	Panajachel	9	Septiembre	2023-09-27T00:00:00	2024-11-08T07:00:00	5	Humedad	89
62897	7	Sololá	710	Panajachel	8	Panajachel	9	Septiembre	2023-09-27T00:00:00	2024-11-08T07:00:00	6	Velocidad del viento	3.2
62898	7	Sololá	710	Panajachel	8	Panajachel	9	Septiembre	2023-09-27T00:00:00	2024-11-08T07:00:00	7	Dirección del viento	3.22
62899	7	Sololá	710	Panajachel	8	Panajachel	9	Septiembre	2023-09-27T00:00:00	2024-11-08T07:00:00	1	Precipitación	0
62900	7	Sololá	710	Panajachel	8	Panajachel	9	Septiembre	2023-09-27T00:00:00	2024-11-08T07:00:00	8	Radiación solar	50
62901	7	Sololá	710	Panajachel	8	Panajachel	9	Septiembre	2023-09-27T00:00:00	2024-11-08T08:00:00	2	Temperatura media	21.2
62902	7	Sololá	710	Panajachel	8	Panajachel	9	Septiembre	2023-09-27T00:00:00	2024-11-08T08:00:00	4	Temperatura máxima	21.2
62903	7	Sololá	710	Panajachel	8	Panajachel	9	Septiembre	2023-09-27T00:00:00	2024-11-08T08:00:00	3	Temperatura mínima	17.3
62904	7	Sololá	710	Panajachel	8	Panajachel	9	Septiembre	2023-09-27T00:00:00	2024-11-08T08:00:00	5	Humedad	79
62905	7	Sololá	710	Panajachel	8	Panajachel	9	Septiembre	2023-09-27T00:00:00	2024-11-08T08:00:00	6	Velocidad del viento	1.6
62906	7	Sololá	710	Panajachel	8	Panajachel	9	Septiembre	2023-09-27T00:00:00	2024-11-08T08:00:00	7	Dirección del viento	1.61
62907	7	Sololá	710	Panajachel	8	Panajachel	9	Septiembre	2023-09-27T00:00:00	2024-11-08T08:00:00	1	Precipitación	0
62908	7	Sololá	710	Panajachel	8	Panajachel	9	Septiembre	2023-09-27T00:00:00	2024-11-08T08:00:00	8	Radiación solar	275
62909	7	Sololá	710	Panajachel	8	Panajachel	9	Septiembre	2023-09-27T00:00:00	2024-11-08T09:00:00	2	Temperatura media	21.8
62910	7	Sololá	710	Panajachel	8	Panajachel	9	Septiembre	2023-09-27T00:00:00	2024-11-08T09:00:00	4	Temperatura máxima	21.8
62911	7	Sololá	710	Panajachel	8	Panajachel	9	Septiembre	2023-09-27T00:00:00	2024-11-08T09:00:00	3	Temperatura mínima	20.6
62912	7	Sololá	710	Panajachel	8	Panajachel	9	Septiembre	2023-09-27T00:00:00	2024-11-08T09:00:00	5	Humedad	80
62913	7	Sololá	710	Panajachel	8	Panajachel	9	Septiembre	2023-09-27T00:00:00	2024-11-08T09:00:00	6	Velocidad del viento	0
62914	7	Sololá	710	Panajachel	8	Panajachel	9	Septiembre	2023-09-27T00:00:00	2024-11-08T09:00:00	7	Dirección del viento	0
62915	7	Sololá	710	Panajachel	8	Panajachel	9	Septiembre	2023-09-27T00:00:00	2024-11-08T09:00:00	1	Precipitación	0
62916	7	Sololá	710	Panajachel	8	Panajachel	9	Septiembre	2023-09-27T00:00:00	2024-11-08T09:00:00	8	Radiación solar	519
62917	7	Sololá	710	Panajachel	8	Panajachel	9	Septiembre	2023-09-27T00:00:00	2024-11-08T10:00:00	2	Temperatura media	22.1
62918	7	Sololá	710	Panajachel	8	Panajachel	9	Septiembre	2023-09-27T00:00:00	2024-11-08T10:00:00	4	Temperatura máxima	22.3
62919	7	Sololá	710	Panajachel	8	Panajachel	9	Septiembre	2023-09-27T00:00:00	2024-11-08T10:00:00	3	Temperatura mínima	21.8
62920	7	Sololá	710	Panajachel	8	Panajachel	9	Septiembre	2023-09-27T00:00:00	2024-11-08T10:00:00	5	Humedad	77
62921	7	Sololá	710	Panajachel	8	Panajachel	9	Septiembre	2023-09-27T00:00:00	2024-11-08T10:00:00	6	Velocidad del viento	1.6
62922	7	Sololá	710	Panajachel	8	Panajachel	9	Septiembre	2023-09-27T00:00:00	2024-11-08T10:00:00	7	Dirección del viento	1.61
62923	7	Sololá	710	Panajachel	8	Panajachel	9	Septiembre	2023-09-27T00:00:00	2024-11-08T10:00:00	1	Precipitación	0
62924	7	Sololá	710	Panajachel	8	Panajachel	9	Septiembre	2023-09-27T00:00:00	2024-11-08T10:00:00	8	Radiación solar	648
62925	7	Sololá	710	Panajachel	8	Panajachel	9	Septiembre	2023-09-27T00:00:00	2024-11-08T11:00:00	2	Temperatura media	23.8
62926	7	Sololá	710	Panajachel	8	Panajachel	9	Septiembre	2023-09-27T00:00:00	2024-11-08T11:00:00	4	Temperatura máxima	23.8
62927	7	Sololá	710	Panajachel	8	Panajachel	9	Septiembre	2023-09-27T00:00:00	2024-11-08T11:00:00	3	Temperatura mínima	22.1
62928	7	Sololá	710	Panajachel	8	Panajachel	9	Septiembre	2023-09-27T00:00:00	2024-11-08T11:00:00	5	Humedad	71
62929	7	Sololá	710	Panajachel	8	Panajachel	9	Septiembre	2023-09-27T00:00:00	2024-11-08T11:00:00	6	Velocidad del viento	1.6
62930	7	Sololá	710	Panajachel	8	Panajachel	9	Septiembre	2023-09-27T00:00:00	2024-11-08T11:00:00	7	Dirección del viento	1.61
62931	7	Sololá	710	Panajachel	8	Panajachel	9	Septiembre	2023-09-27T00:00:00	2024-11-08T11:00:00	1	Precipitación	0
62932	7	Sololá	710	Panajachel	8	Panajachel	9	Septiembre	2023-09-27T00:00:00	2024-11-08T11:00:00	8	Radiación solar	787
62933	7	Sololá	710	Panajachel	8	Panajachel	9	Septiembre	2023-09-27T00:00:00	2024-11-08T12:00:00	2	Temperatura media	24.1
62934	7	Sololá	710	Panajachel	8	Panajachel	9	Septiembre	2023-09-27T00:00:00	2024-11-08T12:00:00	4	Temperatura máxima	24.7
62935	7	Sololá	710	Panajachel	8	Panajachel	9	Septiembre	2023-09-27T00:00:00	2024-11-08T12:00:00	3	Temperatura mínima	23.7
62936	7	Sololá	710	Panajachel	8	Panajachel	9	Septiembre	2023-09-27T00:00:00	2024-11-08T12:00:00	5	Humedad	66
62937	7	Sololá	710	Panajachel	8	Panajachel	9	Septiembre	2023-09-27T00:00:00	2024-11-08T12:00:00	6	Velocidad del viento	1.6
62938	7	Sololá	710	Panajachel	8	Panajachel	9	Septiembre	2023-09-27T00:00:00	2024-11-08T12:00:00	7	Dirección del viento	1.61
62939	7	Sololá	710	Panajachel	8	Panajachel	9	Septiembre	2023-09-27T00:00:00	2024-11-08T12:00:00	1	Precipitación	0
62940	7	Sololá	710	Panajachel	8	Panajachel	9	Septiembre	2023-09-27T00:00:00	2024-11-08T12:00:00	8	Radiación solar	881
62941	7	Sololá	710	Panajachel	8	Panajachel	9	Septiembre	2023-09-27T00:00:00	2024-11-08T13:00:00	2	Temperatura media	24.6
62942	7	Sololá	710	Panajachel	8	Panajachel	9	Septiembre	2023-09-27T00:00:00	2024-11-08T13:00:00	4	Temperatura máxima	25.1
62943	7	Sololá	710	Panajachel	8	Panajachel	9	Septiembre	2023-09-27T00:00:00	2024-11-08T13:00:00	3	Temperatura mínima	24.2
62944	7	Sololá	710	Panajachel	8	Panajachel	9	Septiembre	2023-09-27T00:00:00	2024-11-08T13:00:00	5	Humedad	73
62945	7	Sololá	710	Panajachel	8	Panajachel	9	Septiembre	2023-09-27T00:00:00	2024-11-08T13:00:00	6	Velocidad del viento	3.2
62946	7	Sololá	710	Panajachel	8	Panajachel	9	Septiembre	2023-09-27T00:00:00	2024-11-08T13:00:00	7	Dirección del viento	3.22
62947	7	Sololá	710	Panajachel	8	Panajachel	9	Septiembre	2023-09-27T00:00:00	2024-11-08T13:00:00	1	Precipitación	0
62948	7	Sololá	710	Panajachel	8	Panajachel	9	Septiembre	2023-09-27T00:00:00	2024-11-08T13:00:00	8	Radiación solar	944
62949	7	Sololá	710	Panajachel	8	Panajachel	9	Septiembre	2023-09-27T00:00:00	2024-11-08T14:00:00	2	Temperatura media	23.4
62950	7	Sololá	710	Panajachel	8	Panajachel	9	Septiembre	2023-09-27T00:00:00	2024-11-08T14:00:00	4	Temperatura máxima	25.3
62951	7	Sololá	710	Panajachel	8	Panajachel	9	Septiembre	2023-09-27T00:00:00	2024-11-08T14:00:00	3	Temperatura mínima	23.3
62952	7	Sololá	710	Panajachel	8	Panajachel	9	Septiembre	2023-09-27T00:00:00	2024-11-08T14:00:00	5	Humedad	84
62953	7	Sololá	710	Panajachel	8	Panajachel	9	Septiembre	2023-09-27T00:00:00	2024-11-08T14:00:00	6	Velocidad del viento	4.8
62954	7	Sololá	710	Panajachel	8	Panajachel	9	Septiembre	2023-09-27T00:00:00	2024-11-08T14:00:00	7	Dirección del viento	4.83
62955	7	Sololá	710	Panajachel	8	Panajachel	9	Septiembre	2023-09-27T00:00:00	2024-11-08T14:00:00	1	Precipitación	0
62956	7	Sololá	710	Panajachel	8	Panajachel	9	Septiembre	2023-09-27T00:00:00	2024-11-08T14:00:00	8	Radiación solar	589
62957	7	Sololá	710	Panajachel	8	Panajachel	9	Septiembre	2023-09-27T00:00:00	2024-11-08T15:00:00	2	Temperatura media	21.7
62958	7	Sololá	710	Panajachel	8	Panajachel	9	Septiembre	2023-09-27T00:00:00	2024-11-08T15:00:00	4	Temperatura máxima	23.6
62959	7	Sololá	710	Panajachel	8	Panajachel	9	Septiembre	2023-09-27T00:00:00	2024-11-08T15:00:00	3	Temperatura mínima	21.6
62960	7	Sololá	710	Panajachel	8	Panajachel	9	Septiembre	2023-09-27T00:00:00	2024-11-08T15:00:00	5	Humedad	83
62961	7	Sololá	710	Panajachel	8	Panajachel	9	Septiembre	2023-09-27T00:00:00	2024-11-08T15:00:00	6	Velocidad del viento	1.6
62962	7	Sololá	710	Panajachel	8	Panajachel	9	Septiembre	2023-09-27T00:00:00	2024-11-08T15:00:00	7	Dirección del viento	1.61
62963	7	Sololá	710	Panajachel	8	Panajachel	9	Septiembre	2023-09-27T00:00:00	2024-11-08T15:00:00	1	Precipitación	0
62964	7	Sololá	710	Panajachel	8	Panajachel	9	Septiembre	2023-09-27T00:00:00	2024-11-08T15:00:00	8	Radiación solar	84
62965	7	Sololá	710	Panajachel	8	Panajachel	9	Septiembre	2023-09-27T00:00:00	2024-11-08T16:00:00	2	Temperatura media	21
62966	7	Sololá	710	Panajachel	8	Panajachel	9	Septiembre	2023-09-27T00:00:00	2024-11-08T16:00:00	4	Temperatura máxima	21.7
62967	7	Sololá	710	Panajachel	8	Panajachel	9	Septiembre	2023-09-27T00:00:00	2024-11-08T16:00:00	3	Temperatura mínima	20.9
62968	7	Sololá	710	Panajachel	8	Panajachel	9	Septiembre	2023-09-27T00:00:00	2024-11-08T16:00:00	5	Humedad	85
62969	7	Sololá	710	Panajachel	8	Panajachel	9	Septiembre	2023-09-27T00:00:00	2024-11-08T16:00:00	6	Velocidad del viento	0
62970	7	Sololá	710	Panajachel	8	Panajachel	9	Septiembre	2023-09-27T00:00:00	2024-11-08T16:00:00	7	Dirección del viento	0
62971	7	Sololá	710	Panajachel	8	Panajachel	9	Septiembre	2023-09-27T00:00:00	2024-11-08T16:00:00	1	Precipitación	0
62972	7	Sololá	710	Panajachel	8	Panajachel	9	Septiembre	2023-09-27T00:00:00	2024-11-08T16:00:00	8	Radiación solar	17
62973	7	Sololá	710	Panajachel	8	Panajachel	9	Septiembre	2023-09-27T00:00:00	2024-11-08T17:00:00	2	Temperatura media	20.3
62974	7	Sololá	710	Panajachel	8	Panajachel	9	Septiembre	2023-09-27T00:00:00	2024-11-08T17:00:00	4	Temperatura máxima	21
62975	7	Sololá	710	Panajachel	8	Panajachel	9	Septiembre	2023-09-27T00:00:00	2024-11-08T17:00:00	3	Temperatura mínima	20.3
62976	7	Sololá	710	Panajachel	8	Panajachel	9	Septiembre	2023-09-27T00:00:00	2024-11-08T17:00:00	5	Humedad	91
62977	7	Sololá	710	Panajachel	8	Panajachel	9	Septiembre	2023-09-27T00:00:00	2024-11-08T17:00:00	6	Velocidad del viento	0
62978	7	Sololá	710	Panajachel	8	Panajachel	9	Septiembre	2023-09-27T00:00:00	2024-11-08T17:00:00	7	Dirección del viento	0
62979	7	Sololá	710	Panajachel	8	Panajachel	9	Septiembre	2023-09-27T00:00:00	2024-11-08T17:00:00	1	Precipitación	0.2
62980	7	Sololá	710	Panajachel	8	Panajachel	9	Septiembre	2023-09-27T00:00:00	2024-11-08T17:00:00	8	Radiación solar	39
62981	7	Sololá	710	Panajachel	8	Panajachel	9	Septiembre	2023-09-27T00:00:00	2024-11-08T18:00:00	2	Temperatura media	20.1
62982	7	Sololá	710	Panajachel	8	Panajachel	9	Septiembre	2023-09-27T00:00:00	2024-11-08T18:00:00	4	Temperatura máxima	20.3
62983	7	Sololá	710	Panajachel	8	Panajachel	9	Septiembre	2023-09-27T00:00:00	2024-11-08T18:00:00	3	Temperatura mínima	19.9
62984	7	Sololá	710	Panajachel	8	Panajachel	9	Septiembre	2023-09-27T00:00:00	2024-11-08T18:00:00	5	Humedad	91
62985	7	Sololá	710	Panajachel	8	Panajachel	9	Septiembre	2023-09-27T00:00:00	2024-11-08T18:00:00	6	Velocidad del viento	0
62986	7	Sololá	710	Panajachel	8	Panajachel	9	Septiembre	2023-09-27T00:00:00	2024-11-08T18:00:00	7	Dirección del viento	0
62987	7	Sololá	710	Panajachel	8	Panajachel	9	Septiembre	2023-09-27T00:00:00	2024-11-08T18:00:00	1	Precipitación	0
62988	7	Sololá	710	Panajachel	8	Panajachel	9	Septiembre	2023-09-27T00:00:00	2024-11-08T18:00:00	8	Radiación solar	5
62989	7	Sololá	710	Panajachel	8	Panajachel	9	Septiembre	2023-09-27T00:00:00	2024-11-08T19:00:00	2	Temperatura media	20.3
62990	7	Sololá	710	Panajachel	8	Panajachel	9	Septiembre	2023-09-27T00:00:00	2024-11-08T19:00:00	4	Temperatura máxima	20.3
62991	7	Sololá	710	Panajachel	8	Panajachel	9	Septiembre	2023-09-27T00:00:00	2024-11-08T19:00:00	3	Temperatura mínima	19.8
62992	7	Sololá	710	Panajachel	8	Panajachel	9	Septiembre	2023-09-27T00:00:00	2024-11-08T19:00:00	5	Humedad	93
62993	7	Sololá	710	Panajachel	8	Panajachel	9	Septiembre	2023-09-27T00:00:00	2024-11-08T19:00:00	6	Velocidad del viento	0
62994	7	Sololá	710	Panajachel	8	Panajachel	9	Septiembre	2023-09-27T00:00:00	2024-11-08T19:00:00	7	Dirección del viento	0
62995	7	Sololá	710	Panajachel	8	Panajachel	9	Septiembre	2023-09-27T00:00:00	2024-11-08T19:00:00	1	Precipitación	0
62996	7	Sololá	710	Panajachel	8	Panajachel	9	Septiembre	2023-09-27T00:00:00	2024-11-08T19:00:00	8	Radiación solar	0
62997	7	Sololá	710	Panajachel	8	Panajachel	9	Septiembre	2023-09-27T00:00:00	2024-11-08T20:00:00	2	Temperatura media	19.1
62998	7	Sololá	710	Panajachel	8	Panajachel	9	Septiembre	2023-09-27T00:00:00	2024-11-08T20:00:00	4	Temperatura máxima	20.4
62999	7	Sololá	710	Panajachel	8	Panajachel	9	Septiembre	2023-09-27T00:00:00	2024-11-08T20:00:00	3	Temperatura mínima	19.1
63000	7	Sololá	710	Panajachel	8	Panajachel	9	Septiembre	2023-09-27T00:00:00	2024-11-08T20:00:00	5	Humedad	95
63001	7	Sololá	710	Panajachel	8	Panajachel	9	Septiembre	2023-09-27T00:00:00	2024-11-08T20:00:00	6	Velocidad del viento	0
63002	7	Sololá	710	Panajachel	8	Panajachel	9	Septiembre	2023-09-27T00:00:00	2024-11-08T20:00:00	7	Dirección del viento	0
63003	7	Sololá	710	Panajachel	8	Panajachel	9	Septiembre	2023-09-27T00:00:00	2024-11-08T20:00:00	1	Precipitación	1.4
63004	7	Sololá	710	Panajachel	8	Panajachel	9	Septiembre	2023-09-27T00:00:00	2024-11-08T20:00:00	8	Radiación solar	0
63005	7	Sololá	710	Panajachel	8	Panajachel	9	Septiembre	2023-09-27T00:00:00	2024-11-08T21:00:00	2	Temperatura media	18.7
63006	7	Sololá	710	Panajachel	8	Panajachel	9	Septiembre	2023-09-27T00:00:00	2024-11-08T21:00:00	4	Temperatura máxima	19.1
63007	7	Sololá	710	Panajachel	8	Panajachel	9	Septiembre	2023-09-27T00:00:00	2024-11-08T21:00:00	3	Temperatura mínima	18.7
63008	7	Sololá	710	Panajachel	8	Panajachel	9	Septiembre	2023-09-27T00:00:00	2024-11-08T21:00:00	5	Humedad	96
63009	7	Sololá	710	Panajachel	8	Panajachel	9	Septiembre	2023-09-27T00:00:00	2024-11-08T21:00:00	6	Velocidad del viento	0
63010	7	Sololá	710	Panajachel	8	Panajachel	9	Septiembre	2023-09-27T00:00:00	2024-11-08T21:00:00	7	Dirección del viento	0
63011	7	Sololá	710	Panajachel	8	Panajachel	9	Septiembre	2023-09-27T00:00:00	2024-11-08T21:00:00	1	Precipitación	0.6
63012	7	Sololá	710	Panajachel	8	Panajachel	9	Septiembre	2023-09-27T00:00:00	2024-11-08T21:00:00	8	Radiación solar	0
63013	7	Sololá	710	Panajachel	8	Panajachel	9	Septiembre	2023-09-27T00:00:00	2024-11-08T22:00:00	2	Temperatura media	18
63014	7	Sololá	710	Panajachel	8	Panajachel	9	Septiembre	2023-09-27T00:00:00	2024-11-08T22:00:00	4	Temperatura máxima	18.7
63015	7	Sololá	710	Panajachel	8	Panajachel	9	Septiembre	2023-09-27T00:00:00	2024-11-08T22:00:00	3	Temperatura mínima	18
63016	7	Sololá	710	Panajachel	8	Panajachel	9	Septiembre	2023-09-27T00:00:00	2024-11-08T22:00:00	5	Humedad	95
63017	7	Sololá	710	Panajachel	8	Panajachel	9	Septiembre	2023-09-27T00:00:00	2024-11-08T22:00:00	6	Velocidad del viento	0
63018	7	Sololá	710	Panajachel	8	Panajachel	9	Septiembre	2023-09-27T00:00:00	2024-11-08T22:00:00	7	Dirección del viento	0
63019	7	Sololá	710	Panajachel	8	Panajachel	9	Septiembre	2023-09-27T00:00:00	2024-11-08T22:00:00	1	Precipitación	0.2
63020	7	Sololá	710	Panajachel	8	Panajachel	9	Septiembre	2023-09-27T00:00:00	2024-11-08T22:00:00	8	Radiación solar	0
63021	7	Sololá	710	Panajachel	8	Panajachel	9	Septiembre	2023-09-27T00:00:00	2024-11-08T23:00:00	2	Temperatura media	18.1
63022	7	Sololá	710	Panajachel	8	Panajachel	9	Septiembre	2023-09-27T00:00:00	2024-11-08T23:00:00	4	Temperatura máxima	18.1
63023	7	Sololá	710	Panajachel	8	Panajachel	9	Septiembre	2023-09-27T00:00:00	2024-11-08T23:00:00	3	Temperatura mínima	17.9
63024	7	Sololá	710	Panajachel	8	Panajachel	9	Septiembre	2023-09-27T00:00:00	2024-11-08T23:00:00	5	Humedad	93
63025	7	Sololá	710	Panajachel	8	Panajachel	9	Septiembre	2023-09-27T00:00:00	2024-11-08T23:00:00	6	Velocidad del viento	1.6
63026	7	Sololá	710	Panajachel	8	Panajachel	9	Septiembre	2023-09-27T00:00:00	2024-11-08T23:00:00	7	Dirección del viento	1.61
63027	7	Sololá	710	Panajachel	8	Panajachel	9	Septiembre	2023-09-27T00:00:00	2024-11-08T23:00:00	1	Precipitación	0.2
63028	7	Sololá	710	Panajachel	8	Panajachel	9	Septiembre	2023-09-27T00:00:00	2024-11-08T23:00:00	8	Radiación solar	0
63029	7	Sololá	710	Panajachel	8	Panajachel	9	Septiembre	2023-09-28T00:00:00	2024-11-08T00:00:00	2	Temperatura media	18.1
63030	7	Sololá	710	Panajachel	8	Panajachel	9	Septiembre	2023-09-28T00:00:00	2024-11-08T00:00:00	4	Temperatura máxima	18.2
63031	7	Sololá	710	Panajachel	8	Panajachel	9	Septiembre	2023-09-28T00:00:00	2024-11-08T00:00:00	3	Temperatura mínima	17.9
63032	7	Sololá	710	Panajachel	8	Panajachel	9	Septiembre	2023-09-28T00:00:00	2024-11-08T00:00:00	5	Humedad	94
63033	7	Sololá	710	Panajachel	8	Panajachel	9	Septiembre	2023-09-28T00:00:00	2024-11-08T00:00:00	6	Velocidad del viento	0
63034	7	Sololá	710	Panajachel	8	Panajachel	9	Septiembre	2023-09-28T00:00:00	2024-11-08T00:00:00	7	Dirección del viento	0
63035	7	Sololá	710	Panajachel	8	Panajachel	9	Septiembre	2023-09-28T00:00:00	2024-11-08T00:00:00	1	Precipitación	0
63036	7	Sololá	710	Panajachel	8	Panajachel	9	Septiembre	2023-09-28T00:00:00	2024-11-08T00:00:00	8	Radiación solar	0
63037	7	Sololá	710	Panajachel	8	Panajachel	9	Septiembre	2023-09-28T00:00:00	2024-11-08T01:00:00	2	Temperatura media	18.4
63038	7	Sololá	710	Panajachel	8	Panajachel	9	Septiembre	2023-09-28T00:00:00	2024-11-08T01:00:00	4	Temperatura máxima	18.7
63039	7	Sololá	710	Panajachel	8	Panajachel	9	Septiembre	2023-09-28T00:00:00	2024-11-08T01:00:00	3	Temperatura mínima	17.9
63040	7	Sololá	710	Panajachel	8	Panajachel	9	Septiembre	2023-09-28T00:00:00	2024-11-08T01:00:00	5	Humedad	92
63041	7	Sololá	710	Panajachel	8	Panajachel	9	Septiembre	2023-09-28T00:00:00	2024-11-08T01:00:00	6	Velocidad del viento	0
63042	7	Sololá	710	Panajachel	8	Panajachel	9	Septiembre	2023-09-28T00:00:00	2024-11-08T01:00:00	7	Dirección del viento	0
63043	7	Sololá	710	Panajachel	8	Panajachel	9	Septiembre	2023-09-28T00:00:00	2024-11-08T01:00:00	1	Precipitación	0
63044	7	Sololá	710	Panajachel	8	Panajachel	9	Septiembre	2023-09-28T00:00:00	2024-11-08T01:00:00	8	Radiación solar	0
63045	7	Sololá	710	Panajachel	8	Panajachel	9	Septiembre	2023-09-28T00:00:00	2024-11-08T02:00:00	2	Temperatura media	17.7
63046	7	Sololá	710	Panajachel	8	Panajachel	9	Septiembre	2023-09-28T00:00:00	2024-11-08T02:00:00	4	Temperatura máxima	18.8
63047	7	Sololá	710	Panajachel	8	Panajachel	9	Septiembre	2023-09-28T00:00:00	2024-11-08T02:00:00	3	Temperatura mínima	17.7
63048	7	Sololá	710	Panajachel	8	Panajachel	9	Septiembre	2023-09-28T00:00:00	2024-11-08T02:00:00	5	Humedad	94
63049	7	Sololá	710	Panajachel	8	Panajachel	9	Septiembre	2023-09-28T00:00:00	2024-11-08T02:00:00	6	Velocidad del viento	0
63050	7	Sololá	710	Panajachel	8	Panajachel	9	Septiembre	2023-09-28T00:00:00	2024-11-08T02:00:00	7	Dirección del viento	0
63051	7	Sololá	710	Panajachel	8	Panajachel	9	Septiembre	2023-09-28T00:00:00	2024-11-08T02:00:00	1	Precipitación	0
63052	7	Sololá	710	Panajachel	8	Panajachel	9	Septiembre	2023-09-28T00:00:00	2024-11-08T02:00:00	8	Radiación solar	0
63053	7	Sololá	710	Panajachel	8	Panajachel	9	Septiembre	2023-09-28T00:00:00	2024-11-08T03:00:00	2	Temperatura media	17.5
63054	7	Sololá	710	Panajachel	8	Panajachel	9	Septiembre	2023-09-28T00:00:00	2024-11-08T03:00:00	4	Temperatura máxima	17.7
63055	7	Sololá	710	Panajachel	8	Panajachel	9	Septiembre	2023-09-28T00:00:00	2024-11-08T03:00:00	3	Temperatura mínima	17.4
63056	7	Sololá	710	Panajachel	8	Panajachel	9	Septiembre	2023-09-28T00:00:00	2024-11-08T03:00:00	5	Humedad	93
63057	7	Sololá	710	Panajachel	8	Panajachel	9	Septiembre	2023-09-28T00:00:00	2024-11-08T03:00:00	6	Velocidad del viento	1.6
63058	7	Sololá	710	Panajachel	8	Panajachel	9	Septiembre	2023-09-28T00:00:00	2024-11-08T03:00:00	7	Dirección del viento	1.61
63059	7	Sololá	710	Panajachel	8	Panajachel	9	Septiembre	2023-09-28T00:00:00	2024-11-08T03:00:00	1	Precipitación	0
63060	7	Sololá	710	Panajachel	8	Panajachel	9	Septiembre	2023-09-28T00:00:00	2024-11-08T03:00:00	8	Radiación solar	0
63061	7	Sololá	710	Panajachel	8	Panajachel	9	Septiembre	2023-09-28T00:00:00	2024-11-08T04:00:00	2	Temperatura media	18.5
63062	7	Sololá	710	Panajachel	8	Panajachel	9	Septiembre	2023-09-28T00:00:00	2024-11-08T04:00:00	4	Temperatura máxima	18.6
63063	7	Sololá	710	Panajachel	8	Panajachel	9	Septiembre	2023-09-28T00:00:00	2024-11-08T04:00:00	3	Temperatura mínima	17.5
63064	7	Sololá	710	Panajachel	8	Panajachel	9	Septiembre	2023-09-28T00:00:00	2024-11-08T04:00:00	5	Humedad	89
63065	7	Sololá	710	Panajachel	8	Panajachel	9	Septiembre	2023-09-28T00:00:00	2024-11-08T04:00:00	6	Velocidad del viento	1.6
63066	7	Sololá	710	Panajachel	8	Panajachel	9	Septiembre	2023-09-28T00:00:00	2024-11-08T04:00:00	7	Dirección del viento	1.61
63067	7	Sololá	710	Panajachel	8	Panajachel	9	Septiembre	2023-09-28T00:00:00	2024-11-08T04:00:00	1	Precipitación	0
63068	7	Sololá	710	Panajachel	8	Panajachel	9	Septiembre	2023-09-28T00:00:00	2024-11-08T04:00:00	8	Radiación solar	0
63069	7	Sololá	710	Panajachel	8	Panajachel	9	Septiembre	2023-09-28T00:00:00	2024-11-08T05:00:00	2	Temperatura media	17.3
63070	7	Sololá	710	Panajachel	8	Panajachel	9	Septiembre	2023-09-28T00:00:00	2024-11-08T05:00:00	4	Temperatura máxima	18.5
63071	7	Sololá	710	Panajachel	8	Panajachel	9	Septiembre	2023-09-28T00:00:00	2024-11-08T05:00:00	3	Temperatura mínima	17.2
63072	7	Sololá	710	Panajachel	8	Panajachel	9	Septiembre	2023-09-28T00:00:00	2024-11-08T05:00:00	5	Humedad	92
63073	7	Sololá	710	Panajachel	8	Panajachel	9	Septiembre	2023-09-28T00:00:00	2024-11-08T05:00:00	6	Velocidad del viento	0
63074	7	Sololá	710	Panajachel	8	Panajachel	9	Septiembre	2023-09-28T00:00:00	2024-11-08T05:00:00	7	Dirección del viento	0
63075	7	Sololá	710	Panajachel	8	Panajachel	9	Septiembre	2023-09-28T00:00:00	2024-11-08T05:00:00	1	Precipitación	0
63076	7	Sololá	710	Panajachel	8	Panajachel	9	Septiembre	2023-09-28T00:00:00	2024-11-08T05:00:00	8	Radiación solar	0
63077	7	Sololá	710	Panajachel	8	Panajachel	9	Septiembre	2023-09-28T00:00:00	2024-11-08T06:00:00	2	Temperatura media	17.1
63078	7	Sololá	710	Panajachel	8	Panajachel	9	Septiembre	2023-09-28T00:00:00	2024-11-08T06:00:00	4	Temperatura máxima	17.4
63079	7	Sololá	710	Panajachel	8	Panajachel	9	Septiembre	2023-09-28T00:00:00	2024-11-08T06:00:00	3	Temperatura mínima	17
63080	7	Sololá	710	Panajachel	8	Panajachel	9	Septiembre	2023-09-28T00:00:00	2024-11-08T06:00:00	5	Humedad	91
63081	7	Sololá	710	Panajachel	8	Panajachel	9	Septiembre	2023-09-28T00:00:00	2024-11-08T06:00:00	6	Velocidad del viento	1.6
63082	7	Sololá	710	Panajachel	8	Panajachel	9	Septiembre	2023-09-28T00:00:00	2024-11-08T06:00:00	7	Dirección del viento	1.61
63083	7	Sololá	710	Panajachel	8	Panajachel	9	Septiembre	2023-09-28T00:00:00	2024-11-08T06:00:00	1	Precipitación	0
63084	7	Sololá	710	Panajachel	8	Panajachel	9	Septiembre	2023-09-28T00:00:00	2024-11-08T06:00:00	8	Radiación solar	0
63085	7	Sololá	710	Panajachel	8	Panajachel	9	Septiembre	2023-09-28T00:00:00	2024-11-08T07:00:00	2	Temperatura media	18.1
63086	7	Sololá	710	Panajachel	8	Panajachel	9	Septiembre	2023-09-28T00:00:00	2024-11-08T07:00:00	4	Temperatura máxima	18.1
63087	7	Sololá	710	Panajachel	8	Panajachel	9	Septiembre	2023-09-28T00:00:00	2024-11-08T07:00:00	3	Temperatura mínima	17
63088	7	Sololá	710	Panajachel	8	Panajachel	9	Septiembre	2023-09-28T00:00:00	2024-11-08T07:00:00	5	Humedad	87
63089	7	Sololá	710	Panajachel	8	Panajachel	9	Septiembre	2023-09-28T00:00:00	2024-11-08T07:00:00	6	Velocidad del viento	1.6
63090	7	Sololá	710	Panajachel	8	Panajachel	9	Septiembre	2023-09-28T00:00:00	2024-11-08T07:00:00	7	Dirección del viento	1.61
63091	7	Sololá	710	Panajachel	8	Panajachel	9	Septiembre	2023-09-28T00:00:00	2024-11-08T07:00:00	1	Precipitación	0
63092	7	Sololá	710	Panajachel	8	Panajachel	9	Septiembre	2023-09-28T00:00:00	2024-11-08T07:00:00	8	Radiación solar	47
63093	7	Sololá	710	Panajachel	8	Panajachel	9	Septiembre	2023-09-28T00:00:00	2024-11-08T08:00:00	2	Temperatura media	21.2
63094	7	Sololá	710	Panajachel	8	Panajachel	9	Septiembre	2023-09-28T00:00:00	2024-11-08T08:00:00	4	Temperatura máxima	21.3
63095	7	Sololá	710	Panajachel	8	Panajachel	9	Septiembre	2023-09-28T00:00:00	2024-11-08T08:00:00	3	Temperatura mínima	18.1
63096	7	Sololá	710	Panajachel	8	Panajachel	9	Septiembre	2023-09-28T00:00:00	2024-11-08T08:00:00	5	Humedad	81
63097	7	Sololá	710	Panajachel	8	Panajachel	9	Septiembre	2023-09-28T00:00:00	2024-11-08T08:00:00	6	Velocidad del viento	1.6
63098	7	Sololá	710	Panajachel	8	Panajachel	9	Septiembre	2023-09-28T00:00:00	2024-11-08T08:00:00	7	Dirección del viento	1.61
63099	7	Sololá	710	Panajachel	8	Panajachel	9	Septiembre	2023-09-28T00:00:00	2024-11-08T08:00:00	1	Precipitación	0
63100	7	Sololá	710	Panajachel	8	Panajachel	9	Septiembre	2023-09-28T00:00:00	2024-11-08T08:00:00	8	Radiación solar	294
63101	7	Sololá	710	Panajachel	8	Panajachel	9	Septiembre	2023-09-28T00:00:00	2024-11-08T09:00:00	2	Temperatura media	22
63102	7	Sololá	710	Panajachel	8	Panajachel	9	Septiembre	2023-09-28T00:00:00	2024-11-08T09:00:00	4	Temperatura máxima	22.1
63103	7	Sololá	710	Panajachel	8	Panajachel	9	Septiembre	2023-09-28T00:00:00	2024-11-08T09:00:00	3	Temperatura mínima	21.2
63104	7	Sololá	710	Panajachel	8	Panajachel	9	Septiembre	2023-09-28T00:00:00	2024-11-08T09:00:00	5	Humedad	78
63105	7	Sololá	710	Panajachel	8	Panajachel	9	Septiembre	2023-09-28T00:00:00	2024-11-08T09:00:00	6	Velocidad del viento	0
63106	7	Sololá	710	Panajachel	8	Panajachel	9	Septiembre	2023-09-28T00:00:00	2024-11-08T09:00:00	7	Dirección del viento	0
63107	7	Sololá	710	Panajachel	8	Panajachel	9	Septiembre	2023-09-28T00:00:00	2024-11-08T09:00:00	1	Precipitación	0
63108	7	Sololá	710	Panajachel	8	Panajachel	9	Septiembre	2023-09-28T00:00:00	2024-11-08T09:00:00	8	Radiación solar	498
63109	7	Sololá	710	Panajachel	8	Panajachel	9	Septiembre	2023-09-28T00:00:00	2024-11-08T10:00:00	2	Temperatura media	22.2
63110	7	Sololá	710	Panajachel	8	Panajachel	9	Septiembre	2023-09-28T00:00:00	2024-11-08T10:00:00	4	Temperatura máxima	23.2
63111	7	Sololá	710	Panajachel	8	Panajachel	9	Septiembre	2023-09-28T00:00:00	2024-11-08T10:00:00	3	Temperatura mínima	21.9
63112	7	Sololá	710	Panajachel	8	Panajachel	9	Septiembre	2023-09-28T00:00:00	2024-11-08T10:00:00	5	Humedad	84
63113	7	Sololá	710	Panajachel	8	Panajachel	9	Septiembre	2023-09-28T00:00:00	2024-11-08T10:00:00	6	Velocidad del viento	4.8
63114	7	Sololá	710	Panajachel	8	Panajachel	9	Septiembre	2023-09-28T00:00:00	2024-11-08T10:00:00	7	Dirección del viento	4.83
63115	7	Sololá	710	Panajachel	8	Panajachel	9	Septiembre	2023-09-28T00:00:00	2024-11-08T10:00:00	1	Precipitación	0
63116	7	Sololá	710	Panajachel	8	Panajachel	9	Septiembre	2023-09-28T00:00:00	2024-11-08T10:00:00	8	Radiación solar	706
63117	7	Sololá	710	Panajachel	8	Panajachel	9	Septiembre	2023-09-28T00:00:00	2024-11-08T11:00:00	2	Temperatura media	23.6
63118	7	Sololá	710	Panajachel	8	Panajachel	9	Septiembre	2023-09-28T00:00:00	2024-11-08T11:00:00	4	Temperatura máxima	23.7
63119	7	Sololá	710	Panajachel	8	Panajachel	9	Septiembre	2023-09-28T00:00:00	2024-11-08T11:00:00	3	Temperatura mínima	22.2
63120	7	Sololá	710	Panajachel	8	Panajachel	9	Septiembre	2023-09-28T00:00:00	2024-11-08T11:00:00	5	Humedad	79
63121	7	Sololá	710	Panajachel	8	Panajachel	9	Septiembre	2023-09-28T00:00:00	2024-11-08T11:00:00	6	Velocidad del viento	1.6
63122	7	Sololá	710	Panajachel	8	Panajachel	9	Septiembre	2023-09-28T00:00:00	2024-11-08T11:00:00	7	Dirección del viento	1.61
63123	7	Sololá	710	Panajachel	8	Panajachel	9	Septiembre	2023-09-28T00:00:00	2024-11-08T11:00:00	1	Precipitación	0
63124	7	Sololá	710	Panajachel	8	Panajachel	9	Septiembre	2023-09-28T00:00:00	2024-11-08T11:00:00	8	Radiación solar	820
63125	7	Sololá	710	Panajachel	8	Panajachel	9	Septiembre	2023-09-28T00:00:00	2024-11-08T12:00:00	2	Temperatura media	24.3
63126	7	Sololá	710	Panajachel	8	Panajachel	9	Septiembre	2023-09-28T00:00:00	2024-11-08T12:00:00	4	Temperatura máxima	25.1
63127	7	Sololá	710	Panajachel	8	Panajachel	9	Septiembre	2023-09-28T00:00:00	2024-11-08T12:00:00	3	Temperatura mínima	23.7
63128	7	Sololá	710	Panajachel	8	Panajachel	9	Septiembre	2023-09-28T00:00:00	2024-11-08T12:00:00	5	Humedad	77
63129	7	Sololá	710	Panajachel	8	Panajachel	9	Septiembre	2023-09-28T00:00:00	2024-11-08T12:00:00	6	Velocidad del viento	0
63130	7	Sololá	710	Panajachel	8	Panajachel	9	Septiembre	2023-09-28T00:00:00	2024-11-08T12:00:00	7	Dirección del viento	0
63131	7	Sololá	710	Panajachel	8	Panajachel	9	Septiembre	2023-09-28T00:00:00	2024-11-08T12:00:00	1	Precipitación	0
63132	7	Sololá	710	Panajachel	8	Panajachel	9	Septiembre	2023-09-28T00:00:00	2024-11-08T12:00:00	8	Radiación solar	689
63133	7	Sololá	710	Panajachel	8	Panajachel	9	Septiembre	2023-09-28T00:00:00	2024-11-08T13:00:00	2	Temperatura media	25.7
63134	7	Sololá	710	Panajachel	8	Panajachel	9	Septiembre	2023-09-28T00:00:00	2024-11-08T13:00:00	4	Temperatura máxima	25.8
63135	7	Sololá	710	Panajachel	8	Panajachel	9	Septiembre	2023-09-28T00:00:00	2024-11-08T13:00:00	3	Temperatura mínima	24.3
63136	7	Sololá	710	Panajachel	8	Panajachel	9	Septiembre	2023-09-28T00:00:00	2024-11-08T13:00:00	5	Humedad	78
63137	7	Sololá	710	Panajachel	8	Panajachel	9	Septiembre	2023-09-28T00:00:00	2024-11-08T13:00:00	6	Velocidad del viento	1.6
63138	7	Sololá	710	Panajachel	8	Panajachel	9	Septiembre	2023-09-28T00:00:00	2024-11-08T13:00:00	7	Dirección del viento	1.61
63139	7	Sololá	710	Panajachel	8	Panajachel	9	Septiembre	2023-09-28T00:00:00	2024-11-08T13:00:00	1	Precipitación	0
63140	7	Sololá	710	Panajachel	8	Panajachel	9	Septiembre	2023-09-28T00:00:00	2024-11-08T13:00:00	8	Radiación solar	979
63141	7	Sololá	710	Panajachel	8	Panajachel	9	Septiembre	2023-09-28T00:00:00	2024-11-08T14:00:00	2	Temperatura media	23.2
63142	7	Sololá	710	Panajachel	8	Panajachel	9	Septiembre	2023-09-28T00:00:00	2024-11-08T14:00:00	4	Temperatura máxima	25.7
63143	7	Sololá	710	Panajachel	8	Panajachel	9	Septiembre	2023-09-28T00:00:00	2024-11-08T14:00:00	3	Temperatura mínima	23.1
63144	7	Sololá	710	Panajachel	8	Panajachel	9	Septiembre	2023-09-28T00:00:00	2024-11-08T14:00:00	5	Humedad	85
63145	7	Sololá	710	Panajachel	8	Panajachel	9	Septiembre	2023-09-28T00:00:00	2024-11-08T14:00:00	6	Velocidad del viento	1.6
63146	7	Sololá	710	Panajachel	8	Panajachel	9	Septiembre	2023-09-28T00:00:00	2024-11-08T14:00:00	7	Dirección del viento	1.61
63147	7	Sololá	710	Panajachel	8	Panajachel	9	Septiembre	2023-09-28T00:00:00	2024-11-08T14:00:00	1	Precipitación	0
63148	7	Sololá	710	Panajachel	8	Panajachel	9	Septiembre	2023-09-28T00:00:00	2024-11-08T14:00:00	8	Radiación solar	303
63149	7	Sololá	710	Panajachel	8	Panajachel	9	Septiembre	2023-09-28T00:00:00	2024-11-08T15:00:00	2	Temperatura media	20.6
63150	7	Sololá	710	Panajachel	8	Panajachel	9	Septiembre	2023-09-28T00:00:00	2024-11-08T15:00:00	4	Temperatura máxima	23.4
63151	7	Sololá	710	Panajachel	8	Panajachel	9	Septiembre	2023-09-28T00:00:00	2024-11-08T15:00:00	3	Temperatura mínima	20.6
63152	7	Sololá	710	Panajachel	8	Panajachel	9	Septiembre	2023-09-28T00:00:00	2024-11-08T15:00:00	5	Humedad	95
63153	7	Sololá	710	Panajachel	8	Panajachel	9	Septiembre	2023-09-28T00:00:00	2024-11-08T15:00:00	6	Velocidad del viento	1.6
63154	7	Sololá	710	Panajachel	8	Panajachel	9	Septiembre	2023-09-28T00:00:00	2024-11-08T15:00:00	7	Dirección del viento	1.61
63155	7	Sololá	710	Panajachel	8	Panajachel	9	Septiembre	2023-09-28T00:00:00	2024-11-08T15:00:00	1	Precipitación	4.4
63156	7	Sololá	710	Panajachel	8	Panajachel	9	Septiembre	2023-09-28T00:00:00	2024-11-08T15:00:00	8	Radiación solar	61
63157	7	Sololá	710	Panajachel	8	Panajachel	9	Septiembre	2023-09-28T00:00:00	2024-11-08T16:00:00	2	Temperatura media	19.7
63158	7	Sololá	710	Panajachel	8	Panajachel	9	Septiembre	2023-09-28T00:00:00	2024-11-08T16:00:00	4	Temperatura máxima	20.7
63159	7	Sololá	710	Panajachel	8	Panajachel	9	Septiembre	2023-09-28T00:00:00	2024-11-08T16:00:00	3	Temperatura mínima	19.6
63160	7	Sololá	710	Panajachel	8	Panajachel	9	Septiembre	2023-09-28T00:00:00	2024-11-08T16:00:00	5	Humedad	96
63161	7	Sololá	710	Panajachel	8	Panajachel	9	Septiembre	2023-09-28T00:00:00	2024-11-08T16:00:00	6	Velocidad del viento	0
63162	7	Sololá	710	Panajachel	8	Panajachel	9	Septiembre	2023-09-28T00:00:00	2024-11-08T16:00:00	7	Dirección del viento	0
63163	7	Sololá	710	Panajachel	8	Panajachel	9	Septiembre	2023-09-28T00:00:00	2024-11-08T16:00:00	1	Precipitación	2.8
63164	7	Sololá	710	Panajachel	8	Panajachel	9	Septiembre	2023-09-28T00:00:00	2024-11-08T16:00:00	8	Radiación solar	9
63165	7	Sololá	710	Panajachel	8	Panajachel	9	Septiembre	2023-09-28T00:00:00	2024-11-08T17:00:00	2	Temperatura media	19.8
63166	7	Sololá	710	Panajachel	8	Panajachel	9	Septiembre	2023-09-28T00:00:00	2024-11-08T17:00:00	4	Temperatura máxima	19.9
63167	7	Sololá	710	Panajachel	8	Panajachel	9	Septiembre	2023-09-28T00:00:00	2024-11-08T17:00:00	3	Temperatura mínima	19.7
63168	7	Sololá	710	Panajachel	8	Panajachel	9	Septiembre	2023-09-28T00:00:00	2024-11-08T17:00:00	5	Humedad	97
63169	7	Sololá	710	Panajachel	8	Panajachel	9	Septiembre	2023-09-28T00:00:00	2024-11-08T17:00:00	6	Velocidad del viento	0
63170	7	Sololá	710	Panajachel	8	Panajachel	9	Septiembre	2023-09-28T00:00:00	2024-11-08T17:00:00	7	Dirección del viento	0
63171	7	Sololá	710	Panajachel	8	Panajachel	9	Septiembre	2023-09-28T00:00:00	2024-11-08T17:00:00	1	Precipitación	0
63172	7	Sololá	710	Panajachel	8	Panajachel	9	Septiembre	2023-09-28T00:00:00	2024-11-08T17:00:00	8	Radiación solar	11
63173	7	Sololá	710	Panajachel	8	Panajachel	9	Septiembre	2023-09-28T00:00:00	2024-11-08T18:00:00	2	Temperatura media	19.5
63174	7	Sololá	710	Panajachel	8	Panajachel	9	Septiembre	2023-09-28T00:00:00	2024-11-08T18:00:00	4	Temperatura máxima	19.8
63175	7	Sololá	710	Panajachel	8	Panajachel	9	Septiembre	2023-09-28T00:00:00	2024-11-08T18:00:00	3	Temperatura mínima	19.5
63176	7	Sololá	710	Panajachel	8	Panajachel	9	Septiembre	2023-09-28T00:00:00	2024-11-08T18:00:00	5	Humedad	97
63177	7	Sololá	710	Panajachel	8	Panajachel	9	Septiembre	2023-09-28T00:00:00	2024-11-08T18:00:00	6	Velocidad del viento	0
63178	7	Sololá	710	Panajachel	8	Panajachel	9	Septiembre	2023-09-28T00:00:00	2024-11-08T18:00:00	7	Dirección del viento	0
63179	7	Sololá	710	Panajachel	8	Panajachel	9	Septiembre	2023-09-28T00:00:00	2024-11-08T18:00:00	1	Precipitación	0.4
63180	7	Sololá	710	Panajachel	8	Panajachel	9	Septiembre	2023-09-28T00:00:00	2024-11-08T18:00:00	8	Radiación solar	0
63181	7	Sololá	710	Panajachel	8	Panajachel	9	Septiembre	2023-09-28T00:00:00	2024-11-08T19:00:00	2	Temperatura media	19.4
63182	7	Sololá	710	Panajachel	8	Panajachel	9	Septiembre	2023-09-28T00:00:00	2024-11-08T19:00:00	4	Temperatura máxima	19.7
63183	7	Sololá	710	Panajachel	8	Panajachel	9	Septiembre	2023-09-28T00:00:00	2024-11-08T19:00:00	3	Temperatura mínima	19.4
63184	7	Sololá	710	Panajachel	8	Panajachel	9	Septiembre	2023-09-28T00:00:00	2024-11-08T19:00:00	5	Humedad	97
63185	7	Sololá	710	Panajachel	8	Panajachel	9	Septiembre	2023-09-28T00:00:00	2024-11-08T19:00:00	6	Velocidad del viento	0
63186	7	Sololá	710	Panajachel	8	Panajachel	9	Septiembre	2023-09-28T00:00:00	2024-11-08T19:00:00	7	Dirección del viento	0
63187	7	Sololá	710	Panajachel	8	Panajachel	9	Septiembre	2023-09-28T00:00:00	2024-11-08T19:00:00	1	Precipitación	0
63188	7	Sololá	710	Panajachel	8	Panajachel	9	Septiembre	2023-09-28T00:00:00	2024-11-08T19:00:00	8	Radiación solar	0
63189	7	Sololá	710	Panajachel	8	Panajachel	9	Septiembre	2023-09-28T00:00:00	2024-11-08T20:00:00	2	Temperatura media	19.2
63190	7	Sololá	710	Panajachel	8	Panajachel	9	Septiembre	2023-09-28T00:00:00	2024-11-08T20:00:00	4	Temperatura máxima	19.6
63191	7	Sololá	710	Panajachel	8	Panajachel	9	Septiembre	2023-09-28T00:00:00	2024-11-08T20:00:00	3	Temperatura mínima	19.2
63192	7	Sololá	710	Panajachel	8	Panajachel	9	Septiembre	2023-09-28T00:00:00	2024-11-08T20:00:00	5	Humedad	98
63193	7	Sololá	710	Panajachel	8	Panajachel	9	Septiembre	2023-09-28T00:00:00	2024-11-08T20:00:00	6	Velocidad del viento	0
63194	7	Sololá	710	Panajachel	8	Panajachel	9	Septiembre	2023-09-28T00:00:00	2024-11-08T20:00:00	7	Dirección del viento	0
63195	7	Sololá	710	Panajachel	8	Panajachel	9	Septiembre	2023-09-28T00:00:00	2024-11-08T20:00:00	1	Precipitación	0
63196	7	Sololá	710	Panajachel	8	Panajachel	9	Septiembre	2023-09-28T00:00:00	2024-11-08T20:00:00	8	Radiación solar	0
63197	7	Sololá	710	Panajachel	8	Panajachel	9	Septiembre	2023-09-28T00:00:00	2024-11-08T21:00:00	2	Temperatura media	19.1
63198	7	Sololá	710	Panajachel	8	Panajachel	9	Septiembre	2023-09-28T00:00:00	2024-11-08T21:00:00	4	Temperatura máxima	19.2
63199	7	Sololá	710	Panajachel	8	Panajachel	9	Septiembre	2023-09-28T00:00:00	2024-11-08T21:00:00	3	Temperatura mínima	18.9
63200	7	Sololá	710	Panajachel	8	Panajachel	9	Septiembre	2023-09-28T00:00:00	2024-11-08T21:00:00	5	Humedad	97
63201	7	Sololá	710	Panajachel	8	Panajachel	9	Septiembre	2023-09-28T00:00:00	2024-11-08T21:00:00	6	Velocidad del viento	0
63202	7	Sololá	710	Panajachel	8	Panajachel	9	Septiembre	2023-09-28T00:00:00	2024-11-08T21:00:00	7	Dirección del viento	0
63203	7	Sololá	710	Panajachel	8	Panajachel	9	Septiembre	2023-09-28T00:00:00	2024-11-08T21:00:00	1	Precipitación	0
63204	7	Sololá	710	Panajachel	8	Panajachel	9	Septiembre	2023-09-28T00:00:00	2024-11-08T21:00:00	8	Radiación solar	0
63205	7	Sololá	710	Panajachel	8	Panajachel	9	Septiembre	2023-09-28T00:00:00	2024-11-08T22:00:00	2	Temperatura media	18.9
63206	7	Sololá	710	Panajachel	8	Panajachel	9	Septiembre	2023-09-28T00:00:00	2024-11-08T22:00:00	4	Temperatura máxima	19.1
63207	7	Sololá	710	Panajachel	8	Panajachel	9	Septiembre	2023-09-28T00:00:00	2024-11-08T22:00:00	3	Temperatura mínima	18.8
63208	7	Sololá	710	Panajachel	8	Panajachel	9	Septiembre	2023-09-28T00:00:00	2024-11-08T22:00:00	5	Humedad	97
63209	7	Sololá	710	Panajachel	8	Panajachel	9	Septiembre	2023-09-28T00:00:00	2024-11-08T22:00:00	6	Velocidad del viento	0
63210	7	Sololá	710	Panajachel	8	Panajachel	9	Septiembre	2023-09-28T00:00:00	2024-11-08T22:00:00	7	Dirección del viento	0
63211	7	Sololá	710	Panajachel	8	Panajachel	9	Septiembre	2023-09-28T00:00:00	2024-11-08T22:00:00	1	Precipitación	0.2
63212	7	Sololá	710	Panajachel	8	Panajachel	9	Septiembre	2023-09-28T00:00:00	2024-11-08T22:00:00	8	Radiación solar	0
63213	7	Sololá	710	Panajachel	8	Panajachel	9	Septiembre	2023-09-28T00:00:00	2024-11-08T23:00:00	2	Temperatura media	18.7
63214	7	Sololá	710	Panajachel	8	Panajachel	9	Septiembre	2023-09-28T00:00:00	2024-11-08T23:00:00	4	Temperatura máxima	18.9
63215	7	Sololá	710	Panajachel	8	Panajachel	9	Septiembre	2023-09-28T00:00:00	2024-11-08T23:00:00	3	Temperatura mínima	18.7
63216	7	Sololá	710	Panajachel	8	Panajachel	9	Septiembre	2023-09-28T00:00:00	2024-11-08T23:00:00	5	Humedad	97
63217	7	Sololá	710	Panajachel	8	Panajachel	9	Septiembre	2023-09-28T00:00:00	2024-11-08T23:00:00	6	Velocidad del viento	0
63218	7	Sololá	710	Panajachel	8	Panajachel	9	Septiembre	2023-09-28T00:00:00	2024-11-08T23:00:00	7	Dirección del viento	0
63219	7	Sololá	710	Panajachel	8	Panajachel	9	Septiembre	2023-09-28T00:00:00	2024-11-08T23:00:00	1	Precipitación	0
63220	7	Sololá	710	Panajachel	8	Panajachel	9	Septiembre	2023-09-28T00:00:00	2024-11-08T23:00:00	8	Radiación solar	0
63221	7	Sololá	710	Panajachel	8	Panajachel	9	Septiembre	2023-09-29T00:00:00	2024-11-08T00:00:00	2	Temperatura media	18.4
63222	7	Sololá	710	Panajachel	8	Panajachel	9	Septiembre	2023-09-29T00:00:00	2024-11-08T00:00:00	4	Temperatura máxima	18.7
63223	7	Sololá	710	Panajachel	8	Panajachel	9	Septiembre	2023-09-29T00:00:00	2024-11-08T00:00:00	3	Temperatura mínima	18.4
63224	7	Sololá	710	Panajachel	8	Panajachel	9	Septiembre	2023-09-29T00:00:00	2024-11-08T00:00:00	5	Humedad	97
63225	7	Sololá	710	Panajachel	8	Panajachel	9	Septiembre	2023-09-29T00:00:00	2024-11-08T00:00:00	6	Velocidad del viento	0
63226	7	Sololá	710	Panajachel	8	Panajachel	9	Septiembre	2023-09-29T00:00:00	2024-11-08T00:00:00	7	Dirección del viento	0
63227	7	Sololá	710	Panajachel	8	Panajachel	9	Septiembre	2023-09-29T00:00:00	2024-11-08T00:00:00	1	Precipitación	0
63228	7	Sololá	710	Panajachel	8	Panajachel	9	Septiembre	2023-09-29T00:00:00	2024-11-08T00:00:00	8	Radiación solar	0
63229	7	Sololá	710	Panajachel	8	Panajachel	9	Septiembre	2023-09-29T00:00:00	2024-11-08T01:00:00	2	Temperatura media	18.2
63230	7	Sololá	710	Panajachel	8	Panajachel	9	Septiembre	2023-09-29T00:00:00	2024-11-08T01:00:00	4	Temperatura máxima	18.5
63231	7	Sololá	710	Panajachel	8	Panajachel	9	Septiembre	2023-09-29T00:00:00	2024-11-08T01:00:00	3	Temperatura mínima	18.2
63232	7	Sololá	710	Panajachel	8	Panajachel	9	Septiembre	2023-09-29T00:00:00	2024-11-08T01:00:00	5	Humedad	95
63233	7	Sololá	710	Panajachel	8	Panajachel	9	Septiembre	2023-09-29T00:00:00	2024-11-08T01:00:00	6	Velocidad del viento	0
63234	7	Sololá	710	Panajachel	8	Panajachel	9	Septiembre	2023-09-29T00:00:00	2024-11-08T01:00:00	7	Dirección del viento	0
63235	7	Sololá	710	Panajachel	8	Panajachel	9	Septiembre	2023-09-29T00:00:00	2024-11-08T01:00:00	1	Precipitación	0
63236	7	Sololá	710	Panajachel	8	Panajachel	9	Septiembre	2023-09-29T00:00:00	2024-11-08T01:00:00	8	Radiación solar	0
63237	7	Sololá	710	Panajachel	8	Panajachel	9	Septiembre	2023-09-29T00:00:00	2024-11-08T02:00:00	2	Temperatura media	18.2
63238	7	Sololá	710	Panajachel	8	Panajachel	9	Septiembre	2023-09-29T00:00:00	2024-11-08T02:00:00	4	Temperatura máxima	18.2
63239	7	Sololá	710	Panajachel	8	Panajachel	9	Septiembre	2023-09-29T00:00:00	2024-11-08T02:00:00	3	Temperatura mínima	18.1
63240	7	Sololá	710	Panajachel	8	Panajachel	9	Septiembre	2023-09-29T00:00:00	2024-11-08T02:00:00	5	Humedad	92
63241	7	Sololá	710	Panajachel	8	Panajachel	9	Septiembre	2023-09-29T00:00:00	2024-11-08T02:00:00	6	Velocidad del viento	1.6
63242	7	Sololá	710	Panajachel	8	Panajachel	9	Septiembre	2023-09-29T00:00:00	2024-11-08T02:00:00	7	Dirección del viento	1.61
63243	7	Sololá	710	Panajachel	8	Panajachel	9	Septiembre	2023-09-29T00:00:00	2024-11-08T02:00:00	1	Precipitación	0
63244	7	Sololá	710	Panajachel	8	Panajachel	9	Septiembre	2023-09-29T00:00:00	2024-11-08T02:00:00	8	Radiación solar	0
63245	7	Sololá	710	Panajachel	8	Panajachel	9	Septiembre	2023-09-29T00:00:00	2024-11-08T03:00:00	2	Temperatura media	17.8
63246	7	Sololá	710	Panajachel	8	Panajachel	9	Septiembre	2023-09-29T00:00:00	2024-11-08T03:00:00	4	Temperatura máxima	18.2
63247	7	Sololá	710	Panajachel	8	Panajachel	9	Septiembre	2023-09-29T00:00:00	2024-11-08T03:00:00	3	Temperatura mínima	17.8
63248	7	Sololá	710	Panajachel	8	Panajachel	9	Septiembre	2023-09-29T00:00:00	2024-11-08T03:00:00	5	Humedad	94
63249	7	Sololá	710	Panajachel	8	Panajachel	9	Septiembre	2023-09-29T00:00:00	2024-11-08T03:00:00	6	Velocidad del viento	1.6
63250	7	Sololá	710	Panajachel	8	Panajachel	9	Septiembre	2023-09-29T00:00:00	2024-11-08T03:00:00	7	Dirección del viento	1.61
63251	7	Sololá	710	Panajachel	8	Panajachel	9	Septiembre	2023-09-29T00:00:00	2024-11-08T03:00:00	1	Precipitación	0
63252	7	Sololá	710	Panajachel	8	Panajachel	9	Septiembre	2023-09-29T00:00:00	2024-11-08T03:00:00	8	Radiación solar	0
63253	7	Sololá	710	Panajachel	8	Panajachel	9	Septiembre	2023-09-29T00:00:00	2024-11-08T04:00:00	2	Temperatura media	17.8
63254	7	Sololá	710	Panajachel	8	Panajachel	9	Septiembre	2023-09-29T00:00:00	2024-11-08T04:00:00	4	Temperatura máxima	17.9
63255	7	Sololá	710	Panajachel	8	Panajachel	9	Septiembre	2023-09-29T00:00:00	2024-11-08T04:00:00	3	Temperatura mínima	17.8
63256	7	Sololá	710	Panajachel	8	Panajachel	9	Septiembre	2023-09-29T00:00:00	2024-11-08T04:00:00	5	Humedad	93
63257	7	Sololá	710	Panajachel	8	Panajachel	9	Septiembre	2023-09-29T00:00:00	2024-11-08T04:00:00	6	Velocidad del viento	1.6
63258	7	Sololá	710	Panajachel	8	Panajachel	9	Septiembre	2023-09-29T00:00:00	2024-11-08T04:00:00	7	Dirección del viento	1.61
63259	7	Sololá	710	Panajachel	8	Panajachel	9	Septiembre	2023-09-29T00:00:00	2024-11-08T04:00:00	1	Precipitación	0
63260	7	Sololá	710	Panajachel	8	Panajachel	9	Septiembre	2023-09-29T00:00:00	2024-11-08T04:00:00	8	Radiación solar	0
63261	7	Sololá	710	Panajachel	8	Panajachel	9	Septiembre	2023-09-29T00:00:00	2024-11-08T05:00:00	2	Temperatura media	17.8
63262	7	Sololá	710	Panajachel	8	Panajachel	9	Septiembre	2023-09-29T00:00:00	2024-11-08T05:00:00	4	Temperatura máxima	17.9
63263	7	Sololá	710	Panajachel	8	Panajachel	9	Septiembre	2023-09-29T00:00:00	2024-11-08T05:00:00	3	Temperatura mínima	17.7
63264	7	Sololá	710	Panajachel	8	Panajachel	9	Septiembre	2023-09-29T00:00:00	2024-11-08T05:00:00	5	Humedad	93
63265	7	Sololá	710	Panajachel	8	Panajachel	9	Septiembre	2023-09-29T00:00:00	2024-11-08T05:00:00	6	Velocidad del viento	1.6
63266	7	Sololá	710	Panajachel	8	Panajachel	9	Septiembre	2023-09-29T00:00:00	2024-11-08T05:00:00	7	Dirección del viento	1.61
63267	7	Sololá	710	Panajachel	8	Panajachel	9	Septiembre	2023-09-29T00:00:00	2024-11-08T05:00:00	1	Precipitación	0
63268	7	Sololá	710	Panajachel	8	Panajachel	9	Septiembre	2023-09-29T00:00:00	2024-11-08T05:00:00	8	Radiación solar	0
63269	7	Sololá	710	Panajachel	8	Panajachel	9	Septiembre	2023-09-29T00:00:00	2024-11-08T06:00:00	2	Temperatura media	17.6
63270	7	Sololá	710	Panajachel	8	Panajachel	9	Septiembre	2023-09-29T00:00:00	2024-11-08T06:00:00	4	Temperatura máxima	18
63271	7	Sololá	710	Panajachel	8	Panajachel	9	Septiembre	2023-09-29T00:00:00	2024-11-08T06:00:00	3	Temperatura mínima	17.6
63272	7	Sololá	710	Panajachel	8	Panajachel	9	Septiembre	2023-09-29T00:00:00	2024-11-08T06:00:00	5	Humedad	92
63273	7	Sololá	710	Panajachel	8	Panajachel	9	Septiembre	2023-09-29T00:00:00	2024-11-08T06:00:00	6	Velocidad del viento	3.2
63274	7	Sololá	710	Panajachel	8	Panajachel	9	Septiembre	2023-09-29T00:00:00	2024-11-08T06:00:00	7	Dirección del viento	3.22
63275	7	Sololá	710	Panajachel	8	Panajachel	9	Septiembre	2023-09-29T00:00:00	2024-11-08T06:00:00	1	Precipitación	0
63276	7	Sololá	710	Panajachel	8	Panajachel	9	Septiembre	2023-09-29T00:00:00	2024-11-08T06:00:00	8	Radiación solar	0
63277	7	Sololá	710	Panajachel	8	Panajachel	9	Septiembre	2023-09-29T00:00:00	2024-11-08T07:00:00	2	Temperatura media	18.6
63278	7	Sololá	710	Panajachel	8	Panajachel	9	Septiembre	2023-09-29T00:00:00	2024-11-08T07:00:00	4	Temperatura máxima	18.6
63279	7	Sololá	710	Panajachel	8	Panajachel	9	Septiembre	2023-09-29T00:00:00	2024-11-08T07:00:00	3	Temperatura mínima	17.6
63280	7	Sololá	710	Panajachel	8	Panajachel	9	Septiembre	2023-09-29T00:00:00	2024-11-08T07:00:00	5	Humedad	89
63281	7	Sololá	710	Panajachel	8	Panajachel	9	Septiembre	2023-09-29T00:00:00	2024-11-08T07:00:00	6	Velocidad del viento	1.6
63282	7	Sololá	710	Panajachel	8	Panajachel	9	Septiembre	2023-09-29T00:00:00	2024-11-08T07:00:00	7	Dirección del viento	1.61
63283	7	Sololá	710	Panajachel	8	Panajachel	9	Septiembre	2023-09-29T00:00:00	2024-11-08T07:00:00	1	Precipitación	0
63284	7	Sololá	710	Panajachel	8	Panajachel	9	Septiembre	2023-09-29T00:00:00	2024-11-08T07:00:00	8	Radiación solar	47
63285	7	Sololá	710	Panajachel	8	Panajachel	9	Septiembre	2023-09-29T00:00:00	2024-11-08T08:00:00	2	Temperatura media	19.8
63286	7	Sololá	710	Panajachel	8	Panajachel	9	Septiembre	2023-09-29T00:00:00	2024-11-08T08:00:00	4	Temperatura máxima	19.8
63287	7	Sololá	710	Panajachel	8	Panajachel	9	Septiembre	2023-09-29T00:00:00	2024-11-08T08:00:00	3	Temperatura mínima	18.6
63288	7	Sololá	710	Panajachel	8	Panajachel	9	Septiembre	2023-09-29T00:00:00	2024-11-08T08:00:00	5	Humedad	89
63289	7	Sololá	710	Panajachel	8	Panajachel	9	Septiembre	2023-09-29T00:00:00	2024-11-08T08:00:00	6	Velocidad del viento	0
63290	7	Sololá	710	Panajachel	8	Panajachel	9	Septiembre	2023-09-29T00:00:00	2024-11-08T08:00:00	7	Dirección del viento	0
63291	7	Sololá	710	Panajachel	8	Panajachel	9	Septiembre	2023-09-29T00:00:00	2024-11-08T08:00:00	1	Precipitación	0
63292	7	Sololá	710	Panajachel	8	Panajachel	9	Septiembre	2023-09-29T00:00:00	2024-11-08T08:00:00	8	Radiación solar	137
63293	7	Sololá	710	Panajachel	8	Panajachel	9	Septiembre	2023-09-29T00:00:00	2024-11-08T09:00:00	2	Temperatura media	21.2
63294	7	Sololá	710	Panajachel	8	Panajachel	9	Septiembre	2023-09-29T00:00:00	2024-11-08T09:00:00	4	Temperatura máxima	21.3
63295	7	Sololá	710	Panajachel	8	Panajachel	9	Septiembre	2023-09-29T00:00:00	2024-11-08T09:00:00	3	Temperatura mínima	19.8
63296	7	Sololá	710	Panajachel	8	Panajachel	9	Septiembre	2023-09-29T00:00:00	2024-11-08T09:00:00	5	Humedad	83
63297	7	Sololá	710	Panajachel	8	Panajachel	9	Septiembre	2023-09-29T00:00:00	2024-11-08T09:00:00	6	Velocidad del viento	0
63298	7	Sololá	710	Panajachel	8	Panajachel	9	Septiembre	2023-09-29T00:00:00	2024-11-08T09:00:00	7	Dirección del viento	0
63299	7	Sololá	710	Panajachel	8	Panajachel	9	Septiembre	2023-09-29T00:00:00	2024-11-08T09:00:00	1	Precipitación	0
63300	7	Sololá	710	Panajachel	8	Panajachel	9	Septiembre	2023-09-29T00:00:00	2024-11-08T09:00:00	8	Radiación solar	224
63301	7	Sololá	710	Panajachel	8	Panajachel	9	Septiembre	2023-09-29T00:00:00	2024-11-08T10:00:00	2	Temperatura media	22.2
63302	7	Sololá	710	Panajachel	8	Panajachel	9	Septiembre	2023-09-29T00:00:00	2024-11-08T10:00:00	4	Temperatura máxima	22.2
63303	7	Sololá	710	Panajachel	8	Panajachel	9	Septiembre	2023-09-29T00:00:00	2024-11-08T10:00:00	3	Temperatura mínima	21.3
63304	7	Sololá	710	Panajachel	8	Panajachel	9	Septiembre	2023-09-29T00:00:00	2024-11-08T10:00:00	5	Humedad	79
63305	7	Sololá	710	Panajachel	8	Panajachel	9	Septiembre	2023-09-29T00:00:00	2024-11-08T10:00:00	6	Velocidad del viento	1.6
63306	7	Sololá	710	Panajachel	8	Panajachel	9	Septiembre	2023-09-29T00:00:00	2024-11-08T10:00:00	7	Dirección del viento	1.61
63307	7	Sololá	710	Panajachel	8	Panajachel	9	Septiembre	2023-09-29T00:00:00	2024-11-08T10:00:00	1	Precipitación	0
63308	7	Sololá	710	Panajachel	8	Panajachel	9	Septiembre	2023-09-29T00:00:00	2024-11-08T10:00:00	8	Radiación solar	397
63309	7	Sololá	710	Panajachel	8	Panajachel	9	Septiembre	2023-09-29T00:00:00	2024-11-08T11:00:00	2	Temperatura media	22.3
63310	7	Sololá	710	Panajachel	8	Panajachel	9	Septiembre	2023-09-29T00:00:00	2024-11-08T11:00:00	4	Temperatura máxima	22.9
63311	7	Sololá	710	Panajachel	8	Panajachel	9	Septiembre	2023-09-29T00:00:00	2024-11-08T11:00:00	3	Temperatura mínima	22.2
63312	7	Sololá	710	Panajachel	8	Panajachel	9	Septiembre	2023-09-29T00:00:00	2024-11-08T11:00:00	5	Humedad	84
63313	7	Sololá	710	Panajachel	8	Panajachel	9	Septiembre	2023-09-29T00:00:00	2024-11-08T11:00:00	6	Velocidad del viento	3.2
63314	7	Sololá	710	Panajachel	8	Panajachel	9	Septiembre	2023-09-29T00:00:00	2024-11-08T11:00:00	7	Dirección del viento	3.22
63315	7	Sololá	710	Panajachel	8	Panajachel	9	Septiembre	2023-09-29T00:00:00	2024-11-08T11:00:00	1	Precipitación	0
63316	7	Sololá	710	Panajachel	8	Panajachel	9	Septiembre	2023-09-29T00:00:00	2024-11-08T11:00:00	8	Radiación solar	734
63317	7	Sololá	710	Panajachel	8	Panajachel	9	Septiembre	2023-09-29T00:00:00	2024-11-08T12:00:00	2	Temperatura media	22.7
63318	7	Sololá	710	Panajachel	8	Panajachel	9	Septiembre	2023-09-29T00:00:00	2024-11-08T12:00:00	4	Temperatura máxima	22.8
63319	7	Sololá	710	Panajachel	8	Panajachel	9	Septiembre	2023-09-29T00:00:00	2024-11-08T12:00:00	3	Temperatura mínima	22.3
63320	7	Sololá	710	Panajachel	8	Panajachel	9	Septiembre	2023-09-29T00:00:00	2024-11-08T12:00:00	5	Humedad	80
63321	7	Sololá	710	Panajachel	8	Panajachel	9	Septiembre	2023-09-29T00:00:00	2024-11-08T12:00:00	6	Velocidad del viento	0
63322	7	Sololá	710	Panajachel	8	Panajachel	9	Septiembre	2023-09-29T00:00:00	2024-11-08T12:00:00	7	Dirección del viento	0
63323	7	Sololá	710	Panajachel	8	Panajachel	9	Septiembre	2023-09-29T00:00:00	2024-11-08T12:00:00	1	Precipitación	0
63324	7	Sololá	710	Panajachel	8	Panajachel	9	Septiembre	2023-09-29T00:00:00	2024-11-08T12:00:00	8	Radiación solar	334
63325	7	Sololá	710	Panajachel	8	Panajachel	9	Septiembre	2023-09-29T00:00:00	2024-11-08T13:00:00	2	Temperatura media	22.3
63326	7	Sololá	710	Panajachel	8	Panajachel	9	Septiembre	2023-09-29T00:00:00	2024-11-08T13:00:00	4	Temperatura máxima	23.6
63327	7	Sololá	710	Panajachel	8	Panajachel	9	Septiembre	2023-09-29T00:00:00	2024-11-08T13:00:00	3	Temperatura mínima	22.3
63328	7	Sololá	710	Panajachel	8	Panajachel	9	Septiembre	2023-09-29T00:00:00	2024-11-08T13:00:00	5	Humedad	89
63329	7	Sololá	710	Panajachel	8	Panajachel	9	Septiembre	2023-09-29T00:00:00	2024-11-08T13:00:00	6	Velocidad del viento	1.6
63330	7	Sololá	710	Panajachel	8	Panajachel	9	Septiembre	2023-09-29T00:00:00	2024-11-08T13:00:00	7	Dirección del viento	1.61
63331	7	Sololá	710	Panajachel	8	Panajachel	9	Septiembre	2023-09-29T00:00:00	2024-11-08T13:00:00	1	Precipitación	0
63332	7	Sololá	710	Panajachel	8	Panajachel	9	Septiembre	2023-09-29T00:00:00	2024-11-08T13:00:00	8	Radiación solar	180
63333	7	Sololá	710	Panajachel	8	Panajachel	9	Septiembre	2023-09-29T00:00:00	2024-11-08T14:00:00	2	Temperatura media	20.6
63334	7	Sololá	710	Panajachel	8	Panajachel	9	Septiembre	2023-09-29T00:00:00	2024-11-08T14:00:00	4	Temperatura máxima	22.3
63335	7	Sololá	710	Panajachel	8	Panajachel	9	Septiembre	2023-09-29T00:00:00	2024-11-08T14:00:00	3	Temperatura mínima	20.6
63336	7	Sololá	710	Panajachel	8	Panajachel	9	Septiembre	2023-09-29T00:00:00	2024-11-08T14:00:00	5	Humedad	94
63337	7	Sololá	710	Panajachel	8	Panajachel	9	Septiembre	2023-09-29T00:00:00	2024-11-08T14:00:00	6	Velocidad del viento	1.6
63338	7	Sololá	710	Panajachel	8	Panajachel	9	Septiembre	2023-09-29T00:00:00	2024-11-08T14:00:00	7	Dirección del viento	1.61
63339	7	Sololá	710	Panajachel	8	Panajachel	9	Septiembre	2023-09-29T00:00:00	2024-11-08T14:00:00	1	Precipitación	0.6
63340	7	Sololá	710	Panajachel	8	Panajachel	9	Septiembre	2023-09-29T00:00:00	2024-11-08T14:00:00	8	Radiación solar	53
63341	7	Sololá	710	Panajachel	8	Panajachel	9	Septiembre	2023-09-29T00:00:00	2024-11-08T15:00:00	2	Temperatura media	20.8
63342	7	Sololá	710	Panajachel	8	Panajachel	9	Septiembre	2023-09-29T00:00:00	2024-11-08T15:00:00	4	Temperatura máxima	20.8
63343	7	Sololá	710	Panajachel	8	Panajachel	9	Septiembre	2023-09-29T00:00:00	2024-11-08T15:00:00	3	Temperatura mínima	19.9
63344	7	Sololá	710	Panajachel	8	Panajachel	9	Septiembre	2023-09-29T00:00:00	2024-11-08T15:00:00	5	Humedad	93
63345	7	Sololá	710	Panajachel	8	Panajachel	9	Septiembre	2023-09-29T00:00:00	2024-11-08T15:00:00	6	Velocidad del viento	0
63346	7	Sololá	710	Panajachel	8	Panajachel	9	Septiembre	2023-09-29T00:00:00	2024-11-08T15:00:00	7	Dirección del viento	0
63347	7	Sololá	710	Panajachel	8	Panajachel	9	Septiembre	2023-09-29T00:00:00	2024-11-08T15:00:00	1	Precipitación	0.2
63348	7	Sololá	710	Panajachel	8	Panajachel	9	Septiembre	2023-09-29T00:00:00	2024-11-08T15:00:00	8	Radiación solar	75
63349	7	Sololá	710	Panajachel	8	Panajachel	9	Septiembre	2023-09-29T00:00:00	2024-11-08T16:00:00	2	Temperatura media	19.8
63350	7	Sololá	710	Panajachel	8	Panajachel	9	Septiembre	2023-09-29T00:00:00	2024-11-08T16:00:00	4	Temperatura máxima	20.8
63351	7	Sololá	710	Panajachel	8	Panajachel	9	Septiembre	2023-09-29T00:00:00	2024-11-08T16:00:00	3	Temperatura mínima	19.8
63352	7	Sololá	710	Panajachel	8	Panajachel	9	Septiembre	2023-09-29T00:00:00	2024-11-08T16:00:00	5	Humedad	97
63353	7	Sololá	710	Panajachel	8	Panajachel	9	Septiembre	2023-09-29T00:00:00	2024-11-08T16:00:00	6	Velocidad del viento	0
63354	7	Sololá	710	Panajachel	8	Panajachel	9	Septiembre	2023-09-29T00:00:00	2024-11-08T16:00:00	7	Dirección del viento	0
63355	7	Sololá	710	Panajachel	8	Panajachel	9	Septiembre	2023-09-29T00:00:00	2024-11-08T16:00:00	1	Precipitación	4.8
63356	7	Sololá	710	Panajachel	8	Panajachel	9	Septiembre	2023-09-29T00:00:00	2024-11-08T16:00:00	8	Radiación solar	16
63357	7	Sololá	710	Panajachel	8	Panajachel	9	Septiembre	2023-09-29T00:00:00	2024-11-08T17:00:00	2	Temperatura media	20
63358	7	Sololá	710	Panajachel	8	Panajachel	9	Septiembre	2023-09-29T00:00:00	2024-11-08T17:00:00	4	Temperatura máxima	20
63359	7	Sololá	710	Panajachel	8	Panajachel	9	Septiembre	2023-09-29T00:00:00	2024-11-08T17:00:00	3	Temperatura mínima	19.6
63360	7	Sololá	710	Panajachel	8	Panajachel	9	Septiembre	2023-09-29T00:00:00	2024-11-08T17:00:00	5	Humedad	95
63361	7	Sololá	710	Panajachel	8	Panajachel	9	Septiembre	2023-09-29T00:00:00	2024-11-08T17:00:00	6	Velocidad del viento	1.6
63362	7	Sololá	710	Panajachel	8	Panajachel	9	Septiembre	2023-09-29T00:00:00	2024-11-08T17:00:00	7	Dirección del viento	1.61
63363	7	Sololá	710	Panajachel	8	Panajachel	9	Septiembre	2023-09-29T00:00:00	2024-11-08T17:00:00	1	Precipitación	0.2
63364	7	Sololá	710	Panajachel	8	Panajachel	9	Septiembre	2023-09-29T00:00:00	2024-11-08T17:00:00	8	Radiación solar	0
63365	7	Sololá	710	Panajachel	8	Panajachel	9	Septiembre	2023-09-29T00:00:00	2024-11-08T18:00:00	2	Temperatura media	19.6
63366	7	Sololá	710	Panajachel	8	Panajachel	9	Septiembre	2023-09-29T00:00:00	2024-11-08T18:00:00	4	Temperatura máxima	20.2
63367	7	Sololá	710	Panajachel	8	Panajachel	9	Septiembre	2023-09-29T00:00:00	2024-11-08T18:00:00	3	Temperatura mínima	19.5
63368	7	Sololá	710	Panajachel	8	Panajachel	9	Septiembre	2023-09-29T00:00:00	2024-11-08T18:00:00	5	Humedad	93
63369	7	Sololá	710	Panajachel	8	Panajachel	9	Septiembre	2023-09-29T00:00:00	2024-11-08T18:00:00	6	Velocidad del viento	1.6
63370	7	Sololá	710	Panajachel	8	Panajachel	9	Septiembre	2023-09-29T00:00:00	2024-11-08T18:00:00	7	Dirección del viento	1.61
63371	7	Sololá	710	Panajachel	8	Panajachel	9	Septiembre	2023-09-29T00:00:00	2024-11-08T18:00:00	1	Precipitación	0
63372	7	Sololá	710	Panajachel	8	Panajachel	9	Septiembre	2023-09-29T00:00:00	2024-11-08T18:00:00	8	Radiación solar	0
63373	7	Sololá	710	Panajachel	8	Panajachel	9	Septiembre	2023-09-29T00:00:00	2024-11-08T19:00:00	2	Temperatura media	18.9
63374	7	Sololá	710	Panajachel	8	Panajachel	9	Septiembre	2023-09-29T00:00:00	2024-11-08T19:00:00	4	Temperatura máxima	19.5
63375	7	Sololá	710	Panajachel	8	Panajachel	9	Septiembre	2023-09-29T00:00:00	2024-11-08T19:00:00	3	Temperatura mínima	18.9
63376	7	Sololá	710	Panajachel	8	Panajachel	9	Septiembre	2023-09-29T00:00:00	2024-11-08T19:00:00	5	Humedad	95
63377	7	Sololá	710	Panajachel	8	Panajachel	9	Septiembre	2023-09-29T00:00:00	2024-11-08T19:00:00	6	Velocidad del viento	0
63378	7	Sololá	710	Panajachel	8	Panajachel	9	Septiembre	2023-09-29T00:00:00	2024-11-08T19:00:00	7	Dirección del viento	0
63379	7	Sololá	710	Panajachel	8	Panajachel	9	Septiembre	2023-09-29T00:00:00	2024-11-08T19:00:00	1	Precipitación	0
63380	7	Sololá	710	Panajachel	8	Panajachel	9	Septiembre	2023-09-29T00:00:00	2024-11-08T19:00:00	8	Radiación solar	0
63381	7	Sololá	710	Panajachel	8	Panajachel	9	Septiembre	2023-09-29T00:00:00	2024-11-08T20:00:00	2	Temperatura media	18.6
63382	7	Sololá	710	Panajachel	8	Panajachel	9	Septiembre	2023-09-29T00:00:00	2024-11-08T20:00:00	4	Temperatura máxima	18.9
63383	7	Sololá	710	Panajachel	8	Panajachel	9	Septiembre	2023-09-29T00:00:00	2024-11-08T20:00:00	3	Temperatura mínima	18.6
63384	7	Sololá	710	Panajachel	8	Panajachel	9	Septiembre	2023-09-29T00:00:00	2024-11-08T20:00:00	5	Humedad	97
63385	7	Sololá	710	Panajachel	8	Panajachel	9	Septiembre	2023-09-29T00:00:00	2024-11-08T20:00:00	6	Velocidad del viento	0
63386	7	Sololá	710	Panajachel	8	Panajachel	9	Septiembre	2023-09-29T00:00:00	2024-11-08T20:00:00	7	Dirección del viento	0
63387	7	Sololá	710	Panajachel	8	Panajachel	9	Septiembre	2023-09-29T00:00:00	2024-11-08T20:00:00	1	Precipitación	0.4
63388	7	Sololá	710	Panajachel	8	Panajachel	9	Septiembre	2023-09-29T00:00:00	2024-11-08T20:00:00	8	Radiación solar	0
63389	7	Sololá	710	Panajachel	8	Panajachel	9	Septiembre	2023-09-29T00:00:00	2024-11-08T21:00:00	2	Temperatura media	18.6
63390	7	Sololá	710	Panajachel	8	Panajachel	9	Septiembre	2023-09-29T00:00:00	2024-11-08T21:00:00	4	Temperatura máxima	18.6
63391	7	Sololá	710	Panajachel	8	Panajachel	9	Septiembre	2023-09-29T00:00:00	2024-11-08T21:00:00	3	Temperatura mínima	18.5
63392	7	Sololá	710	Panajachel	8	Panajachel	9	Septiembre	2023-09-29T00:00:00	2024-11-08T21:00:00	5	Humedad	97
63393	7	Sololá	710	Panajachel	8	Panajachel	9	Septiembre	2023-09-29T00:00:00	2024-11-08T21:00:00	6	Velocidad del viento	0
63394	7	Sololá	710	Panajachel	8	Panajachel	9	Septiembre	2023-09-29T00:00:00	2024-11-08T21:00:00	7	Dirección del viento	0
63395	7	Sololá	710	Panajachel	8	Panajachel	9	Septiembre	2023-09-29T00:00:00	2024-11-08T21:00:00	1	Precipitación	0
63396	7	Sololá	710	Panajachel	8	Panajachel	9	Septiembre	2023-09-29T00:00:00	2024-11-08T21:00:00	8	Radiación solar	0
63397	7	Sololá	710	Panajachel	8	Panajachel	9	Septiembre	2023-09-29T00:00:00	2024-11-08T22:00:00	2	Temperatura media	18.5
63398	7	Sololá	710	Panajachel	8	Panajachel	9	Septiembre	2023-09-29T00:00:00	2024-11-08T22:00:00	4	Temperatura máxima	18.7
63399	7	Sololá	710	Panajachel	8	Panajachel	9	Septiembre	2023-09-29T00:00:00	2024-11-08T22:00:00	3	Temperatura mínima	18.5
63400	7	Sololá	710	Panajachel	8	Panajachel	9	Septiembre	2023-09-29T00:00:00	2024-11-08T22:00:00	5	Humedad	96
63401	7	Sololá	710	Panajachel	8	Panajachel	9	Septiembre	2023-09-29T00:00:00	2024-11-08T22:00:00	6	Velocidad del viento	1.6
63402	7	Sololá	710	Panajachel	8	Panajachel	9	Septiembre	2023-09-29T00:00:00	2024-11-08T22:00:00	7	Dirección del viento	1.61
63403	7	Sololá	710	Panajachel	8	Panajachel	9	Septiembre	2023-09-29T00:00:00	2024-11-08T22:00:00	1	Precipitación	0
63404	7	Sololá	710	Panajachel	8	Panajachel	9	Septiembre	2023-09-29T00:00:00	2024-11-08T22:00:00	8	Radiación solar	0
63405	7	Sololá	710	Panajachel	8	Panajachel	9	Septiembre	2023-09-29T00:00:00	2024-11-08T23:00:00	2	Temperatura media	18.5
63406	7	Sololá	710	Panajachel	8	Panajachel	9	Septiembre	2023-09-29T00:00:00	2024-11-08T23:00:00	4	Temperatura máxima	18.6
63407	7	Sololá	710	Panajachel	8	Panajachel	9	Septiembre	2023-09-29T00:00:00	2024-11-08T23:00:00	3	Temperatura mínima	18.3
63408	7	Sololá	710	Panajachel	8	Panajachel	9	Septiembre	2023-09-29T00:00:00	2024-11-08T23:00:00	5	Humedad	92
63409	7	Sololá	710	Panajachel	8	Panajachel	9	Septiembre	2023-09-29T00:00:00	2024-11-08T23:00:00	6	Velocidad del viento	6.4
63410	7	Sololá	710	Panajachel	8	Panajachel	9	Septiembre	2023-09-29T00:00:00	2024-11-08T23:00:00	7	Dirección del viento	6.44
63411	7	Sololá	710	Panajachel	8	Panajachel	9	Septiembre	2023-09-29T00:00:00	2024-11-08T23:00:00	1	Precipitación	0
63412	7	Sololá	710	Panajachel	8	Panajachel	9	Septiembre	2023-09-29T00:00:00	2024-11-08T23:00:00	8	Radiación solar	0
63413	7	Sololá	710	Panajachel	8	Panajachel	9	Septiembre	2023-09-30T00:00:00	2024-11-08T00:00:00	2	Temperatura media	18.6
63414	7	Sololá	710	Panajachel	8	Panajachel	9	Septiembre	2023-09-30T00:00:00	2024-11-08T00:00:00	4	Temperatura máxima	18.7
63415	7	Sololá	710	Panajachel	8	Panajachel	9	Septiembre	2023-09-30T00:00:00	2024-11-08T00:00:00	3	Temperatura mínima	18.3
63416	7	Sololá	710	Panajachel	8	Panajachel	9	Septiembre	2023-09-30T00:00:00	2024-11-08T00:00:00	5	Humedad	91
63417	7	Sololá	710	Panajachel	8	Panajachel	9	Septiembre	2023-09-30T00:00:00	2024-11-08T00:00:00	6	Velocidad del viento	9.7
63418	7	Sololá	710	Panajachel	8	Panajachel	9	Septiembre	2023-09-30T00:00:00	2024-11-08T00:00:00	7	Dirección del viento	9.66
63419	7	Sololá	710	Panajachel	8	Panajachel	9	Septiembre	2023-09-30T00:00:00	2024-11-08T00:00:00	1	Precipitación	0
63420	7	Sololá	710	Panajachel	8	Panajachel	9	Septiembre	2023-09-30T00:00:00	2024-11-08T00:00:00	8	Radiación solar	0
63421	7	Sololá	710	Panajachel	8	Panajachel	9	Septiembre	2023-09-30T00:00:00	2024-11-08T01:00:00	2	Temperatura media	18.3
63422	7	Sololá	710	Panajachel	8	Panajachel	9	Septiembre	2023-09-30T00:00:00	2024-11-08T01:00:00	4	Temperatura máxima	18.6
63423	7	Sololá	710	Panajachel	8	Panajachel	9	Septiembre	2023-09-30T00:00:00	2024-11-08T01:00:00	3	Temperatura mínima	18.3
63424	7	Sololá	710	Panajachel	8	Panajachel	9	Septiembre	2023-09-30T00:00:00	2024-11-08T01:00:00	5	Humedad	91
63425	7	Sololá	710	Panajachel	8	Panajachel	9	Septiembre	2023-09-30T00:00:00	2024-11-08T01:00:00	6	Velocidad del viento	11.3
63426	7	Sololá	710	Panajachel	8	Panajachel	9	Septiembre	2023-09-30T00:00:00	2024-11-08T01:00:00	7	Dirección del viento	11.27
63427	7	Sololá	710	Panajachel	8	Panajachel	9	Septiembre	2023-09-30T00:00:00	2024-11-08T01:00:00	1	Precipitación	0
63428	7	Sololá	710	Panajachel	8	Panajachel	9	Septiembre	2023-09-30T00:00:00	2024-11-08T01:00:00	8	Radiación solar	0
63429	7	Sololá	710	Panajachel	8	Panajachel	9	Septiembre	2023-09-30T00:00:00	2024-11-08T02:00:00	2	Temperatura media	18
63430	7	Sololá	710	Panajachel	8	Panajachel	9	Septiembre	2023-09-30T00:00:00	2024-11-08T02:00:00	4	Temperatura máxima	18.9
63431	7	Sololá	710	Panajachel	8	Panajachel	9	Septiembre	2023-09-30T00:00:00	2024-11-08T02:00:00	3	Temperatura mínima	18
63432	7	Sololá	710	Panajachel	8	Panajachel	9	Septiembre	2023-09-30T00:00:00	2024-11-08T02:00:00	5	Humedad	91
63433	7	Sololá	710	Panajachel	8	Panajachel	9	Septiembre	2023-09-30T00:00:00	2024-11-08T02:00:00	6	Velocidad del viento	11.3
63434	7	Sololá	710	Panajachel	8	Panajachel	9	Septiembre	2023-09-30T00:00:00	2024-11-08T02:00:00	7	Dirección del viento	11.27
63435	7	Sololá	710	Panajachel	8	Panajachel	9	Septiembre	2023-09-30T00:00:00	2024-11-08T02:00:00	1	Precipitación	0
63436	7	Sololá	710	Panajachel	8	Panajachel	9	Septiembre	2023-09-30T00:00:00	2024-11-08T02:00:00	8	Radiación solar	0
63437	7	Sololá	710	Panajachel	8	Panajachel	9	Septiembre	2023-09-30T00:00:00	2024-11-08T03:00:00	2	Temperatura media	18.3
63438	7	Sololá	710	Panajachel	8	Panajachel	9	Septiembre	2023-09-30T00:00:00	2024-11-08T03:00:00	4	Temperatura máxima	18.4
63439	7	Sololá	710	Panajachel	8	Panajachel	9	Septiembre	2023-09-30T00:00:00	2024-11-08T03:00:00	3	Temperatura mínima	17.9
63440	7	Sololá	710	Panajachel	8	Panajachel	9	Septiembre	2023-09-30T00:00:00	2024-11-08T03:00:00	5	Humedad	88
63441	7	Sololá	710	Panajachel	8	Panajachel	9	Septiembre	2023-09-30T00:00:00	2024-11-08T03:00:00	6	Velocidad del viento	11.3
63442	7	Sololá	710	Panajachel	8	Panajachel	9	Septiembre	2023-09-30T00:00:00	2024-11-08T03:00:00	7	Dirección del viento	11.27
63443	7	Sololá	710	Panajachel	8	Panajachel	9	Septiembre	2023-09-30T00:00:00	2024-11-08T03:00:00	1	Precipitación	0
63444	7	Sololá	710	Panajachel	8	Panajachel	9	Septiembre	2023-09-30T00:00:00	2024-11-08T03:00:00	8	Radiación solar	0
63445	7	Sololá	710	Panajachel	8	Panajachel	9	Septiembre	2023-09-30T00:00:00	2024-11-08T04:00:00	2	Temperatura media	17.7
63446	7	Sololá	710	Panajachel	8	Panajachel	9	Septiembre	2023-09-30T00:00:00	2024-11-08T04:00:00	4	Temperatura máxima	18.3
63447	7	Sololá	710	Panajachel	8	Panajachel	9	Septiembre	2023-09-30T00:00:00	2024-11-08T04:00:00	3	Temperatura mínima	17.7
63448	7	Sololá	710	Panajachel	8	Panajachel	9	Septiembre	2023-09-30T00:00:00	2024-11-08T04:00:00	5	Humedad	89
63449	7	Sololá	710	Panajachel	8	Panajachel	9	Septiembre	2023-09-30T00:00:00	2024-11-08T04:00:00	6	Velocidad del viento	12.9
63450	7	Sololá	710	Panajachel	8	Panajachel	9	Septiembre	2023-09-30T00:00:00	2024-11-08T04:00:00	7	Dirección del viento	12.87
63451	7	Sololá	710	Panajachel	8	Panajachel	9	Septiembre	2023-09-30T00:00:00	2024-11-08T04:00:00	1	Precipitación	0
63452	7	Sololá	710	Panajachel	8	Panajachel	9	Septiembre	2023-09-30T00:00:00	2024-11-08T04:00:00	8	Radiación solar	0
63453	7	Sololá	710	Panajachel	8	Panajachel	9	Septiembre	2023-09-30T00:00:00	2024-11-08T05:00:00	2	Temperatura media	17.4
63454	7	Sololá	710	Panajachel	8	Panajachel	9	Septiembre	2023-09-30T00:00:00	2024-11-08T05:00:00	4	Temperatura máxima	18.1
63455	7	Sololá	710	Panajachel	8	Panajachel	9	Septiembre	2023-09-30T00:00:00	2024-11-08T05:00:00	3	Temperatura mínima	17.4
63456	7	Sololá	710	Panajachel	8	Panajachel	9	Septiembre	2023-09-30T00:00:00	2024-11-08T05:00:00	5	Humedad	88
63457	7	Sololá	710	Panajachel	8	Panajachel	9	Septiembre	2023-09-30T00:00:00	2024-11-08T05:00:00	6	Velocidad del viento	14.5
63458	7	Sololá	710	Panajachel	8	Panajachel	9	Septiembre	2023-09-30T00:00:00	2024-11-08T05:00:00	7	Dirección del viento	14.48
63459	7	Sololá	710	Panajachel	8	Panajachel	9	Septiembre	2023-09-30T00:00:00	2024-11-08T05:00:00	1	Precipitación	0
63460	7	Sololá	710	Panajachel	8	Panajachel	9	Septiembre	2023-09-30T00:00:00	2024-11-08T05:00:00	8	Radiación solar	0
63461	7	Sololá	710	Panajachel	8	Panajachel	9	Septiembre	2023-09-30T00:00:00	2024-11-08T06:00:00	2	Temperatura media	17.3
63462	7	Sololá	710	Panajachel	8	Panajachel	9	Septiembre	2023-09-30T00:00:00	2024-11-08T06:00:00	4	Temperatura máxima	17.9
63463	7	Sololá	710	Panajachel	8	Panajachel	9	Septiembre	2023-09-30T00:00:00	2024-11-08T06:00:00	3	Temperatura mínima	17.1
63464	7	Sololá	710	Panajachel	8	Panajachel	9	Septiembre	2023-09-30T00:00:00	2024-11-08T06:00:00	5	Humedad	90
63465	7	Sololá	710	Panajachel	8	Panajachel	9	Septiembre	2023-09-30T00:00:00	2024-11-08T06:00:00	6	Velocidad del viento	11.3
63466	7	Sololá	710	Panajachel	8	Panajachel	9	Septiembre	2023-09-30T00:00:00	2024-11-08T06:00:00	7	Dirección del viento	11.27
63467	7	Sololá	710	Panajachel	8	Panajachel	9	Septiembre	2023-09-30T00:00:00	2024-11-08T06:00:00	1	Precipitación	0
63468	7	Sololá	710	Panajachel	8	Panajachel	9	Septiembre	2023-09-30T00:00:00	2024-11-08T06:00:00	8	Radiación solar	1
63469	7	Sololá	710	Panajachel	8	Panajachel	9	Septiembre	2023-09-30T00:00:00	2024-11-08T07:00:00	2	Temperatura media	17.9
63470	7	Sololá	710	Panajachel	8	Panajachel	9	Septiembre	2023-09-30T00:00:00	2024-11-08T07:00:00	4	Temperatura máxima	17.9
63471	7	Sololá	710	Panajachel	8	Panajachel	9	Septiembre	2023-09-30T00:00:00	2024-11-08T07:00:00	3	Temperatura mínima	17.2
63472	7	Sololá	710	Panajachel	8	Panajachel	9	Septiembre	2023-09-30T00:00:00	2024-11-08T07:00:00	5	Humedad	91
63473	7	Sololá	710	Panajachel	8	Panajachel	9	Septiembre	2023-09-30T00:00:00	2024-11-08T07:00:00	6	Velocidad del viento	4.8
63474	7	Sololá	710	Panajachel	8	Panajachel	9	Septiembre	2023-09-30T00:00:00	2024-11-08T07:00:00	7	Dirección del viento	4.83
63475	7	Sololá	710	Panajachel	8	Panajachel	9	Septiembre	2023-09-30T00:00:00	2024-11-08T07:00:00	1	Precipitación	0
63476	7	Sololá	710	Panajachel	8	Panajachel	9	Septiembre	2023-09-30T00:00:00	2024-11-08T07:00:00	8	Radiación solar	52
63477	7	Sololá	710	Panajachel	8	Panajachel	9	Septiembre	2023-09-30T00:00:00	2024-11-08T08:00:00	2	Temperatura media	20.9
63478	7	Sololá	710	Panajachel	8	Panajachel	9	Septiembre	2023-09-30T00:00:00	2024-11-08T08:00:00	4	Temperatura máxima	20.9
63479	7	Sololá	710	Panajachel	8	Panajachel	9	Septiembre	2023-09-30T00:00:00	2024-11-08T08:00:00	3	Temperatura mínima	17.9
63480	7	Sololá	710	Panajachel	8	Panajachel	9	Septiembre	2023-09-30T00:00:00	2024-11-08T08:00:00	5	Humedad	79
63481	7	Sololá	710	Panajachel	8	Panajachel	9	Septiembre	2023-09-30T00:00:00	2024-11-08T08:00:00	6	Velocidad del viento	1.6
63482	7	Sololá	710	Panajachel	8	Panajachel	9	Septiembre	2023-09-30T00:00:00	2024-11-08T08:00:00	7	Dirección del viento	1.61
63483	7	Sololá	710	Panajachel	8	Panajachel	9	Septiembre	2023-09-30T00:00:00	2024-11-08T08:00:00	1	Precipitación	0
63484	7	Sololá	710	Panajachel	8	Panajachel	9	Septiembre	2023-09-30T00:00:00	2024-11-08T08:00:00	8	Radiación solar	273
63485	7	Sololá	710	Panajachel	8	Panajachel	9	Septiembre	2023-09-30T00:00:00	2024-11-08T09:00:00	2	Temperatura media	21.9
63486	7	Sololá	710	Panajachel	8	Panajachel	9	Septiembre	2023-09-30T00:00:00	2024-11-08T09:00:00	4	Temperatura máxima	22.1
63487	7	Sololá	710	Panajachel	8	Panajachel	9	Septiembre	2023-09-30T00:00:00	2024-11-08T09:00:00	3	Temperatura mínima	20.9
63488	7	Sololá	710	Panajachel	8	Panajachel	9	Septiembre	2023-09-30T00:00:00	2024-11-08T09:00:00	5	Humedad	84
63489	7	Sololá	710	Panajachel	8	Panajachel	9	Septiembre	2023-09-30T00:00:00	2024-11-08T09:00:00	6	Velocidad del viento	1.6
63490	7	Sololá	710	Panajachel	8	Panajachel	9	Septiembre	2023-09-30T00:00:00	2024-11-08T09:00:00	7	Dirección del viento	1.61
63491	7	Sololá	710	Panajachel	8	Panajachel	9	Septiembre	2023-09-30T00:00:00	2024-11-08T09:00:00	1	Precipitación	0
63492	7	Sololá	710	Panajachel	8	Panajachel	9	Septiembre	2023-09-30T00:00:00	2024-11-08T09:00:00	8	Radiación solar	492
63493	7	Sololá	710	Panajachel	8	Panajachel	9	Septiembre	2023-09-30T00:00:00	2024-11-08T10:00:00	2	Temperatura media	23.2
63494	7	Sololá	710	Panajachel	8	Panajachel	9	Septiembre	2023-09-30T00:00:00	2024-11-08T10:00:00	4	Temperatura máxima	23.3
63495	7	Sololá	710	Panajachel	8	Panajachel	9	Septiembre	2023-09-30T00:00:00	2024-11-08T10:00:00	3	Temperatura mínima	21.9
63496	7	Sololá	710	Panajachel	8	Panajachel	9	Septiembre	2023-09-30T00:00:00	2024-11-08T10:00:00	5	Humedad	79
63497	7	Sololá	710	Panajachel	8	Panajachel	9	Septiembre	2023-09-30T00:00:00	2024-11-08T10:00:00	6	Velocidad del viento	1.6
63498	7	Sololá	710	Panajachel	8	Panajachel	9	Septiembre	2023-09-30T00:00:00	2024-11-08T10:00:00	7	Dirección del viento	1.61
63499	7	Sololá	710	Panajachel	8	Panajachel	9	Septiembre	2023-09-30T00:00:00	2024-11-08T10:00:00	1	Precipitación	0
63500	7	Sololá	710	Panajachel	8	Panajachel	9	Septiembre	2023-09-30T00:00:00	2024-11-08T10:00:00	8	Radiación solar	668
63501	7	Sololá	710	Panajachel	8	Panajachel	9	Septiembre	2023-09-30T00:00:00	2024-11-08T11:00:00	2	Temperatura media	23.6
63502	7	Sololá	710	Panajachel	8	Panajachel	9	Septiembre	2023-09-30T00:00:00	2024-11-08T11:00:00	4	Temperatura máxima	23.6
63503	7	Sololá	710	Panajachel	8	Panajachel	9	Septiembre	2023-09-30T00:00:00	2024-11-08T11:00:00	3	Temperatura mínima	22.7
63504	7	Sololá	710	Panajachel	8	Panajachel	9	Septiembre	2023-09-30T00:00:00	2024-11-08T11:00:00	5	Humedad	79
63505	7	Sololá	710	Panajachel	8	Panajachel	9	Septiembre	2023-09-30T00:00:00	2024-11-08T11:00:00	6	Velocidad del viento	0
63506	7	Sololá	710	Panajachel	8	Panajachel	9	Septiembre	2023-09-30T00:00:00	2024-11-08T11:00:00	7	Dirección del viento	0
63507	7	Sololá	710	Panajachel	8	Panajachel	9	Septiembre	2023-09-30T00:00:00	2024-11-08T11:00:00	1	Precipitación	0
63508	7	Sololá	710	Panajachel	8	Panajachel	9	Septiembre	2023-09-30T00:00:00	2024-11-08T11:00:00	8	Radiación solar	544
63509	7	Sololá	710	Panajachel	8	Panajachel	9	Septiembre	2023-09-30T00:00:00	2024-11-08T12:00:00	2	Temperatura media	23.4
63510	7	Sololá	710	Panajachel	8	Panajachel	9	Septiembre	2023-09-30T00:00:00	2024-11-08T12:00:00	4	Temperatura máxima	24.2
63511	7	Sololá	710	Panajachel	8	Panajachel	9	Septiembre	2023-09-30T00:00:00	2024-11-08T12:00:00	3	Temperatura mínima	23.4
63512	7	Sololá	710	Panajachel	8	Panajachel	9	Septiembre	2023-09-30T00:00:00	2024-11-08T12:00:00	5	Humedad	83
63513	7	Sololá	710	Panajachel	8	Panajachel	9	Septiembre	2023-09-30T00:00:00	2024-11-08T12:00:00	6	Velocidad del viento	3.2
63514	7	Sololá	710	Panajachel	8	Panajachel	9	Septiembre	2023-09-30T00:00:00	2024-11-08T12:00:00	7	Dirección del viento	3.22
63515	7	Sololá	710	Panajachel	8	Panajachel	9	Septiembre	2023-09-30T00:00:00	2024-11-08T12:00:00	1	Precipitación	0
63516	7	Sololá	710	Panajachel	8	Panajachel	9	Septiembre	2023-09-30T00:00:00	2024-11-08T12:00:00	8	Radiación solar	852
63517	7	Sololá	710	Panajachel	8	Panajachel	9	Septiembre	2023-09-30T00:00:00	2024-11-08T13:00:00	2	Temperatura media	24.8
63518	7	Sololá	710	Panajachel	8	Panajachel	9	Septiembre	2023-09-30T00:00:00	2024-11-08T13:00:00	4	Temperatura máxima	24.8
63519	7	Sololá	710	Panajachel	8	Panajachel	9	Septiembre	2023-09-30T00:00:00	2024-11-08T13:00:00	3	Temperatura mínima	23.4
63520	7	Sololá	710	Panajachel	8	Panajachel	9	Septiembre	2023-09-30T00:00:00	2024-11-08T13:00:00	5	Humedad	80
63521	7	Sololá	710	Panajachel	8	Panajachel	9	Septiembre	2023-09-30T00:00:00	2024-11-08T13:00:00	6	Velocidad del viento	3.2
63522	7	Sololá	710	Panajachel	8	Panajachel	9	Septiembre	2023-09-30T00:00:00	2024-11-08T13:00:00	7	Dirección del viento	3.22
63523	7	Sololá	710	Panajachel	8	Panajachel	9	Septiembre	2023-09-30T00:00:00	2024-11-08T13:00:00	1	Precipitación	0
63524	7	Sololá	710	Panajachel	8	Panajachel	9	Septiembre	2023-09-30T00:00:00	2024-11-08T13:00:00	8	Radiación solar	611
63525	7	Sololá	710	Panajachel	8	Panajachel	9	Septiembre	2023-09-30T00:00:00	2024-11-08T14:00:00	2	Temperatura media	22.6
63526	7	Sololá	710	Panajachel	8	Panajachel	9	Septiembre	2023-09-30T00:00:00	2024-11-08T14:00:00	4	Temperatura máxima	24.8
63527	7	Sololá	710	Panajachel	8	Panajachel	9	Septiembre	2023-09-30T00:00:00	2024-11-08T14:00:00	3	Temperatura mínima	22.6
63528	7	Sololá	710	Panajachel	8	Panajachel	9	Septiembre	2023-09-30T00:00:00	2024-11-08T14:00:00	5	Humedad	89
63529	7	Sololá	710	Panajachel	8	Panajachel	9	Septiembre	2023-09-30T00:00:00	2024-11-08T14:00:00	6	Velocidad del viento	3.2
63530	7	Sololá	710	Panajachel	8	Panajachel	9	Septiembre	2023-09-30T00:00:00	2024-11-08T14:00:00	7	Dirección del viento	3.22
63531	7	Sololá	710	Panajachel	8	Panajachel	9	Septiembre	2023-09-30T00:00:00	2024-11-08T14:00:00	1	Precipitación	0
63532	7	Sololá	710	Panajachel	8	Panajachel	9	Septiembre	2023-09-30T00:00:00	2024-11-08T14:00:00	8	Radiación solar	237
63533	7	Sololá	710	Panajachel	8	Panajachel	9	Septiembre	2023-09-30T00:00:00	2024-11-08T15:00:00	2	Temperatura media	21.2
63534	7	Sololá	710	Panajachel	8	Panajachel	9	Septiembre	2023-09-30T00:00:00	2024-11-08T15:00:00	4	Temperatura máxima	22.6
63535	7	Sololá	710	Panajachel	8	Panajachel	9	Septiembre	2023-09-30T00:00:00	2024-11-08T15:00:00	3	Temperatura mínima	21.1
63536	7	Sololá	710	Panajachel	8	Panajachel	9	Septiembre	2023-09-30T00:00:00	2024-11-08T15:00:00	5	Humedad	96
63537	7	Sololá	710	Panajachel	8	Panajachel	9	Septiembre	2023-09-30T00:00:00	2024-11-08T15:00:00	6	Velocidad del viento	0
63538	7	Sololá	710	Panajachel	8	Panajachel	9	Septiembre	2023-09-30T00:00:00	2024-11-08T15:00:00	7	Dirección del viento	0
63539	7	Sololá	710	Panajachel	8	Panajachel	9	Septiembre	2023-09-30T00:00:00	2024-11-08T15:00:00	1	Precipitación	3.8
63540	7	Sololá	710	Panajachel	8	Panajachel	9	Septiembre	2023-09-30T00:00:00	2024-11-08T15:00:00	8	Radiación solar	39
63541	7	Sololá	710	Panajachel	8	Panajachel	9	Septiembre	2023-09-30T00:00:00	2024-11-08T16:00:00	2	Temperatura media	21.1
63542	7	Sololá	710	Panajachel	8	Panajachel	9	Septiembre	2023-09-30T00:00:00	2024-11-08T16:00:00	4	Temperatura máxima	21.2
63543	7	Sololá	710	Panajachel	8	Panajachel	9	Septiembre	2023-09-30T00:00:00	2024-11-08T16:00:00	3	Temperatura mínima	20.9
63544	7	Sololá	710	Panajachel	8	Panajachel	9	Septiembre	2023-09-30T00:00:00	2024-11-08T16:00:00	5	Humedad	93
63545	7	Sololá	710	Panajachel	8	Panajachel	9	Septiembre	2023-09-30T00:00:00	2024-11-08T16:00:00	6	Velocidad del viento	0
63546	7	Sololá	710	Panajachel	8	Panajachel	9	Septiembre	2023-09-30T00:00:00	2024-11-08T16:00:00	7	Dirección del viento	0
63547	7	Sololá	710	Panajachel	8	Panajachel	9	Septiembre	2023-09-30T00:00:00	2024-11-08T16:00:00	1	Precipitación	0
63548	7	Sololá	710	Panajachel	8	Panajachel	9	Septiembre	2023-09-30T00:00:00	2024-11-08T16:00:00	8	Radiación solar	63
63549	7	Sololá	710	Panajachel	8	Panajachel	9	Septiembre	2023-09-30T00:00:00	2024-11-08T17:00:00	2	Temperatura media	21.5
63550	7	Sololá	710	Panajachel	8	Panajachel	9	Septiembre	2023-09-30T00:00:00	2024-11-08T17:00:00	4	Temperatura máxima	21.6
63551	7	Sololá	710	Panajachel	8	Panajachel	9	Septiembre	2023-09-30T00:00:00	2024-11-08T17:00:00	3	Temperatura mínima	21
63552	7	Sololá	710	Panajachel	8	Panajachel	9	Septiembre	2023-09-30T00:00:00	2024-11-08T17:00:00	5	Humedad	92
63553	7	Sololá	710	Panajachel	8	Panajachel	9	Septiembre	2023-09-30T00:00:00	2024-11-08T17:00:00	6	Velocidad del viento	0
63554	7	Sololá	710	Panajachel	8	Panajachel	9	Septiembre	2023-09-30T00:00:00	2024-11-08T17:00:00	7	Dirección del viento	0
63555	7	Sololá	710	Panajachel	8	Panajachel	9	Septiembre	2023-09-30T00:00:00	2024-11-08T17:00:00	1	Precipitación	0
63556	7	Sololá	710	Panajachel	8	Panajachel	9	Septiembre	2023-09-30T00:00:00	2024-11-08T17:00:00	8	Radiación solar	107
63557	7	Sololá	710	Panajachel	8	Panajachel	9	Septiembre	2023-09-30T00:00:00	2024-11-08T18:00:00	2	Temperatura media	21.4
63558	7	Sololá	710	Panajachel	8	Panajachel	9	Septiembre	2023-09-30T00:00:00	2024-11-08T18:00:00	4	Temperatura máxima	21.6
63559	7	Sololá	710	Panajachel	8	Panajachel	9	Septiembre	2023-09-30T00:00:00	2024-11-08T18:00:00	3	Temperatura mínima	21.3
63560	7	Sololá	710	Panajachel	8	Panajachel	9	Septiembre	2023-09-30T00:00:00	2024-11-08T18:00:00	5	Humedad	90
63561	7	Sololá	710	Panajachel	8	Panajachel	9	Septiembre	2023-09-30T00:00:00	2024-11-08T18:00:00	6	Velocidad del viento	3.2
63562	7	Sololá	710	Panajachel	8	Panajachel	9	Septiembre	2023-09-30T00:00:00	2024-11-08T18:00:00	7	Dirección del viento	3.22
63563	7	Sololá	710	Panajachel	8	Panajachel	9	Septiembre	2023-09-30T00:00:00	2024-11-08T18:00:00	1	Precipitación	0
63564	7	Sololá	710	Panajachel	8	Panajachel	9	Septiembre	2023-09-30T00:00:00	2024-11-08T18:00:00	8	Radiación solar	14
63565	7	Sololá	710	Panajachel	8	Panajachel	9	Septiembre	2023-09-30T00:00:00	2024-11-08T19:00:00	2	Temperatura media	21.2
63566	7	Sololá	710	Panajachel	8	Panajachel	9	Septiembre	2023-09-30T00:00:00	2024-11-08T19:00:00	4	Temperatura máxima	21.6
63567	7	Sololá	710	Panajachel	8	Panajachel	9	Septiembre	2023-09-30T00:00:00	2024-11-08T19:00:00	3	Temperatura mínima	21.1
63568	7	Sololá	710	Panajachel	8	Panajachel	9	Septiembre	2023-09-30T00:00:00	2024-11-08T19:00:00	5	Humedad	92
63569	7	Sololá	710	Panajachel	8	Panajachel	9	Septiembre	2023-09-30T00:00:00	2024-11-08T19:00:00	6	Velocidad del viento	3.2
63570	7	Sololá	710	Panajachel	8	Panajachel	9	Septiembre	2023-09-30T00:00:00	2024-11-08T19:00:00	7	Dirección del viento	3.22
63571	7	Sololá	710	Panajachel	8	Panajachel	9	Septiembre	2023-09-30T00:00:00	2024-11-08T19:00:00	1	Precipitación	0
63572	7	Sololá	710	Panajachel	8	Panajachel	9	Septiembre	2023-09-30T00:00:00	2024-11-08T19:00:00	8	Radiación solar	0
63573	7	Sololá	710	Panajachel	8	Panajachel	9	Septiembre	2023-09-30T00:00:00	2024-11-08T20:00:00	2	Temperatura media	19.8
63574	7	Sololá	710	Panajachel	8	Panajachel	9	Septiembre	2023-09-30T00:00:00	2024-11-08T20:00:00	4	Temperatura máxima	21.2
63575	7	Sololá	710	Panajachel	8	Panajachel	9	Septiembre	2023-09-30T00:00:00	2024-11-08T20:00:00	3	Temperatura mínima	19.7
63576	7	Sololá	710	Panajachel	8	Panajachel	9	Septiembre	2023-09-30T00:00:00	2024-11-08T20:00:00	5	Humedad	96
63577	7	Sololá	710	Panajachel	8	Panajachel	9	Septiembre	2023-09-30T00:00:00	2024-11-08T20:00:00	6	Velocidad del viento	1.6
63578	7	Sololá	710	Panajachel	8	Panajachel	9	Septiembre	2023-09-30T00:00:00	2024-11-08T20:00:00	7	Dirección del viento	1.61
63579	7	Sololá	710	Panajachel	8	Panajachel	9	Septiembre	2023-09-30T00:00:00	2024-11-08T20:00:00	1	Precipitación	0
63580	7	Sololá	710	Panajachel	8	Panajachel	9	Septiembre	2023-09-30T00:00:00	2024-11-08T20:00:00	8	Radiación solar	0
63581	7	Sololá	710	Panajachel	8	Panajachel	9	Septiembre	2023-09-30T00:00:00	2024-11-08T21:00:00	2	Temperatura media	19.7
63582	7	Sololá	710	Panajachel	8	Panajachel	9	Septiembre	2023-09-30T00:00:00	2024-11-08T21:00:00	4	Temperatura máxima	19.8
63583	7	Sololá	710	Panajachel	8	Panajachel	9	Septiembre	2023-09-30T00:00:00	2024-11-08T21:00:00	3	Temperatura mínima	19.7
63584	7	Sololá	710	Panajachel	8	Panajachel	9	Septiembre	2023-09-30T00:00:00	2024-11-08T21:00:00	5	Humedad	96
63585	7	Sololá	710	Panajachel	8	Panajachel	9	Septiembre	2023-09-30T00:00:00	2024-11-08T21:00:00	6	Velocidad del viento	0
63586	7	Sololá	710	Panajachel	8	Panajachel	9	Septiembre	2023-09-30T00:00:00	2024-11-08T21:00:00	7	Dirección del viento	0
63587	7	Sololá	710	Panajachel	8	Panajachel	9	Septiembre	2023-09-30T00:00:00	2024-11-08T21:00:00	1	Precipitación	0
63588	7	Sololá	710	Panajachel	8	Panajachel	9	Septiembre	2023-09-30T00:00:00	2024-11-08T21:00:00	8	Radiación solar	0
63589	7	Sololá	710	Panajachel	8	Panajachel	9	Septiembre	2023-09-30T00:00:00	2024-11-08T22:00:00	2	Temperatura media	18.6
63590	7	Sololá	710	Panajachel	8	Panajachel	9	Septiembre	2023-09-30T00:00:00	2024-11-08T22:00:00	4	Temperatura máxima	19.8
63591	7	Sololá	710	Panajachel	8	Panajachel	9	Septiembre	2023-09-30T00:00:00	2024-11-08T22:00:00	3	Temperatura mínima	18.6
63592	7	Sololá	710	Panajachel	8	Panajachel	9	Septiembre	2023-09-30T00:00:00	2024-11-08T22:00:00	5	Humedad	93
63593	7	Sololá	710	Panajachel	8	Panajachel	9	Septiembre	2023-09-30T00:00:00	2024-11-08T22:00:00	6	Velocidad del viento	0
63594	7	Sololá	710	Panajachel	8	Panajachel	9	Septiembre	2023-09-30T00:00:00	2024-11-08T22:00:00	7	Dirección del viento	0
63595	7	Sololá	710	Panajachel	8	Panajachel	9	Septiembre	2023-09-30T00:00:00	2024-11-08T22:00:00	1	Precipitación	1
63596	7	Sololá	710	Panajachel	8	Panajachel	9	Septiembre	2023-09-30T00:00:00	2024-11-08T22:00:00	8	Radiación solar	0
63597	7	Sololá	710	Panajachel	8	Panajachel	9	Septiembre	2023-09-30T00:00:00	2024-11-08T23:00:00	2	Temperatura media	18.1
63598	7	Sololá	710	Panajachel	8	Panajachel	9	Septiembre	2023-09-30T00:00:00	2024-11-08T23:00:00	4	Temperatura máxima	18.6
63599	7	Sololá	710	Panajachel	8	Panajachel	9	Septiembre	2023-09-30T00:00:00	2024-11-08T23:00:00	3	Temperatura mínima	18.1
63600	7	Sololá	710	Panajachel	8	Panajachel	9	Septiembre	2023-09-30T00:00:00	2024-11-08T23:00:00	5	Humedad	96
63601	7	Sololá	710	Panajachel	8	Panajachel	9	Septiembre	2023-09-30T00:00:00	2024-11-08T23:00:00	6	Velocidad del viento	0
63602	7	Sololá	710	Panajachel	8	Panajachel	9	Septiembre	2023-09-30T00:00:00	2024-11-08T23:00:00	7	Dirección del viento	0
63603	7	Sololá	710	Panajachel	8	Panajachel	9	Septiembre	2023-09-30T00:00:00	2024-11-08T23:00:00	1	Precipitación	0
63604	7	Sololá	710	Panajachel	8	Panajachel	9	Septiembre	2023-09-30T00:00:00	2024-11-08T23:00:00	8	Radiación solar	0
63605	7	Sololá	710	Panajachel	8	Panajachel	10	Octubre	2023-01-10T00:00:00	2024-11-08T00:00:00	2	Temperatura media	18
63606	7	Sololá	710	Panajachel	8	Panajachel	10	Octubre	2023-01-10T00:00:00	2024-11-08T00:00:00	4	Temperatura máxima	18.1
63607	7	Sololá	710	Panajachel	8	Panajachel	10	Octubre	2023-01-10T00:00:00	2024-11-08T00:00:00	3	Temperatura mínima	17.9
63608	7	Sololá	710	Panajachel	8	Panajachel	10	Octubre	2023-01-10T00:00:00	2024-11-08T00:00:00	5	Humedad	96
63609	7	Sololá	710	Panajachel	8	Panajachel	10	Octubre	2023-01-10T00:00:00	2024-11-08T00:00:00	6	Velocidad del viento	1.6
63610	7	Sololá	710	Panajachel	8	Panajachel	10	Octubre	2023-01-10T00:00:00	2024-11-08T00:00:00	7	Dirección del viento	1.61
63611	7	Sololá	710	Panajachel	8	Panajachel	10	Octubre	2023-01-10T00:00:00	2024-11-08T00:00:00	1	Precipitación	0
63612	7	Sololá	710	Panajachel	8	Panajachel	10	Octubre	2023-01-10T00:00:00	2024-11-08T00:00:00	8	Radiación solar	0
63613	7	Sololá	710	Panajachel	8	Panajachel	10	Octubre	2023-01-10T00:00:00	2024-11-08T01:00:00	2	Temperatura media	18.1
63614	7	Sololá	710	Panajachel	8	Panajachel	10	Octubre	2023-01-10T00:00:00	2024-11-08T01:00:00	4	Temperatura máxima	18.1
63615	7	Sololá	710	Panajachel	8	Panajachel	10	Octubre	2023-01-10T00:00:00	2024-11-08T01:00:00	3	Temperatura mínima	18
63616	7	Sololá	710	Panajachel	8	Panajachel	10	Octubre	2023-01-10T00:00:00	2024-11-08T01:00:00	5	Humedad	93
63617	7	Sololá	710	Panajachel	8	Panajachel	10	Octubre	2023-01-10T00:00:00	2024-11-08T01:00:00	6	Velocidad del viento	1.6
63618	7	Sololá	710	Panajachel	8	Panajachel	10	Octubre	2023-01-10T00:00:00	2024-11-08T01:00:00	7	Dirección del viento	1.61
63619	7	Sololá	710	Panajachel	8	Panajachel	10	Octubre	2023-01-10T00:00:00	2024-11-08T01:00:00	1	Precipitación	0
63620	7	Sololá	710	Panajachel	8	Panajachel	10	Octubre	2023-01-10T00:00:00	2024-11-08T01:00:00	8	Radiación solar	0
63621	7	Sololá	710	Panajachel	8	Panajachel	10	Octubre	2023-01-10T00:00:00	2024-11-08T02:00:00	2	Temperatura media	17.6
63622	7	Sololá	710	Panajachel	8	Panajachel	10	Octubre	2023-01-10T00:00:00	2024-11-08T02:00:00	4	Temperatura máxima	18.1
63623	7	Sololá	710	Panajachel	8	Panajachel	10	Octubre	2023-01-10T00:00:00	2024-11-08T02:00:00	3	Temperatura mínima	17.5
63624	7	Sololá	710	Panajachel	8	Panajachel	10	Octubre	2023-01-10T00:00:00	2024-11-08T02:00:00	5	Humedad	93
63625	7	Sololá	710	Panajachel	8	Panajachel	10	Octubre	2023-01-10T00:00:00	2024-11-08T02:00:00	6	Velocidad del viento	0
63626	7	Sololá	710	Panajachel	8	Panajachel	10	Octubre	2023-01-10T00:00:00	2024-11-08T02:00:00	7	Dirección del viento	0
63627	7	Sololá	710	Panajachel	8	Panajachel	10	Octubre	2023-01-10T00:00:00	2024-11-08T02:00:00	1	Precipitación	0
63628	7	Sololá	710	Panajachel	8	Panajachel	10	Octubre	2023-01-10T00:00:00	2024-11-08T02:00:00	8	Radiación solar	0
63629	7	Sololá	710	Panajachel	8	Panajachel	10	Octubre	2023-01-10T00:00:00	2024-11-08T03:00:00	2	Temperatura media	17.2
63630	7	Sololá	710	Panajachel	8	Panajachel	10	Octubre	2023-01-10T00:00:00	2024-11-08T03:00:00	4	Temperatura máxima	17.6
63631	7	Sololá	710	Panajachel	8	Panajachel	10	Octubre	2023-01-10T00:00:00	2024-11-08T03:00:00	3	Temperatura mínima	17.2
63632	7	Sololá	710	Panajachel	8	Panajachel	10	Octubre	2023-01-10T00:00:00	2024-11-08T03:00:00	5	Humedad	93
63633	7	Sololá	710	Panajachel	8	Panajachel	10	Octubre	2023-01-10T00:00:00	2024-11-08T03:00:00	6	Velocidad del viento	0
63634	7	Sololá	710	Panajachel	8	Panajachel	10	Octubre	2023-01-10T00:00:00	2024-11-08T03:00:00	7	Dirección del viento	0
63635	7	Sololá	710	Panajachel	8	Panajachel	10	Octubre	2023-01-10T00:00:00	2024-11-08T03:00:00	1	Precipitación	0
63636	7	Sololá	710	Panajachel	8	Panajachel	10	Octubre	2023-01-10T00:00:00	2024-11-08T03:00:00	8	Radiación solar	0
63637	7	Sololá	710	Panajachel	8	Panajachel	10	Octubre	2023-01-10T00:00:00	2024-11-08T04:00:00	2	Temperatura media	17.9
63638	7	Sololá	710	Panajachel	8	Panajachel	10	Octubre	2023-01-10T00:00:00	2024-11-08T04:00:00	4	Temperatura máxima	17.9
63639	7	Sololá	710	Panajachel	8	Panajachel	10	Octubre	2023-01-10T00:00:00	2024-11-08T04:00:00	3	Temperatura mínima	17.1
63640	7	Sololá	710	Panajachel	8	Panajachel	10	Octubre	2023-01-10T00:00:00	2024-11-08T04:00:00	5	Humedad	88
63641	7	Sololá	710	Panajachel	8	Panajachel	10	Octubre	2023-01-10T00:00:00	2024-11-08T04:00:00	6	Velocidad del viento	0
63642	7	Sololá	710	Panajachel	8	Panajachel	10	Octubre	2023-01-10T00:00:00	2024-11-08T04:00:00	7	Dirección del viento	0
63643	7	Sololá	710	Panajachel	8	Panajachel	10	Octubre	2023-01-10T00:00:00	2024-11-08T04:00:00	1	Precipitación	0
63644	7	Sololá	710	Panajachel	8	Panajachel	10	Octubre	2023-01-10T00:00:00	2024-11-08T04:00:00	8	Radiación solar	0
63645	7	Sololá	710	Panajachel	8	Panajachel	10	Octubre	2023-01-10T00:00:00	2024-11-08T05:00:00	2	Temperatura media	17.2
63646	7	Sololá	710	Panajachel	8	Panajachel	10	Octubre	2023-01-10T00:00:00	2024-11-08T05:00:00	4	Temperatura máxima	18.1
63647	7	Sololá	710	Panajachel	8	Panajachel	10	Octubre	2023-01-10T00:00:00	2024-11-08T05:00:00	3	Temperatura mínima	17.2
63648	7	Sololá	710	Panajachel	8	Panajachel	10	Octubre	2023-01-10T00:00:00	2024-11-08T05:00:00	5	Humedad	90
63649	7	Sololá	710	Panajachel	8	Panajachel	10	Octubre	2023-01-10T00:00:00	2024-11-08T05:00:00	6	Velocidad del viento	0
63650	7	Sololá	710	Panajachel	8	Panajachel	10	Octubre	2023-01-10T00:00:00	2024-11-08T05:00:00	7	Dirección del viento	0
63651	7	Sololá	710	Panajachel	8	Panajachel	10	Octubre	2023-01-10T00:00:00	2024-11-08T05:00:00	1	Precipitación	0
63652	7	Sololá	710	Panajachel	8	Panajachel	10	Octubre	2023-01-10T00:00:00	2024-11-08T05:00:00	8	Radiación solar	0
63653	7	Sololá	710	Panajachel	8	Panajachel	10	Octubre	2023-01-10T00:00:00	2024-11-08T06:00:00	2	Temperatura media	16.6
63654	7	Sololá	710	Panajachel	8	Panajachel	10	Octubre	2023-01-10T00:00:00	2024-11-08T06:00:00	4	Temperatura máxima	17.2
63655	7	Sololá	710	Panajachel	8	Panajachel	10	Octubre	2023-01-10T00:00:00	2024-11-08T06:00:00	3	Temperatura mínima	16.5
63656	7	Sololá	710	Panajachel	8	Panajachel	10	Octubre	2023-01-10T00:00:00	2024-11-08T06:00:00	5	Humedad	91
63657	7	Sololá	710	Panajachel	8	Panajachel	10	Octubre	2023-01-10T00:00:00	2024-11-08T06:00:00	6	Velocidad del viento	0
63658	7	Sololá	710	Panajachel	8	Panajachel	10	Octubre	2023-01-10T00:00:00	2024-11-08T06:00:00	7	Dirección del viento	0
63659	7	Sololá	710	Panajachel	8	Panajachel	10	Octubre	2023-01-10T00:00:00	2024-11-08T06:00:00	1	Precipitación	0
63660	7	Sololá	710	Panajachel	8	Panajachel	10	Octubre	2023-01-10T00:00:00	2024-11-08T06:00:00	8	Radiación solar	0
63661	7	Sololá	710	Panajachel	8	Panajachel	10	Octubre	2023-01-10T00:00:00	2024-11-08T07:00:00	2	Temperatura media	19.2
63662	7	Sololá	710	Panajachel	8	Panajachel	10	Octubre	2023-01-10T00:00:00	2024-11-08T07:00:00	4	Temperatura máxima	19.2
63663	7	Sololá	710	Panajachel	8	Panajachel	10	Octubre	2023-01-10T00:00:00	2024-11-08T07:00:00	3	Temperatura mínima	16.6
63664	7	Sololá	710	Panajachel	8	Panajachel	10	Octubre	2023-01-10T00:00:00	2024-11-08T07:00:00	5	Humedad	83
63665	7	Sololá	710	Panajachel	8	Panajachel	10	Octubre	2023-01-10T00:00:00	2024-11-08T07:00:00	6	Velocidad del viento	0
63666	7	Sololá	710	Panajachel	8	Panajachel	10	Octubre	2023-01-10T00:00:00	2024-11-08T07:00:00	7	Dirección del viento	0
63667	7	Sololá	710	Panajachel	8	Panajachel	10	Octubre	2023-01-10T00:00:00	2024-11-08T07:00:00	1	Precipitación	0
63668	7	Sololá	710	Panajachel	8	Panajachel	10	Octubre	2023-01-10T00:00:00	2024-11-08T07:00:00	8	Radiación solar	61
63669	7	Sololá	710	Panajachel	8	Panajachel	10	Octubre	2023-01-10T00:00:00	2024-11-08T08:00:00	2	Temperatura media	21.4
63670	7	Sololá	710	Panajachel	8	Panajachel	10	Octubre	2023-01-10T00:00:00	2024-11-08T08:00:00	4	Temperatura máxima	21.4
63671	7	Sololá	710	Panajachel	8	Panajachel	10	Octubre	2023-01-10T00:00:00	2024-11-08T08:00:00	3	Temperatura mínima	19.2
63672	7	Sololá	710	Panajachel	8	Panajachel	10	Octubre	2023-01-10T00:00:00	2024-11-08T08:00:00	5	Humedad	78
63673	7	Sololá	710	Panajachel	8	Panajachel	10	Octubre	2023-01-10T00:00:00	2024-11-08T08:00:00	6	Velocidad del viento	0
63674	7	Sololá	710	Panajachel	8	Panajachel	10	Octubre	2023-01-10T00:00:00	2024-11-08T08:00:00	7	Dirección del viento	0
63675	7	Sololá	710	Panajachel	8	Panajachel	10	Octubre	2023-01-10T00:00:00	2024-11-08T08:00:00	1	Precipitación	0
63676	7	Sololá	710	Panajachel	8	Panajachel	10	Octubre	2023-01-10T00:00:00	2024-11-08T08:00:00	8	Radiación solar	307
63677	7	Sololá	710	Panajachel	8	Panajachel	10	Octubre	2023-01-10T00:00:00	2024-11-08T09:00:00	2	Temperatura media	21.6
63678	7	Sololá	710	Panajachel	8	Panajachel	10	Octubre	2023-01-10T00:00:00	2024-11-08T09:00:00	4	Temperatura máxima	21.9
63679	7	Sololá	710	Panajachel	8	Panajachel	10	Octubre	2023-01-10T00:00:00	2024-11-08T09:00:00	3	Temperatura mínima	21.1
63680	7	Sololá	710	Panajachel	8	Panajachel	10	Octubre	2023-01-10T00:00:00	2024-11-08T09:00:00	5	Humedad	80
63681	7	Sololá	710	Panajachel	8	Panajachel	10	Octubre	2023-01-10T00:00:00	2024-11-08T09:00:00	6	Velocidad del viento	3.2
63682	7	Sololá	710	Panajachel	8	Panajachel	10	Octubre	2023-01-10T00:00:00	2024-11-08T09:00:00	7	Dirección del viento	3.22
63683	7	Sololá	710	Panajachel	8	Panajachel	10	Octubre	2023-01-10T00:00:00	2024-11-08T09:00:00	1	Precipitación	0
63684	7	Sololá	710	Panajachel	8	Panajachel	10	Octubre	2023-01-10T00:00:00	2024-11-08T09:00:00	8	Radiación solar	525
63685	7	Sololá	710	Panajachel	8	Panajachel	10	Octubre	2023-01-10T00:00:00	2024-11-08T10:00:00	2	Temperatura media	22.4
63686	7	Sololá	710	Panajachel	8	Panajachel	10	Octubre	2023-01-10T00:00:00	2024-11-08T10:00:00	4	Temperatura máxima	22.4
63687	7	Sololá	710	Panajachel	8	Panajachel	10	Octubre	2023-01-10T00:00:00	2024-11-08T10:00:00	3	Temperatura mínima	21.6
63688	7	Sololá	710	Panajachel	8	Panajachel	10	Octubre	2023-01-10T00:00:00	2024-11-08T10:00:00	5	Humedad	75
63689	7	Sololá	710	Panajachel	8	Panajachel	10	Octubre	2023-01-10T00:00:00	2024-11-08T10:00:00	6	Velocidad del viento	6.4
63690	7	Sololá	710	Panajachel	8	Panajachel	10	Octubre	2023-01-10T00:00:00	2024-11-08T10:00:00	7	Dirección del viento	6.44
63691	7	Sololá	710	Panajachel	8	Panajachel	10	Octubre	2023-01-10T00:00:00	2024-11-08T10:00:00	1	Precipitación	0
63692	7	Sololá	710	Panajachel	8	Panajachel	10	Octubre	2023-01-10T00:00:00	2024-11-08T10:00:00	8	Radiación solar	708
63693	7	Sololá	710	Panajachel	8	Panajachel	10	Octubre	2023-01-10T00:00:00	2024-11-08T11:00:00	2	Temperatura media	23.7
63694	7	Sololá	710	Panajachel	8	Panajachel	10	Octubre	2023-01-10T00:00:00	2024-11-08T11:00:00	4	Temperatura máxima	23.9
63695	7	Sololá	710	Panajachel	8	Panajachel	10	Octubre	2023-01-10T00:00:00	2024-11-08T11:00:00	3	Temperatura mínima	22.4
63696	7	Sololá	710	Panajachel	8	Panajachel	10	Octubre	2023-01-10T00:00:00	2024-11-08T11:00:00	5	Humedad	77
63697	7	Sololá	710	Panajachel	8	Panajachel	10	Octubre	2023-01-10T00:00:00	2024-11-08T11:00:00	6	Velocidad del viento	0
63698	7	Sololá	710	Panajachel	8	Panajachel	10	Octubre	2023-01-10T00:00:00	2024-11-08T11:00:00	7	Dirección del viento	0
63699	7	Sololá	710	Panajachel	8	Panajachel	10	Octubre	2023-01-10T00:00:00	2024-11-08T11:00:00	1	Precipitación	0
63700	7	Sololá	710	Panajachel	8	Panajachel	10	Octubre	2023-01-10T00:00:00	2024-11-08T11:00:00	8	Radiación solar	756
63701	7	Sololá	710	Panajachel	8	Panajachel	10	Octubre	2023-01-10T00:00:00	2024-11-08T12:00:00	2	Temperatura media	23.4
63702	7	Sololá	710	Panajachel	8	Panajachel	10	Octubre	2023-01-10T00:00:00	2024-11-08T12:00:00	4	Temperatura máxima	24.3
63703	7	Sololá	710	Panajachel	8	Panajachel	10	Octubre	2023-01-10T00:00:00	2024-11-08T12:00:00	3	Temperatura mínima	23.2
63704	7	Sololá	710	Panajachel	8	Panajachel	10	Octubre	2023-01-10T00:00:00	2024-11-08T12:00:00	5	Humedad	80
63705	7	Sololá	710	Panajachel	8	Panajachel	10	Octubre	2023-01-10T00:00:00	2024-11-08T12:00:00	6	Velocidad del viento	1.6
63706	7	Sololá	710	Panajachel	8	Panajachel	10	Octubre	2023-01-10T00:00:00	2024-11-08T12:00:00	7	Dirección del viento	1.61
63707	7	Sololá	710	Panajachel	8	Panajachel	10	Octubre	2023-01-10T00:00:00	2024-11-08T12:00:00	1	Precipitación	0
63708	7	Sololá	710	Panajachel	8	Panajachel	10	Octubre	2023-01-10T00:00:00	2024-11-08T12:00:00	8	Radiación solar	556
63709	7	Sololá	710	Panajachel	8	Panajachel	10	Octubre	2023-01-10T00:00:00	2024-11-08T13:00:00	2	Temperatura media	25.1
63710	7	Sololá	710	Panajachel	8	Panajachel	10	Octubre	2023-01-10T00:00:00	2024-11-08T13:00:00	4	Temperatura máxima	25.1
63711	7	Sololá	710	Panajachel	8	Panajachel	10	Octubre	2023-01-10T00:00:00	2024-11-08T13:00:00	3	Temperatura mínima	23.3
63712	7	Sololá	710	Panajachel	8	Panajachel	10	Octubre	2023-01-10T00:00:00	2024-11-08T13:00:00	5	Humedad	81
63713	7	Sololá	710	Panajachel	8	Panajachel	10	Octubre	2023-01-10T00:00:00	2024-11-08T13:00:00	6	Velocidad del viento	1.6
63714	7	Sololá	710	Panajachel	8	Panajachel	10	Octubre	2023-01-10T00:00:00	2024-11-08T13:00:00	7	Dirección del viento	1.61
63715	7	Sololá	710	Panajachel	8	Panajachel	10	Octubre	2023-01-10T00:00:00	2024-11-08T13:00:00	1	Precipitación	0
63716	7	Sololá	710	Panajachel	8	Panajachel	10	Octubre	2023-01-10T00:00:00	2024-11-08T13:00:00	8	Radiación solar	501
63717	7	Sololá	710	Panajachel	8	Panajachel	10	Octubre	2023-01-10T00:00:00	2024-11-08T14:00:00	2	Temperatura media	23.9
63718	7	Sololá	710	Panajachel	8	Panajachel	10	Octubre	2023-01-10T00:00:00	2024-11-08T14:00:00	4	Temperatura máxima	25.6
63719	7	Sololá	710	Panajachel	8	Panajachel	10	Octubre	2023-01-10T00:00:00	2024-11-08T14:00:00	3	Temperatura mínima	23.7
63720	7	Sololá	710	Panajachel	8	Panajachel	10	Octubre	2023-01-10T00:00:00	2024-11-08T14:00:00	5	Humedad	82
63721	7	Sololá	710	Panajachel	8	Panajachel	10	Octubre	2023-01-10T00:00:00	2024-11-08T14:00:00	6	Velocidad del viento	4.8
63722	7	Sololá	710	Panajachel	8	Panajachel	10	Octubre	2023-01-10T00:00:00	2024-11-08T14:00:00	7	Dirección del viento	4.83
63723	7	Sololá	710	Panajachel	8	Panajachel	10	Octubre	2023-01-10T00:00:00	2024-11-08T14:00:00	1	Precipitación	0
63724	7	Sololá	710	Panajachel	8	Panajachel	10	Octubre	2023-01-10T00:00:00	2024-11-08T14:00:00	8	Radiación solar	783
63725	7	Sololá	710	Panajachel	8	Panajachel	10	Octubre	2023-01-10T00:00:00	2024-11-08T15:00:00	2	Temperatura media	22.8
63726	7	Sololá	710	Panajachel	8	Panajachel	10	Octubre	2023-01-10T00:00:00	2024-11-08T15:00:00	4	Temperatura máxima	24.4
63727	7	Sololá	710	Panajachel	8	Panajachel	10	Octubre	2023-01-10T00:00:00	2024-11-08T15:00:00	3	Temperatura mínima	22.8
63728	7	Sololá	710	Panajachel	8	Panajachel	10	Octubre	2023-01-10T00:00:00	2024-11-08T15:00:00	5	Humedad	89
63729	7	Sololá	710	Panajachel	8	Panajachel	10	Octubre	2023-01-10T00:00:00	2024-11-08T15:00:00	6	Velocidad del viento	0
63730	7	Sololá	710	Panajachel	8	Panajachel	10	Octubre	2023-01-10T00:00:00	2024-11-08T15:00:00	7	Dirección del viento	0
63731	7	Sololá	710	Panajachel	8	Panajachel	10	Octubre	2023-01-10T00:00:00	2024-11-08T15:00:00	1	Precipitación	0.2
63732	7	Sololá	710	Panajachel	8	Panajachel	10	Octubre	2023-01-10T00:00:00	2024-11-08T15:00:00	8	Radiación solar	192
63733	7	Sololá	710	Panajachel	8	Panajachel	10	Octubre	2023-01-10T00:00:00	2024-11-08T16:00:00	2	Temperatura media	21.7
63734	7	Sololá	710	Panajachel	8	Panajachel	10	Octubre	2023-01-10T00:00:00	2024-11-08T16:00:00	4	Temperatura máxima	22.8
63735	7	Sololá	710	Panajachel	8	Panajachel	10	Octubre	2023-01-10T00:00:00	2024-11-08T16:00:00	3	Temperatura mínima	21.7
63736	7	Sololá	710	Panajachel	8	Panajachel	10	Octubre	2023-01-10T00:00:00	2024-11-08T16:00:00	5	Humedad	91
63737	7	Sololá	710	Panajachel	8	Panajachel	10	Octubre	2023-01-10T00:00:00	2024-11-08T16:00:00	6	Velocidad del viento	3.2
63738	7	Sololá	710	Panajachel	8	Panajachel	10	Octubre	2023-01-10T00:00:00	2024-11-08T16:00:00	7	Dirección del viento	3.22
63739	7	Sololá	710	Panajachel	8	Panajachel	10	Octubre	2023-01-10T00:00:00	2024-11-08T16:00:00	1	Precipitación	0.2
63740	7	Sololá	710	Panajachel	8	Panajachel	10	Octubre	2023-01-10T00:00:00	2024-11-08T16:00:00	8	Radiación solar	91
63741	7	Sololá	710	Panajachel	8	Panajachel	10	Octubre	2023-01-10T00:00:00	2024-11-08T17:00:00	2	Temperatura media	21.5
63742	7	Sololá	710	Panajachel	8	Panajachel	10	Octubre	2023-01-10T00:00:00	2024-11-08T17:00:00	4	Temperatura máxima	21.8
63743	7	Sololá	710	Panajachel	8	Panajachel	10	Octubre	2023-01-10T00:00:00	2024-11-08T17:00:00	3	Temperatura mínima	21.4
63744	7	Sololá	710	Panajachel	8	Panajachel	10	Octubre	2023-01-10T00:00:00	2024-11-08T17:00:00	5	Humedad	91
63745	7	Sololá	710	Panajachel	8	Panajachel	10	Octubre	2023-01-10T00:00:00	2024-11-08T17:00:00	6	Velocidad del viento	1.6
63746	7	Sololá	710	Panajachel	8	Panajachel	10	Octubre	2023-01-10T00:00:00	2024-11-08T17:00:00	7	Dirección del viento	1.61
63747	7	Sololá	710	Panajachel	8	Panajachel	10	Octubre	2023-01-10T00:00:00	2024-11-08T17:00:00	1	Precipitación	0
63748	7	Sololá	710	Panajachel	8	Panajachel	10	Octubre	2023-01-10T00:00:00	2024-11-08T17:00:00	8	Radiación solar	16
63749	7	Sololá	710	Panajachel	8	Panajachel	10	Octubre	2023-01-10T00:00:00	2024-11-08T18:00:00	2	Temperatura media	20.4
63750	7	Sololá	710	Panajachel	8	Panajachel	10	Octubre	2023-01-10T00:00:00	2024-11-08T18:00:00	4	Temperatura máxima	21.5
63751	7	Sololá	710	Panajachel	8	Panajachel	10	Octubre	2023-01-10T00:00:00	2024-11-08T18:00:00	3	Temperatura mínima	20.4
63752	7	Sololá	710	Panajachel	8	Panajachel	10	Octubre	2023-01-10T00:00:00	2024-11-08T18:00:00	5	Humedad	92
63753	7	Sololá	710	Panajachel	8	Panajachel	10	Octubre	2023-01-10T00:00:00	2024-11-08T18:00:00	6	Velocidad del viento	1.6
63754	7	Sololá	710	Panajachel	8	Panajachel	10	Octubre	2023-01-10T00:00:00	2024-11-08T18:00:00	7	Dirección del viento	1.61
63755	7	Sololá	710	Panajachel	8	Panajachel	10	Octubre	2023-01-10T00:00:00	2024-11-08T18:00:00	1	Precipitación	0
63756	7	Sololá	710	Panajachel	8	Panajachel	10	Octubre	2023-01-10T00:00:00	2024-11-08T18:00:00	8	Radiación solar	3
63757	7	Sololá	710	Panajachel	8	Panajachel	10	Octubre	2023-01-10T00:00:00	2024-11-08T19:00:00	2	Temperatura media	19.8
63758	7	Sololá	710	Panajachel	8	Panajachel	10	Octubre	2023-01-10T00:00:00	2024-11-08T19:00:00	4	Temperatura máxima	20.4
63759	7	Sololá	710	Panajachel	8	Panajachel	10	Octubre	2023-01-10T00:00:00	2024-11-08T19:00:00	3	Temperatura mínima	19.8
63760	7	Sololá	710	Panajachel	8	Panajachel	10	Octubre	2023-01-10T00:00:00	2024-11-08T19:00:00	5	Humedad	93
63761	7	Sololá	710	Panajachel	8	Panajachel	10	Octubre	2023-01-10T00:00:00	2024-11-08T19:00:00	6	Velocidad del viento	1.6
63762	7	Sololá	710	Panajachel	8	Panajachel	10	Octubre	2023-01-10T00:00:00	2024-11-08T19:00:00	7	Dirección del viento	1.61
63763	7	Sololá	710	Panajachel	8	Panajachel	10	Octubre	2023-01-10T00:00:00	2024-11-08T19:00:00	1	Precipitación	0
63764	7	Sololá	710	Panajachel	8	Panajachel	10	Octubre	2023-01-10T00:00:00	2024-11-08T19:00:00	8	Radiación solar	0
63765	7	Sololá	710	Panajachel	8	Panajachel	10	Octubre	2023-01-10T00:00:00	2024-11-08T20:00:00	2	Temperatura media	19.5
63766	7	Sololá	710	Panajachel	8	Panajachel	10	Octubre	2023-01-10T00:00:00	2024-11-08T20:00:00	4	Temperatura máxima	19.8
63767	7	Sololá	710	Panajachel	8	Panajachel	10	Octubre	2023-01-10T00:00:00	2024-11-08T20:00:00	3	Temperatura mínima	19.4
63768	7	Sololá	710	Panajachel	8	Panajachel	10	Octubre	2023-01-10T00:00:00	2024-11-08T20:00:00	5	Humedad	94
63769	7	Sololá	710	Panajachel	8	Panajachel	10	Octubre	2023-01-10T00:00:00	2024-11-08T20:00:00	6	Velocidad del viento	0
63770	7	Sololá	710	Panajachel	8	Panajachel	10	Octubre	2023-01-10T00:00:00	2024-11-08T20:00:00	7	Dirección del viento	0
63771	7	Sololá	710	Panajachel	8	Panajachel	10	Octubre	2023-01-10T00:00:00	2024-11-08T20:00:00	1	Precipitación	0
63772	7	Sololá	710	Panajachel	8	Panajachel	10	Octubre	2023-01-10T00:00:00	2024-11-08T20:00:00	8	Radiación solar	0
63773	7	Sololá	710	Panajachel	8	Panajachel	10	Octubre	2023-01-10T00:00:00	2024-11-08T21:00:00	2	Temperatura media	19.1
63774	7	Sololá	710	Panajachel	8	Panajachel	10	Octubre	2023-01-10T00:00:00	2024-11-08T21:00:00	4	Temperatura máxima	19.6
63775	7	Sololá	710	Panajachel	8	Panajachel	10	Octubre	2023-01-10T00:00:00	2024-11-08T21:00:00	3	Temperatura mínima	19.1
63776	7	Sololá	710	Panajachel	8	Panajachel	10	Octubre	2023-01-10T00:00:00	2024-11-08T21:00:00	5	Humedad	96
63777	7	Sololá	710	Panajachel	8	Panajachel	10	Octubre	2023-01-10T00:00:00	2024-11-08T21:00:00	6	Velocidad del viento	0
63778	7	Sololá	710	Panajachel	8	Panajachel	10	Octubre	2023-01-10T00:00:00	2024-11-08T21:00:00	7	Dirección del viento	0
63779	7	Sololá	710	Panajachel	8	Panajachel	10	Octubre	2023-01-10T00:00:00	2024-11-08T21:00:00	1	Precipitación	1.2
63780	7	Sololá	710	Panajachel	8	Panajachel	10	Octubre	2023-01-10T00:00:00	2024-11-08T21:00:00	8	Radiación solar	0
63781	7	Sololá	710	Panajachel	8	Panajachel	10	Octubre	2023-01-10T00:00:00	2024-11-08T22:00:00	2	Temperatura media	18.9
63782	7	Sololá	710	Panajachel	8	Panajachel	10	Octubre	2023-01-10T00:00:00	2024-11-08T22:00:00	4	Temperatura máxima	19.2
63783	7	Sololá	710	Panajachel	8	Panajachel	10	Octubre	2023-01-10T00:00:00	2024-11-08T22:00:00	3	Temperatura mínima	18.8
63784	7	Sololá	710	Panajachel	8	Panajachel	10	Octubre	2023-01-10T00:00:00	2024-11-08T22:00:00	5	Humedad	97
63785	7	Sololá	710	Panajachel	8	Panajachel	10	Octubre	2023-01-10T00:00:00	2024-11-08T22:00:00	6	Velocidad del viento	0
63786	7	Sololá	710	Panajachel	8	Panajachel	10	Octubre	2023-01-10T00:00:00	2024-11-08T22:00:00	7	Dirección del viento	0
63787	7	Sololá	710	Panajachel	8	Panajachel	10	Octubre	2023-01-10T00:00:00	2024-11-08T22:00:00	1	Precipitación	0
63788	7	Sololá	710	Panajachel	8	Panajachel	10	Octubre	2023-01-10T00:00:00	2024-11-08T22:00:00	8	Radiación solar	0
63789	7	Sololá	710	Panajachel	8	Panajachel	10	Octubre	2023-01-10T00:00:00	2024-11-08T23:00:00	2	Temperatura media	18.8
63790	7	Sololá	710	Panajachel	8	Panajachel	10	Octubre	2023-01-10T00:00:00	2024-11-08T23:00:00	4	Temperatura máxima	18.9
63791	7	Sololá	710	Panajachel	8	Panajachel	10	Octubre	2023-01-10T00:00:00	2024-11-08T23:00:00	3	Temperatura mínima	18.8
63792	7	Sololá	710	Panajachel	8	Panajachel	10	Octubre	2023-01-10T00:00:00	2024-11-08T23:00:00	5	Humedad	97
63793	7	Sololá	710	Panajachel	8	Panajachel	10	Octubre	2023-01-10T00:00:00	2024-11-08T23:00:00	6	Velocidad del viento	0
63794	7	Sololá	710	Panajachel	8	Panajachel	10	Octubre	2023-01-10T00:00:00	2024-11-08T23:00:00	7	Dirección del viento	0
63795	7	Sololá	710	Panajachel	8	Panajachel	10	Octubre	2023-01-10T00:00:00	2024-11-08T23:00:00	1	Precipitación	0
63796	7	Sololá	710	Panajachel	8	Panajachel	10	Octubre	2023-01-10T00:00:00	2024-11-08T23:00:00	8	Radiación solar	0
63797	7	Sololá	710	Panajachel	8	Panajachel	10	Octubre	2023-02-10T00:00:00	2024-11-08T00:00:00	2	Temperatura media	18.7
63798	7	Sololá	710	Panajachel	8	Panajachel	10	Octubre	2023-02-10T00:00:00	2024-11-08T00:00:00	4	Temperatura máxima	18.9
63799	7	Sololá	710	Panajachel	8	Panajachel	10	Octubre	2023-02-10T00:00:00	2024-11-08T00:00:00	3	Temperatura mínima	18.7
63800	7	Sololá	710	Panajachel	8	Panajachel	10	Octubre	2023-02-10T00:00:00	2024-11-08T00:00:00	5	Humedad	97
63801	7	Sololá	710	Panajachel	8	Panajachel	10	Octubre	2023-02-10T00:00:00	2024-11-08T00:00:00	6	Velocidad del viento	0
63802	7	Sololá	710	Panajachel	8	Panajachel	10	Octubre	2023-02-10T00:00:00	2024-11-08T00:00:00	7	Dirección del viento	0
63803	7	Sololá	710	Panajachel	8	Panajachel	10	Octubre	2023-02-10T00:00:00	2024-11-08T00:00:00	1	Precipitación	0
63804	7	Sololá	710	Panajachel	8	Panajachel	10	Octubre	2023-02-10T00:00:00	2024-11-08T00:00:00	8	Radiación solar	0
63805	7	Sololá	710	Panajachel	8	Panajachel	10	Octubre	2023-02-10T00:00:00	2024-11-08T01:00:00	2	Temperatura media	18.4
63806	7	Sololá	710	Panajachel	8	Panajachel	10	Octubre	2023-02-10T00:00:00	2024-11-08T01:00:00	4	Temperatura máxima	18.7
63807	7	Sololá	710	Panajachel	8	Panajachel	10	Octubre	2023-02-10T00:00:00	2024-11-08T01:00:00	3	Temperatura mínima	18.4
63808	7	Sololá	710	Panajachel	8	Panajachel	10	Octubre	2023-02-10T00:00:00	2024-11-08T01:00:00	5	Humedad	97
63809	7	Sololá	710	Panajachel	8	Panajachel	10	Octubre	2023-02-10T00:00:00	2024-11-08T01:00:00	6	Velocidad del viento	0
63810	7	Sololá	710	Panajachel	8	Panajachel	10	Octubre	2023-02-10T00:00:00	2024-11-08T01:00:00	7	Dirección del viento	0
63811	7	Sololá	710	Panajachel	8	Panajachel	10	Octubre	2023-02-10T00:00:00	2024-11-08T01:00:00	1	Precipitación	0
63812	7	Sololá	710	Panajachel	8	Panajachel	10	Octubre	2023-02-10T00:00:00	2024-11-08T01:00:00	8	Radiación solar	0
63813	7	Sololá	710	Panajachel	8	Panajachel	10	Octubre	2023-02-10T00:00:00	2024-11-08T02:00:00	2	Temperatura media	18.2
63814	7	Sololá	710	Panajachel	8	Panajachel	10	Octubre	2023-02-10T00:00:00	2024-11-08T02:00:00	4	Temperatura máxima	18.4
63815	7	Sololá	710	Panajachel	8	Panajachel	10	Octubre	2023-02-10T00:00:00	2024-11-08T02:00:00	3	Temperatura mínima	18.2
63816	7	Sololá	710	Panajachel	8	Panajachel	10	Octubre	2023-02-10T00:00:00	2024-11-08T02:00:00	5	Humedad	95
63817	7	Sololá	710	Panajachel	8	Panajachel	10	Octubre	2023-02-10T00:00:00	2024-11-08T02:00:00	6	Velocidad del viento	0
63818	7	Sololá	710	Panajachel	8	Panajachel	10	Octubre	2023-02-10T00:00:00	2024-11-08T02:00:00	7	Dirección del viento	0
63819	7	Sololá	710	Panajachel	8	Panajachel	10	Octubre	2023-02-10T00:00:00	2024-11-08T02:00:00	1	Precipitación	0
63820	7	Sololá	710	Panajachel	8	Panajachel	10	Octubre	2023-02-10T00:00:00	2024-11-08T02:00:00	8	Radiación solar	0
63821	7	Sololá	710	Panajachel	8	Panajachel	10	Octubre	2023-02-10T00:00:00	2024-11-08T03:00:00	2	Temperatura media	17.9
63822	7	Sololá	710	Panajachel	8	Panajachel	10	Octubre	2023-02-10T00:00:00	2024-11-08T03:00:00	4	Temperatura máxima	18.3
63823	7	Sololá	710	Panajachel	8	Panajachel	10	Octubre	2023-02-10T00:00:00	2024-11-08T03:00:00	3	Temperatura mínima	17.9
63824	7	Sololá	710	Panajachel	8	Panajachel	10	Octubre	2023-02-10T00:00:00	2024-11-08T03:00:00	5	Humedad	94
63825	7	Sololá	710	Panajachel	8	Panajachel	10	Octubre	2023-02-10T00:00:00	2024-11-08T03:00:00	6	Velocidad del viento	1.6
63826	7	Sololá	710	Panajachel	8	Panajachel	10	Octubre	2023-02-10T00:00:00	2024-11-08T03:00:00	7	Dirección del viento	1.61
63827	7	Sololá	710	Panajachel	8	Panajachel	10	Octubre	2023-02-10T00:00:00	2024-11-08T03:00:00	1	Precipitación	0
63828	7	Sololá	710	Panajachel	8	Panajachel	10	Octubre	2023-02-10T00:00:00	2024-11-08T03:00:00	8	Radiación solar	0
63829	7	Sololá	710	Panajachel	8	Panajachel	10	Octubre	2023-02-10T00:00:00	2024-11-08T04:00:00	2	Temperatura media	17.6
63830	7	Sololá	710	Panajachel	8	Panajachel	10	Octubre	2023-02-10T00:00:00	2024-11-08T04:00:00	4	Temperatura máxima	17.9
63831	7	Sololá	710	Panajachel	8	Panajachel	10	Octubre	2023-02-10T00:00:00	2024-11-08T04:00:00	3	Temperatura mínima	17.5
63832	7	Sololá	710	Panajachel	8	Panajachel	10	Octubre	2023-02-10T00:00:00	2024-11-08T04:00:00	5	Humedad	94
63833	7	Sololá	710	Panajachel	8	Panajachel	10	Octubre	2023-02-10T00:00:00	2024-11-08T04:00:00	6	Velocidad del viento	1.6
63834	7	Sololá	710	Panajachel	8	Panajachel	10	Octubre	2023-02-10T00:00:00	2024-11-08T04:00:00	7	Dirección del viento	1.61
63835	7	Sololá	710	Panajachel	8	Panajachel	10	Octubre	2023-02-10T00:00:00	2024-11-08T04:00:00	1	Precipitación	0
63836	7	Sololá	710	Panajachel	8	Panajachel	10	Octubre	2023-02-10T00:00:00	2024-11-08T04:00:00	8	Radiación solar	0
63837	7	Sololá	710	Panajachel	8	Panajachel	10	Octubre	2023-02-10T00:00:00	2024-11-08T05:00:00	2	Temperatura media	17.3
63838	7	Sololá	710	Panajachel	8	Panajachel	10	Octubre	2023-02-10T00:00:00	2024-11-08T05:00:00	4	Temperatura máxima	17.6
63839	7	Sololá	710	Panajachel	8	Panajachel	10	Octubre	2023-02-10T00:00:00	2024-11-08T05:00:00	3	Temperatura mínima	17.2
63840	7	Sololá	710	Panajachel	8	Panajachel	10	Octubre	2023-02-10T00:00:00	2024-11-08T05:00:00	5	Humedad	93
63841	7	Sololá	710	Panajachel	8	Panajachel	10	Octubre	2023-02-10T00:00:00	2024-11-08T05:00:00	6	Velocidad del viento	3.2
63842	7	Sololá	710	Panajachel	8	Panajachel	10	Octubre	2023-02-10T00:00:00	2024-11-08T05:00:00	7	Dirección del viento	3.22
63843	7	Sololá	710	Panajachel	8	Panajachel	10	Octubre	2023-02-10T00:00:00	2024-11-08T05:00:00	1	Precipitación	0
63844	7	Sololá	710	Panajachel	8	Panajachel	10	Octubre	2023-02-10T00:00:00	2024-11-08T05:00:00	8	Radiación solar	0
63845	7	Sololá	710	Panajachel	8	Panajachel	10	Octubre	2023-02-10T00:00:00	2024-11-08T06:00:00	2	Temperatura media	16.8
63846	7	Sololá	710	Panajachel	8	Panajachel	10	Octubre	2023-02-10T00:00:00	2024-11-08T06:00:00	4	Temperatura máxima	17.3
63847	7	Sololá	710	Panajachel	8	Panajachel	10	Octubre	2023-02-10T00:00:00	2024-11-08T06:00:00	3	Temperatura mínima	16.8
63848	7	Sololá	710	Panajachel	8	Panajachel	10	Octubre	2023-02-10T00:00:00	2024-11-08T06:00:00	5	Humedad	93
63849	7	Sololá	710	Panajachel	8	Panajachel	10	Octubre	2023-02-10T00:00:00	2024-11-08T06:00:00	6	Velocidad del viento	1.6
63850	7	Sololá	710	Panajachel	8	Panajachel	10	Octubre	2023-02-10T00:00:00	2024-11-08T06:00:00	7	Dirección del viento	1.61
63851	7	Sololá	710	Panajachel	8	Panajachel	10	Octubre	2023-02-10T00:00:00	2024-11-08T06:00:00	1	Precipitación	0
63852	7	Sololá	710	Panajachel	8	Panajachel	10	Octubre	2023-02-10T00:00:00	2024-11-08T06:00:00	8	Radiación solar	0
63853	7	Sololá	710	Panajachel	8	Panajachel	10	Octubre	2023-02-10T00:00:00	2024-11-08T07:00:00	2	Temperatura media	18.6
63854	7	Sololá	710	Panajachel	8	Panajachel	10	Octubre	2023-02-10T00:00:00	2024-11-08T07:00:00	4	Temperatura máxima	18.6
63855	7	Sololá	710	Panajachel	8	Panajachel	10	Octubre	2023-02-10T00:00:00	2024-11-08T07:00:00	3	Temperatura mínima	16.8
63856	7	Sololá	710	Panajachel	8	Panajachel	10	Octubre	2023-02-10T00:00:00	2024-11-08T07:00:00	5	Humedad	88
63857	7	Sololá	710	Panajachel	8	Panajachel	10	Octubre	2023-02-10T00:00:00	2024-11-08T07:00:00	6	Velocidad del viento	1.6
63858	7	Sololá	710	Panajachel	8	Panajachel	10	Octubre	2023-02-10T00:00:00	2024-11-08T07:00:00	7	Dirección del viento	1.61
63859	7	Sololá	710	Panajachel	8	Panajachel	10	Octubre	2023-02-10T00:00:00	2024-11-08T07:00:00	1	Precipitación	0
63860	7	Sololá	710	Panajachel	8	Panajachel	10	Octubre	2023-02-10T00:00:00	2024-11-08T07:00:00	8	Radiación solar	61
63861	7	Sololá	710	Panajachel	8	Panajachel	10	Octubre	2023-02-10T00:00:00	2024-11-08T08:00:00	2	Temperatura media	20.6
63862	7	Sololá	710	Panajachel	8	Panajachel	10	Octubre	2023-02-10T00:00:00	2024-11-08T08:00:00	4	Temperatura máxima	20.6
63863	7	Sololá	710	Panajachel	8	Panajachel	10	Octubre	2023-02-10T00:00:00	2024-11-08T08:00:00	3	Temperatura mínima	18.6
63864	7	Sololá	710	Panajachel	8	Panajachel	10	Octubre	2023-02-10T00:00:00	2024-11-08T08:00:00	5	Humedad	84
63865	7	Sololá	710	Panajachel	8	Panajachel	10	Octubre	2023-02-10T00:00:00	2024-11-08T08:00:00	6	Velocidad del viento	0
63866	7	Sololá	710	Panajachel	8	Panajachel	10	Octubre	2023-02-10T00:00:00	2024-11-08T08:00:00	7	Dirección del viento	0
63867	7	Sololá	710	Panajachel	8	Panajachel	10	Octubre	2023-02-10T00:00:00	2024-11-08T08:00:00	1	Precipitación	0
63868	7	Sololá	710	Panajachel	8	Panajachel	10	Octubre	2023-02-10T00:00:00	2024-11-08T08:00:00	8	Radiación solar	208
63869	7	Sololá	710	Panajachel	8	Panajachel	10	Octubre	2023-02-10T00:00:00	2024-11-08T09:00:00	2	Temperatura media	21.8
63870	7	Sololá	710	Panajachel	8	Panajachel	10	Octubre	2023-02-10T00:00:00	2024-11-08T09:00:00	4	Temperatura máxima	21.8
63871	7	Sololá	710	Panajachel	8	Panajachel	10	Octubre	2023-02-10T00:00:00	2024-11-08T09:00:00	3	Temperatura mínima	20.5
63872	7	Sololá	710	Panajachel	8	Panajachel	10	Octubre	2023-02-10T00:00:00	2024-11-08T09:00:00	5	Humedad	85
63873	7	Sololá	710	Panajachel	8	Panajachel	10	Octubre	2023-02-10T00:00:00	2024-11-08T09:00:00	6	Velocidad del viento	3.2
63874	7	Sololá	710	Panajachel	8	Panajachel	10	Octubre	2023-02-10T00:00:00	2024-11-08T09:00:00	7	Dirección del viento	3.22
63875	7	Sololá	710	Panajachel	8	Panajachel	10	Octubre	2023-02-10T00:00:00	2024-11-08T09:00:00	1	Precipitación	0
63876	7	Sololá	710	Panajachel	8	Panajachel	10	Octubre	2023-02-10T00:00:00	2024-11-08T09:00:00	8	Radiación solar	538
63877	7	Sololá	710	Panajachel	8	Panajachel	10	Octubre	2023-02-10T00:00:00	2024-11-08T10:00:00	2	Temperatura media	22.8
63878	7	Sololá	710	Panajachel	8	Panajachel	10	Octubre	2023-02-10T00:00:00	2024-11-08T10:00:00	4	Temperatura máxima	22.8
63879	7	Sololá	710	Panajachel	8	Panajachel	10	Octubre	2023-02-10T00:00:00	2024-11-08T10:00:00	3	Temperatura mínima	21.8
63880	7	Sololá	710	Panajachel	8	Panajachel	10	Octubre	2023-02-10T00:00:00	2024-11-08T10:00:00	5	Humedad	79
63881	7	Sololá	710	Panajachel	8	Panajachel	10	Octubre	2023-02-10T00:00:00	2024-11-08T10:00:00	6	Velocidad del viento	3.2
63882	7	Sololá	710	Panajachel	8	Panajachel	10	Octubre	2023-02-10T00:00:00	2024-11-08T10:00:00	7	Dirección del viento	3.22
63883	7	Sololá	710	Panajachel	8	Panajachel	10	Octubre	2023-02-10T00:00:00	2024-11-08T10:00:00	1	Precipitación	0
63884	7	Sololá	710	Panajachel	8	Panajachel	10	Octubre	2023-02-10T00:00:00	2024-11-08T10:00:00	8	Radiación solar	719
63885	7	Sololá	710	Panajachel	8	Panajachel	10	Octubre	2023-02-10T00:00:00	2024-11-08T11:00:00	2	Temperatura media	23.1
63886	7	Sololá	710	Panajachel	8	Panajachel	10	Octubre	2023-02-10T00:00:00	2024-11-08T11:00:00	4	Temperatura máxima	23.1
63887	7	Sololá	710	Panajachel	8	Panajachel	10	Octubre	2023-02-10T00:00:00	2024-11-08T11:00:00	3	Temperatura mínima	22.2
63888	7	Sololá	710	Panajachel	8	Panajachel	10	Octubre	2023-02-10T00:00:00	2024-11-08T11:00:00	5	Humedad	79
63889	7	Sololá	710	Panajachel	8	Panajachel	10	Octubre	2023-02-10T00:00:00	2024-11-08T11:00:00	6	Velocidad del viento	3.2
63890	7	Sololá	710	Panajachel	8	Panajachel	10	Octubre	2023-02-10T00:00:00	2024-11-08T11:00:00	7	Dirección del viento	3.22
63891	7	Sololá	710	Panajachel	8	Panajachel	10	Octubre	2023-02-10T00:00:00	2024-11-08T11:00:00	1	Precipitación	0
63892	7	Sololá	710	Panajachel	8	Panajachel	10	Octubre	2023-02-10T00:00:00	2024-11-08T11:00:00	8	Radiación solar	851
63893	7	Sololá	710	Panajachel	8	Panajachel	10	Octubre	2023-02-10T00:00:00	2024-11-08T12:00:00	2	Temperatura media	24.3
63894	7	Sololá	710	Panajachel	8	Panajachel	10	Octubre	2023-02-10T00:00:00	2024-11-08T12:00:00	4	Temperatura máxima	24.9
63895	7	Sololá	710	Panajachel	8	Panajachel	10	Octubre	2023-02-10T00:00:00	2024-11-08T12:00:00	3	Temperatura mínima	22.8
63896	7	Sololá	710	Panajachel	8	Panajachel	10	Octubre	2023-02-10T00:00:00	2024-11-08T12:00:00	5	Humedad	83
63897	7	Sololá	710	Panajachel	8	Panajachel	10	Octubre	2023-02-10T00:00:00	2024-11-08T12:00:00	6	Velocidad del viento	0
63898	7	Sololá	710	Panajachel	8	Panajachel	10	Octubre	2023-02-10T00:00:00	2024-11-08T12:00:00	7	Dirección del viento	0
63899	7	Sololá	710	Panajachel	8	Panajachel	10	Octubre	2023-02-10T00:00:00	2024-11-08T12:00:00	1	Precipitación	0
63900	7	Sololá	710	Panajachel	8	Panajachel	10	Octubre	2023-02-10T00:00:00	2024-11-08T12:00:00	8	Radiación solar	932
63901	7	Sololá	710	Panajachel	8	Panajachel	10	Octubre	2023-02-10T00:00:00	2024-11-08T13:00:00	2	Temperatura media	23.6
63902	7	Sololá	710	Panajachel	8	Panajachel	10	Octubre	2023-02-10T00:00:00	2024-11-08T13:00:00	4	Temperatura máxima	25.2
63903	7	Sololá	710	Panajachel	8	Panajachel	10	Octubre	2023-02-10T00:00:00	2024-11-08T13:00:00	3	Temperatura mínima	23.6
63904	7	Sololá	710	Panajachel	8	Panajachel	10	Octubre	2023-02-10T00:00:00	2024-11-08T13:00:00	5	Humedad	80
63905	7	Sololá	710	Panajachel	8	Panajachel	10	Octubre	2023-02-10T00:00:00	2024-11-08T13:00:00	6	Velocidad del viento	3.2
63906	7	Sololá	710	Panajachel	8	Panajachel	10	Octubre	2023-02-10T00:00:00	2024-11-08T13:00:00	7	Dirección del viento	3.22
63907	7	Sololá	710	Panajachel	8	Panajachel	10	Octubre	2023-02-10T00:00:00	2024-11-08T13:00:00	1	Precipitación	0
63908	7	Sololá	710	Panajachel	8	Panajachel	10	Octubre	2023-02-10T00:00:00	2024-11-08T13:00:00	8	Radiación solar	498
63909	7	Sololá	710	Panajachel	8	Panajachel	10	Octubre	2023-02-10T00:00:00	2024-11-08T14:00:00	2	Temperatura media	23.5
63910	7	Sololá	710	Panajachel	8	Panajachel	10	Octubre	2023-02-10T00:00:00	2024-11-08T14:00:00	4	Temperatura máxima	24
63911	7	Sololá	710	Panajachel	8	Panajachel	10	Octubre	2023-02-10T00:00:00	2024-11-08T14:00:00	3	Temperatura mínima	23.4
63912	7	Sololá	710	Panajachel	8	Panajachel	10	Octubre	2023-02-10T00:00:00	2024-11-08T14:00:00	5	Humedad	85
63913	7	Sololá	710	Panajachel	8	Panajachel	10	Octubre	2023-02-10T00:00:00	2024-11-08T14:00:00	6	Velocidad del viento	0
63914	7	Sololá	710	Panajachel	8	Panajachel	10	Octubre	2023-02-10T00:00:00	2024-11-08T14:00:00	7	Dirección del viento	0
63915	7	Sololá	710	Panajachel	8	Panajachel	10	Octubre	2023-02-10T00:00:00	2024-11-08T14:00:00	1	Precipitación	0
63916	7	Sololá	710	Panajachel	8	Panajachel	10	Octubre	2023-02-10T00:00:00	2024-11-08T14:00:00	8	Radiación solar	230
63917	7	Sololá	710	Panajachel	8	Panajachel	10	Octubre	2023-02-10T00:00:00	2024-11-08T15:00:00	2	Temperatura media	22.6
63918	7	Sololá	710	Panajachel	8	Panajachel	10	Octubre	2023-02-10T00:00:00	2024-11-08T15:00:00	4	Temperatura máxima	23.5
63919	7	Sololá	710	Panajachel	8	Panajachel	10	Octubre	2023-02-10T00:00:00	2024-11-08T15:00:00	3	Temperatura mínima	22.3
63920	7	Sololá	710	Panajachel	8	Panajachel	10	Octubre	2023-02-10T00:00:00	2024-11-08T15:00:00	5	Humedad	90
63921	7	Sololá	710	Panajachel	8	Panajachel	10	Octubre	2023-02-10T00:00:00	2024-11-08T15:00:00	6	Velocidad del viento	3.2
63922	7	Sololá	710	Panajachel	8	Panajachel	10	Octubre	2023-02-10T00:00:00	2024-11-08T15:00:00	7	Dirección del viento	3.22
63923	7	Sololá	710	Panajachel	8	Panajachel	10	Octubre	2023-02-10T00:00:00	2024-11-08T15:00:00	1	Precipitación	1
63924	7	Sololá	710	Panajachel	8	Panajachel	10	Octubre	2023-02-10T00:00:00	2024-11-08T15:00:00	8	Radiación solar	126
63925	7	Sololá	710	Panajachel	8	Panajachel	10	Octubre	2023-02-10T00:00:00	2024-11-08T16:00:00	2	Temperatura media	21.8
63926	7	Sololá	710	Panajachel	8	Panajachel	10	Octubre	2023-02-10T00:00:00	2024-11-08T16:00:00	4	Temperatura máxima	22.6
63927	7	Sololá	710	Panajachel	8	Panajachel	10	Octubre	2023-02-10T00:00:00	2024-11-08T16:00:00	3	Temperatura mínima	21.8
63928	7	Sololá	710	Panajachel	8	Panajachel	10	Octubre	2023-02-10T00:00:00	2024-11-08T16:00:00	5	Humedad	91
63929	7	Sololá	710	Panajachel	8	Panajachel	10	Octubre	2023-02-10T00:00:00	2024-11-08T16:00:00	6	Velocidad del viento	1.6
63930	7	Sololá	710	Panajachel	8	Panajachel	10	Octubre	2023-02-10T00:00:00	2024-11-08T16:00:00	7	Dirección del viento	1.61
63931	7	Sololá	710	Panajachel	8	Panajachel	10	Octubre	2023-02-10T00:00:00	2024-11-08T16:00:00	1	Precipitación	0
63932	7	Sololá	710	Panajachel	8	Panajachel	10	Octubre	2023-02-10T00:00:00	2024-11-08T16:00:00	8	Radiación solar	114
63933	7	Sololá	710	Panajachel	8	Panajachel	10	Octubre	2023-02-10T00:00:00	2024-11-08T17:00:00	2	Temperatura media	20.5
63934	7	Sololá	710	Panajachel	8	Panajachel	10	Octubre	2023-02-10T00:00:00	2024-11-08T17:00:00	4	Temperatura máxima	21.8
63935	7	Sololá	710	Panajachel	8	Panajachel	10	Octubre	2023-02-10T00:00:00	2024-11-08T17:00:00	3	Temperatura mínima	20.4
63936	7	Sololá	710	Panajachel	8	Panajachel	10	Octubre	2023-02-10T00:00:00	2024-11-08T17:00:00	5	Humedad	92
63937	7	Sololá	710	Panajachel	8	Panajachel	10	Octubre	2023-02-10T00:00:00	2024-11-08T17:00:00	6	Velocidad del viento	3.2
63938	7	Sololá	710	Panajachel	8	Panajachel	10	Octubre	2023-02-10T00:00:00	2024-11-08T17:00:00	7	Dirección del viento	3.22
63939	7	Sololá	710	Panajachel	8	Panajachel	10	Octubre	2023-02-10T00:00:00	2024-11-08T17:00:00	1	Precipitación	0
63940	7	Sololá	710	Panajachel	8	Panajachel	10	Octubre	2023-02-10T00:00:00	2024-11-08T17:00:00	8	Radiación solar	22
63941	7	Sololá	710	Panajachel	8	Panajachel	10	Octubre	2023-02-10T00:00:00	2024-11-08T18:00:00	2	Temperatura media	19.6
63942	7	Sololá	710	Panajachel	8	Panajachel	10	Octubre	2023-02-10T00:00:00	2024-11-08T18:00:00	4	Temperatura máxima	20.7
63943	7	Sololá	710	Panajachel	8	Panajachel	10	Octubre	2023-02-10T00:00:00	2024-11-08T18:00:00	3	Temperatura mínima	19.3
63944	7	Sololá	710	Panajachel	8	Panajachel	10	Octubre	2023-02-10T00:00:00	2024-11-08T18:00:00	5	Humedad	94
63945	7	Sololá	710	Panajachel	8	Panajachel	10	Octubre	2023-02-10T00:00:00	2024-11-08T18:00:00	6	Velocidad del viento	3.2
63946	7	Sololá	710	Panajachel	8	Panajachel	10	Octubre	2023-02-10T00:00:00	2024-11-08T18:00:00	7	Dirección del viento	3.22
63947	7	Sololá	710	Panajachel	8	Panajachel	10	Octubre	2023-02-10T00:00:00	2024-11-08T18:00:00	1	Precipitación	0
63948	7	Sololá	710	Panajachel	8	Panajachel	10	Octubre	2023-02-10T00:00:00	2024-11-08T18:00:00	8	Radiación solar	1
63949	7	Sololá	710	Panajachel	8	Panajachel	10	Octubre	2023-02-10T00:00:00	2024-11-08T19:00:00	2	Temperatura media	19.4
63950	7	Sololá	710	Panajachel	8	Panajachel	10	Octubre	2023-02-10T00:00:00	2024-11-08T19:00:00	4	Temperatura máxima	19.6
63951	7	Sololá	710	Panajachel	8	Panajachel	10	Octubre	2023-02-10T00:00:00	2024-11-08T19:00:00	3	Temperatura mínima	19.4
63952	7	Sololá	710	Panajachel	8	Panajachel	10	Octubre	2023-02-10T00:00:00	2024-11-08T19:00:00	5	Humedad	95
63953	7	Sololá	710	Panajachel	8	Panajachel	10	Octubre	2023-02-10T00:00:00	2024-11-08T19:00:00	6	Velocidad del viento	3.2
63954	7	Sololá	710	Panajachel	8	Panajachel	10	Octubre	2023-02-10T00:00:00	2024-11-08T19:00:00	7	Dirección del viento	3.22
63955	7	Sololá	710	Panajachel	8	Panajachel	10	Octubre	2023-02-10T00:00:00	2024-11-08T19:00:00	1	Precipitación	0
63956	7	Sololá	710	Panajachel	8	Panajachel	10	Octubre	2023-02-10T00:00:00	2024-11-08T19:00:00	8	Radiación solar	0
63957	7	Sololá	710	Panajachel	8	Panajachel	10	Octubre	2023-02-10T00:00:00	2024-11-08T20:00:00	2	Temperatura media	18.5
63958	7	Sololá	710	Panajachel	8	Panajachel	10	Octubre	2023-02-10T00:00:00	2024-11-08T20:00:00	4	Temperatura máxima	19.4
63959	7	Sololá	710	Panajachel	8	Panajachel	10	Octubre	2023-02-10T00:00:00	2024-11-08T20:00:00	3	Temperatura mínima	18.5
63960	7	Sololá	710	Panajachel	8	Panajachel	10	Octubre	2023-02-10T00:00:00	2024-11-08T20:00:00	5	Humedad	92
63961	7	Sololá	710	Panajachel	8	Panajachel	10	Octubre	2023-02-10T00:00:00	2024-11-08T20:00:00	6	Velocidad del viento	4.8
63962	7	Sololá	710	Panajachel	8	Panajachel	10	Octubre	2023-02-10T00:00:00	2024-11-08T20:00:00	7	Dirección del viento	4.83
63963	7	Sololá	710	Panajachel	8	Panajachel	10	Octubre	2023-02-10T00:00:00	2024-11-08T20:00:00	1	Precipitación	2.2
63964	7	Sololá	710	Panajachel	8	Panajachel	10	Octubre	2023-02-10T00:00:00	2024-11-08T20:00:00	8	Radiación solar	0
63965	7	Sololá	710	Panajachel	8	Panajachel	10	Octubre	2023-02-10T00:00:00	2024-11-08T21:00:00	2	Temperatura media	18.4
63966	7	Sololá	710	Panajachel	8	Panajachel	10	Octubre	2023-02-10T00:00:00	2024-11-08T21:00:00	4	Temperatura máxima	18.6
63967	7	Sololá	710	Panajachel	8	Panajachel	10	Octubre	2023-02-10T00:00:00	2024-11-08T21:00:00	3	Temperatura mínima	18.1
63968	7	Sololá	710	Panajachel	8	Panajachel	10	Octubre	2023-02-10T00:00:00	2024-11-08T21:00:00	5	Humedad	93
63969	7	Sololá	710	Panajachel	8	Panajachel	10	Octubre	2023-02-10T00:00:00	2024-11-08T21:00:00	6	Velocidad del viento	1.6
63970	7	Sololá	710	Panajachel	8	Panajachel	10	Octubre	2023-02-10T00:00:00	2024-11-08T21:00:00	7	Dirección del viento	1.61
63971	7	Sololá	710	Panajachel	8	Panajachel	10	Octubre	2023-02-10T00:00:00	2024-11-08T21:00:00	1	Precipitación	0.8
63972	7	Sololá	710	Panajachel	8	Panajachel	10	Octubre	2023-02-10T00:00:00	2024-11-08T21:00:00	8	Radiación solar	0
63973	7	Sololá	710	Panajachel	8	Panajachel	10	Octubre	2023-02-10T00:00:00	2024-11-08T22:00:00	2	Temperatura media	17.7
63974	7	Sololá	710	Panajachel	8	Panajachel	10	Octubre	2023-02-10T00:00:00	2024-11-08T22:00:00	4	Temperatura máxima	18.4
63975	7	Sololá	710	Panajachel	8	Panajachel	10	Octubre	2023-02-10T00:00:00	2024-11-08T22:00:00	3	Temperatura mínima	17.7
63976	7	Sololá	710	Panajachel	8	Panajachel	10	Octubre	2023-02-10T00:00:00	2024-11-08T22:00:00	5	Humedad	95
63977	7	Sololá	710	Panajachel	8	Panajachel	10	Octubre	2023-02-10T00:00:00	2024-11-08T22:00:00	6	Velocidad del viento	3.2
63978	7	Sololá	710	Panajachel	8	Panajachel	10	Octubre	2023-02-10T00:00:00	2024-11-08T22:00:00	7	Dirección del viento	3.22
63979	7	Sololá	710	Panajachel	8	Panajachel	10	Octubre	2023-02-10T00:00:00	2024-11-08T22:00:00	1	Precipitación	0.2
63980	7	Sololá	710	Panajachel	8	Panajachel	10	Octubre	2023-02-10T00:00:00	2024-11-08T22:00:00	8	Radiación solar	0
63981	7	Sololá	710	Panajachel	8	Panajachel	10	Octubre	2023-02-10T00:00:00	2024-11-08T23:00:00	2	Temperatura media	17.6
63982	7	Sololá	710	Panajachel	8	Panajachel	10	Octubre	2023-02-10T00:00:00	2024-11-08T23:00:00	4	Temperatura máxima	17.7
63983	7	Sololá	710	Panajachel	8	Panajachel	10	Octubre	2023-02-10T00:00:00	2024-11-08T23:00:00	3	Temperatura mínima	17.5
63984	7	Sololá	710	Panajachel	8	Panajachel	10	Octubre	2023-02-10T00:00:00	2024-11-08T23:00:00	5	Humedad	97
63985	7	Sololá	710	Panajachel	8	Panajachel	10	Octubre	2023-02-10T00:00:00	2024-11-08T23:00:00	6	Velocidad del viento	1.6
63986	7	Sololá	710	Panajachel	8	Panajachel	10	Octubre	2023-02-10T00:00:00	2024-11-08T23:00:00	7	Dirección del viento	1.61
63987	7	Sololá	710	Panajachel	8	Panajachel	10	Octubre	2023-02-10T00:00:00	2024-11-08T23:00:00	1	Precipitación	0.2
63988	7	Sololá	710	Panajachel	8	Panajachel	10	Octubre	2023-02-10T00:00:00	2024-11-08T23:00:00	8	Radiación solar	0
63989	7	Sololá	710	Panajachel	8	Panajachel	10	Octubre	2023-03-10T00:00:00	2024-11-08T00:00:00	2	Temperatura media	17.7
63990	7	Sololá	710	Panajachel	8	Panajachel	10	Octubre	2023-03-10T00:00:00	2024-11-08T00:00:00	4	Temperatura máxima	17.8
63991	7	Sololá	710	Panajachel	8	Panajachel	10	Octubre	2023-03-10T00:00:00	2024-11-08T00:00:00	3	Temperatura mínima	17.5
63992	7	Sololá	710	Panajachel	8	Panajachel	10	Octubre	2023-03-10T00:00:00	2024-11-08T00:00:00	5	Humedad	97
63993	7	Sololá	710	Panajachel	8	Panajachel	10	Octubre	2023-03-10T00:00:00	2024-11-08T00:00:00	6	Velocidad del viento	0
63994	7	Sololá	710	Panajachel	8	Panajachel	10	Octubre	2023-03-10T00:00:00	2024-11-08T00:00:00	7	Dirección del viento	0
63995	7	Sololá	710	Panajachel	8	Panajachel	10	Octubre	2023-03-10T00:00:00	2024-11-08T00:00:00	1	Precipitación	0
63996	7	Sololá	710	Panajachel	8	Panajachel	10	Octubre	2023-03-10T00:00:00	2024-11-08T00:00:00	8	Radiación solar	0
63997	7	Sololá	710	Panajachel	8	Panajachel	10	Octubre	2023-03-10T00:00:00	2024-11-08T01:00:00	2	Temperatura media	17.4
63998	7	Sololá	710	Panajachel	8	Panajachel	10	Octubre	2023-03-10T00:00:00	2024-11-08T01:00:00	4	Temperatura máxima	17.7
63999	7	Sololá	710	Panajachel	8	Panajachel	10	Octubre	2023-03-10T00:00:00	2024-11-08T01:00:00	3	Temperatura mínima	17.4
64000	7	Sololá	710	Panajachel	8	Panajachel	10	Octubre	2023-03-10T00:00:00	2024-11-08T01:00:00	5	Humedad	95
64001	7	Sololá	710	Panajachel	8	Panajachel	10	Octubre	2023-03-10T00:00:00	2024-11-08T01:00:00	6	Velocidad del viento	0
64002	7	Sololá	710	Panajachel	8	Panajachel	10	Octubre	2023-03-10T00:00:00	2024-11-08T01:00:00	7	Dirección del viento	0
64003	7	Sololá	710	Panajachel	8	Panajachel	10	Octubre	2023-03-10T00:00:00	2024-11-08T01:00:00	1	Precipitación	0
64004	7	Sololá	710	Panajachel	8	Panajachel	10	Octubre	2023-03-10T00:00:00	2024-11-08T01:00:00	8	Radiación solar	0
64005	7	Sololá	710	Panajachel	8	Panajachel	10	Octubre	2023-03-10T00:00:00	2024-11-08T02:00:00	2	Temperatura media	18.3
64006	7	Sololá	710	Panajachel	8	Panajachel	10	Octubre	2023-03-10T00:00:00	2024-11-08T02:00:00	4	Temperatura máxima	18.4
64007	7	Sololá	710	Panajachel	8	Panajachel	10	Octubre	2023-03-10T00:00:00	2024-11-08T02:00:00	3	Temperatura mínima	17.3
64008	7	Sololá	710	Panajachel	8	Panajachel	10	Octubre	2023-03-10T00:00:00	2024-11-08T02:00:00	5	Humedad	90
64009	7	Sololá	710	Panajachel	8	Panajachel	10	Octubre	2023-03-10T00:00:00	2024-11-08T02:00:00	6	Velocidad del viento	1.6
64010	7	Sololá	710	Panajachel	8	Panajachel	10	Octubre	2023-03-10T00:00:00	2024-11-08T02:00:00	7	Dirección del viento	1.61
64011	7	Sololá	710	Panajachel	8	Panajachel	10	Octubre	2023-03-10T00:00:00	2024-11-08T02:00:00	1	Precipitación	0
64012	7	Sololá	710	Panajachel	8	Panajachel	10	Octubre	2023-03-10T00:00:00	2024-11-08T02:00:00	8	Radiación solar	0
64013	7	Sololá	710	Panajachel	8	Panajachel	10	Octubre	2023-03-10T00:00:00	2024-11-08T03:00:00	2	Temperatura media	18.2
64014	7	Sololá	710	Panajachel	8	Panajachel	10	Octubre	2023-03-10T00:00:00	2024-11-08T03:00:00	4	Temperatura máxima	18.7
64015	7	Sololá	710	Panajachel	8	Panajachel	10	Octubre	2023-03-10T00:00:00	2024-11-08T03:00:00	3	Temperatura mínima	18.1
64016	7	Sololá	710	Panajachel	8	Panajachel	10	Octubre	2023-03-10T00:00:00	2024-11-08T03:00:00	5	Humedad	90
64017	7	Sololá	710	Panajachel	8	Panajachel	10	Octubre	2023-03-10T00:00:00	2024-11-08T03:00:00	6	Velocidad del viento	1.6
64018	7	Sololá	710	Panajachel	8	Panajachel	10	Octubre	2023-03-10T00:00:00	2024-11-08T03:00:00	7	Dirección del viento	1.61
64019	7	Sololá	710	Panajachel	8	Panajachel	10	Octubre	2023-03-10T00:00:00	2024-11-08T03:00:00	1	Precipitación	0
64020	7	Sololá	710	Panajachel	8	Panajachel	10	Octubre	2023-03-10T00:00:00	2024-11-08T03:00:00	8	Radiación solar	0
64021	7	Sololá	710	Panajachel	8	Panajachel	10	Octubre	2023-03-10T00:00:00	2024-11-08T04:00:00	2	Temperatura media	16.7
64022	7	Sololá	710	Panajachel	8	Panajachel	10	Octubre	2023-03-10T00:00:00	2024-11-08T04:00:00	4	Temperatura máxima	18.2
64023	7	Sololá	710	Panajachel	8	Panajachel	10	Octubre	2023-03-10T00:00:00	2024-11-08T04:00:00	3	Temperatura mínima	16.7
64024	7	Sololá	710	Panajachel	8	Panajachel	10	Octubre	2023-03-10T00:00:00	2024-11-08T04:00:00	5	Humedad	95
64025	7	Sololá	710	Panajachel	8	Panajachel	10	Octubre	2023-03-10T00:00:00	2024-11-08T04:00:00	6	Velocidad del viento	1.6
64026	7	Sololá	710	Panajachel	8	Panajachel	10	Octubre	2023-03-10T00:00:00	2024-11-08T04:00:00	7	Dirección del viento	1.61
64027	7	Sololá	710	Panajachel	8	Panajachel	10	Octubre	2023-03-10T00:00:00	2024-11-08T04:00:00	1	Precipitación	0
64028	7	Sololá	710	Panajachel	8	Panajachel	10	Octubre	2023-03-10T00:00:00	2024-11-08T04:00:00	8	Radiación solar	0
64029	7	Sololá	710	Panajachel	8	Panajachel	10	Octubre	2023-03-10T00:00:00	2024-11-08T05:00:00	2	Temperatura media	16.6
64030	7	Sololá	710	Panajachel	8	Panajachel	10	Octubre	2023-03-10T00:00:00	2024-11-08T05:00:00	4	Temperatura máxima	16.7
64031	7	Sololá	710	Panajachel	8	Panajachel	10	Octubre	2023-03-10T00:00:00	2024-11-08T05:00:00	3	Temperatura mínima	16.5
64032	7	Sololá	710	Panajachel	8	Panajachel	10	Octubre	2023-03-10T00:00:00	2024-11-08T05:00:00	5	Humedad	94
64033	7	Sololá	710	Panajachel	8	Panajachel	10	Octubre	2023-03-10T00:00:00	2024-11-08T05:00:00	6	Velocidad del viento	1.6
64034	7	Sololá	710	Panajachel	8	Panajachel	10	Octubre	2023-03-10T00:00:00	2024-11-08T05:00:00	7	Dirección del viento	1.61
64035	7	Sololá	710	Panajachel	8	Panajachel	10	Octubre	2023-03-10T00:00:00	2024-11-08T05:00:00	1	Precipitación	0
64036	7	Sololá	710	Panajachel	8	Panajachel	10	Octubre	2023-03-10T00:00:00	2024-11-08T05:00:00	8	Radiación solar	0
64037	7	Sololá	710	Panajachel	8	Panajachel	10	Octubre	2023-03-10T00:00:00	2024-11-08T06:00:00	2	Temperatura media	17.3
64038	7	Sololá	710	Panajachel	8	Panajachel	10	Octubre	2023-03-10T00:00:00	2024-11-08T06:00:00	4	Temperatura máxima	17.3
64039	7	Sololá	710	Panajachel	8	Panajachel	10	Octubre	2023-03-10T00:00:00	2024-11-08T06:00:00	3	Temperatura mínima	16.5
64040	7	Sololá	710	Panajachel	8	Panajachel	10	Octubre	2023-03-10T00:00:00	2024-11-08T06:00:00	5	Humedad	91
64041	7	Sololá	710	Panajachel	8	Panajachel	10	Octubre	2023-03-10T00:00:00	2024-11-08T06:00:00	6	Velocidad del viento	1.6
64042	7	Sololá	710	Panajachel	8	Panajachel	10	Octubre	2023-03-10T00:00:00	2024-11-08T06:00:00	7	Dirección del viento	1.61
64043	7	Sololá	710	Panajachel	8	Panajachel	10	Octubre	2023-03-10T00:00:00	2024-11-08T06:00:00	1	Precipitación	0
64044	7	Sololá	710	Panajachel	8	Panajachel	10	Octubre	2023-03-10T00:00:00	2024-11-08T06:00:00	8	Radiación solar	1
64045	7	Sololá	710	Panajachel	8	Panajachel	10	Octubre	2023-03-10T00:00:00	2024-11-08T07:00:00	2	Temperatura media	18.6
64046	7	Sololá	710	Panajachel	8	Panajachel	10	Octubre	2023-03-10T00:00:00	2024-11-08T07:00:00	4	Temperatura máxima	18.6
64047	7	Sololá	710	Panajachel	8	Panajachel	10	Octubre	2023-03-10T00:00:00	2024-11-08T07:00:00	3	Temperatura mínima	17.2
64048	7	Sololá	710	Panajachel	8	Panajachel	10	Octubre	2023-03-10T00:00:00	2024-11-08T07:00:00	5	Humedad	90
64049	7	Sololá	710	Panajachel	8	Panajachel	10	Octubre	2023-03-10T00:00:00	2024-11-08T07:00:00	6	Velocidad del viento	0
64050	7	Sololá	710	Panajachel	8	Panajachel	10	Octubre	2023-03-10T00:00:00	2024-11-08T07:00:00	7	Dirección del viento	0
64051	7	Sololá	710	Panajachel	8	Panajachel	10	Octubre	2023-03-10T00:00:00	2024-11-08T07:00:00	1	Precipitación	0
64052	7	Sololá	710	Panajachel	8	Panajachel	10	Octubre	2023-03-10T00:00:00	2024-11-08T07:00:00	8	Radiación solar	62
64053	7	Sololá	710	Panajachel	8	Panajachel	10	Octubre	2023-03-10T00:00:00	2024-11-08T08:00:00	2	Temperatura media	21.1
64054	7	Sololá	710	Panajachel	8	Panajachel	10	Octubre	2023-03-10T00:00:00	2024-11-08T08:00:00	4	Temperatura máxima	21.1
64055	7	Sololá	710	Panajachel	8	Panajachel	10	Octubre	2023-03-10T00:00:00	2024-11-08T08:00:00	3	Temperatura mínima	18.7
64056	7	Sololá	710	Panajachel	8	Panajachel	10	Octubre	2023-03-10T00:00:00	2024-11-08T08:00:00	5	Humedad	84
64057	7	Sololá	710	Panajachel	8	Panajachel	10	Octubre	2023-03-10T00:00:00	2024-11-08T08:00:00	6	Velocidad del viento	0
64058	7	Sololá	710	Panajachel	8	Panajachel	10	Octubre	2023-03-10T00:00:00	2024-11-08T08:00:00	7	Dirección del viento	0
64059	7	Sololá	710	Panajachel	8	Panajachel	10	Octubre	2023-03-10T00:00:00	2024-11-08T08:00:00	1	Precipitación	0
64060	7	Sololá	710	Panajachel	8	Panajachel	10	Octubre	2023-03-10T00:00:00	2024-11-08T08:00:00	8	Radiación solar	306
64061	7	Sololá	710	Panajachel	8	Panajachel	10	Octubre	2023-03-10T00:00:00	2024-11-08T09:00:00	2	Temperatura media	21.1
64062	7	Sololá	710	Panajachel	8	Panajachel	10	Octubre	2023-03-10T00:00:00	2024-11-08T09:00:00	4	Temperatura máxima	22.2
64063	7	Sololá	710	Panajachel	8	Panajachel	10	Octubre	2023-03-10T00:00:00	2024-11-08T09:00:00	3	Temperatura mínima	21
64064	7	Sololá	710	Panajachel	8	Panajachel	10	Octubre	2023-03-10T00:00:00	2024-11-08T09:00:00	5	Humedad	82
64065	7	Sololá	710	Panajachel	8	Panajachel	10	Octubre	2023-03-10T00:00:00	2024-11-08T09:00:00	6	Velocidad del viento	0
64066	7	Sololá	710	Panajachel	8	Panajachel	10	Octubre	2023-03-10T00:00:00	2024-11-08T09:00:00	7	Dirección del viento	0
64067	7	Sololá	710	Panajachel	8	Panajachel	10	Octubre	2023-03-10T00:00:00	2024-11-08T09:00:00	1	Precipitación	0
64068	7	Sololá	710	Panajachel	8	Panajachel	10	Octubre	2023-03-10T00:00:00	2024-11-08T09:00:00	8	Radiación solar	350
64069	7	Sololá	710	Panajachel	8	Panajachel	10	Octubre	2023-03-10T00:00:00	2024-11-08T10:00:00	2	Temperatura media	22.1
64070	7	Sololá	710	Panajachel	8	Panajachel	10	Octubre	2023-03-10T00:00:00	2024-11-08T10:00:00	4	Temperatura máxima	22.2
64071	7	Sololá	710	Panajachel	8	Panajachel	10	Octubre	2023-03-10T00:00:00	2024-11-08T10:00:00	3	Temperatura mínima	21
64072	7	Sololá	710	Panajachel	8	Panajachel	10	Octubre	2023-03-10T00:00:00	2024-11-08T10:00:00	5	Humedad	80
64073	7	Sololá	710	Panajachel	8	Panajachel	10	Octubre	2023-03-10T00:00:00	2024-11-08T10:00:00	6	Velocidad del viento	0
64074	7	Sololá	710	Panajachel	8	Panajachel	10	Octubre	2023-03-10T00:00:00	2024-11-08T10:00:00	7	Dirección del viento	0
64075	7	Sololá	710	Panajachel	8	Panajachel	10	Octubre	2023-03-10T00:00:00	2024-11-08T10:00:00	1	Precipitación	0
64076	7	Sololá	710	Panajachel	8	Panajachel	10	Octubre	2023-03-10T00:00:00	2024-11-08T10:00:00	8	Radiación solar	203
64077	7	Sololá	710	Panajachel	8	Panajachel	10	Octubre	2023-03-10T00:00:00	2024-11-08T11:00:00	2	Temperatura media	23.4
64078	7	Sololá	710	Panajachel	8	Panajachel	10	Octubre	2023-03-10T00:00:00	2024-11-08T11:00:00	4	Temperatura máxima	23.4
64079	7	Sololá	710	Panajachel	8	Panajachel	10	Octubre	2023-03-10T00:00:00	2024-11-08T11:00:00	3	Temperatura mínima	22.2
64080	7	Sololá	710	Panajachel	8	Panajachel	10	Octubre	2023-03-10T00:00:00	2024-11-08T11:00:00	5	Humedad	77
64081	7	Sololá	710	Panajachel	8	Panajachel	10	Octubre	2023-03-10T00:00:00	2024-11-08T11:00:00	6	Velocidad del viento	1.6
64082	7	Sololá	710	Panajachel	8	Panajachel	10	Octubre	2023-03-10T00:00:00	2024-11-08T11:00:00	7	Dirección del viento	1.61
64083	7	Sololá	710	Panajachel	8	Panajachel	10	Octubre	2023-03-10T00:00:00	2024-11-08T11:00:00	1	Precipitación	0
64084	7	Sololá	710	Panajachel	8	Panajachel	10	Octubre	2023-03-10T00:00:00	2024-11-08T11:00:00	8	Radiación solar	416
64085	7	Sololá	710	Panajachel	8	Panajachel	10	Octubre	2023-03-10T00:00:00	2024-11-08T12:00:00	2	Temperatura media	23.6
64086	7	Sololá	710	Panajachel	8	Panajachel	10	Octubre	2023-03-10T00:00:00	2024-11-08T12:00:00	4	Temperatura máxima	23.8
64087	7	Sololá	710	Panajachel	8	Panajachel	10	Octubre	2023-03-10T00:00:00	2024-11-08T12:00:00	3	Temperatura mínima	23
64088	7	Sololá	710	Panajachel	8	Panajachel	10	Octubre	2023-03-10T00:00:00	2024-11-08T12:00:00	5	Humedad	80
64089	7	Sololá	710	Panajachel	8	Panajachel	10	Octubre	2023-03-10T00:00:00	2024-11-08T12:00:00	6	Velocidad del viento	1.6
64090	7	Sololá	710	Panajachel	8	Panajachel	10	Octubre	2023-03-10T00:00:00	2024-11-08T12:00:00	7	Dirección del viento	1.61
64091	7	Sololá	710	Panajachel	8	Panajachel	10	Octubre	2023-03-10T00:00:00	2024-11-08T12:00:00	1	Precipitación	0
64092	7	Sololá	710	Panajachel	8	Panajachel	10	Octubre	2023-03-10T00:00:00	2024-11-08T12:00:00	8	Radiación solar	372
64093	7	Sololá	710	Panajachel	8	Panajachel	10	Octubre	2023-03-10T00:00:00	2024-11-08T13:00:00	2	Temperatura media	23.7
64094	7	Sololá	710	Panajachel	8	Panajachel	10	Octubre	2023-03-10T00:00:00	2024-11-08T13:00:00	4	Temperatura máxima	23.9
64095	7	Sololá	710	Panajachel	8	Panajachel	10	Octubre	2023-03-10T00:00:00	2024-11-08T13:00:00	3	Temperatura mínima	23
64096	7	Sololá	710	Panajachel	8	Panajachel	10	Octubre	2023-03-10T00:00:00	2024-11-08T13:00:00	5	Humedad	82
64097	7	Sololá	710	Panajachel	8	Panajachel	10	Octubre	2023-03-10T00:00:00	2024-11-08T13:00:00	6	Velocidad del viento	0
64098	7	Sololá	710	Panajachel	8	Panajachel	10	Octubre	2023-03-10T00:00:00	2024-11-08T13:00:00	7	Dirección del viento	0
64099	7	Sololá	710	Panajachel	8	Panajachel	10	Octubre	2023-03-10T00:00:00	2024-11-08T13:00:00	1	Precipitación	0
64100	7	Sololá	710	Panajachel	8	Panajachel	10	Octubre	2023-03-10T00:00:00	2024-11-08T13:00:00	8	Radiación solar	332
64101	7	Sololá	710	Panajachel	8	Panajachel	10	Octubre	2023-03-10T00:00:00	2024-11-08T14:00:00	2	Temperatura media	24.5
64102	7	Sololá	710	Panajachel	8	Panajachel	10	Octubre	2023-03-10T00:00:00	2024-11-08T14:00:00	4	Temperatura máxima	25.8
64103	7	Sololá	710	Panajachel	8	Panajachel	10	Octubre	2023-03-10T00:00:00	2024-11-08T14:00:00	3	Temperatura mínima	23.6
64104	7	Sololá	710	Panajachel	8	Panajachel	10	Octubre	2023-03-10T00:00:00	2024-11-08T14:00:00	5	Humedad	82
64105	7	Sololá	710	Panajachel	8	Panajachel	10	Octubre	2023-03-10T00:00:00	2024-11-08T14:00:00	6	Velocidad del viento	1.6
64106	7	Sololá	710	Panajachel	8	Panajachel	10	Octubre	2023-03-10T00:00:00	2024-11-08T14:00:00	7	Dirección del viento	1.61
64107	7	Sololá	710	Panajachel	8	Panajachel	10	Octubre	2023-03-10T00:00:00	2024-11-08T14:00:00	1	Precipitación	0
64108	7	Sololá	710	Panajachel	8	Panajachel	10	Octubre	2023-03-10T00:00:00	2024-11-08T14:00:00	8	Radiación solar	706
64109	7	Sololá	710	Panajachel	8	Panajachel	10	Octubre	2023-03-10T00:00:00	2024-11-08T15:00:00	2	Temperatura media	21.2
64110	7	Sololá	710	Panajachel	8	Panajachel	10	Octubre	2023-03-10T00:00:00	2024-11-08T15:00:00	4	Temperatura máxima	24.4
64111	7	Sololá	710	Panajachel	8	Panajachel	10	Octubre	2023-03-10T00:00:00	2024-11-08T15:00:00	3	Temperatura mínima	21.2
64112	7	Sololá	710	Panajachel	8	Panajachel	10	Octubre	2023-03-10T00:00:00	2024-11-08T15:00:00	5	Humedad	93
64113	7	Sololá	710	Panajachel	8	Panajachel	10	Octubre	2023-03-10T00:00:00	2024-11-08T15:00:00	6	Velocidad del viento	4.8
64114	7	Sololá	710	Panajachel	8	Panajachel	10	Octubre	2023-03-10T00:00:00	2024-11-08T15:00:00	7	Dirección del viento	4.83
64115	7	Sololá	710	Panajachel	8	Panajachel	10	Octubre	2023-03-10T00:00:00	2024-11-08T15:00:00	1	Precipitación	0.8
64116	7	Sololá	710	Panajachel	8	Panajachel	10	Octubre	2023-03-10T00:00:00	2024-11-08T15:00:00	8	Radiación solar	327
64117	7	Sololá	710	Panajachel	8	Panajachel	10	Octubre	2023-03-10T00:00:00	2024-11-08T16:00:00	2	Temperatura media	20.1
64118	7	Sololá	710	Panajachel	8	Panajachel	10	Octubre	2023-03-10T00:00:00	2024-11-08T16:00:00	4	Temperatura máxima	21.6
64119	7	Sololá	710	Panajachel	8	Panajachel	10	Octubre	2023-03-10T00:00:00	2024-11-08T16:00:00	3	Temperatura mínima	20.1
64120	7	Sololá	710	Panajachel	8	Panajachel	10	Octubre	2023-03-10T00:00:00	2024-11-08T16:00:00	5	Humedad	94
64121	7	Sololá	710	Panajachel	8	Panajachel	10	Octubre	2023-03-10T00:00:00	2024-11-08T16:00:00	6	Velocidad del viento	4.8
64122	7	Sololá	710	Panajachel	8	Panajachel	10	Octubre	2023-03-10T00:00:00	2024-11-08T16:00:00	7	Dirección del viento	4.83
64123	7	Sololá	710	Panajachel	8	Panajachel	10	Octubre	2023-03-10T00:00:00	2024-11-08T16:00:00	1	Precipitación	0.2
64124	7	Sololá	710	Panajachel	8	Panajachel	10	Octubre	2023-03-10T00:00:00	2024-11-08T16:00:00	8	Radiación solar	234
64125	7	Sololá	710	Panajachel	8	Panajachel	10	Octubre	2023-03-10T00:00:00	2024-11-08T17:00:00	2	Temperatura media	19.8
64126	7	Sololá	710	Panajachel	8	Panajachel	10	Octubre	2023-03-10T00:00:00	2024-11-08T17:00:00	4	Temperatura máxima	20.1
64127	7	Sololá	710	Panajachel	8	Panajachel	10	Octubre	2023-03-10T00:00:00	2024-11-08T17:00:00	3	Temperatura mínima	19.7
64128	7	Sololá	710	Panajachel	8	Panajachel	10	Octubre	2023-03-10T00:00:00	2024-11-08T17:00:00	5	Humedad	94
64129	7	Sololá	710	Panajachel	8	Panajachel	10	Octubre	2023-03-10T00:00:00	2024-11-08T17:00:00	6	Velocidad del viento	0
64130	7	Sololá	710	Panajachel	8	Panajachel	10	Octubre	2023-03-10T00:00:00	2024-11-08T17:00:00	7	Dirección del viento	0
64131	7	Sololá	710	Panajachel	8	Panajachel	10	Octubre	2023-03-10T00:00:00	2024-11-08T17:00:00	1	Precipitación	0.2
64132	7	Sololá	710	Panajachel	8	Panajachel	10	Octubre	2023-03-10T00:00:00	2024-11-08T17:00:00	8	Radiación solar	19
64133	7	Sololá	710	Panajachel	8	Panajachel	10	Octubre	2023-03-10T00:00:00	2024-11-08T18:00:00	2	Temperatura media	19.6
64134	7	Sololá	710	Panajachel	8	Panajachel	10	Octubre	2023-03-10T00:00:00	2024-11-08T18:00:00	4	Temperatura máxima	19.9
64135	7	Sololá	710	Panajachel	8	Panajachel	10	Octubre	2023-03-10T00:00:00	2024-11-08T18:00:00	3	Temperatura mínima	19.6
64136	7	Sololá	710	Panajachel	8	Panajachel	10	Octubre	2023-03-10T00:00:00	2024-11-08T18:00:00	5	Humedad	95
64137	7	Sololá	710	Panajachel	8	Panajachel	10	Octubre	2023-03-10T00:00:00	2024-11-08T18:00:00	6	Velocidad del viento	0
64138	7	Sololá	710	Panajachel	8	Panajachel	10	Octubre	2023-03-10T00:00:00	2024-11-08T18:00:00	7	Dirección del viento	0
64139	7	Sololá	710	Panajachel	8	Panajachel	10	Octubre	2023-03-10T00:00:00	2024-11-08T18:00:00	1	Precipitación	0
64140	7	Sololá	710	Panajachel	8	Panajachel	10	Octubre	2023-03-10T00:00:00	2024-11-08T18:00:00	8	Radiación solar	6
64141	7	Sololá	710	Panajachel	8	Panajachel	10	Octubre	2023-03-10T00:00:00	2024-11-08T19:00:00	2	Temperatura media	19.7
64142	7	Sololá	710	Panajachel	8	Panajachel	10	Octubre	2023-03-10T00:00:00	2024-11-08T19:00:00	4	Temperatura máxima	19.7
64143	7	Sololá	710	Panajachel	8	Panajachel	10	Octubre	2023-03-10T00:00:00	2024-11-08T19:00:00	3	Temperatura mínima	19.6
64144	7	Sololá	710	Panajachel	8	Panajachel	10	Octubre	2023-03-10T00:00:00	2024-11-08T19:00:00	5	Humedad	95
64145	7	Sololá	710	Panajachel	8	Panajachel	10	Octubre	2023-03-10T00:00:00	2024-11-08T19:00:00	6	Velocidad del viento	0
64146	7	Sololá	710	Panajachel	8	Panajachel	10	Octubre	2023-03-10T00:00:00	2024-11-08T19:00:00	7	Dirección del viento	0
64147	7	Sololá	710	Panajachel	8	Panajachel	10	Octubre	2023-03-10T00:00:00	2024-11-08T19:00:00	1	Precipitación	0
64148	7	Sololá	710	Panajachel	8	Panajachel	10	Octubre	2023-03-10T00:00:00	2024-11-08T19:00:00	8	Radiación solar	0
64149	7	Sololá	710	Panajachel	8	Panajachel	10	Octubre	2023-03-10T00:00:00	2024-11-08T20:00:00	2	Temperatura media	19.4
64150	7	Sololá	710	Panajachel	8	Panajachel	10	Octubre	2023-03-10T00:00:00	2024-11-08T20:00:00	4	Temperatura máxima	19.7
64151	7	Sololá	710	Panajachel	8	Panajachel	10	Octubre	2023-03-10T00:00:00	2024-11-08T20:00:00	3	Temperatura mínima	19.3
64152	7	Sololá	710	Panajachel	8	Panajachel	10	Octubre	2023-03-10T00:00:00	2024-11-08T20:00:00	5	Humedad	95
64153	7	Sololá	710	Panajachel	8	Panajachel	10	Octubre	2023-03-10T00:00:00	2024-11-08T20:00:00	6	Velocidad del viento	0
64154	7	Sololá	710	Panajachel	8	Panajachel	10	Octubre	2023-03-10T00:00:00	2024-11-08T20:00:00	7	Dirección del viento	0
64155	7	Sololá	710	Panajachel	8	Panajachel	10	Octubre	2023-03-10T00:00:00	2024-11-08T20:00:00	1	Precipitación	0.2
64156	7	Sololá	710	Panajachel	8	Panajachel	10	Octubre	2023-03-10T00:00:00	2024-11-08T20:00:00	8	Radiación solar	0
64157	7	Sololá	710	Panajachel	8	Panajachel	10	Octubre	2023-03-10T00:00:00	2024-11-08T21:00:00	2	Temperatura media	18.8
64158	7	Sololá	710	Panajachel	8	Panajachel	10	Octubre	2023-03-10T00:00:00	2024-11-08T21:00:00	4	Temperatura máxima	19.5
64159	7	Sololá	710	Panajachel	8	Panajachel	10	Octubre	2023-03-10T00:00:00	2024-11-08T21:00:00	3	Temperatura mínima	18.8
64160	7	Sololá	710	Panajachel	8	Panajachel	10	Octubre	2023-03-10T00:00:00	2024-11-08T21:00:00	5	Humedad	97
64161	7	Sololá	710	Panajachel	8	Panajachel	10	Octubre	2023-03-10T00:00:00	2024-11-08T21:00:00	6	Velocidad del viento	1.6
64162	7	Sololá	710	Panajachel	8	Panajachel	10	Octubre	2023-03-10T00:00:00	2024-11-08T21:00:00	7	Dirección del viento	1.61
64163	7	Sololá	710	Panajachel	8	Panajachel	10	Octubre	2023-03-10T00:00:00	2024-11-08T21:00:00	1	Precipitación	8.4
64164	7	Sololá	710	Panajachel	8	Panajachel	10	Octubre	2023-03-10T00:00:00	2024-11-08T21:00:00	8	Radiación solar	0
64165	7	Sololá	710	Panajachel	8	Panajachel	10	Octubre	2023-03-10T00:00:00	2024-11-08T22:00:00	2	Temperatura media	18.2
64166	7	Sololá	710	Panajachel	8	Panajachel	10	Octubre	2023-03-10T00:00:00	2024-11-08T22:00:00	4	Temperatura máxima	18.9
64167	7	Sololá	710	Panajachel	8	Panajachel	10	Octubre	2023-03-10T00:00:00	2024-11-08T22:00:00	3	Temperatura mínima	18.2
64168	7	Sololá	710	Panajachel	8	Panajachel	10	Octubre	2023-03-10T00:00:00	2024-11-08T22:00:00	5	Humedad	97
64169	7	Sololá	710	Panajachel	8	Panajachel	10	Octubre	2023-03-10T00:00:00	2024-11-08T22:00:00	6	Velocidad del viento	0
64170	7	Sololá	710	Panajachel	8	Panajachel	10	Octubre	2023-03-10T00:00:00	2024-11-08T22:00:00	7	Dirección del viento	0
64171	7	Sololá	710	Panajachel	8	Panajachel	10	Octubre	2023-03-10T00:00:00	2024-11-08T22:00:00	1	Precipitación	4.2
64172	7	Sololá	710	Panajachel	8	Panajachel	10	Octubre	2023-03-10T00:00:00	2024-11-08T22:00:00	8	Radiación solar	0
64173	7	Sololá	710	Panajachel	8	Panajachel	10	Octubre	2023-03-10T00:00:00	2024-11-08T23:00:00	2	Temperatura media	18.1
64174	7	Sololá	710	Panajachel	8	Panajachel	10	Octubre	2023-03-10T00:00:00	2024-11-08T23:00:00	4	Temperatura máxima	18.4
64175	7	Sololá	710	Panajachel	8	Panajachel	10	Octubre	2023-03-10T00:00:00	2024-11-08T23:00:00	3	Temperatura mínima	18.1
64176	7	Sololá	710	Panajachel	8	Panajachel	10	Octubre	2023-03-10T00:00:00	2024-11-08T23:00:00	5	Humedad	97
64177	7	Sololá	710	Panajachel	8	Panajachel	10	Octubre	2023-03-10T00:00:00	2024-11-08T23:00:00	6	Velocidad del viento	0
64178	7	Sololá	710	Panajachel	8	Panajachel	10	Octubre	2023-03-10T00:00:00	2024-11-08T23:00:00	7	Dirección del viento	0
64179	7	Sololá	710	Panajachel	8	Panajachel	10	Octubre	2023-03-10T00:00:00	2024-11-08T23:00:00	1	Precipitación	2
64180	7	Sololá	710	Panajachel	8	Panajachel	10	Octubre	2023-03-10T00:00:00	2024-11-08T23:00:00	8	Radiación solar	0
64181	7	Sololá	710	Panajachel	8	Panajachel	10	Octubre	2023-04-10T00:00:00	2024-11-08T00:00:00	2	Temperatura media	17.4
64182	7	Sololá	710	Panajachel	8	Panajachel	10	Octubre	2023-04-10T00:00:00	2024-11-08T00:00:00	4	Temperatura máxima	18.1
64183	7	Sololá	710	Panajachel	8	Panajachel	10	Octubre	2023-04-10T00:00:00	2024-11-08T00:00:00	3	Temperatura mínima	17.4
64184	7	Sololá	710	Panajachel	8	Panajachel	10	Octubre	2023-04-10T00:00:00	2024-11-08T00:00:00	5	Humedad	96
64185	7	Sololá	710	Panajachel	8	Panajachel	10	Octubre	2023-04-10T00:00:00	2024-11-08T00:00:00	6	Velocidad del viento	0
64186	7	Sololá	710	Panajachel	8	Panajachel	10	Octubre	2023-04-10T00:00:00	2024-11-08T00:00:00	7	Dirección del viento	0
64187	7	Sololá	710	Panajachel	8	Panajachel	10	Octubre	2023-04-10T00:00:00	2024-11-08T00:00:00	1	Precipitación	0
64188	7	Sololá	710	Panajachel	8	Panajachel	10	Octubre	2023-04-10T00:00:00	2024-11-08T00:00:00	8	Radiación solar	0
64189	7	Sololá	710	Panajachel	8	Panajachel	10	Octubre	2023-04-10T00:00:00	2024-11-08T01:00:00	2	Temperatura media	16.9
64190	7	Sololá	710	Panajachel	8	Panajachel	10	Octubre	2023-04-10T00:00:00	2024-11-08T01:00:00	4	Temperatura máxima	17.4
64191	7	Sololá	710	Panajachel	8	Panajachel	10	Octubre	2023-04-10T00:00:00	2024-11-08T01:00:00	3	Temperatura mínima	16.9
64192	7	Sololá	710	Panajachel	8	Panajachel	10	Octubre	2023-04-10T00:00:00	2024-11-08T01:00:00	5	Humedad	96
64193	7	Sololá	710	Panajachel	8	Panajachel	10	Octubre	2023-04-10T00:00:00	2024-11-08T01:00:00	6	Velocidad del viento	1.6
64194	7	Sololá	710	Panajachel	8	Panajachel	10	Octubre	2023-04-10T00:00:00	2024-11-08T01:00:00	7	Dirección del viento	1.61
64195	7	Sololá	710	Panajachel	8	Panajachel	10	Octubre	2023-04-10T00:00:00	2024-11-08T01:00:00	1	Precipitación	0
64196	7	Sololá	710	Panajachel	8	Panajachel	10	Octubre	2023-04-10T00:00:00	2024-11-08T01:00:00	8	Radiación solar	0
64197	7	Sololá	710	Panajachel	8	Panajachel	10	Octubre	2023-04-10T00:00:00	2024-11-08T02:00:00	2	Temperatura media	17
64198	7	Sololá	710	Panajachel	8	Panajachel	10	Octubre	2023-04-10T00:00:00	2024-11-08T02:00:00	4	Temperatura máxima	17.1
64199	7	Sololá	710	Panajachel	8	Panajachel	10	Octubre	2023-04-10T00:00:00	2024-11-08T02:00:00	3	Temperatura mínima	16.8
64200	7	Sololá	710	Panajachel	8	Panajachel	10	Octubre	2023-04-10T00:00:00	2024-11-08T02:00:00	5	Humedad	96
64201	7	Sololá	710	Panajachel	8	Panajachel	10	Octubre	2023-04-10T00:00:00	2024-11-08T02:00:00	6	Velocidad del viento	0
64202	7	Sololá	710	Panajachel	8	Panajachel	10	Octubre	2023-04-10T00:00:00	2024-11-08T02:00:00	7	Dirección del viento	0
64203	7	Sololá	710	Panajachel	8	Panajachel	10	Octubre	2023-04-10T00:00:00	2024-11-08T02:00:00	1	Precipitación	0
64204	7	Sololá	710	Panajachel	8	Panajachel	10	Octubre	2023-04-10T00:00:00	2024-11-08T02:00:00	8	Radiación solar	0
64205	7	Sololá	710	Panajachel	8	Panajachel	10	Octubre	2023-04-10T00:00:00	2024-11-08T03:00:00	2	Temperatura media	16.8
64206	7	Sololá	710	Panajachel	8	Panajachel	10	Octubre	2023-04-10T00:00:00	2024-11-08T03:00:00	4	Temperatura máxima	17.2
64207	7	Sololá	710	Panajachel	8	Panajachel	10	Octubre	2023-04-10T00:00:00	2024-11-08T03:00:00	3	Temperatura mínima	16.8
64208	7	Sololá	710	Panajachel	8	Panajachel	10	Octubre	2023-04-10T00:00:00	2024-11-08T03:00:00	5	Humedad	96
64209	7	Sololá	710	Panajachel	8	Panajachel	10	Octubre	2023-04-10T00:00:00	2024-11-08T03:00:00	6	Velocidad del viento	1.6
64210	7	Sololá	710	Panajachel	8	Panajachel	10	Octubre	2023-04-10T00:00:00	2024-11-08T03:00:00	7	Dirección del viento	1.61
64211	7	Sololá	710	Panajachel	8	Panajachel	10	Octubre	2023-04-10T00:00:00	2024-11-08T03:00:00	1	Precipitación	0
64212	7	Sololá	710	Panajachel	8	Panajachel	10	Octubre	2023-04-10T00:00:00	2024-11-08T03:00:00	8	Radiación solar	0
64213	7	Sololá	710	Panajachel	8	Panajachel	10	Octubre	2023-04-10T00:00:00	2024-11-08T04:00:00	2	Temperatura media	16.6
64214	7	Sololá	710	Panajachel	8	Panajachel	10	Octubre	2023-04-10T00:00:00	2024-11-08T04:00:00	4	Temperatura máxima	16.9
64215	7	Sololá	710	Panajachel	8	Panajachel	10	Octubre	2023-04-10T00:00:00	2024-11-08T04:00:00	3	Temperatura mínima	16.6
64216	7	Sololá	710	Panajachel	8	Panajachel	10	Octubre	2023-04-10T00:00:00	2024-11-08T04:00:00	5	Humedad	95
64217	7	Sololá	710	Panajachel	8	Panajachel	10	Octubre	2023-04-10T00:00:00	2024-11-08T04:00:00	6	Velocidad del viento	1.6
64218	7	Sololá	710	Panajachel	8	Panajachel	10	Octubre	2023-04-10T00:00:00	2024-11-08T04:00:00	7	Dirección del viento	1.61
64219	7	Sololá	710	Panajachel	8	Panajachel	10	Octubre	2023-04-10T00:00:00	2024-11-08T04:00:00	1	Precipitación	0
64220	7	Sololá	710	Panajachel	8	Panajachel	10	Octubre	2023-04-10T00:00:00	2024-11-08T04:00:00	8	Radiación solar	0
64221	7	Sololá	710	Panajachel	8	Panajachel	10	Octubre	2023-04-10T00:00:00	2024-11-08T05:00:00	2	Temperatura media	16.8
64222	7	Sololá	710	Panajachel	8	Panajachel	10	Octubre	2023-04-10T00:00:00	2024-11-08T05:00:00	4	Temperatura máxima	16.8
64223	7	Sololá	710	Panajachel	8	Panajachel	10	Octubre	2023-04-10T00:00:00	2024-11-08T05:00:00	3	Temperatura mínima	16.5
64224	7	Sololá	710	Panajachel	8	Panajachel	10	Octubre	2023-04-10T00:00:00	2024-11-08T05:00:00	5	Humedad	95
64225	7	Sololá	710	Panajachel	8	Panajachel	10	Octubre	2023-04-10T00:00:00	2024-11-08T05:00:00	6	Velocidad del viento	1.6
64226	7	Sololá	710	Panajachel	8	Panajachel	10	Octubre	2023-04-10T00:00:00	2024-11-08T05:00:00	7	Dirección del viento	1.61
64227	7	Sololá	710	Panajachel	8	Panajachel	10	Octubre	2023-04-10T00:00:00	2024-11-08T05:00:00	1	Precipitación	0
64228	7	Sololá	710	Panajachel	8	Panajachel	10	Octubre	2023-04-10T00:00:00	2024-11-08T05:00:00	8	Radiación solar	0
64229	7	Sololá	710	Panajachel	8	Panajachel	10	Octubre	2023-04-10T00:00:00	2024-11-08T06:00:00	2	Temperatura media	16.6
64230	7	Sololá	710	Panajachel	8	Panajachel	10	Octubre	2023-04-10T00:00:00	2024-11-08T06:00:00	4	Temperatura máxima	17
64231	7	Sololá	710	Panajachel	8	Panajachel	10	Octubre	2023-04-10T00:00:00	2024-11-08T06:00:00	3	Temperatura mínima	16.6
64232	7	Sololá	710	Panajachel	8	Panajachel	10	Octubre	2023-04-10T00:00:00	2024-11-08T06:00:00	5	Humedad	95
64233	7	Sololá	710	Panajachel	8	Panajachel	10	Octubre	2023-04-10T00:00:00	2024-11-08T06:00:00	6	Velocidad del viento	1.6
64234	7	Sololá	710	Panajachel	8	Panajachel	10	Octubre	2023-04-10T00:00:00	2024-11-08T06:00:00	7	Dirección del viento	1.61
64235	7	Sololá	710	Panajachel	8	Panajachel	10	Octubre	2023-04-10T00:00:00	2024-11-08T06:00:00	1	Precipitación	0
64236	7	Sololá	710	Panajachel	8	Panajachel	10	Octubre	2023-04-10T00:00:00	2024-11-08T06:00:00	8	Radiación solar	0
64237	7	Sololá	710	Panajachel	8	Panajachel	10	Octubre	2023-04-10T00:00:00	2024-11-08T07:00:00	2	Temperatura media	17.8
64238	7	Sololá	710	Panajachel	8	Panajachel	10	Octubre	2023-04-10T00:00:00	2024-11-08T07:00:00	4	Temperatura máxima	17.8
64239	7	Sololá	710	Panajachel	8	Panajachel	10	Octubre	2023-04-10T00:00:00	2024-11-08T07:00:00	3	Temperatura mínima	16.6
64240	7	Sololá	710	Panajachel	8	Panajachel	10	Octubre	2023-04-10T00:00:00	2024-11-08T07:00:00	5	Humedad	92
64241	7	Sololá	710	Panajachel	8	Panajachel	10	Octubre	2023-04-10T00:00:00	2024-11-08T07:00:00	6	Velocidad del viento	1.6
64242	7	Sololá	710	Panajachel	8	Panajachel	10	Octubre	2023-04-10T00:00:00	2024-11-08T07:00:00	7	Dirección del viento	1.61
64243	7	Sololá	710	Panajachel	8	Panajachel	10	Octubre	2023-04-10T00:00:00	2024-11-08T07:00:00	1	Precipitación	0
64244	7	Sololá	710	Panajachel	8	Panajachel	10	Octubre	2023-04-10T00:00:00	2024-11-08T07:00:00	8	Radiación solar	65
64245	7	Sololá	710	Panajachel	8	Panajachel	10	Octubre	2023-04-10T00:00:00	2024-11-08T08:00:00	2	Temperatura media	21.2
64246	7	Sololá	710	Panajachel	8	Panajachel	10	Octubre	2023-04-10T00:00:00	2024-11-08T08:00:00	4	Temperatura máxima	21.2
64247	7	Sololá	710	Panajachel	8	Panajachel	10	Octubre	2023-04-10T00:00:00	2024-11-08T08:00:00	3	Temperatura mínima	17.8
64248	7	Sololá	710	Panajachel	8	Panajachel	10	Octubre	2023-04-10T00:00:00	2024-11-08T08:00:00	5	Humedad	85
64249	7	Sololá	710	Panajachel	8	Panajachel	10	Octubre	2023-04-10T00:00:00	2024-11-08T08:00:00	6	Velocidad del viento	0
64250	7	Sololá	710	Panajachel	8	Panajachel	10	Octubre	2023-04-10T00:00:00	2024-11-08T08:00:00	7	Dirección del viento	0
64251	7	Sololá	710	Panajachel	8	Panajachel	10	Octubre	2023-04-10T00:00:00	2024-11-08T08:00:00	1	Precipitación	0
64252	7	Sololá	710	Panajachel	8	Panajachel	10	Octubre	2023-04-10T00:00:00	2024-11-08T08:00:00	8	Radiación solar	301
64253	7	Sololá	710	Panajachel	8	Panajachel	10	Octubre	2023-04-10T00:00:00	2024-11-08T09:00:00	2	Temperatura media	20.9
64254	7	Sololá	710	Panajachel	8	Panajachel	10	Octubre	2023-04-10T00:00:00	2024-11-08T09:00:00	4	Temperatura máxima	21.5
64255	7	Sololá	710	Panajachel	8	Panajachel	10	Octubre	2023-04-10T00:00:00	2024-11-08T09:00:00	3	Temperatura mínima	20.8
64256	7	Sololá	710	Panajachel	8	Panajachel	10	Octubre	2023-04-10T00:00:00	2024-11-08T09:00:00	5	Humedad	86
64257	7	Sololá	710	Panajachel	8	Panajachel	10	Octubre	2023-04-10T00:00:00	2024-11-08T09:00:00	6	Velocidad del viento	0
64258	7	Sololá	710	Panajachel	8	Panajachel	10	Octubre	2023-04-10T00:00:00	2024-11-08T09:00:00	7	Dirección del viento	0
64259	7	Sololá	710	Panajachel	8	Panajachel	10	Octubre	2023-04-10T00:00:00	2024-11-08T09:00:00	1	Precipitación	0
64260	7	Sololá	710	Panajachel	8	Panajachel	10	Octubre	2023-04-10T00:00:00	2024-11-08T09:00:00	8	Radiación solar	511
64261	7	Sololá	710	Panajachel	8	Panajachel	10	Octubre	2023-04-10T00:00:00	2024-11-08T10:00:00	2	Temperatura media	22.6
64262	7	Sololá	710	Panajachel	8	Panajachel	10	Octubre	2023-04-10T00:00:00	2024-11-08T10:00:00	4	Temperatura máxima	22.7
64263	7	Sololá	710	Panajachel	8	Panajachel	10	Octubre	2023-04-10T00:00:00	2024-11-08T10:00:00	3	Temperatura mínima	20.9
64264	7	Sololá	710	Panajachel	8	Panajachel	10	Octubre	2023-04-10T00:00:00	2024-11-08T10:00:00	5	Humedad	79
64265	7	Sololá	710	Panajachel	8	Panajachel	10	Octubre	2023-04-10T00:00:00	2024-11-08T10:00:00	6	Velocidad del viento	1.6
64266	7	Sololá	710	Panajachel	8	Panajachel	10	Octubre	2023-04-10T00:00:00	2024-11-08T10:00:00	7	Dirección del viento	1.61
64267	7	Sololá	710	Panajachel	8	Panajachel	10	Octubre	2023-04-10T00:00:00	2024-11-08T10:00:00	1	Precipitación	0
64268	7	Sololá	710	Panajachel	8	Panajachel	10	Octubre	2023-04-10T00:00:00	2024-11-08T10:00:00	8	Radiación solar	693
64269	7	Sololá	710	Panajachel	8	Panajachel	10	Octubre	2023-04-10T00:00:00	2024-11-08T11:00:00	2	Temperatura media	23.4
64270	7	Sololá	710	Panajachel	8	Panajachel	10	Octubre	2023-04-10T00:00:00	2024-11-08T11:00:00	4	Temperatura máxima	23.5
64271	7	Sololá	710	Panajachel	8	Panajachel	10	Octubre	2023-04-10T00:00:00	2024-11-08T11:00:00	3	Temperatura mínima	22.1
64272	7	Sololá	710	Panajachel	8	Panajachel	10	Octubre	2023-04-10T00:00:00	2024-11-08T11:00:00	5	Humedad	77
64273	7	Sololá	710	Panajachel	8	Panajachel	10	Octubre	2023-04-10T00:00:00	2024-11-08T11:00:00	6	Velocidad del viento	3.2
64274	7	Sololá	710	Panajachel	8	Panajachel	10	Octubre	2023-04-10T00:00:00	2024-11-08T11:00:00	7	Dirección del viento	3.22
64275	7	Sololá	710	Panajachel	8	Panajachel	10	Octubre	2023-04-10T00:00:00	2024-11-08T11:00:00	1	Precipitación	0
64276	7	Sololá	710	Panajachel	8	Panajachel	10	Octubre	2023-04-10T00:00:00	2024-11-08T11:00:00	8	Radiación solar	832
64277	7	Sololá	710	Panajachel	8	Panajachel	10	Octubre	2023-04-10T00:00:00	2024-11-08T12:00:00	2	Temperatura media	24.5
64278	7	Sololá	710	Panajachel	8	Panajachel	10	Octubre	2023-04-10T00:00:00	2024-11-08T12:00:00	4	Temperatura máxima	24.8
64279	7	Sololá	710	Panajachel	8	Panajachel	10	Octubre	2023-04-10T00:00:00	2024-11-08T12:00:00	3	Temperatura mínima	23.5
64280	7	Sololá	710	Panajachel	8	Panajachel	10	Octubre	2023-04-10T00:00:00	2024-11-08T12:00:00	5	Humedad	82
64281	7	Sololá	710	Panajachel	8	Panajachel	10	Octubre	2023-04-10T00:00:00	2024-11-08T12:00:00	6	Velocidad del viento	3.2
64282	7	Sololá	710	Panajachel	8	Panajachel	10	Octubre	2023-04-10T00:00:00	2024-11-08T12:00:00	7	Dirección del viento	3.22
64283	7	Sololá	710	Panajachel	8	Panajachel	10	Octubre	2023-04-10T00:00:00	2024-11-08T12:00:00	1	Precipitación	0
64284	7	Sololá	710	Panajachel	8	Panajachel	10	Octubre	2023-04-10T00:00:00	2024-11-08T12:00:00	8	Radiación solar	891
64285	7	Sololá	710	Panajachel	8	Panajachel	10	Octubre	2023-04-10T00:00:00	2024-11-08T13:00:00	2	Temperatura media	23.8
64286	7	Sololá	710	Panajachel	8	Panajachel	10	Octubre	2023-04-10T00:00:00	2024-11-08T13:00:00	4	Temperatura máxima	24.8
64287	7	Sololá	710	Panajachel	8	Panajachel	10	Octubre	2023-04-10T00:00:00	2024-11-08T13:00:00	3	Temperatura mínima	23.4
64288	7	Sololá	710	Panajachel	8	Panajachel	10	Octubre	2023-04-10T00:00:00	2024-11-08T13:00:00	5	Humedad	83
64289	7	Sololá	710	Panajachel	8	Panajachel	10	Octubre	2023-04-10T00:00:00	2024-11-08T13:00:00	6	Velocidad del viento	3.2
64290	7	Sololá	710	Panajachel	8	Panajachel	10	Octubre	2023-04-10T00:00:00	2024-11-08T13:00:00	7	Dirección del viento	3.22
64291	7	Sololá	710	Panajachel	8	Panajachel	10	Octubre	2023-04-10T00:00:00	2024-11-08T13:00:00	1	Precipitación	0
64292	7	Sololá	710	Panajachel	8	Panajachel	10	Octubre	2023-04-10T00:00:00	2024-11-08T13:00:00	8	Radiación solar	358
64293	7	Sololá	710	Panajachel	8	Panajachel	10	Octubre	2023-04-10T00:00:00	2024-11-08T14:00:00	2	Temperatura media	21.3
64294	7	Sololá	710	Panajachel	8	Panajachel	10	Octubre	2023-04-10T00:00:00	2024-11-08T14:00:00	4	Temperatura máxima	24.6
64295	7	Sololá	710	Panajachel	8	Panajachel	10	Octubre	2023-04-10T00:00:00	2024-11-08T14:00:00	3	Temperatura mínima	21.3
64296	7	Sololá	710	Panajachel	8	Panajachel	10	Octubre	2023-04-10T00:00:00	2024-11-08T14:00:00	5	Humedad	93
64297	7	Sololá	710	Panajachel	8	Panajachel	10	Octubre	2023-04-10T00:00:00	2024-11-08T14:00:00	6	Velocidad del viento	4.8
64298	7	Sololá	710	Panajachel	8	Panajachel	10	Octubre	2023-04-10T00:00:00	2024-11-08T14:00:00	7	Dirección del viento	4.83
64299	7	Sololá	710	Panajachel	8	Panajachel	10	Octubre	2023-04-10T00:00:00	2024-11-08T14:00:00	1	Precipitación	2
64300	7	Sololá	710	Panajachel	8	Panajachel	10	Octubre	2023-04-10T00:00:00	2024-11-08T14:00:00	8	Radiación solar	330
64301	7	Sololá	710	Panajachel	8	Panajachel	10	Octubre	2023-04-10T00:00:00	2024-11-08T15:00:00	2	Temperatura media	20.9
64302	7	Sololá	710	Panajachel	8	Panajachel	10	Octubre	2023-04-10T00:00:00	2024-11-08T15:00:00	4	Temperatura máxima	21.6
64303	7	Sololá	710	Panajachel	8	Panajachel	10	Octubre	2023-04-10T00:00:00	2024-11-08T15:00:00	3	Temperatura mínima	20.9
64304	7	Sololá	710	Panajachel	8	Panajachel	10	Octubre	2023-04-10T00:00:00	2024-11-08T15:00:00	5	Humedad	93
64305	7	Sololá	710	Panajachel	8	Panajachel	10	Octubre	2023-04-10T00:00:00	2024-11-08T15:00:00	6	Velocidad del viento	3.2
64306	7	Sololá	710	Panajachel	8	Panajachel	10	Octubre	2023-04-10T00:00:00	2024-11-08T15:00:00	7	Dirección del viento	3.22
64307	7	Sololá	710	Panajachel	8	Panajachel	10	Octubre	2023-04-10T00:00:00	2024-11-08T15:00:00	1	Precipitación	0
64308	7	Sololá	710	Panajachel	8	Panajachel	10	Octubre	2023-04-10T00:00:00	2024-11-08T15:00:00	8	Radiación solar	142
64309	7	Sololá	710	Panajachel	8	Panajachel	10	Octubre	2023-04-10T00:00:00	2024-11-08T16:00:00	2	Temperatura media	19.2
64310	7	Sololá	710	Panajachel	8	Panajachel	10	Octubre	2023-04-10T00:00:00	2024-11-08T16:00:00	4	Temperatura máxima	20.8
64311	7	Sololá	710	Panajachel	8	Panajachel	10	Octubre	2023-04-10T00:00:00	2024-11-08T16:00:00	3	Temperatura mínima	19.1
64312	7	Sololá	710	Panajachel	8	Panajachel	10	Octubre	2023-04-10T00:00:00	2024-11-08T16:00:00	5	Humedad	97
64313	7	Sololá	710	Panajachel	8	Panajachel	10	Octubre	2023-04-10T00:00:00	2024-11-08T16:00:00	6	Velocidad del viento	3.2
64314	7	Sololá	710	Panajachel	8	Panajachel	10	Octubre	2023-04-10T00:00:00	2024-11-08T16:00:00	7	Dirección del viento	3.22
64315	7	Sololá	710	Panajachel	8	Panajachel	10	Octubre	2023-04-10T00:00:00	2024-11-08T16:00:00	1	Precipitación	11.2
64316	7	Sololá	710	Panajachel	8	Panajachel	10	Octubre	2023-04-10T00:00:00	2024-11-08T16:00:00	8	Radiación solar	13
64317	7	Sololá	710	Panajachel	8	Panajachel	10	Octubre	2023-04-10T00:00:00	2024-11-08T17:00:00	2	Temperatura media	19.2
64318	7	Sololá	710	Panajachel	8	Panajachel	10	Octubre	2023-04-10T00:00:00	2024-11-08T17:00:00	4	Temperatura máxima	19.6
64319	7	Sololá	710	Panajachel	8	Panajachel	10	Octubre	2023-04-10T00:00:00	2024-11-08T17:00:00	3	Temperatura mínima	19.1
64320	7	Sololá	710	Panajachel	8	Panajachel	10	Octubre	2023-04-10T00:00:00	2024-11-08T17:00:00	5	Humedad	97
64321	7	Sololá	710	Panajachel	8	Panajachel	10	Octubre	2023-04-10T00:00:00	2024-11-08T17:00:00	6	Velocidad del viento	1.6
64322	7	Sololá	710	Panajachel	8	Panajachel	10	Octubre	2023-04-10T00:00:00	2024-11-08T17:00:00	7	Dirección del viento	1.61
64323	7	Sololá	710	Panajachel	8	Panajachel	10	Octubre	2023-04-10T00:00:00	2024-11-08T17:00:00	1	Precipitación	0
64324	7	Sololá	710	Panajachel	8	Panajachel	10	Octubre	2023-04-10T00:00:00	2024-11-08T17:00:00	8	Radiación solar	13
64325	7	Sololá	710	Panajachel	8	Panajachel	10	Octubre	2023-04-10T00:00:00	2024-11-08T18:00:00	2	Temperatura media	19.1
64326	7	Sololá	710	Panajachel	8	Panajachel	10	Octubre	2023-04-10T00:00:00	2024-11-08T18:00:00	4	Temperatura máxima	19.3
64327	7	Sololá	710	Panajachel	8	Panajachel	10	Octubre	2023-04-10T00:00:00	2024-11-08T18:00:00	3	Temperatura mínima	19.1
64328	7	Sololá	710	Panajachel	8	Panajachel	10	Octubre	2023-04-10T00:00:00	2024-11-08T18:00:00	5	Humedad	97
64329	7	Sololá	710	Panajachel	8	Panajachel	10	Octubre	2023-04-10T00:00:00	2024-11-08T18:00:00	6	Velocidad del viento	0
64330	7	Sololá	710	Panajachel	8	Panajachel	10	Octubre	2023-04-10T00:00:00	2024-11-08T18:00:00	7	Dirección del viento	0
64331	7	Sololá	710	Panajachel	8	Panajachel	10	Octubre	2023-04-10T00:00:00	2024-11-08T18:00:00	1	Precipitación	0
64332	7	Sololá	710	Panajachel	8	Panajachel	10	Octubre	2023-04-10T00:00:00	2024-11-08T18:00:00	8	Radiación solar	7
64333	7	Sololá	710	Panajachel	8	Panajachel	10	Octubre	2023-04-10T00:00:00	2024-11-08T19:00:00	2	Temperatura media	18.5
64334	7	Sololá	710	Panajachel	8	Panajachel	10	Octubre	2023-04-10T00:00:00	2024-11-08T19:00:00	4	Temperatura máxima	19.1
64335	7	Sololá	710	Panajachel	8	Panajachel	10	Octubre	2023-04-10T00:00:00	2024-11-08T19:00:00	3	Temperatura mínima	18.5
64336	7	Sololá	710	Panajachel	8	Panajachel	10	Octubre	2023-04-10T00:00:00	2024-11-08T19:00:00	5	Humedad	97
64337	7	Sololá	710	Panajachel	8	Panajachel	10	Octubre	2023-04-10T00:00:00	2024-11-08T19:00:00	6	Velocidad del viento	0
64338	7	Sololá	710	Panajachel	8	Panajachel	10	Octubre	2023-04-10T00:00:00	2024-11-08T19:00:00	7	Dirección del viento	0
64339	7	Sololá	710	Panajachel	8	Panajachel	10	Octubre	2023-04-10T00:00:00	2024-11-08T19:00:00	1	Precipitación	0
64340	7	Sololá	710	Panajachel	8	Panajachel	10	Octubre	2023-04-10T00:00:00	2024-11-08T19:00:00	8	Radiación solar	0
64341	7	Sololá	710	Panajachel	8	Panajachel	10	Octubre	2023-04-10T00:00:00	2024-11-08T20:00:00	2	Temperatura media	18.4
64342	7	Sololá	710	Panajachel	8	Panajachel	10	Octubre	2023-04-10T00:00:00	2024-11-08T20:00:00	4	Temperatura máxima	18.6
64343	7	Sololá	710	Panajachel	8	Panajachel	10	Octubre	2023-04-10T00:00:00	2024-11-08T20:00:00	3	Temperatura mínima	18.1
64344	7	Sololá	710	Panajachel	8	Panajachel	10	Octubre	2023-04-10T00:00:00	2024-11-08T20:00:00	5	Humedad	97
64345	7	Sololá	710	Panajachel	8	Panajachel	10	Octubre	2023-04-10T00:00:00	2024-11-08T20:00:00	6	Velocidad del viento	1.6
64346	7	Sololá	710	Panajachel	8	Panajachel	10	Octubre	2023-04-10T00:00:00	2024-11-08T20:00:00	7	Dirección del viento	1.61
64347	7	Sololá	710	Panajachel	8	Panajachel	10	Octubre	2023-04-10T00:00:00	2024-11-08T20:00:00	1	Precipitación	0
64348	7	Sololá	710	Panajachel	8	Panajachel	10	Octubre	2023-04-10T00:00:00	2024-11-08T20:00:00	8	Radiación solar	0
64349	7	Sololá	710	Panajachel	8	Panajachel	10	Octubre	2023-04-10T00:00:00	2024-11-08T21:00:00	2	Temperatura media	18.2
64350	7	Sololá	710	Panajachel	8	Panajachel	10	Octubre	2023-04-10T00:00:00	2024-11-08T21:00:00	4	Temperatura máxima	18.8
64351	7	Sololá	710	Panajachel	8	Panajachel	10	Octubre	2023-04-10T00:00:00	2024-11-08T21:00:00	3	Temperatura mínima	18.2
64352	7	Sololá	710	Panajachel	8	Panajachel	10	Octubre	2023-04-10T00:00:00	2024-11-08T21:00:00	5	Humedad	96
64353	7	Sololá	710	Panajachel	8	Panajachel	10	Octubre	2023-04-10T00:00:00	2024-11-08T21:00:00	6	Velocidad del viento	0
64354	7	Sololá	710	Panajachel	8	Panajachel	10	Octubre	2023-04-10T00:00:00	2024-11-08T21:00:00	7	Dirección del viento	0
64355	7	Sololá	710	Panajachel	8	Panajachel	10	Octubre	2023-04-10T00:00:00	2024-11-08T21:00:00	1	Precipitación	0
64356	7	Sololá	710	Panajachel	8	Panajachel	10	Octubre	2023-04-10T00:00:00	2024-11-08T21:00:00	8	Radiación solar	0
64357	7	Sololá	710	Panajachel	8	Panajachel	10	Octubre	2023-04-10T00:00:00	2024-11-08T22:00:00	2	Temperatura media	18.3
64358	7	Sololá	710	Panajachel	8	Panajachel	10	Octubre	2023-04-10T00:00:00	2024-11-08T22:00:00	4	Temperatura máxima	18.3
64359	7	Sololá	710	Panajachel	8	Panajachel	10	Octubre	2023-04-10T00:00:00	2024-11-08T22:00:00	3	Temperatura mínima	18.1
64360	7	Sololá	710	Panajachel	8	Panajachel	10	Octubre	2023-04-10T00:00:00	2024-11-08T22:00:00	5	Humedad	95
64361	7	Sololá	710	Panajachel	8	Panajachel	10	Octubre	2023-04-10T00:00:00	2024-11-08T22:00:00	6	Velocidad del viento	1.6
64362	7	Sololá	710	Panajachel	8	Panajachel	10	Octubre	2023-04-10T00:00:00	2024-11-08T22:00:00	7	Dirección del viento	1.61
64363	7	Sololá	710	Panajachel	8	Panajachel	10	Octubre	2023-04-10T00:00:00	2024-11-08T22:00:00	1	Precipitación	0
64364	7	Sololá	710	Panajachel	8	Panajachel	10	Octubre	2023-04-10T00:00:00	2024-11-08T22:00:00	8	Radiación solar	0
64365	7	Sololá	710	Panajachel	8	Panajachel	10	Octubre	2023-04-10T00:00:00	2024-11-08T23:00:00	2	Temperatura media	18
64366	7	Sololá	710	Panajachel	8	Panajachel	10	Octubre	2023-04-10T00:00:00	2024-11-08T23:00:00	4	Temperatura máxima	18.3
64367	7	Sololá	710	Panajachel	8	Panajachel	10	Octubre	2023-04-10T00:00:00	2024-11-08T23:00:00	3	Temperatura mínima	18
64368	7	Sololá	710	Panajachel	8	Panajachel	10	Octubre	2023-04-10T00:00:00	2024-11-08T23:00:00	5	Humedad	96
64369	7	Sololá	710	Panajachel	8	Panajachel	10	Octubre	2023-04-10T00:00:00	2024-11-08T23:00:00	6	Velocidad del viento	0
64370	7	Sololá	710	Panajachel	8	Panajachel	10	Octubre	2023-04-10T00:00:00	2024-11-08T23:00:00	7	Dirección del viento	0
64371	7	Sololá	710	Panajachel	8	Panajachel	10	Octubre	2023-04-10T00:00:00	2024-11-08T23:00:00	1	Precipitación	0
64372	7	Sololá	710	Panajachel	8	Panajachel	10	Octubre	2023-04-10T00:00:00	2024-11-08T23:00:00	8	Radiación solar	0
64373	7	Sololá	710	Panajachel	8	Panajachel	10	Octubre	2023-05-10T00:00:00	2024-11-08T00:00:00	2	Temperatura media	17.9
64374	7	Sololá	710	Panajachel	8	Panajachel	10	Octubre	2023-05-10T00:00:00	2024-11-08T00:00:00	4	Temperatura máxima	18.1
64375	7	Sololá	710	Panajachel	8	Panajachel	10	Octubre	2023-05-10T00:00:00	2024-11-08T00:00:00	3	Temperatura mínima	17.9
64376	7	Sololá	710	Panajachel	8	Panajachel	10	Octubre	2023-05-10T00:00:00	2024-11-08T00:00:00	5	Humedad	94
64377	7	Sololá	710	Panajachel	8	Panajachel	10	Octubre	2023-05-10T00:00:00	2024-11-08T00:00:00	6	Velocidad del viento	1.6
64378	7	Sololá	710	Panajachel	8	Panajachel	10	Octubre	2023-05-10T00:00:00	2024-11-08T00:00:00	7	Dirección del viento	1.61
64379	7	Sololá	710	Panajachel	8	Panajachel	10	Octubre	2023-05-10T00:00:00	2024-11-08T00:00:00	1	Precipitación	0
64380	7	Sololá	710	Panajachel	8	Panajachel	10	Octubre	2023-05-10T00:00:00	2024-11-08T00:00:00	8	Radiación solar	0
64381	7	Sololá	710	Panajachel	8	Panajachel	10	Octubre	2023-05-10T00:00:00	2024-11-08T01:00:00	2	Temperatura media	17.4
64382	7	Sololá	710	Panajachel	8	Panajachel	10	Octubre	2023-05-10T00:00:00	2024-11-08T01:00:00	4	Temperatura máxima	17.9
64383	7	Sololá	710	Panajachel	8	Panajachel	10	Octubre	2023-05-10T00:00:00	2024-11-08T01:00:00	3	Temperatura mínima	17.4
64384	7	Sololá	710	Panajachel	8	Panajachel	10	Octubre	2023-05-10T00:00:00	2024-11-08T01:00:00	5	Humedad	94
64385	7	Sololá	710	Panajachel	8	Panajachel	10	Octubre	2023-05-10T00:00:00	2024-11-08T01:00:00	6	Velocidad del viento	3.2
64386	7	Sololá	710	Panajachel	8	Panajachel	10	Octubre	2023-05-10T00:00:00	2024-11-08T01:00:00	7	Dirección del viento	3.22
64387	7	Sololá	710	Panajachel	8	Panajachel	10	Octubre	2023-05-10T00:00:00	2024-11-08T01:00:00	1	Precipitación	0
64388	7	Sololá	710	Panajachel	8	Panajachel	10	Octubre	2023-05-10T00:00:00	2024-11-08T01:00:00	8	Radiación solar	0
64389	7	Sololá	710	Panajachel	8	Panajachel	10	Octubre	2023-05-10T00:00:00	2024-11-08T02:00:00	2	Temperatura media	17.4
64390	7	Sololá	710	Panajachel	8	Panajachel	10	Octubre	2023-05-10T00:00:00	2024-11-08T02:00:00	4	Temperatura máxima	17.7
64391	7	Sololá	710	Panajachel	8	Panajachel	10	Octubre	2023-05-10T00:00:00	2024-11-08T02:00:00	3	Temperatura mínima	17.4
64392	7	Sololá	710	Panajachel	8	Panajachel	10	Octubre	2023-05-10T00:00:00	2024-11-08T02:00:00	5	Humedad	93
64393	7	Sololá	710	Panajachel	8	Panajachel	10	Octubre	2023-05-10T00:00:00	2024-11-08T02:00:00	6	Velocidad del viento	3.2
64394	7	Sololá	710	Panajachel	8	Panajachel	10	Octubre	2023-05-10T00:00:00	2024-11-08T02:00:00	7	Dirección del viento	3.22
64395	7	Sololá	710	Panajachel	8	Panajachel	10	Octubre	2023-05-10T00:00:00	2024-11-08T02:00:00	1	Precipitación	0
64396	7	Sololá	710	Panajachel	8	Panajachel	10	Octubre	2023-05-10T00:00:00	2024-11-08T02:00:00	8	Radiación solar	0
64397	7	Sololá	710	Panajachel	8	Panajachel	10	Octubre	2023-05-10T00:00:00	2024-11-08T03:00:00	2	Temperatura media	17.7
64398	7	Sololá	710	Panajachel	8	Panajachel	10	Octubre	2023-05-10T00:00:00	2024-11-08T03:00:00	4	Temperatura máxima	17.7
64399	7	Sololá	710	Panajachel	8	Panajachel	10	Octubre	2023-05-10T00:00:00	2024-11-08T03:00:00	3	Temperatura mínima	17.3
64400	7	Sololá	710	Panajachel	8	Panajachel	10	Octubre	2023-05-10T00:00:00	2024-11-08T03:00:00	5	Humedad	89
64401	7	Sololá	710	Panajachel	8	Panajachel	10	Octubre	2023-05-10T00:00:00	2024-11-08T03:00:00	6	Velocidad del viento	1.6
64402	7	Sololá	710	Panajachel	8	Panajachel	10	Octubre	2023-05-10T00:00:00	2024-11-08T03:00:00	7	Dirección del viento	1.61
64403	7	Sololá	710	Panajachel	8	Panajachel	10	Octubre	2023-05-10T00:00:00	2024-11-08T03:00:00	1	Precipitación	0
64404	7	Sololá	710	Panajachel	8	Panajachel	10	Octubre	2023-05-10T00:00:00	2024-11-08T03:00:00	8	Radiación solar	0
64405	7	Sololá	710	Panajachel	8	Panajachel	10	Octubre	2023-05-10T00:00:00	2024-11-08T04:00:00	2	Temperatura media	17.2
64406	7	Sololá	710	Panajachel	8	Panajachel	10	Octubre	2023-05-10T00:00:00	2024-11-08T04:00:00	4	Temperatura máxima	17.8
64407	7	Sololá	710	Panajachel	8	Panajachel	10	Octubre	2023-05-10T00:00:00	2024-11-08T04:00:00	3	Temperatura mínima	17.2
64408	7	Sololá	710	Panajachel	8	Panajachel	10	Octubre	2023-05-10T00:00:00	2024-11-08T04:00:00	5	Humedad	90
64409	7	Sololá	710	Panajachel	8	Panajachel	10	Octubre	2023-05-10T00:00:00	2024-11-08T04:00:00	6	Velocidad del viento	1.6
64410	7	Sololá	710	Panajachel	8	Panajachel	10	Octubre	2023-05-10T00:00:00	2024-11-08T04:00:00	7	Dirección del viento	1.61
64411	7	Sololá	710	Panajachel	8	Panajachel	10	Octubre	2023-05-10T00:00:00	2024-11-08T04:00:00	1	Precipitación	0
64412	7	Sololá	710	Panajachel	8	Panajachel	10	Octubre	2023-05-10T00:00:00	2024-11-08T04:00:00	8	Radiación solar	0
64413	7	Sololá	710	Panajachel	8	Panajachel	10	Octubre	2023-05-10T00:00:00	2024-11-08T05:00:00	2	Temperatura media	17.4
64414	7	Sololá	710	Panajachel	8	Panajachel	10	Octubre	2023-05-10T00:00:00	2024-11-08T05:00:00	4	Temperatura máxima	17.6
64415	7	Sololá	710	Panajachel	8	Panajachel	10	Octubre	2023-05-10T00:00:00	2024-11-08T05:00:00	3	Temperatura mínima	16.8
64416	7	Sololá	710	Panajachel	8	Panajachel	10	Octubre	2023-05-10T00:00:00	2024-11-08T05:00:00	5	Humedad	88
64417	7	Sololá	710	Panajachel	8	Panajachel	10	Octubre	2023-05-10T00:00:00	2024-11-08T05:00:00	6	Velocidad del viento	1.6
64418	7	Sololá	710	Panajachel	8	Panajachel	10	Octubre	2023-05-10T00:00:00	2024-11-08T05:00:00	7	Dirección del viento	1.61
64419	7	Sololá	710	Panajachel	8	Panajachel	10	Octubre	2023-05-10T00:00:00	2024-11-08T05:00:00	1	Precipitación	0
64420	7	Sololá	710	Panajachel	8	Panajachel	10	Octubre	2023-05-10T00:00:00	2024-11-08T05:00:00	8	Radiación solar	0
64421	7	Sololá	710	Panajachel	8	Panajachel	10	Octubre	2023-05-10T00:00:00	2024-11-08T06:00:00	2	Temperatura media	16.2
64422	7	Sololá	710	Panajachel	8	Panajachel	10	Octubre	2023-05-10T00:00:00	2024-11-08T06:00:00	4	Temperatura máxima	17.4
64423	7	Sololá	710	Panajachel	8	Panajachel	10	Octubre	2023-05-10T00:00:00	2024-11-08T06:00:00	3	Temperatura mínima	16.2
64424	7	Sololá	710	Panajachel	8	Panajachel	10	Octubre	2023-05-10T00:00:00	2024-11-08T06:00:00	5	Humedad	93
64425	7	Sololá	710	Panajachel	8	Panajachel	10	Octubre	2023-05-10T00:00:00	2024-11-08T06:00:00	6	Velocidad del viento	0
64426	7	Sololá	710	Panajachel	8	Panajachel	10	Octubre	2023-05-10T00:00:00	2024-11-08T06:00:00	7	Dirección del viento	0
64427	7	Sololá	710	Panajachel	8	Panajachel	10	Octubre	2023-05-10T00:00:00	2024-11-08T06:00:00	1	Precipitación	0
64428	7	Sololá	710	Panajachel	8	Panajachel	10	Octubre	2023-05-10T00:00:00	2024-11-08T06:00:00	8	Radiación solar	0
64429	7	Sololá	710	Panajachel	8	Panajachel	10	Octubre	2023-05-10T00:00:00	2024-11-08T07:00:00	2	Temperatura media	17.8
64430	7	Sololá	710	Panajachel	8	Panajachel	10	Octubre	2023-05-10T00:00:00	2024-11-08T07:00:00	4	Temperatura máxima	17.8
64431	7	Sololá	710	Panajachel	8	Panajachel	10	Octubre	2023-05-10T00:00:00	2024-11-08T07:00:00	3	Temperatura mínima	16.1
64432	7	Sololá	710	Panajachel	8	Panajachel	10	Octubre	2023-05-10T00:00:00	2024-11-08T07:00:00	5	Humedad	86
64433	7	Sololá	710	Panajachel	8	Panajachel	10	Octubre	2023-05-10T00:00:00	2024-11-08T07:00:00	6	Velocidad del viento	1.6
64434	7	Sololá	710	Panajachel	8	Panajachel	10	Octubre	2023-05-10T00:00:00	2024-11-08T07:00:00	7	Dirección del viento	1.61
64435	7	Sololá	710	Panajachel	8	Panajachel	10	Octubre	2023-05-10T00:00:00	2024-11-08T07:00:00	1	Precipitación	0
64436	7	Sololá	710	Panajachel	8	Panajachel	10	Octubre	2023-05-10T00:00:00	2024-11-08T07:00:00	8	Radiación solar	57
64437	7	Sololá	710	Panajachel	8	Panajachel	10	Octubre	2023-05-10T00:00:00	2024-11-08T08:00:00	2	Temperatura media	20.7
64438	7	Sololá	710	Panajachel	8	Panajachel	10	Octubre	2023-05-10T00:00:00	2024-11-08T08:00:00	4	Temperatura máxima	20.7
64439	7	Sololá	710	Panajachel	8	Panajachel	10	Octubre	2023-05-10T00:00:00	2024-11-08T08:00:00	3	Temperatura mínima	17.8
64440	7	Sololá	710	Panajachel	8	Panajachel	10	Octubre	2023-05-10T00:00:00	2024-11-08T08:00:00	5	Humedad	78
64441	7	Sololá	710	Panajachel	8	Panajachel	10	Octubre	2023-05-10T00:00:00	2024-11-08T08:00:00	6	Velocidad del viento	1.6
64442	7	Sololá	710	Panajachel	8	Panajachel	10	Octubre	2023-05-10T00:00:00	2024-11-08T08:00:00	7	Dirección del viento	1.61
64443	7	Sololá	710	Panajachel	8	Panajachel	10	Octubre	2023-05-10T00:00:00	2024-11-08T08:00:00	1	Precipitación	0
64444	7	Sololá	710	Panajachel	8	Panajachel	10	Octubre	2023-05-10T00:00:00	2024-11-08T08:00:00	8	Radiación solar	302
64445	7	Sololá	710	Panajachel	8	Panajachel	10	Octubre	2023-05-10T00:00:00	2024-11-08T09:00:00	2	Temperatura media	22.1
64446	7	Sololá	710	Panajachel	8	Panajachel	10	Octubre	2023-05-10T00:00:00	2024-11-08T09:00:00	4	Temperatura máxima	22.2
64447	7	Sololá	710	Panajachel	8	Panajachel	10	Octubre	2023-05-10T00:00:00	2024-11-08T09:00:00	3	Temperatura mínima	20.7
64448	7	Sololá	710	Panajachel	8	Panajachel	10	Octubre	2023-05-10T00:00:00	2024-11-08T09:00:00	5	Humedad	78
64449	7	Sololá	710	Panajachel	8	Panajachel	10	Octubre	2023-05-10T00:00:00	2024-11-08T09:00:00	6	Velocidad del viento	0
64450	7	Sololá	710	Panajachel	8	Panajachel	10	Octubre	2023-05-10T00:00:00	2024-11-08T09:00:00	7	Dirección del viento	0
64451	7	Sololá	710	Panajachel	8	Panajachel	10	Octubre	2023-05-10T00:00:00	2024-11-08T09:00:00	1	Precipitación	0
64452	7	Sololá	710	Panajachel	8	Panajachel	10	Octubre	2023-05-10T00:00:00	2024-11-08T09:00:00	8	Radiación solar	520
64453	7	Sololá	710	Panajachel	8	Panajachel	10	Octubre	2023-05-10T00:00:00	2024-11-08T10:00:00	2	Temperatura media	23.2
64454	7	Sololá	710	Panajachel	8	Panajachel	10	Octubre	2023-05-10T00:00:00	2024-11-08T10:00:00	4	Temperatura máxima	23.2
64455	7	Sololá	710	Panajachel	8	Panajachel	10	Octubre	2023-05-10T00:00:00	2024-11-08T10:00:00	3	Temperatura mínima	22.1
64456	7	Sololá	710	Panajachel	8	Panajachel	10	Octubre	2023-05-10T00:00:00	2024-11-08T10:00:00	5	Humedad	76
64457	7	Sololá	710	Panajachel	8	Panajachel	10	Octubre	2023-05-10T00:00:00	2024-11-08T10:00:00	6	Velocidad del viento	1.6
64458	7	Sololá	710	Panajachel	8	Panajachel	10	Octubre	2023-05-10T00:00:00	2024-11-08T10:00:00	7	Dirección del viento	1.61
64459	7	Sololá	710	Panajachel	8	Panajachel	10	Octubre	2023-05-10T00:00:00	2024-11-08T10:00:00	1	Precipitación	0
64460	7	Sololá	710	Panajachel	8	Panajachel	10	Octubre	2023-05-10T00:00:00	2024-11-08T10:00:00	8	Radiación solar	701
64461	7	Sololá	710	Panajachel	8	Panajachel	10	Octubre	2023-05-10T00:00:00	2024-11-08T11:00:00	2	Temperatura media	23.6
64462	7	Sololá	710	Panajachel	8	Panajachel	10	Octubre	2023-05-10T00:00:00	2024-11-08T11:00:00	4	Temperatura máxima	24.3
64463	7	Sololá	710	Panajachel	8	Panajachel	10	Octubre	2023-05-10T00:00:00	2024-11-08T11:00:00	3	Temperatura mínima	23.2
64464	7	Sololá	710	Panajachel	8	Panajachel	10	Octubre	2023-05-10T00:00:00	2024-11-08T11:00:00	5	Humedad	75
64465	7	Sololá	710	Panajachel	8	Panajachel	10	Octubre	2023-05-10T00:00:00	2024-11-08T11:00:00	6	Velocidad del viento	1.6
64466	7	Sololá	710	Panajachel	8	Panajachel	10	Octubre	2023-05-10T00:00:00	2024-11-08T11:00:00	7	Dirección del viento	1.61
64467	7	Sololá	710	Panajachel	8	Panajachel	10	Octubre	2023-05-10T00:00:00	2024-11-08T11:00:00	1	Precipitación	0
64468	7	Sololá	710	Panajachel	8	Panajachel	10	Octubre	2023-05-10T00:00:00	2024-11-08T11:00:00	8	Radiación solar	836
64469	7	Sololá	710	Panajachel	8	Panajachel	10	Octubre	2023-05-10T00:00:00	2024-11-08T12:00:00	2	Temperatura media	24.9
64470	7	Sololá	710	Panajachel	8	Panajachel	10	Octubre	2023-05-10T00:00:00	2024-11-08T12:00:00	4	Temperatura máxima	24.9
64471	7	Sololá	710	Panajachel	8	Panajachel	10	Octubre	2023-05-10T00:00:00	2024-11-08T12:00:00	3	Temperatura mínima	23.5
64472	7	Sololá	710	Panajachel	8	Panajachel	10	Octubre	2023-05-10T00:00:00	2024-11-08T12:00:00	5	Humedad	76
64473	7	Sololá	710	Panajachel	8	Panajachel	10	Octubre	2023-05-10T00:00:00	2024-11-08T12:00:00	6	Velocidad del viento	3.2
64474	7	Sololá	710	Panajachel	8	Panajachel	10	Octubre	2023-05-10T00:00:00	2024-11-08T12:00:00	7	Dirección del viento	3.22
64475	7	Sololá	710	Panajachel	8	Panajachel	10	Octubre	2023-05-10T00:00:00	2024-11-08T12:00:00	1	Precipitación	0
64476	7	Sololá	710	Panajachel	8	Panajachel	10	Octubre	2023-05-10T00:00:00	2024-11-08T12:00:00	8	Radiación solar	909
64477	7	Sololá	710	Panajachel	8	Panajachel	10	Octubre	2023-05-10T00:00:00	2024-11-08T13:00:00	2	Temperatura media	23.9
64478	7	Sololá	710	Panajachel	8	Panajachel	10	Octubre	2023-05-10T00:00:00	2024-11-08T13:00:00	4	Temperatura máxima	24.9
64479	7	Sololá	710	Panajachel	8	Panajachel	10	Octubre	2023-05-10T00:00:00	2024-11-08T13:00:00	3	Temperatura mínima	23.6
64480	7	Sololá	710	Panajachel	8	Panajachel	10	Octubre	2023-05-10T00:00:00	2024-11-08T13:00:00	5	Humedad	82
64481	7	Sololá	710	Panajachel	8	Panajachel	10	Octubre	2023-05-10T00:00:00	2024-11-08T13:00:00	6	Velocidad del viento	4.8
64482	7	Sololá	710	Panajachel	8	Panajachel	10	Octubre	2023-05-10T00:00:00	2024-11-08T13:00:00	7	Dirección del viento	4.83
64483	7	Sololá	710	Panajachel	8	Panajachel	10	Octubre	2023-05-10T00:00:00	2024-11-08T13:00:00	1	Precipitación	0
64484	7	Sololá	710	Panajachel	8	Panajachel	10	Octubre	2023-05-10T00:00:00	2024-11-08T13:00:00	8	Radiación solar	734
64485	7	Sololá	710	Panajachel	8	Panajachel	10	Octubre	2023-05-10T00:00:00	2024-11-08T14:00:00	2	Temperatura media	23.1
64486	7	Sololá	710	Panajachel	8	Panajachel	10	Octubre	2023-05-10T00:00:00	2024-11-08T14:00:00	4	Temperatura máxima	24
64487	7	Sololá	710	Panajachel	8	Panajachel	10	Octubre	2023-05-10T00:00:00	2024-11-08T14:00:00	3	Temperatura mínima	22.9
64488	7	Sololá	710	Panajachel	8	Panajachel	10	Octubre	2023-05-10T00:00:00	2024-11-08T14:00:00	5	Humedad	84
64489	7	Sololá	710	Panajachel	8	Panajachel	10	Octubre	2023-05-10T00:00:00	2024-11-08T14:00:00	6	Velocidad del viento	4.8
64490	7	Sololá	710	Panajachel	8	Panajachel	10	Octubre	2023-05-10T00:00:00	2024-11-08T14:00:00	7	Dirección del viento	4.83
64491	7	Sololá	710	Panajachel	8	Panajachel	10	Octubre	2023-05-10T00:00:00	2024-11-08T14:00:00	1	Precipitación	0
64492	7	Sololá	710	Panajachel	8	Panajachel	10	Octubre	2023-05-10T00:00:00	2024-11-08T14:00:00	8	Radiación solar	286
64493	7	Sololá	710	Panajachel	8	Panajachel	10	Octubre	2023-05-10T00:00:00	2024-11-08T15:00:00	2	Temperatura media	22.3
64494	7	Sololá	710	Panajachel	8	Panajachel	10	Octubre	2023-05-10T00:00:00	2024-11-08T15:00:00	4	Temperatura máxima	23.6
64495	7	Sololá	710	Panajachel	8	Panajachel	10	Octubre	2023-05-10T00:00:00	2024-11-08T15:00:00	3	Temperatura mínima	22.3
64496	7	Sololá	710	Panajachel	8	Panajachel	10	Octubre	2023-05-10T00:00:00	2024-11-08T15:00:00	5	Humedad	88
64497	7	Sololá	710	Panajachel	8	Panajachel	10	Octubre	2023-05-10T00:00:00	2024-11-08T15:00:00	6	Velocidad del viento	4.8
64498	7	Sololá	710	Panajachel	8	Panajachel	10	Octubre	2023-05-10T00:00:00	2024-11-08T15:00:00	7	Dirección del viento	4.83
64499	7	Sololá	710	Panajachel	8	Panajachel	10	Octubre	2023-05-10T00:00:00	2024-11-08T15:00:00	1	Precipitación	0
64500	7	Sololá	710	Panajachel	8	Panajachel	10	Octubre	2023-05-10T00:00:00	2024-11-08T15:00:00	8	Radiación solar	292
64501	7	Sololá	710	Panajachel	8	Panajachel	10	Octubre	2023-05-10T00:00:00	2024-11-08T16:00:00	2	Temperatura media	21.9
64502	7	Sololá	710	Panajachel	8	Panajachel	10	Octubre	2023-05-10T00:00:00	2024-11-08T16:00:00	4	Temperatura máxima	22.4
64503	7	Sololá	710	Panajachel	8	Panajachel	10	Octubre	2023-05-10T00:00:00	2024-11-08T16:00:00	3	Temperatura mínima	21.9
64504	7	Sololá	710	Panajachel	8	Panajachel	10	Octubre	2023-05-10T00:00:00	2024-11-08T16:00:00	5	Humedad	89
64505	7	Sololá	710	Panajachel	8	Panajachel	10	Octubre	2023-05-10T00:00:00	2024-11-08T16:00:00	6	Velocidad del viento	4.8
64506	7	Sololá	710	Panajachel	8	Panajachel	10	Octubre	2023-05-10T00:00:00	2024-11-08T16:00:00	7	Dirección del viento	4.83
64507	7	Sololá	710	Panajachel	8	Panajachel	10	Octubre	2023-05-10T00:00:00	2024-11-08T16:00:00	1	Precipitación	0
64508	7	Sololá	710	Panajachel	8	Panajachel	10	Octubre	2023-05-10T00:00:00	2024-11-08T16:00:00	8	Radiación solar	157
64509	7	Sololá	710	Panajachel	8	Panajachel	10	Octubre	2023-05-10T00:00:00	2024-11-08T17:00:00	2	Temperatura media	21.7
64510	7	Sololá	710	Panajachel	8	Panajachel	10	Octubre	2023-05-10T00:00:00	2024-11-08T17:00:00	4	Temperatura máxima	22.2
64511	7	Sololá	710	Panajachel	8	Panajachel	10	Octubre	2023-05-10T00:00:00	2024-11-08T17:00:00	3	Temperatura mínima	21.7
64512	7	Sololá	710	Panajachel	8	Panajachel	10	Octubre	2023-05-10T00:00:00	2024-11-08T17:00:00	5	Humedad	89
64513	7	Sololá	710	Panajachel	8	Panajachel	10	Octubre	2023-05-10T00:00:00	2024-11-08T17:00:00	6	Velocidad del viento	1.6
64514	7	Sololá	710	Panajachel	8	Panajachel	10	Octubre	2023-05-10T00:00:00	2024-11-08T17:00:00	7	Dirección del viento	1.61
64515	7	Sololá	710	Panajachel	8	Panajachel	10	Octubre	2023-05-10T00:00:00	2024-11-08T17:00:00	1	Precipitación	0
64516	7	Sololá	710	Panajachel	8	Panajachel	10	Octubre	2023-05-10T00:00:00	2024-11-08T17:00:00	8	Radiación solar	110
64517	7	Sololá	710	Panajachel	8	Panajachel	10	Octubre	2023-05-10T00:00:00	2024-11-08T18:00:00	2	Temperatura media	20.4
64518	7	Sololá	710	Panajachel	8	Panajachel	10	Octubre	2023-05-10T00:00:00	2024-11-08T18:00:00	4	Temperatura máxima	21.7
64519	7	Sololá	710	Panajachel	8	Panajachel	10	Octubre	2023-05-10T00:00:00	2024-11-08T18:00:00	3	Temperatura mínima	20.4
64520	7	Sololá	710	Panajachel	8	Panajachel	10	Octubre	2023-05-10T00:00:00	2024-11-08T18:00:00	5	Humedad	90
64521	7	Sololá	710	Panajachel	8	Panajachel	10	Octubre	2023-05-10T00:00:00	2024-11-08T18:00:00	6	Velocidad del viento	3.2
64522	7	Sololá	710	Panajachel	8	Panajachel	10	Octubre	2023-05-10T00:00:00	2024-11-08T18:00:00	7	Dirección del viento	3.22
64523	7	Sololá	710	Panajachel	8	Panajachel	10	Octubre	2023-05-10T00:00:00	2024-11-08T18:00:00	1	Precipitación	0
64524	7	Sololá	710	Panajachel	8	Panajachel	10	Octubre	2023-05-10T00:00:00	2024-11-08T18:00:00	8	Radiación solar	9
64525	7	Sololá	710	Panajachel	8	Panajachel	10	Octubre	2023-05-10T00:00:00	2024-11-08T19:00:00	2	Temperatura media	20.3
64526	7	Sololá	710	Panajachel	8	Panajachel	10	Octubre	2023-05-10T00:00:00	2024-11-08T19:00:00	4	Temperatura máxima	20.4
64527	7	Sololá	710	Panajachel	8	Panajachel	10	Octubre	2023-05-10T00:00:00	2024-11-08T19:00:00	3	Temperatura mínima	20.1
64528	7	Sololá	710	Panajachel	8	Panajachel	10	Octubre	2023-05-10T00:00:00	2024-11-08T19:00:00	5	Humedad	87
64529	7	Sololá	710	Panajachel	8	Panajachel	10	Octubre	2023-05-10T00:00:00	2024-11-08T19:00:00	6	Velocidad del viento	1.6
64530	7	Sololá	710	Panajachel	8	Panajachel	10	Octubre	2023-05-10T00:00:00	2024-11-08T19:00:00	7	Dirección del viento	1.61
64531	7	Sololá	710	Panajachel	8	Panajachel	10	Octubre	2023-05-10T00:00:00	2024-11-08T19:00:00	1	Precipitación	0
64532	7	Sololá	710	Panajachel	8	Panajachel	10	Octubre	2023-05-10T00:00:00	2024-11-08T19:00:00	8	Radiación solar	0
64533	7	Sololá	710	Panajachel	8	Panajachel	10	Octubre	2023-05-10T00:00:00	2024-11-08T20:00:00	2	Temperatura media	20
64534	7	Sololá	710	Panajachel	8	Panajachel	10	Octubre	2023-05-10T00:00:00	2024-11-08T20:00:00	4	Temperatura máxima	20.3
64535	7	Sololá	710	Panajachel	8	Panajachel	10	Octubre	2023-05-10T00:00:00	2024-11-08T20:00:00	3	Temperatura mínima	19.8
64536	7	Sololá	710	Panajachel	8	Panajachel	10	Octubre	2023-05-10T00:00:00	2024-11-08T20:00:00	5	Humedad	86
64537	7	Sololá	710	Panajachel	8	Panajachel	10	Octubre	2023-05-10T00:00:00	2024-11-08T20:00:00	6	Velocidad del viento	3.2
64538	7	Sololá	710	Panajachel	8	Panajachel	10	Octubre	2023-05-10T00:00:00	2024-11-08T20:00:00	7	Dirección del viento	3.22
64539	7	Sololá	710	Panajachel	8	Panajachel	10	Octubre	2023-05-10T00:00:00	2024-11-08T20:00:00	1	Precipitación	0
64540	7	Sololá	710	Panajachel	8	Panajachel	10	Octubre	2023-05-10T00:00:00	2024-11-08T20:00:00	8	Radiación solar	0
64541	7	Sololá	710	Panajachel	8	Panajachel	10	Octubre	2023-05-10T00:00:00	2024-11-08T21:00:00	2	Temperatura media	20
64542	7	Sololá	710	Panajachel	8	Panajachel	10	Octubre	2023-05-10T00:00:00	2024-11-08T21:00:00	4	Temperatura máxima	20.2
64543	7	Sololá	710	Panajachel	8	Panajachel	10	Octubre	2023-05-10T00:00:00	2024-11-08T21:00:00	3	Temperatura mínima	19.9
64544	7	Sololá	710	Panajachel	8	Panajachel	10	Octubre	2023-05-10T00:00:00	2024-11-08T21:00:00	5	Humedad	86
64545	7	Sololá	710	Panajachel	8	Panajachel	10	Octubre	2023-05-10T00:00:00	2024-11-08T21:00:00	6	Velocidad del viento	3.2
64546	7	Sololá	710	Panajachel	8	Panajachel	10	Octubre	2023-05-10T00:00:00	2024-11-08T21:00:00	7	Dirección del viento	3.22
64547	7	Sololá	710	Panajachel	8	Panajachel	10	Octubre	2023-05-10T00:00:00	2024-11-08T21:00:00	1	Precipitación	0
64548	7	Sololá	710	Panajachel	8	Panajachel	10	Octubre	2023-05-10T00:00:00	2024-11-08T21:00:00	8	Radiación solar	0
64549	7	Sololá	710	Panajachel	8	Panajachel	10	Octubre	2023-05-10T00:00:00	2024-11-08T22:00:00	2	Temperatura media	18.7
64550	7	Sololá	710	Panajachel	8	Panajachel	10	Octubre	2023-05-10T00:00:00	2024-11-08T22:00:00	4	Temperatura máxima	20.1
64551	7	Sololá	710	Panajachel	8	Panajachel	10	Octubre	2023-05-10T00:00:00	2024-11-08T22:00:00	3	Temperatura mínima	18.6
64552	7	Sololá	710	Panajachel	8	Panajachel	10	Octubre	2023-05-10T00:00:00	2024-11-08T22:00:00	5	Humedad	90
64553	7	Sololá	710	Panajachel	8	Panajachel	10	Octubre	2023-05-10T00:00:00	2024-11-08T22:00:00	6	Velocidad del viento	1.6
64554	7	Sololá	710	Panajachel	8	Panajachel	10	Octubre	2023-05-10T00:00:00	2024-11-08T22:00:00	7	Dirección del viento	1.61
64555	7	Sololá	710	Panajachel	8	Panajachel	10	Octubre	2023-05-10T00:00:00	2024-11-08T22:00:00	1	Precipitación	0
64556	7	Sololá	710	Panajachel	8	Panajachel	10	Octubre	2023-05-10T00:00:00	2024-11-08T22:00:00	8	Radiación solar	0
64557	7	Sololá	710	Panajachel	8	Panajachel	10	Octubre	2023-05-10T00:00:00	2024-11-08T23:00:00	2	Temperatura media	19.4
64558	7	Sololá	710	Panajachel	8	Panajachel	10	Octubre	2023-05-10T00:00:00	2024-11-08T23:00:00	4	Temperatura máxima	19.6
64559	7	Sololá	710	Panajachel	8	Panajachel	10	Octubre	2023-05-10T00:00:00	2024-11-08T23:00:00	3	Temperatura mínima	18.7
64560	7	Sololá	710	Panajachel	8	Panajachel	10	Octubre	2023-05-10T00:00:00	2024-11-08T23:00:00	5	Humedad	87
64561	7	Sololá	710	Panajachel	8	Panajachel	10	Octubre	2023-05-10T00:00:00	2024-11-08T23:00:00	6	Velocidad del viento	1.6
64562	7	Sololá	710	Panajachel	8	Panajachel	10	Octubre	2023-05-10T00:00:00	2024-11-08T23:00:00	7	Dirección del viento	1.61
64563	7	Sololá	710	Panajachel	8	Panajachel	10	Octubre	2023-05-10T00:00:00	2024-11-08T23:00:00	1	Precipitación	0
64564	7	Sololá	710	Panajachel	8	Panajachel	10	Octubre	2023-05-10T00:00:00	2024-11-08T23:00:00	8	Radiación solar	0
64565	7	Sololá	710	Panajachel	8	Panajachel	10	Octubre	2023-06-10T00:00:00	2024-11-08T00:00:00	2	Temperatura media	19.1
64566	7	Sololá	710	Panajachel	8	Panajachel	10	Octubre	2023-06-10T00:00:00	2024-11-08T00:00:00	4	Temperatura máxima	19.4
64567	7	Sololá	710	Panajachel	8	Panajachel	10	Octubre	2023-06-10T00:00:00	2024-11-08T00:00:00	3	Temperatura mínima	19
64568	7	Sololá	710	Panajachel	8	Panajachel	10	Octubre	2023-06-10T00:00:00	2024-11-08T00:00:00	5	Humedad	86
64569	7	Sololá	710	Panajachel	8	Panajachel	10	Octubre	2023-06-10T00:00:00	2024-11-08T00:00:00	6	Velocidad del viento	1.6
64570	7	Sololá	710	Panajachel	8	Panajachel	10	Octubre	2023-06-10T00:00:00	2024-11-08T00:00:00	7	Dirección del viento	1.61
64571	7	Sololá	710	Panajachel	8	Panajachel	10	Octubre	2023-06-10T00:00:00	2024-11-08T00:00:00	1	Precipitación	0
64572	7	Sololá	710	Panajachel	8	Panajachel	10	Octubre	2023-06-10T00:00:00	2024-11-08T00:00:00	8	Radiación solar	0
64573	7	Sololá	710	Panajachel	8	Panajachel	10	Octubre	2023-06-10T00:00:00	2024-11-08T01:00:00	2	Temperatura media	19.2
64574	7	Sololá	710	Panajachel	8	Panajachel	10	Octubre	2023-06-10T00:00:00	2024-11-08T01:00:00	4	Temperatura máxima	19.4
64575	7	Sololá	710	Panajachel	8	Panajachel	10	Octubre	2023-06-10T00:00:00	2024-11-08T01:00:00	3	Temperatura mínima	18.7
64576	7	Sololá	710	Panajachel	8	Panajachel	10	Octubre	2023-06-10T00:00:00	2024-11-08T01:00:00	5	Humedad	95
64577	7	Sololá	710	Panajachel	8	Panajachel	10	Octubre	2023-06-10T00:00:00	2024-11-08T01:00:00	6	Velocidad del viento	1.6
64578	7	Sololá	710	Panajachel	8	Panajachel	10	Octubre	2023-06-10T00:00:00	2024-11-08T01:00:00	7	Dirección del viento	1.61
64579	7	Sololá	710	Panajachel	8	Panajachel	10	Octubre	2023-06-10T00:00:00	2024-11-08T01:00:00	1	Precipitación	0
64580	7	Sololá	710	Panajachel	8	Panajachel	10	Octubre	2023-06-10T00:00:00	2024-11-08T01:00:00	8	Radiación solar	0
64581	7	Sololá	710	Panajachel	8	Panajachel	10	Octubre	2023-06-10T00:00:00	2024-11-08T02:00:00	2	Temperatura media	17.9
64582	7	Sololá	710	Panajachel	8	Panajachel	10	Octubre	2023-06-10T00:00:00	2024-11-08T02:00:00	4	Temperatura máxima	19.2
64583	7	Sololá	710	Panajachel	8	Panajachel	10	Octubre	2023-06-10T00:00:00	2024-11-08T02:00:00	3	Temperatura mínima	17.9
64584	7	Sololá	710	Panajachel	8	Panajachel	10	Octubre	2023-06-10T00:00:00	2024-11-08T02:00:00	5	Humedad	89
64585	7	Sololá	710	Panajachel	8	Panajachel	10	Octubre	2023-06-10T00:00:00	2024-11-08T02:00:00	6	Velocidad del viento	1.6
64586	7	Sololá	710	Panajachel	8	Panajachel	10	Octubre	2023-06-10T00:00:00	2024-11-08T02:00:00	7	Dirección del viento	1.61
64587	7	Sololá	710	Panajachel	8	Panajachel	10	Octubre	2023-06-10T00:00:00	2024-11-08T02:00:00	1	Precipitación	0
64588	7	Sololá	710	Panajachel	8	Panajachel	10	Octubre	2023-06-10T00:00:00	2024-11-08T02:00:00	8	Radiación solar	0
64589	7	Sololá	710	Panajachel	8	Panajachel	10	Octubre	2023-06-10T00:00:00	2024-11-08T03:00:00	2	Temperatura media	17.8
64590	7	Sololá	710	Panajachel	8	Panajachel	10	Octubre	2023-06-10T00:00:00	2024-11-08T03:00:00	4	Temperatura máxima	18.1
64591	7	Sololá	710	Panajachel	8	Panajachel	10	Octubre	2023-06-10T00:00:00	2024-11-08T03:00:00	3	Temperatura mínima	17.8
64592	7	Sololá	710	Panajachel	8	Panajachel	10	Octubre	2023-06-10T00:00:00	2024-11-08T03:00:00	5	Humedad	88
64593	7	Sololá	710	Panajachel	8	Panajachel	10	Octubre	2023-06-10T00:00:00	2024-11-08T03:00:00	6	Velocidad del viento	1.6
64594	7	Sololá	710	Panajachel	8	Panajachel	10	Octubre	2023-06-10T00:00:00	2024-11-08T03:00:00	7	Dirección del viento	1.61
64595	7	Sololá	710	Panajachel	8	Panajachel	10	Octubre	2023-06-10T00:00:00	2024-11-08T03:00:00	1	Precipitación	0
64596	7	Sololá	710	Panajachel	8	Panajachel	10	Octubre	2023-06-10T00:00:00	2024-11-08T03:00:00	8	Radiación solar	0
64597	7	Sololá	710	Panajachel	8	Panajachel	10	Octubre	2023-06-10T00:00:00	2024-11-08T04:00:00	2	Temperatura media	17.1
64598	7	Sololá	710	Panajachel	8	Panajachel	10	Octubre	2023-06-10T00:00:00	2024-11-08T04:00:00	4	Temperatura máxima	17.8
64599	7	Sololá	710	Panajachel	8	Panajachel	10	Octubre	2023-06-10T00:00:00	2024-11-08T04:00:00	3	Temperatura mínima	17.1
64600	7	Sololá	710	Panajachel	8	Panajachel	10	Octubre	2023-06-10T00:00:00	2024-11-08T04:00:00	5	Humedad	91
64601	7	Sololá	710	Panajachel	8	Panajachel	10	Octubre	2023-06-10T00:00:00	2024-11-08T04:00:00	6	Velocidad del viento	3.2
64602	7	Sololá	710	Panajachel	8	Panajachel	10	Octubre	2023-06-10T00:00:00	2024-11-08T04:00:00	7	Dirección del viento	3.22
64603	7	Sololá	710	Panajachel	8	Panajachel	10	Octubre	2023-06-10T00:00:00	2024-11-08T04:00:00	1	Precipitación	0
64604	7	Sololá	710	Panajachel	8	Panajachel	10	Octubre	2023-06-10T00:00:00	2024-11-08T04:00:00	8	Radiación solar	0
64605	7	Sololá	710	Panajachel	8	Panajachel	10	Octubre	2023-06-10T00:00:00	2024-11-08T05:00:00	2	Temperatura media	16.6
64606	7	Sololá	710	Panajachel	8	Panajachel	10	Octubre	2023-06-10T00:00:00	2024-11-08T05:00:00	4	Temperatura máxima	17.1
64607	7	Sololá	710	Panajachel	8	Panajachel	10	Octubre	2023-06-10T00:00:00	2024-11-08T05:00:00	3	Temperatura mínima	16.6
64608	7	Sololá	710	Panajachel	8	Panajachel	10	Octubre	2023-06-10T00:00:00	2024-11-08T05:00:00	5	Humedad	93
64609	7	Sololá	710	Panajachel	8	Panajachel	10	Octubre	2023-06-10T00:00:00	2024-11-08T05:00:00	6	Velocidad del viento	1.6
64610	7	Sololá	710	Panajachel	8	Panajachel	10	Octubre	2023-06-10T00:00:00	2024-11-08T05:00:00	7	Dirección del viento	1.61
64611	7	Sololá	710	Panajachel	8	Panajachel	10	Octubre	2023-06-10T00:00:00	2024-11-08T05:00:00	1	Precipitación	0
64612	7	Sololá	710	Panajachel	8	Panajachel	10	Octubre	2023-06-10T00:00:00	2024-11-08T05:00:00	8	Radiación solar	0
64613	7	Sololá	710	Panajachel	8	Panajachel	10	Octubre	2023-06-10T00:00:00	2024-11-08T06:00:00	2	Temperatura media	17.1
64614	7	Sololá	710	Panajachel	8	Panajachel	10	Octubre	2023-06-10T00:00:00	2024-11-08T06:00:00	4	Temperatura máxima	17.1
64615	7	Sololá	710	Panajachel	8	Panajachel	10	Octubre	2023-06-10T00:00:00	2024-11-08T06:00:00	3	Temperatura mínima	16.5
64616	7	Sololá	710	Panajachel	8	Panajachel	10	Octubre	2023-06-10T00:00:00	2024-11-08T06:00:00	5	Humedad	92
64617	7	Sololá	710	Panajachel	8	Panajachel	10	Octubre	2023-06-10T00:00:00	2024-11-08T06:00:00	6	Velocidad del viento	1.6
64618	7	Sololá	710	Panajachel	8	Panajachel	10	Octubre	2023-06-10T00:00:00	2024-11-08T06:00:00	7	Dirección del viento	1.61
64619	7	Sololá	710	Panajachel	8	Panajachel	10	Octubre	2023-06-10T00:00:00	2024-11-08T06:00:00	1	Precipitación	0
64620	7	Sololá	710	Panajachel	8	Panajachel	10	Octubre	2023-06-10T00:00:00	2024-11-08T06:00:00	8	Radiación solar	1
64621	7	Sololá	710	Panajachel	8	Panajachel	10	Octubre	2023-06-10T00:00:00	2024-11-08T07:00:00	2	Temperatura media	18.4
64622	7	Sololá	710	Panajachel	8	Panajachel	10	Octubre	2023-06-10T00:00:00	2024-11-08T07:00:00	4	Temperatura máxima	18.4
64623	7	Sololá	710	Panajachel	8	Panajachel	10	Octubre	2023-06-10T00:00:00	2024-11-08T07:00:00	3	Temperatura mínima	17.1
64624	7	Sololá	710	Panajachel	8	Panajachel	10	Octubre	2023-06-10T00:00:00	2024-11-08T07:00:00	5	Humedad	91
64625	7	Sololá	710	Panajachel	8	Panajachel	10	Octubre	2023-06-10T00:00:00	2024-11-08T07:00:00	6	Velocidad del viento	0
64626	7	Sololá	710	Panajachel	8	Panajachel	10	Octubre	2023-06-10T00:00:00	2024-11-08T07:00:00	7	Dirección del viento	0
64627	7	Sololá	710	Panajachel	8	Panajachel	10	Octubre	2023-06-10T00:00:00	2024-11-08T07:00:00	1	Precipitación	0
64628	7	Sololá	710	Panajachel	8	Panajachel	10	Octubre	2023-06-10T00:00:00	2024-11-08T07:00:00	8	Radiación solar	61
64629	7	Sololá	710	Panajachel	8	Panajachel	10	Octubre	2023-06-10T00:00:00	2024-11-08T08:00:00	2	Temperatura media	21.8
64630	7	Sololá	710	Panajachel	8	Panajachel	10	Octubre	2023-06-10T00:00:00	2024-11-08T08:00:00	4	Temperatura máxima	21.8
64631	7	Sololá	710	Panajachel	8	Panajachel	10	Octubre	2023-06-10T00:00:00	2024-11-08T08:00:00	3	Temperatura mínima	18.4
64632	7	Sololá	710	Panajachel	8	Panajachel	10	Octubre	2023-06-10T00:00:00	2024-11-08T08:00:00	5	Humedad	82
64633	7	Sololá	710	Panajachel	8	Panajachel	10	Octubre	2023-06-10T00:00:00	2024-11-08T08:00:00	6	Velocidad del viento	0
64634	7	Sololá	710	Panajachel	8	Panajachel	10	Octubre	2023-06-10T00:00:00	2024-11-08T08:00:00	7	Dirección del viento	0
64635	7	Sololá	710	Panajachel	8	Panajachel	10	Octubre	2023-06-10T00:00:00	2024-11-08T08:00:00	1	Precipitación	0
64636	7	Sololá	710	Panajachel	8	Panajachel	10	Octubre	2023-06-10T00:00:00	2024-11-08T08:00:00	8	Radiación solar	297
64637	7	Sololá	710	Panajachel	8	Panajachel	10	Octubre	2023-06-10T00:00:00	2024-11-08T09:00:00	2	Temperatura media	22
64638	7	Sololá	710	Panajachel	8	Panajachel	10	Octubre	2023-06-10T00:00:00	2024-11-08T09:00:00	4	Temperatura máxima	22.4
64639	7	Sololá	710	Panajachel	8	Panajachel	10	Octubre	2023-06-10T00:00:00	2024-11-08T09:00:00	3	Temperatura mínima	21.6
64640	7	Sololá	710	Panajachel	8	Panajachel	10	Octubre	2023-06-10T00:00:00	2024-11-08T09:00:00	5	Humedad	82
64641	7	Sololá	710	Panajachel	8	Panajachel	10	Octubre	2023-06-10T00:00:00	2024-11-08T09:00:00	6	Velocidad del viento	1.6
64642	7	Sololá	710	Panajachel	8	Panajachel	10	Octubre	2023-06-10T00:00:00	2024-11-08T09:00:00	7	Dirección del viento	1.61
64643	7	Sololá	710	Panajachel	8	Panajachel	10	Octubre	2023-06-10T00:00:00	2024-11-08T09:00:00	1	Precipitación	0
64644	7	Sololá	710	Panajachel	8	Panajachel	10	Octubre	2023-06-10T00:00:00	2024-11-08T09:00:00	8	Radiación solar	519
64645	7	Sololá	710	Panajachel	8	Panajachel	10	Octubre	2023-06-10T00:00:00	2024-11-08T10:00:00	2	Temperatura media	23.2
64646	7	Sololá	710	Panajachel	8	Panajachel	10	Octubre	2023-06-10T00:00:00	2024-11-08T10:00:00	4	Temperatura máxima	23.5
64647	7	Sololá	710	Panajachel	8	Panajachel	10	Octubre	2023-06-10T00:00:00	2024-11-08T10:00:00	3	Temperatura mínima	21.9
64648	7	Sololá	710	Panajachel	8	Panajachel	10	Octubre	2023-06-10T00:00:00	2024-11-08T10:00:00	5	Humedad	82
64649	7	Sololá	710	Panajachel	8	Panajachel	10	Octubre	2023-06-10T00:00:00	2024-11-08T10:00:00	6	Velocidad del viento	3.2
64650	7	Sololá	710	Panajachel	8	Panajachel	10	Octubre	2023-06-10T00:00:00	2024-11-08T10:00:00	7	Dirección del viento	3.22
64651	7	Sololá	710	Panajachel	8	Panajachel	10	Octubre	2023-06-10T00:00:00	2024-11-08T10:00:00	1	Precipitación	0
64652	7	Sololá	710	Panajachel	8	Panajachel	10	Octubre	2023-06-10T00:00:00	2024-11-08T10:00:00	8	Radiación solar	707
64653	7	Sololá	710	Panajachel	8	Panajachel	10	Octubre	2023-06-10T00:00:00	2024-11-08T11:00:00	2	Temperatura media	23.9
64654	7	Sololá	710	Panajachel	8	Panajachel	10	Octubre	2023-06-10T00:00:00	2024-11-08T11:00:00	4	Temperatura máxima	24
64655	7	Sololá	710	Panajachel	8	Panajachel	10	Octubre	2023-06-10T00:00:00	2024-11-08T11:00:00	3	Temperatura mínima	22.9
64656	7	Sololá	710	Panajachel	8	Panajachel	10	Octubre	2023-06-10T00:00:00	2024-11-08T11:00:00	5	Humedad	78
64657	7	Sololá	710	Panajachel	8	Panajachel	10	Octubre	2023-06-10T00:00:00	2024-11-08T11:00:00	6	Velocidad del viento	3.2
64658	7	Sololá	710	Panajachel	8	Panajachel	10	Octubre	2023-06-10T00:00:00	2024-11-08T11:00:00	7	Dirección del viento	3.22
64659	7	Sololá	710	Panajachel	8	Panajachel	10	Octubre	2023-06-10T00:00:00	2024-11-08T11:00:00	1	Precipitación	0
64660	7	Sololá	710	Panajachel	8	Panajachel	10	Octubre	2023-06-10T00:00:00	2024-11-08T11:00:00	8	Radiación solar	849
64661	7	Sololá	710	Panajachel	8	Panajachel	10	Octubre	2023-06-10T00:00:00	2024-11-08T12:00:00	2	Temperatura media	24.6
64662	7	Sololá	710	Panajachel	8	Panajachel	10	Octubre	2023-06-10T00:00:00	2024-11-08T12:00:00	4	Temperatura máxima	24.8
64663	7	Sololá	710	Panajachel	8	Panajachel	10	Octubre	2023-06-10T00:00:00	2024-11-08T12:00:00	3	Temperatura mínima	23.8
64664	7	Sololá	710	Panajachel	8	Panajachel	10	Octubre	2023-06-10T00:00:00	2024-11-08T12:00:00	5	Humedad	77
64665	7	Sololá	710	Panajachel	8	Panajachel	10	Octubre	2023-06-10T00:00:00	2024-11-08T12:00:00	6	Velocidad del viento	3.2
64666	7	Sololá	710	Panajachel	8	Panajachel	10	Octubre	2023-06-10T00:00:00	2024-11-08T12:00:00	7	Dirección del viento	3.22
64667	7	Sololá	710	Panajachel	8	Panajachel	10	Octubre	2023-06-10T00:00:00	2024-11-08T12:00:00	1	Precipitación	0
64668	7	Sololá	710	Panajachel	8	Panajachel	10	Octubre	2023-06-10T00:00:00	2024-11-08T12:00:00	8	Radiación solar	915
64669	7	Sololá	710	Panajachel	8	Panajachel	10	Octubre	2023-06-10T00:00:00	2024-11-08T13:00:00	2	Temperatura media	24.2
64670	7	Sololá	710	Panajachel	8	Panajachel	10	Octubre	2023-06-10T00:00:00	2024-11-08T13:00:00	4	Temperatura máxima	25.3
64671	7	Sololá	710	Panajachel	8	Panajachel	10	Octubre	2023-06-10T00:00:00	2024-11-08T13:00:00	3	Temperatura mínima	24.2
64672	7	Sololá	710	Panajachel	8	Panajachel	10	Octubre	2023-06-10T00:00:00	2024-11-08T13:00:00	5	Humedad	81
64673	7	Sololá	710	Panajachel	8	Panajachel	10	Octubre	2023-06-10T00:00:00	2024-11-08T13:00:00	6	Velocidad del viento	3.2
64674	7	Sololá	710	Panajachel	8	Panajachel	10	Octubre	2023-06-10T00:00:00	2024-11-08T13:00:00	7	Dirección del viento	3.22
64675	7	Sololá	710	Panajachel	8	Panajachel	10	Octubre	2023-06-10T00:00:00	2024-11-08T13:00:00	1	Precipitación	0
64676	7	Sololá	710	Panajachel	8	Panajachel	10	Octubre	2023-06-10T00:00:00	2024-11-08T13:00:00	8	Radiación solar	731
64677	7	Sololá	710	Panajachel	8	Panajachel	10	Octubre	2023-06-10T00:00:00	2024-11-08T14:00:00	2	Temperatura media	23.3
64678	7	Sololá	710	Panajachel	8	Panajachel	10	Octubre	2023-06-10T00:00:00	2024-11-08T14:00:00	4	Temperatura máxima	24.2
64679	7	Sololá	710	Panajachel	8	Panajachel	10	Octubre	2023-06-10T00:00:00	2024-11-08T14:00:00	3	Temperatura mínima	22.9
64680	7	Sololá	710	Panajachel	8	Panajachel	10	Octubre	2023-06-10T00:00:00	2024-11-08T14:00:00	5	Humedad	86
64681	7	Sololá	710	Panajachel	8	Panajachel	10	Octubre	2023-06-10T00:00:00	2024-11-08T14:00:00	6	Velocidad del viento	4.8
64682	7	Sololá	710	Panajachel	8	Panajachel	10	Octubre	2023-06-10T00:00:00	2024-11-08T14:00:00	7	Dirección del viento	4.83
64683	7	Sololá	710	Panajachel	8	Panajachel	10	Octubre	2023-06-10T00:00:00	2024-11-08T14:00:00	1	Precipitación	0
64684	7	Sololá	710	Panajachel	8	Panajachel	10	Octubre	2023-06-10T00:00:00	2024-11-08T14:00:00	8	Radiación solar	294
64685	7	Sololá	710	Panajachel	8	Panajachel	10	Octubre	2023-06-10T00:00:00	2024-11-08T15:00:00	2	Temperatura media	24.4
64686	7	Sololá	710	Panajachel	8	Panajachel	10	Octubre	2023-06-10T00:00:00	2024-11-08T15:00:00	4	Temperatura máxima	24.7
64687	7	Sololá	710	Panajachel	8	Panajachel	10	Octubre	2023-06-10T00:00:00	2024-11-08T15:00:00	3	Temperatura mínima	23.3
64688	7	Sololá	710	Panajachel	8	Panajachel	10	Octubre	2023-06-10T00:00:00	2024-11-08T15:00:00	5	Humedad	82
64689	7	Sololá	710	Panajachel	8	Panajachel	10	Octubre	2023-06-10T00:00:00	2024-11-08T15:00:00	6	Velocidad del viento	4.8
64690	7	Sololá	710	Panajachel	8	Panajachel	10	Octubre	2023-06-10T00:00:00	2024-11-08T15:00:00	7	Dirección del viento	4.83
64691	7	Sololá	710	Panajachel	8	Panajachel	10	Octubre	2023-06-10T00:00:00	2024-11-08T15:00:00	1	Precipitación	0
64692	7	Sololá	710	Panajachel	8	Panajachel	10	Octubre	2023-06-10T00:00:00	2024-11-08T15:00:00	8	Radiación solar	692
64693	7	Sololá	710	Panajachel	8	Panajachel	10	Octubre	2023-06-10T00:00:00	2024-11-08T16:00:00	2	Temperatura media	23.6
64694	7	Sololá	710	Panajachel	8	Panajachel	10	Octubre	2023-06-10T00:00:00	2024-11-08T16:00:00	4	Temperatura máxima	24.6
64695	7	Sololá	710	Panajachel	8	Panajachel	10	Octubre	2023-06-10T00:00:00	2024-11-08T16:00:00	3	Temperatura mínima	23.3
64696	7	Sololá	710	Panajachel	8	Panajachel	10	Octubre	2023-06-10T00:00:00	2024-11-08T16:00:00	5	Humedad	84
64697	7	Sololá	710	Panajachel	8	Panajachel	10	Octubre	2023-06-10T00:00:00	2024-11-08T16:00:00	6	Velocidad del viento	4.8
64698	7	Sololá	710	Panajachel	8	Panajachel	10	Octubre	2023-06-10T00:00:00	2024-11-08T16:00:00	7	Dirección del viento	4.83
64699	7	Sololá	710	Panajachel	8	Panajachel	10	Octubre	2023-06-10T00:00:00	2024-11-08T16:00:00	1	Precipitación	0
64700	7	Sololá	710	Panajachel	8	Panajachel	10	Octubre	2023-06-10T00:00:00	2024-11-08T16:00:00	8	Radiación solar	231
64701	7	Sololá	710	Panajachel	8	Panajachel	10	Octubre	2023-06-10T00:00:00	2024-11-08T17:00:00	2	Temperatura media	22.7
64702	7	Sololá	710	Panajachel	8	Panajachel	10	Octubre	2023-06-10T00:00:00	2024-11-08T17:00:00	4	Temperatura máxima	23.8
64703	7	Sololá	710	Panajachel	8	Panajachel	10	Octubre	2023-06-10T00:00:00	2024-11-08T17:00:00	3	Temperatura mínima	22.5
64704	7	Sololá	710	Panajachel	8	Panajachel	10	Octubre	2023-06-10T00:00:00	2024-11-08T17:00:00	5	Humedad	87
64705	7	Sololá	710	Panajachel	8	Panajachel	10	Octubre	2023-06-10T00:00:00	2024-11-08T17:00:00	6	Velocidad del viento	3.2
64706	7	Sololá	710	Panajachel	8	Panajachel	10	Octubre	2023-06-10T00:00:00	2024-11-08T17:00:00	7	Dirección del viento	3.22
64707	7	Sololá	710	Panajachel	8	Panajachel	10	Octubre	2023-06-10T00:00:00	2024-11-08T17:00:00	1	Precipitación	0
64708	7	Sololá	710	Panajachel	8	Panajachel	10	Octubre	2023-06-10T00:00:00	2024-11-08T17:00:00	8	Radiación solar	100
64709	7	Sololá	710	Panajachel	8	Panajachel	10	Octubre	2023-06-10T00:00:00	2024-11-08T18:00:00	2	Temperatura media	21.4
64710	7	Sololá	710	Panajachel	8	Panajachel	10	Octubre	2023-06-10T00:00:00	2024-11-08T18:00:00	4	Temperatura máxima	22.7
64711	7	Sololá	710	Panajachel	8	Panajachel	10	Octubre	2023-06-10T00:00:00	2024-11-08T18:00:00	3	Temperatura mínima	21.4
64712	7	Sololá	710	Panajachel	8	Panajachel	10	Octubre	2023-06-10T00:00:00	2024-11-08T18:00:00	5	Humedad	91
64713	7	Sololá	710	Panajachel	8	Panajachel	10	Octubre	2023-06-10T00:00:00	2024-11-08T18:00:00	6	Velocidad del viento	3.2
64714	7	Sololá	710	Panajachel	8	Panajachel	10	Octubre	2023-06-10T00:00:00	2024-11-08T18:00:00	7	Dirección del viento	3.22
64715	7	Sololá	710	Panajachel	8	Panajachel	10	Octubre	2023-06-10T00:00:00	2024-11-08T18:00:00	1	Precipitación	0
64716	7	Sololá	710	Panajachel	8	Panajachel	10	Octubre	2023-06-10T00:00:00	2024-11-08T18:00:00	8	Radiación solar	13
64717	7	Sololá	710	Panajachel	8	Panajachel	10	Octubre	2023-06-10T00:00:00	2024-11-08T19:00:00	2	Temperatura media	21.2
64718	7	Sololá	710	Panajachel	8	Panajachel	10	Octubre	2023-06-10T00:00:00	2024-11-08T19:00:00	4	Temperatura máxima	21.6
64719	7	Sololá	710	Panajachel	8	Panajachel	10	Octubre	2023-06-10T00:00:00	2024-11-08T19:00:00	3	Temperatura mínima	21.2
64720	7	Sololá	710	Panajachel	8	Panajachel	10	Octubre	2023-06-10T00:00:00	2024-11-08T19:00:00	5	Humedad	88
64721	7	Sololá	710	Panajachel	8	Panajachel	10	Octubre	2023-06-10T00:00:00	2024-11-08T19:00:00	6	Velocidad del viento	0
64722	7	Sololá	710	Panajachel	8	Panajachel	10	Octubre	2023-06-10T00:00:00	2024-11-08T19:00:00	7	Dirección del viento	0
64723	7	Sololá	710	Panajachel	8	Panajachel	10	Octubre	2023-06-10T00:00:00	2024-11-08T19:00:00	1	Precipitación	0
64724	7	Sololá	710	Panajachel	8	Panajachel	10	Octubre	2023-06-10T00:00:00	2024-11-08T19:00:00	8	Radiación solar	0
64725	7	Sololá	710	Panajachel	8	Panajachel	10	Octubre	2023-06-10T00:00:00	2024-11-08T20:00:00	2	Temperatura media	20.3
64726	7	Sololá	710	Panajachel	8	Panajachel	10	Octubre	2023-06-10T00:00:00	2024-11-08T20:00:00	4	Temperatura máxima	21.3
64727	7	Sololá	710	Panajachel	8	Panajachel	10	Octubre	2023-06-10T00:00:00	2024-11-08T20:00:00	3	Temperatura mínima	20.3
64728	7	Sololá	710	Panajachel	8	Panajachel	10	Octubre	2023-06-10T00:00:00	2024-11-08T20:00:00	5	Humedad	94
64729	7	Sololá	710	Panajachel	8	Panajachel	10	Octubre	2023-06-10T00:00:00	2024-11-08T20:00:00	6	Velocidad del viento	3.2
64730	7	Sololá	710	Panajachel	8	Panajachel	10	Octubre	2023-06-10T00:00:00	2024-11-08T20:00:00	7	Dirección del viento	3.22
64731	7	Sololá	710	Panajachel	8	Panajachel	10	Octubre	2023-06-10T00:00:00	2024-11-08T20:00:00	1	Precipitación	0
64732	7	Sololá	710	Panajachel	8	Panajachel	10	Octubre	2023-06-10T00:00:00	2024-11-08T20:00:00	8	Radiación solar	0
64733	7	Sololá	710	Panajachel	8	Panajachel	10	Octubre	2023-06-10T00:00:00	2024-11-08T21:00:00	2	Temperatura media	19.5
64734	7	Sololá	710	Panajachel	8	Panajachel	10	Octubre	2023-06-10T00:00:00	2024-11-08T21:00:00	4	Temperatura máxima	20.3
64735	7	Sololá	710	Panajachel	8	Panajachel	10	Octubre	2023-06-10T00:00:00	2024-11-08T21:00:00	3	Temperatura mínima	19.5
64736	7	Sololá	710	Panajachel	8	Panajachel	10	Octubre	2023-06-10T00:00:00	2024-11-08T21:00:00	5	Humedad	93
64737	7	Sololá	710	Panajachel	8	Panajachel	10	Octubre	2023-06-10T00:00:00	2024-11-08T21:00:00	6	Velocidad del viento	3.2
64738	7	Sololá	710	Panajachel	8	Panajachel	10	Octubre	2023-06-10T00:00:00	2024-11-08T21:00:00	7	Dirección del viento	3.22
64739	7	Sololá	710	Panajachel	8	Panajachel	10	Octubre	2023-06-10T00:00:00	2024-11-08T21:00:00	1	Precipitación	0
64740	7	Sololá	710	Panajachel	8	Panajachel	10	Octubre	2023-06-10T00:00:00	2024-11-08T21:00:00	8	Radiación solar	0
64741	7	Sololá	710	Panajachel	8	Panajachel	10	Octubre	2023-06-10T00:00:00	2024-11-08T22:00:00	2	Temperatura media	19.4
64742	7	Sololá	710	Panajachel	8	Panajachel	10	Octubre	2023-06-10T00:00:00	2024-11-08T22:00:00	4	Temperatura máxima	19.6
64743	7	Sololá	710	Panajachel	8	Panajachel	10	Octubre	2023-06-10T00:00:00	2024-11-08T22:00:00	3	Temperatura mínima	19.4
64744	7	Sololá	710	Panajachel	8	Panajachel	10	Octubre	2023-06-10T00:00:00	2024-11-08T22:00:00	5	Humedad	93
64745	7	Sololá	710	Panajachel	8	Panajachel	10	Octubre	2023-06-10T00:00:00	2024-11-08T22:00:00	6	Velocidad del viento	0
64746	7	Sololá	710	Panajachel	8	Panajachel	10	Octubre	2023-06-10T00:00:00	2024-11-08T22:00:00	7	Dirección del viento	0
64747	7	Sololá	710	Panajachel	8	Panajachel	10	Octubre	2023-06-10T00:00:00	2024-11-08T22:00:00	1	Precipitación	0
64748	7	Sololá	710	Panajachel	8	Panajachel	10	Octubre	2023-06-10T00:00:00	2024-11-08T22:00:00	8	Radiación solar	0
64749	7	Sololá	710	Panajachel	8	Panajachel	10	Octubre	2023-06-10T00:00:00	2024-11-08T23:00:00	2	Temperatura media	19.3
64750	7	Sololá	710	Panajachel	8	Panajachel	10	Octubre	2023-06-10T00:00:00	2024-11-08T23:00:00	4	Temperatura máxima	19.6
64751	7	Sololá	710	Panajachel	8	Panajachel	10	Octubre	2023-06-10T00:00:00	2024-11-08T23:00:00	3	Temperatura mínima	19.3
64752	7	Sololá	710	Panajachel	8	Panajachel	10	Octubre	2023-06-10T00:00:00	2024-11-08T23:00:00	5	Humedad	93
64753	7	Sololá	710	Panajachel	8	Panajachel	10	Octubre	2023-06-10T00:00:00	2024-11-08T23:00:00	6	Velocidad del viento	0
64754	7	Sololá	710	Panajachel	8	Panajachel	10	Octubre	2023-06-10T00:00:00	2024-11-08T23:00:00	7	Dirección del viento	0
64755	7	Sololá	710	Panajachel	8	Panajachel	10	Octubre	2023-06-10T00:00:00	2024-11-08T23:00:00	1	Precipitación	2.6
64756	7	Sololá	710	Panajachel	8	Panajachel	10	Octubre	2023-06-10T00:00:00	2024-11-08T23:00:00	8	Radiación solar	0
64757	7	Sololá	710	Panajachel	8	Panajachel	10	Octubre	2023-07-10T00:00:00	2024-11-08T00:00:00	2	Temperatura media	18.7
64758	7	Sololá	710	Panajachel	8	Panajachel	10	Octubre	2023-07-10T00:00:00	2024-11-08T00:00:00	4	Temperatura máxima	19.3
64759	7	Sololá	710	Panajachel	8	Panajachel	10	Octubre	2023-07-10T00:00:00	2024-11-08T00:00:00	3	Temperatura mínima	18.7
64760	7	Sololá	710	Panajachel	8	Panajachel	10	Octubre	2023-07-10T00:00:00	2024-11-08T00:00:00	5	Humedad	97
64761	7	Sololá	710	Panajachel	8	Panajachel	10	Octubre	2023-07-10T00:00:00	2024-11-08T00:00:00	6	Velocidad del viento	0
64762	7	Sololá	710	Panajachel	8	Panajachel	10	Octubre	2023-07-10T00:00:00	2024-11-08T00:00:00	7	Dirección del viento	0
64763	7	Sololá	710	Panajachel	8	Panajachel	10	Octubre	2023-07-10T00:00:00	2024-11-08T00:00:00	1	Precipitación	2.6
64764	7	Sololá	710	Panajachel	8	Panajachel	10	Octubre	2023-07-10T00:00:00	2024-11-08T00:00:00	8	Radiación solar	0
64765	7	Sololá	710	Panajachel	8	Panajachel	10	Octubre	2023-07-10T00:00:00	2024-11-08T01:00:00	2	Temperatura media	18.4
64766	7	Sololá	710	Panajachel	8	Panajachel	10	Octubre	2023-07-10T00:00:00	2024-11-08T01:00:00	4	Temperatura máxima	18.7
64767	7	Sololá	710	Panajachel	8	Panajachel	10	Octubre	2023-07-10T00:00:00	2024-11-08T01:00:00	3	Temperatura mínima	18.4
64768	7	Sololá	710	Panajachel	8	Panajachel	10	Octubre	2023-07-10T00:00:00	2024-11-08T01:00:00	5	Humedad	97
64769	7	Sololá	710	Panajachel	8	Panajachel	10	Octubre	2023-07-10T00:00:00	2024-11-08T01:00:00	6	Velocidad del viento	0
64770	7	Sololá	710	Panajachel	8	Panajachel	10	Octubre	2023-07-10T00:00:00	2024-11-08T01:00:00	7	Dirección del viento	0
64771	7	Sololá	710	Panajachel	8	Panajachel	10	Octubre	2023-07-10T00:00:00	2024-11-08T01:00:00	1	Precipitación	0.2
64772	7	Sololá	710	Panajachel	8	Panajachel	10	Octubre	2023-07-10T00:00:00	2024-11-08T01:00:00	8	Radiación solar	0
64773	7	Sololá	710	Panajachel	8	Panajachel	10	Octubre	2023-07-10T00:00:00	2024-11-08T02:00:00	2	Temperatura media	18.4
64774	7	Sololá	710	Panajachel	8	Panajachel	10	Octubre	2023-07-10T00:00:00	2024-11-08T02:00:00	4	Temperatura máxima	18.5
64775	7	Sololá	710	Panajachel	8	Panajachel	10	Octubre	2023-07-10T00:00:00	2024-11-08T02:00:00	3	Temperatura mínima	18.4
64776	7	Sololá	710	Panajachel	8	Panajachel	10	Octubre	2023-07-10T00:00:00	2024-11-08T02:00:00	5	Humedad	97
64777	7	Sololá	710	Panajachel	8	Panajachel	10	Octubre	2023-07-10T00:00:00	2024-11-08T02:00:00	6	Velocidad del viento	0
64778	7	Sololá	710	Panajachel	8	Panajachel	10	Octubre	2023-07-10T00:00:00	2024-11-08T02:00:00	7	Dirección del viento	0
64779	7	Sololá	710	Panajachel	8	Panajachel	10	Octubre	2023-07-10T00:00:00	2024-11-08T02:00:00	1	Precipitación	0
64780	7	Sololá	710	Panajachel	8	Panajachel	10	Octubre	2023-07-10T00:00:00	2024-11-08T02:00:00	8	Radiación solar	0
64781	7	Sololá	710	Panajachel	8	Panajachel	10	Octubre	2023-07-10T00:00:00	2024-11-08T03:00:00	2	Temperatura media	18.2
64782	7	Sololá	710	Panajachel	8	Panajachel	10	Octubre	2023-07-10T00:00:00	2024-11-08T03:00:00	4	Temperatura máxima	18.4
64783	7	Sololá	710	Panajachel	8	Panajachel	10	Octubre	2023-07-10T00:00:00	2024-11-08T03:00:00	3	Temperatura mínima	18.1
64784	7	Sololá	710	Panajachel	8	Panajachel	10	Octubre	2023-07-10T00:00:00	2024-11-08T03:00:00	5	Humedad	98
64785	7	Sololá	710	Panajachel	8	Panajachel	10	Octubre	2023-07-10T00:00:00	2024-11-08T03:00:00	6	Velocidad del viento	0
64786	7	Sololá	710	Panajachel	8	Panajachel	10	Octubre	2023-07-10T00:00:00	2024-11-08T03:00:00	7	Dirección del viento	0
64787	7	Sololá	710	Panajachel	8	Panajachel	10	Octubre	2023-07-10T00:00:00	2024-11-08T03:00:00	1	Precipitación	0
64788	7	Sololá	710	Panajachel	8	Panajachel	10	Octubre	2023-07-10T00:00:00	2024-11-08T03:00:00	8	Radiación solar	0
64789	7	Sololá	710	Panajachel	8	Panajachel	10	Octubre	2023-07-10T00:00:00	2024-11-08T04:00:00	2	Temperatura media	18.1
64790	7	Sololá	710	Panajachel	8	Panajachel	10	Octubre	2023-07-10T00:00:00	2024-11-08T04:00:00	4	Temperatura máxima	18.3
64791	7	Sololá	710	Panajachel	8	Panajachel	10	Octubre	2023-07-10T00:00:00	2024-11-08T04:00:00	3	Temperatura mínima	18.1
64792	7	Sololá	710	Panajachel	8	Panajachel	10	Octubre	2023-07-10T00:00:00	2024-11-08T04:00:00	5	Humedad	96
64793	7	Sololá	710	Panajachel	8	Panajachel	10	Octubre	2023-07-10T00:00:00	2024-11-08T04:00:00	6	Velocidad del viento	1.6
64794	7	Sololá	710	Panajachel	8	Panajachel	10	Octubre	2023-07-10T00:00:00	2024-11-08T04:00:00	7	Dirección del viento	1.61
64795	7	Sololá	710	Panajachel	8	Panajachel	10	Octubre	2023-07-10T00:00:00	2024-11-08T04:00:00	1	Precipitación	0
64796	7	Sololá	710	Panajachel	8	Panajachel	10	Octubre	2023-07-10T00:00:00	2024-11-08T04:00:00	8	Radiación solar	0
64797	7	Sololá	710	Panajachel	8	Panajachel	10	Octubre	2023-07-10T00:00:00	2024-11-08T05:00:00	2	Temperatura media	18.1
64798	7	Sololá	710	Panajachel	8	Panajachel	10	Octubre	2023-07-10T00:00:00	2024-11-08T05:00:00	4	Temperatura máxima	18.2
64799	7	Sololá	710	Panajachel	8	Panajachel	10	Octubre	2023-07-10T00:00:00	2024-11-08T05:00:00	3	Temperatura mínima	18.1
64800	7	Sololá	710	Panajachel	8	Panajachel	10	Octubre	2023-07-10T00:00:00	2024-11-08T05:00:00	5	Humedad	96
64801	7	Sololá	710	Panajachel	8	Panajachel	10	Octubre	2023-07-10T00:00:00	2024-11-08T05:00:00	6	Velocidad del viento	1.6
64802	7	Sololá	710	Panajachel	8	Panajachel	10	Octubre	2023-07-10T00:00:00	2024-11-08T05:00:00	7	Dirección del viento	1.61
64803	7	Sololá	710	Panajachel	8	Panajachel	10	Octubre	2023-07-10T00:00:00	2024-11-08T05:00:00	1	Precipitación	0
64804	7	Sololá	710	Panajachel	8	Panajachel	10	Octubre	2023-07-10T00:00:00	2024-11-08T05:00:00	8	Radiación solar	0
64805	7	Sololá	710	Panajachel	8	Panajachel	10	Octubre	2023-07-10T00:00:00	2024-11-08T06:00:00	2	Temperatura media	18.2
64806	7	Sololá	710	Panajachel	8	Panajachel	10	Octubre	2023-07-10T00:00:00	2024-11-08T06:00:00	4	Temperatura máxima	18.2
64807	7	Sololá	710	Panajachel	8	Panajachel	10	Octubre	2023-07-10T00:00:00	2024-11-08T06:00:00	3	Temperatura mínima	18
64808	7	Sololá	710	Panajachel	8	Panajachel	10	Octubre	2023-07-10T00:00:00	2024-11-08T06:00:00	5	Humedad	95
64809	7	Sololá	710	Panajachel	8	Panajachel	10	Octubre	2023-07-10T00:00:00	2024-11-08T06:00:00	6	Velocidad del viento	1.6
64810	7	Sololá	710	Panajachel	8	Panajachel	10	Octubre	2023-07-10T00:00:00	2024-11-08T06:00:00	7	Dirección del viento	1.61
64811	7	Sololá	710	Panajachel	8	Panajachel	10	Octubre	2023-07-10T00:00:00	2024-11-08T06:00:00	1	Precipitación	0
64812	7	Sololá	710	Panajachel	8	Panajachel	10	Octubre	2023-07-10T00:00:00	2024-11-08T06:00:00	8	Radiación solar	0
64813	7	Sololá	710	Panajachel	8	Panajachel	10	Octubre	2023-07-10T00:00:00	2024-11-08T07:00:00	2	Temperatura media	18.9
64814	7	Sololá	710	Panajachel	8	Panajachel	10	Octubre	2023-07-10T00:00:00	2024-11-08T07:00:00	4	Temperatura máxima	18.9
64815	7	Sololá	710	Panajachel	8	Panajachel	10	Octubre	2023-07-10T00:00:00	2024-11-08T07:00:00	3	Temperatura mínima	18.2
64816	7	Sololá	710	Panajachel	8	Panajachel	10	Octubre	2023-07-10T00:00:00	2024-11-08T07:00:00	5	Humedad	94
64817	7	Sololá	710	Panajachel	8	Panajachel	10	Octubre	2023-07-10T00:00:00	2024-11-08T07:00:00	6	Velocidad del viento	1.6
64818	7	Sololá	710	Panajachel	8	Panajachel	10	Octubre	2023-07-10T00:00:00	2024-11-08T07:00:00	7	Dirección del viento	1.61
64819	7	Sololá	710	Panajachel	8	Panajachel	10	Octubre	2023-07-10T00:00:00	2024-11-08T07:00:00	1	Precipitación	0
64820	7	Sololá	710	Panajachel	8	Panajachel	10	Octubre	2023-07-10T00:00:00	2024-11-08T07:00:00	8	Radiación solar	40
64821	7	Sololá	710	Panajachel	8	Panajachel	10	Octubre	2023-07-10T00:00:00	2024-11-08T08:00:00	2	Temperatura media	20.9
64822	7	Sololá	710	Panajachel	8	Panajachel	10	Octubre	2023-07-10T00:00:00	2024-11-08T08:00:00	4	Temperatura máxima	21
64823	7	Sololá	710	Panajachel	8	Panajachel	10	Octubre	2023-07-10T00:00:00	2024-11-08T08:00:00	3	Temperatura mínima	18.9
64824	7	Sololá	710	Panajachel	8	Panajachel	10	Octubre	2023-07-10T00:00:00	2024-11-08T08:00:00	5	Humedad	88
64825	7	Sololá	710	Panajachel	8	Panajachel	10	Octubre	2023-07-10T00:00:00	2024-11-08T08:00:00	6	Velocidad del viento	0
64826	7	Sololá	710	Panajachel	8	Panajachel	10	Octubre	2023-07-10T00:00:00	2024-11-08T08:00:00	7	Dirección del viento	0
64827	7	Sololá	710	Panajachel	8	Panajachel	10	Octubre	2023-07-10T00:00:00	2024-11-08T08:00:00	1	Precipitación	0
64828	7	Sololá	710	Panajachel	8	Panajachel	10	Octubre	2023-07-10T00:00:00	2024-11-08T08:00:00	8	Radiación solar	160
64829	7	Sololá	710	Panajachel	8	Panajachel	10	Octubre	2023-07-10T00:00:00	2024-11-08T09:00:00	2	Temperatura media	21.8
64830	7	Sololá	710	Panajachel	8	Panajachel	10	Octubre	2023-07-10T00:00:00	2024-11-08T09:00:00	4	Temperatura máxima	22.3
64831	7	Sololá	710	Panajachel	8	Panajachel	10	Octubre	2023-07-10T00:00:00	2024-11-08T09:00:00	3	Temperatura mínima	20.9
64832	7	Sololá	710	Panajachel	8	Panajachel	10	Octubre	2023-07-10T00:00:00	2024-11-08T09:00:00	5	Humedad	84
64833	7	Sololá	710	Panajachel	8	Panajachel	10	Octubre	2023-07-10T00:00:00	2024-11-08T09:00:00	6	Velocidad del viento	1.6
64834	7	Sololá	710	Panajachel	8	Panajachel	10	Octubre	2023-07-10T00:00:00	2024-11-08T09:00:00	7	Dirección del viento	1.61
64835	7	Sololá	710	Panajachel	8	Panajachel	10	Octubre	2023-07-10T00:00:00	2024-11-08T09:00:00	1	Precipitación	0.2
64836	7	Sololá	710	Panajachel	8	Panajachel	10	Octubre	2023-07-10T00:00:00	2024-11-08T09:00:00	8	Radiación solar	348
64837	7	Sololá	710	Panajachel	8	Panajachel	10	Octubre	2023-07-10T00:00:00	2024-11-08T10:00:00	2	Temperatura media	23.2
64838	7	Sololá	710	Panajachel	8	Panajachel	10	Octubre	2023-07-10T00:00:00	2024-11-08T10:00:00	4	Temperatura máxima	23.3
64839	7	Sololá	710	Panajachel	8	Panajachel	10	Octubre	2023-07-10T00:00:00	2024-11-08T10:00:00	3	Temperatura mínima	21.8
64840	7	Sololá	710	Panajachel	8	Panajachel	10	Octubre	2023-07-10T00:00:00	2024-11-08T10:00:00	5	Humedad	80
64841	7	Sololá	710	Panajachel	8	Panajachel	10	Octubre	2023-07-10T00:00:00	2024-11-08T10:00:00	6	Velocidad del viento	3.2
64842	7	Sololá	710	Panajachel	8	Panajachel	10	Octubre	2023-07-10T00:00:00	2024-11-08T10:00:00	7	Dirección del viento	3.22
64843	7	Sololá	710	Panajachel	8	Panajachel	10	Octubre	2023-07-10T00:00:00	2024-11-08T10:00:00	1	Precipitación	0
64844	7	Sololá	710	Panajachel	8	Panajachel	10	Octubre	2023-07-10T00:00:00	2024-11-08T10:00:00	8	Radiación solar	714
64845	7	Sololá	710	Panajachel	8	Panajachel	10	Octubre	2023-07-10T00:00:00	2024-11-08T11:00:00	2	Temperatura media	23.3
64846	7	Sololá	710	Panajachel	8	Panajachel	10	Octubre	2023-07-10T00:00:00	2024-11-08T11:00:00	4	Temperatura máxima	23.9
64847	7	Sololá	710	Panajachel	8	Panajachel	10	Octubre	2023-07-10T00:00:00	2024-11-08T11:00:00	3	Temperatura mínima	23.1
64848	7	Sololá	710	Panajachel	8	Panajachel	10	Octubre	2023-07-10T00:00:00	2024-11-08T11:00:00	5	Humedad	80
64849	7	Sololá	710	Panajachel	8	Panajachel	10	Octubre	2023-07-10T00:00:00	2024-11-08T11:00:00	6	Velocidad del viento	3.2
64850	7	Sololá	710	Panajachel	8	Panajachel	10	Octubre	2023-07-10T00:00:00	2024-11-08T11:00:00	7	Dirección del viento	3.22
64851	7	Sololá	710	Panajachel	8	Panajachel	10	Octubre	2023-07-10T00:00:00	2024-11-08T11:00:00	1	Precipitación	0
64852	7	Sololá	710	Panajachel	8	Panajachel	10	Octubre	2023-07-10T00:00:00	2024-11-08T11:00:00	8	Radiación solar	820
64853	7	Sololá	710	Panajachel	8	Panajachel	10	Octubre	2023-07-10T00:00:00	2024-11-08T12:00:00	2	Temperatura media	25.4
64854	7	Sololá	710	Panajachel	8	Panajachel	10	Octubre	2023-07-10T00:00:00	2024-11-08T12:00:00	4	Temperatura máxima	25.7
64855	7	Sololá	710	Panajachel	8	Panajachel	10	Octubre	2023-07-10T00:00:00	2024-11-08T12:00:00	3	Temperatura mínima	23.2
64856	7	Sololá	710	Panajachel	8	Panajachel	10	Octubre	2023-07-10T00:00:00	2024-11-08T12:00:00	5	Humedad	69
64857	7	Sololá	710	Panajachel	8	Panajachel	10	Octubre	2023-07-10T00:00:00	2024-11-08T12:00:00	6	Velocidad del viento	3.2
64858	7	Sololá	710	Panajachel	8	Panajachel	10	Octubre	2023-07-10T00:00:00	2024-11-08T12:00:00	7	Dirección del viento	3.22
64859	7	Sololá	710	Panajachel	8	Panajachel	10	Octubre	2023-07-10T00:00:00	2024-11-08T12:00:00	1	Precipitación	0
64860	7	Sololá	710	Panajachel	8	Panajachel	10	Octubre	2023-07-10T00:00:00	2024-11-08T12:00:00	8	Radiación solar	891
64861	7	Sololá	710	Panajachel	8	Panajachel	10	Octubre	2023-07-10T00:00:00	2024-11-08T13:00:00	2	Temperatura media	25.3
64862	7	Sololá	710	Panajachel	8	Panajachel	10	Octubre	2023-07-10T00:00:00	2024-11-08T13:00:00	4	Temperatura máxima	25.7
64863	7	Sololá	710	Panajachel	8	Panajachel	10	Octubre	2023-07-10T00:00:00	2024-11-08T13:00:00	3	Temperatura mínima	25.2
64864	7	Sololá	710	Panajachel	8	Panajachel	10	Octubre	2023-07-10T00:00:00	2024-11-08T13:00:00	5	Humedad	81
64865	7	Sololá	710	Panajachel	8	Panajachel	10	Octubre	2023-07-10T00:00:00	2024-11-08T13:00:00	6	Velocidad del viento	3.2
64866	7	Sololá	710	Panajachel	8	Panajachel	10	Octubre	2023-07-10T00:00:00	2024-11-08T13:00:00	7	Dirección del viento	3.22
64867	7	Sololá	710	Panajachel	8	Panajachel	10	Octubre	2023-07-10T00:00:00	2024-11-08T13:00:00	1	Precipitación	0
64868	7	Sololá	710	Panajachel	8	Panajachel	10	Octubre	2023-07-10T00:00:00	2024-11-08T13:00:00	8	Radiación solar	740
64869	7	Sololá	710	Panajachel	8	Panajachel	10	Octubre	2023-07-10T00:00:00	2024-11-08T14:00:00	2	Temperatura media	25.6
64870	7	Sololá	710	Panajachel	8	Panajachel	10	Octubre	2023-07-10T00:00:00	2024-11-08T14:00:00	4	Temperatura máxima	25.8
64871	7	Sololá	710	Panajachel	8	Panajachel	10	Octubre	2023-07-10T00:00:00	2024-11-08T14:00:00	3	Temperatura mínima	25.2
64872	7	Sololá	710	Panajachel	8	Panajachel	10	Octubre	2023-07-10T00:00:00	2024-11-08T14:00:00	5	Humedad	82
64873	7	Sololá	710	Panajachel	8	Panajachel	10	Octubre	2023-07-10T00:00:00	2024-11-08T14:00:00	6	Velocidad del viento	4.8
64874	7	Sololá	710	Panajachel	8	Panajachel	10	Octubre	2023-07-10T00:00:00	2024-11-08T14:00:00	7	Dirección del viento	4.83
64875	7	Sololá	710	Panajachel	8	Panajachel	10	Octubre	2023-07-10T00:00:00	2024-11-08T14:00:00	1	Precipitación	0
64876	7	Sololá	710	Panajachel	8	Panajachel	10	Octubre	2023-07-10T00:00:00	2024-11-08T14:00:00	8	Radiación solar	832
64877	7	Sololá	710	Panajachel	8	Panajachel	10	Octubre	2023-07-10T00:00:00	2024-11-08T15:00:00	2	Temperatura media	23.1
64878	7	Sololá	710	Panajachel	8	Panajachel	10	Octubre	2023-07-10T00:00:00	2024-11-08T15:00:00	4	Temperatura máxima	25.7
64879	7	Sololá	710	Panajachel	8	Panajachel	10	Octubre	2023-07-10T00:00:00	2024-11-08T15:00:00	3	Temperatura mínima	23.1
64880	7	Sololá	710	Panajachel	8	Panajachel	10	Octubre	2023-07-10T00:00:00	2024-11-08T15:00:00	5	Humedad	90
64881	7	Sololá	710	Panajachel	8	Panajachel	10	Octubre	2023-07-10T00:00:00	2024-11-08T15:00:00	6	Velocidad del viento	4.8
64882	7	Sololá	710	Panajachel	8	Panajachel	10	Octubre	2023-07-10T00:00:00	2024-11-08T15:00:00	7	Dirección del viento	4.83
64883	7	Sololá	710	Panajachel	8	Panajachel	10	Octubre	2023-07-10T00:00:00	2024-11-08T15:00:00	1	Precipitación	0
64884	7	Sololá	710	Panajachel	8	Panajachel	10	Octubre	2023-07-10T00:00:00	2024-11-08T15:00:00	8	Radiación solar	280
64885	7	Sololá	710	Panajachel	8	Panajachel	10	Octubre	2023-07-10T00:00:00	2024-11-08T16:00:00	2	Temperatura media	21.6
64886	7	Sololá	710	Panajachel	8	Panajachel	10	Octubre	2023-07-10T00:00:00	2024-11-08T16:00:00	4	Temperatura máxima	23.1
64887	7	Sololá	710	Panajachel	8	Panajachel	10	Octubre	2023-07-10T00:00:00	2024-11-08T16:00:00	3	Temperatura mínima	21.6
64888	7	Sololá	710	Panajachel	8	Panajachel	10	Octubre	2023-07-10T00:00:00	2024-11-08T16:00:00	5	Humedad	96
64889	7	Sololá	710	Panajachel	8	Panajachel	10	Octubre	2023-07-10T00:00:00	2024-11-08T16:00:00	6	Velocidad del viento	1.6
64890	7	Sololá	710	Panajachel	8	Panajachel	10	Octubre	2023-07-10T00:00:00	2024-11-08T16:00:00	7	Dirección del viento	1.61
64891	7	Sololá	710	Panajachel	8	Panajachel	10	Octubre	2023-07-10T00:00:00	2024-11-08T16:00:00	1	Precipitación	5.4
64892	7	Sololá	710	Panajachel	8	Panajachel	10	Octubre	2023-07-10T00:00:00	2024-11-08T16:00:00	8	Radiación solar	38
64893	7	Sololá	710	Panajachel	8	Panajachel	10	Octubre	2023-07-10T00:00:00	2024-11-08T17:00:00	2	Temperatura media	19.8
64894	7	Sololá	710	Panajachel	8	Panajachel	10	Octubre	2023-07-10T00:00:00	2024-11-08T17:00:00	4	Temperatura máxima	21.5
64895	7	Sololá	710	Panajachel	8	Panajachel	10	Octubre	2023-07-10T00:00:00	2024-11-08T17:00:00	3	Temperatura mínima	19.8
64896	7	Sololá	710	Panajachel	8	Panajachel	10	Octubre	2023-07-10T00:00:00	2024-11-08T17:00:00	5	Humedad	94
64897	7	Sololá	710	Panajachel	8	Panajachel	10	Octubre	2023-07-10T00:00:00	2024-11-08T17:00:00	6	Velocidad del viento	6.4
64898	7	Sololá	710	Panajachel	8	Panajachel	10	Octubre	2023-07-10T00:00:00	2024-11-08T17:00:00	7	Dirección del viento	6.44
64899	7	Sololá	710	Panajachel	8	Panajachel	10	Octubre	2023-07-10T00:00:00	2024-11-08T17:00:00	1	Precipitación	0.4
64900	7	Sololá	710	Panajachel	8	Panajachel	10	Octubre	2023-07-10T00:00:00	2024-11-08T17:00:00	8	Radiación solar	2
64901	7	Sololá	710	Panajachel	8	Panajachel	10	Octubre	2023-07-10T00:00:00	2024-11-08T18:00:00	2	Temperatura media	20.1
64902	7	Sololá	710	Panajachel	8	Panajachel	10	Octubre	2023-07-10T00:00:00	2024-11-08T18:00:00	4	Temperatura máxima	20.1
64903	7	Sololá	710	Panajachel	8	Panajachel	10	Octubre	2023-07-10T00:00:00	2024-11-08T18:00:00	3	Temperatura mínima	19.6
64904	7	Sololá	710	Panajachel	8	Panajachel	10	Octubre	2023-07-10T00:00:00	2024-11-08T18:00:00	5	Humedad	96
64905	7	Sololá	710	Panajachel	8	Panajachel	10	Octubre	2023-07-10T00:00:00	2024-11-08T18:00:00	6	Velocidad del viento	1.6
64906	7	Sololá	710	Panajachel	8	Panajachel	10	Octubre	2023-07-10T00:00:00	2024-11-08T18:00:00	7	Dirección del viento	1.61
64907	7	Sololá	710	Panajachel	8	Panajachel	10	Octubre	2023-07-10T00:00:00	2024-11-08T18:00:00	1	Precipitación	0.2
64908	7	Sololá	710	Panajachel	8	Panajachel	10	Octubre	2023-07-10T00:00:00	2024-11-08T18:00:00	8	Radiación solar	0
64909	7	Sololá	710	Panajachel	8	Panajachel	10	Octubre	2023-07-10T00:00:00	2024-11-08T19:00:00	2	Temperatura media	19.4
64910	7	Sololá	710	Panajachel	8	Panajachel	10	Octubre	2023-07-10T00:00:00	2024-11-08T19:00:00	4	Temperatura máxima	20.2
64911	7	Sololá	710	Panajachel	8	Panajachel	10	Octubre	2023-07-10T00:00:00	2024-11-08T19:00:00	3	Temperatura mínima	19.3
64912	7	Sololá	710	Panajachel	8	Panajachel	10	Octubre	2023-07-10T00:00:00	2024-11-08T19:00:00	5	Humedad	98
64913	7	Sololá	710	Panajachel	8	Panajachel	10	Octubre	2023-07-10T00:00:00	2024-11-08T19:00:00	6	Velocidad del viento	1.6
64914	7	Sololá	710	Panajachel	8	Panajachel	10	Octubre	2023-07-10T00:00:00	2024-11-08T19:00:00	7	Dirección del viento	1.61
64915	7	Sololá	710	Panajachel	8	Panajachel	10	Octubre	2023-07-10T00:00:00	2024-11-08T19:00:00	1	Precipitación	8.2
64916	7	Sololá	710	Panajachel	8	Panajachel	10	Octubre	2023-07-10T00:00:00	2024-11-08T19:00:00	8	Radiación solar	0
64917	7	Sololá	710	Panajachel	8	Panajachel	10	Octubre	2023-07-10T00:00:00	2024-11-08T20:00:00	2	Temperatura media	18.8
64918	7	Sololá	710	Panajachel	8	Panajachel	10	Octubre	2023-07-10T00:00:00	2024-11-08T20:00:00	4	Temperatura máxima	19.5
64919	7	Sololá	710	Panajachel	8	Panajachel	10	Octubre	2023-07-10T00:00:00	2024-11-08T20:00:00	3	Temperatura mínima	18.8
64920	7	Sololá	710	Panajachel	8	Panajachel	10	Octubre	2023-07-10T00:00:00	2024-11-08T20:00:00	5	Humedad	98
64921	7	Sololá	710	Panajachel	8	Panajachel	10	Octubre	2023-07-10T00:00:00	2024-11-08T20:00:00	6	Velocidad del viento	1.6
64922	7	Sololá	710	Panajachel	8	Panajachel	10	Octubre	2023-07-10T00:00:00	2024-11-08T20:00:00	7	Dirección del viento	1.61
64923	7	Sololá	710	Panajachel	8	Panajachel	10	Octubre	2023-07-10T00:00:00	2024-11-08T20:00:00	1	Precipitación	6.8
64924	7	Sololá	710	Panajachel	8	Panajachel	10	Octubre	2023-07-10T00:00:00	2024-11-08T20:00:00	8	Radiación solar	0
64925	7	Sololá	710	Panajachel	8	Panajachel	10	Octubre	2023-07-10T00:00:00	2024-11-08T21:00:00	2	Temperatura media	18.2
64926	7	Sololá	710	Panajachel	8	Panajachel	10	Octubre	2023-07-10T00:00:00	2024-11-08T21:00:00	4	Temperatura máxima	18.8
64927	7	Sololá	710	Panajachel	8	Panajachel	10	Octubre	2023-07-10T00:00:00	2024-11-08T21:00:00	3	Temperatura mínima	18.2
64928	7	Sololá	710	Panajachel	8	Panajachel	10	Octubre	2023-07-10T00:00:00	2024-11-08T21:00:00	5	Humedad	96
64929	7	Sololá	710	Panajachel	8	Panajachel	10	Octubre	2023-07-10T00:00:00	2024-11-08T21:00:00	6	Velocidad del viento	1.6
64930	7	Sololá	710	Panajachel	8	Panajachel	10	Octubre	2023-07-10T00:00:00	2024-11-08T21:00:00	7	Dirección del viento	1.61
64931	7	Sololá	710	Panajachel	8	Panajachel	10	Octubre	2023-07-10T00:00:00	2024-11-08T21:00:00	1	Precipitación	5
64932	7	Sololá	710	Panajachel	8	Panajachel	10	Octubre	2023-07-10T00:00:00	2024-11-08T21:00:00	8	Radiación solar	0
64933	7	Sololá	710	Panajachel	8	Panajachel	10	Octubre	2023-07-10T00:00:00	2024-11-08T22:00:00	2	Temperatura media	18
64934	7	Sololá	710	Panajachel	8	Panajachel	10	Octubre	2023-07-10T00:00:00	2024-11-08T22:00:00	4	Temperatura máxima	18.4
64935	7	Sololá	710	Panajachel	8	Panajachel	10	Octubre	2023-07-10T00:00:00	2024-11-08T22:00:00	3	Temperatura mínima	17.8
64936	7	Sololá	710	Panajachel	8	Panajachel	10	Octubre	2023-07-10T00:00:00	2024-11-08T22:00:00	5	Humedad	98
64937	7	Sololá	710	Panajachel	8	Panajachel	10	Octubre	2023-07-10T00:00:00	2024-11-08T22:00:00	6	Velocidad del viento	0
64938	7	Sololá	710	Panajachel	8	Panajachel	10	Octubre	2023-07-10T00:00:00	2024-11-08T22:00:00	7	Dirección del viento	0
64939	7	Sololá	710	Panajachel	8	Panajachel	10	Octubre	2023-07-10T00:00:00	2024-11-08T22:00:00	1	Precipitación	4.6
64940	7	Sololá	710	Panajachel	8	Panajachel	10	Octubre	2023-07-10T00:00:00	2024-11-08T22:00:00	8	Radiación solar	0
64941	7	Sololá	710	Panajachel	8	Panajachel	10	Octubre	2023-07-10T00:00:00	2024-11-08T23:00:00	2	Temperatura media	17.8
64942	7	Sololá	710	Panajachel	8	Panajachel	10	Octubre	2023-07-10T00:00:00	2024-11-08T23:00:00	4	Temperatura máxima	18
64943	7	Sololá	710	Panajachel	8	Panajachel	10	Octubre	2023-07-10T00:00:00	2024-11-08T23:00:00	3	Temperatura mínima	17.8
64944	7	Sololá	710	Panajachel	8	Panajachel	10	Octubre	2023-07-10T00:00:00	2024-11-08T23:00:00	5	Humedad	96
64945	7	Sololá	710	Panajachel	8	Panajachel	10	Octubre	2023-07-10T00:00:00	2024-11-08T23:00:00	6	Velocidad del viento	0
64946	7	Sololá	710	Panajachel	8	Panajachel	10	Octubre	2023-07-10T00:00:00	2024-11-08T23:00:00	7	Dirección del viento	0
64947	7	Sololá	710	Panajachel	8	Panajachel	10	Octubre	2023-07-10T00:00:00	2024-11-08T23:00:00	1	Precipitación	1.2
64948	7	Sololá	710	Panajachel	8	Panajachel	10	Octubre	2023-07-10T00:00:00	2024-11-08T23:00:00	8	Radiación solar	0
64949	7	Sololá	710	Panajachel	8	Panajachel	10	Octubre	2023-08-10T00:00:00	2024-11-08T00:00:00	2	Temperatura media	17.8
64950	7	Sololá	710	Panajachel	8	Panajachel	10	Octubre	2023-08-10T00:00:00	2024-11-08T00:00:00	4	Temperatura máxima	18
64951	7	Sololá	710	Panajachel	8	Panajachel	10	Octubre	2023-08-10T00:00:00	2024-11-08T00:00:00	3	Temperatura mínima	17.7
64952	7	Sololá	710	Panajachel	8	Panajachel	10	Octubre	2023-08-10T00:00:00	2024-11-08T00:00:00	5	Humedad	98
64953	7	Sololá	710	Panajachel	8	Panajachel	10	Octubre	2023-08-10T00:00:00	2024-11-08T00:00:00	6	Velocidad del viento	0
64954	7	Sololá	710	Panajachel	8	Panajachel	10	Octubre	2023-08-10T00:00:00	2024-11-08T00:00:00	7	Dirección del viento	0
64955	7	Sololá	710	Panajachel	8	Panajachel	10	Octubre	2023-08-10T00:00:00	2024-11-08T00:00:00	1	Precipitación	2
64956	7	Sololá	710	Panajachel	8	Panajachel	10	Octubre	2023-08-10T00:00:00	2024-11-08T00:00:00	8	Radiación solar	0
64957	7	Sololá	710	Panajachel	8	Panajachel	10	Octubre	2023-08-10T00:00:00	2024-11-08T01:00:00	2	Temperatura media	17.6
64958	7	Sololá	710	Panajachel	8	Panajachel	10	Octubre	2023-08-10T00:00:00	2024-11-08T01:00:00	4	Temperatura máxima	17.8
64959	7	Sololá	710	Panajachel	8	Panajachel	10	Octubre	2023-08-10T00:00:00	2024-11-08T01:00:00	3	Temperatura mínima	17.5
64960	7	Sololá	710	Panajachel	8	Panajachel	10	Octubre	2023-08-10T00:00:00	2024-11-08T01:00:00	5	Humedad	97
64961	7	Sololá	710	Panajachel	8	Panajachel	10	Octubre	2023-08-10T00:00:00	2024-11-08T01:00:00	6	Velocidad del viento	1.6
64962	7	Sololá	710	Panajachel	8	Panajachel	10	Octubre	2023-08-10T00:00:00	2024-11-08T01:00:00	7	Dirección del viento	1.61
64963	7	Sololá	710	Panajachel	8	Panajachel	10	Octubre	2023-08-10T00:00:00	2024-11-08T01:00:00	1	Precipitación	0.2
64964	7	Sololá	710	Panajachel	8	Panajachel	10	Octubre	2023-08-10T00:00:00	2024-11-08T01:00:00	8	Radiación solar	0
64965	7	Sololá	710	Panajachel	8	Panajachel	10	Octubre	2023-08-10T00:00:00	2024-11-08T02:00:00	2	Temperatura media	17.4
64966	7	Sololá	710	Panajachel	8	Panajachel	10	Octubre	2023-08-10T00:00:00	2024-11-08T02:00:00	4	Temperatura máxima	17.7
64967	7	Sololá	710	Panajachel	8	Panajachel	10	Octubre	2023-08-10T00:00:00	2024-11-08T02:00:00	3	Temperatura mínima	17.4
64968	7	Sololá	710	Panajachel	8	Panajachel	10	Octubre	2023-08-10T00:00:00	2024-11-08T02:00:00	5	Humedad	97
64969	7	Sololá	710	Panajachel	8	Panajachel	10	Octubre	2023-08-10T00:00:00	2024-11-08T02:00:00	6	Velocidad del viento	1.6
64970	7	Sololá	710	Panajachel	8	Panajachel	10	Octubre	2023-08-10T00:00:00	2024-11-08T02:00:00	7	Dirección del viento	1.61
64971	7	Sololá	710	Panajachel	8	Panajachel	10	Octubre	2023-08-10T00:00:00	2024-11-08T02:00:00	1	Precipitación	0
64972	7	Sololá	710	Panajachel	8	Panajachel	10	Octubre	2023-08-10T00:00:00	2024-11-08T02:00:00	8	Radiación solar	0
64973	7	Sololá	710	Panajachel	8	Panajachel	10	Octubre	2023-08-10T00:00:00	2024-11-08T03:00:00	2	Temperatura media	17.2
64974	7	Sololá	710	Panajachel	8	Panajachel	10	Octubre	2023-08-10T00:00:00	2024-11-08T03:00:00	4	Temperatura máxima	17.4
64975	7	Sololá	710	Panajachel	8	Panajachel	10	Octubre	2023-08-10T00:00:00	2024-11-08T03:00:00	3	Temperatura mínima	17.2
64976	7	Sololá	710	Panajachel	8	Panajachel	10	Octubre	2023-08-10T00:00:00	2024-11-08T03:00:00	5	Humedad	95
64977	7	Sololá	710	Panajachel	8	Panajachel	10	Octubre	2023-08-10T00:00:00	2024-11-08T03:00:00	6	Velocidad del viento	0
64978	7	Sololá	710	Panajachel	8	Panajachel	10	Octubre	2023-08-10T00:00:00	2024-11-08T03:00:00	7	Dirección del viento	0
64979	7	Sololá	710	Panajachel	8	Panajachel	10	Octubre	2023-08-10T00:00:00	2024-11-08T03:00:00	1	Precipitación	0
64980	7	Sololá	710	Panajachel	8	Panajachel	10	Octubre	2023-08-10T00:00:00	2024-11-08T03:00:00	8	Radiación solar	0
64981	7	Sololá	710	Panajachel	8	Panajachel	10	Octubre	2023-08-10T00:00:00	2024-11-08T04:00:00	2	Temperatura media	16.8
64982	7	Sololá	710	Panajachel	8	Panajachel	10	Octubre	2023-08-10T00:00:00	2024-11-08T04:00:00	4	Temperatura máxima	17.2
64983	7	Sololá	710	Panajachel	8	Panajachel	10	Octubre	2023-08-10T00:00:00	2024-11-08T04:00:00	3	Temperatura mínima	16.7
64984	7	Sololá	710	Panajachel	8	Panajachel	10	Octubre	2023-08-10T00:00:00	2024-11-08T04:00:00	5	Humedad	97
64985	7	Sololá	710	Panajachel	8	Panajachel	10	Octubre	2023-08-10T00:00:00	2024-11-08T04:00:00	6	Velocidad del viento	0
64986	7	Sololá	710	Panajachel	8	Panajachel	10	Octubre	2023-08-10T00:00:00	2024-11-08T04:00:00	7	Dirección del viento	0
64987	7	Sololá	710	Panajachel	8	Panajachel	10	Octubre	2023-08-10T00:00:00	2024-11-08T04:00:00	1	Precipitación	0
64988	7	Sololá	710	Panajachel	8	Panajachel	10	Octubre	2023-08-10T00:00:00	2024-11-08T04:00:00	8	Radiación solar	0
64989	7	Sololá	710	Panajachel	8	Panajachel	10	Octubre	2023-08-10T00:00:00	2024-11-08T05:00:00	2	Temperatura media	17
64990	7	Sololá	710	Panajachel	8	Panajachel	10	Octubre	2023-08-10T00:00:00	2024-11-08T05:00:00	4	Temperatura máxima	17
64991	7	Sololá	710	Panajachel	8	Panajachel	10	Octubre	2023-08-10T00:00:00	2024-11-08T05:00:00	3	Temperatura mínima	16.8
64992	7	Sololá	710	Panajachel	8	Panajachel	10	Octubre	2023-08-10T00:00:00	2024-11-08T05:00:00	5	Humedad	97
64993	7	Sololá	710	Panajachel	8	Panajachel	10	Octubre	2023-08-10T00:00:00	2024-11-08T05:00:00	6	Velocidad del viento	0
64994	7	Sololá	710	Panajachel	8	Panajachel	10	Octubre	2023-08-10T00:00:00	2024-11-08T05:00:00	7	Dirección del viento	0
64995	7	Sololá	710	Panajachel	8	Panajachel	10	Octubre	2023-08-10T00:00:00	2024-11-08T05:00:00	1	Precipitación	0
64996	7	Sololá	710	Panajachel	8	Panajachel	10	Octubre	2023-08-10T00:00:00	2024-11-08T05:00:00	8	Radiación solar	0
64997	7	Sololá	710	Panajachel	8	Panajachel	10	Octubre	2023-08-10T00:00:00	2024-11-08T06:00:00	2	Temperatura media	17.2
64998	7	Sololá	710	Panajachel	8	Panajachel	10	Octubre	2023-08-10T00:00:00	2024-11-08T06:00:00	4	Temperatura máxima	17.2
64999	7	Sololá	710	Panajachel	8	Panajachel	10	Octubre	2023-08-10T00:00:00	2024-11-08T06:00:00	3	Temperatura mínima	16.9
65000	7	Sololá	710	Panajachel	8	Panajachel	10	Octubre	2023-08-10T00:00:00	2024-11-08T06:00:00	5	Humedad	95
65001	7	Sololá	710	Panajachel	8	Panajachel	10	Octubre	2023-08-10T00:00:00	2024-11-08T06:00:00	6	Velocidad del viento	1.6
65002	7	Sololá	710	Panajachel	8	Panajachel	10	Octubre	2023-08-10T00:00:00	2024-11-08T06:00:00	7	Dirección del viento	1.61
65003	7	Sololá	710	Panajachel	8	Panajachel	10	Octubre	2023-08-10T00:00:00	2024-11-08T06:00:00	1	Precipitación	0
65004	7	Sololá	710	Panajachel	8	Panajachel	10	Octubre	2023-08-10T00:00:00	2024-11-08T06:00:00	8	Radiación solar	0
65005	7	Sololá	710	Panajachel	8	Panajachel	10	Octubre	2023-08-10T00:00:00	2024-11-08T07:00:00	2	Temperatura media	17.8
65006	7	Sololá	710	Panajachel	8	Panajachel	10	Octubre	2023-08-10T00:00:00	2024-11-08T07:00:00	4	Temperatura máxima	17.8
65007	7	Sololá	710	Panajachel	8	Panajachel	10	Octubre	2023-08-10T00:00:00	2024-11-08T07:00:00	3	Temperatura mínima	17.1
65008	7	Sololá	710	Panajachel	8	Panajachel	10	Octubre	2023-08-10T00:00:00	2024-11-08T07:00:00	5	Humedad	95
65009	7	Sololá	710	Panajachel	8	Panajachel	10	Octubre	2023-08-10T00:00:00	2024-11-08T07:00:00	6	Velocidad del viento	1.6
65010	7	Sololá	710	Panajachel	8	Panajachel	10	Octubre	2023-08-10T00:00:00	2024-11-08T07:00:00	7	Dirección del viento	1.61
65011	7	Sololá	710	Panajachel	8	Panajachel	10	Octubre	2023-08-10T00:00:00	2024-11-08T07:00:00	1	Precipitación	0
65012	7	Sololá	710	Panajachel	8	Panajachel	10	Octubre	2023-08-10T00:00:00	2024-11-08T07:00:00	8	Radiación solar	27
65013	7	Sololá	710	Panajachel	8	Panajachel	10	Octubre	2023-08-10T00:00:00	2024-11-08T08:00:00	2	Temperatura media	20.3
65014	7	Sololá	710	Panajachel	8	Panajachel	10	Octubre	2023-08-10T00:00:00	2024-11-08T08:00:00	4	Temperatura máxima	20.3
65015	7	Sololá	710	Panajachel	8	Panajachel	10	Octubre	2023-08-10T00:00:00	2024-11-08T08:00:00	3	Temperatura mínima	17.8
65016	7	Sololá	710	Panajachel	8	Panajachel	10	Octubre	2023-08-10T00:00:00	2024-11-08T08:00:00	5	Humedad	85
65017	7	Sololá	710	Panajachel	8	Panajachel	10	Octubre	2023-08-10T00:00:00	2024-11-08T08:00:00	6	Velocidad del viento	0
65018	7	Sololá	710	Panajachel	8	Panajachel	10	Octubre	2023-08-10T00:00:00	2024-11-08T08:00:00	7	Dirección del viento	0
65019	7	Sololá	710	Panajachel	8	Panajachel	10	Octubre	2023-08-10T00:00:00	2024-11-08T08:00:00	1	Precipitación	0
65020	7	Sololá	710	Panajachel	8	Panajachel	10	Octubre	2023-08-10T00:00:00	2024-11-08T08:00:00	8	Radiación solar	190
65021	7	Sololá	710	Panajachel	8	Panajachel	10	Octubre	2023-08-10T00:00:00	2024-11-08T09:00:00	2	Temperatura media	21.6
65022	7	Sololá	710	Panajachel	8	Panajachel	10	Octubre	2023-08-10T00:00:00	2024-11-08T09:00:00	4	Temperatura máxima	22.2
65023	7	Sololá	710	Panajachel	8	Panajachel	10	Octubre	2023-08-10T00:00:00	2024-11-08T09:00:00	3	Temperatura mínima	20.3
65024	7	Sololá	710	Panajachel	8	Panajachel	10	Octubre	2023-08-10T00:00:00	2024-11-08T09:00:00	5	Humedad	87
65025	7	Sololá	710	Panajachel	8	Panajachel	10	Octubre	2023-08-10T00:00:00	2024-11-08T09:00:00	6	Velocidad del viento	1.6
65026	7	Sololá	710	Panajachel	8	Panajachel	10	Octubre	2023-08-10T00:00:00	2024-11-08T09:00:00	7	Dirección del viento	1.61
65027	7	Sololá	710	Panajachel	8	Panajachel	10	Octubre	2023-08-10T00:00:00	2024-11-08T09:00:00	1	Precipitación	0
65028	7	Sololá	710	Panajachel	8	Panajachel	10	Octubre	2023-08-10T00:00:00	2024-11-08T09:00:00	8	Radiación solar	456
65029	7	Sololá	710	Panajachel	8	Panajachel	10	Octubre	2023-08-10T00:00:00	2024-11-08T10:00:00	2	Temperatura media	22.8
65030	7	Sololá	710	Panajachel	8	Panajachel	10	Octubre	2023-08-10T00:00:00	2024-11-08T10:00:00	4	Temperatura máxima	22.8
65031	7	Sololá	710	Panajachel	8	Panajachel	10	Octubre	2023-08-10T00:00:00	2024-11-08T10:00:00	3	Temperatura mínima	21.5
65032	7	Sololá	710	Panajachel	8	Panajachel	10	Octubre	2023-08-10T00:00:00	2024-11-08T10:00:00	5	Humedad	82
65033	7	Sololá	710	Panajachel	8	Panajachel	10	Octubre	2023-08-10T00:00:00	2024-11-08T10:00:00	6	Velocidad del viento	1.6
65034	7	Sololá	710	Panajachel	8	Panajachel	10	Octubre	2023-08-10T00:00:00	2024-11-08T10:00:00	7	Dirección del viento	1.61
65035	7	Sololá	710	Panajachel	8	Panajachel	10	Octubre	2023-08-10T00:00:00	2024-11-08T10:00:00	1	Precipitación	0
65036	7	Sololá	710	Panajachel	8	Panajachel	10	Octubre	2023-08-10T00:00:00	2024-11-08T10:00:00	8	Radiación solar	534
65037	7	Sololá	710	Panajachel	8	Panajachel	10	Octubre	2023-08-10T00:00:00	2024-11-08T11:00:00	2	Temperatura media	21.9
65038	7	Sololá	710	Panajachel	8	Panajachel	10	Octubre	2023-08-10T00:00:00	2024-11-08T11:00:00	4	Temperatura máxima	22.8
65039	7	Sololá	710	Panajachel	8	Panajachel	10	Octubre	2023-08-10T00:00:00	2024-11-08T11:00:00	3	Temperatura mínima	21.9
65040	7	Sololá	710	Panajachel	8	Panajachel	10	Octubre	2023-08-10T00:00:00	2024-11-08T11:00:00	5	Humedad	84
65041	7	Sololá	710	Panajachel	8	Panajachel	10	Octubre	2023-08-10T00:00:00	2024-11-08T11:00:00	6	Velocidad del viento	1.6
65042	7	Sololá	710	Panajachel	8	Panajachel	10	Octubre	2023-08-10T00:00:00	2024-11-08T11:00:00	7	Dirección del viento	1.61
65043	7	Sololá	710	Panajachel	8	Panajachel	10	Octubre	2023-08-10T00:00:00	2024-11-08T11:00:00	1	Precipitación	0
65044	7	Sololá	710	Panajachel	8	Panajachel	10	Octubre	2023-08-10T00:00:00	2024-11-08T11:00:00	8	Radiación solar	487
65045	7	Sololá	710	Panajachel	8	Panajachel	10	Octubre	2023-08-10T00:00:00	2024-11-08T12:00:00	2	Temperatura media	23.4
65046	7	Sololá	710	Panajachel	8	Panajachel	10	Octubre	2023-08-10T00:00:00	2024-11-08T12:00:00	4	Temperatura máxima	23.4
65047	7	Sololá	710	Panajachel	8	Panajachel	10	Octubre	2023-08-10T00:00:00	2024-11-08T12:00:00	3	Temperatura mínima	21.9
65048	7	Sololá	710	Panajachel	8	Panajachel	10	Octubre	2023-08-10T00:00:00	2024-11-08T12:00:00	5	Humedad	80
65049	7	Sololá	710	Panajachel	8	Panajachel	10	Octubre	2023-08-10T00:00:00	2024-11-08T12:00:00	6	Velocidad del viento	1.6
65050	7	Sololá	710	Panajachel	8	Panajachel	10	Octubre	2023-08-10T00:00:00	2024-11-08T12:00:00	7	Dirección del viento	1.61
65051	7	Sololá	710	Panajachel	8	Panajachel	10	Octubre	2023-08-10T00:00:00	2024-11-08T12:00:00	1	Precipitación	0
65052	7	Sololá	710	Panajachel	8	Panajachel	10	Octubre	2023-08-10T00:00:00	2024-11-08T12:00:00	8	Radiación solar	556
65053	7	Sololá	710	Panajachel	8	Panajachel	10	Octubre	2023-08-10T00:00:00	2024-11-08T13:00:00	2	Temperatura media	25.1
65054	7	Sololá	710	Panajachel	8	Panajachel	10	Octubre	2023-08-10T00:00:00	2024-11-08T13:00:00	4	Temperatura máxima	25.3
65055	7	Sololá	710	Panajachel	8	Panajachel	10	Octubre	2023-08-10T00:00:00	2024-11-08T13:00:00	3	Temperatura mínima	23.3
65056	7	Sololá	710	Panajachel	8	Panajachel	10	Octubre	2023-08-10T00:00:00	2024-11-08T13:00:00	5	Humedad	69
65057	7	Sololá	710	Panajachel	8	Panajachel	10	Octubre	2023-08-10T00:00:00	2024-11-08T13:00:00	6	Velocidad del viento	3.2
65058	7	Sololá	710	Panajachel	8	Panajachel	10	Octubre	2023-08-10T00:00:00	2024-11-08T13:00:00	7	Dirección del viento	3.22
65059	7	Sololá	710	Panajachel	8	Panajachel	10	Octubre	2023-08-10T00:00:00	2024-11-08T13:00:00	1	Precipitación	0
65060	7	Sololá	710	Panajachel	8	Panajachel	10	Octubre	2023-08-10T00:00:00	2024-11-08T13:00:00	8	Radiación solar	976
65061	7	Sololá	710	Panajachel	8	Panajachel	10	Octubre	2023-08-10T00:00:00	2024-11-08T14:00:00	2	Temperatura media	25.5
65062	7	Sololá	710	Panajachel	8	Panajachel	10	Octubre	2023-08-10T00:00:00	2024-11-08T14:00:00	4	Temperatura máxima	25.5
65063	7	Sololá	710	Panajachel	8	Panajachel	10	Octubre	2023-08-10T00:00:00	2024-11-08T14:00:00	3	Temperatura mínima	24.5
65064	7	Sololá	710	Panajachel	8	Panajachel	10	Octubre	2023-08-10T00:00:00	2024-11-08T14:00:00	5	Humedad	67
65065	7	Sololá	710	Panajachel	8	Panajachel	10	Octubre	2023-08-10T00:00:00	2024-11-08T14:00:00	6	Velocidad del viento	4.8
65066	7	Sololá	710	Panajachel	8	Panajachel	10	Octubre	2023-08-10T00:00:00	2024-11-08T14:00:00	7	Dirección del viento	4.83
65067	7	Sololá	710	Panajachel	8	Panajachel	10	Octubre	2023-08-10T00:00:00	2024-11-08T14:00:00	1	Precipitación	0
65068	7	Sololá	710	Panajachel	8	Panajachel	10	Octubre	2023-08-10T00:00:00	2024-11-08T14:00:00	8	Radiación solar	907
65069	7	Sololá	710	Panajachel	8	Panajachel	10	Octubre	2023-08-10T00:00:00	2024-11-08T15:00:00	2	Temperatura media	26.3
65070	7	Sololá	710	Panajachel	8	Panajachel	10	Octubre	2023-08-10T00:00:00	2024-11-08T15:00:00	4	Temperatura máxima	26.5
65071	7	Sololá	710	Panajachel	8	Panajachel	10	Octubre	2023-08-10T00:00:00	2024-11-08T15:00:00	3	Temperatura mínima	25.1
65072	7	Sololá	710	Panajachel	8	Panajachel	10	Octubre	2023-08-10T00:00:00	2024-11-08T15:00:00	5	Humedad	72
65073	7	Sololá	710	Panajachel	8	Panajachel	10	Octubre	2023-08-10T00:00:00	2024-11-08T15:00:00	6	Velocidad del viento	1.6
65074	7	Sololá	710	Panajachel	8	Panajachel	10	Octubre	2023-08-10T00:00:00	2024-11-08T15:00:00	7	Dirección del viento	1.61
65075	7	Sololá	710	Panajachel	8	Panajachel	10	Octubre	2023-08-10T00:00:00	2024-11-08T15:00:00	1	Precipitación	0
65076	7	Sololá	710	Panajachel	8	Panajachel	10	Octubre	2023-08-10T00:00:00	2024-11-08T15:00:00	8	Radiación solar	656
65077	7	Sololá	710	Panajachel	8	Panajachel	10	Octubre	2023-08-10T00:00:00	2024-11-08T16:00:00	2	Temperatura media	19.7
65078	7	Sololá	710	Panajachel	8	Panajachel	10	Octubre	2023-08-10T00:00:00	2024-11-08T16:00:00	4	Temperatura máxima	26.5
65079	7	Sololá	710	Panajachel	8	Panajachel	10	Octubre	2023-08-10T00:00:00	2024-11-08T16:00:00	3	Temperatura mínima	19.7
65080	7	Sololá	710	Panajachel	8	Panajachel	10	Octubre	2023-08-10T00:00:00	2024-11-08T16:00:00	5	Humedad	88
65081	7	Sololá	710	Panajachel	8	Panajachel	10	Octubre	2023-08-10T00:00:00	2024-11-08T16:00:00	6	Velocidad del viento	6.4
65082	7	Sololá	710	Panajachel	8	Panajachel	10	Octubre	2023-08-10T00:00:00	2024-11-08T16:00:00	7	Dirección del viento	6.44
65083	7	Sololá	710	Panajachel	8	Panajachel	10	Octubre	2023-08-10T00:00:00	2024-11-08T16:00:00	1	Precipitación	1.4
65084	7	Sololá	710	Panajachel	8	Panajachel	10	Octubre	2023-08-10T00:00:00	2024-11-08T16:00:00	8	Radiación solar	304
65085	7	Sololá	710	Panajachel	8	Panajachel	10	Octubre	2023-08-10T00:00:00	2024-11-08T17:00:00	2	Temperatura media	18.4
65086	7	Sololá	710	Panajachel	8	Panajachel	10	Octubre	2023-08-10T00:00:00	2024-11-08T17:00:00	4	Temperatura máxima	19.7
65087	7	Sololá	710	Panajachel	8	Panajachel	10	Octubre	2023-08-10T00:00:00	2024-11-08T17:00:00	3	Temperatura mínima	18.4
65088	7	Sololá	710	Panajachel	8	Panajachel	10	Octubre	2023-08-10T00:00:00	2024-11-08T17:00:00	5	Humedad	93
65089	7	Sololá	710	Panajachel	8	Panajachel	10	Octubre	2023-08-10T00:00:00	2024-11-08T17:00:00	6	Velocidad del viento	6.4
65090	7	Sololá	710	Panajachel	8	Panajachel	10	Octubre	2023-08-10T00:00:00	2024-11-08T17:00:00	7	Dirección del viento	6.44
65091	7	Sololá	710	Panajachel	8	Panajachel	10	Octubre	2023-08-10T00:00:00	2024-11-08T17:00:00	1	Precipitación	3.4
65092	7	Sololá	710	Panajachel	8	Panajachel	10	Octubre	2023-08-10T00:00:00	2024-11-08T17:00:00	8	Radiación solar	5
65093	7	Sololá	710	Panajachel	8	Panajachel	10	Octubre	2023-08-10T00:00:00	2024-11-08T18:00:00	2	Temperatura media	18.6
65094	7	Sololá	710	Panajachel	8	Panajachel	10	Octubre	2023-08-10T00:00:00	2024-11-08T18:00:00	4	Temperatura máxima	18.7
65095	7	Sololá	710	Panajachel	8	Panajachel	10	Octubre	2023-08-10T00:00:00	2024-11-08T18:00:00	3	Temperatura mínima	18.4
65096	7	Sololá	710	Panajachel	8	Panajachel	10	Octubre	2023-08-10T00:00:00	2024-11-08T18:00:00	5	Humedad	94
65097	7	Sololá	710	Panajachel	8	Panajachel	10	Octubre	2023-08-10T00:00:00	2024-11-08T18:00:00	6	Velocidad del viento	3.2
65098	7	Sololá	710	Panajachel	8	Panajachel	10	Octubre	2023-08-10T00:00:00	2024-11-08T18:00:00	7	Dirección del viento	3.22
65099	7	Sololá	710	Panajachel	8	Panajachel	10	Octubre	2023-08-10T00:00:00	2024-11-08T18:00:00	1	Precipitación	0
65100	7	Sololá	710	Panajachel	8	Panajachel	10	Octubre	2023-08-10T00:00:00	2024-11-08T18:00:00	8	Radiación solar	4
65101	7	Sololá	710	Panajachel	8	Panajachel	10	Octubre	2023-08-10T00:00:00	2024-11-08T19:00:00	2	Temperatura media	18.5
65102	7	Sololá	710	Panajachel	8	Panajachel	10	Octubre	2023-08-10T00:00:00	2024-11-08T19:00:00	4	Temperatura máxima	18.6
65103	7	Sololá	710	Panajachel	8	Panajachel	10	Octubre	2023-08-10T00:00:00	2024-11-08T19:00:00	3	Temperatura mínima	18.4
65104	7	Sololá	710	Panajachel	8	Panajachel	10	Octubre	2023-08-10T00:00:00	2024-11-08T19:00:00	5	Humedad	94
65105	7	Sololá	710	Panajachel	8	Panajachel	10	Octubre	2023-08-10T00:00:00	2024-11-08T19:00:00	6	Velocidad del viento	1.6
65106	7	Sololá	710	Panajachel	8	Panajachel	10	Octubre	2023-08-10T00:00:00	2024-11-08T19:00:00	7	Dirección del viento	1.61
65107	7	Sololá	710	Panajachel	8	Panajachel	10	Octubre	2023-08-10T00:00:00	2024-11-08T19:00:00	1	Precipitación	0
65108	7	Sololá	710	Panajachel	8	Panajachel	10	Octubre	2023-08-10T00:00:00	2024-11-08T19:00:00	8	Radiación solar	0
65109	7	Sololá	710	Panajachel	8	Panajachel	10	Octubre	2023-08-10T00:00:00	2024-11-08T20:00:00	2	Temperatura media	18.4
65110	7	Sololá	710	Panajachel	8	Panajachel	10	Octubre	2023-08-10T00:00:00	2024-11-08T20:00:00	4	Temperatura máxima	18.5
65111	7	Sololá	710	Panajachel	8	Panajachel	10	Octubre	2023-08-10T00:00:00	2024-11-08T20:00:00	3	Temperatura mínima	18.4
65112	7	Sololá	710	Panajachel	8	Panajachel	10	Octubre	2023-08-10T00:00:00	2024-11-08T20:00:00	5	Humedad	94
65113	7	Sololá	710	Panajachel	8	Panajachel	10	Octubre	2023-08-10T00:00:00	2024-11-08T20:00:00	6	Velocidad del viento	1.6
65114	7	Sololá	710	Panajachel	8	Panajachel	10	Octubre	2023-08-10T00:00:00	2024-11-08T20:00:00	7	Dirección del viento	1.61
65115	7	Sololá	710	Panajachel	8	Panajachel	10	Octubre	2023-08-10T00:00:00	2024-11-08T20:00:00	1	Precipitación	0
65116	7	Sololá	710	Panajachel	8	Panajachel	10	Octubre	2023-08-10T00:00:00	2024-11-08T20:00:00	8	Radiación solar	0
65117	7	Sololá	710	Panajachel	8	Panajachel	10	Octubre	2023-08-10T00:00:00	2024-11-08T21:00:00	2	Temperatura media	18.5
65118	7	Sololá	710	Panajachel	8	Panajachel	10	Octubre	2023-08-10T00:00:00	2024-11-08T21:00:00	4	Temperatura máxima	18.6
65119	7	Sololá	710	Panajachel	8	Panajachel	10	Octubre	2023-08-10T00:00:00	2024-11-08T21:00:00	3	Temperatura mínima	18.4
65120	7	Sololá	710	Panajachel	8	Panajachel	10	Octubre	2023-08-10T00:00:00	2024-11-08T21:00:00	5	Humedad	95
65121	7	Sololá	710	Panajachel	8	Panajachel	10	Octubre	2023-08-10T00:00:00	2024-11-08T21:00:00	6	Velocidad del viento	1.6
65122	7	Sololá	710	Panajachel	8	Panajachel	10	Octubre	2023-08-10T00:00:00	2024-11-08T21:00:00	7	Dirección del viento	1.61
65123	7	Sololá	710	Panajachel	8	Panajachel	10	Octubre	2023-08-10T00:00:00	2024-11-08T21:00:00	1	Precipitación	0
65124	7	Sololá	710	Panajachel	8	Panajachel	10	Octubre	2023-08-10T00:00:00	2024-11-08T21:00:00	8	Radiación solar	0
65125	7	Sololá	710	Panajachel	8	Panajachel	10	Octubre	2023-08-10T00:00:00	2024-11-08T22:00:00	2	Temperatura media	18.7
65126	7	Sololá	710	Panajachel	8	Panajachel	10	Octubre	2023-08-10T00:00:00	2024-11-08T22:00:00	4	Temperatura máxima	18.7
65127	7	Sololá	710	Panajachel	8	Panajachel	10	Octubre	2023-08-10T00:00:00	2024-11-08T22:00:00	3	Temperatura mínima	18.4
65128	7	Sololá	710	Panajachel	8	Panajachel	10	Octubre	2023-08-10T00:00:00	2024-11-08T22:00:00	5	Humedad	95
65129	7	Sololá	710	Panajachel	8	Panajachel	10	Octubre	2023-08-10T00:00:00	2024-11-08T22:00:00	6	Velocidad del viento	3.2
65130	7	Sololá	710	Panajachel	8	Panajachel	10	Octubre	2023-08-10T00:00:00	2024-11-08T22:00:00	7	Dirección del viento	3.22
65131	7	Sololá	710	Panajachel	8	Panajachel	10	Octubre	2023-08-10T00:00:00	2024-11-08T22:00:00	1	Precipitación	0
65132	7	Sololá	710	Panajachel	8	Panajachel	10	Octubre	2023-08-10T00:00:00	2024-11-08T22:00:00	8	Radiación solar	0
65133	7	Sololá	710	Panajachel	8	Panajachel	10	Octubre	2023-08-10T00:00:00	2024-11-08T23:00:00	2	Temperatura media	18.4
65134	7	Sololá	710	Panajachel	8	Panajachel	10	Octubre	2023-08-10T00:00:00	2024-11-08T23:00:00	4	Temperatura máxima	18.8
65135	7	Sololá	710	Panajachel	8	Panajachel	10	Octubre	2023-08-10T00:00:00	2024-11-08T23:00:00	3	Temperatura mínima	18.3
65136	7	Sololá	710	Panajachel	8	Panajachel	10	Octubre	2023-08-10T00:00:00	2024-11-08T23:00:00	5	Humedad	96
65137	7	Sololá	710	Panajachel	8	Panajachel	10	Octubre	2023-08-10T00:00:00	2024-11-08T23:00:00	6	Velocidad del viento	1.6
65138	7	Sololá	710	Panajachel	8	Panajachel	10	Octubre	2023-08-10T00:00:00	2024-11-08T23:00:00	7	Dirección del viento	1.61
65139	7	Sololá	710	Panajachel	8	Panajachel	10	Octubre	2023-08-10T00:00:00	2024-11-08T23:00:00	1	Precipitación	0.8
65140	7	Sololá	710	Panajachel	8	Panajachel	10	Octubre	2023-08-10T00:00:00	2024-11-08T23:00:00	8	Radiación solar	0
65141	7	Sololá	710	Panajachel	8	Panajachel	10	Octubre	2023-09-10T00:00:00	2024-11-08T00:00:00	2	Temperatura media	18.4
65142	7	Sololá	710	Panajachel	8	Panajachel	10	Octubre	2023-09-10T00:00:00	2024-11-08T00:00:00	4	Temperatura máxima	18.4
65143	7	Sololá	710	Panajachel	8	Panajachel	10	Octubre	2023-09-10T00:00:00	2024-11-08T00:00:00	3	Temperatura mínima	18.2
65144	7	Sololá	710	Panajachel	8	Panajachel	10	Octubre	2023-09-10T00:00:00	2024-11-08T00:00:00	5	Humedad	97
65145	7	Sololá	710	Panajachel	8	Panajachel	10	Octubre	2023-09-10T00:00:00	2024-11-08T00:00:00	6	Velocidad del viento	1.6
65146	7	Sololá	710	Panajachel	8	Panajachel	10	Octubre	2023-09-10T00:00:00	2024-11-08T00:00:00	7	Dirección del viento	1.61
65147	7	Sololá	710	Panajachel	8	Panajachel	10	Octubre	2023-09-10T00:00:00	2024-11-08T00:00:00	1	Precipitación	4.6
65148	7	Sololá	710	Panajachel	8	Panajachel	10	Octubre	2023-09-10T00:00:00	2024-11-08T00:00:00	8	Radiación solar	0
65149	7	Sololá	710	Panajachel	8	Panajachel	10	Octubre	2023-09-10T00:00:00	2024-11-08T01:00:00	2	Temperatura media	18.2
65150	7	Sololá	710	Panajachel	8	Panajachel	10	Octubre	2023-09-10T00:00:00	2024-11-08T01:00:00	4	Temperatura máxima	18.4
65151	7	Sololá	710	Panajachel	8	Panajachel	10	Octubre	2023-09-10T00:00:00	2024-11-08T01:00:00	3	Temperatura mínima	18.2
65152	7	Sololá	710	Panajachel	8	Panajachel	10	Octubre	2023-09-10T00:00:00	2024-11-08T01:00:00	5	Humedad	98
65153	7	Sololá	710	Panajachel	8	Panajachel	10	Octubre	2023-09-10T00:00:00	2024-11-08T01:00:00	6	Velocidad del viento	0
65154	7	Sololá	710	Panajachel	8	Panajachel	10	Octubre	2023-09-10T00:00:00	2024-11-08T01:00:00	7	Dirección del viento	0
65155	7	Sololá	710	Panajachel	8	Panajachel	10	Octubre	2023-09-10T00:00:00	2024-11-08T01:00:00	1	Precipitación	0.4
65156	7	Sololá	710	Panajachel	8	Panajachel	10	Octubre	2023-09-10T00:00:00	2024-11-08T01:00:00	8	Radiación solar	0
65157	7	Sololá	710	Panajachel	8	Panajachel	10	Octubre	2023-09-10T00:00:00	2024-11-08T02:00:00	2	Temperatura media	18.2
65158	7	Sololá	710	Panajachel	8	Panajachel	10	Octubre	2023-09-10T00:00:00	2024-11-08T02:00:00	4	Temperatura máxima	18.3
65159	7	Sololá	710	Panajachel	8	Panajachel	10	Octubre	2023-09-10T00:00:00	2024-11-08T02:00:00	3	Temperatura mínima	18.2
65160	7	Sololá	710	Panajachel	8	Panajachel	10	Octubre	2023-09-10T00:00:00	2024-11-08T02:00:00	5	Humedad	97
65161	7	Sololá	710	Panajachel	8	Panajachel	10	Octubre	2023-09-10T00:00:00	2024-11-08T02:00:00	6	Velocidad del viento	1.6
65162	7	Sololá	710	Panajachel	8	Panajachel	10	Octubre	2023-09-10T00:00:00	2024-11-08T02:00:00	7	Dirección del viento	1.61
65163	7	Sololá	710	Panajachel	8	Panajachel	10	Octubre	2023-09-10T00:00:00	2024-11-08T02:00:00	1	Precipitación	0.2
65164	7	Sololá	710	Panajachel	8	Panajachel	10	Octubre	2023-09-10T00:00:00	2024-11-08T02:00:00	8	Radiación solar	0
65165	7	Sololá	710	Panajachel	8	Panajachel	10	Octubre	2023-09-10T00:00:00	2024-11-08T03:00:00	2	Temperatura media	18.1
65166	7	Sololá	710	Panajachel	8	Panajachel	10	Octubre	2023-09-10T00:00:00	2024-11-08T03:00:00	4	Temperatura máxima	18.3
65167	7	Sololá	710	Panajachel	8	Panajachel	10	Octubre	2023-09-10T00:00:00	2024-11-08T03:00:00	3	Temperatura mínima	18.1
65168	7	Sololá	710	Panajachel	8	Panajachel	10	Octubre	2023-09-10T00:00:00	2024-11-08T03:00:00	5	Humedad	95
65169	7	Sololá	710	Panajachel	8	Panajachel	10	Octubre	2023-09-10T00:00:00	2024-11-08T03:00:00	6	Velocidad del viento	1.6
65170	7	Sololá	710	Panajachel	8	Panajachel	10	Octubre	2023-09-10T00:00:00	2024-11-08T03:00:00	7	Dirección del viento	1.61
65171	7	Sololá	710	Panajachel	8	Panajachel	10	Octubre	2023-09-10T00:00:00	2024-11-08T03:00:00	1	Precipitación	0
65172	7	Sololá	710	Panajachel	8	Panajachel	10	Octubre	2023-09-10T00:00:00	2024-11-08T03:00:00	8	Radiación solar	0
65173	7	Sololá	710	Panajachel	8	Panajachel	10	Octubre	2023-09-10T00:00:00	2024-11-08T04:00:00	2	Temperatura media	17.7
65174	7	Sololá	710	Panajachel	8	Panajachel	10	Octubre	2023-09-10T00:00:00	2024-11-08T04:00:00	4	Temperatura máxima	18.1
65175	7	Sololá	710	Panajachel	8	Panajachel	10	Octubre	2023-09-10T00:00:00	2024-11-08T04:00:00	3	Temperatura mínima	17.6
65176	7	Sololá	710	Panajachel	8	Panajachel	10	Octubre	2023-09-10T00:00:00	2024-11-08T04:00:00	5	Humedad	95
65177	7	Sololá	710	Panajachel	8	Panajachel	10	Octubre	2023-09-10T00:00:00	2024-11-08T04:00:00	6	Velocidad del viento	1.6
65178	7	Sololá	710	Panajachel	8	Panajachel	10	Octubre	2023-09-10T00:00:00	2024-11-08T04:00:00	7	Dirección del viento	1.61
65179	7	Sololá	710	Panajachel	8	Panajachel	10	Octubre	2023-09-10T00:00:00	2024-11-08T04:00:00	1	Precipitación	0
65180	7	Sololá	710	Panajachel	8	Panajachel	10	Octubre	2023-09-10T00:00:00	2024-11-08T04:00:00	8	Radiación solar	0
65181	7	Sololá	710	Panajachel	8	Panajachel	10	Octubre	2023-09-10T00:00:00	2024-11-08T05:00:00	2	Temperatura media	17.5
65182	7	Sololá	710	Panajachel	8	Panajachel	10	Octubre	2023-09-10T00:00:00	2024-11-08T05:00:00	4	Temperatura máxima	17.7
65183	7	Sololá	710	Panajachel	8	Panajachel	10	Octubre	2023-09-10T00:00:00	2024-11-08T05:00:00	3	Temperatura mínima	17.3
65184	7	Sololá	710	Panajachel	8	Panajachel	10	Octubre	2023-09-10T00:00:00	2024-11-08T05:00:00	5	Humedad	95
65185	7	Sololá	710	Panajachel	8	Panajachel	10	Octubre	2023-09-10T00:00:00	2024-11-08T05:00:00	6	Velocidad del viento	1.6
65186	7	Sololá	710	Panajachel	8	Panajachel	10	Octubre	2023-09-10T00:00:00	2024-11-08T05:00:00	7	Dirección del viento	1.61
65187	7	Sololá	710	Panajachel	8	Panajachel	10	Octubre	2023-09-10T00:00:00	2024-11-08T05:00:00	1	Precipitación	0
65188	7	Sololá	710	Panajachel	8	Panajachel	10	Octubre	2023-09-10T00:00:00	2024-11-08T05:00:00	8	Radiación solar	0
65189	7	Sololá	710	Panajachel	8	Panajachel	10	Octubre	2023-09-10T00:00:00	2024-11-08T06:00:00	2	Temperatura media	17.9
65190	7	Sololá	710	Panajachel	8	Panajachel	10	Octubre	2023-09-10T00:00:00	2024-11-08T06:00:00	4	Temperatura máxima	18
65191	7	Sololá	710	Panajachel	8	Panajachel	10	Octubre	2023-09-10T00:00:00	2024-11-08T06:00:00	3	Temperatura mínima	17.5
65192	7	Sololá	710	Panajachel	8	Panajachel	10	Octubre	2023-09-10T00:00:00	2024-11-08T06:00:00	5	Humedad	92
65193	7	Sololá	710	Panajachel	8	Panajachel	10	Octubre	2023-09-10T00:00:00	2024-11-08T06:00:00	6	Velocidad del viento	3.2
65194	7	Sololá	710	Panajachel	8	Panajachel	10	Octubre	2023-09-10T00:00:00	2024-11-08T06:00:00	7	Dirección del viento	3.22
65195	7	Sololá	710	Panajachel	8	Panajachel	10	Octubre	2023-09-10T00:00:00	2024-11-08T06:00:00	1	Precipitación	0
65196	7	Sololá	710	Panajachel	8	Panajachel	10	Octubre	2023-09-10T00:00:00	2024-11-08T06:00:00	8	Radiación solar	0
65197	7	Sololá	710	Panajachel	8	Panajachel	10	Octubre	2023-09-10T00:00:00	2024-11-08T07:00:00	2	Temperatura media	18.2
65198	7	Sololá	710	Panajachel	8	Panajachel	10	Octubre	2023-09-10T00:00:00	2024-11-08T07:00:00	4	Temperatura máxima	18.2
65199	7	Sololá	710	Panajachel	8	Panajachel	10	Octubre	2023-09-10T00:00:00	2024-11-08T07:00:00	3	Temperatura mínima	17.8
65200	7	Sololá	710	Panajachel	8	Panajachel	10	Octubre	2023-09-10T00:00:00	2024-11-08T07:00:00	5	Humedad	95
65201	7	Sololá	710	Panajachel	8	Panajachel	10	Octubre	2023-09-10T00:00:00	2024-11-08T07:00:00	6	Velocidad del viento	1.6
65202	7	Sololá	710	Panajachel	8	Panajachel	10	Octubre	2023-09-10T00:00:00	2024-11-08T07:00:00	7	Dirección del viento	1.61
65203	7	Sololá	710	Panajachel	8	Panajachel	10	Octubre	2023-09-10T00:00:00	2024-11-08T07:00:00	1	Precipitación	0
65204	7	Sololá	710	Panajachel	8	Panajachel	10	Octubre	2023-09-10T00:00:00	2024-11-08T07:00:00	8	Radiación solar	15
65205	7	Sololá	710	Panajachel	8	Panajachel	10	Octubre	2023-09-10T00:00:00	2024-11-08T08:00:00	2	Temperatura media	19.2
65206	7	Sololá	710	Panajachel	8	Panajachel	10	Octubre	2023-09-10T00:00:00	2024-11-08T08:00:00	4	Temperatura máxima	19.2
65207	7	Sololá	710	Panajachel	8	Panajachel	10	Octubre	2023-09-10T00:00:00	2024-11-08T08:00:00	3	Temperatura mínima	18.2
65208	7	Sololá	710	Panajachel	8	Panajachel	10	Octubre	2023-09-10T00:00:00	2024-11-08T08:00:00	5	Humedad	93
65209	7	Sololá	710	Panajachel	8	Panajachel	10	Octubre	2023-09-10T00:00:00	2024-11-08T08:00:00	6	Velocidad del viento	1.6
65210	7	Sololá	710	Panajachel	8	Panajachel	10	Octubre	2023-09-10T00:00:00	2024-11-08T08:00:00	7	Dirección del viento	1.61
65211	7	Sololá	710	Panajachel	8	Panajachel	10	Octubre	2023-09-10T00:00:00	2024-11-08T08:00:00	1	Precipitación	0
65212	7	Sololá	710	Panajachel	8	Panajachel	10	Octubre	2023-09-10T00:00:00	2024-11-08T08:00:00	8	Radiación solar	66
65213	7	Sololá	710	Panajachel	8	Panajachel	10	Octubre	2023-09-10T00:00:00	2024-11-08T09:00:00	2	Temperatura media	21.8
65214	7	Sololá	710	Panajachel	8	Panajachel	10	Octubre	2023-09-10T00:00:00	2024-11-08T09:00:00	4	Temperatura máxima	21.9
65215	7	Sololá	710	Panajachel	8	Panajachel	10	Octubre	2023-09-10T00:00:00	2024-11-08T09:00:00	3	Temperatura mínima	19.2
65216	7	Sololá	710	Panajachel	8	Panajachel	10	Octubre	2023-09-10T00:00:00	2024-11-08T09:00:00	5	Humedad	81
65217	7	Sololá	710	Panajachel	8	Panajachel	10	Octubre	2023-09-10T00:00:00	2024-11-08T09:00:00	6	Velocidad del viento	0
65218	7	Sololá	710	Panajachel	8	Panajachel	10	Octubre	2023-09-10T00:00:00	2024-11-08T09:00:00	7	Dirección del viento	0
65219	7	Sololá	710	Panajachel	8	Panajachel	10	Octubre	2023-09-10T00:00:00	2024-11-08T09:00:00	1	Precipitación	0
65220	7	Sololá	710	Panajachel	8	Panajachel	10	Octubre	2023-09-10T00:00:00	2024-11-08T09:00:00	8	Radiación solar	352
65221	7	Sololá	710	Panajachel	8	Panajachel	10	Octubre	2023-09-10T00:00:00	2024-11-08T10:00:00	2	Temperatura media	22.3
65222	7	Sololá	710	Panajachel	8	Panajachel	10	Octubre	2023-09-10T00:00:00	2024-11-08T10:00:00	4	Temperatura máxima	22.8
65223	7	Sololá	710	Panajachel	8	Panajachel	10	Octubre	2023-09-10T00:00:00	2024-11-08T10:00:00	3	Temperatura mínima	21.8
65224	7	Sololá	710	Panajachel	8	Panajachel	10	Octubre	2023-09-10T00:00:00	2024-11-08T10:00:00	5	Humedad	82
65225	7	Sololá	710	Panajachel	8	Panajachel	10	Octubre	2023-09-10T00:00:00	2024-11-08T10:00:00	6	Velocidad del viento	1.6
65226	7	Sololá	710	Panajachel	8	Panajachel	10	Octubre	2023-09-10T00:00:00	2024-11-08T10:00:00	7	Dirección del viento	1.61
65227	7	Sololá	710	Panajachel	8	Panajachel	10	Octubre	2023-09-10T00:00:00	2024-11-08T10:00:00	1	Precipitación	0
65228	7	Sololá	710	Panajachel	8	Panajachel	10	Octubre	2023-09-10T00:00:00	2024-11-08T10:00:00	8	Radiación solar	450
65229	7	Sololá	710	Panajachel	8	Panajachel	10	Octubre	2023-09-10T00:00:00	2024-11-08T11:00:00	2	Temperatura media	23
65230	7	Sololá	710	Panajachel	8	Panajachel	10	Octubre	2023-09-10T00:00:00	2024-11-08T11:00:00	4	Temperatura máxima	23.2
65231	7	Sololá	710	Panajachel	8	Panajachel	10	Octubre	2023-09-10T00:00:00	2024-11-08T11:00:00	3	Temperatura mínima	22.2
65232	7	Sololá	710	Panajachel	8	Panajachel	10	Octubre	2023-09-10T00:00:00	2024-11-08T11:00:00	5	Humedad	81
65233	7	Sololá	710	Panajachel	8	Panajachel	10	Octubre	2023-09-10T00:00:00	2024-11-08T11:00:00	6	Velocidad del viento	3.2
65234	7	Sololá	710	Panajachel	8	Panajachel	10	Octubre	2023-09-10T00:00:00	2024-11-08T11:00:00	7	Dirección del viento	3.22
65235	7	Sololá	710	Panajachel	8	Panajachel	10	Octubre	2023-09-10T00:00:00	2024-11-08T11:00:00	1	Precipitación	0
65236	7	Sololá	710	Panajachel	8	Panajachel	10	Octubre	2023-09-10T00:00:00	2024-11-08T11:00:00	8	Radiación solar	638
65237	7	Sololá	710	Panajachel	8	Panajachel	10	Octubre	2023-09-10T00:00:00	2024-11-08T12:00:00	2	Temperatura media	23.9
65238	7	Sololá	710	Panajachel	8	Panajachel	10	Octubre	2023-09-10T00:00:00	2024-11-08T12:00:00	4	Temperatura máxima	24
65239	7	Sololá	710	Panajachel	8	Panajachel	10	Octubre	2023-09-10T00:00:00	2024-11-08T12:00:00	3	Temperatura mínima	23
65240	7	Sololá	710	Panajachel	8	Panajachel	10	Octubre	2023-09-10T00:00:00	2024-11-08T12:00:00	5	Humedad	79
65241	7	Sololá	710	Panajachel	8	Panajachel	10	Octubre	2023-09-10T00:00:00	2024-11-08T12:00:00	6	Velocidad del viento	3.2
65242	7	Sololá	710	Panajachel	8	Panajachel	10	Octubre	2023-09-10T00:00:00	2024-11-08T12:00:00	7	Dirección del viento	3.22
65243	7	Sololá	710	Panajachel	8	Panajachel	10	Octubre	2023-09-10T00:00:00	2024-11-08T12:00:00	1	Precipitación	0
65244	7	Sololá	710	Panajachel	8	Panajachel	10	Octubre	2023-09-10T00:00:00	2024-11-08T12:00:00	8	Radiación solar	851
65245	7	Sololá	710	Panajachel	8	Panajachel	10	Octubre	2023-09-10T00:00:00	2024-11-08T13:00:00	2	Temperatura media	21.9
65246	7	Sololá	710	Panajachel	8	Panajachel	10	Octubre	2023-09-10T00:00:00	2024-11-08T13:00:00	4	Temperatura máxima	24.7
65247	7	Sololá	710	Panajachel	8	Panajachel	10	Octubre	2023-09-10T00:00:00	2024-11-08T13:00:00	3	Temperatura mínima	21.9
65248	7	Sololá	710	Panajachel	8	Panajachel	10	Octubre	2023-09-10T00:00:00	2024-11-08T13:00:00	5	Humedad	91
65249	7	Sololá	710	Panajachel	8	Panajachel	10	Octubre	2023-09-10T00:00:00	2024-11-08T13:00:00	6	Velocidad del viento	6.4
65250	7	Sololá	710	Panajachel	8	Panajachel	10	Octubre	2023-09-10T00:00:00	2024-11-08T13:00:00	7	Dirección del viento	6.44
65251	7	Sololá	710	Panajachel	8	Panajachel	10	Octubre	2023-09-10T00:00:00	2024-11-08T13:00:00	1	Precipitación	0
65252	7	Sololá	710	Panajachel	8	Panajachel	10	Octubre	2023-09-10T00:00:00	2024-11-08T13:00:00	8	Radiación solar	345
65253	7	Sololá	710	Panajachel	8	Panajachel	10	Octubre	2023-09-10T00:00:00	2024-11-08T14:00:00	2	Temperatura media	20.6
65254	7	Sololá	710	Panajachel	8	Panajachel	10	Octubre	2023-09-10T00:00:00	2024-11-08T14:00:00	4	Temperatura máxima	21.9
65255	7	Sololá	710	Panajachel	8	Panajachel	10	Octubre	2023-09-10T00:00:00	2024-11-08T14:00:00	3	Temperatura mínima	20.6
65256	7	Sololá	710	Panajachel	8	Panajachel	10	Octubre	2023-09-10T00:00:00	2024-11-08T14:00:00	5	Humedad	95
65257	7	Sololá	710	Panajachel	8	Panajachel	10	Octubre	2023-09-10T00:00:00	2024-11-08T14:00:00	6	Velocidad del viento	3.2
65258	7	Sololá	710	Panajachel	8	Panajachel	10	Octubre	2023-09-10T00:00:00	2024-11-08T14:00:00	7	Dirección del viento	3.22
65259	7	Sololá	710	Panajachel	8	Panajachel	10	Octubre	2023-09-10T00:00:00	2024-11-08T14:00:00	1	Precipitación	3.6
65260	7	Sololá	710	Panajachel	8	Panajachel	10	Octubre	2023-09-10T00:00:00	2024-11-08T14:00:00	8	Radiación solar	44
65261	7	Sololá	710	Panajachel	8	Panajachel	10	Octubre	2023-09-10T00:00:00	2024-11-08T15:00:00	2	Temperatura media	20.5
65262	7	Sololá	710	Panajachel	8	Panajachel	10	Octubre	2023-09-10T00:00:00	2024-11-08T15:00:00	4	Temperatura máxima	20.6
65263	7	Sololá	710	Panajachel	8	Panajachel	10	Octubre	2023-09-10T00:00:00	2024-11-08T15:00:00	3	Temperatura mínima	20.3
65264	7	Sololá	710	Panajachel	8	Panajachel	10	Octubre	2023-09-10T00:00:00	2024-11-08T15:00:00	5	Humedad	95
65265	7	Sololá	710	Panajachel	8	Panajachel	10	Octubre	2023-09-10T00:00:00	2024-11-08T15:00:00	6	Velocidad del viento	0
65266	7	Sololá	710	Panajachel	8	Panajachel	10	Octubre	2023-09-10T00:00:00	2024-11-08T15:00:00	7	Dirección del viento	0
65267	7	Sololá	710	Panajachel	8	Panajachel	10	Octubre	2023-09-10T00:00:00	2024-11-08T15:00:00	1	Precipitación	0
65268	7	Sololá	710	Panajachel	8	Panajachel	10	Octubre	2023-09-10T00:00:00	2024-11-08T15:00:00	8	Radiación solar	60
65269	7	Sololá	710	Panajachel	8	Panajachel	10	Octubre	2023-09-10T00:00:00	2024-11-08T16:00:00	2	Temperatura media	19.7
65270	7	Sololá	710	Panajachel	8	Panajachel	10	Octubre	2023-09-10T00:00:00	2024-11-08T16:00:00	4	Temperatura máxima	20.6
65271	7	Sololá	710	Panajachel	8	Panajachel	10	Octubre	2023-09-10T00:00:00	2024-11-08T16:00:00	3	Temperatura mínima	19.7
65272	7	Sololá	710	Panajachel	8	Panajachel	10	Octubre	2023-09-10T00:00:00	2024-11-08T16:00:00	5	Humedad	95
65273	7	Sololá	710	Panajachel	8	Panajachel	10	Octubre	2023-09-10T00:00:00	2024-11-08T16:00:00	6	Velocidad del viento	1.6
65274	7	Sololá	710	Panajachel	8	Panajachel	10	Octubre	2023-09-10T00:00:00	2024-11-08T16:00:00	7	Dirección del viento	1.61
65275	7	Sololá	710	Panajachel	8	Panajachel	10	Octubre	2023-09-10T00:00:00	2024-11-08T16:00:00	1	Precipitación	0
65276	7	Sololá	710	Panajachel	8	Panajachel	10	Octubre	2023-09-10T00:00:00	2024-11-08T16:00:00	8	Radiación solar	38
65277	7	Sololá	710	Panajachel	8	Panajachel	10	Octubre	2023-09-10T00:00:00	2024-11-08T17:00:00	2	Temperatura media	19.1
65278	7	Sololá	710	Panajachel	8	Panajachel	10	Octubre	2023-09-10T00:00:00	2024-11-08T17:00:00	4	Temperatura máxima	19.8
65279	7	Sololá	710	Panajachel	8	Panajachel	10	Octubre	2023-09-10T00:00:00	2024-11-08T17:00:00	3	Temperatura mínima	19
65280	7	Sololá	710	Panajachel	8	Panajachel	10	Octubre	2023-09-10T00:00:00	2024-11-08T17:00:00	5	Humedad	96
65281	7	Sololá	710	Panajachel	8	Panajachel	10	Octubre	2023-09-10T00:00:00	2024-11-08T17:00:00	6	Velocidad del viento	0
65282	7	Sololá	710	Panajachel	8	Panajachel	10	Octubre	2023-09-10T00:00:00	2024-11-08T17:00:00	7	Dirección del viento	0
65283	7	Sololá	710	Panajachel	8	Panajachel	10	Octubre	2023-09-10T00:00:00	2024-11-08T17:00:00	1	Precipitación	1.2
65284	7	Sololá	710	Panajachel	8	Panajachel	10	Octubre	2023-09-10T00:00:00	2024-11-08T17:00:00	8	Radiación solar	13
65285	7	Sololá	710	Panajachel	8	Panajachel	10	Octubre	2023-09-10T00:00:00	2024-11-08T18:00:00	2	Temperatura media	19.1
65286	7	Sololá	710	Panajachel	8	Panajachel	10	Octubre	2023-09-10T00:00:00	2024-11-08T18:00:00	4	Temperatura máxima	19.1
65287	7	Sololá	710	Panajachel	8	Panajachel	10	Octubre	2023-09-10T00:00:00	2024-11-08T18:00:00	3	Temperatura mínima	18.9
65288	7	Sololá	710	Panajachel	8	Panajachel	10	Octubre	2023-09-10T00:00:00	2024-11-08T18:00:00	5	Humedad	97
65289	7	Sololá	710	Panajachel	8	Panajachel	10	Octubre	2023-09-10T00:00:00	2024-11-08T18:00:00	6	Velocidad del viento	0
65290	7	Sololá	710	Panajachel	8	Panajachel	10	Octubre	2023-09-10T00:00:00	2024-11-08T18:00:00	7	Dirección del viento	0
65291	7	Sololá	710	Panajachel	8	Panajachel	10	Octubre	2023-09-10T00:00:00	2024-11-08T18:00:00	1	Precipitación	0.2
65292	7	Sololá	710	Panajachel	8	Panajachel	10	Octubre	2023-09-10T00:00:00	2024-11-08T18:00:00	8	Radiación solar	0
65293	7	Sololá	710	Panajachel	8	Panajachel	10	Octubre	2023-09-10T00:00:00	2024-11-08T19:00:00	2	Temperatura media	19
65294	7	Sololá	710	Panajachel	8	Panajachel	10	Octubre	2023-09-10T00:00:00	2024-11-08T19:00:00	4	Temperatura máxima	19.2
65295	7	Sololá	710	Panajachel	8	Panajachel	10	Octubre	2023-09-10T00:00:00	2024-11-08T19:00:00	3	Temperatura mínima	18.9
65296	7	Sololá	710	Panajachel	8	Panajachel	10	Octubre	2023-09-10T00:00:00	2024-11-08T19:00:00	5	Humedad	97
65297	7	Sololá	710	Panajachel	8	Panajachel	10	Octubre	2023-09-10T00:00:00	2024-11-08T19:00:00	6	Velocidad del viento	0
65298	7	Sololá	710	Panajachel	8	Panajachel	10	Octubre	2023-09-10T00:00:00	2024-11-08T19:00:00	7	Dirección del viento	0
65299	7	Sololá	710	Panajachel	8	Panajachel	10	Octubre	2023-09-10T00:00:00	2024-11-08T19:00:00	1	Precipitación	0
65300	7	Sololá	710	Panajachel	8	Panajachel	10	Octubre	2023-09-10T00:00:00	2024-11-08T19:00:00	8	Radiación solar	0
65301	7	Sololá	710	Panajachel	8	Panajachel	10	Octubre	2023-09-10T00:00:00	2024-11-08T20:00:00	2	Temperatura media	18.9
65302	7	Sololá	710	Panajachel	8	Panajachel	10	Octubre	2023-09-10T00:00:00	2024-11-08T20:00:00	4	Temperatura máxima	19
65303	7	Sololá	710	Panajachel	8	Panajachel	10	Octubre	2023-09-10T00:00:00	2024-11-08T20:00:00	3	Temperatura mínima	18.8
65304	7	Sololá	710	Panajachel	8	Panajachel	10	Octubre	2023-09-10T00:00:00	2024-11-08T20:00:00	5	Humedad	97
65305	7	Sololá	710	Panajachel	8	Panajachel	10	Octubre	2023-09-10T00:00:00	2024-11-08T20:00:00	6	Velocidad del viento	0
65306	7	Sololá	710	Panajachel	8	Panajachel	10	Octubre	2023-09-10T00:00:00	2024-11-08T20:00:00	7	Dirección del viento	0
65307	7	Sololá	710	Panajachel	8	Panajachel	10	Octubre	2023-09-10T00:00:00	2024-11-08T20:00:00	1	Precipitación	0
65308	7	Sololá	710	Panajachel	8	Panajachel	10	Octubre	2023-09-10T00:00:00	2024-11-08T20:00:00	8	Radiación solar	0
65309	7	Sololá	710	Panajachel	8	Panajachel	10	Octubre	2023-09-10T00:00:00	2024-11-08T21:00:00	2	Temperatura media	18.7
65310	7	Sololá	710	Panajachel	8	Panajachel	10	Octubre	2023-09-10T00:00:00	2024-11-08T21:00:00	4	Temperatura máxima	18.9
65311	7	Sololá	710	Panajachel	8	Panajachel	10	Octubre	2023-09-10T00:00:00	2024-11-08T21:00:00	3	Temperatura mínima	18.6
65312	7	Sololá	710	Panajachel	8	Panajachel	10	Octubre	2023-09-10T00:00:00	2024-11-08T21:00:00	5	Humedad	96
65313	7	Sololá	710	Panajachel	8	Panajachel	10	Octubre	2023-09-10T00:00:00	2024-11-08T21:00:00	6	Velocidad del viento	1.6
65314	7	Sololá	710	Panajachel	8	Panajachel	10	Octubre	2023-09-10T00:00:00	2024-11-08T21:00:00	7	Dirección del viento	1.61
65315	7	Sololá	710	Panajachel	8	Panajachel	10	Octubre	2023-09-10T00:00:00	2024-11-08T21:00:00	1	Precipitación	0
65316	7	Sololá	710	Panajachel	8	Panajachel	10	Octubre	2023-09-10T00:00:00	2024-11-08T21:00:00	8	Radiación solar	0
65317	7	Sololá	710	Panajachel	8	Panajachel	10	Octubre	2023-09-10T00:00:00	2024-11-08T22:00:00	2	Temperatura media	18.4
65318	7	Sololá	710	Panajachel	8	Panajachel	10	Octubre	2023-09-10T00:00:00	2024-11-08T22:00:00	4	Temperatura máxima	18.6
65319	7	Sololá	710	Panajachel	8	Panajachel	10	Octubre	2023-09-10T00:00:00	2024-11-08T22:00:00	3	Temperatura mínima	18.3
65320	7	Sololá	710	Panajachel	8	Panajachel	10	Octubre	2023-09-10T00:00:00	2024-11-08T22:00:00	5	Humedad	97
65321	7	Sololá	710	Panajachel	8	Panajachel	10	Octubre	2023-09-10T00:00:00	2024-11-08T22:00:00	6	Velocidad del viento	1.6
65322	7	Sololá	710	Panajachel	8	Panajachel	10	Octubre	2023-09-10T00:00:00	2024-11-08T22:00:00	7	Dirección del viento	1.61
65323	7	Sololá	710	Panajachel	8	Panajachel	10	Octubre	2023-09-10T00:00:00	2024-11-08T22:00:00	1	Precipitación	0
65324	7	Sololá	710	Panajachel	8	Panajachel	10	Octubre	2023-09-10T00:00:00	2024-11-08T22:00:00	8	Radiación solar	0
65325	7	Sololá	710	Panajachel	8	Panajachel	10	Octubre	2023-09-10T00:00:00	2024-11-08T23:00:00	2	Temperatura media	18.6
65326	7	Sololá	710	Panajachel	8	Panajachel	10	Octubre	2023-09-10T00:00:00	2024-11-08T23:00:00	4	Temperatura máxima	18.7
65327	7	Sololá	710	Panajachel	8	Panajachel	10	Octubre	2023-09-10T00:00:00	2024-11-08T23:00:00	3	Temperatura mínima	18.3
65328	7	Sololá	710	Panajachel	8	Panajachel	10	Octubre	2023-09-10T00:00:00	2024-11-08T23:00:00	5	Humedad	96
65329	7	Sololá	710	Panajachel	8	Panajachel	10	Octubre	2023-09-10T00:00:00	2024-11-08T23:00:00	6	Velocidad del viento	1.6
65330	7	Sololá	710	Panajachel	8	Panajachel	10	Octubre	2023-09-10T00:00:00	2024-11-08T23:00:00	7	Dirección del viento	1.61
65331	7	Sololá	710	Panajachel	8	Panajachel	10	Octubre	2023-09-10T00:00:00	2024-11-08T23:00:00	1	Precipitación	1
65332	7	Sololá	710	Panajachel	8	Panajachel	10	Octubre	2023-09-10T00:00:00	2024-11-08T23:00:00	8	Radiación solar	0
65333	7	Sololá	710	Panajachel	8	Panajachel	10	Octubre	2023-10-10T00:00:00	2024-11-08T00:00:00	2	Temperatura media	18.3
65334	7	Sololá	710	Panajachel	8	Panajachel	10	Octubre	2023-10-10T00:00:00	2024-11-08T00:00:00	4	Temperatura máxima	18.7
65335	7	Sololá	710	Panajachel	8	Panajachel	10	Octubre	2023-10-10T00:00:00	2024-11-08T00:00:00	3	Temperatura mínima	18.2
65336	7	Sololá	710	Panajachel	8	Panajachel	10	Octubre	2023-10-10T00:00:00	2024-11-08T00:00:00	5	Humedad	97
65337	7	Sololá	710	Panajachel	8	Panajachel	10	Octubre	2023-10-10T00:00:00	2024-11-08T00:00:00	6	Velocidad del viento	0
65338	7	Sololá	710	Panajachel	8	Panajachel	10	Octubre	2023-10-10T00:00:00	2024-11-08T00:00:00	7	Dirección del viento	0
65339	7	Sololá	710	Panajachel	8	Panajachel	10	Octubre	2023-10-10T00:00:00	2024-11-08T00:00:00	1	Precipitación	1
65340	7	Sololá	710	Panajachel	8	Panajachel	10	Octubre	2023-10-10T00:00:00	2024-11-08T00:00:00	8	Radiación solar	0
65341	7	Sololá	710	Panajachel	8	Panajachel	10	Octubre	2023-10-10T00:00:00	2024-11-08T01:00:00	2	Temperatura media	17.9
65342	7	Sololá	710	Panajachel	8	Panajachel	10	Octubre	2023-10-10T00:00:00	2024-11-08T01:00:00	4	Temperatura máxima	18.4
65343	7	Sololá	710	Panajachel	8	Panajachel	10	Octubre	2023-10-10T00:00:00	2024-11-08T01:00:00	3	Temperatura mínima	17.9
65344	7	Sololá	710	Panajachel	8	Panajachel	10	Octubre	2023-10-10T00:00:00	2024-11-08T01:00:00	5	Humedad	98
65345	7	Sololá	710	Panajachel	8	Panajachel	10	Octubre	2023-10-10T00:00:00	2024-11-08T01:00:00	6	Velocidad del viento	0
65346	7	Sololá	710	Panajachel	8	Panajachel	10	Octubre	2023-10-10T00:00:00	2024-11-08T01:00:00	7	Dirección del viento	0
65347	7	Sololá	710	Panajachel	8	Panajachel	10	Octubre	2023-10-10T00:00:00	2024-11-08T01:00:00	1	Precipitación	0
65348	7	Sololá	710	Panajachel	8	Panajachel	10	Octubre	2023-10-10T00:00:00	2024-11-08T01:00:00	8	Radiación solar	0
65349	7	Sololá	710	Panajachel	8	Panajachel	10	Octubre	2023-10-10T00:00:00	2024-11-08T02:00:00	2	Temperatura media	17.7
65350	7	Sololá	710	Panajachel	8	Panajachel	10	Octubre	2023-10-10T00:00:00	2024-11-08T02:00:00	4	Temperatura máxima	18.1
65351	7	Sololá	710	Panajachel	8	Panajachel	10	Octubre	2023-10-10T00:00:00	2024-11-08T02:00:00	3	Temperatura mínima	17.7
65352	7	Sololá	710	Panajachel	8	Panajachel	10	Octubre	2023-10-10T00:00:00	2024-11-08T02:00:00	5	Humedad	97
65353	7	Sololá	710	Panajachel	8	Panajachel	10	Octubre	2023-10-10T00:00:00	2024-11-08T02:00:00	6	Velocidad del viento	1.6
65354	7	Sololá	710	Panajachel	8	Panajachel	10	Octubre	2023-10-10T00:00:00	2024-11-08T02:00:00	7	Dirección del viento	1.61
65355	7	Sololá	710	Panajachel	8	Panajachel	10	Octubre	2023-10-10T00:00:00	2024-11-08T02:00:00	1	Precipitación	0
65356	7	Sololá	710	Panajachel	8	Panajachel	10	Octubre	2023-10-10T00:00:00	2024-11-08T02:00:00	8	Radiación solar	0
65357	7	Sololá	710	Panajachel	8	Panajachel	10	Octubre	2023-10-10T00:00:00	2024-11-08T03:00:00	2	Temperatura media	17.3
65358	7	Sololá	710	Panajachel	8	Panajachel	10	Octubre	2023-10-10T00:00:00	2024-11-08T03:00:00	4	Temperatura máxima	17.7
65359	7	Sololá	710	Panajachel	8	Panajachel	10	Octubre	2023-10-10T00:00:00	2024-11-08T03:00:00	3	Temperatura mínima	17.3
65360	7	Sololá	710	Panajachel	8	Panajachel	10	Octubre	2023-10-10T00:00:00	2024-11-08T03:00:00	5	Humedad	96
65361	7	Sololá	710	Panajachel	8	Panajachel	10	Octubre	2023-10-10T00:00:00	2024-11-08T03:00:00	6	Velocidad del viento	0
65362	7	Sololá	710	Panajachel	8	Panajachel	10	Octubre	2023-10-10T00:00:00	2024-11-08T03:00:00	7	Dirección del viento	0
65363	7	Sololá	710	Panajachel	8	Panajachel	10	Octubre	2023-10-10T00:00:00	2024-11-08T03:00:00	1	Precipitación	0
65364	7	Sololá	710	Panajachel	8	Panajachel	10	Octubre	2023-10-10T00:00:00	2024-11-08T03:00:00	8	Radiación solar	0
65365	7	Sololá	710	Panajachel	8	Panajachel	10	Octubre	2023-10-10T00:00:00	2024-11-08T04:00:00	2	Temperatura media	16.9
65366	7	Sololá	710	Panajachel	8	Panajachel	10	Octubre	2023-10-10T00:00:00	2024-11-08T04:00:00	4	Temperatura máxima	17.3
65367	7	Sololá	710	Panajachel	8	Panajachel	10	Octubre	2023-10-10T00:00:00	2024-11-08T04:00:00	3	Temperatura mínima	16.9
65368	7	Sololá	710	Panajachel	8	Panajachel	10	Octubre	2023-10-10T00:00:00	2024-11-08T04:00:00	5	Humedad	96
65369	7	Sololá	710	Panajachel	8	Panajachel	10	Octubre	2023-10-10T00:00:00	2024-11-08T04:00:00	6	Velocidad del viento	1.6
65370	7	Sololá	710	Panajachel	8	Panajachel	10	Octubre	2023-10-10T00:00:00	2024-11-08T04:00:00	7	Dirección del viento	1.61
65371	7	Sololá	710	Panajachel	8	Panajachel	10	Octubre	2023-10-10T00:00:00	2024-11-08T04:00:00	1	Precipitación	0
65372	7	Sololá	710	Panajachel	8	Panajachel	10	Octubre	2023-10-10T00:00:00	2024-11-08T04:00:00	8	Radiación solar	0
65373	7	Sololá	710	Panajachel	8	Panajachel	10	Octubre	2023-10-10T00:00:00	2024-11-08T05:00:00	2	Temperatura media	17.1
65374	7	Sololá	710	Panajachel	8	Panajachel	10	Octubre	2023-10-10T00:00:00	2024-11-08T05:00:00	4	Temperatura máxima	17.1
65375	7	Sololá	710	Panajachel	8	Panajachel	10	Octubre	2023-10-10T00:00:00	2024-11-08T05:00:00	3	Temperatura mínima	16.8
65376	7	Sololá	710	Panajachel	8	Panajachel	10	Octubre	2023-10-10T00:00:00	2024-11-08T05:00:00	5	Humedad	95
65377	7	Sololá	710	Panajachel	8	Panajachel	10	Octubre	2023-10-10T00:00:00	2024-11-08T05:00:00	6	Velocidad del viento	1.6
65378	7	Sololá	710	Panajachel	8	Panajachel	10	Octubre	2023-10-10T00:00:00	2024-11-08T05:00:00	7	Dirección del viento	1.61
65379	7	Sololá	710	Panajachel	8	Panajachel	10	Octubre	2023-10-10T00:00:00	2024-11-08T05:00:00	1	Precipitación	0
65380	7	Sololá	710	Panajachel	8	Panajachel	10	Octubre	2023-10-10T00:00:00	2024-11-08T05:00:00	8	Radiación solar	0
65381	7	Sololá	710	Panajachel	8	Panajachel	10	Octubre	2023-10-10T00:00:00	2024-11-08T06:00:00	2	Temperatura media	17.3
65382	7	Sololá	710	Panajachel	8	Panajachel	10	Octubre	2023-10-10T00:00:00	2024-11-08T06:00:00	4	Temperatura máxima	17.3
65383	7	Sololá	710	Panajachel	8	Panajachel	10	Octubre	2023-10-10T00:00:00	2024-11-08T06:00:00	3	Temperatura mínima	17.1
65384	7	Sololá	710	Panajachel	8	Panajachel	10	Octubre	2023-10-10T00:00:00	2024-11-08T06:00:00	5	Humedad	92
65385	7	Sololá	710	Panajachel	8	Panajachel	10	Octubre	2023-10-10T00:00:00	2024-11-08T06:00:00	6	Velocidad del viento	3.2
65386	7	Sololá	710	Panajachel	8	Panajachel	10	Octubre	2023-10-10T00:00:00	2024-11-08T06:00:00	7	Dirección del viento	3.22
65387	7	Sololá	710	Panajachel	8	Panajachel	10	Octubre	2023-10-10T00:00:00	2024-11-08T06:00:00	1	Precipitación	0
65388	7	Sololá	710	Panajachel	8	Panajachel	10	Octubre	2023-10-10T00:00:00	2024-11-08T06:00:00	8	Radiación solar	0
65389	7	Sololá	710	Panajachel	8	Panajachel	10	Octubre	2023-10-10T00:00:00	2024-11-08T07:00:00	2	Temperatura media	17.8
65390	7	Sololá	710	Panajachel	8	Panajachel	10	Octubre	2023-10-10T00:00:00	2024-11-08T07:00:00	4	Temperatura máxima	17.8
65391	7	Sololá	710	Panajachel	8	Panajachel	10	Octubre	2023-10-10T00:00:00	2024-11-08T07:00:00	3	Temperatura mínima	17.2
65392	7	Sololá	710	Panajachel	8	Panajachel	10	Octubre	2023-10-10T00:00:00	2024-11-08T07:00:00	5	Humedad	91
65393	7	Sololá	710	Panajachel	8	Panajachel	10	Octubre	2023-10-10T00:00:00	2024-11-08T07:00:00	6	Velocidad del viento	3.2
65394	7	Sololá	710	Panajachel	8	Panajachel	10	Octubre	2023-10-10T00:00:00	2024-11-08T07:00:00	7	Dirección del viento	3.22
65395	7	Sololá	710	Panajachel	8	Panajachel	10	Octubre	2023-10-10T00:00:00	2024-11-08T07:00:00	1	Precipitación	0
65396	7	Sololá	710	Panajachel	8	Panajachel	10	Octubre	2023-10-10T00:00:00	2024-11-08T07:00:00	8	Radiación solar	44
65397	7	Sololá	710	Panajachel	8	Panajachel	10	Octubre	2023-10-10T00:00:00	2024-11-08T08:00:00	2	Temperatura media	20.8
65398	7	Sololá	710	Panajachel	8	Panajachel	10	Octubre	2023-10-10T00:00:00	2024-11-08T08:00:00	4	Temperatura máxima	20.8
65399	7	Sololá	710	Panajachel	8	Panajachel	10	Octubre	2023-10-10T00:00:00	2024-11-08T08:00:00	3	Temperatura mínima	17.8
65400	7	Sololá	710	Panajachel	8	Panajachel	10	Octubre	2023-10-10T00:00:00	2024-11-08T08:00:00	5	Humedad	86
65401	7	Sololá	710	Panajachel	8	Panajachel	10	Octubre	2023-10-10T00:00:00	2024-11-08T08:00:00	6	Velocidad del viento	0
65402	7	Sololá	710	Panajachel	8	Panajachel	10	Octubre	2023-10-10T00:00:00	2024-11-08T08:00:00	7	Dirección del viento	0
65403	7	Sololá	710	Panajachel	8	Panajachel	10	Octubre	2023-10-10T00:00:00	2024-11-08T08:00:00	1	Precipitación	0
65404	7	Sololá	710	Panajachel	8	Panajachel	10	Octubre	2023-10-10T00:00:00	2024-11-08T08:00:00	8	Radiación solar	264
65405	7	Sololá	710	Panajachel	8	Panajachel	10	Octubre	2023-10-10T00:00:00	2024-11-08T09:00:00	2	Temperatura media	21.5
65406	7	Sololá	710	Panajachel	8	Panajachel	10	Octubre	2023-10-10T00:00:00	2024-11-08T09:00:00	4	Temperatura máxima	21.6
65407	7	Sololá	710	Panajachel	8	Panajachel	10	Octubre	2023-10-10T00:00:00	2024-11-08T09:00:00	3	Temperatura mínima	20.8
65408	7	Sololá	710	Panajachel	8	Panajachel	10	Octubre	2023-10-10T00:00:00	2024-11-08T09:00:00	5	Humedad	85
65409	7	Sololá	710	Panajachel	8	Panajachel	10	Octubre	2023-10-10T00:00:00	2024-11-08T09:00:00	6	Velocidad del viento	1.6
65410	7	Sololá	710	Panajachel	8	Panajachel	10	Octubre	2023-10-10T00:00:00	2024-11-08T09:00:00	7	Dirección del viento	1.61
65411	7	Sololá	710	Panajachel	8	Panajachel	10	Octubre	2023-10-10T00:00:00	2024-11-08T09:00:00	1	Precipitación	0
65412	7	Sololá	710	Panajachel	8	Panajachel	10	Octubre	2023-10-10T00:00:00	2024-11-08T09:00:00	8	Radiación solar	547
65413	7	Sololá	710	Panajachel	8	Panajachel	10	Octubre	2023-10-10T00:00:00	2024-11-08T10:00:00	2	Temperatura media	22.8
65414	7	Sololá	710	Panajachel	8	Panajachel	10	Octubre	2023-10-10T00:00:00	2024-11-08T10:00:00	4	Temperatura máxima	22.9
65415	7	Sololá	710	Panajachel	8	Panajachel	10	Octubre	2023-10-10T00:00:00	2024-11-08T10:00:00	3	Temperatura mínima	21.4
65416	7	Sololá	710	Panajachel	8	Panajachel	10	Octubre	2023-10-10T00:00:00	2024-11-08T10:00:00	5	Humedad	82
65417	7	Sololá	710	Panajachel	8	Panajachel	10	Octubre	2023-10-10T00:00:00	2024-11-08T10:00:00	6	Velocidad del viento	1.6
65418	7	Sololá	710	Panajachel	8	Panajachel	10	Octubre	2023-10-10T00:00:00	2024-11-08T10:00:00	7	Dirección del viento	1.61
65419	7	Sololá	710	Panajachel	8	Panajachel	10	Octubre	2023-10-10T00:00:00	2024-11-08T10:00:00	1	Precipitación	0
65420	7	Sololá	710	Panajachel	8	Panajachel	10	Octubre	2023-10-10T00:00:00	2024-11-08T10:00:00	8	Radiación solar	692
65421	7	Sololá	710	Panajachel	8	Panajachel	10	Octubre	2023-10-10T00:00:00	2024-11-08T11:00:00	2	Temperatura media	23.3
65422	7	Sololá	710	Panajachel	8	Panajachel	10	Octubre	2023-10-10T00:00:00	2024-11-08T11:00:00	4	Temperatura máxima	23.5
65423	7	Sololá	710	Panajachel	8	Panajachel	10	Octubre	2023-10-10T00:00:00	2024-11-08T11:00:00	3	Temperatura mínima	22.5
65424	7	Sololá	710	Panajachel	8	Panajachel	10	Octubre	2023-10-10T00:00:00	2024-11-08T11:00:00	5	Humedad	82
65425	7	Sololá	710	Panajachel	8	Panajachel	10	Octubre	2023-10-10T00:00:00	2024-11-08T11:00:00	6	Velocidad del viento	3.2
65426	7	Sololá	710	Panajachel	8	Panajachel	10	Octubre	2023-10-10T00:00:00	2024-11-08T11:00:00	7	Dirección del viento	3.22
65427	7	Sololá	710	Panajachel	8	Panajachel	10	Octubre	2023-10-10T00:00:00	2024-11-08T11:00:00	1	Precipitación	0
65428	7	Sololá	710	Panajachel	8	Panajachel	10	Octubre	2023-10-10T00:00:00	2024-11-08T11:00:00	8	Radiación solar	770
65429	7	Sololá	710	Panajachel	8	Panajachel	10	Octubre	2023-10-10T00:00:00	2024-11-08T12:00:00	2	Temperatura media	24.2
65430	7	Sololá	710	Panajachel	8	Panajachel	10	Octubre	2023-10-10T00:00:00	2024-11-08T12:00:00	4	Temperatura máxima	24.8
65431	7	Sololá	710	Panajachel	8	Panajachel	10	Octubre	2023-10-10T00:00:00	2024-11-08T12:00:00	3	Temperatura mínima	23.3
65432	7	Sololá	710	Panajachel	8	Panajachel	10	Octubre	2023-10-10T00:00:00	2024-11-08T12:00:00	5	Humedad	83
65433	7	Sololá	710	Panajachel	8	Panajachel	10	Octubre	2023-10-10T00:00:00	2024-11-08T12:00:00	6	Velocidad del viento	4.8
65434	7	Sololá	710	Panajachel	8	Panajachel	10	Octubre	2023-10-10T00:00:00	2024-11-08T12:00:00	7	Dirección del viento	4.83
65435	7	Sololá	710	Panajachel	8	Panajachel	10	Octubre	2023-10-10T00:00:00	2024-11-08T12:00:00	1	Precipitación	0
65436	7	Sololá	710	Panajachel	8	Panajachel	10	Octubre	2023-10-10T00:00:00	2024-11-08T12:00:00	8	Radiación solar	923
65437	7	Sololá	710	Panajachel	8	Panajachel	10	Octubre	2023-10-10T00:00:00	2024-11-08T13:00:00	2	Temperatura media	24.5
65438	7	Sololá	710	Panajachel	8	Panajachel	10	Octubre	2023-10-10T00:00:00	2024-11-08T13:00:00	4	Temperatura máxima	24.9
65439	7	Sololá	710	Panajachel	8	Panajachel	10	Octubre	2023-10-10T00:00:00	2024-11-08T13:00:00	3	Temperatura mínima	24
65440	7	Sololá	710	Panajachel	8	Panajachel	10	Octubre	2023-10-10T00:00:00	2024-11-08T13:00:00	5	Humedad	80
65441	7	Sololá	710	Panajachel	8	Panajachel	10	Octubre	2023-10-10T00:00:00	2024-11-08T13:00:00	6	Velocidad del viento	3.2
65442	7	Sololá	710	Panajachel	8	Panajachel	10	Octubre	2023-10-10T00:00:00	2024-11-08T13:00:00	7	Dirección del viento	3.22
65443	7	Sololá	710	Panajachel	8	Panajachel	10	Octubre	2023-10-10T00:00:00	2024-11-08T13:00:00	1	Precipitación	0
65444	7	Sololá	710	Panajachel	8	Panajachel	10	Octubre	2023-10-10T00:00:00	2024-11-08T13:00:00	8	Radiación solar	836
65445	7	Sololá	710	Panajachel	8	Panajachel	10	Octubre	2023-10-10T00:00:00	2024-11-08T14:00:00	2	Temperatura media	23.1
65446	7	Sololá	710	Panajachel	8	Panajachel	10	Octubre	2023-10-10T00:00:00	2024-11-08T14:00:00	4	Temperatura máxima	24.5
65447	7	Sololá	710	Panajachel	8	Panajachel	10	Octubre	2023-10-10T00:00:00	2024-11-08T14:00:00	3	Temperatura mínima	23.1
65448	7	Sololá	710	Panajachel	8	Panajachel	10	Octubre	2023-10-10T00:00:00	2024-11-08T14:00:00	5	Humedad	83
65449	7	Sololá	710	Panajachel	8	Panajachel	10	Octubre	2023-10-10T00:00:00	2024-11-08T14:00:00	6	Velocidad del viento	4.8
65450	7	Sololá	710	Panajachel	8	Panajachel	10	Octubre	2023-10-10T00:00:00	2024-11-08T14:00:00	7	Dirección del viento	4.83
65451	7	Sololá	710	Panajachel	8	Panajachel	10	Octubre	2023-10-10T00:00:00	2024-11-08T14:00:00	1	Precipitación	0
65452	7	Sololá	710	Panajachel	8	Panajachel	10	Octubre	2023-10-10T00:00:00	2024-11-08T14:00:00	8	Radiación solar	578
65453	7	Sololá	710	Panajachel	8	Panajachel	10	Octubre	2023-10-10T00:00:00	2024-11-08T15:00:00	2	Temperatura media	22.7
65454	7	Sololá	710	Panajachel	8	Panajachel	10	Octubre	2023-10-10T00:00:00	2024-11-08T15:00:00	4	Temperatura máxima	23.6
65455	7	Sololá	710	Panajachel	8	Panajachel	10	Octubre	2023-10-10T00:00:00	2024-11-08T15:00:00	3	Temperatura mínima	22.7
65456	7	Sololá	710	Panajachel	8	Panajachel	10	Octubre	2023-10-10T00:00:00	2024-11-08T15:00:00	5	Humedad	86
65457	7	Sololá	710	Panajachel	8	Panajachel	10	Octubre	2023-10-10T00:00:00	2024-11-08T15:00:00	6	Velocidad del viento	3.2
65458	7	Sololá	710	Panajachel	8	Panajachel	10	Octubre	2023-10-10T00:00:00	2024-11-08T15:00:00	7	Dirección del viento	3.22
65459	7	Sololá	710	Panajachel	8	Panajachel	10	Octubre	2023-10-10T00:00:00	2024-11-08T15:00:00	1	Precipitación	0
65460	7	Sololá	710	Panajachel	8	Panajachel	10	Octubre	2023-10-10T00:00:00	2024-11-08T15:00:00	8	Radiación solar	345
65461	7	Sololá	710	Panajachel	8	Panajachel	10	Octubre	2023-10-10T00:00:00	2024-11-08T16:00:00	2	Temperatura media	22.2
65462	7	Sololá	710	Panajachel	8	Panajachel	10	Octubre	2023-10-10T00:00:00	2024-11-08T16:00:00	4	Temperatura máxima	22.7
65463	7	Sololá	710	Panajachel	8	Panajachel	10	Octubre	2023-10-10T00:00:00	2024-11-08T16:00:00	3	Temperatura mínima	22.2
65464	7	Sololá	710	Panajachel	8	Panajachel	10	Octubre	2023-10-10T00:00:00	2024-11-08T16:00:00	5	Humedad	87
65465	7	Sololá	710	Panajachel	8	Panajachel	10	Octubre	2023-10-10T00:00:00	2024-11-08T16:00:00	6	Velocidad del viento	3.2
65466	7	Sololá	710	Panajachel	8	Panajachel	10	Octubre	2023-10-10T00:00:00	2024-11-08T16:00:00	7	Dirección del viento	3.22
65467	7	Sololá	710	Panajachel	8	Panajachel	10	Octubre	2023-10-10T00:00:00	2024-11-08T16:00:00	1	Precipitación	0
65468	7	Sololá	710	Panajachel	8	Panajachel	10	Octubre	2023-10-10T00:00:00	2024-11-08T16:00:00	8	Radiación solar	167
65469	7	Sololá	710	Panajachel	8	Panajachel	10	Octubre	2023-10-10T00:00:00	2024-11-08T17:00:00	2	Temperatura media	20.5
65470	7	Sololá	710	Panajachel	8	Panajachel	10	Octubre	2023-10-10T00:00:00	2024-11-08T17:00:00	4	Temperatura máxima	22.2
65471	7	Sololá	710	Panajachel	8	Panajachel	10	Octubre	2023-10-10T00:00:00	2024-11-08T17:00:00	3	Temperatura mínima	20.5
65472	7	Sololá	710	Panajachel	8	Panajachel	10	Octubre	2023-10-10T00:00:00	2024-11-08T17:00:00	5	Humedad	93
65473	7	Sololá	710	Panajachel	8	Panajachel	10	Octubre	2023-10-10T00:00:00	2024-11-08T17:00:00	6	Velocidad del viento	3.2
65474	7	Sololá	710	Panajachel	8	Panajachel	10	Octubre	2023-10-10T00:00:00	2024-11-08T17:00:00	7	Dirección del viento	3.22
65475	7	Sololá	710	Panajachel	8	Panajachel	10	Octubre	2023-10-10T00:00:00	2024-11-08T17:00:00	1	Precipitación	0
65476	7	Sololá	710	Panajachel	8	Panajachel	10	Octubre	2023-10-10T00:00:00	2024-11-08T17:00:00	8	Radiación solar	61
65477	7	Sololá	710	Panajachel	8	Panajachel	10	Octubre	2023-10-10T00:00:00	2024-11-08T18:00:00	2	Temperatura media	20.3
65478	7	Sololá	710	Panajachel	8	Panajachel	10	Octubre	2023-10-10T00:00:00	2024-11-08T18:00:00	4	Temperatura máxima	20.6
65479	7	Sololá	710	Panajachel	8	Panajachel	10	Octubre	2023-10-10T00:00:00	2024-11-08T18:00:00	3	Temperatura mínima	20.1
65480	7	Sololá	710	Panajachel	8	Panajachel	10	Octubre	2023-10-10T00:00:00	2024-11-08T18:00:00	5	Humedad	92
65481	7	Sololá	710	Panajachel	8	Panajachel	10	Octubre	2023-10-10T00:00:00	2024-11-08T18:00:00	6	Velocidad del viento	3.2
65482	7	Sololá	710	Panajachel	8	Panajachel	10	Octubre	2023-10-10T00:00:00	2024-11-08T18:00:00	7	Dirección del viento	3.22
65483	7	Sololá	710	Panajachel	8	Panajachel	10	Octubre	2023-10-10T00:00:00	2024-11-08T18:00:00	1	Precipitación	0
65484	7	Sololá	710	Panajachel	8	Panajachel	10	Octubre	2023-10-10T00:00:00	2024-11-08T18:00:00	8	Radiación solar	0
65485	7	Sololá	710	Panajachel	8	Panajachel	10	Octubre	2023-10-10T00:00:00	2024-11-08T19:00:00	2	Temperatura media	20.2
65486	7	Sololá	710	Panajachel	8	Panajachel	10	Octubre	2023-10-10T00:00:00	2024-11-08T19:00:00	4	Temperatura máxima	20.3
65487	7	Sololá	710	Panajachel	8	Panajachel	10	Octubre	2023-10-10T00:00:00	2024-11-08T19:00:00	3	Temperatura mínima	20.2
65488	7	Sololá	710	Panajachel	8	Panajachel	10	Octubre	2023-10-10T00:00:00	2024-11-08T19:00:00	5	Humedad	92
65489	7	Sololá	710	Panajachel	8	Panajachel	10	Octubre	2023-10-10T00:00:00	2024-11-08T19:00:00	6	Velocidad del viento	1.6
65490	7	Sololá	710	Panajachel	8	Panajachel	10	Octubre	2023-10-10T00:00:00	2024-11-08T19:00:00	7	Dirección del viento	1.61
65491	7	Sololá	710	Panajachel	8	Panajachel	10	Octubre	2023-10-10T00:00:00	2024-11-08T19:00:00	1	Precipitación	0
65492	7	Sololá	710	Panajachel	8	Panajachel	10	Octubre	2023-10-10T00:00:00	2024-11-08T19:00:00	8	Radiación solar	0
65493	7	Sololá	710	Panajachel	8	Panajachel	10	Octubre	2023-10-10T00:00:00	2024-11-08T20:00:00	2	Temperatura media	20.1
65494	7	Sololá	710	Panajachel	8	Panajachel	10	Octubre	2023-10-10T00:00:00	2024-11-08T20:00:00	4	Temperatura máxima	20.3
65495	7	Sololá	710	Panajachel	8	Panajachel	10	Octubre	2023-10-10T00:00:00	2024-11-08T20:00:00	3	Temperatura mínima	20.1
65496	7	Sololá	710	Panajachel	8	Panajachel	10	Octubre	2023-10-10T00:00:00	2024-11-08T20:00:00	5	Humedad	93
65497	7	Sololá	710	Panajachel	8	Panajachel	10	Octubre	2023-10-10T00:00:00	2024-11-08T20:00:00	6	Velocidad del viento	0
65498	7	Sololá	710	Panajachel	8	Panajachel	10	Octubre	2023-10-10T00:00:00	2024-11-08T20:00:00	7	Dirección del viento	0
65499	7	Sololá	710	Panajachel	8	Panajachel	10	Octubre	2023-10-10T00:00:00	2024-11-08T20:00:00	1	Precipitación	0
65500	7	Sololá	710	Panajachel	8	Panajachel	10	Octubre	2023-10-10T00:00:00	2024-11-08T20:00:00	8	Radiación solar	0
65501	7	Sololá	710	Panajachel	8	Panajachel	10	Octubre	2023-10-10T00:00:00	2024-11-08T21:00:00	2	Temperatura media	20
65502	7	Sololá	710	Panajachel	8	Panajachel	10	Octubre	2023-10-10T00:00:00	2024-11-08T21:00:00	4	Temperatura máxima	20.1
65503	7	Sololá	710	Panajachel	8	Panajachel	10	Octubre	2023-10-10T00:00:00	2024-11-08T21:00:00	3	Temperatura mínima	20
65504	7	Sololá	710	Panajachel	8	Panajachel	10	Octubre	2023-10-10T00:00:00	2024-11-08T21:00:00	5	Humedad	93
65505	7	Sololá	710	Panajachel	8	Panajachel	10	Octubre	2023-10-10T00:00:00	2024-11-08T21:00:00	6	Velocidad del viento	0
65506	7	Sololá	710	Panajachel	8	Panajachel	10	Octubre	2023-10-10T00:00:00	2024-11-08T21:00:00	7	Dirección del viento	0
65507	7	Sololá	710	Panajachel	8	Panajachel	10	Octubre	2023-10-10T00:00:00	2024-11-08T21:00:00	1	Precipitación	0
65508	7	Sololá	710	Panajachel	8	Panajachel	10	Octubre	2023-10-10T00:00:00	2024-11-08T21:00:00	8	Radiación solar	0
65509	7	Sololá	710	Panajachel	8	Panajachel	10	Octubre	2023-10-10T00:00:00	2024-11-08T22:00:00	2	Temperatura media	19.8
65510	7	Sololá	710	Panajachel	8	Panajachel	10	Octubre	2023-10-10T00:00:00	2024-11-08T22:00:00	4	Temperatura máxima	20
65511	7	Sololá	710	Panajachel	8	Panajachel	10	Octubre	2023-10-10T00:00:00	2024-11-08T22:00:00	3	Temperatura mínima	19.7
65512	7	Sololá	710	Panajachel	8	Panajachel	10	Octubre	2023-10-10T00:00:00	2024-11-08T22:00:00	5	Humedad	93
65513	7	Sololá	710	Panajachel	8	Panajachel	10	Octubre	2023-10-10T00:00:00	2024-11-08T22:00:00	6	Velocidad del viento	3.2
65514	7	Sololá	710	Panajachel	8	Panajachel	10	Octubre	2023-10-10T00:00:00	2024-11-08T22:00:00	7	Dirección del viento	3.22
65515	7	Sololá	710	Panajachel	8	Panajachel	10	Octubre	2023-10-10T00:00:00	2024-11-08T22:00:00	1	Precipitación	0
65516	7	Sololá	710	Panajachel	8	Panajachel	10	Octubre	2023-10-10T00:00:00	2024-11-08T22:00:00	8	Radiación solar	0
65517	7	Sololá	710	Panajachel	8	Panajachel	10	Octubre	2023-10-10T00:00:00	2024-11-08T23:00:00	2	Temperatura media	19.9
65518	7	Sololá	710	Panajachel	8	Panajachel	10	Octubre	2023-10-10T00:00:00	2024-11-08T23:00:00	4	Temperatura máxima	20
65519	7	Sololá	710	Panajachel	8	Panajachel	10	Octubre	2023-10-10T00:00:00	2024-11-08T23:00:00	3	Temperatura mínima	19.7
65520	7	Sololá	710	Panajachel	8	Panajachel	10	Octubre	2023-10-10T00:00:00	2024-11-08T23:00:00	5	Humedad	91
65521	7	Sololá	710	Panajachel	8	Panajachel	10	Octubre	2023-10-10T00:00:00	2024-11-08T23:00:00	6	Velocidad del viento	0
65522	7	Sololá	710	Panajachel	8	Panajachel	10	Octubre	2023-10-10T00:00:00	2024-11-08T23:00:00	7	Dirección del viento	0
65523	7	Sololá	710	Panajachel	8	Panajachel	10	Octubre	2023-10-10T00:00:00	2024-11-08T23:00:00	1	Precipitación	0
65524	7	Sololá	710	Panajachel	8	Panajachel	10	Octubre	2023-10-10T00:00:00	2024-11-08T23:00:00	8	Radiación solar	0
65525	7	Sololá	710	Panajachel	8	Panajachel	10	Octubre	2023-11-10T00:00:00	2024-11-08T00:00:00	2	Temperatura media	19.8
65526	7	Sololá	710	Panajachel	8	Panajachel	10	Octubre	2023-11-10T00:00:00	2024-11-08T00:00:00	4	Temperatura máxima	20
65527	7	Sololá	710	Panajachel	8	Panajachel	10	Octubre	2023-11-10T00:00:00	2024-11-08T00:00:00	3	Temperatura mínima	19.8
65528	7	Sololá	710	Panajachel	8	Panajachel	10	Octubre	2023-11-10T00:00:00	2024-11-08T00:00:00	5	Humedad	92
65529	7	Sololá	710	Panajachel	8	Panajachel	10	Octubre	2023-11-10T00:00:00	2024-11-08T00:00:00	6	Velocidad del viento	1.6
65530	7	Sololá	710	Panajachel	8	Panajachel	10	Octubre	2023-11-10T00:00:00	2024-11-08T00:00:00	7	Dirección del viento	1.61
65531	7	Sololá	710	Panajachel	8	Panajachel	10	Octubre	2023-11-10T00:00:00	2024-11-08T00:00:00	1	Precipitación	0
65532	7	Sololá	710	Panajachel	8	Panajachel	10	Octubre	2023-11-10T00:00:00	2024-11-08T00:00:00	8	Radiación solar	0
65533	7	Sololá	710	Panajachel	8	Panajachel	10	Octubre	2023-11-10T00:00:00	2024-11-08T01:00:00	2	Temperatura media	19.6
65534	7	Sololá	710	Panajachel	8	Panajachel	10	Octubre	2023-11-10T00:00:00	2024-11-08T01:00:00	4	Temperatura máxima	19.8
65535	7	Sololá	710	Panajachel	8	Panajachel	10	Octubre	2023-11-10T00:00:00	2024-11-08T01:00:00	3	Temperatura mínima	19.6
65536	7	Sololá	710	Panajachel	8	Panajachel	10	Octubre	2023-11-10T00:00:00	2024-11-08T01:00:00	5	Humedad	94
65537	7	Sololá	710	Panajachel	8	Panajachel	10	Octubre	2023-11-10T00:00:00	2024-11-08T01:00:00	6	Velocidad del viento	1.6
65538	7	Sololá	710	Panajachel	8	Panajachel	10	Octubre	2023-11-10T00:00:00	2024-11-08T01:00:00	7	Dirección del viento	1.61
65539	7	Sololá	710	Panajachel	8	Panajachel	10	Octubre	2023-11-10T00:00:00	2024-11-08T01:00:00	1	Precipitación	0
65540	7	Sololá	710	Panajachel	8	Panajachel	10	Octubre	2023-11-10T00:00:00	2024-11-08T01:00:00	8	Radiación solar	0
65541	7	Sololá	710	Panajachel	8	Panajachel	10	Octubre	2023-11-10T00:00:00	2024-11-08T02:00:00	2	Temperatura media	18.7
65542	7	Sololá	710	Panajachel	8	Panajachel	10	Octubre	2023-11-10T00:00:00	2024-11-08T02:00:00	4	Temperatura máxima	19.6
65543	7	Sololá	710	Panajachel	8	Panajachel	10	Octubre	2023-11-10T00:00:00	2024-11-08T02:00:00	3	Temperatura mínima	18.7
65544	7	Sololá	710	Panajachel	8	Panajachel	10	Octubre	2023-11-10T00:00:00	2024-11-08T02:00:00	5	Humedad	96
65545	7	Sololá	710	Panajachel	8	Panajachel	10	Octubre	2023-11-10T00:00:00	2024-11-08T02:00:00	6	Velocidad del viento	1.6
65546	7	Sololá	710	Panajachel	8	Panajachel	10	Octubre	2023-11-10T00:00:00	2024-11-08T02:00:00	7	Dirección del viento	1.61
65547	7	Sololá	710	Panajachel	8	Panajachel	10	Octubre	2023-11-10T00:00:00	2024-11-08T02:00:00	1	Precipitación	0.6
65548	7	Sololá	710	Panajachel	8	Panajachel	10	Octubre	2023-11-10T00:00:00	2024-11-08T02:00:00	8	Radiación solar	0
65549	7	Sololá	710	Panajachel	8	Panajachel	10	Octubre	2023-11-10T00:00:00	2024-11-08T03:00:00	2	Temperatura media	18.4
65550	7	Sololá	710	Panajachel	8	Panajachel	10	Octubre	2023-11-10T00:00:00	2024-11-08T03:00:00	4	Temperatura máxima	18.8
65551	7	Sololá	710	Panajachel	8	Panajachel	10	Octubre	2023-11-10T00:00:00	2024-11-08T03:00:00	3	Temperatura mínima	18.4
65552	7	Sololá	710	Panajachel	8	Panajachel	10	Octubre	2023-11-10T00:00:00	2024-11-08T03:00:00	5	Humedad	97
65553	7	Sololá	710	Panajachel	8	Panajachel	10	Octubre	2023-11-10T00:00:00	2024-11-08T03:00:00	6	Velocidad del viento	0
65554	7	Sololá	710	Panajachel	8	Panajachel	10	Octubre	2023-11-10T00:00:00	2024-11-08T03:00:00	7	Dirección del viento	0
65555	7	Sololá	710	Panajachel	8	Panajachel	10	Octubre	2023-11-10T00:00:00	2024-11-08T03:00:00	1	Precipitación	0
65556	7	Sololá	710	Panajachel	8	Panajachel	10	Octubre	2023-11-10T00:00:00	2024-11-08T03:00:00	8	Radiación solar	0
65557	7	Sololá	710	Panajachel	8	Panajachel	10	Octubre	2023-11-10T00:00:00	2024-11-08T04:00:00	2	Temperatura media	18.4
65558	7	Sololá	710	Panajachel	8	Panajachel	10	Octubre	2023-11-10T00:00:00	2024-11-08T04:00:00	4	Temperatura máxima	18.4
65559	7	Sololá	710	Panajachel	8	Panajachel	10	Octubre	2023-11-10T00:00:00	2024-11-08T04:00:00	3	Temperatura mínima	18.3
65560	7	Sololá	710	Panajachel	8	Panajachel	10	Octubre	2023-11-10T00:00:00	2024-11-08T04:00:00	5	Humedad	96
65561	7	Sololá	710	Panajachel	8	Panajachel	10	Octubre	2023-11-10T00:00:00	2024-11-08T04:00:00	6	Velocidad del viento	0
65562	7	Sololá	710	Panajachel	8	Panajachel	10	Octubre	2023-11-10T00:00:00	2024-11-08T04:00:00	7	Dirección del viento	0
65563	7	Sololá	710	Panajachel	8	Panajachel	10	Octubre	2023-11-10T00:00:00	2024-11-08T04:00:00	1	Precipitación	0
65564	7	Sololá	710	Panajachel	8	Panajachel	10	Octubre	2023-11-10T00:00:00	2024-11-08T04:00:00	8	Radiación solar	0
65565	7	Sololá	710	Panajachel	8	Panajachel	10	Octubre	2023-11-10T00:00:00	2024-11-08T05:00:00	2	Temperatura media	18.4
65566	7	Sololá	710	Panajachel	8	Panajachel	10	Octubre	2023-11-10T00:00:00	2024-11-08T05:00:00	4	Temperatura máxima	18.8
65567	7	Sololá	710	Panajachel	8	Panajachel	10	Octubre	2023-11-10T00:00:00	2024-11-08T05:00:00	3	Temperatura mínima	18.4
65568	7	Sololá	710	Panajachel	8	Panajachel	10	Octubre	2023-11-10T00:00:00	2024-11-08T05:00:00	5	Humedad	97
65569	7	Sololá	710	Panajachel	8	Panajachel	10	Octubre	2023-11-10T00:00:00	2024-11-08T05:00:00	6	Velocidad del viento	1.6
65570	7	Sololá	710	Panajachel	8	Panajachel	10	Octubre	2023-11-10T00:00:00	2024-11-08T05:00:00	7	Dirección del viento	1.61
65571	7	Sololá	710	Panajachel	8	Panajachel	10	Octubre	2023-11-10T00:00:00	2024-11-08T05:00:00	1	Precipitación	3.6
65572	7	Sololá	710	Panajachel	8	Panajachel	10	Octubre	2023-11-10T00:00:00	2024-11-08T05:00:00	8	Radiación solar	0
65573	7	Sololá	710	Panajachel	8	Panajachel	10	Octubre	2023-11-10T00:00:00	2024-11-08T06:00:00	2	Temperatura media	18.2
65574	7	Sololá	710	Panajachel	8	Panajachel	10	Octubre	2023-11-10T00:00:00	2024-11-08T06:00:00	4	Temperatura máxima	18.4
65575	7	Sololá	710	Panajachel	8	Panajachel	10	Octubre	2023-11-10T00:00:00	2024-11-08T06:00:00	3	Temperatura mínima	18.2
65576	7	Sololá	710	Panajachel	8	Panajachel	10	Octubre	2023-11-10T00:00:00	2024-11-08T06:00:00	5	Humedad	98
65577	7	Sololá	710	Panajachel	8	Panajachel	10	Octubre	2023-11-10T00:00:00	2024-11-08T06:00:00	6	Velocidad del viento	1.6
65578	7	Sololá	710	Panajachel	8	Panajachel	10	Octubre	2023-11-10T00:00:00	2024-11-08T06:00:00	7	Dirección del viento	1.61
65579	7	Sololá	710	Panajachel	8	Panajachel	10	Octubre	2023-11-10T00:00:00	2024-11-08T06:00:00	1	Precipitación	0.8
65580	7	Sololá	710	Panajachel	8	Panajachel	10	Octubre	2023-11-10T00:00:00	2024-11-08T06:00:00	8	Radiación solar	0
65581	7	Sololá	710	Panajachel	8	Panajachel	10	Octubre	2023-11-10T00:00:00	2024-11-08T07:00:00	2	Temperatura media	18.7
65582	7	Sololá	710	Panajachel	8	Panajachel	10	Octubre	2023-11-10T00:00:00	2024-11-08T07:00:00	4	Temperatura máxima	18.7
65583	7	Sololá	710	Panajachel	8	Panajachel	10	Octubre	2023-11-10T00:00:00	2024-11-08T07:00:00	3	Temperatura mínima	18.1
65584	7	Sololá	710	Panajachel	8	Panajachel	10	Octubre	2023-11-10T00:00:00	2024-11-08T07:00:00	5	Humedad	96
65585	7	Sololá	710	Panajachel	8	Panajachel	10	Octubre	2023-11-10T00:00:00	2024-11-08T07:00:00	6	Velocidad del viento	0
65586	7	Sololá	710	Panajachel	8	Panajachel	10	Octubre	2023-11-10T00:00:00	2024-11-08T07:00:00	7	Dirección del viento	0
65587	7	Sololá	710	Panajachel	8	Panajachel	10	Octubre	2023-11-10T00:00:00	2024-11-08T07:00:00	1	Precipitación	0
65588	7	Sololá	710	Panajachel	8	Panajachel	10	Octubre	2023-11-10T00:00:00	2024-11-08T07:00:00	8	Radiación solar	48
65589	7	Sololá	710	Panajachel	8	Panajachel	10	Octubre	2023-11-10T00:00:00	2024-11-08T08:00:00	2	Temperatura media	21.1
65590	7	Sololá	710	Panajachel	8	Panajachel	10	Octubre	2023-11-10T00:00:00	2024-11-08T08:00:00	4	Temperatura máxima	21.1
65591	7	Sololá	710	Panajachel	8	Panajachel	10	Octubre	2023-11-10T00:00:00	2024-11-08T08:00:00	3	Temperatura mínima	18.7
65592	7	Sololá	710	Panajachel	8	Panajachel	10	Octubre	2023-11-10T00:00:00	2024-11-08T08:00:00	5	Humedad	87
65593	7	Sololá	710	Panajachel	8	Panajachel	10	Octubre	2023-11-10T00:00:00	2024-11-08T08:00:00	6	Velocidad del viento	0
65594	7	Sololá	710	Panajachel	8	Panajachel	10	Octubre	2023-11-10T00:00:00	2024-11-08T08:00:00	7	Dirección del viento	0
65595	7	Sololá	710	Panajachel	8	Panajachel	10	Octubre	2023-11-10T00:00:00	2024-11-08T08:00:00	1	Precipitación	0
65596	7	Sololá	710	Panajachel	8	Panajachel	10	Octubre	2023-11-10T00:00:00	2024-11-08T08:00:00	8	Radiación solar	230
65597	7	Sololá	710	Panajachel	8	Panajachel	10	Octubre	2023-11-10T00:00:00	2024-11-08T09:00:00	2	Temperatura media	21.3
65598	7	Sololá	710	Panajachel	8	Panajachel	10	Octubre	2023-11-10T00:00:00	2024-11-08T09:00:00	4	Temperatura máxima	21.6
65599	7	Sololá	710	Panajachel	8	Panajachel	10	Octubre	2023-11-10T00:00:00	2024-11-08T09:00:00	3	Temperatura mínima	21.1
65600	7	Sololá	710	Panajachel	8	Panajachel	10	Octubre	2023-11-10T00:00:00	2024-11-08T09:00:00	5	Humedad	88
65601	7	Sololá	710	Panajachel	8	Panajachel	10	Octubre	2023-11-10T00:00:00	2024-11-08T09:00:00	6	Velocidad del viento	0
65602	7	Sololá	710	Panajachel	8	Panajachel	10	Octubre	2023-11-10T00:00:00	2024-11-08T09:00:00	7	Dirección del viento	0
65603	7	Sololá	710	Panajachel	8	Panajachel	10	Octubre	2023-11-10T00:00:00	2024-11-08T09:00:00	1	Precipitación	0
65604	7	Sololá	710	Panajachel	8	Panajachel	10	Octubre	2023-11-10T00:00:00	2024-11-08T09:00:00	8	Radiación solar	423
65605	7	Sololá	710	Panajachel	8	Panajachel	10	Octubre	2023-11-10T00:00:00	2024-11-08T10:00:00	2	Temperatura media	22.5
65606	7	Sololá	710	Panajachel	8	Panajachel	10	Octubre	2023-11-10T00:00:00	2024-11-08T10:00:00	4	Temperatura máxima	22.5
65607	7	Sololá	710	Panajachel	8	Panajachel	10	Octubre	2023-11-10T00:00:00	2024-11-08T10:00:00	3	Temperatura mínima	21.3
65608	7	Sololá	710	Panajachel	8	Panajachel	10	Octubre	2023-11-10T00:00:00	2024-11-08T10:00:00	5	Humedad	85
65609	7	Sololá	710	Panajachel	8	Panajachel	10	Octubre	2023-11-10T00:00:00	2024-11-08T10:00:00	6	Velocidad del viento	1.6
65610	7	Sololá	710	Panajachel	8	Panajachel	10	Octubre	2023-11-10T00:00:00	2024-11-08T10:00:00	7	Dirección del viento	1.61
65611	7	Sololá	710	Panajachel	8	Panajachel	10	Octubre	2023-11-10T00:00:00	2024-11-08T10:00:00	1	Precipitación	0
65612	7	Sololá	710	Panajachel	8	Panajachel	10	Octubre	2023-11-10T00:00:00	2024-11-08T10:00:00	8	Radiación solar	652
65613	7	Sololá	710	Panajachel	8	Panajachel	10	Octubre	2023-11-10T00:00:00	2024-11-08T11:00:00	2	Temperatura media	22.3
65614	7	Sololá	710	Panajachel	8	Panajachel	10	Octubre	2023-11-10T00:00:00	2024-11-08T11:00:00	4	Temperatura máxima	22.6
65615	7	Sololá	710	Panajachel	8	Panajachel	10	Octubre	2023-11-10T00:00:00	2024-11-08T11:00:00	3	Temperatura mínima	22.3
65616	7	Sololá	710	Panajachel	8	Panajachel	10	Octubre	2023-11-10T00:00:00	2024-11-08T11:00:00	5	Humedad	84
65617	7	Sololá	710	Panajachel	8	Panajachel	10	Octubre	2023-11-10T00:00:00	2024-11-08T11:00:00	6	Velocidad del viento	3.2
65618	7	Sololá	710	Panajachel	8	Panajachel	10	Octubre	2023-11-10T00:00:00	2024-11-08T11:00:00	7	Dirección del viento	3.22
65619	7	Sololá	710	Panajachel	8	Panajachel	10	Octubre	2023-11-10T00:00:00	2024-11-08T11:00:00	1	Precipitación	0
65620	7	Sololá	710	Panajachel	8	Panajachel	10	Octubre	2023-11-10T00:00:00	2024-11-08T11:00:00	8	Radiación solar	408
65621	7	Sololá	710	Panajachel	8	Panajachel	10	Octubre	2023-11-10T00:00:00	2024-11-08T12:00:00	2	Temperatura media	22.7
65622	7	Sololá	710	Panajachel	8	Panajachel	10	Octubre	2023-11-10T00:00:00	2024-11-08T12:00:00	4	Temperatura máxima	22.7
65623	7	Sololá	710	Panajachel	8	Panajachel	10	Octubre	2023-11-10T00:00:00	2024-11-08T12:00:00	3	Temperatura mínima	22.3
65624	7	Sololá	710	Panajachel	8	Panajachel	10	Octubre	2023-11-10T00:00:00	2024-11-08T12:00:00	5	Humedad	83
65625	7	Sololá	710	Panajachel	8	Panajachel	10	Octubre	2023-11-10T00:00:00	2024-11-08T12:00:00	6	Velocidad del viento	3.2
65626	7	Sololá	710	Panajachel	8	Panajachel	10	Octubre	2023-11-10T00:00:00	2024-11-08T12:00:00	7	Dirección del viento	3.22
65627	7	Sololá	710	Panajachel	8	Panajachel	10	Octubre	2023-11-10T00:00:00	2024-11-08T12:00:00	1	Precipitación	0
65628	7	Sololá	710	Panajachel	8	Panajachel	10	Octubre	2023-11-10T00:00:00	2024-11-08T12:00:00	8	Radiación solar	422
65629	7	Sololá	710	Panajachel	8	Panajachel	10	Octubre	2023-11-10T00:00:00	2024-11-08T13:00:00	2	Temperatura media	22.6
65630	7	Sololá	710	Panajachel	8	Panajachel	10	Octubre	2023-11-10T00:00:00	2024-11-08T13:00:00	4	Temperatura máxima	23.2
65631	7	Sololá	710	Panajachel	8	Panajachel	10	Octubre	2023-11-10T00:00:00	2024-11-08T13:00:00	3	Temperatura mínima	22.5
65632	7	Sololá	710	Panajachel	8	Panajachel	10	Octubre	2023-11-10T00:00:00	2024-11-08T13:00:00	5	Humedad	84
65633	7	Sololá	710	Panajachel	8	Panajachel	10	Octubre	2023-11-10T00:00:00	2024-11-08T13:00:00	6	Velocidad del viento	1.6
65634	7	Sololá	710	Panajachel	8	Panajachel	10	Octubre	2023-11-10T00:00:00	2024-11-08T13:00:00	7	Dirección del viento	1.61
65635	7	Sololá	710	Panajachel	8	Panajachel	10	Octubre	2023-11-10T00:00:00	2024-11-08T13:00:00	1	Precipitación	0
65636	7	Sololá	710	Panajachel	8	Panajachel	10	Octubre	2023-11-10T00:00:00	2024-11-08T13:00:00	8	Radiación solar	399
65637	7	Sololá	710	Panajachel	8	Panajachel	10	Octubre	2023-11-10T00:00:00	2024-11-08T14:00:00	2	Temperatura media	21.2
65638	7	Sololá	710	Panajachel	8	Panajachel	10	Octubre	2023-11-10T00:00:00	2024-11-08T14:00:00	4	Temperatura máxima	22.7
65639	7	Sololá	710	Panajachel	8	Panajachel	10	Octubre	2023-11-10T00:00:00	2024-11-08T14:00:00	3	Temperatura mínima	21.2
65640	7	Sololá	710	Panajachel	8	Panajachel	10	Octubre	2023-11-10T00:00:00	2024-11-08T14:00:00	5	Humedad	91
65641	7	Sololá	710	Panajachel	8	Panajachel	10	Octubre	2023-11-10T00:00:00	2024-11-08T14:00:00	6	Velocidad del viento	3.2
65642	7	Sololá	710	Panajachel	8	Panajachel	10	Octubre	2023-11-10T00:00:00	2024-11-08T14:00:00	7	Dirección del viento	3.22
65643	7	Sololá	710	Panajachel	8	Panajachel	10	Octubre	2023-11-10T00:00:00	2024-11-08T14:00:00	1	Precipitación	0
65644	7	Sololá	710	Panajachel	8	Panajachel	10	Octubre	2023-11-10T00:00:00	2024-11-08T14:00:00	8	Radiación solar	179
65645	7	Sololá	710	Panajachel	8	Panajachel	10	Octubre	2023-11-10T00:00:00	2024-11-08T15:00:00	2	Temperatura media	21.6
65646	7	Sololá	710	Panajachel	8	Panajachel	10	Octubre	2023-11-10T00:00:00	2024-11-08T15:00:00	4	Temperatura máxima	21.6
65647	7	Sololá	710	Panajachel	8	Panajachel	10	Octubre	2023-11-10T00:00:00	2024-11-08T15:00:00	3	Temperatura mínima	21
65648	7	Sololá	710	Panajachel	8	Panajachel	10	Octubre	2023-11-10T00:00:00	2024-11-08T15:00:00	5	Humedad	87
65649	7	Sololá	710	Panajachel	8	Panajachel	10	Octubre	2023-11-10T00:00:00	2024-11-08T15:00:00	6	Velocidad del viento	3.2
65650	7	Sololá	710	Panajachel	8	Panajachel	10	Octubre	2023-11-10T00:00:00	2024-11-08T15:00:00	7	Dirección del viento	3.22
65651	7	Sololá	710	Panajachel	8	Panajachel	10	Octubre	2023-11-10T00:00:00	2024-11-08T15:00:00	1	Precipitación	0
65652	7	Sololá	710	Panajachel	8	Panajachel	10	Octubre	2023-11-10T00:00:00	2024-11-08T15:00:00	8	Radiación solar	208
65653	7	Sololá	710	Panajachel	8	Panajachel	10	Octubre	2023-11-10T00:00:00	2024-11-08T16:00:00	2	Temperatura media	21.2
65654	7	Sololá	710	Panajachel	8	Panajachel	10	Octubre	2023-11-10T00:00:00	2024-11-08T16:00:00	4	Temperatura máxima	21.6
65655	7	Sololá	710	Panajachel	8	Panajachel	10	Octubre	2023-11-10T00:00:00	2024-11-08T16:00:00	3	Temperatura mínima	21.2
65656	7	Sololá	710	Panajachel	8	Panajachel	10	Octubre	2023-11-10T00:00:00	2024-11-08T16:00:00	5	Humedad	89
65657	7	Sololá	710	Panajachel	8	Panajachel	10	Octubre	2023-11-10T00:00:00	2024-11-08T16:00:00	6	Velocidad del viento	0
65658	7	Sololá	710	Panajachel	8	Panajachel	10	Octubre	2023-11-10T00:00:00	2024-11-08T16:00:00	7	Dirección del viento	0
65659	7	Sololá	710	Panajachel	8	Panajachel	10	Octubre	2023-11-10T00:00:00	2024-11-08T16:00:00	1	Precipitación	0
65660	7	Sololá	710	Panajachel	8	Panajachel	10	Octubre	2023-11-10T00:00:00	2024-11-08T16:00:00	8	Radiación solar	39
65661	7	Sololá	710	Panajachel	8	Panajachel	10	Octubre	2023-11-10T00:00:00	2024-11-08T17:00:00	2	Temperatura media	21.1
65662	7	Sololá	710	Panajachel	8	Panajachel	10	Octubre	2023-11-10T00:00:00	2024-11-08T17:00:00	4	Temperatura máxima	21.2
65663	7	Sololá	710	Panajachel	8	Panajachel	10	Octubre	2023-11-10T00:00:00	2024-11-08T17:00:00	3	Temperatura mínima	21.1
65664	7	Sololá	710	Panajachel	8	Panajachel	10	Octubre	2023-11-10T00:00:00	2024-11-08T17:00:00	5	Humedad	90
65665	7	Sololá	710	Panajachel	8	Panajachel	10	Octubre	2023-11-10T00:00:00	2024-11-08T17:00:00	6	Velocidad del viento	0
65666	7	Sololá	710	Panajachel	8	Panajachel	10	Octubre	2023-11-10T00:00:00	2024-11-08T17:00:00	7	Dirección del viento	0
65667	7	Sololá	710	Panajachel	8	Panajachel	10	Octubre	2023-11-10T00:00:00	2024-11-08T17:00:00	1	Precipitación	0
65668	7	Sololá	710	Panajachel	8	Panajachel	10	Octubre	2023-11-10T00:00:00	2024-11-08T17:00:00	8	Radiación solar	18
65669	7	Sololá	710	Panajachel	8	Panajachel	10	Octubre	2023-11-10T00:00:00	2024-11-08T18:00:00	2	Temperatura media	20.3
65670	7	Sololá	710	Panajachel	8	Panajachel	10	Octubre	2023-11-10T00:00:00	2024-11-08T18:00:00	4	Temperatura máxima	21.1
65671	7	Sololá	710	Panajachel	8	Panajachel	10	Octubre	2023-11-10T00:00:00	2024-11-08T18:00:00	3	Temperatura mínima	20.3
65672	7	Sololá	710	Panajachel	8	Panajachel	10	Octubre	2023-11-10T00:00:00	2024-11-08T18:00:00	5	Humedad	94
65673	7	Sololá	710	Panajachel	8	Panajachel	10	Octubre	2023-11-10T00:00:00	2024-11-08T18:00:00	6	Velocidad del viento	3.2
65674	7	Sololá	710	Panajachel	8	Panajachel	10	Octubre	2023-11-10T00:00:00	2024-11-08T18:00:00	7	Dirección del viento	3.22
65675	7	Sololá	710	Panajachel	8	Panajachel	10	Octubre	2023-11-10T00:00:00	2024-11-08T18:00:00	1	Precipitación	0
65676	7	Sololá	710	Panajachel	8	Panajachel	10	Octubre	2023-11-10T00:00:00	2024-11-08T18:00:00	8	Radiación solar	0
65677	7	Sololá	710	Panajachel	8	Panajachel	10	Octubre	2023-11-10T00:00:00	2024-11-08T19:00:00	2	Temperatura media	19.8
65678	7	Sololá	710	Panajachel	8	Panajachel	10	Octubre	2023-11-10T00:00:00	2024-11-08T19:00:00	4	Temperatura máxima	20.3
65679	7	Sololá	710	Panajachel	8	Panajachel	10	Octubre	2023-11-10T00:00:00	2024-11-08T19:00:00	3	Temperatura mínima	19.8
65680	7	Sololá	710	Panajachel	8	Panajachel	10	Octubre	2023-11-10T00:00:00	2024-11-08T19:00:00	5	Humedad	93
65681	7	Sololá	710	Panajachel	8	Panajachel	10	Octubre	2023-11-10T00:00:00	2024-11-08T19:00:00	6	Velocidad del viento	3.2
65682	7	Sololá	710	Panajachel	8	Panajachel	10	Octubre	2023-11-10T00:00:00	2024-11-08T19:00:00	7	Dirección del viento	3.22
65683	7	Sololá	710	Panajachel	8	Panajachel	10	Octubre	2023-11-10T00:00:00	2024-11-08T19:00:00	1	Precipitación	0
65684	7	Sololá	710	Panajachel	8	Panajachel	10	Octubre	2023-11-10T00:00:00	2024-11-08T19:00:00	8	Radiación solar	0
65685	7	Sololá	710	Panajachel	8	Panajachel	10	Octubre	2023-11-10T00:00:00	2024-11-08T20:00:00	2	Temperatura media	18.6
65686	7	Sololá	710	Panajachel	8	Panajachel	10	Octubre	2023-11-10T00:00:00	2024-11-08T20:00:00	4	Temperatura máxima	19.9
65687	7	Sololá	710	Panajachel	8	Panajachel	10	Octubre	2023-11-10T00:00:00	2024-11-08T20:00:00	3	Temperatura mínima	18.6
65688	7	Sololá	710	Panajachel	8	Panajachel	10	Octubre	2023-11-10T00:00:00	2024-11-08T20:00:00	5	Humedad	98
65689	7	Sololá	710	Panajachel	8	Panajachel	10	Octubre	2023-11-10T00:00:00	2024-11-08T20:00:00	6	Velocidad del viento	1.6
65690	7	Sololá	710	Panajachel	8	Panajachel	10	Octubre	2023-11-10T00:00:00	2024-11-08T20:00:00	7	Dirección del viento	1.61
65691	7	Sololá	710	Panajachel	8	Panajachel	10	Octubre	2023-11-10T00:00:00	2024-11-08T20:00:00	1	Precipitación	13.6
65692	7	Sololá	710	Panajachel	8	Panajachel	10	Octubre	2023-11-10T00:00:00	2024-11-08T20:00:00	8	Radiación solar	0
65693	7	Sololá	710	Panajachel	8	Panajachel	10	Octubre	2023-11-10T00:00:00	2024-11-08T21:00:00	2	Temperatura media	18.6
65694	7	Sololá	710	Panajachel	8	Panajachel	10	Octubre	2023-11-10T00:00:00	2024-11-08T21:00:00	4	Temperatura máxima	18.7
65695	7	Sololá	710	Panajachel	8	Panajachel	10	Octubre	2023-11-10T00:00:00	2024-11-08T21:00:00	3	Temperatura mínima	18.4
65696	7	Sololá	710	Panajachel	8	Panajachel	10	Octubre	2023-11-10T00:00:00	2024-11-08T21:00:00	5	Humedad	98
65697	7	Sololá	710	Panajachel	8	Panajachel	10	Octubre	2023-11-10T00:00:00	2024-11-08T21:00:00	6	Velocidad del viento	0
65698	7	Sololá	710	Panajachel	8	Panajachel	10	Octubre	2023-11-10T00:00:00	2024-11-08T21:00:00	7	Dirección del viento	0
65699	7	Sololá	710	Panajachel	8	Panajachel	10	Octubre	2023-11-10T00:00:00	2024-11-08T21:00:00	1	Precipitación	1.8
65700	7	Sololá	710	Panajachel	8	Panajachel	10	Octubre	2023-11-10T00:00:00	2024-11-08T21:00:00	8	Radiación solar	0
65701	7	Sololá	710	Panajachel	8	Panajachel	10	Octubre	2023-11-10T00:00:00	2024-11-08T22:00:00	2	Temperatura media	18.6
65702	7	Sololá	710	Panajachel	8	Panajachel	10	Octubre	2023-11-10T00:00:00	2024-11-08T22:00:00	4	Temperatura máxima	18.7
65703	7	Sololá	710	Panajachel	8	Panajachel	10	Octubre	2023-11-10T00:00:00	2024-11-08T22:00:00	3	Temperatura mínima	18.5
65704	7	Sololá	710	Panajachel	8	Panajachel	10	Octubre	2023-11-10T00:00:00	2024-11-08T22:00:00	5	Humedad	98
65705	7	Sololá	710	Panajachel	8	Panajachel	10	Octubre	2023-11-10T00:00:00	2024-11-08T22:00:00	6	Velocidad del viento	0
65706	7	Sololá	710	Panajachel	8	Panajachel	10	Octubre	2023-11-10T00:00:00	2024-11-08T22:00:00	7	Dirección del viento	0
65707	7	Sololá	710	Panajachel	8	Panajachel	10	Octubre	2023-11-10T00:00:00	2024-11-08T22:00:00	1	Precipitación	0.2
65708	7	Sololá	710	Panajachel	8	Panajachel	10	Octubre	2023-11-10T00:00:00	2024-11-08T22:00:00	8	Radiación solar	0
65709	7	Sololá	710	Panajachel	8	Panajachel	10	Octubre	2023-11-10T00:00:00	2024-11-08T23:00:00	2	Temperatura media	18.8
65710	7	Sololá	710	Panajachel	8	Panajachel	10	Octubre	2023-11-10T00:00:00	2024-11-08T23:00:00	4	Temperatura máxima	18.8
65711	7	Sololá	710	Panajachel	8	Panajachel	10	Octubre	2023-11-10T00:00:00	2024-11-08T23:00:00	3	Temperatura mínima	18.6
65712	7	Sololá	710	Panajachel	8	Panajachel	10	Octubre	2023-11-10T00:00:00	2024-11-08T23:00:00	5	Humedad	98
65713	7	Sololá	710	Panajachel	8	Panajachel	10	Octubre	2023-11-10T00:00:00	2024-11-08T23:00:00	6	Velocidad del viento	0
65714	7	Sololá	710	Panajachel	8	Panajachel	10	Octubre	2023-11-10T00:00:00	2024-11-08T23:00:00	7	Dirección del viento	0
65715	7	Sololá	710	Panajachel	8	Panajachel	10	Octubre	2023-11-10T00:00:00	2024-11-08T23:00:00	1	Precipitación	0
65716	7	Sololá	710	Panajachel	8	Panajachel	10	Octubre	2023-11-10T00:00:00	2024-11-08T23:00:00	8	Radiación solar	0
65717	7	Sololá	710	Panajachel	8	Panajachel	10	Octubre	2023-12-10T00:00:00	2024-11-08T00:00:00	2	Temperatura media	19.2
65718	7	Sololá	710	Panajachel	8	Panajachel	10	Octubre	2023-12-10T00:00:00	2024-11-08T00:00:00	4	Temperatura máxima	19.6
65719	7	Sololá	710	Panajachel	8	Panajachel	10	Octubre	2023-12-10T00:00:00	2024-11-08T00:00:00	3	Temperatura mínima	18.8
65720	7	Sololá	710	Panajachel	8	Panajachel	10	Octubre	2023-12-10T00:00:00	2024-11-08T00:00:00	5	Humedad	96
65721	7	Sololá	710	Panajachel	8	Panajachel	10	Octubre	2023-12-10T00:00:00	2024-11-08T00:00:00	6	Velocidad del viento	1.6
65722	7	Sololá	710	Panajachel	8	Panajachel	10	Octubre	2023-12-10T00:00:00	2024-11-08T00:00:00	7	Dirección del viento	1.61
65723	7	Sololá	710	Panajachel	8	Panajachel	10	Octubre	2023-12-10T00:00:00	2024-11-08T00:00:00	1	Precipitación	0
65724	7	Sololá	710	Panajachel	8	Panajachel	10	Octubre	2023-12-10T00:00:00	2024-11-08T00:00:00	8	Radiación solar	0
65725	7	Sololá	710	Panajachel	8	Panajachel	10	Octubre	2023-12-10T00:00:00	2024-11-08T01:00:00	2	Temperatura media	18.8
65726	7	Sololá	710	Panajachel	8	Panajachel	10	Octubre	2023-12-10T00:00:00	2024-11-08T01:00:00	4	Temperatura máxima	19.2
65727	7	Sololá	710	Panajachel	8	Panajachel	10	Octubre	2023-12-10T00:00:00	2024-11-08T01:00:00	3	Temperatura mínima	18.8
65728	7	Sololá	710	Panajachel	8	Panajachel	10	Octubre	2023-12-10T00:00:00	2024-11-08T01:00:00	5	Humedad	98
65729	7	Sololá	710	Panajachel	8	Panajachel	10	Octubre	2023-12-10T00:00:00	2024-11-08T01:00:00	6	Velocidad del viento	0
65730	7	Sololá	710	Panajachel	8	Panajachel	10	Octubre	2023-12-10T00:00:00	2024-11-08T01:00:00	7	Dirección del viento	0
65731	7	Sololá	710	Panajachel	8	Panajachel	10	Octubre	2023-12-10T00:00:00	2024-11-08T01:00:00	1	Precipitación	0
65732	7	Sololá	710	Panajachel	8	Panajachel	10	Octubre	2023-12-10T00:00:00	2024-11-08T01:00:00	8	Radiación solar	0
65733	7	Sololá	710	Panajachel	8	Panajachel	10	Octubre	2023-12-10T00:00:00	2024-11-08T02:00:00	2	Temperatura media	18.6
65734	7	Sololá	710	Panajachel	8	Panajachel	10	Octubre	2023-12-10T00:00:00	2024-11-08T02:00:00	4	Temperatura máxima	18.9
65735	7	Sololá	710	Panajachel	8	Panajachel	10	Octubre	2023-12-10T00:00:00	2024-11-08T02:00:00	3	Temperatura mínima	18.5
65736	7	Sololá	710	Panajachel	8	Panajachel	10	Octubre	2023-12-10T00:00:00	2024-11-08T02:00:00	5	Humedad	98
65737	7	Sololá	710	Panajachel	8	Panajachel	10	Octubre	2023-12-10T00:00:00	2024-11-08T02:00:00	6	Velocidad del viento	0
65738	7	Sololá	710	Panajachel	8	Panajachel	10	Octubre	2023-12-10T00:00:00	2024-11-08T02:00:00	7	Dirección del viento	0
65739	7	Sololá	710	Panajachel	8	Panajachel	10	Octubre	2023-12-10T00:00:00	2024-11-08T02:00:00	1	Precipitación	0
65740	7	Sololá	710	Panajachel	8	Panajachel	10	Octubre	2023-12-10T00:00:00	2024-11-08T02:00:00	8	Radiación solar	0
65741	7	Sololá	710	Panajachel	8	Panajachel	10	Octubre	2023-12-10T00:00:00	2024-11-08T03:00:00	2	Temperatura media	18.6
65742	7	Sololá	710	Panajachel	8	Panajachel	10	Octubre	2023-12-10T00:00:00	2024-11-08T03:00:00	4	Temperatura máxima	18.6
65743	7	Sololá	710	Panajachel	8	Panajachel	10	Octubre	2023-12-10T00:00:00	2024-11-08T03:00:00	3	Temperatura mínima	18.4
65744	7	Sololá	710	Panajachel	8	Panajachel	10	Octubre	2023-12-10T00:00:00	2024-11-08T03:00:00	5	Humedad	98
65745	7	Sololá	710	Panajachel	8	Panajachel	10	Octubre	2023-12-10T00:00:00	2024-11-08T03:00:00	6	Velocidad del viento	0
65746	7	Sololá	710	Panajachel	8	Panajachel	10	Octubre	2023-12-10T00:00:00	2024-11-08T03:00:00	7	Dirección del viento	0
65747	7	Sololá	710	Panajachel	8	Panajachel	10	Octubre	2023-12-10T00:00:00	2024-11-08T03:00:00	1	Precipitación	0.4
65748	7	Sololá	710	Panajachel	8	Panajachel	10	Octubre	2023-12-10T00:00:00	2024-11-08T03:00:00	8	Radiación solar	0
65749	7	Sololá	710	Panajachel	8	Panajachel	10	Octubre	2023-12-10T00:00:00	2024-11-08T04:00:00	2	Temperatura media	18.4
65750	7	Sololá	710	Panajachel	8	Panajachel	10	Octubre	2023-12-10T00:00:00	2024-11-08T04:00:00	4	Temperatura máxima	18.7
65751	7	Sololá	710	Panajachel	8	Panajachel	10	Octubre	2023-12-10T00:00:00	2024-11-08T04:00:00	3	Temperatura mínima	18.4
65752	7	Sololá	710	Panajachel	8	Panajachel	10	Octubre	2023-12-10T00:00:00	2024-11-08T04:00:00	5	Humedad	98
65753	7	Sololá	710	Panajachel	8	Panajachel	10	Octubre	2023-12-10T00:00:00	2024-11-08T04:00:00	6	Velocidad del viento	1.6
65754	7	Sololá	710	Panajachel	8	Panajachel	10	Octubre	2023-12-10T00:00:00	2024-11-08T04:00:00	7	Dirección del viento	1.61
65755	7	Sololá	710	Panajachel	8	Panajachel	10	Octubre	2023-12-10T00:00:00	2024-11-08T04:00:00	1	Precipitación	0
65756	7	Sololá	710	Panajachel	8	Panajachel	10	Octubre	2023-12-10T00:00:00	2024-11-08T04:00:00	8	Radiación solar	0
65757	7	Sololá	710	Panajachel	8	Panajachel	10	Octubre	2023-12-10T00:00:00	2024-11-08T05:00:00	2	Temperatura media	18.2
65758	7	Sololá	710	Panajachel	8	Panajachel	10	Octubre	2023-12-10T00:00:00	2024-11-08T05:00:00	4	Temperatura máxima	18.6
65759	7	Sololá	710	Panajachel	8	Panajachel	10	Octubre	2023-12-10T00:00:00	2024-11-08T05:00:00	3	Temperatura mínima	18.2
65760	7	Sololá	710	Panajachel	8	Panajachel	10	Octubre	2023-12-10T00:00:00	2024-11-08T05:00:00	5	Humedad	98
65761	7	Sololá	710	Panajachel	8	Panajachel	10	Octubre	2023-12-10T00:00:00	2024-11-08T05:00:00	6	Velocidad del viento	0
65762	7	Sololá	710	Panajachel	8	Panajachel	10	Octubre	2023-12-10T00:00:00	2024-11-08T05:00:00	7	Dirección del viento	0
65763	7	Sololá	710	Panajachel	8	Panajachel	10	Octubre	2023-12-10T00:00:00	2024-11-08T05:00:00	1	Precipitación	0
65764	7	Sololá	710	Panajachel	8	Panajachel	10	Octubre	2023-12-10T00:00:00	2024-11-08T05:00:00	8	Radiación solar	0
65765	7	Sololá	710	Panajachel	8	Panajachel	10	Octubre	2023-12-10T00:00:00	2024-11-08T06:00:00	2	Temperatura media	17.7
65766	7	Sololá	710	Panajachel	8	Panajachel	10	Octubre	2023-12-10T00:00:00	2024-11-08T06:00:00	4	Temperatura máxima	18.2
65767	7	Sololá	710	Panajachel	8	Panajachel	10	Octubre	2023-12-10T00:00:00	2024-11-08T06:00:00	3	Temperatura mínima	17.7
65768	7	Sololá	710	Panajachel	8	Panajachel	10	Octubre	2023-12-10T00:00:00	2024-11-08T06:00:00	5	Humedad	97
65769	7	Sololá	710	Panajachel	8	Panajachel	10	Octubre	2023-12-10T00:00:00	2024-11-08T06:00:00	6	Velocidad del viento	0
65770	7	Sololá	710	Panajachel	8	Panajachel	10	Octubre	2023-12-10T00:00:00	2024-11-08T06:00:00	7	Dirección del viento	0
65771	7	Sololá	710	Panajachel	8	Panajachel	10	Octubre	2023-12-10T00:00:00	2024-11-08T06:00:00	1	Precipitación	0
65772	7	Sololá	710	Panajachel	8	Panajachel	10	Octubre	2023-12-10T00:00:00	2024-11-08T06:00:00	8	Radiación solar	0
65773	7	Sololá	710	Panajachel	8	Panajachel	10	Octubre	2023-12-10T00:00:00	2024-11-08T07:00:00	2	Temperatura media	17.6
65774	7	Sololá	710	Panajachel	8	Panajachel	10	Octubre	2023-12-10T00:00:00	2024-11-08T07:00:00	4	Temperatura máxima	17.7
65775	7	Sololá	710	Panajachel	8	Panajachel	10	Octubre	2023-12-10T00:00:00	2024-11-08T07:00:00	3	Temperatura mínima	17.6
65776	7	Sololá	710	Panajachel	8	Panajachel	10	Octubre	2023-12-10T00:00:00	2024-11-08T07:00:00	5	Humedad	96
65777	7	Sololá	710	Panajachel	8	Panajachel	10	Octubre	2023-12-10T00:00:00	2024-11-08T07:00:00	6	Velocidad del viento	1.6
65778	7	Sololá	710	Panajachel	8	Panajachel	10	Octubre	2023-12-10T00:00:00	2024-11-08T07:00:00	7	Dirección del viento	1.61
65779	7	Sololá	710	Panajachel	8	Panajachel	10	Octubre	2023-12-10T00:00:00	2024-11-08T07:00:00	1	Precipitación	0.2
65780	7	Sololá	710	Panajachel	8	Panajachel	10	Octubre	2023-12-10T00:00:00	2024-11-08T07:00:00	8	Radiación solar	31
65781	7	Sololá	710	Panajachel	8	Panajachel	10	Octubre	2023-12-10T00:00:00	2024-11-08T08:00:00	2	Temperatura media	19.2
65782	7	Sololá	710	Panajachel	8	Panajachel	10	Octubre	2023-12-10T00:00:00	2024-11-08T08:00:00	4	Temperatura máxima	19.2
65783	7	Sololá	710	Panajachel	8	Panajachel	10	Octubre	2023-12-10T00:00:00	2024-11-08T08:00:00	3	Temperatura mínima	17.6
65784	7	Sololá	710	Panajachel	8	Panajachel	10	Octubre	2023-12-10T00:00:00	2024-11-08T08:00:00	5	Humedad	92
65785	7	Sololá	710	Panajachel	8	Panajachel	10	Octubre	2023-12-10T00:00:00	2024-11-08T08:00:00	6	Velocidad del viento	1.6
65786	7	Sololá	710	Panajachel	8	Panajachel	10	Octubre	2023-12-10T00:00:00	2024-11-08T08:00:00	7	Dirección del viento	1.61
65787	7	Sololá	710	Panajachel	8	Panajachel	10	Octubre	2023-12-10T00:00:00	2024-11-08T08:00:00	1	Precipitación	0
65788	7	Sololá	710	Panajachel	8	Panajachel	10	Octubre	2023-12-10T00:00:00	2024-11-08T08:00:00	8	Radiación solar	132
65789	7	Sololá	710	Panajachel	8	Panajachel	10	Octubre	2023-12-10T00:00:00	2024-11-08T09:00:00	2	Temperatura media	21
65790	7	Sololá	710	Panajachel	8	Panajachel	10	Octubre	2023-12-10T00:00:00	2024-11-08T09:00:00	4	Temperatura máxima	21.2
65791	7	Sololá	710	Panajachel	8	Panajachel	10	Octubre	2023-12-10T00:00:00	2024-11-08T09:00:00	3	Temperatura mínima	19.2
65792	7	Sololá	710	Panajachel	8	Panajachel	10	Octubre	2023-12-10T00:00:00	2024-11-08T09:00:00	5	Humedad	88
65793	7	Sololá	710	Panajachel	8	Panajachel	10	Octubre	2023-12-10T00:00:00	2024-11-08T09:00:00	6	Velocidad del viento	0
65794	7	Sololá	710	Panajachel	8	Panajachel	10	Octubre	2023-12-10T00:00:00	2024-11-08T09:00:00	7	Dirección del viento	0
65795	7	Sololá	710	Panajachel	8	Panajachel	10	Octubre	2023-12-10T00:00:00	2024-11-08T09:00:00	1	Precipitación	0
65796	7	Sololá	710	Panajachel	8	Panajachel	10	Octubre	2023-12-10T00:00:00	2024-11-08T09:00:00	8	Radiación solar	334
65797	7	Sololá	710	Panajachel	8	Panajachel	10	Octubre	2023-12-10T00:00:00	2024-11-08T10:00:00	2	Temperatura media	21.4
65798	7	Sololá	710	Panajachel	8	Panajachel	10	Octubre	2023-12-10T00:00:00	2024-11-08T10:00:00	4	Temperatura máxima	21.4
65799	7	Sololá	710	Panajachel	8	Panajachel	10	Octubre	2023-12-10T00:00:00	2024-11-08T10:00:00	3	Temperatura mínima	20.9
65800	7	Sololá	710	Panajachel	8	Panajachel	10	Octubre	2023-12-10T00:00:00	2024-11-08T10:00:00	5	Humedad	88
65801	7	Sololá	710	Panajachel	8	Panajachel	10	Octubre	2023-12-10T00:00:00	2024-11-08T10:00:00	6	Velocidad del viento	3.2
65802	7	Sololá	710	Panajachel	8	Panajachel	10	Octubre	2023-12-10T00:00:00	2024-11-08T10:00:00	7	Dirección del viento	3.22
65803	7	Sololá	710	Panajachel	8	Panajachel	10	Octubre	2023-12-10T00:00:00	2024-11-08T10:00:00	1	Precipitación	0
65804	7	Sololá	710	Panajachel	8	Panajachel	10	Octubre	2023-12-10T00:00:00	2024-11-08T10:00:00	8	Radiación solar	414
65805	7	Sololá	710	Panajachel	8	Panajachel	10	Octubre	2023-12-10T00:00:00	2024-11-08T11:00:00	2	Temperatura media	22.7
65806	7	Sololá	710	Panajachel	8	Panajachel	10	Octubre	2023-12-10T00:00:00	2024-11-08T11:00:00	4	Temperatura máxima	23.1
65807	7	Sololá	710	Panajachel	8	Panajachel	10	Octubre	2023-12-10T00:00:00	2024-11-08T11:00:00	3	Temperatura mínima	21.4
65808	7	Sololá	710	Panajachel	8	Panajachel	10	Octubre	2023-12-10T00:00:00	2024-11-08T11:00:00	5	Humedad	84
65809	7	Sololá	710	Panajachel	8	Panajachel	10	Octubre	2023-12-10T00:00:00	2024-11-08T11:00:00	6	Velocidad del viento	1.6
65810	7	Sololá	710	Panajachel	8	Panajachel	10	Octubre	2023-12-10T00:00:00	2024-11-08T11:00:00	7	Dirección del viento	1.61
65811	7	Sololá	710	Panajachel	8	Panajachel	10	Octubre	2023-12-10T00:00:00	2024-11-08T11:00:00	1	Precipitación	0
65812	7	Sololá	710	Panajachel	8	Panajachel	10	Octubre	2023-12-10T00:00:00	2024-11-08T11:00:00	8	Radiación solar	692
65813	7	Sololá	710	Panajachel	8	Panajachel	10	Octubre	2023-12-10T00:00:00	2024-11-08T12:00:00	2	Temperatura media	23
65814	7	Sololá	710	Panajachel	8	Panajachel	10	Octubre	2023-12-10T00:00:00	2024-11-08T12:00:00	4	Temperatura máxima	23.1
65815	7	Sololá	710	Panajachel	8	Panajachel	10	Octubre	2023-12-10T00:00:00	2024-11-08T12:00:00	3	Temperatura mínima	22.2
65816	7	Sololá	710	Panajachel	8	Panajachel	10	Octubre	2023-12-10T00:00:00	2024-11-08T12:00:00	5	Humedad	81
65817	7	Sololá	710	Panajachel	8	Panajachel	10	Octubre	2023-12-10T00:00:00	2024-11-08T12:00:00	6	Velocidad del viento	1.6
65818	7	Sololá	710	Panajachel	8	Panajachel	10	Octubre	2023-12-10T00:00:00	2024-11-08T12:00:00	7	Dirección del viento	1.61
65819	7	Sololá	710	Panajachel	8	Panajachel	10	Octubre	2023-12-10T00:00:00	2024-11-08T12:00:00	1	Precipitación	0
65820	7	Sololá	710	Panajachel	8	Panajachel	10	Octubre	2023-12-10T00:00:00	2024-11-08T12:00:00	8	Radiación solar	555
65821	7	Sololá	710	Panajachel	8	Panajachel	10	Octubre	2023-12-10T00:00:00	2024-11-08T13:00:00	2	Temperatura media	25.1
65822	7	Sololá	710	Panajachel	8	Panajachel	10	Octubre	2023-12-10T00:00:00	2024-11-08T13:00:00	4	Temperatura máxima	25.1
65823	7	Sololá	710	Panajachel	8	Panajachel	10	Octubre	2023-12-10T00:00:00	2024-11-08T13:00:00	3	Temperatura mínima	22.7
65824	7	Sololá	710	Panajachel	8	Panajachel	10	Octubre	2023-12-10T00:00:00	2024-11-08T13:00:00	5	Humedad	79
65825	7	Sololá	710	Panajachel	8	Panajachel	10	Octubre	2023-12-10T00:00:00	2024-11-08T13:00:00	6	Velocidad del viento	0
65826	7	Sololá	710	Panajachel	8	Panajachel	10	Octubre	2023-12-10T00:00:00	2024-11-08T13:00:00	7	Dirección del viento	0
65827	7	Sololá	710	Panajachel	8	Panajachel	10	Octubre	2023-12-10T00:00:00	2024-11-08T13:00:00	1	Precipitación	0
65828	7	Sololá	710	Panajachel	8	Panajachel	10	Octubre	2023-12-10T00:00:00	2024-11-08T13:00:00	8	Radiación solar	637
65829	7	Sololá	710	Panajachel	8	Panajachel	10	Octubre	2023-12-10T00:00:00	2024-11-08T14:00:00	2	Temperatura media	22.5
65830	7	Sololá	710	Panajachel	8	Panajachel	10	Octubre	2023-12-10T00:00:00	2024-11-08T14:00:00	4	Temperatura máxima	25.5
65831	7	Sololá	710	Panajachel	8	Panajachel	10	Octubre	2023-12-10T00:00:00	2024-11-08T14:00:00	3	Temperatura mínima	22.5
65832	7	Sololá	710	Panajachel	8	Panajachel	10	Octubre	2023-12-10T00:00:00	2024-11-08T14:00:00	5	Humedad	89
65833	7	Sololá	710	Panajachel	8	Panajachel	10	Octubre	2023-12-10T00:00:00	2024-11-08T14:00:00	6	Velocidad del viento	4.8
65834	7	Sololá	710	Panajachel	8	Panajachel	10	Octubre	2023-12-10T00:00:00	2024-11-08T14:00:00	7	Dirección del viento	4.83
65835	7	Sololá	710	Panajachel	8	Panajachel	10	Octubre	2023-12-10T00:00:00	2024-11-08T14:00:00	1	Precipitación	0
65836	7	Sololá	710	Panajachel	8	Panajachel	10	Octubre	2023-12-10T00:00:00	2024-11-08T14:00:00	8	Radiación solar	473
65837	7	Sololá	710	Panajachel	8	Panajachel	10	Octubre	2023-12-10T00:00:00	2024-11-08T15:00:00	2	Temperatura media	21.2
65838	7	Sololá	710	Panajachel	8	Panajachel	10	Octubre	2023-12-10T00:00:00	2024-11-08T15:00:00	4	Temperatura máxima	22.5
65839	7	Sololá	710	Panajachel	8	Panajachel	10	Octubre	2023-12-10T00:00:00	2024-11-08T15:00:00	3	Temperatura mínima	21.1
65840	7	Sololá	710	Panajachel	8	Panajachel	10	Octubre	2023-12-10T00:00:00	2024-11-08T15:00:00	5	Humedad	91
65841	7	Sololá	710	Panajachel	8	Panajachel	10	Octubre	2023-12-10T00:00:00	2024-11-08T15:00:00	6	Velocidad del viento	6.4
65842	7	Sololá	710	Panajachel	8	Panajachel	10	Octubre	2023-12-10T00:00:00	2024-11-08T15:00:00	7	Dirección del viento	6.44
65843	7	Sololá	710	Panajachel	8	Panajachel	10	Octubre	2023-12-10T00:00:00	2024-11-08T15:00:00	1	Precipitación	0
65844	7	Sololá	710	Panajachel	8	Panajachel	10	Octubre	2023-12-10T00:00:00	2024-11-08T15:00:00	8	Radiación solar	82
65845	7	Sololá	710	Panajachel	8	Panajachel	10	Octubre	2023-12-10T00:00:00	2024-11-08T16:00:00	2	Temperatura media	20.9
65846	7	Sololá	710	Panajachel	8	Panajachel	10	Octubre	2023-12-10T00:00:00	2024-11-08T16:00:00	4	Temperatura máxima	21.3
65847	7	Sololá	710	Panajachel	8	Panajachel	10	Octubre	2023-12-10T00:00:00	2024-11-08T16:00:00	3	Temperatura mínima	20.8
65848	7	Sololá	710	Panajachel	8	Panajachel	10	Octubre	2023-12-10T00:00:00	2024-11-08T16:00:00	5	Humedad	92
65849	7	Sololá	710	Panajachel	8	Panajachel	10	Octubre	2023-12-10T00:00:00	2024-11-08T16:00:00	6	Velocidad del viento	3.2
65850	7	Sololá	710	Panajachel	8	Panajachel	10	Octubre	2023-12-10T00:00:00	2024-11-08T16:00:00	7	Dirección del viento	3.22
65851	7	Sololá	710	Panajachel	8	Panajachel	10	Octubre	2023-12-10T00:00:00	2024-11-08T16:00:00	1	Precipitación	0
65852	7	Sololá	710	Panajachel	8	Panajachel	10	Octubre	2023-12-10T00:00:00	2024-11-08T16:00:00	8	Radiación solar	42
65853	7	Sololá	710	Panajachel	8	Panajachel	10	Octubre	2023-12-10T00:00:00	2024-11-08T17:00:00	2	Temperatura media	21.2
65854	7	Sololá	710	Panajachel	8	Panajachel	10	Octubre	2023-12-10T00:00:00	2024-11-08T17:00:00	4	Temperatura máxima	21.2
65855	7	Sololá	710	Panajachel	8	Panajachel	10	Octubre	2023-12-10T00:00:00	2024-11-08T17:00:00	3	Temperatura mínima	20.9
65856	7	Sololá	710	Panajachel	8	Panajachel	10	Octubre	2023-12-10T00:00:00	2024-11-08T17:00:00	5	Humedad	90
65857	7	Sololá	710	Panajachel	8	Panajachel	10	Octubre	2023-12-10T00:00:00	2024-11-08T17:00:00	6	Velocidad del viento	0
65858	7	Sololá	710	Panajachel	8	Panajachel	10	Octubre	2023-12-10T00:00:00	2024-11-08T17:00:00	7	Dirección del viento	0
65859	7	Sololá	710	Panajachel	8	Panajachel	10	Octubre	2023-12-10T00:00:00	2024-11-08T17:00:00	1	Precipitación	0
65860	7	Sololá	710	Panajachel	8	Panajachel	10	Octubre	2023-12-10T00:00:00	2024-11-08T17:00:00	8	Radiación solar	31
65861	7	Sololá	710	Panajachel	8	Panajachel	10	Octubre	2023-12-10T00:00:00	2024-11-08T18:00:00	2	Temperatura media	20.7
65862	7	Sololá	710	Panajachel	8	Panajachel	10	Octubre	2023-12-10T00:00:00	2024-11-08T18:00:00	4	Temperatura máxima	21.2
65863	7	Sololá	710	Panajachel	8	Panajachel	10	Octubre	2023-12-10T00:00:00	2024-11-08T18:00:00	3	Temperatura mínima	20.6
65864	7	Sololá	710	Panajachel	8	Panajachel	10	Octubre	2023-12-10T00:00:00	2024-11-08T18:00:00	5	Humedad	92
65865	7	Sololá	710	Panajachel	8	Panajachel	10	Octubre	2023-12-10T00:00:00	2024-11-08T18:00:00	6	Velocidad del viento	1.6
65866	7	Sololá	710	Panajachel	8	Panajachel	10	Octubre	2023-12-10T00:00:00	2024-11-08T18:00:00	7	Dirección del viento	1.61
65867	7	Sololá	710	Panajachel	8	Panajachel	10	Octubre	2023-12-10T00:00:00	2024-11-08T18:00:00	1	Precipitación	0
65868	7	Sololá	710	Panajachel	8	Panajachel	10	Octubre	2023-12-10T00:00:00	2024-11-08T18:00:00	8	Radiación solar	2
65869	7	Sololá	710	Panajachel	8	Panajachel	10	Octubre	2023-12-10T00:00:00	2024-11-08T19:00:00	2	Temperatura media	20.6
65870	7	Sololá	710	Panajachel	8	Panajachel	10	Octubre	2023-12-10T00:00:00	2024-11-08T19:00:00	4	Temperatura máxima	20.7
65871	7	Sololá	710	Panajachel	8	Panajachel	10	Octubre	2023-12-10T00:00:00	2024-11-08T19:00:00	3	Temperatura mínima	20.5
65872	7	Sololá	710	Panajachel	8	Panajachel	10	Octubre	2023-12-10T00:00:00	2024-11-08T19:00:00	5	Humedad	92
65873	7	Sololá	710	Panajachel	8	Panajachel	10	Octubre	2023-12-10T00:00:00	2024-11-08T19:00:00	6	Velocidad del viento	1.6
65874	7	Sololá	710	Panajachel	8	Panajachel	10	Octubre	2023-12-10T00:00:00	2024-11-08T19:00:00	7	Dirección del viento	1.61
65875	7	Sololá	710	Panajachel	8	Panajachel	10	Octubre	2023-12-10T00:00:00	2024-11-08T19:00:00	1	Precipitación	0
65876	7	Sololá	710	Panajachel	8	Panajachel	10	Octubre	2023-12-10T00:00:00	2024-11-08T19:00:00	8	Radiación solar	0
65877	7	Sololá	710	Panajachel	8	Panajachel	10	Octubre	2023-12-10T00:00:00	2024-11-08T20:00:00	2	Temperatura media	20.2
65878	7	Sololá	710	Panajachel	8	Panajachel	10	Octubre	2023-12-10T00:00:00	2024-11-08T20:00:00	4	Temperatura máxima	20.6
65879	7	Sololá	710	Panajachel	8	Panajachel	10	Octubre	2023-12-10T00:00:00	2024-11-08T20:00:00	3	Temperatura mínima	20.1
65880	7	Sololá	710	Panajachel	8	Panajachel	10	Octubre	2023-12-10T00:00:00	2024-11-08T20:00:00	5	Humedad	92
65881	7	Sololá	710	Panajachel	8	Panajachel	10	Octubre	2023-12-10T00:00:00	2024-11-08T20:00:00	6	Velocidad del viento	1.6
65882	7	Sololá	710	Panajachel	8	Panajachel	10	Octubre	2023-12-10T00:00:00	2024-11-08T20:00:00	7	Dirección del viento	1.61
65883	7	Sololá	710	Panajachel	8	Panajachel	10	Octubre	2023-12-10T00:00:00	2024-11-08T20:00:00	1	Precipitación	0
65884	7	Sololá	710	Panajachel	8	Panajachel	10	Octubre	2023-12-10T00:00:00	2024-11-08T20:00:00	8	Radiación solar	0
65885	7	Sololá	710	Panajachel	8	Panajachel	10	Octubre	2023-12-10T00:00:00	2024-11-08T21:00:00	2	Temperatura media	19.9
65886	7	Sololá	710	Panajachel	8	Panajachel	10	Octubre	2023-12-10T00:00:00	2024-11-08T21:00:00	4	Temperatura máxima	20.3
65887	7	Sololá	710	Panajachel	8	Panajachel	10	Octubre	2023-12-10T00:00:00	2024-11-08T21:00:00	3	Temperatura mínima	19.9
65888	7	Sololá	710	Panajachel	8	Panajachel	10	Octubre	2023-12-10T00:00:00	2024-11-08T21:00:00	5	Humedad	94
65889	7	Sololá	710	Panajachel	8	Panajachel	10	Octubre	2023-12-10T00:00:00	2024-11-08T21:00:00	6	Velocidad del viento	1.6
65890	7	Sololá	710	Panajachel	8	Panajachel	10	Octubre	2023-12-10T00:00:00	2024-11-08T21:00:00	7	Dirección del viento	1.61
65891	7	Sololá	710	Panajachel	8	Panajachel	10	Octubre	2023-12-10T00:00:00	2024-11-08T21:00:00	1	Precipitación	0.2
65892	7	Sololá	710	Panajachel	8	Panajachel	10	Octubre	2023-12-10T00:00:00	2024-11-08T21:00:00	8	Radiación solar	0
65893	7	Sololá	710	Panajachel	8	Panajachel	10	Octubre	2023-12-10T00:00:00	2024-11-08T22:00:00	2	Temperatura media	19.6
65894	7	Sololá	710	Panajachel	8	Panajachel	10	Octubre	2023-12-10T00:00:00	2024-11-08T22:00:00	4	Temperatura máxima	20.1
65895	7	Sololá	710	Panajachel	8	Panajachel	10	Octubre	2023-12-10T00:00:00	2024-11-08T22:00:00	3	Temperatura mínima	19.6
65896	7	Sololá	710	Panajachel	8	Panajachel	10	Octubre	2023-12-10T00:00:00	2024-11-08T22:00:00	5	Humedad	94
65897	7	Sololá	710	Panajachel	8	Panajachel	10	Octubre	2023-12-10T00:00:00	2024-11-08T22:00:00	6	Velocidad del viento	1.6
65898	7	Sololá	710	Panajachel	8	Panajachel	10	Octubre	2023-12-10T00:00:00	2024-11-08T22:00:00	7	Dirección del viento	1.61
65899	7	Sololá	710	Panajachel	8	Panajachel	10	Octubre	2023-12-10T00:00:00	2024-11-08T22:00:00	1	Precipitación	0
65900	7	Sololá	710	Panajachel	8	Panajachel	10	Octubre	2023-12-10T00:00:00	2024-11-08T22:00:00	8	Radiación solar	0
65901	7	Sololá	710	Panajachel	8	Panajachel	10	Octubre	2023-12-10T00:00:00	2024-11-08T23:00:00	2	Temperatura media	19.7
65902	7	Sololá	710	Panajachel	8	Panajachel	10	Octubre	2023-12-10T00:00:00	2024-11-08T23:00:00	4	Temperatura máxima	19.9
65903	7	Sololá	710	Panajachel	8	Panajachel	10	Octubre	2023-12-10T00:00:00	2024-11-08T23:00:00	3	Temperatura mínima	19.4
65904	7	Sololá	710	Panajachel	8	Panajachel	10	Octubre	2023-12-10T00:00:00	2024-11-08T23:00:00	5	Humedad	94
65905	7	Sololá	710	Panajachel	8	Panajachel	10	Octubre	2023-12-10T00:00:00	2024-11-08T23:00:00	6	Velocidad del viento	1.6
65906	7	Sololá	710	Panajachel	8	Panajachel	10	Octubre	2023-12-10T00:00:00	2024-11-08T23:00:00	7	Dirección del viento	1.61
65907	7	Sololá	710	Panajachel	8	Panajachel	10	Octubre	2023-12-10T00:00:00	2024-11-08T23:00:00	1	Precipitación	0
65908	7	Sololá	710	Panajachel	8	Panajachel	10	Octubre	2023-12-10T00:00:00	2024-11-08T23:00:00	8	Radiación solar	0
65909	7	Sololá	710	Panajachel	8	Panajachel	10	Octubre	2023-10-13T00:00:00	2024-11-08T00:00:00	2	Temperatura media	19.4
65910	7	Sololá	710	Panajachel	8	Panajachel	10	Octubre	2023-10-13T00:00:00	2024-11-08T00:00:00	4	Temperatura máxima	19.7
65911	7	Sololá	710	Panajachel	8	Panajachel	10	Octubre	2023-10-13T00:00:00	2024-11-08T00:00:00	3	Temperatura mínima	19
65912	7	Sololá	710	Panajachel	8	Panajachel	10	Octubre	2023-10-13T00:00:00	2024-11-08T00:00:00	5	Humedad	96
65913	7	Sololá	710	Panajachel	8	Panajachel	10	Octubre	2023-10-13T00:00:00	2024-11-08T00:00:00	6	Velocidad del viento	1.6
65914	7	Sololá	710	Panajachel	8	Panajachel	10	Octubre	2023-10-13T00:00:00	2024-11-08T00:00:00	7	Dirección del viento	1.61
65915	7	Sololá	710	Panajachel	8	Panajachel	10	Octubre	2023-10-13T00:00:00	2024-11-08T00:00:00	1	Precipitación	0
65916	7	Sololá	710	Panajachel	8	Panajachel	10	Octubre	2023-10-13T00:00:00	2024-11-08T00:00:00	8	Radiación solar	0
65917	7	Sololá	710	Panajachel	8	Panajachel	10	Octubre	2023-10-13T00:00:00	2024-11-08T01:00:00	2	Temperatura media	19.2
65918	7	Sololá	710	Panajachel	8	Panajachel	10	Octubre	2023-10-13T00:00:00	2024-11-08T01:00:00	4	Temperatura máxima	19.4
65919	7	Sololá	710	Panajachel	8	Panajachel	10	Octubre	2023-10-13T00:00:00	2024-11-08T01:00:00	3	Temperatura mínima	19.1
65920	7	Sololá	710	Panajachel	8	Panajachel	10	Octubre	2023-10-13T00:00:00	2024-11-08T01:00:00	5	Humedad	95
65921	7	Sololá	710	Panajachel	8	Panajachel	10	Octubre	2023-10-13T00:00:00	2024-11-08T01:00:00	6	Velocidad del viento	1.6
65922	7	Sololá	710	Panajachel	8	Panajachel	10	Octubre	2023-10-13T00:00:00	2024-11-08T01:00:00	7	Dirección del viento	1.61
65923	7	Sololá	710	Panajachel	8	Panajachel	10	Octubre	2023-10-13T00:00:00	2024-11-08T01:00:00	1	Precipitación	0
65924	7	Sololá	710	Panajachel	8	Panajachel	10	Octubre	2023-10-13T00:00:00	2024-11-08T01:00:00	8	Radiación solar	0
65925	7	Sololá	710	Panajachel	8	Panajachel	10	Octubre	2023-10-13T00:00:00	2024-11-08T02:00:00	2	Temperatura media	19.1
65926	7	Sololá	710	Panajachel	8	Panajachel	10	Octubre	2023-10-13T00:00:00	2024-11-08T02:00:00	4	Temperatura máxima	19.2
65927	7	Sololá	710	Panajachel	8	Panajachel	10	Octubre	2023-10-13T00:00:00	2024-11-08T02:00:00	3	Temperatura mínima	18.8
65928	7	Sololá	710	Panajachel	8	Panajachel	10	Octubre	2023-10-13T00:00:00	2024-11-08T02:00:00	5	Humedad	95
65929	7	Sololá	710	Panajachel	8	Panajachel	10	Octubre	2023-10-13T00:00:00	2024-11-08T02:00:00	6	Velocidad del viento	1.6
65930	7	Sololá	710	Panajachel	8	Panajachel	10	Octubre	2023-10-13T00:00:00	2024-11-08T02:00:00	7	Dirección del viento	1.61
65931	7	Sololá	710	Panajachel	8	Panajachel	10	Octubre	2023-10-13T00:00:00	2024-11-08T02:00:00	1	Precipitación	0
65932	7	Sololá	710	Panajachel	8	Panajachel	10	Octubre	2023-10-13T00:00:00	2024-11-08T02:00:00	8	Radiación solar	0
65933	7	Sololá	710	Panajachel	8	Panajachel	10	Octubre	2023-10-13T00:00:00	2024-11-08T03:00:00	2	Temperatura media	18.2
65934	7	Sololá	710	Panajachel	8	Panajachel	10	Octubre	2023-10-13T00:00:00	2024-11-08T03:00:00	4	Temperatura máxima	19.2
65935	7	Sololá	710	Panajachel	8	Panajachel	10	Octubre	2023-10-13T00:00:00	2024-11-08T03:00:00	3	Temperatura mínima	18.2
65936	7	Sololá	710	Panajachel	8	Panajachel	10	Octubre	2023-10-13T00:00:00	2024-11-08T03:00:00	5	Humedad	94
65937	7	Sololá	710	Panajachel	8	Panajachel	10	Octubre	2023-10-13T00:00:00	2024-11-08T03:00:00	6	Velocidad del viento	1.6
65938	7	Sololá	710	Panajachel	8	Panajachel	10	Octubre	2023-10-13T00:00:00	2024-11-08T03:00:00	7	Dirección del viento	1.61
65939	7	Sololá	710	Panajachel	8	Panajachel	10	Octubre	2023-10-13T00:00:00	2024-11-08T03:00:00	1	Precipitación	0
65940	7	Sololá	710	Panajachel	8	Panajachel	10	Octubre	2023-10-13T00:00:00	2024-11-08T03:00:00	8	Radiación solar	0
65941	7	Sololá	710	Panajachel	8	Panajachel	10	Octubre	2023-10-13T00:00:00	2024-11-08T04:00:00	2	Temperatura media	17.9
65942	7	Sololá	710	Panajachel	8	Panajachel	10	Octubre	2023-10-13T00:00:00	2024-11-08T04:00:00	4	Temperatura máxima	18.3
65943	7	Sololá	710	Panajachel	8	Panajachel	10	Octubre	2023-10-13T00:00:00	2024-11-08T04:00:00	3	Temperatura mínima	17.8
65944	7	Sololá	710	Panajachel	8	Panajachel	10	Octubre	2023-10-13T00:00:00	2024-11-08T04:00:00	5	Humedad	91
65945	7	Sololá	710	Panajachel	8	Panajachel	10	Octubre	2023-10-13T00:00:00	2024-11-08T04:00:00	6	Velocidad del viento	3.2
65946	7	Sololá	710	Panajachel	8	Panajachel	10	Octubre	2023-10-13T00:00:00	2024-11-08T04:00:00	7	Dirección del viento	3.22
65947	7	Sololá	710	Panajachel	8	Panajachel	10	Octubre	2023-10-13T00:00:00	2024-11-08T04:00:00	1	Precipitación	0
65948	7	Sololá	710	Panajachel	8	Panajachel	10	Octubre	2023-10-13T00:00:00	2024-11-08T04:00:00	8	Radiación solar	0
65949	7	Sololá	710	Panajachel	8	Panajachel	10	Octubre	2023-10-13T00:00:00	2024-11-08T05:00:00	2	Temperatura media	17.5
65950	7	Sololá	710	Panajachel	8	Panajachel	10	Octubre	2023-10-13T00:00:00	2024-11-08T05:00:00	4	Temperatura máxima	18.2
65951	7	Sololá	710	Panajachel	8	Panajachel	10	Octubre	2023-10-13T00:00:00	2024-11-08T05:00:00	3	Temperatura mínima	17.4
65952	7	Sololá	710	Panajachel	8	Panajachel	10	Octubre	2023-10-13T00:00:00	2024-11-08T05:00:00	5	Humedad	92
65953	7	Sololá	710	Panajachel	8	Panajachel	10	Octubre	2023-10-13T00:00:00	2024-11-08T05:00:00	6	Velocidad del viento	1.6
65954	7	Sololá	710	Panajachel	8	Panajachel	10	Octubre	2023-10-13T00:00:00	2024-11-08T05:00:00	7	Dirección del viento	1.61
65955	7	Sololá	710	Panajachel	8	Panajachel	10	Octubre	2023-10-13T00:00:00	2024-11-08T05:00:00	1	Precipitación	0
65956	7	Sololá	710	Panajachel	8	Panajachel	10	Octubre	2023-10-13T00:00:00	2024-11-08T05:00:00	8	Radiación solar	0
65957	7	Sololá	710	Panajachel	8	Panajachel	10	Octubre	2023-10-13T00:00:00	2024-11-08T06:00:00	2	Temperatura media	17
65958	7	Sololá	710	Panajachel	8	Panajachel	10	Octubre	2023-10-13T00:00:00	2024-11-08T06:00:00	4	Temperatura máxima	17.6
65959	7	Sololá	710	Panajachel	8	Panajachel	10	Octubre	2023-10-13T00:00:00	2024-11-08T06:00:00	3	Temperatura mínima	16.9
65960	7	Sololá	710	Panajachel	8	Panajachel	10	Octubre	2023-10-13T00:00:00	2024-11-08T06:00:00	5	Humedad	94
65961	7	Sololá	710	Panajachel	8	Panajachel	10	Octubre	2023-10-13T00:00:00	2024-11-08T06:00:00	6	Velocidad del viento	1.6
65962	7	Sololá	710	Panajachel	8	Panajachel	10	Octubre	2023-10-13T00:00:00	2024-11-08T06:00:00	7	Dirección del viento	1.61
65963	7	Sololá	710	Panajachel	8	Panajachel	10	Octubre	2023-10-13T00:00:00	2024-11-08T06:00:00	1	Precipitación	0
65964	7	Sololá	710	Panajachel	8	Panajachel	10	Octubre	2023-10-13T00:00:00	2024-11-08T06:00:00	8	Radiación solar	0
65965	7	Sololá	710	Panajachel	8	Panajachel	10	Octubre	2023-10-13T00:00:00	2024-11-08T07:00:00	2	Temperatura media	18.1
65966	7	Sololá	710	Panajachel	8	Panajachel	10	Octubre	2023-10-13T00:00:00	2024-11-08T07:00:00	4	Temperatura máxima	18.1
65967	7	Sololá	710	Panajachel	8	Panajachel	10	Octubre	2023-10-13T00:00:00	2024-11-08T07:00:00	3	Temperatura mínima	16.9
65968	7	Sololá	710	Panajachel	8	Panajachel	10	Octubre	2023-10-13T00:00:00	2024-11-08T07:00:00	5	Humedad	93
65969	7	Sololá	710	Panajachel	8	Panajachel	10	Octubre	2023-10-13T00:00:00	2024-11-08T07:00:00	6	Velocidad del viento	1.6
65970	7	Sololá	710	Panajachel	8	Panajachel	10	Octubre	2023-10-13T00:00:00	2024-11-08T07:00:00	7	Dirección del viento	1.61
65971	7	Sololá	710	Panajachel	8	Panajachel	10	Octubre	2023-10-13T00:00:00	2024-11-08T07:00:00	1	Precipitación	0
65972	7	Sololá	710	Panajachel	8	Panajachel	10	Octubre	2023-10-13T00:00:00	2024-11-08T07:00:00	8	Radiación solar	43
65973	7	Sololá	710	Panajachel	8	Panajachel	10	Octubre	2023-10-13T00:00:00	2024-11-08T08:00:00	2	Temperatura media	22.4
65974	7	Sololá	710	Panajachel	8	Panajachel	10	Octubre	2023-10-13T00:00:00	2024-11-08T08:00:00	4	Temperatura máxima	22.4
65975	7	Sololá	710	Panajachel	8	Panajachel	10	Octubre	2023-10-13T00:00:00	2024-11-08T08:00:00	3	Temperatura mínima	18.1
65976	7	Sololá	710	Panajachel	8	Panajachel	10	Octubre	2023-10-13T00:00:00	2024-11-08T08:00:00	5	Humedad	81
65977	7	Sololá	710	Panajachel	8	Panajachel	10	Octubre	2023-10-13T00:00:00	2024-11-08T08:00:00	6	Velocidad del viento	1.6
65978	7	Sololá	710	Panajachel	8	Panajachel	10	Octubre	2023-10-13T00:00:00	2024-11-08T08:00:00	7	Dirección del viento	1.61
65979	7	Sololá	710	Panajachel	8	Panajachel	10	Octubre	2023-10-13T00:00:00	2024-11-08T08:00:00	1	Precipitación	0
65980	7	Sololá	710	Panajachel	8	Panajachel	10	Octubre	2023-10-13T00:00:00	2024-11-08T08:00:00	8	Radiación solar	290
65981	7	Sololá	710	Panajachel	8	Panajachel	10	Octubre	2023-10-13T00:00:00	2024-11-08T09:00:00	2	Temperatura media	22.6
65982	7	Sololá	710	Panajachel	8	Panajachel	10	Octubre	2023-10-13T00:00:00	2024-11-08T09:00:00	4	Temperatura máxima	22.6
65983	7	Sololá	710	Panajachel	8	Panajachel	10	Octubre	2023-10-13T00:00:00	2024-11-08T09:00:00	3	Temperatura mínima	21.7
65984	7	Sololá	710	Panajachel	8	Panajachel	10	Octubre	2023-10-13T00:00:00	2024-11-08T09:00:00	5	Humedad	84
65985	7	Sololá	710	Panajachel	8	Panajachel	10	Octubre	2023-10-13T00:00:00	2024-11-08T09:00:00	6	Velocidad del viento	1.6
65986	7	Sololá	710	Panajachel	8	Panajachel	10	Octubre	2023-10-13T00:00:00	2024-11-08T09:00:00	7	Dirección del viento	1.61
65987	7	Sololá	710	Panajachel	8	Panajachel	10	Octubre	2023-10-13T00:00:00	2024-11-08T09:00:00	1	Precipitación	0
65988	7	Sololá	710	Panajachel	8	Panajachel	10	Octubre	2023-10-13T00:00:00	2024-11-08T09:00:00	8	Radiación solar	507
65989	7	Sololá	710	Panajachel	8	Panajachel	10	Octubre	2023-10-13T00:00:00	2024-11-08T10:00:00	2	Temperatura media	23.1
65990	7	Sololá	710	Panajachel	8	Panajachel	10	Octubre	2023-10-13T00:00:00	2024-11-08T10:00:00	4	Temperatura máxima	23.3
65991	7	Sololá	710	Panajachel	8	Panajachel	10	Octubre	2023-10-13T00:00:00	2024-11-08T10:00:00	3	Temperatura mínima	22.6
65992	7	Sololá	710	Panajachel	8	Panajachel	10	Octubre	2023-10-13T00:00:00	2024-11-08T10:00:00	5	Humedad	83
65993	7	Sololá	710	Panajachel	8	Panajachel	10	Octubre	2023-10-13T00:00:00	2024-11-08T10:00:00	6	Velocidad del viento	1.6
65994	7	Sololá	710	Panajachel	8	Panajachel	10	Octubre	2023-10-13T00:00:00	2024-11-08T10:00:00	7	Dirección del viento	1.61
65995	7	Sololá	710	Panajachel	8	Panajachel	10	Octubre	2023-10-13T00:00:00	2024-11-08T10:00:00	1	Precipitación	0
65996	7	Sololá	710	Panajachel	8	Panajachel	10	Octubre	2023-10-13T00:00:00	2024-11-08T10:00:00	8	Radiación solar	692
65997	7	Sololá	710	Panajachel	8	Panajachel	10	Octubre	2023-10-13T00:00:00	2024-11-08T11:00:00	2	Temperatura media	23.2
65998	7	Sololá	710	Panajachel	8	Panajachel	10	Octubre	2023-10-13T00:00:00	2024-11-08T11:00:00	4	Temperatura máxima	23.6
65999	7	Sololá	710	Panajachel	8	Panajachel	10	Octubre	2023-10-13T00:00:00	2024-11-08T11:00:00	3	Temperatura mínima	23.2
66000	7	Sololá	710	Panajachel	8	Panajachel	10	Octubre	2023-10-13T00:00:00	2024-11-08T11:00:00	5	Humedad	85
66001	7	Sololá	710	Panajachel	8	Panajachel	10	Octubre	2023-10-13T00:00:00	2024-11-08T11:00:00	6	Velocidad del viento	3.2
66002	7	Sololá	710	Panajachel	8	Panajachel	10	Octubre	2023-10-13T00:00:00	2024-11-08T11:00:00	7	Dirección del viento	3.22
66003	7	Sololá	710	Panajachel	8	Panajachel	10	Octubre	2023-10-13T00:00:00	2024-11-08T11:00:00	1	Precipitación	0
66004	7	Sololá	710	Panajachel	8	Panajachel	10	Octubre	2023-10-13T00:00:00	2024-11-08T11:00:00	8	Radiación solar	812
66005	7	Sololá	710	Panajachel	8	Panajachel	10	Octubre	2023-10-13T00:00:00	2024-11-08T12:00:00	2	Temperatura media	23.2
66006	7	Sololá	710	Panajachel	8	Panajachel	10	Octubre	2023-10-13T00:00:00	2024-11-08T12:00:00	4	Temperatura máxima	24.1
66007	7	Sololá	710	Panajachel	8	Panajachel	10	Octubre	2023-10-13T00:00:00	2024-11-08T12:00:00	3	Temperatura mínima	23
66008	7	Sololá	710	Panajachel	8	Panajachel	10	Octubre	2023-10-13T00:00:00	2024-11-08T12:00:00	5	Humedad	83
66009	7	Sololá	710	Panajachel	8	Panajachel	10	Octubre	2023-10-13T00:00:00	2024-11-08T12:00:00	6	Velocidad del viento	4.8
66010	7	Sololá	710	Panajachel	8	Panajachel	10	Octubre	2023-10-13T00:00:00	2024-11-08T12:00:00	7	Dirección del viento	4.83
66011	7	Sololá	710	Panajachel	8	Panajachel	10	Octubre	2023-10-13T00:00:00	2024-11-08T12:00:00	1	Precipitación	0
66012	7	Sololá	710	Panajachel	8	Panajachel	10	Octubre	2023-10-13T00:00:00	2024-11-08T12:00:00	8	Radiación solar	690
66013	7	Sololá	710	Panajachel	8	Panajachel	10	Octubre	2023-10-13T00:00:00	2024-11-08T13:00:00	2	Temperatura media	22.7
66014	7	Sololá	710	Panajachel	8	Panajachel	10	Octubre	2023-10-13T00:00:00	2024-11-08T13:00:00	4	Temperatura máxima	23.2
66015	7	Sololá	710	Panajachel	8	Panajachel	10	Octubre	2023-10-13T00:00:00	2024-11-08T13:00:00	3	Temperatura mínima	22.3
66016	7	Sololá	710	Panajachel	8	Panajachel	10	Octubre	2023-10-13T00:00:00	2024-11-08T13:00:00	5	Humedad	87
66017	7	Sololá	710	Panajachel	8	Panajachel	10	Octubre	2023-10-13T00:00:00	2024-11-08T13:00:00	6	Velocidad del viento	4.8
66018	7	Sololá	710	Panajachel	8	Panajachel	10	Octubre	2023-10-13T00:00:00	2024-11-08T13:00:00	7	Dirección del viento	4.83
66019	7	Sololá	710	Panajachel	8	Panajachel	10	Octubre	2023-10-13T00:00:00	2024-11-08T13:00:00	1	Precipitación	0
66020	7	Sololá	710	Panajachel	8	Panajachel	10	Octubre	2023-10-13T00:00:00	2024-11-08T13:00:00	8	Radiación solar	266
66021	7	Sololá	710	Panajachel	8	Panajachel	10	Octubre	2023-10-13T00:00:00	2024-11-08T14:00:00	2	Temperatura media	22.8
66022	7	Sololá	710	Panajachel	8	Panajachel	10	Octubre	2023-10-13T00:00:00	2024-11-08T14:00:00	4	Temperatura máxima	23.3
66023	7	Sololá	710	Panajachel	8	Panajachel	10	Octubre	2023-10-13T00:00:00	2024-11-08T14:00:00	3	Temperatura mínima	22.6
66024	7	Sololá	710	Panajachel	8	Panajachel	10	Octubre	2023-10-13T00:00:00	2024-11-08T14:00:00	5	Humedad	86
66025	7	Sololá	710	Panajachel	8	Panajachel	10	Octubre	2023-10-13T00:00:00	2024-11-08T14:00:00	6	Velocidad del viento	3.2
66026	7	Sololá	710	Panajachel	8	Panajachel	10	Octubre	2023-10-13T00:00:00	2024-11-08T14:00:00	7	Dirección del viento	3.22
66027	7	Sololá	710	Panajachel	8	Panajachel	10	Octubre	2023-10-13T00:00:00	2024-11-08T14:00:00	1	Precipitación	0
66028	7	Sololá	710	Panajachel	8	Panajachel	10	Octubre	2023-10-13T00:00:00	2024-11-08T14:00:00	8	Radiación solar	371
66029	7	Sololá	710	Panajachel	8	Panajachel	10	Octubre	2023-10-13T00:00:00	2024-11-08T15:00:00	2	Temperatura media	21.7
66030	7	Sololá	710	Panajachel	8	Panajachel	10	Octubre	2023-10-13T00:00:00	2024-11-08T15:00:00	4	Temperatura máxima	23.2
66031	7	Sololá	710	Panajachel	8	Panajachel	10	Octubre	2023-10-13T00:00:00	2024-11-08T15:00:00	3	Temperatura mínima	21.7
66032	7	Sololá	710	Panajachel	8	Panajachel	10	Octubre	2023-10-13T00:00:00	2024-11-08T15:00:00	5	Humedad	90
66033	7	Sololá	710	Panajachel	8	Panajachel	10	Octubre	2023-10-13T00:00:00	2024-11-08T15:00:00	6	Velocidad del viento	3.2
66034	7	Sololá	710	Panajachel	8	Panajachel	10	Octubre	2023-10-13T00:00:00	2024-11-08T15:00:00	7	Dirección del viento	3.22
66035	7	Sololá	710	Panajachel	8	Panajachel	10	Octubre	2023-10-13T00:00:00	2024-11-08T15:00:00	1	Precipitación	0
66036	7	Sololá	710	Panajachel	8	Panajachel	10	Octubre	2023-10-13T00:00:00	2024-11-08T15:00:00	8	Radiación solar	228
66037	7	Sololá	710	Panajachel	8	Panajachel	10	Octubre	2023-10-13T00:00:00	2024-11-08T16:00:00	2	Temperatura media	21.4
66038	7	Sololá	710	Panajachel	8	Panajachel	10	Octubre	2023-10-13T00:00:00	2024-11-08T16:00:00	4	Temperatura máxima	21.7
66039	7	Sololá	710	Panajachel	8	Panajachel	10	Octubre	2023-10-13T00:00:00	2024-11-08T16:00:00	3	Temperatura mínima	21.4
66040	7	Sololá	710	Panajachel	8	Panajachel	10	Octubre	2023-10-13T00:00:00	2024-11-08T16:00:00	5	Humedad	90
66041	7	Sololá	710	Panajachel	8	Panajachel	10	Octubre	2023-10-13T00:00:00	2024-11-08T16:00:00	6	Velocidad del viento	0
66042	7	Sololá	710	Panajachel	8	Panajachel	10	Octubre	2023-10-13T00:00:00	2024-11-08T16:00:00	7	Dirección del viento	0
66043	7	Sololá	710	Panajachel	8	Panajachel	10	Octubre	2023-10-13T00:00:00	2024-11-08T16:00:00	1	Precipitación	0
66044	7	Sololá	710	Panajachel	8	Panajachel	10	Octubre	2023-10-13T00:00:00	2024-11-08T16:00:00	8	Radiación solar	67
66045	7	Sololá	710	Panajachel	8	Panajachel	10	Octubre	2023-10-13T00:00:00	2024-11-08T17:00:00	2	Temperatura media	21.3
66046	7	Sololá	710	Panajachel	8	Panajachel	10	Octubre	2023-10-13T00:00:00	2024-11-08T17:00:00	4	Temperatura máxima	21.4
66047	7	Sololá	710	Panajachel	8	Panajachel	10	Octubre	2023-10-13T00:00:00	2024-11-08T17:00:00	3	Temperatura mínima	21.2
66048	7	Sololá	710	Panajachel	8	Panajachel	10	Octubre	2023-10-13T00:00:00	2024-11-08T17:00:00	5	Humedad	91
66049	7	Sololá	710	Panajachel	8	Panajachel	10	Octubre	2023-10-13T00:00:00	2024-11-08T17:00:00	6	Velocidad del viento	1.6
66050	7	Sololá	710	Panajachel	8	Panajachel	10	Octubre	2023-10-13T00:00:00	2024-11-08T17:00:00	7	Dirección del viento	1.61
66051	7	Sololá	710	Panajachel	8	Panajachel	10	Octubre	2023-10-13T00:00:00	2024-11-08T17:00:00	1	Precipitación	0
66052	7	Sololá	710	Panajachel	8	Panajachel	10	Octubre	2023-10-13T00:00:00	2024-11-08T17:00:00	8	Radiación solar	38
66053	7	Sololá	710	Panajachel	8	Panajachel	10	Octubre	2023-10-13T00:00:00	2024-11-08T18:00:00	2	Temperatura media	20.9
66054	7	Sololá	710	Panajachel	8	Panajachel	10	Octubre	2023-10-13T00:00:00	2024-11-08T18:00:00	4	Temperatura máxima	21.3
66055	7	Sololá	710	Panajachel	8	Panajachel	10	Octubre	2023-10-13T00:00:00	2024-11-08T18:00:00	3	Temperatura mínima	20.9
66056	7	Sololá	710	Panajachel	8	Panajachel	10	Octubre	2023-10-13T00:00:00	2024-11-08T18:00:00	5	Humedad	92
66057	7	Sololá	710	Panajachel	8	Panajachel	10	Octubre	2023-10-13T00:00:00	2024-11-08T18:00:00	6	Velocidad del viento	0
66058	7	Sololá	710	Panajachel	8	Panajachel	10	Octubre	2023-10-13T00:00:00	2024-11-08T18:00:00	7	Dirección del viento	0
66059	7	Sololá	710	Panajachel	8	Panajachel	10	Octubre	2023-10-13T00:00:00	2024-11-08T18:00:00	1	Precipitación	0
66060	7	Sololá	710	Panajachel	8	Panajachel	10	Octubre	2023-10-13T00:00:00	2024-11-08T18:00:00	8	Radiación solar	5
66061	7	Sololá	710	Panajachel	8	Panajachel	10	Octubre	2023-10-13T00:00:00	2024-11-08T19:00:00	2	Temperatura media	20.7
66062	7	Sololá	710	Panajachel	8	Panajachel	10	Octubre	2023-10-13T00:00:00	2024-11-08T19:00:00	4	Temperatura máxima	21
66063	7	Sololá	710	Panajachel	8	Panajachel	10	Octubre	2023-10-13T00:00:00	2024-11-08T19:00:00	3	Temperatura mínima	20.7
66064	7	Sololá	710	Panajachel	8	Panajachel	10	Octubre	2023-10-13T00:00:00	2024-11-08T19:00:00	5	Humedad	92
66065	7	Sololá	710	Panajachel	8	Panajachel	10	Octubre	2023-10-13T00:00:00	2024-11-08T19:00:00	6	Velocidad del viento	1.6
66066	7	Sololá	710	Panajachel	8	Panajachel	10	Octubre	2023-10-13T00:00:00	2024-11-08T19:00:00	7	Dirección del viento	1.61
66067	7	Sololá	710	Panajachel	8	Panajachel	10	Octubre	2023-10-13T00:00:00	2024-11-08T19:00:00	1	Precipitación	0
66068	7	Sololá	710	Panajachel	8	Panajachel	10	Octubre	2023-10-13T00:00:00	2024-11-08T19:00:00	8	Radiación solar	0
66069	7	Sololá	710	Panajachel	8	Panajachel	10	Octubre	2023-10-13T00:00:00	2024-11-08T20:00:00	2	Temperatura media	20.6
66070	7	Sololá	710	Panajachel	8	Panajachel	10	Octubre	2023-10-13T00:00:00	2024-11-08T20:00:00	4	Temperatura máxima	20.7
66071	7	Sololá	710	Panajachel	8	Panajachel	10	Octubre	2023-10-13T00:00:00	2024-11-08T20:00:00	3	Temperatura mínima	20.5
66072	7	Sololá	710	Panajachel	8	Panajachel	10	Octubre	2023-10-13T00:00:00	2024-11-08T20:00:00	5	Humedad	92
66073	7	Sololá	710	Panajachel	8	Panajachel	10	Octubre	2023-10-13T00:00:00	2024-11-08T20:00:00	6	Velocidad del viento	1.6
66074	7	Sololá	710	Panajachel	8	Panajachel	10	Octubre	2023-10-13T00:00:00	2024-11-08T20:00:00	7	Dirección del viento	1.61
66075	7	Sololá	710	Panajachel	8	Panajachel	10	Octubre	2023-10-13T00:00:00	2024-11-08T20:00:00	1	Precipitación	0
66076	7	Sololá	710	Panajachel	8	Panajachel	10	Octubre	2023-10-13T00:00:00	2024-11-08T20:00:00	8	Radiación solar	0
66077	7	Sololá	710	Panajachel	8	Panajachel	10	Octubre	2023-10-13T00:00:00	2024-11-08T21:00:00	2	Temperatura media	20.5
66078	7	Sololá	710	Panajachel	8	Panajachel	10	Octubre	2023-10-13T00:00:00	2024-11-08T21:00:00	4	Temperatura máxima	20.7
66079	7	Sololá	710	Panajachel	8	Panajachel	10	Octubre	2023-10-13T00:00:00	2024-11-08T21:00:00	3	Temperatura mínima	20.5
66080	7	Sololá	710	Panajachel	8	Panajachel	10	Octubre	2023-10-13T00:00:00	2024-11-08T21:00:00	5	Humedad	92
66081	7	Sololá	710	Panajachel	8	Panajachel	10	Octubre	2023-10-13T00:00:00	2024-11-08T21:00:00	6	Velocidad del viento	0
66082	7	Sololá	710	Panajachel	8	Panajachel	10	Octubre	2023-10-13T00:00:00	2024-11-08T21:00:00	7	Dirección del viento	0
66083	7	Sololá	710	Panajachel	8	Panajachel	10	Octubre	2023-10-13T00:00:00	2024-11-08T21:00:00	1	Precipitación	0
66084	7	Sololá	710	Panajachel	8	Panajachel	10	Octubre	2023-10-13T00:00:00	2024-11-08T21:00:00	8	Radiación solar	0
66085	7	Sololá	710	Panajachel	8	Panajachel	10	Octubre	2023-10-13T00:00:00	2024-11-08T22:00:00	2	Temperatura media	19.3
66086	7	Sololá	710	Panajachel	8	Panajachel	10	Octubre	2023-10-13T00:00:00	2024-11-08T22:00:00	4	Temperatura máxima	20.5
66087	7	Sololá	710	Panajachel	8	Panajachel	10	Octubre	2023-10-13T00:00:00	2024-11-08T22:00:00	3	Temperatura mínima	19.3
66088	7	Sololá	710	Panajachel	8	Panajachel	10	Octubre	2023-10-13T00:00:00	2024-11-08T22:00:00	5	Humedad	94
66089	7	Sololá	710	Panajachel	8	Panajachel	10	Octubre	2023-10-13T00:00:00	2024-11-08T22:00:00	6	Velocidad del viento	0
66090	7	Sololá	710	Panajachel	8	Panajachel	10	Octubre	2023-10-13T00:00:00	2024-11-08T22:00:00	7	Dirección del viento	0
66091	7	Sololá	710	Panajachel	8	Panajachel	10	Octubre	2023-10-13T00:00:00	2024-11-08T22:00:00	1	Precipitación	0
66092	7	Sololá	710	Panajachel	8	Panajachel	10	Octubre	2023-10-13T00:00:00	2024-11-08T22:00:00	8	Radiación solar	0
66093	7	Sololá	710	Panajachel	8	Panajachel	10	Octubre	2023-10-13T00:00:00	2024-11-08T23:00:00	2	Temperatura media	18.9
66094	7	Sololá	710	Panajachel	8	Panajachel	10	Octubre	2023-10-13T00:00:00	2024-11-08T23:00:00	4	Temperatura máxima	19.3
66095	7	Sololá	710	Panajachel	8	Panajachel	10	Octubre	2023-10-13T00:00:00	2024-11-08T23:00:00	3	Temperatura mínima	18.9
66096	7	Sololá	710	Panajachel	8	Panajachel	10	Octubre	2023-10-13T00:00:00	2024-11-08T23:00:00	5	Humedad	93
66097	7	Sololá	710	Panajachel	8	Panajachel	10	Octubre	2023-10-13T00:00:00	2024-11-08T23:00:00	6	Velocidad del viento	1.6
66098	7	Sololá	710	Panajachel	8	Panajachel	10	Octubre	2023-10-13T00:00:00	2024-11-08T23:00:00	7	Dirección del viento	1.61
66099	7	Sololá	710	Panajachel	8	Panajachel	10	Octubre	2023-10-13T00:00:00	2024-11-08T23:00:00	1	Precipitación	0
66100	7	Sololá	710	Panajachel	8	Panajachel	10	Octubre	2023-10-13T00:00:00	2024-11-08T23:00:00	8	Radiación solar	0
66101	7	Sololá	710	Panajachel	8	Panajachel	10	Octubre	2023-10-14T00:00:00	2024-11-08T00:00:00	2	Temperatura media	18.7
66102	7	Sololá	710	Panajachel	8	Panajachel	10	Octubre	2023-10-14T00:00:00	2024-11-08T00:00:00	4	Temperatura máxima	19.1
66103	7	Sololá	710	Panajachel	8	Panajachel	10	Octubre	2023-10-14T00:00:00	2024-11-08T00:00:00	3	Temperatura mínima	18.7
66104	7	Sololá	710	Panajachel	8	Panajachel	10	Octubre	2023-10-14T00:00:00	2024-11-08T00:00:00	5	Humedad	90
66105	7	Sololá	710	Panajachel	8	Panajachel	10	Octubre	2023-10-14T00:00:00	2024-11-08T00:00:00	6	Velocidad del viento	3.2
66106	7	Sololá	710	Panajachel	8	Panajachel	10	Octubre	2023-10-14T00:00:00	2024-11-08T00:00:00	7	Dirección del viento	3.22
66107	7	Sololá	710	Panajachel	8	Panajachel	10	Octubre	2023-10-14T00:00:00	2024-11-08T00:00:00	1	Precipitación	0
66108	7	Sololá	710	Panajachel	8	Panajachel	10	Octubre	2023-10-14T00:00:00	2024-11-08T00:00:00	8	Radiación solar	0
66109	7	Sololá	710	Panajachel	8	Panajachel	10	Octubre	2023-10-14T00:00:00	2024-11-08T01:00:00	2	Temperatura media	18.9
66110	7	Sololá	710	Panajachel	8	Panajachel	10	Octubre	2023-10-14T00:00:00	2024-11-08T01:00:00	4	Temperatura máxima	19.1
66111	7	Sololá	710	Panajachel	8	Panajachel	10	Octubre	2023-10-14T00:00:00	2024-11-08T01:00:00	3	Temperatura mínima	18.6
66112	7	Sololá	710	Panajachel	8	Panajachel	10	Octubre	2023-10-14T00:00:00	2024-11-08T01:00:00	5	Humedad	87
66113	7	Sololá	710	Panajachel	8	Panajachel	10	Octubre	2023-10-14T00:00:00	2024-11-08T01:00:00	6	Velocidad del viento	3.2
66114	7	Sololá	710	Panajachel	8	Panajachel	10	Octubre	2023-10-14T00:00:00	2024-11-08T01:00:00	7	Dirección del viento	3.22
66115	7	Sololá	710	Panajachel	8	Panajachel	10	Octubre	2023-10-14T00:00:00	2024-11-08T01:00:00	1	Precipitación	0
66116	7	Sololá	710	Panajachel	8	Panajachel	10	Octubre	2023-10-14T00:00:00	2024-11-08T01:00:00	8	Radiación solar	0
66117	7	Sololá	710	Panajachel	8	Panajachel	10	Octubre	2023-10-14T00:00:00	2024-11-08T02:00:00	2	Temperatura media	18.1
66118	7	Sololá	710	Panajachel	8	Panajachel	10	Octubre	2023-10-14T00:00:00	2024-11-08T02:00:00	4	Temperatura máxima	18.9
66119	7	Sololá	710	Panajachel	8	Panajachel	10	Octubre	2023-10-14T00:00:00	2024-11-08T02:00:00	3	Temperatura mínima	18.1
66120	7	Sololá	710	Panajachel	8	Panajachel	10	Octubre	2023-10-14T00:00:00	2024-11-08T02:00:00	5	Humedad	90
66121	7	Sololá	710	Panajachel	8	Panajachel	10	Octubre	2023-10-14T00:00:00	2024-11-08T02:00:00	6	Velocidad del viento	0
66122	7	Sololá	710	Panajachel	8	Panajachel	10	Octubre	2023-10-14T00:00:00	2024-11-08T02:00:00	7	Dirección del viento	0
66123	7	Sololá	710	Panajachel	8	Panajachel	10	Octubre	2023-10-14T00:00:00	2024-11-08T02:00:00	1	Precipitación	0
66124	7	Sololá	710	Panajachel	8	Panajachel	10	Octubre	2023-10-14T00:00:00	2024-11-08T02:00:00	8	Radiación solar	0
66125	7	Sololá	710	Panajachel	8	Panajachel	10	Octubre	2023-10-14T00:00:00	2024-11-08T03:00:00	2	Temperatura media	17.4
66126	7	Sololá	710	Panajachel	8	Panajachel	10	Octubre	2023-10-14T00:00:00	2024-11-08T03:00:00	4	Temperatura máxima	18.1
66127	7	Sololá	710	Panajachel	8	Panajachel	10	Octubre	2023-10-14T00:00:00	2024-11-08T03:00:00	3	Temperatura mínima	17.4
66128	7	Sololá	710	Panajachel	8	Panajachel	10	Octubre	2023-10-14T00:00:00	2024-11-08T03:00:00	5	Humedad	93
66129	7	Sololá	710	Panajachel	8	Panajachel	10	Octubre	2023-10-14T00:00:00	2024-11-08T03:00:00	6	Velocidad del viento	1.6
66130	7	Sololá	710	Panajachel	8	Panajachel	10	Octubre	2023-10-14T00:00:00	2024-11-08T03:00:00	7	Dirección del viento	1.61
66131	7	Sololá	710	Panajachel	8	Panajachel	10	Octubre	2023-10-14T00:00:00	2024-11-08T03:00:00	1	Precipitación	0
66132	7	Sololá	710	Panajachel	8	Panajachel	10	Octubre	2023-10-14T00:00:00	2024-11-08T03:00:00	8	Radiación solar	0
66133	7	Sololá	710	Panajachel	8	Panajachel	10	Octubre	2023-10-14T00:00:00	2024-11-08T04:00:00	2	Temperatura media	17.3
66134	7	Sololá	710	Panajachel	8	Panajachel	10	Octubre	2023-10-14T00:00:00	2024-11-08T04:00:00	4	Temperatura máxima	17.8
66135	7	Sololá	710	Panajachel	8	Panajachel	10	Octubre	2023-10-14T00:00:00	2024-11-08T04:00:00	3	Temperatura mínima	17.3
66136	7	Sololá	710	Panajachel	8	Panajachel	10	Octubre	2023-10-14T00:00:00	2024-11-08T04:00:00	5	Humedad	92
66137	7	Sololá	710	Panajachel	8	Panajachel	10	Octubre	2023-10-14T00:00:00	2024-11-08T04:00:00	6	Velocidad del viento	1.6
66138	7	Sololá	710	Panajachel	8	Panajachel	10	Octubre	2023-10-14T00:00:00	2024-11-08T04:00:00	7	Dirección del viento	1.61
66139	7	Sololá	710	Panajachel	8	Panajachel	10	Octubre	2023-10-14T00:00:00	2024-11-08T04:00:00	1	Precipitación	0
66140	7	Sololá	710	Panajachel	8	Panajachel	10	Octubre	2023-10-14T00:00:00	2024-11-08T04:00:00	8	Radiación solar	0
66141	7	Sololá	710	Panajachel	8	Panajachel	10	Octubre	2023-10-14T00:00:00	2024-11-08T05:00:00	2	Temperatura media	17.6
66142	7	Sololá	710	Panajachel	8	Panajachel	10	Octubre	2023-10-14T00:00:00	2024-11-08T05:00:00	4	Temperatura máxima	17.9
66143	7	Sololá	710	Panajachel	8	Panajachel	10	Octubre	2023-10-14T00:00:00	2024-11-08T05:00:00	3	Temperatura mínima	17.2
66144	7	Sololá	710	Panajachel	8	Panajachel	10	Octubre	2023-10-14T00:00:00	2024-11-08T05:00:00	5	Humedad	90
66145	7	Sololá	710	Panajachel	8	Panajachel	10	Octubre	2023-10-14T00:00:00	2024-11-08T05:00:00	6	Velocidad del viento	1.6
66146	7	Sololá	710	Panajachel	8	Panajachel	10	Octubre	2023-10-14T00:00:00	2024-11-08T05:00:00	7	Dirección del viento	1.61
66147	7	Sololá	710	Panajachel	8	Panajachel	10	Octubre	2023-10-14T00:00:00	2024-11-08T05:00:00	1	Precipitación	0
66148	7	Sololá	710	Panajachel	8	Panajachel	10	Octubre	2023-10-14T00:00:00	2024-11-08T05:00:00	8	Radiación solar	0
66149	7	Sololá	710	Panajachel	8	Panajachel	10	Octubre	2023-10-14T00:00:00	2024-11-08T06:00:00	2	Temperatura media	16.9
66150	7	Sololá	710	Panajachel	8	Panajachel	10	Octubre	2023-10-14T00:00:00	2024-11-08T06:00:00	4	Temperatura máxima	17.5
66151	7	Sololá	710	Panajachel	8	Panajachel	10	Octubre	2023-10-14T00:00:00	2024-11-08T06:00:00	3	Temperatura mínima	16.8
66152	7	Sololá	710	Panajachel	8	Panajachel	10	Octubre	2023-10-14T00:00:00	2024-11-08T06:00:00	5	Humedad	91
66153	7	Sololá	710	Panajachel	8	Panajachel	10	Octubre	2023-10-14T00:00:00	2024-11-08T06:00:00	6	Velocidad del viento	1.6
66154	7	Sololá	710	Panajachel	8	Panajachel	10	Octubre	2023-10-14T00:00:00	2024-11-08T06:00:00	7	Dirección del viento	1.61
66155	7	Sololá	710	Panajachel	8	Panajachel	10	Octubre	2023-10-14T00:00:00	2024-11-08T06:00:00	1	Precipitación	0
66156	7	Sololá	710	Panajachel	8	Panajachel	10	Octubre	2023-10-14T00:00:00	2024-11-08T06:00:00	8	Radiación solar	0
66157	7	Sololá	710	Panajachel	8	Panajachel	10	Octubre	2023-10-14T00:00:00	2024-11-08T07:00:00	2	Temperatura media	18.7
66158	7	Sololá	710	Panajachel	8	Panajachel	10	Octubre	2023-10-14T00:00:00	2024-11-08T07:00:00	4	Temperatura máxima	18.7
66159	7	Sololá	710	Panajachel	8	Panajachel	10	Octubre	2023-10-14T00:00:00	2024-11-08T07:00:00	3	Temperatura mínima	16.8
66160	7	Sololá	710	Panajachel	8	Panajachel	10	Octubre	2023-10-14T00:00:00	2024-11-08T07:00:00	5	Humedad	85
66161	7	Sololá	710	Panajachel	8	Panajachel	10	Octubre	2023-10-14T00:00:00	2024-11-08T07:00:00	6	Velocidad del viento	1.6
66162	7	Sololá	710	Panajachel	8	Panajachel	10	Octubre	2023-10-14T00:00:00	2024-11-08T07:00:00	7	Dirección del viento	1.61
66163	7	Sololá	710	Panajachel	8	Panajachel	10	Octubre	2023-10-14T00:00:00	2024-11-08T07:00:00	1	Precipitación	0
66164	7	Sololá	710	Panajachel	8	Panajachel	10	Octubre	2023-10-14T00:00:00	2024-11-08T07:00:00	8	Radiación solar	45
66165	7	Sololá	710	Panajachel	8	Panajachel	10	Octubre	2023-10-14T00:00:00	2024-11-08T08:00:00	2	Temperatura media	22.3
66166	7	Sololá	710	Panajachel	8	Panajachel	10	Octubre	2023-10-14T00:00:00	2024-11-08T08:00:00	4	Temperatura máxima	22.3
66167	7	Sololá	710	Panajachel	8	Panajachel	10	Octubre	2023-10-14T00:00:00	2024-11-08T08:00:00	3	Temperatura mínima	18.7
66168	7	Sololá	710	Panajachel	8	Panajachel	10	Octubre	2023-10-14T00:00:00	2024-11-08T08:00:00	5	Humedad	76
66169	7	Sololá	710	Panajachel	8	Panajachel	10	Octubre	2023-10-14T00:00:00	2024-11-08T08:00:00	6	Velocidad del viento	0
66170	7	Sololá	710	Panajachel	8	Panajachel	10	Octubre	2023-10-14T00:00:00	2024-11-08T08:00:00	7	Dirección del viento	0
66171	7	Sololá	710	Panajachel	8	Panajachel	10	Octubre	2023-10-14T00:00:00	2024-11-08T08:00:00	1	Precipitación	0
66172	7	Sololá	710	Panajachel	8	Panajachel	10	Octubre	2023-10-14T00:00:00	2024-11-08T08:00:00	8	Radiación solar	288
66173	7	Sololá	710	Panajachel	8	Panajachel	10	Octubre	2023-10-14T00:00:00	2024-11-08T09:00:00	2	Temperatura media	22.5
66174	7	Sololá	710	Panajachel	8	Panajachel	10	Octubre	2023-10-14T00:00:00	2024-11-08T09:00:00	4	Temperatura máxima	22.6
66175	7	Sololá	710	Panajachel	8	Panajachel	10	Octubre	2023-10-14T00:00:00	2024-11-08T09:00:00	3	Temperatura mínima	22.1
66176	7	Sololá	710	Panajachel	8	Panajachel	10	Octubre	2023-10-14T00:00:00	2024-11-08T09:00:00	5	Humedad	79
66177	7	Sololá	710	Panajachel	8	Panajachel	10	Octubre	2023-10-14T00:00:00	2024-11-08T09:00:00	6	Velocidad del viento	1.6
66178	7	Sololá	710	Panajachel	8	Panajachel	10	Octubre	2023-10-14T00:00:00	2024-11-08T09:00:00	7	Dirección del viento	1.61
66179	7	Sololá	710	Panajachel	8	Panajachel	10	Octubre	2023-10-14T00:00:00	2024-11-08T09:00:00	1	Precipitación	0
66180	7	Sololá	710	Panajachel	8	Panajachel	10	Octubre	2023-10-14T00:00:00	2024-11-08T09:00:00	8	Radiación solar	505
66181	7	Sololá	710	Panajachel	8	Panajachel	10	Octubre	2023-10-14T00:00:00	2024-11-08T10:00:00	2	Temperatura media	22.7
66182	7	Sololá	710	Panajachel	8	Panajachel	10	Octubre	2023-10-14T00:00:00	2024-11-08T10:00:00	4	Temperatura máxima	23
66183	7	Sololá	710	Panajachel	8	Panajachel	10	Octubre	2023-10-14T00:00:00	2024-11-08T10:00:00	3	Temperatura mínima	22.4
66184	7	Sololá	710	Panajachel	8	Panajachel	10	Octubre	2023-10-14T00:00:00	2024-11-08T10:00:00	5	Humedad	78
66185	7	Sololá	710	Panajachel	8	Panajachel	10	Octubre	2023-10-14T00:00:00	2024-11-08T10:00:00	6	Velocidad del viento	1.6
66186	7	Sololá	710	Panajachel	8	Panajachel	10	Octubre	2023-10-14T00:00:00	2024-11-08T10:00:00	7	Dirección del viento	1.61
66187	7	Sololá	710	Panajachel	8	Panajachel	10	Octubre	2023-10-14T00:00:00	2024-11-08T10:00:00	1	Precipitación	0
66188	7	Sololá	710	Panajachel	8	Panajachel	10	Octubre	2023-10-14T00:00:00	2024-11-08T10:00:00	8	Radiación solar	394
66189	7	Sololá	710	Panajachel	8	Panajachel	10	Octubre	2023-10-14T00:00:00	2024-11-08T11:00:00	2	Temperatura media	23.7
66190	7	Sololá	710	Panajachel	8	Panajachel	10	Octubre	2023-10-14T00:00:00	2024-11-08T11:00:00	4	Temperatura máxima	23.8
66191	7	Sololá	710	Panajachel	8	Panajachel	10	Octubre	2023-10-14T00:00:00	2024-11-08T11:00:00	3	Temperatura mínima	22.7
66192	7	Sololá	710	Panajachel	8	Panajachel	10	Octubre	2023-10-14T00:00:00	2024-11-08T11:00:00	5	Humedad	80
66193	7	Sololá	710	Panajachel	8	Panajachel	10	Octubre	2023-10-14T00:00:00	2024-11-08T11:00:00	6	Velocidad del viento	0
66194	7	Sololá	710	Panajachel	8	Panajachel	10	Octubre	2023-10-14T00:00:00	2024-11-08T11:00:00	7	Dirección del viento	0
66195	7	Sololá	710	Panajachel	8	Panajachel	10	Octubre	2023-10-14T00:00:00	2024-11-08T11:00:00	1	Precipitación	0
66196	7	Sololá	710	Panajachel	8	Panajachel	10	Octubre	2023-10-14T00:00:00	2024-11-08T11:00:00	8	Radiación solar	207
66197	7	Sololá	710	Panajachel	8	Panajachel	10	Octubre	2023-10-14T00:00:00	2024-11-08T12:00:00	2	Temperatura media	22
66198	7	Sololá	710	Panajachel	8	Panajachel	10	Octubre	2023-10-14T00:00:00	2024-11-08T12:00:00	4	Temperatura máxima	23.7
66199	7	Sololá	710	Panajachel	8	Panajachel	10	Octubre	2023-10-14T00:00:00	2024-11-08T12:00:00	3	Temperatura mínima	22
66200	7	Sololá	710	Panajachel	8	Panajachel	10	Octubre	2023-10-14T00:00:00	2024-11-08T12:00:00	5	Humedad	89
66201	7	Sololá	710	Panajachel	8	Panajachel	10	Octubre	2023-10-14T00:00:00	2024-11-08T12:00:00	6	Velocidad del viento	3.2
66202	7	Sololá	710	Panajachel	8	Panajachel	10	Octubre	2023-10-14T00:00:00	2024-11-08T12:00:00	7	Dirección del viento	3.22
66203	7	Sololá	710	Panajachel	8	Panajachel	10	Octubre	2023-10-14T00:00:00	2024-11-08T12:00:00	1	Precipitación	0
66204	7	Sololá	710	Panajachel	8	Panajachel	10	Octubre	2023-10-14T00:00:00	2024-11-08T12:00:00	8	Radiación solar	104
66205	7	Sololá	710	Panajachel	8	Panajachel	10	Octubre	2023-10-14T00:00:00	2024-11-08T13:00:00	2	Temperatura media	23.2
66206	7	Sololá	710	Panajachel	8	Panajachel	10	Octubre	2023-10-14T00:00:00	2024-11-08T13:00:00	4	Temperatura máxima	23.2
66207	7	Sololá	710	Panajachel	8	Panajachel	10	Octubre	2023-10-14T00:00:00	2024-11-08T13:00:00	3	Temperatura mínima	21.9
66208	7	Sololá	710	Panajachel	8	Panajachel	10	Octubre	2023-10-14T00:00:00	2024-11-08T13:00:00	5	Humedad	85
66209	7	Sololá	710	Panajachel	8	Panajachel	10	Octubre	2023-10-14T00:00:00	2024-11-08T13:00:00	6	Velocidad del viento	1.6
66210	7	Sololá	710	Panajachel	8	Panajachel	10	Octubre	2023-10-14T00:00:00	2024-11-08T13:00:00	7	Dirección del viento	1.61
66211	7	Sololá	710	Panajachel	8	Panajachel	10	Octubre	2023-10-14T00:00:00	2024-11-08T13:00:00	1	Precipitación	0
66212	7	Sololá	710	Panajachel	8	Panajachel	10	Octubre	2023-10-14T00:00:00	2024-11-08T13:00:00	8	Radiación solar	318
66213	7	Sololá	710	Panajachel	8	Panajachel	10	Octubre	2023-10-14T00:00:00	2024-11-08T14:00:00	2	Temperatura media	23.3
66214	7	Sololá	710	Panajachel	8	Panajachel	10	Octubre	2023-10-14T00:00:00	2024-11-08T14:00:00	4	Temperatura máxima	24.4
66215	7	Sololá	710	Panajachel	8	Panajachel	10	Octubre	2023-10-14T00:00:00	2024-11-08T14:00:00	3	Temperatura mínima	23.2
66216	7	Sololá	710	Panajachel	8	Panajachel	10	Octubre	2023-10-14T00:00:00	2024-11-08T14:00:00	5	Humedad	84
66217	7	Sololá	710	Panajachel	8	Panajachel	10	Octubre	2023-10-14T00:00:00	2024-11-08T14:00:00	6	Velocidad del viento	1.6
66218	7	Sololá	710	Panajachel	8	Panajachel	10	Octubre	2023-10-14T00:00:00	2024-11-08T14:00:00	7	Dirección del viento	1.61
66219	7	Sololá	710	Panajachel	8	Panajachel	10	Octubre	2023-10-14T00:00:00	2024-11-08T14:00:00	1	Precipitación	0
66220	7	Sololá	710	Panajachel	8	Panajachel	10	Octubre	2023-10-14T00:00:00	2024-11-08T14:00:00	8	Radiación solar	470
66221	7	Sololá	710	Panajachel	8	Panajachel	10	Octubre	2023-10-14T00:00:00	2024-11-08T15:00:00	2	Temperatura media	22.2
66222	7	Sololá	710	Panajachel	8	Panajachel	10	Octubre	2023-10-14T00:00:00	2024-11-08T15:00:00	4	Temperatura máxima	23.6
66223	7	Sololá	710	Panajachel	8	Panajachel	10	Octubre	2023-10-14T00:00:00	2024-11-08T15:00:00	3	Temperatura mínima	22.2
66224	7	Sololá	710	Panajachel	8	Panajachel	10	Octubre	2023-10-14T00:00:00	2024-11-08T15:00:00	5	Humedad	89
66225	7	Sololá	710	Panajachel	8	Panajachel	10	Octubre	2023-10-14T00:00:00	2024-11-08T15:00:00	6	Velocidad del viento	1.6
66226	7	Sololá	710	Panajachel	8	Panajachel	10	Octubre	2023-10-14T00:00:00	2024-11-08T15:00:00	7	Dirección del viento	1.61
66227	7	Sololá	710	Panajachel	8	Panajachel	10	Octubre	2023-10-14T00:00:00	2024-11-08T15:00:00	1	Precipitación	0
66228	7	Sololá	710	Panajachel	8	Panajachel	10	Octubre	2023-10-14T00:00:00	2024-11-08T15:00:00	8	Radiación solar	199
66229	7	Sololá	710	Panajachel	8	Panajachel	10	Octubre	2023-10-14T00:00:00	2024-11-08T16:00:00	2	Temperatura media	22.1
66230	7	Sololá	710	Panajachel	8	Panajachel	10	Octubre	2023-10-14T00:00:00	2024-11-08T16:00:00	4	Temperatura máxima	22.1
66231	7	Sololá	710	Panajachel	8	Panajachel	10	Octubre	2023-10-14T00:00:00	2024-11-08T16:00:00	3	Temperatura mínima	21.6
66232	7	Sololá	710	Panajachel	8	Panajachel	10	Octubre	2023-10-14T00:00:00	2024-11-08T16:00:00	5	Humedad	88
66233	7	Sololá	710	Panajachel	8	Panajachel	10	Octubre	2023-10-14T00:00:00	2024-11-08T16:00:00	6	Velocidad del viento	3.2
66234	7	Sololá	710	Panajachel	8	Panajachel	10	Octubre	2023-10-14T00:00:00	2024-11-08T16:00:00	7	Dirección del viento	3.22
66235	7	Sololá	710	Panajachel	8	Panajachel	10	Octubre	2023-10-14T00:00:00	2024-11-08T16:00:00	1	Precipitación	0
66236	7	Sololá	710	Panajachel	8	Panajachel	10	Octubre	2023-10-14T00:00:00	2024-11-08T16:00:00	8	Radiación solar	172
66237	7	Sololá	710	Panajachel	8	Panajachel	10	Octubre	2023-10-14T00:00:00	2024-11-08T17:00:00	2	Temperatura media	21.8
66238	7	Sololá	710	Panajachel	8	Panajachel	10	Octubre	2023-10-14T00:00:00	2024-11-08T17:00:00	4	Temperatura máxima	22.3
66239	7	Sololá	710	Panajachel	8	Panajachel	10	Octubre	2023-10-14T00:00:00	2024-11-08T17:00:00	3	Temperatura mínima	21.8
66240	7	Sololá	710	Panajachel	8	Panajachel	10	Octubre	2023-10-14T00:00:00	2024-11-08T17:00:00	5	Humedad	90
66241	7	Sololá	710	Panajachel	8	Panajachel	10	Octubre	2023-10-14T00:00:00	2024-11-08T17:00:00	6	Velocidad del viento	0
66242	7	Sololá	710	Panajachel	8	Panajachel	10	Octubre	2023-10-14T00:00:00	2024-11-08T17:00:00	7	Dirección del viento	0
66243	7	Sololá	710	Panajachel	8	Panajachel	10	Octubre	2023-10-14T00:00:00	2024-11-08T17:00:00	1	Precipitación	0
66244	7	Sololá	710	Panajachel	8	Panajachel	10	Octubre	2023-10-14T00:00:00	2024-11-08T17:00:00	8	Radiación solar	93
66245	7	Sololá	710	Panajachel	8	Panajachel	10	Octubre	2023-10-14T00:00:00	2024-11-08T18:00:00	2	Temperatura media	20.8
66246	7	Sololá	710	Panajachel	8	Panajachel	10	Octubre	2023-10-14T00:00:00	2024-11-08T18:00:00	4	Temperatura máxima	21.8
66247	7	Sololá	710	Panajachel	8	Panajachel	10	Octubre	2023-10-14T00:00:00	2024-11-08T18:00:00	3	Temperatura mínima	20.8
66248	7	Sololá	710	Panajachel	8	Panajachel	10	Octubre	2023-10-14T00:00:00	2024-11-08T18:00:00	5	Humedad	93
66249	7	Sololá	710	Panajachel	8	Panajachel	10	Octubre	2023-10-14T00:00:00	2024-11-08T18:00:00	6	Velocidad del viento	0
66250	7	Sololá	710	Panajachel	8	Panajachel	10	Octubre	2023-10-14T00:00:00	2024-11-08T18:00:00	7	Dirección del viento	0
66251	7	Sololá	710	Panajachel	8	Panajachel	10	Octubre	2023-10-14T00:00:00	2024-11-08T18:00:00	1	Precipitación	0
66252	7	Sololá	710	Panajachel	8	Panajachel	10	Octubre	2023-10-14T00:00:00	2024-11-08T18:00:00	8	Radiación solar	16
66253	7	Sololá	710	Panajachel	8	Panajachel	10	Octubre	2023-10-14T00:00:00	2024-11-08T19:00:00	2	Temperatura media	20
66254	7	Sololá	710	Panajachel	8	Panajachel	10	Octubre	2023-10-14T00:00:00	2024-11-08T19:00:00	4	Temperatura máxima	20.8
66255	7	Sololá	710	Panajachel	8	Panajachel	10	Octubre	2023-10-14T00:00:00	2024-11-08T19:00:00	3	Temperatura mínima	19.9
66256	7	Sololá	710	Panajachel	8	Panajachel	10	Octubre	2023-10-14T00:00:00	2024-11-08T19:00:00	5	Humedad	84
66257	7	Sololá	710	Panajachel	8	Panajachel	10	Octubre	2023-10-14T00:00:00	2024-11-08T19:00:00	6	Velocidad del viento	1.6
66258	7	Sololá	710	Panajachel	8	Panajachel	10	Octubre	2023-10-14T00:00:00	2024-11-08T19:00:00	7	Dirección del viento	1.61
66259	7	Sololá	710	Panajachel	8	Panajachel	10	Octubre	2023-10-14T00:00:00	2024-11-08T19:00:00	1	Precipitación	0
66260	7	Sololá	710	Panajachel	8	Panajachel	10	Octubre	2023-10-14T00:00:00	2024-11-08T19:00:00	8	Radiación solar	0
66261	7	Sololá	710	Panajachel	8	Panajachel	10	Octubre	2023-10-14T00:00:00	2024-11-08T20:00:00	2	Temperatura media	20.3
66262	7	Sololá	710	Panajachel	8	Panajachel	10	Octubre	2023-10-14T00:00:00	2024-11-08T20:00:00	4	Temperatura máxima	21.6
66263	7	Sololá	710	Panajachel	8	Panajachel	10	Octubre	2023-10-14T00:00:00	2024-11-08T20:00:00	3	Temperatura mínima	20
66264	7	Sololá	710	Panajachel	8	Panajachel	10	Octubre	2023-10-14T00:00:00	2024-11-08T20:00:00	5	Humedad	84
66265	7	Sololá	710	Panajachel	8	Panajachel	10	Octubre	2023-10-14T00:00:00	2024-11-08T20:00:00	6	Velocidad del viento	0
66266	7	Sololá	710	Panajachel	8	Panajachel	10	Octubre	2023-10-14T00:00:00	2024-11-08T20:00:00	7	Dirección del viento	0
66267	7	Sololá	710	Panajachel	8	Panajachel	10	Octubre	2023-10-14T00:00:00	2024-11-08T20:00:00	1	Precipitación	0
66268	7	Sololá	710	Panajachel	8	Panajachel	10	Octubre	2023-10-14T00:00:00	2024-11-08T20:00:00	8	Radiación solar	0
66269	7	Sololá	710	Panajachel	8	Panajachel	10	Octubre	2023-10-14T00:00:00	2024-11-08T21:00:00	2	Temperatura media	19.6
66270	7	Sololá	710	Panajachel	8	Panajachel	10	Octubre	2023-10-14T00:00:00	2024-11-08T21:00:00	4	Temperatura máxima	20.3
66271	7	Sololá	710	Panajachel	8	Panajachel	10	Octubre	2023-10-14T00:00:00	2024-11-08T21:00:00	3	Temperatura mínima	19.4
66272	7	Sololá	710	Panajachel	8	Panajachel	10	Octubre	2023-10-14T00:00:00	2024-11-08T21:00:00	5	Humedad	86
66273	7	Sololá	710	Panajachel	8	Panajachel	10	Octubre	2023-10-14T00:00:00	2024-11-08T21:00:00	6	Velocidad del viento	1.6
66274	7	Sololá	710	Panajachel	8	Panajachel	10	Octubre	2023-10-14T00:00:00	2024-11-08T21:00:00	7	Dirección del viento	1.61
66275	7	Sololá	710	Panajachel	8	Panajachel	10	Octubre	2023-10-14T00:00:00	2024-11-08T21:00:00	1	Precipitación	0
66276	7	Sololá	710	Panajachel	8	Panajachel	10	Octubre	2023-10-14T00:00:00	2024-11-08T21:00:00	8	Radiación solar	0
66277	7	Sololá	710	Panajachel	8	Panajachel	10	Octubre	2023-10-14T00:00:00	2024-11-08T22:00:00	2	Temperatura media	19.1
66278	7	Sololá	710	Panajachel	8	Panajachel	10	Octubre	2023-10-14T00:00:00	2024-11-08T22:00:00	4	Temperatura máxima	19.7
66279	7	Sololá	710	Panajachel	8	Panajachel	10	Octubre	2023-10-14T00:00:00	2024-11-08T22:00:00	3	Temperatura mínima	19
66280	7	Sololá	710	Panajachel	8	Panajachel	10	Octubre	2023-10-14T00:00:00	2024-11-08T22:00:00	5	Humedad	88
66281	7	Sololá	710	Panajachel	8	Panajachel	10	Octubre	2023-10-14T00:00:00	2024-11-08T22:00:00	6	Velocidad del viento	1.6
66282	7	Sololá	710	Panajachel	8	Panajachel	10	Octubre	2023-10-14T00:00:00	2024-11-08T22:00:00	7	Dirección del viento	1.61
66283	7	Sololá	710	Panajachel	8	Panajachel	10	Octubre	2023-10-14T00:00:00	2024-11-08T22:00:00	1	Precipitación	0
66284	7	Sololá	710	Panajachel	8	Panajachel	10	Octubre	2023-10-14T00:00:00	2024-11-08T22:00:00	8	Radiación solar	0
66285	7	Sololá	710	Panajachel	8	Panajachel	10	Octubre	2023-10-14T00:00:00	2024-11-08T23:00:00	2	Temperatura media	18.8
66286	7	Sololá	710	Panajachel	8	Panajachel	10	Octubre	2023-10-14T00:00:00	2024-11-08T23:00:00	4	Temperatura máxima	19.2
66287	7	Sololá	710	Panajachel	8	Panajachel	10	Octubre	2023-10-14T00:00:00	2024-11-08T23:00:00	3	Temperatura mínima	18.7
66288	7	Sololá	710	Panajachel	8	Panajachel	10	Octubre	2023-10-14T00:00:00	2024-11-08T23:00:00	5	Humedad	88
66289	7	Sololá	710	Panajachel	8	Panajachel	10	Octubre	2023-10-14T00:00:00	2024-11-08T23:00:00	6	Velocidad del viento	3.2
66290	7	Sololá	710	Panajachel	8	Panajachel	10	Octubre	2023-10-14T00:00:00	2024-11-08T23:00:00	7	Dirección del viento	3.22
66291	7	Sololá	710	Panajachel	8	Panajachel	10	Octubre	2023-10-14T00:00:00	2024-11-08T23:00:00	1	Precipitación	0
66292	7	Sololá	710	Panajachel	8	Panajachel	10	Octubre	2023-10-14T00:00:00	2024-11-08T23:00:00	8	Radiación solar	0
66293	7	Sololá	710	Panajachel	8	Panajachel	10	Octubre	2023-10-15T00:00:00	2024-11-08T00:00:00	2	Temperatura media	18.7
66294	7	Sololá	710	Panajachel	8	Panajachel	10	Octubre	2023-10-15T00:00:00	2024-11-08T00:00:00	4	Temperatura máxima	18.9
66295	7	Sololá	710	Panajachel	8	Panajachel	10	Octubre	2023-10-15T00:00:00	2024-11-08T00:00:00	3	Temperatura mínima	18.6
66296	7	Sololá	710	Panajachel	8	Panajachel	10	Octubre	2023-10-15T00:00:00	2024-11-08T00:00:00	5	Humedad	88
66297	7	Sololá	710	Panajachel	8	Panajachel	10	Octubre	2023-10-15T00:00:00	2024-11-08T00:00:00	6	Velocidad del viento	3.2
66298	7	Sololá	710	Panajachel	8	Panajachel	10	Octubre	2023-10-15T00:00:00	2024-11-08T00:00:00	7	Dirección del viento	3.22
66299	7	Sololá	710	Panajachel	8	Panajachel	10	Octubre	2023-10-15T00:00:00	2024-11-08T00:00:00	1	Precipitación	0
66300	7	Sololá	710	Panajachel	8	Panajachel	10	Octubre	2023-10-15T00:00:00	2024-11-08T00:00:00	8	Radiación solar	0
66301	7	Sololá	710	Panajachel	8	Panajachel	10	Octubre	2023-10-15T00:00:00	2024-11-08T01:00:00	2	Temperatura media	18.2
66302	7	Sololá	710	Panajachel	8	Panajachel	10	Octubre	2023-10-15T00:00:00	2024-11-08T01:00:00	4	Temperatura máxima	18.8
66303	7	Sololá	710	Panajachel	8	Panajachel	10	Octubre	2023-10-15T00:00:00	2024-11-08T01:00:00	3	Temperatura mínima	18.2
66304	7	Sololá	710	Panajachel	8	Panajachel	10	Octubre	2023-10-15T00:00:00	2024-11-08T01:00:00	5	Humedad	89
66305	7	Sololá	710	Panajachel	8	Panajachel	10	Octubre	2023-10-15T00:00:00	2024-11-08T01:00:00	6	Velocidad del viento	1.6
66306	7	Sololá	710	Panajachel	8	Panajachel	10	Octubre	2023-10-15T00:00:00	2024-11-08T01:00:00	7	Dirección del viento	1.61
66307	7	Sololá	710	Panajachel	8	Panajachel	10	Octubre	2023-10-15T00:00:00	2024-11-08T01:00:00	1	Precipitación	0
66308	7	Sololá	710	Panajachel	8	Panajachel	10	Octubre	2023-10-15T00:00:00	2024-11-08T01:00:00	8	Radiación solar	0
66309	7	Sololá	710	Panajachel	8	Panajachel	10	Octubre	2023-10-15T00:00:00	2024-11-08T02:00:00	2	Temperatura media	18.3
66310	7	Sololá	710	Panajachel	8	Panajachel	10	Octubre	2023-10-15T00:00:00	2024-11-08T02:00:00	4	Temperatura máxima	18.6
66311	7	Sololá	710	Panajachel	8	Panajachel	10	Octubre	2023-10-15T00:00:00	2024-11-08T02:00:00	3	Temperatura mínima	18.2
66312	7	Sololá	710	Panajachel	8	Panajachel	10	Octubre	2023-10-15T00:00:00	2024-11-08T02:00:00	5	Humedad	88
66313	7	Sololá	710	Panajachel	8	Panajachel	10	Octubre	2023-10-15T00:00:00	2024-11-08T02:00:00	6	Velocidad del viento	1.6
66314	7	Sololá	710	Panajachel	8	Panajachel	10	Octubre	2023-10-15T00:00:00	2024-11-08T02:00:00	7	Dirección del viento	1.61
66315	7	Sololá	710	Panajachel	8	Panajachel	10	Octubre	2023-10-15T00:00:00	2024-11-08T02:00:00	1	Precipitación	0
66316	7	Sololá	710	Panajachel	8	Panajachel	10	Octubre	2023-10-15T00:00:00	2024-11-08T02:00:00	8	Radiación solar	0
66317	7	Sololá	710	Panajachel	8	Panajachel	10	Octubre	2023-10-15T00:00:00	2024-11-08T03:00:00	2	Temperatura media	19.2
66318	7	Sololá	710	Panajachel	8	Panajachel	10	Octubre	2023-10-15T00:00:00	2024-11-08T03:00:00	4	Temperatura máxima	19.2
66319	7	Sololá	710	Panajachel	8	Panajachel	10	Octubre	2023-10-15T00:00:00	2024-11-08T03:00:00	3	Temperatura mínima	18.3
66320	7	Sololá	710	Panajachel	8	Panajachel	10	Octubre	2023-10-15T00:00:00	2024-11-08T03:00:00	5	Humedad	83
66321	7	Sololá	710	Panajachel	8	Panajachel	10	Octubre	2023-10-15T00:00:00	2024-11-08T03:00:00	6	Velocidad del viento	1.6
66322	7	Sololá	710	Panajachel	8	Panajachel	10	Octubre	2023-10-15T00:00:00	2024-11-08T03:00:00	7	Dirección del viento	1.61
66323	7	Sololá	710	Panajachel	8	Panajachel	10	Octubre	2023-10-15T00:00:00	2024-11-08T03:00:00	1	Precipitación	0
66324	7	Sololá	710	Panajachel	8	Panajachel	10	Octubre	2023-10-15T00:00:00	2024-11-08T03:00:00	8	Radiación solar	0
66325	7	Sololá	710	Panajachel	8	Panajachel	10	Octubre	2023-10-15T00:00:00	2024-11-08T04:00:00	2	Temperatura media	18.8
66326	7	Sololá	710	Panajachel	8	Panajachel	10	Octubre	2023-10-15T00:00:00	2024-11-08T04:00:00	4	Temperatura máxima	19.9
66327	7	Sololá	710	Panajachel	8	Panajachel	10	Octubre	2023-10-15T00:00:00	2024-11-08T04:00:00	3	Temperatura mínima	18.8
66328	7	Sololá	710	Panajachel	8	Panajachel	10	Octubre	2023-10-15T00:00:00	2024-11-08T04:00:00	5	Humedad	84
66329	7	Sololá	710	Panajachel	8	Panajachel	10	Octubre	2023-10-15T00:00:00	2024-11-08T04:00:00	6	Velocidad del viento	1.6
66330	7	Sololá	710	Panajachel	8	Panajachel	10	Octubre	2023-10-15T00:00:00	2024-11-08T04:00:00	7	Dirección del viento	1.61
66331	7	Sololá	710	Panajachel	8	Panajachel	10	Octubre	2023-10-15T00:00:00	2024-11-08T04:00:00	1	Precipitación	0
66332	7	Sololá	710	Panajachel	8	Panajachel	10	Octubre	2023-10-15T00:00:00	2024-11-08T04:00:00	8	Radiación solar	0
66333	7	Sololá	710	Panajachel	8	Panajachel	10	Octubre	2023-10-15T00:00:00	2024-11-08T05:00:00	2	Temperatura media	17.4
66334	7	Sololá	710	Panajachel	8	Panajachel	10	Octubre	2023-10-15T00:00:00	2024-11-08T05:00:00	4	Temperatura máxima	18.8
66335	7	Sololá	710	Panajachel	8	Panajachel	10	Octubre	2023-10-15T00:00:00	2024-11-08T05:00:00	3	Temperatura mínima	17.4
66336	7	Sololá	710	Panajachel	8	Panajachel	10	Octubre	2023-10-15T00:00:00	2024-11-08T05:00:00	5	Humedad	89
66337	7	Sololá	710	Panajachel	8	Panajachel	10	Octubre	2023-10-15T00:00:00	2024-11-08T05:00:00	6	Velocidad del viento	1.6
66338	7	Sololá	710	Panajachel	8	Panajachel	10	Octubre	2023-10-15T00:00:00	2024-11-08T05:00:00	7	Dirección del viento	1.61
66339	7	Sololá	710	Panajachel	8	Panajachel	10	Octubre	2023-10-15T00:00:00	2024-11-08T05:00:00	1	Precipitación	0
66340	7	Sololá	710	Panajachel	8	Panajachel	10	Octubre	2023-10-15T00:00:00	2024-11-08T05:00:00	8	Radiación solar	0
66341	7	Sololá	710	Panajachel	8	Panajachel	10	Octubre	2023-10-15T00:00:00	2024-11-08T06:00:00	2	Temperatura media	17.3
66342	7	Sololá	710	Panajachel	8	Panajachel	10	Octubre	2023-10-15T00:00:00	2024-11-08T06:00:00	4	Temperatura máxima	17.4
66343	7	Sololá	710	Panajachel	8	Panajachel	10	Octubre	2023-10-15T00:00:00	2024-11-08T06:00:00	3	Temperatura mínima	17
66344	7	Sololá	710	Panajachel	8	Panajachel	10	Octubre	2023-10-15T00:00:00	2024-11-08T06:00:00	5	Humedad	89
66345	7	Sololá	710	Panajachel	8	Panajachel	10	Octubre	2023-10-15T00:00:00	2024-11-08T06:00:00	6	Velocidad del viento	1.6
66346	7	Sololá	710	Panajachel	8	Panajachel	10	Octubre	2023-10-15T00:00:00	2024-11-08T06:00:00	7	Dirección del viento	1.61
66347	7	Sololá	710	Panajachel	8	Panajachel	10	Octubre	2023-10-15T00:00:00	2024-11-08T06:00:00	1	Precipitación	0
66348	7	Sololá	710	Panajachel	8	Panajachel	10	Octubre	2023-10-15T00:00:00	2024-11-08T06:00:00	8	Radiación solar	0
66349	7	Sololá	710	Panajachel	8	Panajachel	10	Octubre	2023-10-15T00:00:00	2024-11-08T07:00:00	2	Temperatura media	19.3
66350	7	Sololá	710	Panajachel	8	Panajachel	10	Octubre	2023-10-15T00:00:00	2024-11-08T07:00:00	4	Temperatura máxima	19.3
66351	7	Sololá	710	Panajachel	8	Panajachel	10	Octubre	2023-10-15T00:00:00	2024-11-08T07:00:00	3	Temperatura mínima	17.1
66352	7	Sololá	710	Panajachel	8	Panajachel	10	Octubre	2023-10-15T00:00:00	2024-11-08T07:00:00	5	Humedad	83
66353	7	Sololá	710	Panajachel	8	Panajachel	10	Octubre	2023-10-15T00:00:00	2024-11-08T07:00:00	6	Velocidad del viento	1.6
66354	7	Sololá	710	Panajachel	8	Panajachel	10	Octubre	2023-10-15T00:00:00	2024-11-08T07:00:00	7	Dirección del viento	1.61
66355	7	Sololá	710	Panajachel	8	Panajachel	10	Octubre	2023-10-15T00:00:00	2024-11-08T07:00:00	1	Precipitación	0
66356	7	Sololá	710	Panajachel	8	Panajachel	10	Octubre	2023-10-15T00:00:00	2024-11-08T07:00:00	8	Radiación solar	48
66357	7	Sololá	710	Panajachel	8	Panajachel	10	Octubre	2023-10-15T00:00:00	2024-11-08T08:00:00	2	Temperatura media	22.7
66358	7	Sololá	710	Panajachel	8	Panajachel	10	Octubre	2023-10-15T00:00:00	2024-11-08T08:00:00	4	Temperatura máxima	22.9
66359	7	Sololá	710	Panajachel	8	Panajachel	10	Octubre	2023-10-15T00:00:00	2024-11-08T08:00:00	3	Temperatura mínima	19.3
66360	7	Sololá	710	Panajachel	8	Panajachel	10	Octubre	2023-10-15T00:00:00	2024-11-08T08:00:00	5	Humedad	74
66361	7	Sololá	710	Panajachel	8	Panajachel	10	Octubre	2023-10-15T00:00:00	2024-11-08T08:00:00	6	Velocidad del viento	0
66362	7	Sololá	710	Panajachel	8	Panajachel	10	Octubre	2023-10-15T00:00:00	2024-11-08T08:00:00	7	Dirección del viento	0
66363	7	Sololá	710	Panajachel	8	Panajachel	10	Octubre	2023-10-15T00:00:00	2024-11-08T08:00:00	1	Precipitación	0
66364	7	Sololá	710	Panajachel	8	Panajachel	10	Octubre	2023-10-15T00:00:00	2024-11-08T08:00:00	8	Radiación solar	291
66365	7	Sololá	710	Panajachel	8	Panajachel	10	Octubre	2023-10-15T00:00:00	2024-11-08T09:00:00	2	Temperatura media	22.4
66366	7	Sololá	710	Panajachel	8	Panajachel	10	Octubre	2023-10-15T00:00:00	2024-11-08T09:00:00	4	Temperatura máxima	22.8
66367	7	Sololá	710	Panajachel	8	Panajachel	10	Octubre	2023-10-15T00:00:00	2024-11-08T09:00:00	3	Temperatura mínima	21.9
66368	7	Sololá	710	Panajachel	8	Panajachel	10	Octubre	2023-10-15T00:00:00	2024-11-08T09:00:00	5	Humedad	78
66369	7	Sololá	710	Panajachel	8	Panajachel	10	Octubre	2023-10-15T00:00:00	2024-11-08T09:00:00	6	Velocidad del viento	1.6
66370	7	Sololá	710	Panajachel	8	Panajachel	10	Octubre	2023-10-15T00:00:00	2024-11-08T09:00:00	7	Dirección del viento	1.61
66371	7	Sololá	710	Panajachel	8	Panajachel	10	Octubre	2023-10-15T00:00:00	2024-11-08T09:00:00	1	Precipitación	0
66372	7	Sololá	710	Panajachel	8	Panajachel	10	Octubre	2023-10-15T00:00:00	2024-11-08T09:00:00	8	Radiación solar	507
66373	7	Sololá	710	Panajachel	8	Panajachel	10	Octubre	2023-10-15T00:00:00	2024-11-08T10:00:00	2	Temperatura media	22.8
66374	7	Sololá	710	Panajachel	8	Panajachel	10	Octubre	2023-10-15T00:00:00	2024-11-08T10:00:00	4	Temperatura máxima	23.1
66375	7	Sololá	710	Panajachel	8	Panajachel	10	Octubre	2023-10-15T00:00:00	2024-11-08T10:00:00	3	Temperatura mínima	22.4
66376	7	Sololá	710	Panajachel	8	Panajachel	10	Octubre	2023-10-15T00:00:00	2024-11-08T10:00:00	5	Humedad	79
66377	7	Sololá	710	Panajachel	8	Panajachel	10	Octubre	2023-10-15T00:00:00	2024-11-08T10:00:00	6	Velocidad del viento	3.2
66378	7	Sololá	710	Panajachel	8	Panajachel	10	Octubre	2023-10-15T00:00:00	2024-11-08T10:00:00	7	Dirección del viento	3.22
66379	7	Sololá	710	Panajachel	8	Panajachel	10	Octubre	2023-10-15T00:00:00	2024-11-08T10:00:00	1	Precipitación	0
66380	7	Sololá	710	Panajachel	8	Panajachel	10	Octubre	2023-10-15T00:00:00	2024-11-08T10:00:00	8	Radiación solar	714
66381	7	Sololá	710	Panajachel	8	Panajachel	10	Octubre	2023-10-15T00:00:00	2024-11-08T11:00:00	2	Temperatura media	22.9
66382	7	Sololá	710	Panajachel	8	Panajachel	10	Octubre	2023-10-15T00:00:00	2024-11-08T11:00:00	4	Temperatura máxima	23.8
66383	7	Sololá	710	Panajachel	8	Panajachel	10	Octubre	2023-10-15T00:00:00	2024-11-08T11:00:00	3	Temperatura mínima	22.6
66384	7	Sololá	710	Panajachel	8	Panajachel	10	Octubre	2023-10-15T00:00:00	2024-11-08T11:00:00	5	Humedad	83
66385	7	Sololá	710	Panajachel	8	Panajachel	10	Octubre	2023-10-15T00:00:00	2024-11-08T11:00:00	6	Velocidad del viento	3.2
66386	7	Sololá	710	Panajachel	8	Panajachel	10	Octubre	2023-10-15T00:00:00	2024-11-08T11:00:00	7	Dirección del viento	3.22
66387	7	Sololá	710	Panajachel	8	Panajachel	10	Octubre	2023-10-15T00:00:00	2024-11-08T11:00:00	1	Precipitación	0
66388	7	Sololá	710	Panajachel	8	Panajachel	10	Octubre	2023-10-15T00:00:00	2024-11-08T11:00:00	8	Radiación solar	660
66389	7	Sololá	710	Panajachel	8	Panajachel	10	Octubre	2023-10-15T00:00:00	2024-11-08T12:00:00	2	Temperatura media	23.4
66390	7	Sololá	710	Panajachel	8	Panajachel	10	Octubre	2023-10-15T00:00:00	2024-11-08T12:00:00	4	Temperatura máxima	23.6
66391	7	Sololá	710	Panajachel	8	Panajachel	10	Octubre	2023-10-15T00:00:00	2024-11-08T12:00:00	3	Temperatura mínima	22.8
66392	7	Sololá	710	Panajachel	8	Panajachel	10	Octubre	2023-10-15T00:00:00	2024-11-08T12:00:00	5	Humedad	82
66393	7	Sololá	710	Panajachel	8	Panajachel	10	Octubre	2023-10-15T00:00:00	2024-11-08T12:00:00	6	Velocidad del viento	3.2
66394	7	Sololá	710	Panajachel	8	Panajachel	10	Octubre	2023-10-15T00:00:00	2024-11-08T12:00:00	7	Dirección del viento	3.22
66395	7	Sololá	710	Panajachel	8	Panajachel	10	Octubre	2023-10-15T00:00:00	2024-11-08T12:00:00	1	Precipitación	0
66396	7	Sololá	710	Panajachel	8	Panajachel	10	Octubre	2023-10-15T00:00:00	2024-11-08T12:00:00	8	Radiación solar	505
66397	7	Sololá	710	Panajachel	8	Panajachel	10	Octubre	2023-10-15T00:00:00	2024-11-08T13:00:00	2	Temperatura media	22.5
66398	7	Sololá	710	Panajachel	8	Panajachel	10	Octubre	2023-10-15T00:00:00	2024-11-08T13:00:00	4	Temperatura máxima	23.4
66399	7	Sololá	710	Panajachel	8	Panajachel	10	Octubre	2023-10-15T00:00:00	2024-11-08T13:00:00	3	Temperatura mínima	22.1
66400	7	Sololá	710	Panajachel	8	Panajachel	10	Octubre	2023-10-15T00:00:00	2024-11-08T13:00:00	5	Humedad	85
66401	7	Sololá	710	Panajachel	8	Panajachel	10	Octubre	2023-10-15T00:00:00	2024-11-08T13:00:00	6	Velocidad del viento	1.6
66402	7	Sololá	710	Panajachel	8	Panajachel	10	Octubre	2023-10-15T00:00:00	2024-11-08T13:00:00	7	Dirección del viento	1.61
66403	7	Sololá	710	Panajachel	8	Panajachel	10	Octubre	2023-10-15T00:00:00	2024-11-08T13:00:00	1	Precipitación	0
66404	7	Sololá	710	Panajachel	8	Panajachel	10	Octubre	2023-10-15T00:00:00	2024-11-08T13:00:00	8	Radiación solar	216
66405	7	Sololá	710	Panajachel	8	Panajachel	10	Octubre	2023-10-15T00:00:00	2024-11-08T14:00:00	2	Temperatura media	22.8
66406	7	Sololá	710	Panajachel	8	Panajachel	10	Octubre	2023-10-15T00:00:00	2024-11-08T14:00:00	4	Temperatura máxima	22.8
66407	7	Sololá	710	Panajachel	8	Panajachel	10	Octubre	2023-10-15T00:00:00	2024-11-08T14:00:00	3	Temperatura mínima	22.2
66408	7	Sololá	710	Panajachel	8	Panajachel	10	Octubre	2023-10-15T00:00:00	2024-11-08T14:00:00	5	Humedad	87
66409	7	Sololá	710	Panajachel	8	Panajachel	10	Octubre	2023-10-15T00:00:00	2024-11-08T14:00:00	6	Velocidad del viento	3.2
66410	7	Sololá	710	Panajachel	8	Panajachel	10	Octubre	2023-10-15T00:00:00	2024-11-08T14:00:00	7	Dirección del viento	3.22
66411	7	Sololá	710	Panajachel	8	Panajachel	10	Octubre	2023-10-15T00:00:00	2024-11-08T14:00:00	1	Precipitación	0
66412	7	Sololá	710	Panajachel	8	Panajachel	10	Octubre	2023-10-15T00:00:00	2024-11-08T14:00:00	8	Radiación solar	328
66413	7	Sololá	710	Panajachel	8	Panajachel	10	Octubre	2023-10-15T00:00:00	2024-11-08T15:00:00	2	Temperatura media	21.6
66414	7	Sololá	710	Panajachel	8	Panajachel	10	Octubre	2023-10-15T00:00:00	2024-11-08T15:00:00	4	Temperatura máxima	22.9
66415	7	Sololá	710	Panajachel	8	Panajachel	10	Octubre	2023-10-15T00:00:00	2024-11-08T15:00:00	3	Temperatura mínima	21.6
66416	7	Sololá	710	Panajachel	8	Panajachel	10	Octubre	2023-10-15T00:00:00	2024-11-08T15:00:00	5	Humedad	88
66417	7	Sololá	710	Panajachel	8	Panajachel	10	Octubre	2023-10-15T00:00:00	2024-11-08T15:00:00	6	Velocidad del viento	4.8
66418	7	Sololá	710	Panajachel	8	Panajachel	10	Octubre	2023-10-15T00:00:00	2024-11-08T15:00:00	7	Dirección del viento	4.83
66419	7	Sololá	710	Panajachel	8	Panajachel	10	Octubre	2023-10-15T00:00:00	2024-11-08T15:00:00	1	Precipitación	0
66420	7	Sololá	710	Panajachel	8	Panajachel	10	Octubre	2023-10-15T00:00:00	2024-11-08T15:00:00	8	Radiación solar	326
66421	7	Sololá	710	Panajachel	8	Panajachel	10	Octubre	2023-10-15T00:00:00	2024-11-08T16:00:00	2	Temperatura media	20.3
66422	7	Sololá	710	Panajachel	8	Panajachel	10	Octubre	2023-10-15T00:00:00	2024-11-08T16:00:00	4	Temperatura máxima	21.6
66423	7	Sololá	710	Panajachel	8	Panajachel	10	Octubre	2023-10-15T00:00:00	2024-11-08T16:00:00	3	Temperatura mínima	20.3
66424	7	Sololá	710	Panajachel	8	Panajachel	10	Octubre	2023-10-15T00:00:00	2024-11-08T16:00:00	5	Humedad	94
66425	7	Sololá	710	Panajachel	8	Panajachel	10	Octubre	2023-10-15T00:00:00	2024-11-08T16:00:00	6	Velocidad del viento	3.2
66426	7	Sololá	710	Panajachel	8	Panajachel	10	Octubre	2023-10-15T00:00:00	2024-11-08T16:00:00	7	Dirección del viento	3.22
66427	7	Sololá	710	Panajachel	8	Panajachel	10	Octubre	2023-10-15T00:00:00	2024-11-08T16:00:00	1	Precipitación	2.2
66428	7	Sololá	710	Panajachel	8	Panajachel	10	Octubre	2023-10-15T00:00:00	2024-11-08T16:00:00	8	Radiación solar	100
66429	7	Sololá	710	Panajachel	8	Panajachel	10	Octubre	2023-10-15T00:00:00	2024-11-08T17:00:00	2	Temperatura media	20.1
66430	7	Sololá	710	Panajachel	8	Panajachel	10	Octubre	2023-10-15T00:00:00	2024-11-08T17:00:00	4	Temperatura máxima	20.3
66431	7	Sololá	710	Panajachel	8	Panajachel	10	Octubre	2023-10-15T00:00:00	2024-11-08T17:00:00	3	Temperatura mínima	20.1
66432	7	Sololá	710	Panajachel	8	Panajachel	10	Octubre	2023-10-15T00:00:00	2024-11-08T17:00:00	5	Humedad	95
66433	7	Sololá	710	Panajachel	8	Panajachel	10	Octubre	2023-10-15T00:00:00	2024-11-08T17:00:00	6	Velocidad del viento	0
66434	7	Sololá	710	Panajachel	8	Panajachel	10	Octubre	2023-10-15T00:00:00	2024-11-08T17:00:00	7	Dirección del viento	0
66435	7	Sololá	710	Panajachel	8	Panajachel	10	Octubre	2023-10-15T00:00:00	2024-11-08T17:00:00	1	Precipitación	0
66436	7	Sololá	710	Panajachel	8	Panajachel	10	Octubre	2023-10-15T00:00:00	2024-11-08T17:00:00	8	Radiación solar	47
66437	7	Sololá	710	Panajachel	8	Panajachel	10	Octubre	2023-10-15T00:00:00	2024-11-08T18:00:00	2	Temperatura media	19.6
66438	7	Sololá	710	Panajachel	8	Panajachel	10	Octubre	2023-10-15T00:00:00	2024-11-08T18:00:00	4	Temperatura máxima	20.2
66439	7	Sololá	710	Panajachel	8	Panajachel	10	Octubre	2023-10-15T00:00:00	2024-11-08T18:00:00	3	Temperatura mínima	19.6
66440	7	Sololá	710	Panajachel	8	Panajachel	10	Octubre	2023-10-15T00:00:00	2024-11-08T18:00:00	5	Humedad	95
66441	7	Sololá	710	Panajachel	8	Panajachel	10	Octubre	2023-10-15T00:00:00	2024-11-08T18:00:00	6	Velocidad del viento	1.6
66442	7	Sololá	710	Panajachel	8	Panajachel	10	Octubre	2023-10-15T00:00:00	2024-11-08T18:00:00	7	Dirección del viento	1.61
66443	7	Sololá	710	Panajachel	8	Panajachel	10	Octubre	2023-10-15T00:00:00	2024-11-08T18:00:00	1	Precipitación	0
66444	7	Sololá	710	Panajachel	8	Panajachel	10	Octubre	2023-10-15T00:00:00	2024-11-08T18:00:00	8	Radiación solar	3
66445	7	Sololá	710	Panajachel	8	Panajachel	10	Octubre	2023-10-15T00:00:00	2024-11-08T19:00:00	2	Temperatura media	19.6
66446	7	Sololá	710	Panajachel	8	Panajachel	10	Octubre	2023-10-15T00:00:00	2024-11-08T19:00:00	4	Temperatura máxima	19.7
66447	7	Sololá	710	Panajachel	8	Panajachel	10	Octubre	2023-10-15T00:00:00	2024-11-08T19:00:00	3	Temperatura mínima	19.6
66448	7	Sololá	710	Panajachel	8	Panajachel	10	Octubre	2023-10-15T00:00:00	2024-11-08T19:00:00	5	Humedad	95
66449	7	Sololá	710	Panajachel	8	Panajachel	10	Octubre	2023-10-15T00:00:00	2024-11-08T19:00:00	6	Velocidad del viento	1.6
66450	7	Sololá	710	Panajachel	8	Panajachel	10	Octubre	2023-10-15T00:00:00	2024-11-08T19:00:00	7	Dirección del viento	1.61
66451	7	Sololá	710	Panajachel	8	Panajachel	10	Octubre	2023-10-15T00:00:00	2024-11-08T19:00:00	1	Precipitación	0
66452	7	Sololá	710	Panajachel	8	Panajachel	10	Octubre	2023-10-15T00:00:00	2024-11-08T19:00:00	8	Radiación solar	0
66453	7	Sololá	710	Panajachel	8	Panajachel	10	Octubre	2023-10-15T00:00:00	2024-11-08T20:00:00	2	Temperatura media	19.4
66454	7	Sololá	710	Panajachel	8	Panajachel	10	Octubre	2023-10-15T00:00:00	2024-11-08T20:00:00	4	Temperatura máxima	19.6
66455	7	Sololá	710	Panajachel	8	Panajachel	10	Octubre	2023-10-15T00:00:00	2024-11-08T20:00:00	3	Temperatura mínima	19.4
66456	7	Sololá	710	Panajachel	8	Panajachel	10	Octubre	2023-10-15T00:00:00	2024-11-08T20:00:00	5	Humedad	96
66457	7	Sololá	710	Panajachel	8	Panajachel	10	Octubre	2023-10-15T00:00:00	2024-11-08T20:00:00	6	Velocidad del viento	0
66458	7	Sololá	710	Panajachel	8	Panajachel	10	Octubre	2023-10-15T00:00:00	2024-11-08T20:00:00	7	Dirección del viento	0
66459	7	Sololá	710	Panajachel	8	Panajachel	10	Octubre	2023-10-15T00:00:00	2024-11-08T20:00:00	1	Precipitación	0
66460	7	Sololá	710	Panajachel	8	Panajachel	10	Octubre	2023-10-15T00:00:00	2024-11-08T20:00:00	8	Radiación solar	0
66461	7	Sololá	710	Panajachel	8	Panajachel	10	Octubre	2023-10-15T00:00:00	2024-11-08T21:00:00	2	Temperatura media	19.1
66462	7	Sololá	710	Panajachel	8	Panajachel	10	Octubre	2023-10-15T00:00:00	2024-11-08T21:00:00	4	Temperatura máxima	19.4
66463	7	Sololá	710	Panajachel	8	Panajachel	10	Octubre	2023-10-15T00:00:00	2024-11-08T21:00:00	3	Temperatura mínima	19
66464	7	Sololá	710	Panajachel	8	Panajachel	10	Octubre	2023-10-15T00:00:00	2024-11-08T21:00:00	5	Humedad	96
66465	7	Sololá	710	Panajachel	8	Panajachel	10	Octubre	2023-10-15T00:00:00	2024-11-08T21:00:00	6	Velocidad del viento	0
66466	7	Sololá	710	Panajachel	8	Panajachel	10	Octubre	2023-10-15T00:00:00	2024-11-08T21:00:00	7	Dirección del viento	0
66467	7	Sololá	710	Panajachel	8	Panajachel	10	Octubre	2023-10-15T00:00:00	2024-11-08T21:00:00	1	Precipitación	0
66468	7	Sololá	710	Panajachel	8	Panajachel	10	Octubre	2023-10-15T00:00:00	2024-11-08T21:00:00	8	Radiación solar	0
66469	7	Sololá	710	Panajachel	8	Panajachel	10	Octubre	2023-10-15T00:00:00	2024-11-08T22:00:00	2	Temperatura media	18.7
66470	7	Sololá	710	Panajachel	8	Panajachel	10	Octubre	2023-10-15T00:00:00	2024-11-08T22:00:00	4	Temperatura máxima	19.1
66471	7	Sololá	710	Panajachel	8	Panajachel	10	Octubre	2023-10-15T00:00:00	2024-11-08T22:00:00	3	Temperatura mínima	18.7
66472	7	Sololá	710	Panajachel	8	Panajachel	10	Octubre	2023-10-15T00:00:00	2024-11-08T22:00:00	5	Humedad	95
66473	7	Sololá	710	Panajachel	8	Panajachel	10	Octubre	2023-10-15T00:00:00	2024-11-08T22:00:00	6	Velocidad del viento	1.6
66474	7	Sololá	710	Panajachel	8	Panajachel	10	Octubre	2023-10-15T00:00:00	2024-11-08T22:00:00	7	Dirección del viento	1.61
66475	7	Sololá	710	Panajachel	8	Panajachel	10	Octubre	2023-10-15T00:00:00	2024-11-08T22:00:00	1	Precipitación	0
66476	7	Sololá	710	Panajachel	8	Panajachel	10	Octubre	2023-10-15T00:00:00	2024-11-08T22:00:00	8	Radiación solar	0
66477	7	Sololá	710	Panajachel	8	Panajachel	10	Octubre	2023-10-15T00:00:00	2024-11-08T23:00:00	2	Temperatura media	17.8
66478	7	Sololá	710	Panajachel	8	Panajachel	10	Octubre	2023-10-15T00:00:00	2024-11-08T23:00:00	4	Temperatura máxima	18.7
66479	7	Sololá	710	Panajachel	8	Panajachel	10	Octubre	2023-10-15T00:00:00	2024-11-08T23:00:00	3	Temperatura mínima	17.8
66480	7	Sololá	710	Panajachel	8	Panajachel	10	Octubre	2023-10-15T00:00:00	2024-11-08T23:00:00	5	Humedad	98
66481	7	Sololá	710	Panajachel	8	Panajachel	10	Octubre	2023-10-15T00:00:00	2024-11-08T23:00:00	6	Velocidad del viento	1.6
66482	7	Sololá	710	Panajachel	8	Panajachel	10	Octubre	2023-10-15T00:00:00	2024-11-08T23:00:00	7	Dirección del viento	1.61
66483	7	Sololá	710	Panajachel	8	Panajachel	10	Octubre	2023-10-15T00:00:00	2024-11-08T23:00:00	1	Precipitación	6.4
66484	7	Sololá	710	Panajachel	8	Panajachel	10	Octubre	2023-10-15T00:00:00	2024-11-08T23:00:00	8	Radiación solar	0
66485	7	Sololá	710	Panajachel	8	Panajachel	10	Octubre	2023-10-16T00:00:00	2024-11-08T00:00:00	2	Temperatura media	17.7
66486	7	Sololá	710	Panajachel	8	Panajachel	10	Octubre	2023-10-16T00:00:00	2024-11-08T00:00:00	4	Temperatura máxima	17.9
66487	7	Sololá	710	Panajachel	8	Panajachel	10	Octubre	2023-10-16T00:00:00	2024-11-08T00:00:00	3	Temperatura mínima	17.6
66488	7	Sololá	710	Panajachel	8	Panajachel	10	Octubre	2023-10-16T00:00:00	2024-11-08T00:00:00	5	Humedad	98
66489	7	Sololá	710	Panajachel	8	Panajachel	10	Octubre	2023-10-16T00:00:00	2024-11-08T00:00:00	6	Velocidad del viento	1.6
66490	7	Sololá	710	Panajachel	8	Panajachel	10	Octubre	2023-10-16T00:00:00	2024-11-08T00:00:00	7	Dirección del viento	1.61
66491	7	Sololá	710	Panajachel	8	Panajachel	10	Octubre	2023-10-16T00:00:00	2024-11-08T00:00:00	1	Precipitación	2.2
66492	7	Sololá	710	Panajachel	8	Panajachel	10	Octubre	2023-10-16T00:00:00	2024-11-08T00:00:00	8	Radiación solar	0
66493	7	Sololá	710	Panajachel	8	Panajachel	10	Octubre	2023-10-16T00:00:00	2024-11-08T01:00:00	2	Temperatura media	17.3
66494	7	Sololá	710	Panajachel	8	Panajachel	10	Octubre	2023-10-16T00:00:00	2024-11-08T01:00:00	4	Temperatura máxima	17.7
66495	7	Sololá	710	Panajachel	8	Panajachel	10	Octubre	2023-10-16T00:00:00	2024-11-08T01:00:00	3	Temperatura mínima	17.3
66496	7	Sololá	710	Panajachel	8	Panajachel	10	Octubre	2023-10-16T00:00:00	2024-11-08T01:00:00	5	Humedad	98
66497	7	Sololá	710	Panajachel	8	Panajachel	10	Octubre	2023-10-16T00:00:00	2024-11-08T01:00:00	6	Velocidad del viento	0
66498	7	Sololá	710	Panajachel	8	Panajachel	10	Octubre	2023-10-16T00:00:00	2024-11-08T01:00:00	7	Dirección del viento	0
66499	7	Sololá	710	Panajachel	8	Panajachel	10	Octubre	2023-10-16T00:00:00	2024-11-08T01:00:00	1	Precipitación	0
66500	7	Sololá	710	Panajachel	8	Panajachel	10	Octubre	2023-10-16T00:00:00	2024-11-08T01:00:00	8	Radiación solar	0
66501	7	Sololá	710	Panajachel	8	Panajachel	10	Octubre	2023-10-16T00:00:00	2024-11-08T02:00:00	2	Temperatura media	17.4
66502	7	Sololá	710	Panajachel	8	Panajachel	10	Octubre	2023-10-16T00:00:00	2024-11-08T02:00:00	4	Temperatura máxima	17.7
66503	7	Sololá	710	Panajachel	8	Panajachel	10	Octubre	2023-10-16T00:00:00	2024-11-08T02:00:00	3	Temperatura mínima	16.8
66504	7	Sololá	710	Panajachel	8	Panajachel	10	Octubre	2023-10-16T00:00:00	2024-11-08T02:00:00	5	Humedad	87
66505	7	Sololá	710	Panajachel	8	Panajachel	10	Octubre	2023-10-16T00:00:00	2024-11-08T02:00:00	6	Velocidad del viento	3.2
66506	7	Sololá	710	Panajachel	8	Panajachel	10	Octubre	2023-10-16T00:00:00	2024-11-08T02:00:00	7	Dirección del viento	3.22
66507	7	Sololá	710	Panajachel	8	Panajachel	10	Octubre	2023-10-16T00:00:00	2024-11-08T02:00:00	1	Precipitación	0
66508	7	Sololá	710	Panajachel	8	Panajachel	10	Octubre	2023-10-16T00:00:00	2024-11-08T02:00:00	8	Radiación solar	0
66509	7	Sololá	710	Panajachel	8	Panajachel	10	Octubre	2023-10-16T00:00:00	2024-11-08T03:00:00	2	Temperatura media	16.9
66510	7	Sololá	710	Panajachel	8	Panajachel	10	Octubre	2023-10-16T00:00:00	2024-11-08T03:00:00	4	Temperatura máxima	17.6
66511	7	Sololá	710	Panajachel	8	Panajachel	10	Octubre	2023-10-16T00:00:00	2024-11-08T03:00:00	3	Temperatura mínima	16.7
66512	7	Sololá	710	Panajachel	8	Panajachel	10	Octubre	2023-10-16T00:00:00	2024-11-08T03:00:00	5	Humedad	94
66513	7	Sololá	710	Panajachel	8	Panajachel	10	Octubre	2023-10-16T00:00:00	2024-11-08T03:00:00	6	Velocidad del viento	1.6
66514	7	Sololá	710	Panajachel	8	Panajachel	10	Octubre	2023-10-16T00:00:00	2024-11-08T03:00:00	7	Dirección del viento	1.61
66515	7	Sololá	710	Panajachel	8	Panajachel	10	Octubre	2023-10-16T00:00:00	2024-11-08T03:00:00	1	Precipitación	0
66516	7	Sololá	710	Panajachel	8	Panajachel	10	Octubre	2023-10-16T00:00:00	2024-11-08T03:00:00	8	Radiación solar	0
66517	7	Sololá	710	Panajachel	8	Panajachel	10	Octubre	2023-10-16T00:00:00	2024-11-08T04:00:00	2	Temperatura media	16.2
66518	7	Sololá	710	Panajachel	8	Panajachel	10	Octubre	2023-10-16T00:00:00	2024-11-08T04:00:00	4	Temperatura máxima	16.9
66519	7	Sololá	710	Panajachel	8	Panajachel	10	Octubre	2023-10-16T00:00:00	2024-11-08T04:00:00	3	Temperatura mínima	15.9
66520	7	Sololá	710	Panajachel	8	Panajachel	10	Octubre	2023-10-16T00:00:00	2024-11-08T04:00:00	5	Humedad	93
66521	7	Sololá	710	Panajachel	8	Panajachel	10	Octubre	2023-10-16T00:00:00	2024-11-08T04:00:00	6	Velocidad del viento	1.6
66522	7	Sololá	710	Panajachel	8	Panajachel	10	Octubre	2023-10-16T00:00:00	2024-11-08T04:00:00	7	Dirección del viento	1.61
66523	7	Sololá	710	Panajachel	8	Panajachel	10	Octubre	2023-10-16T00:00:00	2024-11-08T04:00:00	1	Precipitación	0
66524	7	Sololá	710	Panajachel	8	Panajachel	10	Octubre	2023-10-16T00:00:00	2024-11-08T04:00:00	8	Radiación solar	0
66525	7	Sololá	710	Panajachel	8	Panajachel	10	Octubre	2023-10-16T00:00:00	2024-11-08T05:00:00	2	Temperatura media	16.6
66526	7	Sololá	710	Panajachel	8	Panajachel	10	Octubre	2023-10-16T00:00:00	2024-11-08T05:00:00	4	Temperatura máxima	17.4
66527	7	Sololá	710	Panajachel	8	Panajachel	10	Octubre	2023-10-16T00:00:00	2024-11-08T05:00:00	3	Temperatura mínima	16
66528	7	Sololá	710	Panajachel	8	Panajachel	10	Octubre	2023-10-16T00:00:00	2024-11-08T05:00:00	5	Humedad	91
66529	7	Sololá	710	Panajachel	8	Panajachel	10	Octubre	2023-10-16T00:00:00	2024-11-08T05:00:00	6	Velocidad del viento	1.6
66530	7	Sololá	710	Panajachel	8	Panajachel	10	Octubre	2023-10-16T00:00:00	2024-11-08T05:00:00	7	Dirección del viento	1.61
66531	7	Sololá	710	Panajachel	8	Panajachel	10	Octubre	2023-10-16T00:00:00	2024-11-08T05:00:00	1	Precipitación	0
66532	7	Sololá	710	Panajachel	8	Panajachel	10	Octubre	2023-10-16T00:00:00	2024-11-08T05:00:00	8	Radiación solar	0
66533	7	Sololá	710	Panajachel	8	Panajachel	10	Octubre	2023-10-16T00:00:00	2024-11-08T06:00:00	2	Temperatura media	17.4
66534	7	Sololá	710	Panajachel	8	Panajachel	10	Octubre	2023-10-16T00:00:00	2024-11-08T06:00:00	4	Temperatura máxima	17.5
66535	7	Sololá	710	Panajachel	8	Panajachel	10	Octubre	2023-10-16T00:00:00	2024-11-08T06:00:00	3	Temperatura mínima	16.6
66536	7	Sololá	710	Panajachel	8	Panajachel	10	Octubre	2023-10-16T00:00:00	2024-11-08T06:00:00	5	Humedad	86
66537	7	Sololá	710	Panajachel	8	Panajachel	10	Octubre	2023-10-16T00:00:00	2024-11-08T06:00:00	6	Velocidad del viento	1.6
66538	7	Sololá	710	Panajachel	8	Panajachel	10	Octubre	2023-10-16T00:00:00	2024-11-08T06:00:00	7	Dirección del viento	1.61
66539	7	Sololá	710	Panajachel	8	Panajachel	10	Octubre	2023-10-16T00:00:00	2024-11-08T06:00:00	1	Precipitación	0
66540	7	Sololá	710	Panajachel	8	Panajachel	10	Octubre	2023-10-16T00:00:00	2024-11-08T06:00:00	8	Radiación solar	0
66541	7	Sololá	710	Panajachel	8	Panajachel	10	Octubre	2023-10-16T00:00:00	2024-11-08T07:00:00	2	Temperatura media	17.8
66542	7	Sololá	710	Panajachel	8	Panajachel	10	Octubre	2023-10-16T00:00:00	2024-11-08T07:00:00	4	Temperatura máxima	17.8
66543	7	Sololá	710	Panajachel	8	Panajachel	10	Octubre	2023-10-16T00:00:00	2024-11-08T07:00:00	3	Temperatura mínima	16.9
66544	7	Sololá	710	Panajachel	8	Panajachel	10	Octubre	2023-10-16T00:00:00	2024-11-08T07:00:00	5	Humedad	90
66545	7	Sololá	710	Panajachel	8	Panajachel	10	Octubre	2023-10-16T00:00:00	2024-11-08T07:00:00	6	Velocidad del viento	0
66546	7	Sololá	710	Panajachel	8	Panajachel	10	Octubre	2023-10-16T00:00:00	2024-11-08T07:00:00	7	Dirección del viento	0
66547	7	Sololá	710	Panajachel	8	Panajachel	10	Octubre	2023-10-16T00:00:00	2024-11-08T07:00:00	1	Precipitación	0
66548	7	Sololá	710	Panajachel	8	Panajachel	10	Octubre	2023-10-16T00:00:00	2024-11-08T07:00:00	8	Radiación solar	46
66549	7	Sololá	710	Panajachel	8	Panajachel	10	Octubre	2023-10-16T00:00:00	2024-11-08T08:00:00	2	Temperatura media	20.7
66550	7	Sololá	710	Panajachel	8	Panajachel	10	Octubre	2023-10-16T00:00:00	2024-11-08T08:00:00	4	Temperatura máxima	20.7
66551	7	Sololá	710	Panajachel	8	Panajachel	10	Octubre	2023-10-16T00:00:00	2024-11-08T08:00:00	3	Temperatura mínima	17.8
66552	7	Sololá	710	Panajachel	8	Panajachel	10	Octubre	2023-10-16T00:00:00	2024-11-08T08:00:00	5	Humedad	82
66553	7	Sololá	710	Panajachel	8	Panajachel	10	Octubre	2023-10-16T00:00:00	2024-11-08T08:00:00	6	Velocidad del viento	1.6
66554	7	Sololá	710	Panajachel	8	Panajachel	10	Octubre	2023-10-16T00:00:00	2024-11-08T08:00:00	7	Dirección del viento	1.61
66555	7	Sololá	710	Panajachel	8	Panajachel	10	Octubre	2023-10-16T00:00:00	2024-11-08T08:00:00	1	Precipitación	0
66556	7	Sololá	710	Panajachel	8	Panajachel	10	Octubre	2023-10-16T00:00:00	2024-11-08T08:00:00	8	Radiación solar	227
66557	7	Sololá	710	Panajachel	8	Panajachel	10	Octubre	2023-10-16T00:00:00	2024-11-08T09:00:00	2	Temperatura media	21.9
66558	7	Sololá	710	Panajachel	8	Panajachel	10	Octubre	2023-10-16T00:00:00	2024-11-08T09:00:00	4	Temperatura máxima	21.9
66559	7	Sololá	710	Panajachel	8	Panajachel	10	Octubre	2023-10-16T00:00:00	2024-11-08T09:00:00	3	Temperatura mínima	20.4
66560	7	Sololá	710	Panajachel	8	Panajachel	10	Octubre	2023-10-16T00:00:00	2024-11-08T09:00:00	5	Humedad	77
66561	7	Sololá	710	Panajachel	8	Panajachel	10	Octubre	2023-10-16T00:00:00	2024-11-08T09:00:00	6	Velocidad del viento	3.2
66562	7	Sololá	710	Panajachel	8	Panajachel	10	Octubre	2023-10-16T00:00:00	2024-11-08T09:00:00	7	Dirección del viento	3.22
66563	7	Sololá	710	Panajachel	8	Panajachel	10	Octubre	2023-10-16T00:00:00	2024-11-08T09:00:00	1	Precipitación	0
66564	7	Sololá	710	Panajachel	8	Panajachel	10	Octubre	2023-10-16T00:00:00	2024-11-08T09:00:00	8	Radiación solar	410
66565	7	Sololá	710	Panajachel	8	Panajachel	10	Octubre	2023-10-16T00:00:00	2024-11-08T10:00:00	2	Temperatura media	24
66566	7	Sololá	710	Panajachel	8	Panajachel	10	Octubre	2023-10-16T00:00:00	2024-11-08T10:00:00	4	Temperatura máxima	24.3
66567	7	Sololá	710	Panajachel	8	Panajachel	10	Octubre	2023-10-16T00:00:00	2024-11-08T10:00:00	3	Temperatura mínima	21.8
66568	7	Sololá	710	Panajachel	8	Panajachel	10	Octubre	2023-10-16T00:00:00	2024-11-08T10:00:00	5	Humedad	65
66569	7	Sololá	710	Panajachel	8	Panajachel	10	Octubre	2023-10-16T00:00:00	2024-11-08T10:00:00	6	Velocidad del viento	4.8
66570	7	Sololá	710	Panajachel	8	Panajachel	10	Octubre	2023-10-16T00:00:00	2024-11-08T10:00:00	7	Dirección del viento	4.83
66571	7	Sololá	710	Panajachel	8	Panajachel	10	Octubre	2023-10-16T00:00:00	2024-11-08T10:00:00	1	Precipitación	0
66572	7	Sololá	710	Panajachel	8	Panajachel	10	Octubre	2023-10-16T00:00:00	2024-11-08T10:00:00	8	Radiación solar	624
66573	7	Sololá	710	Panajachel	8	Panajachel	10	Octubre	2023-10-16T00:00:00	2024-11-08T11:00:00	2	Temperatura media	23.3
66574	7	Sololá	710	Panajachel	8	Panajachel	10	Octubre	2023-10-16T00:00:00	2024-11-08T11:00:00	4	Temperatura máxima	24.1
66575	7	Sololá	710	Panajachel	8	Panajachel	10	Octubre	2023-10-16T00:00:00	2024-11-08T11:00:00	3	Temperatura mínima	23.3
66576	7	Sololá	710	Panajachel	8	Panajachel	10	Octubre	2023-10-16T00:00:00	2024-11-08T11:00:00	5	Humedad	68
66577	7	Sololá	710	Panajachel	8	Panajachel	10	Octubre	2023-10-16T00:00:00	2024-11-08T11:00:00	6	Velocidad del viento	6.4
66578	7	Sololá	710	Panajachel	8	Panajachel	10	Octubre	2023-10-16T00:00:00	2024-11-08T11:00:00	7	Dirección del viento	6.44
66579	7	Sololá	710	Panajachel	8	Panajachel	10	Octubre	2023-10-16T00:00:00	2024-11-08T11:00:00	1	Precipitación	0
66580	7	Sololá	710	Panajachel	8	Panajachel	10	Octubre	2023-10-16T00:00:00	2024-11-08T11:00:00	8	Radiación solar	395
66581	7	Sololá	710	Panajachel	8	Panajachel	10	Octubre	2023-10-16T00:00:00	2024-11-08T12:00:00	2	Temperatura media	24.9
66582	7	Sololá	710	Panajachel	8	Panajachel	10	Octubre	2023-10-16T00:00:00	2024-11-08T12:00:00	4	Temperatura máxima	24.9
66583	7	Sololá	710	Panajachel	8	Panajachel	10	Octubre	2023-10-16T00:00:00	2024-11-08T12:00:00	3	Temperatura mínima	23.3
66584	7	Sololá	710	Panajachel	8	Panajachel	10	Octubre	2023-10-16T00:00:00	2024-11-08T12:00:00	5	Humedad	63
66585	7	Sololá	710	Panajachel	8	Panajachel	10	Octubre	2023-10-16T00:00:00	2024-11-08T12:00:00	6	Velocidad del viento	8
66586	7	Sololá	710	Panajachel	8	Panajachel	10	Octubre	2023-10-16T00:00:00	2024-11-08T12:00:00	7	Dirección del viento	8.05
66587	7	Sololá	710	Panajachel	8	Panajachel	10	Octubre	2023-10-16T00:00:00	2024-11-08T12:00:00	1	Precipitación	0
66588	7	Sololá	710	Panajachel	8	Panajachel	10	Octubre	2023-10-16T00:00:00	2024-11-08T12:00:00	8	Radiación solar	629
66589	7	Sololá	710	Panajachel	8	Panajachel	10	Octubre	2023-10-16T00:00:00	2024-11-08T13:00:00	2	Temperatura media	24.2
66590	7	Sololá	710	Panajachel	8	Panajachel	10	Octubre	2023-10-16T00:00:00	2024-11-08T13:00:00	4	Temperatura máxima	25.2
66591	7	Sololá	710	Panajachel	8	Panajachel	10	Octubre	2023-10-16T00:00:00	2024-11-08T13:00:00	3	Temperatura mínima	24.1
66592	7	Sololá	710	Panajachel	8	Panajachel	10	Octubre	2023-10-16T00:00:00	2024-11-08T13:00:00	5	Humedad	66
66593	7	Sololá	710	Panajachel	8	Panajachel	10	Octubre	2023-10-16T00:00:00	2024-11-08T13:00:00	6	Velocidad del viento	11.3
66594	7	Sololá	710	Panajachel	8	Panajachel	10	Octubre	2023-10-16T00:00:00	2024-11-08T13:00:00	7	Dirección del viento	11.27
66595	7	Sololá	710	Panajachel	8	Panajachel	10	Octubre	2023-10-16T00:00:00	2024-11-08T13:00:00	1	Precipitación	0
66596	7	Sololá	710	Panajachel	8	Panajachel	10	Octubre	2023-10-16T00:00:00	2024-11-08T13:00:00	8	Radiación solar	848
66597	7	Sololá	710	Panajachel	8	Panajachel	10	Octubre	2023-10-16T00:00:00	2024-11-08T14:00:00	2	Temperatura media	23.8
66598	7	Sololá	710	Panajachel	8	Panajachel	10	Octubre	2023-10-16T00:00:00	2024-11-08T14:00:00	4	Temperatura máxima	24.2
66599	7	Sololá	710	Panajachel	8	Panajachel	10	Octubre	2023-10-16T00:00:00	2024-11-08T14:00:00	3	Temperatura mínima	23.6
66600	7	Sololá	710	Panajachel	8	Panajachel	10	Octubre	2023-10-16T00:00:00	2024-11-08T14:00:00	5	Humedad	66
66601	7	Sololá	710	Panajachel	8	Panajachel	10	Octubre	2023-10-16T00:00:00	2024-11-08T14:00:00	6	Velocidad del viento	9.7
66602	7	Sololá	710	Panajachel	8	Panajachel	10	Octubre	2023-10-16T00:00:00	2024-11-08T14:00:00	7	Dirección del viento	9.66
66603	7	Sololá	710	Panajachel	8	Panajachel	10	Octubre	2023-10-16T00:00:00	2024-11-08T14:00:00	1	Precipitación	0
66604	7	Sololá	710	Panajachel	8	Panajachel	10	Octubre	2023-10-16T00:00:00	2024-11-08T14:00:00	8	Radiación solar	428
66605	7	Sololá	710	Panajachel	8	Panajachel	10	Octubre	2023-10-16T00:00:00	2024-11-08T15:00:00	2	Temperatura media	24.1
66606	7	Sololá	710	Panajachel	8	Panajachel	10	Octubre	2023-10-16T00:00:00	2024-11-08T15:00:00	4	Temperatura máxima	24.8
66607	7	Sololá	710	Panajachel	8	Panajachel	10	Octubre	2023-10-16T00:00:00	2024-11-08T15:00:00	3	Temperatura mínima	23.7
66608	7	Sololá	710	Panajachel	8	Panajachel	10	Octubre	2023-10-16T00:00:00	2024-11-08T15:00:00	5	Humedad	65
66609	7	Sololá	710	Panajachel	8	Panajachel	10	Octubre	2023-10-16T00:00:00	2024-11-08T15:00:00	6	Velocidad del viento	8
66610	7	Sololá	710	Panajachel	8	Panajachel	10	Octubre	2023-10-16T00:00:00	2024-11-08T15:00:00	7	Dirección del viento	8.05
66611	7	Sololá	710	Panajachel	8	Panajachel	10	Octubre	2023-10-16T00:00:00	2024-11-08T15:00:00	1	Precipitación	0
66612	7	Sololá	710	Panajachel	8	Panajachel	10	Octubre	2023-10-16T00:00:00	2024-11-08T15:00:00	8	Radiación solar	346
66613	7	Sololá	710	Panajachel	8	Panajachel	10	Octubre	2023-10-16T00:00:00	2024-11-08T16:00:00	2	Temperatura media	23.6
66614	7	Sololá	710	Panajachel	8	Panajachel	10	Octubre	2023-10-16T00:00:00	2024-11-08T16:00:00	4	Temperatura máxima	24.7
66615	7	Sololá	710	Panajachel	8	Panajachel	10	Octubre	2023-10-16T00:00:00	2024-11-08T16:00:00	3	Temperatura mínima	23.6
66616	7	Sololá	710	Panajachel	8	Panajachel	10	Octubre	2023-10-16T00:00:00	2024-11-08T16:00:00	5	Humedad	73
66617	7	Sololá	710	Panajachel	8	Panajachel	10	Octubre	2023-10-16T00:00:00	2024-11-08T16:00:00	6	Velocidad del viento	4.8
66618	7	Sololá	710	Panajachel	8	Panajachel	10	Octubre	2023-10-16T00:00:00	2024-11-08T16:00:00	7	Dirección del viento	4.83
66619	7	Sololá	710	Panajachel	8	Panajachel	10	Octubre	2023-10-16T00:00:00	2024-11-08T16:00:00	1	Precipitación	0
66620	7	Sololá	710	Panajachel	8	Panajachel	10	Octubre	2023-10-16T00:00:00	2024-11-08T16:00:00	8	Radiación solar	329
66621	7	Sololá	710	Panajachel	8	Panajachel	10	Octubre	2023-10-16T00:00:00	2024-11-08T17:00:00	2	Temperatura media	22.4
66622	7	Sololá	710	Panajachel	8	Panajachel	10	Octubre	2023-10-16T00:00:00	2024-11-08T17:00:00	4	Temperatura máxima	24.2
66623	7	Sololá	710	Panajachel	8	Panajachel	10	Octubre	2023-10-16T00:00:00	2024-11-08T17:00:00	3	Temperatura mínima	22.4
66624	7	Sololá	710	Panajachel	8	Panajachel	10	Octubre	2023-10-16T00:00:00	2024-11-08T17:00:00	5	Humedad	68
66625	7	Sololá	710	Panajachel	8	Panajachel	10	Octubre	2023-10-16T00:00:00	2024-11-08T17:00:00	6	Velocidad del viento	4.8
66626	7	Sololá	710	Panajachel	8	Panajachel	10	Octubre	2023-10-16T00:00:00	2024-11-08T17:00:00	7	Dirección del viento	4.83
66627	7	Sololá	710	Panajachel	8	Panajachel	10	Octubre	2023-10-16T00:00:00	2024-11-08T17:00:00	1	Precipitación	0
66628	7	Sololá	710	Panajachel	8	Panajachel	10	Octubre	2023-10-16T00:00:00	2024-11-08T17:00:00	8	Radiación solar	175
66629	7	Sololá	710	Panajachel	8	Panajachel	10	Octubre	2023-10-16T00:00:00	2024-11-08T18:00:00	2	Temperatura media	21.2
66630	7	Sololá	710	Panajachel	8	Panajachel	10	Octubre	2023-10-16T00:00:00	2024-11-08T18:00:00	4	Temperatura máxima	22.3
66631	7	Sololá	710	Panajachel	8	Panajachel	10	Octubre	2023-10-16T00:00:00	2024-11-08T18:00:00	3	Temperatura mínima	21.2
66632	7	Sololá	710	Panajachel	8	Panajachel	10	Octubre	2023-10-16T00:00:00	2024-11-08T18:00:00	5	Humedad	71
66633	7	Sololá	710	Panajachel	8	Panajachel	10	Octubre	2023-10-16T00:00:00	2024-11-08T18:00:00	6	Velocidad del viento	6.4
66634	7	Sololá	710	Panajachel	8	Panajachel	10	Octubre	2023-10-16T00:00:00	2024-11-08T18:00:00	7	Dirección del viento	6.44
66635	7	Sololá	710	Panajachel	8	Panajachel	10	Octubre	2023-10-16T00:00:00	2024-11-08T18:00:00	1	Precipitación	0
66636	7	Sololá	710	Panajachel	8	Panajachel	10	Octubre	2023-10-16T00:00:00	2024-11-08T18:00:00	8	Radiación solar	7
66637	7	Sololá	710	Panajachel	8	Panajachel	10	Octubre	2023-10-16T00:00:00	2024-11-08T19:00:00	2	Temperatura media	20.7
66638	7	Sololá	710	Panajachel	8	Panajachel	10	Octubre	2023-10-16T00:00:00	2024-11-08T19:00:00	4	Temperatura máxima	21.2
66639	7	Sololá	710	Panajachel	8	Panajachel	10	Octubre	2023-10-16T00:00:00	2024-11-08T19:00:00	3	Temperatura mínima	20.7
66640	7	Sololá	710	Panajachel	8	Panajachel	10	Octubre	2023-10-16T00:00:00	2024-11-08T19:00:00	5	Humedad	71
66641	7	Sololá	710	Panajachel	8	Panajachel	10	Octubre	2023-10-16T00:00:00	2024-11-08T19:00:00	6	Velocidad del viento	3.2
66642	7	Sololá	710	Panajachel	8	Panajachel	10	Octubre	2023-10-16T00:00:00	2024-11-08T19:00:00	7	Dirección del viento	3.22
66643	7	Sololá	710	Panajachel	8	Panajachel	10	Octubre	2023-10-16T00:00:00	2024-11-08T19:00:00	1	Precipitación	0
66644	7	Sololá	710	Panajachel	8	Panajachel	10	Octubre	2023-10-16T00:00:00	2024-11-08T19:00:00	8	Radiación solar	0
66645	7	Sololá	710	Panajachel	8	Panajachel	10	Octubre	2023-10-16T00:00:00	2024-11-08T20:00:00	2	Temperatura media	20.7
66646	7	Sololá	710	Panajachel	8	Panajachel	10	Octubre	2023-10-16T00:00:00	2024-11-08T20:00:00	4	Temperatura máxima	20.8
66647	7	Sololá	710	Panajachel	8	Panajachel	10	Octubre	2023-10-16T00:00:00	2024-11-08T20:00:00	3	Temperatura mínima	20.6
66648	7	Sololá	710	Panajachel	8	Panajachel	10	Octubre	2023-10-16T00:00:00	2024-11-08T20:00:00	5	Humedad	71
66649	7	Sololá	710	Panajachel	8	Panajachel	10	Octubre	2023-10-16T00:00:00	2024-11-08T20:00:00	6	Velocidad del viento	3.2
66650	7	Sololá	710	Panajachel	8	Panajachel	10	Octubre	2023-10-16T00:00:00	2024-11-08T20:00:00	7	Dirección del viento	3.22
66651	7	Sololá	710	Panajachel	8	Panajachel	10	Octubre	2023-10-16T00:00:00	2024-11-08T20:00:00	1	Precipitación	0
66652	7	Sololá	710	Panajachel	8	Panajachel	10	Octubre	2023-10-16T00:00:00	2024-11-08T20:00:00	8	Radiación solar	0
66653	7	Sololá	710	Panajachel	8	Panajachel	10	Octubre	2023-10-16T00:00:00	2024-11-08T21:00:00	2	Temperatura media	20.4
66654	7	Sololá	710	Panajachel	8	Panajachel	10	Octubre	2023-10-16T00:00:00	2024-11-08T21:00:00	4	Temperatura máxima	20.7
66655	7	Sololá	710	Panajachel	8	Panajachel	10	Octubre	2023-10-16T00:00:00	2024-11-08T21:00:00	3	Temperatura mínima	20.3
66656	7	Sololá	710	Panajachel	8	Panajachel	10	Octubre	2023-10-16T00:00:00	2024-11-08T21:00:00	5	Humedad	72
66657	7	Sololá	710	Panajachel	8	Panajachel	10	Octubre	2023-10-16T00:00:00	2024-11-08T21:00:00	6	Velocidad del viento	6.4
66658	7	Sololá	710	Panajachel	8	Panajachel	10	Octubre	2023-10-16T00:00:00	2024-11-08T21:00:00	7	Dirección del viento	6.44
66659	7	Sololá	710	Panajachel	8	Panajachel	10	Octubre	2023-10-16T00:00:00	2024-11-08T21:00:00	1	Precipitación	0
66660	7	Sololá	710	Panajachel	8	Panajachel	10	Octubre	2023-10-16T00:00:00	2024-11-08T21:00:00	8	Radiación solar	0
66661	7	Sololá	710	Panajachel	8	Panajachel	10	Octubre	2023-10-16T00:00:00	2024-11-08T22:00:00	2	Temperatura media	19.9
66662	7	Sololá	710	Panajachel	8	Panajachel	10	Octubre	2023-10-16T00:00:00	2024-11-08T22:00:00	4	Temperatura máxima	20.4
66663	7	Sololá	710	Panajachel	8	Panajachel	10	Octubre	2023-10-16T00:00:00	2024-11-08T22:00:00	3	Temperatura mínima	19.8
66664	7	Sololá	710	Panajachel	8	Panajachel	10	Octubre	2023-10-16T00:00:00	2024-11-08T22:00:00	5	Humedad	74
66665	7	Sololá	710	Panajachel	8	Panajachel	10	Octubre	2023-10-16T00:00:00	2024-11-08T22:00:00	6	Velocidad del viento	3.2
66666	7	Sololá	710	Panajachel	8	Panajachel	10	Octubre	2023-10-16T00:00:00	2024-11-08T22:00:00	7	Dirección del viento	3.22
66667	7	Sololá	710	Panajachel	8	Panajachel	10	Octubre	2023-10-16T00:00:00	2024-11-08T22:00:00	1	Precipitación	0
66668	7	Sololá	710	Panajachel	8	Panajachel	10	Octubre	2023-10-16T00:00:00	2024-11-08T22:00:00	8	Radiación solar	0
66669	7	Sololá	710	Panajachel	8	Panajachel	10	Octubre	2023-10-16T00:00:00	2024-11-08T23:00:00	2	Temperatura media	19.7
66670	7	Sololá	710	Panajachel	8	Panajachel	10	Octubre	2023-10-16T00:00:00	2024-11-08T23:00:00	4	Temperatura máxima	20.1
66671	7	Sololá	710	Panajachel	8	Panajachel	10	Octubre	2023-10-16T00:00:00	2024-11-08T23:00:00	3	Temperatura mínima	19.7
66672	7	Sololá	710	Panajachel	8	Panajachel	10	Octubre	2023-10-16T00:00:00	2024-11-08T23:00:00	5	Humedad	74
66673	7	Sololá	710	Panajachel	8	Panajachel	10	Octubre	2023-10-16T00:00:00	2024-11-08T23:00:00	6	Velocidad del viento	8
66674	7	Sololá	710	Panajachel	8	Panajachel	10	Octubre	2023-10-16T00:00:00	2024-11-08T23:00:00	7	Dirección del viento	8.05
66675	7	Sololá	710	Panajachel	8	Panajachel	10	Octubre	2023-10-16T00:00:00	2024-11-08T23:00:00	1	Precipitación	0
66676	7	Sololá	710	Panajachel	8	Panajachel	10	Octubre	2023-10-16T00:00:00	2024-11-08T23:00:00	8	Radiación solar	0
66677	7	Sololá	710	Panajachel	8	Panajachel	10	Octubre	2023-10-17T00:00:00	2024-11-08T00:00:00	2	Temperatura media	19.2
66678	7	Sololá	710	Panajachel	8	Panajachel	10	Octubre	2023-10-17T00:00:00	2024-11-08T00:00:00	4	Temperatura máxima	19.8
66679	7	Sololá	710	Panajachel	8	Panajachel	10	Octubre	2023-10-17T00:00:00	2024-11-08T00:00:00	3	Temperatura mínima	19.2
66680	7	Sololá	710	Panajachel	8	Panajachel	10	Octubre	2023-10-17T00:00:00	2024-11-08T00:00:00	5	Humedad	74
66681	7	Sololá	710	Panajachel	8	Panajachel	10	Octubre	2023-10-17T00:00:00	2024-11-08T00:00:00	6	Velocidad del viento	3.2
66682	7	Sololá	710	Panajachel	8	Panajachel	10	Octubre	2023-10-17T00:00:00	2024-11-08T00:00:00	7	Dirección del viento	3.22
66683	7	Sololá	710	Panajachel	8	Panajachel	10	Octubre	2023-10-17T00:00:00	2024-11-08T00:00:00	1	Precipitación	0
66684	7	Sololá	710	Panajachel	8	Panajachel	10	Octubre	2023-10-17T00:00:00	2024-11-08T00:00:00	8	Radiación solar	0
66685	7	Sololá	710	Panajachel	8	Panajachel	10	Octubre	2023-10-17T00:00:00	2024-11-08T01:00:00	2	Temperatura media	18.8
66686	7	Sololá	710	Panajachel	8	Panajachel	10	Octubre	2023-10-17T00:00:00	2024-11-08T01:00:00	4	Temperatura máxima	19.2
66687	7	Sololá	710	Panajachel	8	Panajachel	10	Octubre	2023-10-17T00:00:00	2024-11-08T01:00:00	3	Temperatura mínima	18.8
66688	7	Sololá	710	Panajachel	8	Panajachel	10	Octubre	2023-10-17T00:00:00	2024-11-08T01:00:00	5	Humedad	74
66689	7	Sololá	710	Panajachel	8	Panajachel	10	Octubre	2023-10-17T00:00:00	2024-11-08T01:00:00	6	Velocidad del viento	3.2
66690	7	Sololá	710	Panajachel	8	Panajachel	10	Octubre	2023-10-17T00:00:00	2024-11-08T01:00:00	7	Dirección del viento	3.22
66691	7	Sololá	710	Panajachel	8	Panajachel	10	Octubre	2023-10-17T00:00:00	2024-11-08T01:00:00	1	Precipitación	0
66692	7	Sololá	710	Panajachel	8	Panajachel	10	Octubre	2023-10-17T00:00:00	2024-11-08T01:00:00	8	Radiación solar	0
66693	7	Sololá	710	Panajachel	8	Panajachel	10	Octubre	2023-10-17T00:00:00	2024-11-08T02:00:00	2	Temperatura media	18.4
66694	7	Sololá	710	Panajachel	8	Panajachel	10	Octubre	2023-10-17T00:00:00	2024-11-08T02:00:00	4	Temperatura máxima	18.9
66695	7	Sololá	710	Panajachel	8	Panajachel	10	Octubre	2023-10-17T00:00:00	2024-11-08T02:00:00	3	Temperatura mínima	18.3
66696	7	Sololá	710	Panajachel	8	Panajachel	10	Octubre	2023-10-17T00:00:00	2024-11-08T02:00:00	5	Humedad	74
66697	7	Sololá	710	Panajachel	8	Panajachel	10	Octubre	2023-10-17T00:00:00	2024-11-08T02:00:00	6	Velocidad del viento	6.4
66698	7	Sololá	710	Panajachel	8	Panajachel	10	Octubre	2023-10-17T00:00:00	2024-11-08T02:00:00	7	Dirección del viento	6.44
66699	7	Sololá	710	Panajachel	8	Panajachel	10	Octubre	2023-10-17T00:00:00	2024-11-08T02:00:00	1	Precipitación	0
66700	7	Sololá	710	Panajachel	8	Panajachel	10	Octubre	2023-10-17T00:00:00	2024-11-08T02:00:00	8	Radiación solar	0
66701	7	Sololá	710	Panajachel	8	Panajachel	10	Octubre	2023-10-17T00:00:00	2024-11-08T03:00:00	2	Temperatura media	18.2
66702	7	Sololá	710	Panajachel	8	Panajachel	10	Octubre	2023-10-17T00:00:00	2024-11-08T03:00:00	4	Temperatura máxima	18.4
66703	7	Sololá	710	Panajachel	8	Panajachel	10	Octubre	2023-10-17T00:00:00	2024-11-08T03:00:00	3	Temperatura mínima	18.1
66704	7	Sololá	710	Panajachel	8	Panajachel	10	Octubre	2023-10-17T00:00:00	2024-11-08T03:00:00	5	Humedad	73
66705	7	Sololá	710	Panajachel	8	Panajachel	10	Octubre	2023-10-17T00:00:00	2024-11-08T03:00:00	6	Velocidad del viento	3.2
66706	7	Sololá	710	Panajachel	8	Panajachel	10	Octubre	2023-10-17T00:00:00	2024-11-08T03:00:00	7	Dirección del viento	3.22
66707	7	Sololá	710	Panajachel	8	Panajachel	10	Octubre	2023-10-17T00:00:00	2024-11-08T03:00:00	1	Precipitación	0
66708	7	Sololá	710	Panajachel	8	Panajachel	10	Octubre	2023-10-17T00:00:00	2024-11-08T03:00:00	8	Radiación solar	0
66709	7	Sololá	710	Panajachel	8	Panajachel	10	Octubre	2023-10-17T00:00:00	2024-11-08T04:00:00	2	Temperatura media	18.4
66710	7	Sololá	710	Panajachel	8	Panajachel	10	Octubre	2023-10-17T00:00:00	2024-11-08T04:00:00	4	Temperatura máxima	18.4
66711	7	Sololá	710	Panajachel	8	Panajachel	10	Octubre	2023-10-17T00:00:00	2024-11-08T04:00:00	3	Temperatura mínima	18
66712	7	Sololá	710	Panajachel	8	Panajachel	10	Octubre	2023-10-17T00:00:00	2024-11-08T04:00:00	5	Humedad	71
66713	7	Sololá	710	Panajachel	8	Panajachel	10	Octubre	2023-10-17T00:00:00	2024-11-08T04:00:00	6	Velocidad del viento	4.8
66714	7	Sololá	710	Panajachel	8	Panajachel	10	Octubre	2023-10-17T00:00:00	2024-11-08T04:00:00	7	Dirección del viento	4.83
66715	7	Sololá	710	Panajachel	8	Panajachel	10	Octubre	2023-10-17T00:00:00	2024-11-08T04:00:00	1	Precipitación	0
66716	7	Sololá	710	Panajachel	8	Panajachel	10	Octubre	2023-10-17T00:00:00	2024-11-08T04:00:00	8	Radiación solar	0
66717	7	Sololá	710	Panajachel	8	Panajachel	10	Octubre	2023-10-17T00:00:00	2024-11-08T05:00:00	2	Temperatura media	18.7
66718	7	Sololá	710	Panajachel	8	Panajachel	10	Octubre	2023-10-17T00:00:00	2024-11-08T05:00:00	4	Temperatura máxima	18.9
66719	7	Sololá	710	Panajachel	8	Panajachel	10	Octubre	2023-10-17T00:00:00	2024-11-08T05:00:00	3	Temperatura mínima	18.4
66720	7	Sololá	710	Panajachel	8	Panajachel	10	Octubre	2023-10-17T00:00:00	2024-11-08T05:00:00	5	Humedad	69
66721	7	Sololá	710	Panajachel	8	Panajachel	10	Octubre	2023-10-17T00:00:00	2024-11-08T05:00:00	6	Velocidad del viento	6.4
66722	7	Sololá	710	Panajachel	8	Panajachel	10	Octubre	2023-10-17T00:00:00	2024-11-08T05:00:00	7	Dirección del viento	6.44
66723	7	Sololá	710	Panajachel	8	Panajachel	10	Octubre	2023-10-17T00:00:00	2024-11-08T05:00:00	1	Precipitación	0
66724	7	Sololá	710	Panajachel	8	Panajachel	10	Octubre	2023-10-17T00:00:00	2024-11-08T05:00:00	8	Radiación solar	0
66725	7	Sololá	710	Panajachel	8	Panajachel	10	Octubre	2023-10-17T00:00:00	2024-11-08T06:00:00	2	Temperatura media	18.8
66726	7	Sololá	710	Panajachel	8	Panajachel	10	Octubre	2023-10-17T00:00:00	2024-11-08T06:00:00	4	Temperatura máxima	18.8
66727	7	Sololá	710	Panajachel	8	Panajachel	10	Octubre	2023-10-17T00:00:00	2024-11-08T06:00:00	3	Temperatura mínima	18.5
66728	7	Sololá	710	Panajachel	8	Panajachel	10	Octubre	2023-10-17T00:00:00	2024-11-08T06:00:00	5	Humedad	68
66729	7	Sololá	710	Panajachel	8	Panajachel	10	Octubre	2023-10-17T00:00:00	2024-11-08T06:00:00	6	Velocidad del viento	6.4
66730	7	Sololá	710	Panajachel	8	Panajachel	10	Octubre	2023-10-17T00:00:00	2024-11-08T06:00:00	7	Dirección del viento	6.44
66731	7	Sololá	710	Panajachel	8	Panajachel	10	Octubre	2023-10-17T00:00:00	2024-11-08T06:00:00	1	Precipitación	0
66732	7	Sololá	710	Panajachel	8	Panajachel	10	Octubre	2023-10-17T00:00:00	2024-11-08T06:00:00	8	Radiación solar	0
66733	7	Sololá	710	Panajachel	8	Panajachel	10	Octubre	2023-10-17T00:00:00	2024-11-08T07:00:00	2	Temperatura media	19.9
66734	7	Sololá	710	Panajachel	8	Panajachel	10	Octubre	2023-10-17T00:00:00	2024-11-08T07:00:00	4	Temperatura máxima	20
66735	7	Sololá	710	Panajachel	8	Panajachel	10	Octubre	2023-10-17T00:00:00	2024-11-08T07:00:00	3	Temperatura mínima	18.6
66736	7	Sololá	710	Panajachel	8	Panajachel	10	Octubre	2023-10-17T00:00:00	2024-11-08T07:00:00	5	Humedad	65
66737	7	Sololá	710	Panajachel	8	Panajachel	10	Octubre	2023-10-17T00:00:00	2024-11-08T07:00:00	6	Velocidad del viento	6.4
66738	7	Sololá	710	Panajachel	8	Panajachel	10	Octubre	2023-10-17T00:00:00	2024-11-08T07:00:00	7	Dirección del viento	6.44
66739	7	Sololá	710	Panajachel	8	Panajachel	10	Octubre	2023-10-17T00:00:00	2024-11-08T07:00:00	1	Precipitación	0
66740	7	Sololá	710	Panajachel	8	Panajachel	10	Octubre	2023-10-17T00:00:00	2024-11-08T07:00:00	8	Radiación solar	59
66741	7	Sololá	710	Panajachel	8	Panajachel	10	Octubre	2023-10-17T00:00:00	2024-11-08T08:00:00	2	Temperatura media	20.7
66742	7	Sololá	710	Panajachel	8	Panajachel	10	Octubre	2023-10-17T00:00:00	2024-11-08T08:00:00	4	Temperatura máxima	20.8
66743	7	Sololá	710	Panajachel	8	Panajachel	10	Octubre	2023-10-17T00:00:00	2024-11-08T08:00:00	3	Temperatura mínima	19.8
66744	7	Sololá	710	Panajachel	8	Panajachel	10	Octubre	2023-10-17T00:00:00	2024-11-08T08:00:00	5	Humedad	65
66745	7	Sololá	710	Panajachel	8	Panajachel	10	Octubre	2023-10-17T00:00:00	2024-11-08T08:00:00	6	Velocidad del viento	6.4
66746	7	Sololá	710	Panajachel	8	Panajachel	10	Octubre	2023-10-17T00:00:00	2024-11-08T08:00:00	7	Dirección del viento	6.44
66747	7	Sololá	710	Panajachel	8	Panajachel	10	Octubre	2023-10-17T00:00:00	2024-11-08T08:00:00	1	Precipitación	0
66748	7	Sololá	710	Panajachel	8	Panajachel	10	Octubre	2023-10-17T00:00:00	2024-11-08T08:00:00	8	Radiación solar	252
66749	7	Sololá	710	Panajachel	8	Panajachel	10	Octubre	2023-10-17T00:00:00	2024-11-08T09:00:00	2	Temperatura media	20.7
66750	7	Sololá	710	Panajachel	8	Panajachel	10	Octubre	2023-10-17T00:00:00	2024-11-08T09:00:00	4	Temperatura máxima	20.8
66751	7	Sololá	710	Panajachel	8	Panajachel	10	Octubre	2023-10-17T00:00:00	2024-11-08T09:00:00	3	Temperatura mínima	20.3
66752	7	Sololá	710	Panajachel	8	Panajachel	10	Octubre	2023-10-17T00:00:00	2024-11-08T09:00:00	5	Humedad	66
66753	7	Sololá	710	Panajachel	8	Panajachel	10	Octubre	2023-10-17T00:00:00	2024-11-08T09:00:00	6	Velocidad del viento	9.7
66754	7	Sololá	710	Panajachel	8	Panajachel	10	Octubre	2023-10-17T00:00:00	2024-11-08T09:00:00	7	Dirección del viento	9.66
66755	7	Sololá	710	Panajachel	8	Panajachel	10	Octubre	2023-10-17T00:00:00	2024-11-08T09:00:00	1	Precipitación	0
66756	7	Sololá	710	Panajachel	8	Panajachel	10	Octubre	2023-10-17T00:00:00	2024-11-08T09:00:00	8	Radiación solar	303
66757	7	Sololá	710	Panajachel	8	Panajachel	10	Octubre	2023-10-17T00:00:00	2024-11-08T10:00:00	2	Temperatura media	21.7
66758	7	Sololá	710	Panajachel	8	Panajachel	10	Octubre	2023-10-17T00:00:00	2024-11-08T10:00:00	4	Temperatura máxima	21.7
66759	7	Sololá	710	Panajachel	8	Panajachel	10	Octubre	2023-10-17T00:00:00	2024-11-08T10:00:00	3	Temperatura mínima	20.7
66760	7	Sololá	710	Panajachel	8	Panajachel	10	Octubre	2023-10-17T00:00:00	2024-11-08T10:00:00	5	Humedad	64
66761	7	Sololá	710	Panajachel	8	Panajachel	10	Octubre	2023-10-17T00:00:00	2024-11-08T10:00:00	6	Velocidad del viento	9.7
66762	7	Sololá	710	Panajachel	8	Panajachel	10	Octubre	2023-10-17T00:00:00	2024-11-08T10:00:00	7	Dirección del viento	9.66
66763	7	Sololá	710	Panajachel	8	Panajachel	10	Octubre	2023-10-17T00:00:00	2024-11-08T10:00:00	1	Precipitación	0
66764	7	Sololá	710	Panajachel	8	Panajachel	10	Octubre	2023-10-17T00:00:00	2024-11-08T10:00:00	8	Radiación solar	355
66765	7	Sololá	710	Panajachel	8	Panajachel	10	Octubre	2023-10-17T00:00:00	2024-11-08T11:00:00	2	Temperatura media	21.7
66766	7	Sololá	710	Panajachel	8	Panajachel	10	Octubre	2023-10-17T00:00:00	2024-11-08T11:00:00	4	Temperatura máxima	21.7
66767	7	Sololá	710	Panajachel	8	Panajachel	10	Octubre	2023-10-17T00:00:00	2024-11-08T11:00:00	3	Temperatura mínima	21.5
66768	7	Sololá	710	Panajachel	8	Panajachel	10	Octubre	2023-10-17T00:00:00	2024-11-08T11:00:00	5	Humedad	64
66769	7	Sololá	710	Panajachel	8	Panajachel	10	Octubre	2023-10-17T00:00:00	2024-11-08T11:00:00	6	Velocidad del viento	9.7
66770	7	Sololá	710	Panajachel	8	Panajachel	10	Octubre	2023-10-17T00:00:00	2024-11-08T11:00:00	7	Dirección del viento	9.66
66771	7	Sololá	710	Panajachel	8	Panajachel	10	Octubre	2023-10-17T00:00:00	2024-11-08T11:00:00	1	Precipitación	0
66772	7	Sololá	710	Panajachel	8	Panajachel	10	Octubre	2023-10-17T00:00:00	2024-11-08T11:00:00	8	Radiación solar	345
66773	7	Sololá	710	Panajachel	8	Panajachel	10	Octubre	2023-10-17T00:00:00	2024-11-08T12:00:00	2	Temperatura media	21.9
66774	7	Sololá	710	Panajachel	8	Panajachel	10	Octubre	2023-10-17T00:00:00	2024-11-08T12:00:00	4	Temperatura máxima	23.1
66775	7	Sololá	710	Panajachel	8	Panajachel	10	Octubre	2023-10-17T00:00:00	2024-11-08T12:00:00	3	Temperatura mínima	21.7
66776	7	Sololá	710	Panajachel	8	Panajachel	10	Octubre	2023-10-17T00:00:00	2024-11-08T12:00:00	5	Humedad	64
66777	7	Sololá	710	Panajachel	8	Panajachel	10	Octubre	2023-10-17T00:00:00	2024-11-08T12:00:00	6	Velocidad del viento	11.3
66778	7	Sololá	710	Panajachel	8	Panajachel	10	Octubre	2023-10-17T00:00:00	2024-11-08T12:00:00	7	Dirección del viento	11.27
66779	7	Sololá	710	Panajachel	8	Panajachel	10	Octubre	2023-10-17T00:00:00	2024-11-08T12:00:00	1	Precipitación	0
66780	7	Sololá	710	Panajachel	8	Panajachel	10	Octubre	2023-10-17T00:00:00	2024-11-08T12:00:00	8	Radiación solar	545
66781	7	Sololá	710	Panajachel	8	Panajachel	10	Octubre	2023-10-17T00:00:00	2024-11-08T13:00:00	2	Temperatura media	22.3
66782	7	Sololá	710	Panajachel	8	Panajachel	10	Octubre	2023-10-17T00:00:00	2024-11-08T13:00:00	4	Temperatura máxima	22.3
66783	7	Sololá	710	Panajachel	8	Panajachel	10	Octubre	2023-10-17T00:00:00	2024-11-08T13:00:00	3	Temperatura mínima	21.6
66784	7	Sololá	710	Panajachel	8	Panajachel	10	Octubre	2023-10-17T00:00:00	2024-11-08T13:00:00	5	Humedad	65
66785	7	Sololá	710	Panajachel	8	Panajachel	10	Octubre	2023-10-17T00:00:00	2024-11-08T13:00:00	6	Velocidad del viento	8
66786	7	Sololá	710	Panajachel	8	Panajachel	10	Octubre	2023-10-17T00:00:00	2024-11-08T13:00:00	7	Dirección del viento	8.05
66787	7	Sololá	710	Panajachel	8	Panajachel	10	Octubre	2023-10-17T00:00:00	2024-11-08T13:00:00	1	Precipitación	0
66788	7	Sololá	710	Panajachel	8	Panajachel	10	Octubre	2023-10-17T00:00:00	2024-11-08T13:00:00	8	Radiación solar	229
66789	7	Sololá	710	Panajachel	8	Panajachel	10	Octubre	2023-10-17T00:00:00	2024-11-08T14:00:00	2	Temperatura media	23.6
66790	7	Sololá	710	Panajachel	8	Panajachel	10	Octubre	2023-10-17T00:00:00	2024-11-08T14:00:00	4	Temperatura máxima	23.9
66791	7	Sololá	710	Panajachel	8	Panajachel	10	Octubre	2023-10-17T00:00:00	2024-11-08T14:00:00	3	Temperatura mínima	22.3
66792	7	Sololá	710	Panajachel	8	Panajachel	10	Octubre	2023-10-17T00:00:00	2024-11-08T14:00:00	5	Humedad	62
66793	7	Sololá	710	Panajachel	8	Panajachel	10	Octubre	2023-10-17T00:00:00	2024-11-08T14:00:00	6	Velocidad del viento	9.7
66794	7	Sololá	710	Panajachel	8	Panajachel	10	Octubre	2023-10-17T00:00:00	2024-11-08T14:00:00	7	Dirección del viento	9.66
66795	7	Sololá	710	Panajachel	8	Panajachel	10	Octubre	2023-10-17T00:00:00	2024-11-08T14:00:00	1	Precipitación	0
66796	7	Sololá	710	Panajachel	8	Panajachel	10	Octubre	2023-10-17T00:00:00	2024-11-08T14:00:00	8	Radiación solar	610
66797	7	Sololá	710	Panajachel	8	Panajachel	10	Octubre	2023-10-17T00:00:00	2024-11-08T15:00:00	2	Temperatura media	22.1
66798	7	Sololá	710	Panajachel	8	Panajachel	10	Octubre	2023-10-17T00:00:00	2024-11-08T15:00:00	4	Temperatura máxima	23.6
66799	7	Sololá	710	Panajachel	8	Panajachel	10	Octubre	2023-10-17T00:00:00	2024-11-08T15:00:00	3	Temperatura mínima	22
66800	7	Sololá	710	Panajachel	8	Panajachel	10	Octubre	2023-10-17T00:00:00	2024-11-08T15:00:00	5	Humedad	67
66801	7	Sololá	710	Panajachel	8	Panajachel	10	Octubre	2023-10-17T00:00:00	2024-11-08T15:00:00	6	Velocidad del viento	9.7
66802	7	Sololá	710	Panajachel	8	Panajachel	10	Octubre	2023-10-17T00:00:00	2024-11-08T15:00:00	7	Dirección del viento	9.66
66803	7	Sololá	710	Panajachel	8	Panajachel	10	Octubre	2023-10-17T00:00:00	2024-11-08T15:00:00	1	Precipitación	0
66804	7	Sololá	710	Panajachel	8	Panajachel	10	Octubre	2023-10-17T00:00:00	2024-11-08T15:00:00	8	Radiación solar	215
66805	7	Sololá	710	Panajachel	8	Panajachel	10	Octubre	2023-10-17T00:00:00	2024-11-08T16:00:00	2	Temperatura media	22.1
66806	7	Sololá	710	Panajachel	8	Panajachel	10	Octubre	2023-10-17T00:00:00	2024-11-08T16:00:00	4	Temperatura máxima	22.4
66807	7	Sololá	710	Panajachel	8	Panajachel	10	Octubre	2023-10-17T00:00:00	2024-11-08T16:00:00	3	Temperatura mínima	22.1
66808	7	Sololá	710	Panajachel	8	Panajachel	10	Octubre	2023-10-17T00:00:00	2024-11-08T16:00:00	5	Humedad	67
66809	7	Sololá	710	Panajachel	8	Panajachel	10	Octubre	2023-10-17T00:00:00	2024-11-08T16:00:00	6	Velocidad del viento	11.3
66810	7	Sololá	710	Panajachel	8	Panajachel	10	Octubre	2023-10-17T00:00:00	2024-11-08T16:00:00	7	Dirección del viento	11.27
66811	7	Sololá	710	Panajachel	8	Panajachel	10	Octubre	2023-10-17T00:00:00	2024-11-08T16:00:00	1	Precipitación	0
66812	7	Sololá	710	Panajachel	8	Panajachel	10	Octubre	2023-10-17T00:00:00	2024-11-08T16:00:00	8	Radiación solar	224
66813	7	Sololá	710	Panajachel	8	Panajachel	10	Octubre	2023-10-17T00:00:00	2024-11-08T17:00:00	2	Temperatura media	20.9
66814	7	Sololá	710	Panajachel	8	Panajachel	10	Octubre	2023-10-17T00:00:00	2024-11-08T17:00:00	4	Temperatura máxima	22.2
66815	7	Sololá	710	Panajachel	8	Panajachel	10	Octubre	2023-10-17T00:00:00	2024-11-08T17:00:00	3	Temperatura mínima	20.9
66816	7	Sololá	710	Panajachel	8	Panajachel	10	Octubre	2023-10-17T00:00:00	2024-11-08T17:00:00	5	Humedad	70
66817	7	Sololá	710	Panajachel	8	Panajachel	10	Octubre	2023-10-17T00:00:00	2024-11-08T17:00:00	6	Velocidad del viento	11.3
66818	7	Sololá	710	Panajachel	8	Panajachel	10	Octubre	2023-10-17T00:00:00	2024-11-08T17:00:00	7	Dirección del viento	11.27
66819	7	Sololá	710	Panajachel	8	Panajachel	10	Octubre	2023-10-17T00:00:00	2024-11-08T17:00:00	1	Precipitación	0
66820	7	Sololá	710	Panajachel	8	Panajachel	10	Octubre	2023-10-17T00:00:00	2024-11-08T17:00:00	8	Radiación solar	170
66821	7	Sololá	710	Panajachel	8	Panajachel	10	Octubre	2023-10-17T00:00:00	2024-11-08T18:00:00	2	Temperatura media	19.8
66822	7	Sololá	710	Panajachel	8	Panajachel	10	Octubre	2023-10-17T00:00:00	2024-11-08T18:00:00	4	Temperatura máxima	21
66823	7	Sololá	710	Panajachel	8	Panajachel	10	Octubre	2023-10-17T00:00:00	2024-11-08T18:00:00	3	Temperatura mínima	19.8
66824	7	Sololá	710	Panajachel	8	Panajachel	10	Octubre	2023-10-17T00:00:00	2024-11-08T18:00:00	5	Humedad	73
66825	7	Sololá	710	Panajachel	8	Panajachel	10	Octubre	2023-10-17T00:00:00	2024-11-08T18:00:00	6	Velocidad del viento	12.9
66826	7	Sololá	710	Panajachel	8	Panajachel	10	Octubre	2023-10-17T00:00:00	2024-11-08T18:00:00	7	Dirección del viento	12.87
66827	7	Sololá	710	Panajachel	8	Panajachel	10	Octubre	2023-10-17T00:00:00	2024-11-08T18:00:00	1	Precipitación	0
66828	7	Sololá	710	Panajachel	8	Panajachel	10	Octubre	2023-10-17T00:00:00	2024-11-08T18:00:00	8	Radiación solar	23
66829	7	Sololá	710	Panajachel	8	Panajachel	10	Octubre	2023-10-17T00:00:00	2024-11-08T19:00:00	2	Temperatura media	19.4
66830	7	Sololá	710	Panajachel	8	Panajachel	10	Octubre	2023-10-17T00:00:00	2024-11-08T19:00:00	4	Temperatura máxima	19.8
66831	7	Sololá	710	Panajachel	8	Panajachel	10	Octubre	2023-10-17T00:00:00	2024-11-08T19:00:00	3	Temperatura mínima	19.3
66832	7	Sololá	710	Panajachel	8	Panajachel	10	Octubre	2023-10-17T00:00:00	2024-11-08T19:00:00	5	Humedad	74
66833	7	Sololá	710	Panajachel	8	Panajachel	10	Octubre	2023-10-17T00:00:00	2024-11-08T19:00:00	6	Velocidad del viento	14.5
66834	7	Sololá	710	Panajachel	8	Panajachel	10	Octubre	2023-10-17T00:00:00	2024-11-08T19:00:00	7	Dirección del viento	14.48
66835	7	Sololá	710	Panajachel	8	Panajachel	10	Octubre	2023-10-17T00:00:00	2024-11-08T19:00:00	1	Precipitación	0
66836	7	Sololá	710	Panajachel	8	Panajachel	10	Octubre	2023-10-17T00:00:00	2024-11-08T19:00:00	8	Radiación solar	0
66837	7	Sololá	710	Panajachel	8	Panajachel	10	Octubre	2023-10-17T00:00:00	2024-11-08T20:00:00	2	Temperatura media	19.2
66838	7	Sololá	710	Panajachel	8	Panajachel	10	Octubre	2023-10-17T00:00:00	2024-11-08T20:00:00	4	Temperatura máxima	19.4
66839	7	Sololá	710	Panajachel	8	Panajachel	10	Octubre	2023-10-17T00:00:00	2024-11-08T20:00:00	3	Temperatura mínima	19.2
66840	7	Sololá	710	Panajachel	8	Panajachel	10	Octubre	2023-10-17T00:00:00	2024-11-08T20:00:00	5	Humedad	74
66841	7	Sololá	710	Panajachel	8	Panajachel	10	Octubre	2023-10-17T00:00:00	2024-11-08T20:00:00	6	Velocidad del viento	8
66842	7	Sololá	710	Panajachel	8	Panajachel	10	Octubre	2023-10-17T00:00:00	2024-11-08T20:00:00	7	Dirección del viento	8.05
66843	7	Sololá	710	Panajachel	8	Panajachel	10	Octubre	2023-10-17T00:00:00	2024-11-08T20:00:00	1	Precipitación	0
66844	7	Sololá	710	Panajachel	8	Panajachel	10	Octubre	2023-10-17T00:00:00	2024-11-08T20:00:00	8	Radiación solar	0
66845	7	Sololá	710	Panajachel	8	Panajachel	10	Octubre	2023-10-17T00:00:00	2024-11-08T21:00:00	2	Temperatura media	18.7
66846	7	Sololá	710	Panajachel	8	Panajachel	10	Octubre	2023-10-17T00:00:00	2024-11-08T21:00:00	4	Temperatura máxima	19.3
66847	7	Sololá	710	Panajachel	8	Panajachel	10	Octubre	2023-10-17T00:00:00	2024-11-08T21:00:00	3	Temperatura mínima	18.7
66848	7	Sololá	710	Panajachel	8	Panajachel	10	Octubre	2023-10-17T00:00:00	2024-11-08T21:00:00	5	Humedad	76
66849	7	Sololá	710	Panajachel	8	Panajachel	10	Octubre	2023-10-17T00:00:00	2024-11-08T21:00:00	6	Velocidad del viento	8
66850	7	Sololá	710	Panajachel	8	Panajachel	10	Octubre	2023-10-17T00:00:00	2024-11-08T21:00:00	7	Dirección del viento	8.05
66851	7	Sololá	710	Panajachel	8	Panajachel	10	Octubre	2023-10-17T00:00:00	2024-11-08T21:00:00	1	Precipitación	0
66852	7	Sololá	710	Panajachel	8	Panajachel	10	Octubre	2023-10-17T00:00:00	2024-11-08T21:00:00	8	Radiación solar	0
66853	7	Sololá	710	Panajachel	8	Panajachel	10	Octubre	2023-10-17T00:00:00	2024-11-08T22:00:00	2	Temperatura media	18.4
66854	7	Sololá	710	Panajachel	8	Panajachel	10	Octubre	2023-10-17T00:00:00	2024-11-08T22:00:00	4	Temperatura máxima	18.7
66855	7	Sololá	710	Panajachel	8	Panajachel	10	Octubre	2023-10-17T00:00:00	2024-11-08T22:00:00	3	Temperatura mínima	18.4
66856	7	Sololá	710	Panajachel	8	Panajachel	10	Octubre	2023-10-17T00:00:00	2024-11-08T22:00:00	5	Humedad	76
66857	7	Sololá	710	Panajachel	8	Panajachel	10	Octubre	2023-10-17T00:00:00	2024-11-08T22:00:00	6	Velocidad del viento	11.3
66858	7	Sololá	710	Panajachel	8	Panajachel	10	Octubre	2023-10-17T00:00:00	2024-11-08T22:00:00	7	Dirección del viento	11.27
66859	7	Sololá	710	Panajachel	8	Panajachel	10	Octubre	2023-10-17T00:00:00	2024-11-08T22:00:00	1	Precipitación	0
66860	7	Sololá	710	Panajachel	8	Panajachel	10	Octubre	2023-10-17T00:00:00	2024-11-08T22:00:00	8	Radiación solar	0
66861	7	Sololá	710	Panajachel	8	Panajachel	10	Octubre	2023-10-17T00:00:00	2024-11-08T23:00:00	2	Temperatura media	18.2
66862	7	Sololá	710	Panajachel	8	Panajachel	10	Octubre	2023-10-17T00:00:00	2024-11-08T23:00:00	4	Temperatura máxima	18.5
66863	7	Sololá	710	Panajachel	8	Panajachel	10	Octubre	2023-10-17T00:00:00	2024-11-08T23:00:00	3	Temperatura mínima	18.2
66864	7	Sololá	710	Panajachel	8	Panajachel	10	Octubre	2023-10-17T00:00:00	2024-11-08T23:00:00	5	Humedad	75
66865	7	Sololá	710	Panajachel	8	Panajachel	10	Octubre	2023-10-17T00:00:00	2024-11-08T23:00:00	6	Velocidad del viento	9.7
66866	7	Sololá	710	Panajachel	8	Panajachel	10	Octubre	2023-10-17T00:00:00	2024-11-08T23:00:00	7	Dirección del viento	9.66
66867	7	Sololá	710	Panajachel	8	Panajachel	10	Octubre	2023-10-17T00:00:00	2024-11-08T23:00:00	1	Precipitación	0
66868	7	Sololá	710	Panajachel	8	Panajachel	10	Octubre	2023-10-17T00:00:00	2024-11-08T23:00:00	8	Radiación solar	0
66869	7	Sololá	710	Panajachel	8	Panajachel	10	Octubre	2023-10-18T00:00:00	2024-11-08T00:00:00	2	Temperatura media	18.1
66870	7	Sololá	710	Panajachel	8	Panajachel	10	Octubre	2023-10-18T00:00:00	2024-11-08T00:00:00	4	Temperatura máxima	18.3
66871	7	Sololá	710	Panajachel	8	Panajachel	10	Octubre	2023-10-18T00:00:00	2024-11-08T00:00:00	3	Temperatura mínima	18
66872	7	Sololá	710	Panajachel	8	Panajachel	10	Octubre	2023-10-18T00:00:00	2024-11-08T00:00:00	5	Humedad	75
66873	7	Sololá	710	Panajachel	8	Panajachel	10	Octubre	2023-10-18T00:00:00	2024-11-08T00:00:00	6	Velocidad del viento	3.2
66874	7	Sololá	710	Panajachel	8	Panajachel	10	Octubre	2023-10-18T00:00:00	2024-11-08T00:00:00	7	Dirección del viento	3.22
66875	7	Sololá	710	Panajachel	8	Panajachel	10	Octubre	2023-10-18T00:00:00	2024-11-08T00:00:00	1	Precipitación	0
66876	7	Sololá	710	Panajachel	8	Panajachel	10	Octubre	2023-10-18T00:00:00	2024-11-08T00:00:00	8	Radiación solar	0
66877	7	Sololá	710	Panajachel	8	Panajachel	10	Octubre	2023-10-18T00:00:00	2024-11-08T01:00:00	2	Temperatura media	17.8
66878	7	Sololá	710	Panajachel	8	Panajachel	10	Octubre	2023-10-18T00:00:00	2024-11-08T01:00:00	4	Temperatura máxima	18.2
66879	7	Sololá	710	Panajachel	8	Panajachel	10	Octubre	2023-10-18T00:00:00	2024-11-08T01:00:00	3	Temperatura mínima	17.8
66880	7	Sololá	710	Panajachel	8	Panajachel	10	Octubre	2023-10-18T00:00:00	2024-11-08T01:00:00	5	Humedad	77
66881	7	Sololá	710	Panajachel	8	Panajachel	10	Octubre	2023-10-18T00:00:00	2024-11-08T01:00:00	6	Velocidad del viento	1.6
66882	7	Sololá	710	Panajachel	8	Panajachel	10	Octubre	2023-10-18T00:00:00	2024-11-08T01:00:00	7	Dirección del viento	1.61
66883	7	Sololá	710	Panajachel	8	Panajachel	10	Octubre	2023-10-18T00:00:00	2024-11-08T01:00:00	1	Precipitación	0
66884	7	Sololá	710	Panajachel	8	Panajachel	10	Octubre	2023-10-18T00:00:00	2024-11-08T01:00:00	8	Radiación solar	0
66885	7	Sololá	710	Panajachel	8	Panajachel	10	Octubre	2023-10-18T00:00:00	2024-11-08T02:00:00	2	Temperatura media	17.8
66886	7	Sololá	710	Panajachel	8	Panajachel	10	Octubre	2023-10-18T00:00:00	2024-11-08T02:00:00	4	Temperatura máxima	18.2
66887	7	Sololá	710	Panajachel	8	Panajachel	10	Octubre	2023-10-18T00:00:00	2024-11-08T02:00:00	3	Temperatura mínima	17.8
66888	7	Sololá	710	Panajachel	8	Panajachel	10	Octubre	2023-10-18T00:00:00	2024-11-08T02:00:00	5	Humedad	75
66889	7	Sololá	710	Panajachel	8	Panajachel	10	Octubre	2023-10-18T00:00:00	2024-11-08T02:00:00	6	Velocidad del viento	1.6
66890	7	Sololá	710	Panajachel	8	Panajachel	10	Octubre	2023-10-18T00:00:00	2024-11-08T02:00:00	7	Dirección del viento	1.61
66891	7	Sololá	710	Panajachel	8	Panajachel	10	Octubre	2023-10-18T00:00:00	2024-11-08T02:00:00	1	Precipitación	0
66892	7	Sololá	710	Panajachel	8	Panajachel	10	Octubre	2023-10-18T00:00:00	2024-11-08T02:00:00	8	Radiación solar	0
66893	7	Sololá	710	Panajachel	8	Panajachel	10	Octubre	2023-10-18T00:00:00	2024-11-08T03:00:00	2	Temperatura media	17.6
66894	7	Sololá	710	Panajachel	8	Panajachel	10	Octubre	2023-10-18T00:00:00	2024-11-08T03:00:00	4	Temperatura máxima	18
66895	7	Sololá	710	Panajachel	8	Panajachel	10	Octubre	2023-10-18T00:00:00	2024-11-08T03:00:00	3	Temperatura mínima	17.5
66896	7	Sololá	710	Panajachel	8	Panajachel	10	Octubre	2023-10-18T00:00:00	2024-11-08T03:00:00	5	Humedad	75
66897	7	Sololá	710	Panajachel	8	Panajachel	10	Octubre	2023-10-18T00:00:00	2024-11-08T03:00:00	6	Velocidad del viento	1.6
66898	7	Sololá	710	Panajachel	8	Panajachel	10	Octubre	2023-10-18T00:00:00	2024-11-08T03:00:00	7	Dirección del viento	1.61
66899	7	Sololá	710	Panajachel	8	Panajachel	10	Octubre	2023-10-18T00:00:00	2024-11-08T03:00:00	1	Precipitación	0
66900	7	Sololá	710	Panajachel	8	Panajachel	10	Octubre	2023-10-18T00:00:00	2024-11-08T03:00:00	8	Radiación solar	0
66901	7	Sololá	710	Panajachel	8	Panajachel	10	Octubre	2023-10-18T00:00:00	2024-11-08T04:00:00	2	Temperatura media	17.9
66902	7	Sololá	710	Panajachel	8	Panajachel	10	Octubre	2023-10-18T00:00:00	2024-11-08T04:00:00	4	Temperatura máxima	17.9
66903	7	Sololá	710	Panajachel	8	Panajachel	10	Octubre	2023-10-18T00:00:00	2024-11-08T04:00:00	3	Temperatura mínima	17.6
66904	7	Sololá	710	Panajachel	8	Panajachel	10	Octubre	2023-10-18T00:00:00	2024-11-08T04:00:00	5	Humedad	73
66905	7	Sololá	710	Panajachel	8	Panajachel	10	Octubre	2023-10-18T00:00:00	2024-11-08T04:00:00	6	Velocidad del viento	3.2
66906	7	Sololá	710	Panajachel	8	Panajachel	10	Octubre	2023-10-18T00:00:00	2024-11-08T04:00:00	7	Dirección del viento	3.22
66907	7	Sololá	710	Panajachel	8	Panajachel	10	Octubre	2023-10-18T00:00:00	2024-11-08T04:00:00	1	Precipitación	0
66908	7	Sololá	710	Panajachel	8	Panajachel	10	Octubre	2023-10-18T00:00:00	2024-11-08T04:00:00	8	Radiación solar	0
66909	7	Sololá	710	Panajachel	8	Panajachel	10	Octubre	2023-10-18T00:00:00	2024-11-08T05:00:00	2	Temperatura media	17.3
66910	7	Sololá	710	Panajachel	8	Panajachel	10	Octubre	2023-10-18T00:00:00	2024-11-08T05:00:00	4	Temperatura máxima	18
66911	7	Sololá	710	Panajachel	8	Panajachel	10	Octubre	2023-10-18T00:00:00	2024-11-08T05:00:00	3	Temperatura mínima	17
66912	7	Sololá	710	Panajachel	8	Panajachel	10	Octubre	2023-10-18T00:00:00	2024-11-08T05:00:00	5	Humedad	74
66913	7	Sololá	710	Panajachel	8	Panajachel	10	Octubre	2023-10-18T00:00:00	2024-11-08T05:00:00	6	Velocidad del viento	0
66914	7	Sololá	710	Panajachel	8	Panajachel	10	Octubre	2023-10-18T00:00:00	2024-11-08T05:00:00	7	Dirección del viento	0
66915	7	Sololá	710	Panajachel	8	Panajachel	10	Octubre	2023-10-18T00:00:00	2024-11-08T05:00:00	1	Precipitación	0
66916	7	Sololá	710	Panajachel	8	Panajachel	10	Octubre	2023-10-18T00:00:00	2024-11-08T05:00:00	8	Radiación solar	0
66917	7	Sololá	710	Panajachel	8	Panajachel	10	Octubre	2023-10-18T00:00:00	2024-11-08T06:00:00	2	Temperatura media	16.7
66918	7	Sololá	710	Panajachel	8	Panajachel	10	Octubre	2023-10-18T00:00:00	2024-11-08T06:00:00	4	Temperatura máxima	17.4
66919	7	Sololá	710	Panajachel	8	Panajachel	10	Octubre	2023-10-18T00:00:00	2024-11-08T06:00:00	3	Temperatura mínima	16.6
66920	7	Sololá	710	Panajachel	8	Panajachel	10	Octubre	2023-10-18T00:00:00	2024-11-08T06:00:00	5	Humedad	77
66921	7	Sololá	710	Panajachel	8	Panajachel	10	Octubre	2023-10-18T00:00:00	2024-11-08T06:00:00	6	Velocidad del viento	1.6
66922	7	Sololá	710	Panajachel	8	Panajachel	10	Octubre	2023-10-18T00:00:00	2024-11-08T06:00:00	7	Dirección del viento	1.61
66923	7	Sololá	710	Panajachel	8	Panajachel	10	Octubre	2023-10-18T00:00:00	2024-11-08T06:00:00	1	Precipitación	0
66924	7	Sololá	710	Panajachel	8	Panajachel	10	Octubre	2023-10-18T00:00:00	2024-11-08T06:00:00	8	Radiación solar	0
66925	7	Sololá	710	Panajachel	8	Panajachel	10	Octubre	2023-10-18T00:00:00	2024-11-08T07:00:00	2	Temperatura media	18.1
66926	7	Sololá	710	Panajachel	8	Panajachel	10	Octubre	2023-10-18T00:00:00	2024-11-08T07:00:00	4	Temperatura máxima	18.1
66927	7	Sololá	710	Panajachel	8	Panajachel	10	Octubre	2023-10-18T00:00:00	2024-11-08T07:00:00	3	Temperatura mínima	16.6
66928	7	Sololá	710	Panajachel	8	Panajachel	10	Octubre	2023-10-18T00:00:00	2024-11-08T07:00:00	5	Humedad	73
66929	7	Sololá	710	Panajachel	8	Panajachel	10	Octubre	2023-10-18T00:00:00	2024-11-08T07:00:00	6	Velocidad del viento	1.6
66930	7	Sololá	710	Panajachel	8	Panajachel	10	Octubre	2023-10-18T00:00:00	2024-11-08T07:00:00	7	Dirección del viento	1.61
66931	7	Sololá	710	Panajachel	8	Panajachel	10	Octubre	2023-10-18T00:00:00	2024-11-08T07:00:00	1	Precipitación	0
66932	7	Sololá	710	Panajachel	8	Panajachel	10	Octubre	2023-10-18T00:00:00	2024-11-08T07:00:00	8	Radiación solar	52
66933	7	Sololá	710	Panajachel	8	Panajachel	10	Octubre	2023-10-18T00:00:00	2024-11-08T08:00:00	2	Temperatura media	20.6
66934	7	Sololá	710	Panajachel	8	Panajachel	10	Octubre	2023-10-18T00:00:00	2024-11-08T08:00:00	4	Temperatura máxima	20.6
66935	7	Sololá	710	Panajachel	8	Panajachel	10	Octubre	2023-10-18T00:00:00	2024-11-08T08:00:00	3	Temperatura mínima	18.1
66936	7	Sololá	710	Panajachel	8	Panajachel	10	Octubre	2023-10-18T00:00:00	2024-11-08T08:00:00	5	Humedad	75
66937	7	Sololá	710	Panajachel	8	Panajachel	10	Octubre	2023-10-18T00:00:00	2024-11-08T08:00:00	6	Velocidad del viento	0
66938	7	Sololá	710	Panajachel	8	Panajachel	10	Octubre	2023-10-18T00:00:00	2024-11-08T08:00:00	7	Dirección del viento	0
66939	7	Sololá	710	Panajachel	8	Panajachel	10	Octubre	2023-10-18T00:00:00	2024-11-08T08:00:00	1	Precipitación	0
66940	7	Sololá	710	Panajachel	8	Panajachel	10	Octubre	2023-10-18T00:00:00	2024-11-08T08:00:00	8	Radiación solar	301
66941	7	Sololá	710	Panajachel	8	Panajachel	10	Octubre	2023-10-18T00:00:00	2024-11-08T09:00:00	2	Temperatura media	20.3
66942	7	Sololá	710	Panajachel	8	Panajachel	10	Octubre	2023-10-18T00:00:00	2024-11-08T09:00:00	4	Temperatura máxima	21.4
66943	7	Sololá	710	Panajachel	8	Panajachel	10	Octubre	2023-10-18T00:00:00	2024-11-08T09:00:00	3	Temperatura mínima	20.3
66944	7	Sololá	710	Panajachel	8	Panajachel	10	Octubre	2023-10-18T00:00:00	2024-11-08T09:00:00	5	Humedad	73
66945	7	Sololá	710	Panajachel	8	Panajachel	10	Octubre	2023-10-18T00:00:00	2024-11-08T09:00:00	6	Velocidad del viento	0
66946	7	Sololá	710	Panajachel	8	Panajachel	10	Octubre	2023-10-18T00:00:00	2024-11-08T09:00:00	7	Dirección del viento	0
66947	7	Sololá	710	Panajachel	8	Panajachel	10	Octubre	2023-10-18T00:00:00	2024-11-08T09:00:00	1	Precipitación	0
66948	7	Sololá	710	Panajachel	8	Panajachel	10	Octubre	2023-10-18T00:00:00	2024-11-08T09:00:00	8	Radiación solar	488
66949	7	Sololá	710	Panajachel	8	Panajachel	10	Octubre	2023-10-18T00:00:00	2024-11-08T10:00:00	2	Temperatura media	21.4
66950	7	Sololá	710	Panajachel	8	Panajachel	10	Octubre	2023-10-18T00:00:00	2024-11-08T10:00:00	4	Temperatura máxima	21.8
66951	7	Sololá	710	Panajachel	8	Panajachel	10	Octubre	2023-10-18T00:00:00	2024-11-08T10:00:00	3	Temperatura mínima	20.3
66952	7	Sololá	710	Panajachel	8	Panajachel	10	Octubre	2023-10-18T00:00:00	2024-11-08T10:00:00	5	Humedad	74
66953	7	Sololá	710	Panajachel	8	Panajachel	10	Octubre	2023-10-18T00:00:00	2024-11-08T10:00:00	6	Velocidad del viento	0
66954	7	Sololá	710	Panajachel	8	Panajachel	10	Octubre	2023-10-18T00:00:00	2024-11-08T10:00:00	7	Dirección del viento	0
66955	7	Sololá	710	Panajachel	8	Panajachel	10	Octubre	2023-10-18T00:00:00	2024-11-08T10:00:00	1	Precipitación	0
66956	7	Sololá	710	Panajachel	8	Panajachel	10	Octubre	2023-10-18T00:00:00	2024-11-08T10:00:00	8	Radiación solar	397
66957	7	Sololá	710	Panajachel	8	Panajachel	10	Octubre	2023-10-18T00:00:00	2024-11-08T11:00:00	2	Temperatura media	22.8
66958	7	Sololá	710	Panajachel	8	Panajachel	10	Octubre	2023-10-18T00:00:00	2024-11-08T11:00:00	4	Temperatura máxima	22.8
66959	7	Sololá	710	Panajachel	8	Panajachel	10	Octubre	2023-10-18T00:00:00	2024-11-08T11:00:00	3	Temperatura mínima	21.4
66960	7	Sololá	710	Panajachel	8	Panajachel	10	Octubre	2023-10-18T00:00:00	2024-11-08T11:00:00	5	Humedad	69
66961	7	Sololá	710	Panajachel	8	Panajachel	10	Octubre	2023-10-18T00:00:00	2024-11-08T11:00:00	6	Velocidad del viento	1.6
66962	7	Sololá	710	Panajachel	8	Panajachel	10	Octubre	2023-10-18T00:00:00	2024-11-08T11:00:00	7	Dirección del viento	1.61
66963	7	Sololá	710	Panajachel	8	Panajachel	10	Octubre	2023-10-18T00:00:00	2024-11-08T11:00:00	1	Precipitación	0
66964	7	Sololá	710	Panajachel	8	Panajachel	10	Octubre	2023-10-18T00:00:00	2024-11-08T11:00:00	8	Radiación solar	513
66965	7	Sololá	710	Panajachel	8	Panajachel	10	Octubre	2023-10-18T00:00:00	2024-11-08T12:00:00	2	Temperatura media	24.4
66966	7	Sololá	710	Panajachel	8	Panajachel	10	Octubre	2023-10-18T00:00:00	2024-11-08T12:00:00	4	Temperatura máxima	24.4
66967	7	Sololá	710	Panajachel	8	Panajachel	10	Octubre	2023-10-18T00:00:00	2024-11-08T12:00:00	3	Temperatura mínima	22.8
66968	7	Sololá	710	Panajachel	8	Panajachel	10	Octubre	2023-10-18T00:00:00	2024-11-08T12:00:00	5	Humedad	66
66969	7	Sololá	710	Panajachel	8	Panajachel	10	Octubre	2023-10-18T00:00:00	2024-11-08T12:00:00	6	Velocidad del viento	0
66970	7	Sololá	710	Panajachel	8	Panajachel	10	Octubre	2023-10-18T00:00:00	2024-11-08T12:00:00	7	Dirección del viento	0
66971	7	Sololá	710	Panajachel	8	Panajachel	10	Octubre	2023-10-18T00:00:00	2024-11-08T12:00:00	1	Precipitación	0
66972	7	Sololá	710	Panajachel	8	Panajachel	10	Octubre	2023-10-18T00:00:00	2024-11-08T12:00:00	8	Radiación solar	681
66973	7	Sololá	710	Panajachel	8	Panajachel	10	Octubre	2023-10-18T00:00:00	2024-11-08T13:00:00	2	Temperatura media	26.3
66974	7	Sololá	710	Panajachel	8	Panajachel	10	Octubre	2023-10-18T00:00:00	2024-11-08T13:00:00	4	Temperatura máxima	26.3
66975	7	Sololá	710	Panajachel	8	Panajachel	10	Octubre	2023-10-18T00:00:00	2024-11-08T13:00:00	3	Temperatura mínima	24.4
66976	7	Sololá	710	Panajachel	8	Panajachel	10	Octubre	2023-10-18T00:00:00	2024-11-08T13:00:00	5	Humedad	59
66977	7	Sololá	710	Panajachel	8	Panajachel	10	Octubre	2023-10-18T00:00:00	2024-11-08T13:00:00	6	Velocidad del viento	0
66978	7	Sololá	710	Panajachel	8	Panajachel	10	Octubre	2023-10-18T00:00:00	2024-11-08T13:00:00	7	Dirección del viento	0
66979	7	Sololá	710	Panajachel	8	Panajachel	10	Octubre	2023-10-18T00:00:00	2024-11-08T13:00:00	1	Precipitación	0
66980	7	Sololá	710	Panajachel	8	Panajachel	10	Octubre	2023-10-18T00:00:00	2024-11-08T13:00:00	8	Radiación solar	889
66981	7	Sololá	710	Panajachel	8	Panajachel	10	Octubre	2023-10-18T00:00:00	2024-11-08T14:00:00	2	Temperatura media	24.3
66982	7	Sololá	710	Panajachel	8	Panajachel	10	Octubre	2023-10-18T00:00:00	2024-11-08T14:00:00	4	Temperatura máxima	26.5
66983	7	Sololá	710	Panajachel	8	Panajachel	10	Octubre	2023-10-18T00:00:00	2024-11-08T14:00:00	3	Temperatura mínima	24
66984	7	Sololá	710	Panajachel	8	Panajachel	10	Octubre	2023-10-18T00:00:00	2024-11-08T14:00:00	5	Humedad	71
66985	7	Sololá	710	Panajachel	8	Panajachel	10	Octubre	2023-10-18T00:00:00	2024-11-08T14:00:00	6	Velocidad del viento	1.6
66986	7	Sololá	710	Panajachel	8	Panajachel	10	Octubre	2023-10-18T00:00:00	2024-11-08T14:00:00	7	Dirección del viento	1.61
66987	7	Sololá	710	Panajachel	8	Panajachel	10	Octubre	2023-10-18T00:00:00	2024-11-08T14:00:00	1	Precipitación	0
66988	7	Sololá	710	Panajachel	8	Panajachel	10	Octubre	2023-10-18T00:00:00	2024-11-08T14:00:00	8	Radiación solar	725
66989	7	Sololá	710	Panajachel	8	Panajachel	10	Octubre	2023-10-18T00:00:00	2024-11-08T15:00:00	2	Temperatura media	24.4
66990	7	Sololá	710	Panajachel	8	Panajachel	10	Octubre	2023-10-18T00:00:00	2024-11-08T15:00:00	4	Temperatura máxima	24.4
66991	7	Sololá	710	Panajachel	8	Panajachel	10	Octubre	2023-10-18T00:00:00	2024-11-08T15:00:00	3	Temperatura mínima	23.1
66992	7	Sololá	710	Panajachel	8	Panajachel	10	Octubre	2023-10-18T00:00:00	2024-11-08T15:00:00	5	Humedad	71
66993	7	Sololá	710	Panajachel	8	Panajachel	10	Octubre	2023-10-18T00:00:00	2024-11-08T15:00:00	6	Velocidad del viento	0
66994	7	Sololá	710	Panajachel	8	Panajachel	10	Octubre	2023-10-18T00:00:00	2024-11-08T15:00:00	7	Dirección del viento	0
66995	7	Sololá	710	Panajachel	8	Panajachel	10	Octubre	2023-10-18T00:00:00	2024-11-08T15:00:00	1	Precipitación	0
66996	7	Sololá	710	Panajachel	8	Panajachel	10	Octubre	2023-10-18T00:00:00	2024-11-08T15:00:00	8	Radiación solar	287
66997	7	Sololá	710	Panajachel	8	Panajachel	10	Octubre	2023-10-18T00:00:00	2024-11-08T16:00:00	2	Temperatura media	24.3
66998	7	Sololá	710	Panajachel	8	Panajachel	10	Octubre	2023-10-18T00:00:00	2024-11-08T16:00:00	4	Temperatura máxima	25.1
66999	7	Sololá	710	Panajachel	8	Panajachel	10	Octubre	2023-10-18T00:00:00	2024-11-08T16:00:00	3	Temperatura mínima	23.9
67000	7	Sololá	710	Panajachel	8	Panajachel	10	Octubre	2023-10-18T00:00:00	2024-11-08T16:00:00	5	Humedad	70
67001	7	Sololá	710	Panajachel	8	Panajachel	10	Octubre	2023-10-18T00:00:00	2024-11-08T16:00:00	6	Velocidad del viento	0
67002	7	Sololá	710	Panajachel	8	Panajachel	10	Octubre	2023-10-18T00:00:00	2024-11-08T16:00:00	7	Dirección del viento	0
67003	7	Sololá	710	Panajachel	8	Panajachel	10	Octubre	2023-10-18T00:00:00	2024-11-08T16:00:00	1	Precipitación	0
67004	7	Sololá	710	Panajachel	8	Panajachel	10	Octubre	2023-10-18T00:00:00	2024-11-08T16:00:00	8	Radiación solar	246
67005	7	Sololá	710	Panajachel	8	Panajachel	10	Octubre	2023-10-18T00:00:00	2024-11-08T17:00:00	2	Temperatura media	22.8
67006	7	Sololá	710	Panajachel	8	Panajachel	10	Octubre	2023-10-18T00:00:00	2024-11-08T17:00:00	4	Temperatura máxima	24.3
67007	7	Sololá	710	Panajachel	8	Panajachel	10	Octubre	2023-10-18T00:00:00	2024-11-08T17:00:00	3	Temperatura mínima	22.7
67008	7	Sololá	710	Panajachel	8	Panajachel	10	Octubre	2023-10-18T00:00:00	2024-11-08T17:00:00	5	Humedad	73
67009	7	Sololá	710	Panajachel	8	Panajachel	10	Octubre	2023-10-18T00:00:00	2024-11-08T17:00:00	6	Velocidad del viento	0
67010	7	Sololá	710	Panajachel	8	Panajachel	10	Octubre	2023-10-18T00:00:00	2024-11-08T17:00:00	7	Dirección del viento	0
67011	7	Sololá	710	Panajachel	8	Panajachel	10	Octubre	2023-10-18T00:00:00	2024-11-08T17:00:00	1	Precipitación	0
67012	7	Sololá	710	Panajachel	8	Panajachel	10	Octubre	2023-10-18T00:00:00	2024-11-08T17:00:00	8	Radiación solar	63
67013	7	Sololá	710	Panajachel	8	Panajachel	10	Octubre	2023-10-18T00:00:00	2024-11-08T18:00:00	2	Temperatura media	21.6
67014	7	Sololá	710	Panajachel	8	Panajachel	10	Octubre	2023-10-18T00:00:00	2024-11-08T18:00:00	4	Temperatura máxima	22.7
67015	7	Sololá	710	Panajachel	8	Panajachel	10	Octubre	2023-10-18T00:00:00	2024-11-08T18:00:00	3	Temperatura mínima	21.6
67016	7	Sololá	710	Panajachel	8	Panajachel	10	Octubre	2023-10-18T00:00:00	2024-11-08T18:00:00	5	Humedad	74
67017	7	Sololá	710	Panajachel	8	Panajachel	10	Octubre	2023-10-18T00:00:00	2024-11-08T18:00:00	6	Velocidad del viento	0
67018	7	Sololá	710	Panajachel	8	Panajachel	10	Octubre	2023-10-18T00:00:00	2024-11-08T18:00:00	7	Dirección del viento	0
67019	7	Sololá	710	Panajachel	8	Panajachel	10	Octubre	2023-10-18T00:00:00	2024-11-08T18:00:00	1	Precipitación	0
67020	7	Sololá	710	Panajachel	8	Panajachel	10	Octubre	2023-10-18T00:00:00	2024-11-08T18:00:00	8	Radiación solar	12
67021	7	Sololá	710	Panajachel	8	Panajachel	10	Octubre	2023-10-18T00:00:00	2024-11-08T19:00:00	2	Temperatura media	20.7
67022	7	Sololá	710	Panajachel	8	Panajachel	10	Octubre	2023-10-18T00:00:00	2024-11-08T19:00:00	4	Temperatura máxima	21.6
67023	7	Sololá	710	Panajachel	8	Panajachel	10	Octubre	2023-10-18T00:00:00	2024-11-08T19:00:00	3	Temperatura mínima	20.6
67024	7	Sololá	710	Panajachel	8	Panajachel	10	Octubre	2023-10-18T00:00:00	2024-11-08T19:00:00	5	Humedad	77
67025	7	Sololá	710	Panajachel	8	Panajachel	10	Octubre	2023-10-18T00:00:00	2024-11-08T19:00:00	6	Velocidad del viento	0
67026	7	Sololá	710	Panajachel	8	Panajachel	10	Octubre	2023-10-18T00:00:00	2024-11-08T19:00:00	7	Dirección del viento	0
67027	7	Sololá	710	Panajachel	8	Panajachel	10	Octubre	2023-10-18T00:00:00	2024-11-08T19:00:00	1	Precipitación	0
67028	7	Sololá	710	Panajachel	8	Panajachel	10	Octubre	2023-10-18T00:00:00	2024-11-08T19:00:00	8	Radiación solar	0
67029	7	Sololá	710	Panajachel	8	Panajachel	10	Octubre	2023-10-18T00:00:00	2024-11-08T20:00:00	2	Temperatura media	20.2
67030	7	Sololá	710	Panajachel	8	Panajachel	10	Octubre	2023-10-18T00:00:00	2024-11-08T20:00:00	4	Temperatura máxima	20.7
67031	7	Sololá	710	Panajachel	8	Panajachel	10	Octubre	2023-10-18T00:00:00	2024-11-08T20:00:00	3	Temperatura mínima	20
67032	7	Sololá	710	Panajachel	8	Panajachel	10	Octubre	2023-10-18T00:00:00	2024-11-08T20:00:00	5	Humedad	76
67033	7	Sololá	710	Panajachel	8	Panajachel	10	Octubre	2023-10-18T00:00:00	2024-11-08T20:00:00	6	Velocidad del viento	0
67034	7	Sololá	710	Panajachel	8	Panajachel	10	Octubre	2023-10-18T00:00:00	2024-11-08T20:00:00	7	Dirección del viento	0
67035	7	Sololá	710	Panajachel	8	Panajachel	10	Octubre	2023-10-18T00:00:00	2024-11-08T20:00:00	1	Precipitación	0
67036	7	Sololá	710	Panajachel	8	Panajachel	10	Octubre	2023-10-18T00:00:00	2024-11-08T20:00:00	8	Radiación solar	0
67037	7	Sololá	710	Panajachel	8	Panajachel	10	Octubre	2023-10-18T00:00:00	2024-11-08T21:00:00	2	Temperatura media	20.1
67038	7	Sololá	710	Panajachel	8	Panajachel	10	Octubre	2023-10-18T00:00:00	2024-11-08T21:00:00	4	Temperatura máxima	20.9
67039	7	Sololá	710	Panajachel	8	Panajachel	10	Octubre	2023-10-18T00:00:00	2024-11-08T21:00:00	3	Temperatura mínima	20.1
67040	7	Sololá	710	Panajachel	8	Panajachel	10	Octubre	2023-10-18T00:00:00	2024-11-08T21:00:00	5	Humedad	76
67041	7	Sololá	710	Panajachel	8	Panajachel	10	Octubre	2023-10-18T00:00:00	2024-11-08T21:00:00	6	Velocidad del viento	1.6
67042	7	Sololá	710	Panajachel	8	Panajachel	10	Octubre	2023-10-18T00:00:00	2024-11-08T21:00:00	7	Dirección del viento	1.61
67043	7	Sololá	710	Panajachel	8	Panajachel	10	Octubre	2023-10-18T00:00:00	2024-11-08T21:00:00	1	Precipitación	0
67044	7	Sololá	710	Panajachel	8	Panajachel	10	Octubre	2023-10-18T00:00:00	2024-11-08T21:00:00	8	Radiación solar	0
67045	7	Sololá	710	Panajachel	8	Panajachel	10	Octubre	2023-10-18T00:00:00	2024-11-08T22:00:00	2	Temperatura media	19.4
67046	7	Sololá	710	Panajachel	8	Panajachel	10	Octubre	2023-10-18T00:00:00	2024-11-08T22:00:00	4	Temperatura máxima	20.1
67047	7	Sololá	710	Panajachel	8	Panajachel	10	Octubre	2023-10-18T00:00:00	2024-11-08T22:00:00	3	Temperatura mínima	19.4
67048	7	Sololá	710	Panajachel	8	Panajachel	10	Octubre	2023-10-18T00:00:00	2024-11-08T22:00:00	5	Humedad	76
67049	7	Sololá	710	Panajachel	8	Panajachel	10	Octubre	2023-10-18T00:00:00	2024-11-08T22:00:00	6	Velocidad del viento	0
67050	7	Sololá	710	Panajachel	8	Panajachel	10	Octubre	2023-10-18T00:00:00	2024-11-08T22:00:00	7	Dirección del viento	0
67051	7	Sololá	710	Panajachel	8	Panajachel	10	Octubre	2023-10-18T00:00:00	2024-11-08T22:00:00	1	Precipitación	0
67052	7	Sololá	710	Panajachel	8	Panajachel	10	Octubre	2023-10-18T00:00:00	2024-11-08T22:00:00	8	Radiación solar	0
67053	7	Sololá	710	Panajachel	8	Panajachel	10	Octubre	2023-10-18T00:00:00	2024-11-08T23:00:00	2	Temperatura media	18.6
67054	7	Sololá	710	Panajachel	8	Panajachel	10	Octubre	2023-10-18T00:00:00	2024-11-08T23:00:00	4	Temperatura máxima	19.4
67055	7	Sololá	710	Panajachel	8	Panajachel	10	Octubre	2023-10-18T00:00:00	2024-11-08T23:00:00	3	Temperatura mínima	18.5
67056	7	Sololá	710	Panajachel	8	Panajachel	10	Octubre	2023-10-18T00:00:00	2024-11-08T23:00:00	5	Humedad	79
67057	7	Sololá	710	Panajachel	8	Panajachel	10	Octubre	2023-10-18T00:00:00	2024-11-08T23:00:00	6	Velocidad del viento	0
67058	7	Sololá	710	Panajachel	8	Panajachel	10	Octubre	2023-10-18T00:00:00	2024-11-08T23:00:00	7	Dirección del viento	0
67059	7	Sololá	710	Panajachel	8	Panajachel	10	Octubre	2023-10-18T00:00:00	2024-11-08T23:00:00	1	Precipitación	0
67060	7	Sololá	710	Panajachel	8	Panajachel	10	Octubre	2023-10-18T00:00:00	2024-11-08T23:00:00	8	Radiación solar	0
67061	7	Sololá	710	Panajachel	8	Panajachel	10	Octubre	2023-10-19T00:00:00	2024-11-08T00:00:00	2	Temperatura media	18.3
67062	7	Sololá	710	Panajachel	8	Panajachel	10	Octubre	2023-10-19T00:00:00	2024-11-08T00:00:00	4	Temperatura máxima	18.8
67063	7	Sololá	710	Panajachel	8	Panajachel	10	Octubre	2023-10-19T00:00:00	2024-11-08T00:00:00	3	Temperatura mínima	18.3
67064	7	Sololá	710	Panajachel	8	Panajachel	10	Octubre	2023-10-19T00:00:00	2024-11-08T00:00:00	5	Humedad	79
67065	7	Sololá	710	Panajachel	8	Panajachel	10	Octubre	2023-10-19T00:00:00	2024-11-08T00:00:00	6	Velocidad del viento	0
67066	7	Sololá	710	Panajachel	8	Panajachel	10	Octubre	2023-10-19T00:00:00	2024-11-08T00:00:00	7	Dirección del viento	0
67067	7	Sololá	710	Panajachel	8	Panajachel	10	Octubre	2023-10-19T00:00:00	2024-11-08T00:00:00	1	Precipitación	0
67068	7	Sololá	710	Panajachel	8	Panajachel	10	Octubre	2023-10-19T00:00:00	2024-11-08T00:00:00	8	Radiación solar	0
67069	7	Sololá	710	Panajachel	8	Panajachel	10	Octubre	2023-10-19T00:00:00	2024-11-08T01:00:00	2	Temperatura media	18.1
67070	7	Sololá	710	Panajachel	8	Panajachel	10	Octubre	2023-10-19T00:00:00	2024-11-08T01:00:00	4	Temperatura máxima	18.5
67071	7	Sololá	710	Panajachel	8	Panajachel	10	Octubre	2023-10-19T00:00:00	2024-11-08T01:00:00	3	Temperatura mínima	18.1
67072	7	Sololá	710	Panajachel	8	Panajachel	10	Octubre	2023-10-19T00:00:00	2024-11-08T01:00:00	5	Humedad	80
67073	7	Sololá	710	Panajachel	8	Panajachel	10	Octubre	2023-10-19T00:00:00	2024-11-08T01:00:00	6	Velocidad del viento	0
67074	7	Sololá	710	Panajachel	8	Panajachel	10	Octubre	2023-10-19T00:00:00	2024-11-08T01:00:00	7	Dirección del viento	0
67075	7	Sololá	710	Panajachel	8	Panajachel	10	Octubre	2023-10-19T00:00:00	2024-11-08T01:00:00	1	Precipitación	0
67076	7	Sololá	710	Panajachel	8	Panajachel	10	Octubre	2023-10-19T00:00:00	2024-11-08T01:00:00	8	Radiación solar	0
67077	7	Sololá	710	Panajachel	8	Panajachel	10	Octubre	2023-10-19T00:00:00	2024-11-08T02:00:00	2	Temperatura media	18.1
67078	7	Sololá	710	Panajachel	8	Panajachel	10	Octubre	2023-10-19T00:00:00	2024-11-08T02:00:00	4	Temperatura máxima	18.1
67079	7	Sololá	710	Panajachel	8	Panajachel	10	Octubre	2023-10-19T00:00:00	2024-11-08T02:00:00	3	Temperatura mínima	17.7
67080	7	Sololá	710	Panajachel	8	Panajachel	10	Octubre	2023-10-19T00:00:00	2024-11-08T02:00:00	5	Humedad	79
67081	7	Sololá	710	Panajachel	8	Panajachel	10	Octubre	2023-10-19T00:00:00	2024-11-08T02:00:00	6	Velocidad del viento	0
67082	7	Sololá	710	Panajachel	8	Panajachel	10	Octubre	2023-10-19T00:00:00	2024-11-08T02:00:00	7	Dirección del viento	0
67083	7	Sololá	710	Panajachel	8	Panajachel	10	Octubre	2023-10-19T00:00:00	2024-11-08T02:00:00	1	Precipitación	0
67084	7	Sololá	710	Panajachel	8	Panajachel	10	Octubre	2023-10-19T00:00:00	2024-11-08T02:00:00	8	Radiación solar	0
67085	7	Sololá	710	Panajachel	8	Panajachel	10	Octubre	2023-10-19T00:00:00	2024-11-08T03:00:00	2	Temperatura media	17.8
67086	7	Sololá	710	Panajachel	8	Panajachel	10	Octubre	2023-10-19T00:00:00	2024-11-08T03:00:00	4	Temperatura máxima	18.3
67087	7	Sololá	710	Panajachel	8	Panajachel	10	Octubre	2023-10-19T00:00:00	2024-11-08T03:00:00	3	Temperatura mínima	17.8
67088	7	Sololá	710	Panajachel	8	Panajachel	10	Octubre	2023-10-19T00:00:00	2024-11-08T03:00:00	5	Humedad	81
67089	7	Sololá	710	Panajachel	8	Panajachel	10	Octubre	2023-10-19T00:00:00	2024-11-08T03:00:00	6	Velocidad del viento	0
67090	7	Sololá	710	Panajachel	8	Panajachel	10	Octubre	2023-10-19T00:00:00	2024-11-08T03:00:00	7	Dirección del viento	0
67091	7	Sololá	710	Panajachel	8	Panajachel	10	Octubre	2023-10-19T00:00:00	2024-11-08T03:00:00	1	Precipitación	0
67092	7	Sololá	710	Panajachel	8	Panajachel	10	Octubre	2023-10-19T00:00:00	2024-11-08T03:00:00	8	Radiación solar	0
67093	7	Sololá	710	Panajachel	8	Panajachel	10	Octubre	2023-10-19T00:00:00	2024-11-08T04:00:00	2	Temperatura media	17.2
67094	7	Sololá	710	Panajachel	8	Panajachel	10	Octubre	2023-10-19T00:00:00	2024-11-08T04:00:00	4	Temperatura máxima	17.8
67095	7	Sololá	710	Panajachel	8	Panajachel	10	Octubre	2023-10-19T00:00:00	2024-11-08T04:00:00	3	Temperatura mínima	16.9
67096	7	Sololá	710	Panajachel	8	Panajachel	10	Octubre	2023-10-19T00:00:00	2024-11-08T04:00:00	5	Humedad	83
67097	7	Sololá	710	Panajachel	8	Panajachel	10	Octubre	2023-10-19T00:00:00	2024-11-08T04:00:00	6	Velocidad del viento	0
67098	7	Sololá	710	Panajachel	8	Panajachel	10	Octubre	2023-10-19T00:00:00	2024-11-08T04:00:00	7	Dirección del viento	0
67099	7	Sololá	710	Panajachel	8	Panajachel	10	Octubre	2023-10-19T00:00:00	2024-11-08T04:00:00	1	Precipitación	0
67100	7	Sololá	710	Panajachel	8	Panajachel	10	Octubre	2023-10-19T00:00:00	2024-11-08T04:00:00	8	Radiación solar	0
67101	7	Sololá	710	Panajachel	8	Panajachel	10	Octubre	2023-10-19T00:00:00	2024-11-08T05:00:00	2	Temperatura media	16.6
67102	7	Sololá	710	Panajachel	8	Panajachel	10	Octubre	2023-10-19T00:00:00	2024-11-08T05:00:00	4	Temperatura máxima	17.5
67103	7	Sololá	710	Panajachel	8	Panajachel	10	Octubre	2023-10-19T00:00:00	2024-11-08T05:00:00	3	Temperatura mínima	16.6
67104	7	Sololá	710	Panajachel	8	Panajachel	10	Octubre	2023-10-19T00:00:00	2024-11-08T05:00:00	5	Humedad	85
67105	7	Sololá	710	Panajachel	8	Panajachel	10	Octubre	2023-10-19T00:00:00	2024-11-08T05:00:00	6	Velocidad del viento	0
67106	7	Sololá	710	Panajachel	8	Panajachel	10	Octubre	2023-10-19T00:00:00	2024-11-08T05:00:00	7	Dirección del viento	0
67107	7	Sololá	710	Panajachel	8	Panajachel	10	Octubre	2023-10-19T00:00:00	2024-11-08T05:00:00	1	Precipitación	0
67108	7	Sololá	710	Panajachel	8	Panajachel	10	Octubre	2023-10-19T00:00:00	2024-11-08T05:00:00	8	Radiación solar	0
67109	7	Sololá	710	Panajachel	8	Panajachel	10	Octubre	2023-10-19T00:00:00	2024-11-08T06:00:00	2	Temperatura media	16.5
67110	7	Sololá	710	Panajachel	8	Panajachel	10	Octubre	2023-10-19T00:00:00	2024-11-08T06:00:00	4	Temperatura máxima	16.8
67111	7	Sololá	710	Panajachel	8	Panajachel	10	Octubre	2023-10-19T00:00:00	2024-11-08T06:00:00	3	Temperatura mínima	16.5
67112	7	Sololá	710	Panajachel	8	Panajachel	10	Octubre	2023-10-19T00:00:00	2024-11-08T06:00:00	5	Humedad	86
67113	7	Sololá	710	Panajachel	8	Panajachel	10	Octubre	2023-10-19T00:00:00	2024-11-08T06:00:00	6	Velocidad del viento	0
67114	7	Sololá	710	Panajachel	8	Panajachel	10	Octubre	2023-10-19T00:00:00	2024-11-08T06:00:00	7	Dirección del viento	0
67115	7	Sololá	710	Panajachel	8	Panajachel	10	Octubre	2023-10-19T00:00:00	2024-11-08T06:00:00	1	Precipitación	0
67116	7	Sololá	710	Panajachel	8	Panajachel	10	Octubre	2023-10-19T00:00:00	2024-11-08T06:00:00	8	Radiación solar	0
67117	7	Sololá	710	Panajachel	8	Panajachel	10	Octubre	2023-10-19T00:00:00	2024-11-08T07:00:00	2	Temperatura media	18.4
67118	7	Sololá	710	Panajachel	8	Panajachel	10	Octubre	2023-10-19T00:00:00	2024-11-08T07:00:00	4	Temperatura máxima	18.4
67119	7	Sololá	710	Panajachel	8	Panajachel	10	Octubre	2023-10-19T00:00:00	2024-11-08T07:00:00	3	Temperatura mínima	16.4
67120	7	Sololá	710	Panajachel	8	Panajachel	10	Octubre	2023-10-19T00:00:00	2024-11-08T07:00:00	5	Humedad	82
67121	7	Sololá	710	Panajachel	8	Panajachel	10	Octubre	2023-10-19T00:00:00	2024-11-08T07:00:00	6	Velocidad del viento	0
67122	7	Sololá	710	Panajachel	8	Panajachel	10	Octubre	2023-10-19T00:00:00	2024-11-08T07:00:00	7	Dirección del viento	0
67123	7	Sololá	710	Panajachel	8	Panajachel	10	Octubre	2023-10-19T00:00:00	2024-11-08T07:00:00	1	Precipitación	0
67124	7	Sololá	710	Panajachel	8	Panajachel	10	Octubre	2023-10-19T00:00:00	2024-11-08T07:00:00	8	Radiación solar	46
67125	7	Sololá	710	Panajachel	8	Panajachel	10	Octubre	2023-10-19T00:00:00	2024-11-08T08:00:00	2	Temperatura media	20.7
67126	7	Sololá	710	Panajachel	8	Panajachel	10	Octubre	2023-10-19T00:00:00	2024-11-08T08:00:00	4	Temperatura máxima	20.9
67127	7	Sololá	710	Panajachel	8	Panajachel	10	Octubre	2023-10-19T00:00:00	2024-11-08T08:00:00	3	Temperatura mínima	18.4
67128	7	Sololá	710	Panajachel	8	Panajachel	10	Octubre	2023-10-19T00:00:00	2024-11-08T08:00:00	5	Humedad	79
67129	7	Sololá	710	Panajachel	8	Panajachel	10	Octubre	2023-10-19T00:00:00	2024-11-08T08:00:00	6	Velocidad del viento	0
67130	7	Sololá	710	Panajachel	8	Panajachel	10	Octubre	2023-10-19T00:00:00	2024-11-08T08:00:00	7	Dirección del viento	0
67131	7	Sololá	710	Panajachel	8	Panajachel	10	Octubre	2023-10-19T00:00:00	2024-11-08T08:00:00	1	Precipitación	0
67132	7	Sololá	710	Panajachel	8	Panajachel	10	Octubre	2023-10-19T00:00:00	2024-11-08T08:00:00	8	Radiación solar	272
67133	7	Sololá	710	Panajachel	8	Panajachel	10	Octubre	2023-10-19T00:00:00	2024-11-08T09:00:00	2	Temperatura media	21.6
67134	7	Sololá	710	Panajachel	8	Panajachel	10	Octubre	2023-10-19T00:00:00	2024-11-08T09:00:00	4	Temperatura máxima	21.9
67135	7	Sololá	710	Panajachel	8	Panajachel	10	Octubre	2023-10-19T00:00:00	2024-11-08T09:00:00	3	Temperatura mínima	20.6
67136	7	Sololá	710	Panajachel	8	Panajachel	10	Octubre	2023-10-19T00:00:00	2024-11-08T09:00:00	5	Humedad	78
67137	7	Sololá	710	Panajachel	8	Panajachel	10	Octubre	2023-10-19T00:00:00	2024-11-08T09:00:00	6	Velocidad del viento	0
67138	7	Sololá	710	Panajachel	8	Panajachel	10	Octubre	2023-10-19T00:00:00	2024-11-08T09:00:00	7	Dirección del viento	0
67139	7	Sololá	710	Panajachel	8	Panajachel	10	Octubre	2023-10-19T00:00:00	2024-11-08T09:00:00	1	Precipitación	0
67140	7	Sololá	710	Panajachel	8	Panajachel	10	Octubre	2023-10-19T00:00:00	2024-11-08T09:00:00	8	Radiación solar	515
67141	7	Sololá	710	Panajachel	8	Panajachel	10	Octubre	2023-10-19T00:00:00	2024-11-08T10:00:00	2	Temperatura media	22.7
67142	7	Sololá	710	Panajachel	8	Panajachel	10	Octubre	2023-10-19T00:00:00	2024-11-08T10:00:00	4	Temperatura máxima	22.7
67143	7	Sololá	710	Panajachel	8	Panajachel	10	Octubre	2023-10-19T00:00:00	2024-11-08T10:00:00	3	Temperatura mínima	21.4
67144	7	Sololá	710	Panajachel	8	Panajachel	10	Octubre	2023-10-19T00:00:00	2024-11-08T10:00:00	5	Humedad	71
67145	7	Sololá	710	Panajachel	8	Panajachel	10	Octubre	2023-10-19T00:00:00	2024-11-08T10:00:00	6	Velocidad del viento	0
67146	7	Sololá	710	Panajachel	8	Panajachel	10	Octubre	2023-10-19T00:00:00	2024-11-08T10:00:00	7	Dirección del viento	0
67147	7	Sololá	710	Panajachel	8	Panajachel	10	Octubre	2023-10-19T00:00:00	2024-11-08T10:00:00	1	Precipitación	0
67148	7	Sololá	710	Panajachel	8	Panajachel	10	Octubre	2023-10-19T00:00:00	2024-11-08T10:00:00	8	Radiación solar	488
67149	7	Sololá	710	Panajachel	8	Panajachel	10	Octubre	2023-10-19T00:00:00	2024-11-08T11:00:00	2	Temperatura media	23.5
67150	7	Sololá	710	Panajachel	8	Panajachel	10	Octubre	2023-10-19T00:00:00	2024-11-08T11:00:00	4	Temperatura máxima	23.7
67151	7	Sololá	710	Panajachel	8	Panajachel	10	Octubre	2023-10-19T00:00:00	2024-11-08T11:00:00	3	Temperatura mínima	22.5
67152	7	Sololá	710	Panajachel	8	Panajachel	10	Octubre	2023-10-19T00:00:00	2024-11-08T11:00:00	5	Humedad	71
67153	7	Sololá	710	Panajachel	8	Panajachel	10	Octubre	2023-10-19T00:00:00	2024-11-08T11:00:00	6	Velocidad del viento	0
67154	7	Sololá	710	Panajachel	8	Panajachel	10	Octubre	2023-10-19T00:00:00	2024-11-08T11:00:00	7	Dirección del viento	0
67155	7	Sololá	710	Panajachel	8	Panajachel	10	Octubre	2023-10-19T00:00:00	2024-11-08T11:00:00	1	Precipitación	0
67156	7	Sololá	710	Panajachel	8	Panajachel	10	Octubre	2023-10-19T00:00:00	2024-11-08T11:00:00	8	Radiación solar	307
67157	7	Sololá	710	Panajachel	8	Panajachel	10	Octubre	2023-10-19T00:00:00	2024-11-08T12:00:00	2	Temperatura media	23
67158	7	Sololá	710	Panajachel	8	Panajachel	10	Octubre	2023-10-19T00:00:00	2024-11-08T12:00:00	4	Temperatura máxima	23.5
67159	7	Sololá	710	Panajachel	8	Panajachel	10	Octubre	2023-10-19T00:00:00	2024-11-08T12:00:00	3	Temperatura mínima	22.9
67160	7	Sololá	710	Panajachel	8	Panajachel	10	Octubre	2023-10-19T00:00:00	2024-11-08T12:00:00	5	Humedad	79
67161	7	Sololá	710	Panajachel	8	Panajachel	10	Octubre	2023-10-19T00:00:00	2024-11-08T12:00:00	6	Velocidad del viento	0
67162	7	Sololá	710	Panajachel	8	Panajachel	10	Octubre	2023-10-19T00:00:00	2024-11-08T12:00:00	7	Dirección del viento	0
67163	7	Sololá	710	Panajachel	8	Panajachel	10	Octubre	2023-10-19T00:00:00	2024-11-08T12:00:00	1	Precipitación	0
67164	7	Sololá	710	Panajachel	8	Panajachel	10	Octubre	2023-10-19T00:00:00	2024-11-08T12:00:00	8	Radiación solar	283
67165	7	Sololá	710	Panajachel	8	Panajachel	10	Octubre	2023-10-19T00:00:00	2024-11-08T13:00:00	2	Temperatura media	21.7
67166	7	Sololá	710	Panajachel	8	Panajachel	10	Octubre	2023-10-19T00:00:00	2024-11-08T13:00:00	4	Temperatura máxima	23
67167	7	Sololá	710	Panajachel	8	Panajachel	10	Octubre	2023-10-19T00:00:00	2024-11-08T13:00:00	3	Temperatura mínima	21.7
67168	7	Sololá	710	Panajachel	8	Panajachel	10	Octubre	2023-10-19T00:00:00	2024-11-08T13:00:00	5	Humedad	85
67169	7	Sololá	710	Panajachel	8	Panajachel	10	Octubre	2023-10-19T00:00:00	2024-11-08T13:00:00	6	Velocidad del viento	0
67170	7	Sololá	710	Panajachel	8	Panajachel	10	Octubre	2023-10-19T00:00:00	2024-11-08T13:00:00	7	Dirección del viento	0
67171	7	Sololá	710	Panajachel	8	Panajachel	10	Octubre	2023-10-19T00:00:00	2024-11-08T13:00:00	1	Precipitación	0
67172	7	Sololá	710	Panajachel	8	Panajachel	10	Octubre	2023-10-19T00:00:00	2024-11-08T13:00:00	8	Radiación solar	177
67173	7	Sololá	710	Panajachel	8	Panajachel	10	Octubre	2023-10-19T00:00:00	2024-11-08T14:00:00	2	Temperatura media	21.4
67174	7	Sololá	710	Panajachel	8	Panajachel	10	Octubre	2023-10-19T00:00:00	2024-11-08T14:00:00	4	Temperatura máxima	21.8
67175	7	Sololá	710	Panajachel	8	Panajachel	10	Octubre	2023-10-19T00:00:00	2024-11-08T14:00:00	3	Temperatura mínima	21.4
67176	7	Sololá	710	Panajachel	8	Panajachel	10	Octubre	2023-10-19T00:00:00	2024-11-08T14:00:00	5	Humedad	85
67177	7	Sololá	710	Panajachel	8	Panajachel	10	Octubre	2023-10-19T00:00:00	2024-11-08T14:00:00	6	Velocidad del viento	0
67178	7	Sololá	710	Panajachel	8	Panajachel	10	Octubre	2023-10-19T00:00:00	2024-11-08T14:00:00	7	Dirección del viento	0
67179	7	Sololá	710	Panajachel	8	Panajachel	10	Octubre	2023-10-19T00:00:00	2024-11-08T14:00:00	1	Precipitación	0
67180	7	Sololá	710	Panajachel	8	Panajachel	10	Octubre	2023-10-19T00:00:00	2024-11-08T14:00:00	8	Radiación solar	113
67181	7	Sololá	710	Panajachel	8	Panajachel	10	Octubre	2023-10-19T00:00:00	2024-11-08T15:00:00	2	Temperatura media	20.8
67182	7	Sololá	710	Panajachel	8	Panajachel	10	Octubre	2023-10-19T00:00:00	2024-11-08T15:00:00	4	Temperatura máxima	22.6
67183	7	Sololá	710	Panajachel	8	Panajachel	10	Octubre	2023-10-19T00:00:00	2024-11-08T15:00:00	3	Temperatura mínima	20.8
67184	7	Sololá	710	Panajachel	8	Panajachel	10	Octubre	2023-10-19T00:00:00	2024-11-08T15:00:00	5	Humedad	89
67185	7	Sololá	710	Panajachel	8	Panajachel	10	Octubre	2023-10-19T00:00:00	2024-11-08T15:00:00	6	Velocidad del viento	1.6
67186	7	Sololá	710	Panajachel	8	Panajachel	10	Octubre	2023-10-19T00:00:00	2024-11-08T15:00:00	7	Dirección del viento	1.61
67187	7	Sololá	710	Panajachel	8	Panajachel	10	Octubre	2023-10-19T00:00:00	2024-11-08T15:00:00	1	Precipitación	0
67188	7	Sololá	710	Panajachel	8	Panajachel	10	Octubre	2023-10-19T00:00:00	2024-11-08T15:00:00	8	Radiación solar	139
67189	7	Sololá	710	Panajachel	8	Panajachel	10	Octubre	2023-10-19T00:00:00	2024-11-08T16:00:00	2	Temperatura media	20.8
67190	7	Sololá	710	Panajachel	8	Panajachel	10	Octubre	2023-10-19T00:00:00	2024-11-08T16:00:00	4	Temperatura máxima	20.9
67191	7	Sololá	710	Panajachel	8	Panajachel	10	Octubre	2023-10-19T00:00:00	2024-11-08T16:00:00	3	Temperatura mínima	20.7
67192	7	Sololá	710	Panajachel	8	Panajachel	10	Octubre	2023-10-19T00:00:00	2024-11-08T16:00:00	5	Humedad	90
67193	7	Sololá	710	Panajachel	8	Panajachel	10	Octubre	2023-10-19T00:00:00	2024-11-08T16:00:00	6	Velocidad del viento	0
67194	7	Sololá	710	Panajachel	8	Panajachel	10	Octubre	2023-10-19T00:00:00	2024-11-08T16:00:00	7	Dirección del viento	0
67195	7	Sololá	710	Panajachel	8	Panajachel	10	Octubre	2023-10-19T00:00:00	2024-11-08T16:00:00	1	Precipitación	0
67196	7	Sololá	710	Panajachel	8	Panajachel	10	Octubre	2023-10-19T00:00:00	2024-11-08T16:00:00	8	Radiación solar	77
67197	7	Sololá	710	Panajachel	8	Panajachel	10	Octubre	2023-10-19T00:00:00	2024-11-08T17:00:00	2	Temperatura media	20.1
67198	7	Sololá	710	Panajachel	8	Panajachel	10	Octubre	2023-10-19T00:00:00	2024-11-08T17:00:00	4	Temperatura máxima	20.9
67199	7	Sololá	710	Panajachel	8	Panajachel	10	Octubre	2023-10-19T00:00:00	2024-11-08T17:00:00	3	Temperatura mínima	20.1
67200	7	Sololá	710	Panajachel	8	Panajachel	10	Octubre	2023-10-19T00:00:00	2024-11-08T17:00:00	5	Humedad	91
67201	7	Sololá	710	Panajachel	8	Panajachel	10	Octubre	2023-10-19T00:00:00	2024-11-08T17:00:00	6	Velocidad del viento	1.6
67202	7	Sololá	710	Panajachel	8	Panajachel	10	Octubre	2023-10-19T00:00:00	2024-11-08T17:00:00	7	Dirección del viento	1.61
67203	7	Sololá	710	Panajachel	8	Panajachel	10	Octubre	2023-10-19T00:00:00	2024-11-08T17:00:00	1	Precipitación	0
67204	7	Sololá	710	Panajachel	8	Panajachel	10	Octubre	2023-10-19T00:00:00	2024-11-08T17:00:00	8	Radiación solar	58
67205	7	Sololá	710	Panajachel	8	Panajachel	10	Octubre	2023-10-19T00:00:00	2024-11-08T18:00:00	2	Temperatura media	19.8
67206	7	Sololá	710	Panajachel	8	Panajachel	10	Octubre	2023-10-19T00:00:00	2024-11-08T18:00:00	4	Temperatura máxima	20.1
67207	7	Sololá	710	Panajachel	8	Panajachel	10	Octubre	2023-10-19T00:00:00	2024-11-08T18:00:00	3	Temperatura mínima	19.8
67208	7	Sololá	710	Panajachel	8	Panajachel	10	Octubre	2023-10-19T00:00:00	2024-11-08T18:00:00	5	Humedad	92
67209	7	Sololá	710	Panajachel	8	Panajachel	10	Octubre	2023-10-19T00:00:00	2024-11-08T18:00:00	6	Velocidad del viento	0
67210	7	Sololá	710	Panajachel	8	Panajachel	10	Octubre	2023-10-19T00:00:00	2024-11-08T18:00:00	7	Dirección del viento	0
67211	7	Sololá	710	Panajachel	8	Panajachel	10	Octubre	2023-10-19T00:00:00	2024-11-08T18:00:00	1	Precipitación	0
67212	7	Sololá	710	Panajachel	8	Panajachel	10	Octubre	2023-10-19T00:00:00	2024-11-08T18:00:00	8	Radiación solar	5
67213	7	Sololá	710	Panajachel	8	Panajachel	10	Octubre	2023-10-19T00:00:00	2024-11-08T19:00:00	2	Temperatura media	19.3
67214	7	Sololá	710	Panajachel	8	Panajachel	10	Octubre	2023-10-19T00:00:00	2024-11-08T19:00:00	4	Temperatura máxima	19.9
67215	7	Sololá	710	Panajachel	8	Panajachel	10	Octubre	2023-10-19T00:00:00	2024-11-08T19:00:00	3	Temperatura mínima	19.3
67216	7	Sololá	710	Panajachel	8	Panajachel	10	Octubre	2023-10-19T00:00:00	2024-11-08T19:00:00	5	Humedad	93
67217	7	Sololá	710	Panajachel	8	Panajachel	10	Octubre	2023-10-19T00:00:00	2024-11-08T19:00:00	6	Velocidad del viento	0
67218	7	Sololá	710	Panajachel	8	Panajachel	10	Octubre	2023-10-19T00:00:00	2024-11-08T19:00:00	7	Dirección del viento	0
67219	7	Sololá	710	Panajachel	8	Panajachel	10	Octubre	2023-10-19T00:00:00	2024-11-08T19:00:00	1	Precipitación	0
67220	7	Sololá	710	Panajachel	8	Panajachel	10	Octubre	2023-10-19T00:00:00	2024-11-08T19:00:00	8	Radiación solar	0
67221	7	Sololá	710	Panajachel	8	Panajachel	10	Octubre	2023-10-19T00:00:00	2024-11-08T20:00:00	2	Temperatura media	19.4
67222	7	Sololá	710	Panajachel	8	Panajachel	10	Octubre	2023-10-19T00:00:00	2024-11-08T20:00:00	4	Temperatura máxima	19.4
67223	7	Sololá	710	Panajachel	8	Panajachel	10	Octubre	2023-10-19T00:00:00	2024-11-08T20:00:00	3	Temperatura mínima	19.3
67224	7	Sololá	710	Panajachel	8	Panajachel	10	Octubre	2023-10-19T00:00:00	2024-11-08T20:00:00	5	Humedad	92
67225	7	Sololá	710	Panajachel	8	Panajachel	10	Octubre	2023-10-19T00:00:00	2024-11-08T20:00:00	6	Velocidad del viento	0
67226	7	Sololá	710	Panajachel	8	Panajachel	10	Octubre	2023-10-19T00:00:00	2024-11-08T20:00:00	7	Dirección del viento	0
67227	7	Sololá	710	Panajachel	8	Panajachel	10	Octubre	2023-10-19T00:00:00	2024-11-08T20:00:00	1	Precipitación	0
67228	7	Sololá	710	Panajachel	8	Panajachel	10	Octubre	2023-10-19T00:00:00	2024-11-08T20:00:00	8	Radiación solar	0
67229	7	Sololá	710	Panajachel	8	Panajachel	10	Octubre	2023-10-19T00:00:00	2024-11-08T21:00:00	2	Temperatura media	19
67230	7	Sololá	710	Panajachel	8	Panajachel	10	Octubre	2023-10-19T00:00:00	2024-11-08T21:00:00	4	Temperatura máxima	19.5
67231	7	Sololá	710	Panajachel	8	Panajachel	10	Octubre	2023-10-19T00:00:00	2024-11-08T21:00:00	3	Temperatura mínima	18.9
67232	7	Sololá	710	Panajachel	8	Panajachel	10	Octubre	2023-10-19T00:00:00	2024-11-08T21:00:00	5	Humedad	92
67233	7	Sololá	710	Panajachel	8	Panajachel	10	Octubre	2023-10-19T00:00:00	2024-11-08T21:00:00	6	Velocidad del viento	0
67234	7	Sololá	710	Panajachel	8	Panajachel	10	Octubre	2023-10-19T00:00:00	2024-11-08T21:00:00	7	Dirección del viento	0
67235	7	Sololá	710	Panajachel	8	Panajachel	10	Octubre	2023-10-19T00:00:00	2024-11-08T21:00:00	1	Precipitación	0
67236	7	Sololá	710	Panajachel	8	Panajachel	10	Octubre	2023-10-19T00:00:00	2024-11-08T21:00:00	8	Radiación solar	0
67237	7	Sololá	710	Panajachel	8	Panajachel	10	Octubre	2023-10-19T00:00:00	2024-11-08T22:00:00	2	Temperatura media	18.6
67238	7	Sololá	710	Panajachel	8	Panajachel	10	Octubre	2023-10-19T00:00:00	2024-11-08T22:00:00	4	Temperatura máxima	19.2
67239	7	Sololá	710	Panajachel	8	Panajachel	10	Octubre	2023-10-19T00:00:00	2024-11-08T22:00:00	3	Temperatura mínima	18.6
67240	7	Sololá	710	Panajachel	8	Panajachel	10	Octubre	2023-10-19T00:00:00	2024-11-08T22:00:00	5	Humedad	93
67241	7	Sololá	710	Panajachel	8	Panajachel	10	Octubre	2023-10-19T00:00:00	2024-11-08T22:00:00	6	Velocidad del viento	0
67242	7	Sololá	710	Panajachel	8	Panajachel	10	Octubre	2023-10-19T00:00:00	2024-11-08T22:00:00	7	Dirección del viento	0
67243	7	Sololá	710	Panajachel	8	Panajachel	10	Octubre	2023-10-19T00:00:00	2024-11-08T22:00:00	1	Precipitación	0
67244	7	Sololá	710	Panajachel	8	Panajachel	10	Octubre	2023-10-19T00:00:00	2024-11-08T22:00:00	8	Radiación solar	0
67245	7	Sololá	710	Panajachel	8	Panajachel	10	Octubre	2023-10-19T00:00:00	2024-11-08T23:00:00	2	Temperatura media	17.8
67246	7	Sololá	710	Panajachel	8	Panajachel	10	Octubre	2023-10-19T00:00:00	2024-11-08T23:00:00	4	Temperatura máxima	18.6
67247	7	Sololá	710	Panajachel	8	Panajachel	10	Octubre	2023-10-19T00:00:00	2024-11-08T23:00:00	3	Temperatura mínima	17.8
67248	7	Sololá	710	Panajachel	8	Panajachel	10	Octubre	2023-10-19T00:00:00	2024-11-08T23:00:00	5	Humedad	93
67249	7	Sololá	710	Panajachel	8	Panajachel	10	Octubre	2023-10-19T00:00:00	2024-11-08T23:00:00	6	Velocidad del viento	0
67250	7	Sololá	710	Panajachel	8	Panajachel	10	Octubre	2023-10-19T00:00:00	2024-11-08T23:00:00	7	Dirección del viento	0
67251	7	Sololá	710	Panajachel	8	Panajachel	10	Octubre	2023-10-19T00:00:00	2024-11-08T23:00:00	1	Precipitación	0
67252	7	Sololá	710	Panajachel	8	Panajachel	10	Octubre	2023-10-19T00:00:00	2024-11-08T23:00:00	8	Radiación solar	0
67253	7	Sololá	710	Panajachel	8	Panajachel	10	Octubre	2023-10-20T00:00:00	2024-11-08T00:00:00	2	Temperatura media	17.6
67254	7	Sololá	710	Panajachel	8	Panajachel	10	Octubre	2023-10-20T00:00:00	2024-11-08T00:00:00	4	Temperatura máxima	17.8
67255	7	Sololá	710	Panajachel	8	Panajachel	10	Octubre	2023-10-20T00:00:00	2024-11-08T00:00:00	3	Temperatura mínima	17.5
67256	7	Sololá	710	Panajachel	8	Panajachel	10	Octubre	2023-10-20T00:00:00	2024-11-08T00:00:00	5	Humedad	92
67257	7	Sololá	710	Panajachel	8	Panajachel	10	Octubre	2023-10-20T00:00:00	2024-11-08T00:00:00	6	Velocidad del viento	0
67258	7	Sololá	710	Panajachel	8	Panajachel	10	Octubre	2023-10-20T00:00:00	2024-11-08T00:00:00	7	Dirección del viento	0
67259	7	Sololá	710	Panajachel	8	Panajachel	10	Octubre	2023-10-20T00:00:00	2024-11-08T00:00:00	1	Precipitación	0
67260	7	Sololá	710	Panajachel	8	Panajachel	10	Octubre	2023-10-20T00:00:00	2024-11-08T00:00:00	8	Radiación solar	0
67261	7	Sololá	710	Panajachel	8	Panajachel	10	Octubre	2023-10-20T00:00:00	2024-11-08T01:00:00	2	Temperatura media	17.5
67262	7	Sololá	710	Panajachel	8	Panajachel	10	Octubre	2023-10-20T00:00:00	2024-11-08T01:00:00	4	Temperatura máxima	17.8
67263	7	Sololá	710	Panajachel	8	Panajachel	10	Octubre	2023-10-20T00:00:00	2024-11-08T01:00:00	3	Temperatura mínima	17.5
67264	7	Sololá	710	Panajachel	8	Panajachel	10	Octubre	2023-10-20T00:00:00	2024-11-08T01:00:00	5	Humedad	91
67265	7	Sololá	710	Panajachel	8	Panajachel	10	Octubre	2023-10-20T00:00:00	2024-11-08T01:00:00	6	Velocidad del viento	0
67266	7	Sololá	710	Panajachel	8	Panajachel	10	Octubre	2023-10-20T00:00:00	2024-11-08T01:00:00	7	Dirección del viento	0
67267	7	Sololá	710	Panajachel	8	Panajachel	10	Octubre	2023-10-20T00:00:00	2024-11-08T01:00:00	1	Precipitación	0
67268	7	Sololá	710	Panajachel	8	Panajachel	10	Octubre	2023-10-20T00:00:00	2024-11-08T01:00:00	8	Radiación solar	0
67269	7	Sololá	710	Panajachel	8	Panajachel	10	Octubre	2023-10-20T00:00:00	2024-11-08T02:00:00	2	Temperatura media	17.5
67270	7	Sololá	710	Panajachel	8	Panajachel	10	Octubre	2023-10-20T00:00:00	2024-11-08T02:00:00	4	Temperatura máxima	17.6
67271	7	Sololá	710	Panajachel	8	Panajachel	10	Octubre	2023-10-20T00:00:00	2024-11-08T02:00:00	3	Temperatura mínima	17.4
67272	7	Sololá	710	Panajachel	8	Panajachel	10	Octubre	2023-10-20T00:00:00	2024-11-08T02:00:00	5	Humedad	91
67273	7	Sololá	710	Panajachel	8	Panajachel	10	Octubre	2023-10-20T00:00:00	2024-11-08T02:00:00	6	Velocidad del viento	0
67274	7	Sololá	710	Panajachel	8	Panajachel	10	Octubre	2023-10-20T00:00:00	2024-11-08T02:00:00	7	Dirección del viento	0
67275	7	Sololá	710	Panajachel	8	Panajachel	10	Octubre	2023-10-20T00:00:00	2024-11-08T02:00:00	1	Precipitación	0
67276	7	Sololá	710	Panajachel	8	Panajachel	10	Octubre	2023-10-20T00:00:00	2024-11-08T02:00:00	8	Radiación solar	0
67277	7	Sololá	710	Panajachel	8	Panajachel	10	Octubre	2023-10-20T00:00:00	2024-11-08T03:00:00	2	Temperatura media	17.1
67278	7	Sololá	710	Panajachel	8	Panajachel	10	Octubre	2023-10-20T00:00:00	2024-11-08T03:00:00	4	Temperatura máxima	17.5
67279	7	Sololá	710	Panajachel	8	Panajachel	10	Octubre	2023-10-20T00:00:00	2024-11-08T03:00:00	3	Temperatura mínima	17
67280	7	Sololá	710	Panajachel	8	Panajachel	10	Octubre	2023-10-20T00:00:00	2024-11-08T03:00:00	5	Humedad	90
67281	7	Sololá	710	Panajachel	8	Panajachel	10	Octubre	2023-10-20T00:00:00	2024-11-08T03:00:00	6	Velocidad del viento	0
67282	7	Sololá	710	Panajachel	8	Panajachel	10	Octubre	2023-10-20T00:00:00	2024-11-08T03:00:00	7	Dirección del viento	0
67283	7	Sololá	710	Panajachel	8	Panajachel	10	Octubre	2023-10-20T00:00:00	2024-11-08T03:00:00	1	Precipitación	0
67284	7	Sololá	710	Panajachel	8	Panajachel	10	Octubre	2023-10-20T00:00:00	2024-11-08T03:00:00	8	Radiación solar	0
67285	7	Sololá	710	Panajachel	8	Panajachel	10	Octubre	2023-10-20T00:00:00	2024-11-08T04:00:00	2	Temperatura media	16.3
67286	7	Sololá	710	Panajachel	8	Panajachel	10	Octubre	2023-10-20T00:00:00	2024-11-08T04:00:00	4	Temperatura máxima	17.2
67287	7	Sololá	710	Panajachel	8	Panajachel	10	Octubre	2023-10-20T00:00:00	2024-11-08T04:00:00	3	Temperatura mínima	16.3
67288	7	Sololá	710	Panajachel	8	Panajachel	10	Octubre	2023-10-20T00:00:00	2024-11-08T04:00:00	5	Humedad	91
67289	7	Sololá	710	Panajachel	8	Panajachel	10	Octubre	2023-10-20T00:00:00	2024-11-08T04:00:00	6	Velocidad del viento	0
67290	7	Sololá	710	Panajachel	8	Panajachel	10	Octubre	2023-10-20T00:00:00	2024-11-08T04:00:00	7	Dirección del viento	0
67291	7	Sololá	710	Panajachel	8	Panajachel	10	Octubre	2023-10-20T00:00:00	2024-11-08T04:00:00	1	Precipitación	0
67292	7	Sololá	710	Panajachel	8	Panajachel	10	Octubre	2023-10-20T00:00:00	2024-11-08T04:00:00	8	Radiación solar	0
67293	7	Sololá	710	Panajachel	8	Panajachel	10	Octubre	2023-10-20T00:00:00	2024-11-08T05:00:00	2	Temperatura media	16.2
67294	7	Sololá	710	Panajachel	8	Panajachel	10	Octubre	2023-10-20T00:00:00	2024-11-08T05:00:00	4	Temperatura máxima	16.4
67295	7	Sololá	710	Panajachel	8	Panajachel	10	Octubre	2023-10-20T00:00:00	2024-11-08T05:00:00	3	Temperatura mínima	16.1
67296	7	Sololá	710	Panajachel	8	Panajachel	10	Octubre	2023-10-20T00:00:00	2024-11-08T05:00:00	5	Humedad	90
67297	7	Sololá	710	Panajachel	8	Panajachel	10	Octubre	2023-10-20T00:00:00	2024-11-08T05:00:00	6	Velocidad del viento	0
67298	7	Sololá	710	Panajachel	8	Panajachel	10	Octubre	2023-10-20T00:00:00	2024-11-08T05:00:00	7	Dirección del viento	0
67299	7	Sololá	710	Panajachel	8	Panajachel	10	Octubre	2023-10-20T00:00:00	2024-11-08T05:00:00	1	Precipitación	0
67300	7	Sololá	710	Panajachel	8	Panajachel	10	Octubre	2023-10-20T00:00:00	2024-11-08T05:00:00	8	Radiación solar	0
67301	7	Sololá	710	Panajachel	8	Panajachel	10	Octubre	2023-10-20T00:00:00	2024-11-08T06:00:00	2	Temperatura media	15.8
67302	7	Sololá	710	Panajachel	8	Panajachel	10	Octubre	2023-10-20T00:00:00	2024-11-08T06:00:00	4	Temperatura máxima	16.7
67303	7	Sololá	710	Panajachel	8	Panajachel	10	Octubre	2023-10-20T00:00:00	2024-11-08T06:00:00	3	Temperatura mínima	15.8
67304	7	Sololá	710	Panajachel	8	Panajachel	10	Octubre	2023-10-20T00:00:00	2024-11-08T06:00:00	5	Humedad	92
67305	7	Sololá	710	Panajachel	8	Panajachel	10	Octubre	2023-10-20T00:00:00	2024-11-08T06:00:00	6	Velocidad del viento	0
67306	7	Sololá	710	Panajachel	8	Panajachel	10	Octubre	2023-10-20T00:00:00	2024-11-08T06:00:00	7	Dirección del viento	0
67307	7	Sololá	710	Panajachel	8	Panajachel	10	Octubre	2023-10-20T00:00:00	2024-11-08T06:00:00	1	Precipitación	0
67308	7	Sololá	710	Panajachel	8	Panajachel	10	Octubre	2023-10-20T00:00:00	2024-11-08T06:00:00	8	Radiación solar	0
67309	7	Sololá	710	Panajachel	8	Panajachel	10	Octubre	2023-10-20T00:00:00	2024-11-08T07:00:00	2	Temperatura media	17.2
67310	7	Sololá	710	Panajachel	8	Panajachel	10	Octubre	2023-10-20T00:00:00	2024-11-08T07:00:00	4	Temperatura máxima	17.2
67311	7	Sololá	710	Panajachel	8	Panajachel	10	Octubre	2023-10-20T00:00:00	2024-11-08T07:00:00	3	Temperatura mínima	15.8
67312	7	Sololá	710	Panajachel	8	Panajachel	10	Octubre	2023-10-20T00:00:00	2024-11-08T07:00:00	5	Humedad	88
67313	7	Sololá	710	Panajachel	8	Panajachel	10	Octubre	2023-10-20T00:00:00	2024-11-08T07:00:00	6	Velocidad del viento	0
67314	7	Sololá	710	Panajachel	8	Panajachel	10	Octubre	2023-10-20T00:00:00	2024-11-08T07:00:00	7	Dirección del viento	0
67315	7	Sololá	710	Panajachel	8	Panajachel	10	Octubre	2023-10-20T00:00:00	2024-11-08T07:00:00	1	Precipitación	0
67316	7	Sololá	710	Panajachel	8	Panajachel	10	Octubre	2023-10-20T00:00:00	2024-11-08T07:00:00	8	Radiación solar	45
67317	7	Sololá	710	Panajachel	8	Panajachel	10	Octubre	2023-10-20T00:00:00	2024-11-08T08:00:00	2	Temperatura media	20.5
67318	7	Sololá	710	Panajachel	8	Panajachel	10	Octubre	2023-10-20T00:00:00	2024-11-08T08:00:00	4	Temperatura máxima	20.5
67319	7	Sololá	710	Panajachel	8	Panajachel	10	Octubre	2023-10-20T00:00:00	2024-11-08T08:00:00	3	Temperatura mínima	17.2
67320	7	Sololá	710	Panajachel	8	Panajachel	10	Octubre	2023-10-20T00:00:00	2024-11-08T08:00:00	5	Humedad	78
67321	7	Sololá	710	Panajachel	8	Panajachel	10	Octubre	2023-10-20T00:00:00	2024-11-08T08:00:00	6	Velocidad del viento	0
67322	7	Sololá	710	Panajachel	8	Panajachel	10	Octubre	2023-10-20T00:00:00	2024-11-08T08:00:00	7	Dirección del viento	0
67323	7	Sololá	710	Panajachel	8	Panajachel	10	Octubre	2023-10-20T00:00:00	2024-11-08T08:00:00	1	Precipitación	0
67324	7	Sololá	710	Panajachel	8	Panajachel	10	Octubre	2023-10-20T00:00:00	2024-11-08T08:00:00	8	Radiación solar	230
67325	7	Sololá	710	Panajachel	8	Panajachel	10	Octubre	2023-10-20T00:00:00	2024-11-08T09:00:00	2	Temperatura media	20.6
67326	7	Sololá	710	Panajachel	8	Panajachel	10	Octubre	2023-10-20T00:00:00	2024-11-08T09:00:00	4	Temperatura máxima	21.9
67327	7	Sololá	710	Panajachel	8	Panajachel	10	Octubre	2023-10-20T00:00:00	2024-11-08T09:00:00	3	Temperatura mínima	20.5
67328	7	Sololá	710	Panajachel	8	Panajachel	10	Octubre	2023-10-20T00:00:00	2024-11-08T09:00:00	5	Humedad	82
67329	7	Sololá	710	Panajachel	8	Panajachel	10	Octubre	2023-10-20T00:00:00	2024-11-08T09:00:00	6	Velocidad del viento	1.6
67330	7	Sololá	710	Panajachel	8	Panajachel	10	Octubre	2023-10-20T00:00:00	2024-11-08T09:00:00	7	Dirección del viento	1.61
67331	7	Sololá	710	Panajachel	8	Panajachel	10	Octubre	2023-10-20T00:00:00	2024-11-08T09:00:00	1	Precipitación	0
67332	7	Sololá	710	Panajachel	8	Panajachel	10	Octubre	2023-10-20T00:00:00	2024-11-08T09:00:00	8	Radiación solar	463
67333	7	Sololá	710	Panajachel	8	Panajachel	10	Octubre	2023-10-20T00:00:00	2024-11-08T10:00:00	2	Temperatura media	21.3
67334	7	Sololá	710	Panajachel	8	Panajachel	10	Octubre	2023-10-20T00:00:00	2024-11-08T10:00:00	4	Temperatura máxima	21.5
67335	7	Sololá	710	Panajachel	8	Panajachel	10	Octubre	2023-10-20T00:00:00	2024-11-08T10:00:00	3	Temperatura mínima	20.6
67336	7	Sololá	710	Panajachel	8	Panajachel	10	Octubre	2023-10-20T00:00:00	2024-11-08T10:00:00	5	Humedad	78
67337	7	Sololá	710	Panajachel	8	Panajachel	10	Octubre	2023-10-20T00:00:00	2024-11-08T10:00:00	6	Velocidad del viento	1.6
67338	7	Sololá	710	Panajachel	8	Panajachel	10	Octubre	2023-10-20T00:00:00	2024-11-08T10:00:00	7	Dirección del viento	1.61
67339	7	Sololá	710	Panajachel	8	Panajachel	10	Octubre	2023-10-20T00:00:00	2024-11-08T10:00:00	1	Precipitación	0
67340	7	Sololá	710	Panajachel	8	Panajachel	10	Octubre	2023-10-20T00:00:00	2024-11-08T10:00:00	8	Radiación solar	613
67341	7	Sololá	710	Panajachel	8	Panajachel	10	Octubre	2023-10-20T00:00:00	2024-11-08T11:00:00	2	Temperatura media	23.4
67342	7	Sololá	710	Panajachel	8	Panajachel	10	Octubre	2023-10-20T00:00:00	2024-11-08T11:00:00	4	Temperatura máxima	23.7
67343	7	Sololá	710	Panajachel	8	Panajachel	10	Octubre	2023-10-20T00:00:00	2024-11-08T11:00:00	3	Temperatura mínima	21.3
67344	7	Sololá	710	Panajachel	8	Panajachel	10	Octubre	2023-10-20T00:00:00	2024-11-08T11:00:00	5	Humedad	71
67345	7	Sololá	710	Panajachel	8	Panajachel	10	Octubre	2023-10-20T00:00:00	2024-11-08T11:00:00	6	Velocidad del viento	0
67346	7	Sololá	710	Panajachel	8	Panajachel	10	Octubre	2023-10-20T00:00:00	2024-11-08T11:00:00	7	Dirección del viento	0
67347	7	Sololá	710	Panajachel	8	Panajachel	10	Octubre	2023-10-20T00:00:00	2024-11-08T11:00:00	1	Precipitación	0
67348	7	Sololá	710	Panajachel	8	Panajachel	10	Octubre	2023-10-20T00:00:00	2024-11-08T11:00:00	8	Radiación solar	784
67349	7	Sololá	710	Panajachel	8	Panajachel	10	Octubre	2023-10-20T00:00:00	2024-11-08T12:00:00	2	Temperatura media	23.7
67350	7	Sololá	710	Panajachel	8	Panajachel	10	Octubre	2023-10-20T00:00:00	2024-11-08T12:00:00	4	Temperatura máxima	23.7
67351	7	Sololá	710	Panajachel	8	Panajachel	10	Octubre	2023-10-20T00:00:00	2024-11-08T12:00:00	3	Temperatura mínima	22.5
67352	7	Sololá	710	Panajachel	8	Panajachel	10	Octubre	2023-10-20T00:00:00	2024-11-08T12:00:00	5	Humedad	78
67353	7	Sololá	710	Panajachel	8	Panajachel	10	Octubre	2023-10-20T00:00:00	2024-11-08T12:00:00	6	Velocidad del viento	0
67354	7	Sololá	710	Panajachel	8	Panajachel	10	Octubre	2023-10-20T00:00:00	2024-11-08T12:00:00	7	Dirección del viento	0
67355	7	Sololá	710	Panajachel	8	Panajachel	10	Octubre	2023-10-20T00:00:00	2024-11-08T12:00:00	1	Precipitación	0
67356	7	Sololá	710	Panajachel	8	Panajachel	10	Octubre	2023-10-20T00:00:00	2024-11-08T12:00:00	8	Radiación solar	639
67357	7	Sololá	710	Panajachel	8	Panajachel	10	Octubre	2023-10-20T00:00:00	2024-11-08T13:00:00	2	Temperatura media	22.1
67358	7	Sololá	710	Panajachel	8	Panajachel	10	Octubre	2023-10-20T00:00:00	2024-11-08T13:00:00	4	Temperatura máxima	23.7
67359	7	Sololá	710	Panajachel	8	Panajachel	10	Octubre	2023-10-20T00:00:00	2024-11-08T13:00:00	3	Temperatura mínima	21.9
67360	7	Sololá	710	Panajachel	8	Panajachel	10	Octubre	2023-10-20T00:00:00	2024-11-08T13:00:00	5	Humedad	83
67361	7	Sololá	710	Panajachel	8	Panajachel	10	Octubre	2023-10-20T00:00:00	2024-11-08T13:00:00	6	Velocidad del viento	1.6
67362	7	Sololá	710	Panajachel	8	Panajachel	10	Octubre	2023-10-20T00:00:00	2024-11-08T13:00:00	7	Dirección del viento	1.61
67363	7	Sololá	710	Panajachel	8	Panajachel	10	Octubre	2023-10-20T00:00:00	2024-11-08T13:00:00	1	Precipitación	0
67364	7	Sololá	710	Panajachel	8	Panajachel	10	Octubre	2023-10-20T00:00:00	2024-11-08T13:00:00	8	Radiación solar	327
67365	7	Sololá	710	Panajachel	8	Panajachel	10	Octubre	2023-10-20T00:00:00	2024-11-08T14:00:00	2	Temperatura media	22.4
67366	7	Sololá	710	Panajachel	8	Panajachel	10	Octubre	2023-10-20T00:00:00	2024-11-08T14:00:00	4	Temperatura máxima	23.3
67367	7	Sololá	710	Panajachel	8	Panajachel	10	Octubre	2023-10-20T00:00:00	2024-11-08T14:00:00	3	Temperatura mínima	22.1
67368	7	Sololá	710	Panajachel	8	Panajachel	10	Octubre	2023-10-20T00:00:00	2024-11-08T14:00:00	5	Humedad	82
67369	7	Sololá	710	Panajachel	8	Panajachel	10	Octubre	2023-10-20T00:00:00	2024-11-08T14:00:00	6	Velocidad del viento	1.6
67370	7	Sololá	710	Panajachel	8	Panajachel	10	Octubre	2023-10-20T00:00:00	2024-11-08T14:00:00	7	Dirección del viento	1.61
67371	7	Sololá	710	Panajachel	8	Panajachel	10	Octubre	2023-10-20T00:00:00	2024-11-08T14:00:00	1	Precipitación	0
67372	7	Sololá	710	Panajachel	8	Panajachel	10	Octubre	2023-10-20T00:00:00	2024-11-08T14:00:00	8	Radiación solar	490
67373	7	Sololá	710	Panajachel	8	Panajachel	10	Octubre	2023-10-20T00:00:00	2024-11-08T15:00:00	2	Temperatura media	21.9
67374	7	Sololá	710	Panajachel	8	Panajachel	10	Octubre	2023-10-20T00:00:00	2024-11-08T15:00:00	4	Temperatura máxima	22.6
67375	7	Sololá	710	Panajachel	8	Panajachel	10	Octubre	2023-10-20T00:00:00	2024-11-08T15:00:00	3	Temperatura mínima	21.9
67376	7	Sololá	710	Panajachel	8	Panajachel	10	Octubre	2023-10-20T00:00:00	2024-11-08T15:00:00	5	Humedad	85
67377	7	Sololá	710	Panajachel	8	Panajachel	10	Octubre	2023-10-20T00:00:00	2024-11-08T15:00:00	6	Velocidad del viento	0
67378	7	Sololá	710	Panajachel	8	Panajachel	10	Octubre	2023-10-20T00:00:00	2024-11-08T15:00:00	7	Dirección del viento	0
67379	7	Sololá	710	Panajachel	8	Panajachel	10	Octubre	2023-10-20T00:00:00	2024-11-08T15:00:00	1	Precipitación	0
67380	7	Sololá	710	Panajachel	8	Panajachel	10	Octubre	2023-10-20T00:00:00	2024-11-08T15:00:00	8	Radiación solar	277
67381	7	Sololá	710	Panajachel	8	Panajachel	10	Octubre	2023-10-20T00:00:00	2024-11-08T16:00:00	2	Temperatura media	22.7
67382	7	Sololá	710	Panajachel	8	Panajachel	10	Octubre	2023-10-20T00:00:00	2024-11-08T16:00:00	4	Temperatura máxima	22.8
67383	7	Sololá	710	Panajachel	8	Panajachel	10	Octubre	2023-10-20T00:00:00	2024-11-08T16:00:00	3	Temperatura mínima	21.1
67384	7	Sololá	710	Panajachel	8	Panajachel	10	Octubre	2023-10-20T00:00:00	2024-11-08T16:00:00	5	Humedad	81
67385	7	Sololá	710	Panajachel	8	Panajachel	10	Octubre	2023-10-20T00:00:00	2024-11-08T16:00:00	6	Velocidad del viento	1.6
67386	7	Sololá	710	Panajachel	8	Panajachel	10	Octubre	2023-10-20T00:00:00	2024-11-08T16:00:00	7	Dirección del viento	1.61
67387	7	Sololá	710	Panajachel	8	Panajachel	10	Octubre	2023-10-20T00:00:00	2024-11-08T16:00:00	1	Precipitación	0
67388	7	Sololá	710	Panajachel	8	Panajachel	10	Octubre	2023-10-20T00:00:00	2024-11-08T16:00:00	8	Radiación solar	204
67389	7	Sololá	710	Panajachel	8	Panajachel	10	Octubre	2023-10-20T00:00:00	2024-11-08T17:00:00	2	Temperatura media	22.3
67390	7	Sololá	710	Panajachel	8	Panajachel	10	Octubre	2023-10-20T00:00:00	2024-11-08T17:00:00	4	Temperatura máxima	23.4
67391	7	Sololá	710	Panajachel	8	Panajachel	10	Octubre	2023-10-20T00:00:00	2024-11-08T17:00:00	3	Temperatura mínima	22.3
67392	7	Sololá	710	Panajachel	8	Panajachel	10	Octubre	2023-10-20T00:00:00	2024-11-08T17:00:00	5	Humedad	83
67393	7	Sololá	710	Panajachel	8	Panajachel	10	Octubre	2023-10-20T00:00:00	2024-11-08T17:00:00	6	Velocidad del viento	0
67394	7	Sololá	710	Panajachel	8	Panajachel	10	Octubre	2023-10-20T00:00:00	2024-11-08T17:00:00	7	Dirección del viento	0
67395	7	Sololá	710	Panajachel	8	Panajachel	10	Octubre	2023-10-20T00:00:00	2024-11-08T17:00:00	1	Precipitación	0
67396	7	Sololá	710	Panajachel	8	Panajachel	10	Octubre	2023-10-20T00:00:00	2024-11-08T17:00:00	8	Radiación solar	284
67397	7	Sololá	710	Panajachel	8	Panajachel	10	Octubre	2023-10-20T00:00:00	2024-11-08T18:00:00	2	Temperatura media	21.1
67398	7	Sololá	710	Panajachel	8	Panajachel	10	Octubre	2023-10-20T00:00:00	2024-11-08T18:00:00	4	Temperatura máxima	22.3
67399	7	Sololá	710	Panajachel	8	Panajachel	10	Octubre	2023-10-20T00:00:00	2024-11-08T18:00:00	3	Temperatura mínima	21.1
67400	7	Sololá	710	Panajachel	8	Panajachel	10	Octubre	2023-10-20T00:00:00	2024-11-08T18:00:00	5	Humedad	89
67401	7	Sololá	710	Panajachel	8	Panajachel	10	Octubre	2023-10-20T00:00:00	2024-11-08T18:00:00	6	Velocidad del viento	0
67402	7	Sololá	710	Panajachel	8	Panajachel	10	Octubre	2023-10-20T00:00:00	2024-11-08T18:00:00	7	Dirección del viento	0
67403	7	Sololá	710	Panajachel	8	Panajachel	10	Octubre	2023-10-20T00:00:00	2024-11-08T18:00:00	1	Precipitación	0
67404	7	Sololá	710	Panajachel	8	Panajachel	10	Octubre	2023-10-20T00:00:00	2024-11-08T18:00:00	8	Radiación solar	20
67405	7	Sololá	710	Panajachel	8	Panajachel	10	Octubre	2023-10-20T00:00:00	2024-11-08T19:00:00	2	Temperatura media	20.4
67406	7	Sololá	710	Panajachel	8	Panajachel	10	Octubre	2023-10-20T00:00:00	2024-11-08T19:00:00	4	Temperatura máxima	21.1
67407	7	Sololá	710	Panajachel	8	Panajachel	10	Octubre	2023-10-20T00:00:00	2024-11-08T19:00:00	3	Temperatura mínima	20.4
67408	7	Sololá	710	Panajachel	8	Panajachel	10	Octubre	2023-10-20T00:00:00	2024-11-08T19:00:00	5	Humedad	90
67409	7	Sololá	710	Panajachel	8	Panajachel	10	Octubre	2023-10-20T00:00:00	2024-11-08T19:00:00	6	Velocidad del viento	0
67410	7	Sololá	710	Panajachel	8	Panajachel	10	Octubre	2023-10-20T00:00:00	2024-11-08T19:00:00	7	Dirección del viento	0
67411	7	Sololá	710	Panajachel	8	Panajachel	10	Octubre	2023-10-20T00:00:00	2024-11-08T19:00:00	1	Precipitación	0
67412	7	Sololá	710	Panajachel	8	Panajachel	10	Octubre	2023-10-20T00:00:00	2024-11-08T19:00:00	8	Radiación solar	0
67413	7	Sololá	710	Panajachel	8	Panajachel	10	Octubre	2023-10-20T00:00:00	2024-11-08T20:00:00	2	Temperatura media	19.2
67414	7	Sololá	710	Panajachel	8	Panajachel	10	Octubre	2023-10-20T00:00:00	2024-11-08T20:00:00	4	Temperatura máxima	20.4
67415	7	Sololá	710	Panajachel	8	Panajachel	10	Octubre	2023-10-20T00:00:00	2024-11-08T20:00:00	3	Temperatura mínima	19.1
67416	7	Sololá	710	Panajachel	8	Panajachel	10	Octubre	2023-10-20T00:00:00	2024-11-08T20:00:00	5	Humedad	86
67417	7	Sololá	710	Panajachel	8	Panajachel	10	Octubre	2023-10-20T00:00:00	2024-11-08T20:00:00	6	Velocidad del viento	0
67418	7	Sololá	710	Panajachel	8	Panajachel	10	Octubre	2023-10-20T00:00:00	2024-11-08T20:00:00	7	Dirección del viento	0
67419	7	Sololá	710	Panajachel	8	Panajachel	10	Octubre	2023-10-20T00:00:00	2024-11-08T20:00:00	1	Precipitación	0
67420	7	Sololá	710	Panajachel	8	Panajachel	10	Octubre	2023-10-20T00:00:00	2024-11-08T20:00:00	8	Radiación solar	0
67421	7	Sololá	710	Panajachel	8	Panajachel	10	Octubre	2023-10-20T00:00:00	2024-11-08T21:00:00	2	Temperatura media	17.9
67422	7	Sololá	710	Panajachel	8	Panajachel	10	Octubre	2023-10-20T00:00:00	2024-11-08T21:00:00	4	Temperatura máxima	19.2
67423	7	Sololá	710	Panajachel	8	Panajachel	10	Octubre	2023-10-20T00:00:00	2024-11-08T21:00:00	3	Temperatura mínima	17.9
67424	7	Sololá	710	Panajachel	8	Panajachel	10	Octubre	2023-10-20T00:00:00	2024-11-08T21:00:00	5	Humedad	88
67425	7	Sololá	710	Panajachel	8	Panajachel	10	Octubre	2023-10-20T00:00:00	2024-11-08T21:00:00	6	Velocidad del viento	0
67426	7	Sololá	710	Panajachel	8	Panajachel	10	Octubre	2023-10-20T00:00:00	2024-11-08T21:00:00	7	Dirección del viento	0
67427	7	Sololá	710	Panajachel	8	Panajachel	10	Octubre	2023-10-20T00:00:00	2024-11-08T21:00:00	1	Precipitación	0
67428	7	Sololá	710	Panajachel	8	Panajachel	10	Octubre	2023-10-20T00:00:00	2024-11-08T21:00:00	8	Radiación solar	0
67429	7	Sololá	710	Panajachel	8	Panajachel	10	Octubre	2023-10-20T00:00:00	2024-11-08T22:00:00	2	Temperatura media	17.5
67430	7	Sololá	710	Panajachel	8	Panajachel	10	Octubre	2023-10-20T00:00:00	2024-11-08T22:00:00	4	Temperatura máxima	17.9
67431	7	Sololá	710	Panajachel	8	Panajachel	10	Octubre	2023-10-20T00:00:00	2024-11-08T22:00:00	3	Temperatura mínima	17.4
67432	7	Sololá	710	Panajachel	8	Panajachel	10	Octubre	2023-10-20T00:00:00	2024-11-08T22:00:00	5	Humedad	88
67433	7	Sololá	710	Panajachel	8	Panajachel	10	Octubre	2023-10-20T00:00:00	2024-11-08T22:00:00	6	Velocidad del viento	0
67434	7	Sololá	710	Panajachel	8	Panajachel	10	Octubre	2023-10-20T00:00:00	2024-11-08T22:00:00	7	Dirección del viento	0
67435	7	Sololá	710	Panajachel	8	Panajachel	10	Octubre	2023-10-20T00:00:00	2024-11-08T22:00:00	1	Precipitación	0
67436	7	Sololá	710	Panajachel	8	Panajachel	10	Octubre	2023-10-20T00:00:00	2024-11-08T22:00:00	8	Radiación solar	0
67437	7	Sololá	710	Panajachel	8	Panajachel	10	Octubre	2023-10-20T00:00:00	2024-11-08T23:00:00	2	Temperatura media	18.3
67438	7	Sololá	710	Panajachel	8	Panajachel	10	Octubre	2023-10-20T00:00:00	2024-11-08T23:00:00	4	Temperatura máxima	18.3
67439	7	Sololá	710	Panajachel	8	Panajachel	10	Octubre	2023-10-20T00:00:00	2024-11-08T23:00:00	3	Temperatura mínima	17.4
67440	7	Sololá	710	Panajachel	8	Panajachel	10	Octubre	2023-10-20T00:00:00	2024-11-08T23:00:00	5	Humedad	84
67441	7	Sololá	710	Panajachel	8	Panajachel	10	Octubre	2023-10-20T00:00:00	2024-11-08T23:00:00	6	Velocidad del viento	0
67442	7	Sololá	710	Panajachel	8	Panajachel	10	Octubre	2023-10-20T00:00:00	2024-11-08T23:00:00	7	Dirección del viento	0
67443	7	Sololá	710	Panajachel	8	Panajachel	10	Octubre	2023-10-20T00:00:00	2024-11-08T23:00:00	1	Precipitación	0
67444	7	Sololá	710	Panajachel	8	Panajachel	10	Octubre	2023-10-20T00:00:00	2024-11-08T23:00:00	8	Radiación solar	0
67445	7	Sololá	710	Panajachel	8	Panajachel	10	Octubre	2023-10-21T00:00:00	2024-11-08T00:00:00	2	Temperatura media	17.4
67446	7	Sololá	710	Panajachel	8	Panajachel	10	Octubre	2023-10-21T00:00:00	2024-11-08T00:00:00	4	Temperatura máxima	18.3
67447	7	Sololá	710	Panajachel	8	Panajachel	10	Octubre	2023-10-21T00:00:00	2024-11-08T00:00:00	3	Temperatura mínima	17.4
67448	7	Sololá	710	Panajachel	8	Panajachel	10	Octubre	2023-10-21T00:00:00	2024-11-08T00:00:00	5	Humedad	86
67449	7	Sololá	710	Panajachel	8	Panajachel	10	Octubre	2023-10-21T00:00:00	2024-11-08T00:00:00	6	Velocidad del viento	0
67450	7	Sololá	710	Panajachel	8	Panajachel	10	Octubre	2023-10-21T00:00:00	2024-11-08T00:00:00	7	Dirección del viento	0
67451	7	Sololá	710	Panajachel	8	Panajachel	10	Octubre	2023-10-21T00:00:00	2024-11-08T00:00:00	1	Precipitación	0
67452	7	Sololá	710	Panajachel	8	Panajachel	10	Octubre	2023-10-21T00:00:00	2024-11-08T00:00:00	8	Radiación solar	0
67453	7	Sololá	710	Panajachel	8	Panajachel	10	Octubre	2023-10-21T00:00:00	2024-11-08T01:00:00	2	Temperatura media	17.5
67454	7	Sololá	710	Panajachel	8	Panajachel	10	Octubre	2023-10-21T00:00:00	2024-11-08T01:00:00	4	Temperatura máxima	17.6
67455	7	Sololá	710	Panajachel	8	Panajachel	10	Octubre	2023-10-21T00:00:00	2024-11-08T01:00:00	3	Temperatura mínima	17.4
67456	7	Sololá	710	Panajachel	8	Panajachel	10	Octubre	2023-10-21T00:00:00	2024-11-08T01:00:00	5	Humedad	85
67457	7	Sololá	710	Panajachel	8	Panajachel	10	Octubre	2023-10-21T00:00:00	2024-11-08T01:00:00	6	Velocidad del viento	0
67458	7	Sololá	710	Panajachel	8	Panajachel	10	Octubre	2023-10-21T00:00:00	2024-11-08T01:00:00	7	Dirección del viento	0
67459	7	Sololá	710	Panajachel	8	Panajachel	10	Octubre	2023-10-21T00:00:00	2024-11-08T01:00:00	1	Precipitación	0
67460	7	Sololá	710	Panajachel	8	Panajachel	10	Octubre	2023-10-21T00:00:00	2024-11-08T01:00:00	8	Radiación solar	0
67461	7	Sololá	710	Panajachel	8	Panajachel	10	Octubre	2023-10-21T00:00:00	2024-11-08T02:00:00	2	Temperatura media	16.9
67462	7	Sololá	710	Panajachel	8	Panajachel	10	Octubre	2023-10-21T00:00:00	2024-11-08T02:00:00	4	Temperatura máxima	17.6
67463	7	Sololá	710	Panajachel	8	Panajachel	10	Octubre	2023-10-21T00:00:00	2024-11-08T02:00:00	3	Temperatura mínima	16.9
67464	7	Sololá	710	Panajachel	8	Panajachel	10	Octubre	2023-10-21T00:00:00	2024-11-08T02:00:00	5	Humedad	86
67465	7	Sololá	710	Panajachel	8	Panajachel	10	Octubre	2023-10-21T00:00:00	2024-11-08T02:00:00	6	Velocidad del viento	0
67466	7	Sololá	710	Panajachel	8	Panajachel	10	Octubre	2023-10-21T00:00:00	2024-11-08T02:00:00	7	Dirección del viento	0
67467	7	Sololá	710	Panajachel	8	Panajachel	10	Octubre	2023-10-21T00:00:00	2024-11-08T02:00:00	1	Precipitación	0
67468	7	Sololá	710	Panajachel	8	Panajachel	10	Octubre	2023-10-21T00:00:00	2024-11-08T02:00:00	8	Radiación solar	0
67469	7	Sololá	710	Panajachel	8	Panajachel	10	Octubre	2023-10-21T00:00:00	2024-11-08T03:00:00	2	Temperatura media	16.3
67470	7	Sololá	710	Panajachel	8	Panajachel	10	Octubre	2023-10-21T00:00:00	2024-11-08T03:00:00	4	Temperatura máxima	17.1
67471	7	Sololá	710	Panajachel	8	Panajachel	10	Octubre	2023-10-21T00:00:00	2024-11-08T03:00:00	3	Temperatura mínima	16.3
67472	7	Sololá	710	Panajachel	8	Panajachel	10	Octubre	2023-10-21T00:00:00	2024-11-08T03:00:00	5	Humedad	88
67473	7	Sololá	710	Panajachel	8	Panajachel	10	Octubre	2023-10-21T00:00:00	2024-11-08T03:00:00	6	Velocidad del viento	0
67474	7	Sololá	710	Panajachel	8	Panajachel	10	Octubre	2023-10-21T00:00:00	2024-11-08T03:00:00	7	Dirección del viento	0
67475	7	Sololá	710	Panajachel	8	Panajachel	10	Octubre	2023-10-21T00:00:00	2024-11-08T03:00:00	1	Precipitación	0
67476	7	Sololá	710	Panajachel	8	Panajachel	10	Octubre	2023-10-21T00:00:00	2024-11-08T03:00:00	8	Radiación solar	0
67477	7	Sololá	710	Panajachel	8	Panajachel	10	Octubre	2023-10-21T00:00:00	2024-11-08T04:00:00	2	Temperatura media	16.5
67478	7	Sololá	710	Panajachel	8	Panajachel	10	Octubre	2023-10-21T00:00:00	2024-11-08T04:00:00	4	Temperatura máxima	16.5
67479	7	Sololá	710	Panajachel	8	Panajachel	10	Octubre	2023-10-21T00:00:00	2024-11-08T04:00:00	3	Temperatura mínima	16.2
67480	7	Sololá	710	Panajachel	8	Panajachel	10	Octubre	2023-10-21T00:00:00	2024-11-08T04:00:00	5	Humedad	85
67481	7	Sololá	710	Panajachel	8	Panajachel	10	Octubre	2023-10-21T00:00:00	2024-11-08T04:00:00	6	Velocidad del viento	0
67482	7	Sololá	710	Panajachel	8	Panajachel	10	Octubre	2023-10-21T00:00:00	2024-11-08T04:00:00	7	Dirección del viento	0
67483	7	Sololá	710	Panajachel	8	Panajachel	10	Octubre	2023-10-21T00:00:00	2024-11-08T04:00:00	1	Precipitación	0
67484	7	Sololá	710	Panajachel	8	Panajachel	10	Octubre	2023-10-21T00:00:00	2024-11-08T04:00:00	8	Radiación solar	0
67485	7	Sololá	710	Panajachel	8	Panajachel	10	Octubre	2023-10-21T00:00:00	2024-11-08T05:00:00	2	Temperatura media	16
67486	7	Sololá	710	Panajachel	8	Panajachel	10	Octubre	2023-10-21T00:00:00	2024-11-08T05:00:00	4	Temperatura máxima	16.7
67487	7	Sololá	710	Panajachel	8	Panajachel	10	Octubre	2023-10-21T00:00:00	2024-11-08T05:00:00	3	Temperatura mínima	15.9
67488	7	Sololá	710	Panajachel	8	Panajachel	10	Octubre	2023-10-21T00:00:00	2024-11-08T05:00:00	5	Humedad	86
67489	7	Sololá	710	Panajachel	8	Panajachel	10	Octubre	2023-10-21T00:00:00	2024-11-08T05:00:00	6	Velocidad del viento	0
67490	7	Sololá	710	Panajachel	8	Panajachel	10	Octubre	2023-10-21T00:00:00	2024-11-08T05:00:00	7	Dirección del viento	0
67491	7	Sololá	710	Panajachel	8	Panajachel	10	Octubre	2023-10-21T00:00:00	2024-11-08T05:00:00	1	Precipitación	0
67492	7	Sololá	710	Panajachel	8	Panajachel	10	Octubre	2023-10-21T00:00:00	2024-11-08T05:00:00	8	Radiación solar	0
67493	7	Sololá	710	Panajachel	8	Panajachel	10	Octubre	2023-10-21T00:00:00	2024-11-08T06:00:00	2	Temperatura media	16.2
67494	7	Sololá	710	Panajachel	8	Panajachel	10	Octubre	2023-10-21T00:00:00	2024-11-08T06:00:00	4	Temperatura máxima	16.2
67495	7	Sololá	710	Panajachel	8	Panajachel	10	Octubre	2023-10-21T00:00:00	2024-11-08T06:00:00	3	Temperatura mínima	15.8
67496	7	Sololá	710	Panajachel	8	Panajachel	10	Octubre	2023-10-21T00:00:00	2024-11-08T06:00:00	5	Humedad	84
67497	7	Sololá	710	Panajachel	8	Panajachel	10	Octubre	2023-10-21T00:00:00	2024-11-08T06:00:00	6	Velocidad del viento	3.2
67498	7	Sololá	710	Panajachel	8	Panajachel	10	Octubre	2023-10-21T00:00:00	2024-11-08T06:00:00	7	Dirección del viento	3.22
67499	7	Sololá	710	Panajachel	8	Panajachel	10	Octubre	2023-10-21T00:00:00	2024-11-08T06:00:00	1	Precipitación	0
67500	7	Sololá	710	Panajachel	8	Panajachel	10	Octubre	2023-10-21T00:00:00	2024-11-08T06:00:00	8	Radiación solar	0
67501	7	Sololá	710	Panajachel	8	Panajachel	10	Octubre	2023-10-21T00:00:00	2024-11-08T07:00:00	2	Temperatura media	16.3
67502	7	Sololá	710	Panajachel	8	Panajachel	10	Octubre	2023-10-21T00:00:00	2024-11-08T07:00:00	4	Temperatura máxima	16.4
67503	7	Sololá	710	Panajachel	8	Panajachel	10	Octubre	2023-10-21T00:00:00	2024-11-08T07:00:00	3	Temperatura mínima	15.6
67504	7	Sololá	710	Panajachel	8	Panajachel	10	Octubre	2023-10-21T00:00:00	2024-11-08T07:00:00	5	Humedad	84
67505	7	Sololá	710	Panajachel	8	Panajachel	10	Octubre	2023-10-21T00:00:00	2024-11-08T07:00:00	6	Velocidad del viento	1.6
67506	7	Sololá	710	Panajachel	8	Panajachel	10	Octubre	2023-10-21T00:00:00	2024-11-08T07:00:00	7	Dirección del viento	1.61
67507	7	Sololá	710	Panajachel	8	Panajachel	10	Octubre	2023-10-21T00:00:00	2024-11-08T07:00:00	1	Precipitación	0
67508	7	Sololá	710	Panajachel	8	Panajachel	10	Octubre	2023-10-21T00:00:00	2024-11-08T07:00:00	8	Radiación solar	24
67509	7	Sololá	710	Panajachel	8	Panajachel	10	Octubre	2023-10-21T00:00:00	2024-11-08T08:00:00	2	Temperatura media	18.1
67510	7	Sololá	710	Panajachel	8	Panajachel	10	Octubre	2023-10-21T00:00:00	2024-11-08T08:00:00	4	Temperatura máxima	18.1
67511	7	Sololá	710	Panajachel	8	Panajachel	10	Octubre	2023-10-21T00:00:00	2024-11-08T08:00:00	3	Temperatura mínima	16.3
67512	7	Sololá	710	Panajachel	8	Panajachel	10	Octubre	2023-10-21T00:00:00	2024-11-08T08:00:00	5	Humedad	80
67513	7	Sololá	710	Panajachel	8	Panajachel	10	Octubre	2023-10-21T00:00:00	2024-11-08T08:00:00	6	Velocidad del viento	1.6
67514	7	Sololá	710	Panajachel	8	Panajachel	10	Octubre	2023-10-21T00:00:00	2024-11-08T08:00:00	7	Dirección del viento	1.61
67515	7	Sololá	710	Panajachel	8	Panajachel	10	Octubre	2023-10-21T00:00:00	2024-11-08T08:00:00	1	Precipitación	0
67516	7	Sololá	710	Panajachel	8	Panajachel	10	Octubre	2023-10-21T00:00:00	2024-11-08T08:00:00	8	Radiación solar	99
67517	7	Sololá	710	Panajachel	8	Panajachel	10	Octubre	2023-10-21T00:00:00	2024-11-08T09:00:00	2	Temperatura media	19.6
67518	7	Sololá	710	Panajachel	8	Panajachel	10	Octubre	2023-10-21T00:00:00	2024-11-08T09:00:00	4	Temperatura máxima	19.6
67519	7	Sololá	710	Panajachel	8	Panajachel	10	Octubre	2023-10-21T00:00:00	2024-11-08T09:00:00	3	Temperatura mínima	18.1
67520	7	Sololá	710	Panajachel	8	Panajachel	10	Octubre	2023-10-21T00:00:00	2024-11-08T09:00:00	5	Humedad	78
67521	7	Sololá	710	Panajachel	8	Panajachel	10	Octubre	2023-10-21T00:00:00	2024-11-08T09:00:00	6	Velocidad del viento	0
67522	7	Sololá	710	Panajachel	8	Panajachel	10	Octubre	2023-10-21T00:00:00	2024-11-08T09:00:00	7	Dirección del viento	0
67523	7	Sololá	710	Panajachel	8	Panajachel	10	Octubre	2023-10-21T00:00:00	2024-11-08T09:00:00	1	Precipitación	0
67524	7	Sololá	710	Panajachel	8	Panajachel	10	Octubre	2023-10-21T00:00:00	2024-11-08T09:00:00	8	Radiación solar	138
67525	7	Sololá	710	Panajachel	8	Panajachel	10	Octubre	2023-10-21T00:00:00	2024-11-08T10:00:00	2	Temperatura media	21.1
67526	7	Sololá	710	Panajachel	8	Panajachel	10	Octubre	2023-10-21T00:00:00	2024-11-08T10:00:00	4	Temperatura máxima	21.2
67527	7	Sololá	710	Panajachel	8	Panajachel	10	Octubre	2023-10-21T00:00:00	2024-11-08T10:00:00	3	Temperatura mínima	19.6
67528	7	Sololá	710	Panajachel	8	Panajachel	10	Octubre	2023-10-21T00:00:00	2024-11-08T10:00:00	5	Humedad	76
67529	7	Sololá	710	Panajachel	8	Panajachel	10	Octubre	2023-10-21T00:00:00	2024-11-08T10:00:00	6	Velocidad del viento	0
67530	7	Sololá	710	Panajachel	8	Panajachel	10	Octubre	2023-10-21T00:00:00	2024-11-08T10:00:00	7	Dirección del viento	0
67531	7	Sololá	710	Panajachel	8	Panajachel	10	Octubre	2023-10-21T00:00:00	2024-11-08T10:00:00	1	Precipitación	0
67532	7	Sololá	710	Panajachel	8	Panajachel	10	Octubre	2023-10-21T00:00:00	2024-11-08T10:00:00	8	Radiación solar	405
67533	7	Sololá	710	Panajachel	8	Panajachel	10	Octubre	2023-10-21T00:00:00	2024-11-08T11:00:00	2	Temperatura media	21.4
67534	7	Sololá	710	Panajachel	8	Panajachel	10	Octubre	2023-10-21T00:00:00	2024-11-08T11:00:00	4	Temperatura máxima	21.5
67535	7	Sololá	710	Panajachel	8	Panajachel	10	Octubre	2023-10-21T00:00:00	2024-11-08T11:00:00	3	Temperatura mínima	21.1
67536	7	Sololá	710	Panajachel	8	Panajachel	10	Octubre	2023-10-21T00:00:00	2024-11-08T11:00:00	5	Humedad	73
67537	7	Sololá	710	Panajachel	8	Panajachel	10	Octubre	2023-10-21T00:00:00	2024-11-08T11:00:00	6	Velocidad del viento	0
67538	7	Sololá	710	Panajachel	8	Panajachel	10	Octubre	2023-10-21T00:00:00	2024-11-08T11:00:00	7	Dirección del viento	0
67539	7	Sololá	710	Panajachel	8	Panajachel	10	Octubre	2023-10-21T00:00:00	2024-11-08T11:00:00	1	Precipitación	0
67540	7	Sololá	710	Panajachel	8	Panajachel	10	Octubre	2023-10-21T00:00:00	2024-11-08T11:00:00	8	Radiación solar	593
67541	7	Sololá	710	Panajachel	8	Panajachel	10	Octubre	2023-10-21T00:00:00	2024-11-08T12:00:00	2	Temperatura media	23
67542	7	Sololá	710	Panajachel	8	Panajachel	10	Octubre	2023-10-21T00:00:00	2024-11-08T12:00:00	4	Temperatura máxima	23
67543	7	Sololá	710	Panajachel	8	Panajachel	10	Octubre	2023-10-21T00:00:00	2024-11-08T12:00:00	3	Temperatura mínima	21.4
67544	7	Sololá	710	Panajachel	8	Panajachel	10	Octubre	2023-10-21T00:00:00	2024-11-08T12:00:00	5	Humedad	71
67545	7	Sololá	710	Panajachel	8	Panajachel	10	Octubre	2023-10-21T00:00:00	2024-11-08T12:00:00	6	Velocidad del viento	0
67546	7	Sololá	710	Panajachel	8	Panajachel	10	Octubre	2023-10-21T00:00:00	2024-11-08T12:00:00	7	Dirección del viento	0
67547	7	Sololá	710	Panajachel	8	Panajachel	10	Octubre	2023-10-21T00:00:00	2024-11-08T12:00:00	1	Precipitación	0
67548	7	Sololá	710	Panajachel	8	Panajachel	10	Octubre	2023-10-21T00:00:00	2024-11-08T12:00:00	8	Radiación solar	550
67549	7	Sololá	710	Panajachel	8	Panajachel	10	Octubre	2023-10-21T00:00:00	2024-11-08T13:00:00	2	Temperatura media	22.9
67550	7	Sololá	710	Panajachel	8	Panajachel	10	Octubre	2023-10-21T00:00:00	2024-11-08T13:00:00	4	Temperatura máxima	24
67551	7	Sololá	710	Panajachel	8	Panajachel	10	Octubre	2023-10-21T00:00:00	2024-11-08T13:00:00	3	Temperatura mínima	22.9
67552	7	Sololá	710	Panajachel	8	Panajachel	10	Octubre	2023-10-21T00:00:00	2024-11-08T13:00:00	5	Humedad	77
67553	7	Sololá	710	Panajachel	8	Panajachel	10	Octubre	2023-10-21T00:00:00	2024-11-08T13:00:00	6	Velocidad del viento	0
67554	7	Sololá	710	Panajachel	8	Panajachel	10	Octubre	2023-10-21T00:00:00	2024-11-08T13:00:00	7	Dirección del viento	0
67555	7	Sololá	710	Panajachel	8	Panajachel	10	Octubre	2023-10-21T00:00:00	2024-11-08T13:00:00	1	Precipitación	0
67556	7	Sololá	710	Panajachel	8	Panajachel	10	Octubre	2023-10-21T00:00:00	2024-11-08T13:00:00	8	Radiación solar	525
67557	7	Sololá	710	Panajachel	8	Panajachel	10	Octubre	2023-10-21T00:00:00	2024-11-08T14:00:00	2	Temperatura media	24.1
67558	7	Sololá	710	Panajachel	8	Panajachel	10	Octubre	2023-10-21T00:00:00	2024-11-08T14:00:00	4	Temperatura máxima	24.4
67559	7	Sololá	710	Panajachel	8	Panajachel	10	Octubre	2023-10-21T00:00:00	2024-11-08T14:00:00	3	Temperatura mínima	22.7
67560	7	Sololá	710	Panajachel	8	Panajachel	10	Octubre	2023-10-21T00:00:00	2024-11-08T14:00:00	5	Humedad	78
67561	7	Sololá	710	Panajachel	8	Panajachel	10	Octubre	2023-10-21T00:00:00	2024-11-08T14:00:00	6	Velocidad del viento	0
67562	7	Sololá	710	Panajachel	8	Panajachel	10	Octubre	2023-10-21T00:00:00	2024-11-08T14:00:00	7	Dirección del viento	0
67563	7	Sololá	710	Panajachel	8	Panajachel	10	Octubre	2023-10-21T00:00:00	2024-11-08T14:00:00	1	Precipitación	0
67564	7	Sololá	710	Panajachel	8	Panajachel	10	Octubre	2023-10-21T00:00:00	2024-11-08T14:00:00	8	Radiación solar	720
67565	7	Sololá	710	Panajachel	8	Panajachel	10	Octubre	2023-10-21T00:00:00	2024-11-08T15:00:00	2	Temperatura media	24.1
67566	7	Sololá	710	Panajachel	8	Panajachel	10	Octubre	2023-10-21T00:00:00	2024-11-08T15:00:00	4	Temperatura máxima	24.3
67567	7	Sololá	710	Panajachel	8	Panajachel	10	Octubre	2023-10-21T00:00:00	2024-11-08T15:00:00	3	Temperatura mínima	23.3
67568	7	Sololá	710	Panajachel	8	Panajachel	10	Octubre	2023-10-21T00:00:00	2024-11-08T15:00:00	5	Humedad	74
67569	7	Sololá	710	Panajachel	8	Panajachel	10	Octubre	2023-10-21T00:00:00	2024-11-08T15:00:00	6	Velocidad del viento	0
67570	7	Sololá	710	Panajachel	8	Panajachel	10	Octubre	2023-10-21T00:00:00	2024-11-08T15:00:00	7	Dirección del viento	0
67571	7	Sololá	710	Panajachel	8	Panajachel	10	Octubre	2023-10-21T00:00:00	2024-11-08T15:00:00	1	Precipitación	0
67572	7	Sololá	710	Panajachel	8	Panajachel	10	Octubre	2023-10-21T00:00:00	2024-11-08T15:00:00	8	Radiación solar	634
67573	7	Sololá	710	Panajachel	8	Panajachel	10	Octubre	2023-10-21T00:00:00	2024-11-08T16:00:00	2	Temperatura media	21.7
67574	7	Sololá	710	Panajachel	8	Panajachel	10	Octubre	2023-10-21T00:00:00	2024-11-08T16:00:00	4	Temperatura máxima	24.1
67575	7	Sololá	710	Panajachel	8	Panajachel	10	Octubre	2023-10-21T00:00:00	2024-11-08T16:00:00	3	Temperatura mínima	21.7
67576	7	Sololá	710	Panajachel	8	Panajachel	10	Octubre	2023-10-21T00:00:00	2024-11-08T16:00:00	5	Humedad	85
67577	7	Sololá	710	Panajachel	8	Panajachel	10	Octubre	2023-10-21T00:00:00	2024-11-08T16:00:00	6	Velocidad del viento	1.6
67578	7	Sololá	710	Panajachel	8	Panajachel	10	Octubre	2023-10-21T00:00:00	2024-11-08T16:00:00	7	Dirección del viento	1.61
67579	7	Sololá	710	Panajachel	8	Panajachel	10	Octubre	2023-10-21T00:00:00	2024-11-08T16:00:00	1	Precipitación	0
67580	7	Sololá	710	Panajachel	8	Panajachel	10	Octubre	2023-10-21T00:00:00	2024-11-08T16:00:00	8	Radiación solar	347
67581	7	Sololá	710	Panajachel	8	Panajachel	10	Octubre	2023-10-21T00:00:00	2024-11-08T17:00:00	2	Temperatura media	20.3
67582	7	Sololá	710	Panajachel	8	Panajachel	10	Octubre	2023-10-21T00:00:00	2024-11-08T17:00:00	4	Temperatura máxima	21.8
67583	7	Sololá	710	Panajachel	8	Panajachel	10	Octubre	2023-10-21T00:00:00	2024-11-08T17:00:00	3	Temperatura mínima	20.3
67584	7	Sololá	710	Panajachel	8	Panajachel	10	Octubre	2023-10-21T00:00:00	2024-11-08T17:00:00	5	Humedad	85
67585	7	Sololá	710	Panajachel	8	Panajachel	10	Octubre	2023-10-21T00:00:00	2024-11-08T17:00:00	6	Velocidad del viento	1.6
67586	7	Sololá	710	Panajachel	8	Panajachel	10	Octubre	2023-10-21T00:00:00	2024-11-08T17:00:00	7	Dirección del viento	1.61
67587	7	Sololá	710	Panajachel	8	Panajachel	10	Octubre	2023-10-21T00:00:00	2024-11-08T17:00:00	1	Precipitación	0
67588	7	Sololá	710	Panajachel	8	Panajachel	10	Octubre	2023-10-21T00:00:00	2024-11-08T17:00:00	8	Radiación solar	55
67589	7	Sololá	710	Panajachel	8	Panajachel	10	Octubre	2023-10-21T00:00:00	2024-11-08T18:00:00	2	Temperatura media	18.1
67590	7	Sololá	710	Panajachel	8	Panajachel	10	Octubre	2023-10-21T00:00:00	2024-11-08T18:00:00	4	Temperatura máxima	20.3
67591	7	Sololá	710	Panajachel	8	Panajachel	10	Octubre	2023-10-21T00:00:00	2024-11-08T18:00:00	3	Temperatura mínima	18.1
67592	7	Sololá	710	Panajachel	8	Panajachel	10	Octubre	2023-10-21T00:00:00	2024-11-08T18:00:00	5	Humedad	93
67593	7	Sololá	710	Panajachel	8	Panajachel	10	Octubre	2023-10-21T00:00:00	2024-11-08T18:00:00	6	Velocidad del viento	0
67594	7	Sololá	710	Panajachel	8	Panajachel	10	Octubre	2023-10-21T00:00:00	2024-11-08T18:00:00	7	Dirección del viento	0
67595	7	Sololá	710	Panajachel	8	Panajachel	10	Octubre	2023-10-21T00:00:00	2024-11-08T18:00:00	1	Precipitación	4
67596	7	Sololá	710	Panajachel	8	Panajachel	10	Octubre	2023-10-21T00:00:00	2024-11-08T18:00:00	8	Radiación solar	0
67597	7	Sololá	710	Panajachel	8	Panajachel	10	Octubre	2023-10-21T00:00:00	2024-11-08T19:00:00	2	Temperatura media	17.2
67598	7	Sololá	710	Panajachel	8	Panajachel	10	Octubre	2023-10-21T00:00:00	2024-11-08T19:00:00	4	Temperatura máxima	18.1
67599	7	Sololá	710	Panajachel	8	Panajachel	10	Octubre	2023-10-21T00:00:00	2024-11-08T19:00:00	3	Temperatura mínima	17.2
67600	7	Sololá	710	Panajachel	8	Panajachel	10	Octubre	2023-10-21T00:00:00	2024-11-08T19:00:00	5	Humedad	91
67601	7	Sololá	710	Panajachel	8	Panajachel	10	Octubre	2023-10-21T00:00:00	2024-11-08T19:00:00	6	Velocidad del viento	0
67602	7	Sololá	710	Panajachel	8	Panajachel	10	Octubre	2023-10-21T00:00:00	2024-11-08T19:00:00	7	Dirección del viento	0
67603	7	Sololá	710	Panajachel	8	Panajachel	10	Octubre	2023-10-21T00:00:00	2024-11-08T19:00:00	1	Precipitación	0.6
67604	7	Sololá	710	Panajachel	8	Panajachel	10	Octubre	2023-10-21T00:00:00	2024-11-08T19:00:00	8	Radiación solar	0
67605	7	Sololá	710	Panajachel	8	Panajachel	10	Octubre	2023-10-21T00:00:00	2024-11-08T20:00:00	2	Temperatura media	17.3
67606	7	Sololá	710	Panajachel	8	Panajachel	10	Octubre	2023-10-21T00:00:00	2024-11-08T20:00:00	4	Temperatura máxima	17.5
67607	7	Sololá	710	Panajachel	8	Panajachel	10	Octubre	2023-10-21T00:00:00	2024-11-08T20:00:00	3	Temperatura mínima	17.2
67608	7	Sololá	710	Panajachel	8	Panajachel	10	Octubre	2023-10-21T00:00:00	2024-11-08T20:00:00	5	Humedad	94
67609	7	Sololá	710	Panajachel	8	Panajachel	10	Octubre	2023-10-21T00:00:00	2024-11-08T20:00:00	6	Velocidad del viento	0
67610	7	Sololá	710	Panajachel	8	Panajachel	10	Octubre	2023-10-21T00:00:00	2024-11-08T20:00:00	7	Dirección del viento	0
67611	7	Sololá	710	Panajachel	8	Panajachel	10	Octubre	2023-10-21T00:00:00	2024-11-08T20:00:00	1	Precipitación	0.6
67612	7	Sololá	710	Panajachel	8	Panajachel	10	Octubre	2023-10-21T00:00:00	2024-11-08T20:00:00	8	Radiación solar	0
67613	7	Sololá	710	Panajachel	8	Panajachel	10	Octubre	2023-10-21T00:00:00	2024-11-08T21:00:00	2	Temperatura media	17.2
67614	7	Sololá	710	Panajachel	8	Panajachel	10	Octubre	2023-10-21T00:00:00	2024-11-08T21:00:00	4	Temperatura máxima	17.3
67615	7	Sololá	710	Panajachel	8	Panajachel	10	Octubre	2023-10-21T00:00:00	2024-11-08T21:00:00	3	Temperatura mínima	17.1
67616	7	Sololá	710	Panajachel	8	Panajachel	10	Octubre	2023-10-21T00:00:00	2024-11-08T21:00:00	5	Humedad	95
67617	7	Sololá	710	Panajachel	8	Panajachel	10	Octubre	2023-10-21T00:00:00	2024-11-08T21:00:00	6	Velocidad del viento	0
67618	7	Sololá	710	Panajachel	8	Panajachel	10	Octubre	2023-10-21T00:00:00	2024-11-08T21:00:00	7	Dirección del viento	0
67619	7	Sololá	710	Panajachel	8	Panajachel	10	Octubre	2023-10-21T00:00:00	2024-11-08T21:00:00	1	Precipitación	0.2
67620	7	Sololá	710	Panajachel	8	Panajachel	10	Octubre	2023-10-21T00:00:00	2024-11-08T21:00:00	8	Radiación solar	0
67621	7	Sololá	710	Panajachel	8	Panajachel	10	Octubre	2023-10-21T00:00:00	2024-11-08T22:00:00	2	Temperatura media	17.3
67622	7	Sololá	710	Panajachel	8	Panajachel	10	Octubre	2023-10-21T00:00:00	2024-11-08T22:00:00	4	Temperatura máxima	17.3
67623	7	Sololá	710	Panajachel	8	Panajachel	10	Octubre	2023-10-21T00:00:00	2024-11-08T22:00:00	3	Temperatura mínima	17
67624	7	Sololá	710	Panajachel	8	Panajachel	10	Octubre	2023-10-21T00:00:00	2024-11-08T22:00:00	5	Humedad	95
67625	7	Sololá	710	Panajachel	8	Panajachel	10	Octubre	2023-10-21T00:00:00	2024-11-08T22:00:00	6	Velocidad del viento	0
67626	7	Sololá	710	Panajachel	8	Panajachel	10	Octubre	2023-10-21T00:00:00	2024-11-08T22:00:00	7	Dirección del viento	0
67627	7	Sololá	710	Panajachel	8	Panajachel	10	Octubre	2023-10-21T00:00:00	2024-11-08T22:00:00	1	Precipitación	0
67628	7	Sololá	710	Panajachel	8	Panajachel	10	Octubre	2023-10-21T00:00:00	2024-11-08T22:00:00	8	Radiación solar	0
67629	7	Sololá	710	Panajachel	8	Panajachel	10	Octubre	2023-10-21T00:00:00	2024-11-08T23:00:00	2	Temperatura media	17.2
67630	7	Sololá	710	Panajachel	8	Panajachel	10	Octubre	2023-10-21T00:00:00	2024-11-08T23:00:00	4	Temperatura máxima	17.4
67631	7	Sololá	710	Panajachel	8	Panajachel	10	Octubre	2023-10-21T00:00:00	2024-11-08T23:00:00	3	Temperatura mínima	17.2
67632	7	Sololá	710	Panajachel	8	Panajachel	10	Octubre	2023-10-21T00:00:00	2024-11-08T23:00:00	5	Humedad	94
67633	7	Sololá	710	Panajachel	8	Panajachel	10	Octubre	2023-10-21T00:00:00	2024-11-08T23:00:00	6	Velocidad del viento	0
67634	7	Sololá	710	Panajachel	8	Panajachel	10	Octubre	2023-10-21T00:00:00	2024-11-08T23:00:00	7	Dirección del viento	0
67635	7	Sololá	710	Panajachel	8	Panajachel	10	Octubre	2023-10-21T00:00:00	2024-11-08T23:00:00	1	Precipitación	0
67636	7	Sololá	710	Panajachel	8	Panajachel	10	Octubre	2023-10-21T00:00:00	2024-11-08T23:00:00	8	Radiación solar	0
67637	7	Sololá	710	Panajachel	8	Panajachel	10	Octubre	2023-10-22T00:00:00	2024-11-08T00:00:00	2	Temperatura media	16.8
67638	7	Sololá	710	Panajachel	8	Panajachel	10	Octubre	2023-10-22T00:00:00	2024-11-08T00:00:00	4	Temperatura máxima	17.2
67639	7	Sololá	710	Panajachel	8	Panajachel	10	Octubre	2023-10-22T00:00:00	2024-11-08T00:00:00	3	Temperatura mínima	16.8
67640	7	Sololá	710	Panajachel	8	Panajachel	10	Octubre	2023-10-22T00:00:00	2024-11-08T00:00:00	5	Humedad	96
67641	7	Sololá	710	Panajachel	8	Panajachel	10	Octubre	2023-10-22T00:00:00	2024-11-08T00:00:00	6	Velocidad del viento	0
67642	7	Sololá	710	Panajachel	8	Panajachel	10	Octubre	2023-10-22T00:00:00	2024-11-08T00:00:00	7	Dirección del viento	0
67643	7	Sololá	710	Panajachel	8	Panajachel	10	Octubre	2023-10-22T00:00:00	2024-11-08T00:00:00	1	Precipitación	0
67644	7	Sololá	710	Panajachel	8	Panajachel	10	Octubre	2023-10-22T00:00:00	2024-11-08T00:00:00	8	Radiación solar	0
67645	7	Sololá	710	Panajachel	8	Panajachel	10	Octubre	2023-10-22T00:00:00	2024-11-08T01:00:00	2	Temperatura media	17.1
67646	7	Sololá	710	Panajachel	8	Panajachel	10	Octubre	2023-10-22T00:00:00	2024-11-08T01:00:00	4	Temperatura máxima	17.2
67647	7	Sololá	710	Panajachel	8	Panajachel	10	Octubre	2023-10-22T00:00:00	2024-11-08T01:00:00	3	Temperatura mínima	16.8
67648	7	Sololá	710	Panajachel	8	Panajachel	10	Octubre	2023-10-22T00:00:00	2024-11-08T01:00:00	5	Humedad	94
67649	7	Sololá	710	Panajachel	8	Panajachel	10	Octubre	2023-10-22T00:00:00	2024-11-08T01:00:00	6	Velocidad del viento	0
67650	7	Sololá	710	Panajachel	8	Panajachel	10	Octubre	2023-10-22T00:00:00	2024-11-08T01:00:00	7	Dirección del viento	0
67651	7	Sololá	710	Panajachel	8	Panajachel	10	Octubre	2023-10-22T00:00:00	2024-11-08T01:00:00	1	Precipitación	0
67652	7	Sololá	710	Panajachel	8	Panajachel	10	Octubre	2023-10-22T00:00:00	2024-11-08T01:00:00	8	Radiación solar	0
67653	7	Sololá	710	Panajachel	8	Panajachel	10	Octubre	2023-10-22T00:00:00	2024-11-08T02:00:00	2	Temperatura media	17.8
67654	7	Sololá	710	Panajachel	8	Panajachel	10	Octubre	2023-10-22T00:00:00	2024-11-08T02:00:00	4	Temperatura máxima	17.8
67655	7	Sololá	710	Panajachel	8	Panajachel	10	Octubre	2023-10-22T00:00:00	2024-11-08T02:00:00	3	Temperatura mínima	17.1
67656	7	Sololá	710	Panajachel	8	Panajachel	10	Octubre	2023-10-22T00:00:00	2024-11-08T02:00:00	5	Humedad	92
67657	7	Sololá	710	Panajachel	8	Panajachel	10	Octubre	2023-10-22T00:00:00	2024-11-08T02:00:00	6	Velocidad del viento	0
67658	7	Sololá	710	Panajachel	8	Panajachel	10	Octubre	2023-10-22T00:00:00	2024-11-08T02:00:00	7	Dirección del viento	0
67659	7	Sololá	710	Panajachel	8	Panajachel	10	Octubre	2023-10-22T00:00:00	2024-11-08T02:00:00	1	Precipitación	0
67660	7	Sololá	710	Panajachel	8	Panajachel	10	Octubre	2023-10-22T00:00:00	2024-11-08T02:00:00	8	Radiación solar	0
67661	7	Sololá	710	Panajachel	8	Panajachel	10	Octubre	2023-10-22T00:00:00	2024-11-08T03:00:00	2	Temperatura media	17
67662	7	Sololá	710	Panajachel	8	Panajachel	10	Octubre	2023-10-22T00:00:00	2024-11-08T03:00:00	4	Temperatura máxima	17.8
67663	7	Sololá	710	Panajachel	8	Panajachel	10	Octubre	2023-10-22T00:00:00	2024-11-08T03:00:00	3	Temperatura mínima	16.9
67664	7	Sololá	710	Panajachel	8	Panajachel	10	Octubre	2023-10-22T00:00:00	2024-11-08T03:00:00	5	Humedad	94
67665	7	Sololá	710	Panajachel	8	Panajachel	10	Octubre	2023-10-22T00:00:00	2024-11-08T03:00:00	6	Velocidad del viento	0
67666	7	Sololá	710	Panajachel	8	Panajachel	10	Octubre	2023-10-22T00:00:00	2024-11-08T03:00:00	7	Dirección del viento	0
67667	7	Sololá	710	Panajachel	8	Panajachel	10	Octubre	2023-10-22T00:00:00	2024-11-08T03:00:00	1	Precipitación	0
67668	7	Sololá	710	Panajachel	8	Panajachel	10	Octubre	2023-10-22T00:00:00	2024-11-08T03:00:00	8	Radiación solar	0
67669	7	Sololá	710	Panajachel	8	Panajachel	10	Octubre	2023-10-22T00:00:00	2024-11-08T04:00:00	2	Temperatura media	16.9
67670	7	Sololá	710	Panajachel	8	Panajachel	10	Octubre	2023-10-22T00:00:00	2024-11-08T04:00:00	4	Temperatura máxima	17
67671	7	Sololá	710	Panajachel	8	Panajachel	10	Octubre	2023-10-22T00:00:00	2024-11-08T04:00:00	3	Temperatura mínima	16.8
67672	7	Sololá	710	Panajachel	8	Panajachel	10	Octubre	2023-10-22T00:00:00	2024-11-08T04:00:00	5	Humedad	93
67673	7	Sololá	710	Panajachel	8	Panajachel	10	Octubre	2023-10-22T00:00:00	2024-11-08T04:00:00	6	Velocidad del viento	0
67674	7	Sololá	710	Panajachel	8	Panajachel	10	Octubre	2023-10-22T00:00:00	2024-11-08T04:00:00	7	Dirección del viento	0
67675	7	Sololá	710	Panajachel	8	Panajachel	10	Octubre	2023-10-22T00:00:00	2024-11-08T04:00:00	1	Precipitación	0
67676	7	Sololá	710	Panajachel	8	Panajachel	10	Octubre	2023-10-22T00:00:00	2024-11-08T04:00:00	8	Radiación solar	0
67677	7	Sololá	710	Panajachel	8	Panajachel	10	Octubre	2023-10-22T00:00:00	2024-11-08T05:00:00	2	Temperatura media	16.3
67678	7	Sololá	710	Panajachel	8	Panajachel	10	Octubre	2023-10-22T00:00:00	2024-11-08T05:00:00	4	Temperatura máxima	17.1
67679	7	Sololá	710	Panajachel	8	Panajachel	10	Octubre	2023-10-22T00:00:00	2024-11-08T05:00:00	3	Temperatura mínima	16.3
67680	7	Sololá	710	Panajachel	8	Panajachel	10	Octubre	2023-10-22T00:00:00	2024-11-08T05:00:00	5	Humedad	92
67681	7	Sololá	710	Panajachel	8	Panajachel	10	Octubre	2023-10-22T00:00:00	2024-11-08T05:00:00	6	Velocidad del viento	0
67682	7	Sololá	710	Panajachel	8	Panajachel	10	Octubre	2023-10-22T00:00:00	2024-11-08T05:00:00	7	Dirección del viento	0
67683	7	Sololá	710	Panajachel	8	Panajachel	10	Octubre	2023-10-22T00:00:00	2024-11-08T05:00:00	1	Precipitación	0
67684	7	Sololá	710	Panajachel	8	Panajachel	10	Octubre	2023-10-22T00:00:00	2024-11-08T05:00:00	8	Radiación solar	0
67685	7	Sololá	710	Panajachel	8	Panajachel	10	Octubre	2023-10-22T00:00:00	2024-11-08T06:00:00	2	Temperatura media	16.6
67686	7	Sololá	710	Panajachel	8	Panajachel	10	Octubre	2023-10-22T00:00:00	2024-11-08T06:00:00	4	Temperatura máxima	16.6
67687	7	Sololá	710	Panajachel	8	Panajachel	10	Octubre	2023-10-22T00:00:00	2024-11-08T06:00:00	3	Temperatura mínima	16.3
67688	7	Sololá	710	Panajachel	8	Panajachel	10	Octubre	2023-10-22T00:00:00	2024-11-08T06:00:00	5	Humedad	89
67689	7	Sololá	710	Panajachel	8	Panajachel	10	Octubre	2023-10-22T00:00:00	2024-11-08T06:00:00	6	Velocidad del viento	0
67690	7	Sololá	710	Panajachel	8	Panajachel	10	Octubre	2023-10-22T00:00:00	2024-11-08T06:00:00	7	Dirección del viento	0
67691	7	Sololá	710	Panajachel	8	Panajachel	10	Octubre	2023-10-22T00:00:00	2024-11-08T06:00:00	1	Precipitación	0
67692	7	Sololá	710	Panajachel	8	Panajachel	10	Octubre	2023-10-22T00:00:00	2024-11-08T06:00:00	8	Radiación solar	0
67693	7	Sololá	710	Panajachel	8	Panajachel	10	Octubre	2023-10-22T00:00:00	2024-11-08T07:00:00	2	Temperatura media	17.8
67694	7	Sololá	710	Panajachel	8	Panajachel	10	Octubre	2023-10-22T00:00:00	2024-11-08T07:00:00	4	Temperatura máxima	17.8
67695	7	Sololá	710	Panajachel	8	Panajachel	10	Octubre	2023-10-22T00:00:00	2024-11-08T07:00:00	3	Temperatura mínima	16.5
67696	7	Sololá	710	Panajachel	8	Panajachel	10	Octubre	2023-10-22T00:00:00	2024-11-08T07:00:00	5	Humedad	86
67697	7	Sololá	710	Panajachel	8	Panajachel	10	Octubre	2023-10-22T00:00:00	2024-11-08T07:00:00	6	Velocidad del viento	0
67698	7	Sololá	710	Panajachel	8	Panajachel	10	Octubre	2023-10-22T00:00:00	2024-11-08T07:00:00	7	Dirección del viento	0
67699	7	Sololá	710	Panajachel	8	Panajachel	10	Octubre	2023-10-22T00:00:00	2024-11-08T07:00:00	1	Precipitación	0
67700	7	Sololá	710	Panajachel	8	Panajachel	10	Octubre	2023-10-22T00:00:00	2024-11-08T07:00:00	8	Radiación solar	50
67701	7	Sololá	710	Panajachel	8	Panajachel	10	Octubre	2023-10-22T00:00:00	2024-11-08T08:00:00	2	Temperatura media	21.1
67702	7	Sololá	710	Panajachel	8	Panajachel	10	Octubre	2023-10-22T00:00:00	2024-11-08T08:00:00	4	Temperatura máxima	21.1
67703	7	Sololá	710	Panajachel	8	Panajachel	10	Octubre	2023-10-22T00:00:00	2024-11-08T08:00:00	3	Temperatura mínima	17.8
67704	7	Sololá	710	Panajachel	8	Panajachel	10	Octubre	2023-10-22T00:00:00	2024-11-08T08:00:00	5	Humedad	76
67705	7	Sololá	710	Panajachel	8	Panajachel	10	Octubre	2023-10-22T00:00:00	2024-11-08T08:00:00	6	Velocidad del viento	0
67706	7	Sololá	710	Panajachel	8	Panajachel	10	Octubre	2023-10-22T00:00:00	2024-11-08T08:00:00	7	Dirección del viento	0
67707	7	Sololá	710	Panajachel	8	Panajachel	10	Octubre	2023-10-22T00:00:00	2024-11-08T08:00:00	1	Precipitación	0
67708	7	Sololá	710	Panajachel	8	Panajachel	10	Octubre	2023-10-22T00:00:00	2024-11-08T08:00:00	8	Radiación solar	281
67709	7	Sololá	710	Panajachel	8	Panajachel	10	Octubre	2023-10-22T00:00:00	2024-11-08T09:00:00	2	Temperatura media	20.9
67710	7	Sololá	710	Panajachel	8	Panajachel	10	Octubre	2023-10-22T00:00:00	2024-11-08T09:00:00	4	Temperatura máxima	21.4
67711	7	Sololá	710	Panajachel	8	Panajachel	10	Octubre	2023-10-22T00:00:00	2024-11-08T09:00:00	3	Temperatura mínima	20.9
67712	7	Sololá	710	Panajachel	8	Panajachel	10	Octubre	2023-10-22T00:00:00	2024-11-08T09:00:00	5	Humedad	81
67713	7	Sololá	710	Panajachel	8	Panajachel	10	Octubre	2023-10-22T00:00:00	2024-11-08T09:00:00	6	Velocidad del viento	0
67714	7	Sololá	710	Panajachel	8	Panajachel	10	Octubre	2023-10-22T00:00:00	2024-11-08T09:00:00	7	Dirección del viento	0
67715	7	Sololá	710	Panajachel	8	Panajachel	10	Octubre	2023-10-22T00:00:00	2024-11-08T09:00:00	1	Precipitación	0
67716	7	Sololá	710	Panajachel	8	Panajachel	10	Octubre	2023-10-22T00:00:00	2024-11-08T09:00:00	8	Radiación solar	489
67717	7	Sololá	710	Panajachel	8	Panajachel	10	Octubre	2023-10-22T00:00:00	2024-11-08T10:00:00	2	Temperatura media	21.8
67718	7	Sololá	710	Panajachel	8	Panajachel	10	Octubre	2023-10-22T00:00:00	2024-11-08T10:00:00	4	Temperatura máxima	22.1
67719	7	Sololá	710	Panajachel	8	Panajachel	10	Octubre	2023-10-22T00:00:00	2024-11-08T10:00:00	3	Temperatura mínima	20.9
67720	7	Sololá	710	Panajachel	8	Panajachel	10	Octubre	2023-10-22T00:00:00	2024-11-08T10:00:00	5	Humedad	79
67721	7	Sololá	710	Panajachel	8	Panajachel	10	Octubre	2023-10-22T00:00:00	2024-11-08T10:00:00	6	Velocidad del viento	0
67722	7	Sololá	710	Panajachel	8	Panajachel	10	Octubre	2023-10-22T00:00:00	2024-11-08T10:00:00	7	Dirección del viento	0
67723	7	Sololá	710	Panajachel	8	Panajachel	10	Octubre	2023-10-22T00:00:00	2024-11-08T10:00:00	1	Precipitación	0
67724	7	Sololá	710	Panajachel	8	Panajachel	10	Octubre	2023-10-22T00:00:00	2024-11-08T10:00:00	8	Radiación solar	677
67725	7	Sololá	710	Panajachel	8	Panajachel	10	Octubre	2023-10-22T00:00:00	2024-11-08T11:00:00	2	Temperatura media	23.2
67726	7	Sololá	710	Panajachel	8	Panajachel	10	Octubre	2023-10-22T00:00:00	2024-11-08T11:00:00	4	Temperatura máxima	23.2
67727	7	Sololá	710	Panajachel	8	Panajachel	10	Octubre	2023-10-22T00:00:00	2024-11-08T11:00:00	3	Temperatura mínima	21.8
67728	7	Sololá	710	Panajachel	8	Panajachel	10	Octubre	2023-10-22T00:00:00	2024-11-08T11:00:00	5	Humedad	77
67729	7	Sololá	710	Panajachel	8	Panajachel	10	Octubre	2023-10-22T00:00:00	2024-11-08T11:00:00	6	Velocidad del viento	0
67730	7	Sololá	710	Panajachel	8	Panajachel	10	Octubre	2023-10-22T00:00:00	2024-11-08T11:00:00	7	Dirección del viento	0
67731	7	Sololá	710	Panajachel	8	Panajachel	10	Octubre	2023-10-22T00:00:00	2024-11-08T11:00:00	1	Precipitación	0
67732	7	Sololá	710	Panajachel	8	Panajachel	10	Octubre	2023-10-22T00:00:00	2024-11-08T11:00:00	8	Radiación solar	802
67733	7	Sololá	710	Panajachel	8	Panajachel	10	Octubre	2023-10-22T00:00:00	2024-11-08T12:00:00	2	Temperatura media	23.3
67734	7	Sololá	710	Panajachel	8	Panajachel	10	Octubre	2023-10-22T00:00:00	2024-11-08T12:00:00	4	Temperatura máxima	23.9
67735	7	Sololá	710	Panajachel	8	Panajachel	10	Octubre	2023-10-22T00:00:00	2024-11-08T12:00:00	3	Temperatura mínima	22.3
67736	7	Sololá	710	Panajachel	8	Panajachel	10	Octubre	2023-10-22T00:00:00	2024-11-08T12:00:00	5	Humedad	77
67737	7	Sololá	710	Panajachel	8	Panajachel	10	Octubre	2023-10-22T00:00:00	2024-11-08T12:00:00	6	Velocidad del viento	3.2
67738	7	Sololá	710	Panajachel	8	Panajachel	10	Octubre	2023-10-22T00:00:00	2024-11-08T12:00:00	7	Dirección del viento	3.22
67739	7	Sololá	710	Panajachel	8	Panajachel	10	Octubre	2023-10-22T00:00:00	2024-11-08T12:00:00	1	Precipitación	0
67740	7	Sololá	710	Panajachel	8	Panajachel	10	Octubre	2023-10-22T00:00:00	2024-11-08T12:00:00	8	Radiación solar	698
67741	7	Sololá	710	Panajachel	8	Panajachel	10	Octubre	2023-10-22T00:00:00	2024-11-08T13:00:00	2	Temperatura media	24.2
67742	7	Sololá	710	Panajachel	8	Panajachel	10	Octubre	2023-10-22T00:00:00	2024-11-08T13:00:00	4	Temperatura máxima	24.3
67743	7	Sololá	710	Panajachel	8	Panajachel	10	Octubre	2023-10-22T00:00:00	2024-11-08T13:00:00	3	Temperatura mínima	23.3
67744	7	Sololá	710	Panajachel	8	Panajachel	10	Octubre	2023-10-22T00:00:00	2024-11-08T13:00:00	5	Humedad	76
67745	7	Sololá	710	Panajachel	8	Panajachel	10	Octubre	2023-10-22T00:00:00	2024-11-08T13:00:00	6	Velocidad del viento	0
67746	7	Sololá	710	Panajachel	8	Panajachel	10	Octubre	2023-10-22T00:00:00	2024-11-08T13:00:00	7	Dirección del viento	0
67747	7	Sololá	710	Panajachel	8	Panajachel	10	Octubre	2023-10-22T00:00:00	2024-11-08T13:00:00	1	Precipitación	0
67748	7	Sololá	710	Panajachel	8	Panajachel	10	Octubre	2023-10-22T00:00:00	2024-11-08T13:00:00	8	Radiación solar	657
67749	7	Sololá	710	Panajachel	8	Panajachel	10	Octubre	2023-10-22T00:00:00	2024-11-08T14:00:00	2	Temperatura media	21.6
67750	7	Sololá	710	Panajachel	8	Panajachel	10	Octubre	2023-10-22T00:00:00	2024-11-08T14:00:00	4	Temperatura máxima	25.2
67751	7	Sololá	710	Panajachel	8	Panajachel	10	Octubre	2023-10-22T00:00:00	2024-11-08T14:00:00	3	Temperatura mínima	21.6
67752	7	Sololá	710	Panajachel	8	Panajachel	10	Octubre	2023-10-22T00:00:00	2024-11-08T14:00:00	5	Humedad	88
67753	7	Sololá	710	Panajachel	8	Panajachel	10	Octubre	2023-10-22T00:00:00	2024-11-08T14:00:00	6	Velocidad del viento	1.6
67754	7	Sololá	710	Panajachel	8	Panajachel	10	Octubre	2023-10-22T00:00:00	2024-11-08T14:00:00	7	Dirección del viento	1.61
67755	7	Sololá	710	Panajachel	8	Panajachel	10	Octubre	2023-10-22T00:00:00	2024-11-08T14:00:00	1	Precipitación	0
67756	7	Sololá	710	Panajachel	8	Panajachel	10	Octubre	2023-10-22T00:00:00	2024-11-08T14:00:00	8	Radiación solar	475
67757	7	Sololá	710	Panajachel	8	Panajachel	10	Octubre	2023-10-22T00:00:00	2024-11-08T15:00:00	2	Temperatura media	19.7
67758	7	Sololá	710	Panajachel	8	Panajachel	10	Octubre	2023-10-22T00:00:00	2024-11-08T15:00:00	4	Temperatura máxima	21.6
67759	7	Sololá	710	Panajachel	8	Panajachel	10	Octubre	2023-10-22T00:00:00	2024-11-08T15:00:00	3	Temperatura mínima	19.5
67760	7	Sololá	710	Panajachel	8	Panajachel	10	Octubre	2023-10-22T00:00:00	2024-11-08T15:00:00	5	Humedad	87
67761	7	Sololá	710	Panajachel	8	Panajachel	10	Octubre	2023-10-22T00:00:00	2024-11-08T15:00:00	6	Velocidad del viento	1.6
67762	7	Sololá	710	Panajachel	8	Panajachel	10	Octubre	2023-10-22T00:00:00	2024-11-08T15:00:00	7	Dirección del viento	1.61
67763	7	Sololá	710	Panajachel	8	Panajachel	10	Octubre	2023-10-22T00:00:00	2024-11-08T15:00:00	1	Precipitación	0
67764	7	Sololá	710	Panajachel	8	Panajachel	10	Octubre	2023-10-22T00:00:00	2024-11-08T15:00:00	8	Radiación solar	78
67765	7	Sololá	710	Panajachel	8	Panajachel	10	Octubre	2023-10-22T00:00:00	2024-11-08T16:00:00	2	Temperatura media	20.1
67766	7	Sololá	710	Panajachel	8	Panajachel	10	Octubre	2023-10-22T00:00:00	2024-11-08T16:00:00	4	Temperatura máxima	20.4
67767	7	Sololá	710	Panajachel	8	Panajachel	10	Octubre	2023-10-22T00:00:00	2024-11-08T16:00:00	3	Temperatura mínima	19.7
67768	7	Sololá	710	Panajachel	8	Panajachel	10	Octubre	2023-10-22T00:00:00	2024-11-08T16:00:00	5	Humedad	88
67769	7	Sololá	710	Panajachel	8	Panajachel	10	Octubre	2023-10-22T00:00:00	2024-11-08T16:00:00	6	Velocidad del viento	0
67770	7	Sololá	710	Panajachel	8	Panajachel	10	Octubre	2023-10-22T00:00:00	2024-11-08T16:00:00	7	Dirección del viento	0
67771	7	Sololá	710	Panajachel	8	Panajachel	10	Octubre	2023-10-22T00:00:00	2024-11-08T16:00:00	1	Precipitación	0.2
67772	7	Sololá	710	Panajachel	8	Panajachel	10	Octubre	2023-10-22T00:00:00	2024-11-08T16:00:00	8	Radiación solar	157
67773	7	Sololá	710	Panajachel	8	Panajachel	10	Octubre	2023-10-22T00:00:00	2024-11-08T17:00:00	2	Temperatura media	19.9
67774	7	Sololá	710	Panajachel	8	Panajachel	10	Octubre	2023-10-22T00:00:00	2024-11-08T17:00:00	4	Temperatura máxima	20.2
67775	7	Sololá	710	Panajachel	8	Panajachel	10	Octubre	2023-10-22T00:00:00	2024-11-08T17:00:00	3	Temperatura mínima	19.8
67776	7	Sololá	710	Panajachel	8	Panajachel	10	Octubre	2023-10-22T00:00:00	2024-11-08T17:00:00	5	Humedad	88
67777	7	Sololá	710	Panajachel	8	Panajachel	10	Octubre	2023-10-22T00:00:00	2024-11-08T17:00:00	6	Velocidad del viento	0
67778	7	Sololá	710	Panajachel	8	Panajachel	10	Octubre	2023-10-22T00:00:00	2024-11-08T17:00:00	7	Dirección del viento	0
67779	7	Sololá	710	Panajachel	8	Panajachel	10	Octubre	2023-10-22T00:00:00	2024-11-08T17:00:00	1	Precipitación	0
67780	7	Sololá	710	Panajachel	8	Panajachel	10	Octubre	2023-10-22T00:00:00	2024-11-08T17:00:00	8	Radiación solar	32
67781	7	Sololá	710	Panajachel	8	Panajachel	10	Octubre	2023-10-22T00:00:00	2024-11-08T18:00:00	2	Temperatura media	19.2
67782	7	Sololá	710	Panajachel	8	Panajachel	10	Octubre	2023-10-22T00:00:00	2024-11-08T18:00:00	4	Temperatura máxima	20.1
67783	7	Sololá	710	Panajachel	8	Panajachel	10	Octubre	2023-10-22T00:00:00	2024-11-08T18:00:00	3	Temperatura mínima	19.2
67784	7	Sololá	710	Panajachel	8	Panajachel	10	Octubre	2023-10-22T00:00:00	2024-11-08T18:00:00	5	Humedad	95
67785	7	Sololá	710	Panajachel	8	Panajachel	10	Octubre	2023-10-22T00:00:00	2024-11-08T18:00:00	6	Velocidad del viento	0
67786	7	Sololá	710	Panajachel	8	Panajachel	10	Octubre	2023-10-22T00:00:00	2024-11-08T18:00:00	7	Dirección del viento	0
67787	7	Sololá	710	Panajachel	8	Panajachel	10	Octubre	2023-10-22T00:00:00	2024-11-08T18:00:00	1	Precipitación	1.8
67788	7	Sololá	710	Panajachel	8	Panajachel	10	Octubre	2023-10-22T00:00:00	2024-11-08T18:00:00	8	Radiación solar	0
67789	7	Sololá	710	Panajachel	8	Panajachel	10	Octubre	2023-10-22T00:00:00	2024-11-08T19:00:00	2	Temperatura media	18.4
67790	7	Sololá	710	Panajachel	8	Panajachel	10	Octubre	2023-10-22T00:00:00	2024-11-08T19:00:00	4	Temperatura máxima	19.3
67791	7	Sololá	710	Panajachel	8	Panajachel	10	Octubre	2023-10-22T00:00:00	2024-11-08T19:00:00	3	Temperatura mínima	18.4
67792	7	Sololá	710	Panajachel	8	Panajachel	10	Octubre	2023-10-22T00:00:00	2024-11-08T19:00:00	5	Humedad	96
67793	7	Sololá	710	Panajachel	8	Panajachel	10	Octubre	2023-10-22T00:00:00	2024-11-08T19:00:00	6	Velocidad del viento	0
67794	7	Sololá	710	Panajachel	8	Panajachel	10	Octubre	2023-10-22T00:00:00	2024-11-08T19:00:00	7	Dirección del viento	0
67795	7	Sololá	710	Panajachel	8	Panajachel	10	Octubre	2023-10-22T00:00:00	2024-11-08T19:00:00	1	Precipitación	3.8
67796	7	Sololá	710	Panajachel	8	Panajachel	10	Octubre	2023-10-22T00:00:00	2024-11-08T19:00:00	8	Radiación solar	0
67797	7	Sololá	710	Panajachel	8	Panajachel	10	Octubre	2023-10-22T00:00:00	2024-11-08T20:00:00	2	Temperatura media	18.3
67798	7	Sololá	710	Panajachel	8	Panajachel	10	Octubre	2023-10-22T00:00:00	2024-11-08T20:00:00	4	Temperatura máxima	18.4
67799	7	Sololá	710	Panajachel	8	Panajachel	10	Octubre	2023-10-22T00:00:00	2024-11-08T20:00:00	3	Temperatura mínima	18.2
67800	7	Sololá	710	Panajachel	8	Panajachel	10	Octubre	2023-10-22T00:00:00	2024-11-08T20:00:00	5	Humedad	97
67801	7	Sololá	710	Panajachel	8	Panajachel	10	Octubre	2023-10-22T00:00:00	2024-11-08T20:00:00	6	Velocidad del viento	0
67802	7	Sololá	710	Panajachel	8	Panajachel	10	Octubre	2023-10-22T00:00:00	2024-11-08T20:00:00	7	Dirección del viento	0
67803	7	Sololá	710	Panajachel	8	Panajachel	10	Octubre	2023-10-22T00:00:00	2024-11-08T20:00:00	1	Precipitación	0.4
67804	7	Sololá	710	Panajachel	8	Panajachel	10	Octubre	2023-10-22T00:00:00	2024-11-08T20:00:00	8	Radiación solar	0
67805	7	Sololá	710	Panajachel	8	Panajachel	10	Octubre	2023-10-22T00:00:00	2024-11-08T21:00:00	2	Temperatura media	18.1
67806	7	Sololá	710	Panajachel	8	Panajachel	10	Octubre	2023-10-22T00:00:00	2024-11-08T21:00:00	4	Temperatura máxima	18.3
67807	7	Sololá	710	Panajachel	8	Panajachel	10	Octubre	2023-10-22T00:00:00	2024-11-08T21:00:00	3	Temperatura mínima	18.1
67808	7	Sololá	710	Panajachel	8	Panajachel	10	Octubre	2023-10-22T00:00:00	2024-11-08T21:00:00	5	Humedad	97
67809	7	Sololá	710	Panajachel	8	Panajachel	10	Octubre	2023-10-22T00:00:00	2024-11-08T21:00:00	6	Velocidad del viento	0
67810	7	Sololá	710	Panajachel	8	Panajachel	10	Octubre	2023-10-22T00:00:00	2024-11-08T21:00:00	7	Dirección del viento	0
67811	7	Sololá	710	Panajachel	8	Panajachel	10	Octubre	2023-10-22T00:00:00	2024-11-08T21:00:00	1	Precipitación	2.2
67812	7	Sololá	710	Panajachel	8	Panajachel	10	Octubre	2023-10-22T00:00:00	2024-11-08T21:00:00	8	Radiación solar	0
67813	7	Sololá	710	Panajachel	8	Panajachel	10	Octubre	2023-10-22T00:00:00	2024-11-08T22:00:00	2	Temperatura media	18
67814	7	Sololá	710	Panajachel	8	Panajachel	10	Octubre	2023-10-22T00:00:00	2024-11-08T22:00:00	4	Temperatura máxima	18.2
67815	7	Sololá	710	Panajachel	8	Panajachel	10	Octubre	2023-10-22T00:00:00	2024-11-08T22:00:00	3	Temperatura mínima	17.9
67816	7	Sololá	710	Panajachel	8	Panajachel	10	Octubre	2023-10-22T00:00:00	2024-11-08T22:00:00	5	Humedad	97
67817	7	Sololá	710	Panajachel	8	Panajachel	10	Octubre	2023-10-22T00:00:00	2024-11-08T22:00:00	6	Velocidad del viento	0
67818	7	Sololá	710	Panajachel	8	Panajachel	10	Octubre	2023-10-22T00:00:00	2024-11-08T22:00:00	7	Dirección del viento	0
67819	7	Sololá	710	Panajachel	8	Panajachel	10	Octubre	2023-10-22T00:00:00	2024-11-08T22:00:00	1	Precipitación	1.4
67820	7	Sololá	710	Panajachel	8	Panajachel	10	Octubre	2023-10-22T00:00:00	2024-11-08T22:00:00	8	Radiación solar	0
67821	7	Sololá	710	Panajachel	8	Panajachel	10	Octubre	2023-10-22T00:00:00	2024-11-08T23:00:00	2	Temperatura media	17.5
67822	7	Sololá	710	Panajachel	8	Panajachel	10	Octubre	2023-10-22T00:00:00	2024-11-08T23:00:00	4	Temperatura máxima	18
67823	7	Sololá	710	Panajachel	8	Panajachel	10	Octubre	2023-10-22T00:00:00	2024-11-08T23:00:00	3	Temperatura mínima	17.5
67824	7	Sololá	710	Panajachel	8	Panajachel	10	Octubre	2023-10-22T00:00:00	2024-11-08T23:00:00	5	Humedad	97
67825	7	Sololá	710	Panajachel	8	Panajachel	10	Octubre	2023-10-22T00:00:00	2024-11-08T23:00:00	6	Velocidad del viento	0
67826	7	Sololá	710	Panajachel	8	Panajachel	10	Octubre	2023-10-22T00:00:00	2024-11-08T23:00:00	7	Dirección del viento	0
67827	7	Sololá	710	Panajachel	8	Panajachel	10	Octubre	2023-10-22T00:00:00	2024-11-08T23:00:00	1	Precipitación	0
67828	7	Sololá	710	Panajachel	8	Panajachel	10	Octubre	2023-10-22T00:00:00	2024-11-08T23:00:00	8	Radiación solar	0
67829	7	Sololá	710	Panajachel	8	Panajachel	10	Octubre	2023-10-23T00:00:00	2024-11-08T00:00:00	2	Temperatura media	16.8
67830	7	Sololá	710	Panajachel	8	Panajachel	10	Octubre	2023-10-23T00:00:00	2024-11-08T00:00:00	4	Temperatura máxima	17.5
67831	7	Sololá	710	Panajachel	8	Panajachel	10	Octubre	2023-10-23T00:00:00	2024-11-08T00:00:00	3	Temperatura mínima	16.8
67832	7	Sololá	710	Panajachel	8	Panajachel	10	Octubre	2023-10-23T00:00:00	2024-11-08T00:00:00	5	Humedad	97
67833	7	Sololá	710	Panajachel	8	Panajachel	10	Octubre	2023-10-23T00:00:00	2024-11-08T00:00:00	6	Velocidad del viento	0
67834	7	Sololá	710	Panajachel	8	Panajachel	10	Octubre	2023-10-23T00:00:00	2024-11-08T00:00:00	7	Dirección del viento	0
67835	7	Sololá	710	Panajachel	8	Panajachel	10	Octubre	2023-10-23T00:00:00	2024-11-08T00:00:00	1	Precipitación	0
67836	7	Sololá	710	Panajachel	8	Panajachel	10	Octubre	2023-10-23T00:00:00	2024-11-08T00:00:00	8	Radiación solar	0
67837	7	Sololá	710	Panajachel	8	Panajachel	10	Octubre	2023-10-23T00:00:00	2024-11-08T01:00:00	2	Temperatura media	16.5
67838	7	Sololá	710	Panajachel	8	Panajachel	10	Octubre	2023-10-23T00:00:00	2024-11-08T01:00:00	4	Temperatura máxima	16.8
67839	7	Sololá	710	Panajachel	8	Panajachel	10	Octubre	2023-10-23T00:00:00	2024-11-08T01:00:00	3	Temperatura mínima	16.5
67840	7	Sololá	710	Panajachel	8	Panajachel	10	Octubre	2023-10-23T00:00:00	2024-11-08T01:00:00	5	Humedad	95
67841	7	Sololá	710	Panajachel	8	Panajachel	10	Octubre	2023-10-23T00:00:00	2024-11-08T01:00:00	6	Velocidad del viento	0
67842	7	Sololá	710	Panajachel	8	Panajachel	10	Octubre	2023-10-23T00:00:00	2024-11-08T01:00:00	7	Dirección del viento	0
67843	7	Sololá	710	Panajachel	8	Panajachel	10	Octubre	2023-10-23T00:00:00	2024-11-08T01:00:00	1	Precipitación	0
67844	7	Sololá	710	Panajachel	8	Panajachel	10	Octubre	2023-10-23T00:00:00	2024-11-08T01:00:00	8	Radiación solar	0
67845	7	Sololá	710	Panajachel	8	Panajachel	10	Octubre	2023-10-23T00:00:00	2024-11-08T02:00:00	2	Temperatura media	16.4
67846	7	Sololá	710	Panajachel	8	Panajachel	10	Octubre	2023-10-23T00:00:00	2024-11-08T02:00:00	4	Temperatura máxima	16.5
67847	7	Sololá	710	Panajachel	8	Panajachel	10	Octubre	2023-10-23T00:00:00	2024-11-08T02:00:00	3	Temperatura mínima	16.4
67848	7	Sololá	710	Panajachel	8	Panajachel	10	Octubre	2023-10-23T00:00:00	2024-11-08T02:00:00	5	Humedad	94
67849	7	Sololá	710	Panajachel	8	Panajachel	10	Octubre	2023-10-23T00:00:00	2024-11-08T02:00:00	6	Velocidad del viento	0
67850	7	Sololá	710	Panajachel	8	Panajachel	10	Octubre	2023-10-23T00:00:00	2024-11-08T02:00:00	7	Dirección del viento	0
67851	7	Sololá	710	Panajachel	8	Panajachel	10	Octubre	2023-10-23T00:00:00	2024-11-08T02:00:00	1	Precipitación	0
67852	7	Sololá	710	Panajachel	8	Panajachel	10	Octubre	2023-10-23T00:00:00	2024-11-08T02:00:00	8	Radiación solar	0
67853	7	Sololá	710	Panajachel	8	Panajachel	10	Octubre	2023-10-23T00:00:00	2024-11-08T03:00:00	2	Temperatura media	16.6
67854	7	Sololá	710	Panajachel	8	Panajachel	10	Octubre	2023-10-23T00:00:00	2024-11-08T03:00:00	4	Temperatura máxima	16.7
67855	7	Sololá	710	Panajachel	8	Panajachel	10	Octubre	2023-10-23T00:00:00	2024-11-08T03:00:00	3	Temperatura mínima	16.3
67856	7	Sololá	710	Panajachel	8	Panajachel	10	Octubre	2023-10-23T00:00:00	2024-11-08T03:00:00	5	Humedad	91
67857	7	Sololá	710	Panajachel	8	Panajachel	10	Octubre	2023-10-23T00:00:00	2024-11-08T03:00:00	6	Velocidad del viento	0
67858	7	Sololá	710	Panajachel	8	Panajachel	10	Octubre	2023-10-23T00:00:00	2024-11-08T03:00:00	7	Dirección del viento	0
67859	7	Sololá	710	Panajachel	8	Panajachel	10	Octubre	2023-10-23T00:00:00	2024-11-08T03:00:00	1	Precipitación	0
67860	7	Sololá	710	Panajachel	8	Panajachel	10	Octubre	2023-10-23T00:00:00	2024-11-08T03:00:00	8	Radiación solar	0
67861	7	Sololá	710	Panajachel	8	Panajachel	10	Octubre	2023-10-23T00:00:00	2024-11-08T04:00:00	2	Temperatura media	16.4
67862	7	Sololá	710	Panajachel	8	Panajachel	10	Octubre	2023-10-23T00:00:00	2024-11-08T04:00:00	4	Temperatura máxima	16.6
67863	7	Sololá	710	Panajachel	8	Panajachel	10	Octubre	2023-10-23T00:00:00	2024-11-08T04:00:00	3	Temperatura mínima	16.2
67864	7	Sololá	710	Panajachel	8	Panajachel	10	Octubre	2023-10-23T00:00:00	2024-11-08T04:00:00	5	Humedad	90
67865	7	Sololá	710	Panajachel	8	Panajachel	10	Octubre	2023-10-23T00:00:00	2024-11-08T04:00:00	6	Velocidad del viento	0
67866	7	Sololá	710	Panajachel	8	Panajachel	10	Octubre	2023-10-23T00:00:00	2024-11-08T04:00:00	7	Dirección del viento	0
67867	7	Sololá	710	Panajachel	8	Panajachel	10	Octubre	2023-10-23T00:00:00	2024-11-08T04:00:00	1	Precipitación	0
67868	7	Sololá	710	Panajachel	8	Panajachel	10	Octubre	2023-10-23T00:00:00	2024-11-08T04:00:00	8	Radiación solar	0
67869	7	Sololá	710	Panajachel	8	Panajachel	10	Octubre	2023-10-23T00:00:00	2024-11-08T05:00:00	2	Temperatura media	16.6
67870	7	Sololá	710	Panajachel	8	Panajachel	10	Octubre	2023-10-23T00:00:00	2024-11-08T05:00:00	4	Temperatura máxima	16.7
67871	7	Sololá	710	Panajachel	8	Panajachel	10	Octubre	2023-10-23T00:00:00	2024-11-08T05:00:00	3	Temperatura mínima	16.4
67872	7	Sololá	710	Panajachel	8	Panajachel	10	Octubre	2023-10-23T00:00:00	2024-11-08T05:00:00	5	Humedad	89
67873	7	Sololá	710	Panajachel	8	Panajachel	10	Octubre	2023-10-23T00:00:00	2024-11-08T05:00:00	6	Velocidad del viento	0
67874	7	Sololá	710	Panajachel	8	Panajachel	10	Octubre	2023-10-23T00:00:00	2024-11-08T05:00:00	7	Dirección del viento	0
67875	7	Sololá	710	Panajachel	8	Panajachel	10	Octubre	2023-10-23T00:00:00	2024-11-08T05:00:00	1	Precipitación	0
67876	7	Sololá	710	Panajachel	8	Panajachel	10	Octubre	2023-10-23T00:00:00	2024-11-08T05:00:00	8	Radiación solar	0
67877	7	Sololá	710	Panajachel	8	Panajachel	10	Octubre	2023-10-23T00:00:00	2024-11-08T06:00:00	2	Temperatura media	16.1
67878	7	Sololá	710	Panajachel	8	Panajachel	10	Octubre	2023-10-23T00:00:00	2024-11-08T06:00:00	4	Temperatura máxima	16.6
67879	7	Sololá	710	Panajachel	8	Panajachel	10	Octubre	2023-10-23T00:00:00	2024-11-08T06:00:00	3	Temperatura mínima	16
67880	7	Sololá	710	Panajachel	8	Panajachel	10	Octubre	2023-10-23T00:00:00	2024-11-08T06:00:00	5	Humedad	90
67881	7	Sololá	710	Panajachel	8	Panajachel	10	Octubre	2023-10-23T00:00:00	2024-11-08T06:00:00	6	Velocidad del viento	1.6
67882	7	Sololá	710	Panajachel	8	Panajachel	10	Octubre	2023-10-23T00:00:00	2024-11-08T06:00:00	7	Dirección del viento	1.61
67883	7	Sololá	710	Panajachel	8	Panajachel	10	Octubre	2023-10-23T00:00:00	2024-11-08T06:00:00	1	Precipitación	0
67884	7	Sololá	710	Panajachel	8	Panajachel	10	Octubre	2023-10-23T00:00:00	2024-11-08T06:00:00	8	Radiación solar	0
67885	7	Sololá	710	Panajachel	8	Panajachel	10	Octubre	2023-10-23T00:00:00	2024-11-08T07:00:00	2	Temperatura media	16.8
67886	7	Sololá	710	Panajachel	8	Panajachel	10	Octubre	2023-10-23T00:00:00	2024-11-08T07:00:00	4	Temperatura máxima	16.8
67887	7	Sololá	710	Panajachel	8	Panajachel	10	Octubre	2023-10-23T00:00:00	2024-11-08T07:00:00	3	Temperatura mínima	16.1
67888	7	Sololá	710	Panajachel	8	Panajachel	10	Octubre	2023-10-23T00:00:00	2024-11-08T07:00:00	5	Humedad	88
67889	7	Sololá	710	Panajachel	8	Panajachel	10	Octubre	2023-10-23T00:00:00	2024-11-08T07:00:00	6	Velocidad del viento	4.8
67890	7	Sololá	710	Panajachel	8	Panajachel	10	Octubre	2023-10-23T00:00:00	2024-11-08T07:00:00	7	Dirección del viento	4.83
67891	7	Sololá	710	Panajachel	8	Panajachel	10	Octubre	2023-10-23T00:00:00	2024-11-08T07:00:00	1	Precipitación	0
67892	7	Sololá	710	Panajachel	8	Panajachel	10	Octubre	2023-10-23T00:00:00	2024-11-08T07:00:00	8	Radiación solar	49
67893	7	Sololá	710	Panajachel	8	Panajachel	10	Octubre	2023-10-23T00:00:00	2024-11-08T08:00:00	2	Temperatura media	19.5
67894	7	Sololá	710	Panajachel	8	Panajachel	10	Octubre	2023-10-23T00:00:00	2024-11-08T08:00:00	4	Temperatura máxima	19.6
67895	7	Sololá	710	Panajachel	8	Panajachel	10	Octubre	2023-10-23T00:00:00	2024-11-08T08:00:00	3	Temperatura mínima	16.8
67896	7	Sololá	710	Panajachel	8	Panajachel	10	Octubre	2023-10-23T00:00:00	2024-11-08T08:00:00	5	Humedad	82
67897	7	Sololá	710	Panajachel	8	Panajachel	10	Octubre	2023-10-23T00:00:00	2024-11-08T08:00:00	6	Velocidad del viento	1.6
67898	7	Sololá	710	Panajachel	8	Panajachel	10	Octubre	2023-10-23T00:00:00	2024-11-08T08:00:00	7	Dirección del viento	1.61
67899	7	Sololá	710	Panajachel	8	Panajachel	10	Octubre	2023-10-23T00:00:00	2024-11-08T08:00:00	1	Precipitación	0
67900	7	Sololá	710	Panajachel	8	Panajachel	10	Octubre	2023-10-23T00:00:00	2024-11-08T08:00:00	8	Radiación solar	266
67901	7	Sololá	710	Panajachel	8	Panajachel	10	Octubre	2023-10-23T00:00:00	2024-11-08T09:00:00	2	Temperatura media	21.7
67902	7	Sololá	710	Panajachel	8	Panajachel	10	Octubre	2023-10-23T00:00:00	2024-11-08T09:00:00	4	Temperatura máxima	21.9
67903	7	Sololá	710	Panajachel	8	Panajachel	10	Octubre	2023-10-23T00:00:00	2024-11-08T09:00:00	3	Temperatura mínima	19.6
67904	7	Sololá	710	Panajachel	8	Panajachel	10	Octubre	2023-10-23T00:00:00	2024-11-08T09:00:00	5	Humedad	76
67905	7	Sololá	710	Panajachel	8	Panajachel	10	Octubre	2023-10-23T00:00:00	2024-11-08T09:00:00	6	Velocidad del viento	0
67906	7	Sololá	710	Panajachel	8	Panajachel	10	Octubre	2023-10-23T00:00:00	2024-11-08T09:00:00	7	Dirección del viento	0
67907	7	Sololá	710	Panajachel	8	Panajachel	10	Octubre	2023-10-23T00:00:00	2024-11-08T09:00:00	1	Precipitación	0
67908	7	Sololá	710	Panajachel	8	Panajachel	10	Octubre	2023-10-23T00:00:00	2024-11-08T09:00:00	8	Radiación solar	545
67909	7	Sololá	710	Panajachel	8	Panajachel	10	Octubre	2023-10-23T00:00:00	2024-11-08T10:00:00	2	Temperatura media	21.8
67910	7	Sololá	710	Panajachel	8	Panajachel	10	Octubre	2023-10-23T00:00:00	2024-11-08T10:00:00	4	Temperatura máxima	21.8
67911	7	Sololá	710	Panajachel	8	Panajachel	10	Octubre	2023-10-23T00:00:00	2024-11-08T10:00:00	3	Temperatura mínima	20.8
67912	7	Sololá	710	Panajachel	8	Panajachel	10	Octubre	2023-10-23T00:00:00	2024-11-08T10:00:00	5	Humedad	77
67913	7	Sololá	710	Panajachel	8	Panajachel	10	Octubre	2023-10-23T00:00:00	2024-11-08T10:00:00	6	Velocidad del viento	0
67914	7	Sololá	710	Panajachel	8	Panajachel	10	Octubre	2023-10-23T00:00:00	2024-11-08T10:00:00	7	Dirección del viento	0
67915	7	Sololá	710	Panajachel	8	Panajachel	10	Octubre	2023-10-23T00:00:00	2024-11-08T10:00:00	1	Precipitación	0
67916	7	Sololá	710	Panajachel	8	Panajachel	10	Octubre	2023-10-23T00:00:00	2024-11-08T10:00:00	8	Radiación solar	694
67917	7	Sololá	710	Panajachel	8	Panajachel	10	Octubre	2023-10-23T00:00:00	2024-11-08T11:00:00	2	Temperatura media	23
67918	7	Sololá	710	Panajachel	8	Panajachel	10	Octubre	2023-10-23T00:00:00	2024-11-08T11:00:00	4	Temperatura máxima	23.1
67919	7	Sololá	710	Panajachel	8	Panajachel	10	Octubre	2023-10-23T00:00:00	2024-11-08T11:00:00	3	Temperatura mínima	21.8
67920	7	Sololá	710	Panajachel	8	Panajachel	10	Octubre	2023-10-23T00:00:00	2024-11-08T11:00:00	5	Humedad	75
67921	7	Sololá	710	Panajachel	8	Panajachel	10	Octubre	2023-10-23T00:00:00	2024-11-08T11:00:00	6	Velocidad del viento	0
67922	7	Sololá	710	Panajachel	8	Panajachel	10	Octubre	2023-10-23T00:00:00	2024-11-08T11:00:00	7	Dirección del viento	0
67923	7	Sololá	710	Panajachel	8	Panajachel	10	Octubre	2023-10-23T00:00:00	2024-11-08T11:00:00	1	Precipitación	0
67924	7	Sololá	710	Panajachel	8	Panajachel	10	Octubre	2023-10-23T00:00:00	2024-11-08T11:00:00	8	Radiación solar	824
67925	7	Sololá	710	Panajachel	8	Panajachel	10	Octubre	2023-10-23T00:00:00	2024-11-08T12:00:00	2	Temperatura media	22.6
67926	7	Sololá	710	Panajachel	8	Panajachel	10	Octubre	2023-10-23T00:00:00	2024-11-08T12:00:00	4	Temperatura máxima	23.6
67927	7	Sololá	710	Panajachel	8	Panajachel	10	Octubre	2023-10-23T00:00:00	2024-11-08T12:00:00	3	Temperatura mínima	22.6
67928	7	Sololá	710	Panajachel	8	Panajachel	10	Octubre	2023-10-23T00:00:00	2024-11-08T12:00:00	5	Humedad	77
67929	7	Sololá	710	Panajachel	8	Panajachel	10	Octubre	2023-10-23T00:00:00	2024-11-08T12:00:00	6	Velocidad del viento	0
67930	7	Sololá	710	Panajachel	8	Panajachel	10	Octubre	2023-10-23T00:00:00	2024-11-08T12:00:00	7	Dirección del viento	0
67931	7	Sololá	710	Panajachel	8	Panajachel	10	Octubre	2023-10-23T00:00:00	2024-11-08T12:00:00	1	Precipitación	0
67932	7	Sololá	710	Panajachel	8	Panajachel	10	Octubre	2023-10-23T00:00:00	2024-11-08T12:00:00	8	Radiación solar	860
67933	7	Sololá	710	Panajachel	8	Panajachel	10	Octubre	2023-10-23T00:00:00	2024-11-08T13:00:00	2	Temperatura media	23.8
67934	7	Sololá	710	Panajachel	8	Panajachel	10	Octubre	2023-10-23T00:00:00	2024-11-08T13:00:00	4	Temperatura máxima	23.9
67935	7	Sololá	710	Panajachel	8	Panajachel	10	Octubre	2023-10-23T00:00:00	2024-11-08T13:00:00	3	Temperatura mínima	22.4
67936	7	Sololá	710	Panajachel	8	Panajachel	10	Octubre	2023-10-23T00:00:00	2024-11-08T13:00:00	5	Humedad	78
67937	7	Sololá	710	Panajachel	8	Panajachel	10	Octubre	2023-10-23T00:00:00	2024-11-08T13:00:00	6	Velocidad del viento	0
67938	7	Sololá	710	Panajachel	8	Panajachel	10	Octubre	2023-10-23T00:00:00	2024-11-08T13:00:00	7	Dirección del viento	0
67939	7	Sololá	710	Panajachel	8	Panajachel	10	Octubre	2023-10-23T00:00:00	2024-11-08T13:00:00	1	Precipitación	0
67940	7	Sololá	710	Panajachel	8	Panajachel	10	Octubre	2023-10-23T00:00:00	2024-11-08T13:00:00	8	Radiación solar	813
67941	7	Sololá	710	Panajachel	8	Panajachel	10	Octubre	2023-10-23T00:00:00	2024-11-08T14:00:00	2	Temperatura media	22.7
67942	7	Sololá	710	Panajachel	8	Panajachel	10	Octubre	2023-10-23T00:00:00	2024-11-08T14:00:00	4	Temperatura máxima	24.4
67943	7	Sololá	710	Panajachel	8	Panajachel	10	Octubre	2023-10-23T00:00:00	2024-11-08T14:00:00	3	Temperatura mínima	22.7
67944	7	Sololá	710	Panajachel	8	Panajachel	10	Octubre	2023-10-23T00:00:00	2024-11-08T14:00:00	5	Humedad	83
67945	7	Sololá	710	Panajachel	8	Panajachel	10	Octubre	2023-10-23T00:00:00	2024-11-08T14:00:00	6	Velocidad del viento	1.6
67946	7	Sololá	710	Panajachel	8	Panajachel	10	Octubre	2023-10-23T00:00:00	2024-11-08T14:00:00	7	Dirección del viento	1.61
67947	7	Sololá	710	Panajachel	8	Panajachel	10	Octubre	2023-10-23T00:00:00	2024-11-08T14:00:00	1	Precipitación	0
67948	7	Sololá	710	Panajachel	8	Panajachel	10	Octubre	2023-10-23T00:00:00	2024-11-08T14:00:00	8	Radiación solar	607
67949	7	Sololá	710	Panajachel	8	Panajachel	10	Octubre	2023-10-23T00:00:00	2024-11-08T15:00:00	2	Temperatura media	22.4
67950	7	Sololá	710	Panajachel	8	Panajachel	10	Octubre	2023-10-23T00:00:00	2024-11-08T15:00:00	4	Temperatura máxima	23.8
67951	7	Sololá	710	Panajachel	8	Panajachel	10	Octubre	2023-10-23T00:00:00	2024-11-08T15:00:00	3	Temperatura mínima	22.4
67952	7	Sololá	710	Panajachel	8	Panajachel	10	Octubre	2023-10-23T00:00:00	2024-11-08T15:00:00	5	Humedad	83
67953	7	Sololá	710	Panajachel	8	Panajachel	10	Octubre	2023-10-23T00:00:00	2024-11-08T15:00:00	6	Velocidad del viento	1.6
67954	7	Sololá	710	Panajachel	8	Panajachel	10	Octubre	2023-10-23T00:00:00	2024-11-08T15:00:00	7	Dirección del viento	1.61
67955	7	Sololá	710	Panajachel	8	Panajachel	10	Octubre	2023-10-23T00:00:00	2024-11-08T15:00:00	1	Precipitación	0
67956	7	Sololá	710	Panajachel	8	Panajachel	10	Octubre	2023-10-23T00:00:00	2024-11-08T15:00:00	8	Radiación solar	378
67957	7	Sololá	710	Panajachel	8	Panajachel	10	Octubre	2023-10-23T00:00:00	2024-11-08T16:00:00	2	Temperatura media	22.9
67958	7	Sololá	710	Panajachel	8	Panajachel	10	Octubre	2023-10-23T00:00:00	2024-11-08T16:00:00	4	Temperatura máxima	22.9
67959	7	Sololá	710	Panajachel	8	Panajachel	10	Octubre	2023-10-23T00:00:00	2024-11-08T16:00:00	3	Temperatura mínima	22.1
67960	7	Sololá	710	Panajachel	8	Panajachel	10	Octubre	2023-10-23T00:00:00	2024-11-08T16:00:00	5	Humedad	82
67961	7	Sololá	710	Panajachel	8	Panajachel	10	Octubre	2023-10-23T00:00:00	2024-11-08T16:00:00	6	Velocidad del viento	1.6
67962	7	Sololá	710	Panajachel	8	Panajachel	10	Octubre	2023-10-23T00:00:00	2024-11-08T16:00:00	7	Dirección del viento	1.61
67963	7	Sololá	710	Panajachel	8	Panajachel	10	Octubre	2023-10-23T00:00:00	2024-11-08T16:00:00	1	Precipitación	0
67964	7	Sololá	710	Panajachel	8	Panajachel	10	Octubre	2023-10-23T00:00:00	2024-11-08T16:00:00	8	Radiación solar	313
67965	7	Sololá	710	Panajachel	8	Panajachel	10	Octubre	2023-10-23T00:00:00	2024-11-08T17:00:00	2	Temperatura media	23.2
67966	7	Sololá	710	Panajachel	8	Panajachel	10	Octubre	2023-10-23T00:00:00	2024-11-08T17:00:00	4	Temperatura máxima	23.6
67967	7	Sololá	710	Panajachel	8	Panajachel	10	Octubre	2023-10-23T00:00:00	2024-11-08T17:00:00	3	Temperatura mínima	22.9
67968	7	Sololá	710	Panajachel	8	Panajachel	10	Octubre	2023-10-23T00:00:00	2024-11-08T17:00:00	5	Humedad	78
67969	7	Sololá	710	Panajachel	8	Panajachel	10	Octubre	2023-10-23T00:00:00	2024-11-08T17:00:00	6	Velocidad del viento	0
67970	7	Sololá	710	Panajachel	8	Panajachel	10	Octubre	2023-10-23T00:00:00	2024-11-08T17:00:00	7	Dirección del viento	0
67971	7	Sololá	710	Panajachel	8	Panajachel	10	Octubre	2023-10-23T00:00:00	2024-11-08T17:00:00	1	Precipitación	0
67972	7	Sololá	710	Panajachel	8	Panajachel	10	Octubre	2023-10-23T00:00:00	2024-11-08T17:00:00	8	Radiación solar	202
67973	7	Sololá	710	Panajachel	8	Panajachel	10	Octubre	2023-10-23T00:00:00	2024-11-08T18:00:00	2	Temperatura media	20.8
67974	7	Sololá	710	Panajachel	8	Panajachel	10	Octubre	2023-10-23T00:00:00	2024-11-08T18:00:00	4	Temperatura máxima	23.2
67975	7	Sololá	710	Panajachel	8	Panajachel	10	Octubre	2023-10-23T00:00:00	2024-11-08T18:00:00	3	Temperatura mínima	20.8
67976	7	Sololá	710	Panajachel	8	Panajachel	10	Octubre	2023-10-23T00:00:00	2024-11-08T18:00:00	5	Humedad	89
67977	7	Sololá	710	Panajachel	8	Panajachel	10	Octubre	2023-10-23T00:00:00	2024-11-08T18:00:00	6	Velocidad del viento	0
67978	7	Sololá	710	Panajachel	8	Panajachel	10	Octubre	2023-10-23T00:00:00	2024-11-08T18:00:00	7	Dirección del viento	0
67979	7	Sololá	710	Panajachel	8	Panajachel	10	Octubre	2023-10-23T00:00:00	2024-11-08T18:00:00	1	Precipitación	0
67980	7	Sololá	710	Panajachel	8	Panajachel	10	Octubre	2023-10-23T00:00:00	2024-11-08T18:00:00	8	Radiación solar	13
67981	7	Sololá	710	Panajachel	8	Panajachel	10	Octubre	2023-10-23T00:00:00	2024-11-08T19:00:00	2	Temperatura media	20.4
67982	7	Sololá	710	Panajachel	8	Panajachel	10	Octubre	2023-10-23T00:00:00	2024-11-08T19:00:00	4	Temperatura máxima	20.8
67983	7	Sololá	710	Panajachel	8	Panajachel	10	Octubre	2023-10-23T00:00:00	2024-11-08T19:00:00	3	Temperatura mínima	20.4
67984	7	Sololá	710	Panajachel	8	Panajachel	10	Octubre	2023-10-23T00:00:00	2024-11-08T19:00:00	5	Humedad	91
67985	7	Sololá	710	Panajachel	8	Panajachel	10	Octubre	2023-10-23T00:00:00	2024-11-08T19:00:00	6	Velocidad del viento	0
67986	7	Sololá	710	Panajachel	8	Panajachel	10	Octubre	2023-10-23T00:00:00	2024-11-08T19:00:00	7	Dirección del viento	0
67987	7	Sololá	710	Panajachel	8	Panajachel	10	Octubre	2023-10-23T00:00:00	2024-11-08T19:00:00	1	Precipitación	0
67988	7	Sololá	710	Panajachel	8	Panajachel	10	Octubre	2023-10-23T00:00:00	2024-11-08T19:00:00	8	Radiación solar	0
67989	7	Sololá	710	Panajachel	8	Panajachel	10	Octubre	2023-10-23T00:00:00	2024-11-08T20:00:00	2	Temperatura media	20.1
67990	7	Sololá	710	Panajachel	8	Panajachel	10	Octubre	2023-10-23T00:00:00	2024-11-08T20:00:00	4	Temperatura máxima	20.5
67991	7	Sololá	710	Panajachel	8	Panajachel	10	Octubre	2023-10-23T00:00:00	2024-11-08T20:00:00	3	Temperatura mínima	20.1
67992	7	Sololá	710	Panajachel	8	Panajachel	10	Octubre	2023-10-23T00:00:00	2024-11-08T20:00:00	5	Humedad	92
67993	7	Sololá	710	Panajachel	8	Panajachel	10	Octubre	2023-10-23T00:00:00	2024-11-08T20:00:00	6	Velocidad del viento	0
67994	7	Sololá	710	Panajachel	8	Panajachel	10	Octubre	2023-10-23T00:00:00	2024-11-08T20:00:00	7	Dirección del viento	0
67995	7	Sololá	710	Panajachel	8	Panajachel	10	Octubre	2023-10-23T00:00:00	2024-11-08T20:00:00	1	Precipitación	0
67996	7	Sololá	710	Panajachel	8	Panajachel	10	Octubre	2023-10-23T00:00:00	2024-11-08T20:00:00	8	Radiación solar	0
67997	7	Sololá	710	Panajachel	8	Panajachel	10	Octubre	2023-10-23T00:00:00	2024-11-08T21:00:00	2	Temperatura media	20.1
67998	7	Sololá	710	Panajachel	8	Panajachel	10	Octubre	2023-10-23T00:00:00	2024-11-08T21:00:00	4	Temperatura máxima	20.2
67999	7	Sololá	710	Panajachel	8	Panajachel	10	Octubre	2023-10-23T00:00:00	2024-11-08T21:00:00	3	Temperatura mínima	20
68000	7	Sololá	710	Panajachel	8	Panajachel	10	Octubre	2023-10-23T00:00:00	2024-11-08T21:00:00	5	Humedad	92
68001	7	Sololá	710	Panajachel	8	Panajachel	10	Octubre	2023-10-23T00:00:00	2024-11-08T21:00:00	6	Velocidad del viento	0
68002	7	Sololá	710	Panajachel	8	Panajachel	10	Octubre	2023-10-23T00:00:00	2024-11-08T21:00:00	7	Dirección del viento	0
68003	7	Sololá	710	Panajachel	8	Panajachel	10	Octubre	2023-10-23T00:00:00	2024-11-08T21:00:00	1	Precipitación	0
68004	7	Sololá	710	Panajachel	8	Panajachel	10	Octubre	2023-10-23T00:00:00	2024-11-08T21:00:00	8	Radiación solar	0
68005	7	Sololá	710	Panajachel	8	Panajachel	10	Octubre	2023-10-23T00:00:00	2024-11-08T22:00:00	2	Temperatura media	18.8
68006	7	Sololá	710	Panajachel	8	Panajachel	10	Octubre	2023-10-23T00:00:00	2024-11-08T22:00:00	4	Temperatura máxima	20.3
68007	7	Sololá	710	Panajachel	8	Panajachel	10	Octubre	2023-10-23T00:00:00	2024-11-08T22:00:00	3	Temperatura mínima	18.6
68008	7	Sololá	710	Panajachel	8	Panajachel	10	Octubre	2023-10-23T00:00:00	2024-11-08T22:00:00	5	Humedad	96
68009	7	Sololá	710	Panajachel	8	Panajachel	10	Octubre	2023-10-23T00:00:00	2024-11-08T22:00:00	6	Velocidad del viento	1.6
68010	7	Sololá	710	Panajachel	8	Panajachel	10	Octubre	2023-10-23T00:00:00	2024-11-08T22:00:00	7	Dirección del viento	1.61
68011	7	Sololá	710	Panajachel	8	Panajachel	10	Octubre	2023-10-23T00:00:00	2024-11-08T22:00:00	1	Precipitación	2.8
68012	7	Sololá	710	Panajachel	8	Panajachel	10	Octubre	2023-10-23T00:00:00	2024-11-08T22:00:00	8	Radiación solar	0
68013	7	Sololá	710	Panajachel	8	Panajachel	10	Octubre	2023-10-23T00:00:00	2024-11-08T23:00:00	2	Temperatura media	18.7
68014	7	Sololá	710	Panajachel	8	Panajachel	10	Octubre	2023-10-23T00:00:00	2024-11-08T23:00:00	4	Temperatura máxima	19.3
68015	7	Sololá	710	Panajachel	8	Panajachel	10	Octubre	2023-10-23T00:00:00	2024-11-08T23:00:00	3	Temperatura mínima	18.7
68016	7	Sololá	710	Panajachel	8	Panajachel	10	Octubre	2023-10-23T00:00:00	2024-11-08T23:00:00	5	Humedad	97
68017	7	Sololá	710	Panajachel	8	Panajachel	10	Octubre	2023-10-23T00:00:00	2024-11-08T23:00:00	6	Velocidad del viento	1.6
68018	7	Sololá	710	Panajachel	8	Panajachel	10	Octubre	2023-10-23T00:00:00	2024-11-08T23:00:00	7	Dirección del viento	1.61
68019	7	Sololá	710	Panajachel	8	Panajachel	10	Octubre	2023-10-23T00:00:00	2024-11-08T23:00:00	1	Precipitación	0.4
68020	7	Sololá	710	Panajachel	8	Panajachel	10	Octubre	2023-10-23T00:00:00	2024-11-08T23:00:00	8	Radiación solar	0
68021	7	Sololá	710	Panajachel	8	Panajachel	10	Octubre	2023-10-24T00:00:00	2024-11-08T00:00:00	2	Temperatura media	18.3
68022	7	Sololá	710	Panajachel	8	Panajachel	10	Octubre	2023-10-24T00:00:00	2024-11-08T00:00:00	4	Temperatura máxima	18.7
68023	7	Sololá	710	Panajachel	8	Panajachel	10	Octubre	2023-10-24T00:00:00	2024-11-08T00:00:00	3	Temperatura mínima	18.3
68024	7	Sololá	710	Panajachel	8	Panajachel	10	Octubre	2023-10-24T00:00:00	2024-11-08T00:00:00	5	Humedad	97
68025	7	Sololá	710	Panajachel	8	Panajachel	10	Octubre	2023-10-24T00:00:00	2024-11-08T00:00:00	6	Velocidad del viento	0
68026	7	Sololá	710	Panajachel	8	Panajachel	10	Octubre	2023-10-24T00:00:00	2024-11-08T00:00:00	7	Dirección del viento	0
68027	7	Sololá	710	Panajachel	8	Panajachel	10	Octubre	2023-10-24T00:00:00	2024-11-08T00:00:00	1	Precipitación	0.8
68028	7	Sololá	710	Panajachel	8	Panajachel	10	Octubre	2023-10-24T00:00:00	2024-11-08T00:00:00	8	Radiación solar	0
68029	7	Sololá	710	Panajachel	8	Panajachel	10	Octubre	2023-10-24T00:00:00	2024-11-08T01:00:00	2	Temperatura media	18.1
68030	7	Sololá	710	Panajachel	8	Panajachel	10	Octubre	2023-10-24T00:00:00	2024-11-08T01:00:00	4	Temperatura máxima	18.3
68031	7	Sololá	710	Panajachel	8	Panajachel	10	Octubre	2023-10-24T00:00:00	2024-11-08T01:00:00	3	Temperatura mínima	18
68032	7	Sololá	710	Panajachel	8	Panajachel	10	Octubre	2023-10-24T00:00:00	2024-11-08T01:00:00	5	Humedad	97
68033	7	Sololá	710	Panajachel	8	Panajachel	10	Octubre	2023-10-24T00:00:00	2024-11-08T01:00:00	6	Velocidad del viento	0
68034	7	Sololá	710	Panajachel	8	Panajachel	10	Octubre	2023-10-24T00:00:00	2024-11-08T01:00:00	7	Dirección del viento	0
68035	7	Sololá	710	Panajachel	8	Panajachel	10	Octubre	2023-10-24T00:00:00	2024-11-08T01:00:00	1	Precipitación	0.2
68036	7	Sololá	710	Panajachel	8	Panajachel	10	Octubre	2023-10-24T00:00:00	2024-11-08T01:00:00	8	Radiación solar	0
68037	7	Sololá	710	Panajachel	8	Panajachel	10	Octubre	2023-10-24T00:00:00	2024-11-08T02:00:00	2	Temperatura media	17.7
68038	7	Sololá	710	Panajachel	8	Panajachel	10	Octubre	2023-10-24T00:00:00	2024-11-08T02:00:00	4	Temperatura máxima	18.1
68039	7	Sololá	710	Panajachel	8	Panajachel	10	Octubre	2023-10-24T00:00:00	2024-11-08T02:00:00	3	Temperatura mínima	17.7
68040	7	Sololá	710	Panajachel	8	Panajachel	10	Octubre	2023-10-24T00:00:00	2024-11-08T02:00:00	5	Humedad	96
68041	7	Sololá	710	Panajachel	8	Panajachel	10	Octubre	2023-10-24T00:00:00	2024-11-08T02:00:00	6	Velocidad del viento	0
68042	7	Sololá	710	Panajachel	8	Panajachel	10	Octubre	2023-10-24T00:00:00	2024-11-08T02:00:00	7	Dirección del viento	0
68043	7	Sololá	710	Panajachel	8	Panajachel	10	Octubre	2023-10-24T00:00:00	2024-11-08T02:00:00	1	Precipitación	0
68044	7	Sololá	710	Panajachel	8	Panajachel	10	Octubre	2023-10-24T00:00:00	2024-11-08T02:00:00	8	Radiación solar	0
68045	7	Sololá	710	Panajachel	8	Panajachel	10	Octubre	2023-10-24T00:00:00	2024-11-08T03:00:00	2	Temperatura media	17.2
68046	7	Sololá	710	Panajachel	8	Panajachel	10	Octubre	2023-10-24T00:00:00	2024-11-08T03:00:00	4	Temperatura máxima	17.7
68047	7	Sololá	710	Panajachel	8	Panajachel	10	Octubre	2023-10-24T00:00:00	2024-11-08T03:00:00	3	Temperatura mínima	17.2
68048	7	Sololá	710	Panajachel	8	Panajachel	10	Octubre	2023-10-24T00:00:00	2024-11-08T03:00:00	5	Humedad	96
68049	7	Sololá	710	Panajachel	8	Panajachel	10	Octubre	2023-10-24T00:00:00	2024-11-08T03:00:00	6	Velocidad del viento	0
68050	7	Sololá	710	Panajachel	8	Panajachel	10	Octubre	2023-10-24T00:00:00	2024-11-08T03:00:00	7	Dirección del viento	0
68051	7	Sololá	710	Panajachel	8	Panajachel	10	Octubre	2023-10-24T00:00:00	2024-11-08T03:00:00	1	Precipitación	0
68052	7	Sololá	710	Panajachel	8	Panajachel	10	Octubre	2023-10-24T00:00:00	2024-11-08T03:00:00	8	Radiación solar	0
68053	7	Sololá	710	Panajachel	8	Panajachel	10	Octubre	2023-10-24T00:00:00	2024-11-08T04:00:00	2	Temperatura media	17.3
68054	7	Sololá	710	Panajachel	8	Panajachel	10	Octubre	2023-10-24T00:00:00	2024-11-08T04:00:00	4	Temperatura máxima	17.4
68055	7	Sololá	710	Panajachel	8	Panajachel	10	Octubre	2023-10-24T00:00:00	2024-11-08T04:00:00	3	Temperatura mínima	17.1
68056	7	Sololá	710	Panajachel	8	Panajachel	10	Octubre	2023-10-24T00:00:00	2024-11-08T04:00:00	5	Humedad	92
68057	7	Sololá	710	Panajachel	8	Panajachel	10	Octubre	2023-10-24T00:00:00	2024-11-08T04:00:00	6	Velocidad del viento	0
68058	7	Sololá	710	Panajachel	8	Panajachel	10	Octubre	2023-10-24T00:00:00	2024-11-08T04:00:00	7	Dirección del viento	0
68059	7	Sololá	710	Panajachel	8	Panajachel	10	Octubre	2023-10-24T00:00:00	2024-11-08T04:00:00	1	Precipitación	0
68060	7	Sololá	710	Panajachel	8	Panajachel	10	Octubre	2023-10-24T00:00:00	2024-11-08T04:00:00	8	Radiación solar	0
68061	7	Sololá	710	Panajachel	8	Panajachel	10	Octubre	2023-10-24T00:00:00	2024-11-08T05:00:00	2	Temperatura media	16.6
68062	7	Sololá	710	Panajachel	8	Panajachel	10	Octubre	2023-10-24T00:00:00	2024-11-08T05:00:00	4	Temperatura máxima	17.3
68063	7	Sololá	710	Panajachel	8	Panajachel	10	Octubre	2023-10-24T00:00:00	2024-11-08T05:00:00	3	Temperatura mínima	16.5
68064	7	Sololá	710	Panajachel	8	Panajachel	10	Octubre	2023-10-24T00:00:00	2024-11-08T05:00:00	5	Humedad	94
68065	7	Sololá	710	Panajachel	8	Panajachel	10	Octubre	2023-10-24T00:00:00	2024-11-08T05:00:00	6	Velocidad del viento	0
68066	7	Sololá	710	Panajachel	8	Panajachel	10	Octubre	2023-10-24T00:00:00	2024-11-08T05:00:00	7	Dirección del viento	0
68067	7	Sololá	710	Panajachel	8	Panajachel	10	Octubre	2023-10-24T00:00:00	2024-11-08T05:00:00	1	Precipitación	0
68068	7	Sololá	710	Panajachel	8	Panajachel	10	Octubre	2023-10-24T00:00:00	2024-11-08T05:00:00	8	Radiación solar	0
68069	7	Sololá	710	Panajachel	8	Panajachel	10	Octubre	2023-10-24T00:00:00	2024-11-08T06:00:00	2	Temperatura media	17
68070	7	Sololá	710	Panajachel	8	Panajachel	10	Octubre	2023-10-24T00:00:00	2024-11-08T06:00:00	4	Temperatura máxima	17.1
68071	7	Sololá	710	Panajachel	8	Panajachel	10	Octubre	2023-10-24T00:00:00	2024-11-08T06:00:00	3	Temperatura mínima	16.5
68072	7	Sololá	710	Panajachel	8	Panajachel	10	Octubre	2023-10-24T00:00:00	2024-11-08T06:00:00	5	Humedad	93
68073	7	Sololá	710	Panajachel	8	Panajachel	10	Octubre	2023-10-24T00:00:00	2024-11-08T06:00:00	6	Velocidad del viento	0
68074	7	Sololá	710	Panajachel	8	Panajachel	10	Octubre	2023-10-24T00:00:00	2024-11-08T06:00:00	7	Dirección del viento	0
68075	7	Sololá	710	Panajachel	8	Panajachel	10	Octubre	2023-10-24T00:00:00	2024-11-08T06:00:00	1	Precipitación	0
68076	7	Sololá	710	Panajachel	8	Panajachel	10	Octubre	2023-10-24T00:00:00	2024-11-08T06:00:00	8	Radiación solar	0
68077	7	Sololá	710	Panajachel	8	Panajachel	10	Octubre	2023-10-24T00:00:00	2024-11-08T07:00:00	2	Temperatura media	18.2
68078	7	Sololá	710	Panajachel	8	Panajachel	10	Octubre	2023-10-24T00:00:00	2024-11-08T07:00:00	4	Temperatura máxima	18.2
68079	7	Sololá	710	Panajachel	8	Panajachel	10	Octubre	2023-10-24T00:00:00	2024-11-08T07:00:00	3	Temperatura mínima	16.9
68080	7	Sololá	710	Panajachel	8	Panajachel	10	Octubre	2023-10-24T00:00:00	2024-11-08T07:00:00	5	Humedad	91
68081	7	Sololá	710	Panajachel	8	Panajachel	10	Octubre	2023-10-24T00:00:00	2024-11-08T07:00:00	6	Velocidad del viento	0
68082	7	Sololá	710	Panajachel	8	Panajachel	10	Octubre	2023-10-24T00:00:00	2024-11-08T07:00:00	7	Dirección del viento	0
68083	7	Sololá	710	Panajachel	8	Panajachel	10	Octubre	2023-10-24T00:00:00	2024-11-08T07:00:00	1	Precipitación	0
68084	7	Sololá	710	Panajachel	8	Panajachel	10	Octubre	2023-10-24T00:00:00	2024-11-08T07:00:00	8	Radiación solar	70
68085	7	Sololá	710	Panajachel	8	Panajachel	10	Octubre	2023-10-24T00:00:00	2024-11-08T08:00:00	2	Temperatura media	21.1
68086	7	Sololá	710	Panajachel	8	Panajachel	10	Octubre	2023-10-24T00:00:00	2024-11-08T08:00:00	4	Temperatura máxima	21.1
68087	7	Sololá	710	Panajachel	8	Panajachel	10	Octubre	2023-10-24T00:00:00	2024-11-08T08:00:00	3	Temperatura mínima	18.2
68088	7	Sololá	710	Panajachel	8	Panajachel	10	Octubre	2023-10-24T00:00:00	2024-11-08T08:00:00	5	Humedad	84
68089	7	Sololá	710	Panajachel	8	Panajachel	10	Octubre	2023-10-24T00:00:00	2024-11-08T08:00:00	6	Velocidad del viento	0
68090	7	Sololá	710	Panajachel	8	Panajachel	10	Octubre	2023-10-24T00:00:00	2024-11-08T08:00:00	7	Dirección del viento	0
68091	7	Sololá	710	Panajachel	8	Panajachel	10	Octubre	2023-10-24T00:00:00	2024-11-08T08:00:00	1	Precipitación	0
68092	7	Sololá	710	Panajachel	8	Panajachel	10	Octubre	2023-10-24T00:00:00	2024-11-08T08:00:00	8	Radiación solar	275
68093	7	Sololá	710	Panajachel	8	Panajachel	10	Octubre	2023-10-24T00:00:00	2024-11-08T09:00:00	2	Temperatura media	21.7
68094	7	Sololá	710	Panajachel	8	Panajachel	10	Octubre	2023-10-24T00:00:00	2024-11-08T09:00:00	4	Temperatura máxima	21.7
68095	7	Sololá	710	Panajachel	8	Panajachel	10	Octubre	2023-10-24T00:00:00	2024-11-08T09:00:00	3	Temperatura mínima	20.8
68096	7	Sololá	710	Panajachel	8	Panajachel	10	Octubre	2023-10-24T00:00:00	2024-11-08T09:00:00	5	Humedad	83
68097	7	Sololá	710	Panajachel	8	Panajachel	10	Octubre	2023-10-24T00:00:00	2024-11-08T09:00:00	6	Velocidad del viento	0
68098	7	Sololá	710	Panajachel	8	Panajachel	10	Octubre	2023-10-24T00:00:00	2024-11-08T09:00:00	7	Dirección del viento	0
68099	7	Sololá	710	Panajachel	8	Panajachel	10	Octubre	2023-10-24T00:00:00	2024-11-08T09:00:00	1	Precipitación	0
68100	7	Sololá	710	Panajachel	8	Panajachel	10	Octubre	2023-10-24T00:00:00	2024-11-08T09:00:00	8	Radiación solar	490
68101	7	Sololá	710	Panajachel	8	Panajachel	10	Octubre	2023-10-24T00:00:00	2024-11-08T10:00:00	2	Temperatura media	22.3
68102	7	Sololá	710	Panajachel	8	Panajachel	10	Octubre	2023-10-24T00:00:00	2024-11-08T10:00:00	4	Temperatura máxima	22.6
68103	7	Sololá	710	Panajachel	8	Panajachel	10	Octubre	2023-10-24T00:00:00	2024-11-08T10:00:00	3	Temperatura mínima	21.8
68104	7	Sololá	710	Panajachel	8	Panajachel	10	Octubre	2023-10-24T00:00:00	2024-11-08T10:00:00	5	Humedad	81
68105	7	Sololá	710	Panajachel	8	Panajachel	10	Octubre	2023-10-24T00:00:00	2024-11-08T10:00:00	6	Velocidad del viento	0
68106	7	Sololá	710	Panajachel	8	Panajachel	10	Octubre	2023-10-24T00:00:00	2024-11-08T10:00:00	7	Dirección del viento	0
68107	7	Sololá	710	Panajachel	8	Panajachel	10	Octubre	2023-10-24T00:00:00	2024-11-08T10:00:00	1	Precipitación	0
68108	7	Sololá	710	Panajachel	8	Panajachel	10	Octubre	2023-10-24T00:00:00	2024-11-08T10:00:00	8	Radiación solar	664
68109	7	Sololá	710	Panajachel	8	Panajachel	10	Octubre	2023-10-24T00:00:00	2024-11-08T11:00:00	2	Temperatura media	23.6
68110	7	Sololá	710	Panajachel	8	Panajachel	10	Octubre	2023-10-24T00:00:00	2024-11-08T11:00:00	4	Temperatura máxima	23.7
68111	7	Sololá	710	Panajachel	8	Panajachel	10	Octubre	2023-10-24T00:00:00	2024-11-08T11:00:00	3	Temperatura mínima	22.4
68112	7	Sololá	710	Panajachel	8	Panajachel	10	Octubre	2023-10-24T00:00:00	2024-11-08T11:00:00	5	Humedad	74
68113	7	Sololá	710	Panajachel	8	Panajachel	10	Octubre	2023-10-24T00:00:00	2024-11-08T11:00:00	6	Velocidad del viento	0
68114	7	Sololá	710	Panajachel	8	Panajachel	10	Octubre	2023-10-24T00:00:00	2024-11-08T11:00:00	7	Dirección del viento	0
68115	7	Sololá	710	Panajachel	8	Panajachel	10	Octubre	2023-10-24T00:00:00	2024-11-08T11:00:00	1	Precipitación	0
68116	7	Sololá	710	Panajachel	8	Panajachel	10	Octubre	2023-10-24T00:00:00	2024-11-08T11:00:00	8	Radiación solar	750
68117	7	Sololá	710	Panajachel	8	Panajachel	10	Octubre	2023-10-24T00:00:00	2024-11-08T12:00:00	2	Temperatura media	22.8
68118	7	Sololá	710	Panajachel	8	Panajachel	10	Octubre	2023-10-24T00:00:00	2024-11-08T12:00:00	4	Temperatura máxima	24.3
68119	7	Sololá	710	Panajachel	8	Panajachel	10	Octubre	2023-10-24T00:00:00	2024-11-08T12:00:00	3	Temperatura mínima	22.8
68120	7	Sololá	710	Panajachel	8	Panajachel	10	Octubre	2023-10-24T00:00:00	2024-11-08T12:00:00	5	Humedad	85
68121	7	Sololá	710	Panajachel	8	Panajachel	10	Octubre	2023-10-24T00:00:00	2024-11-08T12:00:00	6	Velocidad del viento	1.6
68122	7	Sololá	710	Panajachel	8	Panajachel	10	Octubre	2023-10-24T00:00:00	2024-11-08T12:00:00	7	Dirección del viento	1.61
68123	7	Sololá	710	Panajachel	8	Panajachel	10	Octubre	2023-10-24T00:00:00	2024-11-08T12:00:00	1	Precipitación	0
68124	7	Sololá	710	Panajachel	8	Panajachel	10	Octubre	2023-10-24T00:00:00	2024-11-08T12:00:00	8	Radiación solar	727
68125	7	Sololá	710	Panajachel	8	Panajachel	10	Octubre	2023-10-24T00:00:00	2024-11-08T13:00:00	2	Temperatura media	20.6
68126	7	Sololá	710	Panajachel	8	Panajachel	10	Octubre	2023-10-24T00:00:00	2024-11-08T13:00:00	4	Temperatura máxima	22.8
68127	7	Sololá	710	Panajachel	8	Panajachel	10	Octubre	2023-10-24T00:00:00	2024-11-08T13:00:00	3	Temperatura mínima	20.6
68128	7	Sololá	710	Panajachel	8	Panajachel	10	Octubre	2023-10-24T00:00:00	2024-11-08T13:00:00	5	Humedad	93
68129	7	Sololá	710	Panajachel	8	Panajachel	10	Octubre	2023-10-24T00:00:00	2024-11-08T13:00:00	6	Velocidad del viento	4.8
68130	7	Sololá	710	Panajachel	8	Panajachel	10	Octubre	2023-10-24T00:00:00	2024-11-08T13:00:00	7	Dirección del viento	4.83
68131	7	Sololá	710	Panajachel	8	Panajachel	10	Octubre	2023-10-24T00:00:00	2024-11-08T13:00:00	1	Precipitación	0
68132	7	Sololá	710	Panajachel	8	Panajachel	10	Octubre	2023-10-24T00:00:00	2024-11-08T13:00:00	8	Radiación solar	183
68133	7	Sololá	710	Panajachel	8	Panajachel	10	Octubre	2023-10-24T00:00:00	2024-11-08T14:00:00	2	Temperatura media	19.3
68134	7	Sololá	710	Panajachel	8	Panajachel	10	Octubre	2023-10-24T00:00:00	2024-11-08T14:00:00	4	Temperatura máxima	20.6
68135	7	Sololá	710	Panajachel	8	Panajachel	10	Octubre	2023-10-24T00:00:00	2024-11-08T14:00:00	3	Temperatura mínima	19.3
68136	7	Sololá	710	Panajachel	8	Panajachel	10	Octubre	2023-10-24T00:00:00	2024-11-08T14:00:00	5	Humedad	93
68137	7	Sololá	710	Panajachel	8	Panajachel	10	Octubre	2023-10-24T00:00:00	2024-11-08T14:00:00	6	Velocidad del viento	1.6
68138	7	Sololá	710	Panajachel	8	Panajachel	10	Octubre	2023-10-24T00:00:00	2024-11-08T14:00:00	7	Dirección del viento	1.61
68139	7	Sololá	710	Panajachel	8	Panajachel	10	Octubre	2023-10-24T00:00:00	2024-11-08T14:00:00	1	Precipitación	1.8
68140	7	Sololá	710	Panajachel	8	Panajachel	10	Octubre	2023-10-24T00:00:00	2024-11-08T14:00:00	8	Radiación solar	49
68141	7	Sololá	710	Panajachel	8	Panajachel	10	Octubre	2023-10-24T00:00:00	2024-11-08T15:00:00	2	Temperatura media	19.8
68142	7	Sololá	710	Panajachel	8	Panajachel	10	Octubre	2023-10-24T00:00:00	2024-11-08T15:00:00	4	Temperatura máxima	19.8
68143	7	Sololá	710	Panajachel	8	Panajachel	10	Octubre	2023-10-24T00:00:00	2024-11-08T15:00:00	3	Temperatura mínima	19.3
68144	7	Sololá	710	Panajachel	8	Panajachel	10	Octubre	2023-10-24T00:00:00	2024-11-08T15:00:00	5	Humedad	95
68145	7	Sololá	710	Panajachel	8	Panajachel	10	Octubre	2023-10-24T00:00:00	2024-11-08T15:00:00	6	Velocidad del viento	0
68146	7	Sololá	710	Panajachel	8	Panajachel	10	Octubre	2023-10-24T00:00:00	2024-11-08T15:00:00	7	Dirección del viento	0
68147	7	Sololá	710	Panajachel	8	Panajachel	10	Octubre	2023-10-24T00:00:00	2024-11-08T15:00:00	1	Precipitación	0.2
68148	7	Sololá	710	Panajachel	8	Panajachel	10	Octubre	2023-10-24T00:00:00	2024-11-08T15:00:00	8	Radiación solar	54
68149	7	Sololá	710	Panajachel	8	Panajachel	10	Octubre	2023-10-24T00:00:00	2024-11-08T16:00:00	2	Temperatura media	20.4
68150	7	Sololá	710	Panajachel	8	Panajachel	10	Octubre	2023-10-24T00:00:00	2024-11-08T16:00:00	4	Temperatura máxima	20.4
68151	7	Sololá	710	Panajachel	8	Panajachel	10	Octubre	2023-10-24T00:00:00	2024-11-08T16:00:00	3	Temperatura mínima	19.7
68152	7	Sololá	710	Panajachel	8	Panajachel	10	Octubre	2023-10-24T00:00:00	2024-11-08T16:00:00	5	Humedad	92
68153	7	Sololá	710	Panajachel	8	Panajachel	10	Octubre	2023-10-24T00:00:00	2024-11-08T16:00:00	6	Velocidad del viento	0
68154	7	Sololá	710	Panajachel	8	Panajachel	10	Octubre	2023-10-24T00:00:00	2024-11-08T16:00:00	7	Dirección del viento	0
68155	7	Sololá	710	Panajachel	8	Panajachel	10	Octubre	2023-10-24T00:00:00	2024-11-08T16:00:00	1	Precipitación	0
68156	7	Sololá	710	Panajachel	8	Panajachel	10	Octubre	2023-10-24T00:00:00	2024-11-08T16:00:00	8	Radiación solar	91
68157	7	Sololá	710	Panajachel	8	Panajachel	10	Octubre	2023-10-24T00:00:00	2024-11-08T17:00:00	2	Temperatura media	20.4
68158	7	Sololá	710	Panajachel	8	Panajachel	10	Octubre	2023-10-24T00:00:00	2024-11-08T17:00:00	4	Temperatura máxima	20.7
68159	7	Sololá	710	Panajachel	8	Panajachel	10	Octubre	2023-10-24T00:00:00	2024-11-08T17:00:00	3	Temperatura mínima	20.4
68160	7	Sololá	710	Panajachel	8	Panajachel	10	Octubre	2023-10-24T00:00:00	2024-11-08T17:00:00	5	Humedad	92
68161	7	Sololá	710	Panajachel	8	Panajachel	10	Octubre	2023-10-24T00:00:00	2024-11-08T17:00:00	6	Velocidad del viento	0
68162	7	Sololá	710	Panajachel	8	Panajachel	10	Octubre	2023-10-24T00:00:00	2024-11-08T17:00:00	7	Dirección del viento	0
68163	7	Sololá	710	Panajachel	8	Panajachel	10	Octubre	2023-10-24T00:00:00	2024-11-08T17:00:00	1	Precipitación	0
68164	7	Sololá	710	Panajachel	8	Panajachel	10	Octubre	2023-10-24T00:00:00	2024-11-08T17:00:00	8	Radiación solar	58
68165	7	Sololá	710	Panajachel	8	Panajachel	10	Octubre	2023-10-24T00:00:00	2024-11-08T18:00:00	2	Temperatura media	19.6
68166	7	Sololá	710	Panajachel	8	Panajachel	10	Octubre	2023-10-24T00:00:00	2024-11-08T18:00:00	4	Temperatura máxima	20.4
68167	7	Sololá	710	Panajachel	8	Panajachel	10	Octubre	2023-10-24T00:00:00	2024-11-08T18:00:00	3	Temperatura mínima	19.6
68168	7	Sololá	710	Panajachel	8	Panajachel	10	Octubre	2023-10-24T00:00:00	2024-11-08T18:00:00	5	Humedad	94
68169	7	Sololá	710	Panajachel	8	Panajachel	10	Octubre	2023-10-24T00:00:00	2024-11-08T18:00:00	6	Velocidad del viento	0
68170	7	Sololá	710	Panajachel	8	Panajachel	10	Octubre	2023-10-24T00:00:00	2024-11-08T18:00:00	7	Dirección del viento	0
68171	7	Sololá	710	Panajachel	8	Panajachel	10	Octubre	2023-10-24T00:00:00	2024-11-08T18:00:00	1	Precipitación	0
68172	7	Sololá	710	Panajachel	8	Panajachel	10	Octubre	2023-10-24T00:00:00	2024-11-08T18:00:00	8	Radiación solar	9
68173	7	Sololá	710	Panajachel	8	Panajachel	10	Octubre	2023-10-24T00:00:00	2024-11-08T19:00:00	2	Temperatura media	19.4
68174	7	Sololá	710	Panajachel	8	Panajachel	10	Octubre	2023-10-24T00:00:00	2024-11-08T19:00:00	4	Temperatura máxima	19.6
68175	7	Sololá	710	Panajachel	8	Panajachel	10	Octubre	2023-10-24T00:00:00	2024-11-08T19:00:00	3	Temperatura mínima	19.2
68176	7	Sololá	710	Panajachel	8	Panajachel	10	Octubre	2023-10-24T00:00:00	2024-11-08T19:00:00	5	Humedad	94
68177	7	Sololá	710	Panajachel	8	Panajachel	10	Octubre	2023-10-24T00:00:00	2024-11-08T19:00:00	6	Velocidad del viento	0
68178	7	Sololá	710	Panajachel	8	Panajachel	10	Octubre	2023-10-24T00:00:00	2024-11-08T19:00:00	7	Dirección del viento	0
68179	7	Sololá	710	Panajachel	8	Panajachel	10	Octubre	2023-10-24T00:00:00	2024-11-08T19:00:00	1	Precipitación	0
68180	7	Sololá	710	Panajachel	8	Panajachel	10	Octubre	2023-10-24T00:00:00	2024-11-08T19:00:00	8	Radiación solar	0
68181	7	Sololá	710	Panajachel	8	Panajachel	10	Octubre	2023-10-24T00:00:00	2024-11-08T20:00:00	2	Temperatura media	18.9
68182	7	Sololá	710	Panajachel	8	Panajachel	10	Octubre	2023-10-24T00:00:00	2024-11-08T20:00:00	4	Temperatura máxima	19.4
68183	7	Sololá	710	Panajachel	8	Panajachel	10	Octubre	2023-10-24T00:00:00	2024-11-08T20:00:00	3	Temperatura mínima	18.9
68184	7	Sololá	710	Panajachel	8	Panajachel	10	Octubre	2023-10-24T00:00:00	2024-11-08T20:00:00	5	Humedad	94
68185	7	Sololá	710	Panajachel	8	Panajachel	10	Octubre	2023-10-24T00:00:00	2024-11-08T20:00:00	6	Velocidad del viento	0
68186	7	Sololá	710	Panajachel	8	Panajachel	10	Octubre	2023-10-24T00:00:00	2024-11-08T20:00:00	7	Dirección del viento	0
68187	7	Sololá	710	Panajachel	8	Panajachel	10	Octubre	2023-10-24T00:00:00	2024-11-08T20:00:00	1	Precipitación	0.2
68188	7	Sololá	710	Panajachel	8	Panajachel	10	Octubre	2023-10-24T00:00:00	2024-11-08T20:00:00	8	Radiación solar	0
68189	7	Sololá	710	Panajachel	8	Panajachel	10	Octubre	2023-10-24T00:00:00	2024-11-08T21:00:00	2	Temperatura media	18.1
68190	7	Sololá	710	Panajachel	8	Panajachel	10	Octubre	2023-10-24T00:00:00	2024-11-08T21:00:00	4	Temperatura máxima	18.9
68191	7	Sololá	710	Panajachel	8	Panajachel	10	Octubre	2023-10-24T00:00:00	2024-11-08T21:00:00	3	Temperatura mínima	18.1
68192	7	Sololá	710	Panajachel	8	Panajachel	10	Octubre	2023-10-24T00:00:00	2024-11-08T21:00:00	5	Humedad	94
68193	7	Sololá	710	Panajachel	8	Panajachel	10	Octubre	2023-10-24T00:00:00	2024-11-08T21:00:00	6	Velocidad del viento	0
68194	7	Sololá	710	Panajachel	8	Panajachel	10	Octubre	2023-10-24T00:00:00	2024-11-08T21:00:00	7	Dirección del viento	0
68195	7	Sololá	710	Panajachel	8	Panajachel	10	Octubre	2023-10-24T00:00:00	2024-11-08T21:00:00	1	Precipitación	0
68196	7	Sololá	710	Panajachel	8	Panajachel	10	Octubre	2023-10-24T00:00:00	2024-11-08T21:00:00	8	Radiación solar	0
68197	7	Sololá	710	Panajachel	8	Panajachel	10	Octubre	2023-10-24T00:00:00	2024-11-08T22:00:00	2	Temperatura media	18
68198	7	Sololá	710	Panajachel	8	Panajachel	10	Octubre	2023-10-24T00:00:00	2024-11-08T22:00:00	4	Temperatura máxima	18.1
68199	7	Sololá	710	Panajachel	8	Panajachel	10	Octubre	2023-10-24T00:00:00	2024-11-08T22:00:00	3	Temperatura mínima	17.9
68200	7	Sololá	710	Panajachel	8	Panajachel	10	Octubre	2023-10-24T00:00:00	2024-11-08T22:00:00	5	Humedad	95
68201	7	Sololá	710	Panajachel	8	Panajachel	10	Octubre	2023-10-24T00:00:00	2024-11-08T22:00:00	6	Velocidad del viento	0
68202	7	Sololá	710	Panajachel	8	Panajachel	10	Octubre	2023-10-24T00:00:00	2024-11-08T22:00:00	7	Dirección del viento	0
68203	7	Sololá	710	Panajachel	8	Panajachel	10	Octubre	2023-10-24T00:00:00	2024-11-08T22:00:00	1	Precipitación	0
68204	7	Sololá	710	Panajachel	8	Panajachel	10	Octubre	2023-10-24T00:00:00	2024-11-08T22:00:00	8	Radiación solar	0
68205	7	Sololá	710	Panajachel	8	Panajachel	10	Octubre	2023-10-24T00:00:00	2024-11-08T23:00:00	2	Temperatura media	17.6
68206	7	Sololá	710	Panajachel	8	Panajachel	10	Octubre	2023-10-24T00:00:00	2024-11-08T23:00:00	4	Temperatura máxima	18.1
68207	7	Sololá	710	Panajachel	8	Panajachel	10	Octubre	2023-10-24T00:00:00	2024-11-08T23:00:00	3	Temperatura mínima	17.6
68208	7	Sololá	710	Panajachel	8	Panajachel	10	Octubre	2023-10-24T00:00:00	2024-11-08T23:00:00	5	Humedad	95
68209	7	Sololá	710	Panajachel	8	Panajachel	10	Octubre	2023-10-24T00:00:00	2024-11-08T23:00:00	6	Velocidad del viento	0
68210	7	Sololá	710	Panajachel	8	Panajachel	10	Octubre	2023-10-24T00:00:00	2024-11-08T23:00:00	7	Dirección del viento	0
68211	7	Sololá	710	Panajachel	8	Panajachel	10	Octubre	2023-10-24T00:00:00	2024-11-08T23:00:00	1	Precipitación	0
68212	7	Sololá	710	Panajachel	8	Panajachel	10	Octubre	2023-10-24T00:00:00	2024-11-08T23:00:00	8	Radiación solar	0
68213	7	Sololá	710	Panajachel	8	Panajachel	10	Octubre	2023-10-25T00:00:00	2024-11-08T00:00:00	2	Temperatura media	17.7
68214	7	Sololá	710	Panajachel	8	Panajachel	10	Octubre	2023-10-25T00:00:00	2024-11-08T00:00:00	4	Temperatura máxima	18.2
68215	7	Sololá	710	Panajachel	8	Panajachel	10	Octubre	2023-10-25T00:00:00	2024-11-08T00:00:00	3	Temperatura mínima	17.6
68216	7	Sololá	710	Panajachel	8	Panajachel	10	Octubre	2023-10-25T00:00:00	2024-11-08T00:00:00	5	Humedad	95
68217	7	Sololá	710	Panajachel	8	Panajachel	10	Octubre	2023-10-25T00:00:00	2024-11-08T00:00:00	6	Velocidad del viento	0
68218	7	Sololá	710	Panajachel	8	Panajachel	10	Octubre	2023-10-25T00:00:00	2024-11-08T00:00:00	7	Dirección del viento	0
68219	7	Sololá	710	Panajachel	8	Panajachel	10	Octubre	2023-10-25T00:00:00	2024-11-08T00:00:00	1	Precipitación	0
68220	7	Sololá	710	Panajachel	8	Panajachel	10	Octubre	2023-10-25T00:00:00	2024-11-08T00:00:00	8	Radiación solar	0
68221	7	Sololá	710	Panajachel	8	Panajachel	10	Octubre	2023-10-25T00:00:00	2024-11-08T01:00:00	2	Temperatura media	17.8
68222	7	Sololá	710	Panajachel	8	Panajachel	10	Octubre	2023-10-25T00:00:00	2024-11-08T01:00:00	4	Temperatura máxima	17.9
68223	7	Sololá	710	Panajachel	8	Panajachel	10	Octubre	2023-10-25T00:00:00	2024-11-08T01:00:00	3	Temperatura mínima	17.7
68224	7	Sololá	710	Panajachel	8	Panajachel	10	Octubre	2023-10-25T00:00:00	2024-11-08T01:00:00	5	Humedad	96
68225	7	Sololá	710	Panajachel	8	Panajachel	10	Octubre	2023-10-25T00:00:00	2024-11-08T01:00:00	6	Velocidad del viento	0
68226	7	Sololá	710	Panajachel	8	Panajachel	10	Octubre	2023-10-25T00:00:00	2024-11-08T01:00:00	7	Dirección del viento	0
68227	7	Sololá	710	Panajachel	8	Panajachel	10	Octubre	2023-10-25T00:00:00	2024-11-08T01:00:00	1	Precipitación	0
68228	7	Sololá	710	Panajachel	8	Panajachel	10	Octubre	2023-10-25T00:00:00	2024-11-08T01:00:00	8	Radiación solar	0
68229	7	Sololá	710	Panajachel	8	Panajachel	10	Octubre	2023-10-25T00:00:00	2024-11-08T02:00:00	2	Temperatura media	17.4
68230	7	Sololá	710	Panajachel	8	Panajachel	10	Octubre	2023-10-25T00:00:00	2024-11-08T02:00:00	4	Temperatura máxima	17.9
68231	7	Sololá	710	Panajachel	8	Panajachel	10	Octubre	2023-10-25T00:00:00	2024-11-08T02:00:00	3	Temperatura mínima	17.4
68232	7	Sololá	710	Panajachel	8	Panajachel	10	Octubre	2023-10-25T00:00:00	2024-11-08T02:00:00	5	Humedad	95
68233	7	Sololá	710	Panajachel	8	Panajachel	10	Octubre	2023-10-25T00:00:00	2024-11-08T02:00:00	6	Velocidad del viento	0
68234	7	Sololá	710	Panajachel	8	Panajachel	10	Octubre	2023-10-25T00:00:00	2024-11-08T02:00:00	7	Dirección del viento	0
68235	7	Sololá	710	Panajachel	8	Panajachel	10	Octubre	2023-10-25T00:00:00	2024-11-08T02:00:00	1	Precipitación	0
68236	7	Sololá	710	Panajachel	8	Panajachel	10	Octubre	2023-10-25T00:00:00	2024-11-08T02:00:00	8	Radiación solar	0
68237	7	Sololá	710	Panajachel	8	Panajachel	10	Octubre	2023-10-25T00:00:00	2024-11-08T03:00:00	2	Temperatura media	17.4
68238	7	Sololá	710	Panajachel	8	Panajachel	10	Octubre	2023-10-25T00:00:00	2024-11-08T03:00:00	4	Temperatura máxima	17.6
68239	7	Sololá	710	Panajachel	8	Panajachel	10	Octubre	2023-10-25T00:00:00	2024-11-08T03:00:00	3	Temperatura mínima	17.3
68240	7	Sololá	710	Panajachel	8	Panajachel	10	Octubre	2023-10-25T00:00:00	2024-11-08T03:00:00	5	Humedad	95
68241	7	Sololá	710	Panajachel	8	Panajachel	10	Octubre	2023-10-25T00:00:00	2024-11-08T03:00:00	6	Velocidad del viento	0
68242	7	Sololá	710	Panajachel	8	Panajachel	10	Octubre	2023-10-25T00:00:00	2024-11-08T03:00:00	7	Dirección del viento	0
68243	7	Sololá	710	Panajachel	8	Panajachel	10	Octubre	2023-10-25T00:00:00	2024-11-08T03:00:00	1	Precipitación	0
68244	7	Sololá	710	Panajachel	8	Panajachel	10	Octubre	2023-10-25T00:00:00	2024-11-08T03:00:00	8	Radiación solar	0
68245	7	Sololá	710	Panajachel	8	Panajachel	10	Octubre	2023-10-25T00:00:00	2024-11-08T04:00:00	2	Temperatura media	16.8
68246	7	Sololá	710	Panajachel	8	Panajachel	10	Octubre	2023-10-25T00:00:00	2024-11-08T04:00:00	4	Temperatura máxima	17.5
68247	7	Sololá	710	Panajachel	8	Panajachel	10	Octubre	2023-10-25T00:00:00	2024-11-08T04:00:00	3	Temperatura mínima	16.8
68248	7	Sololá	710	Panajachel	8	Panajachel	10	Octubre	2023-10-25T00:00:00	2024-11-08T04:00:00	5	Humedad	95
68249	7	Sololá	710	Panajachel	8	Panajachel	10	Octubre	2023-10-25T00:00:00	2024-11-08T04:00:00	6	Velocidad del viento	0
68250	7	Sololá	710	Panajachel	8	Panajachel	10	Octubre	2023-10-25T00:00:00	2024-11-08T04:00:00	7	Dirección del viento	0
68251	7	Sololá	710	Panajachel	8	Panajachel	10	Octubre	2023-10-25T00:00:00	2024-11-08T04:00:00	1	Precipitación	0
68252	7	Sololá	710	Panajachel	8	Panajachel	10	Octubre	2023-10-25T00:00:00	2024-11-08T04:00:00	8	Radiación solar	0
68253	7	Sololá	710	Panajachel	8	Panajachel	10	Octubre	2023-10-25T00:00:00	2024-11-08T05:00:00	2	Temperatura media	16.8
68254	7	Sololá	710	Panajachel	8	Panajachel	10	Octubre	2023-10-25T00:00:00	2024-11-08T05:00:00	4	Temperatura máxima	16.8
68255	7	Sololá	710	Panajachel	8	Panajachel	10	Octubre	2023-10-25T00:00:00	2024-11-08T05:00:00	3	Temperatura mínima	16.7
68256	7	Sololá	710	Panajachel	8	Panajachel	10	Octubre	2023-10-25T00:00:00	2024-11-08T05:00:00	5	Humedad	95
68257	7	Sololá	710	Panajachel	8	Panajachel	10	Octubre	2023-10-25T00:00:00	2024-11-08T05:00:00	6	Velocidad del viento	0
68258	7	Sololá	710	Panajachel	8	Panajachel	10	Octubre	2023-10-25T00:00:00	2024-11-08T05:00:00	7	Dirección del viento	0
68259	7	Sololá	710	Panajachel	8	Panajachel	10	Octubre	2023-10-25T00:00:00	2024-11-08T05:00:00	1	Precipitación	0
68260	7	Sololá	710	Panajachel	8	Panajachel	10	Octubre	2023-10-25T00:00:00	2024-11-08T05:00:00	8	Radiación solar	0
68261	7	Sololá	710	Panajachel	8	Panajachel	10	Octubre	2023-10-25T00:00:00	2024-11-08T06:00:00	2	Temperatura media	17
68262	7	Sololá	710	Panajachel	8	Panajachel	10	Octubre	2023-10-25T00:00:00	2024-11-08T06:00:00	4	Temperatura máxima	17.3
68263	7	Sololá	710	Panajachel	8	Panajachel	10	Octubre	2023-10-25T00:00:00	2024-11-08T06:00:00	3	Temperatura mínima	16.7
68264	7	Sololá	710	Panajachel	8	Panajachel	10	Octubre	2023-10-25T00:00:00	2024-11-08T06:00:00	5	Humedad	93
68265	7	Sololá	710	Panajachel	8	Panajachel	10	Octubre	2023-10-25T00:00:00	2024-11-08T06:00:00	6	Velocidad del viento	0
68266	7	Sololá	710	Panajachel	8	Panajachel	10	Octubre	2023-10-25T00:00:00	2024-11-08T06:00:00	7	Dirección del viento	0
68267	7	Sololá	710	Panajachel	8	Panajachel	10	Octubre	2023-10-25T00:00:00	2024-11-08T06:00:00	1	Precipitación	0
68268	7	Sololá	710	Panajachel	8	Panajachel	10	Octubre	2023-10-25T00:00:00	2024-11-08T06:00:00	8	Radiación solar	0
68269	7	Sololá	710	Panajachel	8	Panajachel	10	Octubre	2023-10-25T00:00:00	2024-11-08T07:00:00	2	Temperatura media	17.7
68270	7	Sololá	710	Panajachel	8	Panajachel	10	Octubre	2023-10-25T00:00:00	2024-11-08T07:00:00	4	Temperatura máxima	17.7
68271	7	Sololá	710	Panajachel	8	Panajachel	10	Octubre	2023-10-25T00:00:00	2024-11-08T07:00:00	3	Temperatura mínima	16.9
68272	7	Sololá	710	Panajachel	8	Panajachel	10	Octubre	2023-10-25T00:00:00	2024-11-08T07:00:00	5	Humedad	93
68273	7	Sololá	710	Panajachel	8	Panajachel	10	Octubre	2023-10-25T00:00:00	2024-11-08T07:00:00	6	Velocidad del viento	0
68274	7	Sololá	710	Panajachel	8	Panajachel	10	Octubre	2023-10-25T00:00:00	2024-11-08T07:00:00	7	Dirección del viento	0
68275	7	Sololá	710	Panajachel	8	Panajachel	10	Octubre	2023-10-25T00:00:00	2024-11-08T07:00:00	1	Precipitación	0
68276	7	Sololá	710	Panajachel	8	Panajachel	10	Octubre	2023-10-25T00:00:00	2024-11-08T07:00:00	8	Radiación solar	37
68277	7	Sololá	710	Panajachel	8	Panajachel	10	Octubre	2023-10-25T00:00:00	2024-11-08T08:00:00	2	Temperatura media	20.6
68278	7	Sololá	710	Panajachel	8	Panajachel	10	Octubre	2023-10-25T00:00:00	2024-11-08T08:00:00	4	Temperatura máxima	20.6
68279	7	Sololá	710	Panajachel	8	Panajachel	10	Octubre	2023-10-25T00:00:00	2024-11-08T08:00:00	3	Temperatura mínima	17.7
68280	7	Sololá	710	Panajachel	8	Panajachel	10	Octubre	2023-10-25T00:00:00	2024-11-08T08:00:00	5	Humedad	82
68281	7	Sololá	710	Panajachel	8	Panajachel	10	Octubre	2023-10-25T00:00:00	2024-11-08T08:00:00	6	Velocidad del viento	0
68282	7	Sololá	710	Panajachel	8	Panajachel	10	Octubre	2023-10-25T00:00:00	2024-11-08T08:00:00	7	Dirección del viento	0
68283	7	Sololá	710	Panajachel	8	Panajachel	10	Octubre	2023-10-25T00:00:00	2024-11-08T08:00:00	1	Precipitación	0
68284	7	Sololá	710	Panajachel	8	Panajachel	10	Octubre	2023-10-25T00:00:00	2024-11-08T08:00:00	8	Radiación solar	154
68285	7	Sololá	710	Panajachel	8	Panajachel	10	Octubre	2023-10-25T00:00:00	2024-11-08T09:00:00	2	Temperatura media	23.4
68286	7	Sololá	710	Panajachel	8	Panajachel	10	Octubre	2023-10-25T00:00:00	2024-11-08T09:00:00	4	Temperatura máxima	23.4
68287	7	Sololá	710	Panajachel	8	Panajachel	10	Octubre	2023-10-25T00:00:00	2024-11-08T09:00:00	3	Temperatura mínima	20.6
68288	7	Sololá	710	Panajachel	8	Panajachel	10	Octubre	2023-10-25T00:00:00	2024-11-08T09:00:00	5	Humedad	72
68289	7	Sololá	710	Panajachel	8	Panajachel	10	Octubre	2023-10-25T00:00:00	2024-11-08T09:00:00	6	Velocidad del viento	0
68290	7	Sololá	710	Panajachel	8	Panajachel	10	Octubre	2023-10-25T00:00:00	2024-11-08T09:00:00	7	Dirección del viento	0
68291	7	Sololá	710	Panajachel	8	Panajachel	10	Octubre	2023-10-25T00:00:00	2024-11-08T09:00:00	1	Precipitación	0
68292	7	Sololá	710	Panajachel	8	Panajachel	10	Octubre	2023-10-25T00:00:00	2024-11-08T09:00:00	8	Radiación solar	557
68293	7	Sololá	710	Panajachel	8	Panajachel	10	Octubre	2023-10-25T00:00:00	2024-11-08T10:00:00	2	Temperatura media	23.2
68294	7	Sololá	710	Panajachel	8	Panajachel	10	Octubre	2023-10-25T00:00:00	2024-11-08T10:00:00	4	Temperatura máxima	23.8
68295	7	Sololá	710	Panajachel	8	Panajachel	10	Octubre	2023-10-25T00:00:00	2024-11-08T10:00:00	3	Temperatura mínima	22.9
68296	7	Sololá	710	Panajachel	8	Panajachel	10	Octubre	2023-10-25T00:00:00	2024-11-08T10:00:00	5	Humedad	69
68297	7	Sololá	710	Panajachel	8	Panajachel	10	Octubre	2023-10-25T00:00:00	2024-11-08T10:00:00	6	Velocidad del viento	3.2
68298	7	Sololá	710	Panajachel	8	Panajachel	10	Octubre	2023-10-25T00:00:00	2024-11-08T10:00:00	7	Dirección del viento	3.22
68299	7	Sololá	710	Panajachel	8	Panajachel	10	Octubre	2023-10-25T00:00:00	2024-11-08T10:00:00	1	Precipitación	0
68300	7	Sololá	710	Panajachel	8	Panajachel	10	Octubre	2023-10-25T00:00:00	2024-11-08T10:00:00	8	Radiación solar	469
68301	7	Sololá	710	Panajachel	8	Panajachel	10	Octubre	2023-10-25T00:00:00	2024-11-08T11:00:00	2	Temperatura media	23.9
68302	7	Sololá	710	Panajachel	8	Panajachel	10	Octubre	2023-10-25T00:00:00	2024-11-08T11:00:00	4	Temperatura máxima	24.2
68303	7	Sololá	710	Panajachel	8	Panajachel	10	Octubre	2023-10-25T00:00:00	2024-11-08T11:00:00	3	Temperatura mínima	23.1
68304	7	Sololá	710	Panajachel	8	Panajachel	10	Octubre	2023-10-25T00:00:00	2024-11-08T11:00:00	5	Humedad	69
68305	7	Sololá	710	Panajachel	8	Panajachel	10	Octubre	2023-10-25T00:00:00	2024-11-08T11:00:00	6	Velocidad del viento	0
68306	7	Sololá	710	Panajachel	8	Panajachel	10	Octubre	2023-10-25T00:00:00	2024-11-08T11:00:00	7	Dirección del viento	0
68307	7	Sololá	710	Panajachel	8	Panajachel	10	Octubre	2023-10-25T00:00:00	2024-11-08T11:00:00	1	Precipitación	0
68308	7	Sololá	710	Panajachel	8	Panajachel	10	Octubre	2023-10-25T00:00:00	2024-11-08T11:00:00	8	Radiación solar	376
68309	7	Sololá	710	Panajachel	8	Panajachel	10	Octubre	2023-10-25T00:00:00	2024-11-08T12:00:00	2	Temperatura media	25.7
68310	7	Sololá	710	Panajachel	8	Panajachel	10	Octubre	2023-10-25T00:00:00	2024-11-08T12:00:00	4	Temperatura máxima	25.7
68311	7	Sololá	710	Panajachel	8	Panajachel	10	Octubre	2023-10-25T00:00:00	2024-11-08T12:00:00	3	Temperatura mínima	23.9
68312	7	Sololá	710	Panajachel	8	Panajachel	10	Octubre	2023-10-25T00:00:00	2024-11-08T12:00:00	5	Humedad	64
68313	7	Sololá	710	Panajachel	8	Panajachel	10	Octubre	2023-10-25T00:00:00	2024-11-08T12:00:00	6	Velocidad del viento	1.6
68314	7	Sololá	710	Panajachel	8	Panajachel	10	Octubre	2023-10-25T00:00:00	2024-11-08T12:00:00	7	Dirección del viento	1.61
68315	7	Sololá	710	Panajachel	8	Panajachel	10	Octubre	2023-10-25T00:00:00	2024-11-08T12:00:00	1	Precipitación	0
68316	7	Sololá	710	Panajachel	8	Panajachel	10	Octubre	2023-10-25T00:00:00	2024-11-08T12:00:00	8	Radiación solar	462
68317	7	Sololá	710	Panajachel	8	Panajachel	10	Octubre	2023-10-25T00:00:00	2024-11-08T13:00:00	2	Temperatura media	26.3
68318	7	Sololá	710	Panajachel	8	Panajachel	10	Octubre	2023-10-25T00:00:00	2024-11-08T13:00:00	4	Temperatura máxima	26.7
68319	7	Sololá	710	Panajachel	8	Panajachel	10	Octubre	2023-10-25T00:00:00	2024-11-08T13:00:00	3	Temperatura mínima	25.2
68320	7	Sololá	710	Panajachel	8	Panajachel	10	Octubre	2023-10-25T00:00:00	2024-11-08T13:00:00	5	Humedad	64
68321	7	Sololá	710	Panajachel	8	Panajachel	10	Octubre	2023-10-25T00:00:00	2024-11-08T13:00:00	6	Velocidad del viento	0
68322	7	Sololá	710	Panajachel	8	Panajachel	10	Octubre	2023-10-25T00:00:00	2024-11-08T13:00:00	7	Dirección del viento	0
68323	7	Sololá	710	Panajachel	8	Panajachel	10	Octubre	2023-10-25T00:00:00	2024-11-08T13:00:00	1	Precipitación	0
68324	7	Sololá	710	Panajachel	8	Panajachel	10	Octubre	2023-10-25T00:00:00	2024-11-08T13:00:00	8	Radiación solar	465
68325	7	Sololá	710	Panajachel	8	Panajachel	10	Octubre	2023-10-25T00:00:00	2024-11-08T14:00:00	2	Temperatura media	24.9
68326	7	Sololá	710	Panajachel	8	Panajachel	10	Octubre	2023-10-25T00:00:00	2024-11-08T14:00:00	4	Temperatura máxima	26.3
68327	7	Sololá	710	Panajachel	8	Panajachel	10	Octubre	2023-10-25T00:00:00	2024-11-08T14:00:00	3	Temperatura mínima	24.8
68328	7	Sololá	710	Panajachel	8	Panajachel	10	Octubre	2023-10-25T00:00:00	2024-11-08T14:00:00	5	Humedad	72
68329	7	Sololá	710	Panajachel	8	Panajachel	10	Octubre	2023-10-25T00:00:00	2024-11-08T14:00:00	6	Velocidad del viento	0
68330	7	Sololá	710	Panajachel	8	Panajachel	10	Octubre	2023-10-25T00:00:00	2024-11-08T14:00:00	7	Dirección del viento	0
68331	7	Sololá	710	Panajachel	8	Panajachel	10	Octubre	2023-10-25T00:00:00	2024-11-08T14:00:00	1	Precipitación	0
68332	7	Sololá	710	Panajachel	8	Panajachel	10	Octubre	2023-10-25T00:00:00	2024-11-08T14:00:00	8	Radiación solar	409
68333	7	Sololá	710	Panajachel	8	Panajachel	10	Octubre	2023-10-25T00:00:00	2024-11-08T15:00:00	2	Temperatura media	22.4
68334	7	Sololá	710	Panajachel	8	Panajachel	10	Octubre	2023-10-25T00:00:00	2024-11-08T15:00:00	4	Temperatura máxima	25
68335	7	Sololá	710	Panajachel	8	Panajachel	10	Octubre	2023-10-25T00:00:00	2024-11-08T15:00:00	3	Temperatura mínima	22.4
68336	7	Sololá	710	Panajachel	8	Panajachel	10	Octubre	2023-10-25T00:00:00	2024-11-08T15:00:00	5	Humedad	86
68337	7	Sololá	710	Panajachel	8	Panajachel	10	Octubre	2023-10-25T00:00:00	2024-11-08T15:00:00	6	Velocidad del viento	4.8
68338	7	Sololá	710	Panajachel	8	Panajachel	10	Octubre	2023-10-25T00:00:00	2024-11-08T15:00:00	7	Dirección del viento	4.83
68339	7	Sololá	710	Panajachel	8	Panajachel	10	Octubre	2023-10-25T00:00:00	2024-11-08T15:00:00	1	Precipitación	0
68340	7	Sololá	710	Panajachel	8	Panajachel	10	Octubre	2023-10-25T00:00:00	2024-11-08T15:00:00	8	Radiación solar	224
68341	7	Sololá	710	Panajachel	8	Panajachel	10	Octubre	2023-10-25T00:00:00	2024-11-08T16:00:00	2	Temperatura media	21.6
68342	7	Sololá	710	Panajachel	8	Panajachel	10	Octubre	2023-10-25T00:00:00	2024-11-08T16:00:00	4	Temperatura máxima	23.4
68343	7	Sololá	710	Panajachel	8	Panajachel	10	Octubre	2023-10-25T00:00:00	2024-11-08T16:00:00	3	Temperatura mínima	21.6
68344	7	Sololá	710	Panajachel	8	Panajachel	10	Octubre	2023-10-25T00:00:00	2024-11-08T16:00:00	5	Humedad	89
68345	7	Sololá	710	Panajachel	8	Panajachel	10	Octubre	2023-10-25T00:00:00	2024-11-08T16:00:00	6	Velocidad del viento	3.2
68346	7	Sololá	710	Panajachel	8	Panajachel	10	Octubre	2023-10-25T00:00:00	2024-11-08T16:00:00	7	Dirección del viento	3.22
68347	7	Sololá	710	Panajachel	8	Panajachel	10	Octubre	2023-10-25T00:00:00	2024-11-08T16:00:00	1	Precipitación	0
68348	7	Sololá	710	Panajachel	8	Panajachel	10	Octubre	2023-10-25T00:00:00	2024-11-08T16:00:00	8	Radiación solar	240
68349	7	Sololá	710	Panajachel	8	Panajachel	10	Octubre	2023-10-25T00:00:00	2024-11-08T17:00:00	2	Temperatura media	21.8
68350	7	Sololá	710	Panajachel	8	Panajachel	10	Octubre	2023-10-25T00:00:00	2024-11-08T17:00:00	4	Temperatura máxima	21.8
68351	7	Sololá	710	Panajachel	8	Panajachel	10	Octubre	2023-10-25T00:00:00	2024-11-08T17:00:00	3	Temperatura mínima	21.4
68352	7	Sololá	710	Panajachel	8	Panajachel	10	Octubre	2023-10-25T00:00:00	2024-11-08T17:00:00	5	Humedad	87
68353	7	Sololá	710	Panajachel	8	Panajachel	10	Octubre	2023-10-25T00:00:00	2024-11-08T17:00:00	6	Velocidad del viento	0
68354	7	Sololá	710	Panajachel	8	Panajachel	10	Octubre	2023-10-25T00:00:00	2024-11-08T17:00:00	7	Dirección del viento	0
68355	7	Sololá	710	Panajachel	8	Panajachel	10	Octubre	2023-10-25T00:00:00	2024-11-08T17:00:00	1	Precipitación	0
68356	7	Sololá	710	Panajachel	8	Panajachel	10	Octubre	2023-10-25T00:00:00	2024-11-08T17:00:00	8	Radiación solar	76
68357	7	Sololá	710	Panajachel	8	Panajachel	10	Octubre	2023-10-25T00:00:00	2024-11-08T18:00:00	2	Temperatura media	21.1
68358	7	Sololá	710	Panajachel	8	Panajachel	10	Octubre	2023-10-25T00:00:00	2024-11-08T18:00:00	4	Temperatura máxima	21.9
68359	7	Sololá	710	Panajachel	8	Panajachel	10	Octubre	2023-10-25T00:00:00	2024-11-08T18:00:00	3	Temperatura mínima	21.1
68360	7	Sololá	710	Panajachel	8	Panajachel	10	Octubre	2023-10-25T00:00:00	2024-11-08T18:00:00	5	Humedad	90
68361	7	Sololá	710	Panajachel	8	Panajachel	10	Octubre	2023-10-25T00:00:00	2024-11-08T18:00:00	6	Velocidad del viento	0
68362	7	Sololá	710	Panajachel	8	Panajachel	10	Octubre	2023-10-25T00:00:00	2024-11-08T18:00:00	7	Dirección del viento	0
68363	7	Sololá	710	Panajachel	8	Panajachel	10	Octubre	2023-10-25T00:00:00	2024-11-08T18:00:00	1	Precipitación	0
68364	7	Sololá	710	Panajachel	8	Panajachel	10	Octubre	2023-10-25T00:00:00	2024-11-08T18:00:00	8	Radiación solar	11
68365	7	Sololá	710	Panajachel	8	Panajachel	10	Octubre	2023-10-25T00:00:00	2024-11-08T19:00:00	2	Temperatura media	20.1
68366	7	Sololá	710	Panajachel	8	Panajachel	10	Octubre	2023-10-25T00:00:00	2024-11-08T19:00:00	4	Temperatura máxima	21.1
68367	7	Sololá	710	Panajachel	8	Panajachel	10	Octubre	2023-10-25T00:00:00	2024-11-08T19:00:00	3	Temperatura mínima	20.1
68368	7	Sololá	710	Panajachel	8	Panajachel	10	Octubre	2023-10-25T00:00:00	2024-11-08T19:00:00	5	Humedad	89
68369	7	Sololá	710	Panajachel	8	Panajachel	10	Octubre	2023-10-25T00:00:00	2024-11-08T19:00:00	6	Velocidad del viento	0
68370	7	Sololá	710	Panajachel	8	Panajachel	10	Octubre	2023-10-25T00:00:00	2024-11-08T19:00:00	7	Dirección del viento	0
68371	7	Sololá	710	Panajachel	8	Panajachel	10	Octubre	2023-10-25T00:00:00	2024-11-08T19:00:00	1	Precipitación	0
68372	7	Sololá	710	Panajachel	8	Panajachel	10	Octubre	2023-10-25T00:00:00	2024-11-08T19:00:00	8	Radiación solar	0
68373	7	Sololá	710	Panajachel	8	Panajachel	10	Octubre	2023-10-25T00:00:00	2024-11-08T20:00:00	2	Temperatura media	19.5
68374	7	Sololá	710	Panajachel	8	Panajachel	10	Octubre	2023-10-25T00:00:00	2024-11-08T20:00:00	4	Temperatura máxima	20.1
68375	7	Sololá	710	Panajachel	8	Panajachel	10	Octubre	2023-10-25T00:00:00	2024-11-08T20:00:00	3	Temperatura mínima	19.3
68376	7	Sololá	710	Panajachel	8	Panajachel	10	Octubre	2023-10-25T00:00:00	2024-11-08T20:00:00	5	Humedad	88
68377	7	Sololá	710	Panajachel	8	Panajachel	10	Octubre	2023-10-25T00:00:00	2024-11-08T20:00:00	6	Velocidad del viento	0
68378	7	Sololá	710	Panajachel	8	Panajachel	10	Octubre	2023-10-25T00:00:00	2024-11-08T20:00:00	7	Dirección del viento	0
68379	7	Sololá	710	Panajachel	8	Panajachel	10	Octubre	2023-10-25T00:00:00	2024-11-08T20:00:00	1	Precipitación	0
68380	7	Sololá	710	Panajachel	8	Panajachel	10	Octubre	2023-10-25T00:00:00	2024-11-08T20:00:00	8	Radiación solar	0
68381	7	Sololá	710	Panajachel	8	Panajachel	10	Octubre	2023-10-25T00:00:00	2024-11-08T21:00:00	2	Temperatura media	19.7
68382	7	Sololá	710	Panajachel	8	Panajachel	10	Octubre	2023-10-25T00:00:00	2024-11-08T21:00:00	4	Temperatura máxima	19.7
68383	7	Sololá	710	Panajachel	8	Panajachel	10	Octubre	2023-10-25T00:00:00	2024-11-08T21:00:00	3	Temperatura mínima	19.4
68384	7	Sololá	710	Panajachel	8	Panajachel	10	Octubre	2023-10-25T00:00:00	2024-11-08T21:00:00	5	Humedad	87
68385	7	Sololá	710	Panajachel	8	Panajachel	10	Octubre	2023-10-25T00:00:00	2024-11-08T21:00:00	6	Velocidad del viento	0
68386	7	Sololá	710	Panajachel	8	Panajachel	10	Octubre	2023-10-25T00:00:00	2024-11-08T21:00:00	7	Dirección del viento	0
68387	7	Sololá	710	Panajachel	8	Panajachel	10	Octubre	2023-10-25T00:00:00	2024-11-08T21:00:00	1	Precipitación	0
68388	7	Sololá	710	Panajachel	8	Panajachel	10	Octubre	2023-10-25T00:00:00	2024-11-08T21:00:00	8	Radiación solar	0
68389	7	Sololá	710	Panajachel	8	Panajachel	10	Octubre	2023-10-25T00:00:00	2024-11-08T22:00:00	2	Temperatura media	18.8
68390	7	Sololá	710	Panajachel	8	Panajachel	10	Octubre	2023-10-25T00:00:00	2024-11-08T22:00:00	4	Temperatura máxima	19.7
68391	7	Sololá	710	Panajachel	8	Panajachel	10	Octubre	2023-10-25T00:00:00	2024-11-08T22:00:00	3	Temperatura mínima	18.8
68392	7	Sololá	710	Panajachel	8	Panajachel	10	Octubre	2023-10-25T00:00:00	2024-11-08T22:00:00	5	Humedad	89
68393	7	Sololá	710	Panajachel	8	Panajachel	10	Octubre	2023-10-25T00:00:00	2024-11-08T22:00:00	6	Velocidad del viento	0
68394	7	Sololá	710	Panajachel	8	Panajachel	10	Octubre	2023-10-25T00:00:00	2024-11-08T22:00:00	7	Dirección del viento	0
68395	7	Sololá	710	Panajachel	8	Panajachel	10	Octubre	2023-10-25T00:00:00	2024-11-08T22:00:00	1	Precipitación	0
68396	7	Sololá	710	Panajachel	8	Panajachel	10	Octubre	2023-10-25T00:00:00	2024-11-08T22:00:00	8	Radiación solar	0
68397	7	Sololá	710	Panajachel	8	Panajachel	10	Octubre	2023-10-25T00:00:00	2024-11-08T23:00:00	2	Temperatura media	18.1
68398	7	Sololá	710	Panajachel	8	Panajachel	10	Octubre	2023-10-25T00:00:00	2024-11-08T23:00:00	4	Temperatura máxima	18.8
68399	7	Sololá	710	Panajachel	8	Panajachel	10	Octubre	2023-10-25T00:00:00	2024-11-08T23:00:00	3	Temperatura mínima	18.1
68400	7	Sololá	710	Panajachel	8	Panajachel	10	Octubre	2023-10-25T00:00:00	2024-11-08T23:00:00	5	Humedad	89
68401	7	Sololá	710	Panajachel	8	Panajachel	10	Octubre	2023-10-25T00:00:00	2024-11-08T23:00:00	6	Velocidad del viento	0
68402	7	Sololá	710	Panajachel	8	Panajachel	10	Octubre	2023-10-25T00:00:00	2024-11-08T23:00:00	7	Dirección del viento	0
68403	7	Sololá	710	Panajachel	8	Panajachel	10	Octubre	2023-10-25T00:00:00	2024-11-08T23:00:00	1	Precipitación	0
68404	7	Sololá	710	Panajachel	8	Panajachel	10	Octubre	2023-10-25T00:00:00	2024-11-08T23:00:00	8	Radiación solar	0
68405	7	Sololá	710	Panajachel	8	Panajachel	10	Octubre	2023-10-26T00:00:00	2024-11-08T00:00:00	2	Temperatura media	18.1
68406	7	Sololá	710	Panajachel	8	Panajachel	10	Octubre	2023-10-26T00:00:00	2024-11-08T00:00:00	4	Temperatura máxima	18.2
68407	7	Sololá	710	Panajachel	8	Panajachel	10	Octubre	2023-10-26T00:00:00	2024-11-08T00:00:00	3	Temperatura mínima	17.9
68408	7	Sololá	710	Panajachel	8	Panajachel	10	Octubre	2023-10-26T00:00:00	2024-11-08T00:00:00	5	Humedad	88
68409	7	Sololá	710	Panajachel	8	Panajachel	10	Octubre	2023-10-26T00:00:00	2024-11-08T00:00:00	6	Velocidad del viento	0
68410	7	Sololá	710	Panajachel	8	Panajachel	10	Octubre	2023-10-26T00:00:00	2024-11-08T00:00:00	7	Dirección del viento	0
68411	7	Sololá	710	Panajachel	8	Panajachel	10	Octubre	2023-10-26T00:00:00	2024-11-08T00:00:00	1	Precipitación	0
68412	7	Sololá	710	Panajachel	8	Panajachel	10	Octubre	2023-10-26T00:00:00	2024-11-08T00:00:00	8	Radiación solar	0
68413	7	Sololá	710	Panajachel	8	Panajachel	10	Octubre	2023-10-26T00:00:00	2024-11-08T01:00:00	2	Temperatura media	17.6
68414	7	Sololá	710	Panajachel	8	Panajachel	10	Octubre	2023-10-26T00:00:00	2024-11-08T01:00:00	4	Temperatura máxima	18.1
68415	7	Sololá	710	Panajachel	8	Panajachel	10	Octubre	2023-10-26T00:00:00	2024-11-08T01:00:00	3	Temperatura mínima	17.6
68416	7	Sololá	710	Panajachel	8	Panajachel	10	Octubre	2023-10-26T00:00:00	2024-11-08T01:00:00	5	Humedad	90
68417	7	Sololá	710	Panajachel	8	Panajachel	10	Octubre	2023-10-26T00:00:00	2024-11-08T01:00:00	6	Velocidad del viento	0
68418	7	Sololá	710	Panajachel	8	Panajachel	10	Octubre	2023-10-26T00:00:00	2024-11-08T01:00:00	7	Dirección del viento	0
68419	7	Sololá	710	Panajachel	8	Panajachel	10	Octubre	2023-10-26T00:00:00	2024-11-08T01:00:00	1	Precipitación	0
68420	7	Sololá	710	Panajachel	8	Panajachel	10	Octubre	2023-10-26T00:00:00	2024-11-08T01:00:00	8	Radiación solar	0
68421	7	Sololá	710	Panajachel	8	Panajachel	10	Octubre	2023-10-26T00:00:00	2024-11-08T02:00:00	2	Temperatura media	18.6
68422	7	Sololá	710	Panajachel	8	Panajachel	10	Octubre	2023-10-26T00:00:00	2024-11-08T02:00:00	4	Temperatura máxima	18.7
68423	7	Sololá	710	Panajachel	8	Panajachel	10	Octubre	2023-10-26T00:00:00	2024-11-08T02:00:00	3	Temperatura mínima	17.5
68424	7	Sololá	710	Panajachel	8	Panajachel	10	Octubre	2023-10-26T00:00:00	2024-11-08T02:00:00	5	Humedad	84
68425	7	Sololá	710	Panajachel	8	Panajachel	10	Octubre	2023-10-26T00:00:00	2024-11-08T02:00:00	6	Velocidad del viento	0
68426	7	Sololá	710	Panajachel	8	Panajachel	10	Octubre	2023-10-26T00:00:00	2024-11-08T02:00:00	7	Dirección del viento	0
68427	7	Sololá	710	Panajachel	8	Panajachel	10	Octubre	2023-10-26T00:00:00	2024-11-08T02:00:00	1	Precipitación	0
68428	7	Sololá	710	Panajachel	8	Panajachel	10	Octubre	2023-10-26T00:00:00	2024-11-08T02:00:00	8	Radiación solar	0
68429	7	Sololá	710	Panajachel	8	Panajachel	10	Octubre	2023-10-26T00:00:00	2024-11-08T03:00:00	2	Temperatura media	18.3
68430	7	Sololá	710	Panajachel	8	Panajachel	10	Octubre	2023-10-26T00:00:00	2024-11-08T03:00:00	4	Temperatura máxima	18.9
68431	7	Sololá	710	Panajachel	8	Panajachel	10	Octubre	2023-10-26T00:00:00	2024-11-08T03:00:00	3	Temperatura mínima	18.2
68432	7	Sololá	710	Panajachel	8	Panajachel	10	Octubre	2023-10-26T00:00:00	2024-11-08T03:00:00	5	Humedad	85
68433	7	Sololá	710	Panajachel	8	Panajachel	10	Octubre	2023-10-26T00:00:00	2024-11-08T03:00:00	6	Velocidad del viento	0
68434	7	Sololá	710	Panajachel	8	Panajachel	10	Octubre	2023-10-26T00:00:00	2024-11-08T03:00:00	7	Dirección del viento	0
68435	7	Sololá	710	Panajachel	8	Panajachel	10	Octubre	2023-10-26T00:00:00	2024-11-08T03:00:00	1	Precipitación	0
68436	7	Sololá	710	Panajachel	8	Panajachel	10	Octubre	2023-10-26T00:00:00	2024-11-08T03:00:00	8	Radiación solar	0
68437	7	Sololá	710	Panajachel	8	Panajachel	10	Octubre	2023-10-26T00:00:00	2024-11-08T04:00:00	2	Temperatura media	18.5
68438	7	Sololá	710	Panajachel	8	Panajachel	10	Octubre	2023-10-26T00:00:00	2024-11-08T04:00:00	4	Temperatura máxima	18.6
68439	7	Sololá	710	Panajachel	8	Panajachel	10	Octubre	2023-10-26T00:00:00	2024-11-08T04:00:00	3	Temperatura mínima	17.8
68440	7	Sololá	710	Panajachel	8	Panajachel	10	Octubre	2023-10-26T00:00:00	2024-11-08T04:00:00	5	Humedad	83
68441	7	Sololá	710	Panajachel	8	Panajachel	10	Octubre	2023-10-26T00:00:00	2024-11-08T04:00:00	6	Velocidad del viento	0
68442	7	Sololá	710	Panajachel	8	Panajachel	10	Octubre	2023-10-26T00:00:00	2024-11-08T04:00:00	7	Dirección del viento	0
68443	7	Sololá	710	Panajachel	8	Panajachel	10	Octubre	2023-10-26T00:00:00	2024-11-08T04:00:00	1	Precipitación	0
68444	7	Sololá	710	Panajachel	8	Panajachel	10	Octubre	2023-10-26T00:00:00	2024-11-08T04:00:00	8	Radiación solar	0
68445	7	Sololá	710	Panajachel	8	Panajachel	10	Octubre	2023-10-26T00:00:00	2024-11-08T05:00:00	2	Temperatura media	20.4
68446	7	Sololá	710	Panajachel	8	Panajachel	10	Octubre	2023-10-26T00:00:00	2024-11-08T05:00:00	4	Temperatura máxima	20.4
68447	7	Sololá	710	Panajachel	8	Panajachel	10	Octubre	2023-10-26T00:00:00	2024-11-08T05:00:00	3	Temperatura mínima	17.9
68448	7	Sololá	710	Panajachel	8	Panajachel	10	Octubre	2023-10-26T00:00:00	2024-11-08T05:00:00	5	Humedad	75
68449	7	Sololá	710	Panajachel	8	Panajachel	10	Octubre	2023-10-26T00:00:00	2024-11-08T05:00:00	6	Velocidad del viento	3.2
68450	7	Sololá	710	Panajachel	8	Panajachel	10	Octubre	2023-10-26T00:00:00	2024-11-08T05:00:00	7	Dirección del viento	3.22
68451	7	Sololá	710	Panajachel	8	Panajachel	10	Octubre	2023-10-26T00:00:00	2024-11-08T05:00:00	1	Precipitación	0
68452	7	Sololá	710	Panajachel	8	Panajachel	10	Octubre	2023-10-26T00:00:00	2024-11-08T05:00:00	8	Radiación solar	0
68453	7	Sololá	710	Panajachel	8	Panajachel	10	Octubre	2023-10-26T00:00:00	2024-11-08T06:00:00	2	Temperatura media	19.6
68454	7	Sololá	710	Panajachel	8	Panajachel	10	Octubre	2023-10-26T00:00:00	2024-11-08T06:00:00	4	Temperatura máxima	20.6
68455	7	Sololá	710	Panajachel	8	Panajachel	10	Octubre	2023-10-26T00:00:00	2024-11-08T06:00:00	3	Temperatura mínima	19.6
68456	7	Sololá	710	Panajachel	8	Panajachel	10	Octubre	2023-10-26T00:00:00	2024-11-08T06:00:00	5	Humedad	79
68457	7	Sololá	710	Panajachel	8	Panajachel	10	Octubre	2023-10-26T00:00:00	2024-11-08T06:00:00	6	Velocidad del viento	3.2
68458	7	Sololá	710	Panajachel	8	Panajachel	10	Octubre	2023-10-26T00:00:00	2024-11-08T06:00:00	7	Dirección del viento	3.22
68459	7	Sololá	710	Panajachel	8	Panajachel	10	Octubre	2023-10-26T00:00:00	2024-11-08T06:00:00	1	Precipitación	0
68460	7	Sololá	710	Panajachel	8	Panajachel	10	Octubre	2023-10-26T00:00:00	2024-11-08T06:00:00	8	Radiación solar	0
68461	7	Sololá	710	Panajachel	8	Panajachel	10	Octubre	2023-10-26T00:00:00	2024-11-08T07:00:00	2	Temperatura media	18.4
68462	7	Sololá	710	Panajachel	8	Panajachel	10	Octubre	2023-10-26T00:00:00	2024-11-08T07:00:00	4	Temperatura máxima	19.6
68463	7	Sololá	710	Panajachel	8	Panajachel	10	Octubre	2023-10-26T00:00:00	2024-11-08T07:00:00	3	Temperatura mínima	17.7
68464	7	Sololá	710	Panajachel	8	Panajachel	10	Octubre	2023-10-26T00:00:00	2024-11-08T07:00:00	5	Humedad	84
68465	7	Sololá	710	Panajachel	8	Panajachel	10	Octubre	2023-10-26T00:00:00	2024-11-08T07:00:00	6	Velocidad del viento	0
68466	7	Sololá	710	Panajachel	8	Panajachel	10	Octubre	2023-10-26T00:00:00	2024-11-08T07:00:00	7	Dirección del viento	0
68467	7	Sololá	710	Panajachel	8	Panajachel	10	Octubre	2023-10-26T00:00:00	2024-11-08T07:00:00	1	Precipitación	0
68468	7	Sololá	710	Panajachel	8	Panajachel	10	Octubre	2023-10-26T00:00:00	2024-11-08T07:00:00	8	Radiación solar	54
68469	7	Sololá	710	Panajachel	8	Panajachel	10	Octubre	2023-10-26T00:00:00	2024-11-08T08:00:00	2	Temperatura media	22.1
68470	7	Sololá	710	Panajachel	8	Panajachel	10	Octubre	2023-10-26T00:00:00	2024-11-08T08:00:00	4	Temperatura máxima	22.1
68471	7	Sololá	710	Panajachel	8	Panajachel	10	Octubre	2023-10-26T00:00:00	2024-11-08T08:00:00	3	Temperatura mínima	18.4
68472	7	Sololá	710	Panajachel	8	Panajachel	10	Octubre	2023-10-26T00:00:00	2024-11-08T08:00:00	5	Humedad	74
68473	7	Sololá	710	Panajachel	8	Panajachel	10	Octubre	2023-10-26T00:00:00	2024-11-08T08:00:00	6	Velocidad del viento	0
68474	7	Sololá	710	Panajachel	8	Panajachel	10	Octubre	2023-10-26T00:00:00	2024-11-08T08:00:00	7	Dirección del viento	0
68475	7	Sololá	710	Panajachel	8	Panajachel	10	Octubre	2023-10-26T00:00:00	2024-11-08T08:00:00	1	Precipitación	0
68476	7	Sololá	710	Panajachel	8	Panajachel	10	Octubre	2023-10-26T00:00:00	2024-11-08T08:00:00	8	Radiación solar	306
68477	7	Sololá	710	Panajachel	8	Panajachel	10	Octubre	2023-10-26T00:00:00	2024-11-08T09:00:00	2	Temperatura media	23.1
68478	7	Sololá	710	Panajachel	8	Panajachel	10	Octubre	2023-10-26T00:00:00	2024-11-08T09:00:00	4	Temperatura máxima	23.1
68479	7	Sololá	710	Panajachel	8	Panajachel	10	Octubre	2023-10-26T00:00:00	2024-11-08T09:00:00	3	Temperatura mínima	21.9
68480	7	Sololá	710	Panajachel	8	Panajachel	10	Octubre	2023-10-26T00:00:00	2024-11-08T09:00:00	5	Humedad	70
68481	7	Sololá	710	Panajachel	8	Panajachel	10	Octubre	2023-10-26T00:00:00	2024-11-08T09:00:00	6	Velocidad del viento	0
68482	7	Sololá	710	Panajachel	8	Panajachel	10	Octubre	2023-10-26T00:00:00	2024-11-08T09:00:00	7	Dirección del viento	0
68483	7	Sololá	710	Panajachel	8	Panajachel	10	Octubre	2023-10-26T00:00:00	2024-11-08T09:00:00	1	Precipitación	0
68484	7	Sololá	710	Panajachel	8	Panajachel	10	Octubre	2023-10-26T00:00:00	2024-11-08T09:00:00	8	Radiación solar	493
68485	7	Sololá	710	Panajachel	8	Panajachel	10	Octubre	2023-10-26T00:00:00	2024-11-08T10:00:00	2	Temperatura media	23.2
68486	7	Sololá	710	Panajachel	8	Panajachel	10	Octubre	2023-10-26T00:00:00	2024-11-08T10:00:00	4	Temperatura máxima	23.3
68487	7	Sololá	710	Panajachel	8	Panajachel	10	Octubre	2023-10-26T00:00:00	2024-11-08T10:00:00	3	Temperatura mínima	22.4
68488	7	Sololá	710	Panajachel	8	Panajachel	10	Octubre	2023-10-26T00:00:00	2024-11-08T10:00:00	5	Humedad	71
68489	7	Sololá	710	Panajachel	8	Panajachel	10	Octubre	2023-10-26T00:00:00	2024-11-08T10:00:00	6	Velocidad del viento	0
68490	7	Sololá	710	Panajachel	8	Panajachel	10	Octubre	2023-10-26T00:00:00	2024-11-08T10:00:00	7	Dirección del viento	0
68491	7	Sololá	710	Panajachel	8	Panajachel	10	Octubre	2023-10-26T00:00:00	2024-11-08T10:00:00	1	Precipitación	0
68492	7	Sololá	710	Panajachel	8	Panajachel	10	Octubre	2023-10-26T00:00:00	2024-11-08T10:00:00	8	Radiación solar	392
68493	7	Sololá	710	Panajachel	8	Panajachel	10	Octubre	2023-10-26T00:00:00	2024-11-08T11:00:00	2	Temperatura media	23.2
68494	7	Sololá	710	Panajachel	8	Panajachel	10	Octubre	2023-10-26T00:00:00	2024-11-08T11:00:00	4	Temperatura máxima	23.7
68495	7	Sololá	710	Panajachel	8	Panajachel	10	Octubre	2023-10-26T00:00:00	2024-11-08T11:00:00	3	Temperatura mínima	22.9
68496	7	Sololá	710	Panajachel	8	Panajachel	10	Octubre	2023-10-26T00:00:00	2024-11-08T11:00:00	5	Humedad	70
68497	7	Sololá	710	Panajachel	8	Panajachel	10	Octubre	2023-10-26T00:00:00	2024-11-08T11:00:00	6	Velocidad del viento	3.2
68498	7	Sololá	710	Panajachel	8	Panajachel	10	Octubre	2023-10-26T00:00:00	2024-11-08T11:00:00	7	Dirección del viento	3.22
68499	7	Sololá	710	Panajachel	8	Panajachel	10	Octubre	2023-10-26T00:00:00	2024-11-08T11:00:00	1	Precipitación	0
68500	7	Sololá	710	Panajachel	8	Panajachel	10	Octubre	2023-10-26T00:00:00	2024-11-08T11:00:00	8	Radiación solar	539
68501	7	Sololá	710	Panajachel	8	Panajachel	10	Octubre	2023-10-26T00:00:00	2024-11-08T12:00:00	2	Temperatura media	23.4
68502	7	Sololá	710	Panajachel	8	Panajachel	10	Octubre	2023-10-26T00:00:00	2024-11-08T12:00:00	4	Temperatura máxima	23.6
68503	7	Sololá	710	Panajachel	8	Panajachel	10	Octubre	2023-10-26T00:00:00	2024-11-08T12:00:00	3	Temperatura mínima	23.1
68504	7	Sololá	710	Panajachel	8	Panajachel	10	Octubre	2023-10-26T00:00:00	2024-11-08T12:00:00	5	Humedad	75
68505	7	Sololá	710	Panajachel	8	Panajachel	10	Octubre	2023-10-26T00:00:00	2024-11-08T12:00:00	6	Velocidad del viento	1.6
68506	7	Sololá	710	Panajachel	8	Panajachel	10	Octubre	2023-10-26T00:00:00	2024-11-08T12:00:00	7	Dirección del viento	1.61
68507	7	Sololá	710	Panajachel	8	Panajachel	10	Octubre	2023-10-26T00:00:00	2024-11-08T12:00:00	1	Precipitación	0
68508	7	Sololá	710	Panajachel	8	Panajachel	10	Octubre	2023-10-26T00:00:00	2024-11-08T12:00:00	8	Radiación solar	324
68509	7	Sololá	710	Panajachel	8	Panajachel	10	Octubre	2023-10-26T00:00:00	2024-11-08T13:00:00	2	Temperatura media	23.6
68510	7	Sololá	710	Panajachel	8	Panajachel	10	Octubre	2023-10-26T00:00:00	2024-11-08T13:00:00	4	Temperatura máxima	23.9
68511	7	Sololá	710	Panajachel	8	Panajachel	10	Octubre	2023-10-26T00:00:00	2024-11-08T13:00:00	3	Temperatura mínima	23.3
68512	7	Sololá	710	Panajachel	8	Panajachel	10	Octubre	2023-10-26T00:00:00	2024-11-08T13:00:00	5	Humedad	79
68513	7	Sololá	710	Panajachel	8	Panajachel	10	Octubre	2023-10-26T00:00:00	2024-11-08T13:00:00	6	Velocidad del viento	0
68514	7	Sololá	710	Panajachel	8	Panajachel	10	Octubre	2023-10-26T00:00:00	2024-11-08T13:00:00	7	Dirección del viento	0
68515	7	Sololá	710	Panajachel	8	Panajachel	10	Octubre	2023-10-26T00:00:00	2024-11-08T13:00:00	1	Precipitación	0
68516	7	Sololá	710	Panajachel	8	Panajachel	10	Octubre	2023-10-26T00:00:00	2024-11-08T13:00:00	8	Radiación solar	317
68517	7	Sololá	710	Panajachel	8	Panajachel	10	Octubre	2023-10-26T00:00:00	2024-11-08T14:00:00	2	Temperatura media	23.2
68518	7	Sololá	710	Panajachel	8	Panajachel	10	Octubre	2023-10-26T00:00:00	2024-11-08T14:00:00	4	Temperatura máxima	24.2
68519	7	Sololá	710	Panajachel	8	Panajachel	10	Octubre	2023-10-26T00:00:00	2024-11-08T14:00:00	3	Temperatura mínima	23.2
68520	7	Sololá	710	Panajachel	8	Panajachel	10	Octubre	2023-10-26T00:00:00	2024-11-08T14:00:00	5	Humedad	82
68521	7	Sololá	710	Panajachel	8	Panajachel	10	Octubre	2023-10-26T00:00:00	2024-11-08T14:00:00	6	Velocidad del viento	1.6
68522	7	Sololá	710	Panajachel	8	Panajachel	10	Octubre	2023-10-26T00:00:00	2024-11-08T14:00:00	7	Dirección del viento	1.61
68523	7	Sololá	710	Panajachel	8	Panajachel	10	Octubre	2023-10-26T00:00:00	2024-11-08T14:00:00	1	Precipitación	0
68524	7	Sololá	710	Panajachel	8	Panajachel	10	Octubre	2023-10-26T00:00:00	2024-11-08T14:00:00	8	Radiación solar	621
68525	7	Sololá	710	Panajachel	8	Panajachel	10	Octubre	2023-10-26T00:00:00	2024-11-08T15:00:00	2	Temperatura media	23.6
68526	7	Sololá	710	Panajachel	8	Panajachel	10	Octubre	2023-10-26T00:00:00	2024-11-08T15:00:00	4	Temperatura máxima	24.7
68527	7	Sololá	710	Panajachel	8	Panajachel	10	Octubre	2023-10-26T00:00:00	2024-11-08T15:00:00	3	Temperatura mínima	23.2
68528	7	Sololá	710	Panajachel	8	Panajachel	10	Octubre	2023-10-26T00:00:00	2024-11-08T15:00:00	5	Humedad	80
68529	7	Sololá	710	Panajachel	8	Panajachel	10	Octubre	2023-10-26T00:00:00	2024-11-08T15:00:00	6	Velocidad del viento	0
68530	7	Sololá	710	Panajachel	8	Panajachel	10	Octubre	2023-10-26T00:00:00	2024-11-08T15:00:00	7	Dirección del viento	0
68531	7	Sololá	710	Panajachel	8	Panajachel	10	Octubre	2023-10-26T00:00:00	2024-11-08T15:00:00	1	Precipitación	0
68532	7	Sololá	710	Panajachel	8	Panajachel	10	Octubre	2023-10-26T00:00:00	2024-11-08T15:00:00	8	Radiación solar	446
68533	7	Sololá	710	Panajachel	8	Panajachel	10	Octubre	2023-10-26T00:00:00	2024-11-08T16:00:00	2	Temperatura media	23.8
68534	7	Sololá	710	Panajachel	8	Panajachel	10	Octubre	2023-10-26T00:00:00	2024-11-08T16:00:00	4	Temperatura máxima	24.5
68535	7	Sololá	710	Panajachel	8	Panajachel	10	Octubre	2023-10-26T00:00:00	2024-11-08T16:00:00	3	Temperatura mínima	23.4
68536	7	Sololá	710	Panajachel	8	Panajachel	10	Octubre	2023-10-26T00:00:00	2024-11-08T16:00:00	5	Humedad	82
68537	7	Sololá	710	Panajachel	8	Panajachel	10	Octubre	2023-10-26T00:00:00	2024-11-08T16:00:00	6	Velocidad del viento	0
68538	7	Sololá	710	Panajachel	8	Panajachel	10	Octubre	2023-10-26T00:00:00	2024-11-08T16:00:00	7	Dirección del viento	0
68539	7	Sololá	710	Panajachel	8	Panajachel	10	Octubre	2023-10-26T00:00:00	2024-11-08T16:00:00	1	Precipitación	0
68540	7	Sololá	710	Panajachel	8	Panajachel	10	Octubre	2023-10-26T00:00:00	2024-11-08T16:00:00	8	Radiación solar	396
68541	7	Sololá	710	Panajachel	8	Panajachel	10	Octubre	2023-10-26T00:00:00	2024-11-08T17:00:00	2	Temperatura media	21.4
68542	7	Sololá	710	Panajachel	8	Panajachel	10	Octubre	2023-10-26T00:00:00	2024-11-08T17:00:00	4	Temperatura máxima	23.9
68543	7	Sololá	710	Panajachel	8	Panajachel	10	Octubre	2023-10-26T00:00:00	2024-11-08T17:00:00	3	Temperatura mínima	21.4
68544	7	Sololá	710	Panajachel	8	Panajachel	10	Octubre	2023-10-26T00:00:00	2024-11-08T17:00:00	5	Humedad	89
68545	7	Sololá	710	Panajachel	8	Panajachel	10	Octubre	2023-10-26T00:00:00	2024-11-08T17:00:00	6	Velocidad del viento	0
68546	7	Sololá	710	Panajachel	8	Panajachel	10	Octubre	2023-10-26T00:00:00	2024-11-08T17:00:00	7	Dirección del viento	0
68547	7	Sololá	710	Panajachel	8	Panajachel	10	Octubre	2023-10-26T00:00:00	2024-11-08T17:00:00	1	Precipitación	0
68548	7	Sololá	710	Panajachel	8	Panajachel	10	Octubre	2023-10-26T00:00:00	2024-11-08T17:00:00	8	Radiación solar	143
68549	7	Sololá	710	Panajachel	8	Panajachel	10	Octubre	2023-10-26T00:00:00	2024-11-08T18:00:00	2	Temperatura media	20.8
68550	7	Sololá	710	Panajachel	8	Panajachel	10	Octubre	2023-10-26T00:00:00	2024-11-08T18:00:00	4	Temperatura máxima	21.4
68551	7	Sololá	710	Panajachel	8	Panajachel	10	Octubre	2023-10-26T00:00:00	2024-11-08T18:00:00	3	Temperatura mínima	20.8
68552	7	Sololá	710	Panajachel	8	Panajachel	10	Octubre	2023-10-26T00:00:00	2024-11-08T18:00:00	5	Humedad	90
68553	7	Sololá	710	Panajachel	8	Panajachel	10	Octubre	2023-10-26T00:00:00	2024-11-08T18:00:00	6	Velocidad del viento	0
68554	7	Sololá	710	Panajachel	8	Panajachel	10	Octubre	2023-10-26T00:00:00	2024-11-08T18:00:00	7	Dirección del viento	0
68555	7	Sololá	710	Panajachel	8	Panajachel	10	Octubre	2023-10-26T00:00:00	2024-11-08T18:00:00	1	Precipitación	0
68556	7	Sololá	710	Panajachel	8	Panajachel	10	Octubre	2023-10-26T00:00:00	2024-11-08T18:00:00	8	Radiación solar	4
68557	7	Sololá	710	Panajachel	8	Panajachel	10	Octubre	2023-10-26T00:00:00	2024-11-08T19:00:00	2	Temperatura media	19.8
68558	7	Sololá	710	Panajachel	8	Panajachel	10	Octubre	2023-10-26T00:00:00	2024-11-08T19:00:00	4	Temperatura máxima	20.8
68559	7	Sololá	710	Panajachel	8	Panajachel	10	Octubre	2023-10-26T00:00:00	2024-11-08T19:00:00	3	Temperatura mínima	19.8
68560	7	Sololá	710	Panajachel	8	Panajachel	10	Octubre	2023-10-26T00:00:00	2024-11-08T19:00:00	5	Humedad	92
68561	7	Sololá	710	Panajachel	8	Panajachel	10	Octubre	2023-10-26T00:00:00	2024-11-08T19:00:00	6	Velocidad del viento	0
68562	7	Sololá	710	Panajachel	8	Panajachel	10	Octubre	2023-10-26T00:00:00	2024-11-08T19:00:00	7	Dirección del viento	0
68563	7	Sololá	710	Panajachel	8	Panajachel	10	Octubre	2023-10-26T00:00:00	2024-11-08T19:00:00	1	Precipitación	0
68564	7	Sololá	710	Panajachel	8	Panajachel	10	Octubre	2023-10-26T00:00:00	2024-11-08T19:00:00	8	Radiación solar	0
68565	7	Sololá	710	Panajachel	8	Panajachel	10	Octubre	2023-10-26T00:00:00	2024-11-08T20:00:00	2	Temperatura media	18.6
68566	7	Sololá	710	Panajachel	8	Panajachel	10	Octubre	2023-10-26T00:00:00	2024-11-08T20:00:00	4	Temperatura máxima	19.8
68567	7	Sololá	710	Panajachel	8	Panajachel	10	Octubre	2023-10-26T00:00:00	2024-11-08T20:00:00	3	Temperatura mínima	18.6
68568	7	Sololá	710	Panajachel	8	Panajachel	10	Octubre	2023-10-26T00:00:00	2024-11-08T20:00:00	5	Humedad	88
68569	7	Sololá	710	Panajachel	8	Panajachel	10	Octubre	2023-10-26T00:00:00	2024-11-08T20:00:00	6	Velocidad del viento	0
68570	7	Sololá	710	Panajachel	8	Panajachel	10	Octubre	2023-10-26T00:00:00	2024-11-08T20:00:00	7	Dirección del viento	0
68571	7	Sololá	710	Panajachel	8	Panajachel	10	Octubre	2023-10-26T00:00:00	2024-11-08T20:00:00	1	Precipitación	0
68572	7	Sololá	710	Panajachel	8	Panajachel	10	Octubre	2023-10-26T00:00:00	2024-11-08T20:00:00	8	Radiación solar	0
68573	7	Sololá	710	Panajachel	8	Panajachel	10	Octubre	2023-10-26T00:00:00	2024-11-08T21:00:00	2	Temperatura media	18.3
68574	7	Sololá	710	Panajachel	8	Panajachel	10	Octubre	2023-10-26T00:00:00	2024-11-08T21:00:00	4	Temperatura máxima	18.6
68575	7	Sololá	710	Panajachel	8	Panajachel	10	Octubre	2023-10-26T00:00:00	2024-11-08T21:00:00	3	Temperatura mínima	18.2
68576	7	Sololá	710	Panajachel	8	Panajachel	10	Octubre	2023-10-26T00:00:00	2024-11-08T21:00:00	5	Humedad	88
68577	7	Sololá	710	Panajachel	8	Panajachel	10	Octubre	2023-10-26T00:00:00	2024-11-08T21:00:00	6	Velocidad del viento	0
68578	7	Sololá	710	Panajachel	8	Panajachel	10	Octubre	2023-10-26T00:00:00	2024-11-08T21:00:00	7	Dirección del viento	0
68579	7	Sololá	710	Panajachel	8	Panajachel	10	Octubre	2023-10-26T00:00:00	2024-11-08T21:00:00	1	Precipitación	0
68580	7	Sololá	710	Panajachel	8	Panajachel	10	Octubre	2023-10-26T00:00:00	2024-11-08T21:00:00	8	Radiación solar	0
68581	7	Sololá	710	Panajachel	8	Panajachel	10	Octubre	2023-10-26T00:00:00	2024-11-08T22:00:00	2	Temperatura media	18.3
68582	7	Sololá	710	Panajachel	8	Panajachel	10	Octubre	2023-10-26T00:00:00	2024-11-08T22:00:00	4	Temperatura máxima	18.6
68583	7	Sololá	710	Panajachel	8	Panajachel	10	Octubre	2023-10-26T00:00:00	2024-11-08T22:00:00	3	Temperatura mínima	18.2
68584	7	Sololá	710	Panajachel	8	Panajachel	10	Octubre	2023-10-26T00:00:00	2024-11-08T22:00:00	5	Humedad	88
68585	7	Sololá	710	Panajachel	8	Panajachel	10	Octubre	2023-10-26T00:00:00	2024-11-08T22:00:00	6	Velocidad del viento	0
68586	7	Sololá	710	Panajachel	8	Panajachel	10	Octubre	2023-10-26T00:00:00	2024-11-08T22:00:00	7	Dirección del viento	0
68587	7	Sololá	710	Panajachel	8	Panajachel	10	Octubre	2023-10-26T00:00:00	2024-11-08T22:00:00	1	Precipitación	0
68588	7	Sololá	710	Panajachel	8	Panajachel	10	Octubre	2023-10-26T00:00:00	2024-11-08T22:00:00	8	Radiación solar	0
68589	7	Sololá	710	Panajachel	8	Panajachel	10	Octubre	2023-10-26T00:00:00	2024-11-08T23:00:00	2	Temperatura media	18.6
68590	7	Sololá	710	Panajachel	8	Panajachel	10	Octubre	2023-10-26T00:00:00	2024-11-08T23:00:00	4	Temperatura máxima	18.7
68591	7	Sololá	710	Panajachel	8	Panajachel	10	Octubre	2023-10-26T00:00:00	2024-11-08T23:00:00	3	Temperatura mínima	18.2
68592	7	Sololá	710	Panajachel	8	Panajachel	10	Octubre	2023-10-26T00:00:00	2024-11-08T23:00:00	5	Humedad	88
68593	7	Sololá	710	Panajachel	8	Panajachel	10	Octubre	2023-10-26T00:00:00	2024-11-08T23:00:00	6	Velocidad del viento	1.6
68594	7	Sololá	710	Panajachel	8	Panajachel	10	Octubre	2023-10-26T00:00:00	2024-11-08T23:00:00	7	Dirección del viento	1.61
68595	7	Sololá	710	Panajachel	8	Panajachel	10	Octubre	2023-10-26T00:00:00	2024-11-08T23:00:00	1	Precipitación	0
68596	7	Sololá	710	Panajachel	8	Panajachel	10	Octubre	2023-10-26T00:00:00	2024-11-08T23:00:00	8	Radiación solar	0
68597	7	Sololá	710	Panajachel	8	Panajachel	10	Octubre	2023-10-27T00:00:00	2024-11-08T00:00:00	2	Temperatura media	18.6
68598	7	Sololá	710	Panajachel	8	Panajachel	10	Octubre	2023-10-27T00:00:00	2024-11-08T00:00:00	4	Temperatura máxima	19.3
68599	7	Sololá	710	Panajachel	8	Panajachel	10	Octubre	2023-10-27T00:00:00	2024-11-08T00:00:00	3	Temperatura mínima	18.5
68600	7	Sololá	710	Panajachel	8	Panajachel	10	Octubre	2023-10-27T00:00:00	2024-11-08T00:00:00	5	Humedad	87
68601	7	Sololá	710	Panajachel	8	Panajachel	10	Octubre	2023-10-27T00:00:00	2024-11-08T00:00:00	6	Velocidad del viento	0
68602	7	Sololá	710	Panajachel	8	Panajachel	10	Octubre	2023-10-27T00:00:00	2024-11-08T00:00:00	7	Dirección del viento	0
68603	7	Sololá	710	Panajachel	8	Panajachel	10	Octubre	2023-10-27T00:00:00	2024-11-08T00:00:00	1	Precipitación	0
68604	7	Sololá	710	Panajachel	8	Panajachel	10	Octubre	2023-10-27T00:00:00	2024-11-08T00:00:00	8	Radiación solar	0
68605	7	Sololá	710	Panajachel	8	Panajachel	10	Octubre	2023-10-27T00:00:00	2024-11-08T01:00:00	2	Temperatura media	20.3
68606	7	Sololá	710	Panajachel	8	Panajachel	10	Octubre	2023-10-27T00:00:00	2024-11-08T01:00:00	4	Temperatura máxima	20.3
68607	7	Sololá	710	Panajachel	8	Panajachel	10	Octubre	2023-10-27T00:00:00	2024-11-08T01:00:00	3	Temperatura mínima	18.4
68608	7	Sololá	710	Panajachel	8	Panajachel	10	Octubre	2023-10-27T00:00:00	2024-11-08T01:00:00	5	Humedad	79
68609	7	Sololá	710	Panajachel	8	Panajachel	10	Octubre	2023-10-27T00:00:00	2024-11-08T01:00:00	6	Velocidad del viento	1.6
68610	7	Sololá	710	Panajachel	8	Panajachel	10	Octubre	2023-10-27T00:00:00	2024-11-08T01:00:00	7	Dirección del viento	1.61
68611	7	Sololá	710	Panajachel	8	Panajachel	10	Octubre	2023-10-27T00:00:00	2024-11-08T01:00:00	1	Precipitación	0
68612	7	Sololá	710	Panajachel	8	Panajachel	10	Octubre	2023-10-27T00:00:00	2024-11-08T01:00:00	8	Radiación solar	0
68613	7	Sololá	710	Panajachel	8	Panajachel	10	Octubre	2023-10-27T00:00:00	2024-11-08T02:00:00	2	Temperatura media	20.6
68614	7	Sololá	710	Panajachel	8	Panajachel	10	Octubre	2023-10-27T00:00:00	2024-11-08T02:00:00	4	Temperatura máxima	20.8
68615	7	Sololá	710	Panajachel	8	Panajachel	10	Octubre	2023-10-27T00:00:00	2024-11-08T02:00:00	3	Temperatura mínima	19.3
68616	7	Sololá	710	Panajachel	8	Panajachel	10	Octubre	2023-10-27T00:00:00	2024-11-08T02:00:00	5	Humedad	77
68617	7	Sololá	710	Panajachel	8	Panajachel	10	Octubre	2023-10-27T00:00:00	2024-11-08T02:00:00	6	Velocidad del viento	1.6
68618	7	Sololá	710	Panajachel	8	Panajachel	10	Octubre	2023-10-27T00:00:00	2024-11-08T02:00:00	7	Dirección del viento	1.61
68619	7	Sololá	710	Panajachel	8	Panajachel	10	Octubre	2023-10-27T00:00:00	2024-11-08T02:00:00	1	Precipitación	0
68620	7	Sololá	710	Panajachel	8	Panajachel	10	Octubre	2023-10-27T00:00:00	2024-11-08T02:00:00	8	Radiación solar	0
68621	7	Sololá	710	Panajachel	8	Panajachel	10	Octubre	2023-10-27T00:00:00	2024-11-08T03:00:00	2	Temperatura media	20.6
68622	7	Sololá	710	Panajachel	8	Panajachel	10	Octubre	2023-10-27T00:00:00	2024-11-08T03:00:00	4	Temperatura máxima	20.7
68623	7	Sololá	710	Panajachel	8	Panajachel	10	Octubre	2023-10-27T00:00:00	2024-11-08T03:00:00	3	Temperatura mínima	20.3
68624	7	Sololá	710	Panajachel	8	Panajachel	10	Octubre	2023-10-27T00:00:00	2024-11-08T03:00:00	5	Humedad	76
68625	7	Sololá	710	Panajachel	8	Panajachel	10	Octubre	2023-10-27T00:00:00	2024-11-08T03:00:00	6	Velocidad del viento	1.6
68626	7	Sololá	710	Panajachel	8	Panajachel	10	Octubre	2023-10-27T00:00:00	2024-11-08T03:00:00	7	Dirección del viento	1.61
68627	7	Sololá	710	Panajachel	8	Panajachel	10	Octubre	2023-10-27T00:00:00	2024-11-08T03:00:00	1	Precipitación	0
68628	7	Sololá	710	Panajachel	8	Panajachel	10	Octubre	2023-10-27T00:00:00	2024-11-08T03:00:00	8	Radiación solar	0
68629	7	Sololá	710	Panajachel	8	Panajachel	10	Octubre	2023-10-27T00:00:00	2024-11-08T04:00:00	2	Temperatura media	20.5
68630	7	Sololá	710	Panajachel	8	Panajachel	10	Octubre	2023-10-27T00:00:00	2024-11-08T04:00:00	4	Temperatura máxima	20.7
68631	7	Sololá	710	Panajachel	8	Panajachel	10	Octubre	2023-10-27T00:00:00	2024-11-08T04:00:00	3	Temperatura mínima	20.3
68632	7	Sololá	710	Panajachel	8	Panajachel	10	Octubre	2023-10-27T00:00:00	2024-11-08T04:00:00	5	Humedad	76
68633	7	Sololá	710	Panajachel	8	Panajachel	10	Octubre	2023-10-27T00:00:00	2024-11-08T04:00:00	6	Velocidad del viento	3.2
68634	7	Sololá	710	Panajachel	8	Panajachel	10	Octubre	2023-10-27T00:00:00	2024-11-08T04:00:00	7	Dirección del viento	3.22
68635	7	Sololá	710	Panajachel	8	Panajachel	10	Octubre	2023-10-27T00:00:00	2024-11-08T04:00:00	1	Precipitación	0
68636	7	Sololá	710	Panajachel	8	Panajachel	10	Octubre	2023-10-27T00:00:00	2024-11-08T04:00:00	8	Radiación solar	0
68637	7	Sololá	710	Panajachel	8	Panajachel	10	Octubre	2023-10-27T00:00:00	2024-11-08T05:00:00	2	Temperatura media	20.2
68638	7	Sololá	710	Panajachel	8	Panajachel	10	Octubre	2023-10-27T00:00:00	2024-11-08T05:00:00	4	Temperatura máxima	20.7
68639	7	Sololá	710	Panajachel	8	Panajachel	10	Octubre	2023-10-27T00:00:00	2024-11-08T05:00:00	3	Temperatura mínima	20.1
68640	7	Sololá	710	Panajachel	8	Panajachel	10	Octubre	2023-10-27T00:00:00	2024-11-08T05:00:00	5	Humedad	77
68641	7	Sololá	710	Panajachel	8	Panajachel	10	Octubre	2023-10-27T00:00:00	2024-11-08T05:00:00	6	Velocidad del viento	3.2
68642	7	Sololá	710	Panajachel	8	Panajachel	10	Octubre	2023-10-27T00:00:00	2024-11-08T05:00:00	7	Dirección del viento	3.22
68643	7	Sololá	710	Panajachel	8	Panajachel	10	Octubre	2023-10-27T00:00:00	2024-11-08T05:00:00	1	Precipitación	0
68644	7	Sololá	710	Panajachel	8	Panajachel	10	Octubre	2023-10-27T00:00:00	2024-11-08T05:00:00	8	Radiación solar	0
68645	7	Sololá	710	Panajachel	8	Panajachel	10	Octubre	2023-10-27T00:00:00	2024-11-08T06:00:00	2	Temperatura media	19.8
68646	7	Sololá	710	Panajachel	8	Panajachel	10	Octubre	2023-10-27T00:00:00	2024-11-08T06:00:00	4	Temperatura máxima	20.5
68647	7	Sololá	710	Panajachel	8	Panajachel	10	Octubre	2023-10-27T00:00:00	2024-11-08T06:00:00	3	Temperatura mínima	19.8
68648	7	Sololá	710	Panajachel	8	Panajachel	10	Octubre	2023-10-27T00:00:00	2024-11-08T06:00:00	5	Humedad	78
68649	7	Sololá	710	Panajachel	8	Panajachel	10	Octubre	2023-10-27T00:00:00	2024-11-08T06:00:00	6	Velocidad del viento	3.2
68650	7	Sololá	710	Panajachel	8	Panajachel	10	Octubre	2023-10-27T00:00:00	2024-11-08T06:00:00	7	Dirección del viento	3.22
68651	7	Sololá	710	Panajachel	8	Panajachel	10	Octubre	2023-10-27T00:00:00	2024-11-08T06:00:00	1	Precipitación	0
68652	7	Sololá	710	Panajachel	8	Panajachel	10	Octubre	2023-10-27T00:00:00	2024-11-08T06:00:00	8	Radiación solar	0
68653	7	Sololá	710	Panajachel	8	Panajachel	10	Octubre	2023-10-27T00:00:00	2024-11-08T07:00:00	2	Temperatura media	21.3
68654	7	Sololá	710	Panajachel	8	Panajachel	10	Octubre	2023-10-27T00:00:00	2024-11-08T07:00:00	4	Temperatura máxima	21.3
68655	7	Sololá	710	Panajachel	8	Panajachel	10	Octubre	2023-10-27T00:00:00	2024-11-08T07:00:00	3	Temperatura mínima	19.7
68656	7	Sololá	710	Panajachel	8	Panajachel	10	Octubre	2023-10-27T00:00:00	2024-11-08T07:00:00	5	Humedad	77
68657	7	Sololá	710	Panajachel	8	Panajachel	10	Octubre	2023-10-27T00:00:00	2024-11-08T07:00:00	6	Velocidad del viento	1.6
68658	7	Sololá	710	Panajachel	8	Panajachel	10	Octubre	2023-10-27T00:00:00	2024-11-08T07:00:00	7	Dirección del viento	1.61
68659	7	Sololá	710	Panajachel	8	Panajachel	10	Octubre	2023-10-27T00:00:00	2024-11-08T07:00:00	1	Precipitación	0
68660	7	Sololá	710	Panajachel	8	Panajachel	10	Octubre	2023-10-27T00:00:00	2024-11-08T07:00:00	8	Radiación solar	75
68661	7	Sololá	710	Panajachel	8	Panajachel	10	Octubre	2023-10-27T00:00:00	2024-11-08T08:00:00	2	Temperatura media	22.6
68662	7	Sololá	710	Panajachel	8	Panajachel	10	Octubre	2023-10-27T00:00:00	2024-11-08T08:00:00	4	Temperatura máxima	23.2
68663	7	Sololá	710	Panajachel	8	Panajachel	10	Octubre	2023-10-27T00:00:00	2024-11-08T08:00:00	3	Temperatura mínima	21.3
68664	7	Sololá	710	Panajachel	8	Panajachel	10	Octubre	2023-10-27T00:00:00	2024-11-08T08:00:00	5	Humedad	72
68665	7	Sololá	710	Panajachel	8	Panajachel	10	Octubre	2023-10-27T00:00:00	2024-11-08T08:00:00	6	Velocidad del viento	0
68666	7	Sololá	710	Panajachel	8	Panajachel	10	Octubre	2023-10-27T00:00:00	2024-11-08T08:00:00	7	Dirección del viento	0
68667	7	Sololá	710	Panajachel	8	Panajachel	10	Octubre	2023-10-27T00:00:00	2024-11-08T08:00:00	1	Precipitación	0
68668	7	Sololá	710	Panajachel	8	Panajachel	10	Octubre	2023-10-27T00:00:00	2024-11-08T08:00:00	8	Radiación solar	356
68669	7	Sololá	710	Panajachel	8	Panajachel	10	Octubre	2023-10-27T00:00:00	2024-11-08T09:00:00	2	Temperatura media	22.8
68670	7	Sololá	710	Panajachel	8	Panajachel	10	Octubre	2023-10-27T00:00:00	2024-11-08T09:00:00	4	Temperatura máxima	23.4
68671	7	Sololá	710	Panajachel	8	Panajachel	10	Octubre	2023-10-27T00:00:00	2024-11-08T09:00:00	3	Temperatura mínima	22.3
68672	7	Sololá	710	Panajachel	8	Panajachel	10	Octubre	2023-10-27T00:00:00	2024-11-08T09:00:00	5	Humedad	72
68673	7	Sololá	710	Panajachel	8	Panajachel	10	Octubre	2023-10-27T00:00:00	2024-11-08T09:00:00	6	Velocidad del viento	1.6
68674	7	Sololá	710	Panajachel	8	Panajachel	10	Octubre	2023-10-27T00:00:00	2024-11-08T09:00:00	7	Dirección del viento	1.61
68675	7	Sololá	710	Panajachel	8	Panajachel	10	Octubre	2023-10-27T00:00:00	2024-11-08T09:00:00	1	Precipitación	0
68676	7	Sololá	710	Panajachel	8	Panajachel	10	Octubre	2023-10-27T00:00:00	2024-11-08T09:00:00	8	Radiación solar	383
68677	7	Sololá	710	Panajachel	8	Panajachel	10	Octubre	2023-10-27T00:00:00	2024-11-08T10:00:00	2	Temperatura media	24.3
68678	7	Sololá	710	Panajachel	8	Panajachel	10	Octubre	2023-10-27T00:00:00	2024-11-08T10:00:00	4	Temperatura máxima	24.3
68679	7	Sololá	710	Panajachel	8	Panajachel	10	Octubre	2023-10-27T00:00:00	2024-11-08T10:00:00	3	Temperatura mínima	22.6
68680	7	Sololá	710	Panajachel	8	Panajachel	10	Octubre	2023-10-27T00:00:00	2024-11-08T10:00:00	5	Humedad	68
68681	7	Sololá	710	Panajachel	8	Panajachel	10	Octubre	2023-10-27T00:00:00	2024-11-08T10:00:00	6	Velocidad del viento	1.6
68682	7	Sololá	710	Panajachel	8	Panajachel	10	Octubre	2023-10-27T00:00:00	2024-11-08T10:00:00	7	Dirección del viento	1.61
68683	7	Sololá	710	Panajachel	8	Panajachel	10	Octubre	2023-10-27T00:00:00	2024-11-08T10:00:00	1	Precipitación	0
68684	7	Sololá	710	Panajachel	8	Panajachel	10	Octubre	2023-10-27T00:00:00	2024-11-08T10:00:00	8	Radiación solar	556
68685	7	Sololá	710	Panajachel	8	Panajachel	10	Octubre	2023-10-27T00:00:00	2024-11-08T11:00:00	2	Temperatura media	24.1
68686	7	Sololá	710	Panajachel	8	Panajachel	10	Octubre	2023-10-27T00:00:00	2024-11-08T11:00:00	4	Temperatura máxima	25.1
68687	7	Sololá	710	Panajachel	8	Panajachel	10	Octubre	2023-10-27T00:00:00	2024-11-08T11:00:00	3	Temperatura mínima	24
68688	7	Sololá	710	Panajachel	8	Panajachel	10	Octubre	2023-10-27T00:00:00	2024-11-08T11:00:00	5	Humedad	64
68689	7	Sololá	710	Panajachel	8	Panajachel	10	Octubre	2023-10-27T00:00:00	2024-11-08T11:00:00	6	Velocidad del viento	3.2
68690	7	Sololá	710	Panajachel	8	Panajachel	10	Octubre	2023-10-27T00:00:00	2024-11-08T11:00:00	7	Dirección del viento	3.22
68691	7	Sololá	710	Panajachel	8	Panajachel	10	Octubre	2023-10-27T00:00:00	2024-11-08T11:00:00	1	Precipitación	0
68692	7	Sololá	710	Panajachel	8	Panajachel	10	Octubre	2023-10-27T00:00:00	2024-11-08T11:00:00	8	Radiación solar	477
68693	7	Sololá	710	Panajachel	8	Panajachel	10	Octubre	2023-10-27T00:00:00	2024-11-08T12:00:00	2	Temperatura media	24.6
68694	7	Sololá	710	Panajachel	8	Panajachel	10	Octubre	2023-10-27T00:00:00	2024-11-08T12:00:00	4	Temperatura máxima	24.8
68695	7	Sololá	710	Panajachel	8	Panajachel	10	Octubre	2023-10-27T00:00:00	2024-11-08T12:00:00	3	Temperatura mínima	24.1
68696	7	Sololá	710	Panajachel	8	Panajachel	10	Octubre	2023-10-27T00:00:00	2024-11-08T12:00:00	5	Humedad	64
68697	7	Sololá	710	Panajachel	8	Panajachel	10	Octubre	2023-10-27T00:00:00	2024-11-08T12:00:00	6	Velocidad del viento	1.6
68698	7	Sololá	710	Panajachel	8	Panajachel	10	Octubre	2023-10-27T00:00:00	2024-11-08T12:00:00	7	Dirección del viento	1.61
68699	7	Sololá	710	Panajachel	8	Panajachel	10	Octubre	2023-10-27T00:00:00	2024-11-08T12:00:00	1	Precipitación	0
68700	7	Sololá	710	Panajachel	8	Panajachel	10	Octubre	2023-10-27T00:00:00	2024-11-08T12:00:00	8	Radiación solar	469
68701	7	Sololá	710	Panajachel	8	Panajachel	10	Octubre	2023-10-27T00:00:00	2024-11-08T13:00:00	2	Temperatura media	24.2
68702	7	Sololá	710	Panajachel	8	Panajachel	10	Octubre	2023-10-27T00:00:00	2024-11-08T13:00:00	4	Temperatura máxima	24.7
68703	7	Sololá	710	Panajachel	8	Panajachel	10	Octubre	2023-10-27T00:00:00	2024-11-08T13:00:00	3	Temperatura mínima	24
68704	7	Sololá	710	Panajachel	8	Panajachel	10	Octubre	2023-10-27T00:00:00	2024-11-08T13:00:00	5	Humedad	67
68705	7	Sololá	710	Panajachel	8	Panajachel	10	Octubre	2023-10-27T00:00:00	2024-11-08T13:00:00	6	Velocidad del viento	3.2
68706	7	Sololá	710	Panajachel	8	Panajachel	10	Octubre	2023-10-27T00:00:00	2024-11-08T13:00:00	7	Dirección del viento	3.22
68707	7	Sololá	710	Panajachel	8	Panajachel	10	Octubre	2023-10-27T00:00:00	2024-11-08T13:00:00	1	Precipitación	0
68708	7	Sololá	710	Panajachel	8	Panajachel	10	Octubre	2023-10-27T00:00:00	2024-11-08T13:00:00	8	Radiación solar	412
68709	7	Sololá	710	Panajachel	8	Panajachel	10	Octubre	2023-10-27T00:00:00	2024-11-08T14:00:00	2	Temperatura media	21.1
68710	7	Sololá	710	Panajachel	8	Panajachel	10	Octubre	2023-10-27T00:00:00	2024-11-08T14:00:00	4	Temperatura máxima	24.2
68711	7	Sololá	710	Panajachel	8	Panajachel	10	Octubre	2023-10-27T00:00:00	2024-11-08T14:00:00	3	Temperatura mínima	21.1
68712	7	Sololá	710	Panajachel	8	Panajachel	10	Octubre	2023-10-27T00:00:00	2024-11-08T14:00:00	5	Humedad	79
68713	7	Sololá	710	Panajachel	8	Panajachel	10	Octubre	2023-10-27T00:00:00	2024-11-08T14:00:00	6	Velocidad del viento	1.6
68714	7	Sololá	710	Panajachel	8	Panajachel	10	Octubre	2023-10-27T00:00:00	2024-11-08T14:00:00	7	Dirección del viento	1.61
68715	7	Sololá	710	Panajachel	8	Panajachel	10	Octubre	2023-10-27T00:00:00	2024-11-08T14:00:00	1	Precipitación	0.4
68716	7	Sololá	710	Panajachel	8	Panajachel	10	Octubre	2023-10-27T00:00:00	2024-11-08T14:00:00	8	Radiación solar	262
68717	7	Sololá	710	Panajachel	8	Panajachel	10	Octubre	2023-10-27T00:00:00	2024-11-08T15:00:00	2	Temperatura media	22.3
68718	7	Sololá	710	Panajachel	8	Panajachel	10	Octubre	2023-10-27T00:00:00	2024-11-08T15:00:00	4	Temperatura máxima	22.3
68719	7	Sololá	710	Panajachel	8	Panajachel	10	Octubre	2023-10-27T00:00:00	2024-11-08T15:00:00	3	Temperatura mínima	20.8
68720	7	Sololá	710	Panajachel	8	Panajachel	10	Octubre	2023-10-27T00:00:00	2024-11-08T15:00:00	5	Humedad	73
68721	7	Sololá	710	Panajachel	8	Panajachel	10	Octubre	2023-10-27T00:00:00	2024-11-08T15:00:00	6	Velocidad del viento	4.8
68722	7	Sololá	710	Panajachel	8	Panajachel	10	Octubre	2023-10-27T00:00:00	2024-11-08T15:00:00	7	Dirección del viento	4.83
68723	7	Sololá	710	Panajachel	8	Panajachel	10	Octubre	2023-10-27T00:00:00	2024-11-08T15:00:00	1	Precipitación	0.2
68724	7	Sololá	710	Panajachel	8	Panajachel	10	Octubre	2023-10-27T00:00:00	2024-11-08T15:00:00	8	Radiación solar	226
68725	7	Sololá	710	Panajachel	8	Panajachel	10	Octubre	2023-10-27T00:00:00	2024-11-08T16:00:00	2	Temperatura media	22
68726	7	Sololá	710	Panajachel	8	Panajachel	10	Octubre	2023-10-27T00:00:00	2024-11-08T16:00:00	4	Temperatura máxima	22.4
68727	7	Sololá	710	Panajachel	8	Panajachel	10	Octubre	2023-10-27T00:00:00	2024-11-08T16:00:00	3	Temperatura mínima	21.8
68728	7	Sololá	710	Panajachel	8	Panajachel	10	Octubre	2023-10-27T00:00:00	2024-11-08T16:00:00	5	Humedad	72
68729	7	Sololá	710	Panajachel	8	Panajachel	10	Octubre	2023-10-27T00:00:00	2024-11-08T16:00:00	6	Velocidad del viento	3.2
68730	7	Sololá	710	Panajachel	8	Panajachel	10	Octubre	2023-10-27T00:00:00	2024-11-08T16:00:00	7	Dirección del viento	3.22
68731	7	Sololá	710	Panajachel	8	Panajachel	10	Octubre	2023-10-27T00:00:00	2024-11-08T16:00:00	1	Precipitación	0
68732	7	Sololá	710	Panajachel	8	Panajachel	10	Octubre	2023-10-27T00:00:00	2024-11-08T16:00:00	8	Radiación solar	139
68733	7	Sololá	710	Panajachel	8	Panajachel	10	Octubre	2023-10-27T00:00:00	2024-11-08T17:00:00	2	Temperatura media	22.6
68734	7	Sololá	710	Panajachel	8	Panajachel	10	Octubre	2023-10-27T00:00:00	2024-11-08T17:00:00	4	Temperatura máxima	22.9
68735	7	Sololá	710	Panajachel	8	Panajachel	10	Octubre	2023-10-27T00:00:00	2024-11-08T17:00:00	3	Temperatura mínima	21.9
68736	7	Sololá	710	Panajachel	8	Panajachel	10	Octubre	2023-10-27T00:00:00	2024-11-08T17:00:00	5	Humedad	70
68737	7	Sololá	710	Panajachel	8	Panajachel	10	Octubre	2023-10-27T00:00:00	2024-11-08T17:00:00	6	Velocidad del viento	1.6
68738	7	Sololá	710	Panajachel	8	Panajachel	10	Octubre	2023-10-27T00:00:00	2024-11-08T17:00:00	7	Dirección del viento	1.61
68739	7	Sololá	710	Panajachel	8	Panajachel	10	Octubre	2023-10-27T00:00:00	2024-11-08T17:00:00	1	Precipitación	0
68740	7	Sololá	710	Panajachel	8	Panajachel	10	Octubre	2023-10-27T00:00:00	2024-11-08T17:00:00	8	Radiación solar	122
68741	7	Sololá	710	Panajachel	8	Panajachel	10	Octubre	2023-10-27T00:00:00	2024-11-08T18:00:00	2	Temperatura media	21.4
68742	7	Sololá	710	Panajachel	8	Panajachel	10	Octubre	2023-10-27T00:00:00	2024-11-08T18:00:00	4	Temperatura máxima	22.6
68743	7	Sololá	710	Panajachel	8	Panajachel	10	Octubre	2023-10-27T00:00:00	2024-11-08T18:00:00	3	Temperatura mínima	21.3
68744	7	Sololá	710	Panajachel	8	Panajachel	10	Octubre	2023-10-27T00:00:00	2024-11-08T18:00:00	5	Humedad	74
68745	7	Sololá	710	Panajachel	8	Panajachel	10	Octubre	2023-10-27T00:00:00	2024-11-08T18:00:00	6	Velocidad del viento	3.2
68746	7	Sololá	710	Panajachel	8	Panajachel	10	Octubre	2023-10-27T00:00:00	2024-11-08T18:00:00	7	Dirección del viento	3.22
68747	7	Sololá	710	Panajachel	8	Panajachel	10	Octubre	2023-10-27T00:00:00	2024-11-08T18:00:00	1	Precipitación	0
68748	7	Sololá	710	Panajachel	8	Panajachel	10	Octubre	2023-10-27T00:00:00	2024-11-08T18:00:00	8	Radiación solar	4
68749	7	Sololá	710	Panajachel	8	Panajachel	10	Octubre	2023-10-27T00:00:00	2024-11-08T19:00:00	2	Temperatura media	20.9
68750	7	Sololá	710	Panajachel	8	Panajachel	10	Octubre	2023-10-27T00:00:00	2024-11-08T19:00:00	4	Temperatura máxima	21.4
68751	7	Sololá	710	Panajachel	8	Panajachel	10	Octubre	2023-10-27T00:00:00	2024-11-08T19:00:00	3	Temperatura mínima	20.7
68752	7	Sololá	710	Panajachel	8	Panajachel	10	Octubre	2023-10-27T00:00:00	2024-11-08T19:00:00	5	Humedad	76
68753	7	Sololá	710	Panajachel	8	Panajachel	10	Octubre	2023-10-27T00:00:00	2024-11-08T19:00:00	6	Velocidad del viento	1.6
68754	7	Sololá	710	Panajachel	8	Panajachel	10	Octubre	2023-10-27T00:00:00	2024-11-08T19:00:00	7	Dirección del viento	1.61
68755	7	Sololá	710	Panajachel	8	Panajachel	10	Octubre	2023-10-27T00:00:00	2024-11-08T19:00:00	1	Precipitación	0
68756	7	Sololá	710	Panajachel	8	Panajachel	10	Octubre	2023-10-27T00:00:00	2024-11-08T19:00:00	8	Radiación solar	0
68757	7	Sololá	710	Panajachel	8	Panajachel	10	Octubre	2023-10-27T00:00:00	2024-11-08T20:00:00	2	Temperatura media	20.5
68758	7	Sololá	710	Panajachel	8	Panajachel	10	Octubre	2023-10-27T00:00:00	2024-11-08T20:00:00	4	Temperatura máxima	21.1
68759	7	Sololá	710	Panajachel	8	Panajachel	10	Octubre	2023-10-27T00:00:00	2024-11-08T20:00:00	3	Temperatura mínima	20.5
68760	7	Sololá	710	Panajachel	8	Panajachel	10	Octubre	2023-10-27T00:00:00	2024-11-08T20:00:00	5	Humedad	79
68761	7	Sololá	710	Panajachel	8	Panajachel	10	Octubre	2023-10-27T00:00:00	2024-11-08T20:00:00	6	Velocidad del viento	1.6
68762	7	Sololá	710	Panajachel	8	Panajachel	10	Octubre	2023-10-27T00:00:00	2024-11-08T20:00:00	7	Dirección del viento	1.61
68763	7	Sololá	710	Panajachel	8	Panajachel	10	Octubre	2023-10-27T00:00:00	2024-11-08T20:00:00	1	Precipitación	0
68764	7	Sololá	710	Panajachel	8	Panajachel	10	Octubre	2023-10-27T00:00:00	2024-11-08T20:00:00	8	Radiación solar	0
68765	7	Sololá	710	Panajachel	8	Panajachel	10	Octubre	2023-10-27T00:00:00	2024-11-08T21:00:00	2	Temperatura media	19.9
68766	7	Sololá	710	Panajachel	8	Panajachel	10	Octubre	2023-10-27T00:00:00	2024-11-08T21:00:00	4	Temperatura máxima	20.5
68767	7	Sololá	710	Panajachel	8	Panajachel	10	Octubre	2023-10-27T00:00:00	2024-11-08T21:00:00	3	Temperatura mínima	19.2
68768	7	Sololá	710	Panajachel	8	Panajachel	10	Octubre	2023-10-27T00:00:00	2024-11-08T21:00:00	5	Humedad	80
68769	7	Sololá	710	Panajachel	8	Panajachel	10	Octubre	2023-10-27T00:00:00	2024-11-08T21:00:00	6	Velocidad del viento	0
68770	7	Sololá	710	Panajachel	8	Panajachel	10	Octubre	2023-10-27T00:00:00	2024-11-08T21:00:00	7	Dirección del viento	0
68771	7	Sololá	710	Panajachel	8	Panajachel	10	Octubre	2023-10-27T00:00:00	2024-11-08T21:00:00	1	Precipitación	0
68772	7	Sololá	710	Panajachel	8	Panajachel	10	Octubre	2023-10-27T00:00:00	2024-11-08T21:00:00	8	Radiación solar	0
68773	7	Sololá	710	Panajachel	8	Panajachel	10	Octubre	2023-10-27T00:00:00	2024-11-08T22:00:00	2	Temperatura media	19.6
68774	7	Sololá	710	Panajachel	8	Panajachel	10	Octubre	2023-10-27T00:00:00	2024-11-08T22:00:00	4	Temperatura máxima	20.6
68775	7	Sololá	710	Panajachel	8	Panajachel	10	Octubre	2023-10-27T00:00:00	2024-11-08T22:00:00	3	Temperatura mínima	19.6
68776	7	Sololá	710	Panajachel	8	Panajachel	10	Octubre	2023-10-27T00:00:00	2024-11-08T22:00:00	5	Humedad	82
68777	7	Sololá	710	Panajachel	8	Panajachel	10	Octubre	2023-10-27T00:00:00	2024-11-08T22:00:00	6	Velocidad del viento	0
68778	7	Sololá	710	Panajachel	8	Panajachel	10	Octubre	2023-10-27T00:00:00	2024-11-08T22:00:00	7	Dirección del viento	0
68779	7	Sololá	710	Panajachel	8	Panajachel	10	Octubre	2023-10-27T00:00:00	2024-11-08T22:00:00	1	Precipitación	0
68780	7	Sololá	710	Panajachel	8	Panajachel	10	Octubre	2023-10-27T00:00:00	2024-11-08T22:00:00	8	Radiación solar	0
68781	7	Sololá	710	Panajachel	8	Panajachel	10	Octubre	2023-10-27T00:00:00	2024-11-08T23:00:00	2	Temperatura media	18.9
68782	7	Sololá	710	Panajachel	8	Panajachel	10	Octubre	2023-10-27T00:00:00	2024-11-08T23:00:00	4	Temperatura máxima	19.6
68783	7	Sololá	710	Panajachel	8	Panajachel	10	Octubre	2023-10-27T00:00:00	2024-11-08T23:00:00	3	Temperatura mínima	18.8
68784	7	Sololá	710	Panajachel	8	Panajachel	10	Octubre	2023-10-27T00:00:00	2024-11-08T23:00:00	5	Humedad	84
68785	7	Sololá	710	Panajachel	8	Panajachel	10	Octubre	2023-10-27T00:00:00	2024-11-08T23:00:00	6	Velocidad del viento	0
68786	7	Sololá	710	Panajachel	8	Panajachel	10	Octubre	2023-10-27T00:00:00	2024-11-08T23:00:00	7	Dirección del viento	0
68787	7	Sololá	710	Panajachel	8	Panajachel	10	Octubre	2023-10-27T00:00:00	2024-11-08T23:00:00	1	Precipitación	0
68788	7	Sololá	710	Panajachel	8	Panajachel	10	Octubre	2023-10-27T00:00:00	2024-11-08T23:00:00	8	Radiación solar	0
68789	7	Sololá	710	Panajachel	8	Panajachel	10	Octubre	2023-10-28T00:00:00	2024-11-08T00:00:00	2	Temperatura media	19
68790	7	Sololá	710	Panajachel	8	Panajachel	10	Octubre	2023-10-28T00:00:00	2024-11-08T00:00:00	4	Temperatura máxima	19.3
68791	7	Sololá	710	Panajachel	8	Panajachel	10	Octubre	2023-10-28T00:00:00	2024-11-08T00:00:00	3	Temperatura mínima	18.7
68792	7	Sololá	710	Panajachel	8	Panajachel	10	Octubre	2023-10-28T00:00:00	2024-11-08T00:00:00	5	Humedad	86
68793	7	Sololá	710	Panajachel	8	Panajachel	10	Octubre	2023-10-28T00:00:00	2024-11-08T00:00:00	6	Velocidad del viento	0
68794	7	Sololá	710	Panajachel	8	Panajachel	10	Octubre	2023-10-28T00:00:00	2024-11-08T00:00:00	7	Dirección del viento	0
68795	7	Sololá	710	Panajachel	8	Panajachel	10	Octubre	2023-10-28T00:00:00	2024-11-08T00:00:00	1	Precipitación	0
68796	7	Sololá	710	Panajachel	8	Panajachel	10	Octubre	2023-10-28T00:00:00	2024-11-08T00:00:00	8	Radiación solar	0
68797	7	Sololá	710	Panajachel	8	Panajachel	10	Octubre	2023-10-28T00:00:00	2024-11-08T01:00:00	2	Temperatura media	18.5
68798	7	Sololá	710	Panajachel	8	Panajachel	10	Octubre	2023-10-28T00:00:00	2024-11-08T01:00:00	4	Temperatura máxima	19
68799	7	Sololá	710	Panajachel	8	Panajachel	10	Octubre	2023-10-28T00:00:00	2024-11-08T01:00:00	3	Temperatura mínima	18.4
68800	7	Sololá	710	Panajachel	8	Panajachel	10	Octubre	2023-10-28T00:00:00	2024-11-08T01:00:00	5	Humedad	86
68801	7	Sololá	710	Panajachel	8	Panajachel	10	Octubre	2023-10-28T00:00:00	2024-11-08T01:00:00	6	Velocidad del viento	0
68802	7	Sololá	710	Panajachel	8	Panajachel	10	Octubre	2023-10-28T00:00:00	2024-11-08T01:00:00	7	Dirección del viento	0
68803	7	Sololá	710	Panajachel	8	Panajachel	10	Octubre	2023-10-28T00:00:00	2024-11-08T01:00:00	1	Precipitación	0
68804	7	Sololá	710	Panajachel	8	Panajachel	10	Octubre	2023-10-28T00:00:00	2024-11-08T01:00:00	8	Radiación solar	0
68805	7	Sololá	710	Panajachel	8	Panajachel	10	Octubre	2023-10-28T00:00:00	2024-11-08T02:00:00	2	Temperatura media	18.7
68806	7	Sololá	710	Panajachel	8	Panajachel	10	Octubre	2023-10-28T00:00:00	2024-11-08T02:00:00	4	Temperatura máxima	19.7
68807	7	Sololá	710	Panajachel	8	Panajachel	10	Octubre	2023-10-28T00:00:00	2024-11-08T02:00:00	3	Temperatura mínima	18.4
68808	7	Sololá	710	Panajachel	8	Panajachel	10	Octubre	2023-10-28T00:00:00	2024-11-08T02:00:00	5	Humedad	83
68809	7	Sololá	710	Panajachel	8	Panajachel	10	Octubre	2023-10-28T00:00:00	2024-11-08T02:00:00	6	Velocidad del viento	0
68810	7	Sololá	710	Panajachel	8	Panajachel	10	Octubre	2023-10-28T00:00:00	2024-11-08T02:00:00	7	Dirección del viento	0
68811	7	Sololá	710	Panajachel	8	Panajachel	10	Octubre	2023-10-28T00:00:00	2024-11-08T02:00:00	1	Precipitación	0
68812	7	Sololá	710	Panajachel	8	Panajachel	10	Octubre	2023-10-28T00:00:00	2024-11-08T02:00:00	8	Radiación solar	0
68813	7	Sololá	710	Panajachel	8	Panajachel	10	Octubre	2023-10-28T00:00:00	2024-11-08T03:00:00	2	Temperatura media	17.7
68814	7	Sololá	710	Panajachel	8	Panajachel	10	Octubre	2023-10-28T00:00:00	2024-11-08T03:00:00	4	Temperatura máxima	18.7
68815	7	Sololá	710	Panajachel	8	Panajachel	10	Octubre	2023-10-28T00:00:00	2024-11-08T03:00:00	3	Temperatura mínima	17.7
68816	7	Sololá	710	Panajachel	8	Panajachel	10	Octubre	2023-10-28T00:00:00	2024-11-08T03:00:00	5	Humedad	87
68817	7	Sololá	710	Panajachel	8	Panajachel	10	Octubre	2023-10-28T00:00:00	2024-11-08T03:00:00	6	Velocidad del viento	0
68818	7	Sololá	710	Panajachel	8	Panajachel	10	Octubre	2023-10-28T00:00:00	2024-11-08T03:00:00	7	Dirección del viento	0
68819	7	Sololá	710	Panajachel	8	Panajachel	10	Octubre	2023-10-28T00:00:00	2024-11-08T03:00:00	1	Precipitación	0
68820	7	Sololá	710	Panajachel	8	Panajachel	10	Octubre	2023-10-28T00:00:00	2024-11-08T03:00:00	8	Radiación solar	0
68821	7	Sololá	710	Panajachel	8	Panajachel	10	Octubre	2023-10-28T00:00:00	2024-11-08T04:00:00	2	Temperatura media	20
68822	7	Sololá	710	Panajachel	8	Panajachel	10	Octubre	2023-10-28T00:00:00	2024-11-08T04:00:00	4	Temperatura máxima	20.1
68823	7	Sololá	710	Panajachel	8	Panajachel	10	Octubre	2023-10-28T00:00:00	2024-11-08T04:00:00	3	Temperatura mínima	17.4
68824	7	Sololá	710	Panajachel	8	Panajachel	10	Octubre	2023-10-28T00:00:00	2024-11-08T04:00:00	5	Humedad	77
68825	7	Sololá	710	Panajachel	8	Panajachel	10	Octubre	2023-10-28T00:00:00	2024-11-08T04:00:00	6	Velocidad del viento	6.4
68826	7	Sololá	710	Panajachel	8	Panajachel	10	Octubre	2023-10-28T00:00:00	2024-11-08T04:00:00	7	Dirección del viento	6.44
68827	7	Sololá	710	Panajachel	8	Panajachel	10	Octubre	2023-10-28T00:00:00	2024-11-08T04:00:00	1	Precipitación	0
68828	7	Sololá	710	Panajachel	8	Panajachel	10	Octubre	2023-10-28T00:00:00	2024-11-08T04:00:00	8	Radiación solar	0
68829	7	Sololá	710	Panajachel	8	Panajachel	10	Octubre	2023-10-28T00:00:00	2024-11-08T05:00:00	2	Temperatura media	19.4
68830	7	Sololá	710	Panajachel	8	Panajachel	10	Octubre	2023-10-28T00:00:00	2024-11-08T05:00:00	4	Temperatura máxima	20
68831	7	Sololá	710	Panajachel	8	Panajachel	10	Octubre	2023-10-28T00:00:00	2024-11-08T05:00:00	3	Temperatura mínima	19.4
68832	7	Sololá	710	Panajachel	8	Panajachel	10	Octubre	2023-10-28T00:00:00	2024-11-08T05:00:00	5	Humedad	76
68833	7	Sololá	710	Panajachel	8	Panajachel	10	Octubre	2023-10-28T00:00:00	2024-11-08T05:00:00	6	Velocidad del viento	4.8
68834	7	Sololá	710	Panajachel	8	Panajachel	10	Octubre	2023-10-28T00:00:00	2024-11-08T05:00:00	7	Dirección del viento	4.83
68835	7	Sololá	710	Panajachel	8	Panajachel	10	Octubre	2023-10-28T00:00:00	2024-11-08T05:00:00	1	Precipitación	0
68836	7	Sololá	710	Panajachel	8	Panajachel	10	Octubre	2023-10-28T00:00:00	2024-11-08T05:00:00	8	Radiación solar	0
68837	7	Sololá	710	Panajachel	8	Panajachel	10	Octubre	2023-10-28T00:00:00	2024-11-08T06:00:00	2	Temperatura media	19.2
68838	7	Sololá	710	Panajachel	8	Panajachel	10	Octubre	2023-10-28T00:00:00	2024-11-08T06:00:00	4	Temperatura máxima	19.4
68839	7	Sololá	710	Panajachel	8	Panajachel	10	Octubre	2023-10-28T00:00:00	2024-11-08T06:00:00	3	Temperatura mínima	19.1
68840	7	Sololá	710	Panajachel	8	Panajachel	10	Octubre	2023-10-28T00:00:00	2024-11-08T06:00:00	5	Humedad	73
68841	7	Sololá	710	Panajachel	8	Panajachel	10	Octubre	2023-10-28T00:00:00	2024-11-08T06:00:00	6	Velocidad del viento	3.2
68842	7	Sololá	710	Panajachel	8	Panajachel	10	Octubre	2023-10-28T00:00:00	2024-11-08T06:00:00	7	Dirección del viento	3.22
68843	7	Sololá	710	Panajachel	8	Panajachel	10	Octubre	2023-10-28T00:00:00	2024-11-08T06:00:00	1	Precipitación	0
68844	7	Sololá	710	Panajachel	8	Panajachel	10	Octubre	2023-10-28T00:00:00	2024-11-08T06:00:00	8	Radiación solar	0
68845	7	Sololá	710	Panajachel	8	Panajachel	10	Octubre	2023-10-28T00:00:00	2024-11-08T07:00:00	2	Temperatura media	19.5
68846	7	Sololá	710	Panajachel	8	Panajachel	10	Octubre	2023-10-28T00:00:00	2024-11-08T07:00:00	4	Temperatura máxima	19.5
68847	7	Sololá	710	Panajachel	8	Panajachel	10	Octubre	2023-10-28T00:00:00	2024-11-08T07:00:00	3	Temperatura mínima	18.8
68848	7	Sololá	710	Panajachel	8	Panajachel	10	Octubre	2023-10-28T00:00:00	2024-11-08T07:00:00	5	Humedad	73
68849	7	Sololá	710	Panajachel	8	Panajachel	10	Octubre	2023-10-28T00:00:00	2024-11-08T07:00:00	6	Velocidad del viento	1.6
68850	7	Sololá	710	Panajachel	8	Panajachel	10	Octubre	2023-10-28T00:00:00	2024-11-08T07:00:00	7	Dirección del viento	1.61
68851	7	Sololá	710	Panajachel	8	Panajachel	10	Octubre	2023-10-28T00:00:00	2024-11-08T07:00:00	1	Precipitación	0
68852	7	Sololá	710	Panajachel	8	Panajachel	10	Octubre	2023-10-28T00:00:00	2024-11-08T07:00:00	8	Radiación solar	42
68853	7	Sololá	710	Panajachel	8	Panajachel	10	Octubre	2023-10-28T00:00:00	2024-11-08T08:00:00	2	Temperatura media	20.9
68854	7	Sololá	710	Panajachel	8	Panajachel	10	Octubre	2023-10-28T00:00:00	2024-11-08T08:00:00	4	Temperatura máxima	20.9
68855	7	Sololá	710	Panajachel	8	Panajachel	10	Octubre	2023-10-28T00:00:00	2024-11-08T08:00:00	3	Temperatura mínima	19.5
68856	7	Sololá	710	Panajachel	8	Panajachel	10	Octubre	2023-10-28T00:00:00	2024-11-08T08:00:00	5	Humedad	70
68857	7	Sololá	710	Panajachel	8	Panajachel	10	Octubre	2023-10-28T00:00:00	2024-11-08T08:00:00	6	Velocidad del viento	3.2
68858	7	Sololá	710	Panajachel	8	Panajachel	10	Octubre	2023-10-28T00:00:00	2024-11-08T08:00:00	7	Dirección del viento	3.22
68859	7	Sololá	710	Panajachel	8	Panajachel	10	Octubre	2023-10-28T00:00:00	2024-11-08T08:00:00	1	Precipitación	0
68860	7	Sololá	710	Panajachel	8	Panajachel	10	Octubre	2023-10-28T00:00:00	2024-11-08T08:00:00	8	Radiación solar	285
68861	7	Sololá	710	Panajachel	8	Panajachel	10	Octubre	2023-10-28T00:00:00	2024-11-08T09:00:00	2	Temperatura media	22.6
68862	7	Sololá	710	Panajachel	8	Panajachel	10	Octubre	2023-10-28T00:00:00	2024-11-08T09:00:00	4	Temperatura máxima	22.6
68863	7	Sololá	710	Panajachel	8	Panajachel	10	Octubre	2023-10-28T00:00:00	2024-11-08T09:00:00	3	Temperatura mínima	20.9
68864	7	Sololá	710	Panajachel	8	Panajachel	10	Octubre	2023-10-28T00:00:00	2024-11-08T09:00:00	5	Humedad	68
68865	7	Sololá	710	Panajachel	8	Panajachel	10	Octubre	2023-10-28T00:00:00	2024-11-08T09:00:00	6	Velocidad del viento	4.8
68866	7	Sololá	710	Panajachel	8	Panajachel	10	Octubre	2023-10-28T00:00:00	2024-11-08T09:00:00	7	Dirección del viento	4.83
68867	7	Sololá	710	Panajachel	8	Panajachel	10	Octubre	2023-10-28T00:00:00	2024-11-08T09:00:00	1	Precipitación	0
68868	7	Sololá	710	Panajachel	8	Panajachel	10	Octubre	2023-10-28T00:00:00	2024-11-08T09:00:00	8	Radiación solar	514
68869	7	Sololá	710	Panajachel	8	Panajachel	10	Octubre	2023-10-28T00:00:00	2024-11-08T10:00:00	2	Temperatura media	23.7
68870	7	Sololá	710	Panajachel	8	Panajachel	10	Octubre	2023-10-28T00:00:00	2024-11-08T10:00:00	4	Temperatura máxima	23.7
68871	7	Sololá	710	Panajachel	8	Panajachel	10	Octubre	2023-10-28T00:00:00	2024-11-08T10:00:00	3	Temperatura mínima	22.6
68872	7	Sololá	710	Panajachel	8	Panajachel	10	Octubre	2023-10-28T00:00:00	2024-11-08T10:00:00	5	Humedad	66
68873	7	Sololá	710	Panajachel	8	Panajachel	10	Octubre	2023-10-28T00:00:00	2024-11-08T10:00:00	6	Velocidad del viento	3.2
68874	7	Sololá	710	Panajachel	8	Panajachel	10	Octubre	2023-10-28T00:00:00	2024-11-08T10:00:00	7	Dirección del viento	3.22
68875	7	Sololá	710	Panajachel	8	Panajachel	10	Octubre	2023-10-28T00:00:00	2024-11-08T10:00:00	1	Precipitación	0
68876	7	Sololá	710	Panajachel	8	Panajachel	10	Octubre	2023-10-28T00:00:00	2024-11-08T10:00:00	8	Radiación solar	715
68877	7	Sololá	710	Panajachel	8	Panajachel	10	Octubre	2023-10-28T00:00:00	2024-11-08T11:00:00	2	Temperatura media	23.3
68878	7	Sololá	710	Panajachel	8	Panajachel	10	Octubre	2023-10-28T00:00:00	2024-11-08T11:00:00	4	Temperatura máxima	23.8
68879	7	Sololá	710	Panajachel	8	Panajachel	10	Octubre	2023-10-28T00:00:00	2024-11-08T11:00:00	3	Temperatura mínima	23.1
68880	7	Sololá	710	Panajachel	8	Panajachel	10	Octubre	2023-10-28T00:00:00	2024-11-08T11:00:00	5	Humedad	69
68881	7	Sololá	710	Panajachel	8	Panajachel	10	Octubre	2023-10-28T00:00:00	2024-11-08T11:00:00	6	Velocidad del viento	6.4
68882	7	Sololá	710	Panajachel	8	Panajachel	10	Octubre	2023-10-28T00:00:00	2024-11-08T11:00:00	7	Dirección del viento	6.44
68883	7	Sololá	710	Panajachel	8	Panajachel	10	Octubre	2023-10-28T00:00:00	2024-11-08T11:00:00	1	Precipitación	0
68884	7	Sololá	710	Panajachel	8	Panajachel	10	Octubre	2023-10-28T00:00:00	2024-11-08T11:00:00	8	Radiación solar	691
68885	7	Sololá	710	Panajachel	8	Panajachel	10	Octubre	2023-10-28T00:00:00	2024-11-08T12:00:00	2	Temperatura media	24.3
68886	7	Sololá	710	Panajachel	8	Panajachel	10	Octubre	2023-10-28T00:00:00	2024-11-08T12:00:00	4	Temperatura máxima	24.3
68887	7	Sololá	710	Panajachel	8	Panajachel	10	Octubre	2023-10-28T00:00:00	2024-11-08T12:00:00	3	Temperatura mínima	22.8
68888	7	Sololá	710	Panajachel	8	Panajachel	10	Octubre	2023-10-28T00:00:00	2024-11-08T12:00:00	5	Humedad	65
68889	7	Sololá	710	Panajachel	8	Panajachel	10	Octubre	2023-10-28T00:00:00	2024-11-08T12:00:00	6	Velocidad del viento	9.7
68890	7	Sololá	710	Panajachel	8	Panajachel	10	Octubre	2023-10-28T00:00:00	2024-11-08T12:00:00	7	Dirección del viento	9.66
68891	7	Sololá	710	Panajachel	8	Panajachel	10	Octubre	2023-10-28T00:00:00	2024-11-08T12:00:00	1	Precipitación	0
68892	7	Sololá	710	Panajachel	8	Panajachel	10	Octubre	2023-10-28T00:00:00	2024-11-08T12:00:00	8	Radiación solar	800
68893	7	Sololá	710	Panajachel	8	Panajachel	10	Octubre	2023-10-28T00:00:00	2024-11-08T13:00:00	2	Temperatura media	24.3
68894	7	Sololá	710	Panajachel	8	Panajachel	10	Octubre	2023-10-28T00:00:00	2024-11-08T13:00:00	4	Temperatura máxima	25
68895	7	Sololá	710	Panajachel	8	Panajachel	10	Octubre	2023-10-28T00:00:00	2024-11-08T13:00:00	3	Temperatura mínima	24.1
68896	7	Sololá	710	Panajachel	8	Panajachel	10	Octubre	2023-10-28T00:00:00	2024-11-08T13:00:00	5	Humedad	64
68897	7	Sololá	710	Panajachel	8	Panajachel	10	Octubre	2023-10-28T00:00:00	2024-11-08T13:00:00	6	Velocidad del viento	8
68898	7	Sololá	710	Panajachel	8	Panajachel	10	Octubre	2023-10-28T00:00:00	2024-11-08T13:00:00	7	Dirección del viento	8.05
68899	7	Sololá	710	Panajachel	8	Panajachel	10	Octubre	2023-10-28T00:00:00	2024-11-08T13:00:00	1	Precipitación	0
68900	7	Sololá	710	Panajachel	8	Panajachel	10	Octubre	2023-10-28T00:00:00	2024-11-08T13:00:00	8	Radiación solar	830
68901	7	Sololá	710	Panajachel	8	Panajachel	10	Octubre	2023-10-28T00:00:00	2024-11-08T14:00:00	2	Temperatura media	23.9
68902	7	Sololá	710	Panajachel	8	Panajachel	10	Octubre	2023-10-28T00:00:00	2024-11-08T14:00:00	4	Temperatura máxima	24.7
68903	7	Sololá	710	Panajachel	8	Panajachel	10	Octubre	2023-10-28T00:00:00	2024-11-08T14:00:00	3	Temperatura mínima	23.9
68904	7	Sololá	710	Panajachel	8	Panajachel	10	Octubre	2023-10-28T00:00:00	2024-11-08T14:00:00	5	Humedad	66
68905	7	Sololá	710	Panajachel	8	Panajachel	10	Octubre	2023-10-28T00:00:00	2024-11-08T14:00:00	6	Velocidad del viento	6.4
68906	7	Sololá	710	Panajachel	8	Panajachel	10	Octubre	2023-10-28T00:00:00	2024-11-08T14:00:00	7	Dirección del viento	6.44
68907	7	Sololá	710	Panajachel	8	Panajachel	10	Octubre	2023-10-28T00:00:00	2024-11-08T14:00:00	1	Precipitación	0
68908	7	Sololá	710	Panajachel	8	Panajachel	10	Octubre	2023-10-28T00:00:00	2024-11-08T14:00:00	8	Radiación solar	307
68909	7	Sololá	710	Panajachel	8	Panajachel	10	Octubre	2023-10-28T00:00:00	2024-11-08T15:00:00	2	Temperatura media	25.4
68910	7	Sololá	710	Panajachel	8	Panajachel	10	Octubre	2023-10-28T00:00:00	2024-11-08T15:00:00	4	Temperatura máxima	25.7
68911	7	Sololá	710	Panajachel	8	Panajachel	10	Octubre	2023-10-28T00:00:00	2024-11-08T15:00:00	3	Temperatura mínima	23.9
68912	7	Sololá	710	Panajachel	8	Panajachel	10	Octubre	2023-10-28T00:00:00	2024-11-08T15:00:00	5	Humedad	62
68913	7	Sololá	710	Panajachel	8	Panajachel	10	Octubre	2023-10-28T00:00:00	2024-11-08T15:00:00	6	Velocidad del viento	6.4
68914	7	Sololá	710	Panajachel	8	Panajachel	10	Octubre	2023-10-28T00:00:00	2024-11-08T15:00:00	7	Dirección del viento	6.44
68915	7	Sololá	710	Panajachel	8	Panajachel	10	Octubre	2023-10-28T00:00:00	2024-11-08T15:00:00	1	Precipitación	0
68916	7	Sololá	710	Panajachel	8	Panajachel	10	Octubre	2023-10-28T00:00:00	2024-11-08T15:00:00	8	Radiación solar	500
68917	7	Sololá	710	Panajachel	8	Panajachel	10	Octubre	2023-10-28T00:00:00	2024-11-08T16:00:00	2	Temperatura media	23.4
68918	7	Sololá	710	Panajachel	8	Panajachel	10	Octubre	2023-10-28T00:00:00	2024-11-08T16:00:00	4	Temperatura máxima	25.7
68919	7	Sololá	710	Panajachel	8	Panajachel	10	Octubre	2023-10-28T00:00:00	2024-11-08T16:00:00	3	Temperatura mínima	23.4
68920	7	Sololá	710	Panajachel	8	Panajachel	10	Octubre	2023-10-28T00:00:00	2024-11-08T16:00:00	5	Humedad	69
68921	7	Sololá	710	Panajachel	8	Panajachel	10	Octubre	2023-10-28T00:00:00	2024-11-08T16:00:00	6	Velocidad del viento	6.4
68922	7	Sololá	710	Panajachel	8	Panajachel	10	Octubre	2023-10-28T00:00:00	2024-11-08T16:00:00	7	Dirección del viento	6.44
68923	7	Sololá	710	Panajachel	8	Panajachel	10	Octubre	2023-10-28T00:00:00	2024-11-08T16:00:00	1	Precipitación	0
68924	7	Sololá	710	Panajachel	8	Panajachel	10	Octubre	2023-10-28T00:00:00	2024-11-08T16:00:00	8	Radiación solar	245
68925	7	Sololá	710	Panajachel	8	Panajachel	10	Octubre	2023-10-28T00:00:00	2024-11-08T17:00:00	2	Temperatura media	21.8
68926	7	Sololá	710	Panajachel	8	Panajachel	10	Octubre	2023-10-28T00:00:00	2024-11-08T17:00:00	4	Temperatura máxima	23.5
68927	7	Sololá	710	Panajachel	8	Panajachel	10	Octubre	2023-10-28T00:00:00	2024-11-08T17:00:00	3	Temperatura mínima	21.8
68928	7	Sololá	710	Panajachel	8	Panajachel	10	Octubre	2023-10-28T00:00:00	2024-11-08T17:00:00	5	Humedad	73
68929	7	Sololá	710	Panajachel	8	Panajachel	10	Octubre	2023-10-28T00:00:00	2024-11-08T17:00:00	6	Velocidad del viento	8
68930	7	Sololá	710	Panajachel	8	Panajachel	10	Octubre	2023-10-28T00:00:00	2024-11-08T17:00:00	7	Dirección del viento	8.05
68931	7	Sololá	710	Panajachel	8	Panajachel	10	Octubre	2023-10-28T00:00:00	2024-11-08T17:00:00	1	Precipitación	0
68932	7	Sololá	710	Panajachel	8	Panajachel	10	Octubre	2023-10-28T00:00:00	2024-11-08T17:00:00	8	Radiación solar	41
68933	7	Sololá	710	Panajachel	8	Panajachel	10	Octubre	2023-10-28T00:00:00	2024-11-08T18:00:00	2	Temperatura media	21.3
68934	7	Sololá	710	Panajachel	8	Panajachel	10	Octubre	2023-10-28T00:00:00	2024-11-08T18:00:00	4	Temperatura máxima	21.8
68935	7	Sololá	710	Panajachel	8	Panajachel	10	Octubre	2023-10-28T00:00:00	2024-11-08T18:00:00	3	Temperatura mínima	21.3
68936	7	Sololá	710	Panajachel	8	Panajachel	10	Octubre	2023-10-28T00:00:00	2024-11-08T18:00:00	5	Humedad	74
68937	7	Sololá	710	Panajachel	8	Panajachel	10	Octubre	2023-10-28T00:00:00	2024-11-08T18:00:00	6	Velocidad del viento	4.8
68938	7	Sololá	710	Panajachel	8	Panajachel	10	Octubre	2023-10-28T00:00:00	2024-11-08T18:00:00	7	Dirección del viento	4.83
68939	7	Sololá	710	Panajachel	8	Panajachel	10	Octubre	2023-10-28T00:00:00	2024-11-08T18:00:00	1	Precipitación	0
68940	7	Sololá	710	Panajachel	8	Panajachel	10	Octubre	2023-10-28T00:00:00	2024-11-08T18:00:00	8	Radiación solar	9
68941	7	Sololá	710	Panajachel	8	Panajachel	10	Octubre	2023-10-28T00:00:00	2024-11-08T19:00:00	2	Temperatura media	21.3
68942	7	Sololá	710	Panajachel	8	Panajachel	10	Octubre	2023-10-28T00:00:00	2024-11-08T19:00:00	4	Temperatura máxima	21.3
68943	7	Sololá	710	Panajachel	8	Panajachel	10	Octubre	2023-10-28T00:00:00	2024-11-08T19:00:00	3	Temperatura mínima	21.1
68944	7	Sololá	710	Panajachel	8	Panajachel	10	Octubre	2023-10-28T00:00:00	2024-11-08T19:00:00	5	Humedad	74
68945	7	Sololá	710	Panajachel	8	Panajachel	10	Octubre	2023-10-28T00:00:00	2024-11-08T19:00:00	6	Velocidad del viento	4.8
68946	7	Sololá	710	Panajachel	8	Panajachel	10	Octubre	2023-10-28T00:00:00	2024-11-08T19:00:00	7	Dirección del viento	4.83
68947	7	Sololá	710	Panajachel	8	Panajachel	10	Octubre	2023-10-28T00:00:00	2024-11-08T19:00:00	1	Precipitación	0
68948	7	Sololá	710	Panajachel	8	Panajachel	10	Octubre	2023-10-28T00:00:00	2024-11-08T19:00:00	8	Radiación solar	0
68949	7	Sololá	710	Panajachel	8	Panajachel	10	Octubre	2023-10-28T00:00:00	2024-11-08T20:00:00	2	Temperatura media	20.7
68950	7	Sololá	710	Panajachel	8	Panajachel	10	Octubre	2023-10-28T00:00:00	2024-11-08T20:00:00	4	Temperatura máxima	21.4
68951	7	Sololá	710	Panajachel	8	Panajachel	10	Octubre	2023-10-28T00:00:00	2024-11-08T20:00:00	3	Temperatura mínima	20.7
68952	7	Sololá	710	Panajachel	8	Panajachel	10	Octubre	2023-10-28T00:00:00	2024-11-08T20:00:00	5	Humedad	78
68953	7	Sololá	710	Panajachel	8	Panajachel	10	Octubre	2023-10-28T00:00:00	2024-11-08T20:00:00	6	Velocidad del viento	0
68954	7	Sololá	710	Panajachel	8	Panajachel	10	Octubre	2023-10-28T00:00:00	2024-11-08T20:00:00	7	Dirección del viento	0
68955	7	Sololá	710	Panajachel	8	Panajachel	10	Octubre	2023-10-28T00:00:00	2024-11-08T20:00:00	1	Precipitación	0
68956	7	Sololá	710	Panajachel	8	Panajachel	10	Octubre	2023-10-28T00:00:00	2024-11-08T20:00:00	8	Radiación solar	0
68957	7	Sololá	710	Panajachel	8	Panajachel	10	Octubre	2023-10-28T00:00:00	2024-11-08T21:00:00	2	Temperatura media	20.2
68958	7	Sololá	710	Panajachel	8	Panajachel	10	Octubre	2023-10-28T00:00:00	2024-11-08T21:00:00	4	Temperatura máxima	20.7
68959	7	Sololá	710	Panajachel	8	Panajachel	10	Octubre	2023-10-28T00:00:00	2024-11-08T21:00:00	3	Temperatura mínima	20.2
68960	7	Sololá	710	Panajachel	8	Panajachel	10	Octubre	2023-10-28T00:00:00	2024-11-08T21:00:00	5	Humedad	83
68961	7	Sololá	710	Panajachel	8	Panajachel	10	Octubre	2023-10-28T00:00:00	2024-11-08T21:00:00	6	Velocidad del viento	0
68962	7	Sololá	710	Panajachel	8	Panajachel	10	Octubre	2023-10-28T00:00:00	2024-11-08T21:00:00	7	Dirección del viento	0
68963	7	Sololá	710	Panajachel	8	Panajachel	10	Octubre	2023-10-28T00:00:00	2024-11-08T21:00:00	1	Precipitación	0
68964	7	Sololá	710	Panajachel	8	Panajachel	10	Octubre	2023-10-28T00:00:00	2024-11-08T21:00:00	8	Radiación solar	0
68965	7	Sololá	710	Panajachel	8	Panajachel	10	Octubre	2023-10-28T00:00:00	2024-11-08T22:00:00	2	Temperatura media	20.9
68966	7	Sololá	710	Panajachel	8	Panajachel	10	Octubre	2023-10-28T00:00:00	2024-11-08T22:00:00	4	Temperatura máxima	21.1
68967	7	Sololá	710	Panajachel	8	Panajachel	10	Octubre	2023-10-28T00:00:00	2024-11-08T22:00:00	3	Temperatura mínima	19.9
68968	7	Sololá	710	Panajachel	8	Panajachel	10	Octubre	2023-10-28T00:00:00	2024-11-08T22:00:00	5	Humedad	75
68969	7	Sololá	710	Panajachel	8	Panajachel	10	Octubre	2023-10-28T00:00:00	2024-11-08T22:00:00	6	Velocidad del viento	1.6
68970	7	Sololá	710	Panajachel	8	Panajachel	10	Octubre	2023-10-28T00:00:00	2024-11-08T22:00:00	7	Dirección del viento	1.61
68971	7	Sololá	710	Panajachel	8	Panajachel	10	Octubre	2023-10-28T00:00:00	2024-11-08T22:00:00	1	Precipitación	0
68972	7	Sololá	710	Panajachel	8	Panajachel	10	Octubre	2023-10-28T00:00:00	2024-11-08T22:00:00	8	Radiación solar	0
68973	7	Sololá	710	Panajachel	8	Panajachel	10	Octubre	2023-10-28T00:00:00	2024-11-08T23:00:00	2	Temperatura media	20.4
68974	7	Sololá	710	Panajachel	8	Panajachel	10	Octubre	2023-10-28T00:00:00	2024-11-08T23:00:00	4	Temperatura máxima	20.9
68975	7	Sololá	710	Panajachel	8	Panajachel	10	Octubre	2023-10-28T00:00:00	2024-11-08T23:00:00	3	Temperatura mínima	20.4
68976	7	Sololá	710	Panajachel	8	Panajachel	10	Octubre	2023-10-28T00:00:00	2024-11-08T23:00:00	5	Humedad	77
68977	7	Sololá	710	Panajachel	8	Panajachel	10	Octubre	2023-10-28T00:00:00	2024-11-08T23:00:00	6	Velocidad del viento	1.6
68978	7	Sololá	710	Panajachel	8	Panajachel	10	Octubre	2023-10-28T00:00:00	2024-11-08T23:00:00	7	Dirección del viento	1.61
68979	7	Sololá	710	Panajachel	8	Panajachel	10	Octubre	2023-10-28T00:00:00	2024-11-08T23:00:00	1	Precipitación	0
68980	7	Sololá	710	Panajachel	8	Panajachel	10	Octubre	2023-10-28T00:00:00	2024-11-08T23:00:00	8	Radiación solar	0
68981	7	Sololá	710	Panajachel	8	Panajachel	10	Octubre	2023-10-29T00:00:00	2024-11-08T00:00:00	2	Temperatura media	19.8
68982	7	Sololá	710	Panajachel	8	Panajachel	10	Octubre	2023-10-29T00:00:00	2024-11-08T00:00:00	4	Temperatura máxima	20.4
68983	7	Sololá	710	Panajachel	8	Panajachel	10	Octubre	2023-10-29T00:00:00	2024-11-08T00:00:00	3	Temperatura mínima	19.8
68984	7	Sololá	710	Panajachel	8	Panajachel	10	Octubre	2023-10-29T00:00:00	2024-11-08T00:00:00	5	Humedad	80
68985	7	Sololá	710	Panajachel	8	Panajachel	10	Octubre	2023-10-29T00:00:00	2024-11-08T00:00:00	6	Velocidad del viento	0
68986	7	Sololá	710	Panajachel	8	Panajachel	10	Octubre	2023-10-29T00:00:00	2024-11-08T00:00:00	7	Dirección del viento	0
68987	7	Sololá	710	Panajachel	8	Panajachel	10	Octubre	2023-10-29T00:00:00	2024-11-08T00:00:00	1	Precipitación	0
68988	7	Sololá	710	Panajachel	8	Panajachel	10	Octubre	2023-10-29T00:00:00	2024-11-08T00:00:00	8	Radiación solar	0
68989	7	Sololá	710	Panajachel	8	Panajachel	10	Octubre	2023-10-29T00:00:00	2024-11-08T01:00:00	2	Temperatura media	18.2
68990	7	Sololá	710	Panajachel	8	Panajachel	10	Octubre	2023-10-29T00:00:00	2024-11-08T01:00:00	4	Temperatura máxima	19.8
68991	7	Sololá	710	Panajachel	8	Panajachel	10	Octubre	2023-10-29T00:00:00	2024-11-08T01:00:00	3	Temperatura mínima	18.2
68992	7	Sololá	710	Panajachel	8	Panajachel	10	Octubre	2023-10-29T00:00:00	2024-11-08T01:00:00	5	Humedad	85
68993	7	Sololá	710	Panajachel	8	Panajachel	10	Octubre	2023-10-29T00:00:00	2024-11-08T01:00:00	6	Velocidad del viento	0
68994	7	Sololá	710	Panajachel	8	Panajachel	10	Octubre	2023-10-29T00:00:00	2024-11-08T01:00:00	7	Dirección del viento	0
68995	7	Sololá	710	Panajachel	8	Panajachel	10	Octubre	2023-10-29T00:00:00	2024-11-08T01:00:00	1	Precipitación	0
68996	7	Sololá	710	Panajachel	8	Panajachel	10	Octubre	2023-10-29T00:00:00	2024-11-08T01:00:00	8	Radiación solar	0
68997	7	Sololá	710	Panajachel	8	Panajachel	10	Octubre	2023-10-29T00:00:00	2024-11-08T02:00:00	2	Temperatura media	17.7
68998	7	Sololá	710	Panajachel	8	Panajachel	10	Octubre	2023-10-29T00:00:00	2024-11-08T02:00:00	4	Temperatura máxima	18.2
68999	7	Sololá	710	Panajachel	8	Panajachel	10	Octubre	2023-10-29T00:00:00	2024-11-08T02:00:00	3	Temperatura mínima	17.6
69000	7	Sololá	710	Panajachel	8	Panajachel	10	Octubre	2023-10-29T00:00:00	2024-11-08T02:00:00	5	Humedad	86
69001	7	Sololá	710	Panajachel	8	Panajachel	10	Octubre	2023-10-29T00:00:00	2024-11-08T02:00:00	6	Velocidad del viento	0
69002	7	Sololá	710	Panajachel	8	Panajachel	10	Octubre	2023-10-29T00:00:00	2024-11-08T02:00:00	7	Dirección del viento	0
69003	7	Sololá	710	Panajachel	8	Panajachel	10	Octubre	2023-10-29T00:00:00	2024-11-08T02:00:00	1	Precipitación	0
69004	7	Sololá	710	Panajachel	8	Panajachel	10	Octubre	2023-10-29T00:00:00	2024-11-08T02:00:00	8	Radiación solar	0
69005	7	Sololá	710	Panajachel	8	Panajachel	10	Octubre	2023-10-29T00:00:00	2024-11-08T03:00:00	2	Temperatura media	18.2
69006	7	Sololá	710	Panajachel	8	Panajachel	10	Octubre	2023-10-29T00:00:00	2024-11-08T03:00:00	4	Temperatura máxima	18.2
69007	7	Sololá	710	Panajachel	8	Panajachel	10	Octubre	2023-10-29T00:00:00	2024-11-08T03:00:00	3	Temperatura mínima	17.7
69008	7	Sololá	710	Panajachel	8	Panajachel	10	Octubre	2023-10-29T00:00:00	2024-11-08T03:00:00	5	Humedad	85
69009	7	Sololá	710	Panajachel	8	Panajachel	10	Octubre	2023-10-29T00:00:00	2024-11-08T03:00:00	6	Velocidad del viento	0
69010	7	Sololá	710	Panajachel	8	Panajachel	10	Octubre	2023-10-29T00:00:00	2024-11-08T03:00:00	7	Dirección del viento	0
69011	7	Sololá	710	Panajachel	8	Panajachel	10	Octubre	2023-10-29T00:00:00	2024-11-08T03:00:00	1	Precipitación	0
69012	7	Sololá	710	Panajachel	8	Panajachel	10	Octubre	2023-10-29T00:00:00	2024-11-08T03:00:00	8	Radiación solar	0
69013	7	Sololá	710	Panajachel	8	Panajachel	10	Octubre	2023-10-29T00:00:00	2024-11-08T04:00:00	2	Temperatura media	17.4
69014	7	Sololá	710	Panajachel	8	Panajachel	10	Octubre	2023-10-29T00:00:00	2024-11-08T04:00:00	4	Temperatura máxima	18.2
69015	7	Sololá	710	Panajachel	8	Panajachel	10	Octubre	2023-10-29T00:00:00	2024-11-08T04:00:00	3	Temperatura mínima	17.3
69016	7	Sololá	710	Panajachel	8	Panajachel	10	Octubre	2023-10-29T00:00:00	2024-11-08T04:00:00	5	Humedad	87
69017	7	Sololá	710	Panajachel	8	Panajachel	10	Octubre	2023-10-29T00:00:00	2024-11-08T04:00:00	6	Velocidad del viento	0
69018	7	Sololá	710	Panajachel	8	Panajachel	10	Octubre	2023-10-29T00:00:00	2024-11-08T04:00:00	7	Dirección del viento	0
69019	7	Sololá	710	Panajachel	8	Panajachel	10	Octubre	2023-10-29T00:00:00	2024-11-08T04:00:00	1	Precipitación	0
69020	7	Sololá	710	Panajachel	8	Panajachel	10	Octubre	2023-10-29T00:00:00	2024-11-08T04:00:00	8	Radiación solar	0
69021	7	Sololá	710	Panajachel	8	Panajachel	10	Octubre	2023-10-29T00:00:00	2024-11-08T05:00:00	2	Temperatura media	17.3
69022	7	Sololá	710	Panajachel	8	Panajachel	10	Octubre	2023-10-29T00:00:00	2024-11-08T05:00:00	4	Temperatura máxima	17.6
69023	7	Sololá	710	Panajachel	8	Panajachel	10	Octubre	2023-10-29T00:00:00	2024-11-08T05:00:00	3	Temperatura mínima	17.1
69024	7	Sololá	710	Panajachel	8	Panajachel	10	Octubre	2023-10-29T00:00:00	2024-11-08T05:00:00	5	Humedad	88
69025	7	Sololá	710	Panajachel	8	Panajachel	10	Octubre	2023-10-29T00:00:00	2024-11-08T05:00:00	6	Velocidad del viento	0
69026	7	Sololá	710	Panajachel	8	Panajachel	10	Octubre	2023-10-29T00:00:00	2024-11-08T05:00:00	7	Dirección del viento	0
69027	7	Sololá	710	Panajachel	8	Panajachel	10	Octubre	2023-10-29T00:00:00	2024-11-08T05:00:00	1	Precipitación	0
69028	7	Sololá	710	Panajachel	8	Panajachel	10	Octubre	2023-10-29T00:00:00	2024-11-08T05:00:00	8	Radiación solar	0
69029	7	Sololá	710	Panajachel	8	Panajachel	10	Octubre	2023-10-29T00:00:00	2024-11-08T06:00:00	2	Temperatura media	19.5
69030	7	Sololá	710	Panajachel	8	Panajachel	10	Octubre	2023-10-29T00:00:00	2024-11-08T06:00:00	4	Temperatura máxima	19.6
69031	7	Sololá	710	Panajachel	8	Panajachel	10	Octubre	2023-10-29T00:00:00	2024-11-08T06:00:00	3	Temperatura mínima	16.9
69032	7	Sololá	710	Panajachel	8	Panajachel	10	Octubre	2023-10-29T00:00:00	2024-11-08T06:00:00	5	Humedad	78
69033	7	Sololá	710	Panajachel	8	Panajachel	10	Octubre	2023-10-29T00:00:00	2024-11-08T06:00:00	6	Velocidad del viento	3.2
69034	7	Sololá	710	Panajachel	8	Panajachel	10	Octubre	2023-10-29T00:00:00	2024-11-08T06:00:00	7	Dirección del viento	3.22
69035	7	Sololá	710	Panajachel	8	Panajachel	10	Octubre	2023-10-29T00:00:00	2024-11-08T06:00:00	1	Precipitación	0
69036	7	Sololá	710	Panajachel	8	Panajachel	10	Octubre	2023-10-29T00:00:00	2024-11-08T06:00:00	8	Radiación solar	0
69037	7	Sololá	710	Panajachel	8	Panajachel	10	Octubre	2023-10-29T00:00:00	2024-11-08T07:00:00	2	Temperatura media	20.8
69038	7	Sololá	710	Panajachel	8	Panajachel	10	Octubre	2023-10-29T00:00:00	2024-11-08T07:00:00	4	Temperatura máxima	20.8
69039	7	Sololá	710	Panajachel	8	Panajachel	10	Octubre	2023-10-29T00:00:00	2024-11-08T07:00:00	3	Temperatura mínima	19.5
69040	7	Sololá	710	Panajachel	8	Panajachel	10	Octubre	2023-10-29T00:00:00	2024-11-08T07:00:00	5	Humedad	74
69041	7	Sololá	710	Panajachel	8	Panajachel	10	Octubre	2023-10-29T00:00:00	2024-11-08T07:00:00	6	Velocidad del viento	3.2
69042	7	Sololá	710	Panajachel	8	Panajachel	10	Octubre	2023-10-29T00:00:00	2024-11-08T07:00:00	7	Dirección del viento	3.22
69043	7	Sololá	710	Panajachel	8	Panajachel	10	Octubre	2023-10-29T00:00:00	2024-11-08T07:00:00	1	Precipitación	0
69044	7	Sololá	710	Panajachel	8	Panajachel	10	Octubre	2023-10-29T00:00:00	2024-11-08T07:00:00	8	Radiación solar	61
69045	7	Sololá	710	Panajachel	8	Panajachel	10	Octubre	2023-10-29T00:00:00	2024-11-08T08:00:00	2	Temperatura media	21.8
69046	7	Sololá	710	Panajachel	8	Panajachel	10	Octubre	2023-10-29T00:00:00	2024-11-08T08:00:00	4	Temperatura máxima	21.8
69047	7	Sololá	710	Panajachel	8	Panajachel	10	Octubre	2023-10-29T00:00:00	2024-11-08T08:00:00	3	Temperatura mínima	20.7
69048	7	Sololá	710	Panajachel	8	Panajachel	10	Octubre	2023-10-29T00:00:00	2024-11-08T08:00:00	5	Humedad	72
69049	7	Sololá	710	Panajachel	8	Panajachel	10	Octubre	2023-10-29T00:00:00	2024-11-08T08:00:00	6	Velocidad del viento	0
69050	7	Sololá	710	Panajachel	8	Panajachel	10	Octubre	2023-10-29T00:00:00	2024-11-08T08:00:00	7	Dirección del viento	0
69051	7	Sololá	710	Panajachel	8	Panajachel	10	Octubre	2023-10-29T00:00:00	2024-11-08T08:00:00	1	Precipitación	0
69052	7	Sololá	710	Panajachel	8	Panajachel	10	Octubre	2023-10-29T00:00:00	2024-11-08T08:00:00	8	Radiación solar	239
69053	7	Sololá	710	Panajachel	8	Panajachel	10	Octubre	2023-10-29T00:00:00	2024-11-08T09:00:00	2	Temperatura media	22.6
69054	7	Sololá	710	Panajachel	8	Panajachel	10	Octubre	2023-10-29T00:00:00	2024-11-08T09:00:00	4	Temperatura máxima	22.6
69055	7	Sololá	710	Panajachel	8	Panajachel	10	Octubre	2023-10-29T00:00:00	2024-11-08T09:00:00	3	Temperatura mínima	21.7
69056	7	Sololá	710	Panajachel	8	Panajachel	10	Octubre	2023-10-29T00:00:00	2024-11-08T09:00:00	5	Humedad	71
69057	7	Sololá	710	Panajachel	8	Panajachel	10	Octubre	2023-10-29T00:00:00	2024-11-08T09:00:00	6	Velocidad del viento	0
69058	7	Sololá	710	Panajachel	8	Panajachel	10	Octubre	2023-10-29T00:00:00	2024-11-08T09:00:00	7	Dirección del viento	0
69059	7	Sololá	710	Panajachel	8	Panajachel	10	Octubre	2023-10-29T00:00:00	2024-11-08T09:00:00	1	Precipitación	0
69060	7	Sololá	710	Panajachel	8	Panajachel	10	Octubre	2023-10-29T00:00:00	2024-11-08T09:00:00	8	Radiación solar	261
69061	7	Sololá	710	Panajachel	8	Panajachel	10	Octubre	2023-10-29T00:00:00	2024-11-08T10:00:00	2	Temperatura media	24.1
69062	7	Sololá	710	Panajachel	8	Panajachel	10	Octubre	2023-10-29T00:00:00	2024-11-08T10:00:00	4	Temperatura máxima	24.2
69063	7	Sololá	710	Panajachel	8	Panajachel	10	Octubre	2023-10-29T00:00:00	2024-11-08T10:00:00	3	Temperatura mínima	22.5
69064	7	Sololá	710	Panajachel	8	Panajachel	10	Octubre	2023-10-29T00:00:00	2024-11-08T10:00:00	5	Humedad	65
69065	7	Sololá	710	Panajachel	8	Panajachel	10	Octubre	2023-10-29T00:00:00	2024-11-08T10:00:00	6	Velocidad del viento	1.6
69066	7	Sololá	710	Panajachel	8	Panajachel	10	Octubre	2023-10-29T00:00:00	2024-11-08T10:00:00	7	Dirección del viento	1.61
69067	7	Sololá	710	Panajachel	8	Panajachel	10	Octubre	2023-10-29T00:00:00	2024-11-08T10:00:00	1	Precipitación	0
69068	7	Sololá	710	Panajachel	8	Panajachel	10	Octubre	2023-10-29T00:00:00	2024-11-08T10:00:00	8	Radiación solar	371
69069	7	Sololá	710	Panajachel	8	Panajachel	10	Octubre	2023-10-29T00:00:00	2024-11-08T11:00:00	2	Temperatura media	24.5
69070	7	Sololá	710	Panajachel	8	Panajachel	10	Octubre	2023-10-29T00:00:00	2024-11-08T11:00:00	4	Temperatura máxima	25.2
69071	7	Sololá	710	Panajachel	8	Panajachel	10	Octubre	2023-10-29T00:00:00	2024-11-08T11:00:00	3	Temperatura mínima	24.1
69072	7	Sololá	710	Panajachel	8	Panajachel	10	Octubre	2023-10-29T00:00:00	2024-11-08T11:00:00	5	Humedad	65
69073	7	Sololá	710	Panajachel	8	Panajachel	10	Octubre	2023-10-29T00:00:00	2024-11-08T11:00:00	6	Velocidad del viento	6.4
69074	7	Sololá	710	Panajachel	8	Panajachel	10	Octubre	2023-10-29T00:00:00	2024-11-08T11:00:00	7	Dirección del viento	6.44
69075	7	Sololá	710	Panajachel	8	Panajachel	10	Octubre	2023-10-29T00:00:00	2024-11-08T11:00:00	1	Precipitación	0
69076	7	Sololá	710	Panajachel	8	Panajachel	10	Octubre	2023-10-29T00:00:00	2024-11-08T11:00:00	8	Radiación solar	718
69077	7	Sololá	710	Panajachel	8	Panajachel	10	Octubre	2023-10-29T00:00:00	2024-11-08T12:00:00	2	Temperatura media	23.8
69078	7	Sololá	710	Panajachel	8	Panajachel	10	Octubre	2023-10-29T00:00:00	2024-11-08T12:00:00	4	Temperatura máxima	24.5
69079	7	Sololá	710	Panajachel	8	Panajachel	10	Octubre	2023-10-29T00:00:00	2024-11-08T12:00:00	3	Temperatura mínima	23.7
69080	7	Sololá	710	Panajachel	8	Panajachel	10	Octubre	2023-10-29T00:00:00	2024-11-08T12:00:00	5	Humedad	66
69081	7	Sololá	710	Panajachel	8	Panajachel	10	Octubre	2023-10-29T00:00:00	2024-11-08T12:00:00	6	Velocidad del viento	8
69082	7	Sololá	710	Panajachel	8	Panajachel	10	Octubre	2023-10-29T00:00:00	2024-11-08T12:00:00	7	Dirección del viento	8.05
69083	7	Sololá	710	Panajachel	8	Panajachel	10	Octubre	2023-10-29T00:00:00	2024-11-08T12:00:00	1	Precipitación	0
69084	7	Sololá	710	Panajachel	8	Panajachel	10	Octubre	2023-10-29T00:00:00	2024-11-08T12:00:00	8	Radiación solar	454
69085	7	Sololá	710	Panajachel	8	Panajachel	10	Octubre	2023-10-29T00:00:00	2024-11-08T13:00:00	2	Temperatura media	24.8
69086	7	Sololá	710	Panajachel	8	Panajachel	10	Octubre	2023-10-29T00:00:00	2024-11-08T13:00:00	4	Temperatura máxima	24.9
69087	7	Sololá	710	Panajachel	8	Panajachel	10	Octubre	2023-10-29T00:00:00	2024-11-08T13:00:00	3	Temperatura mínima	23.9
69088	7	Sololá	710	Panajachel	8	Panajachel	10	Octubre	2023-10-29T00:00:00	2024-11-08T13:00:00	5	Humedad	64
69089	7	Sololá	710	Panajachel	8	Panajachel	10	Octubre	2023-10-29T00:00:00	2024-11-08T13:00:00	6	Velocidad del viento	3.2
69090	7	Sololá	710	Panajachel	8	Panajachel	10	Octubre	2023-10-29T00:00:00	2024-11-08T13:00:00	7	Dirección del viento	3.22
69091	7	Sololá	710	Panajachel	8	Panajachel	10	Octubre	2023-10-29T00:00:00	2024-11-08T13:00:00	1	Precipitación	0
69092	7	Sololá	710	Panajachel	8	Panajachel	10	Octubre	2023-10-29T00:00:00	2024-11-08T13:00:00	8	Radiación solar	369
69093	7	Sololá	710	Panajachel	8	Panajachel	10	Octubre	2023-10-29T00:00:00	2024-11-08T14:00:00	2	Temperatura media	23.1
69094	7	Sololá	710	Panajachel	8	Panajachel	10	Octubre	2023-10-29T00:00:00	2024-11-08T14:00:00	4	Temperatura máxima	24.8
69095	7	Sololá	710	Panajachel	8	Panajachel	10	Octubre	2023-10-29T00:00:00	2024-11-08T14:00:00	3	Temperatura mínima	23.1
69096	7	Sololá	710	Panajachel	8	Panajachel	10	Octubre	2023-10-29T00:00:00	2024-11-08T14:00:00	5	Humedad	69
69097	7	Sololá	710	Panajachel	8	Panajachel	10	Octubre	2023-10-29T00:00:00	2024-11-08T14:00:00	6	Velocidad del viento	6.4
69098	7	Sololá	710	Panajachel	8	Panajachel	10	Octubre	2023-10-29T00:00:00	2024-11-08T14:00:00	7	Dirección del viento	6.44
69099	7	Sololá	710	Panajachel	8	Panajachel	10	Octubre	2023-10-29T00:00:00	2024-11-08T14:00:00	1	Precipitación	0
69100	7	Sololá	710	Panajachel	8	Panajachel	10	Octubre	2023-10-29T00:00:00	2024-11-08T14:00:00	8	Radiación solar	273
69101	7	Sololá	710	Panajachel	8	Panajachel	10	Octubre	2023-10-29T00:00:00	2024-11-08T15:00:00	2	Temperatura media	23.1
69102	7	Sololá	710	Panajachel	8	Panajachel	10	Octubre	2023-10-29T00:00:00	2024-11-08T15:00:00	4	Temperatura máxima	23.4
69103	7	Sololá	710	Panajachel	8	Panajachel	10	Octubre	2023-10-29T00:00:00	2024-11-08T15:00:00	3	Temperatura mínima	22.9
69104	7	Sololá	710	Panajachel	8	Panajachel	10	Octubre	2023-10-29T00:00:00	2024-11-08T15:00:00	5	Humedad	68
69105	7	Sololá	710	Panajachel	8	Panajachel	10	Octubre	2023-10-29T00:00:00	2024-11-08T15:00:00	6	Velocidad del viento	6.4
69106	7	Sololá	710	Panajachel	8	Panajachel	10	Octubre	2023-10-29T00:00:00	2024-11-08T15:00:00	7	Dirección del viento	6.44
69107	7	Sololá	710	Panajachel	8	Panajachel	10	Octubre	2023-10-29T00:00:00	2024-11-08T15:00:00	1	Precipitación	0
69108	7	Sololá	710	Panajachel	8	Panajachel	10	Octubre	2023-10-29T00:00:00	2024-11-08T15:00:00	8	Radiación solar	293
69109	7	Sololá	710	Panajachel	8	Panajachel	10	Octubre	2023-10-29T00:00:00	2024-11-08T16:00:00	2	Temperatura media	21.9
69110	7	Sololá	710	Panajachel	8	Panajachel	10	Octubre	2023-10-29T00:00:00	2024-11-08T16:00:00	4	Temperatura máxima	23.1
69111	7	Sololá	710	Panajachel	8	Panajachel	10	Octubre	2023-10-29T00:00:00	2024-11-08T16:00:00	3	Temperatura mínima	21.9
69112	7	Sololá	710	Panajachel	8	Panajachel	10	Octubre	2023-10-29T00:00:00	2024-11-08T16:00:00	5	Humedad	71
69113	7	Sololá	710	Panajachel	8	Panajachel	10	Octubre	2023-10-29T00:00:00	2024-11-08T16:00:00	6	Velocidad del viento	8
69114	7	Sololá	710	Panajachel	8	Panajachel	10	Octubre	2023-10-29T00:00:00	2024-11-08T16:00:00	7	Dirección del viento	8.05
69115	7	Sololá	710	Panajachel	8	Panajachel	10	Octubre	2023-10-29T00:00:00	2024-11-08T16:00:00	1	Precipitación	0
69116	7	Sololá	710	Panajachel	8	Panajachel	10	Octubre	2023-10-29T00:00:00	2024-11-08T16:00:00	8	Radiación solar	144
69117	7	Sololá	710	Panajachel	8	Panajachel	10	Octubre	2023-10-29T00:00:00	2024-11-08T17:00:00	2	Temperatura media	21.4
69118	7	Sololá	710	Panajachel	8	Panajachel	10	Octubre	2023-10-29T00:00:00	2024-11-08T17:00:00	4	Temperatura máxima	21.9
69119	7	Sololá	710	Panajachel	8	Panajachel	10	Octubre	2023-10-29T00:00:00	2024-11-08T17:00:00	3	Temperatura mínima	21.4
69120	7	Sololá	710	Panajachel	8	Panajachel	10	Octubre	2023-10-29T00:00:00	2024-11-08T17:00:00	5	Humedad	72
69121	7	Sololá	710	Panajachel	8	Panajachel	10	Octubre	2023-10-29T00:00:00	2024-11-08T17:00:00	6	Velocidad del viento	6.4
69122	7	Sololá	710	Panajachel	8	Panajachel	10	Octubre	2023-10-29T00:00:00	2024-11-08T17:00:00	7	Dirección del viento	6.44
69123	7	Sololá	710	Panajachel	8	Panajachel	10	Octubre	2023-10-29T00:00:00	2024-11-08T17:00:00	1	Precipitación	0
69124	7	Sololá	710	Panajachel	8	Panajachel	10	Octubre	2023-10-29T00:00:00	2024-11-08T17:00:00	8	Radiación solar	45
69125	7	Sololá	710	Panajachel	8	Panajachel	10	Octubre	2023-10-29T00:00:00	2024-11-08T18:00:00	2	Temperatura media	20.8
69126	7	Sololá	710	Panajachel	8	Panajachel	10	Octubre	2023-10-29T00:00:00	2024-11-08T18:00:00	4	Temperatura máxima	21.4
69127	7	Sololá	710	Panajachel	8	Panajachel	10	Octubre	2023-10-29T00:00:00	2024-11-08T18:00:00	3	Temperatura mínima	20.8
69128	7	Sololá	710	Panajachel	8	Panajachel	10	Octubre	2023-10-29T00:00:00	2024-11-08T18:00:00	5	Humedad	75
69129	7	Sololá	710	Panajachel	8	Panajachel	10	Octubre	2023-10-29T00:00:00	2024-11-08T18:00:00	6	Velocidad del viento	3.2
69130	7	Sololá	710	Panajachel	8	Panajachel	10	Octubre	2023-10-29T00:00:00	2024-11-08T18:00:00	7	Dirección del viento	3.22
69131	7	Sololá	710	Panajachel	8	Panajachel	10	Octubre	2023-10-29T00:00:00	2024-11-08T18:00:00	1	Precipitación	0
69132	7	Sololá	710	Panajachel	8	Panajachel	10	Octubre	2023-10-29T00:00:00	2024-11-08T18:00:00	8	Radiación solar	2
69133	7	Sololá	710	Panajachel	8	Panajachel	10	Octubre	2023-10-29T00:00:00	2024-11-08T19:00:00	2	Temperatura media	20
69134	7	Sololá	710	Panajachel	8	Panajachel	10	Octubre	2023-10-29T00:00:00	2024-11-08T19:00:00	4	Temperatura máxima	20.8
69135	7	Sololá	710	Panajachel	8	Panajachel	10	Octubre	2023-10-29T00:00:00	2024-11-08T19:00:00	3	Temperatura mínima	20
69136	7	Sololá	710	Panajachel	8	Panajachel	10	Octubre	2023-10-29T00:00:00	2024-11-08T19:00:00	5	Humedad	80
69137	7	Sololá	710	Panajachel	8	Panajachel	10	Octubre	2023-10-29T00:00:00	2024-11-08T19:00:00	6	Velocidad del viento	0
69138	7	Sololá	710	Panajachel	8	Panajachel	10	Octubre	2023-10-29T00:00:00	2024-11-08T19:00:00	7	Dirección del viento	0
69139	7	Sololá	710	Panajachel	8	Panajachel	10	Octubre	2023-10-29T00:00:00	2024-11-08T19:00:00	1	Precipitación	0
69140	7	Sololá	710	Panajachel	8	Panajachel	10	Octubre	2023-10-29T00:00:00	2024-11-08T19:00:00	8	Radiación solar	0
69141	7	Sololá	710	Panajachel	8	Panajachel	10	Octubre	2023-10-29T00:00:00	2024-11-08T20:00:00	2	Temperatura media	20.9
69142	7	Sololá	710	Panajachel	8	Panajachel	10	Octubre	2023-10-29T00:00:00	2024-11-08T20:00:00	4	Temperatura máxima	20.9
69143	7	Sololá	710	Panajachel	8	Panajachel	10	Octubre	2023-10-29T00:00:00	2024-11-08T20:00:00	3	Temperatura mínima	19.6
69144	7	Sololá	710	Panajachel	8	Panajachel	10	Octubre	2023-10-29T00:00:00	2024-11-08T20:00:00	5	Humedad	74
69145	7	Sololá	710	Panajachel	8	Panajachel	10	Octubre	2023-10-29T00:00:00	2024-11-08T20:00:00	6	Velocidad del viento	1.6
69146	7	Sololá	710	Panajachel	8	Panajachel	10	Octubre	2023-10-29T00:00:00	2024-11-08T20:00:00	7	Dirección del viento	1.61
69147	7	Sololá	710	Panajachel	8	Panajachel	10	Octubre	2023-10-29T00:00:00	2024-11-08T20:00:00	1	Precipitación	0
69148	7	Sololá	710	Panajachel	8	Panajachel	10	Octubre	2023-10-29T00:00:00	2024-11-08T20:00:00	8	Radiación solar	0
69149	7	Sololá	710	Panajachel	8	Panajachel	10	Octubre	2023-10-29T00:00:00	2024-11-08T21:00:00	2	Temperatura media	19.4
69150	7	Sololá	710	Panajachel	8	Panajachel	10	Octubre	2023-10-29T00:00:00	2024-11-08T21:00:00	4	Temperatura máxima	20.9
69151	7	Sololá	710	Panajachel	8	Panajachel	10	Octubre	2023-10-29T00:00:00	2024-11-08T21:00:00	3	Temperatura mínima	19.4
69152	7	Sololá	710	Panajachel	8	Panajachel	10	Octubre	2023-10-29T00:00:00	2024-11-08T21:00:00	5	Humedad	81
69153	7	Sololá	710	Panajachel	8	Panajachel	10	Octubre	2023-10-29T00:00:00	2024-11-08T21:00:00	6	Velocidad del viento	0
69154	7	Sololá	710	Panajachel	8	Panajachel	10	Octubre	2023-10-29T00:00:00	2024-11-08T21:00:00	7	Dirección del viento	0
69155	7	Sololá	710	Panajachel	8	Panajachel	10	Octubre	2023-10-29T00:00:00	2024-11-08T21:00:00	1	Precipitación	0
69156	7	Sololá	710	Panajachel	8	Panajachel	10	Octubre	2023-10-29T00:00:00	2024-11-08T21:00:00	8	Radiación solar	0
69157	7	Sololá	710	Panajachel	8	Panajachel	10	Octubre	2023-10-29T00:00:00	2024-11-08T22:00:00	2	Temperatura media	19.1
69158	7	Sololá	710	Panajachel	8	Panajachel	10	Octubre	2023-10-29T00:00:00	2024-11-08T22:00:00	4	Temperatura máxima	19.5
69159	7	Sololá	710	Panajachel	8	Panajachel	10	Octubre	2023-10-29T00:00:00	2024-11-08T22:00:00	3	Temperatura mínima	19
69160	7	Sololá	710	Panajachel	8	Panajachel	10	Octubre	2023-10-29T00:00:00	2024-11-08T22:00:00	5	Humedad	81
69161	7	Sololá	710	Panajachel	8	Panajachel	10	Octubre	2023-10-29T00:00:00	2024-11-08T22:00:00	6	Velocidad del viento	0
69162	7	Sololá	710	Panajachel	8	Panajachel	10	Octubre	2023-10-29T00:00:00	2024-11-08T22:00:00	7	Dirección del viento	0
69163	7	Sololá	710	Panajachel	8	Panajachel	10	Octubre	2023-10-29T00:00:00	2024-11-08T22:00:00	1	Precipitación	0
69164	7	Sololá	710	Panajachel	8	Panajachel	10	Octubre	2023-10-29T00:00:00	2024-11-08T22:00:00	8	Radiación solar	0
69165	7	Sololá	710	Panajachel	8	Panajachel	10	Octubre	2023-10-29T00:00:00	2024-11-08T23:00:00	2	Temperatura media	19.1
69166	7	Sololá	710	Panajachel	8	Panajachel	10	Octubre	2023-10-29T00:00:00	2024-11-08T23:00:00	4	Temperatura máxima	19.5
69167	7	Sololá	710	Panajachel	8	Panajachel	10	Octubre	2023-10-29T00:00:00	2024-11-08T23:00:00	3	Temperatura mínima	19
69168	7	Sololá	710	Panajachel	8	Panajachel	10	Octubre	2023-10-29T00:00:00	2024-11-08T23:00:00	5	Humedad	82
69169	7	Sololá	710	Panajachel	8	Panajachel	10	Octubre	2023-10-29T00:00:00	2024-11-08T23:00:00	6	Velocidad del viento	0
69170	7	Sololá	710	Panajachel	8	Panajachel	10	Octubre	2023-10-29T00:00:00	2024-11-08T23:00:00	7	Dirección del viento	0
69171	7	Sololá	710	Panajachel	8	Panajachel	10	Octubre	2023-10-29T00:00:00	2024-11-08T23:00:00	1	Precipitación	0
69172	7	Sololá	710	Panajachel	8	Panajachel	10	Octubre	2023-10-29T00:00:00	2024-11-08T23:00:00	8	Radiación solar	0
69173	7	Sololá	710	Panajachel	8	Panajachel	10	Octubre	2023-10-30T00:00:00	2024-11-08T00:00:00	2	Temperatura media	20.3
69174	7	Sololá	710	Panajachel	8	Panajachel	10	Octubre	2023-10-30T00:00:00	2024-11-08T00:00:00	4	Temperatura máxima	20.7
69175	7	Sololá	710	Panajachel	8	Panajachel	10	Octubre	2023-10-30T00:00:00	2024-11-08T00:00:00	3	Temperatura mínima	19.1
69176	7	Sololá	710	Panajachel	8	Panajachel	10	Octubre	2023-10-30T00:00:00	2024-11-08T00:00:00	5	Humedad	77
69177	7	Sololá	710	Panajachel	8	Panajachel	10	Octubre	2023-10-30T00:00:00	2024-11-08T00:00:00	6	Velocidad del viento	1.6
69178	7	Sololá	710	Panajachel	8	Panajachel	10	Octubre	2023-10-30T00:00:00	2024-11-08T00:00:00	7	Dirección del viento	1.61
69179	7	Sololá	710	Panajachel	8	Panajachel	10	Octubre	2023-10-30T00:00:00	2024-11-08T00:00:00	1	Precipitación	0
69180	7	Sololá	710	Panajachel	8	Panajachel	10	Octubre	2023-10-30T00:00:00	2024-11-08T00:00:00	8	Radiación solar	0
69181	7	Sololá	710	Panajachel	8	Panajachel	10	Octubre	2023-10-30T00:00:00	2024-11-08T01:00:00	2	Temperatura media	18.3
69182	7	Sololá	710	Panajachel	8	Panajachel	10	Octubre	2023-10-30T00:00:00	2024-11-08T01:00:00	4	Temperatura máxima	20.3
69183	7	Sololá	710	Panajachel	8	Panajachel	10	Octubre	2023-10-30T00:00:00	2024-11-08T01:00:00	3	Temperatura mínima	18.3
69184	7	Sololá	710	Panajachel	8	Panajachel	10	Octubre	2023-10-30T00:00:00	2024-11-08T01:00:00	5	Humedad	88
69185	7	Sololá	710	Panajachel	8	Panajachel	10	Octubre	2023-10-30T00:00:00	2024-11-08T01:00:00	6	Velocidad del viento	0
69186	7	Sololá	710	Panajachel	8	Panajachel	10	Octubre	2023-10-30T00:00:00	2024-11-08T01:00:00	7	Dirección del viento	0
69187	7	Sololá	710	Panajachel	8	Panajachel	10	Octubre	2023-10-30T00:00:00	2024-11-08T01:00:00	1	Precipitación	0
69188	7	Sololá	710	Panajachel	8	Panajachel	10	Octubre	2023-10-30T00:00:00	2024-11-08T01:00:00	8	Radiación solar	0
69189	7	Sololá	710	Panajachel	8	Panajachel	10	Octubre	2023-10-30T00:00:00	2024-11-08T02:00:00	2	Temperatura media	18.2
69190	7	Sololá	710	Panajachel	8	Panajachel	10	Octubre	2023-10-30T00:00:00	2024-11-08T02:00:00	4	Temperatura máxima	18.3
69191	7	Sololá	710	Panajachel	8	Panajachel	10	Octubre	2023-10-30T00:00:00	2024-11-08T02:00:00	3	Temperatura mínima	18.1
69192	7	Sololá	710	Panajachel	8	Panajachel	10	Octubre	2023-10-30T00:00:00	2024-11-08T02:00:00	5	Humedad	88
69193	7	Sololá	710	Panajachel	8	Panajachel	10	Octubre	2023-10-30T00:00:00	2024-11-08T02:00:00	6	Velocidad del viento	0
69194	7	Sololá	710	Panajachel	8	Panajachel	10	Octubre	2023-10-30T00:00:00	2024-11-08T02:00:00	7	Dirección del viento	0
69195	7	Sololá	710	Panajachel	8	Panajachel	10	Octubre	2023-10-30T00:00:00	2024-11-08T02:00:00	1	Precipitación	0
69196	7	Sololá	710	Panajachel	8	Panajachel	10	Octubre	2023-10-30T00:00:00	2024-11-08T02:00:00	8	Radiación solar	0
69197	7	Sololá	710	Panajachel	8	Panajachel	10	Octubre	2023-10-30T00:00:00	2024-11-08T03:00:00	2	Temperatura media	19.5
69198	7	Sololá	710	Panajachel	8	Panajachel	10	Octubre	2023-10-30T00:00:00	2024-11-08T03:00:00	4	Temperatura máxima	20.2
69199	7	Sololá	710	Panajachel	8	Panajachel	10	Octubre	2023-10-30T00:00:00	2024-11-08T03:00:00	3	Temperatura mínima	18.1
69200	7	Sololá	710	Panajachel	8	Panajachel	10	Octubre	2023-10-30T00:00:00	2024-11-08T03:00:00	5	Humedad	79
69201	7	Sololá	710	Panajachel	8	Panajachel	10	Octubre	2023-10-30T00:00:00	2024-11-08T03:00:00	6	Velocidad del viento	4.8
69202	7	Sololá	710	Panajachel	8	Panajachel	10	Octubre	2023-10-30T00:00:00	2024-11-08T03:00:00	7	Dirección del viento	4.83
69203	7	Sololá	710	Panajachel	8	Panajachel	10	Octubre	2023-10-30T00:00:00	2024-11-08T03:00:00	1	Precipitación	0
69204	7	Sololá	710	Panajachel	8	Panajachel	10	Octubre	2023-10-30T00:00:00	2024-11-08T03:00:00	8	Radiación solar	0
69205	7	Sololá	710	Panajachel	8	Panajachel	10	Octubre	2023-10-30T00:00:00	2024-11-08T04:00:00	2	Temperatura media	19
69206	7	Sololá	710	Panajachel	8	Panajachel	10	Octubre	2023-10-30T00:00:00	2024-11-08T04:00:00	4	Temperatura máxima	19.9
69207	7	Sololá	710	Panajachel	8	Panajachel	10	Octubre	2023-10-30T00:00:00	2024-11-08T04:00:00	3	Temperatura mínima	18.9
69208	7	Sololá	710	Panajachel	8	Panajachel	10	Octubre	2023-10-30T00:00:00	2024-11-08T04:00:00	5	Humedad	81
69209	7	Sololá	710	Panajachel	8	Panajachel	10	Octubre	2023-10-30T00:00:00	2024-11-08T04:00:00	6	Velocidad del viento	1.6
69210	7	Sololá	710	Panajachel	8	Panajachel	10	Octubre	2023-10-30T00:00:00	2024-11-08T04:00:00	7	Dirección del viento	1.61
69211	7	Sololá	710	Panajachel	8	Panajachel	10	Octubre	2023-10-30T00:00:00	2024-11-08T04:00:00	1	Precipitación	0
69212	7	Sololá	710	Panajachel	8	Panajachel	10	Octubre	2023-10-30T00:00:00	2024-11-08T04:00:00	8	Radiación solar	0
69213	7	Sololá	710	Panajachel	8	Panajachel	10	Octubre	2023-10-30T00:00:00	2024-11-08T05:00:00	2	Temperatura media	17.6
69214	7	Sololá	710	Panajachel	8	Panajachel	10	Octubre	2023-10-30T00:00:00	2024-11-08T05:00:00	4	Temperatura máxima	19.1
69215	7	Sololá	710	Panajachel	8	Panajachel	10	Octubre	2023-10-30T00:00:00	2024-11-08T05:00:00	3	Temperatura mínima	17.6
69216	7	Sololá	710	Panajachel	8	Panajachel	10	Octubre	2023-10-30T00:00:00	2024-11-08T05:00:00	5	Humedad	86
69217	7	Sololá	710	Panajachel	8	Panajachel	10	Octubre	2023-10-30T00:00:00	2024-11-08T05:00:00	6	Velocidad del viento	0
69218	7	Sololá	710	Panajachel	8	Panajachel	10	Octubre	2023-10-30T00:00:00	2024-11-08T05:00:00	7	Dirección del viento	0
69219	7	Sololá	710	Panajachel	8	Panajachel	10	Octubre	2023-10-30T00:00:00	2024-11-08T05:00:00	1	Precipitación	0
69220	7	Sololá	710	Panajachel	8	Panajachel	10	Octubre	2023-10-30T00:00:00	2024-11-08T05:00:00	8	Radiación solar	0
69221	7	Sololá	710	Panajachel	8	Panajachel	10	Octubre	2023-10-30T00:00:00	2024-11-08T06:00:00	2	Temperatura media	18.1
69222	7	Sololá	710	Panajachel	8	Panajachel	10	Octubre	2023-10-30T00:00:00	2024-11-08T06:00:00	4	Temperatura máxima	18.1
69223	7	Sololá	710	Panajachel	8	Panajachel	10	Octubre	2023-10-30T00:00:00	2024-11-08T06:00:00	3	Temperatura mínima	17.6
69224	7	Sololá	710	Panajachel	8	Panajachel	10	Octubre	2023-10-30T00:00:00	2024-11-08T06:00:00	5	Humedad	85
69225	7	Sololá	710	Panajachel	8	Panajachel	10	Octubre	2023-10-30T00:00:00	2024-11-08T06:00:00	6	Velocidad del viento	0
69226	7	Sololá	710	Panajachel	8	Panajachel	10	Octubre	2023-10-30T00:00:00	2024-11-08T06:00:00	7	Dirección del viento	0
69227	7	Sololá	710	Panajachel	8	Panajachel	10	Octubre	2023-10-30T00:00:00	2024-11-08T06:00:00	1	Precipitación	0
69228	7	Sololá	710	Panajachel	8	Panajachel	10	Octubre	2023-10-30T00:00:00	2024-11-08T06:00:00	8	Radiación solar	0
69229	7	Sololá	710	Panajachel	8	Panajachel	10	Octubre	2023-10-30T00:00:00	2024-11-08T07:00:00	2	Temperatura media	19.9
69230	7	Sololá	710	Panajachel	8	Panajachel	10	Octubre	2023-10-30T00:00:00	2024-11-08T07:00:00	4	Temperatura máxima	19.9
69231	7	Sololá	710	Panajachel	8	Panajachel	10	Octubre	2023-10-30T00:00:00	2024-11-08T07:00:00	3	Temperatura mínima	18.1
69232	7	Sololá	710	Panajachel	8	Panajachel	10	Octubre	2023-10-30T00:00:00	2024-11-08T07:00:00	5	Humedad	78
69233	7	Sololá	710	Panajachel	8	Panajachel	10	Octubre	2023-10-30T00:00:00	2024-11-08T07:00:00	6	Velocidad del viento	3.2
69234	7	Sololá	710	Panajachel	8	Panajachel	10	Octubre	2023-10-30T00:00:00	2024-11-08T07:00:00	7	Dirección del viento	3.22
69235	7	Sololá	710	Panajachel	8	Panajachel	10	Octubre	2023-10-30T00:00:00	2024-11-08T07:00:00	1	Precipitación	0
69236	7	Sololá	710	Panajachel	8	Panajachel	10	Octubre	2023-10-30T00:00:00	2024-11-08T07:00:00	8	Radiación solar	32
69237	7	Sololá	710	Panajachel	8	Panajachel	10	Octubre	2023-10-30T00:00:00	2024-11-08T08:00:00	2	Temperatura media	21.2
69238	7	Sololá	710	Panajachel	8	Panajachel	10	Octubre	2023-10-30T00:00:00	2024-11-08T08:00:00	4	Temperatura máxima	21.2
69239	7	Sololá	710	Panajachel	8	Panajachel	10	Octubre	2023-10-30T00:00:00	2024-11-08T08:00:00	3	Temperatura mínima	19.9
69240	7	Sololá	710	Panajachel	8	Panajachel	10	Octubre	2023-10-30T00:00:00	2024-11-08T08:00:00	5	Humedad	73
69241	7	Sololá	710	Panajachel	8	Panajachel	10	Octubre	2023-10-30T00:00:00	2024-11-08T08:00:00	6	Velocidad del viento	6.4
69242	7	Sololá	710	Panajachel	8	Panajachel	10	Octubre	2023-10-30T00:00:00	2024-11-08T08:00:00	7	Dirección del viento	6.44
69243	7	Sololá	710	Panajachel	8	Panajachel	10	Octubre	2023-10-30T00:00:00	2024-11-08T08:00:00	1	Precipitación	0
69244	7	Sololá	710	Panajachel	8	Panajachel	10	Octubre	2023-10-30T00:00:00	2024-11-08T08:00:00	8	Radiación solar	246
69245	7	Sololá	710	Panajachel	8	Panajachel	10	Octubre	2023-10-30T00:00:00	2024-11-08T09:00:00	2	Temperatura media	23
69246	7	Sololá	710	Panajachel	8	Panajachel	10	Octubre	2023-10-30T00:00:00	2024-11-08T09:00:00	4	Temperatura máxima	23
69247	7	Sololá	710	Panajachel	8	Panajachel	10	Octubre	2023-10-30T00:00:00	2024-11-08T09:00:00	3	Temperatura mínima	21.2
69248	7	Sololá	710	Panajachel	8	Panajachel	10	Octubre	2023-10-30T00:00:00	2024-11-08T09:00:00	5	Humedad	65
69249	7	Sololá	710	Panajachel	8	Panajachel	10	Octubre	2023-10-30T00:00:00	2024-11-08T09:00:00	6	Velocidad del viento	8
69250	7	Sololá	710	Panajachel	8	Panajachel	10	Octubre	2023-10-30T00:00:00	2024-11-08T09:00:00	7	Dirección del viento	8.05
69251	7	Sololá	710	Panajachel	8	Panajachel	10	Octubre	2023-10-30T00:00:00	2024-11-08T09:00:00	1	Precipitación	0
69252	7	Sololá	710	Panajachel	8	Panajachel	10	Octubre	2023-10-30T00:00:00	2024-11-08T09:00:00	8	Radiación solar	516
69253	7	Sololá	710	Panajachel	8	Panajachel	10	Octubre	2023-10-30T00:00:00	2024-11-08T10:00:00	2	Temperatura media	23.9
69254	7	Sololá	710	Panajachel	8	Panajachel	10	Octubre	2023-10-30T00:00:00	2024-11-08T10:00:00	4	Temperatura máxima	23.9
69255	7	Sololá	710	Panajachel	8	Panajachel	10	Octubre	2023-10-30T00:00:00	2024-11-08T10:00:00	3	Temperatura mínima	23
69256	7	Sololá	710	Panajachel	8	Panajachel	10	Octubre	2023-10-30T00:00:00	2024-11-08T10:00:00	5	Humedad	64
69257	7	Sololá	710	Panajachel	8	Panajachel	10	Octubre	2023-10-30T00:00:00	2024-11-08T10:00:00	6	Velocidad del viento	8
69258	7	Sololá	710	Panajachel	8	Panajachel	10	Octubre	2023-10-30T00:00:00	2024-11-08T10:00:00	7	Dirección del viento	8.05
69259	7	Sololá	710	Panajachel	8	Panajachel	10	Octubre	2023-10-30T00:00:00	2024-11-08T10:00:00	1	Precipitación	0
69260	7	Sololá	710	Panajachel	8	Panajachel	10	Octubre	2023-10-30T00:00:00	2024-11-08T10:00:00	8	Radiación solar	707
69261	7	Sololá	710	Panajachel	8	Panajachel	10	Octubre	2023-10-30T00:00:00	2024-11-08T11:00:00	2	Temperatura media	24.6
69262	7	Sololá	710	Panajachel	8	Panajachel	10	Octubre	2023-10-30T00:00:00	2024-11-08T11:00:00	4	Temperatura máxima	24.7
69263	7	Sololá	710	Panajachel	8	Panajachel	10	Octubre	2023-10-30T00:00:00	2024-11-08T11:00:00	3	Temperatura mínima	23.9
69264	7	Sololá	710	Panajachel	8	Panajachel	10	Octubre	2023-10-30T00:00:00	2024-11-08T11:00:00	5	Humedad	63
69265	7	Sololá	710	Panajachel	8	Panajachel	10	Octubre	2023-10-30T00:00:00	2024-11-08T11:00:00	6	Velocidad del viento	4.8
69266	7	Sololá	710	Panajachel	8	Panajachel	10	Octubre	2023-10-30T00:00:00	2024-11-08T11:00:00	7	Dirección del viento	4.83
69267	7	Sololá	710	Panajachel	8	Panajachel	10	Octubre	2023-10-30T00:00:00	2024-11-08T11:00:00	1	Precipitación	0
69268	7	Sololá	710	Panajachel	8	Panajachel	10	Octubre	2023-10-30T00:00:00	2024-11-08T11:00:00	8	Radiación solar	746
69269	7	Sololá	710	Panajachel	8	Panajachel	10	Octubre	2023-10-30T00:00:00	2024-11-08T12:00:00	2	Temperatura media	25.2
69270	7	Sololá	710	Panajachel	8	Panajachel	10	Octubre	2023-10-30T00:00:00	2024-11-08T12:00:00	4	Temperatura máxima	25.2
69271	7	Sololá	710	Panajachel	8	Panajachel	10	Octubre	2023-10-30T00:00:00	2024-11-08T12:00:00	3	Temperatura mínima	24.4
69272	7	Sololá	710	Panajachel	8	Panajachel	10	Octubre	2023-10-30T00:00:00	2024-11-08T12:00:00	5	Humedad	59
69273	7	Sololá	710	Panajachel	8	Panajachel	10	Octubre	2023-10-30T00:00:00	2024-11-08T12:00:00	6	Velocidad del viento	8
69274	7	Sololá	710	Panajachel	8	Panajachel	10	Octubre	2023-10-30T00:00:00	2024-11-08T12:00:00	7	Dirección del viento	8.05
69275	7	Sololá	710	Panajachel	8	Panajachel	10	Octubre	2023-10-30T00:00:00	2024-11-08T12:00:00	1	Precipitación	0
69276	7	Sololá	710	Panajachel	8	Panajachel	10	Octubre	2023-10-30T00:00:00	2024-11-08T12:00:00	8	Radiación solar	901
69277	7	Sololá	710	Panajachel	8	Panajachel	10	Octubre	2023-10-30T00:00:00	2024-11-08T13:00:00	2	Temperatura media	27.1
69278	7	Sololá	710	Panajachel	8	Panajachel	10	Octubre	2023-10-30T00:00:00	2024-11-08T13:00:00	4	Temperatura máxima	27.1
69279	7	Sololá	710	Panajachel	8	Panajachel	10	Octubre	2023-10-30T00:00:00	2024-11-08T13:00:00	3	Temperatura mínima	25.2
69280	7	Sololá	710	Panajachel	8	Panajachel	10	Octubre	2023-10-30T00:00:00	2024-11-08T13:00:00	5	Humedad	51
69281	7	Sololá	710	Panajachel	8	Panajachel	10	Octubre	2023-10-30T00:00:00	2024-11-08T13:00:00	6	Velocidad del viento	6.4
69282	7	Sololá	710	Panajachel	8	Panajachel	10	Octubre	2023-10-30T00:00:00	2024-11-08T13:00:00	7	Dirección del viento	6.44
69283	7	Sololá	710	Panajachel	8	Panajachel	10	Octubre	2023-10-30T00:00:00	2024-11-08T13:00:00	1	Precipitación	0
69284	7	Sololá	710	Panajachel	8	Panajachel	10	Octubre	2023-10-30T00:00:00	2024-11-08T13:00:00	8	Radiación solar	890
69285	7	Sololá	710	Panajachel	8	Panajachel	10	Octubre	2023-10-30T00:00:00	2024-11-08T14:00:00	2	Temperatura media	25.7
69286	7	Sololá	710	Panajachel	8	Panajachel	10	Octubre	2023-10-30T00:00:00	2024-11-08T14:00:00	4	Temperatura máxima	27
69287	7	Sololá	710	Panajachel	8	Panajachel	10	Octubre	2023-10-30T00:00:00	2024-11-08T14:00:00	3	Temperatura mínima	25.7
69288	7	Sololá	710	Panajachel	8	Panajachel	10	Octubre	2023-10-30T00:00:00	2024-11-08T14:00:00	5	Humedad	54
69289	7	Sololá	710	Panajachel	8	Panajachel	10	Octubre	2023-10-30T00:00:00	2024-11-08T14:00:00	6	Velocidad del viento	6.4
69290	7	Sololá	710	Panajachel	8	Panajachel	10	Octubre	2023-10-30T00:00:00	2024-11-08T14:00:00	7	Dirección del viento	6.44
69291	7	Sololá	710	Panajachel	8	Panajachel	10	Octubre	2023-10-30T00:00:00	2024-11-08T14:00:00	1	Precipitación	0
69292	7	Sololá	710	Panajachel	8	Panajachel	10	Octubre	2023-10-30T00:00:00	2024-11-08T14:00:00	8	Radiación solar	611
69293	7	Sololá	710	Panajachel	8	Panajachel	10	Octubre	2023-10-30T00:00:00	2024-11-08T15:00:00	2	Temperatura media	23.1
69294	7	Sololá	710	Panajachel	8	Panajachel	10	Octubre	2023-10-30T00:00:00	2024-11-08T15:00:00	4	Temperatura máxima	25.7
69295	7	Sololá	710	Panajachel	8	Panajachel	10	Octubre	2023-10-30T00:00:00	2024-11-08T15:00:00	3	Temperatura mínima	22.4
69296	7	Sololá	710	Panajachel	8	Panajachel	10	Octubre	2023-10-30T00:00:00	2024-11-08T15:00:00	5	Humedad	71
69297	7	Sololá	710	Panajachel	8	Panajachel	10	Octubre	2023-10-30T00:00:00	2024-11-08T15:00:00	6	Velocidad del viento	4.8
69298	7	Sololá	710	Panajachel	8	Panajachel	10	Octubre	2023-10-30T00:00:00	2024-11-08T15:00:00	7	Dirección del viento	4.83
69299	7	Sololá	710	Panajachel	8	Panajachel	10	Octubre	2023-10-30T00:00:00	2024-11-08T15:00:00	1	Precipitación	0
69300	7	Sololá	710	Panajachel	8	Panajachel	10	Octubre	2023-10-30T00:00:00	2024-11-08T15:00:00	8	Radiación solar	185
69301	7	Sololá	710	Panajachel	8	Panajachel	10	Octubre	2023-10-30T00:00:00	2024-11-08T16:00:00	2	Temperatura media	22.9
69302	7	Sololá	710	Panajachel	8	Panajachel	10	Octubre	2023-10-30T00:00:00	2024-11-08T16:00:00	4	Temperatura máxima	23.9
69303	7	Sololá	710	Panajachel	8	Panajachel	10	Octubre	2023-10-30T00:00:00	2024-11-08T16:00:00	3	Temperatura mínima	22.9
69304	7	Sololá	710	Panajachel	8	Panajachel	10	Octubre	2023-10-30T00:00:00	2024-11-08T16:00:00	5	Humedad	64
69305	7	Sololá	710	Panajachel	8	Panajachel	10	Octubre	2023-10-30T00:00:00	2024-11-08T16:00:00	6	Velocidad del viento	1.6
69306	7	Sololá	710	Panajachel	8	Panajachel	10	Octubre	2023-10-30T00:00:00	2024-11-08T16:00:00	7	Dirección del viento	1.61
69307	7	Sololá	710	Panajachel	8	Panajachel	10	Octubre	2023-10-30T00:00:00	2024-11-08T16:00:00	1	Precipitación	0
69308	7	Sololá	710	Panajachel	8	Panajachel	10	Octubre	2023-10-30T00:00:00	2024-11-08T16:00:00	8	Radiación solar	162
69309	7	Sololá	710	Panajachel	8	Panajachel	10	Octubre	2023-10-30T00:00:00	2024-11-08T17:00:00	2	Temperatura media	22.2
69310	7	Sololá	710	Panajachel	8	Panajachel	10	Octubre	2023-10-30T00:00:00	2024-11-08T17:00:00	4	Temperatura máxima	23.3
69311	7	Sololá	710	Panajachel	8	Panajachel	10	Octubre	2023-10-30T00:00:00	2024-11-08T17:00:00	3	Temperatura mínima	22.2
69312	7	Sololá	710	Panajachel	8	Panajachel	10	Octubre	2023-10-30T00:00:00	2024-11-08T17:00:00	5	Humedad	65
69313	7	Sololá	710	Panajachel	8	Panajachel	10	Octubre	2023-10-30T00:00:00	2024-11-08T17:00:00	6	Velocidad del viento	6.4
69314	7	Sololá	710	Panajachel	8	Panajachel	10	Octubre	2023-10-30T00:00:00	2024-11-08T17:00:00	7	Dirección del viento	6.44
69315	7	Sololá	710	Panajachel	8	Panajachel	10	Octubre	2023-10-30T00:00:00	2024-11-08T17:00:00	1	Precipitación	0
69316	7	Sololá	710	Panajachel	8	Panajachel	10	Octubre	2023-10-30T00:00:00	2024-11-08T17:00:00	8	Radiación solar	84
69317	7	Sololá	710	Panajachel	8	Panajachel	10	Octubre	2023-10-30T00:00:00	2024-11-08T18:00:00	2	Temperatura media	21.1
69318	7	Sololá	710	Panajachel	8	Panajachel	10	Octubre	2023-10-30T00:00:00	2024-11-08T18:00:00	4	Temperatura máxima	22.2
69319	7	Sololá	710	Panajachel	8	Panajachel	10	Octubre	2023-10-30T00:00:00	2024-11-08T18:00:00	3	Temperatura mínima	21.1
69320	7	Sololá	710	Panajachel	8	Panajachel	10	Octubre	2023-10-30T00:00:00	2024-11-08T18:00:00	5	Humedad	67
69321	7	Sololá	710	Panajachel	8	Panajachel	10	Octubre	2023-10-30T00:00:00	2024-11-08T18:00:00	6	Velocidad del viento	9.7
69322	7	Sololá	710	Panajachel	8	Panajachel	10	Octubre	2023-10-30T00:00:00	2024-11-08T18:00:00	7	Dirección del viento	9.66
69323	7	Sololá	710	Panajachel	8	Panajachel	10	Octubre	2023-10-30T00:00:00	2024-11-08T18:00:00	1	Precipitación	0
69324	7	Sololá	710	Panajachel	8	Panajachel	10	Octubre	2023-10-30T00:00:00	2024-11-08T18:00:00	8	Radiación solar	7
69325	7	Sololá	710	Panajachel	8	Panajachel	10	Octubre	2023-10-30T00:00:00	2024-11-08T19:00:00	2	Temperatura media	20.6
69326	7	Sololá	710	Panajachel	8	Panajachel	10	Octubre	2023-10-30T00:00:00	2024-11-08T19:00:00	4	Temperatura máxima	21.1
69327	7	Sololá	710	Panajachel	8	Panajachel	10	Octubre	2023-10-30T00:00:00	2024-11-08T19:00:00	3	Temperatura mínima	20.5
69328	7	Sololá	710	Panajachel	8	Panajachel	10	Octubre	2023-10-30T00:00:00	2024-11-08T19:00:00	5	Humedad	66
69329	7	Sololá	710	Panajachel	8	Panajachel	10	Octubre	2023-10-30T00:00:00	2024-11-08T19:00:00	6	Velocidad del viento	8
69330	7	Sololá	710	Panajachel	8	Panajachel	10	Octubre	2023-10-30T00:00:00	2024-11-08T19:00:00	7	Dirección del viento	8.05
69331	7	Sololá	710	Panajachel	8	Panajachel	10	Octubre	2023-10-30T00:00:00	2024-11-08T19:00:00	1	Precipitación	0
69332	7	Sololá	710	Panajachel	8	Panajachel	10	Octubre	2023-10-30T00:00:00	2024-11-08T19:00:00	8	Radiación solar	0
69333	7	Sololá	710	Panajachel	8	Panajachel	10	Octubre	2023-10-30T00:00:00	2024-11-08T20:00:00	2	Temperatura media	19.8
69334	7	Sololá	710	Panajachel	8	Panajachel	10	Octubre	2023-10-30T00:00:00	2024-11-08T20:00:00	4	Temperatura máxima	20.7
69335	7	Sololá	710	Panajachel	8	Panajachel	10	Octubre	2023-10-30T00:00:00	2024-11-08T20:00:00	3	Temperatura mínima	19.8
69336	7	Sololá	710	Panajachel	8	Panajachel	10	Octubre	2023-10-30T00:00:00	2024-11-08T20:00:00	5	Humedad	72
69337	7	Sololá	710	Panajachel	8	Panajachel	10	Octubre	2023-10-30T00:00:00	2024-11-08T20:00:00	6	Velocidad del viento	0
69338	7	Sololá	710	Panajachel	8	Panajachel	10	Octubre	2023-10-30T00:00:00	2024-11-08T20:00:00	7	Dirección del viento	0
69339	7	Sololá	710	Panajachel	8	Panajachel	10	Octubre	2023-10-30T00:00:00	2024-11-08T20:00:00	1	Precipitación	0
69340	7	Sololá	710	Panajachel	8	Panajachel	10	Octubre	2023-10-30T00:00:00	2024-11-08T20:00:00	8	Radiación solar	0
69341	7	Sololá	710	Panajachel	8	Panajachel	10	Octubre	2023-10-30T00:00:00	2024-11-08T21:00:00	2	Temperatura media	20.2
69342	7	Sololá	710	Panajachel	8	Panajachel	10	Octubre	2023-10-30T00:00:00	2024-11-08T21:00:00	4	Temperatura máxima	20.2
69343	7	Sololá	710	Panajachel	8	Panajachel	10	Octubre	2023-10-30T00:00:00	2024-11-08T21:00:00	3	Temperatura mínima	19.2
69344	7	Sololá	710	Panajachel	8	Panajachel	10	Octubre	2023-10-30T00:00:00	2024-11-08T21:00:00	5	Humedad	68
69345	7	Sololá	710	Panajachel	8	Panajachel	10	Octubre	2023-10-30T00:00:00	2024-11-08T21:00:00	6	Velocidad del viento	0
69346	7	Sololá	710	Panajachel	8	Panajachel	10	Octubre	2023-10-30T00:00:00	2024-11-08T21:00:00	7	Dirección del viento	0
69347	7	Sololá	710	Panajachel	8	Panajachel	10	Octubre	2023-10-30T00:00:00	2024-11-08T21:00:00	1	Precipitación	0
69348	7	Sololá	710	Panajachel	8	Panajachel	10	Octubre	2023-10-30T00:00:00	2024-11-08T21:00:00	8	Radiación solar	0
69349	7	Sololá	710	Panajachel	8	Panajachel	10	Octubre	2023-10-30T00:00:00	2024-11-08T22:00:00	2	Temperatura media	19.8
69350	7	Sololá	710	Panajachel	8	Panajachel	10	Octubre	2023-10-30T00:00:00	2024-11-08T22:00:00	4	Temperatura máxima	20.2
69351	7	Sololá	710	Panajachel	8	Panajachel	10	Octubre	2023-10-30T00:00:00	2024-11-08T22:00:00	3	Temperatura mínima	19.7
69352	7	Sololá	710	Panajachel	8	Panajachel	10	Octubre	2023-10-30T00:00:00	2024-11-08T22:00:00	5	Humedad	70
69353	7	Sololá	710	Panajachel	8	Panajachel	10	Octubre	2023-10-30T00:00:00	2024-11-08T22:00:00	6	Velocidad del viento	0
69354	7	Sololá	710	Panajachel	8	Panajachel	10	Octubre	2023-10-30T00:00:00	2024-11-08T22:00:00	7	Dirección del viento	0
69355	7	Sololá	710	Panajachel	8	Panajachel	10	Octubre	2023-10-30T00:00:00	2024-11-08T22:00:00	1	Precipitación	0
69356	7	Sololá	710	Panajachel	8	Panajachel	10	Octubre	2023-10-30T00:00:00	2024-11-08T22:00:00	8	Radiación solar	0
69357	7	Sololá	710	Panajachel	8	Panajachel	10	Octubre	2023-10-30T00:00:00	2024-11-08T23:00:00	2	Temperatura media	19.7
69358	7	Sololá	710	Panajachel	8	Panajachel	10	Octubre	2023-10-30T00:00:00	2024-11-08T23:00:00	4	Temperatura máxima	20.1
69359	7	Sololá	710	Panajachel	8	Panajachel	10	Octubre	2023-10-30T00:00:00	2024-11-08T23:00:00	3	Temperatura mínima	19.7
69360	7	Sololá	710	Panajachel	8	Panajachel	10	Octubre	2023-10-30T00:00:00	2024-11-08T23:00:00	5	Humedad	69
69361	7	Sololá	710	Panajachel	8	Panajachel	10	Octubre	2023-10-30T00:00:00	2024-11-08T23:00:00	6	Velocidad del viento	3.2
69362	7	Sololá	710	Panajachel	8	Panajachel	10	Octubre	2023-10-30T00:00:00	2024-11-08T23:00:00	7	Dirección del viento	3.22
69363	7	Sololá	710	Panajachel	8	Panajachel	10	Octubre	2023-10-30T00:00:00	2024-11-08T23:00:00	1	Precipitación	0
69364	7	Sololá	710	Panajachel	8	Panajachel	10	Octubre	2023-10-30T00:00:00	2024-11-08T23:00:00	8	Radiación solar	0
69365	7	Sololá	710	Panajachel	8	Panajachel	10	Octubre	2023-10-31T00:00:00	2024-11-08T00:00:00	2	Temperatura media	19.8
69366	7	Sololá	710	Panajachel	8	Panajachel	10	Octubre	2023-10-31T00:00:00	2024-11-08T00:00:00	4	Temperatura máxima	19.8
69367	7	Sololá	710	Panajachel	8	Panajachel	10	Octubre	2023-10-31T00:00:00	2024-11-08T00:00:00	3	Temperatura mínima	19.6
69368	7	Sololá	710	Panajachel	8	Panajachel	10	Octubre	2023-10-31T00:00:00	2024-11-08T00:00:00	5	Humedad	67
69369	7	Sololá	710	Panajachel	8	Panajachel	10	Octubre	2023-10-31T00:00:00	2024-11-08T00:00:00	6	Velocidad del viento	4.8
69370	7	Sololá	710	Panajachel	8	Panajachel	10	Octubre	2023-10-31T00:00:00	2024-11-08T00:00:00	7	Dirección del viento	4.83
69371	7	Sololá	710	Panajachel	8	Panajachel	10	Octubre	2023-10-31T00:00:00	2024-11-08T00:00:00	1	Precipitación	0
69372	7	Sololá	710	Panajachel	8	Panajachel	10	Octubre	2023-10-31T00:00:00	2024-11-08T00:00:00	8	Radiación solar	0
69373	7	Sololá	710	Panajachel	8	Panajachel	10	Octubre	2023-10-31T00:00:00	2024-11-08T01:00:00	2	Temperatura media	19.2
69374	7	Sololá	710	Panajachel	8	Panajachel	10	Octubre	2023-10-31T00:00:00	2024-11-08T01:00:00	4	Temperatura máxima	19.8
69375	7	Sololá	710	Panajachel	8	Panajachel	10	Octubre	2023-10-31T00:00:00	2024-11-08T01:00:00	3	Temperatura mínima	19.1
69376	7	Sololá	710	Panajachel	8	Panajachel	10	Octubre	2023-10-31T00:00:00	2024-11-08T01:00:00	5	Humedad	68
69377	7	Sololá	710	Panajachel	8	Panajachel	10	Octubre	2023-10-31T00:00:00	2024-11-08T01:00:00	6	Velocidad del viento	9.7
69378	7	Sololá	710	Panajachel	8	Panajachel	10	Octubre	2023-10-31T00:00:00	2024-11-08T01:00:00	7	Dirección del viento	9.66
69379	7	Sololá	710	Panajachel	8	Panajachel	10	Octubre	2023-10-31T00:00:00	2024-11-08T01:00:00	1	Precipitación	0
69380	7	Sololá	710	Panajachel	8	Panajachel	10	Octubre	2023-10-31T00:00:00	2024-11-08T01:00:00	8	Radiación solar	0
69381	7	Sololá	710	Panajachel	8	Panajachel	10	Octubre	2023-10-31T00:00:00	2024-11-08T02:00:00	2	Temperatura media	18.9
69382	7	Sololá	710	Panajachel	8	Panajachel	10	Octubre	2023-10-31T00:00:00	2024-11-08T02:00:00	4	Temperatura máxima	19.3
69383	7	Sololá	710	Panajachel	8	Panajachel	10	Octubre	2023-10-31T00:00:00	2024-11-08T02:00:00	3	Temperatura mínima	18.9
69384	7	Sololá	710	Panajachel	8	Panajachel	10	Octubre	2023-10-31T00:00:00	2024-11-08T02:00:00	5	Humedad	68
69385	7	Sololá	710	Panajachel	8	Panajachel	10	Octubre	2023-10-31T00:00:00	2024-11-08T02:00:00	6	Velocidad del viento	12.9
69386	7	Sololá	710	Panajachel	8	Panajachel	10	Octubre	2023-10-31T00:00:00	2024-11-08T02:00:00	7	Dirección del viento	12.87
69387	7	Sololá	710	Panajachel	8	Panajachel	10	Octubre	2023-10-31T00:00:00	2024-11-08T02:00:00	1	Precipitación	0
69388	7	Sololá	710	Panajachel	8	Panajachel	10	Octubre	2023-10-31T00:00:00	2024-11-08T02:00:00	8	Radiación solar	0
69389	7	Sololá	710	Panajachel	8	Panajachel	10	Octubre	2023-10-31T00:00:00	2024-11-08T03:00:00	2	Temperatura media	18.8
69390	7	Sololá	710	Panajachel	8	Panajachel	10	Octubre	2023-10-31T00:00:00	2024-11-08T03:00:00	4	Temperatura máxima	19.1
69391	7	Sololá	710	Panajachel	8	Panajachel	10	Octubre	2023-10-31T00:00:00	2024-11-08T03:00:00	3	Temperatura mínima	18.8
69392	7	Sololá	710	Panajachel	8	Panajachel	10	Octubre	2023-10-31T00:00:00	2024-11-08T03:00:00	5	Humedad	68
69393	7	Sololá	710	Panajachel	8	Panajachel	10	Octubre	2023-10-31T00:00:00	2024-11-08T03:00:00	6	Velocidad del viento	9.7
69394	7	Sololá	710	Panajachel	8	Panajachel	10	Octubre	2023-10-31T00:00:00	2024-11-08T03:00:00	7	Dirección del viento	9.66
69395	7	Sololá	710	Panajachel	8	Panajachel	10	Octubre	2023-10-31T00:00:00	2024-11-08T03:00:00	1	Precipitación	0
69396	7	Sololá	710	Panajachel	8	Panajachel	10	Octubre	2023-10-31T00:00:00	2024-11-08T03:00:00	8	Radiación solar	0
69397	7	Sololá	710	Panajachel	8	Panajachel	10	Octubre	2023-10-31T00:00:00	2024-11-08T04:00:00	2	Temperatura media	18.9
69398	7	Sololá	710	Panajachel	8	Panajachel	10	Octubre	2023-10-31T00:00:00	2024-11-08T04:00:00	4	Temperatura máxima	18.9
69399	7	Sololá	710	Panajachel	8	Panajachel	10	Octubre	2023-10-31T00:00:00	2024-11-08T04:00:00	3	Temperatura mínima	18.7
69400	7	Sololá	710	Panajachel	8	Panajachel	10	Octubre	2023-10-31T00:00:00	2024-11-08T04:00:00	5	Humedad	68
69401	7	Sololá	710	Panajachel	8	Panajachel	10	Octubre	2023-10-31T00:00:00	2024-11-08T04:00:00	6	Velocidad del viento	6.4
69402	7	Sololá	710	Panajachel	8	Panajachel	10	Octubre	2023-10-31T00:00:00	2024-11-08T04:00:00	7	Dirección del viento	6.44
69403	7	Sololá	710	Panajachel	8	Panajachel	10	Octubre	2023-10-31T00:00:00	2024-11-08T04:00:00	1	Precipitación	0
69404	7	Sololá	710	Panajachel	8	Panajachel	10	Octubre	2023-10-31T00:00:00	2024-11-08T04:00:00	8	Radiación solar	0
69405	7	Sololá	710	Panajachel	8	Panajachel	10	Octubre	2023-10-31T00:00:00	2024-11-08T05:00:00	2	Temperatura media	19.3
69406	7	Sololá	710	Panajachel	8	Panajachel	10	Octubre	2023-10-31T00:00:00	2024-11-08T05:00:00	4	Temperatura máxima	19.4
69407	7	Sololá	710	Panajachel	8	Panajachel	10	Octubre	2023-10-31T00:00:00	2024-11-08T05:00:00	3	Temperatura mínima	18.9
69408	7	Sololá	710	Panajachel	8	Panajachel	10	Octubre	2023-10-31T00:00:00	2024-11-08T05:00:00	5	Humedad	67
69409	7	Sololá	710	Panajachel	8	Panajachel	10	Octubre	2023-10-31T00:00:00	2024-11-08T05:00:00	6	Velocidad del viento	9.7
69410	7	Sololá	710	Panajachel	8	Panajachel	10	Octubre	2023-10-31T00:00:00	2024-11-08T05:00:00	7	Dirección del viento	9.66
69411	7	Sololá	710	Panajachel	8	Panajachel	10	Octubre	2023-10-31T00:00:00	2024-11-08T05:00:00	1	Precipitación	0
69412	7	Sololá	710	Panajachel	8	Panajachel	10	Octubre	2023-10-31T00:00:00	2024-11-08T05:00:00	8	Radiación solar	0
69413	7	Sololá	710	Panajachel	8	Panajachel	10	Octubre	2023-10-31T00:00:00	2024-11-08T06:00:00	2	Temperatura media	19.1
69414	7	Sololá	710	Panajachel	8	Panajachel	10	Octubre	2023-10-31T00:00:00	2024-11-08T06:00:00	4	Temperatura máxima	19.3
69415	7	Sololá	710	Panajachel	8	Panajachel	10	Octubre	2023-10-31T00:00:00	2024-11-08T06:00:00	3	Temperatura mínima	19
69416	7	Sololá	710	Panajachel	8	Panajachel	10	Octubre	2023-10-31T00:00:00	2024-11-08T06:00:00	5	Humedad	68
69417	7	Sololá	710	Panajachel	8	Panajachel	10	Octubre	2023-10-31T00:00:00	2024-11-08T06:00:00	6	Velocidad del viento	9.7
69418	7	Sololá	710	Panajachel	8	Panajachel	10	Octubre	2023-10-31T00:00:00	2024-11-08T06:00:00	7	Dirección del viento	9.66
69419	7	Sololá	710	Panajachel	8	Panajachel	10	Octubre	2023-10-31T00:00:00	2024-11-08T06:00:00	1	Precipitación	0
69420	7	Sololá	710	Panajachel	8	Panajachel	10	Octubre	2023-10-31T00:00:00	2024-11-08T06:00:00	8	Radiación solar	0
69421	7	Sololá	710	Panajachel	8	Panajachel	10	Octubre	2023-10-31T00:00:00	2024-11-08T07:00:00	2	Temperatura media	19.3
69422	7	Sololá	710	Panajachel	8	Panajachel	10	Octubre	2023-10-31T00:00:00	2024-11-08T07:00:00	4	Temperatura máxima	19.4
69423	7	Sololá	710	Panajachel	8	Panajachel	10	Octubre	2023-10-31T00:00:00	2024-11-08T07:00:00	3	Temperatura mínima	18.9
69424	7	Sololá	710	Panajachel	8	Panajachel	10	Octubre	2023-10-31T00:00:00	2024-11-08T07:00:00	5	Humedad	67
69425	7	Sololá	710	Panajachel	8	Panajachel	10	Octubre	2023-10-31T00:00:00	2024-11-08T07:00:00	6	Velocidad del viento	8
69426	7	Sololá	710	Panajachel	8	Panajachel	10	Octubre	2023-10-31T00:00:00	2024-11-08T07:00:00	7	Dirección del viento	8.05
69427	7	Sololá	710	Panajachel	8	Panajachel	10	Octubre	2023-10-31T00:00:00	2024-11-08T07:00:00	1	Precipitación	0
69428	7	Sololá	710	Panajachel	8	Panajachel	10	Octubre	2023-10-31T00:00:00	2024-11-08T07:00:00	8	Radiación solar	9
69429	7	Sololá	710	Panajachel	8	Panajachel	10	Octubre	2023-10-31T00:00:00	2024-11-08T08:00:00	2	Temperatura media	20
69430	7	Sololá	710	Panajachel	8	Panajachel	10	Octubre	2023-10-31T00:00:00	2024-11-08T08:00:00	4	Temperatura máxima	20
69431	7	Sololá	710	Panajachel	8	Panajachel	10	Octubre	2023-10-31T00:00:00	2024-11-08T08:00:00	3	Temperatura mínima	19.3
69432	7	Sololá	710	Panajachel	8	Panajachel	10	Octubre	2023-10-31T00:00:00	2024-11-08T08:00:00	5	Humedad	66
69433	7	Sololá	710	Panajachel	8	Panajachel	10	Octubre	2023-10-31T00:00:00	2024-11-08T08:00:00	6	Velocidad del viento	4.8
69434	7	Sololá	710	Panajachel	8	Panajachel	10	Octubre	2023-10-31T00:00:00	2024-11-08T08:00:00	7	Dirección del viento	4.83
69435	7	Sololá	710	Panajachel	8	Panajachel	10	Octubre	2023-10-31T00:00:00	2024-11-08T08:00:00	1	Precipitación	0
69436	7	Sololá	710	Panajachel	8	Panajachel	10	Octubre	2023-10-31T00:00:00	2024-11-08T08:00:00	8	Radiación solar	89
69437	7	Sololá	710	Panajachel	8	Panajachel	10	Octubre	2023-10-31T00:00:00	2024-11-08T09:00:00	2	Temperatura media	21.3
69438	7	Sololá	710	Panajachel	8	Panajachel	10	Octubre	2023-10-31T00:00:00	2024-11-08T09:00:00	4	Temperatura máxima	21.3
69439	7	Sololá	710	Panajachel	8	Panajachel	10	Octubre	2023-10-31T00:00:00	2024-11-08T09:00:00	3	Temperatura mínima	20
69440	7	Sololá	710	Panajachel	8	Panajachel	10	Octubre	2023-10-31T00:00:00	2024-11-08T09:00:00	5	Humedad	62
69441	7	Sololá	710	Panajachel	8	Panajachel	10	Octubre	2023-10-31T00:00:00	2024-11-08T09:00:00	6	Velocidad del viento	6.4
69442	7	Sololá	710	Panajachel	8	Panajachel	10	Octubre	2023-10-31T00:00:00	2024-11-08T09:00:00	7	Dirección del viento	6.44
69443	7	Sololá	710	Panajachel	8	Panajachel	10	Octubre	2023-10-31T00:00:00	2024-11-08T09:00:00	1	Precipitación	0
69444	7	Sololá	710	Panajachel	8	Panajachel	10	Octubre	2023-10-31T00:00:00	2024-11-08T09:00:00	8	Radiación solar	226
69445	7	Sololá	710	Panajachel	8	Panajachel	10	Octubre	2023-10-31T00:00:00	2024-11-08T10:00:00	2	Temperatura media	21.1
69446	7	Sololá	710	Panajachel	8	Panajachel	10	Octubre	2023-10-31T00:00:00	2024-11-08T10:00:00	4	Temperatura máxima	21.3
69447	7	Sololá	710	Panajachel	8	Panajachel	10	Octubre	2023-10-31T00:00:00	2024-11-08T10:00:00	3	Temperatura mínima	21.1
69448	7	Sololá	710	Panajachel	8	Panajachel	10	Octubre	2023-10-31T00:00:00	2024-11-08T10:00:00	5	Humedad	65
69449	7	Sololá	710	Panajachel	8	Panajachel	10	Octubre	2023-10-31T00:00:00	2024-11-08T10:00:00	6	Velocidad del viento	8
69450	7	Sololá	710	Panajachel	8	Panajachel	10	Octubre	2023-10-31T00:00:00	2024-11-08T10:00:00	7	Dirección del viento	8.05
69451	7	Sololá	710	Panajachel	8	Panajachel	10	Octubre	2023-10-31T00:00:00	2024-11-08T10:00:00	1	Precipitación	0
69452	7	Sololá	710	Panajachel	8	Panajachel	10	Octubre	2023-10-31T00:00:00	2024-11-08T10:00:00	8	Radiación solar	176
69453	7	Sololá	710	Panajachel	8	Panajachel	10	Octubre	2023-10-31T00:00:00	2024-11-08T11:00:00	2	Temperatura media	21.9
69454	7	Sololá	710	Panajachel	8	Panajachel	10	Octubre	2023-10-31T00:00:00	2024-11-08T11:00:00	4	Temperatura máxima	21.9
69455	7	Sololá	710	Panajachel	8	Panajachel	10	Octubre	2023-10-31T00:00:00	2024-11-08T11:00:00	3	Temperatura mínima	21
69456	7	Sololá	710	Panajachel	8	Panajachel	10	Octubre	2023-10-31T00:00:00	2024-11-08T11:00:00	5	Humedad	64
69457	7	Sololá	710	Panajachel	8	Panajachel	10	Octubre	2023-10-31T00:00:00	2024-11-08T11:00:00	6	Velocidad del viento	8
69458	7	Sololá	710	Panajachel	8	Panajachel	10	Octubre	2023-10-31T00:00:00	2024-11-08T11:00:00	7	Dirección del viento	8.05
69459	7	Sololá	710	Panajachel	8	Panajachel	10	Octubre	2023-10-31T00:00:00	2024-11-08T11:00:00	1	Precipitación	0
69460	7	Sololá	710	Panajachel	8	Panajachel	10	Octubre	2023-10-31T00:00:00	2024-11-08T11:00:00	8	Radiación solar	257
69461	7	Sololá	710	Panajachel	8	Panajachel	10	Octubre	2023-10-31T00:00:00	2024-11-08T12:00:00	2	Temperatura media	21.3
69462	7	Sololá	710	Panajachel	8	Panajachel	10	Octubre	2023-10-31T00:00:00	2024-11-08T12:00:00	4	Temperatura máxima	22.2
69463	7	Sololá	710	Panajachel	8	Panajachel	10	Octubre	2023-10-31T00:00:00	2024-11-08T12:00:00	3	Temperatura mínima	21.3
69464	7	Sololá	710	Panajachel	8	Panajachel	10	Octubre	2023-10-31T00:00:00	2024-11-08T12:00:00	5	Humedad	68
69465	7	Sololá	710	Panajachel	8	Panajachel	10	Octubre	2023-10-31T00:00:00	2024-11-08T12:00:00	6	Velocidad del viento	4.8
69466	7	Sololá	710	Panajachel	8	Panajachel	10	Octubre	2023-10-31T00:00:00	2024-11-08T12:00:00	7	Dirección del viento	4.83
69467	7	Sololá	710	Panajachel	8	Panajachel	10	Octubre	2023-10-31T00:00:00	2024-11-08T12:00:00	1	Precipitación	0
69468	7	Sololá	710	Panajachel	8	Panajachel	10	Octubre	2023-10-31T00:00:00	2024-11-08T12:00:00	8	Radiación solar	291
69469	7	Sololá	710	Panajachel	8	Panajachel	10	Octubre	2023-10-31T00:00:00	2024-11-08T13:00:00	2	Temperatura media	21.1
69470	7	Sololá	710	Panajachel	8	Panajachel	10	Octubre	2023-10-31T00:00:00	2024-11-08T13:00:00	4	Temperatura máxima	21.6
69471	7	Sololá	710	Panajachel	8	Panajachel	10	Octubre	2023-10-31T00:00:00	2024-11-08T13:00:00	3	Temperatura mínima	21.1
69472	7	Sololá	710	Panajachel	8	Panajachel	10	Octubre	2023-10-31T00:00:00	2024-11-08T13:00:00	5	Humedad	68
69473	7	Sololá	710	Panajachel	8	Panajachel	10	Octubre	2023-10-31T00:00:00	2024-11-08T13:00:00	6	Velocidad del viento	8
69474	7	Sololá	710	Panajachel	8	Panajachel	10	Octubre	2023-10-31T00:00:00	2024-11-08T13:00:00	7	Dirección del viento	8.05
69475	7	Sololá	710	Panajachel	8	Panajachel	10	Octubre	2023-10-31T00:00:00	2024-11-08T13:00:00	1	Precipitación	0
69476	7	Sololá	710	Panajachel	8	Panajachel	10	Octubre	2023-10-31T00:00:00	2024-11-08T13:00:00	8	Radiación solar	186
69477	7	Sololá	710	Panajachel	8	Panajachel	10	Octubre	2023-10-31T00:00:00	2024-11-08T14:00:00	2	Temperatura media	19.7
69478	7	Sololá	710	Panajachel	8	Panajachel	10	Octubre	2023-10-31T00:00:00	2024-11-08T14:00:00	4	Temperatura máxima	21.1
69479	7	Sololá	710	Panajachel	8	Panajachel	10	Octubre	2023-10-31T00:00:00	2024-11-08T14:00:00	3	Temperatura mínima	19.7
69480	7	Sololá	710	Panajachel	8	Panajachel	10	Octubre	2023-10-31T00:00:00	2024-11-08T14:00:00	5	Humedad	76
69481	7	Sololá	710	Panajachel	8	Panajachel	10	Octubre	2023-10-31T00:00:00	2024-11-08T14:00:00	6	Velocidad del viento	4.8
69482	7	Sololá	710	Panajachel	8	Panajachel	10	Octubre	2023-10-31T00:00:00	2024-11-08T14:00:00	7	Dirección del viento	4.83
69483	7	Sololá	710	Panajachel	8	Panajachel	10	Octubre	2023-10-31T00:00:00	2024-11-08T14:00:00	1	Precipitación	0
69484	7	Sololá	710	Panajachel	8	Panajachel	10	Octubre	2023-10-31T00:00:00	2024-11-08T14:00:00	8	Radiación solar	132
69485	7	Sololá	710	Panajachel	8	Panajachel	10	Octubre	2023-10-31T00:00:00	2024-11-08T15:00:00	2	Temperatura media	18.4
69486	7	Sololá	710	Panajachel	8	Panajachel	10	Octubre	2023-10-31T00:00:00	2024-11-08T15:00:00	4	Temperatura máxima	19.7
69487	7	Sololá	710	Panajachel	8	Panajachel	10	Octubre	2023-10-31T00:00:00	2024-11-08T15:00:00	3	Temperatura mínima	18.4
69488	7	Sololá	710	Panajachel	8	Panajachel	10	Octubre	2023-10-31T00:00:00	2024-11-08T15:00:00	5	Humedad	84
69489	7	Sololá	710	Panajachel	8	Panajachel	10	Octubre	2023-10-31T00:00:00	2024-11-08T15:00:00	6	Velocidad del viento	3.2
69490	7	Sololá	710	Panajachel	8	Panajachel	10	Octubre	2023-10-31T00:00:00	2024-11-08T15:00:00	7	Dirección del viento	3.22
69491	7	Sololá	710	Panajachel	8	Panajachel	10	Octubre	2023-10-31T00:00:00	2024-11-08T15:00:00	1	Precipitación	0.4
69492	7	Sololá	710	Panajachel	8	Panajachel	10	Octubre	2023-10-31T00:00:00	2024-11-08T15:00:00	8	Radiación solar	85
69493	7	Sololá	710	Panajachel	8	Panajachel	10	Octubre	2023-10-31T00:00:00	2024-11-08T16:00:00	2	Temperatura media	17.9
69494	7	Sololá	710	Panajachel	8	Panajachel	10	Octubre	2023-10-31T00:00:00	2024-11-08T16:00:00	4	Temperatura máxima	18.4
69495	7	Sololá	710	Panajachel	8	Panajachel	10	Octubre	2023-10-31T00:00:00	2024-11-08T16:00:00	3	Temperatura mínima	17.8
69496	7	Sololá	710	Panajachel	8	Panajachel	10	Octubre	2023-10-31T00:00:00	2024-11-08T16:00:00	5	Humedad	83
69497	7	Sololá	710	Panajachel	8	Panajachel	10	Octubre	2023-10-31T00:00:00	2024-11-08T16:00:00	6	Velocidad del viento	3.2
69498	7	Sololá	710	Panajachel	8	Panajachel	10	Octubre	2023-10-31T00:00:00	2024-11-08T16:00:00	7	Dirección del viento	3.22
69499	7	Sololá	710	Panajachel	8	Panajachel	10	Octubre	2023-10-31T00:00:00	2024-11-08T16:00:00	1	Precipitación	0.4
69500	7	Sololá	710	Panajachel	8	Panajachel	10	Octubre	2023-10-31T00:00:00	2024-11-08T16:00:00	8	Radiación solar	56
69501	7	Sololá	710	Panajachel	8	Panajachel	10	Octubre	2023-10-31T00:00:00	2024-11-08T17:00:00	2	Temperatura media	17.7
69502	7	Sololá	710	Panajachel	8	Panajachel	10	Octubre	2023-10-31T00:00:00	2024-11-08T17:00:00	4	Temperatura máxima	18.1
69503	7	Sololá	710	Panajachel	8	Panajachel	10	Octubre	2023-10-31T00:00:00	2024-11-08T17:00:00	3	Temperatura mínima	17.7
69504	7	Sololá	710	Panajachel	8	Panajachel	10	Octubre	2023-10-31T00:00:00	2024-11-08T17:00:00	5	Humedad	84
69505	7	Sololá	710	Panajachel	8	Panajachel	10	Octubre	2023-10-31T00:00:00	2024-11-08T17:00:00	6	Velocidad del viento	6.4
69506	7	Sololá	710	Panajachel	8	Panajachel	10	Octubre	2023-10-31T00:00:00	2024-11-08T17:00:00	7	Dirección del viento	6.44
69507	7	Sololá	710	Panajachel	8	Panajachel	10	Octubre	2023-10-31T00:00:00	2024-11-08T17:00:00	1	Precipitación	0.8
69508	7	Sololá	710	Panajachel	8	Panajachel	10	Octubre	2023-10-31T00:00:00	2024-11-08T17:00:00	8	Radiación solar	22
69509	7	Sololá	710	Panajachel	8	Panajachel	10	Octubre	2023-10-31T00:00:00	2024-11-08T18:00:00	2	Temperatura media	17
69510	7	Sololá	710	Panajachel	8	Panajachel	10	Octubre	2023-10-31T00:00:00	2024-11-08T18:00:00	4	Temperatura máxima	17.7
69511	7	Sololá	710	Panajachel	8	Panajachel	10	Octubre	2023-10-31T00:00:00	2024-11-08T18:00:00	3	Temperatura mínima	16.9
69512	7	Sololá	710	Panajachel	8	Panajachel	10	Octubre	2023-10-31T00:00:00	2024-11-08T18:00:00	5	Humedad	86
69513	7	Sololá	710	Panajachel	8	Panajachel	10	Octubre	2023-10-31T00:00:00	2024-11-08T18:00:00	6	Velocidad del viento	1.6
69514	7	Sololá	710	Panajachel	8	Panajachel	10	Octubre	2023-10-31T00:00:00	2024-11-08T18:00:00	7	Dirección del viento	1.61
69515	7	Sololá	710	Panajachel	8	Panajachel	10	Octubre	2023-10-31T00:00:00	2024-11-08T18:00:00	1	Precipitación	0.4
69516	7	Sololá	710	Panajachel	8	Panajachel	10	Octubre	2023-10-31T00:00:00	2024-11-08T18:00:00	8	Radiación solar	2
69517	7	Sololá	710	Panajachel	8	Panajachel	10	Octubre	2023-10-31T00:00:00	2024-11-08T19:00:00	2	Temperatura media	18.2
69518	7	Sololá	710	Panajachel	8	Panajachel	10	Octubre	2023-10-31T00:00:00	2024-11-08T19:00:00	4	Temperatura máxima	18.3
69519	7	Sololá	710	Panajachel	8	Panajachel	10	Octubre	2023-10-31T00:00:00	2024-11-08T19:00:00	3	Temperatura mínima	17
69520	7	Sololá	710	Panajachel	8	Panajachel	10	Octubre	2023-10-31T00:00:00	2024-11-08T19:00:00	5	Humedad	76
69521	7	Sololá	710	Panajachel	8	Panajachel	10	Octubre	2023-10-31T00:00:00	2024-11-08T19:00:00	6	Velocidad del viento	3.2
69522	7	Sololá	710	Panajachel	8	Panajachel	10	Octubre	2023-10-31T00:00:00	2024-11-08T19:00:00	7	Dirección del viento	3.22
69523	7	Sololá	710	Panajachel	8	Panajachel	10	Octubre	2023-10-31T00:00:00	2024-11-08T19:00:00	1	Precipitación	0
69524	7	Sololá	710	Panajachel	8	Panajachel	10	Octubre	2023-10-31T00:00:00	2024-11-08T19:00:00	8	Radiación solar	0
69525	7	Sololá	710	Panajachel	8	Panajachel	10	Octubre	2023-10-31T00:00:00	2024-11-08T20:00:00	2	Temperatura media	18.2
69526	7	Sololá	710	Panajachel	8	Panajachel	10	Octubre	2023-10-31T00:00:00	2024-11-08T20:00:00	4	Temperatura máxima	18.6
69527	7	Sololá	710	Panajachel	8	Panajachel	10	Octubre	2023-10-31T00:00:00	2024-11-08T20:00:00	3	Temperatura mínima	18.1
69528	7	Sololá	710	Panajachel	8	Panajachel	10	Octubre	2023-10-31T00:00:00	2024-11-08T20:00:00	5	Humedad	77
69529	7	Sololá	710	Panajachel	8	Panajachel	10	Octubre	2023-10-31T00:00:00	2024-11-08T20:00:00	6	Velocidad del viento	4.8
69530	7	Sololá	710	Panajachel	8	Panajachel	10	Octubre	2023-10-31T00:00:00	2024-11-08T20:00:00	7	Dirección del viento	4.83
69531	7	Sololá	710	Panajachel	8	Panajachel	10	Octubre	2023-10-31T00:00:00	2024-11-08T20:00:00	1	Precipitación	0
69532	7	Sololá	710	Panajachel	8	Panajachel	10	Octubre	2023-10-31T00:00:00	2024-11-08T20:00:00	8	Radiación solar	0
69533	7	Sololá	710	Panajachel	8	Panajachel	10	Octubre	2023-10-31T00:00:00	2024-11-08T21:00:00	2	Temperatura media	18
69534	7	Sololá	710	Panajachel	8	Panajachel	10	Octubre	2023-10-31T00:00:00	2024-11-08T21:00:00	4	Temperatura máxima	18.3
69535	7	Sololá	710	Panajachel	8	Panajachel	10	Octubre	2023-10-31T00:00:00	2024-11-08T21:00:00	3	Temperatura mínima	17.9
69536	7	Sololá	710	Panajachel	8	Panajachel	10	Octubre	2023-10-31T00:00:00	2024-11-08T21:00:00	5	Humedad	77
69537	7	Sololá	710	Panajachel	8	Panajachel	10	Octubre	2023-10-31T00:00:00	2024-11-08T21:00:00	6	Velocidad del viento	4.8
69538	7	Sololá	710	Panajachel	8	Panajachel	10	Octubre	2023-10-31T00:00:00	2024-11-08T21:00:00	7	Dirección del viento	4.83
69539	7	Sololá	710	Panajachel	8	Panajachel	10	Octubre	2023-10-31T00:00:00	2024-11-08T21:00:00	1	Precipitación	0.2
69540	7	Sololá	710	Panajachel	8	Panajachel	10	Octubre	2023-10-31T00:00:00	2024-11-08T21:00:00	8	Radiación solar	0
69541	7	Sololá	710	Panajachel	8	Panajachel	10	Octubre	2023-10-31T00:00:00	2024-11-08T22:00:00	2	Temperatura media	17.6
69542	7	Sololá	710	Panajachel	8	Panajachel	10	Octubre	2023-10-31T00:00:00	2024-11-08T22:00:00	4	Temperatura máxima	18.1
69543	7	Sololá	710	Panajachel	8	Panajachel	10	Octubre	2023-10-31T00:00:00	2024-11-08T22:00:00	3	Temperatura mínima	17.6
69544	7	Sololá	710	Panajachel	8	Panajachel	10	Octubre	2023-10-31T00:00:00	2024-11-08T22:00:00	5	Humedad	75
69545	7	Sololá	710	Panajachel	8	Panajachel	10	Octubre	2023-10-31T00:00:00	2024-11-08T22:00:00	6	Velocidad del viento	8
69546	7	Sololá	710	Panajachel	8	Panajachel	10	Octubre	2023-10-31T00:00:00	2024-11-08T22:00:00	7	Dirección del viento	8.05
69547	7	Sololá	710	Panajachel	8	Panajachel	10	Octubre	2023-10-31T00:00:00	2024-11-08T22:00:00	1	Precipitación	0
69548	7	Sololá	710	Panajachel	8	Panajachel	10	Octubre	2023-10-31T00:00:00	2024-11-08T22:00:00	8	Radiación solar	0
69549	7	Sololá	710	Panajachel	8	Panajachel	10	Octubre	2023-10-31T00:00:00	2024-11-08T23:00:00	2	Temperatura media	17.8
69550	7	Sololá	710	Panajachel	8	Panajachel	10	Octubre	2023-10-31T00:00:00	2024-11-08T23:00:00	4	Temperatura máxima	17.8
69551	7	Sololá	710	Panajachel	8	Panajachel	10	Octubre	2023-10-31T00:00:00	2024-11-08T23:00:00	3	Temperatura mínima	17.6
69552	7	Sololá	710	Panajachel	8	Panajachel	10	Octubre	2023-10-31T00:00:00	2024-11-08T23:00:00	5	Humedad	75
69553	7	Sololá	710	Panajachel	8	Panajachel	10	Octubre	2023-10-31T00:00:00	2024-11-08T23:00:00	6	Velocidad del viento	8
69554	7	Sololá	710	Panajachel	8	Panajachel	10	Octubre	2023-10-31T00:00:00	2024-11-08T23:00:00	7	Dirección del viento	8.05
69555	7	Sololá	710	Panajachel	8	Panajachel	10	Octubre	2023-10-31T00:00:00	2024-11-08T23:00:00	1	Precipitación	0
69556	7	Sololá	710	Panajachel	8	Panajachel	10	Octubre	2023-10-31T00:00:00	2024-11-08T23:00:00	8	Radiación solar	0
69557	7	Sololá	710	Panajachel	8	Panajachel	11	Noviembre	2023-01-11T00:00:00	2024-11-08T00:00:00	2	Temperatura media	18.1
69558	7	Sololá	710	Panajachel	8	Panajachel	11	Noviembre	2023-01-11T00:00:00	2024-11-08T00:00:00	4	Temperatura máxima	18.2
69559	7	Sololá	710	Panajachel	8	Panajachel	11	Noviembre	2023-01-11T00:00:00	2024-11-08T00:00:00	3	Temperatura mínima	17.8
69560	7	Sololá	710	Panajachel	8	Panajachel	11	Noviembre	2023-01-11T00:00:00	2024-11-08T00:00:00	5	Humedad	74
69561	7	Sololá	710	Panajachel	8	Panajachel	11	Noviembre	2023-01-11T00:00:00	2024-11-08T00:00:00	6	Velocidad del viento	8
69562	7	Sololá	710	Panajachel	8	Panajachel	11	Noviembre	2023-01-11T00:00:00	2024-11-08T00:00:00	7	Dirección del viento	8.05
69563	7	Sololá	710	Panajachel	8	Panajachel	11	Noviembre	2023-01-11T00:00:00	2024-11-08T00:00:00	1	Precipitación	0
69564	7	Sololá	710	Panajachel	8	Panajachel	11	Noviembre	2023-01-11T00:00:00	2024-11-08T00:00:00	8	Radiación solar	0
69565	7	Sololá	710	Panajachel	8	Panajachel	11	Noviembre	2023-01-11T00:00:00	2024-11-08T01:00:00	2	Temperatura media	18.1
69566	7	Sololá	710	Panajachel	8	Panajachel	11	Noviembre	2023-01-11T00:00:00	2024-11-08T01:00:00	4	Temperatura máxima	18.2
69567	7	Sololá	710	Panajachel	8	Panajachel	11	Noviembre	2023-01-11T00:00:00	2024-11-08T01:00:00	3	Temperatura mínima	17.8
69568	7	Sololá	710	Panajachel	8	Panajachel	11	Noviembre	2023-01-11T00:00:00	2024-11-08T01:00:00	5	Humedad	68
69569	7	Sololá	710	Panajachel	8	Panajachel	11	Noviembre	2023-01-11T00:00:00	2024-11-08T01:00:00	6	Velocidad del viento	6.4
69570	7	Sololá	710	Panajachel	8	Panajachel	11	Noviembre	2023-01-11T00:00:00	2024-11-08T01:00:00	7	Dirección del viento	6.44
69571	7	Sololá	710	Panajachel	8	Panajachel	11	Noviembre	2023-01-11T00:00:00	2024-11-08T01:00:00	1	Precipitación	0
69572	7	Sololá	710	Panajachel	8	Panajachel	11	Noviembre	2023-01-11T00:00:00	2024-11-08T01:00:00	8	Radiación solar	0
69573	7	Sololá	710	Panajachel	8	Panajachel	11	Noviembre	2023-01-11T00:00:00	2024-11-08T02:00:00	2	Temperatura media	18
69574	7	Sololá	710	Panajachel	8	Panajachel	11	Noviembre	2023-01-11T00:00:00	2024-11-08T02:00:00	4	Temperatura máxima	18.1
69575	7	Sololá	710	Panajachel	8	Panajachel	11	Noviembre	2023-01-11T00:00:00	2024-11-08T02:00:00	3	Temperatura mínima	17.9
69576	7	Sololá	710	Panajachel	8	Panajachel	11	Noviembre	2023-01-11T00:00:00	2024-11-08T02:00:00	5	Humedad	69
69577	7	Sololá	710	Panajachel	8	Panajachel	11	Noviembre	2023-01-11T00:00:00	2024-11-08T02:00:00	6	Velocidad del viento	4.8
69578	7	Sololá	710	Panajachel	8	Panajachel	11	Noviembre	2023-01-11T00:00:00	2024-11-08T02:00:00	7	Dirección del viento	4.83
69579	7	Sololá	710	Panajachel	8	Panajachel	11	Noviembre	2023-01-11T00:00:00	2024-11-08T02:00:00	1	Precipitación	0
69580	7	Sololá	710	Panajachel	8	Panajachel	11	Noviembre	2023-01-11T00:00:00	2024-11-08T02:00:00	8	Radiación solar	0
69581	7	Sololá	710	Panajachel	8	Panajachel	11	Noviembre	2023-01-11T00:00:00	2024-11-08T03:00:00	2	Temperatura media	18
69582	7	Sololá	710	Panajachel	8	Panajachel	11	Noviembre	2023-01-11T00:00:00	2024-11-08T03:00:00	4	Temperatura máxima	18.1
69583	7	Sololá	710	Panajachel	8	Panajachel	11	Noviembre	2023-01-11T00:00:00	2024-11-08T03:00:00	3	Temperatura mínima	17.8
69584	7	Sololá	710	Panajachel	8	Panajachel	11	Noviembre	2023-01-11T00:00:00	2024-11-08T03:00:00	5	Humedad	70
69585	7	Sololá	710	Panajachel	8	Panajachel	11	Noviembre	2023-01-11T00:00:00	2024-11-08T03:00:00	6	Velocidad del viento	6.4
69586	7	Sololá	710	Panajachel	8	Panajachel	11	Noviembre	2023-01-11T00:00:00	2024-11-08T03:00:00	7	Dirección del viento	6.44
69587	7	Sololá	710	Panajachel	8	Panajachel	11	Noviembre	2023-01-11T00:00:00	2024-11-08T03:00:00	1	Precipitación	0
69588	7	Sololá	710	Panajachel	8	Panajachel	11	Noviembre	2023-01-11T00:00:00	2024-11-08T03:00:00	8	Radiación solar	0
69589	7	Sololá	710	Panajachel	8	Panajachel	11	Noviembre	2023-01-11T00:00:00	2024-11-08T04:00:00	2	Temperatura media	17.8
69590	7	Sololá	710	Panajachel	8	Panajachel	11	Noviembre	2023-01-11T00:00:00	2024-11-08T04:00:00	4	Temperatura máxima	18.1
69591	7	Sololá	710	Panajachel	8	Panajachel	11	Noviembre	2023-01-11T00:00:00	2024-11-08T04:00:00	3	Temperatura mínima	17.6
69592	7	Sololá	710	Panajachel	8	Panajachel	11	Noviembre	2023-01-11T00:00:00	2024-11-08T04:00:00	5	Humedad	71
69593	7	Sololá	710	Panajachel	8	Panajachel	11	Noviembre	2023-01-11T00:00:00	2024-11-08T04:00:00	6	Velocidad del viento	12.9
69594	7	Sololá	710	Panajachel	8	Panajachel	11	Noviembre	2023-01-11T00:00:00	2024-11-08T04:00:00	7	Dirección del viento	12.87
69595	7	Sololá	710	Panajachel	8	Panajachel	11	Noviembre	2023-01-11T00:00:00	2024-11-08T04:00:00	1	Precipitación	0
69596	7	Sololá	710	Panajachel	8	Panajachel	11	Noviembre	2023-01-11T00:00:00	2024-11-08T04:00:00	8	Radiación solar	0
69597	7	Sololá	710	Panajachel	8	Panajachel	11	Noviembre	2023-01-11T00:00:00	2024-11-08T05:00:00	2	Temperatura media	17.8
69598	7	Sololá	710	Panajachel	8	Panajachel	11	Noviembre	2023-01-11T00:00:00	2024-11-08T05:00:00	4	Temperatura máxima	17.9
69599	7	Sololá	710	Panajachel	8	Panajachel	11	Noviembre	2023-01-11T00:00:00	2024-11-08T05:00:00	3	Temperatura mínima	17.7
69600	7	Sololá	710	Panajachel	8	Panajachel	11	Noviembre	2023-01-11T00:00:00	2024-11-08T05:00:00	5	Humedad	74
69601	7	Sololá	710	Panajachel	8	Panajachel	11	Noviembre	2023-01-11T00:00:00	2024-11-08T05:00:00	6	Velocidad del viento	6.4
69602	7	Sololá	710	Panajachel	8	Panajachel	11	Noviembre	2023-01-11T00:00:00	2024-11-08T05:00:00	7	Dirección del viento	6.44
69603	7	Sololá	710	Panajachel	8	Panajachel	11	Noviembre	2023-01-11T00:00:00	2024-11-08T05:00:00	1	Precipitación	0
69604	7	Sololá	710	Panajachel	8	Panajachel	11	Noviembre	2023-01-11T00:00:00	2024-11-08T05:00:00	8	Radiación solar	0
69605	7	Sololá	710	Panajachel	8	Panajachel	11	Noviembre	2023-01-11T00:00:00	2024-11-08T06:00:00	2	Temperatura media	18.3
69606	7	Sololá	710	Panajachel	8	Panajachel	11	Noviembre	2023-01-11T00:00:00	2024-11-08T06:00:00	4	Temperatura máxima	18.3
69607	7	Sololá	710	Panajachel	8	Panajachel	11	Noviembre	2023-01-11T00:00:00	2024-11-08T06:00:00	3	Temperatura mínima	17.6
69608	7	Sololá	710	Panajachel	8	Panajachel	11	Noviembre	2023-01-11T00:00:00	2024-11-08T06:00:00	5	Humedad	74
69609	7	Sololá	710	Panajachel	8	Panajachel	11	Noviembre	2023-01-11T00:00:00	2024-11-08T06:00:00	6	Velocidad del viento	8
69610	7	Sololá	710	Panajachel	8	Panajachel	11	Noviembre	2023-01-11T00:00:00	2024-11-08T06:00:00	7	Dirección del viento	8.05
69611	7	Sololá	710	Panajachel	8	Panajachel	11	Noviembre	2023-01-11T00:00:00	2024-11-08T06:00:00	1	Precipitación	0
69612	7	Sololá	710	Panajachel	8	Panajachel	11	Noviembre	2023-01-11T00:00:00	2024-11-08T06:00:00	8	Radiación solar	0
69613	7	Sololá	710	Panajachel	8	Panajachel	11	Noviembre	2023-01-11T00:00:00	2024-11-08T07:00:00	2	Temperatura media	19
69614	7	Sololá	710	Panajachel	8	Panajachel	11	Noviembre	2023-01-11T00:00:00	2024-11-08T07:00:00	4	Temperatura máxima	19
69615	7	Sololá	710	Panajachel	8	Panajachel	11	Noviembre	2023-01-11T00:00:00	2024-11-08T07:00:00	3	Temperatura mínima	18.3
69616	7	Sololá	710	Panajachel	8	Panajachel	11	Noviembre	2023-01-11T00:00:00	2024-11-08T07:00:00	5	Humedad	73
69617	7	Sololá	710	Panajachel	8	Panajachel	11	Noviembre	2023-01-11T00:00:00	2024-11-08T07:00:00	6	Velocidad del viento	6.4
69618	7	Sololá	710	Panajachel	8	Panajachel	11	Noviembre	2023-01-11T00:00:00	2024-11-08T07:00:00	7	Dirección del viento	6.44
69619	7	Sololá	710	Panajachel	8	Panajachel	11	Noviembre	2023-01-11T00:00:00	2024-11-08T07:00:00	1	Precipitación	0
69620	7	Sololá	710	Panajachel	8	Panajachel	11	Noviembre	2023-01-11T00:00:00	2024-11-08T07:00:00	8	Radiación solar	17
69621	7	Sololá	710	Panajachel	8	Panajachel	11	Noviembre	2023-01-11T00:00:00	2024-11-08T08:00:00	2	Temperatura media	19.2
69622	7	Sololá	710	Panajachel	8	Panajachel	11	Noviembre	2023-01-11T00:00:00	2024-11-08T08:00:00	4	Temperatura máxima	19.3
69623	7	Sololá	710	Panajachel	8	Panajachel	11	Noviembre	2023-01-11T00:00:00	2024-11-08T08:00:00	3	Temperatura mínima	19.1
69624	7	Sololá	710	Panajachel	8	Panajachel	11	Noviembre	2023-01-11T00:00:00	2024-11-08T08:00:00	5	Humedad	73
69625	7	Sololá	710	Panajachel	8	Panajachel	11	Noviembre	2023-01-11T00:00:00	2024-11-08T08:00:00	6	Velocidad del viento	4.8
69626	7	Sololá	710	Panajachel	8	Panajachel	11	Noviembre	2023-01-11T00:00:00	2024-11-08T08:00:00	7	Dirección del viento	4.83
69627	7	Sololá	710	Panajachel	8	Panajachel	11	Noviembre	2023-01-11T00:00:00	2024-11-08T08:00:00	1	Precipitación	0
69628	7	Sololá	710	Panajachel	8	Panajachel	11	Noviembre	2023-01-11T00:00:00	2024-11-08T08:00:00	8	Radiación solar	75
69629	7	Sololá	710	Panajachel	8	Panajachel	11	Noviembre	2023-01-11T00:00:00	2024-11-08T09:00:00	2	Temperatura media	19.3
69630	7	Sololá	710	Panajachel	8	Panajachel	11	Noviembre	2023-01-11T00:00:00	2024-11-08T09:00:00	4	Temperatura máxima	19.4
69631	7	Sololá	710	Panajachel	8	Panajachel	11	Noviembre	2023-01-11T00:00:00	2024-11-08T09:00:00	3	Temperatura mínima	19.1
69632	7	Sololá	710	Panajachel	8	Panajachel	11	Noviembre	2023-01-11T00:00:00	2024-11-08T09:00:00	5	Humedad	72
69633	7	Sololá	710	Panajachel	8	Panajachel	11	Noviembre	2023-01-11T00:00:00	2024-11-08T09:00:00	6	Velocidad del viento	8
69634	7	Sololá	710	Panajachel	8	Panajachel	11	Noviembre	2023-01-11T00:00:00	2024-11-08T09:00:00	7	Dirección del viento	8.05
69635	7	Sololá	710	Panajachel	8	Panajachel	11	Noviembre	2023-01-11T00:00:00	2024-11-08T09:00:00	1	Precipitación	0
69636	7	Sololá	710	Panajachel	8	Panajachel	11	Noviembre	2023-01-11T00:00:00	2024-11-08T09:00:00	8	Radiación solar	143
69637	7	Sololá	710	Panajachel	8	Panajachel	11	Noviembre	2023-01-11T00:00:00	2024-11-08T10:00:00	2	Temperatura media	20.2
69638	7	Sololá	710	Panajachel	8	Panajachel	11	Noviembre	2023-01-11T00:00:00	2024-11-08T10:00:00	4	Temperatura máxima	20.2
69639	7	Sololá	710	Panajachel	8	Panajachel	11	Noviembre	2023-01-11T00:00:00	2024-11-08T10:00:00	3	Temperatura mínima	19.3
69640	7	Sololá	710	Panajachel	8	Panajachel	11	Noviembre	2023-01-11T00:00:00	2024-11-08T10:00:00	5	Humedad	71
69641	7	Sololá	710	Panajachel	8	Panajachel	11	Noviembre	2023-01-11T00:00:00	2024-11-08T10:00:00	6	Velocidad del viento	8
69642	7	Sololá	710	Panajachel	8	Panajachel	11	Noviembre	2023-01-11T00:00:00	2024-11-08T10:00:00	7	Dirección del viento	8.05
69643	7	Sololá	710	Panajachel	8	Panajachel	11	Noviembre	2023-01-11T00:00:00	2024-11-08T10:00:00	1	Precipitación	0
69644	7	Sololá	710	Panajachel	8	Panajachel	11	Noviembre	2023-01-11T00:00:00	2024-11-08T10:00:00	8	Radiación solar	276
69645	7	Sololá	710	Panajachel	8	Panajachel	11	Noviembre	2023-01-11T00:00:00	2024-11-08T11:00:00	2	Temperatura media	20.3
69646	7	Sololá	710	Panajachel	8	Panajachel	11	Noviembre	2023-01-11T00:00:00	2024-11-08T11:00:00	4	Temperatura máxima	20.7
69647	7	Sololá	710	Panajachel	8	Panajachel	11	Noviembre	2023-01-11T00:00:00	2024-11-08T11:00:00	3	Temperatura mínima	20.2
69648	7	Sololá	710	Panajachel	8	Panajachel	11	Noviembre	2023-01-11T00:00:00	2024-11-08T11:00:00	5	Humedad	72
69649	7	Sololá	710	Panajachel	8	Panajachel	11	Noviembre	2023-01-11T00:00:00	2024-11-08T11:00:00	6	Velocidad del viento	9.7
69650	7	Sololá	710	Panajachel	8	Panajachel	11	Noviembre	2023-01-11T00:00:00	2024-11-08T11:00:00	7	Dirección del viento	9.66
69651	7	Sololá	710	Panajachel	8	Panajachel	11	Noviembre	2023-01-11T00:00:00	2024-11-08T11:00:00	1	Precipitación	0
69652	7	Sololá	710	Panajachel	8	Panajachel	11	Noviembre	2023-01-11T00:00:00	2024-11-08T11:00:00	8	Radiación solar	332
69653	7	Sololá	710	Panajachel	8	Panajachel	11	Noviembre	2023-01-11T00:00:00	2024-11-08T12:00:00	2	Temperatura media	20.8
69654	7	Sololá	710	Panajachel	8	Panajachel	11	Noviembre	2023-01-11T00:00:00	2024-11-08T12:00:00	4	Temperatura máxima	21.2
69655	7	Sololá	710	Panajachel	8	Panajachel	11	Noviembre	2023-01-11T00:00:00	2024-11-08T12:00:00	3	Temperatura mínima	20.3
69656	7	Sololá	710	Panajachel	8	Panajachel	11	Noviembre	2023-01-11T00:00:00	2024-11-08T12:00:00	5	Humedad	70
69657	7	Sololá	710	Panajachel	8	Panajachel	11	Noviembre	2023-01-11T00:00:00	2024-11-08T12:00:00	6	Velocidad del viento	6.4
69658	7	Sololá	710	Panajachel	8	Panajachel	11	Noviembre	2023-01-11T00:00:00	2024-11-08T12:00:00	7	Dirección del viento	6.44
69659	7	Sololá	710	Panajachel	8	Panajachel	11	Noviembre	2023-01-11T00:00:00	2024-11-08T12:00:00	1	Precipitación	0
69660	7	Sololá	710	Panajachel	8	Panajachel	11	Noviembre	2023-01-11T00:00:00	2024-11-08T12:00:00	8	Radiación solar	326
69661	7	Sololá	710	Panajachel	8	Panajachel	11	Noviembre	2023-01-11T00:00:00	2024-11-08T13:00:00	2	Temperatura media	20.1
69662	7	Sololá	710	Panajachel	8	Panajachel	11	Noviembre	2023-01-11T00:00:00	2024-11-08T13:00:00	4	Temperatura máxima	20.8
69663	7	Sololá	710	Panajachel	8	Panajachel	11	Noviembre	2023-01-11T00:00:00	2024-11-08T13:00:00	3	Temperatura mínima	19.9
69664	7	Sololá	710	Panajachel	8	Panajachel	11	Noviembre	2023-01-11T00:00:00	2024-11-08T13:00:00	5	Humedad	72
69665	7	Sololá	710	Panajachel	8	Panajachel	11	Noviembre	2023-01-11T00:00:00	2024-11-08T13:00:00	6	Velocidad del viento	9.7
69666	7	Sololá	710	Panajachel	8	Panajachel	11	Noviembre	2023-01-11T00:00:00	2024-11-08T13:00:00	7	Dirección del viento	9.66
69667	7	Sololá	710	Panajachel	8	Panajachel	11	Noviembre	2023-01-11T00:00:00	2024-11-08T13:00:00	1	Precipitación	0
69668	7	Sololá	710	Panajachel	8	Panajachel	11	Noviembre	2023-01-11T00:00:00	2024-11-08T13:00:00	8	Radiación solar	299
69669	7	Sololá	710	Panajachel	8	Panajachel	11	Noviembre	2023-01-11T00:00:00	2024-11-08T14:00:00	2	Temperatura media	19.9
69670	7	Sololá	710	Panajachel	8	Panajachel	11	Noviembre	2023-01-11T00:00:00	2024-11-08T14:00:00	4	Temperatura máxima	20.2
69671	7	Sololá	710	Panajachel	8	Panajachel	11	Noviembre	2023-01-11T00:00:00	2024-11-08T14:00:00	3	Temperatura mínima	19.9
69672	7	Sololá	710	Panajachel	8	Panajachel	11	Noviembre	2023-01-11T00:00:00	2024-11-08T14:00:00	5	Humedad	72
69673	7	Sololá	710	Panajachel	8	Panajachel	11	Noviembre	2023-01-11T00:00:00	2024-11-08T14:00:00	6	Velocidad del viento	9.7
69674	7	Sololá	710	Panajachel	8	Panajachel	11	Noviembre	2023-01-11T00:00:00	2024-11-08T14:00:00	7	Dirección del viento	9.66
69675	7	Sololá	710	Panajachel	8	Panajachel	11	Noviembre	2023-01-11T00:00:00	2024-11-08T14:00:00	1	Precipitación	0
69676	7	Sololá	710	Panajachel	8	Panajachel	11	Noviembre	2023-01-11T00:00:00	2024-11-08T14:00:00	8	Radiación solar	242
69677	7	Sololá	710	Panajachel	8	Panajachel	11	Noviembre	2023-01-11T00:00:00	2024-11-08T15:00:00	2	Temperatura media	19.9
69678	7	Sololá	710	Panajachel	8	Panajachel	11	Noviembre	2023-01-11T00:00:00	2024-11-08T15:00:00	4	Temperatura máxima	20.3
69679	7	Sololá	710	Panajachel	8	Panajachel	11	Noviembre	2023-01-11T00:00:00	2024-11-08T15:00:00	3	Temperatura mínima	19.8
69680	7	Sololá	710	Panajachel	8	Panajachel	11	Noviembre	2023-01-11T00:00:00	2024-11-08T15:00:00	5	Humedad	69
69681	7	Sololá	710	Panajachel	8	Panajachel	11	Noviembre	2023-01-11T00:00:00	2024-11-08T15:00:00	6	Velocidad del viento	8
69682	7	Sololá	710	Panajachel	8	Panajachel	11	Noviembre	2023-01-11T00:00:00	2024-11-08T15:00:00	7	Dirección del viento	8.05
69683	7	Sololá	710	Panajachel	8	Panajachel	11	Noviembre	2023-01-11T00:00:00	2024-11-08T15:00:00	1	Precipitación	0
69684	7	Sololá	710	Panajachel	8	Panajachel	11	Noviembre	2023-01-11T00:00:00	2024-11-08T15:00:00	8	Radiación solar	185
69685	7	Sololá	710	Panajachel	8	Panajachel	11	Noviembre	2023-01-11T00:00:00	2024-11-08T16:00:00	2	Temperatura media	19.7
69686	7	Sololá	710	Panajachel	8	Panajachel	11	Noviembre	2023-01-11T00:00:00	2024-11-08T16:00:00	4	Temperatura máxima	20
69687	7	Sololá	710	Panajachel	8	Panajachel	11	Noviembre	2023-01-11T00:00:00	2024-11-08T16:00:00	3	Temperatura mínima	19.7
69688	7	Sololá	710	Panajachel	8	Panajachel	11	Noviembre	2023-01-11T00:00:00	2024-11-08T16:00:00	5	Humedad	70
69689	7	Sololá	710	Panajachel	8	Panajachel	11	Noviembre	2023-01-11T00:00:00	2024-11-08T16:00:00	6	Velocidad del viento	11.3
69690	7	Sololá	710	Panajachel	8	Panajachel	11	Noviembre	2023-01-11T00:00:00	2024-11-08T16:00:00	7	Dirección del viento	11.27
69691	7	Sololá	710	Panajachel	8	Panajachel	11	Noviembre	2023-01-11T00:00:00	2024-11-08T16:00:00	1	Precipitación	0
69692	7	Sololá	710	Panajachel	8	Panajachel	11	Noviembre	2023-01-11T00:00:00	2024-11-08T16:00:00	8	Radiación solar	135
69693	7	Sololá	710	Panajachel	8	Panajachel	11	Noviembre	2023-01-11T00:00:00	2024-11-08T17:00:00	2	Temperatura media	18.9
69694	7	Sololá	710	Panajachel	8	Panajachel	11	Noviembre	2023-01-11T00:00:00	2024-11-08T17:00:00	4	Temperatura máxima	19.7
69695	7	Sololá	710	Panajachel	8	Panajachel	11	Noviembre	2023-01-11T00:00:00	2024-11-08T17:00:00	3	Temperatura mínima	18.9
69696	7	Sololá	710	Panajachel	8	Panajachel	11	Noviembre	2023-01-11T00:00:00	2024-11-08T17:00:00	5	Humedad	74
69697	7	Sololá	710	Panajachel	8	Panajachel	11	Noviembre	2023-01-11T00:00:00	2024-11-08T17:00:00	6	Velocidad del viento	6.4
69698	7	Sololá	710	Panajachel	8	Panajachel	11	Noviembre	2023-01-11T00:00:00	2024-11-08T17:00:00	7	Dirección del viento	6.44
69699	7	Sololá	710	Panajachel	8	Panajachel	11	Noviembre	2023-01-11T00:00:00	2024-11-08T17:00:00	1	Precipitación	0
69700	7	Sololá	710	Panajachel	8	Panajachel	11	Noviembre	2023-01-11T00:00:00	2024-11-08T17:00:00	8	Radiación solar	67
69701	7	Sololá	710	Panajachel	8	Panajachel	11	Noviembre	2023-01-11T00:00:00	2024-11-08T18:00:00	2	Temperatura media	18.9
69702	7	Sololá	710	Panajachel	8	Panajachel	11	Noviembre	2023-01-11T00:00:00	2024-11-08T18:00:00	4	Temperatura máxima	18.9
69703	7	Sololá	710	Panajachel	8	Panajachel	11	Noviembre	2023-01-11T00:00:00	2024-11-08T18:00:00	3	Temperatura mínima	18.6
69704	7	Sololá	710	Panajachel	8	Panajachel	11	Noviembre	2023-01-11T00:00:00	2024-11-08T18:00:00	5	Humedad	73
69705	7	Sololá	710	Panajachel	8	Panajachel	11	Noviembre	2023-01-11T00:00:00	2024-11-08T18:00:00	6	Velocidad del viento	6.4
69706	7	Sololá	710	Panajachel	8	Panajachel	11	Noviembre	2023-01-11T00:00:00	2024-11-08T18:00:00	7	Dirección del viento	6.44
69707	7	Sololá	710	Panajachel	8	Panajachel	11	Noviembre	2023-01-11T00:00:00	2024-11-08T18:00:00	1	Precipitación	0
69708	7	Sololá	710	Panajachel	8	Panajachel	11	Noviembre	2023-01-11T00:00:00	2024-11-08T18:00:00	8	Radiación solar	12
69709	7	Sololá	710	Panajachel	8	Panajachel	11	Noviembre	2023-01-11T00:00:00	2024-11-08T19:00:00	2	Temperatura media	19.6
69710	7	Sololá	710	Panajachel	8	Panajachel	11	Noviembre	2023-01-11T00:00:00	2024-11-08T19:00:00	4	Temperatura máxima	19.6
69711	7	Sololá	710	Panajachel	8	Panajachel	11	Noviembre	2023-01-11T00:00:00	2024-11-08T19:00:00	3	Temperatura mínima	18.8
69712	7	Sololá	710	Panajachel	8	Panajachel	11	Noviembre	2023-01-11T00:00:00	2024-11-08T19:00:00	5	Humedad	71
69713	7	Sololá	710	Panajachel	8	Panajachel	11	Noviembre	2023-01-11T00:00:00	2024-11-08T19:00:00	6	Velocidad del viento	11.3
69714	7	Sololá	710	Panajachel	8	Panajachel	11	Noviembre	2023-01-11T00:00:00	2024-11-08T19:00:00	7	Dirección del viento	11.27
69715	7	Sololá	710	Panajachel	8	Panajachel	11	Noviembre	2023-01-11T00:00:00	2024-11-08T19:00:00	1	Precipitación	0
69716	7	Sololá	710	Panajachel	8	Panajachel	11	Noviembre	2023-01-11T00:00:00	2024-11-08T19:00:00	8	Radiación solar	0
69717	7	Sololá	710	Panajachel	8	Panajachel	11	Noviembre	2023-01-11T00:00:00	2024-11-08T20:00:00	2	Temperatura media	19.7
69718	7	Sololá	710	Panajachel	8	Panajachel	11	Noviembre	2023-01-11T00:00:00	2024-11-08T20:00:00	4	Temperatura máxima	20.2
69719	7	Sololá	710	Panajachel	8	Panajachel	11	Noviembre	2023-01-11T00:00:00	2024-11-08T20:00:00	3	Temperatura mínima	19.6
69720	7	Sololá	710	Panajachel	8	Panajachel	11	Noviembre	2023-01-11T00:00:00	2024-11-08T20:00:00	5	Humedad	71
69721	7	Sololá	710	Panajachel	8	Panajachel	11	Noviembre	2023-01-11T00:00:00	2024-11-08T20:00:00	6	Velocidad del viento	14.5
69722	7	Sololá	710	Panajachel	8	Panajachel	11	Noviembre	2023-01-11T00:00:00	2024-11-08T20:00:00	7	Dirección del viento	14.48
69723	7	Sololá	710	Panajachel	8	Panajachel	11	Noviembre	2023-01-11T00:00:00	2024-11-08T20:00:00	1	Precipitación	0
69724	7	Sololá	710	Panajachel	8	Panajachel	11	Noviembre	2023-01-11T00:00:00	2024-11-08T20:00:00	8	Radiación solar	0
69725	7	Sololá	710	Panajachel	8	Panajachel	11	Noviembre	2023-01-11T00:00:00	2024-11-08T21:00:00	2	Temperatura media	19.8
69726	7	Sololá	710	Panajachel	8	Panajachel	11	Noviembre	2023-01-11T00:00:00	2024-11-08T21:00:00	4	Temperatura máxima	19.9
69727	7	Sololá	710	Panajachel	8	Panajachel	11	Noviembre	2023-01-11T00:00:00	2024-11-08T21:00:00	3	Temperatura mínima	19.7
69728	7	Sololá	710	Panajachel	8	Panajachel	11	Noviembre	2023-01-11T00:00:00	2024-11-08T21:00:00	5	Humedad	71
69729	7	Sololá	710	Panajachel	8	Panajachel	11	Noviembre	2023-01-11T00:00:00	2024-11-08T21:00:00	6	Velocidad del viento	8
69730	7	Sololá	710	Panajachel	8	Panajachel	11	Noviembre	2023-01-11T00:00:00	2024-11-08T21:00:00	7	Dirección del viento	8.05
69731	7	Sololá	710	Panajachel	8	Panajachel	11	Noviembre	2023-01-11T00:00:00	2024-11-08T21:00:00	1	Precipitación	0
69732	7	Sololá	710	Panajachel	8	Panajachel	11	Noviembre	2023-01-11T00:00:00	2024-11-08T21:00:00	8	Radiación solar	0
69733	7	Sololá	710	Panajachel	8	Panajachel	11	Noviembre	2023-01-11T00:00:00	2024-11-08T22:00:00	2	Temperatura media	19.6
69734	7	Sololá	710	Panajachel	8	Panajachel	11	Noviembre	2023-01-11T00:00:00	2024-11-08T22:00:00	4	Temperatura máxima	19.8
69735	7	Sololá	710	Panajachel	8	Panajachel	11	Noviembre	2023-01-11T00:00:00	2024-11-08T22:00:00	3	Temperatura mínima	19.6
69736	7	Sololá	710	Panajachel	8	Panajachel	11	Noviembre	2023-01-11T00:00:00	2024-11-08T22:00:00	5	Humedad	69
69737	7	Sololá	710	Panajachel	8	Panajachel	11	Noviembre	2023-01-11T00:00:00	2024-11-08T22:00:00	6	Velocidad del viento	8
69738	7	Sololá	710	Panajachel	8	Panajachel	11	Noviembre	2023-01-11T00:00:00	2024-11-08T22:00:00	7	Dirección del viento	8.05
69739	7	Sololá	710	Panajachel	8	Panajachel	11	Noviembre	2023-01-11T00:00:00	2024-11-08T22:00:00	1	Precipitación	0
69740	7	Sololá	710	Panajachel	8	Panajachel	11	Noviembre	2023-01-11T00:00:00	2024-11-08T22:00:00	8	Radiación solar	0
69741	7	Sololá	710	Panajachel	8	Panajachel	11	Noviembre	2023-01-11T00:00:00	2024-11-08T23:00:00	2	Temperatura media	18.9
69742	7	Sololá	710	Panajachel	8	Panajachel	11	Noviembre	2023-01-11T00:00:00	2024-11-08T23:00:00	4	Temperatura máxima	19.6
69743	7	Sololá	710	Panajachel	8	Panajachel	11	Noviembre	2023-01-11T00:00:00	2024-11-08T23:00:00	3	Temperatura mínima	18.9
69744	7	Sololá	710	Panajachel	8	Panajachel	11	Noviembre	2023-01-11T00:00:00	2024-11-08T23:00:00	5	Humedad	68
69745	7	Sololá	710	Panajachel	8	Panajachel	11	Noviembre	2023-01-11T00:00:00	2024-11-08T23:00:00	6	Velocidad del viento	3.2
69746	7	Sololá	710	Panajachel	8	Panajachel	11	Noviembre	2023-01-11T00:00:00	2024-11-08T23:00:00	7	Dirección del viento	3.22
69747	7	Sololá	710	Panajachel	8	Panajachel	11	Noviembre	2023-01-11T00:00:00	2024-11-08T23:00:00	1	Precipitación	0
69748	7	Sololá	710	Panajachel	8	Panajachel	11	Noviembre	2023-01-11T00:00:00	2024-11-08T23:00:00	8	Radiación solar	0
69749	7	Sololá	710	Panajachel	8	Panajachel	11	Noviembre	2023-02-11T00:00:00	2024-11-08T00:00:00	2	Temperatura media	19.1
69750	7	Sololá	710	Panajachel	8	Panajachel	11	Noviembre	2023-02-11T00:00:00	2024-11-08T00:00:00	4	Temperatura máxima	19.1
69751	7	Sololá	710	Panajachel	8	Panajachel	11	Noviembre	2023-02-11T00:00:00	2024-11-08T00:00:00	3	Temperatura mínima	18.8
69752	7	Sololá	710	Panajachel	8	Panajachel	11	Noviembre	2023-02-11T00:00:00	2024-11-08T00:00:00	5	Humedad	69
69753	7	Sololá	710	Panajachel	8	Panajachel	11	Noviembre	2023-02-11T00:00:00	2024-11-08T00:00:00	6	Velocidad del viento	6.4
69754	7	Sololá	710	Panajachel	8	Panajachel	11	Noviembre	2023-02-11T00:00:00	2024-11-08T00:00:00	7	Dirección del viento	6.44
69755	7	Sololá	710	Panajachel	8	Panajachel	11	Noviembre	2023-02-11T00:00:00	2024-11-08T00:00:00	1	Precipitación	0
69756	7	Sololá	710	Panajachel	8	Panajachel	11	Noviembre	2023-02-11T00:00:00	2024-11-08T00:00:00	8	Radiación solar	0
69757	7	Sololá	710	Panajachel	8	Panajachel	11	Noviembre	2023-02-11T00:00:00	2024-11-08T01:00:00	2	Temperatura media	19.1
69758	7	Sololá	710	Panajachel	8	Panajachel	11	Noviembre	2023-02-11T00:00:00	2024-11-08T01:00:00	4	Temperatura máxima	19.4
69759	7	Sololá	710	Panajachel	8	Panajachel	11	Noviembre	2023-02-11T00:00:00	2024-11-08T01:00:00	3	Temperatura mínima	19
69760	7	Sololá	710	Panajachel	8	Panajachel	11	Noviembre	2023-02-11T00:00:00	2024-11-08T01:00:00	5	Humedad	72
69761	7	Sololá	710	Panajachel	8	Panajachel	11	Noviembre	2023-02-11T00:00:00	2024-11-08T01:00:00	6	Velocidad del viento	8
69762	7	Sololá	710	Panajachel	8	Panajachel	11	Noviembre	2023-02-11T00:00:00	2024-11-08T01:00:00	7	Dirección del viento	8.05
69763	7	Sololá	710	Panajachel	8	Panajachel	11	Noviembre	2023-02-11T00:00:00	2024-11-08T01:00:00	1	Precipitación	0
69764	7	Sololá	710	Panajachel	8	Panajachel	11	Noviembre	2023-02-11T00:00:00	2024-11-08T01:00:00	8	Radiación solar	0
69765	7	Sololá	710	Panajachel	8	Panajachel	11	Noviembre	2023-02-11T00:00:00	2024-11-08T02:00:00	2	Temperatura media	18.7
69766	7	Sololá	710	Panajachel	8	Panajachel	11	Noviembre	2023-02-11T00:00:00	2024-11-08T02:00:00	4	Temperatura máxima	19.1
69767	7	Sololá	710	Panajachel	8	Panajachel	11	Noviembre	2023-02-11T00:00:00	2024-11-08T02:00:00	3	Temperatura mínima	18.7
69768	7	Sololá	710	Panajachel	8	Panajachel	11	Noviembre	2023-02-11T00:00:00	2024-11-08T02:00:00	5	Humedad	73
69769	7	Sololá	710	Panajachel	8	Panajachel	11	Noviembre	2023-02-11T00:00:00	2024-11-08T02:00:00	6	Velocidad del viento	6.4
69770	7	Sololá	710	Panajachel	8	Panajachel	11	Noviembre	2023-02-11T00:00:00	2024-11-08T02:00:00	7	Dirección del viento	6.44
69771	7	Sololá	710	Panajachel	8	Panajachel	11	Noviembre	2023-02-11T00:00:00	2024-11-08T02:00:00	1	Precipitación	0
69772	7	Sololá	710	Panajachel	8	Panajachel	11	Noviembre	2023-02-11T00:00:00	2024-11-08T02:00:00	8	Radiación solar	0
69773	7	Sololá	710	Panajachel	8	Panajachel	11	Noviembre	2023-02-11T00:00:00	2024-11-08T03:00:00	2	Temperatura media	19.1
69774	7	Sololá	710	Panajachel	8	Panajachel	11	Noviembre	2023-02-11T00:00:00	2024-11-08T03:00:00	4	Temperatura máxima	19.2
69775	7	Sololá	710	Panajachel	8	Panajachel	11	Noviembre	2023-02-11T00:00:00	2024-11-08T03:00:00	3	Temperatura mínima	18.7
69776	7	Sololá	710	Panajachel	8	Panajachel	11	Noviembre	2023-02-11T00:00:00	2024-11-08T03:00:00	5	Humedad	74
69777	7	Sololá	710	Panajachel	8	Panajachel	11	Noviembre	2023-02-11T00:00:00	2024-11-08T03:00:00	6	Velocidad del viento	1.6
69778	7	Sololá	710	Panajachel	8	Panajachel	11	Noviembre	2023-02-11T00:00:00	2024-11-08T03:00:00	7	Dirección del viento	1.61
69779	7	Sololá	710	Panajachel	8	Panajachel	11	Noviembre	2023-02-11T00:00:00	2024-11-08T03:00:00	1	Precipitación	0
69780	7	Sololá	710	Panajachel	8	Panajachel	11	Noviembre	2023-02-11T00:00:00	2024-11-08T03:00:00	8	Radiación solar	0
69781	7	Sololá	710	Panajachel	8	Panajachel	11	Noviembre	2023-02-11T00:00:00	2024-11-08T04:00:00	2	Temperatura media	19.2
69782	7	Sololá	710	Panajachel	8	Panajachel	11	Noviembre	2023-02-11T00:00:00	2024-11-08T04:00:00	4	Temperatura máxima	19.4
69783	7	Sololá	710	Panajachel	8	Panajachel	11	Noviembre	2023-02-11T00:00:00	2024-11-08T04:00:00	3	Temperatura mínima	19
69784	7	Sololá	710	Panajachel	8	Panajachel	11	Noviembre	2023-02-11T00:00:00	2024-11-08T04:00:00	5	Humedad	74
69785	7	Sololá	710	Panajachel	8	Panajachel	11	Noviembre	2023-02-11T00:00:00	2024-11-08T04:00:00	6	Velocidad del viento	3.2
69786	7	Sololá	710	Panajachel	8	Panajachel	11	Noviembre	2023-02-11T00:00:00	2024-11-08T04:00:00	7	Dirección del viento	3.22
69787	7	Sololá	710	Panajachel	8	Panajachel	11	Noviembre	2023-02-11T00:00:00	2024-11-08T04:00:00	1	Precipitación	0
69788	7	Sololá	710	Panajachel	8	Panajachel	11	Noviembre	2023-02-11T00:00:00	2024-11-08T04:00:00	8	Radiación solar	0
69789	7	Sololá	710	Panajachel	8	Panajachel	11	Noviembre	2023-02-11T00:00:00	2024-11-08T05:00:00	2	Temperatura media	19.7
69790	7	Sololá	710	Panajachel	8	Panajachel	11	Noviembre	2023-02-11T00:00:00	2024-11-08T05:00:00	4	Temperatura máxima	19.7
69791	7	Sololá	710	Panajachel	8	Panajachel	11	Noviembre	2023-02-11T00:00:00	2024-11-08T05:00:00	3	Temperatura mínima	19.1
69792	7	Sololá	710	Panajachel	8	Panajachel	11	Noviembre	2023-02-11T00:00:00	2024-11-08T05:00:00	5	Humedad	73
69793	7	Sololá	710	Panajachel	8	Panajachel	11	Noviembre	2023-02-11T00:00:00	2024-11-08T05:00:00	6	Velocidad del viento	4.8
69794	7	Sololá	710	Panajachel	8	Panajachel	11	Noviembre	2023-02-11T00:00:00	2024-11-08T05:00:00	7	Dirección del viento	4.83
69795	7	Sololá	710	Panajachel	8	Panajachel	11	Noviembre	2023-02-11T00:00:00	2024-11-08T05:00:00	1	Precipitación	0
69796	7	Sololá	710	Panajachel	8	Panajachel	11	Noviembre	2023-02-11T00:00:00	2024-11-08T05:00:00	8	Radiación solar	0
69797	7	Sololá	710	Panajachel	8	Panajachel	11	Noviembre	2023-02-11T00:00:00	2024-11-08T06:00:00	2	Temperatura media	20.9
69798	7	Sololá	710	Panajachel	8	Panajachel	11	Noviembre	2023-02-11T00:00:00	2024-11-08T06:00:00	4	Temperatura máxima	20.9
69799	7	Sololá	710	Panajachel	8	Panajachel	11	Noviembre	2023-02-11T00:00:00	2024-11-08T06:00:00	3	Temperatura mínima	19.7
69800	7	Sololá	710	Panajachel	8	Panajachel	11	Noviembre	2023-02-11T00:00:00	2024-11-08T06:00:00	5	Humedad	69
69801	7	Sololá	710	Panajachel	8	Panajachel	11	Noviembre	2023-02-11T00:00:00	2024-11-08T06:00:00	6	Velocidad del viento	12.9
69802	7	Sololá	710	Panajachel	8	Panajachel	11	Noviembre	2023-02-11T00:00:00	2024-11-08T06:00:00	7	Dirección del viento	12.87
69803	7	Sololá	710	Panajachel	8	Panajachel	11	Noviembre	2023-02-11T00:00:00	2024-11-08T06:00:00	1	Precipitación	0
69804	7	Sololá	710	Panajachel	8	Panajachel	11	Noviembre	2023-02-11T00:00:00	2024-11-08T06:00:00	8	Radiación solar	0
69805	7	Sololá	710	Panajachel	8	Panajachel	11	Noviembre	2023-02-11T00:00:00	2024-11-08T07:00:00	2	Temperatura media	20.7
69806	7	Sololá	710	Panajachel	8	Panajachel	11	Noviembre	2023-02-11T00:00:00	2024-11-08T07:00:00	4	Temperatura máxima	21
69807	7	Sololá	710	Panajachel	8	Panajachel	11	Noviembre	2023-02-11T00:00:00	2024-11-08T07:00:00	3	Temperatura mínima	20.2
69808	7	Sololá	710	Panajachel	8	Panajachel	11	Noviembre	2023-02-11T00:00:00	2024-11-08T07:00:00	5	Humedad	71
69809	7	Sololá	710	Panajachel	8	Panajachel	11	Noviembre	2023-02-11T00:00:00	2024-11-08T07:00:00	6	Velocidad del viento	12.9
69810	7	Sololá	710	Panajachel	8	Panajachel	11	Noviembre	2023-02-11T00:00:00	2024-11-08T07:00:00	7	Dirección del viento	12.87
69811	7	Sololá	710	Panajachel	8	Panajachel	11	Noviembre	2023-02-11T00:00:00	2024-11-08T07:00:00	1	Precipitación	0
69812	7	Sololá	710	Panajachel	8	Panajachel	11	Noviembre	2023-02-11T00:00:00	2024-11-08T07:00:00	8	Radiación solar	63
69813	7	Sololá	710	Panajachel	8	Panajachel	11	Noviembre	2023-02-11T00:00:00	2024-11-08T08:00:00	2	Temperatura media	21.7
69814	7	Sololá	710	Panajachel	8	Panajachel	11	Noviembre	2023-02-11T00:00:00	2024-11-08T08:00:00	4	Temperatura máxima	21.7
69815	7	Sololá	710	Panajachel	8	Panajachel	11	Noviembre	2023-02-11T00:00:00	2024-11-08T08:00:00	3	Temperatura mínima	20.5
69816	7	Sololá	710	Panajachel	8	Panajachel	11	Noviembre	2023-02-11T00:00:00	2024-11-08T08:00:00	5	Humedad	70
69817	7	Sololá	710	Panajachel	8	Panajachel	11	Noviembre	2023-02-11T00:00:00	2024-11-08T08:00:00	6	Velocidad del viento	12.9
69818	7	Sololá	710	Panajachel	8	Panajachel	11	Noviembre	2023-02-11T00:00:00	2024-11-08T08:00:00	7	Dirección del viento	12.87
69819	7	Sololá	710	Panajachel	8	Panajachel	11	Noviembre	2023-02-11T00:00:00	2024-11-08T08:00:00	1	Precipitación	0
69820	7	Sololá	710	Panajachel	8	Panajachel	11	Noviembre	2023-02-11T00:00:00	2024-11-08T08:00:00	8	Radiación solar	320
69821	7	Sololá	710	Panajachel	8	Panajachel	11	Noviembre	2023-02-11T00:00:00	2024-11-08T09:00:00	2	Temperatura media	22
69822	7	Sololá	710	Panajachel	8	Panajachel	11	Noviembre	2023-02-11T00:00:00	2024-11-08T09:00:00	4	Temperatura máxima	22.3
69823	7	Sololá	710	Panajachel	8	Panajachel	11	Noviembre	2023-02-11T00:00:00	2024-11-08T09:00:00	3	Temperatura mínima	21.5
69824	7	Sololá	710	Panajachel	8	Panajachel	11	Noviembre	2023-02-11T00:00:00	2024-11-08T09:00:00	5	Humedad	69
69825	7	Sololá	710	Panajachel	8	Panajachel	11	Noviembre	2023-02-11T00:00:00	2024-11-08T09:00:00	6	Velocidad del viento	12.9
69826	7	Sololá	710	Panajachel	8	Panajachel	11	Noviembre	2023-02-11T00:00:00	2024-11-08T09:00:00	7	Dirección del viento	12.87
69827	7	Sololá	710	Panajachel	8	Panajachel	11	Noviembre	2023-02-11T00:00:00	2024-11-08T09:00:00	1	Precipitación	0
69828	7	Sololá	710	Panajachel	8	Panajachel	11	Noviembre	2023-02-11T00:00:00	2024-11-08T09:00:00	8	Radiación solar	402
69829	7	Sololá	710	Panajachel	8	Panajachel	11	Noviembre	2023-02-11T00:00:00	2024-11-08T10:00:00	2	Temperatura media	24.3
69830	7	Sololá	710	Panajachel	8	Panajachel	11	Noviembre	2023-02-11T00:00:00	2024-11-08T10:00:00	4	Temperatura máxima	24.3
69831	7	Sololá	710	Panajachel	8	Panajachel	11	Noviembre	2023-02-11T00:00:00	2024-11-08T10:00:00	3	Temperatura mínima	22
69832	7	Sololá	710	Panajachel	8	Panajachel	11	Noviembre	2023-02-11T00:00:00	2024-11-08T10:00:00	5	Humedad	63
69833	7	Sololá	710	Panajachel	8	Panajachel	11	Noviembre	2023-02-11T00:00:00	2024-11-08T10:00:00	6	Velocidad del viento	8
69834	7	Sololá	710	Panajachel	8	Panajachel	11	Noviembre	2023-02-11T00:00:00	2024-11-08T10:00:00	7	Dirección del viento	8.05
69835	7	Sololá	710	Panajachel	8	Panajachel	11	Noviembre	2023-02-11T00:00:00	2024-11-08T10:00:00	1	Precipitación	0
69836	7	Sololá	710	Panajachel	8	Panajachel	11	Noviembre	2023-02-11T00:00:00	2024-11-08T10:00:00	8	Radiación solar	804
69837	7	Sololá	710	Panajachel	8	Panajachel	11	Noviembre	2023-02-11T00:00:00	2024-11-08T11:00:00	2	Temperatura media	24.1
69838	7	Sololá	710	Panajachel	8	Panajachel	11	Noviembre	2023-02-11T00:00:00	2024-11-08T11:00:00	4	Temperatura máxima	24.4
69839	7	Sololá	710	Panajachel	8	Panajachel	11	Noviembre	2023-02-11T00:00:00	2024-11-08T11:00:00	3	Temperatura mínima	23.6
69840	7	Sololá	710	Panajachel	8	Panajachel	11	Noviembre	2023-02-11T00:00:00	2024-11-08T11:00:00	5	Humedad	64
69841	7	Sololá	710	Panajachel	8	Panajachel	11	Noviembre	2023-02-11T00:00:00	2024-11-08T11:00:00	6	Velocidad del viento	8
69842	7	Sololá	710	Panajachel	8	Panajachel	11	Noviembre	2023-02-11T00:00:00	2024-11-08T11:00:00	7	Dirección del viento	8.05
69843	7	Sololá	710	Panajachel	8	Panajachel	11	Noviembre	2023-02-11T00:00:00	2024-11-08T11:00:00	1	Precipitación	0
69844	7	Sololá	710	Panajachel	8	Panajachel	11	Noviembre	2023-02-11T00:00:00	2024-11-08T11:00:00	8	Radiación solar	780
69845	7	Sololá	710	Panajachel	8	Panajachel	11	Noviembre	2023-02-11T00:00:00	2024-11-08T12:00:00	2	Temperatura media	24.6
69846	7	Sololá	710	Panajachel	8	Panajachel	11	Noviembre	2023-02-11T00:00:00	2024-11-08T12:00:00	4	Temperatura máxima	25.2
69847	7	Sololá	710	Panajachel	8	Panajachel	11	Noviembre	2023-02-11T00:00:00	2024-11-08T12:00:00	3	Temperatura mínima	23.6
69848	7	Sololá	710	Panajachel	8	Panajachel	11	Noviembre	2023-02-11T00:00:00	2024-11-08T12:00:00	5	Humedad	63
69849	7	Sololá	710	Panajachel	8	Panajachel	11	Noviembre	2023-02-11T00:00:00	2024-11-08T12:00:00	6	Velocidad del viento	8
69850	7	Sololá	710	Panajachel	8	Panajachel	11	Noviembre	2023-02-11T00:00:00	2024-11-08T12:00:00	7	Dirección del viento	8.05
69851	7	Sololá	710	Panajachel	8	Panajachel	11	Noviembre	2023-02-11T00:00:00	2024-11-08T12:00:00	1	Precipitación	0
69852	7	Sololá	710	Panajachel	8	Panajachel	11	Noviembre	2023-02-11T00:00:00	2024-11-08T12:00:00	8	Radiación solar	938
69853	7	Sololá	710	Panajachel	8	Panajachel	11	Noviembre	2023-02-11T00:00:00	2024-11-08T13:00:00	2	Temperatura media	24.2
69854	7	Sololá	710	Panajachel	8	Panajachel	11	Noviembre	2023-02-11T00:00:00	2024-11-08T13:00:00	4	Temperatura máxima	24.8
69855	7	Sololá	710	Panajachel	8	Panajachel	11	Noviembre	2023-02-11T00:00:00	2024-11-08T13:00:00	3	Temperatura mínima	23.6
69856	7	Sololá	710	Panajachel	8	Panajachel	11	Noviembre	2023-02-11T00:00:00	2024-11-08T13:00:00	5	Humedad	62
69857	7	Sololá	710	Panajachel	8	Panajachel	11	Noviembre	2023-02-11T00:00:00	2024-11-08T13:00:00	6	Velocidad del viento	6.4
69858	7	Sololá	710	Panajachel	8	Panajachel	11	Noviembre	2023-02-11T00:00:00	2024-11-08T13:00:00	7	Dirección del viento	6.44
69859	7	Sololá	710	Panajachel	8	Panajachel	11	Noviembre	2023-02-11T00:00:00	2024-11-08T13:00:00	1	Precipitación	0
69860	7	Sololá	710	Panajachel	8	Panajachel	11	Noviembre	2023-02-11T00:00:00	2024-11-08T13:00:00	8	Radiación solar	579
69861	7	Sololá	710	Panajachel	8	Panajachel	11	Noviembre	2023-02-11T00:00:00	2024-11-08T14:00:00	2	Temperatura media	22.3
69862	7	Sololá	710	Panajachel	8	Panajachel	11	Noviembre	2023-02-11T00:00:00	2024-11-08T14:00:00	4	Temperatura máxima	24.3
69863	7	Sololá	710	Panajachel	8	Panajachel	11	Noviembre	2023-02-11T00:00:00	2024-11-08T14:00:00	3	Temperatura mínima	22.2
69864	7	Sololá	710	Panajachel	8	Panajachel	11	Noviembre	2023-02-11T00:00:00	2024-11-08T14:00:00	5	Humedad	68
69865	7	Sololá	710	Panajachel	8	Panajachel	11	Noviembre	2023-02-11T00:00:00	2024-11-08T14:00:00	6	Velocidad del viento	6.4
69866	7	Sololá	710	Panajachel	8	Panajachel	11	Noviembre	2023-02-11T00:00:00	2024-11-08T14:00:00	7	Dirección del viento	6.44
69867	7	Sololá	710	Panajachel	8	Panajachel	11	Noviembre	2023-02-11T00:00:00	2024-11-08T14:00:00	1	Precipitación	0
69868	7	Sololá	710	Panajachel	8	Panajachel	11	Noviembre	2023-02-11T00:00:00	2024-11-08T14:00:00	8	Radiación solar	351
69869	7	Sololá	710	Panajachel	8	Panajachel	11	Noviembre	2023-02-11T00:00:00	2024-11-08T15:00:00	2	Temperatura media	22.1
69870	7	Sololá	710	Panajachel	8	Panajachel	11	Noviembre	2023-02-11T00:00:00	2024-11-08T15:00:00	4	Temperatura máxima	22.6
69871	7	Sololá	710	Panajachel	8	Panajachel	11	Noviembre	2023-02-11T00:00:00	2024-11-08T15:00:00	3	Temperatura mínima	22
69872	7	Sololá	710	Panajachel	8	Panajachel	11	Noviembre	2023-02-11T00:00:00	2024-11-08T15:00:00	5	Humedad	69
69873	7	Sololá	710	Panajachel	8	Panajachel	11	Noviembre	2023-02-11T00:00:00	2024-11-08T15:00:00	6	Velocidad del viento	6.4
69874	7	Sololá	710	Panajachel	8	Panajachel	11	Noviembre	2023-02-11T00:00:00	2024-11-08T15:00:00	7	Dirección del viento	6.44
69875	7	Sololá	710	Panajachel	8	Panajachel	11	Noviembre	2023-02-11T00:00:00	2024-11-08T15:00:00	1	Precipitación	0
69876	7	Sololá	710	Panajachel	8	Panajachel	11	Noviembre	2023-02-11T00:00:00	2024-11-08T15:00:00	8	Radiación solar	258
69877	7	Sololá	710	Panajachel	8	Panajachel	11	Noviembre	2023-02-11T00:00:00	2024-11-08T16:00:00	2	Temperatura media	21.4
69878	7	Sololá	710	Panajachel	8	Panajachel	11	Noviembre	2023-02-11T00:00:00	2024-11-08T16:00:00	4	Temperatura máxima	22.2
69879	7	Sololá	710	Panajachel	8	Panajachel	11	Noviembre	2023-02-11T00:00:00	2024-11-08T16:00:00	3	Temperatura mínima	21.4
69880	7	Sololá	710	Panajachel	8	Panajachel	11	Noviembre	2023-02-11T00:00:00	2024-11-08T16:00:00	5	Humedad	69
69881	7	Sololá	710	Panajachel	8	Panajachel	11	Noviembre	2023-02-11T00:00:00	2024-11-08T16:00:00	6	Velocidad del viento	8
69882	7	Sololá	710	Panajachel	8	Panajachel	11	Noviembre	2023-02-11T00:00:00	2024-11-08T16:00:00	7	Dirección del viento	8.05
69883	7	Sololá	710	Panajachel	8	Panajachel	11	Noviembre	2023-02-11T00:00:00	2024-11-08T16:00:00	1	Precipitación	0
69884	7	Sololá	710	Panajachel	8	Panajachel	11	Noviembre	2023-02-11T00:00:00	2024-11-08T16:00:00	8	Radiación solar	132
69885	7	Sololá	710	Panajachel	8	Panajachel	11	Noviembre	2023-02-11T00:00:00	2024-11-08T17:00:00	2	Temperatura media	21.2
69886	7	Sololá	710	Panajachel	8	Panajachel	11	Noviembre	2023-02-11T00:00:00	2024-11-08T17:00:00	4	Temperatura máxima	21.4
69887	7	Sololá	710	Panajachel	8	Panajachel	11	Noviembre	2023-02-11T00:00:00	2024-11-08T17:00:00	3	Temperatura mínima	21.2
69888	7	Sololá	710	Panajachel	8	Panajachel	11	Noviembre	2023-02-11T00:00:00	2024-11-08T17:00:00	5	Humedad	70
69889	7	Sololá	710	Panajachel	8	Panajachel	11	Noviembre	2023-02-11T00:00:00	2024-11-08T17:00:00	6	Velocidad del viento	9.7
69890	7	Sololá	710	Panajachel	8	Panajachel	11	Noviembre	2023-02-11T00:00:00	2024-11-08T17:00:00	7	Dirección del viento	9.66
69891	7	Sololá	710	Panajachel	8	Panajachel	11	Noviembre	2023-02-11T00:00:00	2024-11-08T17:00:00	1	Precipitación	0
69892	7	Sololá	710	Panajachel	8	Panajachel	11	Noviembre	2023-02-11T00:00:00	2024-11-08T17:00:00	8	Radiación solar	67
69893	7	Sololá	710	Panajachel	8	Panajachel	11	Noviembre	2023-02-11T00:00:00	2024-11-08T18:00:00	2	Temperatura media	20.6
69894	7	Sololá	710	Panajachel	8	Panajachel	11	Noviembre	2023-02-11T00:00:00	2024-11-08T18:00:00	4	Temperatura máxima	21.2
69895	7	Sololá	710	Panajachel	8	Panajachel	11	Noviembre	2023-02-11T00:00:00	2024-11-08T18:00:00	3	Temperatura mínima	20.6
69896	7	Sololá	710	Panajachel	8	Panajachel	11	Noviembre	2023-02-11T00:00:00	2024-11-08T18:00:00	5	Humedad	71
69897	7	Sololá	710	Panajachel	8	Panajachel	11	Noviembre	2023-02-11T00:00:00	2024-11-08T18:00:00	6	Velocidad del viento	4.8
69898	7	Sololá	710	Panajachel	8	Panajachel	11	Noviembre	2023-02-11T00:00:00	2024-11-08T18:00:00	7	Dirección del viento	4.83
69899	7	Sololá	710	Panajachel	8	Panajachel	11	Noviembre	2023-02-11T00:00:00	2024-11-08T18:00:00	1	Precipitación	0
69900	7	Sololá	710	Panajachel	8	Panajachel	11	Noviembre	2023-02-11T00:00:00	2024-11-08T18:00:00	8	Radiación solar	9
69901	7	Sololá	710	Panajachel	8	Panajachel	11	Noviembre	2023-02-11T00:00:00	2024-11-08T19:00:00	2	Temperatura media	20.3
69902	7	Sololá	710	Panajachel	8	Panajachel	11	Noviembre	2023-02-11T00:00:00	2024-11-08T19:00:00	4	Temperatura máxima	20.6
69903	7	Sololá	710	Panajachel	8	Panajachel	11	Noviembre	2023-02-11T00:00:00	2024-11-08T19:00:00	3	Temperatura mínima	20.3
69904	7	Sololá	710	Panajachel	8	Panajachel	11	Noviembre	2023-02-11T00:00:00	2024-11-08T19:00:00	5	Humedad	72
69905	7	Sololá	710	Panajachel	8	Panajachel	11	Noviembre	2023-02-11T00:00:00	2024-11-08T19:00:00	6	Velocidad del viento	4.8
69906	7	Sololá	710	Panajachel	8	Panajachel	11	Noviembre	2023-02-11T00:00:00	2024-11-08T19:00:00	7	Dirección del viento	4.83
69907	7	Sololá	710	Panajachel	8	Panajachel	11	Noviembre	2023-02-11T00:00:00	2024-11-08T19:00:00	1	Precipitación	0
69908	7	Sololá	710	Panajachel	8	Panajachel	11	Noviembre	2023-02-11T00:00:00	2024-11-08T19:00:00	8	Radiación solar	0
69909	7	Sololá	710	Panajachel	8	Panajachel	11	Noviembre	2023-02-11T00:00:00	2024-11-08T20:00:00	2	Temperatura media	20.6
69910	7	Sololá	710	Panajachel	8	Panajachel	11	Noviembre	2023-02-11T00:00:00	2024-11-08T20:00:00	4	Temperatura máxima	20.6
69911	7	Sololá	710	Panajachel	8	Panajachel	11	Noviembre	2023-02-11T00:00:00	2024-11-08T20:00:00	3	Temperatura mínima	20.3
69912	7	Sololá	710	Panajachel	8	Panajachel	11	Noviembre	2023-02-11T00:00:00	2024-11-08T20:00:00	5	Humedad	71
69913	7	Sololá	710	Panajachel	8	Panajachel	11	Noviembre	2023-02-11T00:00:00	2024-11-08T20:00:00	6	Velocidad del viento	11.3
69914	7	Sololá	710	Panajachel	8	Panajachel	11	Noviembre	2023-02-11T00:00:00	2024-11-08T20:00:00	7	Dirección del viento	11.27
69915	7	Sololá	710	Panajachel	8	Panajachel	11	Noviembre	2023-02-11T00:00:00	2024-11-08T20:00:00	1	Precipitación	0
69916	7	Sololá	710	Panajachel	8	Panajachel	11	Noviembre	2023-02-11T00:00:00	2024-11-08T20:00:00	8	Radiación solar	0
69917	7	Sololá	710	Panajachel	8	Panajachel	11	Noviembre	2023-02-11T00:00:00	2024-11-08T21:00:00	2	Temperatura media	20.4
69918	7	Sololá	710	Panajachel	8	Panajachel	11	Noviembre	2023-02-11T00:00:00	2024-11-08T21:00:00	4	Temperatura máxima	20.6
69919	7	Sololá	710	Panajachel	8	Panajachel	11	Noviembre	2023-02-11T00:00:00	2024-11-08T21:00:00	3	Temperatura mínima	20.4
69920	7	Sololá	710	Panajachel	8	Panajachel	11	Noviembre	2023-02-11T00:00:00	2024-11-08T21:00:00	5	Humedad	72
69921	7	Sololá	710	Panajachel	8	Panajachel	11	Noviembre	2023-02-11T00:00:00	2024-11-08T21:00:00	6	Velocidad del viento	11.3
69922	7	Sololá	710	Panajachel	8	Panajachel	11	Noviembre	2023-02-11T00:00:00	2024-11-08T21:00:00	7	Dirección del viento	11.27
69923	7	Sololá	710	Panajachel	8	Panajachel	11	Noviembre	2023-02-11T00:00:00	2024-11-08T21:00:00	1	Precipitación	0
69924	7	Sololá	710	Panajachel	8	Panajachel	11	Noviembre	2023-02-11T00:00:00	2024-11-08T21:00:00	8	Radiación solar	0
69925	7	Sololá	710	Panajachel	8	Panajachel	11	Noviembre	2023-02-11T00:00:00	2024-11-08T22:00:00	2	Temperatura media	20.3
69926	7	Sololá	710	Panajachel	8	Panajachel	11	Noviembre	2023-02-11T00:00:00	2024-11-08T22:00:00	4	Temperatura máxima	20.5
69927	7	Sololá	710	Panajachel	8	Panajachel	11	Noviembre	2023-02-11T00:00:00	2024-11-08T22:00:00	3	Temperatura mínima	20.3
69928	7	Sololá	710	Panajachel	8	Panajachel	11	Noviembre	2023-02-11T00:00:00	2024-11-08T22:00:00	5	Humedad	72
69929	7	Sololá	710	Panajachel	8	Panajachel	11	Noviembre	2023-02-11T00:00:00	2024-11-08T22:00:00	6	Velocidad del viento	6.4
69930	7	Sololá	710	Panajachel	8	Panajachel	11	Noviembre	2023-02-11T00:00:00	2024-11-08T22:00:00	7	Dirección del viento	6.44
69931	7	Sololá	710	Panajachel	8	Panajachel	11	Noviembre	2023-02-11T00:00:00	2024-11-08T22:00:00	1	Precipitación	0
69932	7	Sololá	710	Panajachel	8	Panajachel	11	Noviembre	2023-02-11T00:00:00	2024-11-08T22:00:00	8	Radiación solar	0
69933	7	Sololá	710	Panajachel	8	Panajachel	11	Noviembre	2023-02-11T00:00:00	2024-11-08T23:00:00	2	Temperatura media	20.2
69934	7	Sololá	710	Panajachel	8	Panajachel	11	Noviembre	2023-02-11T00:00:00	2024-11-08T23:00:00	4	Temperatura máxima	20.5
69935	7	Sololá	710	Panajachel	8	Panajachel	11	Noviembre	2023-02-11T00:00:00	2024-11-08T23:00:00	3	Temperatura mínima	20.1
69936	7	Sololá	710	Panajachel	8	Panajachel	11	Noviembre	2023-02-11T00:00:00	2024-11-08T23:00:00	5	Humedad	71
69937	7	Sololá	710	Panajachel	8	Panajachel	11	Noviembre	2023-02-11T00:00:00	2024-11-08T23:00:00	6	Velocidad del viento	8
69938	7	Sololá	710	Panajachel	8	Panajachel	11	Noviembre	2023-02-11T00:00:00	2024-11-08T23:00:00	7	Dirección del viento	8.05
69939	7	Sololá	710	Panajachel	8	Panajachel	11	Noviembre	2023-02-11T00:00:00	2024-11-08T23:00:00	1	Precipitación	0
69940	7	Sololá	710	Panajachel	8	Panajachel	11	Noviembre	2023-02-11T00:00:00	2024-11-08T23:00:00	8	Radiación solar	0
69941	7	Sololá	710	Panajachel	8	Panajachel	11	Noviembre	2023-03-11T00:00:00	2024-11-08T00:00:00	2	Temperatura media	19.8
69942	7	Sololá	710	Panajachel	8	Panajachel	11	Noviembre	2023-03-11T00:00:00	2024-11-08T00:00:00	4	Temperatura máxima	20.2
69943	7	Sololá	710	Panajachel	8	Panajachel	11	Noviembre	2023-03-11T00:00:00	2024-11-08T00:00:00	3	Temperatura mínima	19.8
69944	7	Sololá	710	Panajachel	8	Panajachel	11	Noviembre	2023-03-11T00:00:00	2024-11-08T00:00:00	5	Humedad	70
69945	7	Sololá	710	Panajachel	8	Panajachel	11	Noviembre	2023-03-11T00:00:00	2024-11-08T00:00:00	6	Velocidad del viento	8
69946	7	Sololá	710	Panajachel	8	Panajachel	11	Noviembre	2023-03-11T00:00:00	2024-11-08T00:00:00	7	Dirección del viento	8.05
69947	7	Sololá	710	Panajachel	8	Panajachel	11	Noviembre	2023-03-11T00:00:00	2024-11-08T00:00:00	1	Precipitación	0
69948	7	Sololá	710	Panajachel	8	Panajachel	11	Noviembre	2023-03-11T00:00:00	2024-11-08T00:00:00	8	Radiación solar	0
69949	7	Sololá	710	Panajachel	8	Panajachel	11	Noviembre	2023-03-11T00:00:00	2024-11-08T01:00:00	2	Temperatura media	19.4
69950	7	Sololá	710	Panajachel	8	Panajachel	11	Noviembre	2023-03-11T00:00:00	2024-11-08T01:00:00	4	Temperatura máxima	19.9
69951	7	Sololá	710	Panajachel	8	Panajachel	11	Noviembre	2023-03-11T00:00:00	2024-11-08T01:00:00	3	Temperatura mínima	19.4
69952	7	Sololá	710	Panajachel	8	Panajachel	11	Noviembre	2023-03-11T00:00:00	2024-11-08T01:00:00	5	Humedad	72
69953	7	Sololá	710	Panajachel	8	Panajachel	11	Noviembre	2023-03-11T00:00:00	2024-11-08T01:00:00	6	Velocidad del viento	11.3
69954	7	Sololá	710	Panajachel	8	Panajachel	11	Noviembre	2023-03-11T00:00:00	2024-11-08T01:00:00	7	Dirección del viento	11.27
69955	7	Sololá	710	Panajachel	8	Panajachel	11	Noviembre	2023-03-11T00:00:00	2024-11-08T01:00:00	1	Precipitación	0
69956	7	Sololá	710	Panajachel	8	Panajachel	11	Noviembre	2023-03-11T00:00:00	2024-11-08T01:00:00	8	Radiación solar	0
69957	7	Sololá	710	Panajachel	8	Panajachel	11	Noviembre	2023-03-11T00:00:00	2024-11-08T02:00:00	2	Temperatura media	19.2
69958	7	Sololá	710	Panajachel	8	Panajachel	11	Noviembre	2023-03-11T00:00:00	2024-11-08T02:00:00	4	Temperatura máxima	19.4
69959	7	Sololá	710	Panajachel	8	Panajachel	11	Noviembre	2023-03-11T00:00:00	2024-11-08T02:00:00	3	Temperatura mínima	19.1
69960	7	Sololá	710	Panajachel	8	Panajachel	11	Noviembre	2023-03-11T00:00:00	2024-11-08T02:00:00	5	Humedad	71
69961	7	Sololá	710	Panajachel	8	Panajachel	11	Noviembre	2023-03-11T00:00:00	2024-11-08T02:00:00	6	Velocidad del viento	11.3
69962	7	Sololá	710	Panajachel	8	Panajachel	11	Noviembre	2023-03-11T00:00:00	2024-11-08T02:00:00	7	Dirección del viento	11.27
69963	7	Sololá	710	Panajachel	8	Panajachel	11	Noviembre	2023-03-11T00:00:00	2024-11-08T02:00:00	1	Precipitación	0
69964	7	Sololá	710	Panajachel	8	Panajachel	11	Noviembre	2023-03-11T00:00:00	2024-11-08T02:00:00	8	Radiación solar	0
69965	7	Sololá	710	Panajachel	8	Panajachel	11	Noviembre	2023-03-11T00:00:00	2024-11-08T03:00:00	2	Temperatura media	18.8
69966	7	Sololá	710	Panajachel	8	Panajachel	11	Noviembre	2023-03-11T00:00:00	2024-11-08T03:00:00	4	Temperatura máxima	19.2
69967	7	Sololá	710	Panajachel	8	Panajachel	11	Noviembre	2023-03-11T00:00:00	2024-11-08T03:00:00	3	Temperatura mínima	18.8
69968	7	Sololá	710	Panajachel	8	Panajachel	11	Noviembre	2023-03-11T00:00:00	2024-11-08T03:00:00	5	Humedad	71
69969	7	Sololá	710	Panajachel	8	Panajachel	11	Noviembre	2023-03-11T00:00:00	2024-11-08T03:00:00	6	Velocidad del viento	8
69970	7	Sololá	710	Panajachel	8	Panajachel	11	Noviembre	2023-03-11T00:00:00	2024-11-08T03:00:00	7	Dirección del viento	8.05
69971	7	Sololá	710	Panajachel	8	Panajachel	11	Noviembre	2023-03-11T00:00:00	2024-11-08T03:00:00	1	Precipitación	0
69972	7	Sololá	710	Panajachel	8	Panajachel	11	Noviembre	2023-03-11T00:00:00	2024-11-08T03:00:00	8	Radiación solar	0
69973	7	Sololá	710	Panajachel	8	Panajachel	11	Noviembre	2023-03-11T00:00:00	2024-11-08T04:00:00	2	Temperatura media	18.6
69974	7	Sololá	710	Panajachel	8	Panajachel	11	Noviembre	2023-03-11T00:00:00	2024-11-08T04:00:00	4	Temperatura máxima	18.8
69975	7	Sololá	710	Panajachel	8	Panajachel	11	Noviembre	2023-03-11T00:00:00	2024-11-08T04:00:00	3	Temperatura mínima	18.6
69976	7	Sololá	710	Panajachel	8	Panajachel	11	Noviembre	2023-03-11T00:00:00	2024-11-08T04:00:00	5	Humedad	71
69977	7	Sololá	710	Panajachel	8	Panajachel	11	Noviembre	2023-03-11T00:00:00	2024-11-08T04:00:00	6	Velocidad del viento	8
69978	7	Sololá	710	Panajachel	8	Panajachel	11	Noviembre	2023-03-11T00:00:00	2024-11-08T04:00:00	7	Dirección del viento	8.05
69979	7	Sololá	710	Panajachel	8	Panajachel	11	Noviembre	2023-03-11T00:00:00	2024-11-08T04:00:00	1	Precipitación	0
69980	7	Sololá	710	Panajachel	8	Panajachel	11	Noviembre	2023-03-11T00:00:00	2024-11-08T04:00:00	8	Radiación solar	0
69981	7	Sololá	710	Panajachel	8	Panajachel	11	Noviembre	2023-03-11T00:00:00	2024-11-08T05:00:00	2	Temperatura media	18.4
69982	7	Sololá	710	Panajachel	8	Panajachel	11	Noviembre	2023-03-11T00:00:00	2024-11-08T05:00:00	4	Temperatura máxima	18.7
69983	7	Sololá	710	Panajachel	8	Panajachel	11	Noviembre	2023-03-11T00:00:00	2024-11-08T05:00:00	3	Temperatura mínima	18.4
69984	7	Sololá	710	Panajachel	8	Panajachel	11	Noviembre	2023-03-11T00:00:00	2024-11-08T05:00:00	5	Humedad	72
69985	7	Sololá	710	Panajachel	8	Panajachel	11	Noviembre	2023-03-11T00:00:00	2024-11-08T05:00:00	6	Velocidad del viento	8
69986	7	Sololá	710	Panajachel	8	Panajachel	11	Noviembre	2023-03-11T00:00:00	2024-11-08T05:00:00	7	Dirección del viento	8.05
69987	7	Sololá	710	Panajachel	8	Panajachel	11	Noviembre	2023-03-11T00:00:00	2024-11-08T05:00:00	1	Precipitación	0
69988	7	Sololá	710	Panajachel	8	Panajachel	11	Noviembre	2023-03-11T00:00:00	2024-11-08T05:00:00	8	Radiación solar	0
69989	7	Sololá	710	Panajachel	8	Panajachel	11	Noviembre	2023-03-11T00:00:00	2024-11-08T06:00:00	2	Temperatura media	18.6
69990	7	Sololá	710	Panajachel	8	Panajachel	11	Noviembre	2023-03-11T00:00:00	2024-11-08T06:00:00	4	Temperatura máxima	18.7
69991	7	Sololá	710	Panajachel	8	Panajachel	11	Noviembre	2023-03-11T00:00:00	2024-11-08T06:00:00	3	Temperatura mínima	18.4
69992	7	Sololá	710	Panajachel	8	Panajachel	11	Noviembre	2023-03-11T00:00:00	2024-11-08T06:00:00	5	Humedad	69
69993	7	Sololá	710	Panajachel	8	Panajachel	11	Noviembre	2023-03-11T00:00:00	2024-11-08T06:00:00	6	Velocidad del viento	12.9
69994	7	Sololá	710	Panajachel	8	Panajachel	11	Noviembre	2023-03-11T00:00:00	2024-11-08T06:00:00	7	Dirección del viento	12.87
69995	7	Sololá	710	Panajachel	8	Panajachel	11	Noviembre	2023-03-11T00:00:00	2024-11-08T06:00:00	1	Precipitación	0
69996	7	Sololá	710	Panajachel	8	Panajachel	11	Noviembre	2023-03-11T00:00:00	2024-11-08T06:00:00	8	Radiación solar	0
69997	7	Sololá	710	Panajachel	8	Panajachel	11	Noviembre	2023-03-11T00:00:00	2024-11-08T07:00:00	2	Temperatura media	19.3
69998	7	Sololá	710	Panajachel	8	Panajachel	11	Noviembre	2023-03-11T00:00:00	2024-11-08T07:00:00	4	Temperatura máxima	19.3
69999	7	Sololá	710	Panajachel	8	Panajachel	11	Noviembre	2023-03-11T00:00:00	2024-11-08T07:00:00	3	Temperatura mínima	18.6
70000	7	Sololá	710	Panajachel	8	Panajachel	11	Noviembre	2023-03-11T00:00:00	2024-11-08T07:00:00	5	Humedad	67
70001	7	Sololá	710	Panajachel	8	Panajachel	11	Noviembre	2023-03-11T00:00:00	2024-11-08T07:00:00	6	Velocidad del viento	9.7
70002	7	Sololá	710	Panajachel	8	Panajachel	11	Noviembre	2023-03-11T00:00:00	2024-11-08T07:00:00	7	Dirección del viento	9.66
70003	7	Sololá	710	Panajachel	8	Panajachel	11	Noviembre	2023-03-11T00:00:00	2024-11-08T07:00:00	1	Precipitación	0
70004	7	Sololá	710	Panajachel	8	Panajachel	11	Noviembre	2023-03-11T00:00:00	2024-11-08T07:00:00	8	Radiación solar	11
70005	7	Sololá	710	Panajachel	8	Panajachel	11	Noviembre	2023-03-11T00:00:00	2024-11-08T08:00:00	2	Temperatura media	20.2
70006	7	Sololá	710	Panajachel	8	Panajachel	11	Noviembre	2023-03-11T00:00:00	2024-11-08T08:00:00	4	Temperatura máxima	20.2
70007	7	Sololá	710	Panajachel	8	Panajachel	11	Noviembre	2023-03-11T00:00:00	2024-11-08T08:00:00	3	Temperatura mínima	19.2
70008	7	Sololá	710	Panajachel	8	Panajachel	11	Noviembre	2023-03-11T00:00:00	2024-11-08T08:00:00	5	Humedad	65
70009	7	Sololá	710	Panajachel	8	Panajachel	11	Noviembre	2023-03-11T00:00:00	2024-11-08T08:00:00	6	Velocidad del viento	11.3
70010	7	Sololá	710	Panajachel	8	Panajachel	11	Noviembre	2023-03-11T00:00:00	2024-11-08T08:00:00	7	Dirección del viento	11.27
70011	7	Sololá	710	Panajachel	8	Panajachel	11	Noviembre	2023-03-11T00:00:00	2024-11-08T08:00:00	1	Precipitación	0
70012	7	Sololá	710	Panajachel	8	Panajachel	11	Noviembre	2023-03-11T00:00:00	2024-11-08T08:00:00	8	Radiación solar	78
70013	7	Sololá	710	Panajachel	8	Panajachel	11	Noviembre	2023-03-11T00:00:00	2024-11-08T09:00:00	2	Temperatura media	21.3
70014	7	Sololá	710	Panajachel	8	Panajachel	11	Noviembre	2023-03-11T00:00:00	2024-11-08T09:00:00	4	Temperatura máxima	21.4
70015	7	Sololá	710	Panajachel	8	Panajachel	11	Noviembre	2023-03-11T00:00:00	2024-11-08T09:00:00	3	Temperatura mínima	20.1
70016	7	Sololá	710	Panajachel	8	Panajachel	11	Noviembre	2023-03-11T00:00:00	2024-11-08T09:00:00	5	Humedad	63
70017	7	Sololá	710	Panajachel	8	Panajachel	11	Noviembre	2023-03-11T00:00:00	2024-11-08T09:00:00	6	Velocidad del viento	8
70018	7	Sololá	710	Panajachel	8	Panajachel	11	Noviembre	2023-03-11T00:00:00	2024-11-08T09:00:00	7	Dirección del viento	8.05
70019	7	Sololá	710	Panajachel	8	Panajachel	11	Noviembre	2023-03-11T00:00:00	2024-11-08T09:00:00	1	Precipitación	0
70020	7	Sololá	710	Panajachel	8	Panajachel	11	Noviembre	2023-03-11T00:00:00	2024-11-08T09:00:00	8	Radiación solar	240
70021	7	Sololá	710	Panajachel	8	Panajachel	11	Noviembre	2023-03-11T00:00:00	2024-11-08T10:00:00	2	Temperatura media	21.2
70022	7	Sololá	710	Panajachel	8	Panajachel	11	Noviembre	2023-03-11T00:00:00	2024-11-08T10:00:00	4	Temperatura máxima	21.4
70023	7	Sololá	710	Panajachel	8	Panajachel	11	Noviembre	2023-03-11T00:00:00	2024-11-08T10:00:00	3	Temperatura mínima	21.1
70024	7	Sololá	710	Panajachel	8	Panajachel	11	Noviembre	2023-03-11T00:00:00	2024-11-08T10:00:00	5	Humedad	64
70025	7	Sololá	710	Panajachel	8	Panajachel	11	Noviembre	2023-03-11T00:00:00	2024-11-08T10:00:00	6	Velocidad del viento	6.4
70026	7	Sololá	710	Panajachel	8	Panajachel	11	Noviembre	2023-03-11T00:00:00	2024-11-08T10:00:00	7	Dirección del viento	6.44
70027	7	Sololá	710	Panajachel	8	Panajachel	11	Noviembre	2023-03-11T00:00:00	2024-11-08T10:00:00	1	Precipitación	0
70028	7	Sololá	710	Panajachel	8	Panajachel	11	Noviembre	2023-03-11T00:00:00	2024-11-08T10:00:00	8	Radiación solar	175
70029	7	Sololá	710	Panajachel	8	Panajachel	11	Noviembre	2023-03-11T00:00:00	2024-11-08T11:00:00	2	Temperatura media	21.9
70030	7	Sololá	710	Panajachel	8	Panajachel	11	Noviembre	2023-03-11T00:00:00	2024-11-08T11:00:00	4	Temperatura máxima	21.9
70031	7	Sololá	710	Panajachel	8	Panajachel	11	Noviembre	2023-03-11T00:00:00	2024-11-08T11:00:00	3	Temperatura mínima	21.1
70032	7	Sololá	710	Panajachel	8	Panajachel	11	Noviembre	2023-03-11T00:00:00	2024-11-08T11:00:00	5	Humedad	64
70033	7	Sololá	710	Panajachel	8	Panajachel	11	Noviembre	2023-03-11T00:00:00	2024-11-08T11:00:00	6	Velocidad del viento	6.4
70034	7	Sololá	710	Panajachel	8	Panajachel	11	Noviembre	2023-03-11T00:00:00	2024-11-08T11:00:00	7	Dirección del viento	6.44
70035	7	Sololá	710	Panajachel	8	Panajachel	11	Noviembre	2023-03-11T00:00:00	2024-11-08T11:00:00	1	Precipitación	0
70036	7	Sololá	710	Panajachel	8	Panajachel	11	Noviembre	2023-03-11T00:00:00	2024-11-08T11:00:00	8	Radiación solar	233
70037	7	Sololá	710	Panajachel	8	Panajachel	11	Noviembre	2023-03-11T00:00:00	2024-11-08T12:00:00	2	Temperatura media	23.4
70038	7	Sololá	710	Panajachel	8	Panajachel	11	Noviembre	2023-03-11T00:00:00	2024-11-08T12:00:00	4	Temperatura máxima	23.4
70039	7	Sololá	710	Panajachel	8	Panajachel	11	Noviembre	2023-03-11T00:00:00	2024-11-08T12:00:00	3	Temperatura mínima	21.9
70040	7	Sololá	710	Panajachel	8	Panajachel	11	Noviembre	2023-03-11T00:00:00	2024-11-08T12:00:00	5	Humedad	62
70041	7	Sololá	710	Panajachel	8	Panajachel	11	Noviembre	2023-03-11T00:00:00	2024-11-08T12:00:00	6	Velocidad del viento	6.4
70042	7	Sololá	710	Panajachel	8	Panajachel	11	Noviembre	2023-03-11T00:00:00	2024-11-08T12:00:00	7	Dirección del viento	6.44
70043	7	Sololá	710	Panajachel	8	Panajachel	11	Noviembre	2023-03-11T00:00:00	2024-11-08T12:00:00	1	Precipitación	0
70044	7	Sololá	710	Panajachel	8	Panajachel	11	Noviembre	2023-03-11T00:00:00	2024-11-08T12:00:00	8	Radiación solar	372
70045	7	Sololá	710	Panajachel	8	Panajachel	11	Noviembre	2023-03-11T00:00:00	2024-11-08T13:00:00	2	Temperatura media	23
70046	7	Sololá	710	Panajachel	8	Panajachel	11	Noviembre	2023-03-11T00:00:00	2024-11-08T13:00:00	4	Temperatura máxima	23.3
70047	7	Sololá	710	Panajachel	8	Panajachel	11	Noviembre	2023-03-11T00:00:00	2024-11-08T13:00:00	3	Temperatura mínima	23
70048	7	Sololá	710	Panajachel	8	Panajachel	11	Noviembre	2023-03-11T00:00:00	2024-11-08T13:00:00	5	Humedad	64
70049	7	Sololá	710	Panajachel	8	Panajachel	11	Noviembre	2023-03-11T00:00:00	2024-11-08T13:00:00	6	Velocidad del viento	8
70050	7	Sololá	710	Panajachel	8	Panajachel	11	Noviembre	2023-03-11T00:00:00	2024-11-08T13:00:00	7	Dirección del viento	8.05
70051	7	Sololá	710	Panajachel	8	Panajachel	11	Noviembre	2023-03-11T00:00:00	2024-11-08T13:00:00	1	Precipitación	0
70052	7	Sololá	710	Panajachel	8	Panajachel	11	Noviembre	2023-03-11T00:00:00	2024-11-08T13:00:00	8	Radiación solar	268
70053	7	Sololá	710	Panajachel	8	Panajachel	11	Noviembre	2023-03-11T00:00:00	2024-11-08T14:00:00	2	Temperatura media	22.1
70054	7	Sololá	710	Panajachel	8	Panajachel	11	Noviembre	2023-03-11T00:00:00	2024-11-08T14:00:00	4	Temperatura máxima	23
70055	7	Sololá	710	Panajachel	8	Panajachel	11	Noviembre	2023-03-11T00:00:00	2024-11-08T14:00:00	3	Temperatura mínima	22.1
70056	7	Sololá	710	Panajachel	8	Panajachel	11	Noviembre	2023-03-11T00:00:00	2024-11-08T14:00:00	5	Humedad	66
70057	7	Sololá	710	Panajachel	8	Panajachel	11	Noviembre	2023-03-11T00:00:00	2024-11-08T14:00:00	6	Velocidad del viento	8
70058	7	Sololá	710	Panajachel	8	Panajachel	11	Noviembre	2023-03-11T00:00:00	2024-11-08T14:00:00	7	Dirección del viento	8.05
70059	7	Sololá	710	Panajachel	8	Panajachel	11	Noviembre	2023-03-11T00:00:00	2024-11-08T14:00:00	1	Precipitación	0
70060	7	Sololá	710	Panajachel	8	Panajachel	11	Noviembre	2023-03-11T00:00:00	2024-11-08T14:00:00	8	Radiación solar	174
70061	7	Sololá	710	Panajachel	8	Panajachel	11	Noviembre	2023-03-11T00:00:00	2024-11-08T15:00:00	2	Temperatura media	21.8
70062	7	Sololá	710	Panajachel	8	Panajachel	11	Noviembre	2023-03-11T00:00:00	2024-11-08T15:00:00	4	Temperatura máxima	22.1
70063	7	Sololá	710	Panajachel	8	Panajachel	11	Noviembre	2023-03-11T00:00:00	2024-11-08T15:00:00	3	Temperatura mínima	21.6
70064	7	Sololá	710	Panajachel	8	Panajachel	11	Noviembre	2023-03-11T00:00:00	2024-11-08T15:00:00	5	Humedad	66
70065	7	Sololá	710	Panajachel	8	Panajachel	11	Noviembre	2023-03-11T00:00:00	2024-11-08T15:00:00	6	Velocidad del viento	11.3
70066	7	Sololá	710	Panajachel	8	Panajachel	11	Noviembre	2023-03-11T00:00:00	2024-11-08T15:00:00	7	Dirección del viento	11.27
70067	7	Sololá	710	Panajachel	8	Panajachel	11	Noviembre	2023-03-11T00:00:00	2024-11-08T15:00:00	1	Precipitación	0
70068	7	Sololá	710	Panajachel	8	Panajachel	11	Noviembre	2023-03-11T00:00:00	2024-11-08T15:00:00	8	Radiación solar	120
70069	7	Sololá	710	Panajachel	8	Panajachel	11	Noviembre	2023-03-11T00:00:00	2024-11-08T16:00:00	2	Temperatura media	22.1
70070	7	Sololá	710	Panajachel	8	Panajachel	11	Noviembre	2023-03-11T00:00:00	2024-11-08T16:00:00	4	Temperatura máxima	22.3
70071	7	Sololá	710	Panajachel	8	Panajachel	11	Noviembre	2023-03-11T00:00:00	2024-11-08T16:00:00	3	Temperatura mínima	21.8
70072	7	Sololá	710	Panajachel	8	Panajachel	11	Noviembre	2023-03-11T00:00:00	2024-11-08T16:00:00	5	Humedad	67
70073	7	Sololá	710	Panajachel	8	Panajachel	11	Noviembre	2023-03-11T00:00:00	2024-11-08T16:00:00	6	Velocidad del viento	11.3
70074	7	Sololá	710	Panajachel	8	Panajachel	11	Noviembre	2023-03-11T00:00:00	2024-11-08T16:00:00	7	Dirección del viento	11.27
70075	7	Sololá	710	Panajachel	8	Panajachel	11	Noviembre	2023-03-11T00:00:00	2024-11-08T16:00:00	1	Precipitación	0
70076	7	Sololá	710	Panajachel	8	Panajachel	11	Noviembre	2023-03-11T00:00:00	2024-11-08T16:00:00	8	Radiación solar	201
70077	7	Sololá	710	Panajachel	8	Panajachel	11	Noviembre	2023-03-11T00:00:00	2024-11-08T17:00:00	2	Temperatura media	21.7
70078	7	Sololá	710	Panajachel	8	Panajachel	11	Noviembre	2023-03-11T00:00:00	2024-11-08T17:00:00	4	Temperatura máxima	22.3
70079	7	Sololá	710	Panajachel	8	Panajachel	11	Noviembre	2023-03-11T00:00:00	2024-11-08T17:00:00	3	Temperatura mínima	21.7
70080	7	Sololá	710	Panajachel	8	Panajachel	11	Noviembre	2023-03-11T00:00:00	2024-11-08T17:00:00	5	Humedad	65
70081	7	Sololá	710	Panajachel	8	Panajachel	11	Noviembre	2023-03-11T00:00:00	2024-11-08T17:00:00	6	Velocidad del viento	6.4
70082	7	Sololá	710	Panajachel	8	Panajachel	11	Noviembre	2023-03-11T00:00:00	2024-11-08T17:00:00	7	Dirección del viento	6.44
70083	7	Sololá	710	Panajachel	8	Panajachel	11	Noviembre	2023-03-11T00:00:00	2024-11-08T17:00:00	1	Precipitación	0
70084	7	Sololá	710	Panajachel	8	Panajachel	11	Noviembre	2023-03-11T00:00:00	2024-11-08T17:00:00	8	Radiación solar	135
70085	7	Sololá	710	Panajachel	8	Panajachel	11	Noviembre	2023-03-11T00:00:00	2024-11-08T18:00:00	2	Temperatura media	20.3
70086	7	Sololá	710	Panajachel	8	Panajachel	11	Noviembre	2023-03-11T00:00:00	2024-11-08T18:00:00	4	Temperatura máxima	21.7
70087	7	Sololá	710	Panajachel	8	Panajachel	11	Noviembre	2023-03-11T00:00:00	2024-11-08T18:00:00	3	Temperatura mínima	20.3
70088	7	Sololá	710	Panajachel	8	Panajachel	11	Noviembre	2023-03-11T00:00:00	2024-11-08T18:00:00	5	Humedad	68
70089	7	Sololá	710	Panajachel	8	Panajachel	11	Noviembre	2023-03-11T00:00:00	2024-11-08T18:00:00	6	Velocidad del viento	8
70090	7	Sololá	710	Panajachel	8	Panajachel	11	Noviembre	2023-03-11T00:00:00	2024-11-08T18:00:00	7	Dirección del viento	8.05
70091	7	Sololá	710	Panajachel	8	Panajachel	11	Noviembre	2023-03-11T00:00:00	2024-11-08T18:00:00	1	Precipitación	0
70092	7	Sololá	710	Panajachel	8	Panajachel	11	Noviembre	2023-03-11T00:00:00	2024-11-08T18:00:00	8	Radiación solar	18
70093	7	Sololá	710	Panajachel	8	Panajachel	11	Noviembre	2023-03-11T00:00:00	2024-11-08T19:00:00	2	Temperatura media	20.3
70094	7	Sololá	710	Panajachel	8	Panajachel	11	Noviembre	2023-03-11T00:00:00	2024-11-08T19:00:00	4	Temperatura máxima	20.3
70095	7	Sololá	710	Panajachel	8	Panajachel	11	Noviembre	2023-03-11T00:00:00	2024-11-08T19:00:00	3	Temperatura mínima	20.2
70096	7	Sololá	710	Panajachel	8	Panajachel	11	Noviembre	2023-03-11T00:00:00	2024-11-08T19:00:00	5	Humedad	65
70097	7	Sololá	710	Panajachel	8	Panajachel	11	Noviembre	2023-03-11T00:00:00	2024-11-08T19:00:00	6	Velocidad del viento	12.9
70098	7	Sololá	710	Panajachel	8	Panajachel	11	Noviembre	2023-03-11T00:00:00	2024-11-08T19:00:00	7	Dirección del viento	12.87
70099	7	Sololá	710	Panajachel	8	Panajachel	11	Noviembre	2023-03-11T00:00:00	2024-11-08T19:00:00	1	Precipitación	0
70100	7	Sololá	710	Panajachel	8	Panajachel	11	Noviembre	2023-03-11T00:00:00	2024-11-08T19:00:00	8	Radiación solar	0
70101	7	Sololá	710	Panajachel	8	Panajachel	11	Noviembre	2023-03-11T00:00:00	2024-11-08T20:00:00	2	Temperatura media	20.2
70102	7	Sololá	710	Panajachel	8	Panajachel	11	Noviembre	2023-03-11T00:00:00	2024-11-08T20:00:00	4	Temperatura máxima	20.4
70103	7	Sololá	710	Panajachel	8	Panajachel	11	Noviembre	2023-03-11T00:00:00	2024-11-08T20:00:00	3	Temperatura mínima	20.2
70104	7	Sololá	710	Panajachel	8	Panajachel	11	Noviembre	2023-03-11T00:00:00	2024-11-08T20:00:00	5	Humedad	66
70105	7	Sololá	710	Panajachel	8	Panajachel	11	Noviembre	2023-03-11T00:00:00	2024-11-08T20:00:00	6	Velocidad del viento	9.7
70106	7	Sololá	710	Panajachel	8	Panajachel	11	Noviembre	2023-03-11T00:00:00	2024-11-08T20:00:00	7	Dirección del viento	9.66
70107	7	Sololá	710	Panajachel	8	Panajachel	11	Noviembre	2023-03-11T00:00:00	2024-11-08T20:00:00	1	Precipitación	0
70108	7	Sololá	710	Panajachel	8	Panajachel	11	Noviembre	2023-03-11T00:00:00	2024-11-08T20:00:00	8	Radiación solar	0
70109	7	Sololá	710	Panajachel	8	Panajachel	11	Noviembre	2023-03-11T00:00:00	2024-11-08T21:00:00	2	Temperatura media	20.5
70110	7	Sololá	710	Panajachel	8	Panajachel	11	Noviembre	2023-03-11T00:00:00	2024-11-08T21:00:00	4	Temperatura máxima	20.6
70111	7	Sololá	710	Panajachel	8	Panajachel	11	Noviembre	2023-03-11T00:00:00	2024-11-08T21:00:00	3	Temperatura mínima	20.1
70112	7	Sololá	710	Panajachel	8	Panajachel	11	Noviembre	2023-03-11T00:00:00	2024-11-08T21:00:00	5	Humedad	65
70113	7	Sololá	710	Panajachel	8	Panajachel	11	Noviembre	2023-03-11T00:00:00	2024-11-08T21:00:00	6	Velocidad del viento	4.8
70114	7	Sololá	710	Panajachel	8	Panajachel	11	Noviembre	2023-03-11T00:00:00	2024-11-08T21:00:00	7	Dirección del viento	4.83
70115	7	Sololá	710	Panajachel	8	Panajachel	11	Noviembre	2023-03-11T00:00:00	2024-11-08T21:00:00	1	Precipitación	0
70116	7	Sololá	710	Panajachel	8	Panajachel	11	Noviembre	2023-03-11T00:00:00	2024-11-08T21:00:00	8	Radiación solar	0
70117	7	Sololá	710	Panajachel	8	Panajachel	11	Noviembre	2023-03-11T00:00:00	2024-11-08T22:00:00	2	Temperatura media	20.3
70118	7	Sololá	710	Panajachel	8	Panajachel	11	Noviembre	2023-03-11T00:00:00	2024-11-08T22:00:00	4	Temperatura máxima	20.6
70119	7	Sololá	710	Panajachel	8	Panajachel	11	Noviembre	2023-03-11T00:00:00	2024-11-08T22:00:00	3	Temperatura mínima	20.2
70120	7	Sololá	710	Panajachel	8	Panajachel	11	Noviembre	2023-03-11T00:00:00	2024-11-08T22:00:00	5	Humedad	66
70121	7	Sololá	710	Panajachel	8	Panajachel	11	Noviembre	2023-03-11T00:00:00	2024-11-08T22:00:00	6	Velocidad del viento	6.4
70122	7	Sololá	710	Panajachel	8	Panajachel	11	Noviembre	2023-03-11T00:00:00	2024-11-08T22:00:00	7	Dirección del viento	6.44
70123	7	Sololá	710	Panajachel	8	Panajachel	11	Noviembre	2023-03-11T00:00:00	2024-11-08T22:00:00	1	Precipitación	0
70124	7	Sololá	710	Panajachel	8	Panajachel	11	Noviembre	2023-03-11T00:00:00	2024-11-08T22:00:00	8	Radiación solar	0
70125	7	Sololá	710	Panajachel	8	Panajachel	11	Noviembre	2023-03-11T00:00:00	2024-11-08T23:00:00	2	Temperatura media	20.7
70126	7	Sololá	710	Panajachel	8	Panajachel	11	Noviembre	2023-03-11T00:00:00	2024-11-08T23:00:00	4	Temperatura máxima	20.8
70127	7	Sololá	710	Panajachel	8	Panajachel	11	Noviembre	2023-03-11T00:00:00	2024-11-08T23:00:00	3	Temperatura mínima	20.1
70128	7	Sololá	710	Panajachel	8	Panajachel	11	Noviembre	2023-03-11T00:00:00	2024-11-08T23:00:00	5	Humedad	67
70129	7	Sololá	710	Panajachel	8	Panajachel	11	Noviembre	2023-03-11T00:00:00	2024-11-08T23:00:00	6	Velocidad del viento	4.8
70130	7	Sololá	710	Panajachel	8	Panajachel	11	Noviembre	2023-03-11T00:00:00	2024-11-08T23:00:00	7	Dirección del viento	4.83
70131	7	Sololá	710	Panajachel	8	Panajachel	11	Noviembre	2023-03-11T00:00:00	2024-11-08T23:00:00	1	Precipitación	0
70132	7	Sololá	710	Panajachel	8	Panajachel	11	Noviembre	2023-03-11T00:00:00	2024-11-08T23:00:00	8	Radiación solar	0
70133	7	Sololá	710	Panajachel	8	Panajachel	11	Noviembre	2023-04-11T00:00:00	2024-11-08T00:00:00	2	Temperatura media	20.6
70134	7	Sololá	710	Panajachel	8	Panajachel	11	Noviembre	2023-04-11T00:00:00	2024-11-08T00:00:00	4	Temperatura máxima	20.9
70135	7	Sololá	710	Panajachel	8	Panajachel	11	Noviembre	2023-04-11T00:00:00	2024-11-08T00:00:00	3	Temperatura mínima	20.6
70136	7	Sololá	710	Panajachel	8	Panajachel	11	Noviembre	2023-04-11T00:00:00	2024-11-08T00:00:00	5	Humedad	69
70137	7	Sololá	710	Panajachel	8	Panajachel	11	Noviembre	2023-04-11T00:00:00	2024-11-08T00:00:00	6	Velocidad del viento	12.9
70138	7	Sololá	710	Panajachel	8	Panajachel	11	Noviembre	2023-04-11T00:00:00	2024-11-08T00:00:00	7	Dirección del viento	12.87
70139	7	Sololá	710	Panajachel	8	Panajachel	11	Noviembre	2023-04-11T00:00:00	2024-11-08T00:00:00	1	Precipitación	0
70140	7	Sololá	710	Panajachel	8	Panajachel	11	Noviembre	2023-04-11T00:00:00	2024-11-08T00:00:00	8	Radiación solar	0
70141	7	Sololá	710	Panajachel	8	Panajachel	11	Noviembre	2023-04-11T00:00:00	2024-11-08T01:00:00	2	Temperatura media	20
70142	7	Sololá	710	Panajachel	8	Panajachel	11	Noviembre	2023-04-11T00:00:00	2024-11-08T01:00:00	4	Temperatura máxima	20.7
70143	7	Sololá	710	Panajachel	8	Panajachel	11	Noviembre	2023-04-11T00:00:00	2024-11-08T01:00:00	3	Temperatura mínima	20
70144	7	Sololá	710	Panajachel	8	Panajachel	11	Noviembre	2023-04-11T00:00:00	2024-11-08T01:00:00	5	Humedad	71
70145	7	Sololá	710	Panajachel	8	Panajachel	11	Noviembre	2023-04-11T00:00:00	2024-11-08T01:00:00	6	Velocidad del viento	11.3
70146	7	Sololá	710	Panajachel	8	Panajachel	11	Noviembre	2023-04-11T00:00:00	2024-11-08T01:00:00	7	Dirección del viento	11.27
70147	7	Sololá	710	Panajachel	8	Panajachel	11	Noviembre	2023-04-11T00:00:00	2024-11-08T01:00:00	1	Precipitación	0
70148	7	Sololá	710	Panajachel	8	Panajachel	11	Noviembre	2023-04-11T00:00:00	2024-11-08T01:00:00	8	Radiación solar	0
70149	7	Sololá	710	Panajachel	8	Panajachel	11	Noviembre	2023-04-11T00:00:00	2024-11-08T02:00:00	2	Temperatura media	20.2
70150	7	Sololá	710	Panajachel	8	Panajachel	11	Noviembre	2023-04-11T00:00:00	2024-11-08T02:00:00	4	Temperatura máxima	20.4
70151	7	Sololá	710	Panajachel	8	Panajachel	11	Noviembre	2023-04-11T00:00:00	2024-11-08T02:00:00	3	Temperatura mínima	19.8
70152	7	Sololá	710	Panajachel	8	Panajachel	11	Noviembre	2023-04-11T00:00:00	2024-11-08T02:00:00	5	Humedad	71
70153	7	Sololá	710	Panajachel	8	Panajachel	11	Noviembre	2023-04-11T00:00:00	2024-11-08T02:00:00	6	Velocidad del viento	4.8
70154	7	Sololá	710	Panajachel	8	Panajachel	11	Noviembre	2023-04-11T00:00:00	2024-11-08T02:00:00	7	Dirección del viento	4.83
70155	7	Sololá	710	Panajachel	8	Panajachel	11	Noviembre	2023-04-11T00:00:00	2024-11-08T02:00:00	1	Precipitación	0
70156	7	Sololá	710	Panajachel	8	Panajachel	11	Noviembre	2023-04-11T00:00:00	2024-11-08T02:00:00	8	Radiación solar	0
70157	7	Sololá	710	Panajachel	8	Panajachel	11	Noviembre	2023-04-11T00:00:00	2024-11-08T03:00:00	2	Temperatura media	20.3
70158	7	Sololá	710	Panajachel	8	Panajachel	11	Noviembre	2023-04-11T00:00:00	2024-11-08T03:00:00	4	Temperatura máxima	20.3
70159	7	Sololá	710	Panajachel	8	Panajachel	11	Noviembre	2023-04-11T00:00:00	2024-11-08T03:00:00	3	Temperatura mínima	19.8
70160	7	Sololá	710	Panajachel	8	Panajachel	11	Noviembre	2023-04-11T00:00:00	2024-11-08T03:00:00	5	Humedad	71
70161	7	Sololá	710	Panajachel	8	Panajachel	11	Noviembre	2023-04-11T00:00:00	2024-11-08T03:00:00	6	Velocidad del viento	6.4
70162	7	Sololá	710	Panajachel	8	Panajachel	11	Noviembre	2023-04-11T00:00:00	2024-11-08T03:00:00	7	Dirección del viento	6.44
70163	7	Sololá	710	Panajachel	8	Panajachel	11	Noviembre	2023-04-11T00:00:00	2024-11-08T03:00:00	1	Precipitación	0
70164	7	Sololá	710	Panajachel	8	Panajachel	11	Noviembre	2023-04-11T00:00:00	2024-11-08T03:00:00	8	Radiación solar	0
70165	7	Sololá	710	Panajachel	8	Panajachel	11	Noviembre	2023-04-11T00:00:00	2024-11-08T04:00:00	2	Temperatura media	19.7
70166	7	Sololá	710	Panajachel	8	Panajachel	11	Noviembre	2023-04-11T00:00:00	2024-11-08T04:00:00	4	Temperatura máxima	20.6
70167	7	Sololá	710	Panajachel	8	Panajachel	11	Noviembre	2023-04-11T00:00:00	2024-11-08T04:00:00	3	Temperatura mínima	19.7
70168	7	Sololá	710	Panajachel	8	Panajachel	11	Noviembre	2023-04-11T00:00:00	2024-11-08T04:00:00	5	Humedad	73
70169	7	Sololá	710	Panajachel	8	Panajachel	11	Noviembre	2023-04-11T00:00:00	2024-11-08T04:00:00	6	Velocidad del viento	3.2
70170	7	Sololá	710	Panajachel	8	Panajachel	11	Noviembre	2023-04-11T00:00:00	2024-11-08T04:00:00	7	Dirección del viento	3.22
70171	7	Sololá	710	Panajachel	8	Panajachel	11	Noviembre	2023-04-11T00:00:00	2024-11-08T04:00:00	1	Precipitación	0
70172	7	Sololá	710	Panajachel	8	Panajachel	11	Noviembre	2023-04-11T00:00:00	2024-11-08T04:00:00	8	Radiación solar	0
70173	7	Sololá	710	Panajachel	8	Panajachel	11	Noviembre	2023-04-11T00:00:00	2024-11-08T05:00:00	2	Temperatura media	20.5
70174	7	Sololá	710	Panajachel	8	Panajachel	11	Noviembre	2023-04-11T00:00:00	2024-11-08T05:00:00	4	Temperatura máxima	20.6
70175	7	Sololá	710	Panajachel	8	Panajachel	11	Noviembre	2023-04-11T00:00:00	2024-11-08T05:00:00	3	Temperatura mínima	19.7
70176	7	Sololá	710	Panajachel	8	Panajachel	11	Noviembre	2023-04-11T00:00:00	2024-11-08T05:00:00	5	Humedad	71
70177	7	Sololá	710	Panajachel	8	Panajachel	11	Noviembre	2023-04-11T00:00:00	2024-11-08T05:00:00	6	Velocidad del viento	4.8
70178	7	Sololá	710	Panajachel	8	Panajachel	11	Noviembre	2023-04-11T00:00:00	2024-11-08T05:00:00	7	Dirección del viento	4.83
70179	7	Sololá	710	Panajachel	8	Panajachel	11	Noviembre	2023-04-11T00:00:00	2024-11-08T05:00:00	1	Precipitación	0
70180	7	Sololá	710	Panajachel	8	Panajachel	11	Noviembre	2023-04-11T00:00:00	2024-11-08T05:00:00	8	Radiación solar	0
70181	7	Sololá	710	Panajachel	8	Panajachel	11	Noviembre	2023-04-11T00:00:00	2024-11-08T06:00:00	2	Temperatura media	20.3
70182	7	Sololá	710	Panajachel	8	Panajachel	11	Noviembre	2023-04-11T00:00:00	2024-11-08T06:00:00	4	Temperatura máxima	20.8
70183	7	Sololá	710	Panajachel	8	Panajachel	11	Noviembre	2023-04-11T00:00:00	2024-11-08T06:00:00	3	Temperatura mínima	20.2
70184	7	Sololá	710	Panajachel	8	Panajachel	11	Noviembre	2023-04-11T00:00:00	2024-11-08T06:00:00	5	Humedad	73
70185	7	Sololá	710	Panajachel	8	Panajachel	11	Noviembre	2023-04-11T00:00:00	2024-11-08T06:00:00	6	Velocidad del viento	1.6
70186	7	Sololá	710	Panajachel	8	Panajachel	11	Noviembre	2023-04-11T00:00:00	2024-11-08T06:00:00	7	Dirección del viento	1.61
70187	7	Sololá	710	Panajachel	8	Panajachel	11	Noviembre	2023-04-11T00:00:00	2024-11-08T06:00:00	1	Precipitación	0
70188	7	Sololá	710	Panajachel	8	Panajachel	11	Noviembre	2023-04-11T00:00:00	2024-11-08T06:00:00	8	Radiación solar	0
70189	7	Sololá	710	Panajachel	8	Panajachel	11	Noviembre	2023-04-11T00:00:00	2024-11-08T07:00:00	2	Temperatura media	20.8
70190	7	Sololá	710	Panajachel	8	Panajachel	11	Noviembre	2023-04-11T00:00:00	2024-11-08T07:00:00	4	Temperatura máxima	20.9
70191	7	Sololá	710	Panajachel	8	Panajachel	11	Noviembre	2023-04-11T00:00:00	2024-11-08T07:00:00	3	Temperatura mínima	20.1
70192	7	Sololá	710	Panajachel	8	Panajachel	11	Noviembre	2023-04-11T00:00:00	2024-11-08T07:00:00	5	Humedad	72
70193	7	Sololá	710	Panajachel	8	Panajachel	11	Noviembre	2023-04-11T00:00:00	2024-11-08T07:00:00	6	Velocidad del viento	3.2
70194	7	Sololá	710	Panajachel	8	Panajachel	11	Noviembre	2023-04-11T00:00:00	2024-11-08T07:00:00	7	Dirección del viento	3.22
70195	7	Sololá	710	Panajachel	8	Panajachel	11	Noviembre	2023-04-11T00:00:00	2024-11-08T07:00:00	1	Precipitación	0
70196	7	Sololá	710	Panajachel	8	Panajachel	11	Noviembre	2023-04-11T00:00:00	2024-11-08T07:00:00	8	Radiación solar	39
70197	7	Sololá	710	Panajachel	8	Panajachel	11	Noviembre	2023-04-11T00:00:00	2024-11-08T08:00:00	2	Temperatura media	21.7
70198	7	Sololá	710	Panajachel	8	Panajachel	11	Noviembre	2023-04-11T00:00:00	2024-11-08T08:00:00	4	Temperatura máxima	21.7
70199	7	Sololá	710	Panajachel	8	Panajachel	11	Noviembre	2023-04-11T00:00:00	2024-11-08T08:00:00	3	Temperatura mínima	20.8
70200	7	Sololá	710	Panajachel	8	Panajachel	11	Noviembre	2023-04-11T00:00:00	2024-11-08T08:00:00	5	Humedad	71
70201	7	Sololá	710	Panajachel	8	Panajachel	11	Noviembre	2023-04-11T00:00:00	2024-11-08T08:00:00	6	Velocidad del viento	4.8
70202	7	Sololá	710	Panajachel	8	Panajachel	11	Noviembre	2023-04-11T00:00:00	2024-11-08T08:00:00	7	Dirección del viento	4.83
70203	7	Sololá	710	Panajachel	8	Panajachel	11	Noviembre	2023-04-11T00:00:00	2024-11-08T08:00:00	1	Precipitación	0
70204	7	Sololá	710	Panajachel	8	Panajachel	11	Noviembre	2023-04-11T00:00:00	2024-11-08T08:00:00	8	Radiación solar	102
70205	7	Sololá	710	Panajachel	8	Panajachel	11	Noviembre	2023-04-11T00:00:00	2024-11-08T09:00:00	2	Temperatura media	21.9
70206	7	Sololá	710	Panajachel	8	Panajachel	11	Noviembre	2023-04-11T00:00:00	2024-11-08T09:00:00	4	Temperatura máxima	22.2
70207	7	Sololá	710	Panajachel	8	Panajachel	11	Noviembre	2023-04-11T00:00:00	2024-11-08T09:00:00	3	Temperatura mínima	21.7
70208	7	Sololá	710	Panajachel	8	Panajachel	11	Noviembre	2023-04-11T00:00:00	2024-11-08T09:00:00	5	Humedad	71
70209	7	Sololá	710	Panajachel	8	Panajachel	11	Noviembre	2023-04-11T00:00:00	2024-11-08T09:00:00	6	Velocidad del viento	4.8
70210	7	Sololá	710	Panajachel	8	Panajachel	11	Noviembre	2023-04-11T00:00:00	2024-11-08T09:00:00	7	Dirección del viento	4.83
70211	7	Sololá	710	Panajachel	8	Panajachel	11	Noviembre	2023-04-11T00:00:00	2024-11-08T09:00:00	1	Precipitación	0
70212	7	Sololá	710	Panajachel	8	Panajachel	11	Noviembre	2023-04-11T00:00:00	2024-11-08T09:00:00	8	Radiación solar	176
70213	7	Sololá	710	Panajachel	8	Panajachel	11	Noviembre	2023-04-11T00:00:00	2024-11-08T10:00:00	2	Temperatura media	22
70214	7	Sololá	710	Panajachel	8	Panajachel	11	Noviembre	2023-04-11T00:00:00	2024-11-08T10:00:00	4	Temperatura máxima	22.1
70215	7	Sololá	710	Panajachel	8	Panajachel	11	Noviembre	2023-04-11T00:00:00	2024-11-08T10:00:00	3	Temperatura mínima	21.8
70216	7	Sololá	710	Panajachel	8	Panajachel	11	Noviembre	2023-04-11T00:00:00	2024-11-08T10:00:00	5	Humedad	72
70217	7	Sololá	710	Panajachel	8	Panajachel	11	Noviembre	2023-04-11T00:00:00	2024-11-08T10:00:00	6	Velocidad del viento	4.8
70218	7	Sololá	710	Panajachel	8	Panajachel	11	Noviembre	2023-04-11T00:00:00	2024-11-08T10:00:00	7	Dirección del viento	4.83
70219	7	Sololá	710	Panajachel	8	Panajachel	11	Noviembre	2023-04-11T00:00:00	2024-11-08T10:00:00	1	Precipitación	0
70220	7	Sololá	710	Panajachel	8	Panajachel	11	Noviembre	2023-04-11T00:00:00	2024-11-08T10:00:00	8	Radiación solar	201
70221	7	Sololá	710	Panajachel	8	Panajachel	11	Noviembre	2023-04-11T00:00:00	2024-11-08T11:00:00	2	Temperatura media	23.8
70222	7	Sololá	710	Panajachel	8	Panajachel	11	Noviembre	2023-04-11T00:00:00	2024-11-08T11:00:00	4	Temperatura máxima	23.8
70223	7	Sololá	710	Panajachel	8	Panajachel	11	Noviembre	2023-04-11T00:00:00	2024-11-08T11:00:00	3	Temperatura mínima	22
70224	7	Sololá	710	Panajachel	8	Panajachel	11	Noviembre	2023-04-11T00:00:00	2024-11-08T11:00:00	5	Humedad	69
70225	7	Sololá	710	Panajachel	8	Panajachel	11	Noviembre	2023-04-11T00:00:00	2024-11-08T11:00:00	6	Velocidad del viento	4.8
70226	7	Sololá	710	Panajachel	8	Panajachel	11	Noviembre	2023-04-11T00:00:00	2024-11-08T11:00:00	7	Dirección del viento	4.83
70227	7	Sololá	710	Panajachel	8	Panajachel	11	Noviembre	2023-04-11T00:00:00	2024-11-08T11:00:00	1	Precipitación	0
70228	7	Sololá	710	Panajachel	8	Panajachel	11	Noviembre	2023-04-11T00:00:00	2024-11-08T11:00:00	8	Radiación solar	365
70229	7	Sololá	710	Panajachel	8	Panajachel	11	Noviembre	2023-04-11T00:00:00	2024-11-08T12:00:00	2	Temperatura media	24.6
70230	7	Sololá	710	Panajachel	8	Panajachel	11	Noviembre	2023-04-11T00:00:00	2024-11-08T12:00:00	4	Temperatura máxima	24.9
70231	7	Sololá	710	Panajachel	8	Panajachel	11	Noviembre	2023-04-11T00:00:00	2024-11-08T12:00:00	3	Temperatura mínima	23.8
70232	7	Sololá	710	Panajachel	8	Panajachel	11	Noviembre	2023-04-11T00:00:00	2024-11-08T12:00:00	5	Humedad	68
70233	7	Sololá	710	Panajachel	8	Panajachel	11	Noviembre	2023-04-11T00:00:00	2024-11-08T12:00:00	6	Velocidad del viento	8
70234	7	Sololá	710	Panajachel	8	Panajachel	11	Noviembre	2023-04-11T00:00:00	2024-11-08T12:00:00	7	Dirección del viento	8.05
70235	7	Sololá	710	Panajachel	8	Panajachel	11	Noviembre	2023-04-11T00:00:00	2024-11-08T12:00:00	1	Precipitación	0
70236	7	Sololá	710	Panajachel	8	Panajachel	11	Noviembre	2023-04-11T00:00:00	2024-11-08T12:00:00	8	Radiación solar	807
70237	7	Sololá	710	Panajachel	8	Panajachel	11	Noviembre	2023-04-11T00:00:00	2024-11-08T13:00:00	2	Temperatura media	22.2
70238	7	Sololá	710	Panajachel	8	Panajachel	11	Noviembre	2023-04-11T00:00:00	2024-11-08T13:00:00	4	Temperatura máxima	24.5
70239	7	Sololá	710	Panajachel	8	Panajachel	11	Noviembre	2023-04-11T00:00:00	2024-11-08T13:00:00	3	Temperatura mínima	22.2
70240	7	Sololá	710	Panajachel	8	Panajachel	11	Noviembre	2023-04-11T00:00:00	2024-11-08T13:00:00	5	Humedad	77
70241	7	Sololá	710	Panajachel	8	Panajachel	11	Noviembre	2023-04-11T00:00:00	2024-11-08T13:00:00	6	Velocidad del viento	4.8
70242	7	Sololá	710	Panajachel	8	Panajachel	11	Noviembre	2023-04-11T00:00:00	2024-11-08T13:00:00	7	Dirección del viento	4.83
70243	7	Sololá	710	Panajachel	8	Panajachel	11	Noviembre	2023-04-11T00:00:00	2024-11-08T13:00:00	1	Precipitación	0
70244	7	Sololá	710	Panajachel	8	Panajachel	11	Noviembre	2023-04-11T00:00:00	2024-11-08T13:00:00	8	Radiación solar	283
70245	7	Sololá	710	Panajachel	8	Panajachel	11	Noviembre	2023-04-11T00:00:00	2024-11-08T14:00:00	2	Temperatura media	22.1
70246	7	Sololá	710	Panajachel	8	Panajachel	11	Noviembre	2023-04-11T00:00:00	2024-11-08T14:00:00	4	Temperatura máxima	22.3
70247	7	Sololá	710	Panajachel	8	Panajachel	11	Noviembre	2023-04-11T00:00:00	2024-11-08T14:00:00	3	Temperatura mínima	21.8
70248	7	Sololá	710	Panajachel	8	Panajachel	11	Noviembre	2023-04-11T00:00:00	2024-11-08T14:00:00	5	Humedad	77
70249	7	Sololá	710	Panajachel	8	Panajachel	11	Noviembre	2023-04-11T00:00:00	2024-11-08T14:00:00	6	Velocidad del viento	3.2
70250	7	Sololá	710	Panajachel	8	Panajachel	11	Noviembre	2023-04-11T00:00:00	2024-11-08T14:00:00	7	Dirección del viento	3.22
70251	7	Sololá	710	Panajachel	8	Panajachel	11	Noviembre	2023-04-11T00:00:00	2024-11-08T14:00:00	1	Precipitación	0
70252	7	Sololá	710	Panajachel	8	Panajachel	11	Noviembre	2023-04-11T00:00:00	2024-11-08T14:00:00	8	Radiación solar	228
70253	7	Sololá	710	Panajachel	8	Panajachel	11	Noviembre	2023-04-11T00:00:00	2024-11-08T15:00:00	2	Temperatura media	22.3
70254	7	Sololá	710	Panajachel	8	Panajachel	11	Noviembre	2023-04-11T00:00:00	2024-11-08T15:00:00	4	Temperatura máxima	22.3
70255	7	Sololá	710	Panajachel	8	Panajachel	11	Noviembre	2023-04-11T00:00:00	2024-11-08T15:00:00	3	Temperatura mínima	21.5
70256	7	Sololá	710	Panajachel	8	Panajachel	11	Noviembre	2023-04-11T00:00:00	2024-11-08T15:00:00	5	Humedad	70
70257	7	Sololá	710	Panajachel	8	Panajachel	11	Noviembre	2023-04-11T00:00:00	2024-11-08T15:00:00	6	Velocidad del viento	4.8
70258	7	Sololá	710	Panajachel	8	Panajachel	11	Noviembre	2023-04-11T00:00:00	2024-11-08T15:00:00	7	Dirección del viento	4.83
70259	7	Sololá	710	Panajachel	8	Panajachel	11	Noviembre	2023-04-11T00:00:00	2024-11-08T15:00:00	1	Precipitación	0
70260	7	Sololá	710	Panajachel	8	Panajachel	11	Noviembre	2023-04-11T00:00:00	2024-11-08T15:00:00	8	Radiación solar	225
70261	7	Sololá	710	Panajachel	8	Panajachel	11	Noviembre	2023-04-11T00:00:00	2024-11-08T16:00:00	2	Temperatura media	21.9
70262	7	Sololá	710	Panajachel	8	Panajachel	11	Noviembre	2023-04-11T00:00:00	2024-11-08T16:00:00	4	Temperatura máxima	22.3
70263	7	Sololá	710	Panajachel	8	Panajachel	11	Noviembre	2023-04-11T00:00:00	2024-11-08T16:00:00	3	Temperatura mínima	21.8
70264	7	Sololá	710	Panajachel	8	Panajachel	11	Noviembre	2023-04-11T00:00:00	2024-11-08T16:00:00	5	Humedad	72
70265	7	Sololá	710	Panajachel	8	Panajachel	11	Noviembre	2023-04-11T00:00:00	2024-11-08T16:00:00	6	Velocidad del viento	4.8
70266	7	Sololá	710	Panajachel	8	Panajachel	11	Noviembre	2023-04-11T00:00:00	2024-11-08T16:00:00	7	Dirección del viento	4.83
70267	7	Sololá	710	Panajachel	8	Panajachel	11	Noviembre	2023-04-11T00:00:00	2024-11-08T16:00:00	1	Precipitación	0
70268	7	Sololá	710	Panajachel	8	Panajachel	11	Noviembre	2023-04-11T00:00:00	2024-11-08T16:00:00	8	Radiación solar	144
70269	7	Sololá	710	Panajachel	8	Panajachel	11	Noviembre	2023-04-11T00:00:00	2024-11-08T17:00:00	2	Temperatura media	21.5
70270	7	Sololá	710	Panajachel	8	Panajachel	11	Noviembre	2023-04-11T00:00:00	2024-11-08T17:00:00	4	Temperatura máxima	21.9
70271	7	Sololá	710	Panajachel	8	Panajachel	11	Noviembre	2023-04-11T00:00:00	2024-11-08T17:00:00	3	Temperatura mínima	21.5
70272	7	Sololá	710	Panajachel	8	Panajachel	11	Noviembre	2023-04-11T00:00:00	2024-11-08T17:00:00	5	Humedad	72
70273	7	Sololá	710	Panajachel	8	Panajachel	11	Noviembre	2023-04-11T00:00:00	2024-11-08T17:00:00	6	Velocidad del viento	4.8
70274	7	Sololá	710	Panajachel	8	Panajachel	11	Noviembre	2023-04-11T00:00:00	2024-11-08T17:00:00	7	Dirección del viento	4.83
70275	7	Sololá	710	Panajachel	8	Panajachel	11	Noviembre	2023-04-11T00:00:00	2024-11-08T17:00:00	1	Precipitación	0
70276	7	Sololá	710	Panajachel	8	Panajachel	11	Noviembre	2023-04-11T00:00:00	2024-11-08T17:00:00	8	Radiación solar	56
70277	7	Sololá	710	Panajachel	8	Panajachel	11	Noviembre	2023-04-11T00:00:00	2024-11-08T18:00:00	2	Temperatura media	21.2
70278	7	Sololá	710	Panajachel	8	Panajachel	11	Noviembre	2023-04-11T00:00:00	2024-11-08T18:00:00	4	Temperatura máxima	21.6
70279	7	Sololá	710	Panajachel	8	Panajachel	11	Noviembre	2023-04-11T00:00:00	2024-11-08T18:00:00	3	Temperatura mínima	21.2
70280	7	Sololá	710	Panajachel	8	Panajachel	11	Noviembre	2023-04-11T00:00:00	2024-11-08T18:00:00	5	Humedad	74
70281	7	Sololá	710	Panajachel	8	Panajachel	11	Noviembre	2023-04-11T00:00:00	2024-11-08T18:00:00	6	Velocidad del viento	6.4
70282	7	Sololá	710	Panajachel	8	Panajachel	11	Noviembre	2023-04-11T00:00:00	2024-11-08T18:00:00	7	Dirección del viento	6.44
70283	7	Sololá	710	Panajachel	8	Panajachel	11	Noviembre	2023-04-11T00:00:00	2024-11-08T18:00:00	1	Precipitación	0
70284	7	Sololá	710	Panajachel	8	Panajachel	11	Noviembre	2023-04-11T00:00:00	2024-11-08T18:00:00	8	Radiación solar	7
70285	7	Sololá	710	Panajachel	8	Panajachel	11	Noviembre	2023-04-11T00:00:00	2024-11-08T19:00:00	2	Temperatura media	21.1
70286	7	Sololá	710	Panajachel	8	Panajachel	11	Noviembre	2023-04-11T00:00:00	2024-11-08T19:00:00	4	Temperatura máxima	21.3
70287	7	Sololá	710	Panajachel	8	Panajachel	11	Noviembre	2023-04-11T00:00:00	2024-11-08T19:00:00	3	Temperatura mínima	21
70288	7	Sololá	710	Panajachel	8	Panajachel	11	Noviembre	2023-04-11T00:00:00	2024-11-08T19:00:00	5	Humedad	75
70289	7	Sololá	710	Panajachel	8	Panajachel	11	Noviembre	2023-04-11T00:00:00	2024-11-08T19:00:00	6	Velocidad del viento	3.2
70290	7	Sololá	710	Panajachel	8	Panajachel	11	Noviembre	2023-04-11T00:00:00	2024-11-08T19:00:00	7	Dirección del viento	3.22
70291	7	Sololá	710	Panajachel	8	Panajachel	11	Noviembre	2023-04-11T00:00:00	2024-11-08T19:00:00	1	Precipitación	0
70292	7	Sololá	710	Panajachel	8	Panajachel	11	Noviembre	2023-04-11T00:00:00	2024-11-08T19:00:00	8	Radiación solar	0
70293	7	Sololá	710	Panajachel	8	Panajachel	11	Noviembre	2023-04-11T00:00:00	2024-11-08T20:00:00	2	Temperatura media	21.3
70294	7	Sololá	710	Panajachel	8	Panajachel	11	Noviembre	2023-04-11T00:00:00	2024-11-08T20:00:00	4	Temperatura máxima	21.4
70295	7	Sololá	710	Panajachel	8	Panajachel	11	Noviembre	2023-04-11T00:00:00	2024-11-08T20:00:00	3	Temperatura mínima	20.9
70296	7	Sololá	710	Panajachel	8	Panajachel	11	Noviembre	2023-04-11T00:00:00	2024-11-08T20:00:00	5	Humedad	73
70297	7	Sololá	710	Panajachel	8	Panajachel	11	Noviembre	2023-04-11T00:00:00	2024-11-08T20:00:00	6	Velocidad del viento	8
70298	7	Sololá	710	Panajachel	8	Panajachel	11	Noviembre	2023-04-11T00:00:00	2024-11-08T20:00:00	7	Dirección del viento	8.05
70299	7	Sololá	710	Panajachel	8	Panajachel	11	Noviembre	2023-04-11T00:00:00	2024-11-08T20:00:00	1	Precipitación	0
70300	7	Sololá	710	Panajachel	8	Panajachel	11	Noviembre	2023-04-11T00:00:00	2024-11-08T20:00:00	8	Radiación solar	0
70301	7	Sololá	710	Panajachel	8	Panajachel	11	Noviembre	2023-04-11T00:00:00	2024-11-08T21:00:00	2	Temperatura media	20.7
70302	7	Sololá	710	Panajachel	8	Panajachel	11	Noviembre	2023-04-11T00:00:00	2024-11-08T21:00:00	4	Temperatura máxima	21.3
70303	7	Sololá	710	Panajachel	8	Panajachel	11	Noviembre	2023-04-11T00:00:00	2024-11-08T21:00:00	3	Temperatura mínima	20.7
70304	7	Sololá	710	Panajachel	8	Panajachel	11	Noviembre	2023-04-11T00:00:00	2024-11-08T21:00:00	5	Humedad	76
70305	7	Sololá	710	Panajachel	8	Panajachel	11	Noviembre	2023-04-11T00:00:00	2024-11-08T21:00:00	6	Velocidad del viento	4.8
70306	7	Sololá	710	Panajachel	8	Panajachel	11	Noviembre	2023-04-11T00:00:00	2024-11-08T21:00:00	7	Dirección del viento	4.83
70307	7	Sololá	710	Panajachel	8	Panajachel	11	Noviembre	2023-04-11T00:00:00	2024-11-08T21:00:00	1	Precipitación	0
70308	7	Sololá	710	Panajachel	8	Panajachel	11	Noviembre	2023-04-11T00:00:00	2024-11-08T21:00:00	8	Radiación solar	0
70309	7	Sololá	710	Panajachel	8	Panajachel	11	Noviembre	2023-04-11T00:00:00	2024-11-08T22:00:00	2	Temperatura media	21.2
70310	7	Sololá	710	Panajachel	8	Panajachel	11	Noviembre	2023-04-11T00:00:00	2024-11-08T22:00:00	4	Temperatura máxima	21.2
70311	7	Sololá	710	Panajachel	8	Panajachel	11	Noviembre	2023-04-11T00:00:00	2024-11-08T22:00:00	3	Temperatura mínima	20.7
70312	7	Sololá	710	Panajachel	8	Panajachel	11	Noviembre	2023-04-11T00:00:00	2024-11-08T22:00:00	5	Humedad	73
70313	7	Sololá	710	Panajachel	8	Panajachel	11	Noviembre	2023-04-11T00:00:00	2024-11-08T22:00:00	6	Velocidad del viento	6.4
70314	7	Sololá	710	Panajachel	8	Panajachel	11	Noviembre	2023-04-11T00:00:00	2024-11-08T22:00:00	7	Dirección del viento	6.44
70315	7	Sololá	710	Panajachel	8	Panajachel	11	Noviembre	2023-04-11T00:00:00	2024-11-08T22:00:00	1	Precipitación	0
70316	7	Sololá	710	Panajachel	8	Panajachel	11	Noviembre	2023-04-11T00:00:00	2024-11-08T22:00:00	8	Radiación solar	0
70317	7	Sololá	710	Panajachel	8	Panajachel	11	Noviembre	2023-04-11T00:00:00	2024-11-08T23:00:00	2	Temperatura media	20.8
70318	7	Sololá	710	Panajachel	8	Panajachel	11	Noviembre	2023-04-11T00:00:00	2024-11-08T23:00:00	4	Temperatura máxima	21.2
70319	7	Sololá	710	Panajachel	8	Panajachel	11	Noviembre	2023-04-11T00:00:00	2024-11-08T23:00:00	3	Temperatura mínima	20.8
70320	7	Sololá	710	Panajachel	8	Panajachel	11	Noviembre	2023-04-11T00:00:00	2024-11-08T23:00:00	5	Humedad	74
70321	7	Sololá	710	Panajachel	8	Panajachel	11	Noviembre	2023-04-11T00:00:00	2024-11-08T23:00:00	6	Velocidad del viento	8
70322	7	Sololá	710	Panajachel	8	Panajachel	11	Noviembre	2023-04-11T00:00:00	2024-11-08T23:00:00	7	Dirección del viento	8.05
70323	7	Sololá	710	Panajachel	8	Panajachel	11	Noviembre	2023-04-11T00:00:00	2024-11-08T23:00:00	1	Precipitación	0
70324	7	Sololá	710	Panajachel	8	Panajachel	11	Noviembre	2023-04-11T00:00:00	2024-11-08T23:00:00	8	Radiación solar	0
70325	7	Sololá	710	Panajachel	8	Panajachel	11	Noviembre	2023-05-11T00:00:00	2024-11-08T00:00:00	2	Temperatura media	20.8
70326	7	Sololá	710	Panajachel	8	Panajachel	11	Noviembre	2023-05-11T00:00:00	2024-11-08T00:00:00	4	Temperatura máxima	21.1
70327	7	Sololá	710	Panajachel	8	Panajachel	11	Noviembre	2023-05-11T00:00:00	2024-11-08T00:00:00	3	Temperatura mínima	20.7
70328	7	Sololá	710	Panajachel	8	Panajachel	11	Noviembre	2023-05-11T00:00:00	2024-11-08T00:00:00	5	Humedad	74
70329	7	Sololá	710	Panajachel	8	Panajachel	11	Noviembre	2023-05-11T00:00:00	2024-11-08T00:00:00	6	Velocidad del viento	6.4
70330	7	Sololá	710	Panajachel	8	Panajachel	11	Noviembre	2023-05-11T00:00:00	2024-11-08T00:00:00	7	Dirección del viento	6.44
70331	7	Sololá	710	Panajachel	8	Panajachel	11	Noviembre	2023-05-11T00:00:00	2024-11-08T00:00:00	1	Precipitación	0
70332	7	Sololá	710	Panajachel	8	Panajachel	11	Noviembre	2023-05-11T00:00:00	2024-11-08T00:00:00	8	Radiación solar	0
70333	7	Sololá	710	Panajachel	8	Panajachel	11	Noviembre	2023-05-11T00:00:00	2024-11-08T01:00:00	2	Temperatura media	20.8
70334	7	Sololá	710	Panajachel	8	Panajachel	11	Noviembre	2023-05-11T00:00:00	2024-11-08T01:00:00	4	Temperatura máxima	20.8
70335	7	Sololá	710	Panajachel	8	Panajachel	11	Noviembre	2023-05-11T00:00:00	2024-11-08T01:00:00	3	Temperatura mínima	20.4
70336	7	Sololá	710	Panajachel	8	Panajachel	11	Noviembre	2023-05-11T00:00:00	2024-11-08T01:00:00	5	Humedad	72
70337	7	Sololá	710	Panajachel	8	Panajachel	11	Noviembre	2023-05-11T00:00:00	2024-11-08T01:00:00	6	Velocidad del viento	4.8
70338	7	Sololá	710	Panajachel	8	Panajachel	11	Noviembre	2023-05-11T00:00:00	2024-11-08T01:00:00	7	Dirección del viento	4.83
70339	7	Sololá	710	Panajachel	8	Panajachel	11	Noviembre	2023-05-11T00:00:00	2024-11-08T01:00:00	1	Precipitación	0
70340	7	Sololá	710	Panajachel	8	Panajachel	11	Noviembre	2023-05-11T00:00:00	2024-11-08T01:00:00	8	Radiación solar	0
70341	7	Sololá	710	Panajachel	8	Panajachel	11	Noviembre	2023-05-11T00:00:00	2024-11-08T02:00:00	2	Temperatura media	20.7
70342	7	Sololá	710	Panajachel	8	Panajachel	11	Noviembre	2023-05-11T00:00:00	2024-11-08T02:00:00	4	Temperatura máxima	20.9
70343	7	Sololá	710	Panajachel	8	Panajachel	11	Noviembre	2023-05-11T00:00:00	2024-11-08T02:00:00	3	Temperatura mínima	20.4
70344	7	Sololá	710	Panajachel	8	Panajachel	11	Noviembre	2023-05-11T00:00:00	2024-11-08T02:00:00	5	Humedad	73
70345	7	Sololá	710	Panajachel	8	Panajachel	11	Noviembre	2023-05-11T00:00:00	2024-11-08T02:00:00	6	Velocidad del viento	4.8
70346	7	Sololá	710	Panajachel	8	Panajachel	11	Noviembre	2023-05-11T00:00:00	2024-11-08T02:00:00	7	Dirección del viento	4.83
70347	7	Sololá	710	Panajachel	8	Panajachel	11	Noviembre	2023-05-11T00:00:00	2024-11-08T02:00:00	1	Precipitación	0
70348	7	Sololá	710	Panajachel	8	Panajachel	11	Noviembre	2023-05-11T00:00:00	2024-11-08T02:00:00	8	Radiación solar	0
70349	7	Sololá	710	Panajachel	8	Panajachel	11	Noviembre	2023-05-11T00:00:00	2024-11-08T03:00:00	2	Temperatura media	20.2
70350	7	Sololá	710	Panajachel	8	Panajachel	11	Noviembre	2023-05-11T00:00:00	2024-11-08T03:00:00	4	Temperatura máxima	20.8
70351	7	Sololá	710	Panajachel	8	Panajachel	11	Noviembre	2023-05-11T00:00:00	2024-11-08T03:00:00	3	Temperatura mínima	20.2
70352	7	Sololá	710	Panajachel	8	Panajachel	11	Noviembre	2023-05-11T00:00:00	2024-11-08T03:00:00	5	Humedad	76
70353	7	Sololá	710	Panajachel	8	Panajachel	11	Noviembre	2023-05-11T00:00:00	2024-11-08T03:00:00	6	Velocidad del viento	3.2
70354	7	Sololá	710	Panajachel	8	Panajachel	11	Noviembre	2023-05-11T00:00:00	2024-11-08T03:00:00	7	Dirección del viento	3.22
70355	7	Sololá	710	Panajachel	8	Panajachel	11	Noviembre	2023-05-11T00:00:00	2024-11-08T03:00:00	1	Precipitación	0
70356	7	Sololá	710	Panajachel	8	Panajachel	11	Noviembre	2023-05-11T00:00:00	2024-11-08T03:00:00	8	Radiación solar	0
70357	7	Sololá	710	Panajachel	8	Panajachel	11	Noviembre	2023-05-11T00:00:00	2024-11-08T04:00:00	2	Temperatura media	20.7
70358	7	Sololá	710	Panajachel	8	Panajachel	11	Noviembre	2023-05-11T00:00:00	2024-11-08T04:00:00	4	Temperatura máxima	20.8
70359	7	Sololá	710	Panajachel	8	Panajachel	11	Noviembre	2023-05-11T00:00:00	2024-11-08T04:00:00	3	Temperatura mínima	20.1
70360	7	Sololá	710	Panajachel	8	Panajachel	11	Noviembre	2023-05-11T00:00:00	2024-11-08T04:00:00	5	Humedad	74
70361	7	Sololá	710	Panajachel	8	Panajachel	11	Noviembre	2023-05-11T00:00:00	2024-11-08T04:00:00	6	Velocidad del viento	8
70362	7	Sololá	710	Panajachel	8	Panajachel	11	Noviembre	2023-05-11T00:00:00	2024-11-08T04:00:00	7	Dirección del viento	8.05
70363	7	Sololá	710	Panajachel	8	Panajachel	11	Noviembre	2023-05-11T00:00:00	2024-11-08T04:00:00	1	Precipitación	0
70364	7	Sololá	710	Panajachel	8	Panajachel	11	Noviembre	2023-05-11T00:00:00	2024-11-08T04:00:00	8	Radiación solar	0
70365	7	Sololá	710	Panajachel	8	Panajachel	11	Noviembre	2023-05-11T00:00:00	2024-11-08T05:00:00	2	Temperatura media	19.3
70366	7	Sololá	710	Panajachel	8	Panajachel	11	Noviembre	2023-05-11T00:00:00	2024-11-08T05:00:00	4	Temperatura máxima	20.7
70367	7	Sololá	710	Panajachel	8	Panajachel	11	Noviembre	2023-05-11T00:00:00	2024-11-08T05:00:00	3	Temperatura mínima	19.1
70368	7	Sololá	710	Panajachel	8	Panajachel	11	Noviembre	2023-05-11T00:00:00	2024-11-08T05:00:00	5	Humedad	83
70369	7	Sololá	710	Panajachel	8	Panajachel	11	Noviembre	2023-05-11T00:00:00	2024-11-08T05:00:00	6	Velocidad del viento	4.8
70370	7	Sololá	710	Panajachel	8	Panajachel	11	Noviembre	2023-05-11T00:00:00	2024-11-08T05:00:00	7	Dirección del viento	4.83
70371	7	Sololá	710	Panajachel	8	Panajachel	11	Noviembre	2023-05-11T00:00:00	2024-11-08T05:00:00	1	Precipitación	0
70372	7	Sololá	710	Panajachel	8	Panajachel	11	Noviembre	2023-05-11T00:00:00	2024-11-08T05:00:00	8	Radiación solar	0
70373	7	Sololá	710	Panajachel	8	Panajachel	11	Noviembre	2023-05-11T00:00:00	2024-11-08T06:00:00	2	Temperatura media	19.6
70374	7	Sololá	710	Panajachel	8	Panajachel	11	Noviembre	2023-05-11T00:00:00	2024-11-08T06:00:00	4	Temperatura máxima	19.8
70375	7	Sololá	710	Panajachel	8	Panajachel	11	Noviembre	2023-05-11T00:00:00	2024-11-08T06:00:00	3	Temperatura mínima	18.9
70376	7	Sololá	710	Panajachel	8	Panajachel	11	Noviembre	2023-05-11T00:00:00	2024-11-08T06:00:00	5	Humedad	79
70377	7	Sololá	710	Panajachel	8	Panajachel	11	Noviembre	2023-05-11T00:00:00	2024-11-08T06:00:00	6	Velocidad del viento	1.6
70378	7	Sololá	710	Panajachel	8	Panajachel	11	Noviembre	2023-05-11T00:00:00	2024-11-08T06:00:00	7	Dirección del viento	1.61
70379	7	Sololá	710	Panajachel	8	Panajachel	11	Noviembre	2023-05-11T00:00:00	2024-11-08T06:00:00	1	Precipitación	0
70380	7	Sololá	710	Panajachel	8	Panajachel	11	Noviembre	2023-05-11T00:00:00	2024-11-08T06:00:00	8	Radiación solar	0
70381	7	Sololá	710	Panajachel	8	Panajachel	11	Noviembre	2023-05-11T00:00:00	2024-11-08T07:00:00	2	Temperatura media	21.1
70382	7	Sololá	710	Panajachel	8	Panajachel	11	Noviembre	2023-05-11T00:00:00	2024-11-08T07:00:00	4	Temperatura máxima	21.1
70383	7	Sololá	710	Panajachel	8	Panajachel	11	Noviembre	2023-05-11T00:00:00	2024-11-08T07:00:00	3	Temperatura mínima	19.6
70384	7	Sololá	710	Panajachel	8	Panajachel	11	Noviembre	2023-05-11T00:00:00	2024-11-08T07:00:00	5	Humedad	75
70385	7	Sololá	710	Panajachel	8	Panajachel	11	Noviembre	2023-05-11T00:00:00	2024-11-08T07:00:00	6	Velocidad del viento	4.8
70386	7	Sololá	710	Panajachel	8	Panajachel	11	Noviembre	2023-05-11T00:00:00	2024-11-08T07:00:00	7	Dirección del viento	4.83
70387	7	Sololá	710	Panajachel	8	Panajachel	11	Noviembre	2023-05-11T00:00:00	2024-11-08T07:00:00	1	Precipitación	0
70388	7	Sololá	710	Panajachel	8	Panajachel	11	Noviembre	2023-05-11T00:00:00	2024-11-08T07:00:00	8	Radiación solar	20
70389	7	Sololá	710	Panajachel	8	Panajachel	11	Noviembre	2023-05-11T00:00:00	2024-11-08T08:00:00	2	Temperatura media	21.2
70390	7	Sololá	710	Panajachel	8	Panajachel	11	Noviembre	2023-05-11T00:00:00	2024-11-08T08:00:00	4	Temperatura máxima	21.3
70391	7	Sololá	710	Panajachel	8	Panajachel	11	Noviembre	2023-05-11T00:00:00	2024-11-08T08:00:00	3	Temperatura mínima	20.9
70392	7	Sololá	710	Panajachel	8	Panajachel	11	Noviembre	2023-05-11T00:00:00	2024-11-08T08:00:00	5	Humedad	76
70393	7	Sololá	710	Panajachel	8	Panajachel	11	Noviembre	2023-05-11T00:00:00	2024-11-08T08:00:00	6	Velocidad del viento	3.2
70394	7	Sololá	710	Panajachel	8	Panajachel	11	Noviembre	2023-05-11T00:00:00	2024-11-08T08:00:00	7	Dirección del viento	3.22
70395	7	Sololá	710	Panajachel	8	Panajachel	11	Noviembre	2023-05-11T00:00:00	2024-11-08T08:00:00	1	Precipitación	0
70396	7	Sololá	710	Panajachel	8	Panajachel	11	Noviembre	2023-05-11T00:00:00	2024-11-08T08:00:00	8	Radiación solar	93
70397	7	Sololá	710	Panajachel	8	Panajachel	11	Noviembre	2023-05-11T00:00:00	2024-11-08T09:00:00	2	Temperatura media	21.7
70398	7	Sololá	710	Panajachel	8	Panajachel	11	Noviembre	2023-05-11T00:00:00	2024-11-08T09:00:00	4	Temperatura máxima	21.8
70399	7	Sololá	710	Panajachel	8	Panajachel	11	Noviembre	2023-05-11T00:00:00	2024-11-08T09:00:00	3	Temperatura mínima	21.2
70400	7	Sololá	710	Panajachel	8	Panajachel	11	Noviembre	2023-05-11T00:00:00	2024-11-08T09:00:00	5	Humedad	74
70401	7	Sololá	710	Panajachel	8	Panajachel	11	Noviembre	2023-05-11T00:00:00	2024-11-08T09:00:00	6	Velocidad del viento	6.4
70402	7	Sololá	710	Panajachel	8	Panajachel	11	Noviembre	2023-05-11T00:00:00	2024-11-08T09:00:00	7	Dirección del viento	6.44
70403	7	Sololá	710	Panajachel	8	Panajachel	11	Noviembre	2023-05-11T00:00:00	2024-11-08T09:00:00	1	Precipitación	0
70404	7	Sololá	710	Panajachel	8	Panajachel	11	Noviembre	2023-05-11T00:00:00	2024-11-08T09:00:00	8	Radiación solar	173
70405	7	Sololá	710	Panajachel	8	Panajachel	11	Noviembre	2023-05-11T00:00:00	2024-11-08T10:00:00	2	Temperatura media	23.2
70406	7	Sololá	710	Panajachel	8	Panajachel	11	Noviembre	2023-05-11T00:00:00	2024-11-08T10:00:00	4	Temperatura máxima	23.2
70407	7	Sololá	710	Panajachel	8	Panajachel	11	Noviembre	2023-05-11T00:00:00	2024-11-08T10:00:00	3	Temperatura mínima	21.7
70408	7	Sololá	710	Panajachel	8	Panajachel	11	Noviembre	2023-05-11T00:00:00	2024-11-08T10:00:00	5	Humedad	72
70409	7	Sololá	710	Panajachel	8	Panajachel	11	Noviembre	2023-05-11T00:00:00	2024-11-08T10:00:00	6	Velocidad del viento	8
70410	7	Sololá	710	Panajachel	8	Panajachel	11	Noviembre	2023-05-11T00:00:00	2024-11-08T10:00:00	7	Dirección del viento	8.05
70411	7	Sololá	710	Panajachel	8	Panajachel	11	Noviembre	2023-05-11T00:00:00	2024-11-08T10:00:00	1	Precipitación	0
70412	7	Sololá	710	Panajachel	8	Panajachel	11	Noviembre	2023-05-11T00:00:00	2024-11-08T10:00:00	8	Radiación solar	329
70413	7	Sololá	710	Panajachel	8	Panajachel	11	Noviembre	2023-05-11T00:00:00	2024-11-08T11:00:00	2	Temperatura media	22.9
70414	7	Sololá	710	Panajachel	8	Panajachel	11	Noviembre	2023-05-11T00:00:00	2024-11-08T11:00:00	4	Temperatura máxima	23.3
70415	7	Sololá	710	Panajachel	8	Panajachel	11	Noviembre	2023-05-11T00:00:00	2024-11-08T11:00:00	3	Temperatura mínima	22.8
70416	7	Sololá	710	Panajachel	8	Panajachel	11	Noviembre	2023-05-11T00:00:00	2024-11-08T11:00:00	5	Humedad	72
70417	7	Sololá	710	Panajachel	8	Panajachel	11	Noviembre	2023-05-11T00:00:00	2024-11-08T11:00:00	6	Velocidad del viento	8
70418	7	Sololá	710	Panajachel	8	Panajachel	11	Noviembre	2023-05-11T00:00:00	2024-11-08T11:00:00	7	Dirección del viento	8.05
70419	7	Sololá	710	Panajachel	8	Panajachel	11	Noviembre	2023-05-11T00:00:00	2024-11-08T11:00:00	1	Precipitación	0
70420	7	Sololá	710	Panajachel	8	Panajachel	11	Noviembre	2023-05-11T00:00:00	2024-11-08T11:00:00	8	Radiación solar	392
70421	7	Sololá	710	Panajachel	8	Panajachel	11	Noviembre	2023-05-11T00:00:00	2024-11-08T12:00:00	2	Temperatura media	23
70422	7	Sololá	710	Panajachel	8	Panajachel	11	Noviembre	2023-05-11T00:00:00	2024-11-08T12:00:00	4	Temperatura máxima	23.3
70423	7	Sololá	710	Panajachel	8	Panajachel	11	Noviembre	2023-05-11T00:00:00	2024-11-08T12:00:00	3	Temperatura mínima	22.7
70424	7	Sololá	710	Panajachel	8	Panajachel	11	Noviembre	2023-05-11T00:00:00	2024-11-08T12:00:00	5	Humedad	72
70425	7	Sololá	710	Panajachel	8	Panajachel	11	Noviembre	2023-05-11T00:00:00	2024-11-08T12:00:00	6	Velocidad del viento	8
70426	7	Sololá	710	Panajachel	8	Panajachel	11	Noviembre	2023-05-11T00:00:00	2024-11-08T12:00:00	7	Dirección del viento	8.05
70427	7	Sololá	710	Panajachel	8	Panajachel	11	Noviembre	2023-05-11T00:00:00	2024-11-08T12:00:00	1	Precipitación	0
70428	7	Sololá	710	Panajachel	8	Panajachel	11	Noviembre	2023-05-11T00:00:00	2024-11-08T12:00:00	8	Radiación solar	353
70429	7	Sololá	710	Panajachel	8	Panajachel	11	Noviembre	2023-05-11T00:00:00	2024-11-08T13:00:00	2	Temperatura media	23.8
70430	7	Sololá	710	Panajachel	8	Panajachel	11	Noviembre	2023-05-11T00:00:00	2024-11-08T13:00:00	4	Temperatura máxima	23.8
70431	7	Sololá	710	Panajachel	8	Panajachel	11	Noviembre	2023-05-11T00:00:00	2024-11-08T13:00:00	3	Temperatura mínima	22.8
70432	7	Sololá	710	Panajachel	8	Panajachel	11	Noviembre	2023-05-11T00:00:00	2024-11-08T13:00:00	5	Humedad	69
70433	7	Sololá	710	Panajachel	8	Panajachel	11	Noviembre	2023-05-11T00:00:00	2024-11-08T13:00:00	6	Velocidad del viento	6.4
70434	7	Sololá	710	Panajachel	8	Panajachel	11	Noviembre	2023-05-11T00:00:00	2024-11-08T13:00:00	7	Dirección del viento	6.44
70435	7	Sololá	710	Panajachel	8	Panajachel	11	Noviembre	2023-05-11T00:00:00	2024-11-08T13:00:00	1	Precipitación	0
70436	7	Sololá	710	Panajachel	8	Panajachel	11	Noviembre	2023-05-11T00:00:00	2024-11-08T13:00:00	8	Radiación solar	395
70437	7	Sololá	710	Panajachel	8	Panajachel	11	Noviembre	2023-05-11T00:00:00	2024-11-08T14:00:00	2	Temperatura media	24.2
70438	7	Sololá	710	Panajachel	8	Panajachel	11	Noviembre	2023-05-11T00:00:00	2024-11-08T14:00:00	4	Temperatura máxima	24.2
70439	7	Sololá	710	Panajachel	8	Panajachel	11	Noviembre	2023-05-11T00:00:00	2024-11-08T14:00:00	3	Temperatura mínima	23.6
70440	7	Sololá	710	Panajachel	8	Panajachel	11	Noviembre	2023-05-11T00:00:00	2024-11-08T14:00:00	5	Humedad	68
70441	7	Sololá	710	Panajachel	8	Panajachel	11	Noviembre	2023-05-11T00:00:00	2024-11-08T14:00:00	6	Velocidad del viento	6.4
70442	7	Sololá	710	Panajachel	8	Panajachel	11	Noviembre	2023-05-11T00:00:00	2024-11-08T14:00:00	7	Dirección del viento	6.44
70443	7	Sololá	710	Panajachel	8	Panajachel	11	Noviembre	2023-05-11T00:00:00	2024-11-08T14:00:00	1	Precipitación	0
70444	7	Sololá	710	Panajachel	8	Panajachel	11	Noviembre	2023-05-11T00:00:00	2024-11-08T14:00:00	8	Radiación solar	357
70445	7	Sololá	710	Panajachel	8	Panajachel	11	Noviembre	2023-05-11T00:00:00	2024-11-08T15:00:00	2	Temperatura media	24.8
70446	7	Sololá	710	Panajachel	8	Panajachel	11	Noviembre	2023-05-11T00:00:00	2024-11-08T15:00:00	4	Temperatura máxima	25.3
70447	7	Sololá	710	Panajachel	8	Panajachel	11	Noviembre	2023-05-11T00:00:00	2024-11-08T15:00:00	3	Temperatura mínima	23.4
70448	7	Sololá	710	Panajachel	8	Panajachel	11	Noviembre	2023-05-11T00:00:00	2024-11-08T15:00:00	5	Humedad	65
70449	7	Sololá	710	Panajachel	8	Panajachel	11	Noviembre	2023-05-11T00:00:00	2024-11-08T15:00:00	6	Velocidad del viento	4.8
70450	7	Sololá	710	Panajachel	8	Panajachel	11	Noviembre	2023-05-11T00:00:00	2024-11-08T15:00:00	7	Dirección del viento	4.83
70451	7	Sololá	710	Panajachel	8	Panajachel	11	Noviembre	2023-05-11T00:00:00	2024-11-08T15:00:00	1	Precipitación	0
70452	7	Sololá	710	Panajachel	8	Panajachel	11	Noviembre	2023-05-11T00:00:00	2024-11-08T15:00:00	8	Radiación solar	323
70453	7	Sololá	710	Panajachel	8	Panajachel	11	Noviembre	2023-05-11T00:00:00	2024-11-08T16:00:00	2	Temperatura media	22.3
70454	7	Sololá	710	Panajachel	8	Panajachel	11	Noviembre	2023-05-11T00:00:00	2024-11-08T16:00:00	4	Temperatura máxima	25.7
70455	7	Sololá	710	Panajachel	8	Panajachel	11	Noviembre	2023-05-11T00:00:00	2024-11-08T16:00:00	3	Temperatura mínima	22.2
70456	7	Sololá	710	Panajachel	8	Panajachel	11	Noviembre	2023-05-11T00:00:00	2024-11-08T16:00:00	5	Humedad	73
70457	7	Sololá	710	Panajachel	8	Panajachel	11	Noviembre	2023-05-11T00:00:00	2024-11-08T16:00:00	6	Velocidad del viento	6.4
70458	7	Sololá	710	Panajachel	8	Panajachel	11	Noviembre	2023-05-11T00:00:00	2024-11-08T16:00:00	7	Dirección del viento	6.44
70459	7	Sololá	710	Panajachel	8	Panajachel	11	Noviembre	2023-05-11T00:00:00	2024-11-08T16:00:00	1	Precipitación	0
70460	7	Sololá	710	Panajachel	8	Panajachel	11	Noviembre	2023-05-11T00:00:00	2024-11-08T16:00:00	8	Radiación solar	197
70461	7	Sololá	710	Panajachel	8	Panajachel	11	Noviembre	2023-05-11T00:00:00	2024-11-08T17:00:00	2	Temperatura media	21.6
70462	7	Sololá	710	Panajachel	8	Panajachel	11	Noviembre	2023-05-11T00:00:00	2024-11-08T17:00:00	4	Temperatura máxima	22.6
70463	7	Sololá	710	Panajachel	8	Panajachel	11	Noviembre	2023-05-11T00:00:00	2024-11-08T17:00:00	3	Temperatura mínima	21.6
70464	7	Sololá	710	Panajachel	8	Panajachel	11	Noviembre	2023-05-11T00:00:00	2024-11-08T17:00:00	5	Humedad	83
70465	7	Sololá	710	Panajachel	8	Panajachel	11	Noviembre	2023-05-11T00:00:00	2024-11-08T17:00:00	6	Velocidad del viento	4.8
70466	7	Sololá	710	Panajachel	8	Panajachel	11	Noviembre	2023-05-11T00:00:00	2024-11-08T17:00:00	7	Dirección del viento	4.83
70467	7	Sololá	710	Panajachel	8	Panajachel	11	Noviembre	2023-05-11T00:00:00	2024-11-08T17:00:00	1	Precipitación	0
70468	7	Sololá	710	Panajachel	8	Panajachel	11	Noviembre	2023-05-11T00:00:00	2024-11-08T17:00:00	8	Radiación solar	78
70469	7	Sololá	710	Panajachel	8	Panajachel	11	Noviembre	2023-05-11T00:00:00	2024-11-08T18:00:00	2	Temperatura media	21.6
70470	7	Sololá	710	Panajachel	8	Panajachel	11	Noviembre	2023-05-11T00:00:00	2024-11-08T18:00:00	4	Temperatura máxima	21.8
70471	7	Sololá	710	Panajachel	8	Panajachel	11	Noviembre	2023-05-11T00:00:00	2024-11-08T18:00:00	3	Temperatura mínima	21.4
70472	7	Sololá	710	Panajachel	8	Panajachel	11	Noviembre	2023-05-11T00:00:00	2024-11-08T18:00:00	5	Humedad	77
70473	7	Sololá	710	Panajachel	8	Panajachel	11	Noviembre	2023-05-11T00:00:00	2024-11-08T18:00:00	6	Velocidad del viento	4.8
70474	7	Sololá	710	Panajachel	8	Panajachel	11	Noviembre	2023-05-11T00:00:00	2024-11-08T18:00:00	7	Dirección del viento	4.83
70475	7	Sololá	710	Panajachel	8	Panajachel	11	Noviembre	2023-05-11T00:00:00	2024-11-08T18:00:00	1	Precipitación	0
70476	7	Sololá	710	Panajachel	8	Panajachel	11	Noviembre	2023-05-11T00:00:00	2024-11-08T18:00:00	8	Radiación solar	19
70477	7	Sololá	710	Panajachel	8	Panajachel	11	Noviembre	2023-05-11T00:00:00	2024-11-08T19:00:00	2	Temperatura media	20.1
70478	7	Sololá	710	Panajachel	8	Panajachel	11	Noviembre	2023-05-11T00:00:00	2024-11-08T19:00:00	4	Temperatura máxima	21.6
70479	7	Sololá	710	Panajachel	8	Panajachel	11	Noviembre	2023-05-11T00:00:00	2024-11-08T19:00:00	3	Temperatura mínima	20.1
70480	7	Sololá	710	Panajachel	8	Panajachel	11	Noviembre	2023-05-11T00:00:00	2024-11-08T19:00:00	5	Humedad	84
70481	7	Sololá	710	Panajachel	8	Panajachel	11	Noviembre	2023-05-11T00:00:00	2024-11-08T19:00:00	6	Velocidad del viento	1.6
70482	7	Sololá	710	Panajachel	8	Panajachel	11	Noviembre	2023-05-11T00:00:00	2024-11-08T19:00:00	7	Dirección del viento	1.61
70483	7	Sololá	710	Panajachel	8	Panajachel	11	Noviembre	2023-05-11T00:00:00	2024-11-08T19:00:00	1	Precipitación	0
70484	7	Sololá	710	Panajachel	8	Panajachel	11	Noviembre	2023-05-11T00:00:00	2024-11-08T19:00:00	8	Radiación solar	0
70485	7	Sololá	710	Panajachel	8	Panajachel	11	Noviembre	2023-05-11T00:00:00	2024-11-08T20:00:00	2	Temperatura media	19.8
70486	7	Sololá	710	Panajachel	8	Panajachel	11	Noviembre	2023-05-11T00:00:00	2024-11-08T20:00:00	4	Temperatura máxima	20.1
70487	7	Sololá	710	Panajachel	8	Panajachel	11	Noviembre	2023-05-11T00:00:00	2024-11-08T20:00:00	3	Temperatura mínima	19.3
70488	7	Sololá	710	Panajachel	8	Panajachel	11	Noviembre	2023-05-11T00:00:00	2024-11-08T20:00:00	5	Humedad	83
70489	7	Sololá	710	Panajachel	8	Panajachel	11	Noviembre	2023-05-11T00:00:00	2024-11-08T20:00:00	6	Velocidad del viento	1.6
70490	7	Sololá	710	Panajachel	8	Panajachel	11	Noviembre	2023-05-11T00:00:00	2024-11-08T20:00:00	7	Dirección del viento	1.61
70491	7	Sololá	710	Panajachel	8	Panajachel	11	Noviembre	2023-05-11T00:00:00	2024-11-08T20:00:00	1	Precipitación	0
70492	7	Sololá	710	Panajachel	8	Panajachel	11	Noviembre	2023-05-11T00:00:00	2024-11-08T20:00:00	8	Radiación solar	0
70493	7	Sololá	710	Panajachel	8	Panajachel	11	Noviembre	2023-05-11T00:00:00	2024-11-08T21:00:00	2	Temperatura media	21
70494	7	Sololá	710	Panajachel	8	Panajachel	11	Noviembre	2023-05-11T00:00:00	2024-11-08T21:00:00	4	Temperatura máxima	21.2
70495	7	Sololá	710	Panajachel	8	Panajachel	11	Noviembre	2023-05-11T00:00:00	2024-11-08T21:00:00	3	Temperatura mínima	19.7
70496	7	Sololá	710	Panajachel	8	Panajachel	11	Noviembre	2023-05-11T00:00:00	2024-11-08T21:00:00	5	Humedad	77
70497	7	Sololá	710	Panajachel	8	Panajachel	11	Noviembre	2023-05-11T00:00:00	2024-11-08T21:00:00	6	Velocidad del viento	8
70498	7	Sololá	710	Panajachel	8	Panajachel	11	Noviembre	2023-05-11T00:00:00	2024-11-08T21:00:00	7	Dirección del viento	8.05
70499	7	Sololá	710	Panajachel	8	Panajachel	11	Noviembre	2023-05-11T00:00:00	2024-11-08T21:00:00	1	Precipitación	0
70500	7	Sololá	710	Panajachel	8	Panajachel	11	Noviembre	2023-05-11T00:00:00	2024-11-08T21:00:00	8	Radiación solar	0
70501	7	Sololá	710	Panajachel	8	Panajachel	11	Noviembre	2023-05-11T00:00:00	2024-11-08T22:00:00	2	Temperatura media	20.3
70502	7	Sololá	710	Panajachel	8	Panajachel	11	Noviembre	2023-05-11T00:00:00	2024-11-08T22:00:00	4	Temperatura máxima	21
70503	7	Sololá	710	Panajachel	8	Panajachel	11	Noviembre	2023-05-11T00:00:00	2024-11-08T22:00:00	3	Temperatura mínima	20.1
70504	7	Sololá	710	Panajachel	8	Panajachel	11	Noviembre	2023-05-11T00:00:00	2024-11-08T22:00:00	5	Humedad	78
70505	7	Sololá	710	Panajachel	8	Panajachel	11	Noviembre	2023-05-11T00:00:00	2024-11-08T22:00:00	6	Velocidad del viento	3.2
70506	7	Sololá	710	Panajachel	8	Panajachel	11	Noviembre	2023-05-11T00:00:00	2024-11-08T22:00:00	7	Dirección del viento	3.22
70507	7	Sololá	710	Panajachel	8	Panajachel	11	Noviembre	2023-05-11T00:00:00	2024-11-08T22:00:00	1	Precipitación	0
70508	7	Sololá	710	Panajachel	8	Panajachel	11	Noviembre	2023-05-11T00:00:00	2024-11-08T22:00:00	8	Radiación solar	0
70509	7	Sololá	710	Panajachel	8	Panajachel	11	Noviembre	2023-05-11T00:00:00	2024-11-08T23:00:00	2	Temperatura media	19.4
70510	7	Sololá	710	Panajachel	8	Panajachel	11	Noviembre	2023-05-11T00:00:00	2024-11-08T23:00:00	4	Temperatura máxima	20.3
70511	7	Sololá	710	Panajachel	8	Panajachel	11	Noviembre	2023-05-11T00:00:00	2024-11-08T23:00:00	3	Temperatura mínima	19.3
70512	7	Sololá	710	Panajachel	8	Panajachel	11	Noviembre	2023-05-11T00:00:00	2024-11-08T23:00:00	5	Humedad	82
70513	7	Sololá	710	Panajachel	8	Panajachel	11	Noviembre	2023-05-11T00:00:00	2024-11-08T23:00:00	6	Velocidad del viento	3.2
70514	7	Sololá	710	Panajachel	8	Panajachel	11	Noviembre	2023-05-11T00:00:00	2024-11-08T23:00:00	7	Dirección del viento	3.22
70515	7	Sololá	710	Panajachel	8	Panajachel	11	Noviembre	2023-05-11T00:00:00	2024-11-08T23:00:00	1	Precipitación	0
70516	7	Sololá	710	Panajachel	8	Panajachel	11	Noviembre	2023-05-11T00:00:00	2024-11-08T23:00:00	8	Radiación solar	0
70517	7	Sololá	710	Panajachel	8	Panajachel	11	Noviembre	2023-06-11T00:00:00	2024-11-08T00:00:00	2	Temperatura media	20.1
70518	7	Sololá	710	Panajachel	8	Panajachel	11	Noviembre	2023-06-11T00:00:00	2024-11-08T00:00:00	4	Temperatura máxima	20.8
70519	7	Sololá	710	Panajachel	8	Panajachel	11	Noviembre	2023-06-11T00:00:00	2024-11-08T00:00:00	3	Temperatura mínima	19.4
70520	7	Sololá	710	Panajachel	8	Panajachel	11	Noviembre	2023-06-11T00:00:00	2024-11-08T00:00:00	5	Humedad	80
70521	7	Sololá	710	Panajachel	8	Panajachel	11	Noviembre	2023-06-11T00:00:00	2024-11-08T00:00:00	6	Velocidad del viento	3.2
70522	7	Sololá	710	Panajachel	8	Panajachel	11	Noviembre	2023-06-11T00:00:00	2024-11-08T00:00:00	7	Dirección del viento	3.22
70523	7	Sololá	710	Panajachel	8	Panajachel	11	Noviembre	2023-06-11T00:00:00	2024-11-08T00:00:00	1	Precipitación	0
70524	7	Sololá	710	Panajachel	8	Panajachel	11	Noviembre	2023-06-11T00:00:00	2024-11-08T00:00:00	8	Radiación solar	0
70525	7	Sololá	710	Panajachel	8	Panajachel	11	Noviembre	2023-06-11T00:00:00	2024-11-08T01:00:00	2	Temperatura media	20.1
70526	7	Sololá	710	Panajachel	8	Panajachel	11	Noviembre	2023-06-11T00:00:00	2024-11-08T01:00:00	4	Temperatura máxima	20.1
70527	7	Sololá	710	Panajachel	8	Panajachel	11	Noviembre	2023-06-11T00:00:00	2024-11-08T01:00:00	3	Temperatura mínima	19.8
70528	7	Sololá	710	Panajachel	8	Panajachel	11	Noviembre	2023-06-11T00:00:00	2024-11-08T01:00:00	5	Humedad	80
70529	7	Sololá	710	Panajachel	8	Panajachel	11	Noviembre	2023-06-11T00:00:00	2024-11-08T01:00:00	6	Velocidad del viento	0
70530	7	Sololá	710	Panajachel	8	Panajachel	11	Noviembre	2023-06-11T00:00:00	2024-11-08T01:00:00	7	Dirección del viento	0
70531	7	Sololá	710	Panajachel	8	Panajachel	11	Noviembre	2023-06-11T00:00:00	2024-11-08T01:00:00	1	Precipitación	0
70532	7	Sololá	710	Panajachel	8	Panajachel	11	Noviembre	2023-06-11T00:00:00	2024-11-08T01:00:00	8	Radiación solar	0
70533	7	Sololá	710	Panajachel	8	Panajachel	11	Noviembre	2023-06-11T00:00:00	2024-11-08T02:00:00	2	Temperatura media	19.1
70534	7	Sololá	710	Panajachel	8	Panajachel	11	Noviembre	2023-06-11T00:00:00	2024-11-08T02:00:00	4	Temperatura máxima	20.1
70535	7	Sololá	710	Panajachel	8	Panajachel	11	Noviembre	2023-06-11T00:00:00	2024-11-08T02:00:00	3	Temperatura mínima	19.1
70536	7	Sololá	710	Panajachel	8	Panajachel	11	Noviembre	2023-06-11T00:00:00	2024-11-08T02:00:00	5	Humedad	85
70537	7	Sololá	710	Panajachel	8	Panajachel	11	Noviembre	2023-06-11T00:00:00	2024-11-08T02:00:00	6	Velocidad del viento	0
70538	7	Sololá	710	Panajachel	8	Panajachel	11	Noviembre	2023-06-11T00:00:00	2024-11-08T02:00:00	7	Dirección del viento	0
70539	7	Sololá	710	Panajachel	8	Panajachel	11	Noviembre	2023-06-11T00:00:00	2024-11-08T02:00:00	1	Precipitación	0
70540	7	Sololá	710	Panajachel	8	Panajachel	11	Noviembre	2023-06-11T00:00:00	2024-11-08T02:00:00	8	Radiación solar	0
70541	7	Sololá	710	Panajachel	8	Panajachel	11	Noviembre	2023-06-11T00:00:00	2024-11-08T03:00:00	2	Temperatura media	19.2
70542	7	Sololá	710	Panajachel	8	Panajachel	11	Noviembre	2023-06-11T00:00:00	2024-11-08T03:00:00	4	Temperatura máxima	19.2
70543	7	Sololá	710	Panajachel	8	Panajachel	11	Noviembre	2023-06-11T00:00:00	2024-11-08T03:00:00	3	Temperatura mínima	18.9
70544	7	Sololá	710	Panajachel	8	Panajachel	11	Noviembre	2023-06-11T00:00:00	2024-11-08T03:00:00	5	Humedad	82
70545	7	Sololá	710	Panajachel	8	Panajachel	11	Noviembre	2023-06-11T00:00:00	2024-11-08T03:00:00	6	Velocidad del viento	0
70546	7	Sololá	710	Panajachel	8	Panajachel	11	Noviembre	2023-06-11T00:00:00	2024-11-08T03:00:00	7	Dirección del viento	0
70547	7	Sololá	710	Panajachel	8	Panajachel	11	Noviembre	2023-06-11T00:00:00	2024-11-08T03:00:00	1	Precipitación	0
70548	7	Sololá	710	Panajachel	8	Panajachel	11	Noviembre	2023-06-11T00:00:00	2024-11-08T03:00:00	8	Radiación solar	0
70549	7	Sololá	710	Panajachel	8	Panajachel	11	Noviembre	2023-06-11T00:00:00	2024-11-08T04:00:00	2	Temperatura media	19.6
70550	7	Sololá	710	Panajachel	8	Panajachel	11	Noviembre	2023-06-11T00:00:00	2024-11-08T04:00:00	4	Temperatura máxima	20.3
70551	7	Sololá	710	Panajachel	8	Panajachel	11	Noviembre	2023-06-11T00:00:00	2024-11-08T04:00:00	3	Temperatura mínima	19.2
70552	7	Sololá	710	Panajachel	8	Panajachel	11	Noviembre	2023-06-11T00:00:00	2024-11-08T04:00:00	5	Humedad	81
70553	7	Sololá	710	Panajachel	8	Panajachel	11	Noviembre	2023-06-11T00:00:00	2024-11-08T04:00:00	6	Velocidad del viento	0
70554	7	Sololá	710	Panajachel	8	Panajachel	11	Noviembre	2023-06-11T00:00:00	2024-11-08T04:00:00	7	Dirección del viento	0
70555	7	Sololá	710	Panajachel	8	Panajachel	11	Noviembre	2023-06-11T00:00:00	2024-11-08T04:00:00	1	Precipitación	0
70556	7	Sololá	710	Panajachel	8	Panajachel	11	Noviembre	2023-06-11T00:00:00	2024-11-08T04:00:00	8	Radiación solar	0
70557	7	Sololá	710	Panajachel	8	Panajachel	11	Noviembre	2023-06-11T00:00:00	2024-11-08T05:00:00	2	Temperatura media	19.4
70558	7	Sololá	710	Panajachel	8	Panajachel	11	Noviembre	2023-06-11T00:00:00	2024-11-08T05:00:00	4	Temperatura máxima	19.7
70559	7	Sololá	710	Panajachel	8	Panajachel	11	Noviembre	2023-06-11T00:00:00	2024-11-08T05:00:00	3	Temperatura mínima	19.3
70560	7	Sololá	710	Panajachel	8	Panajachel	11	Noviembre	2023-06-11T00:00:00	2024-11-08T05:00:00	5	Humedad	83
70561	7	Sololá	710	Panajachel	8	Panajachel	11	Noviembre	2023-06-11T00:00:00	2024-11-08T05:00:00	6	Velocidad del viento	1.6
70562	7	Sololá	710	Panajachel	8	Panajachel	11	Noviembre	2023-06-11T00:00:00	2024-11-08T05:00:00	7	Dirección del viento	1.61
70563	7	Sololá	710	Panajachel	8	Panajachel	11	Noviembre	2023-06-11T00:00:00	2024-11-08T05:00:00	1	Precipitación	0
70564	7	Sololá	710	Panajachel	8	Panajachel	11	Noviembre	2023-06-11T00:00:00	2024-11-08T05:00:00	8	Radiación solar	0
70565	7	Sololá	710	Panajachel	8	Panajachel	11	Noviembre	2023-06-11T00:00:00	2024-11-08T06:00:00	2	Temperatura media	19.4
70566	7	Sololá	710	Panajachel	8	Panajachel	11	Noviembre	2023-06-11T00:00:00	2024-11-08T06:00:00	4	Temperatura máxima	19.5
70567	7	Sololá	710	Panajachel	8	Panajachel	11	Noviembre	2023-06-11T00:00:00	2024-11-08T06:00:00	3	Temperatura mínima	19.2
70568	7	Sololá	710	Panajachel	8	Panajachel	11	Noviembre	2023-06-11T00:00:00	2024-11-08T06:00:00	5	Humedad	83
70569	7	Sololá	710	Panajachel	8	Panajachel	11	Noviembre	2023-06-11T00:00:00	2024-11-08T06:00:00	6	Velocidad del viento	1.6
70570	7	Sololá	710	Panajachel	8	Panajachel	11	Noviembre	2023-06-11T00:00:00	2024-11-08T06:00:00	7	Dirección del viento	1.61
70571	7	Sololá	710	Panajachel	8	Panajachel	11	Noviembre	2023-06-11T00:00:00	2024-11-08T06:00:00	1	Precipitación	0
70572	7	Sololá	710	Panajachel	8	Panajachel	11	Noviembre	2023-06-11T00:00:00	2024-11-08T06:00:00	8	Radiación solar	0
70573	7	Sololá	710	Panajachel	8	Panajachel	11	Noviembre	2023-06-11T00:00:00	2024-11-08T07:00:00	2	Temperatura media	19.6
70574	7	Sololá	710	Panajachel	8	Panajachel	11	Noviembre	2023-06-11T00:00:00	2024-11-08T07:00:00	4	Temperatura máxima	19.6
70575	7	Sololá	710	Panajachel	8	Panajachel	11	Noviembre	2023-06-11T00:00:00	2024-11-08T07:00:00	3	Temperatura mínima	19.2
70576	7	Sololá	710	Panajachel	8	Panajachel	11	Noviembre	2023-06-11T00:00:00	2024-11-08T07:00:00	5	Humedad	83
70577	7	Sololá	710	Panajachel	8	Panajachel	11	Noviembre	2023-06-11T00:00:00	2024-11-08T07:00:00	6	Velocidad del viento	1.6
70578	7	Sololá	710	Panajachel	8	Panajachel	11	Noviembre	2023-06-11T00:00:00	2024-11-08T07:00:00	7	Dirección del viento	1.61
70579	7	Sololá	710	Panajachel	8	Panajachel	11	Noviembre	2023-06-11T00:00:00	2024-11-08T07:00:00	1	Precipitación	0
70580	7	Sololá	710	Panajachel	8	Panajachel	11	Noviembre	2023-06-11T00:00:00	2024-11-08T07:00:00	8	Radiación solar	38
70581	7	Sololá	710	Panajachel	8	Panajachel	11	Noviembre	2023-06-11T00:00:00	2024-11-08T08:00:00	2	Temperatura media	21.7
70582	7	Sololá	710	Panajachel	8	Panajachel	11	Noviembre	2023-06-11T00:00:00	2024-11-08T08:00:00	4	Temperatura máxima	21.7
70583	7	Sololá	710	Panajachel	8	Panajachel	11	Noviembre	2023-06-11T00:00:00	2024-11-08T08:00:00	3	Temperatura mínima	19.6
70584	7	Sololá	710	Panajachel	8	Panajachel	11	Noviembre	2023-06-11T00:00:00	2024-11-08T08:00:00	5	Humedad	73
70585	7	Sololá	710	Panajachel	8	Panajachel	11	Noviembre	2023-06-11T00:00:00	2024-11-08T08:00:00	6	Velocidad del viento	1.6
70586	7	Sololá	710	Panajachel	8	Panajachel	11	Noviembre	2023-06-11T00:00:00	2024-11-08T08:00:00	7	Dirección del viento	1.61
70587	7	Sololá	710	Panajachel	8	Panajachel	11	Noviembre	2023-06-11T00:00:00	2024-11-08T08:00:00	1	Precipitación	0
70588	7	Sololá	710	Panajachel	8	Panajachel	11	Noviembre	2023-06-11T00:00:00	2024-11-08T08:00:00	8	Radiación solar	108
70589	7	Sololá	710	Panajachel	8	Panajachel	11	Noviembre	2023-06-11T00:00:00	2024-11-08T09:00:00	2	Temperatura media	22.4
70590	7	Sololá	710	Panajachel	8	Panajachel	11	Noviembre	2023-06-11T00:00:00	2024-11-08T09:00:00	4	Temperatura máxima	22.4
70591	7	Sololá	710	Panajachel	8	Panajachel	11	Noviembre	2023-06-11T00:00:00	2024-11-08T09:00:00	3	Temperatura mínima	21.7
70592	7	Sololá	710	Panajachel	8	Panajachel	11	Noviembre	2023-06-11T00:00:00	2024-11-08T09:00:00	5	Humedad	70
70593	7	Sololá	710	Panajachel	8	Panajachel	11	Noviembre	2023-06-11T00:00:00	2024-11-08T09:00:00	6	Velocidad del viento	4.8
70594	7	Sololá	710	Panajachel	8	Panajachel	11	Noviembre	2023-06-11T00:00:00	2024-11-08T09:00:00	7	Dirección del viento	4.83
70595	7	Sololá	710	Panajachel	8	Panajachel	11	Noviembre	2023-06-11T00:00:00	2024-11-08T09:00:00	1	Precipitación	0
70596	7	Sololá	710	Panajachel	8	Panajachel	11	Noviembre	2023-06-11T00:00:00	2024-11-08T09:00:00	8	Radiación solar	146
70597	7	Sololá	710	Panajachel	8	Panajachel	11	Noviembre	2023-06-11T00:00:00	2024-11-08T10:00:00	2	Temperatura media	23.4
70598	7	Sololá	710	Panajachel	8	Panajachel	11	Noviembre	2023-06-11T00:00:00	2024-11-08T10:00:00	4	Temperatura máxima	23.4
70599	7	Sololá	710	Panajachel	8	Panajachel	11	Noviembre	2023-06-11T00:00:00	2024-11-08T10:00:00	3	Temperatura mínima	22.4
70600	7	Sololá	710	Panajachel	8	Panajachel	11	Noviembre	2023-06-11T00:00:00	2024-11-08T10:00:00	5	Humedad	71
70601	7	Sololá	710	Panajachel	8	Panajachel	11	Noviembre	2023-06-11T00:00:00	2024-11-08T10:00:00	6	Velocidad del viento	6.4
70602	7	Sololá	710	Panajachel	8	Panajachel	11	Noviembre	2023-06-11T00:00:00	2024-11-08T10:00:00	7	Dirección del viento	6.44
70603	7	Sololá	710	Panajachel	8	Panajachel	11	Noviembre	2023-06-11T00:00:00	2024-11-08T10:00:00	1	Precipitación	0
70604	7	Sololá	710	Panajachel	8	Panajachel	11	Noviembre	2023-06-11T00:00:00	2024-11-08T10:00:00	8	Radiación solar	346
70605	7	Sololá	710	Panajachel	8	Panajachel	11	Noviembre	2023-06-11T00:00:00	2024-11-08T11:00:00	2	Temperatura media	23.6
70606	7	Sololá	710	Panajachel	8	Panajachel	11	Noviembre	2023-06-11T00:00:00	2024-11-08T11:00:00	4	Temperatura máxima	24.3
70607	7	Sololá	710	Panajachel	8	Panajachel	11	Noviembre	2023-06-11T00:00:00	2024-11-08T11:00:00	3	Temperatura mínima	23.4
70608	7	Sololá	710	Panajachel	8	Panajachel	11	Noviembre	2023-06-11T00:00:00	2024-11-08T11:00:00	5	Humedad	69
70609	7	Sololá	710	Panajachel	8	Panajachel	11	Noviembre	2023-06-11T00:00:00	2024-11-08T11:00:00	6	Velocidad del viento	8
70610	7	Sololá	710	Panajachel	8	Panajachel	11	Noviembre	2023-06-11T00:00:00	2024-11-08T11:00:00	7	Dirección del viento	8.05
70611	7	Sololá	710	Panajachel	8	Panajachel	11	Noviembre	2023-06-11T00:00:00	2024-11-08T11:00:00	1	Precipitación	0
70612	7	Sololá	710	Panajachel	8	Panajachel	11	Noviembre	2023-06-11T00:00:00	2024-11-08T11:00:00	8	Radiación solar	474
70613	7	Sololá	710	Panajachel	8	Panajachel	11	Noviembre	2023-06-11T00:00:00	2024-11-08T12:00:00	2	Temperatura media	23.7
70614	7	Sololá	710	Panajachel	8	Panajachel	11	Noviembre	2023-06-11T00:00:00	2024-11-08T12:00:00	4	Temperatura máxima	24.1
70615	7	Sololá	710	Panajachel	8	Panajachel	11	Noviembre	2023-06-11T00:00:00	2024-11-08T12:00:00	3	Temperatura mínima	23.6
70616	7	Sololá	710	Panajachel	8	Panajachel	11	Noviembre	2023-06-11T00:00:00	2024-11-08T12:00:00	5	Humedad	68
70617	7	Sololá	710	Panajachel	8	Panajachel	11	Noviembre	2023-06-11T00:00:00	2024-11-08T12:00:00	6	Velocidad del viento	9.7
70618	7	Sololá	710	Panajachel	8	Panajachel	11	Noviembre	2023-06-11T00:00:00	2024-11-08T12:00:00	7	Dirección del viento	9.66
70619	7	Sololá	710	Panajachel	8	Panajachel	11	Noviembre	2023-06-11T00:00:00	2024-11-08T12:00:00	1	Precipitación	0
70620	7	Sololá	710	Panajachel	8	Panajachel	11	Noviembre	2023-06-11T00:00:00	2024-11-08T12:00:00	8	Radiación solar	422
70621	7	Sololá	710	Panajachel	8	Panajachel	11	Noviembre	2023-06-11T00:00:00	2024-11-08T13:00:00	2	Temperatura media	24.2
70622	7	Sololá	710	Panajachel	8	Panajachel	11	Noviembre	2023-06-11T00:00:00	2024-11-08T13:00:00	4	Temperatura máxima	24.3
70623	7	Sololá	710	Panajachel	8	Panajachel	11	Noviembre	2023-06-11T00:00:00	2024-11-08T13:00:00	3	Temperatura mínima	23.7
70624	7	Sololá	710	Panajachel	8	Panajachel	11	Noviembre	2023-06-11T00:00:00	2024-11-08T13:00:00	5	Humedad	67
70625	7	Sololá	710	Panajachel	8	Panajachel	11	Noviembre	2023-06-11T00:00:00	2024-11-08T13:00:00	6	Velocidad del viento	6.4
70626	7	Sololá	710	Panajachel	8	Panajachel	11	Noviembre	2023-06-11T00:00:00	2024-11-08T13:00:00	7	Dirección del viento	6.44
70627	7	Sololá	710	Panajachel	8	Panajachel	11	Noviembre	2023-06-11T00:00:00	2024-11-08T13:00:00	1	Precipitación	0
70628	7	Sololá	710	Panajachel	8	Panajachel	11	Noviembre	2023-06-11T00:00:00	2024-11-08T13:00:00	8	Radiación solar	278
70629	7	Sololá	710	Panajachel	8	Panajachel	11	Noviembre	2023-06-11T00:00:00	2024-11-08T14:00:00	2	Temperatura media	23.9
70630	7	Sololá	710	Panajachel	8	Panajachel	11	Noviembre	2023-06-11T00:00:00	2024-11-08T14:00:00	4	Temperatura máxima	25
70631	7	Sololá	710	Panajachel	8	Panajachel	11	Noviembre	2023-06-11T00:00:00	2024-11-08T14:00:00	3	Temperatura mínima	23.9
70632	7	Sololá	710	Panajachel	8	Panajachel	11	Noviembre	2023-06-11T00:00:00	2024-11-08T14:00:00	5	Humedad	68
70633	7	Sololá	710	Panajachel	8	Panajachel	11	Noviembre	2023-06-11T00:00:00	2024-11-08T14:00:00	6	Velocidad del viento	6.4
70634	7	Sololá	710	Panajachel	8	Panajachel	11	Noviembre	2023-06-11T00:00:00	2024-11-08T14:00:00	7	Dirección del viento	6.44
70635	7	Sololá	710	Panajachel	8	Panajachel	11	Noviembre	2023-06-11T00:00:00	2024-11-08T14:00:00	1	Precipitación	0
70636	7	Sololá	710	Panajachel	8	Panajachel	11	Noviembre	2023-06-11T00:00:00	2024-11-08T14:00:00	8	Radiación solar	277
70637	7	Sololá	710	Panajachel	8	Panajachel	11	Noviembre	2023-06-11T00:00:00	2024-11-08T15:00:00	2	Temperatura media	24.1
70638	7	Sololá	710	Panajachel	8	Panajachel	11	Noviembre	2023-06-11T00:00:00	2024-11-08T15:00:00	4	Temperatura máxima	24.4
70639	7	Sololá	710	Panajachel	8	Panajachel	11	Noviembre	2023-06-11T00:00:00	2024-11-08T15:00:00	3	Temperatura mínima	23.9
70640	7	Sololá	710	Panajachel	8	Panajachel	11	Noviembre	2023-06-11T00:00:00	2024-11-08T15:00:00	5	Humedad	68
70641	7	Sololá	710	Panajachel	8	Panajachel	11	Noviembre	2023-06-11T00:00:00	2024-11-08T15:00:00	6	Velocidad del viento	4.8
70642	7	Sololá	710	Panajachel	8	Panajachel	11	Noviembre	2023-06-11T00:00:00	2024-11-08T15:00:00	7	Dirección del viento	4.83
70643	7	Sololá	710	Panajachel	8	Panajachel	11	Noviembre	2023-06-11T00:00:00	2024-11-08T15:00:00	1	Precipitación	0
70644	7	Sololá	710	Panajachel	8	Panajachel	11	Noviembre	2023-06-11T00:00:00	2024-11-08T15:00:00	8	Radiación solar	197
70645	7	Sololá	710	Panajachel	8	Panajachel	11	Noviembre	2023-06-11T00:00:00	2024-11-08T16:00:00	2	Temperatura media	24.1
70646	7	Sololá	710	Panajachel	8	Panajachel	11	Noviembre	2023-06-11T00:00:00	2024-11-08T16:00:00	4	Temperatura máxima	24.1
70647	7	Sololá	710	Panajachel	8	Panajachel	11	Noviembre	2023-06-11T00:00:00	2024-11-08T16:00:00	3	Temperatura mínima	23.8
70648	7	Sololá	710	Panajachel	8	Panajachel	11	Noviembre	2023-06-11T00:00:00	2024-11-08T16:00:00	5	Humedad	67
70649	7	Sololá	710	Panajachel	8	Panajachel	11	Noviembre	2023-06-11T00:00:00	2024-11-08T16:00:00	6	Velocidad del viento	6.4
70650	7	Sololá	710	Panajachel	8	Panajachel	11	Noviembre	2023-06-11T00:00:00	2024-11-08T16:00:00	7	Dirección del viento	6.44
70651	7	Sololá	710	Panajachel	8	Panajachel	11	Noviembre	2023-06-11T00:00:00	2024-11-08T16:00:00	1	Precipitación	0
70652	7	Sololá	710	Panajachel	8	Panajachel	11	Noviembre	2023-06-11T00:00:00	2024-11-08T16:00:00	8	Radiación solar	151
70653	7	Sololá	710	Panajachel	8	Panajachel	11	Noviembre	2023-06-11T00:00:00	2024-11-08T17:00:00	2	Temperatura media	22.8
70654	7	Sololá	710	Panajachel	8	Panajachel	11	Noviembre	2023-06-11T00:00:00	2024-11-08T17:00:00	4	Temperatura máxima	24.3
70655	7	Sololá	710	Panajachel	8	Panajachel	11	Noviembre	2023-06-11T00:00:00	2024-11-08T17:00:00	3	Temperatura mínima	22.8
70656	7	Sololá	710	Panajachel	8	Panajachel	11	Noviembre	2023-06-11T00:00:00	2024-11-08T17:00:00	5	Humedad	71
70657	7	Sololá	710	Panajachel	8	Panajachel	11	Noviembre	2023-06-11T00:00:00	2024-11-08T17:00:00	6	Velocidad del viento	8
70658	7	Sololá	710	Panajachel	8	Panajachel	11	Noviembre	2023-06-11T00:00:00	2024-11-08T17:00:00	7	Dirección del viento	8.05
70659	7	Sololá	710	Panajachel	8	Panajachel	11	Noviembre	2023-06-11T00:00:00	2024-11-08T17:00:00	1	Precipitación	0
70660	7	Sololá	710	Panajachel	8	Panajachel	11	Noviembre	2023-06-11T00:00:00	2024-11-08T17:00:00	8	Radiación solar	52
70661	7	Sololá	710	Panajachel	8	Panajachel	11	Noviembre	2023-06-11T00:00:00	2024-11-08T18:00:00	2	Temperatura media	22.2
70662	7	Sololá	710	Panajachel	8	Panajachel	11	Noviembre	2023-06-11T00:00:00	2024-11-08T18:00:00	4	Temperatura máxima	22.8
70663	7	Sololá	710	Panajachel	8	Panajachel	11	Noviembre	2023-06-11T00:00:00	2024-11-08T18:00:00	3	Temperatura mínima	22.2
70664	7	Sololá	710	Panajachel	8	Panajachel	11	Noviembre	2023-06-11T00:00:00	2024-11-08T18:00:00	5	Humedad	72
70665	7	Sololá	710	Panajachel	8	Panajachel	11	Noviembre	2023-06-11T00:00:00	2024-11-08T18:00:00	6	Velocidad del viento	3.2
70666	7	Sololá	710	Panajachel	8	Panajachel	11	Noviembre	2023-06-11T00:00:00	2024-11-08T18:00:00	7	Dirección del viento	3.22
70667	7	Sololá	710	Panajachel	8	Panajachel	11	Noviembre	2023-06-11T00:00:00	2024-11-08T18:00:00	1	Precipitación	0
70668	7	Sololá	710	Panajachel	8	Panajachel	11	Noviembre	2023-06-11T00:00:00	2024-11-08T18:00:00	8	Radiación solar	2
70669	7	Sololá	710	Panajachel	8	Panajachel	11	Noviembre	2023-06-11T00:00:00	2024-11-08T19:00:00	2	Temperatura media	21.1
70670	7	Sololá	710	Panajachel	8	Panajachel	11	Noviembre	2023-06-11T00:00:00	2024-11-08T19:00:00	4	Temperatura máxima	22.3
70671	7	Sololá	710	Panajachel	8	Panajachel	11	Noviembre	2023-06-11T00:00:00	2024-11-08T19:00:00	3	Temperatura mínima	21.1
70672	7	Sololá	710	Panajachel	8	Panajachel	11	Noviembre	2023-06-11T00:00:00	2024-11-08T19:00:00	5	Humedad	79
70673	7	Sololá	710	Panajachel	8	Panajachel	11	Noviembre	2023-06-11T00:00:00	2024-11-08T19:00:00	6	Velocidad del viento	0
70674	7	Sololá	710	Panajachel	8	Panajachel	11	Noviembre	2023-06-11T00:00:00	2024-11-08T19:00:00	7	Dirección del viento	0
70675	7	Sololá	710	Panajachel	8	Panajachel	11	Noviembre	2023-06-11T00:00:00	2024-11-08T19:00:00	1	Precipitación	0
70676	7	Sololá	710	Panajachel	8	Panajachel	11	Noviembre	2023-06-11T00:00:00	2024-11-08T19:00:00	8	Radiación solar	0
70677	7	Sololá	710	Panajachel	8	Panajachel	11	Noviembre	2023-06-11T00:00:00	2024-11-08T20:00:00	2	Temperatura media	20.8
70678	7	Sololá	710	Panajachel	8	Panajachel	11	Noviembre	2023-06-11T00:00:00	2024-11-08T20:00:00	4	Temperatura máxima	22
70679	7	Sololá	710	Panajachel	8	Panajachel	11	Noviembre	2023-06-11T00:00:00	2024-11-08T20:00:00	3	Temperatura mínima	20.5
70680	7	Sololá	710	Panajachel	8	Panajachel	11	Noviembre	2023-06-11T00:00:00	2024-11-08T20:00:00	5	Humedad	78
70681	7	Sololá	710	Panajachel	8	Panajachel	11	Noviembre	2023-06-11T00:00:00	2024-11-08T20:00:00	6	Velocidad del viento	1.6
70682	7	Sololá	710	Panajachel	8	Panajachel	11	Noviembre	2023-06-11T00:00:00	2024-11-08T20:00:00	7	Dirección del viento	1.61
70683	7	Sololá	710	Panajachel	8	Panajachel	11	Noviembre	2023-06-11T00:00:00	2024-11-08T20:00:00	1	Precipitación	0
70684	7	Sololá	710	Panajachel	8	Panajachel	11	Noviembre	2023-06-11T00:00:00	2024-11-08T20:00:00	8	Radiación solar	0
70685	7	Sololá	710	Panajachel	8	Panajachel	11	Noviembre	2023-06-11T00:00:00	2024-11-08T21:00:00	2	Temperatura media	20.4
70686	7	Sololá	710	Panajachel	8	Panajachel	11	Noviembre	2023-06-11T00:00:00	2024-11-08T21:00:00	4	Temperatura máxima	21.4
70687	7	Sololá	710	Panajachel	8	Panajachel	11	Noviembre	2023-06-11T00:00:00	2024-11-08T21:00:00	3	Temperatura mínima	20.4
70688	7	Sololá	710	Panajachel	8	Panajachel	11	Noviembre	2023-06-11T00:00:00	2024-11-08T21:00:00	5	Humedad	81
70689	7	Sololá	710	Panajachel	8	Panajachel	11	Noviembre	2023-06-11T00:00:00	2024-11-08T21:00:00	6	Velocidad del viento	0
70690	7	Sololá	710	Panajachel	8	Panajachel	11	Noviembre	2023-06-11T00:00:00	2024-11-08T21:00:00	7	Dirección del viento	0
70691	7	Sololá	710	Panajachel	8	Panajachel	11	Noviembre	2023-06-11T00:00:00	2024-11-08T21:00:00	1	Precipitación	0
70692	7	Sololá	710	Panajachel	8	Panajachel	11	Noviembre	2023-06-11T00:00:00	2024-11-08T21:00:00	8	Radiación solar	0
70693	7	Sololá	710	Panajachel	8	Panajachel	11	Noviembre	2023-06-11T00:00:00	2024-11-08T22:00:00	2	Temperatura media	21.6
70694	7	Sololá	710	Panajachel	8	Panajachel	11	Noviembre	2023-06-11T00:00:00	2024-11-08T22:00:00	4	Temperatura máxima	21.6
70695	7	Sololá	710	Panajachel	8	Panajachel	11	Noviembre	2023-06-11T00:00:00	2024-11-08T22:00:00	3	Temperatura mínima	20.1
70696	7	Sololá	710	Panajachel	8	Panajachel	11	Noviembre	2023-06-11T00:00:00	2024-11-08T22:00:00	5	Humedad	76
70697	7	Sololá	710	Panajachel	8	Panajachel	11	Noviembre	2023-06-11T00:00:00	2024-11-08T22:00:00	6	Velocidad del viento	3.2
70698	7	Sololá	710	Panajachel	8	Panajachel	11	Noviembre	2023-06-11T00:00:00	2024-11-08T22:00:00	7	Dirección del viento	3.22
70699	7	Sololá	710	Panajachel	8	Panajachel	11	Noviembre	2023-06-11T00:00:00	2024-11-08T22:00:00	1	Precipitación	0
70700	7	Sololá	710	Panajachel	8	Panajachel	11	Noviembre	2023-06-11T00:00:00	2024-11-08T22:00:00	8	Radiación solar	0
70701	7	Sololá	710	Panajachel	8	Panajachel	11	Noviembre	2023-06-11T00:00:00	2024-11-08T23:00:00	2	Temperatura media	20.7
70702	7	Sololá	710	Panajachel	8	Panajachel	11	Noviembre	2023-06-11T00:00:00	2024-11-08T23:00:00	4	Temperatura máxima	21.6
70703	7	Sololá	710	Panajachel	8	Panajachel	11	Noviembre	2023-06-11T00:00:00	2024-11-08T23:00:00	3	Temperatura mínima	20.3
70704	7	Sololá	710	Panajachel	8	Panajachel	11	Noviembre	2023-06-11T00:00:00	2024-11-08T23:00:00	5	Humedad	80
70705	7	Sololá	710	Panajachel	8	Panajachel	11	Noviembre	2023-06-11T00:00:00	2024-11-08T23:00:00	6	Velocidad del viento	0
70706	7	Sololá	710	Panajachel	8	Panajachel	11	Noviembre	2023-06-11T00:00:00	2024-11-08T23:00:00	7	Dirección del viento	0
70707	7	Sololá	710	Panajachel	8	Panajachel	11	Noviembre	2023-06-11T00:00:00	2024-11-08T23:00:00	1	Precipitación	0
70708	7	Sololá	710	Panajachel	8	Panajachel	11	Noviembre	2023-06-11T00:00:00	2024-11-08T23:00:00	8	Radiación solar	0
70709	7	Sololá	710	Panajachel	8	Panajachel	11	Noviembre	2023-07-11T00:00:00	2024-11-08T00:00:00	2	Temperatura media	19.5
70710	7	Sololá	710	Panajachel	8	Panajachel	11	Noviembre	2023-07-11T00:00:00	2024-11-08T00:00:00	4	Temperatura máxima	20.7
70711	7	Sololá	710	Panajachel	8	Panajachel	11	Noviembre	2023-07-11T00:00:00	2024-11-08T00:00:00	3	Temperatura mínima	19.4
70712	7	Sololá	710	Panajachel	8	Panajachel	11	Noviembre	2023-07-11T00:00:00	2024-11-08T00:00:00	5	Humedad	84
70713	7	Sololá	710	Panajachel	8	Panajachel	11	Noviembre	2023-07-11T00:00:00	2024-11-08T00:00:00	6	Velocidad del viento	0
70714	7	Sololá	710	Panajachel	8	Panajachel	11	Noviembre	2023-07-11T00:00:00	2024-11-08T00:00:00	7	Dirección del viento	0
70715	7	Sololá	710	Panajachel	8	Panajachel	11	Noviembre	2023-07-11T00:00:00	2024-11-08T00:00:00	1	Precipitación	0
70716	7	Sololá	710	Panajachel	8	Panajachel	11	Noviembre	2023-07-11T00:00:00	2024-11-08T00:00:00	8	Radiación solar	0
70717	7	Sololá	710	Panajachel	8	Panajachel	11	Noviembre	2023-07-11T00:00:00	2024-11-08T01:00:00	2	Temperatura media	19.4
70718	7	Sololá	710	Panajachel	8	Panajachel	11	Noviembre	2023-07-11T00:00:00	2024-11-08T01:00:00	4	Temperatura máxima	19.6
70719	7	Sololá	710	Panajachel	8	Panajachel	11	Noviembre	2023-07-11T00:00:00	2024-11-08T01:00:00	3	Temperatura mínima	19.4
70720	7	Sololá	710	Panajachel	8	Panajachel	11	Noviembre	2023-07-11T00:00:00	2024-11-08T01:00:00	5	Humedad	84
70721	7	Sololá	710	Panajachel	8	Panajachel	11	Noviembre	2023-07-11T00:00:00	2024-11-08T01:00:00	6	Velocidad del viento	0
70722	7	Sololá	710	Panajachel	8	Panajachel	11	Noviembre	2023-07-11T00:00:00	2024-11-08T01:00:00	7	Dirección del viento	0
70723	7	Sololá	710	Panajachel	8	Panajachel	11	Noviembre	2023-07-11T00:00:00	2024-11-08T01:00:00	1	Precipitación	0
70724	7	Sololá	710	Panajachel	8	Panajachel	11	Noviembre	2023-07-11T00:00:00	2024-11-08T01:00:00	8	Radiación solar	0
70725	7	Sololá	710	Panajachel	8	Panajachel	11	Noviembre	2023-07-11T00:00:00	2024-11-08T02:00:00	2	Temperatura media	18.3
70726	7	Sololá	710	Panajachel	8	Panajachel	11	Noviembre	2023-07-11T00:00:00	2024-11-08T02:00:00	4	Temperatura máxima	19.4
70727	7	Sololá	710	Panajachel	8	Panajachel	11	Noviembre	2023-07-11T00:00:00	2024-11-08T02:00:00	3	Temperatura mínima	18.3
70728	7	Sololá	710	Panajachel	8	Panajachel	11	Noviembre	2023-07-11T00:00:00	2024-11-08T02:00:00	5	Humedad	87
70729	7	Sololá	710	Panajachel	8	Panajachel	11	Noviembre	2023-07-11T00:00:00	2024-11-08T02:00:00	6	Velocidad del viento	0
70730	7	Sololá	710	Panajachel	8	Panajachel	11	Noviembre	2023-07-11T00:00:00	2024-11-08T02:00:00	7	Dirección del viento	0
70731	7	Sololá	710	Panajachel	8	Panajachel	11	Noviembre	2023-07-11T00:00:00	2024-11-08T02:00:00	1	Precipitación	0
70732	7	Sololá	710	Panajachel	8	Panajachel	11	Noviembre	2023-07-11T00:00:00	2024-11-08T02:00:00	8	Radiación solar	0
70733	7	Sololá	710	Panajachel	8	Panajachel	11	Noviembre	2023-07-11T00:00:00	2024-11-08T03:00:00	2	Temperatura media	20.3
70734	7	Sololá	710	Panajachel	8	Panajachel	11	Noviembre	2023-07-11T00:00:00	2024-11-08T03:00:00	4	Temperatura máxima	20.3
70735	7	Sololá	710	Panajachel	8	Panajachel	11	Noviembre	2023-07-11T00:00:00	2024-11-08T03:00:00	3	Temperatura mínima	18.2
70736	7	Sololá	710	Panajachel	8	Panajachel	11	Noviembre	2023-07-11T00:00:00	2024-11-08T03:00:00	5	Humedad	78
70737	7	Sololá	710	Panajachel	8	Panajachel	11	Noviembre	2023-07-11T00:00:00	2024-11-08T03:00:00	6	Velocidad del viento	3.2
70738	7	Sololá	710	Panajachel	8	Panajachel	11	Noviembre	2023-07-11T00:00:00	2024-11-08T03:00:00	7	Dirección del viento	3.22
70739	7	Sololá	710	Panajachel	8	Panajachel	11	Noviembre	2023-07-11T00:00:00	2024-11-08T03:00:00	1	Precipitación	0
70740	7	Sololá	710	Panajachel	8	Panajachel	11	Noviembre	2023-07-11T00:00:00	2024-11-08T03:00:00	8	Radiación solar	0
70741	7	Sololá	710	Panajachel	8	Panajachel	11	Noviembre	2023-07-11T00:00:00	2024-11-08T04:00:00	2	Temperatura media	20
70742	7	Sololá	710	Panajachel	8	Panajachel	11	Noviembre	2023-07-11T00:00:00	2024-11-08T04:00:00	4	Temperatura máxima	21
70743	7	Sololá	710	Panajachel	8	Panajachel	11	Noviembre	2023-07-11T00:00:00	2024-11-08T04:00:00	3	Temperatura mínima	20
70744	7	Sololá	710	Panajachel	8	Panajachel	11	Noviembre	2023-07-11T00:00:00	2024-11-08T04:00:00	5	Humedad	79
70745	7	Sololá	710	Panajachel	8	Panajachel	11	Noviembre	2023-07-11T00:00:00	2024-11-08T04:00:00	6	Velocidad del viento	4.8
70746	7	Sololá	710	Panajachel	8	Panajachel	11	Noviembre	2023-07-11T00:00:00	2024-11-08T04:00:00	7	Dirección del viento	4.83
70747	7	Sololá	710	Panajachel	8	Panajachel	11	Noviembre	2023-07-11T00:00:00	2024-11-08T04:00:00	1	Precipitación	0
70748	7	Sololá	710	Panajachel	8	Panajachel	11	Noviembre	2023-07-11T00:00:00	2024-11-08T04:00:00	8	Radiación solar	0
70749	7	Sololá	710	Panajachel	8	Panajachel	11	Noviembre	2023-07-11T00:00:00	2024-11-08T05:00:00	2	Temperatura media	19.8
70750	7	Sololá	710	Panajachel	8	Panajachel	11	Noviembre	2023-07-11T00:00:00	2024-11-08T05:00:00	4	Temperatura máxima	20
70751	7	Sololá	710	Panajachel	8	Panajachel	11	Noviembre	2023-07-11T00:00:00	2024-11-08T05:00:00	3	Temperatura mínima	18.6
70752	7	Sololá	710	Panajachel	8	Panajachel	11	Noviembre	2023-07-11T00:00:00	2024-11-08T05:00:00	5	Humedad	80
70753	7	Sololá	710	Panajachel	8	Panajachel	11	Noviembre	2023-07-11T00:00:00	2024-11-08T05:00:00	6	Velocidad del viento	1.6
70754	7	Sololá	710	Panajachel	8	Panajachel	11	Noviembre	2023-07-11T00:00:00	2024-11-08T05:00:00	7	Dirección del viento	1.61
70755	7	Sololá	710	Panajachel	8	Panajachel	11	Noviembre	2023-07-11T00:00:00	2024-11-08T05:00:00	1	Precipitación	0
70756	7	Sololá	710	Panajachel	8	Panajachel	11	Noviembre	2023-07-11T00:00:00	2024-11-08T05:00:00	8	Radiación solar	0
70757	7	Sololá	710	Panajachel	8	Panajachel	11	Noviembre	2023-07-11T00:00:00	2024-11-08T06:00:00	2	Temperatura media	19.3
70758	7	Sololá	710	Panajachel	8	Panajachel	11	Noviembre	2023-07-11T00:00:00	2024-11-08T06:00:00	4	Temperatura máxima	20.1
70759	7	Sololá	710	Panajachel	8	Panajachel	11	Noviembre	2023-07-11T00:00:00	2024-11-08T06:00:00	3	Temperatura mínima	18.9
70760	7	Sololá	710	Panajachel	8	Panajachel	11	Noviembre	2023-07-11T00:00:00	2024-11-08T06:00:00	5	Humedad	82
70761	7	Sololá	710	Panajachel	8	Panajachel	11	Noviembre	2023-07-11T00:00:00	2024-11-08T06:00:00	6	Velocidad del viento	0
70762	7	Sololá	710	Panajachel	8	Panajachel	11	Noviembre	2023-07-11T00:00:00	2024-11-08T06:00:00	7	Dirección del viento	0
70763	7	Sololá	710	Panajachel	8	Panajachel	11	Noviembre	2023-07-11T00:00:00	2024-11-08T06:00:00	1	Precipitación	0
70764	7	Sololá	710	Panajachel	8	Panajachel	11	Noviembre	2023-07-11T00:00:00	2024-11-08T06:00:00	8	Radiación solar	0
70765	7	Sololá	710	Panajachel	8	Panajachel	11	Noviembre	2023-07-11T00:00:00	2024-11-08T07:00:00	2	Temperatura media	21.1
70766	7	Sololá	710	Panajachel	8	Panajachel	11	Noviembre	2023-07-11T00:00:00	2024-11-08T07:00:00	4	Temperatura máxima	21.1
70767	7	Sololá	710	Panajachel	8	Panajachel	11	Noviembre	2023-07-11T00:00:00	2024-11-08T07:00:00	3	Temperatura mínima	19.3
70768	7	Sololá	710	Panajachel	8	Panajachel	11	Noviembre	2023-07-11T00:00:00	2024-11-08T07:00:00	5	Humedad	76
70769	7	Sololá	710	Panajachel	8	Panajachel	11	Noviembre	2023-07-11T00:00:00	2024-11-08T07:00:00	6	Velocidad del viento	3.2
70770	7	Sololá	710	Panajachel	8	Panajachel	11	Noviembre	2023-07-11T00:00:00	2024-11-08T07:00:00	7	Dirección del viento	3.22
70771	7	Sololá	710	Panajachel	8	Panajachel	11	Noviembre	2023-07-11T00:00:00	2024-11-08T07:00:00	1	Precipitación	0
70772	7	Sololá	710	Panajachel	8	Panajachel	11	Noviembre	2023-07-11T00:00:00	2024-11-08T07:00:00	8	Radiación solar	17
70773	7	Sololá	710	Panajachel	8	Panajachel	11	Noviembre	2023-07-11T00:00:00	2024-11-08T08:00:00	2	Temperatura media	23.1
70774	7	Sololá	710	Panajachel	8	Panajachel	11	Noviembre	2023-07-11T00:00:00	2024-11-08T08:00:00	4	Temperatura máxima	23.1
70775	7	Sololá	710	Panajachel	8	Panajachel	11	Noviembre	2023-07-11T00:00:00	2024-11-08T08:00:00	3	Temperatura mínima	21.1
70776	7	Sololá	710	Panajachel	8	Panajachel	11	Noviembre	2023-07-11T00:00:00	2024-11-08T08:00:00	5	Humedad	71
70777	7	Sololá	710	Panajachel	8	Panajachel	11	Noviembre	2023-07-11T00:00:00	2024-11-08T08:00:00	6	Velocidad del viento	4.8
70778	7	Sololá	710	Panajachel	8	Panajachel	11	Noviembre	2023-07-11T00:00:00	2024-11-08T08:00:00	7	Dirección del viento	4.83
70779	7	Sololá	710	Panajachel	8	Panajachel	11	Noviembre	2023-07-11T00:00:00	2024-11-08T08:00:00	1	Precipitación	0
70780	7	Sololá	710	Panajachel	8	Panajachel	11	Noviembre	2023-07-11T00:00:00	2024-11-08T08:00:00	8	Radiación solar	190
70781	7	Sololá	710	Panajachel	8	Panajachel	11	Noviembre	2023-07-11T00:00:00	2024-11-08T09:00:00	2	Temperatura media	23.9
70782	7	Sololá	710	Panajachel	8	Panajachel	11	Noviembre	2023-07-11T00:00:00	2024-11-08T09:00:00	4	Temperatura máxima	23.9
70783	7	Sololá	710	Panajachel	8	Panajachel	11	Noviembre	2023-07-11T00:00:00	2024-11-08T09:00:00	3	Temperatura mínima	22.9
70784	7	Sololá	710	Panajachel	8	Panajachel	11	Noviembre	2023-07-11T00:00:00	2024-11-08T09:00:00	5	Humedad	68
70785	7	Sololá	710	Panajachel	8	Panajachel	11	Noviembre	2023-07-11T00:00:00	2024-11-08T09:00:00	6	Velocidad del viento	4.8
70786	7	Sololá	710	Panajachel	8	Panajachel	11	Noviembre	2023-07-11T00:00:00	2024-11-08T09:00:00	7	Dirección del viento	4.83
70787	7	Sololá	710	Panajachel	8	Panajachel	11	Noviembre	2023-07-11T00:00:00	2024-11-08T09:00:00	1	Precipitación	0
70788	7	Sololá	710	Panajachel	8	Panajachel	11	Noviembre	2023-07-11T00:00:00	2024-11-08T09:00:00	8	Radiación solar	525
70789	7	Sololá	710	Panajachel	8	Panajachel	11	Noviembre	2023-07-11T00:00:00	2024-11-08T10:00:00	2	Temperatura media	25
70790	7	Sololá	710	Panajachel	8	Panajachel	11	Noviembre	2023-07-11T00:00:00	2024-11-08T10:00:00	4	Temperatura máxima	25
70791	7	Sololá	710	Panajachel	8	Panajachel	11	Noviembre	2023-07-11T00:00:00	2024-11-08T10:00:00	3	Temperatura mínima	23.9
70792	7	Sololá	710	Panajachel	8	Panajachel	11	Noviembre	2023-07-11T00:00:00	2024-11-08T10:00:00	5	Humedad	65
70793	7	Sololá	710	Panajachel	8	Panajachel	11	Noviembre	2023-07-11T00:00:00	2024-11-08T10:00:00	6	Velocidad del viento	6.4
70794	7	Sololá	710	Panajachel	8	Panajachel	11	Noviembre	2023-07-11T00:00:00	2024-11-08T10:00:00	7	Dirección del viento	6.44
70795	7	Sololá	710	Panajachel	8	Panajachel	11	Noviembre	2023-07-11T00:00:00	2024-11-08T10:00:00	1	Precipitación	0
70796	7	Sololá	710	Panajachel	8	Panajachel	11	Noviembre	2023-07-11T00:00:00	2024-11-08T10:00:00	8	Radiación solar	737
70797	7	Sololá	710	Panajachel	8	Panajachel	11	Noviembre	2023-07-11T00:00:00	2024-11-08T11:00:00	2	Temperatura media	24.8
70798	7	Sololá	710	Panajachel	8	Panajachel	11	Noviembre	2023-07-11T00:00:00	2024-11-08T11:00:00	4	Temperatura máxima	25.9
70799	7	Sololá	710	Panajachel	8	Panajachel	11	Noviembre	2023-07-11T00:00:00	2024-11-08T11:00:00	3	Temperatura mínima	24.7
70800	7	Sololá	710	Panajachel	8	Panajachel	11	Noviembre	2023-07-11T00:00:00	2024-11-08T11:00:00	5	Humedad	65
70801	7	Sololá	710	Panajachel	8	Panajachel	11	Noviembre	2023-07-11T00:00:00	2024-11-08T11:00:00	6	Velocidad del viento	8
70802	7	Sololá	710	Panajachel	8	Panajachel	11	Noviembre	2023-07-11T00:00:00	2024-11-08T11:00:00	7	Dirección del viento	8.05
70803	7	Sololá	710	Panajachel	8	Panajachel	11	Noviembre	2023-07-11T00:00:00	2024-11-08T11:00:00	1	Precipitación	0
70804	7	Sololá	710	Panajachel	8	Panajachel	11	Noviembre	2023-07-11T00:00:00	2024-11-08T11:00:00	8	Radiación solar	897
70805	7	Sololá	710	Panajachel	8	Panajachel	11	Noviembre	2023-07-11T00:00:00	2024-11-08T12:00:00	2	Temperatura media	25.6
70806	7	Sololá	710	Panajachel	8	Panajachel	11	Noviembre	2023-07-11T00:00:00	2024-11-08T12:00:00	4	Temperatura máxima	25.9
70807	7	Sololá	710	Panajachel	8	Panajachel	11	Noviembre	2023-07-11T00:00:00	2024-11-08T12:00:00	3	Temperatura mínima	24.8
70808	7	Sololá	710	Panajachel	8	Panajachel	11	Noviembre	2023-07-11T00:00:00	2024-11-08T12:00:00	5	Humedad	64
70809	7	Sololá	710	Panajachel	8	Panajachel	11	Noviembre	2023-07-11T00:00:00	2024-11-08T12:00:00	6	Velocidad del viento	6.4
70810	7	Sololá	710	Panajachel	8	Panajachel	11	Noviembre	2023-07-11T00:00:00	2024-11-08T12:00:00	7	Dirección del viento	6.44
70811	7	Sololá	710	Panajachel	8	Panajachel	11	Noviembre	2023-07-11T00:00:00	2024-11-08T12:00:00	1	Precipitación	0
70812	7	Sololá	710	Panajachel	8	Panajachel	11	Noviembre	2023-07-11T00:00:00	2024-11-08T12:00:00	8	Radiación solar	928
70813	7	Sololá	710	Panajachel	8	Panajachel	11	Noviembre	2023-07-11T00:00:00	2024-11-08T13:00:00	2	Temperatura media	26.5
70814	7	Sololá	710	Panajachel	8	Panajachel	11	Noviembre	2023-07-11T00:00:00	2024-11-08T13:00:00	4	Temperatura máxima	26.5
70815	7	Sololá	710	Panajachel	8	Panajachel	11	Noviembre	2023-07-11T00:00:00	2024-11-08T13:00:00	3	Temperatura mínima	25.4
70816	7	Sololá	710	Panajachel	8	Panajachel	11	Noviembre	2023-07-11T00:00:00	2024-11-08T13:00:00	5	Humedad	60
70817	7	Sololá	710	Panajachel	8	Panajachel	11	Noviembre	2023-07-11T00:00:00	2024-11-08T13:00:00	6	Velocidad del viento	8
70818	7	Sololá	710	Panajachel	8	Panajachel	11	Noviembre	2023-07-11T00:00:00	2024-11-08T13:00:00	7	Dirección del viento	8.05
70819	7	Sololá	710	Panajachel	8	Panajachel	11	Noviembre	2023-07-11T00:00:00	2024-11-08T13:00:00	1	Precipitación	0
70820	7	Sololá	710	Panajachel	8	Panajachel	11	Noviembre	2023-07-11T00:00:00	2024-11-08T13:00:00	8	Radiación solar	880
70821	7	Sololá	710	Panajachel	8	Panajachel	11	Noviembre	2023-07-11T00:00:00	2024-11-08T14:00:00	2	Temperatura media	25.8
70822	7	Sololá	710	Panajachel	8	Panajachel	11	Noviembre	2023-07-11T00:00:00	2024-11-08T14:00:00	4	Temperatura máxima	26.6
70823	7	Sololá	710	Panajachel	8	Panajachel	11	Noviembre	2023-07-11T00:00:00	2024-11-08T14:00:00	3	Temperatura mínima	25.3
70824	7	Sololá	710	Panajachel	8	Panajachel	11	Noviembre	2023-07-11T00:00:00	2024-11-08T14:00:00	5	Humedad	63
70825	7	Sololá	710	Panajachel	8	Panajachel	11	Noviembre	2023-07-11T00:00:00	2024-11-08T14:00:00	6	Velocidad del viento	6.4
70826	7	Sololá	710	Panajachel	8	Panajachel	11	Noviembre	2023-07-11T00:00:00	2024-11-08T14:00:00	7	Dirección del viento	6.44
70827	7	Sololá	710	Panajachel	8	Panajachel	11	Noviembre	2023-07-11T00:00:00	2024-11-08T14:00:00	1	Precipitación	0
70828	7	Sololá	710	Panajachel	8	Panajachel	11	Noviembre	2023-07-11T00:00:00	2024-11-08T14:00:00	8	Radiación solar	481
70829	7	Sololá	710	Panajachel	8	Panajachel	11	Noviembre	2023-07-11T00:00:00	2024-11-08T15:00:00	2	Temperatura media	24.4
70830	7	Sololá	710	Panajachel	8	Panajachel	11	Noviembre	2023-07-11T00:00:00	2024-11-08T15:00:00	4	Temperatura máxima	26.6
70831	7	Sololá	710	Panajachel	8	Panajachel	11	Noviembre	2023-07-11T00:00:00	2024-11-08T15:00:00	3	Temperatura mínima	24.4
70832	7	Sololá	710	Panajachel	8	Panajachel	11	Noviembre	2023-07-11T00:00:00	2024-11-08T15:00:00	5	Humedad	66
70833	7	Sololá	710	Panajachel	8	Panajachel	11	Noviembre	2023-07-11T00:00:00	2024-11-08T15:00:00	6	Velocidad del viento	6.4
70834	7	Sololá	710	Panajachel	8	Panajachel	11	Noviembre	2023-07-11T00:00:00	2024-11-08T15:00:00	7	Dirección del viento	6.44
70835	7	Sololá	710	Panajachel	8	Panajachel	11	Noviembre	2023-07-11T00:00:00	2024-11-08T15:00:00	1	Precipitación	0
70836	7	Sololá	710	Panajachel	8	Panajachel	11	Noviembre	2023-07-11T00:00:00	2024-11-08T15:00:00	8	Radiación solar	293
70837	7	Sololá	710	Panajachel	8	Panajachel	11	Noviembre	2023-07-11T00:00:00	2024-11-08T16:00:00	2	Temperatura media	25.1
70838	7	Sololá	710	Panajachel	8	Panajachel	11	Noviembre	2023-07-11T00:00:00	2024-11-08T16:00:00	4	Temperatura máxima	25.2
70839	7	Sololá	710	Panajachel	8	Panajachel	11	Noviembre	2023-07-11T00:00:00	2024-11-08T16:00:00	3	Temperatura mínima	24.1
70840	7	Sololá	710	Panajachel	8	Panajachel	11	Noviembre	2023-07-11T00:00:00	2024-11-08T16:00:00	5	Humedad	64
70841	7	Sololá	710	Panajachel	8	Panajachel	11	Noviembre	2023-07-11T00:00:00	2024-11-08T16:00:00	6	Velocidad del viento	8
70842	7	Sololá	710	Panajachel	8	Panajachel	11	Noviembre	2023-07-11T00:00:00	2024-11-08T16:00:00	7	Dirección del viento	8.05
70843	7	Sololá	710	Panajachel	8	Panajachel	11	Noviembre	2023-07-11T00:00:00	2024-11-08T16:00:00	1	Precipitación	0
70844	7	Sololá	710	Panajachel	8	Panajachel	11	Noviembre	2023-07-11T00:00:00	2024-11-08T16:00:00	8	Radiación solar	364
70845	7	Sololá	710	Panajachel	8	Panajachel	11	Noviembre	2023-07-11T00:00:00	2024-11-08T17:00:00	2	Temperatura media	24.4
70846	7	Sololá	710	Panajachel	8	Panajachel	11	Noviembre	2023-07-11T00:00:00	2024-11-08T17:00:00	4	Temperatura máxima	25.1
70847	7	Sololá	710	Panajachel	8	Panajachel	11	Noviembre	2023-07-11T00:00:00	2024-11-08T17:00:00	3	Temperatura mínima	24.4
70848	7	Sololá	710	Panajachel	8	Panajachel	11	Noviembre	2023-07-11T00:00:00	2024-11-08T17:00:00	5	Humedad	65
70849	7	Sololá	710	Panajachel	8	Panajachel	11	Noviembre	2023-07-11T00:00:00	2024-11-08T17:00:00	6	Velocidad del viento	6.4
70850	7	Sololá	710	Panajachel	8	Panajachel	11	Noviembre	2023-07-11T00:00:00	2024-11-08T17:00:00	7	Dirección del viento	6.44
70851	7	Sololá	710	Panajachel	8	Panajachel	11	Noviembre	2023-07-11T00:00:00	2024-11-08T17:00:00	1	Precipitación	0
70852	7	Sololá	710	Panajachel	8	Panajachel	11	Noviembre	2023-07-11T00:00:00	2024-11-08T17:00:00	8	Radiación solar	187
70853	7	Sololá	710	Panajachel	8	Panajachel	11	Noviembre	2023-07-11T00:00:00	2024-11-08T18:00:00	2	Temperatura media	22.6
70854	7	Sololá	710	Panajachel	8	Panajachel	11	Noviembre	2023-07-11T00:00:00	2024-11-08T18:00:00	4	Temperatura máxima	24.4
70855	7	Sololá	710	Panajachel	8	Panajachel	11	Noviembre	2023-07-11T00:00:00	2024-11-08T18:00:00	3	Temperatura mínima	22.6
70856	7	Sololá	710	Panajachel	8	Panajachel	11	Noviembre	2023-07-11T00:00:00	2024-11-08T18:00:00	5	Humedad	70
70857	7	Sololá	710	Panajachel	8	Panajachel	11	Noviembre	2023-07-11T00:00:00	2024-11-08T18:00:00	6	Velocidad del viento	6.4
70858	7	Sololá	710	Panajachel	8	Panajachel	11	Noviembre	2023-07-11T00:00:00	2024-11-08T18:00:00	7	Dirección del viento	6.44
70859	7	Sololá	710	Panajachel	8	Panajachel	11	Noviembre	2023-07-11T00:00:00	2024-11-08T18:00:00	1	Precipitación	0
70860	7	Sololá	710	Panajachel	8	Panajachel	11	Noviembre	2023-07-11T00:00:00	2024-11-08T18:00:00	8	Radiación solar	17
70861	7	Sololá	710	Panajachel	8	Panajachel	11	Noviembre	2023-07-11T00:00:00	2024-11-08T19:00:00	2	Temperatura media	22.1
70862	7	Sololá	710	Panajachel	8	Panajachel	11	Noviembre	2023-07-11T00:00:00	2024-11-08T19:00:00	4	Temperatura máxima	22.6
70863	7	Sololá	710	Panajachel	8	Panajachel	11	Noviembre	2023-07-11T00:00:00	2024-11-08T19:00:00	3	Temperatura mínima	21.9
70864	7	Sololá	710	Panajachel	8	Panajachel	11	Noviembre	2023-07-11T00:00:00	2024-11-08T19:00:00	5	Humedad	71
70865	7	Sololá	710	Panajachel	8	Panajachel	11	Noviembre	2023-07-11T00:00:00	2024-11-08T19:00:00	6	Velocidad del viento	6.4
70866	7	Sololá	710	Panajachel	8	Panajachel	11	Noviembre	2023-07-11T00:00:00	2024-11-08T19:00:00	7	Dirección del viento	6.44
70867	7	Sololá	710	Panajachel	8	Panajachel	11	Noviembre	2023-07-11T00:00:00	2024-11-08T19:00:00	1	Precipitación	0
70868	7	Sololá	710	Panajachel	8	Panajachel	11	Noviembre	2023-07-11T00:00:00	2024-11-08T19:00:00	8	Radiación solar	0
70869	7	Sololá	710	Panajachel	8	Panajachel	11	Noviembre	2023-07-11T00:00:00	2024-11-08T20:00:00	2	Temperatura media	22.2
70870	7	Sololá	710	Panajachel	8	Panajachel	11	Noviembre	2023-07-11T00:00:00	2024-11-08T20:00:00	4	Temperatura máxima	22.2
70871	7	Sololá	710	Panajachel	8	Panajachel	11	Noviembre	2023-07-11T00:00:00	2024-11-08T20:00:00	3	Temperatura mínima	21.8
70872	7	Sololá	710	Panajachel	8	Panajachel	11	Noviembre	2023-07-11T00:00:00	2024-11-08T20:00:00	5	Humedad	70
70873	7	Sololá	710	Panajachel	8	Panajachel	11	Noviembre	2023-07-11T00:00:00	2024-11-08T20:00:00	6	Velocidad del viento	6.4
70874	7	Sololá	710	Panajachel	8	Panajachel	11	Noviembre	2023-07-11T00:00:00	2024-11-08T20:00:00	7	Dirección del viento	6.44
70875	7	Sololá	710	Panajachel	8	Panajachel	11	Noviembre	2023-07-11T00:00:00	2024-11-08T20:00:00	1	Precipitación	0
70876	7	Sololá	710	Panajachel	8	Panajachel	11	Noviembre	2023-07-11T00:00:00	2024-11-08T20:00:00	8	Radiación solar	0
70877	7	Sololá	710	Panajachel	8	Panajachel	11	Noviembre	2023-07-11T00:00:00	2024-11-08T21:00:00	2	Temperatura media	21.9
70878	7	Sololá	710	Panajachel	8	Panajachel	11	Noviembre	2023-07-11T00:00:00	2024-11-08T21:00:00	4	Temperatura máxima	22.2
70879	7	Sololá	710	Panajachel	8	Panajachel	11	Noviembre	2023-07-11T00:00:00	2024-11-08T21:00:00	3	Temperatura mínima	21.9
70880	7	Sololá	710	Panajachel	8	Panajachel	11	Noviembre	2023-07-11T00:00:00	2024-11-08T21:00:00	5	Humedad	72
70881	7	Sololá	710	Panajachel	8	Panajachel	11	Noviembre	2023-07-11T00:00:00	2024-11-08T21:00:00	6	Velocidad del viento	8
70882	7	Sololá	710	Panajachel	8	Panajachel	11	Noviembre	2023-07-11T00:00:00	2024-11-08T21:00:00	7	Dirección del viento	8.05
70883	7	Sololá	710	Panajachel	8	Panajachel	11	Noviembre	2023-07-11T00:00:00	2024-11-08T21:00:00	1	Precipitación	0
70884	7	Sololá	710	Panajachel	8	Panajachel	11	Noviembre	2023-07-11T00:00:00	2024-11-08T21:00:00	8	Radiación solar	0
70885	7	Sololá	710	Panajachel	8	Panajachel	11	Noviembre	2023-07-11T00:00:00	2024-11-08T22:00:00	2	Temperatura media	21.8
70886	7	Sololá	710	Panajachel	8	Panajachel	11	Noviembre	2023-07-11T00:00:00	2024-11-08T22:00:00	4	Temperatura máxima	21.9
70887	7	Sololá	710	Panajachel	8	Panajachel	11	Noviembre	2023-07-11T00:00:00	2024-11-08T22:00:00	3	Temperatura mínima	21.7
70888	7	Sololá	710	Panajachel	8	Panajachel	11	Noviembre	2023-07-11T00:00:00	2024-11-08T22:00:00	5	Humedad	72
70889	7	Sololá	710	Panajachel	8	Panajachel	11	Noviembre	2023-07-11T00:00:00	2024-11-08T22:00:00	6	Velocidad del viento	8
70890	7	Sololá	710	Panajachel	8	Panajachel	11	Noviembre	2023-07-11T00:00:00	2024-11-08T22:00:00	7	Dirección del viento	8.05
70891	7	Sololá	710	Panajachel	8	Panajachel	11	Noviembre	2023-07-11T00:00:00	2024-11-08T22:00:00	1	Precipitación	0
70892	7	Sololá	710	Panajachel	8	Panajachel	11	Noviembre	2023-07-11T00:00:00	2024-11-08T22:00:00	8	Radiación solar	0
70893	7	Sololá	710	Panajachel	8	Panajachel	11	Noviembre	2023-07-11T00:00:00	2024-11-08T23:00:00	2	Temperatura media	21.9
70894	7	Sololá	710	Panajachel	8	Panajachel	11	Noviembre	2023-07-11T00:00:00	2024-11-08T23:00:00	4	Temperatura máxima	22
70895	7	Sololá	710	Panajachel	8	Panajachel	11	Noviembre	2023-07-11T00:00:00	2024-11-08T23:00:00	3	Temperatura mínima	21.6
70896	7	Sololá	710	Panajachel	8	Panajachel	11	Noviembre	2023-07-11T00:00:00	2024-11-08T23:00:00	5	Humedad	71
70897	7	Sololá	710	Panajachel	8	Panajachel	11	Noviembre	2023-07-11T00:00:00	2024-11-08T23:00:00	6	Velocidad del viento	8
70898	7	Sololá	710	Panajachel	8	Panajachel	11	Noviembre	2023-07-11T00:00:00	2024-11-08T23:00:00	7	Dirección del viento	8.05
70899	7	Sololá	710	Panajachel	8	Panajachel	11	Noviembre	2023-07-11T00:00:00	2024-11-08T23:00:00	1	Precipitación	0
70900	7	Sololá	710	Panajachel	8	Panajachel	11	Noviembre	2023-07-11T00:00:00	2024-11-08T23:00:00	8	Radiación solar	0
70901	7	Sololá	710	Panajachel	8	Panajachel	11	Noviembre	2023-08-11T00:00:00	2024-11-08T00:00:00	2	Temperatura media	21.6
70902	7	Sololá	710	Panajachel	8	Panajachel	11	Noviembre	2023-08-11T00:00:00	2024-11-08T00:00:00	4	Temperatura máxima	21.9
70903	7	Sololá	710	Panajachel	8	Panajachel	11	Noviembre	2023-08-11T00:00:00	2024-11-08T00:00:00	3	Temperatura mínima	21.4
70904	7	Sololá	710	Panajachel	8	Panajachel	11	Noviembre	2023-08-11T00:00:00	2024-11-08T00:00:00	5	Humedad	72
70905	7	Sololá	710	Panajachel	8	Panajachel	11	Noviembre	2023-08-11T00:00:00	2024-11-08T00:00:00	6	Velocidad del viento	8
70906	7	Sololá	710	Panajachel	8	Panajachel	11	Noviembre	2023-08-11T00:00:00	2024-11-08T00:00:00	7	Dirección del viento	8.05
70907	7	Sololá	710	Panajachel	8	Panajachel	11	Noviembre	2023-08-11T00:00:00	2024-11-08T00:00:00	1	Precipitación	0
70908	7	Sololá	710	Panajachel	8	Panajachel	11	Noviembre	2023-08-11T00:00:00	2024-11-08T00:00:00	8	Radiación solar	0
70909	7	Sololá	710	Panajachel	8	Panajachel	11	Noviembre	2023-08-11T00:00:00	2024-11-08T01:00:00	2	Temperatura media	21.8
70910	7	Sololá	710	Panajachel	8	Panajachel	11	Noviembre	2023-08-11T00:00:00	2024-11-08T01:00:00	4	Temperatura máxima	21.8
70911	7	Sololá	710	Panajachel	8	Panajachel	11	Noviembre	2023-08-11T00:00:00	2024-11-08T01:00:00	3	Temperatura mínima	21.5
70912	7	Sololá	710	Panajachel	8	Panajachel	11	Noviembre	2023-08-11T00:00:00	2024-11-08T01:00:00	5	Humedad	71
70913	7	Sololá	710	Panajachel	8	Panajachel	11	Noviembre	2023-08-11T00:00:00	2024-11-08T01:00:00	6	Velocidad del viento	9.7
70914	7	Sololá	710	Panajachel	8	Panajachel	11	Noviembre	2023-08-11T00:00:00	2024-11-08T01:00:00	7	Dirección del viento	9.66
70915	7	Sololá	710	Panajachel	8	Panajachel	11	Noviembre	2023-08-11T00:00:00	2024-11-08T01:00:00	1	Precipitación	0
70916	7	Sololá	710	Panajachel	8	Panajachel	11	Noviembre	2023-08-11T00:00:00	2024-11-08T01:00:00	8	Radiación solar	0
70917	7	Sololá	710	Panajachel	8	Panajachel	11	Noviembre	2023-08-11T00:00:00	2024-11-08T02:00:00	2	Temperatura media	21.5
70918	7	Sololá	710	Panajachel	8	Panajachel	11	Noviembre	2023-08-11T00:00:00	2024-11-08T02:00:00	4	Temperatura máxima	21.8
70919	7	Sololá	710	Panajachel	8	Panajachel	11	Noviembre	2023-08-11T00:00:00	2024-11-08T02:00:00	3	Temperatura mínima	21.3
70920	7	Sololá	710	Panajachel	8	Panajachel	11	Noviembre	2023-08-11T00:00:00	2024-11-08T02:00:00	5	Humedad	72
70921	7	Sololá	710	Panajachel	8	Panajachel	11	Noviembre	2023-08-11T00:00:00	2024-11-08T02:00:00	6	Velocidad del viento	4.8
70922	7	Sololá	710	Panajachel	8	Panajachel	11	Noviembre	2023-08-11T00:00:00	2024-11-08T02:00:00	7	Dirección del viento	4.83
70923	7	Sololá	710	Panajachel	8	Panajachel	11	Noviembre	2023-08-11T00:00:00	2024-11-08T02:00:00	1	Precipitación	0
70924	7	Sololá	710	Panajachel	8	Panajachel	11	Noviembre	2023-08-11T00:00:00	2024-11-08T02:00:00	8	Radiación solar	0
70925	7	Sololá	710	Panajachel	8	Panajachel	11	Noviembre	2023-08-11T00:00:00	2024-11-08T03:00:00	2	Temperatura media	20.3
70926	7	Sololá	710	Panajachel	8	Panajachel	11	Noviembre	2023-08-11T00:00:00	2024-11-08T03:00:00	4	Temperatura máxima	21.6
70927	7	Sololá	710	Panajachel	8	Panajachel	11	Noviembre	2023-08-11T00:00:00	2024-11-08T03:00:00	3	Temperatura mínima	20.3
70928	7	Sololá	710	Panajachel	8	Panajachel	11	Noviembre	2023-08-11T00:00:00	2024-11-08T03:00:00	5	Humedad	77
70929	7	Sololá	710	Panajachel	8	Panajachel	11	Noviembre	2023-08-11T00:00:00	2024-11-08T03:00:00	6	Velocidad del viento	0
70930	7	Sololá	710	Panajachel	8	Panajachel	11	Noviembre	2023-08-11T00:00:00	2024-11-08T03:00:00	7	Dirección del viento	0
70931	7	Sololá	710	Panajachel	8	Panajachel	11	Noviembre	2023-08-11T00:00:00	2024-11-08T03:00:00	1	Precipitación	0
70932	7	Sololá	710	Panajachel	8	Panajachel	11	Noviembre	2023-08-11T00:00:00	2024-11-08T03:00:00	8	Radiación solar	0
70933	7	Sololá	710	Panajachel	8	Panajachel	11	Noviembre	2023-08-11T00:00:00	2024-11-08T04:00:00	2	Temperatura media	19.3
70934	7	Sololá	710	Panajachel	8	Panajachel	11	Noviembre	2023-08-11T00:00:00	2024-11-08T04:00:00	4	Temperatura máxima	20.3
70935	7	Sololá	710	Panajachel	8	Panajachel	11	Noviembre	2023-08-11T00:00:00	2024-11-08T04:00:00	3	Temperatura mínima	19.3
70936	7	Sololá	710	Panajachel	8	Panajachel	11	Noviembre	2023-08-11T00:00:00	2024-11-08T04:00:00	5	Humedad	78
70937	7	Sololá	710	Panajachel	8	Panajachel	11	Noviembre	2023-08-11T00:00:00	2024-11-08T04:00:00	6	Velocidad del viento	1.6
70938	7	Sololá	710	Panajachel	8	Panajachel	11	Noviembre	2023-08-11T00:00:00	2024-11-08T04:00:00	7	Dirección del viento	1.61
70939	7	Sololá	710	Panajachel	8	Panajachel	11	Noviembre	2023-08-11T00:00:00	2024-11-08T04:00:00	1	Precipitación	0
70940	7	Sololá	710	Panajachel	8	Panajachel	11	Noviembre	2023-08-11T00:00:00	2024-11-08T04:00:00	8	Radiación solar	0
70941	7	Sololá	710	Panajachel	8	Panajachel	11	Noviembre	2023-08-11T00:00:00	2024-11-08T05:00:00	2	Temperatura media	20.2
70942	7	Sololá	710	Panajachel	8	Panajachel	11	Noviembre	2023-08-11T00:00:00	2024-11-08T05:00:00	4	Temperatura máxima	20.2
70943	7	Sololá	710	Panajachel	8	Panajachel	11	Noviembre	2023-08-11T00:00:00	2024-11-08T05:00:00	3	Temperatura mínima	19.2
70944	7	Sololá	710	Panajachel	8	Panajachel	11	Noviembre	2023-08-11T00:00:00	2024-11-08T05:00:00	5	Humedad	74
70945	7	Sololá	710	Panajachel	8	Panajachel	11	Noviembre	2023-08-11T00:00:00	2024-11-08T05:00:00	6	Velocidad del viento	1.6
70946	7	Sololá	710	Panajachel	8	Panajachel	11	Noviembre	2023-08-11T00:00:00	2024-11-08T05:00:00	7	Dirección del viento	1.61
70947	7	Sololá	710	Panajachel	8	Panajachel	11	Noviembre	2023-08-11T00:00:00	2024-11-08T05:00:00	1	Precipitación	0
70948	7	Sololá	710	Panajachel	8	Panajachel	11	Noviembre	2023-08-11T00:00:00	2024-11-08T05:00:00	8	Radiación solar	0
70949	7	Sololá	710	Panajachel	8	Panajachel	11	Noviembre	2023-08-11T00:00:00	2024-11-08T06:00:00	2	Temperatura media	19.8
70950	7	Sololá	710	Panajachel	8	Panajachel	11	Noviembre	2023-08-11T00:00:00	2024-11-08T06:00:00	4	Temperatura máxima	20.3
70951	7	Sololá	710	Panajachel	8	Panajachel	11	Noviembre	2023-08-11T00:00:00	2024-11-08T06:00:00	3	Temperatura mínima	19.8
70952	7	Sololá	710	Panajachel	8	Panajachel	11	Noviembre	2023-08-11T00:00:00	2024-11-08T06:00:00	5	Humedad	76
70953	7	Sololá	710	Panajachel	8	Panajachel	11	Noviembre	2023-08-11T00:00:00	2024-11-08T06:00:00	6	Velocidad del viento	1.6
70954	7	Sololá	710	Panajachel	8	Panajachel	11	Noviembre	2023-08-11T00:00:00	2024-11-08T06:00:00	7	Dirección del viento	1.61
70955	7	Sololá	710	Panajachel	8	Panajachel	11	Noviembre	2023-08-11T00:00:00	2024-11-08T06:00:00	1	Precipitación	0
70956	7	Sololá	710	Panajachel	8	Panajachel	11	Noviembre	2023-08-11T00:00:00	2024-11-08T06:00:00	8	Radiación solar	0
70957	7	Sololá	710	Panajachel	8	Panajachel	11	Noviembre	2023-08-11T00:00:00	2024-11-08T07:00:00	2	Temperatura media	20.2
70958	7	Sololá	710	Panajachel	8	Panajachel	11	Noviembre	2023-08-11T00:00:00	2024-11-08T07:00:00	4	Temperatura máxima	20.2
70959	7	Sololá	710	Panajachel	8	Panajachel	11	Noviembre	2023-08-11T00:00:00	2024-11-08T07:00:00	3	Temperatura mínima	19.5
70960	7	Sololá	710	Panajachel	8	Panajachel	11	Noviembre	2023-08-11T00:00:00	2024-11-08T07:00:00	5	Humedad	75
70961	7	Sololá	710	Panajachel	8	Panajachel	11	Noviembre	2023-08-11T00:00:00	2024-11-08T07:00:00	6	Velocidad del viento	3.2
70962	7	Sololá	710	Panajachel	8	Panajachel	11	Noviembre	2023-08-11T00:00:00	2024-11-08T07:00:00	7	Dirección del viento	3.22
70963	7	Sololá	710	Panajachel	8	Panajachel	11	Noviembre	2023-08-11T00:00:00	2024-11-08T07:00:00	1	Precipitación	0
70964	7	Sololá	710	Panajachel	8	Panajachel	11	Noviembre	2023-08-11T00:00:00	2024-11-08T07:00:00	8	Radiación solar	30
70965	7	Sololá	710	Panajachel	8	Panajachel	11	Noviembre	2023-08-11T00:00:00	2024-11-08T08:00:00	2	Temperatura media	21.7
70966	7	Sololá	710	Panajachel	8	Panajachel	11	Noviembre	2023-08-11T00:00:00	2024-11-08T08:00:00	4	Temperatura máxima	21.7
70967	7	Sololá	710	Panajachel	8	Panajachel	11	Noviembre	2023-08-11T00:00:00	2024-11-08T08:00:00	3	Temperatura mínima	20.2
70968	7	Sololá	710	Panajachel	8	Panajachel	11	Noviembre	2023-08-11T00:00:00	2024-11-08T08:00:00	5	Humedad	73
70969	7	Sololá	710	Panajachel	8	Panajachel	11	Noviembre	2023-08-11T00:00:00	2024-11-08T08:00:00	6	Velocidad del viento	1.6
70970	7	Sololá	710	Panajachel	8	Panajachel	11	Noviembre	2023-08-11T00:00:00	2024-11-08T08:00:00	7	Dirección del viento	1.61
70971	7	Sololá	710	Panajachel	8	Panajachel	11	Noviembre	2023-08-11T00:00:00	2024-11-08T08:00:00	1	Precipitación	0
70972	7	Sololá	710	Panajachel	8	Panajachel	11	Noviembre	2023-08-11T00:00:00	2024-11-08T08:00:00	8	Radiación solar	107
70973	7	Sololá	710	Panajachel	8	Panajachel	11	Noviembre	2023-08-11T00:00:00	2024-11-08T09:00:00	2	Temperatura media	24.2
70974	7	Sololá	710	Panajachel	8	Panajachel	11	Noviembre	2023-08-11T00:00:00	2024-11-08T09:00:00	4	Temperatura máxima	24.2
70975	7	Sololá	710	Panajachel	8	Panajachel	11	Noviembre	2023-08-11T00:00:00	2024-11-08T09:00:00	3	Temperatura mínima	21.7
70976	7	Sololá	710	Panajachel	8	Panajachel	11	Noviembre	2023-08-11T00:00:00	2024-11-08T09:00:00	5	Humedad	68
70977	7	Sololá	710	Panajachel	8	Panajachel	11	Noviembre	2023-08-11T00:00:00	2024-11-08T09:00:00	6	Velocidad del viento	1.6
70978	7	Sololá	710	Panajachel	8	Panajachel	11	Noviembre	2023-08-11T00:00:00	2024-11-08T09:00:00	7	Dirección del viento	1.61
70979	7	Sololá	710	Panajachel	8	Panajachel	11	Noviembre	2023-08-11T00:00:00	2024-11-08T09:00:00	1	Precipitación	0
70980	7	Sololá	710	Panajachel	8	Panajachel	11	Noviembre	2023-08-11T00:00:00	2024-11-08T09:00:00	8	Radiación solar	421
70981	7	Sololá	710	Panajachel	8	Panajachel	11	Noviembre	2023-08-11T00:00:00	2024-11-08T10:00:00	2	Temperatura media	24
70982	7	Sololá	710	Panajachel	8	Panajachel	11	Noviembre	2023-08-11T00:00:00	2024-11-08T10:00:00	4	Temperatura máxima	24.5
70983	7	Sololá	710	Panajachel	8	Panajachel	11	Noviembre	2023-08-11T00:00:00	2024-11-08T10:00:00	3	Temperatura mínima	23.5
70984	7	Sololá	710	Panajachel	8	Panajachel	11	Noviembre	2023-08-11T00:00:00	2024-11-08T10:00:00	5	Humedad	68
70985	7	Sololá	710	Panajachel	8	Panajachel	11	Noviembre	2023-08-11T00:00:00	2024-11-08T10:00:00	6	Velocidad del viento	3.2
70986	7	Sololá	710	Panajachel	8	Panajachel	11	Noviembre	2023-08-11T00:00:00	2024-11-08T10:00:00	7	Dirección del viento	3.22
70987	7	Sololá	710	Panajachel	8	Panajachel	11	Noviembre	2023-08-11T00:00:00	2024-11-08T10:00:00	1	Precipitación	0
70988	7	Sololá	710	Panajachel	8	Panajachel	11	Noviembre	2023-08-11T00:00:00	2024-11-08T10:00:00	8	Radiación solar	585
70989	7	Sololá	710	Panajachel	8	Panajachel	11	Noviembre	2023-08-11T00:00:00	2024-11-08T11:00:00	2	Temperatura media	24.3
70990	7	Sololá	710	Panajachel	8	Panajachel	11	Noviembre	2023-08-11T00:00:00	2024-11-08T11:00:00	4	Temperatura máxima	24.3
70991	7	Sololá	710	Panajachel	8	Panajachel	11	Noviembre	2023-08-11T00:00:00	2024-11-08T11:00:00	3	Temperatura mínima	23.4
70992	7	Sololá	710	Panajachel	8	Panajachel	11	Noviembre	2023-08-11T00:00:00	2024-11-08T11:00:00	5	Humedad	71
70993	7	Sololá	710	Panajachel	8	Panajachel	11	Noviembre	2023-08-11T00:00:00	2024-11-08T11:00:00	6	Velocidad del viento	1.6
70994	7	Sololá	710	Panajachel	8	Panajachel	11	Noviembre	2023-08-11T00:00:00	2024-11-08T11:00:00	7	Dirección del viento	1.61
70995	7	Sololá	710	Panajachel	8	Panajachel	11	Noviembre	2023-08-11T00:00:00	2024-11-08T11:00:00	1	Precipitación	0
70996	7	Sololá	710	Panajachel	8	Panajachel	11	Noviembre	2023-08-11T00:00:00	2024-11-08T11:00:00	8	Radiación solar	307
70997	7	Sololá	710	Panajachel	8	Panajachel	11	Noviembre	2023-08-11T00:00:00	2024-11-08T12:00:00	2	Temperatura media	25.8
70998	7	Sololá	710	Panajachel	8	Panajachel	11	Noviembre	2023-08-11T00:00:00	2024-11-08T12:00:00	4	Temperatura máxima	25.8
70999	7	Sololá	710	Panajachel	8	Panajachel	11	Noviembre	2023-08-11T00:00:00	2024-11-08T12:00:00	3	Temperatura mínima	24.3
71000	7	Sololá	710	Panajachel	8	Panajachel	11	Noviembre	2023-08-11T00:00:00	2024-11-08T12:00:00	5	Humedad	63
71001	7	Sololá	710	Panajachel	8	Panajachel	11	Noviembre	2023-08-11T00:00:00	2024-11-08T12:00:00	6	Velocidad del viento	3.2
71002	7	Sololá	710	Panajachel	8	Panajachel	11	Noviembre	2023-08-11T00:00:00	2024-11-08T12:00:00	7	Dirección del viento	3.22
71003	7	Sololá	710	Panajachel	8	Panajachel	11	Noviembre	2023-08-11T00:00:00	2024-11-08T12:00:00	1	Precipitación	0
71004	7	Sololá	710	Panajachel	8	Panajachel	11	Noviembre	2023-08-11T00:00:00	2024-11-08T12:00:00	8	Radiación solar	313
71005	7	Sololá	710	Panajachel	8	Panajachel	11	Noviembre	2023-08-11T00:00:00	2024-11-08T13:00:00	2	Temperatura media	25.9
71006	7	Sololá	710	Panajachel	8	Panajachel	11	Noviembre	2023-08-11T00:00:00	2024-11-08T13:00:00	4	Temperatura máxima	26.4
71007	7	Sololá	710	Panajachel	8	Panajachel	11	Noviembre	2023-08-11T00:00:00	2024-11-08T13:00:00	3	Temperatura mínima	25.7
71008	7	Sololá	710	Panajachel	8	Panajachel	11	Noviembre	2023-08-11T00:00:00	2024-11-08T13:00:00	5	Humedad	62
71009	7	Sololá	710	Panajachel	8	Panajachel	11	Noviembre	2023-08-11T00:00:00	2024-11-08T13:00:00	6	Velocidad del viento	3.2
71010	7	Sololá	710	Panajachel	8	Panajachel	11	Noviembre	2023-08-11T00:00:00	2024-11-08T13:00:00	7	Dirección del viento	3.22
71011	7	Sololá	710	Panajachel	8	Panajachel	11	Noviembre	2023-08-11T00:00:00	2024-11-08T13:00:00	1	Precipitación	0
71012	7	Sololá	710	Panajachel	8	Panajachel	11	Noviembre	2023-08-11T00:00:00	2024-11-08T13:00:00	8	Radiación solar	277
71013	7	Sololá	710	Panajachel	8	Panajachel	11	Noviembre	2023-08-11T00:00:00	2024-11-08T14:00:00	2	Temperatura media	26.6
71014	7	Sololá	710	Panajachel	8	Panajachel	11	Noviembre	2023-08-11T00:00:00	2024-11-08T14:00:00	4	Temperatura máxima	26.6
71015	7	Sololá	710	Panajachel	8	Panajachel	11	Noviembre	2023-08-11T00:00:00	2024-11-08T14:00:00	3	Temperatura mínima	25.6
71016	7	Sololá	710	Panajachel	8	Panajachel	11	Noviembre	2023-08-11T00:00:00	2024-11-08T14:00:00	5	Humedad	60
71017	7	Sololá	710	Panajachel	8	Panajachel	11	Noviembre	2023-08-11T00:00:00	2024-11-08T14:00:00	6	Velocidad del viento	3.2
71018	7	Sololá	710	Panajachel	8	Panajachel	11	Noviembre	2023-08-11T00:00:00	2024-11-08T14:00:00	7	Dirección del viento	3.22
71019	7	Sololá	710	Panajachel	8	Panajachel	11	Noviembre	2023-08-11T00:00:00	2024-11-08T14:00:00	1	Precipitación	0
71020	7	Sololá	710	Panajachel	8	Panajachel	11	Noviembre	2023-08-11T00:00:00	2024-11-08T14:00:00	8	Radiación solar	293
71021	7	Sololá	710	Panajachel	8	Panajachel	11	Noviembre	2023-08-11T00:00:00	2024-11-08T15:00:00	2	Temperatura media	24
71022	7	Sololá	710	Panajachel	8	Panajachel	11	Noviembre	2023-08-11T00:00:00	2024-11-08T15:00:00	4	Temperatura máxima	26.7
71023	7	Sololá	710	Panajachel	8	Panajachel	11	Noviembre	2023-08-11T00:00:00	2024-11-08T15:00:00	3	Temperatura mínima	24
71024	7	Sololá	710	Panajachel	8	Panajachel	11	Noviembre	2023-08-11T00:00:00	2024-11-08T15:00:00	5	Humedad	79
71025	7	Sololá	710	Panajachel	8	Panajachel	11	Noviembre	2023-08-11T00:00:00	2024-11-08T15:00:00	6	Velocidad del viento	3.2
71026	7	Sololá	710	Panajachel	8	Panajachel	11	Noviembre	2023-08-11T00:00:00	2024-11-08T15:00:00	7	Dirección del viento	3.22
71027	7	Sololá	710	Panajachel	8	Panajachel	11	Noviembre	2023-08-11T00:00:00	2024-11-08T15:00:00	1	Precipitación	0
71028	7	Sololá	710	Panajachel	8	Panajachel	11	Noviembre	2023-08-11T00:00:00	2024-11-08T15:00:00	8	Radiación solar	220
71029	7	Sololá	710	Panajachel	8	Panajachel	11	Noviembre	2023-08-11T00:00:00	2024-11-08T16:00:00	2	Temperatura media	25.6
71030	7	Sololá	710	Panajachel	8	Panajachel	11	Noviembre	2023-08-11T00:00:00	2024-11-08T16:00:00	4	Temperatura máxima	25.6
71031	7	Sololá	710	Panajachel	8	Panajachel	11	Noviembre	2023-08-11T00:00:00	2024-11-08T16:00:00	3	Temperatura mínima	23.5
71032	7	Sololá	710	Panajachel	8	Panajachel	11	Noviembre	2023-08-11T00:00:00	2024-11-08T16:00:00	5	Humedad	75
71033	7	Sololá	710	Panajachel	8	Panajachel	11	Noviembre	2023-08-11T00:00:00	2024-11-08T16:00:00	6	Velocidad del viento	1.6
71034	7	Sololá	710	Panajachel	8	Panajachel	11	Noviembre	2023-08-11T00:00:00	2024-11-08T16:00:00	7	Dirección del viento	1.61
71035	7	Sololá	710	Panajachel	8	Panajachel	11	Noviembre	2023-08-11T00:00:00	2024-11-08T16:00:00	1	Precipitación	0
71036	7	Sololá	710	Panajachel	8	Panajachel	11	Noviembre	2023-08-11T00:00:00	2024-11-08T16:00:00	8	Radiación solar	211
71037	7	Sololá	710	Panajachel	8	Panajachel	11	Noviembre	2023-08-11T00:00:00	2024-11-08T17:00:00	2	Temperatura media	23.2
71038	7	Sololá	710	Panajachel	8	Panajachel	11	Noviembre	2023-08-11T00:00:00	2024-11-08T17:00:00	4	Temperatura máxima	25.8
71039	7	Sololá	710	Panajachel	8	Panajachel	11	Noviembre	2023-08-11T00:00:00	2024-11-08T17:00:00	3	Temperatura mínima	23.2
71040	7	Sololá	710	Panajachel	8	Panajachel	11	Noviembre	2023-08-11T00:00:00	2024-11-08T17:00:00	5	Humedad	82
71041	7	Sololá	710	Panajachel	8	Panajachel	11	Noviembre	2023-08-11T00:00:00	2024-11-08T17:00:00	6	Velocidad del viento	1.6
71042	7	Sololá	710	Panajachel	8	Panajachel	11	Noviembre	2023-08-11T00:00:00	2024-11-08T17:00:00	7	Dirección del viento	1.61
71043	7	Sololá	710	Panajachel	8	Panajachel	11	Noviembre	2023-08-11T00:00:00	2024-11-08T17:00:00	1	Precipitación	0
71044	7	Sololá	710	Panajachel	8	Panajachel	11	Noviembre	2023-08-11T00:00:00	2024-11-08T17:00:00	8	Radiación solar	111
71045	7	Sololá	710	Panajachel	8	Panajachel	11	Noviembre	2023-08-11T00:00:00	2024-11-08T18:00:00	2	Temperatura media	21.9
71046	7	Sololá	710	Panajachel	8	Panajachel	11	Noviembre	2023-08-11T00:00:00	2024-11-08T18:00:00	4	Temperatura máxima	23.2
71047	7	Sololá	710	Panajachel	8	Panajachel	11	Noviembre	2023-08-11T00:00:00	2024-11-08T18:00:00	3	Temperatura mínima	21.9
71048	7	Sololá	710	Panajachel	8	Panajachel	11	Noviembre	2023-08-11T00:00:00	2024-11-08T18:00:00	5	Humedad	87
71049	7	Sololá	710	Panajachel	8	Panajachel	11	Noviembre	2023-08-11T00:00:00	2024-11-08T18:00:00	6	Velocidad del viento	1.6
71050	7	Sololá	710	Panajachel	8	Panajachel	11	Noviembre	2023-08-11T00:00:00	2024-11-08T18:00:00	7	Dirección del viento	1.61
71051	7	Sololá	710	Panajachel	8	Panajachel	11	Noviembre	2023-08-11T00:00:00	2024-11-08T18:00:00	1	Precipitación	0
71052	7	Sololá	710	Panajachel	8	Panajachel	11	Noviembre	2023-08-11T00:00:00	2024-11-08T18:00:00	8	Radiación solar	11
71053	7	Sololá	710	Panajachel	8	Panajachel	11	Noviembre	2023-08-11T00:00:00	2024-11-08T19:00:00	2	Temperatura media	20.8
71054	7	Sololá	710	Panajachel	8	Panajachel	11	Noviembre	2023-08-11T00:00:00	2024-11-08T19:00:00	4	Temperatura máxima	21.9
71055	7	Sololá	710	Panajachel	8	Panajachel	11	Noviembre	2023-08-11T00:00:00	2024-11-08T19:00:00	3	Temperatura mínima	20.8
71056	7	Sololá	710	Panajachel	8	Panajachel	11	Noviembre	2023-08-11T00:00:00	2024-11-08T19:00:00	5	Humedad	81
71057	7	Sololá	710	Panajachel	8	Panajachel	11	Noviembre	2023-08-11T00:00:00	2024-11-08T19:00:00	6	Velocidad del viento	0
71058	7	Sololá	710	Panajachel	8	Panajachel	11	Noviembre	2023-08-11T00:00:00	2024-11-08T19:00:00	7	Dirección del viento	0
71059	7	Sololá	710	Panajachel	8	Panajachel	11	Noviembre	2023-08-11T00:00:00	2024-11-08T19:00:00	1	Precipitación	0
71060	7	Sololá	710	Panajachel	8	Panajachel	11	Noviembre	2023-08-11T00:00:00	2024-11-08T19:00:00	8	Radiación solar	0
71061	7	Sololá	710	Panajachel	8	Panajachel	11	Noviembre	2023-08-11T00:00:00	2024-11-08T20:00:00	2	Temperatura media	20.6
71062	7	Sololá	710	Panajachel	8	Panajachel	11	Noviembre	2023-08-11T00:00:00	2024-11-08T20:00:00	4	Temperatura máxima	21.8
71063	7	Sololá	710	Panajachel	8	Panajachel	11	Noviembre	2023-08-11T00:00:00	2024-11-08T20:00:00	3	Temperatura mínima	20.6
71064	7	Sololá	710	Panajachel	8	Panajachel	11	Noviembre	2023-08-11T00:00:00	2024-11-08T20:00:00	5	Humedad	81
71065	7	Sololá	710	Panajachel	8	Panajachel	11	Noviembre	2023-08-11T00:00:00	2024-11-08T20:00:00	6	Velocidad del viento	1.6
71066	7	Sololá	710	Panajachel	8	Panajachel	11	Noviembre	2023-08-11T00:00:00	2024-11-08T20:00:00	7	Dirección del viento	1.61
71067	7	Sololá	710	Panajachel	8	Panajachel	11	Noviembre	2023-08-11T00:00:00	2024-11-08T20:00:00	1	Precipitación	0
71068	7	Sololá	710	Panajachel	8	Panajachel	11	Noviembre	2023-08-11T00:00:00	2024-11-08T20:00:00	8	Radiación solar	0
71069	7	Sololá	710	Panajachel	8	Panajachel	11	Noviembre	2023-08-11T00:00:00	2024-11-08T21:00:00	2	Temperatura media	19.8
71070	7	Sololá	710	Panajachel	8	Panajachel	11	Noviembre	2023-08-11T00:00:00	2024-11-08T21:00:00	4	Temperatura máxima	20.7
71071	7	Sololá	710	Panajachel	8	Panajachel	11	Noviembre	2023-08-11T00:00:00	2024-11-08T21:00:00	3	Temperatura mínima	19.8
71072	7	Sololá	710	Panajachel	8	Panajachel	11	Noviembre	2023-08-11T00:00:00	2024-11-08T21:00:00	5	Humedad	82
71073	7	Sololá	710	Panajachel	8	Panajachel	11	Noviembre	2023-08-11T00:00:00	2024-11-08T21:00:00	6	Velocidad del viento	0
71074	7	Sololá	710	Panajachel	8	Panajachel	11	Noviembre	2023-08-11T00:00:00	2024-11-08T21:00:00	7	Dirección del viento	0
71075	7	Sololá	710	Panajachel	8	Panajachel	11	Noviembre	2023-08-11T00:00:00	2024-11-08T21:00:00	1	Precipitación	0
71076	7	Sololá	710	Panajachel	8	Panajachel	11	Noviembre	2023-08-11T00:00:00	2024-11-08T21:00:00	8	Radiación solar	0
71077	7	Sololá	710	Panajachel	8	Panajachel	11	Noviembre	2023-08-11T00:00:00	2024-11-08T22:00:00	2	Temperatura media	20.1
71078	7	Sololá	710	Panajachel	8	Panajachel	11	Noviembre	2023-08-11T00:00:00	2024-11-08T22:00:00	4	Temperatura máxima	20.3
71079	7	Sololá	710	Panajachel	8	Panajachel	11	Noviembre	2023-08-11T00:00:00	2024-11-08T22:00:00	3	Temperatura mínima	19.7
71080	7	Sololá	710	Panajachel	8	Panajachel	11	Noviembre	2023-08-11T00:00:00	2024-11-08T22:00:00	5	Humedad	82
71081	7	Sololá	710	Panajachel	8	Panajachel	11	Noviembre	2023-08-11T00:00:00	2024-11-08T22:00:00	6	Velocidad del viento	0
71082	7	Sololá	710	Panajachel	8	Panajachel	11	Noviembre	2023-08-11T00:00:00	2024-11-08T22:00:00	7	Dirección del viento	0
71083	7	Sololá	710	Panajachel	8	Panajachel	11	Noviembre	2023-08-11T00:00:00	2024-11-08T22:00:00	1	Precipitación	0
71084	7	Sololá	710	Panajachel	8	Panajachel	11	Noviembre	2023-08-11T00:00:00	2024-11-08T22:00:00	8	Radiación solar	0
71085	7	Sololá	710	Panajachel	8	Panajachel	11	Noviembre	2023-08-11T00:00:00	2024-11-08T23:00:00	2	Temperatura media	20.8
71086	7	Sololá	710	Panajachel	8	Panajachel	11	Noviembre	2023-08-11T00:00:00	2024-11-08T23:00:00	4	Temperatura máxima	20.9
71087	7	Sololá	710	Panajachel	8	Panajachel	11	Noviembre	2023-08-11T00:00:00	2024-11-08T23:00:00	3	Temperatura mínima	19.6
71088	7	Sololá	710	Panajachel	8	Panajachel	11	Noviembre	2023-08-11T00:00:00	2024-11-08T23:00:00	5	Humedad	78
71089	7	Sololá	710	Panajachel	8	Panajachel	11	Noviembre	2023-08-11T00:00:00	2024-11-08T23:00:00	6	Velocidad del viento	1.6
71090	7	Sololá	710	Panajachel	8	Panajachel	11	Noviembre	2023-08-11T00:00:00	2024-11-08T23:00:00	7	Dirección del viento	1.61
71091	7	Sololá	710	Panajachel	8	Panajachel	11	Noviembre	2023-08-11T00:00:00	2024-11-08T23:00:00	1	Precipitación	0
71092	7	Sololá	710	Panajachel	8	Panajachel	11	Noviembre	2023-08-11T00:00:00	2024-11-08T23:00:00	8	Radiación solar	0
71093	7	Sololá	710	Panajachel	8	Panajachel	11	Noviembre	2023-09-11T00:00:00	2024-11-08T00:00:00	2	Temperatura media	21.6
71094	7	Sololá	710	Panajachel	8	Panajachel	11	Noviembre	2023-09-11T00:00:00	2024-11-08T00:00:00	4	Temperatura máxima	21.9
71095	7	Sololá	710	Panajachel	8	Panajachel	11	Noviembre	2023-09-11T00:00:00	2024-11-08T00:00:00	3	Temperatura mínima	20.8
71096	7	Sololá	710	Panajachel	8	Panajachel	11	Noviembre	2023-09-11T00:00:00	2024-11-08T00:00:00	5	Humedad	75
71097	7	Sololá	710	Panajachel	8	Panajachel	11	Noviembre	2023-09-11T00:00:00	2024-11-08T00:00:00	6	Velocidad del viento	8
71098	7	Sololá	710	Panajachel	8	Panajachel	11	Noviembre	2023-09-11T00:00:00	2024-11-08T00:00:00	7	Dirección del viento	8.05
71099	7	Sololá	710	Panajachel	8	Panajachel	11	Noviembre	2023-09-11T00:00:00	2024-11-08T00:00:00	1	Precipitación	0
71100	7	Sololá	710	Panajachel	8	Panajachel	11	Noviembre	2023-09-11T00:00:00	2024-11-08T00:00:00	8	Radiación solar	0
71101	7	Sololá	710	Panajachel	8	Panajachel	11	Noviembre	2023-09-11T00:00:00	2024-11-08T01:00:00	2	Temperatura media	19.7
71102	7	Sololá	710	Panajachel	8	Panajachel	11	Noviembre	2023-09-11T00:00:00	2024-11-08T01:00:00	4	Temperatura máxima	21.6
71103	7	Sololá	710	Panajachel	8	Panajachel	11	Noviembre	2023-09-11T00:00:00	2024-11-08T01:00:00	3	Temperatura mínima	19.7
71104	7	Sololá	710	Panajachel	8	Panajachel	11	Noviembre	2023-09-11T00:00:00	2024-11-08T01:00:00	5	Humedad	82
71105	7	Sololá	710	Panajachel	8	Panajachel	11	Noviembre	2023-09-11T00:00:00	2024-11-08T01:00:00	6	Velocidad del viento	0
71106	7	Sololá	710	Panajachel	8	Panajachel	11	Noviembre	2023-09-11T00:00:00	2024-11-08T01:00:00	7	Dirección del viento	0
71107	7	Sololá	710	Panajachel	8	Panajachel	11	Noviembre	2023-09-11T00:00:00	2024-11-08T01:00:00	1	Precipitación	0
71108	7	Sololá	710	Panajachel	8	Panajachel	11	Noviembre	2023-09-11T00:00:00	2024-11-08T01:00:00	8	Radiación solar	0
71109	7	Sololá	710	Panajachel	8	Panajachel	11	Noviembre	2023-09-11T00:00:00	2024-11-08T02:00:00	2	Temperatura media	18.7
71110	7	Sololá	710	Panajachel	8	Panajachel	11	Noviembre	2023-09-11T00:00:00	2024-11-08T02:00:00	4	Temperatura máxima	19.7
71111	7	Sololá	710	Panajachel	8	Panajachel	11	Noviembre	2023-09-11T00:00:00	2024-11-08T02:00:00	3	Temperatura mínima	18.4
71112	7	Sololá	710	Panajachel	8	Panajachel	11	Noviembre	2023-09-11T00:00:00	2024-11-08T02:00:00	5	Humedad	85
71113	7	Sololá	710	Panajachel	8	Panajachel	11	Noviembre	2023-09-11T00:00:00	2024-11-08T02:00:00	6	Velocidad del viento	0
71114	7	Sololá	710	Panajachel	8	Panajachel	11	Noviembre	2023-09-11T00:00:00	2024-11-08T02:00:00	7	Dirección del viento	0
71115	7	Sololá	710	Panajachel	8	Panajachel	11	Noviembre	2023-09-11T00:00:00	2024-11-08T02:00:00	1	Precipitación	0
71116	7	Sololá	710	Panajachel	8	Panajachel	11	Noviembre	2023-09-11T00:00:00	2024-11-08T02:00:00	8	Radiación solar	0
71117	7	Sololá	710	Panajachel	8	Panajachel	11	Noviembre	2023-09-11T00:00:00	2024-11-08T03:00:00	2	Temperatura media	18
71118	7	Sololá	710	Panajachel	8	Panajachel	11	Noviembre	2023-09-11T00:00:00	2024-11-08T03:00:00	4	Temperatura máxima	18.8
71119	7	Sololá	710	Panajachel	8	Panajachel	11	Noviembre	2023-09-11T00:00:00	2024-11-08T03:00:00	3	Temperatura mínima	18
71120	7	Sololá	710	Panajachel	8	Panajachel	11	Noviembre	2023-09-11T00:00:00	2024-11-08T03:00:00	5	Humedad	87
71121	7	Sololá	710	Panajachel	8	Panajachel	11	Noviembre	2023-09-11T00:00:00	2024-11-08T03:00:00	6	Velocidad del viento	0
71122	7	Sololá	710	Panajachel	8	Panajachel	11	Noviembre	2023-09-11T00:00:00	2024-11-08T03:00:00	7	Dirección del viento	0
71123	7	Sololá	710	Panajachel	8	Panajachel	11	Noviembre	2023-09-11T00:00:00	2024-11-08T03:00:00	1	Precipitación	0
71124	7	Sololá	710	Panajachel	8	Panajachel	11	Noviembre	2023-09-11T00:00:00	2024-11-08T03:00:00	8	Radiación solar	0
71125	7	Sololá	710	Panajachel	8	Panajachel	11	Noviembre	2023-09-11T00:00:00	2024-11-08T04:00:00	2	Temperatura media	17.4
71126	7	Sololá	710	Panajachel	8	Panajachel	11	Noviembre	2023-09-11T00:00:00	2024-11-08T04:00:00	4	Temperatura máxima	18
71127	7	Sololá	710	Panajachel	8	Panajachel	11	Noviembre	2023-09-11T00:00:00	2024-11-08T04:00:00	3	Temperatura mínima	17.4
71128	7	Sololá	710	Panajachel	8	Panajachel	11	Noviembre	2023-09-11T00:00:00	2024-11-08T04:00:00	5	Humedad	88
71129	7	Sololá	710	Panajachel	8	Panajachel	11	Noviembre	2023-09-11T00:00:00	2024-11-08T04:00:00	6	Velocidad del viento	1.6
71130	7	Sololá	710	Panajachel	8	Panajachel	11	Noviembre	2023-09-11T00:00:00	2024-11-08T04:00:00	7	Dirección del viento	1.61
71131	7	Sololá	710	Panajachel	8	Panajachel	11	Noviembre	2023-09-11T00:00:00	2024-11-08T04:00:00	1	Precipitación	0
71132	7	Sololá	710	Panajachel	8	Panajachel	11	Noviembre	2023-09-11T00:00:00	2024-11-08T04:00:00	8	Radiación solar	0
71133	7	Sololá	710	Panajachel	8	Panajachel	11	Noviembre	2023-09-11T00:00:00	2024-11-08T05:00:00	2	Temperatura media	17.3
71134	7	Sololá	710	Panajachel	8	Panajachel	11	Noviembre	2023-09-11T00:00:00	2024-11-08T05:00:00	4	Temperatura máxima	17.4
71135	7	Sololá	710	Panajachel	8	Panajachel	11	Noviembre	2023-09-11T00:00:00	2024-11-08T05:00:00	3	Temperatura mínima	17.1
71136	7	Sololá	710	Panajachel	8	Panajachel	11	Noviembre	2023-09-11T00:00:00	2024-11-08T05:00:00	5	Humedad	86
71137	7	Sololá	710	Panajachel	8	Panajachel	11	Noviembre	2023-09-11T00:00:00	2024-11-08T05:00:00	6	Velocidad del viento	1.6
71138	7	Sololá	710	Panajachel	8	Panajachel	11	Noviembre	2023-09-11T00:00:00	2024-11-08T05:00:00	7	Dirección del viento	1.61
71139	7	Sololá	710	Panajachel	8	Panajachel	11	Noviembre	2023-09-11T00:00:00	2024-11-08T05:00:00	1	Precipitación	0
71140	7	Sololá	710	Panajachel	8	Panajachel	11	Noviembre	2023-09-11T00:00:00	2024-11-08T05:00:00	8	Radiación solar	0
71141	7	Sololá	710	Panajachel	8	Panajachel	11	Noviembre	2023-09-11T00:00:00	2024-11-08T06:00:00	2	Temperatura media	16.7
71142	7	Sololá	710	Panajachel	8	Panajachel	11	Noviembre	2023-09-11T00:00:00	2024-11-08T06:00:00	4	Temperatura máxima	17.4
71143	7	Sololá	710	Panajachel	8	Panajachel	11	Noviembre	2023-09-11T00:00:00	2024-11-08T06:00:00	3	Temperatura mínima	16.6
71144	7	Sololá	710	Panajachel	8	Panajachel	11	Noviembre	2023-09-11T00:00:00	2024-11-08T06:00:00	5	Humedad	89
71145	7	Sololá	710	Panajachel	8	Panajachel	11	Noviembre	2023-09-11T00:00:00	2024-11-08T06:00:00	6	Velocidad del viento	0
71146	7	Sololá	710	Panajachel	8	Panajachel	11	Noviembre	2023-09-11T00:00:00	2024-11-08T06:00:00	7	Dirección del viento	0
71147	7	Sololá	710	Panajachel	8	Panajachel	11	Noviembre	2023-09-11T00:00:00	2024-11-08T06:00:00	1	Precipitación	0
71148	7	Sololá	710	Panajachel	8	Panajachel	11	Noviembre	2023-09-11T00:00:00	2024-11-08T06:00:00	8	Radiación solar	0
71149	7	Sololá	710	Panajachel	8	Panajachel	11	Noviembre	2023-09-11T00:00:00	2024-11-08T07:00:00	2	Temperatura media	17.5
71150	7	Sololá	710	Panajachel	8	Panajachel	11	Noviembre	2023-09-11T00:00:00	2024-11-08T07:00:00	4	Temperatura máxima	17.5
71151	7	Sololá	710	Panajachel	8	Panajachel	11	Noviembre	2023-09-11T00:00:00	2024-11-08T07:00:00	3	Temperatura mínima	16.4
71152	7	Sololá	710	Panajachel	8	Panajachel	11	Noviembre	2023-09-11T00:00:00	2024-11-08T07:00:00	5	Humedad	84
71153	7	Sololá	710	Panajachel	8	Panajachel	11	Noviembre	2023-09-11T00:00:00	2024-11-08T07:00:00	6	Velocidad del viento	1.6
71154	7	Sololá	710	Panajachel	8	Panajachel	11	Noviembre	2023-09-11T00:00:00	2024-11-08T07:00:00	7	Dirección del viento	1.61
71155	7	Sololá	710	Panajachel	8	Panajachel	11	Noviembre	2023-09-11T00:00:00	2024-11-08T07:00:00	1	Precipitación	0
71156	7	Sololá	710	Panajachel	8	Panajachel	11	Noviembre	2023-09-11T00:00:00	2024-11-08T07:00:00	8	Radiación solar	20
71157	7	Sololá	710	Panajachel	8	Panajachel	11	Noviembre	2023-09-11T00:00:00	2024-11-08T08:00:00	2	Temperatura media	20.7
71158	7	Sololá	710	Panajachel	8	Panajachel	11	Noviembre	2023-09-11T00:00:00	2024-11-08T08:00:00	4	Temperatura máxima	20.7
71159	7	Sololá	710	Panajachel	8	Panajachel	11	Noviembre	2023-09-11T00:00:00	2024-11-08T08:00:00	3	Temperatura mínima	17.5
71160	7	Sololá	710	Panajachel	8	Panajachel	11	Noviembre	2023-09-11T00:00:00	2024-11-08T08:00:00	5	Humedad	79
71161	7	Sololá	710	Panajachel	8	Panajachel	11	Noviembre	2023-09-11T00:00:00	2024-11-08T08:00:00	6	Velocidad del viento	0
71162	7	Sololá	710	Panajachel	8	Panajachel	11	Noviembre	2023-09-11T00:00:00	2024-11-08T08:00:00	7	Dirección del viento	0
71163	7	Sololá	710	Panajachel	8	Panajachel	11	Noviembre	2023-09-11T00:00:00	2024-11-08T08:00:00	1	Precipitación	0
71164	7	Sololá	710	Panajachel	8	Panajachel	11	Noviembre	2023-09-11T00:00:00	2024-11-08T08:00:00	8	Radiación solar	218
71165	7	Sololá	710	Panajachel	8	Panajachel	11	Noviembre	2023-09-11T00:00:00	2024-11-08T09:00:00	2	Temperatura media	21.2
71166	7	Sololá	710	Panajachel	8	Panajachel	11	Noviembre	2023-09-11T00:00:00	2024-11-08T09:00:00	4	Temperatura máxima	21.7
71167	7	Sololá	710	Panajachel	8	Panajachel	11	Noviembre	2023-09-11T00:00:00	2024-11-08T09:00:00	3	Temperatura mínima	20.7
71168	7	Sololá	710	Panajachel	8	Panajachel	11	Noviembre	2023-09-11T00:00:00	2024-11-08T09:00:00	5	Humedad	80
71169	7	Sololá	710	Panajachel	8	Panajachel	11	Noviembre	2023-09-11T00:00:00	2024-11-08T09:00:00	6	Velocidad del viento	0
71170	7	Sololá	710	Panajachel	8	Panajachel	11	Noviembre	2023-09-11T00:00:00	2024-11-08T09:00:00	7	Dirección del viento	0
71171	7	Sololá	710	Panajachel	8	Panajachel	11	Noviembre	2023-09-11T00:00:00	2024-11-08T09:00:00	1	Precipitación	0
71172	7	Sololá	710	Panajachel	8	Panajachel	11	Noviembre	2023-09-11T00:00:00	2024-11-08T09:00:00	8	Radiación solar	466
71173	7	Sololá	710	Panajachel	8	Panajachel	11	Noviembre	2023-09-11T00:00:00	2024-11-08T10:00:00	2	Temperatura media	21.4
71174	7	Sololá	710	Panajachel	8	Panajachel	11	Noviembre	2023-09-11T00:00:00	2024-11-08T10:00:00	4	Temperatura máxima	21.5
71175	7	Sololá	710	Panajachel	8	Panajachel	11	Noviembre	2023-09-11T00:00:00	2024-11-08T10:00:00	3	Temperatura mínima	21.2
71176	7	Sololá	710	Panajachel	8	Panajachel	11	Noviembre	2023-09-11T00:00:00	2024-11-08T10:00:00	5	Humedad	81
71177	7	Sololá	710	Panajachel	8	Panajachel	11	Noviembre	2023-09-11T00:00:00	2024-11-08T10:00:00	6	Velocidad del viento	0
71178	7	Sololá	710	Panajachel	8	Panajachel	11	Noviembre	2023-09-11T00:00:00	2024-11-08T10:00:00	7	Dirección del viento	0
71179	7	Sololá	710	Panajachel	8	Panajachel	11	Noviembre	2023-09-11T00:00:00	2024-11-08T10:00:00	1	Precipitación	0
71180	7	Sololá	710	Panajachel	8	Panajachel	11	Noviembre	2023-09-11T00:00:00	2024-11-08T10:00:00	8	Radiación solar	629
71181	7	Sololá	710	Panajachel	8	Panajachel	11	Noviembre	2023-09-11T00:00:00	2024-11-08T11:00:00	2	Temperatura media	22.4
71182	7	Sololá	710	Panajachel	8	Panajachel	11	Noviembre	2023-09-11T00:00:00	2024-11-08T11:00:00	4	Temperatura máxima	23.1
71183	7	Sololá	710	Panajachel	8	Panajachel	11	Noviembre	2023-09-11T00:00:00	2024-11-08T11:00:00	3	Temperatura mínima	21.2
71184	7	Sololá	710	Panajachel	8	Panajachel	11	Noviembre	2023-09-11T00:00:00	2024-11-08T11:00:00	5	Humedad	78
71185	7	Sololá	710	Panajachel	8	Panajachel	11	Noviembre	2023-09-11T00:00:00	2024-11-08T11:00:00	6	Velocidad del viento	0
71186	7	Sololá	710	Panajachel	8	Panajachel	11	Noviembre	2023-09-11T00:00:00	2024-11-08T11:00:00	7	Dirección del viento	0
71187	7	Sololá	710	Panajachel	8	Panajachel	11	Noviembre	2023-09-11T00:00:00	2024-11-08T11:00:00	1	Precipitación	0
71188	7	Sololá	710	Panajachel	8	Panajachel	11	Noviembre	2023-09-11T00:00:00	2024-11-08T11:00:00	8	Radiación solar	667
71189	7	Sololá	710	Panajachel	8	Panajachel	11	Noviembre	2023-09-11T00:00:00	2024-11-08T12:00:00	2	Temperatura media	23.9
71190	7	Sololá	710	Panajachel	8	Panajachel	11	Noviembre	2023-09-11T00:00:00	2024-11-08T12:00:00	4	Temperatura máxima	23.9
71191	7	Sololá	710	Panajachel	8	Panajachel	11	Noviembre	2023-09-11T00:00:00	2024-11-08T12:00:00	3	Temperatura mínima	22.2
71192	7	Sololá	710	Panajachel	8	Panajachel	11	Noviembre	2023-09-11T00:00:00	2024-11-08T12:00:00	5	Humedad	72
71193	7	Sololá	710	Panajachel	8	Panajachel	11	Noviembre	2023-09-11T00:00:00	2024-11-08T12:00:00	6	Velocidad del viento	1.6
71194	7	Sololá	710	Panajachel	8	Panajachel	11	Noviembre	2023-09-11T00:00:00	2024-11-08T12:00:00	7	Dirección del viento	1.61
71195	7	Sololá	710	Panajachel	8	Panajachel	11	Noviembre	2023-09-11T00:00:00	2024-11-08T12:00:00	1	Precipitación	0
71196	7	Sololá	710	Panajachel	8	Panajachel	11	Noviembre	2023-09-11T00:00:00	2024-11-08T12:00:00	8	Radiación solar	747
71197	7	Sololá	710	Panajachel	8	Panajachel	11	Noviembre	2023-09-11T00:00:00	2024-11-08T13:00:00	2	Temperatura media	24.8
71198	7	Sololá	710	Panajachel	8	Panajachel	11	Noviembre	2023-09-11T00:00:00	2024-11-08T13:00:00	4	Temperatura máxima	25.1
71199	7	Sololá	710	Panajachel	8	Panajachel	11	Noviembre	2023-09-11T00:00:00	2024-11-08T13:00:00	3	Temperatura mínima	23.9
71200	7	Sololá	710	Panajachel	8	Panajachel	11	Noviembre	2023-09-11T00:00:00	2024-11-08T13:00:00	5	Humedad	72
71201	7	Sololá	710	Panajachel	8	Panajachel	11	Noviembre	2023-09-11T00:00:00	2024-11-08T13:00:00	6	Velocidad del viento	1.6
71202	7	Sololá	710	Panajachel	8	Panajachel	11	Noviembre	2023-09-11T00:00:00	2024-11-08T13:00:00	7	Dirección del viento	1.61
71203	7	Sololá	710	Panajachel	8	Panajachel	11	Noviembre	2023-09-11T00:00:00	2024-11-08T13:00:00	1	Precipitación	0
71204	7	Sololá	710	Panajachel	8	Panajachel	11	Noviembre	2023-09-11T00:00:00	2024-11-08T13:00:00	8	Radiación solar	806
71205	7	Sololá	710	Panajachel	8	Panajachel	11	Noviembre	2023-09-11T00:00:00	2024-11-08T14:00:00	2	Temperatura media	25.4
71206	7	Sololá	710	Panajachel	8	Panajachel	11	Noviembre	2023-09-11T00:00:00	2024-11-08T14:00:00	4	Temperatura máxima	25.4
71207	7	Sololá	710	Panajachel	8	Panajachel	11	Noviembre	2023-09-11T00:00:00	2024-11-08T14:00:00	3	Temperatura mínima	24
71208	7	Sololá	710	Panajachel	8	Panajachel	11	Noviembre	2023-09-11T00:00:00	2024-11-08T14:00:00	5	Humedad	72
71209	7	Sololá	710	Panajachel	8	Panajachel	11	Noviembre	2023-09-11T00:00:00	2024-11-08T14:00:00	6	Velocidad del viento	1.6
71210	7	Sololá	710	Panajachel	8	Panajachel	11	Noviembre	2023-09-11T00:00:00	2024-11-08T14:00:00	7	Dirección del viento	1.61
71211	7	Sololá	710	Panajachel	8	Panajachel	11	Noviembre	2023-09-11T00:00:00	2024-11-08T14:00:00	1	Precipitación	0
71212	7	Sololá	710	Panajachel	8	Panajachel	11	Noviembre	2023-09-11T00:00:00	2024-11-08T14:00:00	8	Radiación solar	728
71213	7	Sololá	710	Panajachel	8	Panajachel	11	Noviembre	2023-09-11T00:00:00	2024-11-08T15:00:00	2	Temperatura media	23.6
71214	7	Sololá	710	Panajachel	8	Panajachel	11	Noviembre	2023-09-11T00:00:00	2024-11-08T15:00:00	4	Temperatura máxima	25.4
71215	7	Sololá	710	Panajachel	8	Panajachel	11	Noviembre	2023-09-11T00:00:00	2024-11-08T15:00:00	3	Temperatura mínima	23.6
71216	7	Sololá	710	Panajachel	8	Panajachel	11	Noviembre	2023-09-11T00:00:00	2024-11-08T15:00:00	5	Humedad	82
71217	7	Sololá	710	Panajachel	8	Panajachel	11	Noviembre	2023-09-11T00:00:00	2024-11-08T15:00:00	6	Velocidad del viento	4.8
71218	7	Sololá	710	Panajachel	8	Panajachel	11	Noviembre	2023-09-11T00:00:00	2024-11-08T15:00:00	7	Dirección del viento	4.83
71219	7	Sololá	710	Panajachel	8	Panajachel	11	Noviembre	2023-09-11T00:00:00	2024-11-08T15:00:00	1	Precipitación	0
71220	7	Sololá	710	Panajachel	8	Panajachel	11	Noviembre	2023-09-11T00:00:00	2024-11-08T15:00:00	8	Radiación solar	577
71221	7	Sololá	710	Panajachel	8	Panajachel	11	Noviembre	2023-09-11T00:00:00	2024-11-08T16:00:00	2	Temperatura media	24.1
71222	7	Sololá	710	Panajachel	8	Panajachel	11	Noviembre	2023-09-11T00:00:00	2024-11-08T16:00:00	4	Temperatura máxima	24.2
71223	7	Sololá	710	Panajachel	8	Panajachel	11	Noviembre	2023-09-11T00:00:00	2024-11-08T16:00:00	3	Temperatura mínima	22.8
71224	7	Sololá	710	Panajachel	8	Panajachel	11	Noviembre	2023-09-11T00:00:00	2024-11-08T16:00:00	5	Humedad	81
71225	7	Sololá	710	Panajachel	8	Panajachel	11	Noviembre	2023-09-11T00:00:00	2024-11-08T16:00:00	6	Velocidad del viento	3.2
71226	7	Sololá	710	Panajachel	8	Panajachel	11	Noviembre	2023-09-11T00:00:00	2024-11-08T16:00:00	7	Dirección del viento	3.22
71227	7	Sololá	710	Panajachel	8	Panajachel	11	Noviembre	2023-09-11T00:00:00	2024-11-08T16:00:00	1	Precipitación	0
71228	7	Sololá	710	Panajachel	8	Panajachel	11	Noviembre	2023-09-11T00:00:00	2024-11-08T16:00:00	8	Radiación solar	283
71229	7	Sololá	710	Panajachel	8	Panajachel	11	Noviembre	2023-09-11T00:00:00	2024-11-08T17:00:00	2	Temperatura media	22.2
71230	7	Sololá	710	Panajachel	8	Panajachel	11	Noviembre	2023-09-11T00:00:00	2024-11-08T17:00:00	4	Temperatura máxima	24.1
71231	7	Sololá	710	Panajachel	8	Panajachel	11	Noviembre	2023-09-11T00:00:00	2024-11-08T17:00:00	3	Temperatura mínima	22.2
71232	7	Sololá	710	Panajachel	8	Panajachel	11	Noviembre	2023-09-11T00:00:00	2024-11-08T17:00:00	5	Humedad	87
71233	7	Sololá	710	Panajachel	8	Panajachel	11	Noviembre	2023-09-11T00:00:00	2024-11-08T17:00:00	6	Velocidad del viento	1.6
71234	7	Sololá	710	Panajachel	8	Panajachel	11	Noviembre	2023-09-11T00:00:00	2024-11-08T17:00:00	7	Dirección del viento	1.61
71235	7	Sololá	710	Panajachel	8	Panajachel	11	Noviembre	2023-09-11T00:00:00	2024-11-08T17:00:00	1	Precipitación	0
71236	7	Sololá	710	Panajachel	8	Panajachel	11	Noviembre	2023-09-11T00:00:00	2024-11-08T17:00:00	8	Radiación solar	90
71237	7	Sololá	710	Panajachel	8	Panajachel	11	Noviembre	2023-09-11T00:00:00	2024-11-08T18:00:00	2	Temperatura media	21.2
71238	7	Sololá	710	Panajachel	8	Panajachel	11	Noviembre	2023-09-11T00:00:00	2024-11-08T18:00:00	4	Temperatura máxima	22.2
71239	7	Sololá	710	Panajachel	8	Panajachel	11	Noviembre	2023-09-11T00:00:00	2024-11-08T18:00:00	3	Temperatura mínima	21.2
71240	7	Sololá	710	Panajachel	8	Panajachel	11	Noviembre	2023-09-11T00:00:00	2024-11-08T18:00:00	5	Humedad	90
71241	7	Sololá	710	Panajachel	8	Panajachel	11	Noviembre	2023-09-11T00:00:00	2024-11-08T18:00:00	6	Velocidad del viento	0
71242	7	Sololá	710	Panajachel	8	Panajachel	11	Noviembre	2023-09-11T00:00:00	2024-11-08T18:00:00	7	Dirección del viento	0
71243	7	Sololá	710	Panajachel	8	Panajachel	11	Noviembre	2023-09-11T00:00:00	2024-11-08T18:00:00	1	Precipitación	0
71244	7	Sololá	710	Panajachel	8	Panajachel	11	Noviembre	2023-09-11T00:00:00	2024-11-08T18:00:00	8	Radiación solar	7
71245	7	Sololá	710	Panajachel	8	Panajachel	11	Noviembre	2023-09-11T00:00:00	2024-11-08T19:00:00	2	Temperatura media	20.6
71246	7	Sololá	710	Panajachel	8	Panajachel	11	Noviembre	2023-09-11T00:00:00	2024-11-08T19:00:00	4	Temperatura máxima	21.2
71247	7	Sololá	710	Panajachel	8	Panajachel	11	Noviembre	2023-09-11T00:00:00	2024-11-08T19:00:00	3	Temperatura mínima	20.6
71248	7	Sololá	710	Panajachel	8	Panajachel	11	Noviembre	2023-09-11T00:00:00	2024-11-08T19:00:00	5	Humedad	85
71249	7	Sololá	710	Panajachel	8	Panajachel	11	Noviembre	2023-09-11T00:00:00	2024-11-08T19:00:00	6	Velocidad del viento	0
71250	7	Sololá	710	Panajachel	8	Panajachel	11	Noviembre	2023-09-11T00:00:00	2024-11-08T19:00:00	7	Dirección del viento	0
71251	7	Sololá	710	Panajachel	8	Panajachel	11	Noviembre	2023-09-11T00:00:00	2024-11-08T19:00:00	1	Precipitación	0
71252	7	Sololá	710	Panajachel	8	Panajachel	11	Noviembre	2023-09-11T00:00:00	2024-11-08T19:00:00	8	Radiación solar	0
71253	7	Sololá	710	Panajachel	8	Panajachel	11	Noviembre	2023-09-11T00:00:00	2024-11-08T20:00:00	2	Temperatura media	19
71254	7	Sololá	710	Panajachel	8	Panajachel	11	Noviembre	2023-09-11T00:00:00	2024-11-08T20:00:00	4	Temperatura máxima	20.6
71255	7	Sololá	710	Panajachel	8	Panajachel	11	Noviembre	2023-09-11T00:00:00	2024-11-08T20:00:00	3	Temperatura mínima	19
71256	7	Sololá	710	Panajachel	8	Panajachel	11	Noviembre	2023-09-11T00:00:00	2024-11-08T20:00:00	5	Humedad	82
71257	7	Sololá	710	Panajachel	8	Panajachel	11	Noviembre	2023-09-11T00:00:00	2024-11-08T20:00:00	6	Velocidad del viento	1.6
71258	7	Sololá	710	Panajachel	8	Panajachel	11	Noviembre	2023-09-11T00:00:00	2024-11-08T20:00:00	7	Dirección del viento	1.61
71259	7	Sololá	710	Panajachel	8	Panajachel	11	Noviembre	2023-09-11T00:00:00	2024-11-08T20:00:00	1	Precipitación	0
71260	7	Sololá	710	Panajachel	8	Panajachel	11	Noviembre	2023-09-11T00:00:00	2024-11-08T20:00:00	8	Radiación solar	0
71261	7	Sololá	710	Panajachel	8	Panajachel	11	Noviembre	2023-09-11T00:00:00	2024-11-08T21:00:00	2	Temperatura media	18.2
71262	7	Sololá	710	Panajachel	8	Panajachel	11	Noviembre	2023-09-11T00:00:00	2024-11-08T21:00:00	4	Temperatura máxima	19.1
71263	7	Sololá	710	Panajachel	8	Panajachel	11	Noviembre	2023-09-11T00:00:00	2024-11-08T21:00:00	3	Temperatura mínima	18
71264	7	Sololá	710	Panajachel	8	Panajachel	11	Noviembre	2023-09-11T00:00:00	2024-11-08T21:00:00	5	Humedad	83
71265	7	Sololá	710	Panajachel	8	Panajachel	11	Noviembre	2023-09-11T00:00:00	2024-11-08T21:00:00	6	Velocidad del viento	3.2
71266	7	Sololá	710	Panajachel	8	Panajachel	11	Noviembre	2023-09-11T00:00:00	2024-11-08T21:00:00	7	Dirección del viento	3.22
71267	7	Sololá	710	Panajachel	8	Panajachel	11	Noviembre	2023-09-11T00:00:00	2024-11-08T21:00:00	1	Precipitación	0
71268	7	Sololá	710	Panajachel	8	Panajachel	11	Noviembre	2023-09-11T00:00:00	2024-11-08T21:00:00	8	Radiación solar	0
71269	7	Sololá	710	Panajachel	8	Panajachel	11	Noviembre	2023-09-11T00:00:00	2024-11-08T22:00:00	2	Temperatura media	17.6
71270	7	Sololá	710	Panajachel	8	Panajachel	11	Noviembre	2023-09-11T00:00:00	2024-11-08T22:00:00	4	Temperatura máxima	18.3
71271	7	Sololá	710	Panajachel	8	Panajachel	11	Noviembre	2023-09-11T00:00:00	2024-11-08T22:00:00	3	Temperatura mínima	17.6
71272	7	Sololá	710	Panajachel	8	Panajachel	11	Noviembre	2023-09-11T00:00:00	2024-11-08T22:00:00	5	Humedad	83
71273	7	Sololá	710	Panajachel	8	Panajachel	11	Noviembre	2023-09-11T00:00:00	2024-11-08T22:00:00	6	Velocidad del viento	1.6
71274	7	Sololá	710	Panajachel	8	Panajachel	11	Noviembre	2023-09-11T00:00:00	2024-11-08T22:00:00	7	Dirección del viento	1.61
71275	7	Sololá	710	Panajachel	8	Panajachel	11	Noviembre	2023-09-11T00:00:00	2024-11-08T22:00:00	1	Precipitación	0
71276	7	Sololá	710	Panajachel	8	Panajachel	11	Noviembre	2023-09-11T00:00:00	2024-11-08T22:00:00	8	Radiación solar	0
71277	7	Sololá	710	Panajachel	8	Panajachel	11	Noviembre	2023-09-11T00:00:00	2024-11-08T23:00:00	2	Temperatura media	17.4
71278	7	Sololá	710	Panajachel	8	Panajachel	11	Noviembre	2023-09-11T00:00:00	2024-11-08T23:00:00	4	Temperatura máxima	17.6
71279	7	Sololá	710	Panajachel	8	Panajachel	11	Noviembre	2023-09-11T00:00:00	2024-11-08T23:00:00	3	Temperatura mínima	17.3
71280	7	Sololá	710	Panajachel	8	Panajachel	11	Noviembre	2023-09-11T00:00:00	2024-11-08T23:00:00	5	Humedad	80
71281	7	Sololá	710	Panajachel	8	Panajachel	11	Noviembre	2023-09-11T00:00:00	2024-11-08T23:00:00	6	Velocidad del viento	1.6
71282	7	Sololá	710	Panajachel	8	Panajachel	11	Noviembre	2023-09-11T00:00:00	2024-11-08T23:00:00	7	Dirección del viento	1.61
71283	7	Sololá	710	Panajachel	8	Panajachel	11	Noviembre	2023-09-11T00:00:00	2024-11-08T23:00:00	1	Precipitación	0
71284	7	Sololá	710	Panajachel	8	Panajachel	11	Noviembre	2023-09-11T00:00:00	2024-11-08T23:00:00	8	Radiación solar	0
71285	7	Sololá	710	Panajachel	8	Panajachel	11	Noviembre	2023-10-11T00:00:00	2024-11-08T00:00:00	2	Temperatura media	17.1
71286	7	Sololá	710	Panajachel	8	Panajachel	11	Noviembre	2023-10-11T00:00:00	2024-11-08T00:00:00	4	Temperatura máxima	17.4
71287	7	Sololá	710	Panajachel	8	Panajachel	11	Noviembre	2023-10-11T00:00:00	2024-11-08T00:00:00	3	Temperatura mínima	17.1
71288	7	Sololá	710	Panajachel	8	Panajachel	11	Noviembre	2023-10-11T00:00:00	2024-11-08T00:00:00	5	Humedad	79
71289	7	Sololá	710	Panajachel	8	Panajachel	11	Noviembre	2023-10-11T00:00:00	2024-11-08T00:00:00	6	Velocidad del viento	1.6
71290	7	Sololá	710	Panajachel	8	Panajachel	11	Noviembre	2023-10-11T00:00:00	2024-11-08T00:00:00	7	Dirección del viento	1.61
71291	7	Sololá	710	Panajachel	8	Panajachel	11	Noviembre	2023-10-11T00:00:00	2024-11-08T00:00:00	1	Precipitación	0
71292	7	Sololá	710	Panajachel	8	Panajachel	11	Noviembre	2023-10-11T00:00:00	2024-11-08T00:00:00	8	Radiación solar	0
71293	7	Sololá	710	Panajachel	8	Panajachel	11	Noviembre	2023-10-11T00:00:00	2024-11-08T01:00:00	2	Temperatura media	16.8
71294	7	Sololá	710	Panajachel	8	Panajachel	11	Noviembre	2023-10-11T00:00:00	2024-11-08T01:00:00	4	Temperatura máxima	17.2
71295	7	Sololá	710	Panajachel	8	Panajachel	11	Noviembre	2023-10-11T00:00:00	2024-11-08T01:00:00	3	Temperatura mínima	16.8
71296	7	Sololá	710	Panajachel	8	Panajachel	11	Noviembre	2023-10-11T00:00:00	2024-11-08T01:00:00	5	Humedad	79
71297	7	Sololá	710	Panajachel	8	Panajachel	11	Noviembre	2023-10-11T00:00:00	2024-11-08T01:00:00	6	Velocidad del viento	3.2
71298	7	Sololá	710	Panajachel	8	Panajachel	11	Noviembre	2023-10-11T00:00:00	2024-11-08T01:00:00	7	Dirección del viento	3.22
71299	7	Sololá	710	Panajachel	8	Panajachel	11	Noviembre	2023-10-11T00:00:00	2024-11-08T01:00:00	1	Precipitación	0
71300	7	Sololá	710	Panajachel	8	Panajachel	11	Noviembre	2023-10-11T00:00:00	2024-11-08T01:00:00	8	Radiación solar	0
71301	7	Sololá	710	Panajachel	8	Panajachel	11	Noviembre	2023-10-11T00:00:00	2024-11-08T02:00:00	2	Temperatura media	16.1
71302	7	Sololá	710	Panajachel	8	Panajachel	11	Noviembre	2023-10-11T00:00:00	2024-11-08T02:00:00	4	Temperatura máxima	16.8
71303	7	Sololá	710	Panajachel	8	Panajachel	11	Noviembre	2023-10-11T00:00:00	2024-11-08T02:00:00	3	Temperatura mínima	16.1
71304	7	Sololá	710	Panajachel	8	Panajachel	11	Noviembre	2023-10-11T00:00:00	2024-11-08T02:00:00	5	Humedad	79
71305	7	Sololá	710	Panajachel	8	Panajachel	11	Noviembre	2023-10-11T00:00:00	2024-11-08T02:00:00	6	Velocidad del viento	3.2
71306	7	Sololá	710	Panajachel	8	Panajachel	11	Noviembre	2023-10-11T00:00:00	2024-11-08T02:00:00	7	Dirección del viento	3.22
71307	7	Sololá	710	Panajachel	8	Panajachel	11	Noviembre	2023-10-11T00:00:00	2024-11-08T02:00:00	1	Precipitación	0
71308	7	Sololá	710	Panajachel	8	Panajachel	11	Noviembre	2023-10-11T00:00:00	2024-11-08T02:00:00	8	Radiación solar	0
71309	7	Sololá	710	Panajachel	8	Panajachel	11	Noviembre	2023-10-11T00:00:00	2024-11-08T03:00:00	2	Temperatura media	16.3
71310	7	Sololá	710	Panajachel	8	Panajachel	11	Noviembre	2023-10-11T00:00:00	2024-11-08T03:00:00	4	Temperatura máxima	16.5
71311	7	Sololá	710	Panajachel	8	Panajachel	11	Noviembre	2023-10-11T00:00:00	2024-11-08T03:00:00	3	Temperatura mínima	16.1
71312	7	Sololá	710	Panajachel	8	Panajachel	11	Noviembre	2023-10-11T00:00:00	2024-11-08T03:00:00	5	Humedad	79
71313	7	Sololá	710	Panajachel	8	Panajachel	11	Noviembre	2023-10-11T00:00:00	2024-11-08T03:00:00	6	Velocidad del viento	1.6
71314	7	Sololá	710	Panajachel	8	Panajachel	11	Noviembre	2023-10-11T00:00:00	2024-11-08T03:00:00	7	Dirección del viento	1.61
71315	7	Sololá	710	Panajachel	8	Panajachel	11	Noviembre	2023-10-11T00:00:00	2024-11-08T03:00:00	1	Precipitación	0
71316	7	Sololá	710	Panajachel	8	Panajachel	11	Noviembre	2023-10-11T00:00:00	2024-11-08T03:00:00	8	Radiación solar	0
71317	7	Sololá	710	Panajachel	8	Panajachel	11	Noviembre	2023-10-11T00:00:00	2024-11-08T04:00:00	2	Temperatura media	16.2
71318	7	Sololá	710	Panajachel	8	Panajachel	11	Noviembre	2023-10-11T00:00:00	2024-11-08T04:00:00	4	Temperatura máxima	16.4
71319	7	Sololá	710	Panajachel	8	Panajachel	11	Noviembre	2023-10-11T00:00:00	2024-11-08T04:00:00	3	Temperatura mínima	16.2
71320	7	Sololá	710	Panajachel	8	Panajachel	11	Noviembre	2023-10-11T00:00:00	2024-11-08T04:00:00	5	Humedad	78
71321	7	Sololá	710	Panajachel	8	Panajachel	11	Noviembre	2023-10-11T00:00:00	2024-11-08T04:00:00	6	Velocidad del viento	1.6
71322	7	Sololá	710	Panajachel	8	Panajachel	11	Noviembre	2023-10-11T00:00:00	2024-11-08T04:00:00	7	Dirección del viento	1.61
71323	7	Sololá	710	Panajachel	8	Panajachel	11	Noviembre	2023-10-11T00:00:00	2024-11-08T04:00:00	1	Precipitación	0
71324	7	Sololá	710	Panajachel	8	Panajachel	11	Noviembre	2023-10-11T00:00:00	2024-11-08T04:00:00	8	Radiación solar	0
71325	7	Sololá	710	Panajachel	8	Panajachel	11	Noviembre	2023-10-11T00:00:00	2024-11-08T05:00:00	2	Temperatura media	15.9
71326	7	Sololá	710	Panajachel	8	Panajachel	11	Noviembre	2023-10-11T00:00:00	2024-11-08T05:00:00	4	Temperatura máxima	16.3
71327	7	Sololá	710	Panajachel	8	Panajachel	11	Noviembre	2023-10-11T00:00:00	2024-11-08T05:00:00	3	Temperatura mínima	15.9
71328	7	Sololá	710	Panajachel	8	Panajachel	11	Noviembre	2023-10-11T00:00:00	2024-11-08T05:00:00	5	Humedad	78
71329	7	Sololá	710	Panajachel	8	Panajachel	11	Noviembre	2023-10-11T00:00:00	2024-11-08T05:00:00	6	Velocidad del viento	1.6
71330	7	Sololá	710	Panajachel	8	Panajachel	11	Noviembre	2023-10-11T00:00:00	2024-11-08T05:00:00	7	Dirección del viento	1.61
71331	7	Sololá	710	Panajachel	8	Panajachel	11	Noviembre	2023-10-11T00:00:00	2024-11-08T05:00:00	1	Precipitación	0
71332	7	Sololá	710	Panajachel	8	Panajachel	11	Noviembre	2023-10-11T00:00:00	2024-11-08T05:00:00	8	Radiación solar	0
71333	7	Sololá	710	Panajachel	8	Panajachel	11	Noviembre	2023-10-11T00:00:00	2024-11-08T06:00:00	2	Temperatura media	15.3
71334	7	Sololá	710	Panajachel	8	Panajachel	11	Noviembre	2023-10-11T00:00:00	2024-11-08T06:00:00	4	Temperatura máxima	15.9
71335	7	Sololá	710	Panajachel	8	Panajachel	11	Noviembre	2023-10-11T00:00:00	2024-11-08T06:00:00	3	Temperatura mínima	15.1
71336	7	Sololá	710	Panajachel	8	Panajachel	11	Noviembre	2023-10-11T00:00:00	2024-11-08T06:00:00	5	Humedad	78
71337	7	Sololá	710	Panajachel	8	Panajachel	11	Noviembre	2023-10-11T00:00:00	2024-11-08T06:00:00	6	Velocidad del viento	0
71338	7	Sololá	710	Panajachel	8	Panajachel	11	Noviembre	2023-10-11T00:00:00	2024-11-08T06:00:00	7	Dirección del viento	0
71339	7	Sololá	710	Panajachel	8	Panajachel	11	Noviembre	2023-10-11T00:00:00	2024-11-08T06:00:00	1	Precipitación	0
71340	7	Sololá	710	Panajachel	8	Panajachel	11	Noviembre	2023-10-11T00:00:00	2024-11-08T06:00:00	8	Radiación solar	0
71341	7	Sololá	710	Panajachel	8	Panajachel	11	Noviembre	2023-10-11T00:00:00	2024-11-08T07:00:00	2	Temperatura media	15.3
71342	7	Sololá	710	Panajachel	8	Panajachel	11	Noviembre	2023-10-11T00:00:00	2024-11-08T07:00:00	4	Temperatura máxima	15.4
71343	7	Sololá	710	Panajachel	8	Panajachel	11	Noviembre	2023-10-11T00:00:00	2024-11-08T07:00:00	3	Temperatura mínima	14.3
71344	7	Sololá	710	Panajachel	8	Panajachel	11	Noviembre	2023-10-11T00:00:00	2024-11-08T07:00:00	5	Humedad	72
71345	7	Sololá	710	Panajachel	8	Panajachel	11	Noviembre	2023-10-11T00:00:00	2024-11-08T07:00:00	6	Velocidad del viento	1.6
71346	7	Sololá	710	Panajachel	8	Panajachel	11	Noviembre	2023-10-11T00:00:00	2024-11-08T07:00:00	7	Dirección del viento	1.61
71347	7	Sololá	710	Panajachel	8	Panajachel	11	Noviembre	2023-10-11T00:00:00	2024-11-08T07:00:00	1	Precipitación	0
71348	7	Sololá	710	Panajachel	8	Panajachel	11	Noviembre	2023-10-11T00:00:00	2024-11-08T07:00:00	8	Radiación solar	32
71349	7	Sololá	710	Panajachel	8	Panajachel	11	Noviembre	2023-10-11T00:00:00	2024-11-08T08:00:00	2	Temperatura media	18.9
71350	7	Sololá	710	Panajachel	8	Panajachel	11	Noviembre	2023-10-11T00:00:00	2024-11-08T08:00:00	4	Temperatura máxima	18.9
71351	7	Sololá	710	Panajachel	8	Panajachel	11	Noviembre	2023-10-11T00:00:00	2024-11-08T08:00:00	3	Temperatura mínima	15.3
71352	7	Sololá	710	Panajachel	8	Panajachel	11	Noviembre	2023-10-11T00:00:00	2024-11-08T08:00:00	5	Humedad	68
71353	7	Sololá	710	Panajachel	8	Panajachel	11	Noviembre	2023-10-11T00:00:00	2024-11-08T08:00:00	6	Velocidad del viento	0
71354	7	Sololá	710	Panajachel	8	Panajachel	11	Noviembre	2023-10-11T00:00:00	2024-11-08T08:00:00	7	Dirección del viento	0
71355	7	Sololá	710	Panajachel	8	Panajachel	11	Noviembre	2023-10-11T00:00:00	2024-11-08T08:00:00	1	Precipitación	0
71356	7	Sololá	710	Panajachel	8	Panajachel	11	Noviembre	2023-10-11T00:00:00	2024-11-08T08:00:00	8	Radiación solar	264
71357	7	Sololá	710	Panajachel	8	Panajachel	11	Noviembre	2023-10-11T00:00:00	2024-11-08T09:00:00	2	Temperatura media	19.4
71358	7	Sololá	710	Panajachel	8	Panajachel	11	Noviembre	2023-10-11T00:00:00	2024-11-08T09:00:00	4	Temperatura máxima	20.3
71359	7	Sololá	710	Panajachel	8	Panajachel	11	Noviembre	2023-10-11T00:00:00	2024-11-08T09:00:00	3	Temperatura mínima	18.9
71360	7	Sololá	710	Panajachel	8	Panajachel	11	Noviembre	2023-10-11T00:00:00	2024-11-08T09:00:00	5	Humedad	77
71361	7	Sololá	710	Panajachel	8	Panajachel	11	Noviembre	2023-10-11T00:00:00	2024-11-08T09:00:00	6	Velocidad del viento	0
71362	7	Sololá	710	Panajachel	8	Panajachel	11	Noviembre	2023-10-11T00:00:00	2024-11-08T09:00:00	7	Dirección del viento	0
71363	7	Sololá	710	Panajachel	8	Panajachel	11	Noviembre	2023-10-11T00:00:00	2024-11-08T09:00:00	1	Precipitación	0
71364	7	Sololá	710	Panajachel	8	Panajachel	11	Noviembre	2023-10-11T00:00:00	2024-11-08T09:00:00	8	Radiación solar	480
71365	7	Sololá	710	Panajachel	8	Panajachel	11	Noviembre	2023-10-11T00:00:00	2024-11-08T10:00:00	2	Temperatura media	20.3
71366	7	Sololá	710	Panajachel	8	Panajachel	11	Noviembre	2023-10-11T00:00:00	2024-11-08T10:00:00	4	Temperatura máxima	20.9
71367	7	Sololá	710	Panajachel	8	Panajachel	11	Noviembre	2023-10-11T00:00:00	2024-11-08T10:00:00	3	Temperatura mínima	19.3
71368	7	Sololá	710	Panajachel	8	Panajachel	11	Noviembre	2023-10-11T00:00:00	2024-11-08T10:00:00	5	Humedad	76
71369	7	Sololá	710	Panajachel	8	Panajachel	11	Noviembre	2023-10-11T00:00:00	2024-11-08T10:00:00	6	Velocidad del viento	1.6
71370	7	Sololá	710	Panajachel	8	Panajachel	11	Noviembre	2023-10-11T00:00:00	2024-11-08T10:00:00	7	Dirección del viento	1.61
71371	7	Sololá	710	Panajachel	8	Panajachel	11	Noviembre	2023-10-11T00:00:00	2024-11-08T10:00:00	1	Precipitación	0
71372	7	Sololá	710	Panajachel	8	Panajachel	11	Noviembre	2023-10-11T00:00:00	2024-11-08T10:00:00	8	Radiación solar	651
71373	7	Sololá	710	Panajachel	8	Panajachel	11	Noviembre	2023-10-11T00:00:00	2024-11-08T11:00:00	2	Temperatura media	22.1
71374	7	Sololá	710	Panajachel	8	Panajachel	11	Noviembre	2023-10-11T00:00:00	2024-11-08T11:00:00	4	Temperatura máxima	22.1
71375	7	Sololá	710	Panajachel	8	Panajachel	11	Noviembre	2023-10-11T00:00:00	2024-11-08T11:00:00	3	Temperatura mínima	20.2
71376	7	Sololá	710	Panajachel	8	Panajachel	11	Noviembre	2023-10-11T00:00:00	2024-11-08T11:00:00	5	Humedad	68
71377	7	Sololá	710	Panajachel	8	Panajachel	11	Noviembre	2023-10-11T00:00:00	2024-11-08T11:00:00	6	Velocidad del viento	1.6
71378	7	Sololá	710	Panajachel	8	Panajachel	11	Noviembre	2023-10-11T00:00:00	2024-11-08T11:00:00	7	Dirección del viento	1.61
71379	7	Sololá	710	Panajachel	8	Panajachel	11	Noviembre	2023-10-11T00:00:00	2024-11-08T11:00:00	1	Precipitación	0
71380	7	Sololá	710	Panajachel	8	Panajachel	11	Noviembre	2023-10-11T00:00:00	2024-11-08T11:00:00	8	Radiación solar	768
71381	7	Sololá	710	Panajachel	8	Panajachel	11	Noviembre	2023-10-11T00:00:00	2024-11-08T12:00:00	2	Temperatura media	24.3
71382	7	Sololá	710	Panajachel	8	Panajachel	11	Noviembre	2023-10-11T00:00:00	2024-11-08T12:00:00	4	Temperatura máxima	24.3
71383	7	Sololá	710	Panajachel	8	Panajachel	11	Noviembre	2023-10-11T00:00:00	2024-11-08T12:00:00	3	Temperatura mínima	22.1
71384	7	Sololá	710	Panajachel	8	Panajachel	11	Noviembre	2023-10-11T00:00:00	2024-11-08T12:00:00	5	Humedad	53
71385	7	Sololá	710	Panajachel	8	Panajachel	11	Noviembre	2023-10-11T00:00:00	2024-11-08T12:00:00	6	Velocidad del viento	1.6
71386	7	Sololá	710	Panajachel	8	Panajachel	11	Noviembre	2023-10-11T00:00:00	2024-11-08T12:00:00	7	Dirección del viento	1.61
71387	7	Sololá	710	Panajachel	8	Panajachel	11	Noviembre	2023-10-11T00:00:00	2024-11-08T12:00:00	1	Precipitación	0
71388	7	Sololá	710	Panajachel	8	Panajachel	11	Noviembre	2023-10-11T00:00:00	2024-11-08T12:00:00	8	Radiación solar	826
71389	7	Sololá	710	Panajachel	8	Panajachel	11	Noviembre	2023-10-11T00:00:00	2024-11-08T13:00:00	2	Temperatura media	25.1
71390	7	Sololá	710	Panajachel	8	Panajachel	11	Noviembre	2023-10-11T00:00:00	2024-11-08T13:00:00	4	Temperatura máxima	25.3
71391	7	Sololá	710	Panajachel	8	Panajachel	11	Noviembre	2023-10-11T00:00:00	2024-11-08T13:00:00	3	Temperatura mínima	24.2
71392	7	Sololá	710	Panajachel	8	Panajachel	11	Noviembre	2023-10-11T00:00:00	2024-11-08T13:00:00	5	Humedad	66
71393	7	Sololá	710	Panajachel	8	Panajachel	11	Noviembre	2023-10-11T00:00:00	2024-11-08T13:00:00	6	Velocidad del viento	1.6
71394	7	Sololá	710	Panajachel	8	Panajachel	11	Noviembre	2023-10-11T00:00:00	2024-11-08T13:00:00	7	Dirección del viento	1.61
71395	7	Sololá	710	Panajachel	8	Panajachel	11	Noviembre	2023-10-11T00:00:00	2024-11-08T13:00:00	1	Precipitación	0
71396	7	Sololá	710	Panajachel	8	Panajachel	11	Noviembre	2023-10-11T00:00:00	2024-11-08T13:00:00	8	Radiación solar	806
71397	7	Sololá	710	Panajachel	8	Panajachel	11	Noviembre	2023-10-11T00:00:00	2024-11-08T14:00:00	2	Temperatura media	25.9
71398	7	Sololá	710	Panajachel	8	Panajachel	11	Noviembre	2023-10-11T00:00:00	2024-11-08T14:00:00	4	Temperatura máxima	26.3
71399	7	Sololá	710	Panajachel	8	Panajachel	11	Noviembre	2023-10-11T00:00:00	2024-11-08T14:00:00	3	Temperatura mínima	25.1
71400	7	Sololá	710	Panajachel	8	Panajachel	11	Noviembre	2023-10-11T00:00:00	2024-11-08T14:00:00	5	Humedad	65
71401	7	Sololá	710	Panajachel	8	Panajachel	11	Noviembre	2023-10-11T00:00:00	2024-11-08T14:00:00	6	Velocidad del viento	1.6
71402	7	Sololá	710	Panajachel	8	Panajachel	11	Noviembre	2023-10-11T00:00:00	2024-11-08T14:00:00	7	Dirección del viento	1.61
71403	7	Sololá	710	Panajachel	8	Panajachel	11	Noviembre	2023-10-11T00:00:00	2024-11-08T14:00:00	1	Precipitación	0
71404	7	Sololá	710	Panajachel	8	Panajachel	11	Noviembre	2023-10-11T00:00:00	2024-11-08T14:00:00	8	Radiación solar	721
71405	7	Sololá	710	Panajachel	8	Panajachel	11	Noviembre	2023-10-11T00:00:00	2024-11-08T15:00:00	2	Temperatura media	24.7
71406	7	Sololá	710	Panajachel	8	Panajachel	11	Noviembre	2023-10-11T00:00:00	2024-11-08T15:00:00	4	Temperatura máxima	26
71407	7	Sololá	710	Panajachel	8	Panajachel	11	Noviembre	2023-10-11T00:00:00	2024-11-08T15:00:00	3	Temperatura mínima	24.3
71408	7	Sololá	710	Panajachel	8	Panajachel	11	Noviembre	2023-10-11T00:00:00	2024-11-08T15:00:00	5	Humedad	74
71409	7	Sololá	710	Panajachel	8	Panajachel	11	Noviembre	2023-10-11T00:00:00	2024-11-08T15:00:00	6	Velocidad del viento	3.2
71410	7	Sololá	710	Panajachel	8	Panajachel	11	Noviembre	2023-10-11T00:00:00	2024-11-08T15:00:00	7	Dirección del viento	3.22
71411	7	Sololá	710	Panajachel	8	Panajachel	11	Noviembre	2023-10-11T00:00:00	2024-11-08T15:00:00	1	Precipitación	0
71412	7	Sololá	710	Panajachel	8	Panajachel	11	Noviembre	2023-10-11T00:00:00	2024-11-08T15:00:00	8	Radiación solar	571
71413	7	Sololá	710	Panajachel	8	Panajachel	11	Noviembre	2023-10-11T00:00:00	2024-11-08T16:00:00	2	Temperatura media	24.7
71414	7	Sololá	710	Panajachel	8	Panajachel	11	Noviembre	2023-10-11T00:00:00	2024-11-08T16:00:00	4	Temperatura máxima	25.1
71415	7	Sololá	710	Panajachel	8	Panajachel	11	Noviembre	2023-10-11T00:00:00	2024-11-08T16:00:00	3	Temperatura mínima	24.3
71416	7	Sololá	710	Panajachel	8	Panajachel	11	Noviembre	2023-10-11T00:00:00	2024-11-08T16:00:00	5	Humedad	76
71417	7	Sololá	710	Panajachel	8	Panajachel	11	Noviembre	2023-10-11T00:00:00	2024-11-08T16:00:00	6	Velocidad del viento	3.2
71418	7	Sololá	710	Panajachel	8	Panajachel	11	Noviembre	2023-10-11T00:00:00	2024-11-08T16:00:00	7	Dirección del viento	3.22
71419	7	Sololá	710	Panajachel	8	Panajachel	11	Noviembre	2023-10-11T00:00:00	2024-11-08T16:00:00	1	Precipitación	0
71420	7	Sololá	710	Panajachel	8	Panajachel	11	Noviembre	2023-10-11T00:00:00	2024-11-08T16:00:00	8	Radiación solar	380
71421	7	Sololá	710	Panajachel	8	Panajachel	11	Noviembre	2023-10-11T00:00:00	2024-11-08T17:00:00	2	Temperatura media	23.1
71422	7	Sololá	710	Panajachel	8	Panajachel	11	Noviembre	2023-10-11T00:00:00	2024-11-08T17:00:00	4	Temperatura máxima	24.7
71423	7	Sololá	710	Panajachel	8	Panajachel	11	Noviembre	2023-10-11T00:00:00	2024-11-08T17:00:00	3	Temperatura mínima	23.1
71424	7	Sololá	710	Panajachel	8	Panajachel	11	Noviembre	2023-10-11T00:00:00	2024-11-08T17:00:00	5	Humedad	83
71425	7	Sololá	710	Panajachel	8	Panajachel	11	Noviembre	2023-10-11T00:00:00	2024-11-08T17:00:00	6	Velocidad del viento	1.6
71426	7	Sololá	710	Panajachel	8	Panajachel	11	Noviembre	2023-10-11T00:00:00	2024-11-08T17:00:00	7	Dirección del viento	1.61
71427	7	Sololá	710	Panajachel	8	Panajachel	11	Noviembre	2023-10-11T00:00:00	2024-11-08T17:00:00	1	Precipitación	0
71428	7	Sololá	710	Panajachel	8	Panajachel	11	Noviembre	2023-10-11T00:00:00	2024-11-08T17:00:00	8	Radiación solar	170
71429	7	Sololá	710	Panajachel	8	Panajachel	11	Noviembre	2023-10-11T00:00:00	2024-11-08T18:00:00	2	Temperatura media	21.7
71430	7	Sololá	710	Panajachel	8	Panajachel	11	Noviembre	2023-10-11T00:00:00	2024-11-08T18:00:00	4	Temperatura máxima	23.1
71431	7	Sololá	710	Panajachel	8	Panajachel	11	Noviembre	2023-10-11T00:00:00	2024-11-08T18:00:00	3	Temperatura mínima	21.7
71432	7	Sololá	710	Panajachel	8	Panajachel	11	Noviembre	2023-10-11T00:00:00	2024-11-08T18:00:00	5	Humedad	86
71433	7	Sololá	710	Panajachel	8	Panajachel	11	Noviembre	2023-10-11T00:00:00	2024-11-08T18:00:00	6	Velocidad del viento	0
71434	7	Sololá	710	Panajachel	8	Panajachel	11	Noviembre	2023-10-11T00:00:00	2024-11-08T18:00:00	7	Dirección del viento	0
71435	7	Sololá	710	Panajachel	8	Panajachel	11	Noviembre	2023-10-11T00:00:00	2024-11-08T18:00:00	1	Precipitación	0
71436	7	Sololá	710	Panajachel	8	Panajachel	11	Noviembre	2023-10-11T00:00:00	2024-11-08T18:00:00	8	Radiación solar	13
71437	7	Sololá	710	Panajachel	8	Panajachel	11	Noviembre	2023-10-11T00:00:00	2024-11-08T19:00:00	2	Temperatura media	20
71438	7	Sololá	710	Panajachel	8	Panajachel	11	Noviembre	2023-10-11T00:00:00	2024-11-08T19:00:00	4	Temperatura máxima	21.7
71439	7	Sololá	710	Panajachel	8	Panajachel	11	Noviembre	2023-10-11T00:00:00	2024-11-08T19:00:00	3	Temperatura mínima	20
71440	7	Sololá	710	Panajachel	8	Panajachel	11	Noviembre	2023-10-11T00:00:00	2024-11-08T19:00:00	5	Humedad	81
71441	7	Sololá	710	Panajachel	8	Panajachel	11	Noviembre	2023-10-11T00:00:00	2024-11-08T19:00:00	6	Velocidad del viento	0
71442	7	Sololá	710	Panajachel	8	Panajachel	11	Noviembre	2023-10-11T00:00:00	2024-11-08T19:00:00	7	Dirección del viento	0
71443	7	Sololá	710	Panajachel	8	Panajachel	11	Noviembre	2023-10-11T00:00:00	2024-11-08T19:00:00	1	Precipitación	0
71444	7	Sololá	710	Panajachel	8	Panajachel	11	Noviembre	2023-10-11T00:00:00	2024-11-08T19:00:00	8	Radiación solar	0
71445	7	Sololá	710	Panajachel	8	Panajachel	11	Noviembre	2023-10-11T00:00:00	2024-11-08T20:00:00	2	Temperatura media	21.5
71446	7	Sololá	710	Panajachel	8	Panajachel	11	Noviembre	2023-10-11T00:00:00	2024-11-08T20:00:00	4	Temperatura máxima	22
71447	7	Sololá	710	Panajachel	8	Panajachel	11	Noviembre	2023-10-11T00:00:00	2024-11-08T20:00:00	3	Temperatura mínima	19.7
71448	7	Sololá	710	Panajachel	8	Panajachel	11	Noviembre	2023-10-11T00:00:00	2024-11-08T20:00:00	5	Humedad	74
71449	7	Sololá	710	Panajachel	8	Panajachel	11	Noviembre	2023-10-11T00:00:00	2024-11-08T20:00:00	6	Velocidad del viento	3.2
71450	7	Sololá	710	Panajachel	8	Panajachel	11	Noviembre	2023-10-11T00:00:00	2024-11-08T20:00:00	7	Dirección del viento	3.22
71451	7	Sololá	710	Panajachel	8	Panajachel	11	Noviembre	2023-10-11T00:00:00	2024-11-08T20:00:00	1	Precipitación	0
71452	7	Sololá	710	Panajachel	8	Panajachel	11	Noviembre	2023-10-11T00:00:00	2024-11-08T20:00:00	8	Radiación solar	0
71453	7	Sololá	710	Panajachel	8	Panajachel	11	Noviembre	2023-10-11T00:00:00	2024-11-08T21:00:00	2	Temperatura media	21.6
71454	7	Sololá	710	Panajachel	8	Panajachel	11	Noviembre	2023-10-11T00:00:00	2024-11-08T21:00:00	4	Temperatura máxima	21.8
71455	7	Sololá	710	Panajachel	8	Panajachel	11	Noviembre	2023-10-11T00:00:00	2024-11-08T21:00:00	3	Temperatura mínima	20.6
71456	7	Sololá	710	Panajachel	8	Panajachel	11	Noviembre	2023-10-11T00:00:00	2024-11-08T21:00:00	5	Humedad	74
71457	7	Sololá	710	Panajachel	8	Panajachel	11	Noviembre	2023-10-11T00:00:00	2024-11-08T21:00:00	6	Velocidad del viento	4.8
71458	7	Sololá	710	Panajachel	8	Panajachel	11	Noviembre	2023-10-11T00:00:00	2024-11-08T21:00:00	7	Dirección del viento	4.83
71459	7	Sololá	710	Panajachel	8	Panajachel	11	Noviembre	2023-10-11T00:00:00	2024-11-08T21:00:00	1	Precipitación	0
71460	7	Sololá	710	Panajachel	8	Panajachel	11	Noviembre	2023-10-11T00:00:00	2024-11-08T21:00:00	8	Radiación solar	0
71461	7	Sololá	710	Panajachel	8	Panajachel	11	Noviembre	2023-10-11T00:00:00	2024-11-08T22:00:00	2	Temperatura media	21.9
71462	7	Sololá	710	Panajachel	8	Panajachel	11	Noviembre	2023-10-11T00:00:00	2024-11-08T22:00:00	4	Temperatura máxima	21.9
71463	7	Sololá	710	Panajachel	8	Panajachel	11	Noviembre	2023-10-11T00:00:00	2024-11-08T22:00:00	3	Temperatura mínima	20.1
71464	7	Sololá	710	Panajachel	8	Panajachel	11	Noviembre	2023-10-11T00:00:00	2024-11-08T22:00:00	5	Humedad	73
71465	7	Sololá	710	Panajachel	8	Panajachel	11	Noviembre	2023-10-11T00:00:00	2024-11-08T22:00:00	6	Velocidad del viento	3.2
71466	7	Sololá	710	Panajachel	8	Panajachel	11	Noviembre	2023-10-11T00:00:00	2024-11-08T22:00:00	7	Dirección del viento	3.22
71467	7	Sololá	710	Panajachel	8	Panajachel	11	Noviembre	2023-10-11T00:00:00	2024-11-08T22:00:00	1	Precipitación	0
71468	7	Sololá	710	Panajachel	8	Panajachel	11	Noviembre	2023-10-11T00:00:00	2024-11-08T22:00:00	8	Radiación solar	0
71469	7	Sololá	710	Panajachel	8	Panajachel	11	Noviembre	2023-10-11T00:00:00	2024-11-08T23:00:00	2	Temperatura media	20.9
71470	7	Sololá	710	Panajachel	8	Panajachel	11	Noviembre	2023-10-11T00:00:00	2024-11-08T23:00:00	4	Temperatura máxima	21.9
71471	7	Sololá	710	Panajachel	8	Panajachel	11	Noviembre	2023-10-11T00:00:00	2024-11-08T23:00:00	3	Temperatura mínima	20.9
71472	7	Sololá	710	Panajachel	8	Panajachel	11	Noviembre	2023-10-11T00:00:00	2024-11-08T23:00:00	5	Humedad	76
71473	7	Sololá	710	Panajachel	8	Panajachel	11	Noviembre	2023-10-11T00:00:00	2024-11-08T23:00:00	6	Velocidad del viento	0
71474	7	Sololá	710	Panajachel	8	Panajachel	11	Noviembre	2023-10-11T00:00:00	2024-11-08T23:00:00	7	Dirección del viento	0
71475	7	Sololá	710	Panajachel	8	Panajachel	11	Noviembre	2023-10-11T00:00:00	2024-11-08T23:00:00	1	Precipitación	0
71476	7	Sololá	710	Panajachel	8	Panajachel	11	Noviembre	2023-10-11T00:00:00	2024-11-08T23:00:00	8	Radiación solar	0
71477	7	Sololá	710	Panajachel	8	Panajachel	11	Noviembre	2023-11-11T00:00:00	2024-11-08T00:00:00	2	Temperatura media	20.8
71478	7	Sololá	710	Panajachel	8	Panajachel	11	Noviembre	2023-11-11T00:00:00	2024-11-08T00:00:00	4	Temperatura máxima	21.1
71479	7	Sololá	710	Panajachel	8	Panajachel	11	Noviembre	2023-11-11T00:00:00	2024-11-08T00:00:00	3	Temperatura mínima	20.7
71480	7	Sololá	710	Panajachel	8	Panajachel	11	Noviembre	2023-11-11T00:00:00	2024-11-08T00:00:00	5	Humedad	76
71481	7	Sololá	710	Panajachel	8	Panajachel	11	Noviembre	2023-11-11T00:00:00	2024-11-08T00:00:00	6	Velocidad del viento	0
71482	7	Sololá	710	Panajachel	8	Panajachel	11	Noviembre	2023-11-11T00:00:00	2024-11-08T00:00:00	7	Dirección del viento	0
71483	7	Sololá	710	Panajachel	8	Panajachel	11	Noviembre	2023-11-11T00:00:00	2024-11-08T00:00:00	1	Precipitación	0
71484	7	Sololá	710	Panajachel	8	Panajachel	11	Noviembre	2023-11-11T00:00:00	2024-11-08T00:00:00	8	Radiación solar	0
71485	7	Sololá	710	Panajachel	8	Panajachel	11	Noviembre	2023-11-11T00:00:00	2024-11-08T01:00:00	2	Temperatura media	22.1
71486	7	Sololá	710	Panajachel	8	Panajachel	11	Noviembre	2023-11-11T00:00:00	2024-11-08T01:00:00	4	Temperatura máxima	22.1
71487	7	Sololá	710	Panajachel	8	Panajachel	11	Noviembre	2023-11-11T00:00:00	2024-11-08T01:00:00	3	Temperatura mínima	20.8
71488	7	Sololá	710	Panajachel	8	Panajachel	11	Noviembre	2023-11-11T00:00:00	2024-11-08T01:00:00	5	Humedad	71
71489	7	Sololá	710	Panajachel	8	Panajachel	11	Noviembre	2023-11-11T00:00:00	2024-11-08T01:00:00	6	Velocidad del viento	1.6
71490	7	Sololá	710	Panajachel	8	Panajachel	11	Noviembre	2023-11-11T00:00:00	2024-11-08T01:00:00	7	Dirección del viento	1.61
71491	7	Sololá	710	Panajachel	8	Panajachel	11	Noviembre	2023-11-11T00:00:00	2024-11-08T01:00:00	1	Precipitación	0
71492	7	Sololá	710	Panajachel	8	Panajachel	11	Noviembre	2023-11-11T00:00:00	2024-11-08T01:00:00	8	Radiación solar	0
71493	7	Sololá	710	Panajachel	8	Panajachel	11	Noviembre	2023-11-11T00:00:00	2024-11-08T02:00:00	2	Temperatura media	20.2
71494	7	Sololá	710	Panajachel	8	Panajachel	11	Noviembre	2023-11-11T00:00:00	2024-11-08T02:00:00	4	Temperatura máxima	22.1
71495	7	Sololá	710	Panajachel	8	Panajachel	11	Noviembre	2023-11-11T00:00:00	2024-11-08T02:00:00	3	Temperatura mínima	20.1
71496	7	Sololá	710	Panajachel	8	Panajachel	11	Noviembre	2023-11-11T00:00:00	2024-11-08T02:00:00	5	Humedad	78
71497	7	Sololá	710	Panajachel	8	Panajachel	11	Noviembre	2023-11-11T00:00:00	2024-11-08T02:00:00	6	Velocidad del viento	0
71498	7	Sololá	710	Panajachel	8	Panajachel	11	Noviembre	2023-11-11T00:00:00	2024-11-08T02:00:00	7	Dirección del viento	0
71499	7	Sololá	710	Panajachel	8	Panajachel	11	Noviembre	2023-11-11T00:00:00	2024-11-08T02:00:00	1	Precipitación	0
71500	7	Sololá	710	Panajachel	8	Panajachel	11	Noviembre	2023-11-11T00:00:00	2024-11-08T02:00:00	8	Radiación solar	0
71501	7	Sololá	710	Panajachel	8	Panajachel	11	Noviembre	2023-11-11T00:00:00	2024-11-08T03:00:00	2	Temperatura media	19.7
71502	7	Sololá	710	Panajachel	8	Panajachel	11	Noviembre	2023-11-11T00:00:00	2024-11-08T03:00:00	4	Temperatura máxima	20.3
71503	7	Sololá	710	Panajachel	8	Panajachel	11	Noviembre	2023-11-11T00:00:00	2024-11-08T03:00:00	3	Temperatura mínima	19.5
71504	7	Sololá	710	Panajachel	8	Panajachel	11	Noviembre	2023-11-11T00:00:00	2024-11-08T03:00:00	5	Humedad	79
71505	7	Sololá	710	Panajachel	8	Panajachel	11	Noviembre	2023-11-11T00:00:00	2024-11-08T03:00:00	6	Velocidad del viento	0
71506	7	Sololá	710	Panajachel	8	Panajachel	11	Noviembre	2023-11-11T00:00:00	2024-11-08T03:00:00	7	Dirección del viento	0
71507	7	Sololá	710	Panajachel	8	Panajachel	11	Noviembre	2023-11-11T00:00:00	2024-11-08T03:00:00	1	Precipitación	0
71508	7	Sololá	710	Panajachel	8	Panajachel	11	Noviembre	2023-11-11T00:00:00	2024-11-08T03:00:00	8	Radiación solar	0
71509	7	Sololá	710	Panajachel	8	Panajachel	11	Noviembre	2023-11-11T00:00:00	2024-11-08T04:00:00	2	Temperatura media	20.2
71510	7	Sololá	710	Panajachel	8	Panajachel	11	Noviembre	2023-11-11T00:00:00	2024-11-08T04:00:00	4	Temperatura máxima	20.4
71511	7	Sololá	710	Panajachel	8	Panajachel	11	Noviembre	2023-11-11T00:00:00	2024-11-08T04:00:00	3	Temperatura mínima	19.6
71512	7	Sololá	710	Panajachel	8	Panajachel	11	Noviembre	2023-11-11T00:00:00	2024-11-08T04:00:00	5	Humedad	77
71513	7	Sololá	710	Panajachel	8	Panajachel	11	Noviembre	2023-11-11T00:00:00	2024-11-08T04:00:00	6	Velocidad del viento	0
71514	7	Sololá	710	Panajachel	8	Panajachel	11	Noviembre	2023-11-11T00:00:00	2024-11-08T04:00:00	7	Dirección del viento	0
71515	7	Sololá	710	Panajachel	8	Panajachel	11	Noviembre	2023-11-11T00:00:00	2024-11-08T04:00:00	1	Precipitación	0
71516	7	Sololá	710	Panajachel	8	Panajachel	11	Noviembre	2023-11-11T00:00:00	2024-11-08T04:00:00	8	Radiación solar	0
71517	7	Sololá	710	Panajachel	8	Panajachel	11	Noviembre	2023-11-11T00:00:00	2024-11-08T05:00:00	2	Temperatura media	19.6
71518	7	Sololá	710	Panajachel	8	Panajachel	11	Noviembre	2023-11-11T00:00:00	2024-11-08T05:00:00	4	Temperatura máxima	20.3
71519	7	Sololá	710	Panajachel	8	Panajachel	11	Noviembre	2023-11-11T00:00:00	2024-11-08T05:00:00	3	Temperatura mínima	19.6
71520	7	Sololá	710	Panajachel	8	Panajachel	11	Noviembre	2023-11-11T00:00:00	2024-11-08T05:00:00	5	Humedad	79
71521	7	Sololá	710	Panajachel	8	Panajachel	11	Noviembre	2023-11-11T00:00:00	2024-11-08T05:00:00	6	Velocidad del viento	0
71522	7	Sololá	710	Panajachel	8	Panajachel	11	Noviembre	2023-11-11T00:00:00	2024-11-08T05:00:00	7	Dirección del viento	0
71523	7	Sololá	710	Panajachel	8	Panajachel	11	Noviembre	2023-11-11T00:00:00	2024-11-08T05:00:00	1	Precipitación	0
71524	7	Sololá	710	Panajachel	8	Panajachel	11	Noviembre	2023-11-11T00:00:00	2024-11-08T05:00:00	8	Radiación solar	0
71525	7	Sololá	710	Panajachel	8	Panajachel	11	Noviembre	2023-11-11T00:00:00	2024-11-08T06:00:00	2	Temperatura media	21.3
71526	7	Sololá	710	Panajachel	8	Panajachel	11	Noviembre	2023-11-11T00:00:00	2024-11-08T06:00:00	4	Temperatura máxima	21.3
71527	7	Sololá	710	Panajachel	8	Panajachel	11	Noviembre	2023-11-11T00:00:00	2024-11-08T06:00:00	3	Temperatura mínima	19.2
71528	7	Sololá	710	Panajachel	8	Panajachel	11	Noviembre	2023-11-11T00:00:00	2024-11-08T06:00:00	5	Humedad	73
71529	7	Sololá	710	Panajachel	8	Panajachel	11	Noviembre	2023-11-11T00:00:00	2024-11-08T06:00:00	6	Velocidad del viento	3.2
71530	7	Sololá	710	Panajachel	8	Panajachel	11	Noviembre	2023-11-11T00:00:00	2024-11-08T06:00:00	7	Dirección del viento	3.22
71531	7	Sololá	710	Panajachel	8	Panajachel	11	Noviembre	2023-11-11T00:00:00	2024-11-08T06:00:00	1	Precipitación	0
71532	7	Sololá	710	Panajachel	8	Panajachel	11	Noviembre	2023-11-11T00:00:00	2024-11-08T06:00:00	8	Radiación solar	0
71533	7	Sololá	710	Panajachel	8	Panajachel	11	Noviembre	2023-11-11T00:00:00	2024-11-08T07:00:00	2	Temperatura media	19.7
71534	7	Sololá	710	Panajachel	8	Panajachel	11	Noviembre	2023-11-11T00:00:00	2024-11-08T07:00:00	4	Temperatura máxima	21.3
71535	7	Sololá	710	Panajachel	8	Panajachel	11	Noviembre	2023-11-11T00:00:00	2024-11-08T07:00:00	3	Temperatura mínima	19.3
71536	7	Sololá	710	Panajachel	8	Panajachel	11	Noviembre	2023-11-11T00:00:00	2024-11-08T07:00:00	5	Humedad	80
71537	7	Sololá	710	Panajachel	8	Panajachel	11	Noviembre	2023-11-11T00:00:00	2024-11-08T07:00:00	6	Velocidad del viento	0
71538	7	Sololá	710	Panajachel	8	Panajachel	11	Noviembre	2023-11-11T00:00:00	2024-11-08T07:00:00	7	Dirección del viento	0
71539	7	Sololá	710	Panajachel	8	Panajachel	11	Noviembre	2023-11-11T00:00:00	2024-11-08T07:00:00	1	Precipitación	0
71540	7	Sololá	710	Panajachel	8	Panajachel	11	Noviembre	2023-11-11T00:00:00	2024-11-08T07:00:00	8	Radiación solar	28
71541	7	Sololá	710	Panajachel	8	Panajachel	11	Noviembre	2023-11-11T00:00:00	2024-11-08T08:00:00	2	Temperatura media	23.4
71542	7	Sololá	710	Panajachel	8	Panajachel	11	Noviembre	2023-11-11T00:00:00	2024-11-08T08:00:00	4	Temperatura máxima	23.4
71543	7	Sololá	710	Panajachel	8	Panajachel	11	Noviembre	2023-11-11T00:00:00	2024-11-08T08:00:00	3	Temperatura mínima	19.7
71544	7	Sololá	710	Panajachel	8	Panajachel	11	Noviembre	2023-11-11T00:00:00	2024-11-08T08:00:00	5	Humedad	66
71545	7	Sololá	710	Panajachel	8	Panajachel	11	Noviembre	2023-11-11T00:00:00	2024-11-08T08:00:00	6	Velocidad del viento	4.8
71546	7	Sololá	710	Panajachel	8	Panajachel	11	Noviembre	2023-11-11T00:00:00	2024-11-08T08:00:00	7	Dirección del viento	4.83
71547	7	Sololá	710	Panajachel	8	Panajachel	11	Noviembre	2023-11-11T00:00:00	2024-11-08T08:00:00	1	Precipitación	0
71548	7	Sololá	710	Panajachel	8	Panajachel	11	Noviembre	2023-11-11T00:00:00	2024-11-08T08:00:00	8	Radiación solar	262
71549	7	Sololá	710	Panajachel	8	Panajachel	11	Noviembre	2023-11-11T00:00:00	2024-11-08T09:00:00	2	Temperatura media	24.6
71550	7	Sololá	710	Panajachel	8	Panajachel	11	Noviembre	2023-11-11T00:00:00	2024-11-08T09:00:00	4	Temperatura máxima	24.8
71551	7	Sololá	710	Panajachel	8	Panajachel	11	Noviembre	2023-11-11T00:00:00	2024-11-08T09:00:00	3	Temperatura mínima	23.4
71552	7	Sololá	710	Panajachel	8	Panajachel	11	Noviembre	2023-11-11T00:00:00	2024-11-08T09:00:00	5	Humedad	63
71553	7	Sololá	710	Panajachel	8	Panajachel	11	Noviembre	2023-11-11T00:00:00	2024-11-08T09:00:00	6	Velocidad del viento	4.8
71554	7	Sololá	710	Panajachel	8	Panajachel	11	Noviembre	2023-11-11T00:00:00	2024-11-08T09:00:00	7	Dirección del viento	4.83
71555	7	Sololá	710	Panajachel	8	Panajachel	11	Noviembre	2023-11-11T00:00:00	2024-11-08T09:00:00	1	Precipitación	0
71556	7	Sololá	710	Panajachel	8	Panajachel	11	Noviembre	2023-11-11T00:00:00	2024-11-08T09:00:00	8	Radiación solar	477
71557	7	Sololá	710	Panajachel	8	Panajachel	11	Noviembre	2023-11-11T00:00:00	2024-11-08T10:00:00	2	Temperatura media	25.1
71558	7	Sololá	710	Panajachel	8	Panajachel	11	Noviembre	2023-11-11T00:00:00	2024-11-08T10:00:00	4	Temperatura máxima	25.1
71559	7	Sololá	710	Panajachel	8	Panajachel	11	Noviembre	2023-11-11T00:00:00	2024-11-08T10:00:00	3	Temperatura mínima	24.4
71560	7	Sololá	710	Panajachel	8	Panajachel	11	Noviembre	2023-11-11T00:00:00	2024-11-08T10:00:00	5	Humedad	63
71561	7	Sololá	710	Panajachel	8	Panajachel	11	Noviembre	2023-11-11T00:00:00	2024-11-08T10:00:00	6	Velocidad del viento	9.7
71562	7	Sololá	710	Panajachel	8	Panajachel	11	Noviembre	2023-11-11T00:00:00	2024-11-08T10:00:00	7	Dirección del viento	9.66
71563	7	Sololá	710	Panajachel	8	Panajachel	11	Noviembre	2023-11-11T00:00:00	2024-11-08T10:00:00	1	Precipitación	0
71564	7	Sololá	710	Panajachel	8	Panajachel	11	Noviembre	2023-11-11T00:00:00	2024-11-08T10:00:00	8	Radiación solar	574
71565	7	Sololá	710	Panajachel	8	Panajachel	11	Noviembre	2023-11-11T00:00:00	2024-11-08T11:00:00	2	Temperatura media	26.4
71566	7	Sololá	710	Panajachel	8	Panajachel	11	Noviembre	2023-11-11T00:00:00	2024-11-08T11:00:00	4	Temperatura máxima	26.4
71567	7	Sololá	710	Panajachel	8	Panajachel	11	Noviembre	2023-11-11T00:00:00	2024-11-08T11:00:00	3	Temperatura mínima	24.8
71568	7	Sololá	710	Panajachel	8	Panajachel	11	Noviembre	2023-11-11T00:00:00	2024-11-08T11:00:00	5	Humedad	58
71569	7	Sololá	710	Panajachel	8	Panajachel	11	Noviembre	2023-11-11T00:00:00	2024-11-08T11:00:00	6	Velocidad del viento	6.4
71570	7	Sololá	710	Panajachel	8	Panajachel	11	Noviembre	2023-11-11T00:00:00	2024-11-08T11:00:00	7	Dirección del viento	6.44
71571	7	Sololá	710	Panajachel	8	Panajachel	11	Noviembre	2023-11-11T00:00:00	2024-11-08T11:00:00	1	Precipitación	0
71572	7	Sololá	710	Panajachel	8	Panajachel	11	Noviembre	2023-11-11T00:00:00	2024-11-08T11:00:00	8	Radiación solar	703
71573	7	Sololá	710	Panajachel	8	Panajachel	11	Noviembre	2023-11-11T00:00:00	2024-11-08T12:00:00	2	Temperatura media	26.1
71574	7	Sololá	710	Panajachel	8	Panajachel	11	Noviembre	2023-11-11T00:00:00	2024-11-08T12:00:00	4	Temperatura máxima	27
71575	7	Sololá	710	Panajachel	8	Panajachel	11	Noviembre	2023-11-11T00:00:00	2024-11-08T12:00:00	3	Temperatura mínima	25.8
71576	7	Sololá	710	Panajachel	8	Panajachel	11	Noviembre	2023-11-11T00:00:00	2024-11-08T12:00:00	5	Humedad	60
71577	7	Sololá	710	Panajachel	8	Panajachel	11	Noviembre	2023-11-11T00:00:00	2024-11-08T12:00:00	6	Velocidad del viento	8
71578	7	Sololá	710	Panajachel	8	Panajachel	11	Noviembre	2023-11-11T00:00:00	2024-11-08T12:00:00	7	Dirección del viento	8.05
71579	7	Sololá	710	Panajachel	8	Panajachel	11	Noviembre	2023-11-11T00:00:00	2024-11-08T12:00:00	1	Precipitación	0
71580	7	Sololá	710	Panajachel	8	Panajachel	11	Noviembre	2023-11-11T00:00:00	2024-11-08T12:00:00	8	Radiación solar	676
71581	7	Sololá	710	Panajachel	8	Panajachel	11	Noviembre	2023-11-11T00:00:00	2024-11-08T13:00:00	2	Temperatura media	26.7
71582	7	Sololá	710	Panajachel	8	Panajachel	11	Noviembre	2023-11-11T00:00:00	2024-11-08T13:00:00	4	Temperatura máxima	26.9
71583	7	Sololá	710	Panajachel	8	Panajachel	11	Noviembre	2023-11-11T00:00:00	2024-11-08T13:00:00	3	Temperatura mínima	26.1
71584	7	Sololá	710	Panajachel	8	Panajachel	11	Noviembre	2023-11-11T00:00:00	2024-11-08T13:00:00	5	Humedad	56
71585	7	Sololá	710	Panajachel	8	Panajachel	11	Noviembre	2023-11-11T00:00:00	2024-11-08T13:00:00	6	Velocidad del viento	8
71586	7	Sololá	710	Panajachel	8	Panajachel	11	Noviembre	2023-11-11T00:00:00	2024-11-08T13:00:00	7	Dirección del viento	8.05
71587	7	Sololá	710	Panajachel	8	Panajachel	11	Noviembre	2023-11-11T00:00:00	2024-11-08T13:00:00	1	Precipitación	0
71588	7	Sololá	710	Panajachel	8	Panajachel	11	Noviembre	2023-11-11T00:00:00	2024-11-08T13:00:00	8	Radiación solar	783
71589	7	Sololá	710	Panajachel	8	Panajachel	11	Noviembre	2023-11-11T00:00:00	2024-11-08T14:00:00	2	Temperatura media	27.6
71590	7	Sololá	710	Panajachel	8	Panajachel	11	Noviembre	2023-11-11T00:00:00	2024-11-08T14:00:00	4	Temperatura máxima	27.7
71591	7	Sololá	710	Panajachel	8	Panajachel	11	Noviembre	2023-11-11T00:00:00	2024-11-08T14:00:00	3	Temperatura mínima	26.7
71592	7	Sololá	710	Panajachel	8	Panajachel	11	Noviembre	2023-11-11T00:00:00	2024-11-08T14:00:00	5	Humedad	52
71593	7	Sololá	710	Panajachel	8	Panajachel	11	Noviembre	2023-11-11T00:00:00	2024-11-08T14:00:00	6	Velocidad del viento	8
71594	7	Sololá	710	Panajachel	8	Panajachel	11	Noviembre	2023-11-11T00:00:00	2024-11-08T14:00:00	7	Dirección del viento	8.05
71595	7	Sololá	710	Panajachel	8	Panajachel	11	Noviembre	2023-11-11T00:00:00	2024-11-08T14:00:00	1	Precipitación	0
71596	7	Sololá	710	Panajachel	8	Panajachel	11	Noviembre	2023-11-11T00:00:00	2024-11-08T14:00:00	8	Radiación solar	785
71597	7	Sololá	710	Panajachel	8	Panajachel	11	Noviembre	2023-11-11T00:00:00	2024-11-08T15:00:00	2	Temperatura media	26.9
71598	7	Sololá	710	Panajachel	8	Panajachel	11	Noviembre	2023-11-11T00:00:00	2024-11-08T15:00:00	4	Temperatura máxima	27.8
71599	7	Sololá	710	Panajachel	8	Panajachel	11	Noviembre	2023-11-11T00:00:00	2024-11-08T15:00:00	3	Temperatura mínima	26.4
71600	7	Sololá	710	Panajachel	8	Panajachel	11	Noviembre	2023-11-11T00:00:00	2024-11-08T15:00:00	5	Humedad	56
71601	7	Sololá	710	Panajachel	8	Panajachel	11	Noviembre	2023-11-11T00:00:00	2024-11-08T15:00:00	6	Velocidad del viento	8
71602	7	Sololá	710	Panajachel	8	Panajachel	11	Noviembre	2023-11-11T00:00:00	2024-11-08T15:00:00	7	Dirección del viento	8.05
71603	7	Sololá	710	Panajachel	8	Panajachel	11	Noviembre	2023-11-11T00:00:00	2024-11-08T15:00:00	1	Precipitación	0
71604	7	Sololá	710	Panajachel	8	Panajachel	11	Noviembre	2023-11-11T00:00:00	2024-11-08T15:00:00	8	Radiación solar	529
71605	7	Sololá	710	Panajachel	8	Panajachel	11	Noviembre	2023-11-11T00:00:00	2024-11-08T16:00:00	2	Temperatura media	25.5
71606	7	Sololá	710	Panajachel	8	Panajachel	11	Noviembre	2023-11-11T00:00:00	2024-11-08T16:00:00	4	Temperatura máxima	27.4
71607	7	Sololá	710	Panajachel	8	Panajachel	11	Noviembre	2023-11-11T00:00:00	2024-11-08T16:00:00	3	Temperatura mínima	25.1
71608	7	Sololá	710	Panajachel	8	Panajachel	11	Noviembre	2023-11-11T00:00:00	2024-11-08T16:00:00	5	Humedad	62
71609	7	Sololá	710	Panajachel	8	Panajachel	11	Noviembre	2023-11-11T00:00:00	2024-11-08T16:00:00	6	Velocidad del viento	9.7
71610	7	Sololá	710	Panajachel	8	Panajachel	11	Noviembre	2023-11-11T00:00:00	2024-11-08T16:00:00	7	Dirección del viento	9.66
71611	7	Sololá	710	Panajachel	8	Panajachel	11	Noviembre	2023-11-11T00:00:00	2024-11-08T16:00:00	1	Precipitación	0
71612	7	Sololá	710	Panajachel	8	Panajachel	11	Noviembre	2023-11-11T00:00:00	2024-11-08T16:00:00	8	Radiación solar	334
71613	7	Sololá	710	Panajachel	8	Panajachel	11	Noviembre	2023-11-11T00:00:00	2024-11-08T17:00:00	2	Temperatura media	24.6
71614	7	Sololá	710	Panajachel	8	Panajachel	11	Noviembre	2023-11-11T00:00:00	2024-11-08T17:00:00	4	Temperatura máxima	25.6
71615	7	Sololá	710	Panajachel	8	Panajachel	11	Noviembre	2023-11-11T00:00:00	2024-11-08T17:00:00	3	Temperatura mínima	24.6
71616	7	Sololá	710	Panajachel	8	Panajachel	11	Noviembre	2023-11-11T00:00:00	2024-11-08T17:00:00	5	Humedad	63
71617	7	Sololá	710	Panajachel	8	Panajachel	11	Noviembre	2023-11-11T00:00:00	2024-11-08T17:00:00	6	Velocidad del viento	8
71618	7	Sololá	710	Panajachel	8	Panajachel	11	Noviembre	2023-11-11T00:00:00	2024-11-08T17:00:00	7	Dirección del viento	8.05
71619	7	Sololá	710	Panajachel	8	Panajachel	11	Noviembre	2023-11-11T00:00:00	2024-11-08T17:00:00	1	Precipitación	0
71620	7	Sololá	710	Panajachel	8	Panajachel	11	Noviembre	2023-11-11T00:00:00	2024-11-08T17:00:00	8	Radiación solar	117
71621	7	Sololá	710	Panajachel	8	Panajachel	11	Noviembre	2023-11-11T00:00:00	2024-11-08T18:00:00	2	Temperatura media	23.1
71622	7	Sololá	710	Panajachel	8	Panajachel	11	Noviembre	2023-11-11T00:00:00	2024-11-08T18:00:00	4	Temperatura máxima	24.6
71623	7	Sololá	710	Panajachel	8	Panajachel	11	Noviembre	2023-11-11T00:00:00	2024-11-08T18:00:00	3	Temperatura mínima	23.1
71624	7	Sololá	710	Panajachel	8	Panajachel	11	Noviembre	2023-11-11T00:00:00	2024-11-08T18:00:00	5	Humedad	68
71625	7	Sololá	710	Panajachel	8	Panajachel	11	Noviembre	2023-11-11T00:00:00	2024-11-08T18:00:00	6	Velocidad del viento	3.2
71626	7	Sololá	710	Panajachel	8	Panajachel	11	Noviembre	2023-11-11T00:00:00	2024-11-08T18:00:00	7	Dirección del viento	3.22
71627	7	Sololá	710	Panajachel	8	Panajachel	11	Noviembre	2023-11-11T00:00:00	2024-11-08T18:00:00	1	Precipitación	0
71628	7	Sololá	710	Panajachel	8	Panajachel	11	Noviembre	2023-11-11T00:00:00	2024-11-08T18:00:00	8	Radiación solar	10
71629	7	Sololá	710	Panajachel	8	Panajachel	11	Noviembre	2023-11-11T00:00:00	2024-11-08T19:00:00	2	Temperatura media	22.4
71630	7	Sololá	710	Panajachel	8	Panajachel	11	Noviembre	2023-11-11T00:00:00	2024-11-08T19:00:00	4	Temperatura máxima	23.1
71631	7	Sololá	710	Panajachel	8	Panajachel	11	Noviembre	2023-11-11T00:00:00	2024-11-08T19:00:00	3	Temperatura mínima	22.3
71632	7	Sololá	710	Panajachel	8	Panajachel	11	Noviembre	2023-11-11T00:00:00	2024-11-08T19:00:00	5	Humedad	70
71633	7	Sololá	710	Panajachel	8	Panajachel	11	Noviembre	2023-11-11T00:00:00	2024-11-08T19:00:00	6	Velocidad del viento	3.2
71634	7	Sololá	710	Panajachel	8	Panajachel	11	Noviembre	2023-11-11T00:00:00	2024-11-08T19:00:00	7	Dirección del viento	3.22
71635	7	Sololá	710	Panajachel	8	Panajachel	11	Noviembre	2023-11-11T00:00:00	2024-11-08T19:00:00	1	Precipitación	0
71636	7	Sololá	710	Panajachel	8	Panajachel	11	Noviembre	2023-11-11T00:00:00	2024-11-08T19:00:00	8	Radiación solar	0
71637	7	Sololá	710	Panajachel	8	Panajachel	11	Noviembre	2023-11-11T00:00:00	2024-11-08T20:00:00	2	Temperatura media	20.9
71638	7	Sololá	710	Panajachel	8	Panajachel	11	Noviembre	2023-11-11T00:00:00	2024-11-08T20:00:00	4	Temperatura máxima	22.4
71639	7	Sololá	710	Panajachel	8	Panajachel	11	Noviembre	2023-11-11T00:00:00	2024-11-08T20:00:00	3	Temperatura mínima	20.9
71640	7	Sololá	710	Panajachel	8	Panajachel	11	Noviembre	2023-11-11T00:00:00	2024-11-08T20:00:00	5	Humedad	76
71641	7	Sololá	710	Panajachel	8	Panajachel	11	Noviembre	2023-11-11T00:00:00	2024-11-08T20:00:00	6	Velocidad del viento	0
71642	7	Sololá	710	Panajachel	8	Panajachel	11	Noviembre	2023-11-11T00:00:00	2024-11-08T20:00:00	7	Dirección del viento	0
71643	7	Sololá	710	Panajachel	8	Panajachel	11	Noviembre	2023-11-11T00:00:00	2024-11-08T20:00:00	1	Precipitación	0
71644	7	Sololá	710	Panajachel	8	Panajachel	11	Noviembre	2023-11-11T00:00:00	2024-11-08T20:00:00	8	Radiación solar	0
71645	7	Sololá	710	Panajachel	8	Panajachel	11	Noviembre	2023-11-11T00:00:00	2024-11-08T21:00:00	2	Temperatura media	19.9
71646	7	Sololá	710	Panajachel	8	Panajachel	11	Noviembre	2023-11-11T00:00:00	2024-11-08T21:00:00	4	Temperatura máxima	20.9
71647	7	Sololá	710	Panajachel	8	Panajachel	11	Noviembre	2023-11-11T00:00:00	2024-11-08T21:00:00	3	Temperatura mínima	19.9
71648	7	Sololá	710	Panajachel	8	Panajachel	11	Noviembre	2023-11-11T00:00:00	2024-11-08T21:00:00	5	Humedad	79
71649	7	Sololá	710	Panajachel	8	Panajachel	11	Noviembre	2023-11-11T00:00:00	2024-11-08T21:00:00	6	Velocidad del viento	0
71650	7	Sololá	710	Panajachel	8	Panajachel	11	Noviembre	2023-11-11T00:00:00	2024-11-08T21:00:00	7	Dirección del viento	0
71651	7	Sololá	710	Panajachel	8	Panajachel	11	Noviembre	2023-11-11T00:00:00	2024-11-08T21:00:00	1	Precipitación	0
71652	7	Sololá	710	Panajachel	8	Panajachel	11	Noviembre	2023-11-11T00:00:00	2024-11-08T21:00:00	8	Radiación solar	0
71653	7	Sololá	710	Panajachel	8	Panajachel	11	Noviembre	2023-11-11T00:00:00	2024-11-08T22:00:00	2	Temperatura media	19.7
71654	7	Sololá	710	Panajachel	8	Panajachel	11	Noviembre	2023-11-11T00:00:00	2024-11-08T22:00:00	4	Temperatura máxima	19.9
71655	7	Sololá	710	Panajachel	8	Panajachel	11	Noviembre	2023-11-11T00:00:00	2024-11-08T22:00:00	3	Temperatura mínima	19.4
71656	7	Sololá	710	Panajachel	8	Panajachel	11	Noviembre	2023-11-11T00:00:00	2024-11-08T22:00:00	5	Humedad	80
71657	7	Sololá	710	Panajachel	8	Panajachel	11	Noviembre	2023-11-11T00:00:00	2024-11-08T22:00:00	6	Velocidad del viento	0
71658	7	Sololá	710	Panajachel	8	Panajachel	11	Noviembre	2023-11-11T00:00:00	2024-11-08T22:00:00	7	Dirección del viento	0
71659	7	Sololá	710	Panajachel	8	Panajachel	11	Noviembre	2023-11-11T00:00:00	2024-11-08T22:00:00	1	Precipitación	0
71660	7	Sololá	710	Panajachel	8	Panajachel	11	Noviembre	2023-11-11T00:00:00	2024-11-08T22:00:00	8	Radiación solar	0
71661	7	Sololá	710	Panajachel	8	Panajachel	11	Noviembre	2023-11-11T00:00:00	2024-11-08T23:00:00	2	Temperatura media	21.3
71662	7	Sololá	710	Panajachel	8	Panajachel	11	Noviembre	2023-11-11T00:00:00	2024-11-08T23:00:00	4	Temperatura máxima	21.4
71663	7	Sololá	710	Panajachel	8	Panajachel	11	Noviembre	2023-11-11T00:00:00	2024-11-08T23:00:00	3	Temperatura mínima	19.6
71664	7	Sololá	710	Panajachel	8	Panajachel	11	Noviembre	2023-11-11T00:00:00	2024-11-08T23:00:00	5	Humedad	74
71665	7	Sololá	710	Panajachel	8	Panajachel	11	Noviembre	2023-11-11T00:00:00	2024-11-08T23:00:00	6	Velocidad del viento	3.2
71666	7	Sololá	710	Panajachel	8	Panajachel	11	Noviembre	2023-11-11T00:00:00	2024-11-08T23:00:00	7	Dirección del viento	3.22
71667	7	Sololá	710	Panajachel	8	Panajachel	11	Noviembre	2023-11-11T00:00:00	2024-11-08T23:00:00	1	Precipitación	0
71668	7	Sololá	710	Panajachel	8	Panajachel	11	Noviembre	2023-11-11T00:00:00	2024-11-08T23:00:00	8	Radiación solar	0
71669	7	Sololá	710	Panajachel	8	Panajachel	11	Noviembre	2023-12-11T00:00:00	2024-11-08T00:00:00	2	Temperatura media	21.6
71670	7	Sololá	710	Panajachel	8	Panajachel	11	Noviembre	2023-12-11T00:00:00	2024-11-08T00:00:00	4	Temperatura máxima	21.6
71671	7	Sololá	710	Panajachel	8	Panajachel	11	Noviembre	2023-12-11T00:00:00	2024-11-08T00:00:00	3	Temperatura mínima	20.4
71672	7	Sololá	710	Panajachel	8	Panajachel	11	Noviembre	2023-12-11T00:00:00	2024-11-08T00:00:00	5	Humedad	74
71673	7	Sololá	710	Panajachel	8	Panajachel	11	Noviembre	2023-12-11T00:00:00	2024-11-08T00:00:00	6	Velocidad del viento	4.8
71674	7	Sololá	710	Panajachel	8	Panajachel	11	Noviembre	2023-12-11T00:00:00	2024-11-08T00:00:00	7	Dirección del viento	4.83
71675	7	Sololá	710	Panajachel	8	Panajachel	11	Noviembre	2023-12-11T00:00:00	2024-11-08T00:00:00	1	Precipitación	0
71676	7	Sololá	710	Panajachel	8	Panajachel	11	Noviembre	2023-12-11T00:00:00	2024-11-08T00:00:00	8	Radiación solar	0
71677	7	Sololá	710	Panajachel	8	Panajachel	11	Noviembre	2023-12-11T00:00:00	2024-11-08T01:00:00	2	Temperatura media	21.3
71678	7	Sololá	710	Panajachel	8	Panajachel	11	Noviembre	2023-12-11T00:00:00	2024-11-08T01:00:00	4	Temperatura máxima	21.7
71679	7	Sololá	710	Panajachel	8	Panajachel	11	Noviembre	2023-12-11T00:00:00	2024-11-08T01:00:00	3	Temperatura mínima	20.9
71680	7	Sololá	710	Panajachel	8	Panajachel	11	Noviembre	2023-12-11T00:00:00	2024-11-08T01:00:00	5	Humedad	75
71681	7	Sololá	710	Panajachel	8	Panajachel	11	Noviembre	2023-12-11T00:00:00	2024-11-08T01:00:00	6	Velocidad del viento	6.4
71682	7	Sololá	710	Panajachel	8	Panajachel	11	Noviembre	2023-12-11T00:00:00	2024-11-08T01:00:00	7	Dirección del viento	6.44
71683	7	Sololá	710	Panajachel	8	Panajachel	11	Noviembre	2023-12-11T00:00:00	2024-11-08T01:00:00	1	Precipitación	0
71684	7	Sololá	710	Panajachel	8	Panajachel	11	Noviembre	2023-12-11T00:00:00	2024-11-08T01:00:00	8	Radiación solar	0
71685	7	Sololá	710	Panajachel	8	Panajachel	11	Noviembre	2023-12-11T00:00:00	2024-11-08T02:00:00	2	Temperatura media	21.1
71686	7	Sololá	710	Panajachel	8	Panajachel	11	Noviembre	2023-12-11T00:00:00	2024-11-08T02:00:00	4	Temperatura máxima	21.4
71687	7	Sololá	710	Panajachel	8	Panajachel	11	Noviembre	2023-12-11T00:00:00	2024-11-08T02:00:00	3	Temperatura mínima	20.7
71688	7	Sololá	710	Panajachel	8	Panajachel	11	Noviembre	2023-12-11T00:00:00	2024-11-08T02:00:00	5	Humedad	75
71689	7	Sololá	710	Panajachel	8	Panajachel	11	Noviembre	2023-12-11T00:00:00	2024-11-08T02:00:00	6	Velocidad del viento	1.6
71690	7	Sololá	710	Panajachel	8	Panajachel	11	Noviembre	2023-12-11T00:00:00	2024-11-08T02:00:00	7	Dirección del viento	1.61
71691	7	Sololá	710	Panajachel	8	Panajachel	11	Noviembre	2023-12-11T00:00:00	2024-11-08T02:00:00	1	Precipitación	0
71692	7	Sololá	710	Panajachel	8	Panajachel	11	Noviembre	2023-12-11T00:00:00	2024-11-08T02:00:00	8	Radiación solar	0
71693	7	Sololá	710	Panajachel	8	Panajachel	11	Noviembre	2023-12-11T00:00:00	2024-11-08T03:00:00	2	Temperatura media	21.5
71694	7	Sololá	710	Panajachel	8	Panajachel	11	Noviembre	2023-12-11T00:00:00	2024-11-08T03:00:00	4	Temperatura máxima	21.5
71695	7	Sololá	710	Panajachel	8	Panajachel	11	Noviembre	2023-12-11T00:00:00	2024-11-08T03:00:00	3	Temperatura mínima	21.1
71696	7	Sololá	710	Panajachel	8	Panajachel	11	Noviembre	2023-12-11T00:00:00	2024-11-08T03:00:00	5	Humedad	73
71697	7	Sololá	710	Panajachel	8	Panajachel	11	Noviembre	2023-12-11T00:00:00	2024-11-08T03:00:00	6	Velocidad del viento	4.8
71698	7	Sololá	710	Panajachel	8	Panajachel	11	Noviembre	2023-12-11T00:00:00	2024-11-08T03:00:00	7	Dirección del viento	4.83
71699	7	Sololá	710	Panajachel	8	Panajachel	11	Noviembre	2023-12-11T00:00:00	2024-11-08T03:00:00	1	Precipitación	0
71700	7	Sololá	710	Panajachel	8	Panajachel	11	Noviembre	2023-12-11T00:00:00	2024-11-08T03:00:00	8	Radiación solar	0
71701	7	Sololá	710	Panajachel	8	Panajachel	11	Noviembre	2023-12-11T00:00:00	2024-11-08T04:00:00	2	Temperatura media	21.6
71702	7	Sololá	710	Panajachel	8	Panajachel	11	Noviembre	2023-12-11T00:00:00	2024-11-08T04:00:00	4	Temperatura máxima	21.7
71703	7	Sololá	710	Panajachel	8	Panajachel	11	Noviembre	2023-12-11T00:00:00	2024-11-08T04:00:00	3	Temperatura mínima	21.4
71704	7	Sololá	710	Panajachel	8	Panajachel	11	Noviembre	2023-12-11T00:00:00	2024-11-08T04:00:00	5	Humedad	73
71705	7	Sololá	710	Panajachel	8	Panajachel	11	Noviembre	2023-12-11T00:00:00	2024-11-08T04:00:00	6	Velocidad del viento	8
71706	7	Sololá	710	Panajachel	8	Panajachel	11	Noviembre	2023-12-11T00:00:00	2024-11-08T04:00:00	7	Dirección del viento	8.05
71707	7	Sololá	710	Panajachel	8	Panajachel	11	Noviembre	2023-12-11T00:00:00	2024-11-08T04:00:00	1	Precipitación	0
71708	7	Sololá	710	Panajachel	8	Panajachel	11	Noviembre	2023-12-11T00:00:00	2024-11-08T04:00:00	8	Radiación solar	0
71709	7	Sololá	710	Panajachel	8	Panajachel	11	Noviembre	2023-12-11T00:00:00	2024-11-08T05:00:00	2	Temperatura media	21.3
71710	7	Sololá	710	Panajachel	8	Panajachel	11	Noviembre	2023-12-11T00:00:00	2024-11-08T05:00:00	4	Temperatura máxima	21.6
71711	7	Sololá	710	Panajachel	8	Panajachel	11	Noviembre	2023-12-11T00:00:00	2024-11-08T05:00:00	3	Temperatura mínima	20.7
71712	7	Sololá	710	Panajachel	8	Panajachel	11	Noviembre	2023-12-11T00:00:00	2024-11-08T05:00:00	5	Humedad	74
71713	7	Sololá	710	Panajachel	8	Panajachel	11	Noviembre	2023-12-11T00:00:00	2024-11-08T05:00:00	6	Velocidad del viento	4.8
71714	7	Sololá	710	Panajachel	8	Panajachel	11	Noviembre	2023-12-11T00:00:00	2024-11-08T05:00:00	7	Dirección del viento	4.83
71715	7	Sololá	710	Panajachel	8	Panajachel	11	Noviembre	2023-12-11T00:00:00	2024-11-08T05:00:00	1	Precipitación	0
71716	7	Sololá	710	Panajachel	8	Panajachel	11	Noviembre	2023-12-11T00:00:00	2024-11-08T05:00:00	8	Radiación solar	0
71717	7	Sololá	710	Panajachel	8	Panajachel	11	Noviembre	2023-12-11T00:00:00	2024-11-08T06:00:00	2	Temperatura media	20.9
71718	7	Sololá	710	Panajachel	8	Panajachel	11	Noviembre	2023-12-11T00:00:00	2024-11-08T06:00:00	4	Temperatura máxima	21.3
71719	7	Sololá	710	Panajachel	8	Panajachel	11	Noviembre	2023-12-11T00:00:00	2024-11-08T06:00:00	3	Temperatura mínima	20.9
71720	7	Sololá	710	Panajachel	8	Panajachel	11	Noviembre	2023-12-11T00:00:00	2024-11-08T06:00:00	5	Humedad	73
71721	7	Sololá	710	Panajachel	8	Panajachel	11	Noviembre	2023-12-11T00:00:00	2024-11-08T06:00:00	6	Velocidad del viento	6.4
71722	7	Sololá	710	Panajachel	8	Panajachel	11	Noviembre	2023-12-11T00:00:00	2024-11-08T06:00:00	7	Dirección del viento	6.44
71723	7	Sololá	710	Panajachel	8	Panajachel	11	Noviembre	2023-12-11T00:00:00	2024-11-08T06:00:00	1	Precipitación	0
71724	7	Sololá	710	Panajachel	8	Panajachel	11	Noviembre	2023-12-11T00:00:00	2024-11-08T06:00:00	8	Radiación solar	0
71725	7	Sololá	710	Panajachel	8	Panajachel	11	Noviembre	2023-12-11T00:00:00	2024-11-08T07:00:00	2	Temperatura media	20
71726	7	Sololá	710	Panajachel	8	Panajachel	11	Noviembre	2023-12-11T00:00:00	2024-11-08T07:00:00	4	Temperatura máxima	21
71727	7	Sololá	710	Panajachel	8	Panajachel	11	Noviembre	2023-12-11T00:00:00	2024-11-08T07:00:00	3	Temperatura mínima	19.4
71728	7	Sololá	710	Panajachel	8	Panajachel	11	Noviembre	2023-12-11T00:00:00	2024-11-08T07:00:00	5	Humedad	78
71729	7	Sololá	710	Panajachel	8	Panajachel	11	Noviembre	2023-12-11T00:00:00	2024-11-08T07:00:00	6	Velocidad del viento	0
71730	7	Sololá	710	Panajachel	8	Panajachel	11	Noviembre	2023-12-11T00:00:00	2024-11-08T07:00:00	7	Dirección del viento	0
71731	7	Sololá	710	Panajachel	8	Panajachel	11	Noviembre	2023-12-11T00:00:00	2024-11-08T07:00:00	1	Precipitación	0
71732	7	Sololá	710	Panajachel	8	Panajachel	11	Noviembre	2023-12-11T00:00:00	2024-11-08T07:00:00	8	Radiación solar	31
71733	7	Sololá	710	Panajachel	8	Panajachel	11	Noviembre	2023-12-11T00:00:00	2024-11-08T08:00:00	2	Temperatura media	23
71734	7	Sololá	710	Panajachel	8	Panajachel	11	Noviembre	2023-12-11T00:00:00	2024-11-08T08:00:00	4	Temperatura máxima	23
71735	7	Sololá	710	Panajachel	8	Panajachel	11	Noviembre	2023-12-11T00:00:00	2024-11-08T08:00:00	3	Temperatura mínima	20
71736	7	Sololá	710	Panajachel	8	Panajachel	11	Noviembre	2023-12-11T00:00:00	2024-11-08T08:00:00	5	Humedad	68
71737	7	Sololá	710	Panajachel	8	Panajachel	11	Noviembre	2023-12-11T00:00:00	2024-11-08T08:00:00	6	Velocidad del viento	1.6
71738	7	Sololá	710	Panajachel	8	Panajachel	11	Noviembre	2023-12-11T00:00:00	2024-11-08T08:00:00	7	Dirección del viento	1.61
71739	7	Sololá	710	Panajachel	8	Panajachel	11	Noviembre	2023-12-11T00:00:00	2024-11-08T08:00:00	1	Precipitación	0
71740	7	Sololá	710	Panajachel	8	Panajachel	11	Noviembre	2023-12-11T00:00:00	2024-11-08T08:00:00	8	Radiación solar	191
71741	7	Sololá	710	Panajachel	8	Panajachel	11	Noviembre	2023-12-11T00:00:00	2024-11-08T09:00:00	2	Temperatura media	23.5
71742	7	Sololá	710	Panajachel	8	Panajachel	11	Noviembre	2023-12-11T00:00:00	2024-11-08T09:00:00	4	Temperatura máxima	24.1
71743	7	Sololá	710	Panajachel	8	Panajachel	11	Noviembre	2023-12-11T00:00:00	2024-11-08T09:00:00	3	Temperatura mínima	22.9
71744	7	Sololá	710	Panajachel	8	Panajachel	11	Noviembre	2023-12-11T00:00:00	2024-11-08T09:00:00	5	Humedad	63
71745	7	Sololá	710	Panajachel	8	Panajachel	11	Noviembre	2023-12-11T00:00:00	2024-11-08T09:00:00	6	Velocidad del viento	4.8
71746	7	Sololá	710	Panajachel	8	Panajachel	11	Noviembre	2023-12-11T00:00:00	2024-11-08T09:00:00	7	Dirección del viento	4.83
71747	7	Sololá	710	Panajachel	8	Panajachel	11	Noviembre	2023-12-11T00:00:00	2024-11-08T09:00:00	1	Precipitación	0
71748	7	Sololá	710	Panajachel	8	Panajachel	11	Noviembre	2023-12-11T00:00:00	2024-11-08T09:00:00	8	Radiación solar	363
71749	7	Sololá	710	Panajachel	8	Panajachel	11	Noviembre	2023-12-11T00:00:00	2024-11-08T10:00:00	2	Temperatura media	24.1
71750	7	Sololá	710	Panajachel	8	Panajachel	11	Noviembre	2023-12-11T00:00:00	2024-11-08T10:00:00	4	Temperatura máxima	24.4
71751	7	Sololá	710	Panajachel	8	Panajachel	11	Noviembre	2023-12-11T00:00:00	2024-11-08T10:00:00	3	Temperatura mínima	23.5
71752	7	Sololá	710	Panajachel	8	Panajachel	11	Noviembre	2023-12-11T00:00:00	2024-11-08T10:00:00	5	Humedad	62
71753	7	Sololá	710	Panajachel	8	Panajachel	11	Noviembre	2023-12-11T00:00:00	2024-11-08T10:00:00	6	Velocidad del viento	8
71754	7	Sololá	710	Panajachel	8	Panajachel	11	Noviembre	2023-12-11T00:00:00	2024-11-08T10:00:00	7	Dirección del viento	8.05
71755	7	Sololá	710	Panajachel	8	Panajachel	11	Noviembre	2023-12-11T00:00:00	2024-11-08T10:00:00	1	Precipitación	0
71756	7	Sololá	710	Panajachel	8	Panajachel	11	Noviembre	2023-12-11T00:00:00	2024-11-08T10:00:00	8	Radiación solar	305
71757	7	Sololá	710	Panajachel	8	Panajachel	11	Noviembre	2023-12-11T00:00:00	2024-11-08T11:00:00	2	Temperatura media	24.6
71758	7	Sololá	710	Panajachel	8	Panajachel	11	Noviembre	2023-12-11T00:00:00	2024-11-08T11:00:00	4	Temperatura máxima	25.3
71759	7	Sololá	710	Panajachel	8	Panajachel	11	Noviembre	2023-12-11T00:00:00	2024-11-08T11:00:00	3	Temperatura mínima	24.2
71760	7	Sololá	710	Panajachel	8	Panajachel	11	Noviembre	2023-12-11T00:00:00	2024-11-08T11:00:00	5	Humedad	60
71761	7	Sololá	710	Panajachel	8	Panajachel	11	Noviembre	2023-12-11T00:00:00	2024-11-08T11:00:00	6	Velocidad del viento	4.8
71762	7	Sololá	710	Panajachel	8	Panajachel	11	Noviembre	2023-12-11T00:00:00	2024-11-08T11:00:00	7	Dirección del viento	4.83
71763	7	Sololá	710	Panajachel	8	Panajachel	11	Noviembre	2023-12-11T00:00:00	2024-11-08T11:00:00	1	Precipitación	0
71764	7	Sololá	710	Panajachel	8	Panajachel	11	Noviembre	2023-12-11T00:00:00	2024-11-08T11:00:00	8	Radiación solar	247
71765	7	Sololá	710	Panajachel	8	Panajachel	11	Noviembre	2023-12-11T00:00:00	2024-11-08T12:00:00	2	Temperatura media	26.7
71766	7	Sololá	710	Panajachel	8	Panajachel	11	Noviembre	2023-12-11T00:00:00	2024-11-08T12:00:00	4	Temperatura máxima	26.7
71767	7	Sololá	710	Panajachel	8	Panajachel	11	Noviembre	2023-12-11T00:00:00	2024-11-08T12:00:00	3	Temperatura mínima	24.6
71768	7	Sololá	710	Panajachel	8	Panajachel	11	Noviembre	2023-12-11T00:00:00	2024-11-08T12:00:00	5	Humedad	53
71769	7	Sololá	710	Panajachel	8	Panajachel	11	Noviembre	2023-12-11T00:00:00	2024-11-08T12:00:00	6	Velocidad del viento	8
71770	7	Sololá	710	Panajachel	8	Panajachel	11	Noviembre	2023-12-11T00:00:00	2024-11-08T12:00:00	7	Dirección del viento	8.05
71771	7	Sololá	710	Panajachel	8	Panajachel	11	Noviembre	2023-12-11T00:00:00	2024-11-08T12:00:00	1	Precipitación	0
71772	7	Sololá	710	Panajachel	8	Panajachel	11	Noviembre	2023-12-11T00:00:00	2024-11-08T12:00:00	8	Radiación solar	639
71773	7	Sololá	710	Panajachel	8	Panajachel	11	Noviembre	2023-12-11T00:00:00	2024-11-08T13:00:00	2	Temperatura media	26.4
71774	7	Sololá	710	Panajachel	8	Panajachel	11	Noviembre	2023-12-11T00:00:00	2024-11-08T13:00:00	4	Temperatura máxima	27.2
71775	7	Sololá	710	Panajachel	8	Panajachel	11	Noviembre	2023-12-11T00:00:00	2024-11-08T13:00:00	3	Temperatura mínima	26.2
71776	7	Sololá	710	Panajachel	8	Panajachel	11	Noviembre	2023-12-11T00:00:00	2024-11-08T13:00:00	5	Humedad	52
71777	7	Sololá	710	Panajachel	8	Panajachel	11	Noviembre	2023-12-11T00:00:00	2024-11-08T13:00:00	6	Velocidad del viento	8
71778	7	Sololá	710	Panajachel	8	Panajachel	11	Noviembre	2023-12-11T00:00:00	2024-11-08T13:00:00	7	Dirección del viento	8.05
71779	7	Sololá	710	Panajachel	8	Panajachel	11	Noviembre	2023-12-11T00:00:00	2024-11-08T13:00:00	1	Precipitación	0
71780	7	Sololá	710	Panajachel	8	Panajachel	11	Noviembre	2023-12-11T00:00:00	2024-11-08T13:00:00	8	Radiación solar	844
71781	7	Sololá	710	Panajachel	8	Panajachel	11	Noviembre	2023-12-11T00:00:00	2024-11-08T14:00:00	2	Temperatura media	26.7
71782	7	Sololá	710	Panajachel	8	Panajachel	11	Noviembre	2023-12-11T00:00:00	2024-11-08T14:00:00	4	Temperatura máxima	27.6
71783	7	Sololá	710	Panajachel	8	Panajachel	11	Noviembre	2023-12-11T00:00:00	2024-11-08T14:00:00	3	Temperatura mínima	26.2
71784	7	Sololá	710	Panajachel	8	Panajachel	11	Noviembre	2023-12-11T00:00:00	2024-11-08T14:00:00	5	Humedad	50
71785	7	Sololá	710	Panajachel	8	Panajachel	11	Noviembre	2023-12-11T00:00:00	2024-11-08T14:00:00	6	Velocidad del viento	8
71786	7	Sololá	710	Panajachel	8	Panajachel	11	Noviembre	2023-12-11T00:00:00	2024-11-08T14:00:00	7	Dirección del viento	8.05
71787	7	Sololá	710	Panajachel	8	Panajachel	11	Noviembre	2023-12-11T00:00:00	2024-11-08T14:00:00	1	Precipitación	0
71788	7	Sololá	710	Panajachel	8	Panajachel	11	Noviembre	2023-12-11T00:00:00	2024-11-08T14:00:00	8	Radiación solar	660
71789	7	Sololá	710	Panajachel	8	Panajachel	11	Noviembre	2023-12-11T00:00:00	2024-11-08T15:00:00	2	Temperatura media	25.9
71790	7	Sololá	710	Panajachel	8	Panajachel	11	Noviembre	2023-12-11T00:00:00	2024-11-08T15:00:00	4	Temperatura máxima	27.1
71791	7	Sololá	710	Panajachel	8	Panajachel	11	Noviembre	2023-12-11T00:00:00	2024-11-08T15:00:00	3	Temperatura mínima	25.9
71792	7	Sololá	710	Panajachel	8	Panajachel	11	Noviembre	2023-12-11T00:00:00	2024-11-08T15:00:00	5	Humedad	54
71793	7	Sololá	710	Panajachel	8	Panajachel	11	Noviembre	2023-12-11T00:00:00	2024-11-08T15:00:00	6	Velocidad del viento	6.4
71794	7	Sololá	710	Panajachel	8	Panajachel	11	Noviembre	2023-12-11T00:00:00	2024-11-08T15:00:00	7	Dirección del viento	6.44
71795	7	Sololá	710	Panajachel	8	Panajachel	11	Noviembre	2023-12-11T00:00:00	2024-11-08T15:00:00	1	Precipitación	0
71796	7	Sololá	710	Panajachel	8	Panajachel	11	Noviembre	2023-12-11T00:00:00	2024-11-08T15:00:00	8	Radiación solar	366
71797	7	Sololá	710	Panajachel	8	Panajachel	11	Noviembre	2023-12-11T00:00:00	2024-11-08T16:00:00	2	Temperatura media	24.9
71798	7	Sololá	710	Panajachel	8	Panajachel	11	Noviembre	2023-12-11T00:00:00	2024-11-08T16:00:00	4	Temperatura máxima	27.1
71799	7	Sololá	710	Panajachel	8	Panajachel	11	Noviembre	2023-12-11T00:00:00	2024-11-08T16:00:00	3	Temperatura mínima	24.9
71800	7	Sololá	710	Panajachel	8	Panajachel	11	Noviembre	2023-12-11T00:00:00	2024-11-08T16:00:00	5	Humedad	61
71801	7	Sololá	710	Panajachel	8	Panajachel	11	Noviembre	2023-12-11T00:00:00	2024-11-08T16:00:00	6	Velocidad del viento	8
71802	7	Sololá	710	Panajachel	8	Panajachel	11	Noviembre	2023-12-11T00:00:00	2024-11-08T16:00:00	7	Dirección del viento	8.05
71803	7	Sololá	710	Panajachel	8	Panajachel	11	Noviembre	2023-12-11T00:00:00	2024-11-08T16:00:00	1	Precipitación	0
71804	7	Sololá	710	Panajachel	8	Panajachel	11	Noviembre	2023-12-11T00:00:00	2024-11-08T16:00:00	8	Radiación solar	353
71805	7	Sololá	710	Panajachel	8	Panajachel	11	Noviembre	2023-12-11T00:00:00	2024-11-08T17:00:00	2	Temperatura media	24.6
71806	7	Sololá	710	Panajachel	8	Panajachel	11	Noviembre	2023-12-11T00:00:00	2024-11-08T17:00:00	4	Temperatura máxima	25.3
71807	7	Sololá	710	Panajachel	8	Panajachel	11	Noviembre	2023-12-11T00:00:00	2024-11-08T17:00:00	3	Temperatura mínima	24.6
71808	7	Sololá	710	Panajachel	8	Panajachel	11	Noviembre	2023-12-11T00:00:00	2024-11-08T17:00:00	5	Humedad	57
71809	7	Sololá	710	Panajachel	8	Panajachel	11	Noviembre	2023-12-11T00:00:00	2024-11-08T17:00:00	6	Velocidad del viento	8
71810	7	Sololá	710	Panajachel	8	Panajachel	11	Noviembre	2023-12-11T00:00:00	2024-11-08T17:00:00	7	Dirección del viento	8.05
71811	7	Sololá	710	Panajachel	8	Panajachel	11	Noviembre	2023-12-11T00:00:00	2024-11-08T17:00:00	1	Precipitación	0
71812	7	Sololá	710	Panajachel	8	Panajachel	11	Noviembre	2023-12-11T00:00:00	2024-11-08T17:00:00	8	Radiación solar	173
71813	7	Sololá	710	Panajachel	8	Panajachel	11	Noviembre	2023-12-11T00:00:00	2024-11-08T18:00:00	2	Temperatura media	22.8
71814	7	Sololá	710	Panajachel	8	Panajachel	11	Noviembre	2023-12-11T00:00:00	2024-11-08T18:00:00	4	Temperatura máxima	24.6
71815	7	Sololá	710	Panajachel	8	Panajachel	11	Noviembre	2023-12-11T00:00:00	2024-11-08T18:00:00	3	Temperatura mínima	22.8
71816	7	Sololá	710	Panajachel	8	Panajachel	11	Noviembre	2023-12-11T00:00:00	2024-11-08T18:00:00	5	Humedad	66
71817	7	Sololá	710	Panajachel	8	Panajachel	11	Noviembre	2023-12-11T00:00:00	2024-11-08T18:00:00	6	Velocidad del viento	4.8
71818	7	Sololá	710	Panajachel	8	Panajachel	11	Noviembre	2023-12-11T00:00:00	2024-11-08T18:00:00	7	Dirección del viento	4.83
71819	7	Sololá	710	Panajachel	8	Panajachel	11	Noviembre	2023-12-11T00:00:00	2024-11-08T18:00:00	1	Precipitación	0
71820	7	Sololá	710	Panajachel	8	Panajachel	11	Noviembre	2023-12-11T00:00:00	2024-11-08T18:00:00	8	Radiación solar	11
71821	7	Sololá	710	Panajachel	8	Panajachel	11	Noviembre	2023-12-11T00:00:00	2024-11-08T19:00:00	2	Temperatura media	22.2
71822	7	Sololá	710	Panajachel	8	Panajachel	11	Noviembre	2023-12-11T00:00:00	2024-11-08T19:00:00	4	Temperatura máxima	22.8
71823	7	Sololá	710	Panajachel	8	Panajachel	11	Noviembre	2023-12-11T00:00:00	2024-11-08T19:00:00	3	Temperatura mínima	22.2
71824	7	Sololá	710	Panajachel	8	Panajachel	11	Noviembre	2023-12-11T00:00:00	2024-11-08T19:00:00	5	Humedad	67
71825	7	Sololá	710	Panajachel	8	Panajachel	11	Noviembre	2023-12-11T00:00:00	2024-11-08T19:00:00	6	Velocidad del viento	11.3
71826	7	Sololá	710	Panajachel	8	Panajachel	11	Noviembre	2023-12-11T00:00:00	2024-11-08T19:00:00	7	Dirección del viento	11.27
71827	7	Sololá	710	Panajachel	8	Panajachel	11	Noviembre	2023-12-11T00:00:00	2024-11-08T19:00:00	1	Precipitación	0
71828	7	Sololá	710	Panajachel	8	Panajachel	11	Noviembre	2023-12-11T00:00:00	2024-11-08T19:00:00	8	Radiación solar	0
71829	7	Sololá	710	Panajachel	8	Panajachel	11	Noviembre	2023-12-11T00:00:00	2024-11-08T20:00:00	2	Temperatura media	21.4
71830	7	Sololá	710	Panajachel	8	Panajachel	11	Noviembre	2023-12-11T00:00:00	2024-11-08T20:00:00	4	Temperatura máxima	22.4
71831	7	Sololá	710	Panajachel	8	Panajachel	11	Noviembre	2023-12-11T00:00:00	2024-11-08T20:00:00	3	Temperatura mínima	21.4
71832	7	Sololá	710	Panajachel	8	Panajachel	11	Noviembre	2023-12-11T00:00:00	2024-11-08T20:00:00	5	Humedad	67
71833	7	Sololá	710	Panajachel	8	Panajachel	11	Noviembre	2023-12-11T00:00:00	2024-11-08T20:00:00	6	Velocidad del viento	8
71834	7	Sololá	710	Panajachel	8	Panajachel	11	Noviembre	2023-12-11T00:00:00	2024-11-08T20:00:00	7	Dirección del viento	8.05
71835	7	Sololá	710	Panajachel	8	Panajachel	11	Noviembre	2023-12-11T00:00:00	2024-11-08T20:00:00	1	Precipitación	0
71836	7	Sololá	710	Panajachel	8	Panajachel	11	Noviembre	2023-12-11T00:00:00	2024-11-08T20:00:00	8	Radiación solar	0
71837	7	Sololá	710	Panajachel	8	Panajachel	11	Noviembre	2023-12-11T00:00:00	2024-11-08T21:00:00	2	Temperatura media	21.3
71838	7	Sololá	710	Panajachel	8	Panajachel	11	Noviembre	2023-12-11T00:00:00	2024-11-08T21:00:00	4	Temperatura máxima	21.4
71839	7	Sololá	710	Panajachel	8	Panajachel	11	Noviembre	2023-12-11T00:00:00	2024-11-08T21:00:00	3	Temperatura mínima	21.2
71840	7	Sololá	710	Panajachel	8	Panajachel	11	Noviembre	2023-12-11T00:00:00	2024-11-08T21:00:00	5	Humedad	71
71841	7	Sololá	710	Panajachel	8	Panajachel	11	Noviembre	2023-12-11T00:00:00	2024-11-08T21:00:00	6	Velocidad del viento	8
71842	7	Sololá	710	Panajachel	8	Panajachel	11	Noviembre	2023-12-11T00:00:00	2024-11-08T21:00:00	7	Dirección del viento	8.05
71843	7	Sololá	710	Panajachel	8	Panajachel	11	Noviembre	2023-12-11T00:00:00	2024-11-08T21:00:00	1	Precipitación	0
71844	7	Sololá	710	Panajachel	8	Panajachel	11	Noviembre	2023-12-11T00:00:00	2024-11-08T21:00:00	8	Radiación solar	0
71845	7	Sololá	710	Panajachel	8	Panajachel	11	Noviembre	2023-12-11T00:00:00	2024-11-08T22:00:00	2	Temperatura media	20.9
71846	7	Sololá	710	Panajachel	8	Panajachel	11	Noviembre	2023-12-11T00:00:00	2024-11-08T22:00:00	4	Temperatura máxima	21.2
71847	7	Sololá	710	Panajachel	8	Panajachel	11	Noviembre	2023-12-11T00:00:00	2024-11-08T22:00:00	3	Temperatura mínima	20.8
71848	7	Sololá	710	Panajachel	8	Panajachel	11	Noviembre	2023-12-11T00:00:00	2024-11-08T22:00:00	5	Humedad	72
71849	7	Sololá	710	Panajachel	8	Panajachel	11	Noviembre	2023-12-11T00:00:00	2024-11-08T22:00:00	6	Velocidad del viento	4.8
71850	7	Sololá	710	Panajachel	8	Panajachel	11	Noviembre	2023-12-11T00:00:00	2024-11-08T22:00:00	7	Dirección del viento	4.83
71851	7	Sololá	710	Panajachel	8	Panajachel	11	Noviembre	2023-12-11T00:00:00	2024-11-08T22:00:00	1	Precipitación	0
71852	7	Sololá	710	Panajachel	8	Panajachel	11	Noviembre	2023-12-11T00:00:00	2024-11-08T22:00:00	8	Radiación solar	0
71853	7	Sololá	710	Panajachel	8	Panajachel	11	Noviembre	2023-12-11T00:00:00	2024-11-08T23:00:00	2	Temperatura media	20.8
71854	7	Sololá	710	Panajachel	8	Panajachel	11	Noviembre	2023-12-11T00:00:00	2024-11-08T23:00:00	4	Temperatura máxima	21.2
71855	7	Sololá	710	Panajachel	8	Panajachel	11	Noviembre	2023-12-11T00:00:00	2024-11-08T23:00:00	3	Temperatura mínima	20.8
71856	7	Sololá	710	Panajachel	8	Panajachel	11	Noviembre	2023-12-11T00:00:00	2024-11-08T23:00:00	5	Humedad	72
71857	7	Sololá	710	Panajachel	8	Panajachel	11	Noviembre	2023-12-11T00:00:00	2024-11-08T23:00:00	6	Velocidad del viento	6.4
71858	7	Sololá	710	Panajachel	8	Panajachel	11	Noviembre	2023-12-11T00:00:00	2024-11-08T23:00:00	7	Dirección del viento	6.44
71859	7	Sololá	710	Panajachel	8	Panajachel	11	Noviembre	2023-12-11T00:00:00	2024-11-08T23:00:00	1	Precipitación	0
71860	7	Sololá	710	Panajachel	8	Panajachel	11	Noviembre	2023-12-11T00:00:00	2024-11-08T23:00:00	8	Radiación solar	0
71861	7	Sololá	710	Panajachel	8	Panajachel	11	Noviembre	2023-11-13T00:00:00	2024-11-08T00:00:00	2	Temperatura media	20.9
71862	7	Sololá	710	Panajachel	8	Panajachel	11	Noviembre	2023-11-13T00:00:00	2024-11-08T00:00:00	4	Temperatura máxima	21.1
71863	7	Sololá	710	Panajachel	8	Panajachel	11	Noviembre	2023-11-13T00:00:00	2024-11-08T00:00:00	3	Temperatura mínima	20.8
71864	7	Sololá	710	Panajachel	8	Panajachel	11	Noviembre	2023-11-13T00:00:00	2024-11-08T00:00:00	5	Humedad	71
71865	7	Sololá	710	Panajachel	8	Panajachel	11	Noviembre	2023-11-13T00:00:00	2024-11-08T00:00:00	6	Velocidad del viento	3.2
71866	7	Sololá	710	Panajachel	8	Panajachel	11	Noviembre	2023-11-13T00:00:00	2024-11-08T00:00:00	7	Dirección del viento	3.22
71867	7	Sololá	710	Panajachel	8	Panajachel	11	Noviembre	2023-11-13T00:00:00	2024-11-08T00:00:00	1	Precipitación	0
71868	7	Sololá	710	Panajachel	8	Panajachel	11	Noviembre	2023-11-13T00:00:00	2024-11-08T00:00:00	8	Radiación solar	0
71869	7	Sololá	710	Panajachel	8	Panajachel	11	Noviembre	2023-11-13T00:00:00	2024-11-08T01:00:00	2	Temperatura media	20.6
71870	7	Sololá	710	Panajachel	8	Panajachel	11	Noviembre	2023-11-13T00:00:00	2024-11-08T01:00:00	4	Temperatura máxima	20.9
71871	7	Sololá	710	Panajachel	8	Panajachel	11	Noviembre	2023-11-13T00:00:00	2024-11-08T01:00:00	3	Temperatura mínima	20.6
71872	7	Sololá	710	Panajachel	8	Panajachel	11	Noviembre	2023-11-13T00:00:00	2024-11-08T01:00:00	5	Humedad	71
71873	7	Sololá	710	Panajachel	8	Panajachel	11	Noviembre	2023-11-13T00:00:00	2024-11-08T01:00:00	6	Velocidad del viento	4.8
71874	7	Sololá	710	Panajachel	8	Panajachel	11	Noviembre	2023-11-13T00:00:00	2024-11-08T01:00:00	7	Dirección del viento	4.83
71875	7	Sololá	710	Panajachel	8	Panajachel	11	Noviembre	2023-11-13T00:00:00	2024-11-08T01:00:00	1	Precipitación	0
71876	7	Sololá	710	Panajachel	8	Panajachel	11	Noviembre	2023-11-13T00:00:00	2024-11-08T01:00:00	8	Radiación solar	0
71877	7	Sololá	710	Panajachel	8	Panajachel	11	Noviembre	2023-11-13T00:00:00	2024-11-08T02:00:00	2	Temperatura media	20.3
71878	7	Sololá	710	Panajachel	8	Panajachel	11	Noviembre	2023-11-13T00:00:00	2024-11-08T02:00:00	4	Temperatura máxima	20.8
71879	7	Sololá	710	Panajachel	8	Panajachel	11	Noviembre	2023-11-13T00:00:00	2024-11-08T02:00:00	3	Temperatura mínima	20.3
71880	7	Sololá	710	Panajachel	8	Panajachel	11	Noviembre	2023-11-13T00:00:00	2024-11-08T02:00:00	5	Humedad	72
71881	7	Sololá	710	Panajachel	8	Panajachel	11	Noviembre	2023-11-13T00:00:00	2024-11-08T02:00:00	6	Velocidad del viento	9.7
71882	7	Sololá	710	Panajachel	8	Panajachel	11	Noviembre	2023-11-13T00:00:00	2024-11-08T02:00:00	7	Dirección del viento	9.66
71883	7	Sololá	710	Panajachel	8	Panajachel	11	Noviembre	2023-11-13T00:00:00	2024-11-08T02:00:00	1	Precipitación	0
71884	7	Sololá	710	Panajachel	8	Panajachel	11	Noviembre	2023-11-13T00:00:00	2024-11-08T02:00:00	8	Radiación solar	0
71885	7	Sololá	710	Panajachel	8	Panajachel	11	Noviembre	2023-11-13T00:00:00	2024-11-08T03:00:00	2	Temperatura media	19.9
71886	7	Sololá	710	Panajachel	8	Panajachel	11	Noviembre	2023-11-13T00:00:00	2024-11-08T03:00:00	4	Temperatura máxima	20.4
71887	7	Sololá	710	Panajachel	8	Panajachel	11	Noviembre	2023-11-13T00:00:00	2024-11-08T03:00:00	3	Temperatura mínima	19.9
71888	7	Sololá	710	Panajachel	8	Panajachel	11	Noviembre	2023-11-13T00:00:00	2024-11-08T03:00:00	5	Humedad	70
71889	7	Sololá	710	Panajachel	8	Panajachel	11	Noviembre	2023-11-13T00:00:00	2024-11-08T03:00:00	6	Velocidad del viento	4.8
71890	7	Sololá	710	Panajachel	8	Panajachel	11	Noviembre	2023-11-13T00:00:00	2024-11-08T03:00:00	7	Dirección del viento	4.83
71891	7	Sololá	710	Panajachel	8	Panajachel	11	Noviembre	2023-11-13T00:00:00	2024-11-08T03:00:00	1	Precipitación	0
71892	7	Sololá	710	Panajachel	8	Panajachel	11	Noviembre	2023-11-13T00:00:00	2024-11-08T03:00:00	8	Radiación solar	0
71893	7	Sololá	710	Panajachel	8	Panajachel	11	Noviembre	2023-11-13T00:00:00	2024-11-08T04:00:00	2	Temperatura media	19.7
71894	7	Sololá	710	Panajachel	8	Panajachel	11	Noviembre	2023-11-13T00:00:00	2024-11-08T04:00:00	4	Temperatura máxima	19.9
71895	7	Sololá	710	Panajachel	8	Panajachel	11	Noviembre	2023-11-13T00:00:00	2024-11-08T04:00:00	3	Temperatura mínima	19.7
71896	7	Sololá	710	Panajachel	8	Panajachel	11	Noviembre	2023-11-13T00:00:00	2024-11-08T04:00:00	5	Humedad	70
71897	7	Sololá	710	Panajachel	8	Panajachel	11	Noviembre	2023-11-13T00:00:00	2024-11-08T04:00:00	6	Velocidad del viento	4.8
71898	7	Sololá	710	Panajachel	8	Panajachel	11	Noviembre	2023-11-13T00:00:00	2024-11-08T04:00:00	7	Dirección del viento	4.83
71899	7	Sololá	710	Panajachel	8	Panajachel	11	Noviembre	2023-11-13T00:00:00	2024-11-08T04:00:00	1	Precipitación	0
71900	7	Sololá	710	Panajachel	8	Panajachel	11	Noviembre	2023-11-13T00:00:00	2024-11-08T04:00:00	8	Radiación solar	0
71901	7	Sololá	710	Panajachel	8	Panajachel	11	Noviembre	2023-11-13T00:00:00	2024-11-08T05:00:00	2	Temperatura media	18.5
71902	7	Sololá	710	Panajachel	8	Panajachel	11	Noviembre	2023-11-13T00:00:00	2024-11-08T05:00:00	4	Temperatura máxima	19.8
71903	7	Sololá	710	Panajachel	8	Panajachel	11	Noviembre	2023-11-13T00:00:00	2024-11-08T05:00:00	3	Temperatura mínima	18.5
71904	7	Sololá	710	Panajachel	8	Panajachel	11	Noviembre	2023-11-13T00:00:00	2024-11-08T05:00:00	5	Humedad	75
71905	7	Sololá	710	Panajachel	8	Panajachel	11	Noviembre	2023-11-13T00:00:00	2024-11-08T05:00:00	6	Velocidad del viento	1.6
71906	7	Sololá	710	Panajachel	8	Panajachel	11	Noviembre	2023-11-13T00:00:00	2024-11-08T05:00:00	7	Dirección del viento	1.61
71907	7	Sololá	710	Panajachel	8	Panajachel	11	Noviembre	2023-11-13T00:00:00	2024-11-08T05:00:00	1	Precipitación	0
71908	7	Sololá	710	Panajachel	8	Panajachel	11	Noviembre	2023-11-13T00:00:00	2024-11-08T05:00:00	8	Radiación solar	0
71909	7	Sololá	710	Panajachel	8	Panajachel	11	Noviembre	2023-11-13T00:00:00	2024-11-08T06:00:00	2	Temperatura media	19.2
71910	7	Sololá	710	Panajachel	8	Panajachel	11	Noviembre	2023-11-13T00:00:00	2024-11-08T06:00:00	4	Temperatura máxima	19.5
71911	7	Sololá	710	Panajachel	8	Panajachel	11	Noviembre	2023-11-13T00:00:00	2024-11-08T06:00:00	3	Temperatura mínima	18
71912	7	Sololá	710	Panajachel	8	Panajachel	11	Noviembre	2023-11-13T00:00:00	2024-11-08T06:00:00	5	Humedad	75
71913	7	Sololá	710	Panajachel	8	Panajachel	11	Noviembre	2023-11-13T00:00:00	2024-11-08T06:00:00	6	Velocidad del viento	1.6
71914	7	Sololá	710	Panajachel	8	Panajachel	11	Noviembre	2023-11-13T00:00:00	2024-11-08T06:00:00	7	Dirección del viento	1.61
71915	7	Sololá	710	Panajachel	8	Panajachel	11	Noviembre	2023-11-13T00:00:00	2024-11-08T06:00:00	1	Precipitación	0
71916	7	Sololá	710	Panajachel	8	Panajachel	11	Noviembre	2023-11-13T00:00:00	2024-11-08T06:00:00	8	Radiación solar	0
71917	7	Sololá	710	Panajachel	8	Panajachel	11	Noviembre	2023-11-13T00:00:00	2024-11-08T07:00:00	2	Temperatura media	20.4
71918	7	Sololá	710	Panajachel	8	Panajachel	11	Noviembre	2023-11-13T00:00:00	2024-11-08T07:00:00	4	Temperatura máxima	20.4
71919	7	Sololá	710	Panajachel	8	Panajachel	11	Noviembre	2023-11-13T00:00:00	2024-11-08T07:00:00	3	Temperatura mínima	18.9
71920	7	Sololá	710	Panajachel	8	Panajachel	11	Noviembre	2023-11-13T00:00:00	2024-11-08T07:00:00	5	Humedad	74
71921	7	Sololá	710	Panajachel	8	Panajachel	11	Noviembre	2023-11-13T00:00:00	2024-11-08T07:00:00	6	Velocidad del viento	3.2
71922	7	Sololá	710	Panajachel	8	Panajachel	11	Noviembre	2023-11-13T00:00:00	2024-11-08T07:00:00	7	Dirección del viento	3.22
71923	7	Sololá	710	Panajachel	8	Panajachel	11	Noviembre	2023-11-13T00:00:00	2024-11-08T07:00:00	1	Precipitación	0
71924	7	Sololá	710	Panajachel	8	Panajachel	11	Noviembre	2023-11-13T00:00:00	2024-11-08T07:00:00	8	Radiación solar	34
71925	7	Sololá	710	Panajachel	8	Panajachel	11	Noviembre	2023-11-13T00:00:00	2024-11-08T08:00:00	2	Temperatura media	22.2
71926	7	Sololá	710	Panajachel	8	Panajachel	11	Noviembre	2023-11-13T00:00:00	2024-11-08T08:00:00	4	Temperatura máxima	22.2
71927	7	Sololá	710	Panajachel	8	Panajachel	11	Noviembre	2023-11-13T00:00:00	2024-11-08T08:00:00	3	Temperatura mínima	20.4
71928	7	Sololá	710	Panajachel	8	Panajachel	11	Noviembre	2023-11-13T00:00:00	2024-11-08T08:00:00	5	Humedad	68
71929	7	Sololá	710	Panajachel	8	Panajachel	11	Noviembre	2023-11-13T00:00:00	2024-11-08T08:00:00	6	Velocidad del viento	6.4
71930	7	Sololá	710	Panajachel	8	Panajachel	11	Noviembre	2023-11-13T00:00:00	2024-11-08T08:00:00	7	Dirección del viento	6.44
71931	7	Sololá	710	Panajachel	8	Panajachel	11	Noviembre	2023-11-13T00:00:00	2024-11-08T08:00:00	1	Precipitación	0
71932	7	Sololá	710	Panajachel	8	Panajachel	11	Noviembre	2023-11-13T00:00:00	2024-11-08T08:00:00	8	Radiación solar	255
71933	7	Sololá	710	Panajachel	8	Panajachel	11	Noviembre	2023-11-13T00:00:00	2024-11-08T09:00:00	2	Temperatura media	23.2
71934	7	Sololá	710	Panajachel	8	Panajachel	11	Noviembre	2023-11-13T00:00:00	2024-11-08T09:00:00	4	Temperatura máxima	23.2
71935	7	Sololá	710	Panajachel	8	Panajachel	11	Noviembre	2023-11-13T00:00:00	2024-11-08T09:00:00	3	Temperatura mínima	22.1
71936	7	Sololá	710	Panajachel	8	Panajachel	11	Noviembre	2023-11-13T00:00:00	2024-11-08T09:00:00	5	Humedad	66
71937	7	Sololá	710	Panajachel	8	Panajachel	11	Noviembre	2023-11-13T00:00:00	2024-11-08T09:00:00	6	Velocidad del viento	9.7
71938	7	Sololá	710	Panajachel	8	Panajachel	11	Noviembre	2023-11-13T00:00:00	2024-11-08T09:00:00	7	Dirección del viento	9.66
71939	7	Sololá	710	Panajachel	8	Panajachel	11	Noviembre	2023-11-13T00:00:00	2024-11-08T09:00:00	1	Precipitación	0
71940	7	Sololá	710	Panajachel	8	Panajachel	11	Noviembre	2023-11-13T00:00:00	2024-11-08T09:00:00	8	Radiación solar	482
71941	7	Sololá	710	Panajachel	8	Panajachel	11	Noviembre	2023-11-13T00:00:00	2024-11-08T10:00:00	2	Temperatura media	24.6
71942	7	Sololá	710	Panajachel	8	Panajachel	11	Noviembre	2023-11-13T00:00:00	2024-11-08T10:00:00	4	Temperatura máxima	24.6
71943	7	Sololá	710	Panajachel	8	Panajachel	11	Noviembre	2023-11-13T00:00:00	2024-11-08T10:00:00	3	Temperatura mínima	23.2
71944	7	Sololá	710	Panajachel	8	Panajachel	11	Noviembre	2023-11-13T00:00:00	2024-11-08T10:00:00	5	Humedad	64
71945	7	Sololá	710	Panajachel	8	Panajachel	11	Noviembre	2023-11-13T00:00:00	2024-11-08T10:00:00	6	Velocidad del viento	9.7
71946	7	Sololá	710	Panajachel	8	Panajachel	11	Noviembre	2023-11-13T00:00:00	2024-11-08T10:00:00	7	Dirección del viento	9.66
71947	7	Sololá	710	Panajachel	8	Panajachel	11	Noviembre	2023-11-13T00:00:00	2024-11-08T10:00:00	1	Precipitación	0
71948	7	Sololá	710	Panajachel	8	Panajachel	11	Noviembre	2023-11-13T00:00:00	2024-11-08T10:00:00	8	Radiación solar	640
71949	7	Sololá	710	Panajachel	8	Panajachel	11	Noviembre	2023-11-13T00:00:00	2024-11-08T11:00:00	2	Temperatura media	25.5
71950	7	Sololá	710	Panajachel	8	Panajachel	11	Noviembre	2023-11-13T00:00:00	2024-11-08T11:00:00	4	Temperatura máxima	29.2
71951	7	Sololá	710	Panajachel	8	Panajachel	11	Noviembre	2023-11-13T00:00:00	2024-11-08T11:00:00	3	Temperatura mínima	24.6
71952	7	Sololá	710	Panajachel	8	Panajachel	11	Noviembre	2023-11-13T00:00:00	2024-11-08T11:00:00	5	Humedad	62
71953	7	Sololá	710	Panajachel	8	Panajachel	11	Noviembre	2023-11-13T00:00:00	2024-11-08T11:00:00	6	Velocidad del viento	8
71954	7	Sololá	710	Panajachel	8	Panajachel	11	Noviembre	2023-11-13T00:00:00	2024-11-08T11:00:00	7	Dirección del viento	8.05
71955	7	Sololá	710	Panajachel	8	Panajachel	11	Noviembre	2023-11-13T00:00:00	2024-11-08T11:00:00	1	Precipitación	0
71956	7	Sololá	710	Panajachel	8	Panajachel	11	Noviembre	2023-11-13T00:00:00	2024-11-08T11:00:00	8	Radiación solar	763
71957	7	Sololá	710	Panajachel	8	Panajachel	11	Noviembre	2023-11-13T00:00:00	2024-11-08T12:00:00	2	Temperatura media	27.1
71958	7	Sololá	710	Panajachel	8	Panajachel	11	Noviembre	2023-11-13T00:00:00	2024-11-08T12:00:00	4	Temperatura máxima	27.1
71959	7	Sololá	710	Panajachel	8	Panajachel	11	Noviembre	2023-11-13T00:00:00	2024-11-08T12:00:00	3	Temperatura mínima	25.5
71960	7	Sololá	710	Panajachel	8	Panajachel	11	Noviembre	2023-11-13T00:00:00	2024-11-08T12:00:00	5	Humedad	57
71961	7	Sololá	710	Panajachel	8	Panajachel	11	Noviembre	2023-11-13T00:00:00	2024-11-08T12:00:00	6	Velocidad del viento	6.4
71962	7	Sololá	710	Panajachel	8	Panajachel	11	Noviembre	2023-11-13T00:00:00	2024-11-08T12:00:00	7	Dirección del viento	6.44
71963	7	Sololá	710	Panajachel	8	Panajachel	11	Noviembre	2023-11-13T00:00:00	2024-11-08T12:00:00	1	Precipitación	0
71964	7	Sololá	710	Panajachel	8	Panajachel	11	Noviembre	2023-11-13T00:00:00	2024-11-08T12:00:00	8	Radiación solar	828
71965	7	Sololá	710	Panajachel	8	Panajachel	11	Noviembre	2023-11-13T00:00:00	2024-11-08T13:00:00	2	Temperatura media	27.2
71966	7	Sololá	710	Panajachel	8	Panajachel	11	Noviembre	2023-11-13T00:00:00	2024-11-08T13:00:00	4	Temperatura máxima	27.2
71967	7	Sololá	710	Panajachel	8	Panajachel	11	Noviembre	2023-11-13T00:00:00	2024-11-08T13:00:00	3	Temperatura mínima	26.8
71968	7	Sololá	710	Panajachel	8	Panajachel	11	Noviembre	2023-11-13T00:00:00	2024-11-08T13:00:00	5	Humedad	57
71969	7	Sololá	710	Panajachel	8	Panajachel	11	Noviembre	2023-11-13T00:00:00	2024-11-08T13:00:00	6	Velocidad del viento	9.7
71970	7	Sololá	710	Panajachel	8	Panajachel	11	Noviembre	2023-11-13T00:00:00	2024-11-08T13:00:00	7	Dirección del viento	9.66
71971	7	Sololá	710	Panajachel	8	Panajachel	11	Noviembre	2023-11-13T00:00:00	2024-11-08T13:00:00	1	Precipitación	0
71972	7	Sololá	710	Panajachel	8	Panajachel	11	Noviembre	2023-11-13T00:00:00	2024-11-08T13:00:00	8	Radiación solar	847
71973	7	Sololá	710	Panajachel	8	Panajachel	11	Noviembre	2023-11-13T00:00:00	2024-11-08T14:00:00	2	Temperatura media	26.2
71974	7	Sololá	710	Panajachel	8	Panajachel	11	Noviembre	2023-11-13T00:00:00	2024-11-08T14:00:00	4	Temperatura máxima	27.4
71975	7	Sololá	710	Panajachel	8	Panajachel	11	Noviembre	2023-11-13T00:00:00	2024-11-08T14:00:00	3	Temperatura mínima	26.2
71976	7	Sololá	710	Panajachel	8	Panajachel	11	Noviembre	2023-11-13T00:00:00	2024-11-08T14:00:00	5	Humedad	59
71977	7	Sololá	710	Panajachel	8	Panajachel	11	Noviembre	2023-11-13T00:00:00	2024-11-08T14:00:00	6	Velocidad del viento	9.7
71978	7	Sololá	710	Panajachel	8	Panajachel	11	Noviembre	2023-11-13T00:00:00	2024-11-08T14:00:00	7	Dirección del viento	9.66
71979	7	Sololá	710	Panajachel	8	Panajachel	11	Noviembre	2023-11-13T00:00:00	2024-11-08T14:00:00	1	Precipitación	0
71980	7	Sololá	710	Panajachel	8	Panajachel	11	Noviembre	2023-11-13T00:00:00	2024-11-08T14:00:00	8	Radiación solar	660
71981	7	Sololá	710	Panajachel	8	Panajachel	11	Noviembre	2023-11-13T00:00:00	2024-11-08T15:00:00	2	Temperatura media	24.6
71982	7	Sololá	710	Panajachel	8	Panajachel	11	Noviembre	2023-11-13T00:00:00	2024-11-08T15:00:00	4	Temperatura máxima	26.2
71983	7	Sololá	710	Panajachel	8	Panajachel	11	Noviembre	2023-11-13T00:00:00	2024-11-08T15:00:00	3	Temperatura mínima	24.6
71984	7	Sololá	710	Panajachel	8	Panajachel	11	Noviembre	2023-11-13T00:00:00	2024-11-08T15:00:00	5	Humedad	65
71985	7	Sololá	710	Panajachel	8	Panajachel	11	Noviembre	2023-11-13T00:00:00	2024-11-08T15:00:00	6	Velocidad del viento	8
71986	7	Sololá	710	Panajachel	8	Panajachel	11	Noviembre	2023-11-13T00:00:00	2024-11-08T15:00:00	7	Dirección del viento	8.05
71987	7	Sololá	710	Panajachel	8	Panajachel	11	Noviembre	2023-11-13T00:00:00	2024-11-08T15:00:00	1	Precipitación	0
71988	7	Sololá	710	Panajachel	8	Panajachel	11	Noviembre	2023-11-13T00:00:00	2024-11-08T15:00:00	8	Radiación solar	231
71989	7	Sololá	710	Panajachel	8	Panajachel	11	Noviembre	2023-11-13T00:00:00	2024-11-08T16:00:00	2	Temperatura media	25.4
71990	7	Sololá	710	Panajachel	8	Panajachel	11	Noviembre	2023-11-13T00:00:00	2024-11-08T16:00:00	4	Temperatura máxima	26.8
71991	7	Sololá	710	Panajachel	8	Panajachel	11	Noviembre	2023-11-13T00:00:00	2024-11-08T16:00:00	3	Temperatura mínima	24.5
71992	7	Sololá	710	Panajachel	8	Panajachel	11	Noviembre	2023-11-13T00:00:00	2024-11-08T16:00:00	5	Humedad	62
71993	7	Sololá	710	Panajachel	8	Panajachel	11	Noviembre	2023-11-13T00:00:00	2024-11-08T16:00:00	6	Velocidad del viento	4.8
71994	7	Sololá	710	Panajachel	8	Panajachel	11	Noviembre	2023-11-13T00:00:00	2024-11-08T16:00:00	7	Dirección del viento	4.83
71995	7	Sololá	710	Panajachel	8	Panajachel	11	Noviembre	2023-11-13T00:00:00	2024-11-08T16:00:00	1	Precipitación	0
71996	7	Sololá	710	Panajachel	8	Panajachel	11	Noviembre	2023-11-13T00:00:00	2024-11-08T16:00:00	8	Radiación solar	339
71997	7	Sololá	710	Panajachel	8	Panajachel	11	Noviembre	2023-11-13T00:00:00	2024-11-08T17:00:00	2	Temperatura media	23.4
71998	7	Sololá	710	Panajachel	8	Panajachel	11	Noviembre	2023-11-13T00:00:00	2024-11-08T17:00:00	4	Temperatura máxima	25.4
71999	7	Sololá	710	Panajachel	8	Panajachel	11	Noviembre	2023-11-13T00:00:00	2024-11-08T17:00:00	3	Temperatura mínima	23.4
72000	7	Sololá	710	Panajachel	8	Panajachel	11	Noviembre	2023-11-13T00:00:00	2024-11-08T17:00:00	5	Humedad	81
72001	7	Sololá	710	Panajachel	8	Panajachel	11	Noviembre	2023-11-13T00:00:00	2024-11-08T17:00:00	6	Velocidad del viento	3.2
72002	7	Sololá	710	Panajachel	8	Panajachel	11	Noviembre	2023-11-13T00:00:00	2024-11-08T17:00:00	7	Dirección del viento	3.22
72003	7	Sololá	710	Panajachel	8	Panajachel	11	Noviembre	2023-11-13T00:00:00	2024-11-08T17:00:00	1	Precipitación	0
72004	7	Sololá	710	Panajachel	8	Panajachel	11	Noviembre	2023-11-13T00:00:00	2024-11-08T17:00:00	8	Radiación solar	33
72005	7	Sololá	710	Panajachel	8	Panajachel	11	Noviembre	2023-11-13T00:00:00	2024-11-08T18:00:00	2	Temperatura media	22.2
72006	7	Sololá	710	Panajachel	8	Panajachel	11	Noviembre	2023-11-13T00:00:00	2024-11-08T18:00:00	4	Temperatura máxima	23.4
72007	7	Sololá	710	Panajachel	8	Panajachel	11	Noviembre	2023-11-13T00:00:00	2024-11-08T18:00:00	3	Temperatura mínima	22.1
72008	7	Sololá	710	Panajachel	8	Panajachel	11	Noviembre	2023-11-13T00:00:00	2024-11-08T18:00:00	5	Humedad	85
72009	7	Sololá	710	Panajachel	8	Panajachel	11	Noviembre	2023-11-13T00:00:00	2024-11-08T18:00:00	6	Velocidad del viento	1.6
72010	7	Sololá	710	Panajachel	8	Panajachel	11	Noviembre	2023-11-13T00:00:00	2024-11-08T18:00:00	7	Dirección del viento	1.61
72011	7	Sololá	710	Panajachel	8	Panajachel	11	Noviembre	2023-11-13T00:00:00	2024-11-08T18:00:00	1	Precipitación	0
72012	7	Sololá	710	Panajachel	8	Panajachel	11	Noviembre	2023-11-13T00:00:00	2024-11-08T18:00:00	8	Radiación solar	13
72013	7	Sololá	710	Panajachel	8	Panajachel	11	Noviembre	2023-11-13T00:00:00	2024-11-08T19:00:00	2	Temperatura media	22.3
72014	7	Sololá	710	Panajachel	8	Panajachel	11	Noviembre	2023-11-13T00:00:00	2024-11-08T19:00:00	4	Temperatura máxima	22.4
72015	7	Sololá	710	Panajachel	8	Panajachel	11	Noviembre	2023-11-13T00:00:00	2024-11-08T19:00:00	3	Temperatura mínima	21.9
72016	7	Sololá	710	Panajachel	8	Panajachel	11	Noviembre	2023-11-13T00:00:00	2024-11-08T19:00:00	5	Humedad	73
72017	7	Sololá	710	Panajachel	8	Panajachel	11	Noviembre	2023-11-13T00:00:00	2024-11-08T19:00:00	6	Velocidad del viento	1.6
72018	7	Sololá	710	Panajachel	8	Panajachel	11	Noviembre	2023-11-13T00:00:00	2024-11-08T19:00:00	7	Dirección del viento	1.61
72019	7	Sololá	710	Panajachel	8	Panajachel	11	Noviembre	2023-11-13T00:00:00	2024-11-08T19:00:00	1	Precipitación	0
72020	7	Sololá	710	Panajachel	8	Panajachel	11	Noviembre	2023-11-13T00:00:00	2024-11-08T19:00:00	8	Radiación solar	0
72021	7	Sololá	710	Panajachel	8	Panajachel	11	Noviembre	2023-11-13T00:00:00	2024-11-08T20:00:00	2	Temperatura media	22.2
72022	7	Sololá	710	Panajachel	8	Panajachel	11	Noviembre	2023-11-13T00:00:00	2024-11-08T20:00:00	4	Temperatura máxima	22.4
72023	7	Sololá	710	Panajachel	8	Panajachel	11	Noviembre	2023-11-13T00:00:00	2024-11-08T20:00:00	3	Temperatura mínima	22.2
72024	7	Sololá	710	Panajachel	8	Panajachel	11	Noviembre	2023-11-13T00:00:00	2024-11-08T20:00:00	5	Humedad	71
72025	7	Sololá	710	Panajachel	8	Panajachel	11	Noviembre	2023-11-13T00:00:00	2024-11-08T20:00:00	6	Velocidad del viento	3.2
72026	7	Sololá	710	Panajachel	8	Panajachel	11	Noviembre	2023-11-13T00:00:00	2024-11-08T20:00:00	7	Dirección del viento	3.22
72027	7	Sololá	710	Panajachel	8	Panajachel	11	Noviembre	2023-11-13T00:00:00	2024-11-08T20:00:00	1	Precipitación	0
72028	7	Sololá	710	Panajachel	8	Panajachel	11	Noviembre	2023-11-13T00:00:00	2024-11-08T20:00:00	8	Radiación solar	0
72029	7	Sololá	710	Panajachel	8	Panajachel	11	Noviembre	2023-11-13T00:00:00	2024-11-08T21:00:00	2	Temperatura media	22.1
72030	7	Sololá	710	Panajachel	8	Panajachel	11	Noviembre	2023-11-13T00:00:00	2024-11-08T21:00:00	4	Temperatura máxima	22.3
72031	7	Sololá	710	Panajachel	8	Panajachel	11	Noviembre	2023-11-13T00:00:00	2024-11-08T21:00:00	3	Temperatura mínima	22.1
72032	7	Sololá	710	Panajachel	8	Panajachel	11	Noviembre	2023-11-13T00:00:00	2024-11-08T21:00:00	5	Humedad	73
72033	7	Sololá	710	Panajachel	8	Panajachel	11	Noviembre	2023-11-13T00:00:00	2024-11-08T21:00:00	6	Velocidad del viento	1.6
72034	7	Sololá	710	Panajachel	8	Panajachel	11	Noviembre	2023-11-13T00:00:00	2024-11-08T21:00:00	7	Dirección del viento	1.61
72035	7	Sololá	710	Panajachel	8	Panajachel	11	Noviembre	2023-11-13T00:00:00	2024-11-08T21:00:00	1	Precipitación	0
72036	7	Sololá	710	Panajachel	8	Panajachel	11	Noviembre	2023-11-13T00:00:00	2024-11-08T21:00:00	8	Radiación solar	0
72037	7	Sololá	710	Panajachel	8	Panajachel	11	Noviembre	2023-11-13T00:00:00	2024-11-08T22:00:00	2	Temperatura media	21.9
72038	7	Sololá	710	Panajachel	8	Panajachel	11	Noviembre	2023-11-13T00:00:00	2024-11-08T22:00:00	4	Temperatura máxima	22.1
72039	7	Sololá	710	Panajachel	8	Panajachel	11	Noviembre	2023-11-13T00:00:00	2024-11-08T22:00:00	3	Temperatura mínima	21.7
72040	7	Sololá	710	Panajachel	8	Panajachel	11	Noviembre	2023-11-13T00:00:00	2024-11-08T22:00:00	5	Humedad	74
72041	7	Sololá	710	Panajachel	8	Panajachel	11	Noviembre	2023-11-13T00:00:00	2024-11-08T22:00:00	6	Velocidad del viento	4.8
72042	7	Sololá	710	Panajachel	8	Panajachel	11	Noviembre	2023-11-13T00:00:00	2024-11-08T22:00:00	7	Dirección del viento	4.83
72043	7	Sololá	710	Panajachel	8	Panajachel	11	Noviembre	2023-11-13T00:00:00	2024-11-08T22:00:00	1	Precipitación	0
72044	7	Sololá	710	Panajachel	8	Panajachel	11	Noviembre	2023-11-13T00:00:00	2024-11-08T22:00:00	8	Radiación solar	0
72045	7	Sololá	710	Panajachel	8	Panajachel	11	Noviembre	2023-11-13T00:00:00	2024-11-08T23:00:00	2	Temperatura media	21.2
72046	7	Sololá	710	Panajachel	8	Panajachel	11	Noviembre	2023-11-13T00:00:00	2024-11-08T23:00:00	4	Temperatura máxima	21.9
72047	7	Sololá	710	Panajachel	8	Panajachel	11	Noviembre	2023-11-13T00:00:00	2024-11-08T23:00:00	3	Temperatura mínima	21.2
72048	7	Sololá	710	Panajachel	8	Panajachel	11	Noviembre	2023-11-13T00:00:00	2024-11-08T23:00:00	5	Humedad	77
72049	7	Sololá	710	Panajachel	8	Panajachel	11	Noviembre	2023-11-13T00:00:00	2024-11-08T23:00:00	6	Velocidad del viento	3.2
72050	7	Sololá	710	Panajachel	8	Panajachel	11	Noviembre	2023-11-13T00:00:00	2024-11-08T23:00:00	7	Dirección del viento	3.22
72051	7	Sololá	710	Panajachel	8	Panajachel	11	Noviembre	2023-11-13T00:00:00	2024-11-08T23:00:00	1	Precipitación	0
72052	7	Sololá	710	Panajachel	8	Panajachel	11	Noviembre	2023-11-13T00:00:00	2024-11-08T23:00:00	8	Radiación solar	0
72053	7	Sololá	710	Panajachel	8	Panajachel	11	Noviembre	2023-11-14T00:00:00	2024-11-08T00:00:00	2	Temperatura media	20.3
72054	7	Sololá	710	Panajachel	8	Panajachel	11	Noviembre	2023-11-14T00:00:00	2024-11-08T00:00:00	4	Temperatura máxima	21.2
72055	7	Sololá	710	Panajachel	8	Panajachel	11	Noviembre	2023-11-14T00:00:00	2024-11-08T00:00:00	3	Temperatura mínima	20.3
72056	7	Sololá	710	Panajachel	8	Panajachel	11	Noviembre	2023-11-14T00:00:00	2024-11-08T00:00:00	5	Humedad	81
72057	7	Sololá	710	Panajachel	8	Panajachel	11	Noviembre	2023-11-14T00:00:00	2024-11-08T00:00:00	6	Velocidad del viento	1.6
72058	7	Sololá	710	Panajachel	8	Panajachel	11	Noviembre	2023-11-14T00:00:00	2024-11-08T00:00:00	7	Dirección del viento	1.61
72059	7	Sololá	710	Panajachel	8	Panajachel	11	Noviembre	2023-11-14T00:00:00	2024-11-08T00:00:00	1	Precipitación	0
72060	7	Sololá	710	Panajachel	8	Panajachel	11	Noviembre	2023-11-14T00:00:00	2024-11-08T00:00:00	8	Radiación solar	0
72061	7	Sololá	710	Panajachel	8	Panajachel	11	Noviembre	2023-11-14T00:00:00	2024-11-08T01:00:00	2	Temperatura media	21.3
72062	7	Sololá	710	Panajachel	8	Panajachel	11	Noviembre	2023-11-14T00:00:00	2024-11-08T01:00:00	4	Temperatura máxima	21.6
72063	7	Sololá	710	Panajachel	8	Panajachel	11	Noviembre	2023-11-14T00:00:00	2024-11-08T01:00:00	3	Temperatura mínima	20.3
72064	7	Sololá	710	Panajachel	8	Panajachel	11	Noviembre	2023-11-14T00:00:00	2024-11-08T01:00:00	5	Humedad	75
72065	7	Sololá	710	Panajachel	8	Panajachel	11	Noviembre	2023-11-14T00:00:00	2024-11-08T01:00:00	6	Velocidad del viento	4.8
72066	7	Sololá	710	Panajachel	8	Panajachel	11	Noviembre	2023-11-14T00:00:00	2024-11-08T01:00:00	7	Dirección del viento	4.83
72067	7	Sololá	710	Panajachel	8	Panajachel	11	Noviembre	2023-11-14T00:00:00	2024-11-08T01:00:00	1	Precipitación	0
72068	7	Sololá	710	Panajachel	8	Panajachel	11	Noviembre	2023-11-14T00:00:00	2024-11-08T01:00:00	8	Radiación solar	0
72069	7	Sololá	710	Panajachel	8	Panajachel	11	Noviembre	2023-11-14T00:00:00	2024-11-08T02:00:00	2	Temperatura media	20.7
72070	7	Sololá	710	Panajachel	8	Panajachel	11	Noviembre	2023-11-14T00:00:00	2024-11-08T02:00:00	4	Temperatura máxima	21.4
72071	7	Sololá	710	Panajachel	8	Panajachel	11	Noviembre	2023-11-14T00:00:00	2024-11-08T02:00:00	3	Temperatura mínima	20.6
72072	7	Sololá	710	Panajachel	8	Panajachel	11	Noviembre	2023-11-14T00:00:00	2024-11-08T02:00:00	5	Humedad	77
72073	7	Sololá	710	Panajachel	8	Panajachel	11	Noviembre	2023-11-14T00:00:00	2024-11-08T02:00:00	6	Velocidad del viento	3.2
72074	7	Sololá	710	Panajachel	8	Panajachel	11	Noviembre	2023-11-14T00:00:00	2024-11-08T02:00:00	7	Dirección del viento	3.22
72075	7	Sololá	710	Panajachel	8	Panajachel	11	Noviembre	2023-11-14T00:00:00	2024-11-08T02:00:00	1	Precipitación	0
72076	7	Sololá	710	Panajachel	8	Panajachel	11	Noviembre	2023-11-14T00:00:00	2024-11-08T02:00:00	8	Radiación solar	0
72077	7	Sololá	710	Panajachel	8	Panajachel	11	Noviembre	2023-11-14T00:00:00	2024-11-08T03:00:00	2	Temperatura media	20.9
72078	7	Sololá	710	Panajachel	8	Panajachel	11	Noviembre	2023-11-14T00:00:00	2024-11-08T03:00:00	4	Temperatura máxima	20.9
72079	7	Sololá	710	Panajachel	8	Panajachel	11	Noviembre	2023-11-14T00:00:00	2024-11-08T03:00:00	3	Temperatura mínima	20.1
72080	7	Sololá	710	Panajachel	8	Panajachel	11	Noviembre	2023-11-14T00:00:00	2024-11-08T03:00:00	5	Humedad	76
72081	7	Sololá	710	Panajachel	8	Panajachel	11	Noviembre	2023-11-14T00:00:00	2024-11-08T03:00:00	6	Velocidad del viento	3.2
72082	7	Sololá	710	Panajachel	8	Panajachel	11	Noviembre	2023-11-14T00:00:00	2024-11-08T03:00:00	7	Dirección del viento	3.22
72083	7	Sololá	710	Panajachel	8	Panajachel	11	Noviembre	2023-11-14T00:00:00	2024-11-08T03:00:00	1	Precipitación	0
72084	7	Sololá	710	Panajachel	8	Panajachel	11	Noviembre	2023-11-14T00:00:00	2024-11-08T03:00:00	8	Radiación solar	0
72085	7	Sololá	710	Panajachel	8	Panajachel	11	Noviembre	2023-11-14T00:00:00	2024-11-08T04:00:00	2	Temperatura media	21
72086	7	Sololá	710	Panajachel	8	Panajachel	11	Noviembre	2023-11-14T00:00:00	2024-11-08T04:00:00	4	Temperatura máxima	21.1
72087	7	Sololá	710	Panajachel	8	Panajachel	11	Noviembre	2023-11-14T00:00:00	2024-11-08T04:00:00	3	Temperatura mínima	20.7
72088	7	Sololá	710	Panajachel	8	Panajachel	11	Noviembre	2023-11-14T00:00:00	2024-11-08T04:00:00	5	Humedad	74
72089	7	Sololá	710	Panajachel	8	Panajachel	11	Noviembre	2023-11-14T00:00:00	2024-11-08T04:00:00	6	Velocidad del viento	4.8
72090	7	Sololá	710	Panajachel	8	Panajachel	11	Noviembre	2023-11-14T00:00:00	2024-11-08T04:00:00	7	Dirección del viento	4.83
72091	7	Sololá	710	Panajachel	8	Panajachel	11	Noviembre	2023-11-14T00:00:00	2024-11-08T04:00:00	1	Precipitación	0
72092	7	Sololá	710	Panajachel	8	Panajachel	11	Noviembre	2023-11-14T00:00:00	2024-11-08T04:00:00	8	Radiación solar	0
72093	7	Sololá	710	Panajachel	8	Panajachel	11	Noviembre	2023-11-14T00:00:00	2024-11-08T05:00:00	2	Temperatura media	20.9
72094	7	Sololá	710	Panajachel	8	Panajachel	11	Noviembre	2023-11-14T00:00:00	2024-11-08T05:00:00	4	Temperatura máxima	21.1
72095	7	Sololá	710	Panajachel	8	Panajachel	11	Noviembre	2023-11-14T00:00:00	2024-11-08T05:00:00	3	Temperatura mínima	20.9
72096	7	Sololá	710	Panajachel	8	Panajachel	11	Noviembre	2023-11-14T00:00:00	2024-11-08T05:00:00	5	Humedad	75
72097	7	Sololá	710	Panajachel	8	Panajachel	11	Noviembre	2023-11-14T00:00:00	2024-11-08T05:00:00	6	Velocidad del viento	6.4
72098	7	Sololá	710	Panajachel	8	Panajachel	11	Noviembre	2023-11-14T00:00:00	2024-11-08T05:00:00	7	Dirección del viento	6.44
72099	7	Sololá	710	Panajachel	8	Panajachel	11	Noviembre	2023-11-14T00:00:00	2024-11-08T05:00:00	1	Precipitación	0
72100	7	Sololá	710	Panajachel	8	Panajachel	11	Noviembre	2023-11-14T00:00:00	2024-11-08T05:00:00	8	Radiación solar	0
72101	7	Sololá	710	Panajachel	8	Panajachel	11	Noviembre	2023-11-14T00:00:00	2024-11-08T06:00:00	2	Temperatura media	20.2
72102	7	Sololá	710	Panajachel	8	Panajachel	11	Noviembre	2023-11-14T00:00:00	2024-11-08T06:00:00	4	Temperatura máxima	20.9
72103	7	Sololá	710	Panajachel	8	Panajachel	11	Noviembre	2023-11-14T00:00:00	2024-11-08T06:00:00	3	Temperatura mínima	20.2
72104	7	Sololá	710	Panajachel	8	Panajachel	11	Noviembre	2023-11-14T00:00:00	2024-11-08T06:00:00	5	Humedad	77
72105	7	Sololá	710	Panajachel	8	Panajachel	11	Noviembre	2023-11-14T00:00:00	2024-11-08T06:00:00	6	Velocidad del viento	1.6
72106	7	Sololá	710	Panajachel	8	Panajachel	11	Noviembre	2023-11-14T00:00:00	2024-11-08T06:00:00	7	Dirección del viento	1.61
72107	7	Sololá	710	Panajachel	8	Panajachel	11	Noviembre	2023-11-14T00:00:00	2024-11-08T06:00:00	1	Precipitación	0
72108	7	Sololá	710	Panajachel	8	Panajachel	11	Noviembre	2023-11-14T00:00:00	2024-11-08T06:00:00	8	Radiación solar	0
72109	7	Sololá	710	Panajachel	8	Panajachel	11	Noviembre	2023-11-14T00:00:00	2024-11-08T07:00:00	2	Temperatura media	19.6
72110	7	Sololá	710	Panajachel	8	Panajachel	11	Noviembre	2023-11-14T00:00:00	2024-11-08T07:00:00	4	Temperatura máxima	20.3
72111	7	Sololá	710	Panajachel	8	Panajachel	11	Noviembre	2023-11-14T00:00:00	2024-11-08T07:00:00	3	Temperatura mínima	19.3
72112	7	Sololá	710	Panajachel	8	Panajachel	11	Noviembre	2023-11-14T00:00:00	2024-11-08T07:00:00	5	Humedad	82
72113	7	Sololá	710	Panajachel	8	Panajachel	11	Noviembre	2023-11-14T00:00:00	2024-11-08T07:00:00	6	Velocidad del viento	0
72114	7	Sololá	710	Panajachel	8	Panajachel	11	Noviembre	2023-11-14T00:00:00	2024-11-08T07:00:00	7	Dirección del viento	0
72115	7	Sololá	710	Panajachel	8	Panajachel	11	Noviembre	2023-11-14T00:00:00	2024-11-08T07:00:00	1	Precipitación	0
72116	7	Sololá	710	Panajachel	8	Panajachel	11	Noviembre	2023-11-14T00:00:00	2024-11-08T07:00:00	8	Radiación solar	22
72117	7	Sololá	710	Panajachel	8	Panajachel	11	Noviembre	2023-11-14T00:00:00	2024-11-08T08:00:00	2	Temperatura media	22.3
72118	7	Sololá	710	Panajachel	8	Panajachel	11	Noviembre	2023-11-14T00:00:00	2024-11-08T08:00:00	4	Temperatura máxima	22.6
72119	7	Sololá	710	Panajachel	8	Panajachel	11	Noviembre	2023-11-14T00:00:00	2024-11-08T08:00:00	3	Temperatura mínima	19.5
72120	7	Sololá	710	Panajachel	8	Panajachel	11	Noviembre	2023-11-14T00:00:00	2024-11-08T08:00:00	5	Humedad	74
72121	7	Sololá	710	Panajachel	8	Panajachel	11	Noviembre	2023-11-14T00:00:00	2024-11-08T08:00:00	6	Velocidad del viento	0
72122	7	Sololá	710	Panajachel	8	Panajachel	11	Noviembre	2023-11-14T00:00:00	2024-11-08T08:00:00	7	Dirección del viento	0
72123	7	Sololá	710	Panajachel	8	Panajachel	11	Noviembre	2023-11-14T00:00:00	2024-11-08T08:00:00	1	Precipitación	0
72124	7	Sololá	710	Panajachel	8	Panajachel	11	Noviembre	2023-11-14T00:00:00	2024-11-08T08:00:00	8	Radiación solar	258
72125	7	Sololá	710	Panajachel	8	Panajachel	11	Noviembre	2023-11-14T00:00:00	2024-11-08T09:00:00	2	Temperatura media	25.2
72126	7	Sololá	710	Panajachel	8	Panajachel	11	Noviembre	2023-11-14T00:00:00	2024-11-08T09:00:00	4	Temperatura máxima	25.3
72127	7	Sololá	710	Panajachel	8	Panajachel	11	Noviembre	2023-11-14T00:00:00	2024-11-08T09:00:00	3	Temperatura mínima	22.3
72128	7	Sololá	710	Panajachel	8	Panajachel	11	Noviembre	2023-11-14T00:00:00	2024-11-08T09:00:00	5	Humedad	62
72129	7	Sololá	710	Panajachel	8	Panajachel	11	Noviembre	2023-11-14T00:00:00	2024-11-08T09:00:00	6	Velocidad del viento	3.2
72130	7	Sololá	710	Panajachel	8	Panajachel	11	Noviembre	2023-11-14T00:00:00	2024-11-08T09:00:00	7	Dirección del viento	3.22
72131	7	Sololá	710	Panajachel	8	Panajachel	11	Noviembre	2023-11-14T00:00:00	2024-11-08T09:00:00	1	Precipitación	0
72132	7	Sololá	710	Panajachel	8	Panajachel	11	Noviembre	2023-11-14T00:00:00	2024-11-08T09:00:00	8	Radiación solar	509
72133	7	Sololá	710	Panajachel	8	Panajachel	11	Noviembre	2023-11-14T00:00:00	2024-11-08T10:00:00	2	Temperatura media	25.6
72134	7	Sololá	710	Panajachel	8	Panajachel	11	Noviembre	2023-11-14T00:00:00	2024-11-08T10:00:00	4	Temperatura máxima	26.1
72135	7	Sololá	710	Panajachel	8	Panajachel	11	Noviembre	2023-11-14T00:00:00	2024-11-08T10:00:00	3	Temperatura mínima	24.9
72136	7	Sololá	710	Panajachel	8	Panajachel	11	Noviembre	2023-11-14T00:00:00	2024-11-08T10:00:00	5	Humedad	61
72137	7	Sololá	710	Panajachel	8	Panajachel	11	Noviembre	2023-11-14T00:00:00	2024-11-08T10:00:00	6	Velocidad del viento	6.4
72138	7	Sololá	710	Panajachel	8	Panajachel	11	Noviembre	2023-11-14T00:00:00	2024-11-08T10:00:00	7	Dirección del viento	6.44
72139	7	Sololá	710	Panajachel	8	Panajachel	11	Noviembre	2023-11-14T00:00:00	2024-11-08T10:00:00	1	Precipitación	0
72140	7	Sololá	710	Panajachel	8	Panajachel	11	Noviembre	2023-11-14T00:00:00	2024-11-08T10:00:00	8	Radiación solar	483
72141	7	Sololá	710	Panajachel	8	Panajachel	11	Noviembre	2023-11-14T00:00:00	2024-11-08T11:00:00	2	Temperatura media	26.1
72142	7	Sololá	710	Panajachel	8	Panajachel	11	Noviembre	2023-11-14T00:00:00	2024-11-08T11:00:00	4	Temperatura máxima	26.2
72143	7	Sololá	710	Panajachel	8	Panajachel	11	Noviembre	2023-11-14T00:00:00	2024-11-08T11:00:00	3	Temperatura mínima	25.5
72144	7	Sololá	710	Panajachel	8	Panajachel	11	Noviembre	2023-11-14T00:00:00	2024-11-08T11:00:00	5	Humedad	61
72145	7	Sololá	710	Panajachel	8	Panajachel	11	Noviembre	2023-11-14T00:00:00	2024-11-08T11:00:00	6	Velocidad del viento	8
72146	7	Sololá	710	Panajachel	8	Panajachel	11	Noviembre	2023-11-14T00:00:00	2024-11-08T11:00:00	7	Dirección del viento	8.05
72147	7	Sololá	710	Panajachel	8	Panajachel	11	Noviembre	2023-11-14T00:00:00	2024-11-08T11:00:00	1	Precipitación	0
72148	7	Sololá	710	Panajachel	8	Panajachel	11	Noviembre	2023-11-14T00:00:00	2024-11-08T11:00:00	8	Radiación solar	586
72149	7	Sololá	710	Panajachel	8	Panajachel	11	Noviembre	2023-11-14T00:00:00	2024-11-08T12:00:00	2	Temperatura media	26
72150	7	Sololá	710	Panajachel	8	Panajachel	11	Noviembre	2023-11-14T00:00:00	2024-11-08T12:00:00	4	Temperatura máxima	27.2
72151	7	Sololá	710	Panajachel	8	Panajachel	11	Noviembre	2023-11-14T00:00:00	2024-11-08T12:00:00	3	Temperatura mínima	25.9
72152	7	Sololá	710	Panajachel	8	Panajachel	11	Noviembre	2023-11-14T00:00:00	2024-11-08T12:00:00	5	Humedad	60
72153	7	Sololá	710	Panajachel	8	Panajachel	11	Noviembre	2023-11-14T00:00:00	2024-11-08T12:00:00	6	Velocidad del viento	9.7
72154	7	Sololá	710	Panajachel	8	Panajachel	11	Noviembre	2023-11-14T00:00:00	2024-11-08T12:00:00	7	Dirección del viento	9.66
72155	7	Sololá	710	Panajachel	8	Panajachel	11	Noviembre	2023-11-14T00:00:00	2024-11-08T12:00:00	1	Precipitación	0
72156	7	Sololá	710	Panajachel	8	Panajachel	11	Noviembre	2023-11-14T00:00:00	2024-11-08T12:00:00	8	Radiación solar	692
72157	7	Sololá	710	Panajachel	8	Panajachel	11	Noviembre	2023-11-14T00:00:00	2024-11-08T13:00:00	2	Temperatura media	24.8
72158	7	Sololá	710	Panajachel	8	Panajachel	11	Noviembre	2023-11-14T00:00:00	2024-11-08T13:00:00	4	Temperatura máxima	26.3
72159	7	Sololá	710	Panajachel	8	Panajachel	11	Noviembre	2023-11-14T00:00:00	2024-11-08T13:00:00	3	Temperatura mínima	24.5
72160	7	Sololá	710	Panajachel	8	Panajachel	11	Noviembre	2023-11-14T00:00:00	2024-11-08T13:00:00	5	Humedad	78
72161	7	Sololá	710	Panajachel	8	Panajachel	11	Noviembre	2023-11-14T00:00:00	2024-11-08T13:00:00	6	Velocidad del viento	8
72162	7	Sololá	710	Panajachel	8	Panajachel	11	Noviembre	2023-11-14T00:00:00	2024-11-08T13:00:00	7	Dirección del viento	8.05
72163	7	Sololá	710	Panajachel	8	Panajachel	11	Noviembre	2023-11-14T00:00:00	2024-11-08T13:00:00	1	Precipitación	0
72164	7	Sololá	710	Panajachel	8	Panajachel	11	Noviembre	2023-11-14T00:00:00	2024-11-08T13:00:00	8	Radiación solar	551
72165	7	Sololá	710	Panajachel	8	Panajachel	11	Noviembre	2023-11-14T00:00:00	2024-11-08T14:00:00	2	Temperatura media	23.6
72166	7	Sololá	710	Panajachel	8	Panajachel	11	Noviembre	2023-11-14T00:00:00	2024-11-08T14:00:00	4	Temperatura máxima	25.1
72167	7	Sololá	710	Panajachel	8	Panajachel	11	Noviembre	2023-11-14T00:00:00	2024-11-08T14:00:00	3	Temperatura mínima	23.6
72168	7	Sololá	710	Panajachel	8	Panajachel	11	Noviembre	2023-11-14T00:00:00	2024-11-08T14:00:00	5	Humedad	82
72169	7	Sololá	710	Panajachel	8	Panajachel	11	Noviembre	2023-11-14T00:00:00	2024-11-08T14:00:00	6	Velocidad del viento	6.4
72170	7	Sololá	710	Panajachel	8	Panajachel	11	Noviembre	2023-11-14T00:00:00	2024-11-08T14:00:00	7	Dirección del viento	6.44
72171	7	Sololá	710	Panajachel	8	Panajachel	11	Noviembre	2023-11-14T00:00:00	2024-11-08T14:00:00	1	Precipitación	0
72172	7	Sololá	710	Panajachel	8	Panajachel	11	Noviembre	2023-11-14T00:00:00	2024-11-08T14:00:00	8	Radiación solar	402
72173	7	Sololá	710	Panajachel	8	Panajachel	11	Noviembre	2023-11-14T00:00:00	2024-11-08T15:00:00	2	Temperatura media	23.2
72174	7	Sololá	710	Panajachel	8	Panajachel	11	Noviembre	2023-11-14T00:00:00	2024-11-08T15:00:00	4	Temperatura máxima	23.6
72175	7	Sololá	710	Panajachel	8	Panajachel	11	Noviembre	2023-11-14T00:00:00	2024-11-08T15:00:00	3	Temperatura mínima	22.6
72176	7	Sololá	710	Panajachel	8	Panajachel	11	Noviembre	2023-11-14T00:00:00	2024-11-08T15:00:00	5	Humedad	71
72177	7	Sololá	710	Panajachel	8	Panajachel	11	Noviembre	2023-11-14T00:00:00	2024-11-08T15:00:00	6	Velocidad del viento	4.8
72178	7	Sololá	710	Panajachel	8	Panajachel	11	Noviembre	2023-11-14T00:00:00	2024-11-08T15:00:00	7	Dirección del viento	4.83
72179	7	Sololá	710	Panajachel	8	Panajachel	11	Noviembre	2023-11-14T00:00:00	2024-11-08T15:00:00	1	Precipitación	0
72180	7	Sololá	710	Panajachel	8	Panajachel	11	Noviembre	2023-11-14T00:00:00	2024-11-08T15:00:00	8	Radiación solar	190
72181	7	Sololá	710	Panajachel	8	Panajachel	11	Noviembre	2023-11-14T00:00:00	2024-11-08T16:00:00	2	Temperatura media	23.4
72182	7	Sololá	710	Panajachel	8	Panajachel	11	Noviembre	2023-11-14T00:00:00	2024-11-08T16:00:00	4	Temperatura máxima	23.8
72183	7	Sololá	710	Panajachel	8	Panajachel	11	Noviembre	2023-11-14T00:00:00	2024-11-08T16:00:00	3	Temperatura mínima	23.2
72184	7	Sololá	710	Panajachel	8	Panajachel	11	Noviembre	2023-11-14T00:00:00	2024-11-08T16:00:00	5	Humedad	70
72185	7	Sololá	710	Panajachel	8	Panajachel	11	Noviembre	2023-11-14T00:00:00	2024-11-08T16:00:00	6	Velocidad del viento	4.8
72186	7	Sololá	710	Panajachel	8	Panajachel	11	Noviembre	2023-11-14T00:00:00	2024-11-08T16:00:00	7	Dirección del viento	4.83
72187	7	Sololá	710	Panajachel	8	Panajachel	11	Noviembre	2023-11-14T00:00:00	2024-11-08T16:00:00	1	Precipitación	0
72188	7	Sololá	710	Panajachel	8	Panajachel	11	Noviembre	2023-11-14T00:00:00	2024-11-08T16:00:00	8	Radiación solar	106
72189	7	Sololá	710	Panajachel	8	Panajachel	11	Noviembre	2023-11-14T00:00:00	2024-11-08T17:00:00	2	Temperatura media	22.8
72190	7	Sololá	710	Panajachel	8	Panajachel	11	Noviembre	2023-11-14T00:00:00	2024-11-08T17:00:00	4	Temperatura máxima	23.4
72191	7	Sololá	710	Panajachel	8	Panajachel	11	Noviembre	2023-11-14T00:00:00	2024-11-08T17:00:00	3	Temperatura mínima	22.8
72192	7	Sololá	710	Panajachel	8	Panajachel	11	Noviembre	2023-11-14T00:00:00	2024-11-08T17:00:00	5	Humedad	69
72193	7	Sololá	710	Panajachel	8	Panajachel	11	Noviembre	2023-11-14T00:00:00	2024-11-08T17:00:00	6	Velocidad del viento	6.4
72194	7	Sololá	710	Panajachel	8	Panajachel	11	Noviembre	2023-11-14T00:00:00	2024-11-08T17:00:00	7	Dirección del viento	6.44
72195	7	Sololá	710	Panajachel	8	Panajachel	11	Noviembre	2023-11-14T00:00:00	2024-11-08T17:00:00	1	Precipitación	0
72196	7	Sololá	710	Panajachel	8	Panajachel	11	Noviembre	2023-11-14T00:00:00	2024-11-08T17:00:00	8	Radiación solar	52
72197	7	Sololá	710	Panajachel	8	Panajachel	11	Noviembre	2023-11-14T00:00:00	2024-11-08T18:00:00	2	Temperatura media	22.2
72198	7	Sololá	710	Panajachel	8	Panajachel	11	Noviembre	2023-11-14T00:00:00	2024-11-08T18:00:00	4	Temperatura máxima	22.8
72199	7	Sololá	710	Panajachel	8	Panajachel	11	Noviembre	2023-11-14T00:00:00	2024-11-08T18:00:00	3	Temperatura mínima	22.2
72200	7	Sololá	710	Panajachel	8	Panajachel	11	Noviembre	2023-11-14T00:00:00	2024-11-08T18:00:00	5	Humedad	71
72201	7	Sololá	710	Panajachel	8	Panajachel	11	Noviembre	2023-11-14T00:00:00	2024-11-08T18:00:00	6	Velocidad del viento	6.4
72202	7	Sololá	710	Panajachel	8	Panajachel	11	Noviembre	2023-11-14T00:00:00	2024-11-08T18:00:00	7	Dirección del viento	6.44
72203	7	Sololá	710	Panajachel	8	Panajachel	11	Noviembre	2023-11-14T00:00:00	2024-11-08T18:00:00	1	Precipitación	0
72204	7	Sololá	710	Panajachel	8	Panajachel	11	Noviembre	2023-11-14T00:00:00	2024-11-08T18:00:00	8	Radiación solar	5
72205	7	Sololá	710	Panajachel	8	Panajachel	11	Noviembre	2023-11-14T00:00:00	2024-11-08T19:00:00	2	Temperatura media	21.8
72206	7	Sololá	710	Panajachel	8	Panajachel	11	Noviembre	2023-11-14T00:00:00	2024-11-08T19:00:00	4	Temperatura máxima	22.2
72207	7	Sololá	710	Panajachel	8	Panajachel	11	Noviembre	2023-11-14T00:00:00	2024-11-08T19:00:00	3	Temperatura mínima	21.8
72208	7	Sololá	710	Panajachel	8	Panajachel	11	Noviembre	2023-11-14T00:00:00	2024-11-08T19:00:00	5	Humedad	71
72209	7	Sololá	710	Panajachel	8	Panajachel	11	Noviembre	2023-11-14T00:00:00	2024-11-08T19:00:00	6	Velocidad del viento	4.8
72210	7	Sololá	710	Panajachel	8	Panajachel	11	Noviembre	2023-11-14T00:00:00	2024-11-08T19:00:00	7	Dirección del viento	4.83
72211	7	Sololá	710	Panajachel	8	Panajachel	11	Noviembre	2023-11-14T00:00:00	2024-11-08T19:00:00	1	Precipitación	0
72212	7	Sololá	710	Panajachel	8	Panajachel	11	Noviembre	2023-11-14T00:00:00	2024-11-08T19:00:00	8	Radiación solar	0
72213	7	Sololá	710	Panajachel	8	Panajachel	11	Noviembre	2023-11-14T00:00:00	2024-11-08T20:00:00	2	Temperatura media	21.3
72214	7	Sololá	710	Panajachel	8	Panajachel	11	Noviembre	2023-11-14T00:00:00	2024-11-08T20:00:00	4	Temperatura máxima	21.8
72215	7	Sololá	710	Panajachel	8	Panajachel	11	Noviembre	2023-11-14T00:00:00	2024-11-08T20:00:00	3	Temperatura mínima	21.3
72216	7	Sololá	710	Panajachel	8	Panajachel	11	Noviembre	2023-11-14T00:00:00	2024-11-08T20:00:00	5	Humedad	74
72217	7	Sololá	710	Panajachel	8	Panajachel	11	Noviembre	2023-11-14T00:00:00	2024-11-08T20:00:00	6	Velocidad del viento	3.2
72218	7	Sololá	710	Panajachel	8	Panajachel	11	Noviembre	2023-11-14T00:00:00	2024-11-08T20:00:00	7	Dirección del viento	3.22
72219	7	Sololá	710	Panajachel	8	Panajachel	11	Noviembre	2023-11-14T00:00:00	2024-11-08T20:00:00	1	Precipitación	0
72220	7	Sololá	710	Panajachel	8	Panajachel	11	Noviembre	2023-11-14T00:00:00	2024-11-08T20:00:00	8	Radiación solar	0
72221	7	Sololá	710	Panajachel	8	Panajachel	11	Noviembre	2023-11-14T00:00:00	2024-11-08T21:00:00	2	Temperatura media	21.4
72222	7	Sololá	710	Panajachel	8	Panajachel	11	Noviembre	2023-11-14T00:00:00	2024-11-08T21:00:00	4	Temperatura máxima	21.4
72223	7	Sololá	710	Panajachel	8	Panajachel	11	Noviembre	2023-11-14T00:00:00	2024-11-08T21:00:00	3	Temperatura mínima	21
72224	7	Sololá	710	Panajachel	8	Panajachel	11	Noviembre	2023-11-14T00:00:00	2024-11-08T21:00:00	5	Humedad	73
72225	7	Sololá	710	Panajachel	8	Panajachel	11	Noviembre	2023-11-14T00:00:00	2024-11-08T21:00:00	6	Velocidad del viento	3.2
72226	7	Sololá	710	Panajachel	8	Panajachel	11	Noviembre	2023-11-14T00:00:00	2024-11-08T21:00:00	7	Dirección del viento	3.22
72227	7	Sololá	710	Panajachel	8	Panajachel	11	Noviembre	2023-11-14T00:00:00	2024-11-08T21:00:00	1	Precipitación	0
72228	7	Sololá	710	Panajachel	8	Panajachel	11	Noviembre	2023-11-14T00:00:00	2024-11-08T21:00:00	8	Radiación solar	0
72229	7	Sololá	710	Panajachel	8	Panajachel	11	Noviembre	2023-11-14T00:00:00	2024-11-08T22:00:00	2	Temperatura media	21.5
72230	7	Sololá	710	Panajachel	8	Panajachel	11	Noviembre	2023-11-14T00:00:00	2024-11-08T22:00:00	4	Temperatura máxima	21.6
72231	7	Sololá	710	Panajachel	8	Panajachel	11	Noviembre	2023-11-14T00:00:00	2024-11-08T22:00:00	3	Temperatura mínima	21.3
72232	7	Sololá	710	Panajachel	8	Panajachel	11	Noviembre	2023-11-14T00:00:00	2024-11-08T22:00:00	5	Humedad	72
72233	7	Sololá	710	Panajachel	8	Panajachel	11	Noviembre	2023-11-14T00:00:00	2024-11-08T22:00:00	6	Velocidad del viento	4.8
72234	7	Sololá	710	Panajachel	8	Panajachel	11	Noviembre	2023-11-14T00:00:00	2024-11-08T22:00:00	7	Dirección del viento	4.83
72235	7	Sololá	710	Panajachel	8	Panajachel	11	Noviembre	2023-11-14T00:00:00	2024-11-08T22:00:00	1	Precipitación	0
72236	7	Sololá	710	Panajachel	8	Panajachel	11	Noviembre	2023-11-14T00:00:00	2024-11-08T22:00:00	8	Radiación solar	0
72237	7	Sololá	710	Panajachel	8	Panajachel	11	Noviembre	2023-11-14T00:00:00	2024-11-08T23:00:00	2	Temperatura media	20.9
72238	7	Sololá	710	Panajachel	8	Panajachel	11	Noviembre	2023-11-14T00:00:00	2024-11-08T23:00:00	4	Temperatura máxima	21.5
72239	7	Sololá	710	Panajachel	8	Panajachel	11	Noviembre	2023-11-14T00:00:00	2024-11-08T23:00:00	3	Temperatura mínima	20.9
72240	7	Sololá	710	Panajachel	8	Panajachel	11	Noviembre	2023-11-14T00:00:00	2024-11-08T23:00:00	5	Humedad	71
72241	7	Sololá	710	Panajachel	8	Panajachel	11	Noviembre	2023-11-14T00:00:00	2024-11-08T23:00:00	6	Velocidad del viento	3.2
72242	7	Sololá	710	Panajachel	8	Panajachel	11	Noviembre	2023-11-14T00:00:00	2024-11-08T23:00:00	7	Dirección del viento	3.22
72243	7	Sololá	710	Panajachel	8	Panajachel	11	Noviembre	2023-11-14T00:00:00	2024-11-08T23:00:00	1	Precipitación	0
72244	7	Sololá	710	Panajachel	8	Panajachel	11	Noviembre	2023-11-14T00:00:00	2024-11-08T23:00:00	8	Radiación solar	0
72245	7	Sololá	710	Panajachel	8	Panajachel	11	Noviembre	2023-11-15T00:00:00	2024-11-08T00:00:00	2	Temperatura media	20.9
72246	7	Sololá	710	Panajachel	8	Panajachel	11	Noviembre	2023-11-15T00:00:00	2024-11-08T00:00:00	4	Temperatura máxima	21.2
72247	7	Sololá	710	Panajachel	8	Panajachel	11	Noviembre	2023-11-15T00:00:00	2024-11-08T00:00:00	3	Temperatura mínima	20.8
72248	7	Sololá	710	Panajachel	8	Panajachel	11	Noviembre	2023-11-15T00:00:00	2024-11-08T00:00:00	5	Humedad	72
72249	7	Sololá	710	Panajachel	8	Panajachel	11	Noviembre	2023-11-15T00:00:00	2024-11-08T00:00:00	6	Velocidad del viento	4.8
72250	7	Sololá	710	Panajachel	8	Panajachel	11	Noviembre	2023-11-15T00:00:00	2024-11-08T00:00:00	7	Dirección del viento	4.83
72251	7	Sololá	710	Panajachel	8	Panajachel	11	Noviembre	2023-11-15T00:00:00	2024-11-08T00:00:00	1	Precipitación	0
72252	7	Sololá	710	Panajachel	8	Panajachel	11	Noviembre	2023-11-15T00:00:00	2024-11-08T00:00:00	8	Radiación solar	0
72253	7	Sololá	710	Panajachel	8	Panajachel	11	Noviembre	2023-11-15T00:00:00	2024-11-08T01:00:00	2	Temperatura media	20.6
72254	7	Sololá	710	Panajachel	8	Panajachel	11	Noviembre	2023-11-15T00:00:00	2024-11-08T01:00:00	4	Temperatura máxima	20.9
72255	7	Sololá	710	Panajachel	8	Panajachel	11	Noviembre	2023-11-15T00:00:00	2024-11-08T01:00:00	3	Temperatura mínima	20.6
72256	7	Sololá	710	Panajachel	8	Panajachel	11	Noviembre	2023-11-15T00:00:00	2024-11-08T01:00:00	5	Humedad	75
72257	7	Sololá	710	Panajachel	8	Panajachel	11	Noviembre	2023-11-15T00:00:00	2024-11-08T01:00:00	6	Velocidad del viento	3.2
72258	7	Sololá	710	Panajachel	8	Panajachel	11	Noviembre	2023-11-15T00:00:00	2024-11-08T01:00:00	7	Dirección del viento	3.22
72259	7	Sololá	710	Panajachel	8	Panajachel	11	Noviembre	2023-11-15T00:00:00	2024-11-08T01:00:00	1	Precipitación	0
72260	7	Sololá	710	Panajachel	8	Panajachel	11	Noviembre	2023-11-15T00:00:00	2024-11-08T01:00:00	8	Radiación solar	0
72261	7	Sololá	710	Panajachel	8	Panajachel	11	Noviembre	2023-11-15T00:00:00	2024-11-08T02:00:00	2	Temperatura media	19.6
72262	7	Sololá	710	Panajachel	8	Panajachel	11	Noviembre	2023-11-15T00:00:00	2024-11-08T02:00:00	4	Temperatura máxima	20.6
72263	7	Sololá	710	Panajachel	8	Panajachel	11	Noviembre	2023-11-15T00:00:00	2024-11-08T02:00:00	3	Temperatura mínima	19.6
72264	7	Sololá	710	Panajachel	8	Panajachel	11	Noviembre	2023-11-15T00:00:00	2024-11-08T02:00:00	5	Humedad	81
72265	7	Sololá	710	Panajachel	8	Panajachel	11	Noviembre	2023-11-15T00:00:00	2024-11-08T02:00:00	6	Velocidad del viento	0
72266	7	Sololá	710	Panajachel	8	Panajachel	11	Noviembre	2023-11-15T00:00:00	2024-11-08T02:00:00	7	Dirección del viento	0
72267	7	Sololá	710	Panajachel	8	Panajachel	11	Noviembre	2023-11-15T00:00:00	2024-11-08T02:00:00	1	Precipitación	0
72268	7	Sololá	710	Panajachel	8	Panajachel	11	Noviembre	2023-11-15T00:00:00	2024-11-08T02:00:00	8	Radiación solar	0
72269	7	Sololá	710	Panajachel	8	Panajachel	11	Noviembre	2023-11-15T00:00:00	2024-11-08T03:00:00	2	Temperatura media	18.9
72270	7	Sololá	710	Panajachel	8	Panajachel	11	Noviembre	2023-11-15T00:00:00	2024-11-08T03:00:00	4	Temperatura máxima	19.6
72271	7	Sololá	710	Panajachel	8	Panajachel	11	Noviembre	2023-11-15T00:00:00	2024-11-08T03:00:00	3	Temperatura mínima	18.6
72272	7	Sololá	710	Panajachel	8	Panajachel	11	Noviembre	2023-11-15T00:00:00	2024-11-08T03:00:00	5	Humedad	84
72273	7	Sololá	710	Panajachel	8	Panajachel	11	Noviembre	2023-11-15T00:00:00	2024-11-08T03:00:00	6	Velocidad del viento	0
72274	7	Sololá	710	Panajachel	8	Panajachel	11	Noviembre	2023-11-15T00:00:00	2024-11-08T03:00:00	7	Dirección del viento	0
72275	7	Sololá	710	Panajachel	8	Panajachel	11	Noviembre	2023-11-15T00:00:00	2024-11-08T03:00:00	1	Precipitación	0
72276	7	Sololá	710	Panajachel	8	Panajachel	11	Noviembre	2023-11-15T00:00:00	2024-11-08T03:00:00	8	Radiación solar	0
72277	7	Sololá	710	Panajachel	8	Panajachel	11	Noviembre	2023-11-15T00:00:00	2024-11-08T04:00:00	2	Temperatura media	19
72278	7	Sololá	710	Panajachel	8	Panajachel	11	Noviembre	2023-11-15T00:00:00	2024-11-08T04:00:00	4	Temperatura máxima	19.2
72279	7	Sololá	710	Panajachel	8	Panajachel	11	Noviembre	2023-11-15T00:00:00	2024-11-08T04:00:00	3	Temperatura mínima	18.9
72280	7	Sololá	710	Panajachel	8	Panajachel	11	Noviembre	2023-11-15T00:00:00	2024-11-08T04:00:00	5	Humedad	84
72281	7	Sololá	710	Panajachel	8	Panajachel	11	Noviembre	2023-11-15T00:00:00	2024-11-08T04:00:00	6	Velocidad del viento	0
72282	7	Sololá	710	Panajachel	8	Panajachel	11	Noviembre	2023-11-15T00:00:00	2024-11-08T04:00:00	7	Dirección del viento	0
72283	7	Sololá	710	Panajachel	8	Panajachel	11	Noviembre	2023-11-15T00:00:00	2024-11-08T04:00:00	1	Precipitación	0
72284	7	Sololá	710	Panajachel	8	Panajachel	11	Noviembre	2023-11-15T00:00:00	2024-11-08T04:00:00	8	Radiación solar	0
72285	7	Sololá	710	Panajachel	8	Panajachel	11	Noviembre	2023-11-15T00:00:00	2024-11-08T05:00:00	2	Temperatura media	18.6
72286	7	Sololá	710	Panajachel	8	Panajachel	11	Noviembre	2023-11-15T00:00:00	2024-11-08T05:00:00	4	Temperatura máxima	19.1
72287	7	Sololá	710	Panajachel	8	Panajachel	11	Noviembre	2023-11-15T00:00:00	2024-11-08T05:00:00	3	Temperatura mínima	18.6
72288	7	Sololá	710	Panajachel	8	Panajachel	11	Noviembre	2023-11-15T00:00:00	2024-11-08T05:00:00	5	Humedad	84
72289	7	Sololá	710	Panajachel	8	Panajachel	11	Noviembre	2023-11-15T00:00:00	2024-11-08T05:00:00	6	Velocidad del viento	0
72290	7	Sololá	710	Panajachel	8	Panajachel	11	Noviembre	2023-11-15T00:00:00	2024-11-08T05:00:00	7	Dirección del viento	0
72291	7	Sololá	710	Panajachel	8	Panajachel	11	Noviembre	2023-11-15T00:00:00	2024-11-08T05:00:00	1	Precipitación	0
72292	7	Sololá	710	Panajachel	8	Panajachel	11	Noviembre	2023-11-15T00:00:00	2024-11-08T05:00:00	8	Radiación solar	0
72293	7	Sololá	710	Panajachel	8	Panajachel	11	Noviembre	2023-11-15T00:00:00	2024-11-08T06:00:00	2	Temperatura media	19.3
72294	7	Sololá	710	Panajachel	8	Panajachel	11	Noviembre	2023-11-15T00:00:00	2024-11-08T06:00:00	4	Temperatura máxima	19.3
72295	7	Sololá	710	Panajachel	8	Panajachel	11	Noviembre	2023-11-15T00:00:00	2024-11-08T06:00:00	3	Temperatura mínima	18.3
72296	7	Sololá	710	Panajachel	8	Panajachel	11	Noviembre	2023-11-15T00:00:00	2024-11-08T06:00:00	5	Humedad	79
72297	7	Sololá	710	Panajachel	8	Panajachel	11	Noviembre	2023-11-15T00:00:00	2024-11-08T06:00:00	6	Velocidad del viento	0
72298	7	Sololá	710	Panajachel	8	Panajachel	11	Noviembre	2023-11-15T00:00:00	2024-11-08T06:00:00	7	Dirección del viento	0
72299	7	Sololá	710	Panajachel	8	Panajachel	11	Noviembre	2023-11-15T00:00:00	2024-11-08T06:00:00	1	Precipitación	0
72300	7	Sololá	710	Panajachel	8	Panajachel	11	Noviembre	2023-11-15T00:00:00	2024-11-08T06:00:00	8	Radiación solar	0
72301	7	Sololá	710	Panajachel	8	Panajachel	11	Noviembre	2023-11-15T00:00:00	2024-11-08T07:00:00	2	Temperatura media	19.7
72302	7	Sololá	710	Panajachel	8	Panajachel	11	Noviembre	2023-11-15T00:00:00	2024-11-08T07:00:00	4	Temperatura máxima	19.7
72303	7	Sololá	710	Panajachel	8	Panajachel	11	Noviembre	2023-11-15T00:00:00	2024-11-08T07:00:00	3	Temperatura mínima	18.9
72304	7	Sololá	710	Panajachel	8	Panajachel	11	Noviembre	2023-11-15T00:00:00	2024-11-08T07:00:00	5	Humedad	83
72305	7	Sololá	710	Panajachel	8	Panajachel	11	Noviembre	2023-11-15T00:00:00	2024-11-08T07:00:00	6	Velocidad del viento	0
72306	7	Sololá	710	Panajachel	8	Panajachel	11	Noviembre	2023-11-15T00:00:00	2024-11-08T07:00:00	7	Dirección del viento	0
72307	7	Sololá	710	Panajachel	8	Panajachel	11	Noviembre	2023-11-15T00:00:00	2024-11-08T07:00:00	1	Precipitación	0
72308	7	Sololá	710	Panajachel	8	Panajachel	11	Noviembre	2023-11-15T00:00:00	2024-11-08T07:00:00	8	Radiación solar	30
72309	7	Sololá	710	Panajachel	8	Panajachel	11	Noviembre	2023-11-15T00:00:00	2024-11-08T08:00:00	2	Temperatura media	22.4
72310	7	Sololá	710	Panajachel	8	Panajachel	11	Noviembre	2023-11-15T00:00:00	2024-11-08T08:00:00	4	Temperatura máxima	22.4
72311	7	Sololá	710	Panajachel	8	Panajachel	11	Noviembre	2023-11-15T00:00:00	2024-11-08T08:00:00	3	Temperatura mínima	19.7
72312	7	Sololá	710	Panajachel	8	Panajachel	11	Noviembre	2023-11-15T00:00:00	2024-11-08T08:00:00	5	Humedad	70
72313	7	Sololá	710	Panajachel	8	Panajachel	11	Noviembre	2023-11-15T00:00:00	2024-11-08T08:00:00	6	Velocidad del viento	1.6
72314	7	Sololá	710	Panajachel	8	Panajachel	11	Noviembre	2023-11-15T00:00:00	2024-11-08T08:00:00	7	Dirección del viento	1.61
72315	7	Sololá	710	Panajachel	8	Panajachel	11	Noviembre	2023-11-15T00:00:00	2024-11-08T08:00:00	1	Precipitación	0
72316	7	Sololá	710	Panajachel	8	Panajachel	11	Noviembre	2023-11-15T00:00:00	2024-11-08T08:00:00	8	Radiación solar	264
72317	7	Sololá	710	Panajachel	8	Panajachel	11	Noviembre	2023-11-15T00:00:00	2024-11-08T09:00:00	2	Temperatura media	24.2
72318	7	Sololá	710	Panajachel	8	Panajachel	11	Noviembre	2023-11-15T00:00:00	2024-11-08T09:00:00	4	Temperatura máxima	24.2
72319	7	Sololá	710	Panajachel	8	Panajachel	11	Noviembre	2023-11-15T00:00:00	2024-11-08T09:00:00	3	Temperatura mínima	22
72320	7	Sololá	710	Panajachel	8	Panajachel	11	Noviembre	2023-11-15T00:00:00	2024-11-08T09:00:00	5	Humedad	64
72321	7	Sololá	710	Panajachel	8	Panajachel	11	Noviembre	2023-11-15T00:00:00	2024-11-08T09:00:00	6	Velocidad del viento	3.2
72322	7	Sololá	710	Panajachel	8	Panajachel	11	Noviembre	2023-11-15T00:00:00	2024-11-08T09:00:00	7	Dirección del viento	3.22
72323	7	Sololá	710	Panajachel	8	Panajachel	11	Noviembre	2023-11-15T00:00:00	2024-11-08T09:00:00	1	Precipitación	0
72324	7	Sololá	710	Panajachel	8	Panajachel	11	Noviembre	2023-11-15T00:00:00	2024-11-08T09:00:00	8	Radiación solar	396
72325	7	Sololá	710	Panajachel	8	Panajachel	11	Noviembre	2023-11-15T00:00:00	2024-11-08T10:00:00	2	Temperatura media	25.2
72326	7	Sololá	710	Panajachel	8	Panajachel	11	Noviembre	2023-11-15T00:00:00	2024-11-08T10:00:00	4	Temperatura máxima	25.2
72327	7	Sololá	710	Panajachel	8	Panajachel	11	Noviembre	2023-11-15T00:00:00	2024-11-08T10:00:00	3	Temperatura mínima	24.2
72328	7	Sololá	710	Panajachel	8	Panajachel	11	Noviembre	2023-11-15T00:00:00	2024-11-08T10:00:00	5	Humedad	61
72329	7	Sololá	710	Panajachel	8	Panajachel	11	Noviembre	2023-11-15T00:00:00	2024-11-08T10:00:00	6	Velocidad del viento	6.4
72330	7	Sololá	710	Panajachel	8	Panajachel	11	Noviembre	2023-11-15T00:00:00	2024-11-08T10:00:00	7	Dirección del viento	6.44
72331	7	Sololá	710	Panajachel	8	Panajachel	11	Noviembre	2023-11-15T00:00:00	2024-11-08T10:00:00	1	Precipitación	0
72332	7	Sololá	710	Panajachel	8	Panajachel	11	Noviembre	2023-11-15T00:00:00	2024-11-08T10:00:00	8	Radiación solar	563
72333	7	Sololá	710	Panajachel	8	Panajachel	11	Noviembre	2023-11-15T00:00:00	2024-11-08T11:00:00	2	Temperatura media	25.7
72334	7	Sololá	710	Panajachel	8	Panajachel	11	Noviembre	2023-11-15T00:00:00	2024-11-08T11:00:00	4	Temperatura máxima	25.9
72335	7	Sololá	710	Panajachel	8	Panajachel	11	Noviembre	2023-11-15T00:00:00	2024-11-08T11:00:00	3	Temperatura mínima	25.2
72336	7	Sololá	710	Panajachel	8	Panajachel	11	Noviembre	2023-11-15T00:00:00	2024-11-08T11:00:00	5	Humedad	57
72337	7	Sololá	710	Panajachel	8	Panajachel	11	Noviembre	2023-11-15T00:00:00	2024-11-08T11:00:00	6	Velocidad del viento	6.4
72338	7	Sololá	710	Panajachel	8	Panajachel	11	Noviembre	2023-11-15T00:00:00	2024-11-08T11:00:00	7	Dirección del viento	6.44
72339	7	Sololá	710	Panajachel	8	Panajachel	11	Noviembre	2023-11-15T00:00:00	2024-11-08T11:00:00	1	Precipitación	0
72340	7	Sololá	710	Panajachel	8	Panajachel	11	Noviembre	2023-11-15T00:00:00	2024-11-08T11:00:00	8	Radiación solar	718
72341	7	Sololá	710	Panajachel	8	Panajachel	11	Noviembre	2023-11-15T00:00:00	2024-11-08T12:00:00	2	Temperatura media	26.7
72342	7	Sololá	710	Panajachel	8	Panajachel	11	Noviembre	2023-11-15T00:00:00	2024-11-08T12:00:00	4	Temperatura máxima	26.7
72343	7	Sololá	710	Panajachel	8	Panajachel	11	Noviembre	2023-11-15T00:00:00	2024-11-08T12:00:00	3	Temperatura mínima	25.6
72344	7	Sololá	710	Panajachel	8	Panajachel	11	Noviembre	2023-11-15T00:00:00	2024-11-08T12:00:00	5	Humedad	56
72345	7	Sololá	710	Panajachel	8	Panajachel	11	Noviembre	2023-11-15T00:00:00	2024-11-08T12:00:00	6	Velocidad del viento	6.4
72346	7	Sololá	710	Panajachel	8	Panajachel	11	Noviembre	2023-11-15T00:00:00	2024-11-08T12:00:00	7	Dirección del viento	6.44
72347	7	Sololá	710	Panajachel	8	Panajachel	11	Noviembre	2023-11-15T00:00:00	2024-11-08T12:00:00	1	Precipitación	0
72348	7	Sololá	710	Panajachel	8	Panajachel	11	Noviembre	2023-11-15T00:00:00	2024-11-08T12:00:00	8	Radiación solar	778
72349	7	Sololá	710	Panajachel	8	Panajachel	11	Noviembre	2023-11-15T00:00:00	2024-11-08T13:00:00	2	Temperatura media	26.3
72350	7	Sololá	710	Panajachel	8	Panajachel	11	Noviembre	2023-11-15T00:00:00	2024-11-08T13:00:00	4	Temperatura máxima	27.1
72351	7	Sololá	710	Panajachel	8	Panajachel	11	Noviembre	2023-11-15T00:00:00	2024-11-08T13:00:00	3	Temperatura mínima	26
72352	7	Sololá	710	Panajachel	8	Panajachel	11	Noviembre	2023-11-15T00:00:00	2024-11-08T13:00:00	5	Humedad	58
72353	7	Sololá	710	Panajachel	8	Panajachel	11	Noviembre	2023-11-15T00:00:00	2024-11-08T13:00:00	6	Velocidad del viento	6.4
72354	7	Sololá	710	Panajachel	8	Panajachel	11	Noviembre	2023-11-15T00:00:00	2024-11-08T13:00:00	7	Dirección del viento	6.44
72355	7	Sololá	710	Panajachel	8	Panajachel	11	Noviembre	2023-11-15T00:00:00	2024-11-08T13:00:00	1	Precipitación	0
72356	7	Sololá	710	Panajachel	8	Panajachel	11	Noviembre	2023-11-15T00:00:00	2024-11-08T13:00:00	8	Radiación solar	416
72357	7	Sololá	710	Panajachel	8	Panajachel	11	Noviembre	2023-11-15T00:00:00	2024-11-08T14:00:00	2	Temperatura media	27.5
72358	7	Sololá	710	Panajachel	8	Panajachel	11	Noviembre	2023-11-15T00:00:00	2024-11-08T14:00:00	4	Temperatura máxima	27.5
72359	7	Sololá	710	Panajachel	8	Panajachel	11	Noviembre	2023-11-15T00:00:00	2024-11-08T14:00:00	3	Temperatura mínima	25.9
72360	7	Sololá	710	Panajachel	8	Panajachel	11	Noviembre	2023-11-15T00:00:00	2024-11-08T14:00:00	5	Humedad	55
72361	7	Sololá	710	Panajachel	8	Panajachel	11	Noviembre	2023-11-15T00:00:00	2024-11-08T14:00:00	6	Velocidad del viento	6.4
72362	7	Sololá	710	Panajachel	8	Panajachel	11	Noviembre	2023-11-15T00:00:00	2024-11-08T14:00:00	7	Dirección del viento	6.44
72363	7	Sololá	710	Panajachel	8	Panajachel	11	Noviembre	2023-11-15T00:00:00	2024-11-08T14:00:00	1	Precipitación	0
72364	7	Sololá	710	Panajachel	8	Panajachel	11	Noviembre	2023-11-15T00:00:00	2024-11-08T14:00:00	8	Radiación solar	585
72365	7	Sololá	710	Panajachel	8	Panajachel	11	Noviembre	2023-11-15T00:00:00	2024-11-08T15:00:00	2	Temperatura media	27.1
72366	7	Sololá	710	Panajachel	8	Panajachel	11	Noviembre	2023-11-15T00:00:00	2024-11-08T15:00:00	4	Temperatura máxima	27.5
72367	7	Sololá	710	Panajachel	8	Panajachel	11	Noviembre	2023-11-15T00:00:00	2024-11-08T15:00:00	3	Temperatura mínima	26.8
72368	7	Sololá	710	Panajachel	8	Panajachel	11	Noviembre	2023-11-15T00:00:00	2024-11-08T15:00:00	5	Humedad	55
72369	7	Sololá	710	Panajachel	8	Panajachel	11	Noviembre	2023-11-15T00:00:00	2024-11-08T15:00:00	6	Velocidad del viento	6.4
72370	7	Sololá	710	Panajachel	8	Panajachel	11	Noviembre	2023-11-15T00:00:00	2024-11-08T15:00:00	7	Dirección del viento	6.44
72371	7	Sololá	710	Panajachel	8	Panajachel	11	Noviembre	2023-11-15T00:00:00	2024-11-08T15:00:00	1	Precipitación	0
72372	7	Sololá	710	Panajachel	8	Panajachel	11	Noviembre	2023-11-15T00:00:00	2024-11-08T15:00:00	8	Radiación solar	421
72373	7	Sololá	710	Panajachel	8	Panajachel	11	Noviembre	2023-11-15T00:00:00	2024-11-08T16:00:00	2	Temperatura media	26
72374	7	Sololá	710	Panajachel	8	Panajachel	11	Noviembre	2023-11-15T00:00:00	2024-11-08T16:00:00	4	Temperatura máxima	27.1
72375	7	Sololá	710	Panajachel	8	Panajachel	11	Noviembre	2023-11-15T00:00:00	2024-11-08T16:00:00	3	Temperatura mínima	25.8
72376	7	Sololá	710	Panajachel	8	Panajachel	11	Noviembre	2023-11-15T00:00:00	2024-11-08T16:00:00	5	Humedad	59
72377	7	Sololá	710	Panajachel	8	Panajachel	11	Noviembre	2023-11-15T00:00:00	2024-11-08T16:00:00	6	Velocidad del viento	6.4
72378	7	Sololá	710	Panajachel	8	Panajachel	11	Noviembre	2023-11-15T00:00:00	2024-11-08T16:00:00	7	Dirección del viento	6.44
72379	7	Sololá	710	Panajachel	8	Panajachel	11	Noviembre	2023-11-15T00:00:00	2024-11-08T16:00:00	1	Precipitación	0
72380	7	Sololá	710	Panajachel	8	Panajachel	11	Noviembre	2023-11-15T00:00:00	2024-11-08T16:00:00	8	Radiación solar	219
72381	7	Sololá	710	Panajachel	8	Panajachel	11	Noviembre	2023-11-15T00:00:00	2024-11-08T17:00:00	2	Temperatura media	24.4
72382	7	Sololá	710	Panajachel	8	Panajachel	11	Noviembre	2023-11-15T00:00:00	2024-11-08T17:00:00	4	Temperatura máxima	26
72383	7	Sololá	710	Panajachel	8	Panajachel	11	Noviembre	2023-11-15T00:00:00	2024-11-08T17:00:00	3	Temperatura mínima	24.4
72384	7	Sololá	710	Panajachel	8	Panajachel	11	Noviembre	2023-11-15T00:00:00	2024-11-08T17:00:00	5	Humedad	62
72385	7	Sololá	710	Panajachel	8	Panajachel	11	Noviembre	2023-11-15T00:00:00	2024-11-08T17:00:00	6	Velocidad del viento	6.4
72386	7	Sololá	710	Panajachel	8	Panajachel	11	Noviembre	2023-11-15T00:00:00	2024-11-08T17:00:00	7	Dirección del viento	6.44
72387	7	Sololá	710	Panajachel	8	Panajachel	11	Noviembre	2023-11-15T00:00:00	2024-11-08T17:00:00	1	Precipitación	0
72388	7	Sololá	710	Panajachel	8	Panajachel	11	Noviembre	2023-11-15T00:00:00	2024-11-08T17:00:00	8	Radiación solar	140
72389	7	Sololá	710	Panajachel	8	Panajachel	11	Noviembre	2023-11-15T00:00:00	2024-11-08T18:00:00	2	Temperatura media	22.2
72390	7	Sololá	710	Panajachel	8	Panajachel	11	Noviembre	2023-11-15T00:00:00	2024-11-08T18:00:00	4	Temperatura máxima	24.4
72391	7	Sololá	710	Panajachel	8	Panajachel	11	Noviembre	2023-11-15T00:00:00	2024-11-08T18:00:00	3	Temperatura mínima	22.2
72392	7	Sololá	710	Panajachel	8	Panajachel	11	Noviembre	2023-11-15T00:00:00	2024-11-08T18:00:00	5	Humedad	68
72393	7	Sololá	710	Panajachel	8	Panajachel	11	Noviembre	2023-11-15T00:00:00	2024-11-08T18:00:00	6	Velocidad del viento	8
72394	7	Sololá	710	Panajachel	8	Panajachel	11	Noviembre	2023-11-15T00:00:00	2024-11-08T18:00:00	7	Dirección del viento	8.05
72395	7	Sololá	710	Panajachel	8	Panajachel	11	Noviembre	2023-11-15T00:00:00	2024-11-08T18:00:00	1	Precipitación	0
72396	7	Sololá	710	Panajachel	8	Panajachel	11	Noviembre	2023-11-15T00:00:00	2024-11-08T18:00:00	8	Radiación solar	8
72397	7	Sololá	710	Panajachel	8	Panajachel	11	Noviembre	2023-11-15T00:00:00	2024-11-08T19:00:00	2	Temperatura media	21.3
72398	7	Sololá	710	Panajachel	8	Panajachel	11	Noviembre	2023-11-15T00:00:00	2024-11-08T19:00:00	4	Temperatura máxima	22.2
72399	7	Sololá	710	Panajachel	8	Panajachel	11	Noviembre	2023-11-15T00:00:00	2024-11-08T19:00:00	3	Temperatura mínima	21.3
72400	7	Sololá	710	Panajachel	8	Panajachel	11	Noviembre	2023-11-15T00:00:00	2024-11-08T19:00:00	5	Humedad	71
72401	7	Sololá	710	Panajachel	8	Panajachel	11	Noviembre	2023-11-15T00:00:00	2024-11-08T19:00:00	6	Velocidad del viento	4.8
72402	7	Sololá	710	Panajachel	8	Panajachel	11	Noviembre	2023-11-15T00:00:00	2024-11-08T19:00:00	7	Dirección del viento	4.83
72403	7	Sololá	710	Panajachel	8	Panajachel	11	Noviembre	2023-11-15T00:00:00	2024-11-08T19:00:00	1	Precipitación	0
72404	7	Sololá	710	Panajachel	8	Panajachel	11	Noviembre	2023-11-15T00:00:00	2024-11-08T19:00:00	8	Radiación solar	0
72405	7	Sololá	710	Panajachel	8	Panajachel	11	Noviembre	2023-11-15T00:00:00	2024-11-08T20:00:00	2	Temperatura media	21.1
72406	7	Sololá	710	Panajachel	8	Panajachel	11	Noviembre	2023-11-15T00:00:00	2024-11-08T20:00:00	4	Temperatura máxima	21.3
72407	7	Sololá	710	Panajachel	8	Panajachel	11	Noviembre	2023-11-15T00:00:00	2024-11-08T20:00:00	3	Temperatura mínima	20.7
72408	7	Sololá	710	Panajachel	8	Panajachel	11	Noviembre	2023-11-15T00:00:00	2024-11-08T20:00:00	5	Humedad	72
72409	7	Sololá	710	Panajachel	8	Panajachel	11	Noviembre	2023-11-15T00:00:00	2024-11-08T20:00:00	6	Velocidad del viento	3.2
72410	7	Sololá	710	Panajachel	8	Panajachel	11	Noviembre	2023-11-15T00:00:00	2024-11-08T20:00:00	7	Dirección del viento	3.22
72411	7	Sololá	710	Panajachel	8	Panajachel	11	Noviembre	2023-11-15T00:00:00	2024-11-08T20:00:00	1	Precipitación	0
72412	7	Sololá	710	Panajachel	8	Panajachel	11	Noviembre	2023-11-15T00:00:00	2024-11-08T20:00:00	8	Radiación solar	0
72413	7	Sololá	710	Panajachel	8	Panajachel	11	Noviembre	2023-11-15T00:00:00	2024-11-08T21:00:00	2	Temperatura media	20.6
72414	7	Sololá	710	Panajachel	8	Panajachel	11	Noviembre	2023-11-15T00:00:00	2024-11-08T21:00:00	4	Temperatura máxima	21.1
72415	7	Sololá	710	Panajachel	8	Panajachel	11	Noviembre	2023-11-15T00:00:00	2024-11-08T21:00:00	3	Temperatura mínima	20.6
72416	7	Sololá	710	Panajachel	8	Panajachel	11	Noviembre	2023-11-15T00:00:00	2024-11-08T21:00:00	5	Humedad	73
72417	7	Sololá	710	Panajachel	8	Panajachel	11	Noviembre	2023-11-15T00:00:00	2024-11-08T21:00:00	6	Velocidad del viento	3.2
72418	7	Sololá	710	Panajachel	8	Panajachel	11	Noviembre	2023-11-15T00:00:00	2024-11-08T21:00:00	7	Dirección del viento	3.22
72419	7	Sololá	710	Panajachel	8	Panajachel	11	Noviembre	2023-11-15T00:00:00	2024-11-08T21:00:00	1	Precipitación	0
72420	7	Sololá	710	Panajachel	8	Panajachel	11	Noviembre	2023-11-15T00:00:00	2024-11-08T21:00:00	8	Radiación solar	0
72421	7	Sololá	710	Panajachel	8	Panajachel	11	Noviembre	2023-11-15T00:00:00	2024-11-08T22:00:00	2	Temperatura media	20.2
72422	7	Sololá	710	Panajachel	8	Panajachel	11	Noviembre	2023-11-15T00:00:00	2024-11-08T22:00:00	4	Temperatura máxima	20.7
72423	7	Sololá	710	Panajachel	8	Panajachel	11	Noviembre	2023-11-15T00:00:00	2024-11-08T22:00:00	3	Temperatura mínima	20.1
72424	7	Sololá	710	Panajachel	8	Panajachel	11	Noviembre	2023-11-15T00:00:00	2024-11-08T22:00:00	5	Humedad	71
72425	7	Sololá	710	Panajachel	8	Panajachel	11	Noviembre	2023-11-15T00:00:00	2024-11-08T22:00:00	6	Velocidad del viento	1.6
72426	7	Sololá	710	Panajachel	8	Panajachel	11	Noviembre	2023-11-15T00:00:00	2024-11-08T22:00:00	7	Dirección del viento	1.61
72427	7	Sololá	710	Panajachel	8	Panajachel	11	Noviembre	2023-11-15T00:00:00	2024-11-08T22:00:00	1	Precipitación	0
72428	7	Sololá	710	Panajachel	8	Panajachel	11	Noviembre	2023-11-15T00:00:00	2024-11-08T22:00:00	8	Radiación solar	0
72429	7	Sololá	710	Panajachel	8	Panajachel	11	Noviembre	2023-11-15T00:00:00	2024-11-08T23:00:00	2	Temperatura media	20.3
72430	7	Sololá	710	Panajachel	8	Panajachel	11	Noviembre	2023-11-15T00:00:00	2024-11-08T23:00:00	4	Temperatura máxima	20.5
72431	7	Sololá	710	Panajachel	8	Panajachel	11	Noviembre	2023-11-15T00:00:00	2024-11-08T23:00:00	3	Temperatura mínima	20.1
72432	7	Sololá	710	Panajachel	8	Panajachel	11	Noviembre	2023-11-15T00:00:00	2024-11-08T23:00:00	5	Humedad	67
72433	7	Sololá	710	Panajachel	8	Panajachel	11	Noviembre	2023-11-15T00:00:00	2024-11-08T23:00:00	6	Velocidad del viento	3.2
72434	7	Sololá	710	Panajachel	8	Panajachel	11	Noviembre	2023-11-15T00:00:00	2024-11-08T23:00:00	7	Dirección del viento	3.22
72435	7	Sololá	710	Panajachel	8	Panajachel	11	Noviembre	2023-11-15T00:00:00	2024-11-08T23:00:00	1	Precipitación	0
72436	7	Sololá	710	Panajachel	8	Panajachel	11	Noviembre	2023-11-15T00:00:00	2024-11-08T23:00:00	8	Radiación solar	0
72437	7	Sololá	710	Panajachel	8	Panajachel	11	Noviembre	2023-11-16T00:00:00	2024-11-08T00:00:00	2	Temperatura media	19.9
72438	7	Sololá	710	Panajachel	8	Panajachel	11	Noviembre	2023-11-16T00:00:00	2024-11-08T00:00:00	4	Temperatura máxima	20.6
72439	7	Sololá	710	Panajachel	8	Panajachel	11	Noviembre	2023-11-16T00:00:00	2024-11-08T00:00:00	3	Temperatura mínima	19.9
72440	7	Sololá	710	Panajachel	8	Panajachel	11	Noviembre	2023-11-16T00:00:00	2024-11-08T00:00:00	5	Humedad	73
72441	7	Sololá	710	Panajachel	8	Panajachel	11	Noviembre	2023-11-16T00:00:00	2024-11-08T00:00:00	6	Velocidad del viento	4.8
72442	7	Sololá	710	Panajachel	8	Panajachel	11	Noviembre	2023-11-16T00:00:00	2024-11-08T00:00:00	7	Dirección del viento	4.83
72443	7	Sololá	710	Panajachel	8	Panajachel	11	Noviembre	2023-11-16T00:00:00	2024-11-08T00:00:00	1	Precipitación	0
72444	7	Sololá	710	Panajachel	8	Panajachel	11	Noviembre	2023-11-16T00:00:00	2024-11-08T00:00:00	8	Radiación solar	0
72445	7	Sololá	710	Panajachel	8	Panajachel	11	Noviembre	2023-11-16T00:00:00	2024-11-08T01:00:00	2	Temperatura media	17.7
72446	7	Sololá	710	Panajachel	8	Panajachel	11	Noviembre	2023-11-16T00:00:00	2024-11-08T01:00:00	4	Temperatura máxima	19.9
72447	7	Sololá	710	Panajachel	8	Panajachel	11	Noviembre	2023-11-16T00:00:00	2024-11-08T01:00:00	3	Temperatura mínima	17.7
72448	7	Sololá	710	Panajachel	8	Panajachel	11	Noviembre	2023-11-16T00:00:00	2024-11-08T01:00:00	5	Humedad	79
72449	7	Sololá	710	Panajachel	8	Panajachel	11	Noviembre	2023-11-16T00:00:00	2024-11-08T01:00:00	6	Velocidad del viento	0
72450	7	Sololá	710	Panajachel	8	Panajachel	11	Noviembre	2023-11-16T00:00:00	2024-11-08T01:00:00	7	Dirección del viento	0
72451	7	Sololá	710	Panajachel	8	Panajachel	11	Noviembre	2023-11-16T00:00:00	2024-11-08T01:00:00	1	Precipitación	0
72452	7	Sololá	710	Panajachel	8	Panajachel	11	Noviembre	2023-11-16T00:00:00	2024-11-08T01:00:00	8	Radiación solar	0
72453	7	Sololá	710	Panajachel	8	Panajachel	11	Noviembre	2023-11-16T00:00:00	2024-11-08T02:00:00	2	Temperatura media	17.3
72454	7	Sololá	710	Panajachel	8	Panajachel	11	Noviembre	2023-11-16T00:00:00	2024-11-08T02:00:00	4	Temperatura máxima	17.8
72455	7	Sololá	710	Panajachel	8	Panajachel	11	Noviembre	2023-11-16T00:00:00	2024-11-08T02:00:00	3	Temperatura mínima	17.2
72456	7	Sololá	710	Panajachel	8	Panajachel	11	Noviembre	2023-11-16T00:00:00	2024-11-08T02:00:00	5	Humedad	79
72457	7	Sololá	710	Panajachel	8	Panajachel	11	Noviembre	2023-11-16T00:00:00	2024-11-08T02:00:00	6	Velocidad del viento	1.6
72458	7	Sololá	710	Panajachel	8	Panajachel	11	Noviembre	2023-11-16T00:00:00	2024-11-08T02:00:00	7	Dirección del viento	1.61
72459	7	Sololá	710	Panajachel	8	Panajachel	11	Noviembre	2023-11-16T00:00:00	2024-11-08T02:00:00	1	Precipitación	0
72460	7	Sololá	710	Panajachel	8	Panajachel	11	Noviembre	2023-11-16T00:00:00	2024-11-08T02:00:00	8	Radiación solar	0
72461	7	Sololá	710	Panajachel	8	Panajachel	11	Noviembre	2023-11-16T00:00:00	2024-11-08T03:00:00	2	Temperatura media	18.8
72462	7	Sololá	710	Panajachel	8	Panajachel	11	Noviembre	2023-11-16T00:00:00	2024-11-08T03:00:00	4	Temperatura máxima	18.8
72463	7	Sololá	710	Panajachel	8	Panajachel	11	Noviembre	2023-11-16T00:00:00	2024-11-08T03:00:00	3	Temperatura mínima	17.3
72464	7	Sololá	710	Panajachel	8	Panajachel	11	Noviembre	2023-11-16T00:00:00	2024-11-08T03:00:00	5	Humedad	73
72465	7	Sololá	710	Panajachel	8	Panajachel	11	Noviembre	2023-11-16T00:00:00	2024-11-08T03:00:00	6	Velocidad del viento	1.6
72466	7	Sololá	710	Panajachel	8	Panajachel	11	Noviembre	2023-11-16T00:00:00	2024-11-08T03:00:00	7	Dirección del viento	1.61
72467	7	Sololá	710	Panajachel	8	Panajachel	11	Noviembre	2023-11-16T00:00:00	2024-11-08T03:00:00	1	Precipitación	0
72468	7	Sololá	710	Panajachel	8	Panajachel	11	Noviembre	2023-11-16T00:00:00	2024-11-08T03:00:00	8	Radiación solar	0
72469	7	Sololá	710	Panajachel	8	Panajachel	11	Noviembre	2023-11-16T00:00:00	2024-11-08T04:00:00	2	Temperatura media	19.7
72470	7	Sololá	710	Panajachel	8	Panajachel	11	Noviembre	2023-11-16T00:00:00	2024-11-08T04:00:00	4	Temperatura máxima	19.7
72471	7	Sololá	710	Panajachel	8	Panajachel	11	Noviembre	2023-11-16T00:00:00	2024-11-08T04:00:00	3	Temperatura mínima	18.2
72472	7	Sololá	710	Panajachel	8	Panajachel	11	Noviembre	2023-11-16T00:00:00	2024-11-08T04:00:00	5	Humedad	69
72473	7	Sololá	710	Panajachel	8	Panajachel	11	Noviembre	2023-11-16T00:00:00	2024-11-08T04:00:00	6	Velocidad del viento	1.6
72474	7	Sololá	710	Panajachel	8	Panajachel	11	Noviembre	2023-11-16T00:00:00	2024-11-08T04:00:00	7	Dirección del viento	1.61
72475	7	Sololá	710	Panajachel	8	Panajachel	11	Noviembre	2023-11-16T00:00:00	2024-11-08T04:00:00	1	Precipitación	0
72476	7	Sololá	710	Panajachel	8	Panajachel	11	Noviembre	2023-11-16T00:00:00	2024-11-08T04:00:00	8	Radiación solar	0
72477	7	Sololá	710	Panajachel	8	Panajachel	11	Noviembre	2023-11-16T00:00:00	2024-11-08T05:00:00	2	Temperatura media	20.4
72478	7	Sololá	710	Panajachel	8	Panajachel	11	Noviembre	2023-11-16T00:00:00	2024-11-08T05:00:00	4	Temperatura máxima	20.8
72479	7	Sololá	710	Panajachel	8	Panajachel	11	Noviembre	2023-11-16T00:00:00	2024-11-08T05:00:00	3	Temperatura mínima	19.1
72480	7	Sololá	710	Panajachel	8	Panajachel	11	Noviembre	2023-11-16T00:00:00	2024-11-08T05:00:00	5	Humedad	66
72481	7	Sololá	710	Panajachel	8	Panajachel	11	Noviembre	2023-11-16T00:00:00	2024-11-08T05:00:00	6	Velocidad del viento	3.2
72482	7	Sololá	710	Panajachel	8	Panajachel	11	Noviembre	2023-11-16T00:00:00	2024-11-08T05:00:00	7	Dirección del viento	3.22
72483	7	Sololá	710	Panajachel	8	Panajachel	11	Noviembre	2023-11-16T00:00:00	2024-11-08T05:00:00	1	Precipitación	0
72484	7	Sololá	710	Panajachel	8	Panajachel	11	Noviembre	2023-11-16T00:00:00	2024-11-08T05:00:00	8	Radiación solar	0
72485	7	Sololá	710	Panajachel	8	Panajachel	11	Noviembre	2023-11-16T00:00:00	2024-11-08T06:00:00	2	Temperatura media	19.2
72486	7	Sololá	710	Panajachel	8	Panajachel	11	Noviembre	2023-11-16T00:00:00	2024-11-08T06:00:00	4	Temperatura máxima	20.4
72487	7	Sololá	710	Panajachel	8	Panajachel	11	Noviembre	2023-11-16T00:00:00	2024-11-08T06:00:00	3	Temperatura mínima	19
72488	7	Sololá	710	Panajachel	8	Panajachel	11	Noviembre	2023-11-16T00:00:00	2024-11-08T06:00:00	5	Humedad	69
72489	7	Sololá	710	Panajachel	8	Panajachel	11	Noviembre	2023-11-16T00:00:00	2024-11-08T06:00:00	6	Velocidad del viento	1.6
72490	7	Sololá	710	Panajachel	8	Panajachel	11	Noviembre	2023-11-16T00:00:00	2024-11-08T06:00:00	7	Dirección del viento	1.61
72491	7	Sololá	710	Panajachel	8	Panajachel	11	Noviembre	2023-11-16T00:00:00	2024-11-08T06:00:00	1	Precipitación	0
72492	7	Sololá	710	Panajachel	8	Panajachel	11	Noviembre	2023-11-16T00:00:00	2024-11-08T06:00:00	8	Radiación solar	0
72493	7	Sololá	710	Panajachel	8	Panajachel	11	Noviembre	2023-11-16T00:00:00	2024-11-08T07:00:00	2	Temperatura media	20.3
72494	7	Sololá	710	Panajachel	8	Panajachel	11	Noviembre	2023-11-16T00:00:00	2024-11-08T07:00:00	4	Temperatura máxima	20.3
72495	7	Sololá	710	Panajachel	8	Panajachel	11	Noviembre	2023-11-16T00:00:00	2024-11-08T07:00:00	3	Temperatura mínima	19.1
72496	7	Sololá	710	Panajachel	8	Panajachel	11	Noviembre	2023-11-16T00:00:00	2024-11-08T07:00:00	5	Humedad	67
72497	7	Sololá	710	Panajachel	8	Panajachel	11	Noviembre	2023-11-16T00:00:00	2024-11-08T07:00:00	6	Velocidad del viento	1.6
72498	7	Sololá	710	Panajachel	8	Panajachel	11	Noviembre	2023-11-16T00:00:00	2024-11-08T07:00:00	7	Dirección del viento	1.61
72499	7	Sololá	710	Panajachel	8	Panajachel	11	Noviembre	2023-11-16T00:00:00	2024-11-08T07:00:00	1	Precipitación	0
72500	7	Sololá	710	Panajachel	8	Panajachel	11	Noviembre	2023-11-16T00:00:00	2024-11-08T07:00:00	8	Radiación solar	18
72501	7	Sololá	710	Panajachel	8	Panajachel	11	Noviembre	2023-11-16T00:00:00	2024-11-08T08:00:00	2	Temperatura media	22.9
72502	7	Sololá	710	Panajachel	8	Panajachel	11	Noviembre	2023-11-16T00:00:00	2024-11-08T08:00:00	4	Temperatura máxima	22.9
72503	7	Sololá	710	Panajachel	8	Panajachel	11	Noviembre	2023-11-16T00:00:00	2024-11-08T08:00:00	3	Temperatura mínima	20.3
72504	7	Sololá	710	Panajachel	8	Panajachel	11	Noviembre	2023-11-16T00:00:00	2024-11-08T08:00:00	5	Humedad	60
72505	7	Sololá	710	Panajachel	8	Panajachel	11	Noviembre	2023-11-16T00:00:00	2024-11-08T08:00:00	6	Velocidad del viento	3.2
72506	7	Sololá	710	Panajachel	8	Panajachel	11	Noviembre	2023-11-16T00:00:00	2024-11-08T08:00:00	7	Dirección del viento	3.22
72507	7	Sololá	710	Panajachel	8	Panajachel	11	Noviembre	2023-11-16T00:00:00	2024-11-08T08:00:00	1	Precipitación	0
72508	7	Sololá	710	Panajachel	8	Panajachel	11	Noviembre	2023-11-16T00:00:00	2024-11-08T08:00:00	8	Radiación solar	243
72509	7	Sololá	710	Panajachel	8	Panajachel	11	Noviembre	2023-11-16T00:00:00	2024-11-08T09:00:00	2	Temperatura media	24.4
72510	7	Sololá	710	Panajachel	8	Panajachel	11	Noviembre	2023-11-16T00:00:00	2024-11-08T09:00:00	4	Temperatura máxima	24.4
72511	7	Sololá	710	Panajachel	8	Panajachel	11	Noviembre	2023-11-16T00:00:00	2024-11-08T09:00:00	3	Temperatura mínima	22.9
72512	7	Sololá	710	Panajachel	8	Panajachel	11	Noviembre	2023-11-16T00:00:00	2024-11-08T09:00:00	5	Humedad	55
72513	7	Sololá	710	Panajachel	8	Panajachel	11	Noviembre	2023-11-16T00:00:00	2024-11-08T09:00:00	6	Velocidad del viento	4.8
72514	7	Sololá	710	Panajachel	8	Panajachel	11	Noviembre	2023-11-16T00:00:00	2024-11-08T09:00:00	7	Dirección del viento	4.83
72515	7	Sololá	710	Panajachel	8	Panajachel	11	Noviembre	2023-11-16T00:00:00	2024-11-08T09:00:00	1	Precipitación	0
72516	7	Sololá	710	Panajachel	8	Panajachel	11	Noviembre	2023-11-16T00:00:00	2024-11-08T09:00:00	8	Radiación solar	455
72517	7	Sololá	710	Panajachel	8	Panajachel	11	Noviembre	2023-11-16T00:00:00	2024-11-08T10:00:00	2	Temperatura media	25.3
72518	7	Sololá	710	Panajachel	8	Panajachel	11	Noviembre	2023-11-16T00:00:00	2024-11-08T10:00:00	4	Temperatura máxima	25.3
72519	7	Sololá	710	Panajachel	8	Panajachel	11	Noviembre	2023-11-16T00:00:00	2024-11-08T10:00:00	3	Temperatura mínima	24.3
72520	7	Sololá	710	Panajachel	8	Panajachel	11	Noviembre	2023-11-16T00:00:00	2024-11-08T10:00:00	5	Humedad	55
72521	7	Sololá	710	Panajachel	8	Panajachel	11	Noviembre	2023-11-16T00:00:00	2024-11-08T10:00:00	6	Velocidad del viento	6.4
72522	7	Sololá	710	Panajachel	8	Panajachel	11	Noviembre	2023-11-16T00:00:00	2024-11-08T10:00:00	7	Dirección del viento	6.44
72523	7	Sololá	710	Panajachel	8	Panajachel	11	Noviembre	2023-11-16T00:00:00	2024-11-08T10:00:00	1	Precipitación	0
72524	7	Sololá	710	Panajachel	8	Panajachel	11	Noviembre	2023-11-16T00:00:00	2024-11-08T10:00:00	8	Radiación solar	627
72525	7	Sololá	710	Panajachel	8	Panajachel	11	Noviembre	2023-11-16T00:00:00	2024-11-08T11:00:00	2	Temperatura media	26
72526	7	Sololá	710	Panajachel	8	Panajachel	11	Noviembre	2023-11-16T00:00:00	2024-11-08T11:00:00	4	Temperatura máxima	26.1
72527	7	Sololá	710	Panajachel	8	Panajachel	11	Noviembre	2023-11-16T00:00:00	2024-11-08T11:00:00	3	Temperatura mínima	25.2
72528	7	Sololá	710	Panajachel	8	Panajachel	11	Noviembre	2023-11-16T00:00:00	2024-11-08T11:00:00	5	Humedad	53
72529	7	Sololá	710	Panajachel	8	Panajachel	11	Noviembre	2023-11-16T00:00:00	2024-11-08T11:00:00	6	Velocidad del viento	6.4
72530	7	Sololá	710	Panajachel	8	Panajachel	11	Noviembre	2023-11-16T00:00:00	2024-11-08T11:00:00	7	Dirección del viento	6.44
72531	7	Sololá	710	Panajachel	8	Panajachel	11	Noviembre	2023-11-16T00:00:00	2024-11-08T11:00:00	1	Precipitación	0
72532	7	Sololá	710	Panajachel	8	Panajachel	11	Noviembre	2023-11-16T00:00:00	2024-11-08T11:00:00	8	Radiación solar	743
72533	7	Sololá	710	Panajachel	8	Panajachel	11	Noviembre	2023-11-16T00:00:00	2024-11-08T12:00:00	2	Temperatura media	26.3
72534	7	Sololá	710	Panajachel	8	Panajachel	11	Noviembre	2023-11-16T00:00:00	2024-11-08T12:00:00	4	Temperatura máxima	26.3
72535	7	Sololá	710	Panajachel	8	Panajachel	11	Noviembre	2023-11-16T00:00:00	2024-11-08T12:00:00	3	Temperatura mínima	25.7
72536	7	Sololá	710	Panajachel	8	Panajachel	11	Noviembre	2023-11-16T00:00:00	2024-11-08T12:00:00	5	Humedad	53
72537	7	Sololá	710	Panajachel	8	Panajachel	11	Noviembre	2023-11-16T00:00:00	2024-11-08T12:00:00	6	Velocidad del viento	11.3
72538	7	Sololá	710	Panajachel	8	Panajachel	11	Noviembre	2023-11-16T00:00:00	2024-11-08T12:00:00	7	Dirección del viento	11.27
72539	7	Sololá	710	Panajachel	8	Panajachel	11	Noviembre	2023-11-16T00:00:00	2024-11-08T12:00:00	1	Precipitación	0
72540	7	Sololá	710	Panajachel	8	Panajachel	11	Noviembre	2023-11-16T00:00:00	2024-11-08T12:00:00	8	Radiación solar	800
72541	7	Sololá	710	Panajachel	8	Panajachel	11	Noviembre	2023-11-16T00:00:00	2024-11-08T13:00:00	2	Temperatura media	26.2
72542	7	Sololá	710	Panajachel	8	Panajachel	11	Noviembre	2023-11-16T00:00:00	2024-11-08T13:00:00	4	Temperatura máxima	26.8
72543	7	Sololá	710	Panajachel	8	Panajachel	11	Noviembre	2023-11-16T00:00:00	2024-11-08T13:00:00	3	Temperatura mínima	26.2
72544	7	Sololá	710	Panajachel	8	Panajachel	11	Noviembre	2023-11-16T00:00:00	2024-11-08T13:00:00	5	Humedad	68
72545	7	Sololá	710	Panajachel	8	Panajachel	11	Noviembre	2023-11-16T00:00:00	2024-11-08T13:00:00	6	Velocidad del viento	9.7
72546	7	Sololá	710	Panajachel	8	Panajachel	11	Noviembre	2023-11-16T00:00:00	2024-11-08T13:00:00	7	Dirección del viento	9.66
72547	7	Sololá	710	Panajachel	8	Panajachel	11	Noviembre	2023-11-16T00:00:00	2024-11-08T13:00:00	1	Precipitación	0
72548	7	Sololá	710	Panajachel	8	Panajachel	11	Noviembre	2023-11-16T00:00:00	2024-11-08T13:00:00	8	Radiación solar	782
72549	7	Sololá	710	Panajachel	8	Panajachel	11	Noviembre	2023-11-16T00:00:00	2024-11-08T14:00:00	2	Temperatura media	24.9
72550	7	Sololá	710	Panajachel	8	Panajachel	11	Noviembre	2023-11-16T00:00:00	2024-11-08T14:00:00	4	Temperatura máxima	26.2
72551	7	Sololá	710	Panajachel	8	Panajachel	11	Noviembre	2023-11-16T00:00:00	2024-11-08T14:00:00	3	Temperatura mínima	23.8
72552	7	Sololá	710	Panajachel	8	Panajachel	11	Noviembre	2023-11-16T00:00:00	2024-11-08T14:00:00	5	Humedad	77
72553	7	Sololá	710	Panajachel	8	Panajachel	11	Noviembre	2023-11-16T00:00:00	2024-11-08T14:00:00	6	Velocidad del viento	9.7
72554	7	Sololá	710	Panajachel	8	Panajachel	11	Noviembre	2023-11-16T00:00:00	2024-11-08T14:00:00	7	Dirección del viento	9.66
72555	7	Sololá	710	Panajachel	8	Panajachel	11	Noviembre	2023-11-16T00:00:00	2024-11-08T14:00:00	1	Precipitación	0
72556	7	Sololá	710	Panajachel	8	Panajachel	11	Noviembre	2023-11-16T00:00:00	2024-11-08T14:00:00	8	Radiación solar	693
72557	7	Sololá	710	Panajachel	8	Panajachel	11	Noviembre	2023-11-16T00:00:00	2024-11-08T15:00:00	2	Temperatura media	24.3
72558	7	Sololá	710	Panajachel	8	Panajachel	11	Noviembre	2023-11-16T00:00:00	2024-11-08T15:00:00	4	Temperatura máxima	25.1
72559	7	Sololá	710	Panajachel	8	Panajachel	11	Noviembre	2023-11-16T00:00:00	2024-11-08T15:00:00	3	Temperatura mínima	24
72560	7	Sololá	710	Panajachel	8	Panajachel	11	Noviembre	2023-11-16T00:00:00	2024-11-08T15:00:00	5	Humedad	78
72561	7	Sololá	710	Panajachel	8	Panajachel	11	Noviembre	2023-11-16T00:00:00	2024-11-08T15:00:00	6	Velocidad del viento	4.8
72562	7	Sololá	710	Panajachel	8	Panajachel	11	Noviembre	2023-11-16T00:00:00	2024-11-08T15:00:00	7	Dirección del viento	4.83
72563	7	Sololá	710	Panajachel	8	Panajachel	11	Noviembre	2023-11-16T00:00:00	2024-11-08T15:00:00	1	Precipitación	0
72564	7	Sololá	710	Panajachel	8	Panajachel	11	Noviembre	2023-11-16T00:00:00	2024-11-08T15:00:00	8	Radiación solar	560
72565	7	Sololá	710	Panajachel	8	Panajachel	11	Noviembre	2023-11-16T00:00:00	2024-11-08T16:00:00	2	Temperatura media	22.8
72566	7	Sololá	710	Panajachel	8	Panajachel	11	Noviembre	2023-11-16T00:00:00	2024-11-08T16:00:00	4	Temperatura máxima	25
72567	7	Sololá	710	Panajachel	8	Panajachel	11	Noviembre	2023-11-16T00:00:00	2024-11-08T16:00:00	3	Temperatura mínima	22.7
72568	7	Sololá	710	Panajachel	8	Panajachel	11	Noviembre	2023-11-16T00:00:00	2024-11-08T16:00:00	5	Humedad	85
72569	7	Sololá	710	Panajachel	8	Panajachel	11	Noviembre	2023-11-16T00:00:00	2024-11-08T16:00:00	6	Velocidad del viento	3.2
72570	7	Sololá	710	Panajachel	8	Panajachel	11	Noviembre	2023-11-16T00:00:00	2024-11-08T16:00:00	7	Dirección del viento	3.22
72571	7	Sololá	710	Panajachel	8	Panajachel	11	Noviembre	2023-11-16T00:00:00	2024-11-08T16:00:00	1	Precipitación	0
72572	7	Sololá	710	Panajachel	8	Panajachel	11	Noviembre	2023-11-16T00:00:00	2024-11-08T16:00:00	8	Radiación solar	179
72573	7	Sololá	710	Panajachel	8	Panajachel	11	Noviembre	2023-11-16T00:00:00	2024-11-08T17:00:00	2	Temperatura media	21.5
72574	7	Sololá	710	Panajachel	8	Panajachel	11	Noviembre	2023-11-16T00:00:00	2024-11-08T17:00:00	4	Temperatura máxima	22.8
72575	7	Sololá	710	Panajachel	8	Panajachel	11	Noviembre	2023-11-16T00:00:00	2024-11-08T17:00:00	3	Temperatura mínima	21.5
72576	7	Sololá	710	Panajachel	8	Panajachel	11	Noviembre	2023-11-16T00:00:00	2024-11-08T17:00:00	5	Humedad	87
72577	7	Sololá	710	Panajachel	8	Panajachel	11	Noviembre	2023-11-16T00:00:00	2024-11-08T17:00:00	6	Velocidad del viento	1.6
72578	7	Sololá	710	Panajachel	8	Panajachel	11	Noviembre	2023-11-16T00:00:00	2024-11-08T17:00:00	7	Dirección del viento	1.61
72579	7	Sololá	710	Panajachel	8	Panajachel	11	Noviembre	2023-11-16T00:00:00	2024-11-08T17:00:00	1	Precipitación	0
72580	7	Sololá	710	Panajachel	8	Panajachel	11	Noviembre	2023-11-16T00:00:00	2024-11-08T17:00:00	8	Radiación solar	27
72581	7	Sololá	710	Panajachel	8	Panajachel	11	Noviembre	2023-11-16T00:00:00	2024-11-08T18:00:00	2	Temperatura media	21.3
72582	7	Sololá	710	Panajachel	8	Panajachel	11	Noviembre	2023-11-16T00:00:00	2024-11-08T18:00:00	4	Temperatura máxima	21.5
72583	7	Sololá	710	Panajachel	8	Panajachel	11	Noviembre	2023-11-16T00:00:00	2024-11-08T18:00:00	3	Temperatura mínima	21.2
72584	7	Sololá	710	Panajachel	8	Panajachel	11	Noviembre	2023-11-16T00:00:00	2024-11-08T18:00:00	5	Humedad	87
72585	7	Sololá	710	Panajachel	8	Panajachel	11	Noviembre	2023-11-16T00:00:00	2024-11-08T18:00:00	6	Velocidad del viento	1.6
72586	7	Sololá	710	Panajachel	8	Panajachel	11	Noviembre	2023-11-16T00:00:00	2024-11-08T18:00:00	7	Dirección del viento	1.61
72587	7	Sololá	710	Panajachel	8	Panajachel	11	Noviembre	2023-11-16T00:00:00	2024-11-08T18:00:00	1	Precipitación	0
72588	7	Sololá	710	Panajachel	8	Panajachel	11	Noviembre	2023-11-16T00:00:00	2024-11-08T18:00:00	8	Radiación solar	4
72589	7	Sololá	710	Panajachel	8	Panajachel	11	Noviembre	2023-11-16T00:00:00	2024-11-08T19:00:00	2	Temperatura media	21.1
72590	7	Sololá	710	Panajachel	8	Panajachel	11	Noviembre	2023-11-16T00:00:00	2024-11-08T19:00:00	4	Temperatura máxima	21.3
72591	7	Sololá	710	Panajachel	8	Panajachel	11	Noviembre	2023-11-16T00:00:00	2024-11-08T19:00:00	3	Temperatura mínima	20.9
72592	7	Sololá	710	Panajachel	8	Panajachel	11	Noviembre	2023-11-16T00:00:00	2024-11-08T19:00:00	5	Humedad	81
72593	7	Sololá	710	Panajachel	8	Panajachel	11	Noviembre	2023-11-16T00:00:00	2024-11-08T19:00:00	6	Velocidad del viento	0
72594	7	Sololá	710	Panajachel	8	Panajachel	11	Noviembre	2023-11-16T00:00:00	2024-11-08T19:00:00	7	Dirección del viento	0
72595	7	Sololá	710	Panajachel	8	Panajachel	11	Noviembre	2023-11-16T00:00:00	2024-11-08T19:00:00	1	Precipitación	0
72596	7	Sololá	710	Panajachel	8	Panajachel	11	Noviembre	2023-11-16T00:00:00	2024-11-08T19:00:00	8	Radiación solar	0
72597	7	Sololá	710	Panajachel	8	Panajachel	11	Noviembre	2023-11-16T00:00:00	2024-11-08T20:00:00	2	Temperatura media	21.5
72598	7	Sololá	710	Panajachel	8	Panajachel	11	Noviembre	2023-11-16T00:00:00	2024-11-08T20:00:00	4	Temperatura máxima	21.7
72599	7	Sololá	710	Panajachel	8	Panajachel	11	Noviembre	2023-11-16T00:00:00	2024-11-08T20:00:00	3	Temperatura mínima	21.1
72600	7	Sololá	710	Panajachel	8	Panajachel	11	Noviembre	2023-11-16T00:00:00	2024-11-08T20:00:00	5	Humedad	71
72601	7	Sololá	710	Panajachel	8	Panajachel	11	Noviembre	2023-11-16T00:00:00	2024-11-08T20:00:00	6	Velocidad del viento	4.8
72602	7	Sololá	710	Panajachel	8	Panajachel	11	Noviembre	2023-11-16T00:00:00	2024-11-08T20:00:00	7	Dirección del viento	4.83
72603	7	Sololá	710	Panajachel	8	Panajachel	11	Noviembre	2023-11-16T00:00:00	2024-11-08T20:00:00	1	Precipitación	0
72604	7	Sololá	710	Panajachel	8	Panajachel	11	Noviembre	2023-11-16T00:00:00	2024-11-08T20:00:00	8	Radiación solar	0
72605	7	Sololá	710	Panajachel	8	Panajachel	11	Noviembre	2023-11-16T00:00:00	2024-11-08T21:00:00	2	Temperatura media	20.2
72606	7	Sololá	710	Panajachel	8	Panajachel	11	Noviembre	2023-11-16T00:00:00	2024-11-08T21:00:00	4	Temperatura máxima	21.5
72607	7	Sololá	710	Panajachel	8	Panajachel	11	Noviembre	2023-11-16T00:00:00	2024-11-08T21:00:00	3	Temperatura mínima	20.2
72608	7	Sololá	710	Panajachel	8	Panajachel	11	Noviembre	2023-11-16T00:00:00	2024-11-08T21:00:00	5	Humedad	76
72609	7	Sololá	710	Panajachel	8	Panajachel	11	Noviembre	2023-11-16T00:00:00	2024-11-08T21:00:00	6	Velocidad del viento	1.6
72610	7	Sololá	710	Panajachel	8	Panajachel	11	Noviembre	2023-11-16T00:00:00	2024-11-08T21:00:00	7	Dirección del viento	1.61
72611	7	Sololá	710	Panajachel	8	Panajachel	11	Noviembre	2023-11-16T00:00:00	2024-11-08T21:00:00	1	Precipitación	0
72612	7	Sololá	710	Panajachel	8	Panajachel	11	Noviembre	2023-11-16T00:00:00	2024-11-08T21:00:00	8	Radiación solar	0
72613	7	Sololá	710	Panajachel	8	Panajachel	11	Noviembre	2023-11-16T00:00:00	2024-11-08T22:00:00	2	Temperatura media	20.2
72614	7	Sololá	710	Panajachel	8	Panajachel	11	Noviembre	2023-11-16T00:00:00	2024-11-08T22:00:00	4	Temperatura máxima	20.4
72615	7	Sololá	710	Panajachel	8	Panajachel	11	Noviembre	2023-11-16T00:00:00	2024-11-08T22:00:00	3	Temperatura mínima	20.1
72616	7	Sololá	710	Panajachel	8	Panajachel	11	Noviembre	2023-11-16T00:00:00	2024-11-08T22:00:00	5	Humedad	75
72617	7	Sololá	710	Panajachel	8	Panajachel	11	Noviembre	2023-11-16T00:00:00	2024-11-08T22:00:00	6	Velocidad del viento	3.2
72618	7	Sololá	710	Panajachel	8	Panajachel	11	Noviembre	2023-11-16T00:00:00	2024-11-08T22:00:00	7	Dirección del viento	3.22
72619	7	Sololá	710	Panajachel	8	Panajachel	11	Noviembre	2023-11-16T00:00:00	2024-11-08T22:00:00	1	Precipitación	0
72620	7	Sololá	710	Panajachel	8	Panajachel	11	Noviembre	2023-11-16T00:00:00	2024-11-08T22:00:00	8	Radiación solar	0
72621	7	Sololá	710	Panajachel	8	Panajachel	11	Noviembre	2023-11-16T00:00:00	2024-11-08T23:00:00	2	Temperatura media	19.8
72622	7	Sololá	710	Panajachel	8	Panajachel	11	Noviembre	2023-11-16T00:00:00	2024-11-08T23:00:00	4	Temperatura máxima	20.2
72623	7	Sololá	710	Panajachel	8	Panajachel	11	Noviembre	2023-11-16T00:00:00	2024-11-08T23:00:00	3	Temperatura mínima	19.6
72624	7	Sololá	710	Panajachel	8	Panajachel	11	Noviembre	2023-11-16T00:00:00	2024-11-08T23:00:00	5	Humedad	75
72625	7	Sololá	710	Panajachel	8	Panajachel	11	Noviembre	2023-11-16T00:00:00	2024-11-08T23:00:00	6	Velocidad del viento	3.2
72626	7	Sololá	710	Panajachel	8	Panajachel	11	Noviembre	2023-11-16T00:00:00	2024-11-08T23:00:00	7	Dirección del viento	3.22
72627	7	Sololá	710	Panajachel	8	Panajachel	11	Noviembre	2023-11-16T00:00:00	2024-11-08T23:00:00	1	Precipitación	0
72628	7	Sololá	710	Panajachel	8	Panajachel	11	Noviembre	2023-11-16T00:00:00	2024-11-08T23:00:00	8	Radiación solar	0
72629	7	Sololá	710	Panajachel	8	Panajachel	11	Noviembre	2023-11-17T00:00:00	2024-11-08T00:00:00	2	Temperatura media	19.8
72630	7	Sololá	710	Panajachel	8	Panajachel	11	Noviembre	2023-11-17T00:00:00	2024-11-08T00:00:00	4	Temperatura máxima	20
72631	7	Sololá	710	Panajachel	8	Panajachel	11	Noviembre	2023-11-17T00:00:00	2024-11-08T00:00:00	3	Temperatura mínima	19.8
72632	7	Sololá	710	Panajachel	8	Panajachel	11	Noviembre	2023-11-17T00:00:00	2024-11-08T00:00:00	5	Humedad	82
72633	7	Sololá	710	Panajachel	8	Panajachel	11	Noviembre	2023-11-17T00:00:00	2024-11-08T00:00:00	6	Velocidad del viento	1.6
72634	7	Sololá	710	Panajachel	8	Panajachel	11	Noviembre	2023-11-17T00:00:00	2024-11-08T00:00:00	7	Dirección del viento	1.61
72635	7	Sololá	710	Panajachel	8	Panajachel	11	Noviembre	2023-11-17T00:00:00	2024-11-08T00:00:00	1	Precipitación	0
72636	7	Sololá	710	Panajachel	8	Panajachel	11	Noviembre	2023-11-17T00:00:00	2024-11-08T00:00:00	8	Radiación solar	0
72637	7	Sololá	710	Panajachel	8	Panajachel	11	Noviembre	2023-11-17T00:00:00	2024-11-08T01:00:00	2	Temperatura media	17.8
72638	7	Sololá	710	Panajachel	8	Panajachel	11	Noviembre	2023-11-17T00:00:00	2024-11-08T01:00:00	4	Temperatura máxima	19.8
72639	7	Sololá	710	Panajachel	8	Panajachel	11	Noviembre	2023-11-17T00:00:00	2024-11-08T01:00:00	3	Temperatura mínima	17.8
72640	7	Sololá	710	Panajachel	8	Panajachel	11	Noviembre	2023-11-17T00:00:00	2024-11-08T01:00:00	5	Humedad	89
72641	7	Sololá	710	Panajachel	8	Panajachel	11	Noviembre	2023-11-17T00:00:00	2024-11-08T01:00:00	6	Velocidad del viento	0
72642	7	Sololá	710	Panajachel	8	Panajachel	11	Noviembre	2023-11-17T00:00:00	2024-11-08T01:00:00	7	Dirección del viento	0
72643	7	Sololá	710	Panajachel	8	Panajachel	11	Noviembre	2023-11-17T00:00:00	2024-11-08T01:00:00	1	Precipitación	0.6
72644	7	Sololá	710	Panajachel	8	Panajachel	11	Noviembre	2023-11-17T00:00:00	2024-11-08T01:00:00	8	Radiación solar	0
72645	7	Sololá	710	Panajachel	8	Panajachel	11	Noviembre	2023-11-17T00:00:00	2024-11-08T02:00:00	2	Temperatura media	17.7
72646	7	Sololá	710	Panajachel	8	Panajachel	11	Noviembre	2023-11-17T00:00:00	2024-11-08T02:00:00	4	Temperatura máxima	17.8
72647	7	Sololá	710	Panajachel	8	Panajachel	11	Noviembre	2023-11-17T00:00:00	2024-11-08T02:00:00	3	Temperatura mínima	17.6
72648	7	Sololá	710	Panajachel	8	Panajachel	11	Noviembre	2023-11-17T00:00:00	2024-11-08T02:00:00	5	Humedad	94
72649	7	Sololá	710	Panajachel	8	Panajachel	11	Noviembre	2023-11-17T00:00:00	2024-11-08T02:00:00	6	Velocidad del viento	0
72650	7	Sololá	710	Panajachel	8	Panajachel	11	Noviembre	2023-11-17T00:00:00	2024-11-08T02:00:00	7	Dirección del viento	0
72651	7	Sololá	710	Panajachel	8	Panajachel	11	Noviembre	2023-11-17T00:00:00	2024-11-08T02:00:00	1	Precipitación	0.2
72652	7	Sololá	710	Panajachel	8	Panajachel	11	Noviembre	2023-11-17T00:00:00	2024-11-08T02:00:00	8	Radiación solar	0
72653	7	Sololá	710	Panajachel	8	Panajachel	11	Noviembre	2023-11-17T00:00:00	2024-11-08T03:00:00	2	Temperatura media	17.2
72654	7	Sololá	710	Panajachel	8	Panajachel	11	Noviembre	2023-11-17T00:00:00	2024-11-08T03:00:00	4	Temperatura máxima	17.7
72655	7	Sololá	710	Panajachel	8	Panajachel	11	Noviembre	2023-11-17T00:00:00	2024-11-08T03:00:00	3	Temperatura mínima	17.2
72656	7	Sololá	710	Panajachel	8	Panajachel	11	Noviembre	2023-11-17T00:00:00	2024-11-08T03:00:00	5	Humedad	93
72657	7	Sololá	710	Panajachel	8	Panajachel	11	Noviembre	2023-11-17T00:00:00	2024-11-08T03:00:00	6	Velocidad del viento	0
72658	7	Sololá	710	Panajachel	8	Panajachel	11	Noviembre	2023-11-17T00:00:00	2024-11-08T03:00:00	7	Dirección del viento	0
72659	7	Sololá	710	Panajachel	8	Panajachel	11	Noviembre	2023-11-17T00:00:00	2024-11-08T03:00:00	1	Precipitación	0
72660	7	Sololá	710	Panajachel	8	Panajachel	11	Noviembre	2023-11-17T00:00:00	2024-11-08T03:00:00	8	Radiación solar	0
72661	7	Sololá	710	Panajachel	8	Panajachel	11	Noviembre	2023-11-17T00:00:00	2024-11-08T04:00:00	2	Temperatura media	16.7
72662	7	Sololá	710	Panajachel	8	Panajachel	11	Noviembre	2023-11-17T00:00:00	2024-11-08T04:00:00	4	Temperatura máxima	17.3
72663	7	Sololá	710	Panajachel	8	Panajachel	11	Noviembre	2023-11-17T00:00:00	2024-11-08T04:00:00	3	Temperatura mínima	16.7
72664	7	Sololá	710	Panajachel	8	Panajachel	11	Noviembre	2023-11-17T00:00:00	2024-11-08T04:00:00	5	Humedad	90
72665	7	Sololá	710	Panajachel	8	Panajachel	11	Noviembre	2023-11-17T00:00:00	2024-11-08T04:00:00	6	Velocidad del viento	1.6
72666	7	Sololá	710	Panajachel	8	Panajachel	11	Noviembre	2023-11-17T00:00:00	2024-11-08T04:00:00	7	Dirección del viento	1.61
72667	7	Sololá	710	Panajachel	8	Panajachel	11	Noviembre	2023-11-17T00:00:00	2024-11-08T04:00:00	1	Precipitación	0
72668	7	Sololá	710	Panajachel	8	Panajachel	11	Noviembre	2023-11-17T00:00:00	2024-11-08T04:00:00	8	Radiación solar	0
72669	7	Sololá	710	Panajachel	8	Panajachel	11	Noviembre	2023-11-17T00:00:00	2024-11-08T05:00:00	2	Temperatura media	15.9
72670	7	Sololá	710	Panajachel	8	Panajachel	11	Noviembre	2023-11-17T00:00:00	2024-11-08T05:00:00	4	Temperatura máxima	16.7
72671	7	Sololá	710	Panajachel	8	Panajachel	11	Noviembre	2023-11-17T00:00:00	2024-11-08T05:00:00	3	Temperatura mínima	15.9
72672	7	Sololá	710	Panajachel	8	Panajachel	11	Noviembre	2023-11-17T00:00:00	2024-11-08T05:00:00	5	Humedad	90
72673	7	Sololá	710	Panajachel	8	Panajachel	11	Noviembre	2023-11-17T00:00:00	2024-11-08T05:00:00	6	Velocidad del viento	0
72674	7	Sololá	710	Panajachel	8	Panajachel	11	Noviembre	2023-11-17T00:00:00	2024-11-08T05:00:00	7	Dirección del viento	0
72675	7	Sololá	710	Panajachel	8	Panajachel	11	Noviembre	2023-11-17T00:00:00	2024-11-08T05:00:00	1	Precipitación	0
72676	7	Sololá	710	Panajachel	8	Panajachel	11	Noviembre	2023-11-17T00:00:00	2024-11-08T05:00:00	8	Radiación solar	0
72677	7	Sololá	710	Panajachel	8	Panajachel	11	Noviembre	2023-11-17T00:00:00	2024-11-08T06:00:00	2	Temperatura media	16.1
72678	7	Sololá	710	Panajachel	8	Panajachel	11	Noviembre	2023-11-17T00:00:00	2024-11-08T06:00:00	4	Temperatura máxima	16.2
72679	7	Sololá	710	Panajachel	8	Panajachel	11	Noviembre	2023-11-17T00:00:00	2024-11-08T06:00:00	3	Temperatura mínima	15.7
72680	7	Sololá	710	Panajachel	8	Panajachel	11	Noviembre	2023-11-17T00:00:00	2024-11-08T06:00:00	5	Humedad	86
72681	7	Sololá	710	Panajachel	8	Panajachel	11	Noviembre	2023-11-17T00:00:00	2024-11-08T06:00:00	6	Velocidad del viento	0
72682	7	Sololá	710	Panajachel	8	Panajachel	11	Noviembre	2023-11-17T00:00:00	2024-11-08T06:00:00	7	Dirección del viento	0
72683	7	Sololá	710	Panajachel	8	Panajachel	11	Noviembre	2023-11-17T00:00:00	2024-11-08T06:00:00	1	Precipitación	0
72684	7	Sololá	710	Panajachel	8	Panajachel	11	Noviembre	2023-11-17T00:00:00	2024-11-08T06:00:00	8	Radiación solar	0
72685	7	Sololá	710	Panajachel	8	Panajachel	11	Noviembre	2023-11-17T00:00:00	2024-11-08T07:00:00	2	Temperatura media	16.4
72686	7	Sololá	710	Panajachel	8	Panajachel	11	Noviembre	2023-11-17T00:00:00	2024-11-08T07:00:00	4	Temperatura máxima	16.4
72687	7	Sololá	710	Panajachel	8	Panajachel	11	Noviembre	2023-11-17T00:00:00	2024-11-08T07:00:00	3	Temperatura mínima	15.8
72688	7	Sololá	710	Panajachel	8	Panajachel	11	Noviembre	2023-11-17T00:00:00	2024-11-08T07:00:00	5	Humedad	83
72689	7	Sololá	710	Panajachel	8	Panajachel	11	Noviembre	2023-11-17T00:00:00	2024-11-08T07:00:00	6	Velocidad del viento	1.6
72690	7	Sololá	710	Panajachel	8	Panajachel	11	Noviembre	2023-11-17T00:00:00	2024-11-08T07:00:00	7	Dirección del viento	1.61
72691	7	Sololá	710	Panajachel	8	Panajachel	11	Noviembre	2023-11-17T00:00:00	2024-11-08T07:00:00	1	Precipitación	0
72692	7	Sololá	710	Panajachel	8	Panajachel	11	Noviembre	2023-11-17T00:00:00	2024-11-08T07:00:00	8	Radiación solar	31
72693	7	Sololá	710	Panajachel	8	Panajachel	11	Noviembre	2023-11-17T00:00:00	2024-11-08T08:00:00	2	Temperatura media	20
72694	7	Sololá	710	Panajachel	8	Panajachel	11	Noviembre	2023-11-17T00:00:00	2024-11-08T08:00:00	4	Temperatura máxima	20
72695	7	Sololá	710	Panajachel	8	Panajachel	11	Noviembre	2023-11-17T00:00:00	2024-11-08T08:00:00	3	Temperatura mínima	16.4
72696	7	Sololá	710	Panajachel	8	Panajachel	11	Noviembre	2023-11-17T00:00:00	2024-11-08T08:00:00	5	Humedad	73
72697	7	Sololá	710	Panajachel	8	Panajachel	11	Noviembre	2023-11-17T00:00:00	2024-11-08T08:00:00	6	Velocidad del viento	1.6
72698	7	Sololá	710	Panajachel	8	Panajachel	11	Noviembre	2023-11-17T00:00:00	2024-11-08T08:00:00	7	Dirección del viento	1.61
72699	7	Sololá	710	Panajachel	8	Panajachel	11	Noviembre	2023-11-17T00:00:00	2024-11-08T08:00:00	1	Precipitación	0
72700	7	Sololá	710	Panajachel	8	Panajachel	11	Noviembre	2023-11-17T00:00:00	2024-11-08T08:00:00	8	Radiación solar	235
72701	7	Sololá	710	Panajachel	8	Panajachel	11	Noviembre	2023-11-17T00:00:00	2024-11-08T09:00:00	2	Temperatura media	20.9
72702	7	Sololá	710	Panajachel	8	Panajachel	11	Noviembre	2023-11-17T00:00:00	2024-11-08T09:00:00	4	Temperatura máxima	20.9
72703	7	Sololá	710	Panajachel	8	Panajachel	11	Noviembre	2023-11-17T00:00:00	2024-11-08T09:00:00	3	Temperatura mínima	20
72704	7	Sololá	710	Panajachel	8	Panajachel	11	Noviembre	2023-11-17T00:00:00	2024-11-08T09:00:00	5	Humedad	79
72705	7	Sololá	710	Panajachel	8	Panajachel	11	Noviembre	2023-11-17T00:00:00	2024-11-08T09:00:00	6	Velocidad del viento	0
72706	7	Sololá	710	Panajachel	8	Panajachel	11	Noviembre	2023-11-17T00:00:00	2024-11-08T09:00:00	7	Dirección del viento	0
72707	7	Sololá	710	Panajachel	8	Panajachel	11	Noviembre	2023-11-17T00:00:00	2024-11-08T09:00:00	1	Precipitación	0
72708	7	Sololá	710	Panajachel	8	Panajachel	11	Noviembre	2023-11-17T00:00:00	2024-11-08T09:00:00	8	Radiación solar	439
72709	7	Sololá	710	Panajachel	8	Panajachel	11	Noviembre	2023-11-17T00:00:00	2024-11-08T10:00:00	2	Temperatura media	21.4
72710	7	Sololá	710	Panajachel	8	Panajachel	11	Noviembre	2023-11-17T00:00:00	2024-11-08T10:00:00	4	Temperatura máxima	21.6
72711	7	Sololá	710	Panajachel	8	Panajachel	11	Noviembre	2023-11-17T00:00:00	2024-11-08T10:00:00	3	Temperatura mínima	20.6
72712	7	Sololá	710	Panajachel	8	Panajachel	11	Noviembre	2023-11-17T00:00:00	2024-11-08T10:00:00	5	Humedad	77
72713	7	Sololá	710	Panajachel	8	Panajachel	11	Noviembre	2023-11-17T00:00:00	2024-11-08T10:00:00	6	Velocidad del viento	1.6
72714	7	Sololá	710	Panajachel	8	Panajachel	11	Noviembre	2023-11-17T00:00:00	2024-11-08T10:00:00	7	Dirección del viento	1.61
72715	7	Sololá	710	Panajachel	8	Panajachel	11	Noviembre	2023-11-17T00:00:00	2024-11-08T10:00:00	1	Precipitación	0
72716	7	Sololá	710	Panajachel	8	Panajachel	11	Noviembre	2023-11-17T00:00:00	2024-11-08T10:00:00	8	Radiación solar	622
72717	7	Sololá	710	Panajachel	8	Panajachel	11	Noviembre	2023-11-17T00:00:00	2024-11-08T11:00:00	2	Temperatura media	22
72718	7	Sololá	710	Panajachel	8	Panajachel	11	Noviembre	2023-11-17T00:00:00	2024-11-08T11:00:00	4	Temperatura máxima	22
72719	7	Sololá	710	Panajachel	8	Panajachel	11	Noviembre	2023-11-17T00:00:00	2024-11-08T11:00:00	3	Temperatura mínima	21.1
72720	7	Sololá	710	Panajachel	8	Panajachel	11	Noviembre	2023-11-17T00:00:00	2024-11-08T11:00:00	5	Humedad	77
72721	7	Sololá	710	Panajachel	8	Panajachel	11	Noviembre	2023-11-17T00:00:00	2024-11-08T11:00:00	6	Velocidad del viento	4.8
72722	7	Sololá	710	Panajachel	8	Panajachel	11	Noviembre	2023-11-17T00:00:00	2024-11-08T11:00:00	7	Dirección del viento	4.83
72723	7	Sololá	710	Panajachel	8	Panajachel	11	Noviembre	2023-11-17T00:00:00	2024-11-08T11:00:00	1	Precipitación	0
72724	7	Sololá	710	Panajachel	8	Panajachel	11	Noviembre	2023-11-17T00:00:00	2024-11-08T11:00:00	8	Radiación solar	740
72725	7	Sololá	710	Panajachel	8	Panajachel	11	Noviembre	2023-11-17T00:00:00	2024-11-08T12:00:00	2	Temperatura media	23.9
72726	7	Sololá	710	Panajachel	8	Panajachel	11	Noviembre	2023-11-17T00:00:00	2024-11-08T12:00:00	4	Temperatura máxima	23.9
72727	7	Sololá	710	Panajachel	8	Panajachel	11	Noviembre	2023-11-17T00:00:00	2024-11-08T12:00:00	3	Temperatura mínima	21.8
72728	7	Sololá	710	Panajachel	8	Panajachel	11	Noviembre	2023-11-17T00:00:00	2024-11-08T12:00:00	5	Humedad	73
72729	7	Sololá	710	Panajachel	8	Panajachel	11	Noviembre	2023-11-17T00:00:00	2024-11-08T12:00:00	6	Velocidad del viento	4.8
72730	7	Sololá	710	Panajachel	8	Panajachel	11	Noviembre	2023-11-17T00:00:00	2024-11-08T12:00:00	7	Dirección del viento	4.83
72731	7	Sololá	710	Panajachel	8	Panajachel	11	Noviembre	2023-11-17T00:00:00	2024-11-08T12:00:00	1	Precipitación	0
72732	7	Sololá	710	Panajachel	8	Panajachel	11	Noviembre	2023-11-17T00:00:00	2024-11-08T12:00:00	8	Radiación solar	793
72733	7	Sololá	710	Panajachel	8	Panajachel	11	Noviembre	2023-11-17T00:00:00	2024-11-08T13:00:00	2	Temperatura media	23.4
72734	7	Sololá	710	Panajachel	8	Panajachel	11	Noviembre	2023-11-17T00:00:00	2024-11-08T13:00:00	4	Temperatura máxima	24.3
72735	7	Sololá	710	Panajachel	8	Panajachel	11	Noviembre	2023-11-17T00:00:00	2024-11-08T13:00:00	3	Temperatura mínima	22.8
72736	7	Sololá	710	Panajachel	8	Panajachel	11	Noviembre	2023-11-17T00:00:00	2024-11-08T13:00:00	5	Humedad	74
72737	7	Sololá	710	Panajachel	8	Panajachel	11	Noviembre	2023-11-17T00:00:00	2024-11-08T13:00:00	6	Velocidad del viento	3.2
72738	7	Sololá	710	Panajachel	8	Panajachel	11	Noviembre	2023-11-17T00:00:00	2024-11-08T13:00:00	7	Dirección del viento	3.22
72739	7	Sololá	710	Panajachel	8	Panajachel	11	Noviembre	2023-11-17T00:00:00	2024-11-08T13:00:00	1	Precipitación	0
72740	7	Sololá	710	Panajachel	8	Panajachel	11	Noviembre	2023-11-17T00:00:00	2024-11-08T13:00:00	8	Radiación solar	481
72741	7	Sololá	710	Panajachel	8	Panajachel	11	Noviembre	2023-11-17T00:00:00	2024-11-08T14:00:00	2	Temperatura media	22
72742	7	Sololá	710	Panajachel	8	Panajachel	11	Noviembre	2023-11-17T00:00:00	2024-11-08T14:00:00	4	Temperatura máxima	24.2
72743	7	Sololá	710	Panajachel	8	Panajachel	11	Noviembre	2023-11-17T00:00:00	2024-11-08T14:00:00	3	Temperatura mínima	22
72744	7	Sololá	710	Panajachel	8	Panajachel	11	Noviembre	2023-11-17T00:00:00	2024-11-08T14:00:00	5	Humedad	84
72745	7	Sololá	710	Panajachel	8	Panajachel	11	Noviembre	2023-11-17T00:00:00	2024-11-08T14:00:00	6	Velocidad del viento	4.8
72746	7	Sololá	710	Panajachel	8	Panajachel	11	Noviembre	2023-11-17T00:00:00	2024-11-08T14:00:00	7	Dirección del viento	4.83
72747	7	Sololá	710	Panajachel	8	Panajachel	11	Noviembre	2023-11-17T00:00:00	2024-11-08T14:00:00	1	Precipitación	0
72748	7	Sololá	710	Panajachel	8	Panajachel	11	Noviembre	2023-11-17T00:00:00	2024-11-08T14:00:00	8	Radiación solar	337
72749	7	Sololá	710	Panajachel	8	Panajachel	11	Noviembre	2023-11-17T00:00:00	2024-11-08T15:00:00	2	Temperatura media	21.6
72750	7	Sololá	710	Panajachel	8	Panajachel	11	Noviembre	2023-11-17T00:00:00	2024-11-08T15:00:00	4	Temperatura máxima	22.1
72751	7	Sololá	710	Panajachel	8	Panajachel	11	Noviembre	2023-11-17T00:00:00	2024-11-08T15:00:00	3	Temperatura mínima	21.6
72752	7	Sololá	710	Panajachel	8	Panajachel	11	Noviembre	2023-11-17T00:00:00	2024-11-08T15:00:00	5	Humedad	82
72753	7	Sololá	710	Panajachel	8	Panajachel	11	Noviembre	2023-11-17T00:00:00	2024-11-08T15:00:00	6	Velocidad del viento	3.2
72754	7	Sololá	710	Panajachel	8	Panajachel	11	Noviembre	2023-11-17T00:00:00	2024-11-08T15:00:00	7	Dirección del viento	3.22
72755	7	Sololá	710	Panajachel	8	Panajachel	11	Noviembre	2023-11-17T00:00:00	2024-11-08T15:00:00	1	Precipitación	0
72756	7	Sololá	710	Panajachel	8	Panajachel	11	Noviembre	2023-11-17T00:00:00	2024-11-08T15:00:00	8	Radiación solar	179
72757	7	Sololá	710	Panajachel	8	Panajachel	11	Noviembre	2023-11-17T00:00:00	2024-11-08T16:00:00	2	Temperatura media	21
72758	7	Sololá	710	Panajachel	8	Panajachel	11	Noviembre	2023-11-17T00:00:00	2024-11-08T16:00:00	4	Temperatura máxima	21.8
72759	7	Sololá	710	Panajachel	8	Panajachel	11	Noviembre	2023-11-17T00:00:00	2024-11-08T16:00:00	3	Temperatura mínima	21
72760	7	Sololá	710	Panajachel	8	Panajachel	11	Noviembre	2023-11-17T00:00:00	2024-11-08T16:00:00	5	Humedad	85
72761	7	Sololá	710	Panajachel	8	Panajachel	11	Noviembre	2023-11-17T00:00:00	2024-11-08T16:00:00	6	Velocidad del viento	3.2
72762	7	Sololá	710	Panajachel	8	Panajachel	11	Noviembre	2023-11-17T00:00:00	2024-11-08T16:00:00	7	Dirección del viento	3.22
72763	7	Sololá	710	Panajachel	8	Panajachel	11	Noviembre	2023-11-17T00:00:00	2024-11-08T16:00:00	1	Precipitación	0
72764	7	Sololá	710	Panajachel	8	Panajachel	11	Noviembre	2023-11-17T00:00:00	2024-11-08T16:00:00	8	Radiación solar	90
72765	7	Sololá	710	Panajachel	8	Panajachel	11	Noviembre	2023-11-17T00:00:00	2024-11-08T17:00:00	2	Temperatura media	20.9
72766	7	Sololá	710	Panajachel	8	Panajachel	11	Noviembre	2023-11-17T00:00:00	2024-11-08T17:00:00	4	Temperatura máxima	21.1
72767	7	Sololá	710	Panajachel	8	Panajachel	11	Noviembre	2023-11-17T00:00:00	2024-11-08T17:00:00	3	Temperatura mínima	20.9
72768	7	Sololá	710	Panajachel	8	Panajachel	11	Noviembre	2023-11-17T00:00:00	2024-11-08T17:00:00	5	Humedad	87
72769	7	Sololá	710	Panajachel	8	Panajachel	11	Noviembre	2023-11-17T00:00:00	2024-11-08T17:00:00	6	Velocidad del viento	3.2
72770	7	Sololá	710	Panajachel	8	Panajachel	11	Noviembre	2023-11-17T00:00:00	2024-11-08T17:00:00	7	Dirección del viento	3.22
72771	7	Sololá	710	Panajachel	8	Panajachel	11	Noviembre	2023-11-17T00:00:00	2024-11-08T17:00:00	1	Precipitación	0
72772	7	Sololá	710	Panajachel	8	Panajachel	11	Noviembre	2023-11-17T00:00:00	2024-11-08T17:00:00	8	Radiación solar	58
72773	7	Sololá	710	Panajachel	8	Panajachel	11	Noviembre	2023-11-17T00:00:00	2024-11-08T18:00:00	2	Temperatura media	20.3
72774	7	Sololá	710	Panajachel	8	Panajachel	11	Noviembre	2023-11-17T00:00:00	2024-11-08T18:00:00	4	Temperatura máxima	20.9
72775	7	Sololá	710	Panajachel	8	Panajachel	11	Noviembre	2023-11-17T00:00:00	2024-11-08T18:00:00	3	Temperatura mínima	20.3
72776	7	Sololá	710	Panajachel	8	Panajachel	11	Noviembre	2023-11-17T00:00:00	2024-11-08T18:00:00	5	Humedad	88
72777	7	Sololá	710	Panajachel	8	Panajachel	11	Noviembre	2023-11-17T00:00:00	2024-11-08T18:00:00	6	Velocidad del viento	0
72778	7	Sololá	710	Panajachel	8	Panajachel	11	Noviembre	2023-11-17T00:00:00	2024-11-08T18:00:00	7	Dirección del viento	0
72779	7	Sololá	710	Panajachel	8	Panajachel	11	Noviembre	2023-11-17T00:00:00	2024-11-08T18:00:00	1	Precipitación	0
72780	7	Sololá	710	Panajachel	8	Panajachel	11	Noviembre	2023-11-17T00:00:00	2024-11-08T18:00:00	8	Radiación solar	3
72781	7	Sololá	710	Panajachel	8	Panajachel	11	Noviembre	2023-11-17T00:00:00	2024-11-08T19:00:00	2	Temperatura media	20.2
72782	7	Sololá	710	Panajachel	8	Panajachel	11	Noviembre	2023-11-17T00:00:00	2024-11-08T19:00:00	4	Temperatura máxima	20.3
72783	7	Sololá	710	Panajachel	8	Panajachel	11	Noviembre	2023-11-17T00:00:00	2024-11-08T19:00:00	3	Temperatura mínima	20.2
72784	7	Sololá	710	Panajachel	8	Panajachel	11	Noviembre	2023-11-17T00:00:00	2024-11-08T19:00:00	5	Humedad	89
72785	7	Sololá	710	Panajachel	8	Panajachel	11	Noviembre	2023-11-17T00:00:00	2024-11-08T19:00:00	6	Velocidad del viento	1.6
72786	7	Sololá	710	Panajachel	8	Panajachel	11	Noviembre	2023-11-17T00:00:00	2024-11-08T19:00:00	7	Dirección del viento	1.61
72787	7	Sololá	710	Panajachel	8	Panajachel	11	Noviembre	2023-11-17T00:00:00	2024-11-08T19:00:00	1	Precipitación	0
72788	7	Sololá	710	Panajachel	8	Panajachel	11	Noviembre	2023-11-17T00:00:00	2024-11-08T19:00:00	8	Radiación solar	0
72789	7	Sololá	710	Panajachel	8	Panajachel	11	Noviembre	2023-11-17T00:00:00	2024-11-08T20:00:00	2	Temperatura media	19.3
72790	7	Sololá	710	Panajachel	8	Panajachel	11	Noviembre	2023-11-17T00:00:00	2024-11-08T20:00:00	4	Temperatura máxima	20.4
72791	7	Sololá	710	Panajachel	8	Panajachel	11	Noviembre	2023-11-17T00:00:00	2024-11-08T20:00:00	3	Temperatura mínima	19.3
72792	7	Sololá	710	Panajachel	8	Panajachel	11	Noviembre	2023-11-17T00:00:00	2024-11-08T20:00:00	5	Humedad	93
72793	7	Sololá	710	Panajachel	8	Panajachel	11	Noviembre	2023-11-17T00:00:00	2024-11-08T20:00:00	6	Velocidad del viento	1.6
72794	7	Sololá	710	Panajachel	8	Panajachel	11	Noviembre	2023-11-17T00:00:00	2024-11-08T20:00:00	7	Dirección del viento	1.61
72795	7	Sololá	710	Panajachel	8	Panajachel	11	Noviembre	2023-11-17T00:00:00	2024-11-08T20:00:00	1	Precipitación	0.2
72796	7	Sololá	710	Panajachel	8	Panajachel	11	Noviembre	2023-11-17T00:00:00	2024-11-08T20:00:00	8	Radiación solar	0
72797	7	Sololá	710	Panajachel	8	Panajachel	11	Noviembre	2023-11-17T00:00:00	2024-11-08T21:00:00	2	Temperatura media	18.3
72798	7	Sololá	710	Panajachel	8	Panajachel	11	Noviembre	2023-11-17T00:00:00	2024-11-08T21:00:00	4	Temperatura máxima	19.4
72799	7	Sololá	710	Panajachel	8	Panajachel	11	Noviembre	2023-11-17T00:00:00	2024-11-08T21:00:00	3	Temperatura mínima	18.3
72800	7	Sololá	710	Panajachel	8	Panajachel	11	Noviembre	2023-11-17T00:00:00	2024-11-08T21:00:00	5	Humedad	95
72801	7	Sololá	710	Panajachel	8	Panajachel	11	Noviembre	2023-11-17T00:00:00	2024-11-08T21:00:00	6	Velocidad del viento	1.6
72802	7	Sololá	710	Panajachel	8	Panajachel	11	Noviembre	2023-11-17T00:00:00	2024-11-08T21:00:00	7	Dirección del viento	1.61
72803	7	Sololá	710	Panajachel	8	Panajachel	11	Noviembre	2023-11-17T00:00:00	2024-11-08T21:00:00	1	Precipitación	0.6
72804	7	Sololá	710	Panajachel	8	Panajachel	11	Noviembre	2023-11-17T00:00:00	2024-11-08T21:00:00	8	Radiación solar	0
72805	7	Sololá	710	Panajachel	8	Panajachel	11	Noviembre	2023-11-17T00:00:00	2024-11-08T22:00:00	2	Temperatura media	17.7
72806	7	Sololá	710	Panajachel	8	Panajachel	11	Noviembre	2023-11-17T00:00:00	2024-11-08T22:00:00	4	Temperatura máxima	18.4
72807	7	Sololá	710	Panajachel	8	Panajachel	11	Noviembre	2023-11-17T00:00:00	2024-11-08T22:00:00	3	Temperatura mínima	17.7
72808	7	Sololá	710	Panajachel	8	Panajachel	11	Noviembre	2023-11-17T00:00:00	2024-11-08T22:00:00	5	Humedad	96
72809	7	Sololá	710	Panajachel	8	Panajachel	11	Noviembre	2023-11-17T00:00:00	2024-11-08T22:00:00	6	Velocidad del viento	1.6
72810	7	Sololá	710	Panajachel	8	Panajachel	11	Noviembre	2023-11-17T00:00:00	2024-11-08T22:00:00	7	Dirección del viento	1.61
72811	7	Sololá	710	Panajachel	8	Panajachel	11	Noviembre	2023-11-17T00:00:00	2024-11-08T22:00:00	1	Precipitación	1.2
72812	7	Sololá	710	Panajachel	8	Panajachel	11	Noviembre	2023-11-17T00:00:00	2024-11-08T22:00:00	8	Radiación solar	0
72813	7	Sololá	710	Panajachel	8	Panajachel	11	Noviembre	2023-11-17T00:00:00	2024-11-08T23:00:00	2	Temperatura media	17.8
72814	7	Sololá	710	Panajachel	8	Panajachel	11	Noviembre	2023-11-17T00:00:00	2024-11-08T23:00:00	4	Temperatura máxima	17.9
72815	7	Sololá	710	Panajachel	8	Panajachel	11	Noviembre	2023-11-17T00:00:00	2024-11-08T23:00:00	3	Temperatura mínima	17.6
72816	7	Sololá	710	Panajachel	8	Panajachel	11	Noviembre	2023-11-17T00:00:00	2024-11-08T23:00:00	5	Humedad	98
72817	7	Sololá	710	Panajachel	8	Panajachel	11	Noviembre	2023-11-17T00:00:00	2024-11-08T23:00:00	6	Velocidad del viento	0
72818	7	Sololá	710	Panajachel	8	Panajachel	11	Noviembre	2023-11-17T00:00:00	2024-11-08T23:00:00	7	Dirección del viento	0
72819	7	Sololá	710	Panajachel	8	Panajachel	11	Noviembre	2023-11-17T00:00:00	2024-11-08T23:00:00	1	Precipitación	1.6
72820	7	Sololá	710	Panajachel	8	Panajachel	11	Noviembre	2023-11-17T00:00:00	2024-11-08T23:00:00	8	Radiación solar	0
72821	7	Sololá	710	Panajachel	8	Panajachel	11	Noviembre	2023-11-18T00:00:00	2024-11-08T00:00:00	2	Temperatura media	17.8
72822	7	Sololá	710	Panajachel	8	Panajachel	11	Noviembre	2023-11-18T00:00:00	2024-11-08T00:00:00	4	Temperatura máxima	17.8
72823	7	Sololá	710	Panajachel	8	Panajachel	11	Noviembre	2023-11-18T00:00:00	2024-11-08T00:00:00	3	Temperatura mínima	17.7
72824	7	Sololá	710	Panajachel	8	Panajachel	11	Noviembre	2023-11-18T00:00:00	2024-11-08T00:00:00	5	Humedad	98
72825	7	Sololá	710	Panajachel	8	Panajachel	11	Noviembre	2023-11-18T00:00:00	2024-11-08T00:00:00	6	Velocidad del viento	0
72826	7	Sololá	710	Panajachel	8	Panajachel	11	Noviembre	2023-11-18T00:00:00	2024-11-08T00:00:00	7	Dirección del viento	0
72827	7	Sololá	710	Panajachel	8	Panajachel	11	Noviembre	2023-11-18T00:00:00	2024-11-08T00:00:00	1	Precipitación	1.2
72828	7	Sololá	710	Panajachel	8	Panajachel	11	Noviembre	2023-11-18T00:00:00	2024-11-08T00:00:00	8	Radiación solar	0
72829	7	Sololá	710	Panajachel	8	Panajachel	11	Noviembre	2023-11-18T00:00:00	2024-11-08T01:00:00	2	Temperatura media	17.8
72830	7	Sololá	710	Panajachel	8	Panajachel	11	Noviembre	2023-11-18T00:00:00	2024-11-08T01:00:00	4	Temperatura máxima	17.9
72831	7	Sololá	710	Panajachel	8	Panajachel	11	Noviembre	2023-11-18T00:00:00	2024-11-08T01:00:00	3	Temperatura mínima	17.7
72832	7	Sololá	710	Panajachel	8	Panajachel	11	Noviembre	2023-11-18T00:00:00	2024-11-08T01:00:00	5	Humedad	97
72833	7	Sololá	710	Panajachel	8	Panajachel	11	Noviembre	2023-11-18T00:00:00	2024-11-08T01:00:00	6	Velocidad del viento	1.6
72834	7	Sololá	710	Panajachel	8	Panajachel	11	Noviembre	2023-11-18T00:00:00	2024-11-08T01:00:00	7	Dirección del viento	1.61
72835	7	Sololá	710	Panajachel	8	Panajachel	11	Noviembre	2023-11-18T00:00:00	2024-11-08T01:00:00	1	Precipitación	0.6
72836	7	Sololá	710	Panajachel	8	Panajachel	11	Noviembre	2023-11-18T00:00:00	2024-11-08T01:00:00	8	Radiación solar	0
72837	7	Sololá	710	Panajachel	8	Panajachel	11	Noviembre	2023-11-18T00:00:00	2024-11-08T02:00:00	2	Temperatura media	17.3
72838	7	Sololá	710	Panajachel	8	Panajachel	11	Noviembre	2023-11-18T00:00:00	2024-11-08T02:00:00	4	Temperatura máxima	17.8
72839	7	Sololá	710	Panajachel	8	Panajachel	11	Noviembre	2023-11-18T00:00:00	2024-11-08T02:00:00	3	Temperatura mínima	17.3
72840	7	Sololá	710	Panajachel	8	Panajachel	11	Noviembre	2023-11-18T00:00:00	2024-11-08T02:00:00	5	Humedad	97
72841	7	Sololá	710	Panajachel	8	Panajachel	11	Noviembre	2023-11-18T00:00:00	2024-11-08T02:00:00	6	Velocidad del viento	1.6
72842	7	Sololá	710	Panajachel	8	Panajachel	11	Noviembre	2023-11-18T00:00:00	2024-11-08T02:00:00	7	Dirección del viento	1.61
72843	7	Sololá	710	Panajachel	8	Panajachel	11	Noviembre	2023-11-18T00:00:00	2024-11-08T02:00:00	1	Precipitación	0.4
72844	7	Sololá	710	Panajachel	8	Panajachel	11	Noviembre	2023-11-18T00:00:00	2024-11-08T02:00:00	8	Radiación solar	0
72845	7	Sololá	710	Panajachel	8	Panajachel	11	Noviembre	2023-11-18T00:00:00	2024-11-08T03:00:00	2	Temperatura media	17.3
72846	7	Sololá	710	Panajachel	8	Panajachel	11	Noviembre	2023-11-18T00:00:00	2024-11-08T03:00:00	4	Temperatura máxima	17.4
72847	7	Sololá	710	Panajachel	8	Panajachel	11	Noviembre	2023-11-18T00:00:00	2024-11-08T03:00:00	3	Temperatura mínima	17.2
72848	7	Sololá	710	Panajachel	8	Panajachel	11	Noviembre	2023-11-18T00:00:00	2024-11-08T03:00:00	5	Humedad	97
72849	7	Sololá	710	Panajachel	8	Panajachel	11	Noviembre	2023-11-18T00:00:00	2024-11-08T03:00:00	6	Velocidad del viento	0
72850	7	Sololá	710	Panajachel	8	Panajachel	11	Noviembre	2023-11-18T00:00:00	2024-11-08T03:00:00	7	Dirección del viento	0
72851	7	Sololá	710	Panajachel	8	Panajachel	11	Noviembre	2023-11-18T00:00:00	2024-11-08T03:00:00	1	Precipitación	0.2
72852	7	Sololá	710	Panajachel	8	Panajachel	11	Noviembre	2023-11-18T00:00:00	2024-11-08T03:00:00	8	Radiación solar	0
72853	7	Sololá	710	Panajachel	8	Panajachel	11	Noviembre	2023-11-18T00:00:00	2024-11-08T04:00:00	2	Temperatura media	17.3
72854	7	Sololá	710	Panajachel	8	Panajachel	11	Noviembre	2023-11-18T00:00:00	2024-11-08T04:00:00	4	Temperatura máxima	17.3
72855	7	Sololá	710	Panajachel	8	Panajachel	11	Noviembre	2023-11-18T00:00:00	2024-11-08T04:00:00	3	Temperatura mínima	17.1
72856	7	Sololá	710	Panajachel	8	Panajachel	11	Noviembre	2023-11-18T00:00:00	2024-11-08T04:00:00	5	Humedad	98
72857	7	Sololá	710	Panajachel	8	Panajachel	11	Noviembre	2023-11-18T00:00:00	2024-11-08T04:00:00	6	Velocidad del viento	0
72858	7	Sololá	710	Panajachel	8	Panajachel	11	Noviembre	2023-11-18T00:00:00	2024-11-08T04:00:00	7	Dirección del viento	0
72859	7	Sololá	710	Panajachel	8	Panajachel	11	Noviembre	2023-11-18T00:00:00	2024-11-08T04:00:00	1	Precipitación	0.2
72860	7	Sololá	710	Panajachel	8	Panajachel	11	Noviembre	2023-11-18T00:00:00	2024-11-08T04:00:00	8	Radiación solar	0
72861	7	Sololá	710	Panajachel	8	Panajachel	11	Noviembre	2023-11-18T00:00:00	2024-11-08T05:00:00	2	Temperatura media	17.3
72862	7	Sololá	710	Panajachel	8	Panajachel	11	Noviembre	2023-11-18T00:00:00	2024-11-08T05:00:00	4	Temperatura máxima	17.3
72863	7	Sololá	710	Panajachel	8	Panajachel	11	Noviembre	2023-11-18T00:00:00	2024-11-08T05:00:00	3	Temperatura mínima	17.2
72864	7	Sololá	710	Panajachel	8	Panajachel	11	Noviembre	2023-11-18T00:00:00	2024-11-08T05:00:00	5	Humedad	98
72865	7	Sololá	710	Panajachel	8	Panajachel	11	Noviembre	2023-11-18T00:00:00	2024-11-08T05:00:00	6	Velocidad del viento	0
72866	7	Sololá	710	Panajachel	8	Panajachel	11	Noviembre	2023-11-18T00:00:00	2024-11-08T05:00:00	7	Dirección del viento	0
72867	7	Sololá	710	Panajachel	8	Panajachel	11	Noviembre	2023-11-18T00:00:00	2024-11-08T05:00:00	1	Precipitación	0
72868	7	Sololá	710	Panajachel	8	Panajachel	11	Noviembre	2023-11-18T00:00:00	2024-11-08T05:00:00	8	Radiación solar	0
72869	7	Sololá	710	Panajachel	8	Panajachel	11	Noviembre	2023-11-18T00:00:00	2024-11-08T06:00:00	2	Temperatura media	17
72870	7	Sololá	710	Panajachel	8	Panajachel	11	Noviembre	2023-11-18T00:00:00	2024-11-08T06:00:00	4	Temperatura máxima	17.4
72871	7	Sololá	710	Panajachel	8	Panajachel	11	Noviembre	2023-11-18T00:00:00	2024-11-08T06:00:00	3	Temperatura mínima	16.9
72872	7	Sololá	710	Panajachel	8	Panajachel	11	Noviembre	2023-11-18T00:00:00	2024-11-08T06:00:00	5	Humedad	98
72873	7	Sololá	710	Panajachel	8	Panajachel	11	Noviembre	2023-11-18T00:00:00	2024-11-08T06:00:00	6	Velocidad del viento	0
72874	7	Sololá	710	Panajachel	8	Panajachel	11	Noviembre	2023-11-18T00:00:00	2024-11-08T06:00:00	7	Dirección del viento	0
72875	7	Sololá	710	Panajachel	8	Panajachel	11	Noviembre	2023-11-18T00:00:00	2024-11-08T06:00:00	1	Precipitación	0
72876	7	Sololá	710	Panajachel	8	Panajachel	11	Noviembre	2023-11-18T00:00:00	2024-11-08T06:00:00	8	Radiación solar	0
72877	7	Sololá	710	Panajachel	8	Panajachel	11	Noviembre	2023-11-18T00:00:00	2024-11-08T07:00:00	2	Temperatura media	17.4
72878	7	Sololá	710	Panajachel	8	Panajachel	11	Noviembre	2023-11-18T00:00:00	2024-11-08T07:00:00	4	Temperatura máxima	17.4
72879	7	Sololá	710	Panajachel	8	Panajachel	11	Noviembre	2023-11-18T00:00:00	2024-11-08T07:00:00	3	Temperatura mínima	16.9
72880	7	Sololá	710	Panajachel	8	Panajachel	11	Noviembre	2023-11-18T00:00:00	2024-11-08T07:00:00	5	Humedad	95
72881	7	Sololá	710	Panajachel	8	Panajachel	11	Noviembre	2023-11-18T00:00:00	2024-11-08T07:00:00	6	Velocidad del viento	0
72882	7	Sololá	710	Panajachel	8	Panajachel	11	Noviembre	2023-11-18T00:00:00	2024-11-08T07:00:00	7	Dirección del viento	0
72883	7	Sololá	710	Panajachel	8	Panajachel	11	Noviembre	2023-11-18T00:00:00	2024-11-08T07:00:00	1	Precipitación	0
72884	7	Sololá	710	Panajachel	8	Panajachel	11	Noviembre	2023-11-18T00:00:00	2024-11-08T07:00:00	8	Radiación solar	10
72885	7	Sololá	710	Panajachel	8	Panajachel	11	Noviembre	2023-11-18T00:00:00	2024-11-08T08:00:00	2	Temperatura media	18
72886	7	Sololá	710	Panajachel	8	Panajachel	11	Noviembre	2023-11-18T00:00:00	2024-11-08T08:00:00	4	Temperatura máxima	18.1
72887	7	Sololá	710	Panajachel	8	Panajachel	11	Noviembre	2023-11-18T00:00:00	2024-11-08T08:00:00	3	Temperatura mínima	17.3
72888	7	Sololá	710	Panajachel	8	Panajachel	11	Noviembre	2023-11-18T00:00:00	2024-11-08T08:00:00	5	Humedad	96
72889	7	Sololá	710	Panajachel	8	Panajachel	11	Noviembre	2023-11-18T00:00:00	2024-11-08T08:00:00	6	Velocidad del viento	0
72890	7	Sololá	710	Panajachel	8	Panajachel	11	Noviembre	2023-11-18T00:00:00	2024-11-08T08:00:00	7	Dirección del viento	0
72891	7	Sololá	710	Panajachel	8	Panajachel	11	Noviembre	2023-11-18T00:00:00	2024-11-08T08:00:00	1	Precipitación	0
72892	7	Sololá	710	Panajachel	8	Panajachel	11	Noviembre	2023-11-18T00:00:00	2024-11-08T08:00:00	8	Radiación solar	86
72893	7	Sololá	710	Panajachel	8	Panajachel	11	Noviembre	2023-11-18T00:00:00	2024-11-08T09:00:00	2	Temperatura media	20.2
72894	7	Sololá	710	Panajachel	8	Panajachel	11	Noviembre	2023-11-18T00:00:00	2024-11-08T09:00:00	4	Temperatura máxima	20.3
72895	7	Sololá	710	Panajachel	8	Panajachel	11	Noviembre	2023-11-18T00:00:00	2024-11-08T09:00:00	3	Temperatura mínima	18.1
72896	7	Sololá	710	Panajachel	8	Panajachel	11	Noviembre	2023-11-18T00:00:00	2024-11-08T09:00:00	5	Humedad	84
72897	7	Sololá	710	Panajachel	8	Panajachel	11	Noviembre	2023-11-18T00:00:00	2024-11-08T09:00:00	6	Velocidad del viento	1.6
72898	7	Sololá	710	Panajachel	8	Panajachel	11	Noviembre	2023-11-18T00:00:00	2024-11-08T09:00:00	7	Dirección del viento	1.61
72899	7	Sololá	710	Panajachel	8	Panajachel	11	Noviembre	2023-11-18T00:00:00	2024-11-08T09:00:00	1	Precipitación	0
72900	7	Sololá	710	Panajachel	8	Panajachel	11	Noviembre	2023-11-18T00:00:00	2024-11-08T09:00:00	8	Radiación solar	470
72901	7	Sololá	710	Panajachel	8	Panajachel	11	Noviembre	2023-11-18T00:00:00	2024-11-08T10:00:00	2	Temperatura media	21.6
72902	7	Sololá	710	Panajachel	8	Panajachel	11	Noviembre	2023-11-18T00:00:00	2024-11-08T10:00:00	4	Temperatura máxima	21.6
72903	7	Sololá	710	Panajachel	8	Panajachel	11	Noviembre	2023-11-18T00:00:00	2024-11-08T10:00:00	3	Temperatura mínima	20.2
72904	7	Sololá	710	Panajachel	8	Panajachel	11	Noviembre	2023-11-18T00:00:00	2024-11-08T10:00:00	5	Humedad	79
72905	7	Sololá	710	Panajachel	8	Panajachel	11	Noviembre	2023-11-18T00:00:00	2024-11-08T10:00:00	6	Velocidad del viento	1.6
72906	7	Sololá	710	Panajachel	8	Panajachel	11	Noviembre	2023-11-18T00:00:00	2024-11-08T10:00:00	7	Dirección del viento	1.61
72907	7	Sololá	710	Panajachel	8	Panajachel	11	Noviembre	2023-11-18T00:00:00	2024-11-08T10:00:00	1	Precipitación	0
72908	7	Sololá	710	Panajachel	8	Panajachel	11	Noviembre	2023-11-18T00:00:00	2024-11-08T10:00:00	8	Radiación solar	655
72909	7	Sololá	710	Panajachel	8	Panajachel	11	Noviembre	2023-11-18T00:00:00	2024-11-08T11:00:00	2	Temperatura media	21.2
72910	7	Sololá	710	Panajachel	8	Panajachel	11	Noviembre	2023-11-18T00:00:00	2024-11-08T11:00:00	4	Temperatura máxima	22.2
72911	7	Sololá	710	Panajachel	8	Panajachel	11	Noviembre	2023-11-18T00:00:00	2024-11-08T11:00:00	3	Temperatura mínima	21.2
72912	7	Sololá	710	Panajachel	8	Panajachel	11	Noviembre	2023-11-18T00:00:00	2024-11-08T11:00:00	5	Humedad	76
72913	7	Sololá	710	Panajachel	8	Panajachel	11	Noviembre	2023-11-18T00:00:00	2024-11-08T11:00:00	6	Velocidad del viento	1.6
72914	7	Sololá	710	Panajachel	8	Panajachel	11	Noviembre	2023-11-18T00:00:00	2024-11-08T11:00:00	7	Dirección del viento	1.61
72915	7	Sololá	710	Panajachel	8	Panajachel	11	Noviembre	2023-11-18T00:00:00	2024-11-08T11:00:00	1	Precipitación	0
72916	7	Sololá	710	Panajachel	8	Panajachel	11	Noviembre	2023-11-18T00:00:00	2024-11-08T11:00:00	8	Radiación solar	744
72917	7	Sololá	710	Panajachel	8	Panajachel	11	Noviembre	2023-11-18T00:00:00	2024-11-08T12:00:00	2	Temperatura media	22.6
72918	7	Sololá	710	Panajachel	8	Panajachel	11	Noviembre	2023-11-18T00:00:00	2024-11-08T12:00:00	4	Temperatura máxima	22.7
72919	7	Sololá	710	Panajachel	8	Panajachel	11	Noviembre	2023-11-18T00:00:00	2024-11-08T12:00:00	3	Temperatura mínima	21.1
72920	7	Sololá	710	Panajachel	8	Panajachel	11	Noviembre	2023-11-18T00:00:00	2024-11-08T12:00:00	5	Humedad	77
72921	7	Sololá	710	Panajachel	8	Panajachel	11	Noviembre	2023-11-18T00:00:00	2024-11-08T12:00:00	6	Velocidad del viento	3.2
72922	7	Sololá	710	Panajachel	8	Panajachel	11	Noviembre	2023-11-18T00:00:00	2024-11-08T12:00:00	7	Dirección del viento	3.22
72923	7	Sololá	710	Panajachel	8	Panajachel	11	Noviembre	2023-11-18T00:00:00	2024-11-08T12:00:00	1	Precipitación	0
72924	7	Sololá	710	Panajachel	8	Panajachel	11	Noviembre	2023-11-18T00:00:00	2024-11-08T12:00:00	8	Radiación solar	796
72925	7	Sololá	710	Panajachel	8	Panajachel	11	Noviembre	2023-11-18T00:00:00	2024-11-08T13:00:00	2	Temperatura media	23.2
72926	7	Sololá	710	Panajachel	8	Panajachel	11	Noviembre	2023-11-18T00:00:00	2024-11-08T13:00:00	4	Temperatura máxima	23.6
72927	7	Sololá	710	Panajachel	8	Panajachel	11	Noviembre	2023-11-18T00:00:00	2024-11-08T13:00:00	3	Temperatura mínima	22.6
72928	7	Sololá	710	Panajachel	8	Panajachel	11	Noviembre	2023-11-18T00:00:00	2024-11-08T13:00:00	5	Humedad	74
72929	7	Sololá	710	Panajachel	8	Panajachel	11	Noviembre	2023-11-18T00:00:00	2024-11-08T13:00:00	6	Velocidad del viento	3.2
72930	7	Sololá	710	Panajachel	8	Panajachel	11	Noviembre	2023-11-18T00:00:00	2024-11-08T13:00:00	7	Dirección del viento	3.22
72931	7	Sololá	710	Panajachel	8	Panajachel	11	Noviembre	2023-11-18T00:00:00	2024-11-08T13:00:00	1	Precipitación	0
72932	7	Sololá	710	Panajachel	8	Panajachel	11	Noviembre	2023-11-18T00:00:00	2024-11-08T13:00:00	8	Radiación solar	784
72933	7	Sololá	710	Panajachel	8	Panajachel	11	Noviembre	2023-11-18T00:00:00	2024-11-08T14:00:00	2	Temperatura media	23.2
72934	7	Sololá	710	Panajachel	8	Panajachel	11	Noviembre	2023-11-18T00:00:00	2024-11-08T14:00:00	4	Temperatura máxima	23.6
72935	7	Sololá	710	Panajachel	8	Panajachel	11	Noviembre	2023-11-18T00:00:00	2024-11-08T14:00:00	3	Temperatura mínima	22.4
72936	7	Sololá	710	Panajachel	8	Panajachel	11	Noviembre	2023-11-18T00:00:00	2024-11-08T14:00:00	5	Humedad	76
72937	7	Sololá	710	Panajachel	8	Panajachel	11	Noviembre	2023-11-18T00:00:00	2024-11-08T14:00:00	6	Velocidad del viento	4.8
72938	7	Sololá	710	Panajachel	8	Panajachel	11	Noviembre	2023-11-18T00:00:00	2024-11-08T14:00:00	7	Dirección del viento	4.83
72939	7	Sololá	710	Panajachel	8	Panajachel	11	Noviembre	2023-11-18T00:00:00	2024-11-08T14:00:00	1	Precipitación	0
72940	7	Sololá	710	Panajachel	8	Panajachel	11	Noviembre	2023-11-18T00:00:00	2024-11-08T14:00:00	8	Radiación solar	682
72941	7	Sololá	710	Panajachel	8	Panajachel	11	Noviembre	2023-11-18T00:00:00	2024-11-08T15:00:00	2	Temperatura media	23.7
72942	7	Sololá	710	Panajachel	8	Panajachel	11	Noviembre	2023-11-18T00:00:00	2024-11-08T15:00:00	4	Temperatura máxima	23.9
72943	7	Sololá	710	Panajachel	8	Panajachel	11	Noviembre	2023-11-18T00:00:00	2024-11-08T15:00:00	3	Temperatura mínima	22.7
72944	7	Sololá	710	Panajachel	8	Panajachel	11	Noviembre	2023-11-18T00:00:00	2024-11-08T15:00:00	5	Humedad	75
72945	7	Sololá	710	Panajachel	8	Panajachel	11	Noviembre	2023-11-18T00:00:00	2024-11-08T15:00:00	6	Velocidad del viento	3.2
72946	7	Sololá	710	Panajachel	8	Panajachel	11	Noviembre	2023-11-18T00:00:00	2024-11-08T15:00:00	7	Dirección del viento	3.22
72947	7	Sololá	710	Panajachel	8	Panajachel	11	Noviembre	2023-11-18T00:00:00	2024-11-08T15:00:00	1	Precipitación	0
72948	7	Sololá	710	Panajachel	8	Panajachel	11	Noviembre	2023-11-18T00:00:00	2024-11-08T15:00:00	8	Radiación solar	535
72949	7	Sololá	710	Panajachel	8	Panajachel	11	Noviembre	2023-11-18T00:00:00	2024-11-08T16:00:00	2	Temperatura media	21.6
72950	7	Sololá	710	Panajachel	8	Panajachel	11	Noviembre	2023-11-18T00:00:00	2024-11-08T16:00:00	4	Temperatura máxima	23.9
72951	7	Sololá	710	Panajachel	8	Panajachel	11	Noviembre	2023-11-18T00:00:00	2024-11-08T16:00:00	3	Temperatura mínima	21.6
72952	7	Sololá	710	Panajachel	8	Panajachel	11	Noviembre	2023-11-18T00:00:00	2024-11-08T16:00:00	5	Humedad	86
72953	7	Sololá	710	Panajachel	8	Panajachel	11	Noviembre	2023-11-18T00:00:00	2024-11-08T16:00:00	6	Velocidad del viento	3.2
72954	7	Sololá	710	Panajachel	8	Panajachel	11	Noviembre	2023-11-18T00:00:00	2024-11-08T16:00:00	7	Dirección del viento	3.22
72955	7	Sololá	710	Panajachel	8	Panajachel	11	Noviembre	2023-11-18T00:00:00	2024-11-08T16:00:00	1	Precipitación	0
72956	7	Sololá	710	Panajachel	8	Panajachel	11	Noviembre	2023-11-18T00:00:00	2024-11-08T16:00:00	8	Radiación solar	301
72957	7	Sololá	710	Panajachel	8	Panajachel	11	Noviembre	2023-11-18T00:00:00	2024-11-08T17:00:00	2	Temperatura media	20.9
72958	7	Sololá	710	Panajachel	8	Panajachel	11	Noviembre	2023-11-18T00:00:00	2024-11-08T17:00:00	4	Temperatura máxima	21.6
72959	7	Sololá	710	Panajachel	8	Panajachel	11	Noviembre	2023-11-18T00:00:00	2024-11-08T17:00:00	3	Temperatura mínima	20.9
72960	7	Sololá	710	Panajachel	8	Panajachel	11	Noviembre	2023-11-18T00:00:00	2024-11-08T17:00:00	5	Humedad	88
72961	7	Sololá	710	Panajachel	8	Panajachel	11	Noviembre	2023-11-18T00:00:00	2024-11-08T17:00:00	6	Velocidad del viento	3.2
72962	7	Sololá	710	Panajachel	8	Panajachel	11	Noviembre	2023-11-18T00:00:00	2024-11-08T17:00:00	7	Dirección del viento	3.22
72963	7	Sololá	710	Panajachel	8	Panajachel	11	Noviembre	2023-11-18T00:00:00	2024-11-08T17:00:00	1	Precipitación	0
72964	7	Sololá	710	Panajachel	8	Panajachel	11	Noviembre	2023-11-18T00:00:00	2024-11-08T17:00:00	8	Radiación solar	97
72965	7	Sololá	710	Panajachel	8	Panajachel	11	Noviembre	2023-11-18T00:00:00	2024-11-08T18:00:00	2	Temperatura media	20.1
72966	7	Sololá	710	Panajachel	8	Panajachel	11	Noviembre	2023-11-18T00:00:00	2024-11-08T18:00:00	4	Temperatura máxima	20.9
72967	7	Sololá	710	Panajachel	8	Panajachel	11	Noviembre	2023-11-18T00:00:00	2024-11-08T18:00:00	3	Temperatura mínima	20.1
72968	7	Sololá	710	Panajachel	8	Panajachel	11	Noviembre	2023-11-18T00:00:00	2024-11-08T18:00:00	5	Humedad	90
72969	7	Sololá	710	Panajachel	8	Panajachel	11	Noviembre	2023-11-18T00:00:00	2024-11-08T18:00:00	6	Velocidad del viento	1.6
72970	7	Sololá	710	Panajachel	8	Panajachel	11	Noviembre	2023-11-18T00:00:00	2024-11-08T18:00:00	7	Dirección del viento	1.61
72971	7	Sololá	710	Panajachel	8	Panajachel	11	Noviembre	2023-11-18T00:00:00	2024-11-08T18:00:00	1	Precipitación	0
72972	7	Sololá	710	Panajachel	8	Panajachel	11	Noviembre	2023-11-18T00:00:00	2024-11-08T18:00:00	8	Radiación solar	13
72973	7	Sololá	710	Panajachel	8	Panajachel	11	Noviembre	2023-11-18T00:00:00	2024-11-08T19:00:00	2	Temperatura media	20.1
72974	7	Sololá	710	Panajachel	8	Panajachel	11	Noviembre	2023-11-18T00:00:00	2024-11-08T19:00:00	4	Temperatura máxima	20.2
72975	7	Sololá	710	Panajachel	8	Panajachel	11	Noviembre	2023-11-18T00:00:00	2024-11-08T19:00:00	3	Temperatura mínima	20.1
72976	7	Sololá	710	Panajachel	8	Panajachel	11	Noviembre	2023-11-18T00:00:00	2024-11-08T19:00:00	5	Humedad	90
72977	7	Sololá	710	Panajachel	8	Panajachel	11	Noviembre	2023-11-18T00:00:00	2024-11-08T19:00:00	6	Velocidad del viento	1.6
72978	7	Sololá	710	Panajachel	8	Panajachel	11	Noviembre	2023-11-18T00:00:00	2024-11-08T19:00:00	7	Dirección del viento	1.61
72979	7	Sololá	710	Panajachel	8	Panajachel	11	Noviembre	2023-11-18T00:00:00	2024-11-08T19:00:00	1	Precipitación	0
72980	7	Sololá	710	Panajachel	8	Panajachel	11	Noviembre	2023-11-18T00:00:00	2024-11-08T19:00:00	8	Radiación solar	0
72981	7	Sololá	710	Panajachel	8	Panajachel	11	Noviembre	2023-11-18T00:00:00	2024-11-08T20:00:00	2	Temperatura media	18.9
72982	7	Sololá	710	Panajachel	8	Panajachel	11	Noviembre	2023-11-18T00:00:00	2024-11-08T20:00:00	4	Temperatura máxima	20.1
72983	7	Sololá	710	Panajachel	8	Panajachel	11	Noviembre	2023-11-18T00:00:00	2024-11-08T20:00:00	3	Temperatura mínima	18.9
72984	7	Sololá	710	Panajachel	8	Panajachel	11	Noviembre	2023-11-18T00:00:00	2024-11-08T20:00:00	5	Humedad	90
72985	7	Sololá	710	Panajachel	8	Panajachel	11	Noviembre	2023-11-18T00:00:00	2024-11-08T20:00:00	6	Velocidad del viento	1.6
72986	7	Sololá	710	Panajachel	8	Panajachel	11	Noviembre	2023-11-18T00:00:00	2024-11-08T20:00:00	7	Dirección del viento	1.61
72987	7	Sololá	710	Panajachel	8	Panajachel	11	Noviembre	2023-11-18T00:00:00	2024-11-08T20:00:00	1	Precipitación	0
72988	7	Sololá	710	Panajachel	8	Panajachel	11	Noviembre	2023-11-18T00:00:00	2024-11-08T20:00:00	8	Radiación solar	0
72989	7	Sololá	710	Panajachel	8	Panajachel	11	Noviembre	2023-11-18T00:00:00	2024-11-08T21:00:00	2	Temperatura media	19.2
72990	7	Sololá	710	Panajachel	8	Panajachel	11	Noviembre	2023-11-18T00:00:00	2024-11-08T21:00:00	4	Temperatura máxima	19.3
72991	7	Sololá	710	Panajachel	8	Panajachel	11	Noviembre	2023-11-18T00:00:00	2024-11-08T21:00:00	3	Temperatura mínima	18.3
72992	7	Sololá	710	Panajachel	8	Panajachel	11	Noviembre	2023-11-18T00:00:00	2024-11-08T21:00:00	5	Humedad	70
72993	7	Sololá	710	Panajachel	8	Panajachel	11	Noviembre	2023-11-18T00:00:00	2024-11-08T21:00:00	6	Velocidad del viento	6.4
72994	7	Sololá	710	Panajachel	8	Panajachel	11	Noviembre	2023-11-18T00:00:00	2024-11-08T21:00:00	7	Dirección del viento	6.44
72995	7	Sololá	710	Panajachel	8	Panajachel	11	Noviembre	2023-11-18T00:00:00	2024-11-08T21:00:00	1	Precipitación	0
72996	7	Sololá	710	Panajachel	8	Panajachel	11	Noviembre	2023-11-18T00:00:00	2024-11-08T21:00:00	8	Radiación solar	0
72997	7	Sololá	710	Panajachel	8	Panajachel	11	Noviembre	2023-11-18T00:00:00	2024-11-08T22:00:00	2	Temperatura media	18.6
72998	7	Sololá	710	Panajachel	8	Panajachel	11	Noviembre	2023-11-18T00:00:00	2024-11-08T22:00:00	4	Temperatura máxima	19.2
72999	7	Sololá	710	Panajachel	8	Panajachel	11	Noviembre	2023-11-18T00:00:00	2024-11-08T22:00:00	3	Temperatura mínima	18.6
73000	7	Sololá	710	Panajachel	8	Panajachel	11	Noviembre	2023-11-18T00:00:00	2024-11-08T22:00:00	5	Humedad	72
73001	7	Sololá	710	Panajachel	8	Panajachel	11	Noviembre	2023-11-18T00:00:00	2024-11-08T22:00:00	6	Velocidad del viento	9.7
73002	7	Sololá	710	Panajachel	8	Panajachel	11	Noviembre	2023-11-18T00:00:00	2024-11-08T22:00:00	7	Dirección del viento	9.66
73003	7	Sololá	710	Panajachel	8	Panajachel	11	Noviembre	2023-11-18T00:00:00	2024-11-08T22:00:00	1	Precipitación	0
73004	7	Sololá	710	Panajachel	8	Panajachel	11	Noviembre	2023-11-18T00:00:00	2024-11-08T22:00:00	8	Radiación solar	0
73005	7	Sololá	710	Panajachel	8	Panajachel	11	Noviembre	2023-11-18T00:00:00	2024-11-08T23:00:00	2	Temperatura media	18.3
73006	7	Sololá	710	Panajachel	8	Panajachel	11	Noviembre	2023-11-18T00:00:00	2024-11-08T23:00:00	4	Temperatura máxima	18.6
73007	7	Sololá	710	Panajachel	8	Panajachel	11	Noviembre	2023-11-18T00:00:00	2024-11-08T23:00:00	3	Temperatura mínima	18.2
73008	7	Sololá	710	Panajachel	8	Panajachel	11	Noviembre	2023-11-18T00:00:00	2024-11-08T23:00:00	5	Humedad	72
73009	7	Sololá	710	Panajachel	8	Panajachel	11	Noviembre	2023-11-18T00:00:00	2024-11-08T23:00:00	6	Velocidad del viento	3.2
73010	7	Sololá	710	Panajachel	8	Panajachel	11	Noviembre	2023-11-18T00:00:00	2024-11-08T23:00:00	7	Dirección del viento	3.22
73011	7	Sololá	710	Panajachel	8	Panajachel	11	Noviembre	2023-11-18T00:00:00	2024-11-08T23:00:00	1	Precipitación	0
73012	7	Sololá	710	Panajachel	8	Panajachel	11	Noviembre	2023-11-18T00:00:00	2024-11-08T23:00:00	8	Radiación solar	0
73013	7	Sololá	710	Panajachel	8	Panajachel	11	Noviembre	2023-11-19T00:00:00	2024-11-08T00:00:00	2	Temperatura media	16.9
73014	7	Sololá	710	Panajachel	8	Panajachel	11	Noviembre	2023-11-19T00:00:00	2024-11-08T00:00:00	4	Temperatura máxima	18.4
73015	7	Sololá	710	Panajachel	8	Panajachel	11	Noviembre	2023-11-19T00:00:00	2024-11-08T00:00:00	3	Temperatura mínima	16.9
73016	7	Sololá	710	Panajachel	8	Panajachel	11	Noviembre	2023-11-19T00:00:00	2024-11-08T00:00:00	5	Humedad	77
73017	7	Sololá	710	Panajachel	8	Panajachel	11	Noviembre	2023-11-19T00:00:00	2024-11-08T00:00:00	6	Velocidad del viento	1.6
73018	7	Sololá	710	Panajachel	8	Panajachel	11	Noviembre	2023-11-19T00:00:00	2024-11-08T00:00:00	7	Dirección del viento	1.61
73019	7	Sololá	710	Panajachel	8	Panajachel	11	Noviembre	2023-11-19T00:00:00	2024-11-08T00:00:00	1	Precipitación	0
73020	7	Sololá	710	Panajachel	8	Panajachel	11	Noviembre	2023-11-19T00:00:00	2024-11-08T00:00:00	8	Radiación solar	0
73021	7	Sololá	710	Panajachel	8	Panajachel	11	Noviembre	2023-11-19T00:00:00	2024-11-08T01:00:00	2	Temperatura media	16.6
73022	7	Sololá	710	Panajachel	8	Panajachel	11	Noviembre	2023-11-19T00:00:00	2024-11-08T01:00:00	4	Temperatura máxima	16.9
73023	7	Sololá	710	Panajachel	8	Panajachel	11	Noviembre	2023-11-19T00:00:00	2024-11-08T01:00:00	3	Temperatura mínima	16.5
73024	7	Sololá	710	Panajachel	8	Panajachel	11	Noviembre	2023-11-19T00:00:00	2024-11-08T01:00:00	5	Humedad	77
73025	7	Sololá	710	Panajachel	8	Panajachel	11	Noviembre	2023-11-19T00:00:00	2024-11-08T01:00:00	6	Velocidad del viento	1.6
73026	7	Sololá	710	Panajachel	8	Panajachel	11	Noviembre	2023-11-19T00:00:00	2024-11-08T01:00:00	7	Dirección del viento	1.61
73027	7	Sololá	710	Panajachel	8	Panajachel	11	Noviembre	2023-11-19T00:00:00	2024-11-08T01:00:00	1	Precipitación	0
73028	7	Sololá	710	Panajachel	8	Panajachel	11	Noviembre	2023-11-19T00:00:00	2024-11-08T01:00:00	8	Radiación solar	0
73029	7	Sololá	710	Panajachel	8	Panajachel	11	Noviembre	2023-11-19T00:00:00	2024-11-08T02:00:00	2	Temperatura media	15.2
73030	7	Sololá	710	Panajachel	8	Panajachel	11	Noviembre	2023-11-19T00:00:00	2024-11-08T02:00:00	4	Temperatura máxima	16.6
73031	7	Sololá	710	Panajachel	8	Panajachel	11	Noviembre	2023-11-19T00:00:00	2024-11-08T02:00:00	3	Temperatura mínima	15.1
73032	7	Sololá	710	Panajachel	8	Panajachel	11	Noviembre	2023-11-19T00:00:00	2024-11-08T02:00:00	5	Humedad	82
73033	7	Sololá	710	Panajachel	8	Panajachel	11	Noviembre	2023-11-19T00:00:00	2024-11-08T02:00:00	6	Velocidad del viento	0
73034	7	Sololá	710	Panajachel	8	Panajachel	11	Noviembre	2023-11-19T00:00:00	2024-11-08T02:00:00	7	Dirección del viento	0
73035	7	Sololá	710	Panajachel	8	Panajachel	11	Noviembre	2023-11-19T00:00:00	2024-11-08T02:00:00	1	Precipitación	0
73036	7	Sololá	710	Panajachel	8	Panajachel	11	Noviembre	2023-11-19T00:00:00	2024-11-08T02:00:00	8	Radiación solar	0
73037	7	Sololá	710	Panajachel	8	Panajachel	11	Noviembre	2023-11-19T00:00:00	2024-11-08T03:00:00	2	Temperatura media	16
73038	7	Sololá	710	Panajachel	8	Panajachel	11	Noviembre	2023-11-19T00:00:00	2024-11-08T03:00:00	4	Temperatura máxima	16.1
73039	7	Sololá	710	Panajachel	8	Panajachel	11	Noviembre	2023-11-19T00:00:00	2024-11-08T03:00:00	3	Temperatura mínima	15.2
73040	7	Sololá	710	Panajachel	8	Panajachel	11	Noviembre	2023-11-19T00:00:00	2024-11-08T03:00:00	5	Humedad	78
73041	7	Sololá	710	Panajachel	8	Panajachel	11	Noviembre	2023-11-19T00:00:00	2024-11-08T03:00:00	6	Velocidad del viento	0
73042	7	Sololá	710	Panajachel	8	Panajachel	11	Noviembre	2023-11-19T00:00:00	2024-11-08T03:00:00	7	Dirección del viento	0
73043	7	Sololá	710	Panajachel	8	Panajachel	11	Noviembre	2023-11-19T00:00:00	2024-11-08T03:00:00	1	Precipitación	0
73044	7	Sololá	710	Panajachel	8	Panajachel	11	Noviembre	2023-11-19T00:00:00	2024-11-08T03:00:00	8	Radiación solar	0
73045	7	Sololá	710	Panajachel	8	Panajachel	11	Noviembre	2023-11-19T00:00:00	2024-11-08T04:00:00	2	Temperatura media	14.8
73046	7	Sololá	710	Panajachel	8	Panajachel	11	Noviembre	2023-11-19T00:00:00	2024-11-08T04:00:00	4	Temperatura máxima	16.1
73047	7	Sololá	710	Panajachel	8	Panajachel	11	Noviembre	2023-11-19T00:00:00	2024-11-08T04:00:00	3	Temperatura mínima	14.7
73048	7	Sololá	710	Panajachel	8	Panajachel	11	Noviembre	2023-11-19T00:00:00	2024-11-08T04:00:00	5	Humedad	84
73049	7	Sololá	710	Panajachel	8	Panajachel	11	Noviembre	2023-11-19T00:00:00	2024-11-08T04:00:00	6	Velocidad del viento	1.6
73050	7	Sololá	710	Panajachel	8	Panajachel	11	Noviembre	2023-11-19T00:00:00	2024-11-08T04:00:00	7	Dirección del viento	1.61
73051	7	Sololá	710	Panajachel	8	Panajachel	11	Noviembre	2023-11-19T00:00:00	2024-11-08T04:00:00	1	Precipitación	0
73052	7	Sololá	710	Panajachel	8	Panajachel	11	Noviembre	2023-11-19T00:00:00	2024-11-08T04:00:00	8	Radiación solar	0
73053	7	Sololá	710	Panajachel	8	Panajachel	11	Noviembre	2023-11-19T00:00:00	2024-11-08T05:00:00	2	Temperatura media	15.1
73054	7	Sololá	710	Panajachel	8	Panajachel	11	Noviembre	2023-11-19T00:00:00	2024-11-08T05:00:00	4	Temperatura máxima	15.6
73055	7	Sololá	710	Panajachel	8	Panajachel	11	Noviembre	2023-11-19T00:00:00	2024-11-08T05:00:00	3	Temperatura mínima	14.8
73056	7	Sololá	710	Panajachel	8	Panajachel	11	Noviembre	2023-11-19T00:00:00	2024-11-08T05:00:00	5	Humedad	81
73057	7	Sololá	710	Panajachel	8	Panajachel	11	Noviembre	2023-11-19T00:00:00	2024-11-08T05:00:00	6	Velocidad del viento	3.2
73058	7	Sololá	710	Panajachel	8	Panajachel	11	Noviembre	2023-11-19T00:00:00	2024-11-08T05:00:00	7	Dirección del viento	3.22
73059	7	Sololá	710	Panajachel	8	Panajachel	11	Noviembre	2023-11-19T00:00:00	2024-11-08T05:00:00	1	Precipitación	0
73060	7	Sololá	710	Panajachel	8	Panajachel	11	Noviembre	2023-11-19T00:00:00	2024-11-08T05:00:00	8	Radiación solar	0
73061	7	Sololá	710	Panajachel	8	Panajachel	11	Noviembre	2023-11-19T00:00:00	2024-11-08T06:00:00	2	Temperatura media	14.1
73062	7	Sololá	710	Panajachel	8	Panajachel	11	Noviembre	2023-11-19T00:00:00	2024-11-08T06:00:00	4	Temperatura máxima	15.2
73063	7	Sololá	710	Panajachel	8	Panajachel	11	Noviembre	2023-11-19T00:00:00	2024-11-08T06:00:00	3	Temperatura mínima	14.1
73064	7	Sololá	710	Panajachel	8	Panajachel	11	Noviembre	2023-11-19T00:00:00	2024-11-08T06:00:00	5	Humedad	84
73065	7	Sololá	710	Panajachel	8	Panajachel	11	Noviembre	2023-11-19T00:00:00	2024-11-08T06:00:00	6	Velocidad del viento	1.6
73066	7	Sololá	710	Panajachel	8	Panajachel	11	Noviembre	2023-11-19T00:00:00	2024-11-08T06:00:00	7	Dirección del viento	1.61
73067	7	Sololá	710	Panajachel	8	Panajachel	11	Noviembre	2023-11-19T00:00:00	2024-11-08T06:00:00	1	Precipitación	0
73068	7	Sololá	710	Panajachel	8	Panajachel	11	Noviembre	2023-11-19T00:00:00	2024-11-08T06:00:00	8	Radiación solar	0
73069	7	Sololá	710	Panajachel	8	Panajachel	11	Noviembre	2023-11-19T00:00:00	2024-11-08T07:00:00	2	Temperatura media	14.9
73070	7	Sololá	710	Panajachel	8	Panajachel	11	Noviembre	2023-11-19T00:00:00	2024-11-08T07:00:00	4	Temperatura máxima	14.9
73071	7	Sololá	710	Panajachel	8	Panajachel	11	Noviembre	2023-11-19T00:00:00	2024-11-08T07:00:00	3	Temperatura mínima	13.9
73072	7	Sololá	710	Panajachel	8	Panajachel	11	Noviembre	2023-11-19T00:00:00	2024-11-08T07:00:00	5	Humedad	82
73073	7	Sololá	710	Panajachel	8	Panajachel	11	Noviembre	2023-11-19T00:00:00	2024-11-08T07:00:00	6	Velocidad del viento	1.6
73074	7	Sololá	710	Panajachel	8	Panajachel	11	Noviembre	2023-11-19T00:00:00	2024-11-08T07:00:00	7	Dirección del viento	1.61
73075	7	Sololá	710	Panajachel	8	Panajachel	11	Noviembre	2023-11-19T00:00:00	2024-11-08T07:00:00	1	Precipitación	0
73076	7	Sololá	710	Panajachel	8	Panajachel	11	Noviembre	2023-11-19T00:00:00	2024-11-08T07:00:00	8	Radiación solar	24
73077	7	Sololá	710	Panajachel	8	Panajachel	11	Noviembre	2023-11-19T00:00:00	2024-11-08T08:00:00	2	Temperatura media	17.4
73078	7	Sololá	710	Panajachel	8	Panajachel	11	Noviembre	2023-11-19T00:00:00	2024-11-08T08:00:00	4	Temperatura máxima	17.4
73079	7	Sololá	710	Panajachel	8	Panajachel	11	Noviembre	2023-11-19T00:00:00	2024-11-08T08:00:00	3	Temperatura mínima	14.9
73080	7	Sololá	710	Panajachel	8	Panajachel	11	Noviembre	2023-11-19T00:00:00	2024-11-08T08:00:00	5	Humedad	77
73081	7	Sololá	710	Panajachel	8	Panajachel	11	Noviembre	2023-11-19T00:00:00	2024-11-08T08:00:00	6	Velocidad del viento	3.2
73082	7	Sololá	710	Panajachel	8	Panajachel	11	Noviembre	2023-11-19T00:00:00	2024-11-08T08:00:00	7	Dirección del viento	3.22
73083	7	Sololá	710	Panajachel	8	Panajachel	11	Noviembre	2023-11-19T00:00:00	2024-11-08T08:00:00	1	Precipitación	0
73084	7	Sololá	710	Panajachel	8	Panajachel	11	Noviembre	2023-11-19T00:00:00	2024-11-08T08:00:00	8	Radiación solar	234
73085	7	Sololá	710	Panajachel	8	Panajachel	11	Noviembre	2023-11-19T00:00:00	2024-11-08T09:00:00	2	Temperatura media	19.3
73086	7	Sololá	710	Panajachel	8	Panajachel	11	Noviembre	2023-11-19T00:00:00	2024-11-08T09:00:00	4	Temperatura máxima	19.3
73087	7	Sololá	710	Panajachel	8	Panajachel	11	Noviembre	2023-11-19T00:00:00	2024-11-08T09:00:00	3	Temperatura mínima	17.4
73088	7	Sololá	710	Panajachel	8	Panajachel	11	Noviembre	2023-11-19T00:00:00	2024-11-08T09:00:00	5	Humedad	77
73089	7	Sololá	710	Panajachel	8	Panajachel	11	Noviembre	2023-11-19T00:00:00	2024-11-08T09:00:00	6	Velocidad del viento	1.6
73090	7	Sololá	710	Panajachel	8	Panajachel	11	Noviembre	2023-11-19T00:00:00	2024-11-08T09:00:00	7	Dirección del viento	1.61
73091	7	Sololá	710	Panajachel	8	Panajachel	11	Noviembre	2023-11-19T00:00:00	2024-11-08T09:00:00	1	Precipitación	0
73092	7	Sololá	710	Panajachel	8	Panajachel	11	Noviembre	2023-11-19T00:00:00	2024-11-08T09:00:00	8	Radiación solar	441
73093	7	Sololá	710	Panajachel	8	Panajachel	11	Noviembre	2023-11-19T00:00:00	2024-11-08T10:00:00	2	Temperatura media	20
73094	7	Sololá	710	Panajachel	8	Panajachel	11	Noviembre	2023-11-19T00:00:00	2024-11-08T10:00:00	4	Temperatura máxima	20.2
73095	7	Sololá	710	Panajachel	8	Panajachel	11	Noviembre	2023-11-19T00:00:00	2024-11-08T10:00:00	3	Temperatura mínima	19.3
73096	7	Sololá	710	Panajachel	8	Panajachel	11	Noviembre	2023-11-19T00:00:00	2024-11-08T10:00:00	5	Humedad	75
73097	7	Sololá	710	Panajachel	8	Panajachel	11	Noviembre	2023-11-19T00:00:00	2024-11-08T10:00:00	6	Velocidad del viento	3.2
73098	7	Sololá	710	Panajachel	8	Panajachel	11	Noviembre	2023-11-19T00:00:00	2024-11-08T10:00:00	7	Dirección del viento	3.22
73099	7	Sololá	710	Panajachel	8	Panajachel	11	Noviembre	2023-11-19T00:00:00	2024-11-08T10:00:00	1	Precipitación	0
73100	7	Sololá	710	Panajachel	8	Panajachel	11	Noviembre	2023-11-19T00:00:00	2024-11-08T10:00:00	8	Radiación solar	619
73101	7	Sololá	710	Panajachel	8	Panajachel	11	Noviembre	2023-11-19T00:00:00	2024-11-08T11:00:00	2	Temperatura media	20.7
73102	7	Sololá	710	Panajachel	8	Panajachel	11	Noviembre	2023-11-19T00:00:00	2024-11-08T11:00:00	4	Temperatura máxima	21.4
73103	7	Sololá	710	Panajachel	8	Panajachel	11	Noviembre	2023-11-19T00:00:00	2024-11-08T11:00:00	3	Temperatura mínima	20
73104	7	Sololá	710	Panajachel	8	Panajachel	11	Noviembre	2023-11-19T00:00:00	2024-11-08T11:00:00	5	Humedad	70
73105	7	Sololá	710	Panajachel	8	Panajachel	11	Noviembre	2023-11-19T00:00:00	2024-11-08T11:00:00	6	Velocidad del viento	3.2
73106	7	Sololá	710	Panajachel	8	Panajachel	11	Noviembre	2023-11-19T00:00:00	2024-11-08T11:00:00	7	Dirección del viento	3.22
73107	7	Sololá	710	Panajachel	8	Panajachel	11	Noviembre	2023-11-19T00:00:00	2024-11-08T11:00:00	1	Precipitación	0
73108	7	Sololá	710	Panajachel	8	Panajachel	11	Noviembre	2023-11-19T00:00:00	2024-11-08T11:00:00	8	Radiación solar	739
73109	7	Sololá	710	Panajachel	8	Panajachel	11	Noviembre	2023-11-19T00:00:00	2024-11-08T12:00:00	2	Temperatura media	21.6
73110	7	Sololá	710	Panajachel	8	Panajachel	11	Noviembre	2023-11-19T00:00:00	2024-11-08T12:00:00	4	Temperatura máxima	22
73111	7	Sololá	710	Panajachel	8	Panajachel	11	Noviembre	2023-11-19T00:00:00	2024-11-08T12:00:00	3	Temperatura mínima	20.7
73112	7	Sololá	710	Panajachel	8	Panajachel	11	Noviembre	2023-11-19T00:00:00	2024-11-08T12:00:00	5	Humedad	73
73113	7	Sololá	710	Panajachel	8	Panajachel	11	Noviembre	2023-11-19T00:00:00	2024-11-08T12:00:00	6	Velocidad del viento	3.2
73114	7	Sololá	710	Panajachel	8	Panajachel	11	Noviembre	2023-11-19T00:00:00	2024-11-08T12:00:00	7	Dirección del viento	3.22
73115	7	Sololá	710	Panajachel	8	Panajachel	11	Noviembre	2023-11-19T00:00:00	2024-11-08T12:00:00	1	Precipitación	0
73116	7	Sololá	710	Panajachel	8	Panajachel	11	Noviembre	2023-11-19T00:00:00	2024-11-08T12:00:00	8	Radiación solar	790
73117	7	Sololá	710	Panajachel	8	Panajachel	11	Noviembre	2023-11-19T00:00:00	2024-11-08T13:00:00	2	Temperatura media	23
73118	7	Sololá	710	Panajachel	8	Panajachel	11	Noviembre	2023-11-19T00:00:00	2024-11-08T13:00:00	4	Temperatura máxima	23.2
73119	7	Sololá	710	Panajachel	8	Panajachel	11	Noviembre	2023-11-19T00:00:00	2024-11-08T13:00:00	3	Temperatura mínima	21.6
73120	7	Sololá	710	Panajachel	8	Panajachel	11	Noviembre	2023-11-19T00:00:00	2024-11-08T13:00:00	5	Humedad	77
73121	7	Sololá	710	Panajachel	8	Panajachel	11	Noviembre	2023-11-19T00:00:00	2024-11-08T13:00:00	6	Velocidad del viento	4.8
73122	7	Sololá	710	Panajachel	8	Panajachel	11	Noviembre	2023-11-19T00:00:00	2024-11-08T13:00:00	7	Dirección del viento	4.83
73123	7	Sololá	710	Panajachel	8	Panajachel	11	Noviembre	2023-11-19T00:00:00	2024-11-08T13:00:00	1	Precipitación	0
73124	7	Sololá	710	Panajachel	8	Panajachel	11	Noviembre	2023-11-19T00:00:00	2024-11-08T13:00:00	8	Radiación solar	800
73125	7	Sololá	710	Panajachel	8	Panajachel	11	Noviembre	2023-11-19T00:00:00	2024-11-08T14:00:00	2	Temperatura media	21.7
73126	7	Sololá	710	Panajachel	8	Panajachel	11	Noviembre	2023-11-19T00:00:00	2024-11-08T14:00:00	4	Temperatura máxima	23
73127	7	Sololá	710	Panajachel	8	Panajachel	11	Noviembre	2023-11-19T00:00:00	2024-11-08T14:00:00	3	Temperatura mínima	21.6
73128	7	Sololá	710	Panajachel	8	Panajachel	11	Noviembre	2023-11-19T00:00:00	2024-11-08T14:00:00	5	Humedad	81
73129	7	Sololá	710	Panajachel	8	Panajachel	11	Noviembre	2023-11-19T00:00:00	2024-11-08T14:00:00	6	Velocidad del viento	4.8
73130	7	Sololá	710	Panajachel	8	Panajachel	11	Noviembre	2023-11-19T00:00:00	2024-11-08T14:00:00	7	Dirección del viento	4.83
73131	7	Sololá	710	Panajachel	8	Panajachel	11	Noviembre	2023-11-19T00:00:00	2024-11-08T14:00:00	1	Precipitación	0
73132	7	Sololá	710	Panajachel	8	Panajachel	11	Noviembre	2023-11-19T00:00:00	2024-11-08T14:00:00	8	Radiación solar	371
73133	7	Sololá	710	Panajachel	8	Panajachel	11	Noviembre	2023-11-19T00:00:00	2024-11-08T15:00:00	2	Temperatura media	20.7
73134	7	Sololá	710	Panajachel	8	Panajachel	11	Noviembre	2023-11-19T00:00:00	2024-11-08T15:00:00	4	Temperatura máxima	21.9
73135	7	Sololá	710	Panajachel	8	Panajachel	11	Noviembre	2023-11-19T00:00:00	2024-11-08T15:00:00	3	Temperatura mínima	20.7
73136	7	Sololá	710	Panajachel	8	Panajachel	11	Noviembre	2023-11-19T00:00:00	2024-11-08T15:00:00	5	Humedad	83
73137	7	Sololá	710	Panajachel	8	Panajachel	11	Noviembre	2023-11-19T00:00:00	2024-11-08T15:00:00	6	Velocidad del viento	3.2
73138	7	Sololá	710	Panajachel	8	Panajachel	11	Noviembre	2023-11-19T00:00:00	2024-11-08T15:00:00	7	Dirección del viento	3.22
73139	7	Sololá	710	Panajachel	8	Panajachel	11	Noviembre	2023-11-19T00:00:00	2024-11-08T15:00:00	1	Precipitación	0
73140	7	Sololá	710	Panajachel	8	Panajachel	11	Noviembre	2023-11-19T00:00:00	2024-11-08T15:00:00	8	Radiación solar	203
73141	7	Sololá	710	Panajachel	8	Panajachel	11	Noviembre	2023-11-19T00:00:00	2024-11-08T16:00:00	2	Temperatura media	20.4
73142	7	Sololá	710	Panajachel	8	Panajachel	11	Noviembre	2023-11-19T00:00:00	2024-11-08T16:00:00	4	Temperatura máxima	20.7
73143	7	Sololá	710	Panajachel	8	Panajachel	11	Noviembre	2023-11-19T00:00:00	2024-11-08T16:00:00	3	Temperatura mínima	20.3
73144	7	Sololá	710	Panajachel	8	Panajachel	11	Noviembre	2023-11-19T00:00:00	2024-11-08T16:00:00	5	Humedad	87
73145	7	Sololá	710	Panajachel	8	Panajachel	11	Noviembre	2023-11-19T00:00:00	2024-11-08T16:00:00	6	Velocidad del viento	3.2
73146	7	Sololá	710	Panajachel	8	Panajachel	11	Noviembre	2023-11-19T00:00:00	2024-11-08T16:00:00	7	Dirección del viento	3.22
73147	7	Sololá	710	Panajachel	8	Panajachel	11	Noviembre	2023-11-19T00:00:00	2024-11-08T16:00:00	1	Precipitación	0
73148	7	Sololá	710	Panajachel	8	Panajachel	11	Noviembre	2023-11-19T00:00:00	2024-11-08T16:00:00	8	Radiación solar	82
73149	7	Sololá	710	Panajachel	8	Panajachel	11	Noviembre	2023-11-19T00:00:00	2024-11-08T17:00:00	2	Temperatura media	19.9
73150	7	Sololá	710	Panajachel	8	Panajachel	11	Noviembre	2023-11-19T00:00:00	2024-11-08T17:00:00	4	Temperatura máxima	20.4
73151	7	Sololá	710	Panajachel	8	Panajachel	11	Noviembre	2023-11-19T00:00:00	2024-11-08T17:00:00	3	Temperatura mínima	19.8
73152	7	Sololá	710	Panajachel	8	Panajachel	11	Noviembre	2023-11-19T00:00:00	2024-11-08T17:00:00	5	Humedad	88
73153	7	Sololá	710	Panajachel	8	Panajachel	11	Noviembre	2023-11-19T00:00:00	2024-11-08T17:00:00	6	Velocidad del viento	1.6
73154	7	Sololá	710	Panajachel	8	Panajachel	11	Noviembre	2023-11-19T00:00:00	2024-11-08T17:00:00	7	Dirección del viento	1.61
73155	7	Sololá	710	Panajachel	8	Panajachel	11	Noviembre	2023-11-19T00:00:00	2024-11-08T17:00:00	1	Precipitación	0
73156	7	Sololá	710	Panajachel	8	Panajachel	11	Noviembre	2023-11-19T00:00:00	2024-11-08T17:00:00	8	Radiación solar	55
73157	7	Sololá	710	Panajachel	8	Panajachel	11	Noviembre	2023-11-19T00:00:00	2024-11-08T18:00:00	2	Temperatura media	19.2
73158	7	Sololá	710	Panajachel	8	Panajachel	11	Noviembre	2023-11-19T00:00:00	2024-11-08T18:00:00	4	Temperatura máxima	19.9
73159	7	Sololá	710	Panajachel	8	Panajachel	11	Noviembre	2023-11-19T00:00:00	2024-11-08T18:00:00	3	Temperatura mínima	19.2
73160	7	Sololá	710	Panajachel	8	Panajachel	11	Noviembre	2023-11-19T00:00:00	2024-11-08T18:00:00	5	Humedad	90
73161	7	Sololá	710	Panajachel	8	Panajachel	11	Noviembre	2023-11-19T00:00:00	2024-11-08T18:00:00	6	Velocidad del viento	3.2
73162	7	Sololá	710	Panajachel	8	Panajachel	11	Noviembre	2023-11-19T00:00:00	2024-11-08T18:00:00	7	Dirección del viento	3.22
73163	7	Sololá	710	Panajachel	8	Panajachel	11	Noviembre	2023-11-19T00:00:00	2024-11-08T18:00:00	1	Precipitación	0
73164	7	Sololá	710	Panajachel	8	Panajachel	11	Noviembre	2023-11-19T00:00:00	2024-11-08T18:00:00	8	Radiación solar	3
73165	7	Sololá	710	Panajachel	8	Panajachel	11	Noviembre	2023-11-19T00:00:00	2024-11-08T19:00:00	2	Temperatura media	18.7
73166	7	Sololá	710	Panajachel	8	Panajachel	11	Noviembre	2023-11-19T00:00:00	2024-11-08T19:00:00	4	Temperatura máxima	19.2
73167	7	Sololá	710	Panajachel	8	Panajachel	11	Noviembre	2023-11-19T00:00:00	2024-11-08T19:00:00	3	Temperatura mínima	18.7
73168	7	Sololá	710	Panajachel	8	Panajachel	11	Noviembre	2023-11-19T00:00:00	2024-11-08T19:00:00	5	Humedad	93
73169	7	Sololá	710	Panajachel	8	Panajachel	11	Noviembre	2023-11-19T00:00:00	2024-11-08T19:00:00	6	Velocidad del viento	3.2
73170	7	Sololá	710	Panajachel	8	Panajachel	11	Noviembre	2023-11-19T00:00:00	2024-11-08T19:00:00	7	Dirección del viento	3.22
73171	7	Sololá	710	Panajachel	8	Panajachel	11	Noviembre	2023-11-19T00:00:00	2024-11-08T19:00:00	1	Precipitación	0
73172	7	Sololá	710	Panajachel	8	Panajachel	11	Noviembre	2023-11-19T00:00:00	2024-11-08T19:00:00	8	Radiación solar	0
73173	7	Sololá	710	Panajachel	8	Panajachel	11	Noviembre	2023-11-19T00:00:00	2024-11-08T20:00:00	2	Temperatura media	18.1
73174	7	Sololá	710	Panajachel	8	Panajachel	11	Noviembre	2023-11-19T00:00:00	2024-11-08T20:00:00	4	Temperatura máxima	18.8
73175	7	Sololá	710	Panajachel	8	Panajachel	11	Noviembre	2023-11-19T00:00:00	2024-11-08T20:00:00	3	Temperatura mínima	18.1
73176	7	Sololá	710	Panajachel	8	Panajachel	11	Noviembre	2023-11-19T00:00:00	2024-11-08T20:00:00	5	Humedad	94
73177	7	Sololá	710	Panajachel	8	Panajachel	11	Noviembre	2023-11-19T00:00:00	2024-11-08T20:00:00	6	Velocidad del viento	4.8
73178	7	Sololá	710	Panajachel	8	Panajachel	11	Noviembre	2023-11-19T00:00:00	2024-11-08T20:00:00	7	Dirección del viento	4.83
73179	7	Sololá	710	Panajachel	8	Panajachel	11	Noviembre	2023-11-19T00:00:00	2024-11-08T20:00:00	1	Precipitación	0
73180	7	Sololá	710	Panajachel	8	Panajachel	11	Noviembre	2023-11-19T00:00:00	2024-11-08T20:00:00	8	Radiación solar	0
73181	7	Sololá	710	Panajachel	8	Panajachel	11	Noviembre	2023-11-19T00:00:00	2024-11-08T21:00:00	2	Temperatura media	18.2
73182	7	Sololá	710	Panajachel	8	Panajachel	11	Noviembre	2023-11-19T00:00:00	2024-11-08T21:00:00	4	Temperatura máxima	18.2
73183	7	Sololá	710	Panajachel	8	Panajachel	11	Noviembre	2023-11-19T00:00:00	2024-11-08T21:00:00	3	Temperatura mínima	18
73184	7	Sololá	710	Panajachel	8	Panajachel	11	Noviembre	2023-11-19T00:00:00	2024-11-08T21:00:00	5	Humedad	91
73185	7	Sololá	710	Panajachel	8	Panajachel	11	Noviembre	2023-11-19T00:00:00	2024-11-08T21:00:00	6	Velocidad del viento	1.6
73186	7	Sololá	710	Panajachel	8	Panajachel	11	Noviembre	2023-11-19T00:00:00	2024-11-08T21:00:00	7	Dirección del viento	1.61
73187	7	Sololá	710	Panajachel	8	Panajachel	11	Noviembre	2023-11-19T00:00:00	2024-11-08T21:00:00	1	Precipitación	0
73188	7	Sololá	710	Panajachel	8	Panajachel	11	Noviembre	2023-11-19T00:00:00	2024-11-08T21:00:00	8	Radiación solar	0
73189	7	Sololá	710	Panajachel	8	Panajachel	11	Noviembre	2023-11-19T00:00:00	2024-11-08T22:00:00	2	Temperatura media	18.3
73190	7	Sololá	710	Panajachel	8	Panajachel	11	Noviembre	2023-11-19T00:00:00	2024-11-08T22:00:00	4	Temperatura máxima	18.3
73191	7	Sololá	710	Panajachel	8	Panajachel	11	Noviembre	2023-11-19T00:00:00	2024-11-08T22:00:00	3	Temperatura mínima	18.1
73192	7	Sololá	710	Panajachel	8	Panajachel	11	Noviembre	2023-11-19T00:00:00	2024-11-08T22:00:00	5	Humedad	92
73193	7	Sololá	710	Panajachel	8	Panajachel	11	Noviembre	2023-11-19T00:00:00	2024-11-08T22:00:00	6	Velocidad del viento	1.6
73194	7	Sololá	710	Panajachel	8	Panajachel	11	Noviembre	2023-11-19T00:00:00	2024-11-08T22:00:00	7	Dirección del viento	1.61
73195	7	Sololá	710	Panajachel	8	Panajachel	11	Noviembre	2023-11-19T00:00:00	2024-11-08T22:00:00	1	Precipitación	0
73196	7	Sololá	710	Panajachel	8	Panajachel	11	Noviembre	2023-11-19T00:00:00	2024-11-08T22:00:00	8	Radiación solar	0
73197	7	Sololá	710	Panajachel	8	Panajachel	11	Noviembre	2023-11-19T00:00:00	2024-11-08T23:00:00	2	Temperatura media	18.1
73198	7	Sololá	710	Panajachel	8	Panajachel	11	Noviembre	2023-11-19T00:00:00	2024-11-08T23:00:00	4	Temperatura máxima	18.3
73199	7	Sololá	710	Panajachel	8	Panajachel	11	Noviembre	2023-11-19T00:00:00	2024-11-08T23:00:00	3	Temperatura mínima	18
73200	7	Sololá	710	Panajachel	8	Panajachel	11	Noviembre	2023-11-19T00:00:00	2024-11-08T23:00:00	5	Humedad	92
73201	7	Sololá	710	Panajachel	8	Panajachel	11	Noviembre	2023-11-19T00:00:00	2024-11-08T23:00:00	6	Velocidad del viento	1.6
73202	7	Sololá	710	Panajachel	8	Panajachel	11	Noviembre	2023-11-19T00:00:00	2024-11-08T23:00:00	7	Dirección del viento	1.61
73203	7	Sololá	710	Panajachel	8	Panajachel	11	Noviembre	2023-11-19T00:00:00	2024-11-08T23:00:00	1	Precipitación	0
73204	7	Sololá	710	Panajachel	8	Panajachel	11	Noviembre	2023-11-19T00:00:00	2024-11-08T23:00:00	8	Radiación solar	0
73205	7	Sololá	710	Panajachel	8	Panajachel	11	Noviembre	2023-11-20T00:00:00	2024-11-08T00:00:00	2	Temperatura media	17.9
73206	7	Sololá	710	Panajachel	8	Panajachel	11	Noviembre	2023-11-20T00:00:00	2024-11-08T00:00:00	4	Temperatura máxima	18.1
73207	7	Sololá	710	Panajachel	8	Panajachel	11	Noviembre	2023-11-20T00:00:00	2024-11-08T00:00:00	3	Temperatura mínima	17.9
73208	7	Sololá	710	Panajachel	8	Panajachel	11	Noviembre	2023-11-20T00:00:00	2024-11-08T00:00:00	5	Humedad	88
73209	7	Sololá	710	Panajachel	8	Panajachel	11	Noviembre	2023-11-20T00:00:00	2024-11-08T00:00:00	6	Velocidad del viento	3.2
73210	7	Sololá	710	Panajachel	8	Panajachel	11	Noviembre	2023-11-20T00:00:00	2024-11-08T00:00:00	7	Dirección del viento	3.22
73211	7	Sololá	710	Panajachel	8	Panajachel	11	Noviembre	2023-11-20T00:00:00	2024-11-08T00:00:00	1	Precipitación	0
73212	7	Sololá	710	Panajachel	8	Panajachel	11	Noviembre	2023-11-20T00:00:00	2024-11-08T00:00:00	8	Radiación solar	0
73213	7	Sololá	710	Panajachel	8	Panajachel	11	Noviembre	2023-11-20T00:00:00	2024-11-08T01:00:00	2	Temperatura media	17.3
73214	7	Sololá	710	Panajachel	8	Panajachel	11	Noviembre	2023-11-20T00:00:00	2024-11-08T01:00:00	4	Temperatura máxima	17.9
73215	7	Sololá	710	Panajachel	8	Panajachel	11	Noviembre	2023-11-20T00:00:00	2024-11-08T01:00:00	3	Temperatura mínima	17.3
73216	7	Sololá	710	Panajachel	8	Panajachel	11	Noviembre	2023-11-20T00:00:00	2024-11-08T01:00:00	5	Humedad	89
73217	7	Sololá	710	Panajachel	8	Panajachel	11	Noviembre	2023-11-20T00:00:00	2024-11-08T01:00:00	6	Velocidad del viento	0
73218	7	Sololá	710	Panajachel	8	Panajachel	11	Noviembre	2023-11-20T00:00:00	2024-11-08T01:00:00	7	Dirección del viento	0
73219	7	Sololá	710	Panajachel	8	Panajachel	11	Noviembre	2023-11-20T00:00:00	2024-11-08T01:00:00	1	Precipitación	0
73220	7	Sololá	710	Panajachel	8	Panajachel	11	Noviembre	2023-11-20T00:00:00	2024-11-08T01:00:00	8	Radiación solar	0
73221	7	Sololá	710	Panajachel	8	Panajachel	11	Noviembre	2023-11-20T00:00:00	2024-11-08T02:00:00	2	Temperatura media	16.3
73222	7	Sololá	710	Panajachel	8	Panajachel	11	Noviembre	2023-11-20T00:00:00	2024-11-08T02:00:00	4	Temperatura máxima	17.3
73223	7	Sololá	710	Panajachel	8	Panajachel	11	Noviembre	2023-11-20T00:00:00	2024-11-08T02:00:00	3	Temperatura mínima	16.3
73224	7	Sololá	710	Panajachel	8	Panajachel	11	Noviembre	2023-11-20T00:00:00	2024-11-08T02:00:00	5	Humedad	88
73225	7	Sololá	710	Panajachel	8	Panajachel	11	Noviembre	2023-11-20T00:00:00	2024-11-08T02:00:00	6	Velocidad del viento	0
73226	7	Sololá	710	Panajachel	8	Panajachel	11	Noviembre	2023-11-20T00:00:00	2024-11-08T02:00:00	7	Dirección del viento	0
73227	7	Sololá	710	Panajachel	8	Panajachel	11	Noviembre	2023-11-20T00:00:00	2024-11-08T02:00:00	1	Precipitación	0
73228	7	Sololá	710	Panajachel	8	Panajachel	11	Noviembre	2023-11-20T00:00:00	2024-11-08T02:00:00	8	Radiación solar	0
73229	7	Sololá	710	Panajachel	8	Panajachel	11	Noviembre	2023-11-20T00:00:00	2024-11-08T03:00:00	2	Temperatura media	15.2
73230	7	Sololá	710	Panajachel	8	Panajachel	11	Noviembre	2023-11-20T00:00:00	2024-11-08T03:00:00	4	Temperatura máxima	16.3
73231	7	Sololá	710	Panajachel	8	Panajachel	11	Noviembre	2023-11-20T00:00:00	2024-11-08T03:00:00	3	Temperatura mínima	15.1
73232	7	Sololá	710	Panajachel	8	Panajachel	11	Noviembre	2023-11-20T00:00:00	2024-11-08T03:00:00	5	Humedad	88
73233	7	Sololá	710	Panajachel	8	Panajachel	11	Noviembre	2023-11-20T00:00:00	2024-11-08T03:00:00	6	Velocidad del viento	1.6
73234	7	Sololá	710	Panajachel	8	Panajachel	11	Noviembre	2023-11-20T00:00:00	2024-11-08T03:00:00	7	Dirección del viento	1.61
73235	7	Sololá	710	Panajachel	8	Panajachel	11	Noviembre	2023-11-20T00:00:00	2024-11-08T03:00:00	1	Precipitación	0
73236	7	Sololá	710	Panajachel	8	Panajachel	11	Noviembre	2023-11-20T00:00:00	2024-11-08T03:00:00	8	Radiación solar	0
73237	7	Sololá	710	Panajachel	8	Panajachel	11	Noviembre	2023-11-20T00:00:00	2024-11-08T04:00:00	2	Temperatura media	14.8
73238	7	Sololá	710	Panajachel	8	Panajachel	11	Noviembre	2023-11-20T00:00:00	2024-11-08T04:00:00	4	Temperatura máxima	15.2
73239	7	Sololá	710	Panajachel	8	Panajachel	11	Noviembre	2023-11-20T00:00:00	2024-11-08T04:00:00	3	Temperatura mínima	14.6
73240	7	Sololá	710	Panajachel	8	Panajachel	11	Noviembre	2023-11-20T00:00:00	2024-11-08T04:00:00	5	Humedad	88
73241	7	Sololá	710	Panajachel	8	Panajachel	11	Noviembre	2023-11-20T00:00:00	2024-11-08T04:00:00	6	Velocidad del viento	1.6
73242	7	Sololá	710	Panajachel	8	Panajachel	11	Noviembre	2023-11-20T00:00:00	2024-11-08T04:00:00	7	Dirección del viento	1.61
73243	7	Sololá	710	Panajachel	8	Panajachel	11	Noviembre	2023-11-20T00:00:00	2024-11-08T04:00:00	1	Precipitación	0
73244	7	Sololá	710	Panajachel	8	Panajachel	11	Noviembre	2023-11-20T00:00:00	2024-11-08T04:00:00	8	Radiación solar	0
73245	7	Sololá	710	Panajachel	8	Panajachel	11	Noviembre	2023-11-20T00:00:00	2024-11-08T05:00:00	2	Temperatura media	14.9
73246	7	Sololá	710	Panajachel	8	Panajachel	11	Noviembre	2023-11-20T00:00:00	2024-11-08T05:00:00	4	Temperatura máxima	14.9
73247	7	Sololá	710	Panajachel	8	Panajachel	11	Noviembre	2023-11-20T00:00:00	2024-11-08T05:00:00	3	Temperatura mínima	14.7
73248	7	Sololá	710	Panajachel	8	Panajachel	11	Noviembre	2023-11-20T00:00:00	2024-11-08T05:00:00	5	Humedad	84
73249	7	Sololá	710	Panajachel	8	Panajachel	11	Noviembre	2023-11-20T00:00:00	2024-11-08T05:00:00	6	Velocidad del viento	3.2
73250	7	Sololá	710	Panajachel	8	Panajachel	11	Noviembre	2023-11-20T00:00:00	2024-11-08T05:00:00	7	Dirección del viento	3.22
73251	7	Sololá	710	Panajachel	8	Panajachel	11	Noviembre	2023-11-20T00:00:00	2024-11-08T05:00:00	1	Precipitación	0
73252	7	Sololá	710	Panajachel	8	Panajachel	11	Noviembre	2023-11-20T00:00:00	2024-11-08T05:00:00	8	Radiación solar	0
73253	7	Sololá	710	Panajachel	8	Panajachel	11	Noviembre	2023-11-20T00:00:00	2024-11-08T06:00:00	2	Temperatura media	13.9
73254	7	Sololá	710	Panajachel	8	Panajachel	11	Noviembre	2023-11-20T00:00:00	2024-11-08T06:00:00	4	Temperatura máxima	14.9
73255	7	Sololá	710	Panajachel	8	Panajachel	11	Noviembre	2023-11-20T00:00:00	2024-11-08T06:00:00	3	Temperatura mínima	13.9
73256	7	Sololá	710	Panajachel	8	Panajachel	11	Noviembre	2023-11-20T00:00:00	2024-11-08T06:00:00	5	Humedad	87
73257	7	Sololá	710	Panajachel	8	Panajachel	11	Noviembre	2023-11-20T00:00:00	2024-11-08T06:00:00	6	Velocidad del viento	3.2
73258	7	Sololá	710	Panajachel	8	Panajachel	11	Noviembre	2023-11-20T00:00:00	2024-11-08T06:00:00	7	Dirección del viento	3.22
73259	7	Sololá	710	Panajachel	8	Panajachel	11	Noviembre	2023-11-20T00:00:00	2024-11-08T06:00:00	1	Precipitación	0
73260	7	Sololá	710	Panajachel	8	Panajachel	11	Noviembre	2023-11-20T00:00:00	2024-11-08T06:00:00	8	Radiación solar	0
73261	7	Sololá	710	Panajachel	8	Panajachel	11	Noviembre	2023-11-20T00:00:00	2024-11-08T07:00:00	2	Temperatura media	14.3
73262	7	Sololá	710	Panajachel	8	Panajachel	11	Noviembre	2023-11-20T00:00:00	2024-11-08T07:00:00	4	Temperatura máxima	14.3
73263	7	Sololá	710	Panajachel	8	Panajachel	11	Noviembre	2023-11-20T00:00:00	2024-11-08T07:00:00	3	Temperatura mínima	13.8
73264	7	Sololá	710	Panajachel	8	Panajachel	11	Noviembre	2023-11-20T00:00:00	2024-11-08T07:00:00	5	Humedad	82
73265	7	Sololá	710	Panajachel	8	Panajachel	11	Noviembre	2023-11-20T00:00:00	2024-11-08T07:00:00	6	Velocidad del viento	4.8
73266	7	Sololá	710	Panajachel	8	Panajachel	11	Noviembre	2023-11-20T00:00:00	2024-11-08T07:00:00	7	Dirección del viento	4.83
73267	7	Sololá	710	Panajachel	8	Panajachel	11	Noviembre	2023-11-20T00:00:00	2024-11-08T07:00:00	1	Precipitación	0
73268	7	Sololá	710	Panajachel	8	Panajachel	11	Noviembre	2023-11-20T00:00:00	2024-11-08T07:00:00	8	Radiación solar	25
73269	7	Sololá	710	Panajachel	8	Panajachel	11	Noviembre	2023-11-20T00:00:00	2024-11-08T08:00:00	2	Temperatura media	17.8
73270	7	Sololá	710	Panajachel	8	Panajachel	11	Noviembre	2023-11-20T00:00:00	2024-11-08T08:00:00	4	Temperatura máxima	17.8
73271	7	Sololá	710	Panajachel	8	Panajachel	11	Noviembre	2023-11-20T00:00:00	2024-11-08T08:00:00	3	Temperatura mínima	14.3
73272	7	Sololá	710	Panajachel	8	Panajachel	11	Noviembre	2023-11-20T00:00:00	2024-11-08T08:00:00	5	Humedad	75
73273	7	Sololá	710	Panajachel	8	Panajachel	11	Noviembre	2023-11-20T00:00:00	2024-11-08T08:00:00	6	Velocidad del viento	3.2
73274	7	Sololá	710	Panajachel	8	Panajachel	11	Noviembre	2023-11-20T00:00:00	2024-11-08T08:00:00	7	Dirección del viento	3.22
73275	7	Sololá	710	Panajachel	8	Panajachel	11	Noviembre	2023-11-20T00:00:00	2024-11-08T08:00:00	1	Precipitación	0
73276	7	Sololá	710	Panajachel	8	Panajachel	11	Noviembre	2023-11-20T00:00:00	2024-11-08T08:00:00	8	Radiación solar	226
73277	7	Sololá	710	Panajachel	8	Panajachel	11	Noviembre	2023-11-20T00:00:00	2024-11-08T09:00:00	2	Temperatura media	19.6
73278	7	Sololá	710	Panajachel	8	Panajachel	11	Noviembre	2023-11-20T00:00:00	2024-11-08T09:00:00	4	Temperatura máxima	19.6
73279	7	Sololá	710	Panajachel	8	Panajachel	11	Noviembre	2023-11-20T00:00:00	2024-11-08T09:00:00	3	Temperatura mínima	17.8
73280	7	Sololá	710	Panajachel	8	Panajachel	11	Noviembre	2023-11-20T00:00:00	2024-11-08T09:00:00	5	Humedad	77
73281	7	Sololá	710	Panajachel	8	Panajachel	11	Noviembre	2023-11-20T00:00:00	2024-11-08T09:00:00	6	Velocidad del viento	1.6
73282	7	Sololá	710	Panajachel	8	Panajachel	11	Noviembre	2023-11-20T00:00:00	2024-11-08T09:00:00	7	Dirección del viento	1.61
73283	7	Sololá	710	Panajachel	8	Panajachel	11	Noviembre	2023-11-20T00:00:00	2024-11-08T09:00:00	1	Precipitación	0
73284	7	Sololá	710	Panajachel	8	Panajachel	11	Noviembre	2023-11-20T00:00:00	2024-11-08T09:00:00	8	Radiación solar	439
73285	7	Sololá	710	Panajachel	8	Panajachel	11	Noviembre	2023-11-20T00:00:00	2024-11-08T10:00:00	2	Temperatura media	19.9
73286	7	Sololá	710	Panajachel	8	Panajachel	11	Noviembre	2023-11-20T00:00:00	2024-11-08T10:00:00	4	Temperatura máxima	20.1
73287	7	Sololá	710	Panajachel	8	Panajachel	11	Noviembre	2023-11-20T00:00:00	2024-11-08T10:00:00	3	Temperatura mínima	19.4
73288	7	Sololá	710	Panajachel	8	Panajachel	11	Noviembre	2023-11-20T00:00:00	2024-11-08T10:00:00	5	Humedad	76
73289	7	Sololá	710	Panajachel	8	Panajachel	11	Noviembre	2023-11-20T00:00:00	2024-11-08T10:00:00	6	Velocidad del viento	1.6
73290	7	Sololá	710	Panajachel	8	Panajachel	11	Noviembre	2023-11-20T00:00:00	2024-11-08T10:00:00	7	Dirección del viento	1.61
73291	7	Sololá	710	Panajachel	8	Panajachel	11	Noviembre	2023-11-20T00:00:00	2024-11-08T10:00:00	1	Precipitación	0
73292	7	Sololá	710	Panajachel	8	Panajachel	11	Noviembre	2023-11-20T00:00:00	2024-11-08T10:00:00	8	Radiación solar	614
73293	7	Sololá	710	Panajachel	8	Panajachel	11	Noviembre	2023-11-20T00:00:00	2024-11-08T11:00:00	2	Temperatura media	21.3
73294	7	Sololá	710	Panajachel	8	Panajachel	11	Noviembre	2023-11-20T00:00:00	2024-11-08T11:00:00	4	Temperatura máxima	21.3
73295	7	Sololá	710	Panajachel	8	Panajachel	11	Noviembre	2023-11-20T00:00:00	2024-11-08T11:00:00	3	Temperatura mínima	19.8
73296	7	Sololá	710	Panajachel	8	Panajachel	11	Noviembre	2023-11-20T00:00:00	2024-11-08T11:00:00	5	Humedad	72
73297	7	Sololá	710	Panajachel	8	Panajachel	11	Noviembre	2023-11-20T00:00:00	2024-11-08T11:00:00	6	Velocidad del viento	3.2
73298	7	Sololá	710	Panajachel	8	Panajachel	11	Noviembre	2023-11-20T00:00:00	2024-11-08T11:00:00	7	Dirección del viento	3.22
73299	7	Sololá	710	Panajachel	8	Panajachel	11	Noviembre	2023-11-20T00:00:00	2024-11-08T11:00:00	1	Precipitación	0
73300	7	Sololá	710	Panajachel	8	Panajachel	11	Noviembre	2023-11-20T00:00:00	2024-11-08T11:00:00	8	Radiación solar	736
73301	7	Sololá	710	Panajachel	8	Panajachel	11	Noviembre	2023-11-20T00:00:00	2024-11-08T12:00:00	2	Temperatura media	21.7
73302	7	Sololá	710	Panajachel	8	Panajachel	11	Noviembre	2023-11-20T00:00:00	2024-11-08T12:00:00	4	Temperatura máxima	22.4
73303	7	Sololá	710	Panajachel	8	Panajachel	11	Noviembre	2023-11-20T00:00:00	2024-11-08T12:00:00	3	Temperatura mínima	21.2
73304	7	Sololá	710	Panajachel	8	Panajachel	11	Noviembre	2023-11-20T00:00:00	2024-11-08T12:00:00	5	Humedad	72
73305	7	Sololá	710	Panajachel	8	Panajachel	11	Noviembre	2023-11-20T00:00:00	2024-11-08T12:00:00	6	Velocidad del viento	3.2
73306	7	Sololá	710	Panajachel	8	Panajachel	11	Noviembre	2023-11-20T00:00:00	2024-11-08T12:00:00	7	Dirección del viento	3.22
73307	7	Sololá	710	Panajachel	8	Panajachel	11	Noviembre	2023-11-20T00:00:00	2024-11-08T12:00:00	1	Precipitación	0
73308	7	Sololá	710	Panajachel	8	Panajachel	11	Noviembre	2023-11-20T00:00:00	2024-11-08T12:00:00	8	Radiación solar	786
73309	7	Sololá	710	Panajachel	8	Panajachel	11	Noviembre	2023-11-20T00:00:00	2024-11-08T13:00:00	2	Temperatura media	21.8
73310	7	Sololá	710	Panajachel	8	Panajachel	11	Noviembre	2023-11-20T00:00:00	2024-11-08T13:00:00	4	Temperatura máxima	23.1
73311	7	Sololá	710	Panajachel	8	Panajachel	11	Noviembre	2023-11-20T00:00:00	2024-11-08T13:00:00	3	Temperatura mínima	21.7
73312	7	Sololá	710	Panajachel	8	Panajachel	11	Noviembre	2023-11-20T00:00:00	2024-11-08T13:00:00	5	Humedad	76
73313	7	Sololá	710	Panajachel	8	Panajachel	11	Noviembre	2023-11-20T00:00:00	2024-11-08T13:00:00	6	Velocidad del viento	4.8
73314	7	Sololá	710	Panajachel	8	Panajachel	11	Noviembre	2023-11-20T00:00:00	2024-11-08T13:00:00	7	Dirección del viento	4.83
73315	7	Sololá	710	Panajachel	8	Panajachel	11	Noviembre	2023-11-20T00:00:00	2024-11-08T13:00:00	1	Precipitación	0
73316	7	Sololá	710	Panajachel	8	Panajachel	11	Noviembre	2023-11-20T00:00:00	2024-11-08T13:00:00	8	Radiación solar	777
73317	7	Sololá	710	Panajachel	8	Panajachel	11	Noviembre	2023-11-20T00:00:00	2024-11-08T14:00:00	2	Temperatura media	21.5
73318	7	Sololá	710	Panajachel	8	Panajachel	11	Noviembre	2023-11-20T00:00:00	2024-11-08T14:00:00	4	Temperatura máxima	22.2
73319	7	Sololá	710	Panajachel	8	Panajachel	11	Noviembre	2023-11-20T00:00:00	2024-11-08T14:00:00	3	Temperatura mínima	21.4
73320	7	Sololá	710	Panajachel	8	Panajachel	11	Noviembre	2023-11-20T00:00:00	2024-11-08T14:00:00	5	Humedad	79
73321	7	Sololá	710	Panajachel	8	Panajachel	11	Noviembre	2023-11-20T00:00:00	2024-11-08T14:00:00	6	Velocidad del viento	4.8
73322	7	Sololá	710	Panajachel	8	Panajachel	11	Noviembre	2023-11-20T00:00:00	2024-11-08T14:00:00	7	Dirección del viento	4.83
73323	7	Sololá	710	Panajachel	8	Panajachel	11	Noviembre	2023-11-20T00:00:00	2024-11-08T14:00:00	1	Precipitación	0
73324	7	Sololá	710	Panajachel	8	Panajachel	11	Noviembre	2023-11-20T00:00:00	2024-11-08T14:00:00	8	Radiación solar	329
73325	7	Sololá	710	Panajachel	8	Panajachel	11	Noviembre	2023-11-20T00:00:00	2024-11-08T15:00:00	2	Temperatura media	21.9
73326	7	Sololá	710	Panajachel	8	Panajachel	11	Noviembre	2023-11-20T00:00:00	2024-11-08T15:00:00	4	Temperatura máxima	22.9
73327	7	Sololá	710	Panajachel	8	Panajachel	11	Noviembre	2023-11-20T00:00:00	2024-11-08T15:00:00	3	Temperatura mínima	21.5
73328	7	Sololá	710	Panajachel	8	Panajachel	11	Noviembre	2023-11-20T00:00:00	2024-11-08T15:00:00	5	Humedad	79
73329	7	Sololá	710	Panajachel	8	Panajachel	11	Noviembre	2023-11-20T00:00:00	2024-11-08T15:00:00	6	Velocidad del viento	3.2
73330	7	Sololá	710	Panajachel	8	Panajachel	11	Noviembre	2023-11-20T00:00:00	2024-11-08T15:00:00	7	Dirección del viento	3.22
73331	7	Sololá	710	Panajachel	8	Panajachel	11	Noviembre	2023-11-20T00:00:00	2024-11-08T15:00:00	1	Precipitación	0
73332	7	Sololá	710	Panajachel	8	Panajachel	11	Noviembre	2023-11-20T00:00:00	2024-11-08T15:00:00	8	Radiación solar	375
73333	7	Sololá	710	Panajachel	8	Panajachel	11	Noviembre	2023-11-20T00:00:00	2024-11-08T16:00:00	2	Temperatura media	21.1
73334	7	Sololá	710	Panajachel	8	Panajachel	11	Noviembre	2023-11-20T00:00:00	2024-11-08T16:00:00	4	Temperatura máxima	22.6
73335	7	Sololá	710	Panajachel	8	Panajachel	11	Noviembre	2023-11-20T00:00:00	2024-11-08T16:00:00	3	Temperatura mínima	21.1
73336	7	Sololá	710	Panajachel	8	Panajachel	11	Noviembre	2023-11-20T00:00:00	2024-11-08T16:00:00	5	Humedad	84
73337	7	Sololá	710	Panajachel	8	Panajachel	11	Noviembre	2023-11-20T00:00:00	2024-11-08T16:00:00	6	Velocidad del viento	3.2
73338	7	Sololá	710	Panajachel	8	Panajachel	11	Noviembre	2023-11-20T00:00:00	2024-11-08T16:00:00	7	Dirección del viento	3.22
73339	7	Sololá	710	Panajachel	8	Panajachel	11	Noviembre	2023-11-20T00:00:00	2024-11-08T16:00:00	1	Precipitación	0
73340	7	Sololá	710	Panajachel	8	Panajachel	11	Noviembre	2023-11-20T00:00:00	2024-11-08T16:00:00	8	Radiación solar	233
73341	7	Sololá	710	Panajachel	8	Panajachel	11	Noviembre	2023-11-20T00:00:00	2024-11-08T17:00:00	2	Temperatura media	20.3
73342	7	Sololá	710	Panajachel	8	Panajachel	11	Noviembre	2023-11-20T00:00:00	2024-11-08T17:00:00	4	Temperatura máxima	21.1
73343	7	Sololá	710	Panajachel	8	Panajachel	11	Noviembre	2023-11-20T00:00:00	2024-11-08T17:00:00	3	Temperatura mínima	20.2
73344	7	Sololá	710	Panajachel	8	Panajachel	11	Noviembre	2023-11-20T00:00:00	2024-11-08T17:00:00	5	Humedad	87
73345	7	Sololá	710	Panajachel	8	Panajachel	11	Noviembre	2023-11-20T00:00:00	2024-11-08T17:00:00	6	Velocidad del viento	3.2
73346	7	Sololá	710	Panajachel	8	Panajachel	11	Noviembre	2023-11-20T00:00:00	2024-11-08T17:00:00	7	Dirección del viento	3.22
73347	7	Sololá	710	Panajachel	8	Panajachel	11	Noviembre	2023-11-20T00:00:00	2024-11-08T17:00:00	1	Precipitación	0
73348	7	Sololá	710	Panajachel	8	Panajachel	11	Noviembre	2023-11-20T00:00:00	2024-11-08T17:00:00	8	Radiación solar	42
73349	7	Sololá	710	Panajachel	8	Panajachel	11	Noviembre	2023-11-20T00:00:00	2024-11-08T18:00:00	2	Temperatura media	19.8
73350	7	Sololá	710	Panajachel	8	Panajachel	11	Noviembre	2023-11-20T00:00:00	2024-11-08T18:00:00	4	Temperatura máxima	20.3
73351	7	Sololá	710	Panajachel	8	Panajachel	11	Noviembre	2023-11-20T00:00:00	2024-11-08T18:00:00	3	Temperatura mínima	19.8
73352	7	Sololá	710	Panajachel	8	Panajachel	11	Noviembre	2023-11-20T00:00:00	2024-11-08T18:00:00	5	Humedad	91
73353	7	Sololá	710	Panajachel	8	Panajachel	11	Noviembre	2023-11-20T00:00:00	2024-11-08T18:00:00	6	Velocidad del viento	1.6
73354	7	Sololá	710	Panajachel	8	Panajachel	11	Noviembre	2023-11-20T00:00:00	2024-11-08T18:00:00	7	Dirección del viento	1.61
73355	7	Sololá	710	Panajachel	8	Panajachel	11	Noviembre	2023-11-20T00:00:00	2024-11-08T18:00:00	1	Precipitación	0
73356	7	Sololá	710	Panajachel	8	Panajachel	11	Noviembre	2023-11-20T00:00:00	2024-11-08T18:00:00	8	Radiación solar	5
73357	7	Sololá	710	Panajachel	8	Panajachel	11	Noviembre	2023-11-20T00:00:00	2024-11-08T19:00:00	2	Temperatura media	19.2
73358	7	Sololá	710	Panajachel	8	Panajachel	11	Noviembre	2023-11-20T00:00:00	2024-11-08T19:00:00	4	Temperatura máxima	19.8
73359	7	Sololá	710	Panajachel	8	Panajachel	11	Noviembre	2023-11-20T00:00:00	2024-11-08T19:00:00	3	Temperatura mínima	19.2
73360	7	Sololá	710	Panajachel	8	Panajachel	11	Noviembre	2023-11-20T00:00:00	2024-11-08T19:00:00	5	Humedad	89
73361	7	Sololá	710	Panajachel	8	Panajachel	11	Noviembre	2023-11-20T00:00:00	2024-11-08T19:00:00	6	Velocidad del viento	0
73362	7	Sololá	710	Panajachel	8	Panajachel	11	Noviembre	2023-11-20T00:00:00	2024-11-08T19:00:00	7	Dirección del viento	0
73363	7	Sololá	710	Panajachel	8	Panajachel	11	Noviembre	2023-11-20T00:00:00	2024-11-08T19:00:00	1	Precipitación	0
73364	7	Sololá	710	Panajachel	8	Panajachel	11	Noviembre	2023-11-20T00:00:00	2024-11-08T19:00:00	8	Radiación solar	0
73365	7	Sololá	710	Panajachel	8	Panajachel	11	Noviembre	2023-11-20T00:00:00	2024-11-08T20:00:00	2	Temperatura media	18.1
73366	7	Sololá	710	Panajachel	8	Panajachel	11	Noviembre	2023-11-20T00:00:00	2024-11-08T20:00:00	4	Temperatura máxima	19.2
73367	7	Sololá	710	Panajachel	8	Panajachel	11	Noviembre	2023-11-20T00:00:00	2024-11-08T20:00:00	3	Temperatura mínima	18.1
73368	7	Sololá	710	Panajachel	8	Panajachel	11	Noviembre	2023-11-20T00:00:00	2024-11-08T20:00:00	5	Humedad	90
73369	7	Sololá	710	Panajachel	8	Panajachel	11	Noviembre	2023-11-20T00:00:00	2024-11-08T20:00:00	6	Velocidad del viento	0
73370	7	Sololá	710	Panajachel	8	Panajachel	11	Noviembre	2023-11-20T00:00:00	2024-11-08T20:00:00	7	Dirección del viento	0
73371	7	Sololá	710	Panajachel	8	Panajachel	11	Noviembre	2023-11-20T00:00:00	2024-11-08T20:00:00	1	Precipitación	0
73372	7	Sololá	710	Panajachel	8	Panajachel	11	Noviembre	2023-11-20T00:00:00	2024-11-08T20:00:00	8	Radiación solar	0
73373	7	Sololá	710	Panajachel	8	Panajachel	11	Noviembre	2023-11-20T00:00:00	2024-11-08T21:00:00	2	Temperatura media	18.2
73374	7	Sololá	710	Panajachel	8	Panajachel	11	Noviembre	2023-11-20T00:00:00	2024-11-08T21:00:00	4	Temperatura máxima	18.3
73375	7	Sololá	710	Panajachel	8	Panajachel	11	Noviembre	2023-11-20T00:00:00	2024-11-08T21:00:00	3	Temperatura mínima	18.1
73376	7	Sololá	710	Panajachel	8	Panajachel	11	Noviembre	2023-11-20T00:00:00	2024-11-08T21:00:00	5	Humedad	88
73377	7	Sololá	710	Panajachel	8	Panajachel	11	Noviembre	2023-11-20T00:00:00	2024-11-08T21:00:00	6	Velocidad del viento	1.6
73378	7	Sololá	710	Panajachel	8	Panajachel	11	Noviembre	2023-11-20T00:00:00	2024-11-08T21:00:00	7	Dirección del viento	1.61
73379	7	Sololá	710	Panajachel	8	Panajachel	11	Noviembre	2023-11-20T00:00:00	2024-11-08T21:00:00	1	Precipitación	0
73380	7	Sololá	710	Panajachel	8	Panajachel	11	Noviembre	2023-11-20T00:00:00	2024-11-08T21:00:00	8	Radiación solar	0
73381	7	Sololá	710	Panajachel	8	Panajachel	11	Noviembre	2023-11-20T00:00:00	2024-11-08T22:00:00	2	Temperatura media	18.3
73382	7	Sololá	710	Panajachel	8	Panajachel	11	Noviembre	2023-11-20T00:00:00	2024-11-08T22:00:00	4	Temperatura máxima	18.3
73383	7	Sololá	710	Panajachel	8	Panajachel	11	Noviembre	2023-11-20T00:00:00	2024-11-08T22:00:00	3	Temperatura mínima	18.1
73384	7	Sololá	710	Panajachel	8	Panajachel	11	Noviembre	2023-11-20T00:00:00	2024-11-08T22:00:00	5	Humedad	85
73385	7	Sololá	710	Panajachel	8	Panajachel	11	Noviembre	2023-11-20T00:00:00	2024-11-08T22:00:00	6	Velocidad del viento	1.6
73386	7	Sololá	710	Panajachel	8	Panajachel	11	Noviembre	2023-11-20T00:00:00	2024-11-08T22:00:00	7	Dirección del viento	1.61
73387	7	Sololá	710	Panajachel	8	Panajachel	11	Noviembre	2023-11-20T00:00:00	2024-11-08T22:00:00	1	Precipitación	0
73388	7	Sololá	710	Panajachel	8	Panajachel	11	Noviembre	2023-11-20T00:00:00	2024-11-08T22:00:00	8	Radiación solar	0
73389	7	Sololá	710	Panajachel	8	Panajachel	11	Noviembre	2023-11-20T00:00:00	2024-11-08T23:00:00	2	Temperatura media	18.6
73390	7	Sololá	710	Panajachel	8	Panajachel	11	Noviembre	2023-11-20T00:00:00	2024-11-08T23:00:00	4	Temperatura máxima	18.6
73391	7	Sololá	710	Panajachel	8	Panajachel	11	Noviembre	2023-11-20T00:00:00	2024-11-08T23:00:00	3	Temperatura mínima	18.2
73392	7	Sololá	710	Panajachel	8	Panajachel	11	Noviembre	2023-11-20T00:00:00	2024-11-08T23:00:00	5	Humedad	90
73393	7	Sololá	710	Panajachel	8	Panajachel	11	Noviembre	2023-11-20T00:00:00	2024-11-08T23:00:00	6	Velocidad del viento	0
73394	7	Sololá	710	Panajachel	8	Panajachel	11	Noviembre	2023-11-20T00:00:00	2024-11-08T23:00:00	7	Dirección del viento	0
73395	7	Sololá	710	Panajachel	8	Panajachel	11	Noviembre	2023-11-20T00:00:00	2024-11-08T23:00:00	1	Precipitación	0
73396	7	Sololá	710	Panajachel	8	Panajachel	11	Noviembre	2023-11-20T00:00:00	2024-11-08T23:00:00	8	Radiación solar	0
73397	7	Sololá	710	Panajachel	8	Panajachel	11	Noviembre	2023-11-21T00:00:00	2024-11-08T00:00:00	2	Temperatura media	18.3
73398	7	Sololá	710	Panajachel	8	Panajachel	11	Noviembre	2023-11-21T00:00:00	2024-11-08T00:00:00	4	Temperatura máxima	18.6
73399	7	Sololá	710	Panajachel	8	Panajachel	11	Noviembre	2023-11-21T00:00:00	2024-11-08T00:00:00	3	Temperatura mínima	18.3
73400	7	Sololá	710	Panajachel	8	Panajachel	11	Noviembre	2023-11-21T00:00:00	2024-11-08T00:00:00	5	Humedad	88
73401	7	Sololá	710	Panajachel	8	Panajachel	11	Noviembre	2023-11-21T00:00:00	2024-11-08T00:00:00	6	Velocidad del viento	0
73402	7	Sololá	710	Panajachel	8	Panajachel	11	Noviembre	2023-11-21T00:00:00	2024-11-08T00:00:00	7	Dirección del viento	0
73403	7	Sololá	710	Panajachel	8	Panajachel	11	Noviembre	2023-11-21T00:00:00	2024-11-08T00:00:00	1	Precipitación	0
73404	7	Sololá	710	Panajachel	8	Panajachel	11	Noviembre	2023-11-21T00:00:00	2024-11-08T00:00:00	8	Radiación solar	0
73405	7	Sololá	710	Panajachel	8	Panajachel	11	Noviembre	2023-11-21T00:00:00	2024-11-08T01:00:00	2	Temperatura media	17.2
73406	7	Sololá	710	Panajachel	8	Panajachel	11	Noviembre	2023-11-21T00:00:00	2024-11-08T01:00:00	4	Temperatura máxima	18.3
73407	7	Sololá	710	Panajachel	8	Panajachel	11	Noviembre	2023-11-21T00:00:00	2024-11-08T01:00:00	3	Temperatura mínima	17.2
73408	7	Sololá	710	Panajachel	8	Panajachel	11	Noviembre	2023-11-21T00:00:00	2024-11-08T01:00:00	5	Humedad	90
73409	7	Sololá	710	Panajachel	8	Panajachel	11	Noviembre	2023-11-21T00:00:00	2024-11-08T01:00:00	6	Velocidad del viento	1.6
73410	7	Sololá	710	Panajachel	8	Panajachel	11	Noviembre	2023-11-21T00:00:00	2024-11-08T01:00:00	7	Dirección del viento	1.61
73411	7	Sololá	710	Panajachel	8	Panajachel	11	Noviembre	2023-11-21T00:00:00	2024-11-08T01:00:00	1	Precipitación	0
73412	7	Sololá	710	Panajachel	8	Panajachel	11	Noviembre	2023-11-21T00:00:00	2024-11-08T01:00:00	8	Radiación solar	0
73413	7	Sololá	710	Panajachel	8	Panajachel	11	Noviembre	2023-11-21T00:00:00	2024-11-08T02:00:00	2	Temperatura media	16.5
73414	7	Sololá	710	Panajachel	8	Panajachel	11	Noviembre	2023-11-21T00:00:00	2024-11-08T02:00:00	4	Temperatura máxima	17.2
73415	7	Sololá	710	Panajachel	8	Panajachel	11	Noviembre	2023-11-21T00:00:00	2024-11-08T02:00:00	3	Temperatura mínima	16.3
73416	7	Sololá	710	Panajachel	8	Panajachel	11	Noviembre	2023-11-21T00:00:00	2024-11-08T02:00:00	5	Humedad	86
73417	7	Sololá	710	Panajachel	8	Panajachel	11	Noviembre	2023-11-21T00:00:00	2024-11-08T02:00:00	6	Velocidad del viento	1.6
73418	7	Sololá	710	Panajachel	8	Panajachel	11	Noviembre	2023-11-21T00:00:00	2024-11-08T02:00:00	7	Dirección del viento	1.61
73419	7	Sololá	710	Panajachel	8	Panajachel	11	Noviembre	2023-11-21T00:00:00	2024-11-08T02:00:00	1	Precipitación	0
73420	7	Sololá	710	Panajachel	8	Panajachel	11	Noviembre	2023-11-21T00:00:00	2024-11-08T02:00:00	8	Radiación solar	0
73421	7	Sololá	710	Panajachel	8	Panajachel	11	Noviembre	2023-11-21T00:00:00	2024-11-08T03:00:00	2	Temperatura media	15.9
73422	7	Sololá	710	Panajachel	8	Panajachel	11	Noviembre	2023-11-21T00:00:00	2024-11-08T03:00:00	4	Temperatura máxima	16.5
73423	7	Sololá	710	Panajachel	8	Panajachel	11	Noviembre	2023-11-21T00:00:00	2024-11-08T03:00:00	3	Temperatura mínima	15.9
73424	7	Sololá	710	Panajachel	8	Panajachel	11	Noviembre	2023-11-21T00:00:00	2024-11-08T03:00:00	5	Humedad	85
73425	7	Sololá	710	Panajachel	8	Panajachel	11	Noviembre	2023-11-21T00:00:00	2024-11-08T03:00:00	6	Velocidad del viento	3.2
73426	7	Sololá	710	Panajachel	8	Panajachel	11	Noviembre	2023-11-21T00:00:00	2024-11-08T03:00:00	7	Dirección del viento	3.22
73427	7	Sololá	710	Panajachel	8	Panajachel	11	Noviembre	2023-11-21T00:00:00	2024-11-08T03:00:00	1	Precipitación	0
73428	7	Sololá	710	Panajachel	8	Panajachel	11	Noviembre	2023-11-21T00:00:00	2024-11-08T03:00:00	8	Radiación solar	0
73429	7	Sololá	710	Panajachel	8	Panajachel	11	Noviembre	2023-11-21T00:00:00	2024-11-08T04:00:00	2	Temperatura media	15.3
73430	7	Sololá	710	Panajachel	8	Panajachel	11	Noviembre	2023-11-21T00:00:00	2024-11-08T04:00:00	4	Temperatura máxima	15.9
73431	7	Sololá	710	Panajachel	8	Panajachel	11	Noviembre	2023-11-21T00:00:00	2024-11-08T04:00:00	3	Temperatura mínima	15.3
73432	7	Sololá	710	Panajachel	8	Panajachel	11	Noviembre	2023-11-21T00:00:00	2024-11-08T04:00:00	5	Humedad	84
73433	7	Sololá	710	Panajachel	8	Panajachel	11	Noviembre	2023-11-21T00:00:00	2024-11-08T04:00:00	6	Velocidad del viento	3.2
73434	7	Sololá	710	Panajachel	8	Panajachel	11	Noviembre	2023-11-21T00:00:00	2024-11-08T04:00:00	7	Dirección del viento	3.22
73435	7	Sololá	710	Panajachel	8	Panajachel	11	Noviembre	2023-11-21T00:00:00	2024-11-08T04:00:00	1	Precipitación	0
73436	7	Sololá	710	Panajachel	8	Panajachel	11	Noviembre	2023-11-21T00:00:00	2024-11-08T04:00:00	8	Radiación solar	0
73437	7	Sololá	710	Panajachel	8	Panajachel	11	Noviembre	2023-11-21T00:00:00	2024-11-08T05:00:00	2	Temperatura media	14.7
73438	7	Sololá	710	Panajachel	8	Panajachel	11	Noviembre	2023-11-21T00:00:00	2024-11-08T05:00:00	4	Temperatura máxima	15.3
73439	7	Sololá	710	Panajachel	8	Panajachel	11	Noviembre	2023-11-21T00:00:00	2024-11-08T05:00:00	3	Temperatura mínima	14.6
73440	7	Sololá	710	Panajachel	8	Panajachel	11	Noviembre	2023-11-21T00:00:00	2024-11-08T05:00:00	5	Humedad	82
73441	7	Sololá	710	Panajachel	8	Panajachel	11	Noviembre	2023-11-21T00:00:00	2024-11-08T05:00:00	6	Velocidad del viento	3.2
73442	7	Sololá	710	Panajachel	8	Panajachel	11	Noviembre	2023-11-21T00:00:00	2024-11-08T05:00:00	7	Dirección del viento	3.22
73443	7	Sololá	710	Panajachel	8	Panajachel	11	Noviembre	2023-11-21T00:00:00	2024-11-08T05:00:00	1	Precipitación	0
73444	7	Sololá	710	Panajachel	8	Panajachel	11	Noviembre	2023-11-21T00:00:00	2024-11-08T05:00:00	8	Radiación solar	0
73445	7	Sololá	710	Panajachel	8	Panajachel	11	Noviembre	2023-11-21T00:00:00	2024-11-08T06:00:00	2	Temperatura media	14.6
73446	7	Sololá	710	Panajachel	8	Panajachel	11	Noviembre	2023-11-21T00:00:00	2024-11-08T06:00:00	4	Temperatura máxima	14.8
73447	7	Sololá	710	Panajachel	8	Panajachel	11	Noviembre	2023-11-21T00:00:00	2024-11-08T06:00:00	3	Temperatura mínima	14.6
73448	7	Sololá	710	Panajachel	8	Panajachel	11	Noviembre	2023-11-21T00:00:00	2024-11-08T06:00:00	5	Humedad	80
73449	7	Sololá	710	Panajachel	8	Panajachel	11	Noviembre	2023-11-21T00:00:00	2024-11-08T06:00:00	6	Velocidad del viento	4.8
73450	7	Sololá	710	Panajachel	8	Panajachel	11	Noviembre	2023-11-21T00:00:00	2024-11-08T06:00:00	7	Dirección del viento	4.83
73451	7	Sololá	710	Panajachel	8	Panajachel	11	Noviembre	2023-11-21T00:00:00	2024-11-08T06:00:00	1	Precipitación	0
73452	7	Sololá	710	Panajachel	8	Panajachel	11	Noviembre	2023-11-21T00:00:00	2024-11-08T06:00:00	8	Radiación solar	0
73453	7	Sololá	710	Panajachel	8	Panajachel	11	Noviembre	2023-11-21T00:00:00	2024-11-08T07:00:00	2	Temperatura media	15.3
73454	7	Sololá	710	Panajachel	8	Panajachel	11	Noviembre	2023-11-21T00:00:00	2024-11-08T07:00:00	4	Temperatura máxima	15.3
73455	7	Sololá	710	Panajachel	8	Panajachel	11	Noviembre	2023-11-21T00:00:00	2024-11-08T07:00:00	3	Temperatura mínima	14.6
73456	7	Sololá	710	Panajachel	8	Panajachel	11	Noviembre	2023-11-21T00:00:00	2024-11-08T07:00:00	5	Humedad	76
73457	7	Sololá	710	Panajachel	8	Panajachel	11	Noviembre	2023-11-21T00:00:00	2024-11-08T07:00:00	6	Velocidad del viento	4.8
73458	7	Sololá	710	Panajachel	8	Panajachel	11	Noviembre	2023-11-21T00:00:00	2024-11-08T07:00:00	7	Dirección del viento	4.83
73459	7	Sololá	710	Panajachel	8	Panajachel	11	Noviembre	2023-11-21T00:00:00	2024-11-08T07:00:00	1	Precipitación	0
73460	7	Sololá	710	Panajachel	8	Panajachel	11	Noviembre	2023-11-21T00:00:00	2024-11-08T07:00:00	8	Radiación solar	26
73461	7	Sololá	710	Panajachel	8	Panajachel	11	Noviembre	2023-11-21T00:00:00	2024-11-08T08:00:00	2	Temperatura media	17.6
73462	7	Sololá	710	Panajachel	8	Panajachel	11	Noviembre	2023-11-21T00:00:00	2024-11-08T08:00:00	4	Temperatura máxima	17.6
73463	7	Sololá	710	Panajachel	8	Panajachel	11	Noviembre	2023-11-21T00:00:00	2024-11-08T08:00:00	3	Temperatura mínima	15.3
73464	7	Sololá	710	Panajachel	8	Panajachel	11	Noviembre	2023-11-21T00:00:00	2024-11-08T08:00:00	5	Humedad	75
73465	7	Sololá	710	Panajachel	8	Panajachel	11	Noviembre	2023-11-21T00:00:00	2024-11-08T08:00:00	6	Velocidad del viento	4.8
73466	7	Sololá	710	Panajachel	8	Panajachel	11	Noviembre	2023-11-21T00:00:00	2024-11-08T08:00:00	7	Dirección del viento	4.83
73467	7	Sololá	710	Panajachel	8	Panajachel	11	Noviembre	2023-11-21T00:00:00	2024-11-08T08:00:00	1	Precipitación	0
73468	7	Sololá	710	Panajachel	8	Panajachel	11	Noviembre	2023-11-21T00:00:00	2024-11-08T08:00:00	8	Radiación solar	224
73469	7	Sololá	710	Panajachel	8	Panajachel	11	Noviembre	2023-11-21T00:00:00	2024-11-08T09:00:00	2	Temperatura media	19.6
73470	7	Sololá	710	Panajachel	8	Panajachel	11	Noviembre	2023-11-21T00:00:00	2024-11-08T09:00:00	4	Temperatura máxima	19.6
73471	7	Sololá	710	Panajachel	8	Panajachel	11	Noviembre	2023-11-21T00:00:00	2024-11-08T09:00:00	3	Temperatura mínima	17.6
73472	7	Sololá	710	Panajachel	8	Panajachel	11	Noviembre	2023-11-21T00:00:00	2024-11-08T09:00:00	5	Humedad	80
73473	7	Sololá	710	Panajachel	8	Panajachel	11	Noviembre	2023-11-21T00:00:00	2024-11-08T09:00:00	6	Velocidad del viento	1.6
73474	7	Sololá	710	Panajachel	8	Panajachel	11	Noviembre	2023-11-21T00:00:00	2024-11-08T09:00:00	7	Dirección del viento	1.61
73475	7	Sololá	710	Panajachel	8	Panajachel	11	Noviembre	2023-11-21T00:00:00	2024-11-08T09:00:00	1	Precipitación	0
73476	7	Sololá	710	Panajachel	8	Panajachel	11	Noviembre	2023-11-21T00:00:00	2024-11-08T09:00:00	8	Radiación solar	437
73477	7	Sololá	710	Panajachel	8	Panajachel	11	Noviembre	2023-11-21T00:00:00	2024-11-08T10:00:00	2	Temperatura media	19.8
73478	7	Sololá	710	Panajachel	8	Panajachel	11	Noviembre	2023-11-21T00:00:00	2024-11-08T10:00:00	4	Temperatura máxima	19.8
73479	7	Sololá	710	Panajachel	8	Panajachel	11	Noviembre	2023-11-21T00:00:00	2024-11-08T10:00:00	3	Temperatura mínima	19.1
73480	7	Sololá	710	Panajachel	8	Panajachel	11	Noviembre	2023-11-21T00:00:00	2024-11-08T10:00:00	5	Humedad	78
73481	7	Sololá	710	Panajachel	8	Panajachel	11	Noviembre	2023-11-21T00:00:00	2024-11-08T10:00:00	6	Velocidad del viento	3.2
73482	7	Sololá	710	Panajachel	8	Panajachel	11	Noviembre	2023-11-21T00:00:00	2024-11-08T10:00:00	7	Dirección del viento	3.22
73483	7	Sololá	710	Panajachel	8	Panajachel	11	Noviembre	2023-11-21T00:00:00	2024-11-08T10:00:00	1	Precipitación	0
73484	7	Sololá	710	Panajachel	8	Panajachel	11	Noviembre	2023-11-21T00:00:00	2024-11-08T10:00:00	8	Radiación solar	612
73485	7	Sololá	710	Panajachel	8	Panajachel	11	Noviembre	2023-11-21T00:00:00	2024-11-08T11:00:00	2	Temperatura media	21.3
73486	7	Sololá	710	Panajachel	8	Panajachel	11	Noviembre	2023-11-21T00:00:00	2024-11-08T11:00:00	4	Temperatura máxima	21.4
73487	7	Sololá	710	Panajachel	8	Panajachel	11	Noviembre	2023-11-21T00:00:00	2024-11-08T11:00:00	3	Temperatura mínima	19.6
73488	7	Sololá	710	Panajachel	8	Panajachel	11	Noviembre	2023-11-21T00:00:00	2024-11-08T11:00:00	5	Humedad	77
73489	7	Sololá	710	Panajachel	8	Panajachel	11	Noviembre	2023-11-21T00:00:00	2024-11-08T11:00:00	6	Velocidad del viento	3.2
73490	7	Sololá	710	Panajachel	8	Panajachel	11	Noviembre	2023-11-21T00:00:00	2024-11-08T11:00:00	7	Dirección del viento	3.22
73491	7	Sololá	710	Panajachel	8	Panajachel	11	Noviembre	2023-11-21T00:00:00	2024-11-08T11:00:00	1	Precipitación	0
73492	7	Sololá	710	Panajachel	8	Panajachel	11	Noviembre	2023-11-21T00:00:00	2024-11-08T11:00:00	8	Radiación solar	730
73493	7	Sololá	710	Panajachel	8	Panajachel	11	Noviembre	2023-11-21T00:00:00	2024-11-08T12:00:00	2	Temperatura media	22.3
73494	7	Sololá	710	Panajachel	8	Panajachel	11	Noviembre	2023-11-21T00:00:00	2024-11-08T12:00:00	4	Temperatura máxima	22.3
73495	7	Sololá	710	Panajachel	8	Panajachel	11	Noviembre	2023-11-21T00:00:00	2024-11-08T12:00:00	3	Temperatura mínima	20.9
73496	7	Sololá	710	Panajachel	8	Panajachel	11	Noviembre	2023-11-21T00:00:00	2024-11-08T12:00:00	5	Humedad	77
73497	7	Sololá	710	Panajachel	8	Panajachel	11	Noviembre	2023-11-21T00:00:00	2024-11-08T12:00:00	6	Velocidad del viento	3.2
73498	7	Sololá	710	Panajachel	8	Panajachel	11	Noviembre	2023-11-21T00:00:00	2024-11-08T12:00:00	7	Dirección del viento	3.22
73499	7	Sololá	710	Panajachel	8	Panajachel	11	Noviembre	2023-11-21T00:00:00	2024-11-08T12:00:00	1	Precipitación	0
73500	7	Sololá	710	Panajachel	8	Panajachel	11	Noviembre	2023-11-21T00:00:00	2024-11-08T12:00:00	8	Radiación solar	781
73501	7	Sololá	710	Panajachel	8	Panajachel	11	Noviembre	2023-11-21T00:00:00	2024-11-08T13:00:00	2	Temperatura media	23.4
73502	7	Sololá	710	Panajachel	8	Panajachel	11	Noviembre	2023-11-21T00:00:00	2024-11-08T13:00:00	4	Temperatura máxima	23.4
73503	7	Sololá	710	Panajachel	8	Panajachel	11	Noviembre	2023-11-21T00:00:00	2024-11-08T13:00:00	3	Temperatura mínima	22.3
73504	7	Sololá	710	Panajachel	8	Panajachel	11	Noviembre	2023-11-21T00:00:00	2024-11-08T13:00:00	5	Humedad	74
73505	7	Sololá	710	Panajachel	8	Panajachel	11	Noviembre	2023-11-21T00:00:00	2024-11-08T13:00:00	6	Velocidad del viento	3.2
73506	7	Sololá	710	Panajachel	8	Panajachel	11	Noviembre	2023-11-21T00:00:00	2024-11-08T13:00:00	7	Dirección del viento	3.22
73507	7	Sololá	710	Panajachel	8	Panajachel	11	Noviembre	2023-11-21T00:00:00	2024-11-08T13:00:00	1	Precipitación	0
73508	7	Sololá	710	Panajachel	8	Panajachel	11	Noviembre	2023-11-21T00:00:00	2024-11-08T13:00:00	8	Radiación solar	764
73509	7	Sololá	710	Panajachel	8	Panajachel	11	Noviembre	2023-11-21T00:00:00	2024-11-08T14:00:00	2	Temperatura media	22.7
73510	7	Sololá	710	Panajachel	8	Panajachel	11	Noviembre	2023-11-21T00:00:00	2024-11-08T14:00:00	4	Temperatura máxima	23.8
73511	7	Sololá	710	Panajachel	8	Panajachel	11	Noviembre	2023-11-21T00:00:00	2024-11-08T14:00:00	3	Temperatura mínima	22.7
73512	7	Sololá	710	Panajachel	8	Panajachel	11	Noviembre	2023-11-21T00:00:00	2024-11-08T14:00:00	5	Humedad	80
73513	7	Sololá	710	Panajachel	8	Panajachel	11	Noviembre	2023-11-21T00:00:00	2024-11-08T14:00:00	6	Velocidad del viento	4.8
73514	7	Sololá	710	Panajachel	8	Panajachel	11	Noviembre	2023-11-21T00:00:00	2024-11-08T14:00:00	7	Dirección del viento	4.83
73515	7	Sololá	710	Panajachel	8	Panajachel	11	Noviembre	2023-11-21T00:00:00	2024-11-08T14:00:00	1	Precipitación	0
73516	7	Sololá	710	Panajachel	8	Panajachel	11	Noviembre	2023-11-21T00:00:00	2024-11-08T14:00:00	8	Radiación solar	697
73517	7	Sololá	710	Panajachel	8	Panajachel	11	Noviembre	2023-11-21T00:00:00	2024-11-08T15:00:00	2	Temperatura media	22.6
73518	7	Sololá	710	Panajachel	8	Panajachel	11	Noviembre	2023-11-21T00:00:00	2024-11-08T15:00:00	4	Temperatura máxima	22.9
73519	7	Sololá	710	Panajachel	8	Panajachel	11	Noviembre	2023-11-21T00:00:00	2024-11-08T15:00:00	3	Temperatura mínima	22.6
73520	7	Sololá	710	Panajachel	8	Panajachel	11	Noviembre	2023-11-21T00:00:00	2024-11-08T15:00:00	5	Humedad	78
73521	7	Sololá	710	Panajachel	8	Panajachel	11	Noviembre	2023-11-21T00:00:00	2024-11-08T15:00:00	6	Velocidad del viento	4.8
73522	7	Sololá	710	Panajachel	8	Panajachel	11	Noviembre	2023-11-21T00:00:00	2024-11-08T15:00:00	7	Dirección del viento	4.83
73523	7	Sololá	710	Panajachel	8	Panajachel	11	Noviembre	2023-11-21T00:00:00	2024-11-08T15:00:00	1	Precipitación	0
73524	7	Sololá	710	Panajachel	8	Panajachel	11	Noviembre	2023-11-21T00:00:00	2024-11-08T15:00:00	8	Radiación solar	547
73525	7	Sololá	710	Panajachel	8	Panajachel	11	Noviembre	2023-11-21T00:00:00	2024-11-08T16:00:00	2	Temperatura media	21.9
73526	7	Sololá	710	Panajachel	8	Panajachel	11	Noviembre	2023-11-21T00:00:00	2024-11-08T16:00:00	4	Temperatura máxima	22.7
73527	7	Sololá	710	Panajachel	8	Panajachel	11	Noviembre	2023-11-21T00:00:00	2024-11-08T16:00:00	3	Temperatura mínima	21.9
73528	7	Sololá	710	Panajachel	8	Panajachel	11	Noviembre	2023-11-21T00:00:00	2024-11-08T16:00:00	5	Humedad	83
73529	7	Sololá	710	Panajachel	8	Panajachel	11	Noviembre	2023-11-21T00:00:00	2024-11-08T16:00:00	6	Velocidad del viento	4.8
73530	7	Sololá	710	Panajachel	8	Panajachel	11	Noviembre	2023-11-21T00:00:00	2024-11-08T16:00:00	7	Dirección del viento	4.83
73531	7	Sololá	710	Panajachel	8	Panajachel	11	Noviembre	2023-11-21T00:00:00	2024-11-08T16:00:00	1	Precipitación	0
73532	7	Sololá	710	Panajachel	8	Panajachel	11	Noviembre	2023-11-21T00:00:00	2024-11-08T16:00:00	8	Radiación solar	352
73533	7	Sololá	710	Panajachel	8	Panajachel	11	Noviembre	2023-11-21T00:00:00	2024-11-08T17:00:00	2	Temperatura media	20.3
73534	7	Sololá	710	Panajachel	8	Panajachel	11	Noviembre	2023-11-21T00:00:00	2024-11-08T17:00:00	4	Temperatura máxima	21.9
73535	7	Sololá	710	Panajachel	8	Panajachel	11	Noviembre	2023-11-21T00:00:00	2024-11-08T17:00:00	3	Temperatura mínima	20.3
73536	7	Sololá	710	Panajachel	8	Panajachel	11	Noviembre	2023-11-21T00:00:00	2024-11-08T17:00:00	5	Humedad	87
73537	7	Sololá	710	Panajachel	8	Panajachel	11	Noviembre	2023-11-21T00:00:00	2024-11-08T17:00:00	6	Velocidad del viento	3.2
73538	7	Sololá	710	Panajachel	8	Panajachel	11	Noviembre	2023-11-21T00:00:00	2024-11-08T17:00:00	7	Dirección del viento	3.22
73539	7	Sololá	710	Panajachel	8	Panajachel	11	Noviembre	2023-11-21T00:00:00	2024-11-08T17:00:00	1	Precipitación	0
73540	7	Sololá	710	Panajachel	8	Panajachel	11	Noviembre	2023-11-21T00:00:00	2024-11-08T17:00:00	8	Radiación solar	84
73541	7	Sololá	710	Panajachel	8	Panajachel	11	Noviembre	2023-11-21T00:00:00	2024-11-08T18:00:00	2	Temperatura media	19.6
73542	7	Sololá	710	Panajachel	8	Panajachel	11	Noviembre	2023-11-21T00:00:00	2024-11-08T18:00:00	4	Temperatura máxima	20.3
73543	7	Sololá	710	Panajachel	8	Panajachel	11	Noviembre	2023-11-21T00:00:00	2024-11-08T18:00:00	3	Temperatura mínima	19.6
73544	7	Sololá	710	Panajachel	8	Panajachel	11	Noviembre	2023-11-21T00:00:00	2024-11-08T18:00:00	5	Humedad	90
73545	7	Sololá	710	Panajachel	8	Panajachel	11	Noviembre	2023-11-21T00:00:00	2024-11-08T18:00:00	6	Velocidad del viento	1.6
73546	7	Sololá	710	Panajachel	8	Panajachel	11	Noviembre	2023-11-21T00:00:00	2024-11-08T18:00:00	7	Dirección del viento	1.61
73547	7	Sololá	710	Panajachel	8	Panajachel	11	Noviembre	2023-11-21T00:00:00	2024-11-08T18:00:00	1	Precipitación	0
73548	7	Sololá	710	Panajachel	8	Panajachel	11	Noviembre	2023-11-21T00:00:00	2024-11-08T18:00:00	8	Radiación solar	8
73549	7	Sololá	710	Panajachel	8	Panajachel	11	Noviembre	2023-11-21T00:00:00	2024-11-08T19:00:00	2	Temperatura media	18.1
73550	7	Sololá	710	Panajachel	8	Panajachel	11	Noviembre	2023-11-21T00:00:00	2024-11-08T19:00:00	4	Temperatura máxima	19.6
73551	7	Sololá	710	Panajachel	8	Panajachel	11	Noviembre	2023-11-21T00:00:00	2024-11-08T19:00:00	3	Temperatura mínima	18.1
73552	7	Sololá	710	Panajachel	8	Panajachel	11	Noviembre	2023-11-21T00:00:00	2024-11-08T19:00:00	5	Humedad	86
73553	7	Sololá	710	Panajachel	8	Panajachel	11	Noviembre	2023-11-21T00:00:00	2024-11-08T19:00:00	6	Velocidad del viento	1.6
73554	7	Sololá	710	Panajachel	8	Panajachel	11	Noviembre	2023-11-21T00:00:00	2024-11-08T19:00:00	7	Dirección del viento	1.61
73555	7	Sololá	710	Panajachel	8	Panajachel	11	Noviembre	2023-11-21T00:00:00	2024-11-08T19:00:00	1	Precipitación	0
73556	7	Sololá	710	Panajachel	8	Panajachel	11	Noviembre	2023-11-21T00:00:00	2024-11-08T19:00:00	8	Radiación solar	0
73557	7	Sololá	710	Panajachel	8	Panajachel	11	Noviembre	2023-11-21T00:00:00	2024-11-08T20:00:00	2	Temperatura media	17
73558	7	Sololá	710	Panajachel	8	Panajachel	11	Noviembre	2023-11-21T00:00:00	2024-11-08T20:00:00	4	Temperatura máxima	18.1
73559	7	Sololá	710	Panajachel	8	Panajachel	11	Noviembre	2023-11-21T00:00:00	2024-11-08T20:00:00	3	Temperatura mínima	16.9
73560	7	Sololá	710	Panajachel	8	Panajachel	11	Noviembre	2023-11-21T00:00:00	2024-11-08T20:00:00	5	Humedad	76
73561	7	Sololá	710	Panajachel	8	Panajachel	11	Noviembre	2023-11-21T00:00:00	2024-11-08T20:00:00	6	Velocidad del viento	3.2
73562	7	Sololá	710	Panajachel	8	Panajachel	11	Noviembre	2023-11-21T00:00:00	2024-11-08T20:00:00	7	Dirección del viento	3.22
73563	7	Sololá	710	Panajachel	8	Panajachel	11	Noviembre	2023-11-21T00:00:00	2024-11-08T20:00:00	1	Precipitación	0
73564	7	Sololá	710	Panajachel	8	Panajachel	11	Noviembre	2023-11-21T00:00:00	2024-11-08T20:00:00	8	Radiación solar	0
73565	7	Sololá	710	Panajachel	8	Panajachel	11	Noviembre	2023-11-21T00:00:00	2024-11-08T21:00:00	2	Temperatura media	18.2
73566	7	Sololá	710	Panajachel	8	Panajachel	11	Noviembre	2023-11-21T00:00:00	2024-11-08T21:00:00	4	Temperatura máxima	18.2
73567	7	Sololá	710	Panajachel	8	Panajachel	11	Noviembre	2023-11-21T00:00:00	2024-11-08T21:00:00	3	Temperatura mínima	16.9
73568	7	Sololá	710	Panajachel	8	Panajachel	11	Noviembre	2023-11-21T00:00:00	2024-11-08T21:00:00	5	Humedad	71
73569	7	Sololá	710	Panajachel	8	Panajachel	11	Noviembre	2023-11-21T00:00:00	2024-11-08T21:00:00	6	Velocidad del viento	3.2
73570	7	Sololá	710	Panajachel	8	Panajachel	11	Noviembre	2023-11-21T00:00:00	2024-11-08T21:00:00	7	Dirección del viento	3.22
73571	7	Sololá	710	Panajachel	8	Panajachel	11	Noviembre	2023-11-21T00:00:00	2024-11-08T21:00:00	1	Precipitación	0
73572	7	Sololá	710	Panajachel	8	Panajachel	11	Noviembre	2023-11-21T00:00:00	2024-11-08T21:00:00	8	Radiación solar	0
73573	7	Sololá	710	Panajachel	8	Panajachel	11	Noviembre	2023-11-21T00:00:00	2024-11-08T22:00:00	2	Temperatura media	18.4
73574	7	Sololá	710	Panajachel	8	Panajachel	11	Noviembre	2023-11-21T00:00:00	2024-11-08T22:00:00	4	Temperatura máxima	18.7
73575	7	Sololá	710	Panajachel	8	Panajachel	11	Noviembre	2023-11-21T00:00:00	2024-11-08T22:00:00	3	Temperatura mínima	18.1
73576	7	Sololá	710	Panajachel	8	Panajachel	11	Noviembre	2023-11-21T00:00:00	2024-11-08T22:00:00	5	Humedad	73
73577	7	Sololá	710	Panajachel	8	Panajachel	11	Noviembre	2023-11-21T00:00:00	2024-11-08T22:00:00	6	Velocidad del viento	3.2
73578	7	Sololá	710	Panajachel	8	Panajachel	11	Noviembre	2023-11-21T00:00:00	2024-11-08T22:00:00	7	Dirección del viento	3.22
73579	7	Sololá	710	Panajachel	8	Panajachel	11	Noviembre	2023-11-21T00:00:00	2024-11-08T22:00:00	1	Precipitación	0
73580	7	Sololá	710	Panajachel	8	Panajachel	11	Noviembre	2023-11-21T00:00:00	2024-11-08T22:00:00	8	Radiación solar	0
73581	7	Sololá	710	Panajachel	8	Panajachel	11	Noviembre	2023-11-21T00:00:00	2024-11-08T23:00:00	2	Temperatura media	18.4
73582	7	Sololá	710	Panajachel	8	Panajachel	11	Noviembre	2023-11-21T00:00:00	2024-11-08T23:00:00	4	Temperatura máxima	18.6
73583	7	Sololá	710	Panajachel	8	Panajachel	11	Noviembre	2023-11-21T00:00:00	2024-11-08T23:00:00	3	Temperatura mínima	18.1
73584	7	Sololá	710	Panajachel	8	Panajachel	11	Noviembre	2023-11-21T00:00:00	2024-11-08T23:00:00	5	Humedad	73
73585	7	Sololá	710	Panajachel	8	Panajachel	11	Noviembre	2023-11-21T00:00:00	2024-11-08T23:00:00	6	Velocidad del viento	3.2
73586	7	Sololá	710	Panajachel	8	Panajachel	11	Noviembre	2023-11-21T00:00:00	2024-11-08T23:00:00	7	Dirección del viento	3.22
73587	7	Sololá	710	Panajachel	8	Panajachel	11	Noviembre	2023-11-21T00:00:00	2024-11-08T23:00:00	1	Precipitación	0
73588	7	Sololá	710	Panajachel	8	Panajachel	11	Noviembre	2023-11-21T00:00:00	2024-11-08T23:00:00	8	Radiación solar	0
73589	7	Sololá	710	Panajachel	8	Panajachel	11	Noviembre	2023-11-22T00:00:00	2024-11-08T00:00:00	2	Temperatura media	18.8
73590	7	Sololá	710	Panajachel	8	Panajachel	11	Noviembre	2023-11-22T00:00:00	2024-11-08T00:00:00	4	Temperatura máxima	19
73591	7	Sololá	710	Panajachel	8	Panajachel	11	Noviembre	2023-11-22T00:00:00	2024-11-08T00:00:00	3	Temperatura mínima	18.4
73592	7	Sololá	710	Panajachel	8	Panajachel	11	Noviembre	2023-11-22T00:00:00	2024-11-08T00:00:00	5	Humedad	70
73593	7	Sololá	710	Panajachel	8	Panajachel	11	Noviembre	2023-11-22T00:00:00	2024-11-08T00:00:00	6	Velocidad del viento	6.4
73594	7	Sololá	710	Panajachel	8	Panajachel	11	Noviembre	2023-11-22T00:00:00	2024-11-08T00:00:00	7	Dirección del viento	6.44
73595	7	Sololá	710	Panajachel	8	Panajachel	11	Noviembre	2023-11-22T00:00:00	2024-11-08T00:00:00	1	Precipitación	0
73596	7	Sololá	710	Panajachel	8	Panajachel	11	Noviembre	2023-11-22T00:00:00	2024-11-08T00:00:00	8	Radiación solar	0
73597	7	Sololá	710	Panajachel	8	Panajachel	11	Noviembre	2023-11-22T00:00:00	2024-11-08T01:00:00	2	Temperatura media	18.7
73598	7	Sololá	710	Panajachel	8	Panajachel	11	Noviembre	2023-11-22T00:00:00	2024-11-08T01:00:00	4	Temperatura máxima	18.9
73599	7	Sololá	710	Panajachel	8	Panajachel	11	Noviembre	2023-11-22T00:00:00	2024-11-08T01:00:00	3	Temperatura mínima	18.7
73600	7	Sololá	710	Panajachel	8	Panajachel	11	Noviembre	2023-11-22T00:00:00	2024-11-08T01:00:00	5	Humedad	68
73601	7	Sololá	710	Panajachel	8	Panajachel	11	Noviembre	2023-11-22T00:00:00	2024-11-08T01:00:00	6	Velocidad del viento	6.4
73602	7	Sololá	710	Panajachel	8	Panajachel	11	Noviembre	2023-11-22T00:00:00	2024-11-08T01:00:00	7	Dirección del viento	6.44
73603	7	Sololá	710	Panajachel	8	Panajachel	11	Noviembre	2023-11-22T00:00:00	2024-11-08T01:00:00	1	Precipitación	0
73604	7	Sololá	710	Panajachel	8	Panajachel	11	Noviembre	2023-11-22T00:00:00	2024-11-08T01:00:00	8	Radiación solar	0
73605	7	Sololá	710	Panajachel	8	Panajachel	11	Noviembre	2023-11-22T00:00:00	2024-11-08T02:00:00	2	Temperatura media	17.3
73606	7	Sololá	710	Panajachel	8	Panajachel	11	Noviembre	2023-11-22T00:00:00	2024-11-08T02:00:00	4	Temperatura máxima	18.8
73607	7	Sololá	710	Panajachel	8	Panajachel	11	Noviembre	2023-11-22T00:00:00	2024-11-08T02:00:00	3	Temperatura mínima	17.3
73608	7	Sololá	710	Panajachel	8	Panajachel	11	Noviembre	2023-11-22T00:00:00	2024-11-08T02:00:00	5	Humedad	73
73609	7	Sololá	710	Panajachel	8	Panajachel	11	Noviembre	2023-11-22T00:00:00	2024-11-08T02:00:00	6	Velocidad del viento	4.8
73610	7	Sololá	710	Panajachel	8	Panajachel	11	Noviembre	2023-11-22T00:00:00	2024-11-08T02:00:00	7	Dirección del viento	4.83
73611	7	Sololá	710	Panajachel	8	Panajachel	11	Noviembre	2023-11-22T00:00:00	2024-11-08T02:00:00	1	Precipitación	0
73612	7	Sololá	710	Panajachel	8	Panajachel	11	Noviembre	2023-11-22T00:00:00	2024-11-08T02:00:00	8	Radiación solar	0
73613	7	Sololá	710	Panajachel	8	Panajachel	11	Noviembre	2023-11-22T00:00:00	2024-11-08T03:00:00	2	Temperatura media	16
73614	7	Sololá	710	Panajachel	8	Panajachel	11	Noviembre	2023-11-22T00:00:00	2024-11-08T03:00:00	4	Temperatura máxima	17.3
73615	7	Sololá	710	Panajachel	8	Panajachel	11	Noviembre	2023-11-22T00:00:00	2024-11-08T03:00:00	3	Temperatura mínima	15.8
73616	7	Sololá	710	Panajachel	8	Panajachel	11	Noviembre	2023-11-22T00:00:00	2024-11-08T03:00:00	5	Humedad	75
73617	7	Sololá	710	Panajachel	8	Panajachel	11	Noviembre	2023-11-22T00:00:00	2024-11-08T03:00:00	6	Velocidad del viento	3.2
73618	7	Sololá	710	Panajachel	8	Panajachel	11	Noviembre	2023-11-22T00:00:00	2024-11-08T03:00:00	7	Dirección del viento	3.22
73619	7	Sololá	710	Panajachel	8	Panajachel	11	Noviembre	2023-11-22T00:00:00	2024-11-08T03:00:00	1	Precipitación	0
73620	7	Sololá	710	Panajachel	8	Panajachel	11	Noviembre	2023-11-22T00:00:00	2024-11-08T03:00:00	8	Radiación solar	0
73621	7	Sololá	710	Panajachel	8	Panajachel	11	Noviembre	2023-11-22T00:00:00	2024-11-08T04:00:00	2	Temperatura media	15.8
73622	7	Sololá	710	Panajachel	8	Panajachel	11	Noviembre	2023-11-22T00:00:00	2024-11-08T04:00:00	4	Temperatura máxima	16.2
73623	7	Sololá	710	Panajachel	8	Panajachel	11	Noviembre	2023-11-22T00:00:00	2024-11-08T04:00:00	3	Temperatura mínima	15.8
73624	7	Sololá	710	Panajachel	8	Panajachel	11	Noviembre	2023-11-22T00:00:00	2024-11-08T04:00:00	5	Humedad	77
73625	7	Sololá	710	Panajachel	8	Panajachel	11	Noviembre	2023-11-22T00:00:00	2024-11-08T04:00:00	6	Velocidad del viento	0
73626	7	Sololá	710	Panajachel	8	Panajachel	11	Noviembre	2023-11-22T00:00:00	2024-11-08T04:00:00	7	Dirección del viento	0
73627	7	Sololá	710	Panajachel	8	Panajachel	11	Noviembre	2023-11-22T00:00:00	2024-11-08T04:00:00	1	Precipitación	0
73628	7	Sololá	710	Panajachel	8	Panajachel	11	Noviembre	2023-11-22T00:00:00	2024-11-08T04:00:00	8	Radiación solar	0
73629	7	Sololá	710	Panajachel	8	Panajachel	11	Noviembre	2023-11-22T00:00:00	2024-11-08T05:00:00	2	Temperatura media	15.3
73630	7	Sololá	710	Panajachel	8	Panajachel	11	Noviembre	2023-11-22T00:00:00	2024-11-08T05:00:00	4	Temperatura máxima	15.8
73631	7	Sololá	710	Panajachel	8	Panajachel	11	Noviembre	2023-11-22T00:00:00	2024-11-08T05:00:00	3	Temperatura mínima	15.2
73632	7	Sololá	710	Panajachel	8	Panajachel	11	Noviembre	2023-11-22T00:00:00	2024-11-08T05:00:00	5	Humedad	80
73633	7	Sololá	710	Panajachel	8	Panajachel	11	Noviembre	2023-11-22T00:00:00	2024-11-08T05:00:00	6	Velocidad del viento	1.6
73634	7	Sololá	710	Panajachel	8	Panajachel	11	Noviembre	2023-11-22T00:00:00	2024-11-08T05:00:00	7	Dirección del viento	1.61
73635	7	Sololá	710	Panajachel	8	Panajachel	11	Noviembre	2023-11-22T00:00:00	2024-11-08T05:00:00	1	Precipitación	0
73636	7	Sololá	710	Panajachel	8	Panajachel	11	Noviembre	2023-11-22T00:00:00	2024-11-08T05:00:00	8	Radiación solar	0
73637	7	Sololá	710	Panajachel	8	Panajachel	11	Noviembre	2023-11-22T00:00:00	2024-11-08T06:00:00	2	Temperatura media	15.5
73638	7	Sololá	710	Panajachel	8	Panajachel	11	Noviembre	2023-11-22T00:00:00	2024-11-08T06:00:00	4	Temperatura máxima	15.6
73639	7	Sololá	710	Panajachel	8	Panajachel	11	Noviembre	2023-11-22T00:00:00	2024-11-08T06:00:00	3	Temperatura mínima	15.2
73640	7	Sololá	710	Panajachel	8	Panajachel	11	Noviembre	2023-11-22T00:00:00	2024-11-08T06:00:00	5	Humedad	80
73641	7	Sololá	710	Panajachel	8	Panajachel	11	Noviembre	2023-11-22T00:00:00	2024-11-08T06:00:00	6	Velocidad del viento	1.6
73642	7	Sololá	710	Panajachel	8	Panajachel	11	Noviembre	2023-11-22T00:00:00	2024-11-08T06:00:00	7	Dirección del viento	1.61
73643	7	Sololá	710	Panajachel	8	Panajachel	11	Noviembre	2023-11-22T00:00:00	2024-11-08T06:00:00	1	Precipitación	0
73644	7	Sololá	710	Panajachel	8	Panajachel	11	Noviembre	2023-11-22T00:00:00	2024-11-08T06:00:00	8	Radiación solar	0
73645	7	Sololá	710	Panajachel	8	Panajachel	11	Noviembre	2023-11-22T00:00:00	2024-11-08T07:00:00	2	Temperatura media	16
73646	7	Sololá	710	Panajachel	8	Panajachel	11	Noviembre	2023-11-22T00:00:00	2024-11-08T07:00:00	4	Temperatura máxima	16
73647	7	Sololá	710	Panajachel	8	Panajachel	11	Noviembre	2023-11-22T00:00:00	2024-11-08T07:00:00	3	Temperatura mínima	15.2
73648	7	Sololá	710	Panajachel	8	Panajachel	11	Noviembre	2023-11-22T00:00:00	2024-11-08T07:00:00	5	Humedad	81
73649	7	Sololá	710	Panajachel	8	Panajachel	11	Noviembre	2023-11-22T00:00:00	2024-11-08T07:00:00	6	Velocidad del viento	1.6
73650	7	Sololá	710	Panajachel	8	Panajachel	11	Noviembre	2023-11-22T00:00:00	2024-11-08T07:00:00	7	Dirección del viento	1.61
73651	7	Sololá	710	Panajachel	8	Panajachel	11	Noviembre	2023-11-22T00:00:00	2024-11-08T07:00:00	1	Precipitación	0
73652	7	Sololá	710	Panajachel	8	Panajachel	11	Noviembre	2023-11-22T00:00:00	2024-11-08T07:00:00	8	Radiación solar	18
73653	7	Sololá	710	Panajachel	8	Panajachel	11	Noviembre	2023-11-22T00:00:00	2024-11-08T08:00:00	2	Temperatura media	20.1
73654	7	Sololá	710	Panajachel	8	Panajachel	11	Noviembre	2023-11-22T00:00:00	2024-11-08T08:00:00	4	Temperatura máxima	20.2
73655	7	Sololá	710	Panajachel	8	Panajachel	11	Noviembre	2023-11-22T00:00:00	2024-11-08T08:00:00	3	Temperatura mínima	16
73656	7	Sololá	710	Panajachel	8	Panajachel	11	Noviembre	2023-11-22T00:00:00	2024-11-08T08:00:00	5	Humedad	72
73657	7	Sololá	710	Panajachel	8	Panajachel	11	Noviembre	2023-11-22T00:00:00	2024-11-08T08:00:00	6	Velocidad del viento	1.6
73658	7	Sololá	710	Panajachel	8	Panajachel	11	Noviembre	2023-11-22T00:00:00	2024-11-08T08:00:00	7	Dirección del viento	1.61
73659	7	Sololá	710	Panajachel	8	Panajachel	11	Noviembre	2023-11-22T00:00:00	2024-11-08T08:00:00	1	Precipitación	0
73660	7	Sololá	710	Panajachel	8	Panajachel	11	Noviembre	2023-11-22T00:00:00	2024-11-08T08:00:00	8	Radiación solar	226
73661	7	Sololá	710	Panajachel	8	Panajachel	11	Noviembre	2023-11-22T00:00:00	2024-11-08T09:00:00	2	Temperatura media	22
73662	7	Sololá	710	Panajachel	8	Panajachel	11	Noviembre	2023-11-22T00:00:00	2024-11-08T09:00:00	4	Temperatura máxima	22
73663	7	Sololá	710	Panajachel	8	Panajachel	11	Noviembre	2023-11-22T00:00:00	2024-11-08T09:00:00	3	Temperatura mínima	20.1
73664	7	Sololá	710	Panajachel	8	Panajachel	11	Noviembre	2023-11-22T00:00:00	2024-11-08T09:00:00	5	Humedad	70
73665	7	Sololá	710	Panajachel	8	Panajachel	11	Noviembre	2023-11-22T00:00:00	2024-11-08T09:00:00	6	Velocidad del viento	1.6
73666	7	Sololá	710	Panajachel	8	Panajachel	11	Noviembre	2023-11-22T00:00:00	2024-11-08T09:00:00	7	Dirección del viento	1.61
73667	7	Sololá	710	Panajachel	8	Panajachel	11	Noviembre	2023-11-22T00:00:00	2024-11-08T09:00:00	1	Precipitación	0
73668	7	Sololá	710	Panajachel	8	Panajachel	11	Noviembre	2023-11-22T00:00:00	2024-11-08T09:00:00	8	Radiación solar	420
73669	7	Sololá	710	Panajachel	8	Panajachel	11	Noviembre	2023-11-22T00:00:00	2024-11-08T10:00:00	2	Temperatura media	24.2
73670	7	Sololá	710	Panajachel	8	Panajachel	11	Noviembre	2023-11-22T00:00:00	2024-11-08T10:00:00	4	Temperatura máxima	24.2
73671	7	Sololá	710	Panajachel	8	Panajachel	11	Noviembre	2023-11-22T00:00:00	2024-11-08T10:00:00	3	Temperatura mínima	21.8
73672	7	Sololá	710	Panajachel	8	Panajachel	11	Noviembre	2023-11-22T00:00:00	2024-11-08T10:00:00	5	Humedad	59
73673	7	Sololá	710	Panajachel	8	Panajachel	11	Noviembre	2023-11-22T00:00:00	2024-11-08T10:00:00	6	Velocidad del viento	6.4
73674	7	Sololá	710	Panajachel	8	Panajachel	11	Noviembre	2023-11-22T00:00:00	2024-11-08T10:00:00	7	Dirección del viento	6.44
73675	7	Sololá	710	Panajachel	8	Panajachel	11	Noviembre	2023-11-22T00:00:00	2024-11-08T10:00:00	1	Precipitación	0
73676	7	Sololá	710	Panajachel	8	Panajachel	11	Noviembre	2023-11-22T00:00:00	2024-11-08T10:00:00	8	Radiación solar	608
73677	7	Sololá	710	Panajachel	8	Panajachel	11	Noviembre	2023-11-22T00:00:00	2024-11-08T11:00:00	2	Temperatura media	24.6
73678	7	Sololá	710	Panajachel	8	Panajachel	11	Noviembre	2023-11-22T00:00:00	2024-11-08T11:00:00	4	Temperatura máxima	24.7
73679	7	Sololá	710	Panajachel	8	Panajachel	11	Noviembre	2023-11-22T00:00:00	2024-11-08T11:00:00	3	Temperatura mínima	24.2
73680	7	Sololá	710	Panajachel	8	Panajachel	11	Noviembre	2023-11-22T00:00:00	2024-11-08T11:00:00	5	Humedad	58
73681	7	Sololá	710	Panajachel	8	Panajachel	11	Noviembre	2023-11-22T00:00:00	2024-11-08T11:00:00	6	Velocidad del viento	9.7
73682	7	Sololá	710	Panajachel	8	Panajachel	11	Noviembre	2023-11-22T00:00:00	2024-11-08T11:00:00	7	Dirección del viento	9.66
73683	7	Sololá	710	Panajachel	8	Panajachel	11	Noviembre	2023-11-22T00:00:00	2024-11-08T11:00:00	1	Precipitación	0
73684	7	Sololá	710	Panajachel	8	Panajachel	11	Noviembre	2023-11-22T00:00:00	2024-11-08T11:00:00	8	Radiación solar	729
73685	7	Sololá	710	Panajachel	8	Panajachel	11	Noviembre	2023-11-22T00:00:00	2024-11-08T12:00:00	2	Temperatura media	24.2
73686	7	Sololá	710	Panajachel	8	Panajachel	11	Noviembre	2023-11-22T00:00:00	2024-11-08T12:00:00	4	Temperatura máxima	24.7
73687	7	Sololá	710	Panajachel	8	Panajachel	11	Noviembre	2023-11-22T00:00:00	2024-11-08T12:00:00	3	Temperatura mínima	24.2
73688	7	Sololá	710	Panajachel	8	Panajachel	11	Noviembre	2023-11-22T00:00:00	2024-11-08T12:00:00	5	Humedad	59
73689	7	Sololá	710	Panajachel	8	Panajachel	11	Noviembre	2023-11-22T00:00:00	2024-11-08T12:00:00	6	Velocidad del viento	12.9
73690	7	Sololá	710	Panajachel	8	Panajachel	11	Noviembre	2023-11-22T00:00:00	2024-11-08T12:00:00	7	Dirección del viento	12.87
73691	7	Sololá	710	Panajachel	8	Panajachel	11	Noviembre	2023-11-22T00:00:00	2024-11-08T12:00:00	1	Precipitación	0
73692	7	Sololá	710	Panajachel	8	Panajachel	11	Noviembre	2023-11-22T00:00:00	2024-11-08T12:00:00	8	Radiación solar	790
73693	7	Sololá	710	Panajachel	8	Panajachel	11	Noviembre	2023-11-22T00:00:00	2024-11-08T13:00:00	2	Temperatura media	25.4
73694	7	Sololá	710	Panajachel	8	Panajachel	11	Noviembre	2023-11-22T00:00:00	2024-11-08T13:00:00	4	Temperatura máxima	25.6
73695	7	Sololá	710	Panajachel	8	Panajachel	11	Noviembre	2023-11-22T00:00:00	2024-11-08T13:00:00	3	Temperatura mínima	24.2
73696	7	Sololá	710	Panajachel	8	Panajachel	11	Noviembre	2023-11-22T00:00:00	2024-11-08T13:00:00	5	Humedad	56
73697	7	Sololá	710	Panajachel	8	Panajachel	11	Noviembre	2023-11-22T00:00:00	2024-11-08T13:00:00	6	Velocidad del viento	9.7
73698	7	Sololá	710	Panajachel	8	Panajachel	11	Noviembre	2023-11-22T00:00:00	2024-11-08T13:00:00	7	Dirección del viento	9.66
73699	7	Sololá	710	Panajachel	8	Panajachel	11	Noviembre	2023-11-22T00:00:00	2024-11-08T13:00:00	1	Precipitación	0
73700	7	Sololá	710	Panajachel	8	Panajachel	11	Noviembre	2023-11-22T00:00:00	2024-11-08T13:00:00	8	Radiación solar	774
73701	7	Sololá	710	Panajachel	8	Panajachel	11	Noviembre	2023-11-22T00:00:00	2024-11-08T14:00:00	2	Temperatura media	25.2
73702	7	Sololá	710	Panajachel	8	Panajachel	11	Noviembre	2023-11-22T00:00:00	2024-11-08T14:00:00	4	Temperatura máxima	25.7
73703	7	Sololá	710	Panajachel	8	Panajachel	11	Noviembre	2023-11-22T00:00:00	2024-11-08T14:00:00	3	Temperatura mínima	25.1
73704	7	Sololá	710	Panajachel	8	Panajachel	11	Noviembre	2023-11-22T00:00:00	2024-11-08T14:00:00	5	Humedad	57
73705	7	Sololá	710	Panajachel	8	Panajachel	11	Noviembre	2023-11-22T00:00:00	2024-11-08T14:00:00	6	Velocidad del viento	8
73706	7	Sololá	710	Panajachel	8	Panajachel	11	Noviembre	2023-11-22T00:00:00	2024-11-08T14:00:00	7	Dirección del viento	8.05
73707	7	Sololá	710	Panajachel	8	Panajachel	11	Noviembre	2023-11-22T00:00:00	2024-11-08T14:00:00	1	Precipitación	0
73708	7	Sololá	710	Panajachel	8	Panajachel	11	Noviembre	2023-11-22T00:00:00	2024-11-08T14:00:00	8	Radiación solar	698
73709	7	Sololá	710	Panajachel	8	Panajachel	11	Noviembre	2023-11-22T00:00:00	2024-11-08T15:00:00	2	Temperatura media	24.5
73710	7	Sololá	710	Panajachel	8	Panajachel	11	Noviembre	2023-11-22T00:00:00	2024-11-08T15:00:00	4	Temperatura máxima	25.4
73711	7	Sololá	710	Panajachel	8	Panajachel	11	Noviembre	2023-11-22T00:00:00	2024-11-08T15:00:00	3	Temperatura mínima	24.5
73712	7	Sololá	710	Panajachel	8	Panajachel	11	Noviembre	2023-11-22T00:00:00	2024-11-08T15:00:00	5	Humedad	59
73713	7	Sololá	710	Panajachel	8	Panajachel	11	Noviembre	2023-11-22T00:00:00	2024-11-08T15:00:00	6	Velocidad del viento	9.7
73714	7	Sololá	710	Panajachel	8	Panajachel	11	Noviembre	2023-11-22T00:00:00	2024-11-08T15:00:00	7	Dirección del viento	9.66
73715	7	Sololá	710	Panajachel	8	Panajachel	11	Noviembre	2023-11-22T00:00:00	2024-11-08T15:00:00	1	Precipitación	0
73716	7	Sololá	710	Panajachel	8	Panajachel	11	Noviembre	2023-11-22T00:00:00	2024-11-08T15:00:00	8	Radiación solar	568
73717	7	Sololá	710	Panajachel	8	Panajachel	11	Noviembre	2023-11-22T00:00:00	2024-11-08T16:00:00	2	Temperatura media	23.3
73718	7	Sololá	710	Panajachel	8	Panajachel	11	Noviembre	2023-11-22T00:00:00	2024-11-08T16:00:00	4	Temperatura máxima	24.5
73719	7	Sololá	710	Panajachel	8	Panajachel	11	Noviembre	2023-11-22T00:00:00	2024-11-08T16:00:00	3	Temperatura mínima	23.3
73720	7	Sololá	710	Panajachel	8	Panajachel	11	Noviembre	2023-11-22T00:00:00	2024-11-08T16:00:00	5	Humedad	63
73721	7	Sololá	710	Panajachel	8	Panajachel	11	Noviembre	2023-11-22T00:00:00	2024-11-08T16:00:00	6	Velocidad del viento	9.7
73722	7	Sololá	710	Panajachel	8	Panajachel	11	Noviembre	2023-11-22T00:00:00	2024-11-08T16:00:00	7	Dirección del viento	9.66
73723	7	Sololá	710	Panajachel	8	Panajachel	11	Noviembre	2023-11-22T00:00:00	2024-11-08T16:00:00	1	Precipitación	0
73724	7	Sololá	710	Panajachel	8	Panajachel	11	Noviembre	2023-11-22T00:00:00	2024-11-08T16:00:00	8	Radiación solar	335
73725	7	Sololá	710	Panajachel	8	Panajachel	11	Noviembre	2023-11-22T00:00:00	2024-11-08T17:00:00	2	Temperatura media	21.9
73726	7	Sololá	710	Panajachel	8	Panajachel	11	Noviembre	2023-11-22T00:00:00	2024-11-08T17:00:00	4	Temperatura máxima	23.4
73727	7	Sololá	710	Panajachel	8	Panajachel	11	Noviembre	2023-11-22T00:00:00	2024-11-08T17:00:00	3	Temperatura mínima	21.9
73728	7	Sololá	710	Panajachel	8	Panajachel	11	Noviembre	2023-11-22T00:00:00	2024-11-08T17:00:00	5	Humedad	67
73729	7	Sololá	710	Panajachel	8	Panajachel	11	Noviembre	2023-11-22T00:00:00	2024-11-08T17:00:00	6	Velocidad del viento	11.3
73730	7	Sololá	710	Panajachel	8	Panajachel	11	Noviembre	2023-11-22T00:00:00	2024-11-08T17:00:00	7	Dirección del viento	11.27
73731	7	Sololá	710	Panajachel	8	Panajachel	11	Noviembre	2023-11-22T00:00:00	2024-11-08T17:00:00	1	Precipitación	0
73732	7	Sololá	710	Panajachel	8	Panajachel	11	Noviembre	2023-11-22T00:00:00	2024-11-08T17:00:00	8	Radiación solar	160
73733	7	Sololá	710	Panajachel	8	Panajachel	11	Noviembre	2023-11-22T00:00:00	2024-11-08T18:00:00	2	Temperatura media	20.3
73734	7	Sololá	710	Panajachel	8	Panajachel	11	Noviembre	2023-11-22T00:00:00	2024-11-08T18:00:00	4	Temperatura máxima	21.9
73735	7	Sololá	710	Panajachel	8	Panajachel	11	Noviembre	2023-11-22T00:00:00	2024-11-08T18:00:00	3	Temperatura mínima	20.3
73736	7	Sololá	710	Panajachel	8	Panajachel	11	Noviembre	2023-11-22T00:00:00	2024-11-08T18:00:00	5	Humedad	73
73737	7	Sololá	710	Panajachel	8	Panajachel	11	Noviembre	2023-11-22T00:00:00	2024-11-08T18:00:00	6	Velocidad del viento	9.7
73738	7	Sololá	710	Panajachel	8	Panajachel	11	Noviembre	2023-11-22T00:00:00	2024-11-08T18:00:00	7	Dirección del viento	9.66
73739	7	Sololá	710	Panajachel	8	Panajachel	11	Noviembre	2023-11-22T00:00:00	2024-11-08T18:00:00	1	Precipitación	0
73740	7	Sololá	710	Panajachel	8	Panajachel	11	Noviembre	2023-11-22T00:00:00	2024-11-08T18:00:00	8	Radiación solar	12
73741	7	Sololá	710	Panajachel	8	Panajachel	11	Noviembre	2023-11-22T00:00:00	2024-11-08T19:00:00	2	Temperatura media	19.8
73742	7	Sololá	710	Panajachel	8	Panajachel	11	Noviembre	2023-11-22T00:00:00	2024-11-08T19:00:00	4	Temperatura máxima	20.3
73743	7	Sololá	710	Panajachel	8	Panajachel	11	Noviembre	2023-11-22T00:00:00	2024-11-08T19:00:00	3	Temperatura mínima	19.8
73744	7	Sololá	710	Panajachel	8	Panajachel	11	Noviembre	2023-11-22T00:00:00	2024-11-08T19:00:00	5	Humedad	74
73745	7	Sololá	710	Panajachel	8	Panajachel	11	Noviembre	2023-11-22T00:00:00	2024-11-08T19:00:00	6	Velocidad del viento	8
73746	7	Sololá	710	Panajachel	8	Panajachel	11	Noviembre	2023-11-22T00:00:00	2024-11-08T19:00:00	7	Dirección del viento	8.05
73747	7	Sololá	710	Panajachel	8	Panajachel	11	Noviembre	2023-11-22T00:00:00	2024-11-08T19:00:00	1	Precipitación	0
73748	7	Sololá	710	Panajachel	8	Panajachel	11	Noviembre	2023-11-22T00:00:00	2024-11-08T19:00:00	8	Radiación solar	0
73749	7	Sololá	710	Panajachel	8	Panajachel	11	Noviembre	2023-11-22T00:00:00	2024-11-08T20:00:00	2	Temperatura media	19.4
73750	7	Sololá	710	Panajachel	8	Panajachel	11	Noviembre	2023-11-22T00:00:00	2024-11-08T20:00:00	4	Temperatura máxima	19.9
73751	7	Sololá	710	Panajachel	8	Panajachel	11	Noviembre	2023-11-22T00:00:00	2024-11-08T20:00:00	3	Temperatura mínima	19.4
73752	7	Sololá	710	Panajachel	8	Panajachel	11	Noviembre	2023-11-22T00:00:00	2024-11-08T20:00:00	5	Humedad	75
73753	7	Sololá	710	Panajachel	8	Panajachel	11	Noviembre	2023-11-22T00:00:00	2024-11-08T20:00:00	6	Velocidad del viento	6.4
73754	7	Sololá	710	Panajachel	8	Panajachel	11	Noviembre	2023-11-22T00:00:00	2024-11-08T20:00:00	7	Dirección del viento	6.44
73755	7	Sololá	710	Panajachel	8	Panajachel	11	Noviembre	2023-11-22T00:00:00	2024-11-08T20:00:00	1	Precipitación	0
73756	7	Sololá	710	Panajachel	8	Panajachel	11	Noviembre	2023-11-22T00:00:00	2024-11-08T20:00:00	8	Radiación solar	0
73757	7	Sololá	710	Panajachel	8	Panajachel	11	Noviembre	2023-11-22T00:00:00	2024-11-08T21:00:00	2	Temperatura media	19.6
73758	7	Sololá	710	Panajachel	8	Panajachel	11	Noviembre	2023-11-22T00:00:00	2024-11-08T21:00:00	4	Temperatura máxima	19.7
73759	7	Sololá	710	Panajachel	8	Panajachel	11	Noviembre	2023-11-22T00:00:00	2024-11-08T21:00:00	3	Temperatura mínima	19.3
73760	7	Sololá	710	Panajachel	8	Panajachel	11	Noviembre	2023-11-22T00:00:00	2024-11-08T21:00:00	5	Humedad	75
73761	7	Sololá	710	Panajachel	8	Panajachel	11	Noviembre	2023-11-22T00:00:00	2024-11-08T21:00:00	6	Velocidad del viento	4.8
73762	7	Sololá	710	Panajachel	8	Panajachel	11	Noviembre	2023-11-22T00:00:00	2024-11-08T21:00:00	7	Dirección del viento	4.83
73763	7	Sololá	710	Panajachel	8	Panajachel	11	Noviembre	2023-11-22T00:00:00	2024-11-08T21:00:00	1	Precipitación	0
73764	7	Sololá	710	Panajachel	8	Panajachel	11	Noviembre	2023-11-22T00:00:00	2024-11-08T21:00:00	8	Radiación solar	0
73765	7	Sololá	710	Panajachel	8	Panajachel	11	Noviembre	2023-11-22T00:00:00	2024-11-08T22:00:00	2	Temperatura media	19.6
73766	7	Sololá	710	Panajachel	8	Panajachel	11	Noviembre	2023-11-22T00:00:00	2024-11-08T22:00:00	4	Temperatura máxima	19.7
73767	7	Sololá	710	Panajachel	8	Panajachel	11	Noviembre	2023-11-22T00:00:00	2024-11-08T22:00:00	3	Temperatura mínima	19.6
73768	7	Sololá	710	Panajachel	8	Panajachel	11	Noviembre	2023-11-22T00:00:00	2024-11-08T22:00:00	5	Humedad	73
73769	7	Sololá	710	Panajachel	8	Panajachel	11	Noviembre	2023-11-22T00:00:00	2024-11-08T22:00:00	6	Velocidad del viento	6.4
73770	7	Sololá	710	Panajachel	8	Panajachel	11	Noviembre	2023-11-22T00:00:00	2024-11-08T22:00:00	7	Dirección del viento	6.44
73771	7	Sololá	710	Panajachel	8	Panajachel	11	Noviembre	2023-11-22T00:00:00	2024-11-08T22:00:00	1	Precipitación	0
73772	7	Sololá	710	Panajachel	8	Panajachel	11	Noviembre	2023-11-22T00:00:00	2024-11-08T22:00:00	8	Radiación solar	0
73773	7	Sololá	710	Panajachel	8	Panajachel	11	Noviembre	2023-11-22T00:00:00	2024-11-08T23:00:00	2	Temperatura media	19.6
73774	7	Sololá	710	Panajachel	8	Panajachel	11	Noviembre	2023-11-22T00:00:00	2024-11-08T23:00:00	4	Temperatura máxima	19.8
73775	7	Sololá	710	Panajachel	8	Panajachel	11	Noviembre	2023-11-22T00:00:00	2024-11-08T23:00:00	3	Temperatura mínima	19.6
73776	7	Sololá	710	Panajachel	8	Panajachel	11	Noviembre	2023-11-22T00:00:00	2024-11-08T23:00:00	5	Humedad	73
73777	7	Sololá	710	Panajachel	8	Panajachel	11	Noviembre	2023-11-22T00:00:00	2024-11-08T23:00:00	6	Velocidad del viento	8
73778	7	Sololá	710	Panajachel	8	Panajachel	11	Noviembre	2023-11-22T00:00:00	2024-11-08T23:00:00	7	Dirección del viento	8.05
73779	7	Sololá	710	Panajachel	8	Panajachel	11	Noviembre	2023-11-22T00:00:00	2024-11-08T23:00:00	1	Precipitación	0
73780	7	Sololá	710	Panajachel	8	Panajachel	11	Noviembre	2023-11-22T00:00:00	2024-11-08T23:00:00	8	Radiación solar	0
73781	7	Sololá	710	Panajachel	8	Panajachel	11	Noviembre	2023-11-23T00:00:00	2024-11-08T00:00:00	2	Temperatura media	18.6
73782	7	Sololá	710	Panajachel	8	Panajachel	11	Noviembre	2023-11-23T00:00:00	2024-11-08T00:00:00	4	Temperatura máxima	19.8
73783	7	Sololá	710	Panajachel	8	Panajachel	11	Noviembre	2023-11-23T00:00:00	2024-11-08T00:00:00	3	Temperatura mínima	18.6
73784	7	Sololá	710	Panajachel	8	Panajachel	11	Noviembre	2023-11-23T00:00:00	2024-11-08T00:00:00	5	Humedad	77
73785	7	Sololá	710	Panajachel	8	Panajachel	11	Noviembre	2023-11-23T00:00:00	2024-11-08T00:00:00	6	Velocidad del viento	3.2
73786	7	Sololá	710	Panajachel	8	Panajachel	11	Noviembre	2023-11-23T00:00:00	2024-11-08T00:00:00	7	Dirección del viento	3.22
73787	7	Sololá	710	Panajachel	8	Panajachel	11	Noviembre	2023-11-23T00:00:00	2024-11-08T00:00:00	1	Precipitación	0
73788	7	Sololá	710	Panajachel	8	Panajachel	11	Noviembre	2023-11-23T00:00:00	2024-11-08T00:00:00	8	Radiación solar	0
73789	7	Sololá	710	Panajachel	8	Panajachel	11	Noviembre	2023-11-23T00:00:00	2024-11-08T01:00:00	2	Temperatura media	18.1
73790	7	Sololá	710	Panajachel	8	Panajachel	11	Noviembre	2023-11-23T00:00:00	2024-11-08T01:00:00	4	Temperatura máxima	18.6
73791	7	Sololá	710	Panajachel	8	Panajachel	11	Noviembre	2023-11-23T00:00:00	2024-11-08T01:00:00	3	Temperatura mínima	18
73792	7	Sololá	710	Panajachel	8	Panajachel	11	Noviembre	2023-11-23T00:00:00	2024-11-08T01:00:00	5	Humedad	79
73793	7	Sololá	710	Panajachel	8	Panajachel	11	Noviembre	2023-11-23T00:00:00	2024-11-08T01:00:00	6	Velocidad del viento	1.6
73794	7	Sololá	710	Panajachel	8	Panajachel	11	Noviembre	2023-11-23T00:00:00	2024-11-08T01:00:00	7	Dirección del viento	1.61
73795	7	Sololá	710	Panajachel	8	Panajachel	11	Noviembre	2023-11-23T00:00:00	2024-11-08T01:00:00	1	Precipitación	0
73796	7	Sololá	710	Panajachel	8	Panajachel	11	Noviembre	2023-11-23T00:00:00	2024-11-08T01:00:00	8	Radiación solar	0
73797	7	Sololá	710	Panajachel	8	Panajachel	11	Noviembre	2023-11-23T00:00:00	2024-11-08T02:00:00	2	Temperatura media	17.6
73798	7	Sololá	710	Panajachel	8	Panajachel	11	Noviembre	2023-11-23T00:00:00	2024-11-08T02:00:00	4	Temperatura máxima	18.1
73799	7	Sololá	710	Panajachel	8	Panajachel	11	Noviembre	2023-11-23T00:00:00	2024-11-08T02:00:00	3	Temperatura mínima	17.6
73800	7	Sololá	710	Panajachel	8	Panajachel	11	Noviembre	2023-11-23T00:00:00	2024-11-08T02:00:00	5	Humedad	80
73801	7	Sololá	710	Panajachel	8	Panajachel	11	Noviembre	2023-11-23T00:00:00	2024-11-08T02:00:00	6	Velocidad del viento	0
73802	7	Sololá	710	Panajachel	8	Panajachel	11	Noviembre	2023-11-23T00:00:00	2024-11-08T02:00:00	7	Dirección del viento	0
73803	7	Sololá	710	Panajachel	8	Panajachel	11	Noviembre	2023-11-23T00:00:00	2024-11-08T02:00:00	1	Precipitación	0
73804	7	Sololá	710	Panajachel	8	Panajachel	11	Noviembre	2023-11-23T00:00:00	2024-11-08T02:00:00	8	Radiación solar	0
73805	7	Sololá	710	Panajachel	8	Panajachel	11	Noviembre	2023-11-23T00:00:00	2024-11-08T03:00:00	2	Temperatura media	16.7
73806	7	Sololá	710	Panajachel	8	Panajachel	11	Noviembre	2023-11-23T00:00:00	2024-11-08T03:00:00	4	Temperatura máxima	17.6
73807	7	Sololá	710	Panajachel	8	Panajachel	11	Noviembre	2023-11-23T00:00:00	2024-11-08T03:00:00	3	Temperatura mínima	16.7
73808	7	Sololá	710	Panajachel	8	Panajachel	11	Noviembre	2023-11-23T00:00:00	2024-11-08T03:00:00	5	Humedad	84
73809	7	Sololá	710	Panajachel	8	Panajachel	11	Noviembre	2023-11-23T00:00:00	2024-11-08T03:00:00	6	Velocidad del viento	0
73810	7	Sololá	710	Panajachel	8	Panajachel	11	Noviembre	2023-11-23T00:00:00	2024-11-08T03:00:00	7	Dirección del viento	0
73811	7	Sololá	710	Panajachel	8	Panajachel	11	Noviembre	2023-11-23T00:00:00	2024-11-08T03:00:00	1	Precipitación	0
73812	7	Sololá	710	Panajachel	8	Panajachel	11	Noviembre	2023-11-23T00:00:00	2024-11-08T03:00:00	8	Radiación solar	0
73813	7	Sololá	710	Panajachel	8	Panajachel	11	Noviembre	2023-11-23T00:00:00	2024-11-08T04:00:00	2	Temperatura media	15.8
73814	7	Sololá	710	Panajachel	8	Panajachel	11	Noviembre	2023-11-23T00:00:00	2024-11-08T04:00:00	4	Temperatura máxima	16.7
73815	7	Sololá	710	Panajachel	8	Panajachel	11	Noviembre	2023-11-23T00:00:00	2024-11-08T04:00:00	3	Temperatura mínima	15.8
73816	7	Sololá	710	Panajachel	8	Panajachel	11	Noviembre	2023-11-23T00:00:00	2024-11-08T04:00:00	5	Humedad	86
73817	7	Sololá	710	Panajachel	8	Panajachel	11	Noviembre	2023-11-23T00:00:00	2024-11-08T04:00:00	6	Velocidad del viento	0
73818	7	Sololá	710	Panajachel	8	Panajachel	11	Noviembre	2023-11-23T00:00:00	2024-11-08T04:00:00	7	Dirección del viento	0
73819	7	Sololá	710	Panajachel	8	Panajachel	11	Noviembre	2023-11-23T00:00:00	2024-11-08T04:00:00	1	Precipitación	0
73820	7	Sololá	710	Panajachel	8	Panajachel	11	Noviembre	2023-11-23T00:00:00	2024-11-08T04:00:00	8	Radiación solar	0
73821	7	Sololá	710	Panajachel	8	Panajachel	11	Noviembre	2023-11-23T00:00:00	2024-11-08T05:00:00	2	Temperatura media	15.8
73822	7	Sololá	710	Panajachel	8	Panajachel	11	Noviembre	2023-11-23T00:00:00	2024-11-08T05:00:00	4	Temperatura máxima	15.9
73823	7	Sololá	710	Panajachel	8	Panajachel	11	Noviembre	2023-11-23T00:00:00	2024-11-08T05:00:00	3	Temperatura mínima	15.6
73824	7	Sololá	710	Panajachel	8	Panajachel	11	Noviembre	2023-11-23T00:00:00	2024-11-08T05:00:00	5	Humedad	86
73825	7	Sololá	710	Panajachel	8	Panajachel	11	Noviembre	2023-11-23T00:00:00	2024-11-08T05:00:00	6	Velocidad del viento	1.6
73826	7	Sololá	710	Panajachel	8	Panajachel	11	Noviembre	2023-11-23T00:00:00	2024-11-08T05:00:00	7	Dirección del viento	1.61
73827	7	Sololá	710	Panajachel	8	Panajachel	11	Noviembre	2023-11-23T00:00:00	2024-11-08T05:00:00	1	Precipitación	0
73828	7	Sololá	710	Panajachel	8	Panajachel	11	Noviembre	2023-11-23T00:00:00	2024-11-08T05:00:00	8	Radiación solar	0
73829	7	Sololá	710	Panajachel	8	Panajachel	11	Noviembre	2023-11-23T00:00:00	2024-11-08T06:00:00	2	Temperatura media	16
73830	7	Sololá	710	Panajachel	8	Panajachel	11	Noviembre	2023-11-23T00:00:00	2024-11-08T06:00:00	4	Temperatura máxima	16
73831	7	Sololá	710	Panajachel	8	Panajachel	11	Noviembre	2023-11-23T00:00:00	2024-11-08T06:00:00	3	Temperatura mínima	15.6
73832	7	Sololá	710	Panajachel	8	Panajachel	11	Noviembre	2023-11-23T00:00:00	2024-11-08T06:00:00	5	Humedad	85
73833	7	Sololá	710	Panajachel	8	Panajachel	11	Noviembre	2023-11-23T00:00:00	2024-11-08T06:00:00	6	Velocidad del viento	1.6
73834	7	Sololá	710	Panajachel	8	Panajachel	11	Noviembre	2023-11-23T00:00:00	2024-11-08T06:00:00	7	Dirección del viento	1.61
73835	7	Sololá	710	Panajachel	8	Panajachel	11	Noviembre	2023-11-23T00:00:00	2024-11-08T06:00:00	1	Precipitación	0
73836	7	Sololá	710	Panajachel	8	Panajachel	11	Noviembre	2023-11-23T00:00:00	2024-11-08T06:00:00	8	Radiación solar	0
73837	7	Sololá	710	Panajachel	8	Panajachel	11	Noviembre	2023-11-23T00:00:00	2024-11-08T07:00:00	2	Temperatura media	16.3
73838	7	Sololá	710	Panajachel	8	Panajachel	11	Noviembre	2023-11-23T00:00:00	2024-11-08T07:00:00	4	Temperatura máxima	16.3
73839	7	Sololá	710	Panajachel	8	Panajachel	11	Noviembre	2023-11-23T00:00:00	2024-11-08T07:00:00	3	Temperatura mínima	15.9
73840	7	Sololá	710	Panajachel	8	Panajachel	11	Noviembre	2023-11-23T00:00:00	2024-11-08T07:00:00	5	Humedad	84
73841	7	Sololá	710	Panajachel	8	Panajachel	11	Noviembre	2023-11-23T00:00:00	2024-11-08T07:00:00	6	Velocidad del viento	3.2
73842	7	Sololá	710	Panajachel	8	Panajachel	11	Noviembre	2023-11-23T00:00:00	2024-11-08T07:00:00	7	Dirección del viento	3.22
73843	7	Sololá	710	Panajachel	8	Panajachel	11	Noviembre	2023-11-23T00:00:00	2024-11-08T07:00:00	1	Precipitación	0
73844	7	Sololá	710	Panajachel	8	Panajachel	11	Noviembre	2023-11-23T00:00:00	2024-11-08T07:00:00	8	Radiación solar	17
73845	7	Sololá	710	Panajachel	8	Panajachel	11	Noviembre	2023-11-23T00:00:00	2024-11-08T08:00:00	2	Temperatura media	20.4
73846	7	Sololá	710	Panajachel	8	Panajachel	11	Noviembre	2023-11-23T00:00:00	2024-11-08T08:00:00	4	Temperatura máxima	20.4
73847	7	Sololá	710	Panajachel	8	Panajachel	11	Noviembre	2023-11-23T00:00:00	2024-11-08T08:00:00	3	Temperatura mínima	16.3
73848	7	Sololá	710	Panajachel	8	Panajachel	11	Noviembre	2023-11-23T00:00:00	2024-11-08T08:00:00	5	Humedad	73
73849	7	Sololá	710	Panajachel	8	Panajachel	11	Noviembre	2023-11-23T00:00:00	2024-11-08T08:00:00	6	Velocidad del viento	3.2
73850	7	Sololá	710	Panajachel	8	Panajachel	11	Noviembre	2023-11-23T00:00:00	2024-11-08T08:00:00	7	Dirección del viento	3.22
73851	7	Sololá	710	Panajachel	8	Panajachel	11	Noviembre	2023-11-23T00:00:00	2024-11-08T08:00:00	1	Precipitación	0
73852	7	Sololá	710	Panajachel	8	Panajachel	11	Noviembre	2023-11-23T00:00:00	2024-11-08T08:00:00	8	Radiación solar	221
73853	7	Sololá	710	Panajachel	8	Panajachel	11	Noviembre	2023-11-23T00:00:00	2024-11-08T09:00:00	2	Temperatura media	20.7
73854	7	Sololá	710	Panajachel	8	Panajachel	11	Noviembre	2023-11-23T00:00:00	2024-11-08T09:00:00	4	Temperatura máxima	21.3
73855	7	Sololá	710	Panajachel	8	Panajachel	11	Noviembre	2023-11-23T00:00:00	2024-11-08T09:00:00	3	Temperatura mínima	20.4
73856	7	Sololá	710	Panajachel	8	Panajachel	11	Noviembre	2023-11-23T00:00:00	2024-11-08T09:00:00	5	Humedad	73
73857	7	Sololá	710	Panajachel	8	Panajachel	11	Noviembre	2023-11-23T00:00:00	2024-11-08T09:00:00	6	Velocidad del viento	3.2
73858	7	Sololá	710	Panajachel	8	Panajachel	11	Noviembre	2023-11-23T00:00:00	2024-11-08T09:00:00	7	Dirección del viento	3.22
73859	7	Sololá	710	Panajachel	8	Panajachel	11	Noviembre	2023-11-23T00:00:00	2024-11-08T09:00:00	1	Precipitación	0
73860	7	Sololá	710	Panajachel	8	Panajachel	11	Noviembre	2023-11-23T00:00:00	2024-11-08T09:00:00	8	Radiación solar	428
73861	7	Sololá	710	Panajachel	8	Panajachel	11	Noviembre	2023-11-23T00:00:00	2024-11-08T10:00:00	2	Temperatura media	21.6
73862	7	Sololá	710	Panajachel	8	Panajachel	11	Noviembre	2023-11-23T00:00:00	2024-11-08T10:00:00	4	Temperatura máxima	21.7
73863	7	Sololá	710	Panajachel	8	Panajachel	11	Noviembre	2023-11-23T00:00:00	2024-11-08T10:00:00	3	Temperatura mínima	20.7
73864	7	Sololá	710	Panajachel	8	Panajachel	11	Noviembre	2023-11-23T00:00:00	2024-11-08T10:00:00	5	Humedad	74
73865	7	Sololá	710	Panajachel	8	Panajachel	11	Noviembre	2023-11-23T00:00:00	2024-11-08T10:00:00	6	Velocidad del viento	3.2
73866	7	Sololá	710	Panajachel	8	Panajachel	11	Noviembre	2023-11-23T00:00:00	2024-11-08T10:00:00	7	Dirección del viento	3.22
73867	7	Sololá	710	Panajachel	8	Panajachel	11	Noviembre	2023-11-23T00:00:00	2024-11-08T10:00:00	1	Precipitación	0
73868	7	Sololá	710	Panajachel	8	Panajachel	11	Noviembre	2023-11-23T00:00:00	2024-11-08T10:00:00	8	Radiación solar	604
73869	7	Sololá	710	Panajachel	8	Panajachel	11	Noviembre	2023-11-23T00:00:00	2024-11-08T11:00:00	2	Temperatura media	22.9
73870	7	Sololá	710	Panajachel	8	Panajachel	11	Noviembre	2023-11-23T00:00:00	2024-11-08T11:00:00	4	Temperatura máxima	22.9
73871	7	Sololá	710	Panajachel	8	Panajachel	11	Noviembre	2023-11-23T00:00:00	2024-11-08T11:00:00	3	Temperatura mínima	21.3
73872	7	Sololá	710	Panajachel	8	Panajachel	11	Noviembre	2023-11-23T00:00:00	2024-11-08T11:00:00	5	Humedad	71
73873	7	Sololá	710	Panajachel	8	Panajachel	11	Noviembre	2023-11-23T00:00:00	2024-11-08T11:00:00	6	Velocidad del viento	3.2
73874	7	Sololá	710	Panajachel	8	Panajachel	11	Noviembre	2023-11-23T00:00:00	2024-11-08T11:00:00	7	Dirección del viento	3.22
73875	7	Sololá	710	Panajachel	8	Panajachel	11	Noviembre	2023-11-23T00:00:00	2024-11-08T11:00:00	1	Precipitación	0
73876	7	Sololá	710	Panajachel	8	Panajachel	11	Noviembre	2023-11-23T00:00:00	2024-11-08T11:00:00	8	Radiación solar	743
73877	7	Sololá	710	Panajachel	8	Panajachel	11	Noviembre	2023-11-23T00:00:00	2024-11-08T12:00:00	2	Temperatura media	24.3
73878	7	Sololá	710	Panajachel	8	Panajachel	11	Noviembre	2023-11-23T00:00:00	2024-11-08T12:00:00	4	Temperatura máxima	24.3
73879	7	Sololá	710	Panajachel	8	Panajachel	11	Noviembre	2023-11-23T00:00:00	2024-11-08T12:00:00	3	Temperatura mínima	22.8
73880	7	Sololá	710	Panajachel	8	Panajachel	11	Noviembre	2023-11-23T00:00:00	2024-11-08T12:00:00	5	Humedad	70
73881	7	Sololá	710	Panajachel	8	Panajachel	11	Noviembre	2023-11-23T00:00:00	2024-11-08T12:00:00	6	Velocidad del viento	4.8
73882	7	Sololá	710	Panajachel	8	Panajachel	11	Noviembre	2023-11-23T00:00:00	2024-11-08T12:00:00	7	Dirección del viento	4.83
73883	7	Sololá	710	Panajachel	8	Panajachel	11	Noviembre	2023-11-23T00:00:00	2024-11-08T12:00:00	1	Precipitación	0
73884	7	Sololá	710	Panajachel	8	Panajachel	11	Noviembre	2023-11-23T00:00:00	2024-11-08T12:00:00	8	Radiación solar	789
73885	7	Sololá	710	Panajachel	8	Panajachel	11	Noviembre	2023-11-23T00:00:00	2024-11-08T13:00:00	2	Temperatura media	22.6
73886	7	Sololá	710	Panajachel	8	Panajachel	11	Noviembre	2023-11-23T00:00:00	2024-11-08T13:00:00	4	Temperatura máxima	24.3
73887	7	Sololá	710	Panajachel	8	Panajachel	11	Noviembre	2023-11-23T00:00:00	2024-11-08T13:00:00	3	Temperatura mínima	22.3
73888	7	Sololá	710	Panajachel	8	Panajachel	11	Noviembre	2023-11-23T00:00:00	2024-11-08T13:00:00	5	Humedad	78
73889	7	Sololá	710	Panajachel	8	Panajachel	11	Noviembre	2023-11-23T00:00:00	2024-11-08T13:00:00	6	Velocidad del viento	11.3
73890	7	Sololá	710	Panajachel	8	Panajachel	11	Noviembre	2023-11-23T00:00:00	2024-11-08T13:00:00	7	Dirección del viento	11.27
73891	7	Sololá	710	Panajachel	8	Panajachel	11	Noviembre	2023-11-23T00:00:00	2024-11-08T13:00:00	1	Precipitación	0
73892	7	Sololá	710	Panajachel	8	Panajachel	11	Noviembre	2023-11-23T00:00:00	2024-11-08T13:00:00	8	Radiación solar	773
73893	7	Sololá	710	Panajachel	8	Panajachel	11	Noviembre	2023-11-23T00:00:00	2024-11-08T14:00:00	2	Temperatura media	23.6
73894	7	Sololá	710	Panajachel	8	Panajachel	11	Noviembre	2023-11-23T00:00:00	2024-11-08T14:00:00	4	Temperatura máxima	24.2
73895	7	Sololá	710	Panajachel	8	Panajachel	11	Noviembre	2023-11-23T00:00:00	2024-11-08T14:00:00	3	Temperatura mínima	22.4
73896	7	Sololá	710	Panajachel	8	Panajachel	11	Noviembre	2023-11-23T00:00:00	2024-11-08T14:00:00	5	Humedad	79
73897	7	Sololá	710	Panajachel	8	Panajachel	11	Noviembre	2023-11-23T00:00:00	2024-11-08T14:00:00	6	Velocidad del viento	6.4
73898	7	Sololá	710	Panajachel	8	Panajachel	11	Noviembre	2023-11-23T00:00:00	2024-11-08T14:00:00	7	Dirección del viento	6.44
73899	7	Sololá	710	Panajachel	8	Panajachel	11	Noviembre	2023-11-23T00:00:00	2024-11-08T14:00:00	1	Precipitación	0
73900	7	Sololá	710	Panajachel	8	Panajachel	11	Noviembre	2023-11-23T00:00:00	2024-11-08T14:00:00	8	Radiación solar	687
73901	7	Sololá	710	Panajachel	8	Panajachel	11	Noviembre	2023-11-23T00:00:00	2024-11-08T15:00:00	2	Temperatura media	23.9
73902	7	Sololá	710	Panajachel	8	Panajachel	11	Noviembre	2023-11-23T00:00:00	2024-11-08T15:00:00	4	Temperatura máxima	24.2
73903	7	Sololá	710	Panajachel	8	Panajachel	11	Noviembre	2023-11-23T00:00:00	2024-11-08T15:00:00	3	Temperatura mínima	23.4
73904	7	Sololá	710	Panajachel	8	Panajachel	11	Noviembre	2023-11-23T00:00:00	2024-11-08T15:00:00	5	Humedad	75
73905	7	Sololá	710	Panajachel	8	Panajachel	11	Noviembre	2023-11-23T00:00:00	2024-11-08T15:00:00	6	Velocidad del viento	4.8
73906	7	Sololá	710	Panajachel	8	Panajachel	11	Noviembre	2023-11-23T00:00:00	2024-11-08T15:00:00	7	Dirección del viento	4.83
73907	7	Sololá	710	Panajachel	8	Panajachel	11	Noviembre	2023-11-23T00:00:00	2024-11-08T15:00:00	1	Precipitación	0
73908	7	Sololá	710	Panajachel	8	Panajachel	11	Noviembre	2023-11-23T00:00:00	2024-11-08T15:00:00	8	Radiación solar	607
73909	7	Sololá	710	Panajachel	8	Panajachel	11	Noviembre	2023-11-23T00:00:00	2024-11-08T16:00:00	2	Temperatura media	22.4
73910	7	Sololá	710	Panajachel	8	Panajachel	11	Noviembre	2023-11-23T00:00:00	2024-11-08T16:00:00	4	Temperatura máxima	24.3
73911	7	Sololá	710	Panajachel	8	Panajachel	11	Noviembre	2023-11-23T00:00:00	2024-11-08T16:00:00	3	Temperatura mínima	22.4
73912	7	Sololá	710	Panajachel	8	Panajachel	11	Noviembre	2023-11-23T00:00:00	2024-11-08T16:00:00	5	Humedad	82
73913	7	Sololá	710	Panajachel	8	Panajachel	11	Noviembre	2023-11-23T00:00:00	2024-11-08T16:00:00	6	Velocidad del viento	4.8
73914	7	Sololá	710	Panajachel	8	Panajachel	11	Noviembre	2023-11-23T00:00:00	2024-11-08T16:00:00	7	Dirección del viento	4.83
73915	7	Sololá	710	Panajachel	8	Panajachel	11	Noviembre	2023-11-23T00:00:00	2024-11-08T16:00:00	1	Precipitación	0
73916	7	Sololá	710	Panajachel	8	Panajachel	11	Noviembre	2023-11-23T00:00:00	2024-11-08T16:00:00	8	Radiación solar	260
73917	7	Sololá	710	Panajachel	8	Panajachel	11	Noviembre	2023-11-23T00:00:00	2024-11-08T17:00:00	2	Temperatura media	21.8
73918	7	Sololá	710	Panajachel	8	Panajachel	11	Noviembre	2023-11-23T00:00:00	2024-11-08T17:00:00	4	Temperatura máxima	22.4
73919	7	Sololá	710	Panajachel	8	Panajachel	11	Noviembre	2023-11-23T00:00:00	2024-11-08T17:00:00	3	Temperatura mínima	21.4
73920	7	Sololá	710	Panajachel	8	Panajachel	11	Noviembre	2023-11-23T00:00:00	2024-11-08T17:00:00	5	Humedad	84
73921	7	Sololá	710	Panajachel	8	Panajachel	11	Noviembre	2023-11-23T00:00:00	2024-11-08T17:00:00	6	Velocidad del viento	6.4
73922	7	Sololá	710	Panajachel	8	Panajachel	11	Noviembre	2023-11-23T00:00:00	2024-11-08T17:00:00	7	Dirección del viento	6.44
73923	7	Sololá	710	Panajachel	8	Panajachel	11	Noviembre	2023-11-23T00:00:00	2024-11-08T17:00:00	1	Precipitación	0
73924	7	Sololá	710	Panajachel	8	Panajachel	11	Noviembre	2023-11-23T00:00:00	2024-11-08T17:00:00	8	Radiación solar	149
73925	7	Sololá	710	Panajachel	8	Panajachel	11	Noviembre	2023-11-23T00:00:00	2024-11-08T18:00:00	2	Temperatura media	20
73926	7	Sololá	710	Panajachel	8	Panajachel	11	Noviembre	2023-11-23T00:00:00	2024-11-08T18:00:00	4	Temperatura máxima	21.8
73927	7	Sololá	710	Panajachel	8	Panajachel	11	Noviembre	2023-11-23T00:00:00	2024-11-08T18:00:00	3	Temperatura mínima	20
73928	7	Sololá	710	Panajachel	8	Panajachel	11	Noviembre	2023-11-23T00:00:00	2024-11-08T18:00:00	5	Humedad	89
73929	7	Sololá	710	Panajachel	8	Panajachel	11	Noviembre	2023-11-23T00:00:00	2024-11-08T18:00:00	6	Velocidad del viento	3.2
73930	7	Sololá	710	Panajachel	8	Panajachel	11	Noviembre	2023-11-23T00:00:00	2024-11-08T18:00:00	7	Dirección del viento	3.22
73931	7	Sololá	710	Panajachel	8	Panajachel	11	Noviembre	2023-11-23T00:00:00	2024-11-08T18:00:00	1	Precipitación	0
73932	7	Sololá	710	Panajachel	8	Panajachel	11	Noviembre	2023-11-23T00:00:00	2024-11-08T18:00:00	8	Radiación solar	21
73933	7	Sololá	710	Panajachel	8	Panajachel	11	Noviembre	2023-11-23T00:00:00	2024-11-08T19:00:00	2	Temperatura media	19.6
73934	7	Sololá	710	Panajachel	8	Panajachel	11	Noviembre	2023-11-23T00:00:00	2024-11-08T19:00:00	4	Temperatura máxima	20.1
73935	7	Sololá	710	Panajachel	8	Panajachel	11	Noviembre	2023-11-23T00:00:00	2024-11-08T19:00:00	3	Temperatura mínima	19.6
73936	7	Sololá	710	Panajachel	8	Panajachel	11	Noviembre	2023-11-23T00:00:00	2024-11-08T19:00:00	5	Humedad	89
73937	7	Sololá	710	Panajachel	8	Panajachel	11	Noviembre	2023-11-23T00:00:00	2024-11-08T19:00:00	6	Velocidad del viento	1.6
73938	7	Sololá	710	Panajachel	8	Panajachel	11	Noviembre	2023-11-23T00:00:00	2024-11-08T19:00:00	7	Dirección del viento	1.61
73939	7	Sololá	710	Panajachel	8	Panajachel	11	Noviembre	2023-11-23T00:00:00	2024-11-08T19:00:00	1	Precipitación	0
73940	7	Sololá	710	Panajachel	8	Panajachel	11	Noviembre	2023-11-23T00:00:00	2024-11-08T19:00:00	8	Radiación solar	0
73941	7	Sololá	710	Panajachel	8	Panajachel	11	Noviembre	2023-11-23T00:00:00	2024-11-08T20:00:00	2	Temperatura media	18.6
73942	7	Sololá	710	Panajachel	8	Panajachel	11	Noviembre	2023-11-23T00:00:00	2024-11-08T20:00:00	4	Temperatura máxima	19.6
73943	7	Sololá	710	Panajachel	8	Panajachel	11	Noviembre	2023-11-23T00:00:00	2024-11-08T20:00:00	3	Temperatura mínima	18.6
73944	7	Sololá	710	Panajachel	8	Panajachel	11	Noviembre	2023-11-23T00:00:00	2024-11-08T20:00:00	5	Humedad	89
73945	7	Sololá	710	Panajachel	8	Panajachel	11	Noviembre	2023-11-23T00:00:00	2024-11-08T20:00:00	6	Velocidad del viento	1.6
73946	7	Sololá	710	Panajachel	8	Panajachel	11	Noviembre	2023-11-23T00:00:00	2024-11-08T20:00:00	7	Dirección del viento	1.61
73947	7	Sololá	710	Panajachel	8	Panajachel	11	Noviembre	2023-11-23T00:00:00	2024-11-08T20:00:00	1	Precipitación	0
73948	7	Sololá	710	Panajachel	8	Panajachel	11	Noviembre	2023-11-23T00:00:00	2024-11-08T20:00:00	8	Radiación solar	0
73949	7	Sololá	710	Panajachel	8	Panajachel	11	Noviembre	2023-11-23T00:00:00	2024-11-08T21:00:00	2	Temperatura media	18.6
73950	7	Sololá	710	Panajachel	8	Panajachel	11	Noviembre	2023-11-23T00:00:00	2024-11-08T21:00:00	4	Temperatura máxima	18.6
73951	7	Sololá	710	Panajachel	8	Panajachel	11	Noviembre	2023-11-23T00:00:00	2024-11-08T21:00:00	3	Temperatura mínima	18.2
73952	7	Sololá	710	Panajachel	8	Panajachel	11	Noviembre	2023-11-23T00:00:00	2024-11-08T21:00:00	5	Humedad	81
73953	7	Sololá	710	Panajachel	8	Panajachel	11	Noviembre	2023-11-23T00:00:00	2024-11-08T21:00:00	6	Velocidad del viento	1.6
73954	7	Sololá	710	Panajachel	8	Panajachel	11	Noviembre	2023-11-23T00:00:00	2024-11-08T21:00:00	7	Dirección del viento	1.61
73955	7	Sololá	710	Panajachel	8	Panajachel	11	Noviembre	2023-11-23T00:00:00	2024-11-08T21:00:00	1	Precipitación	0
73956	7	Sololá	710	Panajachel	8	Panajachel	11	Noviembre	2023-11-23T00:00:00	2024-11-08T21:00:00	8	Radiación solar	0
73957	7	Sololá	710	Panajachel	8	Panajachel	11	Noviembre	2023-11-23T00:00:00	2024-11-08T22:00:00	2	Temperatura media	17.5
73958	7	Sololá	710	Panajachel	8	Panajachel	11	Noviembre	2023-11-23T00:00:00	2024-11-08T22:00:00	4	Temperatura máxima	18.6
73959	7	Sololá	710	Panajachel	8	Panajachel	11	Noviembre	2023-11-23T00:00:00	2024-11-08T22:00:00	3	Temperatura mínima	17.5
73960	7	Sololá	710	Panajachel	8	Panajachel	11	Noviembre	2023-11-23T00:00:00	2024-11-08T22:00:00	5	Humedad	81
73961	7	Sololá	710	Panajachel	8	Panajachel	11	Noviembre	2023-11-23T00:00:00	2024-11-08T22:00:00	6	Velocidad del viento	4.8
73962	7	Sololá	710	Panajachel	8	Panajachel	11	Noviembre	2023-11-23T00:00:00	2024-11-08T22:00:00	7	Dirección del viento	4.83
73963	7	Sololá	710	Panajachel	8	Panajachel	11	Noviembre	2023-11-23T00:00:00	2024-11-08T22:00:00	1	Precipitación	0
73964	7	Sololá	710	Panajachel	8	Panajachel	11	Noviembre	2023-11-23T00:00:00	2024-11-08T22:00:00	8	Radiación solar	0
73965	7	Sololá	710	Panajachel	8	Panajachel	11	Noviembre	2023-11-23T00:00:00	2024-11-08T23:00:00	2	Temperatura media	17.1
73966	7	Sololá	710	Panajachel	8	Panajachel	11	Noviembre	2023-11-23T00:00:00	2024-11-08T23:00:00	4	Temperatura máxima	17.5
73967	7	Sololá	710	Panajachel	8	Panajachel	11	Noviembre	2023-11-23T00:00:00	2024-11-08T23:00:00	3	Temperatura mínima	16.9
73968	7	Sololá	710	Panajachel	8	Panajachel	11	Noviembre	2023-11-23T00:00:00	2024-11-08T23:00:00	5	Humedad	81
73969	7	Sololá	710	Panajachel	8	Panajachel	11	Noviembre	2023-11-23T00:00:00	2024-11-08T23:00:00	6	Velocidad del viento	4.8
73970	7	Sololá	710	Panajachel	8	Panajachel	11	Noviembre	2023-11-23T00:00:00	2024-11-08T23:00:00	7	Dirección del viento	4.83
73971	7	Sololá	710	Panajachel	8	Panajachel	11	Noviembre	2023-11-23T00:00:00	2024-11-08T23:00:00	1	Precipitación	0
73972	7	Sololá	710	Panajachel	8	Panajachel	11	Noviembre	2023-11-23T00:00:00	2024-11-08T23:00:00	8	Radiación solar	0
73973	7	Sololá	710	Panajachel	8	Panajachel	11	Noviembre	2023-11-24T00:00:00	2024-11-08T00:00:00	2	Temperatura media	16.8
73974	7	Sololá	710	Panajachel	8	Panajachel	11	Noviembre	2023-11-24T00:00:00	2024-11-08T00:00:00	4	Temperatura máxima	17.3
73975	7	Sololá	710	Panajachel	8	Panajachel	11	Noviembre	2023-11-24T00:00:00	2024-11-08T00:00:00	3	Temperatura mínima	16.8
73976	7	Sololá	710	Panajachel	8	Panajachel	11	Noviembre	2023-11-24T00:00:00	2024-11-08T00:00:00	5	Humedad	81
73977	7	Sololá	710	Panajachel	8	Panajachel	11	Noviembre	2023-11-24T00:00:00	2024-11-08T00:00:00	6	Velocidad del viento	4.8
73978	7	Sololá	710	Panajachel	8	Panajachel	11	Noviembre	2023-11-24T00:00:00	2024-11-08T00:00:00	7	Dirección del viento	4.83
73979	7	Sololá	710	Panajachel	8	Panajachel	11	Noviembre	2023-11-24T00:00:00	2024-11-08T00:00:00	1	Precipitación	0
73980	7	Sololá	710	Panajachel	8	Panajachel	11	Noviembre	2023-11-24T00:00:00	2024-11-08T00:00:00	8	Radiación solar	0
73981	7	Sololá	710	Panajachel	8	Panajachel	11	Noviembre	2023-11-24T00:00:00	2024-11-08T01:00:00	2	Temperatura media	16.6
73982	7	Sololá	710	Panajachel	8	Panajachel	11	Noviembre	2023-11-24T00:00:00	2024-11-08T01:00:00	4	Temperatura máxima	16.9
73983	7	Sololá	710	Panajachel	8	Panajachel	11	Noviembre	2023-11-24T00:00:00	2024-11-08T01:00:00	3	Temperatura mínima	16.6
73984	7	Sololá	710	Panajachel	8	Panajachel	11	Noviembre	2023-11-24T00:00:00	2024-11-08T01:00:00	5	Humedad	83
73985	7	Sololá	710	Panajachel	8	Panajachel	11	Noviembre	2023-11-24T00:00:00	2024-11-08T01:00:00	6	Velocidad del viento	3.2
73986	7	Sololá	710	Panajachel	8	Panajachel	11	Noviembre	2023-11-24T00:00:00	2024-11-08T01:00:00	7	Dirección del viento	3.22
73987	7	Sololá	710	Panajachel	8	Panajachel	11	Noviembre	2023-11-24T00:00:00	2024-11-08T01:00:00	1	Precipitación	0
73988	7	Sololá	710	Panajachel	8	Panajachel	11	Noviembre	2023-11-24T00:00:00	2024-11-08T01:00:00	8	Radiación solar	0
73989	7	Sololá	710	Panajachel	8	Panajachel	11	Noviembre	2023-11-24T00:00:00	2024-11-08T02:00:00	2	Temperatura media	16.1
73990	7	Sololá	710	Panajachel	8	Panajachel	11	Noviembre	2023-11-24T00:00:00	2024-11-08T02:00:00	4	Temperatura máxima	16.7
73991	7	Sololá	710	Panajachel	8	Panajachel	11	Noviembre	2023-11-24T00:00:00	2024-11-08T02:00:00	3	Temperatura mínima	16.1
73992	7	Sololá	710	Panajachel	8	Panajachel	11	Noviembre	2023-11-24T00:00:00	2024-11-08T02:00:00	5	Humedad	85
73993	7	Sololá	710	Panajachel	8	Panajachel	11	Noviembre	2023-11-24T00:00:00	2024-11-08T02:00:00	6	Velocidad del viento	3.2
73994	7	Sololá	710	Panajachel	8	Panajachel	11	Noviembre	2023-11-24T00:00:00	2024-11-08T02:00:00	7	Dirección del viento	3.22
73995	7	Sololá	710	Panajachel	8	Panajachel	11	Noviembre	2023-11-24T00:00:00	2024-11-08T02:00:00	1	Precipitación	0
73996	7	Sololá	710	Panajachel	8	Panajachel	11	Noviembre	2023-11-24T00:00:00	2024-11-08T02:00:00	8	Radiación solar	0
73997	7	Sololá	710	Panajachel	8	Panajachel	11	Noviembre	2023-11-24T00:00:00	2024-11-08T03:00:00	2	Temperatura media	15.8
73998	7	Sololá	710	Panajachel	8	Panajachel	11	Noviembre	2023-11-24T00:00:00	2024-11-08T03:00:00	4	Temperatura máxima	16.1
73999	7	Sololá	710	Panajachel	8	Panajachel	11	Noviembre	2023-11-24T00:00:00	2024-11-08T03:00:00	3	Temperatura mínima	15.7
74000	7	Sololá	710	Panajachel	8	Panajachel	11	Noviembre	2023-11-24T00:00:00	2024-11-08T03:00:00	5	Humedad	85
74001	7	Sololá	710	Panajachel	8	Panajachel	11	Noviembre	2023-11-24T00:00:00	2024-11-08T03:00:00	6	Velocidad del viento	3.2
74002	7	Sololá	710	Panajachel	8	Panajachel	11	Noviembre	2023-11-24T00:00:00	2024-11-08T03:00:00	7	Dirección del viento	3.22
74003	7	Sololá	710	Panajachel	8	Panajachel	11	Noviembre	2023-11-24T00:00:00	2024-11-08T03:00:00	1	Precipitación	0
74004	7	Sololá	710	Panajachel	8	Panajachel	11	Noviembre	2023-11-24T00:00:00	2024-11-08T03:00:00	8	Radiación solar	0
74005	7	Sololá	710	Panajachel	8	Panajachel	11	Noviembre	2023-11-24T00:00:00	2024-11-08T04:00:00	2	Temperatura media	15.9
74006	7	Sololá	710	Panajachel	8	Panajachel	11	Noviembre	2023-11-24T00:00:00	2024-11-08T04:00:00	4	Temperatura máxima	16
74007	7	Sololá	710	Panajachel	8	Panajachel	11	Noviembre	2023-11-24T00:00:00	2024-11-08T04:00:00	3	Temperatura mínima	15.7
74008	7	Sololá	710	Panajachel	8	Panajachel	11	Noviembre	2023-11-24T00:00:00	2024-11-08T04:00:00	5	Humedad	84
74009	7	Sololá	710	Panajachel	8	Panajachel	11	Noviembre	2023-11-24T00:00:00	2024-11-08T04:00:00	6	Velocidad del viento	3.2
74010	7	Sololá	710	Panajachel	8	Panajachel	11	Noviembre	2023-11-24T00:00:00	2024-11-08T04:00:00	7	Dirección del viento	3.22
74011	7	Sololá	710	Panajachel	8	Panajachel	11	Noviembre	2023-11-24T00:00:00	2024-11-08T04:00:00	1	Precipitación	0
74012	7	Sololá	710	Panajachel	8	Panajachel	11	Noviembre	2023-11-24T00:00:00	2024-11-08T04:00:00	8	Radiación solar	0
74013	7	Sololá	710	Panajachel	8	Panajachel	11	Noviembre	2023-11-24T00:00:00	2024-11-08T05:00:00	2	Temperatura media	15.6
74014	7	Sololá	710	Panajachel	8	Panajachel	11	Noviembre	2023-11-24T00:00:00	2024-11-08T05:00:00	4	Temperatura máxima	16
74015	7	Sololá	710	Panajachel	8	Panajachel	11	Noviembre	2023-11-24T00:00:00	2024-11-08T05:00:00	3	Temperatura mínima	15.6
74016	7	Sololá	710	Panajachel	8	Panajachel	11	Noviembre	2023-11-24T00:00:00	2024-11-08T05:00:00	5	Humedad	85
74017	7	Sololá	710	Panajachel	8	Panajachel	11	Noviembre	2023-11-24T00:00:00	2024-11-08T05:00:00	6	Velocidad del viento	3.2
74018	7	Sololá	710	Panajachel	8	Panajachel	11	Noviembre	2023-11-24T00:00:00	2024-11-08T05:00:00	7	Dirección del viento	3.22
74019	7	Sololá	710	Panajachel	8	Panajachel	11	Noviembre	2023-11-24T00:00:00	2024-11-08T05:00:00	1	Precipitación	0
74020	7	Sololá	710	Panajachel	8	Panajachel	11	Noviembre	2023-11-24T00:00:00	2024-11-08T05:00:00	8	Radiación solar	0
74021	7	Sololá	710	Panajachel	8	Panajachel	11	Noviembre	2023-11-24T00:00:00	2024-11-08T06:00:00	2	Temperatura media	15.8
74022	7	Sololá	710	Panajachel	8	Panajachel	11	Noviembre	2023-11-24T00:00:00	2024-11-08T06:00:00	4	Temperatura máxima	15.9
74023	7	Sololá	710	Panajachel	8	Panajachel	11	Noviembre	2023-11-24T00:00:00	2024-11-08T06:00:00	3	Temperatura mínima	15.6
74024	7	Sololá	710	Panajachel	8	Panajachel	11	Noviembre	2023-11-24T00:00:00	2024-11-08T06:00:00	5	Humedad	84
74025	7	Sololá	710	Panajachel	8	Panajachel	11	Noviembre	2023-11-24T00:00:00	2024-11-08T06:00:00	6	Velocidad del viento	3.2
74026	7	Sololá	710	Panajachel	8	Panajachel	11	Noviembre	2023-11-24T00:00:00	2024-11-08T06:00:00	7	Dirección del viento	3.22
74027	7	Sololá	710	Panajachel	8	Panajachel	11	Noviembre	2023-11-24T00:00:00	2024-11-08T06:00:00	1	Precipitación	0
74028	7	Sololá	710	Panajachel	8	Panajachel	11	Noviembre	2023-11-24T00:00:00	2024-11-08T06:00:00	8	Radiación solar	0
74029	7	Sololá	710	Panajachel	8	Panajachel	11	Noviembre	2023-11-24T00:00:00	2024-11-08T07:00:00	2	Temperatura media	16
74030	7	Sololá	710	Panajachel	8	Panajachel	11	Noviembre	2023-11-24T00:00:00	2024-11-08T07:00:00	4	Temperatura máxima	16
74031	7	Sololá	710	Panajachel	8	Panajachel	11	Noviembre	2023-11-24T00:00:00	2024-11-08T07:00:00	3	Temperatura mínima	15.5
74032	7	Sololá	710	Panajachel	8	Panajachel	11	Noviembre	2023-11-24T00:00:00	2024-11-08T07:00:00	5	Humedad	85
74033	7	Sololá	710	Panajachel	8	Panajachel	11	Noviembre	2023-11-24T00:00:00	2024-11-08T07:00:00	6	Velocidad del viento	1.6
74034	7	Sololá	710	Panajachel	8	Panajachel	11	Noviembre	2023-11-24T00:00:00	2024-11-08T07:00:00	7	Dirección del viento	1.61
74035	7	Sololá	710	Panajachel	8	Panajachel	11	Noviembre	2023-11-24T00:00:00	2024-11-08T07:00:00	1	Precipitación	0
74036	7	Sololá	710	Panajachel	8	Panajachel	11	Noviembre	2023-11-24T00:00:00	2024-11-08T07:00:00	8	Radiación solar	18
74037	7	Sololá	710	Panajachel	8	Panajachel	11	Noviembre	2023-11-24T00:00:00	2024-11-08T08:00:00	2	Temperatura media	18.9
74038	7	Sololá	710	Panajachel	8	Panajachel	11	Noviembre	2023-11-24T00:00:00	2024-11-08T08:00:00	4	Temperatura máxima	18.9
74039	7	Sololá	710	Panajachel	8	Panajachel	11	Noviembre	2023-11-24T00:00:00	2024-11-08T08:00:00	3	Temperatura mínima	16
74040	7	Sololá	710	Panajachel	8	Panajachel	11	Noviembre	2023-11-24T00:00:00	2024-11-08T08:00:00	5	Humedad	79
74041	7	Sololá	710	Panajachel	8	Panajachel	11	Noviembre	2023-11-24T00:00:00	2024-11-08T08:00:00	6	Velocidad del viento	3.2
74042	7	Sololá	710	Panajachel	8	Panajachel	11	Noviembre	2023-11-24T00:00:00	2024-11-08T08:00:00	7	Dirección del viento	3.22
74043	7	Sololá	710	Panajachel	8	Panajachel	11	Noviembre	2023-11-24T00:00:00	2024-11-08T08:00:00	1	Precipitación	0
74044	7	Sololá	710	Panajachel	8	Panajachel	11	Noviembre	2023-11-24T00:00:00	2024-11-08T08:00:00	8	Radiación solar	212
74045	7	Sololá	710	Panajachel	8	Panajachel	11	Noviembre	2023-11-24T00:00:00	2024-11-08T09:00:00	2	Temperatura media	20
74046	7	Sololá	710	Panajachel	8	Panajachel	11	Noviembre	2023-11-24T00:00:00	2024-11-08T09:00:00	4	Temperatura máxima	20
74047	7	Sololá	710	Panajachel	8	Panajachel	11	Noviembre	2023-11-24T00:00:00	2024-11-08T09:00:00	3	Temperatura mínima	18.9
74048	7	Sololá	710	Panajachel	8	Panajachel	11	Noviembre	2023-11-24T00:00:00	2024-11-08T09:00:00	5	Humedad	80
74049	7	Sololá	710	Panajachel	8	Panajachel	11	Noviembre	2023-11-24T00:00:00	2024-11-08T09:00:00	6	Velocidad del viento	1.6
74050	7	Sololá	710	Panajachel	8	Panajachel	11	Noviembre	2023-11-24T00:00:00	2024-11-08T09:00:00	7	Dirección del viento	1.61
74051	7	Sololá	710	Panajachel	8	Panajachel	11	Noviembre	2023-11-24T00:00:00	2024-11-08T09:00:00	1	Precipitación	0
74052	7	Sololá	710	Panajachel	8	Panajachel	11	Noviembre	2023-11-24T00:00:00	2024-11-08T09:00:00	8	Radiación solar	423
74053	7	Sololá	710	Panajachel	8	Panajachel	11	Noviembre	2023-11-24T00:00:00	2024-11-08T10:00:00	2	Temperatura media	21.4
74054	7	Sololá	710	Panajachel	8	Panajachel	11	Noviembre	2023-11-24T00:00:00	2024-11-08T10:00:00	4	Temperatura máxima	21.4
74055	7	Sololá	710	Panajachel	8	Panajachel	11	Noviembre	2023-11-24T00:00:00	2024-11-08T10:00:00	3	Temperatura mínima	20
74056	7	Sololá	710	Panajachel	8	Panajachel	11	Noviembre	2023-11-24T00:00:00	2024-11-08T10:00:00	5	Humedad	79
74057	7	Sololá	710	Panajachel	8	Panajachel	11	Noviembre	2023-11-24T00:00:00	2024-11-08T10:00:00	6	Velocidad del viento	1.6
74058	7	Sololá	710	Panajachel	8	Panajachel	11	Noviembre	2023-11-24T00:00:00	2024-11-08T10:00:00	7	Dirección del viento	1.61
74059	7	Sololá	710	Panajachel	8	Panajachel	11	Noviembre	2023-11-24T00:00:00	2024-11-08T10:00:00	1	Precipitación	0
74060	7	Sololá	710	Panajachel	8	Panajachel	11	Noviembre	2023-11-24T00:00:00	2024-11-08T10:00:00	8	Radiación solar	599
74061	7	Sololá	710	Panajachel	8	Panajachel	11	Noviembre	2023-11-24T00:00:00	2024-11-08T11:00:00	2	Temperatura media	22.2
74062	7	Sololá	710	Panajachel	8	Panajachel	11	Noviembre	2023-11-24T00:00:00	2024-11-08T11:00:00	4	Temperatura máxima	22.4
74063	7	Sololá	710	Panajachel	8	Panajachel	11	Noviembre	2023-11-24T00:00:00	2024-11-08T11:00:00	3	Temperatura mínima	21.2
74064	7	Sololá	710	Panajachel	8	Panajachel	11	Noviembre	2023-11-24T00:00:00	2024-11-08T11:00:00	5	Humedad	75
74065	7	Sololá	710	Panajachel	8	Panajachel	11	Noviembre	2023-11-24T00:00:00	2024-11-08T11:00:00	6	Velocidad del viento	3.2
74066	7	Sololá	710	Panajachel	8	Panajachel	11	Noviembre	2023-11-24T00:00:00	2024-11-08T11:00:00	7	Dirección del viento	3.22
74067	7	Sololá	710	Panajachel	8	Panajachel	11	Noviembre	2023-11-24T00:00:00	2024-11-08T11:00:00	1	Precipitación	0
74068	7	Sololá	710	Panajachel	8	Panajachel	11	Noviembre	2023-11-24T00:00:00	2024-11-08T11:00:00	8	Radiación solar	713
74069	7	Sololá	710	Panajachel	8	Panajachel	11	Noviembre	2023-11-24T00:00:00	2024-11-08T12:00:00	2	Temperatura media	24.7
74070	7	Sololá	710	Panajachel	8	Panajachel	11	Noviembre	2023-11-24T00:00:00	2024-11-08T12:00:00	4	Temperatura máxima	24.8
74071	7	Sololá	710	Panajachel	8	Panajachel	11	Noviembre	2023-11-24T00:00:00	2024-11-08T12:00:00	3	Temperatura mínima	22
74072	7	Sololá	710	Panajachel	8	Panajachel	11	Noviembre	2023-11-24T00:00:00	2024-11-08T12:00:00	5	Humedad	64
74073	7	Sololá	710	Panajachel	8	Panajachel	11	Noviembre	2023-11-24T00:00:00	2024-11-08T12:00:00	6	Velocidad del viento	1.6
74074	7	Sololá	710	Panajachel	8	Panajachel	11	Noviembre	2023-11-24T00:00:00	2024-11-08T12:00:00	7	Dirección del viento	1.61
74075	7	Sololá	710	Panajachel	8	Panajachel	11	Noviembre	2023-11-24T00:00:00	2024-11-08T12:00:00	1	Precipitación	0
74076	7	Sololá	710	Panajachel	8	Panajachel	11	Noviembre	2023-11-24T00:00:00	2024-11-08T12:00:00	8	Radiación solar	770
74077	7	Sololá	710	Panajachel	8	Panajachel	11	Noviembre	2023-11-24T00:00:00	2024-11-08T13:00:00	2	Temperatura media	24.1
74078	7	Sololá	710	Panajachel	8	Panajachel	11	Noviembre	2023-11-24T00:00:00	2024-11-08T13:00:00	4	Temperatura máxima	25.2
74079	7	Sololá	710	Panajachel	8	Panajachel	11	Noviembre	2023-11-24T00:00:00	2024-11-08T13:00:00	3	Temperatura mínima	23.9
74080	7	Sololá	710	Panajachel	8	Panajachel	11	Noviembre	2023-11-24T00:00:00	2024-11-08T13:00:00	5	Humedad	78
74081	7	Sololá	710	Panajachel	8	Panajachel	11	Noviembre	2023-11-24T00:00:00	2024-11-08T13:00:00	6	Velocidad del viento	4.8
74082	7	Sololá	710	Panajachel	8	Panajachel	11	Noviembre	2023-11-24T00:00:00	2024-11-08T13:00:00	7	Dirección del viento	4.83
74083	7	Sololá	710	Panajachel	8	Panajachel	11	Noviembre	2023-11-24T00:00:00	2024-11-08T13:00:00	1	Precipitación	0
74084	7	Sololá	710	Panajachel	8	Panajachel	11	Noviembre	2023-11-24T00:00:00	2024-11-08T13:00:00	8	Radiación solar	758
74085	7	Sololá	710	Panajachel	8	Panajachel	11	Noviembre	2023-11-24T00:00:00	2024-11-08T14:00:00	2	Temperatura media	23.8
74086	7	Sololá	710	Panajachel	8	Panajachel	11	Noviembre	2023-11-24T00:00:00	2024-11-08T14:00:00	4	Temperatura máxima	25
74087	7	Sololá	710	Panajachel	8	Panajachel	11	Noviembre	2023-11-24T00:00:00	2024-11-08T14:00:00	3	Temperatura mínima	23.7
74088	7	Sololá	710	Panajachel	8	Panajachel	11	Noviembre	2023-11-24T00:00:00	2024-11-08T14:00:00	5	Humedad	78
74089	7	Sololá	710	Panajachel	8	Panajachel	11	Noviembre	2023-11-24T00:00:00	2024-11-08T14:00:00	6	Velocidad del viento	4.8
74090	7	Sololá	710	Panajachel	8	Panajachel	11	Noviembre	2023-11-24T00:00:00	2024-11-08T14:00:00	7	Dirección del viento	4.83
74091	7	Sololá	710	Panajachel	8	Panajachel	11	Noviembre	2023-11-24T00:00:00	2024-11-08T14:00:00	1	Precipitación	0
74092	7	Sololá	710	Panajachel	8	Panajachel	11	Noviembre	2023-11-24T00:00:00	2024-11-08T14:00:00	8	Radiación solar	384
74093	7	Sololá	710	Panajachel	8	Panajachel	11	Noviembre	2023-11-24T00:00:00	2024-11-08T15:00:00	2	Temperatura media	22.9
74094	7	Sololá	710	Panajachel	8	Panajachel	11	Noviembre	2023-11-24T00:00:00	2024-11-08T15:00:00	4	Temperatura máxima	24.2
74095	7	Sololá	710	Panajachel	8	Panajachel	11	Noviembre	2023-11-24T00:00:00	2024-11-08T15:00:00	3	Temperatura mínima	22.9
74096	7	Sololá	710	Panajachel	8	Panajachel	11	Noviembre	2023-11-24T00:00:00	2024-11-08T15:00:00	5	Humedad	81
74097	7	Sololá	710	Panajachel	8	Panajachel	11	Noviembre	2023-11-24T00:00:00	2024-11-08T15:00:00	6	Velocidad del viento	3.2
74098	7	Sololá	710	Panajachel	8	Panajachel	11	Noviembre	2023-11-24T00:00:00	2024-11-08T15:00:00	7	Dirección del viento	3.22
74099	7	Sololá	710	Panajachel	8	Panajachel	11	Noviembre	2023-11-24T00:00:00	2024-11-08T15:00:00	1	Precipitación	0
74100	7	Sololá	710	Panajachel	8	Panajachel	11	Noviembre	2023-11-24T00:00:00	2024-11-08T15:00:00	8	Radiación solar	363
74101	7	Sololá	710	Panajachel	8	Panajachel	11	Noviembre	2023-11-24T00:00:00	2024-11-08T16:00:00	2	Temperatura media	21.8
74102	7	Sololá	710	Panajachel	8	Panajachel	11	Noviembre	2023-11-24T00:00:00	2024-11-08T16:00:00	4	Temperatura máxima	23
74103	7	Sololá	710	Panajachel	8	Panajachel	11	Noviembre	2023-11-24T00:00:00	2024-11-08T16:00:00	3	Temperatura mínima	21.7
74104	7	Sololá	710	Panajachel	8	Panajachel	11	Noviembre	2023-11-24T00:00:00	2024-11-08T16:00:00	5	Humedad	86
74105	7	Sololá	710	Panajachel	8	Panajachel	11	Noviembre	2023-11-24T00:00:00	2024-11-08T16:00:00	6	Velocidad del viento	4.8
74106	7	Sololá	710	Panajachel	8	Panajachel	11	Noviembre	2023-11-24T00:00:00	2024-11-08T16:00:00	7	Dirección del viento	4.83
74107	7	Sololá	710	Panajachel	8	Panajachel	11	Noviembre	2023-11-24T00:00:00	2024-11-08T16:00:00	1	Precipitación	0
74108	7	Sololá	710	Panajachel	8	Panajachel	11	Noviembre	2023-11-24T00:00:00	2024-11-08T16:00:00	8	Radiación solar	133
74109	7	Sololá	710	Panajachel	8	Panajachel	11	Noviembre	2023-11-24T00:00:00	2024-11-08T17:00:00	2	Temperatura media	20.9
74110	7	Sololá	710	Panajachel	8	Panajachel	11	Noviembre	2023-11-24T00:00:00	2024-11-08T17:00:00	4	Temperatura máxima	21.8
74111	7	Sololá	710	Panajachel	8	Panajachel	11	Noviembre	2023-11-24T00:00:00	2024-11-08T17:00:00	3	Temperatura mínima	20.8
74112	7	Sololá	710	Panajachel	8	Panajachel	11	Noviembre	2023-11-24T00:00:00	2024-11-08T17:00:00	5	Humedad	88
74113	7	Sololá	710	Panajachel	8	Panajachel	11	Noviembre	2023-11-24T00:00:00	2024-11-08T17:00:00	6	Velocidad del viento	3.2
74114	7	Sololá	710	Panajachel	8	Panajachel	11	Noviembre	2023-11-24T00:00:00	2024-11-08T17:00:00	7	Dirección del viento	3.22
74115	7	Sololá	710	Panajachel	8	Panajachel	11	Noviembre	2023-11-24T00:00:00	2024-11-08T17:00:00	1	Precipitación	0
74116	7	Sololá	710	Panajachel	8	Panajachel	11	Noviembre	2023-11-24T00:00:00	2024-11-08T17:00:00	8	Radiación solar	31
74117	7	Sololá	710	Panajachel	8	Panajachel	11	Noviembre	2023-11-24T00:00:00	2024-11-08T18:00:00	2	Temperatura media	20.6
74118	7	Sololá	710	Panajachel	8	Panajachel	11	Noviembre	2023-11-24T00:00:00	2024-11-08T18:00:00	4	Temperatura máxima	20.9
74119	7	Sololá	710	Panajachel	8	Panajachel	11	Noviembre	2023-11-24T00:00:00	2024-11-08T18:00:00	3	Temperatura mínima	20.6
74120	7	Sololá	710	Panajachel	8	Panajachel	11	Noviembre	2023-11-24T00:00:00	2024-11-08T18:00:00	5	Humedad	89
74121	7	Sololá	710	Panajachel	8	Panajachel	11	Noviembre	2023-11-24T00:00:00	2024-11-08T18:00:00	6	Velocidad del viento	0
74122	7	Sololá	710	Panajachel	8	Panajachel	11	Noviembre	2023-11-24T00:00:00	2024-11-08T18:00:00	7	Dirección del viento	0
74123	7	Sololá	710	Panajachel	8	Panajachel	11	Noviembre	2023-11-24T00:00:00	2024-11-08T18:00:00	1	Precipitación	0
74124	7	Sololá	710	Panajachel	8	Panajachel	11	Noviembre	2023-11-24T00:00:00	2024-11-08T18:00:00	8	Radiación solar	4
74125	7	Sololá	710	Panajachel	8	Panajachel	11	Noviembre	2023-11-24T00:00:00	2024-11-08T19:00:00	2	Temperatura media	20
74126	7	Sololá	710	Panajachel	8	Panajachel	11	Noviembre	2023-11-24T00:00:00	2024-11-08T19:00:00	4	Temperatura máxima	20.6
74127	7	Sololá	710	Panajachel	8	Panajachel	11	Noviembre	2023-11-24T00:00:00	2024-11-08T19:00:00	3	Temperatura mínima	20
74128	7	Sololá	710	Panajachel	8	Panajachel	11	Noviembre	2023-11-24T00:00:00	2024-11-08T19:00:00	5	Humedad	89
74129	7	Sololá	710	Panajachel	8	Panajachel	11	Noviembre	2023-11-24T00:00:00	2024-11-08T19:00:00	6	Velocidad del viento	0
74130	7	Sololá	710	Panajachel	8	Panajachel	11	Noviembre	2023-11-24T00:00:00	2024-11-08T19:00:00	7	Dirección del viento	0
74131	7	Sololá	710	Panajachel	8	Panajachel	11	Noviembre	2023-11-24T00:00:00	2024-11-08T19:00:00	1	Precipitación	0
74132	7	Sololá	710	Panajachel	8	Panajachel	11	Noviembre	2023-11-24T00:00:00	2024-11-08T19:00:00	8	Radiación solar	0
74133	7	Sololá	710	Panajachel	8	Panajachel	11	Noviembre	2023-11-24T00:00:00	2024-11-08T20:00:00	2	Temperatura media	20.1
74134	7	Sololá	710	Panajachel	8	Panajachel	11	Noviembre	2023-11-24T00:00:00	2024-11-08T20:00:00	4	Temperatura máxima	20.2
74135	7	Sololá	710	Panajachel	8	Panajachel	11	Noviembre	2023-11-24T00:00:00	2024-11-08T20:00:00	3	Temperatura mínima	19.9
74136	7	Sololá	710	Panajachel	8	Panajachel	11	Noviembre	2023-11-24T00:00:00	2024-11-08T20:00:00	5	Humedad	89
74137	7	Sololá	710	Panajachel	8	Panajachel	11	Noviembre	2023-11-24T00:00:00	2024-11-08T20:00:00	6	Velocidad del viento	0
74138	7	Sololá	710	Panajachel	8	Panajachel	11	Noviembre	2023-11-24T00:00:00	2024-11-08T20:00:00	7	Dirección del viento	0
74139	7	Sololá	710	Panajachel	8	Panajachel	11	Noviembre	2023-11-24T00:00:00	2024-11-08T20:00:00	1	Precipitación	0
74140	7	Sololá	710	Panajachel	8	Panajachel	11	Noviembre	2023-11-24T00:00:00	2024-11-08T20:00:00	8	Radiación solar	0
74141	7	Sololá	710	Panajachel	8	Panajachel	11	Noviembre	2023-11-24T00:00:00	2024-11-08T21:00:00	2	Temperatura media	20
74142	7	Sololá	710	Panajachel	8	Panajachel	11	Noviembre	2023-11-24T00:00:00	2024-11-08T21:00:00	4	Temperatura máxima	20.1
74143	7	Sololá	710	Panajachel	8	Panajachel	11	Noviembre	2023-11-24T00:00:00	2024-11-08T21:00:00	3	Temperatura mínima	19.9
74144	7	Sololá	710	Panajachel	8	Panajachel	11	Noviembre	2023-11-24T00:00:00	2024-11-08T21:00:00	5	Humedad	89
74145	7	Sololá	710	Panajachel	8	Panajachel	11	Noviembre	2023-11-24T00:00:00	2024-11-08T21:00:00	6	Velocidad del viento	0
74146	7	Sololá	710	Panajachel	8	Panajachel	11	Noviembre	2023-11-24T00:00:00	2024-11-08T21:00:00	7	Dirección del viento	0
74147	7	Sololá	710	Panajachel	8	Panajachel	11	Noviembre	2023-11-24T00:00:00	2024-11-08T21:00:00	1	Precipitación	0
74148	7	Sololá	710	Panajachel	8	Panajachel	11	Noviembre	2023-11-24T00:00:00	2024-11-08T21:00:00	8	Radiación solar	0
74149	7	Sololá	710	Panajachel	8	Panajachel	11	Noviembre	2023-11-24T00:00:00	2024-11-08T22:00:00	2	Temperatura media	19.5
74150	7	Sololá	710	Panajachel	8	Panajachel	11	Noviembre	2023-11-24T00:00:00	2024-11-08T22:00:00	4	Temperatura máxima	20
74151	7	Sololá	710	Panajachel	8	Panajachel	11	Noviembre	2023-11-24T00:00:00	2024-11-08T22:00:00	3	Temperatura mínima	19.4
74152	7	Sololá	710	Panajachel	8	Panajachel	11	Noviembre	2023-11-24T00:00:00	2024-11-08T22:00:00	5	Humedad	87
74153	7	Sololá	710	Panajachel	8	Panajachel	11	Noviembre	2023-11-24T00:00:00	2024-11-08T22:00:00	6	Velocidad del viento	1.6
74154	7	Sololá	710	Panajachel	8	Panajachel	11	Noviembre	2023-11-24T00:00:00	2024-11-08T22:00:00	7	Dirección del viento	1.61
74155	7	Sololá	710	Panajachel	8	Panajachel	11	Noviembre	2023-11-24T00:00:00	2024-11-08T22:00:00	1	Precipitación	0
74156	7	Sololá	710	Panajachel	8	Panajachel	11	Noviembre	2023-11-24T00:00:00	2024-11-08T22:00:00	8	Radiación solar	0
74157	7	Sololá	710	Panajachel	8	Panajachel	11	Noviembre	2023-11-24T00:00:00	2024-11-08T23:00:00	2	Temperatura media	19.6
74158	7	Sololá	710	Panajachel	8	Panajachel	11	Noviembre	2023-11-24T00:00:00	2024-11-08T23:00:00	4	Temperatura máxima	19.8
74159	7	Sololá	710	Panajachel	8	Panajachel	11	Noviembre	2023-11-24T00:00:00	2024-11-08T23:00:00	3	Temperatura mínima	19.4
74160	7	Sololá	710	Panajachel	8	Panajachel	11	Noviembre	2023-11-24T00:00:00	2024-11-08T23:00:00	5	Humedad	87
74161	7	Sololá	710	Panajachel	8	Panajachel	11	Noviembre	2023-11-24T00:00:00	2024-11-08T23:00:00	6	Velocidad del viento	1.6
74162	7	Sololá	710	Panajachel	8	Panajachel	11	Noviembre	2023-11-24T00:00:00	2024-11-08T23:00:00	7	Dirección del viento	1.61
74163	7	Sololá	710	Panajachel	8	Panajachel	11	Noviembre	2023-11-24T00:00:00	2024-11-08T23:00:00	1	Precipitación	0
74164	7	Sololá	710	Panajachel	8	Panajachel	11	Noviembre	2023-11-24T00:00:00	2024-11-08T23:00:00	8	Radiación solar	0
74165	7	Sololá	710	Panajachel	8	Panajachel	11	Noviembre	2023-11-25T00:00:00	2024-11-08T00:00:00	2	Temperatura media	18.7
74166	7	Sololá	710	Panajachel	8	Panajachel	11	Noviembre	2023-11-25T00:00:00	2024-11-08T00:00:00	4	Temperatura máxima	19.7
74167	7	Sololá	710	Panajachel	8	Panajachel	11	Noviembre	2023-11-25T00:00:00	2024-11-08T00:00:00	3	Temperatura mínima	18.7
74168	7	Sololá	710	Panajachel	8	Panajachel	11	Noviembre	2023-11-25T00:00:00	2024-11-08T00:00:00	5	Humedad	88
74169	7	Sololá	710	Panajachel	8	Panajachel	11	Noviembre	2023-11-25T00:00:00	2024-11-08T00:00:00	6	Velocidad del viento	1.6
74170	7	Sololá	710	Panajachel	8	Panajachel	11	Noviembre	2023-11-25T00:00:00	2024-11-08T00:00:00	7	Dirección del viento	1.61
74171	7	Sololá	710	Panajachel	8	Panajachel	11	Noviembre	2023-11-25T00:00:00	2024-11-08T00:00:00	1	Precipitación	0
74172	7	Sololá	710	Panajachel	8	Panajachel	11	Noviembre	2023-11-25T00:00:00	2024-11-08T00:00:00	8	Radiación solar	0
74173	7	Sololá	710	Panajachel	8	Panajachel	11	Noviembre	2023-11-25T00:00:00	2024-11-08T01:00:00	2	Temperatura media	18.1
74174	7	Sololá	710	Panajachel	8	Panajachel	11	Noviembre	2023-11-25T00:00:00	2024-11-08T01:00:00	4	Temperatura máxima	18.7
74175	7	Sololá	710	Panajachel	8	Panajachel	11	Noviembre	2023-11-25T00:00:00	2024-11-08T01:00:00	3	Temperatura mínima	18.1
74176	7	Sololá	710	Panajachel	8	Panajachel	11	Noviembre	2023-11-25T00:00:00	2024-11-08T01:00:00	5	Humedad	87
74177	7	Sololá	710	Panajachel	8	Panajachel	11	Noviembre	2023-11-25T00:00:00	2024-11-08T01:00:00	6	Velocidad del viento	1.6
74178	7	Sololá	710	Panajachel	8	Panajachel	11	Noviembre	2023-11-25T00:00:00	2024-11-08T01:00:00	7	Dirección del viento	1.61
74179	7	Sololá	710	Panajachel	8	Panajachel	11	Noviembre	2023-11-25T00:00:00	2024-11-08T01:00:00	1	Precipitación	0
74180	7	Sololá	710	Panajachel	8	Panajachel	11	Noviembre	2023-11-25T00:00:00	2024-11-08T01:00:00	8	Radiación solar	0
74181	7	Sololá	710	Panajachel	8	Panajachel	11	Noviembre	2023-11-25T00:00:00	2024-11-08T02:00:00	2	Temperatura media	17.6
74182	7	Sololá	710	Panajachel	8	Panajachel	11	Noviembre	2023-11-25T00:00:00	2024-11-08T02:00:00	4	Temperatura máxima	18.1
74183	7	Sololá	710	Panajachel	8	Panajachel	11	Noviembre	2023-11-25T00:00:00	2024-11-08T02:00:00	3	Temperatura mínima	17.5
74184	7	Sololá	710	Panajachel	8	Panajachel	11	Noviembre	2023-11-25T00:00:00	2024-11-08T02:00:00	5	Humedad	87
74185	7	Sololá	710	Panajachel	8	Panajachel	11	Noviembre	2023-11-25T00:00:00	2024-11-08T02:00:00	6	Velocidad del viento	3.2
74186	7	Sololá	710	Panajachel	8	Panajachel	11	Noviembre	2023-11-25T00:00:00	2024-11-08T02:00:00	7	Dirección del viento	3.22
74187	7	Sololá	710	Panajachel	8	Panajachel	11	Noviembre	2023-11-25T00:00:00	2024-11-08T02:00:00	1	Precipitación	0
74188	7	Sololá	710	Panajachel	8	Panajachel	11	Noviembre	2023-11-25T00:00:00	2024-11-08T02:00:00	8	Radiación solar	0
74189	7	Sololá	710	Panajachel	8	Panajachel	11	Noviembre	2023-11-25T00:00:00	2024-11-08T03:00:00	2	Temperatura media	18.6
74190	7	Sololá	710	Panajachel	8	Panajachel	11	Noviembre	2023-11-25T00:00:00	2024-11-08T03:00:00	4	Temperatura máxima	18.6
74191	7	Sololá	710	Panajachel	8	Panajachel	11	Noviembre	2023-11-25T00:00:00	2024-11-08T03:00:00	3	Temperatura mínima	17.5
74192	7	Sololá	710	Panajachel	8	Panajachel	11	Noviembre	2023-11-25T00:00:00	2024-11-08T03:00:00	5	Humedad	83
74193	7	Sololá	710	Panajachel	8	Panajachel	11	Noviembre	2023-11-25T00:00:00	2024-11-08T03:00:00	6	Velocidad del viento	3.2
74194	7	Sololá	710	Panajachel	8	Panajachel	11	Noviembre	2023-11-25T00:00:00	2024-11-08T03:00:00	7	Dirección del viento	3.22
74195	7	Sololá	710	Panajachel	8	Panajachel	11	Noviembre	2023-11-25T00:00:00	2024-11-08T03:00:00	1	Precipitación	0
74196	7	Sololá	710	Panajachel	8	Panajachel	11	Noviembre	2023-11-25T00:00:00	2024-11-08T03:00:00	8	Radiación solar	0
74197	7	Sololá	710	Panajachel	8	Panajachel	11	Noviembre	2023-11-25T00:00:00	2024-11-08T04:00:00	2	Temperatura media	18.4
74198	7	Sololá	710	Panajachel	8	Panajachel	11	Noviembre	2023-11-25T00:00:00	2024-11-08T04:00:00	4	Temperatura máxima	18.7
74199	7	Sololá	710	Panajachel	8	Panajachel	11	Noviembre	2023-11-25T00:00:00	2024-11-08T04:00:00	3	Temperatura mínima	18.4
74200	7	Sololá	710	Panajachel	8	Panajachel	11	Noviembre	2023-11-25T00:00:00	2024-11-08T04:00:00	5	Humedad	84
74201	7	Sololá	710	Panajachel	8	Panajachel	11	Noviembre	2023-11-25T00:00:00	2024-11-08T04:00:00	6	Velocidad del viento	1.6
74202	7	Sololá	710	Panajachel	8	Panajachel	11	Noviembre	2023-11-25T00:00:00	2024-11-08T04:00:00	7	Dirección del viento	1.61
74203	7	Sololá	710	Panajachel	8	Panajachel	11	Noviembre	2023-11-25T00:00:00	2024-11-08T04:00:00	1	Precipitación	0
74204	7	Sololá	710	Panajachel	8	Panajachel	11	Noviembre	2023-11-25T00:00:00	2024-11-08T04:00:00	8	Radiación solar	0
74205	7	Sololá	710	Panajachel	8	Panajachel	11	Noviembre	2023-11-25T00:00:00	2024-11-08T05:00:00	2	Temperatura media	17.5
74206	7	Sololá	710	Panajachel	8	Panajachel	11	Noviembre	2023-11-25T00:00:00	2024-11-08T05:00:00	4	Temperatura máxima	18.4
74207	7	Sololá	710	Panajachel	8	Panajachel	11	Noviembre	2023-11-25T00:00:00	2024-11-08T05:00:00	3	Temperatura mínima	17.5
74208	7	Sololá	710	Panajachel	8	Panajachel	11	Noviembre	2023-11-25T00:00:00	2024-11-08T05:00:00	5	Humedad	87
74209	7	Sololá	710	Panajachel	8	Panajachel	11	Noviembre	2023-11-25T00:00:00	2024-11-08T05:00:00	6	Velocidad del viento	1.6
74210	7	Sololá	710	Panajachel	8	Panajachel	11	Noviembre	2023-11-25T00:00:00	2024-11-08T05:00:00	7	Dirección del viento	1.61
74211	7	Sololá	710	Panajachel	8	Panajachel	11	Noviembre	2023-11-25T00:00:00	2024-11-08T05:00:00	1	Precipitación	0
74212	7	Sololá	710	Panajachel	8	Panajachel	11	Noviembre	2023-11-25T00:00:00	2024-11-08T05:00:00	8	Radiación solar	0
74213	7	Sololá	710	Panajachel	8	Panajachel	11	Noviembre	2023-11-25T00:00:00	2024-11-08T06:00:00	2	Temperatura media	16.9
74214	7	Sololá	710	Panajachel	8	Panajachel	11	Noviembre	2023-11-25T00:00:00	2024-11-08T06:00:00	4	Temperatura máxima	17.5
74215	7	Sololá	710	Panajachel	8	Panajachel	11	Noviembre	2023-11-25T00:00:00	2024-11-08T06:00:00	3	Temperatura mínima	16.8
74216	7	Sololá	710	Panajachel	8	Panajachel	11	Noviembre	2023-11-25T00:00:00	2024-11-08T06:00:00	5	Humedad	88
74217	7	Sololá	710	Panajachel	8	Panajachel	11	Noviembre	2023-11-25T00:00:00	2024-11-08T06:00:00	6	Velocidad del viento	1.6
74218	7	Sololá	710	Panajachel	8	Panajachel	11	Noviembre	2023-11-25T00:00:00	2024-11-08T06:00:00	7	Dirección del viento	1.61
74219	7	Sololá	710	Panajachel	8	Panajachel	11	Noviembre	2023-11-25T00:00:00	2024-11-08T06:00:00	1	Precipitación	0
74220	7	Sololá	710	Panajachel	8	Panajachel	11	Noviembre	2023-11-25T00:00:00	2024-11-08T06:00:00	8	Radiación solar	0
74221	7	Sololá	710	Panajachel	8	Panajachel	11	Noviembre	2023-11-25T00:00:00	2024-11-08T07:00:00	2	Temperatura media	17.7
74222	7	Sololá	710	Panajachel	8	Panajachel	11	Noviembre	2023-11-25T00:00:00	2024-11-08T07:00:00	4	Temperatura máxima	17.7
74223	7	Sololá	710	Panajachel	8	Panajachel	11	Noviembre	2023-11-25T00:00:00	2024-11-08T07:00:00	3	Temperatura mínima	16.8
74224	7	Sololá	710	Panajachel	8	Panajachel	11	Noviembre	2023-11-25T00:00:00	2024-11-08T07:00:00	5	Humedad	85
74225	7	Sololá	710	Panajachel	8	Panajachel	11	Noviembre	2023-11-25T00:00:00	2024-11-08T07:00:00	6	Velocidad del viento	3.2
74226	7	Sololá	710	Panajachel	8	Panajachel	11	Noviembre	2023-11-25T00:00:00	2024-11-08T07:00:00	7	Dirección del viento	3.22
74227	7	Sololá	710	Panajachel	8	Panajachel	11	Noviembre	2023-11-25T00:00:00	2024-11-08T07:00:00	1	Precipitación	0
74228	7	Sololá	710	Panajachel	8	Panajachel	11	Noviembre	2023-11-25T00:00:00	2024-11-08T07:00:00	8	Radiación solar	18
74229	7	Sololá	710	Panajachel	8	Panajachel	11	Noviembre	2023-11-25T00:00:00	2024-11-08T08:00:00	2	Temperatura media	21.9
74230	7	Sololá	710	Panajachel	8	Panajachel	11	Noviembre	2023-11-25T00:00:00	2024-11-08T08:00:00	4	Temperatura máxima	21.9
74231	7	Sololá	710	Panajachel	8	Panajachel	11	Noviembre	2023-11-25T00:00:00	2024-11-08T08:00:00	3	Temperatura mínima	17.7
74232	7	Sololá	710	Panajachel	8	Panajachel	11	Noviembre	2023-11-25T00:00:00	2024-11-08T08:00:00	5	Humedad	73
74233	7	Sololá	710	Panajachel	8	Panajachel	11	Noviembre	2023-11-25T00:00:00	2024-11-08T08:00:00	6	Velocidad del viento	3.2
74234	7	Sololá	710	Panajachel	8	Panajachel	11	Noviembre	2023-11-25T00:00:00	2024-11-08T08:00:00	7	Dirección del viento	3.22
74235	7	Sololá	710	Panajachel	8	Panajachel	11	Noviembre	2023-11-25T00:00:00	2024-11-08T08:00:00	1	Precipitación	0
74236	7	Sololá	710	Panajachel	8	Panajachel	11	Noviembre	2023-11-25T00:00:00	2024-11-08T08:00:00	8	Radiación solar	204
74237	7	Sololá	710	Panajachel	8	Panajachel	11	Noviembre	2023-11-25T00:00:00	2024-11-08T09:00:00	2	Temperatura media	21.8
74238	7	Sololá	710	Panajachel	8	Panajachel	11	Noviembre	2023-11-25T00:00:00	2024-11-08T09:00:00	4	Temperatura máxima	22.4
74239	7	Sololá	710	Panajachel	8	Panajachel	11	Noviembre	2023-11-25T00:00:00	2024-11-08T09:00:00	3	Temperatura mínima	21.6
74240	7	Sololá	710	Panajachel	8	Panajachel	11	Noviembre	2023-11-25T00:00:00	2024-11-08T09:00:00	5	Humedad	75
74241	7	Sololá	710	Panajachel	8	Panajachel	11	Noviembre	2023-11-25T00:00:00	2024-11-08T09:00:00	6	Velocidad del viento	3.2
74242	7	Sololá	710	Panajachel	8	Panajachel	11	Noviembre	2023-11-25T00:00:00	2024-11-08T09:00:00	7	Dirección del viento	3.22
74243	7	Sololá	710	Panajachel	8	Panajachel	11	Noviembre	2023-11-25T00:00:00	2024-11-08T09:00:00	1	Precipitación	0
74244	7	Sololá	710	Panajachel	8	Panajachel	11	Noviembre	2023-11-25T00:00:00	2024-11-08T09:00:00	8	Radiación solar	423
74245	7	Sololá	710	Panajachel	8	Panajachel	11	Noviembre	2023-11-25T00:00:00	2024-11-08T10:00:00	2	Temperatura media	22.1
74246	7	Sololá	710	Panajachel	8	Panajachel	11	Noviembre	2023-11-25T00:00:00	2024-11-08T10:00:00	4	Temperatura máxima	22.2
74247	7	Sololá	710	Panajachel	8	Panajachel	11	Noviembre	2023-11-25T00:00:00	2024-11-08T10:00:00	3	Temperatura mínima	21.6
74248	7	Sololá	710	Panajachel	8	Panajachel	11	Noviembre	2023-11-25T00:00:00	2024-11-08T10:00:00	5	Humedad	78
74249	7	Sololá	710	Panajachel	8	Panajachel	11	Noviembre	2023-11-25T00:00:00	2024-11-08T10:00:00	6	Velocidad del viento	4.8
74250	7	Sololá	710	Panajachel	8	Panajachel	11	Noviembre	2023-11-25T00:00:00	2024-11-08T10:00:00	7	Dirección del viento	4.83
74251	7	Sololá	710	Panajachel	8	Panajachel	11	Noviembre	2023-11-25T00:00:00	2024-11-08T10:00:00	1	Precipitación	0
74252	7	Sololá	710	Panajachel	8	Panajachel	11	Noviembre	2023-11-25T00:00:00	2024-11-08T10:00:00	8	Radiación solar	587
74253	7	Sololá	710	Panajachel	8	Panajachel	11	Noviembre	2023-11-25T00:00:00	2024-11-08T11:00:00	2	Temperatura media	23.1
74254	7	Sololá	710	Panajachel	8	Panajachel	11	Noviembre	2023-11-25T00:00:00	2024-11-08T11:00:00	4	Temperatura máxima	23.4
74255	7	Sololá	710	Panajachel	8	Panajachel	11	Noviembre	2023-11-25T00:00:00	2024-11-08T11:00:00	3	Temperatura mínima	22.1
74256	7	Sololá	710	Panajachel	8	Panajachel	11	Noviembre	2023-11-25T00:00:00	2024-11-08T11:00:00	5	Humedad	73
74257	7	Sololá	710	Panajachel	8	Panajachel	11	Noviembre	2023-11-25T00:00:00	2024-11-08T11:00:00	6	Velocidad del viento	4.8
74258	7	Sololá	710	Panajachel	8	Panajachel	11	Noviembre	2023-11-25T00:00:00	2024-11-08T11:00:00	7	Dirección del viento	4.83
74259	7	Sololá	710	Panajachel	8	Panajachel	11	Noviembre	2023-11-25T00:00:00	2024-11-08T11:00:00	1	Precipitación	0
74260	7	Sololá	710	Panajachel	8	Panajachel	11	Noviembre	2023-11-25T00:00:00	2024-11-08T11:00:00	8	Radiación solar	678
74261	7	Sololá	710	Panajachel	8	Panajachel	11	Noviembre	2023-11-25T00:00:00	2024-11-08T12:00:00	2	Temperatura media	23.2
74262	7	Sololá	710	Panajachel	8	Panajachel	11	Noviembre	2023-11-25T00:00:00	2024-11-08T12:00:00	4	Temperatura máxima	24.3
74263	7	Sololá	710	Panajachel	8	Panajachel	11	Noviembre	2023-11-25T00:00:00	2024-11-08T12:00:00	3	Temperatura mínima	23.1
74264	7	Sololá	710	Panajachel	8	Panajachel	11	Noviembre	2023-11-25T00:00:00	2024-11-08T12:00:00	5	Humedad	74
74265	7	Sololá	710	Panajachel	8	Panajachel	11	Noviembre	2023-11-25T00:00:00	2024-11-08T12:00:00	6	Velocidad del viento	4.8
74266	7	Sololá	710	Panajachel	8	Panajachel	11	Noviembre	2023-11-25T00:00:00	2024-11-08T12:00:00	7	Dirección del viento	4.83
74267	7	Sololá	710	Panajachel	8	Panajachel	11	Noviembre	2023-11-25T00:00:00	2024-11-08T12:00:00	1	Precipitación	0
74268	7	Sololá	710	Panajachel	8	Panajachel	11	Noviembre	2023-11-25T00:00:00	2024-11-08T12:00:00	8	Radiación solar	568
74269	7	Sololá	710	Panajachel	8	Panajachel	11	Noviembre	2023-11-25T00:00:00	2024-11-08T13:00:00	2	Temperatura media	24.5
74270	7	Sololá	710	Panajachel	8	Panajachel	11	Noviembre	2023-11-25T00:00:00	2024-11-08T13:00:00	4	Temperatura máxima	24.5
74271	7	Sololá	710	Panajachel	8	Panajachel	11	Noviembre	2023-11-25T00:00:00	2024-11-08T13:00:00	3	Temperatura mínima	23.1
74272	7	Sololá	710	Panajachel	8	Panajachel	11	Noviembre	2023-11-25T00:00:00	2024-11-08T13:00:00	5	Humedad	77
74273	7	Sololá	710	Panajachel	8	Panajachel	11	Noviembre	2023-11-25T00:00:00	2024-11-08T13:00:00	6	Velocidad del viento	3.2
74274	7	Sololá	710	Panajachel	8	Panajachel	11	Noviembre	2023-11-25T00:00:00	2024-11-08T13:00:00	7	Dirección del viento	3.22
74275	7	Sololá	710	Panajachel	8	Panajachel	11	Noviembre	2023-11-25T00:00:00	2024-11-08T13:00:00	1	Precipitación	0
74276	7	Sololá	710	Panajachel	8	Panajachel	11	Noviembre	2023-11-25T00:00:00	2024-11-08T13:00:00	8	Radiación solar	336
74277	7	Sololá	710	Panajachel	8	Panajachel	11	Noviembre	2023-11-25T00:00:00	2024-11-08T14:00:00	2	Temperatura media	23.8
74278	7	Sololá	710	Panajachel	8	Panajachel	11	Noviembre	2023-11-25T00:00:00	2024-11-08T14:00:00	4	Temperatura máxima	24.8
74279	7	Sololá	710	Panajachel	8	Panajachel	11	Noviembre	2023-11-25T00:00:00	2024-11-08T14:00:00	3	Temperatura mínima	23.5
74280	7	Sololá	710	Panajachel	8	Panajachel	11	Noviembre	2023-11-25T00:00:00	2024-11-08T14:00:00	5	Humedad	79
74281	7	Sololá	710	Panajachel	8	Panajachel	11	Noviembre	2023-11-25T00:00:00	2024-11-08T14:00:00	6	Velocidad del viento	4.8
74282	7	Sololá	710	Panajachel	8	Panajachel	11	Noviembre	2023-11-25T00:00:00	2024-11-08T14:00:00	7	Dirección del viento	4.83
74283	7	Sololá	710	Panajachel	8	Panajachel	11	Noviembre	2023-11-25T00:00:00	2024-11-08T14:00:00	1	Precipitación	0
74284	7	Sololá	710	Panajachel	8	Panajachel	11	Noviembre	2023-11-25T00:00:00	2024-11-08T14:00:00	8	Radiación solar	721
74285	7	Sololá	710	Panajachel	8	Panajachel	11	Noviembre	2023-11-25T00:00:00	2024-11-08T15:00:00	2	Temperatura media	22.7
74286	7	Sololá	710	Panajachel	8	Panajachel	11	Noviembre	2023-11-25T00:00:00	2024-11-08T15:00:00	4	Temperatura máxima	23.8
74287	7	Sololá	710	Panajachel	8	Panajachel	11	Noviembre	2023-11-25T00:00:00	2024-11-08T15:00:00	3	Temperatura mínima	22.7
74288	7	Sololá	710	Panajachel	8	Panajachel	11	Noviembre	2023-11-25T00:00:00	2024-11-08T15:00:00	5	Humedad	85
74289	7	Sololá	710	Panajachel	8	Panajachel	11	Noviembre	2023-11-25T00:00:00	2024-11-08T15:00:00	6	Velocidad del viento	4.8
74290	7	Sololá	710	Panajachel	8	Panajachel	11	Noviembre	2023-11-25T00:00:00	2024-11-08T15:00:00	7	Dirección del viento	4.83
74291	7	Sololá	710	Panajachel	8	Panajachel	11	Noviembre	2023-11-25T00:00:00	2024-11-08T15:00:00	1	Precipitación	0
74292	7	Sololá	710	Panajachel	8	Panajachel	11	Noviembre	2023-11-25T00:00:00	2024-11-08T15:00:00	8	Radiación solar	307
74293	7	Sololá	710	Panajachel	8	Panajachel	11	Noviembre	2023-11-25T00:00:00	2024-11-08T16:00:00	2	Temperatura media	24.1
74294	7	Sololá	710	Panajachel	8	Panajachel	11	Noviembre	2023-11-25T00:00:00	2024-11-08T16:00:00	4	Temperatura máxima	24.1
74295	7	Sololá	710	Panajachel	8	Panajachel	11	Noviembre	2023-11-25T00:00:00	2024-11-08T16:00:00	3	Temperatura mínima	22.6
74296	7	Sololá	710	Panajachel	8	Panajachel	11	Noviembre	2023-11-25T00:00:00	2024-11-08T16:00:00	5	Humedad	79
74297	7	Sololá	710	Panajachel	8	Panajachel	11	Noviembre	2023-11-25T00:00:00	2024-11-08T16:00:00	6	Velocidad del viento	3.2
74298	7	Sololá	710	Panajachel	8	Panajachel	11	Noviembre	2023-11-25T00:00:00	2024-11-08T16:00:00	7	Dirección del viento	3.22
74299	7	Sololá	710	Panajachel	8	Panajachel	11	Noviembre	2023-11-25T00:00:00	2024-11-08T16:00:00	1	Precipitación	0
74300	7	Sololá	710	Panajachel	8	Panajachel	11	Noviembre	2023-11-25T00:00:00	2024-11-08T16:00:00	8	Radiación solar	266
74301	7	Sololá	710	Panajachel	8	Panajachel	11	Noviembre	2023-11-25T00:00:00	2024-11-08T17:00:00	2	Temperatura media	21.3
74302	7	Sololá	710	Panajachel	8	Panajachel	11	Noviembre	2023-11-25T00:00:00	2024-11-08T17:00:00	4	Temperatura máxima	24.1
74303	7	Sololá	710	Panajachel	8	Panajachel	11	Noviembre	2023-11-25T00:00:00	2024-11-08T17:00:00	3	Temperatura mínima	21.3
74304	7	Sololá	710	Panajachel	8	Panajachel	11	Noviembre	2023-11-25T00:00:00	2024-11-08T17:00:00	5	Humedad	89
74305	7	Sololá	710	Panajachel	8	Panajachel	11	Noviembre	2023-11-25T00:00:00	2024-11-08T17:00:00	6	Velocidad del viento	3.2
74306	7	Sololá	710	Panajachel	8	Panajachel	11	Noviembre	2023-11-25T00:00:00	2024-11-08T17:00:00	7	Dirección del viento	3.22
74307	7	Sololá	710	Panajachel	8	Panajachel	11	Noviembre	2023-11-25T00:00:00	2024-11-08T17:00:00	1	Precipitación	0
74308	7	Sololá	710	Panajachel	8	Panajachel	11	Noviembre	2023-11-25T00:00:00	2024-11-08T17:00:00	8	Radiación solar	83
74309	7	Sololá	710	Panajachel	8	Panajachel	11	Noviembre	2023-11-25T00:00:00	2024-11-08T18:00:00	2	Temperatura media	20.9
74310	7	Sololá	710	Panajachel	8	Panajachel	11	Noviembre	2023-11-25T00:00:00	2024-11-08T18:00:00	4	Temperatura máxima	21.3
74311	7	Sololá	710	Panajachel	8	Panajachel	11	Noviembre	2023-11-25T00:00:00	2024-11-08T18:00:00	3	Temperatura mínima	20.9
74312	7	Sololá	710	Panajachel	8	Panajachel	11	Noviembre	2023-11-25T00:00:00	2024-11-08T18:00:00	5	Humedad	88
74313	7	Sololá	710	Panajachel	8	Panajachel	11	Noviembre	2023-11-25T00:00:00	2024-11-08T18:00:00	6	Velocidad del viento	1.6
74314	7	Sololá	710	Panajachel	8	Panajachel	11	Noviembre	2023-11-25T00:00:00	2024-11-08T18:00:00	7	Dirección del viento	1.61
74315	7	Sololá	710	Panajachel	8	Panajachel	11	Noviembre	2023-11-25T00:00:00	2024-11-08T18:00:00	1	Precipitación	0
74316	7	Sololá	710	Panajachel	8	Panajachel	11	Noviembre	2023-11-25T00:00:00	2024-11-08T18:00:00	8	Radiación solar	7
74317	7	Sololá	710	Panajachel	8	Panajachel	11	Noviembre	2023-11-25T00:00:00	2024-11-08T19:00:00	2	Temperatura media	20.1
74318	7	Sololá	710	Panajachel	8	Panajachel	11	Noviembre	2023-11-25T00:00:00	2024-11-08T19:00:00	4	Temperatura máxima	20.9
74319	7	Sololá	710	Panajachel	8	Panajachel	11	Noviembre	2023-11-25T00:00:00	2024-11-08T19:00:00	3	Temperatura mínima	20.1
74320	7	Sololá	710	Panajachel	8	Panajachel	11	Noviembre	2023-11-25T00:00:00	2024-11-08T19:00:00	5	Humedad	90
74321	7	Sololá	710	Panajachel	8	Panajachel	11	Noviembre	2023-11-25T00:00:00	2024-11-08T19:00:00	6	Velocidad del viento	0
74322	7	Sololá	710	Panajachel	8	Panajachel	11	Noviembre	2023-11-25T00:00:00	2024-11-08T19:00:00	7	Dirección del viento	0
74323	7	Sololá	710	Panajachel	8	Panajachel	11	Noviembre	2023-11-25T00:00:00	2024-11-08T19:00:00	1	Precipitación	0
74324	7	Sololá	710	Panajachel	8	Panajachel	11	Noviembre	2023-11-25T00:00:00	2024-11-08T19:00:00	8	Radiación solar	0
74325	7	Sololá	710	Panajachel	8	Panajachel	11	Noviembre	2023-11-25T00:00:00	2024-11-08T20:00:00	2	Temperatura media	18.7
74326	7	Sololá	710	Panajachel	8	Panajachel	11	Noviembre	2023-11-25T00:00:00	2024-11-08T20:00:00	4	Temperatura máxima	20.1
74327	7	Sololá	710	Panajachel	8	Panajachel	11	Noviembre	2023-11-25T00:00:00	2024-11-08T20:00:00	3	Temperatura mínima	18.7
74328	7	Sololá	710	Panajachel	8	Panajachel	11	Noviembre	2023-11-25T00:00:00	2024-11-08T20:00:00	5	Humedad	85
74329	7	Sololá	710	Panajachel	8	Panajachel	11	Noviembre	2023-11-25T00:00:00	2024-11-08T20:00:00	6	Velocidad del viento	3.2
74330	7	Sololá	710	Panajachel	8	Panajachel	11	Noviembre	2023-11-25T00:00:00	2024-11-08T20:00:00	7	Dirección del viento	3.22
74331	7	Sololá	710	Panajachel	8	Panajachel	11	Noviembre	2023-11-25T00:00:00	2024-11-08T20:00:00	1	Precipitación	0
74332	7	Sololá	710	Panajachel	8	Panajachel	11	Noviembre	2023-11-25T00:00:00	2024-11-08T20:00:00	8	Radiación solar	0
74333	7	Sololá	710	Panajachel	8	Panajachel	11	Noviembre	2023-11-25T00:00:00	2024-11-08T21:00:00	2	Temperatura media	18.2
74334	7	Sololá	710	Panajachel	8	Panajachel	11	Noviembre	2023-11-25T00:00:00	2024-11-08T21:00:00	4	Temperatura máxima	18.7
74335	7	Sololá	710	Panajachel	8	Panajachel	11	Noviembre	2023-11-25T00:00:00	2024-11-08T21:00:00	3	Temperatura mínima	18.2
74336	7	Sololá	710	Panajachel	8	Panajachel	11	Noviembre	2023-11-25T00:00:00	2024-11-08T21:00:00	5	Humedad	84
74337	7	Sololá	710	Panajachel	8	Panajachel	11	Noviembre	2023-11-25T00:00:00	2024-11-08T21:00:00	6	Velocidad del viento	3.2
74338	7	Sololá	710	Panajachel	8	Panajachel	11	Noviembre	2023-11-25T00:00:00	2024-11-08T21:00:00	7	Dirección del viento	3.22
74339	7	Sololá	710	Panajachel	8	Panajachel	11	Noviembre	2023-11-25T00:00:00	2024-11-08T21:00:00	1	Precipitación	0
74340	7	Sololá	710	Panajachel	8	Panajachel	11	Noviembre	2023-11-25T00:00:00	2024-11-08T21:00:00	8	Radiación solar	0
74341	7	Sololá	710	Panajachel	8	Panajachel	11	Noviembre	2023-11-25T00:00:00	2024-11-08T22:00:00	2	Temperatura media	18
74342	7	Sololá	710	Panajachel	8	Panajachel	11	Noviembre	2023-11-25T00:00:00	2024-11-08T22:00:00	4	Temperatura máxima	18.6
74343	7	Sololá	710	Panajachel	8	Panajachel	11	Noviembre	2023-11-25T00:00:00	2024-11-08T22:00:00	3	Temperatura mínima	17.9
74344	7	Sololá	710	Panajachel	8	Panajachel	11	Noviembre	2023-11-25T00:00:00	2024-11-08T22:00:00	5	Humedad	83
74345	7	Sololá	710	Panajachel	8	Panajachel	11	Noviembre	2023-11-25T00:00:00	2024-11-08T22:00:00	6	Velocidad del viento	3.2
74346	7	Sololá	710	Panajachel	8	Panajachel	11	Noviembre	2023-11-25T00:00:00	2024-11-08T22:00:00	7	Dirección del viento	3.22
74347	7	Sololá	710	Panajachel	8	Panajachel	11	Noviembre	2023-11-25T00:00:00	2024-11-08T22:00:00	1	Precipitación	0
74348	7	Sololá	710	Panajachel	8	Panajachel	11	Noviembre	2023-11-25T00:00:00	2024-11-08T22:00:00	8	Radiación solar	0
74349	7	Sololá	710	Panajachel	8	Panajachel	11	Noviembre	2023-11-25T00:00:00	2024-11-08T23:00:00	2	Temperatura media	17.4
74350	7	Sololá	710	Panajachel	8	Panajachel	11	Noviembre	2023-11-25T00:00:00	2024-11-08T23:00:00	4	Temperatura máxima	18
74351	7	Sololá	710	Panajachel	8	Panajachel	11	Noviembre	2023-11-25T00:00:00	2024-11-08T23:00:00	3	Temperatura mínima	17.1
74352	7	Sololá	710	Panajachel	8	Panajachel	11	Noviembre	2023-11-25T00:00:00	2024-11-08T23:00:00	5	Humedad	84
74353	7	Sololá	710	Panajachel	8	Panajachel	11	Noviembre	2023-11-25T00:00:00	2024-11-08T23:00:00	6	Velocidad del viento	4.8
74354	7	Sololá	710	Panajachel	8	Panajachel	11	Noviembre	2023-11-25T00:00:00	2024-11-08T23:00:00	7	Dirección del viento	4.83
74355	7	Sololá	710	Panajachel	8	Panajachel	11	Noviembre	2023-11-25T00:00:00	2024-11-08T23:00:00	1	Precipitación	0
74356	7	Sololá	710	Panajachel	8	Panajachel	11	Noviembre	2023-11-25T00:00:00	2024-11-08T23:00:00	8	Radiación solar	0
74357	7	Sololá	710	Panajachel	8	Panajachel	11	Noviembre	2023-11-26T00:00:00	2024-11-08T00:00:00	2	Temperatura media	16.7
74358	7	Sololá	710	Panajachel	8	Panajachel	11	Noviembre	2023-11-26T00:00:00	2024-11-08T00:00:00	4	Temperatura máxima	17.5
74359	7	Sololá	710	Panajachel	8	Panajachel	11	Noviembre	2023-11-26T00:00:00	2024-11-08T00:00:00	3	Temperatura mínima	16.7
74360	7	Sololá	710	Panajachel	8	Panajachel	11	Noviembre	2023-11-26T00:00:00	2024-11-08T00:00:00	5	Humedad	86
74361	7	Sololá	710	Panajachel	8	Panajachel	11	Noviembre	2023-11-26T00:00:00	2024-11-08T00:00:00	6	Velocidad del viento	4.8
74362	7	Sololá	710	Panajachel	8	Panajachel	11	Noviembre	2023-11-26T00:00:00	2024-11-08T00:00:00	7	Dirección del viento	4.83
74363	7	Sololá	710	Panajachel	8	Panajachel	11	Noviembre	2023-11-26T00:00:00	2024-11-08T00:00:00	1	Precipitación	0
74364	7	Sololá	710	Panajachel	8	Panajachel	11	Noviembre	2023-11-26T00:00:00	2024-11-08T00:00:00	8	Radiación solar	0
74365	7	Sololá	710	Panajachel	8	Panajachel	11	Noviembre	2023-11-26T00:00:00	2024-11-08T01:00:00	2	Temperatura media	16.5
74366	7	Sololá	710	Panajachel	8	Panajachel	11	Noviembre	2023-11-26T00:00:00	2024-11-08T01:00:00	4	Temperatura máxima	16.7
74367	7	Sololá	710	Panajachel	8	Panajachel	11	Noviembre	2023-11-26T00:00:00	2024-11-08T01:00:00	3	Temperatura mínima	16.4
74368	7	Sololá	710	Panajachel	8	Panajachel	11	Noviembre	2023-11-26T00:00:00	2024-11-08T01:00:00	5	Humedad	85
74369	7	Sololá	710	Panajachel	8	Panajachel	11	Noviembre	2023-11-26T00:00:00	2024-11-08T01:00:00	6	Velocidad del viento	3.2
74370	7	Sololá	710	Panajachel	8	Panajachel	11	Noviembre	2023-11-26T00:00:00	2024-11-08T01:00:00	7	Dirección del viento	3.22
74371	7	Sololá	710	Panajachel	8	Panajachel	11	Noviembre	2023-11-26T00:00:00	2024-11-08T01:00:00	1	Precipitación	0
74372	7	Sololá	710	Panajachel	8	Panajachel	11	Noviembre	2023-11-26T00:00:00	2024-11-08T01:00:00	8	Radiación solar	0
74373	7	Sololá	710	Panajachel	8	Panajachel	11	Noviembre	2023-11-26T00:00:00	2024-11-08T02:00:00	2	Temperatura media	17.3
74374	7	Sololá	710	Panajachel	8	Panajachel	11	Noviembre	2023-11-26T00:00:00	2024-11-08T02:00:00	4	Temperatura máxima	17.3
74375	7	Sololá	710	Panajachel	8	Panajachel	11	Noviembre	2023-11-26T00:00:00	2024-11-08T02:00:00	3	Temperatura mínima	16.4
74376	7	Sololá	710	Panajachel	8	Panajachel	11	Noviembre	2023-11-26T00:00:00	2024-11-08T02:00:00	5	Humedad	82
74377	7	Sololá	710	Panajachel	8	Panajachel	11	Noviembre	2023-11-26T00:00:00	2024-11-08T02:00:00	6	Velocidad del viento	3.2
74378	7	Sololá	710	Panajachel	8	Panajachel	11	Noviembre	2023-11-26T00:00:00	2024-11-08T02:00:00	7	Dirección del viento	3.22
74379	7	Sololá	710	Panajachel	8	Panajachel	11	Noviembre	2023-11-26T00:00:00	2024-11-08T02:00:00	1	Precipitación	0
74380	7	Sololá	710	Panajachel	8	Panajachel	11	Noviembre	2023-11-26T00:00:00	2024-11-08T02:00:00	8	Radiación solar	0
74381	7	Sololá	710	Panajachel	8	Panajachel	11	Noviembre	2023-11-26T00:00:00	2024-11-08T03:00:00	2	Temperatura media	16.4
74382	7	Sololá	710	Panajachel	8	Panajachel	11	Noviembre	2023-11-26T00:00:00	2024-11-08T03:00:00	4	Temperatura máxima	17.6
74383	7	Sololá	710	Panajachel	8	Panajachel	11	Noviembre	2023-11-26T00:00:00	2024-11-08T03:00:00	3	Temperatura mínima	16.4
74384	7	Sololá	710	Panajachel	8	Panajachel	11	Noviembre	2023-11-26T00:00:00	2024-11-08T03:00:00	5	Humedad	85
74385	7	Sololá	710	Panajachel	8	Panajachel	11	Noviembre	2023-11-26T00:00:00	2024-11-08T03:00:00	6	Velocidad del viento	1.6
74386	7	Sololá	710	Panajachel	8	Panajachel	11	Noviembre	2023-11-26T00:00:00	2024-11-08T03:00:00	7	Dirección del viento	1.61
74387	7	Sololá	710	Panajachel	8	Panajachel	11	Noviembre	2023-11-26T00:00:00	2024-11-08T03:00:00	1	Precipitación	0
74388	7	Sololá	710	Panajachel	8	Panajachel	11	Noviembre	2023-11-26T00:00:00	2024-11-08T03:00:00	8	Radiación solar	0
74389	7	Sololá	710	Panajachel	8	Panajachel	11	Noviembre	2023-11-26T00:00:00	2024-11-08T04:00:00	2	Temperatura media	16.1
74390	7	Sololá	710	Panajachel	8	Panajachel	11	Noviembre	2023-11-26T00:00:00	2024-11-08T04:00:00	4	Temperatura máxima	16.4
74391	7	Sololá	710	Panajachel	8	Panajachel	11	Noviembre	2023-11-26T00:00:00	2024-11-08T04:00:00	3	Temperatura mínima	15.9
74392	7	Sololá	710	Panajachel	8	Panajachel	11	Noviembre	2023-11-26T00:00:00	2024-11-08T04:00:00	5	Humedad	85
74393	7	Sololá	710	Panajachel	8	Panajachel	11	Noviembre	2023-11-26T00:00:00	2024-11-08T04:00:00	6	Velocidad del viento	3.2
74394	7	Sololá	710	Panajachel	8	Panajachel	11	Noviembre	2023-11-26T00:00:00	2024-11-08T04:00:00	7	Dirección del viento	3.22
74395	7	Sololá	710	Panajachel	8	Panajachel	11	Noviembre	2023-11-26T00:00:00	2024-11-08T04:00:00	1	Precipitación	0
74396	7	Sololá	710	Panajachel	8	Panajachel	11	Noviembre	2023-11-26T00:00:00	2024-11-08T04:00:00	8	Radiación solar	0
74397	7	Sololá	710	Panajachel	8	Panajachel	11	Noviembre	2023-11-26T00:00:00	2024-11-08T05:00:00	2	Temperatura media	16.1
74398	7	Sololá	710	Panajachel	8	Panajachel	11	Noviembre	2023-11-26T00:00:00	2024-11-08T05:00:00	4	Temperatura máxima	16.3
74399	7	Sololá	710	Panajachel	8	Panajachel	11	Noviembre	2023-11-26T00:00:00	2024-11-08T05:00:00	3	Temperatura mínima	15.9
74400	7	Sololá	710	Panajachel	8	Panajachel	11	Noviembre	2023-11-26T00:00:00	2024-11-08T05:00:00	5	Humedad	84
74401	7	Sololá	710	Panajachel	8	Panajachel	11	Noviembre	2023-11-26T00:00:00	2024-11-08T05:00:00	6	Velocidad del viento	3.2
74402	7	Sololá	710	Panajachel	8	Panajachel	11	Noviembre	2023-11-26T00:00:00	2024-11-08T05:00:00	7	Dirección del viento	3.22
74403	7	Sololá	710	Panajachel	8	Panajachel	11	Noviembre	2023-11-26T00:00:00	2024-11-08T05:00:00	1	Precipitación	0
74404	7	Sololá	710	Panajachel	8	Panajachel	11	Noviembre	2023-11-26T00:00:00	2024-11-08T05:00:00	8	Radiación solar	0
74405	7	Sololá	710	Panajachel	8	Panajachel	11	Noviembre	2023-11-26T00:00:00	2024-11-08T06:00:00	2	Temperatura media	16.4
74406	7	Sololá	710	Panajachel	8	Panajachel	11	Noviembre	2023-11-26T00:00:00	2024-11-08T06:00:00	4	Temperatura máxima	16.5
74407	7	Sololá	710	Panajachel	8	Panajachel	11	Noviembre	2023-11-26T00:00:00	2024-11-08T06:00:00	3	Temperatura mínima	16.1
74408	7	Sololá	710	Panajachel	8	Panajachel	11	Noviembre	2023-11-26T00:00:00	2024-11-08T06:00:00	5	Humedad	81
74409	7	Sololá	710	Panajachel	8	Panajachel	11	Noviembre	2023-11-26T00:00:00	2024-11-08T06:00:00	6	Velocidad del viento	4.8
74410	7	Sololá	710	Panajachel	8	Panajachel	11	Noviembre	2023-11-26T00:00:00	2024-11-08T06:00:00	7	Dirección del viento	4.83
74411	7	Sololá	710	Panajachel	8	Panajachel	11	Noviembre	2023-11-26T00:00:00	2024-11-08T06:00:00	1	Precipitación	0
74412	7	Sololá	710	Panajachel	8	Panajachel	11	Noviembre	2023-11-26T00:00:00	2024-11-08T06:00:00	8	Radiación solar	0
74413	7	Sololá	710	Panajachel	8	Panajachel	11	Noviembre	2023-11-26T00:00:00	2024-11-08T07:00:00	2	Temperatura media	16.6
74414	7	Sololá	710	Panajachel	8	Panajachel	11	Noviembre	2023-11-26T00:00:00	2024-11-08T07:00:00	4	Temperatura máxima	16.7
74415	7	Sololá	710	Panajachel	8	Panajachel	11	Noviembre	2023-11-26T00:00:00	2024-11-08T07:00:00	3	Temperatura mínima	16.3
74416	7	Sololá	710	Panajachel	8	Panajachel	11	Noviembre	2023-11-26T00:00:00	2024-11-08T07:00:00	5	Humedad	83
74417	7	Sololá	710	Panajachel	8	Panajachel	11	Noviembre	2023-11-26T00:00:00	2024-11-08T07:00:00	6	Velocidad del viento	1.6
74418	7	Sololá	710	Panajachel	8	Panajachel	11	Noviembre	2023-11-26T00:00:00	2024-11-08T07:00:00	7	Dirección del viento	1.61
74419	7	Sololá	710	Panajachel	8	Panajachel	11	Noviembre	2023-11-26T00:00:00	2024-11-08T07:00:00	1	Precipitación	0
74420	7	Sololá	710	Panajachel	8	Panajachel	11	Noviembre	2023-11-26T00:00:00	2024-11-08T07:00:00	8	Radiación solar	17
74421	7	Sololá	710	Panajachel	8	Panajachel	11	Noviembre	2023-11-26T00:00:00	2024-11-08T08:00:00	2	Temperatura media	20.4
74422	7	Sololá	710	Panajachel	8	Panajachel	11	Noviembre	2023-11-26T00:00:00	2024-11-08T08:00:00	4	Temperatura máxima	20.4
74423	7	Sololá	710	Panajachel	8	Panajachel	11	Noviembre	2023-11-26T00:00:00	2024-11-08T08:00:00	3	Temperatura mínima	16.5
74424	7	Sololá	710	Panajachel	8	Panajachel	11	Noviembre	2023-11-26T00:00:00	2024-11-08T08:00:00	5	Humedad	71
74425	7	Sololá	710	Panajachel	8	Panajachel	11	Noviembre	2023-11-26T00:00:00	2024-11-08T08:00:00	6	Velocidad del viento	1.6
74426	7	Sololá	710	Panajachel	8	Panajachel	11	Noviembre	2023-11-26T00:00:00	2024-11-08T08:00:00	7	Dirección del viento	1.61
74427	7	Sololá	710	Panajachel	8	Panajachel	11	Noviembre	2023-11-26T00:00:00	2024-11-08T08:00:00	1	Precipitación	0
74428	7	Sololá	710	Panajachel	8	Panajachel	11	Noviembre	2023-11-26T00:00:00	2024-11-08T08:00:00	8	Radiación solar	206
74429	7	Sololá	710	Panajachel	8	Panajachel	11	Noviembre	2023-11-26T00:00:00	2024-11-08T09:00:00	2	Temperatura media	21.4
74430	7	Sololá	710	Panajachel	8	Panajachel	11	Noviembre	2023-11-26T00:00:00	2024-11-08T09:00:00	4	Temperatura máxima	21.4
74431	7	Sololá	710	Panajachel	8	Panajachel	11	Noviembre	2023-11-26T00:00:00	2024-11-08T09:00:00	3	Temperatura mínima	20.3
74432	7	Sololá	710	Panajachel	8	Panajachel	11	Noviembre	2023-11-26T00:00:00	2024-11-08T09:00:00	5	Humedad	75
74433	7	Sololá	710	Panajachel	8	Panajachel	11	Noviembre	2023-11-26T00:00:00	2024-11-08T09:00:00	6	Velocidad del viento	0
74434	7	Sololá	710	Panajachel	8	Panajachel	11	Noviembre	2023-11-26T00:00:00	2024-11-08T09:00:00	7	Dirección del viento	0
74435	7	Sololá	710	Panajachel	8	Panajachel	11	Noviembre	2023-11-26T00:00:00	2024-11-08T09:00:00	1	Precipitación	0
74436	7	Sololá	710	Panajachel	8	Panajachel	11	Noviembre	2023-11-26T00:00:00	2024-11-08T09:00:00	8	Radiación solar	409
74437	7	Sololá	710	Panajachel	8	Panajachel	11	Noviembre	2023-11-26T00:00:00	2024-11-08T10:00:00	2	Temperatura media	21.8
74438	7	Sololá	710	Panajachel	8	Panajachel	11	Noviembre	2023-11-26T00:00:00	2024-11-08T10:00:00	4	Temperatura máxima	22.1
74439	7	Sololá	710	Panajachel	8	Panajachel	11	Noviembre	2023-11-26T00:00:00	2024-11-08T10:00:00	3	Temperatura mínima	20.8
74440	7	Sololá	710	Panajachel	8	Panajachel	11	Noviembre	2023-11-26T00:00:00	2024-11-08T10:00:00	5	Humedad	74
74441	7	Sololá	710	Panajachel	8	Panajachel	11	Noviembre	2023-11-26T00:00:00	2024-11-08T10:00:00	6	Velocidad del viento	3.2
74442	7	Sololá	710	Panajachel	8	Panajachel	11	Noviembre	2023-11-26T00:00:00	2024-11-08T10:00:00	7	Dirección del viento	3.22
74443	7	Sololá	710	Panajachel	8	Panajachel	11	Noviembre	2023-11-26T00:00:00	2024-11-08T10:00:00	1	Precipitación	0
74444	7	Sololá	710	Panajachel	8	Panajachel	11	Noviembre	2023-11-26T00:00:00	2024-11-08T10:00:00	8	Radiación solar	604
74445	7	Sololá	710	Panajachel	8	Panajachel	11	Noviembre	2023-11-26T00:00:00	2024-11-08T11:00:00	2	Temperatura media	22.3
74446	7	Sololá	710	Panajachel	8	Panajachel	11	Noviembre	2023-11-26T00:00:00	2024-11-08T11:00:00	4	Temperatura máxima	22.3
74447	7	Sololá	710	Panajachel	8	Panajachel	11	Noviembre	2023-11-26T00:00:00	2024-11-08T11:00:00	3	Temperatura mínima	21.6
74448	7	Sololá	710	Panajachel	8	Panajachel	11	Noviembre	2023-11-26T00:00:00	2024-11-08T11:00:00	5	Humedad	69
74449	7	Sololá	710	Panajachel	8	Panajachel	11	Noviembre	2023-11-26T00:00:00	2024-11-08T11:00:00	6	Velocidad del viento	4.8
74450	7	Sololá	710	Panajachel	8	Panajachel	11	Noviembre	2023-11-26T00:00:00	2024-11-08T11:00:00	7	Dirección del viento	4.83
74451	7	Sololá	710	Panajachel	8	Panajachel	11	Noviembre	2023-11-26T00:00:00	2024-11-08T11:00:00	1	Precipitación	0
74452	7	Sololá	710	Panajachel	8	Panajachel	11	Noviembre	2023-11-26T00:00:00	2024-11-08T11:00:00	8	Radiación solar	725
74453	7	Sololá	710	Panajachel	8	Panajachel	11	Noviembre	2023-11-26T00:00:00	2024-11-08T12:00:00	2	Temperatura media	25
74454	7	Sololá	710	Panajachel	8	Panajachel	11	Noviembre	2023-11-26T00:00:00	2024-11-08T12:00:00	4	Temperatura máxima	25
74455	7	Sololá	710	Panajachel	8	Panajachel	11	Noviembre	2023-11-26T00:00:00	2024-11-08T12:00:00	3	Temperatura mínima	22.3
74456	7	Sololá	710	Panajachel	8	Panajachel	11	Noviembre	2023-11-26T00:00:00	2024-11-08T12:00:00	5	Humedad	67
74457	7	Sololá	710	Panajachel	8	Panajachel	11	Noviembre	2023-11-26T00:00:00	2024-11-08T12:00:00	6	Velocidad del viento	3.2
74458	7	Sololá	710	Panajachel	8	Panajachel	11	Noviembre	2023-11-26T00:00:00	2024-11-08T12:00:00	7	Dirección del viento	3.22
74459	7	Sololá	710	Panajachel	8	Panajachel	11	Noviembre	2023-11-26T00:00:00	2024-11-08T12:00:00	1	Precipitación	0
74460	7	Sololá	710	Panajachel	8	Panajachel	11	Noviembre	2023-11-26T00:00:00	2024-11-08T12:00:00	8	Radiación solar	812
74461	7	Sololá	710	Panajachel	8	Panajachel	11	Noviembre	2023-11-26T00:00:00	2024-11-08T13:00:00	2	Temperatura media	24.4
74462	7	Sololá	710	Panajachel	8	Panajachel	11	Noviembre	2023-11-26T00:00:00	2024-11-08T13:00:00	4	Temperatura máxima	25.6
74463	7	Sololá	710	Panajachel	8	Panajachel	11	Noviembre	2023-11-26T00:00:00	2024-11-08T13:00:00	3	Temperatura mínima	24.3
74464	7	Sololá	710	Panajachel	8	Panajachel	11	Noviembre	2023-11-26T00:00:00	2024-11-08T13:00:00	5	Humedad	73
74465	7	Sololá	710	Panajachel	8	Panajachel	11	Noviembre	2023-11-26T00:00:00	2024-11-08T13:00:00	6	Velocidad del viento	4.8
74466	7	Sololá	710	Panajachel	8	Panajachel	11	Noviembre	2023-11-26T00:00:00	2024-11-08T13:00:00	7	Dirección del viento	4.83
74467	7	Sololá	710	Panajachel	8	Panajachel	11	Noviembre	2023-11-26T00:00:00	2024-11-08T13:00:00	1	Precipitación	0
74468	7	Sololá	710	Panajachel	8	Panajachel	11	Noviembre	2023-11-26T00:00:00	2024-11-08T13:00:00	8	Radiación solar	723
74469	7	Sololá	710	Panajachel	8	Panajachel	11	Noviembre	2023-11-26T00:00:00	2024-11-08T14:00:00	2	Temperatura media	24.1
74470	7	Sololá	710	Panajachel	8	Panajachel	11	Noviembre	2023-11-26T00:00:00	2024-11-08T14:00:00	4	Temperatura máxima	24.7
74471	7	Sololá	710	Panajachel	8	Panajachel	11	Noviembre	2023-11-26T00:00:00	2024-11-08T14:00:00	3	Temperatura mínima	22.9
74472	7	Sololá	710	Panajachel	8	Panajachel	11	Noviembre	2023-11-26T00:00:00	2024-11-08T14:00:00	5	Humedad	73
74473	7	Sololá	710	Panajachel	8	Panajachel	11	Noviembre	2023-11-26T00:00:00	2024-11-08T14:00:00	6	Velocidad del viento	9.7
74474	7	Sololá	710	Panajachel	8	Panajachel	11	Noviembre	2023-11-26T00:00:00	2024-11-08T14:00:00	7	Dirección del viento	9.66
74475	7	Sololá	710	Panajachel	8	Panajachel	11	Noviembre	2023-11-26T00:00:00	2024-11-08T14:00:00	1	Precipitación	0
74476	7	Sololá	710	Panajachel	8	Panajachel	11	Noviembre	2023-11-26T00:00:00	2024-11-08T14:00:00	8	Radiación solar	502
74477	7	Sololá	710	Panajachel	8	Panajachel	11	Noviembre	2023-11-26T00:00:00	2024-11-08T15:00:00	2	Temperatura media	24
74478	7	Sololá	710	Panajachel	8	Panajachel	11	Noviembre	2023-11-26T00:00:00	2024-11-08T15:00:00	4	Temperatura máxima	24.4
74479	7	Sololá	710	Panajachel	8	Panajachel	11	Noviembre	2023-11-26T00:00:00	2024-11-08T15:00:00	3	Temperatura mínima	23.4
74480	7	Sololá	710	Panajachel	8	Panajachel	11	Noviembre	2023-11-26T00:00:00	2024-11-08T15:00:00	5	Humedad	78
74481	7	Sololá	710	Panajachel	8	Panajachel	11	Noviembre	2023-11-26T00:00:00	2024-11-08T15:00:00	6	Velocidad del viento	8
74482	7	Sololá	710	Panajachel	8	Panajachel	11	Noviembre	2023-11-26T00:00:00	2024-11-08T15:00:00	7	Dirección del viento	8.05
74483	7	Sololá	710	Panajachel	8	Panajachel	11	Noviembre	2023-11-26T00:00:00	2024-11-08T15:00:00	1	Precipitación	0
74484	7	Sololá	710	Panajachel	8	Panajachel	11	Noviembre	2023-11-26T00:00:00	2024-11-08T15:00:00	8	Radiación solar	531
74485	7	Sololá	710	Panajachel	8	Panajachel	11	Noviembre	2023-11-26T00:00:00	2024-11-08T16:00:00	2	Temperatura media	23.4
74486	7	Sololá	710	Panajachel	8	Panajachel	11	Noviembre	2023-11-26T00:00:00	2024-11-08T16:00:00	4	Temperatura máxima	23.9
74487	7	Sololá	710	Panajachel	8	Panajachel	11	Noviembre	2023-11-26T00:00:00	2024-11-08T16:00:00	3	Temperatura mínima	23.2
74488	7	Sololá	710	Panajachel	8	Panajachel	11	Noviembre	2023-11-26T00:00:00	2024-11-08T16:00:00	5	Humedad	76
74489	7	Sololá	710	Panajachel	8	Panajachel	11	Noviembre	2023-11-26T00:00:00	2024-11-08T16:00:00	6	Velocidad del viento	8
74490	7	Sololá	710	Panajachel	8	Panajachel	11	Noviembre	2023-11-26T00:00:00	2024-11-08T16:00:00	7	Dirección del viento	8.05
74491	7	Sololá	710	Panajachel	8	Panajachel	11	Noviembre	2023-11-26T00:00:00	2024-11-08T16:00:00	1	Precipitación	0
74492	7	Sololá	710	Panajachel	8	Panajachel	11	Noviembre	2023-11-26T00:00:00	2024-11-08T16:00:00	8	Radiación solar	332
74493	7	Sololá	710	Panajachel	8	Panajachel	11	Noviembre	2023-11-26T00:00:00	2024-11-08T17:00:00	2	Temperatura media	23.9
74494	7	Sololá	710	Panajachel	8	Panajachel	11	Noviembre	2023-11-26T00:00:00	2024-11-08T17:00:00	4	Temperatura máxima	24.3
74495	7	Sololá	710	Panajachel	8	Panajachel	11	Noviembre	2023-11-26T00:00:00	2024-11-08T17:00:00	3	Temperatura mínima	23.1
74496	7	Sololá	710	Panajachel	8	Panajachel	11	Noviembre	2023-11-26T00:00:00	2024-11-08T17:00:00	5	Humedad	76
74497	7	Sololá	710	Panajachel	8	Panajachel	11	Noviembre	2023-11-26T00:00:00	2024-11-08T17:00:00	6	Velocidad del viento	3.2
74498	7	Sololá	710	Panajachel	8	Panajachel	11	Noviembre	2023-11-26T00:00:00	2024-11-08T17:00:00	7	Dirección del viento	3.22
74499	7	Sololá	710	Panajachel	8	Panajachel	11	Noviembre	2023-11-26T00:00:00	2024-11-08T17:00:00	1	Precipitación	0
74500	7	Sololá	710	Panajachel	8	Panajachel	11	Noviembre	2023-11-26T00:00:00	2024-11-08T17:00:00	8	Radiación solar	153
74501	7	Sololá	710	Panajachel	8	Panajachel	11	Noviembre	2023-11-26T00:00:00	2024-11-08T18:00:00	2	Temperatura media	21.2
74502	7	Sololá	710	Panajachel	8	Panajachel	11	Noviembre	2023-11-26T00:00:00	2024-11-08T18:00:00	4	Temperatura máxima	23.9
74503	7	Sololá	710	Panajachel	8	Panajachel	11	Noviembre	2023-11-26T00:00:00	2024-11-08T18:00:00	3	Temperatura mínima	21.2
74504	7	Sololá	710	Panajachel	8	Panajachel	11	Noviembre	2023-11-26T00:00:00	2024-11-08T18:00:00	5	Humedad	80
74505	7	Sololá	710	Panajachel	8	Panajachel	11	Noviembre	2023-11-26T00:00:00	2024-11-08T18:00:00	6	Velocidad del viento	0
74506	7	Sololá	710	Panajachel	8	Panajachel	11	Noviembre	2023-11-26T00:00:00	2024-11-08T18:00:00	7	Dirección del viento	0
74507	7	Sololá	710	Panajachel	8	Panajachel	11	Noviembre	2023-11-26T00:00:00	2024-11-08T18:00:00	1	Precipitación	0
74508	7	Sololá	710	Panajachel	8	Panajachel	11	Noviembre	2023-11-26T00:00:00	2024-11-08T18:00:00	8	Radiación solar	14
74509	7	Sololá	710	Panajachel	8	Panajachel	11	Noviembre	2023-11-26T00:00:00	2024-11-08T19:00:00	2	Temperatura media	19.3
74510	7	Sololá	710	Panajachel	8	Panajachel	11	Noviembre	2023-11-26T00:00:00	2024-11-08T19:00:00	4	Temperatura máxima	21.2
74511	7	Sololá	710	Panajachel	8	Panajachel	11	Noviembre	2023-11-26T00:00:00	2024-11-08T19:00:00	3	Temperatura mínima	19.3
74512	7	Sololá	710	Panajachel	8	Panajachel	11	Noviembre	2023-11-26T00:00:00	2024-11-08T19:00:00	5	Humedad	75
74513	7	Sololá	710	Panajachel	8	Panajachel	11	Noviembre	2023-11-26T00:00:00	2024-11-08T19:00:00	6	Velocidad del viento	3.2
74514	7	Sololá	710	Panajachel	8	Panajachel	11	Noviembre	2023-11-26T00:00:00	2024-11-08T19:00:00	7	Dirección del viento	3.22
74515	7	Sololá	710	Panajachel	8	Panajachel	11	Noviembre	2023-11-26T00:00:00	2024-11-08T19:00:00	1	Precipitación	0
74516	7	Sololá	710	Panajachel	8	Panajachel	11	Noviembre	2023-11-26T00:00:00	2024-11-08T19:00:00	8	Radiación solar	0
74517	7	Sololá	710	Panajachel	8	Panajachel	11	Noviembre	2023-11-26T00:00:00	2024-11-08T20:00:00	2	Temperatura media	19.7
74518	7	Sololá	710	Panajachel	8	Panajachel	11	Noviembre	2023-11-26T00:00:00	2024-11-08T20:00:00	4	Temperatura máxima	19.7
74519	7	Sololá	710	Panajachel	8	Panajachel	11	Noviembre	2023-11-26T00:00:00	2024-11-08T20:00:00	3	Temperatura mínima	19.3
74520	7	Sololá	710	Panajachel	8	Panajachel	11	Noviembre	2023-11-26T00:00:00	2024-11-08T20:00:00	5	Humedad	77
74521	7	Sololá	710	Panajachel	8	Panajachel	11	Noviembre	2023-11-26T00:00:00	2024-11-08T20:00:00	6	Velocidad del viento	3.2
74522	7	Sololá	710	Panajachel	8	Panajachel	11	Noviembre	2023-11-26T00:00:00	2024-11-08T20:00:00	7	Dirección del viento	3.22
74523	7	Sololá	710	Panajachel	8	Panajachel	11	Noviembre	2023-11-26T00:00:00	2024-11-08T20:00:00	1	Precipitación	0
74524	7	Sololá	710	Panajachel	8	Panajachel	11	Noviembre	2023-11-26T00:00:00	2024-11-08T20:00:00	8	Radiación solar	0
74525	7	Sololá	710	Panajachel	8	Panajachel	11	Noviembre	2023-11-26T00:00:00	2024-11-08T21:00:00	2	Temperatura media	20.7
74526	7	Sololá	710	Panajachel	8	Panajachel	11	Noviembre	2023-11-26T00:00:00	2024-11-08T21:00:00	4	Temperatura máxima	20.7
74527	7	Sololá	710	Panajachel	8	Panajachel	11	Noviembre	2023-11-26T00:00:00	2024-11-08T21:00:00	3	Temperatura mínima	19.2
74528	7	Sololá	710	Panajachel	8	Panajachel	11	Noviembre	2023-11-26T00:00:00	2024-11-08T21:00:00	5	Humedad	74
74529	7	Sololá	710	Panajachel	8	Panajachel	11	Noviembre	2023-11-26T00:00:00	2024-11-08T21:00:00	6	Velocidad del viento	4.8
74530	7	Sololá	710	Panajachel	8	Panajachel	11	Noviembre	2023-11-26T00:00:00	2024-11-08T21:00:00	7	Dirección del viento	4.83
74531	7	Sololá	710	Panajachel	8	Panajachel	11	Noviembre	2023-11-26T00:00:00	2024-11-08T21:00:00	1	Precipitación	0
74532	7	Sololá	710	Panajachel	8	Panajachel	11	Noviembre	2023-11-26T00:00:00	2024-11-08T21:00:00	8	Radiación solar	0
74533	7	Sololá	710	Panajachel	8	Panajachel	11	Noviembre	2023-11-26T00:00:00	2024-11-08T22:00:00	2	Temperatura media	21.1
74534	7	Sololá	710	Panajachel	8	Panajachel	11	Noviembre	2023-11-26T00:00:00	2024-11-08T22:00:00	4	Temperatura máxima	21.2
74535	7	Sololá	710	Panajachel	8	Panajachel	11	Noviembre	2023-11-26T00:00:00	2024-11-08T22:00:00	3	Temperatura mínima	20.4
74536	7	Sololá	710	Panajachel	8	Panajachel	11	Noviembre	2023-11-26T00:00:00	2024-11-08T22:00:00	5	Humedad	69
74537	7	Sololá	710	Panajachel	8	Panajachel	11	Noviembre	2023-11-26T00:00:00	2024-11-08T22:00:00	6	Velocidad del viento	9.7
74538	7	Sololá	710	Panajachel	8	Panajachel	11	Noviembre	2023-11-26T00:00:00	2024-11-08T22:00:00	7	Dirección del viento	9.66
74539	7	Sololá	710	Panajachel	8	Panajachel	11	Noviembre	2023-11-26T00:00:00	2024-11-08T22:00:00	1	Precipitación	0
74540	7	Sololá	710	Panajachel	8	Panajachel	11	Noviembre	2023-11-26T00:00:00	2024-11-08T22:00:00	8	Radiación solar	0
74541	7	Sololá	710	Panajachel	8	Panajachel	11	Noviembre	2023-11-26T00:00:00	2024-11-08T23:00:00	2	Temperatura media	20.6
74542	7	Sololá	710	Panajachel	8	Panajachel	11	Noviembre	2023-11-26T00:00:00	2024-11-08T23:00:00	4	Temperatura máxima	21
74543	7	Sololá	710	Panajachel	8	Panajachel	11	Noviembre	2023-11-26T00:00:00	2024-11-08T23:00:00	3	Temperatura mínima	20.6
74544	7	Sololá	710	Panajachel	8	Panajachel	11	Noviembre	2023-11-26T00:00:00	2024-11-08T23:00:00	5	Humedad	68
74545	7	Sololá	710	Panajachel	8	Panajachel	11	Noviembre	2023-11-26T00:00:00	2024-11-08T23:00:00	6	Velocidad del viento	9.7
74546	7	Sololá	710	Panajachel	8	Panajachel	11	Noviembre	2023-11-26T00:00:00	2024-11-08T23:00:00	7	Dirección del viento	9.66
74547	7	Sololá	710	Panajachel	8	Panajachel	11	Noviembre	2023-11-26T00:00:00	2024-11-08T23:00:00	1	Precipitación	0
74548	7	Sololá	710	Panajachel	8	Panajachel	11	Noviembre	2023-11-26T00:00:00	2024-11-08T23:00:00	8	Radiación solar	0
74549	7	Sololá	710	Panajachel	8	Panajachel	11	Noviembre	2023-11-27T00:00:00	2024-11-08T00:00:00	2	Temperatura media	20.3
74550	7	Sololá	710	Panajachel	8	Panajachel	11	Noviembre	2023-11-27T00:00:00	2024-11-08T00:00:00	4	Temperatura máxima	20.7
74551	7	Sololá	710	Panajachel	8	Panajachel	11	Noviembre	2023-11-27T00:00:00	2024-11-08T00:00:00	3	Temperatura mínima	20.2
74552	7	Sololá	710	Panajachel	8	Panajachel	11	Noviembre	2023-11-27T00:00:00	2024-11-08T00:00:00	5	Humedad	66
74553	7	Sololá	710	Panajachel	8	Panajachel	11	Noviembre	2023-11-27T00:00:00	2024-11-08T00:00:00	6	Velocidad del viento	9.7
74554	7	Sololá	710	Panajachel	8	Panajachel	11	Noviembre	2023-11-27T00:00:00	2024-11-08T00:00:00	7	Dirección del viento	9.66
74555	7	Sololá	710	Panajachel	8	Panajachel	11	Noviembre	2023-11-27T00:00:00	2024-11-08T00:00:00	1	Precipitación	0
74556	7	Sololá	710	Panajachel	8	Panajachel	11	Noviembre	2023-11-27T00:00:00	2024-11-08T00:00:00	8	Radiación solar	0
74557	7	Sololá	710	Panajachel	8	Panajachel	11	Noviembre	2023-11-27T00:00:00	2024-11-08T01:00:00	2	Temperatura media	20.1
74558	7	Sololá	710	Panajachel	8	Panajachel	11	Noviembre	2023-11-27T00:00:00	2024-11-08T01:00:00	4	Temperatura máxima	20.4
74559	7	Sololá	710	Panajachel	8	Panajachel	11	Noviembre	2023-11-27T00:00:00	2024-11-08T01:00:00	3	Temperatura mínima	19.9
74560	7	Sololá	710	Panajachel	8	Panajachel	11	Noviembre	2023-11-27T00:00:00	2024-11-08T01:00:00	5	Humedad	67
74561	7	Sololá	710	Panajachel	8	Panajachel	11	Noviembre	2023-11-27T00:00:00	2024-11-08T01:00:00	6	Velocidad del viento	12.9
74562	7	Sololá	710	Panajachel	8	Panajachel	11	Noviembre	2023-11-27T00:00:00	2024-11-08T01:00:00	7	Dirección del viento	12.87
74563	7	Sololá	710	Panajachel	8	Panajachel	11	Noviembre	2023-11-27T00:00:00	2024-11-08T01:00:00	1	Precipitación	0
74564	7	Sololá	710	Panajachel	8	Panajachel	11	Noviembre	2023-11-27T00:00:00	2024-11-08T01:00:00	8	Radiación solar	0
74565	7	Sololá	710	Panajachel	8	Panajachel	11	Noviembre	2023-11-27T00:00:00	2024-11-08T02:00:00	2	Temperatura media	19.8
74566	7	Sololá	710	Panajachel	8	Panajachel	11	Noviembre	2023-11-27T00:00:00	2024-11-08T02:00:00	4	Temperatura máxima	20.2
74567	7	Sololá	710	Panajachel	8	Panajachel	11	Noviembre	2023-11-27T00:00:00	2024-11-08T02:00:00	3	Temperatura mínima	19.8
74568	7	Sololá	710	Panajachel	8	Panajachel	11	Noviembre	2023-11-27T00:00:00	2024-11-08T02:00:00	5	Humedad	67
74569	7	Sololá	710	Panajachel	8	Panajachel	11	Noviembre	2023-11-27T00:00:00	2024-11-08T02:00:00	6	Velocidad del viento	16.1
74570	7	Sololá	710	Panajachel	8	Panajachel	11	Noviembre	2023-11-27T00:00:00	2024-11-08T02:00:00	7	Dirección del viento	16.09
74571	7	Sololá	710	Panajachel	8	Panajachel	11	Noviembre	2023-11-27T00:00:00	2024-11-08T02:00:00	1	Precipitación	0
74572	7	Sololá	710	Panajachel	8	Panajachel	11	Noviembre	2023-11-27T00:00:00	2024-11-08T02:00:00	8	Radiación solar	0
74573	7	Sololá	710	Panajachel	8	Panajachel	11	Noviembre	2023-11-27T00:00:00	2024-11-08T03:00:00	2	Temperatura media	19.8
74574	7	Sololá	710	Panajachel	8	Panajachel	11	Noviembre	2023-11-27T00:00:00	2024-11-08T03:00:00	4	Temperatura máxima	20
74575	7	Sololá	710	Panajachel	8	Panajachel	11	Noviembre	2023-11-27T00:00:00	2024-11-08T03:00:00	3	Temperatura mínima	19.6
74576	7	Sololá	710	Panajachel	8	Panajachel	11	Noviembre	2023-11-27T00:00:00	2024-11-08T03:00:00	5	Humedad	67
74577	7	Sololá	710	Panajachel	8	Panajachel	11	Noviembre	2023-11-27T00:00:00	2024-11-08T03:00:00	6	Velocidad del viento	14.5
74578	7	Sololá	710	Panajachel	8	Panajachel	11	Noviembre	2023-11-27T00:00:00	2024-11-08T03:00:00	7	Dirección del viento	14.48
74579	7	Sololá	710	Panajachel	8	Panajachel	11	Noviembre	2023-11-27T00:00:00	2024-11-08T03:00:00	1	Precipitación	0
74580	7	Sololá	710	Panajachel	8	Panajachel	11	Noviembre	2023-11-27T00:00:00	2024-11-08T03:00:00	8	Radiación solar	0
74581	7	Sololá	710	Panajachel	8	Panajachel	11	Noviembre	2023-11-27T00:00:00	2024-11-08T04:00:00	2	Temperatura media	19.4
74582	7	Sololá	710	Panajachel	8	Panajachel	11	Noviembre	2023-11-27T00:00:00	2024-11-08T04:00:00	4	Temperatura máxima	20.1
74583	7	Sololá	710	Panajachel	8	Panajachel	11	Noviembre	2023-11-27T00:00:00	2024-11-08T04:00:00	3	Temperatura mínima	19.4
74584	7	Sololá	710	Panajachel	8	Panajachel	11	Noviembre	2023-11-27T00:00:00	2024-11-08T04:00:00	5	Humedad	68
74585	7	Sololá	710	Panajachel	8	Panajachel	11	Noviembre	2023-11-27T00:00:00	2024-11-08T04:00:00	6	Velocidad del viento	14.5
74586	7	Sololá	710	Panajachel	8	Panajachel	11	Noviembre	2023-11-27T00:00:00	2024-11-08T04:00:00	7	Dirección del viento	14.48
74587	7	Sololá	710	Panajachel	8	Panajachel	11	Noviembre	2023-11-27T00:00:00	2024-11-08T04:00:00	1	Precipitación	0
74588	7	Sololá	710	Panajachel	8	Panajachel	11	Noviembre	2023-11-27T00:00:00	2024-11-08T04:00:00	8	Radiación solar	0
74589	7	Sololá	710	Panajachel	8	Panajachel	11	Noviembre	2023-11-27T00:00:00	2024-11-08T05:00:00	2	Temperatura media	19.5
74590	7	Sololá	710	Panajachel	8	Panajachel	11	Noviembre	2023-11-27T00:00:00	2024-11-08T05:00:00	4	Temperatura máxima	19.7
74591	7	Sololá	710	Panajachel	8	Panajachel	11	Noviembre	2023-11-27T00:00:00	2024-11-08T05:00:00	3	Temperatura mínima	19.4
74592	7	Sololá	710	Panajachel	8	Panajachel	11	Noviembre	2023-11-27T00:00:00	2024-11-08T05:00:00	5	Humedad	64
74593	7	Sololá	710	Panajachel	8	Panajachel	11	Noviembre	2023-11-27T00:00:00	2024-11-08T05:00:00	6	Velocidad del viento	14.5
74594	7	Sololá	710	Panajachel	8	Panajachel	11	Noviembre	2023-11-27T00:00:00	2024-11-08T05:00:00	7	Dirección del viento	14.48
74595	7	Sololá	710	Panajachel	8	Panajachel	11	Noviembre	2023-11-27T00:00:00	2024-11-08T05:00:00	1	Precipitación	0
74596	7	Sololá	710	Panajachel	8	Panajachel	11	Noviembre	2023-11-27T00:00:00	2024-11-08T05:00:00	8	Radiación solar	0
74597	7	Sololá	710	Panajachel	8	Panajachel	11	Noviembre	2023-11-27T00:00:00	2024-11-08T06:00:00	2	Temperatura media	19.2
74598	7	Sololá	710	Panajachel	8	Panajachel	11	Noviembre	2023-11-27T00:00:00	2024-11-08T06:00:00	4	Temperatura máxima	19.6
74599	7	Sololá	710	Panajachel	8	Panajachel	11	Noviembre	2023-11-27T00:00:00	2024-11-08T06:00:00	3	Temperatura mínima	19.2
74600	7	Sololá	710	Panajachel	8	Panajachel	11	Noviembre	2023-11-27T00:00:00	2024-11-08T06:00:00	5	Humedad	67
74601	7	Sololá	710	Panajachel	8	Panajachel	11	Noviembre	2023-11-27T00:00:00	2024-11-08T06:00:00	6	Velocidad del viento	14.5
74602	7	Sololá	710	Panajachel	8	Panajachel	11	Noviembre	2023-11-27T00:00:00	2024-11-08T06:00:00	7	Dirección del viento	14.48
74603	7	Sololá	710	Panajachel	8	Panajachel	11	Noviembre	2023-11-27T00:00:00	2024-11-08T06:00:00	1	Precipitación	0
74604	7	Sololá	710	Panajachel	8	Panajachel	11	Noviembre	2023-11-27T00:00:00	2024-11-08T06:00:00	8	Radiación solar	0
74605	7	Sololá	710	Panajachel	8	Panajachel	11	Noviembre	2023-11-27T00:00:00	2024-11-08T07:00:00	2	Temperatura media	19.7
74606	7	Sololá	710	Panajachel	8	Panajachel	11	Noviembre	2023-11-27T00:00:00	2024-11-08T07:00:00	4	Temperatura máxima	19.7
74607	7	Sololá	710	Panajachel	8	Panajachel	11	Noviembre	2023-11-27T00:00:00	2024-11-08T07:00:00	3	Temperatura mínima	19.2
74608	7	Sololá	710	Panajachel	8	Panajachel	11	Noviembre	2023-11-27T00:00:00	2024-11-08T07:00:00	5	Humedad	67
74609	7	Sololá	710	Panajachel	8	Panajachel	11	Noviembre	2023-11-27T00:00:00	2024-11-08T07:00:00	6	Velocidad del viento	19.3
74610	7	Sololá	710	Panajachel	8	Panajachel	11	Noviembre	2023-11-27T00:00:00	2024-11-08T07:00:00	7	Dirección del viento	19.31
74611	7	Sololá	710	Panajachel	8	Panajachel	11	Noviembre	2023-11-27T00:00:00	2024-11-08T07:00:00	1	Precipitación	0
74612	7	Sololá	710	Panajachel	8	Panajachel	11	Noviembre	2023-11-27T00:00:00	2024-11-08T07:00:00	8	Radiación solar	15
74613	7	Sololá	710	Panajachel	8	Panajachel	11	Noviembre	2023-11-27T00:00:00	2024-11-08T08:00:00	2	Temperatura media	21
74614	7	Sololá	710	Panajachel	8	Panajachel	11	Noviembre	2023-11-27T00:00:00	2024-11-08T08:00:00	4	Temperatura máxima	21
74615	7	Sololá	710	Panajachel	8	Panajachel	11	Noviembre	2023-11-27T00:00:00	2024-11-08T08:00:00	3	Temperatura mínima	19.7
74616	7	Sololá	710	Panajachel	8	Panajachel	11	Noviembre	2023-11-27T00:00:00	2024-11-08T08:00:00	5	Humedad	65
74617	7	Sololá	710	Panajachel	8	Panajachel	11	Noviembre	2023-11-27T00:00:00	2024-11-08T08:00:00	6	Velocidad del viento	12.9
74618	7	Sololá	710	Panajachel	8	Panajachel	11	Noviembre	2023-11-27T00:00:00	2024-11-08T08:00:00	7	Dirección del viento	12.87
74619	7	Sololá	710	Panajachel	8	Panajachel	11	Noviembre	2023-11-27T00:00:00	2024-11-08T08:00:00	1	Precipitación	0
74620	7	Sololá	710	Panajachel	8	Panajachel	11	Noviembre	2023-11-27T00:00:00	2024-11-08T08:00:00	8	Radiación solar	215
74621	7	Sololá	710	Panajachel	8	Panajachel	11	Noviembre	2023-11-27T00:00:00	2024-11-08T09:00:00	2	Temperatura media	22.3
74622	7	Sololá	710	Panajachel	8	Panajachel	11	Noviembre	2023-11-27T00:00:00	2024-11-08T09:00:00	4	Temperatura máxima	22.3
74623	7	Sololá	710	Panajachel	8	Panajachel	11	Noviembre	2023-11-27T00:00:00	2024-11-08T09:00:00	3	Temperatura mínima	21.1
74624	7	Sololá	710	Panajachel	8	Panajachel	11	Noviembre	2023-11-27T00:00:00	2024-11-08T09:00:00	5	Humedad	63
74625	7	Sololá	710	Panajachel	8	Panajachel	11	Noviembre	2023-11-27T00:00:00	2024-11-08T09:00:00	6	Velocidad del viento	9.7
74626	7	Sololá	710	Panajachel	8	Panajachel	11	Noviembre	2023-11-27T00:00:00	2024-11-08T09:00:00	7	Dirección del viento	9.66
74627	7	Sololá	710	Panajachel	8	Panajachel	11	Noviembre	2023-11-27T00:00:00	2024-11-08T09:00:00	1	Precipitación	0
74628	7	Sololá	710	Panajachel	8	Panajachel	11	Noviembre	2023-11-27T00:00:00	2024-11-08T09:00:00	8	Radiación solar	425
74629	7	Sololá	710	Panajachel	8	Panajachel	11	Noviembre	2023-11-27T00:00:00	2024-11-08T10:00:00	2	Temperatura media	23.3
74630	7	Sololá	710	Panajachel	8	Panajachel	11	Noviembre	2023-11-27T00:00:00	2024-11-08T10:00:00	4	Temperatura máxima	23.3
74631	7	Sololá	710	Panajachel	8	Panajachel	11	Noviembre	2023-11-27T00:00:00	2024-11-08T10:00:00	3	Temperatura mínima	22.1
74632	7	Sololá	710	Panajachel	8	Panajachel	11	Noviembre	2023-11-27T00:00:00	2024-11-08T10:00:00	5	Humedad	63
74633	7	Sololá	710	Panajachel	8	Panajachel	11	Noviembre	2023-11-27T00:00:00	2024-11-08T10:00:00	6	Velocidad del viento	9.7
74634	7	Sololá	710	Panajachel	8	Panajachel	11	Noviembre	2023-11-27T00:00:00	2024-11-08T10:00:00	7	Dirección del viento	9.66
74635	7	Sololá	710	Panajachel	8	Panajachel	11	Noviembre	2023-11-27T00:00:00	2024-11-08T10:00:00	1	Precipitación	0
74636	7	Sololá	710	Panajachel	8	Panajachel	11	Noviembre	2023-11-27T00:00:00	2024-11-08T10:00:00	8	Radiación solar	600
74637	7	Sololá	710	Panajachel	8	Panajachel	11	Noviembre	2023-11-27T00:00:00	2024-11-08T11:00:00	2	Temperatura media	23.7
74638	7	Sololá	710	Panajachel	8	Panajachel	11	Noviembre	2023-11-27T00:00:00	2024-11-08T11:00:00	4	Temperatura máxima	23.7
74639	7	Sololá	710	Panajachel	8	Panajachel	11	Noviembre	2023-11-27T00:00:00	2024-11-08T11:00:00	3	Temperatura mínima	22.8
74640	7	Sololá	710	Panajachel	8	Panajachel	11	Noviembre	2023-11-27T00:00:00	2024-11-08T11:00:00	5	Humedad	62
74641	7	Sololá	710	Panajachel	8	Panajachel	11	Noviembre	2023-11-27T00:00:00	2024-11-08T11:00:00	6	Velocidad del viento	14.5
74642	7	Sololá	710	Panajachel	8	Panajachel	11	Noviembre	2023-11-27T00:00:00	2024-11-08T11:00:00	7	Dirección del viento	14.48
74643	7	Sololá	710	Panajachel	8	Panajachel	11	Noviembre	2023-11-27T00:00:00	2024-11-08T11:00:00	1	Precipitación	0
74644	7	Sololá	710	Panajachel	8	Panajachel	11	Noviembre	2023-11-27T00:00:00	2024-11-08T11:00:00	8	Radiación solar	727
74645	7	Sololá	710	Panajachel	8	Panajachel	11	Noviembre	2023-11-27T00:00:00	2024-11-08T12:00:00	2	Temperatura media	24.6
74646	7	Sololá	710	Panajachel	8	Panajachel	11	Noviembre	2023-11-27T00:00:00	2024-11-08T12:00:00	4	Temperatura máxima	25.1
74647	7	Sololá	710	Panajachel	8	Panajachel	11	Noviembre	2023-11-27T00:00:00	2024-11-08T12:00:00	3	Temperatura mínima	23.7
74648	7	Sololá	710	Panajachel	8	Panajachel	11	Noviembre	2023-11-27T00:00:00	2024-11-08T12:00:00	5	Humedad	61
74649	7	Sololá	710	Panajachel	8	Panajachel	11	Noviembre	2023-11-27T00:00:00	2024-11-08T12:00:00	6	Velocidad del viento	9.7
74650	7	Sololá	710	Panajachel	8	Panajachel	11	Noviembre	2023-11-27T00:00:00	2024-11-08T12:00:00	7	Dirección del viento	9.66
74651	7	Sololá	710	Panajachel	8	Panajachel	11	Noviembre	2023-11-27T00:00:00	2024-11-08T12:00:00	1	Precipitación	0
74652	7	Sololá	710	Panajachel	8	Panajachel	11	Noviembre	2023-11-27T00:00:00	2024-11-08T12:00:00	8	Radiación solar	827
74653	7	Sololá	710	Panajachel	8	Panajachel	11	Noviembre	2023-11-27T00:00:00	2024-11-08T13:00:00	2	Temperatura media	24.7
74654	7	Sololá	710	Panajachel	8	Panajachel	11	Noviembre	2023-11-27T00:00:00	2024-11-08T13:00:00	4	Temperatura máxima	24.7
74655	7	Sololá	710	Panajachel	8	Panajachel	11	Noviembre	2023-11-27T00:00:00	2024-11-08T13:00:00	3	Temperatura mínima	24.2
74656	7	Sololá	710	Panajachel	8	Panajachel	11	Noviembre	2023-11-27T00:00:00	2024-11-08T13:00:00	5	Humedad	61
74657	7	Sololá	710	Panajachel	8	Panajachel	11	Noviembre	2023-11-27T00:00:00	2024-11-08T13:00:00	6	Velocidad del viento	8
74658	7	Sololá	710	Panajachel	8	Panajachel	11	Noviembre	2023-11-27T00:00:00	2024-11-08T13:00:00	7	Dirección del viento	8.05
74659	7	Sololá	710	Panajachel	8	Panajachel	11	Noviembre	2023-11-27T00:00:00	2024-11-08T13:00:00	1	Precipitación	0
74660	7	Sololá	710	Panajachel	8	Panajachel	11	Noviembre	2023-11-27T00:00:00	2024-11-08T13:00:00	8	Radiación solar	861
74661	7	Sololá	710	Panajachel	8	Panajachel	11	Noviembre	2023-11-27T00:00:00	2024-11-08T14:00:00	2	Temperatura media	24.4
74662	7	Sololá	710	Panajachel	8	Panajachel	11	Noviembre	2023-11-27T00:00:00	2024-11-08T14:00:00	4	Temperatura máxima	25.1
74663	7	Sololá	710	Panajachel	8	Panajachel	11	Noviembre	2023-11-27T00:00:00	2024-11-08T14:00:00	3	Temperatura mínima	24.1
74664	7	Sololá	710	Panajachel	8	Panajachel	11	Noviembre	2023-11-27T00:00:00	2024-11-08T14:00:00	5	Humedad	63
74665	7	Sololá	710	Panajachel	8	Panajachel	11	Noviembre	2023-11-27T00:00:00	2024-11-08T14:00:00	6	Velocidad del viento	8
74666	7	Sololá	710	Panajachel	8	Panajachel	11	Noviembre	2023-11-27T00:00:00	2024-11-08T14:00:00	7	Dirección del viento	8.05
74667	7	Sololá	710	Panajachel	8	Panajachel	11	Noviembre	2023-11-27T00:00:00	2024-11-08T14:00:00	1	Precipitación	0
74668	7	Sololá	710	Panajachel	8	Panajachel	11	Noviembre	2023-11-27T00:00:00	2024-11-08T14:00:00	8	Radiación solar	762
74669	7	Sololá	710	Panajachel	8	Panajachel	11	Noviembre	2023-11-27T00:00:00	2024-11-08T15:00:00	2	Temperatura media	23.7
74670	7	Sololá	710	Panajachel	8	Panajachel	11	Noviembre	2023-11-27T00:00:00	2024-11-08T15:00:00	4	Temperatura máxima	24.7
74671	7	Sololá	710	Panajachel	8	Panajachel	11	Noviembre	2023-11-27T00:00:00	2024-11-08T15:00:00	3	Temperatura mínima	23.7
74672	7	Sololá	710	Panajachel	8	Panajachel	11	Noviembre	2023-11-27T00:00:00	2024-11-08T15:00:00	5	Humedad	61
74673	7	Sololá	710	Panajachel	8	Panajachel	11	Noviembre	2023-11-27T00:00:00	2024-11-08T15:00:00	6	Velocidad del viento	8
74674	7	Sololá	710	Panajachel	8	Panajachel	11	Noviembre	2023-11-27T00:00:00	2024-11-08T15:00:00	7	Dirección del viento	8.05
74675	7	Sololá	710	Panajachel	8	Panajachel	11	Noviembre	2023-11-27T00:00:00	2024-11-08T15:00:00	1	Precipitación	0
74676	7	Sololá	710	Panajachel	8	Panajachel	11	Noviembre	2023-11-27T00:00:00	2024-11-08T15:00:00	8	Radiación solar	510
74677	7	Sololá	710	Panajachel	8	Panajachel	11	Noviembre	2023-11-27T00:00:00	2024-11-08T16:00:00	2	Temperatura media	24.1
74678	7	Sololá	710	Panajachel	8	Panajachel	11	Noviembre	2023-11-27T00:00:00	2024-11-08T16:00:00	4	Temperatura máxima	24.5
74679	7	Sololá	710	Panajachel	8	Panajachel	11	Noviembre	2023-11-27T00:00:00	2024-11-08T16:00:00	3	Temperatura mínima	23.6
74680	7	Sololá	710	Panajachel	8	Panajachel	11	Noviembre	2023-11-27T00:00:00	2024-11-08T16:00:00	5	Humedad	58
74681	7	Sololá	710	Panajachel	8	Panajachel	11	Noviembre	2023-11-27T00:00:00	2024-11-08T16:00:00	6	Velocidad del viento	6.4
74682	7	Sololá	710	Panajachel	8	Panajachel	11	Noviembre	2023-11-27T00:00:00	2024-11-08T16:00:00	7	Dirección del viento	6.44
74683	7	Sololá	710	Panajachel	8	Panajachel	11	Noviembre	2023-11-27T00:00:00	2024-11-08T16:00:00	1	Precipitación	0
74684	7	Sololá	710	Panajachel	8	Panajachel	11	Noviembre	2023-11-27T00:00:00	2024-11-08T16:00:00	8	Radiación solar	358
74685	7	Sololá	710	Panajachel	8	Panajachel	11	Noviembre	2023-11-27T00:00:00	2024-11-08T17:00:00	2	Temperatura media	23
74686	7	Sololá	710	Panajachel	8	Panajachel	11	Noviembre	2023-11-27T00:00:00	2024-11-08T17:00:00	4	Temperatura máxima	24.1
74687	7	Sololá	710	Panajachel	8	Panajachel	11	Noviembre	2023-11-27T00:00:00	2024-11-08T17:00:00	3	Temperatura mínima	22.9
74688	7	Sololá	710	Panajachel	8	Panajachel	11	Noviembre	2023-11-27T00:00:00	2024-11-08T17:00:00	5	Humedad	61
74689	7	Sololá	710	Panajachel	8	Panajachel	11	Noviembre	2023-11-27T00:00:00	2024-11-08T17:00:00	6	Velocidad del viento	9.7
74690	7	Sololá	710	Panajachel	8	Panajachel	11	Noviembre	2023-11-27T00:00:00	2024-11-08T17:00:00	7	Dirección del viento	9.66
74691	7	Sololá	710	Panajachel	8	Panajachel	11	Noviembre	2023-11-27T00:00:00	2024-11-08T17:00:00	1	Precipitación	0
74692	7	Sololá	710	Panajachel	8	Panajachel	11	Noviembre	2023-11-27T00:00:00	2024-11-08T17:00:00	8	Radiación solar	156
74693	7	Sololá	710	Panajachel	8	Panajachel	11	Noviembre	2023-11-27T00:00:00	2024-11-08T18:00:00	2	Temperatura media	21.4
74694	7	Sololá	710	Panajachel	8	Panajachel	11	Noviembre	2023-11-27T00:00:00	2024-11-08T18:00:00	4	Temperatura máxima	23
74695	7	Sololá	710	Panajachel	8	Panajachel	11	Noviembre	2023-11-27T00:00:00	2024-11-08T18:00:00	3	Temperatura mínima	21.4
74696	7	Sololá	710	Panajachel	8	Panajachel	11	Noviembre	2023-11-27T00:00:00	2024-11-08T18:00:00	5	Humedad	66
74697	7	Sololá	710	Panajachel	8	Panajachel	11	Noviembre	2023-11-27T00:00:00	2024-11-08T18:00:00	6	Velocidad del viento	4.8
74698	7	Sololá	710	Panajachel	8	Panajachel	11	Noviembre	2023-11-27T00:00:00	2024-11-08T18:00:00	7	Dirección del viento	4.83
74699	7	Sololá	710	Panajachel	8	Panajachel	11	Noviembre	2023-11-27T00:00:00	2024-11-08T18:00:00	1	Precipitación	0
74700	7	Sololá	710	Panajachel	8	Panajachel	11	Noviembre	2023-11-27T00:00:00	2024-11-08T18:00:00	8	Radiación solar	11
74701	7	Sololá	710	Panajachel	8	Panajachel	11	Noviembre	2023-11-27T00:00:00	2024-11-08T19:00:00	2	Temperatura media	20.8
74702	7	Sololá	710	Panajachel	8	Panajachel	11	Noviembre	2023-11-27T00:00:00	2024-11-08T19:00:00	4	Temperatura máxima	21.4
74703	7	Sololá	710	Panajachel	8	Panajachel	11	Noviembre	2023-11-27T00:00:00	2024-11-08T19:00:00	3	Temperatura mínima	20.8
74704	7	Sololá	710	Panajachel	8	Panajachel	11	Noviembre	2023-11-27T00:00:00	2024-11-08T19:00:00	5	Humedad	69
74705	7	Sololá	710	Panajachel	8	Panajachel	11	Noviembre	2023-11-27T00:00:00	2024-11-08T19:00:00	6	Velocidad del viento	3.2
74706	7	Sololá	710	Panajachel	8	Panajachel	11	Noviembre	2023-11-27T00:00:00	2024-11-08T19:00:00	7	Dirección del viento	3.22
74707	7	Sololá	710	Panajachel	8	Panajachel	11	Noviembre	2023-11-27T00:00:00	2024-11-08T19:00:00	1	Precipitación	0
74708	7	Sololá	710	Panajachel	8	Panajachel	11	Noviembre	2023-11-27T00:00:00	2024-11-08T19:00:00	8	Radiación solar	0
74709	7	Sololá	710	Panajachel	8	Panajachel	11	Noviembre	2023-11-27T00:00:00	2024-11-08T20:00:00	2	Temperatura media	20.6
74710	7	Sololá	710	Panajachel	8	Panajachel	11	Noviembre	2023-11-27T00:00:00	2024-11-08T20:00:00	4	Temperatura máxima	20.9
74711	7	Sololá	710	Panajachel	8	Panajachel	11	Noviembre	2023-11-27T00:00:00	2024-11-08T20:00:00	3	Temperatura mínima	20.6
74712	7	Sololá	710	Panajachel	8	Panajachel	11	Noviembre	2023-11-27T00:00:00	2024-11-08T20:00:00	5	Humedad	68
74713	7	Sololá	710	Panajachel	8	Panajachel	11	Noviembre	2023-11-27T00:00:00	2024-11-08T20:00:00	6	Velocidad del viento	4.8
74714	7	Sololá	710	Panajachel	8	Panajachel	11	Noviembre	2023-11-27T00:00:00	2024-11-08T20:00:00	7	Dirección del viento	4.83
74715	7	Sololá	710	Panajachel	8	Panajachel	11	Noviembre	2023-11-27T00:00:00	2024-11-08T20:00:00	1	Precipitación	0
74716	7	Sololá	710	Panajachel	8	Panajachel	11	Noviembre	2023-11-27T00:00:00	2024-11-08T20:00:00	8	Radiación solar	0
74717	7	Sololá	710	Panajachel	8	Panajachel	11	Noviembre	2023-11-27T00:00:00	2024-11-08T21:00:00	2	Temperatura media	20.3
74718	7	Sololá	710	Panajachel	8	Panajachel	11	Noviembre	2023-11-27T00:00:00	2024-11-08T21:00:00	4	Temperatura máxima	20.6
74719	7	Sololá	710	Panajachel	8	Panajachel	11	Noviembre	2023-11-27T00:00:00	2024-11-08T21:00:00	3	Temperatura mínima	19.9
74720	7	Sololá	710	Panajachel	8	Panajachel	11	Noviembre	2023-11-27T00:00:00	2024-11-08T21:00:00	5	Humedad	69
74721	7	Sololá	710	Panajachel	8	Panajachel	11	Noviembre	2023-11-27T00:00:00	2024-11-08T21:00:00	6	Velocidad del viento	3.2
74722	7	Sololá	710	Panajachel	8	Panajachel	11	Noviembre	2023-11-27T00:00:00	2024-11-08T21:00:00	7	Dirección del viento	3.22
74723	7	Sololá	710	Panajachel	8	Panajachel	11	Noviembre	2023-11-27T00:00:00	2024-11-08T21:00:00	1	Precipitación	0
74724	7	Sololá	710	Panajachel	8	Panajachel	11	Noviembre	2023-11-27T00:00:00	2024-11-08T21:00:00	8	Radiación solar	0
74725	7	Sololá	710	Panajachel	8	Panajachel	11	Noviembre	2023-11-27T00:00:00	2024-11-08T22:00:00	2	Temperatura media	20.3
74726	7	Sololá	710	Panajachel	8	Panajachel	11	Noviembre	2023-11-27T00:00:00	2024-11-08T22:00:00	4	Temperatura máxima	20.4
74727	7	Sololá	710	Panajachel	8	Panajachel	11	Noviembre	2023-11-27T00:00:00	2024-11-08T22:00:00	3	Temperatura mínima	20.2
74728	7	Sololá	710	Panajachel	8	Panajachel	11	Noviembre	2023-11-27T00:00:00	2024-11-08T22:00:00	5	Humedad	68
74729	7	Sololá	710	Panajachel	8	Panajachel	11	Noviembre	2023-11-27T00:00:00	2024-11-08T22:00:00	6	Velocidad del viento	8
74730	7	Sololá	710	Panajachel	8	Panajachel	11	Noviembre	2023-11-27T00:00:00	2024-11-08T22:00:00	7	Dirección del viento	8.05
74731	7	Sololá	710	Panajachel	8	Panajachel	11	Noviembre	2023-11-27T00:00:00	2024-11-08T22:00:00	1	Precipitación	0
74732	7	Sololá	710	Panajachel	8	Panajachel	11	Noviembre	2023-11-27T00:00:00	2024-11-08T22:00:00	8	Radiación solar	0
74733	7	Sololá	710	Panajachel	8	Panajachel	11	Noviembre	2023-11-27T00:00:00	2024-11-08T23:00:00	2	Temperatura media	19.2
74734	7	Sololá	710	Panajachel	8	Panajachel	11	Noviembre	2023-11-27T00:00:00	2024-11-08T23:00:00	4	Temperatura máxima	20.3
74735	7	Sololá	710	Panajachel	8	Panajachel	11	Noviembre	2023-11-27T00:00:00	2024-11-08T23:00:00	3	Temperatura mínima	19
74736	7	Sololá	710	Panajachel	8	Panajachel	11	Noviembre	2023-11-27T00:00:00	2024-11-08T23:00:00	5	Humedad	71
74737	7	Sololá	710	Panajachel	8	Panajachel	11	Noviembre	2023-11-27T00:00:00	2024-11-08T23:00:00	6	Velocidad del viento	1.6
74738	7	Sololá	710	Panajachel	8	Panajachel	11	Noviembre	2023-11-27T00:00:00	2024-11-08T23:00:00	7	Dirección del viento	1.61
74739	7	Sololá	710	Panajachel	8	Panajachel	11	Noviembre	2023-11-27T00:00:00	2024-11-08T23:00:00	1	Precipitación	0
74740	7	Sololá	710	Panajachel	8	Panajachel	11	Noviembre	2023-11-27T00:00:00	2024-11-08T23:00:00	8	Radiación solar	0
74741	7	Sololá	710	Panajachel	8	Panajachel	11	Noviembre	2023-11-28T00:00:00	2024-11-08T00:00:00	2	Temperatura media	20
74742	7	Sololá	710	Panajachel	8	Panajachel	11	Noviembre	2023-11-28T00:00:00	2024-11-08T00:00:00	4	Temperatura máxima	20.2
74743	7	Sololá	710	Panajachel	8	Panajachel	11	Noviembre	2023-11-28T00:00:00	2024-11-08T00:00:00	3	Temperatura mínima	19.2
74744	7	Sololá	710	Panajachel	8	Panajachel	11	Noviembre	2023-11-28T00:00:00	2024-11-08T00:00:00	5	Humedad	68
74745	7	Sololá	710	Panajachel	8	Panajachel	11	Noviembre	2023-11-28T00:00:00	2024-11-08T00:00:00	6	Velocidad del viento	6.4
74746	7	Sololá	710	Panajachel	8	Panajachel	11	Noviembre	2023-11-28T00:00:00	2024-11-08T00:00:00	7	Dirección del viento	6.44
74747	7	Sololá	710	Panajachel	8	Panajachel	11	Noviembre	2023-11-28T00:00:00	2024-11-08T00:00:00	1	Precipitación	0
74748	7	Sololá	710	Panajachel	8	Panajachel	11	Noviembre	2023-11-28T00:00:00	2024-11-08T00:00:00	8	Radiación solar	0
74749	7	Sololá	710	Panajachel	8	Panajachel	11	Noviembre	2023-11-28T00:00:00	2024-11-08T01:00:00	2	Temperatura media	19.9
74750	7	Sololá	710	Panajachel	8	Panajachel	11	Noviembre	2023-11-28T00:00:00	2024-11-08T01:00:00	4	Temperatura máxima	20
74751	7	Sololá	710	Panajachel	8	Panajachel	11	Noviembre	2023-11-28T00:00:00	2024-11-08T01:00:00	3	Temperatura mínima	19.8
74752	7	Sololá	710	Panajachel	8	Panajachel	11	Noviembre	2023-11-28T00:00:00	2024-11-08T01:00:00	5	Humedad	69
74753	7	Sololá	710	Panajachel	8	Panajachel	11	Noviembre	2023-11-28T00:00:00	2024-11-08T01:00:00	6	Velocidad del viento	8
74754	7	Sololá	710	Panajachel	8	Panajachel	11	Noviembre	2023-11-28T00:00:00	2024-11-08T01:00:00	7	Dirección del viento	8.05
74755	7	Sololá	710	Panajachel	8	Panajachel	11	Noviembre	2023-11-28T00:00:00	2024-11-08T01:00:00	1	Precipitación	0
74756	7	Sololá	710	Panajachel	8	Panajachel	11	Noviembre	2023-11-28T00:00:00	2024-11-08T01:00:00	8	Radiación solar	0
74757	7	Sololá	710	Panajachel	8	Panajachel	11	Noviembre	2023-11-28T00:00:00	2024-11-08T02:00:00	2	Temperatura media	19.4
74758	7	Sololá	710	Panajachel	8	Panajachel	11	Noviembre	2023-11-28T00:00:00	2024-11-08T02:00:00	4	Temperatura máxima	19.9
74759	7	Sololá	710	Panajachel	8	Panajachel	11	Noviembre	2023-11-28T00:00:00	2024-11-08T02:00:00	3	Temperatura mínima	19.3
74760	7	Sololá	710	Panajachel	8	Panajachel	11	Noviembre	2023-11-28T00:00:00	2024-11-08T02:00:00	5	Humedad	71
74761	7	Sololá	710	Panajachel	8	Panajachel	11	Noviembre	2023-11-28T00:00:00	2024-11-08T02:00:00	6	Velocidad del viento	6.4
74762	7	Sololá	710	Panajachel	8	Panajachel	11	Noviembre	2023-11-28T00:00:00	2024-11-08T02:00:00	7	Dirección del viento	6.44
74763	7	Sololá	710	Panajachel	8	Panajachel	11	Noviembre	2023-11-28T00:00:00	2024-11-08T02:00:00	1	Precipitación	0
74764	7	Sololá	710	Panajachel	8	Panajachel	11	Noviembre	2023-11-28T00:00:00	2024-11-08T02:00:00	8	Radiación solar	0
74765	7	Sololá	710	Panajachel	8	Panajachel	11	Noviembre	2023-11-28T00:00:00	2024-11-08T03:00:00	2	Temperatura media	17.8
74766	7	Sololá	710	Panajachel	8	Panajachel	11	Noviembre	2023-11-28T00:00:00	2024-11-08T03:00:00	4	Temperatura máxima	19.7
74767	7	Sololá	710	Panajachel	8	Panajachel	11	Noviembre	2023-11-28T00:00:00	2024-11-08T03:00:00	3	Temperatura mínima	17.8
74768	7	Sololá	710	Panajachel	8	Panajachel	11	Noviembre	2023-11-28T00:00:00	2024-11-08T03:00:00	5	Humedad	77
74769	7	Sololá	710	Panajachel	8	Panajachel	11	Noviembre	2023-11-28T00:00:00	2024-11-08T03:00:00	6	Velocidad del viento	3.2
74770	7	Sololá	710	Panajachel	8	Panajachel	11	Noviembre	2023-11-28T00:00:00	2024-11-08T03:00:00	7	Dirección del viento	3.22
74771	7	Sololá	710	Panajachel	8	Panajachel	11	Noviembre	2023-11-28T00:00:00	2024-11-08T03:00:00	1	Precipitación	0
74772	7	Sololá	710	Panajachel	8	Panajachel	11	Noviembre	2023-11-28T00:00:00	2024-11-08T03:00:00	8	Radiación solar	0
74773	7	Sololá	710	Panajachel	8	Panajachel	11	Noviembre	2023-11-28T00:00:00	2024-11-08T04:00:00	2	Temperatura media	19.3
74774	7	Sololá	710	Panajachel	8	Panajachel	11	Noviembre	2023-11-28T00:00:00	2024-11-08T04:00:00	4	Temperatura máxima	19.3
74775	7	Sololá	710	Panajachel	8	Panajachel	11	Noviembre	2023-11-28T00:00:00	2024-11-08T04:00:00	3	Temperatura mínima	17.6
74776	7	Sololá	710	Panajachel	8	Panajachel	11	Noviembre	2023-11-28T00:00:00	2024-11-08T04:00:00	5	Humedad	73
74777	7	Sololá	710	Panajachel	8	Panajachel	11	Noviembre	2023-11-28T00:00:00	2024-11-08T04:00:00	6	Velocidad del viento	4.8
74778	7	Sololá	710	Panajachel	8	Panajachel	11	Noviembre	2023-11-28T00:00:00	2024-11-08T04:00:00	7	Dirección del viento	4.83
74779	7	Sololá	710	Panajachel	8	Panajachel	11	Noviembre	2023-11-28T00:00:00	2024-11-08T04:00:00	1	Precipitación	0
74780	7	Sololá	710	Panajachel	8	Panajachel	11	Noviembre	2023-11-28T00:00:00	2024-11-08T04:00:00	8	Radiación solar	0
74781	7	Sololá	710	Panajachel	8	Panajachel	11	Noviembre	2023-11-28T00:00:00	2024-11-08T05:00:00	2	Temperatura media	17.3
74782	7	Sololá	710	Panajachel	8	Panajachel	11	Noviembre	2023-11-28T00:00:00	2024-11-08T05:00:00	4	Temperatura máxima	19.8
74783	7	Sololá	710	Panajachel	8	Panajachel	11	Noviembre	2023-11-28T00:00:00	2024-11-08T05:00:00	3	Temperatura mínima	17.3
74784	7	Sololá	710	Panajachel	8	Panajachel	11	Noviembre	2023-11-28T00:00:00	2024-11-08T05:00:00	5	Humedad	81
74785	7	Sololá	710	Panajachel	8	Panajachel	11	Noviembre	2023-11-28T00:00:00	2024-11-08T05:00:00	6	Velocidad del viento	1.6
74786	7	Sololá	710	Panajachel	8	Panajachel	11	Noviembre	2023-11-28T00:00:00	2024-11-08T05:00:00	7	Dirección del viento	1.61
74787	7	Sololá	710	Panajachel	8	Panajachel	11	Noviembre	2023-11-28T00:00:00	2024-11-08T05:00:00	1	Precipitación	0
74788	7	Sololá	710	Panajachel	8	Panajachel	11	Noviembre	2023-11-28T00:00:00	2024-11-08T05:00:00	8	Radiación solar	0
74789	7	Sololá	710	Panajachel	8	Panajachel	11	Noviembre	2023-11-28T00:00:00	2024-11-08T06:00:00	2	Temperatura media	18.7
74790	7	Sololá	710	Panajachel	8	Panajachel	11	Noviembre	2023-11-28T00:00:00	2024-11-08T06:00:00	4	Temperatura máxima	18.7
74791	7	Sololá	710	Panajachel	8	Panajachel	11	Noviembre	2023-11-28T00:00:00	2024-11-08T06:00:00	3	Temperatura mínima	17.3
74792	7	Sololá	710	Panajachel	8	Panajachel	11	Noviembre	2023-11-28T00:00:00	2024-11-08T06:00:00	5	Humedad	77
74793	7	Sololá	710	Panajachel	8	Panajachel	11	Noviembre	2023-11-28T00:00:00	2024-11-08T06:00:00	6	Velocidad del viento	1.6
74794	7	Sololá	710	Panajachel	8	Panajachel	11	Noviembre	2023-11-28T00:00:00	2024-11-08T06:00:00	7	Dirección del viento	1.61
74795	7	Sololá	710	Panajachel	8	Panajachel	11	Noviembre	2023-11-28T00:00:00	2024-11-08T06:00:00	1	Precipitación	0
74796	7	Sololá	710	Panajachel	8	Panajachel	11	Noviembre	2023-11-28T00:00:00	2024-11-08T06:00:00	8	Radiación solar	0
74797	7	Sololá	710	Panajachel	8	Panajachel	11	Noviembre	2023-11-28T00:00:00	2024-11-08T07:00:00	2	Temperatura media	18.3
74798	7	Sololá	710	Panajachel	8	Panajachel	11	Noviembre	2023-11-28T00:00:00	2024-11-08T07:00:00	4	Temperatura máxima	18.7
74799	7	Sololá	710	Panajachel	8	Panajachel	11	Noviembre	2023-11-28T00:00:00	2024-11-08T07:00:00	3	Temperatura mínima	17.7
74800	7	Sololá	710	Panajachel	8	Panajachel	11	Noviembre	2023-11-28T00:00:00	2024-11-08T07:00:00	5	Humedad	80
74801	7	Sololá	710	Panajachel	8	Panajachel	11	Noviembre	2023-11-28T00:00:00	2024-11-08T07:00:00	6	Velocidad del viento	1.6
74802	7	Sololá	710	Panajachel	8	Panajachel	11	Noviembre	2023-11-28T00:00:00	2024-11-08T07:00:00	7	Dirección del viento	1.61
74803	7	Sololá	710	Panajachel	8	Panajachel	11	Noviembre	2023-11-28T00:00:00	2024-11-08T07:00:00	1	Precipitación	0
74804	7	Sololá	710	Panajachel	8	Panajachel	11	Noviembre	2023-11-28T00:00:00	2024-11-08T07:00:00	8	Radiación solar	30
74805	7	Sololá	710	Panajachel	8	Panajachel	11	Noviembre	2023-11-28T00:00:00	2024-11-08T08:00:00	2	Temperatura media	22.3
74806	7	Sololá	710	Panajachel	8	Panajachel	11	Noviembre	2023-11-28T00:00:00	2024-11-08T08:00:00	4	Temperatura máxima	22.3
74807	7	Sololá	710	Panajachel	8	Panajachel	11	Noviembre	2023-11-28T00:00:00	2024-11-08T08:00:00	3	Temperatura mínima	18.3
74808	7	Sololá	710	Panajachel	8	Panajachel	11	Noviembre	2023-11-28T00:00:00	2024-11-08T08:00:00	5	Humedad	68
74809	7	Sololá	710	Panajachel	8	Panajachel	11	Noviembre	2023-11-28T00:00:00	2024-11-08T08:00:00	6	Velocidad del viento	3.2
74810	7	Sololá	710	Panajachel	8	Panajachel	11	Noviembre	2023-11-28T00:00:00	2024-11-08T08:00:00	7	Dirección del viento	3.22
74811	7	Sololá	710	Panajachel	8	Panajachel	11	Noviembre	2023-11-28T00:00:00	2024-11-08T08:00:00	1	Precipitación	0
74812	7	Sololá	710	Panajachel	8	Panajachel	11	Noviembre	2023-11-28T00:00:00	2024-11-08T08:00:00	8	Radiación solar	226
74813	7	Sololá	710	Panajachel	8	Panajachel	11	Noviembre	2023-11-28T00:00:00	2024-11-08T09:00:00	2	Temperatura media	22.6
74814	7	Sololá	710	Panajachel	8	Panajachel	11	Noviembre	2023-11-28T00:00:00	2024-11-08T09:00:00	4	Temperatura máxima	22.9
74815	7	Sololá	710	Panajachel	8	Panajachel	11	Noviembre	2023-11-28T00:00:00	2024-11-08T09:00:00	3	Temperatura mínima	22.3
74816	7	Sololá	710	Panajachel	8	Panajachel	11	Noviembre	2023-11-28T00:00:00	2024-11-08T09:00:00	5	Humedad	68
74817	7	Sololá	710	Panajachel	8	Panajachel	11	Noviembre	2023-11-28T00:00:00	2024-11-08T09:00:00	6	Velocidad del viento	8
74818	7	Sololá	710	Panajachel	8	Panajachel	11	Noviembre	2023-11-28T00:00:00	2024-11-08T09:00:00	7	Dirección del viento	8.05
74819	7	Sololá	710	Panajachel	8	Panajachel	11	Noviembre	2023-11-28T00:00:00	2024-11-08T09:00:00	1	Precipitación	0
74820	7	Sololá	710	Panajachel	8	Panajachel	11	Noviembre	2023-11-28T00:00:00	2024-11-08T09:00:00	8	Radiación solar	429
74821	7	Sololá	710	Panajachel	8	Panajachel	11	Noviembre	2023-11-28T00:00:00	2024-11-08T10:00:00	2	Temperatura media	24.6
74822	7	Sololá	710	Panajachel	8	Panajachel	11	Noviembre	2023-11-28T00:00:00	2024-11-08T10:00:00	4	Temperatura máxima	24.6
74823	7	Sololá	710	Panajachel	8	Panajachel	11	Noviembre	2023-11-28T00:00:00	2024-11-08T10:00:00	3	Temperatura mínima	22.4
74824	7	Sololá	710	Panajachel	8	Panajachel	11	Noviembre	2023-11-28T00:00:00	2024-11-08T10:00:00	5	Humedad	63
74825	7	Sololá	710	Panajachel	8	Panajachel	11	Noviembre	2023-11-28T00:00:00	2024-11-08T10:00:00	6	Velocidad del viento	6.4
74826	7	Sololá	710	Panajachel	8	Panajachel	11	Noviembre	2023-11-28T00:00:00	2024-11-08T10:00:00	7	Dirección del viento	6.44
74827	7	Sololá	710	Panajachel	8	Panajachel	11	Noviembre	2023-11-28T00:00:00	2024-11-08T10:00:00	1	Precipitación	0
74828	7	Sololá	710	Panajachel	8	Panajachel	11	Noviembre	2023-11-28T00:00:00	2024-11-08T10:00:00	8	Radiación solar	608
74829	7	Sololá	710	Panajachel	8	Panajachel	11	Noviembre	2023-11-28T00:00:00	2024-11-08T11:00:00	2	Temperatura media	25.3
74830	7	Sololá	710	Panajachel	8	Panajachel	11	Noviembre	2023-11-28T00:00:00	2024-11-08T11:00:00	4	Temperatura máxima	25.4
74831	7	Sololá	710	Panajachel	8	Panajachel	11	Noviembre	2023-11-28T00:00:00	2024-11-08T11:00:00	3	Temperatura mínima	24.3
74832	7	Sololá	710	Panajachel	8	Panajachel	11	Noviembre	2023-11-28T00:00:00	2024-11-08T11:00:00	5	Humedad	61
74833	7	Sololá	710	Panajachel	8	Panajachel	11	Noviembre	2023-11-28T00:00:00	2024-11-08T11:00:00	6	Velocidad del viento	4.8
74834	7	Sololá	710	Panajachel	8	Panajachel	11	Noviembre	2023-11-28T00:00:00	2024-11-08T11:00:00	7	Dirección del viento	4.83
74835	7	Sololá	710	Panajachel	8	Panajachel	11	Noviembre	2023-11-28T00:00:00	2024-11-08T11:00:00	1	Precipitación	0
74836	7	Sololá	710	Panajachel	8	Panajachel	11	Noviembre	2023-11-28T00:00:00	2024-11-08T11:00:00	8	Radiación solar	741
74837	7	Sololá	710	Panajachel	8	Panajachel	11	Noviembre	2023-11-28T00:00:00	2024-11-08T12:00:00	2	Temperatura media	24.6
74838	7	Sololá	710	Panajachel	8	Panajachel	11	Noviembre	2023-11-28T00:00:00	2024-11-08T12:00:00	4	Temperatura máxima	25.8
74839	7	Sololá	710	Panajachel	8	Panajachel	11	Noviembre	2023-11-28T00:00:00	2024-11-08T12:00:00	3	Temperatura mínima	24.5
74840	7	Sololá	710	Panajachel	8	Panajachel	11	Noviembre	2023-11-28T00:00:00	2024-11-08T12:00:00	5	Humedad	64
74841	7	Sololá	710	Panajachel	8	Panajachel	11	Noviembre	2023-11-28T00:00:00	2024-11-08T12:00:00	6	Velocidad del viento	8
74842	7	Sololá	710	Panajachel	8	Panajachel	11	Noviembre	2023-11-28T00:00:00	2024-11-08T12:00:00	7	Dirección del viento	8.05
74843	7	Sololá	710	Panajachel	8	Panajachel	11	Noviembre	2023-11-28T00:00:00	2024-11-08T12:00:00	1	Precipitación	0
74844	7	Sololá	710	Panajachel	8	Panajachel	11	Noviembre	2023-11-28T00:00:00	2024-11-08T12:00:00	8	Radiación solar	773
74845	7	Sololá	710	Panajachel	8	Panajachel	11	Noviembre	2023-11-28T00:00:00	2024-11-08T13:00:00	2	Temperatura media	25.3
74846	7	Sololá	710	Panajachel	8	Panajachel	11	Noviembre	2023-11-28T00:00:00	2024-11-08T13:00:00	4	Temperatura máxima	25.4
74847	7	Sololá	710	Panajachel	8	Panajachel	11	Noviembre	2023-11-28T00:00:00	2024-11-08T13:00:00	3	Temperatura mínima	24.4
74848	7	Sololá	710	Panajachel	8	Panajachel	11	Noviembre	2023-11-28T00:00:00	2024-11-08T13:00:00	5	Humedad	62
74849	7	Sololá	710	Panajachel	8	Panajachel	11	Noviembre	2023-11-28T00:00:00	2024-11-08T13:00:00	6	Velocidad del viento	8
74850	7	Sololá	710	Panajachel	8	Panajachel	11	Noviembre	2023-11-28T00:00:00	2024-11-08T13:00:00	7	Dirección del viento	8.05
74851	7	Sololá	710	Panajachel	8	Panajachel	11	Noviembre	2023-11-28T00:00:00	2024-11-08T13:00:00	1	Precipitación	0
74852	7	Sololá	710	Panajachel	8	Panajachel	11	Noviembre	2023-11-28T00:00:00	2024-11-08T13:00:00	8	Radiación solar	565
74853	7	Sololá	710	Panajachel	8	Panajachel	11	Noviembre	2023-11-28T00:00:00	2024-11-08T14:00:00	2	Temperatura media	25.2
74854	7	Sololá	710	Panajachel	8	Panajachel	11	Noviembre	2023-11-28T00:00:00	2024-11-08T14:00:00	4	Temperatura máxima	25.7
74855	7	Sololá	710	Panajachel	8	Panajachel	11	Noviembre	2023-11-28T00:00:00	2024-11-08T14:00:00	3	Temperatura mínima	25.1
74856	7	Sololá	710	Panajachel	8	Panajachel	11	Noviembre	2023-11-28T00:00:00	2024-11-08T14:00:00	5	Humedad	61
74857	7	Sololá	710	Panajachel	8	Panajachel	11	Noviembre	2023-11-28T00:00:00	2024-11-08T14:00:00	6	Velocidad del viento	8
74858	7	Sololá	710	Panajachel	8	Panajachel	11	Noviembre	2023-11-28T00:00:00	2024-11-08T14:00:00	7	Dirección del viento	8.05
74859	7	Sololá	710	Panajachel	8	Panajachel	11	Noviembre	2023-11-28T00:00:00	2024-11-08T14:00:00	1	Precipitación	0
74860	7	Sololá	710	Panajachel	8	Panajachel	11	Noviembre	2023-11-28T00:00:00	2024-11-08T14:00:00	8	Radiación solar	766
74861	7	Sololá	710	Panajachel	8	Panajachel	11	Noviembre	2023-11-28T00:00:00	2024-11-08T15:00:00	2	Temperatura media	24.1
74862	7	Sololá	710	Panajachel	8	Panajachel	11	Noviembre	2023-11-28T00:00:00	2024-11-08T15:00:00	4	Temperatura máxima	25.2
74863	7	Sololá	710	Panajachel	8	Panajachel	11	Noviembre	2023-11-28T00:00:00	2024-11-08T15:00:00	3	Temperatura mínima	23.7
74864	7	Sololá	710	Panajachel	8	Panajachel	11	Noviembre	2023-11-28T00:00:00	2024-11-08T15:00:00	5	Humedad	65
74865	7	Sololá	710	Panajachel	8	Panajachel	11	Noviembre	2023-11-28T00:00:00	2024-11-08T15:00:00	6	Velocidad del viento	8
74866	7	Sololá	710	Panajachel	8	Panajachel	11	Noviembre	2023-11-28T00:00:00	2024-11-08T15:00:00	7	Dirección del viento	8.05
74867	7	Sololá	710	Panajachel	8	Panajachel	11	Noviembre	2023-11-28T00:00:00	2024-11-08T15:00:00	1	Precipitación	0
74868	7	Sololá	710	Panajachel	8	Panajachel	11	Noviembre	2023-11-28T00:00:00	2024-11-08T15:00:00	8	Radiación solar	306
74869	7	Sololá	710	Panajachel	8	Panajachel	11	Noviembre	2023-11-28T00:00:00	2024-11-08T16:00:00	2	Temperatura media	24
74870	7	Sololá	710	Panajachel	8	Panajachel	11	Noviembre	2023-11-28T00:00:00	2024-11-08T16:00:00	4	Temperatura máxima	24.6
74871	7	Sololá	710	Panajachel	8	Panajachel	11	Noviembre	2023-11-28T00:00:00	2024-11-08T16:00:00	3	Temperatura mínima	23.8
74872	7	Sololá	710	Panajachel	8	Panajachel	11	Noviembre	2023-11-28T00:00:00	2024-11-08T16:00:00	5	Humedad	65
74873	7	Sololá	710	Panajachel	8	Panajachel	11	Noviembre	2023-11-28T00:00:00	2024-11-08T16:00:00	6	Velocidad del viento	8
74874	7	Sololá	710	Panajachel	8	Panajachel	11	Noviembre	2023-11-28T00:00:00	2024-11-08T16:00:00	7	Dirección del viento	8.05
74875	7	Sololá	710	Panajachel	8	Panajachel	11	Noviembre	2023-11-28T00:00:00	2024-11-08T16:00:00	1	Precipitación	0
74876	7	Sololá	710	Panajachel	8	Panajachel	11	Noviembre	2023-11-28T00:00:00	2024-11-08T16:00:00	8	Radiación solar	264
74877	7	Sololá	710	Panajachel	8	Panajachel	11	Noviembre	2023-11-28T00:00:00	2024-11-08T17:00:00	2	Temperatura media	23.3
74878	7	Sololá	710	Panajachel	8	Panajachel	11	Noviembre	2023-11-28T00:00:00	2024-11-08T17:00:00	4	Temperatura máxima	24.1
74879	7	Sololá	710	Panajachel	8	Panajachel	11	Noviembre	2023-11-28T00:00:00	2024-11-08T17:00:00	3	Temperatura mínima	23.1
74880	7	Sololá	710	Panajachel	8	Panajachel	11	Noviembre	2023-11-28T00:00:00	2024-11-08T17:00:00	5	Humedad	65
74881	7	Sololá	710	Panajachel	8	Panajachel	11	Noviembre	2023-11-28T00:00:00	2024-11-08T17:00:00	6	Velocidad del viento	8
74882	7	Sololá	710	Panajachel	8	Panajachel	11	Noviembre	2023-11-28T00:00:00	2024-11-08T17:00:00	7	Dirección del viento	8.05
74883	7	Sololá	710	Panajachel	8	Panajachel	11	Noviembre	2023-11-28T00:00:00	2024-11-08T17:00:00	1	Precipitación	0
74884	7	Sololá	710	Panajachel	8	Panajachel	11	Noviembre	2023-11-28T00:00:00	2024-11-08T17:00:00	8	Radiación solar	109
74885	7	Sololá	710	Panajachel	8	Panajachel	11	Noviembre	2023-11-28T00:00:00	2024-11-08T18:00:00	2	Temperatura media	22
74886	7	Sololá	710	Panajachel	8	Panajachel	11	Noviembre	2023-11-28T00:00:00	2024-11-08T18:00:00	4	Temperatura máxima	23.4
74887	7	Sololá	710	Panajachel	8	Panajachel	11	Noviembre	2023-11-28T00:00:00	2024-11-08T18:00:00	3	Temperatura mínima	21.9
74888	7	Sololá	710	Panajachel	8	Panajachel	11	Noviembre	2023-11-28T00:00:00	2024-11-08T18:00:00	5	Humedad	69
74889	7	Sololá	710	Panajachel	8	Panajachel	11	Noviembre	2023-11-28T00:00:00	2024-11-08T18:00:00	6	Velocidad del viento	4.8
74890	7	Sololá	710	Panajachel	8	Panajachel	11	Noviembre	2023-11-28T00:00:00	2024-11-08T18:00:00	7	Dirección del viento	4.83
74891	7	Sololá	710	Panajachel	8	Panajachel	11	Noviembre	2023-11-28T00:00:00	2024-11-08T18:00:00	1	Precipitación	0
74892	7	Sololá	710	Panajachel	8	Panajachel	11	Noviembre	2023-11-28T00:00:00	2024-11-08T18:00:00	8	Radiación solar	15
74893	7	Sololá	710	Panajachel	8	Panajachel	11	Noviembre	2023-11-28T00:00:00	2024-11-08T19:00:00	2	Temperatura media	21.6
74894	7	Sololá	710	Panajachel	8	Panajachel	11	Noviembre	2023-11-28T00:00:00	2024-11-08T19:00:00	4	Temperatura máxima	22
74895	7	Sololá	710	Panajachel	8	Panajachel	11	Noviembre	2023-11-28T00:00:00	2024-11-08T19:00:00	3	Temperatura mínima	21.6
74896	7	Sololá	710	Panajachel	8	Panajachel	11	Noviembre	2023-11-28T00:00:00	2024-11-08T19:00:00	5	Humedad	70
74897	7	Sololá	710	Panajachel	8	Panajachel	11	Noviembre	2023-11-28T00:00:00	2024-11-08T19:00:00	6	Velocidad del viento	8
74898	7	Sololá	710	Panajachel	8	Panajachel	11	Noviembre	2023-11-28T00:00:00	2024-11-08T19:00:00	7	Dirección del viento	8.05
74899	7	Sololá	710	Panajachel	8	Panajachel	11	Noviembre	2023-11-28T00:00:00	2024-11-08T19:00:00	1	Precipitación	0
74900	7	Sololá	710	Panajachel	8	Panajachel	11	Noviembre	2023-11-28T00:00:00	2024-11-08T19:00:00	8	Radiación solar	0
74901	7	Sololá	710	Panajachel	8	Panajachel	11	Noviembre	2023-11-28T00:00:00	2024-11-08T20:00:00	2	Temperatura media	21.2
74902	7	Sololá	710	Panajachel	8	Panajachel	11	Noviembre	2023-11-28T00:00:00	2024-11-08T20:00:00	4	Temperatura máxima	21.6
74903	7	Sololá	710	Panajachel	8	Panajachel	11	Noviembre	2023-11-28T00:00:00	2024-11-08T20:00:00	3	Temperatura mínima	21.2
74904	7	Sololá	710	Panajachel	8	Panajachel	11	Noviembre	2023-11-28T00:00:00	2024-11-08T20:00:00	5	Humedad	72
74905	7	Sololá	710	Panajachel	8	Panajachel	11	Noviembre	2023-11-28T00:00:00	2024-11-08T20:00:00	6	Velocidad del viento	4.8
74906	7	Sololá	710	Panajachel	8	Panajachel	11	Noviembre	2023-11-28T00:00:00	2024-11-08T20:00:00	7	Dirección del viento	4.83
74907	7	Sololá	710	Panajachel	8	Panajachel	11	Noviembre	2023-11-28T00:00:00	2024-11-08T20:00:00	1	Precipitación	0
74908	7	Sololá	710	Panajachel	8	Panajachel	11	Noviembre	2023-11-28T00:00:00	2024-11-08T20:00:00	8	Radiación solar	0
74909	7	Sololá	710	Panajachel	8	Panajachel	11	Noviembre	2023-11-28T00:00:00	2024-11-08T21:00:00	2	Temperatura media	20.8
74910	7	Sololá	710	Panajachel	8	Panajachel	11	Noviembre	2023-11-28T00:00:00	2024-11-08T21:00:00	4	Temperatura máxima	21.2
74911	7	Sololá	710	Panajachel	8	Panajachel	11	Noviembre	2023-11-28T00:00:00	2024-11-08T21:00:00	3	Temperatura mínima	20.8
74912	7	Sololá	710	Panajachel	8	Panajachel	11	Noviembre	2023-11-28T00:00:00	2024-11-08T21:00:00	5	Humedad	72
74913	7	Sololá	710	Panajachel	8	Panajachel	11	Noviembre	2023-11-28T00:00:00	2024-11-08T21:00:00	6	Velocidad del viento	3.2
74914	7	Sololá	710	Panajachel	8	Panajachel	11	Noviembre	2023-11-28T00:00:00	2024-11-08T21:00:00	7	Dirección del viento	3.22
74915	7	Sololá	710	Panajachel	8	Panajachel	11	Noviembre	2023-11-28T00:00:00	2024-11-08T21:00:00	1	Precipitación	0
74916	7	Sololá	710	Panajachel	8	Panajachel	11	Noviembre	2023-11-28T00:00:00	2024-11-08T21:00:00	8	Radiación solar	0
74917	7	Sololá	710	Panajachel	8	Panajachel	11	Noviembre	2023-11-28T00:00:00	2024-11-08T22:00:00	2	Temperatura media	20.4
74918	7	Sololá	710	Panajachel	8	Panajachel	11	Noviembre	2023-11-28T00:00:00	2024-11-08T22:00:00	4	Temperatura máxima	20.8
74919	7	Sololá	710	Panajachel	8	Panajachel	11	Noviembre	2023-11-28T00:00:00	2024-11-08T22:00:00	3	Temperatura mínima	20.4
74920	7	Sololá	710	Panajachel	8	Panajachel	11	Noviembre	2023-11-28T00:00:00	2024-11-08T22:00:00	5	Humedad	70
74921	7	Sololá	710	Panajachel	8	Panajachel	11	Noviembre	2023-11-28T00:00:00	2024-11-08T22:00:00	6	Velocidad del viento	6.4
74922	7	Sololá	710	Panajachel	8	Panajachel	11	Noviembre	2023-11-28T00:00:00	2024-11-08T22:00:00	7	Dirección del viento	6.44
74923	7	Sololá	710	Panajachel	8	Panajachel	11	Noviembre	2023-11-28T00:00:00	2024-11-08T22:00:00	1	Precipitación	0
74924	7	Sololá	710	Panajachel	8	Panajachel	11	Noviembre	2023-11-28T00:00:00	2024-11-08T22:00:00	8	Radiación solar	0
74925	7	Sololá	710	Panajachel	8	Panajachel	11	Noviembre	2023-11-28T00:00:00	2024-11-08T23:00:00	2	Temperatura media	20.4
74926	7	Sololá	710	Panajachel	8	Panajachel	11	Noviembre	2023-11-28T00:00:00	2024-11-08T23:00:00	4	Temperatura máxima	20.6
74927	7	Sololá	710	Panajachel	8	Panajachel	11	Noviembre	2023-11-28T00:00:00	2024-11-08T23:00:00	3	Temperatura mínima	20.3
74928	7	Sololá	710	Panajachel	8	Panajachel	11	Noviembre	2023-11-28T00:00:00	2024-11-08T23:00:00	5	Humedad	69
74929	7	Sololá	710	Panajachel	8	Panajachel	11	Noviembre	2023-11-28T00:00:00	2024-11-08T23:00:00	6	Velocidad del viento	9.7
74930	7	Sololá	710	Panajachel	8	Panajachel	11	Noviembre	2023-11-28T00:00:00	2024-11-08T23:00:00	7	Dirección del viento	9.66
74931	7	Sololá	710	Panajachel	8	Panajachel	11	Noviembre	2023-11-28T00:00:00	2024-11-08T23:00:00	1	Precipitación	0
74932	7	Sololá	710	Panajachel	8	Panajachel	11	Noviembre	2023-11-28T00:00:00	2024-11-08T23:00:00	8	Radiación solar	0
74933	7	Sololá	710	Panajachel	8	Panajachel	11	Noviembre	2023-11-29T00:00:00	2024-11-08T00:00:00	2	Temperatura media	20.2
74934	7	Sololá	710	Panajachel	8	Panajachel	11	Noviembre	2023-11-29T00:00:00	2024-11-08T00:00:00	4	Temperatura máxima	20.4
74935	7	Sololá	710	Panajachel	8	Panajachel	11	Noviembre	2023-11-29T00:00:00	2024-11-08T00:00:00	3	Temperatura mínima	20.2
74936	7	Sololá	710	Panajachel	8	Panajachel	11	Noviembre	2023-11-29T00:00:00	2024-11-08T00:00:00	5	Humedad	69
74937	7	Sololá	710	Panajachel	8	Panajachel	11	Noviembre	2023-11-29T00:00:00	2024-11-08T00:00:00	6	Velocidad del viento	11.3
74938	7	Sololá	710	Panajachel	8	Panajachel	11	Noviembre	2023-11-29T00:00:00	2024-11-08T00:00:00	7	Dirección del viento	11.27
74939	7	Sololá	710	Panajachel	8	Panajachel	11	Noviembre	2023-11-29T00:00:00	2024-11-08T00:00:00	1	Precipitación	0
74940	7	Sololá	710	Panajachel	8	Panajachel	11	Noviembre	2023-11-29T00:00:00	2024-11-08T00:00:00	8	Radiación solar	0
74941	7	Sololá	710	Panajachel	8	Panajachel	11	Noviembre	2023-11-29T00:00:00	2024-11-08T01:00:00	2	Temperatura media	19.6
74942	7	Sololá	710	Panajachel	8	Panajachel	11	Noviembre	2023-11-29T00:00:00	2024-11-08T01:00:00	4	Temperatura máxima	20.2
74943	7	Sololá	710	Panajachel	8	Panajachel	11	Noviembre	2023-11-29T00:00:00	2024-11-08T01:00:00	3	Temperatura mínima	19.6
74944	7	Sololá	710	Panajachel	8	Panajachel	11	Noviembre	2023-11-29T00:00:00	2024-11-08T01:00:00	5	Humedad	71
74945	7	Sololá	710	Panajachel	8	Panajachel	11	Noviembre	2023-11-29T00:00:00	2024-11-08T01:00:00	6	Velocidad del viento	9.7
74946	7	Sololá	710	Panajachel	8	Panajachel	11	Noviembre	2023-11-29T00:00:00	2024-11-08T01:00:00	7	Dirección del viento	9.66
74947	7	Sololá	710	Panajachel	8	Panajachel	11	Noviembre	2023-11-29T00:00:00	2024-11-08T01:00:00	1	Precipitación	0
74948	7	Sololá	710	Panajachel	8	Panajachel	11	Noviembre	2023-11-29T00:00:00	2024-11-08T01:00:00	8	Radiación solar	0
74949	7	Sololá	710	Panajachel	8	Panajachel	11	Noviembre	2023-11-29T00:00:00	2024-11-08T02:00:00	2	Temperatura media	19.3
74950	7	Sololá	710	Panajachel	8	Panajachel	11	Noviembre	2023-11-29T00:00:00	2024-11-08T02:00:00	4	Temperatura máxima	19.8
74951	7	Sololá	710	Panajachel	8	Panajachel	11	Noviembre	2023-11-29T00:00:00	2024-11-08T02:00:00	3	Temperatura mínima	19.3
74952	7	Sololá	710	Panajachel	8	Panajachel	11	Noviembre	2023-11-29T00:00:00	2024-11-08T02:00:00	5	Humedad	71
74953	7	Sololá	710	Panajachel	8	Panajachel	11	Noviembre	2023-11-29T00:00:00	2024-11-08T02:00:00	6	Velocidad del viento	12.9
74954	7	Sololá	710	Panajachel	8	Panajachel	11	Noviembre	2023-11-29T00:00:00	2024-11-08T02:00:00	7	Dirección del viento	12.87
74955	7	Sololá	710	Panajachel	8	Panajachel	11	Noviembre	2023-11-29T00:00:00	2024-11-08T02:00:00	1	Precipitación	0
74956	7	Sololá	710	Panajachel	8	Panajachel	11	Noviembre	2023-11-29T00:00:00	2024-11-08T02:00:00	8	Radiación solar	0
74957	7	Sololá	710	Panajachel	8	Panajachel	11	Noviembre	2023-11-29T00:00:00	2024-11-08T03:00:00	2	Temperatura media	19.7
74958	7	Sololá	710	Panajachel	8	Panajachel	11	Noviembre	2023-11-29T00:00:00	2024-11-08T03:00:00	4	Temperatura máxima	19.8
74959	7	Sololá	710	Panajachel	8	Panajachel	11	Noviembre	2023-11-29T00:00:00	2024-11-08T03:00:00	3	Temperatura mínima	19.3
74960	7	Sololá	710	Panajachel	8	Panajachel	11	Noviembre	2023-11-29T00:00:00	2024-11-08T03:00:00	5	Humedad	69
74961	7	Sololá	710	Panajachel	8	Panajachel	11	Noviembre	2023-11-29T00:00:00	2024-11-08T03:00:00	6	Velocidad del viento	11.3
74962	7	Sololá	710	Panajachel	8	Panajachel	11	Noviembre	2023-11-29T00:00:00	2024-11-08T03:00:00	7	Dirección del viento	11.27
74963	7	Sololá	710	Panajachel	8	Panajachel	11	Noviembre	2023-11-29T00:00:00	2024-11-08T03:00:00	1	Precipitación	0
74964	7	Sololá	710	Panajachel	8	Panajachel	11	Noviembre	2023-11-29T00:00:00	2024-11-08T03:00:00	8	Radiación solar	0
74965	7	Sololá	710	Panajachel	8	Panajachel	11	Noviembre	2023-11-29T00:00:00	2024-11-08T04:00:00	2	Temperatura media	19.3
74966	7	Sololá	710	Panajachel	8	Panajachel	11	Noviembre	2023-11-29T00:00:00	2024-11-08T04:00:00	4	Temperatura máxima	19.7
74967	7	Sololá	710	Panajachel	8	Panajachel	11	Noviembre	2023-11-29T00:00:00	2024-11-08T04:00:00	3	Temperatura mínima	19.3
74968	7	Sololá	710	Panajachel	8	Panajachel	11	Noviembre	2023-11-29T00:00:00	2024-11-08T04:00:00	5	Humedad	69
74969	7	Sololá	710	Panajachel	8	Panajachel	11	Noviembre	2023-11-29T00:00:00	2024-11-08T04:00:00	6	Velocidad del viento	9.7
74970	7	Sololá	710	Panajachel	8	Panajachel	11	Noviembre	2023-11-29T00:00:00	2024-11-08T04:00:00	7	Dirección del viento	9.66
74971	7	Sololá	710	Panajachel	8	Panajachel	11	Noviembre	2023-11-29T00:00:00	2024-11-08T04:00:00	1	Precipitación	0
74972	7	Sololá	710	Panajachel	8	Panajachel	11	Noviembre	2023-11-29T00:00:00	2024-11-08T04:00:00	8	Radiación solar	0
74973	7	Sololá	710	Panajachel	8	Panajachel	11	Noviembre	2023-11-29T00:00:00	2024-11-08T05:00:00	2	Temperatura media	18.9
74974	7	Sololá	710	Panajachel	8	Panajachel	11	Noviembre	2023-11-29T00:00:00	2024-11-08T05:00:00	4	Temperatura máxima	19.3
74975	7	Sololá	710	Panajachel	8	Panajachel	11	Noviembre	2023-11-29T00:00:00	2024-11-08T05:00:00	3	Temperatura mínima	18.9
74976	7	Sololá	710	Panajachel	8	Panajachel	11	Noviembre	2023-11-29T00:00:00	2024-11-08T05:00:00	5	Humedad	68
74977	7	Sololá	710	Panajachel	8	Panajachel	11	Noviembre	2023-11-29T00:00:00	2024-11-08T05:00:00	6	Velocidad del viento	6.4
74978	7	Sololá	710	Panajachel	8	Panajachel	11	Noviembre	2023-11-29T00:00:00	2024-11-08T05:00:00	7	Dirección del viento	6.44
74979	7	Sololá	710	Panajachel	8	Panajachel	11	Noviembre	2023-11-29T00:00:00	2024-11-08T05:00:00	1	Precipitación	0
74980	7	Sololá	710	Panajachel	8	Panajachel	11	Noviembre	2023-11-29T00:00:00	2024-11-08T05:00:00	8	Radiación solar	0
74981	7	Sololá	710	Panajachel	8	Panajachel	11	Noviembre	2023-11-29T00:00:00	2024-11-08T06:00:00	2	Temperatura media	18.3
74982	7	Sololá	710	Panajachel	8	Panajachel	11	Noviembre	2023-11-29T00:00:00	2024-11-08T06:00:00	4	Temperatura máxima	19.1
74983	7	Sololá	710	Panajachel	8	Panajachel	11	Noviembre	2023-11-29T00:00:00	2024-11-08T06:00:00	3	Temperatura mínima	18.3
74984	7	Sololá	710	Panajachel	8	Panajachel	11	Noviembre	2023-11-29T00:00:00	2024-11-08T06:00:00	5	Humedad	70
74985	7	Sololá	710	Panajachel	8	Panajachel	11	Noviembre	2023-11-29T00:00:00	2024-11-08T06:00:00	6	Velocidad del viento	3.2
74986	7	Sololá	710	Panajachel	8	Panajachel	11	Noviembre	2023-11-29T00:00:00	2024-11-08T06:00:00	7	Dirección del viento	3.22
74987	7	Sololá	710	Panajachel	8	Panajachel	11	Noviembre	2023-11-29T00:00:00	2024-11-08T06:00:00	1	Precipitación	0
74988	7	Sololá	710	Panajachel	8	Panajachel	11	Noviembre	2023-11-29T00:00:00	2024-11-08T06:00:00	8	Radiación solar	0
74989	7	Sololá	710	Panajachel	8	Panajachel	11	Noviembre	2023-11-29T00:00:00	2024-11-08T07:00:00	2	Temperatura media	18.3
74990	7	Sololá	710	Panajachel	8	Panajachel	11	Noviembre	2023-11-29T00:00:00	2024-11-08T07:00:00	4	Temperatura máxima	18.4
74991	7	Sololá	710	Panajachel	8	Panajachel	11	Noviembre	2023-11-29T00:00:00	2024-11-08T07:00:00	3	Temperatura mínima	18.2
74992	7	Sololá	710	Panajachel	8	Panajachel	11	Noviembre	2023-11-29T00:00:00	2024-11-08T07:00:00	5	Humedad	67
74993	7	Sololá	710	Panajachel	8	Panajachel	11	Noviembre	2023-11-29T00:00:00	2024-11-08T07:00:00	6	Velocidad del viento	3.2
74994	7	Sololá	710	Panajachel	8	Panajachel	11	Noviembre	2023-11-29T00:00:00	2024-11-08T07:00:00	7	Dirección del viento	3.22
74995	7	Sololá	710	Panajachel	8	Panajachel	11	Noviembre	2023-11-29T00:00:00	2024-11-08T07:00:00	1	Precipitación	0
74996	7	Sololá	710	Panajachel	8	Panajachel	11	Noviembre	2023-11-29T00:00:00	2024-11-08T07:00:00	8	Radiación solar	16
74997	7	Sololá	710	Panajachel	8	Panajachel	11	Noviembre	2023-11-29T00:00:00	2024-11-08T08:00:00	2	Temperatura media	21.3
74998	7	Sololá	710	Panajachel	8	Panajachel	11	Noviembre	2023-11-29T00:00:00	2024-11-08T08:00:00	4	Temperatura máxima	21.3
74999	7	Sololá	710	Panajachel	8	Panajachel	11	Noviembre	2023-11-29T00:00:00	2024-11-08T08:00:00	3	Temperatura mínima	18.3
75000	7	Sololá	710	Panajachel	8	Panajachel	11	Noviembre	2023-11-29T00:00:00	2024-11-08T08:00:00	5	Humedad	50
75001	7	Sololá	710	Panajachel	8	Panajachel	11	Noviembre	2023-11-29T00:00:00	2024-11-08T08:00:00	6	Velocidad del viento	4.8
75002	7	Sololá	710	Panajachel	8	Panajachel	11	Noviembre	2023-11-29T00:00:00	2024-11-08T08:00:00	7	Dirección del viento	4.83
75003	7	Sololá	710	Panajachel	8	Panajachel	11	Noviembre	2023-11-29T00:00:00	2024-11-08T08:00:00	1	Precipitación	0
75004	7	Sololá	710	Panajachel	8	Panajachel	11	Noviembre	2023-11-29T00:00:00	2024-11-08T08:00:00	8	Radiación solar	216
75005	7	Sololá	710	Panajachel	8	Panajachel	11	Noviembre	2023-11-29T00:00:00	2024-11-08T09:00:00	2	Temperatura media	22.7
75006	7	Sololá	710	Panajachel	8	Panajachel	11	Noviembre	2023-11-29T00:00:00	2024-11-08T09:00:00	4	Temperatura máxima	22.8
75007	7	Sololá	710	Panajachel	8	Panajachel	11	Noviembre	2023-11-29T00:00:00	2024-11-08T09:00:00	3	Temperatura mínima	21.3
75008	7	Sololá	710	Panajachel	8	Panajachel	11	Noviembre	2023-11-29T00:00:00	2024-11-08T09:00:00	5	Humedad	49
75009	7	Sololá	710	Panajachel	8	Panajachel	11	Noviembre	2023-11-29T00:00:00	2024-11-08T09:00:00	6	Velocidad del viento	6.4
75010	7	Sololá	710	Panajachel	8	Panajachel	11	Noviembre	2023-11-29T00:00:00	2024-11-08T09:00:00	7	Dirección del viento	6.44
75011	7	Sololá	710	Panajachel	8	Panajachel	11	Noviembre	2023-11-29T00:00:00	2024-11-08T09:00:00	1	Precipitación	0
75012	7	Sololá	710	Panajachel	8	Panajachel	11	Noviembre	2023-11-29T00:00:00	2024-11-08T09:00:00	8	Radiación solar	426
75013	7	Sololá	710	Panajachel	8	Panajachel	11	Noviembre	2023-11-29T00:00:00	2024-11-08T10:00:00	2	Temperatura media	23.9
75014	7	Sololá	710	Panajachel	8	Panajachel	11	Noviembre	2023-11-29T00:00:00	2024-11-08T10:00:00	4	Temperatura máxima	23.9
75015	7	Sololá	710	Panajachel	8	Panajachel	11	Noviembre	2023-11-29T00:00:00	2024-11-08T10:00:00	3	Temperatura mínima	22.7
75016	7	Sololá	710	Panajachel	8	Panajachel	11	Noviembre	2023-11-29T00:00:00	2024-11-08T10:00:00	5	Humedad	52
75017	7	Sololá	710	Panajachel	8	Panajachel	11	Noviembre	2023-11-29T00:00:00	2024-11-08T10:00:00	6	Velocidad del viento	6.4
75018	7	Sololá	710	Panajachel	8	Panajachel	11	Noviembre	2023-11-29T00:00:00	2024-11-08T10:00:00	7	Dirección del viento	6.44
75019	7	Sololá	710	Panajachel	8	Panajachel	11	Noviembre	2023-11-29T00:00:00	2024-11-08T10:00:00	1	Precipitación	0
75020	7	Sololá	710	Panajachel	8	Panajachel	11	Noviembre	2023-11-29T00:00:00	2024-11-08T10:00:00	8	Radiación solar	581
75021	7	Sololá	710	Panajachel	8	Panajachel	11	Noviembre	2023-11-29T00:00:00	2024-11-08T11:00:00	2	Temperatura media	24.7
75022	7	Sololá	710	Panajachel	8	Panajachel	11	Noviembre	2023-11-29T00:00:00	2024-11-08T11:00:00	4	Temperatura máxima	24.7
75023	7	Sololá	710	Panajachel	8	Panajachel	11	Noviembre	2023-11-29T00:00:00	2024-11-08T11:00:00	3	Temperatura mínima	23.9
75024	7	Sololá	710	Panajachel	8	Panajachel	11	Noviembre	2023-11-29T00:00:00	2024-11-08T11:00:00	5	Humedad	48
75025	7	Sololá	710	Panajachel	8	Panajachel	11	Noviembre	2023-11-29T00:00:00	2024-11-08T11:00:00	6	Velocidad del viento	4.8
75026	7	Sololá	710	Panajachel	8	Panajachel	11	Noviembre	2023-11-29T00:00:00	2024-11-08T11:00:00	7	Dirección del viento	4.83
75027	7	Sololá	710	Panajachel	8	Panajachel	11	Noviembre	2023-11-29T00:00:00	2024-11-08T11:00:00	1	Precipitación	0
75028	7	Sololá	710	Panajachel	8	Panajachel	11	Noviembre	2023-11-29T00:00:00	2024-11-08T11:00:00	8	Radiación solar	687
75029	7	Sololá	710	Panajachel	8	Panajachel	11	Noviembre	2023-11-29T00:00:00	2024-11-08T12:00:00	2	Temperatura media	25.6
75030	7	Sololá	710	Panajachel	8	Panajachel	11	Noviembre	2023-11-29T00:00:00	2024-11-08T12:00:00	4	Temperatura máxima	25.7
75031	7	Sololá	710	Panajachel	8	Panajachel	11	Noviembre	2023-11-29T00:00:00	2024-11-08T12:00:00	3	Temperatura mínima	24.7
75032	7	Sololá	710	Panajachel	8	Panajachel	11	Noviembre	2023-11-29T00:00:00	2024-11-08T12:00:00	5	Humedad	51
75033	7	Sololá	710	Panajachel	8	Panajachel	11	Noviembre	2023-11-29T00:00:00	2024-11-08T12:00:00	6	Velocidad del viento	8
75034	7	Sololá	710	Panajachel	8	Panajachel	11	Noviembre	2023-11-29T00:00:00	2024-11-08T12:00:00	7	Dirección del viento	8.05
75035	7	Sololá	710	Panajachel	8	Panajachel	11	Noviembre	2023-11-29T00:00:00	2024-11-08T12:00:00	1	Precipitación	0
75036	7	Sololá	710	Panajachel	8	Panajachel	11	Noviembre	2023-11-29T00:00:00	2024-11-08T12:00:00	8	Radiación solar	774
75037	7	Sololá	710	Panajachel	8	Panajachel	11	Noviembre	2023-11-29T00:00:00	2024-11-08T13:00:00	2	Temperatura media	25.1
75038	7	Sololá	710	Panajachel	8	Panajachel	11	Noviembre	2023-11-29T00:00:00	2024-11-08T13:00:00	4	Temperatura máxima	25.7
75039	7	Sololá	710	Panajachel	8	Panajachel	11	Noviembre	2023-11-29T00:00:00	2024-11-08T13:00:00	3	Temperatura mínima	25
75040	7	Sololá	710	Panajachel	8	Panajachel	11	Noviembre	2023-11-29T00:00:00	2024-11-08T13:00:00	5	Humedad	55
75041	7	Sololá	710	Panajachel	8	Panajachel	11	Noviembre	2023-11-29T00:00:00	2024-11-08T13:00:00	6	Velocidad del viento	8
75042	7	Sololá	710	Panajachel	8	Panajachel	11	Noviembre	2023-11-29T00:00:00	2024-11-08T13:00:00	7	Dirección del viento	8.05
75043	7	Sololá	710	Panajachel	8	Panajachel	11	Noviembre	2023-11-29T00:00:00	2024-11-08T13:00:00	1	Precipitación	0
75044	7	Sololá	710	Panajachel	8	Panajachel	11	Noviembre	2023-11-29T00:00:00	2024-11-08T13:00:00	8	Radiación solar	757
75045	7	Sololá	710	Panajachel	8	Panajachel	11	Noviembre	2023-11-29T00:00:00	2024-11-08T14:00:00	2	Temperatura media	24.8
75046	7	Sololá	710	Panajachel	8	Panajachel	11	Noviembre	2023-11-29T00:00:00	2024-11-08T14:00:00	4	Temperatura máxima	25.4
75047	7	Sololá	710	Panajachel	8	Panajachel	11	Noviembre	2023-11-29T00:00:00	2024-11-08T14:00:00	3	Temperatura mínima	24.3
75048	7	Sololá	710	Panajachel	8	Panajachel	11	Noviembre	2023-11-29T00:00:00	2024-11-08T14:00:00	5	Humedad	53
75049	7	Sololá	710	Panajachel	8	Panajachel	11	Noviembre	2023-11-29T00:00:00	2024-11-08T14:00:00	6	Velocidad del viento	9.7
75050	7	Sololá	710	Panajachel	8	Panajachel	11	Noviembre	2023-11-29T00:00:00	2024-11-08T14:00:00	7	Dirección del viento	9.66
75051	7	Sololá	710	Panajachel	8	Panajachel	11	Noviembre	2023-11-29T00:00:00	2024-11-08T14:00:00	1	Precipitación	0
75052	7	Sololá	710	Panajachel	8	Panajachel	11	Noviembre	2023-11-29T00:00:00	2024-11-08T14:00:00	8	Radiación solar	560
75053	7	Sololá	710	Panajachel	8	Panajachel	11	Noviembre	2023-11-29T00:00:00	2024-11-08T15:00:00	2	Temperatura media	25.2
75054	7	Sololá	710	Panajachel	8	Panajachel	11	Noviembre	2023-11-29T00:00:00	2024-11-08T15:00:00	4	Temperatura máxima	25.3
75055	7	Sololá	710	Panajachel	8	Panajachel	11	Noviembre	2023-11-29T00:00:00	2024-11-08T15:00:00	3	Temperatura mínima	24.3
75056	7	Sololá	710	Panajachel	8	Panajachel	11	Noviembre	2023-11-29T00:00:00	2024-11-08T15:00:00	5	Humedad	53
75057	7	Sololá	710	Panajachel	8	Panajachel	11	Noviembre	2023-11-29T00:00:00	2024-11-08T15:00:00	6	Velocidad del viento	8
75058	7	Sololá	710	Panajachel	8	Panajachel	11	Noviembre	2023-11-29T00:00:00	2024-11-08T15:00:00	7	Dirección del viento	8.05
75059	7	Sololá	710	Panajachel	8	Panajachel	11	Noviembre	2023-11-29T00:00:00	2024-11-08T15:00:00	1	Precipitación	0
75060	7	Sololá	710	Panajachel	8	Panajachel	11	Noviembre	2023-11-29T00:00:00	2024-11-08T15:00:00	8	Radiación solar	331
75061	7	Sololá	710	Panajachel	8	Panajachel	11	Noviembre	2023-11-29T00:00:00	2024-11-08T16:00:00	2	Temperatura media	24.5
75062	7	Sololá	710	Panajachel	8	Panajachel	11	Noviembre	2023-11-29T00:00:00	2024-11-08T16:00:00	4	Temperatura máxima	25.3
75063	7	Sololá	710	Panajachel	8	Panajachel	11	Noviembre	2023-11-29T00:00:00	2024-11-08T16:00:00	3	Temperatura mínima	24.5
75064	7	Sololá	710	Panajachel	8	Panajachel	11	Noviembre	2023-11-29T00:00:00	2024-11-08T16:00:00	5	Humedad	53
75065	7	Sololá	710	Panajachel	8	Panajachel	11	Noviembre	2023-11-29T00:00:00	2024-11-08T16:00:00	6	Velocidad del viento	8
75066	7	Sololá	710	Panajachel	8	Panajachel	11	Noviembre	2023-11-29T00:00:00	2024-11-08T16:00:00	7	Dirección del viento	8.05
75067	7	Sololá	710	Panajachel	8	Panajachel	11	Noviembre	2023-11-29T00:00:00	2024-11-08T16:00:00	1	Precipitación	0
75068	7	Sololá	710	Panajachel	8	Panajachel	11	Noviembre	2023-11-29T00:00:00	2024-11-08T16:00:00	8	Radiación solar	351
75069	7	Sololá	710	Panajachel	8	Panajachel	11	Noviembre	2023-11-29T00:00:00	2024-11-08T17:00:00	2	Temperatura media	22.8
75070	7	Sololá	710	Panajachel	8	Panajachel	11	Noviembre	2023-11-29T00:00:00	2024-11-08T17:00:00	4	Temperatura máxima	24.5
75071	7	Sololá	710	Panajachel	8	Panajachel	11	Noviembre	2023-11-29T00:00:00	2024-11-08T17:00:00	3	Temperatura mínima	22.8
75072	7	Sololá	710	Panajachel	8	Panajachel	11	Noviembre	2023-11-29T00:00:00	2024-11-08T17:00:00	5	Humedad	58
75073	7	Sololá	710	Panajachel	8	Panajachel	11	Noviembre	2023-11-29T00:00:00	2024-11-08T17:00:00	6	Velocidad del viento	8
75074	7	Sololá	710	Panajachel	8	Panajachel	11	Noviembre	2023-11-29T00:00:00	2024-11-08T17:00:00	7	Dirección del viento	8.05
75075	7	Sololá	710	Panajachel	8	Panajachel	11	Noviembre	2023-11-29T00:00:00	2024-11-08T17:00:00	1	Precipitación	0
75076	7	Sololá	710	Panajachel	8	Panajachel	11	Noviembre	2023-11-29T00:00:00	2024-11-08T17:00:00	8	Radiación solar	128
75077	7	Sololá	710	Panajachel	8	Panajachel	11	Noviembre	2023-11-29T00:00:00	2024-11-08T18:00:00	2	Temperatura media	21.4
75078	7	Sololá	710	Panajachel	8	Panajachel	11	Noviembre	2023-11-29T00:00:00	2024-11-08T18:00:00	4	Temperatura máxima	22.8
75079	7	Sololá	710	Panajachel	8	Panajachel	11	Noviembre	2023-11-29T00:00:00	2024-11-08T18:00:00	3	Temperatura mínima	21.4
75080	7	Sololá	710	Panajachel	8	Panajachel	11	Noviembre	2023-11-29T00:00:00	2024-11-08T18:00:00	5	Humedad	64
75081	7	Sololá	710	Panajachel	8	Panajachel	11	Noviembre	2023-11-29T00:00:00	2024-11-08T18:00:00	6	Velocidad del viento	6.4
75082	7	Sololá	710	Panajachel	8	Panajachel	11	Noviembre	2023-11-29T00:00:00	2024-11-08T18:00:00	7	Dirección del viento	6.44
75083	7	Sololá	710	Panajachel	8	Panajachel	11	Noviembre	2023-11-29T00:00:00	2024-11-08T18:00:00	1	Precipitación	0
75084	7	Sololá	710	Panajachel	8	Panajachel	11	Noviembre	2023-11-29T00:00:00	2024-11-08T18:00:00	8	Radiación solar	10
75085	7	Sololá	710	Panajachel	8	Panajachel	11	Noviembre	2023-11-29T00:00:00	2024-11-08T19:00:00	2	Temperatura media	20.8
75086	7	Sololá	710	Panajachel	8	Panajachel	11	Noviembre	2023-11-29T00:00:00	2024-11-08T19:00:00	4	Temperatura máxima	21.4
75087	7	Sololá	710	Panajachel	8	Panajachel	11	Noviembre	2023-11-29T00:00:00	2024-11-08T19:00:00	3	Temperatura mínima	20.7
75088	7	Sololá	710	Panajachel	8	Panajachel	11	Noviembre	2023-11-29T00:00:00	2024-11-08T19:00:00	5	Humedad	68
75089	7	Sololá	710	Panajachel	8	Panajachel	11	Noviembre	2023-11-29T00:00:00	2024-11-08T19:00:00	6	Velocidad del viento	6.4
75090	7	Sololá	710	Panajachel	8	Panajachel	11	Noviembre	2023-11-29T00:00:00	2024-11-08T19:00:00	7	Dirección del viento	6.44
75091	7	Sololá	710	Panajachel	8	Panajachel	11	Noviembre	2023-11-29T00:00:00	2024-11-08T19:00:00	1	Precipitación	0
75092	7	Sololá	710	Panajachel	8	Panajachel	11	Noviembre	2023-11-29T00:00:00	2024-11-08T19:00:00	8	Radiación solar	0
75093	7	Sololá	710	Panajachel	8	Panajachel	11	Noviembre	2023-11-29T00:00:00	2024-11-08T20:00:00	2	Temperatura media	20.2
75094	7	Sololá	710	Panajachel	8	Panajachel	11	Noviembre	2023-11-29T00:00:00	2024-11-08T20:00:00	4	Temperatura máxima	20.8
75095	7	Sololá	710	Panajachel	8	Panajachel	11	Noviembre	2023-11-29T00:00:00	2024-11-08T20:00:00	3	Temperatura mínima	20
75096	7	Sololá	710	Panajachel	8	Panajachel	11	Noviembre	2023-11-29T00:00:00	2024-11-08T20:00:00	5	Humedad	70
75097	7	Sololá	710	Panajachel	8	Panajachel	11	Noviembre	2023-11-29T00:00:00	2024-11-08T20:00:00	6	Velocidad del viento	4.8
75098	7	Sololá	710	Panajachel	8	Panajachel	11	Noviembre	2023-11-29T00:00:00	2024-11-08T20:00:00	7	Dirección del viento	4.83
75099	7	Sololá	710	Panajachel	8	Panajachel	11	Noviembre	2023-11-29T00:00:00	2024-11-08T20:00:00	1	Precipitación	0
75100	7	Sololá	710	Panajachel	8	Panajachel	11	Noviembre	2023-11-29T00:00:00	2024-11-08T20:00:00	8	Radiación solar	0
75101	7	Sololá	710	Panajachel	8	Panajachel	11	Noviembre	2023-11-29T00:00:00	2024-11-08T21:00:00	2	Temperatura media	19.2
75102	7	Sololá	710	Panajachel	8	Panajachel	11	Noviembre	2023-11-29T00:00:00	2024-11-08T21:00:00	4	Temperatura máxima	20.6
75103	7	Sololá	710	Panajachel	8	Panajachel	11	Noviembre	2023-11-29T00:00:00	2024-11-08T21:00:00	3	Temperatura mínima	19.2
75104	7	Sololá	710	Panajachel	8	Panajachel	11	Noviembre	2023-11-29T00:00:00	2024-11-08T21:00:00	5	Humedad	73
75105	7	Sololá	710	Panajachel	8	Panajachel	11	Noviembre	2023-11-29T00:00:00	2024-11-08T21:00:00	6	Velocidad del viento	3.2
75106	7	Sololá	710	Panajachel	8	Panajachel	11	Noviembre	2023-11-29T00:00:00	2024-11-08T21:00:00	7	Dirección del viento	3.22
75107	7	Sololá	710	Panajachel	8	Panajachel	11	Noviembre	2023-11-29T00:00:00	2024-11-08T21:00:00	1	Precipitación	0
75108	7	Sololá	710	Panajachel	8	Panajachel	11	Noviembre	2023-11-29T00:00:00	2024-11-08T21:00:00	8	Radiación solar	0
75109	7	Sololá	710	Panajachel	8	Panajachel	11	Noviembre	2023-11-29T00:00:00	2024-11-08T22:00:00	2	Temperatura media	18.2
75110	7	Sololá	710	Panajachel	8	Panajachel	11	Noviembre	2023-11-29T00:00:00	2024-11-08T22:00:00	4	Temperatura máxima	19.2
75111	7	Sololá	710	Panajachel	8	Panajachel	11	Noviembre	2023-11-29T00:00:00	2024-11-08T22:00:00	3	Temperatura mínima	18.2
75112	7	Sololá	710	Panajachel	8	Panajachel	11	Noviembre	2023-11-29T00:00:00	2024-11-08T22:00:00	5	Humedad	76
75113	7	Sololá	710	Panajachel	8	Panajachel	11	Noviembre	2023-11-29T00:00:00	2024-11-08T22:00:00	6	Velocidad del viento	0
75114	7	Sololá	710	Panajachel	8	Panajachel	11	Noviembre	2023-11-29T00:00:00	2024-11-08T22:00:00	7	Dirección del viento	0
75115	7	Sololá	710	Panajachel	8	Panajachel	11	Noviembre	2023-11-29T00:00:00	2024-11-08T22:00:00	1	Precipitación	0
75116	7	Sololá	710	Panajachel	8	Panajachel	11	Noviembre	2023-11-29T00:00:00	2024-11-08T22:00:00	8	Radiación solar	0
75117	7	Sololá	710	Panajachel	8	Panajachel	11	Noviembre	2023-11-29T00:00:00	2024-11-08T23:00:00	2	Temperatura media	18.2
75118	7	Sololá	710	Panajachel	8	Panajachel	11	Noviembre	2023-11-29T00:00:00	2024-11-08T23:00:00	4	Temperatura máxima	18.2
75119	7	Sololá	710	Panajachel	8	Panajachel	11	Noviembre	2023-11-29T00:00:00	2024-11-08T23:00:00	3	Temperatura mínima	17.9
75120	7	Sololá	710	Panajachel	8	Panajachel	11	Noviembre	2023-11-29T00:00:00	2024-11-08T23:00:00	5	Humedad	75
75121	7	Sololá	710	Panajachel	8	Panajachel	11	Noviembre	2023-11-29T00:00:00	2024-11-08T23:00:00	6	Velocidad del viento	1.6
75122	7	Sololá	710	Panajachel	8	Panajachel	11	Noviembre	2023-11-29T00:00:00	2024-11-08T23:00:00	7	Dirección del viento	1.61
75123	7	Sololá	710	Panajachel	8	Panajachel	11	Noviembre	2023-11-29T00:00:00	2024-11-08T23:00:00	1	Precipitación	0
75124	7	Sololá	710	Panajachel	8	Panajachel	11	Noviembre	2023-11-29T00:00:00	2024-11-08T23:00:00	8	Radiación solar	0
75125	7	Sololá	710	Panajachel	8	Panajachel	11	Noviembre	2023-11-30T00:00:00	2024-11-08T00:00:00	2	Temperatura media	18.3
75126	7	Sololá	710	Panajachel	8	Panajachel	11	Noviembre	2023-11-30T00:00:00	2024-11-08T00:00:00	4	Temperatura máxima	18.4
75127	7	Sololá	710	Panajachel	8	Panajachel	11	Noviembre	2023-11-30T00:00:00	2024-11-08T00:00:00	3	Temperatura mínima	17.9
75128	7	Sololá	710	Panajachel	8	Panajachel	11	Noviembre	2023-11-30T00:00:00	2024-11-08T00:00:00	5	Humedad	76
75129	7	Sololá	710	Panajachel	8	Panajachel	11	Noviembre	2023-11-30T00:00:00	2024-11-08T00:00:00	6	Velocidad del viento	0
75130	7	Sololá	710	Panajachel	8	Panajachel	11	Noviembre	2023-11-30T00:00:00	2024-11-08T00:00:00	7	Dirección del viento	0
75131	7	Sololá	710	Panajachel	8	Panajachel	11	Noviembre	2023-11-30T00:00:00	2024-11-08T00:00:00	1	Precipitación	0
75132	7	Sololá	710	Panajachel	8	Panajachel	11	Noviembre	2023-11-30T00:00:00	2024-11-08T00:00:00	8	Radiación solar	0
75133	7	Sololá	710	Panajachel	8	Panajachel	11	Noviembre	2023-11-30T00:00:00	2024-11-08T01:00:00	2	Temperatura media	17.8
75134	7	Sololá	710	Panajachel	8	Panajachel	11	Noviembre	2023-11-30T00:00:00	2024-11-08T01:00:00	4	Temperatura máxima	18.3
75135	7	Sololá	710	Panajachel	8	Panajachel	11	Noviembre	2023-11-30T00:00:00	2024-11-08T01:00:00	3	Temperatura mínima	17.8
75136	7	Sololá	710	Panajachel	8	Panajachel	11	Noviembre	2023-11-30T00:00:00	2024-11-08T01:00:00	5	Humedad	76
75137	7	Sololá	710	Panajachel	8	Panajachel	11	Noviembre	2023-11-30T00:00:00	2024-11-08T01:00:00	6	Velocidad del viento	0
75138	7	Sololá	710	Panajachel	8	Panajachel	11	Noviembre	2023-11-30T00:00:00	2024-11-08T01:00:00	7	Dirección del viento	0
75139	7	Sololá	710	Panajachel	8	Panajachel	11	Noviembre	2023-11-30T00:00:00	2024-11-08T01:00:00	1	Precipitación	0
75140	7	Sololá	710	Panajachel	8	Panajachel	11	Noviembre	2023-11-30T00:00:00	2024-11-08T01:00:00	8	Radiación solar	0
75141	7	Sololá	710	Panajachel	8	Panajachel	11	Noviembre	2023-11-30T00:00:00	2024-11-08T02:00:00	2	Temperatura media	17.3
75142	7	Sololá	710	Panajachel	8	Panajachel	11	Noviembre	2023-11-30T00:00:00	2024-11-08T02:00:00	4	Temperatura máxima	17.8
75143	7	Sololá	710	Panajachel	8	Panajachel	11	Noviembre	2023-11-30T00:00:00	2024-11-08T02:00:00	3	Temperatura mínima	17.3
75144	7	Sololá	710	Panajachel	8	Panajachel	11	Noviembre	2023-11-30T00:00:00	2024-11-08T02:00:00	5	Humedad	78
75145	7	Sololá	710	Panajachel	8	Panajachel	11	Noviembre	2023-11-30T00:00:00	2024-11-08T02:00:00	6	Velocidad del viento	1.6
75146	7	Sololá	710	Panajachel	8	Panajachel	11	Noviembre	2023-11-30T00:00:00	2024-11-08T02:00:00	7	Dirección del viento	1.61
75147	7	Sololá	710	Panajachel	8	Panajachel	11	Noviembre	2023-11-30T00:00:00	2024-11-08T02:00:00	1	Precipitación	0
75148	7	Sololá	710	Panajachel	8	Panajachel	11	Noviembre	2023-11-30T00:00:00	2024-11-08T02:00:00	8	Radiación solar	0
75149	7	Sololá	710	Panajachel	8	Panajachel	11	Noviembre	2023-11-30T00:00:00	2024-11-08T03:00:00	2	Temperatura media	17.1
75150	7	Sololá	710	Panajachel	8	Panajachel	11	Noviembre	2023-11-30T00:00:00	2024-11-08T03:00:00	4	Temperatura máxima	17.4
75151	7	Sololá	710	Panajachel	8	Panajachel	11	Noviembre	2023-11-30T00:00:00	2024-11-08T03:00:00	3	Temperatura mínima	16.9
75152	7	Sololá	710	Panajachel	8	Panajachel	11	Noviembre	2023-11-30T00:00:00	2024-11-08T03:00:00	5	Humedad	78
75153	7	Sololá	710	Panajachel	8	Panajachel	11	Noviembre	2023-11-30T00:00:00	2024-11-08T03:00:00	6	Velocidad del viento	1.6
75154	7	Sololá	710	Panajachel	8	Panajachel	11	Noviembre	2023-11-30T00:00:00	2024-11-08T03:00:00	7	Dirección del viento	1.61
75155	7	Sololá	710	Panajachel	8	Panajachel	11	Noviembre	2023-11-30T00:00:00	2024-11-08T03:00:00	1	Precipitación	0
75156	7	Sololá	710	Panajachel	8	Panajachel	11	Noviembre	2023-11-30T00:00:00	2024-11-08T03:00:00	8	Radiación solar	0
75157	7	Sololá	710	Panajachel	8	Panajachel	11	Noviembre	2023-11-30T00:00:00	2024-11-08T04:00:00	2	Temperatura media	16.9
75158	7	Sololá	710	Panajachel	8	Panajachel	11	Noviembre	2023-11-30T00:00:00	2024-11-08T04:00:00	4	Temperatura máxima	17.3
75159	7	Sololá	710	Panajachel	8	Panajachel	11	Noviembre	2023-11-30T00:00:00	2024-11-08T04:00:00	3	Temperatura mínima	16.8
75160	7	Sololá	710	Panajachel	8	Panajachel	11	Noviembre	2023-11-30T00:00:00	2024-11-08T04:00:00	5	Humedad	79
75161	7	Sololá	710	Panajachel	8	Panajachel	11	Noviembre	2023-11-30T00:00:00	2024-11-08T04:00:00	6	Velocidad del viento	3.2
75162	7	Sololá	710	Panajachel	8	Panajachel	11	Noviembre	2023-11-30T00:00:00	2024-11-08T04:00:00	7	Dirección del viento	3.22
75163	7	Sololá	710	Panajachel	8	Panajachel	11	Noviembre	2023-11-30T00:00:00	2024-11-08T04:00:00	1	Precipitación	0
75164	7	Sololá	710	Panajachel	8	Panajachel	11	Noviembre	2023-11-30T00:00:00	2024-11-08T04:00:00	8	Radiación solar	0
75165	7	Sololá	710	Panajachel	8	Panajachel	11	Noviembre	2023-11-30T00:00:00	2024-11-08T05:00:00	2	Temperatura media	17
75166	7	Sololá	710	Panajachel	8	Panajachel	11	Noviembre	2023-11-30T00:00:00	2024-11-08T05:00:00	4	Temperatura máxima	17.3
75167	7	Sololá	710	Panajachel	8	Panajachel	11	Noviembre	2023-11-30T00:00:00	2024-11-08T05:00:00	3	Temperatura mínima	16.9
75168	7	Sololá	710	Panajachel	8	Panajachel	11	Noviembre	2023-11-30T00:00:00	2024-11-08T05:00:00	5	Humedad	77
75169	7	Sololá	710	Panajachel	8	Panajachel	11	Noviembre	2023-11-30T00:00:00	2024-11-08T05:00:00	6	Velocidad del viento	1.6
75170	7	Sololá	710	Panajachel	8	Panajachel	11	Noviembre	2023-11-30T00:00:00	2024-11-08T05:00:00	7	Dirección del viento	1.61
75171	7	Sololá	710	Panajachel	8	Panajachel	11	Noviembre	2023-11-30T00:00:00	2024-11-08T05:00:00	1	Precipitación	0
75172	7	Sololá	710	Panajachel	8	Panajachel	11	Noviembre	2023-11-30T00:00:00	2024-11-08T05:00:00	8	Radiación solar	0
75173	7	Sololá	710	Panajachel	8	Panajachel	11	Noviembre	2023-11-30T00:00:00	2024-11-08T06:00:00	2	Temperatura media	16
75174	7	Sololá	710	Panajachel	8	Panajachel	11	Noviembre	2023-11-30T00:00:00	2024-11-08T06:00:00	4	Temperatura máxima	17.1
75175	7	Sololá	710	Panajachel	8	Panajachel	11	Noviembre	2023-11-30T00:00:00	2024-11-08T06:00:00	3	Temperatura mínima	15.9
75176	7	Sololá	710	Panajachel	8	Panajachel	11	Noviembre	2023-11-30T00:00:00	2024-11-08T06:00:00	5	Humedad	81
75177	7	Sololá	710	Panajachel	8	Panajachel	11	Noviembre	2023-11-30T00:00:00	2024-11-08T06:00:00	6	Velocidad del viento	3.2
75178	7	Sololá	710	Panajachel	8	Panajachel	11	Noviembre	2023-11-30T00:00:00	2024-11-08T06:00:00	7	Dirección del viento	3.22
75179	7	Sololá	710	Panajachel	8	Panajachel	11	Noviembre	2023-11-30T00:00:00	2024-11-08T06:00:00	1	Precipitación	0
75180	7	Sololá	710	Panajachel	8	Panajachel	11	Noviembre	2023-11-30T00:00:00	2024-11-08T06:00:00	8	Radiación solar	0
75181	7	Sololá	710	Panajachel	8	Panajachel	11	Noviembre	2023-11-30T00:00:00	2024-11-08T07:00:00	2	Temperatura media	17.5
75182	7	Sololá	710	Panajachel	8	Panajachel	11	Noviembre	2023-11-30T00:00:00	2024-11-08T07:00:00	4	Temperatura máxima	17.5
75183	7	Sololá	710	Panajachel	8	Panajachel	11	Noviembre	2023-11-30T00:00:00	2024-11-08T07:00:00	3	Temperatura mínima	15.9
75184	7	Sololá	710	Panajachel	8	Panajachel	11	Noviembre	2023-11-30T00:00:00	2024-11-08T07:00:00	5	Humedad	77
75185	7	Sololá	710	Panajachel	8	Panajachel	11	Noviembre	2023-11-30T00:00:00	2024-11-08T07:00:00	6	Velocidad del viento	1.6
75186	7	Sololá	710	Panajachel	8	Panajachel	11	Noviembre	2023-11-30T00:00:00	2024-11-08T07:00:00	7	Dirección del viento	1.61
75187	7	Sololá	710	Panajachel	8	Panajachel	11	Noviembre	2023-11-30T00:00:00	2024-11-08T07:00:00	1	Precipitación	0
75188	7	Sololá	710	Panajachel	8	Panajachel	11	Noviembre	2023-11-30T00:00:00	2024-11-08T07:00:00	8	Radiación solar	11
75189	7	Sololá	710	Panajachel	8	Panajachel	11	Noviembre	2023-11-30T00:00:00	2024-11-08T08:00:00	2	Temperatura media	20.3
75190	7	Sololá	710	Panajachel	8	Panajachel	11	Noviembre	2023-11-30T00:00:00	2024-11-08T08:00:00	4	Temperatura máxima	20.3
75191	7	Sololá	710	Panajachel	8	Panajachel	11	Noviembre	2023-11-30T00:00:00	2024-11-08T08:00:00	3	Temperatura mínima	17.5
75192	7	Sololá	710	Panajachel	8	Panajachel	11	Noviembre	2023-11-30T00:00:00	2024-11-08T08:00:00	5	Humedad	70
75193	7	Sololá	710	Panajachel	8	Panajachel	11	Noviembre	2023-11-30T00:00:00	2024-11-08T08:00:00	6	Velocidad del viento	3.2
75194	7	Sololá	710	Panajachel	8	Panajachel	11	Noviembre	2023-11-30T00:00:00	2024-11-08T08:00:00	7	Dirección del viento	3.22
75195	7	Sololá	710	Panajachel	8	Panajachel	11	Noviembre	2023-11-30T00:00:00	2024-11-08T08:00:00	1	Precipitación	0
75196	7	Sololá	710	Panajachel	8	Panajachel	11	Noviembre	2023-11-30T00:00:00	2024-11-08T08:00:00	8	Radiación solar	210
75197	7	Sololá	710	Panajachel	8	Panajachel	11	Noviembre	2023-11-30T00:00:00	2024-11-08T09:00:00	2	Temperatura media	20.8
75198	7	Sololá	710	Panajachel	8	Panajachel	11	Noviembre	2023-11-30T00:00:00	2024-11-08T09:00:00	4	Temperatura máxima	22.2
75199	7	Sololá	710	Panajachel	8	Panajachel	11	Noviembre	2023-11-30T00:00:00	2024-11-08T09:00:00	3	Temperatura mínima	20.3
75200	7	Sololá	710	Panajachel	8	Panajachel	11	Noviembre	2023-11-30T00:00:00	2024-11-08T09:00:00	5	Humedad	73
75201	7	Sololá	710	Panajachel	8	Panajachel	11	Noviembre	2023-11-30T00:00:00	2024-11-08T09:00:00	6	Velocidad del viento	3.2
75202	7	Sololá	710	Panajachel	8	Panajachel	11	Noviembre	2023-11-30T00:00:00	2024-11-08T09:00:00	7	Dirección del viento	3.22
75203	7	Sololá	710	Panajachel	8	Panajachel	11	Noviembre	2023-11-30T00:00:00	2024-11-08T09:00:00	1	Precipitación	0
75204	7	Sololá	710	Panajachel	8	Panajachel	11	Noviembre	2023-11-30T00:00:00	2024-11-08T09:00:00	8	Radiación solar	418
75205	7	Sololá	710	Panajachel	8	Panajachel	11	Noviembre	2023-11-30T00:00:00	2024-11-08T10:00:00	2	Temperatura media	22
75206	7	Sololá	710	Panajachel	8	Panajachel	11	Noviembre	2023-11-30T00:00:00	2024-11-08T10:00:00	4	Temperatura máxima	22
75207	7	Sololá	710	Panajachel	8	Panajachel	11	Noviembre	2023-11-30T00:00:00	2024-11-08T10:00:00	3	Temperatura mínima	20.7
75208	7	Sololá	710	Panajachel	8	Panajachel	11	Noviembre	2023-11-30T00:00:00	2024-11-08T10:00:00	5	Humedad	72
75209	7	Sololá	710	Panajachel	8	Panajachel	11	Noviembre	2023-11-30T00:00:00	2024-11-08T10:00:00	6	Velocidad del viento	3.2
75210	7	Sololá	710	Panajachel	8	Panajachel	11	Noviembre	2023-11-30T00:00:00	2024-11-08T10:00:00	7	Dirección del viento	3.22
75211	7	Sololá	710	Panajachel	8	Panajachel	11	Noviembre	2023-11-30T00:00:00	2024-11-08T10:00:00	1	Precipitación	0
75212	7	Sololá	710	Panajachel	8	Panajachel	11	Noviembre	2023-11-30T00:00:00	2024-11-08T10:00:00	8	Radiación solar	546
75213	7	Sololá	710	Panajachel	8	Panajachel	11	Noviembre	2023-11-30T00:00:00	2024-11-08T11:00:00	2	Temperatura media	22.9
75214	7	Sololá	710	Panajachel	8	Panajachel	11	Noviembre	2023-11-30T00:00:00	2024-11-08T11:00:00	4	Temperatura máxima	22.9
75215	7	Sololá	710	Panajachel	8	Panajachel	11	Noviembre	2023-11-30T00:00:00	2024-11-08T11:00:00	3	Temperatura mínima	21.8
75216	7	Sololá	710	Panajachel	8	Panajachel	11	Noviembre	2023-11-30T00:00:00	2024-11-08T11:00:00	5	Humedad	69
75217	7	Sololá	710	Panajachel	8	Panajachel	11	Noviembre	2023-11-30T00:00:00	2024-11-08T11:00:00	6	Velocidad del viento	4.8
75218	7	Sololá	710	Panajachel	8	Panajachel	11	Noviembre	2023-11-30T00:00:00	2024-11-08T11:00:00	7	Dirección del viento	4.83
75219	7	Sololá	710	Panajachel	8	Panajachel	11	Noviembre	2023-11-30T00:00:00	2024-11-08T11:00:00	1	Precipitación	0
75220	7	Sololá	710	Panajachel	8	Panajachel	11	Noviembre	2023-11-30T00:00:00	2024-11-08T11:00:00	8	Radiación solar	710
75221	7	Sololá	710	Panajachel	8	Panajachel	11	Noviembre	2023-11-30T00:00:00	2024-11-08T12:00:00	2	Temperatura media	24.3
75222	7	Sololá	710	Panajachel	8	Panajachel	11	Noviembre	2023-11-30T00:00:00	2024-11-08T12:00:00	4	Temperatura máxima	24.3
75223	7	Sololá	710	Panajachel	8	Panajachel	11	Noviembre	2023-11-30T00:00:00	2024-11-08T12:00:00	3	Temperatura mínima	23
75224	7	Sololá	710	Panajachel	8	Panajachel	11	Noviembre	2023-11-30T00:00:00	2024-11-08T12:00:00	5	Humedad	67
75225	7	Sololá	710	Panajachel	8	Panajachel	11	Noviembre	2023-11-30T00:00:00	2024-11-08T12:00:00	6	Velocidad del viento	4.8
75226	7	Sololá	710	Panajachel	8	Panajachel	11	Noviembre	2023-11-30T00:00:00	2024-11-08T12:00:00	7	Dirección del viento	4.83
75227	7	Sololá	710	Panajachel	8	Panajachel	11	Noviembre	2023-11-30T00:00:00	2024-11-08T12:00:00	1	Precipitación	0
75228	7	Sololá	710	Panajachel	8	Panajachel	11	Noviembre	2023-11-30T00:00:00	2024-11-08T12:00:00	8	Radiación solar	768
75229	7	Sololá	710	Panajachel	8	Panajachel	11	Noviembre	2023-11-30T00:00:00	2024-11-08T13:00:00	2	Temperatura media	24.8
75230	7	Sololá	710	Panajachel	8	Panajachel	11	Noviembre	2023-11-30T00:00:00	2024-11-08T13:00:00	4	Temperatura máxima	25.5
75231	7	Sololá	710	Panajachel	8	Panajachel	11	Noviembre	2023-11-30T00:00:00	2024-11-08T13:00:00	3	Temperatura mínima	23.9
75232	7	Sololá	710	Panajachel	8	Panajachel	11	Noviembre	2023-11-30T00:00:00	2024-11-08T13:00:00	5	Humedad	70
75233	7	Sololá	710	Panajachel	8	Panajachel	11	Noviembre	2023-11-30T00:00:00	2024-11-08T13:00:00	6	Velocidad del viento	6.4
75234	7	Sololá	710	Panajachel	8	Panajachel	11	Noviembre	2023-11-30T00:00:00	2024-11-08T13:00:00	7	Dirección del viento	6.44
75235	7	Sololá	710	Panajachel	8	Panajachel	11	Noviembre	2023-11-30T00:00:00	2024-11-08T13:00:00	1	Precipitación	0
75236	7	Sololá	710	Panajachel	8	Panajachel	11	Noviembre	2023-11-30T00:00:00	2024-11-08T13:00:00	8	Radiación solar	756
75237	7	Sololá	710	Panajachel	8	Panajachel	11	Noviembre	2023-11-30T00:00:00	2024-11-08T14:00:00	2	Temperatura media	24.2
75238	7	Sololá	710	Panajachel	8	Panajachel	11	Noviembre	2023-11-30T00:00:00	2024-11-08T14:00:00	4	Temperatura máxima	25.3
75239	7	Sololá	710	Panajachel	8	Panajachel	11	Noviembre	2023-11-30T00:00:00	2024-11-08T14:00:00	3	Temperatura mínima	23.1
75240	7	Sololá	710	Panajachel	8	Panajachel	11	Noviembre	2023-11-30T00:00:00	2024-11-08T14:00:00	5	Humedad	78
75241	7	Sololá	710	Panajachel	8	Panajachel	11	Noviembre	2023-11-30T00:00:00	2024-11-08T14:00:00	6	Velocidad del viento	8
75242	7	Sololá	710	Panajachel	8	Panajachel	11	Noviembre	2023-11-30T00:00:00	2024-11-08T14:00:00	7	Dirección del viento	8.05
75243	7	Sololá	710	Panajachel	8	Panajachel	11	Noviembre	2023-11-30T00:00:00	2024-11-08T14:00:00	1	Precipitación	0
75244	7	Sololá	710	Panajachel	8	Panajachel	11	Noviembre	2023-11-30T00:00:00	2024-11-08T14:00:00	8	Radiación solar	685
75245	7	Sololá	710	Panajachel	8	Panajachel	11	Noviembre	2023-11-30T00:00:00	2024-11-08T15:00:00	2	Temperatura media	23.6
75246	7	Sololá	710	Panajachel	8	Panajachel	11	Noviembre	2023-11-30T00:00:00	2024-11-08T15:00:00	4	Temperatura máxima	24.5
75247	7	Sololá	710	Panajachel	8	Panajachel	11	Noviembre	2023-11-30T00:00:00	2024-11-08T15:00:00	3	Temperatura mínima	22.6
75248	7	Sololá	710	Panajachel	8	Panajachel	11	Noviembre	2023-11-30T00:00:00	2024-11-08T15:00:00	5	Humedad	79
75249	7	Sololá	710	Panajachel	8	Panajachel	11	Noviembre	2023-11-30T00:00:00	2024-11-08T15:00:00	6	Velocidad del viento	8
75250	7	Sololá	710	Panajachel	8	Panajachel	11	Noviembre	2023-11-30T00:00:00	2024-11-08T15:00:00	7	Dirección del viento	8.05
75251	7	Sololá	710	Panajachel	8	Panajachel	11	Noviembre	2023-11-30T00:00:00	2024-11-08T15:00:00	1	Precipitación	0
75252	7	Sololá	710	Panajachel	8	Panajachel	11	Noviembre	2023-11-30T00:00:00	2024-11-08T15:00:00	8	Radiación solar	482
75253	7	Sololá	710	Panajachel	8	Panajachel	11	Noviembre	2023-11-30T00:00:00	2024-11-08T16:00:00	2	Temperatura media	23.4
75254	7	Sololá	710	Panajachel	8	Panajachel	11	Noviembre	2023-11-30T00:00:00	2024-11-08T16:00:00	4	Temperatura máxima	24.7
75255	7	Sololá	710	Panajachel	8	Panajachel	11	Noviembre	2023-11-30T00:00:00	2024-11-08T16:00:00	3	Temperatura mínima	23
75256	7	Sololá	710	Panajachel	8	Panajachel	11	Noviembre	2023-11-30T00:00:00	2024-11-08T16:00:00	5	Humedad	80
75257	7	Sololá	710	Panajachel	8	Panajachel	11	Noviembre	2023-11-30T00:00:00	2024-11-08T16:00:00	6	Velocidad del viento	6.4
75258	7	Sololá	710	Panajachel	8	Panajachel	11	Noviembre	2023-11-30T00:00:00	2024-11-08T16:00:00	7	Dirección del viento	6.44
75259	7	Sololá	710	Panajachel	8	Panajachel	11	Noviembre	2023-11-30T00:00:00	2024-11-08T16:00:00	1	Precipitación	0
75260	7	Sololá	710	Panajachel	8	Panajachel	11	Noviembre	2023-11-30T00:00:00	2024-11-08T16:00:00	8	Radiación solar	400
75261	7	Sololá	710	Panajachel	8	Panajachel	11	Noviembre	2023-11-30T00:00:00	2024-11-08T17:00:00	2	Temperatura media	21.9
75262	7	Sololá	710	Panajachel	8	Panajachel	11	Noviembre	2023-11-30T00:00:00	2024-11-08T17:00:00	4	Temperatura máxima	23.6
75263	7	Sololá	710	Panajachel	8	Panajachel	11	Noviembre	2023-11-30T00:00:00	2024-11-08T17:00:00	3	Temperatura mínima	21.9
75264	7	Sololá	710	Panajachel	8	Panajachel	11	Noviembre	2023-11-30T00:00:00	2024-11-08T17:00:00	5	Humedad	84
75265	7	Sololá	710	Panajachel	8	Panajachel	11	Noviembre	2023-11-30T00:00:00	2024-11-08T17:00:00	6	Velocidad del viento	3.2
75266	7	Sololá	710	Panajachel	8	Panajachel	11	Noviembre	2023-11-30T00:00:00	2024-11-08T17:00:00	7	Dirección del viento	3.22
75267	7	Sololá	710	Panajachel	8	Panajachel	11	Noviembre	2023-11-30T00:00:00	2024-11-08T17:00:00	1	Precipitación	0
75268	7	Sololá	710	Panajachel	8	Panajachel	11	Noviembre	2023-11-30T00:00:00	2024-11-08T17:00:00	8	Radiación solar	159
75269	7	Sololá	710	Panajachel	8	Panajachel	11	Noviembre	2023-11-30T00:00:00	2024-11-08T18:00:00	2	Temperatura media	20.8
75270	7	Sololá	710	Panajachel	8	Panajachel	11	Noviembre	2023-11-30T00:00:00	2024-11-08T18:00:00	4	Temperatura máxima	21.9
75271	7	Sololá	710	Panajachel	8	Panajachel	11	Noviembre	2023-11-30T00:00:00	2024-11-08T18:00:00	3	Temperatura mínima	20.8
75272	7	Sololá	710	Panajachel	8	Panajachel	11	Noviembre	2023-11-30T00:00:00	2024-11-08T18:00:00	5	Humedad	87
75273	7	Sololá	710	Panajachel	8	Panajachel	11	Noviembre	2023-11-30T00:00:00	2024-11-08T18:00:00	6	Velocidad del viento	1.6
75274	7	Sololá	710	Panajachel	8	Panajachel	11	Noviembre	2023-11-30T00:00:00	2024-11-08T18:00:00	7	Dirección del viento	1.61
75275	7	Sololá	710	Panajachel	8	Panajachel	11	Noviembre	2023-11-30T00:00:00	2024-11-08T18:00:00	1	Precipitación	0
75276	7	Sololá	710	Panajachel	8	Panajachel	11	Noviembre	2023-11-30T00:00:00	2024-11-08T18:00:00	8	Radiación solar	21
75277	7	Sololá	710	Panajachel	8	Panajachel	11	Noviembre	2023-11-30T00:00:00	2024-11-08T19:00:00	2	Temperatura media	20.1
75278	7	Sololá	710	Panajachel	8	Panajachel	11	Noviembre	2023-11-30T00:00:00	2024-11-08T19:00:00	4	Temperatura máxima	20.8
75279	7	Sololá	710	Panajachel	8	Panajachel	11	Noviembre	2023-11-30T00:00:00	2024-11-08T19:00:00	3	Temperatura mínima	20.1
75280	7	Sololá	710	Panajachel	8	Panajachel	11	Noviembre	2023-11-30T00:00:00	2024-11-08T19:00:00	5	Humedad	89
75281	7	Sololá	710	Panajachel	8	Panajachel	11	Noviembre	2023-11-30T00:00:00	2024-11-08T19:00:00	6	Velocidad del viento	1.6
75282	7	Sololá	710	Panajachel	8	Panajachel	11	Noviembre	2023-11-30T00:00:00	2024-11-08T19:00:00	7	Dirección del viento	1.61
75283	7	Sololá	710	Panajachel	8	Panajachel	11	Noviembre	2023-11-30T00:00:00	2024-11-08T19:00:00	1	Precipitación	0
75284	7	Sololá	710	Panajachel	8	Panajachel	11	Noviembre	2023-11-30T00:00:00	2024-11-08T19:00:00	8	Radiación solar	0
75285	7	Sololá	710	Panajachel	8	Panajachel	11	Noviembre	2023-11-30T00:00:00	2024-11-08T20:00:00	2	Temperatura media	19.8
75286	7	Sololá	710	Panajachel	8	Panajachel	11	Noviembre	2023-11-30T00:00:00	2024-11-08T20:00:00	4	Temperatura máxima	20.2
75287	7	Sololá	710	Panajachel	8	Panajachel	11	Noviembre	2023-11-30T00:00:00	2024-11-08T20:00:00	3	Temperatura mínima	19.8
75288	7	Sololá	710	Panajachel	8	Panajachel	11	Noviembre	2023-11-30T00:00:00	2024-11-08T20:00:00	5	Humedad	85
75289	7	Sololá	710	Panajachel	8	Panajachel	11	Noviembre	2023-11-30T00:00:00	2024-11-08T20:00:00	6	Velocidad del viento	1.6
75290	7	Sololá	710	Panajachel	8	Panajachel	11	Noviembre	2023-11-30T00:00:00	2024-11-08T20:00:00	7	Dirección del viento	1.61
75291	7	Sololá	710	Panajachel	8	Panajachel	11	Noviembre	2023-11-30T00:00:00	2024-11-08T20:00:00	1	Precipitación	0
75292	7	Sololá	710	Panajachel	8	Panajachel	11	Noviembre	2023-11-30T00:00:00	2024-11-08T20:00:00	8	Radiación solar	0
75293	7	Sololá	710	Panajachel	8	Panajachel	11	Noviembre	2023-11-30T00:00:00	2024-11-08T21:00:00	2	Temperatura media	18.5
75294	7	Sololá	710	Panajachel	8	Panajachel	11	Noviembre	2023-11-30T00:00:00	2024-11-08T21:00:00	4	Temperatura máxima	19.8
75295	7	Sololá	710	Panajachel	8	Panajachel	11	Noviembre	2023-11-30T00:00:00	2024-11-08T21:00:00	3	Temperatura mínima	18.5
75296	7	Sololá	710	Panajachel	8	Panajachel	11	Noviembre	2023-11-30T00:00:00	2024-11-08T21:00:00	5	Humedad	84
75297	7	Sololá	710	Panajachel	8	Panajachel	11	Noviembre	2023-11-30T00:00:00	2024-11-08T21:00:00	6	Velocidad del viento	3.2
75298	7	Sololá	710	Panajachel	8	Panajachel	11	Noviembre	2023-11-30T00:00:00	2024-11-08T21:00:00	7	Dirección del viento	3.22
75299	7	Sololá	710	Panajachel	8	Panajachel	11	Noviembre	2023-11-30T00:00:00	2024-11-08T21:00:00	1	Precipitación	0
75300	7	Sololá	710	Panajachel	8	Panajachel	11	Noviembre	2023-11-30T00:00:00	2024-11-08T21:00:00	8	Radiación solar	0
75301	7	Sololá	710	Panajachel	8	Panajachel	11	Noviembre	2023-11-30T00:00:00	2024-11-08T22:00:00	2	Temperatura media	17.8
75302	7	Sololá	710	Panajachel	8	Panajachel	11	Noviembre	2023-11-30T00:00:00	2024-11-08T22:00:00	4	Temperatura máxima	18.5
75303	7	Sololá	710	Panajachel	8	Panajachel	11	Noviembre	2023-11-30T00:00:00	2024-11-08T22:00:00	3	Temperatura mínima	17.8
75304	7	Sololá	710	Panajachel	8	Panajachel	11	Noviembre	2023-11-30T00:00:00	2024-11-08T22:00:00	5	Humedad	85
75305	7	Sololá	710	Panajachel	8	Panajachel	11	Noviembre	2023-11-30T00:00:00	2024-11-08T22:00:00	6	Velocidad del viento	4.8
75306	7	Sololá	710	Panajachel	8	Panajachel	11	Noviembre	2023-11-30T00:00:00	2024-11-08T22:00:00	7	Dirección del viento	4.83
75307	7	Sololá	710	Panajachel	8	Panajachel	11	Noviembre	2023-11-30T00:00:00	2024-11-08T22:00:00	1	Precipitación	0
75308	7	Sololá	710	Panajachel	8	Panajachel	11	Noviembre	2023-11-30T00:00:00	2024-11-08T22:00:00	8	Radiación solar	0
75309	7	Sololá	710	Panajachel	8	Panajachel	11	Noviembre	2023-11-30T00:00:00	2024-11-08T23:00:00	2	Temperatura media	17.9
75310	7	Sololá	710	Panajachel	8	Panajachel	11	Noviembre	2023-11-30T00:00:00	2024-11-08T23:00:00	4	Temperatura máxima	18
75311	7	Sololá	710	Panajachel	8	Panajachel	11	Noviembre	2023-11-30T00:00:00	2024-11-08T23:00:00	3	Temperatura mínima	17.7
75312	7	Sololá	710	Panajachel	8	Panajachel	11	Noviembre	2023-11-30T00:00:00	2024-11-08T23:00:00	5	Humedad	83
75313	7	Sololá	710	Panajachel	8	Panajachel	11	Noviembre	2023-11-30T00:00:00	2024-11-08T23:00:00	6	Velocidad del viento	3.2
75314	7	Sololá	710	Panajachel	8	Panajachel	11	Noviembre	2023-11-30T00:00:00	2024-11-08T23:00:00	7	Dirección del viento	3.22
75315	7	Sololá	710	Panajachel	8	Panajachel	11	Noviembre	2023-11-30T00:00:00	2024-11-08T23:00:00	1	Precipitación	0
75316	7	Sololá	710	Panajachel	8	Panajachel	11	Noviembre	2023-11-30T00:00:00	2024-11-08T23:00:00	8	Radiación solar	0
75317	7	Sololá	710	Panajachel	8	Panajachel	12	Diciembre	2023-01-12T00:00:00	2024-11-08T00:00:00	2	Temperatura media	17.3
75318	7	Sololá	710	Panajachel	8	Panajachel	12	Diciembre	2023-01-12T00:00:00	2024-11-08T00:00:00	4	Temperatura máxima	17.8
75319	7	Sololá	710	Panajachel	8	Panajachel	12	Diciembre	2023-01-12T00:00:00	2024-11-08T00:00:00	3	Temperatura mínima	17.2
75320	7	Sololá	710	Panajachel	8	Panajachel	12	Diciembre	2023-01-12T00:00:00	2024-11-08T00:00:00	5	Humedad	84
75321	7	Sololá	710	Panajachel	8	Panajachel	12	Diciembre	2023-01-12T00:00:00	2024-11-08T00:00:00	6	Velocidad del viento	3.2
75322	7	Sololá	710	Panajachel	8	Panajachel	12	Diciembre	2023-01-12T00:00:00	2024-11-08T00:00:00	7	Dirección del viento	3.22
75323	7	Sololá	710	Panajachel	8	Panajachel	12	Diciembre	2023-01-12T00:00:00	2024-11-08T00:00:00	1	Precipitación	0
75324	7	Sololá	710	Panajachel	8	Panajachel	12	Diciembre	2023-01-12T00:00:00	2024-11-08T00:00:00	8	Radiación solar	0
75325	7	Sololá	710	Panajachel	8	Panajachel	12	Diciembre	2023-01-12T00:00:00	2024-11-08T01:00:00	2	Temperatura media	16.9
75326	7	Sololá	710	Panajachel	8	Panajachel	12	Diciembre	2023-01-12T00:00:00	2024-11-08T01:00:00	4	Temperatura máxima	17.2
75327	7	Sololá	710	Panajachel	8	Panajachel	12	Diciembre	2023-01-12T00:00:00	2024-11-08T01:00:00	3	Temperatura mínima	16.8
75328	7	Sololá	710	Panajachel	8	Panajachel	12	Diciembre	2023-01-12T00:00:00	2024-11-08T01:00:00	5	Humedad	81
75329	7	Sololá	710	Panajachel	8	Panajachel	12	Diciembre	2023-01-12T00:00:00	2024-11-08T01:00:00	6	Velocidad del viento	1.6
75330	7	Sololá	710	Panajachel	8	Panajachel	12	Diciembre	2023-01-12T00:00:00	2024-11-08T01:00:00	7	Dirección del viento	1.61
75331	7	Sololá	710	Panajachel	8	Panajachel	12	Diciembre	2023-01-12T00:00:00	2024-11-08T01:00:00	1	Precipitación	0
75332	7	Sololá	710	Panajachel	8	Panajachel	12	Diciembre	2023-01-12T00:00:00	2024-11-08T01:00:00	8	Radiación solar	0
75333	7	Sololá	710	Panajachel	8	Panajachel	12	Diciembre	2023-01-12T00:00:00	2024-11-08T02:00:00	2	Temperatura media	16.1
75334	7	Sololá	710	Panajachel	8	Panajachel	12	Diciembre	2023-01-12T00:00:00	2024-11-08T02:00:00	4	Temperatura máxima	17
75335	7	Sololá	710	Panajachel	8	Panajachel	12	Diciembre	2023-01-12T00:00:00	2024-11-08T02:00:00	3	Temperatura mínima	16.1
75336	7	Sololá	710	Panajachel	8	Panajachel	12	Diciembre	2023-01-12T00:00:00	2024-11-08T02:00:00	5	Humedad	80
75337	7	Sololá	710	Panajachel	8	Panajachel	12	Diciembre	2023-01-12T00:00:00	2024-11-08T02:00:00	6	Velocidad del viento	0
75338	7	Sololá	710	Panajachel	8	Panajachel	12	Diciembre	2023-01-12T00:00:00	2024-11-08T02:00:00	7	Dirección del viento	0
75339	7	Sololá	710	Panajachel	8	Panajachel	12	Diciembre	2023-01-12T00:00:00	2024-11-08T02:00:00	1	Precipitación	0
75340	7	Sololá	710	Panajachel	8	Panajachel	12	Diciembre	2023-01-12T00:00:00	2024-11-08T02:00:00	8	Radiación solar	0
75341	7	Sololá	710	Panajachel	8	Panajachel	12	Diciembre	2023-01-12T00:00:00	2024-11-08T03:00:00	2	Temperatura media	15.8
75342	7	Sololá	710	Panajachel	8	Panajachel	12	Diciembre	2023-01-12T00:00:00	2024-11-08T03:00:00	4	Temperatura máxima	16.2
75343	7	Sololá	710	Panajachel	8	Panajachel	12	Diciembre	2023-01-12T00:00:00	2024-11-08T03:00:00	3	Temperatura mínima	15.7
75344	7	Sololá	710	Panajachel	8	Panajachel	12	Diciembre	2023-01-12T00:00:00	2024-11-08T03:00:00	5	Humedad	74
75345	7	Sololá	710	Panajachel	8	Panajachel	12	Diciembre	2023-01-12T00:00:00	2024-11-08T03:00:00	6	Velocidad del viento	3.2
75346	7	Sololá	710	Panajachel	8	Panajachel	12	Diciembre	2023-01-12T00:00:00	2024-11-08T03:00:00	7	Dirección del viento	3.22
75347	7	Sololá	710	Panajachel	8	Panajachel	12	Diciembre	2023-01-12T00:00:00	2024-11-08T03:00:00	1	Precipitación	0
75348	7	Sololá	710	Panajachel	8	Panajachel	12	Diciembre	2023-01-12T00:00:00	2024-11-08T03:00:00	8	Radiación solar	0
75349	7	Sololá	710	Panajachel	8	Panajachel	12	Diciembre	2023-01-12T00:00:00	2024-11-08T04:00:00	2	Temperatura media	15.4
75350	7	Sololá	710	Panajachel	8	Panajachel	12	Diciembre	2023-01-12T00:00:00	2024-11-08T04:00:00	4	Temperatura máxima	15.8
75351	7	Sololá	710	Panajachel	8	Panajachel	12	Diciembre	2023-01-12T00:00:00	2024-11-08T04:00:00	3	Temperatura mínima	15.3
75352	7	Sololá	710	Panajachel	8	Panajachel	12	Diciembre	2023-01-12T00:00:00	2024-11-08T04:00:00	5	Humedad	73
75353	7	Sololá	710	Panajachel	8	Panajachel	12	Diciembre	2023-01-12T00:00:00	2024-11-08T04:00:00	6	Velocidad del viento	3.2
75354	7	Sololá	710	Panajachel	8	Panajachel	12	Diciembre	2023-01-12T00:00:00	2024-11-08T04:00:00	7	Dirección del viento	3.22
75355	7	Sololá	710	Panajachel	8	Panajachel	12	Diciembre	2023-01-12T00:00:00	2024-11-08T04:00:00	1	Precipitación	0
75356	7	Sololá	710	Panajachel	8	Panajachel	12	Diciembre	2023-01-12T00:00:00	2024-11-08T04:00:00	8	Radiación solar	0
75357	7	Sololá	710	Panajachel	8	Panajachel	12	Diciembre	2023-01-12T00:00:00	2024-11-08T05:00:00	2	Temperatura media	15.2
75358	7	Sololá	710	Panajachel	8	Panajachel	12	Diciembre	2023-01-12T00:00:00	2024-11-08T05:00:00	4	Temperatura máxima	15.8
75359	7	Sololá	710	Panajachel	8	Panajachel	12	Diciembre	2023-01-12T00:00:00	2024-11-08T05:00:00	3	Temperatura mínima	15
75360	7	Sololá	710	Panajachel	8	Panajachel	12	Diciembre	2023-01-12T00:00:00	2024-11-08T05:00:00	5	Humedad	74
75361	7	Sololá	710	Panajachel	8	Panajachel	12	Diciembre	2023-01-12T00:00:00	2024-11-08T05:00:00	6	Velocidad del viento	3.2
75362	7	Sololá	710	Panajachel	8	Panajachel	12	Diciembre	2023-01-12T00:00:00	2024-11-08T05:00:00	7	Dirección del viento	3.22
75363	7	Sololá	710	Panajachel	8	Panajachel	12	Diciembre	2023-01-12T00:00:00	2024-11-08T05:00:00	1	Precipitación	0
75364	7	Sololá	710	Panajachel	8	Panajachel	12	Diciembre	2023-01-12T00:00:00	2024-11-08T05:00:00	8	Radiación solar	0
75365	7	Sololá	710	Panajachel	8	Panajachel	12	Diciembre	2023-01-12T00:00:00	2024-11-08T06:00:00	2	Temperatura media	14.8
75366	7	Sololá	710	Panajachel	8	Panajachel	12	Diciembre	2023-01-12T00:00:00	2024-11-08T06:00:00	4	Temperatura máxima	15.6
75367	7	Sololá	710	Panajachel	8	Panajachel	12	Diciembre	2023-01-12T00:00:00	2024-11-08T06:00:00	3	Temperatura mínima	14.8
75368	7	Sololá	710	Panajachel	8	Panajachel	12	Diciembre	2023-01-12T00:00:00	2024-11-08T06:00:00	5	Humedad	77
75369	7	Sololá	710	Panajachel	8	Panajachel	12	Diciembre	2023-01-12T00:00:00	2024-11-08T06:00:00	6	Velocidad del viento	3.2
75370	7	Sololá	710	Panajachel	8	Panajachel	12	Diciembre	2023-01-12T00:00:00	2024-11-08T06:00:00	7	Dirección del viento	3.22
75371	7	Sololá	710	Panajachel	8	Panajachel	12	Diciembre	2023-01-12T00:00:00	2024-11-08T06:00:00	1	Precipitación	0
75372	7	Sololá	710	Panajachel	8	Panajachel	12	Diciembre	2023-01-12T00:00:00	2024-11-08T06:00:00	8	Radiación solar	0
75373	7	Sololá	710	Panajachel	8	Panajachel	12	Diciembre	2023-01-12T00:00:00	2024-11-08T07:00:00	2	Temperatura media	15
75374	7	Sololá	710	Panajachel	8	Panajachel	12	Diciembre	2023-01-12T00:00:00	2024-11-08T07:00:00	4	Temperatura máxima	15
75375	7	Sololá	710	Panajachel	8	Panajachel	12	Diciembre	2023-01-12T00:00:00	2024-11-08T07:00:00	3	Temperatura mínima	14.5
75376	7	Sololá	710	Panajachel	8	Panajachel	12	Diciembre	2023-01-12T00:00:00	2024-11-08T07:00:00	5	Humedad	79
75377	7	Sololá	710	Panajachel	8	Panajachel	12	Diciembre	2023-01-12T00:00:00	2024-11-08T07:00:00	6	Velocidad del viento	1.6
75378	7	Sololá	710	Panajachel	8	Panajachel	12	Diciembre	2023-01-12T00:00:00	2024-11-08T07:00:00	7	Dirección del viento	1.61
75379	7	Sololá	710	Panajachel	8	Panajachel	12	Diciembre	2023-01-12T00:00:00	2024-11-08T07:00:00	1	Precipitación	0
75380	7	Sololá	710	Panajachel	8	Panajachel	12	Diciembre	2023-01-12T00:00:00	2024-11-08T07:00:00	8	Radiación solar	11
75381	7	Sololá	710	Panajachel	8	Panajachel	12	Diciembre	2023-01-12T00:00:00	2024-11-08T08:00:00	2	Temperatura media	18.7
75382	7	Sololá	710	Panajachel	8	Panajachel	12	Diciembre	2023-01-12T00:00:00	2024-11-08T08:00:00	4	Temperatura máxima	18.7
75383	7	Sololá	710	Panajachel	8	Panajachel	12	Diciembre	2023-01-12T00:00:00	2024-11-08T08:00:00	3	Temperatura mínima	15.1
75384	7	Sololá	710	Panajachel	8	Panajachel	12	Diciembre	2023-01-12T00:00:00	2024-11-08T08:00:00	5	Humedad	72
75385	7	Sololá	710	Panajachel	8	Panajachel	12	Diciembre	2023-01-12T00:00:00	2024-11-08T08:00:00	6	Velocidad del viento	1.6
75386	7	Sololá	710	Panajachel	8	Panajachel	12	Diciembre	2023-01-12T00:00:00	2024-11-08T08:00:00	7	Dirección del viento	1.61
75387	7	Sololá	710	Panajachel	8	Panajachel	12	Diciembre	2023-01-12T00:00:00	2024-11-08T08:00:00	1	Precipitación	0
75388	7	Sololá	710	Panajachel	8	Panajachel	12	Diciembre	2023-01-12T00:00:00	2024-11-08T08:00:00	8	Radiación solar	201
75389	7	Sololá	710	Panajachel	8	Panajachel	12	Diciembre	2023-01-12T00:00:00	2024-11-08T09:00:00	2	Temperatura media	19.4
75390	7	Sololá	710	Panajachel	8	Panajachel	12	Diciembre	2023-01-12T00:00:00	2024-11-08T09:00:00	4	Temperatura máxima	19.8
75391	7	Sololá	710	Panajachel	8	Panajachel	12	Diciembre	2023-01-12T00:00:00	2024-11-08T09:00:00	3	Temperatura mínima	18.7
75392	7	Sololá	710	Panajachel	8	Panajachel	12	Diciembre	2023-01-12T00:00:00	2024-11-08T09:00:00	5	Humedad	75
75393	7	Sololá	710	Panajachel	8	Panajachel	12	Diciembre	2023-01-12T00:00:00	2024-11-08T09:00:00	6	Velocidad del viento	1.6
75394	7	Sololá	710	Panajachel	8	Panajachel	12	Diciembre	2023-01-12T00:00:00	2024-11-08T09:00:00	7	Dirección del viento	1.61
75395	7	Sololá	710	Panajachel	8	Panajachel	12	Diciembre	2023-01-12T00:00:00	2024-11-08T09:00:00	1	Precipitación	0
75396	7	Sololá	710	Panajachel	8	Panajachel	12	Diciembre	2023-01-12T00:00:00	2024-11-08T09:00:00	8	Radiación solar	410
75397	7	Sololá	710	Panajachel	8	Panajachel	12	Diciembre	2023-01-12T00:00:00	2024-11-08T10:00:00	2	Temperatura media	19.9
75398	7	Sololá	710	Panajachel	8	Panajachel	12	Diciembre	2023-01-12T00:00:00	2024-11-08T10:00:00	4	Temperatura máxima	20.4
75399	7	Sololá	710	Panajachel	8	Panajachel	12	Diciembre	2023-01-12T00:00:00	2024-11-08T10:00:00	3	Temperatura mínima	19.4
75400	7	Sololá	710	Panajachel	8	Panajachel	12	Diciembre	2023-01-12T00:00:00	2024-11-08T10:00:00	5	Humedad	74
75401	7	Sololá	710	Panajachel	8	Panajachel	12	Diciembre	2023-01-12T00:00:00	2024-11-08T10:00:00	6	Velocidad del viento	3.2
75402	7	Sololá	710	Panajachel	8	Panajachel	12	Diciembre	2023-01-12T00:00:00	2024-11-08T10:00:00	7	Dirección del viento	3.22
75403	7	Sololá	710	Panajachel	8	Panajachel	12	Diciembre	2023-01-12T00:00:00	2024-11-08T10:00:00	1	Precipitación	0
75404	7	Sololá	710	Panajachel	8	Panajachel	12	Diciembre	2023-01-12T00:00:00	2024-11-08T10:00:00	8	Radiación solar	583
75405	7	Sololá	710	Panajachel	8	Panajachel	12	Diciembre	2023-01-12T00:00:00	2024-11-08T11:00:00	2	Temperatura media	21.1
75406	7	Sololá	710	Panajachel	8	Panajachel	12	Diciembre	2023-01-12T00:00:00	2024-11-08T11:00:00	4	Temperatura máxima	21.1
75407	7	Sololá	710	Panajachel	8	Panajachel	12	Diciembre	2023-01-12T00:00:00	2024-11-08T11:00:00	3	Temperatura mínima	19.9
75408	7	Sololá	710	Panajachel	8	Panajachel	12	Diciembre	2023-01-12T00:00:00	2024-11-08T11:00:00	5	Humedad	75
75409	7	Sololá	710	Panajachel	8	Panajachel	12	Diciembre	2023-01-12T00:00:00	2024-11-08T11:00:00	6	Velocidad del viento	3.2
75410	7	Sololá	710	Panajachel	8	Panajachel	12	Diciembre	2023-01-12T00:00:00	2024-11-08T11:00:00	7	Dirección del viento	3.22
75411	7	Sololá	710	Panajachel	8	Panajachel	12	Diciembre	2023-01-12T00:00:00	2024-11-08T11:00:00	1	Precipitación	0
75412	7	Sololá	710	Panajachel	8	Panajachel	12	Diciembre	2023-01-12T00:00:00	2024-11-08T11:00:00	8	Radiación solar	700
75413	7	Sololá	710	Panajachel	8	Panajachel	12	Diciembre	2023-01-12T00:00:00	2024-11-08T12:00:00	2	Temperatura media	22.3
75414	7	Sololá	710	Panajachel	8	Panajachel	12	Diciembre	2023-01-12T00:00:00	2024-11-08T12:00:00	4	Temperatura máxima	22.5
75415	7	Sololá	710	Panajachel	8	Panajachel	12	Diciembre	2023-01-12T00:00:00	2024-11-08T12:00:00	3	Temperatura mínima	21.1
75416	7	Sololá	710	Panajachel	8	Panajachel	12	Diciembre	2023-01-12T00:00:00	2024-11-08T12:00:00	5	Humedad	65
75417	7	Sololá	710	Panajachel	8	Panajachel	12	Diciembre	2023-01-12T00:00:00	2024-11-08T12:00:00	6	Velocidad del viento	3.2
75418	7	Sololá	710	Panajachel	8	Panajachel	12	Diciembre	2023-01-12T00:00:00	2024-11-08T12:00:00	7	Dirección del viento	3.22
75419	7	Sololá	710	Panajachel	8	Panajachel	12	Diciembre	2023-01-12T00:00:00	2024-11-08T12:00:00	1	Precipitación	0
75420	7	Sololá	710	Panajachel	8	Panajachel	12	Diciembre	2023-01-12T00:00:00	2024-11-08T12:00:00	8	Radiación solar	752
75421	7	Sololá	710	Panajachel	8	Panajachel	12	Diciembre	2023-01-12T00:00:00	2024-11-08T13:00:00	2	Temperatura media	23.3
75422	7	Sololá	710	Panajachel	8	Panajachel	12	Diciembre	2023-01-12T00:00:00	2024-11-08T13:00:00	4	Temperatura máxima	24.3
75423	7	Sololá	710	Panajachel	8	Panajachel	12	Diciembre	2023-01-12T00:00:00	2024-11-08T13:00:00	3	Temperatura mínima	22.3
75424	7	Sololá	710	Panajachel	8	Panajachel	12	Diciembre	2023-01-12T00:00:00	2024-11-08T13:00:00	5	Humedad	71
75425	7	Sololá	710	Panajachel	8	Panajachel	12	Diciembre	2023-01-12T00:00:00	2024-11-08T13:00:00	6	Velocidad del viento	3.2
75426	7	Sololá	710	Panajachel	8	Panajachel	12	Diciembre	2023-01-12T00:00:00	2024-11-08T13:00:00	7	Dirección del viento	3.22
75427	7	Sololá	710	Panajachel	8	Panajachel	12	Diciembre	2023-01-12T00:00:00	2024-11-08T13:00:00	1	Precipitación	0
75428	7	Sololá	710	Panajachel	8	Panajachel	12	Diciembre	2023-01-12T00:00:00	2024-11-08T13:00:00	8	Radiación solar	745
75429	7	Sololá	710	Panajachel	8	Panajachel	12	Diciembre	2023-01-12T00:00:00	2024-11-08T14:00:00	2	Temperatura media	23.9
75430	7	Sololá	710	Panajachel	8	Panajachel	12	Diciembre	2023-01-12T00:00:00	2024-11-08T14:00:00	4	Temperatura máxima	24.3
75431	7	Sololá	710	Panajachel	8	Panajachel	12	Diciembre	2023-01-12T00:00:00	2024-11-08T14:00:00	3	Temperatura mínima	23.2
75432	7	Sololá	710	Panajachel	8	Panajachel	12	Diciembre	2023-01-12T00:00:00	2024-11-08T14:00:00	5	Humedad	76
75433	7	Sololá	710	Panajachel	8	Panajachel	12	Diciembre	2023-01-12T00:00:00	2024-11-08T14:00:00	6	Velocidad del viento	4.8
75434	7	Sololá	710	Panajachel	8	Panajachel	12	Diciembre	2023-01-12T00:00:00	2024-11-08T14:00:00	7	Dirección del viento	4.83
75435	7	Sololá	710	Panajachel	8	Panajachel	12	Diciembre	2023-01-12T00:00:00	2024-11-08T14:00:00	1	Precipitación	0
75436	7	Sololá	710	Panajachel	8	Panajachel	12	Diciembre	2023-01-12T00:00:00	2024-11-08T14:00:00	8	Radiación solar	626
75437	7	Sololá	710	Panajachel	8	Panajachel	12	Diciembre	2023-01-12T00:00:00	2024-11-08T15:00:00	2	Temperatura media	21.8
75438	7	Sololá	710	Panajachel	8	Panajachel	12	Diciembre	2023-01-12T00:00:00	2024-11-08T15:00:00	4	Temperatura máxima	23.8
75439	7	Sololá	710	Panajachel	8	Panajachel	12	Diciembre	2023-01-12T00:00:00	2024-11-08T15:00:00	3	Temperatura mínima	21.8
75440	7	Sololá	710	Panajachel	8	Panajachel	12	Diciembre	2023-01-12T00:00:00	2024-11-08T15:00:00	5	Humedad	84
75441	7	Sololá	710	Panajachel	8	Panajachel	12	Diciembre	2023-01-12T00:00:00	2024-11-08T15:00:00	6	Velocidad del viento	4.8
75442	7	Sololá	710	Panajachel	8	Panajachel	12	Diciembre	2023-01-12T00:00:00	2024-11-08T15:00:00	7	Dirección del viento	4.83
75443	7	Sololá	710	Panajachel	8	Panajachel	12	Diciembre	2023-01-12T00:00:00	2024-11-08T15:00:00	1	Precipitación	0
75444	7	Sololá	710	Panajachel	8	Panajachel	12	Diciembre	2023-01-12T00:00:00	2024-11-08T15:00:00	8	Radiación solar	169
75445	7	Sololá	710	Panajachel	8	Panajachel	12	Diciembre	2023-01-12T00:00:00	2024-11-08T16:00:00	2	Temperatura media	21.3
75446	7	Sololá	710	Panajachel	8	Panajachel	12	Diciembre	2023-01-12T00:00:00	2024-11-08T16:00:00	4	Temperatura máxima	21.9
75447	7	Sololá	710	Panajachel	8	Panajachel	12	Diciembre	2023-01-12T00:00:00	2024-11-08T16:00:00	3	Temperatura mínima	21.3
75448	7	Sololá	710	Panajachel	8	Panajachel	12	Diciembre	2023-01-12T00:00:00	2024-11-08T16:00:00	5	Humedad	86
75449	7	Sololá	710	Panajachel	8	Panajachel	12	Diciembre	2023-01-12T00:00:00	2024-11-08T16:00:00	6	Velocidad del viento	3.2
75450	7	Sololá	710	Panajachel	8	Panajachel	12	Diciembre	2023-01-12T00:00:00	2024-11-08T16:00:00	7	Dirección del viento	3.22
75451	7	Sololá	710	Panajachel	8	Panajachel	12	Diciembre	2023-01-12T00:00:00	2024-11-08T16:00:00	1	Precipitación	0
75452	7	Sololá	710	Panajachel	8	Panajachel	12	Diciembre	2023-01-12T00:00:00	2024-11-08T16:00:00	8	Radiación solar	141
75453	7	Sololá	710	Panajachel	8	Panajachel	12	Diciembre	2023-01-12T00:00:00	2024-11-08T17:00:00	2	Temperatura media	20.8
75454	7	Sololá	710	Panajachel	8	Panajachel	12	Diciembre	2023-01-12T00:00:00	2024-11-08T17:00:00	4	Temperatura máxima	21.7
75455	7	Sololá	710	Panajachel	8	Panajachel	12	Diciembre	2023-01-12T00:00:00	2024-11-08T17:00:00	3	Temperatura mínima	20.8
75456	7	Sololá	710	Panajachel	8	Panajachel	12	Diciembre	2023-01-12T00:00:00	2024-11-08T17:00:00	5	Humedad	87
75457	7	Sololá	710	Panajachel	8	Panajachel	12	Diciembre	2023-01-12T00:00:00	2024-11-08T17:00:00	6	Velocidad del viento	3.2
75458	7	Sololá	710	Panajachel	8	Panajachel	12	Diciembre	2023-01-12T00:00:00	2024-11-08T17:00:00	7	Dirección del viento	3.22
75459	7	Sololá	710	Panajachel	8	Panajachel	12	Diciembre	2023-01-12T00:00:00	2024-11-08T17:00:00	1	Precipitación	0
75460	7	Sololá	710	Panajachel	8	Panajachel	12	Diciembre	2023-01-12T00:00:00	2024-11-08T17:00:00	8	Radiación solar	85
75461	7	Sololá	710	Panajachel	8	Panajachel	12	Diciembre	2023-01-12T00:00:00	2024-11-08T18:00:00	2	Temperatura media	20.3
75462	7	Sololá	710	Panajachel	8	Panajachel	12	Diciembre	2023-01-12T00:00:00	2024-11-08T18:00:00	4	Temperatura máxima	20.8
75463	7	Sololá	710	Panajachel	8	Panajachel	12	Diciembre	2023-01-12T00:00:00	2024-11-08T18:00:00	3	Temperatura mínima	20.3
75464	7	Sololá	710	Panajachel	8	Panajachel	12	Diciembre	2023-01-12T00:00:00	2024-11-08T18:00:00	5	Humedad	89
75465	7	Sololá	710	Panajachel	8	Panajachel	12	Diciembre	2023-01-12T00:00:00	2024-11-08T18:00:00	6	Velocidad del viento	1.6
75466	7	Sololá	710	Panajachel	8	Panajachel	12	Diciembre	2023-01-12T00:00:00	2024-11-08T18:00:00	7	Dirección del viento	1.61
75467	7	Sololá	710	Panajachel	8	Panajachel	12	Diciembre	2023-01-12T00:00:00	2024-11-08T18:00:00	1	Precipitación	0
75468	7	Sololá	710	Panajachel	8	Panajachel	12	Diciembre	2023-01-12T00:00:00	2024-11-08T18:00:00	8	Radiación solar	7
75469	7	Sololá	710	Panajachel	8	Panajachel	12	Diciembre	2023-01-12T00:00:00	2024-11-08T19:00:00	2	Temperatura media	20.1
75470	7	Sololá	710	Panajachel	8	Panajachel	12	Diciembre	2023-01-12T00:00:00	2024-11-08T19:00:00	4	Temperatura máxima	20.3
75471	7	Sololá	710	Panajachel	8	Panajachel	12	Diciembre	2023-01-12T00:00:00	2024-11-08T19:00:00	3	Temperatura mínima	20.1
75472	7	Sololá	710	Panajachel	8	Panajachel	12	Diciembre	2023-01-12T00:00:00	2024-11-08T19:00:00	5	Humedad	89
75473	7	Sololá	710	Panajachel	8	Panajachel	12	Diciembre	2023-01-12T00:00:00	2024-11-08T19:00:00	6	Velocidad del viento	1.6
75474	7	Sololá	710	Panajachel	8	Panajachel	12	Diciembre	2023-01-12T00:00:00	2024-11-08T19:00:00	7	Dirección del viento	1.61
75475	7	Sololá	710	Panajachel	8	Panajachel	12	Diciembre	2023-01-12T00:00:00	2024-11-08T19:00:00	1	Precipitación	0
75476	7	Sololá	710	Panajachel	8	Panajachel	12	Diciembre	2023-01-12T00:00:00	2024-11-08T19:00:00	8	Radiación solar	0
75477	7	Sololá	710	Panajachel	8	Panajachel	12	Diciembre	2023-01-12T00:00:00	2024-11-08T20:00:00	2	Temperatura media	19
75478	7	Sololá	710	Panajachel	8	Panajachel	12	Diciembre	2023-01-12T00:00:00	2024-11-08T20:00:00	4	Temperatura máxima	20.2
75479	7	Sololá	710	Panajachel	8	Panajachel	12	Diciembre	2023-01-12T00:00:00	2024-11-08T20:00:00	3	Temperatura mínima	19
75480	7	Sololá	710	Panajachel	8	Panajachel	12	Diciembre	2023-01-12T00:00:00	2024-11-08T20:00:00	5	Humedad	91
75481	7	Sololá	710	Panajachel	8	Panajachel	12	Diciembre	2023-01-12T00:00:00	2024-11-08T20:00:00	6	Velocidad del viento	0
75482	7	Sololá	710	Panajachel	8	Panajachel	12	Diciembre	2023-01-12T00:00:00	2024-11-08T20:00:00	7	Dirección del viento	0
75483	7	Sololá	710	Panajachel	8	Panajachel	12	Diciembre	2023-01-12T00:00:00	2024-11-08T20:00:00	1	Precipitación	0
75484	7	Sololá	710	Panajachel	8	Panajachel	12	Diciembre	2023-01-12T00:00:00	2024-11-08T20:00:00	8	Radiación solar	0
75485	7	Sololá	710	Panajachel	8	Panajachel	12	Diciembre	2023-01-12T00:00:00	2024-11-08T21:00:00	2	Temperatura media	18.3
75486	7	Sololá	710	Panajachel	8	Panajachel	12	Diciembre	2023-01-12T00:00:00	2024-11-08T21:00:00	4	Temperatura máxima	19.1
75487	7	Sololá	710	Panajachel	8	Panajachel	12	Diciembre	2023-01-12T00:00:00	2024-11-08T21:00:00	3	Temperatura mínima	18.3
75488	7	Sololá	710	Panajachel	8	Panajachel	12	Diciembre	2023-01-12T00:00:00	2024-11-08T21:00:00	5	Humedad	88
75489	7	Sololá	710	Panajachel	8	Panajachel	12	Diciembre	2023-01-12T00:00:00	2024-11-08T21:00:00	6	Velocidad del viento	3.2
75490	7	Sololá	710	Panajachel	8	Panajachel	12	Diciembre	2023-01-12T00:00:00	2024-11-08T21:00:00	7	Dirección del viento	3.22
75491	7	Sololá	710	Panajachel	8	Panajachel	12	Diciembre	2023-01-12T00:00:00	2024-11-08T21:00:00	1	Precipitación	0
75492	7	Sololá	710	Panajachel	8	Panajachel	12	Diciembre	2023-01-12T00:00:00	2024-11-08T21:00:00	8	Radiación solar	0
75493	7	Sololá	710	Panajachel	8	Panajachel	12	Diciembre	2023-01-12T00:00:00	2024-11-08T22:00:00	2	Temperatura media	17.8
75494	7	Sololá	710	Panajachel	8	Panajachel	12	Diciembre	2023-01-12T00:00:00	2024-11-08T22:00:00	4	Temperatura máxima	18.3
75495	7	Sololá	710	Panajachel	8	Panajachel	12	Diciembre	2023-01-12T00:00:00	2024-11-08T22:00:00	3	Temperatura mínima	17.8
75496	7	Sololá	710	Panajachel	8	Panajachel	12	Diciembre	2023-01-12T00:00:00	2024-11-08T22:00:00	5	Humedad	86
75497	7	Sololá	710	Panajachel	8	Panajachel	12	Diciembre	2023-01-12T00:00:00	2024-11-08T22:00:00	6	Velocidad del viento	3.2
75498	7	Sololá	710	Panajachel	8	Panajachel	12	Diciembre	2023-01-12T00:00:00	2024-11-08T22:00:00	7	Dirección del viento	3.22
75499	7	Sololá	710	Panajachel	8	Panajachel	12	Diciembre	2023-01-12T00:00:00	2024-11-08T22:00:00	1	Precipitación	0
75500	7	Sololá	710	Panajachel	8	Panajachel	12	Diciembre	2023-01-12T00:00:00	2024-11-08T22:00:00	8	Radiación solar	0
75501	7	Sololá	710	Panajachel	8	Panajachel	12	Diciembre	2023-01-12T00:00:00	2024-11-08T23:00:00	2	Temperatura media	17.4
75502	7	Sololá	710	Panajachel	8	Panajachel	12	Diciembre	2023-01-12T00:00:00	2024-11-08T23:00:00	4	Temperatura máxima	17.8
75503	7	Sololá	710	Panajachel	8	Panajachel	12	Diciembre	2023-01-12T00:00:00	2024-11-08T23:00:00	3	Temperatura mínima	17.4
75504	7	Sololá	710	Panajachel	8	Panajachel	12	Diciembre	2023-01-12T00:00:00	2024-11-08T23:00:00	5	Humedad	86
75505	7	Sololá	710	Panajachel	8	Panajachel	12	Diciembre	2023-01-12T00:00:00	2024-11-08T23:00:00	6	Velocidad del viento	3.2
75506	7	Sololá	710	Panajachel	8	Panajachel	12	Diciembre	2023-01-12T00:00:00	2024-11-08T23:00:00	7	Dirección del viento	3.22
75507	7	Sololá	710	Panajachel	8	Panajachel	12	Diciembre	2023-01-12T00:00:00	2024-11-08T23:00:00	1	Precipitación	0
75508	7	Sololá	710	Panajachel	8	Panajachel	12	Diciembre	2023-01-12T00:00:00	2024-11-08T23:00:00	8	Radiación solar	0
75509	7	Sololá	710	Panajachel	8	Panajachel	12	Diciembre	2023-02-12T00:00:00	2024-11-08T00:00:00	2	Temperatura media	17.1
75510	7	Sololá	710	Panajachel	8	Panajachel	12	Diciembre	2023-02-12T00:00:00	2024-11-08T00:00:00	4	Temperatura máxima	17.4
75511	7	Sololá	710	Panajachel	8	Panajachel	12	Diciembre	2023-02-12T00:00:00	2024-11-08T00:00:00	3	Temperatura mínima	17.1
75512	7	Sololá	710	Panajachel	8	Panajachel	12	Diciembre	2023-02-12T00:00:00	2024-11-08T00:00:00	5	Humedad	87
75513	7	Sololá	710	Panajachel	8	Panajachel	12	Diciembre	2023-02-12T00:00:00	2024-11-08T00:00:00	6	Velocidad del viento	1.6
75514	7	Sololá	710	Panajachel	8	Panajachel	12	Diciembre	2023-02-12T00:00:00	2024-11-08T00:00:00	7	Dirección del viento	1.61
75515	7	Sololá	710	Panajachel	8	Panajachel	12	Diciembre	2023-02-12T00:00:00	2024-11-08T00:00:00	1	Precipitación	0
75516	7	Sololá	710	Panajachel	8	Panajachel	12	Diciembre	2023-02-12T00:00:00	2024-11-08T00:00:00	8	Radiación solar	0
75517	7	Sololá	710	Panajachel	8	Panajachel	12	Diciembre	2023-02-12T00:00:00	2024-11-08T01:00:00	2	Temperatura media	16.7
75518	7	Sololá	710	Panajachel	8	Panajachel	12	Diciembre	2023-02-12T00:00:00	2024-11-08T01:00:00	4	Temperatura máxima	17.1
75519	7	Sololá	710	Panajachel	8	Panajachel	12	Diciembre	2023-02-12T00:00:00	2024-11-08T01:00:00	3	Temperatura mínima	16.7
75520	7	Sololá	710	Panajachel	8	Panajachel	12	Diciembre	2023-02-12T00:00:00	2024-11-08T01:00:00	5	Humedad	86
75521	7	Sololá	710	Panajachel	8	Panajachel	12	Diciembre	2023-02-12T00:00:00	2024-11-08T01:00:00	6	Velocidad del viento	1.6
75522	7	Sololá	710	Panajachel	8	Panajachel	12	Diciembre	2023-02-12T00:00:00	2024-11-08T01:00:00	7	Dirección del viento	1.61
75523	7	Sololá	710	Panajachel	8	Panajachel	12	Diciembre	2023-02-12T00:00:00	2024-11-08T01:00:00	1	Precipitación	0
75524	7	Sololá	710	Panajachel	8	Panajachel	12	Diciembre	2023-02-12T00:00:00	2024-11-08T01:00:00	8	Radiación solar	0
75525	7	Sololá	710	Panajachel	8	Panajachel	12	Diciembre	2023-02-12T00:00:00	2024-11-08T02:00:00	2	Temperatura media	15.9
75526	7	Sololá	710	Panajachel	8	Panajachel	12	Diciembre	2023-02-12T00:00:00	2024-11-08T02:00:00	4	Temperatura máxima	16.7
75527	7	Sololá	710	Panajachel	8	Panajachel	12	Diciembre	2023-02-12T00:00:00	2024-11-08T02:00:00	3	Temperatura mínima	15.8
75528	7	Sololá	710	Panajachel	8	Panajachel	12	Diciembre	2023-02-12T00:00:00	2024-11-08T02:00:00	5	Humedad	88
75529	7	Sololá	710	Panajachel	8	Panajachel	12	Diciembre	2023-02-12T00:00:00	2024-11-08T02:00:00	6	Velocidad del viento	3.2
75530	7	Sololá	710	Panajachel	8	Panajachel	12	Diciembre	2023-02-12T00:00:00	2024-11-08T02:00:00	7	Dirección del viento	3.22
75531	7	Sololá	710	Panajachel	8	Panajachel	12	Diciembre	2023-02-12T00:00:00	2024-11-08T02:00:00	1	Precipitación	0
75532	7	Sololá	710	Panajachel	8	Panajachel	12	Diciembre	2023-02-12T00:00:00	2024-11-08T02:00:00	8	Radiación solar	0
75533	7	Sololá	710	Panajachel	8	Panajachel	12	Diciembre	2023-02-12T00:00:00	2024-11-08T03:00:00	2	Temperatura media	15.6
75534	7	Sololá	710	Panajachel	8	Panajachel	12	Diciembre	2023-02-12T00:00:00	2024-11-08T03:00:00	4	Temperatura máxima	16.2
75535	7	Sololá	710	Panajachel	8	Panajachel	12	Diciembre	2023-02-12T00:00:00	2024-11-08T03:00:00	3	Temperatura mínima	15.6
75536	7	Sololá	710	Panajachel	8	Panajachel	12	Diciembre	2023-02-12T00:00:00	2024-11-08T03:00:00	5	Humedad	87
75537	7	Sololá	710	Panajachel	8	Panajachel	12	Diciembre	2023-02-12T00:00:00	2024-11-08T03:00:00	6	Velocidad del viento	0
75538	7	Sololá	710	Panajachel	8	Panajachel	12	Diciembre	2023-02-12T00:00:00	2024-11-08T03:00:00	7	Dirección del viento	0
75539	7	Sololá	710	Panajachel	8	Panajachel	12	Diciembre	2023-02-12T00:00:00	2024-11-08T03:00:00	1	Precipitación	0
75540	7	Sololá	710	Panajachel	8	Panajachel	12	Diciembre	2023-02-12T00:00:00	2024-11-08T03:00:00	8	Radiación solar	0
75541	7	Sololá	710	Panajachel	8	Panajachel	12	Diciembre	2023-02-12T00:00:00	2024-11-08T04:00:00	2	Temperatura media	15.1
75542	7	Sololá	710	Panajachel	8	Panajachel	12	Diciembre	2023-02-12T00:00:00	2024-11-08T04:00:00	4	Temperatura máxima	15.6
75543	7	Sololá	710	Panajachel	8	Panajachel	12	Diciembre	2023-02-12T00:00:00	2024-11-08T04:00:00	3	Temperatura mínima	15.1
75544	7	Sololá	710	Panajachel	8	Panajachel	12	Diciembre	2023-02-12T00:00:00	2024-11-08T04:00:00	5	Humedad	82
75545	7	Sololá	710	Panajachel	8	Panajachel	12	Diciembre	2023-02-12T00:00:00	2024-11-08T04:00:00	6	Velocidad del viento	1.6
75546	7	Sololá	710	Panajachel	8	Panajachel	12	Diciembre	2023-02-12T00:00:00	2024-11-08T04:00:00	7	Dirección del viento	1.61
75547	7	Sololá	710	Panajachel	8	Panajachel	12	Diciembre	2023-02-12T00:00:00	2024-11-08T04:00:00	1	Precipitación	0
75548	7	Sololá	710	Panajachel	8	Panajachel	12	Diciembre	2023-02-12T00:00:00	2024-11-08T04:00:00	8	Radiación solar	0
75549	7	Sololá	710	Panajachel	8	Panajachel	12	Diciembre	2023-02-12T00:00:00	2024-11-08T05:00:00	2	Temperatura media	15
75550	7	Sololá	710	Panajachel	8	Panajachel	12	Diciembre	2023-02-12T00:00:00	2024-11-08T05:00:00	4	Temperatura máxima	15.2
75551	7	Sololá	710	Panajachel	8	Panajachel	12	Diciembre	2023-02-12T00:00:00	2024-11-08T05:00:00	3	Temperatura mínima	14.9
75552	7	Sololá	710	Panajachel	8	Panajachel	12	Diciembre	2023-02-12T00:00:00	2024-11-08T05:00:00	5	Humedad	74
75553	7	Sololá	710	Panajachel	8	Panajachel	12	Diciembre	2023-02-12T00:00:00	2024-11-08T05:00:00	6	Velocidad del viento	3.2
75554	7	Sololá	710	Panajachel	8	Panajachel	12	Diciembre	2023-02-12T00:00:00	2024-11-08T05:00:00	7	Dirección del viento	3.22
75555	7	Sololá	710	Panajachel	8	Panajachel	12	Diciembre	2023-02-12T00:00:00	2024-11-08T05:00:00	1	Precipitación	0
75556	7	Sololá	710	Panajachel	8	Panajachel	12	Diciembre	2023-02-12T00:00:00	2024-11-08T05:00:00	8	Radiación solar	0
75557	7	Sololá	710	Panajachel	8	Panajachel	12	Diciembre	2023-02-12T00:00:00	2024-11-08T06:00:00	2	Temperatura media	14.7
75558	7	Sololá	710	Panajachel	8	Panajachel	12	Diciembre	2023-02-12T00:00:00	2024-11-08T06:00:00	4	Temperatura máxima	15.1
75559	7	Sololá	710	Panajachel	8	Panajachel	12	Diciembre	2023-02-12T00:00:00	2024-11-08T06:00:00	3	Temperatura mínima	14.6
75560	7	Sololá	710	Panajachel	8	Panajachel	12	Diciembre	2023-02-12T00:00:00	2024-11-08T06:00:00	5	Humedad	72
75561	7	Sololá	710	Panajachel	8	Panajachel	12	Diciembre	2023-02-12T00:00:00	2024-11-08T06:00:00	6	Velocidad del viento	4.8
75562	7	Sololá	710	Panajachel	8	Panajachel	12	Diciembre	2023-02-12T00:00:00	2024-11-08T06:00:00	7	Dirección del viento	4.83
75563	7	Sololá	710	Panajachel	8	Panajachel	12	Diciembre	2023-02-12T00:00:00	2024-11-08T06:00:00	1	Precipitación	0
75564	7	Sololá	710	Panajachel	8	Panajachel	12	Diciembre	2023-02-12T00:00:00	2024-11-08T06:00:00	8	Radiación solar	0
75565	7	Sololá	710	Panajachel	8	Panajachel	12	Diciembre	2023-02-12T00:00:00	2024-11-08T07:00:00	2	Temperatura media	14.7
75566	7	Sololá	710	Panajachel	8	Panajachel	12	Diciembre	2023-02-12T00:00:00	2024-11-08T07:00:00	4	Temperatura máxima	14.7
75567	7	Sololá	710	Panajachel	8	Panajachel	12	Diciembre	2023-02-12T00:00:00	2024-11-08T07:00:00	3	Temperatura mínima	14.3
75568	7	Sololá	710	Panajachel	8	Panajachel	12	Diciembre	2023-02-12T00:00:00	2024-11-08T07:00:00	5	Humedad	72
75569	7	Sololá	710	Panajachel	8	Panajachel	12	Diciembre	2023-02-12T00:00:00	2024-11-08T07:00:00	6	Velocidad del viento	3.2
75570	7	Sololá	710	Panajachel	8	Panajachel	12	Diciembre	2023-02-12T00:00:00	2024-11-08T07:00:00	7	Dirección del viento	3.22
75571	7	Sololá	710	Panajachel	8	Panajachel	12	Diciembre	2023-02-12T00:00:00	2024-11-08T07:00:00	1	Precipitación	0
75572	7	Sololá	710	Panajachel	8	Panajachel	12	Diciembre	2023-02-12T00:00:00	2024-11-08T07:00:00	8	Radiación solar	13
75573	7	Sololá	710	Panajachel	8	Panajachel	12	Diciembre	2023-02-12T00:00:00	2024-11-08T08:00:00	2	Temperatura media	17.9
75574	7	Sololá	710	Panajachel	8	Panajachel	12	Diciembre	2023-02-12T00:00:00	2024-11-08T08:00:00	4	Temperatura máxima	17.9
75575	7	Sololá	710	Panajachel	8	Panajachel	12	Diciembre	2023-02-12T00:00:00	2024-11-08T08:00:00	3	Temperatura mínima	14.7
75576	7	Sololá	710	Panajachel	8	Panajachel	12	Diciembre	2023-02-12T00:00:00	2024-11-08T08:00:00	5	Humedad	69
75577	7	Sololá	710	Panajachel	8	Panajachel	12	Diciembre	2023-02-12T00:00:00	2024-11-08T08:00:00	6	Velocidad del viento	3.2
75578	7	Sololá	710	Panajachel	8	Panajachel	12	Diciembre	2023-02-12T00:00:00	2024-11-08T08:00:00	7	Dirección del viento	3.22
75579	7	Sololá	710	Panajachel	8	Panajachel	12	Diciembre	2023-02-12T00:00:00	2024-11-08T08:00:00	1	Precipitación	0
75580	7	Sololá	710	Panajachel	8	Panajachel	12	Diciembre	2023-02-12T00:00:00	2024-11-08T08:00:00	8	Radiación solar	205
75581	7	Sololá	710	Panajachel	8	Panajachel	12	Diciembre	2023-02-12T00:00:00	2024-11-08T09:00:00	2	Temperatura media	19.5
75582	7	Sololá	710	Panajachel	8	Panajachel	12	Diciembre	2023-02-12T00:00:00	2024-11-08T09:00:00	4	Temperatura máxima	20
75583	7	Sololá	710	Panajachel	8	Panajachel	12	Diciembre	2023-02-12T00:00:00	2024-11-08T09:00:00	3	Temperatura mínima	17.9
75584	7	Sololá	710	Panajachel	8	Panajachel	12	Diciembre	2023-02-12T00:00:00	2024-11-08T09:00:00	5	Humedad	78
75585	7	Sololá	710	Panajachel	8	Panajachel	12	Diciembre	2023-02-12T00:00:00	2024-11-08T09:00:00	6	Velocidad del viento	1.6
75586	7	Sololá	710	Panajachel	8	Panajachel	12	Diciembre	2023-02-12T00:00:00	2024-11-08T09:00:00	7	Dirección del viento	1.61
75587	7	Sololá	710	Panajachel	8	Panajachel	12	Diciembre	2023-02-12T00:00:00	2024-11-08T09:00:00	1	Precipitación	0
75588	7	Sololá	710	Panajachel	8	Panajachel	12	Diciembre	2023-02-12T00:00:00	2024-11-08T09:00:00	8	Radiación solar	419
75589	7	Sololá	710	Panajachel	8	Panajachel	12	Diciembre	2023-02-12T00:00:00	2024-11-08T10:00:00	2	Temperatura media	19.8
75590	7	Sololá	710	Panajachel	8	Panajachel	12	Diciembre	2023-02-12T00:00:00	2024-11-08T10:00:00	4	Temperatura máxima	20.4
75591	7	Sololá	710	Panajachel	8	Panajachel	12	Diciembre	2023-02-12T00:00:00	2024-11-08T10:00:00	3	Temperatura mínima	19.2
75592	7	Sololá	710	Panajachel	8	Panajachel	12	Diciembre	2023-02-12T00:00:00	2024-11-08T10:00:00	5	Humedad	77
75593	7	Sololá	710	Panajachel	8	Panajachel	12	Diciembre	2023-02-12T00:00:00	2024-11-08T10:00:00	6	Velocidad del viento	3.2
75594	7	Sololá	710	Panajachel	8	Panajachel	12	Diciembre	2023-02-12T00:00:00	2024-11-08T10:00:00	7	Dirección del viento	3.22
75595	7	Sololá	710	Panajachel	8	Panajachel	12	Diciembre	2023-02-12T00:00:00	2024-11-08T10:00:00	1	Precipitación	0
75596	7	Sololá	710	Panajachel	8	Panajachel	12	Diciembre	2023-02-12T00:00:00	2024-11-08T10:00:00	8	Radiación solar	589
75597	7	Sololá	710	Panajachel	8	Panajachel	12	Diciembre	2023-02-12T00:00:00	2024-11-08T11:00:00	2	Temperatura media	20.3
75598	7	Sololá	710	Panajachel	8	Panajachel	12	Diciembre	2023-02-12T00:00:00	2024-11-08T11:00:00	4	Temperatura máxima	20.8
75599	7	Sololá	710	Panajachel	8	Panajachel	12	Diciembre	2023-02-12T00:00:00	2024-11-08T11:00:00	3	Temperatura mínima	19.7
75600	7	Sololá	710	Panajachel	8	Panajachel	12	Diciembre	2023-02-12T00:00:00	2024-11-08T11:00:00	5	Humedad	75
75601	7	Sololá	710	Panajachel	8	Panajachel	12	Diciembre	2023-02-12T00:00:00	2024-11-08T11:00:00	6	Velocidad del viento	3.2
75602	7	Sololá	710	Panajachel	8	Panajachel	12	Diciembre	2023-02-12T00:00:00	2024-11-08T11:00:00	7	Dirección del viento	3.22
75603	7	Sololá	710	Panajachel	8	Panajachel	12	Diciembre	2023-02-12T00:00:00	2024-11-08T11:00:00	1	Precipitación	0
75604	7	Sololá	710	Panajachel	8	Panajachel	12	Diciembre	2023-02-12T00:00:00	2024-11-08T11:00:00	8	Radiación solar	708
75605	7	Sololá	710	Panajachel	8	Panajachel	12	Diciembre	2023-02-12T00:00:00	2024-11-08T12:00:00	2	Temperatura media	23.4
75606	7	Sololá	710	Panajachel	8	Panajachel	12	Diciembre	2023-02-12T00:00:00	2024-11-08T12:00:00	4	Temperatura máxima	23.4
75607	7	Sololá	710	Panajachel	8	Panajachel	12	Diciembre	2023-02-12T00:00:00	2024-11-08T12:00:00	3	Temperatura mínima	20.3
75608	7	Sololá	710	Panajachel	8	Panajachel	12	Diciembre	2023-02-12T00:00:00	2024-11-08T12:00:00	5	Humedad	67
75609	7	Sololá	710	Panajachel	8	Panajachel	12	Diciembre	2023-02-12T00:00:00	2024-11-08T12:00:00	6	Velocidad del viento	3.2
75610	7	Sololá	710	Panajachel	8	Panajachel	12	Diciembre	2023-02-12T00:00:00	2024-11-08T12:00:00	7	Dirección del viento	3.22
75611	7	Sololá	710	Panajachel	8	Panajachel	12	Diciembre	2023-02-12T00:00:00	2024-11-08T12:00:00	1	Precipitación	0
75612	7	Sololá	710	Panajachel	8	Panajachel	12	Diciembre	2023-02-12T00:00:00	2024-11-08T12:00:00	8	Radiación solar	768
75613	7	Sololá	710	Panajachel	8	Panajachel	12	Diciembre	2023-02-12T00:00:00	2024-11-08T13:00:00	2	Temperatura media	23.3
75614	7	Sololá	710	Panajachel	8	Panajachel	12	Diciembre	2023-02-12T00:00:00	2024-11-08T13:00:00	4	Temperatura máxima	24.4
75615	7	Sololá	710	Panajachel	8	Panajachel	12	Diciembre	2023-02-12T00:00:00	2024-11-08T13:00:00	3	Temperatura mínima	22.7
75616	7	Sololá	710	Panajachel	8	Panajachel	12	Diciembre	2023-02-12T00:00:00	2024-11-08T13:00:00	5	Humedad	69
75617	7	Sololá	710	Panajachel	8	Panajachel	12	Diciembre	2023-02-12T00:00:00	2024-11-08T13:00:00	6	Velocidad del viento	3.2
75618	7	Sololá	710	Panajachel	8	Panajachel	12	Diciembre	2023-02-12T00:00:00	2024-11-08T13:00:00	7	Dirección del viento	3.22
75619	7	Sololá	710	Panajachel	8	Panajachel	12	Diciembre	2023-02-12T00:00:00	2024-11-08T13:00:00	1	Precipitación	0
75620	7	Sololá	710	Panajachel	8	Panajachel	12	Diciembre	2023-02-12T00:00:00	2024-11-08T13:00:00	8	Radiación solar	761
75621	7	Sololá	710	Panajachel	8	Panajachel	12	Diciembre	2023-02-12T00:00:00	2024-11-08T14:00:00	2	Temperatura media	24.7
75622	7	Sololá	710	Panajachel	8	Panajachel	12	Diciembre	2023-02-12T00:00:00	2024-11-08T14:00:00	4	Temperatura máxima	24.7
75623	7	Sololá	710	Panajachel	8	Panajachel	12	Diciembre	2023-02-12T00:00:00	2024-11-08T14:00:00	3	Temperatura mínima	23.2
75624	7	Sololá	710	Panajachel	8	Panajachel	12	Diciembre	2023-02-12T00:00:00	2024-11-08T14:00:00	5	Humedad	71
75625	7	Sololá	710	Panajachel	8	Panajachel	12	Diciembre	2023-02-12T00:00:00	2024-11-08T14:00:00	6	Velocidad del viento	3.2
75626	7	Sololá	710	Panajachel	8	Panajachel	12	Diciembre	2023-02-12T00:00:00	2024-11-08T14:00:00	7	Dirección del viento	3.22
75627	7	Sololá	710	Panajachel	8	Panajachel	12	Diciembre	2023-02-12T00:00:00	2024-11-08T14:00:00	1	Precipitación	0
75628	7	Sololá	710	Panajachel	8	Panajachel	12	Diciembre	2023-02-12T00:00:00	2024-11-08T14:00:00	8	Radiación solar	684
75629	7	Sololá	710	Panajachel	8	Panajachel	12	Diciembre	2023-02-12T00:00:00	2024-11-08T15:00:00	2	Temperatura media	24.1
75630	7	Sololá	710	Panajachel	8	Panajachel	12	Diciembre	2023-02-12T00:00:00	2024-11-08T15:00:00	4	Temperatura máxima	24.9
75631	7	Sololá	710	Panajachel	8	Panajachel	12	Diciembre	2023-02-12T00:00:00	2024-11-08T15:00:00	3	Temperatura mínima	24
75632	7	Sololá	710	Panajachel	8	Panajachel	12	Diciembre	2023-02-12T00:00:00	2024-11-08T15:00:00	5	Humedad	74
75633	7	Sololá	710	Panajachel	8	Panajachel	12	Diciembre	2023-02-12T00:00:00	2024-11-08T15:00:00	6	Velocidad del viento	4.8
75634	7	Sololá	710	Panajachel	8	Panajachel	12	Diciembre	2023-02-12T00:00:00	2024-11-08T15:00:00	7	Dirección del viento	4.83
75635	7	Sololá	710	Panajachel	8	Panajachel	12	Diciembre	2023-02-12T00:00:00	2024-11-08T15:00:00	1	Precipitación	0
75636	7	Sololá	710	Panajachel	8	Panajachel	12	Diciembre	2023-02-12T00:00:00	2024-11-08T15:00:00	8	Radiación solar	540
75637	7	Sololá	710	Panajachel	8	Panajachel	12	Diciembre	2023-02-12T00:00:00	2024-11-08T16:00:00	2	Temperatura media	23.6
75638	7	Sololá	710	Panajachel	8	Panajachel	12	Diciembre	2023-02-12T00:00:00	2024-11-08T16:00:00	4	Temperatura máxima	24.1
75639	7	Sololá	710	Panajachel	8	Panajachel	12	Diciembre	2023-02-12T00:00:00	2024-11-08T16:00:00	3	Temperatura mínima	23.4
75640	7	Sololá	710	Panajachel	8	Panajachel	12	Diciembre	2023-02-12T00:00:00	2024-11-08T16:00:00	5	Humedad	78
75641	7	Sololá	710	Panajachel	8	Panajachel	12	Diciembre	2023-02-12T00:00:00	2024-11-08T16:00:00	6	Velocidad del viento	4.8
75642	7	Sololá	710	Panajachel	8	Panajachel	12	Diciembre	2023-02-12T00:00:00	2024-11-08T16:00:00	7	Dirección del viento	4.83
75643	7	Sololá	710	Panajachel	8	Panajachel	12	Diciembre	2023-02-12T00:00:00	2024-11-08T16:00:00	1	Precipitación	0
75644	7	Sololá	710	Panajachel	8	Panajachel	12	Diciembre	2023-02-12T00:00:00	2024-11-08T16:00:00	8	Radiación solar	350
75645	7	Sololá	710	Panajachel	8	Panajachel	12	Diciembre	2023-02-12T00:00:00	2024-11-08T17:00:00	2	Temperatura media	22.3
75646	7	Sololá	710	Panajachel	8	Panajachel	12	Diciembre	2023-02-12T00:00:00	2024-11-08T17:00:00	4	Temperatura máxima	23.7
75647	7	Sololá	710	Panajachel	8	Panajachel	12	Diciembre	2023-02-12T00:00:00	2024-11-08T17:00:00	3	Temperatura mínima	22.3
75648	7	Sololá	710	Panajachel	8	Panajachel	12	Diciembre	2023-02-12T00:00:00	2024-11-08T17:00:00	5	Humedad	84
75649	7	Sololá	710	Panajachel	8	Panajachel	12	Diciembre	2023-02-12T00:00:00	2024-11-08T17:00:00	6	Velocidad del viento	3.2
75650	7	Sololá	710	Panajachel	8	Panajachel	12	Diciembre	2023-02-12T00:00:00	2024-11-08T17:00:00	7	Dirección del viento	3.22
75651	7	Sololá	710	Panajachel	8	Panajachel	12	Diciembre	2023-02-12T00:00:00	2024-11-08T17:00:00	1	Precipitación	0
75652	7	Sololá	710	Panajachel	8	Panajachel	12	Diciembre	2023-02-12T00:00:00	2024-11-08T17:00:00	8	Radiación solar	146
75653	7	Sololá	710	Panajachel	8	Panajachel	12	Diciembre	2023-02-12T00:00:00	2024-11-08T18:00:00	2	Temperatura media	20.8
75654	7	Sololá	710	Panajachel	8	Panajachel	12	Diciembre	2023-02-12T00:00:00	2024-11-08T18:00:00	4	Temperatura máxima	22.3
75655	7	Sololá	710	Panajachel	8	Panajachel	12	Diciembre	2023-02-12T00:00:00	2024-11-08T18:00:00	3	Temperatura mínima	20.7
75656	7	Sololá	710	Panajachel	8	Panajachel	12	Diciembre	2023-02-12T00:00:00	2024-11-08T18:00:00	5	Humedad	90
75657	7	Sololá	710	Panajachel	8	Panajachel	12	Diciembre	2023-02-12T00:00:00	2024-11-08T18:00:00	6	Velocidad del viento	1.6
75658	7	Sololá	710	Panajachel	8	Panajachel	12	Diciembre	2023-02-12T00:00:00	2024-11-08T18:00:00	7	Dirección del viento	1.61
75659	7	Sololá	710	Panajachel	8	Panajachel	12	Diciembre	2023-02-12T00:00:00	2024-11-08T18:00:00	1	Precipitación	0
75660	7	Sololá	710	Panajachel	8	Panajachel	12	Diciembre	2023-02-12T00:00:00	2024-11-08T18:00:00	8	Radiación solar	12
75661	7	Sololá	710	Panajachel	8	Panajachel	12	Diciembre	2023-02-12T00:00:00	2024-11-08T19:00:00	2	Temperatura media	20.2
75662	7	Sololá	710	Panajachel	8	Panajachel	12	Diciembre	2023-02-12T00:00:00	2024-11-08T19:00:00	4	Temperatura máxima	20.8
75663	7	Sololá	710	Panajachel	8	Panajachel	12	Diciembre	2023-02-12T00:00:00	2024-11-08T19:00:00	3	Temperatura mínima	20.2
75664	7	Sololá	710	Panajachel	8	Panajachel	12	Diciembre	2023-02-12T00:00:00	2024-11-08T19:00:00	5	Humedad	83
75665	7	Sololá	710	Panajachel	8	Panajachel	12	Diciembre	2023-02-12T00:00:00	2024-11-08T19:00:00	6	Velocidad del viento	1.6
75666	7	Sololá	710	Panajachel	8	Panajachel	12	Diciembre	2023-02-12T00:00:00	2024-11-08T19:00:00	7	Dirección del viento	1.61
75667	7	Sololá	710	Panajachel	8	Panajachel	12	Diciembre	2023-02-12T00:00:00	2024-11-08T19:00:00	1	Precipitación	0
75668	7	Sololá	710	Panajachel	8	Panajachel	12	Diciembre	2023-02-12T00:00:00	2024-11-08T19:00:00	8	Radiación solar	0
75669	7	Sololá	710	Panajachel	8	Panajachel	12	Diciembre	2023-02-12T00:00:00	2024-11-08T20:00:00	2	Temperatura media	18.7
75670	7	Sololá	710	Panajachel	8	Panajachel	12	Diciembre	2023-02-12T00:00:00	2024-11-08T20:00:00	4	Temperatura máxima	20.3
75671	7	Sololá	710	Panajachel	8	Panajachel	12	Diciembre	2023-02-12T00:00:00	2024-11-08T20:00:00	3	Temperatura mínima	18.6
75672	7	Sololá	710	Panajachel	8	Panajachel	12	Diciembre	2023-02-12T00:00:00	2024-11-08T20:00:00	5	Humedad	76
75673	7	Sololá	710	Panajachel	8	Panajachel	12	Diciembre	2023-02-12T00:00:00	2024-11-08T20:00:00	6	Velocidad del viento	4.8
75674	7	Sololá	710	Panajachel	8	Panajachel	12	Diciembre	2023-02-12T00:00:00	2024-11-08T20:00:00	7	Dirección del viento	4.83
75675	7	Sololá	710	Panajachel	8	Panajachel	12	Diciembre	2023-02-12T00:00:00	2024-11-08T20:00:00	1	Precipitación	0
75676	7	Sololá	710	Panajachel	8	Panajachel	12	Diciembre	2023-02-12T00:00:00	2024-11-08T20:00:00	8	Radiación solar	0
75677	7	Sololá	710	Panajachel	8	Panajachel	12	Diciembre	2023-02-12T00:00:00	2024-11-08T21:00:00	2	Temperatura media	17.7
75678	7	Sololá	710	Panajachel	8	Panajachel	12	Diciembre	2023-02-12T00:00:00	2024-11-08T21:00:00	4	Temperatura máxima	18.7
75679	7	Sololá	710	Panajachel	8	Panajachel	12	Diciembre	2023-02-12T00:00:00	2024-11-08T21:00:00	3	Temperatura mínima	17.6
75680	7	Sololá	710	Panajachel	8	Panajachel	12	Diciembre	2023-02-12T00:00:00	2024-11-08T21:00:00	5	Humedad	78
75681	7	Sololá	710	Panajachel	8	Panajachel	12	Diciembre	2023-02-12T00:00:00	2024-11-08T21:00:00	6	Velocidad del viento	3.2
75682	7	Sololá	710	Panajachel	8	Panajachel	12	Diciembre	2023-02-12T00:00:00	2024-11-08T21:00:00	7	Dirección del viento	3.22
75683	7	Sololá	710	Panajachel	8	Panajachel	12	Diciembre	2023-02-12T00:00:00	2024-11-08T21:00:00	1	Precipitación	0
75684	7	Sololá	710	Panajachel	8	Panajachel	12	Diciembre	2023-02-12T00:00:00	2024-11-08T21:00:00	8	Radiación solar	0
75685	7	Sololá	710	Panajachel	8	Panajachel	12	Diciembre	2023-02-12T00:00:00	2024-11-08T22:00:00	2	Temperatura media	17.6
75686	7	Sololá	710	Panajachel	8	Panajachel	12	Diciembre	2023-02-12T00:00:00	2024-11-08T22:00:00	4	Temperatura máxima	17.9
75687	7	Sololá	710	Panajachel	8	Panajachel	12	Diciembre	2023-02-12T00:00:00	2024-11-08T22:00:00	3	Temperatura mínima	17.5
75688	7	Sololá	710	Panajachel	8	Panajachel	12	Diciembre	2023-02-12T00:00:00	2024-11-08T22:00:00	5	Humedad	78
75689	7	Sololá	710	Panajachel	8	Panajachel	12	Diciembre	2023-02-12T00:00:00	2024-11-08T22:00:00	6	Velocidad del viento	4.8
75690	7	Sololá	710	Panajachel	8	Panajachel	12	Diciembre	2023-02-12T00:00:00	2024-11-08T22:00:00	7	Dirección del viento	4.83
75691	7	Sololá	710	Panajachel	8	Panajachel	12	Diciembre	2023-02-12T00:00:00	2024-11-08T22:00:00	1	Precipitación	0
75692	7	Sololá	710	Panajachel	8	Panajachel	12	Diciembre	2023-02-12T00:00:00	2024-11-08T22:00:00	8	Radiación solar	0
75693	7	Sololá	710	Panajachel	8	Panajachel	12	Diciembre	2023-02-12T00:00:00	2024-11-08T23:00:00	2	Temperatura media	17
75694	7	Sololá	710	Panajachel	8	Panajachel	12	Diciembre	2023-02-12T00:00:00	2024-11-08T23:00:00	4	Temperatura máxima	17.9
75695	7	Sololá	710	Panajachel	8	Panajachel	12	Diciembre	2023-02-12T00:00:00	2024-11-08T23:00:00	3	Temperatura mínima	17
75696	7	Sololá	710	Panajachel	8	Panajachel	12	Diciembre	2023-02-12T00:00:00	2024-11-08T23:00:00	5	Humedad	79
75697	7	Sololá	710	Panajachel	8	Panajachel	12	Diciembre	2023-02-12T00:00:00	2024-11-08T23:00:00	6	Velocidad del viento	3.2
75698	7	Sololá	710	Panajachel	8	Panajachel	12	Diciembre	2023-02-12T00:00:00	2024-11-08T23:00:00	7	Dirección del viento	3.22
75699	7	Sololá	710	Panajachel	8	Panajachel	12	Diciembre	2023-02-12T00:00:00	2024-11-08T23:00:00	1	Precipitación	0
75700	7	Sololá	710	Panajachel	8	Panajachel	12	Diciembre	2023-02-12T00:00:00	2024-11-08T23:00:00	8	Radiación solar	0
75701	7	Sololá	710	Panajachel	8	Panajachel	12	Diciembre	2023-03-12T00:00:00	2024-11-08T00:00:00	2	Temperatura media	17.3
75702	7	Sololá	710	Panajachel	8	Panajachel	12	Diciembre	2023-03-12T00:00:00	2024-11-08T00:00:00	4	Temperatura máxima	17.6
75703	7	Sololá	710	Panajachel	8	Panajachel	12	Diciembre	2023-03-12T00:00:00	2024-11-08T00:00:00	3	Temperatura mínima	17.1
75704	7	Sololá	710	Panajachel	8	Panajachel	12	Diciembre	2023-03-12T00:00:00	2024-11-08T00:00:00	5	Humedad	77
75705	7	Sololá	710	Panajachel	8	Panajachel	12	Diciembre	2023-03-12T00:00:00	2024-11-08T00:00:00	6	Velocidad del viento	3.2
75706	7	Sololá	710	Panajachel	8	Panajachel	12	Diciembre	2023-03-12T00:00:00	2024-11-08T00:00:00	7	Dirección del viento	3.22
75707	7	Sololá	710	Panajachel	8	Panajachel	12	Diciembre	2023-03-12T00:00:00	2024-11-08T00:00:00	1	Precipitación	0
75708	7	Sololá	710	Panajachel	8	Panajachel	12	Diciembre	2023-03-12T00:00:00	2024-11-08T00:00:00	8	Radiación solar	0
75709	7	Sololá	710	Panajachel	8	Panajachel	12	Diciembre	2023-03-12T00:00:00	2024-11-08T01:00:00	2	Temperatura media	16.6
75710	7	Sololá	710	Panajachel	8	Panajachel	12	Diciembre	2023-03-12T00:00:00	2024-11-08T01:00:00	4	Temperatura máxima	17.3
75711	7	Sololá	710	Panajachel	8	Panajachel	12	Diciembre	2023-03-12T00:00:00	2024-11-08T01:00:00	3	Temperatura mínima	16.5
75712	7	Sololá	710	Panajachel	8	Panajachel	12	Diciembre	2023-03-12T00:00:00	2024-11-08T01:00:00	5	Humedad	79
75713	7	Sololá	710	Panajachel	8	Panajachel	12	Diciembre	2023-03-12T00:00:00	2024-11-08T01:00:00	6	Velocidad del viento	1.6
75714	7	Sololá	710	Panajachel	8	Panajachel	12	Diciembre	2023-03-12T00:00:00	2024-11-08T01:00:00	7	Dirección del viento	1.61
75715	7	Sololá	710	Panajachel	8	Panajachel	12	Diciembre	2023-03-12T00:00:00	2024-11-08T01:00:00	1	Precipitación	0
75716	7	Sololá	710	Panajachel	8	Panajachel	12	Diciembre	2023-03-12T00:00:00	2024-11-08T01:00:00	8	Radiación solar	0
75717	7	Sololá	710	Panajachel	8	Panajachel	12	Diciembre	2023-03-12T00:00:00	2024-11-08T02:00:00	2	Temperatura media	16
75718	7	Sololá	710	Panajachel	8	Panajachel	12	Diciembre	2023-03-12T00:00:00	2024-11-08T02:00:00	4	Temperatura máxima	17.2
75719	7	Sololá	710	Panajachel	8	Panajachel	12	Diciembre	2023-03-12T00:00:00	2024-11-08T02:00:00	3	Temperatura mínima	16
75720	7	Sololá	710	Panajachel	8	Panajachel	12	Diciembre	2023-03-12T00:00:00	2024-11-08T02:00:00	5	Humedad	81
75721	7	Sololá	710	Panajachel	8	Panajachel	12	Diciembre	2023-03-12T00:00:00	2024-11-08T02:00:00	6	Velocidad del viento	3.2
75722	7	Sololá	710	Panajachel	8	Panajachel	12	Diciembre	2023-03-12T00:00:00	2024-11-08T02:00:00	7	Dirección del viento	3.22
75723	7	Sololá	710	Panajachel	8	Panajachel	12	Diciembre	2023-03-12T00:00:00	2024-11-08T02:00:00	1	Precipitación	0
75724	7	Sololá	710	Panajachel	8	Panajachel	12	Diciembre	2023-03-12T00:00:00	2024-11-08T02:00:00	8	Radiación solar	0
75725	7	Sololá	710	Panajachel	8	Panajachel	12	Diciembre	2023-03-12T00:00:00	2024-11-08T03:00:00	2	Temperatura media	15.1
75726	7	Sololá	710	Panajachel	8	Panajachel	12	Diciembre	2023-03-12T00:00:00	2024-11-08T03:00:00	4	Temperatura máxima	16
75727	7	Sololá	710	Panajachel	8	Panajachel	12	Diciembre	2023-03-12T00:00:00	2024-11-08T03:00:00	3	Temperatura mínima	15.1
75728	7	Sololá	710	Panajachel	8	Panajachel	12	Diciembre	2023-03-12T00:00:00	2024-11-08T03:00:00	5	Humedad	85
75729	7	Sololá	710	Panajachel	8	Panajachel	12	Diciembre	2023-03-12T00:00:00	2024-11-08T03:00:00	6	Velocidad del viento	1.6
75730	7	Sololá	710	Panajachel	8	Panajachel	12	Diciembre	2023-03-12T00:00:00	2024-11-08T03:00:00	7	Dirección del viento	1.61
75731	7	Sololá	710	Panajachel	8	Panajachel	12	Diciembre	2023-03-12T00:00:00	2024-11-08T03:00:00	1	Precipitación	0
75732	7	Sololá	710	Panajachel	8	Panajachel	12	Diciembre	2023-03-12T00:00:00	2024-11-08T03:00:00	8	Radiación solar	0
75733	7	Sololá	710	Panajachel	8	Panajachel	12	Diciembre	2023-03-12T00:00:00	2024-11-08T04:00:00	2	Temperatura media	15.5
75734	7	Sololá	710	Panajachel	8	Panajachel	12	Diciembre	2023-03-12T00:00:00	2024-11-08T04:00:00	4	Temperatura máxima	15.5
75735	7	Sololá	710	Panajachel	8	Panajachel	12	Diciembre	2023-03-12T00:00:00	2024-11-08T04:00:00	3	Temperatura mínima	14.6
75736	7	Sololá	710	Panajachel	8	Panajachel	12	Diciembre	2023-03-12T00:00:00	2024-11-08T04:00:00	5	Humedad	79
75737	7	Sololá	710	Panajachel	8	Panajachel	12	Diciembre	2023-03-12T00:00:00	2024-11-08T04:00:00	6	Velocidad del viento	0
75738	7	Sololá	710	Panajachel	8	Panajachel	12	Diciembre	2023-03-12T00:00:00	2024-11-08T04:00:00	7	Dirección del viento	0
75739	7	Sololá	710	Panajachel	8	Panajachel	12	Diciembre	2023-03-12T00:00:00	2024-11-08T04:00:00	1	Precipitación	0
75740	7	Sololá	710	Panajachel	8	Panajachel	12	Diciembre	2023-03-12T00:00:00	2024-11-08T04:00:00	8	Radiación solar	0
75741	7	Sololá	710	Panajachel	8	Panajachel	12	Diciembre	2023-03-12T00:00:00	2024-11-08T05:00:00	2	Temperatura media	14.6
75742	7	Sololá	710	Panajachel	8	Panajachel	12	Diciembre	2023-03-12T00:00:00	2024-11-08T05:00:00	4	Temperatura máxima	15.6
75743	7	Sololá	710	Panajachel	8	Panajachel	12	Diciembre	2023-03-12T00:00:00	2024-11-08T05:00:00	3	Temperatura mínima	14.5
75744	7	Sololá	710	Panajachel	8	Panajachel	12	Diciembre	2023-03-12T00:00:00	2024-11-08T05:00:00	5	Humedad	82
75745	7	Sololá	710	Panajachel	8	Panajachel	12	Diciembre	2023-03-12T00:00:00	2024-11-08T05:00:00	6	Velocidad del viento	0
75746	7	Sololá	710	Panajachel	8	Panajachel	12	Diciembre	2023-03-12T00:00:00	2024-11-08T05:00:00	7	Dirección del viento	0
75747	7	Sololá	710	Panajachel	8	Panajachel	12	Diciembre	2023-03-12T00:00:00	2024-11-08T05:00:00	1	Precipitación	0
75748	7	Sololá	710	Panajachel	8	Panajachel	12	Diciembre	2023-03-12T00:00:00	2024-11-08T05:00:00	8	Radiación solar	0
75749	7	Sololá	710	Panajachel	8	Panajachel	12	Diciembre	2023-03-12T00:00:00	2024-11-08T06:00:00	2	Temperatura media	14.1
75750	7	Sololá	710	Panajachel	8	Panajachel	12	Diciembre	2023-03-12T00:00:00	2024-11-08T06:00:00	4	Temperatura máxima	14.8
75751	7	Sololá	710	Panajachel	8	Panajachel	12	Diciembre	2023-03-12T00:00:00	2024-11-08T06:00:00	3	Temperatura mínima	14.1
75752	7	Sololá	710	Panajachel	8	Panajachel	12	Diciembre	2023-03-12T00:00:00	2024-11-08T06:00:00	5	Humedad	81
75753	7	Sololá	710	Panajachel	8	Panajachel	12	Diciembre	2023-03-12T00:00:00	2024-11-08T06:00:00	6	Velocidad del viento	0
75754	7	Sololá	710	Panajachel	8	Panajachel	12	Diciembre	2023-03-12T00:00:00	2024-11-08T06:00:00	7	Dirección del viento	0
75755	7	Sololá	710	Panajachel	8	Panajachel	12	Diciembre	2023-03-12T00:00:00	2024-11-08T06:00:00	1	Precipitación	0
75756	7	Sololá	710	Panajachel	8	Panajachel	12	Diciembre	2023-03-12T00:00:00	2024-11-08T06:00:00	8	Radiación solar	0
75757	7	Sololá	710	Panajachel	8	Panajachel	12	Diciembre	2023-03-12T00:00:00	2024-11-08T07:00:00	2	Temperatura media	14.3
75758	7	Sololá	710	Panajachel	8	Panajachel	12	Diciembre	2023-03-12T00:00:00	2024-11-08T07:00:00	4	Temperatura máxima	14.7
75759	7	Sololá	710	Panajachel	8	Panajachel	12	Diciembre	2023-03-12T00:00:00	2024-11-08T07:00:00	3	Temperatura mínima	14.1
75760	7	Sololá	710	Panajachel	8	Panajachel	12	Diciembre	2023-03-12T00:00:00	2024-11-08T07:00:00	5	Humedad	81
75761	7	Sololá	710	Panajachel	8	Panajachel	12	Diciembre	2023-03-12T00:00:00	2024-11-08T07:00:00	6	Velocidad del viento	0
75762	7	Sololá	710	Panajachel	8	Panajachel	12	Diciembre	2023-03-12T00:00:00	2024-11-08T07:00:00	7	Dirección del viento	0
75763	7	Sololá	710	Panajachel	8	Panajachel	12	Diciembre	2023-03-12T00:00:00	2024-11-08T07:00:00	1	Precipitación	0
75764	7	Sololá	710	Panajachel	8	Panajachel	12	Diciembre	2023-03-12T00:00:00	2024-11-08T07:00:00	8	Radiación solar	10
75765	7	Sololá	710	Panajachel	8	Panajachel	12	Diciembre	2023-03-12T00:00:00	2024-11-08T08:00:00	2	Temperatura media	18.8
75766	7	Sololá	710	Panajachel	8	Panajachel	12	Diciembre	2023-03-12T00:00:00	2024-11-08T08:00:00	4	Temperatura máxima	18.8
75767	7	Sololá	710	Panajachel	8	Panajachel	12	Diciembre	2023-03-12T00:00:00	2024-11-08T08:00:00	3	Temperatura mínima	14.3
75768	7	Sololá	710	Panajachel	8	Panajachel	12	Diciembre	2023-03-12T00:00:00	2024-11-08T08:00:00	5	Humedad	71
75769	7	Sololá	710	Panajachel	8	Panajachel	12	Diciembre	2023-03-12T00:00:00	2024-11-08T08:00:00	6	Velocidad del viento	1.6
75770	7	Sololá	710	Panajachel	8	Panajachel	12	Diciembre	2023-03-12T00:00:00	2024-11-08T08:00:00	7	Dirección del viento	1.61
75771	7	Sololá	710	Panajachel	8	Panajachel	12	Diciembre	2023-03-12T00:00:00	2024-11-08T08:00:00	1	Precipitación	0
75772	7	Sololá	710	Panajachel	8	Panajachel	12	Diciembre	2023-03-12T00:00:00	2024-11-08T08:00:00	8	Radiación solar	204
75773	7	Sololá	710	Panajachel	8	Panajachel	12	Diciembre	2023-03-12T00:00:00	2024-11-08T09:00:00	2	Temperatura media	20.1
75774	7	Sololá	710	Panajachel	8	Panajachel	12	Diciembre	2023-03-12T00:00:00	2024-11-08T09:00:00	4	Temperatura máxima	20.1
75775	7	Sololá	710	Panajachel	8	Panajachel	12	Diciembre	2023-03-12T00:00:00	2024-11-08T09:00:00	3	Temperatura mínima	18.8
75776	7	Sololá	710	Panajachel	8	Panajachel	12	Diciembre	2023-03-12T00:00:00	2024-11-08T09:00:00	5	Humedad	74
75777	7	Sololá	710	Panajachel	8	Panajachel	12	Diciembre	2023-03-12T00:00:00	2024-11-08T09:00:00	6	Velocidad del viento	1.6
75778	7	Sololá	710	Panajachel	8	Panajachel	12	Diciembre	2023-03-12T00:00:00	2024-11-08T09:00:00	7	Dirección del viento	1.61
75779	7	Sololá	710	Panajachel	8	Panajachel	12	Diciembre	2023-03-12T00:00:00	2024-11-08T09:00:00	1	Precipitación	0
75780	7	Sololá	710	Panajachel	8	Panajachel	12	Diciembre	2023-03-12T00:00:00	2024-11-08T09:00:00	8	Radiación solar	410
75781	7	Sololá	710	Panajachel	8	Panajachel	12	Diciembre	2023-03-12T00:00:00	2024-11-08T10:00:00	2	Temperatura media	20.2
75782	7	Sololá	710	Panajachel	8	Panajachel	12	Diciembre	2023-03-12T00:00:00	2024-11-08T10:00:00	4	Temperatura máxima	20.3
75783	7	Sololá	710	Panajachel	8	Panajachel	12	Diciembre	2023-03-12T00:00:00	2024-11-08T10:00:00	3	Temperatura mínima	19.7
75784	7	Sololá	710	Panajachel	8	Panajachel	12	Diciembre	2023-03-12T00:00:00	2024-11-08T10:00:00	5	Humedad	75
75785	7	Sololá	710	Panajachel	8	Panajachel	12	Diciembre	2023-03-12T00:00:00	2024-11-08T10:00:00	6	Velocidad del viento	3.2
75786	7	Sololá	710	Panajachel	8	Panajachel	12	Diciembre	2023-03-12T00:00:00	2024-11-08T10:00:00	7	Dirección del viento	3.22
75787	7	Sololá	710	Panajachel	8	Panajachel	12	Diciembre	2023-03-12T00:00:00	2024-11-08T10:00:00	1	Precipitación	0
75788	7	Sololá	710	Panajachel	8	Panajachel	12	Diciembre	2023-03-12T00:00:00	2024-11-08T10:00:00	8	Radiación solar	580
75789	7	Sololá	710	Panajachel	8	Panajachel	12	Diciembre	2023-03-12T00:00:00	2024-11-08T11:00:00	2	Temperatura media	21.8
75790	7	Sololá	710	Panajachel	8	Panajachel	12	Diciembre	2023-03-12T00:00:00	2024-11-08T11:00:00	4	Temperatura máxima	21.8
75791	7	Sololá	710	Panajachel	8	Panajachel	12	Diciembre	2023-03-12T00:00:00	2024-11-08T11:00:00	3	Temperatura mínima	20.2
75792	7	Sololá	710	Panajachel	8	Panajachel	12	Diciembre	2023-03-12T00:00:00	2024-11-08T11:00:00	5	Humedad	69
75793	7	Sololá	710	Panajachel	8	Panajachel	12	Diciembre	2023-03-12T00:00:00	2024-11-08T11:00:00	6	Velocidad del viento	3.2
75794	7	Sololá	710	Panajachel	8	Panajachel	12	Diciembre	2023-03-12T00:00:00	2024-11-08T11:00:00	7	Dirección del viento	3.22
75795	7	Sololá	710	Panajachel	8	Panajachel	12	Diciembre	2023-03-12T00:00:00	2024-11-08T11:00:00	1	Precipitación	0
75796	7	Sololá	710	Panajachel	8	Panajachel	12	Diciembre	2023-03-12T00:00:00	2024-11-08T11:00:00	8	Radiación solar	705
75797	7	Sololá	710	Panajachel	8	Panajachel	12	Diciembre	2023-03-12T00:00:00	2024-11-08T12:00:00	2	Temperatura media	26.3
75798	7	Sololá	710	Panajachel	8	Panajachel	12	Diciembre	2023-03-12T00:00:00	2024-11-08T12:00:00	4	Temperatura máxima	26.4
75799	7	Sololá	710	Panajachel	8	Panajachel	12	Diciembre	2023-03-12T00:00:00	2024-11-08T12:00:00	3	Temperatura mínima	21.8
75800	7	Sololá	710	Panajachel	8	Panajachel	12	Diciembre	2023-03-12T00:00:00	2024-11-08T12:00:00	5	Humedad	51
75801	7	Sololá	710	Panajachel	8	Panajachel	12	Diciembre	2023-03-12T00:00:00	2024-11-08T12:00:00	6	Velocidad del viento	6.4
75802	7	Sololá	710	Panajachel	8	Panajachel	12	Diciembre	2023-03-12T00:00:00	2024-11-08T12:00:00	7	Dirección del viento	6.44
75803	7	Sololá	710	Panajachel	8	Panajachel	12	Diciembre	2023-03-12T00:00:00	2024-11-08T12:00:00	1	Precipitación	0
75804	7	Sololá	710	Panajachel	8	Panajachel	12	Diciembre	2023-03-12T00:00:00	2024-11-08T12:00:00	8	Radiación solar	798
75805	7	Sololá	710	Panajachel	8	Panajachel	12	Diciembre	2023-03-12T00:00:00	2024-11-08T13:00:00	2	Temperatura media	26.5
75806	7	Sololá	710	Panajachel	8	Panajachel	12	Diciembre	2023-03-12T00:00:00	2024-11-08T13:00:00	4	Temperatura máxima	26.7
75807	7	Sololá	710	Panajachel	8	Panajachel	12	Diciembre	2023-03-12T00:00:00	2024-11-08T13:00:00	3	Temperatura mínima	26.2
75808	7	Sololá	710	Panajachel	8	Panajachel	12	Diciembre	2023-03-12T00:00:00	2024-11-08T13:00:00	5	Humedad	46
75809	7	Sololá	710	Panajachel	8	Panajachel	12	Diciembre	2023-03-12T00:00:00	2024-11-08T13:00:00	6	Velocidad del viento	11.3
75810	7	Sololá	710	Panajachel	8	Panajachel	12	Diciembre	2023-03-12T00:00:00	2024-11-08T13:00:00	7	Dirección del viento	11.27
75811	7	Sololá	710	Panajachel	8	Panajachel	12	Diciembre	2023-03-12T00:00:00	2024-11-08T13:00:00	1	Precipitación	0
75812	7	Sololá	710	Panajachel	8	Panajachel	12	Diciembre	2023-03-12T00:00:00	2024-11-08T13:00:00	8	Radiación solar	779
75813	7	Sololá	710	Panajachel	8	Panajachel	12	Diciembre	2023-03-12T00:00:00	2024-11-08T14:00:00	2	Temperatura media	27
75814	7	Sololá	710	Panajachel	8	Panajachel	12	Diciembre	2023-03-12T00:00:00	2024-11-08T14:00:00	4	Temperatura máxima	27.4
75815	7	Sololá	710	Panajachel	8	Panajachel	12	Diciembre	2023-03-12T00:00:00	2024-11-08T14:00:00	3	Temperatura mínima	26.5
75816	7	Sololá	710	Panajachel	8	Panajachel	12	Diciembre	2023-03-12T00:00:00	2024-11-08T14:00:00	5	Humedad	45
75817	7	Sololá	710	Panajachel	8	Panajachel	12	Diciembre	2023-03-12T00:00:00	2024-11-08T14:00:00	6	Velocidad del viento	8
75818	7	Sololá	710	Panajachel	8	Panajachel	12	Diciembre	2023-03-12T00:00:00	2024-11-08T14:00:00	7	Dirección del viento	8.05
75819	7	Sololá	710	Panajachel	8	Panajachel	12	Diciembre	2023-03-12T00:00:00	2024-11-08T14:00:00	1	Precipitación	0
75820	7	Sololá	710	Panajachel	8	Panajachel	12	Diciembre	2023-03-12T00:00:00	2024-11-08T14:00:00	8	Radiación solar	694
75821	7	Sololá	710	Panajachel	8	Panajachel	12	Diciembre	2023-03-12T00:00:00	2024-11-08T15:00:00	2	Temperatura media	26.4
75822	7	Sololá	710	Panajachel	8	Panajachel	12	Diciembre	2023-03-12T00:00:00	2024-11-08T15:00:00	4	Temperatura máxima	27.3
75823	7	Sololá	710	Panajachel	8	Panajachel	12	Diciembre	2023-03-12T00:00:00	2024-11-08T15:00:00	3	Temperatura mínima	26.3
75824	7	Sololá	710	Panajachel	8	Panajachel	12	Diciembre	2023-03-12T00:00:00	2024-11-08T15:00:00	5	Humedad	49
75825	7	Sololá	710	Panajachel	8	Panajachel	12	Diciembre	2023-03-12T00:00:00	2024-11-08T15:00:00	6	Velocidad del viento	9.7
75826	7	Sololá	710	Panajachel	8	Panajachel	12	Diciembre	2023-03-12T00:00:00	2024-11-08T15:00:00	7	Dirección del viento	9.66
75827	7	Sololá	710	Panajachel	8	Panajachel	12	Diciembre	2023-03-12T00:00:00	2024-11-08T15:00:00	1	Precipitación	0
75828	7	Sololá	710	Panajachel	8	Panajachel	12	Diciembre	2023-03-12T00:00:00	2024-11-08T15:00:00	8	Radiación solar	561
75829	7	Sololá	710	Panajachel	8	Panajachel	12	Diciembre	2023-03-12T00:00:00	2024-11-08T16:00:00	2	Temperatura media	26.2
75830	7	Sololá	710	Panajachel	8	Panajachel	12	Diciembre	2023-03-12T00:00:00	2024-11-08T16:00:00	4	Temperatura máxima	26.4
75831	7	Sololá	710	Panajachel	8	Panajachel	12	Diciembre	2023-03-12T00:00:00	2024-11-08T16:00:00	3	Temperatura mínima	25.8
75832	7	Sololá	710	Panajachel	8	Panajachel	12	Diciembre	2023-03-12T00:00:00	2024-11-08T16:00:00	5	Humedad	48
75833	7	Sololá	710	Panajachel	8	Panajachel	12	Diciembre	2023-03-12T00:00:00	2024-11-08T16:00:00	6	Velocidad del viento	9.7
75834	7	Sololá	710	Panajachel	8	Panajachel	12	Diciembre	2023-03-12T00:00:00	2024-11-08T16:00:00	7	Dirección del viento	9.66
75835	7	Sololá	710	Panajachel	8	Panajachel	12	Diciembre	2023-03-12T00:00:00	2024-11-08T16:00:00	1	Precipitación	0
75836	7	Sololá	710	Panajachel	8	Panajachel	12	Diciembre	2023-03-12T00:00:00	2024-11-08T16:00:00	8	Radiación solar	380
75837	7	Sololá	710	Panajachel	8	Panajachel	12	Diciembre	2023-03-12T00:00:00	2024-11-08T17:00:00	2	Temperatura media	23.9
75838	7	Sololá	710	Panajachel	8	Panajachel	12	Diciembre	2023-03-12T00:00:00	2024-11-08T17:00:00	4	Temperatura máxima	26.3
75839	7	Sololá	710	Panajachel	8	Panajachel	12	Diciembre	2023-03-12T00:00:00	2024-11-08T17:00:00	3	Temperatura mínima	23.9
75840	7	Sololá	710	Panajachel	8	Panajachel	12	Diciembre	2023-03-12T00:00:00	2024-11-08T17:00:00	5	Humedad	55
75841	7	Sololá	710	Panajachel	8	Panajachel	12	Diciembre	2023-03-12T00:00:00	2024-11-08T17:00:00	6	Velocidad del viento	8
75842	7	Sololá	710	Panajachel	8	Panajachel	12	Diciembre	2023-03-12T00:00:00	2024-11-08T17:00:00	7	Dirección del viento	8.05
75843	7	Sololá	710	Panajachel	8	Panajachel	12	Diciembre	2023-03-12T00:00:00	2024-11-08T17:00:00	1	Precipitación	0
75844	7	Sololá	710	Panajachel	8	Panajachel	12	Diciembre	2023-03-12T00:00:00	2024-11-08T17:00:00	8	Radiación solar	122
75845	7	Sololá	710	Panajachel	8	Panajachel	12	Diciembre	2023-03-12T00:00:00	2024-11-08T18:00:00	2	Temperatura media	22.8
75846	7	Sololá	710	Panajachel	8	Panajachel	12	Diciembre	2023-03-12T00:00:00	2024-11-08T18:00:00	4	Temperatura máxima	23.9
75847	7	Sololá	710	Panajachel	8	Panajachel	12	Diciembre	2023-03-12T00:00:00	2024-11-08T18:00:00	3	Temperatura mínima	22.7
75848	7	Sololá	710	Panajachel	8	Panajachel	12	Diciembre	2023-03-12T00:00:00	2024-11-08T18:00:00	5	Humedad	63
75849	7	Sololá	710	Panajachel	8	Panajachel	12	Diciembre	2023-03-12T00:00:00	2024-11-08T18:00:00	6	Velocidad del viento	8
75850	7	Sololá	710	Panajachel	8	Panajachel	12	Diciembre	2023-03-12T00:00:00	2024-11-08T18:00:00	7	Dirección del viento	8.05
75851	7	Sololá	710	Panajachel	8	Panajachel	12	Diciembre	2023-03-12T00:00:00	2024-11-08T18:00:00	1	Precipitación	0
75852	7	Sololá	710	Panajachel	8	Panajachel	12	Diciembre	2023-03-12T00:00:00	2024-11-08T18:00:00	8	Radiación solar	9
75853	7	Sololá	710	Panajachel	8	Panajachel	12	Diciembre	2023-03-12T00:00:00	2024-11-08T19:00:00	2	Temperatura media	21.2
75854	7	Sololá	710	Panajachel	8	Panajachel	12	Diciembre	2023-03-12T00:00:00	2024-11-08T19:00:00	4	Temperatura máxima	22.8
75855	7	Sololá	710	Panajachel	8	Panajachel	12	Diciembre	2023-03-12T00:00:00	2024-11-08T19:00:00	3	Temperatura mínima	21.2
75856	7	Sololá	710	Panajachel	8	Panajachel	12	Diciembre	2023-03-12T00:00:00	2024-11-08T19:00:00	5	Humedad	69
75857	7	Sololá	710	Panajachel	8	Panajachel	12	Diciembre	2023-03-12T00:00:00	2024-11-08T19:00:00	6	Velocidad del viento	4.8
75858	7	Sololá	710	Panajachel	8	Panajachel	12	Diciembre	2023-03-12T00:00:00	2024-11-08T19:00:00	7	Dirección del viento	4.83
75859	7	Sololá	710	Panajachel	8	Panajachel	12	Diciembre	2023-03-12T00:00:00	2024-11-08T19:00:00	1	Precipitación	0
75860	7	Sololá	710	Panajachel	8	Panajachel	12	Diciembre	2023-03-12T00:00:00	2024-11-08T19:00:00	8	Radiación solar	0
75861	7	Sololá	710	Panajachel	8	Panajachel	12	Diciembre	2023-03-12T00:00:00	2024-11-08T20:00:00	2	Temperatura media	20.2
75862	7	Sololá	710	Panajachel	8	Panajachel	12	Diciembre	2023-03-12T00:00:00	2024-11-08T20:00:00	4	Temperatura máxima	21.2
75863	7	Sololá	710	Panajachel	8	Panajachel	12	Diciembre	2023-03-12T00:00:00	2024-11-08T20:00:00	3	Temperatura mínima	20.1
75864	7	Sololá	710	Panajachel	8	Panajachel	12	Diciembre	2023-03-12T00:00:00	2024-11-08T20:00:00	5	Humedad	70
75865	7	Sololá	710	Panajachel	8	Panajachel	12	Diciembre	2023-03-12T00:00:00	2024-11-08T20:00:00	6	Velocidad del viento	1.6
75866	7	Sololá	710	Panajachel	8	Panajachel	12	Diciembre	2023-03-12T00:00:00	2024-11-08T20:00:00	7	Dirección del viento	1.61
75867	7	Sololá	710	Panajachel	8	Panajachel	12	Diciembre	2023-03-12T00:00:00	2024-11-08T20:00:00	1	Precipitación	0
75868	7	Sololá	710	Panajachel	8	Panajachel	12	Diciembre	2023-03-12T00:00:00	2024-11-08T20:00:00	8	Radiación solar	0
75869	7	Sololá	710	Panajachel	8	Panajachel	12	Diciembre	2023-03-12T00:00:00	2024-11-08T21:00:00	2	Temperatura media	19.9
75870	7	Sololá	710	Panajachel	8	Panajachel	12	Diciembre	2023-03-12T00:00:00	2024-11-08T21:00:00	4	Temperatura máxima	20.2
75871	7	Sololá	710	Panajachel	8	Panajachel	12	Diciembre	2023-03-12T00:00:00	2024-11-08T21:00:00	3	Temperatura mínima	19.6
75872	7	Sololá	710	Panajachel	8	Panajachel	12	Diciembre	2023-03-12T00:00:00	2024-11-08T21:00:00	5	Humedad	71
75873	7	Sololá	710	Panajachel	8	Panajachel	12	Diciembre	2023-03-12T00:00:00	2024-11-08T21:00:00	6	Velocidad del viento	1.6
75874	7	Sololá	710	Panajachel	8	Panajachel	12	Diciembre	2023-03-12T00:00:00	2024-11-08T21:00:00	7	Dirección del viento	1.61
75875	7	Sololá	710	Panajachel	8	Panajachel	12	Diciembre	2023-03-12T00:00:00	2024-11-08T21:00:00	1	Precipitación	0
75876	7	Sololá	710	Panajachel	8	Panajachel	12	Diciembre	2023-03-12T00:00:00	2024-11-08T21:00:00	8	Radiación solar	0
75877	7	Sololá	710	Panajachel	8	Panajachel	12	Diciembre	2023-03-12T00:00:00	2024-11-08T22:00:00	2	Temperatura media	18.6
75878	7	Sololá	710	Panajachel	8	Panajachel	12	Diciembre	2023-03-12T00:00:00	2024-11-08T22:00:00	4	Temperatura máxima	20.4
75879	7	Sololá	710	Panajachel	8	Panajachel	12	Diciembre	2023-03-12T00:00:00	2024-11-08T22:00:00	3	Temperatura mínima	18.6
75880	7	Sololá	710	Panajachel	8	Panajachel	12	Diciembre	2023-03-12T00:00:00	2024-11-08T22:00:00	5	Humedad	76
75881	7	Sololá	710	Panajachel	8	Panajachel	12	Diciembre	2023-03-12T00:00:00	2024-11-08T22:00:00	6	Velocidad del viento	1.6
75882	7	Sololá	710	Panajachel	8	Panajachel	12	Diciembre	2023-03-12T00:00:00	2024-11-08T22:00:00	7	Dirección del viento	1.61
75883	7	Sololá	710	Panajachel	8	Panajachel	12	Diciembre	2023-03-12T00:00:00	2024-11-08T22:00:00	1	Precipitación	0
75884	7	Sololá	710	Panajachel	8	Panajachel	12	Diciembre	2023-03-12T00:00:00	2024-11-08T22:00:00	8	Radiación solar	0
75885	7	Sololá	710	Panajachel	8	Panajachel	12	Diciembre	2023-03-12T00:00:00	2024-11-08T23:00:00	2	Temperatura media	19.8
75886	7	Sololá	710	Panajachel	8	Panajachel	12	Diciembre	2023-03-12T00:00:00	2024-11-08T23:00:00	4	Temperatura máxima	19.8
75887	7	Sololá	710	Panajachel	8	Panajachel	12	Diciembre	2023-03-12T00:00:00	2024-11-08T23:00:00	3	Temperatura mínima	18.1
75888	7	Sololá	710	Panajachel	8	Panajachel	12	Diciembre	2023-03-12T00:00:00	2024-11-08T23:00:00	5	Humedad	72
75889	7	Sololá	710	Panajachel	8	Panajachel	12	Diciembre	2023-03-12T00:00:00	2024-11-08T23:00:00	6	Velocidad del viento	3.2
75890	7	Sololá	710	Panajachel	8	Panajachel	12	Diciembre	2023-03-12T00:00:00	2024-11-08T23:00:00	7	Dirección del viento	3.22
75891	7	Sololá	710	Panajachel	8	Panajachel	12	Diciembre	2023-03-12T00:00:00	2024-11-08T23:00:00	1	Precipitación	0
75892	7	Sololá	710	Panajachel	8	Panajachel	12	Diciembre	2023-03-12T00:00:00	2024-11-08T23:00:00	8	Radiación solar	0
75893	7	Sololá	710	Panajachel	8	Panajachel	12	Diciembre	2023-04-12T00:00:00	2024-11-08T00:00:00	2	Temperatura media	20.7
75894	7	Sololá	710	Panajachel	8	Panajachel	12	Diciembre	2023-04-12T00:00:00	2024-11-08T00:00:00	4	Temperatura máxima	20.7
75895	7	Sololá	710	Panajachel	8	Panajachel	12	Diciembre	2023-04-12T00:00:00	2024-11-08T00:00:00	3	Temperatura mínima	19.8
75896	7	Sololá	710	Panajachel	8	Panajachel	12	Diciembre	2023-04-12T00:00:00	2024-11-08T00:00:00	5	Humedad	66
75897	7	Sololá	710	Panajachel	8	Panajachel	12	Diciembre	2023-04-12T00:00:00	2024-11-08T00:00:00	6	Velocidad del viento	11.3
75898	7	Sololá	710	Panajachel	8	Panajachel	12	Diciembre	2023-04-12T00:00:00	2024-11-08T00:00:00	7	Dirección del viento	11.27
75899	7	Sololá	710	Panajachel	8	Panajachel	12	Diciembre	2023-04-12T00:00:00	2024-11-08T00:00:00	1	Precipitación	0
75900	7	Sololá	710	Panajachel	8	Panajachel	12	Diciembre	2023-04-12T00:00:00	2024-11-08T00:00:00	8	Radiación solar	0
75901	7	Sololá	710	Panajachel	8	Panajachel	12	Diciembre	2023-04-12T00:00:00	2024-11-08T01:00:00	2	Temperatura media	19.9
75902	7	Sololá	710	Panajachel	8	Panajachel	12	Diciembre	2023-04-12T00:00:00	2024-11-08T01:00:00	4	Temperatura máxima	20.8
75903	7	Sololá	710	Panajachel	8	Panajachel	12	Diciembre	2023-04-12T00:00:00	2024-11-08T01:00:00	3	Temperatura mínima	19.9
75904	7	Sololá	710	Panajachel	8	Panajachel	12	Diciembre	2023-04-12T00:00:00	2024-11-08T01:00:00	5	Humedad	69
75905	7	Sololá	710	Panajachel	8	Panajachel	12	Diciembre	2023-04-12T00:00:00	2024-11-08T01:00:00	6	Velocidad del viento	4.8
75906	7	Sololá	710	Panajachel	8	Panajachel	12	Diciembre	2023-04-12T00:00:00	2024-11-08T01:00:00	7	Dirección del viento	4.83
75907	7	Sololá	710	Panajachel	8	Panajachel	12	Diciembre	2023-04-12T00:00:00	2024-11-08T01:00:00	1	Precipitación	0
75908	7	Sololá	710	Panajachel	8	Panajachel	12	Diciembre	2023-04-12T00:00:00	2024-11-08T01:00:00	8	Radiación solar	0
75909	7	Sololá	710	Panajachel	8	Panajachel	12	Diciembre	2023-04-12T00:00:00	2024-11-08T02:00:00	2	Temperatura media	19.9
75910	7	Sololá	710	Panajachel	8	Panajachel	12	Diciembre	2023-04-12T00:00:00	2024-11-08T02:00:00	4	Temperatura máxima	20.4
75911	7	Sololá	710	Panajachel	8	Panajachel	12	Diciembre	2023-04-12T00:00:00	2024-11-08T02:00:00	3	Temperatura mínima	19.7
75912	7	Sololá	710	Panajachel	8	Panajachel	12	Diciembre	2023-04-12T00:00:00	2024-11-08T02:00:00	5	Humedad	69
75913	7	Sololá	710	Panajachel	8	Panajachel	12	Diciembre	2023-04-12T00:00:00	2024-11-08T02:00:00	6	Velocidad del viento	6.4
75914	7	Sololá	710	Panajachel	8	Panajachel	12	Diciembre	2023-04-12T00:00:00	2024-11-08T02:00:00	7	Dirección del viento	6.44
75915	7	Sololá	710	Panajachel	8	Panajachel	12	Diciembre	2023-04-12T00:00:00	2024-11-08T02:00:00	1	Precipitación	0
75916	7	Sololá	710	Panajachel	8	Panajachel	12	Diciembre	2023-04-12T00:00:00	2024-11-08T02:00:00	8	Radiación solar	0
75917	7	Sololá	710	Panajachel	8	Panajachel	12	Diciembre	2023-04-12T00:00:00	2024-11-08T03:00:00	2	Temperatura media	19.6
75918	7	Sololá	710	Panajachel	8	Panajachel	12	Diciembre	2023-04-12T00:00:00	2024-11-08T03:00:00	4	Temperatura máxima	19.9
75919	7	Sololá	710	Panajachel	8	Panajachel	12	Diciembre	2023-04-12T00:00:00	2024-11-08T03:00:00	3	Temperatura mínima	19.4
75920	7	Sololá	710	Panajachel	8	Panajachel	12	Diciembre	2023-04-12T00:00:00	2024-11-08T03:00:00	5	Humedad	71
75921	7	Sololá	710	Panajachel	8	Panajachel	12	Diciembre	2023-04-12T00:00:00	2024-11-08T03:00:00	6	Velocidad del viento	4.8
75922	7	Sololá	710	Panajachel	8	Panajachel	12	Diciembre	2023-04-12T00:00:00	2024-11-08T03:00:00	7	Dirección del viento	4.83
75923	7	Sololá	710	Panajachel	8	Panajachel	12	Diciembre	2023-04-12T00:00:00	2024-11-08T03:00:00	1	Precipitación	0
75924	7	Sololá	710	Panajachel	8	Panajachel	12	Diciembre	2023-04-12T00:00:00	2024-11-08T03:00:00	8	Radiación solar	0
75925	7	Sololá	710	Panajachel	8	Panajachel	12	Diciembre	2023-04-12T00:00:00	2024-11-08T04:00:00	2	Temperatura media	19.2
75926	7	Sololá	710	Panajachel	8	Panajachel	12	Diciembre	2023-04-12T00:00:00	2024-11-08T04:00:00	4	Temperatura máxima	19.7
75927	7	Sololá	710	Panajachel	8	Panajachel	12	Diciembre	2023-04-12T00:00:00	2024-11-08T04:00:00	3	Temperatura mínima	19.1
75928	7	Sololá	710	Panajachel	8	Panajachel	12	Diciembre	2023-04-12T00:00:00	2024-11-08T04:00:00	5	Humedad	72
75929	7	Sololá	710	Panajachel	8	Panajachel	12	Diciembre	2023-04-12T00:00:00	2024-11-08T04:00:00	6	Velocidad del viento	6.4
75930	7	Sololá	710	Panajachel	8	Panajachel	12	Diciembre	2023-04-12T00:00:00	2024-11-08T04:00:00	7	Dirección del viento	6.44
75931	7	Sololá	710	Panajachel	8	Panajachel	12	Diciembre	2023-04-12T00:00:00	2024-11-08T04:00:00	1	Precipitación	0
75932	7	Sololá	710	Panajachel	8	Panajachel	12	Diciembre	2023-04-12T00:00:00	2024-11-08T04:00:00	8	Radiación solar	0
75933	7	Sololá	710	Panajachel	8	Panajachel	12	Diciembre	2023-04-12T00:00:00	2024-11-08T05:00:00	2	Temperatura media	20.3
75934	7	Sololá	710	Panajachel	8	Panajachel	12	Diciembre	2023-04-12T00:00:00	2024-11-08T05:00:00	4	Temperatura máxima	20.3
75935	7	Sololá	710	Panajachel	8	Panajachel	12	Diciembre	2023-04-12T00:00:00	2024-11-08T05:00:00	3	Temperatura mínima	19.1
75936	7	Sololá	710	Panajachel	8	Panajachel	12	Diciembre	2023-04-12T00:00:00	2024-11-08T05:00:00	5	Humedad	68
75937	7	Sololá	710	Panajachel	8	Panajachel	12	Diciembre	2023-04-12T00:00:00	2024-11-08T05:00:00	6	Velocidad del viento	4.8
75938	7	Sololá	710	Panajachel	8	Panajachel	12	Diciembre	2023-04-12T00:00:00	2024-11-08T05:00:00	7	Dirección del viento	4.83
75939	7	Sololá	710	Panajachel	8	Panajachel	12	Diciembre	2023-04-12T00:00:00	2024-11-08T05:00:00	1	Precipitación	0
75940	7	Sololá	710	Panajachel	8	Panajachel	12	Diciembre	2023-04-12T00:00:00	2024-11-08T05:00:00	8	Radiación solar	0
75941	7	Sololá	710	Panajachel	8	Panajachel	12	Diciembre	2023-04-12T00:00:00	2024-11-08T06:00:00	2	Temperatura media	20.2
75942	7	Sololá	710	Panajachel	8	Panajachel	12	Diciembre	2023-04-12T00:00:00	2024-11-08T06:00:00	4	Temperatura máxima	20.7
75943	7	Sololá	710	Panajachel	8	Panajachel	12	Diciembre	2023-04-12T00:00:00	2024-11-08T06:00:00	3	Temperatura mínima	20.2
75944	7	Sololá	710	Panajachel	8	Panajachel	12	Diciembre	2023-04-12T00:00:00	2024-11-08T06:00:00	5	Humedad	69
75945	7	Sololá	710	Panajachel	8	Panajachel	12	Diciembre	2023-04-12T00:00:00	2024-11-08T06:00:00	6	Velocidad del viento	6.4
75946	7	Sololá	710	Panajachel	8	Panajachel	12	Diciembre	2023-04-12T00:00:00	2024-11-08T06:00:00	7	Dirección del viento	6.44
75947	7	Sololá	710	Panajachel	8	Panajachel	12	Diciembre	2023-04-12T00:00:00	2024-11-08T06:00:00	1	Precipitación	0
75948	7	Sololá	710	Panajachel	8	Panajachel	12	Diciembre	2023-04-12T00:00:00	2024-11-08T06:00:00	8	Radiación solar	0
75949	7	Sololá	710	Panajachel	8	Panajachel	12	Diciembre	2023-04-12T00:00:00	2024-11-08T07:00:00	2	Temperatura media	18.9
75950	7	Sololá	710	Panajachel	8	Panajachel	12	Diciembre	2023-04-12T00:00:00	2024-11-08T07:00:00	4	Temperatura máxima	20.2
75951	7	Sololá	710	Panajachel	8	Panajachel	12	Diciembre	2023-04-12T00:00:00	2024-11-08T07:00:00	3	Temperatura mínima	18.8
75952	7	Sololá	710	Panajachel	8	Panajachel	12	Diciembre	2023-04-12T00:00:00	2024-11-08T07:00:00	5	Humedad	74
75953	7	Sololá	710	Panajachel	8	Panajachel	12	Diciembre	2023-04-12T00:00:00	2024-11-08T07:00:00	6	Velocidad del viento	1.6
75954	7	Sololá	710	Panajachel	8	Panajachel	12	Diciembre	2023-04-12T00:00:00	2024-11-08T07:00:00	7	Dirección del viento	1.61
75955	7	Sololá	710	Panajachel	8	Panajachel	12	Diciembre	2023-04-12T00:00:00	2024-11-08T07:00:00	1	Precipitación	0
75956	7	Sololá	710	Panajachel	8	Panajachel	12	Diciembre	2023-04-12T00:00:00	2024-11-08T07:00:00	8	Radiación solar	15
75957	7	Sololá	710	Panajachel	8	Panajachel	12	Diciembre	2023-04-12T00:00:00	2024-11-08T08:00:00	2	Temperatura media	22
75958	7	Sololá	710	Panajachel	8	Panajachel	12	Diciembre	2023-04-12T00:00:00	2024-11-08T08:00:00	4	Temperatura máxima	22.2
75959	7	Sololá	710	Panajachel	8	Panajachel	12	Diciembre	2023-04-12T00:00:00	2024-11-08T08:00:00	3	Temperatura mínima	18.9
75960	7	Sololá	710	Panajachel	8	Panajachel	12	Diciembre	2023-04-12T00:00:00	2024-11-08T08:00:00	5	Humedad	67
75961	7	Sololá	710	Panajachel	8	Panajachel	12	Diciembre	2023-04-12T00:00:00	2024-11-08T08:00:00	6	Velocidad del viento	8
75962	7	Sololá	710	Panajachel	8	Panajachel	12	Diciembre	2023-04-12T00:00:00	2024-11-08T08:00:00	7	Dirección del viento	8.05
75963	7	Sololá	710	Panajachel	8	Panajachel	12	Diciembre	2023-04-12T00:00:00	2024-11-08T08:00:00	1	Precipitación	0
75964	7	Sololá	710	Panajachel	8	Panajachel	12	Diciembre	2023-04-12T00:00:00	2024-11-08T08:00:00	8	Radiación solar	190
75965	7	Sololá	710	Panajachel	8	Panajachel	12	Diciembre	2023-04-12T00:00:00	2024-11-08T09:00:00	2	Temperatura media	23
75966	7	Sololá	710	Panajachel	8	Panajachel	12	Diciembre	2023-04-12T00:00:00	2024-11-08T09:00:00	4	Temperatura máxima	23
75967	7	Sololá	710	Panajachel	8	Panajachel	12	Diciembre	2023-04-12T00:00:00	2024-11-08T09:00:00	3	Temperatura mínima	21.9
75968	7	Sololá	710	Panajachel	8	Panajachel	12	Diciembre	2023-04-12T00:00:00	2024-11-08T09:00:00	5	Humedad	68
75969	7	Sololá	710	Panajachel	8	Panajachel	12	Diciembre	2023-04-12T00:00:00	2024-11-08T09:00:00	6	Velocidad del viento	9.7
75970	7	Sololá	710	Panajachel	8	Panajachel	12	Diciembre	2023-04-12T00:00:00	2024-11-08T09:00:00	7	Dirección del viento	9.66
75971	7	Sololá	710	Panajachel	8	Panajachel	12	Diciembre	2023-04-12T00:00:00	2024-11-08T09:00:00	1	Precipitación	0
75972	7	Sololá	710	Panajachel	8	Panajachel	12	Diciembre	2023-04-12T00:00:00	2024-11-08T09:00:00	8	Radiación solar	402
75973	7	Sololá	710	Panajachel	8	Panajachel	12	Diciembre	2023-04-12T00:00:00	2024-11-08T10:00:00	2	Temperatura media	24.2
75974	7	Sololá	710	Panajachel	8	Panajachel	12	Diciembre	2023-04-12T00:00:00	2024-11-08T10:00:00	4	Temperatura máxima	24.2
75975	7	Sololá	710	Panajachel	8	Panajachel	12	Diciembre	2023-04-12T00:00:00	2024-11-08T10:00:00	3	Temperatura mínima	22.9
75976	7	Sololá	710	Panajachel	8	Panajachel	12	Diciembre	2023-04-12T00:00:00	2024-11-08T10:00:00	5	Humedad	65
75977	7	Sololá	710	Panajachel	8	Panajachel	12	Diciembre	2023-04-12T00:00:00	2024-11-08T10:00:00	6	Velocidad del viento	9.7
75978	7	Sololá	710	Panajachel	8	Panajachel	12	Diciembre	2023-04-12T00:00:00	2024-11-08T10:00:00	7	Dirección del viento	9.66
75979	7	Sololá	710	Panajachel	8	Panajachel	12	Diciembre	2023-04-12T00:00:00	2024-11-08T10:00:00	1	Precipitación	0
75980	7	Sololá	710	Panajachel	8	Panajachel	12	Diciembre	2023-04-12T00:00:00	2024-11-08T10:00:00	8	Radiación solar	592
75981	7	Sololá	710	Panajachel	8	Panajachel	12	Diciembre	2023-04-12T00:00:00	2024-11-08T11:00:00	2	Temperatura media	25.8
75982	7	Sololá	710	Panajachel	8	Panajachel	12	Diciembre	2023-04-12T00:00:00	2024-11-08T11:00:00	4	Temperatura máxima	26
75983	7	Sololá	710	Panajachel	8	Panajachel	12	Diciembre	2023-04-12T00:00:00	2024-11-08T11:00:00	3	Temperatura mínima	24.2
75984	7	Sololá	710	Panajachel	8	Panajachel	12	Diciembre	2023-04-12T00:00:00	2024-11-08T11:00:00	5	Humedad	61
75985	7	Sololá	710	Panajachel	8	Panajachel	12	Diciembre	2023-04-12T00:00:00	2024-11-08T11:00:00	6	Velocidad del viento	4.8
75986	7	Sololá	710	Panajachel	8	Panajachel	12	Diciembre	2023-04-12T00:00:00	2024-11-08T11:00:00	7	Dirección del viento	4.83
75987	7	Sololá	710	Panajachel	8	Panajachel	12	Diciembre	2023-04-12T00:00:00	2024-11-08T11:00:00	1	Precipitación	0
75988	7	Sololá	710	Panajachel	8	Panajachel	12	Diciembre	2023-04-12T00:00:00	2024-11-08T11:00:00	8	Radiación solar	731
75989	7	Sololá	710	Panajachel	8	Panajachel	12	Diciembre	2023-04-12T00:00:00	2024-11-08T12:00:00	2	Temperatura media	25.3
75990	7	Sololá	710	Panajachel	8	Panajachel	12	Diciembre	2023-04-12T00:00:00	2024-11-08T12:00:00	4	Temperatura máxima	26.1
75991	7	Sololá	710	Panajachel	8	Panajachel	12	Diciembre	2023-04-12T00:00:00	2024-11-08T12:00:00	3	Temperatura mínima	25.3
75992	7	Sololá	710	Panajachel	8	Panajachel	12	Diciembre	2023-04-12T00:00:00	2024-11-08T12:00:00	5	Humedad	62
75993	7	Sololá	710	Panajachel	8	Panajachel	12	Diciembre	2023-04-12T00:00:00	2024-11-08T12:00:00	6	Velocidad del viento	8
75994	7	Sololá	710	Panajachel	8	Panajachel	12	Diciembre	2023-04-12T00:00:00	2024-11-08T12:00:00	7	Dirección del viento	8.05
75995	7	Sololá	710	Panajachel	8	Panajachel	12	Diciembre	2023-04-12T00:00:00	2024-11-08T12:00:00	1	Precipitación	0
75996	7	Sololá	710	Panajachel	8	Panajachel	12	Diciembre	2023-04-12T00:00:00	2024-11-08T12:00:00	8	Radiación solar	776
75997	7	Sololá	710	Panajachel	8	Panajachel	12	Diciembre	2023-04-12T00:00:00	2024-11-08T13:00:00	2	Temperatura media	25.9
75998	7	Sololá	710	Panajachel	8	Panajachel	12	Diciembre	2023-04-12T00:00:00	2024-11-08T13:00:00	4	Temperatura máxima	26.3
75999	7	Sololá	710	Panajachel	8	Panajachel	12	Diciembre	2023-04-12T00:00:00	2024-11-08T13:00:00	3	Temperatura mínima	25.3
76000	7	Sololá	710	Panajachel	8	Panajachel	12	Diciembre	2023-04-12T00:00:00	2024-11-08T13:00:00	5	Humedad	58
76001	7	Sololá	710	Panajachel	8	Panajachel	12	Diciembre	2023-04-12T00:00:00	2024-11-08T13:00:00	6	Velocidad del viento	6.4
76002	7	Sololá	710	Panajachel	8	Panajachel	12	Diciembre	2023-04-12T00:00:00	2024-11-08T13:00:00	7	Dirección del viento	6.44
76003	7	Sololá	710	Panajachel	8	Panajachel	12	Diciembre	2023-04-12T00:00:00	2024-11-08T13:00:00	1	Precipitación	0
76004	7	Sololá	710	Panajachel	8	Panajachel	12	Diciembre	2023-04-12T00:00:00	2024-11-08T13:00:00	8	Radiación solar	743
76005	7	Sololá	710	Panajachel	8	Panajachel	12	Diciembre	2023-04-12T00:00:00	2024-11-08T14:00:00	2	Temperatura media	26.4
76006	7	Sololá	710	Panajachel	8	Panajachel	12	Diciembre	2023-04-12T00:00:00	2024-11-08T14:00:00	4	Temperatura máxima	26.5
76007	7	Sololá	710	Panajachel	8	Panajachel	12	Diciembre	2023-04-12T00:00:00	2024-11-08T14:00:00	3	Temperatura mínima	25.8
76008	7	Sololá	710	Panajachel	8	Panajachel	12	Diciembre	2023-04-12T00:00:00	2024-11-08T14:00:00	5	Humedad	55
76009	7	Sololá	710	Panajachel	8	Panajachel	12	Diciembre	2023-04-12T00:00:00	2024-11-08T14:00:00	6	Velocidad del viento	8
76010	7	Sololá	710	Panajachel	8	Panajachel	12	Diciembre	2023-04-12T00:00:00	2024-11-08T14:00:00	7	Dirección del viento	8.05
76011	7	Sololá	710	Panajachel	8	Panajachel	12	Diciembre	2023-04-12T00:00:00	2024-11-08T14:00:00	1	Precipitación	0
76012	7	Sololá	710	Panajachel	8	Panajachel	12	Diciembre	2023-04-12T00:00:00	2024-11-08T14:00:00	8	Radiación solar	645
76013	7	Sololá	710	Panajachel	8	Panajachel	12	Diciembre	2023-04-12T00:00:00	2024-11-08T15:00:00	2	Temperatura media	25.7
76014	7	Sololá	710	Panajachel	8	Panajachel	12	Diciembre	2023-04-12T00:00:00	2024-11-08T15:00:00	4	Temperatura máxima	26.8
76015	7	Sololá	710	Panajachel	8	Panajachel	12	Diciembre	2023-04-12T00:00:00	2024-11-08T15:00:00	3	Temperatura mínima	25.6
76016	7	Sololá	710	Panajachel	8	Panajachel	12	Diciembre	2023-04-12T00:00:00	2024-11-08T15:00:00	5	Humedad	56
76017	7	Sololá	710	Panajachel	8	Panajachel	12	Diciembre	2023-04-12T00:00:00	2024-11-08T15:00:00	6	Velocidad del viento	6.4
76018	7	Sololá	710	Panajachel	8	Panajachel	12	Diciembre	2023-04-12T00:00:00	2024-11-08T15:00:00	7	Dirección del viento	6.44
76019	7	Sololá	710	Panajachel	8	Panajachel	12	Diciembre	2023-04-12T00:00:00	2024-11-08T15:00:00	1	Precipitación	0
76020	7	Sololá	710	Panajachel	8	Panajachel	12	Diciembre	2023-04-12T00:00:00	2024-11-08T15:00:00	8	Radiación solar	526
76021	7	Sololá	710	Panajachel	8	Panajachel	12	Diciembre	2023-04-12T00:00:00	2024-11-08T16:00:00	2	Temperatura media	25.4
76022	7	Sololá	710	Panajachel	8	Panajachel	12	Diciembre	2023-04-12T00:00:00	2024-11-08T16:00:00	4	Temperatura máxima	25.7
76023	7	Sololá	710	Panajachel	8	Panajachel	12	Diciembre	2023-04-12T00:00:00	2024-11-08T16:00:00	3	Temperatura mínima	24.6
76024	7	Sololá	710	Panajachel	8	Panajachel	12	Diciembre	2023-04-12T00:00:00	2024-11-08T16:00:00	5	Humedad	58
76025	7	Sololá	710	Panajachel	8	Panajachel	12	Diciembre	2023-04-12T00:00:00	2024-11-08T16:00:00	6	Velocidad del viento	6.4
76026	7	Sololá	710	Panajachel	8	Panajachel	12	Diciembre	2023-04-12T00:00:00	2024-11-08T16:00:00	7	Dirección del viento	6.44
76027	7	Sololá	710	Panajachel	8	Panajachel	12	Diciembre	2023-04-12T00:00:00	2024-11-08T16:00:00	1	Precipitación	0
76028	7	Sololá	710	Panajachel	8	Panajachel	12	Diciembre	2023-04-12T00:00:00	2024-11-08T16:00:00	8	Radiación solar	224
76029	7	Sololá	710	Panajachel	8	Panajachel	12	Diciembre	2023-04-12T00:00:00	2024-11-08T17:00:00	2	Temperatura media	24.1
76030	7	Sololá	710	Panajachel	8	Panajachel	12	Diciembre	2023-04-12T00:00:00	2024-11-08T17:00:00	4	Temperatura máxima	25.5
76031	7	Sololá	710	Panajachel	8	Panajachel	12	Diciembre	2023-04-12T00:00:00	2024-11-08T17:00:00	3	Temperatura mínima	24.1
76032	7	Sololá	710	Panajachel	8	Panajachel	12	Diciembre	2023-04-12T00:00:00	2024-11-08T17:00:00	5	Humedad	60
76033	7	Sololá	710	Panajachel	8	Panajachel	12	Diciembre	2023-04-12T00:00:00	2024-11-08T17:00:00	6	Velocidad del viento	8
76034	7	Sololá	710	Panajachel	8	Panajachel	12	Diciembre	2023-04-12T00:00:00	2024-11-08T17:00:00	7	Dirección del viento	8.05
76035	7	Sololá	710	Panajachel	8	Panajachel	12	Diciembre	2023-04-12T00:00:00	2024-11-08T17:00:00	1	Precipitación	0
76036	7	Sololá	710	Panajachel	8	Panajachel	12	Diciembre	2023-04-12T00:00:00	2024-11-08T17:00:00	8	Radiación solar	168
76037	7	Sololá	710	Panajachel	8	Panajachel	12	Diciembre	2023-04-12T00:00:00	2024-11-08T18:00:00	2	Temperatura media	22.7
76038	7	Sololá	710	Panajachel	8	Panajachel	12	Diciembre	2023-04-12T00:00:00	2024-11-08T18:00:00	4	Temperatura máxima	24.1
76039	7	Sololá	710	Panajachel	8	Panajachel	12	Diciembre	2023-04-12T00:00:00	2024-11-08T18:00:00	3	Temperatura mínima	22.7
76040	7	Sololá	710	Panajachel	8	Panajachel	12	Diciembre	2023-04-12T00:00:00	2024-11-08T18:00:00	5	Humedad	66
76041	7	Sololá	710	Panajachel	8	Panajachel	12	Diciembre	2023-04-12T00:00:00	2024-11-08T18:00:00	6	Velocidad del viento	4.8
76042	7	Sololá	710	Panajachel	8	Panajachel	12	Diciembre	2023-04-12T00:00:00	2024-11-08T18:00:00	7	Dirección del viento	4.83
76043	7	Sololá	710	Panajachel	8	Panajachel	12	Diciembre	2023-04-12T00:00:00	2024-11-08T18:00:00	1	Precipitación	0
76044	7	Sololá	710	Panajachel	8	Panajachel	12	Diciembre	2023-04-12T00:00:00	2024-11-08T18:00:00	8	Radiación solar	14
76045	7	Sololá	710	Panajachel	8	Panajachel	12	Diciembre	2023-04-12T00:00:00	2024-11-08T19:00:00	2	Temperatura media	21.9
76046	7	Sololá	710	Panajachel	8	Panajachel	12	Diciembre	2023-04-12T00:00:00	2024-11-08T19:00:00	4	Temperatura máxima	22.7
76047	7	Sololá	710	Panajachel	8	Panajachel	12	Diciembre	2023-04-12T00:00:00	2024-11-08T19:00:00	3	Temperatura mínima	21.9
76048	7	Sololá	710	Panajachel	8	Panajachel	12	Diciembre	2023-04-12T00:00:00	2024-11-08T19:00:00	5	Humedad	70
76049	7	Sololá	710	Panajachel	8	Panajachel	12	Diciembre	2023-04-12T00:00:00	2024-11-08T19:00:00	6	Velocidad del viento	1.6
76050	7	Sololá	710	Panajachel	8	Panajachel	12	Diciembre	2023-04-12T00:00:00	2024-11-08T19:00:00	7	Dirección del viento	1.61
76051	7	Sololá	710	Panajachel	8	Panajachel	12	Diciembre	2023-04-12T00:00:00	2024-11-08T19:00:00	1	Precipitación	0
76052	7	Sololá	710	Panajachel	8	Panajachel	12	Diciembre	2023-04-12T00:00:00	2024-11-08T19:00:00	8	Radiación solar	0
76053	7	Sololá	710	Panajachel	8	Panajachel	12	Diciembre	2023-04-12T00:00:00	2024-11-08T20:00:00	2	Temperatura media	22.1
76054	7	Sololá	710	Panajachel	8	Panajachel	12	Diciembre	2023-04-12T00:00:00	2024-11-08T20:00:00	4	Temperatura máxima	22.3
76055	7	Sololá	710	Panajachel	8	Panajachel	12	Diciembre	2023-04-12T00:00:00	2024-11-08T20:00:00	3	Temperatura mínima	21.8
76056	7	Sololá	710	Panajachel	8	Panajachel	12	Diciembre	2023-04-12T00:00:00	2024-11-08T20:00:00	5	Humedad	69
76057	7	Sololá	710	Panajachel	8	Panajachel	12	Diciembre	2023-04-12T00:00:00	2024-11-08T20:00:00	6	Velocidad del viento	4.8
76058	7	Sololá	710	Panajachel	8	Panajachel	12	Diciembre	2023-04-12T00:00:00	2024-11-08T20:00:00	7	Dirección del viento	4.83
76059	7	Sololá	710	Panajachel	8	Panajachel	12	Diciembre	2023-04-12T00:00:00	2024-11-08T20:00:00	1	Precipitación	0
76060	7	Sololá	710	Panajachel	8	Panajachel	12	Diciembre	2023-04-12T00:00:00	2024-11-08T20:00:00	8	Radiación solar	0
76061	7	Sololá	710	Panajachel	8	Panajachel	12	Diciembre	2023-04-12T00:00:00	2024-11-08T21:00:00	2	Temperatura media	21.7
76062	7	Sololá	710	Panajachel	8	Panajachel	12	Diciembre	2023-04-12T00:00:00	2024-11-08T21:00:00	4	Temperatura máxima	22.1
76063	7	Sololá	710	Panajachel	8	Panajachel	12	Diciembre	2023-04-12T00:00:00	2024-11-08T21:00:00	3	Temperatura mínima	21.6
76064	7	Sololá	710	Panajachel	8	Panajachel	12	Diciembre	2023-04-12T00:00:00	2024-11-08T21:00:00	5	Humedad	72
76065	7	Sololá	710	Panajachel	8	Panajachel	12	Diciembre	2023-04-12T00:00:00	2024-11-08T21:00:00	6	Velocidad del viento	3.2
76066	7	Sololá	710	Panajachel	8	Panajachel	12	Diciembre	2023-04-12T00:00:00	2024-11-08T21:00:00	7	Dirección del viento	3.22
76067	7	Sololá	710	Panajachel	8	Panajachel	12	Diciembre	2023-04-12T00:00:00	2024-11-08T21:00:00	1	Precipitación	0
76068	7	Sololá	710	Panajachel	8	Panajachel	12	Diciembre	2023-04-12T00:00:00	2024-11-08T21:00:00	8	Radiación solar	0
76069	7	Sololá	710	Panajachel	8	Panajachel	12	Diciembre	2023-04-12T00:00:00	2024-11-08T22:00:00	2	Temperatura media	21.2
76070	7	Sololá	710	Panajachel	8	Panajachel	12	Diciembre	2023-04-12T00:00:00	2024-11-08T22:00:00	4	Temperatura máxima	21.7
76071	7	Sololá	710	Panajachel	8	Panajachel	12	Diciembre	2023-04-12T00:00:00	2024-11-08T22:00:00	3	Temperatura mínima	20.7
76072	7	Sololá	710	Panajachel	8	Panajachel	12	Diciembre	2023-04-12T00:00:00	2024-11-08T22:00:00	5	Humedad	74
76073	7	Sololá	710	Panajachel	8	Panajachel	12	Diciembre	2023-04-12T00:00:00	2024-11-08T22:00:00	6	Velocidad del viento	1.6
76074	7	Sololá	710	Panajachel	8	Panajachel	12	Diciembre	2023-04-12T00:00:00	2024-11-08T22:00:00	7	Dirección del viento	1.61
76075	7	Sololá	710	Panajachel	8	Panajachel	12	Diciembre	2023-04-12T00:00:00	2024-11-08T22:00:00	1	Precipitación	0
76076	7	Sololá	710	Panajachel	8	Panajachel	12	Diciembre	2023-04-12T00:00:00	2024-11-08T22:00:00	8	Radiación solar	0
76077	7	Sololá	710	Panajachel	8	Panajachel	12	Diciembre	2023-04-12T00:00:00	2024-11-08T23:00:00	2	Temperatura media	20.8
76078	7	Sololá	710	Panajachel	8	Panajachel	12	Diciembre	2023-04-12T00:00:00	2024-11-08T23:00:00	4	Temperatura máxima	21.3
76079	7	Sololá	710	Panajachel	8	Panajachel	12	Diciembre	2023-04-12T00:00:00	2024-11-08T23:00:00	3	Temperatura mínima	20.1
76080	7	Sololá	710	Panajachel	8	Panajachel	12	Diciembre	2023-04-12T00:00:00	2024-11-08T23:00:00	5	Humedad	76
76081	7	Sololá	710	Panajachel	8	Panajachel	12	Diciembre	2023-04-12T00:00:00	2024-11-08T23:00:00	6	Velocidad del viento	3.2
76082	7	Sololá	710	Panajachel	8	Panajachel	12	Diciembre	2023-04-12T00:00:00	2024-11-08T23:00:00	7	Dirección del viento	3.22
76083	7	Sololá	710	Panajachel	8	Panajachel	12	Diciembre	2023-04-12T00:00:00	2024-11-08T23:00:00	1	Precipitación	0
76084	7	Sololá	710	Panajachel	8	Panajachel	12	Diciembre	2023-04-12T00:00:00	2024-11-08T23:00:00	8	Radiación solar	0
76085	7	Sololá	710	Panajachel	8	Panajachel	12	Diciembre	2023-05-12T00:00:00	2024-11-08T00:00:00	2	Temperatura media	21.2
76086	7	Sololá	710	Panajachel	8	Panajachel	12	Diciembre	2023-05-12T00:00:00	2024-11-08T00:00:00	4	Temperatura máxima	21.5
76087	7	Sololá	710	Panajachel	8	Panajachel	12	Diciembre	2023-05-12T00:00:00	2024-11-08T00:00:00	3	Temperatura mínima	20.8
76088	7	Sololá	710	Panajachel	8	Panajachel	12	Diciembre	2023-05-12T00:00:00	2024-11-08T00:00:00	5	Humedad	74
76089	7	Sololá	710	Panajachel	8	Panajachel	12	Diciembre	2023-05-12T00:00:00	2024-11-08T00:00:00	6	Velocidad del viento	4.8
76090	7	Sololá	710	Panajachel	8	Panajachel	12	Diciembre	2023-05-12T00:00:00	2024-11-08T00:00:00	7	Dirección del viento	4.83
76091	7	Sololá	710	Panajachel	8	Panajachel	12	Diciembre	2023-05-12T00:00:00	2024-11-08T00:00:00	1	Precipitación	0
76092	7	Sololá	710	Panajachel	8	Panajachel	12	Diciembre	2023-05-12T00:00:00	2024-11-08T00:00:00	8	Radiación solar	0
76093	7	Sololá	710	Panajachel	8	Panajachel	12	Diciembre	2023-05-12T00:00:00	2024-11-08T01:00:00	2	Temperatura media	20.2
76094	7	Sololá	710	Panajachel	8	Panajachel	12	Diciembre	2023-05-12T00:00:00	2024-11-08T01:00:00	4	Temperatura máxima	21.2
76095	7	Sololá	710	Panajachel	8	Panajachel	12	Diciembre	2023-05-12T00:00:00	2024-11-08T01:00:00	3	Temperatura mínima	20.2
76096	7	Sololá	710	Panajachel	8	Panajachel	12	Diciembre	2023-05-12T00:00:00	2024-11-08T01:00:00	5	Humedad	79
76097	7	Sololá	710	Panajachel	8	Panajachel	12	Diciembre	2023-05-12T00:00:00	2024-11-08T01:00:00	6	Velocidad del viento	1.6
76098	7	Sololá	710	Panajachel	8	Panajachel	12	Diciembre	2023-05-12T00:00:00	2024-11-08T01:00:00	7	Dirección del viento	1.61
76099	7	Sololá	710	Panajachel	8	Panajachel	12	Diciembre	2023-05-12T00:00:00	2024-11-08T01:00:00	1	Precipitación	0
76100	7	Sololá	710	Panajachel	8	Panajachel	12	Diciembre	2023-05-12T00:00:00	2024-11-08T01:00:00	8	Radiación solar	0
76101	7	Sololá	710	Panajachel	8	Panajachel	12	Diciembre	2023-05-12T00:00:00	2024-11-08T02:00:00	2	Temperatura media	18.8
76102	7	Sololá	710	Panajachel	8	Panajachel	12	Diciembre	2023-05-12T00:00:00	2024-11-08T02:00:00	4	Temperatura máxima	20.2
76103	7	Sololá	710	Panajachel	8	Panajachel	12	Diciembre	2023-05-12T00:00:00	2024-11-08T02:00:00	3	Temperatura mínima	18.7
76104	7	Sololá	710	Panajachel	8	Panajachel	12	Diciembre	2023-05-12T00:00:00	2024-11-08T02:00:00	5	Humedad	83
76105	7	Sololá	710	Panajachel	8	Panajachel	12	Diciembre	2023-05-12T00:00:00	2024-11-08T02:00:00	6	Velocidad del viento	1.6
76106	7	Sololá	710	Panajachel	8	Panajachel	12	Diciembre	2023-05-12T00:00:00	2024-11-08T02:00:00	7	Dirección del viento	1.61
76107	7	Sololá	710	Panajachel	8	Panajachel	12	Diciembre	2023-05-12T00:00:00	2024-11-08T02:00:00	1	Precipitación	0
76108	7	Sololá	710	Panajachel	8	Panajachel	12	Diciembre	2023-05-12T00:00:00	2024-11-08T02:00:00	8	Radiación solar	0
76109	7	Sololá	710	Panajachel	8	Panajachel	12	Diciembre	2023-05-12T00:00:00	2024-11-08T03:00:00	2	Temperatura media	19.5
76110	7	Sololá	710	Panajachel	8	Panajachel	12	Diciembre	2023-05-12T00:00:00	2024-11-08T03:00:00	4	Temperatura máxima	19.8
76111	7	Sololá	710	Panajachel	8	Panajachel	12	Diciembre	2023-05-12T00:00:00	2024-11-08T03:00:00	3	Temperatura mínima	18.3
76112	7	Sololá	710	Panajachel	8	Panajachel	12	Diciembre	2023-05-12T00:00:00	2024-11-08T03:00:00	5	Humedad	79
76113	7	Sololá	710	Panajachel	8	Panajachel	12	Diciembre	2023-05-12T00:00:00	2024-11-08T03:00:00	6	Velocidad del viento	1.6
76114	7	Sololá	710	Panajachel	8	Panajachel	12	Diciembre	2023-05-12T00:00:00	2024-11-08T03:00:00	7	Dirección del viento	1.61
76115	7	Sololá	710	Panajachel	8	Panajachel	12	Diciembre	2023-05-12T00:00:00	2024-11-08T03:00:00	1	Precipitación	0
76116	7	Sololá	710	Panajachel	8	Panajachel	12	Diciembre	2023-05-12T00:00:00	2024-11-08T03:00:00	8	Radiación solar	0
76117	7	Sololá	710	Panajachel	8	Panajachel	12	Diciembre	2023-05-12T00:00:00	2024-11-08T04:00:00	2	Temperatura media	19.4
76118	7	Sololá	710	Panajachel	8	Panajachel	12	Diciembre	2023-05-12T00:00:00	2024-11-08T04:00:00	4	Temperatura máxima	19.7
76119	7	Sololá	710	Panajachel	8	Panajachel	12	Diciembre	2023-05-12T00:00:00	2024-11-08T04:00:00	3	Temperatura mínima	18.6
76120	7	Sololá	710	Panajachel	8	Panajachel	12	Diciembre	2023-05-12T00:00:00	2024-11-08T04:00:00	5	Humedad	78
76121	7	Sololá	710	Panajachel	8	Panajachel	12	Diciembre	2023-05-12T00:00:00	2024-11-08T04:00:00	6	Velocidad del viento	1.6
76122	7	Sololá	710	Panajachel	8	Panajachel	12	Diciembre	2023-05-12T00:00:00	2024-11-08T04:00:00	7	Dirección del viento	1.61
76123	7	Sololá	710	Panajachel	8	Panajachel	12	Diciembre	2023-05-12T00:00:00	2024-11-08T04:00:00	1	Precipitación	0
76124	7	Sololá	710	Panajachel	8	Panajachel	12	Diciembre	2023-05-12T00:00:00	2024-11-08T04:00:00	8	Radiación solar	0
76125	7	Sololá	710	Panajachel	8	Panajachel	12	Diciembre	2023-05-12T00:00:00	2024-11-08T05:00:00	2	Temperatura media	18.6
76126	7	Sololá	710	Panajachel	8	Panajachel	12	Diciembre	2023-05-12T00:00:00	2024-11-08T05:00:00	4	Temperatura máxima	19.4
76127	7	Sololá	710	Panajachel	8	Panajachel	12	Diciembre	2023-05-12T00:00:00	2024-11-08T05:00:00	3	Temperatura mínima	18.2
76128	7	Sololá	710	Panajachel	8	Panajachel	12	Diciembre	2023-05-12T00:00:00	2024-11-08T05:00:00	5	Humedad	81
76129	7	Sololá	710	Panajachel	8	Panajachel	12	Diciembre	2023-05-12T00:00:00	2024-11-08T05:00:00	6	Velocidad del viento	0
76130	7	Sololá	710	Panajachel	8	Panajachel	12	Diciembre	2023-05-12T00:00:00	2024-11-08T05:00:00	7	Dirección del viento	0
76131	7	Sololá	710	Panajachel	8	Panajachel	12	Diciembre	2023-05-12T00:00:00	2024-11-08T05:00:00	1	Precipitación	0
76132	7	Sololá	710	Panajachel	8	Panajachel	12	Diciembre	2023-05-12T00:00:00	2024-11-08T05:00:00	8	Radiación solar	0
76133	7	Sololá	710	Panajachel	8	Panajachel	12	Diciembre	2023-05-12T00:00:00	2024-11-08T06:00:00	2	Temperatura media	19.1
76134	7	Sololá	710	Panajachel	8	Panajachel	12	Diciembre	2023-05-12T00:00:00	2024-11-08T06:00:00	4	Temperatura máxima	19.3
76135	7	Sololá	710	Panajachel	8	Panajachel	12	Diciembre	2023-05-12T00:00:00	2024-11-08T06:00:00	3	Temperatura mínima	18.6
76136	7	Sololá	710	Panajachel	8	Panajachel	12	Diciembre	2023-05-12T00:00:00	2024-11-08T06:00:00	5	Humedad	80
76137	7	Sololá	710	Panajachel	8	Panajachel	12	Diciembre	2023-05-12T00:00:00	2024-11-08T06:00:00	6	Velocidad del viento	0
76138	7	Sololá	710	Panajachel	8	Panajachel	12	Diciembre	2023-05-12T00:00:00	2024-11-08T06:00:00	7	Dirección del viento	0
76139	7	Sololá	710	Panajachel	8	Panajachel	12	Diciembre	2023-05-12T00:00:00	2024-11-08T06:00:00	1	Precipitación	0
76140	7	Sololá	710	Panajachel	8	Panajachel	12	Diciembre	2023-05-12T00:00:00	2024-11-08T06:00:00	8	Radiación solar	0
76141	7	Sololá	710	Panajachel	8	Panajachel	12	Diciembre	2023-05-12T00:00:00	2024-11-08T07:00:00	2	Temperatura media	20.2
76142	7	Sololá	710	Panajachel	8	Panajachel	12	Diciembre	2023-05-12T00:00:00	2024-11-08T07:00:00	4	Temperatura máxima	20.3
76143	7	Sololá	710	Panajachel	8	Panajachel	12	Diciembre	2023-05-12T00:00:00	2024-11-08T07:00:00	3	Temperatura mínima	19
76144	7	Sololá	710	Panajachel	8	Panajachel	12	Diciembre	2023-05-12T00:00:00	2024-11-08T07:00:00	5	Humedad	77
76145	7	Sololá	710	Panajachel	8	Panajachel	12	Diciembre	2023-05-12T00:00:00	2024-11-08T07:00:00	6	Velocidad del viento	3.2
76146	7	Sololá	710	Panajachel	8	Panajachel	12	Diciembre	2023-05-12T00:00:00	2024-11-08T07:00:00	7	Dirección del viento	3.22
76147	7	Sololá	710	Panajachel	8	Panajachel	12	Diciembre	2023-05-12T00:00:00	2024-11-08T07:00:00	1	Precipitación	0
76148	7	Sololá	710	Panajachel	8	Panajachel	12	Diciembre	2023-05-12T00:00:00	2024-11-08T07:00:00	8	Radiación solar	10
76149	7	Sololá	710	Panajachel	8	Panajachel	12	Diciembre	2023-05-12T00:00:00	2024-11-08T08:00:00	2	Temperatura media	22.1
76150	7	Sololá	710	Panajachel	8	Panajachel	12	Diciembre	2023-05-12T00:00:00	2024-11-08T08:00:00	4	Temperatura máxima	22.2
76151	7	Sololá	710	Panajachel	8	Panajachel	12	Diciembre	2023-05-12T00:00:00	2024-11-08T08:00:00	3	Temperatura mínima	20.1
76152	7	Sololá	710	Panajachel	8	Panajachel	12	Diciembre	2023-05-12T00:00:00	2024-11-08T08:00:00	5	Humedad	71
76153	7	Sololá	710	Panajachel	8	Panajachel	12	Diciembre	2023-05-12T00:00:00	2024-11-08T08:00:00	6	Velocidad del viento	3.2
76154	7	Sololá	710	Panajachel	8	Panajachel	12	Diciembre	2023-05-12T00:00:00	2024-11-08T08:00:00	7	Dirección del viento	3.22
76155	7	Sololá	710	Panajachel	8	Panajachel	12	Diciembre	2023-05-12T00:00:00	2024-11-08T08:00:00	1	Precipitación	0
76156	7	Sololá	710	Panajachel	8	Panajachel	12	Diciembre	2023-05-12T00:00:00	2024-11-08T08:00:00	8	Radiación solar	199
76157	7	Sololá	710	Panajachel	8	Panajachel	12	Diciembre	2023-05-12T00:00:00	2024-11-08T09:00:00	2	Temperatura media	23.3
76158	7	Sololá	710	Panajachel	8	Panajachel	12	Diciembre	2023-05-12T00:00:00	2024-11-08T09:00:00	4	Temperatura máxima	23.3
76159	7	Sololá	710	Panajachel	8	Panajachel	12	Diciembre	2023-05-12T00:00:00	2024-11-08T09:00:00	3	Temperatura mínima	22.1
76160	7	Sololá	710	Panajachel	8	Panajachel	12	Diciembre	2023-05-12T00:00:00	2024-11-08T09:00:00	5	Humedad	69
76161	7	Sololá	710	Panajachel	8	Panajachel	12	Diciembre	2023-05-12T00:00:00	2024-11-08T09:00:00	6	Velocidad del viento	4.8
76162	7	Sololá	710	Panajachel	8	Panajachel	12	Diciembre	2023-05-12T00:00:00	2024-11-08T09:00:00	7	Dirección del viento	4.83
76163	7	Sololá	710	Panajachel	8	Panajachel	12	Diciembre	2023-05-12T00:00:00	2024-11-08T09:00:00	1	Precipitación	0
76164	7	Sololá	710	Panajachel	8	Panajachel	12	Diciembre	2023-05-12T00:00:00	2024-11-08T09:00:00	8	Radiación solar	406
76165	7	Sololá	710	Panajachel	8	Panajachel	12	Diciembre	2023-05-12T00:00:00	2024-11-08T10:00:00	2	Temperatura media	23.8
76166	7	Sololá	710	Panajachel	8	Panajachel	12	Diciembre	2023-05-12T00:00:00	2024-11-08T10:00:00	4	Temperatura máxima	24.3
76167	7	Sololá	710	Panajachel	8	Panajachel	12	Diciembre	2023-05-12T00:00:00	2024-11-08T10:00:00	3	Temperatura mínima	23.3
76168	7	Sololá	710	Panajachel	8	Panajachel	12	Diciembre	2023-05-12T00:00:00	2024-11-08T10:00:00	5	Humedad	67
76169	7	Sololá	710	Panajachel	8	Panajachel	12	Diciembre	2023-05-12T00:00:00	2024-11-08T10:00:00	6	Velocidad del viento	6.4
76170	7	Sololá	710	Panajachel	8	Panajachel	12	Diciembre	2023-05-12T00:00:00	2024-11-08T10:00:00	7	Dirección del viento	6.44
76171	7	Sololá	710	Panajachel	8	Panajachel	12	Diciembre	2023-05-12T00:00:00	2024-11-08T10:00:00	1	Precipitación	0
76172	7	Sololá	710	Panajachel	8	Panajachel	12	Diciembre	2023-05-12T00:00:00	2024-11-08T10:00:00	8	Radiación solar	590
76173	7	Sololá	710	Panajachel	8	Panajachel	12	Diciembre	2023-05-12T00:00:00	2024-11-08T11:00:00	2	Temperatura media	24.6
76174	7	Sololá	710	Panajachel	8	Panajachel	12	Diciembre	2023-05-12T00:00:00	2024-11-08T11:00:00	4	Temperatura máxima	24.9
76175	7	Sololá	710	Panajachel	8	Panajachel	12	Diciembre	2023-05-12T00:00:00	2024-11-08T11:00:00	3	Temperatura mínima	23.7
76176	7	Sololá	710	Panajachel	8	Panajachel	12	Diciembre	2023-05-12T00:00:00	2024-11-08T11:00:00	5	Humedad	65
76177	7	Sololá	710	Panajachel	8	Panajachel	12	Diciembre	2023-05-12T00:00:00	2024-11-08T11:00:00	6	Velocidad del viento	4.8
76178	7	Sololá	710	Panajachel	8	Panajachel	12	Diciembre	2023-05-12T00:00:00	2024-11-08T11:00:00	7	Dirección del viento	4.83
76179	7	Sololá	710	Panajachel	8	Panajachel	12	Diciembre	2023-05-12T00:00:00	2024-11-08T11:00:00	1	Precipitación	0
76180	7	Sololá	710	Panajachel	8	Panajachel	12	Diciembre	2023-05-12T00:00:00	2024-11-08T11:00:00	8	Radiación solar	776
76181	7	Sololá	710	Panajachel	8	Panajachel	12	Diciembre	2023-05-12T00:00:00	2024-11-08T12:00:00	2	Temperatura media	25.2
76182	7	Sololá	710	Panajachel	8	Panajachel	12	Diciembre	2023-05-12T00:00:00	2024-11-08T12:00:00	4	Temperatura máxima	25.3
76183	7	Sololá	710	Panajachel	8	Panajachel	12	Diciembre	2023-05-12T00:00:00	2024-11-08T12:00:00	3	Temperatura mínima	24.3
76184	7	Sololá	710	Panajachel	8	Panajachel	12	Diciembre	2023-05-12T00:00:00	2024-11-08T12:00:00	5	Humedad	61
76185	7	Sololá	710	Panajachel	8	Panajachel	12	Diciembre	2023-05-12T00:00:00	2024-11-08T12:00:00	6	Velocidad del viento	6.4
76186	7	Sololá	710	Panajachel	8	Panajachel	12	Diciembre	2023-05-12T00:00:00	2024-11-08T12:00:00	7	Dirección del viento	6.44
76187	7	Sololá	710	Panajachel	8	Panajachel	12	Diciembre	2023-05-12T00:00:00	2024-11-08T12:00:00	1	Precipitación	0
76188	7	Sololá	710	Panajachel	8	Panajachel	12	Diciembre	2023-05-12T00:00:00	2024-11-08T12:00:00	8	Radiación solar	536
76189	7	Sololá	710	Panajachel	8	Panajachel	12	Diciembre	2023-05-12T00:00:00	2024-11-08T13:00:00	2	Temperatura media	25.9
76190	7	Sololá	710	Panajachel	8	Panajachel	12	Diciembre	2023-05-12T00:00:00	2024-11-08T13:00:00	4	Temperatura máxima	26.2
76191	7	Sololá	710	Panajachel	8	Panajachel	12	Diciembre	2023-05-12T00:00:00	2024-11-08T13:00:00	3	Temperatura mínima	25.1
76192	7	Sololá	710	Panajachel	8	Panajachel	12	Diciembre	2023-05-12T00:00:00	2024-11-08T13:00:00	5	Humedad	51
76193	7	Sololá	710	Panajachel	8	Panajachel	12	Diciembre	2023-05-12T00:00:00	2024-11-08T13:00:00	6	Velocidad del viento	8
76194	7	Sololá	710	Panajachel	8	Panajachel	12	Diciembre	2023-05-12T00:00:00	2024-11-08T13:00:00	7	Dirección del viento	8.05
76195	7	Sololá	710	Panajachel	8	Panajachel	12	Diciembre	2023-05-12T00:00:00	2024-11-08T13:00:00	1	Precipitación	0
76196	7	Sololá	710	Panajachel	8	Panajachel	12	Diciembre	2023-05-12T00:00:00	2024-11-08T13:00:00	8	Radiación solar	757
76197	7	Sololá	710	Panajachel	8	Panajachel	12	Diciembre	2023-05-12T00:00:00	2024-11-08T14:00:00	2	Temperatura media	26.1
76198	7	Sololá	710	Panajachel	8	Panajachel	12	Diciembre	2023-05-12T00:00:00	2024-11-08T14:00:00	4	Temperatura máxima	26.2
76199	7	Sololá	710	Panajachel	8	Panajachel	12	Diciembre	2023-05-12T00:00:00	2024-11-08T14:00:00	3	Temperatura mínima	25.6
76200	7	Sololá	710	Panajachel	8	Panajachel	12	Diciembre	2023-05-12T00:00:00	2024-11-08T14:00:00	5	Humedad	50
76201	7	Sololá	710	Panajachel	8	Panajachel	12	Diciembre	2023-05-12T00:00:00	2024-11-08T14:00:00	6	Velocidad del viento	9.7
76202	7	Sololá	710	Panajachel	8	Panajachel	12	Diciembre	2023-05-12T00:00:00	2024-11-08T14:00:00	7	Dirección del viento	9.66
76203	7	Sololá	710	Panajachel	8	Panajachel	12	Diciembre	2023-05-12T00:00:00	2024-11-08T14:00:00	1	Precipitación	0
76204	7	Sololá	710	Panajachel	8	Panajachel	12	Diciembre	2023-05-12T00:00:00	2024-11-08T14:00:00	8	Radiación solar	706
76205	7	Sololá	710	Panajachel	8	Panajachel	12	Diciembre	2023-05-12T00:00:00	2024-11-08T15:00:00	2	Temperatura media	26.1
76206	7	Sololá	710	Panajachel	8	Panajachel	12	Diciembre	2023-05-12T00:00:00	2024-11-08T15:00:00	4	Temperatura máxima	26.3
76207	7	Sololá	710	Panajachel	8	Panajachel	12	Diciembre	2023-05-12T00:00:00	2024-11-08T15:00:00	3	Temperatura mínima	25.9
76208	7	Sololá	710	Panajachel	8	Panajachel	12	Diciembre	2023-05-12T00:00:00	2024-11-08T15:00:00	5	Humedad	52
76209	7	Sololá	710	Panajachel	8	Panajachel	12	Diciembre	2023-05-12T00:00:00	2024-11-08T15:00:00	6	Velocidad del viento	6.4
76210	7	Sololá	710	Panajachel	8	Panajachel	12	Diciembre	2023-05-12T00:00:00	2024-11-08T15:00:00	7	Dirección del viento	6.44
76211	7	Sololá	710	Panajachel	8	Panajachel	12	Diciembre	2023-05-12T00:00:00	2024-11-08T15:00:00	1	Precipitación	0
76212	7	Sololá	710	Panajachel	8	Panajachel	12	Diciembre	2023-05-12T00:00:00	2024-11-08T15:00:00	8	Radiación solar	570
76213	7	Sololá	710	Panajachel	8	Panajachel	12	Diciembre	2023-05-12T00:00:00	2024-11-08T16:00:00	2	Temperatura media	25.2
76214	7	Sololá	710	Panajachel	8	Panajachel	12	Diciembre	2023-05-12T00:00:00	2024-11-08T16:00:00	4	Temperatura máxima	26.2
76215	7	Sololá	710	Panajachel	8	Panajachel	12	Diciembre	2023-05-12T00:00:00	2024-11-08T16:00:00	3	Temperatura mínima	25.2
76216	7	Sololá	710	Panajachel	8	Panajachel	12	Diciembre	2023-05-12T00:00:00	2024-11-08T16:00:00	5	Humedad	53
76217	7	Sololá	710	Panajachel	8	Panajachel	12	Diciembre	2023-05-12T00:00:00	2024-11-08T16:00:00	6	Velocidad del viento	6.4
76218	7	Sololá	710	Panajachel	8	Panajachel	12	Diciembre	2023-05-12T00:00:00	2024-11-08T16:00:00	7	Dirección del viento	6.44
76219	7	Sololá	710	Panajachel	8	Panajachel	12	Diciembre	2023-05-12T00:00:00	2024-11-08T16:00:00	1	Precipitación	0
76220	7	Sololá	710	Panajachel	8	Panajachel	12	Diciembre	2023-05-12T00:00:00	2024-11-08T16:00:00	8	Radiación solar	377
76221	7	Sololá	710	Panajachel	8	Panajachel	12	Diciembre	2023-05-12T00:00:00	2024-11-08T17:00:00	2	Temperatura media	23.8
76222	7	Sololá	710	Panajachel	8	Panajachel	12	Diciembre	2023-05-12T00:00:00	2024-11-08T17:00:00	4	Temperatura máxima	25.2
76223	7	Sololá	710	Panajachel	8	Panajachel	12	Diciembre	2023-05-12T00:00:00	2024-11-08T17:00:00	3	Temperatura mínima	23.8
76224	7	Sololá	710	Panajachel	8	Panajachel	12	Diciembre	2023-05-12T00:00:00	2024-11-08T17:00:00	5	Humedad	57
76225	7	Sololá	710	Panajachel	8	Panajachel	12	Diciembre	2023-05-12T00:00:00	2024-11-08T17:00:00	6	Velocidad del viento	8
76226	7	Sololá	710	Panajachel	8	Panajachel	12	Diciembre	2023-05-12T00:00:00	2024-11-08T17:00:00	7	Dirección del viento	8.05
76227	7	Sololá	710	Panajachel	8	Panajachel	12	Diciembre	2023-05-12T00:00:00	2024-11-08T17:00:00	1	Precipitación	0
76228	7	Sololá	710	Panajachel	8	Panajachel	12	Diciembre	2023-05-12T00:00:00	2024-11-08T17:00:00	8	Radiación solar	167
76229	7	Sololá	710	Panajachel	8	Panajachel	12	Diciembre	2023-05-12T00:00:00	2024-11-08T18:00:00	2	Temperatura media	21.9
76230	7	Sololá	710	Panajachel	8	Panajachel	12	Diciembre	2023-05-12T00:00:00	2024-11-08T18:00:00	4	Temperatura máxima	23.8
76231	7	Sololá	710	Panajachel	8	Panajachel	12	Diciembre	2023-05-12T00:00:00	2024-11-08T18:00:00	3	Temperatura mínima	21.9
76232	7	Sololá	710	Panajachel	8	Panajachel	12	Diciembre	2023-05-12T00:00:00	2024-11-08T18:00:00	5	Humedad	64
76233	7	Sololá	710	Panajachel	8	Panajachel	12	Diciembre	2023-05-12T00:00:00	2024-11-08T18:00:00	6	Velocidad del viento	8
76234	7	Sololá	710	Panajachel	8	Panajachel	12	Diciembre	2023-05-12T00:00:00	2024-11-08T18:00:00	7	Dirección del viento	8.05
76235	7	Sololá	710	Panajachel	8	Panajachel	12	Diciembre	2023-05-12T00:00:00	2024-11-08T18:00:00	1	Precipitación	0
76236	7	Sololá	710	Panajachel	8	Panajachel	12	Diciembre	2023-05-12T00:00:00	2024-11-08T18:00:00	8	Radiación solar	11
76237	7	Sololá	710	Panajachel	8	Panajachel	12	Diciembre	2023-05-12T00:00:00	2024-11-08T19:00:00	2	Temperatura media	20.8
76238	7	Sololá	710	Panajachel	8	Panajachel	12	Diciembre	2023-05-12T00:00:00	2024-11-08T19:00:00	4	Temperatura máxima	21.9
76239	7	Sololá	710	Panajachel	8	Panajachel	12	Diciembre	2023-05-12T00:00:00	2024-11-08T19:00:00	3	Temperatura mínima	20.8
76240	7	Sololá	710	Panajachel	8	Panajachel	12	Diciembre	2023-05-12T00:00:00	2024-11-08T19:00:00	5	Humedad	68
76241	7	Sololá	710	Panajachel	8	Panajachel	12	Diciembre	2023-05-12T00:00:00	2024-11-08T19:00:00	6	Velocidad del viento	3.2
76242	7	Sololá	710	Panajachel	8	Panajachel	12	Diciembre	2023-05-12T00:00:00	2024-11-08T19:00:00	7	Dirección del viento	3.22
76243	7	Sololá	710	Panajachel	8	Panajachel	12	Diciembre	2023-05-12T00:00:00	2024-11-08T19:00:00	1	Precipitación	0
76244	7	Sololá	710	Panajachel	8	Panajachel	12	Diciembre	2023-05-12T00:00:00	2024-11-08T19:00:00	8	Radiación solar	0
76245	7	Sololá	710	Panajachel	8	Panajachel	12	Diciembre	2023-05-12T00:00:00	2024-11-08T20:00:00	2	Temperatura media	20.1
76246	7	Sololá	710	Panajachel	8	Panajachel	12	Diciembre	2023-05-12T00:00:00	2024-11-08T20:00:00	4	Temperatura máxima	20.9
76247	7	Sololá	710	Panajachel	8	Panajachel	12	Diciembre	2023-05-12T00:00:00	2024-11-08T20:00:00	3	Temperatura mínima	20.1
76248	7	Sololá	710	Panajachel	8	Panajachel	12	Diciembre	2023-05-12T00:00:00	2024-11-08T20:00:00	5	Humedad	70
76249	7	Sololá	710	Panajachel	8	Panajachel	12	Diciembre	2023-05-12T00:00:00	2024-11-08T20:00:00	6	Velocidad del viento	4.8
76250	7	Sololá	710	Panajachel	8	Panajachel	12	Diciembre	2023-05-12T00:00:00	2024-11-08T20:00:00	7	Dirección del viento	4.83
76251	7	Sololá	710	Panajachel	8	Panajachel	12	Diciembre	2023-05-12T00:00:00	2024-11-08T20:00:00	1	Precipitación	0
76252	7	Sololá	710	Panajachel	8	Panajachel	12	Diciembre	2023-05-12T00:00:00	2024-11-08T20:00:00	8	Radiación solar	0
76253	7	Sololá	710	Panajachel	8	Panajachel	12	Diciembre	2023-05-12T00:00:00	2024-11-08T21:00:00	2	Temperatura media	19.9
76254	7	Sololá	710	Panajachel	8	Panajachel	12	Diciembre	2023-05-12T00:00:00	2024-11-08T21:00:00	4	Temperatura máxima	20.3
76255	7	Sololá	710	Panajachel	8	Panajachel	12	Diciembre	2023-05-12T00:00:00	2024-11-08T21:00:00	3	Temperatura mínima	19.9
76256	7	Sololá	710	Panajachel	8	Panajachel	12	Diciembre	2023-05-12T00:00:00	2024-11-08T21:00:00	5	Humedad	73
76257	7	Sololá	710	Panajachel	8	Panajachel	12	Diciembre	2023-05-12T00:00:00	2024-11-08T21:00:00	6	Velocidad del viento	4.8
76258	7	Sololá	710	Panajachel	8	Panajachel	12	Diciembre	2023-05-12T00:00:00	2024-11-08T21:00:00	7	Dirección del viento	4.83
76259	7	Sololá	710	Panajachel	8	Panajachel	12	Diciembre	2023-05-12T00:00:00	2024-11-08T21:00:00	1	Precipitación	0
76260	7	Sololá	710	Panajachel	8	Panajachel	12	Diciembre	2023-05-12T00:00:00	2024-11-08T21:00:00	8	Radiación solar	0
76261	7	Sololá	710	Panajachel	8	Panajachel	12	Diciembre	2023-05-12T00:00:00	2024-11-08T22:00:00	2	Temperatura media	20
76262	7	Sololá	710	Panajachel	8	Panajachel	12	Diciembre	2023-05-12T00:00:00	2024-11-08T22:00:00	4	Temperatura máxima	20.1
76263	7	Sololá	710	Panajachel	8	Panajachel	12	Diciembre	2023-05-12T00:00:00	2024-11-08T22:00:00	3	Temperatura mínima	19.6
76264	7	Sololá	710	Panajachel	8	Panajachel	12	Diciembre	2023-05-12T00:00:00	2024-11-08T22:00:00	5	Humedad	70
76265	7	Sololá	710	Panajachel	8	Panajachel	12	Diciembre	2023-05-12T00:00:00	2024-11-08T22:00:00	6	Velocidad del viento	3.2
76266	7	Sololá	710	Panajachel	8	Panajachel	12	Diciembre	2023-05-12T00:00:00	2024-11-08T22:00:00	7	Dirección del viento	3.22
76267	7	Sololá	710	Panajachel	8	Panajachel	12	Diciembre	2023-05-12T00:00:00	2024-11-08T22:00:00	1	Precipitación	0
76268	7	Sololá	710	Panajachel	8	Panajachel	12	Diciembre	2023-05-12T00:00:00	2024-11-08T22:00:00	8	Radiación solar	0
76269	7	Sololá	710	Panajachel	8	Panajachel	12	Diciembre	2023-05-12T00:00:00	2024-11-08T23:00:00	2	Temperatura media	20.1
76270	7	Sololá	710	Panajachel	8	Panajachel	12	Diciembre	2023-05-12T00:00:00	2024-11-08T23:00:00	4	Temperatura máxima	20.3
76271	7	Sololá	710	Panajachel	8	Panajachel	12	Diciembre	2023-05-12T00:00:00	2024-11-08T23:00:00	3	Temperatura mínima	20
76272	7	Sololá	710	Panajachel	8	Panajachel	12	Diciembre	2023-05-12T00:00:00	2024-11-08T23:00:00	5	Humedad	68
76273	7	Sololá	710	Panajachel	8	Panajachel	12	Diciembre	2023-05-12T00:00:00	2024-11-08T23:00:00	6	Velocidad del viento	9.7
76274	7	Sololá	710	Panajachel	8	Panajachel	12	Diciembre	2023-05-12T00:00:00	2024-11-08T23:00:00	7	Dirección del viento	9.66
76275	7	Sololá	710	Panajachel	8	Panajachel	12	Diciembre	2023-05-12T00:00:00	2024-11-08T23:00:00	1	Precipitación	0
76276	7	Sololá	710	Panajachel	8	Panajachel	12	Diciembre	2023-05-12T00:00:00	2024-11-08T23:00:00	8	Radiación solar	0
76277	7	Sololá	710	Panajachel	8	Panajachel	12	Diciembre	2023-06-12T00:00:00	2024-11-08T00:00:00	2	Temperatura media	20.1
76278	7	Sololá	710	Panajachel	8	Panajachel	12	Diciembre	2023-06-12T00:00:00	2024-11-08T00:00:00	4	Temperatura máxima	20.3
76279	7	Sololá	710	Panajachel	8	Panajachel	12	Diciembre	2023-06-12T00:00:00	2024-11-08T00:00:00	3	Temperatura mínima	20.1
76280	7	Sololá	710	Panajachel	8	Panajachel	12	Diciembre	2023-06-12T00:00:00	2024-11-08T00:00:00	5	Humedad	67
76281	7	Sololá	710	Panajachel	8	Panajachel	12	Diciembre	2023-06-12T00:00:00	2024-11-08T00:00:00	6	Velocidad del viento	9.7
76282	7	Sololá	710	Panajachel	8	Panajachel	12	Diciembre	2023-06-12T00:00:00	2024-11-08T00:00:00	7	Dirección del viento	9.66
76283	7	Sololá	710	Panajachel	8	Panajachel	12	Diciembre	2023-06-12T00:00:00	2024-11-08T00:00:00	1	Precipitación	0
76284	7	Sololá	710	Panajachel	8	Panajachel	12	Diciembre	2023-06-12T00:00:00	2024-11-08T00:00:00	8	Radiación solar	0
76285	7	Sololá	710	Panajachel	8	Panajachel	12	Diciembre	2023-06-12T00:00:00	2024-11-08T01:00:00	2	Temperatura media	19.7
76286	7	Sololá	710	Panajachel	8	Panajachel	12	Diciembre	2023-06-12T00:00:00	2024-11-08T01:00:00	4	Temperatura máxima	20.1
76287	7	Sololá	710	Panajachel	8	Panajachel	12	Diciembre	2023-06-12T00:00:00	2024-11-08T01:00:00	3	Temperatura mínima	19.6
76288	7	Sololá	710	Panajachel	8	Panajachel	12	Diciembre	2023-06-12T00:00:00	2024-11-08T01:00:00	5	Humedad	69
76289	7	Sololá	710	Panajachel	8	Panajachel	12	Diciembre	2023-06-12T00:00:00	2024-11-08T01:00:00	6	Velocidad del viento	4.8
76290	7	Sololá	710	Panajachel	8	Panajachel	12	Diciembre	2023-06-12T00:00:00	2024-11-08T01:00:00	7	Dirección del viento	4.83
76291	7	Sololá	710	Panajachel	8	Panajachel	12	Diciembre	2023-06-12T00:00:00	2024-11-08T01:00:00	1	Precipitación	0
76292	7	Sololá	710	Panajachel	8	Panajachel	12	Diciembre	2023-06-12T00:00:00	2024-11-08T01:00:00	8	Radiación solar	0
76293	7	Sololá	710	Panajachel	8	Panajachel	12	Diciembre	2023-06-12T00:00:00	2024-11-08T02:00:00	2	Temperatura media	19.6
76294	7	Sololá	710	Panajachel	8	Panajachel	12	Diciembre	2023-06-12T00:00:00	2024-11-08T02:00:00	4	Temperatura máxima	19.9
76295	7	Sololá	710	Panajachel	8	Panajachel	12	Diciembre	2023-06-12T00:00:00	2024-11-08T02:00:00	3	Temperatura mínima	19.6
76296	7	Sololá	710	Panajachel	8	Panajachel	12	Diciembre	2023-06-12T00:00:00	2024-11-08T02:00:00	5	Humedad	72
76297	7	Sololá	710	Panajachel	8	Panajachel	12	Diciembre	2023-06-12T00:00:00	2024-11-08T02:00:00	6	Velocidad del viento	9.7
76298	7	Sololá	710	Panajachel	8	Panajachel	12	Diciembre	2023-06-12T00:00:00	2024-11-08T02:00:00	7	Dirección del viento	9.66
76299	7	Sololá	710	Panajachel	8	Panajachel	12	Diciembre	2023-06-12T00:00:00	2024-11-08T02:00:00	1	Precipitación	0
76300	7	Sololá	710	Panajachel	8	Panajachel	12	Diciembre	2023-06-12T00:00:00	2024-11-08T02:00:00	8	Radiación solar	0
76301	7	Sololá	710	Panajachel	8	Panajachel	12	Diciembre	2023-06-12T00:00:00	2024-11-08T03:00:00	2	Temperatura media	19.3
76302	7	Sololá	710	Panajachel	8	Panajachel	12	Diciembre	2023-06-12T00:00:00	2024-11-08T03:00:00	4	Temperatura máxima	19.6
76303	7	Sololá	710	Panajachel	8	Panajachel	12	Diciembre	2023-06-12T00:00:00	2024-11-08T03:00:00	3	Temperatura mínima	19.2
76304	7	Sololá	710	Panajachel	8	Panajachel	12	Diciembre	2023-06-12T00:00:00	2024-11-08T03:00:00	5	Humedad	74
76305	7	Sololá	710	Panajachel	8	Panajachel	12	Diciembre	2023-06-12T00:00:00	2024-11-08T03:00:00	6	Velocidad del viento	9.7
76306	7	Sololá	710	Panajachel	8	Panajachel	12	Diciembre	2023-06-12T00:00:00	2024-11-08T03:00:00	7	Dirección del viento	9.66
76307	7	Sololá	710	Panajachel	8	Panajachel	12	Diciembre	2023-06-12T00:00:00	2024-11-08T03:00:00	1	Precipitación	0
76308	7	Sololá	710	Panajachel	8	Panajachel	12	Diciembre	2023-06-12T00:00:00	2024-11-08T03:00:00	8	Radiación solar	0
76309	7	Sololá	710	Panajachel	8	Panajachel	12	Diciembre	2023-06-12T00:00:00	2024-11-08T04:00:00	2	Temperatura media	18.8
76310	7	Sololá	710	Panajachel	8	Panajachel	12	Diciembre	2023-06-12T00:00:00	2024-11-08T04:00:00	4	Temperatura máxima	19.3
76311	7	Sololá	710	Panajachel	8	Panajachel	12	Diciembre	2023-06-12T00:00:00	2024-11-08T04:00:00	3	Temperatura mínima	18.8
76312	7	Sololá	710	Panajachel	8	Panajachel	12	Diciembre	2023-06-12T00:00:00	2024-11-08T04:00:00	5	Humedad	77
76313	7	Sololá	710	Panajachel	8	Panajachel	12	Diciembre	2023-06-12T00:00:00	2024-11-08T04:00:00	6	Velocidad del viento	8
76314	7	Sololá	710	Panajachel	8	Panajachel	12	Diciembre	2023-06-12T00:00:00	2024-11-08T04:00:00	7	Dirección del viento	8.05
76315	7	Sololá	710	Panajachel	8	Panajachel	12	Diciembre	2023-06-12T00:00:00	2024-11-08T04:00:00	1	Precipitación	0
76316	7	Sololá	710	Panajachel	8	Panajachel	12	Diciembre	2023-06-12T00:00:00	2024-11-08T04:00:00	8	Radiación solar	0
76317	7	Sololá	710	Panajachel	8	Panajachel	12	Diciembre	2023-06-12T00:00:00	2024-11-08T05:00:00	2	Temperatura media	18.7
76318	7	Sololá	710	Panajachel	8	Panajachel	12	Diciembre	2023-06-12T00:00:00	2024-11-08T05:00:00	4	Temperatura máxima	18.9
76319	7	Sololá	710	Panajachel	8	Panajachel	12	Diciembre	2023-06-12T00:00:00	2024-11-08T05:00:00	3	Temperatura mínima	18.6
76320	7	Sololá	710	Panajachel	8	Panajachel	12	Diciembre	2023-06-12T00:00:00	2024-11-08T05:00:00	5	Humedad	77
76321	7	Sololá	710	Panajachel	8	Panajachel	12	Diciembre	2023-06-12T00:00:00	2024-11-08T05:00:00	6	Velocidad del viento	8
76322	7	Sololá	710	Panajachel	8	Panajachel	12	Diciembre	2023-06-12T00:00:00	2024-11-08T05:00:00	7	Dirección del viento	8.05
76323	7	Sololá	710	Panajachel	8	Panajachel	12	Diciembre	2023-06-12T00:00:00	2024-11-08T05:00:00	1	Precipitación	0
76324	7	Sololá	710	Panajachel	8	Panajachel	12	Diciembre	2023-06-12T00:00:00	2024-11-08T05:00:00	8	Radiación solar	0
76325	7	Sololá	710	Panajachel	8	Panajachel	12	Diciembre	2023-06-12T00:00:00	2024-11-08T06:00:00	2	Temperatura media	19.2
76326	7	Sololá	710	Panajachel	8	Panajachel	12	Diciembre	2023-06-12T00:00:00	2024-11-08T06:00:00	4	Temperatura máxima	19.3
76327	7	Sololá	710	Panajachel	8	Panajachel	12	Diciembre	2023-06-12T00:00:00	2024-11-08T06:00:00	3	Temperatura mínima	18.7
76328	7	Sololá	710	Panajachel	8	Panajachel	12	Diciembre	2023-06-12T00:00:00	2024-11-08T06:00:00	5	Humedad	75
76329	7	Sololá	710	Panajachel	8	Panajachel	12	Diciembre	2023-06-12T00:00:00	2024-11-08T06:00:00	6	Velocidad del viento	6.4
76330	7	Sololá	710	Panajachel	8	Panajachel	12	Diciembre	2023-06-12T00:00:00	2024-11-08T06:00:00	7	Dirección del viento	6.44
76331	7	Sololá	710	Panajachel	8	Panajachel	12	Diciembre	2023-06-12T00:00:00	2024-11-08T06:00:00	1	Precipitación	0
76332	7	Sololá	710	Panajachel	8	Panajachel	12	Diciembre	2023-06-12T00:00:00	2024-11-08T06:00:00	8	Radiación solar	0
76333	7	Sololá	710	Panajachel	8	Panajachel	12	Diciembre	2023-06-12T00:00:00	2024-11-08T07:00:00	2	Temperatura media	19.2
76334	7	Sololá	710	Panajachel	8	Panajachel	12	Diciembre	2023-06-12T00:00:00	2024-11-08T07:00:00	4	Temperatura máxima	19.5
76335	7	Sololá	710	Panajachel	8	Panajachel	12	Diciembre	2023-06-12T00:00:00	2024-11-08T07:00:00	3	Temperatura mínima	19.1
76336	7	Sololá	710	Panajachel	8	Panajachel	12	Diciembre	2023-06-12T00:00:00	2024-11-08T07:00:00	5	Humedad	75
76337	7	Sololá	710	Panajachel	8	Panajachel	12	Diciembre	2023-06-12T00:00:00	2024-11-08T07:00:00	6	Velocidad del viento	8
76338	7	Sololá	710	Panajachel	8	Panajachel	12	Diciembre	2023-06-12T00:00:00	2024-11-08T07:00:00	7	Dirección del viento	8.05
76339	7	Sololá	710	Panajachel	8	Panajachel	12	Diciembre	2023-06-12T00:00:00	2024-11-08T07:00:00	1	Precipitación	0
76340	7	Sololá	710	Panajachel	8	Panajachel	12	Diciembre	2023-06-12T00:00:00	2024-11-08T07:00:00	8	Radiación solar	16
76341	7	Sololá	710	Panajachel	8	Panajachel	12	Diciembre	2023-06-12T00:00:00	2024-11-08T08:00:00	2	Temperatura media	20.6
76342	7	Sololá	710	Panajachel	8	Panajachel	12	Diciembre	2023-06-12T00:00:00	2024-11-08T08:00:00	4	Temperatura máxima	20.8
76343	7	Sololá	710	Panajachel	8	Panajachel	12	Diciembre	2023-06-12T00:00:00	2024-11-08T08:00:00	3	Temperatura mínima	19.2
76344	7	Sololá	710	Panajachel	8	Panajachel	12	Diciembre	2023-06-12T00:00:00	2024-11-08T08:00:00	5	Humedad	71
76345	7	Sololá	710	Panajachel	8	Panajachel	12	Diciembre	2023-06-12T00:00:00	2024-11-08T08:00:00	6	Velocidad del viento	4.8
76346	7	Sololá	710	Panajachel	8	Panajachel	12	Diciembre	2023-06-12T00:00:00	2024-11-08T08:00:00	7	Dirección del viento	4.83
76347	7	Sololá	710	Panajachel	8	Panajachel	12	Diciembre	2023-06-12T00:00:00	2024-11-08T08:00:00	1	Precipitación	0
76348	7	Sololá	710	Panajachel	8	Panajachel	12	Diciembre	2023-06-12T00:00:00	2024-11-08T08:00:00	8	Radiación solar	190
76349	7	Sololá	710	Panajachel	8	Panajachel	12	Diciembre	2023-06-12T00:00:00	2024-11-08T09:00:00	2	Temperatura media	21.3
76350	7	Sololá	710	Panajachel	8	Panajachel	12	Diciembre	2023-06-12T00:00:00	2024-11-08T09:00:00	4	Temperatura máxima	21.4
76351	7	Sololá	710	Panajachel	8	Panajachel	12	Diciembre	2023-06-12T00:00:00	2024-11-08T09:00:00	3	Temperatura mínima	20.5
76352	7	Sololá	710	Panajachel	8	Panajachel	12	Diciembre	2023-06-12T00:00:00	2024-11-08T09:00:00	5	Humedad	69
76353	7	Sololá	710	Panajachel	8	Panajachel	12	Diciembre	2023-06-12T00:00:00	2024-11-08T09:00:00	6	Velocidad del viento	4.8
76354	7	Sololá	710	Panajachel	8	Panajachel	12	Diciembre	2023-06-12T00:00:00	2024-11-08T09:00:00	7	Dirección del viento	4.83
76355	7	Sololá	710	Panajachel	8	Panajachel	12	Diciembre	2023-06-12T00:00:00	2024-11-08T09:00:00	1	Precipitación	0
76356	7	Sololá	710	Panajachel	8	Panajachel	12	Diciembre	2023-06-12T00:00:00	2024-11-08T09:00:00	8	Radiación solar	405
76357	7	Sololá	710	Panajachel	8	Panajachel	12	Diciembre	2023-06-12T00:00:00	2024-11-08T10:00:00	2	Temperatura media	21.6
76358	7	Sololá	710	Panajachel	8	Panajachel	12	Diciembre	2023-06-12T00:00:00	2024-11-08T10:00:00	4	Temperatura máxima	21.8
76359	7	Sololá	710	Panajachel	8	Panajachel	12	Diciembre	2023-06-12T00:00:00	2024-11-08T10:00:00	3	Temperatura mínima	21.2
76360	7	Sololá	710	Panajachel	8	Panajachel	12	Diciembre	2023-06-12T00:00:00	2024-11-08T10:00:00	5	Humedad	68
76361	7	Sololá	710	Panajachel	8	Panajachel	12	Diciembre	2023-06-12T00:00:00	2024-11-08T10:00:00	6	Velocidad del viento	6.4
76362	7	Sololá	710	Panajachel	8	Panajachel	12	Diciembre	2023-06-12T00:00:00	2024-11-08T10:00:00	7	Dirección del viento	6.44
76363	7	Sololá	710	Panajachel	8	Panajachel	12	Diciembre	2023-06-12T00:00:00	2024-11-08T10:00:00	1	Precipitación	0
76364	7	Sololá	710	Panajachel	8	Panajachel	12	Diciembre	2023-06-12T00:00:00	2024-11-08T10:00:00	8	Radiación solar	531
76365	7	Sololá	710	Panajachel	8	Panajachel	12	Diciembre	2023-06-12T00:00:00	2024-11-08T11:00:00	2	Temperatura media	21.6
76366	7	Sololá	710	Panajachel	8	Panajachel	12	Diciembre	2023-06-12T00:00:00	2024-11-08T11:00:00	4	Temperatura máxima	22.5
76367	7	Sololá	710	Panajachel	8	Panajachel	12	Diciembre	2023-06-12T00:00:00	2024-11-08T11:00:00	3	Temperatura mínima	21.5
76368	7	Sololá	710	Panajachel	8	Panajachel	12	Diciembre	2023-06-12T00:00:00	2024-11-08T11:00:00	5	Humedad	67
76369	7	Sololá	710	Panajachel	8	Panajachel	12	Diciembre	2023-06-12T00:00:00	2024-11-08T11:00:00	6	Velocidad del viento	8
76370	7	Sololá	710	Panajachel	8	Panajachel	12	Diciembre	2023-06-12T00:00:00	2024-11-08T11:00:00	7	Dirección del viento	8.05
76371	7	Sololá	710	Panajachel	8	Panajachel	12	Diciembre	2023-06-12T00:00:00	2024-11-08T11:00:00	1	Precipitación	0
76372	7	Sololá	710	Panajachel	8	Panajachel	12	Diciembre	2023-06-12T00:00:00	2024-11-08T11:00:00	8	Radiación solar	725
76373	7	Sololá	710	Panajachel	8	Panajachel	12	Diciembre	2023-06-12T00:00:00	2024-11-08T12:00:00	2	Temperatura media	22.8
76374	7	Sololá	710	Panajachel	8	Panajachel	12	Diciembre	2023-06-12T00:00:00	2024-11-08T12:00:00	4	Temperatura máxima	23
76375	7	Sololá	710	Panajachel	8	Panajachel	12	Diciembre	2023-06-12T00:00:00	2024-11-08T12:00:00	3	Temperatura mínima	21.6
76376	7	Sololá	710	Panajachel	8	Panajachel	12	Diciembre	2023-06-12T00:00:00	2024-11-08T12:00:00	5	Humedad	64
76377	7	Sololá	710	Panajachel	8	Panajachel	12	Diciembre	2023-06-12T00:00:00	2024-11-08T12:00:00	6	Velocidad del viento	8
76378	7	Sololá	710	Panajachel	8	Panajachel	12	Diciembre	2023-06-12T00:00:00	2024-11-08T12:00:00	7	Dirección del viento	8.05
76379	7	Sololá	710	Panajachel	8	Panajachel	12	Diciembre	2023-06-12T00:00:00	2024-11-08T12:00:00	1	Precipitación	0
76380	7	Sololá	710	Panajachel	8	Panajachel	12	Diciembre	2023-06-12T00:00:00	2024-11-08T12:00:00	8	Radiación solar	827
76381	7	Sololá	710	Panajachel	8	Panajachel	12	Diciembre	2023-06-12T00:00:00	2024-11-08T13:00:00	2	Temperatura media	22.2
76382	7	Sololá	710	Panajachel	8	Panajachel	12	Diciembre	2023-06-12T00:00:00	2024-11-08T13:00:00	4	Temperatura máxima	23.2
76383	7	Sololá	710	Panajachel	8	Panajachel	12	Diciembre	2023-06-12T00:00:00	2024-11-08T13:00:00	3	Temperatura mínima	22.2
76384	7	Sololá	710	Panajachel	8	Panajachel	12	Diciembre	2023-06-12T00:00:00	2024-11-08T13:00:00	5	Humedad	59
76385	7	Sololá	710	Panajachel	8	Panajachel	12	Diciembre	2023-06-12T00:00:00	2024-11-08T13:00:00	6	Velocidad del viento	8
76386	7	Sololá	710	Panajachel	8	Panajachel	12	Diciembre	2023-06-12T00:00:00	2024-11-08T13:00:00	7	Dirección del viento	8.05
76387	7	Sololá	710	Panajachel	8	Panajachel	12	Diciembre	2023-06-12T00:00:00	2024-11-08T13:00:00	1	Precipitación	0
76388	7	Sololá	710	Panajachel	8	Panajachel	12	Diciembre	2023-06-12T00:00:00	2024-11-08T13:00:00	8	Radiación solar	641
76389	7	Sololá	710	Panajachel	8	Panajachel	12	Diciembre	2023-06-12T00:00:00	2024-11-08T14:00:00	2	Temperatura media	21.8
76390	7	Sololá	710	Panajachel	8	Panajachel	12	Diciembre	2023-06-12T00:00:00	2024-11-08T14:00:00	4	Temperatura máxima	22.2
76391	7	Sololá	710	Panajachel	8	Panajachel	12	Diciembre	2023-06-12T00:00:00	2024-11-08T14:00:00	3	Temperatura mínima	21.6
76392	7	Sololá	710	Panajachel	8	Panajachel	12	Diciembre	2023-06-12T00:00:00	2024-11-08T14:00:00	5	Humedad	58
76393	7	Sololá	710	Panajachel	8	Panajachel	12	Diciembre	2023-06-12T00:00:00	2024-11-08T14:00:00	6	Velocidad del viento	9.7
76394	7	Sololá	710	Panajachel	8	Panajachel	12	Diciembre	2023-06-12T00:00:00	2024-11-08T14:00:00	7	Dirección del viento	9.66
76395	7	Sololá	710	Panajachel	8	Panajachel	12	Diciembre	2023-06-12T00:00:00	2024-11-08T14:00:00	1	Precipitación	0
76396	7	Sololá	710	Panajachel	8	Panajachel	12	Diciembre	2023-06-12T00:00:00	2024-11-08T14:00:00	8	Radiación solar	190
76397	7	Sololá	710	Panajachel	8	Panajachel	12	Diciembre	2023-06-12T00:00:00	2024-11-08T15:00:00	2	Temperatura media	22.3
76398	7	Sololá	710	Panajachel	8	Panajachel	12	Diciembre	2023-06-12T00:00:00	2024-11-08T15:00:00	4	Temperatura máxima	22.4
76399	7	Sololá	710	Panajachel	8	Panajachel	12	Diciembre	2023-06-12T00:00:00	2024-11-08T15:00:00	3	Temperatura mínima	21.8
76400	7	Sololá	710	Panajachel	8	Panajachel	12	Diciembre	2023-06-12T00:00:00	2024-11-08T15:00:00	5	Humedad	57
76401	7	Sololá	710	Panajachel	8	Panajachel	12	Diciembre	2023-06-12T00:00:00	2024-11-08T15:00:00	6	Velocidad del viento	8
76402	7	Sololá	710	Panajachel	8	Panajachel	12	Diciembre	2023-06-12T00:00:00	2024-11-08T15:00:00	7	Dirección del viento	8.05
76403	7	Sololá	710	Panajachel	8	Panajachel	12	Diciembre	2023-06-12T00:00:00	2024-11-08T15:00:00	1	Precipitación	0
76404	7	Sololá	710	Panajachel	8	Panajachel	12	Diciembre	2023-06-12T00:00:00	2024-11-08T15:00:00	8	Radiación solar	274
76405	7	Sololá	710	Panajachel	8	Panajachel	12	Diciembre	2023-06-12T00:00:00	2024-11-08T16:00:00	2	Temperatura media	21.7
76406	7	Sololá	710	Panajachel	8	Panajachel	12	Diciembre	2023-06-12T00:00:00	2024-11-08T16:00:00	4	Temperatura máxima	22.3
76407	7	Sololá	710	Panajachel	8	Panajachel	12	Diciembre	2023-06-12T00:00:00	2024-11-08T16:00:00	3	Temperatura mínima	21.7
76408	7	Sololá	710	Panajachel	8	Panajachel	12	Diciembre	2023-06-12T00:00:00	2024-11-08T16:00:00	5	Humedad	57
76409	7	Sololá	710	Panajachel	8	Panajachel	12	Diciembre	2023-06-12T00:00:00	2024-11-08T16:00:00	6	Velocidad del viento	8
76410	7	Sololá	710	Panajachel	8	Panajachel	12	Diciembre	2023-06-12T00:00:00	2024-11-08T16:00:00	7	Dirección del viento	8.05
76411	7	Sololá	710	Panajachel	8	Panajachel	12	Diciembre	2023-06-12T00:00:00	2024-11-08T16:00:00	1	Precipitación	0
76412	7	Sololá	710	Panajachel	8	Panajachel	12	Diciembre	2023-06-12T00:00:00	2024-11-08T16:00:00	8	Radiación solar	296
76413	7	Sololá	710	Panajachel	8	Panajachel	12	Diciembre	2023-06-12T00:00:00	2024-11-08T17:00:00	2	Temperatura media	20.7
76414	7	Sololá	710	Panajachel	8	Panajachel	12	Diciembre	2023-06-12T00:00:00	2024-11-08T17:00:00	4	Temperatura máxima	21.7
76415	7	Sololá	710	Panajachel	8	Panajachel	12	Diciembre	2023-06-12T00:00:00	2024-11-08T17:00:00	3	Temperatura mínima	20.7
76416	7	Sololá	710	Panajachel	8	Panajachel	12	Diciembre	2023-06-12T00:00:00	2024-11-08T17:00:00	5	Humedad	63
76417	7	Sololá	710	Panajachel	8	Panajachel	12	Diciembre	2023-06-12T00:00:00	2024-11-08T17:00:00	6	Velocidad del viento	4.8
76418	7	Sololá	710	Panajachel	8	Panajachel	12	Diciembre	2023-06-12T00:00:00	2024-11-08T17:00:00	7	Dirección del viento	4.83
76419	7	Sololá	710	Panajachel	8	Panajachel	12	Diciembre	2023-06-12T00:00:00	2024-11-08T17:00:00	1	Precipitación	0
76420	7	Sololá	710	Panajachel	8	Panajachel	12	Diciembre	2023-06-12T00:00:00	2024-11-08T17:00:00	8	Radiación solar	55
76421	7	Sololá	710	Panajachel	8	Panajachel	12	Diciembre	2023-06-12T00:00:00	2024-11-08T18:00:00	2	Temperatura media	19.5
76422	7	Sololá	710	Panajachel	8	Panajachel	12	Diciembre	2023-06-12T00:00:00	2024-11-08T18:00:00	4	Temperatura máxima	20.7
76423	7	Sololá	710	Panajachel	8	Panajachel	12	Diciembre	2023-06-12T00:00:00	2024-11-08T18:00:00	3	Temperatura mínima	19.5
76424	7	Sololá	710	Panajachel	8	Panajachel	12	Diciembre	2023-06-12T00:00:00	2024-11-08T18:00:00	5	Humedad	66
76425	7	Sololá	710	Panajachel	8	Panajachel	12	Diciembre	2023-06-12T00:00:00	2024-11-08T18:00:00	6	Velocidad del viento	9.7
76426	7	Sololá	710	Panajachel	8	Panajachel	12	Diciembre	2023-06-12T00:00:00	2024-11-08T18:00:00	7	Dirección del viento	9.66
76427	7	Sololá	710	Panajachel	8	Panajachel	12	Diciembre	2023-06-12T00:00:00	2024-11-08T18:00:00	1	Precipitación	0
76428	7	Sololá	710	Panajachel	8	Panajachel	12	Diciembre	2023-06-12T00:00:00	2024-11-08T18:00:00	8	Radiación solar	17
76429	7	Sololá	710	Panajachel	8	Panajachel	12	Diciembre	2023-06-12T00:00:00	2024-11-08T19:00:00	2	Temperatura media	19.1
76430	7	Sololá	710	Panajachel	8	Panajachel	12	Diciembre	2023-06-12T00:00:00	2024-11-08T19:00:00	4	Temperatura máxima	19.5
76431	7	Sololá	710	Panajachel	8	Panajachel	12	Diciembre	2023-06-12T00:00:00	2024-11-08T19:00:00	3	Temperatura mínima	19.1
76432	7	Sololá	710	Panajachel	8	Panajachel	12	Diciembre	2023-06-12T00:00:00	2024-11-08T19:00:00	5	Humedad	66
76433	7	Sololá	710	Panajachel	8	Panajachel	12	Diciembre	2023-06-12T00:00:00	2024-11-08T19:00:00	6	Velocidad del viento	4.8
76434	7	Sololá	710	Panajachel	8	Panajachel	12	Diciembre	2023-06-12T00:00:00	2024-11-08T19:00:00	7	Dirección del viento	4.83
76435	7	Sololá	710	Panajachel	8	Panajachel	12	Diciembre	2023-06-12T00:00:00	2024-11-08T19:00:00	1	Precipitación	0
76436	7	Sololá	710	Panajachel	8	Panajachel	12	Diciembre	2023-06-12T00:00:00	2024-11-08T19:00:00	8	Radiación solar	0
76437	7	Sololá	710	Panajachel	8	Panajachel	12	Diciembre	2023-06-12T00:00:00	2024-11-08T20:00:00	2	Temperatura media	19.2
76438	7	Sololá	710	Panajachel	8	Panajachel	12	Diciembre	2023-06-12T00:00:00	2024-11-08T20:00:00	4	Temperatura máxima	19.2
76439	7	Sololá	710	Panajachel	8	Panajachel	12	Diciembre	2023-06-12T00:00:00	2024-11-08T20:00:00	3	Temperatura mínima	18.8
76440	7	Sololá	710	Panajachel	8	Panajachel	12	Diciembre	2023-06-12T00:00:00	2024-11-08T20:00:00	5	Humedad	67
76441	7	Sololá	710	Panajachel	8	Panajachel	12	Diciembre	2023-06-12T00:00:00	2024-11-08T20:00:00	6	Velocidad del viento	3.2
76442	7	Sololá	710	Panajachel	8	Panajachel	12	Diciembre	2023-06-12T00:00:00	2024-11-08T20:00:00	7	Dirección del viento	3.22
76443	7	Sololá	710	Panajachel	8	Panajachel	12	Diciembre	2023-06-12T00:00:00	2024-11-08T20:00:00	1	Precipitación	0
76444	7	Sololá	710	Panajachel	8	Panajachel	12	Diciembre	2023-06-12T00:00:00	2024-11-08T20:00:00	8	Radiación solar	0
76445	7	Sololá	710	Panajachel	8	Panajachel	12	Diciembre	2023-06-12T00:00:00	2024-11-08T21:00:00	2	Temperatura media	18.9
76446	7	Sololá	710	Panajachel	8	Panajachel	12	Diciembre	2023-06-12T00:00:00	2024-11-08T21:00:00	4	Temperatura máxima	19.2
76447	7	Sololá	710	Panajachel	8	Panajachel	12	Diciembre	2023-06-12T00:00:00	2024-11-08T21:00:00	3	Temperatura mínima	18.6
76448	7	Sololá	710	Panajachel	8	Panajachel	12	Diciembre	2023-06-12T00:00:00	2024-11-08T21:00:00	5	Humedad	68
76449	7	Sololá	710	Panajachel	8	Panajachel	12	Diciembre	2023-06-12T00:00:00	2024-11-08T21:00:00	6	Velocidad del viento	4.8
76450	7	Sololá	710	Panajachel	8	Panajachel	12	Diciembre	2023-06-12T00:00:00	2024-11-08T21:00:00	7	Dirección del viento	4.83
76451	7	Sololá	710	Panajachel	8	Panajachel	12	Diciembre	2023-06-12T00:00:00	2024-11-08T21:00:00	1	Precipitación	0
76452	7	Sololá	710	Panajachel	8	Panajachel	12	Diciembre	2023-06-12T00:00:00	2024-11-08T21:00:00	8	Radiación solar	0
76453	7	Sololá	710	Panajachel	8	Panajachel	12	Diciembre	2023-06-12T00:00:00	2024-11-08T22:00:00	2	Temperatura media	18.7
76454	7	Sololá	710	Panajachel	8	Panajachel	12	Diciembre	2023-06-12T00:00:00	2024-11-08T22:00:00	4	Temperatura máxima	18.9
76455	7	Sololá	710	Panajachel	8	Panajachel	12	Diciembre	2023-06-12T00:00:00	2024-11-08T22:00:00	3	Temperatura mínima	18.6
76456	7	Sololá	710	Panajachel	8	Panajachel	12	Diciembre	2023-06-12T00:00:00	2024-11-08T22:00:00	5	Humedad	68
76457	7	Sololá	710	Panajachel	8	Panajachel	12	Diciembre	2023-06-12T00:00:00	2024-11-08T22:00:00	6	Velocidad del viento	6.4
76458	7	Sololá	710	Panajachel	8	Panajachel	12	Diciembre	2023-06-12T00:00:00	2024-11-08T22:00:00	7	Dirección del viento	6.44
76459	7	Sololá	710	Panajachel	8	Panajachel	12	Diciembre	2023-06-12T00:00:00	2024-11-08T22:00:00	1	Precipitación	0
76460	7	Sololá	710	Panajachel	8	Panajachel	12	Diciembre	2023-06-12T00:00:00	2024-11-08T22:00:00	8	Radiación solar	0
76461	7	Sololá	710	Panajachel	8	Panajachel	12	Diciembre	2023-06-12T00:00:00	2024-11-08T23:00:00	2	Temperatura media	18.6
76462	7	Sololá	710	Panajachel	8	Panajachel	12	Diciembre	2023-06-12T00:00:00	2024-11-08T23:00:00	4	Temperatura máxima	18.8
76463	7	Sololá	710	Panajachel	8	Panajachel	12	Diciembre	2023-06-12T00:00:00	2024-11-08T23:00:00	3	Temperatura mínima	18.6
76464	7	Sololá	710	Panajachel	8	Panajachel	12	Diciembre	2023-06-12T00:00:00	2024-11-08T23:00:00	5	Humedad	67
76465	7	Sololá	710	Panajachel	8	Panajachel	12	Diciembre	2023-06-12T00:00:00	2024-11-08T23:00:00	6	Velocidad del viento	3.2
76466	7	Sololá	710	Panajachel	8	Panajachel	12	Diciembre	2023-06-12T00:00:00	2024-11-08T23:00:00	7	Dirección del viento	3.22
76467	7	Sololá	710	Panajachel	8	Panajachel	12	Diciembre	2023-06-12T00:00:00	2024-11-08T23:00:00	1	Precipitación	0
76468	7	Sololá	710	Panajachel	8	Panajachel	12	Diciembre	2023-06-12T00:00:00	2024-11-08T23:00:00	8	Radiación solar	0
76469	7	Sololá	710	Panajachel	8	Panajachel	12	Diciembre	2023-07-12T00:00:00	2024-11-08T00:00:00	2	Temperatura media	18.3
76470	7	Sololá	710	Panajachel	8	Panajachel	12	Diciembre	2023-07-12T00:00:00	2024-11-08T00:00:00	4	Temperatura máxima	18.6
76471	7	Sololá	710	Panajachel	8	Panajachel	12	Diciembre	2023-07-12T00:00:00	2024-11-08T00:00:00	3	Temperatura mínima	18.2
76472	7	Sololá	710	Panajachel	8	Panajachel	12	Diciembre	2023-07-12T00:00:00	2024-11-08T00:00:00	5	Humedad	70
76473	7	Sololá	710	Panajachel	8	Panajachel	12	Diciembre	2023-07-12T00:00:00	2024-11-08T00:00:00	6	Velocidad del viento	3.2
76474	7	Sololá	710	Panajachel	8	Panajachel	12	Diciembre	2023-07-12T00:00:00	2024-11-08T00:00:00	7	Dirección del viento	3.22
76475	7	Sololá	710	Panajachel	8	Panajachel	12	Diciembre	2023-07-12T00:00:00	2024-11-08T00:00:00	1	Precipitación	0
76476	7	Sololá	710	Panajachel	8	Panajachel	12	Diciembre	2023-07-12T00:00:00	2024-11-08T00:00:00	8	Radiación solar	0
76477	7	Sololá	710	Panajachel	8	Panajachel	12	Diciembre	2023-07-12T00:00:00	2024-11-08T01:00:00	2	Temperatura media	19.2
76478	7	Sololá	710	Panajachel	8	Panajachel	12	Diciembre	2023-07-12T00:00:00	2024-11-08T01:00:00	4	Temperatura máxima	19.3
76479	7	Sololá	710	Panajachel	8	Panajachel	12	Diciembre	2023-07-12T00:00:00	2024-11-08T01:00:00	3	Temperatura mínima	18.3
76480	7	Sololá	710	Panajachel	8	Panajachel	12	Diciembre	2023-07-12T00:00:00	2024-11-08T01:00:00	5	Humedad	68
76481	7	Sololá	710	Panajachel	8	Panajachel	12	Diciembre	2023-07-12T00:00:00	2024-11-08T01:00:00	6	Velocidad del viento	8
76482	7	Sololá	710	Panajachel	8	Panajachel	12	Diciembre	2023-07-12T00:00:00	2024-11-08T01:00:00	7	Dirección del viento	8.05
76483	7	Sololá	710	Panajachel	8	Panajachel	12	Diciembre	2023-07-12T00:00:00	2024-11-08T01:00:00	1	Precipitación	0
76484	7	Sololá	710	Panajachel	8	Panajachel	12	Diciembre	2023-07-12T00:00:00	2024-11-08T01:00:00	8	Radiación solar	0
76485	7	Sololá	710	Panajachel	8	Panajachel	12	Diciembre	2023-07-12T00:00:00	2024-11-08T02:00:00	2	Temperatura media	18.8
76486	7	Sololá	710	Panajachel	8	Panajachel	12	Diciembre	2023-07-12T00:00:00	2024-11-08T02:00:00	4	Temperatura máxima	19.3
76487	7	Sololá	710	Panajachel	8	Panajachel	12	Diciembre	2023-07-12T00:00:00	2024-11-08T02:00:00	3	Temperatura mínima	18.7
76488	7	Sololá	710	Panajachel	8	Panajachel	12	Diciembre	2023-07-12T00:00:00	2024-11-08T02:00:00	5	Humedad	71
76489	7	Sololá	710	Panajachel	8	Panajachel	12	Diciembre	2023-07-12T00:00:00	2024-11-08T02:00:00	6	Velocidad del viento	8
76490	7	Sololá	710	Panajachel	8	Panajachel	12	Diciembre	2023-07-12T00:00:00	2024-11-08T02:00:00	7	Dirección del viento	8.05
76491	7	Sololá	710	Panajachel	8	Panajachel	12	Diciembre	2023-07-12T00:00:00	2024-11-08T02:00:00	1	Precipitación	0
76492	7	Sololá	710	Panajachel	8	Panajachel	12	Diciembre	2023-07-12T00:00:00	2024-11-08T02:00:00	8	Radiación solar	0
76493	7	Sololá	710	Panajachel	8	Panajachel	12	Diciembre	2023-07-12T00:00:00	2024-11-08T03:00:00	2	Temperatura media	18.6
76494	7	Sololá	710	Panajachel	8	Panajachel	12	Diciembre	2023-07-12T00:00:00	2024-11-08T03:00:00	4	Temperatura máxima	18.7
76495	7	Sololá	710	Panajachel	8	Panajachel	12	Diciembre	2023-07-12T00:00:00	2024-11-08T03:00:00	3	Temperatura mínima	18.6
76496	7	Sololá	710	Panajachel	8	Panajachel	12	Diciembre	2023-07-12T00:00:00	2024-11-08T03:00:00	5	Humedad	72
76497	7	Sololá	710	Panajachel	8	Panajachel	12	Diciembre	2023-07-12T00:00:00	2024-11-08T03:00:00	6	Velocidad del viento	8
76498	7	Sololá	710	Panajachel	8	Panajachel	12	Diciembre	2023-07-12T00:00:00	2024-11-08T03:00:00	7	Dirección del viento	8.05
76499	7	Sololá	710	Panajachel	8	Panajachel	12	Diciembre	2023-07-12T00:00:00	2024-11-08T03:00:00	1	Precipitación	0
76500	7	Sololá	710	Panajachel	8	Panajachel	12	Diciembre	2023-07-12T00:00:00	2024-11-08T03:00:00	8	Radiación solar	0
76501	7	Sololá	710	Panajachel	8	Panajachel	12	Diciembre	2023-07-12T00:00:00	2024-11-08T04:00:00	2	Temperatura media	18.6
76502	7	Sololá	710	Panajachel	8	Panajachel	12	Diciembre	2023-07-12T00:00:00	2024-11-08T04:00:00	4	Temperatura máxima	18.7
76503	7	Sololá	710	Panajachel	8	Panajachel	12	Diciembre	2023-07-12T00:00:00	2024-11-08T04:00:00	3	Temperatura mínima	18.5
76504	7	Sololá	710	Panajachel	8	Panajachel	12	Diciembre	2023-07-12T00:00:00	2024-11-08T04:00:00	5	Humedad	73
76505	7	Sololá	710	Panajachel	8	Panajachel	12	Diciembre	2023-07-12T00:00:00	2024-11-08T04:00:00	6	Velocidad del viento	6.4
76506	7	Sololá	710	Panajachel	8	Panajachel	12	Diciembre	2023-07-12T00:00:00	2024-11-08T04:00:00	7	Dirección del viento	6.44
76507	7	Sololá	710	Panajachel	8	Panajachel	12	Diciembre	2023-07-12T00:00:00	2024-11-08T04:00:00	1	Precipitación	0
76508	7	Sololá	710	Panajachel	8	Panajachel	12	Diciembre	2023-07-12T00:00:00	2024-11-08T04:00:00	8	Radiación solar	0
76509	7	Sololá	710	Panajachel	8	Panajachel	12	Diciembre	2023-07-12T00:00:00	2024-11-08T05:00:00	2	Temperatura media	18.4
76510	7	Sololá	710	Panajachel	8	Panajachel	12	Diciembre	2023-07-12T00:00:00	2024-11-08T05:00:00	4	Temperatura máxima	18.7
76511	7	Sololá	710	Panajachel	8	Panajachel	12	Diciembre	2023-07-12T00:00:00	2024-11-08T05:00:00	3	Temperatura mínima	18.4
76512	7	Sololá	710	Panajachel	8	Panajachel	12	Diciembre	2023-07-12T00:00:00	2024-11-08T05:00:00	5	Humedad	75
76513	7	Sololá	710	Panajachel	8	Panajachel	12	Diciembre	2023-07-12T00:00:00	2024-11-08T05:00:00	6	Velocidad del viento	9.7
76514	7	Sololá	710	Panajachel	8	Panajachel	12	Diciembre	2023-07-12T00:00:00	2024-11-08T05:00:00	7	Dirección del viento	9.66
76515	7	Sololá	710	Panajachel	8	Panajachel	12	Diciembre	2023-07-12T00:00:00	2024-11-08T05:00:00	1	Precipitación	0
76516	7	Sololá	710	Panajachel	8	Panajachel	12	Diciembre	2023-07-12T00:00:00	2024-11-08T05:00:00	8	Radiación solar	0
76517	7	Sololá	710	Panajachel	8	Panajachel	12	Diciembre	2023-07-12T00:00:00	2024-11-08T06:00:00	2	Temperatura media	18.2
76518	7	Sololá	710	Panajachel	8	Panajachel	12	Diciembre	2023-07-12T00:00:00	2024-11-08T06:00:00	4	Temperatura máxima	18.4
76519	7	Sololá	710	Panajachel	8	Panajachel	12	Diciembre	2023-07-12T00:00:00	2024-11-08T06:00:00	3	Temperatura mínima	17.8
76520	7	Sololá	710	Panajachel	8	Panajachel	12	Diciembre	2023-07-12T00:00:00	2024-11-08T06:00:00	5	Humedad	75
76521	7	Sololá	710	Panajachel	8	Panajachel	12	Diciembre	2023-07-12T00:00:00	2024-11-08T06:00:00	6	Velocidad del viento	8
76522	7	Sololá	710	Panajachel	8	Panajachel	12	Diciembre	2023-07-12T00:00:00	2024-11-08T06:00:00	7	Dirección del viento	8.05
76523	7	Sololá	710	Panajachel	8	Panajachel	12	Diciembre	2023-07-12T00:00:00	2024-11-08T06:00:00	1	Precipitación	0
76524	7	Sololá	710	Panajachel	8	Panajachel	12	Diciembre	2023-07-12T00:00:00	2024-11-08T06:00:00	8	Radiación solar	0
76525	7	Sololá	710	Panajachel	8	Panajachel	12	Diciembre	2023-07-12T00:00:00	2024-11-08T07:00:00	2	Temperatura media	18.7
76526	7	Sololá	710	Panajachel	8	Panajachel	12	Diciembre	2023-07-12T00:00:00	2024-11-08T07:00:00	4	Temperatura máxima	18.7
76527	7	Sololá	710	Panajachel	8	Panajachel	12	Diciembre	2023-07-12T00:00:00	2024-11-08T07:00:00	3	Temperatura mínima	18.2
76528	7	Sololá	710	Panajachel	8	Panajachel	12	Diciembre	2023-07-12T00:00:00	2024-11-08T07:00:00	5	Humedad	69
76529	7	Sololá	710	Panajachel	8	Panajachel	12	Diciembre	2023-07-12T00:00:00	2024-11-08T07:00:00	6	Velocidad del viento	8
76530	7	Sololá	710	Panajachel	8	Panajachel	12	Diciembre	2023-07-12T00:00:00	2024-11-08T07:00:00	7	Dirección del viento	8.05
76531	7	Sololá	710	Panajachel	8	Panajachel	12	Diciembre	2023-07-12T00:00:00	2024-11-08T07:00:00	1	Precipitación	0
76532	7	Sololá	710	Panajachel	8	Panajachel	12	Diciembre	2023-07-12T00:00:00	2024-11-08T07:00:00	8	Radiación solar	8
76533	7	Sololá	710	Panajachel	8	Panajachel	12	Diciembre	2023-07-12T00:00:00	2024-11-08T08:00:00	2	Temperatura media	20.4
76534	7	Sololá	710	Panajachel	8	Panajachel	12	Diciembre	2023-07-12T00:00:00	2024-11-08T08:00:00	4	Temperatura máxima	20.4
76535	7	Sololá	710	Panajachel	8	Panajachel	12	Diciembre	2023-07-12T00:00:00	2024-11-08T08:00:00	3	Temperatura mínima	18.7
76536	7	Sololá	710	Panajachel	8	Panajachel	12	Diciembre	2023-07-12T00:00:00	2024-11-08T08:00:00	5	Humedad	67
76537	7	Sololá	710	Panajachel	8	Panajachel	12	Diciembre	2023-07-12T00:00:00	2024-11-08T08:00:00	6	Velocidad del viento	4.8
76538	7	Sololá	710	Panajachel	8	Panajachel	12	Diciembre	2023-07-12T00:00:00	2024-11-08T08:00:00	7	Dirección del viento	4.83
76539	7	Sololá	710	Panajachel	8	Panajachel	12	Diciembre	2023-07-12T00:00:00	2024-11-08T08:00:00	1	Precipitación	0
76540	7	Sololá	710	Panajachel	8	Panajachel	12	Diciembre	2023-07-12T00:00:00	2024-11-08T08:00:00	8	Radiación solar	193
76541	7	Sololá	710	Panajachel	8	Panajachel	12	Diciembre	2023-07-12T00:00:00	2024-11-08T09:00:00	2	Temperatura media	21.7
76542	7	Sololá	710	Panajachel	8	Panajachel	12	Diciembre	2023-07-12T00:00:00	2024-11-08T09:00:00	4	Temperatura máxima	21.8
76543	7	Sololá	710	Panajachel	8	Panajachel	12	Diciembre	2023-07-12T00:00:00	2024-11-08T09:00:00	3	Temperatura mínima	20.4
76544	7	Sololá	710	Panajachel	8	Panajachel	12	Diciembre	2023-07-12T00:00:00	2024-11-08T09:00:00	5	Humedad	66
76545	7	Sololá	710	Panajachel	8	Panajachel	12	Diciembre	2023-07-12T00:00:00	2024-11-08T09:00:00	6	Velocidad del viento	6.4
76546	7	Sololá	710	Panajachel	8	Panajachel	12	Diciembre	2023-07-12T00:00:00	2024-11-08T09:00:00	7	Dirección del viento	6.44
76547	7	Sololá	710	Panajachel	8	Panajachel	12	Diciembre	2023-07-12T00:00:00	2024-11-08T09:00:00	1	Precipitación	0
76548	7	Sololá	710	Panajachel	8	Panajachel	12	Diciembre	2023-07-12T00:00:00	2024-11-08T09:00:00	8	Radiación solar	420
76549	7	Sololá	710	Panajachel	8	Panajachel	12	Diciembre	2023-07-12T00:00:00	2024-11-08T10:00:00	2	Temperatura media	22.3
76550	7	Sololá	710	Panajachel	8	Panajachel	12	Diciembre	2023-07-12T00:00:00	2024-11-08T10:00:00	4	Temperatura máxima	22.3
76551	7	Sololá	710	Panajachel	8	Panajachel	12	Diciembre	2023-07-12T00:00:00	2024-11-08T10:00:00	3	Temperatura mínima	20.9
76552	7	Sololá	710	Panajachel	8	Panajachel	12	Diciembre	2023-07-12T00:00:00	2024-11-08T10:00:00	5	Humedad	62
76553	7	Sololá	710	Panajachel	8	Panajachel	12	Diciembre	2023-07-12T00:00:00	2024-11-08T10:00:00	6	Velocidad del viento	6.4
76554	7	Sololá	710	Panajachel	8	Panajachel	12	Diciembre	2023-07-12T00:00:00	2024-11-08T10:00:00	7	Dirección del viento	6.44
76555	7	Sololá	710	Panajachel	8	Panajachel	12	Diciembre	2023-07-12T00:00:00	2024-11-08T10:00:00	1	Precipitación	0
76556	7	Sololá	710	Panajachel	8	Panajachel	12	Diciembre	2023-07-12T00:00:00	2024-11-08T10:00:00	8	Radiación solar	602
76557	7	Sololá	710	Panajachel	8	Panajachel	12	Diciembre	2023-07-12T00:00:00	2024-11-08T11:00:00	2	Temperatura media	23.6
76558	7	Sololá	710	Panajachel	8	Panajachel	12	Diciembre	2023-07-12T00:00:00	2024-11-08T11:00:00	4	Temperatura máxima	23.6
76559	7	Sololá	710	Panajachel	8	Panajachel	12	Diciembre	2023-07-12T00:00:00	2024-11-08T11:00:00	3	Temperatura mínima	22.3
76560	7	Sololá	710	Panajachel	8	Panajachel	12	Diciembre	2023-07-12T00:00:00	2024-11-08T11:00:00	5	Humedad	60
76561	7	Sololá	710	Panajachel	8	Panajachel	12	Diciembre	2023-07-12T00:00:00	2024-11-08T11:00:00	6	Velocidad del viento	8
76562	7	Sololá	710	Panajachel	8	Panajachel	12	Diciembre	2023-07-12T00:00:00	2024-11-08T11:00:00	7	Dirección del viento	8.05
76563	7	Sololá	710	Panajachel	8	Panajachel	12	Diciembre	2023-07-12T00:00:00	2024-11-08T11:00:00	1	Precipitación	0
76564	7	Sololá	710	Panajachel	8	Panajachel	12	Diciembre	2023-07-12T00:00:00	2024-11-08T11:00:00	8	Radiación solar	698
76565	7	Sololá	710	Panajachel	8	Panajachel	12	Diciembre	2023-07-12T00:00:00	2024-11-08T12:00:00	2	Temperatura media	23.8
76566	7	Sololá	710	Panajachel	8	Panajachel	12	Diciembre	2023-07-12T00:00:00	2024-11-08T12:00:00	4	Temperatura máxima	24.2
76567	7	Sololá	710	Panajachel	8	Panajachel	12	Diciembre	2023-07-12T00:00:00	2024-11-08T12:00:00	3	Temperatura mínima	23.4
76568	7	Sololá	710	Panajachel	8	Panajachel	12	Diciembre	2023-07-12T00:00:00	2024-11-08T12:00:00	5	Humedad	60
76569	7	Sololá	710	Panajachel	8	Panajachel	12	Diciembre	2023-07-12T00:00:00	2024-11-08T12:00:00	6	Velocidad del viento	8
76570	7	Sololá	710	Panajachel	8	Panajachel	12	Diciembre	2023-07-12T00:00:00	2024-11-08T12:00:00	7	Dirección del viento	8.05
76571	7	Sololá	710	Panajachel	8	Panajachel	12	Diciembre	2023-07-12T00:00:00	2024-11-08T12:00:00	1	Precipitación	0
76572	7	Sololá	710	Panajachel	8	Panajachel	12	Diciembre	2023-07-12T00:00:00	2024-11-08T12:00:00	8	Radiación solar	781
76573	7	Sololá	710	Panajachel	8	Panajachel	12	Diciembre	2023-07-12T00:00:00	2024-11-08T13:00:00	2	Temperatura media	24.6
76574	7	Sololá	710	Panajachel	8	Panajachel	12	Diciembre	2023-07-12T00:00:00	2024-11-08T13:00:00	4	Temperatura máxima	24.9
76575	7	Sololá	710	Panajachel	8	Panajachel	12	Diciembre	2023-07-12T00:00:00	2024-11-08T13:00:00	3	Temperatura mínima	23.7
76576	7	Sololá	710	Panajachel	8	Panajachel	12	Diciembre	2023-07-12T00:00:00	2024-11-08T13:00:00	5	Humedad	56
76577	7	Sololá	710	Panajachel	8	Panajachel	12	Diciembre	2023-07-12T00:00:00	2024-11-08T13:00:00	6	Velocidad del viento	8
76578	7	Sololá	710	Panajachel	8	Panajachel	12	Diciembre	2023-07-12T00:00:00	2024-11-08T13:00:00	7	Dirección del viento	8.05
76579	7	Sololá	710	Panajachel	8	Panajachel	12	Diciembre	2023-07-12T00:00:00	2024-11-08T13:00:00	1	Precipitación	0
76580	7	Sololá	710	Panajachel	8	Panajachel	12	Diciembre	2023-07-12T00:00:00	2024-11-08T13:00:00	8	Radiación solar	792
76581	7	Sololá	710	Panajachel	8	Panajachel	12	Diciembre	2023-07-12T00:00:00	2024-11-08T14:00:00	2	Temperatura media	24.4
76582	7	Sololá	710	Panajachel	8	Panajachel	12	Diciembre	2023-07-12T00:00:00	2024-11-08T14:00:00	4	Temperatura máxima	25.1
76583	7	Sololá	710	Panajachel	8	Panajachel	12	Diciembre	2023-07-12T00:00:00	2024-11-08T14:00:00	3	Temperatura mínima	24.3
76584	7	Sololá	710	Panajachel	8	Panajachel	12	Diciembre	2023-07-12T00:00:00	2024-11-08T14:00:00	5	Humedad	56
76585	7	Sololá	710	Panajachel	8	Panajachel	12	Diciembre	2023-07-12T00:00:00	2024-11-08T14:00:00	6	Velocidad del viento	9.7
76586	7	Sololá	710	Panajachel	8	Panajachel	12	Diciembre	2023-07-12T00:00:00	2024-11-08T14:00:00	7	Dirección del viento	9.66
76587	7	Sololá	710	Panajachel	8	Panajachel	12	Diciembre	2023-07-12T00:00:00	2024-11-08T14:00:00	1	Precipitación	0
76588	7	Sololá	710	Panajachel	8	Panajachel	12	Diciembre	2023-07-12T00:00:00	2024-11-08T14:00:00	8	Radiación solar	622
76589	7	Sololá	710	Panajachel	8	Panajachel	12	Diciembre	2023-07-12T00:00:00	2024-11-08T15:00:00	2	Temperatura media	24.8
76590	7	Sololá	710	Panajachel	8	Panajachel	12	Diciembre	2023-07-12T00:00:00	2024-11-08T15:00:00	4	Temperatura máxima	25.4
76591	7	Sololá	710	Panajachel	8	Panajachel	12	Diciembre	2023-07-12T00:00:00	2024-11-08T15:00:00	3	Temperatura mínima	24.4
76592	7	Sololá	710	Panajachel	8	Panajachel	12	Diciembre	2023-07-12T00:00:00	2024-11-08T15:00:00	5	Humedad	56
76593	7	Sololá	710	Panajachel	8	Panajachel	12	Diciembre	2023-07-12T00:00:00	2024-11-08T15:00:00	6	Velocidad del viento	6.4
76594	7	Sololá	710	Panajachel	8	Panajachel	12	Diciembre	2023-07-12T00:00:00	2024-11-08T15:00:00	7	Dirección del viento	6.44
76595	7	Sololá	710	Panajachel	8	Panajachel	12	Diciembre	2023-07-12T00:00:00	2024-11-08T15:00:00	1	Precipitación	0
76596	7	Sololá	710	Panajachel	8	Panajachel	12	Diciembre	2023-07-12T00:00:00	2024-11-08T15:00:00	8	Radiación solar	524
76597	7	Sololá	710	Panajachel	8	Panajachel	12	Diciembre	2023-07-12T00:00:00	2024-11-08T16:00:00	2	Temperatura media	23.3
76598	7	Sololá	710	Panajachel	8	Panajachel	12	Diciembre	2023-07-12T00:00:00	2024-11-08T16:00:00	4	Temperatura máxima	24.8
76599	7	Sololá	710	Panajachel	8	Panajachel	12	Diciembre	2023-07-12T00:00:00	2024-11-08T16:00:00	3	Temperatura mínima	23.2
76600	7	Sololá	710	Panajachel	8	Panajachel	12	Diciembre	2023-07-12T00:00:00	2024-11-08T16:00:00	5	Humedad	61
76601	7	Sololá	710	Panajachel	8	Panajachel	12	Diciembre	2023-07-12T00:00:00	2024-11-08T16:00:00	6	Velocidad del viento	8
76602	7	Sololá	710	Panajachel	8	Panajachel	12	Diciembre	2023-07-12T00:00:00	2024-11-08T16:00:00	7	Dirección del viento	8.05
76603	7	Sololá	710	Panajachel	8	Panajachel	12	Diciembre	2023-07-12T00:00:00	2024-11-08T16:00:00	1	Precipitación	0
76604	7	Sololá	710	Panajachel	8	Panajachel	12	Diciembre	2023-07-12T00:00:00	2024-11-08T16:00:00	8	Radiación solar	137
76605	7	Sololá	710	Panajachel	8	Panajachel	12	Diciembre	2023-07-12T00:00:00	2024-11-08T17:00:00	2	Temperatura media	22.2
76606	7	Sololá	710	Panajachel	8	Panajachel	12	Diciembre	2023-07-12T00:00:00	2024-11-08T17:00:00	4	Temperatura máxima	23.3
76607	7	Sololá	710	Panajachel	8	Panajachel	12	Diciembre	2023-07-12T00:00:00	2024-11-08T17:00:00	3	Temperatura mínima	22.2
76608	7	Sololá	710	Panajachel	8	Panajachel	12	Diciembre	2023-07-12T00:00:00	2024-11-08T17:00:00	5	Humedad	63
76609	7	Sololá	710	Panajachel	8	Panajachel	12	Diciembre	2023-07-12T00:00:00	2024-11-08T17:00:00	6	Velocidad del viento	8
76610	7	Sololá	710	Panajachel	8	Panajachel	12	Diciembre	2023-07-12T00:00:00	2024-11-08T17:00:00	7	Dirección del viento	8.05
76611	7	Sololá	710	Panajachel	8	Panajachel	12	Diciembre	2023-07-12T00:00:00	2024-11-08T17:00:00	1	Precipitación	0
76612	7	Sololá	710	Panajachel	8	Panajachel	12	Diciembre	2023-07-12T00:00:00	2024-11-08T17:00:00	8	Radiación solar	163
76613	7	Sololá	710	Panajachel	8	Panajachel	12	Diciembre	2023-07-12T00:00:00	2024-11-08T18:00:00	2	Temperatura media	20.9
76614	7	Sololá	710	Panajachel	8	Panajachel	12	Diciembre	2023-07-12T00:00:00	2024-11-08T18:00:00	4	Temperatura máxima	22.2
76615	7	Sololá	710	Panajachel	8	Panajachel	12	Diciembre	2023-07-12T00:00:00	2024-11-08T18:00:00	3	Temperatura mínima	20.9
76616	7	Sololá	710	Panajachel	8	Panajachel	12	Diciembre	2023-07-12T00:00:00	2024-11-08T18:00:00	5	Humedad	67
76617	7	Sololá	710	Panajachel	8	Panajachel	12	Diciembre	2023-07-12T00:00:00	2024-11-08T18:00:00	6	Velocidad del viento	6.4
76618	7	Sololá	710	Panajachel	8	Panajachel	12	Diciembre	2023-07-12T00:00:00	2024-11-08T18:00:00	7	Dirección del viento	6.44
76619	7	Sololá	710	Panajachel	8	Panajachel	12	Diciembre	2023-07-12T00:00:00	2024-11-08T18:00:00	1	Precipitación	0
76620	7	Sololá	710	Panajachel	8	Panajachel	12	Diciembre	2023-07-12T00:00:00	2024-11-08T18:00:00	8	Radiación solar	9
76621	7	Sololá	710	Panajachel	8	Panajachel	12	Diciembre	2023-07-12T00:00:00	2024-11-08T19:00:00	2	Temperatura media	20.4
76622	7	Sololá	710	Panajachel	8	Panajachel	12	Diciembre	2023-07-12T00:00:00	2024-11-08T19:00:00	4	Temperatura máxima	20.9
76623	7	Sololá	710	Panajachel	8	Panajachel	12	Diciembre	2023-07-12T00:00:00	2024-11-08T19:00:00	3	Temperatura mínima	20.4
76624	7	Sololá	710	Panajachel	8	Panajachel	12	Diciembre	2023-07-12T00:00:00	2024-11-08T19:00:00	5	Humedad	69
76625	7	Sololá	710	Panajachel	8	Panajachel	12	Diciembre	2023-07-12T00:00:00	2024-11-08T19:00:00	6	Velocidad del viento	4.8
76626	7	Sololá	710	Panajachel	8	Panajachel	12	Diciembre	2023-07-12T00:00:00	2024-11-08T19:00:00	7	Dirección del viento	4.83
76627	7	Sololá	710	Panajachel	8	Panajachel	12	Diciembre	2023-07-12T00:00:00	2024-11-08T19:00:00	1	Precipitación	0
76628	7	Sololá	710	Panajachel	8	Panajachel	12	Diciembre	2023-07-12T00:00:00	2024-11-08T19:00:00	8	Radiación solar	0
76629	7	Sololá	710	Panajachel	8	Panajachel	12	Diciembre	2023-07-12T00:00:00	2024-11-08T20:00:00	2	Temperatura media	20.2
76630	7	Sololá	710	Panajachel	8	Panajachel	12	Diciembre	2023-07-12T00:00:00	2024-11-08T20:00:00	4	Temperatura máxima	20.4
76631	7	Sololá	710	Panajachel	8	Panajachel	12	Diciembre	2023-07-12T00:00:00	2024-11-08T20:00:00	3	Temperatura mínima	20.1
76632	7	Sololá	710	Panajachel	8	Panajachel	12	Diciembre	2023-07-12T00:00:00	2024-11-08T20:00:00	5	Humedad	69
76633	7	Sololá	710	Panajachel	8	Panajachel	12	Diciembre	2023-07-12T00:00:00	2024-11-08T20:00:00	6	Velocidad del viento	6.4
76634	7	Sololá	710	Panajachel	8	Panajachel	12	Diciembre	2023-07-12T00:00:00	2024-11-08T20:00:00	7	Dirección del viento	6.44
76635	7	Sololá	710	Panajachel	8	Panajachel	12	Diciembre	2023-07-12T00:00:00	2024-11-08T20:00:00	1	Precipitación	0
76636	7	Sololá	710	Panajachel	8	Panajachel	12	Diciembre	2023-07-12T00:00:00	2024-11-08T20:00:00	8	Radiación solar	0
76637	7	Sololá	710	Panajachel	8	Panajachel	12	Diciembre	2023-07-12T00:00:00	2024-11-08T21:00:00	2	Temperatura media	19.9
76638	7	Sololá	710	Panajachel	8	Panajachel	12	Diciembre	2023-07-12T00:00:00	2024-11-08T21:00:00	4	Temperatura máxima	20.2
76639	7	Sololá	710	Panajachel	8	Panajachel	12	Diciembre	2023-07-12T00:00:00	2024-11-08T21:00:00	3	Temperatura mínima	19.8
76640	7	Sololá	710	Panajachel	8	Panajachel	12	Diciembre	2023-07-12T00:00:00	2024-11-08T21:00:00	5	Humedad	70
76641	7	Sololá	710	Panajachel	8	Panajachel	12	Diciembre	2023-07-12T00:00:00	2024-11-08T21:00:00	6	Velocidad del viento	6.4
76642	7	Sololá	710	Panajachel	8	Panajachel	12	Diciembre	2023-07-12T00:00:00	2024-11-08T21:00:00	7	Dirección del viento	6.44
76643	7	Sololá	710	Panajachel	8	Panajachel	12	Diciembre	2023-07-12T00:00:00	2024-11-08T21:00:00	1	Precipitación	0
76644	7	Sololá	710	Panajachel	8	Panajachel	12	Diciembre	2023-07-12T00:00:00	2024-11-08T21:00:00	8	Radiación solar	0
76645	7	Sololá	710	Panajachel	8	Panajachel	12	Diciembre	2023-07-12T00:00:00	2024-11-08T22:00:00	2	Temperatura media	19.8
76646	7	Sololá	710	Panajachel	8	Panajachel	12	Diciembre	2023-07-12T00:00:00	2024-11-08T22:00:00	4	Temperatura máxima	20
76647	7	Sololá	710	Panajachel	8	Panajachel	12	Diciembre	2023-07-12T00:00:00	2024-11-08T22:00:00	3	Temperatura mínima	19.8
76648	7	Sololá	710	Panajachel	8	Panajachel	12	Diciembre	2023-07-12T00:00:00	2024-11-08T22:00:00	5	Humedad	71
76649	7	Sololá	710	Panajachel	8	Panajachel	12	Diciembre	2023-07-12T00:00:00	2024-11-08T22:00:00	6	Velocidad del viento	9.7
76650	7	Sololá	710	Panajachel	8	Panajachel	12	Diciembre	2023-07-12T00:00:00	2024-11-08T22:00:00	7	Dirección del viento	9.66
76651	7	Sololá	710	Panajachel	8	Panajachel	12	Diciembre	2023-07-12T00:00:00	2024-11-08T22:00:00	1	Precipitación	0
76652	7	Sololá	710	Panajachel	8	Panajachel	12	Diciembre	2023-07-12T00:00:00	2024-11-08T22:00:00	8	Radiación solar	0
76653	7	Sololá	710	Panajachel	8	Panajachel	12	Diciembre	2023-07-12T00:00:00	2024-11-08T23:00:00	2	Temperatura media	20.1
76654	7	Sololá	710	Panajachel	8	Panajachel	12	Diciembre	2023-07-12T00:00:00	2024-11-08T23:00:00	4	Temperatura máxima	20.2
76655	7	Sololá	710	Panajachel	8	Panajachel	12	Diciembre	2023-07-12T00:00:00	2024-11-08T23:00:00	3	Temperatura mínima	19.8
76656	7	Sololá	710	Panajachel	8	Panajachel	12	Diciembre	2023-07-12T00:00:00	2024-11-08T23:00:00	5	Humedad	69
76657	7	Sololá	710	Panajachel	8	Panajachel	12	Diciembre	2023-07-12T00:00:00	2024-11-08T23:00:00	6	Velocidad del viento	12.9
76658	7	Sololá	710	Panajachel	8	Panajachel	12	Diciembre	2023-07-12T00:00:00	2024-11-08T23:00:00	7	Dirección del viento	12.87
76659	7	Sololá	710	Panajachel	8	Panajachel	12	Diciembre	2023-07-12T00:00:00	2024-11-08T23:00:00	1	Precipitación	0
76660	7	Sololá	710	Panajachel	8	Panajachel	12	Diciembre	2023-07-12T00:00:00	2024-11-08T23:00:00	8	Radiación solar	0
76661	7	Sololá	710	Panajachel	8	Panajachel	12	Diciembre	2023-08-12T00:00:00	2024-11-08T00:00:00	2	Temperatura media	19.8
76662	7	Sololá	710	Panajachel	8	Panajachel	12	Diciembre	2023-08-12T00:00:00	2024-11-08T00:00:00	4	Temperatura máxima	20.1
76663	7	Sololá	710	Panajachel	8	Panajachel	12	Diciembre	2023-08-12T00:00:00	2024-11-08T00:00:00	3	Temperatura mínima	19.7
76664	7	Sololá	710	Panajachel	8	Panajachel	12	Diciembre	2023-08-12T00:00:00	2024-11-08T00:00:00	5	Humedad	70
76665	7	Sololá	710	Panajachel	8	Panajachel	12	Diciembre	2023-08-12T00:00:00	2024-11-08T00:00:00	6	Velocidad del viento	11.3
76666	7	Sololá	710	Panajachel	8	Panajachel	12	Diciembre	2023-08-12T00:00:00	2024-11-08T00:00:00	7	Dirección del viento	11.27
76667	7	Sololá	710	Panajachel	8	Panajachel	12	Diciembre	2023-08-12T00:00:00	2024-11-08T00:00:00	1	Precipitación	0
76668	7	Sololá	710	Panajachel	8	Panajachel	12	Diciembre	2023-08-12T00:00:00	2024-11-08T00:00:00	8	Radiación solar	0
76669	7	Sololá	710	Panajachel	8	Panajachel	12	Diciembre	2023-08-12T00:00:00	2024-11-08T01:00:00	2	Temperatura media	19.8
76670	7	Sololá	710	Panajachel	8	Panajachel	12	Diciembre	2023-08-12T00:00:00	2024-11-08T01:00:00	4	Temperatura máxima	19.9
76671	7	Sololá	710	Panajachel	8	Panajachel	12	Diciembre	2023-08-12T00:00:00	2024-11-08T01:00:00	3	Temperatura mínima	19.7
76672	7	Sololá	710	Panajachel	8	Panajachel	12	Diciembre	2023-08-12T00:00:00	2024-11-08T01:00:00	5	Humedad	70
76673	7	Sololá	710	Panajachel	8	Panajachel	12	Diciembre	2023-08-12T00:00:00	2024-11-08T01:00:00	6	Velocidad del viento	14.5
76674	7	Sololá	710	Panajachel	8	Panajachel	12	Diciembre	2023-08-12T00:00:00	2024-11-08T01:00:00	7	Dirección del viento	14.48
76675	7	Sololá	710	Panajachel	8	Panajachel	12	Diciembre	2023-08-12T00:00:00	2024-11-08T01:00:00	1	Precipitación	0
76676	7	Sololá	710	Panajachel	8	Panajachel	12	Diciembre	2023-08-12T00:00:00	2024-11-08T01:00:00	8	Radiación solar	0
76677	7	Sololá	710	Panajachel	8	Panajachel	12	Diciembre	2023-08-12T00:00:00	2024-11-08T02:00:00	2	Temperatura media	19.9
76678	7	Sololá	710	Panajachel	8	Panajachel	12	Diciembre	2023-08-12T00:00:00	2024-11-08T02:00:00	4	Temperatura máxima	20
76679	7	Sololá	710	Panajachel	8	Panajachel	12	Diciembre	2023-08-12T00:00:00	2024-11-08T02:00:00	3	Temperatura mínima	19.8
76680	7	Sololá	710	Panajachel	8	Panajachel	12	Diciembre	2023-08-12T00:00:00	2024-11-08T02:00:00	5	Humedad	70
76681	7	Sololá	710	Panajachel	8	Panajachel	12	Diciembre	2023-08-12T00:00:00	2024-11-08T02:00:00	6	Velocidad del viento	19.3
76682	7	Sololá	710	Panajachel	8	Panajachel	12	Diciembre	2023-08-12T00:00:00	2024-11-08T02:00:00	7	Dirección del viento	19.31
76683	7	Sololá	710	Panajachel	8	Panajachel	12	Diciembre	2023-08-12T00:00:00	2024-11-08T02:00:00	1	Precipitación	0
76684	7	Sololá	710	Panajachel	8	Panajachel	12	Diciembre	2023-08-12T00:00:00	2024-11-08T02:00:00	8	Radiación solar	0
76685	7	Sololá	710	Panajachel	8	Panajachel	12	Diciembre	2023-08-12T00:00:00	2024-11-08T03:00:00	2	Temperatura media	19.3
76686	7	Sololá	710	Panajachel	8	Panajachel	12	Diciembre	2023-08-12T00:00:00	2024-11-08T03:00:00	4	Temperatura máxima	20
76687	7	Sololá	710	Panajachel	8	Panajachel	12	Diciembre	2023-08-12T00:00:00	2024-11-08T03:00:00	3	Temperatura mínima	19.3
76688	7	Sololá	710	Panajachel	8	Panajachel	12	Diciembre	2023-08-12T00:00:00	2024-11-08T03:00:00	5	Humedad	70
76689	7	Sololá	710	Panajachel	8	Panajachel	12	Diciembre	2023-08-12T00:00:00	2024-11-08T03:00:00	6	Velocidad del viento	8
76690	7	Sololá	710	Panajachel	8	Panajachel	12	Diciembre	2023-08-12T00:00:00	2024-11-08T03:00:00	7	Dirección del viento	8.05
76691	7	Sololá	710	Panajachel	8	Panajachel	12	Diciembre	2023-08-12T00:00:00	2024-11-08T03:00:00	1	Precipitación	0
76692	7	Sololá	710	Panajachel	8	Panajachel	12	Diciembre	2023-08-12T00:00:00	2024-11-08T03:00:00	8	Radiación solar	0
76693	7	Sololá	710	Panajachel	8	Panajachel	12	Diciembre	2023-08-12T00:00:00	2024-11-08T04:00:00	2	Temperatura media	19
76694	7	Sololá	710	Panajachel	8	Panajachel	12	Diciembre	2023-08-12T00:00:00	2024-11-08T04:00:00	4	Temperatura máxima	19.5
76695	7	Sololá	710	Panajachel	8	Panajachel	12	Diciembre	2023-08-12T00:00:00	2024-11-08T04:00:00	3	Temperatura mínima	18.8
76696	7	Sololá	710	Panajachel	8	Panajachel	12	Diciembre	2023-08-12T00:00:00	2024-11-08T04:00:00	5	Humedad	71
76697	7	Sololá	710	Panajachel	8	Panajachel	12	Diciembre	2023-08-12T00:00:00	2024-11-08T04:00:00	6	Velocidad del viento	4.8
76698	7	Sololá	710	Panajachel	8	Panajachel	12	Diciembre	2023-08-12T00:00:00	2024-11-08T04:00:00	7	Dirección del viento	4.83
76699	7	Sololá	710	Panajachel	8	Panajachel	12	Diciembre	2023-08-12T00:00:00	2024-11-08T04:00:00	1	Precipitación	0
76700	7	Sololá	710	Panajachel	8	Panajachel	12	Diciembre	2023-08-12T00:00:00	2024-11-08T04:00:00	8	Radiación solar	0
76701	7	Sololá	710	Panajachel	8	Panajachel	12	Diciembre	2023-08-12T00:00:00	2024-11-08T05:00:00	2	Temperatura media	19.2
76702	7	Sololá	710	Panajachel	8	Panajachel	12	Diciembre	2023-08-12T00:00:00	2024-11-08T05:00:00	4	Temperatura máxima	19.3
76703	7	Sololá	710	Panajachel	8	Panajachel	12	Diciembre	2023-08-12T00:00:00	2024-11-08T05:00:00	3	Temperatura mínima	18.8
76704	7	Sololá	710	Panajachel	8	Panajachel	12	Diciembre	2023-08-12T00:00:00	2024-11-08T05:00:00	5	Humedad	69
76705	7	Sololá	710	Panajachel	8	Panajachel	12	Diciembre	2023-08-12T00:00:00	2024-11-08T05:00:00	6	Velocidad del viento	6.4
76706	7	Sololá	710	Panajachel	8	Panajachel	12	Diciembre	2023-08-12T00:00:00	2024-11-08T05:00:00	7	Dirección del viento	6.44
76707	7	Sololá	710	Panajachel	8	Panajachel	12	Diciembre	2023-08-12T00:00:00	2024-11-08T05:00:00	1	Precipitación	0
76708	7	Sololá	710	Panajachel	8	Panajachel	12	Diciembre	2023-08-12T00:00:00	2024-11-08T05:00:00	8	Radiación solar	0
76709	7	Sololá	710	Panajachel	8	Panajachel	12	Diciembre	2023-08-12T00:00:00	2024-11-08T06:00:00	2	Temperatura media	18.8
76710	7	Sololá	710	Panajachel	8	Panajachel	12	Diciembre	2023-08-12T00:00:00	2024-11-08T06:00:00	4	Temperatura máxima	19.3
76711	7	Sololá	710	Panajachel	8	Panajachel	12	Diciembre	2023-08-12T00:00:00	2024-11-08T06:00:00	3	Temperatura mínima	18.7
76712	7	Sololá	710	Panajachel	8	Panajachel	12	Diciembre	2023-08-12T00:00:00	2024-11-08T06:00:00	5	Humedad	72
76713	7	Sololá	710	Panajachel	8	Panajachel	12	Diciembre	2023-08-12T00:00:00	2024-11-08T06:00:00	6	Velocidad del viento	3.2
76714	7	Sololá	710	Panajachel	8	Panajachel	12	Diciembre	2023-08-12T00:00:00	2024-11-08T06:00:00	7	Dirección del viento	3.22
76715	7	Sololá	710	Panajachel	8	Panajachel	12	Diciembre	2023-08-12T00:00:00	2024-11-08T06:00:00	1	Precipitación	0
76716	7	Sololá	710	Panajachel	8	Panajachel	12	Diciembre	2023-08-12T00:00:00	2024-11-08T06:00:00	8	Radiación solar	0
76717	7	Sololá	710	Panajachel	8	Panajachel	12	Diciembre	2023-08-12T00:00:00	2024-11-08T07:00:00	2	Temperatura media	18.6
76718	7	Sololá	710	Panajachel	8	Panajachel	12	Diciembre	2023-08-12T00:00:00	2024-11-08T07:00:00	4	Temperatura máxima	19.2
76719	7	Sololá	710	Panajachel	8	Panajachel	12	Diciembre	2023-08-12T00:00:00	2024-11-08T07:00:00	3	Temperatura mínima	18.6
76720	7	Sololá	710	Panajachel	8	Panajachel	12	Diciembre	2023-08-12T00:00:00	2024-11-08T07:00:00	5	Humedad	73
76721	7	Sololá	710	Panajachel	8	Panajachel	12	Diciembre	2023-08-12T00:00:00	2024-11-08T07:00:00	6	Velocidad del viento	3.2
76722	7	Sololá	710	Panajachel	8	Panajachel	12	Diciembre	2023-08-12T00:00:00	2024-11-08T07:00:00	7	Dirección del viento	3.22
76723	7	Sololá	710	Panajachel	8	Panajachel	12	Diciembre	2023-08-12T00:00:00	2024-11-08T07:00:00	1	Precipitación	0
76724	7	Sololá	710	Panajachel	8	Panajachel	12	Diciembre	2023-08-12T00:00:00	2024-11-08T07:00:00	8	Radiación solar	7
76725	7	Sololá	710	Panajachel	8	Panajachel	12	Diciembre	2023-08-12T00:00:00	2024-11-08T08:00:00	2	Temperatura media	21.2
76726	7	Sololá	710	Panajachel	8	Panajachel	12	Diciembre	2023-08-12T00:00:00	2024-11-08T08:00:00	4	Temperatura máxima	21.2
76727	7	Sololá	710	Panajachel	8	Panajachel	12	Diciembre	2023-08-12T00:00:00	2024-11-08T08:00:00	3	Temperatura mínima	18.6
76728	7	Sololá	710	Panajachel	8	Panajachel	12	Diciembre	2023-08-12T00:00:00	2024-11-08T08:00:00	5	Humedad	67
76729	7	Sololá	710	Panajachel	8	Panajachel	12	Diciembre	2023-08-12T00:00:00	2024-11-08T08:00:00	6	Velocidad del viento	3.2
76730	7	Sololá	710	Panajachel	8	Panajachel	12	Diciembre	2023-08-12T00:00:00	2024-11-08T08:00:00	7	Dirección del viento	3.22
76731	7	Sololá	710	Panajachel	8	Panajachel	12	Diciembre	2023-08-12T00:00:00	2024-11-08T08:00:00	1	Precipitación	0
76732	7	Sololá	710	Panajachel	8	Panajachel	12	Diciembre	2023-08-12T00:00:00	2024-11-08T08:00:00	8	Radiación solar	187
76733	7	Sololá	710	Panajachel	8	Panajachel	12	Diciembre	2023-08-12T00:00:00	2024-11-08T09:00:00	2	Temperatura media	23
76734	7	Sololá	710	Panajachel	8	Panajachel	12	Diciembre	2023-08-12T00:00:00	2024-11-08T09:00:00	4	Temperatura máxima	23.1
76735	7	Sololá	710	Panajachel	8	Panajachel	12	Diciembre	2023-08-12T00:00:00	2024-11-08T09:00:00	3	Temperatura mínima	21.2
76736	7	Sololá	710	Panajachel	8	Panajachel	12	Diciembre	2023-08-12T00:00:00	2024-11-08T09:00:00	5	Humedad	61
76737	7	Sololá	710	Panajachel	8	Panajachel	12	Diciembre	2023-08-12T00:00:00	2024-11-08T09:00:00	6	Velocidad del viento	6.4
76738	7	Sololá	710	Panajachel	8	Panajachel	12	Diciembre	2023-08-12T00:00:00	2024-11-08T09:00:00	7	Dirección del viento	6.44
76739	7	Sololá	710	Panajachel	8	Panajachel	12	Diciembre	2023-08-12T00:00:00	2024-11-08T09:00:00	1	Precipitación	0
76740	7	Sololá	710	Panajachel	8	Panajachel	12	Diciembre	2023-08-12T00:00:00	2024-11-08T09:00:00	8	Radiación solar	402
76741	7	Sololá	710	Panajachel	8	Panajachel	12	Diciembre	2023-08-12T00:00:00	2024-11-08T10:00:00	2	Temperatura media	23.3
76742	7	Sololá	710	Panajachel	8	Panajachel	12	Diciembre	2023-08-12T00:00:00	2024-11-08T10:00:00	4	Temperatura máxima	24.3
76743	7	Sololá	710	Panajachel	8	Panajachel	12	Diciembre	2023-08-12T00:00:00	2024-11-08T10:00:00	3	Temperatura mínima	23
76744	7	Sololá	710	Panajachel	8	Panajachel	12	Diciembre	2023-08-12T00:00:00	2024-11-08T10:00:00	5	Humedad	64
76745	7	Sololá	710	Panajachel	8	Panajachel	12	Diciembre	2023-08-12T00:00:00	2024-11-08T10:00:00	6	Velocidad del viento	4.8
76746	7	Sololá	710	Panajachel	8	Panajachel	12	Diciembre	2023-08-12T00:00:00	2024-11-08T10:00:00	7	Dirección del viento	4.83
76747	7	Sololá	710	Panajachel	8	Panajachel	12	Diciembre	2023-08-12T00:00:00	2024-11-08T10:00:00	1	Precipitación	0
76748	7	Sololá	710	Panajachel	8	Panajachel	12	Diciembre	2023-08-12T00:00:00	2024-11-08T10:00:00	8	Radiación solar	579
76749	7	Sololá	710	Panajachel	8	Panajachel	12	Diciembre	2023-08-12T00:00:00	2024-11-08T11:00:00	2	Temperatura media	25.3
76750	7	Sololá	710	Panajachel	8	Panajachel	12	Diciembre	2023-08-12T00:00:00	2024-11-08T11:00:00	4	Temperatura máxima	25.3
76751	7	Sololá	710	Panajachel	8	Panajachel	12	Diciembre	2023-08-12T00:00:00	2024-11-08T11:00:00	3	Temperatura mínima	23.3
76752	7	Sololá	710	Panajachel	8	Panajachel	12	Diciembre	2023-08-12T00:00:00	2024-11-08T11:00:00	5	Humedad	55
76753	7	Sololá	710	Panajachel	8	Panajachel	12	Diciembre	2023-08-12T00:00:00	2024-11-08T11:00:00	6	Velocidad del viento	3.2
76754	7	Sololá	710	Panajachel	8	Panajachel	12	Diciembre	2023-08-12T00:00:00	2024-11-08T11:00:00	7	Dirección del viento	3.22
76755	7	Sololá	710	Panajachel	8	Panajachel	12	Diciembre	2023-08-12T00:00:00	2024-11-08T11:00:00	1	Precipitación	0
76756	7	Sololá	710	Panajachel	8	Panajachel	12	Diciembre	2023-08-12T00:00:00	2024-11-08T11:00:00	8	Radiación solar	767
76757	7	Sololá	710	Panajachel	8	Panajachel	12	Diciembre	2023-08-12T00:00:00	2024-11-08T12:00:00	2	Temperatura media	26.4
76758	7	Sololá	710	Panajachel	8	Panajachel	12	Diciembre	2023-08-12T00:00:00	2024-11-08T12:00:00	4	Temperatura máxima	26.7
76759	7	Sololá	710	Panajachel	8	Panajachel	12	Diciembre	2023-08-12T00:00:00	2024-11-08T12:00:00	3	Temperatura mínima	25.1
76760	7	Sololá	710	Panajachel	8	Panajachel	12	Diciembre	2023-08-12T00:00:00	2024-11-08T12:00:00	5	Humedad	51
76761	7	Sololá	710	Panajachel	8	Panajachel	12	Diciembre	2023-08-12T00:00:00	2024-11-08T12:00:00	6	Velocidad del viento	4.8
76762	7	Sololá	710	Panajachel	8	Panajachel	12	Diciembre	2023-08-12T00:00:00	2024-11-08T12:00:00	7	Dirección del viento	4.83
76763	7	Sololá	710	Panajachel	8	Panajachel	12	Diciembre	2023-08-12T00:00:00	2024-11-08T12:00:00	1	Precipitación	0
76764	7	Sololá	710	Panajachel	8	Panajachel	12	Diciembre	2023-08-12T00:00:00	2024-11-08T12:00:00	8	Radiación solar	887
76765	7	Sololá	710	Panajachel	8	Panajachel	12	Diciembre	2023-08-12T00:00:00	2024-11-08T13:00:00	2	Temperatura media	26.4
76766	7	Sololá	710	Panajachel	8	Panajachel	12	Diciembre	2023-08-12T00:00:00	2024-11-08T13:00:00	4	Temperatura máxima	26.7
76767	7	Sololá	710	Panajachel	8	Panajachel	12	Diciembre	2023-08-12T00:00:00	2024-11-08T13:00:00	3	Temperatura mínima	25.9
76768	7	Sololá	710	Panajachel	8	Panajachel	12	Diciembre	2023-08-12T00:00:00	2024-11-08T13:00:00	5	Humedad	51
76769	7	Sololá	710	Panajachel	8	Panajachel	12	Diciembre	2023-08-12T00:00:00	2024-11-08T13:00:00	6	Velocidad del viento	8
76770	7	Sololá	710	Panajachel	8	Panajachel	12	Diciembre	2023-08-12T00:00:00	2024-11-08T13:00:00	7	Dirección del viento	8.05
76771	7	Sololá	710	Panajachel	8	Panajachel	12	Diciembre	2023-08-12T00:00:00	2024-11-08T13:00:00	1	Precipitación	0
76772	7	Sololá	710	Panajachel	8	Panajachel	12	Diciembre	2023-08-12T00:00:00	2024-11-08T13:00:00	8	Radiación solar	811
76773	7	Sololá	710	Panajachel	8	Panajachel	12	Diciembre	2023-08-12T00:00:00	2024-11-08T14:00:00	2	Temperatura media	26.7
76774	7	Sololá	710	Panajachel	8	Panajachel	12	Diciembre	2023-08-12T00:00:00	2024-11-08T14:00:00	4	Temperatura máxima	27
76775	7	Sololá	710	Panajachel	8	Panajachel	12	Diciembre	2023-08-12T00:00:00	2024-11-08T14:00:00	3	Temperatura mínima	26.1
76776	7	Sololá	710	Panajachel	8	Panajachel	12	Diciembre	2023-08-12T00:00:00	2024-11-08T14:00:00	5	Humedad	47
76777	7	Sololá	710	Panajachel	8	Panajachel	12	Diciembre	2023-08-12T00:00:00	2024-11-08T14:00:00	6	Velocidad del viento	6.4
76778	7	Sololá	710	Panajachel	8	Panajachel	12	Diciembre	2023-08-12T00:00:00	2024-11-08T14:00:00	7	Dirección del viento	6.44
76779	7	Sololá	710	Panajachel	8	Panajachel	12	Diciembre	2023-08-12T00:00:00	2024-11-08T14:00:00	1	Precipitación	0
76780	7	Sololá	710	Panajachel	8	Panajachel	12	Diciembre	2023-08-12T00:00:00	2024-11-08T14:00:00	8	Radiación solar	704
76781	7	Sololá	710	Panajachel	8	Panajachel	12	Diciembre	2023-08-12T00:00:00	2024-11-08T15:00:00	2	Temperatura media	27.1
76782	7	Sololá	710	Panajachel	8	Panajachel	12	Diciembre	2023-08-12T00:00:00	2024-11-08T15:00:00	4	Temperatura máxima	27.1
76783	7	Sololá	710	Panajachel	8	Panajachel	12	Diciembre	2023-08-12T00:00:00	2024-11-08T15:00:00	3	Temperatura mínima	26.6
76784	7	Sololá	710	Panajachel	8	Panajachel	12	Diciembre	2023-08-12T00:00:00	2024-11-08T15:00:00	5	Humedad	48
76785	7	Sololá	710	Panajachel	8	Panajachel	12	Diciembre	2023-08-12T00:00:00	2024-11-08T15:00:00	6	Velocidad del viento	4.8
76786	7	Sololá	710	Panajachel	8	Panajachel	12	Diciembre	2023-08-12T00:00:00	2024-11-08T15:00:00	7	Dirección del viento	4.83
76787	7	Sololá	710	Panajachel	8	Panajachel	12	Diciembre	2023-08-12T00:00:00	2024-11-08T15:00:00	1	Precipitación	0
76788	7	Sololá	710	Panajachel	8	Panajachel	12	Diciembre	2023-08-12T00:00:00	2024-11-08T15:00:00	8	Radiación solar	587
76789	7	Sololá	710	Panajachel	8	Panajachel	12	Diciembre	2023-08-12T00:00:00	2024-11-08T16:00:00	2	Temperatura media	26.2
76790	7	Sololá	710	Panajachel	8	Panajachel	12	Diciembre	2023-08-12T00:00:00	2024-11-08T16:00:00	4	Temperatura máxima	27.2
76791	7	Sololá	710	Panajachel	8	Panajachel	12	Diciembre	2023-08-12T00:00:00	2024-11-08T16:00:00	3	Temperatura mínima	26.2
76792	7	Sololá	710	Panajachel	8	Panajachel	12	Diciembre	2023-08-12T00:00:00	2024-11-08T16:00:00	5	Humedad	49
76793	7	Sololá	710	Panajachel	8	Panajachel	12	Diciembre	2023-08-12T00:00:00	2024-11-08T16:00:00	6	Velocidad del viento	4.8
76794	7	Sololá	710	Panajachel	8	Panajachel	12	Diciembre	2023-08-12T00:00:00	2024-11-08T16:00:00	7	Dirección del viento	4.83
76795	7	Sololá	710	Panajachel	8	Panajachel	12	Diciembre	2023-08-12T00:00:00	2024-11-08T16:00:00	1	Precipitación	0
76796	7	Sololá	710	Panajachel	8	Panajachel	12	Diciembre	2023-08-12T00:00:00	2024-11-08T16:00:00	8	Radiación solar	431
76797	7	Sololá	710	Panajachel	8	Panajachel	12	Diciembre	2023-08-12T00:00:00	2024-11-08T17:00:00	2	Temperatura media	25
76798	7	Sololá	710	Panajachel	8	Panajachel	12	Diciembre	2023-08-12T00:00:00	2024-11-08T17:00:00	4	Temperatura máxima	26.6
76799	7	Sololá	710	Panajachel	8	Panajachel	12	Diciembre	2023-08-12T00:00:00	2024-11-08T17:00:00	3	Temperatura mínima	25
76800	7	Sololá	710	Panajachel	8	Panajachel	12	Diciembre	2023-08-12T00:00:00	2024-11-08T17:00:00	5	Humedad	54
76801	7	Sololá	710	Panajachel	8	Panajachel	12	Diciembre	2023-08-12T00:00:00	2024-11-08T17:00:00	6	Velocidad del viento	3.2
76802	7	Sololá	710	Panajachel	8	Panajachel	12	Diciembre	2023-08-12T00:00:00	2024-11-08T17:00:00	7	Dirección del viento	3.22
76803	7	Sololá	710	Panajachel	8	Panajachel	12	Diciembre	2023-08-12T00:00:00	2024-11-08T17:00:00	1	Precipitación	0
76804	7	Sololá	710	Panajachel	8	Panajachel	12	Diciembre	2023-08-12T00:00:00	2024-11-08T17:00:00	8	Radiación solar	188
76805	7	Sololá	710	Panajachel	8	Panajachel	12	Diciembre	2023-08-12T00:00:00	2024-11-08T18:00:00	2	Temperatura media	22.3
76806	7	Sololá	710	Panajachel	8	Panajachel	12	Diciembre	2023-08-12T00:00:00	2024-11-08T18:00:00	4	Temperatura máxima	25
76807	7	Sololá	710	Panajachel	8	Panajachel	12	Diciembre	2023-08-12T00:00:00	2024-11-08T18:00:00	3	Temperatura mínima	22.3
76808	7	Sololá	710	Panajachel	8	Panajachel	12	Diciembre	2023-08-12T00:00:00	2024-11-08T18:00:00	5	Humedad	63
76809	7	Sololá	710	Panajachel	8	Panajachel	12	Diciembre	2023-08-12T00:00:00	2024-11-08T18:00:00	6	Velocidad del viento	6.4
76810	7	Sololá	710	Panajachel	8	Panajachel	12	Diciembre	2023-08-12T00:00:00	2024-11-08T18:00:00	7	Dirección del viento	6.44
76811	7	Sololá	710	Panajachel	8	Panajachel	12	Diciembre	2023-08-12T00:00:00	2024-11-08T18:00:00	1	Precipitación	0
76812	7	Sololá	710	Panajachel	8	Panajachel	12	Diciembre	2023-08-12T00:00:00	2024-11-08T18:00:00	8	Radiación solar	12
76813	7	Sololá	710	Panajachel	8	Panajachel	12	Diciembre	2023-08-12T00:00:00	2024-11-08T19:00:00	2	Temperatura media	21.1
76814	7	Sololá	710	Panajachel	8	Panajachel	12	Diciembre	2023-08-12T00:00:00	2024-11-08T19:00:00	4	Temperatura máxima	22.3
76815	7	Sololá	710	Panajachel	8	Panajachel	12	Diciembre	2023-08-12T00:00:00	2024-11-08T19:00:00	3	Temperatura mínima	21.1
76816	7	Sololá	710	Panajachel	8	Panajachel	12	Diciembre	2023-08-12T00:00:00	2024-11-08T19:00:00	5	Humedad	69
76817	7	Sololá	710	Panajachel	8	Panajachel	12	Diciembre	2023-08-12T00:00:00	2024-11-08T19:00:00	6	Velocidad del viento	6.4
76818	7	Sololá	710	Panajachel	8	Panajachel	12	Diciembre	2023-08-12T00:00:00	2024-11-08T19:00:00	7	Dirección del viento	6.44
76819	7	Sololá	710	Panajachel	8	Panajachel	12	Diciembre	2023-08-12T00:00:00	2024-11-08T19:00:00	1	Precipitación	0
76820	7	Sololá	710	Panajachel	8	Panajachel	12	Diciembre	2023-08-12T00:00:00	2024-11-08T19:00:00	8	Radiación solar	0
76821	7	Sololá	710	Panajachel	8	Panajachel	12	Diciembre	2023-08-12T00:00:00	2024-11-08T20:00:00	2	Temperatura media	21.2
76822	7	Sololá	710	Panajachel	8	Panajachel	12	Diciembre	2023-08-12T00:00:00	2024-11-08T20:00:00	4	Temperatura máxima	21.3
76823	7	Sololá	710	Panajachel	8	Panajachel	12	Diciembre	2023-08-12T00:00:00	2024-11-08T20:00:00	3	Temperatura mínima	21
76824	7	Sololá	710	Panajachel	8	Panajachel	12	Diciembre	2023-08-12T00:00:00	2024-11-08T20:00:00	5	Humedad	68
76825	7	Sololá	710	Panajachel	8	Panajachel	12	Diciembre	2023-08-12T00:00:00	2024-11-08T20:00:00	6	Velocidad del viento	8
76826	7	Sololá	710	Panajachel	8	Panajachel	12	Diciembre	2023-08-12T00:00:00	2024-11-08T20:00:00	7	Dirección del viento	8.05
76827	7	Sololá	710	Panajachel	8	Panajachel	12	Diciembre	2023-08-12T00:00:00	2024-11-08T20:00:00	1	Precipitación	0
76828	7	Sololá	710	Panajachel	8	Panajachel	12	Diciembre	2023-08-12T00:00:00	2024-11-08T20:00:00	8	Radiación solar	0
76829	7	Sololá	710	Panajachel	8	Panajachel	12	Diciembre	2023-08-12T00:00:00	2024-11-08T21:00:00	2	Temperatura media	20.4
76830	7	Sololá	710	Panajachel	8	Panajachel	12	Diciembre	2023-08-12T00:00:00	2024-11-08T21:00:00	4	Temperatura máxima	21.1
76831	7	Sololá	710	Panajachel	8	Panajachel	12	Diciembre	2023-08-12T00:00:00	2024-11-08T21:00:00	3	Temperatura mínima	20.4
76832	7	Sololá	710	Panajachel	8	Panajachel	12	Diciembre	2023-08-12T00:00:00	2024-11-08T21:00:00	5	Humedad	71
76833	7	Sololá	710	Panajachel	8	Panajachel	12	Diciembre	2023-08-12T00:00:00	2024-11-08T21:00:00	6	Velocidad del viento	3.2
76834	7	Sololá	710	Panajachel	8	Panajachel	12	Diciembre	2023-08-12T00:00:00	2024-11-08T21:00:00	7	Dirección del viento	3.22
76835	7	Sololá	710	Panajachel	8	Panajachel	12	Diciembre	2023-08-12T00:00:00	2024-11-08T21:00:00	1	Precipitación	0
76836	7	Sololá	710	Panajachel	8	Panajachel	12	Diciembre	2023-08-12T00:00:00	2024-11-08T21:00:00	8	Radiación solar	0
76837	7	Sololá	710	Panajachel	8	Panajachel	12	Diciembre	2023-08-12T00:00:00	2024-11-08T22:00:00	2	Temperatura media	18.5
76838	7	Sololá	710	Panajachel	8	Panajachel	12	Diciembre	2023-08-12T00:00:00	2024-11-08T22:00:00	4	Temperatura máxima	20.5
76839	7	Sololá	710	Panajachel	8	Panajachel	12	Diciembre	2023-08-12T00:00:00	2024-11-08T22:00:00	3	Temperatura mínima	18.5
76840	7	Sololá	710	Panajachel	8	Panajachel	12	Diciembre	2023-08-12T00:00:00	2024-11-08T22:00:00	5	Humedad	77
76841	7	Sololá	710	Panajachel	8	Panajachel	12	Diciembre	2023-08-12T00:00:00	2024-11-08T22:00:00	6	Velocidad del viento	1.6
76842	7	Sololá	710	Panajachel	8	Panajachel	12	Diciembre	2023-08-12T00:00:00	2024-11-08T22:00:00	7	Dirección del viento	1.61
76843	7	Sololá	710	Panajachel	8	Panajachel	12	Diciembre	2023-08-12T00:00:00	2024-11-08T22:00:00	1	Precipitación	0
76844	7	Sololá	710	Panajachel	8	Panajachel	12	Diciembre	2023-08-12T00:00:00	2024-11-08T22:00:00	8	Radiación solar	0
76845	7	Sololá	710	Panajachel	8	Panajachel	12	Diciembre	2023-08-12T00:00:00	2024-11-08T23:00:00	2	Temperatura media	18.8
76846	7	Sololá	710	Panajachel	8	Panajachel	12	Diciembre	2023-08-12T00:00:00	2024-11-08T23:00:00	4	Temperatura máxima	18.8
76847	7	Sololá	710	Panajachel	8	Panajachel	12	Diciembre	2023-08-12T00:00:00	2024-11-08T23:00:00	3	Temperatura mínima	17.9
76848	7	Sololá	710	Panajachel	8	Panajachel	12	Diciembre	2023-08-12T00:00:00	2024-11-08T23:00:00	5	Humedad	75
76849	7	Sololá	710	Panajachel	8	Panajachel	12	Diciembre	2023-08-12T00:00:00	2024-11-08T23:00:00	6	Velocidad del viento	1.6
76850	7	Sololá	710	Panajachel	8	Panajachel	12	Diciembre	2023-08-12T00:00:00	2024-11-08T23:00:00	7	Dirección del viento	1.61
76851	7	Sololá	710	Panajachel	8	Panajachel	12	Diciembre	2023-08-12T00:00:00	2024-11-08T23:00:00	1	Precipitación	0
76852	7	Sololá	710	Panajachel	8	Panajachel	12	Diciembre	2023-08-12T00:00:00	2024-11-08T23:00:00	8	Radiación solar	0
76853	7	Sololá	710	Panajachel	8	Panajachel	12	Diciembre	2023-09-12T00:00:00	2024-11-08T00:00:00	2	Temperatura media	18.2
76854	7	Sololá	710	Panajachel	8	Panajachel	12	Diciembre	2023-09-12T00:00:00	2024-11-08T00:00:00	4	Temperatura máxima	18.8
76855	7	Sololá	710	Panajachel	8	Panajachel	12	Diciembre	2023-09-12T00:00:00	2024-11-08T00:00:00	3	Temperatura mínima	18.2
76856	7	Sololá	710	Panajachel	8	Panajachel	12	Diciembre	2023-09-12T00:00:00	2024-11-08T00:00:00	5	Humedad	76
76857	7	Sololá	710	Panajachel	8	Panajachel	12	Diciembre	2023-09-12T00:00:00	2024-11-08T00:00:00	6	Velocidad del viento	1.6
76858	7	Sololá	710	Panajachel	8	Panajachel	12	Diciembre	2023-09-12T00:00:00	2024-11-08T00:00:00	7	Dirección del viento	1.61
76859	7	Sololá	710	Panajachel	8	Panajachel	12	Diciembre	2023-09-12T00:00:00	2024-11-08T00:00:00	1	Precipitación	0
76860	7	Sololá	710	Panajachel	8	Panajachel	12	Diciembre	2023-09-12T00:00:00	2024-11-08T00:00:00	8	Radiación solar	0
76861	7	Sololá	710	Panajachel	8	Panajachel	12	Diciembre	2023-09-12T00:00:00	2024-11-08T01:00:00	2	Temperatura media	17.8
76862	7	Sololá	710	Panajachel	8	Panajachel	12	Diciembre	2023-09-12T00:00:00	2024-11-08T01:00:00	4	Temperatura máxima	18.2
76863	7	Sololá	710	Panajachel	8	Panajachel	12	Diciembre	2023-09-12T00:00:00	2024-11-08T01:00:00	3	Temperatura mínima	17.8
76864	7	Sololá	710	Panajachel	8	Panajachel	12	Diciembre	2023-09-12T00:00:00	2024-11-08T01:00:00	5	Humedad	76
76865	7	Sololá	710	Panajachel	8	Panajachel	12	Diciembre	2023-09-12T00:00:00	2024-11-08T01:00:00	6	Velocidad del viento	1.6
76866	7	Sololá	710	Panajachel	8	Panajachel	12	Diciembre	2023-09-12T00:00:00	2024-11-08T01:00:00	7	Dirección del viento	1.61
76867	7	Sololá	710	Panajachel	8	Panajachel	12	Diciembre	2023-09-12T00:00:00	2024-11-08T01:00:00	1	Precipitación	0
76868	7	Sololá	710	Panajachel	8	Panajachel	12	Diciembre	2023-09-12T00:00:00	2024-11-08T01:00:00	8	Radiación solar	0
76869	7	Sololá	710	Panajachel	8	Panajachel	12	Diciembre	2023-09-12T00:00:00	2024-11-08T02:00:00	2	Temperatura media	17.4
76870	7	Sololá	710	Panajachel	8	Panajachel	12	Diciembre	2023-09-12T00:00:00	2024-11-08T02:00:00	4	Temperatura máxima	17.8
76871	7	Sololá	710	Panajachel	8	Panajachel	12	Diciembre	2023-09-12T00:00:00	2024-11-08T02:00:00	3	Temperatura mínima	17.3
76872	7	Sololá	710	Panajachel	8	Panajachel	12	Diciembre	2023-09-12T00:00:00	2024-11-08T02:00:00	5	Humedad	77
76873	7	Sololá	710	Panajachel	8	Panajachel	12	Diciembre	2023-09-12T00:00:00	2024-11-08T02:00:00	6	Velocidad del viento	1.6
76874	7	Sololá	710	Panajachel	8	Panajachel	12	Diciembre	2023-09-12T00:00:00	2024-11-08T02:00:00	7	Dirección del viento	1.61
76875	7	Sololá	710	Panajachel	8	Panajachel	12	Diciembre	2023-09-12T00:00:00	2024-11-08T02:00:00	1	Precipitación	0
76876	7	Sololá	710	Panajachel	8	Panajachel	12	Diciembre	2023-09-12T00:00:00	2024-11-08T02:00:00	8	Radiación solar	0
76877	7	Sololá	710	Panajachel	8	Panajachel	12	Diciembre	2023-09-12T00:00:00	2024-11-08T03:00:00	2	Temperatura media	17.1
76878	7	Sololá	710	Panajachel	8	Panajachel	12	Diciembre	2023-09-12T00:00:00	2024-11-08T03:00:00	4	Temperatura máxima	17.6
76879	7	Sololá	710	Panajachel	8	Panajachel	12	Diciembre	2023-09-12T00:00:00	2024-11-08T03:00:00	3	Temperatura mínima	17.1
76880	7	Sololá	710	Panajachel	8	Panajachel	12	Diciembre	2023-09-12T00:00:00	2024-11-08T03:00:00	5	Humedad	78
76881	7	Sololá	710	Panajachel	8	Panajachel	12	Diciembre	2023-09-12T00:00:00	2024-11-08T03:00:00	6	Velocidad del viento	0
76882	7	Sololá	710	Panajachel	8	Panajachel	12	Diciembre	2023-09-12T00:00:00	2024-11-08T03:00:00	7	Dirección del viento	0
76883	7	Sololá	710	Panajachel	8	Panajachel	12	Diciembre	2023-09-12T00:00:00	2024-11-08T03:00:00	1	Precipitación	0
76884	7	Sololá	710	Panajachel	8	Panajachel	12	Diciembre	2023-09-12T00:00:00	2024-11-08T03:00:00	8	Radiación solar	0
76885	7	Sololá	710	Panajachel	8	Panajachel	12	Diciembre	2023-09-12T00:00:00	2024-11-08T04:00:00	2	Temperatura media	16.8
76886	7	Sololá	710	Panajachel	8	Panajachel	12	Diciembre	2023-09-12T00:00:00	2024-11-08T04:00:00	4	Temperatura máxima	17.1
76887	7	Sololá	710	Panajachel	8	Panajachel	12	Diciembre	2023-09-12T00:00:00	2024-11-08T04:00:00	3	Temperatura mínima	16.1
76888	7	Sololá	710	Panajachel	8	Panajachel	12	Diciembre	2023-09-12T00:00:00	2024-11-08T04:00:00	5	Humedad	78
76889	7	Sololá	710	Panajachel	8	Panajachel	12	Diciembre	2023-09-12T00:00:00	2024-11-08T04:00:00	6	Velocidad del viento	0
76890	7	Sololá	710	Panajachel	8	Panajachel	12	Diciembre	2023-09-12T00:00:00	2024-11-08T04:00:00	7	Dirección del viento	0
76891	7	Sololá	710	Panajachel	8	Panajachel	12	Diciembre	2023-09-12T00:00:00	2024-11-08T04:00:00	1	Precipitación	0
76892	7	Sololá	710	Panajachel	8	Panajachel	12	Diciembre	2023-09-12T00:00:00	2024-11-08T04:00:00	8	Radiación solar	0
76893	7	Sololá	710	Panajachel	8	Panajachel	12	Diciembre	2023-09-12T00:00:00	2024-11-08T05:00:00	2	Temperatura media	15.3
76894	7	Sololá	710	Panajachel	8	Panajachel	12	Diciembre	2023-09-12T00:00:00	2024-11-08T05:00:00	4	Temperatura máxima	16.8
76895	7	Sololá	710	Panajachel	8	Panajachel	12	Diciembre	2023-09-12T00:00:00	2024-11-08T05:00:00	3	Temperatura mínima	15.3
76896	7	Sololá	710	Panajachel	8	Panajachel	12	Diciembre	2023-09-12T00:00:00	2024-11-08T05:00:00	5	Humedad	80
76897	7	Sololá	710	Panajachel	8	Panajachel	12	Diciembre	2023-09-12T00:00:00	2024-11-08T05:00:00	6	Velocidad del viento	1.6
76898	7	Sololá	710	Panajachel	8	Panajachel	12	Diciembre	2023-09-12T00:00:00	2024-11-08T05:00:00	7	Dirección del viento	1.61
76899	7	Sololá	710	Panajachel	8	Panajachel	12	Diciembre	2023-09-12T00:00:00	2024-11-08T05:00:00	1	Precipitación	0
76900	7	Sololá	710	Panajachel	8	Panajachel	12	Diciembre	2023-09-12T00:00:00	2024-11-08T05:00:00	8	Radiación solar	0
76901	7	Sololá	710	Panajachel	8	Panajachel	12	Diciembre	2023-09-12T00:00:00	2024-11-08T06:00:00	2	Temperatura media	14.8
76902	7	Sololá	710	Panajachel	8	Panajachel	12	Diciembre	2023-09-12T00:00:00	2024-11-08T06:00:00	4	Temperatura máxima	15.3
76903	7	Sololá	710	Panajachel	8	Panajachel	12	Diciembre	2023-09-12T00:00:00	2024-11-08T06:00:00	3	Temperatura mínima	14.8
76904	7	Sololá	710	Panajachel	8	Panajachel	12	Diciembre	2023-09-12T00:00:00	2024-11-08T06:00:00	5	Humedad	80
76905	7	Sololá	710	Panajachel	8	Panajachel	12	Diciembre	2023-09-12T00:00:00	2024-11-08T06:00:00	6	Velocidad del viento	0
76906	7	Sololá	710	Panajachel	8	Panajachel	12	Diciembre	2023-09-12T00:00:00	2024-11-08T06:00:00	7	Dirección del viento	0
76907	7	Sololá	710	Panajachel	8	Panajachel	12	Diciembre	2023-09-12T00:00:00	2024-11-08T06:00:00	1	Precipitación	0
76908	7	Sololá	710	Panajachel	8	Panajachel	12	Diciembre	2023-09-12T00:00:00	2024-11-08T06:00:00	8	Radiación solar	0
76909	7	Sololá	710	Panajachel	8	Panajachel	12	Diciembre	2023-09-12T00:00:00	2024-11-08T07:00:00	2	Temperatura media	14.6
76910	7	Sololá	710	Panajachel	8	Panajachel	12	Diciembre	2023-09-12T00:00:00	2024-11-08T07:00:00	4	Temperatura máxima	14.9
76911	7	Sololá	710	Panajachel	8	Panajachel	12	Diciembre	2023-09-12T00:00:00	2024-11-08T07:00:00	3	Temperatura mínima	14.4
76912	7	Sololá	710	Panajachel	8	Panajachel	12	Diciembre	2023-09-12T00:00:00	2024-11-08T07:00:00	5	Humedad	81
76913	7	Sololá	710	Panajachel	8	Panajachel	12	Diciembre	2023-09-12T00:00:00	2024-11-08T07:00:00	6	Velocidad del viento	1.6
76914	7	Sololá	710	Panajachel	8	Panajachel	12	Diciembre	2023-09-12T00:00:00	2024-11-08T07:00:00	7	Dirección del viento	1.61
76915	7	Sololá	710	Panajachel	8	Panajachel	12	Diciembre	2023-09-12T00:00:00	2024-11-08T07:00:00	1	Precipitación	0
76916	7	Sololá	710	Panajachel	8	Panajachel	12	Diciembre	2023-09-12T00:00:00	2024-11-08T07:00:00	8	Radiación solar	7
76917	7	Sololá	710	Panajachel	8	Panajachel	12	Diciembre	2023-09-12T00:00:00	2024-11-08T08:00:00	2	Temperatura media	19.2
76918	7	Sololá	710	Panajachel	8	Panajachel	12	Diciembre	2023-09-12T00:00:00	2024-11-08T08:00:00	4	Temperatura máxima	19.2
76919	7	Sololá	710	Panajachel	8	Panajachel	12	Diciembre	2023-09-12T00:00:00	2024-11-08T08:00:00	3	Temperatura mínima	14.6
76920	7	Sololá	710	Panajachel	8	Panajachel	12	Diciembre	2023-09-12T00:00:00	2024-11-08T08:00:00	5	Humedad	70
76921	7	Sololá	710	Panajachel	8	Panajachel	12	Diciembre	2023-09-12T00:00:00	2024-11-08T08:00:00	6	Velocidad del viento	0
76922	7	Sololá	710	Panajachel	8	Panajachel	12	Diciembre	2023-09-12T00:00:00	2024-11-08T08:00:00	7	Dirección del viento	0
76923	7	Sololá	710	Panajachel	8	Panajachel	12	Diciembre	2023-09-12T00:00:00	2024-11-08T08:00:00	1	Precipitación	0
76924	7	Sololá	710	Panajachel	8	Panajachel	12	Diciembre	2023-09-12T00:00:00	2024-11-08T08:00:00	8	Radiación solar	192
76925	7	Sololá	710	Panajachel	8	Panajachel	12	Diciembre	2023-09-12T00:00:00	2024-11-08T09:00:00	2	Temperatura media	20.2
76926	7	Sololá	710	Panajachel	8	Panajachel	12	Diciembre	2023-09-12T00:00:00	2024-11-08T09:00:00	4	Temperatura máxima	20.6
76927	7	Sololá	710	Panajachel	8	Panajachel	12	Diciembre	2023-09-12T00:00:00	2024-11-08T09:00:00	3	Temperatura mínima	19.2
76928	7	Sololá	710	Panajachel	8	Panajachel	12	Diciembre	2023-09-12T00:00:00	2024-11-08T09:00:00	5	Humedad	72
76929	7	Sololá	710	Panajachel	8	Panajachel	12	Diciembre	2023-09-12T00:00:00	2024-11-08T09:00:00	6	Velocidad del viento	0
76930	7	Sololá	710	Panajachel	8	Panajachel	12	Diciembre	2023-09-12T00:00:00	2024-11-08T09:00:00	7	Dirección del viento	0
76931	7	Sololá	710	Panajachel	8	Panajachel	12	Diciembre	2023-09-12T00:00:00	2024-11-08T09:00:00	1	Precipitación	0
76932	7	Sololá	710	Panajachel	8	Panajachel	12	Diciembre	2023-09-12T00:00:00	2024-11-08T09:00:00	8	Radiación solar	395
76933	7	Sololá	710	Panajachel	8	Panajachel	12	Diciembre	2023-09-12T00:00:00	2024-11-08T10:00:00	2	Temperatura media	21.1
76934	7	Sololá	710	Panajachel	8	Panajachel	12	Diciembre	2023-09-12T00:00:00	2024-11-08T10:00:00	4	Temperatura máxima	21.4
76935	7	Sololá	710	Panajachel	8	Panajachel	12	Diciembre	2023-09-12T00:00:00	2024-11-08T10:00:00	3	Temperatura mínima	20.1
76936	7	Sololá	710	Panajachel	8	Panajachel	12	Diciembre	2023-09-12T00:00:00	2024-11-08T10:00:00	5	Humedad	70
76937	7	Sololá	710	Panajachel	8	Panajachel	12	Diciembre	2023-09-12T00:00:00	2024-11-08T10:00:00	6	Velocidad del viento	3.2
76938	7	Sololá	710	Panajachel	8	Panajachel	12	Diciembre	2023-09-12T00:00:00	2024-11-08T10:00:00	7	Dirección del viento	3.22
76939	7	Sololá	710	Panajachel	8	Panajachel	12	Diciembre	2023-09-12T00:00:00	2024-11-08T10:00:00	1	Precipitación	0
76940	7	Sololá	710	Panajachel	8	Panajachel	12	Diciembre	2023-09-12T00:00:00	2024-11-08T10:00:00	8	Radiación solar	552
76941	7	Sololá	710	Panajachel	8	Panajachel	12	Diciembre	2023-09-12T00:00:00	2024-11-08T11:00:00	2	Temperatura media	22.6
76942	7	Sololá	710	Panajachel	8	Panajachel	12	Diciembre	2023-09-12T00:00:00	2024-11-08T11:00:00	4	Temperatura máxima	22.6
76943	7	Sololá	710	Panajachel	8	Panajachel	12	Diciembre	2023-09-12T00:00:00	2024-11-08T11:00:00	3	Temperatura mínima	21.1
76944	7	Sololá	710	Panajachel	8	Panajachel	12	Diciembre	2023-09-12T00:00:00	2024-11-08T11:00:00	5	Humedad	65
76945	7	Sololá	710	Panajachel	8	Panajachel	12	Diciembre	2023-09-12T00:00:00	2024-11-08T11:00:00	6	Velocidad del viento	3.2
76946	7	Sololá	710	Panajachel	8	Panajachel	12	Diciembre	2023-09-12T00:00:00	2024-11-08T11:00:00	7	Dirección del viento	3.22
76947	7	Sololá	710	Panajachel	8	Panajachel	12	Diciembre	2023-09-12T00:00:00	2024-11-08T11:00:00	1	Precipitación	0
76948	7	Sololá	710	Panajachel	8	Panajachel	12	Diciembre	2023-09-12T00:00:00	2024-11-08T11:00:00	8	Radiación solar	697
76949	7	Sololá	710	Panajachel	8	Panajachel	12	Diciembre	2023-09-12T00:00:00	2024-11-08T12:00:00	2	Temperatura media	24.9
76950	7	Sololá	710	Panajachel	8	Panajachel	12	Diciembre	2023-09-12T00:00:00	2024-11-08T12:00:00	4	Temperatura máxima	24.9
76951	7	Sololá	710	Panajachel	8	Panajachel	12	Diciembre	2023-09-12T00:00:00	2024-11-08T12:00:00	3	Temperatura mínima	22.6
76952	7	Sololá	710	Panajachel	8	Panajachel	12	Diciembre	2023-09-12T00:00:00	2024-11-08T12:00:00	5	Humedad	57
76953	7	Sololá	710	Panajachel	8	Panajachel	12	Diciembre	2023-09-12T00:00:00	2024-11-08T12:00:00	6	Velocidad del viento	3.2
76954	7	Sololá	710	Panajachel	8	Panajachel	12	Diciembre	2023-09-12T00:00:00	2024-11-08T12:00:00	7	Dirección del viento	3.22
76955	7	Sololá	710	Panajachel	8	Panajachel	12	Diciembre	2023-09-12T00:00:00	2024-11-08T12:00:00	1	Precipitación	0
76956	7	Sololá	710	Panajachel	8	Panajachel	12	Diciembre	2023-09-12T00:00:00	2024-11-08T12:00:00	8	Radiación solar	763
76957	7	Sololá	710	Panajachel	8	Panajachel	12	Diciembre	2023-09-12T00:00:00	2024-11-08T13:00:00	2	Temperatura media	27.2
76958	7	Sololá	710	Panajachel	8	Panajachel	12	Diciembre	2023-09-12T00:00:00	2024-11-08T13:00:00	4	Temperatura máxima	27.2
76959	7	Sololá	710	Panajachel	8	Panajachel	12	Diciembre	2023-09-12T00:00:00	2024-11-08T13:00:00	3	Temperatura mínima	24.9
76960	7	Sololá	710	Panajachel	8	Panajachel	12	Diciembre	2023-09-12T00:00:00	2024-11-08T13:00:00	5	Humedad	37
76961	7	Sololá	710	Panajachel	8	Panajachel	12	Diciembre	2023-09-12T00:00:00	2024-11-08T13:00:00	6	Velocidad del viento	4.8
76962	7	Sololá	710	Panajachel	8	Panajachel	12	Diciembre	2023-09-12T00:00:00	2024-11-08T13:00:00	7	Dirección del viento	4.83
76963	7	Sololá	710	Panajachel	8	Panajachel	12	Diciembre	2023-09-12T00:00:00	2024-11-08T13:00:00	1	Precipitación	0
76964	7	Sololá	710	Panajachel	8	Panajachel	12	Diciembre	2023-09-12T00:00:00	2024-11-08T13:00:00	8	Radiación solar	760
76965	7	Sololá	710	Panajachel	8	Panajachel	12	Diciembre	2023-09-12T00:00:00	2024-11-08T14:00:00	2	Temperatura media	24.8
76966	7	Sololá	710	Panajachel	8	Panajachel	12	Diciembre	2023-09-12T00:00:00	2024-11-08T14:00:00	4	Temperatura máxima	27.4
76967	7	Sololá	710	Panajachel	8	Panajachel	12	Diciembre	2023-09-12T00:00:00	2024-11-08T14:00:00	3	Temperatura mínima	24.8
76968	7	Sololá	710	Panajachel	8	Panajachel	12	Diciembre	2023-09-12T00:00:00	2024-11-08T14:00:00	5	Humedad	73
76969	7	Sololá	710	Panajachel	8	Panajachel	12	Diciembre	2023-09-12T00:00:00	2024-11-08T14:00:00	6	Velocidad del viento	8
76970	7	Sololá	710	Panajachel	8	Panajachel	12	Diciembre	2023-09-12T00:00:00	2024-11-08T14:00:00	7	Dirección del viento	8.05
76971	7	Sololá	710	Panajachel	8	Panajachel	12	Diciembre	2023-09-12T00:00:00	2024-11-08T14:00:00	1	Precipitación	0
76972	7	Sololá	710	Panajachel	8	Panajachel	12	Diciembre	2023-09-12T00:00:00	2024-11-08T14:00:00	8	Radiación solar	690
76973	7	Sololá	710	Panajachel	8	Panajachel	12	Diciembre	2023-09-12T00:00:00	2024-11-08T15:00:00	2	Temperatura media	24.7
76974	7	Sololá	710	Panajachel	8	Panajachel	12	Diciembre	2023-09-12T00:00:00	2024-11-08T15:00:00	4	Temperatura máxima	24.9
76975	7	Sololá	710	Panajachel	8	Panajachel	12	Diciembre	2023-09-12T00:00:00	2024-11-08T15:00:00	3	Temperatura mínima	23.5
76976	7	Sololá	710	Panajachel	8	Panajachel	12	Diciembre	2023-09-12T00:00:00	2024-11-08T15:00:00	5	Humedad	70
76977	7	Sololá	710	Panajachel	8	Panajachel	12	Diciembre	2023-09-12T00:00:00	2024-11-08T15:00:00	6	Velocidad del viento	8
76978	7	Sololá	710	Panajachel	8	Panajachel	12	Diciembre	2023-09-12T00:00:00	2024-11-08T15:00:00	7	Dirección del viento	8.05
76979	7	Sololá	710	Panajachel	8	Panajachel	12	Diciembre	2023-09-12T00:00:00	2024-11-08T15:00:00	1	Precipitación	0
76980	7	Sololá	710	Panajachel	8	Panajachel	12	Diciembre	2023-09-12T00:00:00	2024-11-08T15:00:00	8	Radiación solar	537
76981	7	Sololá	710	Panajachel	8	Panajachel	12	Diciembre	2023-09-12T00:00:00	2024-11-08T16:00:00	2	Temperatura media	24.6
76982	7	Sololá	710	Panajachel	8	Panajachel	12	Diciembre	2023-09-12T00:00:00	2024-11-08T16:00:00	4	Temperatura máxima	24.7
76983	7	Sololá	710	Panajachel	8	Panajachel	12	Diciembre	2023-09-12T00:00:00	2024-11-08T16:00:00	3	Temperatura mínima	23.9
76984	7	Sololá	710	Panajachel	8	Panajachel	12	Diciembre	2023-09-12T00:00:00	2024-11-08T16:00:00	5	Humedad	71
76985	7	Sololá	710	Panajachel	8	Panajachel	12	Diciembre	2023-09-12T00:00:00	2024-11-08T16:00:00	6	Velocidad del viento	4.8
76986	7	Sololá	710	Panajachel	8	Panajachel	12	Diciembre	2023-09-12T00:00:00	2024-11-08T16:00:00	7	Dirección del viento	4.83
76987	7	Sololá	710	Panajachel	8	Panajachel	12	Diciembre	2023-09-12T00:00:00	2024-11-08T16:00:00	1	Precipitación	0
76988	7	Sololá	710	Panajachel	8	Panajachel	12	Diciembre	2023-09-12T00:00:00	2024-11-08T16:00:00	8	Radiación solar	368
76989	7	Sololá	710	Panajachel	8	Panajachel	12	Diciembre	2023-09-12T00:00:00	2024-11-08T17:00:00	2	Temperatura media	23.3
76990	7	Sololá	710	Panajachel	8	Panajachel	12	Diciembre	2023-09-12T00:00:00	2024-11-08T17:00:00	4	Temperatura máxima	24.8
76991	7	Sololá	710	Panajachel	8	Panajachel	12	Diciembre	2023-09-12T00:00:00	2024-11-08T17:00:00	3	Temperatura mínima	23.2
76992	7	Sololá	710	Panajachel	8	Panajachel	12	Diciembre	2023-09-12T00:00:00	2024-11-08T17:00:00	5	Humedad	76
76993	7	Sololá	710	Panajachel	8	Panajachel	12	Diciembre	2023-09-12T00:00:00	2024-11-08T17:00:00	6	Velocidad del viento	1.6
76994	7	Sololá	710	Panajachel	8	Panajachel	12	Diciembre	2023-09-12T00:00:00	2024-11-08T17:00:00	7	Dirección del viento	1.61
76995	7	Sololá	710	Panajachel	8	Panajachel	12	Diciembre	2023-09-12T00:00:00	2024-11-08T17:00:00	1	Precipitación	0
76996	7	Sololá	710	Panajachel	8	Panajachel	12	Diciembre	2023-09-12T00:00:00	2024-11-08T17:00:00	8	Radiación solar	144
76997	7	Sololá	710	Panajachel	8	Panajachel	12	Diciembre	2023-09-12T00:00:00	2024-11-08T18:00:00	2	Temperatura media	20.9
76998	7	Sololá	710	Panajachel	8	Panajachel	12	Diciembre	2023-09-12T00:00:00	2024-11-08T18:00:00	4	Temperatura máxima	23.4
76999	7	Sololá	710	Panajachel	8	Panajachel	12	Diciembre	2023-09-12T00:00:00	2024-11-08T18:00:00	3	Temperatura mínima	20.9
77000	7	Sololá	710	Panajachel	8	Panajachel	12	Diciembre	2023-09-12T00:00:00	2024-11-08T18:00:00	5	Humedad	77
77001	7	Sololá	710	Panajachel	8	Panajachel	12	Diciembre	2023-09-12T00:00:00	2024-11-08T18:00:00	6	Velocidad del viento	1.6
77002	7	Sololá	710	Panajachel	8	Panajachel	12	Diciembre	2023-09-12T00:00:00	2024-11-08T18:00:00	7	Dirección del viento	1.61
77003	7	Sololá	710	Panajachel	8	Panajachel	12	Diciembre	2023-09-12T00:00:00	2024-11-08T18:00:00	1	Precipitación	0
77004	7	Sololá	710	Panajachel	8	Panajachel	12	Diciembre	2023-09-12T00:00:00	2024-11-08T18:00:00	8	Radiación solar	14
77005	7	Sololá	710	Panajachel	8	Panajachel	12	Diciembre	2023-09-12T00:00:00	2024-11-08T19:00:00	2	Temperatura media	19.4
77006	7	Sololá	710	Panajachel	8	Panajachel	12	Diciembre	2023-09-12T00:00:00	2024-11-08T19:00:00	4	Temperatura máxima	20.9
77007	7	Sololá	710	Panajachel	8	Panajachel	12	Diciembre	2023-09-12T00:00:00	2024-11-08T19:00:00	3	Temperatura mínima	19.4
77008	7	Sololá	710	Panajachel	8	Panajachel	12	Diciembre	2023-09-12T00:00:00	2024-11-08T19:00:00	5	Humedad	69
77009	7	Sololá	710	Panajachel	8	Panajachel	12	Diciembre	2023-09-12T00:00:00	2024-11-08T19:00:00	6	Velocidad del viento	0
77010	7	Sololá	710	Panajachel	8	Panajachel	12	Diciembre	2023-09-12T00:00:00	2024-11-08T19:00:00	7	Dirección del viento	0
77011	7	Sololá	710	Panajachel	8	Panajachel	12	Diciembre	2023-09-12T00:00:00	2024-11-08T19:00:00	1	Precipitación	0
77012	7	Sololá	710	Panajachel	8	Panajachel	12	Diciembre	2023-09-12T00:00:00	2024-11-08T19:00:00	8	Radiación solar	0
77013	7	Sololá	710	Panajachel	8	Panajachel	12	Diciembre	2023-09-12T00:00:00	2024-11-08T20:00:00	2	Temperatura media	18.8
77014	7	Sololá	710	Panajachel	8	Panajachel	12	Diciembre	2023-09-12T00:00:00	2024-11-08T20:00:00	4	Temperatura máxima	19.4
77015	7	Sololá	710	Panajachel	8	Panajachel	12	Diciembre	2023-09-12T00:00:00	2024-11-08T20:00:00	3	Temperatura mínima	18.8
77016	7	Sololá	710	Panajachel	8	Panajachel	12	Diciembre	2023-09-12T00:00:00	2024-11-08T20:00:00	5	Humedad	74
77017	7	Sololá	710	Panajachel	8	Panajachel	12	Diciembre	2023-09-12T00:00:00	2024-11-08T20:00:00	6	Velocidad del viento	1.6
77018	7	Sololá	710	Panajachel	8	Panajachel	12	Diciembre	2023-09-12T00:00:00	2024-11-08T20:00:00	7	Dirección del viento	1.61
77019	7	Sololá	710	Panajachel	8	Panajachel	12	Diciembre	2023-09-12T00:00:00	2024-11-08T20:00:00	1	Precipitación	0
77020	7	Sololá	710	Panajachel	8	Panajachel	12	Diciembre	2023-09-12T00:00:00	2024-11-08T20:00:00	8	Radiación solar	0
77021	7	Sololá	710	Panajachel	8	Panajachel	12	Diciembre	2023-09-12T00:00:00	2024-11-08T21:00:00	2	Temperatura media	18.1
77022	7	Sololá	710	Panajachel	8	Panajachel	12	Diciembre	2023-09-12T00:00:00	2024-11-08T21:00:00	4	Temperatura máxima	18.8
77023	7	Sololá	710	Panajachel	8	Panajachel	12	Diciembre	2023-09-12T00:00:00	2024-11-08T21:00:00	3	Temperatura mínima	18
77024	7	Sololá	710	Panajachel	8	Panajachel	12	Diciembre	2023-09-12T00:00:00	2024-11-08T21:00:00	5	Humedad	79
77025	7	Sololá	710	Panajachel	8	Panajachel	12	Diciembre	2023-09-12T00:00:00	2024-11-08T21:00:00	6	Velocidad del viento	3.2
77026	7	Sololá	710	Panajachel	8	Panajachel	12	Diciembre	2023-09-12T00:00:00	2024-11-08T21:00:00	7	Dirección del viento	3.22
77027	7	Sololá	710	Panajachel	8	Panajachel	12	Diciembre	2023-09-12T00:00:00	2024-11-08T21:00:00	1	Precipitación	0
77028	7	Sololá	710	Panajachel	8	Panajachel	12	Diciembre	2023-09-12T00:00:00	2024-11-08T21:00:00	8	Radiación solar	0
77029	7	Sololá	710	Panajachel	8	Panajachel	12	Diciembre	2023-09-12T00:00:00	2024-11-08T22:00:00	2	Temperatura media	17.7
77030	7	Sololá	710	Panajachel	8	Panajachel	12	Diciembre	2023-09-12T00:00:00	2024-11-08T22:00:00	4	Temperatura máxima	18.3
77031	7	Sololá	710	Panajachel	8	Panajachel	12	Diciembre	2023-09-12T00:00:00	2024-11-08T22:00:00	3	Temperatura mínima	17.7
77032	7	Sololá	710	Panajachel	8	Panajachel	12	Diciembre	2023-09-12T00:00:00	2024-11-08T22:00:00	5	Humedad	78
77033	7	Sololá	710	Panajachel	8	Panajachel	12	Diciembre	2023-09-12T00:00:00	2024-11-08T22:00:00	6	Velocidad del viento	3.2
77034	7	Sololá	710	Panajachel	8	Panajachel	12	Diciembre	2023-09-12T00:00:00	2024-11-08T22:00:00	7	Dirección del viento	3.22
77035	7	Sololá	710	Panajachel	8	Panajachel	12	Diciembre	2023-09-12T00:00:00	2024-11-08T22:00:00	1	Precipitación	0
77036	7	Sololá	710	Panajachel	8	Panajachel	12	Diciembre	2023-09-12T00:00:00	2024-11-08T22:00:00	8	Radiación solar	0
77037	7	Sololá	710	Panajachel	8	Panajachel	12	Diciembre	2023-09-12T00:00:00	2024-11-08T23:00:00	2	Temperatura media	17.9
77038	7	Sololá	710	Panajachel	8	Panajachel	12	Diciembre	2023-09-12T00:00:00	2024-11-08T23:00:00	4	Temperatura máxima	18.3
77039	7	Sololá	710	Panajachel	8	Panajachel	12	Diciembre	2023-09-12T00:00:00	2024-11-08T23:00:00	3	Temperatura mínima	17.4
77040	7	Sololá	710	Panajachel	8	Panajachel	12	Diciembre	2023-09-12T00:00:00	2024-11-08T23:00:00	5	Humedad	76
77041	7	Sololá	710	Panajachel	8	Panajachel	12	Diciembre	2023-09-12T00:00:00	2024-11-08T23:00:00	6	Velocidad del viento	1.6
77042	7	Sololá	710	Panajachel	8	Panajachel	12	Diciembre	2023-09-12T00:00:00	2024-11-08T23:00:00	7	Dirección del viento	1.61
77043	7	Sololá	710	Panajachel	8	Panajachel	12	Diciembre	2023-09-12T00:00:00	2024-11-08T23:00:00	1	Precipitación	0
77044	7	Sololá	710	Panajachel	8	Panajachel	12	Diciembre	2023-09-12T00:00:00	2024-11-08T23:00:00	8	Radiación solar	0
77045	7	Sololá	710	Panajachel	8	Panajachel	12	Diciembre	2023-10-12T00:00:00	2024-11-08T00:00:00	2	Temperatura media	17.7
77046	7	Sololá	710	Panajachel	8	Panajachel	12	Diciembre	2023-10-12T00:00:00	2024-11-08T00:00:00	4	Temperatura máxima	17.9
77047	7	Sololá	710	Panajachel	8	Panajachel	12	Diciembre	2023-10-12T00:00:00	2024-11-08T00:00:00	3	Temperatura mínima	17.2
77048	7	Sololá	710	Panajachel	8	Panajachel	12	Diciembre	2023-10-12T00:00:00	2024-11-08T00:00:00	5	Humedad	78
77049	7	Sololá	710	Panajachel	8	Panajachel	12	Diciembre	2023-10-12T00:00:00	2024-11-08T00:00:00	6	Velocidad del viento	3.2
77050	7	Sololá	710	Panajachel	8	Panajachel	12	Diciembre	2023-10-12T00:00:00	2024-11-08T00:00:00	7	Dirección del viento	3.22
77051	7	Sololá	710	Panajachel	8	Panajachel	12	Diciembre	2023-10-12T00:00:00	2024-11-08T00:00:00	1	Precipitación	0
77052	7	Sololá	710	Panajachel	8	Panajachel	12	Diciembre	2023-10-12T00:00:00	2024-11-08T00:00:00	8	Radiación solar	0
77053	7	Sololá	710	Panajachel	8	Panajachel	12	Diciembre	2023-10-12T00:00:00	2024-11-08T01:00:00	2	Temperatura media	17.6
77054	7	Sololá	710	Panajachel	8	Panajachel	12	Diciembre	2023-10-12T00:00:00	2024-11-08T01:00:00	4	Temperatura máxima	18
77055	7	Sololá	710	Panajachel	8	Panajachel	12	Diciembre	2023-10-12T00:00:00	2024-11-08T01:00:00	3	Temperatura mínima	17.3
77056	7	Sololá	710	Panajachel	8	Panajachel	12	Diciembre	2023-10-12T00:00:00	2024-11-08T01:00:00	5	Humedad	76
77057	7	Sololá	710	Panajachel	8	Panajachel	12	Diciembre	2023-10-12T00:00:00	2024-11-08T01:00:00	6	Velocidad del viento	4.8
77058	7	Sololá	710	Panajachel	8	Panajachel	12	Diciembre	2023-10-12T00:00:00	2024-11-08T01:00:00	7	Dirección del viento	4.83
77059	7	Sololá	710	Panajachel	8	Panajachel	12	Diciembre	2023-10-12T00:00:00	2024-11-08T01:00:00	1	Precipitación	0
77060	7	Sololá	710	Panajachel	8	Panajachel	12	Diciembre	2023-10-12T00:00:00	2024-11-08T01:00:00	8	Radiación solar	0
77061	7	Sololá	710	Panajachel	8	Panajachel	12	Diciembre	2023-10-12T00:00:00	2024-11-08T02:00:00	2	Temperatura media	17.2
77062	7	Sololá	710	Panajachel	8	Panajachel	12	Diciembre	2023-10-12T00:00:00	2024-11-08T02:00:00	4	Temperatura máxima	17.6
77063	7	Sololá	710	Panajachel	8	Panajachel	12	Diciembre	2023-10-12T00:00:00	2024-11-08T02:00:00	3	Temperatura mínima	16.9
77064	7	Sololá	710	Panajachel	8	Panajachel	12	Diciembre	2023-10-12T00:00:00	2024-11-08T02:00:00	5	Humedad	74
77065	7	Sololá	710	Panajachel	8	Panajachel	12	Diciembre	2023-10-12T00:00:00	2024-11-08T02:00:00	6	Velocidad del viento	1.6
77066	7	Sololá	710	Panajachel	8	Panajachel	12	Diciembre	2023-10-12T00:00:00	2024-11-08T02:00:00	7	Dirección del viento	1.61
77067	7	Sololá	710	Panajachel	8	Panajachel	12	Diciembre	2023-10-12T00:00:00	2024-11-08T02:00:00	1	Precipitación	0
77068	7	Sololá	710	Panajachel	8	Panajachel	12	Diciembre	2023-10-12T00:00:00	2024-11-08T02:00:00	8	Radiación solar	0
77069	7	Sololá	710	Panajachel	8	Panajachel	12	Diciembre	2023-10-12T00:00:00	2024-11-08T03:00:00	2	Temperatura media	17.1
77070	7	Sololá	710	Panajachel	8	Panajachel	12	Diciembre	2023-10-12T00:00:00	2024-11-08T03:00:00	4	Temperatura máxima	17.2
77071	7	Sololá	710	Panajachel	8	Panajachel	12	Diciembre	2023-10-12T00:00:00	2024-11-08T03:00:00	3	Temperatura mínima	16.7
77072	7	Sololá	710	Panajachel	8	Panajachel	12	Diciembre	2023-10-12T00:00:00	2024-11-08T03:00:00	5	Humedad	73
77073	7	Sololá	710	Panajachel	8	Panajachel	12	Diciembre	2023-10-12T00:00:00	2024-11-08T03:00:00	6	Velocidad del viento	3.2
77074	7	Sololá	710	Panajachel	8	Panajachel	12	Diciembre	2023-10-12T00:00:00	2024-11-08T03:00:00	7	Dirección del viento	3.22
77075	7	Sololá	710	Panajachel	8	Panajachel	12	Diciembre	2023-10-12T00:00:00	2024-11-08T03:00:00	1	Precipitación	0
77076	7	Sololá	710	Panajachel	8	Panajachel	12	Diciembre	2023-10-12T00:00:00	2024-11-08T03:00:00	8	Radiación solar	0
77077	7	Sololá	710	Panajachel	8	Panajachel	12	Diciembre	2023-10-12T00:00:00	2024-11-08T04:00:00	2	Temperatura media	16.1
77078	7	Sololá	710	Panajachel	8	Panajachel	12	Diciembre	2023-10-12T00:00:00	2024-11-08T04:00:00	4	Temperatura máxima	17.2
77079	7	Sololá	710	Panajachel	8	Panajachel	12	Diciembre	2023-10-12T00:00:00	2024-11-08T04:00:00	3	Temperatura mínima	16.1
77080	7	Sololá	710	Panajachel	8	Panajachel	12	Diciembre	2023-10-12T00:00:00	2024-11-08T04:00:00	5	Humedad	75
77081	7	Sololá	710	Panajachel	8	Panajachel	12	Diciembre	2023-10-12T00:00:00	2024-11-08T04:00:00	6	Velocidad del viento	3.2
77082	7	Sololá	710	Panajachel	8	Panajachel	12	Diciembre	2023-10-12T00:00:00	2024-11-08T04:00:00	7	Dirección del viento	3.22
77083	7	Sololá	710	Panajachel	8	Panajachel	12	Diciembre	2023-10-12T00:00:00	2024-11-08T04:00:00	1	Precipitación	0
77084	7	Sololá	710	Panajachel	8	Panajachel	12	Diciembre	2023-10-12T00:00:00	2024-11-08T04:00:00	8	Radiación solar	0
77085	7	Sololá	710	Panajachel	8	Panajachel	12	Diciembre	2023-10-12T00:00:00	2024-11-08T05:00:00	2	Temperatura media	15.3
77086	7	Sololá	710	Panajachel	8	Panajachel	12	Diciembre	2023-10-12T00:00:00	2024-11-08T05:00:00	4	Temperatura máxima	16.1
77087	7	Sololá	710	Panajachel	8	Panajachel	12	Diciembre	2023-10-12T00:00:00	2024-11-08T05:00:00	3	Temperatura mínima	15.2
77088	7	Sololá	710	Panajachel	8	Panajachel	12	Diciembre	2023-10-12T00:00:00	2024-11-08T05:00:00	5	Humedad	75
77089	7	Sololá	710	Panajachel	8	Panajachel	12	Diciembre	2023-10-12T00:00:00	2024-11-08T05:00:00	6	Velocidad del viento	6.4
77090	7	Sololá	710	Panajachel	8	Panajachel	12	Diciembre	2023-10-12T00:00:00	2024-11-08T05:00:00	7	Dirección del viento	6.44
77091	7	Sololá	710	Panajachel	8	Panajachel	12	Diciembre	2023-10-12T00:00:00	2024-11-08T05:00:00	1	Precipitación	0
77092	7	Sololá	710	Panajachel	8	Panajachel	12	Diciembre	2023-10-12T00:00:00	2024-11-08T05:00:00	8	Radiación solar	0
77093	7	Sololá	710	Panajachel	8	Panajachel	12	Diciembre	2023-10-12T00:00:00	2024-11-08T06:00:00	2	Temperatura media	15.5
77094	7	Sololá	710	Panajachel	8	Panajachel	12	Diciembre	2023-10-12T00:00:00	2024-11-08T06:00:00	4	Temperatura máxima	15.8
77095	7	Sololá	710	Panajachel	8	Panajachel	12	Diciembre	2023-10-12T00:00:00	2024-11-08T06:00:00	3	Temperatura mínima	15.2
77096	7	Sololá	710	Panajachel	8	Panajachel	12	Diciembre	2023-10-12T00:00:00	2024-11-08T06:00:00	5	Humedad	72
77097	7	Sololá	710	Panajachel	8	Panajachel	12	Diciembre	2023-10-12T00:00:00	2024-11-08T06:00:00	6	Velocidad del viento	3.2
77098	7	Sololá	710	Panajachel	8	Panajachel	12	Diciembre	2023-10-12T00:00:00	2024-11-08T06:00:00	7	Dirección del viento	3.22
77099	7	Sololá	710	Panajachel	8	Panajachel	12	Diciembre	2023-10-12T00:00:00	2024-11-08T06:00:00	1	Precipitación	0
77100	7	Sololá	710	Panajachel	8	Panajachel	12	Diciembre	2023-10-12T00:00:00	2024-11-08T06:00:00	8	Radiación solar	0
77101	7	Sololá	710	Panajachel	8	Panajachel	12	Diciembre	2023-10-12T00:00:00	2024-11-08T07:00:00	2	Temperatura media	14.2
77102	7	Sololá	710	Panajachel	8	Panajachel	12	Diciembre	2023-10-12T00:00:00	2024-11-08T07:00:00	4	Temperatura máxima	15.5
77103	7	Sololá	710	Panajachel	8	Panajachel	12	Diciembre	2023-10-12T00:00:00	2024-11-08T07:00:00	3	Temperatura mínima	14.2
77104	7	Sololá	710	Panajachel	8	Panajachel	12	Diciembre	2023-10-12T00:00:00	2024-11-08T07:00:00	5	Humedad	79
77105	7	Sololá	710	Panajachel	8	Panajachel	12	Diciembre	2023-10-12T00:00:00	2024-11-08T07:00:00	6	Velocidad del viento	0
77106	7	Sololá	710	Panajachel	8	Panajachel	12	Diciembre	2023-10-12T00:00:00	2024-11-08T07:00:00	7	Dirección del viento	0
77107	7	Sololá	710	Panajachel	8	Panajachel	12	Diciembre	2023-10-12T00:00:00	2024-11-08T07:00:00	1	Precipitación	0
77108	7	Sololá	710	Panajachel	8	Panajachel	12	Diciembre	2023-10-12T00:00:00	2024-11-08T07:00:00	8	Radiación solar	8
77109	7	Sololá	710	Panajachel	8	Panajachel	12	Diciembre	2023-10-12T00:00:00	2024-11-08T08:00:00	2	Temperatura media	19.1
77110	7	Sololá	710	Panajachel	8	Panajachel	12	Diciembre	2023-10-12T00:00:00	2024-11-08T08:00:00	4	Temperatura máxima	19.1
77111	7	Sololá	710	Panajachel	8	Panajachel	12	Diciembre	2023-10-12T00:00:00	2024-11-08T08:00:00	3	Temperatura mínima	14.2
77112	7	Sololá	710	Panajachel	8	Panajachel	12	Diciembre	2023-10-12T00:00:00	2024-11-08T08:00:00	5	Humedad	65
77113	7	Sololá	710	Panajachel	8	Panajachel	12	Diciembre	2023-10-12T00:00:00	2024-11-08T08:00:00	6	Velocidad del viento	0
77114	7	Sololá	710	Panajachel	8	Panajachel	12	Diciembre	2023-10-12T00:00:00	2024-11-08T08:00:00	7	Dirección del viento	0
77115	7	Sololá	710	Panajachel	8	Panajachel	12	Diciembre	2023-10-12T00:00:00	2024-11-08T08:00:00	1	Precipitación	0
77116	7	Sololá	710	Panajachel	8	Panajachel	12	Diciembre	2023-10-12T00:00:00	2024-11-08T08:00:00	8	Radiación solar	188
77117	7	Sololá	710	Panajachel	8	Panajachel	12	Diciembre	2023-10-12T00:00:00	2024-11-08T09:00:00	2	Temperatura media	19.2
77118	7	Sololá	710	Panajachel	8	Panajachel	12	Diciembre	2023-10-12T00:00:00	2024-11-08T09:00:00	4	Temperatura máxima	20.3
77119	7	Sololá	710	Panajachel	8	Panajachel	12	Diciembre	2023-10-12T00:00:00	2024-11-08T09:00:00	3	Temperatura mínima	19.1
77120	7	Sololá	710	Panajachel	8	Panajachel	12	Diciembre	2023-10-12T00:00:00	2024-11-08T09:00:00	5	Humedad	76
77121	7	Sololá	710	Panajachel	8	Panajachel	12	Diciembre	2023-10-12T00:00:00	2024-11-08T09:00:00	6	Velocidad del viento	1.6
77122	7	Sololá	710	Panajachel	8	Panajachel	12	Diciembre	2023-10-12T00:00:00	2024-11-08T09:00:00	7	Dirección del viento	1.61
77123	7	Sololá	710	Panajachel	8	Panajachel	12	Diciembre	2023-10-12T00:00:00	2024-11-08T09:00:00	1	Precipitación	0
77124	7	Sololá	710	Panajachel	8	Panajachel	12	Diciembre	2023-10-12T00:00:00	2024-11-08T09:00:00	8	Radiación solar	395
77125	7	Sololá	710	Panajachel	8	Panajachel	12	Diciembre	2023-10-12T00:00:00	2024-11-08T10:00:00	2	Temperatura media	20.4
77126	7	Sololá	710	Panajachel	8	Panajachel	12	Diciembre	2023-10-12T00:00:00	2024-11-08T10:00:00	4	Temperatura máxima	20.9
77127	7	Sololá	710	Panajachel	8	Panajachel	12	Diciembre	2023-10-12T00:00:00	2024-11-08T10:00:00	3	Temperatura mínima	19.2
77128	7	Sololá	710	Panajachel	8	Panajachel	12	Diciembre	2023-10-12T00:00:00	2024-11-08T10:00:00	5	Humedad	70
77129	7	Sololá	710	Panajachel	8	Panajachel	12	Diciembre	2023-10-12T00:00:00	2024-11-08T10:00:00	6	Velocidad del viento	1.6
77130	7	Sololá	710	Panajachel	8	Panajachel	12	Diciembre	2023-10-12T00:00:00	2024-11-08T10:00:00	7	Dirección del viento	1.61
77131	7	Sololá	710	Panajachel	8	Panajachel	12	Diciembre	2023-10-12T00:00:00	2024-11-08T10:00:00	1	Precipitación	0
77132	7	Sololá	710	Panajachel	8	Panajachel	12	Diciembre	2023-10-12T00:00:00	2024-11-08T10:00:00	8	Radiación solar	571
77133	7	Sololá	710	Panajachel	8	Panajachel	12	Diciembre	2023-10-12T00:00:00	2024-11-08T11:00:00	2	Temperatura media	21.4
77134	7	Sololá	710	Panajachel	8	Panajachel	12	Diciembre	2023-10-12T00:00:00	2024-11-08T11:00:00	4	Temperatura máxima	21.4
77135	7	Sololá	710	Panajachel	8	Panajachel	12	Diciembre	2023-10-12T00:00:00	2024-11-08T11:00:00	3	Temperatura mínima	20.4
77136	7	Sololá	710	Panajachel	8	Panajachel	12	Diciembre	2023-10-12T00:00:00	2024-11-08T11:00:00	5	Humedad	67
77137	7	Sololá	710	Panajachel	8	Panajachel	12	Diciembre	2023-10-12T00:00:00	2024-11-08T11:00:00	6	Velocidad del viento	1.6
77138	7	Sololá	710	Panajachel	8	Panajachel	12	Diciembre	2023-10-12T00:00:00	2024-11-08T11:00:00	7	Dirección del viento	1.61
77139	7	Sololá	710	Panajachel	8	Panajachel	12	Diciembre	2023-10-12T00:00:00	2024-11-08T11:00:00	1	Precipitación	0
77140	7	Sololá	710	Panajachel	8	Panajachel	12	Diciembre	2023-10-12T00:00:00	2024-11-08T11:00:00	8	Radiación solar	687
77141	7	Sololá	710	Panajachel	8	Panajachel	12	Diciembre	2023-10-12T00:00:00	2024-11-08T12:00:00	2	Temperatura media	23.9
77142	7	Sololá	710	Panajachel	8	Panajachel	12	Diciembre	2023-10-12T00:00:00	2024-11-08T12:00:00	4	Temperatura máxima	24.2
77143	7	Sololá	710	Panajachel	8	Panajachel	12	Diciembre	2023-10-12T00:00:00	2024-11-08T12:00:00	3	Temperatura mínima	21.4
77144	7	Sololá	710	Panajachel	8	Panajachel	12	Diciembre	2023-10-12T00:00:00	2024-11-08T12:00:00	5	Humedad	58
77145	7	Sololá	710	Panajachel	8	Panajachel	12	Diciembre	2023-10-12T00:00:00	2024-11-08T12:00:00	6	Velocidad del viento	1.6
77146	7	Sololá	710	Panajachel	8	Panajachel	12	Diciembre	2023-10-12T00:00:00	2024-11-08T12:00:00	7	Dirección del viento	1.61
77147	7	Sololá	710	Panajachel	8	Panajachel	12	Diciembre	2023-10-12T00:00:00	2024-11-08T12:00:00	1	Precipitación	0
77148	7	Sololá	710	Panajachel	8	Panajachel	12	Diciembre	2023-10-12T00:00:00	2024-11-08T12:00:00	8	Radiación solar	767
77149	7	Sololá	710	Panajachel	8	Panajachel	12	Diciembre	2023-10-12T00:00:00	2024-11-08T13:00:00	2	Temperatura media	23.9
77150	7	Sololá	710	Panajachel	8	Panajachel	12	Diciembre	2023-10-12T00:00:00	2024-11-08T13:00:00	4	Temperatura máxima	24.7
77151	7	Sololá	710	Panajachel	8	Panajachel	12	Diciembre	2023-10-12T00:00:00	2024-11-08T13:00:00	3	Temperatura mínima	23.6
77152	7	Sololá	710	Panajachel	8	Panajachel	12	Diciembre	2023-10-12T00:00:00	2024-11-08T13:00:00	5	Humedad	65
77153	7	Sololá	710	Panajachel	8	Panajachel	12	Diciembre	2023-10-12T00:00:00	2024-11-08T13:00:00	6	Velocidad del viento	3.2
77154	7	Sololá	710	Panajachel	8	Panajachel	12	Diciembre	2023-10-12T00:00:00	2024-11-08T13:00:00	7	Dirección del viento	3.22
77155	7	Sololá	710	Panajachel	8	Panajachel	12	Diciembre	2023-10-12T00:00:00	2024-11-08T13:00:00	1	Precipitación	0
77156	7	Sololá	710	Panajachel	8	Panajachel	12	Diciembre	2023-10-12T00:00:00	2024-11-08T13:00:00	8	Radiación solar	765
77157	7	Sololá	710	Panajachel	8	Panajachel	12	Diciembre	2023-10-12T00:00:00	2024-11-08T14:00:00	2	Temperatura media	24.1
77158	7	Sololá	710	Panajachel	8	Panajachel	12	Diciembre	2023-10-12T00:00:00	2024-11-08T14:00:00	4	Temperatura máxima	24.9
77159	7	Sololá	710	Panajachel	8	Panajachel	12	Diciembre	2023-10-12T00:00:00	2024-11-08T14:00:00	3	Temperatura mínima	23.7
77160	7	Sololá	710	Panajachel	8	Panajachel	12	Diciembre	2023-10-12T00:00:00	2024-11-08T14:00:00	5	Humedad	72
77161	7	Sololá	710	Panajachel	8	Panajachel	12	Diciembre	2023-10-12T00:00:00	2024-11-08T14:00:00	6	Velocidad del viento	3.2
77162	7	Sololá	710	Panajachel	8	Panajachel	12	Diciembre	2023-10-12T00:00:00	2024-11-08T14:00:00	7	Dirección del viento	3.22
77163	7	Sololá	710	Panajachel	8	Panajachel	12	Diciembre	2023-10-12T00:00:00	2024-11-08T14:00:00	1	Precipitación	0
77164	7	Sololá	710	Panajachel	8	Panajachel	12	Diciembre	2023-10-12T00:00:00	2024-11-08T14:00:00	8	Radiación solar	501
77165	7	Sololá	710	Panajachel	8	Panajachel	12	Diciembre	2023-10-12T00:00:00	2024-11-08T15:00:00	2	Temperatura media	23.6
77166	7	Sololá	710	Panajachel	8	Panajachel	12	Diciembre	2023-10-12T00:00:00	2024-11-08T15:00:00	4	Temperatura máxima	24.3
77167	7	Sololá	710	Panajachel	8	Panajachel	12	Diciembre	2023-10-12T00:00:00	2024-11-08T15:00:00	3	Temperatura mínima	23.6
77168	7	Sololá	710	Panajachel	8	Panajachel	12	Diciembre	2023-10-12T00:00:00	2024-11-08T15:00:00	5	Humedad	72
77169	7	Sololá	710	Panajachel	8	Panajachel	12	Diciembre	2023-10-12T00:00:00	2024-11-08T15:00:00	6	Velocidad del viento	3.2
77170	7	Sololá	710	Panajachel	8	Panajachel	12	Diciembre	2023-10-12T00:00:00	2024-11-08T15:00:00	7	Dirección del viento	3.22
77171	7	Sololá	710	Panajachel	8	Panajachel	12	Diciembre	2023-10-12T00:00:00	2024-11-08T15:00:00	1	Precipitación	0
77172	7	Sololá	710	Panajachel	8	Panajachel	12	Diciembre	2023-10-12T00:00:00	2024-11-08T15:00:00	8	Radiación solar	271
77173	7	Sololá	710	Panajachel	8	Panajachel	12	Diciembre	2023-10-12T00:00:00	2024-11-08T16:00:00	2	Temperatura media	24.5
77174	7	Sololá	710	Panajachel	8	Panajachel	12	Diciembre	2023-10-12T00:00:00	2024-11-08T16:00:00	4	Temperatura máxima	24.5
77175	7	Sololá	710	Panajachel	8	Panajachel	12	Diciembre	2023-10-12T00:00:00	2024-11-08T16:00:00	3	Temperatura mínima	23.2
77176	7	Sololá	710	Panajachel	8	Panajachel	12	Diciembre	2023-10-12T00:00:00	2024-11-08T16:00:00	5	Humedad	74
77177	7	Sololá	710	Panajachel	8	Panajachel	12	Diciembre	2023-10-12T00:00:00	2024-11-08T16:00:00	6	Velocidad del viento	6.4
77178	7	Sololá	710	Panajachel	8	Panajachel	12	Diciembre	2023-10-12T00:00:00	2024-11-08T16:00:00	7	Dirección del viento	6.44
77179	7	Sololá	710	Panajachel	8	Panajachel	12	Diciembre	2023-10-12T00:00:00	2024-11-08T16:00:00	1	Precipitación	0
77180	7	Sololá	710	Panajachel	8	Panajachel	12	Diciembre	2023-10-12T00:00:00	2024-11-08T16:00:00	8	Radiación solar	367
77181	7	Sololá	710	Panajachel	8	Panajachel	12	Diciembre	2023-10-12T00:00:00	2024-11-08T17:00:00	2	Temperatura media	23.4
77182	7	Sololá	710	Panajachel	8	Panajachel	12	Diciembre	2023-10-12T00:00:00	2024-11-08T17:00:00	4	Temperatura máxima	24.6
77183	7	Sololá	710	Panajachel	8	Panajachel	12	Diciembre	2023-10-12T00:00:00	2024-11-08T17:00:00	3	Temperatura mínima	23.3
77184	7	Sololá	710	Panajachel	8	Panajachel	12	Diciembre	2023-10-12T00:00:00	2024-11-08T17:00:00	5	Humedad	77
77185	7	Sololá	710	Panajachel	8	Panajachel	12	Diciembre	2023-10-12T00:00:00	2024-11-08T17:00:00	6	Velocidad del viento	3.2
77186	7	Sololá	710	Panajachel	8	Panajachel	12	Diciembre	2023-10-12T00:00:00	2024-11-08T17:00:00	7	Dirección del viento	3.22
77187	7	Sololá	710	Panajachel	8	Panajachel	12	Diciembre	2023-10-12T00:00:00	2024-11-08T17:00:00	1	Precipitación	0
77188	7	Sololá	710	Panajachel	8	Panajachel	12	Diciembre	2023-10-12T00:00:00	2024-11-08T17:00:00	8	Radiación solar	163
77189	7	Sololá	710	Panajachel	8	Panajachel	12	Diciembre	2023-10-12T00:00:00	2024-11-08T18:00:00	2	Temperatura media	21.2
77190	7	Sololá	710	Panajachel	8	Panajachel	12	Diciembre	2023-10-12T00:00:00	2024-11-08T18:00:00	4	Temperatura máxima	23.4
77191	7	Sololá	710	Panajachel	8	Panajachel	12	Diciembre	2023-10-12T00:00:00	2024-11-08T18:00:00	3	Temperatura mínima	21.2
77192	7	Sololá	710	Panajachel	8	Panajachel	12	Diciembre	2023-10-12T00:00:00	2024-11-08T18:00:00	5	Humedad	83
77193	7	Sololá	710	Panajachel	8	Panajachel	12	Diciembre	2023-10-12T00:00:00	2024-11-08T18:00:00	6	Velocidad del viento	0
77194	7	Sololá	710	Panajachel	8	Panajachel	12	Diciembre	2023-10-12T00:00:00	2024-11-08T18:00:00	7	Dirección del viento	0
77195	7	Sololá	710	Panajachel	8	Panajachel	12	Diciembre	2023-10-12T00:00:00	2024-11-08T18:00:00	1	Precipitación	0
77196	7	Sololá	710	Panajachel	8	Panajachel	12	Diciembre	2023-10-12T00:00:00	2024-11-08T18:00:00	8	Radiación solar	15
77197	7	Sololá	710	Panajachel	8	Panajachel	12	Diciembre	2023-10-12T00:00:00	2024-11-08T19:00:00	2	Temperatura media	20.3
77198	7	Sololá	710	Panajachel	8	Panajachel	12	Diciembre	2023-10-12T00:00:00	2024-11-08T19:00:00	4	Temperatura máxima	21.2
77199	7	Sololá	710	Panajachel	8	Panajachel	12	Diciembre	2023-10-12T00:00:00	2024-11-08T19:00:00	3	Temperatura mínima	20.1
77200	7	Sololá	710	Panajachel	8	Panajachel	12	Diciembre	2023-10-12T00:00:00	2024-11-08T19:00:00	5	Humedad	75
77201	7	Sololá	710	Panajachel	8	Panajachel	12	Diciembre	2023-10-12T00:00:00	2024-11-08T19:00:00	6	Velocidad del viento	0
77202	7	Sololá	710	Panajachel	8	Panajachel	12	Diciembre	2023-10-12T00:00:00	2024-11-08T19:00:00	7	Dirección del viento	0
77203	7	Sololá	710	Panajachel	8	Panajachel	12	Diciembre	2023-10-12T00:00:00	2024-11-08T19:00:00	1	Precipitación	0
77204	7	Sololá	710	Panajachel	8	Panajachel	12	Diciembre	2023-10-12T00:00:00	2024-11-08T19:00:00	8	Radiación solar	0
77205	7	Sololá	710	Panajachel	8	Panajachel	12	Diciembre	2023-10-12T00:00:00	2024-11-08T20:00:00	2	Temperatura media	21.3
77206	7	Sololá	710	Panajachel	8	Panajachel	12	Diciembre	2023-10-12T00:00:00	2024-11-08T20:00:00	4	Temperatura máxima	21.6
77207	7	Sololá	710	Panajachel	8	Panajachel	12	Diciembre	2023-10-12T00:00:00	2024-11-08T20:00:00	3	Temperatura mínima	20
77208	7	Sololá	710	Panajachel	8	Panajachel	12	Diciembre	2023-10-12T00:00:00	2024-11-08T20:00:00	5	Humedad	69
77209	7	Sololá	710	Panajachel	8	Panajachel	12	Diciembre	2023-10-12T00:00:00	2024-11-08T20:00:00	6	Velocidad del viento	6.4
77210	7	Sololá	710	Panajachel	8	Panajachel	12	Diciembre	2023-10-12T00:00:00	2024-11-08T20:00:00	7	Dirección del viento	6.44
77211	7	Sololá	710	Panajachel	8	Panajachel	12	Diciembre	2023-10-12T00:00:00	2024-11-08T20:00:00	1	Precipitación	0
77212	7	Sololá	710	Panajachel	8	Panajachel	12	Diciembre	2023-10-12T00:00:00	2024-11-08T20:00:00	8	Radiación solar	0
77213	7	Sololá	710	Panajachel	8	Panajachel	12	Diciembre	2023-10-12T00:00:00	2024-11-08T21:00:00	2	Temperatura media	20.8
77214	7	Sololá	710	Panajachel	8	Panajachel	12	Diciembre	2023-10-12T00:00:00	2024-11-08T21:00:00	4	Temperatura máxima	21.3
77215	7	Sololá	710	Panajachel	8	Panajachel	12	Diciembre	2023-10-12T00:00:00	2024-11-08T21:00:00	3	Temperatura mínima	20.8
77216	7	Sololá	710	Panajachel	8	Panajachel	12	Diciembre	2023-10-12T00:00:00	2024-11-08T21:00:00	5	Humedad	70
77217	7	Sololá	710	Panajachel	8	Panajachel	12	Diciembre	2023-10-12T00:00:00	2024-11-08T21:00:00	6	Velocidad del viento	9.7
77218	7	Sololá	710	Panajachel	8	Panajachel	12	Diciembre	2023-10-12T00:00:00	2024-11-08T21:00:00	7	Dirección del viento	9.66
77219	7	Sololá	710	Panajachel	8	Panajachel	12	Diciembre	2023-10-12T00:00:00	2024-11-08T21:00:00	1	Precipitación	0
77220	7	Sololá	710	Panajachel	8	Panajachel	12	Diciembre	2023-10-12T00:00:00	2024-11-08T21:00:00	8	Radiación solar	0
77221	7	Sololá	710	Panajachel	8	Panajachel	12	Diciembre	2023-10-12T00:00:00	2024-11-08T22:00:00	2	Temperatura media	20.6
77222	7	Sololá	710	Panajachel	8	Panajachel	12	Diciembre	2023-10-12T00:00:00	2024-11-08T22:00:00	4	Temperatura máxima	20.9
77223	7	Sololá	710	Panajachel	8	Panajachel	12	Diciembre	2023-10-12T00:00:00	2024-11-08T22:00:00	3	Temperatura mínima	20.5
77224	7	Sololá	710	Panajachel	8	Panajachel	12	Diciembre	2023-10-12T00:00:00	2024-11-08T22:00:00	5	Humedad	71
77225	7	Sololá	710	Panajachel	8	Panajachel	12	Diciembre	2023-10-12T00:00:00	2024-11-08T22:00:00	6	Velocidad del viento	9.7
77226	7	Sololá	710	Panajachel	8	Panajachel	12	Diciembre	2023-10-12T00:00:00	2024-11-08T22:00:00	7	Dirección del viento	9.66
77227	7	Sololá	710	Panajachel	8	Panajachel	12	Diciembre	2023-10-12T00:00:00	2024-11-08T22:00:00	1	Precipitación	0
77228	7	Sololá	710	Panajachel	8	Panajachel	12	Diciembre	2023-10-12T00:00:00	2024-11-08T22:00:00	8	Radiación solar	0
77229	7	Sololá	710	Panajachel	8	Panajachel	12	Diciembre	2023-10-12T00:00:00	2024-11-08T23:00:00	2	Temperatura media	20.4
77230	7	Sololá	710	Panajachel	8	Panajachel	12	Diciembre	2023-10-12T00:00:00	2024-11-08T23:00:00	4	Temperatura máxima	20.6
77231	7	Sololá	710	Panajachel	8	Panajachel	12	Diciembre	2023-10-12T00:00:00	2024-11-08T23:00:00	3	Temperatura mínima	20.3
77232	7	Sololá	710	Panajachel	8	Panajachel	12	Diciembre	2023-10-12T00:00:00	2024-11-08T23:00:00	5	Humedad	70
77233	7	Sololá	710	Panajachel	8	Panajachel	12	Diciembre	2023-10-12T00:00:00	2024-11-08T23:00:00	6	Velocidad del viento	9.7
77234	7	Sololá	710	Panajachel	8	Panajachel	12	Diciembre	2023-10-12T00:00:00	2024-11-08T23:00:00	7	Dirección del viento	9.66
77235	7	Sololá	710	Panajachel	8	Panajachel	12	Diciembre	2023-10-12T00:00:00	2024-11-08T23:00:00	1	Precipitación	0
77236	7	Sololá	710	Panajachel	8	Panajachel	12	Diciembre	2023-10-12T00:00:00	2024-11-08T23:00:00	8	Radiación solar	0
77237	7	Sololá	710	Panajachel	8	Panajachel	12	Diciembre	2023-11-12T00:00:00	2024-11-08T00:00:00	2	Temperatura media	20.3
77238	7	Sololá	710	Panajachel	8	Panajachel	12	Diciembre	2023-11-12T00:00:00	2024-11-08T00:00:00	4	Temperatura máxima	20.5
77239	7	Sololá	710	Panajachel	8	Panajachel	12	Diciembre	2023-11-12T00:00:00	2024-11-08T00:00:00	3	Temperatura mínima	20.2
77240	7	Sololá	710	Panajachel	8	Panajachel	12	Diciembre	2023-11-12T00:00:00	2024-11-08T00:00:00	5	Humedad	71
77241	7	Sololá	710	Panajachel	8	Panajachel	12	Diciembre	2023-11-12T00:00:00	2024-11-08T00:00:00	6	Velocidad del viento	11.3
77242	7	Sololá	710	Panajachel	8	Panajachel	12	Diciembre	2023-11-12T00:00:00	2024-11-08T00:00:00	7	Dirección del viento	11.27
77243	7	Sololá	710	Panajachel	8	Panajachel	12	Diciembre	2023-11-12T00:00:00	2024-11-08T00:00:00	1	Precipitación	0
77244	7	Sololá	710	Panajachel	8	Panajachel	12	Diciembre	2023-11-12T00:00:00	2024-11-08T00:00:00	8	Radiación solar	0
77245	7	Sololá	710	Panajachel	8	Panajachel	12	Diciembre	2023-11-12T00:00:00	2024-11-08T01:00:00	2	Temperatura media	19.9
77246	7	Sololá	710	Panajachel	8	Panajachel	12	Diciembre	2023-11-12T00:00:00	2024-11-08T01:00:00	4	Temperatura máxima	20.3
77247	7	Sololá	710	Panajachel	8	Panajachel	12	Diciembre	2023-11-12T00:00:00	2024-11-08T01:00:00	3	Temperatura mínima	19.8
77248	7	Sololá	710	Panajachel	8	Panajachel	12	Diciembre	2023-11-12T00:00:00	2024-11-08T01:00:00	5	Humedad	71
77249	7	Sololá	710	Panajachel	8	Panajachel	12	Diciembre	2023-11-12T00:00:00	2024-11-08T01:00:00	6	Velocidad del viento	11.3
77250	7	Sololá	710	Panajachel	8	Panajachel	12	Diciembre	2023-11-12T00:00:00	2024-11-08T01:00:00	7	Dirección del viento	11.27
77251	7	Sololá	710	Panajachel	8	Panajachel	12	Diciembre	2023-11-12T00:00:00	2024-11-08T01:00:00	1	Precipitación	0
77252	7	Sololá	710	Panajachel	8	Panajachel	12	Diciembre	2023-11-12T00:00:00	2024-11-08T01:00:00	8	Radiación solar	0
77253	7	Sololá	710	Panajachel	8	Panajachel	12	Diciembre	2023-11-12T00:00:00	2024-11-08T02:00:00	2	Temperatura media	19.6
77254	7	Sololá	710	Panajachel	8	Panajachel	12	Diciembre	2023-11-12T00:00:00	2024-11-08T02:00:00	4	Temperatura máxima	20
77255	7	Sololá	710	Panajachel	8	Panajachel	12	Diciembre	2023-11-12T00:00:00	2024-11-08T02:00:00	3	Temperatura mínima	19.6
77256	7	Sololá	710	Panajachel	8	Panajachel	12	Diciembre	2023-11-12T00:00:00	2024-11-08T02:00:00	5	Humedad	71
77257	7	Sololá	710	Panajachel	8	Panajachel	12	Diciembre	2023-11-12T00:00:00	2024-11-08T02:00:00	6	Velocidad del viento	11.3
77258	7	Sololá	710	Panajachel	8	Panajachel	12	Diciembre	2023-11-12T00:00:00	2024-11-08T02:00:00	7	Dirección del viento	11.27
77259	7	Sololá	710	Panajachel	8	Panajachel	12	Diciembre	2023-11-12T00:00:00	2024-11-08T02:00:00	1	Precipitación	0
77260	7	Sololá	710	Panajachel	8	Panajachel	12	Diciembre	2023-11-12T00:00:00	2024-11-08T02:00:00	8	Radiación solar	0
77261	7	Sololá	710	Panajachel	8	Panajachel	12	Diciembre	2023-11-12T00:00:00	2024-11-08T03:00:00	2	Temperatura media	19.3
77262	7	Sololá	710	Panajachel	8	Panajachel	12	Diciembre	2023-11-12T00:00:00	2024-11-08T03:00:00	4	Temperatura máxima	19.6
77263	7	Sololá	710	Panajachel	8	Panajachel	12	Diciembre	2023-11-12T00:00:00	2024-11-08T03:00:00	3	Temperatura mínima	19.3
77264	7	Sololá	710	Panajachel	8	Panajachel	12	Diciembre	2023-11-12T00:00:00	2024-11-08T03:00:00	5	Humedad	73
77265	7	Sololá	710	Panajachel	8	Panajachel	12	Diciembre	2023-11-12T00:00:00	2024-11-08T03:00:00	6	Velocidad del viento	6.4
77266	7	Sololá	710	Panajachel	8	Panajachel	12	Diciembre	2023-11-12T00:00:00	2024-11-08T03:00:00	7	Dirección del viento	6.44
77267	7	Sololá	710	Panajachel	8	Panajachel	12	Diciembre	2023-11-12T00:00:00	2024-11-08T03:00:00	1	Precipitación	0
77268	7	Sololá	710	Panajachel	8	Panajachel	12	Diciembre	2023-11-12T00:00:00	2024-11-08T03:00:00	8	Radiación solar	0
77269	7	Sololá	710	Panajachel	8	Panajachel	12	Diciembre	2023-11-12T00:00:00	2024-11-08T04:00:00	2	Temperatura media	19.8
77270	7	Sololá	710	Panajachel	8	Panajachel	12	Diciembre	2023-11-12T00:00:00	2024-11-08T04:00:00	4	Temperatura máxima	19.8
77271	7	Sololá	710	Panajachel	8	Panajachel	12	Diciembre	2023-11-12T00:00:00	2024-11-08T04:00:00	3	Temperatura mínima	19.3
77272	7	Sololá	710	Panajachel	8	Panajachel	12	Diciembre	2023-11-12T00:00:00	2024-11-08T04:00:00	5	Humedad	72
77273	7	Sololá	710	Panajachel	8	Panajachel	12	Diciembre	2023-11-12T00:00:00	2024-11-08T04:00:00	6	Velocidad del viento	4.8
77274	7	Sololá	710	Panajachel	8	Panajachel	12	Diciembre	2023-11-12T00:00:00	2024-11-08T04:00:00	7	Dirección del viento	4.83
77275	7	Sololá	710	Panajachel	8	Panajachel	12	Diciembre	2023-11-12T00:00:00	2024-11-08T04:00:00	1	Precipitación	0
77276	7	Sololá	710	Panajachel	8	Panajachel	12	Diciembre	2023-11-12T00:00:00	2024-11-08T04:00:00	8	Radiación solar	0
77277	7	Sololá	710	Panajachel	8	Panajachel	12	Diciembre	2023-11-12T00:00:00	2024-11-08T05:00:00	2	Temperatura media	19.1
77278	7	Sololá	710	Panajachel	8	Panajachel	12	Diciembre	2023-11-12T00:00:00	2024-11-08T05:00:00	4	Temperatura máxima	19.9
77279	7	Sololá	710	Panajachel	8	Panajachel	12	Diciembre	2023-11-12T00:00:00	2024-11-08T05:00:00	3	Temperatura mínima	19.1
77280	7	Sololá	710	Panajachel	8	Panajachel	12	Diciembre	2023-11-12T00:00:00	2024-11-08T05:00:00	5	Humedad	74
77281	7	Sololá	710	Panajachel	8	Panajachel	12	Diciembre	2023-11-12T00:00:00	2024-11-08T05:00:00	6	Velocidad del viento	6.4
77282	7	Sololá	710	Panajachel	8	Panajachel	12	Diciembre	2023-11-12T00:00:00	2024-11-08T05:00:00	7	Dirección del viento	6.44
77283	7	Sololá	710	Panajachel	8	Panajachel	12	Diciembre	2023-11-12T00:00:00	2024-11-08T05:00:00	1	Precipitación	0
77284	7	Sololá	710	Panajachel	8	Panajachel	12	Diciembre	2023-11-12T00:00:00	2024-11-08T05:00:00	8	Radiación solar	0
77285	7	Sololá	710	Panajachel	8	Panajachel	12	Diciembre	2023-11-12T00:00:00	2024-11-08T06:00:00	2	Temperatura media	18.7
77286	7	Sololá	710	Panajachel	8	Panajachel	12	Diciembre	2023-11-12T00:00:00	2024-11-08T06:00:00	4	Temperatura máxima	19.1
77287	7	Sololá	710	Panajachel	8	Panajachel	12	Diciembre	2023-11-12T00:00:00	2024-11-08T06:00:00	3	Temperatura mínima	18.7
77288	7	Sololá	710	Panajachel	8	Panajachel	12	Diciembre	2023-11-12T00:00:00	2024-11-08T06:00:00	5	Humedad	74
77289	7	Sololá	710	Panajachel	8	Panajachel	12	Diciembre	2023-11-12T00:00:00	2024-11-08T06:00:00	6	Velocidad del viento	6.4
77290	7	Sololá	710	Panajachel	8	Panajachel	12	Diciembre	2023-11-12T00:00:00	2024-11-08T06:00:00	7	Dirección del viento	6.44
77291	7	Sololá	710	Panajachel	8	Panajachel	12	Diciembre	2023-11-12T00:00:00	2024-11-08T06:00:00	1	Precipitación	0
77292	7	Sololá	710	Panajachel	8	Panajachel	12	Diciembre	2023-11-12T00:00:00	2024-11-08T06:00:00	8	Radiación solar	0
77293	7	Sololá	710	Panajachel	8	Panajachel	12	Diciembre	2023-11-12T00:00:00	2024-11-08T07:00:00	2	Temperatura media	18.9
77294	7	Sololá	710	Panajachel	8	Panajachel	12	Diciembre	2023-11-12T00:00:00	2024-11-08T07:00:00	4	Temperatura máxima	19
77295	7	Sololá	710	Panajachel	8	Panajachel	12	Diciembre	2023-11-12T00:00:00	2024-11-08T07:00:00	3	Temperatura mínima	18.6
77296	7	Sololá	710	Panajachel	8	Panajachel	12	Diciembre	2023-11-12T00:00:00	2024-11-08T07:00:00	5	Humedad	72
77297	7	Sololá	710	Panajachel	8	Panajachel	12	Diciembre	2023-11-12T00:00:00	2024-11-08T07:00:00	6	Velocidad del viento	8
77298	7	Sololá	710	Panajachel	8	Panajachel	12	Diciembre	2023-11-12T00:00:00	2024-11-08T07:00:00	7	Dirección del viento	8.05
77299	7	Sololá	710	Panajachel	8	Panajachel	12	Diciembre	2023-11-12T00:00:00	2024-11-08T07:00:00	1	Precipitación	0
77300	7	Sololá	710	Panajachel	8	Panajachel	12	Diciembre	2023-11-12T00:00:00	2024-11-08T07:00:00	8	Radiación solar	8
77301	7	Sololá	710	Panajachel	8	Panajachel	12	Diciembre	2023-11-12T00:00:00	2024-11-08T08:00:00	2	Temperatura media	20.1
77302	7	Sololá	710	Panajachel	8	Panajachel	12	Diciembre	2023-11-12T00:00:00	2024-11-08T08:00:00	4	Temperatura máxima	20.1
77303	7	Sololá	710	Panajachel	8	Panajachel	12	Diciembre	2023-11-12T00:00:00	2024-11-08T08:00:00	3	Temperatura mínima	18.8
77304	7	Sololá	710	Panajachel	8	Panajachel	12	Diciembre	2023-11-12T00:00:00	2024-11-08T08:00:00	5	Humedad	68
77305	7	Sololá	710	Panajachel	8	Panajachel	12	Diciembre	2023-11-12T00:00:00	2024-11-08T08:00:00	6	Velocidad del viento	8
77306	7	Sololá	710	Panajachel	8	Panajachel	12	Diciembre	2023-11-12T00:00:00	2024-11-08T08:00:00	7	Dirección del viento	8.05
77307	7	Sololá	710	Panajachel	8	Panajachel	12	Diciembre	2023-11-12T00:00:00	2024-11-08T08:00:00	1	Precipitación	0
77308	7	Sololá	710	Panajachel	8	Panajachel	12	Diciembre	2023-11-12T00:00:00	2024-11-08T08:00:00	8	Radiación solar	166
77309	7	Sololá	710	Panajachel	8	Panajachel	12	Diciembre	2023-11-12T00:00:00	2024-11-08T09:00:00	2	Temperatura media	21
77310	7	Sololá	710	Panajachel	8	Panajachel	12	Diciembre	2023-11-12T00:00:00	2024-11-08T09:00:00	4	Temperatura máxima	21.1
77311	7	Sololá	710	Panajachel	8	Panajachel	12	Diciembre	2023-11-12T00:00:00	2024-11-08T09:00:00	3	Temperatura mínima	20.1
77312	7	Sololá	710	Panajachel	8	Panajachel	12	Diciembre	2023-11-12T00:00:00	2024-11-08T09:00:00	5	Humedad	66
77313	7	Sololá	710	Panajachel	8	Panajachel	12	Diciembre	2023-11-12T00:00:00	2024-11-08T09:00:00	6	Velocidad del viento	11.3
77314	7	Sololá	710	Panajachel	8	Panajachel	12	Diciembre	2023-11-12T00:00:00	2024-11-08T09:00:00	7	Dirección del viento	11.27
77315	7	Sololá	710	Panajachel	8	Panajachel	12	Diciembre	2023-11-12T00:00:00	2024-11-08T09:00:00	1	Precipitación	0
77316	7	Sololá	710	Panajachel	8	Panajachel	12	Diciembre	2023-11-12T00:00:00	2024-11-08T09:00:00	8	Radiación solar	400
77317	7	Sololá	710	Panajachel	8	Panajachel	12	Diciembre	2023-11-12T00:00:00	2024-11-08T10:00:00	2	Temperatura media	21
77318	7	Sololá	710	Panajachel	8	Panajachel	12	Diciembre	2023-11-12T00:00:00	2024-11-08T10:00:00	4	Temperatura máxima	21.3
77319	7	Sololá	710	Panajachel	8	Panajachel	12	Diciembre	2023-11-12T00:00:00	2024-11-08T10:00:00	3	Temperatura mínima	20.8
77320	7	Sololá	710	Panajachel	8	Panajachel	12	Diciembre	2023-11-12T00:00:00	2024-11-08T10:00:00	5	Humedad	65
77321	7	Sololá	710	Panajachel	8	Panajachel	12	Diciembre	2023-11-12T00:00:00	2024-11-08T10:00:00	6	Velocidad del viento	16.1
77322	7	Sololá	710	Panajachel	8	Panajachel	12	Diciembre	2023-11-12T00:00:00	2024-11-08T10:00:00	7	Dirección del viento	16.09
77323	7	Sololá	710	Panajachel	8	Panajachel	12	Diciembre	2023-11-12T00:00:00	2024-11-08T10:00:00	1	Precipitación	0
77324	7	Sololá	710	Panajachel	8	Panajachel	12	Diciembre	2023-11-12T00:00:00	2024-11-08T10:00:00	8	Radiación solar	585
77325	7	Sololá	710	Panajachel	8	Panajachel	12	Diciembre	2023-11-12T00:00:00	2024-11-08T11:00:00	2	Temperatura media	21.5
77326	7	Sololá	710	Panajachel	8	Panajachel	12	Diciembre	2023-11-12T00:00:00	2024-11-08T11:00:00	4	Temperatura máxima	21.7
77327	7	Sololá	710	Panajachel	8	Panajachel	12	Diciembre	2023-11-12T00:00:00	2024-11-08T11:00:00	3	Temperatura mínima	21
77328	7	Sololá	710	Panajachel	8	Panajachel	12	Diciembre	2023-11-12T00:00:00	2024-11-08T11:00:00	5	Humedad	64
77329	7	Sololá	710	Panajachel	8	Panajachel	12	Diciembre	2023-11-12T00:00:00	2024-11-08T11:00:00	6	Velocidad del viento	14.5
77330	7	Sololá	710	Panajachel	8	Panajachel	12	Diciembre	2023-11-12T00:00:00	2024-11-08T11:00:00	7	Dirección del viento	14.48
77331	7	Sololá	710	Panajachel	8	Panajachel	12	Diciembre	2023-11-12T00:00:00	2024-11-08T11:00:00	1	Precipitación	0
77332	7	Sololá	710	Panajachel	8	Panajachel	12	Diciembre	2023-11-12T00:00:00	2024-11-08T11:00:00	8	Radiación solar	704
77333	7	Sololá	710	Panajachel	8	Panajachel	12	Diciembre	2023-11-12T00:00:00	2024-11-08T12:00:00	2	Temperatura media	22.4
77334	7	Sololá	710	Panajachel	8	Panajachel	12	Diciembre	2023-11-12T00:00:00	2024-11-08T12:00:00	4	Temperatura máxima	22.4
77335	7	Sololá	710	Panajachel	8	Panajachel	12	Diciembre	2023-11-12T00:00:00	2024-11-08T12:00:00	3	Temperatura mínima	21.4
77336	7	Sololá	710	Panajachel	8	Panajachel	12	Diciembre	2023-11-12T00:00:00	2024-11-08T12:00:00	5	Humedad	61
77337	7	Sololá	710	Panajachel	8	Panajachel	12	Diciembre	2023-11-12T00:00:00	2024-11-08T12:00:00	6	Velocidad del viento	12.9
77338	7	Sololá	710	Panajachel	8	Panajachel	12	Diciembre	2023-11-12T00:00:00	2024-11-08T12:00:00	7	Dirección del viento	12.87
77339	7	Sololá	710	Panajachel	8	Panajachel	12	Diciembre	2023-11-12T00:00:00	2024-11-08T12:00:00	1	Precipitación	0
77340	7	Sololá	710	Panajachel	8	Panajachel	12	Diciembre	2023-11-12T00:00:00	2024-11-08T12:00:00	8	Radiación solar	782
77341	7	Sololá	710	Panajachel	8	Panajachel	12	Diciembre	2023-11-12T00:00:00	2024-11-08T13:00:00	2	Temperatura media	22.9
77342	7	Sololá	710	Panajachel	8	Panajachel	12	Diciembre	2023-11-12T00:00:00	2024-11-08T13:00:00	4	Temperatura máxima	23.2
77343	7	Sololá	710	Panajachel	8	Panajachel	12	Diciembre	2023-11-12T00:00:00	2024-11-08T13:00:00	3	Temperatura mínima	22.3
77344	7	Sololá	710	Panajachel	8	Panajachel	12	Diciembre	2023-11-12T00:00:00	2024-11-08T13:00:00	5	Humedad	60
77345	7	Sololá	710	Panajachel	8	Panajachel	12	Diciembre	2023-11-12T00:00:00	2024-11-08T13:00:00	6	Velocidad del viento	12.9
77346	7	Sololá	710	Panajachel	8	Panajachel	12	Diciembre	2023-11-12T00:00:00	2024-11-08T13:00:00	7	Dirección del viento	12.87
77347	7	Sololá	710	Panajachel	8	Panajachel	12	Diciembre	2023-11-12T00:00:00	2024-11-08T13:00:00	1	Precipitación	0
77348	7	Sololá	710	Panajachel	8	Panajachel	12	Diciembre	2023-11-12T00:00:00	2024-11-08T13:00:00	8	Radiación solar	781
77349	7	Sololá	710	Panajachel	8	Panajachel	12	Diciembre	2023-11-12T00:00:00	2024-11-08T14:00:00	2	Temperatura media	21.2
77350	7	Sololá	710	Panajachel	8	Panajachel	12	Diciembre	2023-11-12T00:00:00	2024-11-08T14:00:00	4	Temperatura máxima	22.9
77351	7	Sololá	710	Panajachel	8	Panajachel	12	Diciembre	2023-11-12T00:00:00	2024-11-08T14:00:00	3	Temperatura mínima	20.8
77352	7	Sololá	710	Panajachel	8	Panajachel	12	Diciembre	2023-11-12T00:00:00	2024-11-08T14:00:00	5	Humedad	61
77353	7	Sololá	710	Panajachel	8	Panajachel	12	Diciembre	2023-11-12T00:00:00	2024-11-08T14:00:00	6	Velocidad del viento	11.3
77354	7	Sololá	710	Panajachel	8	Panajachel	12	Diciembre	2023-11-12T00:00:00	2024-11-08T14:00:00	7	Dirección del viento	11.27
77355	7	Sololá	710	Panajachel	8	Panajachel	12	Diciembre	2023-11-12T00:00:00	2024-11-08T14:00:00	1	Precipitación	0
77356	7	Sololá	710	Panajachel	8	Panajachel	12	Diciembre	2023-11-12T00:00:00	2024-11-08T14:00:00	8	Radiación solar	237
77357	7	Sololá	710	Panajachel	8	Panajachel	12	Diciembre	2023-11-12T00:00:00	2024-11-08T15:00:00	2	Temperatura media	20.9
77358	7	Sololá	710	Panajachel	8	Panajachel	12	Diciembre	2023-11-12T00:00:00	2024-11-08T15:00:00	4	Temperatura máxima	21.6
77359	7	Sololá	710	Panajachel	8	Panajachel	12	Diciembre	2023-11-12T00:00:00	2024-11-08T15:00:00	3	Temperatura mínima	20.9
77360	7	Sololá	710	Panajachel	8	Panajachel	12	Diciembre	2023-11-12T00:00:00	2024-11-08T15:00:00	5	Humedad	62
77361	7	Sololá	710	Panajachel	8	Panajachel	12	Diciembre	2023-11-12T00:00:00	2024-11-08T15:00:00	6	Velocidad del viento	12.9
77362	7	Sololá	710	Panajachel	8	Panajachel	12	Diciembre	2023-11-12T00:00:00	2024-11-08T15:00:00	7	Dirección del viento	12.87
77363	7	Sololá	710	Panajachel	8	Panajachel	12	Diciembre	2023-11-12T00:00:00	2024-11-08T15:00:00	1	Precipitación	0
77364	7	Sololá	710	Panajachel	8	Panajachel	12	Diciembre	2023-11-12T00:00:00	2024-11-08T15:00:00	8	Radiación solar	187
77365	7	Sololá	710	Panajachel	8	Panajachel	12	Diciembre	2023-11-12T00:00:00	2024-11-08T16:00:00	2	Temperatura media	20.9
77366	7	Sololá	710	Panajachel	8	Panajachel	12	Diciembre	2023-11-12T00:00:00	2024-11-08T16:00:00	4	Temperatura máxima	21.2
77367	7	Sololá	710	Panajachel	8	Panajachel	12	Diciembre	2023-11-12T00:00:00	2024-11-08T16:00:00	3	Temperatura mínima	20.8
77368	7	Sololá	710	Panajachel	8	Panajachel	12	Diciembre	2023-11-12T00:00:00	2024-11-08T16:00:00	5	Humedad	63
77369	7	Sololá	710	Panajachel	8	Panajachel	12	Diciembre	2023-11-12T00:00:00	2024-11-08T16:00:00	6	Velocidad del viento	16.1
77370	7	Sololá	710	Panajachel	8	Panajachel	12	Diciembre	2023-11-12T00:00:00	2024-11-08T16:00:00	7	Dirección del viento	16.09
77371	7	Sololá	710	Panajachel	8	Panajachel	12	Diciembre	2023-11-12T00:00:00	2024-11-08T16:00:00	1	Precipitación	0
77372	7	Sololá	710	Panajachel	8	Panajachel	12	Diciembre	2023-11-12T00:00:00	2024-11-08T16:00:00	8	Radiación solar	132
77373	7	Sololá	710	Panajachel	8	Panajachel	12	Diciembre	2023-11-12T00:00:00	2024-11-08T17:00:00	2	Temperatura media	20
77374	7	Sololá	710	Panajachel	8	Panajachel	12	Diciembre	2023-11-12T00:00:00	2024-11-08T17:00:00	4	Temperatura máxima	21.1
77375	7	Sololá	710	Panajachel	8	Panajachel	12	Diciembre	2023-11-12T00:00:00	2024-11-08T17:00:00	3	Temperatura mínima	20
77376	7	Sololá	710	Panajachel	8	Panajachel	12	Diciembre	2023-11-12T00:00:00	2024-11-08T17:00:00	5	Humedad	65
77377	7	Sololá	710	Panajachel	8	Panajachel	12	Diciembre	2023-11-12T00:00:00	2024-11-08T17:00:00	6	Velocidad del viento	19.3
77378	7	Sololá	710	Panajachel	8	Panajachel	12	Diciembre	2023-11-12T00:00:00	2024-11-08T17:00:00	7	Dirección del viento	19.31
77379	7	Sololá	710	Panajachel	8	Panajachel	12	Diciembre	2023-11-12T00:00:00	2024-11-08T17:00:00	1	Precipitación	0
77380	7	Sololá	710	Panajachel	8	Panajachel	12	Diciembre	2023-11-12T00:00:00	2024-11-08T17:00:00	8	Radiación solar	122
77381	7	Sololá	710	Panajachel	8	Panajachel	12	Diciembre	2023-11-12T00:00:00	2024-11-08T18:00:00	2	Temperatura media	19.2
77382	7	Sololá	710	Panajachel	8	Panajachel	12	Diciembre	2023-11-12T00:00:00	2024-11-08T18:00:00	4	Temperatura máxima	20
77383	7	Sololá	710	Panajachel	8	Panajachel	12	Diciembre	2023-11-12T00:00:00	2024-11-08T18:00:00	3	Temperatura mínima	19.1
77384	7	Sololá	710	Panajachel	8	Panajachel	12	Diciembre	2023-11-12T00:00:00	2024-11-08T18:00:00	5	Humedad	67
77385	7	Sololá	710	Panajachel	8	Panajachel	12	Diciembre	2023-11-12T00:00:00	2024-11-08T18:00:00	6	Velocidad del viento	19.3
77386	7	Sololá	710	Panajachel	8	Panajachel	12	Diciembre	2023-11-12T00:00:00	2024-11-08T18:00:00	7	Dirección del viento	19.31
77387	7	Sololá	710	Panajachel	8	Panajachel	12	Diciembre	2023-11-12T00:00:00	2024-11-08T18:00:00	1	Precipitación	0
77388	7	Sololá	710	Panajachel	8	Panajachel	12	Diciembre	2023-11-12T00:00:00	2024-11-08T18:00:00	8	Radiación solar	13
77389	7	Sololá	710	Panajachel	8	Panajachel	12	Diciembre	2023-11-12T00:00:00	2024-11-08T19:00:00	2	Temperatura media	18.9
77390	7	Sololá	710	Panajachel	8	Panajachel	12	Diciembre	2023-11-12T00:00:00	2024-11-08T19:00:00	4	Temperatura máxima	19.2
77391	7	Sololá	710	Panajachel	8	Panajachel	12	Diciembre	2023-11-12T00:00:00	2024-11-08T19:00:00	3	Temperatura mínima	18.8
77392	7	Sololá	710	Panajachel	8	Panajachel	12	Diciembre	2023-11-12T00:00:00	2024-11-08T19:00:00	5	Humedad	68
77393	7	Sololá	710	Panajachel	8	Panajachel	12	Diciembre	2023-11-12T00:00:00	2024-11-08T19:00:00	6	Velocidad del viento	16.1
77394	7	Sololá	710	Panajachel	8	Panajachel	12	Diciembre	2023-11-12T00:00:00	2024-11-08T19:00:00	7	Dirección del viento	16.09
77395	7	Sololá	710	Panajachel	8	Panajachel	12	Diciembre	2023-11-12T00:00:00	2024-11-08T19:00:00	1	Precipitación	0
77396	7	Sololá	710	Panajachel	8	Panajachel	12	Diciembre	2023-11-12T00:00:00	2024-11-08T19:00:00	8	Radiación solar	0
77397	7	Sololá	710	Panajachel	8	Panajachel	12	Diciembre	2023-11-12T00:00:00	2024-11-08T20:00:00	2	Temperatura media	18.9
77398	7	Sololá	710	Panajachel	8	Panajachel	12	Diciembre	2023-11-12T00:00:00	2024-11-08T20:00:00	4	Temperatura máxima	19.1
77399	7	Sololá	710	Panajachel	8	Panajachel	12	Diciembre	2023-11-12T00:00:00	2024-11-08T20:00:00	3	Temperatura mínima	18.8
77400	7	Sololá	710	Panajachel	8	Panajachel	12	Diciembre	2023-11-12T00:00:00	2024-11-08T20:00:00	5	Humedad	68
77401	7	Sololá	710	Panajachel	8	Panajachel	12	Diciembre	2023-11-12T00:00:00	2024-11-08T20:00:00	6	Velocidad del viento	14.5
77402	7	Sololá	710	Panajachel	8	Panajachel	12	Diciembre	2023-11-12T00:00:00	2024-11-08T20:00:00	7	Dirección del viento	14.48
77403	7	Sololá	710	Panajachel	8	Panajachel	12	Diciembre	2023-11-12T00:00:00	2024-11-08T20:00:00	1	Precipitación	0
77404	7	Sololá	710	Panajachel	8	Panajachel	12	Diciembre	2023-11-12T00:00:00	2024-11-08T20:00:00	8	Radiación solar	0
77405	7	Sololá	710	Panajachel	8	Panajachel	12	Diciembre	2023-11-12T00:00:00	2024-11-08T21:00:00	2	Temperatura media	18.8
77406	7	Sololá	710	Panajachel	8	Panajachel	12	Diciembre	2023-11-12T00:00:00	2024-11-08T21:00:00	4	Temperatura máxima	18.9
77407	7	Sololá	710	Panajachel	8	Panajachel	12	Diciembre	2023-11-12T00:00:00	2024-11-08T21:00:00	3	Temperatura mínima	18.7
77408	7	Sololá	710	Panajachel	8	Panajachel	12	Diciembre	2023-11-12T00:00:00	2024-11-08T21:00:00	5	Humedad	68
77409	7	Sololá	710	Panajachel	8	Panajachel	12	Diciembre	2023-11-12T00:00:00	2024-11-08T21:00:00	6	Velocidad del viento	14.5
77410	7	Sololá	710	Panajachel	8	Panajachel	12	Diciembre	2023-11-12T00:00:00	2024-11-08T21:00:00	7	Dirección del viento	14.48
77411	7	Sololá	710	Panajachel	8	Panajachel	12	Diciembre	2023-11-12T00:00:00	2024-11-08T21:00:00	1	Precipitación	0
77412	7	Sololá	710	Panajachel	8	Panajachel	12	Diciembre	2023-11-12T00:00:00	2024-11-08T21:00:00	8	Radiación solar	0
77413	7	Sololá	710	Panajachel	8	Panajachel	12	Diciembre	2023-11-12T00:00:00	2024-11-08T22:00:00	2	Temperatura media	19.1
77414	7	Sololá	710	Panajachel	8	Panajachel	12	Diciembre	2023-11-12T00:00:00	2024-11-08T22:00:00	4	Temperatura máxima	19.3
77415	7	Sololá	710	Panajachel	8	Panajachel	12	Diciembre	2023-11-12T00:00:00	2024-11-08T22:00:00	3	Temperatura mínima	18.8
77416	7	Sololá	710	Panajachel	8	Panajachel	12	Diciembre	2023-11-12T00:00:00	2024-11-08T22:00:00	5	Humedad	68
77417	7	Sololá	710	Panajachel	8	Panajachel	12	Diciembre	2023-11-12T00:00:00	2024-11-08T22:00:00	6	Velocidad del viento	17.7
77418	7	Sololá	710	Panajachel	8	Panajachel	12	Diciembre	2023-11-12T00:00:00	2024-11-08T22:00:00	7	Dirección del viento	17.7
77419	7	Sololá	710	Panajachel	8	Panajachel	12	Diciembre	2023-11-12T00:00:00	2024-11-08T22:00:00	1	Precipitación	0
77420	7	Sololá	710	Panajachel	8	Panajachel	12	Diciembre	2023-11-12T00:00:00	2024-11-08T22:00:00	8	Radiación solar	0
77421	7	Sololá	710	Panajachel	8	Panajachel	12	Diciembre	2023-11-12T00:00:00	2024-11-08T23:00:00	2	Temperatura media	19.3
77422	7	Sololá	710	Panajachel	8	Panajachel	12	Diciembre	2023-11-12T00:00:00	2024-11-08T23:00:00	4	Temperatura máxima	19.4
77423	7	Sololá	710	Panajachel	8	Panajachel	12	Diciembre	2023-11-12T00:00:00	2024-11-08T23:00:00	3	Temperatura mínima	18.8
77424	7	Sololá	710	Panajachel	8	Panajachel	12	Diciembre	2023-11-12T00:00:00	2024-11-08T23:00:00	5	Humedad	67
77425	7	Sololá	710	Panajachel	8	Panajachel	12	Diciembre	2023-11-12T00:00:00	2024-11-08T23:00:00	6	Velocidad del viento	19.3
77426	7	Sololá	710	Panajachel	8	Panajachel	12	Diciembre	2023-11-12T00:00:00	2024-11-08T23:00:00	7	Dirección del viento	19.31
77427	7	Sololá	710	Panajachel	8	Panajachel	12	Diciembre	2023-11-12T00:00:00	2024-11-08T23:00:00	1	Precipitación	0
77428	7	Sololá	710	Panajachel	8	Panajachel	12	Diciembre	2023-11-12T00:00:00	2024-11-08T23:00:00	8	Radiación solar	0
77429	7	Sololá	710	Panajachel	8	Panajachel	12	Diciembre	2023-12-12T00:00:00	2024-11-08T00:00:00	2	Temperatura media	18.7
77430	7	Sololá	710	Panajachel	8	Panajachel	12	Diciembre	2023-12-12T00:00:00	2024-11-08T00:00:00	4	Temperatura máxima	19.4
77431	7	Sololá	710	Panajachel	8	Panajachel	12	Diciembre	2023-12-12T00:00:00	2024-11-08T00:00:00	3	Temperatura mínima	18.7
77432	7	Sololá	710	Panajachel	8	Panajachel	12	Diciembre	2023-12-12T00:00:00	2024-11-08T00:00:00	5	Humedad	69
77433	7	Sololá	710	Panajachel	8	Panajachel	12	Diciembre	2023-12-12T00:00:00	2024-11-08T00:00:00	6	Velocidad del viento	16.1
77434	7	Sololá	710	Panajachel	8	Panajachel	12	Diciembre	2023-12-12T00:00:00	2024-11-08T00:00:00	7	Dirección del viento	16.09
77435	7	Sololá	710	Panajachel	8	Panajachel	12	Diciembre	2023-12-12T00:00:00	2024-11-08T00:00:00	1	Precipitación	0
77436	7	Sololá	710	Panajachel	8	Panajachel	12	Diciembre	2023-12-12T00:00:00	2024-11-08T00:00:00	8	Radiación solar	0
77437	7	Sololá	710	Panajachel	8	Panajachel	12	Diciembre	2023-12-12T00:00:00	2024-11-08T01:00:00	2	Temperatura media	18
77438	7	Sololá	710	Panajachel	8	Panajachel	12	Diciembre	2023-12-12T00:00:00	2024-11-08T01:00:00	4	Temperatura máxima	18.7
77439	7	Sololá	710	Panajachel	8	Panajachel	12	Diciembre	2023-12-12T00:00:00	2024-11-08T01:00:00	3	Temperatura mínima	18
77440	7	Sololá	710	Panajachel	8	Panajachel	12	Diciembre	2023-12-12T00:00:00	2024-11-08T01:00:00	5	Humedad	71
77441	7	Sololá	710	Panajachel	8	Panajachel	12	Diciembre	2023-12-12T00:00:00	2024-11-08T01:00:00	6	Velocidad del viento	9.7
77442	7	Sololá	710	Panajachel	8	Panajachel	12	Diciembre	2023-12-12T00:00:00	2024-11-08T01:00:00	7	Dirección del viento	9.66
77443	7	Sololá	710	Panajachel	8	Panajachel	12	Diciembre	2023-12-12T00:00:00	2024-11-08T01:00:00	1	Precipitación	0
77444	7	Sololá	710	Panajachel	8	Panajachel	12	Diciembre	2023-12-12T00:00:00	2024-11-08T01:00:00	8	Radiación solar	0
77445	7	Sololá	710	Panajachel	8	Panajachel	12	Diciembre	2023-12-12T00:00:00	2024-11-08T02:00:00	2	Temperatura media	18.1
77446	7	Sololá	710	Panajachel	8	Panajachel	12	Diciembre	2023-12-12T00:00:00	2024-11-08T02:00:00	4	Temperatura máxima	18.1
77447	7	Sololá	710	Panajachel	8	Panajachel	12	Diciembre	2023-12-12T00:00:00	2024-11-08T02:00:00	3	Temperatura mínima	17.7
77448	7	Sololá	710	Panajachel	8	Panajachel	12	Diciembre	2023-12-12T00:00:00	2024-11-08T02:00:00	5	Humedad	70
77449	7	Sololá	710	Panajachel	8	Panajachel	12	Diciembre	2023-12-12T00:00:00	2024-11-08T02:00:00	6	Velocidad del viento	6.4
77450	7	Sololá	710	Panajachel	8	Panajachel	12	Diciembre	2023-12-12T00:00:00	2024-11-08T02:00:00	7	Dirección del viento	6.44
77451	7	Sololá	710	Panajachel	8	Panajachel	12	Diciembre	2023-12-12T00:00:00	2024-11-08T02:00:00	1	Precipitación	0
77452	7	Sololá	710	Panajachel	8	Panajachel	12	Diciembre	2023-12-12T00:00:00	2024-11-08T02:00:00	8	Radiación solar	0
77453	7	Sololá	710	Panajachel	8	Panajachel	12	Diciembre	2023-12-12T00:00:00	2024-11-08T03:00:00	2	Temperatura media	19.3
77454	7	Sololá	710	Panajachel	8	Panajachel	12	Diciembre	2023-12-12T00:00:00	2024-11-08T03:00:00	4	Temperatura máxima	19.3
77455	7	Sololá	710	Panajachel	8	Panajachel	12	Diciembre	2023-12-12T00:00:00	2024-11-08T03:00:00	3	Temperatura mínima	18.1
77456	7	Sololá	710	Panajachel	8	Panajachel	12	Diciembre	2023-12-12T00:00:00	2024-11-08T03:00:00	5	Humedad	64
77457	7	Sololá	710	Panajachel	8	Panajachel	12	Diciembre	2023-12-12T00:00:00	2024-11-08T03:00:00	6	Velocidad del viento	6.4
77458	7	Sololá	710	Panajachel	8	Panajachel	12	Diciembre	2023-12-12T00:00:00	2024-11-08T03:00:00	7	Dirección del viento	6.44
77459	7	Sololá	710	Panajachel	8	Panajachel	12	Diciembre	2023-12-12T00:00:00	2024-11-08T03:00:00	1	Precipitación	0
77460	7	Sololá	710	Panajachel	8	Panajachel	12	Diciembre	2023-12-12T00:00:00	2024-11-08T03:00:00	8	Radiación solar	0
77461	7	Sololá	710	Panajachel	8	Panajachel	12	Diciembre	2023-12-12T00:00:00	2024-11-08T04:00:00	2	Temperatura media	19.2
77462	7	Sololá	710	Panajachel	8	Panajachel	12	Diciembre	2023-12-12T00:00:00	2024-11-08T04:00:00	4	Temperatura máxima	19.4
77463	7	Sololá	710	Panajachel	8	Panajachel	12	Diciembre	2023-12-12T00:00:00	2024-11-08T04:00:00	3	Temperatura mínima	18.6
77464	7	Sololá	710	Panajachel	8	Panajachel	12	Diciembre	2023-12-12T00:00:00	2024-11-08T04:00:00	5	Humedad	65
77465	7	Sololá	710	Panajachel	8	Panajachel	12	Diciembre	2023-12-12T00:00:00	2024-11-08T04:00:00	6	Velocidad del viento	8
77466	7	Sololá	710	Panajachel	8	Panajachel	12	Diciembre	2023-12-12T00:00:00	2024-11-08T04:00:00	7	Dirección del viento	8.05
77467	7	Sololá	710	Panajachel	8	Panajachel	12	Diciembre	2023-12-12T00:00:00	2024-11-08T04:00:00	1	Precipitación	0
77468	7	Sololá	710	Panajachel	8	Panajachel	12	Diciembre	2023-12-12T00:00:00	2024-11-08T04:00:00	8	Radiación solar	0
77469	7	Sololá	710	Panajachel	8	Panajachel	12	Diciembre	2023-12-12T00:00:00	2024-11-08T05:00:00	2	Temperatura media	18.9
77470	7	Sololá	710	Panajachel	8	Panajachel	12	Diciembre	2023-12-12T00:00:00	2024-11-08T05:00:00	4	Temperatura máxima	19.3
77471	7	Sololá	710	Panajachel	8	Panajachel	12	Diciembre	2023-12-12T00:00:00	2024-11-08T05:00:00	3	Temperatura mínima	18.7
77472	7	Sololá	710	Panajachel	8	Panajachel	12	Diciembre	2023-12-12T00:00:00	2024-11-08T05:00:00	5	Humedad	65
77473	7	Sololá	710	Panajachel	8	Panajachel	12	Diciembre	2023-12-12T00:00:00	2024-11-08T05:00:00	6	Velocidad del viento	8
77474	7	Sololá	710	Panajachel	8	Panajachel	12	Diciembre	2023-12-12T00:00:00	2024-11-08T05:00:00	7	Dirección del viento	8.05
77475	7	Sololá	710	Panajachel	8	Panajachel	12	Diciembre	2023-12-12T00:00:00	2024-11-08T05:00:00	1	Precipitación	0
77476	7	Sololá	710	Panajachel	8	Panajachel	12	Diciembre	2023-12-12T00:00:00	2024-11-08T05:00:00	8	Radiación solar	0
77477	7	Sololá	710	Panajachel	8	Panajachel	12	Diciembre	2023-12-12T00:00:00	2024-11-08T06:00:00	2	Temperatura media	18.7
77478	7	Sololá	710	Panajachel	8	Panajachel	12	Diciembre	2023-12-12T00:00:00	2024-11-08T06:00:00	4	Temperatura máxima	18.9
77479	7	Sololá	710	Panajachel	8	Panajachel	12	Diciembre	2023-12-12T00:00:00	2024-11-08T06:00:00	3	Temperatura mínima	18.3
77480	7	Sololá	710	Panajachel	8	Panajachel	12	Diciembre	2023-12-12T00:00:00	2024-11-08T06:00:00	5	Humedad	66
77481	7	Sololá	710	Panajachel	8	Panajachel	12	Diciembre	2023-12-12T00:00:00	2024-11-08T06:00:00	6	Velocidad del viento	8
77482	7	Sololá	710	Panajachel	8	Panajachel	12	Diciembre	2023-12-12T00:00:00	2024-11-08T06:00:00	7	Dirección del viento	8.05
77483	7	Sololá	710	Panajachel	8	Panajachel	12	Diciembre	2023-12-12T00:00:00	2024-11-08T06:00:00	1	Precipitación	0
77484	7	Sololá	710	Panajachel	8	Panajachel	12	Diciembre	2023-12-12T00:00:00	2024-11-08T06:00:00	8	Radiación solar	0
77485	7	Sololá	710	Panajachel	8	Panajachel	12	Diciembre	2023-12-12T00:00:00	2024-11-08T07:00:00	2	Temperatura media	18.8
77486	7	Sololá	710	Panajachel	8	Panajachel	12	Diciembre	2023-12-12T00:00:00	2024-11-08T07:00:00	4	Temperatura máxima	19.3
77487	7	Sololá	710	Panajachel	8	Panajachel	12	Diciembre	2023-12-12T00:00:00	2024-11-08T07:00:00	3	Temperatura mínima	18.7
77488	7	Sololá	710	Panajachel	8	Panajachel	12	Diciembre	2023-12-12T00:00:00	2024-11-08T07:00:00	5	Humedad	66
77489	7	Sololá	710	Panajachel	8	Panajachel	12	Diciembre	2023-12-12T00:00:00	2024-11-08T07:00:00	6	Velocidad del viento	11.3
77490	7	Sololá	710	Panajachel	8	Panajachel	12	Diciembre	2023-12-12T00:00:00	2024-11-08T07:00:00	7	Dirección del viento	11.27
77491	7	Sololá	710	Panajachel	8	Panajachel	12	Diciembre	2023-12-12T00:00:00	2024-11-08T07:00:00	1	Precipitación	0
77492	7	Sololá	710	Panajachel	8	Panajachel	12	Diciembre	2023-12-12T00:00:00	2024-11-08T07:00:00	8	Radiación solar	6
77493	7	Sololá	710	Panajachel	8	Panajachel	12	Diciembre	2023-12-12T00:00:00	2024-11-08T08:00:00	2	Temperatura media	20.2
77494	7	Sololá	710	Panajachel	8	Panajachel	12	Diciembre	2023-12-12T00:00:00	2024-11-08T08:00:00	4	Temperatura máxima	20.2
77495	7	Sololá	710	Panajachel	8	Panajachel	12	Diciembre	2023-12-12T00:00:00	2024-11-08T08:00:00	3	Temperatura mínima	18.8
77496	7	Sololá	710	Panajachel	8	Panajachel	12	Diciembre	2023-12-12T00:00:00	2024-11-08T08:00:00	5	Humedad	63
77497	7	Sololá	710	Panajachel	8	Panajachel	12	Diciembre	2023-12-12T00:00:00	2024-11-08T08:00:00	6	Velocidad del viento	11.3
77498	7	Sololá	710	Panajachel	8	Panajachel	12	Diciembre	2023-12-12T00:00:00	2024-11-08T08:00:00	7	Dirección del viento	11.27
77499	7	Sololá	710	Panajachel	8	Panajachel	12	Diciembre	2023-12-12T00:00:00	2024-11-08T08:00:00	1	Precipitación	0
77500	7	Sololá	710	Panajachel	8	Panajachel	12	Diciembre	2023-12-12T00:00:00	2024-11-08T08:00:00	8	Radiación solar	178
77501	7	Sololá	710	Panajachel	8	Panajachel	12	Diciembre	2023-12-12T00:00:00	2024-11-08T09:00:00	2	Temperatura media	21.1
77502	7	Sololá	710	Panajachel	8	Panajachel	12	Diciembre	2023-12-12T00:00:00	2024-11-08T09:00:00	4	Temperatura máxima	21.2
77503	7	Sololá	710	Panajachel	8	Panajachel	12	Diciembre	2023-12-12T00:00:00	2024-11-08T09:00:00	3	Temperatura mínima	20.2
77504	7	Sololá	710	Panajachel	8	Panajachel	12	Diciembre	2023-12-12T00:00:00	2024-11-08T09:00:00	5	Humedad	62
77505	7	Sololá	710	Panajachel	8	Panajachel	12	Diciembre	2023-12-12T00:00:00	2024-11-08T09:00:00	6	Velocidad del viento	12.9
77506	7	Sololá	710	Panajachel	8	Panajachel	12	Diciembre	2023-12-12T00:00:00	2024-11-08T09:00:00	7	Dirección del viento	12.87
77507	7	Sololá	710	Panajachel	8	Panajachel	12	Diciembre	2023-12-12T00:00:00	2024-11-08T09:00:00	1	Precipitación	0
77508	7	Sololá	710	Panajachel	8	Panajachel	12	Diciembre	2023-12-12T00:00:00	2024-11-08T09:00:00	8	Radiación solar	390
77509	7	Sololá	710	Panajachel	8	Panajachel	12	Diciembre	2023-12-12T00:00:00	2024-11-08T10:00:00	2	Temperatura media	22.3
77510	7	Sololá	710	Panajachel	8	Panajachel	12	Diciembre	2023-12-12T00:00:00	2024-11-08T10:00:00	4	Temperatura máxima	22.3
77511	7	Sololá	710	Panajachel	8	Panajachel	12	Diciembre	2023-12-12T00:00:00	2024-11-08T10:00:00	3	Temperatura mínima	21.1
77512	7	Sololá	710	Panajachel	8	Panajachel	12	Diciembre	2023-12-12T00:00:00	2024-11-08T10:00:00	5	Humedad	61
77513	7	Sololá	710	Panajachel	8	Panajachel	12	Diciembre	2023-12-12T00:00:00	2024-11-08T10:00:00	6	Velocidad del viento	11.3
77514	7	Sololá	710	Panajachel	8	Panajachel	12	Diciembre	2023-12-12T00:00:00	2024-11-08T10:00:00	7	Dirección del viento	11.27
77515	7	Sololá	710	Panajachel	8	Panajachel	12	Diciembre	2023-12-12T00:00:00	2024-11-08T10:00:00	1	Precipitación	0
77516	7	Sololá	710	Panajachel	8	Panajachel	12	Diciembre	2023-12-12T00:00:00	2024-11-08T10:00:00	8	Radiación solar	563
77517	7	Sololá	710	Panajachel	8	Panajachel	12	Diciembre	2023-12-12T00:00:00	2024-11-08T11:00:00	2	Temperatura media	23.3
77518	7	Sololá	710	Panajachel	8	Panajachel	12	Diciembre	2023-12-12T00:00:00	2024-11-08T11:00:00	4	Temperatura máxima	23.4
77519	7	Sololá	710	Panajachel	8	Panajachel	12	Diciembre	2023-12-12T00:00:00	2024-11-08T11:00:00	3	Temperatura mínima	22.2
77520	7	Sololá	710	Panajachel	8	Panajachel	12	Diciembre	2023-12-12T00:00:00	2024-11-08T11:00:00	5	Humedad	60
77521	7	Sololá	710	Panajachel	8	Panajachel	12	Diciembre	2023-12-12T00:00:00	2024-11-08T11:00:00	6	Velocidad del viento	6.4
77522	7	Sololá	710	Panajachel	8	Panajachel	12	Diciembre	2023-12-12T00:00:00	2024-11-08T11:00:00	7	Dirección del viento	6.44
77523	7	Sololá	710	Panajachel	8	Panajachel	12	Diciembre	2023-12-12T00:00:00	2024-11-08T11:00:00	1	Precipitación	0
77524	7	Sololá	710	Panajachel	8	Panajachel	12	Diciembre	2023-12-12T00:00:00	2024-11-08T11:00:00	8	Radiación solar	687
77525	7	Sololá	710	Panajachel	8	Panajachel	12	Diciembre	2023-12-12T00:00:00	2024-11-08T12:00:00	2	Temperatura media	23.6
77526	7	Sololá	710	Panajachel	8	Panajachel	12	Diciembre	2023-12-12T00:00:00	2024-11-08T12:00:00	4	Temperatura máxima	23.8
77527	7	Sololá	710	Panajachel	8	Panajachel	12	Diciembre	2023-12-12T00:00:00	2024-11-08T12:00:00	3	Temperatura mínima	23.1
77528	7	Sololá	710	Panajachel	8	Panajachel	12	Diciembre	2023-12-12T00:00:00	2024-11-08T12:00:00	5	Humedad	59
77529	7	Sololá	710	Panajachel	8	Panajachel	12	Diciembre	2023-12-12T00:00:00	2024-11-08T12:00:00	6	Velocidad del viento	8
77530	7	Sololá	710	Panajachel	8	Panajachel	12	Diciembre	2023-12-12T00:00:00	2024-11-08T12:00:00	7	Dirección del viento	8.05
77531	7	Sololá	710	Panajachel	8	Panajachel	12	Diciembre	2023-12-12T00:00:00	2024-11-08T12:00:00	1	Precipitación	0
77532	7	Sololá	710	Panajachel	8	Panajachel	12	Diciembre	2023-12-12T00:00:00	2024-11-08T12:00:00	8	Radiación solar	751
77533	7	Sololá	710	Panajachel	8	Panajachel	12	Diciembre	2023-12-12T00:00:00	2024-11-08T13:00:00	2	Temperatura media	23.6
77534	7	Sololá	710	Panajachel	8	Panajachel	12	Diciembre	2023-12-12T00:00:00	2024-11-08T13:00:00	4	Temperatura máxima	24.2
77535	7	Sololá	710	Panajachel	8	Panajachel	12	Diciembre	2023-12-12T00:00:00	2024-11-08T13:00:00	3	Temperatura mínima	23.4
77536	7	Sololá	710	Panajachel	8	Panajachel	12	Diciembre	2023-12-12T00:00:00	2024-11-08T13:00:00	5	Humedad	59
77537	7	Sololá	710	Panajachel	8	Panajachel	12	Diciembre	2023-12-12T00:00:00	2024-11-08T13:00:00	6	Velocidad del viento	11.3
77538	7	Sololá	710	Panajachel	8	Panajachel	12	Diciembre	2023-12-12T00:00:00	2024-11-08T13:00:00	7	Dirección del viento	11.27
77539	7	Sololá	710	Panajachel	8	Panajachel	12	Diciembre	2023-12-12T00:00:00	2024-11-08T13:00:00	1	Precipitación	0
77540	7	Sololá	710	Panajachel	8	Panajachel	12	Diciembre	2023-12-12T00:00:00	2024-11-08T13:00:00	8	Radiación solar	758
77541	7	Sololá	710	Panajachel	8	Panajachel	12	Diciembre	2023-12-12T00:00:00	2024-11-08T14:00:00	2	Temperatura media	24
77542	7	Sololá	710	Panajachel	8	Panajachel	12	Diciembre	2023-12-12T00:00:00	2024-11-08T14:00:00	4	Temperatura máxima	24.1
77543	7	Sololá	710	Panajachel	8	Panajachel	12	Diciembre	2023-12-12T00:00:00	2024-11-08T14:00:00	3	Temperatura mínima	23.4
77544	7	Sololá	710	Panajachel	8	Panajachel	12	Diciembre	2023-12-12T00:00:00	2024-11-08T14:00:00	5	Humedad	59
77545	7	Sololá	710	Panajachel	8	Panajachel	12	Diciembre	2023-12-12T00:00:00	2024-11-08T14:00:00	6	Velocidad del viento	14.5
77546	7	Sololá	710	Panajachel	8	Panajachel	12	Diciembre	2023-12-12T00:00:00	2024-11-08T14:00:00	7	Dirección del viento	14.48
77547	7	Sololá	710	Panajachel	8	Panajachel	12	Diciembre	2023-12-12T00:00:00	2024-11-08T14:00:00	1	Precipitación	0
77548	7	Sololá	710	Panajachel	8	Panajachel	12	Diciembre	2023-12-12T00:00:00	2024-11-08T14:00:00	8	Radiación solar	692
77549	7	Sololá	710	Panajachel	8	Panajachel	12	Diciembre	2023-12-12T00:00:00	2024-11-08T15:00:00	2	Temperatura media	22.5
77550	7	Sololá	710	Panajachel	8	Panajachel	12	Diciembre	2023-12-12T00:00:00	2024-11-08T15:00:00	4	Temperatura máxima	24
77551	7	Sololá	710	Panajachel	8	Panajachel	12	Diciembre	2023-12-12T00:00:00	2024-11-08T15:00:00	3	Temperatura mínima	22.5
77552	7	Sololá	710	Panajachel	8	Panajachel	12	Diciembre	2023-12-12T00:00:00	2024-11-08T15:00:00	5	Humedad	64
77553	7	Sololá	710	Panajachel	8	Panajachel	12	Diciembre	2023-12-12T00:00:00	2024-11-08T15:00:00	6	Velocidad del viento	12.9
77554	7	Sololá	710	Panajachel	8	Panajachel	12	Diciembre	2023-12-12T00:00:00	2024-11-08T15:00:00	7	Dirección del viento	12.87
77555	7	Sololá	710	Panajachel	8	Panajachel	12	Diciembre	2023-12-12T00:00:00	2024-11-08T15:00:00	1	Precipitación	0
77556	7	Sololá	710	Panajachel	8	Panajachel	12	Diciembre	2023-12-12T00:00:00	2024-11-08T15:00:00	8	Radiación solar	216
77557	7	Sololá	710	Panajachel	8	Panajachel	12	Diciembre	2023-12-12T00:00:00	2024-11-08T16:00:00	2	Temperatura media	21.9
77558	7	Sololá	710	Panajachel	8	Panajachel	12	Diciembre	2023-12-12T00:00:00	2024-11-08T16:00:00	4	Temperatura máxima	22.7
77559	7	Sololá	710	Panajachel	8	Panajachel	12	Diciembre	2023-12-12T00:00:00	2024-11-08T16:00:00	3	Temperatura mínima	21.9
77560	7	Sololá	710	Panajachel	8	Panajachel	12	Diciembre	2023-12-12T00:00:00	2024-11-08T16:00:00	5	Humedad	66
77561	7	Sololá	710	Panajachel	8	Panajachel	12	Diciembre	2023-12-12T00:00:00	2024-11-08T16:00:00	6	Velocidad del viento	14.5
77562	7	Sololá	710	Panajachel	8	Panajachel	12	Diciembre	2023-12-12T00:00:00	2024-11-08T16:00:00	7	Dirección del viento	14.48
77563	7	Sololá	710	Panajachel	8	Panajachel	12	Diciembre	2023-12-12T00:00:00	2024-11-08T16:00:00	1	Precipitación	0
77564	7	Sololá	710	Panajachel	8	Panajachel	12	Diciembre	2023-12-12T00:00:00	2024-11-08T16:00:00	8	Radiación solar	208
77565	7	Sololá	710	Panajachel	8	Panajachel	12	Diciembre	2023-12-12T00:00:00	2024-11-08T17:00:00	2	Temperatura media	20.6
77566	7	Sololá	710	Panajachel	8	Panajachel	12	Diciembre	2023-12-12T00:00:00	2024-11-08T17:00:00	4	Temperatura máxima	21.9
77567	7	Sololá	710	Panajachel	8	Panajachel	12	Diciembre	2023-12-12T00:00:00	2024-11-08T17:00:00	3	Temperatura mínima	20.6
77568	7	Sololá	710	Panajachel	8	Panajachel	12	Diciembre	2023-12-12T00:00:00	2024-11-08T17:00:00	5	Humedad	69
77569	7	Sololá	710	Panajachel	8	Panajachel	12	Diciembre	2023-12-12T00:00:00	2024-11-08T17:00:00	6	Velocidad del viento	14.5
77570	7	Sololá	710	Panajachel	8	Panajachel	12	Diciembre	2023-12-12T00:00:00	2024-11-08T17:00:00	7	Dirección del viento	14.48
77571	7	Sololá	710	Panajachel	8	Panajachel	12	Diciembre	2023-12-12T00:00:00	2024-11-08T17:00:00	1	Precipitación	0
77572	7	Sololá	710	Panajachel	8	Panajachel	12	Diciembre	2023-12-12T00:00:00	2024-11-08T17:00:00	8	Radiación solar	76
77573	7	Sololá	710	Panajachel	8	Panajachel	12	Diciembre	2023-12-12T00:00:00	2024-11-08T18:00:00	2	Temperatura media	19.7
77574	7	Sololá	710	Panajachel	8	Panajachel	12	Diciembre	2023-12-12T00:00:00	2024-11-08T18:00:00	4	Temperatura máxima	20.7
77575	7	Sololá	710	Panajachel	8	Panajachel	12	Diciembre	2023-12-12T00:00:00	2024-11-08T18:00:00	3	Temperatura mínima	19.7
77576	7	Sololá	710	Panajachel	8	Panajachel	12	Diciembre	2023-12-12T00:00:00	2024-11-08T18:00:00	5	Humedad	71
77577	7	Sololá	710	Panajachel	8	Panajachel	12	Diciembre	2023-12-12T00:00:00	2024-11-08T18:00:00	6	Velocidad del viento	12.9
77578	7	Sololá	710	Panajachel	8	Panajachel	12	Diciembre	2023-12-12T00:00:00	2024-11-08T18:00:00	7	Dirección del viento	12.87
77579	7	Sololá	710	Panajachel	8	Panajachel	12	Diciembre	2023-12-12T00:00:00	2024-11-08T18:00:00	1	Precipitación	0
77580	7	Sololá	710	Panajachel	8	Panajachel	12	Diciembre	2023-12-12T00:00:00	2024-11-08T18:00:00	8	Radiación solar	17
77581	7	Sololá	710	Panajachel	8	Panajachel	12	Diciembre	2023-12-12T00:00:00	2024-11-08T19:00:00	2	Temperatura media	19.1
77582	7	Sololá	710	Panajachel	8	Panajachel	12	Diciembre	2023-12-12T00:00:00	2024-11-08T19:00:00	4	Temperatura máxima	19.7
77583	7	Sololá	710	Panajachel	8	Panajachel	12	Diciembre	2023-12-12T00:00:00	2024-11-08T19:00:00	3	Temperatura mínima	19.1
77584	7	Sololá	710	Panajachel	8	Panajachel	12	Diciembre	2023-12-12T00:00:00	2024-11-08T19:00:00	5	Humedad	72
77585	7	Sololá	710	Panajachel	8	Panajachel	12	Diciembre	2023-12-12T00:00:00	2024-11-08T19:00:00	6	Velocidad del viento	19.3
77586	7	Sololá	710	Panajachel	8	Panajachel	12	Diciembre	2023-12-12T00:00:00	2024-11-08T19:00:00	7	Dirección del viento	19.31
77587	7	Sololá	710	Panajachel	8	Panajachel	12	Diciembre	2023-12-12T00:00:00	2024-11-08T19:00:00	1	Precipitación	0
77588	7	Sololá	710	Panajachel	8	Panajachel	12	Diciembre	2023-12-12T00:00:00	2024-11-08T19:00:00	8	Radiación solar	0
77589	7	Sololá	710	Panajachel	8	Panajachel	12	Diciembre	2023-12-12T00:00:00	2024-11-08T20:00:00	2	Temperatura media	18.8
77590	7	Sololá	710	Panajachel	8	Panajachel	12	Diciembre	2023-12-12T00:00:00	2024-11-08T20:00:00	4	Temperatura máxima	19.1
77591	7	Sololá	710	Panajachel	8	Panajachel	12	Diciembre	2023-12-12T00:00:00	2024-11-08T20:00:00	3	Temperatura mínima	18.8
77592	7	Sololá	710	Panajachel	8	Panajachel	12	Diciembre	2023-12-12T00:00:00	2024-11-08T20:00:00	5	Humedad	73
77593	7	Sololá	710	Panajachel	8	Panajachel	12	Diciembre	2023-12-12T00:00:00	2024-11-08T20:00:00	6	Velocidad del viento	19.3
77594	7	Sololá	710	Panajachel	8	Panajachel	12	Diciembre	2023-12-12T00:00:00	2024-11-08T20:00:00	7	Dirección del viento	19.31
77595	7	Sololá	710	Panajachel	8	Panajachel	12	Diciembre	2023-12-12T00:00:00	2024-11-08T20:00:00	1	Precipitación	0
77596	7	Sololá	710	Panajachel	8	Panajachel	12	Diciembre	2023-12-12T00:00:00	2024-11-08T20:00:00	8	Radiación solar	0
77597	7	Sololá	710	Panajachel	8	Panajachel	12	Diciembre	2023-12-12T00:00:00	2024-11-08T21:00:00	2	Temperatura media	18.8
77598	7	Sololá	710	Panajachel	8	Panajachel	12	Diciembre	2023-12-12T00:00:00	2024-11-08T21:00:00	4	Temperatura máxima	18.9
77599	7	Sololá	710	Panajachel	8	Panajachel	12	Diciembre	2023-12-12T00:00:00	2024-11-08T21:00:00	3	Temperatura mínima	18.7
77600	7	Sololá	710	Panajachel	8	Panajachel	12	Diciembre	2023-12-12T00:00:00	2024-11-08T21:00:00	5	Humedad	73
77601	7	Sololá	710	Panajachel	8	Panajachel	12	Diciembre	2023-12-12T00:00:00	2024-11-08T21:00:00	6	Velocidad del viento	22.5
77602	7	Sololá	710	Panajachel	8	Panajachel	12	Diciembre	2023-12-12T00:00:00	2024-11-08T21:00:00	7	Dirección del viento	22.53
77603	7	Sololá	710	Panajachel	8	Panajachel	12	Diciembre	2023-12-12T00:00:00	2024-11-08T21:00:00	1	Precipitación	0
77604	7	Sololá	710	Panajachel	8	Panajachel	12	Diciembre	2023-12-12T00:00:00	2024-11-08T21:00:00	8	Radiación solar	0
77605	7	Sololá	710	Panajachel	8	Panajachel	12	Diciembre	2023-12-12T00:00:00	2024-11-08T22:00:00	2	Temperatura media	18.7
77606	7	Sololá	710	Panajachel	8	Panajachel	12	Diciembre	2023-12-12T00:00:00	2024-11-08T22:00:00	4	Temperatura máxima	18.9
77607	7	Sololá	710	Panajachel	8	Panajachel	12	Diciembre	2023-12-12T00:00:00	2024-11-08T22:00:00	3	Temperatura mínima	18.4
77608	7	Sololá	710	Panajachel	8	Panajachel	12	Diciembre	2023-12-12T00:00:00	2024-11-08T22:00:00	5	Humedad	72
77609	7	Sololá	710	Panajachel	8	Panajachel	12	Diciembre	2023-12-12T00:00:00	2024-11-08T22:00:00	6	Velocidad del viento	20.9
77610	7	Sololá	710	Panajachel	8	Panajachel	12	Diciembre	2023-12-12T00:00:00	2024-11-08T22:00:00	7	Dirección del viento	20.92
77611	7	Sololá	710	Panajachel	8	Panajachel	12	Diciembre	2023-12-12T00:00:00	2024-11-08T22:00:00	1	Precipitación	0
77612	7	Sololá	710	Panajachel	8	Panajachel	12	Diciembre	2023-12-12T00:00:00	2024-11-08T22:00:00	8	Radiación solar	0
77613	7	Sololá	710	Panajachel	8	Panajachel	12	Diciembre	2023-12-12T00:00:00	2024-11-08T23:00:00	2	Temperatura media	18.7
77614	7	Sololá	710	Panajachel	8	Panajachel	12	Diciembre	2023-12-12T00:00:00	2024-11-08T23:00:00	4	Temperatura máxima	18.7
77615	7	Sololá	710	Panajachel	8	Panajachel	12	Diciembre	2023-12-12T00:00:00	2024-11-08T23:00:00	3	Temperatura mínima	18.4
77616	7	Sololá	710	Panajachel	8	Panajachel	12	Diciembre	2023-12-12T00:00:00	2024-11-08T23:00:00	5	Humedad	72
77617	7	Sololá	710	Panajachel	8	Panajachel	12	Diciembre	2023-12-12T00:00:00	2024-11-08T23:00:00	6	Velocidad del viento	17.7
77618	7	Sololá	710	Panajachel	8	Panajachel	12	Diciembre	2023-12-12T00:00:00	2024-11-08T23:00:00	7	Dirección del viento	17.7
77619	7	Sololá	710	Panajachel	8	Panajachel	12	Diciembre	2023-12-12T00:00:00	2024-11-08T23:00:00	1	Precipitación	0
77620	7	Sololá	710	Panajachel	8	Panajachel	12	Diciembre	2023-12-12T00:00:00	2024-11-08T23:00:00	8	Radiación solar	0
77621	7	Sololá	710	Panajachel	8	Panajachel	12	Diciembre	2023-12-13T00:00:00	2024-11-08T00:00:00	2	Temperatura media	18.9
77622	7	Sololá	710	Panajachel	8	Panajachel	12	Diciembre	2023-12-13T00:00:00	2024-11-08T00:00:00	4	Temperatura máxima	19.1
77623	7	Sololá	710	Panajachel	8	Panajachel	12	Diciembre	2023-12-13T00:00:00	2024-11-08T00:00:00	3	Temperatura mínima	18.6
77624	7	Sololá	710	Panajachel	8	Panajachel	12	Diciembre	2023-12-13T00:00:00	2024-11-08T00:00:00	5	Humedad	71
77625	7	Sololá	710	Panajachel	8	Panajachel	12	Diciembre	2023-12-13T00:00:00	2024-11-08T00:00:00	6	Velocidad del viento	14.5
77626	7	Sololá	710	Panajachel	8	Panajachel	12	Diciembre	2023-12-13T00:00:00	2024-11-08T00:00:00	7	Dirección del viento	14.48
77627	7	Sololá	710	Panajachel	8	Panajachel	12	Diciembre	2023-12-13T00:00:00	2024-11-08T00:00:00	1	Precipitación	0
77628	7	Sololá	710	Panajachel	8	Panajachel	12	Diciembre	2023-12-13T00:00:00	2024-11-08T00:00:00	8	Radiación solar	0
77629	7	Sololá	710	Panajachel	8	Panajachel	12	Diciembre	2023-12-13T00:00:00	2024-11-08T01:00:00	2	Temperatura media	18.8
77630	7	Sololá	710	Panajachel	8	Panajachel	12	Diciembre	2023-12-13T00:00:00	2024-11-08T01:00:00	4	Temperatura máxima	18.9
77631	7	Sololá	710	Panajachel	8	Panajachel	12	Diciembre	2023-12-13T00:00:00	2024-11-08T01:00:00	3	Temperatura mínima	18.7
77632	7	Sololá	710	Panajachel	8	Panajachel	12	Diciembre	2023-12-13T00:00:00	2024-11-08T01:00:00	5	Humedad	72
77633	7	Sololá	710	Panajachel	8	Panajachel	12	Diciembre	2023-12-13T00:00:00	2024-11-08T01:00:00	6	Velocidad del viento	12.9
77634	7	Sololá	710	Panajachel	8	Panajachel	12	Diciembre	2023-12-13T00:00:00	2024-11-08T01:00:00	7	Dirección del viento	12.87
77635	7	Sololá	710	Panajachel	8	Panajachel	12	Diciembre	2023-12-13T00:00:00	2024-11-08T01:00:00	1	Precipitación	0
77636	7	Sololá	710	Panajachel	8	Panajachel	12	Diciembre	2023-12-13T00:00:00	2024-11-08T01:00:00	8	Radiación solar	0
77637	7	Sololá	710	Panajachel	8	Panajachel	12	Diciembre	2023-12-13T00:00:00	2024-11-08T02:00:00	2	Temperatura media	18.6
77638	7	Sololá	710	Panajachel	8	Panajachel	12	Diciembre	2023-12-13T00:00:00	2024-11-08T02:00:00	4	Temperatura máxima	18.8
77639	7	Sololá	710	Panajachel	8	Panajachel	12	Diciembre	2023-12-13T00:00:00	2024-11-08T02:00:00	3	Temperatura mínima	18.5
77640	7	Sololá	710	Panajachel	8	Panajachel	12	Diciembre	2023-12-13T00:00:00	2024-11-08T02:00:00	5	Humedad	73
77641	7	Sololá	710	Panajachel	8	Panajachel	12	Diciembre	2023-12-13T00:00:00	2024-11-08T02:00:00	6	Velocidad del viento	12.9
77642	7	Sololá	710	Panajachel	8	Panajachel	12	Diciembre	2023-12-13T00:00:00	2024-11-08T02:00:00	7	Dirección del viento	12.87
77643	7	Sololá	710	Panajachel	8	Panajachel	12	Diciembre	2023-12-13T00:00:00	2024-11-08T02:00:00	1	Precipitación	0
77644	7	Sololá	710	Panajachel	8	Panajachel	12	Diciembre	2023-12-13T00:00:00	2024-11-08T02:00:00	8	Radiación solar	0
77645	7	Sololá	710	Panajachel	8	Panajachel	12	Diciembre	2023-12-13T00:00:00	2024-11-08T03:00:00	2	Temperatura media	18.6
77646	7	Sololá	710	Panajachel	8	Panajachel	12	Diciembre	2023-12-13T00:00:00	2024-11-08T03:00:00	4	Temperatura máxima	18.7
77647	7	Sololá	710	Panajachel	8	Panajachel	12	Diciembre	2023-12-13T00:00:00	2024-11-08T03:00:00	3	Temperatura mínima	18.5
77648	7	Sololá	710	Panajachel	8	Panajachel	12	Diciembre	2023-12-13T00:00:00	2024-11-08T03:00:00	5	Humedad	73
77649	7	Sololá	710	Panajachel	8	Panajachel	12	Diciembre	2023-12-13T00:00:00	2024-11-08T03:00:00	6	Velocidad del viento	8
77650	7	Sololá	710	Panajachel	8	Panajachel	12	Diciembre	2023-12-13T00:00:00	2024-11-08T03:00:00	7	Dirección del viento	8.05
77651	7	Sololá	710	Panajachel	8	Panajachel	12	Diciembre	2023-12-13T00:00:00	2024-11-08T03:00:00	1	Precipitación	0
77652	7	Sololá	710	Panajachel	8	Panajachel	12	Diciembre	2023-12-13T00:00:00	2024-11-08T03:00:00	8	Radiación solar	0
77653	7	Sololá	710	Panajachel	8	Panajachel	12	Diciembre	2023-12-13T00:00:00	2024-11-08T04:00:00	2	Temperatura media	18.2
77654	7	Sololá	710	Panajachel	8	Panajachel	12	Diciembre	2023-12-13T00:00:00	2024-11-08T04:00:00	4	Temperatura máxima	18.6
77655	7	Sololá	710	Panajachel	8	Panajachel	12	Diciembre	2023-12-13T00:00:00	2024-11-08T04:00:00	3	Temperatura mínima	18.2
77656	7	Sololá	710	Panajachel	8	Panajachel	12	Diciembre	2023-12-13T00:00:00	2024-11-08T04:00:00	5	Humedad	74
77657	7	Sololá	710	Panajachel	8	Panajachel	12	Diciembre	2023-12-13T00:00:00	2024-11-08T04:00:00	6	Velocidad del viento	11.3
77658	7	Sololá	710	Panajachel	8	Panajachel	12	Diciembre	2023-12-13T00:00:00	2024-11-08T04:00:00	7	Dirección del viento	11.27
77659	7	Sololá	710	Panajachel	8	Panajachel	12	Diciembre	2023-12-13T00:00:00	2024-11-08T04:00:00	1	Precipitación	0
77660	7	Sololá	710	Panajachel	8	Panajachel	12	Diciembre	2023-12-13T00:00:00	2024-11-08T04:00:00	8	Radiación solar	0
77661	7	Sololá	710	Panajachel	8	Panajachel	12	Diciembre	2023-12-13T00:00:00	2024-11-08T05:00:00	2	Temperatura media	18.3
77662	7	Sololá	710	Panajachel	8	Panajachel	12	Diciembre	2023-12-13T00:00:00	2024-11-08T05:00:00	4	Temperatura máxima	18.3
77663	7	Sololá	710	Panajachel	8	Panajachel	12	Diciembre	2023-12-13T00:00:00	2024-11-08T05:00:00	3	Temperatura mínima	18.1
77664	7	Sololá	710	Panajachel	8	Panajachel	12	Diciembre	2023-12-13T00:00:00	2024-11-08T05:00:00	5	Humedad	73
77665	7	Sololá	710	Panajachel	8	Panajachel	12	Diciembre	2023-12-13T00:00:00	2024-11-08T05:00:00	6	Velocidad del viento	9.7
77666	7	Sololá	710	Panajachel	8	Panajachel	12	Diciembre	2023-12-13T00:00:00	2024-11-08T05:00:00	7	Dirección del viento	9.66
77667	7	Sololá	710	Panajachel	8	Panajachel	12	Diciembre	2023-12-13T00:00:00	2024-11-08T05:00:00	1	Precipitación	0
77668	7	Sololá	710	Panajachel	8	Panajachel	12	Diciembre	2023-12-13T00:00:00	2024-11-08T05:00:00	8	Radiación solar	0
77669	7	Sololá	710	Panajachel	8	Panajachel	12	Diciembre	2023-12-13T00:00:00	2024-11-08T06:00:00	2	Temperatura media	18.2
77670	7	Sololá	710	Panajachel	8	Panajachel	12	Diciembre	2023-12-13T00:00:00	2024-11-08T06:00:00	4	Temperatura máxima	18.3
77671	7	Sololá	710	Panajachel	8	Panajachel	12	Diciembre	2023-12-13T00:00:00	2024-11-08T06:00:00	3	Temperatura mínima	18.1
77672	7	Sololá	710	Panajachel	8	Panajachel	12	Diciembre	2023-12-13T00:00:00	2024-11-08T06:00:00	5	Humedad	73
77673	7	Sololá	710	Panajachel	8	Panajachel	12	Diciembre	2023-12-13T00:00:00	2024-11-08T06:00:00	6	Velocidad del viento	8
77674	7	Sololá	710	Panajachel	8	Panajachel	12	Diciembre	2023-12-13T00:00:00	2024-11-08T06:00:00	7	Dirección del viento	8.05
77675	7	Sololá	710	Panajachel	8	Panajachel	12	Diciembre	2023-12-13T00:00:00	2024-11-08T06:00:00	1	Precipitación	0
77676	7	Sololá	710	Panajachel	8	Panajachel	12	Diciembre	2023-12-13T00:00:00	2024-11-08T06:00:00	8	Radiación solar	0
77677	7	Sololá	710	Panajachel	8	Panajachel	12	Diciembre	2023-12-13T00:00:00	2024-11-08T07:00:00	2	Temperatura media	18.9
77678	7	Sololá	710	Panajachel	8	Panajachel	12	Diciembre	2023-12-13T00:00:00	2024-11-08T07:00:00	4	Temperatura máxima	18.9
77679	7	Sololá	710	Panajachel	8	Panajachel	12	Diciembre	2023-12-13T00:00:00	2024-11-08T07:00:00	3	Temperatura mínima	18.2
77680	7	Sololá	710	Panajachel	8	Panajachel	12	Diciembre	2023-12-13T00:00:00	2024-11-08T07:00:00	5	Humedad	69
77681	7	Sololá	710	Panajachel	8	Panajachel	12	Diciembre	2023-12-13T00:00:00	2024-11-08T07:00:00	6	Velocidad del viento	8
77682	7	Sololá	710	Panajachel	8	Panajachel	12	Diciembre	2023-12-13T00:00:00	2024-11-08T07:00:00	7	Dirección del viento	8.05
77683	7	Sololá	710	Panajachel	8	Panajachel	12	Diciembre	2023-12-13T00:00:00	2024-11-08T07:00:00	1	Precipitación	0
77684	7	Sololá	710	Panajachel	8	Panajachel	12	Diciembre	2023-12-13T00:00:00	2024-11-08T07:00:00	8	Radiación solar	6
77685	7	Sololá	710	Panajachel	8	Panajachel	12	Diciembre	2023-12-13T00:00:00	2024-11-08T08:00:00	2	Temperatura media	20
77686	7	Sololá	710	Panajachel	8	Panajachel	12	Diciembre	2023-12-13T00:00:00	2024-11-08T08:00:00	4	Temperatura máxima	20.1
77687	7	Sololá	710	Panajachel	8	Panajachel	12	Diciembre	2023-12-13T00:00:00	2024-11-08T08:00:00	3	Temperatura mínima	18.9
77688	7	Sololá	710	Panajachel	8	Panajachel	12	Diciembre	2023-12-13T00:00:00	2024-11-08T08:00:00	5	Humedad	68
77689	7	Sololá	710	Panajachel	8	Panajachel	12	Diciembre	2023-12-13T00:00:00	2024-11-08T08:00:00	6	Velocidad del viento	9.7
77690	7	Sololá	710	Panajachel	8	Panajachel	12	Diciembre	2023-12-13T00:00:00	2024-11-08T08:00:00	7	Dirección del viento	9.66
77691	7	Sololá	710	Panajachel	8	Panajachel	12	Diciembre	2023-12-13T00:00:00	2024-11-08T08:00:00	1	Precipitación	0
77692	7	Sololá	710	Panajachel	8	Panajachel	12	Diciembre	2023-12-13T00:00:00	2024-11-08T08:00:00	8	Radiación solar	181
77693	7	Sololá	710	Panajachel	8	Panajachel	12	Diciembre	2023-12-13T00:00:00	2024-11-08T09:00:00	2	Temperatura media	21.2
77694	7	Sololá	710	Panajachel	8	Panajachel	12	Diciembre	2023-12-13T00:00:00	2024-11-08T09:00:00	4	Temperatura máxima	21.2
77695	7	Sololá	710	Panajachel	8	Panajachel	12	Diciembre	2023-12-13T00:00:00	2024-11-08T09:00:00	3	Temperatura mínima	20
77696	7	Sololá	710	Panajachel	8	Panajachel	12	Diciembre	2023-12-13T00:00:00	2024-11-08T09:00:00	5	Humedad	66
77697	7	Sololá	710	Panajachel	8	Panajachel	12	Diciembre	2023-12-13T00:00:00	2024-11-08T09:00:00	6	Velocidad del viento	11.3
77698	7	Sololá	710	Panajachel	8	Panajachel	12	Diciembre	2023-12-13T00:00:00	2024-11-08T09:00:00	7	Dirección del viento	11.27
77699	7	Sololá	710	Panajachel	8	Panajachel	12	Diciembre	2023-12-13T00:00:00	2024-11-08T09:00:00	1	Precipitación	0
77700	7	Sololá	710	Panajachel	8	Panajachel	12	Diciembre	2023-12-13T00:00:00	2024-11-08T09:00:00	8	Radiación solar	401
77701	7	Sololá	710	Panajachel	8	Panajachel	12	Diciembre	2023-12-13T00:00:00	2024-11-08T10:00:00	2	Temperatura media	21.3
77702	7	Sololá	710	Panajachel	8	Panajachel	12	Diciembre	2023-12-13T00:00:00	2024-11-08T10:00:00	4	Temperatura máxima	21.4
77703	7	Sololá	710	Panajachel	8	Panajachel	12	Diciembre	2023-12-13T00:00:00	2024-11-08T10:00:00	3	Temperatura mínima	20.9
77704	7	Sololá	710	Panajachel	8	Panajachel	12	Diciembre	2023-12-13T00:00:00	2024-11-08T10:00:00	5	Humedad	67
77705	7	Sololá	710	Panajachel	8	Panajachel	12	Diciembre	2023-12-13T00:00:00	2024-11-08T10:00:00	6	Velocidad del viento	8
77706	7	Sololá	710	Panajachel	8	Panajachel	12	Diciembre	2023-12-13T00:00:00	2024-11-08T10:00:00	7	Dirección del viento	8.05
77707	7	Sololá	710	Panajachel	8	Panajachel	12	Diciembre	2023-12-13T00:00:00	2024-11-08T10:00:00	1	Precipitación	0
77708	7	Sololá	710	Panajachel	8	Panajachel	12	Diciembre	2023-12-13T00:00:00	2024-11-08T10:00:00	8	Radiación solar	618
77709	7	Sololá	710	Panajachel	8	Panajachel	12	Diciembre	2023-12-13T00:00:00	2024-11-08T11:00:00	2	Temperatura media	22.3
77710	7	Sololá	710	Panajachel	8	Panajachel	12	Diciembre	2023-12-13T00:00:00	2024-11-08T11:00:00	4	Temperatura máxima	22.6
77711	7	Sololá	710	Panajachel	8	Panajachel	12	Diciembre	2023-12-13T00:00:00	2024-11-08T11:00:00	3	Temperatura mínima	21.4
77712	7	Sololá	710	Panajachel	8	Panajachel	12	Diciembre	2023-12-13T00:00:00	2024-11-08T11:00:00	5	Humedad	65
77713	7	Sololá	710	Panajachel	8	Panajachel	12	Diciembre	2023-12-13T00:00:00	2024-11-08T11:00:00	6	Velocidad del viento	6.4
77714	7	Sololá	710	Panajachel	8	Panajachel	12	Diciembre	2023-12-13T00:00:00	2024-11-08T11:00:00	7	Dirección del viento	6.44
77715	7	Sololá	710	Panajachel	8	Panajachel	12	Diciembre	2023-12-13T00:00:00	2024-11-08T11:00:00	1	Precipitación	0
77716	7	Sololá	710	Panajachel	8	Panajachel	12	Diciembre	2023-12-13T00:00:00	2024-11-08T11:00:00	8	Radiación solar	724
77717	7	Sololá	710	Panajachel	8	Panajachel	12	Diciembre	2023-12-13T00:00:00	2024-11-08T12:00:00	2	Temperatura media	22.9
77718	7	Sololá	710	Panajachel	8	Panajachel	12	Diciembre	2023-12-13T00:00:00	2024-11-08T12:00:00	4	Temperatura máxima	23.2
77719	7	Sololá	710	Panajachel	8	Panajachel	12	Diciembre	2023-12-13T00:00:00	2024-11-08T12:00:00	3	Temperatura mínima	22.2
77720	7	Sololá	710	Panajachel	8	Panajachel	12	Diciembre	2023-12-13T00:00:00	2024-11-08T12:00:00	5	Humedad	63
77721	7	Sololá	710	Panajachel	8	Panajachel	12	Diciembre	2023-12-13T00:00:00	2024-11-08T12:00:00	6	Velocidad del viento	8
77722	7	Sololá	710	Panajachel	8	Panajachel	12	Diciembre	2023-12-13T00:00:00	2024-11-08T12:00:00	7	Dirección del viento	8.05
77723	7	Sololá	710	Panajachel	8	Panajachel	12	Diciembre	2023-12-13T00:00:00	2024-11-08T12:00:00	1	Precipitación	0
77724	7	Sololá	710	Panajachel	8	Panajachel	12	Diciembre	2023-12-13T00:00:00	2024-11-08T12:00:00	8	Radiación solar	775
77725	7	Sololá	710	Panajachel	8	Panajachel	12	Diciembre	2023-12-13T00:00:00	2024-11-08T13:00:00	2	Temperatura media	22.5
77726	7	Sololá	710	Panajachel	8	Panajachel	12	Diciembre	2023-12-13T00:00:00	2024-11-08T13:00:00	4	Temperatura máxima	22.9
77727	7	Sololá	710	Panajachel	8	Panajachel	12	Diciembre	2023-12-13T00:00:00	2024-11-08T13:00:00	3	Temperatura mínima	22.3
77728	7	Sololá	710	Panajachel	8	Panajachel	12	Diciembre	2023-12-13T00:00:00	2024-11-08T13:00:00	5	Humedad	62
77729	7	Sololá	710	Panajachel	8	Panajachel	12	Diciembre	2023-12-13T00:00:00	2024-11-08T13:00:00	6	Velocidad del viento	14.5
77730	7	Sololá	710	Panajachel	8	Panajachel	12	Diciembre	2023-12-13T00:00:00	2024-11-08T13:00:00	7	Dirección del viento	14.48
77731	7	Sololá	710	Panajachel	8	Panajachel	12	Diciembre	2023-12-13T00:00:00	2024-11-08T13:00:00	1	Precipitación	0
77732	7	Sololá	710	Panajachel	8	Panajachel	12	Diciembre	2023-12-13T00:00:00	2024-11-08T13:00:00	8	Radiación solar	765
77733	7	Sololá	710	Panajachel	8	Panajachel	12	Diciembre	2023-12-13T00:00:00	2024-11-08T14:00:00	2	Temperatura media	22.9
77734	7	Sololá	710	Panajachel	8	Panajachel	12	Diciembre	2023-12-13T00:00:00	2024-11-08T14:00:00	4	Temperatura máxima	23
77735	7	Sololá	710	Panajachel	8	Panajachel	12	Diciembre	2023-12-13T00:00:00	2024-11-08T14:00:00	3	Temperatura mínima	22.3
77736	7	Sololá	710	Panajachel	8	Panajachel	12	Diciembre	2023-12-13T00:00:00	2024-11-08T14:00:00	5	Humedad	62
77737	7	Sololá	710	Panajachel	8	Panajachel	12	Diciembre	2023-12-13T00:00:00	2024-11-08T14:00:00	6	Velocidad del viento	11.3
77738	7	Sololá	710	Panajachel	8	Panajachel	12	Diciembre	2023-12-13T00:00:00	2024-11-08T14:00:00	7	Dirección del viento	11.27
77739	7	Sololá	710	Panajachel	8	Panajachel	12	Diciembre	2023-12-13T00:00:00	2024-11-08T14:00:00	1	Precipitación	0
77740	7	Sololá	710	Panajachel	8	Panajachel	12	Diciembre	2023-12-13T00:00:00	2024-11-08T14:00:00	8	Radiación solar	686
77741	7	Sololá	710	Panajachel	8	Panajachel	12	Diciembre	2023-12-13T00:00:00	2024-11-08T15:00:00	2	Temperatura media	22.2
77742	7	Sololá	710	Panajachel	8	Panajachel	12	Diciembre	2023-12-13T00:00:00	2024-11-08T15:00:00	4	Temperatura máxima	23
77743	7	Sololá	710	Panajachel	8	Panajachel	12	Diciembre	2023-12-13T00:00:00	2024-11-08T15:00:00	3	Temperatura mínima	22.1
77744	7	Sololá	710	Panajachel	8	Panajachel	12	Diciembre	2023-12-13T00:00:00	2024-11-08T15:00:00	5	Humedad	64
77745	7	Sololá	710	Panajachel	8	Panajachel	12	Diciembre	2023-12-13T00:00:00	2024-11-08T15:00:00	6	Velocidad del viento	11.3
77746	7	Sololá	710	Panajachel	8	Panajachel	12	Diciembre	2023-12-13T00:00:00	2024-11-08T15:00:00	7	Dirección del viento	11.27
77747	7	Sololá	710	Panajachel	8	Panajachel	12	Diciembre	2023-12-13T00:00:00	2024-11-08T15:00:00	1	Precipitación	0
77748	7	Sololá	710	Panajachel	8	Panajachel	12	Diciembre	2023-12-13T00:00:00	2024-11-08T15:00:00	8	Radiación solar	564
77749	7	Sololá	710	Panajachel	8	Panajachel	12	Diciembre	2023-12-13T00:00:00	2024-11-08T16:00:00	2	Temperatura media	22.3
77750	7	Sololá	710	Panajachel	8	Panajachel	12	Diciembre	2023-12-13T00:00:00	2024-11-08T16:00:00	4	Temperatura máxima	22.5
77751	7	Sololá	710	Panajachel	8	Panajachel	12	Diciembre	2023-12-13T00:00:00	2024-11-08T16:00:00	3	Temperatura mínima	22
77752	7	Sololá	710	Panajachel	8	Panajachel	12	Diciembre	2023-12-13T00:00:00	2024-11-08T16:00:00	5	Humedad	62
77753	7	Sololá	710	Panajachel	8	Panajachel	12	Diciembre	2023-12-13T00:00:00	2024-11-08T16:00:00	6	Velocidad del viento	9.7
77754	7	Sololá	710	Panajachel	8	Panajachel	12	Diciembre	2023-12-13T00:00:00	2024-11-08T16:00:00	7	Dirección del viento	9.66
77755	7	Sololá	710	Panajachel	8	Panajachel	12	Diciembre	2023-12-13T00:00:00	2024-11-08T16:00:00	1	Precipitación	0
77756	7	Sololá	710	Panajachel	8	Panajachel	12	Diciembre	2023-12-13T00:00:00	2024-11-08T16:00:00	8	Radiación solar	392
77757	7	Sololá	710	Panajachel	8	Panajachel	12	Diciembre	2023-12-13T00:00:00	2024-11-08T17:00:00	2	Temperatura media	21.3
77758	7	Sololá	710	Panajachel	8	Panajachel	12	Diciembre	2023-12-13T00:00:00	2024-11-08T17:00:00	4	Temperatura máxima	22.6
77759	7	Sololá	710	Panajachel	8	Panajachel	12	Diciembre	2023-12-13T00:00:00	2024-11-08T17:00:00	3	Temperatura mínima	21.3
77760	7	Sololá	710	Panajachel	8	Panajachel	12	Diciembre	2023-12-13T00:00:00	2024-11-08T17:00:00	5	Humedad	64
77761	7	Sololá	710	Panajachel	8	Panajachel	12	Diciembre	2023-12-13T00:00:00	2024-11-08T17:00:00	6	Velocidad del viento	8
77762	7	Sololá	710	Panajachel	8	Panajachel	12	Diciembre	2023-12-13T00:00:00	2024-11-08T17:00:00	7	Dirección del viento	8.05
77763	7	Sololá	710	Panajachel	8	Panajachel	12	Diciembre	2023-12-13T00:00:00	2024-11-08T17:00:00	1	Precipitación	0
77764	7	Sololá	710	Panajachel	8	Panajachel	12	Diciembre	2023-12-13T00:00:00	2024-11-08T17:00:00	8	Radiación solar	173
77765	7	Sololá	710	Panajachel	8	Panajachel	12	Diciembre	2023-12-13T00:00:00	2024-11-08T18:00:00	2	Temperatura media	19.8
77766	7	Sololá	710	Panajachel	8	Panajachel	12	Diciembre	2023-12-13T00:00:00	2024-11-08T18:00:00	4	Temperatura máxima	21.3
77767	7	Sololá	710	Panajachel	8	Panajachel	12	Diciembre	2023-12-13T00:00:00	2024-11-08T18:00:00	3	Temperatura mínima	19.8
77768	7	Sololá	710	Panajachel	8	Panajachel	12	Diciembre	2023-12-13T00:00:00	2024-11-08T18:00:00	5	Humedad	68
77769	7	Sololá	710	Panajachel	8	Panajachel	12	Diciembre	2023-12-13T00:00:00	2024-11-08T18:00:00	6	Velocidad del viento	9.7
77770	7	Sololá	710	Panajachel	8	Panajachel	12	Diciembre	2023-12-13T00:00:00	2024-11-08T18:00:00	7	Dirección del viento	9.66
77771	7	Sololá	710	Panajachel	8	Panajachel	12	Diciembre	2023-12-13T00:00:00	2024-11-08T18:00:00	1	Precipitación	0
77772	7	Sololá	710	Panajachel	8	Panajachel	12	Diciembre	2023-12-13T00:00:00	2024-11-08T18:00:00	8	Radiación solar	13
77773	7	Sololá	710	Panajachel	8	Panajachel	12	Diciembre	2023-12-13T00:00:00	2024-11-08T19:00:00	2	Temperatura media	19.8
77774	7	Sololá	710	Panajachel	8	Panajachel	12	Diciembre	2023-12-13T00:00:00	2024-11-08T19:00:00	4	Temperatura máxima	19.9
77775	7	Sololá	710	Panajachel	8	Panajachel	12	Diciembre	2023-12-13T00:00:00	2024-11-08T19:00:00	3	Temperatura mínima	19.8
77776	7	Sololá	710	Panajachel	8	Panajachel	12	Diciembre	2023-12-13T00:00:00	2024-11-08T19:00:00	5	Humedad	70
77777	7	Sololá	710	Panajachel	8	Panajachel	12	Diciembre	2023-12-13T00:00:00	2024-11-08T19:00:00	6	Velocidad del viento	11.3
77778	7	Sololá	710	Panajachel	8	Panajachel	12	Diciembre	2023-12-13T00:00:00	2024-11-08T19:00:00	7	Dirección del viento	11.27
77779	7	Sololá	710	Panajachel	8	Panajachel	12	Diciembre	2023-12-13T00:00:00	2024-11-08T19:00:00	1	Precipitación	0
77780	7	Sololá	710	Panajachel	8	Panajachel	12	Diciembre	2023-12-13T00:00:00	2024-11-08T19:00:00	8	Radiación solar	0
77781	7	Sololá	710	Panajachel	8	Panajachel	12	Diciembre	2023-12-13T00:00:00	2024-11-08T20:00:00	2	Temperatura media	19.7
77782	7	Sololá	710	Panajachel	8	Panajachel	12	Diciembre	2023-12-13T00:00:00	2024-11-08T20:00:00	4	Temperatura máxima	19.8
77783	7	Sololá	710	Panajachel	8	Panajachel	12	Diciembre	2023-12-13T00:00:00	2024-11-08T20:00:00	3	Temperatura mínima	19.6
77784	7	Sololá	710	Panajachel	8	Panajachel	12	Diciembre	2023-12-13T00:00:00	2024-11-08T20:00:00	5	Humedad	71
77785	7	Sololá	710	Panajachel	8	Panajachel	12	Diciembre	2023-12-13T00:00:00	2024-11-08T20:00:00	6	Velocidad del viento	11.3
77786	7	Sololá	710	Panajachel	8	Panajachel	12	Diciembre	2023-12-13T00:00:00	2024-11-08T20:00:00	7	Dirección del viento	11.27
77787	7	Sololá	710	Panajachel	8	Panajachel	12	Diciembre	2023-12-13T00:00:00	2024-11-08T20:00:00	1	Precipitación	0
77788	7	Sololá	710	Panajachel	8	Panajachel	12	Diciembre	2023-12-13T00:00:00	2024-11-08T20:00:00	8	Radiación solar	0
77789	7	Sololá	710	Panajachel	8	Panajachel	12	Diciembre	2023-12-13T00:00:00	2024-11-08T21:00:00	2	Temperatura media	19.7
77790	7	Sololá	710	Panajachel	8	Panajachel	12	Diciembre	2023-12-13T00:00:00	2024-11-08T21:00:00	4	Temperatura máxima	19.7
77791	7	Sololá	710	Panajachel	8	Panajachel	12	Diciembre	2023-12-13T00:00:00	2024-11-08T21:00:00	3	Temperatura mínima	19.5
77792	7	Sololá	710	Panajachel	8	Panajachel	12	Diciembre	2023-12-13T00:00:00	2024-11-08T21:00:00	5	Humedad	72
77793	7	Sololá	710	Panajachel	8	Panajachel	12	Diciembre	2023-12-13T00:00:00	2024-11-08T21:00:00	6	Velocidad del viento	12.9
77794	7	Sololá	710	Panajachel	8	Panajachel	12	Diciembre	2023-12-13T00:00:00	2024-11-08T21:00:00	7	Dirección del viento	12.87
77795	7	Sololá	710	Panajachel	8	Panajachel	12	Diciembre	2023-12-13T00:00:00	2024-11-08T21:00:00	1	Precipitación	0
77796	7	Sololá	710	Panajachel	8	Panajachel	12	Diciembre	2023-12-13T00:00:00	2024-11-08T21:00:00	8	Radiación solar	0
77797	7	Sololá	710	Panajachel	8	Panajachel	12	Diciembre	2023-12-13T00:00:00	2024-11-08T22:00:00	2	Temperatura media	19.8
77798	7	Sololá	710	Panajachel	8	Panajachel	12	Diciembre	2023-12-13T00:00:00	2024-11-08T22:00:00	4	Temperatura máxima	19.8
77799	7	Sololá	710	Panajachel	8	Panajachel	12	Diciembre	2023-12-13T00:00:00	2024-11-08T22:00:00	3	Temperatura mínima	19.7
77800	7	Sololá	710	Panajachel	8	Panajachel	12	Diciembre	2023-12-13T00:00:00	2024-11-08T22:00:00	5	Humedad	72
77801	7	Sololá	710	Panajachel	8	Panajachel	12	Diciembre	2023-12-13T00:00:00	2024-11-08T22:00:00	6	Velocidad del viento	9.7
77802	7	Sololá	710	Panajachel	8	Panajachel	12	Diciembre	2023-12-13T00:00:00	2024-11-08T22:00:00	7	Dirección del viento	9.66
77803	7	Sololá	710	Panajachel	8	Panajachel	12	Diciembre	2023-12-13T00:00:00	2024-11-08T22:00:00	1	Precipitación	0
77804	7	Sololá	710	Panajachel	8	Panajachel	12	Diciembre	2023-12-13T00:00:00	2024-11-08T22:00:00	8	Radiación solar	0
77805	7	Sololá	710	Panajachel	8	Panajachel	12	Diciembre	2023-12-13T00:00:00	2024-11-08T23:00:00	2	Temperatura media	19.5
77806	7	Sololá	710	Panajachel	8	Panajachel	12	Diciembre	2023-12-13T00:00:00	2024-11-08T23:00:00	4	Temperatura máxima	19.8
77807	7	Sololá	710	Panajachel	8	Panajachel	12	Diciembre	2023-12-13T00:00:00	2024-11-08T23:00:00	3	Temperatura mínima	19.5
77808	7	Sololá	710	Panajachel	8	Panajachel	12	Diciembre	2023-12-13T00:00:00	2024-11-08T23:00:00	5	Humedad	73
77809	7	Sololá	710	Panajachel	8	Panajachel	12	Diciembre	2023-12-13T00:00:00	2024-11-08T23:00:00	6	Velocidad del viento	12.9
77810	7	Sololá	710	Panajachel	8	Panajachel	12	Diciembre	2023-12-13T00:00:00	2024-11-08T23:00:00	7	Dirección del viento	12.87
77811	7	Sololá	710	Panajachel	8	Panajachel	12	Diciembre	2023-12-13T00:00:00	2024-11-08T23:00:00	1	Precipitación	0
77812	7	Sololá	710	Panajachel	8	Panajachel	12	Diciembre	2023-12-13T00:00:00	2024-11-08T23:00:00	8	Radiación solar	0
77813	7	Sololá	710	Panajachel	8	Panajachel	12	Diciembre	2023-12-14T00:00:00	2024-11-08T00:00:00	2	Temperatura media	19.7
77814	7	Sololá	710	Panajachel	8	Panajachel	12	Diciembre	2023-12-14T00:00:00	2024-11-08T00:00:00	4	Temperatura máxima	19.8
77815	7	Sololá	710	Panajachel	8	Panajachel	12	Diciembre	2023-12-14T00:00:00	2024-11-08T00:00:00	3	Temperatura mínima	19.4
77816	7	Sololá	710	Panajachel	8	Panajachel	12	Diciembre	2023-12-14T00:00:00	2024-11-08T00:00:00	5	Humedad	71
77817	7	Sololá	710	Panajachel	8	Panajachel	12	Diciembre	2023-12-14T00:00:00	2024-11-08T00:00:00	6	Velocidad del viento	11.3
77818	7	Sololá	710	Panajachel	8	Panajachel	12	Diciembre	2023-12-14T00:00:00	2024-11-08T00:00:00	7	Dirección del viento	11.27
77819	7	Sololá	710	Panajachel	8	Panajachel	12	Diciembre	2023-12-14T00:00:00	2024-11-08T00:00:00	1	Precipitación	0
77820	7	Sololá	710	Panajachel	8	Panajachel	12	Diciembre	2023-12-14T00:00:00	2024-11-08T00:00:00	8	Radiación solar	0
77821	7	Sololá	710	Panajachel	8	Panajachel	12	Diciembre	2023-12-14T00:00:00	2024-11-08T01:00:00	2	Temperatura media	19.5
77822	7	Sololá	710	Panajachel	8	Panajachel	12	Diciembre	2023-12-14T00:00:00	2024-11-08T01:00:00	4	Temperatura máxima	19.7
77823	7	Sololá	710	Panajachel	8	Panajachel	12	Diciembre	2023-12-14T00:00:00	2024-11-08T01:00:00	3	Temperatura mínima	19.4
77824	7	Sololá	710	Panajachel	8	Panajachel	12	Diciembre	2023-12-14T00:00:00	2024-11-08T01:00:00	5	Humedad	72
77825	7	Sololá	710	Panajachel	8	Panajachel	12	Diciembre	2023-12-14T00:00:00	2024-11-08T01:00:00	6	Velocidad del viento	4.8
77826	7	Sololá	710	Panajachel	8	Panajachel	12	Diciembre	2023-12-14T00:00:00	2024-11-08T01:00:00	7	Dirección del viento	4.83
77827	7	Sololá	710	Panajachel	8	Panajachel	12	Diciembre	2023-12-14T00:00:00	2024-11-08T01:00:00	1	Precipitación	0
77828	7	Sololá	710	Panajachel	8	Panajachel	12	Diciembre	2023-12-14T00:00:00	2024-11-08T01:00:00	8	Radiación solar	0
77829	7	Sololá	710	Panajachel	8	Panajachel	12	Diciembre	2023-12-14T00:00:00	2024-11-08T02:00:00	2	Temperatura media	19.6
77830	7	Sololá	710	Panajachel	8	Panajachel	12	Diciembre	2023-12-14T00:00:00	2024-11-08T02:00:00	4	Temperatura máxima	19.6
77831	7	Sololá	710	Panajachel	8	Panajachel	12	Diciembre	2023-12-14T00:00:00	2024-11-08T02:00:00	3	Temperatura mínima	19.4
77832	7	Sololá	710	Panajachel	8	Panajachel	12	Diciembre	2023-12-14T00:00:00	2024-11-08T02:00:00	5	Humedad	71
77833	7	Sololá	710	Panajachel	8	Panajachel	12	Diciembre	2023-12-14T00:00:00	2024-11-08T02:00:00	6	Velocidad del viento	6.4
77834	7	Sololá	710	Panajachel	8	Panajachel	12	Diciembre	2023-12-14T00:00:00	2024-11-08T02:00:00	7	Dirección del viento	6.44
77835	7	Sololá	710	Panajachel	8	Panajachel	12	Diciembre	2023-12-14T00:00:00	2024-11-08T02:00:00	1	Precipitación	0
77836	7	Sololá	710	Panajachel	8	Panajachel	12	Diciembre	2023-12-14T00:00:00	2024-11-08T02:00:00	8	Radiación solar	0
77837	7	Sololá	710	Panajachel	8	Panajachel	12	Diciembre	2023-12-14T00:00:00	2024-11-08T03:00:00	2	Temperatura media	19.7
77838	7	Sololá	710	Panajachel	8	Panajachel	12	Diciembre	2023-12-14T00:00:00	2024-11-08T03:00:00	4	Temperatura máxima	19.9
77839	7	Sololá	710	Panajachel	8	Panajachel	12	Diciembre	2023-12-14T00:00:00	2024-11-08T03:00:00	3	Temperatura mínima	19.6
77840	7	Sololá	710	Panajachel	8	Panajachel	12	Diciembre	2023-12-14T00:00:00	2024-11-08T03:00:00	5	Humedad	71
77841	7	Sololá	710	Panajachel	8	Panajachel	12	Diciembre	2023-12-14T00:00:00	2024-11-08T03:00:00	6	Velocidad del viento	9.7
77842	7	Sololá	710	Panajachel	8	Panajachel	12	Diciembre	2023-12-14T00:00:00	2024-11-08T03:00:00	7	Dirección del viento	9.66
77843	7	Sololá	710	Panajachel	8	Panajachel	12	Diciembre	2023-12-14T00:00:00	2024-11-08T03:00:00	1	Precipitación	0
77844	7	Sololá	710	Panajachel	8	Panajachel	12	Diciembre	2023-12-14T00:00:00	2024-11-08T03:00:00	8	Radiación solar	0
77845	7	Sololá	710	Panajachel	8	Panajachel	12	Diciembre	2023-12-14T00:00:00	2024-11-08T04:00:00	2	Temperatura media	19.9
77846	7	Sololá	710	Panajachel	8	Panajachel	12	Diciembre	2023-12-14T00:00:00	2024-11-08T04:00:00	4	Temperatura máxima	20
77847	7	Sololá	710	Panajachel	8	Panajachel	12	Diciembre	2023-12-14T00:00:00	2024-11-08T04:00:00	3	Temperatura mínima	19.7
77848	7	Sololá	710	Panajachel	8	Panajachel	12	Diciembre	2023-12-14T00:00:00	2024-11-08T04:00:00	5	Humedad	69
77849	7	Sololá	710	Panajachel	8	Panajachel	12	Diciembre	2023-12-14T00:00:00	2024-11-08T04:00:00	6	Velocidad del viento	11.3
77850	7	Sololá	710	Panajachel	8	Panajachel	12	Diciembre	2023-12-14T00:00:00	2024-11-08T04:00:00	7	Dirección del viento	11.27
77851	7	Sololá	710	Panajachel	8	Panajachel	12	Diciembre	2023-12-14T00:00:00	2024-11-08T04:00:00	1	Precipitación	0
77852	7	Sololá	710	Panajachel	8	Panajachel	12	Diciembre	2023-12-14T00:00:00	2024-11-08T04:00:00	8	Radiación solar	0
77853	7	Sololá	710	Panajachel	8	Panajachel	12	Diciembre	2023-12-14T00:00:00	2024-11-08T05:00:00	2	Temperatura media	19.7
77854	7	Sololá	710	Panajachel	8	Panajachel	12	Diciembre	2023-12-14T00:00:00	2024-11-08T05:00:00	4	Temperatura máxima	19.9
77855	7	Sololá	710	Panajachel	8	Panajachel	12	Diciembre	2023-12-14T00:00:00	2024-11-08T05:00:00	3	Temperatura mínima	19.6
77856	7	Sololá	710	Panajachel	8	Panajachel	12	Diciembre	2023-12-14T00:00:00	2024-11-08T05:00:00	5	Humedad	70
77857	7	Sololá	710	Panajachel	8	Panajachel	12	Diciembre	2023-12-14T00:00:00	2024-11-08T05:00:00	6	Velocidad del viento	11.3
77858	7	Sololá	710	Panajachel	8	Panajachel	12	Diciembre	2023-12-14T00:00:00	2024-11-08T05:00:00	7	Dirección del viento	11.27
77859	7	Sololá	710	Panajachel	8	Panajachel	12	Diciembre	2023-12-14T00:00:00	2024-11-08T05:00:00	1	Precipitación	0
77860	7	Sololá	710	Panajachel	8	Panajachel	12	Diciembre	2023-12-14T00:00:00	2024-11-08T05:00:00	8	Radiación solar	0
77861	7	Sololá	710	Panajachel	8	Panajachel	12	Diciembre	2023-12-14T00:00:00	2024-11-08T06:00:00	2	Temperatura media	19.7
77862	7	Sololá	710	Panajachel	8	Panajachel	12	Diciembre	2023-12-14T00:00:00	2024-11-08T06:00:00	4	Temperatura máxima	19.9
77863	7	Sololá	710	Panajachel	8	Panajachel	12	Diciembre	2023-12-14T00:00:00	2024-11-08T06:00:00	3	Temperatura mínima	19.7
77864	7	Sololá	710	Panajachel	8	Panajachel	12	Diciembre	2023-12-14T00:00:00	2024-11-08T06:00:00	5	Humedad	70
77865	7	Sololá	710	Panajachel	8	Panajachel	12	Diciembre	2023-12-14T00:00:00	2024-11-08T06:00:00	6	Velocidad del viento	11.3
77866	7	Sololá	710	Panajachel	8	Panajachel	12	Diciembre	2023-12-14T00:00:00	2024-11-08T06:00:00	7	Dirección del viento	11.27
77867	7	Sololá	710	Panajachel	8	Panajachel	12	Diciembre	2023-12-14T00:00:00	2024-11-08T06:00:00	1	Precipitación	0
77868	7	Sololá	710	Panajachel	8	Panajachel	12	Diciembre	2023-12-14T00:00:00	2024-11-08T06:00:00	8	Radiación solar	0
77869	7	Sololá	710	Panajachel	8	Panajachel	12	Diciembre	2023-12-14T00:00:00	2024-11-08T07:00:00	2	Temperatura media	19.7
77870	7	Sololá	710	Panajachel	8	Panajachel	12	Diciembre	2023-12-14T00:00:00	2024-11-08T07:00:00	4	Temperatura máxima	19.8
77871	7	Sololá	710	Panajachel	8	Panajachel	12	Diciembre	2023-12-14T00:00:00	2024-11-08T07:00:00	3	Temperatura mínima	19.5
77872	7	Sololá	710	Panajachel	8	Panajachel	12	Diciembre	2023-12-14T00:00:00	2024-11-08T07:00:00	5	Humedad	70
77873	7	Sololá	710	Panajachel	8	Panajachel	12	Diciembre	2023-12-14T00:00:00	2024-11-08T07:00:00	6	Velocidad del viento	11.3
77874	7	Sololá	710	Panajachel	8	Panajachel	12	Diciembre	2023-12-14T00:00:00	2024-11-08T07:00:00	7	Dirección del viento	11.27
77875	7	Sololá	710	Panajachel	8	Panajachel	12	Diciembre	2023-12-14T00:00:00	2024-11-08T07:00:00	1	Precipitación	0
77876	7	Sololá	710	Panajachel	8	Panajachel	12	Diciembre	2023-12-14T00:00:00	2024-11-08T07:00:00	8	Radiación solar	6
77877	7	Sololá	710	Panajachel	8	Panajachel	12	Diciembre	2023-12-14T00:00:00	2024-11-08T08:00:00	2	Temperatura media	21
77878	7	Sololá	710	Panajachel	8	Panajachel	12	Diciembre	2023-12-14T00:00:00	2024-11-08T08:00:00	4	Temperatura máxima	21.1
77879	7	Sololá	710	Panajachel	8	Panajachel	12	Diciembre	2023-12-14T00:00:00	2024-11-08T08:00:00	3	Temperatura mínima	19.6
77880	7	Sololá	710	Panajachel	8	Panajachel	12	Diciembre	2023-12-14T00:00:00	2024-11-08T08:00:00	5	Humedad	67
77881	7	Sololá	710	Panajachel	8	Panajachel	12	Diciembre	2023-12-14T00:00:00	2024-11-08T08:00:00	6	Velocidad del viento	11.3
77882	7	Sololá	710	Panajachel	8	Panajachel	12	Diciembre	2023-12-14T00:00:00	2024-11-08T08:00:00	7	Dirección del viento	11.27
77883	7	Sololá	710	Panajachel	8	Panajachel	12	Diciembre	2023-12-14T00:00:00	2024-11-08T08:00:00	1	Precipitación	0
77884	7	Sololá	710	Panajachel	8	Panajachel	12	Diciembre	2023-12-14T00:00:00	2024-11-08T08:00:00	8	Radiación solar	175
77885	7	Sololá	710	Panajachel	8	Panajachel	12	Diciembre	2023-12-14T00:00:00	2024-11-08T09:00:00	2	Temperatura media	22.7
77886	7	Sololá	710	Panajachel	8	Panajachel	12	Diciembre	2023-12-14T00:00:00	2024-11-08T09:00:00	4	Temperatura máxima	22.8
77887	7	Sololá	710	Panajachel	8	Panajachel	12	Diciembre	2023-12-14T00:00:00	2024-11-08T09:00:00	3	Temperatura mínima	21
77888	7	Sololá	710	Panajachel	8	Panajachel	12	Diciembre	2023-12-14T00:00:00	2024-11-08T09:00:00	5	Humedad	62
77889	7	Sololá	710	Panajachel	8	Panajachel	12	Diciembre	2023-12-14T00:00:00	2024-11-08T09:00:00	6	Velocidad del viento	11.3
77890	7	Sololá	710	Panajachel	8	Panajachel	12	Diciembre	2023-12-14T00:00:00	2024-11-08T09:00:00	7	Dirección del viento	11.27
77891	7	Sololá	710	Panajachel	8	Panajachel	12	Diciembre	2023-12-14T00:00:00	2024-11-08T09:00:00	1	Precipitación	0
77892	7	Sololá	710	Panajachel	8	Panajachel	12	Diciembre	2023-12-14T00:00:00	2024-11-08T09:00:00	8	Radiación solar	386
77893	7	Sololá	710	Panajachel	8	Panajachel	12	Diciembre	2023-12-14T00:00:00	2024-11-08T10:00:00	2	Temperatura media	23.8
77894	7	Sololá	710	Panajachel	8	Panajachel	12	Diciembre	2023-12-14T00:00:00	2024-11-08T10:00:00	4	Temperatura máxima	23.8
77895	7	Sololá	710	Panajachel	8	Panajachel	12	Diciembre	2023-12-14T00:00:00	2024-11-08T10:00:00	3	Temperatura mínima	22.7
77896	7	Sololá	710	Panajachel	8	Panajachel	12	Diciembre	2023-12-14T00:00:00	2024-11-08T10:00:00	5	Humedad	60
77897	7	Sololá	710	Panajachel	8	Panajachel	12	Diciembre	2023-12-14T00:00:00	2024-11-08T10:00:00	6	Velocidad del viento	12.9
77898	7	Sololá	710	Panajachel	8	Panajachel	12	Diciembre	2023-12-14T00:00:00	2024-11-08T10:00:00	7	Dirección del viento	12.87
77899	7	Sololá	710	Panajachel	8	Panajachel	12	Diciembre	2023-12-14T00:00:00	2024-11-08T10:00:00	1	Precipitación	0
77900	7	Sololá	710	Panajachel	8	Panajachel	12	Diciembre	2023-12-14T00:00:00	2024-11-08T10:00:00	8	Radiación solar	573
77901	7	Sololá	710	Panajachel	8	Panajachel	12	Diciembre	2023-12-14T00:00:00	2024-11-08T11:00:00	2	Temperatura media	24.2
77902	7	Sololá	710	Panajachel	8	Panajachel	12	Diciembre	2023-12-14T00:00:00	2024-11-08T11:00:00	4	Temperatura máxima	24.4
77903	7	Sololá	710	Panajachel	8	Panajachel	12	Diciembre	2023-12-14T00:00:00	2024-11-08T11:00:00	3	Temperatura mínima	23.8
77904	7	Sololá	710	Panajachel	8	Panajachel	12	Diciembre	2023-12-14T00:00:00	2024-11-08T11:00:00	5	Humedad	59
77905	7	Sololá	710	Panajachel	8	Panajachel	12	Diciembre	2023-12-14T00:00:00	2024-11-08T11:00:00	6	Velocidad del viento	12.9
77906	7	Sololá	710	Panajachel	8	Panajachel	12	Diciembre	2023-12-14T00:00:00	2024-11-08T11:00:00	7	Dirección del viento	12.87
77907	7	Sololá	710	Panajachel	8	Panajachel	12	Diciembre	2023-12-14T00:00:00	2024-11-08T11:00:00	1	Precipitación	0
77908	7	Sololá	710	Panajachel	8	Panajachel	12	Diciembre	2023-12-14T00:00:00	2024-11-08T11:00:00	8	Radiación solar	684
77909	7	Sololá	710	Panajachel	8	Panajachel	12	Diciembre	2023-12-14T00:00:00	2024-11-08T12:00:00	2	Temperatura media	25.5
77910	7	Sololá	710	Panajachel	8	Panajachel	12	Diciembre	2023-12-14T00:00:00	2024-11-08T12:00:00	4	Temperatura máxima	25.5
77911	7	Sololá	710	Panajachel	8	Panajachel	12	Diciembre	2023-12-14T00:00:00	2024-11-08T12:00:00	3	Temperatura mínima	24.2
77912	7	Sololá	710	Panajachel	8	Panajachel	12	Diciembre	2023-12-14T00:00:00	2024-11-08T12:00:00	5	Humedad	55
77913	7	Sololá	710	Panajachel	8	Panajachel	12	Diciembre	2023-12-14T00:00:00	2024-11-08T12:00:00	6	Velocidad del viento	11.3
77914	7	Sololá	710	Panajachel	8	Panajachel	12	Diciembre	2023-12-14T00:00:00	2024-11-08T12:00:00	7	Dirección del viento	11.27
77915	7	Sololá	710	Panajachel	8	Panajachel	12	Diciembre	2023-12-14T00:00:00	2024-11-08T12:00:00	1	Precipitación	0
77916	7	Sololá	710	Panajachel	8	Panajachel	12	Diciembre	2023-12-14T00:00:00	2024-11-08T12:00:00	8	Radiación solar	757
77917	7	Sololá	710	Panajachel	8	Panajachel	12	Diciembre	2023-12-14T00:00:00	2024-11-08T13:00:00	2	Temperatura media	25.7
77918	7	Sololá	710	Panajachel	8	Panajachel	12	Diciembre	2023-12-14T00:00:00	2024-11-08T13:00:00	4	Temperatura máxima	25.8
77919	7	Sololá	710	Panajachel	8	Panajachel	12	Diciembre	2023-12-14T00:00:00	2024-11-08T13:00:00	3	Temperatura mínima	25.2
77920	7	Sololá	710	Panajachel	8	Panajachel	12	Diciembre	2023-12-14T00:00:00	2024-11-08T13:00:00	5	Humedad	56
77921	7	Sololá	710	Panajachel	8	Panajachel	12	Diciembre	2023-12-14T00:00:00	2024-11-08T13:00:00	6	Velocidad del viento	8
77922	7	Sololá	710	Panajachel	8	Panajachel	12	Diciembre	2023-12-14T00:00:00	2024-11-08T13:00:00	7	Dirección del viento	8.05
77923	7	Sololá	710	Panajachel	8	Panajachel	12	Diciembre	2023-12-14T00:00:00	2024-11-08T13:00:00	1	Precipitación	0
77924	7	Sololá	710	Panajachel	8	Panajachel	12	Diciembre	2023-12-14T00:00:00	2024-11-08T13:00:00	8	Radiación solar	753
77925	7	Sololá	710	Panajachel	8	Panajachel	12	Diciembre	2023-12-14T00:00:00	2024-11-08T14:00:00	2	Temperatura media	25.6
77926	7	Sololá	710	Panajachel	8	Panajachel	12	Diciembre	2023-12-14T00:00:00	2024-11-08T14:00:00	4	Temperatura máxima	26
77927	7	Sololá	710	Panajachel	8	Panajachel	12	Diciembre	2023-12-14T00:00:00	2024-11-08T14:00:00	3	Temperatura mínima	25.1
77928	7	Sololá	710	Panajachel	8	Panajachel	12	Diciembre	2023-12-14T00:00:00	2024-11-08T14:00:00	5	Humedad	55
77929	7	Sololá	710	Panajachel	8	Panajachel	12	Diciembre	2023-12-14T00:00:00	2024-11-08T14:00:00	6	Velocidad del viento	11.3
77930	7	Sololá	710	Panajachel	8	Panajachel	12	Diciembre	2023-12-14T00:00:00	2024-11-08T14:00:00	7	Dirección del viento	11.27
77931	7	Sololá	710	Panajachel	8	Panajachel	12	Diciembre	2023-12-14T00:00:00	2024-11-08T14:00:00	1	Precipitación	0
77932	7	Sololá	710	Panajachel	8	Panajachel	12	Diciembre	2023-12-14T00:00:00	2024-11-08T14:00:00	8	Radiación solar	690
77933	7	Sololá	710	Panajachel	8	Panajachel	12	Diciembre	2023-12-14T00:00:00	2024-11-08T15:00:00	2	Temperatura media	25
77934	7	Sololá	710	Panajachel	8	Panajachel	12	Diciembre	2023-12-14T00:00:00	2024-11-08T15:00:00	4	Temperatura máxima	25.7
77935	7	Sololá	710	Panajachel	8	Panajachel	12	Diciembre	2023-12-14T00:00:00	2024-11-08T15:00:00	3	Temperatura mínima	24.8
77936	7	Sololá	710	Panajachel	8	Panajachel	12	Diciembre	2023-12-14T00:00:00	2024-11-08T15:00:00	5	Humedad	57
77937	7	Sololá	710	Panajachel	8	Panajachel	12	Diciembre	2023-12-14T00:00:00	2024-11-08T15:00:00	6	Velocidad del viento	11.3
77938	7	Sololá	710	Panajachel	8	Panajachel	12	Diciembre	2023-12-14T00:00:00	2024-11-08T15:00:00	7	Dirección del viento	11.27
77939	7	Sololá	710	Panajachel	8	Panajachel	12	Diciembre	2023-12-14T00:00:00	2024-11-08T15:00:00	1	Precipitación	0
77940	7	Sololá	710	Panajachel	8	Panajachel	12	Diciembre	2023-12-14T00:00:00	2024-11-08T15:00:00	8	Radiación solar	563
77941	7	Sololá	710	Panajachel	8	Panajachel	12	Diciembre	2023-12-14T00:00:00	2024-11-08T16:00:00	2	Temperatura media	24.6
77942	7	Sololá	710	Panajachel	8	Panajachel	12	Diciembre	2023-12-14T00:00:00	2024-11-08T16:00:00	4	Temperatura máxima	25.1
77943	7	Sololá	710	Panajachel	8	Panajachel	12	Diciembre	2023-12-14T00:00:00	2024-11-08T16:00:00	3	Temperatura mínima	24.4
77944	7	Sololá	710	Panajachel	8	Panajachel	12	Diciembre	2023-12-14T00:00:00	2024-11-08T16:00:00	5	Humedad	59
77945	7	Sololá	710	Panajachel	8	Panajachel	12	Diciembre	2023-12-14T00:00:00	2024-11-08T16:00:00	6	Velocidad del viento	11.3
77946	7	Sololá	710	Panajachel	8	Panajachel	12	Diciembre	2023-12-14T00:00:00	2024-11-08T16:00:00	7	Dirección del viento	11.27
77947	7	Sololá	710	Panajachel	8	Panajachel	12	Diciembre	2023-12-14T00:00:00	2024-11-08T16:00:00	1	Precipitación	0
77948	7	Sololá	710	Panajachel	8	Panajachel	12	Diciembre	2023-12-14T00:00:00	2024-11-08T16:00:00	8	Radiación solar	379
77949	7	Sololá	710	Panajachel	8	Panajachel	12	Diciembre	2023-12-14T00:00:00	2024-11-08T17:00:00	2	Temperatura media	22.8
77950	7	Sololá	710	Panajachel	8	Panajachel	12	Diciembre	2023-12-14T00:00:00	2024-11-08T17:00:00	4	Temperatura máxima	24.6
77951	7	Sololá	710	Panajachel	8	Panajachel	12	Diciembre	2023-12-14T00:00:00	2024-11-08T17:00:00	3	Temperatura mínima	22.8
77952	7	Sololá	710	Panajachel	8	Panajachel	12	Diciembre	2023-12-14T00:00:00	2024-11-08T17:00:00	5	Humedad	63
77953	7	Sololá	710	Panajachel	8	Panajachel	12	Diciembre	2023-12-14T00:00:00	2024-11-08T17:00:00	6	Velocidad del viento	12.9
77954	7	Sololá	710	Panajachel	8	Panajachel	12	Diciembre	2023-12-14T00:00:00	2024-11-08T17:00:00	7	Dirección del viento	12.87
77955	7	Sololá	710	Panajachel	8	Panajachel	12	Diciembre	2023-12-14T00:00:00	2024-11-08T17:00:00	1	Precipitación	0
77956	7	Sololá	710	Panajachel	8	Panajachel	12	Diciembre	2023-12-14T00:00:00	2024-11-08T17:00:00	8	Radiación solar	168
77957	7	Sololá	710	Panajachel	8	Panajachel	12	Diciembre	2023-12-14T00:00:00	2024-11-08T18:00:00	2	Temperatura media	21.3
77958	7	Sololá	710	Panajachel	8	Panajachel	12	Diciembre	2023-12-14T00:00:00	2024-11-08T18:00:00	4	Temperatura máxima	22.8
77959	7	Sololá	710	Panajachel	8	Panajachel	12	Diciembre	2023-12-14T00:00:00	2024-11-08T18:00:00	3	Temperatura mínima	21.3
77960	7	Sololá	710	Panajachel	8	Panajachel	12	Diciembre	2023-12-14T00:00:00	2024-11-08T18:00:00	5	Humedad	67
77961	7	Sololá	710	Panajachel	8	Panajachel	12	Diciembre	2023-12-14T00:00:00	2024-11-08T18:00:00	6	Velocidad del viento	14.5
77962	7	Sololá	710	Panajachel	8	Panajachel	12	Diciembre	2023-12-14T00:00:00	2024-11-08T18:00:00	7	Dirección del viento	14.48
77963	7	Sololá	710	Panajachel	8	Panajachel	12	Diciembre	2023-12-14T00:00:00	2024-11-08T18:00:00	1	Precipitación	0
77964	7	Sololá	710	Panajachel	8	Panajachel	12	Diciembre	2023-12-14T00:00:00	2024-11-08T18:00:00	8	Radiación solar	13
77965	7	Sololá	710	Panajachel	8	Panajachel	12	Diciembre	2023-12-14T00:00:00	2024-11-08T19:00:00	2	Temperatura media	20.7
77966	7	Sololá	710	Panajachel	8	Panajachel	12	Diciembre	2023-12-14T00:00:00	2024-11-08T19:00:00	4	Temperatura máxima	21.3
77967	7	Sololá	710	Panajachel	8	Panajachel	12	Diciembre	2023-12-14T00:00:00	2024-11-08T19:00:00	3	Temperatura mínima	20.7
77968	7	Sololá	710	Panajachel	8	Panajachel	12	Diciembre	2023-12-14T00:00:00	2024-11-08T19:00:00	5	Humedad	68
77969	7	Sololá	710	Panajachel	8	Panajachel	12	Diciembre	2023-12-14T00:00:00	2024-11-08T19:00:00	6	Velocidad del viento	17.7
77970	7	Sololá	710	Panajachel	8	Panajachel	12	Diciembre	2023-12-14T00:00:00	2024-11-08T19:00:00	7	Dirección del viento	17.7
77971	7	Sololá	710	Panajachel	8	Panajachel	12	Diciembre	2023-12-14T00:00:00	2024-11-08T19:00:00	1	Precipitación	0
77972	7	Sololá	710	Panajachel	8	Panajachel	12	Diciembre	2023-12-14T00:00:00	2024-11-08T19:00:00	8	Radiación solar	0
77973	7	Sololá	710	Panajachel	8	Panajachel	12	Diciembre	2023-12-14T00:00:00	2024-11-08T20:00:00	2	Temperatura media	20.2
77974	7	Sololá	710	Panajachel	8	Panajachel	12	Diciembre	2023-12-14T00:00:00	2024-11-08T20:00:00	4	Temperatura máxima	20.7
77975	7	Sololá	710	Panajachel	8	Panajachel	12	Diciembre	2023-12-14T00:00:00	2024-11-08T20:00:00	3	Temperatura mínima	20.2
77976	7	Sololá	710	Panajachel	8	Panajachel	12	Diciembre	2023-12-14T00:00:00	2024-11-08T20:00:00	5	Humedad	70
77977	7	Sololá	710	Panajachel	8	Panajachel	12	Diciembre	2023-12-14T00:00:00	2024-11-08T20:00:00	6	Velocidad del viento	11.3
77978	7	Sololá	710	Panajachel	8	Panajachel	12	Diciembre	2023-12-14T00:00:00	2024-11-08T20:00:00	7	Dirección del viento	11.27
77979	7	Sololá	710	Panajachel	8	Panajachel	12	Diciembre	2023-12-14T00:00:00	2024-11-08T20:00:00	1	Precipitación	0
77980	7	Sololá	710	Panajachel	8	Panajachel	12	Diciembre	2023-12-14T00:00:00	2024-11-08T20:00:00	8	Radiación solar	0
77981	7	Sololá	710	Panajachel	8	Panajachel	12	Diciembre	2023-12-14T00:00:00	2024-11-08T21:00:00	2	Temperatura media	19.9
77982	7	Sololá	710	Panajachel	8	Panajachel	12	Diciembre	2023-12-14T00:00:00	2024-11-08T21:00:00	4	Temperatura máxima	20.2
77983	7	Sololá	710	Panajachel	8	Panajachel	12	Diciembre	2023-12-14T00:00:00	2024-11-08T21:00:00	3	Temperatura mínima	19.9
77984	7	Sololá	710	Panajachel	8	Panajachel	12	Diciembre	2023-12-14T00:00:00	2024-11-08T21:00:00	5	Humedad	70
77985	7	Sololá	710	Panajachel	8	Panajachel	12	Diciembre	2023-12-14T00:00:00	2024-11-08T21:00:00	6	Velocidad del viento	8
77986	7	Sololá	710	Panajachel	8	Panajachel	12	Diciembre	2023-12-14T00:00:00	2024-11-08T21:00:00	7	Dirección del viento	8.05
77987	7	Sololá	710	Panajachel	8	Panajachel	12	Diciembre	2023-12-14T00:00:00	2024-11-08T21:00:00	1	Precipitación	0
77988	7	Sololá	710	Panajachel	8	Panajachel	12	Diciembre	2023-12-14T00:00:00	2024-11-08T21:00:00	8	Radiación solar	0
77989	7	Sololá	710	Panajachel	8	Panajachel	12	Diciembre	2023-12-14T00:00:00	2024-11-08T22:00:00	2	Temperatura media	19.6
77990	7	Sololá	710	Panajachel	8	Panajachel	12	Diciembre	2023-12-14T00:00:00	2024-11-08T22:00:00	4	Temperatura máxima	19.9
77991	7	Sololá	710	Panajachel	8	Panajachel	12	Diciembre	2023-12-14T00:00:00	2024-11-08T22:00:00	3	Temperatura mínima	19.6
77992	7	Sololá	710	Panajachel	8	Panajachel	12	Diciembre	2023-12-14T00:00:00	2024-11-08T22:00:00	5	Humedad	70
77993	7	Sololá	710	Panajachel	8	Panajachel	12	Diciembre	2023-12-14T00:00:00	2024-11-08T22:00:00	6	Velocidad del viento	6.4
77994	7	Sololá	710	Panajachel	8	Panajachel	12	Diciembre	2023-12-14T00:00:00	2024-11-08T22:00:00	7	Dirección del viento	6.44
77995	7	Sololá	710	Panajachel	8	Panajachel	12	Diciembre	2023-12-14T00:00:00	2024-11-08T22:00:00	1	Precipitación	0
77996	7	Sololá	710	Panajachel	8	Panajachel	12	Diciembre	2023-12-14T00:00:00	2024-11-08T22:00:00	8	Radiación solar	0
77997	7	Sololá	710	Panajachel	8	Panajachel	12	Diciembre	2023-12-14T00:00:00	2024-11-08T23:00:00	2	Temperatura media	19.4
77998	7	Sololá	710	Panajachel	8	Panajachel	12	Diciembre	2023-12-14T00:00:00	2024-11-08T23:00:00	4	Temperatura máxima	19.8
77999	7	Sololá	710	Panajachel	8	Panajachel	12	Diciembre	2023-12-14T00:00:00	2024-11-08T23:00:00	3	Temperatura mínima	19.4
78000	7	Sololá	710	Panajachel	8	Panajachel	12	Diciembre	2023-12-14T00:00:00	2024-11-08T23:00:00	5	Humedad	70
78001	7	Sololá	710	Panajachel	8	Panajachel	12	Diciembre	2023-12-14T00:00:00	2024-11-08T23:00:00	6	Velocidad del viento	8
78002	7	Sololá	710	Panajachel	8	Panajachel	12	Diciembre	2023-12-14T00:00:00	2024-11-08T23:00:00	7	Dirección del viento	8.05
78003	7	Sololá	710	Panajachel	8	Panajachel	12	Diciembre	2023-12-14T00:00:00	2024-11-08T23:00:00	1	Precipitación	0
78004	7	Sololá	710	Panajachel	8	Panajachel	12	Diciembre	2023-12-14T00:00:00	2024-11-08T23:00:00	8	Radiación solar	0
78005	7	Sololá	710	Panajachel	8	Panajachel	12	Diciembre	2023-12-15T00:00:00	2024-11-08T00:00:00	2	Temperatura media	18.8
78006	7	Sololá	710	Panajachel	8	Panajachel	12	Diciembre	2023-12-15T00:00:00	2024-11-08T00:00:00	4	Temperatura máxima	19.5
78007	7	Sololá	710	Panajachel	8	Panajachel	12	Diciembre	2023-12-15T00:00:00	2024-11-08T00:00:00	3	Temperatura mínima	18.8
78008	7	Sololá	710	Panajachel	8	Panajachel	12	Diciembre	2023-12-15T00:00:00	2024-11-08T00:00:00	5	Humedad	72
78009	7	Sololá	710	Panajachel	8	Panajachel	12	Diciembre	2023-12-15T00:00:00	2024-11-08T00:00:00	6	Velocidad del viento	4.8
78010	7	Sololá	710	Panajachel	8	Panajachel	12	Diciembre	2023-12-15T00:00:00	2024-11-08T00:00:00	7	Dirección del viento	4.83
78011	7	Sololá	710	Panajachel	8	Panajachel	12	Diciembre	2023-12-15T00:00:00	2024-11-08T00:00:00	1	Precipitación	0
78012	7	Sololá	710	Panajachel	8	Panajachel	12	Diciembre	2023-12-15T00:00:00	2024-11-08T00:00:00	8	Radiación solar	0
78013	7	Sololá	710	Panajachel	8	Panajachel	12	Diciembre	2023-12-15T00:00:00	2024-11-08T01:00:00	2	Temperatura media	17.3
78014	7	Sololá	710	Panajachel	8	Panajachel	12	Diciembre	2023-12-15T00:00:00	2024-11-08T01:00:00	4	Temperatura máxima	18.8
78015	7	Sololá	710	Panajachel	8	Panajachel	12	Diciembre	2023-12-15T00:00:00	2024-11-08T01:00:00	3	Temperatura mínima	17.2
78016	7	Sololá	710	Panajachel	8	Panajachel	12	Diciembre	2023-12-15T00:00:00	2024-11-08T01:00:00	5	Humedad	77
78017	7	Sololá	710	Panajachel	8	Panajachel	12	Diciembre	2023-12-15T00:00:00	2024-11-08T01:00:00	6	Velocidad del viento	0
78018	7	Sololá	710	Panajachel	8	Panajachel	12	Diciembre	2023-12-15T00:00:00	2024-11-08T01:00:00	7	Dirección del viento	0
78019	7	Sololá	710	Panajachel	8	Panajachel	12	Diciembre	2023-12-15T00:00:00	2024-11-08T01:00:00	1	Precipitación	0
78020	7	Sololá	710	Panajachel	8	Panajachel	12	Diciembre	2023-12-15T00:00:00	2024-11-08T01:00:00	8	Radiación solar	0
78021	7	Sololá	710	Panajachel	8	Panajachel	12	Diciembre	2023-12-15T00:00:00	2024-11-08T02:00:00	2	Temperatura media	17.2
78022	7	Sololá	710	Panajachel	8	Panajachel	12	Diciembre	2023-12-15T00:00:00	2024-11-08T02:00:00	4	Temperatura máxima	17.7
78023	7	Sololá	710	Panajachel	8	Panajachel	12	Diciembre	2023-12-15T00:00:00	2024-11-08T02:00:00	3	Temperatura mínima	16.9
78024	7	Sololá	710	Panajachel	8	Panajachel	12	Diciembre	2023-12-15T00:00:00	2024-11-08T02:00:00	5	Humedad	74
78025	7	Sololá	710	Panajachel	8	Panajachel	12	Diciembre	2023-12-15T00:00:00	2024-11-08T02:00:00	6	Velocidad del viento	1.6
78026	7	Sololá	710	Panajachel	8	Panajachel	12	Diciembre	2023-12-15T00:00:00	2024-11-08T02:00:00	7	Dirección del viento	1.61
78027	7	Sololá	710	Panajachel	8	Panajachel	12	Diciembre	2023-12-15T00:00:00	2024-11-08T02:00:00	1	Precipitación	0
78028	7	Sololá	710	Panajachel	8	Panajachel	12	Diciembre	2023-12-15T00:00:00	2024-11-08T02:00:00	8	Radiación solar	0
78029	7	Sololá	710	Panajachel	8	Panajachel	12	Diciembre	2023-12-15T00:00:00	2024-11-08T03:00:00	2	Temperatura media	16.2
78030	7	Sololá	710	Panajachel	8	Panajachel	12	Diciembre	2023-12-15T00:00:00	2024-11-08T03:00:00	4	Temperatura máxima	17.2
78031	7	Sololá	710	Panajachel	8	Panajachel	12	Diciembre	2023-12-15T00:00:00	2024-11-08T03:00:00	3	Temperatura mínima	16.2
78032	7	Sololá	710	Panajachel	8	Panajachel	12	Diciembre	2023-12-15T00:00:00	2024-11-08T03:00:00	5	Humedad	79
78033	7	Sololá	710	Panajachel	8	Panajachel	12	Diciembre	2023-12-15T00:00:00	2024-11-08T03:00:00	6	Velocidad del viento	0
78034	7	Sololá	710	Panajachel	8	Panajachel	12	Diciembre	2023-12-15T00:00:00	2024-11-08T03:00:00	7	Dirección del viento	0
78035	7	Sololá	710	Panajachel	8	Panajachel	12	Diciembre	2023-12-15T00:00:00	2024-11-08T03:00:00	1	Precipitación	0
78036	7	Sololá	710	Panajachel	8	Panajachel	12	Diciembre	2023-12-15T00:00:00	2024-11-08T03:00:00	8	Radiación solar	0
78037	7	Sololá	710	Panajachel	8	Panajachel	12	Diciembre	2023-12-15T00:00:00	2024-11-08T04:00:00	2	Temperatura media	15.9
78038	7	Sololá	710	Panajachel	8	Panajachel	12	Diciembre	2023-12-15T00:00:00	2024-11-08T04:00:00	4	Temperatura máxima	16.2
78039	7	Sololá	710	Panajachel	8	Panajachel	12	Diciembre	2023-12-15T00:00:00	2024-11-08T04:00:00	3	Temperatura mínima	15.7
78040	7	Sololá	710	Panajachel	8	Panajachel	12	Diciembre	2023-12-15T00:00:00	2024-11-08T04:00:00	5	Humedad	78
78041	7	Sololá	710	Panajachel	8	Panajachel	12	Diciembre	2023-12-15T00:00:00	2024-11-08T04:00:00	6	Velocidad del viento	1.6
78042	7	Sololá	710	Panajachel	8	Panajachel	12	Diciembre	2023-12-15T00:00:00	2024-11-08T04:00:00	7	Dirección del viento	1.61
78043	7	Sololá	710	Panajachel	8	Panajachel	12	Diciembre	2023-12-15T00:00:00	2024-11-08T04:00:00	1	Precipitación	0
78044	7	Sololá	710	Panajachel	8	Panajachel	12	Diciembre	2023-12-15T00:00:00	2024-11-08T04:00:00	8	Radiación solar	0
78045	7	Sololá	710	Panajachel	8	Panajachel	12	Diciembre	2023-12-15T00:00:00	2024-11-08T05:00:00	2	Temperatura media	15.7
78046	7	Sololá	710	Panajachel	8	Panajachel	12	Diciembre	2023-12-15T00:00:00	2024-11-08T05:00:00	4	Temperatura máxima	16
78047	7	Sololá	710	Panajachel	8	Panajachel	12	Diciembre	2023-12-15T00:00:00	2024-11-08T05:00:00	3	Temperatura mínima	15.5
78048	7	Sololá	710	Panajachel	8	Panajachel	12	Diciembre	2023-12-15T00:00:00	2024-11-08T05:00:00	5	Humedad	80
78049	7	Sololá	710	Panajachel	8	Panajachel	12	Diciembre	2023-12-15T00:00:00	2024-11-08T05:00:00	6	Velocidad del viento	1.6
78050	7	Sololá	710	Panajachel	8	Panajachel	12	Diciembre	2023-12-15T00:00:00	2024-11-08T05:00:00	7	Dirección del viento	1.61
78051	7	Sololá	710	Panajachel	8	Panajachel	12	Diciembre	2023-12-15T00:00:00	2024-11-08T05:00:00	1	Precipitación	0
78052	7	Sololá	710	Panajachel	8	Panajachel	12	Diciembre	2023-12-15T00:00:00	2024-11-08T05:00:00	8	Radiación solar	0
78053	7	Sololá	710	Panajachel	8	Panajachel	12	Diciembre	2023-12-15T00:00:00	2024-11-08T06:00:00	2	Temperatura media	17.3
78054	7	Sololá	710	Panajachel	8	Panajachel	12	Diciembre	2023-12-15T00:00:00	2024-11-08T06:00:00	4	Temperatura máxima	17.4
78055	7	Sololá	710	Panajachel	8	Panajachel	12	Diciembre	2023-12-15T00:00:00	2024-11-08T06:00:00	3	Temperatura mínima	15.6
78056	7	Sololá	710	Panajachel	8	Panajachel	12	Diciembre	2023-12-15T00:00:00	2024-11-08T06:00:00	5	Humedad	72
78057	7	Sololá	710	Panajachel	8	Panajachel	12	Diciembre	2023-12-15T00:00:00	2024-11-08T06:00:00	6	Velocidad del viento	1.6
78058	7	Sololá	710	Panajachel	8	Panajachel	12	Diciembre	2023-12-15T00:00:00	2024-11-08T06:00:00	7	Dirección del viento	1.61
78059	7	Sololá	710	Panajachel	8	Panajachel	12	Diciembre	2023-12-15T00:00:00	2024-11-08T06:00:00	1	Precipitación	0
78060	7	Sololá	710	Panajachel	8	Panajachel	12	Diciembre	2023-12-15T00:00:00	2024-11-08T06:00:00	8	Radiación solar	0
78061	7	Sololá	710	Panajachel	8	Panajachel	12	Diciembre	2023-12-15T00:00:00	2024-11-08T07:00:00	2	Temperatura media	18
78062	7	Sololá	710	Panajachel	8	Panajachel	12	Diciembre	2023-12-15T00:00:00	2024-11-08T07:00:00	4	Temperatura máxima	18
78063	7	Sololá	710	Panajachel	8	Panajachel	12	Diciembre	2023-12-15T00:00:00	2024-11-08T07:00:00	3	Temperatura mínima	16.7
78064	7	Sololá	710	Panajachel	8	Panajachel	12	Diciembre	2023-12-15T00:00:00	2024-11-08T07:00:00	5	Humedad	74
78065	7	Sololá	710	Panajachel	8	Panajachel	12	Diciembre	2023-12-15T00:00:00	2024-11-08T07:00:00	6	Velocidad del viento	1.6
78066	7	Sololá	710	Panajachel	8	Panajachel	12	Diciembre	2023-12-15T00:00:00	2024-11-08T07:00:00	7	Dirección del viento	1.61
78067	7	Sololá	710	Panajachel	8	Panajachel	12	Diciembre	2023-12-15T00:00:00	2024-11-08T07:00:00	1	Precipitación	0
78068	7	Sololá	710	Panajachel	8	Panajachel	12	Diciembre	2023-12-15T00:00:00	2024-11-08T07:00:00	8	Radiación solar	17
78069	7	Sololá	710	Panajachel	8	Panajachel	12	Diciembre	2023-12-15T00:00:00	2024-11-08T08:00:00	2	Temperatura media	19.8
78070	7	Sololá	710	Panajachel	8	Panajachel	12	Diciembre	2023-12-15T00:00:00	2024-11-08T08:00:00	4	Temperatura máxima	19.8
78071	7	Sololá	710	Panajachel	8	Panajachel	12	Diciembre	2023-12-15T00:00:00	2024-11-08T08:00:00	3	Temperatura mínima	18
78072	7	Sololá	710	Panajachel	8	Panajachel	12	Diciembre	2023-12-15T00:00:00	2024-11-08T08:00:00	5	Humedad	69
78073	7	Sololá	710	Panajachel	8	Panajachel	12	Diciembre	2023-12-15T00:00:00	2024-11-08T08:00:00	6	Velocidad del viento	0
78074	7	Sololá	710	Panajachel	8	Panajachel	12	Diciembre	2023-12-15T00:00:00	2024-11-08T08:00:00	7	Dirección del viento	0
78075	7	Sololá	710	Panajachel	8	Panajachel	12	Diciembre	2023-12-15T00:00:00	2024-11-08T08:00:00	1	Precipitación	0
78076	7	Sololá	710	Panajachel	8	Panajachel	12	Diciembre	2023-12-15T00:00:00	2024-11-08T08:00:00	8	Radiación solar	153
78077	7	Sololá	710	Panajachel	8	Panajachel	12	Diciembre	2023-12-15T00:00:00	2024-11-08T09:00:00	2	Temperatura media	20.3
78078	7	Sololá	710	Panajachel	8	Panajachel	12	Diciembre	2023-12-15T00:00:00	2024-11-08T09:00:00	4	Temperatura máxima	20.8
78079	7	Sololá	710	Panajachel	8	Panajachel	12	Diciembre	2023-12-15T00:00:00	2024-11-08T09:00:00	3	Temperatura mínima	19.8
78080	7	Sololá	710	Panajachel	8	Panajachel	12	Diciembre	2023-12-15T00:00:00	2024-11-08T09:00:00	5	Humedad	74
78081	7	Sololá	710	Panajachel	8	Panajachel	12	Diciembre	2023-12-15T00:00:00	2024-11-08T09:00:00	6	Velocidad del viento	1.6
78082	7	Sololá	710	Panajachel	8	Panajachel	12	Diciembre	2023-12-15T00:00:00	2024-11-08T09:00:00	7	Dirección del viento	1.61
78083	7	Sololá	710	Panajachel	8	Panajachel	12	Diciembre	2023-12-15T00:00:00	2024-11-08T09:00:00	1	Precipitación	0
78084	7	Sololá	710	Panajachel	8	Panajachel	12	Diciembre	2023-12-15T00:00:00	2024-11-08T09:00:00	8	Radiación solar	357
78085	7	Sololá	710	Panajachel	8	Panajachel	12	Diciembre	2023-12-15T00:00:00	2024-11-08T10:00:00	2	Temperatura media	21.4
78086	7	Sololá	710	Panajachel	8	Panajachel	12	Diciembre	2023-12-15T00:00:00	2024-11-08T10:00:00	4	Temperatura máxima	21.8
78087	7	Sololá	710	Panajachel	8	Panajachel	12	Diciembre	2023-12-15T00:00:00	2024-11-08T10:00:00	3	Temperatura mínima	20.3
78088	7	Sololá	710	Panajachel	8	Panajachel	12	Diciembre	2023-12-15T00:00:00	2024-11-08T10:00:00	5	Humedad	70
78089	7	Sololá	710	Panajachel	8	Panajachel	12	Diciembre	2023-12-15T00:00:00	2024-11-08T10:00:00	6	Velocidad del viento	3.2
78090	7	Sololá	710	Panajachel	8	Panajachel	12	Diciembre	2023-12-15T00:00:00	2024-11-08T10:00:00	7	Dirección del viento	3.22
78091	7	Sololá	710	Panajachel	8	Panajachel	12	Diciembre	2023-12-15T00:00:00	2024-11-08T10:00:00	1	Precipitación	0
78092	7	Sololá	710	Panajachel	8	Panajachel	12	Diciembre	2023-12-15T00:00:00	2024-11-08T10:00:00	8	Radiación solar	564
78093	7	Sololá	710	Panajachel	8	Panajachel	12	Diciembre	2023-12-15T00:00:00	2024-11-08T11:00:00	2	Temperatura media	23.3
78094	7	Sololá	710	Panajachel	8	Panajachel	12	Diciembre	2023-12-15T00:00:00	2024-11-08T11:00:00	4	Temperatura máxima	23.3
78095	7	Sololá	710	Panajachel	8	Panajachel	12	Diciembre	2023-12-15T00:00:00	2024-11-08T11:00:00	3	Temperatura mínima	21.4
78096	7	Sololá	710	Panajachel	8	Panajachel	12	Diciembre	2023-12-15T00:00:00	2024-11-08T11:00:00	5	Humedad	62
78097	7	Sololá	710	Panajachel	8	Panajachel	12	Diciembre	2023-12-15T00:00:00	2024-11-08T11:00:00	6	Velocidad del viento	3.2
78098	7	Sololá	710	Panajachel	8	Panajachel	12	Diciembre	2023-12-15T00:00:00	2024-11-08T11:00:00	7	Dirección del viento	3.22
78099	7	Sololá	710	Panajachel	8	Panajachel	12	Diciembre	2023-12-15T00:00:00	2024-11-08T11:00:00	1	Precipitación	0
78100	7	Sololá	710	Panajachel	8	Panajachel	12	Diciembre	2023-12-15T00:00:00	2024-11-08T11:00:00	8	Radiación solar	644
78101	7	Sololá	710	Panajachel	8	Panajachel	12	Diciembre	2023-12-15T00:00:00	2024-11-08T12:00:00	2	Temperatura media	24.2
78102	7	Sololá	710	Panajachel	8	Panajachel	12	Diciembre	2023-12-15T00:00:00	2024-11-08T12:00:00	4	Temperatura máxima	24.3
78103	7	Sololá	710	Panajachel	8	Panajachel	12	Diciembre	2023-12-15T00:00:00	2024-11-08T12:00:00	3	Temperatura mínima	22.3
78104	7	Sololá	710	Panajachel	8	Panajachel	12	Diciembre	2023-12-15T00:00:00	2024-11-08T12:00:00	5	Humedad	57
78105	7	Sololá	710	Panajachel	8	Panajachel	12	Diciembre	2023-12-15T00:00:00	2024-11-08T12:00:00	6	Velocidad del viento	3.2
78106	7	Sololá	710	Panajachel	8	Panajachel	12	Diciembre	2023-12-15T00:00:00	2024-11-08T12:00:00	7	Dirección del viento	3.22
78107	7	Sololá	710	Panajachel	8	Panajachel	12	Diciembre	2023-12-15T00:00:00	2024-11-08T12:00:00	1	Precipitación	0
78108	7	Sololá	710	Panajachel	8	Panajachel	12	Diciembre	2023-12-15T00:00:00	2024-11-08T12:00:00	8	Radiación solar	706
78109	7	Sololá	710	Panajachel	8	Panajachel	12	Diciembre	2023-12-15T00:00:00	2024-11-08T13:00:00	2	Temperatura media	23.5
78110	7	Sololá	710	Panajachel	8	Panajachel	12	Diciembre	2023-12-15T00:00:00	2024-11-08T13:00:00	4	Temperatura máxima	24.2
78111	7	Sololá	710	Panajachel	8	Panajachel	12	Diciembre	2023-12-15T00:00:00	2024-11-08T13:00:00	3	Temperatura mínima	22.9
78112	7	Sololá	710	Panajachel	8	Panajachel	12	Diciembre	2023-12-15T00:00:00	2024-11-08T13:00:00	5	Humedad	69
78113	7	Sololá	710	Panajachel	8	Panajachel	12	Diciembre	2023-12-15T00:00:00	2024-11-08T13:00:00	6	Velocidad del viento	4.8
78114	7	Sololá	710	Panajachel	8	Panajachel	12	Diciembre	2023-12-15T00:00:00	2024-11-08T13:00:00	7	Dirección del viento	4.83
78115	7	Sololá	710	Panajachel	8	Panajachel	12	Diciembre	2023-12-15T00:00:00	2024-11-08T13:00:00	1	Precipitación	0
78116	7	Sololá	710	Panajachel	8	Panajachel	12	Diciembre	2023-12-15T00:00:00	2024-11-08T13:00:00	8	Radiación solar	572
78117	7	Sololá	710	Panajachel	8	Panajachel	12	Diciembre	2023-12-15T00:00:00	2024-11-08T14:00:00	2	Temperatura media	23.6
78118	7	Sololá	710	Panajachel	8	Panajachel	12	Diciembre	2023-12-15T00:00:00	2024-11-08T14:00:00	4	Temperatura máxima	24.7
78119	7	Sololá	710	Panajachel	8	Panajachel	12	Diciembre	2023-12-15T00:00:00	2024-11-08T14:00:00	3	Temperatura mínima	23.4
78120	7	Sololá	710	Panajachel	8	Panajachel	12	Diciembre	2023-12-15T00:00:00	2024-11-08T14:00:00	5	Humedad	76
78121	7	Sololá	710	Panajachel	8	Panajachel	12	Diciembre	2023-12-15T00:00:00	2024-11-08T14:00:00	6	Velocidad del viento	4.8
78122	7	Sololá	710	Panajachel	8	Panajachel	12	Diciembre	2023-12-15T00:00:00	2024-11-08T14:00:00	7	Dirección del viento	4.83
78123	7	Sololá	710	Panajachel	8	Panajachel	12	Diciembre	2023-12-15T00:00:00	2024-11-08T14:00:00	1	Precipitación	0
78124	7	Sololá	710	Panajachel	8	Panajachel	12	Diciembre	2023-12-15T00:00:00	2024-11-08T14:00:00	8	Radiación solar	589
78125	7	Sololá	710	Panajachel	8	Panajachel	12	Diciembre	2023-12-15T00:00:00	2024-11-08T15:00:00	2	Temperatura media	23.3
78126	7	Sololá	710	Panajachel	8	Panajachel	12	Diciembre	2023-12-15T00:00:00	2024-11-08T15:00:00	4	Temperatura máxima	25.1
78127	7	Sololá	710	Panajachel	8	Panajachel	12	Diciembre	2023-12-15T00:00:00	2024-11-08T15:00:00	3	Temperatura mínima	23.3
78128	7	Sololá	710	Panajachel	8	Panajachel	12	Diciembre	2023-12-15T00:00:00	2024-11-08T15:00:00	5	Humedad	75
78129	7	Sololá	710	Panajachel	8	Panajachel	12	Diciembre	2023-12-15T00:00:00	2024-11-08T15:00:00	6	Velocidad del viento	4.8
78130	7	Sololá	710	Panajachel	8	Panajachel	12	Diciembre	2023-12-15T00:00:00	2024-11-08T15:00:00	7	Dirección del viento	4.83
78131	7	Sololá	710	Panajachel	8	Panajachel	12	Diciembre	2023-12-15T00:00:00	2024-11-08T15:00:00	1	Precipitación	0
78132	7	Sololá	710	Panajachel	8	Panajachel	12	Diciembre	2023-12-15T00:00:00	2024-11-08T15:00:00	8	Radiación solar	544
78133	7	Sololá	710	Panajachel	8	Panajachel	12	Diciembre	2023-12-15T00:00:00	2024-11-08T16:00:00	2	Temperatura media	21.9
78134	7	Sololá	710	Panajachel	8	Panajachel	12	Diciembre	2023-12-15T00:00:00	2024-11-08T16:00:00	4	Temperatura máxima	24
78135	7	Sololá	710	Panajachel	8	Panajachel	12	Diciembre	2023-12-15T00:00:00	2024-11-08T16:00:00	3	Temperatura mínima	21.8
78136	7	Sololá	710	Panajachel	8	Panajachel	12	Diciembre	2023-12-15T00:00:00	2024-11-08T16:00:00	5	Humedad	83
78137	7	Sololá	710	Panajachel	8	Panajachel	12	Diciembre	2023-12-15T00:00:00	2024-11-08T16:00:00	6	Velocidad del viento	4.8
78138	7	Sololá	710	Panajachel	8	Panajachel	12	Diciembre	2023-12-15T00:00:00	2024-11-08T16:00:00	7	Dirección del viento	4.83
78139	7	Sololá	710	Panajachel	8	Panajachel	12	Diciembre	2023-12-15T00:00:00	2024-11-08T16:00:00	1	Precipitación	0
78140	7	Sololá	710	Panajachel	8	Panajachel	12	Diciembre	2023-12-15T00:00:00	2024-11-08T16:00:00	8	Radiación solar	242
78141	7	Sololá	710	Panajachel	8	Panajachel	12	Diciembre	2023-12-15T00:00:00	2024-11-08T17:00:00	2	Temperatura media	20.8
78142	7	Sololá	710	Panajachel	8	Panajachel	12	Diciembre	2023-12-15T00:00:00	2024-11-08T17:00:00	4	Temperatura máxima	22.1
78143	7	Sololá	710	Panajachel	8	Panajachel	12	Diciembre	2023-12-15T00:00:00	2024-11-08T17:00:00	3	Temperatura mínima	20.8
78144	7	Sololá	710	Panajachel	8	Panajachel	12	Diciembre	2023-12-15T00:00:00	2024-11-08T17:00:00	5	Humedad	87
78145	7	Sololá	710	Panajachel	8	Panajachel	12	Diciembre	2023-12-15T00:00:00	2024-11-08T17:00:00	6	Velocidad del viento	1.6
78146	7	Sololá	710	Panajachel	8	Panajachel	12	Diciembre	2023-12-15T00:00:00	2024-11-08T17:00:00	7	Dirección del viento	1.61
78147	7	Sololá	710	Panajachel	8	Panajachel	12	Diciembre	2023-12-15T00:00:00	2024-11-08T17:00:00	1	Precipitación	0
78148	7	Sololá	710	Panajachel	8	Panajachel	12	Diciembre	2023-12-15T00:00:00	2024-11-08T17:00:00	8	Radiación solar	54
78149	7	Sololá	710	Panajachel	8	Panajachel	12	Diciembre	2023-12-15T00:00:00	2024-11-08T18:00:00	2	Temperatura media	20.4
78150	7	Sololá	710	Panajachel	8	Panajachel	12	Diciembre	2023-12-15T00:00:00	2024-11-08T18:00:00	4	Temperatura máxima	20.8
78151	7	Sololá	710	Panajachel	8	Panajachel	12	Diciembre	2023-12-15T00:00:00	2024-11-08T18:00:00	3	Temperatura mínima	20.4
78152	7	Sololá	710	Panajachel	8	Panajachel	12	Diciembre	2023-12-15T00:00:00	2024-11-08T18:00:00	5	Humedad	87
78153	7	Sololá	710	Panajachel	8	Panajachel	12	Diciembre	2023-12-15T00:00:00	2024-11-08T18:00:00	6	Velocidad del viento	1.6
78154	7	Sololá	710	Panajachel	8	Panajachel	12	Diciembre	2023-12-15T00:00:00	2024-11-08T18:00:00	7	Dirección del viento	1.61
78155	7	Sololá	710	Panajachel	8	Panajachel	12	Diciembre	2023-12-15T00:00:00	2024-11-08T18:00:00	1	Precipitación	0
78156	7	Sololá	710	Panajachel	8	Panajachel	12	Diciembre	2023-12-15T00:00:00	2024-11-08T18:00:00	8	Radiación solar	2
78157	7	Sololá	710	Panajachel	8	Panajachel	12	Diciembre	2023-12-15T00:00:00	2024-11-08T19:00:00	2	Temperatura media	20.1
78158	7	Sololá	710	Panajachel	8	Panajachel	12	Diciembre	2023-12-15T00:00:00	2024-11-08T19:00:00	4	Temperatura máxima	20.5
78159	7	Sololá	710	Panajachel	8	Panajachel	12	Diciembre	2023-12-15T00:00:00	2024-11-08T19:00:00	3	Temperatura mínima	20.1
78160	7	Sololá	710	Panajachel	8	Panajachel	12	Diciembre	2023-12-15T00:00:00	2024-11-08T19:00:00	5	Humedad	88
78161	7	Sololá	710	Panajachel	8	Panajachel	12	Diciembre	2023-12-15T00:00:00	2024-11-08T19:00:00	6	Velocidad del viento	1.6
78162	7	Sololá	710	Panajachel	8	Panajachel	12	Diciembre	2023-12-15T00:00:00	2024-11-08T19:00:00	7	Dirección del viento	1.61
78163	7	Sololá	710	Panajachel	8	Panajachel	12	Diciembre	2023-12-15T00:00:00	2024-11-08T19:00:00	1	Precipitación	0
78164	7	Sololá	710	Panajachel	8	Panajachel	12	Diciembre	2023-12-15T00:00:00	2024-11-08T19:00:00	8	Radiación solar	0
78165	7	Sololá	710	Panajachel	8	Panajachel	12	Diciembre	2023-12-15T00:00:00	2024-11-08T20:00:00	2	Temperatura media	18.4
78166	7	Sololá	710	Panajachel	8	Panajachel	12	Diciembre	2023-12-15T00:00:00	2024-11-08T20:00:00	4	Temperatura máxima	20.1
78167	7	Sololá	710	Panajachel	8	Panajachel	12	Diciembre	2023-12-15T00:00:00	2024-11-08T20:00:00	3	Temperatura mínima	18.4
78168	7	Sololá	710	Panajachel	8	Panajachel	12	Diciembre	2023-12-15T00:00:00	2024-11-08T20:00:00	5	Humedad	96
78169	7	Sololá	710	Panajachel	8	Panajachel	12	Diciembre	2023-12-15T00:00:00	2024-11-08T20:00:00	6	Velocidad del viento	3.2
78170	7	Sololá	710	Panajachel	8	Panajachel	12	Diciembre	2023-12-15T00:00:00	2024-11-08T20:00:00	7	Dirección del viento	3.22
78171	7	Sololá	710	Panajachel	8	Panajachel	12	Diciembre	2023-12-15T00:00:00	2024-11-08T20:00:00	1	Precipitación	6.8
78172	7	Sololá	710	Panajachel	8	Panajachel	12	Diciembre	2023-12-15T00:00:00	2024-11-08T20:00:00	8	Radiación solar	0
78173	7	Sololá	710	Panajachel	8	Panajachel	12	Diciembre	2023-12-15T00:00:00	2024-11-08T21:00:00	2	Temperatura media	17.6
78174	7	Sololá	710	Panajachel	8	Panajachel	12	Diciembre	2023-12-15T00:00:00	2024-11-08T21:00:00	4	Temperatura máxima	18.4
78175	7	Sololá	710	Panajachel	8	Panajachel	12	Diciembre	2023-12-15T00:00:00	2024-11-08T21:00:00	3	Temperatura mínima	17.5
78176	7	Sololá	710	Panajachel	8	Panajachel	12	Diciembre	2023-12-15T00:00:00	2024-11-08T21:00:00	5	Humedad	97
78177	7	Sololá	710	Panajachel	8	Panajachel	12	Diciembre	2023-12-15T00:00:00	2024-11-08T21:00:00	6	Velocidad del viento	1.6
78178	7	Sololá	710	Panajachel	8	Panajachel	12	Diciembre	2023-12-15T00:00:00	2024-11-08T21:00:00	7	Dirección del viento	1.61
78179	7	Sololá	710	Panajachel	8	Panajachel	12	Diciembre	2023-12-15T00:00:00	2024-11-08T21:00:00	1	Precipitación	11.6
78180	7	Sololá	710	Panajachel	8	Panajachel	12	Diciembre	2023-12-15T00:00:00	2024-11-08T21:00:00	8	Radiación solar	0
78181	7	Sololá	710	Panajachel	8	Panajachel	12	Diciembre	2023-12-15T00:00:00	2024-11-08T22:00:00	2	Temperatura media	18.1
78182	7	Sololá	710	Panajachel	8	Panajachel	12	Diciembre	2023-12-15T00:00:00	2024-11-08T22:00:00	4	Temperatura máxima	18.1
78183	7	Sololá	710	Panajachel	8	Panajachel	12	Diciembre	2023-12-15T00:00:00	2024-11-08T22:00:00	3	Temperatura mínima	17.5
78184	7	Sololá	710	Panajachel	8	Panajachel	12	Diciembre	2023-12-15T00:00:00	2024-11-08T22:00:00	5	Humedad	96
78185	7	Sololá	710	Panajachel	8	Panajachel	12	Diciembre	2023-12-15T00:00:00	2024-11-08T22:00:00	6	Velocidad del viento	1.6
78186	7	Sololá	710	Panajachel	8	Panajachel	12	Diciembre	2023-12-15T00:00:00	2024-11-08T22:00:00	7	Dirección del viento	1.61
78187	7	Sololá	710	Panajachel	8	Panajachel	12	Diciembre	2023-12-15T00:00:00	2024-11-08T22:00:00	1	Precipitación	0
78188	7	Sololá	710	Panajachel	8	Panajachel	12	Diciembre	2023-12-15T00:00:00	2024-11-08T22:00:00	8	Radiación solar	0
78189	7	Sololá	710	Panajachel	8	Panajachel	12	Diciembre	2023-12-15T00:00:00	2024-11-08T23:00:00	2	Temperatura media	17.7
78190	7	Sololá	710	Panajachel	8	Panajachel	12	Diciembre	2023-12-15T00:00:00	2024-11-08T23:00:00	4	Temperatura máxima	18.1
78191	7	Sololá	710	Panajachel	8	Panajachel	12	Diciembre	2023-12-15T00:00:00	2024-11-08T23:00:00	3	Temperatura mínima	17.7
78192	7	Sololá	710	Panajachel	8	Panajachel	12	Diciembre	2023-12-15T00:00:00	2024-11-08T23:00:00	5	Humedad	96
78193	7	Sololá	710	Panajachel	8	Panajachel	12	Diciembre	2023-12-15T00:00:00	2024-11-08T23:00:00	6	Velocidad del viento	1.6
78194	7	Sololá	710	Panajachel	8	Panajachel	12	Diciembre	2023-12-15T00:00:00	2024-11-08T23:00:00	7	Dirección del viento	1.61
78195	7	Sololá	710	Panajachel	8	Panajachel	12	Diciembre	2023-12-15T00:00:00	2024-11-08T23:00:00	1	Precipitación	0
78196	7	Sololá	710	Panajachel	8	Panajachel	12	Diciembre	2023-12-15T00:00:00	2024-11-08T23:00:00	8	Radiación solar	0
78197	7	Sololá	710	Panajachel	8	Panajachel	12	Diciembre	2023-12-16T00:00:00	2024-11-08T00:00:00	2	Temperatura media	17.3
78198	7	Sololá	710	Panajachel	8	Panajachel	12	Diciembre	2023-12-16T00:00:00	2024-11-08T00:00:00	4	Temperatura máxima	17.8
78199	7	Sololá	710	Panajachel	8	Panajachel	12	Diciembre	2023-12-16T00:00:00	2024-11-08T00:00:00	3	Temperatura mínima	17.3
78200	7	Sololá	710	Panajachel	8	Panajachel	12	Diciembre	2023-12-16T00:00:00	2024-11-08T00:00:00	5	Humedad	95
78201	7	Sololá	710	Panajachel	8	Panajachel	12	Diciembre	2023-12-16T00:00:00	2024-11-08T00:00:00	6	Velocidad del viento	1.6
78202	7	Sololá	710	Panajachel	8	Panajachel	12	Diciembre	2023-12-16T00:00:00	2024-11-08T00:00:00	7	Dirección del viento	1.61
78203	7	Sololá	710	Panajachel	8	Panajachel	12	Diciembre	2023-12-16T00:00:00	2024-11-08T00:00:00	1	Precipitación	0
78204	7	Sololá	710	Panajachel	8	Panajachel	12	Diciembre	2023-12-16T00:00:00	2024-11-08T00:00:00	8	Radiación solar	0
78205	7	Sololá	710	Panajachel	8	Panajachel	12	Diciembre	2023-12-16T00:00:00	2024-11-08T01:00:00	2	Temperatura media	16.6
78206	7	Sololá	710	Panajachel	8	Panajachel	12	Diciembre	2023-12-16T00:00:00	2024-11-08T01:00:00	4	Temperatura máxima	17.3
78207	7	Sololá	710	Panajachel	8	Panajachel	12	Diciembre	2023-12-16T00:00:00	2024-11-08T01:00:00	3	Temperatura mínima	16.6
78208	7	Sololá	710	Panajachel	8	Panajachel	12	Diciembre	2023-12-16T00:00:00	2024-11-08T01:00:00	5	Humedad	94
78209	7	Sololá	710	Panajachel	8	Panajachel	12	Diciembre	2023-12-16T00:00:00	2024-11-08T01:00:00	6	Velocidad del viento	1.6
78210	7	Sololá	710	Panajachel	8	Panajachel	12	Diciembre	2023-12-16T00:00:00	2024-11-08T01:00:00	7	Dirección del viento	1.61
78211	7	Sololá	710	Panajachel	8	Panajachel	12	Diciembre	2023-12-16T00:00:00	2024-11-08T01:00:00	1	Precipitación	0
78212	7	Sololá	710	Panajachel	8	Panajachel	12	Diciembre	2023-12-16T00:00:00	2024-11-08T01:00:00	8	Radiación solar	0
78213	7	Sololá	710	Panajachel	8	Panajachel	12	Diciembre	2023-12-16T00:00:00	2024-11-08T02:00:00	2	Temperatura media	16.3
78214	7	Sololá	710	Panajachel	8	Panajachel	12	Diciembre	2023-12-16T00:00:00	2024-11-08T02:00:00	4	Temperatura máxima	16.7
78215	7	Sololá	710	Panajachel	8	Panajachel	12	Diciembre	2023-12-16T00:00:00	2024-11-08T02:00:00	3	Temperatura mínima	16.3
78216	7	Sololá	710	Panajachel	8	Panajachel	12	Diciembre	2023-12-16T00:00:00	2024-11-08T02:00:00	5	Humedad	92
78217	7	Sololá	710	Panajachel	8	Panajachel	12	Diciembre	2023-12-16T00:00:00	2024-11-08T02:00:00	6	Velocidad del viento	3.2
78218	7	Sololá	710	Panajachel	8	Panajachel	12	Diciembre	2023-12-16T00:00:00	2024-11-08T02:00:00	7	Dirección del viento	3.22
78219	7	Sololá	710	Panajachel	8	Panajachel	12	Diciembre	2023-12-16T00:00:00	2024-11-08T02:00:00	1	Precipitación	0
78220	7	Sololá	710	Panajachel	8	Panajachel	12	Diciembre	2023-12-16T00:00:00	2024-11-08T02:00:00	8	Radiación solar	0
78221	7	Sololá	710	Panajachel	8	Panajachel	12	Diciembre	2023-12-16T00:00:00	2024-11-08T03:00:00	2	Temperatura media	15.8
78222	7	Sololá	710	Panajachel	8	Panajachel	12	Diciembre	2023-12-16T00:00:00	2024-11-08T03:00:00	4	Temperatura máxima	16.3
78223	7	Sololá	710	Panajachel	8	Panajachel	12	Diciembre	2023-12-16T00:00:00	2024-11-08T03:00:00	3	Temperatura mínima	15.8
78224	7	Sololá	710	Panajachel	8	Panajachel	12	Diciembre	2023-12-16T00:00:00	2024-11-08T03:00:00	5	Humedad	93
78225	7	Sololá	710	Panajachel	8	Panajachel	12	Diciembre	2023-12-16T00:00:00	2024-11-08T03:00:00	6	Velocidad del viento	1.6
78226	7	Sololá	710	Panajachel	8	Panajachel	12	Diciembre	2023-12-16T00:00:00	2024-11-08T03:00:00	7	Dirección del viento	1.61
78227	7	Sololá	710	Panajachel	8	Panajachel	12	Diciembre	2023-12-16T00:00:00	2024-11-08T03:00:00	1	Precipitación	0
78228	7	Sololá	710	Panajachel	8	Panajachel	12	Diciembre	2023-12-16T00:00:00	2024-11-08T03:00:00	8	Radiación solar	0
78229	7	Sololá	710	Panajachel	8	Panajachel	12	Diciembre	2023-12-16T00:00:00	2024-11-08T04:00:00	2	Temperatura media	15.6
78230	7	Sololá	710	Panajachel	8	Panajachel	12	Diciembre	2023-12-16T00:00:00	2024-11-08T04:00:00	4	Temperatura máxima	15.9
78231	7	Sololá	710	Panajachel	8	Panajachel	12	Diciembre	2023-12-16T00:00:00	2024-11-08T04:00:00	3	Temperatura mínima	15.5
78232	7	Sololá	710	Panajachel	8	Panajachel	12	Diciembre	2023-12-16T00:00:00	2024-11-08T04:00:00	5	Humedad	94
78233	7	Sololá	710	Panajachel	8	Panajachel	12	Diciembre	2023-12-16T00:00:00	2024-11-08T04:00:00	6	Velocidad del viento	1.6
78234	7	Sololá	710	Panajachel	8	Panajachel	12	Diciembre	2023-12-16T00:00:00	2024-11-08T04:00:00	7	Dirección del viento	1.61
78235	7	Sololá	710	Panajachel	8	Panajachel	12	Diciembre	2023-12-16T00:00:00	2024-11-08T04:00:00	1	Precipitación	0
78236	7	Sololá	710	Panajachel	8	Panajachel	12	Diciembre	2023-12-16T00:00:00	2024-11-08T04:00:00	8	Radiación solar	0
78237	7	Sololá	710	Panajachel	8	Panajachel	12	Diciembre	2023-12-16T00:00:00	2024-11-08T05:00:00	2	Temperatura media	15.4
78238	7	Sololá	710	Panajachel	8	Panajachel	12	Diciembre	2023-12-16T00:00:00	2024-11-08T05:00:00	4	Temperatura máxima	15.7
78239	7	Sololá	710	Panajachel	8	Panajachel	12	Diciembre	2023-12-16T00:00:00	2024-11-08T05:00:00	3	Temperatura mínima	15.3
78240	7	Sololá	710	Panajachel	8	Panajachel	12	Diciembre	2023-12-16T00:00:00	2024-11-08T05:00:00	5	Humedad	93
78241	7	Sololá	710	Panajachel	8	Panajachel	12	Diciembre	2023-12-16T00:00:00	2024-11-08T05:00:00	6	Velocidad del viento	0
78242	7	Sololá	710	Panajachel	8	Panajachel	12	Diciembre	2023-12-16T00:00:00	2024-11-08T05:00:00	7	Dirección del viento	0
78243	7	Sololá	710	Panajachel	8	Panajachel	12	Diciembre	2023-12-16T00:00:00	2024-11-08T05:00:00	1	Precipitación	0
78244	7	Sololá	710	Panajachel	8	Panajachel	12	Diciembre	2023-12-16T00:00:00	2024-11-08T05:00:00	8	Radiación solar	0
78245	7	Sololá	710	Panajachel	8	Panajachel	12	Diciembre	2023-12-16T00:00:00	2024-11-08T06:00:00	2	Temperatura media	14.8
78246	7	Sololá	710	Panajachel	8	Panajachel	12	Diciembre	2023-12-16T00:00:00	2024-11-08T06:00:00	4	Temperatura máxima	15.4
78247	7	Sololá	710	Panajachel	8	Panajachel	12	Diciembre	2023-12-16T00:00:00	2024-11-08T06:00:00	3	Temperatura mínima	14.8
78248	7	Sololá	710	Panajachel	8	Panajachel	12	Diciembre	2023-12-16T00:00:00	2024-11-08T06:00:00	5	Humedad	93
78249	7	Sololá	710	Panajachel	8	Panajachel	12	Diciembre	2023-12-16T00:00:00	2024-11-08T06:00:00	6	Velocidad del viento	1.6
78250	7	Sololá	710	Panajachel	8	Panajachel	12	Diciembre	2023-12-16T00:00:00	2024-11-08T06:00:00	7	Dirección del viento	1.61
78251	7	Sololá	710	Panajachel	8	Panajachel	12	Diciembre	2023-12-16T00:00:00	2024-11-08T06:00:00	1	Precipitación	0
78252	7	Sololá	710	Panajachel	8	Panajachel	12	Diciembre	2023-12-16T00:00:00	2024-11-08T06:00:00	8	Radiación solar	0
78253	7	Sololá	710	Panajachel	8	Panajachel	12	Diciembre	2023-12-16T00:00:00	2024-11-08T07:00:00	2	Temperatura media	14.8
78254	7	Sololá	710	Panajachel	8	Panajachel	12	Diciembre	2023-12-16T00:00:00	2024-11-08T07:00:00	4	Temperatura máxima	14.8
78255	7	Sololá	710	Panajachel	8	Panajachel	12	Diciembre	2023-12-16T00:00:00	2024-11-08T07:00:00	3	Temperatura mínima	14.5
78256	7	Sololá	710	Panajachel	8	Panajachel	12	Diciembre	2023-12-16T00:00:00	2024-11-08T07:00:00	5	Humedad	92
78257	7	Sololá	710	Panajachel	8	Panajachel	12	Diciembre	2023-12-16T00:00:00	2024-11-08T07:00:00	6	Velocidad del viento	3.2
78258	7	Sololá	710	Panajachel	8	Panajachel	12	Diciembre	2023-12-16T00:00:00	2024-11-08T07:00:00	7	Dirección del viento	3.22
78259	7	Sololá	710	Panajachel	8	Panajachel	12	Diciembre	2023-12-16T00:00:00	2024-11-08T07:00:00	1	Precipitación	0
78260	7	Sololá	710	Panajachel	8	Panajachel	12	Diciembre	2023-12-16T00:00:00	2024-11-08T07:00:00	8	Radiación solar	7
78261	7	Sololá	710	Panajachel	8	Panajachel	12	Diciembre	2023-12-16T00:00:00	2024-11-08T08:00:00	2	Temperatura media	17.3
78262	7	Sololá	710	Panajachel	8	Panajachel	12	Diciembre	2023-12-16T00:00:00	2024-11-08T08:00:00	4	Temperatura máxima	17.3
78263	7	Sololá	710	Panajachel	8	Panajachel	12	Diciembre	2023-12-16T00:00:00	2024-11-08T08:00:00	3	Temperatura mínima	14.8
78264	7	Sololá	710	Panajachel	8	Panajachel	12	Diciembre	2023-12-16T00:00:00	2024-11-08T08:00:00	5	Humedad	83
78265	7	Sololá	710	Panajachel	8	Panajachel	12	Diciembre	2023-12-16T00:00:00	2024-11-08T08:00:00	6	Velocidad del viento	3.2
78266	7	Sololá	710	Panajachel	8	Panajachel	12	Diciembre	2023-12-16T00:00:00	2024-11-08T08:00:00	7	Dirección del viento	3.22
78267	7	Sololá	710	Panajachel	8	Panajachel	12	Diciembre	2023-12-16T00:00:00	2024-11-08T08:00:00	1	Precipitación	0
78268	7	Sololá	710	Panajachel	8	Panajachel	12	Diciembre	2023-12-16T00:00:00	2024-11-08T08:00:00	8	Radiación solar	159
78269	7	Sololá	710	Panajachel	8	Panajachel	12	Diciembre	2023-12-16T00:00:00	2024-11-08T09:00:00	2	Temperatura media	20.2
78270	7	Sololá	710	Panajachel	8	Panajachel	12	Diciembre	2023-12-16T00:00:00	2024-11-08T09:00:00	4	Temperatura máxima	20.3
78271	7	Sololá	710	Panajachel	8	Panajachel	12	Diciembre	2023-12-16T00:00:00	2024-11-08T09:00:00	3	Temperatura mínima	17.3
78272	7	Sololá	710	Panajachel	8	Panajachel	12	Diciembre	2023-12-16T00:00:00	2024-11-08T09:00:00	5	Humedad	79
78273	7	Sololá	710	Panajachel	8	Panajachel	12	Diciembre	2023-12-16T00:00:00	2024-11-08T09:00:00	6	Velocidad del viento	1.6
78274	7	Sololá	710	Panajachel	8	Panajachel	12	Diciembre	2023-12-16T00:00:00	2024-11-08T09:00:00	7	Dirección del viento	1.61
78275	7	Sololá	710	Panajachel	8	Panajachel	12	Diciembre	2023-12-16T00:00:00	2024-11-08T09:00:00	1	Precipitación	0
78276	7	Sololá	710	Panajachel	8	Panajachel	12	Diciembre	2023-12-16T00:00:00	2024-11-08T09:00:00	8	Radiación solar	365
78277	7	Sololá	710	Panajachel	8	Panajachel	12	Diciembre	2023-12-16T00:00:00	2024-11-08T10:00:00	2	Temperatura media	20.3
78278	7	Sololá	710	Panajachel	8	Panajachel	12	Diciembre	2023-12-16T00:00:00	2024-11-08T10:00:00	4	Temperatura máxima	20.5
78279	7	Sololá	710	Panajachel	8	Panajachel	12	Diciembre	2023-12-16T00:00:00	2024-11-08T10:00:00	3	Temperatura mínima	19.8
78280	7	Sololá	710	Panajachel	8	Panajachel	12	Diciembre	2023-12-16T00:00:00	2024-11-08T10:00:00	5	Humedad	79
78281	7	Sololá	710	Panajachel	8	Panajachel	12	Diciembre	2023-12-16T00:00:00	2024-11-08T10:00:00	6	Velocidad del viento	1.6
78282	7	Sololá	710	Panajachel	8	Panajachel	12	Diciembre	2023-12-16T00:00:00	2024-11-08T10:00:00	7	Dirección del viento	1.61
78283	7	Sololá	710	Panajachel	8	Panajachel	12	Diciembre	2023-12-16T00:00:00	2024-11-08T10:00:00	1	Precipitación	0
78284	7	Sololá	710	Panajachel	8	Panajachel	12	Diciembre	2023-12-16T00:00:00	2024-11-08T10:00:00	8	Radiación solar	544
78285	7	Sololá	710	Panajachel	8	Panajachel	12	Diciembre	2023-12-16T00:00:00	2024-11-08T11:00:00	2	Temperatura media	21.5
78286	7	Sololá	710	Panajachel	8	Panajachel	12	Diciembre	2023-12-16T00:00:00	2024-11-08T11:00:00	4	Temperatura máxima	21.6
78287	7	Sololá	710	Panajachel	8	Panajachel	12	Diciembre	2023-12-16T00:00:00	2024-11-08T11:00:00	3	Temperatura mínima	20
78288	7	Sololá	710	Panajachel	8	Panajachel	12	Diciembre	2023-12-16T00:00:00	2024-11-08T11:00:00	5	Humedad	70
78289	7	Sololá	710	Panajachel	8	Panajachel	12	Diciembre	2023-12-16T00:00:00	2024-11-08T11:00:00	6	Velocidad del viento	3.2
78290	7	Sololá	710	Panajachel	8	Panajachel	12	Diciembre	2023-12-16T00:00:00	2024-11-08T11:00:00	7	Dirección del viento	3.22
78291	7	Sololá	710	Panajachel	8	Panajachel	12	Diciembre	2023-12-16T00:00:00	2024-11-08T11:00:00	1	Precipitación	0
78292	7	Sololá	710	Panajachel	8	Panajachel	12	Diciembre	2023-12-16T00:00:00	2024-11-08T11:00:00	8	Radiación solar	672
78293	7	Sololá	710	Panajachel	8	Panajachel	12	Diciembre	2023-12-16T00:00:00	2024-11-08T12:00:00	2	Temperatura media	22.4
78294	7	Sololá	710	Panajachel	8	Panajachel	12	Diciembre	2023-12-16T00:00:00	2024-11-08T12:00:00	4	Temperatura máxima	22.4
78295	7	Sololá	710	Panajachel	8	Panajachel	12	Diciembre	2023-12-16T00:00:00	2024-11-08T12:00:00	3	Temperatura mínima	21.3
78296	7	Sololá	710	Panajachel	8	Panajachel	12	Diciembre	2023-12-16T00:00:00	2024-11-08T12:00:00	5	Humedad	75
78297	7	Sololá	710	Panajachel	8	Panajachel	12	Diciembre	2023-12-16T00:00:00	2024-11-08T12:00:00	6	Velocidad del viento	4.8
78298	7	Sololá	710	Panajachel	8	Panajachel	12	Diciembre	2023-12-16T00:00:00	2024-11-08T12:00:00	7	Dirección del viento	4.83
78299	7	Sololá	710	Panajachel	8	Panajachel	12	Diciembre	2023-12-16T00:00:00	2024-11-08T12:00:00	1	Precipitación	0
78300	7	Sololá	710	Panajachel	8	Panajachel	12	Diciembre	2023-12-16T00:00:00	2024-11-08T12:00:00	8	Radiación solar	750
78301	7	Sololá	710	Panajachel	8	Panajachel	12	Diciembre	2023-12-16T00:00:00	2024-11-08T13:00:00	2	Temperatura media	23.6
78302	7	Sololá	710	Panajachel	8	Panajachel	12	Diciembre	2023-12-16T00:00:00	2024-11-08T13:00:00	4	Temperatura máxima	24.4
78303	7	Sololá	710	Panajachel	8	Panajachel	12	Diciembre	2023-12-16T00:00:00	2024-11-08T13:00:00	3	Temperatura mínima	22.4
78304	7	Sololá	710	Panajachel	8	Panajachel	12	Diciembre	2023-12-16T00:00:00	2024-11-08T13:00:00	5	Humedad	73
78305	7	Sololá	710	Panajachel	8	Panajachel	12	Diciembre	2023-12-16T00:00:00	2024-11-08T13:00:00	6	Velocidad del viento	3.2
78306	7	Sololá	710	Panajachel	8	Panajachel	12	Diciembre	2023-12-16T00:00:00	2024-11-08T13:00:00	7	Dirección del viento	3.22
78307	7	Sololá	710	Panajachel	8	Panajachel	12	Diciembre	2023-12-16T00:00:00	2024-11-08T13:00:00	1	Precipitación	0
78308	7	Sololá	710	Panajachel	8	Panajachel	12	Diciembre	2023-12-16T00:00:00	2024-11-08T13:00:00	8	Radiación solar	764
78309	7	Sololá	710	Panajachel	8	Panajachel	12	Diciembre	2023-12-16T00:00:00	2024-11-08T14:00:00	2	Temperatura media	24.3
78310	7	Sololá	710	Panajachel	8	Panajachel	12	Diciembre	2023-12-16T00:00:00	2024-11-08T14:00:00	4	Temperatura máxima	24.4
78311	7	Sololá	710	Panajachel	8	Panajachel	12	Diciembre	2023-12-16T00:00:00	2024-11-08T14:00:00	3	Temperatura mínima	22.9
78312	7	Sololá	710	Panajachel	8	Panajachel	12	Diciembre	2023-12-16T00:00:00	2024-11-08T14:00:00	5	Humedad	74
78313	7	Sololá	710	Panajachel	8	Panajachel	12	Diciembre	2023-12-16T00:00:00	2024-11-08T14:00:00	6	Velocidad del viento	3.2
78314	7	Sololá	710	Panajachel	8	Panajachel	12	Diciembre	2023-12-16T00:00:00	2024-11-08T14:00:00	7	Dirección del viento	3.22
78315	7	Sololá	710	Panajachel	8	Panajachel	12	Diciembre	2023-12-16T00:00:00	2024-11-08T14:00:00	1	Precipitación	0
78316	7	Sololá	710	Panajachel	8	Panajachel	12	Diciembre	2023-12-16T00:00:00	2024-11-08T14:00:00	8	Radiación solar	699
78317	7	Sololá	710	Panajachel	8	Panajachel	12	Diciembre	2023-12-16T00:00:00	2024-11-08T15:00:00	2	Temperatura media	22.6
78318	7	Sololá	710	Panajachel	8	Panajachel	12	Diciembre	2023-12-16T00:00:00	2024-11-08T15:00:00	4	Temperatura máxima	24.7
78319	7	Sololá	710	Panajachel	8	Panajachel	12	Diciembre	2023-12-16T00:00:00	2024-11-08T15:00:00	3	Temperatura mínima	22.6
78320	7	Sololá	710	Panajachel	8	Panajachel	12	Diciembre	2023-12-16T00:00:00	2024-11-08T15:00:00	5	Humedad	80
78321	7	Sololá	710	Panajachel	8	Panajachel	12	Diciembre	2023-12-16T00:00:00	2024-11-08T15:00:00	6	Velocidad del viento	6.4
78322	7	Sololá	710	Panajachel	8	Panajachel	12	Diciembre	2023-12-16T00:00:00	2024-11-08T15:00:00	7	Dirección del viento	6.44
78323	7	Sololá	710	Panajachel	8	Panajachel	12	Diciembre	2023-12-16T00:00:00	2024-11-08T15:00:00	1	Precipitación	0
78324	7	Sololá	710	Panajachel	8	Panajachel	12	Diciembre	2023-12-16T00:00:00	2024-11-08T15:00:00	8	Radiación solar	527
78325	7	Sololá	710	Panajachel	8	Panajachel	12	Diciembre	2023-12-16T00:00:00	2024-11-08T16:00:00	2	Temperatura media	21.9
78326	7	Sololá	710	Panajachel	8	Panajachel	12	Diciembre	2023-12-16T00:00:00	2024-11-08T16:00:00	4	Temperatura máxima	22.6
78327	7	Sololá	710	Panajachel	8	Panajachel	12	Diciembre	2023-12-16T00:00:00	2024-11-08T16:00:00	3	Temperatura mínima	21.8
78328	7	Sololá	710	Panajachel	8	Panajachel	12	Diciembre	2023-12-16T00:00:00	2024-11-08T16:00:00	5	Humedad	84
78329	7	Sololá	710	Panajachel	8	Panajachel	12	Diciembre	2023-12-16T00:00:00	2024-11-08T16:00:00	6	Velocidad del viento	6.4
78330	7	Sololá	710	Panajachel	8	Panajachel	12	Diciembre	2023-12-16T00:00:00	2024-11-08T16:00:00	7	Dirección del viento	6.44
78331	7	Sololá	710	Panajachel	8	Panajachel	12	Diciembre	2023-12-16T00:00:00	2024-11-08T16:00:00	1	Precipitación	0
78332	7	Sololá	710	Panajachel	8	Panajachel	12	Diciembre	2023-12-16T00:00:00	2024-11-08T16:00:00	8	Radiación solar	254
78333	7	Sololá	710	Panajachel	8	Panajachel	12	Diciembre	2023-12-16T00:00:00	2024-11-08T17:00:00	2	Temperatura media	20.5
78334	7	Sololá	710	Panajachel	8	Panajachel	12	Diciembre	2023-12-16T00:00:00	2024-11-08T17:00:00	4	Temperatura máxima	21.8
78335	7	Sololá	710	Panajachel	8	Panajachel	12	Diciembre	2023-12-16T00:00:00	2024-11-08T17:00:00	3	Temperatura mínima	20.5
78336	7	Sololá	710	Panajachel	8	Panajachel	12	Diciembre	2023-12-16T00:00:00	2024-11-08T17:00:00	5	Humedad	89
78337	7	Sololá	710	Panajachel	8	Panajachel	12	Diciembre	2023-12-16T00:00:00	2024-11-08T17:00:00	6	Velocidad del viento	4.8
78338	7	Sololá	710	Panajachel	8	Panajachel	12	Diciembre	2023-12-16T00:00:00	2024-11-08T17:00:00	7	Dirección del viento	4.83
78339	7	Sololá	710	Panajachel	8	Panajachel	12	Diciembre	2023-12-16T00:00:00	2024-11-08T17:00:00	1	Precipitación	0
78340	7	Sololá	710	Panajachel	8	Panajachel	12	Diciembre	2023-12-16T00:00:00	2024-11-08T17:00:00	8	Radiación solar	46
78341	7	Sololá	710	Panajachel	8	Panajachel	12	Diciembre	2023-12-16T00:00:00	2024-11-08T18:00:00	2	Temperatura media	20
78342	7	Sololá	710	Panajachel	8	Panajachel	12	Diciembre	2023-12-16T00:00:00	2024-11-08T18:00:00	4	Temperatura máxima	20.6
78343	7	Sololá	710	Panajachel	8	Panajachel	12	Diciembre	2023-12-16T00:00:00	2024-11-08T18:00:00	3	Temperatura mínima	20
78344	7	Sololá	710	Panajachel	8	Panajachel	12	Diciembre	2023-12-16T00:00:00	2024-11-08T18:00:00	5	Humedad	90
78345	7	Sololá	710	Panajachel	8	Panajachel	12	Diciembre	2023-12-16T00:00:00	2024-11-08T18:00:00	6	Velocidad del viento	3.2
78346	7	Sololá	710	Panajachel	8	Panajachel	12	Diciembre	2023-12-16T00:00:00	2024-11-08T18:00:00	7	Dirección del viento	3.22
78347	7	Sololá	710	Panajachel	8	Panajachel	12	Diciembre	2023-12-16T00:00:00	2024-11-08T18:00:00	1	Precipitación	0
78348	7	Sololá	710	Panajachel	8	Panajachel	12	Diciembre	2023-12-16T00:00:00	2024-11-08T18:00:00	8	Radiación solar	3
78349	7	Sololá	710	Panajachel	8	Panajachel	12	Diciembre	2023-12-16T00:00:00	2024-11-08T19:00:00	2	Temperatura media	19.1
78350	7	Sololá	710	Panajachel	8	Panajachel	12	Diciembre	2023-12-16T00:00:00	2024-11-08T19:00:00	4	Temperatura máxima	20.1
78351	7	Sololá	710	Panajachel	8	Panajachel	12	Diciembre	2023-12-16T00:00:00	2024-11-08T19:00:00	3	Temperatura mínima	19.1
78352	7	Sololá	710	Panajachel	8	Panajachel	12	Diciembre	2023-12-16T00:00:00	2024-11-08T19:00:00	5	Humedad	91
78353	7	Sololá	710	Panajachel	8	Panajachel	12	Diciembre	2023-12-16T00:00:00	2024-11-08T19:00:00	6	Velocidad del viento	0
78354	7	Sololá	710	Panajachel	8	Panajachel	12	Diciembre	2023-12-16T00:00:00	2024-11-08T19:00:00	7	Dirección del viento	0
78355	7	Sololá	710	Panajachel	8	Panajachel	12	Diciembre	2023-12-16T00:00:00	2024-11-08T19:00:00	1	Precipitación	0
78356	7	Sololá	710	Panajachel	8	Panajachel	12	Diciembre	2023-12-16T00:00:00	2024-11-08T19:00:00	8	Radiación solar	0
78357	7	Sololá	710	Panajachel	8	Panajachel	12	Diciembre	2023-12-16T00:00:00	2024-11-08T20:00:00	2	Temperatura media	18.6
78358	7	Sololá	710	Panajachel	8	Panajachel	12	Diciembre	2023-12-16T00:00:00	2024-11-08T20:00:00	4	Temperatura máxima	19.5
78359	7	Sololá	710	Panajachel	8	Panajachel	12	Diciembre	2023-12-16T00:00:00	2024-11-08T20:00:00	3	Temperatura mínima	18.5
78360	7	Sololá	710	Panajachel	8	Panajachel	12	Diciembre	2023-12-16T00:00:00	2024-11-08T20:00:00	5	Humedad	82
78361	7	Sololá	710	Panajachel	8	Panajachel	12	Diciembre	2023-12-16T00:00:00	2024-11-08T20:00:00	6	Velocidad del viento	1.6
78362	7	Sololá	710	Panajachel	8	Panajachel	12	Diciembre	2023-12-16T00:00:00	2024-11-08T20:00:00	7	Dirección del viento	1.61
78363	7	Sololá	710	Panajachel	8	Panajachel	12	Diciembre	2023-12-16T00:00:00	2024-11-08T20:00:00	1	Precipitación	0
78364	7	Sololá	710	Panajachel	8	Panajachel	12	Diciembre	2023-12-16T00:00:00	2024-11-08T20:00:00	8	Radiación solar	0
78365	7	Sololá	710	Panajachel	8	Panajachel	12	Diciembre	2023-12-16T00:00:00	2024-11-08T21:00:00	2	Temperatura media	19.3
78366	7	Sololá	710	Panajachel	8	Panajachel	12	Diciembre	2023-12-16T00:00:00	2024-11-08T21:00:00	4	Temperatura máxima	19.4
78367	7	Sololá	710	Panajachel	8	Panajachel	12	Diciembre	2023-12-16T00:00:00	2024-11-08T21:00:00	3	Temperatura mínima	18.4
78368	7	Sololá	710	Panajachel	8	Panajachel	12	Diciembre	2023-12-16T00:00:00	2024-11-08T21:00:00	5	Humedad	77
78369	7	Sololá	710	Panajachel	8	Panajachel	12	Diciembre	2023-12-16T00:00:00	2024-11-08T21:00:00	6	Velocidad del viento	3.2
78370	7	Sololá	710	Panajachel	8	Panajachel	12	Diciembre	2023-12-16T00:00:00	2024-11-08T21:00:00	7	Dirección del viento	3.22
78371	7	Sololá	710	Panajachel	8	Panajachel	12	Diciembre	2023-12-16T00:00:00	2024-11-08T21:00:00	1	Precipitación	0
78372	7	Sololá	710	Panajachel	8	Panajachel	12	Diciembre	2023-12-16T00:00:00	2024-11-08T21:00:00	8	Radiación solar	0
78373	7	Sololá	710	Panajachel	8	Panajachel	12	Diciembre	2023-12-16T00:00:00	2024-11-08T22:00:00	2	Temperatura media	19.4
78374	7	Sololá	710	Panajachel	8	Panajachel	12	Diciembre	2023-12-16T00:00:00	2024-11-08T22:00:00	4	Temperatura máxima	19.7
78375	7	Sololá	710	Panajachel	8	Panajachel	12	Diciembre	2023-12-16T00:00:00	2024-11-08T22:00:00	3	Temperatura mínima	19.3
78376	7	Sololá	710	Panajachel	8	Panajachel	12	Diciembre	2023-12-16T00:00:00	2024-11-08T22:00:00	5	Humedad	76
78377	7	Sololá	710	Panajachel	8	Panajachel	12	Diciembre	2023-12-16T00:00:00	2024-11-08T22:00:00	6	Velocidad del viento	8
78378	7	Sololá	710	Panajachel	8	Panajachel	12	Diciembre	2023-12-16T00:00:00	2024-11-08T22:00:00	7	Dirección del viento	8.05
78379	7	Sololá	710	Panajachel	8	Panajachel	12	Diciembre	2023-12-16T00:00:00	2024-11-08T22:00:00	1	Precipitación	0
78380	7	Sololá	710	Panajachel	8	Panajachel	12	Diciembre	2023-12-16T00:00:00	2024-11-08T22:00:00	8	Radiación solar	0
78381	7	Sololá	710	Panajachel	8	Panajachel	12	Diciembre	2023-12-16T00:00:00	2024-11-08T23:00:00	2	Temperatura media	19.4
78382	7	Sololá	710	Panajachel	8	Panajachel	12	Diciembre	2023-12-16T00:00:00	2024-11-08T23:00:00	4	Temperatura máxima	19.7
78383	7	Sololá	710	Panajachel	8	Panajachel	12	Diciembre	2023-12-16T00:00:00	2024-11-08T23:00:00	3	Temperatura mínima	19.3
78384	7	Sololá	710	Panajachel	8	Panajachel	12	Diciembre	2023-12-16T00:00:00	2024-11-08T23:00:00	5	Humedad	75
78385	7	Sololá	710	Panajachel	8	Panajachel	12	Diciembre	2023-12-16T00:00:00	2024-11-08T23:00:00	6	Velocidad del viento	9.7
78386	7	Sololá	710	Panajachel	8	Panajachel	12	Diciembre	2023-12-16T00:00:00	2024-11-08T23:00:00	7	Dirección del viento	9.66
78387	7	Sololá	710	Panajachel	8	Panajachel	12	Diciembre	2023-12-16T00:00:00	2024-11-08T23:00:00	1	Precipitación	0
78388	7	Sololá	710	Panajachel	8	Panajachel	12	Diciembre	2023-12-16T00:00:00	2024-11-08T23:00:00	8	Radiación solar	0
78389	7	Sololá	710	Panajachel	8	Panajachel	12	Diciembre	2023-12-17T00:00:00	2024-11-08T00:00:00	2	Temperatura media	19.1
78390	7	Sololá	710	Panajachel	8	Panajachel	12	Diciembre	2023-12-17T00:00:00	2024-11-08T00:00:00	4	Temperatura máxima	19.4
78391	7	Sololá	710	Panajachel	8	Panajachel	12	Diciembre	2023-12-17T00:00:00	2024-11-08T00:00:00	3	Temperatura mínima	19.1
78392	7	Sololá	710	Panajachel	8	Panajachel	12	Diciembre	2023-12-17T00:00:00	2024-11-08T00:00:00	5	Humedad	74
78393	7	Sololá	710	Panajachel	8	Panajachel	12	Diciembre	2023-12-17T00:00:00	2024-11-08T00:00:00	6	Velocidad del viento	9.7
78394	7	Sololá	710	Panajachel	8	Panajachel	12	Diciembre	2023-12-17T00:00:00	2024-11-08T00:00:00	7	Dirección del viento	9.66
78395	7	Sololá	710	Panajachel	8	Panajachel	12	Diciembre	2023-12-17T00:00:00	2024-11-08T00:00:00	1	Precipitación	0
78396	7	Sololá	710	Panajachel	8	Panajachel	12	Diciembre	2023-12-17T00:00:00	2024-11-08T00:00:00	8	Radiación solar	0
78397	7	Sololá	710	Panajachel	8	Panajachel	12	Diciembre	2023-12-17T00:00:00	2024-11-08T01:00:00	2	Temperatura media	18.5
78398	7	Sololá	710	Panajachel	8	Panajachel	12	Diciembre	2023-12-17T00:00:00	2024-11-08T01:00:00	4	Temperatura máxima	19.1
78399	7	Sololá	710	Panajachel	8	Panajachel	12	Diciembre	2023-12-17T00:00:00	2024-11-08T01:00:00	3	Temperatura mínima	18.5
78400	7	Sololá	710	Panajachel	8	Panajachel	12	Diciembre	2023-12-17T00:00:00	2024-11-08T01:00:00	5	Humedad	76
78401	7	Sololá	710	Panajachel	8	Panajachel	12	Diciembre	2023-12-17T00:00:00	2024-11-08T01:00:00	6	Velocidad del viento	9.7
78402	7	Sololá	710	Panajachel	8	Panajachel	12	Diciembre	2023-12-17T00:00:00	2024-11-08T01:00:00	7	Dirección del viento	9.66
78403	7	Sololá	710	Panajachel	8	Panajachel	12	Diciembre	2023-12-17T00:00:00	2024-11-08T01:00:00	1	Precipitación	0
78404	7	Sololá	710	Panajachel	8	Panajachel	12	Diciembre	2023-12-17T00:00:00	2024-11-08T01:00:00	8	Radiación solar	0
78405	7	Sololá	710	Panajachel	8	Panajachel	12	Diciembre	2023-12-17T00:00:00	2024-11-08T02:00:00	2	Temperatura media	18.4
78406	7	Sololá	710	Panajachel	8	Panajachel	12	Diciembre	2023-12-17T00:00:00	2024-11-08T02:00:00	4	Temperatura máxima	18.6
78407	7	Sololá	710	Panajachel	8	Panajachel	12	Diciembre	2023-12-17T00:00:00	2024-11-08T02:00:00	3	Temperatura mínima	18.2
78408	7	Sololá	710	Panajachel	8	Panajachel	12	Diciembre	2023-12-17T00:00:00	2024-11-08T02:00:00	5	Humedad	74
78409	7	Sololá	710	Panajachel	8	Panajachel	12	Diciembre	2023-12-17T00:00:00	2024-11-08T02:00:00	6	Velocidad del viento	8
78410	7	Sololá	710	Panajachel	8	Panajachel	12	Diciembre	2023-12-17T00:00:00	2024-11-08T02:00:00	7	Dirección del viento	8.05
78411	7	Sololá	710	Panajachel	8	Panajachel	12	Diciembre	2023-12-17T00:00:00	2024-11-08T02:00:00	1	Precipitación	0
78412	7	Sololá	710	Panajachel	8	Panajachel	12	Diciembre	2023-12-17T00:00:00	2024-11-08T02:00:00	8	Radiación solar	0
78413	7	Sololá	710	Panajachel	8	Panajachel	12	Diciembre	2023-12-17T00:00:00	2024-11-08T03:00:00	2	Temperatura media	18.1
78414	7	Sololá	710	Panajachel	8	Panajachel	12	Diciembre	2023-12-17T00:00:00	2024-11-08T03:00:00	4	Temperatura máxima	18.6
78415	7	Sololá	710	Panajachel	8	Panajachel	12	Diciembre	2023-12-17T00:00:00	2024-11-08T03:00:00	3	Temperatura mínima	18.1
78416	7	Sololá	710	Panajachel	8	Panajachel	12	Diciembre	2023-12-17T00:00:00	2024-11-08T03:00:00	5	Humedad	71
78417	7	Sololá	710	Panajachel	8	Panajachel	12	Diciembre	2023-12-17T00:00:00	2024-11-08T03:00:00	6	Velocidad del viento	4.8
78418	7	Sololá	710	Panajachel	8	Panajachel	12	Diciembre	2023-12-17T00:00:00	2024-11-08T03:00:00	7	Dirección del viento	4.83
78419	7	Sololá	710	Panajachel	8	Panajachel	12	Diciembre	2023-12-17T00:00:00	2024-11-08T03:00:00	1	Precipitación	0
78420	7	Sololá	710	Panajachel	8	Panajachel	12	Diciembre	2023-12-17T00:00:00	2024-11-08T03:00:00	8	Radiación solar	0
78421	7	Sololá	710	Panajachel	8	Panajachel	12	Diciembre	2023-12-17T00:00:00	2024-11-08T04:00:00	2	Temperatura media	18.3
78422	7	Sololá	710	Panajachel	8	Panajachel	12	Diciembre	2023-12-17T00:00:00	2024-11-08T04:00:00	4	Temperatura máxima	18.5
78423	7	Sololá	710	Panajachel	8	Panajachel	12	Diciembre	2023-12-17T00:00:00	2024-11-08T04:00:00	3	Temperatura mínima	17.9
78424	7	Sololá	710	Panajachel	8	Panajachel	12	Diciembre	2023-12-17T00:00:00	2024-11-08T04:00:00	5	Humedad	68
78425	7	Sololá	710	Panajachel	8	Panajachel	12	Diciembre	2023-12-17T00:00:00	2024-11-08T04:00:00	6	Velocidad del viento	3.2
78426	7	Sololá	710	Panajachel	8	Panajachel	12	Diciembre	2023-12-17T00:00:00	2024-11-08T04:00:00	7	Dirección del viento	3.22
78427	7	Sololá	710	Panajachel	8	Panajachel	12	Diciembre	2023-12-17T00:00:00	2024-11-08T04:00:00	1	Precipitación	0
78428	7	Sololá	710	Panajachel	8	Panajachel	12	Diciembre	2023-12-17T00:00:00	2024-11-08T04:00:00	8	Radiación solar	0
78429	7	Sololá	710	Panajachel	8	Panajachel	12	Diciembre	2023-12-17T00:00:00	2024-11-08T05:00:00	2	Temperatura media	18
78430	7	Sololá	710	Panajachel	8	Panajachel	12	Diciembre	2023-12-17T00:00:00	2024-11-08T05:00:00	4	Temperatura máxima	18.3
78431	7	Sololá	710	Panajachel	8	Panajachel	12	Diciembre	2023-12-17T00:00:00	2024-11-08T05:00:00	3	Temperatura mínima	17.9
78432	7	Sololá	710	Panajachel	8	Panajachel	12	Diciembre	2023-12-17T00:00:00	2024-11-08T05:00:00	5	Humedad	70
78433	7	Sololá	710	Panajachel	8	Panajachel	12	Diciembre	2023-12-17T00:00:00	2024-11-08T05:00:00	6	Velocidad del viento	4.8
78434	7	Sololá	710	Panajachel	8	Panajachel	12	Diciembre	2023-12-17T00:00:00	2024-11-08T05:00:00	7	Dirección del viento	4.83
78435	7	Sololá	710	Panajachel	8	Panajachel	12	Diciembre	2023-12-17T00:00:00	2024-11-08T05:00:00	1	Precipitación	0
78436	7	Sololá	710	Panajachel	8	Panajachel	12	Diciembre	2023-12-17T00:00:00	2024-11-08T05:00:00	8	Radiación solar	0
78437	7	Sololá	710	Panajachel	8	Panajachel	12	Diciembre	2023-12-17T00:00:00	2024-11-08T06:00:00	2	Temperatura media	17.7
78438	7	Sololá	710	Panajachel	8	Panajachel	12	Diciembre	2023-12-17T00:00:00	2024-11-08T06:00:00	4	Temperatura máxima	18
78439	7	Sololá	710	Panajachel	8	Panajachel	12	Diciembre	2023-12-17T00:00:00	2024-11-08T06:00:00	3	Temperatura mínima	17.6
78440	7	Sololá	710	Panajachel	8	Panajachel	12	Diciembre	2023-12-17T00:00:00	2024-11-08T06:00:00	5	Humedad	71
78441	7	Sololá	710	Panajachel	8	Panajachel	12	Diciembre	2023-12-17T00:00:00	2024-11-08T06:00:00	6	Velocidad del viento	6.4
78442	7	Sololá	710	Panajachel	8	Panajachel	12	Diciembre	2023-12-17T00:00:00	2024-11-08T06:00:00	7	Dirección del viento	6.44
78443	7	Sololá	710	Panajachel	8	Panajachel	12	Diciembre	2023-12-17T00:00:00	2024-11-08T06:00:00	1	Precipitación	0
78444	7	Sololá	710	Panajachel	8	Panajachel	12	Diciembre	2023-12-17T00:00:00	2024-11-08T06:00:00	8	Radiación solar	0
78445	7	Sololá	710	Panajachel	8	Panajachel	12	Diciembre	2023-12-17T00:00:00	2024-11-08T07:00:00	2	Temperatura media	17.7
78446	7	Sololá	710	Panajachel	8	Panajachel	12	Diciembre	2023-12-17T00:00:00	2024-11-08T07:00:00	4	Temperatura máxima	17.9
78447	7	Sololá	710	Panajachel	8	Panajachel	12	Diciembre	2023-12-17T00:00:00	2024-11-08T07:00:00	3	Temperatura mínima	17.6
78448	7	Sololá	710	Panajachel	8	Panajachel	12	Diciembre	2023-12-17T00:00:00	2024-11-08T07:00:00	5	Humedad	70
78449	7	Sololá	710	Panajachel	8	Panajachel	12	Diciembre	2023-12-17T00:00:00	2024-11-08T07:00:00	6	Velocidad del viento	6.4
78450	7	Sololá	710	Panajachel	8	Panajachel	12	Diciembre	2023-12-17T00:00:00	2024-11-08T07:00:00	7	Dirección del viento	6.44
78451	7	Sololá	710	Panajachel	8	Panajachel	12	Diciembre	2023-12-17T00:00:00	2024-11-08T07:00:00	1	Precipitación	0
78452	7	Sololá	710	Panajachel	8	Panajachel	12	Diciembre	2023-12-17T00:00:00	2024-11-08T07:00:00	8	Radiación solar	7
78453	7	Sololá	710	Panajachel	8	Panajachel	12	Diciembre	2023-12-17T00:00:00	2024-11-08T08:00:00	2	Temperatura media	19.3
78454	7	Sololá	710	Panajachel	8	Panajachel	12	Diciembre	2023-12-17T00:00:00	2024-11-08T08:00:00	4	Temperatura máxima	19.3
78455	7	Sololá	710	Panajachel	8	Panajachel	12	Diciembre	2023-12-17T00:00:00	2024-11-08T08:00:00	3	Temperatura mínima	17.7
78456	7	Sololá	710	Panajachel	8	Panajachel	12	Diciembre	2023-12-17T00:00:00	2024-11-08T08:00:00	5	Humedad	67
78457	7	Sololá	710	Panajachel	8	Panajachel	12	Diciembre	2023-12-17T00:00:00	2024-11-08T08:00:00	6	Velocidad del viento	9.7
78458	7	Sololá	710	Panajachel	8	Panajachel	12	Diciembre	2023-12-17T00:00:00	2024-11-08T08:00:00	7	Dirección del viento	9.66
78459	7	Sololá	710	Panajachel	8	Panajachel	12	Diciembre	2023-12-17T00:00:00	2024-11-08T08:00:00	1	Precipitación	0
78460	7	Sololá	710	Panajachel	8	Panajachel	12	Diciembre	2023-12-17T00:00:00	2024-11-08T08:00:00	8	Radiación solar	166
78461	7	Sololá	710	Panajachel	8	Panajachel	12	Diciembre	2023-12-17T00:00:00	2024-11-08T09:00:00	2	Temperatura media	20.7
78462	7	Sololá	710	Panajachel	8	Panajachel	12	Diciembre	2023-12-17T00:00:00	2024-11-08T09:00:00	4	Temperatura máxima	20.7
78463	7	Sololá	710	Panajachel	8	Panajachel	12	Diciembre	2023-12-17T00:00:00	2024-11-08T09:00:00	3	Temperatura mínima	19.3
78464	7	Sololá	710	Panajachel	8	Panajachel	12	Diciembre	2023-12-17T00:00:00	2024-11-08T09:00:00	5	Humedad	64
78465	7	Sololá	710	Panajachel	8	Panajachel	12	Diciembre	2023-12-17T00:00:00	2024-11-08T09:00:00	6	Velocidad del viento	9.7
78466	7	Sololá	710	Panajachel	8	Panajachel	12	Diciembre	2023-12-17T00:00:00	2024-11-08T09:00:00	7	Dirección del viento	9.66
78467	7	Sololá	710	Panajachel	8	Panajachel	12	Diciembre	2023-12-17T00:00:00	2024-11-08T09:00:00	1	Precipitación	0
78468	7	Sololá	710	Panajachel	8	Panajachel	12	Diciembre	2023-12-17T00:00:00	2024-11-08T09:00:00	8	Radiación solar	382
78469	7	Sololá	710	Panajachel	8	Panajachel	12	Diciembre	2023-12-17T00:00:00	2024-11-08T10:00:00	2	Temperatura media	21.9
78470	7	Sololá	710	Panajachel	8	Panajachel	12	Diciembre	2023-12-17T00:00:00	2024-11-08T10:00:00	4	Temperatura máxima	21.9
78471	7	Sololá	710	Panajachel	8	Panajachel	12	Diciembre	2023-12-17T00:00:00	2024-11-08T10:00:00	3	Temperatura mínima	20.7
78472	7	Sololá	710	Panajachel	8	Panajachel	12	Diciembre	2023-12-17T00:00:00	2024-11-08T10:00:00	5	Humedad	61
78473	7	Sololá	710	Panajachel	8	Panajachel	12	Diciembre	2023-12-17T00:00:00	2024-11-08T10:00:00	6	Velocidad del viento	9.7
78474	7	Sololá	710	Panajachel	8	Panajachel	12	Diciembre	2023-12-17T00:00:00	2024-11-08T10:00:00	7	Dirección del viento	9.66
78475	7	Sololá	710	Panajachel	8	Panajachel	12	Diciembre	2023-12-17T00:00:00	2024-11-08T10:00:00	1	Precipitación	0
78476	7	Sololá	710	Panajachel	8	Panajachel	12	Diciembre	2023-12-17T00:00:00	2024-11-08T10:00:00	8	Radiación solar	561
78477	7	Sololá	710	Panajachel	8	Panajachel	12	Diciembre	2023-12-17T00:00:00	2024-11-08T11:00:00	2	Temperatura media	22.8
78478	7	Sololá	710	Panajachel	8	Panajachel	12	Diciembre	2023-12-17T00:00:00	2024-11-08T11:00:00	4	Temperatura máxima	23.2
78479	7	Sololá	710	Panajachel	8	Panajachel	12	Diciembre	2023-12-17T00:00:00	2024-11-08T11:00:00	3	Temperatura mínima	21.9
78480	7	Sololá	710	Panajachel	8	Panajachel	12	Diciembre	2023-12-17T00:00:00	2024-11-08T11:00:00	5	Humedad	59
78481	7	Sololá	710	Panajachel	8	Panajachel	12	Diciembre	2023-12-17T00:00:00	2024-11-08T11:00:00	6	Velocidad del viento	9.7
78482	7	Sololá	710	Panajachel	8	Panajachel	12	Diciembre	2023-12-17T00:00:00	2024-11-08T11:00:00	7	Dirección del viento	9.66
78483	7	Sololá	710	Panajachel	8	Panajachel	12	Diciembre	2023-12-17T00:00:00	2024-11-08T11:00:00	1	Precipitación	0
78484	7	Sololá	710	Panajachel	8	Panajachel	12	Diciembre	2023-12-17T00:00:00	2024-11-08T11:00:00	8	Radiación solar	690
78485	7	Sololá	710	Panajachel	8	Panajachel	12	Diciembre	2023-12-17T00:00:00	2024-11-08T12:00:00	2	Temperatura media	23.4
78486	7	Sololá	710	Panajachel	8	Panajachel	12	Diciembre	2023-12-17T00:00:00	2024-11-08T12:00:00	4	Temperatura máxima	23.6
78487	7	Sololá	710	Panajachel	8	Panajachel	12	Diciembre	2023-12-17T00:00:00	2024-11-08T12:00:00	3	Temperatura mínima	22.5
78488	7	Sololá	710	Panajachel	8	Panajachel	12	Diciembre	2023-12-17T00:00:00	2024-11-08T12:00:00	5	Humedad	57
78489	7	Sololá	710	Panajachel	8	Panajachel	12	Diciembre	2023-12-17T00:00:00	2024-11-08T12:00:00	6	Velocidad del viento	12.9
78490	7	Sololá	710	Panajachel	8	Panajachel	12	Diciembre	2023-12-17T00:00:00	2024-11-08T12:00:00	7	Dirección del viento	12.87
78491	7	Sololá	710	Panajachel	8	Panajachel	12	Diciembre	2023-12-17T00:00:00	2024-11-08T12:00:00	1	Precipitación	0
78492	7	Sololá	710	Panajachel	8	Panajachel	12	Diciembre	2023-12-17T00:00:00	2024-11-08T12:00:00	8	Radiación solar	755
78493	7	Sololá	710	Panajachel	8	Panajachel	12	Diciembre	2023-12-17T00:00:00	2024-11-08T13:00:00	2	Temperatura media	24.2
78494	7	Sololá	710	Panajachel	8	Panajachel	12	Diciembre	2023-12-17T00:00:00	2024-11-08T13:00:00	4	Temperatura máxima	24.4
78495	7	Sololá	710	Panajachel	8	Panajachel	12	Diciembre	2023-12-17T00:00:00	2024-11-08T13:00:00	3	Temperatura mínima	23.4
78496	7	Sololá	710	Panajachel	8	Panajachel	12	Diciembre	2023-12-17T00:00:00	2024-11-08T13:00:00	5	Humedad	56
78497	7	Sololá	710	Panajachel	8	Panajachel	12	Diciembre	2023-12-17T00:00:00	2024-11-08T13:00:00	6	Velocidad del viento	9.7
78498	7	Sololá	710	Panajachel	8	Panajachel	12	Diciembre	2023-12-17T00:00:00	2024-11-08T13:00:00	7	Dirección del viento	9.66
78499	7	Sololá	710	Panajachel	8	Panajachel	12	Diciembre	2023-12-17T00:00:00	2024-11-08T13:00:00	1	Precipitación	0
78500	7	Sololá	710	Panajachel	8	Panajachel	12	Diciembre	2023-12-17T00:00:00	2024-11-08T13:00:00	8	Radiación solar	754
78501	7	Sololá	710	Panajachel	8	Panajachel	12	Diciembre	2023-12-17T00:00:00	2024-11-08T14:00:00	2	Temperatura media	23.9
78502	7	Sololá	710	Panajachel	8	Panajachel	12	Diciembre	2023-12-17T00:00:00	2024-11-08T14:00:00	4	Temperatura máxima	24.9
78503	7	Sololá	710	Panajachel	8	Panajachel	12	Diciembre	2023-12-17T00:00:00	2024-11-08T14:00:00	3	Temperatura mínima	23.9
78504	7	Sololá	710	Panajachel	8	Panajachel	12	Diciembre	2023-12-17T00:00:00	2024-11-08T14:00:00	5	Humedad	65
78505	7	Sololá	710	Panajachel	8	Panajachel	12	Diciembre	2023-12-17T00:00:00	2024-11-08T14:00:00	6	Velocidad del viento	8
78506	7	Sololá	710	Panajachel	8	Panajachel	12	Diciembre	2023-12-17T00:00:00	2024-11-08T14:00:00	7	Dirección del viento	8.05
78507	7	Sololá	710	Panajachel	8	Panajachel	12	Diciembre	2023-12-17T00:00:00	2024-11-08T14:00:00	1	Precipitación	0
78508	7	Sololá	710	Panajachel	8	Panajachel	12	Diciembre	2023-12-17T00:00:00	2024-11-08T14:00:00	8	Radiación solar	657
78509	7	Sololá	710	Panajachel	8	Panajachel	12	Diciembre	2023-12-17T00:00:00	2024-11-08T15:00:00	2	Temperatura media	23.4
78510	7	Sololá	710	Panajachel	8	Panajachel	12	Diciembre	2023-12-17T00:00:00	2024-11-08T15:00:00	4	Temperatura máxima	24
78511	7	Sololá	710	Panajachel	8	Panajachel	12	Diciembre	2023-12-17T00:00:00	2024-11-08T15:00:00	3	Temperatura mínima	23.4
78512	7	Sololá	710	Panajachel	8	Panajachel	12	Diciembre	2023-12-17T00:00:00	2024-11-08T15:00:00	5	Humedad	61
78513	7	Sololá	710	Panajachel	8	Panajachel	12	Diciembre	2023-12-17T00:00:00	2024-11-08T15:00:00	6	Velocidad del viento	6.4
78514	7	Sololá	710	Panajachel	8	Panajachel	12	Diciembre	2023-12-17T00:00:00	2024-11-08T15:00:00	7	Dirección del viento	6.44
78515	7	Sololá	710	Panajachel	8	Panajachel	12	Diciembre	2023-12-17T00:00:00	2024-11-08T15:00:00	1	Precipitación	0
78516	7	Sololá	710	Panajachel	8	Panajachel	12	Diciembre	2023-12-17T00:00:00	2024-11-08T15:00:00	8	Radiación solar	377
78517	7	Sololá	710	Panajachel	8	Panajachel	12	Diciembre	2023-12-17T00:00:00	2024-11-08T16:00:00	2	Temperatura media	21.8
78518	7	Sololá	710	Panajachel	8	Panajachel	12	Diciembre	2023-12-17T00:00:00	2024-11-08T16:00:00	4	Temperatura máxima	23.4
78519	7	Sololá	710	Panajachel	8	Panajachel	12	Diciembre	2023-12-17T00:00:00	2024-11-08T16:00:00	3	Temperatura mínima	21.8
78520	7	Sololá	710	Panajachel	8	Panajachel	12	Diciembre	2023-12-17T00:00:00	2024-11-08T16:00:00	5	Humedad	64
78521	7	Sololá	710	Panajachel	8	Panajachel	12	Diciembre	2023-12-17T00:00:00	2024-11-08T16:00:00	6	Velocidad del viento	6.4
78522	7	Sololá	710	Panajachel	8	Panajachel	12	Diciembre	2023-12-17T00:00:00	2024-11-08T16:00:00	7	Dirección del viento	6.44
78523	7	Sololá	710	Panajachel	8	Panajachel	12	Diciembre	2023-12-17T00:00:00	2024-11-08T16:00:00	1	Precipitación	0
78524	7	Sololá	710	Panajachel	8	Panajachel	12	Diciembre	2023-12-17T00:00:00	2024-11-08T16:00:00	8	Radiación solar	325
78525	7	Sololá	710	Panajachel	8	Panajachel	12	Diciembre	2023-12-17T00:00:00	2024-11-08T17:00:00	2	Temperatura media	20
78526	7	Sololá	710	Panajachel	8	Panajachel	12	Diciembre	2023-12-17T00:00:00	2024-11-08T17:00:00	4	Temperatura máxima	21.9
78527	7	Sololá	710	Panajachel	8	Panajachel	12	Diciembre	2023-12-17T00:00:00	2024-11-08T17:00:00	3	Temperatura mínima	19.9
78528	7	Sololá	710	Panajachel	8	Panajachel	12	Diciembre	2023-12-17T00:00:00	2024-11-08T17:00:00	5	Humedad	66
78529	7	Sololá	710	Panajachel	8	Panajachel	12	Diciembre	2023-12-17T00:00:00	2024-11-08T17:00:00	6	Velocidad del viento	11.3
78530	7	Sololá	710	Panajachel	8	Panajachel	12	Diciembre	2023-12-17T00:00:00	2024-11-08T17:00:00	7	Dirección del viento	11.27
78531	7	Sololá	710	Panajachel	8	Panajachel	12	Diciembre	2023-12-17T00:00:00	2024-11-08T17:00:00	1	Precipitación	0
78532	7	Sololá	710	Panajachel	8	Panajachel	12	Diciembre	2023-12-17T00:00:00	2024-11-08T17:00:00	8	Radiación solar	104
78533	7	Sololá	710	Panajachel	8	Panajachel	12	Diciembre	2023-12-17T00:00:00	2024-11-08T18:00:00	2	Temperatura media	19
78534	7	Sololá	710	Panajachel	8	Panajachel	12	Diciembre	2023-12-17T00:00:00	2024-11-08T18:00:00	4	Temperatura máxima	20.1
78535	7	Sololá	710	Panajachel	8	Panajachel	12	Diciembre	2023-12-17T00:00:00	2024-11-08T18:00:00	3	Temperatura mínima	19
78536	7	Sololá	710	Panajachel	8	Panajachel	12	Diciembre	2023-12-17T00:00:00	2024-11-08T18:00:00	5	Humedad	68
78537	7	Sololá	710	Panajachel	8	Panajachel	12	Diciembre	2023-12-17T00:00:00	2024-11-08T18:00:00	6	Velocidad del viento	11.3
78538	7	Sololá	710	Panajachel	8	Panajachel	12	Diciembre	2023-12-17T00:00:00	2024-11-08T18:00:00	7	Dirección del viento	11.27
78539	7	Sololá	710	Panajachel	8	Panajachel	12	Diciembre	2023-12-17T00:00:00	2024-11-08T18:00:00	1	Precipitación	0
78540	7	Sololá	710	Panajachel	8	Panajachel	12	Diciembre	2023-12-17T00:00:00	2024-11-08T18:00:00	8	Radiación solar	12
78541	7	Sololá	710	Panajachel	8	Panajachel	12	Diciembre	2023-12-17T00:00:00	2024-11-08T19:00:00	2	Temperatura media	18.7
78542	7	Sololá	710	Panajachel	8	Panajachel	12	Diciembre	2023-12-17T00:00:00	2024-11-08T19:00:00	4	Temperatura máxima	19
78543	7	Sololá	710	Panajachel	8	Panajachel	12	Diciembre	2023-12-17T00:00:00	2024-11-08T19:00:00	3	Temperatura mínima	18.6
78544	7	Sololá	710	Panajachel	8	Panajachel	12	Diciembre	2023-12-17T00:00:00	2024-11-08T19:00:00	5	Humedad	69
78545	7	Sololá	710	Panajachel	8	Panajachel	12	Diciembre	2023-12-17T00:00:00	2024-11-08T19:00:00	6	Velocidad del viento	11.3
78546	7	Sololá	710	Panajachel	8	Panajachel	12	Diciembre	2023-12-17T00:00:00	2024-11-08T19:00:00	7	Dirección del viento	11.27
78547	7	Sololá	710	Panajachel	8	Panajachel	12	Diciembre	2023-12-17T00:00:00	2024-11-08T19:00:00	1	Precipitación	0
78548	7	Sololá	710	Panajachel	8	Panajachel	12	Diciembre	2023-12-17T00:00:00	2024-11-08T19:00:00	8	Radiación solar	0
78549	7	Sololá	710	Panajachel	8	Panajachel	12	Diciembre	2023-12-17T00:00:00	2024-11-08T20:00:00	2	Temperatura media	18.2
78550	7	Sololá	710	Panajachel	8	Panajachel	12	Diciembre	2023-12-17T00:00:00	2024-11-08T20:00:00	4	Temperatura máxima	18.9
78551	7	Sololá	710	Panajachel	8	Panajachel	12	Diciembre	2023-12-17T00:00:00	2024-11-08T20:00:00	3	Temperatura mínima	18.2
78552	7	Sololá	710	Panajachel	8	Panajachel	12	Diciembre	2023-12-17T00:00:00	2024-11-08T20:00:00	5	Humedad	71
78553	7	Sololá	710	Panajachel	8	Panajachel	12	Diciembre	2023-12-17T00:00:00	2024-11-08T20:00:00	6	Velocidad del viento	4.8
78554	7	Sololá	710	Panajachel	8	Panajachel	12	Diciembre	2023-12-17T00:00:00	2024-11-08T20:00:00	7	Dirección del viento	4.83
78555	7	Sololá	710	Panajachel	8	Panajachel	12	Diciembre	2023-12-17T00:00:00	2024-11-08T20:00:00	1	Precipitación	0
78556	7	Sololá	710	Panajachel	8	Panajachel	12	Diciembre	2023-12-17T00:00:00	2024-11-08T20:00:00	8	Radiación solar	0
78557	7	Sololá	710	Panajachel	8	Panajachel	12	Diciembre	2023-12-17T00:00:00	2024-11-08T21:00:00	2	Temperatura media	17.8
78558	7	Sololá	710	Panajachel	8	Panajachel	12	Diciembre	2023-12-17T00:00:00	2024-11-08T21:00:00	4	Temperatura máxima	18.2
78559	7	Sololá	710	Panajachel	8	Panajachel	12	Diciembre	2023-12-17T00:00:00	2024-11-08T21:00:00	3	Temperatura mínima	17.8
78560	7	Sololá	710	Panajachel	8	Panajachel	12	Diciembre	2023-12-17T00:00:00	2024-11-08T21:00:00	5	Humedad	71
78561	7	Sololá	710	Panajachel	8	Panajachel	12	Diciembre	2023-12-17T00:00:00	2024-11-08T21:00:00	6	Velocidad del viento	3.2
78562	7	Sololá	710	Panajachel	8	Panajachel	12	Diciembre	2023-12-17T00:00:00	2024-11-08T21:00:00	7	Dirección del viento	3.22
78563	7	Sololá	710	Panajachel	8	Panajachel	12	Diciembre	2023-12-17T00:00:00	2024-11-08T21:00:00	1	Precipitación	0
78564	7	Sololá	710	Panajachel	8	Panajachel	12	Diciembre	2023-12-17T00:00:00	2024-11-08T21:00:00	8	Radiación solar	0
78565	7	Sololá	710	Panajachel	8	Panajachel	12	Diciembre	2023-12-17T00:00:00	2024-11-08T22:00:00	2	Temperatura media	18.2
78566	7	Sololá	710	Panajachel	8	Panajachel	12	Diciembre	2023-12-17T00:00:00	2024-11-08T22:00:00	4	Temperatura máxima	18.2
78567	7	Sololá	710	Panajachel	8	Panajachel	12	Diciembre	2023-12-17T00:00:00	2024-11-08T22:00:00	3	Temperatura mínima	17.8
78568	7	Sololá	710	Panajachel	8	Panajachel	12	Diciembre	2023-12-17T00:00:00	2024-11-08T22:00:00	5	Humedad	69
78569	7	Sololá	710	Panajachel	8	Panajachel	12	Diciembre	2023-12-17T00:00:00	2024-11-08T22:00:00	6	Velocidad del viento	3.2
78570	7	Sololá	710	Panajachel	8	Panajachel	12	Diciembre	2023-12-17T00:00:00	2024-11-08T22:00:00	7	Dirección del viento	3.22
78571	7	Sololá	710	Panajachel	8	Panajachel	12	Diciembre	2023-12-17T00:00:00	2024-11-08T22:00:00	1	Precipitación	0
78572	7	Sololá	710	Panajachel	8	Panajachel	12	Diciembre	2023-12-17T00:00:00	2024-11-08T22:00:00	8	Radiación solar	0
78573	7	Sololá	710	Panajachel	8	Panajachel	12	Diciembre	2023-12-17T00:00:00	2024-11-08T23:00:00	2	Temperatura media	17.3
78574	7	Sololá	710	Panajachel	8	Panajachel	12	Diciembre	2023-12-17T00:00:00	2024-11-08T23:00:00	4	Temperatura máxima	18.2
78575	7	Sololá	710	Panajachel	8	Panajachel	12	Diciembre	2023-12-17T00:00:00	2024-11-08T23:00:00	3	Temperatura mínima	17.3
78576	7	Sololá	710	Panajachel	8	Panajachel	12	Diciembre	2023-12-17T00:00:00	2024-11-08T23:00:00	5	Humedad	72
78577	7	Sololá	710	Panajachel	8	Panajachel	12	Diciembre	2023-12-17T00:00:00	2024-11-08T23:00:00	6	Velocidad del viento	3.2
78578	7	Sololá	710	Panajachel	8	Panajachel	12	Diciembre	2023-12-17T00:00:00	2024-11-08T23:00:00	7	Dirección del viento	3.22
78579	7	Sololá	710	Panajachel	8	Panajachel	12	Diciembre	2023-12-17T00:00:00	2024-11-08T23:00:00	1	Precipitación	0
78580	7	Sololá	710	Panajachel	8	Panajachel	12	Diciembre	2023-12-17T00:00:00	2024-11-08T23:00:00	8	Radiación solar	0
78581	7	Sololá	710	Panajachel	8	Panajachel	12	Diciembre	2023-12-18T00:00:00	2024-11-08T00:00:00	2	Temperatura media	16.7
78582	7	Sololá	710	Panajachel	8	Panajachel	12	Diciembre	2023-12-18T00:00:00	2024-11-08T00:00:00	4	Temperatura máxima	17.3
78583	7	Sololá	710	Panajachel	8	Panajachel	12	Diciembre	2023-12-18T00:00:00	2024-11-08T00:00:00	3	Temperatura mínima	16.6
78584	7	Sololá	710	Panajachel	8	Panajachel	12	Diciembre	2023-12-18T00:00:00	2024-11-08T00:00:00	5	Humedad	70
78585	7	Sololá	710	Panajachel	8	Panajachel	12	Diciembre	2023-12-18T00:00:00	2024-11-08T00:00:00	6	Velocidad del viento	3.2
78586	7	Sololá	710	Panajachel	8	Panajachel	12	Diciembre	2023-12-18T00:00:00	2024-11-08T00:00:00	7	Dirección del viento	3.22
78587	7	Sololá	710	Panajachel	8	Panajachel	12	Diciembre	2023-12-18T00:00:00	2024-11-08T00:00:00	1	Precipitación	0
78588	7	Sololá	710	Panajachel	8	Panajachel	12	Diciembre	2023-12-18T00:00:00	2024-11-08T00:00:00	8	Radiación solar	0
78589	7	Sololá	710	Panajachel	8	Panajachel	12	Diciembre	2023-12-18T00:00:00	2024-11-08T01:00:00	2	Temperatura media	15.5
78590	7	Sololá	710	Panajachel	8	Panajachel	12	Diciembre	2023-12-18T00:00:00	2024-11-08T01:00:00	4	Temperatura máxima	16.7
78591	7	Sololá	710	Panajachel	8	Panajachel	12	Diciembre	2023-12-18T00:00:00	2024-11-08T01:00:00	3	Temperatura mínima	15.5
78592	7	Sololá	710	Panajachel	8	Panajachel	12	Diciembre	2023-12-18T00:00:00	2024-11-08T01:00:00	5	Humedad	71
78593	7	Sololá	710	Panajachel	8	Panajachel	12	Diciembre	2023-12-18T00:00:00	2024-11-08T01:00:00	6	Velocidad del viento	3.2
78594	7	Sololá	710	Panajachel	8	Panajachel	12	Diciembre	2023-12-18T00:00:00	2024-11-08T01:00:00	7	Dirección del viento	3.22
78595	7	Sololá	710	Panajachel	8	Panajachel	12	Diciembre	2023-12-18T00:00:00	2024-11-08T01:00:00	1	Precipitación	0
78596	7	Sololá	710	Panajachel	8	Panajachel	12	Diciembre	2023-12-18T00:00:00	2024-11-08T01:00:00	8	Radiación solar	0
78597	7	Sololá	710	Panajachel	8	Panajachel	12	Diciembre	2023-12-18T00:00:00	2024-11-08T02:00:00	2	Temperatura media	14.1
78598	7	Sololá	710	Panajachel	8	Panajachel	12	Diciembre	2023-12-18T00:00:00	2024-11-08T02:00:00	4	Temperatura máxima	15.5
78599	7	Sololá	710	Panajachel	8	Panajachel	12	Diciembre	2023-12-18T00:00:00	2024-11-08T02:00:00	3	Temperatura mínima	14.1
78600	7	Sololá	710	Panajachel	8	Panajachel	12	Diciembre	2023-12-18T00:00:00	2024-11-08T02:00:00	5	Humedad	69
78601	7	Sololá	710	Panajachel	8	Panajachel	12	Diciembre	2023-12-18T00:00:00	2024-11-08T02:00:00	6	Velocidad del viento	6.4
78602	7	Sololá	710	Panajachel	8	Panajachel	12	Diciembre	2023-12-18T00:00:00	2024-11-08T02:00:00	7	Dirección del viento	6.44
78603	7	Sololá	710	Panajachel	8	Panajachel	12	Diciembre	2023-12-18T00:00:00	2024-11-08T02:00:00	1	Precipitación	0
78604	7	Sololá	710	Panajachel	8	Panajachel	12	Diciembre	2023-12-18T00:00:00	2024-11-08T02:00:00	8	Radiación solar	0
78605	7	Sololá	710	Panajachel	8	Panajachel	12	Diciembre	2023-12-18T00:00:00	2024-11-08T03:00:00	2	Temperatura media	14.2
78606	7	Sololá	710	Panajachel	8	Panajachel	12	Diciembre	2023-12-18T00:00:00	2024-11-08T03:00:00	4	Temperatura máxima	14.6
78607	7	Sololá	710	Panajachel	8	Panajachel	12	Diciembre	2023-12-18T00:00:00	2024-11-08T03:00:00	3	Temperatura mínima	14
78608	7	Sololá	710	Panajachel	8	Panajachel	12	Diciembre	2023-12-18T00:00:00	2024-11-08T03:00:00	5	Humedad	53
78609	7	Sololá	710	Panajachel	8	Panajachel	12	Diciembre	2023-12-18T00:00:00	2024-11-08T03:00:00	6	Velocidad del viento	6.4
78610	7	Sololá	710	Panajachel	8	Panajachel	12	Diciembre	2023-12-18T00:00:00	2024-11-08T03:00:00	7	Dirección del viento	6.44
78611	7	Sololá	710	Panajachel	8	Panajachel	12	Diciembre	2023-12-18T00:00:00	2024-11-08T03:00:00	1	Precipitación	0
78612	7	Sololá	710	Panajachel	8	Panajachel	12	Diciembre	2023-12-18T00:00:00	2024-11-08T03:00:00	8	Radiación solar	0
78613	7	Sololá	710	Panajachel	8	Panajachel	12	Diciembre	2023-12-18T00:00:00	2024-11-08T04:00:00	2	Temperatura media	14.6
78614	7	Sololá	710	Panajachel	8	Panajachel	12	Diciembre	2023-12-18T00:00:00	2024-11-08T04:00:00	4	Temperatura máxima	14.6
78615	7	Sololá	710	Panajachel	8	Panajachel	12	Diciembre	2023-12-18T00:00:00	2024-11-08T04:00:00	3	Temperatura mínima	14.2
78616	7	Sololá	710	Panajachel	8	Panajachel	12	Diciembre	2023-12-18T00:00:00	2024-11-08T04:00:00	5	Humedad	55
78617	7	Sololá	710	Panajachel	8	Panajachel	12	Diciembre	2023-12-18T00:00:00	2024-11-08T04:00:00	6	Velocidad del viento	3.2
78618	7	Sololá	710	Panajachel	8	Panajachel	12	Diciembre	2023-12-18T00:00:00	2024-11-08T04:00:00	7	Dirección del viento	3.22
78619	7	Sololá	710	Panajachel	8	Panajachel	12	Diciembre	2023-12-18T00:00:00	2024-11-08T04:00:00	1	Precipitación	0
78620	7	Sololá	710	Panajachel	8	Panajachel	12	Diciembre	2023-12-18T00:00:00	2024-11-08T04:00:00	8	Radiación solar	0
78621	7	Sololá	710	Panajachel	8	Panajachel	12	Diciembre	2023-12-18T00:00:00	2024-11-08T05:00:00	2	Temperatura media	14.1
78622	7	Sololá	710	Panajachel	8	Panajachel	12	Diciembre	2023-12-18T00:00:00	2024-11-08T05:00:00	4	Temperatura máxima	14.8
78623	7	Sololá	710	Panajachel	8	Panajachel	12	Diciembre	2023-12-18T00:00:00	2024-11-08T05:00:00	3	Temperatura mínima	14
78624	7	Sololá	710	Panajachel	8	Panajachel	12	Diciembre	2023-12-18T00:00:00	2024-11-08T05:00:00	5	Humedad	65
78625	7	Sololá	710	Panajachel	8	Panajachel	12	Diciembre	2023-12-18T00:00:00	2024-11-08T05:00:00	6	Velocidad del viento	1.6
78626	7	Sololá	710	Panajachel	8	Panajachel	12	Diciembre	2023-12-18T00:00:00	2024-11-08T05:00:00	7	Dirección del viento	1.61
78627	7	Sololá	710	Panajachel	8	Panajachel	12	Diciembre	2023-12-18T00:00:00	2024-11-08T05:00:00	1	Precipitación	0
78628	7	Sololá	710	Panajachel	8	Panajachel	12	Diciembre	2023-12-18T00:00:00	2024-11-08T05:00:00	8	Radiación solar	0
78629	7	Sololá	710	Panajachel	8	Panajachel	12	Diciembre	2023-12-18T00:00:00	2024-11-08T06:00:00	2	Temperatura media	14.1
78630	7	Sololá	710	Panajachel	8	Panajachel	12	Diciembre	2023-12-18T00:00:00	2024-11-08T06:00:00	4	Temperatura máxima	14.1
78631	7	Sololá	710	Panajachel	8	Panajachel	12	Diciembre	2023-12-18T00:00:00	2024-11-08T06:00:00	3	Temperatura mínima	13.4
78632	7	Sololá	710	Panajachel	8	Panajachel	12	Diciembre	2023-12-18T00:00:00	2024-11-08T06:00:00	5	Humedad	69
78633	7	Sololá	710	Panajachel	8	Panajachel	12	Diciembre	2023-12-18T00:00:00	2024-11-08T06:00:00	6	Velocidad del viento	1.6
78634	7	Sololá	710	Panajachel	8	Panajachel	12	Diciembre	2023-12-18T00:00:00	2024-11-08T06:00:00	7	Dirección del viento	1.61
78635	7	Sololá	710	Panajachel	8	Panajachel	12	Diciembre	2023-12-18T00:00:00	2024-11-08T06:00:00	1	Precipitación	0
78636	7	Sololá	710	Panajachel	8	Panajachel	12	Diciembre	2023-12-18T00:00:00	2024-11-08T06:00:00	8	Radiación solar	0
78637	7	Sololá	710	Panajachel	8	Panajachel	12	Diciembre	2023-12-18T00:00:00	2024-11-08T07:00:00	2	Temperatura media	13.9
78638	7	Sololá	710	Panajachel	8	Panajachel	12	Diciembre	2023-12-18T00:00:00	2024-11-08T07:00:00	4	Temperatura máxima	14
78639	7	Sololá	710	Panajachel	8	Panajachel	12	Diciembre	2023-12-18T00:00:00	2024-11-08T07:00:00	3	Temperatura mínima	13.6
78640	7	Sololá	710	Panajachel	8	Panajachel	12	Diciembre	2023-12-18T00:00:00	2024-11-08T07:00:00	5	Humedad	63
78641	7	Sololá	710	Panajachel	8	Panajachel	12	Diciembre	2023-12-18T00:00:00	2024-11-08T07:00:00	6	Velocidad del viento	1.6
78642	7	Sololá	710	Panajachel	8	Panajachel	12	Diciembre	2023-12-18T00:00:00	2024-11-08T07:00:00	7	Dirección del viento	1.61
78643	7	Sololá	710	Panajachel	8	Panajachel	12	Diciembre	2023-12-18T00:00:00	2024-11-08T07:00:00	1	Precipitación	0
78644	7	Sololá	710	Panajachel	8	Panajachel	12	Diciembre	2023-12-18T00:00:00	2024-11-08T07:00:00	8	Radiación solar	6
78645	7	Sololá	710	Panajachel	8	Panajachel	12	Diciembre	2023-12-18T00:00:00	2024-11-08T08:00:00	2	Temperatura media	16.7
78646	7	Sololá	710	Panajachel	8	Panajachel	12	Diciembre	2023-12-18T00:00:00	2024-11-08T08:00:00	4	Temperatura máxima	16.7
78647	7	Sololá	710	Panajachel	8	Panajachel	12	Diciembre	2023-12-18T00:00:00	2024-11-08T08:00:00	3	Temperatura mínima	13.8
78648	7	Sololá	710	Panajachel	8	Panajachel	12	Diciembre	2023-12-18T00:00:00	2024-11-08T08:00:00	5	Humedad	50
78649	7	Sololá	710	Panajachel	8	Panajachel	12	Diciembre	2023-12-18T00:00:00	2024-11-08T08:00:00	6	Velocidad del viento	3.2
78650	7	Sololá	710	Panajachel	8	Panajachel	12	Diciembre	2023-12-18T00:00:00	2024-11-08T08:00:00	7	Dirección del viento	3.22
78651	7	Sololá	710	Panajachel	8	Panajachel	12	Diciembre	2023-12-18T00:00:00	2024-11-08T08:00:00	1	Precipitación	0
78652	7	Sololá	710	Panajachel	8	Panajachel	12	Diciembre	2023-12-18T00:00:00	2024-11-08T08:00:00	8	Radiación solar	177
78653	7	Sololá	710	Panajachel	8	Panajachel	12	Diciembre	2023-12-18T00:00:00	2024-11-08T09:00:00	2	Temperatura media	19.3
78654	7	Sololá	710	Panajachel	8	Panajachel	12	Diciembre	2023-12-18T00:00:00	2024-11-08T09:00:00	4	Temperatura máxima	19.3
78655	7	Sololá	710	Panajachel	8	Panajachel	12	Diciembre	2023-12-18T00:00:00	2024-11-08T09:00:00	3	Temperatura mínima	16.7
78656	7	Sololá	710	Panajachel	8	Panajachel	12	Diciembre	2023-12-18T00:00:00	2024-11-08T09:00:00	5	Humedad	68
78657	7	Sololá	710	Panajachel	8	Panajachel	12	Diciembre	2023-12-18T00:00:00	2024-11-08T09:00:00	6	Velocidad del viento	1.6
78658	7	Sololá	710	Panajachel	8	Panajachel	12	Diciembre	2023-12-18T00:00:00	2024-11-08T09:00:00	7	Dirección del viento	1.61
78659	7	Sololá	710	Panajachel	8	Panajachel	12	Diciembre	2023-12-18T00:00:00	2024-11-08T09:00:00	1	Precipitación	0
78660	7	Sololá	710	Panajachel	8	Panajachel	12	Diciembre	2023-12-18T00:00:00	2024-11-08T09:00:00	8	Radiación solar	402
78661	7	Sololá	710	Panajachel	8	Panajachel	12	Diciembre	2023-12-18T00:00:00	2024-11-08T10:00:00	2	Temperatura media	19
78662	7	Sololá	710	Panajachel	8	Panajachel	12	Diciembre	2023-12-18T00:00:00	2024-11-08T10:00:00	4	Temperatura máxima	19.3
78663	7	Sololá	710	Panajachel	8	Panajachel	12	Diciembre	2023-12-18T00:00:00	2024-11-08T10:00:00	3	Temperatura mínima	18.6
78664	7	Sololá	710	Panajachel	8	Panajachel	12	Diciembre	2023-12-18T00:00:00	2024-11-08T10:00:00	5	Humedad	72
78665	7	Sololá	710	Panajachel	8	Panajachel	12	Diciembre	2023-12-18T00:00:00	2024-11-08T10:00:00	6	Velocidad del viento	3.2
78666	7	Sololá	710	Panajachel	8	Panajachel	12	Diciembre	2023-12-18T00:00:00	2024-11-08T10:00:00	7	Dirección del viento	3.22
78667	7	Sololá	710	Panajachel	8	Panajachel	12	Diciembre	2023-12-18T00:00:00	2024-11-08T10:00:00	1	Precipitación	0
78668	7	Sololá	710	Panajachel	8	Panajachel	12	Diciembre	2023-12-18T00:00:00	2024-11-08T10:00:00	8	Radiación solar	586
78669	7	Sololá	710	Panajachel	8	Panajachel	12	Diciembre	2023-12-18T00:00:00	2024-11-08T11:00:00	2	Temperatura media	20.7
78670	7	Sololá	710	Panajachel	8	Panajachel	12	Diciembre	2023-12-18T00:00:00	2024-11-08T11:00:00	4	Temperatura máxima	20.8
78671	7	Sololá	710	Panajachel	8	Panajachel	12	Diciembre	2023-12-18T00:00:00	2024-11-08T11:00:00	3	Temperatura mínima	19
78672	7	Sololá	710	Panajachel	8	Panajachel	12	Diciembre	2023-12-18T00:00:00	2024-11-08T11:00:00	5	Humedad	66
78673	7	Sololá	710	Panajachel	8	Panajachel	12	Diciembre	2023-12-18T00:00:00	2024-11-08T11:00:00	6	Velocidad del viento	3.2
78674	7	Sololá	710	Panajachel	8	Panajachel	12	Diciembre	2023-12-18T00:00:00	2024-11-08T11:00:00	7	Dirección del viento	3.22
78675	7	Sololá	710	Panajachel	8	Panajachel	12	Diciembre	2023-12-18T00:00:00	2024-11-08T11:00:00	1	Precipitación	0
78676	7	Sololá	710	Panajachel	8	Panajachel	12	Diciembre	2023-12-18T00:00:00	2024-11-08T11:00:00	8	Radiación solar	719
78677	7	Sololá	710	Panajachel	8	Panajachel	12	Diciembre	2023-12-18T00:00:00	2024-11-08T12:00:00	2	Temperatura media	22.4
78678	7	Sololá	710	Panajachel	8	Panajachel	12	Diciembre	2023-12-18T00:00:00	2024-11-08T12:00:00	4	Temperatura máxima	22.6
78679	7	Sololá	710	Panajachel	8	Panajachel	12	Diciembre	2023-12-18T00:00:00	2024-11-08T12:00:00	3	Temperatura mínima	20.5
78680	7	Sololá	710	Panajachel	8	Panajachel	12	Diciembre	2023-12-18T00:00:00	2024-11-08T12:00:00	5	Humedad	60
78681	7	Sololá	710	Panajachel	8	Panajachel	12	Diciembre	2023-12-18T00:00:00	2024-11-08T12:00:00	6	Velocidad del viento	4.8
78682	7	Sololá	710	Panajachel	8	Panajachel	12	Diciembre	2023-12-18T00:00:00	2024-11-08T12:00:00	7	Dirección del viento	4.83
78683	7	Sololá	710	Panajachel	8	Panajachel	12	Diciembre	2023-12-18T00:00:00	2024-11-08T12:00:00	1	Precipitación	0
78684	7	Sololá	710	Panajachel	8	Panajachel	12	Diciembre	2023-12-18T00:00:00	2024-11-08T12:00:00	8	Radiación solar	789
78685	7	Sololá	710	Panajachel	8	Panajachel	12	Diciembre	2023-12-18T00:00:00	2024-11-08T13:00:00	2	Temperatura media	23.1
78686	7	Sololá	710	Panajachel	8	Panajachel	12	Diciembre	2023-12-18T00:00:00	2024-11-08T13:00:00	4	Temperatura máxima	23.6
78687	7	Sololá	710	Panajachel	8	Panajachel	12	Diciembre	2023-12-18T00:00:00	2024-11-08T13:00:00	3	Temperatura mínima	22.2
78688	7	Sololá	710	Panajachel	8	Panajachel	12	Diciembre	2023-12-18T00:00:00	2024-11-08T13:00:00	5	Humedad	66
78689	7	Sololá	710	Panajachel	8	Panajachel	12	Diciembre	2023-12-18T00:00:00	2024-11-08T13:00:00	6	Velocidad del viento	6.4
78690	7	Sololá	710	Panajachel	8	Panajachel	12	Diciembre	2023-12-18T00:00:00	2024-11-08T13:00:00	7	Dirección del viento	6.44
78691	7	Sololá	710	Panajachel	8	Panajachel	12	Diciembre	2023-12-18T00:00:00	2024-11-08T13:00:00	1	Precipitación	0
78692	7	Sololá	710	Panajachel	8	Panajachel	12	Diciembre	2023-12-18T00:00:00	2024-11-08T13:00:00	8	Radiación solar	784
78693	7	Sololá	710	Panajachel	8	Panajachel	12	Diciembre	2023-12-18T00:00:00	2024-11-08T14:00:00	2	Temperatura media	22.6
78694	7	Sololá	710	Panajachel	8	Panajachel	12	Diciembre	2023-12-18T00:00:00	2024-11-08T14:00:00	4	Temperatura máxima	23.4
78695	7	Sololá	710	Panajachel	8	Panajachel	12	Diciembre	2023-12-18T00:00:00	2024-11-08T14:00:00	3	Temperatura mínima	22.5
78696	7	Sololá	710	Panajachel	8	Panajachel	12	Diciembre	2023-12-18T00:00:00	2024-11-08T14:00:00	5	Humedad	72
78697	7	Sololá	710	Panajachel	8	Panajachel	12	Diciembre	2023-12-18T00:00:00	2024-11-08T14:00:00	6	Velocidad del viento	6.4
78698	7	Sololá	710	Panajachel	8	Panajachel	12	Diciembre	2023-12-18T00:00:00	2024-11-08T14:00:00	7	Dirección del viento	6.44
78699	7	Sololá	710	Panajachel	8	Panajachel	12	Diciembre	2023-12-18T00:00:00	2024-11-08T14:00:00	1	Precipitación	0
78700	7	Sololá	710	Panajachel	8	Panajachel	12	Diciembre	2023-12-18T00:00:00	2024-11-08T14:00:00	8	Radiación solar	703
78701	7	Sololá	710	Panajachel	8	Panajachel	12	Diciembre	2023-12-18T00:00:00	2024-11-08T15:00:00	2	Temperatura media	23.2
78702	7	Sololá	710	Panajachel	8	Panajachel	12	Diciembre	2023-12-18T00:00:00	2024-11-08T15:00:00	4	Temperatura máxima	23.6
78703	7	Sololá	710	Panajachel	8	Panajachel	12	Diciembre	2023-12-18T00:00:00	2024-11-08T15:00:00	3	Temperatura mínima	22.6
78704	7	Sololá	710	Panajachel	8	Panajachel	12	Diciembre	2023-12-18T00:00:00	2024-11-08T15:00:00	5	Humedad	68
78705	7	Sololá	710	Panajachel	8	Panajachel	12	Diciembre	2023-12-18T00:00:00	2024-11-08T15:00:00	6	Velocidad del viento	6.4
78706	7	Sololá	710	Panajachel	8	Panajachel	12	Diciembre	2023-12-18T00:00:00	2024-11-08T15:00:00	7	Dirección del viento	6.44
78707	7	Sololá	710	Panajachel	8	Panajachel	12	Diciembre	2023-12-18T00:00:00	2024-11-08T15:00:00	1	Precipitación	0
78708	7	Sololá	710	Panajachel	8	Panajachel	12	Diciembre	2023-12-18T00:00:00	2024-11-08T15:00:00	8	Radiación solar	571
78709	7	Sololá	710	Panajachel	8	Panajachel	12	Diciembre	2023-12-18T00:00:00	2024-11-08T16:00:00	2	Temperatura media	23.4
78710	7	Sololá	710	Panajachel	8	Panajachel	12	Diciembre	2023-12-18T00:00:00	2024-11-08T16:00:00	4	Temperatura máxima	23.9
78711	7	Sololá	710	Panajachel	8	Panajachel	12	Diciembre	2023-12-18T00:00:00	2024-11-08T16:00:00	3	Temperatura mínima	22.8
78712	7	Sololá	710	Panajachel	8	Panajachel	12	Diciembre	2023-12-18T00:00:00	2024-11-08T16:00:00	5	Humedad	27
78713	7	Sololá	710	Panajachel	8	Panajachel	12	Diciembre	2023-12-18T00:00:00	2024-11-08T16:00:00	6	Velocidad del viento	8
78714	7	Sololá	710	Panajachel	8	Panajachel	12	Diciembre	2023-12-18T00:00:00	2024-11-08T16:00:00	7	Dirección del viento	8.05
78715	7	Sololá	710	Panajachel	8	Panajachel	12	Diciembre	2023-12-18T00:00:00	2024-11-08T16:00:00	1	Precipitación	0
78716	7	Sololá	710	Panajachel	8	Panajachel	12	Diciembre	2023-12-18T00:00:00	2024-11-08T16:00:00	8	Radiación solar	399
78717	7	Sololá	710	Panajachel	8	Panajachel	12	Diciembre	2023-12-18T00:00:00	2024-11-08T17:00:00	2	Temperatura media	21.4
78718	7	Sololá	710	Panajachel	8	Panajachel	12	Diciembre	2023-12-18T00:00:00	2024-11-08T17:00:00	4	Temperatura máxima	23.4
78719	7	Sololá	710	Panajachel	8	Panajachel	12	Diciembre	2023-12-18T00:00:00	2024-11-08T17:00:00	3	Temperatura mínima	21.4
78720	7	Sololá	710	Panajachel	8	Panajachel	12	Diciembre	2023-12-18T00:00:00	2024-11-08T17:00:00	5	Humedad	29
78721	7	Sololá	710	Panajachel	8	Panajachel	12	Diciembre	2023-12-18T00:00:00	2024-11-08T17:00:00	6	Velocidad del viento	9.7
78722	7	Sololá	710	Panajachel	8	Panajachel	12	Diciembre	2023-12-18T00:00:00	2024-11-08T17:00:00	7	Dirección del viento	9.66
78723	7	Sololá	710	Panajachel	8	Panajachel	12	Diciembre	2023-12-18T00:00:00	2024-11-08T17:00:00	1	Precipitación	0
78724	7	Sololá	710	Panajachel	8	Panajachel	12	Diciembre	2023-12-18T00:00:00	2024-11-08T17:00:00	8	Radiación solar	193
78725	7	Sololá	710	Panajachel	8	Panajachel	12	Diciembre	2023-12-18T00:00:00	2024-11-08T18:00:00	2	Temperatura media	19.2
78726	7	Sololá	710	Panajachel	8	Panajachel	12	Diciembre	2023-12-18T00:00:00	2024-11-08T18:00:00	4	Temperatura máxima	21.4
78727	7	Sololá	710	Panajachel	8	Panajachel	12	Diciembre	2023-12-18T00:00:00	2024-11-08T18:00:00	3	Temperatura mínima	19.2
78728	7	Sololá	710	Panajachel	8	Panajachel	12	Diciembre	2023-12-18T00:00:00	2024-11-08T18:00:00	5	Humedad	33
78729	7	Sololá	710	Panajachel	8	Panajachel	12	Diciembre	2023-12-18T00:00:00	2024-11-08T18:00:00	6	Velocidad del viento	12.9
78730	7	Sololá	710	Panajachel	8	Panajachel	12	Diciembre	2023-12-18T00:00:00	2024-11-08T18:00:00	7	Dirección del viento	12.87
78731	7	Sololá	710	Panajachel	8	Panajachel	12	Diciembre	2023-12-18T00:00:00	2024-11-08T18:00:00	1	Precipitación	0
78732	7	Sololá	710	Panajachel	8	Panajachel	12	Diciembre	2023-12-18T00:00:00	2024-11-08T18:00:00	8	Radiación solar	14
78733	7	Sololá	710	Panajachel	8	Panajachel	12	Diciembre	2023-12-18T00:00:00	2024-11-08T19:00:00	2	Temperatura media	18.2
78734	7	Sololá	710	Panajachel	8	Panajachel	12	Diciembre	2023-12-18T00:00:00	2024-11-08T19:00:00	4	Temperatura máxima	19.2
78735	7	Sololá	710	Panajachel	8	Panajachel	12	Diciembre	2023-12-18T00:00:00	2024-11-08T19:00:00	3	Temperatura mínima	18.2
78736	7	Sololá	710	Panajachel	8	Panajachel	12	Diciembre	2023-12-18T00:00:00	2024-11-08T19:00:00	5	Humedad	29
78737	7	Sololá	710	Panajachel	8	Panajachel	12	Diciembre	2023-12-18T00:00:00	2024-11-08T19:00:00	6	Velocidad del viento	17.7
78738	7	Sololá	710	Panajachel	8	Panajachel	12	Diciembre	2023-12-18T00:00:00	2024-11-08T19:00:00	7	Dirección del viento	17.7
78739	7	Sololá	710	Panajachel	8	Panajachel	12	Diciembre	2023-12-18T00:00:00	2024-11-08T19:00:00	1	Precipitación	0
78740	7	Sololá	710	Panajachel	8	Panajachel	12	Diciembre	2023-12-18T00:00:00	2024-11-08T19:00:00	8	Radiación solar	0
78741	7	Sololá	710	Panajachel	8	Panajachel	12	Diciembre	2023-12-18T00:00:00	2024-11-08T20:00:00	2	Temperatura media	17.8
78742	7	Sololá	710	Panajachel	8	Panajachel	12	Diciembre	2023-12-18T00:00:00	2024-11-08T20:00:00	4	Temperatura máxima	18.2
78743	7	Sololá	710	Panajachel	8	Panajachel	12	Diciembre	2023-12-18T00:00:00	2024-11-08T20:00:00	3	Temperatura mínima	17.7
78744	7	Sololá	710	Panajachel	8	Panajachel	12	Diciembre	2023-12-18T00:00:00	2024-11-08T20:00:00	5	Humedad	25
78745	7	Sololá	710	Panajachel	8	Panajachel	12	Diciembre	2023-12-18T00:00:00	2024-11-08T20:00:00	6	Velocidad del viento	20.9
78746	7	Sololá	710	Panajachel	8	Panajachel	12	Diciembre	2023-12-18T00:00:00	2024-11-08T20:00:00	7	Dirección del viento	20.92
78747	7	Sololá	710	Panajachel	8	Panajachel	12	Diciembre	2023-12-18T00:00:00	2024-11-08T20:00:00	1	Precipitación	0
78748	7	Sololá	710	Panajachel	8	Panajachel	12	Diciembre	2023-12-18T00:00:00	2024-11-08T20:00:00	8	Radiación solar	0
78749	7	Sololá	710	Panajachel	8	Panajachel	12	Diciembre	2023-12-18T00:00:00	2024-11-08T21:00:00	2	Temperatura media	17.2
78750	7	Sololá	710	Panajachel	8	Panajachel	12	Diciembre	2023-12-18T00:00:00	2024-11-08T21:00:00	4	Temperatura máxima	17.9
78751	7	Sololá	710	Panajachel	8	Panajachel	12	Diciembre	2023-12-18T00:00:00	2024-11-08T21:00:00	3	Temperatura mínima	17.2
78752	7	Sololá	710	Panajachel	8	Panajachel	12	Diciembre	2023-12-18T00:00:00	2024-11-08T21:00:00	5	Humedad	24
78753	7	Sololá	710	Panajachel	8	Panajachel	12	Diciembre	2023-12-18T00:00:00	2024-11-08T21:00:00	6	Velocidad del viento	22.5
78754	7	Sololá	710	Panajachel	8	Panajachel	12	Diciembre	2023-12-18T00:00:00	2024-11-08T21:00:00	7	Dirección del viento	22.53
78755	7	Sololá	710	Panajachel	8	Panajachel	12	Diciembre	2023-12-18T00:00:00	2024-11-08T21:00:00	1	Precipitación	0
78756	7	Sololá	710	Panajachel	8	Panajachel	12	Diciembre	2023-12-18T00:00:00	2024-11-08T21:00:00	8	Radiación solar	0
78757	7	Sololá	710	Panajachel	8	Panajachel	12	Diciembre	2023-12-18T00:00:00	2024-11-08T22:00:00	2	Temperatura media	17
78758	7	Sololá	710	Panajachel	8	Panajachel	12	Diciembre	2023-12-18T00:00:00	2024-11-08T22:00:00	4	Temperatura máxima	17.3
78759	7	Sololá	710	Panajachel	8	Panajachel	12	Diciembre	2023-12-18T00:00:00	2024-11-08T22:00:00	3	Temperatura mínima	17
78760	7	Sololá	710	Panajachel	8	Panajachel	12	Diciembre	2023-12-18T00:00:00	2024-11-08T22:00:00	5	Humedad	19
78761	7	Sololá	710	Panajachel	8	Panajachel	12	Diciembre	2023-12-18T00:00:00	2024-11-08T22:00:00	6	Velocidad del viento	19.3
78762	7	Sololá	710	Panajachel	8	Panajachel	12	Diciembre	2023-12-18T00:00:00	2024-11-08T22:00:00	7	Dirección del viento	19.31
78763	7	Sololá	710	Panajachel	8	Panajachel	12	Diciembre	2023-12-18T00:00:00	2024-11-08T22:00:00	1	Precipitación	0
78764	7	Sololá	710	Panajachel	8	Panajachel	12	Diciembre	2023-12-18T00:00:00	2024-11-08T22:00:00	8	Radiación solar	0
78765	7	Sololá	710	Panajachel	8	Panajachel	12	Diciembre	2023-12-18T00:00:00	2024-11-08T23:00:00	2	Temperatura media	17
78766	7	Sololá	710	Panajachel	8	Panajachel	12	Diciembre	2023-12-18T00:00:00	2024-11-08T23:00:00	4	Temperatura máxima	17.1
78767	7	Sololá	710	Panajachel	8	Panajachel	12	Diciembre	2023-12-18T00:00:00	2024-11-08T23:00:00	3	Temperatura mínima	16.8
78768	7	Sololá	710	Panajachel	8	Panajachel	12	Diciembre	2023-12-18T00:00:00	2024-11-08T23:00:00	5	Humedad	14
78769	7	Sololá	710	Panajachel	8	Panajachel	12	Diciembre	2023-12-18T00:00:00	2024-11-08T23:00:00	6	Velocidad del viento	17.7
78770	7	Sololá	710	Panajachel	8	Panajachel	12	Diciembre	2023-12-18T00:00:00	2024-11-08T23:00:00	7	Dirección del viento	17.7
78771	7	Sololá	710	Panajachel	8	Panajachel	12	Diciembre	2023-12-18T00:00:00	2024-11-08T23:00:00	1	Precipitación	0
78772	7	Sololá	710	Panajachel	8	Panajachel	12	Diciembre	2023-12-18T00:00:00	2024-11-08T23:00:00	8	Radiación solar	0
78773	7	Sololá	710	Panajachel	8	Panajachel	12	Diciembre	2023-12-19T00:00:00	2024-11-08T00:00:00	2	Temperatura media	16.6
78774	7	Sololá	710	Panajachel	8	Panajachel	12	Diciembre	2023-12-19T00:00:00	2024-11-08T00:00:00	4	Temperatura máxima	17.1
78775	7	Sololá	710	Panajachel	8	Panajachel	12	Diciembre	2023-12-19T00:00:00	2024-11-08T00:00:00	3	Temperatura mínima	16.6
78776	7	Sololá	710	Panajachel	8	Panajachel	12	Diciembre	2023-12-19T00:00:00	2024-11-08T00:00:00	5	Humedad	17
78777	7	Sololá	710	Panajachel	8	Panajachel	12	Diciembre	2023-12-19T00:00:00	2024-11-08T00:00:00	6	Velocidad del viento	16.1
78778	7	Sololá	710	Panajachel	8	Panajachel	12	Diciembre	2023-12-19T00:00:00	2024-11-08T00:00:00	7	Dirección del viento	16.09
78779	7	Sololá	710	Panajachel	8	Panajachel	12	Diciembre	2023-12-19T00:00:00	2024-11-08T00:00:00	1	Precipitación	0
78780	7	Sololá	710	Panajachel	8	Panajachel	12	Diciembre	2023-12-19T00:00:00	2024-11-08T00:00:00	8	Radiación solar	0
78781	7	Sololá	710	Panajachel	8	Panajachel	12	Diciembre	2023-12-19T00:00:00	2024-11-08T01:00:00	2	Temperatura media	16.6
78782	7	Sololá	710	Panajachel	8	Panajachel	12	Diciembre	2023-12-19T00:00:00	2024-11-08T01:00:00	4	Temperatura máxima	16.8
78783	7	Sololá	710	Panajachel	8	Panajachel	12	Diciembre	2023-12-19T00:00:00	2024-11-08T01:00:00	3	Temperatura mínima	16.6
78784	7	Sololá	710	Panajachel	8	Panajachel	12	Diciembre	2023-12-19T00:00:00	2024-11-08T01:00:00	5	Humedad	17
78785	7	Sololá	710	Panajachel	8	Panajachel	12	Diciembre	2023-12-19T00:00:00	2024-11-08T01:00:00	6	Velocidad del viento	17.7
78786	7	Sololá	710	Panajachel	8	Panajachel	12	Diciembre	2023-12-19T00:00:00	2024-11-08T01:00:00	7	Dirección del viento	17.7
78787	7	Sololá	710	Panajachel	8	Panajachel	12	Diciembre	2023-12-19T00:00:00	2024-11-08T01:00:00	1	Precipitación	0
78788	7	Sololá	710	Panajachel	8	Panajachel	12	Diciembre	2023-12-19T00:00:00	2024-11-08T01:00:00	8	Radiación solar	0
78789	7	Sololá	710	Panajachel	8	Panajachel	12	Diciembre	2023-12-19T00:00:00	2024-11-08T02:00:00	2	Temperatura media	16.8
78790	7	Sololá	710	Panajachel	8	Panajachel	12	Diciembre	2023-12-19T00:00:00	2024-11-08T02:00:00	4	Temperatura máxima	16.8
78791	7	Sololá	710	Panajachel	8	Panajachel	12	Diciembre	2023-12-19T00:00:00	2024-11-08T02:00:00	3	Temperatura mínima	16.3
78792	7	Sololá	710	Panajachel	8	Panajachel	12	Diciembre	2023-12-19T00:00:00	2024-11-08T02:00:00	5	Humedad	15
78793	7	Sololá	710	Panajachel	8	Panajachel	12	Diciembre	2023-12-19T00:00:00	2024-11-08T02:00:00	6	Velocidad del viento	16.1
78794	7	Sololá	710	Panajachel	8	Panajachel	12	Diciembre	2023-12-19T00:00:00	2024-11-08T02:00:00	7	Dirección del viento	16.09
78795	7	Sololá	710	Panajachel	8	Panajachel	12	Diciembre	2023-12-19T00:00:00	2024-11-08T02:00:00	1	Precipitación	0
78796	7	Sololá	710	Panajachel	8	Panajachel	12	Diciembre	2023-12-19T00:00:00	2024-11-08T02:00:00	8	Radiación solar	0
78797	7	Sololá	710	Panajachel	8	Panajachel	12	Diciembre	2023-12-19T00:00:00	2024-11-08T03:00:00	2	Temperatura media	17.1
78798	7	Sololá	710	Panajachel	8	Panajachel	12	Diciembre	2023-12-19T00:00:00	2024-11-08T03:00:00	4	Temperatura máxima	17.1
78799	7	Sololá	710	Panajachel	8	Panajachel	12	Diciembre	2023-12-19T00:00:00	2024-11-08T03:00:00	3	Temperatura mínima	16.7
78800	7	Sololá	710	Panajachel	8	Panajachel	12	Diciembre	2023-12-19T00:00:00	2024-11-08T03:00:00	5	Humedad	13
78801	7	Sololá	710	Panajachel	8	Panajachel	12	Diciembre	2023-12-19T00:00:00	2024-11-08T03:00:00	6	Velocidad del viento	14.5
78802	7	Sololá	710	Panajachel	8	Panajachel	12	Diciembre	2023-12-19T00:00:00	2024-11-08T03:00:00	7	Dirección del viento	14.48
78803	7	Sololá	710	Panajachel	8	Panajachel	12	Diciembre	2023-12-19T00:00:00	2024-11-08T03:00:00	1	Precipitación	0
78804	7	Sololá	710	Panajachel	8	Panajachel	12	Diciembre	2023-12-19T00:00:00	2024-11-08T03:00:00	8	Radiación solar	0
78805	7	Sololá	710	Panajachel	8	Panajachel	12	Diciembre	2023-12-19T00:00:00	2024-11-08T04:00:00	2	Temperatura media	16.7
78806	7	Sololá	710	Panajachel	8	Panajachel	12	Diciembre	2023-12-19T00:00:00	2024-11-08T04:00:00	4	Temperatura máxima	17.3
78807	7	Sololá	710	Panajachel	8	Panajachel	12	Diciembre	2023-12-19T00:00:00	2024-11-08T04:00:00	3	Temperatura mínima	16.7
78808	7	Sololá	710	Panajachel	8	Panajachel	12	Diciembre	2023-12-19T00:00:00	2024-11-08T04:00:00	5	Humedad	14
78809	7	Sololá	710	Panajachel	8	Panajachel	12	Diciembre	2023-12-19T00:00:00	2024-11-08T04:00:00	6	Velocidad del viento	12.9
78810	7	Sololá	710	Panajachel	8	Panajachel	12	Diciembre	2023-12-19T00:00:00	2024-11-08T04:00:00	7	Dirección del viento	12.87
78811	7	Sololá	710	Panajachel	8	Panajachel	12	Diciembre	2023-12-19T00:00:00	2024-11-08T04:00:00	1	Precipitación	0
78812	7	Sololá	710	Panajachel	8	Panajachel	12	Diciembre	2023-12-19T00:00:00	2024-11-08T04:00:00	8	Radiación solar	0
78813	7	Sololá	710	Panajachel	8	Panajachel	12	Diciembre	2023-12-19T00:00:00	2024-11-08T05:00:00	2	Temperatura media	15.2
78814	7	Sololá	710	Panajachel	8	Panajachel	12	Diciembre	2023-12-19T00:00:00	2024-11-08T05:00:00	4	Temperatura máxima	16.8
78815	7	Sololá	710	Panajachel	8	Panajachel	12	Diciembre	2023-12-19T00:00:00	2024-11-08T05:00:00	3	Temperatura mínima	15.2
78816	7	Sololá	710	Panajachel	8	Panajachel	12	Diciembre	2023-12-19T00:00:00	2024-11-08T05:00:00	5	Humedad	28
78817	7	Sololá	710	Panajachel	8	Panajachel	12	Diciembre	2023-12-19T00:00:00	2024-11-08T05:00:00	6	Velocidad del viento	4.8
78818	7	Sololá	710	Panajachel	8	Panajachel	12	Diciembre	2023-12-19T00:00:00	2024-11-08T05:00:00	7	Dirección del viento	4.83
78819	7	Sololá	710	Panajachel	8	Panajachel	12	Diciembre	2023-12-19T00:00:00	2024-11-08T05:00:00	1	Precipitación	0
78820	7	Sololá	710	Panajachel	8	Panajachel	12	Diciembre	2023-12-19T00:00:00	2024-11-08T05:00:00	8	Radiación solar	0
78821	7	Sololá	710	Panajachel	8	Panajachel	12	Diciembre	2023-12-19T00:00:00	2024-11-08T06:00:00	2	Temperatura media	13.4
78822	7	Sololá	710	Panajachel	8	Panajachel	12	Diciembre	2023-12-19T00:00:00	2024-11-08T06:00:00	4	Temperatura máxima	15.2
78823	7	Sololá	710	Panajachel	8	Panajachel	12	Diciembre	2023-12-19T00:00:00	2024-11-08T06:00:00	3	Temperatura mínima	13.3
78824	7	Sololá	710	Panajachel	8	Panajachel	12	Diciembre	2023-12-19T00:00:00	2024-11-08T06:00:00	5	Humedad	20
78825	7	Sololá	710	Panajachel	8	Panajachel	12	Diciembre	2023-12-19T00:00:00	2024-11-08T06:00:00	6	Velocidad del viento	1.6
78826	7	Sololá	710	Panajachel	8	Panajachel	12	Diciembre	2023-12-19T00:00:00	2024-11-08T06:00:00	7	Dirección del viento	1.61
78827	7	Sololá	710	Panajachel	8	Panajachel	12	Diciembre	2023-12-19T00:00:00	2024-11-08T06:00:00	1	Precipitación	0
78828	7	Sololá	710	Panajachel	8	Panajachel	12	Diciembre	2023-12-19T00:00:00	2024-11-08T06:00:00	8	Radiación solar	0
78829	7	Sololá	710	Panajachel	8	Panajachel	12	Diciembre	2023-12-19T00:00:00	2024-11-08T07:00:00	2	Temperatura media	12.6
78830	7	Sololá	710	Panajachel	8	Panajachel	12	Diciembre	2023-12-19T00:00:00	2024-11-08T07:00:00	4	Temperatura máxima	13.6
78831	7	Sololá	710	Panajachel	8	Panajachel	12	Diciembre	2023-12-19T00:00:00	2024-11-08T07:00:00	3	Temperatura mínima	12.6
78832	7	Sololá	710	Panajachel	8	Panajachel	12	Diciembre	2023-12-19T00:00:00	2024-11-08T07:00:00	5	Humedad	34
78833	7	Sololá	710	Panajachel	8	Panajachel	12	Diciembre	2023-12-19T00:00:00	2024-11-08T07:00:00	6	Velocidad del viento	0
78834	7	Sololá	710	Panajachel	8	Panajachel	12	Diciembre	2023-12-19T00:00:00	2024-11-08T07:00:00	7	Dirección del viento	0
78835	7	Sololá	710	Panajachel	8	Panajachel	12	Diciembre	2023-12-19T00:00:00	2024-11-08T07:00:00	1	Precipitación	0
78836	7	Sololá	710	Panajachel	8	Panajachel	12	Diciembre	2023-12-19T00:00:00	2024-11-08T07:00:00	8	Radiación solar	5
78837	7	Sololá	710	Panajachel	8	Panajachel	12	Diciembre	2023-12-19T00:00:00	2024-11-08T08:00:00	2	Temperatura media	16.7
78838	7	Sololá	710	Panajachel	8	Panajachel	12	Diciembre	2023-12-19T00:00:00	2024-11-08T08:00:00	4	Temperatura máxima	16.7
78839	7	Sololá	710	Panajachel	8	Panajachel	12	Diciembre	2023-12-19T00:00:00	2024-11-08T08:00:00	3	Temperatura mínima	12.3
78840	7	Sololá	710	Panajachel	8	Panajachel	12	Diciembre	2023-12-19T00:00:00	2024-11-08T08:00:00	5	Humedad	37
78841	7	Sololá	710	Panajachel	8	Panajachel	12	Diciembre	2023-12-19T00:00:00	2024-11-08T08:00:00	6	Velocidad del viento	1.6
78842	7	Sololá	710	Panajachel	8	Panajachel	12	Diciembre	2023-12-19T00:00:00	2024-11-08T08:00:00	7	Dirección del viento	1.61
78843	7	Sololá	710	Panajachel	8	Panajachel	12	Diciembre	2023-12-19T00:00:00	2024-11-08T08:00:00	1	Precipitación	0
78844	7	Sololá	710	Panajachel	8	Panajachel	12	Diciembre	2023-12-19T00:00:00	2024-11-08T08:00:00	8	Radiación solar	187
78845	7	Sololá	710	Panajachel	8	Panajachel	12	Diciembre	2023-12-19T00:00:00	2024-11-08T09:00:00	2	Temperatura media	18.6
78846	7	Sololá	710	Panajachel	8	Panajachel	12	Diciembre	2023-12-19T00:00:00	2024-11-08T09:00:00	4	Temperatura máxima	18.6
78847	7	Sololá	710	Panajachel	8	Panajachel	12	Diciembre	2023-12-19T00:00:00	2024-11-08T09:00:00	3	Temperatura mínima	16.6
78848	7	Sololá	710	Panajachel	8	Panajachel	12	Diciembre	2023-12-19T00:00:00	2024-11-08T09:00:00	5	Humedad	40
78849	7	Sololá	710	Panajachel	8	Panajachel	12	Diciembre	2023-12-19T00:00:00	2024-11-08T09:00:00	6	Velocidad del viento	3.2
78850	7	Sololá	710	Panajachel	8	Panajachel	12	Diciembre	2023-12-19T00:00:00	2024-11-08T09:00:00	7	Dirección del viento	3.22
78851	7	Sololá	710	Panajachel	8	Panajachel	12	Diciembre	2023-12-19T00:00:00	2024-11-08T09:00:00	1	Precipitación	0
78852	7	Sololá	710	Panajachel	8	Panajachel	12	Diciembre	2023-12-19T00:00:00	2024-11-08T09:00:00	8	Radiación solar	421
78853	7	Sololá	710	Panajachel	8	Panajachel	12	Diciembre	2023-12-19T00:00:00	2024-11-08T10:00:00	2	Temperatura media	22.2
78854	7	Sololá	710	Panajachel	8	Panajachel	12	Diciembre	2023-12-19T00:00:00	2024-11-08T10:00:00	4	Temperatura máxima	22.2
78855	7	Sololá	710	Panajachel	8	Panajachel	12	Diciembre	2023-12-19T00:00:00	2024-11-08T10:00:00	3	Temperatura mínima	18.6
78856	7	Sololá	710	Panajachel	8	Panajachel	12	Diciembre	2023-12-19T00:00:00	2024-11-08T10:00:00	5	Humedad	14
78857	7	Sololá	710	Panajachel	8	Panajachel	12	Diciembre	2023-12-19T00:00:00	2024-11-08T10:00:00	6	Velocidad del viento	6.4
78858	7	Sololá	710	Panajachel	8	Panajachel	12	Diciembre	2023-12-19T00:00:00	2024-11-08T10:00:00	7	Dirección del viento	6.44
78859	7	Sololá	710	Panajachel	8	Panajachel	12	Diciembre	2023-12-19T00:00:00	2024-11-08T10:00:00	1	Precipitación	0
78860	7	Sololá	710	Panajachel	8	Panajachel	12	Diciembre	2023-12-19T00:00:00	2024-11-08T10:00:00	8	Radiación solar	609
78861	7	Sololá	710	Panajachel	8	Panajachel	12	Diciembre	2023-12-19T00:00:00	2024-11-08T11:00:00	2	Temperatura media	23.4
78862	7	Sololá	710	Panajachel	8	Panajachel	12	Diciembre	2023-12-19T00:00:00	2024-11-08T11:00:00	4	Temperatura máxima	23.8
78863	7	Sololá	710	Panajachel	8	Panajachel	12	Diciembre	2023-12-19T00:00:00	2024-11-08T11:00:00	3	Temperatura mínima	22.2
78864	7	Sololá	710	Panajachel	8	Panajachel	12	Diciembre	2023-12-19T00:00:00	2024-11-08T11:00:00	5	Humedad	15
78865	7	Sololá	710	Panajachel	8	Panajachel	12	Diciembre	2023-12-19T00:00:00	2024-11-08T11:00:00	6	Velocidad del viento	6.4
78866	7	Sololá	710	Panajachel	8	Panajachel	12	Diciembre	2023-12-19T00:00:00	2024-11-08T11:00:00	7	Dirección del viento	6.44
78867	7	Sololá	710	Panajachel	8	Panajachel	12	Diciembre	2023-12-19T00:00:00	2024-11-08T11:00:00	1	Precipitación	0
78868	7	Sololá	710	Panajachel	8	Panajachel	12	Diciembre	2023-12-19T00:00:00	2024-11-08T11:00:00	8	Radiación solar	743
78869	7	Sololá	710	Panajachel	8	Panajachel	12	Diciembre	2023-12-19T00:00:00	2024-11-08T12:00:00	2	Temperatura media	23.8
78870	7	Sololá	710	Panajachel	8	Panajachel	12	Diciembre	2023-12-19T00:00:00	2024-11-08T12:00:00	4	Temperatura máxima	24
78871	7	Sololá	710	Panajachel	8	Panajachel	12	Diciembre	2023-12-19T00:00:00	2024-11-08T12:00:00	3	Temperatura mínima	23.2
78872	7	Sololá	710	Panajachel	8	Panajachel	12	Diciembre	2023-12-19T00:00:00	2024-11-08T12:00:00	5	Humedad	19
78873	7	Sololá	710	Panajachel	8	Panajachel	12	Diciembre	2023-12-19T00:00:00	2024-11-08T12:00:00	6	Velocidad del viento	12.9
78874	7	Sololá	710	Panajachel	8	Panajachel	12	Diciembre	2023-12-19T00:00:00	2024-11-08T12:00:00	7	Dirección del viento	12.87
78875	7	Sololá	710	Panajachel	8	Panajachel	12	Diciembre	2023-12-19T00:00:00	2024-11-08T12:00:00	1	Precipitación	0
78876	7	Sololá	710	Panajachel	8	Panajachel	12	Diciembre	2023-12-19T00:00:00	2024-11-08T12:00:00	8	Radiación solar	811
78877	7	Sololá	710	Panajachel	8	Panajachel	12	Diciembre	2023-12-19T00:00:00	2024-11-08T13:00:00	2	Temperatura media	23.9
78878	7	Sololá	710	Panajachel	8	Panajachel	12	Diciembre	2023-12-19T00:00:00	2024-11-08T13:00:00	4	Temperatura máxima	24.4
78879	7	Sololá	710	Panajachel	8	Panajachel	12	Diciembre	2023-12-19T00:00:00	2024-11-08T13:00:00	3	Temperatura mínima	23.7
78880	7	Sololá	710	Panajachel	8	Panajachel	12	Diciembre	2023-12-19T00:00:00	2024-11-08T13:00:00	5	Humedad	26
78881	7	Sololá	710	Panajachel	8	Panajachel	12	Diciembre	2023-12-19T00:00:00	2024-11-08T13:00:00	6	Velocidad del viento	9.7
78882	7	Sololá	710	Panajachel	8	Panajachel	12	Diciembre	2023-12-19T00:00:00	2024-11-08T13:00:00	7	Dirección del viento	9.66
78883	7	Sololá	710	Panajachel	8	Panajachel	12	Diciembre	2023-12-19T00:00:00	2024-11-08T13:00:00	1	Precipitación	0
78884	7	Sololá	710	Panajachel	8	Panajachel	12	Diciembre	2023-12-19T00:00:00	2024-11-08T13:00:00	8	Radiación solar	803
78885	7	Sololá	710	Panajachel	8	Panajachel	12	Diciembre	2023-12-19T00:00:00	2024-11-08T14:00:00	2	Temperatura media	25.2
78886	7	Sololá	710	Panajachel	8	Panajachel	12	Diciembre	2023-12-19T00:00:00	2024-11-08T14:00:00	4	Temperatura máxima	25.2
78887	7	Sololá	710	Panajachel	8	Panajachel	12	Diciembre	2023-12-19T00:00:00	2024-11-08T14:00:00	3	Temperatura mínima	23.9
78888	7	Sololá	710	Panajachel	8	Panajachel	12	Diciembre	2023-12-19T00:00:00	2024-11-08T14:00:00	5	Humedad	24
78889	7	Sololá	710	Panajachel	8	Panajachel	12	Diciembre	2023-12-19T00:00:00	2024-11-08T14:00:00	6	Velocidad del viento	6.4
78890	7	Sololá	710	Panajachel	8	Panajachel	12	Diciembre	2023-12-19T00:00:00	2024-11-08T14:00:00	7	Dirección del viento	6.44
78891	7	Sololá	710	Panajachel	8	Panajachel	12	Diciembre	2023-12-19T00:00:00	2024-11-08T14:00:00	1	Precipitación	0
78892	7	Sololá	710	Panajachel	8	Panajachel	12	Diciembre	2023-12-19T00:00:00	2024-11-08T14:00:00	8	Radiación solar	732
78893	7	Sololá	710	Panajachel	8	Panajachel	12	Diciembre	2023-12-19T00:00:00	2024-11-08T15:00:00	2	Temperatura media	23.8
78894	7	Sololá	710	Panajachel	8	Panajachel	12	Diciembre	2023-12-19T00:00:00	2024-11-08T15:00:00	4	Temperatura máxima	25.3
78895	7	Sololá	710	Panajachel	8	Panajachel	12	Diciembre	2023-12-19T00:00:00	2024-11-08T15:00:00	3	Temperatura mínima	23.8
78896	7	Sololá	710	Panajachel	8	Panajachel	12	Diciembre	2023-12-19T00:00:00	2024-11-08T15:00:00	5	Humedad	53
78897	7	Sololá	710	Panajachel	8	Panajachel	12	Diciembre	2023-12-19T00:00:00	2024-11-08T15:00:00	6	Velocidad del viento	4.8
78898	7	Sololá	710	Panajachel	8	Panajachel	12	Diciembre	2023-12-19T00:00:00	2024-11-08T15:00:00	7	Dirección del viento	4.83
78899	7	Sololá	710	Panajachel	8	Panajachel	12	Diciembre	2023-12-19T00:00:00	2024-11-08T15:00:00	1	Precipitación	0
78900	7	Sololá	710	Panajachel	8	Panajachel	12	Diciembre	2023-12-19T00:00:00	2024-11-08T15:00:00	8	Radiación solar	588
78901	7	Sololá	710	Panajachel	8	Panajachel	12	Diciembre	2023-12-19T00:00:00	2024-11-08T16:00:00	2	Temperatura media	22.8
78902	7	Sololá	710	Panajachel	8	Panajachel	12	Diciembre	2023-12-19T00:00:00	2024-11-08T16:00:00	4	Temperatura máxima	24.2
78903	7	Sololá	710	Panajachel	8	Panajachel	12	Diciembre	2023-12-19T00:00:00	2024-11-08T16:00:00	3	Temperatura mínima	22.8
78904	7	Sololá	710	Panajachel	8	Panajachel	12	Diciembre	2023-12-19T00:00:00	2024-11-08T16:00:00	5	Humedad	55
78905	7	Sololá	710	Panajachel	8	Panajachel	12	Diciembre	2023-12-19T00:00:00	2024-11-08T16:00:00	6	Velocidad del viento	4.8
78906	7	Sololá	710	Panajachel	8	Panajachel	12	Diciembre	2023-12-19T00:00:00	2024-11-08T16:00:00	7	Dirección del viento	4.83
78907	7	Sololá	710	Panajachel	8	Panajachel	12	Diciembre	2023-12-19T00:00:00	2024-11-08T16:00:00	1	Precipitación	0
78908	7	Sololá	710	Panajachel	8	Panajachel	12	Diciembre	2023-12-19T00:00:00	2024-11-08T16:00:00	8	Radiación solar	402
78909	7	Sololá	710	Panajachel	8	Panajachel	12	Diciembre	2023-12-19T00:00:00	2024-11-08T17:00:00	2	Temperatura media	20.5
78910	7	Sololá	710	Panajachel	8	Panajachel	12	Diciembre	2023-12-19T00:00:00	2024-11-08T17:00:00	4	Temperatura máxima	23
78911	7	Sololá	710	Panajachel	8	Panajachel	12	Diciembre	2023-12-19T00:00:00	2024-11-08T17:00:00	3	Temperatura mínima	20.5
78912	7	Sololá	710	Panajachel	8	Panajachel	12	Diciembre	2023-12-19T00:00:00	2024-11-08T17:00:00	5	Humedad	46
78913	7	Sololá	710	Panajachel	8	Panajachel	12	Diciembre	2023-12-19T00:00:00	2024-11-08T17:00:00	6	Velocidad del viento	6.4
78914	7	Sololá	710	Panajachel	8	Panajachel	12	Diciembre	2023-12-19T00:00:00	2024-11-08T17:00:00	7	Dirección del viento	6.44
78915	7	Sololá	710	Panajachel	8	Panajachel	12	Diciembre	2023-12-19T00:00:00	2024-11-08T17:00:00	1	Precipitación	0
78916	7	Sololá	710	Panajachel	8	Panajachel	12	Diciembre	2023-12-19T00:00:00	2024-11-08T17:00:00	8	Radiación solar	190
78917	7	Sololá	710	Panajachel	8	Panajachel	12	Diciembre	2023-12-19T00:00:00	2024-11-08T18:00:00	2	Temperatura media	17.2
78918	7	Sololá	710	Panajachel	8	Panajachel	12	Diciembre	2023-12-19T00:00:00	2024-11-08T18:00:00	4	Temperatura máxima	20.5
78919	7	Sololá	710	Panajachel	8	Panajachel	12	Diciembre	2023-12-19T00:00:00	2024-11-08T18:00:00	3	Temperatura mínima	17.2
78920	7	Sololá	710	Panajachel	8	Panajachel	12	Diciembre	2023-12-19T00:00:00	2024-11-08T18:00:00	5	Humedad	55
78921	7	Sololá	710	Panajachel	8	Panajachel	12	Diciembre	2023-12-19T00:00:00	2024-11-08T18:00:00	6	Velocidad del viento	9.7
78922	7	Sololá	710	Panajachel	8	Panajachel	12	Diciembre	2023-12-19T00:00:00	2024-11-08T18:00:00	7	Dirección del viento	9.66
78923	7	Sololá	710	Panajachel	8	Panajachel	12	Diciembre	2023-12-19T00:00:00	2024-11-08T18:00:00	1	Precipitación	0
78924	7	Sololá	710	Panajachel	8	Panajachel	12	Diciembre	2023-12-19T00:00:00	2024-11-08T18:00:00	8	Radiación solar	16
78925	7	Sololá	710	Panajachel	8	Panajachel	12	Diciembre	2023-12-19T00:00:00	2024-11-08T19:00:00	2	Temperatura media	15.4
78926	7	Sololá	710	Panajachel	8	Panajachel	12	Diciembre	2023-12-19T00:00:00	2024-11-08T19:00:00	4	Temperatura máxima	17.2
78927	7	Sololá	710	Panajachel	8	Panajachel	12	Diciembre	2023-12-19T00:00:00	2024-11-08T19:00:00	3	Temperatura mínima	15.4
78928	7	Sololá	710	Panajachel	8	Panajachel	12	Diciembre	2023-12-19T00:00:00	2024-11-08T19:00:00	5	Humedad	60
78929	7	Sololá	710	Panajachel	8	Panajachel	12	Diciembre	2023-12-19T00:00:00	2024-11-08T19:00:00	6	Velocidad del viento	12.9
78930	7	Sololá	710	Panajachel	8	Panajachel	12	Diciembre	2023-12-19T00:00:00	2024-11-08T19:00:00	7	Dirección del viento	12.87
78931	7	Sololá	710	Panajachel	8	Panajachel	12	Diciembre	2023-12-19T00:00:00	2024-11-08T19:00:00	1	Precipitación	0
78932	7	Sololá	710	Panajachel	8	Panajachel	12	Diciembre	2023-12-19T00:00:00	2024-11-08T19:00:00	8	Radiación solar	0
78933	7	Sololá	710	Panajachel	8	Panajachel	12	Diciembre	2023-12-19T00:00:00	2024-11-08T20:00:00	2	Temperatura media	14.7
78934	7	Sololá	710	Panajachel	8	Panajachel	12	Diciembre	2023-12-19T00:00:00	2024-11-08T20:00:00	4	Temperatura máxima	15.5
78935	7	Sololá	710	Panajachel	8	Panajachel	12	Diciembre	2023-12-19T00:00:00	2024-11-08T20:00:00	3	Temperatura mínima	14.7
78936	7	Sololá	710	Panajachel	8	Panajachel	12	Diciembre	2023-12-19T00:00:00	2024-11-08T20:00:00	5	Humedad	60
78937	7	Sololá	710	Panajachel	8	Panajachel	12	Diciembre	2023-12-19T00:00:00	2024-11-08T20:00:00	6	Velocidad del viento	11.3
78938	7	Sololá	710	Panajachel	8	Panajachel	12	Diciembre	2023-12-19T00:00:00	2024-11-08T20:00:00	7	Dirección del viento	11.27
78939	7	Sololá	710	Panajachel	8	Panajachel	12	Diciembre	2023-12-19T00:00:00	2024-11-08T20:00:00	1	Precipitación	0
78940	7	Sololá	710	Panajachel	8	Panajachel	12	Diciembre	2023-12-19T00:00:00	2024-11-08T20:00:00	8	Radiación solar	0
78941	7	Sololá	710	Panajachel	8	Panajachel	12	Diciembre	2023-12-19T00:00:00	2024-11-08T21:00:00	2	Temperatura media	14.1
78942	7	Sololá	710	Panajachel	8	Panajachel	12	Diciembre	2023-12-19T00:00:00	2024-11-08T21:00:00	4	Temperatura máxima	14.7
78943	7	Sololá	710	Panajachel	8	Panajachel	12	Diciembre	2023-12-19T00:00:00	2024-11-08T21:00:00	3	Temperatura mínima	13.8
78944	7	Sololá	710	Panajachel	8	Panajachel	12	Diciembre	2023-12-19T00:00:00	2024-11-08T21:00:00	5	Humedad	58
78945	7	Sololá	710	Panajachel	8	Panajachel	12	Diciembre	2023-12-19T00:00:00	2024-11-08T21:00:00	6	Velocidad del viento	9.7
78946	7	Sololá	710	Panajachel	8	Panajachel	12	Diciembre	2023-12-19T00:00:00	2024-11-08T21:00:00	7	Dirección del viento	9.66
78947	7	Sololá	710	Panajachel	8	Panajachel	12	Diciembre	2023-12-19T00:00:00	2024-11-08T21:00:00	1	Precipitación	0
78948	7	Sololá	710	Panajachel	8	Panajachel	12	Diciembre	2023-12-19T00:00:00	2024-11-08T21:00:00	8	Radiación solar	0
78949	7	Sololá	710	Panajachel	8	Panajachel	12	Diciembre	2023-12-19T00:00:00	2024-11-08T22:00:00	2	Temperatura media	13.9
78950	7	Sololá	710	Panajachel	8	Panajachel	12	Diciembre	2023-12-19T00:00:00	2024-11-08T22:00:00	4	Temperatura máxima	14.4
78951	7	Sololá	710	Panajachel	8	Panajachel	12	Diciembre	2023-12-19T00:00:00	2024-11-08T22:00:00	3	Temperatura mínima	13.9
78952	7	Sololá	710	Panajachel	8	Panajachel	12	Diciembre	2023-12-19T00:00:00	2024-11-08T22:00:00	5	Humedad	55
78953	7	Sololá	710	Panajachel	8	Panajachel	12	Diciembre	2023-12-19T00:00:00	2024-11-08T22:00:00	6	Velocidad del viento	8
78954	7	Sololá	710	Panajachel	8	Panajachel	12	Diciembre	2023-12-19T00:00:00	2024-11-08T22:00:00	7	Dirección del viento	8.05
78955	7	Sololá	710	Panajachel	8	Panajachel	12	Diciembre	2023-12-19T00:00:00	2024-11-08T22:00:00	1	Precipitación	0
78956	7	Sololá	710	Panajachel	8	Panajachel	12	Diciembre	2023-12-19T00:00:00	2024-11-08T22:00:00	8	Radiación solar	0
78957	7	Sololá	710	Panajachel	8	Panajachel	12	Diciembre	2023-12-19T00:00:00	2024-11-08T23:00:00	2	Temperatura media	12.6
78958	7	Sololá	710	Panajachel	8	Panajachel	12	Diciembre	2023-12-19T00:00:00	2024-11-08T23:00:00	4	Temperatura máxima	13.9
78959	7	Sololá	710	Panajachel	8	Panajachel	12	Diciembre	2023-12-19T00:00:00	2024-11-08T23:00:00	3	Temperatura mínima	12.6
78960	7	Sololá	710	Panajachel	8	Panajachel	12	Diciembre	2023-12-19T00:00:00	2024-11-08T23:00:00	5	Humedad	59
78961	7	Sololá	710	Panajachel	8	Panajachel	12	Diciembre	2023-12-19T00:00:00	2024-11-08T23:00:00	6	Velocidad del viento	6.4
78962	7	Sololá	710	Panajachel	8	Panajachel	12	Diciembre	2023-12-19T00:00:00	2024-11-08T23:00:00	7	Dirección del viento	6.44
78963	7	Sololá	710	Panajachel	8	Panajachel	12	Diciembre	2023-12-19T00:00:00	2024-11-08T23:00:00	1	Precipitación	0
78964	7	Sololá	710	Panajachel	8	Panajachel	12	Diciembre	2023-12-19T00:00:00	2024-11-08T23:00:00	8	Radiación solar	0
78965	7	Sololá	710	Panajachel	8	Panajachel	12	Diciembre	2023-12-20T00:00:00	2024-11-08T00:00:00	2	Temperatura media	12.7
78966	7	Sololá	710	Panajachel	8	Panajachel	12	Diciembre	2023-12-20T00:00:00	2024-11-08T00:00:00	4	Temperatura máxima	13
78967	7	Sololá	710	Panajachel	8	Panajachel	12	Diciembre	2023-12-20T00:00:00	2024-11-08T00:00:00	3	Temperatura mínima	12.6
78968	7	Sololá	710	Panajachel	8	Panajachel	12	Diciembre	2023-12-20T00:00:00	2024-11-08T00:00:00	5	Humedad	55
78969	7	Sololá	710	Panajachel	8	Panajachel	12	Diciembre	2023-12-20T00:00:00	2024-11-08T00:00:00	6	Velocidad del viento	6.4
78970	7	Sololá	710	Panajachel	8	Panajachel	12	Diciembre	2023-12-20T00:00:00	2024-11-08T00:00:00	7	Dirección del viento	6.44
78971	7	Sololá	710	Panajachel	8	Panajachel	12	Diciembre	2023-12-20T00:00:00	2024-11-08T00:00:00	1	Precipitación	0
78972	7	Sololá	710	Panajachel	8	Panajachel	12	Diciembre	2023-12-20T00:00:00	2024-11-08T00:00:00	8	Radiación solar	0
78973	7	Sololá	710	Panajachel	8	Panajachel	12	Diciembre	2023-12-20T00:00:00	2024-11-08T01:00:00	2	Temperatura media	12
78974	7	Sololá	710	Panajachel	8	Panajachel	12	Diciembre	2023-12-20T00:00:00	2024-11-08T01:00:00	4	Temperatura máxima	12.7
78975	7	Sololá	710	Panajachel	8	Panajachel	12	Diciembre	2023-12-20T00:00:00	2024-11-08T01:00:00	3	Temperatura mínima	12
78976	7	Sololá	710	Panajachel	8	Panajachel	12	Diciembre	2023-12-20T00:00:00	2024-11-08T01:00:00	5	Humedad	56
78977	7	Sololá	710	Panajachel	8	Panajachel	12	Diciembre	2023-12-20T00:00:00	2024-11-08T01:00:00	6	Velocidad del viento	8
78978	7	Sololá	710	Panajachel	8	Panajachel	12	Diciembre	2023-12-20T00:00:00	2024-11-08T01:00:00	7	Dirección del viento	8.05
78979	7	Sololá	710	Panajachel	8	Panajachel	12	Diciembre	2023-12-20T00:00:00	2024-11-08T01:00:00	1	Precipitación	0
78980	7	Sololá	710	Panajachel	8	Panajachel	12	Diciembre	2023-12-20T00:00:00	2024-11-08T01:00:00	8	Radiación solar	0
78981	7	Sololá	710	Panajachel	8	Panajachel	12	Diciembre	2023-12-20T00:00:00	2024-11-08T02:00:00	2	Temperatura media	11.8
78982	7	Sololá	710	Panajachel	8	Panajachel	12	Diciembre	2023-12-20T00:00:00	2024-11-08T02:00:00	4	Temperatura máxima	12.1
78983	7	Sololá	710	Panajachel	8	Panajachel	12	Diciembre	2023-12-20T00:00:00	2024-11-08T02:00:00	3	Temperatura mínima	11.8
78984	7	Sololá	710	Panajachel	8	Panajachel	12	Diciembre	2023-12-20T00:00:00	2024-11-08T02:00:00	5	Humedad	55
78985	7	Sololá	710	Panajachel	8	Panajachel	12	Diciembre	2023-12-20T00:00:00	2024-11-08T02:00:00	6	Velocidad del viento	6.4
78986	7	Sololá	710	Panajachel	8	Panajachel	12	Diciembre	2023-12-20T00:00:00	2024-11-08T02:00:00	7	Dirección del viento	6.44
78987	7	Sololá	710	Panajachel	8	Panajachel	12	Diciembre	2023-12-20T00:00:00	2024-11-08T02:00:00	1	Precipitación	0
78988	7	Sololá	710	Panajachel	8	Panajachel	12	Diciembre	2023-12-20T00:00:00	2024-11-08T02:00:00	8	Radiación solar	0
78989	7	Sololá	710	Panajachel	8	Panajachel	12	Diciembre	2023-12-20T00:00:00	2024-11-08T03:00:00	2	Temperatura media	11.1
78990	7	Sololá	710	Panajachel	8	Panajachel	12	Diciembre	2023-12-20T00:00:00	2024-11-08T03:00:00	4	Temperatura máxima	11.8
78991	7	Sololá	710	Panajachel	8	Panajachel	12	Diciembre	2023-12-20T00:00:00	2024-11-08T03:00:00	3	Temperatura mínima	11.1
78992	7	Sololá	710	Panajachel	8	Panajachel	12	Diciembre	2023-12-20T00:00:00	2024-11-08T03:00:00	5	Humedad	55
78993	7	Sololá	710	Panajachel	8	Panajachel	12	Diciembre	2023-12-20T00:00:00	2024-11-08T03:00:00	6	Velocidad del viento	4.8
78994	7	Sololá	710	Panajachel	8	Panajachel	12	Diciembre	2023-12-20T00:00:00	2024-11-08T03:00:00	7	Dirección del viento	4.83
78995	7	Sololá	710	Panajachel	8	Panajachel	12	Diciembre	2023-12-20T00:00:00	2024-11-08T03:00:00	1	Precipitación	0
78996	7	Sololá	710	Panajachel	8	Panajachel	12	Diciembre	2023-12-20T00:00:00	2024-11-08T03:00:00	8	Radiación solar	0
78997	7	Sololá	710	Panajachel	8	Panajachel	12	Diciembre	2023-12-20T00:00:00	2024-11-08T04:00:00	2	Temperatura media	11.1
78998	7	Sololá	710	Panajachel	8	Panajachel	12	Diciembre	2023-12-20T00:00:00	2024-11-08T04:00:00	4	Temperatura máxima	11.2
78999	7	Sololá	710	Panajachel	8	Panajachel	12	Diciembre	2023-12-20T00:00:00	2024-11-08T04:00:00	3	Temperatura mínima	10.8
79000	7	Sololá	710	Panajachel	8	Panajachel	12	Diciembre	2023-12-20T00:00:00	2024-11-08T04:00:00	5	Humedad	53
79001	7	Sololá	710	Panajachel	8	Panajachel	12	Diciembre	2023-12-20T00:00:00	2024-11-08T04:00:00	6	Velocidad del viento	3.2
79002	7	Sololá	710	Panajachel	8	Panajachel	12	Diciembre	2023-12-20T00:00:00	2024-11-08T04:00:00	7	Dirección del viento	3.22
79003	7	Sololá	710	Panajachel	8	Panajachel	12	Diciembre	2023-12-20T00:00:00	2024-11-08T04:00:00	1	Precipitación	0
79004	7	Sololá	710	Panajachel	8	Panajachel	12	Diciembre	2023-12-20T00:00:00	2024-11-08T04:00:00	8	Radiación solar	0
79005	7	Sololá	710	Panajachel	8	Panajachel	12	Diciembre	2023-12-20T00:00:00	2024-11-08T05:00:00	2	Temperatura media	9.8
79006	7	Sololá	710	Panajachel	8	Panajachel	12	Diciembre	2023-12-20T00:00:00	2024-11-08T05:00:00	4	Temperatura máxima	11.1
79007	7	Sololá	710	Panajachel	8	Panajachel	12	Diciembre	2023-12-20T00:00:00	2024-11-08T05:00:00	3	Temperatura mínima	9.7
79008	7	Sololá	710	Panajachel	8	Panajachel	12	Diciembre	2023-12-20T00:00:00	2024-11-08T05:00:00	5	Humedad	57
79009	7	Sololá	710	Panajachel	8	Panajachel	12	Diciembre	2023-12-20T00:00:00	2024-11-08T05:00:00	6	Velocidad del viento	6.4
79010	7	Sololá	710	Panajachel	8	Panajachel	12	Diciembre	2023-12-20T00:00:00	2024-11-08T05:00:00	7	Dirección del viento	6.44
79011	7	Sololá	710	Panajachel	8	Panajachel	12	Diciembre	2023-12-20T00:00:00	2024-11-08T05:00:00	1	Precipitación	0
79012	7	Sololá	710	Panajachel	8	Panajachel	12	Diciembre	2023-12-20T00:00:00	2024-11-08T05:00:00	8	Radiación solar	0
79013	7	Sololá	710	Panajachel	8	Panajachel	12	Diciembre	2023-12-20T00:00:00	2024-11-08T06:00:00	2	Temperatura media	9.7
79014	7	Sololá	710	Panajachel	8	Panajachel	12	Diciembre	2023-12-20T00:00:00	2024-11-08T06:00:00	4	Temperatura máxima	10.2
79015	7	Sololá	710	Panajachel	8	Panajachel	12	Diciembre	2023-12-20T00:00:00	2024-11-08T06:00:00	3	Temperatura mínima	9.6
79016	7	Sololá	710	Panajachel	8	Panajachel	12	Diciembre	2023-12-20T00:00:00	2024-11-08T06:00:00	5	Humedad	57
79017	7	Sololá	710	Panajachel	8	Panajachel	12	Diciembre	2023-12-20T00:00:00	2024-11-08T06:00:00	6	Velocidad del viento	6.4
79018	7	Sololá	710	Panajachel	8	Panajachel	12	Diciembre	2023-12-20T00:00:00	2024-11-08T06:00:00	7	Dirección del viento	6.44
79019	7	Sololá	710	Panajachel	8	Panajachel	12	Diciembre	2023-12-20T00:00:00	2024-11-08T06:00:00	1	Precipitación	0
79020	7	Sololá	710	Panajachel	8	Panajachel	12	Diciembre	2023-12-20T00:00:00	2024-11-08T06:00:00	8	Radiación solar	0
79021	7	Sololá	710	Panajachel	8	Panajachel	12	Diciembre	2023-12-20T00:00:00	2024-11-08T07:00:00	2	Temperatura media	10.3
79022	7	Sololá	710	Panajachel	8	Panajachel	12	Diciembre	2023-12-20T00:00:00	2024-11-08T07:00:00	4	Temperatura máxima	10.3
79023	7	Sololá	710	Panajachel	8	Panajachel	12	Diciembre	2023-12-20T00:00:00	2024-11-08T07:00:00	3	Temperatura mínima	9.7
79024	7	Sololá	710	Panajachel	8	Panajachel	12	Diciembre	2023-12-20T00:00:00	2024-11-08T07:00:00	5	Humedad	55
79025	7	Sololá	710	Panajachel	8	Panajachel	12	Diciembre	2023-12-20T00:00:00	2024-11-08T07:00:00	6	Velocidad del viento	6.4
79026	7	Sololá	710	Panajachel	8	Panajachel	12	Diciembre	2023-12-20T00:00:00	2024-11-08T07:00:00	7	Dirección del viento	6.44
79027	7	Sololá	710	Panajachel	8	Panajachel	12	Diciembre	2023-12-20T00:00:00	2024-11-08T07:00:00	1	Precipitación	0
79028	7	Sololá	710	Panajachel	8	Panajachel	12	Diciembre	2023-12-20T00:00:00	2024-11-08T07:00:00	8	Radiación solar	7
79029	7	Sololá	710	Panajachel	8	Panajachel	12	Diciembre	2023-12-20T00:00:00	2024-11-08T08:00:00	2	Temperatura media	13.6
79030	7	Sololá	710	Panajachel	8	Panajachel	12	Diciembre	2023-12-20T00:00:00	2024-11-08T08:00:00	4	Temperatura máxima	13.6
79031	7	Sololá	710	Panajachel	8	Panajachel	12	Diciembre	2023-12-20T00:00:00	2024-11-08T08:00:00	3	Temperatura mínima	10.2
79032	7	Sololá	710	Panajachel	8	Panajachel	12	Diciembre	2023-12-20T00:00:00	2024-11-08T08:00:00	5	Humedad	55
79033	7	Sololá	710	Panajachel	8	Panajachel	12	Diciembre	2023-12-20T00:00:00	2024-11-08T08:00:00	6	Velocidad del viento	4.8
79034	7	Sololá	710	Panajachel	8	Panajachel	12	Diciembre	2023-12-20T00:00:00	2024-11-08T08:00:00	7	Dirección del viento	4.83
79035	7	Sololá	710	Panajachel	8	Panajachel	12	Diciembre	2023-12-20T00:00:00	2024-11-08T08:00:00	1	Precipitación	0
79036	7	Sololá	710	Panajachel	8	Panajachel	12	Diciembre	2023-12-20T00:00:00	2024-11-08T08:00:00	8	Radiación solar	172
79037	7	Sololá	710	Panajachel	8	Panajachel	12	Diciembre	2023-12-20T00:00:00	2024-11-08T09:00:00	2	Temperatura media	15.5
79038	7	Sololá	710	Panajachel	8	Panajachel	12	Diciembre	2023-12-20T00:00:00	2024-11-08T09:00:00	4	Temperatura máxima	15.5
79039	7	Sololá	710	Panajachel	8	Panajachel	12	Diciembre	2023-12-20T00:00:00	2024-11-08T09:00:00	3	Temperatura mínima	13.6
79040	7	Sololá	710	Panajachel	8	Panajachel	12	Diciembre	2023-12-20T00:00:00	2024-11-08T09:00:00	5	Humedad	58
79041	7	Sololá	710	Panajachel	8	Panajachel	12	Diciembre	2023-12-20T00:00:00	2024-11-08T09:00:00	6	Velocidad del viento	1.6
79042	7	Sololá	710	Panajachel	8	Panajachel	12	Diciembre	2023-12-20T00:00:00	2024-11-08T09:00:00	7	Dirección del viento	1.61
79043	7	Sololá	710	Panajachel	8	Panajachel	12	Diciembre	2023-12-20T00:00:00	2024-11-08T09:00:00	1	Precipitación	0
79044	7	Sololá	710	Panajachel	8	Panajachel	12	Diciembre	2023-12-20T00:00:00	2024-11-08T09:00:00	8	Radiación solar	395
79045	7	Sololá	710	Panajachel	8	Panajachel	12	Diciembre	2023-12-20T00:00:00	2024-11-08T10:00:00	2	Temperatura media	17
79046	7	Sololá	710	Panajachel	8	Panajachel	12	Diciembre	2023-12-20T00:00:00	2024-11-08T10:00:00	4	Temperatura máxima	17.1
79047	7	Sololá	710	Panajachel	8	Panajachel	12	Diciembre	2023-12-20T00:00:00	2024-11-08T10:00:00	3	Temperatura mínima	15.3
79048	7	Sololá	710	Panajachel	8	Panajachel	12	Diciembre	2023-12-20T00:00:00	2024-11-08T10:00:00	5	Humedad	61
79049	7	Sololá	710	Panajachel	8	Panajachel	12	Diciembre	2023-12-20T00:00:00	2024-11-08T10:00:00	6	Velocidad del viento	3.2
79050	7	Sololá	710	Panajachel	8	Panajachel	12	Diciembre	2023-12-20T00:00:00	2024-11-08T10:00:00	7	Dirección del viento	3.22
79051	7	Sololá	710	Panajachel	8	Panajachel	12	Diciembre	2023-12-20T00:00:00	2024-11-08T10:00:00	1	Precipitación	0
79052	7	Sololá	710	Panajachel	8	Panajachel	12	Diciembre	2023-12-20T00:00:00	2024-11-08T10:00:00	8	Radiación solar	580
79053	7	Sololá	710	Panajachel	8	Panajachel	12	Diciembre	2023-12-20T00:00:00	2024-11-08T11:00:00	2	Temperatura media	18.7
79054	7	Sololá	710	Panajachel	8	Panajachel	12	Diciembre	2023-12-20T00:00:00	2024-11-08T11:00:00	4	Temperatura máxima	18.7
79055	7	Sololá	710	Panajachel	8	Panajachel	12	Diciembre	2023-12-20T00:00:00	2024-11-08T11:00:00	3	Temperatura mínima	16.7
79056	7	Sololá	710	Panajachel	8	Panajachel	12	Diciembre	2023-12-20T00:00:00	2024-11-08T11:00:00	5	Humedad	58
79057	7	Sololá	710	Panajachel	8	Panajachel	12	Diciembre	2023-12-20T00:00:00	2024-11-08T11:00:00	6	Velocidad del viento	3.2
79058	7	Sololá	710	Panajachel	8	Panajachel	12	Diciembre	2023-12-20T00:00:00	2024-11-08T11:00:00	7	Dirección del viento	3.22
79059	7	Sololá	710	Panajachel	8	Panajachel	12	Diciembre	2023-12-20T00:00:00	2024-11-08T11:00:00	1	Precipitación	0
79060	7	Sololá	710	Panajachel	8	Panajachel	12	Diciembre	2023-12-20T00:00:00	2024-11-08T11:00:00	8	Radiación solar	717
79061	7	Sololá	710	Panajachel	8	Panajachel	12	Diciembre	2023-12-20T00:00:00	2024-11-08T12:00:00	2	Temperatura media	20.4
79062	7	Sololá	710	Panajachel	8	Panajachel	12	Diciembre	2023-12-20T00:00:00	2024-11-08T12:00:00	4	Temperatura máxima	20.4
79063	7	Sololá	710	Panajachel	8	Panajachel	12	Diciembre	2023-12-20T00:00:00	2024-11-08T12:00:00	3	Temperatura mínima	18.1
79064	7	Sololá	710	Panajachel	8	Panajachel	12	Diciembre	2023-12-20T00:00:00	2024-11-08T12:00:00	5	Humedad	56
79065	7	Sololá	710	Panajachel	8	Panajachel	12	Diciembre	2023-12-20T00:00:00	2024-11-08T12:00:00	6	Velocidad del viento	3.2
79066	7	Sololá	710	Panajachel	8	Panajachel	12	Diciembre	2023-12-20T00:00:00	2024-11-08T12:00:00	7	Dirección del viento	3.22
79067	7	Sololá	710	Panajachel	8	Panajachel	12	Diciembre	2023-12-20T00:00:00	2024-11-08T12:00:00	1	Precipitación	0
79068	7	Sololá	710	Panajachel	8	Panajachel	12	Diciembre	2023-12-20T00:00:00	2024-11-08T12:00:00	8	Radiación solar	778
79069	7	Sololá	710	Panajachel	8	Panajachel	12	Diciembre	2023-12-20T00:00:00	2024-11-08T13:00:00	2	Temperatura media	21.6
79070	7	Sololá	710	Panajachel	8	Panajachel	12	Diciembre	2023-12-20T00:00:00	2024-11-08T13:00:00	4	Temperatura máxima	21.6
79071	7	Sololá	710	Panajachel	8	Panajachel	12	Diciembre	2023-12-20T00:00:00	2024-11-08T13:00:00	3	Temperatura mínima	20.4
79072	7	Sololá	710	Panajachel	8	Panajachel	12	Diciembre	2023-12-20T00:00:00	2024-11-08T13:00:00	5	Humedad	55
79073	7	Sololá	710	Panajachel	8	Panajachel	12	Diciembre	2023-12-20T00:00:00	2024-11-08T13:00:00	6	Velocidad del viento	3.2
79074	7	Sololá	710	Panajachel	8	Panajachel	12	Diciembre	2023-12-20T00:00:00	2024-11-08T13:00:00	7	Dirección del viento	3.22
79075	7	Sololá	710	Panajachel	8	Panajachel	12	Diciembre	2023-12-20T00:00:00	2024-11-08T13:00:00	1	Precipitación	0
79076	7	Sololá	710	Panajachel	8	Panajachel	12	Diciembre	2023-12-20T00:00:00	2024-11-08T13:00:00	8	Radiación solar	772
79077	7	Sololá	710	Panajachel	8	Panajachel	12	Diciembre	2023-12-20T00:00:00	2024-11-08T14:00:00	2	Temperatura media	21.7
79078	7	Sololá	710	Panajachel	8	Panajachel	12	Diciembre	2023-12-20T00:00:00	2024-11-08T14:00:00	4	Temperatura máxima	21.7
79079	7	Sololá	710	Panajachel	8	Panajachel	12	Diciembre	2023-12-20T00:00:00	2024-11-08T14:00:00	3	Temperatura mínima	21
79080	7	Sololá	710	Panajachel	8	Panajachel	12	Diciembre	2023-12-20T00:00:00	2024-11-08T14:00:00	5	Humedad	62
79081	7	Sololá	710	Panajachel	8	Panajachel	12	Diciembre	2023-12-20T00:00:00	2024-11-08T14:00:00	6	Velocidad del viento	3.2
79082	7	Sololá	710	Panajachel	8	Panajachel	12	Diciembre	2023-12-20T00:00:00	2024-11-08T14:00:00	7	Dirección del viento	3.22
79083	7	Sololá	710	Panajachel	8	Panajachel	12	Diciembre	2023-12-20T00:00:00	2024-11-08T14:00:00	1	Precipitación	0
79084	7	Sololá	710	Panajachel	8	Panajachel	12	Diciembre	2023-12-20T00:00:00	2024-11-08T14:00:00	8	Radiación solar	697
79085	7	Sololá	710	Panajachel	8	Panajachel	12	Diciembre	2023-12-20T00:00:00	2024-11-08T15:00:00	2	Temperatura media	22.1
79086	7	Sololá	710	Panajachel	8	Panajachel	12	Diciembre	2023-12-20T00:00:00	2024-11-08T15:00:00	4	Temperatura máxima	22.6
79087	7	Sololá	710	Panajachel	8	Panajachel	12	Diciembre	2023-12-20T00:00:00	2024-11-08T15:00:00	3	Temperatura mínima	21.3
79088	7	Sololá	710	Panajachel	8	Panajachel	12	Diciembre	2023-12-20T00:00:00	2024-11-08T15:00:00	5	Humedad	65
79089	7	Sololá	710	Panajachel	8	Panajachel	12	Diciembre	2023-12-20T00:00:00	2024-11-08T15:00:00	6	Velocidad del viento	3.2
79090	7	Sololá	710	Panajachel	8	Panajachel	12	Diciembre	2023-12-20T00:00:00	2024-11-08T15:00:00	7	Dirección del viento	3.22
79091	7	Sololá	710	Panajachel	8	Panajachel	12	Diciembre	2023-12-20T00:00:00	2024-11-08T15:00:00	1	Precipitación	0
79092	7	Sololá	710	Panajachel	8	Panajachel	12	Diciembre	2023-12-20T00:00:00	2024-11-08T15:00:00	8	Radiación solar	563
79093	7	Sololá	710	Panajachel	8	Panajachel	12	Diciembre	2023-12-20T00:00:00	2024-11-08T16:00:00	2	Temperatura media	21.9
79094	7	Sololá	710	Panajachel	8	Panajachel	12	Diciembre	2023-12-20T00:00:00	2024-11-08T16:00:00	4	Temperatura máxima	23.2
79095	7	Sololá	710	Panajachel	8	Panajachel	12	Diciembre	2023-12-20T00:00:00	2024-11-08T16:00:00	3	Temperatura mínima	21.9
79096	7	Sololá	710	Panajachel	8	Panajachel	12	Diciembre	2023-12-20T00:00:00	2024-11-08T16:00:00	5	Humedad	68
79097	7	Sololá	710	Panajachel	8	Panajachel	12	Diciembre	2023-12-20T00:00:00	2024-11-08T16:00:00	6	Velocidad del viento	1.6
79098	7	Sololá	710	Panajachel	8	Panajachel	12	Diciembre	2023-12-20T00:00:00	2024-11-08T16:00:00	7	Dirección del viento	1.61
79099	7	Sololá	710	Panajachel	8	Panajachel	12	Diciembre	2023-12-20T00:00:00	2024-11-08T16:00:00	1	Precipitación	0
79100	7	Sololá	710	Panajachel	8	Panajachel	12	Diciembre	2023-12-20T00:00:00	2024-11-08T16:00:00	8	Radiación solar	389
79101	7	Sololá	710	Panajachel	8	Panajachel	12	Diciembre	2023-12-20T00:00:00	2024-11-08T17:00:00	2	Temperatura media	21.1
79102	7	Sololá	710	Panajachel	8	Panajachel	12	Diciembre	2023-12-20T00:00:00	2024-11-08T17:00:00	4	Temperatura máxima	22.4
79103	7	Sololá	710	Panajachel	8	Panajachel	12	Diciembre	2023-12-20T00:00:00	2024-11-08T17:00:00	3	Temperatura mínima	21.1
79104	7	Sololá	710	Panajachel	8	Panajachel	12	Diciembre	2023-12-20T00:00:00	2024-11-08T17:00:00	5	Humedad	77
79105	7	Sololá	710	Panajachel	8	Panajachel	12	Diciembre	2023-12-20T00:00:00	2024-11-08T17:00:00	6	Velocidad del viento	3.2
79106	7	Sololá	710	Panajachel	8	Panajachel	12	Diciembre	2023-12-20T00:00:00	2024-11-08T17:00:00	7	Dirección del viento	3.22
79107	7	Sololá	710	Panajachel	8	Panajachel	12	Diciembre	2023-12-20T00:00:00	2024-11-08T17:00:00	1	Precipitación	0
79108	7	Sololá	710	Panajachel	8	Panajachel	12	Diciembre	2023-12-20T00:00:00	2024-11-08T17:00:00	8	Radiación solar	186
79109	7	Sololá	710	Panajachel	8	Panajachel	12	Diciembre	2023-12-20T00:00:00	2024-11-08T18:00:00	2	Temperatura media	18.7
79110	7	Sololá	710	Panajachel	8	Panajachel	12	Diciembre	2023-12-20T00:00:00	2024-11-08T18:00:00	4	Temperatura máxima	21.2
79111	7	Sololá	710	Panajachel	8	Panajachel	12	Diciembre	2023-12-20T00:00:00	2024-11-08T18:00:00	3	Temperatura mínima	18.7
79112	7	Sololá	710	Panajachel	8	Panajachel	12	Diciembre	2023-12-20T00:00:00	2024-11-08T18:00:00	5	Humedad	83
79113	7	Sololá	710	Panajachel	8	Panajachel	12	Diciembre	2023-12-20T00:00:00	2024-11-08T18:00:00	6	Velocidad del viento	1.6
79114	7	Sololá	710	Panajachel	8	Panajachel	12	Diciembre	2023-12-20T00:00:00	2024-11-08T18:00:00	7	Dirección del viento	1.61
79115	7	Sololá	710	Panajachel	8	Panajachel	12	Diciembre	2023-12-20T00:00:00	2024-11-08T18:00:00	1	Precipitación	0
79116	7	Sololá	710	Panajachel	8	Panajachel	12	Diciembre	2023-12-20T00:00:00	2024-11-08T18:00:00	8	Radiación solar	19
79117	7	Sololá	710	Panajachel	8	Panajachel	12	Diciembre	2023-12-20T00:00:00	2024-11-08T19:00:00	2	Temperatura media	17.7
79118	7	Sololá	710	Panajachel	8	Panajachel	12	Diciembre	2023-12-20T00:00:00	2024-11-08T19:00:00	4	Temperatura máxima	18.7
79119	7	Sololá	710	Panajachel	8	Panajachel	12	Diciembre	2023-12-20T00:00:00	2024-11-08T19:00:00	3	Temperatura mínima	17.6
79120	7	Sololá	710	Panajachel	8	Panajachel	12	Diciembre	2023-12-20T00:00:00	2024-11-08T19:00:00	5	Humedad	57
79121	7	Sololá	710	Panajachel	8	Panajachel	12	Diciembre	2023-12-20T00:00:00	2024-11-08T19:00:00	6	Velocidad del viento	3.2
79122	7	Sololá	710	Panajachel	8	Panajachel	12	Diciembre	2023-12-20T00:00:00	2024-11-08T19:00:00	7	Dirección del viento	3.22
79123	7	Sololá	710	Panajachel	8	Panajachel	12	Diciembre	2023-12-20T00:00:00	2024-11-08T19:00:00	1	Precipitación	0
79124	7	Sololá	710	Panajachel	8	Panajachel	12	Diciembre	2023-12-20T00:00:00	2024-11-08T19:00:00	8	Radiación solar	0
79125	7	Sololá	710	Panajachel	8	Panajachel	12	Diciembre	2023-12-20T00:00:00	2024-11-08T20:00:00	2	Temperatura media	16.5
79126	7	Sololá	710	Panajachel	8	Panajachel	12	Diciembre	2023-12-20T00:00:00	2024-11-08T20:00:00	4	Temperatura máxima	17.7
79127	7	Sololá	710	Panajachel	8	Panajachel	12	Diciembre	2023-12-20T00:00:00	2024-11-08T20:00:00	3	Temperatura mínima	16.5
79128	7	Sololá	710	Panajachel	8	Panajachel	12	Diciembre	2023-12-20T00:00:00	2024-11-08T20:00:00	5	Humedad	61
79129	7	Sololá	710	Panajachel	8	Panajachel	12	Diciembre	2023-12-20T00:00:00	2024-11-08T20:00:00	6	Velocidad del viento	8
79130	7	Sololá	710	Panajachel	8	Panajachel	12	Diciembre	2023-12-20T00:00:00	2024-11-08T20:00:00	7	Dirección del viento	8.05
79131	7	Sololá	710	Panajachel	8	Panajachel	12	Diciembre	2023-12-20T00:00:00	2024-11-08T20:00:00	1	Precipitación	0
79132	7	Sololá	710	Panajachel	8	Panajachel	12	Diciembre	2023-12-20T00:00:00	2024-11-08T20:00:00	8	Radiación solar	0
79133	7	Sololá	710	Panajachel	8	Panajachel	12	Diciembre	2023-12-20T00:00:00	2024-11-08T21:00:00	2	Temperatura media	15.4
79134	7	Sololá	710	Panajachel	8	Panajachel	12	Diciembre	2023-12-20T00:00:00	2024-11-08T21:00:00	4	Temperatura máxima	16.5
79135	7	Sololá	710	Panajachel	8	Panajachel	12	Diciembre	2023-12-20T00:00:00	2024-11-08T21:00:00	3	Temperatura mínima	15.4
79136	7	Sololá	710	Panajachel	8	Panajachel	12	Diciembre	2023-12-20T00:00:00	2024-11-08T21:00:00	5	Humedad	65
79137	7	Sololá	710	Panajachel	8	Panajachel	12	Diciembre	2023-12-20T00:00:00	2024-11-08T21:00:00	6	Velocidad del viento	12.9
79138	7	Sololá	710	Panajachel	8	Panajachel	12	Diciembre	2023-12-20T00:00:00	2024-11-08T21:00:00	7	Dirección del viento	12.87
79139	7	Sololá	710	Panajachel	8	Panajachel	12	Diciembre	2023-12-20T00:00:00	2024-11-08T21:00:00	1	Precipitación	0
79140	7	Sololá	710	Panajachel	8	Panajachel	12	Diciembre	2023-12-20T00:00:00	2024-11-08T21:00:00	8	Radiación solar	0
79141	7	Sololá	710	Panajachel	8	Panajachel	12	Diciembre	2023-12-20T00:00:00	2024-11-08T22:00:00	2	Temperatura media	15.1
79142	7	Sololá	710	Panajachel	8	Panajachel	12	Diciembre	2023-12-20T00:00:00	2024-11-08T22:00:00	4	Temperatura máxima	15.4
79143	7	Sololá	710	Panajachel	8	Panajachel	12	Diciembre	2023-12-20T00:00:00	2024-11-08T22:00:00	3	Temperatura mínima	15.1
79144	7	Sololá	710	Panajachel	8	Panajachel	12	Diciembre	2023-12-20T00:00:00	2024-11-08T22:00:00	5	Humedad	64
79145	7	Sololá	710	Panajachel	8	Panajachel	12	Diciembre	2023-12-20T00:00:00	2024-11-08T22:00:00	6	Velocidad del viento	9.7
79146	7	Sololá	710	Panajachel	8	Panajachel	12	Diciembre	2023-12-20T00:00:00	2024-11-08T22:00:00	7	Dirección del viento	9.66
79147	7	Sololá	710	Panajachel	8	Panajachel	12	Diciembre	2023-12-20T00:00:00	2024-11-08T22:00:00	1	Precipitación	0
79148	7	Sololá	710	Panajachel	8	Panajachel	12	Diciembre	2023-12-20T00:00:00	2024-11-08T22:00:00	8	Radiación solar	0
79149	7	Sololá	710	Panajachel	8	Panajachel	12	Diciembre	2023-12-20T00:00:00	2024-11-08T23:00:00	2	Temperatura media	14.6
79150	7	Sololá	710	Panajachel	8	Panajachel	12	Diciembre	2023-12-20T00:00:00	2024-11-08T23:00:00	4	Temperatura máxima	15.1
79151	7	Sololá	710	Panajachel	8	Panajachel	12	Diciembre	2023-12-20T00:00:00	2024-11-08T23:00:00	3	Temperatura mínima	14.5
79152	7	Sololá	710	Panajachel	8	Panajachel	12	Diciembre	2023-12-20T00:00:00	2024-11-08T23:00:00	5	Humedad	62
79153	7	Sololá	710	Panajachel	8	Panajachel	12	Diciembre	2023-12-20T00:00:00	2024-11-08T23:00:00	6	Velocidad del viento	4.8
79154	7	Sololá	710	Panajachel	8	Panajachel	12	Diciembre	2023-12-20T00:00:00	2024-11-08T23:00:00	7	Dirección del viento	4.83
79155	7	Sololá	710	Panajachel	8	Panajachel	12	Diciembre	2023-12-20T00:00:00	2024-11-08T23:00:00	1	Precipitación	0
79156	7	Sololá	710	Panajachel	8	Panajachel	12	Diciembre	2023-12-20T00:00:00	2024-11-08T23:00:00	8	Radiación solar	0
79157	7	Sololá	710	Panajachel	8	Panajachel	12	Diciembre	2023-12-21T00:00:00	2024-11-08T00:00:00	2	Temperatura media	14.8
79158	7	Sololá	710	Panajachel	8	Panajachel	12	Diciembre	2023-12-21T00:00:00	2024-11-08T00:00:00	4	Temperatura máxima	14.8
79159	7	Sololá	710	Panajachel	8	Panajachel	12	Diciembre	2023-12-21T00:00:00	2024-11-08T00:00:00	3	Temperatura mínima	14.5
79160	7	Sololá	710	Panajachel	8	Panajachel	12	Diciembre	2023-12-21T00:00:00	2024-11-08T00:00:00	5	Humedad	58
79161	7	Sololá	710	Panajachel	8	Panajachel	12	Diciembre	2023-12-21T00:00:00	2024-11-08T00:00:00	6	Velocidad del viento	8
79162	7	Sololá	710	Panajachel	8	Panajachel	12	Diciembre	2023-12-21T00:00:00	2024-11-08T00:00:00	7	Dirección del viento	8.05
79163	7	Sololá	710	Panajachel	8	Panajachel	12	Diciembre	2023-12-21T00:00:00	2024-11-08T00:00:00	1	Precipitación	0
79164	7	Sololá	710	Panajachel	8	Panajachel	12	Diciembre	2023-12-21T00:00:00	2024-11-08T00:00:00	8	Radiación solar	0
79165	7	Sololá	710	Panajachel	8	Panajachel	12	Diciembre	2023-12-21T00:00:00	2024-11-08T01:00:00	2	Temperatura media	13.9
79166	7	Sololá	710	Panajachel	8	Panajachel	12	Diciembre	2023-12-21T00:00:00	2024-11-08T01:00:00	4	Temperatura máxima	14.8
79167	7	Sololá	710	Panajachel	8	Panajachel	12	Diciembre	2023-12-21T00:00:00	2024-11-08T01:00:00	3	Temperatura mínima	13.9
79168	7	Sololá	710	Panajachel	8	Panajachel	12	Diciembre	2023-12-21T00:00:00	2024-11-08T01:00:00	5	Humedad	62
79169	7	Sololá	710	Panajachel	8	Panajachel	12	Diciembre	2023-12-21T00:00:00	2024-11-08T01:00:00	6	Velocidad del viento	3.2
79170	7	Sololá	710	Panajachel	8	Panajachel	12	Diciembre	2023-12-21T00:00:00	2024-11-08T01:00:00	7	Dirección del viento	3.22
79171	7	Sololá	710	Panajachel	8	Panajachel	12	Diciembre	2023-12-21T00:00:00	2024-11-08T01:00:00	1	Precipitación	0
79172	7	Sololá	710	Panajachel	8	Panajachel	12	Diciembre	2023-12-21T00:00:00	2024-11-08T01:00:00	8	Radiación solar	0
79173	7	Sololá	710	Panajachel	8	Panajachel	12	Diciembre	2023-12-21T00:00:00	2024-11-08T02:00:00	2	Temperatura media	13.7
79174	7	Sololá	710	Panajachel	8	Panajachel	12	Diciembre	2023-12-21T00:00:00	2024-11-08T02:00:00	4	Temperatura máxima	13.9
79175	7	Sololá	710	Panajachel	8	Panajachel	12	Diciembre	2023-12-21T00:00:00	2024-11-08T02:00:00	3	Temperatura mínima	13.6
79176	7	Sololá	710	Panajachel	8	Panajachel	12	Diciembre	2023-12-21T00:00:00	2024-11-08T02:00:00	5	Humedad	62
79177	7	Sololá	710	Panajachel	8	Panajachel	12	Diciembre	2023-12-21T00:00:00	2024-11-08T02:00:00	6	Velocidad del viento	4.8
79178	7	Sololá	710	Panajachel	8	Panajachel	12	Diciembre	2023-12-21T00:00:00	2024-11-08T02:00:00	7	Dirección del viento	4.83
79179	7	Sololá	710	Panajachel	8	Panajachel	12	Diciembre	2023-12-21T00:00:00	2024-11-08T02:00:00	1	Precipitación	0
79180	7	Sololá	710	Panajachel	8	Panajachel	12	Diciembre	2023-12-21T00:00:00	2024-11-08T02:00:00	8	Radiación solar	0
79181	7	Sololá	710	Panajachel	8	Panajachel	12	Diciembre	2023-12-21T00:00:00	2024-11-08T03:00:00	2	Temperatura media	13.5
79182	7	Sololá	710	Panajachel	8	Panajachel	12	Diciembre	2023-12-21T00:00:00	2024-11-08T03:00:00	4	Temperatura máxima	13.7
79183	7	Sololá	710	Panajachel	8	Panajachel	12	Diciembre	2023-12-21T00:00:00	2024-11-08T03:00:00	3	Temperatura mínima	13.4
79184	7	Sololá	710	Panajachel	8	Panajachel	12	Diciembre	2023-12-21T00:00:00	2024-11-08T03:00:00	5	Humedad	59
79185	7	Sololá	710	Panajachel	8	Panajachel	12	Diciembre	2023-12-21T00:00:00	2024-11-08T03:00:00	6	Velocidad del viento	6.4
79186	7	Sololá	710	Panajachel	8	Panajachel	12	Diciembre	2023-12-21T00:00:00	2024-11-08T03:00:00	7	Dirección del viento	6.44
79187	7	Sololá	710	Panajachel	8	Panajachel	12	Diciembre	2023-12-21T00:00:00	2024-11-08T03:00:00	1	Precipitación	0
79188	7	Sololá	710	Panajachel	8	Panajachel	12	Diciembre	2023-12-21T00:00:00	2024-11-08T03:00:00	8	Radiación solar	0
79189	7	Sololá	710	Panajachel	8	Panajachel	12	Diciembre	2023-12-21T00:00:00	2024-11-08T04:00:00	2	Temperatura media	14.1
79190	7	Sololá	710	Panajachel	8	Panajachel	12	Diciembre	2023-12-21T00:00:00	2024-11-08T04:00:00	4	Temperatura máxima	14.4
79191	7	Sololá	710	Panajachel	8	Panajachel	12	Diciembre	2023-12-21T00:00:00	2024-11-08T04:00:00	3	Temperatura mínima	13.4
79192	7	Sololá	710	Panajachel	8	Panajachel	12	Diciembre	2023-12-21T00:00:00	2024-11-08T04:00:00	5	Humedad	59
79193	7	Sololá	710	Panajachel	8	Panajachel	12	Diciembre	2023-12-21T00:00:00	2024-11-08T04:00:00	6	Velocidad del viento	4.8
79194	7	Sololá	710	Panajachel	8	Panajachel	12	Diciembre	2023-12-21T00:00:00	2024-11-08T04:00:00	7	Dirección del viento	4.83
79195	7	Sololá	710	Panajachel	8	Panajachel	12	Diciembre	2023-12-21T00:00:00	2024-11-08T04:00:00	1	Precipitación	0
79196	7	Sololá	710	Panajachel	8	Panajachel	12	Diciembre	2023-12-21T00:00:00	2024-11-08T04:00:00	8	Radiación solar	0
79197	7	Sololá	710	Panajachel	8	Panajachel	12	Diciembre	2023-12-21T00:00:00	2024-11-08T05:00:00	2	Temperatura media	13.8
79198	7	Sololá	710	Panajachel	8	Panajachel	12	Diciembre	2023-12-21T00:00:00	2024-11-08T05:00:00	4	Temperatura máxima	14.1
79199	7	Sololá	710	Panajachel	8	Panajachel	12	Diciembre	2023-12-21T00:00:00	2024-11-08T05:00:00	3	Temperatura mínima	13.7
79200	7	Sololá	710	Panajachel	8	Panajachel	12	Diciembre	2023-12-21T00:00:00	2024-11-08T05:00:00	5	Humedad	61
79201	7	Sololá	710	Panajachel	8	Panajachel	12	Diciembre	2023-12-21T00:00:00	2024-11-08T05:00:00	6	Velocidad del viento	3.2
79202	7	Sololá	710	Panajachel	8	Panajachel	12	Diciembre	2023-12-21T00:00:00	2024-11-08T05:00:00	7	Dirección del viento	3.22
79203	7	Sololá	710	Panajachel	8	Panajachel	12	Diciembre	2023-12-21T00:00:00	2024-11-08T05:00:00	1	Precipitación	0
79204	7	Sololá	710	Panajachel	8	Panajachel	12	Diciembre	2023-12-21T00:00:00	2024-11-08T05:00:00	8	Radiación solar	0
79205	7	Sololá	710	Panajachel	8	Panajachel	12	Diciembre	2023-12-21T00:00:00	2024-11-08T06:00:00	2	Temperatura media	13.8
79206	7	Sololá	710	Panajachel	8	Panajachel	12	Diciembre	2023-12-21T00:00:00	2024-11-08T06:00:00	4	Temperatura máxima	13.9
79207	7	Sololá	710	Panajachel	8	Panajachel	12	Diciembre	2023-12-21T00:00:00	2024-11-08T06:00:00	3	Temperatura mínima	13.3
79208	7	Sololá	710	Panajachel	8	Panajachel	12	Diciembre	2023-12-21T00:00:00	2024-11-08T06:00:00	5	Humedad	56
79209	7	Sololá	710	Panajachel	8	Panajachel	12	Diciembre	2023-12-21T00:00:00	2024-11-08T06:00:00	6	Velocidad del viento	1.6
79210	7	Sololá	710	Panajachel	8	Panajachel	12	Diciembre	2023-12-21T00:00:00	2024-11-08T06:00:00	7	Dirección del viento	1.61
79211	7	Sololá	710	Panajachel	8	Panajachel	12	Diciembre	2023-12-21T00:00:00	2024-11-08T06:00:00	1	Precipitación	0
79212	7	Sololá	710	Panajachel	8	Panajachel	12	Diciembre	2023-12-21T00:00:00	2024-11-08T06:00:00	8	Radiación solar	0
79213	7	Sololá	710	Panajachel	8	Panajachel	12	Diciembre	2023-12-21T00:00:00	2024-11-08T07:00:00	2	Temperatura media	12.6
79214	7	Sololá	710	Panajachel	8	Panajachel	12	Diciembre	2023-12-21T00:00:00	2024-11-08T07:00:00	4	Temperatura máxima	14
79215	7	Sololá	710	Panajachel	8	Panajachel	12	Diciembre	2023-12-21T00:00:00	2024-11-08T07:00:00	3	Temperatura mínima	12.3
79216	7	Sololá	710	Panajachel	8	Panajachel	12	Diciembre	2023-12-21T00:00:00	2024-11-08T07:00:00	5	Humedad	61
79217	7	Sololá	710	Panajachel	8	Panajachel	12	Diciembre	2023-12-21T00:00:00	2024-11-08T07:00:00	6	Velocidad del viento	0
79218	7	Sololá	710	Panajachel	8	Panajachel	12	Diciembre	2023-12-21T00:00:00	2024-11-08T07:00:00	7	Dirección del viento	0
79219	7	Sololá	710	Panajachel	8	Panajachel	12	Diciembre	2023-12-21T00:00:00	2024-11-08T07:00:00	1	Precipitación	0
79220	7	Sololá	710	Panajachel	8	Panajachel	12	Diciembre	2023-12-21T00:00:00	2024-11-08T07:00:00	8	Radiación solar	5
79221	7	Sololá	710	Panajachel	8	Panajachel	12	Diciembre	2023-12-21T00:00:00	2024-11-08T08:00:00	2	Temperatura media	15.7
79222	7	Sololá	710	Panajachel	8	Panajachel	12	Diciembre	2023-12-21T00:00:00	2024-11-08T08:00:00	4	Temperatura máxima	15.7
79223	7	Sololá	710	Panajachel	8	Panajachel	12	Diciembre	2023-12-21T00:00:00	2024-11-08T08:00:00	3	Temperatura mínima	12.6
79224	7	Sololá	710	Panajachel	8	Panajachel	12	Diciembre	2023-12-21T00:00:00	2024-11-08T08:00:00	5	Humedad	54
79225	7	Sololá	710	Panajachel	8	Panajachel	12	Diciembre	2023-12-21T00:00:00	2024-11-08T08:00:00	6	Velocidad del viento	4.8
79226	7	Sololá	710	Panajachel	8	Panajachel	12	Diciembre	2023-12-21T00:00:00	2024-11-08T08:00:00	7	Dirección del viento	4.83
79227	7	Sololá	710	Panajachel	8	Panajachel	12	Diciembre	2023-12-21T00:00:00	2024-11-08T08:00:00	1	Precipitación	0
79228	7	Sololá	710	Panajachel	8	Panajachel	12	Diciembre	2023-12-21T00:00:00	2024-11-08T08:00:00	8	Radiación solar	174
79229	7	Sololá	710	Panajachel	8	Panajachel	12	Diciembre	2023-12-21T00:00:00	2024-11-08T09:00:00	2	Temperatura media	18.1
79230	7	Sololá	710	Panajachel	8	Panajachel	12	Diciembre	2023-12-21T00:00:00	2024-11-08T09:00:00	4	Temperatura máxima	18.1
79231	7	Sololá	710	Panajachel	8	Panajachel	12	Diciembre	2023-12-21T00:00:00	2024-11-08T09:00:00	3	Temperatura mínima	15.7
79232	7	Sololá	710	Panajachel	8	Panajachel	12	Diciembre	2023-12-21T00:00:00	2024-11-08T09:00:00	5	Humedad	49
79233	7	Sololá	710	Panajachel	8	Panajachel	12	Diciembre	2023-12-21T00:00:00	2024-11-08T09:00:00	6	Velocidad del viento	8
79234	7	Sololá	710	Panajachel	8	Panajachel	12	Diciembre	2023-12-21T00:00:00	2024-11-08T09:00:00	7	Dirección del viento	8.05
79235	7	Sololá	710	Panajachel	8	Panajachel	12	Diciembre	2023-12-21T00:00:00	2024-11-08T09:00:00	1	Precipitación	0
79236	7	Sololá	710	Panajachel	8	Panajachel	12	Diciembre	2023-12-21T00:00:00	2024-11-08T09:00:00	8	Radiación solar	407
79237	7	Sololá	710	Panajachel	8	Panajachel	12	Diciembre	2023-12-21T00:00:00	2024-11-08T10:00:00	2	Temperatura media	20.6
79238	7	Sololá	710	Panajachel	8	Panajachel	12	Diciembre	2023-12-21T00:00:00	2024-11-08T10:00:00	4	Temperatura máxima	20.6
79239	7	Sololá	710	Panajachel	8	Panajachel	12	Diciembre	2023-12-21T00:00:00	2024-11-08T10:00:00	3	Temperatura mínima	18.1
79240	7	Sololá	710	Panajachel	8	Panajachel	12	Diciembre	2023-12-21T00:00:00	2024-11-08T10:00:00	5	Humedad	50
79241	7	Sololá	710	Panajachel	8	Panajachel	12	Diciembre	2023-12-21T00:00:00	2024-11-08T10:00:00	6	Velocidad del viento	4.8
79242	7	Sololá	710	Panajachel	8	Panajachel	12	Diciembre	2023-12-21T00:00:00	2024-11-08T10:00:00	7	Dirección del viento	4.83
79243	7	Sololá	710	Panajachel	8	Panajachel	12	Diciembre	2023-12-21T00:00:00	2024-11-08T10:00:00	1	Precipitación	0
79244	7	Sololá	710	Panajachel	8	Panajachel	12	Diciembre	2023-12-21T00:00:00	2024-11-08T10:00:00	8	Radiación solar	589
79245	7	Sololá	710	Panajachel	8	Panajachel	12	Diciembre	2023-12-21T00:00:00	2024-11-08T11:00:00	2	Temperatura media	21.1
79246	7	Sololá	710	Panajachel	8	Panajachel	12	Diciembre	2023-12-21T00:00:00	2024-11-08T11:00:00	4	Temperatura máxima	21.1
79247	7	Sololá	710	Panajachel	8	Panajachel	12	Diciembre	2023-12-21T00:00:00	2024-11-08T11:00:00	3	Temperatura mínima	18.4
79248	7	Sololá	710	Panajachel	8	Panajachel	12	Diciembre	2023-12-21T00:00:00	2024-11-08T11:00:00	5	Humedad	47
79249	7	Sololá	710	Panajachel	8	Panajachel	12	Diciembre	2023-12-21T00:00:00	2024-11-08T11:00:00	6	Velocidad del viento	6.4
79250	7	Sololá	710	Panajachel	8	Panajachel	12	Diciembre	2023-12-21T00:00:00	2024-11-08T11:00:00	7	Dirección del viento	6.44
79251	7	Sololá	710	Panajachel	8	Panajachel	12	Diciembre	2023-12-21T00:00:00	2024-11-08T11:00:00	1	Precipitación	0
79252	7	Sololá	710	Panajachel	8	Panajachel	12	Diciembre	2023-12-21T00:00:00	2024-11-08T11:00:00	8	Radiación solar	702
79253	7	Sololá	710	Panajachel	8	Panajachel	12	Diciembre	2023-12-21T00:00:00	2024-11-08T12:00:00	2	Temperatura media	22.7
79254	7	Sololá	710	Panajachel	8	Panajachel	12	Diciembre	2023-12-21T00:00:00	2024-11-08T12:00:00	4	Temperatura máxima	22.8
79255	7	Sololá	710	Panajachel	8	Panajachel	12	Diciembre	2023-12-21T00:00:00	2024-11-08T12:00:00	3	Temperatura mínima	21.1
79256	7	Sololá	710	Panajachel	8	Panajachel	12	Diciembre	2023-12-21T00:00:00	2024-11-08T12:00:00	5	Humedad	41
79257	7	Sololá	710	Panajachel	8	Panajachel	12	Diciembre	2023-12-21T00:00:00	2024-11-08T12:00:00	6	Velocidad del viento	11.3
79258	7	Sololá	710	Panajachel	8	Panajachel	12	Diciembre	2023-12-21T00:00:00	2024-11-08T12:00:00	7	Dirección del viento	11.27
79259	7	Sololá	710	Panajachel	8	Panajachel	12	Diciembre	2023-12-21T00:00:00	2024-11-08T12:00:00	1	Precipitación	0
79260	7	Sololá	710	Panajachel	8	Panajachel	12	Diciembre	2023-12-21T00:00:00	2024-11-08T12:00:00	8	Radiación solar	780
79261	7	Sololá	710	Panajachel	8	Panajachel	12	Diciembre	2023-12-21T00:00:00	2024-11-08T13:00:00	2	Temperatura media	23.1
79262	7	Sololá	710	Panajachel	8	Panajachel	12	Diciembre	2023-12-21T00:00:00	2024-11-08T13:00:00	4	Temperatura máxima	23.2
79263	7	Sololá	710	Panajachel	8	Panajachel	12	Diciembre	2023-12-21T00:00:00	2024-11-08T13:00:00	3	Temperatura mínima	22.6
79264	7	Sololá	710	Panajachel	8	Panajachel	12	Diciembre	2023-12-21T00:00:00	2024-11-08T13:00:00	5	Humedad	43
79265	7	Sololá	710	Panajachel	8	Panajachel	12	Diciembre	2023-12-21T00:00:00	2024-11-08T13:00:00	6	Velocidad del viento	11.3
79266	7	Sololá	710	Panajachel	8	Panajachel	12	Diciembre	2023-12-21T00:00:00	2024-11-08T13:00:00	7	Dirección del viento	11.27
79267	7	Sololá	710	Panajachel	8	Panajachel	12	Diciembre	2023-12-21T00:00:00	2024-11-08T13:00:00	1	Precipitación	0
79268	7	Sololá	710	Panajachel	8	Panajachel	12	Diciembre	2023-12-21T00:00:00	2024-11-08T13:00:00	8	Radiación solar	783
79269	7	Sololá	710	Panajachel	8	Panajachel	12	Diciembre	2023-12-21T00:00:00	2024-11-08T14:00:00	2	Temperatura media	23.4
79270	7	Sololá	710	Panajachel	8	Panajachel	12	Diciembre	2023-12-21T00:00:00	2024-11-08T14:00:00	4	Temperatura máxima	23.5
79271	7	Sololá	710	Panajachel	8	Panajachel	12	Diciembre	2023-12-21T00:00:00	2024-11-08T14:00:00	3	Temperatura mínima	23.1
79272	7	Sololá	710	Panajachel	8	Panajachel	12	Diciembre	2023-12-21T00:00:00	2024-11-08T14:00:00	5	Humedad	44
79273	7	Sololá	710	Panajachel	8	Panajachel	12	Diciembre	2023-12-21T00:00:00	2024-11-08T14:00:00	6	Velocidad del viento	11.3
79274	7	Sololá	710	Panajachel	8	Panajachel	12	Diciembre	2023-12-21T00:00:00	2024-11-08T14:00:00	7	Dirección del viento	11.27
79275	7	Sololá	710	Panajachel	8	Panajachel	12	Diciembre	2023-12-21T00:00:00	2024-11-08T14:00:00	1	Precipitación	0
79276	7	Sololá	710	Panajachel	8	Panajachel	12	Diciembre	2023-12-21T00:00:00	2024-11-08T14:00:00	8	Radiación solar	717
79277	7	Sololá	710	Panajachel	8	Panajachel	12	Diciembre	2023-12-21T00:00:00	2024-11-08T15:00:00	2	Temperatura media	22.4
79278	7	Sololá	710	Panajachel	8	Panajachel	12	Diciembre	2023-12-21T00:00:00	2024-11-08T15:00:00	4	Temperatura máxima	23.6
79279	7	Sololá	710	Panajachel	8	Panajachel	12	Diciembre	2023-12-21T00:00:00	2024-11-08T15:00:00	3	Temperatura mínima	22.4
79280	7	Sololá	710	Panajachel	8	Panajachel	12	Diciembre	2023-12-21T00:00:00	2024-11-08T15:00:00	5	Humedad	48
79281	7	Sololá	710	Panajachel	8	Panajachel	12	Diciembre	2023-12-21T00:00:00	2024-11-08T15:00:00	6	Velocidad del viento	9.7
79282	7	Sololá	710	Panajachel	8	Panajachel	12	Diciembre	2023-12-21T00:00:00	2024-11-08T15:00:00	7	Dirección del viento	9.66
79283	7	Sololá	710	Panajachel	8	Panajachel	12	Diciembre	2023-12-21T00:00:00	2024-11-08T15:00:00	1	Precipitación	0
79284	7	Sololá	710	Panajachel	8	Panajachel	12	Diciembre	2023-12-21T00:00:00	2024-11-08T15:00:00	8	Radiación solar	586
79285	7	Sololá	710	Panajachel	8	Panajachel	12	Diciembre	2023-12-21T00:00:00	2024-11-08T16:00:00	2	Temperatura media	21.2
79286	7	Sololá	710	Panajachel	8	Panajachel	12	Diciembre	2023-12-21T00:00:00	2024-11-08T16:00:00	4	Temperatura máxima	22.4
79287	7	Sololá	710	Panajachel	8	Panajachel	12	Diciembre	2023-12-21T00:00:00	2024-11-08T16:00:00	3	Temperatura mínima	21.2
79288	7	Sololá	710	Panajachel	8	Panajachel	12	Diciembre	2023-12-21T00:00:00	2024-11-08T16:00:00	5	Humedad	51
79289	7	Sololá	710	Panajachel	8	Panajachel	12	Diciembre	2023-12-21T00:00:00	2024-11-08T16:00:00	6	Velocidad del viento	12.9
79290	7	Sololá	710	Panajachel	8	Panajachel	12	Diciembre	2023-12-21T00:00:00	2024-11-08T16:00:00	7	Dirección del viento	12.87
79291	7	Sololá	710	Panajachel	8	Panajachel	12	Diciembre	2023-12-21T00:00:00	2024-11-08T16:00:00	1	Precipitación	0
79292	7	Sololá	710	Panajachel	8	Panajachel	12	Diciembre	2023-12-21T00:00:00	2024-11-08T16:00:00	8	Radiación solar	409
79293	7	Sololá	710	Panajachel	8	Panajachel	12	Diciembre	2023-12-21T00:00:00	2024-11-08T17:00:00	2	Temperatura media	19.3
79294	7	Sololá	710	Panajachel	8	Panajachel	12	Diciembre	2023-12-21T00:00:00	2024-11-08T17:00:00	4	Temperatura máxima	21.2
79295	7	Sololá	710	Panajachel	8	Panajachel	12	Diciembre	2023-12-21T00:00:00	2024-11-08T17:00:00	3	Temperatura mínima	19.3
79296	7	Sololá	710	Panajachel	8	Panajachel	12	Diciembre	2023-12-21T00:00:00	2024-11-08T17:00:00	5	Humedad	56
79297	7	Sololá	710	Panajachel	8	Panajachel	12	Diciembre	2023-12-21T00:00:00	2024-11-08T17:00:00	6	Velocidad del viento	14.5
79298	7	Sololá	710	Panajachel	8	Panajachel	12	Diciembre	2023-12-21T00:00:00	2024-11-08T17:00:00	7	Dirección del viento	14.48
79299	7	Sololá	710	Panajachel	8	Panajachel	12	Diciembre	2023-12-21T00:00:00	2024-11-08T17:00:00	1	Precipitación	0
79300	7	Sololá	710	Panajachel	8	Panajachel	12	Diciembre	2023-12-21T00:00:00	2024-11-08T17:00:00	8	Radiación solar	189
79301	7	Sololá	710	Panajachel	8	Panajachel	12	Diciembre	2023-12-21T00:00:00	2024-11-08T18:00:00	2	Temperatura media	17.5
79302	7	Sololá	710	Panajachel	8	Panajachel	12	Diciembre	2023-12-21T00:00:00	2024-11-08T18:00:00	4	Temperatura máxima	19.3
79303	7	Sololá	710	Panajachel	8	Panajachel	12	Diciembre	2023-12-21T00:00:00	2024-11-08T18:00:00	3	Temperatura mínima	17.5
79304	7	Sololá	710	Panajachel	8	Panajachel	12	Diciembre	2023-12-21T00:00:00	2024-11-08T18:00:00	5	Humedad	60
79305	7	Sololá	710	Panajachel	8	Panajachel	12	Diciembre	2023-12-21T00:00:00	2024-11-08T18:00:00	6	Velocidad del viento	16.1
79306	7	Sololá	710	Panajachel	8	Panajachel	12	Diciembre	2023-12-21T00:00:00	2024-11-08T18:00:00	7	Dirección del viento	16.09
79307	7	Sololá	710	Panajachel	8	Panajachel	12	Diciembre	2023-12-21T00:00:00	2024-11-08T18:00:00	1	Precipitación	0
79308	7	Sololá	710	Panajachel	8	Panajachel	12	Diciembre	2023-12-21T00:00:00	2024-11-08T18:00:00	8	Radiación solar	22
79309	7	Sololá	710	Panajachel	8	Panajachel	12	Diciembre	2023-12-21T00:00:00	2024-11-08T19:00:00	2	Temperatura media	17.4
79310	7	Sololá	710	Panajachel	8	Panajachel	12	Diciembre	2023-12-21T00:00:00	2024-11-08T19:00:00	4	Temperatura máxima	17.6
79311	7	Sololá	710	Panajachel	8	Panajachel	12	Diciembre	2023-12-21T00:00:00	2024-11-08T19:00:00	3	Temperatura mínima	17.2
79312	7	Sololá	710	Panajachel	8	Panajachel	12	Diciembre	2023-12-21T00:00:00	2024-11-08T19:00:00	5	Humedad	58
79313	7	Sololá	710	Panajachel	8	Panajachel	12	Diciembre	2023-12-21T00:00:00	2024-11-08T19:00:00	6	Velocidad del viento	17.7
79314	7	Sololá	710	Panajachel	8	Panajachel	12	Diciembre	2023-12-21T00:00:00	2024-11-08T19:00:00	7	Dirección del viento	17.7
79315	7	Sololá	710	Panajachel	8	Panajachel	12	Diciembre	2023-12-21T00:00:00	2024-11-08T19:00:00	1	Precipitación	0
79316	7	Sololá	710	Panajachel	8	Panajachel	12	Diciembre	2023-12-21T00:00:00	2024-11-08T19:00:00	8	Radiación solar	0
79317	7	Sololá	710	Panajachel	8	Panajachel	12	Diciembre	2023-12-21T00:00:00	2024-11-08T20:00:00	2	Temperatura media	17.3
79318	7	Sololá	710	Panajachel	8	Panajachel	12	Diciembre	2023-12-21T00:00:00	2024-11-08T20:00:00	4	Temperatura máxima	17.4
79319	7	Sololá	710	Panajachel	8	Panajachel	12	Diciembre	2023-12-21T00:00:00	2024-11-08T20:00:00	3	Temperatura mínima	17.3
79320	7	Sololá	710	Panajachel	8	Panajachel	12	Diciembre	2023-12-21T00:00:00	2024-11-08T20:00:00	5	Humedad	60
79321	7	Sololá	710	Panajachel	8	Panajachel	12	Diciembre	2023-12-21T00:00:00	2024-11-08T20:00:00	6	Velocidad del viento	16.1
79322	7	Sololá	710	Panajachel	8	Panajachel	12	Diciembre	2023-12-21T00:00:00	2024-11-08T20:00:00	7	Dirección del viento	16.09
79323	7	Sololá	710	Panajachel	8	Panajachel	12	Diciembre	2023-12-21T00:00:00	2024-11-08T20:00:00	1	Precipitación	0
79324	7	Sololá	710	Panajachel	8	Panajachel	12	Diciembre	2023-12-21T00:00:00	2024-11-08T20:00:00	8	Radiación solar	0
79325	7	Sololá	710	Panajachel	8	Panajachel	12	Diciembre	2023-12-21T00:00:00	2024-11-08T21:00:00	2	Temperatura media	17.5
79326	7	Sololá	710	Panajachel	8	Panajachel	12	Diciembre	2023-12-21T00:00:00	2024-11-08T21:00:00	4	Temperatura máxima	17.6
79327	7	Sololá	710	Panajachel	8	Panajachel	12	Diciembre	2023-12-21T00:00:00	2024-11-08T21:00:00	3	Temperatura mínima	17.2
79328	7	Sololá	710	Panajachel	8	Panajachel	12	Diciembre	2023-12-21T00:00:00	2024-11-08T21:00:00	5	Humedad	59
79329	7	Sololá	710	Panajachel	8	Panajachel	12	Diciembre	2023-12-21T00:00:00	2024-11-08T21:00:00	6	Velocidad del viento	16.1
79330	7	Sololá	710	Panajachel	8	Panajachel	12	Diciembre	2023-12-21T00:00:00	2024-11-08T21:00:00	7	Dirección del viento	16.09
79331	7	Sololá	710	Panajachel	8	Panajachel	12	Diciembre	2023-12-21T00:00:00	2024-11-08T21:00:00	1	Precipitación	0
79332	7	Sololá	710	Panajachel	8	Panajachel	12	Diciembre	2023-12-21T00:00:00	2024-11-08T21:00:00	8	Radiación solar	0
79333	7	Sololá	710	Panajachel	8	Panajachel	12	Diciembre	2023-12-21T00:00:00	2024-11-08T22:00:00	2	Temperatura media	17.6
79334	7	Sololá	710	Panajachel	8	Panajachel	12	Diciembre	2023-12-21T00:00:00	2024-11-08T22:00:00	4	Temperatura máxima	17.6
79335	7	Sololá	710	Panajachel	8	Panajachel	12	Diciembre	2023-12-21T00:00:00	2024-11-08T22:00:00	3	Temperatura mínima	17.3
79336	7	Sololá	710	Panajachel	8	Panajachel	12	Diciembre	2023-12-21T00:00:00	2024-11-08T22:00:00	5	Humedad	61
79337	7	Sololá	710	Panajachel	8	Panajachel	12	Diciembre	2023-12-21T00:00:00	2024-11-08T22:00:00	6	Velocidad del viento	16.1
79338	7	Sololá	710	Panajachel	8	Panajachel	12	Diciembre	2023-12-21T00:00:00	2024-11-08T22:00:00	7	Dirección del viento	16.09
79339	7	Sololá	710	Panajachel	8	Panajachel	12	Diciembre	2023-12-21T00:00:00	2024-11-08T22:00:00	1	Precipitación	0
79340	7	Sololá	710	Panajachel	8	Panajachel	12	Diciembre	2023-12-21T00:00:00	2024-11-08T22:00:00	8	Radiación solar	0
79341	7	Sololá	710	Panajachel	8	Panajachel	12	Diciembre	2023-12-21T00:00:00	2024-11-08T23:00:00	2	Temperatura media	17.3
79342	7	Sololá	710	Panajachel	8	Panajachel	12	Diciembre	2023-12-21T00:00:00	2024-11-08T23:00:00	4	Temperatura máxima	17.7
79343	7	Sololá	710	Panajachel	8	Panajachel	12	Diciembre	2023-12-21T00:00:00	2024-11-08T23:00:00	3	Temperatura mínima	17.3
79344	7	Sololá	710	Panajachel	8	Panajachel	12	Diciembre	2023-12-21T00:00:00	2024-11-08T23:00:00	5	Humedad	62
79345	7	Sololá	710	Panajachel	8	Panajachel	12	Diciembre	2023-12-21T00:00:00	2024-11-08T23:00:00	6	Velocidad del viento	16.1
79346	7	Sololá	710	Panajachel	8	Panajachel	12	Diciembre	2023-12-21T00:00:00	2024-11-08T23:00:00	7	Dirección del viento	16.09
79347	7	Sololá	710	Panajachel	8	Panajachel	12	Diciembre	2023-12-21T00:00:00	2024-11-08T23:00:00	1	Precipitación	0
79348	7	Sololá	710	Panajachel	8	Panajachel	12	Diciembre	2023-12-21T00:00:00	2024-11-08T23:00:00	8	Radiación solar	0
79349	7	Sololá	710	Panajachel	8	Panajachel	12	Diciembre	2023-12-22T00:00:00	2024-11-08T00:00:00	2	Temperatura media	16.7
79350	7	Sololá	710	Panajachel	8	Panajachel	12	Diciembre	2023-12-22T00:00:00	2024-11-08T00:00:00	4	Temperatura máxima	17.3
79351	7	Sololá	710	Panajachel	8	Panajachel	12	Diciembre	2023-12-22T00:00:00	2024-11-08T00:00:00	3	Temperatura mínima	16.7
79352	7	Sololá	710	Panajachel	8	Panajachel	12	Diciembre	2023-12-22T00:00:00	2024-11-08T00:00:00	5	Humedad	66
79353	7	Sololá	710	Panajachel	8	Panajachel	12	Diciembre	2023-12-22T00:00:00	2024-11-08T00:00:00	6	Velocidad del viento	14.5
79354	7	Sololá	710	Panajachel	8	Panajachel	12	Diciembre	2023-12-22T00:00:00	2024-11-08T00:00:00	7	Dirección del viento	14.48
79355	7	Sololá	710	Panajachel	8	Panajachel	12	Diciembre	2023-12-22T00:00:00	2024-11-08T00:00:00	1	Precipitación	0
79356	7	Sololá	710	Panajachel	8	Panajachel	12	Diciembre	2023-12-22T00:00:00	2024-11-08T00:00:00	8	Radiación solar	0
79357	7	Sololá	710	Panajachel	8	Panajachel	12	Diciembre	2023-12-22T00:00:00	2024-11-08T01:00:00	2	Temperatura media	16.5
79358	7	Sololá	710	Panajachel	8	Panajachel	12	Diciembre	2023-12-22T00:00:00	2024-11-08T01:00:00	4	Temperatura máxima	16.7
79359	7	Sololá	710	Panajachel	8	Panajachel	12	Diciembre	2023-12-22T00:00:00	2024-11-08T01:00:00	3	Temperatura mínima	16.4
79360	7	Sololá	710	Panajachel	8	Panajachel	12	Diciembre	2023-12-22T00:00:00	2024-11-08T01:00:00	5	Humedad	66
79361	7	Sololá	710	Panajachel	8	Panajachel	12	Diciembre	2023-12-22T00:00:00	2024-11-08T01:00:00	6	Velocidad del viento	14.5
79362	7	Sololá	710	Panajachel	8	Panajachel	12	Diciembre	2023-12-22T00:00:00	2024-11-08T01:00:00	7	Dirección del viento	14.48
79363	7	Sololá	710	Panajachel	8	Panajachel	12	Diciembre	2023-12-22T00:00:00	2024-11-08T01:00:00	1	Precipitación	0
79364	7	Sololá	710	Panajachel	8	Panajachel	12	Diciembre	2023-12-22T00:00:00	2024-11-08T01:00:00	8	Radiación solar	0
79365	7	Sololá	710	Panajachel	8	Panajachel	12	Diciembre	2023-12-22T00:00:00	2024-11-08T02:00:00	2	Temperatura media	16.2
79366	7	Sololá	710	Panajachel	8	Panajachel	12	Diciembre	2023-12-22T00:00:00	2024-11-08T02:00:00	4	Temperatura máxima	16.7
79367	7	Sololá	710	Panajachel	8	Panajachel	12	Diciembre	2023-12-22T00:00:00	2024-11-08T02:00:00	3	Temperatura mínima	16.2
79368	7	Sololá	710	Panajachel	8	Panajachel	12	Diciembre	2023-12-22T00:00:00	2024-11-08T02:00:00	5	Humedad	67
79369	7	Sololá	710	Panajachel	8	Panajachel	12	Diciembre	2023-12-22T00:00:00	2024-11-08T02:00:00	6	Velocidad del viento	12.9
79370	7	Sololá	710	Panajachel	8	Panajachel	12	Diciembre	2023-12-22T00:00:00	2024-11-08T02:00:00	7	Dirección del viento	12.87
79371	7	Sololá	710	Panajachel	8	Panajachel	12	Diciembre	2023-12-22T00:00:00	2024-11-08T02:00:00	1	Precipitación	0
79372	7	Sololá	710	Panajachel	8	Panajachel	12	Diciembre	2023-12-22T00:00:00	2024-11-08T02:00:00	8	Radiación solar	0
79373	7	Sololá	710	Panajachel	8	Panajachel	12	Diciembre	2023-12-22T00:00:00	2024-11-08T03:00:00	2	Temperatura media	16.1
79374	7	Sololá	710	Panajachel	8	Panajachel	12	Diciembre	2023-12-22T00:00:00	2024-11-08T03:00:00	4	Temperatura máxima	16.2
79375	7	Sololá	710	Panajachel	8	Panajachel	12	Diciembre	2023-12-22T00:00:00	2024-11-08T03:00:00	3	Temperatura mínima	15.9
79376	7	Sololá	710	Panajachel	8	Panajachel	12	Diciembre	2023-12-22T00:00:00	2024-11-08T03:00:00	5	Humedad	65
79377	7	Sololá	710	Panajachel	8	Panajachel	12	Diciembre	2023-12-22T00:00:00	2024-11-08T03:00:00	6	Velocidad del viento	9.7
79378	7	Sololá	710	Panajachel	8	Panajachel	12	Diciembre	2023-12-22T00:00:00	2024-11-08T03:00:00	7	Dirección del viento	9.66
79379	7	Sololá	710	Panajachel	8	Panajachel	12	Diciembre	2023-12-22T00:00:00	2024-11-08T03:00:00	1	Precipitación	0
79380	7	Sololá	710	Panajachel	8	Panajachel	12	Diciembre	2023-12-22T00:00:00	2024-11-08T03:00:00	8	Radiación solar	0
79381	7	Sololá	710	Panajachel	8	Panajachel	12	Diciembre	2023-12-22T00:00:00	2024-11-08T04:00:00	2	Temperatura media	15.7
79382	7	Sololá	710	Panajachel	8	Panajachel	12	Diciembre	2023-12-22T00:00:00	2024-11-08T04:00:00	4	Temperatura máxima	16.1
79383	7	Sololá	710	Panajachel	8	Panajachel	12	Diciembre	2023-12-22T00:00:00	2024-11-08T04:00:00	3	Temperatura mínima	15.6
79384	7	Sololá	710	Panajachel	8	Panajachel	12	Diciembre	2023-12-22T00:00:00	2024-11-08T04:00:00	5	Humedad	65
79385	7	Sololá	710	Panajachel	8	Panajachel	12	Diciembre	2023-12-22T00:00:00	2024-11-08T04:00:00	6	Velocidad del viento	3.2
79386	7	Sololá	710	Panajachel	8	Panajachel	12	Diciembre	2023-12-22T00:00:00	2024-11-08T04:00:00	7	Dirección del viento	3.22
79387	7	Sololá	710	Panajachel	8	Panajachel	12	Diciembre	2023-12-22T00:00:00	2024-11-08T04:00:00	1	Precipitación	0
79388	7	Sololá	710	Panajachel	8	Panajachel	12	Diciembre	2023-12-22T00:00:00	2024-11-08T04:00:00	8	Radiación solar	0
79389	7	Sololá	710	Panajachel	8	Panajachel	12	Diciembre	2023-12-22T00:00:00	2024-11-08T05:00:00	2	Temperatura media	15.2
79390	7	Sololá	710	Panajachel	8	Panajachel	12	Diciembre	2023-12-22T00:00:00	2024-11-08T05:00:00	4	Temperatura máxima	15.7
79391	7	Sololá	710	Panajachel	8	Panajachel	12	Diciembre	2023-12-22T00:00:00	2024-11-08T05:00:00	3	Temperatura mínima	15.1
79392	7	Sololá	710	Panajachel	8	Panajachel	12	Diciembre	2023-12-22T00:00:00	2024-11-08T05:00:00	5	Humedad	68
79393	7	Sololá	710	Panajachel	8	Panajachel	12	Diciembre	2023-12-22T00:00:00	2024-11-08T05:00:00	6	Velocidad del viento	1.6
79394	7	Sololá	710	Panajachel	8	Panajachel	12	Diciembre	2023-12-22T00:00:00	2024-11-08T05:00:00	7	Dirección del viento	1.61
79395	7	Sololá	710	Panajachel	8	Panajachel	12	Diciembre	2023-12-22T00:00:00	2024-11-08T05:00:00	1	Precipitación	0
79396	7	Sololá	710	Panajachel	8	Panajachel	12	Diciembre	2023-12-22T00:00:00	2024-11-08T05:00:00	8	Radiación solar	0
79397	7	Sololá	710	Panajachel	8	Panajachel	12	Diciembre	2023-12-22T00:00:00	2024-11-08T06:00:00	2	Temperatura media	15.2
79398	7	Sololá	710	Panajachel	8	Panajachel	12	Diciembre	2023-12-22T00:00:00	2024-11-08T06:00:00	4	Temperatura máxima	15.4
79399	7	Sololá	710	Panajachel	8	Panajachel	12	Diciembre	2023-12-22T00:00:00	2024-11-08T06:00:00	3	Temperatura mínima	14.9
79400	7	Sololá	710	Panajachel	8	Panajachel	12	Diciembre	2023-12-22T00:00:00	2024-11-08T06:00:00	5	Humedad	66
79401	7	Sololá	710	Panajachel	8	Panajachel	12	Diciembre	2023-12-22T00:00:00	2024-11-08T06:00:00	6	Velocidad del viento	1.6
79402	7	Sololá	710	Panajachel	8	Panajachel	12	Diciembre	2023-12-22T00:00:00	2024-11-08T06:00:00	7	Dirección del viento	1.61
79403	7	Sololá	710	Panajachel	8	Panajachel	12	Diciembre	2023-12-22T00:00:00	2024-11-08T06:00:00	1	Precipitación	0
79404	7	Sololá	710	Panajachel	8	Panajachel	12	Diciembre	2023-12-22T00:00:00	2024-11-08T06:00:00	8	Radiación solar	0
79405	7	Sololá	710	Panajachel	8	Panajachel	12	Diciembre	2023-12-22T00:00:00	2024-11-08T07:00:00	2	Temperatura media	14.6
79406	7	Sololá	710	Panajachel	8	Panajachel	12	Diciembre	2023-12-22T00:00:00	2024-11-08T07:00:00	4	Temperatura máxima	15.3
79407	7	Sololá	710	Panajachel	8	Panajachel	12	Diciembre	2023-12-22T00:00:00	2024-11-08T07:00:00	3	Temperatura mínima	14.5
79408	7	Sololá	710	Panajachel	8	Panajachel	12	Diciembre	2023-12-22T00:00:00	2024-11-08T07:00:00	5	Humedad	70
79409	7	Sololá	710	Panajachel	8	Panajachel	12	Diciembre	2023-12-22T00:00:00	2024-11-08T07:00:00	6	Velocidad del viento	1.6
79410	7	Sololá	710	Panajachel	8	Panajachel	12	Diciembre	2023-12-22T00:00:00	2024-11-08T07:00:00	7	Dirección del viento	1.61
79411	7	Sololá	710	Panajachel	8	Panajachel	12	Diciembre	2023-12-22T00:00:00	2024-11-08T07:00:00	1	Precipitación	0
79412	7	Sololá	710	Panajachel	8	Panajachel	12	Diciembre	2023-12-22T00:00:00	2024-11-08T07:00:00	8	Radiación solar	7
79413	7	Sololá	710	Panajachel	8	Panajachel	12	Diciembre	2023-12-22T00:00:00	2024-11-08T08:00:00	2	Temperatura media	17.8
79414	7	Sololá	710	Panajachel	8	Panajachel	12	Diciembre	2023-12-22T00:00:00	2024-11-08T08:00:00	4	Temperatura máxima	17.8
79415	7	Sololá	710	Panajachel	8	Panajachel	12	Diciembre	2023-12-22T00:00:00	2024-11-08T08:00:00	3	Temperatura mínima	14.6
79416	7	Sololá	710	Panajachel	8	Panajachel	12	Diciembre	2023-12-22T00:00:00	2024-11-08T08:00:00	5	Humedad	63
79417	7	Sololá	710	Panajachel	8	Panajachel	12	Diciembre	2023-12-22T00:00:00	2024-11-08T08:00:00	6	Velocidad del viento	4.8
79418	7	Sololá	710	Panajachel	8	Panajachel	12	Diciembre	2023-12-22T00:00:00	2024-11-08T08:00:00	7	Dirección del viento	4.83
79419	7	Sololá	710	Panajachel	8	Panajachel	12	Diciembre	2023-12-22T00:00:00	2024-11-08T08:00:00	1	Precipitación	0
79420	7	Sololá	710	Panajachel	8	Panajachel	12	Diciembre	2023-12-22T00:00:00	2024-11-08T08:00:00	8	Radiación solar	158
79421	7	Sololá	710	Panajachel	8	Panajachel	12	Diciembre	2023-12-22T00:00:00	2024-11-08T09:00:00	2	Temperatura media	21.4
79422	7	Sololá	710	Panajachel	8	Panajachel	12	Diciembre	2023-12-22T00:00:00	2024-11-08T09:00:00	4	Temperatura máxima	21.4
79423	7	Sololá	710	Panajachel	8	Panajachel	12	Diciembre	2023-12-22T00:00:00	2024-11-08T09:00:00	3	Temperatura mínima	17.8
79424	7	Sololá	710	Panajachel	8	Panajachel	12	Diciembre	2023-12-22T00:00:00	2024-11-08T09:00:00	5	Humedad	54
79425	7	Sololá	710	Panajachel	8	Panajachel	12	Diciembre	2023-12-22T00:00:00	2024-11-08T09:00:00	6	Velocidad del viento	1.6
79426	7	Sololá	710	Panajachel	8	Panajachel	12	Diciembre	2023-12-22T00:00:00	2024-11-08T09:00:00	7	Dirección del viento	1.61
79427	7	Sololá	710	Panajachel	8	Panajachel	12	Diciembre	2023-12-22T00:00:00	2024-11-08T09:00:00	1	Precipitación	0
79428	7	Sololá	710	Panajachel	8	Panajachel	12	Diciembre	2023-12-22T00:00:00	2024-11-08T09:00:00	8	Radiación solar	382
79429	7	Sololá	710	Panajachel	8	Panajachel	12	Diciembre	2023-12-22T00:00:00	2024-11-08T10:00:00	2	Temperatura media	21.6
79430	7	Sololá	710	Panajachel	8	Panajachel	12	Diciembre	2023-12-22T00:00:00	2024-11-08T10:00:00	4	Temperatura máxima	22.8
79431	7	Sololá	710	Panajachel	8	Panajachel	12	Diciembre	2023-12-22T00:00:00	2024-11-08T10:00:00	3	Temperatura mínima	21.4
79432	7	Sololá	710	Panajachel	8	Panajachel	12	Diciembre	2023-12-22T00:00:00	2024-11-08T10:00:00	5	Humedad	63
79433	7	Sololá	710	Panajachel	8	Panajachel	12	Diciembre	2023-12-22T00:00:00	2024-11-08T10:00:00	6	Velocidad del viento	1.6
79434	7	Sololá	710	Panajachel	8	Panajachel	12	Diciembre	2023-12-22T00:00:00	2024-11-08T10:00:00	7	Dirección del viento	1.61
79435	7	Sololá	710	Panajachel	8	Panajachel	12	Diciembre	2023-12-22T00:00:00	2024-11-08T10:00:00	1	Precipitación	0
79436	7	Sololá	710	Panajachel	8	Panajachel	12	Diciembre	2023-12-22T00:00:00	2024-11-08T10:00:00	8	Radiación solar	549
79437	7	Sololá	710	Panajachel	8	Panajachel	12	Diciembre	2023-12-22T00:00:00	2024-11-08T11:00:00	2	Temperatura media	23.6
79438	7	Sololá	710	Panajachel	8	Panajachel	12	Diciembre	2023-12-22T00:00:00	2024-11-08T11:00:00	4	Temperatura máxima	23.6
79439	7	Sololá	710	Panajachel	8	Panajachel	12	Diciembre	2023-12-22T00:00:00	2024-11-08T11:00:00	3	Temperatura mínima	20.4
79440	7	Sololá	710	Panajachel	8	Panajachel	12	Diciembre	2023-12-22T00:00:00	2024-11-08T11:00:00	5	Humedad	46
79441	7	Sololá	710	Panajachel	8	Panajachel	12	Diciembre	2023-12-22T00:00:00	2024-11-08T11:00:00	6	Velocidad del viento	8
79442	7	Sololá	710	Panajachel	8	Panajachel	12	Diciembre	2023-12-22T00:00:00	2024-11-08T11:00:00	7	Dirección del viento	8.05
79443	7	Sololá	710	Panajachel	8	Panajachel	12	Diciembre	2023-12-22T00:00:00	2024-11-08T11:00:00	1	Precipitación	0
79444	7	Sololá	710	Panajachel	8	Panajachel	12	Diciembre	2023-12-22T00:00:00	2024-11-08T11:00:00	8	Radiación solar	696
79445	7	Sololá	710	Panajachel	8	Panajachel	12	Diciembre	2023-12-22T00:00:00	2024-11-08T12:00:00	2	Temperatura media	23.1
79446	7	Sololá	710	Panajachel	8	Panajachel	12	Diciembre	2023-12-22T00:00:00	2024-11-08T12:00:00	4	Temperatura máxima	24.7
79447	7	Sololá	710	Panajachel	8	Panajachel	12	Diciembre	2023-12-22T00:00:00	2024-11-08T12:00:00	3	Temperatura mínima	22.5
79448	7	Sololá	710	Panajachel	8	Panajachel	12	Diciembre	2023-12-22T00:00:00	2024-11-08T12:00:00	5	Humedad	56
79449	7	Sololá	710	Panajachel	8	Panajachel	12	Diciembre	2023-12-22T00:00:00	2024-11-08T12:00:00	6	Velocidad del viento	4.8
79450	7	Sololá	710	Panajachel	8	Panajachel	12	Diciembre	2023-12-22T00:00:00	2024-11-08T12:00:00	7	Dirección del viento	4.83
79451	7	Sololá	710	Panajachel	8	Panajachel	12	Diciembre	2023-12-22T00:00:00	2024-11-08T12:00:00	1	Precipitación	0
79452	7	Sololá	710	Panajachel	8	Panajachel	12	Diciembre	2023-12-22T00:00:00	2024-11-08T12:00:00	8	Radiación solar	760
79453	7	Sololá	710	Panajachel	8	Panajachel	12	Diciembre	2023-12-22T00:00:00	2024-11-08T13:00:00	2	Temperatura media	25.6
79454	7	Sololá	710	Panajachel	8	Panajachel	12	Diciembre	2023-12-22T00:00:00	2024-11-08T13:00:00	4	Temperatura máxima	25.7
79455	7	Sololá	710	Panajachel	8	Panajachel	12	Diciembre	2023-12-22T00:00:00	2024-11-08T13:00:00	3	Temperatura mínima	22.8
79456	7	Sololá	710	Panajachel	8	Panajachel	12	Diciembre	2023-12-22T00:00:00	2024-11-08T13:00:00	5	Humedad	46
79457	7	Sololá	710	Panajachel	8	Panajachel	12	Diciembre	2023-12-22T00:00:00	2024-11-08T13:00:00	6	Velocidad del viento	4.8
79458	7	Sololá	710	Panajachel	8	Panajachel	12	Diciembre	2023-12-22T00:00:00	2024-11-08T13:00:00	7	Dirección del viento	4.83
79459	7	Sololá	710	Panajachel	8	Panajachel	12	Diciembre	2023-12-22T00:00:00	2024-11-08T13:00:00	1	Precipitación	0
79460	7	Sololá	710	Panajachel	8	Panajachel	12	Diciembre	2023-12-22T00:00:00	2024-11-08T13:00:00	8	Radiación solar	727
79461	7	Sololá	710	Panajachel	8	Panajachel	12	Diciembre	2023-12-22T00:00:00	2024-11-08T14:00:00	2	Temperatura media	25.8
79462	7	Sololá	710	Panajachel	8	Panajachel	12	Diciembre	2023-12-22T00:00:00	2024-11-08T14:00:00	4	Temperatura máxima	25.9
79463	7	Sololá	710	Panajachel	8	Panajachel	12	Diciembre	2023-12-22T00:00:00	2024-11-08T14:00:00	3	Temperatura mínima	25.1
79464	7	Sololá	710	Panajachel	8	Panajachel	12	Diciembre	2023-12-22T00:00:00	2024-11-08T14:00:00	5	Humedad	51
79465	7	Sololá	710	Panajachel	8	Panajachel	12	Diciembre	2023-12-22T00:00:00	2024-11-08T14:00:00	6	Velocidad del viento	3.2
79466	7	Sololá	710	Panajachel	8	Panajachel	12	Diciembre	2023-12-22T00:00:00	2024-11-08T14:00:00	7	Dirección del viento	3.22
79467	7	Sololá	710	Panajachel	8	Panajachel	12	Diciembre	2023-12-22T00:00:00	2024-11-08T14:00:00	1	Precipitación	0
79468	7	Sololá	710	Panajachel	8	Panajachel	12	Diciembre	2023-12-22T00:00:00	2024-11-08T14:00:00	8	Radiación solar	653
79469	7	Sololá	710	Panajachel	8	Panajachel	12	Diciembre	2023-12-22T00:00:00	2024-11-08T15:00:00	2	Temperatura media	25.1
79470	7	Sololá	710	Panajachel	8	Panajachel	12	Diciembre	2023-12-22T00:00:00	2024-11-08T15:00:00	4	Temperatura máxima	26.2
79471	7	Sololá	710	Panajachel	8	Panajachel	12	Diciembre	2023-12-22T00:00:00	2024-11-08T15:00:00	3	Temperatura mínima	24.2
79472	7	Sololá	710	Panajachel	8	Panajachel	12	Diciembre	2023-12-22T00:00:00	2024-11-08T15:00:00	5	Humedad	63
79473	7	Sololá	710	Panajachel	8	Panajachel	12	Diciembre	2023-12-22T00:00:00	2024-11-08T15:00:00	6	Velocidad del viento	4.8
79474	7	Sololá	710	Panajachel	8	Panajachel	12	Diciembre	2023-12-22T00:00:00	2024-11-08T15:00:00	7	Dirección del viento	4.83
79475	7	Sololá	710	Panajachel	8	Panajachel	12	Diciembre	2023-12-22T00:00:00	2024-11-08T15:00:00	1	Precipitación	0
79476	7	Sololá	710	Panajachel	8	Panajachel	12	Diciembre	2023-12-22T00:00:00	2024-11-08T15:00:00	8	Radiación solar	575
79477	7	Sololá	710	Panajachel	8	Panajachel	12	Diciembre	2023-12-22T00:00:00	2024-11-08T16:00:00	2	Temperatura media	25.1
79478	7	Sololá	710	Panajachel	8	Panajachel	12	Diciembre	2023-12-22T00:00:00	2024-11-08T16:00:00	4	Temperatura máxima	25.3
79479	7	Sololá	710	Panajachel	8	Panajachel	12	Diciembre	2023-12-22T00:00:00	2024-11-08T16:00:00	3	Temperatura mínima	24.9
79480	7	Sololá	710	Panajachel	8	Panajachel	12	Diciembre	2023-12-22T00:00:00	2024-11-08T16:00:00	5	Humedad	51
79481	7	Sololá	710	Panajachel	8	Panajachel	12	Diciembre	2023-12-22T00:00:00	2024-11-08T16:00:00	6	Velocidad del viento	4.8
79482	7	Sololá	710	Panajachel	8	Panajachel	12	Diciembre	2023-12-22T00:00:00	2024-11-08T16:00:00	7	Dirección del viento	4.83
79483	7	Sololá	710	Panajachel	8	Panajachel	12	Diciembre	2023-12-22T00:00:00	2024-11-08T16:00:00	1	Precipitación	0
79484	7	Sololá	710	Panajachel	8	Panajachel	12	Diciembre	2023-12-22T00:00:00	2024-11-08T16:00:00	8	Radiación solar	409
79485	7	Sololá	710	Panajachel	8	Panajachel	12	Diciembre	2023-12-22T00:00:00	2024-11-08T17:00:00	2	Temperatura media	22.3
79486	7	Sololá	710	Panajachel	8	Panajachel	12	Diciembre	2023-12-22T00:00:00	2024-11-08T17:00:00	4	Temperatura máxima	25.2
79487	7	Sololá	710	Panajachel	8	Panajachel	12	Diciembre	2023-12-22T00:00:00	2024-11-08T17:00:00	3	Temperatura mínima	22.3
79488	7	Sololá	710	Panajachel	8	Panajachel	12	Diciembre	2023-12-22T00:00:00	2024-11-08T17:00:00	5	Humedad	60
79489	7	Sololá	710	Panajachel	8	Panajachel	12	Diciembre	2023-12-22T00:00:00	2024-11-08T17:00:00	6	Velocidad del viento	6.4
79490	7	Sololá	710	Panajachel	8	Panajachel	12	Diciembre	2023-12-22T00:00:00	2024-11-08T17:00:00	7	Dirección del viento	6.44
79491	7	Sololá	710	Panajachel	8	Panajachel	12	Diciembre	2023-12-22T00:00:00	2024-11-08T17:00:00	1	Precipitación	0
79492	7	Sololá	710	Panajachel	8	Panajachel	12	Diciembre	2023-12-22T00:00:00	2024-11-08T17:00:00	8	Radiación solar	147
79493	7	Sololá	710	Panajachel	8	Panajachel	12	Diciembre	2023-12-22T00:00:00	2024-11-08T18:00:00	2	Temperatura media	20.7
79494	7	Sololá	710	Panajachel	8	Panajachel	12	Diciembre	2023-12-22T00:00:00	2024-11-08T18:00:00	4	Temperatura máxima	22.3
79495	7	Sololá	710	Panajachel	8	Panajachel	12	Diciembre	2023-12-22T00:00:00	2024-11-08T18:00:00	3	Temperatura mínima	20.7
79496	7	Sololá	710	Panajachel	8	Panajachel	12	Diciembre	2023-12-22T00:00:00	2024-11-08T18:00:00	5	Humedad	64
79497	7	Sololá	710	Panajachel	8	Panajachel	12	Diciembre	2023-12-22T00:00:00	2024-11-08T18:00:00	6	Velocidad del viento	12.9
79498	7	Sololá	710	Panajachel	8	Panajachel	12	Diciembre	2023-12-22T00:00:00	2024-11-08T18:00:00	7	Dirección del viento	12.87
79499	7	Sololá	710	Panajachel	8	Panajachel	12	Diciembre	2023-12-22T00:00:00	2024-11-08T18:00:00	1	Precipitación	0
79500	7	Sololá	710	Panajachel	8	Panajachel	12	Diciembre	2023-12-22T00:00:00	2024-11-08T18:00:00	8	Radiación solar	27
79501	7	Sololá	710	Panajachel	8	Panajachel	12	Diciembre	2023-12-22T00:00:00	2024-11-08T19:00:00	2	Temperatura media	20.2
79502	7	Sololá	710	Panajachel	8	Panajachel	12	Diciembre	2023-12-22T00:00:00	2024-11-08T19:00:00	4	Temperatura máxima	20.7
79503	7	Sololá	710	Panajachel	8	Panajachel	12	Diciembre	2023-12-22T00:00:00	2024-11-08T19:00:00	3	Temperatura mínima	20.2
79504	7	Sololá	710	Panajachel	8	Panajachel	12	Diciembre	2023-12-22T00:00:00	2024-11-08T19:00:00	5	Humedad	64
79505	7	Sololá	710	Panajachel	8	Panajachel	12	Diciembre	2023-12-22T00:00:00	2024-11-08T19:00:00	6	Velocidad del viento	9.7
79506	7	Sololá	710	Panajachel	8	Panajachel	12	Diciembre	2023-12-22T00:00:00	2024-11-08T19:00:00	7	Dirección del viento	9.66
79507	7	Sololá	710	Panajachel	8	Panajachel	12	Diciembre	2023-12-22T00:00:00	2024-11-08T19:00:00	1	Precipitación	0
79508	7	Sololá	710	Panajachel	8	Panajachel	12	Diciembre	2023-12-22T00:00:00	2024-11-08T19:00:00	8	Radiación solar	0
79509	7	Sololá	710	Panajachel	8	Panajachel	12	Diciembre	2023-12-22T00:00:00	2024-11-08T20:00:00	2	Temperatura media	18.9
79510	7	Sololá	710	Panajachel	8	Panajachel	12	Diciembre	2023-12-22T00:00:00	2024-11-08T20:00:00	4	Temperatura máxima	20.1
79511	7	Sololá	710	Panajachel	8	Panajachel	12	Diciembre	2023-12-22T00:00:00	2024-11-08T20:00:00	3	Temperatura mínima	18.9
79512	7	Sololá	710	Panajachel	8	Panajachel	12	Diciembre	2023-12-22T00:00:00	2024-11-08T20:00:00	5	Humedad	69
79513	7	Sololá	710	Panajachel	8	Panajachel	12	Diciembre	2023-12-22T00:00:00	2024-11-08T20:00:00	6	Velocidad del viento	3.2
79514	7	Sololá	710	Panajachel	8	Panajachel	12	Diciembre	2023-12-22T00:00:00	2024-11-08T20:00:00	7	Dirección del viento	3.22
79515	7	Sololá	710	Panajachel	8	Panajachel	12	Diciembre	2023-12-22T00:00:00	2024-11-08T20:00:00	1	Precipitación	0
79516	7	Sololá	710	Panajachel	8	Panajachel	12	Diciembre	2023-12-22T00:00:00	2024-11-08T20:00:00	8	Radiación solar	0
79517	7	Sololá	710	Panajachel	8	Panajachel	12	Diciembre	2023-12-22T00:00:00	2024-11-08T21:00:00	2	Temperatura media	18.2
79518	7	Sololá	710	Panajachel	8	Panajachel	12	Diciembre	2023-12-22T00:00:00	2024-11-08T21:00:00	4	Temperatura máxima	19
79519	7	Sololá	710	Panajachel	8	Panajachel	12	Diciembre	2023-12-22T00:00:00	2024-11-08T21:00:00	3	Temperatura mínima	18.2
79520	7	Sololá	710	Panajachel	8	Panajachel	12	Diciembre	2023-12-22T00:00:00	2024-11-08T21:00:00	5	Humedad	72
79521	7	Sololá	710	Panajachel	8	Panajachel	12	Diciembre	2023-12-22T00:00:00	2024-11-08T21:00:00	6	Velocidad del viento	3.2
79522	7	Sololá	710	Panajachel	8	Panajachel	12	Diciembre	2023-12-22T00:00:00	2024-11-08T21:00:00	7	Dirección del viento	3.22
79523	7	Sololá	710	Panajachel	8	Panajachel	12	Diciembre	2023-12-22T00:00:00	2024-11-08T21:00:00	1	Precipitación	0
79524	7	Sololá	710	Panajachel	8	Panajachel	12	Diciembre	2023-12-22T00:00:00	2024-11-08T21:00:00	8	Radiación solar	0
79525	7	Sololá	710	Panajachel	8	Panajachel	12	Diciembre	2023-12-22T00:00:00	2024-11-08T22:00:00	2	Temperatura media	18.2
79526	7	Sololá	710	Panajachel	8	Panajachel	12	Diciembre	2023-12-22T00:00:00	2024-11-08T22:00:00	4	Temperatura máxima	18.3
79527	7	Sololá	710	Panajachel	8	Panajachel	12	Diciembre	2023-12-22T00:00:00	2024-11-08T22:00:00	3	Temperatura mínima	18
79528	7	Sololá	710	Panajachel	8	Panajachel	12	Diciembre	2023-12-22T00:00:00	2024-11-08T22:00:00	5	Humedad	72
79529	7	Sololá	710	Panajachel	8	Panajachel	12	Diciembre	2023-12-22T00:00:00	2024-11-08T22:00:00	6	Velocidad del viento	1.6
79530	7	Sololá	710	Panajachel	8	Panajachel	12	Diciembre	2023-12-22T00:00:00	2024-11-08T22:00:00	7	Dirección del viento	1.61
79531	7	Sololá	710	Panajachel	8	Panajachel	12	Diciembre	2023-12-22T00:00:00	2024-11-08T22:00:00	1	Precipitación	0
79532	7	Sololá	710	Panajachel	8	Panajachel	12	Diciembre	2023-12-22T00:00:00	2024-11-08T22:00:00	8	Radiación solar	0
79533	7	Sololá	710	Panajachel	8	Panajachel	12	Diciembre	2023-12-22T00:00:00	2024-11-08T23:00:00	2	Temperatura media	18.3
79534	7	Sololá	710	Panajachel	8	Panajachel	12	Diciembre	2023-12-22T00:00:00	2024-11-08T23:00:00	4	Temperatura máxima	18.3
79535	7	Sololá	710	Panajachel	8	Panajachel	12	Diciembre	2023-12-22T00:00:00	2024-11-08T23:00:00	3	Temperatura mínima	17.7
79536	7	Sololá	710	Panajachel	8	Panajachel	12	Diciembre	2023-12-22T00:00:00	2024-11-08T23:00:00	5	Humedad	72
79537	7	Sololá	710	Panajachel	8	Panajachel	12	Diciembre	2023-12-22T00:00:00	2024-11-08T23:00:00	6	Velocidad del viento	0
79538	7	Sololá	710	Panajachel	8	Panajachel	12	Diciembre	2023-12-22T00:00:00	2024-11-08T23:00:00	7	Dirección del viento	0
79539	7	Sololá	710	Panajachel	8	Panajachel	12	Diciembre	2023-12-22T00:00:00	2024-11-08T23:00:00	1	Precipitación	0
79540	7	Sololá	710	Panajachel	8	Panajachel	12	Diciembre	2023-12-22T00:00:00	2024-11-08T23:00:00	8	Radiación solar	0
79541	7	Sololá	710	Panajachel	8	Panajachel	12	Diciembre	2023-12-23T00:00:00	2024-11-08T00:00:00	2	Temperatura media	18.4
79542	7	Sololá	710	Panajachel	8	Panajachel	12	Diciembre	2023-12-23T00:00:00	2024-11-08T00:00:00	4	Temperatura máxima	18.7
79543	7	Sololá	710	Panajachel	8	Panajachel	12	Diciembre	2023-12-23T00:00:00	2024-11-08T00:00:00	3	Temperatura mínima	18.2
79544	7	Sololá	710	Panajachel	8	Panajachel	12	Diciembre	2023-12-23T00:00:00	2024-11-08T00:00:00	5	Humedad	71
79545	7	Sololá	710	Panajachel	8	Panajachel	12	Diciembre	2023-12-23T00:00:00	2024-11-08T00:00:00	6	Velocidad del viento	1.6
79546	7	Sololá	710	Panajachel	8	Panajachel	12	Diciembre	2023-12-23T00:00:00	2024-11-08T00:00:00	7	Dirección del viento	1.61
79547	7	Sololá	710	Panajachel	8	Panajachel	12	Diciembre	2023-12-23T00:00:00	2024-11-08T00:00:00	1	Precipitación	0
79548	7	Sololá	710	Panajachel	8	Panajachel	12	Diciembre	2023-12-23T00:00:00	2024-11-08T00:00:00	8	Radiación solar	0
79549	7	Sololá	710	Panajachel	8	Panajachel	12	Diciembre	2023-12-23T00:00:00	2024-11-08T01:00:00	2	Temperatura media	17.9
79550	7	Sololá	710	Panajachel	8	Panajachel	12	Diciembre	2023-12-23T00:00:00	2024-11-08T01:00:00	4	Temperatura máxima	18.4
79551	7	Sololá	710	Panajachel	8	Panajachel	12	Diciembre	2023-12-23T00:00:00	2024-11-08T01:00:00	3	Temperatura mínima	17.8
79552	7	Sololá	710	Panajachel	8	Panajachel	12	Diciembre	2023-12-23T00:00:00	2024-11-08T01:00:00	5	Humedad	73
79553	7	Sololá	710	Panajachel	8	Panajachel	12	Diciembre	2023-12-23T00:00:00	2024-11-08T01:00:00	6	Velocidad del viento	4.8
79554	7	Sololá	710	Panajachel	8	Panajachel	12	Diciembre	2023-12-23T00:00:00	2024-11-08T01:00:00	7	Dirección del viento	4.83
79555	7	Sololá	710	Panajachel	8	Panajachel	12	Diciembre	2023-12-23T00:00:00	2024-11-08T01:00:00	1	Precipitación	0
79556	7	Sololá	710	Panajachel	8	Panajachel	12	Diciembre	2023-12-23T00:00:00	2024-11-08T01:00:00	8	Radiación solar	0
79557	7	Sololá	710	Panajachel	8	Panajachel	12	Diciembre	2023-12-23T00:00:00	2024-11-08T02:00:00	2	Temperatura media	17.7
79558	7	Sololá	710	Panajachel	8	Panajachel	12	Diciembre	2023-12-23T00:00:00	2024-11-08T02:00:00	4	Temperatura máxima	18
79559	7	Sololá	710	Panajachel	8	Panajachel	12	Diciembre	2023-12-23T00:00:00	2024-11-08T02:00:00	3	Temperatura mínima	17.5
79560	7	Sololá	710	Panajachel	8	Panajachel	12	Diciembre	2023-12-23T00:00:00	2024-11-08T02:00:00	5	Humedad	74
79561	7	Sololá	710	Panajachel	8	Panajachel	12	Diciembre	2023-12-23T00:00:00	2024-11-08T02:00:00	6	Velocidad del viento	4.8
79562	7	Sololá	710	Panajachel	8	Panajachel	12	Diciembre	2023-12-23T00:00:00	2024-11-08T02:00:00	7	Dirección del viento	4.83
79563	7	Sololá	710	Panajachel	8	Panajachel	12	Diciembre	2023-12-23T00:00:00	2024-11-08T02:00:00	1	Precipitación	0
79564	7	Sololá	710	Panajachel	8	Panajachel	12	Diciembre	2023-12-23T00:00:00	2024-11-08T02:00:00	8	Radiación solar	0
79565	7	Sololá	710	Panajachel	8	Panajachel	12	Diciembre	2023-12-23T00:00:00	2024-11-08T03:00:00	2	Temperatura media	17.3
79566	7	Sololá	710	Panajachel	8	Panajachel	12	Diciembre	2023-12-23T00:00:00	2024-11-08T03:00:00	4	Temperatura máxima	17.7
79567	7	Sololá	710	Panajachel	8	Panajachel	12	Diciembre	2023-12-23T00:00:00	2024-11-08T03:00:00	3	Temperatura mínima	17.3
79568	7	Sololá	710	Panajachel	8	Panajachel	12	Diciembre	2023-12-23T00:00:00	2024-11-08T03:00:00	5	Humedad	74
79569	7	Sololá	710	Panajachel	8	Panajachel	12	Diciembre	2023-12-23T00:00:00	2024-11-08T03:00:00	6	Velocidad del viento	4.8
79570	7	Sololá	710	Panajachel	8	Panajachel	12	Diciembre	2023-12-23T00:00:00	2024-11-08T03:00:00	7	Dirección del viento	4.83
79571	7	Sololá	710	Panajachel	8	Panajachel	12	Diciembre	2023-12-23T00:00:00	2024-11-08T03:00:00	1	Precipitación	0
79572	7	Sololá	710	Panajachel	8	Panajachel	12	Diciembre	2023-12-23T00:00:00	2024-11-08T03:00:00	8	Radiación solar	0
79573	7	Sololá	710	Panajachel	8	Panajachel	12	Diciembre	2023-12-23T00:00:00	2024-11-08T04:00:00	2	Temperatura media	16.6
79574	7	Sololá	710	Panajachel	8	Panajachel	12	Diciembre	2023-12-23T00:00:00	2024-11-08T04:00:00	4	Temperatura máxima	17.3
79575	7	Sololá	710	Panajachel	8	Panajachel	12	Diciembre	2023-12-23T00:00:00	2024-11-08T04:00:00	3	Temperatura mínima	16.6
79576	7	Sololá	710	Panajachel	8	Panajachel	12	Diciembre	2023-12-23T00:00:00	2024-11-08T04:00:00	5	Humedad	77
79577	7	Sololá	710	Panajachel	8	Panajachel	12	Diciembre	2023-12-23T00:00:00	2024-11-08T04:00:00	6	Velocidad del viento	3.2
79578	7	Sololá	710	Panajachel	8	Panajachel	12	Diciembre	2023-12-23T00:00:00	2024-11-08T04:00:00	7	Dirección del viento	3.22
79579	7	Sololá	710	Panajachel	8	Panajachel	12	Diciembre	2023-12-23T00:00:00	2024-11-08T04:00:00	1	Precipitación	0
79580	7	Sololá	710	Panajachel	8	Panajachel	12	Diciembre	2023-12-23T00:00:00	2024-11-08T04:00:00	8	Radiación solar	0
79581	7	Sololá	710	Panajachel	8	Panajachel	12	Diciembre	2023-12-23T00:00:00	2024-11-08T05:00:00	2	Temperatura media	16.8
79582	7	Sololá	710	Panajachel	8	Panajachel	12	Diciembre	2023-12-23T00:00:00	2024-11-08T05:00:00	4	Temperatura máxima	16.8
79583	7	Sololá	710	Panajachel	8	Panajachel	12	Diciembre	2023-12-23T00:00:00	2024-11-08T05:00:00	3	Temperatura mínima	16.4
79584	7	Sololá	710	Panajachel	8	Panajachel	12	Diciembre	2023-12-23T00:00:00	2024-11-08T05:00:00	5	Humedad	76
79585	7	Sololá	710	Panajachel	8	Panajachel	12	Diciembre	2023-12-23T00:00:00	2024-11-08T05:00:00	6	Velocidad del viento	4.8
79586	7	Sololá	710	Panajachel	8	Panajachel	12	Diciembre	2023-12-23T00:00:00	2024-11-08T05:00:00	7	Dirección del viento	4.83
79587	7	Sololá	710	Panajachel	8	Panajachel	12	Diciembre	2023-12-23T00:00:00	2024-11-08T05:00:00	1	Precipitación	0
79588	7	Sololá	710	Panajachel	8	Panajachel	12	Diciembre	2023-12-23T00:00:00	2024-11-08T05:00:00	8	Radiación solar	0
79589	7	Sololá	710	Panajachel	8	Panajachel	12	Diciembre	2023-12-23T00:00:00	2024-11-08T06:00:00	2	Temperatura media	17.1
79590	7	Sololá	710	Panajachel	8	Panajachel	12	Diciembre	2023-12-23T00:00:00	2024-11-08T06:00:00	4	Temperatura máxima	17.1
79591	7	Sololá	710	Panajachel	8	Panajachel	12	Diciembre	2023-12-23T00:00:00	2024-11-08T06:00:00	3	Temperatura mínima	16.8
79592	7	Sololá	710	Panajachel	8	Panajachel	12	Diciembre	2023-12-23T00:00:00	2024-11-08T06:00:00	5	Humedad	75
79593	7	Sololá	710	Panajachel	8	Panajachel	12	Diciembre	2023-12-23T00:00:00	2024-11-08T06:00:00	6	Velocidad del viento	4.8
79594	7	Sololá	710	Panajachel	8	Panajachel	12	Diciembre	2023-12-23T00:00:00	2024-11-08T06:00:00	7	Dirección del viento	4.83
79595	7	Sololá	710	Panajachel	8	Panajachel	12	Diciembre	2023-12-23T00:00:00	2024-11-08T06:00:00	1	Precipitación	0
79596	7	Sololá	710	Panajachel	8	Panajachel	12	Diciembre	2023-12-23T00:00:00	2024-11-08T06:00:00	8	Radiación solar	0
79597	7	Sololá	710	Panajachel	8	Panajachel	12	Diciembre	2023-12-23T00:00:00	2024-11-08T07:00:00	2	Temperatura media	17
79598	7	Sololá	710	Panajachel	8	Panajachel	12	Diciembre	2023-12-23T00:00:00	2024-11-08T07:00:00	4	Temperatura máxima	17.1
79599	7	Sololá	710	Panajachel	8	Panajachel	12	Diciembre	2023-12-23T00:00:00	2024-11-08T07:00:00	3	Temperatura mínima	16.7
79600	7	Sololá	710	Panajachel	8	Panajachel	12	Diciembre	2023-12-23T00:00:00	2024-11-08T07:00:00	5	Humedad	75
79601	7	Sololá	710	Panajachel	8	Panajachel	12	Diciembre	2023-12-23T00:00:00	2024-11-08T07:00:00	6	Velocidad del viento	1.6
79602	7	Sololá	710	Panajachel	8	Panajachel	12	Diciembre	2023-12-23T00:00:00	2024-11-08T07:00:00	7	Dirección del viento	1.61
79603	7	Sololá	710	Panajachel	8	Panajachel	12	Diciembre	2023-12-23T00:00:00	2024-11-08T07:00:00	1	Precipitación	0
79604	7	Sololá	710	Panajachel	8	Panajachel	12	Diciembre	2023-12-23T00:00:00	2024-11-08T07:00:00	8	Radiación solar	4
79605	7	Sololá	710	Panajachel	8	Panajachel	12	Diciembre	2023-12-23T00:00:00	2024-11-08T08:00:00	2	Temperatura media	19.1
79606	7	Sololá	710	Panajachel	8	Panajachel	12	Diciembre	2023-12-23T00:00:00	2024-11-08T08:00:00	4	Temperatura máxima	19.1
79607	7	Sololá	710	Panajachel	8	Panajachel	12	Diciembre	2023-12-23T00:00:00	2024-11-08T08:00:00	3	Temperatura mínima	16.9
79608	7	Sololá	710	Panajachel	8	Panajachel	12	Diciembre	2023-12-23T00:00:00	2024-11-08T08:00:00	5	Humedad	70
79609	7	Sololá	710	Panajachel	8	Panajachel	12	Diciembre	2023-12-23T00:00:00	2024-11-08T08:00:00	6	Velocidad del viento	3.2
79610	7	Sololá	710	Panajachel	8	Panajachel	12	Diciembre	2023-12-23T00:00:00	2024-11-08T08:00:00	7	Dirección del viento	3.22
79611	7	Sololá	710	Panajachel	8	Panajachel	12	Diciembre	2023-12-23T00:00:00	2024-11-08T08:00:00	1	Precipitación	0
79612	7	Sololá	710	Panajachel	8	Panajachel	12	Diciembre	2023-12-23T00:00:00	2024-11-08T08:00:00	8	Radiación solar	156
79613	7	Sololá	710	Panajachel	8	Panajachel	12	Diciembre	2023-12-23T00:00:00	2024-11-08T09:00:00	2	Temperatura media	21.9
79614	7	Sololá	710	Panajachel	8	Panajachel	12	Diciembre	2023-12-23T00:00:00	2024-11-08T09:00:00	4	Temperatura máxima	21.9
79615	7	Sololá	710	Panajachel	8	Panajachel	12	Diciembre	2023-12-23T00:00:00	2024-11-08T09:00:00	3	Temperatura mínima	19.1
79616	7	Sololá	710	Panajachel	8	Panajachel	12	Diciembre	2023-12-23T00:00:00	2024-11-08T09:00:00	5	Humedad	65
79617	7	Sololá	710	Panajachel	8	Panajachel	12	Diciembre	2023-12-23T00:00:00	2024-11-08T09:00:00	6	Velocidad del viento	4.8
79618	7	Sololá	710	Panajachel	8	Panajachel	12	Diciembre	2023-12-23T00:00:00	2024-11-08T09:00:00	7	Dirección del viento	4.83
79619	7	Sololá	710	Panajachel	8	Panajachel	12	Diciembre	2023-12-23T00:00:00	2024-11-08T09:00:00	1	Precipitación	0
79620	7	Sololá	710	Panajachel	8	Panajachel	12	Diciembre	2023-12-23T00:00:00	2024-11-08T09:00:00	8	Radiación solar	378
79621	7	Sololá	710	Panajachel	8	Panajachel	12	Diciembre	2023-12-23T00:00:00	2024-11-08T10:00:00	2	Temperatura media	20.3
79622	7	Sololá	710	Panajachel	8	Panajachel	12	Diciembre	2023-12-23T00:00:00	2024-11-08T10:00:00	4	Temperatura máxima	22
79623	7	Sololá	710	Panajachel	8	Panajachel	12	Diciembre	2023-12-23T00:00:00	2024-11-08T10:00:00	3	Temperatura mínima	20
79624	7	Sololá	710	Panajachel	8	Panajachel	12	Diciembre	2023-12-23T00:00:00	2024-11-08T10:00:00	5	Humedad	73
79625	7	Sololá	710	Panajachel	8	Panajachel	12	Diciembre	2023-12-23T00:00:00	2024-11-08T10:00:00	6	Velocidad del viento	4.8
79626	7	Sololá	710	Panajachel	8	Panajachel	12	Diciembre	2023-12-23T00:00:00	2024-11-08T10:00:00	7	Dirección del viento	4.83
79627	7	Sololá	710	Panajachel	8	Panajachel	12	Diciembre	2023-12-23T00:00:00	2024-11-08T10:00:00	1	Precipitación	0
79628	7	Sololá	710	Panajachel	8	Panajachel	12	Diciembre	2023-12-23T00:00:00	2024-11-08T10:00:00	8	Radiación solar	552
79629	7	Sololá	710	Panajachel	8	Panajachel	12	Diciembre	2023-12-23T00:00:00	2024-11-08T11:00:00	2	Temperatura media	22.3
79630	7	Sololá	710	Panajachel	8	Panajachel	12	Diciembre	2023-12-23T00:00:00	2024-11-08T11:00:00	4	Temperatura máxima	22.3
79631	7	Sololá	710	Panajachel	8	Panajachel	12	Diciembre	2023-12-23T00:00:00	2024-11-08T11:00:00	3	Temperatura mínima	20.3
79632	7	Sololá	710	Panajachel	8	Panajachel	12	Diciembre	2023-12-23T00:00:00	2024-11-08T11:00:00	5	Humedad	66
79633	7	Sololá	710	Panajachel	8	Panajachel	12	Diciembre	2023-12-23T00:00:00	2024-11-08T11:00:00	6	Velocidad del viento	3.2
79634	7	Sololá	710	Panajachel	8	Panajachel	12	Diciembre	2023-12-23T00:00:00	2024-11-08T11:00:00	7	Dirección del viento	3.22
79635	7	Sololá	710	Panajachel	8	Panajachel	12	Diciembre	2023-12-23T00:00:00	2024-11-08T11:00:00	1	Precipitación	0
79636	7	Sololá	710	Panajachel	8	Panajachel	12	Diciembre	2023-12-23T00:00:00	2024-11-08T11:00:00	8	Radiación solar	687
79637	7	Sololá	710	Panajachel	8	Panajachel	12	Diciembre	2023-12-23T00:00:00	2024-11-08T12:00:00	2	Temperatura media	22.7
79638	7	Sololá	710	Panajachel	8	Panajachel	12	Diciembre	2023-12-23T00:00:00	2024-11-08T12:00:00	4	Temperatura máxima	22.7
79639	7	Sololá	710	Panajachel	8	Panajachel	12	Diciembre	2023-12-23T00:00:00	2024-11-08T12:00:00	3	Temperatura mínima	21.7
79640	7	Sololá	710	Panajachel	8	Panajachel	12	Diciembre	2023-12-23T00:00:00	2024-11-08T12:00:00	5	Humedad	67
79641	7	Sololá	710	Panajachel	8	Panajachel	12	Diciembre	2023-12-23T00:00:00	2024-11-08T12:00:00	6	Velocidad del viento	8
79642	7	Sololá	710	Panajachel	8	Panajachel	12	Diciembre	2023-12-23T00:00:00	2024-11-08T12:00:00	7	Dirección del viento	8.05
79643	7	Sololá	710	Panajachel	8	Panajachel	12	Diciembre	2023-12-23T00:00:00	2024-11-08T12:00:00	1	Precipitación	0
79644	7	Sololá	710	Panajachel	8	Panajachel	12	Diciembre	2023-12-23T00:00:00	2024-11-08T12:00:00	8	Radiación solar	767
79645	7	Sololá	710	Panajachel	8	Panajachel	12	Diciembre	2023-12-23T00:00:00	2024-11-08T13:00:00	2	Temperatura media	23.4
79646	7	Sololá	710	Panajachel	8	Panajachel	12	Diciembre	2023-12-23T00:00:00	2024-11-08T13:00:00	4	Temperatura máxima	24.4
79647	7	Sololá	710	Panajachel	8	Panajachel	12	Diciembre	2023-12-23T00:00:00	2024-11-08T13:00:00	3	Temperatura mínima	22.7
79648	7	Sololá	710	Panajachel	8	Panajachel	12	Diciembre	2023-12-23T00:00:00	2024-11-08T13:00:00	5	Humedad	64
79649	7	Sololá	710	Panajachel	8	Panajachel	12	Diciembre	2023-12-23T00:00:00	2024-11-08T13:00:00	6	Velocidad del viento	4.8
79650	7	Sololá	710	Panajachel	8	Panajachel	12	Diciembre	2023-12-23T00:00:00	2024-11-08T13:00:00	7	Dirección del viento	4.83
79651	7	Sololá	710	Panajachel	8	Panajachel	12	Diciembre	2023-12-23T00:00:00	2024-11-08T13:00:00	1	Precipitación	0
79652	7	Sololá	710	Panajachel	8	Panajachel	12	Diciembre	2023-12-23T00:00:00	2024-11-08T13:00:00	8	Radiación solar	802
79653	7	Sololá	710	Panajachel	8	Panajachel	12	Diciembre	2023-12-23T00:00:00	2024-11-08T14:00:00	2	Temperatura media	23.8
79654	7	Sololá	710	Panajachel	8	Panajachel	12	Diciembre	2023-12-23T00:00:00	2024-11-08T14:00:00	4	Temperatura máxima	24.1
79655	7	Sololá	710	Panajachel	8	Panajachel	12	Diciembre	2023-12-23T00:00:00	2024-11-08T14:00:00	3	Temperatura mínima	23.2
79656	7	Sololá	710	Panajachel	8	Panajachel	12	Diciembre	2023-12-23T00:00:00	2024-11-08T14:00:00	5	Humedad	73
79657	7	Sololá	710	Panajachel	8	Panajachel	12	Diciembre	2023-12-23T00:00:00	2024-11-08T14:00:00	6	Velocidad del viento	6.4
79658	7	Sololá	710	Panajachel	8	Panajachel	12	Diciembre	2023-12-23T00:00:00	2024-11-08T14:00:00	7	Dirección del viento	6.44
79659	7	Sololá	710	Panajachel	8	Panajachel	12	Diciembre	2023-12-23T00:00:00	2024-11-08T14:00:00	1	Precipitación	0
79660	7	Sololá	710	Panajachel	8	Panajachel	12	Diciembre	2023-12-23T00:00:00	2024-11-08T14:00:00	8	Radiación solar	712
79661	7	Sololá	710	Panajachel	8	Panajachel	12	Diciembre	2023-12-23T00:00:00	2024-11-08T15:00:00	2	Temperatura media	22.8
79662	7	Sololá	710	Panajachel	8	Panajachel	12	Diciembre	2023-12-23T00:00:00	2024-11-08T15:00:00	4	Temperatura máxima	25
79663	7	Sololá	710	Panajachel	8	Panajachel	12	Diciembre	2023-12-23T00:00:00	2024-11-08T15:00:00	3	Temperatura mínima	22.8
79664	7	Sololá	710	Panajachel	8	Panajachel	12	Diciembre	2023-12-23T00:00:00	2024-11-08T15:00:00	5	Humedad	78
79665	7	Sololá	710	Panajachel	8	Panajachel	12	Diciembre	2023-12-23T00:00:00	2024-11-08T15:00:00	6	Velocidad del viento	4.8
79666	7	Sololá	710	Panajachel	8	Panajachel	12	Diciembre	2023-12-23T00:00:00	2024-11-08T15:00:00	7	Dirección del viento	4.83
79667	7	Sololá	710	Panajachel	8	Panajachel	12	Diciembre	2023-12-23T00:00:00	2024-11-08T15:00:00	1	Precipitación	0
79668	7	Sololá	710	Panajachel	8	Panajachel	12	Diciembre	2023-12-23T00:00:00	2024-11-08T15:00:00	8	Radiación solar	573
79669	7	Sololá	710	Panajachel	8	Panajachel	12	Diciembre	2023-12-23T00:00:00	2024-11-08T16:00:00	2	Temperatura media	21
79670	7	Sololá	710	Panajachel	8	Panajachel	12	Diciembre	2023-12-23T00:00:00	2024-11-08T16:00:00	4	Temperatura máxima	22.8
79671	7	Sololá	710	Panajachel	8	Panajachel	12	Diciembre	2023-12-23T00:00:00	2024-11-08T16:00:00	3	Temperatura mínima	20.9
79672	7	Sololá	710	Panajachel	8	Panajachel	12	Diciembre	2023-12-23T00:00:00	2024-11-08T16:00:00	5	Humedad	82
79673	7	Sololá	710	Panajachel	8	Panajachel	12	Diciembre	2023-12-23T00:00:00	2024-11-08T16:00:00	6	Velocidad del viento	9.7
79674	7	Sololá	710	Panajachel	8	Panajachel	12	Diciembre	2023-12-23T00:00:00	2024-11-08T16:00:00	7	Dirección del viento	9.66
79675	7	Sololá	710	Panajachel	8	Panajachel	12	Diciembre	2023-12-23T00:00:00	2024-11-08T16:00:00	1	Precipitación	0
79676	7	Sololá	710	Panajachel	8	Panajachel	12	Diciembre	2023-12-23T00:00:00	2024-11-08T16:00:00	8	Radiación solar	115
79677	7	Sololá	710	Panajachel	8	Panajachel	12	Diciembre	2023-12-23T00:00:00	2024-11-08T17:00:00	2	Temperatura media	20.6
79678	7	Sololá	710	Panajachel	8	Panajachel	12	Diciembre	2023-12-23T00:00:00	2024-11-08T17:00:00	4	Temperatura máxima	21.1
79679	7	Sololá	710	Panajachel	8	Panajachel	12	Diciembre	2023-12-23T00:00:00	2024-11-08T17:00:00	3	Temperatura mínima	20.5
79680	7	Sololá	710	Panajachel	8	Panajachel	12	Diciembre	2023-12-23T00:00:00	2024-11-08T17:00:00	5	Humedad	79
79681	7	Sololá	710	Panajachel	8	Panajachel	12	Diciembre	2023-12-23T00:00:00	2024-11-08T17:00:00	6	Velocidad del viento	6.4
79682	7	Sololá	710	Panajachel	8	Panajachel	12	Diciembre	2023-12-23T00:00:00	2024-11-08T17:00:00	7	Dirección del viento	6.44
79683	7	Sololá	710	Panajachel	8	Panajachel	12	Diciembre	2023-12-23T00:00:00	2024-11-08T17:00:00	1	Precipitación	0
79684	7	Sololá	710	Panajachel	8	Panajachel	12	Diciembre	2023-12-23T00:00:00	2024-11-08T17:00:00	8	Radiación solar	31
79685	7	Sololá	710	Panajachel	8	Panajachel	12	Diciembre	2023-12-23T00:00:00	2024-11-08T18:00:00	2	Temperatura media	20.2
79686	7	Sololá	710	Panajachel	8	Panajachel	12	Diciembre	2023-12-23T00:00:00	2024-11-08T18:00:00	4	Temperatura máxima	20.8
79687	7	Sololá	710	Panajachel	8	Panajachel	12	Diciembre	2023-12-23T00:00:00	2024-11-08T18:00:00	3	Temperatura mínima	20.1
79688	7	Sololá	710	Panajachel	8	Panajachel	12	Diciembre	2023-12-23T00:00:00	2024-11-08T18:00:00	5	Humedad	85
79689	7	Sololá	710	Panajachel	8	Panajachel	12	Diciembre	2023-12-23T00:00:00	2024-11-08T18:00:00	6	Velocidad del viento	0
79690	7	Sololá	710	Panajachel	8	Panajachel	12	Diciembre	2023-12-23T00:00:00	2024-11-08T18:00:00	7	Dirección del viento	0
79691	7	Sololá	710	Panajachel	8	Panajachel	12	Diciembre	2023-12-23T00:00:00	2024-11-08T18:00:00	1	Precipitación	0
79692	7	Sololá	710	Panajachel	8	Panajachel	12	Diciembre	2023-12-23T00:00:00	2024-11-08T18:00:00	8	Radiación solar	10
79693	7	Sololá	710	Panajachel	8	Panajachel	12	Diciembre	2023-12-23T00:00:00	2024-11-08T19:00:00	2	Temperatura media	19.1
79694	7	Sololá	710	Panajachel	8	Panajachel	12	Diciembre	2023-12-23T00:00:00	2024-11-08T19:00:00	4	Temperatura máxima	20.1
79695	7	Sololá	710	Panajachel	8	Panajachel	12	Diciembre	2023-12-23T00:00:00	2024-11-08T19:00:00	3	Temperatura mínima	19
79696	7	Sololá	710	Panajachel	8	Panajachel	12	Diciembre	2023-12-23T00:00:00	2024-11-08T19:00:00	5	Humedad	78
79697	7	Sololá	710	Panajachel	8	Panajachel	12	Diciembre	2023-12-23T00:00:00	2024-11-08T19:00:00	6	Velocidad del viento	0
79698	7	Sololá	710	Panajachel	8	Panajachel	12	Diciembre	2023-12-23T00:00:00	2024-11-08T19:00:00	7	Dirección del viento	0
79699	7	Sololá	710	Panajachel	8	Panajachel	12	Diciembre	2023-12-23T00:00:00	2024-11-08T19:00:00	1	Precipitación	0
79700	7	Sololá	710	Panajachel	8	Panajachel	12	Diciembre	2023-12-23T00:00:00	2024-11-08T19:00:00	8	Radiación solar	0
79701	7	Sololá	710	Panajachel	8	Panajachel	12	Diciembre	2023-12-23T00:00:00	2024-11-08T20:00:00	2	Temperatura media	19.1
79702	7	Sololá	710	Panajachel	8	Panajachel	12	Diciembre	2023-12-23T00:00:00	2024-11-08T20:00:00	4	Temperatura máxima	19.4
79703	7	Sololá	710	Panajachel	8	Panajachel	12	Diciembre	2023-12-23T00:00:00	2024-11-08T20:00:00	3	Temperatura mínima	19.1
79704	7	Sololá	710	Panajachel	8	Panajachel	12	Diciembre	2023-12-23T00:00:00	2024-11-08T20:00:00	5	Humedad	75
79705	7	Sololá	710	Panajachel	8	Panajachel	12	Diciembre	2023-12-23T00:00:00	2024-11-08T20:00:00	6	Velocidad del viento	1.6
79706	7	Sololá	710	Panajachel	8	Panajachel	12	Diciembre	2023-12-23T00:00:00	2024-11-08T20:00:00	7	Dirección del viento	1.61
79707	7	Sololá	710	Panajachel	8	Panajachel	12	Diciembre	2023-12-23T00:00:00	2024-11-08T20:00:00	1	Precipitación	0
79708	7	Sololá	710	Panajachel	8	Panajachel	12	Diciembre	2023-12-23T00:00:00	2024-11-08T20:00:00	8	Radiación solar	0
79709	7	Sololá	710	Panajachel	8	Panajachel	12	Diciembre	2023-12-23T00:00:00	2024-11-08T21:00:00	2	Temperatura media	18.2
79710	7	Sololá	710	Panajachel	8	Panajachel	12	Diciembre	2023-12-23T00:00:00	2024-11-08T21:00:00	4	Temperatura máxima	19.1
79711	7	Sololá	710	Panajachel	8	Panajachel	12	Diciembre	2023-12-23T00:00:00	2024-11-08T21:00:00	3	Temperatura mínima	18.2
79712	7	Sololá	710	Panajachel	8	Panajachel	12	Diciembre	2023-12-23T00:00:00	2024-11-08T21:00:00	5	Humedad	77
79713	7	Sololá	710	Panajachel	8	Panajachel	12	Diciembre	2023-12-23T00:00:00	2024-11-08T21:00:00	6	Velocidad del viento	3.2
79714	7	Sololá	710	Panajachel	8	Panajachel	12	Diciembre	2023-12-23T00:00:00	2024-11-08T21:00:00	7	Dirección del viento	3.22
79715	7	Sololá	710	Panajachel	8	Panajachel	12	Diciembre	2023-12-23T00:00:00	2024-11-08T21:00:00	1	Precipitación	0
79716	7	Sololá	710	Panajachel	8	Panajachel	12	Diciembre	2023-12-23T00:00:00	2024-11-08T21:00:00	8	Radiación solar	0
79717	7	Sololá	710	Panajachel	8	Panajachel	12	Diciembre	2023-12-23T00:00:00	2024-11-08T22:00:00	2	Temperatura media	17.5
79718	7	Sololá	710	Panajachel	8	Panajachel	12	Diciembre	2023-12-23T00:00:00	2024-11-08T22:00:00	4	Temperatura máxima	18.2
79719	7	Sololá	710	Panajachel	8	Panajachel	12	Diciembre	2023-12-23T00:00:00	2024-11-08T22:00:00	3	Temperatura mínima	17.5
79720	7	Sololá	710	Panajachel	8	Panajachel	12	Diciembre	2023-12-23T00:00:00	2024-11-08T22:00:00	5	Humedad	78
79721	7	Sololá	710	Panajachel	8	Panajachel	12	Diciembre	2023-12-23T00:00:00	2024-11-08T22:00:00	6	Velocidad del viento	4.8
79722	7	Sololá	710	Panajachel	8	Panajachel	12	Diciembre	2023-12-23T00:00:00	2024-11-08T22:00:00	7	Dirección del viento	4.83
79723	7	Sololá	710	Panajachel	8	Panajachel	12	Diciembre	2023-12-23T00:00:00	2024-11-08T22:00:00	1	Precipitación	0
79724	7	Sololá	710	Panajachel	8	Panajachel	12	Diciembre	2023-12-23T00:00:00	2024-11-08T22:00:00	8	Radiación solar	0
79725	7	Sololá	710	Panajachel	8	Panajachel	12	Diciembre	2023-12-23T00:00:00	2024-11-08T23:00:00	2	Temperatura media	16.6
79726	7	Sololá	710	Panajachel	8	Panajachel	12	Diciembre	2023-12-23T00:00:00	2024-11-08T23:00:00	4	Temperatura máxima	17.6
79727	7	Sololá	710	Panajachel	8	Panajachel	12	Diciembre	2023-12-23T00:00:00	2024-11-08T23:00:00	3	Temperatura mínima	16.6
79728	7	Sololá	710	Panajachel	8	Panajachel	12	Diciembre	2023-12-23T00:00:00	2024-11-08T23:00:00	5	Humedad	80
79729	7	Sololá	710	Panajachel	8	Panajachel	12	Diciembre	2023-12-23T00:00:00	2024-11-08T23:00:00	6	Velocidad del viento	4.8
79730	7	Sololá	710	Panajachel	8	Panajachel	12	Diciembre	2023-12-23T00:00:00	2024-11-08T23:00:00	7	Dirección del viento	4.83
79731	7	Sololá	710	Panajachel	8	Panajachel	12	Diciembre	2023-12-23T00:00:00	2024-11-08T23:00:00	1	Precipitación	0
79732	7	Sololá	710	Panajachel	8	Panajachel	12	Diciembre	2023-12-23T00:00:00	2024-11-08T23:00:00	8	Radiación solar	0
79733	7	Sololá	710	Panajachel	8	Panajachel	12	Diciembre	2023-12-24T00:00:00	2024-11-08T00:00:00	2	Temperatura media	16.7
79734	7	Sololá	710	Panajachel	8	Panajachel	12	Diciembre	2023-12-24T00:00:00	2024-11-08T00:00:00	4	Temperatura máxima	16.7
79735	7	Sololá	710	Panajachel	8	Panajachel	12	Diciembre	2023-12-24T00:00:00	2024-11-08T00:00:00	3	Temperatura mínima	16.4
79736	7	Sololá	710	Panajachel	8	Panajachel	12	Diciembre	2023-12-24T00:00:00	2024-11-08T00:00:00	5	Humedad	78
79737	7	Sololá	710	Panajachel	8	Panajachel	12	Diciembre	2023-12-24T00:00:00	2024-11-08T00:00:00	6	Velocidad del viento	4.8
79738	7	Sololá	710	Panajachel	8	Panajachel	12	Diciembre	2023-12-24T00:00:00	2024-11-08T00:00:00	7	Dirección del viento	4.83
79739	7	Sololá	710	Panajachel	8	Panajachel	12	Diciembre	2023-12-24T00:00:00	2024-11-08T00:00:00	1	Precipitación	0
79740	7	Sololá	710	Panajachel	8	Panajachel	12	Diciembre	2023-12-24T00:00:00	2024-11-08T00:00:00	8	Radiación solar	0
79741	7	Sololá	710	Panajachel	8	Panajachel	12	Diciembre	2023-12-24T00:00:00	2024-11-08T01:00:00	2	Temperatura media	16.3
79742	7	Sololá	710	Panajachel	8	Panajachel	12	Diciembre	2023-12-24T00:00:00	2024-11-08T01:00:00	4	Temperatura máxima	16.7
79743	7	Sololá	710	Panajachel	8	Panajachel	12	Diciembre	2023-12-24T00:00:00	2024-11-08T01:00:00	3	Temperatura mínima	16.2
79744	7	Sololá	710	Panajachel	8	Panajachel	12	Diciembre	2023-12-24T00:00:00	2024-11-08T01:00:00	5	Humedad	79
79745	7	Sololá	710	Panajachel	8	Panajachel	12	Diciembre	2023-12-24T00:00:00	2024-11-08T01:00:00	6	Velocidad del viento	3.2
79746	7	Sololá	710	Panajachel	8	Panajachel	12	Diciembre	2023-12-24T00:00:00	2024-11-08T01:00:00	7	Dirección del viento	3.22
79747	7	Sololá	710	Panajachel	8	Panajachel	12	Diciembre	2023-12-24T00:00:00	2024-11-08T01:00:00	1	Precipitación	0
79748	7	Sololá	710	Panajachel	8	Panajachel	12	Diciembre	2023-12-24T00:00:00	2024-11-08T01:00:00	8	Radiación solar	0
79749	7	Sololá	710	Panajachel	8	Panajachel	12	Diciembre	2023-12-24T00:00:00	2024-11-08T02:00:00	2	Temperatura media	16.1
79750	7	Sololá	710	Panajachel	8	Panajachel	12	Diciembre	2023-12-24T00:00:00	2024-11-08T02:00:00	4	Temperatura máxima	16.4
79751	7	Sololá	710	Panajachel	8	Panajachel	12	Diciembre	2023-12-24T00:00:00	2024-11-08T02:00:00	3	Temperatura mínima	16.1
79752	7	Sololá	710	Panajachel	8	Panajachel	12	Diciembre	2023-12-24T00:00:00	2024-11-08T02:00:00	5	Humedad	78
79753	7	Sololá	710	Panajachel	8	Panajachel	12	Diciembre	2023-12-24T00:00:00	2024-11-08T02:00:00	6	Velocidad del viento	3.2
79754	7	Sololá	710	Panajachel	8	Panajachel	12	Diciembre	2023-12-24T00:00:00	2024-11-08T02:00:00	7	Dirección del viento	3.22
79755	7	Sololá	710	Panajachel	8	Panajachel	12	Diciembre	2023-12-24T00:00:00	2024-11-08T02:00:00	1	Precipitación	0
79756	7	Sololá	710	Panajachel	8	Panajachel	12	Diciembre	2023-12-24T00:00:00	2024-11-08T02:00:00	8	Radiación solar	0
79757	7	Sololá	710	Panajachel	8	Panajachel	12	Diciembre	2023-12-24T00:00:00	2024-11-08T03:00:00	2	Temperatura media	15.6
79758	7	Sololá	710	Panajachel	8	Panajachel	12	Diciembre	2023-12-24T00:00:00	2024-11-08T03:00:00	4	Temperatura máxima	16.2
79759	7	Sololá	710	Panajachel	8	Panajachel	12	Diciembre	2023-12-24T00:00:00	2024-11-08T03:00:00	3	Temperatura mínima	15.6
79760	7	Sololá	710	Panajachel	8	Panajachel	12	Diciembre	2023-12-24T00:00:00	2024-11-08T03:00:00	5	Humedad	79
79761	7	Sololá	710	Panajachel	8	Panajachel	12	Diciembre	2023-12-24T00:00:00	2024-11-08T03:00:00	6	Velocidad del viento	1.6
79762	7	Sololá	710	Panajachel	8	Panajachel	12	Diciembre	2023-12-24T00:00:00	2024-11-08T03:00:00	7	Dirección del viento	1.61
79763	7	Sololá	710	Panajachel	8	Panajachel	12	Diciembre	2023-12-24T00:00:00	2024-11-08T03:00:00	1	Precipitación	0
79764	7	Sololá	710	Panajachel	8	Panajachel	12	Diciembre	2023-12-24T00:00:00	2024-11-08T03:00:00	8	Radiación solar	0
79765	7	Sololá	710	Panajachel	8	Panajachel	12	Diciembre	2023-12-24T00:00:00	2024-11-08T04:00:00	2	Temperatura media	15.4
79766	7	Sololá	710	Panajachel	8	Panajachel	12	Diciembre	2023-12-24T00:00:00	2024-11-08T04:00:00	4	Temperatura máxima	15.6
79767	7	Sololá	710	Panajachel	8	Panajachel	12	Diciembre	2023-12-24T00:00:00	2024-11-08T04:00:00	3	Temperatura mínima	15.3
79768	7	Sololá	710	Panajachel	8	Panajachel	12	Diciembre	2023-12-24T00:00:00	2024-11-08T04:00:00	5	Humedad	80
79769	7	Sololá	710	Panajachel	8	Panajachel	12	Diciembre	2023-12-24T00:00:00	2024-11-08T04:00:00	6	Velocidad del viento	1.6
79770	7	Sololá	710	Panajachel	8	Panajachel	12	Diciembre	2023-12-24T00:00:00	2024-11-08T04:00:00	7	Dirección del viento	1.61
79771	7	Sololá	710	Panajachel	8	Panajachel	12	Diciembre	2023-12-24T00:00:00	2024-11-08T04:00:00	1	Precipitación	0
79772	7	Sololá	710	Panajachel	8	Panajachel	12	Diciembre	2023-12-24T00:00:00	2024-11-08T04:00:00	8	Radiación solar	0
79773	7	Sololá	710	Panajachel	8	Panajachel	12	Diciembre	2023-12-24T00:00:00	2024-11-08T05:00:00	2	Temperatura media	15.8
79774	7	Sololá	710	Panajachel	8	Panajachel	12	Diciembre	2023-12-24T00:00:00	2024-11-08T05:00:00	4	Temperatura máxima	15.9
79775	7	Sololá	710	Panajachel	8	Panajachel	12	Diciembre	2023-12-24T00:00:00	2024-11-08T05:00:00	3	Temperatura mínima	15.4
79776	7	Sololá	710	Panajachel	8	Panajachel	12	Diciembre	2023-12-24T00:00:00	2024-11-08T05:00:00	5	Humedad	81
79777	7	Sololá	710	Panajachel	8	Panajachel	12	Diciembre	2023-12-24T00:00:00	2024-11-08T05:00:00	6	Velocidad del viento	0
79778	7	Sololá	710	Panajachel	8	Panajachel	12	Diciembre	2023-12-24T00:00:00	2024-11-08T05:00:00	7	Dirección del viento	0
79779	7	Sololá	710	Panajachel	8	Panajachel	12	Diciembre	2023-12-24T00:00:00	2024-11-08T05:00:00	1	Precipitación	0
79780	7	Sololá	710	Panajachel	8	Panajachel	12	Diciembre	2023-12-24T00:00:00	2024-11-08T05:00:00	8	Radiación solar	0
79781	7	Sololá	710	Panajachel	8	Panajachel	12	Diciembre	2023-12-24T00:00:00	2024-11-08T06:00:00	2	Temperatura media	15.2
79782	7	Sololá	710	Panajachel	8	Panajachel	12	Diciembre	2023-12-24T00:00:00	2024-11-08T06:00:00	4	Temperatura máxima	15.7
79783	7	Sololá	710	Panajachel	8	Panajachel	12	Diciembre	2023-12-24T00:00:00	2024-11-08T06:00:00	3	Temperatura mínima	15.2
79784	7	Sololá	710	Panajachel	8	Panajachel	12	Diciembre	2023-12-24T00:00:00	2024-11-08T06:00:00	5	Humedad	83
79785	7	Sololá	710	Panajachel	8	Panajachel	12	Diciembre	2023-12-24T00:00:00	2024-11-08T06:00:00	6	Velocidad del viento	0
79786	7	Sololá	710	Panajachel	8	Panajachel	12	Diciembre	2023-12-24T00:00:00	2024-11-08T06:00:00	7	Dirección del viento	0
79787	7	Sololá	710	Panajachel	8	Panajachel	12	Diciembre	2023-12-24T00:00:00	2024-11-08T06:00:00	1	Precipitación	0
79788	7	Sololá	710	Panajachel	8	Panajachel	12	Diciembre	2023-12-24T00:00:00	2024-11-08T06:00:00	8	Radiación solar	0
79789	7	Sololá	710	Panajachel	8	Panajachel	12	Diciembre	2023-12-24T00:00:00	2024-11-08T07:00:00	2	Temperatura media	15
79790	7	Sololá	710	Panajachel	8	Panajachel	12	Diciembre	2023-12-24T00:00:00	2024-11-08T07:00:00	4	Temperatura máxima	15.3
79791	7	Sololá	710	Panajachel	8	Panajachel	12	Diciembre	2023-12-24T00:00:00	2024-11-08T07:00:00	3	Temperatura mínima	15
79792	7	Sololá	710	Panajachel	8	Panajachel	12	Diciembre	2023-12-24T00:00:00	2024-11-08T07:00:00	5	Humedad	83
79793	7	Sololá	710	Panajachel	8	Panajachel	12	Diciembre	2023-12-24T00:00:00	2024-11-08T07:00:00	6	Velocidad del viento	1.6
79794	7	Sololá	710	Panajachel	8	Panajachel	12	Diciembre	2023-12-24T00:00:00	2024-11-08T07:00:00	7	Dirección del viento	1.61
79795	7	Sololá	710	Panajachel	8	Panajachel	12	Diciembre	2023-12-24T00:00:00	2024-11-08T07:00:00	1	Precipitación	0
79796	7	Sololá	710	Panajachel	8	Panajachel	12	Diciembre	2023-12-24T00:00:00	2024-11-08T07:00:00	8	Radiación solar	8
79797	7	Sololá	710	Panajachel	8	Panajachel	12	Diciembre	2023-12-24T00:00:00	2024-11-08T08:00:00	2	Temperatura media	17.8
79798	7	Sololá	710	Panajachel	8	Panajachel	12	Diciembre	2023-12-24T00:00:00	2024-11-08T08:00:00	4	Temperatura máxima	17.8
79799	7	Sololá	710	Panajachel	8	Panajachel	12	Diciembre	2023-12-24T00:00:00	2024-11-08T08:00:00	3	Temperatura mínima	14.9
79800	7	Sololá	710	Panajachel	8	Panajachel	12	Diciembre	2023-12-24T00:00:00	2024-11-08T08:00:00	5	Humedad	78
79801	7	Sololá	710	Panajachel	8	Panajachel	12	Diciembre	2023-12-24T00:00:00	2024-11-08T08:00:00	6	Velocidad del viento	1.6
79802	7	Sololá	710	Panajachel	8	Panajachel	12	Diciembre	2023-12-24T00:00:00	2024-11-08T08:00:00	7	Dirección del viento	1.61
79803	7	Sololá	710	Panajachel	8	Panajachel	12	Diciembre	2023-12-24T00:00:00	2024-11-08T08:00:00	1	Precipitación	0
79804	7	Sololá	710	Panajachel	8	Panajachel	12	Diciembre	2023-12-24T00:00:00	2024-11-08T08:00:00	8	Radiación solar	129
79805	7	Sololá	710	Panajachel	8	Panajachel	12	Diciembre	2023-12-24T00:00:00	2024-11-08T09:00:00	2	Temperatura media	19.3
79806	7	Sololá	710	Panajachel	8	Panajachel	12	Diciembre	2023-12-24T00:00:00	2024-11-08T09:00:00	4	Temperatura máxima	19.4
79807	7	Sololá	710	Panajachel	8	Panajachel	12	Diciembre	2023-12-24T00:00:00	2024-11-08T09:00:00	3	Temperatura mínima	17.8
79808	7	Sololá	710	Panajachel	8	Panajachel	12	Diciembre	2023-12-24T00:00:00	2024-11-08T09:00:00	5	Humedad	80
79809	7	Sololá	710	Panajachel	8	Panajachel	12	Diciembre	2023-12-24T00:00:00	2024-11-08T09:00:00	6	Velocidad del viento	1.6
79810	7	Sololá	710	Panajachel	8	Panajachel	12	Diciembre	2023-12-24T00:00:00	2024-11-08T09:00:00	7	Dirección del viento	1.61
79811	7	Sololá	710	Panajachel	8	Panajachel	12	Diciembre	2023-12-24T00:00:00	2024-11-08T09:00:00	1	Precipitación	0
79812	7	Sololá	710	Panajachel	8	Panajachel	12	Diciembre	2023-12-24T00:00:00	2024-11-08T09:00:00	8	Radiación solar	351
79813	7	Sololá	710	Panajachel	8	Panajachel	12	Diciembre	2023-12-24T00:00:00	2024-11-08T10:00:00	2	Temperatura media	19.8
79814	7	Sololá	710	Panajachel	8	Panajachel	12	Diciembre	2023-12-24T00:00:00	2024-11-08T10:00:00	4	Temperatura máxima	20.4
79815	7	Sololá	710	Panajachel	8	Panajachel	12	Diciembre	2023-12-24T00:00:00	2024-11-08T10:00:00	3	Temperatura mínima	19.4
79816	7	Sololá	710	Panajachel	8	Panajachel	12	Diciembre	2023-12-24T00:00:00	2024-11-08T10:00:00	5	Humedad	79
79817	7	Sololá	710	Panajachel	8	Panajachel	12	Diciembre	2023-12-24T00:00:00	2024-11-08T10:00:00	6	Velocidad del viento	1.6
79818	7	Sololá	710	Panajachel	8	Panajachel	12	Diciembre	2023-12-24T00:00:00	2024-11-08T10:00:00	7	Dirección del viento	1.61
79819	7	Sololá	710	Panajachel	8	Panajachel	12	Diciembre	2023-12-24T00:00:00	2024-11-08T10:00:00	1	Precipitación	0
79820	7	Sololá	710	Panajachel	8	Panajachel	12	Diciembre	2023-12-24T00:00:00	2024-11-08T10:00:00	8	Radiación solar	555
79821	7	Sololá	710	Panajachel	8	Panajachel	12	Diciembre	2023-12-24T00:00:00	2024-11-08T11:00:00	2	Temperatura media	20.7
79822	7	Sololá	710	Panajachel	8	Panajachel	12	Diciembre	2023-12-24T00:00:00	2024-11-08T11:00:00	4	Temperatura máxima	20.7
79823	7	Sololá	710	Panajachel	8	Panajachel	12	Diciembre	2023-12-24T00:00:00	2024-11-08T11:00:00	3	Temperatura mínima	19.8
79824	7	Sololá	710	Panajachel	8	Panajachel	12	Diciembre	2023-12-24T00:00:00	2024-11-08T11:00:00	5	Humedad	73
79825	7	Sololá	710	Panajachel	8	Panajachel	12	Diciembre	2023-12-24T00:00:00	2024-11-08T11:00:00	6	Velocidad del viento	3.2
79826	7	Sololá	710	Panajachel	8	Panajachel	12	Diciembre	2023-12-24T00:00:00	2024-11-08T11:00:00	7	Dirección del viento	3.22
79827	7	Sololá	710	Panajachel	8	Panajachel	12	Diciembre	2023-12-24T00:00:00	2024-11-08T11:00:00	1	Precipitación	0
79828	7	Sololá	710	Panajachel	8	Panajachel	12	Diciembre	2023-12-24T00:00:00	2024-11-08T11:00:00	8	Radiación solar	687
79829	7	Sololá	710	Panajachel	8	Panajachel	12	Diciembre	2023-12-24T00:00:00	2024-11-08T12:00:00	2	Temperatura media	21.8
79830	7	Sololá	710	Panajachel	8	Panajachel	12	Diciembre	2023-12-24T00:00:00	2024-11-08T12:00:00	4	Temperatura máxima	22.3
79831	7	Sololá	710	Panajachel	8	Panajachel	12	Diciembre	2023-12-24T00:00:00	2024-11-08T12:00:00	3	Temperatura mínima	20.7
79832	7	Sololá	710	Panajachel	8	Panajachel	12	Diciembre	2023-12-24T00:00:00	2024-11-08T12:00:00	5	Humedad	74
79833	7	Sololá	710	Panajachel	8	Panajachel	12	Diciembre	2023-12-24T00:00:00	2024-11-08T12:00:00	6	Velocidad del viento	3.2
79834	7	Sololá	710	Panajachel	8	Panajachel	12	Diciembre	2023-12-24T00:00:00	2024-11-08T12:00:00	7	Dirección del viento	3.22
79835	7	Sololá	710	Panajachel	8	Panajachel	12	Diciembre	2023-12-24T00:00:00	2024-11-08T12:00:00	1	Precipitación	0
79836	7	Sololá	710	Panajachel	8	Panajachel	12	Diciembre	2023-12-24T00:00:00	2024-11-08T12:00:00	8	Radiación solar	762
79837	7	Sololá	710	Panajachel	8	Panajachel	12	Diciembre	2023-12-24T00:00:00	2024-11-08T13:00:00	2	Temperatura media	22.7
79838	7	Sololá	710	Panajachel	8	Panajachel	12	Diciembre	2023-12-24T00:00:00	2024-11-08T13:00:00	4	Temperatura máxima	22.7
79839	7	Sololá	710	Panajachel	8	Panajachel	12	Diciembre	2023-12-24T00:00:00	2024-11-08T13:00:00	3	Temperatura mínima	21.8
79840	7	Sololá	710	Panajachel	8	Panajachel	12	Diciembre	2023-12-24T00:00:00	2024-11-08T13:00:00	5	Humedad	75
79841	7	Sololá	710	Panajachel	8	Panajachel	12	Diciembre	2023-12-24T00:00:00	2024-11-08T13:00:00	6	Velocidad del viento	3.2
79842	7	Sololá	710	Panajachel	8	Panajachel	12	Diciembre	2023-12-24T00:00:00	2024-11-08T13:00:00	7	Dirección del viento	3.22
79843	7	Sololá	710	Panajachel	8	Panajachel	12	Diciembre	2023-12-24T00:00:00	2024-11-08T13:00:00	1	Precipitación	0
79844	7	Sololá	710	Panajachel	8	Panajachel	12	Diciembre	2023-12-24T00:00:00	2024-11-08T13:00:00	8	Radiación solar	764
79845	7	Sololá	710	Panajachel	8	Panajachel	12	Diciembre	2023-12-24T00:00:00	2024-11-08T14:00:00	2	Temperatura media	23.4
79846	7	Sololá	710	Panajachel	8	Panajachel	12	Diciembre	2023-12-24T00:00:00	2024-11-08T14:00:00	4	Temperatura máxima	23.6
79847	7	Sololá	710	Panajachel	8	Panajachel	12	Diciembre	2023-12-24T00:00:00	2024-11-08T14:00:00	3	Temperatura mínima	22.7
79848	7	Sololá	710	Panajachel	8	Panajachel	12	Diciembre	2023-12-24T00:00:00	2024-11-08T14:00:00	5	Humedad	75
79849	7	Sololá	710	Panajachel	8	Panajachel	12	Diciembre	2023-12-24T00:00:00	2024-11-08T14:00:00	6	Velocidad del viento	4.8
79850	7	Sololá	710	Panajachel	8	Panajachel	12	Diciembre	2023-12-24T00:00:00	2024-11-08T14:00:00	7	Dirección del viento	4.83
79851	7	Sololá	710	Panajachel	8	Panajachel	12	Diciembre	2023-12-24T00:00:00	2024-11-08T14:00:00	1	Precipitación	0
79852	7	Sololá	710	Panajachel	8	Panajachel	12	Diciembre	2023-12-24T00:00:00	2024-11-08T14:00:00	8	Radiación solar	675
79853	7	Sololá	710	Panajachel	8	Panajachel	12	Diciembre	2023-12-24T00:00:00	2024-11-08T15:00:00	2	Temperatura media	22.9
79854	7	Sololá	710	Panajachel	8	Panajachel	12	Diciembre	2023-12-24T00:00:00	2024-11-08T15:00:00	4	Temperatura máxima	23.6
79855	7	Sololá	710	Panajachel	8	Panajachel	12	Diciembre	2023-12-24T00:00:00	2024-11-08T15:00:00	3	Temperatura mínima	22.7
79856	7	Sololá	710	Panajachel	8	Panajachel	12	Diciembre	2023-12-24T00:00:00	2024-11-08T15:00:00	5	Humedad	77
79857	7	Sololá	710	Panajachel	8	Panajachel	12	Diciembre	2023-12-24T00:00:00	2024-11-08T15:00:00	6	Velocidad del viento	4.8
79858	7	Sololá	710	Panajachel	8	Panajachel	12	Diciembre	2023-12-24T00:00:00	2024-11-08T15:00:00	7	Dirección del viento	4.83
79859	7	Sololá	710	Panajachel	8	Panajachel	12	Diciembre	2023-12-24T00:00:00	2024-11-08T15:00:00	1	Precipitación	0
79860	7	Sololá	710	Panajachel	8	Panajachel	12	Diciembre	2023-12-24T00:00:00	2024-11-08T15:00:00	8	Radiación solar	580
79861	7	Sololá	710	Panajachel	8	Panajachel	12	Diciembre	2023-12-24T00:00:00	2024-11-08T16:00:00	2	Temperatura media	22.8
79862	7	Sololá	710	Panajachel	8	Panajachel	12	Diciembre	2023-12-24T00:00:00	2024-11-08T16:00:00	4	Temperatura máxima	23.1
79863	7	Sololá	710	Panajachel	8	Panajachel	12	Diciembre	2023-12-24T00:00:00	2024-11-08T16:00:00	3	Temperatura mínima	22.3
79864	7	Sololá	710	Panajachel	8	Panajachel	12	Diciembre	2023-12-24T00:00:00	2024-11-08T16:00:00	5	Humedad	75
79865	7	Sololá	710	Panajachel	8	Panajachel	12	Diciembre	2023-12-24T00:00:00	2024-11-08T16:00:00	6	Velocidad del viento	4.8
79866	7	Sololá	710	Panajachel	8	Panajachel	12	Diciembre	2023-12-24T00:00:00	2024-11-08T16:00:00	7	Dirección del viento	4.83
79867	7	Sololá	710	Panajachel	8	Panajachel	12	Diciembre	2023-12-24T00:00:00	2024-11-08T16:00:00	1	Precipitación	0
79868	7	Sololá	710	Panajachel	8	Panajachel	12	Diciembre	2023-12-24T00:00:00	2024-11-08T16:00:00	8	Radiación solar	422
79869	7	Sololá	710	Panajachel	8	Panajachel	12	Diciembre	2023-12-24T00:00:00	2024-11-08T17:00:00	2	Temperatura media	21.9
79870	7	Sololá	710	Panajachel	8	Panajachel	12	Diciembre	2023-12-24T00:00:00	2024-11-08T17:00:00	4	Temperatura máxima	22.8
79871	7	Sololá	710	Panajachel	8	Panajachel	12	Diciembre	2023-12-24T00:00:00	2024-11-08T17:00:00	3	Temperatura mínima	21.6
79872	7	Sololá	710	Panajachel	8	Panajachel	12	Diciembre	2023-12-24T00:00:00	2024-11-08T17:00:00	5	Humedad	79
79873	7	Sololá	710	Panajachel	8	Panajachel	12	Diciembre	2023-12-24T00:00:00	2024-11-08T17:00:00	6	Velocidad del viento	4.8
79874	7	Sololá	710	Panajachel	8	Panajachel	12	Diciembre	2023-12-24T00:00:00	2024-11-08T17:00:00	7	Dirección del viento	4.83
79875	7	Sololá	710	Panajachel	8	Panajachel	12	Diciembre	2023-12-24T00:00:00	2024-11-08T17:00:00	1	Precipitación	0
79876	7	Sololá	710	Panajachel	8	Panajachel	12	Diciembre	2023-12-24T00:00:00	2024-11-08T17:00:00	8	Radiación solar	182
79877	7	Sololá	710	Panajachel	8	Panajachel	12	Diciembre	2023-12-24T00:00:00	2024-11-08T18:00:00	2	Temperatura media	19.9
79878	7	Sololá	710	Panajachel	8	Panajachel	12	Diciembre	2023-12-24T00:00:00	2024-11-08T18:00:00	4	Temperatura máxima	22.2
79879	7	Sololá	710	Panajachel	8	Panajachel	12	Diciembre	2023-12-24T00:00:00	2024-11-08T18:00:00	3	Temperatura mínima	19.9
79880	7	Sololá	710	Panajachel	8	Panajachel	12	Diciembre	2023-12-24T00:00:00	2024-11-08T18:00:00	5	Humedad	86
79881	7	Sololá	710	Panajachel	8	Panajachel	12	Diciembre	2023-12-24T00:00:00	2024-11-08T18:00:00	6	Velocidad del viento	3.2
79882	7	Sololá	710	Panajachel	8	Panajachel	12	Diciembre	2023-12-24T00:00:00	2024-11-08T18:00:00	7	Dirección del viento	3.22
79883	7	Sololá	710	Panajachel	8	Panajachel	12	Diciembre	2023-12-24T00:00:00	2024-11-08T18:00:00	1	Precipitación	0
79884	7	Sololá	710	Panajachel	8	Panajachel	12	Diciembre	2023-12-24T00:00:00	2024-11-08T18:00:00	8	Radiación solar	35
79885	7	Sololá	710	Panajachel	8	Panajachel	12	Diciembre	2023-12-24T00:00:00	2024-11-08T19:00:00	2	Temperatura media	19.2
79886	7	Sololá	710	Panajachel	8	Panajachel	12	Diciembre	2023-12-24T00:00:00	2024-11-08T19:00:00	4	Temperatura máxima	20
79887	7	Sololá	710	Panajachel	8	Panajachel	12	Diciembre	2023-12-24T00:00:00	2024-11-08T19:00:00	3	Temperatura mínima	19.2
79888	7	Sololá	710	Panajachel	8	Panajachel	12	Diciembre	2023-12-24T00:00:00	2024-11-08T19:00:00	5	Humedad	89
79889	7	Sololá	710	Panajachel	8	Panajachel	12	Diciembre	2023-12-24T00:00:00	2024-11-08T19:00:00	6	Velocidad del viento	0
79890	7	Sololá	710	Panajachel	8	Panajachel	12	Diciembre	2023-12-24T00:00:00	2024-11-08T19:00:00	7	Dirección del viento	0
79891	7	Sololá	710	Panajachel	8	Panajachel	12	Diciembre	2023-12-24T00:00:00	2024-11-08T19:00:00	1	Precipitación	0
79892	7	Sololá	710	Panajachel	8	Panajachel	12	Diciembre	2023-12-24T00:00:00	2024-11-08T19:00:00	8	Radiación solar	0
79893	7	Sololá	710	Panajachel	8	Panajachel	12	Diciembre	2023-12-24T00:00:00	2024-11-08T20:00:00	2	Temperatura media	18.2
79894	7	Sololá	710	Panajachel	8	Panajachel	12	Diciembre	2023-12-24T00:00:00	2024-11-08T20:00:00	4	Temperatura máxima	19.2
79895	7	Sololá	710	Panajachel	8	Panajachel	12	Diciembre	2023-12-24T00:00:00	2024-11-08T20:00:00	3	Temperatura mínima	18.2
79896	7	Sololá	710	Panajachel	8	Panajachel	12	Diciembre	2023-12-24T00:00:00	2024-11-08T20:00:00	5	Humedad	87
79897	7	Sololá	710	Panajachel	8	Panajachel	12	Diciembre	2023-12-24T00:00:00	2024-11-08T20:00:00	6	Velocidad del viento	0
79898	7	Sololá	710	Panajachel	8	Panajachel	12	Diciembre	2023-12-24T00:00:00	2024-11-08T20:00:00	7	Dirección del viento	0
79899	7	Sololá	710	Panajachel	8	Panajachel	12	Diciembre	2023-12-24T00:00:00	2024-11-08T20:00:00	1	Precipitación	0
79900	7	Sololá	710	Panajachel	8	Panajachel	12	Diciembre	2023-12-24T00:00:00	2024-11-08T20:00:00	8	Radiación solar	0
79901	7	Sololá	710	Panajachel	8	Panajachel	12	Diciembre	2023-12-24T00:00:00	2024-11-08T21:00:00	2	Temperatura media	17.4
79902	7	Sololá	710	Panajachel	8	Panajachel	12	Diciembre	2023-12-24T00:00:00	2024-11-08T21:00:00	4	Temperatura máxima	18.2
79903	7	Sololá	710	Panajachel	8	Panajachel	12	Diciembre	2023-12-24T00:00:00	2024-11-08T21:00:00	3	Temperatura mínima	17.4
79904	7	Sololá	710	Panajachel	8	Panajachel	12	Diciembre	2023-12-24T00:00:00	2024-11-08T21:00:00	5	Humedad	84
79905	7	Sololá	710	Panajachel	8	Panajachel	12	Diciembre	2023-12-24T00:00:00	2024-11-08T21:00:00	6	Velocidad del viento	1.6
79906	7	Sololá	710	Panajachel	8	Panajachel	12	Diciembre	2023-12-24T00:00:00	2024-11-08T21:00:00	7	Dirección del viento	1.61
79907	7	Sololá	710	Panajachel	8	Panajachel	12	Diciembre	2023-12-24T00:00:00	2024-11-08T21:00:00	1	Precipitación	0
79908	7	Sololá	710	Panajachel	8	Panajachel	12	Diciembre	2023-12-24T00:00:00	2024-11-08T21:00:00	8	Radiación solar	0
79909	7	Sololá	710	Panajachel	8	Panajachel	12	Diciembre	2023-12-24T00:00:00	2024-11-08T22:00:00	2	Temperatura media	16.9
79910	7	Sololá	710	Panajachel	8	Panajachel	12	Diciembre	2023-12-24T00:00:00	2024-11-08T22:00:00	4	Temperatura máxima	17.4
79911	7	Sololá	710	Panajachel	8	Panajachel	12	Diciembre	2023-12-24T00:00:00	2024-11-08T22:00:00	3	Temperatura mínima	16.9
79912	7	Sololá	710	Panajachel	8	Panajachel	12	Diciembre	2023-12-24T00:00:00	2024-11-08T22:00:00	5	Humedad	80
79913	7	Sololá	710	Panajachel	8	Panajachel	12	Diciembre	2023-12-24T00:00:00	2024-11-08T22:00:00	6	Velocidad del viento	3.2
79914	7	Sololá	710	Panajachel	8	Panajachel	12	Diciembre	2023-12-24T00:00:00	2024-11-08T22:00:00	7	Dirección del viento	3.22
79915	7	Sololá	710	Panajachel	8	Panajachel	12	Diciembre	2023-12-24T00:00:00	2024-11-08T22:00:00	1	Precipitación	0
79916	7	Sololá	710	Panajachel	8	Panajachel	12	Diciembre	2023-12-24T00:00:00	2024-11-08T22:00:00	8	Radiación solar	0
79917	7	Sololá	710	Panajachel	8	Panajachel	12	Diciembre	2023-12-24T00:00:00	2024-11-08T23:00:00	2	Temperatura media	16.1
79918	7	Sololá	710	Panajachel	8	Panajachel	12	Diciembre	2023-12-24T00:00:00	2024-11-08T23:00:00	4	Temperatura máxima	16.9
79919	7	Sololá	710	Panajachel	8	Panajachel	12	Diciembre	2023-12-24T00:00:00	2024-11-08T23:00:00	3	Temperatura mínima	16
79920	7	Sololá	710	Panajachel	8	Panajachel	12	Diciembre	2023-12-24T00:00:00	2024-11-08T23:00:00	5	Humedad	79
79921	7	Sololá	710	Panajachel	8	Panajachel	12	Diciembre	2023-12-24T00:00:00	2024-11-08T23:00:00	6	Velocidad del viento	3.2
79922	7	Sololá	710	Panajachel	8	Panajachel	12	Diciembre	2023-12-24T00:00:00	2024-11-08T23:00:00	7	Dirección del viento	3.22
79923	7	Sololá	710	Panajachel	8	Panajachel	12	Diciembre	2023-12-24T00:00:00	2024-11-08T23:00:00	1	Precipitación	0
79924	7	Sololá	710	Panajachel	8	Panajachel	12	Diciembre	2023-12-24T00:00:00	2024-11-08T23:00:00	8	Radiación solar	0
79925	7	Sololá	710	Panajachel	8	Panajachel	12	Diciembre	2023-12-25T00:00:00	2024-11-08T00:00:00	2	Temperatura media	15.7
79926	7	Sololá	710	Panajachel	8	Panajachel	12	Diciembre	2023-12-25T00:00:00	2024-11-08T00:00:00	4	Temperatura máxima	16
79927	7	Sololá	710	Panajachel	8	Panajachel	12	Diciembre	2023-12-25T00:00:00	2024-11-08T00:00:00	3	Temperatura mínima	15.7
79928	7	Sololá	710	Panajachel	8	Panajachel	12	Diciembre	2023-12-25T00:00:00	2024-11-08T00:00:00	5	Humedad	79
79929	7	Sololá	710	Panajachel	8	Panajachel	12	Diciembre	2023-12-25T00:00:00	2024-11-08T00:00:00	6	Velocidad del viento	3.2
79930	7	Sololá	710	Panajachel	8	Panajachel	12	Diciembre	2023-12-25T00:00:00	2024-11-08T00:00:00	7	Dirección del viento	3.22
79931	7	Sololá	710	Panajachel	8	Panajachel	12	Diciembre	2023-12-25T00:00:00	2024-11-08T00:00:00	1	Precipitación	0
79932	7	Sololá	710	Panajachel	8	Panajachel	12	Diciembre	2023-12-25T00:00:00	2024-11-08T00:00:00	8	Radiación solar	0
79933	7	Sololá	710	Panajachel	8	Panajachel	12	Diciembre	2023-12-25T00:00:00	2024-11-08T01:00:00	2	Temperatura media	15.3
79934	7	Sololá	710	Panajachel	8	Panajachel	12	Diciembre	2023-12-25T00:00:00	2024-11-08T01:00:00	4	Temperatura máxima	15.7
79935	7	Sololá	710	Panajachel	8	Panajachel	12	Diciembre	2023-12-25T00:00:00	2024-11-08T01:00:00	3	Temperatura mínima	15.3
79936	7	Sololá	710	Panajachel	8	Panajachel	12	Diciembre	2023-12-25T00:00:00	2024-11-08T01:00:00	5	Humedad	78
79937	7	Sololá	710	Panajachel	8	Panajachel	12	Diciembre	2023-12-25T00:00:00	2024-11-08T01:00:00	6	Velocidad del viento	4.8
79938	7	Sololá	710	Panajachel	8	Panajachel	12	Diciembre	2023-12-25T00:00:00	2024-11-08T01:00:00	7	Dirección del viento	4.83
79939	7	Sololá	710	Panajachel	8	Panajachel	12	Diciembre	2023-12-25T00:00:00	2024-11-08T01:00:00	1	Precipitación	0
79940	7	Sololá	710	Panajachel	8	Panajachel	12	Diciembre	2023-12-25T00:00:00	2024-11-08T01:00:00	8	Radiación solar	0
79941	7	Sololá	710	Panajachel	8	Panajachel	12	Diciembre	2023-12-25T00:00:00	2024-11-08T02:00:00	2	Temperatura media	14.7
79942	7	Sololá	710	Panajachel	8	Panajachel	12	Diciembre	2023-12-25T00:00:00	2024-11-08T02:00:00	4	Temperatura máxima	15.3
79943	7	Sololá	710	Panajachel	8	Panajachel	12	Diciembre	2023-12-25T00:00:00	2024-11-08T02:00:00	3	Temperatura mínima	14.7
79944	7	Sololá	710	Panajachel	8	Panajachel	12	Diciembre	2023-12-25T00:00:00	2024-11-08T02:00:00	5	Humedad	79
79945	7	Sololá	710	Panajachel	8	Panajachel	12	Diciembre	2023-12-25T00:00:00	2024-11-08T02:00:00	6	Velocidad del viento	3.2
79946	7	Sololá	710	Panajachel	8	Panajachel	12	Diciembre	2023-12-25T00:00:00	2024-11-08T02:00:00	7	Dirección del viento	3.22
79947	7	Sololá	710	Panajachel	8	Panajachel	12	Diciembre	2023-12-25T00:00:00	2024-11-08T02:00:00	1	Precipitación	0
79948	7	Sololá	710	Panajachel	8	Panajachel	12	Diciembre	2023-12-25T00:00:00	2024-11-08T02:00:00	8	Radiación solar	0
79949	7	Sololá	710	Panajachel	8	Panajachel	12	Diciembre	2023-12-25T00:00:00	2024-11-08T03:00:00	2	Temperatura media	14.4
79950	7	Sololá	710	Panajachel	8	Panajachel	12	Diciembre	2023-12-25T00:00:00	2024-11-08T03:00:00	4	Temperatura máxima	14.7
79951	7	Sololá	710	Panajachel	8	Panajachel	12	Diciembre	2023-12-25T00:00:00	2024-11-08T03:00:00	3	Temperatura mínima	14.4
79952	7	Sololá	710	Panajachel	8	Panajachel	12	Diciembre	2023-12-25T00:00:00	2024-11-08T03:00:00	5	Humedad	80
79953	7	Sololá	710	Panajachel	8	Panajachel	12	Diciembre	2023-12-25T00:00:00	2024-11-08T03:00:00	6	Velocidad del viento	3.2
79954	7	Sololá	710	Panajachel	8	Panajachel	12	Diciembre	2023-12-25T00:00:00	2024-11-08T03:00:00	7	Dirección del viento	3.22
79955	7	Sololá	710	Panajachel	8	Panajachel	12	Diciembre	2023-12-25T00:00:00	2024-11-08T03:00:00	1	Precipitación	0
79956	7	Sololá	710	Panajachel	8	Panajachel	12	Diciembre	2023-12-25T00:00:00	2024-11-08T03:00:00	8	Radiación solar	0
79957	7	Sololá	710	Panajachel	8	Panajachel	12	Diciembre	2023-12-25T00:00:00	2024-11-08T04:00:00	2	Temperatura media	14.6
79958	7	Sololá	710	Panajachel	8	Panajachel	12	Diciembre	2023-12-25T00:00:00	2024-11-08T04:00:00	4	Temperatura máxima	14.7
79959	7	Sololá	710	Panajachel	8	Panajachel	12	Diciembre	2023-12-25T00:00:00	2024-11-08T04:00:00	3	Temperatura mínima	14.4
79960	7	Sololá	710	Panajachel	8	Panajachel	12	Diciembre	2023-12-25T00:00:00	2024-11-08T04:00:00	5	Humedad	80
79961	7	Sololá	710	Panajachel	8	Panajachel	12	Diciembre	2023-12-25T00:00:00	2024-11-08T04:00:00	6	Velocidad del viento	4.8
79962	7	Sololá	710	Panajachel	8	Panajachel	12	Diciembre	2023-12-25T00:00:00	2024-11-08T04:00:00	7	Dirección del viento	4.83
79963	7	Sololá	710	Panajachel	8	Panajachel	12	Diciembre	2023-12-25T00:00:00	2024-11-08T04:00:00	1	Precipitación	0
79964	7	Sololá	710	Panajachel	8	Panajachel	12	Diciembre	2023-12-25T00:00:00	2024-11-08T04:00:00	8	Radiación solar	0
79965	7	Sololá	710	Panajachel	8	Panajachel	12	Diciembre	2023-12-25T00:00:00	2024-11-08T05:00:00	2	Temperatura media	15.4
79966	7	Sololá	710	Panajachel	8	Panajachel	12	Diciembre	2023-12-25T00:00:00	2024-11-08T05:00:00	4	Temperatura máxima	15.7
79967	7	Sololá	710	Panajachel	8	Panajachel	12	Diciembre	2023-12-25T00:00:00	2024-11-08T05:00:00	3	Temperatura mínima	14.5
79968	7	Sololá	710	Panajachel	8	Panajachel	12	Diciembre	2023-12-25T00:00:00	2024-11-08T05:00:00	5	Humedad	80
79969	7	Sololá	710	Panajachel	8	Panajachel	12	Diciembre	2023-12-25T00:00:00	2024-11-08T05:00:00	6	Velocidad del viento	3.2
79970	7	Sololá	710	Panajachel	8	Panajachel	12	Diciembre	2023-12-25T00:00:00	2024-11-08T05:00:00	7	Dirección del viento	3.22
79971	7	Sololá	710	Panajachel	8	Panajachel	12	Diciembre	2023-12-25T00:00:00	2024-11-08T05:00:00	1	Precipitación	0
79972	7	Sololá	710	Panajachel	8	Panajachel	12	Diciembre	2023-12-25T00:00:00	2024-11-08T05:00:00	8	Radiación solar	0
79973	7	Sololá	710	Panajachel	8	Panajachel	12	Diciembre	2023-12-25T00:00:00	2024-11-08T06:00:00	2	Temperatura media	15.3
79974	7	Sololá	710	Panajachel	8	Panajachel	12	Diciembre	2023-12-25T00:00:00	2024-11-08T06:00:00	4	Temperatura máxima	15.7
79975	7	Sololá	710	Panajachel	8	Panajachel	12	Diciembre	2023-12-25T00:00:00	2024-11-08T06:00:00	3	Temperatura mínima	15.3
79976	7	Sololá	710	Panajachel	8	Panajachel	12	Diciembre	2023-12-25T00:00:00	2024-11-08T06:00:00	5	Humedad	82
79977	7	Sololá	710	Panajachel	8	Panajachel	12	Diciembre	2023-12-25T00:00:00	2024-11-08T06:00:00	6	Velocidad del viento	1.6
79978	7	Sololá	710	Panajachel	8	Panajachel	12	Diciembre	2023-12-25T00:00:00	2024-11-08T06:00:00	7	Dirección del viento	1.61
79979	7	Sololá	710	Panajachel	8	Panajachel	12	Diciembre	2023-12-25T00:00:00	2024-11-08T06:00:00	1	Precipitación	0
79980	7	Sololá	710	Panajachel	8	Panajachel	12	Diciembre	2023-12-25T00:00:00	2024-11-08T06:00:00	8	Radiación solar	0
79981	7	Sololá	710	Panajachel	8	Panajachel	12	Diciembre	2023-12-25T00:00:00	2024-11-08T07:00:00	2	Temperatura media	15.5
79982	7	Sololá	710	Panajachel	8	Panajachel	12	Diciembre	2023-12-25T00:00:00	2024-11-08T07:00:00	4	Temperatura máxima	15.5
79983	7	Sololá	710	Panajachel	8	Panajachel	12	Diciembre	2023-12-25T00:00:00	2024-11-08T07:00:00	3	Temperatura mínima	15.1
79984	7	Sololá	710	Panajachel	8	Panajachel	12	Diciembre	2023-12-25T00:00:00	2024-11-08T07:00:00	5	Humedad	84
79985	7	Sololá	710	Panajachel	8	Panajachel	12	Diciembre	2023-12-25T00:00:00	2024-11-08T07:00:00	6	Velocidad del viento	1.6
79986	7	Sololá	710	Panajachel	8	Panajachel	12	Diciembre	2023-12-25T00:00:00	2024-11-08T07:00:00	7	Dirección del viento	1.61
79987	7	Sololá	710	Panajachel	8	Panajachel	12	Diciembre	2023-12-25T00:00:00	2024-11-08T07:00:00	1	Precipitación	0
79988	7	Sololá	710	Panajachel	8	Panajachel	12	Diciembre	2023-12-25T00:00:00	2024-11-08T07:00:00	8	Radiación solar	6
79989	7	Sololá	710	Panajachel	8	Panajachel	12	Diciembre	2023-12-25T00:00:00	2024-11-08T08:00:00	2	Temperatura media	16.4
79990	7	Sololá	710	Panajachel	8	Panajachel	12	Diciembre	2023-12-25T00:00:00	2024-11-08T08:00:00	4	Temperatura máxima	16.5
79991	7	Sololá	710	Panajachel	8	Panajachel	12	Diciembre	2023-12-25T00:00:00	2024-11-08T08:00:00	3	Temperatura mínima	15.4
79992	7	Sololá	710	Panajachel	8	Panajachel	12	Diciembre	2023-12-25T00:00:00	2024-11-08T08:00:00	5	Humedad	82
79993	7	Sololá	710	Panajachel	8	Panajachel	12	Diciembre	2023-12-25T00:00:00	2024-11-08T08:00:00	6	Velocidad del viento	0
79994	7	Sololá	710	Panajachel	8	Panajachel	12	Diciembre	2023-12-25T00:00:00	2024-11-08T08:00:00	7	Dirección del viento	0
79995	7	Sololá	710	Panajachel	8	Panajachel	12	Diciembre	2023-12-25T00:00:00	2024-11-08T08:00:00	1	Precipitación	0
79996	7	Sololá	710	Panajachel	8	Panajachel	12	Diciembre	2023-12-25T00:00:00	2024-11-08T08:00:00	8	Radiación solar	71
79997	7	Sololá	710	Panajachel	8	Panajachel	12	Diciembre	2023-12-25T00:00:00	2024-11-08T09:00:00	2	Temperatura media	19.7
79998	7	Sololá	710	Panajachel	8	Panajachel	12	Diciembre	2023-12-25T00:00:00	2024-11-08T09:00:00	4	Temperatura máxima	20
79999	7	Sololá	710	Panajachel	8	Panajachel	12	Diciembre	2023-12-25T00:00:00	2024-11-08T09:00:00	3	Temperatura mínima	16.5
80000	7	Sololá	710	Panajachel	8	Panajachel	12	Diciembre	2023-12-25T00:00:00	2024-11-08T09:00:00	5	Humedad	79
80001	7	Sololá	710	Panajachel	8	Panajachel	12	Diciembre	2023-12-25T00:00:00	2024-11-08T09:00:00	6	Velocidad del viento	0
80002	7	Sololá	710	Panajachel	8	Panajachel	12	Diciembre	2023-12-25T00:00:00	2024-11-08T09:00:00	7	Dirección del viento	0
80003	7	Sololá	710	Panajachel	8	Panajachel	12	Diciembre	2023-12-25T00:00:00	2024-11-08T09:00:00	1	Precipitación	0
80004	7	Sololá	710	Panajachel	8	Panajachel	12	Diciembre	2023-12-25T00:00:00	2024-11-08T09:00:00	8	Radiación solar	364
80005	7	Sololá	710	Panajachel	8	Panajachel	12	Diciembre	2023-12-25T00:00:00	2024-11-08T10:00:00	2	Temperatura media	19.8
80006	7	Sololá	710	Panajachel	8	Panajachel	12	Diciembre	2023-12-25T00:00:00	2024-11-08T10:00:00	4	Temperatura máxima	20.3
80007	7	Sololá	710	Panajachel	8	Panajachel	12	Diciembre	2023-12-25T00:00:00	2024-11-08T10:00:00	3	Temperatura mínima	19.2
80008	7	Sololá	710	Panajachel	8	Panajachel	12	Diciembre	2023-12-25T00:00:00	2024-11-08T10:00:00	5	Humedad	79
80009	7	Sololá	710	Panajachel	8	Panajachel	12	Diciembre	2023-12-25T00:00:00	2024-11-08T10:00:00	6	Velocidad del viento	1.6
80010	7	Sololá	710	Panajachel	8	Panajachel	12	Diciembre	2023-12-25T00:00:00	2024-11-08T10:00:00	7	Dirección del viento	1.61
80011	7	Sololá	710	Panajachel	8	Panajachel	12	Diciembre	2023-12-25T00:00:00	2024-11-08T10:00:00	1	Precipitación	0
80012	7	Sololá	710	Panajachel	8	Panajachel	12	Diciembre	2023-12-25T00:00:00	2024-11-08T10:00:00	8	Radiación solar	550
80013	7	Sololá	710	Panajachel	8	Panajachel	12	Diciembre	2023-12-25T00:00:00	2024-11-08T11:00:00	2	Temperatura media	21.1
80014	7	Sololá	710	Panajachel	8	Panajachel	12	Diciembre	2023-12-25T00:00:00	2024-11-08T11:00:00	4	Temperatura máxima	21.3
80015	7	Sololá	710	Panajachel	8	Panajachel	12	Diciembre	2023-12-25T00:00:00	2024-11-08T11:00:00	3	Temperatura mínima	19.4
80016	7	Sololá	710	Panajachel	8	Panajachel	12	Diciembre	2023-12-25T00:00:00	2024-11-08T11:00:00	5	Humedad	77
80017	7	Sololá	710	Panajachel	8	Panajachel	12	Diciembre	2023-12-25T00:00:00	2024-11-08T11:00:00	6	Velocidad del viento	3.2
80018	7	Sololá	710	Panajachel	8	Panajachel	12	Diciembre	2023-12-25T00:00:00	2024-11-08T11:00:00	7	Dirección del viento	3.22
80019	7	Sololá	710	Panajachel	8	Panajachel	12	Diciembre	2023-12-25T00:00:00	2024-11-08T11:00:00	1	Precipitación	0
80020	7	Sololá	710	Panajachel	8	Panajachel	12	Diciembre	2023-12-25T00:00:00	2024-11-08T11:00:00	8	Radiación solar	681
80021	7	Sololá	710	Panajachel	8	Panajachel	12	Diciembre	2023-12-25T00:00:00	2024-11-08T12:00:00	2	Temperatura media	21.7
80022	7	Sololá	710	Panajachel	8	Panajachel	12	Diciembre	2023-12-25T00:00:00	2024-11-08T12:00:00	4	Temperatura máxima	21.7
80023	7	Sololá	710	Panajachel	8	Panajachel	12	Diciembre	2023-12-25T00:00:00	2024-11-08T12:00:00	3	Temperatura mínima	20.5
80024	7	Sololá	710	Panajachel	8	Panajachel	12	Diciembre	2023-12-25T00:00:00	2024-11-08T12:00:00	5	Humedad	73
80025	7	Sololá	710	Panajachel	8	Panajachel	12	Diciembre	2023-12-25T00:00:00	2024-11-08T12:00:00	6	Velocidad del viento	3.2
80026	7	Sololá	710	Panajachel	8	Panajachel	12	Diciembre	2023-12-25T00:00:00	2024-11-08T12:00:00	7	Dirección del viento	3.22
80027	7	Sololá	710	Panajachel	8	Panajachel	12	Diciembre	2023-12-25T00:00:00	2024-11-08T12:00:00	1	Precipitación	0
80028	7	Sololá	710	Panajachel	8	Panajachel	12	Diciembre	2023-12-25T00:00:00	2024-11-08T12:00:00	8	Radiación solar	753
80029	7	Sololá	710	Panajachel	8	Panajachel	12	Diciembre	2023-12-25T00:00:00	2024-11-08T13:00:00	2	Temperatura media	21.2
80030	7	Sololá	710	Panajachel	8	Panajachel	12	Diciembre	2023-12-25T00:00:00	2024-11-08T13:00:00	4	Temperatura máxima	21.7
80031	7	Sololá	710	Panajachel	8	Panajachel	12	Diciembre	2023-12-25T00:00:00	2024-11-08T13:00:00	3	Temperatura mínima	21.1
80032	7	Sololá	710	Panajachel	8	Panajachel	12	Diciembre	2023-12-25T00:00:00	2024-11-08T13:00:00	5	Humedad	77
80033	7	Sololá	710	Panajachel	8	Panajachel	12	Diciembre	2023-12-25T00:00:00	2024-11-08T13:00:00	6	Velocidad del viento	6.4
80034	7	Sololá	710	Panajachel	8	Panajachel	12	Diciembre	2023-12-25T00:00:00	2024-11-08T13:00:00	7	Dirección del viento	6.44
80035	7	Sololá	710	Panajachel	8	Panajachel	12	Diciembre	2023-12-25T00:00:00	2024-11-08T13:00:00	1	Precipitación	0
80036	7	Sololá	710	Panajachel	8	Panajachel	12	Diciembre	2023-12-25T00:00:00	2024-11-08T13:00:00	8	Radiación solar	750
80037	7	Sololá	710	Panajachel	8	Panajachel	12	Diciembre	2023-12-25T00:00:00	2024-11-08T14:00:00	2	Temperatura media	23.2
80038	7	Sololá	710	Panajachel	8	Panajachel	12	Diciembre	2023-12-25T00:00:00	2024-11-08T14:00:00	4	Temperatura máxima	23.2
80039	7	Sololá	710	Panajachel	8	Panajachel	12	Diciembre	2023-12-25T00:00:00	2024-11-08T14:00:00	3	Temperatura mínima	21.2
80040	7	Sololá	710	Panajachel	8	Panajachel	12	Diciembre	2023-12-25T00:00:00	2024-11-08T14:00:00	5	Humedad	74
80041	7	Sololá	710	Panajachel	8	Panajachel	12	Diciembre	2023-12-25T00:00:00	2024-11-08T14:00:00	6	Velocidad del viento	4.8
80042	7	Sololá	710	Panajachel	8	Panajachel	12	Diciembre	2023-12-25T00:00:00	2024-11-08T14:00:00	7	Dirección del viento	4.83
80043	7	Sololá	710	Panajachel	8	Panajachel	12	Diciembre	2023-12-25T00:00:00	2024-11-08T14:00:00	1	Precipitación	0
80044	7	Sololá	710	Panajachel	8	Panajachel	12	Diciembre	2023-12-25T00:00:00	2024-11-08T14:00:00	8	Radiación solar	694
80045	7	Sololá	710	Panajachel	8	Panajachel	12	Diciembre	2023-12-25T00:00:00	2024-11-08T15:00:00	2	Temperatura media	22.8
80046	7	Sololá	710	Panajachel	8	Panajachel	12	Diciembre	2023-12-25T00:00:00	2024-11-08T15:00:00	4	Temperatura máxima	23.3
80047	7	Sololá	710	Panajachel	8	Panajachel	12	Diciembre	2023-12-25T00:00:00	2024-11-08T15:00:00	3	Temperatura mínima	22.4
80048	7	Sololá	710	Panajachel	8	Panajachel	12	Diciembre	2023-12-25T00:00:00	2024-11-08T15:00:00	5	Humedad	74
80049	7	Sololá	710	Panajachel	8	Panajachel	12	Diciembre	2023-12-25T00:00:00	2024-11-08T15:00:00	6	Velocidad del viento	4.8
80050	7	Sololá	710	Panajachel	8	Panajachel	12	Diciembre	2023-12-25T00:00:00	2024-11-08T15:00:00	7	Dirección del viento	4.83
80051	7	Sololá	710	Panajachel	8	Panajachel	12	Diciembre	2023-12-25T00:00:00	2024-11-08T15:00:00	1	Precipitación	0
80052	7	Sololá	710	Panajachel	8	Panajachel	12	Diciembre	2023-12-25T00:00:00	2024-11-08T15:00:00	8	Radiación solar	545
80053	7	Sololá	710	Panajachel	8	Panajachel	12	Diciembre	2023-12-25T00:00:00	2024-11-08T16:00:00	2	Temperatura media	22.5
80054	7	Sololá	710	Panajachel	8	Panajachel	12	Diciembre	2023-12-25T00:00:00	2024-11-08T16:00:00	4	Temperatura máxima	22.8
80055	7	Sololá	710	Panajachel	8	Panajachel	12	Diciembre	2023-12-25T00:00:00	2024-11-08T16:00:00	3	Temperatura mínima	22.1
80056	7	Sololá	710	Panajachel	8	Panajachel	12	Diciembre	2023-12-25T00:00:00	2024-11-08T16:00:00	5	Humedad	77
80057	7	Sololá	710	Panajachel	8	Panajachel	12	Diciembre	2023-12-25T00:00:00	2024-11-08T16:00:00	6	Velocidad del viento	3.2
80058	7	Sololá	710	Panajachel	8	Panajachel	12	Diciembre	2023-12-25T00:00:00	2024-11-08T16:00:00	7	Dirección del viento	3.22
80059	7	Sololá	710	Panajachel	8	Panajachel	12	Diciembre	2023-12-25T00:00:00	2024-11-08T16:00:00	1	Precipitación	0
80060	7	Sololá	710	Panajachel	8	Panajachel	12	Diciembre	2023-12-25T00:00:00	2024-11-08T16:00:00	8	Radiación solar	365
80061	7	Sololá	710	Panajachel	8	Panajachel	12	Diciembre	2023-12-25T00:00:00	2024-11-08T17:00:00	2	Temperatura media	21.7
80062	7	Sololá	710	Panajachel	8	Panajachel	12	Diciembre	2023-12-25T00:00:00	2024-11-08T17:00:00	4	Temperatura máxima	23.3
80063	7	Sololá	710	Panajachel	8	Panajachel	12	Diciembre	2023-12-25T00:00:00	2024-11-08T17:00:00	3	Temperatura mínima	21.7
80064	7	Sololá	710	Panajachel	8	Panajachel	12	Diciembre	2023-12-25T00:00:00	2024-11-08T17:00:00	5	Humedad	79
80065	7	Sololá	710	Panajachel	8	Panajachel	12	Diciembre	2023-12-25T00:00:00	2024-11-08T17:00:00	6	Velocidad del viento	3.2
80066	7	Sololá	710	Panajachel	8	Panajachel	12	Diciembre	2023-12-25T00:00:00	2024-11-08T17:00:00	7	Dirección del viento	3.22
80067	7	Sololá	710	Panajachel	8	Panajachel	12	Diciembre	2023-12-25T00:00:00	2024-11-08T17:00:00	1	Precipitación	0
80068	7	Sololá	710	Panajachel	8	Panajachel	12	Diciembre	2023-12-25T00:00:00	2024-11-08T17:00:00	8	Radiación solar	209
80069	7	Sololá	710	Panajachel	8	Panajachel	12	Diciembre	2023-12-25T00:00:00	2024-11-08T18:00:00	2	Temperatura media	20.1
80070	7	Sololá	710	Panajachel	8	Panajachel	12	Diciembre	2023-12-25T00:00:00	2024-11-08T18:00:00	4	Temperatura máxima	21.7
80071	7	Sololá	710	Panajachel	8	Panajachel	12	Diciembre	2023-12-25T00:00:00	2024-11-08T18:00:00	3	Temperatura mínima	20.1
80072	7	Sololá	710	Panajachel	8	Panajachel	12	Diciembre	2023-12-25T00:00:00	2024-11-08T18:00:00	5	Humedad	85
80073	7	Sololá	710	Panajachel	8	Panajachel	12	Diciembre	2023-12-25T00:00:00	2024-11-08T18:00:00	6	Velocidad del viento	1.6
80074	7	Sololá	710	Panajachel	8	Panajachel	12	Diciembre	2023-12-25T00:00:00	2024-11-08T18:00:00	7	Dirección del viento	1.61
80075	7	Sololá	710	Panajachel	8	Panajachel	12	Diciembre	2023-12-25T00:00:00	2024-11-08T18:00:00	1	Precipitación	0
80076	7	Sololá	710	Panajachel	8	Panajachel	12	Diciembre	2023-12-25T00:00:00	2024-11-08T18:00:00	8	Radiación solar	18
80077	7	Sololá	710	Panajachel	8	Panajachel	12	Diciembre	2023-12-25T00:00:00	2024-11-08T19:00:00	2	Temperatura media	19.3
80078	7	Sololá	710	Panajachel	8	Panajachel	12	Diciembre	2023-12-25T00:00:00	2024-11-08T19:00:00	4	Temperatura máxima	20.1
80079	7	Sololá	710	Panajachel	8	Panajachel	12	Diciembre	2023-12-25T00:00:00	2024-11-08T19:00:00	3	Temperatura mínima	19.3
80080	7	Sololá	710	Panajachel	8	Panajachel	12	Diciembre	2023-12-25T00:00:00	2024-11-08T19:00:00	5	Humedad	87
80081	7	Sololá	710	Panajachel	8	Panajachel	12	Diciembre	2023-12-25T00:00:00	2024-11-08T19:00:00	6	Velocidad del viento	0
80082	7	Sololá	710	Panajachel	8	Panajachel	12	Diciembre	2023-12-25T00:00:00	2024-11-08T19:00:00	7	Dirección del viento	0
80083	7	Sololá	710	Panajachel	8	Panajachel	12	Diciembre	2023-12-25T00:00:00	2024-11-08T19:00:00	1	Precipitación	0
80084	7	Sololá	710	Panajachel	8	Panajachel	12	Diciembre	2023-12-25T00:00:00	2024-11-08T19:00:00	8	Radiación solar	0
80085	7	Sololá	710	Panajachel	8	Panajachel	12	Diciembre	2023-12-25T00:00:00	2024-11-08T20:00:00	2	Temperatura media	18.2
80086	7	Sololá	710	Panajachel	8	Panajachel	12	Diciembre	2023-12-25T00:00:00	2024-11-08T20:00:00	4	Temperatura máxima	19.4
80087	7	Sololá	710	Panajachel	8	Panajachel	12	Diciembre	2023-12-25T00:00:00	2024-11-08T20:00:00	3	Temperatura mínima	18.2
80088	7	Sololá	710	Panajachel	8	Panajachel	12	Diciembre	2023-12-25T00:00:00	2024-11-08T20:00:00	5	Humedad	86
80089	7	Sololá	710	Panajachel	8	Panajachel	12	Diciembre	2023-12-25T00:00:00	2024-11-08T20:00:00	6	Velocidad del viento	0
80090	7	Sololá	710	Panajachel	8	Panajachel	12	Diciembre	2023-12-25T00:00:00	2024-11-08T20:00:00	7	Dirección del viento	0
80091	7	Sololá	710	Panajachel	8	Panajachel	12	Diciembre	2023-12-25T00:00:00	2024-11-08T20:00:00	1	Precipitación	0
80092	7	Sololá	710	Panajachel	8	Panajachel	12	Diciembre	2023-12-25T00:00:00	2024-11-08T20:00:00	8	Radiación solar	0
80093	7	Sololá	710	Panajachel	8	Panajachel	12	Diciembre	2023-12-25T00:00:00	2024-11-08T21:00:00	2	Temperatura media	17.4
80094	7	Sololá	710	Panajachel	8	Panajachel	12	Diciembre	2023-12-25T00:00:00	2024-11-08T21:00:00	4	Temperatura máxima	18.2
80095	7	Sololá	710	Panajachel	8	Panajachel	12	Diciembre	2023-12-25T00:00:00	2024-11-08T21:00:00	3	Temperatura mínima	17.4
80096	7	Sololá	710	Panajachel	8	Panajachel	12	Diciembre	2023-12-25T00:00:00	2024-11-08T21:00:00	5	Humedad	84
80097	7	Sololá	710	Panajachel	8	Panajachel	12	Diciembre	2023-12-25T00:00:00	2024-11-08T21:00:00	6	Velocidad del viento	1.6
80098	7	Sololá	710	Panajachel	8	Panajachel	12	Diciembre	2023-12-25T00:00:00	2024-11-08T21:00:00	7	Dirección del viento	1.61
80099	7	Sololá	710	Panajachel	8	Panajachel	12	Diciembre	2023-12-25T00:00:00	2024-11-08T21:00:00	1	Precipitación	0
80100	7	Sololá	710	Panajachel	8	Panajachel	12	Diciembre	2023-12-25T00:00:00	2024-11-08T21:00:00	8	Radiación solar	0
80101	7	Sololá	710	Panajachel	8	Panajachel	12	Diciembre	2023-12-25T00:00:00	2024-11-08T22:00:00	2	Temperatura media	16.8
80102	7	Sololá	710	Panajachel	8	Panajachel	12	Diciembre	2023-12-25T00:00:00	2024-11-08T22:00:00	4	Temperatura máxima	17.5
80103	7	Sololá	710	Panajachel	8	Panajachel	12	Diciembre	2023-12-25T00:00:00	2024-11-08T22:00:00	3	Temperatura mínima	16.8
80104	7	Sololá	710	Panajachel	8	Panajachel	12	Diciembre	2023-12-25T00:00:00	2024-11-08T22:00:00	5	Humedad	84
80105	7	Sololá	710	Panajachel	8	Panajachel	12	Diciembre	2023-12-25T00:00:00	2024-11-08T22:00:00	6	Velocidad del viento	1.6
80106	7	Sololá	710	Panajachel	8	Panajachel	12	Diciembre	2023-12-25T00:00:00	2024-11-08T22:00:00	7	Dirección del viento	1.61
80107	7	Sololá	710	Panajachel	8	Panajachel	12	Diciembre	2023-12-25T00:00:00	2024-11-08T22:00:00	1	Precipitación	0
80108	7	Sololá	710	Panajachel	8	Panajachel	12	Diciembre	2023-12-25T00:00:00	2024-11-08T22:00:00	8	Radiación solar	0
80109	7	Sololá	710	Panajachel	8	Panajachel	12	Diciembre	2023-12-25T00:00:00	2024-11-08T23:00:00	2	Temperatura media	16.4
80110	7	Sololá	710	Panajachel	8	Panajachel	12	Diciembre	2023-12-25T00:00:00	2024-11-08T23:00:00	4	Temperatura máxima	16.8
80111	7	Sololá	710	Panajachel	8	Panajachel	12	Diciembre	2023-12-25T00:00:00	2024-11-08T23:00:00	3	Temperatura mínima	16.4
80112	7	Sololá	710	Panajachel	8	Panajachel	12	Diciembre	2023-12-25T00:00:00	2024-11-08T23:00:00	5	Humedad	84
80113	7	Sololá	710	Panajachel	8	Panajachel	12	Diciembre	2023-12-25T00:00:00	2024-11-08T23:00:00	6	Velocidad del viento	3.2
80114	7	Sololá	710	Panajachel	8	Panajachel	12	Diciembre	2023-12-25T00:00:00	2024-11-08T23:00:00	7	Dirección del viento	3.22
80115	7	Sololá	710	Panajachel	8	Panajachel	12	Diciembre	2023-12-25T00:00:00	2024-11-08T23:00:00	1	Precipitación	0
80116	7	Sololá	710	Panajachel	8	Panajachel	12	Diciembre	2023-12-25T00:00:00	2024-11-08T23:00:00	8	Radiación solar	0
80117	7	Sololá	710	Panajachel	8	Panajachel	12	Diciembre	2023-12-26T00:00:00	2024-11-08T00:00:00	2	Temperatura media	16.1
80118	7	Sololá	710	Panajachel	8	Panajachel	12	Diciembre	2023-12-26T00:00:00	2024-11-08T00:00:00	4	Temperatura máxima	16.6
80119	7	Sololá	710	Panajachel	8	Panajachel	12	Diciembre	2023-12-26T00:00:00	2024-11-08T00:00:00	3	Temperatura mínima	16.1
80120	7	Sololá	710	Panajachel	8	Panajachel	12	Diciembre	2023-12-26T00:00:00	2024-11-08T00:00:00	5	Humedad	82
80121	7	Sololá	710	Panajachel	8	Panajachel	12	Diciembre	2023-12-26T00:00:00	2024-11-08T00:00:00	6	Velocidad del viento	1.6
80122	7	Sololá	710	Panajachel	8	Panajachel	12	Diciembre	2023-12-26T00:00:00	2024-11-08T00:00:00	7	Dirección del viento	1.61
80123	7	Sololá	710	Panajachel	8	Panajachel	12	Diciembre	2023-12-26T00:00:00	2024-11-08T00:00:00	1	Precipitación	0
80124	7	Sololá	710	Panajachel	8	Panajachel	12	Diciembre	2023-12-26T00:00:00	2024-11-08T00:00:00	8	Radiación solar	0
80125	7	Sololá	710	Panajachel	8	Panajachel	12	Diciembre	2023-12-26T00:00:00	2024-11-08T01:00:00	2	Temperatura media	16.3
80126	7	Sololá	710	Panajachel	8	Panajachel	12	Diciembre	2023-12-26T00:00:00	2024-11-08T01:00:00	4	Temperatura máxima	16.4
80127	7	Sololá	710	Panajachel	8	Panajachel	12	Diciembre	2023-12-26T00:00:00	2024-11-08T01:00:00	3	Temperatura mínima	16.1
80128	7	Sololá	710	Panajachel	8	Panajachel	12	Diciembre	2023-12-26T00:00:00	2024-11-08T01:00:00	5	Humedad	80
80129	7	Sololá	710	Panajachel	8	Panajachel	12	Diciembre	2023-12-26T00:00:00	2024-11-08T01:00:00	6	Velocidad del viento	3.2
80130	7	Sololá	710	Panajachel	8	Panajachel	12	Diciembre	2023-12-26T00:00:00	2024-11-08T01:00:00	7	Dirección del viento	3.22
80131	7	Sololá	710	Panajachel	8	Panajachel	12	Diciembre	2023-12-26T00:00:00	2024-11-08T01:00:00	1	Precipitación	0
80132	7	Sololá	710	Panajachel	8	Panajachel	12	Diciembre	2023-12-26T00:00:00	2024-11-08T01:00:00	8	Radiación solar	0
80133	7	Sololá	710	Panajachel	8	Panajachel	12	Diciembre	2023-12-26T00:00:00	2024-11-08T02:00:00	2	Temperatura media	15.9
80134	7	Sololá	710	Panajachel	8	Panajachel	12	Diciembre	2023-12-26T00:00:00	2024-11-08T02:00:00	4	Temperatura máxima	16.4
80135	7	Sololá	710	Panajachel	8	Panajachel	12	Diciembre	2023-12-26T00:00:00	2024-11-08T02:00:00	3	Temperatura mínima	15.9
80136	7	Sololá	710	Panajachel	8	Panajachel	12	Diciembre	2023-12-26T00:00:00	2024-11-08T02:00:00	5	Humedad	80
80137	7	Sololá	710	Panajachel	8	Panajachel	12	Diciembre	2023-12-26T00:00:00	2024-11-08T02:00:00	6	Velocidad del viento	4.8
80138	7	Sololá	710	Panajachel	8	Panajachel	12	Diciembre	2023-12-26T00:00:00	2024-11-08T02:00:00	7	Dirección del viento	4.83
80139	7	Sololá	710	Panajachel	8	Panajachel	12	Diciembre	2023-12-26T00:00:00	2024-11-08T02:00:00	1	Precipitación	0
80140	7	Sololá	710	Panajachel	8	Panajachel	12	Diciembre	2023-12-26T00:00:00	2024-11-08T02:00:00	8	Radiación solar	0
80141	7	Sololá	710	Panajachel	8	Panajachel	12	Diciembre	2023-12-26T00:00:00	2024-11-08T03:00:00	2	Temperatura media	15.7
80142	7	Sololá	710	Panajachel	8	Panajachel	12	Diciembre	2023-12-26T00:00:00	2024-11-08T03:00:00	4	Temperatura máxima	16
80143	7	Sololá	710	Panajachel	8	Panajachel	12	Diciembre	2023-12-26T00:00:00	2024-11-08T03:00:00	3	Temperatura mínima	15.7
80144	7	Sololá	710	Panajachel	8	Panajachel	12	Diciembre	2023-12-26T00:00:00	2024-11-08T03:00:00	5	Humedad	80
80145	7	Sololá	710	Panajachel	8	Panajachel	12	Diciembre	2023-12-26T00:00:00	2024-11-08T03:00:00	6	Velocidad del viento	3.2
80146	7	Sololá	710	Panajachel	8	Panajachel	12	Diciembre	2023-12-26T00:00:00	2024-11-08T03:00:00	7	Dirección del viento	3.22
80147	7	Sololá	710	Panajachel	8	Panajachel	12	Diciembre	2023-12-26T00:00:00	2024-11-08T03:00:00	1	Precipitación	0
80148	7	Sololá	710	Panajachel	8	Panajachel	12	Diciembre	2023-12-26T00:00:00	2024-11-08T03:00:00	8	Radiación solar	0
80149	7	Sololá	710	Panajachel	8	Panajachel	12	Diciembre	2023-12-26T00:00:00	2024-11-08T04:00:00	2	Temperatura media	15.8
80150	7	Sololá	710	Panajachel	8	Panajachel	12	Diciembre	2023-12-26T00:00:00	2024-11-08T04:00:00	4	Temperatura máxima	16
80151	7	Sololá	710	Panajachel	8	Panajachel	12	Diciembre	2023-12-26T00:00:00	2024-11-08T04:00:00	3	Temperatura mínima	15.6
80152	7	Sololá	710	Panajachel	8	Panajachel	12	Diciembre	2023-12-26T00:00:00	2024-11-08T04:00:00	5	Humedad	78
80153	7	Sololá	710	Panajachel	8	Panajachel	12	Diciembre	2023-12-26T00:00:00	2024-11-08T04:00:00	6	Velocidad del viento	3.2
80154	7	Sololá	710	Panajachel	8	Panajachel	12	Diciembre	2023-12-26T00:00:00	2024-11-08T04:00:00	7	Dirección del viento	3.22
80155	7	Sololá	710	Panajachel	8	Panajachel	12	Diciembre	2023-12-26T00:00:00	2024-11-08T04:00:00	1	Precipitación	0
80156	7	Sololá	710	Panajachel	8	Panajachel	12	Diciembre	2023-12-26T00:00:00	2024-11-08T04:00:00	8	Radiación solar	0
80157	7	Sololá	710	Panajachel	8	Panajachel	12	Diciembre	2023-12-26T00:00:00	2024-11-08T05:00:00	2	Temperatura media	15.4
80158	7	Sololá	710	Panajachel	8	Panajachel	12	Diciembre	2023-12-26T00:00:00	2024-11-08T05:00:00	4	Temperatura máxima	15.8
80159	7	Sololá	710	Panajachel	8	Panajachel	12	Diciembre	2023-12-26T00:00:00	2024-11-08T05:00:00	3	Temperatura mínima	15.4
80160	7	Sololá	710	Panajachel	8	Panajachel	12	Diciembre	2023-12-26T00:00:00	2024-11-08T05:00:00	5	Humedad	79
80161	7	Sololá	710	Panajachel	8	Panajachel	12	Diciembre	2023-12-26T00:00:00	2024-11-08T05:00:00	6	Velocidad del viento	1.6
80162	7	Sololá	710	Panajachel	8	Panajachel	12	Diciembre	2023-12-26T00:00:00	2024-11-08T05:00:00	7	Dirección del viento	1.61
80163	7	Sololá	710	Panajachel	8	Panajachel	12	Diciembre	2023-12-26T00:00:00	2024-11-08T05:00:00	1	Precipitación	0
80164	7	Sololá	710	Panajachel	8	Panajachel	12	Diciembre	2023-12-26T00:00:00	2024-11-08T05:00:00	8	Radiación solar	0
80165	7	Sololá	710	Panajachel	8	Panajachel	12	Diciembre	2023-12-26T00:00:00	2024-11-08T06:00:00	2	Temperatura media	14.9
80166	7	Sololá	710	Panajachel	8	Panajachel	12	Diciembre	2023-12-26T00:00:00	2024-11-08T06:00:00	4	Temperatura máxima	15.4
80167	7	Sololá	710	Panajachel	8	Panajachel	12	Diciembre	2023-12-26T00:00:00	2024-11-08T06:00:00	3	Temperatura mínima	14.9
80168	7	Sololá	710	Panajachel	8	Panajachel	12	Diciembre	2023-12-26T00:00:00	2024-11-08T06:00:00	5	Humedad	81
80169	7	Sololá	710	Panajachel	8	Panajachel	12	Diciembre	2023-12-26T00:00:00	2024-11-08T06:00:00	6	Velocidad del viento	3.2
80170	7	Sololá	710	Panajachel	8	Panajachel	12	Diciembre	2023-12-26T00:00:00	2024-11-08T06:00:00	7	Dirección del viento	3.22
80171	7	Sololá	710	Panajachel	8	Panajachel	12	Diciembre	2023-12-26T00:00:00	2024-11-08T06:00:00	1	Precipitación	0
80172	7	Sololá	710	Panajachel	8	Panajachel	12	Diciembre	2023-12-26T00:00:00	2024-11-08T06:00:00	8	Radiación solar	0
80173	7	Sololá	710	Panajachel	8	Panajachel	12	Diciembre	2023-12-26T00:00:00	2024-11-08T07:00:00	2	Temperatura media	14.8
80174	7	Sololá	710	Panajachel	8	Panajachel	12	Diciembre	2023-12-26T00:00:00	2024-11-08T07:00:00	4	Temperatura máxima	14.9
80175	7	Sololá	710	Panajachel	8	Panajachel	12	Diciembre	2023-12-26T00:00:00	2024-11-08T07:00:00	3	Temperatura mínima	14.7
80176	7	Sololá	710	Panajachel	8	Panajachel	12	Diciembre	2023-12-26T00:00:00	2024-11-08T07:00:00	5	Humedad	80
80177	7	Sololá	710	Panajachel	8	Panajachel	12	Diciembre	2023-12-26T00:00:00	2024-11-08T07:00:00	6	Velocidad del viento	0
80178	7	Sololá	710	Panajachel	8	Panajachel	12	Diciembre	2023-12-26T00:00:00	2024-11-08T07:00:00	7	Dirección del viento	0
80179	7	Sololá	710	Panajachel	8	Panajachel	12	Diciembre	2023-12-26T00:00:00	2024-11-08T07:00:00	1	Precipitación	0
80180	7	Sololá	710	Panajachel	8	Panajachel	12	Diciembre	2023-12-26T00:00:00	2024-11-08T07:00:00	8	Radiación solar	6
80181	7	Sololá	710	Panajachel	8	Panajachel	12	Diciembre	2023-12-26T00:00:00	2024-11-08T08:00:00	2	Temperatura media	18
80182	7	Sololá	710	Panajachel	8	Panajachel	12	Diciembre	2023-12-26T00:00:00	2024-11-08T08:00:00	4	Temperatura máxima	18
80183	7	Sololá	710	Panajachel	8	Panajachel	12	Diciembre	2023-12-26T00:00:00	2024-11-08T08:00:00	3	Temperatura mínima	14.7
80184	7	Sololá	710	Panajachel	8	Panajachel	12	Diciembre	2023-12-26T00:00:00	2024-11-08T08:00:00	5	Humedad	72
80185	7	Sololá	710	Panajachel	8	Panajachel	12	Diciembre	2023-12-26T00:00:00	2024-11-08T08:00:00	6	Velocidad del viento	1.6
80186	7	Sololá	710	Panajachel	8	Panajachel	12	Diciembre	2023-12-26T00:00:00	2024-11-08T08:00:00	7	Dirección del viento	1.61
80187	7	Sololá	710	Panajachel	8	Panajachel	12	Diciembre	2023-12-26T00:00:00	2024-11-08T08:00:00	1	Precipitación	0
80188	7	Sololá	710	Panajachel	8	Panajachel	12	Diciembre	2023-12-26T00:00:00	2024-11-08T08:00:00	8	Radiación solar	146
80189	7	Sololá	710	Panajachel	8	Panajachel	12	Diciembre	2023-12-26T00:00:00	2024-11-08T09:00:00	2	Temperatura media	18.5
80190	7	Sololá	710	Panajachel	8	Panajachel	12	Diciembre	2023-12-26T00:00:00	2024-11-08T09:00:00	4	Temperatura máxima	18.6
80191	7	Sololá	710	Panajachel	8	Panajachel	12	Diciembre	2023-12-26T00:00:00	2024-11-08T09:00:00	3	Temperatura mínima	17.9
80192	7	Sololá	710	Panajachel	8	Panajachel	12	Diciembre	2023-12-26T00:00:00	2024-11-08T09:00:00	5	Humedad	79
80193	7	Sololá	710	Panajachel	8	Panajachel	12	Diciembre	2023-12-26T00:00:00	2024-11-08T09:00:00	6	Velocidad del viento	0
80194	7	Sololá	710	Panajachel	8	Panajachel	12	Diciembre	2023-12-26T00:00:00	2024-11-08T09:00:00	7	Dirección del viento	0
80195	7	Sololá	710	Panajachel	8	Panajachel	12	Diciembre	2023-12-26T00:00:00	2024-11-08T09:00:00	1	Precipitación	0
80196	7	Sololá	710	Panajachel	8	Panajachel	12	Diciembre	2023-12-26T00:00:00	2024-11-08T09:00:00	8	Radiación solar	367
80197	7	Sololá	710	Panajachel	8	Panajachel	12	Diciembre	2023-12-26T00:00:00	2024-11-08T10:00:00	2	Temperatura media	20.4
80198	7	Sololá	710	Panajachel	8	Panajachel	12	Diciembre	2023-12-26T00:00:00	2024-11-08T10:00:00	4	Temperatura máxima	20.5
80199	7	Sololá	710	Panajachel	8	Panajachel	12	Diciembre	2023-12-26T00:00:00	2024-11-08T10:00:00	3	Temperatura mínima	18.5
80200	7	Sololá	710	Panajachel	8	Panajachel	12	Diciembre	2023-12-26T00:00:00	2024-11-08T10:00:00	5	Humedad	75
80201	7	Sololá	710	Panajachel	8	Panajachel	12	Diciembre	2023-12-26T00:00:00	2024-11-08T10:00:00	6	Velocidad del viento	0
80202	7	Sololá	710	Panajachel	8	Panajachel	12	Diciembre	2023-12-26T00:00:00	2024-11-08T10:00:00	7	Dirección del viento	0
80203	7	Sololá	710	Panajachel	8	Panajachel	12	Diciembre	2023-12-26T00:00:00	2024-11-08T10:00:00	1	Precipitación	0
80204	7	Sololá	710	Panajachel	8	Panajachel	12	Diciembre	2023-12-26T00:00:00	2024-11-08T10:00:00	8	Radiación solar	554
80205	7	Sololá	710	Panajachel	8	Panajachel	12	Diciembre	2023-12-26T00:00:00	2024-11-08T11:00:00	2	Temperatura media	20.4
80206	7	Sololá	710	Panajachel	8	Panajachel	12	Diciembre	2023-12-26T00:00:00	2024-11-08T11:00:00	4	Temperatura máxima	20.5
80207	7	Sololá	710	Panajachel	8	Panajachel	12	Diciembre	2023-12-26T00:00:00	2024-11-08T11:00:00	3	Temperatura mínima	19.6
80208	7	Sololá	710	Panajachel	8	Panajachel	12	Diciembre	2023-12-26T00:00:00	2024-11-08T11:00:00	5	Humedad	78
80209	7	Sololá	710	Panajachel	8	Panajachel	12	Diciembre	2023-12-26T00:00:00	2024-11-08T11:00:00	6	Velocidad del viento	0
80210	7	Sololá	710	Panajachel	8	Panajachel	12	Diciembre	2023-12-26T00:00:00	2024-11-08T11:00:00	7	Dirección del viento	0
80211	7	Sololá	710	Panajachel	8	Panajachel	12	Diciembre	2023-12-26T00:00:00	2024-11-08T11:00:00	1	Precipitación	0
80212	7	Sololá	710	Panajachel	8	Panajachel	12	Diciembre	2023-12-26T00:00:00	2024-11-08T11:00:00	8	Radiación solar	693
80213	7	Sololá	710	Panajachel	8	Panajachel	12	Diciembre	2023-12-26T00:00:00	2024-11-08T12:00:00	2	Temperatura media	21.7
80214	7	Sololá	710	Panajachel	8	Panajachel	12	Diciembre	2023-12-26T00:00:00	2024-11-08T12:00:00	4	Temperatura máxima	22.6
80215	7	Sololá	710	Panajachel	8	Panajachel	12	Diciembre	2023-12-26T00:00:00	2024-11-08T12:00:00	3	Temperatura mínima	20.5
80216	7	Sololá	710	Panajachel	8	Panajachel	12	Diciembre	2023-12-26T00:00:00	2024-11-08T12:00:00	5	Humedad	67
80217	7	Sololá	710	Panajachel	8	Panajachel	12	Diciembre	2023-12-26T00:00:00	2024-11-08T12:00:00	6	Velocidad del viento	0
80218	7	Sololá	710	Panajachel	8	Panajachel	12	Diciembre	2023-12-26T00:00:00	2024-11-08T12:00:00	7	Dirección del viento	0
80219	7	Sololá	710	Panajachel	8	Panajachel	12	Diciembre	2023-12-26T00:00:00	2024-11-08T12:00:00	1	Precipitación	0
80220	7	Sololá	710	Panajachel	8	Panajachel	12	Diciembre	2023-12-26T00:00:00	2024-11-08T12:00:00	8	Radiación solar	765
80221	7	Sololá	710	Panajachel	8	Panajachel	12	Diciembre	2023-12-26T00:00:00	2024-11-08T13:00:00	2	Temperatura media	23.4
80222	7	Sololá	710	Panajachel	8	Panajachel	12	Diciembre	2023-12-26T00:00:00	2024-11-08T13:00:00	4	Temperatura máxima	23.4
80223	7	Sololá	710	Panajachel	8	Panajachel	12	Diciembre	2023-12-26T00:00:00	2024-11-08T13:00:00	3	Temperatura mínima	21.3
80224	7	Sololá	710	Panajachel	8	Panajachel	12	Diciembre	2023-12-26T00:00:00	2024-11-08T13:00:00	5	Humedad	64
80225	7	Sololá	710	Panajachel	8	Panajachel	12	Diciembre	2023-12-26T00:00:00	2024-11-08T13:00:00	6	Velocidad del viento	1.6
80226	7	Sololá	710	Panajachel	8	Panajachel	12	Diciembre	2023-12-26T00:00:00	2024-11-08T13:00:00	7	Dirección del viento	1.61
80227	7	Sololá	710	Panajachel	8	Panajachel	12	Diciembre	2023-12-26T00:00:00	2024-11-08T13:00:00	1	Precipitación	0
80228	7	Sololá	710	Panajachel	8	Panajachel	12	Diciembre	2023-12-26T00:00:00	2024-11-08T13:00:00	8	Radiación solar	758
80229	7	Sololá	710	Panajachel	8	Panajachel	12	Diciembre	2023-12-26T00:00:00	2024-11-08T14:00:00	2	Temperatura media	23.4
80230	7	Sololá	710	Panajachel	8	Panajachel	12	Diciembre	2023-12-26T00:00:00	2024-11-08T14:00:00	4	Temperatura máxima	24.6
80231	7	Sololá	710	Panajachel	8	Panajachel	12	Diciembre	2023-12-26T00:00:00	2024-11-08T14:00:00	3	Temperatura mínima	23.4
80232	7	Sololá	710	Panajachel	8	Panajachel	12	Diciembre	2023-12-26T00:00:00	2024-11-08T14:00:00	5	Humedad	72
80233	7	Sololá	710	Panajachel	8	Panajachel	12	Diciembre	2023-12-26T00:00:00	2024-11-08T14:00:00	6	Velocidad del viento	3.2
80234	7	Sololá	710	Panajachel	8	Panajachel	12	Diciembre	2023-12-26T00:00:00	2024-11-08T14:00:00	7	Dirección del viento	3.22
80235	7	Sololá	710	Panajachel	8	Panajachel	12	Diciembre	2023-12-26T00:00:00	2024-11-08T14:00:00	1	Precipitación	0
80236	7	Sololá	710	Panajachel	8	Panajachel	12	Diciembre	2023-12-26T00:00:00	2024-11-08T14:00:00	8	Radiación solar	697
80237	7	Sololá	710	Panajachel	8	Panajachel	12	Diciembre	2023-12-26T00:00:00	2024-11-08T15:00:00	2	Temperatura media	22.4
80238	7	Sololá	710	Panajachel	8	Panajachel	12	Diciembre	2023-12-26T00:00:00	2024-11-08T15:00:00	4	Temperatura máxima	23.5
80239	7	Sololá	710	Panajachel	8	Panajachel	12	Diciembre	2023-12-26T00:00:00	2024-11-08T15:00:00	3	Temperatura mínima	22.3
80240	7	Sololá	710	Panajachel	8	Panajachel	12	Diciembre	2023-12-26T00:00:00	2024-11-08T15:00:00	5	Humedad	76
80241	7	Sololá	710	Panajachel	8	Panajachel	12	Diciembre	2023-12-26T00:00:00	2024-11-08T15:00:00	6	Velocidad del viento	8
80242	7	Sololá	710	Panajachel	8	Panajachel	12	Diciembre	2023-12-26T00:00:00	2024-11-08T15:00:00	7	Dirección del viento	8.05
80243	7	Sololá	710	Panajachel	8	Panajachel	12	Diciembre	2023-12-26T00:00:00	2024-11-08T15:00:00	1	Precipitación	0
80244	7	Sololá	710	Panajachel	8	Panajachel	12	Diciembre	2023-12-26T00:00:00	2024-11-08T15:00:00	8	Radiación solar	572
80245	7	Sololá	710	Panajachel	8	Panajachel	12	Diciembre	2023-12-26T00:00:00	2024-11-08T16:00:00	2	Temperatura media	22.1
80246	7	Sololá	710	Panajachel	8	Panajachel	12	Diciembre	2023-12-26T00:00:00	2024-11-08T16:00:00	4	Temperatura máxima	22.7
80247	7	Sololá	710	Panajachel	8	Panajachel	12	Diciembre	2023-12-26T00:00:00	2024-11-08T16:00:00	3	Temperatura mínima	22.1
80248	7	Sololá	710	Panajachel	8	Panajachel	12	Diciembre	2023-12-26T00:00:00	2024-11-08T16:00:00	5	Humedad	78
80249	7	Sololá	710	Panajachel	8	Panajachel	12	Diciembre	2023-12-26T00:00:00	2024-11-08T16:00:00	6	Velocidad del viento	4.8
80250	7	Sololá	710	Panajachel	8	Panajachel	12	Diciembre	2023-12-26T00:00:00	2024-11-08T16:00:00	7	Dirección del viento	4.83
80251	7	Sololá	710	Panajachel	8	Panajachel	12	Diciembre	2023-12-26T00:00:00	2024-11-08T16:00:00	1	Precipitación	0
80252	7	Sololá	710	Panajachel	8	Panajachel	12	Diciembre	2023-12-26T00:00:00	2024-11-08T16:00:00	8	Radiación solar	366
80253	7	Sololá	710	Panajachel	8	Panajachel	12	Diciembre	2023-12-26T00:00:00	2024-11-08T17:00:00	2	Temperatura media	21.3
80254	7	Sololá	710	Panajachel	8	Panajachel	12	Diciembre	2023-12-26T00:00:00	2024-11-08T17:00:00	4	Temperatura máxima	22.2
80255	7	Sololá	710	Panajachel	8	Panajachel	12	Diciembre	2023-12-26T00:00:00	2024-11-08T17:00:00	3	Temperatura mínima	21.1
80256	7	Sololá	710	Panajachel	8	Panajachel	12	Diciembre	2023-12-26T00:00:00	2024-11-08T17:00:00	5	Humedad	81
80257	7	Sololá	710	Panajachel	8	Panajachel	12	Diciembre	2023-12-26T00:00:00	2024-11-08T17:00:00	6	Velocidad del viento	4.8
80258	7	Sololá	710	Panajachel	8	Panajachel	12	Diciembre	2023-12-26T00:00:00	2024-11-08T17:00:00	7	Dirección del viento	4.83
80259	7	Sololá	710	Panajachel	8	Panajachel	12	Diciembre	2023-12-26T00:00:00	2024-11-08T17:00:00	1	Precipitación	0
80260	7	Sololá	710	Panajachel	8	Panajachel	12	Diciembre	2023-12-26T00:00:00	2024-11-08T17:00:00	8	Radiación solar	164
80261	7	Sololá	710	Panajachel	8	Panajachel	12	Diciembre	2023-12-26T00:00:00	2024-11-08T18:00:00	2	Temperatura media	19.7
80262	7	Sololá	710	Panajachel	8	Panajachel	12	Diciembre	2023-12-26T00:00:00	2024-11-08T18:00:00	4	Temperatura máxima	21.2
80263	7	Sololá	710	Panajachel	8	Panajachel	12	Diciembre	2023-12-26T00:00:00	2024-11-08T18:00:00	3	Temperatura mínima	19.7
80264	7	Sololá	710	Panajachel	8	Panajachel	12	Diciembre	2023-12-26T00:00:00	2024-11-08T18:00:00	5	Humedad	87
80265	7	Sololá	710	Panajachel	8	Panajachel	12	Diciembre	2023-12-26T00:00:00	2024-11-08T18:00:00	6	Velocidad del viento	1.6
80266	7	Sololá	710	Panajachel	8	Panajachel	12	Diciembre	2023-12-26T00:00:00	2024-11-08T18:00:00	7	Dirección del viento	1.61
80267	7	Sololá	710	Panajachel	8	Panajachel	12	Diciembre	2023-12-26T00:00:00	2024-11-08T18:00:00	1	Precipitación	0
80268	7	Sololá	710	Panajachel	8	Panajachel	12	Diciembre	2023-12-26T00:00:00	2024-11-08T18:00:00	8	Radiación solar	17
80269	7	Sololá	710	Panajachel	8	Panajachel	12	Diciembre	2023-12-26T00:00:00	2024-11-08T19:00:00	2	Temperatura media	18.9
80270	7	Sololá	710	Panajachel	8	Panajachel	12	Diciembre	2023-12-26T00:00:00	2024-11-08T19:00:00	4	Temperatura máxima	19.7
80271	7	Sololá	710	Panajachel	8	Panajachel	12	Diciembre	2023-12-26T00:00:00	2024-11-08T19:00:00	3	Temperatura mínima	18.9
80272	7	Sololá	710	Panajachel	8	Panajachel	12	Diciembre	2023-12-26T00:00:00	2024-11-08T19:00:00	5	Humedad	86
80273	7	Sololá	710	Panajachel	8	Panajachel	12	Diciembre	2023-12-26T00:00:00	2024-11-08T19:00:00	6	Velocidad del viento	0
80274	7	Sololá	710	Panajachel	8	Panajachel	12	Diciembre	2023-12-26T00:00:00	2024-11-08T19:00:00	7	Dirección del viento	0
80275	7	Sololá	710	Panajachel	8	Panajachel	12	Diciembre	2023-12-26T00:00:00	2024-11-08T19:00:00	1	Precipitación	0
80276	7	Sololá	710	Panajachel	8	Panajachel	12	Diciembre	2023-12-26T00:00:00	2024-11-08T19:00:00	8	Radiación solar	0
80277	7	Sololá	710	Panajachel	8	Panajachel	12	Diciembre	2023-12-26T00:00:00	2024-11-08T20:00:00	2	Temperatura media	18
80278	7	Sololá	710	Panajachel	8	Panajachel	12	Diciembre	2023-12-26T00:00:00	2024-11-08T20:00:00	4	Temperatura máxima	19
80279	7	Sololá	710	Panajachel	8	Panajachel	12	Diciembre	2023-12-26T00:00:00	2024-11-08T20:00:00	3	Temperatura mínima	18
80280	7	Sololá	710	Panajachel	8	Panajachel	12	Diciembre	2023-12-26T00:00:00	2024-11-08T20:00:00	5	Humedad	84
80281	7	Sololá	710	Panajachel	8	Panajachel	12	Diciembre	2023-12-26T00:00:00	2024-11-08T20:00:00	6	Velocidad del viento	3.2
80282	7	Sololá	710	Panajachel	8	Panajachel	12	Diciembre	2023-12-26T00:00:00	2024-11-08T20:00:00	7	Dirección del viento	3.22
80283	7	Sololá	710	Panajachel	8	Panajachel	12	Diciembre	2023-12-26T00:00:00	2024-11-08T20:00:00	1	Precipitación	0
80284	7	Sololá	710	Panajachel	8	Panajachel	12	Diciembre	2023-12-26T00:00:00	2024-11-08T20:00:00	8	Radiación solar	0
80285	7	Sololá	710	Panajachel	8	Panajachel	12	Diciembre	2023-12-26T00:00:00	2024-11-08T21:00:00	2	Temperatura media	17.4
80286	7	Sololá	710	Panajachel	8	Panajachel	12	Diciembre	2023-12-26T00:00:00	2024-11-08T21:00:00	4	Temperatura máxima	18
80287	7	Sololá	710	Panajachel	8	Panajachel	12	Diciembre	2023-12-26T00:00:00	2024-11-08T21:00:00	3	Temperatura mínima	17.4
80288	7	Sololá	710	Panajachel	8	Panajachel	12	Diciembre	2023-12-26T00:00:00	2024-11-08T21:00:00	5	Humedad	83
80289	7	Sololá	710	Panajachel	8	Panajachel	12	Diciembre	2023-12-26T00:00:00	2024-11-08T21:00:00	6	Velocidad del viento	3.2
80290	7	Sololá	710	Panajachel	8	Panajachel	12	Diciembre	2023-12-26T00:00:00	2024-11-08T21:00:00	7	Dirección del viento	3.22
80291	7	Sololá	710	Panajachel	8	Panajachel	12	Diciembre	2023-12-26T00:00:00	2024-11-08T21:00:00	1	Precipitación	0
80292	7	Sololá	710	Panajachel	8	Panajachel	12	Diciembre	2023-12-26T00:00:00	2024-11-08T21:00:00	8	Radiación solar	0
80293	7	Sololá	710	Panajachel	8	Panajachel	12	Diciembre	2023-12-26T00:00:00	2024-11-08T22:00:00	2	Temperatura media	17.4
80294	7	Sololá	710	Panajachel	8	Panajachel	12	Diciembre	2023-12-26T00:00:00	2024-11-08T22:00:00	4	Temperatura máxima	17.7
80295	7	Sololá	710	Panajachel	8	Panajachel	12	Diciembre	2023-12-26T00:00:00	2024-11-08T22:00:00	3	Temperatura mínima	17.3
80296	7	Sololá	710	Panajachel	8	Panajachel	12	Diciembre	2023-12-26T00:00:00	2024-11-08T22:00:00	5	Humedad	82
80297	7	Sololá	710	Panajachel	8	Panajachel	12	Diciembre	2023-12-26T00:00:00	2024-11-08T22:00:00	6	Velocidad del viento	3.2
80298	7	Sololá	710	Panajachel	8	Panajachel	12	Diciembre	2023-12-26T00:00:00	2024-11-08T22:00:00	7	Dirección del viento	3.22
80299	7	Sololá	710	Panajachel	8	Panajachel	12	Diciembre	2023-12-26T00:00:00	2024-11-08T22:00:00	1	Precipitación	0
80300	7	Sololá	710	Panajachel	8	Panajachel	12	Diciembre	2023-12-26T00:00:00	2024-11-08T22:00:00	8	Radiación solar	0
80301	7	Sololá	710	Panajachel	8	Panajachel	12	Diciembre	2023-12-26T00:00:00	2024-11-08T23:00:00	2	Temperatura media	17.2
80302	7	Sololá	710	Panajachel	8	Panajachel	12	Diciembre	2023-12-26T00:00:00	2024-11-08T23:00:00	4	Temperatura máxima	17.8
80303	7	Sololá	710	Panajachel	8	Panajachel	12	Diciembre	2023-12-26T00:00:00	2024-11-08T23:00:00	3	Temperatura mínima	17.2
80304	7	Sololá	710	Panajachel	8	Panajachel	12	Diciembre	2023-12-26T00:00:00	2024-11-08T23:00:00	5	Humedad	84
80305	7	Sololá	710	Panajachel	8	Panajachel	12	Diciembre	2023-12-26T00:00:00	2024-11-08T23:00:00	6	Velocidad del viento	1.6
80306	7	Sololá	710	Panajachel	8	Panajachel	12	Diciembre	2023-12-26T00:00:00	2024-11-08T23:00:00	7	Dirección del viento	1.61
80307	7	Sololá	710	Panajachel	8	Panajachel	12	Diciembre	2023-12-26T00:00:00	2024-11-08T23:00:00	1	Precipitación	0
80308	7	Sololá	710	Panajachel	8	Panajachel	12	Diciembre	2023-12-26T00:00:00	2024-11-08T23:00:00	8	Radiación solar	0
80309	7	Sololá	710	Panajachel	8	Panajachel	12	Diciembre	2023-12-27T00:00:00	2024-11-08T00:00:00	2	Temperatura media	16.7
80310	7	Sololá	710	Panajachel	8	Panajachel	12	Diciembre	2023-12-27T00:00:00	2024-11-08T00:00:00	4	Temperatura máxima	17.2
80311	7	Sololá	710	Panajachel	8	Panajachel	12	Diciembre	2023-12-27T00:00:00	2024-11-08T00:00:00	3	Temperatura mínima	16.7
80312	7	Sololá	710	Panajachel	8	Panajachel	12	Diciembre	2023-12-27T00:00:00	2024-11-08T00:00:00	5	Humedad	84
80313	7	Sololá	710	Panajachel	8	Panajachel	12	Diciembre	2023-12-27T00:00:00	2024-11-08T00:00:00	6	Velocidad del viento	3.2
80314	7	Sololá	710	Panajachel	8	Panajachel	12	Diciembre	2023-12-27T00:00:00	2024-11-08T00:00:00	7	Dirección del viento	3.22
80315	7	Sololá	710	Panajachel	8	Panajachel	12	Diciembre	2023-12-27T00:00:00	2024-11-08T00:00:00	1	Precipitación	0
80316	7	Sololá	710	Panajachel	8	Panajachel	12	Diciembre	2023-12-27T00:00:00	2024-11-08T00:00:00	8	Radiación solar	0
80317	7	Sololá	710	Panajachel	8	Panajachel	12	Diciembre	2023-12-27T00:00:00	2024-11-08T01:00:00	2	Temperatura media	16.6
80318	7	Sololá	710	Panajachel	8	Panajachel	12	Diciembre	2023-12-27T00:00:00	2024-11-08T01:00:00	4	Temperatura máxima	16.8
80319	7	Sololá	710	Panajachel	8	Panajachel	12	Diciembre	2023-12-27T00:00:00	2024-11-08T01:00:00	3	Temperatura mínima	16.6
80320	7	Sololá	710	Panajachel	8	Panajachel	12	Diciembre	2023-12-27T00:00:00	2024-11-08T01:00:00	5	Humedad	83
80321	7	Sololá	710	Panajachel	8	Panajachel	12	Diciembre	2023-12-27T00:00:00	2024-11-08T01:00:00	6	Velocidad del viento	3.2
80322	7	Sololá	710	Panajachel	8	Panajachel	12	Diciembre	2023-12-27T00:00:00	2024-11-08T01:00:00	7	Dirección del viento	3.22
80323	7	Sololá	710	Panajachel	8	Panajachel	12	Diciembre	2023-12-27T00:00:00	2024-11-08T01:00:00	1	Precipitación	0
80324	7	Sololá	710	Panajachel	8	Panajachel	12	Diciembre	2023-12-27T00:00:00	2024-11-08T01:00:00	8	Radiación solar	0
80325	7	Sololá	710	Panajachel	8	Panajachel	12	Diciembre	2023-12-27T00:00:00	2024-11-08T02:00:00	2	Temperatura media	15.9
80326	7	Sololá	710	Panajachel	8	Panajachel	12	Diciembre	2023-12-27T00:00:00	2024-11-08T02:00:00	4	Temperatura máxima	16.6
80327	7	Sololá	710	Panajachel	8	Panajachel	12	Diciembre	2023-12-27T00:00:00	2024-11-08T02:00:00	3	Temperatura mínima	15.9
80328	7	Sololá	710	Panajachel	8	Panajachel	12	Diciembre	2023-12-27T00:00:00	2024-11-08T02:00:00	5	Humedad	86
80329	7	Sololá	710	Panajachel	8	Panajachel	12	Diciembre	2023-12-27T00:00:00	2024-11-08T02:00:00	6	Velocidad del viento	1.6
80330	7	Sololá	710	Panajachel	8	Panajachel	12	Diciembre	2023-12-27T00:00:00	2024-11-08T02:00:00	7	Dirección del viento	1.61
80331	7	Sololá	710	Panajachel	8	Panajachel	12	Diciembre	2023-12-27T00:00:00	2024-11-08T02:00:00	1	Precipitación	0
80332	7	Sololá	710	Panajachel	8	Panajachel	12	Diciembre	2023-12-27T00:00:00	2024-11-08T02:00:00	8	Radiación solar	0
80333	7	Sololá	710	Panajachel	8	Panajachel	12	Diciembre	2023-12-27T00:00:00	2024-11-08T03:00:00	2	Temperatura media	15.3
80334	7	Sololá	710	Panajachel	8	Panajachel	12	Diciembre	2023-12-27T00:00:00	2024-11-08T03:00:00	4	Temperatura máxima	15.9
80335	7	Sololá	710	Panajachel	8	Panajachel	12	Diciembre	2023-12-27T00:00:00	2024-11-08T03:00:00	3	Temperatura mínima	15.3
80336	7	Sololá	710	Panajachel	8	Panajachel	12	Diciembre	2023-12-27T00:00:00	2024-11-08T03:00:00	5	Humedad	86
80337	7	Sololá	710	Panajachel	8	Panajachel	12	Diciembre	2023-12-27T00:00:00	2024-11-08T03:00:00	6	Velocidad del viento	1.6
80338	7	Sololá	710	Panajachel	8	Panajachel	12	Diciembre	2023-12-27T00:00:00	2024-11-08T03:00:00	7	Dirección del viento	1.61
80339	7	Sololá	710	Panajachel	8	Panajachel	12	Diciembre	2023-12-27T00:00:00	2024-11-08T03:00:00	1	Precipitación	0
80340	7	Sololá	710	Panajachel	8	Panajachel	12	Diciembre	2023-12-27T00:00:00	2024-11-08T03:00:00	8	Radiación solar	0
80341	7	Sololá	710	Panajachel	8	Panajachel	12	Diciembre	2023-12-27T00:00:00	2024-11-08T04:00:00	2	Temperatura media	14.8
80342	7	Sololá	710	Panajachel	8	Panajachel	12	Diciembre	2023-12-27T00:00:00	2024-11-08T04:00:00	4	Temperatura máxima	15.3
80343	7	Sololá	710	Panajachel	8	Panajachel	12	Diciembre	2023-12-27T00:00:00	2024-11-08T04:00:00	3	Temperatura mínima	14.8
80344	7	Sololá	710	Panajachel	8	Panajachel	12	Diciembre	2023-12-27T00:00:00	2024-11-08T04:00:00	5	Humedad	85
80345	7	Sololá	710	Panajachel	8	Panajachel	12	Diciembre	2023-12-27T00:00:00	2024-11-08T04:00:00	6	Velocidad del viento	3.2
80346	7	Sololá	710	Panajachel	8	Panajachel	12	Diciembre	2023-12-27T00:00:00	2024-11-08T04:00:00	7	Dirección del viento	3.22
80347	7	Sololá	710	Panajachel	8	Panajachel	12	Diciembre	2023-12-27T00:00:00	2024-11-08T04:00:00	1	Precipitación	0
80348	7	Sololá	710	Panajachel	8	Panajachel	12	Diciembre	2023-12-27T00:00:00	2024-11-08T04:00:00	8	Radiación solar	0
80349	7	Sololá	710	Panajachel	8	Panajachel	12	Diciembre	2023-12-27T00:00:00	2024-11-08T05:00:00	2	Temperatura media	14.2
80350	7	Sololá	710	Panajachel	8	Panajachel	12	Diciembre	2023-12-27T00:00:00	2024-11-08T05:00:00	4	Temperatura máxima	14.8
80351	7	Sololá	710	Panajachel	8	Panajachel	12	Diciembre	2023-12-27T00:00:00	2024-11-08T05:00:00	3	Temperatura mínima	14.2
80352	7	Sololá	710	Panajachel	8	Panajachel	12	Diciembre	2023-12-27T00:00:00	2024-11-08T05:00:00	5	Humedad	83
80353	7	Sololá	710	Panajachel	8	Panajachel	12	Diciembre	2023-12-27T00:00:00	2024-11-08T05:00:00	6	Velocidad del viento	3.2
80354	7	Sololá	710	Panajachel	8	Panajachel	12	Diciembre	2023-12-27T00:00:00	2024-11-08T05:00:00	7	Dirección del viento	3.22
80355	7	Sololá	710	Panajachel	8	Panajachel	12	Diciembre	2023-12-27T00:00:00	2024-11-08T05:00:00	1	Precipitación	0
80356	7	Sololá	710	Panajachel	8	Panajachel	12	Diciembre	2023-12-27T00:00:00	2024-11-08T05:00:00	8	Radiación solar	0
80357	7	Sololá	710	Panajachel	8	Panajachel	12	Diciembre	2023-12-27T00:00:00	2024-11-08T06:00:00	2	Temperatura media	13.9
80358	7	Sololá	710	Panajachel	8	Panajachel	12	Diciembre	2023-12-27T00:00:00	2024-11-08T06:00:00	4	Temperatura máxima	14.2
80359	7	Sololá	710	Panajachel	8	Panajachel	12	Diciembre	2023-12-27T00:00:00	2024-11-08T06:00:00	3	Temperatura mínima	13.8
80360	7	Sololá	710	Panajachel	8	Panajachel	12	Diciembre	2023-12-27T00:00:00	2024-11-08T06:00:00	5	Humedad	80
80361	7	Sololá	710	Panajachel	8	Panajachel	12	Diciembre	2023-12-27T00:00:00	2024-11-08T06:00:00	6	Velocidad del viento	3.2
80362	7	Sololá	710	Panajachel	8	Panajachel	12	Diciembre	2023-12-27T00:00:00	2024-11-08T06:00:00	7	Dirección del viento	3.22
80363	7	Sololá	710	Panajachel	8	Panajachel	12	Diciembre	2023-12-27T00:00:00	2024-11-08T06:00:00	1	Precipitación	0
80364	7	Sololá	710	Panajachel	8	Panajachel	12	Diciembre	2023-12-27T00:00:00	2024-11-08T06:00:00	8	Radiación solar	0
80365	7	Sololá	710	Panajachel	8	Panajachel	12	Diciembre	2023-12-27T00:00:00	2024-11-08T07:00:00	2	Temperatura media	13.4
80366	7	Sololá	710	Panajachel	8	Panajachel	12	Diciembre	2023-12-27T00:00:00	2024-11-08T07:00:00	4	Temperatura máxima	14
80367	7	Sololá	710	Panajachel	8	Panajachel	12	Diciembre	2023-12-27T00:00:00	2024-11-08T07:00:00	3	Temperatura mínima	13.4
80368	7	Sololá	710	Panajachel	8	Panajachel	12	Diciembre	2023-12-27T00:00:00	2024-11-08T07:00:00	5	Humedad	79
80369	7	Sololá	710	Panajachel	8	Panajachel	12	Diciembre	2023-12-27T00:00:00	2024-11-08T07:00:00	6	Velocidad del viento	3.2
80370	7	Sololá	710	Panajachel	8	Panajachel	12	Diciembre	2023-12-27T00:00:00	2024-11-08T07:00:00	7	Dirección del viento	3.22
80371	7	Sololá	710	Panajachel	8	Panajachel	12	Diciembre	2023-12-27T00:00:00	2024-11-08T07:00:00	1	Precipitación	0
80372	7	Sololá	710	Panajachel	8	Panajachel	12	Diciembre	2023-12-27T00:00:00	2024-11-08T07:00:00	8	Radiación solar	5
80373	7	Sololá	710	Panajachel	8	Panajachel	12	Diciembre	2023-12-27T00:00:00	2024-11-08T08:00:00	2	Temperatura media	16.2
80374	7	Sololá	710	Panajachel	8	Panajachel	12	Diciembre	2023-12-27T00:00:00	2024-11-08T08:00:00	4	Temperatura máxima	16.2
80375	7	Sololá	710	Panajachel	8	Panajachel	12	Diciembre	2023-12-27T00:00:00	2024-11-08T08:00:00	3	Temperatura mínima	13.4
80376	7	Sololá	710	Panajachel	8	Panajachel	12	Diciembre	2023-12-27T00:00:00	2024-11-08T08:00:00	5	Humedad	73
80377	7	Sololá	710	Panajachel	8	Panajachel	12	Diciembre	2023-12-27T00:00:00	2024-11-08T08:00:00	6	Velocidad del viento	3.2
80378	7	Sololá	710	Panajachel	8	Panajachel	12	Diciembre	2023-12-27T00:00:00	2024-11-08T08:00:00	7	Dirección del viento	3.22
80379	7	Sololá	710	Panajachel	8	Panajachel	12	Diciembre	2023-12-27T00:00:00	2024-11-08T08:00:00	1	Precipitación	0
80380	7	Sololá	710	Panajachel	8	Panajachel	12	Diciembre	2023-12-27T00:00:00	2024-11-08T08:00:00	8	Radiación solar	142
80381	7	Sololá	710	Panajachel	8	Panajachel	12	Diciembre	2023-12-27T00:00:00	2024-11-08T09:00:00	2	Temperatura media	18.8
80382	7	Sololá	710	Panajachel	8	Panajachel	12	Diciembre	2023-12-27T00:00:00	2024-11-08T09:00:00	4	Temperatura máxima	18.9
80383	7	Sololá	710	Panajachel	8	Panajachel	12	Diciembre	2023-12-27T00:00:00	2024-11-08T09:00:00	3	Temperatura mínima	16.2
80384	7	Sololá	710	Panajachel	8	Panajachel	12	Diciembre	2023-12-27T00:00:00	2024-11-08T09:00:00	5	Humedad	70
80385	7	Sololá	710	Panajachel	8	Panajachel	12	Diciembre	2023-12-27T00:00:00	2024-11-08T09:00:00	6	Velocidad del viento	1.6
80386	7	Sololá	710	Panajachel	8	Panajachel	12	Diciembre	2023-12-27T00:00:00	2024-11-08T09:00:00	7	Dirección del viento	1.61
80387	7	Sololá	710	Panajachel	8	Panajachel	12	Diciembre	2023-12-27T00:00:00	2024-11-08T09:00:00	1	Precipitación	0
80388	7	Sololá	710	Panajachel	8	Panajachel	12	Diciembre	2023-12-27T00:00:00	2024-11-08T09:00:00	8	Radiación solar	385
80389	7	Sololá	710	Panajachel	8	Panajachel	12	Diciembre	2023-12-27T00:00:00	2024-11-08T10:00:00	2	Temperatura media	18.2
80390	7	Sololá	710	Panajachel	8	Panajachel	12	Diciembre	2023-12-27T00:00:00	2024-11-08T10:00:00	4	Temperatura máxima	19.1
80391	7	Sololá	710	Panajachel	8	Panajachel	12	Diciembre	2023-12-27T00:00:00	2024-11-08T10:00:00	3	Temperatura mínima	18.2
80392	7	Sololá	710	Panajachel	8	Panajachel	12	Diciembre	2023-12-27T00:00:00	2024-11-08T10:00:00	5	Humedad	78
80393	7	Sololá	710	Panajachel	8	Panajachel	12	Diciembre	2023-12-27T00:00:00	2024-11-08T10:00:00	6	Velocidad del viento	3.2
80394	7	Sololá	710	Panajachel	8	Panajachel	12	Diciembre	2023-12-27T00:00:00	2024-11-08T10:00:00	7	Dirección del viento	3.22
80395	7	Sololá	710	Panajachel	8	Panajachel	12	Diciembre	2023-12-27T00:00:00	2024-11-08T10:00:00	1	Precipitación	0
80396	7	Sololá	710	Panajachel	8	Panajachel	12	Diciembre	2023-12-27T00:00:00	2024-11-08T10:00:00	8	Radiación solar	462
80397	7	Sololá	710	Panajachel	8	Panajachel	12	Diciembre	2023-12-27T00:00:00	2024-11-08T11:00:00	2	Temperatura media	19.1
80398	7	Sololá	710	Panajachel	8	Panajachel	12	Diciembre	2023-12-27T00:00:00	2024-11-08T11:00:00	4	Temperatura máxima	19.4
80399	7	Sololá	710	Panajachel	8	Panajachel	12	Diciembre	2023-12-27T00:00:00	2024-11-08T11:00:00	3	Temperatura mínima	18.2
80400	7	Sololá	710	Panajachel	8	Panajachel	12	Diciembre	2023-12-27T00:00:00	2024-11-08T11:00:00	5	Humedad	79
80401	7	Sololá	710	Panajachel	8	Panajachel	12	Diciembre	2023-12-27T00:00:00	2024-11-08T11:00:00	6	Velocidad del viento	3.2
80402	7	Sololá	710	Panajachel	8	Panajachel	12	Diciembre	2023-12-27T00:00:00	2024-11-08T11:00:00	7	Dirección del viento	3.22
80403	7	Sololá	710	Panajachel	8	Panajachel	12	Diciembre	2023-12-27T00:00:00	2024-11-08T11:00:00	1	Precipitación	0
80404	7	Sololá	710	Panajachel	8	Panajachel	12	Diciembre	2023-12-27T00:00:00	2024-11-08T11:00:00	8	Radiación solar	498
80405	7	Sololá	710	Panajachel	8	Panajachel	12	Diciembre	2023-12-27T00:00:00	2024-11-08T12:00:00	2	Temperatura media	21.9
80406	7	Sololá	710	Panajachel	8	Panajachel	12	Diciembre	2023-12-27T00:00:00	2024-11-08T12:00:00	4	Temperatura máxima	21.9
80407	7	Sololá	710	Panajachel	8	Panajachel	12	Diciembre	2023-12-27T00:00:00	2024-11-08T12:00:00	3	Temperatura mínima	19
80408	7	Sololá	710	Panajachel	8	Panajachel	12	Diciembre	2023-12-27T00:00:00	2024-11-08T12:00:00	5	Humedad	66
80409	7	Sololá	710	Panajachel	8	Panajachel	12	Diciembre	2023-12-27T00:00:00	2024-11-08T12:00:00	6	Velocidad del viento	3.2
80410	7	Sololá	710	Panajachel	8	Panajachel	12	Diciembre	2023-12-27T00:00:00	2024-11-08T12:00:00	7	Dirección del viento	3.22
80411	7	Sololá	710	Panajachel	8	Panajachel	12	Diciembre	2023-12-27T00:00:00	2024-11-08T12:00:00	1	Precipitación	0
80412	7	Sololá	710	Panajachel	8	Panajachel	12	Diciembre	2023-12-27T00:00:00	2024-11-08T12:00:00	8	Radiación solar	687
80413	7	Sololá	710	Panajachel	8	Panajachel	12	Diciembre	2023-12-27T00:00:00	2024-11-08T13:00:00	2	Temperatura media	22.6
80414	7	Sololá	710	Panajachel	8	Panajachel	12	Diciembre	2023-12-27T00:00:00	2024-11-08T13:00:00	4	Temperatura máxima	23.7
80415	7	Sololá	710	Panajachel	8	Panajachel	12	Diciembre	2023-12-27T00:00:00	2024-11-08T13:00:00	3	Temperatura mínima	21.6
80416	7	Sololá	710	Panajachel	8	Panajachel	12	Diciembre	2023-12-27T00:00:00	2024-11-08T13:00:00	5	Humedad	66
80417	7	Sololá	710	Panajachel	8	Panajachel	12	Diciembre	2023-12-27T00:00:00	2024-11-08T13:00:00	6	Velocidad del viento	3.2
80418	7	Sololá	710	Panajachel	8	Panajachel	12	Diciembre	2023-12-27T00:00:00	2024-11-08T13:00:00	7	Dirección del viento	3.22
80419	7	Sololá	710	Panajachel	8	Panajachel	12	Diciembre	2023-12-27T00:00:00	2024-11-08T13:00:00	1	Precipitación	0
80420	7	Sololá	710	Panajachel	8	Panajachel	12	Diciembre	2023-12-27T00:00:00	2024-11-08T13:00:00	8	Radiación solar	795
80421	7	Sololá	710	Panajachel	8	Panajachel	12	Diciembre	2023-12-27T00:00:00	2024-11-08T14:00:00	2	Temperatura media	21.9
80422	7	Sololá	710	Panajachel	8	Panajachel	12	Diciembre	2023-12-27T00:00:00	2024-11-08T14:00:00	4	Temperatura máxima	22.9
80423	7	Sololá	710	Panajachel	8	Panajachel	12	Diciembre	2023-12-27T00:00:00	2024-11-08T14:00:00	3	Temperatura mínima	21.6
80424	7	Sololá	710	Panajachel	8	Panajachel	12	Diciembre	2023-12-27T00:00:00	2024-11-08T14:00:00	5	Humedad	70
80425	7	Sololá	710	Panajachel	8	Panajachel	12	Diciembre	2023-12-27T00:00:00	2024-11-08T14:00:00	6	Velocidad del viento	6.4
80426	7	Sololá	710	Panajachel	8	Panajachel	12	Diciembre	2023-12-27T00:00:00	2024-11-08T14:00:00	7	Dirección del viento	6.44
80427	7	Sololá	710	Panajachel	8	Panajachel	12	Diciembre	2023-12-27T00:00:00	2024-11-08T14:00:00	1	Precipitación	0
80428	7	Sololá	710	Panajachel	8	Panajachel	12	Diciembre	2023-12-27T00:00:00	2024-11-08T14:00:00	8	Radiación solar	711
80429	7	Sololá	710	Panajachel	8	Panajachel	12	Diciembre	2023-12-27T00:00:00	2024-11-08T15:00:00	2	Temperatura media	22.8
80430	7	Sololá	710	Panajachel	8	Panajachel	12	Diciembre	2023-12-27T00:00:00	2024-11-08T15:00:00	4	Temperatura máxima	23.5
80431	7	Sololá	710	Panajachel	8	Panajachel	12	Diciembre	2023-12-27T00:00:00	2024-11-08T15:00:00	3	Temperatura mínima	21.8
80432	7	Sololá	710	Panajachel	8	Panajachel	12	Diciembre	2023-12-27T00:00:00	2024-11-08T15:00:00	5	Humedad	74
80433	7	Sololá	710	Panajachel	8	Panajachel	12	Diciembre	2023-12-27T00:00:00	2024-11-08T15:00:00	6	Velocidad del viento	6.4
80434	7	Sololá	710	Panajachel	8	Panajachel	12	Diciembre	2023-12-27T00:00:00	2024-11-08T15:00:00	7	Dirección del viento	6.44
80435	7	Sololá	710	Panajachel	8	Panajachel	12	Diciembre	2023-12-27T00:00:00	2024-11-08T15:00:00	1	Precipitación	0
80436	7	Sololá	710	Panajachel	8	Panajachel	12	Diciembre	2023-12-27T00:00:00	2024-11-08T15:00:00	8	Radiación solar	582
80437	7	Sololá	710	Panajachel	8	Panajachel	12	Diciembre	2023-12-27T00:00:00	2024-11-08T16:00:00	2	Temperatura media	23.4
80438	7	Sololá	710	Panajachel	8	Panajachel	12	Diciembre	2023-12-27T00:00:00	2024-11-08T16:00:00	4	Temperatura máxima	23.4
80439	7	Sololá	710	Panajachel	8	Panajachel	12	Diciembre	2023-12-27T00:00:00	2024-11-08T16:00:00	3	Temperatura mínima	22.3
80440	7	Sololá	710	Panajachel	8	Panajachel	12	Diciembre	2023-12-27T00:00:00	2024-11-08T16:00:00	5	Humedad	71
80441	7	Sololá	710	Panajachel	8	Panajachel	12	Diciembre	2023-12-27T00:00:00	2024-11-08T16:00:00	6	Velocidad del viento	3.2
80442	7	Sololá	710	Panajachel	8	Panajachel	12	Diciembre	2023-12-27T00:00:00	2024-11-08T16:00:00	7	Dirección del viento	3.22
80443	7	Sololá	710	Panajachel	8	Panajachel	12	Diciembre	2023-12-27T00:00:00	2024-11-08T16:00:00	1	Precipitación	0
80444	7	Sololá	710	Panajachel	8	Panajachel	12	Diciembre	2023-12-27T00:00:00	2024-11-08T16:00:00	8	Radiación solar	370
80445	7	Sololá	710	Panajachel	8	Panajachel	12	Diciembre	2023-12-27T00:00:00	2024-11-08T17:00:00	2	Temperatura media	21.1
80446	7	Sololá	710	Panajachel	8	Panajachel	12	Diciembre	2023-12-27T00:00:00	2024-11-08T17:00:00	4	Temperatura máxima	23.9
80447	7	Sololá	710	Panajachel	8	Panajachel	12	Diciembre	2023-12-27T00:00:00	2024-11-08T17:00:00	3	Temperatura mínima	21.1
80448	7	Sololá	710	Panajachel	8	Panajachel	12	Diciembre	2023-12-27T00:00:00	2024-11-08T17:00:00	5	Humedad	80
80449	7	Sololá	710	Panajachel	8	Panajachel	12	Diciembre	2023-12-27T00:00:00	2024-11-08T17:00:00	6	Velocidad del viento	4.8
80450	7	Sololá	710	Panajachel	8	Panajachel	12	Diciembre	2023-12-27T00:00:00	2024-11-08T17:00:00	7	Dirección del viento	4.83
80451	7	Sololá	710	Panajachel	8	Panajachel	12	Diciembre	2023-12-27T00:00:00	2024-11-08T17:00:00	1	Precipitación	0
80452	7	Sololá	710	Panajachel	8	Panajachel	12	Diciembre	2023-12-27T00:00:00	2024-11-08T17:00:00	8	Radiación solar	205
80453	7	Sololá	710	Panajachel	8	Panajachel	12	Diciembre	2023-12-27T00:00:00	2024-11-08T18:00:00	2	Temperatura media	19.6
80454	7	Sololá	710	Panajachel	8	Panajachel	12	Diciembre	2023-12-27T00:00:00	2024-11-08T18:00:00	4	Temperatura máxima	21.2
80455	7	Sololá	710	Panajachel	8	Panajachel	12	Diciembre	2023-12-27T00:00:00	2024-11-08T18:00:00	3	Temperatura mínima	19.6
80456	7	Sololá	710	Panajachel	8	Panajachel	12	Diciembre	2023-12-27T00:00:00	2024-11-08T18:00:00	5	Humedad	85
80457	7	Sololá	710	Panajachel	8	Panajachel	12	Diciembre	2023-12-27T00:00:00	2024-11-08T18:00:00	6	Velocidad del viento	3.2
80458	7	Sololá	710	Panajachel	8	Panajachel	12	Diciembre	2023-12-27T00:00:00	2024-11-08T18:00:00	7	Dirección del viento	3.22
80459	7	Sololá	710	Panajachel	8	Panajachel	12	Diciembre	2023-12-27T00:00:00	2024-11-08T18:00:00	1	Precipitación	0
80460	7	Sololá	710	Panajachel	8	Panajachel	12	Diciembre	2023-12-27T00:00:00	2024-11-08T18:00:00	8	Radiación solar	42
80461	7	Sololá	710	Panajachel	8	Panajachel	12	Diciembre	2023-12-27T00:00:00	2024-11-08T19:00:00	2	Temperatura media	18.8
80462	7	Sololá	710	Panajachel	8	Panajachel	12	Diciembre	2023-12-27T00:00:00	2024-11-08T19:00:00	4	Temperatura máxima	19.6
80463	7	Sololá	710	Panajachel	8	Panajachel	12	Diciembre	2023-12-27T00:00:00	2024-11-08T19:00:00	3	Temperatura mínima	18.8
80464	7	Sololá	710	Panajachel	8	Panajachel	12	Diciembre	2023-12-27T00:00:00	2024-11-08T19:00:00	5	Humedad	89
80465	7	Sololá	710	Panajachel	8	Panajachel	12	Diciembre	2023-12-27T00:00:00	2024-11-08T19:00:00	6	Velocidad del viento	0
80466	7	Sololá	710	Panajachel	8	Panajachel	12	Diciembre	2023-12-27T00:00:00	2024-11-08T19:00:00	7	Dirección del viento	0
80467	7	Sololá	710	Panajachel	8	Panajachel	12	Diciembre	2023-12-27T00:00:00	2024-11-08T19:00:00	1	Precipitación	0
80468	7	Sololá	710	Panajachel	8	Panajachel	12	Diciembre	2023-12-27T00:00:00	2024-11-08T19:00:00	8	Radiación solar	0
80469	7	Sololá	710	Panajachel	8	Panajachel	12	Diciembre	2023-12-27T00:00:00	2024-11-08T20:00:00	2	Temperatura media	18.2
80470	7	Sololá	710	Panajachel	8	Panajachel	12	Diciembre	2023-12-27T00:00:00	2024-11-08T20:00:00	4	Temperatura máxima	18.8
80471	7	Sololá	710	Panajachel	8	Panajachel	12	Diciembre	2023-12-27T00:00:00	2024-11-08T20:00:00	3	Temperatura mínima	18.2
80472	7	Sololá	710	Panajachel	8	Panajachel	12	Diciembre	2023-12-27T00:00:00	2024-11-08T20:00:00	5	Humedad	84
80473	7	Sololá	710	Panajachel	8	Panajachel	12	Diciembre	2023-12-27T00:00:00	2024-11-08T20:00:00	6	Velocidad del viento	1.6
80474	7	Sololá	710	Panajachel	8	Panajachel	12	Diciembre	2023-12-27T00:00:00	2024-11-08T20:00:00	7	Dirección del viento	1.61
80475	7	Sololá	710	Panajachel	8	Panajachel	12	Diciembre	2023-12-27T00:00:00	2024-11-08T20:00:00	1	Precipitación	0
80476	7	Sololá	710	Panajachel	8	Panajachel	12	Diciembre	2023-12-27T00:00:00	2024-11-08T20:00:00	8	Radiación solar	0
80477	7	Sololá	710	Panajachel	8	Panajachel	12	Diciembre	2023-12-27T00:00:00	2024-11-08T21:00:00	2	Temperatura media	17.3
80478	7	Sololá	710	Panajachel	8	Panajachel	12	Diciembre	2023-12-27T00:00:00	2024-11-08T21:00:00	4	Temperatura máxima	18.2
80479	7	Sololá	710	Panajachel	8	Panajachel	12	Diciembre	2023-12-27T00:00:00	2024-11-08T21:00:00	3	Temperatura mínima	17.3
80480	7	Sololá	710	Panajachel	8	Panajachel	12	Diciembre	2023-12-27T00:00:00	2024-11-08T21:00:00	5	Humedad	85
80481	7	Sololá	710	Panajachel	8	Panajachel	12	Diciembre	2023-12-27T00:00:00	2024-11-08T21:00:00	6	Velocidad del viento	3.2
80482	7	Sololá	710	Panajachel	8	Panajachel	12	Diciembre	2023-12-27T00:00:00	2024-11-08T21:00:00	7	Dirección del viento	3.22
80483	7	Sololá	710	Panajachel	8	Panajachel	12	Diciembre	2023-12-27T00:00:00	2024-11-08T21:00:00	1	Precipitación	0
80484	7	Sololá	710	Panajachel	8	Panajachel	12	Diciembre	2023-12-27T00:00:00	2024-11-08T21:00:00	8	Radiación solar	0
80485	7	Sololá	710	Panajachel	8	Panajachel	12	Diciembre	2023-12-27T00:00:00	2024-11-08T22:00:00	2	Temperatura media	16.7
80486	7	Sololá	710	Panajachel	8	Panajachel	12	Diciembre	2023-12-27T00:00:00	2024-11-08T22:00:00	4	Temperatura máxima	17.3
80487	7	Sololá	710	Panajachel	8	Panajachel	12	Diciembre	2023-12-27T00:00:00	2024-11-08T22:00:00	3	Temperatura mínima	16.6
80488	7	Sololá	710	Panajachel	8	Panajachel	12	Diciembre	2023-12-27T00:00:00	2024-11-08T22:00:00	5	Humedad	86
80489	7	Sololá	710	Panajachel	8	Panajachel	12	Diciembre	2023-12-27T00:00:00	2024-11-08T22:00:00	6	Velocidad del viento	0
80490	7	Sololá	710	Panajachel	8	Panajachel	12	Diciembre	2023-12-27T00:00:00	2024-11-08T22:00:00	7	Dirección del viento	0
80491	7	Sololá	710	Panajachel	8	Panajachel	12	Diciembre	2023-12-27T00:00:00	2024-11-08T22:00:00	1	Precipitación	0
80492	7	Sololá	710	Panajachel	8	Panajachel	12	Diciembre	2023-12-27T00:00:00	2024-11-08T22:00:00	8	Radiación solar	0
80493	7	Sololá	710	Panajachel	8	Panajachel	12	Diciembre	2023-12-27T00:00:00	2024-11-08T23:00:00	2	Temperatura media	15.9
80494	7	Sololá	710	Panajachel	8	Panajachel	12	Diciembre	2023-12-27T00:00:00	2024-11-08T23:00:00	4	Temperatura máxima	16.7
80495	7	Sololá	710	Panajachel	8	Panajachel	12	Diciembre	2023-12-27T00:00:00	2024-11-08T23:00:00	3	Temperatura mínima	15.9
80496	7	Sololá	710	Panajachel	8	Panajachel	12	Diciembre	2023-12-27T00:00:00	2024-11-08T23:00:00	5	Humedad	85
80497	7	Sololá	710	Panajachel	8	Panajachel	12	Diciembre	2023-12-27T00:00:00	2024-11-08T23:00:00	6	Velocidad del viento	1.6
80498	7	Sololá	710	Panajachel	8	Panajachel	12	Diciembre	2023-12-27T00:00:00	2024-11-08T23:00:00	7	Dirección del viento	1.61
80499	7	Sololá	710	Panajachel	8	Panajachel	12	Diciembre	2023-12-27T00:00:00	2024-11-08T23:00:00	1	Precipitación	0
80500	7	Sololá	710	Panajachel	8	Panajachel	12	Diciembre	2023-12-27T00:00:00	2024-11-08T23:00:00	8	Radiación solar	0
80501	7	Sololá	710	Panajachel	8	Panajachel	12	Diciembre	2023-12-28T00:00:00	2024-11-08T00:00:00	2	Temperatura media	15.5
80502	7	Sololá	710	Panajachel	8	Panajachel	12	Diciembre	2023-12-28T00:00:00	2024-11-08T00:00:00	4	Temperatura máxima	16
80503	7	Sololá	710	Panajachel	8	Panajachel	12	Diciembre	2023-12-28T00:00:00	2024-11-08T00:00:00	3	Temperatura mínima	15.4
80504	7	Sololá	710	Panajachel	8	Panajachel	12	Diciembre	2023-12-28T00:00:00	2024-11-08T00:00:00	5	Humedad	83
80505	7	Sololá	710	Panajachel	8	Panajachel	12	Diciembre	2023-12-28T00:00:00	2024-11-08T00:00:00	6	Velocidad del viento	1.6
80506	7	Sololá	710	Panajachel	8	Panajachel	12	Diciembre	2023-12-28T00:00:00	2024-11-08T00:00:00	7	Dirección del viento	1.61
80507	7	Sololá	710	Panajachel	8	Panajachel	12	Diciembre	2023-12-28T00:00:00	2024-11-08T00:00:00	1	Precipitación	0
80508	7	Sololá	710	Panajachel	8	Panajachel	12	Diciembre	2023-12-28T00:00:00	2024-11-08T00:00:00	8	Radiación solar	0
80509	7	Sololá	710	Panajachel	8	Panajachel	12	Diciembre	2023-12-28T00:00:00	2024-11-08T01:00:00	2	Temperatura media	15.3
80510	7	Sololá	710	Panajachel	8	Panajachel	12	Diciembre	2023-12-28T00:00:00	2024-11-08T01:00:00	4	Temperatura máxima	15.6
80511	7	Sololá	710	Panajachel	8	Panajachel	12	Diciembre	2023-12-28T00:00:00	2024-11-08T01:00:00	3	Temperatura mínima	15.2
80512	7	Sololá	710	Panajachel	8	Panajachel	12	Diciembre	2023-12-28T00:00:00	2024-11-08T01:00:00	5	Humedad	85
80513	7	Sololá	710	Panajachel	8	Panajachel	12	Diciembre	2023-12-28T00:00:00	2024-11-08T01:00:00	6	Velocidad del viento	3.2
80514	7	Sololá	710	Panajachel	8	Panajachel	12	Diciembre	2023-12-28T00:00:00	2024-11-08T01:00:00	7	Dirección del viento	3.22
80515	7	Sololá	710	Panajachel	8	Panajachel	12	Diciembre	2023-12-28T00:00:00	2024-11-08T01:00:00	1	Precipitación	0
80516	7	Sololá	710	Panajachel	8	Panajachel	12	Diciembre	2023-12-28T00:00:00	2024-11-08T01:00:00	8	Radiación solar	0
80517	7	Sololá	710	Panajachel	8	Panajachel	12	Diciembre	2023-12-28T00:00:00	2024-11-08T02:00:00	2	Temperatura media	14.6
80518	7	Sololá	710	Panajachel	8	Panajachel	12	Diciembre	2023-12-28T00:00:00	2024-11-08T02:00:00	4	Temperatura máxima	15.3
80519	7	Sololá	710	Panajachel	8	Panajachel	12	Diciembre	2023-12-28T00:00:00	2024-11-08T02:00:00	3	Temperatura mínima	14.5
80520	7	Sololá	710	Panajachel	8	Panajachel	12	Diciembre	2023-12-28T00:00:00	2024-11-08T02:00:00	5	Humedad	84
80521	7	Sololá	710	Panajachel	8	Panajachel	12	Diciembre	2023-12-28T00:00:00	2024-11-08T02:00:00	6	Velocidad del viento	1.6
80522	7	Sololá	710	Panajachel	8	Panajachel	12	Diciembre	2023-12-28T00:00:00	2024-11-08T02:00:00	7	Dirección del viento	1.61
80523	7	Sololá	710	Panajachel	8	Panajachel	12	Diciembre	2023-12-28T00:00:00	2024-11-08T02:00:00	1	Precipitación	0
80524	7	Sololá	710	Panajachel	8	Panajachel	12	Diciembre	2023-12-28T00:00:00	2024-11-08T02:00:00	8	Radiación solar	0
80525	7	Sololá	710	Panajachel	8	Panajachel	12	Diciembre	2023-12-28T00:00:00	2024-11-08T03:00:00	2	Temperatura media	14.1
80526	7	Sololá	710	Panajachel	8	Panajachel	12	Diciembre	2023-12-28T00:00:00	2024-11-08T03:00:00	4	Temperatura máxima	14.6
80527	7	Sololá	710	Panajachel	8	Panajachel	12	Diciembre	2023-12-28T00:00:00	2024-11-08T03:00:00	3	Temperatura mínima	14.1
80528	7	Sololá	710	Panajachel	8	Panajachel	12	Diciembre	2023-12-28T00:00:00	2024-11-08T03:00:00	5	Humedad	81
80529	7	Sololá	710	Panajachel	8	Panajachel	12	Diciembre	2023-12-28T00:00:00	2024-11-08T03:00:00	6	Velocidad del viento	1.6
80530	7	Sololá	710	Panajachel	8	Panajachel	12	Diciembre	2023-12-28T00:00:00	2024-11-08T03:00:00	7	Dirección del viento	1.61
80531	7	Sololá	710	Panajachel	8	Panajachel	12	Diciembre	2023-12-28T00:00:00	2024-11-08T03:00:00	1	Precipitación	0
80532	7	Sololá	710	Panajachel	8	Panajachel	12	Diciembre	2023-12-28T00:00:00	2024-11-08T03:00:00	8	Radiación solar	0
80533	7	Sololá	710	Panajachel	8	Panajachel	12	Diciembre	2023-12-28T00:00:00	2024-11-08T04:00:00	2	Temperatura media	13.5
80534	7	Sololá	710	Panajachel	8	Panajachel	12	Diciembre	2023-12-28T00:00:00	2024-11-08T04:00:00	4	Temperatura máxima	14.2
80535	7	Sololá	710	Panajachel	8	Panajachel	12	Diciembre	2023-12-28T00:00:00	2024-11-08T04:00:00	3	Temperatura mínima	13.4
80536	7	Sololá	710	Panajachel	8	Panajachel	12	Diciembre	2023-12-28T00:00:00	2024-11-08T04:00:00	5	Humedad	79
80537	7	Sololá	710	Panajachel	8	Panajachel	12	Diciembre	2023-12-28T00:00:00	2024-11-08T04:00:00	6	Velocidad del viento	1.6
80538	7	Sololá	710	Panajachel	8	Panajachel	12	Diciembre	2023-12-28T00:00:00	2024-11-08T04:00:00	7	Dirección del viento	1.61
80539	7	Sololá	710	Panajachel	8	Panajachel	12	Diciembre	2023-12-28T00:00:00	2024-11-08T04:00:00	1	Precipitación	0
80540	7	Sololá	710	Panajachel	8	Panajachel	12	Diciembre	2023-12-28T00:00:00	2024-11-08T04:00:00	8	Radiación solar	0
80541	7	Sololá	710	Panajachel	8	Panajachel	12	Diciembre	2023-12-28T00:00:00	2024-11-08T05:00:00	2	Temperatura media	13.1
80542	7	Sololá	710	Panajachel	8	Panajachel	12	Diciembre	2023-12-28T00:00:00	2024-11-08T05:00:00	4	Temperatura máxima	13.6
80543	7	Sololá	710	Panajachel	8	Panajachel	12	Diciembre	2023-12-28T00:00:00	2024-11-08T05:00:00	3	Temperatura mínima	13.1
80544	7	Sololá	710	Panajachel	8	Panajachel	12	Diciembre	2023-12-28T00:00:00	2024-11-08T05:00:00	5	Humedad	76
80545	7	Sololá	710	Panajachel	8	Panajachel	12	Diciembre	2023-12-28T00:00:00	2024-11-08T05:00:00	6	Velocidad del viento	1.6
80546	7	Sololá	710	Panajachel	8	Panajachel	12	Diciembre	2023-12-28T00:00:00	2024-11-08T05:00:00	7	Dirección del viento	1.61
80547	7	Sololá	710	Panajachel	8	Panajachel	12	Diciembre	2023-12-28T00:00:00	2024-11-08T05:00:00	1	Precipitación	0
80548	7	Sololá	710	Panajachel	8	Panajachel	12	Diciembre	2023-12-28T00:00:00	2024-11-08T05:00:00	8	Radiación solar	0
80549	7	Sololá	710	Panajachel	8	Panajachel	12	Diciembre	2023-12-28T00:00:00	2024-11-08T06:00:00	2	Temperatura media	13.9
80550	7	Sololá	710	Panajachel	8	Panajachel	12	Diciembre	2023-12-28T00:00:00	2024-11-08T06:00:00	4	Temperatura máxima	13.9
80551	7	Sololá	710	Panajachel	8	Panajachel	12	Diciembre	2023-12-28T00:00:00	2024-11-08T06:00:00	3	Temperatura mínima	12.9
80552	7	Sololá	710	Panajachel	8	Panajachel	12	Diciembre	2023-12-28T00:00:00	2024-11-08T06:00:00	5	Humedad	68
80553	7	Sololá	710	Panajachel	8	Panajachel	12	Diciembre	2023-12-28T00:00:00	2024-11-08T06:00:00	6	Velocidad del viento	3.2
80554	7	Sololá	710	Panajachel	8	Panajachel	12	Diciembre	2023-12-28T00:00:00	2024-11-08T06:00:00	7	Dirección del viento	3.22
80555	7	Sololá	710	Panajachel	8	Panajachel	12	Diciembre	2023-12-28T00:00:00	2024-11-08T06:00:00	1	Precipitación	0
80556	7	Sololá	710	Panajachel	8	Panajachel	12	Diciembre	2023-12-28T00:00:00	2024-11-08T06:00:00	8	Radiación solar	0
80557	7	Sololá	710	Panajachel	8	Panajachel	12	Diciembre	2023-12-28T00:00:00	2024-11-08T07:00:00	2	Temperatura media	13.3
80558	7	Sololá	710	Panajachel	8	Panajachel	12	Diciembre	2023-12-28T00:00:00	2024-11-08T07:00:00	4	Temperatura máxima	13.9
80559	7	Sololá	710	Panajachel	8	Panajachel	12	Diciembre	2023-12-28T00:00:00	2024-11-08T07:00:00	3	Temperatura mínima	13.2
80560	7	Sololá	710	Panajachel	8	Panajachel	12	Diciembre	2023-12-28T00:00:00	2024-11-08T07:00:00	5	Humedad	70
80561	7	Sololá	710	Panajachel	8	Panajachel	12	Diciembre	2023-12-28T00:00:00	2024-11-08T07:00:00	6	Velocidad del viento	1.6
80562	7	Sololá	710	Panajachel	8	Panajachel	12	Diciembre	2023-12-28T00:00:00	2024-11-08T07:00:00	7	Dirección del viento	1.61
80563	7	Sololá	710	Panajachel	8	Panajachel	12	Diciembre	2023-12-28T00:00:00	2024-11-08T07:00:00	1	Precipitación	0
80564	7	Sololá	710	Panajachel	8	Panajachel	12	Diciembre	2023-12-28T00:00:00	2024-11-08T07:00:00	8	Radiación solar	6
80565	7	Sololá	710	Panajachel	8	Panajachel	12	Diciembre	2023-12-28T00:00:00	2024-11-08T08:00:00	2	Temperatura media	16.1
80566	7	Sololá	710	Panajachel	8	Panajachel	12	Diciembre	2023-12-28T00:00:00	2024-11-08T08:00:00	4	Temperatura máxima	16.1
80567	7	Sololá	710	Panajachel	8	Panajachel	12	Diciembre	2023-12-28T00:00:00	2024-11-08T08:00:00	3	Temperatura mínima	13.3
80568	7	Sololá	710	Panajachel	8	Panajachel	12	Diciembre	2023-12-28T00:00:00	2024-11-08T08:00:00	5	Humedad	64
80569	7	Sololá	710	Panajachel	8	Panajachel	12	Diciembre	2023-12-28T00:00:00	2024-11-08T08:00:00	6	Velocidad del viento	1.6
80570	7	Sololá	710	Panajachel	8	Panajachel	12	Diciembre	2023-12-28T00:00:00	2024-11-08T08:00:00	7	Dirección del viento	1.61
80571	7	Sololá	710	Panajachel	8	Panajachel	12	Diciembre	2023-12-28T00:00:00	2024-11-08T08:00:00	1	Precipitación	0
80572	7	Sololá	710	Panajachel	8	Panajachel	12	Diciembre	2023-12-28T00:00:00	2024-11-08T08:00:00	8	Radiación solar	142
80573	7	Sololá	710	Panajachel	8	Panajachel	12	Diciembre	2023-12-28T00:00:00	2024-11-08T09:00:00	2	Temperatura media	17.6
80574	7	Sololá	710	Panajachel	8	Panajachel	12	Diciembre	2023-12-28T00:00:00	2024-11-08T09:00:00	4	Temperatura máxima	18.1
80575	7	Sololá	710	Panajachel	8	Panajachel	12	Diciembre	2023-12-28T00:00:00	2024-11-08T09:00:00	3	Temperatura mínima	16.2
80576	7	Sololá	710	Panajachel	8	Panajachel	12	Diciembre	2023-12-28T00:00:00	2024-11-08T09:00:00	5	Humedad	75
80577	7	Sololá	710	Panajachel	8	Panajachel	12	Diciembre	2023-12-28T00:00:00	2024-11-08T09:00:00	6	Velocidad del viento	0
80578	7	Sololá	710	Panajachel	8	Panajachel	12	Diciembre	2023-12-28T00:00:00	2024-11-08T09:00:00	7	Dirección del viento	0
80579	7	Sololá	710	Panajachel	8	Panajachel	12	Diciembre	2023-12-28T00:00:00	2024-11-08T09:00:00	1	Precipitación	0
80580	7	Sololá	710	Panajachel	8	Panajachel	12	Diciembre	2023-12-28T00:00:00	2024-11-08T09:00:00	8	Radiación solar	369
80581	7	Sololá	710	Panajachel	8	Panajachel	12	Diciembre	2023-12-28T00:00:00	2024-11-08T10:00:00	2	Temperatura media	18.9
80582	7	Sololá	710	Panajachel	8	Panajachel	12	Diciembre	2023-12-28T00:00:00	2024-11-08T10:00:00	4	Temperatura máxima	19.2
80583	7	Sololá	710	Panajachel	8	Panajachel	12	Diciembre	2023-12-28T00:00:00	2024-11-08T10:00:00	3	Temperatura mínima	17.4
80584	7	Sololá	710	Panajachel	8	Panajachel	12	Diciembre	2023-12-28T00:00:00	2024-11-08T10:00:00	5	Humedad	71
80585	7	Sololá	710	Panajachel	8	Panajachel	12	Diciembre	2023-12-28T00:00:00	2024-11-08T10:00:00	6	Velocidad del viento	1.6
80586	7	Sololá	710	Panajachel	8	Panajachel	12	Diciembre	2023-12-28T00:00:00	2024-11-08T10:00:00	7	Dirección del viento	1.61
80587	7	Sololá	710	Panajachel	8	Panajachel	12	Diciembre	2023-12-28T00:00:00	2024-11-08T10:00:00	1	Precipitación	0
80588	7	Sololá	710	Panajachel	8	Panajachel	12	Diciembre	2023-12-28T00:00:00	2024-11-08T10:00:00	8	Radiación solar	547
80589	7	Sololá	710	Panajachel	8	Panajachel	12	Diciembre	2023-12-28T00:00:00	2024-11-08T11:00:00	2	Temperatura media	20.8
80590	7	Sololá	710	Panajachel	8	Panajachel	12	Diciembre	2023-12-28T00:00:00	2024-11-08T11:00:00	4	Temperatura máxima	20.8
80591	7	Sololá	710	Panajachel	8	Panajachel	12	Diciembre	2023-12-28T00:00:00	2024-11-08T11:00:00	3	Temperatura mínima	18.6
80592	7	Sololá	710	Panajachel	8	Panajachel	12	Diciembre	2023-12-28T00:00:00	2024-11-08T11:00:00	5	Humedad	69
80593	7	Sololá	710	Panajachel	8	Panajachel	12	Diciembre	2023-12-28T00:00:00	2024-11-08T11:00:00	6	Velocidad del viento	3.2
80594	7	Sololá	710	Panajachel	8	Panajachel	12	Diciembre	2023-12-28T00:00:00	2024-11-08T11:00:00	7	Dirección del viento	3.22
80595	7	Sololá	710	Panajachel	8	Panajachel	12	Diciembre	2023-12-28T00:00:00	2024-11-08T11:00:00	1	Precipitación	0
80596	7	Sololá	710	Panajachel	8	Panajachel	12	Diciembre	2023-12-28T00:00:00	2024-11-08T11:00:00	8	Radiación solar	684
80597	7	Sololá	710	Panajachel	8	Panajachel	12	Diciembre	2023-12-28T00:00:00	2024-11-08T12:00:00	2	Temperatura media	22.5
80598	7	Sololá	710	Panajachel	8	Panajachel	12	Diciembre	2023-12-28T00:00:00	2024-11-08T12:00:00	4	Temperatura máxima	22.5
80599	7	Sololá	710	Panajachel	8	Panajachel	12	Diciembre	2023-12-28T00:00:00	2024-11-08T12:00:00	3	Temperatura mínima	20.3
80600	7	Sololá	710	Panajachel	8	Panajachel	12	Diciembre	2023-12-28T00:00:00	2024-11-08T12:00:00	5	Humedad	58
80601	7	Sololá	710	Panajachel	8	Panajachel	12	Diciembre	2023-12-28T00:00:00	2024-11-08T12:00:00	6	Velocidad del viento	3.2
80602	7	Sololá	710	Panajachel	8	Panajachel	12	Diciembre	2023-12-28T00:00:00	2024-11-08T12:00:00	7	Dirección del viento	3.22
80603	7	Sololá	710	Panajachel	8	Panajachel	12	Diciembre	2023-12-28T00:00:00	2024-11-08T12:00:00	1	Precipitación	0
80604	7	Sololá	710	Panajachel	8	Panajachel	12	Diciembre	2023-12-28T00:00:00	2024-11-08T12:00:00	8	Radiación solar	754
80605	7	Sololá	710	Panajachel	8	Panajachel	12	Diciembre	2023-12-28T00:00:00	2024-11-08T13:00:00	2	Temperatura media	23.2
80606	7	Sololá	710	Panajachel	8	Panajachel	12	Diciembre	2023-12-28T00:00:00	2024-11-08T13:00:00	4	Temperatura máxima	23.3
80607	7	Sololá	710	Panajachel	8	Panajachel	12	Diciembre	2023-12-28T00:00:00	2024-11-08T13:00:00	3	Temperatura mínima	22.4
80608	7	Sololá	710	Panajachel	8	Panajachel	12	Diciembre	2023-12-28T00:00:00	2024-11-08T13:00:00	5	Humedad	68
80609	7	Sololá	710	Panajachel	8	Panajachel	12	Diciembre	2023-12-28T00:00:00	2024-11-08T13:00:00	6	Velocidad del viento	3.2
80610	7	Sololá	710	Panajachel	8	Panajachel	12	Diciembre	2023-12-28T00:00:00	2024-11-08T13:00:00	7	Dirección del viento	3.22
80611	7	Sololá	710	Panajachel	8	Panajachel	12	Diciembre	2023-12-28T00:00:00	2024-11-08T13:00:00	1	Precipitación	0
80612	7	Sololá	710	Panajachel	8	Panajachel	12	Diciembre	2023-12-28T00:00:00	2024-11-08T13:00:00	8	Radiación solar	754
80613	7	Sololá	710	Panajachel	8	Panajachel	12	Diciembre	2023-12-28T00:00:00	2024-11-08T14:00:00	2	Temperatura media	23.9
80614	7	Sololá	710	Panajachel	8	Panajachel	12	Diciembre	2023-12-28T00:00:00	2024-11-08T14:00:00	4	Temperatura máxima	23.9
80615	7	Sololá	710	Panajachel	8	Panajachel	12	Diciembre	2023-12-28T00:00:00	2024-11-08T14:00:00	3	Temperatura mínima	22.2
80616	7	Sololá	710	Panajachel	8	Panajachel	12	Diciembre	2023-12-28T00:00:00	2024-11-08T14:00:00	5	Humedad	66
80617	7	Sololá	710	Panajachel	8	Panajachel	12	Diciembre	2023-12-28T00:00:00	2024-11-08T14:00:00	6	Velocidad del viento	6.4
80618	7	Sololá	710	Panajachel	8	Panajachel	12	Diciembre	2023-12-28T00:00:00	2024-11-08T14:00:00	7	Dirección del viento	6.44
80619	7	Sololá	710	Panajachel	8	Panajachel	12	Diciembre	2023-12-28T00:00:00	2024-11-08T14:00:00	1	Precipitación	0
80620	7	Sololá	710	Panajachel	8	Panajachel	12	Diciembre	2023-12-28T00:00:00	2024-11-08T14:00:00	8	Radiación solar	679
80621	7	Sololá	710	Panajachel	8	Panajachel	12	Diciembre	2023-12-28T00:00:00	2024-11-08T15:00:00	2	Temperatura media	22.6
80622	7	Sololá	710	Panajachel	8	Panajachel	12	Diciembre	2023-12-28T00:00:00	2024-11-08T15:00:00	4	Temperatura máxima	24.1
80623	7	Sololá	710	Panajachel	8	Panajachel	12	Diciembre	2023-12-28T00:00:00	2024-11-08T15:00:00	3	Temperatura mínima	22.6
80624	7	Sololá	710	Panajachel	8	Panajachel	12	Diciembre	2023-12-28T00:00:00	2024-11-08T15:00:00	5	Humedad	75
80625	7	Sololá	710	Panajachel	8	Panajachel	12	Diciembre	2023-12-28T00:00:00	2024-11-08T15:00:00	6	Velocidad del viento	4.8
80626	7	Sololá	710	Panajachel	8	Panajachel	12	Diciembre	2023-12-28T00:00:00	2024-11-08T15:00:00	7	Dirección del viento	4.83
80627	7	Sololá	710	Panajachel	8	Panajachel	12	Diciembre	2023-12-28T00:00:00	2024-11-08T15:00:00	1	Precipitación	0
80628	7	Sololá	710	Panajachel	8	Panajachel	12	Diciembre	2023-12-28T00:00:00	2024-11-08T15:00:00	8	Radiación solar	561
80629	7	Sololá	710	Panajachel	8	Panajachel	12	Diciembre	2023-12-28T00:00:00	2024-11-08T16:00:00	2	Temperatura media	22.2
80630	7	Sololá	710	Panajachel	8	Panajachel	12	Diciembre	2023-12-28T00:00:00	2024-11-08T16:00:00	4	Temperatura máxima	22.7
80631	7	Sololá	710	Panajachel	8	Panajachel	12	Diciembre	2023-12-28T00:00:00	2024-11-08T16:00:00	3	Temperatura mínima	22.2
80632	7	Sololá	710	Panajachel	8	Panajachel	12	Diciembre	2023-12-28T00:00:00	2024-11-08T16:00:00	5	Humedad	74
80633	7	Sololá	710	Panajachel	8	Panajachel	12	Diciembre	2023-12-28T00:00:00	2024-11-08T16:00:00	6	Velocidad del viento	4.8
80634	7	Sololá	710	Panajachel	8	Panajachel	12	Diciembre	2023-12-28T00:00:00	2024-11-08T16:00:00	7	Dirección del viento	4.83
80635	7	Sololá	710	Panajachel	8	Panajachel	12	Diciembre	2023-12-28T00:00:00	2024-11-08T16:00:00	1	Precipitación	0
80636	7	Sololá	710	Panajachel	8	Panajachel	12	Diciembre	2023-12-28T00:00:00	2024-11-08T16:00:00	8	Radiación solar	409
80637	7	Sololá	710	Panajachel	8	Panajachel	12	Diciembre	2023-12-28T00:00:00	2024-11-08T17:00:00	2	Temperatura media	20.7
80638	7	Sololá	710	Panajachel	8	Panajachel	12	Diciembre	2023-12-28T00:00:00	2024-11-08T17:00:00	4	Temperatura máxima	22.6
80639	7	Sololá	710	Panajachel	8	Panajachel	12	Diciembre	2023-12-28T00:00:00	2024-11-08T17:00:00	3	Temperatura mínima	20.7
80640	7	Sololá	710	Panajachel	8	Panajachel	12	Diciembre	2023-12-28T00:00:00	2024-11-08T17:00:00	5	Humedad	79
80641	7	Sololá	710	Panajachel	8	Panajachel	12	Diciembre	2023-12-28T00:00:00	2024-11-08T17:00:00	6	Velocidad del viento	3.2
80642	7	Sololá	710	Panajachel	8	Panajachel	12	Diciembre	2023-12-28T00:00:00	2024-11-08T17:00:00	7	Dirección del viento	3.22
80643	7	Sololá	710	Panajachel	8	Panajachel	12	Diciembre	2023-12-28T00:00:00	2024-11-08T17:00:00	1	Precipitación	0
80644	7	Sololá	710	Panajachel	8	Panajachel	12	Diciembre	2023-12-28T00:00:00	2024-11-08T17:00:00	8	Radiación solar	134
80645	7	Sololá	710	Panajachel	8	Panajachel	12	Diciembre	2023-12-28T00:00:00	2024-11-08T18:00:00	2	Temperatura media	19.9
80646	7	Sololá	710	Panajachel	8	Panajachel	12	Diciembre	2023-12-28T00:00:00	2024-11-08T18:00:00	4	Temperatura máxima	20.7
80647	7	Sololá	710	Panajachel	8	Panajachel	12	Diciembre	2023-12-28T00:00:00	2024-11-08T18:00:00	3	Temperatura mínima	19.9
80648	7	Sololá	710	Panajachel	8	Panajachel	12	Diciembre	2023-12-28T00:00:00	2024-11-08T18:00:00	5	Humedad	82
80649	7	Sololá	710	Panajachel	8	Panajachel	12	Diciembre	2023-12-28T00:00:00	2024-11-08T18:00:00	6	Velocidad del viento	1.6
80650	7	Sololá	710	Panajachel	8	Panajachel	12	Diciembre	2023-12-28T00:00:00	2024-11-08T18:00:00	7	Dirección del viento	1.61
80651	7	Sololá	710	Panajachel	8	Panajachel	12	Diciembre	2023-12-28T00:00:00	2024-11-08T18:00:00	1	Precipitación	0
80652	7	Sololá	710	Panajachel	8	Panajachel	12	Diciembre	2023-12-28T00:00:00	2024-11-08T18:00:00	8	Radiación solar	12
80653	7	Sololá	710	Panajachel	8	Panajachel	12	Diciembre	2023-12-28T00:00:00	2024-11-08T19:00:00	2	Temperatura media	19.1
80654	7	Sololá	710	Panajachel	8	Panajachel	12	Diciembre	2023-12-28T00:00:00	2024-11-08T19:00:00	4	Temperatura máxima	19.9
80655	7	Sololá	710	Panajachel	8	Panajachel	12	Diciembre	2023-12-28T00:00:00	2024-11-08T19:00:00	3	Temperatura mínima	19.1
80656	7	Sololá	710	Panajachel	8	Panajachel	12	Diciembre	2023-12-28T00:00:00	2024-11-08T19:00:00	5	Humedad	84
80657	7	Sololá	710	Panajachel	8	Panajachel	12	Diciembre	2023-12-28T00:00:00	2024-11-08T19:00:00	6	Velocidad del viento	0
80658	7	Sololá	710	Panajachel	8	Panajachel	12	Diciembre	2023-12-28T00:00:00	2024-11-08T19:00:00	7	Dirección del viento	0
80659	7	Sololá	710	Panajachel	8	Panajachel	12	Diciembre	2023-12-28T00:00:00	2024-11-08T19:00:00	1	Precipitación	0
80660	7	Sololá	710	Panajachel	8	Panajachel	12	Diciembre	2023-12-28T00:00:00	2024-11-08T19:00:00	8	Radiación solar	0
80661	7	Sololá	710	Panajachel	8	Panajachel	12	Diciembre	2023-12-28T00:00:00	2024-11-08T20:00:00	2	Temperatura media	18.2
80662	7	Sololá	710	Panajachel	8	Panajachel	12	Diciembre	2023-12-28T00:00:00	2024-11-08T20:00:00	4	Temperatura máxima	19.1
80663	7	Sololá	710	Panajachel	8	Panajachel	12	Diciembre	2023-12-28T00:00:00	2024-11-08T20:00:00	3	Temperatura mínima	18.2
80664	7	Sololá	710	Panajachel	8	Panajachel	12	Diciembre	2023-12-28T00:00:00	2024-11-08T20:00:00	5	Humedad	86
80665	7	Sololá	710	Panajachel	8	Panajachel	12	Diciembre	2023-12-28T00:00:00	2024-11-08T20:00:00	6	Velocidad del viento	1.6
80666	7	Sololá	710	Panajachel	8	Panajachel	12	Diciembre	2023-12-28T00:00:00	2024-11-08T20:00:00	7	Dirección del viento	1.61
80667	7	Sololá	710	Panajachel	8	Panajachel	12	Diciembre	2023-12-28T00:00:00	2024-11-08T20:00:00	1	Precipitación	0
80668	7	Sololá	710	Panajachel	8	Panajachel	12	Diciembre	2023-12-28T00:00:00	2024-11-08T20:00:00	8	Radiación solar	0
80669	7	Sololá	710	Panajachel	8	Panajachel	12	Diciembre	2023-12-28T00:00:00	2024-11-08T21:00:00	2	Temperatura media	18.2
80670	7	Sololá	710	Panajachel	8	Panajachel	12	Diciembre	2023-12-28T00:00:00	2024-11-08T21:00:00	4	Temperatura máxima	18.3
80671	7	Sololá	710	Panajachel	8	Panajachel	12	Diciembre	2023-12-28T00:00:00	2024-11-08T21:00:00	3	Temperatura mínima	18
80672	7	Sololá	710	Panajachel	8	Panajachel	12	Diciembre	2023-12-28T00:00:00	2024-11-08T21:00:00	5	Humedad	80
80673	7	Sololá	710	Panajachel	8	Panajachel	12	Diciembre	2023-12-28T00:00:00	2024-11-08T21:00:00	6	Velocidad del viento	1.6
80674	7	Sololá	710	Panajachel	8	Panajachel	12	Diciembre	2023-12-28T00:00:00	2024-11-08T21:00:00	7	Dirección del viento	1.61
80675	7	Sololá	710	Panajachel	8	Panajachel	12	Diciembre	2023-12-28T00:00:00	2024-11-08T21:00:00	1	Precipitación	0
80676	7	Sololá	710	Panajachel	8	Panajachel	12	Diciembre	2023-12-28T00:00:00	2024-11-08T21:00:00	8	Radiación solar	0
80677	7	Sololá	710	Panajachel	8	Panajachel	12	Diciembre	2023-12-28T00:00:00	2024-11-08T22:00:00	2	Temperatura media	18.1
80678	7	Sololá	710	Panajachel	8	Panajachel	12	Diciembre	2023-12-28T00:00:00	2024-11-08T22:00:00	4	Temperatura máxima	18.2
80679	7	Sololá	710	Panajachel	8	Panajachel	12	Diciembre	2023-12-28T00:00:00	2024-11-08T22:00:00	3	Temperatura mínima	18
80680	7	Sololá	710	Panajachel	8	Panajachel	12	Diciembre	2023-12-28T00:00:00	2024-11-08T22:00:00	5	Humedad	80
80681	7	Sololá	710	Panajachel	8	Panajachel	12	Diciembre	2023-12-28T00:00:00	2024-11-08T22:00:00	6	Velocidad del viento	0
80682	7	Sololá	710	Panajachel	8	Panajachel	12	Diciembre	2023-12-28T00:00:00	2024-11-08T22:00:00	7	Dirección del viento	0
80683	7	Sololá	710	Panajachel	8	Panajachel	12	Diciembre	2023-12-28T00:00:00	2024-11-08T22:00:00	1	Precipitación	0
80684	7	Sololá	710	Panajachel	8	Panajachel	12	Diciembre	2023-12-28T00:00:00	2024-11-08T22:00:00	8	Radiación solar	0
80685	7	Sololá	710	Panajachel	8	Panajachel	12	Diciembre	2023-12-28T00:00:00	2024-11-08T23:00:00	2	Temperatura media	17.6
80686	7	Sololá	710	Panajachel	8	Panajachel	12	Diciembre	2023-12-28T00:00:00	2024-11-08T23:00:00	4	Temperatura máxima	18.1
80687	7	Sololá	710	Panajachel	8	Panajachel	12	Diciembre	2023-12-28T00:00:00	2024-11-08T23:00:00	3	Temperatura mínima	17.6
80688	7	Sololá	710	Panajachel	8	Panajachel	12	Diciembre	2023-12-28T00:00:00	2024-11-08T23:00:00	5	Humedad	81
80689	7	Sololá	710	Panajachel	8	Panajachel	12	Diciembre	2023-12-28T00:00:00	2024-11-08T23:00:00	6	Velocidad del viento	1.6
80690	7	Sololá	710	Panajachel	8	Panajachel	12	Diciembre	2023-12-28T00:00:00	2024-11-08T23:00:00	7	Dirección del viento	1.61
80691	7	Sololá	710	Panajachel	8	Panajachel	12	Diciembre	2023-12-28T00:00:00	2024-11-08T23:00:00	1	Precipitación	0
80692	7	Sololá	710	Panajachel	8	Panajachel	12	Diciembre	2023-12-28T00:00:00	2024-11-08T23:00:00	8	Radiación solar	0
80693	7	Sololá	710	Panajachel	8	Panajachel	12	Diciembre	2023-12-29T00:00:00	2024-11-08T00:00:00	2	Temperatura media	17.3
80694	7	Sololá	710	Panajachel	8	Panajachel	12	Diciembre	2023-12-29T00:00:00	2024-11-08T00:00:00	4	Temperatura máxima	17.7
80695	7	Sololá	710	Panajachel	8	Panajachel	12	Diciembre	2023-12-29T00:00:00	2024-11-08T00:00:00	3	Temperatura mínima	17.3
80696	7	Sololá	710	Panajachel	8	Panajachel	12	Diciembre	2023-12-29T00:00:00	2024-11-08T00:00:00	5	Humedad	81
80697	7	Sololá	710	Panajachel	8	Panajachel	12	Diciembre	2023-12-29T00:00:00	2024-11-08T00:00:00	6	Velocidad del viento	1.6
80698	7	Sololá	710	Panajachel	8	Panajachel	12	Diciembre	2023-12-29T00:00:00	2024-11-08T00:00:00	7	Dirección del viento	1.61
80699	7	Sololá	710	Panajachel	8	Panajachel	12	Diciembre	2023-12-29T00:00:00	2024-11-08T00:00:00	1	Precipitación	0
80700	7	Sololá	710	Panajachel	8	Panajachel	12	Diciembre	2023-12-29T00:00:00	2024-11-08T00:00:00	8	Radiación solar	0
80701	7	Sololá	710	Panajachel	8	Panajachel	12	Diciembre	2023-12-29T00:00:00	2024-11-08T01:00:00	2	Temperatura media	16.9
80702	7	Sololá	710	Panajachel	8	Panajachel	12	Diciembre	2023-12-29T00:00:00	2024-11-08T01:00:00	4	Temperatura máxima	17.4
80703	7	Sololá	710	Panajachel	8	Panajachel	12	Diciembre	2023-12-29T00:00:00	2024-11-08T01:00:00	3	Temperatura mínima	16.9
80704	7	Sololá	710	Panajachel	8	Panajachel	12	Diciembre	2023-12-29T00:00:00	2024-11-08T01:00:00	5	Humedad	81
80705	7	Sololá	710	Panajachel	8	Panajachel	12	Diciembre	2023-12-29T00:00:00	2024-11-08T01:00:00	6	Velocidad del viento	1.6
80706	7	Sololá	710	Panajachel	8	Panajachel	12	Diciembre	2023-12-29T00:00:00	2024-11-08T01:00:00	7	Dirección del viento	1.61
80707	7	Sololá	710	Panajachel	8	Panajachel	12	Diciembre	2023-12-29T00:00:00	2024-11-08T01:00:00	1	Precipitación	0
80708	7	Sololá	710	Panajachel	8	Panajachel	12	Diciembre	2023-12-29T00:00:00	2024-11-08T01:00:00	8	Radiación solar	0
80709	7	Sololá	710	Panajachel	8	Panajachel	12	Diciembre	2023-12-29T00:00:00	2024-11-08T02:00:00	2	Temperatura media	16.3
80710	7	Sololá	710	Panajachel	8	Panajachel	12	Diciembre	2023-12-29T00:00:00	2024-11-08T02:00:00	4	Temperatura máxima	17
80711	7	Sololá	710	Panajachel	8	Panajachel	12	Diciembre	2023-12-29T00:00:00	2024-11-08T02:00:00	3	Temperatura mínima	16.3
80712	7	Sololá	710	Panajachel	8	Panajachel	12	Diciembre	2023-12-29T00:00:00	2024-11-08T02:00:00	5	Humedad	83
80713	7	Sololá	710	Panajachel	8	Panajachel	12	Diciembre	2023-12-29T00:00:00	2024-11-08T02:00:00	6	Velocidad del viento	3.2
80714	7	Sololá	710	Panajachel	8	Panajachel	12	Diciembre	2023-12-29T00:00:00	2024-11-08T02:00:00	7	Dirección del viento	3.22
80715	7	Sololá	710	Panajachel	8	Panajachel	12	Diciembre	2023-12-29T00:00:00	2024-11-08T02:00:00	1	Precipitación	0
80716	7	Sololá	710	Panajachel	8	Panajachel	12	Diciembre	2023-12-29T00:00:00	2024-11-08T02:00:00	8	Radiación solar	0
80717	7	Sololá	710	Panajachel	8	Panajachel	12	Diciembre	2023-12-29T00:00:00	2024-11-08T03:00:00	2	Temperatura media	16.6
80718	7	Sololá	710	Panajachel	8	Panajachel	12	Diciembre	2023-12-29T00:00:00	2024-11-08T03:00:00	4	Temperatura máxima	16.7
80719	7	Sololá	710	Panajachel	8	Panajachel	12	Diciembre	2023-12-29T00:00:00	2024-11-08T03:00:00	3	Temperatura mínima	16.3
80720	7	Sololá	710	Panajachel	8	Panajachel	12	Diciembre	2023-12-29T00:00:00	2024-11-08T03:00:00	5	Humedad	82
80721	7	Sololá	710	Panajachel	8	Panajachel	12	Diciembre	2023-12-29T00:00:00	2024-11-08T03:00:00	6	Velocidad del viento	1.6
80722	7	Sololá	710	Panajachel	8	Panajachel	12	Diciembre	2023-12-29T00:00:00	2024-11-08T03:00:00	7	Dirección del viento	1.61
80723	7	Sololá	710	Panajachel	8	Panajachel	12	Diciembre	2023-12-29T00:00:00	2024-11-08T03:00:00	1	Precipitación	0
80724	7	Sololá	710	Panajachel	8	Panajachel	12	Diciembre	2023-12-29T00:00:00	2024-11-08T03:00:00	8	Radiación solar	0
80725	7	Sololá	710	Panajachel	8	Panajachel	12	Diciembre	2023-12-29T00:00:00	2024-11-08T04:00:00	2	Temperatura media	16.6
80726	7	Sololá	710	Panajachel	8	Panajachel	12	Diciembre	2023-12-29T00:00:00	2024-11-08T04:00:00	4	Temperatura máxima	16.8
80727	7	Sololá	710	Panajachel	8	Panajachel	12	Diciembre	2023-12-29T00:00:00	2024-11-08T04:00:00	3	Temperatura mínima	16.6
80728	7	Sololá	710	Panajachel	8	Panajachel	12	Diciembre	2023-12-29T00:00:00	2024-11-08T04:00:00	5	Humedad	82
80729	7	Sololá	710	Panajachel	8	Panajachel	12	Diciembre	2023-12-29T00:00:00	2024-11-08T04:00:00	6	Velocidad del viento	1.6
80730	7	Sololá	710	Panajachel	8	Panajachel	12	Diciembre	2023-12-29T00:00:00	2024-11-08T04:00:00	7	Dirección del viento	1.61
80731	7	Sololá	710	Panajachel	8	Panajachel	12	Diciembre	2023-12-29T00:00:00	2024-11-08T04:00:00	1	Precipitación	0
80732	7	Sololá	710	Panajachel	8	Panajachel	12	Diciembre	2023-12-29T00:00:00	2024-11-08T04:00:00	8	Radiación solar	0
80733	7	Sololá	710	Panajachel	8	Panajachel	12	Diciembre	2023-12-29T00:00:00	2024-11-08T05:00:00	2	Temperatura media	16.2
80734	7	Sololá	710	Panajachel	8	Panajachel	12	Diciembre	2023-12-29T00:00:00	2024-11-08T05:00:00	4	Temperatura máxima	16.6
80735	7	Sololá	710	Panajachel	8	Panajachel	12	Diciembre	2023-12-29T00:00:00	2024-11-08T05:00:00	3	Temperatura mínima	16.1
80736	7	Sololá	710	Panajachel	8	Panajachel	12	Diciembre	2023-12-29T00:00:00	2024-11-08T05:00:00	5	Humedad	84
80737	7	Sololá	710	Panajachel	8	Panajachel	12	Diciembre	2023-12-29T00:00:00	2024-11-08T05:00:00	6	Velocidad del viento	0
80738	7	Sololá	710	Panajachel	8	Panajachel	12	Diciembre	2023-12-29T00:00:00	2024-11-08T05:00:00	7	Dirección del viento	0
80739	7	Sololá	710	Panajachel	8	Panajachel	12	Diciembre	2023-12-29T00:00:00	2024-11-08T05:00:00	1	Precipitación	0
80740	7	Sololá	710	Panajachel	8	Panajachel	12	Diciembre	2023-12-29T00:00:00	2024-11-08T05:00:00	8	Radiación solar	0
80741	7	Sololá	710	Panajachel	8	Panajachel	12	Diciembre	2023-12-29T00:00:00	2024-11-08T06:00:00	2	Temperatura media	16.4
80742	7	Sololá	710	Panajachel	8	Panajachel	12	Diciembre	2023-12-29T00:00:00	2024-11-08T06:00:00	4	Temperatura máxima	16.4
80743	7	Sololá	710	Panajachel	8	Panajachel	12	Diciembre	2023-12-29T00:00:00	2024-11-08T06:00:00	3	Temperatura mínima	16.1
80744	7	Sololá	710	Panajachel	8	Panajachel	12	Diciembre	2023-12-29T00:00:00	2024-11-08T06:00:00	5	Humedad	82
80745	7	Sololá	710	Panajachel	8	Panajachel	12	Diciembre	2023-12-29T00:00:00	2024-11-08T06:00:00	6	Velocidad del viento	0
80746	7	Sololá	710	Panajachel	8	Panajachel	12	Diciembre	2023-12-29T00:00:00	2024-11-08T06:00:00	7	Dirección del viento	0
80747	7	Sololá	710	Panajachel	8	Panajachel	12	Diciembre	2023-12-29T00:00:00	2024-11-08T06:00:00	1	Precipitación	0
80748	7	Sololá	710	Panajachel	8	Panajachel	12	Diciembre	2023-12-29T00:00:00	2024-11-08T06:00:00	8	Radiación solar	0
80749	7	Sololá	710	Panajachel	8	Panajachel	12	Diciembre	2023-12-29T00:00:00	2024-11-08T07:00:00	2	Temperatura media	15.9
80750	7	Sololá	710	Panajachel	8	Panajachel	12	Diciembre	2023-12-29T00:00:00	2024-11-08T07:00:00	4	Temperatura máxima	16.4
80751	7	Sololá	710	Panajachel	8	Panajachel	12	Diciembre	2023-12-29T00:00:00	2024-11-08T07:00:00	3	Temperatura mínima	15.7
80752	7	Sololá	710	Panajachel	8	Panajachel	12	Diciembre	2023-12-29T00:00:00	2024-11-08T07:00:00	5	Humedad	84
80753	7	Sololá	710	Panajachel	8	Panajachel	12	Diciembre	2023-12-29T00:00:00	2024-11-08T07:00:00	6	Velocidad del viento	0
80754	7	Sololá	710	Panajachel	8	Panajachel	12	Diciembre	2023-12-29T00:00:00	2024-11-08T07:00:00	7	Dirección del viento	0
80755	7	Sololá	710	Panajachel	8	Panajachel	12	Diciembre	2023-12-29T00:00:00	2024-11-08T07:00:00	1	Precipitación	0
80756	7	Sololá	710	Panajachel	8	Panajachel	12	Diciembre	2023-12-29T00:00:00	2024-11-08T07:00:00	8	Radiación solar	5
80757	7	Sololá	710	Panajachel	8	Panajachel	12	Diciembre	2023-12-29T00:00:00	2024-11-08T08:00:00	2	Temperatura media	16.9
80758	7	Sololá	710	Panajachel	8	Panajachel	12	Diciembre	2023-12-29T00:00:00	2024-11-08T08:00:00	4	Temperatura máxima	16.9
80759	7	Sololá	710	Panajachel	8	Panajachel	12	Diciembre	2023-12-29T00:00:00	2024-11-08T08:00:00	3	Temperatura mínima	15.9
80760	7	Sololá	710	Panajachel	8	Panajachel	12	Diciembre	2023-12-29T00:00:00	2024-11-08T08:00:00	5	Humedad	81
80761	7	Sololá	710	Panajachel	8	Panajachel	12	Diciembre	2023-12-29T00:00:00	2024-11-08T08:00:00	6	Velocidad del viento	0
80762	7	Sololá	710	Panajachel	8	Panajachel	12	Diciembre	2023-12-29T00:00:00	2024-11-08T08:00:00	7	Dirección del viento	0
80763	7	Sololá	710	Panajachel	8	Panajachel	12	Diciembre	2023-12-29T00:00:00	2024-11-08T08:00:00	1	Precipitación	0
80764	7	Sololá	710	Panajachel	8	Panajachel	12	Diciembre	2023-12-29T00:00:00	2024-11-08T08:00:00	8	Radiación solar	59
80765	7	Sololá	710	Panajachel	8	Panajachel	12	Diciembre	2023-12-29T00:00:00	2024-11-08T09:00:00	2	Temperatura media	19.5
80766	7	Sololá	710	Panajachel	8	Panajachel	12	Diciembre	2023-12-29T00:00:00	2024-11-08T09:00:00	4	Temperatura máxima	19.5
80767	7	Sololá	710	Panajachel	8	Panajachel	12	Diciembre	2023-12-29T00:00:00	2024-11-08T09:00:00	3	Temperatura mínima	16.9
80768	7	Sololá	710	Panajachel	8	Panajachel	12	Diciembre	2023-12-29T00:00:00	2024-11-08T09:00:00	5	Humedad	77
80769	7	Sololá	710	Panajachel	8	Panajachel	12	Diciembre	2023-12-29T00:00:00	2024-11-08T09:00:00	6	Velocidad del viento	0
80770	7	Sololá	710	Panajachel	8	Panajachel	12	Diciembre	2023-12-29T00:00:00	2024-11-08T09:00:00	7	Dirección del viento	0
80771	7	Sololá	710	Panajachel	8	Panajachel	12	Diciembre	2023-12-29T00:00:00	2024-11-08T09:00:00	1	Precipitación	0
80772	7	Sololá	710	Panajachel	8	Panajachel	12	Diciembre	2023-12-29T00:00:00	2024-11-08T09:00:00	8	Radiación solar	213
80773	7	Sololá	710	Panajachel	8	Panajachel	12	Diciembre	2023-12-29T00:00:00	2024-11-08T10:00:00	2	Temperatura media	19.3
80774	7	Sololá	710	Panajachel	8	Panajachel	12	Diciembre	2023-12-29T00:00:00	2024-11-08T10:00:00	4	Temperatura máxima	19.8
80775	7	Sololá	710	Panajachel	8	Panajachel	12	Diciembre	2023-12-29T00:00:00	2024-11-08T10:00:00	3	Temperatura mínima	19.3
80776	7	Sololá	710	Panajachel	8	Panajachel	12	Diciembre	2023-12-29T00:00:00	2024-11-08T10:00:00	5	Humedad	82
80777	7	Sololá	710	Panajachel	8	Panajachel	12	Diciembre	2023-12-29T00:00:00	2024-11-08T10:00:00	6	Velocidad del viento	3.2
80778	7	Sololá	710	Panajachel	8	Panajachel	12	Diciembre	2023-12-29T00:00:00	2024-11-08T10:00:00	7	Dirección del viento	3.22
80779	7	Sololá	710	Panajachel	8	Panajachel	12	Diciembre	2023-12-29T00:00:00	2024-11-08T10:00:00	1	Precipitación	0
80780	7	Sololá	710	Panajachel	8	Panajachel	12	Diciembre	2023-12-29T00:00:00	2024-11-08T10:00:00	8	Radiación solar	370
80781	7	Sololá	710	Panajachel	8	Panajachel	12	Diciembre	2023-12-29T00:00:00	2024-11-08T11:00:00	2	Temperatura media	21.4
80782	7	Sololá	710	Panajachel	8	Panajachel	12	Diciembre	2023-12-29T00:00:00	2024-11-08T11:00:00	4	Temperatura máxima	21.4
80783	7	Sololá	710	Panajachel	8	Panajachel	12	Diciembre	2023-12-29T00:00:00	2024-11-08T11:00:00	3	Temperatura mínima	19.3
80784	7	Sololá	710	Panajachel	8	Panajachel	12	Diciembre	2023-12-29T00:00:00	2024-11-08T11:00:00	5	Humedad	74
80785	7	Sololá	710	Panajachel	8	Panajachel	12	Diciembre	2023-12-29T00:00:00	2024-11-08T11:00:00	6	Velocidad del viento	3.2
80786	7	Sololá	710	Panajachel	8	Panajachel	12	Diciembre	2023-12-29T00:00:00	2024-11-08T11:00:00	7	Dirección del viento	3.22
80787	7	Sololá	710	Panajachel	8	Panajachel	12	Diciembre	2023-12-29T00:00:00	2024-11-08T11:00:00	1	Precipitación	0
80788	7	Sololá	710	Panajachel	8	Panajachel	12	Diciembre	2023-12-29T00:00:00	2024-11-08T11:00:00	8	Radiación solar	582
80789	7	Sololá	710	Panajachel	8	Panajachel	12	Diciembre	2023-12-29T00:00:00	2024-11-08T12:00:00	2	Temperatura media	22.1
80790	7	Sololá	710	Panajachel	8	Panajachel	12	Diciembre	2023-12-29T00:00:00	2024-11-08T12:00:00	4	Temperatura máxima	22.3
80791	7	Sololá	710	Panajachel	8	Panajachel	12	Diciembre	2023-12-29T00:00:00	2024-11-08T12:00:00	3	Temperatura mínima	20.8
80792	7	Sololá	710	Panajachel	8	Panajachel	12	Diciembre	2023-12-29T00:00:00	2024-11-08T12:00:00	5	Humedad	75
80793	7	Sololá	710	Panajachel	8	Panajachel	12	Diciembre	2023-12-29T00:00:00	2024-11-08T12:00:00	6	Velocidad del viento	1.6
80794	7	Sololá	710	Panajachel	8	Panajachel	12	Diciembre	2023-12-29T00:00:00	2024-11-08T12:00:00	7	Dirección del viento	1.61
80795	7	Sololá	710	Panajachel	8	Panajachel	12	Diciembre	2023-12-29T00:00:00	2024-11-08T12:00:00	1	Precipitación	0
80796	7	Sololá	710	Panajachel	8	Panajachel	12	Diciembre	2023-12-29T00:00:00	2024-11-08T12:00:00	8	Radiación solar	575
80797	7	Sololá	710	Panajachel	8	Panajachel	12	Diciembre	2023-12-29T00:00:00	2024-11-08T13:00:00	2	Temperatura media	21.5
80798	7	Sololá	710	Panajachel	8	Panajachel	12	Diciembre	2023-12-29T00:00:00	2024-11-08T13:00:00	4	Temperatura máxima	22.6
80799	7	Sololá	710	Panajachel	8	Panajachel	12	Diciembre	2023-12-29T00:00:00	2024-11-08T13:00:00	3	Temperatura mínima	21.4
80800	7	Sololá	710	Panajachel	8	Panajachel	12	Diciembre	2023-12-29T00:00:00	2024-11-08T13:00:00	5	Humedad	77
80801	7	Sololá	710	Panajachel	8	Panajachel	12	Diciembre	2023-12-29T00:00:00	2024-11-08T13:00:00	6	Velocidad del viento	3.2
80802	7	Sololá	710	Panajachel	8	Panajachel	12	Diciembre	2023-12-29T00:00:00	2024-11-08T13:00:00	7	Dirección del viento	3.22
80803	7	Sololá	710	Panajachel	8	Panajachel	12	Diciembre	2023-12-29T00:00:00	2024-11-08T13:00:00	1	Precipitación	0
80804	7	Sololá	710	Panajachel	8	Panajachel	12	Diciembre	2023-12-29T00:00:00	2024-11-08T13:00:00	8	Radiación solar	651
80805	7	Sololá	710	Panajachel	8	Panajachel	12	Diciembre	2023-12-29T00:00:00	2024-11-08T14:00:00	2	Temperatura media	22.4
80806	7	Sololá	710	Panajachel	8	Panajachel	12	Diciembre	2023-12-29T00:00:00	2024-11-08T14:00:00	4	Temperatura máxima	22.4
80807	7	Sololá	710	Panajachel	8	Panajachel	12	Diciembre	2023-12-29T00:00:00	2024-11-08T14:00:00	3	Temperatura mínima	21.4
80808	7	Sololá	710	Panajachel	8	Panajachel	12	Diciembre	2023-12-29T00:00:00	2024-11-08T14:00:00	5	Humedad	74
80809	7	Sololá	710	Panajachel	8	Panajachel	12	Diciembre	2023-12-29T00:00:00	2024-11-08T14:00:00	6	Velocidad del viento	3.2
80810	7	Sololá	710	Panajachel	8	Panajachel	12	Diciembre	2023-12-29T00:00:00	2024-11-08T14:00:00	7	Dirección del viento	3.22
80811	7	Sololá	710	Panajachel	8	Panajachel	12	Diciembre	2023-12-29T00:00:00	2024-11-08T14:00:00	1	Precipitación	0
80812	7	Sololá	710	Panajachel	8	Panajachel	12	Diciembre	2023-12-29T00:00:00	2024-11-08T14:00:00	8	Radiación solar	500
80813	7	Sololá	710	Panajachel	8	Panajachel	12	Diciembre	2023-12-29T00:00:00	2024-11-08T15:00:00	2	Temperatura media	22.3
80814	7	Sololá	710	Panajachel	8	Panajachel	12	Diciembre	2023-12-29T00:00:00	2024-11-08T15:00:00	4	Temperatura máxima	22.6
80815	7	Sololá	710	Panajachel	8	Panajachel	12	Diciembre	2023-12-29T00:00:00	2024-11-08T15:00:00	3	Temperatura mínima	22.2
80816	7	Sololá	710	Panajachel	8	Panajachel	12	Diciembre	2023-12-29T00:00:00	2024-11-08T15:00:00	5	Humedad	73
80817	7	Sololá	710	Panajachel	8	Panajachel	12	Diciembre	2023-12-29T00:00:00	2024-11-08T15:00:00	6	Velocidad del viento	4.8
80818	7	Sololá	710	Panajachel	8	Panajachel	12	Diciembre	2023-12-29T00:00:00	2024-11-08T15:00:00	7	Dirección del viento	4.83
80819	7	Sololá	710	Panajachel	8	Panajachel	12	Diciembre	2023-12-29T00:00:00	2024-11-08T15:00:00	1	Precipitación	0
80820	7	Sololá	710	Panajachel	8	Panajachel	12	Diciembre	2023-12-29T00:00:00	2024-11-08T15:00:00	8	Radiación solar	525
80821	7	Sololá	710	Panajachel	8	Panajachel	12	Diciembre	2023-12-29T00:00:00	2024-11-08T16:00:00	2	Temperatura media	22.6
80822	7	Sololá	710	Panajachel	8	Panajachel	12	Diciembre	2023-12-29T00:00:00	2024-11-08T16:00:00	4	Temperatura máxima	22.6
80823	7	Sololá	710	Panajachel	8	Panajachel	12	Diciembre	2023-12-29T00:00:00	2024-11-08T16:00:00	3	Temperatura mínima	21.8
80824	7	Sololá	710	Panajachel	8	Panajachel	12	Diciembre	2023-12-29T00:00:00	2024-11-08T16:00:00	5	Humedad	74
80825	7	Sololá	710	Panajachel	8	Panajachel	12	Diciembre	2023-12-29T00:00:00	2024-11-08T16:00:00	6	Velocidad del viento	3.2
80826	7	Sololá	710	Panajachel	8	Panajachel	12	Diciembre	2023-12-29T00:00:00	2024-11-08T16:00:00	7	Dirección del viento	3.22
80827	7	Sololá	710	Panajachel	8	Panajachel	12	Diciembre	2023-12-29T00:00:00	2024-11-08T16:00:00	1	Precipitación	0
80828	7	Sololá	710	Panajachel	8	Panajachel	12	Diciembre	2023-12-29T00:00:00	2024-11-08T16:00:00	8	Radiación solar	361
80829	7	Sololá	710	Panajachel	8	Panajachel	12	Diciembre	2023-12-29T00:00:00	2024-11-08T17:00:00	2	Temperatura media	21.9
80830	7	Sololá	710	Panajachel	8	Panajachel	12	Diciembre	2023-12-29T00:00:00	2024-11-08T17:00:00	4	Temperatura máxima	22.6
80831	7	Sololá	710	Panajachel	8	Panajachel	12	Diciembre	2023-12-29T00:00:00	2024-11-08T17:00:00	3	Temperatura mínima	21.9
80832	7	Sololá	710	Panajachel	8	Panajachel	12	Diciembre	2023-12-29T00:00:00	2024-11-08T17:00:00	5	Humedad	74
80833	7	Sololá	710	Panajachel	8	Panajachel	12	Diciembre	2023-12-29T00:00:00	2024-11-08T17:00:00	6	Velocidad del viento	3.2
80834	7	Sololá	710	Panajachel	8	Panajachel	12	Diciembre	2023-12-29T00:00:00	2024-11-08T17:00:00	7	Dirección del viento	3.22
80835	7	Sololá	710	Panajachel	8	Panajachel	12	Diciembre	2023-12-29T00:00:00	2024-11-08T17:00:00	1	Precipitación	0
80836	7	Sololá	710	Panajachel	8	Panajachel	12	Diciembre	2023-12-29T00:00:00	2024-11-08T17:00:00	8	Radiación solar	210
80837	7	Sololá	710	Panajachel	8	Panajachel	12	Diciembre	2023-12-29T00:00:00	2024-11-08T18:00:00	2	Temperatura media	20.3
80838	7	Sololá	710	Panajachel	8	Panajachel	12	Diciembre	2023-12-29T00:00:00	2024-11-08T18:00:00	4	Temperatura máxima	22
80839	7	Sololá	710	Panajachel	8	Panajachel	12	Diciembre	2023-12-29T00:00:00	2024-11-08T18:00:00	3	Temperatura mínima	20.3
80840	7	Sololá	710	Panajachel	8	Panajachel	12	Diciembre	2023-12-29T00:00:00	2024-11-08T18:00:00	5	Humedad	81
80841	7	Sololá	710	Panajachel	8	Panajachel	12	Diciembre	2023-12-29T00:00:00	2024-11-08T18:00:00	6	Velocidad del viento	1.6
80842	7	Sololá	710	Panajachel	8	Panajachel	12	Diciembre	2023-12-29T00:00:00	2024-11-08T18:00:00	7	Dirección del viento	1.61
80843	7	Sololá	710	Panajachel	8	Panajachel	12	Diciembre	2023-12-29T00:00:00	2024-11-08T18:00:00	1	Precipitación	0
80844	7	Sololá	710	Panajachel	8	Panajachel	12	Diciembre	2023-12-29T00:00:00	2024-11-08T18:00:00	8	Radiación solar	32
80845	7	Sololá	710	Panajachel	8	Panajachel	12	Diciembre	2023-12-29T00:00:00	2024-11-08T19:00:00	2	Temperatura media	18.8
80846	7	Sololá	710	Panajachel	8	Panajachel	12	Diciembre	2023-12-29T00:00:00	2024-11-08T19:00:00	4	Temperatura máxima	20.3
80847	7	Sololá	710	Panajachel	8	Panajachel	12	Diciembre	2023-12-29T00:00:00	2024-11-08T19:00:00	3	Temperatura mínima	18.8
80848	7	Sololá	710	Panajachel	8	Panajachel	12	Diciembre	2023-12-29T00:00:00	2024-11-08T19:00:00	5	Humedad	83
80849	7	Sololá	710	Panajachel	8	Panajachel	12	Diciembre	2023-12-29T00:00:00	2024-11-08T19:00:00	6	Velocidad del viento	0
80850	7	Sololá	710	Panajachel	8	Panajachel	12	Diciembre	2023-12-29T00:00:00	2024-11-08T19:00:00	7	Dirección del viento	0
80851	7	Sololá	710	Panajachel	8	Panajachel	12	Diciembre	2023-12-29T00:00:00	2024-11-08T19:00:00	1	Precipitación	0
80852	7	Sololá	710	Panajachel	8	Panajachel	12	Diciembre	2023-12-29T00:00:00	2024-11-08T19:00:00	8	Radiación solar	0
80853	7	Sololá	710	Panajachel	8	Panajachel	12	Diciembre	2023-12-29T00:00:00	2024-11-08T20:00:00	2	Temperatura media	17.7
80854	7	Sololá	710	Panajachel	8	Panajachel	12	Diciembre	2023-12-29T00:00:00	2024-11-08T20:00:00	4	Temperatura máxima	18.8
80855	7	Sololá	710	Panajachel	8	Panajachel	12	Diciembre	2023-12-29T00:00:00	2024-11-08T20:00:00	3	Temperatura mínima	17.7
80856	7	Sololá	710	Panajachel	8	Panajachel	12	Diciembre	2023-12-29T00:00:00	2024-11-08T20:00:00	5	Humedad	82
80857	7	Sololá	710	Panajachel	8	Panajachel	12	Diciembre	2023-12-29T00:00:00	2024-11-08T20:00:00	6	Velocidad del viento	1.6
80858	7	Sololá	710	Panajachel	8	Panajachel	12	Diciembre	2023-12-29T00:00:00	2024-11-08T20:00:00	7	Dirección del viento	1.61
80859	7	Sololá	710	Panajachel	8	Panajachel	12	Diciembre	2023-12-29T00:00:00	2024-11-08T20:00:00	1	Precipitación	0
80860	7	Sololá	710	Panajachel	8	Panajachel	12	Diciembre	2023-12-29T00:00:00	2024-11-08T20:00:00	8	Radiación solar	0
80861	7	Sololá	710	Panajachel	8	Panajachel	12	Diciembre	2023-12-29T00:00:00	2024-11-08T21:00:00	2	Temperatura media	17
80862	7	Sololá	710	Panajachel	8	Panajachel	12	Diciembre	2023-12-29T00:00:00	2024-11-08T21:00:00	4	Temperatura máxima	17.7
80863	7	Sololá	710	Panajachel	8	Panajachel	12	Diciembre	2023-12-29T00:00:00	2024-11-08T21:00:00	3	Temperatura mínima	17
80864	7	Sololá	710	Panajachel	8	Panajachel	12	Diciembre	2023-12-29T00:00:00	2024-11-08T21:00:00	5	Humedad	82
80865	7	Sololá	710	Panajachel	8	Panajachel	12	Diciembre	2023-12-29T00:00:00	2024-11-08T21:00:00	6	Velocidad del viento	1.6
80866	7	Sololá	710	Panajachel	8	Panajachel	12	Diciembre	2023-12-29T00:00:00	2024-11-08T21:00:00	7	Dirección del viento	1.61
80867	7	Sololá	710	Panajachel	8	Panajachel	12	Diciembre	2023-12-29T00:00:00	2024-11-08T21:00:00	1	Precipitación	0
80868	7	Sololá	710	Panajachel	8	Panajachel	12	Diciembre	2023-12-29T00:00:00	2024-11-08T21:00:00	8	Radiación solar	0
80869	7	Sololá	710	Panajachel	8	Panajachel	12	Diciembre	2023-12-29T00:00:00	2024-11-08T22:00:00	2	Temperatura media	16.5
80870	7	Sololá	710	Panajachel	8	Panajachel	12	Diciembre	2023-12-29T00:00:00	2024-11-08T22:00:00	4	Temperatura máxima	17.1
80871	7	Sololá	710	Panajachel	8	Panajachel	12	Diciembre	2023-12-29T00:00:00	2024-11-08T22:00:00	3	Temperatura mínima	16.5
80872	7	Sololá	710	Panajachel	8	Panajachel	12	Diciembre	2023-12-29T00:00:00	2024-11-08T22:00:00	5	Humedad	83
80873	7	Sololá	710	Panajachel	8	Panajachel	12	Diciembre	2023-12-29T00:00:00	2024-11-08T22:00:00	6	Velocidad del viento	1.6
80874	7	Sololá	710	Panajachel	8	Panajachel	12	Diciembre	2023-12-29T00:00:00	2024-11-08T22:00:00	7	Dirección del viento	1.61
80875	7	Sololá	710	Panajachel	8	Panajachel	12	Diciembre	2023-12-29T00:00:00	2024-11-08T22:00:00	1	Precipitación	0
80876	7	Sololá	710	Panajachel	8	Panajachel	12	Diciembre	2023-12-29T00:00:00	2024-11-08T22:00:00	8	Radiación solar	0
80877	7	Sololá	710	Panajachel	8	Panajachel	12	Diciembre	2023-12-29T00:00:00	2024-11-08T23:00:00	2	Temperatura media	16.1
80878	7	Sololá	710	Panajachel	8	Panajachel	12	Diciembre	2023-12-29T00:00:00	2024-11-08T23:00:00	4	Temperatura máxima	16.5
80879	7	Sololá	710	Panajachel	8	Panajachel	12	Diciembre	2023-12-29T00:00:00	2024-11-08T23:00:00	3	Temperatura mínima	16
80880	7	Sololá	710	Panajachel	8	Panajachel	12	Diciembre	2023-12-29T00:00:00	2024-11-08T23:00:00	5	Humedad	83
80881	7	Sololá	710	Panajachel	8	Panajachel	12	Diciembre	2023-12-29T00:00:00	2024-11-08T23:00:00	6	Velocidad del viento	1.6
80882	7	Sololá	710	Panajachel	8	Panajachel	12	Diciembre	2023-12-29T00:00:00	2024-11-08T23:00:00	7	Dirección del viento	1.61
80883	7	Sololá	710	Panajachel	8	Panajachel	12	Diciembre	2023-12-29T00:00:00	2024-11-08T23:00:00	1	Precipitación	0
80884	7	Sololá	710	Panajachel	8	Panajachel	12	Diciembre	2023-12-29T00:00:00	2024-11-08T23:00:00	8	Radiación solar	0
80885	7	Sololá	710	Panajachel	8	Panajachel	12	Diciembre	2023-12-30T00:00:00	2024-11-08T00:00:00	2	Temperatura media	15.4
80886	7	Sololá	710	Panajachel	8	Panajachel	12	Diciembre	2023-12-30T00:00:00	2024-11-08T00:00:00	4	Temperatura máxima	16.1
80887	7	Sololá	710	Panajachel	8	Panajachel	12	Diciembre	2023-12-30T00:00:00	2024-11-08T00:00:00	3	Temperatura mínima	15.4
80888	7	Sololá	710	Panajachel	8	Panajachel	12	Diciembre	2023-12-30T00:00:00	2024-11-08T00:00:00	5	Humedad	80
80889	7	Sololá	710	Panajachel	8	Panajachel	12	Diciembre	2023-12-30T00:00:00	2024-11-08T00:00:00	6	Velocidad del viento	3.2
80890	7	Sololá	710	Panajachel	8	Panajachel	12	Diciembre	2023-12-30T00:00:00	2024-11-08T00:00:00	7	Dirección del viento	3.22
80891	7	Sololá	710	Panajachel	8	Panajachel	12	Diciembre	2023-12-30T00:00:00	2024-11-08T00:00:00	1	Precipitación	0
80892	7	Sololá	710	Panajachel	8	Panajachel	12	Diciembre	2023-12-30T00:00:00	2024-11-08T00:00:00	8	Radiación solar	0
80893	7	Sololá	710	Panajachel	8	Panajachel	12	Diciembre	2023-12-30T00:00:00	2024-11-08T01:00:00	2	Temperatura media	15.2
80894	7	Sololá	710	Panajachel	8	Panajachel	12	Diciembre	2023-12-30T00:00:00	2024-11-08T01:00:00	4	Temperatura máxima	15.4
80895	7	Sololá	710	Panajachel	8	Panajachel	12	Diciembre	2023-12-30T00:00:00	2024-11-08T01:00:00	3	Temperatura mínima	15.1
80896	7	Sololá	710	Panajachel	8	Panajachel	12	Diciembre	2023-12-30T00:00:00	2024-11-08T01:00:00	5	Humedad	82
80897	7	Sololá	710	Panajachel	8	Panajachel	12	Diciembre	2023-12-30T00:00:00	2024-11-08T01:00:00	6	Velocidad del viento	1.6
80898	7	Sololá	710	Panajachel	8	Panajachel	12	Diciembre	2023-12-30T00:00:00	2024-11-08T01:00:00	7	Dirección del viento	1.61
80899	7	Sololá	710	Panajachel	8	Panajachel	12	Diciembre	2023-12-30T00:00:00	2024-11-08T01:00:00	1	Precipitación	0
80900	7	Sololá	710	Panajachel	8	Panajachel	12	Diciembre	2023-12-30T00:00:00	2024-11-08T01:00:00	8	Radiación solar	0
80901	7	Sololá	710	Panajachel	8	Panajachel	12	Diciembre	2023-12-30T00:00:00	2024-11-08T02:00:00	2	Temperatura media	14.9
80902	7	Sololá	710	Panajachel	8	Panajachel	12	Diciembre	2023-12-30T00:00:00	2024-11-08T02:00:00	4	Temperatura máxima	15.4
80903	7	Sololá	710	Panajachel	8	Panajachel	12	Diciembre	2023-12-30T00:00:00	2024-11-08T02:00:00	3	Temperatura mínima	14.9
80904	7	Sololá	710	Panajachel	8	Panajachel	12	Diciembre	2023-12-30T00:00:00	2024-11-08T02:00:00	5	Humedad	79
80905	7	Sololá	710	Panajachel	8	Panajachel	12	Diciembre	2023-12-30T00:00:00	2024-11-08T02:00:00	6	Velocidad del viento	1.6
80906	7	Sololá	710	Panajachel	8	Panajachel	12	Diciembre	2023-12-30T00:00:00	2024-11-08T02:00:00	7	Dirección del viento	1.61
80907	7	Sololá	710	Panajachel	8	Panajachel	12	Diciembre	2023-12-30T00:00:00	2024-11-08T02:00:00	1	Precipitación	0
80908	7	Sololá	710	Panajachel	8	Panajachel	12	Diciembre	2023-12-30T00:00:00	2024-11-08T02:00:00	8	Radiación solar	0
80909	7	Sololá	710	Panajachel	8	Panajachel	12	Diciembre	2023-12-30T00:00:00	2024-11-08T03:00:00	2	Temperatura media	14.7
80910	7	Sololá	710	Panajachel	8	Panajachel	12	Diciembre	2023-12-30T00:00:00	2024-11-08T03:00:00	4	Temperatura máxima	14.9
80911	7	Sololá	710	Panajachel	8	Panajachel	12	Diciembre	2023-12-30T00:00:00	2024-11-08T03:00:00	3	Temperatura mínima	14.7
80912	7	Sololá	710	Panajachel	8	Panajachel	12	Diciembre	2023-12-30T00:00:00	2024-11-08T03:00:00	5	Humedad	78
80913	7	Sololá	710	Panajachel	8	Panajachel	12	Diciembre	2023-12-30T00:00:00	2024-11-08T03:00:00	6	Velocidad del viento	1.6
80914	7	Sololá	710	Panajachel	8	Panajachel	12	Diciembre	2023-12-30T00:00:00	2024-11-08T03:00:00	7	Dirección del viento	1.61
80915	7	Sololá	710	Panajachel	8	Panajachel	12	Diciembre	2023-12-30T00:00:00	2024-11-08T03:00:00	1	Precipitación	0
80916	7	Sololá	710	Panajachel	8	Panajachel	12	Diciembre	2023-12-30T00:00:00	2024-11-08T03:00:00	8	Radiación solar	0
80917	7	Sololá	710	Panajachel	8	Panajachel	12	Diciembre	2023-12-30T00:00:00	2024-11-08T04:00:00	2	Temperatura media	14.6
80918	7	Sololá	710	Panajachel	8	Panajachel	12	Diciembre	2023-12-30T00:00:00	2024-11-08T04:00:00	4	Temperatura máxima	14.8
80919	7	Sololá	710	Panajachel	8	Panajachel	12	Diciembre	2023-12-30T00:00:00	2024-11-08T04:00:00	3	Temperatura mínima	14.6
80920	7	Sololá	710	Panajachel	8	Panajachel	12	Diciembre	2023-12-30T00:00:00	2024-11-08T04:00:00	5	Humedad	78
80921	7	Sololá	710	Panajachel	8	Panajachel	12	Diciembre	2023-12-30T00:00:00	2024-11-08T04:00:00	6	Velocidad del viento	0
80922	7	Sololá	710	Panajachel	8	Panajachel	12	Diciembre	2023-12-30T00:00:00	2024-11-08T04:00:00	7	Dirección del viento	0
80923	7	Sololá	710	Panajachel	8	Panajachel	12	Diciembre	2023-12-30T00:00:00	2024-11-08T04:00:00	1	Precipitación	0
80924	7	Sololá	710	Panajachel	8	Panajachel	12	Diciembre	2023-12-30T00:00:00	2024-11-08T04:00:00	8	Radiación solar	0
80925	7	Sololá	710	Panajachel	8	Panajachel	12	Diciembre	2023-12-30T00:00:00	2024-11-08T05:00:00	2	Temperatura media	14.2
80926	7	Sololá	710	Panajachel	8	Panajachel	12	Diciembre	2023-12-30T00:00:00	2024-11-08T05:00:00	4	Temperatura máxima	14.6
80927	7	Sololá	710	Panajachel	8	Panajachel	12	Diciembre	2023-12-30T00:00:00	2024-11-08T05:00:00	3	Temperatura mínima	14.2
80928	7	Sololá	710	Panajachel	8	Panajachel	12	Diciembre	2023-12-30T00:00:00	2024-11-08T05:00:00	5	Humedad	80
80929	7	Sololá	710	Panajachel	8	Panajachel	12	Diciembre	2023-12-30T00:00:00	2024-11-08T05:00:00	6	Velocidad del viento	0
80930	7	Sololá	710	Panajachel	8	Panajachel	12	Diciembre	2023-12-30T00:00:00	2024-11-08T05:00:00	7	Dirección del viento	0
80931	7	Sololá	710	Panajachel	8	Panajachel	12	Diciembre	2023-12-30T00:00:00	2024-11-08T05:00:00	1	Precipitación	0
80932	7	Sololá	710	Panajachel	8	Panajachel	12	Diciembre	2023-12-30T00:00:00	2024-11-08T05:00:00	8	Radiación solar	0
80933	7	Sololá	710	Panajachel	8	Panajachel	12	Diciembre	2023-12-30T00:00:00	2024-11-08T06:00:00	2	Temperatura media	14.3
80934	7	Sololá	710	Panajachel	8	Panajachel	12	Diciembre	2023-12-30T00:00:00	2024-11-08T06:00:00	4	Temperatura máxima	14.3
80935	7	Sololá	710	Panajachel	8	Panajachel	12	Diciembre	2023-12-30T00:00:00	2024-11-08T06:00:00	3	Temperatura mínima	13.8
80936	7	Sololá	710	Panajachel	8	Panajachel	12	Diciembre	2023-12-30T00:00:00	2024-11-08T06:00:00	5	Humedad	80
80937	7	Sololá	710	Panajachel	8	Panajachel	12	Diciembre	2023-12-30T00:00:00	2024-11-08T06:00:00	6	Velocidad del viento	0
80938	7	Sololá	710	Panajachel	8	Panajachel	12	Diciembre	2023-12-30T00:00:00	2024-11-08T06:00:00	7	Dirección del viento	0
80939	7	Sololá	710	Panajachel	8	Panajachel	12	Diciembre	2023-12-30T00:00:00	2024-11-08T06:00:00	1	Precipitación	0
80940	7	Sololá	710	Panajachel	8	Panajachel	12	Diciembre	2023-12-30T00:00:00	2024-11-08T06:00:00	8	Radiación solar	0
80941	7	Sololá	710	Panajachel	8	Panajachel	12	Diciembre	2023-12-30T00:00:00	2024-11-08T07:00:00	2	Temperatura media	13.8
80942	7	Sololá	710	Panajachel	8	Panajachel	12	Diciembre	2023-12-30T00:00:00	2024-11-08T07:00:00	4	Temperatura máxima	14.5
80943	7	Sololá	710	Panajachel	8	Panajachel	12	Diciembre	2023-12-30T00:00:00	2024-11-08T07:00:00	3	Temperatura mínima	13.8
80944	7	Sololá	710	Panajachel	8	Panajachel	12	Diciembre	2023-12-30T00:00:00	2024-11-08T07:00:00	5	Humedad	82
80945	7	Sololá	710	Panajachel	8	Panajachel	12	Diciembre	2023-12-30T00:00:00	2024-11-08T07:00:00	6	Velocidad del viento	0
80946	7	Sololá	710	Panajachel	8	Panajachel	12	Diciembre	2023-12-30T00:00:00	2024-11-08T07:00:00	7	Dirección del viento	0
80947	7	Sololá	710	Panajachel	8	Panajachel	12	Diciembre	2023-12-30T00:00:00	2024-11-08T07:00:00	1	Precipitación	0
80948	7	Sololá	710	Panajachel	8	Panajachel	12	Diciembre	2023-12-30T00:00:00	2024-11-08T07:00:00	8	Radiación solar	5
80949	7	Sololá	710	Panajachel	8	Panajachel	12	Diciembre	2023-12-30T00:00:00	2024-11-08T08:00:00	2	Temperatura media	17.3
80950	7	Sololá	710	Panajachel	8	Panajachel	12	Diciembre	2023-12-30T00:00:00	2024-11-08T08:00:00	4	Temperatura máxima	17.3
80951	7	Sololá	710	Panajachel	8	Panajachel	12	Diciembre	2023-12-30T00:00:00	2024-11-08T08:00:00	3	Temperatura mínima	13.8
80952	7	Sololá	710	Panajachel	8	Panajachel	12	Diciembre	2023-12-30T00:00:00	2024-11-08T08:00:00	5	Humedad	73
80953	7	Sololá	710	Panajachel	8	Panajachel	12	Diciembre	2023-12-30T00:00:00	2024-11-08T08:00:00	6	Velocidad del viento	0
80954	7	Sololá	710	Panajachel	8	Panajachel	12	Diciembre	2023-12-30T00:00:00	2024-11-08T08:00:00	7	Dirección del viento	0
80955	7	Sololá	710	Panajachel	8	Panajachel	12	Diciembre	2023-12-30T00:00:00	2024-11-08T08:00:00	1	Precipitación	0
80956	7	Sololá	710	Panajachel	8	Panajachel	12	Diciembre	2023-12-30T00:00:00	2024-11-08T08:00:00	8	Radiación solar	134
80957	7	Sololá	710	Panajachel	8	Panajachel	12	Diciembre	2023-12-30T00:00:00	2024-11-08T09:00:00	2	Temperatura media	18.2
80958	7	Sololá	710	Panajachel	8	Panajachel	12	Diciembre	2023-12-30T00:00:00	2024-11-08T09:00:00	4	Temperatura máxima	18.2
80959	7	Sololá	710	Panajachel	8	Panajachel	12	Diciembre	2023-12-30T00:00:00	2024-11-08T09:00:00	3	Temperatura mínima	17.3
80960	7	Sololá	710	Panajachel	8	Panajachel	12	Diciembre	2023-12-30T00:00:00	2024-11-08T09:00:00	5	Humedad	81
80961	7	Sololá	710	Panajachel	8	Panajachel	12	Diciembre	2023-12-30T00:00:00	2024-11-08T09:00:00	6	Velocidad del viento	1.6
80962	7	Sololá	710	Panajachel	8	Panajachel	12	Diciembre	2023-12-30T00:00:00	2024-11-08T09:00:00	7	Dirección del viento	1.61
80963	7	Sololá	710	Panajachel	8	Panajachel	12	Diciembre	2023-12-30T00:00:00	2024-11-08T09:00:00	1	Precipitación	0
80964	7	Sololá	710	Panajachel	8	Panajachel	12	Diciembre	2023-12-30T00:00:00	2024-11-08T09:00:00	8	Radiación solar	343
80965	7	Sololá	710	Panajachel	8	Panajachel	12	Diciembre	2023-12-30T00:00:00	2024-11-08T10:00:00	2	Temperatura media	18.9
80966	7	Sololá	710	Panajachel	8	Panajachel	12	Diciembre	2023-12-30T00:00:00	2024-11-08T10:00:00	4	Temperatura máxima	18.9
80967	7	Sololá	710	Panajachel	8	Panajachel	12	Diciembre	2023-12-30T00:00:00	2024-11-08T10:00:00	3	Temperatura mínima	18.1
80968	7	Sololá	710	Panajachel	8	Panajachel	12	Diciembre	2023-12-30T00:00:00	2024-11-08T10:00:00	5	Humedad	77
80969	7	Sololá	710	Panajachel	8	Panajachel	12	Diciembre	2023-12-30T00:00:00	2024-11-08T10:00:00	6	Velocidad del viento	4.8
80970	7	Sololá	710	Panajachel	8	Panajachel	12	Diciembre	2023-12-30T00:00:00	2024-11-08T10:00:00	7	Dirección del viento	4.83
80971	7	Sololá	710	Panajachel	8	Panajachel	12	Diciembre	2023-12-30T00:00:00	2024-11-08T10:00:00	1	Precipitación	0
80972	7	Sololá	710	Panajachel	8	Panajachel	12	Diciembre	2023-12-30T00:00:00	2024-11-08T10:00:00	8	Radiación solar	528
80973	7	Sololá	710	Panajachel	8	Panajachel	12	Diciembre	2023-12-30T00:00:00	2024-11-08T11:00:00	2	Temperatura media	20.7
80974	7	Sololá	710	Panajachel	8	Panajachel	12	Diciembre	2023-12-30T00:00:00	2024-11-08T11:00:00	4	Temperatura máxima	21.1
80975	7	Sololá	710	Panajachel	8	Panajachel	12	Diciembre	2023-12-30T00:00:00	2024-11-08T11:00:00	3	Temperatura mínima	18.9
80976	7	Sololá	710	Panajachel	8	Panajachel	12	Diciembre	2023-12-30T00:00:00	2024-11-08T11:00:00	5	Humedad	69
80977	7	Sololá	710	Panajachel	8	Panajachel	12	Diciembre	2023-12-30T00:00:00	2024-11-08T11:00:00	6	Velocidad del viento	3.2
80978	7	Sololá	710	Panajachel	8	Panajachel	12	Diciembre	2023-12-30T00:00:00	2024-11-08T11:00:00	7	Dirección del viento	3.22
80979	7	Sololá	710	Panajachel	8	Panajachel	12	Diciembre	2023-12-30T00:00:00	2024-11-08T11:00:00	1	Precipitación	0
80980	7	Sololá	710	Panajachel	8	Panajachel	12	Diciembre	2023-12-30T00:00:00	2024-11-08T11:00:00	8	Radiación solar	671
80981	7	Sololá	710	Panajachel	8	Panajachel	12	Diciembre	2023-12-30T00:00:00	2024-11-08T12:00:00	2	Temperatura media	22.6
80982	7	Sololá	710	Panajachel	8	Panajachel	12	Diciembre	2023-12-30T00:00:00	2024-11-08T12:00:00	4	Temperatura máxima	22.7
80983	7	Sololá	710	Panajachel	8	Panajachel	12	Diciembre	2023-12-30T00:00:00	2024-11-08T12:00:00	3	Temperatura mínima	20.7
80984	7	Sololá	710	Panajachel	8	Panajachel	12	Diciembre	2023-12-30T00:00:00	2024-11-08T12:00:00	5	Humedad	67
80985	7	Sololá	710	Panajachel	8	Panajachel	12	Diciembre	2023-12-30T00:00:00	2024-11-08T12:00:00	6	Velocidad del viento	0
80986	7	Sololá	710	Panajachel	8	Panajachel	12	Diciembre	2023-12-30T00:00:00	2024-11-08T12:00:00	7	Dirección del viento	0
80987	7	Sololá	710	Panajachel	8	Panajachel	12	Diciembre	2023-12-30T00:00:00	2024-11-08T12:00:00	1	Precipitación	0
80988	7	Sololá	710	Panajachel	8	Panajachel	12	Diciembre	2023-12-30T00:00:00	2024-11-08T12:00:00	8	Radiación solar	753
80989	7	Sololá	710	Panajachel	8	Panajachel	12	Diciembre	2023-12-30T00:00:00	2024-11-08T13:00:00	2	Temperatura media	23.3
80990	7	Sololá	710	Panajachel	8	Panajachel	12	Diciembre	2023-12-30T00:00:00	2024-11-08T13:00:00	4	Temperatura máxima	23.3
80991	7	Sololá	710	Panajachel	8	Panajachel	12	Diciembre	2023-12-30T00:00:00	2024-11-08T13:00:00	3	Temperatura mínima	22.2
80992	7	Sololá	710	Panajachel	8	Panajachel	12	Diciembre	2023-12-30T00:00:00	2024-11-08T13:00:00	5	Humedad	69
80993	7	Sololá	710	Panajachel	8	Panajachel	12	Diciembre	2023-12-30T00:00:00	2024-11-08T13:00:00	6	Velocidad del viento	1.6
80994	7	Sololá	710	Panajachel	8	Panajachel	12	Diciembre	2023-12-30T00:00:00	2024-11-08T13:00:00	7	Dirección del viento	1.61
80995	7	Sololá	710	Panajachel	8	Panajachel	12	Diciembre	2023-12-30T00:00:00	2024-11-08T13:00:00	1	Precipitación	0
80996	7	Sololá	710	Panajachel	8	Panajachel	12	Diciembre	2023-12-30T00:00:00	2024-11-08T13:00:00	8	Radiación solar	758
80997	7	Sololá	710	Panajachel	8	Panajachel	12	Diciembre	2023-12-30T00:00:00	2024-11-08T14:00:00	2	Temperatura media	23
80998	7	Sololá	710	Panajachel	8	Panajachel	12	Diciembre	2023-12-30T00:00:00	2024-11-08T14:00:00	4	Temperatura máxima	23.9
80999	7	Sololá	710	Panajachel	8	Panajachel	12	Diciembre	2023-12-30T00:00:00	2024-11-08T14:00:00	3	Temperatura mínima	22.6
81000	7	Sololá	710	Panajachel	8	Panajachel	12	Diciembre	2023-12-30T00:00:00	2024-11-08T14:00:00	5	Humedad	75
81001	7	Sololá	710	Panajachel	8	Panajachel	12	Diciembre	2023-12-30T00:00:00	2024-11-08T14:00:00	6	Velocidad del viento	3.2
81002	7	Sololá	710	Panajachel	8	Panajachel	12	Diciembre	2023-12-30T00:00:00	2024-11-08T14:00:00	7	Dirección del viento	3.22
81003	7	Sololá	710	Panajachel	8	Panajachel	12	Diciembre	2023-12-30T00:00:00	2024-11-08T14:00:00	1	Precipitación	0
81004	7	Sololá	710	Panajachel	8	Panajachel	12	Diciembre	2023-12-30T00:00:00	2024-11-08T14:00:00	8	Radiación solar	691
81005	7	Sololá	710	Panajachel	8	Panajachel	12	Diciembre	2023-12-30T00:00:00	2024-11-08T15:00:00	2	Temperatura media	22.4
81006	7	Sololá	710	Panajachel	8	Panajachel	12	Diciembre	2023-12-30T00:00:00	2024-11-08T15:00:00	4	Temperatura máxima	23
81007	7	Sololá	710	Panajachel	8	Panajachel	12	Diciembre	2023-12-30T00:00:00	2024-11-08T15:00:00	3	Temperatura mínima	22.3
81008	7	Sololá	710	Panajachel	8	Panajachel	12	Diciembre	2023-12-30T00:00:00	2024-11-08T15:00:00	5	Humedad	76
81009	7	Sololá	710	Panajachel	8	Panajachel	12	Diciembre	2023-12-30T00:00:00	2024-11-08T15:00:00	6	Velocidad del viento	6.4
81010	7	Sololá	710	Panajachel	8	Panajachel	12	Diciembre	2023-12-30T00:00:00	2024-11-08T15:00:00	7	Dirección del viento	6.44
81011	7	Sololá	710	Panajachel	8	Panajachel	12	Diciembre	2023-12-30T00:00:00	2024-11-08T15:00:00	1	Precipitación	0
81012	7	Sololá	710	Panajachel	8	Panajachel	12	Diciembre	2023-12-30T00:00:00	2024-11-08T15:00:00	8	Radiación solar	590
81013	7	Sololá	710	Panajachel	8	Panajachel	12	Diciembre	2023-12-30T00:00:00	2024-11-08T16:00:00	2	Temperatura media	21.7
81014	7	Sololá	710	Panajachel	8	Panajachel	12	Diciembre	2023-12-30T00:00:00	2024-11-08T16:00:00	4	Temperatura máxima	22.7
81015	7	Sololá	710	Panajachel	8	Panajachel	12	Diciembre	2023-12-30T00:00:00	2024-11-08T16:00:00	3	Temperatura mínima	21.7
81016	7	Sololá	710	Panajachel	8	Panajachel	12	Diciembre	2023-12-30T00:00:00	2024-11-08T16:00:00	5	Humedad	82
81017	7	Sololá	710	Panajachel	8	Panajachel	12	Diciembre	2023-12-30T00:00:00	2024-11-08T16:00:00	6	Velocidad del viento	4.8
81018	7	Sololá	710	Panajachel	8	Panajachel	12	Diciembre	2023-12-30T00:00:00	2024-11-08T16:00:00	7	Dirección del viento	4.83
81019	7	Sololá	710	Panajachel	8	Panajachel	12	Diciembre	2023-12-30T00:00:00	2024-11-08T16:00:00	1	Precipitación	0
81020	7	Sololá	710	Panajachel	8	Panajachel	12	Diciembre	2023-12-30T00:00:00	2024-11-08T16:00:00	8	Radiación solar	211
81021	7	Sololá	710	Panajachel	8	Panajachel	12	Diciembre	2023-12-30T00:00:00	2024-11-08T17:00:00	2	Temperatura media	22.1
81022	7	Sololá	710	Panajachel	8	Panajachel	12	Diciembre	2023-12-30T00:00:00	2024-11-08T17:00:00	4	Temperatura máxima	22.8
81023	7	Sololá	710	Panajachel	8	Panajachel	12	Diciembre	2023-12-30T00:00:00	2024-11-08T17:00:00	3	Temperatura mínima	21.7
81024	7	Sololá	710	Panajachel	8	Panajachel	12	Diciembre	2023-12-30T00:00:00	2024-11-08T17:00:00	5	Humedad	80
81025	7	Sololá	710	Panajachel	8	Panajachel	12	Diciembre	2023-12-30T00:00:00	2024-11-08T17:00:00	6	Velocidad del viento	1.6
81026	7	Sololá	710	Panajachel	8	Panajachel	12	Diciembre	2023-12-30T00:00:00	2024-11-08T17:00:00	7	Dirección del viento	1.61
81027	7	Sololá	710	Panajachel	8	Panajachel	12	Diciembre	2023-12-30T00:00:00	2024-11-08T17:00:00	1	Precipitación	0
81028	7	Sololá	710	Panajachel	8	Panajachel	12	Diciembre	2023-12-30T00:00:00	2024-11-08T17:00:00	8	Radiación solar	206
81029	7	Sololá	710	Panajachel	8	Panajachel	12	Diciembre	2023-12-30T00:00:00	2024-11-08T18:00:00	2	Temperatura media	20.3
81030	7	Sololá	710	Panajachel	8	Panajachel	12	Diciembre	2023-12-30T00:00:00	2024-11-08T18:00:00	4	Temperatura máxima	22.1
81031	7	Sololá	710	Panajachel	8	Panajachel	12	Diciembre	2023-12-30T00:00:00	2024-11-08T18:00:00	3	Temperatura mínima	20.3
81032	7	Sololá	710	Panajachel	8	Panajachel	12	Diciembre	2023-12-30T00:00:00	2024-11-08T18:00:00	5	Humedad	85
81033	7	Sololá	710	Panajachel	8	Panajachel	12	Diciembre	2023-12-30T00:00:00	2024-11-08T18:00:00	6	Velocidad del viento	1.6
81034	7	Sololá	710	Panajachel	8	Panajachel	12	Diciembre	2023-12-30T00:00:00	2024-11-08T18:00:00	7	Dirección del viento	1.61
81035	7	Sololá	710	Panajachel	8	Panajachel	12	Diciembre	2023-12-30T00:00:00	2024-11-08T18:00:00	1	Precipitación	0
81036	7	Sololá	710	Panajachel	8	Panajachel	12	Diciembre	2023-12-30T00:00:00	2024-11-08T18:00:00	8	Radiación solar	42
81037	7	Sololá	710	Panajachel	8	Panajachel	12	Diciembre	2023-12-30T00:00:00	2024-11-08T19:00:00	2	Temperatura media	19.3
81038	7	Sololá	710	Panajachel	8	Panajachel	12	Diciembre	2023-12-30T00:00:00	2024-11-08T19:00:00	4	Temperatura máxima	20.3
81039	7	Sololá	710	Panajachel	8	Panajachel	12	Diciembre	2023-12-30T00:00:00	2024-11-08T19:00:00	3	Temperatura mínima	19.3
81040	7	Sololá	710	Panajachel	8	Panajachel	12	Diciembre	2023-12-30T00:00:00	2024-11-08T19:00:00	5	Humedad	81
81041	7	Sololá	710	Panajachel	8	Panajachel	12	Diciembre	2023-12-30T00:00:00	2024-11-08T19:00:00	6	Velocidad del viento	0
81042	7	Sololá	710	Panajachel	8	Panajachel	12	Diciembre	2023-12-30T00:00:00	2024-11-08T19:00:00	7	Dirección del viento	0
81043	7	Sololá	710	Panajachel	8	Panajachel	12	Diciembre	2023-12-30T00:00:00	2024-11-08T19:00:00	1	Precipitación	0
81044	7	Sololá	710	Panajachel	8	Panajachel	12	Diciembre	2023-12-30T00:00:00	2024-11-08T19:00:00	8	Radiación solar	0
81045	7	Sololá	710	Panajachel	8	Panajachel	12	Diciembre	2023-12-30T00:00:00	2024-11-08T20:00:00	2	Temperatura media	18.6
81046	7	Sololá	710	Panajachel	8	Panajachel	12	Diciembre	2023-12-30T00:00:00	2024-11-08T20:00:00	4	Temperatura máxima	19.3
81047	7	Sololá	710	Panajachel	8	Panajachel	12	Diciembre	2023-12-30T00:00:00	2024-11-08T20:00:00	3	Temperatura mínima	18.4
81048	7	Sololá	710	Panajachel	8	Panajachel	12	Diciembre	2023-12-30T00:00:00	2024-11-08T20:00:00	5	Humedad	75
81049	7	Sololá	710	Panajachel	8	Panajachel	12	Diciembre	2023-12-30T00:00:00	2024-11-08T20:00:00	6	Velocidad del viento	1.6
81050	7	Sololá	710	Panajachel	8	Panajachel	12	Diciembre	2023-12-30T00:00:00	2024-11-08T20:00:00	7	Dirección del viento	1.61
81051	7	Sololá	710	Panajachel	8	Panajachel	12	Diciembre	2023-12-30T00:00:00	2024-11-08T20:00:00	1	Precipitación	0
81052	7	Sololá	710	Panajachel	8	Panajachel	12	Diciembre	2023-12-30T00:00:00	2024-11-08T20:00:00	8	Radiación solar	0
81053	7	Sololá	710	Panajachel	8	Panajachel	12	Diciembre	2023-12-30T00:00:00	2024-11-08T21:00:00	2	Temperatura media	18.9
81054	7	Sololá	710	Panajachel	8	Panajachel	12	Diciembre	2023-12-30T00:00:00	2024-11-08T21:00:00	4	Temperatura máxima	19.3
81055	7	Sololá	710	Panajachel	8	Panajachel	12	Diciembre	2023-12-30T00:00:00	2024-11-08T21:00:00	3	Temperatura mínima	18.3
81056	7	Sololá	710	Panajachel	8	Panajachel	12	Diciembre	2023-12-30T00:00:00	2024-11-08T21:00:00	5	Humedad	72
81057	7	Sololá	710	Panajachel	8	Panajachel	12	Diciembre	2023-12-30T00:00:00	2024-11-08T21:00:00	6	Velocidad del viento	4.8
81058	7	Sololá	710	Panajachel	8	Panajachel	12	Diciembre	2023-12-30T00:00:00	2024-11-08T21:00:00	7	Dirección del viento	4.83
81059	7	Sololá	710	Panajachel	8	Panajachel	12	Diciembre	2023-12-30T00:00:00	2024-11-08T21:00:00	1	Precipitación	0
81060	7	Sololá	710	Panajachel	8	Panajachel	12	Diciembre	2023-12-30T00:00:00	2024-11-08T21:00:00	8	Radiación solar	0
81061	7	Sololá	710	Panajachel	8	Panajachel	12	Diciembre	2023-12-30T00:00:00	2024-11-08T22:00:00	2	Temperatura media	18.4
81062	7	Sololá	710	Panajachel	8	Panajachel	12	Diciembre	2023-12-30T00:00:00	2024-11-08T22:00:00	4	Temperatura máxima	18.9
81063	7	Sololá	710	Panajachel	8	Panajachel	12	Diciembre	2023-12-30T00:00:00	2024-11-08T22:00:00	3	Temperatura mínima	18.2
81064	7	Sololá	710	Panajachel	8	Panajachel	12	Diciembre	2023-12-30T00:00:00	2024-11-08T22:00:00	5	Humedad	72
81065	7	Sololá	710	Panajachel	8	Panajachel	12	Diciembre	2023-12-30T00:00:00	2024-11-08T22:00:00	6	Velocidad del viento	3.2
81066	7	Sololá	710	Panajachel	8	Panajachel	12	Diciembre	2023-12-30T00:00:00	2024-11-08T22:00:00	7	Dirección del viento	3.22
81067	7	Sololá	710	Panajachel	8	Panajachel	12	Diciembre	2023-12-30T00:00:00	2024-11-08T22:00:00	1	Precipitación	0
81068	7	Sololá	710	Panajachel	8	Panajachel	12	Diciembre	2023-12-30T00:00:00	2024-11-08T22:00:00	8	Radiación solar	0
81069	7	Sololá	710	Panajachel	8	Panajachel	12	Diciembre	2023-12-30T00:00:00	2024-11-08T23:00:00	2	Temperatura media	18.6
81070	7	Sololá	710	Panajachel	8	Panajachel	12	Diciembre	2023-12-30T00:00:00	2024-11-08T23:00:00	4	Temperatura máxima	18.6
81071	7	Sololá	710	Panajachel	8	Panajachel	12	Diciembre	2023-12-30T00:00:00	2024-11-08T23:00:00	3	Temperatura mínima	17.9
81072	7	Sololá	710	Panajachel	8	Panajachel	12	Diciembre	2023-12-30T00:00:00	2024-11-08T23:00:00	5	Humedad	70
81073	7	Sololá	710	Panajachel	8	Panajachel	12	Diciembre	2023-12-30T00:00:00	2024-11-08T23:00:00	6	Velocidad del viento	8
81074	7	Sololá	710	Panajachel	8	Panajachel	12	Diciembre	2023-12-30T00:00:00	2024-11-08T23:00:00	7	Dirección del viento	8.05
81075	7	Sololá	710	Panajachel	8	Panajachel	12	Diciembre	2023-12-30T00:00:00	2024-11-08T23:00:00	1	Precipitación	0
81076	7	Sololá	710	Panajachel	8	Panajachel	12	Diciembre	2023-12-30T00:00:00	2024-11-08T23:00:00	8	Radiación solar	0
81077	7	Sololá	710	Panajachel	8	Panajachel	12	Diciembre	2023-12-31T00:00:00	2024-11-08T00:00:00	2	Temperatura media	18.1
81078	7	Sololá	710	Panajachel	8	Panajachel	12	Diciembre	2023-12-31T00:00:00	2024-11-08T00:00:00	4	Temperatura máxima	18.6
81079	7	Sololá	710	Panajachel	8	Panajachel	12	Diciembre	2023-12-31T00:00:00	2024-11-08T00:00:00	3	Temperatura mínima	18.1
81080	7	Sololá	710	Panajachel	8	Panajachel	12	Diciembre	2023-12-31T00:00:00	2024-11-08T00:00:00	5	Humedad	70
81081	7	Sololá	710	Panajachel	8	Panajachel	12	Diciembre	2023-12-31T00:00:00	2024-11-08T00:00:00	6	Velocidad del viento	9.7
81082	7	Sololá	710	Panajachel	8	Panajachel	12	Diciembre	2023-12-31T00:00:00	2024-11-08T00:00:00	7	Dirección del viento	9.66
81083	7	Sololá	710	Panajachel	8	Panajachel	12	Diciembre	2023-12-31T00:00:00	2024-11-08T00:00:00	1	Precipitación	0
81084	7	Sololá	710	Panajachel	8	Panajachel	12	Diciembre	2023-12-31T00:00:00	2024-11-08T00:00:00	8	Radiación solar	0
81085	7	Sololá	710	Panajachel	8	Panajachel	12	Diciembre	2023-12-31T00:00:00	2024-11-08T01:00:00	2	Temperatura media	17.6
81086	7	Sololá	710	Panajachel	8	Panajachel	12	Diciembre	2023-12-31T00:00:00	2024-11-08T01:00:00	4	Temperatura máxima	18.2
81087	7	Sololá	710	Panajachel	8	Panajachel	12	Diciembre	2023-12-31T00:00:00	2024-11-08T01:00:00	3	Temperatura mínima	17.6
81088	7	Sololá	710	Panajachel	8	Panajachel	12	Diciembre	2023-12-31T00:00:00	2024-11-08T01:00:00	5	Humedad	71
81089	7	Sololá	710	Panajachel	8	Panajachel	12	Diciembre	2023-12-31T00:00:00	2024-11-08T01:00:00	6	Velocidad del viento	8
81090	7	Sololá	710	Panajachel	8	Panajachel	12	Diciembre	2023-12-31T00:00:00	2024-11-08T01:00:00	7	Dirección del viento	8.05
81091	7	Sololá	710	Panajachel	8	Panajachel	12	Diciembre	2023-12-31T00:00:00	2024-11-08T01:00:00	1	Precipitación	0
81092	7	Sololá	710	Panajachel	8	Panajachel	12	Diciembre	2023-12-31T00:00:00	2024-11-08T01:00:00	8	Radiación solar	0
81093	7	Sololá	710	Panajachel	8	Panajachel	12	Diciembre	2023-12-31T00:00:00	2024-11-08T02:00:00	2	Temperatura media	17.3
81094	7	Sololá	710	Panajachel	8	Panajachel	12	Diciembre	2023-12-31T00:00:00	2024-11-08T02:00:00	4	Temperatura máxima	17.7
81095	7	Sololá	710	Panajachel	8	Panajachel	12	Diciembre	2023-12-31T00:00:00	2024-11-08T02:00:00	3	Temperatura mínima	17.3
81096	7	Sololá	710	Panajachel	8	Panajachel	12	Diciembre	2023-12-31T00:00:00	2024-11-08T02:00:00	5	Humedad	71
81097	7	Sololá	710	Panajachel	8	Panajachel	12	Diciembre	2023-12-31T00:00:00	2024-11-08T02:00:00	6	Velocidad del viento	8
81098	7	Sololá	710	Panajachel	8	Panajachel	12	Diciembre	2023-12-31T00:00:00	2024-11-08T02:00:00	7	Dirección del viento	8.05
81099	7	Sololá	710	Panajachel	8	Panajachel	12	Diciembre	2023-12-31T00:00:00	2024-11-08T02:00:00	1	Precipitación	0
81100	7	Sololá	710	Panajachel	8	Panajachel	12	Diciembre	2023-12-31T00:00:00	2024-11-08T02:00:00	8	Radiación solar	0
81101	7	Sololá	710	Panajachel	8	Panajachel	12	Diciembre	2023-12-31T00:00:00	2024-11-08T03:00:00	2	Temperatura media	15.9
81102	7	Sololá	710	Panajachel	8	Panajachel	12	Diciembre	2023-12-31T00:00:00	2024-11-08T03:00:00	4	Temperatura máxima	17.3
81103	7	Sololá	710	Panajachel	8	Panajachel	12	Diciembre	2023-12-31T00:00:00	2024-11-08T03:00:00	3	Temperatura mínima	15.8
81104	7	Sololá	710	Panajachel	8	Panajachel	12	Diciembre	2023-12-31T00:00:00	2024-11-08T03:00:00	5	Humedad	74
81105	7	Sololá	710	Panajachel	8	Panajachel	12	Diciembre	2023-12-31T00:00:00	2024-11-08T03:00:00	6	Velocidad del viento	3.2
81106	7	Sololá	710	Panajachel	8	Panajachel	12	Diciembre	2023-12-31T00:00:00	2024-11-08T03:00:00	7	Dirección del viento	3.22
81107	7	Sololá	710	Panajachel	8	Panajachel	12	Diciembre	2023-12-31T00:00:00	2024-11-08T03:00:00	1	Precipitación	0
81108	7	Sololá	710	Panajachel	8	Panajachel	12	Diciembre	2023-12-31T00:00:00	2024-11-08T03:00:00	8	Radiación solar	0
81109	7	Sololá	710	Panajachel	8	Panajachel	12	Diciembre	2023-12-31T00:00:00	2024-11-08T04:00:00	2	Temperatura media	15.7
81110	7	Sololá	710	Panajachel	8	Panajachel	12	Diciembre	2023-12-31T00:00:00	2024-11-08T04:00:00	4	Temperatura máxima	16
81111	7	Sololá	710	Panajachel	8	Panajachel	12	Diciembre	2023-12-31T00:00:00	2024-11-08T04:00:00	3	Temperatura mínima	15.6
81112	7	Sololá	710	Panajachel	8	Panajachel	12	Diciembre	2023-12-31T00:00:00	2024-11-08T04:00:00	5	Humedad	74
81113	7	Sololá	710	Panajachel	8	Panajachel	12	Diciembre	2023-12-31T00:00:00	2024-11-08T04:00:00	6	Velocidad del viento	3.2
81114	7	Sololá	710	Panajachel	8	Panajachel	12	Diciembre	2023-12-31T00:00:00	2024-11-08T04:00:00	7	Dirección del viento	3.22
81115	7	Sololá	710	Panajachel	8	Panajachel	12	Diciembre	2023-12-31T00:00:00	2024-11-08T04:00:00	1	Precipitación	0
81116	7	Sololá	710	Panajachel	8	Panajachel	12	Diciembre	2023-12-31T00:00:00	2024-11-08T04:00:00	8	Radiación solar	0
81117	7	Sololá	710	Panajachel	8	Panajachel	12	Diciembre	2023-12-31T00:00:00	2024-11-08T05:00:00	2	Temperatura media	15.4
81118	7	Sololá	710	Panajachel	8	Panajachel	12	Diciembre	2023-12-31T00:00:00	2024-11-08T05:00:00	4	Temperatura máxima	15.7
81119	7	Sololá	710	Panajachel	8	Panajachel	12	Diciembre	2023-12-31T00:00:00	2024-11-08T05:00:00	3	Temperatura mínima	15.3
81120	7	Sololá	710	Panajachel	8	Panajachel	12	Diciembre	2023-12-31T00:00:00	2024-11-08T05:00:00	5	Humedad	75
81121	7	Sololá	710	Panajachel	8	Panajachel	12	Diciembre	2023-12-31T00:00:00	2024-11-08T05:00:00	6	Velocidad del viento	6.4
81122	7	Sololá	710	Panajachel	8	Panajachel	12	Diciembre	2023-12-31T00:00:00	2024-11-08T05:00:00	7	Dirección del viento	6.44
81123	7	Sololá	710	Panajachel	8	Panajachel	12	Diciembre	2023-12-31T00:00:00	2024-11-08T05:00:00	1	Precipitación	0
81124	7	Sololá	710	Panajachel	8	Panajachel	12	Diciembre	2023-12-31T00:00:00	2024-11-08T05:00:00	8	Radiación solar	0
81125	7	Sololá	710	Panajachel	8	Panajachel	12	Diciembre	2023-12-31T00:00:00	2024-11-08T06:00:00	2	Temperatura media	15.2
81126	7	Sololá	710	Panajachel	8	Panajachel	12	Diciembre	2023-12-31T00:00:00	2024-11-08T06:00:00	4	Temperatura máxima	15.4
81127	7	Sololá	710	Panajachel	8	Panajachel	12	Diciembre	2023-12-31T00:00:00	2024-11-08T06:00:00	3	Temperatura mínima	15.2
81128	7	Sololá	710	Panajachel	8	Panajachel	12	Diciembre	2023-12-31T00:00:00	2024-11-08T06:00:00	5	Humedad	76
81129	7	Sololá	710	Panajachel	8	Panajachel	12	Diciembre	2023-12-31T00:00:00	2024-11-08T06:00:00	6	Velocidad del viento	6.4
81130	7	Sololá	710	Panajachel	8	Panajachel	12	Diciembre	2023-12-31T00:00:00	2024-11-08T06:00:00	7	Dirección del viento	6.44
81131	7	Sololá	710	Panajachel	8	Panajachel	12	Diciembre	2023-12-31T00:00:00	2024-11-08T06:00:00	1	Precipitación	0
81132	7	Sololá	710	Panajachel	8	Panajachel	12	Diciembre	2023-12-31T00:00:00	2024-11-08T06:00:00	8	Radiación solar	0
81133	7	Sololá	710	Panajachel	8	Panajachel	12	Diciembre	2023-12-31T00:00:00	2024-11-08T07:00:00	2	Temperatura media	14.9
81134	7	Sololá	710	Panajachel	8	Panajachel	12	Diciembre	2023-12-31T00:00:00	2024-11-08T07:00:00	4	Temperatura máxima	15.2
81135	7	Sololá	710	Panajachel	8	Panajachel	12	Diciembre	2023-12-31T00:00:00	2024-11-08T07:00:00	3	Temperatura mínima	14.5
81136	7	Sololá	710	Panajachel	8	Panajachel	12	Diciembre	2023-12-31T00:00:00	2024-11-08T07:00:00	5	Humedad	77
81137	7	Sololá	710	Panajachel	8	Panajachel	12	Diciembre	2023-12-31T00:00:00	2024-11-08T07:00:00	6	Velocidad del viento	6.4
81138	7	Sololá	710	Panajachel	8	Panajachel	12	Diciembre	2023-12-31T00:00:00	2024-11-08T07:00:00	7	Dirección del viento	6.44
81139	7	Sololá	710	Panajachel	8	Panajachel	12	Diciembre	2023-12-31T00:00:00	2024-11-08T07:00:00	1	Precipitación	0
81140	7	Sololá	710	Panajachel	8	Panajachel	12	Diciembre	2023-12-31T00:00:00	2024-11-08T07:00:00	8	Radiación solar	4
81141	7	Sololá	710	Panajachel	8	Panajachel	12	Diciembre	2023-12-31T00:00:00	2024-11-08T08:00:00	2	Temperatura media	17.3
81142	7	Sololá	710	Panajachel	8	Panajachel	12	Diciembre	2023-12-31T00:00:00	2024-11-08T08:00:00	4	Temperatura máxima	17.3
81143	7	Sololá	710	Panajachel	8	Panajachel	12	Diciembre	2023-12-31T00:00:00	2024-11-08T08:00:00	3	Temperatura mínima	14.7
81144	7	Sololá	710	Panajachel	8	Panajachel	12	Diciembre	2023-12-31T00:00:00	2024-11-08T08:00:00	5	Humedad	72
81145	7	Sololá	710	Panajachel	8	Panajachel	12	Diciembre	2023-12-31T00:00:00	2024-11-08T08:00:00	6	Velocidad del viento	6.4
81146	7	Sololá	710	Panajachel	8	Panajachel	12	Diciembre	2023-12-31T00:00:00	2024-11-08T08:00:00	7	Dirección del viento	6.44
81147	7	Sololá	710	Panajachel	8	Panajachel	12	Diciembre	2023-12-31T00:00:00	2024-11-08T08:00:00	1	Precipitación	0
81148	7	Sololá	710	Panajachel	8	Panajachel	12	Diciembre	2023-12-31T00:00:00	2024-11-08T08:00:00	8	Radiación solar	142
81149	7	Sololá	710	Panajachel	8	Panajachel	12	Diciembre	2023-12-31T00:00:00	2024-11-08T09:00:00	2	Temperatura media	19.7
81150	7	Sololá	710	Panajachel	8	Panajachel	12	Diciembre	2023-12-31T00:00:00	2024-11-08T09:00:00	4	Temperatura máxima	19.8
81151	7	Sololá	710	Panajachel	8	Panajachel	12	Diciembre	2023-12-31T00:00:00	2024-11-08T09:00:00	3	Temperatura mínima	17.3
81152	7	Sololá	710	Panajachel	8	Panajachel	12	Diciembre	2023-12-31T00:00:00	2024-11-08T09:00:00	5	Humedad	66
81153	7	Sololá	710	Panajachel	8	Panajachel	12	Diciembre	2023-12-31T00:00:00	2024-11-08T09:00:00	6	Velocidad del viento	4.8
81154	7	Sololá	710	Panajachel	8	Panajachel	12	Diciembre	2023-12-31T00:00:00	2024-11-08T09:00:00	7	Dirección del viento	4.83
81155	7	Sololá	710	Panajachel	8	Panajachel	12	Diciembre	2023-12-31T00:00:00	2024-11-08T09:00:00	1	Precipitación	0
81156	7	Sololá	710	Panajachel	8	Panajachel	12	Diciembre	2023-12-31T00:00:00	2024-11-08T09:00:00	8	Radiación solar	368
81157	7	Sololá	710	Panajachel	8	Panajachel	12	Diciembre	2023-12-31T00:00:00	2024-11-08T10:00:00	2	Temperatura media	21.1
81158	7	Sololá	710	Panajachel	8	Panajachel	12	Diciembre	2023-12-31T00:00:00	2024-11-08T10:00:00	4	Temperatura máxima	21.6
81159	7	Sololá	710	Panajachel	8	Panajachel	12	Diciembre	2023-12-31T00:00:00	2024-11-08T10:00:00	3	Temperatura mínima	19.8
81160	7	Sololá	710	Panajachel	8	Panajachel	12	Diciembre	2023-12-31T00:00:00	2024-11-08T10:00:00	5	Humedad	69
81161	7	Sololá	710	Panajachel	8	Panajachel	12	Diciembre	2023-12-31T00:00:00	2024-11-08T10:00:00	6	Velocidad del viento	4.8
81162	7	Sololá	710	Panajachel	8	Panajachel	12	Diciembre	2023-12-31T00:00:00	2024-11-08T10:00:00	7	Dirección del viento	4.83
81163	7	Sololá	710	Panajachel	8	Panajachel	12	Diciembre	2023-12-31T00:00:00	2024-11-08T10:00:00	1	Precipitación	0
81164	7	Sololá	710	Panajachel	8	Panajachel	12	Diciembre	2023-12-31T00:00:00	2024-11-08T10:00:00	8	Radiación solar	553
81165	7	Sololá	710	Panajachel	8	Panajachel	12	Diciembre	2023-12-31T00:00:00	2024-11-08T11:00:00	2	Temperatura media	20.1
81166	7	Sololá	710	Panajachel	8	Panajachel	12	Diciembre	2023-12-31T00:00:00	2024-11-08T11:00:00	4	Temperatura máxima	21.2
81167	7	Sololá	710	Panajachel	8	Panajachel	12	Diciembre	2023-12-31T00:00:00	2024-11-08T11:00:00	3	Temperatura mínima	19.4
81168	7	Sololá	710	Panajachel	8	Panajachel	12	Diciembre	2023-12-31T00:00:00	2024-11-08T11:00:00	5	Humedad	69
81169	7	Sololá	710	Panajachel	8	Panajachel	12	Diciembre	2023-12-31T00:00:00	2024-11-08T11:00:00	6	Velocidad del viento	6.4
81170	7	Sololá	710	Panajachel	8	Panajachel	12	Diciembre	2023-12-31T00:00:00	2024-11-08T11:00:00	7	Dirección del viento	6.44
81171	7	Sololá	710	Panajachel	8	Panajachel	12	Diciembre	2023-12-31T00:00:00	2024-11-08T11:00:00	1	Precipitación	0
81172	7	Sololá	710	Panajachel	8	Panajachel	12	Diciembre	2023-12-31T00:00:00	2024-11-08T11:00:00	8	Radiación solar	689
81173	7	Sololá	710	Panajachel	8	Panajachel	12	Diciembre	2023-12-31T00:00:00	2024-11-08T12:00:00	2	Temperatura media	21.9
81174	7	Sololá	710	Panajachel	8	Panajachel	12	Diciembre	2023-12-31T00:00:00	2024-11-08T12:00:00	4	Temperatura máxima	21.9
81175	7	Sololá	710	Panajachel	8	Panajachel	12	Diciembre	2023-12-31T00:00:00	2024-11-08T12:00:00	3	Temperatura mínima	20.1
81176	7	Sololá	710	Panajachel	8	Panajachel	12	Diciembre	2023-12-31T00:00:00	2024-11-08T12:00:00	5	Humedad	64
81177	7	Sololá	710	Panajachel	8	Panajachel	12	Diciembre	2023-12-31T00:00:00	2024-11-08T12:00:00	6	Velocidad del viento	4.8
81178	7	Sololá	710	Panajachel	8	Panajachel	12	Diciembre	2023-12-31T00:00:00	2024-11-08T12:00:00	7	Dirección del viento	4.83
81179	7	Sololá	710	Panajachel	8	Panajachel	12	Diciembre	2023-12-31T00:00:00	2024-11-08T12:00:00	1	Precipitación	0
81180	7	Sololá	710	Panajachel	8	Panajachel	12	Diciembre	2023-12-31T00:00:00	2024-11-08T12:00:00	8	Radiación solar	766
81181	7	Sololá	710	Panajachel	8	Panajachel	12	Diciembre	2023-12-31T00:00:00	2024-11-08T13:00:00	2	Temperatura media	23
81182	7	Sololá	710	Panajachel	8	Panajachel	12	Diciembre	2023-12-31T00:00:00	2024-11-08T13:00:00	4	Temperatura máxima	23.8
81183	7	Sololá	710	Panajachel	8	Panajachel	12	Diciembre	2023-12-31T00:00:00	2024-11-08T13:00:00	3	Temperatura mínima	21.9
81184	7	Sololá	710	Panajachel	8	Panajachel	12	Diciembre	2023-12-31T00:00:00	2024-11-08T13:00:00	5	Humedad	65
81185	7	Sololá	710	Panajachel	8	Panajachel	12	Diciembre	2023-12-31T00:00:00	2024-11-08T13:00:00	6	Velocidad del viento	3.2
81186	7	Sololá	710	Panajachel	8	Panajachel	12	Diciembre	2023-12-31T00:00:00	2024-11-08T13:00:00	7	Dirección del viento	3.22
81187	7	Sololá	710	Panajachel	8	Panajachel	12	Diciembre	2023-12-31T00:00:00	2024-11-08T13:00:00	1	Precipitación	0
81188	7	Sololá	710	Panajachel	8	Panajachel	12	Diciembre	2023-12-31T00:00:00	2024-11-08T13:00:00	8	Radiación solar	769
81189	7	Sololá	710	Panajachel	8	Panajachel	12	Diciembre	2023-12-31T00:00:00	2024-11-08T14:00:00	2	Temperatura media	22.7
81190	7	Sololá	710	Panajachel	8	Panajachel	12	Diciembre	2023-12-31T00:00:00	2024-11-08T14:00:00	4	Temperatura máxima	24.3
81191	7	Sololá	710	Panajachel	8	Panajachel	12	Diciembre	2023-12-31T00:00:00	2024-11-08T14:00:00	3	Temperatura mínima	22.7
81192	7	Sololá	710	Panajachel	8	Panajachel	12	Diciembre	2023-12-31T00:00:00	2024-11-08T14:00:00	5	Humedad	73
81193	7	Sololá	710	Panajachel	8	Panajachel	12	Diciembre	2023-12-31T00:00:00	2024-11-08T14:00:00	6	Velocidad del viento	3.2
81194	7	Sololá	710	Panajachel	8	Panajachel	12	Diciembre	2023-12-31T00:00:00	2024-11-08T14:00:00	7	Dirección del viento	3.22
81195	7	Sololá	710	Panajachel	8	Panajachel	12	Diciembre	2023-12-31T00:00:00	2024-11-08T14:00:00	1	Precipitación	0
81196	7	Sololá	710	Panajachel	8	Panajachel	12	Diciembre	2023-12-31T00:00:00	2024-11-08T14:00:00	8	Radiación solar	710
81197	7	Sololá	710	Panajachel	8	Panajachel	12	Diciembre	2023-12-31T00:00:00	2024-11-08T15:00:00	2	Temperatura media	23.6
81198	7	Sololá	710	Panajachel	8	Panajachel	12	Diciembre	2023-12-31T00:00:00	2024-11-08T15:00:00	4	Temperatura máxima	23.7
81199	7	Sololá	710	Panajachel	8	Panajachel	12	Diciembre	2023-12-31T00:00:00	2024-11-08T15:00:00	3	Temperatura mínima	22.6
81200	7	Sololá	710	Panajachel	8	Panajachel	12	Diciembre	2023-12-31T00:00:00	2024-11-08T15:00:00	5	Humedad	71
81201	7	Sololá	710	Panajachel	8	Panajachel	12	Diciembre	2023-12-31T00:00:00	2024-11-08T15:00:00	6	Velocidad del viento	4.8
81202	7	Sololá	710	Panajachel	8	Panajachel	12	Diciembre	2023-12-31T00:00:00	2024-11-08T15:00:00	7	Dirección del viento	4.83
81203	7	Sololá	710	Panajachel	8	Panajachel	12	Diciembre	2023-12-31T00:00:00	2024-11-08T15:00:00	1	Precipitación	0
81204	7	Sololá	710	Panajachel	8	Panajachel	12	Diciembre	2023-12-31T00:00:00	2024-11-08T15:00:00	8	Radiación solar	580
81205	7	Sololá	710	Panajachel	8	Panajachel	12	Diciembre	2023-12-31T00:00:00	2024-11-08T16:00:00	2	Temperatura media	23
81206	7	Sololá	710	Panajachel	8	Panajachel	12	Diciembre	2023-12-31T00:00:00	2024-11-08T16:00:00	4	Temperatura máxima	24.2
81207	7	Sololá	710	Panajachel	8	Panajachel	12	Diciembre	2023-12-31T00:00:00	2024-11-08T16:00:00	3	Temperatura mínima	22.8
81208	7	Sololá	710	Panajachel	8	Panajachel	12	Diciembre	2023-12-31T00:00:00	2024-11-08T16:00:00	5	Humedad	77
81209	7	Sololá	710	Panajachel	8	Panajachel	12	Diciembre	2023-12-31T00:00:00	2024-11-08T16:00:00	6	Velocidad del viento	3.2
81210	7	Sololá	710	Panajachel	8	Panajachel	12	Diciembre	2023-12-31T00:00:00	2024-11-08T16:00:00	7	Dirección del viento	3.22
81211	7	Sololá	710	Panajachel	8	Panajachel	12	Diciembre	2023-12-31T00:00:00	2024-11-08T16:00:00	1	Precipitación	0
81212	7	Sololá	710	Panajachel	8	Panajachel	12	Diciembre	2023-12-31T00:00:00	2024-11-08T16:00:00	8	Radiación solar	387
81213	7	Sololá	710	Panajachel	8	Panajachel	12	Diciembre	2023-12-31T00:00:00	2024-11-08T17:00:00	2	Temperatura media	21.4
81214	7	Sololá	710	Panajachel	8	Panajachel	12	Diciembre	2023-12-31T00:00:00	2024-11-08T17:00:00	4	Temperatura máxima	23.4
81215	7	Sololá	710	Panajachel	8	Panajachel	12	Diciembre	2023-12-31T00:00:00	2024-11-08T17:00:00	3	Temperatura mínima	21.4
81216	7	Sololá	710	Panajachel	8	Panajachel	12	Diciembre	2023-12-31T00:00:00	2024-11-08T17:00:00	5	Humedad	80
81217	7	Sololá	710	Panajachel	8	Panajachel	12	Diciembre	2023-12-31T00:00:00	2024-11-08T17:00:00	6	Velocidad del viento	4.8
81218	7	Sololá	710	Panajachel	8	Panajachel	12	Diciembre	2023-12-31T00:00:00	2024-11-08T17:00:00	7	Dirección del viento	4.83
81219	7	Sololá	710	Panajachel	8	Panajachel	12	Diciembre	2023-12-31T00:00:00	2024-11-08T17:00:00	1	Precipitación	0
81220	7	Sololá	710	Panajachel	8	Panajachel	12	Diciembre	2023-12-31T00:00:00	2024-11-08T17:00:00	8	Radiación solar	194
81221	7	Sololá	710	Panajachel	8	Panajachel	12	Diciembre	2023-12-31T00:00:00	2024-11-08T18:00:00	2	Temperatura media	20.3
81222	7	Sololá	710	Panajachel	8	Panajachel	12	Diciembre	2023-12-31T00:00:00	2024-11-08T18:00:00	4	Temperatura máxima	21.4
81223	7	Sololá	710	Panajachel	8	Panajachel	12	Diciembre	2023-12-31T00:00:00	2024-11-08T18:00:00	3	Temperatura mínima	20.3
81224	7	Sololá	710	Panajachel	8	Panajachel	12	Diciembre	2023-12-31T00:00:00	2024-11-08T18:00:00	5	Humedad	80
81225	7	Sololá	710	Panajachel	8	Panajachel	12	Diciembre	2023-12-31T00:00:00	2024-11-08T18:00:00	6	Velocidad del viento	6.4
81226	7	Sololá	710	Panajachel	8	Panajachel	12	Diciembre	2023-12-31T00:00:00	2024-11-08T18:00:00	7	Dirección del viento	6.44
81227	7	Sololá	710	Panajachel	8	Panajachel	12	Diciembre	2023-12-31T00:00:00	2024-11-08T18:00:00	1	Precipitación	0
81228	7	Sololá	710	Panajachel	8	Panajachel	12	Diciembre	2023-12-31T00:00:00	2024-11-08T18:00:00	8	Radiación solar	44
81229	7	Sololá	710	Panajachel	8	Panajachel	12	Diciembre	2023-12-31T00:00:00	2024-11-08T19:00:00	2	Temperatura media	19
81230	7	Sololá	710	Panajachel	8	Panajachel	12	Diciembre	2023-12-31T00:00:00	2024-11-08T19:00:00	4	Temperatura máxima	20.3
81231	7	Sololá	710	Panajachel	8	Panajachel	12	Diciembre	2023-12-31T00:00:00	2024-11-08T19:00:00	3	Temperatura mínima	19
81232	7	Sololá	710	Panajachel	8	Panajachel	12	Diciembre	2023-12-31T00:00:00	2024-11-08T19:00:00	5	Humedad	68
81233	7	Sololá	710	Panajachel	8	Panajachel	12	Diciembre	2023-12-31T00:00:00	2024-11-08T19:00:00	6	Velocidad del viento	4.8
81234	7	Sololá	710	Panajachel	8	Panajachel	12	Diciembre	2023-12-31T00:00:00	2024-11-08T19:00:00	7	Dirección del viento	4.83
81235	7	Sololá	710	Panajachel	8	Panajachel	12	Diciembre	2023-12-31T00:00:00	2024-11-08T19:00:00	1	Precipitación	0
81236	7	Sololá	710	Panajachel	8	Panajachel	12	Diciembre	2023-12-31T00:00:00	2024-11-08T19:00:00	8	Radiación solar	0
81237	7	Sololá	710	Panajachel	8	Panajachel	12	Diciembre	2023-12-31T00:00:00	2024-11-08T20:00:00	2	Temperatura media	17.9
81238	7	Sololá	710	Panajachel	8	Panajachel	12	Diciembre	2023-12-31T00:00:00	2024-11-08T20:00:00	4	Temperatura máxima	19
81239	7	Sololá	710	Panajachel	8	Panajachel	12	Diciembre	2023-12-31T00:00:00	2024-11-08T20:00:00	3	Temperatura mínima	17.9
81240	7	Sololá	710	Panajachel	8	Panajachel	12	Diciembre	2023-12-31T00:00:00	2024-11-08T20:00:00	5	Humedad	71
81241	7	Sololá	710	Panajachel	8	Panajachel	12	Diciembre	2023-12-31T00:00:00	2024-11-08T20:00:00	6	Velocidad del viento	6.4
81242	7	Sololá	710	Panajachel	8	Panajachel	12	Diciembre	2023-12-31T00:00:00	2024-11-08T20:00:00	7	Dirección del viento	6.44
81243	7	Sololá	710	Panajachel	8	Panajachel	12	Diciembre	2023-12-31T00:00:00	2024-11-08T20:00:00	1	Precipitación	0
81244	7	Sololá	710	Panajachel	8	Panajachel	12	Diciembre	2023-12-31T00:00:00	2024-11-08T20:00:00	8	Radiación solar	0
81245	7	Sololá	710	Panajachel	8	Panajachel	12	Diciembre	2023-12-31T00:00:00	2024-11-08T21:00:00	2	Temperatura media	17.5
81246	7	Sololá	710	Panajachel	8	Panajachel	12	Diciembre	2023-12-31T00:00:00	2024-11-08T21:00:00	4	Temperatura máxima	17.9
81247	7	Sololá	710	Panajachel	8	Panajachel	12	Diciembre	2023-12-31T00:00:00	2024-11-08T21:00:00	3	Temperatura mínima	17.3
81248	7	Sololá	710	Panajachel	8	Panajachel	12	Diciembre	2023-12-31T00:00:00	2024-11-08T21:00:00	5	Humedad	71
81249	7	Sololá	710	Panajachel	8	Panajachel	12	Diciembre	2023-12-31T00:00:00	2024-11-08T21:00:00	6	Velocidad del viento	4.8
81250	7	Sololá	710	Panajachel	8	Panajachel	12	Diciembre	2023-12-31T00:00:00	2024-11-08T21:00:00	7	Dirección del viento	4.83
81251	7	Sololá	710	Panajachel	8	Panajachel	12	Diciembre	2023-12-31T00:00:00	2024-11-08T21:00:00	1	Precipitación	0
81252	7	Sololá	710	Panajachel	8	Panajachel	12	Diciembre	2023-12-31T00:00:00	2024-11-08T21:00:00	8	Radiación solar	0
81253	7	Sololá	710	Panajachel	8	Panajachel	12	Diciembre	2023-12-31T00:00:00	2024-11-08T22:00:00	2	Temperatura media	17.2
81254	7	Sololá	710	Panajachel	8	Panajachel	12	Diciembre	2023-12-31T00:00:00	2024-11-08T22:00:00	4	Temperatura máxima	17.6
81255	7	Sololá	710	Panajachel	8	Panajachel	12	Diciembre	2023-12-31T00:00:00	2024-11-08T22:00:00	3	Temperatura mínima	17.1
81256	7	Sololá	710	Panajachel	8	Panajachel	12	Diciembre	2023-12-31T00:00:00	2024-11-08T22:00:00	5	Humedad	72
81257	7	Sololá	710	Panajachel	8	Panajachel	12	Diciembre	2023-12-31T00:00:00	2024-11-08T22:00:00	6	Velocidad del viento	4.8
81258	7	Sololá	710	Panajachel	8	Panajachel	12	Diciembre	2023-12-31T00:00:00	2024-11-08T22:00:00	7	Dirección del viento	4.83
81259	7	Sololá	710	Panajachel	8	Panajachel	12	Diciembre	2023-12-31T00:00:00	2024-11-08T22:00:00	1	Precipitación	0
81260	7	Sololá	710	Panajachel	8	Panajachel	12	Diciembre	2023-12-31T00:00:00	2024-11-08T22:00:00	8	Radiación solar	0
81261	7	Sololá	710	Panajachel	8	Panajachel	12	Diciembre	2023-12-31T00:00:00	2024-11-08T23:00:00	2	Temperatura media	16.8
81262	7	Sololá	710	Panajachel	8	Panajachel	12	Diciembre	2023-12-31T00:00:00	2024-11-08T23:00:00	4	Temperatura máxima	17.3
81263	7	Sololá	710	Panajachel	8	Panajachel	12	Diciembre	2023-12-31T00:00:00	2024-11-08T23:00:00	3	Temperatura mínima	16.8
81264	7	Sololá	710	Panajachel	8	Panajachel	12	Diciembre	2023-12-31T00:00:00	2024-11-08T23:00:00	5	Humedad	74
81265	7	Sololá	710	Panajachel	8	Panajachel	12	Diciembre	2023-12-31T00:00:00	2024-11-08T23:00:00	6	Velocidad del viento	4.8
81266	7	Sololá	710	Panajachel	8	Panajachel	12	Diciembre	2023-12-31T00:00:00	2024-11-08T23:00:00	7	Dirección del viento	4.83
81267	7	Sololá	710	Panajachel	8	Panajachel	12	Diciembre	2023-12-31T00:00:00	2024-11-08T23:00:00	1	Precipitación	0
81268	7	Sololá	710	Panajachel	8	Panajachel	12	Diciembre	2023-12-31T00:00:00	2024-11-08T23:00:00	8	Radiación solar	0
81269	7	Sololá	701	Sololá	4	Finca Santa Victoria	1	Enero	2023-01-01T00:00:00	2024-11-08T00:00:00	2	Temperatura media	11.6
81270	7	Sololá	701	Sololá	4	Finca Santa Victoria	1	Enero	2023-01-01T00:00:00	2024-11-08T00:00:00	4	Temperatura máxima	12.2
81271	7	Sololá	701	Sololá	4	Finca Santa Victoria	1	Enero	2023-01-01T00:00:00	2024-11-08T00:00:00	3	Temperatura mínima	11.5
81272	7	Sololá	701	Sololá	4	Finca Santa Victoria	1	Enero	2023-01-01T00:00:00	2024-11-08T00:00:00	5	Humedad	90
81273	7	Sololá	701	Sololá	4	Finca Santa Victoria	1	Enero	2023-01-01T00:00:00	2024-11-08T00:00:00	6	Velocidad del viento	1.6
81274	7	Sololá	701	Sololá	4	Finca Santa Victoria	1	Enero	2023-01-01T00:00:00	2024-11-08T00:00:00	7	Dirección del viento	1.61
81275	7	Sololá	701	Sololá	4	Finca Santa Victoria	1	Enero	2023-01-01T00:00:00	2024-11-08T00:00:00	1	Precipitación	0
81276	7	Sololá	701	Sololá	4	Finca Santa Victoria	1	Enero	2023-01-01T00:00:00	2024-11-08T00:00:00	8	Radiación solar	0
81277	7	Sololá	701	Sololá	4	Finca Santa Victoria	1	Enero	2023-01-01T00:00:00	2024-11-08T01:00:00	2	Temperatura media	11.4
81278	7	Sololá	701	Sololá	4	Finca Santa Victoria	1	Enero	2023-01-01T00:00:00	2024-11-08T01:00:00	4	Temperatura máxima	11.7
81279	7	Sololá	701	Sololá	4	Finca Santa Victoria	1	Enero	2023-01-01T00:00:00	2024-11-08T01:00:00	3	Temperatura mínima	11.3
81280	7	Sololá	701	Sololá	4	Finca Santa Victoria	1	Enero	2023-01-01T00:00:00	2024-11-08T01:00:00	5	Humedad	87
81281	7	Sololá	701	Sololá	4	Finca Santa Victoria	1	Enero	2023-01-01T00:00:00	2024-11-08T01:00:00	6	Velocidad del viento	0
81282	7	Sololá	701	Sololá	4	Finca Santa Victoria	1	Enero	2023-01-01T00:00:00	2024-11-08T01:00:00	7	Dirección del viento	0
81283	7	Sololá	701	Sololá	4	Finca Santa Victoria	1	Enero	2023-01-01T00:00:00	2024-11-08T01:00:00	1	Precipitación	0
81284	7	Sololá	701	Sololá	4	Finca Santa Victoria	1	Enero	2023-01-01T00:00:00	2024-11-08T01:00:00	8	Radiación solar	0
81285	7	Sololá	701	Sololá	4	Finca Santa Victoria	1	Enero	2023-01-01T00:00:00	2024-11-08T02:00:00	2	Temperatura media	11.3
81286	7	Sololá	701	Sololá	4	Finca Santa Victoria	1	Enero	2023-01-01T00:00:00	2024-11-08T02:00:00	4	Temperatura máxima	11.5
81287	7	Sololá	701	Sololá	4	Finca Santa Victoria	1	Enero	2023-01-01T00:00:00	2024-11-08T02:00:00	3	Temperatura mínima	11.2
81288	7	Sololá	701	Sololá	4	Finca Santa Victoria	1	Enero	2023-01-01T00:00:00	2024-11-08T02:00:00	5	Humedad	93
81289	7	Sololá	701	Sololá	4	Finca Santa Victoria	1	Enero	2023-01-01T00:00:00	2024-11-08T02:00:00	6	Velocidad del viento	1.6
81290	7	Sololá	701	Sololá	4	Finca Santa Victoria	1	Enero	2023-01-01T00:00:00	2024-11-08T02:00:00	7	Dirección del viento	1.61
81291	7	Sololá	701	Sololá	4	Finca Santa Victoria	1	Enero	2023-01-01T00:00:00	2024-11-08T02:00:00	1	Precipitación	0
81292	7	Sololá	701	Sololá	4	Finca Santa Victoria	1	Enero	2023-01-01T00:00:00	2024-11-08T02:00:00	8	Radiación solar	0
81293	7	Sololá	701	Sololá	4	Finca Santa Victoria	1	Enero	2023-01-01T00:00:00	2024-11-08T03:00:00	2	Temperatura media	10.5
81294	7	Sololá	701	Sololá	4	Finca Santa Victoria	1	Enero	2023-01-01T00:00:00	2024-11-08T03:00:00	4	Temperatura máxima	11.3
81295	7	Sololá	701	Sololá	4	Finca Santa Victoria	1	Enero	2023-01-01T00:00:00	2024-11-08T03:00:00	3	Temperatura mínima	10.4
81296	7	Sololá	701	Sololá	4	Finca Santa Victoria	1	Enero	2023-01-01T00:00:00	2024-11-08T03:00:00	5	Humedad	94
81297	7	Sololá	701	Sololá	4	Finca Santa Victoria	1	Enero	2023-01-01T00:00:00	2024-11-08T03:00:00	6	Velocidad del viento	1.6
81298	7	Sololá	701	Sololá	4	Finca Santa Victoria	1	Enero	2023-01-01T00:00:00	2024-11-08T03:00:00	7	Dirección del viento	1.61
81299	7	Sololá	701	Sololá	4	Finca Santa Victoria	1	Enero	2023-01-01T00:00:00	2024-11-08T03:00:00	1	Precipitación	0
81300	7	Sololá	701	Sololá	4	Finca Santa Victoria	1	Enero	2023-01-01T00:00:00	2024-11-08T03:00:00	8	Radiación solar	0
81301	7	Sololá	701	Sololá	4	Finca Santa Victoria	1	Enero	2023-01-01T00:00:00	2024-11-08T04:00:00	2	Temperatura media	11.2
81302	7	Sololá	701	Sololá	4	Finca Santa Victoria	1	Enero	2023-01-01T00:00:00	2024-11-08T04:00:00	4	Temperatura máxima	11.2
81303	7	Sololá	701	Sololá	4	Finca Santa Victoria	1	Enero	2023-01-01T00:00:00	2024-11-08T04:00:00	3	Temperatura mínima	10.5
81304	7	Sololá	701	Sololá	4	Finca Santa Victoria	1	Enero	2023-01-01T00:00:00	2024-11-08T04:00:00	5	Humedad	89
81305	7	Sololá	701	Sololá	4	Finca Santa Victoria	1	Enero	2023-01-01T00:00:00	2024-11-08T04:00:00	6	Velocidad del viento	1.6
81306	7	Sololá	701	Sololá	4	Finca Santa Victoria	1	Enero	2023-01-01T00:00:00	2024-11-08T04:00:00	7	Dirección del viento	1.61
81307	7	Sololá	701	Sololá	4	Finca Santa Victoria	1	Enero	2023-01-01T00:00:00	2024-11-08T04:00:00	1	Precipitación	0
81308	7	Sololá	701	Sololá	4	Finca Santa Victoria	1	Enero	2023-01-01T00:00:00	2024-11-08T04:00:00	8	Radiación solar	0
81309	7	Sololá	701	Sololá	4	Finca Santa Victoria	1	Enero	2023-01-01T00:00:00	2024-11-08T05:00:00	2	Temperatura media	11.2
81310	7	Sololá	701	Sololá	4	Finca Santa Victoria	1	Enero	2023-01-01T00:00:00	2024-11-08T05:00:00	4	Temperatura máxima	11.4
81311	7	Sololá	701	Sololá	4	Finca Santa Victoria	1	Enero	2023-01-01T00:00:00	2024-11-08T05:00:00	3	Temperatura mínima	11.2
81312	7	Sololá	701	Sololá	4	Finca Santa Victoria	1	Enero	2023-01-01T00:00:00	2024-11-08T05:00:00	5	Humedad	89
81313	7	Sololá	701	Sololá	4	Finca Santa Victoria	1	Enero	2023-01-01T00:00:00	2024-11-08T05:00:00	6	Velocidad del viento	1.6
81314	7	Sololá	701	Sololá	4	Finca Santa Victoria	1	Enero	2023-01-01T00:00:00	2024-11-08T05:00:00	7	Dirección del viento	1.61
81315	7	Sololá	701	Sololá	4	Finca Santa Victoria	1	Enero	2023-01-01T00:00:00	2024-11-08T05:00:00	1	Precipitación	0
81316	7	Sololá	701	Sololá	4	Finca Santa Victoria	1	Enero	2023-01-01T00:00:00	2024-11-08T05:00:00	8	Radiación solar	0
81317	7	Sololá	701	Sololá	4	Finca Santa Victoria	1	Enero	2023-01-01T00:00:00	2024-11-08T06:00:00	2	Temperatura media	10.4
81318	7	Sololá	701	Sololá	4	Finca Santa Victoria	1	Enero	2023-01-01T00:00:00	2024-11-08T06:00:00	4	Temperatura máxima	11.2
81319	7	Sololá	701	Sololá	4	Finca Santa Victoria	1	Enero	2023-01-01T00:00:00	2024-11-08T06:00:00	3	Temperatura mínima	10.4
81320	7	Sololá	701	Sololá	4	Finca Santa Victoria	1	Enero	2023-01-01T00:00:00	2024-11-08T06:00:00	5	Humedad	90
81321	7	Sololá	701	Sololá	4	Finca Santa Victoria	1	Enero	2023-01-01T00:00:00	2024-11-08T06:00:00	6	Velocidad del viento	1.6
81322	7	Sololá	701	Sololá	4	Finca Santa Victoria	1	Enero	2023-01-01T00:00:00	2024-11-08T06:00:00	7	Dirección del viento	1.61
81323	7	Sololá	701	Sololá	4	Finca Santa Victoria	1	Enero	2023-01-01T00:00:00	2024-11-08T06:00:00	1	Precipitación	0
81324	7	Sololá	701	Sololá	4	Finca Santa Victoria	1	Enero	2023-01-01T00:00:00	2024-11-08T06:00:00	8	Radiación solar	0
81325	7	Sololá	701	Sololá	4	Finca Santa Victoria	1	Enero	2023-01-01T00:00:00	2024-11-08T07:00:00	2	Temperatura media	10.3
81326	7	Sololá	701	Sololá	4	Finca Santa Victoria	1	Enero	2023-01-01T00:00:00	2024-11-08T07:00:00	4	Temperatura máxima	10.9
81327	7	Sololá	701	Sololá	4	Finca Santa Victoria	1	Enero	2023-01-01T00:00:00	2024-11-08T07:00:00	3	Temperatura mínima	10.3
81328	7	Sololá	701	Sololá	4	Finca Santa Victoria	1	Enero	2023-01-01T00:00:00	2024-11-08T07:00:00	5	Humedad	95
81329	7	Sololá	701	Sololá	4	Finca Santa Victoria	1	Enero	2023-01-01T00:00:00	2024-11-08T07:00:00	6	Velocidad del viento	3.2
81330	7	Sololá	701	Sololá	4	Finca Santa Victoria	1	Enero	2023-01-01T00:00:00	2024-11-08T07:00:00	7	Dirección del viento	3.22
81331	7	Sololá	701	Sololá	4	Finca Santa Victoria	1	Enero	2023-01-01T00:00:00	2024-11-08T07:00:00	1	Precipitación	0
81332	7	Sololá	701	Sololá	4	Finca Santa Victoria	1	Enero	2023-01-01T00:00:00	2024-11-08T07:00:00	8	Radiación solar	3
81333	7	Sololá	701	Sololá	4	Finca Santa Victoria	1	Enero	2023-01-01T00:00:00	2024-11-08T08:00:00	2	Temperatura media	11.1
81334	7	Sololá	701	Sololá	4	Finca Santa Victoria	1	Enero	2023-01-01T00:00:00	2024-11-08T08:00:00	4	Temperatura máxima	11.1
81335	7	Sololá	701	Sololá	4	Finca Santa Victoria	1	Enero	2023-01-01T00:00:00	2024-11-08T08:00:00	3	Temperatura mínima	10.1
81336	7	Sololá	701	Sololá	4	Finca Santa Victoria	1	Enero	2023-01-01T00:00:00	2024-11-08T08:00:00	5	Humedad	97
81337	7	Sololá	701	Sololá	4	Finca Santa Victoria	1	Enero	2023-01-01T00:00:00	2024-11-08T08:00:00	6	Velocidad del viento	1.6
81338	7	Sololá	701	Sololá	4	Finca Santa Victoria	1	Enero	2023-01-01T00:00:00	2024-11-08T08:00:00	7	Dirección del viento	1.61
81339	7	Sololá	701	Sololá	4	Finca Santa Victoria	1	Enero	2023-01-01T00:00:00	2024-11-08T08:00:00	1	Precipitación	0
81340	7	Sololá	701	Sololá	4	Finca Santa Victoria	1	Enero	2023-01-01T00:00:00	2024-11-08T08:00:00	8	Radiación solar	43
81341	7	Sololá	701	Sololá	4	Finca Santa Victoria	1	Enero	2023-01-01T00:00:00	2024-11-08T09:00:00	2	Temperatura media	15.1
81342	7	Sololá	701	Sololá	4	Finca Santa Victoria	1	Enero	2023-01-01T00:00:00	2024-11-08T09:00:00	4	Temperatura máxima	15.1
81343	7	Sololá	701	Sololá	4	Finca Santa Victoria	1	Enero	2023-01-01T00:00:00	2024-11-08T09:00:00	3	Temperatura mínima	11.2
81344	7	Sololá	701	Sololá	4	Finca Santa Victoria	1	Enero	2023-01-01T00:00:00	2024-11-08T09:00:00	5	Humedad	83
81345	7	Sololá	701	Sololá	4	Finca Santa Victoria	1	Enero	2023-01-01T00:00:00	2024-11-08T09:00:00	6	Velocidad del viento	1.6
81346	7	Sololá	701	Sololá	4	Finca Santa Victoria	1	Enero	2023-01-01T00:00:00	2024-11-08T09:00:00	7	Dirección del viento	1.61
81347	7	Sololá	701	Sololá	4	Finca Santa Victoria	1	Enero	2023-01-01T00:00:00	2024-11-08T09:00:00	1	Precipitación	0
81348	7	Sololá	701	Sololá	4	Finca Santa Victoria	1	Enero	2023-01-01T00:00:00	2024-11-08T09:00:00	8	Radiación solar	246
81349	7	Sololá	701	Sololá	4	Finca Santa Victoria	1	Enero	2023-01-01T00:00:00	2024-11-08T10:00:00	2	Temperatura media	17.6
81350	7	Sololá	701	Sololá	4	Finca Santa Victoria	1	Enero	2023-01-01T00:00:00	2024-11-08T10:00:00	4	Temperatura máxima	17.8
81351	7	Sololá	701	Sololá	4	Finca Santa Victoria	1	Enero	2023-01-01T00:00:00	2024-11-08T10:00:00	3	Temperatura mínima	14.9
81352	7	Sololá	701	Sololá	4	Finca Santa Victoria	1	Enero	2023-01-01T00:00:00	2024-11-08T10:00:00	5	Humedad	74
81353	7	Sololá	701	Sololá	4	Finca Santa Victoria	1	Enero	2023-01-01T00:00:00	2024-11-08T10:00:00	6	Velocidad del viento	1.6
81354	7	Sololá	701	Sololá	4	Finca Santa Victoria	1	Enero	2023-01-01T00:00:00	2024-11-08T10:00:00	7	Dirección del viento	1.61
81355	7	Sololá	701	Sololá	4	Finca Santa Victoria	1	Enero	2023-01-01T00:00:00	2024-11-08T10:00:00	1	Precipitación	0
81356	7	Sololá	701	Sololá	4	Finca Santa Victoria	1	Enero	2023-01-01T00:00:00	2024-11-08T10:00:00	8	Radiación solar	533
81357	7	Sololá	701	Sololá	4	Finca Santa Victoria	1	Enero	2023-01-01T00:00:00	2024-11-08T11:00:00	2	Temperatura media	17.3
81358	7	Sololá	701	Sololá	4	Finca Santa Victoria	1	Enero	2023-01-01T00:00:00	2024-11-08T11:00:00	4	Temperatura máxima	18.3
81359	7	Sololá	701	Sololá	4	Finca Santa Victoria	1	Enero	2023-01-01T00:00:00	2024-11-08T11:00:00	3	Temperatura mínima	16.9
81360	7	Sololá	701	Sololá	4	Finca Santa Victoria	1	Enero	2023-01-01T00:00:00	2024-11-08T11:00:00	5	Humedad	77
81361	7	Sololá	701	Sololá	4	Finca Santa Victoria	1	Enero	2023-01-01T00:00:00	2024-11-08T11:00:00	6	Velocidad del viento	1.6
81362	7	Sololá	701	Sololá	4	Finca Santa Victoria	1	Enero	2023-01-01T00:00:00	2024-11-08T11:00:00	7	Dirección del viento	1.61
81363	7	Sololá	701	Sololá	4	Finca Santa Victoria	1	Enero	2023-01-01T00:00:00	2024-11-08T11:00:00	1	Precipitación	0
81364	7	Sololá	701	Sololá	4	Finca Santa Victoria	1	Enero	2023-01-01T00:00:00	2024-11-08T11:00:00	8	Radiación solar	301
81365	7	Sololá	701	Sololá	4	Finca Santa Victoria	1	Enero	2023-01-01T00:00:00	2024-11-08T12:00:00	2	Temperatura media	17.3
81366	7	Sololá	701	Sololá	4	Finca Santa Victoria	1	Enero	2023-01-01T00:00:00	2024-11-08T12:00:00	4	Temperatura máxima	17.9
81367	7	Sololá	701	Sololá	4	Finca Santa Victoria	1	Enero	2023-01-01T00:00:00	2024-11-08T12:00:00	3	Temperatura mínima	16.7
81368	7	Sololá	701	Sololá	4	Finca Santa Victoria	1	Enero	2023-01-01T00:00:00	2024-11-08T12:00:00	5	Humedad	79
81369	7	Sololá	701	Sololá	4	Finca Santa Victoria	1	Enero	2023-01-01T00:00:00	2024-11-08T12:00:00	6	Velocidad del viento	1.6
81370	7	Sololá	701	Sololá	4	Finca Santa Victoria	1	Enero	2023-01-01T00:00:00	2024-11-08T12:00:00	7	Dirección del viento	1.61
81371	7	Sololá	701	Sololá	4	Finca Santa Victoria	1	Enero	2023-01-01T00:00:00	2024-11-08T12:00:00	1	Precipitación	0
81372	7	Sololá	701	Sololá	4	Finca Santa Victoria	1	Enero	2023-01-01T00:00:00	2024-11-08T12:00:00	8	Radiación solar	296
81373	7	Sololá	701	Sololá	4	Finca Santa Victoria	1	Enero	2023-01-01T00:00:00	2024-11-08T13:00:00	2	Temperatura media	17.6
81374	7	Sololá	701	Sololá	4	Finca Santa Victoria	1	Enero	2023-01-01T00:00:00	2024-11-08T13:00:00	4	Temperatura máxima	17.6
81375	7	Sololá	701	Sololá	4	Finca Santa Victoria	1	Enero	2023-01-01T00:00:00	2024-11-08T13:00:00	3	Temperatura mínima	16.7
81376	7	Sololá	701	Sololá	4	Finca Santa Victoria	1	Enero	2023-01-01T00:00:00	2024-11-08T13:00:00	5	Humedad	85
81377	7	Sololá	701	Sololá	4	Finca Santa Victoria	1	Enero	2023-01-01T00:00:00	2024-11-08T13:00:00	6	Velocidad del viento	3.2
81378	7	Sololá	701	Sololá	4	Finca Santa Victoria	1	Enero	2023-01-01T00:00:00	2024-11-08T13:00:00	7	Dirección del viento	3.22
81379	7	Sololá	701	Sololá	4	Finca Santa Victoria	1	Enero	2023-01-01T00:00:00	2024-11-08T13:00:00	1	Precipitación	0
81380	7	Sololá	701	Sololá	4	Finca Santa Victoria	1	Enero	2023-01-01T00:00:00	2024-11-08T13:00:00	8	Radiación solar	284
81381	7	Sololá	701	Sololá	4	Finca Santa Victoria	1	Enero	2023-01-01T00:00:00	2024-11-08T14:00:00	2	Temperatura media	16.3
81382	7	Sololá	701	Sololá	4	Finca Santa Victoria	1	Enero	2023-01-01T00:00:00	2024-11-08T14:00:00	4	Temperatura máxima	17.9
81383	7	Sololá	701	Sololá	4	Finca Santa Victoria	1	Enero	2023-01-01T00:00:00	2024-11-08T14:00:00	3	Temperatura mínima	16.3
81384	7	Sololá	701	Sololá	4	Finca Santa Victoria	1	Enero	2023-01-01T00:00:00	2024-11-08T14:00:00	5	Humedad	90
81385	7	Sololá	701	Sololá	4	Finca Santa Victoria	1	Enero	2023-01-01T00:00:00	2024-11-08T14:00:00	6	Velocidad del viento	3.2
81386	7	Sololá	701	Sololá	4	Finca Santa Victoria	1	Enero	2023-01-01T00:00:00	2024-11-08T14:00:00	7	Dirección del viento	3.22
81387	7	Sololá	701	Sololá	4	Finca Santa Victoria	1	Enero	2023-01-01T00:00:00	2024-11-08T14:00:00	1	Precipitación	0
81388	7	Sololá	701	Sololá	4	Finca Santa Victoria	1	Enero	2023-01-01T00:00:00	2024-11-08T14:00:00	8	Radiación solar	163
81389	7	Sololá	701	Sololá	4	Finca Santa Victoria	1	Enero	2023-01-01T00:00:00	2024-11-08T15:00:00	2	Temperatura media	15.7
81390	7	Sololá	701	Sololá	4	Finca Santa Victoria	1	Enero	2023-01-01T00:00:00	2024-11-08T15:00:00	4	Temperatura máxima	16.3
81391	7	Sololá	701	Sololá	4	Finca Santa Victoria	1	Enero	2023-01-01T00:00:00	2024-11-08T15:00:00	3	Temperatura mínima	15.6
81392	7	Sololá	701	Sololá	4	Finca Santa Victoria	1	Enero	2023-01-01T00:00:00	2024-11-08T15:00:00	5	Humedad	93
81393	7	Sololá	701	Sololá	4	Finca Santa Victoria	1	Enero	2023-01-01T00:00:00	2024-11-08T15:00:00	6	Velocidad del viento	3.2
81394	7	Sololá	701	Sololá	4	Finca Santa Victoria	1	Enero	2023-01-01T00:00:00	2024-11-08T15:00:00	7	Dirección del viento	3.22
81395	7	Sololá	701	Sololá	4	Finca Santa Victoria	1	Enero	2023-01-01T00:00:00	2024-11-08T15:00:00	1	Precipitación	0
81396	7	Sololá	701	Sololá	4	Finca Santa Victoria	1	Enero	2023-01-01T00:00:00	2024-11-08T15:00:00	8	Radiación solar	112
81397	7	Sololá	701	Sololá	4	Finca Santa Victoria	1	Enero	2023-01-01T00:00:00	2024-11-08T16:00:00	2	Temperatura media	15.2
81398	7	Sololá	701	Sololá	4	Finca Santa Victoria	1	Enero	2023-01-01T00:00:00	2024-11-08T16:00:00	4	Temperatura máxima	15.7
81399	7	Sololá	701	Sololá	4	Finca Santa Victoria	1	Enero	2023-01-01T00:00:00	2024-11-08T16:00:00	3	Temperatura mínima	15.1
81400	7	Sololá	701	Sololá	4	Finca Santa Victoria	1	Enero	2023-01-01T00:00:00	2024-11-08T16:00:00	5	Humedad	95
81401	7	Sololá	701	Sololá	4	Finca Santa Victoria	1	Enero	2023-01-01T00:00:00	2024-11-08T16:00:00	6	Velocidad del viento	3.2
81402	7	Sololá	701	Sololá	4	Finca Santa Victoria	1	Enero	2023-01-01T00:00:00	2024-11-08T16:00:00	7	Dirección del viento	3.22
81403	7	Sololá	701	Sololá	4	Finca Santa Victoria	1	Enero	2023-01-01T00:00:00	2024-11-08T16:00:00	1	Precipitación	0
81404	7	Sololá	701	Sololá	4	Finca Santa Victoria	1	Enero	2023-01-01T00:00:00	2024-11-08T16:00:00	8	Radiación solar	54
81405	7	Sololá	701	Sololá	4	Finca Santa Victoria	1	Enero	2023-01-01T00:00:00	2024-11-08T17:00:00	2	Temperatura media	14.8
81406	7	Sololá	701	Sololá	4	Finca Santa Victoria	1	Enero	2023-01-01T00:00:00	2024-11-08T17:00:00	4	Temperatura máxima	15.2
81407	7	Sololá	701	Sololá	4	Finca Santa Victoria	1	Enero	2023-01-01T00:00:00	2024-11-08T17:00:00	3	Temperatura mínima	14.8
81408	7	Sololá	701	Sololá	4	Finca Santa Victoria	1	Enero	2023-01-01T00:00:00	2024-11-08T17:00:00	5	Humedad	96
81409	7	Sololá	701	Sololá	4	Finca Santa Victoria	1	Enero	2023-01-01T00:00:00	2024-11-08T17:00:00	6	Velocidad del viento	1.6
81410	7	Sololá	701	Sololá	4	Finca Santa Victoria	1	Enero	2023-01-01T00:00:00	2024-11-08T17:00:00	7	Dirección del viento	1.61
81411	7	Sololá	701	Sololá	4	Finca Santa Victoria	1	Enero	2023-01-01T00:00:00	2024-11-08T17:00:00	1	Precipitación	0
81412	7	Sololá	701	Sololá	4	Finca Santa Victoria	1	Enero	2023-01-01T00:00:00	2024-11-08T17:00:00	8	Radiación solar	29
81413	7	Sololá	701	Sololá	4	Finca Santa Victoria	1	Enero	2023-01-01T00:00:00	2024-11-08T18:00:00	2	Temperatura media	14.2
81414	7	Sololá	701	Sololá	4	Finca Santa Victoria	1	Enero	2023-01-01T00:00:00	2024-11-08T18:00:00	4	Temperatura máxima	14.8
81415	7	Sololá	701	Sololá	4	Finca Santa Victoria	1	Enero	2023-01-01T00:00:00	2024-11-08T18:00:00	3	Temperatura mínima	14.2
81416	7	Sololá	701	Sololá	4	Finca Santa Victoria	1	Enero	2023-01-01T00:00:00	2024-11-08T18:00:00	5	Humedad	96
81417	7	Sololá	701	Sololá	4	Finca Santa Victoria	1	Enero	2023-01-01T00:00:00	2024-11-08T18:00:00	6	Velocidad del viento	1.6
81418	7	Sololá	701	Sololá	4	Finca Santa Victoria	1	Enero	2023-01-01T00:00:00	2024-11-08T18:00:00	7	Dirección del viento	1.61
81419	7	Sololá	701	Sololá	4	Finca Santa Victoria	1	Enero	2023-01-01T00:00:00	2024-11-08T18:00:00	1	Precipitación	0
81420	7	Sololá	701	Sololá	4	Finca Santa Victoria	1	Enero	2023-01-01T00:00:00	2024-11-08T18:00:00	8	Radiación solar	8
81421	7	Sololá	701	Sololá	4	Finca Santa Victoria	1	Enero	2023-01-01T00:00:00	2024-11-08T19:00:00	2	Temperatura media	12.9
81422	7	Sololá	701	Sololá	4	Finca Santa Victoria	1	Enero	2023-01-01T00:00:00	2024-11-08T19:00:00	4	Temperatura máxima	14.2
81423	7	Sololá	701	Sololá	4	Finca Santa Victoria	1	Enero	2023-01-01T00:00:00	2024-11-08T19:00:00	3	Temperatura mínima	12.9
81424	7	Sololá	701	Sololá	4	Finca Santa Victoria	1	Enero	2023-01-01T00:00:00	2024-11-08T19:00:00	5	Humedad	93
81425	7	Sololá	701	Sololá	4	Finca Santa Victoria	1	Enero	2023-01-01T00:00:00	2024-11-08T19:00:00	6	Velocidad del viento	0
81426	7	Sololá	701	Sololá	4	Finca Santa Victoria	1	Enero	2023-01-01T00:00:00	2024-11-08T19:00:00	7	Dirección del viento	0
81427	7	Sololá	701	Sololá	4	Finca Santa Victoria	1	Enero	2023-01-01T00:00:00	2024-11-08T19:00:00	1	Precipitación	0
81428	7	Sololá	701	Sololá	4	Finca Santa Victoria	1	Enero	2023-01-01T00:00:00	2024-11-08T19:00:00	8	Radiación solar	0
81429	7	Sololá	701	Sololá	4	Finca Santa Victoria	1	Enero	2023-01-01T00:00:00	2024-11-08T20:00:00	2	Temperatura media	12.4
81430	7	Sololá	701	Sololá	4	Finca Santa Victoria	1	Enero	2023-01-01T00:00:00	2024-11-08T20:00:00	4	Temperatura máxima	12.9
81431	7	Sololá	701	Sololá	4	Finca Santa Victoria	1	Enero	2023-01-01T00:00:00	2024-11-08T20:00:00	3	Temperatura mínima	12.4
81432	7	Sololá	701	Sololá	4	Finca Santa Victoria	1	Enero	2023-01-01T00:00:00	2024-11-08T20:00:00	5	Humedad	91
81433	7	Sololá	701	Sololá	4	Finca Santa Victoria	1	Enero	2023-01-01T00:00:00	2024-11-08T20:00:00	6	Velocidad del viento	0
81434	7	Sololá	701	Sololá	4	Finca Santa Victoria	1	Enero	2023-01-01T00:00:00	2024-11-08T20:00:00	7	Dirección del viento	0
81435	7	Sololá	701	Sololá	4	Finca Santa Victoria	1	Enero	2023-01-01T00:00:00	2024-11-08T20:00:00	1	Precipitación	0
81436	7	Sololá	701	Sololá	4	Finca Santa Victoria	1	Enero	2023-01-01T00:00:00	2024-11-08T20:00:00	8	Radiación solar	0
81437	7	Sololá	701	Sololá	4	Finca Santa Victoria	1	Enero	2023-01-01T00:00:00	2024-11-08T21:00:00	2	Temperatura media	12.1
81438	7	Sololá	701	Sololá	4	Finca Santa Victoria	1	Enero	2023-01-01T00:00:00	2024-11-08T21:00:00	4	Temperatura máxima	12.4
81439	7	Sololá	701	Sololá	4	Finca Santa Victoria	1	Enero	2023-01-01T00:00:00	2024-11-08T21:00:00	3	Temperatura mínima	12.1
81440	7	Sololá	701	Sololá	4	Finca Santa Victoria	1	Enero	2023-01-01T00:00:00	2024-11-08T21:00:00	5	Humedad	93
81441	7	Sololá	701	Sololá	4	Finca Santa Victoria	1	Enero	2023-01-01T00:00:00	2024-11-08T21:00:00	6	Velocidad del viento	1.6
81442	7	Sololá	701	Sololá	4	Finca Santa Victoria	1	Enero	2023-01-01T00:00:00	2024-11-08T21:00:00	7	Dirección del viento	1.61
81443	7	Sololá	701	Sololá	4	Finca Santa Victoria	1	Enero	2023-01-01T00:00:00	2024-11-08T21:00:00	1	Precipitación	0
81444	7	Sololá	701	Sololá	4	Finca Santa Victoria	1	Enero	2023-01-01T00:00:00	2024-11-08T21:00:00	8	Radiación solar	0
81445	7	Sololá	701	Sololá	4	Finca Santa Victoria	1	Enero	2023-01-01T00:00:00	2024-11-08T22:00:00	2	Temperatura media	11.8
81446	7	Sololá	701	Sololá	4	Finca Santa Victoria	1	Enero	2023-01-01T00:00:00	2024-11-08T22:00:00	4	Temperatura máxima	12.1
81447	7	Sololá	701	Sololá	4	Finca Santa Victoria	1	Enero	2023-01-01T00:00:00	2024-11-08T22:00:00	3	Temperatura mínima	11.7
81448	7	Sololá	701	Sololá	4	Finca Santa Victoria	1	Enero	2023-01-01T00:00:00	2024-11-08T22:00:00	5	Humedad	96
81449	7	Sololá	701	Sololá	4	Finca Santa Victoria	1	Enero	2023-01-01T00:00:00	2024-11-08T22:00:00	6	Velocidad del viento	1.6
81450	7	Sololá	701	Sololá	4	Finca Santa Victoria	1	Enero	2023-01-01T00:00:00	2024-11-08T22:00:00	7	Dirección del viento	1.61
81451	7	Sololá	701	Sololá	4	Finca Santa Victoria	1	Enero	2023-01-01T00:00:00	2024-11-08T22:00:00	1	Precipitación	0
81452	7	Sololá	701	Sololá	4	Finca Santa Victoria	1	Enero	2023-01-01T00:00:00	2024-11-08T22:00:00	8	Radiación solar	0
81453	7	Sololá	701	Sololá	4	Finca Santa Victoria	1	Enero	2023-01-01T00:00:00	2024-11-08T23:00:00	2	Temperatura media	11.4
81454	7	Sololá	701	Sololá	4	Finca Santa Victoria	1	Enero	2023-01-01T00:00:00	2024-11-08T23:00:00	4	Temperatura máxima	11.8
81455	7	Sololá	701	Sololá	4	Finca Santa Victoria	1	Enero	2023-01-01T00:00:00	2024-11-08T23:00:00	3	Temperatura mínima	11.4
81456	7	Sololá	701	Sololá	4	Finca Santa Victoria	1	Enero	2023-01-01T00:00:00	2024-11-08T23:00:00	5	Humedad	97
81457	7	Sololá	701	Sololá	4	Finca Santa Victoria	1	Enero	2023-01-01T00:00:00	2024-11-08T23:00:00	6	Velocidad del viento	0
81458	7	Sololá	701	Sololá	4	Finca Santa Victoria	1	Enero	2023-01-01T00:00:00	2024-11-08T23:00:00	7	Dirección del viento	0
81459	7	Sololá	701	Sololá	4	Finca Santa Victoria	1	Enero	2023-01-01T00:00:00	2024-11-08T23:00:00	1	Precipitación	0
81460	7	Sololá	701	Sololá	4	Finca Santa Victoria	1	Enero	2023-01-01T00:00:00	2024-11-08T23:00:00	8	Radiación solar	0
81461	7	Sololá	701	Sololá	4	Finca Santa Victoria	1	Enero	2023-02-01T00:00:00	2024-11-08T00:00:00	2	Temperatura media	10.9
81462	7	Sololá	701	Sololá	4	Finca Santa Victoria	1	Enero	2023-02-01T00:00:00	2024-11-08T00:00:00	4	Temperatura máxima	11.4
81463	7	Sololá	701	Sololá	4	Finca Santa Victoria	1	Enero	2023-02-01T00:00:00	2024-11-08T00:00:00	3	Temperatura mínima	10.9
81464	7	Sololá	701	Sololá	4	Finca Santa Victoria	1	Enero	2023-02-01T00:00:00	2024-11-08T00:00:00	5	Humedad	97
81465	7	Sololá	701	Sololá	4	Finca Santa Victoria	1	Enero	2023-02-01T00:00:00	2024-11-08T00:00:00	6	Velocidad del viento	0
81466	7	Sololá	701	Sololá	4	Finca Santa Victoria	1	Enero	2023-02-01T00:00:00	2024-11-08T00:00:00	7	Dirección del viento	0
81467	7	Sololá	701	Sololá	4	Finca Santa Victoria	1	Enero	2023-02-01T00:00:00	2024-11-08T00:00:00	1	Precipitación	0
81468	7	Sololá	701	Sololá	4	Finca Santa Victoria	1	Enero	2023-02-01T00:00:00	2024-11-08T00:00:00	8	Radiación solar	0
81469	7	Sololá	701	Sololá	4	Finca Santa Victoria	1	Enero	2023-02-01T00:00:00	2024-11-08T01:00:00	2	Temperatura media	10.3
81470	7	Sololá	701	Sololá	4	Finca Santa Victoria	1	Enero	2023-02-01T00:00:00	2024-11-08T01:00:00	4	Temperatura máxima	10.9
81471	7	Sololá	701	Sololá	4	Finca Santa Victoria	1	Enero	2023-02-01T00:00:00	2024-11-08T01:00:00	3	Temperatura mínima	10.3
81472	7	Sololá	701	Sololá	4	Finca Santa Victoria	1	Enero	2023-02-01T00:00:00	2024-11-08T01:00:00	5	Humedad	96
81473	7	Sololá	701	Sololá	4	Finca Santa Victoria	1	Enero	2023-02-01T00:00:00	2024-11-08T01:00:00	6	Velocidad del viento	1.6
81474	7	Sololá	701	Sololá	4	Finca Santa Victoria	1	Enero	2023-02-01T00:00:00	2024-11-08T01:00:00	7	Dirección del viento	1.61
81475	7	Sololá	701	Sololá	4	Finca Santa Victoria	1	Enero	2023-02-01T00:00:00	2024-11-08T01:00:00	1	Precipitación	0
81476	7	Sololá	701	Sololá	4	Finca Santa Victoria	1	Enero	2023-02-01T00:00:00	2024-11-08T01:00:00	8	Radiación solar	0
81477	7	Sololá	701	Sololá	4	Finca Santa Victoria	1	Enero	2023-02-01T00:00:00	2024-11-08T02:00:00	2	Temperatura media	10.3
81478	7	Sololá	701	Sololá	4	Finca Santa Victoria	1	Enero	2023-02-01T00:00:00	2024-11-08T02:00:00	4	Temperatura máxima	10.3
81479	7	Sololá	701	Sololá	4	Finca Santa Victoria	1	Enero	2023-02-01T00:00:00	2024-11-08T02:00:00	3	Temperatura mínima	10
81480	7	Sololá	701	Sololá	4	Finca Santa Victoria	1	Enero	2023-02-01T00:00:00	2024-11-08T02:00:00	5	Humedad	93
81481	7	Sololá	701	Sololá	4	Finca Santa Victoria	1	Enero	2023-02-01T00:00:00	2024-11-08T02:00:00	6	Velocidad del viento	1.6
81482	7	Sololá	701	Sololá	4	Finca Santa Victoria	1	Enero	2023-02-01T00:00:00	2024-11-08T02:00:00	7	Dirección del viento	1.61
81483	7	Sololá	701	Sololá	4	Finca Santa Victoria	1	Enero	2023-02-01T00:00:00	2024-11-08T02:00:00	1	Precipitación	0
81484	7	Sololá	701	Sololá	4	Finca Santa Victoria	1	Enero	2023-02-01T00:00:00	2024-11-08T02:00:00	8	Radiación solar	0
81485	7	Sololá	701	Sololá	4	Finca Santa Victoria	1	Enero	2023-02-01T00:00:00	2024-11-08T03:00:00	2	Temperatura media	10.2
81486	7	Sololá	701	Sololá	4	Finca Santa Victoria	1	Enero	2023-02-01T00:00:00	2024-11-08T03:00:00	4	Temperatura máxima	10.3
81487	7	Sololá	701	Sololá	4	Finca Santa Victoria	1	Enero	2023-02-01T00:00:00	2024-11-08T03:00:00	3	Temperatura mínima	10.1
81488	7	Sololá	701	Sololá	4	Finca Santa Victoria	1	Enero	2023-02-01T00:00:00	2024-11-08T03:00:00	5	Humedad	95
81489	7	Sololá	701	Sololá	4	Finca Santa Victoria	1	Enero	2023-02-01T00:00:00	2024-11-08T03:00:00	6	Velocidad del viento	1.6
81490	7	Sololá	701	Sololá	4	Finca Santa Victoria	1	Enero	2023-02-01T00:00:00	2024-11-08T03:00:00	7	Dirección del viento	1.61
81491	7	Sololá	701	Sololá	4	Finca Santa Victoria	1	Enero	2023-02-01T00:00:00	2024-11-08T03:00:00	1	Precipitación	0
81492	7	Sololá	701	Sololá	4	Finca Santa Victoria	1	Enero	2023-02-01T00:00:00	2024-11-08T03:00:00	8	Radiación solar	0
81493	7	Sololá	701	Sololá	4	Finca Santa Victoria	1	Enero	2023-02-01T00:00:00	2024-11-08T04:00:00	2	Temperatura media	8.9
81494	7	Sololá	701	Sololá	4	Finca Santa Victoria	1	Enero	2023-02-01T00:00:00	2024-11-08T04:00:00	4	Temperatura máxima	10.2
81495	7	Sololá	701	Sololá	4	Finca Santa Victoria	1	Enero	2023-02-01T00:00:00	2024-11-08T04:00:00	3	Temperatura mínima	8.9
81496	7	Sololá	701	Sololá	4	Finca Santa Victoria	1	Enero	2023-02-01T00:00:00	2024-11-08T04:00:00	5	Humedad	97
81497	7	Sololá	701	Sololá	4	Finca Santa Victoria	1	Enero	2023-02-01T00:00:00	2024-11-08T04:00:00	6	Velocidad del viento	1.6
81498	7	Sololá	701	Sololá	4	Finca Santa Victoria	1	Enero	2023-02-01T00:00:00	2024-11-08T04:00:00	7	Dirección del viento	1.61
81499	7	Sololá	701	Sololá	4	Finca Santa Victoria	1	Enero	2023-02-01T00:00:00	2024-11-08T04:00:00	1	Precipitación	0
81500	7	Sololá	701	Sololá	4	Finca Santa Victoria	1	Enero	2023-02-01T00:00:00	2024-11-08T04:00:00	8	Radiación solar	0
81501	7	Sololá	701	Sololá	4	Finca Santa Victoria	1	Enero	2023-02-01T00:00:00	2024-11-08T05:00:00	2	Temperatura media	9.3
81502	7	Sololá	701	Sololá	4	Finca Santa Victoria	1	Enero	2023-02-01T00:00:00	2024-11-08T05:00:00	4	Temperatura máxima	9.3
81503	7	Sololá	701	Sololá	4	Finca Santa Victoria	1	Enero	2023-02-01T00:00:00	2024-11-08T05:00:00	3	Temperatura mínima	8.6
81504	7	Sololá	701	Sololá	4	Finca Santa Victoria	1	Enero	2023-02-01T00:00:00	2024-11-08T05:00:00	5	Humedad	98
81505	7	Sololá	701	Sololá	4	Finca Santa Victoria	1	Enero	2023-02-01T00:00:00	2024-11-08T05:00:00	6	Velocidad del viento	1.6
81506	7	Sololá	701	Sololá	4	Finca Santa Victoria	1	Enero	2023-02-01T00:00:00	2024-11-08T05:00:00	7	Dirección del viento	1.61
81507	7	Sololá	701	Sololá	4	Finca Santa Victoria	1	Enero	2023-02-01T00:00:00	2024-11-08T05:00:00	1	Precipitación	0
81508	7	Sololá	701	Sololá	4	Finca Santa Victoria	1	Enero	2023-02-01T00:00:00	2024-11-08T05:00:00	8	Radiación solar	0
81509	7	Sololá	701	Sololá	4	Finca Santa Victoria	1	Enero	2023-02-01T00:00:00	2024-11-08T06:00:00	2	Temperatura media	9.3
81510	7	Sololá	701	Sololá	4	Finca Santa Victoria	1	Enero	2023-02-01T00:00:00	2024-11-08T06:00:00	4	Temperatura máxima	9.3
81511	7	Sololá	701	Sololá	4	Finca Santa Victoria	1	Enero	2023-02-01T00:00:00	2024-11-08T06:00:00	3	Temperatura mínima	8.6
81512	7	Sololá	701	Sololá	4	Finca Santa Victoria	1	Enero	2023-02-01T00:00:00	2024-11-08T06:00:00	5	Humedad	90
81513	7	Sololá	701	Sololá	4	Finca Santa Victoria	1	Enero	2023-02-01T00:00:00	2024-11-08T06:00:00	6	Velocidad del viento	1.6
81514	7	Sololá	701	Sololá	4	Finca Santa Victoria	1	Enero	2023-02-01T00:00:00	2024-11-08T06:00:00	7	Dirección del viento	1.61
81515	7	Sololá	701	Sololá	4	Finca Santa Victoria	1	Enero	2023-02-01T00:00:00	2024-11-08T06:00:00	1	Precipitación	0
81516	7	Sololá	701	Sololá	4	Finca Santa Victoria	1	Enero	2023-02-01T00:00:00	2024-11-08T06:00:00	8	Radiación solar	0
81517	7	Sololá	701	Sololá	4	Finca Santa Victoria	1	Enero	2023-02-01T00:00:00	2024-11-08T07:00:00	2	Temperatura media	10.7
81518	7	Sololá	701	Sololá	4	Finca Santa Victoria	1	Enero	2023-02-01T00:00:00	2024-11-08T07:00:00	4	Temperatura máxima	10.7
81519	7	Sololá	701	Sololá	4	Finca Santa Victoria	1	Enero	2023-02-01T00:00:00	2024-11-08T07:00:00	3	Temperatura mínima	9.3
81520	7	Sololá	701	Sololá	4	Finca Santa Victoria	1	Enero	2023-02-01T00:00:00	2024-11-08T07:00:00	5	Humedad	82
81521	7	Sololá	701	Sololá	4	Finca Santa Victoria	1	Enero	2023-02-01T00:00:00	2024-11-08T07:00:00	6	Velocidad del viento	1.6
81522	7	Sololá	701	Sololá	4	Finca Santa Victoria	1	Enero	2023-02-01T00:00:00	2024-11-08T07:00:00	7	Dirección del viento	1.61
81523	7	Sololá	701	Sololá	4	Finca Santa Victoria	1	Enero	2023-02-01T00:00:00	2024-11-08T07:00:00	1	Precipitación	0
81524	7	Sololá	701	Sololá	4	Finca Santa Victoria	1	Enero	2023-02-01T00:00:00	2024-11-08T07:00:00	8	Radiación solar	4
81525	7	Sololá	701	Sololá	4	Finca Santa Victoria	1	Enero	2023-02-01T00:00:00	2024-11-08T08:00:00	2	Temperatura media	12.4
81526	7	Sololá	701	Sololá	4	Finca Santa Victoria	1	Enero	2023-02-01T00:00:00	2024-11-08T08:00:00	4	Temperatura máxima	12.4
81527	7	Sololá	701	Sololá	4	Finca Santa Victoria	1	Enero	2023-02-01T00:00:00	2024-11-08T08:00:00	3	Temperatura mínima	10.7
81528	7	Sololá	701	Sololá	4	Finca Santa Victoria	1	Enero	2023-02-01T00:00:00	2024-11-08T08:00:00	5	Humedad	81
81529	7	Sololá	701	Sololá	4	Finca Santa Victoria	1	Enero	2023-02-01T00:00:00	2024-11-08T08:00:00	6	Velocidad del viento	1.6
81530	7	Sololá	701	Sololá	4	Finca Santa Victoria	1	Enero	2023-02-01T00:00:00	2024-11-08T08:00:00	7	Dirección del viento	1.61
81531	7	Sololá	701	Sololá	4	Finca Santa Victoria	1	Enero	2023-02-01T00:00:00	2024-11-08T08:00:00	1	Precipitación	0
81532	7	Sololá	701	Sololá	4	Finca Santa Victoria	1	Enero	2023-02-01T00:00:00	2024-11-08T08:00:00	8	Radiación solar	38
81533	7	Sololá	701	Sololá	4	Finca Santa Victoria	1	Enero	2023-02-01T00:00:00	2024-11-08T09:00:00	2	Temperatura media	14.3
81534	7	Sololá	701	Sololá	4	Finca Santa Victoria	1	Enero	2023-02-01T00:00:00	2024-11-08T09:00:00	4	Temperatura máxima	14.4
81535	7	Sololá	701	Sololá	4	Finca Santa Victoria	1	Enero	2023-02-01T00:00:00	2024-11-08T09:00:00	3	Temperatura mínima	12.4
81536	7	Sololá	701	Sololá	4	Finca Santa Victoria	1	Enero	2023-02-01T00:00:00	2024-11-08T09:00:00	5	Humedad	78
81537	7	Sololá	701	Sololá	4	Finca Santa Victoria	1	Enero	2023-02-01T00:00:00	2024-11-08T09:00:00	6	Velocidad del viento	1.6
81538	7	Sololá	701	Sololá	4	Finca Santa Victoria	1	Enero	2023-02-01T00:00:00	2024-11-08T09:00:00	7	Dirección del viento	1.61
81539	7	Sololá	701	Sololá	4	Finca Santa Victoria	1	Enero	2023-02-01T00:00:00	2024-11-08T09:00:00	1	Precipitación	0
81540	7	Sololá	701	Sololá	4	Finca Santa Victoria	1	Enero	2023-02-01T00:00:00	2024-11-08T09:00:00	8	Radiación solar	304
81541	7	Sololá	701	Sololá	4	Finca Santa Victoria	1	Enero	2023-02-01T00:00:00	2024-11-08T10:00:00	2	Temperatura media	15.9
81542	7	Sololá	701	Sololá	4	Finca Santa Victoria	1	Enero	2023-02-01T00:00:00	2024-11-08T10:00:00	4	Temperatura máxima	16.1
81543	7	Sololá	701	Sololá	4	Finca Santa Victoria	1	Enero	2023-02-01T00:00:00	2024-11-08T10:00:00	3	Temperatura mínima	14.3
81544	7	Sololá	701	Sololá	4	Finca Santa Victoria	1	Enero	2023-02-01T00:00:00	2024-11-08T10:00:00	5	Humedad	79
81545	7	Sololá	701	Sololá	4	Finca Santa Victoria	1	Enero	2023-02-01T00:00:00	2024-11-08T10:00:00	6	Velocidad del viento	3.2
81546	7	Sololá	701	Sololá	4	Finca Santa Victoria	1	Enero	2023-02-01T00:00:00	2024-11-08T10:00:00	7	Dirección del viento	3.22
81547	7	Sololá	701	Sololá	4	Finca Santa Victoria	1	Enero	2023-02-01T00:00:00	2024-11-08T10:00:00	1	Precipitación	0
81548	7	Sololá	701	Sololá	4	Finca Santa Victoria	1	Enero	2023-02-01T00:00:00	2024-11-08T10:00:00	8	Radiación solar	607
81549	7	Sololá	701	Sololá	4	Finca Santa Victoria	1	Enero	2023-02-01T00:00:00	2024-11-08T11:00:00	2	Temperatura media	15.4
81550	7	Sololá	701	Sololá	4	Finca Santa Victoria	1	Enero	2023-02-01T00:00:00	2024-11-08T11:00:00	4	Temperatura máxima	15.9
81551	7	Sololá	701	Sololá	4	Finca Santa Victoria	1	Enero	2023-02-01T00:00:00	2024-11-08T11:00:00	3	Temperatura mínima	15.2
81552	7	Sololá	701	Sololá	4	Finca Santa Victoria	1	Enero	2023-02-01T00:00:00	2024-11-08T11:00:00	5	Humedad	83
81553	7	Sololá	701	Sololá	4	Finca Santa Victoria	1	Enero	2023-02-01T00:00:00	2024-11-08T11:00:00	6	Velocidad del viento	4.8
81554	7	Sololá	701	Sololá	4	Finca Santa Victoria	1	Enero	2023-02-01T00:00:00	2024-11-08T11:00:00	7	Dirección del viento	4.83
81555	7	Sololá	701	Sololá	4	Finca Santa Victoria	1	Enero	2023-02-01T00:00:00	2024-11-08T11:00:00	1	Precipitación	0
81556	7	Sololá	701	Sololá	4	Finca Santa Victoria	1	Enero	2023-02-01T00:00:00	2024-11-08T11:00:00	8	Radiación solar	517
81557	7	Sololá	701	Sololá	4	Finca Santa Victoria	1	Enero	2023-02-01T00:00:00	2024-11-08T12:00:00	2	Temperatura media	16.2
81558	7	Sololá	701	Sololá	4	Finca Santa Victoria	1	Enero	2023-02-01T00:00:00	2024-11-08T12:00:00	4	Temperatura máxima	17
81559	7	Sololá	701	Sololá	4	Finca Santa Victoria	1	Enero	2023-02-01T00:00:00	2024-11-08T12:00:00	3	Temperatura mínima	15.4
81560	7	Sololá	701	Sololá	4	Finca Santa Victoria	1	Enero	2023-02-01T00:00:00	2024-11-08T12:00:00	5	Humedad	81
81561	7	Sololá	701	Sololá	4	Finca Santa Victoria	1	Enero	2023-02-01T00:00:00	2024-11-08T12:00:00	6	Velocidad del viento	3.2
81562	7	Sololá	701	Sololá	4	Finca Santa Victoria	1	Enero	2023-02-01T00:00:00	2024-11-08T12:00:00	7	Dirección del viento	3.22
81563	7	Sololá	701	Sololá	4	Finca Santa Victoria	1	Enero	2023-02-01T00:00:00	2024-11-08T12:00:00	1	Precipitación	0
81564	7	Sololá	701	Sololá	4	Finca Santa Victoria	1	Enero	2023-02-01T00:00:00	2024-11-08T12:00:00	8	Radiación solar	439
81565	7	Sololá	701	Sololá	4	Finca Santa Victoria	1	Enero	2023-02-01T00:00:00	2024-11-08T13:00:00	2	Temperatura media	16.2
81566	7	Sololá	701	Sololá	4	Finca Santa Victoria	1	Enero	2023-02-01T00:00:00	2024-11-08T13:00:00	4	Temperatura máxima	17
81567	7	Sololá	701	Sololá	4	Finca Santa Victoria	1	Enero	2023-02-01T00:00:00	2024-11-08T13:00:00	3	Temperatura mínima	15.6
81568	7	Sololá	701	Sololá	4	Finca Santa Victoria	1	Enero	2023-02-01T00:00:00	2024-11-08T13:00:00	5	Humedad	84
81569	7	Sololá	701	Sololá	4	Finca Santa Victoria	1	Enero	2023-02-01T00:00:00	2024-11-08T13:00:00	6	Velocidad del viento	3.2
81570	7	Sololá	701	Sololá	4	Finca Santa Victoria	1	Enero	2023-02-01T00:00:00	2024-11-08T13:00:00	7	Dirección del viento	3.22
81571	7	Sololá	701	Sololá	4	Finca Santa Victoria	1	Enero	2023-02-01T00:00:00	2024-11-08T13:00:00	1	Precipitación	0
81572	7	Sololá	701	Sololá	4	Finca Santa Victoria	1	Enero	2023-02-01T00:00:00	2024-11-08T13:00:00	8	Radiación solar	387
81573	7	Sololá	701	Sololá	4	Finca Santa Victoria	1	Enero	2023-02-01T00:00:00	2024-11-08T14:00:00	2	Temperatura media	16.6
81574	7	Sololá	701	Sololá	4	Finca Santa Victoria	1	Enero	2023-02-01T00:00:00	2024-11-08T14:00:00	4	Temperatura máxima	16.9
81575	7	Sololá	701	Sololá	4	Finca Santa Victoria	1	Enero	2023-02-01T00:00:00	2024-11-08T14:00:00	3	Temperatura mínima	15.6
81576	7	Sololá	701	Sololá	4	Finca Santa Victoria	1	Enero	2023-02-01T00:00:00	2024-11-08T14:00:00	5	Humedad	83
81577	7	Sololá	701	Sololá	4	Finca Santa Victoria	1	Enero	2023-02-01T00:00:00	2024-11-08T14:00:00	6	Velocidad del viento	3.2
81578	7	Sololá	701	Sololá	4	Finca Santa Victoria	1	Enero	2023-02-01T00:00:00	2024-11-08T14:00:00	7	Dirección del viento	3.22
81579	7	Sololá	701	Sololá	4	Finca Santa Victoria	1	Enero	2023-02-01T00:00:00	2024-11-08T14:00:00	1	Precipitación	0
81580	7	Sololá	701	Sololá	4	Finca Santa Victoria	1	Enero	2023-02-01T00:00:00	2024-11-08T14:00:00	8	Radiación solar	331
81581	7	Sololá	701	Sololá	4	Finca Santa Victoria	1	Enero	2023-02-01T00:00:00	2024-11-08T15:00:00	2	Temperatura media	17.1
81582	7	Sololá	701	Sololá	4	Finca Santa Victoria	1	Enero	2023-02-01T00:00:00	2024-11-08T15:00:00	4	Temperatura máxima	17.9
81583	7	Sololá	701	Sololá	4	Finca Santa Victoria	1	Enero	2023-02-01T00:00:00	2024-11-08T15:00:00	3	Temperatura mínima	16.2
81584	7	Sololá	701	Sololá	4	Finca Santa Victoria	1	Enero	2023-02-01T00:00:00	2024-11-08T15:00:00	5	Humedad	83
81585	7	Sololá	701	Sololá	4	Finca Santa Victoria	1	Enero	2023-02-01T00:00:00	2024-11-08T15:00:00	6	Velocidad del viento	3.2
81586	7	Sololá	701	Sololá	4	Finca Santa Victoria	1	Enero	2023-02-01T00:00:00	2024-11-08T15:00:00	7	Dirección del viento	3.22
81587	7	Sololá	701	Sololá	4	Finca Santa Victoria	1	Enero	2023-02-01T00:00:00	2024-11-08T15:00:00	1	Precipitación	0
81588	7	Sololá	701	Sololá	4	Finca Santa Victoria	1	Enero	2023-02-01T00:00:00	2024-11-08T15:00:00	8	Radiación solar	361
81589	7	Sololá	701	Sololá	4	Finca Santa Victoria	1	Enero	2023-02-01T00:00:00	2024-11-08T16:00:00	2	Temperatura media	15.3
81590	7	Sololá	701	Sololá	4	Finca Santa Victoria	1	Enero	2023-02-01T00:00:00	2024-11-08T16:00:00	4	Temperatura máxima	17.2
81591	7	Sololá	701	Sololá	4	Finca Santa Victoria	1	Enero	2023-02-01T00:00:00	2024-11-08T16:00:00	3	Temperatura mínima	15.3
81592	7	Sololá	701	Sololá	4	Finca Santa Victoria	1	Enero	2023-02-01T00:00:00	2024-11-08T16:00:00	5	Humedad	89
81593	7	Sololá	701	Sololá	4	Finca Santa Victoria	1	Enero	2023-02-01T00:00:00	2024-11-08T16:00:00	6	Velocidad del viento	3.2
81594	7	Sololá	701	Sololá	4	Finca Santa Victoria	1	Enero	2023-02-01T00:00:00	2024-11-08T16:00:00	7	Dirección del viento	3.22
81595	7	Sololá	701	Sololá	4	Finca Santa Victoria	1	Enero	2023-02-01T00:00:00	2024-11-08T16:00:00	1	Precipitación	0
81596	7	Sololá	701	Sololá	4	Finca Santa Victoria	1	Enero	2023-02-01T00:00:00	2024-11-08T16:00:00	8	Radiación solar	277
81597	7	Sololá	701	Sololá	4	Finca Santa Victoria	1	Enero	2023-02-01T00:00:00	2024-11-08T17:00:00	2	Temperatura media	14.4
81598	7	Sololá	701	Sololá	4	Finca Santa Victoria	1	Enero	2023-02-01T00:00:00	2024-11-08T17:00:00	4	Temperatura máxima	15.3
81599	7	Sololá	701	Sololá	4	Finca Santa Victoria	1	Enero	2023-02-01T00:00:00	2024-11-08T17:00:00	3	Temperatura mínima	14.4
81600	7	Sololá	701	Sololá	4	Finca Santa Victoria	1	Enero	2023-02-01T00:00:00	2024-11-08T17:00:00	5	Humedad	94
81601	7	Sololá	701	Sololá	4	Finca Santa Victoria	1	Enero	2023-02-01T00:00:00	2024-11-08T17:00:00	6	Velocidad del viento	1.6
81602	7	Sololá	701	Sololá	4	Finca Santa Victoria	1	Enero	2023-02-01T00:00:00	2024-11-08T17:00:00	7	Dirección del viento	1.61
81603	7	Sololá	701	Sololá	4	Finca Santa Victoria	1	Enero	2023-02-01T00:00:00	2024-11-08T17:00:00	1	Precipitación	0
81604	7	Sololá	701	Sololá	4	Finca Santa Victoria	1	Enero	2023-02-01T00:00:00	2024-11-08T17:00:00	8	Radiación solar	54
81605	7	Sololá	701	Sololá	4	Finca Santa Victoria	1	Enero	2023-02-01T00:00:00	2024-11-08T18:00:00	2	Temperatura media	14.1
81606	7	Sololá	701	Sololá	4	Finca Santa Victoria	1	Enero	2023-02-01T00:00:00	2024-11-08T18:00:00	4	Temperatura máxima	14.4
81607	7	Sololá	701	Sololá	4	Finca Santa Victoria	1	Enero	2023-02-01T00:00:00	2024-11-08T18:00:00	3	Temperatura mínima	14.1
81608	7	Sololá	701	Sololá	4	Finca Santa Victoria	1	Enero	2023-02-01T00:00:00	2024-11-08T18:00:00	5	Humedad	96
81609	7	Sololá	701	Sololá	4	Finca Santa Victoria	1	Enero	2023-02-01T00:00:00	2024-11-08T18:00:00	6	Velocidad del viento	0
81610	7	Sololá	701	Sololá	4	Finca Santa Victoria	1	Enero	2023-02-01T00:00:00	2024-11-08T18:00:00	7	Dirección del viento	0
81611	7	Sololá	701	Sololá	4	Finca Santa Victoria	1	Enero	2023-02-01T00:00:00	2024-11-08T18:00:00	1	Precipitación	0
81612	7	Sololá	701	Sololá	4	Finca Santa Victoria	1	Enero	2023-02-01T00:00:00	2024-11-08T18:00:00	8	Radiación solar	6
81613	7	Sololá	701	Sololá	4	Finca Santa Victoria	1	Enero	2023-02-01T00:00:00	2024-11-08T19:00:00	2	Temperatura media	12.9
81614	7	Sololá	701	Sololá	4	Finca Santa Victoria	1	Enero	2023-02-01T00:00:00	2024-11-08T19:00:00	4	Temperatura máxima	14.1
81615	7	Sololá	701	Sololá	4	Finca Santa Victoria	1	Enero	2023-02-01T00:00:00	2024-11-08T19:00:00	3	Temperatura mínima	12.9
81616	7	Sololá	701	Sololá	4	Finca Santa Victoria	1	Enero	2023-02-01T00:00:00	2024-11-08T19:00:00	5	Humedad	95
81617	7	Sololá	701	Sololá	4	Finca Santa Victoria	1	Enero	2023-02-01T00:00:00	2024-11-08T19:00:00	6	Velocidad del viento	0
81618	7	Sololá	701	Sololá	4	Finca Santa Victoria	1	Enero	2023-02-01T00:00:00	2024-11-08T19:00:00	7	Dirección del viento	0
81619	7	Sololá	701	Sololá	4	Finca Santa Victoria	1	Enero	2023-02-01T00:00:00	2024-11-08T19:00:00	1	Precipitación	0
81620	7	Sololá	701	Sololá	4	Finca Santa Victoria	1	Enero	2023-02-01T00:00:00	2024-11-08T19:00:00	8	Radiación solar	0
81621	7	Sololá	701	Sololá	4	Finca Santa Victoria	1	Enero	2023-02-01T00:00:00	2024-11-08T20:00:00	2	Temperatura media	12.6
81622	7	Sololá	701	Sololá	4	Finca Santa Victoria	1	Enero	2023-02-01T00:00:00	2024-11-08T20:00:00	4	Temperatura máxima	12.9
81623	7	Sololá	701	Sololá	4	Finca Santa Victoria	1	Enero	2023-02-01T00:00:00	2024-11-08T20:00:00	3	Temperatura mínima	12.4
81624	7	Sololá	701	Sololá	4	Finca Santa Victoria	1	Enero	2023-02-01T00:00:00	2024-11-08T20:00:00	5	Humedad	97
81625	7	Sololá	701	Sololá	4	Finca Santa Victoria	1	Enero	2023-02-01T00:00:00	2024-11-08T20:00:00	6	Velocidad del viento	0
81626	7	Sololá	701	Sololá	4	Finca Santa Victoria	1	Enero	2023-02-01T00:00:00	2024-11-08T20:00:00	7	Dirección del viento	0
81627	7	Sololá	701	Sololá	4	Finca Santa Victoria	1	Enero	2023-02-01T00:00:00	2024-11-08T20:00:00	1	Precipitación	0
81628	7	Sololá	701	Sololá	4	Finca Santa Victoria	1	Enero	2023-02-01T00:00:00	2024-11-08T20:00:00	8	Radiación solar	0
81629	7	Sololá	701	Sololá	4	Finca Santa Victoria	1	Enero	2023-02-01T00:00:00	2024-11-08T21:00:00	2	Temperatura media	11.8
81630	7	Sololá	701	Sololá	4	Finca Santa Victoria	1	Enero	2023-02-01T00:00:00	2024-11-08T21:00:00	4	Temperatura máxima	12.7
81631	7	Sololá	701	Sololá	4	Finca Santa Victoria	1	Enero	2023-02-01T00:00:00	2024-11-08T21:00:00	3	Temperatura mínima	11.7
81632	7	Sololá	701	Sololá	4	Finca Santa Victoria	1	Enero	2023-02-01T00:00:00	2024-11-08T21:00:00	5	Humedad	96
81633	7	Sololá	701	Sololá	4	Finca Santa Victoria	1	Enero	2023-02-01T00:00:00	2024-11-08T21:00:00	6	Velocidad del viento	0
81634	7	Sololá	701	Sololá	4	Finca Santa Victoria	1	Enero	2023-02-01T00:00:00	2024-11-08T21:00:00	7	Dirección del viento	0
81635	7	Sololá	701	Sololá	4	Finca Santa Victoria	1	Enero	2023-02-01T00:00:00	2024-11-08T21:00:00	1	Precipitación	0
81636	7	Sololá	701	Sololá	4	Finca Santa Victoria	1	Enero	2023-02-01T00:00:00	2024-11-08T21:00:00	8	Radiación solar	0
81637	7	Sololá	701	Sololá	4	Finca Santa Victoria	1	Enero	2023-02-01T00:00:00	2024-11-08T22:00:00	2	Temperatura media	11.4
81638	7	Sololá	701	Sololá	4	Finca Santa Victoria	1	Enero	2023-02-01T00:00:00	2024-11-08T22:00:00	4	Temperatura máxima	11.8
81639	7	Sololá	701	Sololá	4	Finca Santa Victoria	1	Enero	2023-02-01T00:00:00	2024-11-08T22:00:00	3	Temperatura mínima	11.3
81640	7	Sololá	701	Sololá	4	Finca Santa Victoria	1	Enero	2023-02-01T00:00:00	2024-11-08T22:00:00	5	Humedad	97
81641	7	Sololá	701	Sololá	4	Finca Santa Victoria	1	Enero	2023-02-01T00:00:00	2024-11-08T22:00:00	6	Velocidad del viento	0
81642	7	Sololá	701	Sololá	4	Finca Santa Victoria	1	Enero	2023-02-01T00:00:00	2024-11-08T22:00:00	7	Dirección del viento	0
81643	7	Sololá	701	Sololá	4	Finca Santa Victoria	1	Enero	2023-02-01T00:00:00	2024-11-08T22:00:00	1	Precipitación	0
81644	7	Sololá	701	Sololá	4	Finca Santa Victoria	1	Enero	2023-02-01T00:00:00	2024-11-08T22:00:00	8	Radiación solar	0
81645	7	Sololá	701	Sololá	4	Finca Santa Victoria	1	Enero	2023-02-01T00:00:00	2024-11-08T23:00:00	2	Temperatura media	11.1
81646	7	Sololá	701	Sololá	4	Finca Santa Victoria	1	Enero	2023-02-01T00:00:00	2024-11-08T23:00:00	4	Temperatura máxima	11.4
81647	7	Sololá	701	Sololá	4	Finca Santa Victoria	1	Enero	2023-02-01T00:00:00	2024-11-08T23:00:00	3	Temperatura mínima	10.9
81648	7	Sololá	701	Sololá	4	Finca Santa Victoria	1	Enero	2023-02-01T00:00:00	2024-11-08T23:00:00	5	Humedad	97
81649	7	Sololá	701	Sololá	4	Finca Santa Victoria	1	Enero	2023-02-01T00:00:00	2024-11-08T23:00:00	6	Velocidad del viento	0
81650	7	Sololá	701	Sololá	4	Finca Santa Victoria	1	Enero	2023-02-01T00:00:00	2024-11-08T23:00:00	7	Dirección del viento	0
81651	7	Sololá	701	Sololá	4	Finca Santa Victoria	1	Enero	2023-02-01T00:00:00	2024-11-08T23:00:00	1	Precipitación	0
81652	7	Sololá	701	Sololá	4	Finca Santa Victoria	1	Enero	2023-02-01T00:00:00	2024-11-08T23:00:00	8	Radiación solar	0
81653	7	Sololá	701	Sololá	4	Finca Santa Victoria	1	Enero	2023-03-01T00:00:00	2024-11-08T00:00:00	2	Temperatura media	11.1
81654	7	Sololá	701	Sololá	4	Finca Santa Victoria	1	Enero	2023-03-01T00:00:00	2024-11-08T00:00:00	4	Temperatura máxima	11.1
81655	7	Sololá	701	Sololá	4	Finca Santa Victoria	1	Enero	2023-03-01T00:00:00	2024-11-08T00:00:00	3	Temperatura mínima	10.6
81656	7	Sololá	701	Sololá	4	Finca Santa Victoria	1	Enero	2023-03-01T00:00:00	2024-11-08T00:00:00	5	Humedad	97
81657	7	Sololá	701	Sololá	4	Finca Santa Victoria	1	Enero	2023-03-01T00:00:00	2024-11-08T00:00:00	6	Velocidad del viento	0
81658	7	Sololá	701	Sololá	4	Finca Santa Victoria	1	Enero	2023-03-01T00:00:00	2024-11-08T00:00:00	7	Dirección del viento	0
81659	7	Sololá	701	Sololá	4	Finca Santa Victoria	1	Enero	2023-03-01T00:00:00	2024-11-08T00:00:00	1	Precipitación	0
81660	7	Sololá	701	Sololá	4	Finca Santa Victoria	1	Enero	2023-03-01T00:00:00	2024-11-08T00:00:00	8	Radiación solar	0
81661	7	Sololá	701	Sololá	4	Finca Santa Victoria	1	Enero	2023-03-01T00:00:00	2024-11-08T01:00:00	2	Temperatura media	10.7
81662	7	Sololá	701	Sololá	4	Finca Santa Victoria	1	Enero	2023-03-01T00:00:00	2024-11-08T01:00:00	4	Temperatura máxima	11.2
81663	7	Sololá	701	Sololá	4	Finca Santa Victoria	1	Enero	2023-03-01T00:00:00	2024-11-08T01:00:00	3	Temperatura mínima	10.6
81664	7	Sololá	701	Sololá	4	Finca Santa Victoria	1	Enero	2023-03-01T00:00:00	2024-11-08T01:00:00	5	Humedad	97
81665	7	Sololá	701	Sololá	4	Finca Santa Victoria	1	Enero	2023-03-01T00:00:00	2024-11-08T01:00:00	6	Velocidad del viento	0
81666	7	Sololá	701	Sololá	4	Finca Santa Victoria	1	Enero	2023-03-01T00:00:00	2024-11-08T01:00:00	7	Dirección del viento	0
81667	7	Sololá	701	Sololá	4	Finca Santa Victoria	1	Enero	2023-03-01T00:00:00	2024-11-08T01:00:00	1	Precipitación	0
81668	7	Sololá	701	Sololá	4	Finca Santa Victoria	1	Enero	2023-03-01T00:00:00	2024-11-08T01:00:00	8	Radiación solar	0
81669	7	Sololá	701	Sololá	4	Finca Santa Victoria	1	Enero	2023-03-01T00:00:00	2024-11-08T02:00:00	2	Temperatura media	10.6
81670	7	Sololá	701	Sololá	4	Finca Santa Victoria	1	Enero	2023-03-01T00:00:00	2024-11-08T02:00:00	4	Temperatura máxima	10.7
81671	7	Sololá	701	Sololá	4	Finca Santa Victoria	1	Enero	2023-03-01T00:00:00	2024-11-08T02:00:00	3	Temperatura mínima	10.3
81672	7	Sololá	701	Sololá	4	Finca Santa Victoria	1	Enero	2023-03-01T00:00:00	2024-11-08T02:00:00	5	Humedad	94
81673	7	Sololá	701	Sololá	4	Finca Santa Victoria	1	Enero	2023-03-01T00:00:00	2024-11-08T02:00:00	6	Velocidad del viento	1.6
81674	7	Sololá	701	Sololá	4	Finca Santa Victoria	1	Enero	2023-03-01T00:00:00	2024-11-08T02:00:00	7	Dirección del viento	1.61
81675	7	Sololá	701	Sololá	4	Finca Santa Victoria	1	Enero	2023-03-01T00:00:00	2024-11-08T02:00:00	1	Precipitación	0
81676	7	Sololá	701	Sololá	4	Finca Santa Victoria	1	Enero	2023-03-01T00:00:00	2024-11-08T02:00:00	8	Radiación solar	0
81677	7	Sololá	701	Sololá	4	Finca Santa Victoria	1	Enero	2023-03-01T00:00:00	2024-11-08T03:00:00	2	Temperatura media	10.9
81678	7	Sololá	701	Sololá	4	Finca Santa Victoria	1	Enero	2023-03-01T00:00:00	2024-11-08T03:00:00	4	Temperatura máxima	11
81679	7	Sololá	701	Sololá	4	Finca Santa Victoria	1	Enero	2023-03-01T00:00:00	2024-11-08T03:00:00	3	Temperatura mínima	10.5
81680	7	Sololá	701	Sololá	4	Finca Santa Victoria	1	Enero	2023-03-01T00:00:00	2024-11-08T03:00:00	5	Humedad	85
81681	7	Sololá	701	Sololá	4	Finca Santa Victoria	1	Enero	2023-03-01T00:00:00	2024-11-08T03:00:00	6	Velocidad del viento	1.6
81682	7	Sololá	701	Sololá	4	Finca Santa Victoria	1	Enero	2023-03-01T00:00:00	2024-11-08T03:00:00	7	Dirección del viento	1.61
81683	7	Sololá	701	Sololá	4	Finca Santa Victoria	1	Enero	2023-03-01T00:00:00	2024-11-08T03:00:00	1	Precipitación	0
81684	7	Sololá	701	Sololá	4	Finca Santa Victoria	1	Enero	2023-03-01T00:00:00	2024-11-08T03:00:00	8	Radiación solar	0
81685	7	Sololá	701	Sololá	4	Finca Santa Victoria	1	Enero	2023-03-01T00:00:00	2024-11-08T04:00:00	2	Temperatura media	10.8
81686	7	Sololá	701	Sololá	4	Finca Santa Victoria	1	Enero	2023-03-01T00:00:00	2024-11-08T04:00:00	4	Temperatura máxima	10.9
81687	7	Sololá	701	Sololá	4	Finca Santa Victoria	1	Enero	2023-03-01T00:00:00	2024-11-08T04:00:00	3	Temperatura mínima	10.8
81688	7	Sololá	701	Sololá	4	Finca Santa Victoria	1	Enero	2023-03-01T00:00:00	2024-11-08T04:00:00	5	Humedad	86
81689	7	Sololá	701	Sololá	4	Finca Santa Victoria	1	Enero	2023-03-01T00:00:00	2024-11-08T04:00:00	6	Velocidad del viento	1.6
81690	7	Sololá	701	Sololá	4	Finca Santa Victoria	1	Enero	2023-03-01T00:00:00	2024-11-08T04:00:00	7	Dirección del viento	1.61
81691	7	Sololá	701	Sololá	4	Finca Santa Victoria	1	Enero	2023-03-01T00:00:00	2024-11-08T04:00:00	1	Precipitación	0
81692	7	Sololá	701	Sololá	4	Finca Santa Victoria	1	Enero	2023-03-01T00:00:00	2024-11-08T04:00:00	8	Radiación solar	0
81693	7	Sololá	701	Sololá	4	Finca Santa Victoria	1	Enero	2023-03-01T00:00:00	2024-11-08T05:00:00	2	Temperatura media	10.8
81694	7	Sololá	701	Sololá	4	Finca Santa Victoria	1	Enero	2023-03-01T00:00:00	2024-11-08T05:00:00	4	Temperatura máxima	11
81695	7	Sololá	701	Sololá	4	Finca Santa Victoria	1	Enero	2023-03-01T00:00:00	2024-11-08T05:00:00	3	Temperatura mínima	10.7
81696	7	Sololá	701	Sololá	4	Finca Santa Victoria	1	Enero	2023-03-01T00:00:00	2024-11-08T05:00:00	5	Humedad	85
81697	7	Sololá	701	Sololá	4	Finca Santa Victoria	1	Enero	2023-03-01T00:00:00	2024-11-08T05:00:00	6	Velocidad del viento	1.6
81698	7	Sololá	701	Sololá	4	Finca Santa Victoria	1	Enero	2023-03-01T00:00:00	2024-11-08T05:00:00	7	Dirección del viento	1.61
81699	7	Sololá	701	Sololá	4	Finca Santa Victoria	1	Enero	2023-03-01T00:00:00	2024-11-08T05:00:00	1	Precipitación	0
81700	7	Sololá	701	Sololá	4	Finca Santa Victoria	1	Enero	2023-03-01T00:00:00	2024-11-08T05:00:00	8	Radiación solar	0
81701	7	Sololá	701	Sololá	4	Finca Santa Victoria	1	Enero	2023-03-01T00:00:00	2024-11-08T06:00:00	2	Temperatura media	10.9
81702	7	Sololá	701	Sololá	4	Finca Santa Victoria	1	Enero	2023-03-01T00:00:00	2024-11-08T06:00:00	4	Temperatura máxima	10.9
81703	7	Sololá	701	Sololá	4	Finca Santa Victoria	1	Enero	2023-03-01T00:00:00	2024-11-08T06:00:00	3	Temperatura mínima	10.8
81704	7	Sololá	701	Sololá	4	Finca Santa Victoria	1	Enero	2023-03-01T00:00:00	2024-11-08T06:00:00	5	Humedad	84
81705	7	Sololá	701	Sololá	4	Finca Santa Victoria	1	Enero	2023-03-01T00:00:00	2024-11-08T06:00:00	6	Velocidad del viento	1.6
81706	7	Sololá	701	Sololá	4	Finca Santa Victoria	1	Enero	2023-03-01T00:00:00	2024-11-08T06:00:00	7	Dirección del viento	1.61
81707	7	Sololá	701	Sololá	4	Finca Santa Victoria	1	Enero	2023-03-01T00:00:00	2024-11-08T06:00:00	1	Precipitación	0
81708	7	Sololá	701	Sololá	4	Finca Santa Victoria	1	Enero	2023-03-01T00:00:00	2024-11-08T06:00:00	8	Radiación solar	0
81709	7	Sololá	701	Sololá	4	Finca Santa Victoria	1	Enero	2023-03-01T00:00:00	2024-11-08T07:00:00	2	Temperatura media	11.2
81710	7	Sololá	701	Sololá	4	Finca Santa Victoria	1	Enero	2023-03-01T00:00:00	2024-11-08T07:00:00	4	Temperatura máxima	11.3
81711	7	Sololá	701	Sololá	4	Finca Santa Victoria	1	Enero	2023-03-01T00:00:00	2024-11-08T07:00:00	3	Temperatura mínima	10.9
81712	7	Sololá	701	Sololá	4	Finca Santa Victoria	1	Enero	2023-03-01T00:00:00	2024-11-08T07:00:00	5	Humedad	79
81713	7	Sololá	701	Sololá	4	Finca Santa Victoria	1	Enero	2023-03-01T00:00:00	2024-11-08T07:00:00	6	Velocidad del viento	1.6
81714	7	Sololá	701	Sololá	4	Finca Santa Victoria	1	Enero	2023-03-01T00:00:00	2024-11-08T07:00:00	7	Dirección del viento	1.61
81715	7	Sololá	701	Sololá	4	Finca Santa Victoria	1	Enero	2023-03-01T00:00:00	2024-11-08T07:00:00	1	Precipitación	0
81716	7	Sololá	701	Sololá	4	Finca Santa Victoria	1	Enero	2023-03-01T00:00:00	2024-11-08T07:00:00	8	Radiación solar	3
81717	7	Sololá	701	Sololá	4	Finca Santa Victoria	1	Enero	2023-03-01T00:00:00	2024-11-08T08:00:00	2	Temperatura media	12.2
81718	7	Sololá	701	Sololá	4	Finca Santa Victoria	1	Enero	2023-03-01T00:00:00	2024-11-08T08:00:00	4	Temperatura máxima	12.2
81719	7	Sololá	701	Sololá	4	Finca Santa Victoria	1	Enero	2023-03-01T00:00:00	2024-11-08T08:00:00	3	Temperatura mínima	11.1
81720	7	Sololá	701	Sololá	4	Finca Santa Victoria	1	Enero	2023-03-01T00:00:00	2024-11-08T08:00:00	5	Humedad	78
81721	7	Sololá	701	Sololá	4	Finca Santa Victoria	1	Enero	2023-03-01T00:00:00	2024-11-08T08:00:00	6	Velocidad del viento	1.6
81722	7	Sololá	701	Sololá	4	Finca Santa Victoria	1	Enero	2023-03-01T00:00:00	2024-11-08T08:00:00	7	Dirección del viento	1.61
81723	7	Sololá	701	Sololá	4	Finca Santa Victoria	1	Enero	2023-03-01T00:00:00	2024-11-08T08:00:00	1	Precipitación	0
81724	7	Sololá	701	Sololá	4	Finca Santa Victoria	1	Enero	2023-03-01T00:00:00	2024-11-08T08:00:00	8	Radiación solar	35
81725	7	Sololá	701	Sololá	4	Finca Santa Victoria	1	Enero	2023-03-01T00:00:00	2024-11-08T09:00:00	2	Temperatura media	15.7
81726	7	Sololá	701	Sololá	4	Finca Santa Victoria	1	Enero	2023-03-01T00:00:00	2024-11-08T09:00:00	4	Temperatura máxima	15.7
81727	7	Sololá	701	Sololá	4	Finca Santa Victoria	1	Enero	2023-03-01T00:00:00	2024-11-08T09:00:00	3	Temperatura mínima	12.2
81728	7	Sololá	701	Sololá	4	Finca Santa Victoria	1	Enero	2023-03-01T00:00:00	2024-11-08T09:00:00	5	Humedad	66
81729	7	Sololá	701	Sololá	4	Finca Santa Victoria	1	Enero	2023-03-01T00:00:00	2024-11-08T09:00:00	6	Velocidad del viento	0
81730	7	Sololá	701	Sololá	4	Finca Santa Victoria	1	Enero	2023-03-01T00:00:00	2024-11-08T09:00:00	7	Dirección del viento	0
81731	7	Sololá	701	Sololá	4	Finca Santa Victoria	1	Enero	2023-03-01T00:00:00	2024-11-08T09:00:00	1	Precipitación	0
81732	7	Sololá	701	Sololá	4	Finca Santa Victoria	1	Enero	2023-03-01T00:00:00	2024-11-08T09:00:00	8	Radiación solar	178
81733	7	Sololá	701	Sololá	4	Finca Santa Victoria	1	Enero	2023-03-01T00:00:00	2024-11-08T10:00:00	2	Temperatura media	16.4
81734	7	Sololá	701	Sololá	4	Finca Santa Victoria	1	Enero	2023-03-01T00:00:00	2024-11-08T10:00:00	4	Temperatura máxima	16.9
81735	7	Sololá	701	Sololá	4	Finca Santa Victoria	1	Enero	2023-03-01T00:00:00	2024-11-08T10:00:00	3	Temperatura mínima	15.7
81736	7	Sololá	701	Sololá	4	Finca Santa Victoria	1	Enero	2023-03-01T00:00:00	2024-11-08T10:00:00	5	Humedad	66
81737	7	Sololá	701	Sololá	4	Finca Santa Victoria	1	Enero	2023-03-01T00:00:00	2024-11-08T10:00:00	6	Velocidad del viento	1.6
81738	7	Sololá	701	Sololá	4	Finca Santa Victoria	1	Enero	2023-03-01T00:00:00	2024-11-08T10:00:00	7	Dirección del viento	1.61
81739	7	Sololá	701	Sololá	4	Finca Santa Victoria	1	Enero	2023-03-01T00:00:00	2024-11-08T10:00:00	1	Precipitación	0
81740	7	Sololá	701	Sololá	4	Finca Santa Victoria	1	Enero	2023-03-01T00:00:00	2024-11-08T10:00:00	8	Radiación solar	443
81741	7	Sololá	701	Sololá	4	Finca Santa Victoria	1	Enero	2023-03-01T00:00:00	2024-11-08T11:00:00	2	Temperatura media	18.6
81742	7	Sololá	701	Sololá	4	Finca Santa Victoria	1	Enero	2023-03-01T00:00:00	2024-11-08T11:00:00	4	Temperatura máxima	18.6
81743	7	Sololá	701	Sololá	4	Finca Santa Victoria	1	Enero	2023-03-01T00:00:00	2024-11-08T11:00:00	3	Temperatura mínima	16.4
81744	7	Sololá	701	Sololá	4	Finca Santa Victoria	1	Enero	2023-03-01T00:00:00	2024-11-08T11:00:00	5	Humedad	59
81745	7	Sololá	701	Sololá	4	Finca Santa Victoria	1	Enero	2023-03-01T00:00:00	2024-11-08T11:00:00	6	Velocidad del viento	3.2
81746	7	Sololá	701	Sololá	4	Finca Santa Victoria	1	Enero	2023-03-01T00:00:00	2024-11-08T11:00:00	7	Dirección del viento	3.22
81747	7	Sololá	701	Sololá	4	Finca Santa Victoria	1	Enero	2023-03-01T00:00:00	2024-11-08T11:00:00	1	Precipitación	0
81748	7	Sololá	701	Sololá	4	Finca Santa Victoria	1	Enero	2023-03-01T00:00:00	2024-11-08T11:00:00	8	Radiación solar	730
81749	7	Sololá	701	Sololá	4	Finca Santa Victoria	1	Enero	2023-03-01T00:00:00	2024-11-08T12:00:00	2	Temperatura media	17.7
81750	7	Sololá	701	Sololá	4	Finca Santa Victoria	1	Enero	2023-03-01T00:00:00	2024-11-08T12:00:00	4	Temperatura máxima	19
81751	7	Sololá	701	Sololá	4	Finca Santa Victoria	1	Enero	2023-03-01T00:00:00	2024-11-08T12:00:00	3	Temperatura mínima	16.9
81752	7	Sololá	701	Sololá	4	Finca Santa Victoria	1	Enero	2023-03-01T00:00:00	2024-11-08T12:00:00	5	Humedad	66
81753	7	Sololá	701	Sololá	4	Finca Santa Victoria	1	Enero	2023-03-01T00:00:00	2024-11-08T12:00:00	6	Velocidad del viento	3.2
81754	7	Sololá	701	Sololá	4	Finca Santa Victoria	1	Enero	2023-03-01T00:00:00	2024-11-08T12:00:00	7	Dirección del viento	3.22
81755	7	Sololá	701	Sololá	4	Finca Santa Victoria	1	Enero	2023-03-01T00:00:00	2024-11-08T12:00:00	1	Precipitación	0
81756	7	Sololá	701	Sololá	4	Finca Santa Victoria	1	Enero	2023-03-01T00:00:00	2024-11-08T12:00:00	8	Radiación solar	417
81757	7	Sololá	701	Sololá	4	Finca Santa Victoria	1	Enero	2023-03-01T00:00:00	2024-11-08T13:00:00	2	Temperatura media	19.2
81758	7	Sololá	701	Sololá	4	Finca Santa Victoria	1	Enero	2023-03-01T00:00:00	2024-11-08T13:00:00	4	Temperatura máxima	19.2
81759	7	Sololá	701	Sololá	4	Finca Santa Victoria	1	Enero	2023-03-01T00:00:00	2024-11-08T13:00:00	3	Temperatura mínima	17.2
81760	7	Sololá	701	Sololá	4	Finca Santa Victoria	1	Enero	2023-03-01T00:00:00	2024-11-08T13:00:00	5	Humedad	60
81761	7	Sololá	701	Sololá	4	Finca Santa Victoria	1	Enero	2023-03-01T00:00:00	2024-11-08T13:00:00	6	Velocidad del viento	3.2
81762	7	Sololá	701	Sololá	4	Finca Santa Victoria	1	Enero	2023-03-01T00:00:00	2024-11-08T13:00:00	7	Dirección del viento	3.22
81763	7	Sololá	701	Sololá	4	Finca Santa Victoria	1	Enero	2023-03-01T00:00:00	2024-11-08T13:00:00	1	Precipitación	0
81764	7	Sololá	701	Sololá	4	Finca Santa Victoria	1	Enero	2023-03-01T00:00:00	2024-11-08T13:00:00	8	Radiación solar	670
81765	7	Sololá	701	Sololá	4	Finca Santa Victoria	1	Enero	2023-03-01T00:00:00	2024-11-08T14:00:00	2	Temperatura media	19.3
81766	7	Sololá	701	Sololá	4	Finca Santa Victoria	1	Enero	2023-03-01T00:00:00	2024-11-08T14:00:00	4	Temperatura máxima	19.8
81767	7	Sololá	701	Sololá	4	Finca Santa Victoria	1	Enero	2023-03-01T00:00:00	2024-11-08T14:00:00	3	Temperatura mínima	18.4
81768	7	Sololá	701	Sololá	4	Finca Santa Victoria	1	Enero	2023-03-01T00:00:00	2024-11-08T14:00:00	5	Humedad	60
81769	7	Sololá	701	Sololá	4	Finca Santa Victoria	1	Enero	2023-03-01T00:00:00	2024-11-08T14:00:00	6	Velocidad del viento	3.2
81770	7	Sololá	701	Sololá	4	Finca Santa Victoria	1	Enero	2023-03-01T00:00:00	2024-11-08T14:00:00	7	Dirección del viento	3.22
81771	7	Sololá	701	Sololá	4	Finca Santa Victoria	1	Enero	2023-03-01T00:00:00	2024-11-08T14:00:00	1	Precipitación	0
81772	7	Sololá	701	Sololá	4	Finca Santa Victoria	1	Enero	2023-03-01T00:00:00	2024-11-08T14:00:00	8	Radiación solar	688
81773	7	Sololá	701	Sololá	4	Finca Santa Victoria	1	Enero	2023-03-01T00:00:00	2024-11-08T15:00:00	2	Temperatura media	19.7
81774	7	Sololá	701	Sololá	4	Finca Santa Victoria	1	Enero	2023-03-01T00:00:00	2024-11-08T15:00:00	4	Temperatura máxima	20.2
81775	7	Sololá	701	Sololá	4	Finca Santa Victoria	1	Enero	2023-03-01T00:00:00	2024-11-08T15:00:00	3	Temperatura mínima	19.2
81776	7	Sololá	701	Sololá	4	Finca Santa Victoria	1	Enero	2023-03-01T00:00:00	2024-11-08T15:00:00	5	Humedad	59
81777	7	Sololá	701	Sololá	4	Finca Santa Victoria	1	Enero	2023-03-01T00:00:00	2024-11-08T15:00:00	6	Velocidad del viento	3.2
81778	7	Sololá	701	Sololá	4	Finca Santa Victoria	1	Enero	2023-03-01T00:00:00	2024-11-08T15:00:00	7	Dirección del viento	3.22
81779	7	Sololá	701	Sololá	4	Finca Santa Victoria	1	Enero	2023-03-01T00:00:00	2024-11-08T15:00:00	1	Precipitación	0
81780	7	Sololá	701	Sololá	4	Finca Santa Victoria	1	Enero	2023-03-01T00:00:00	2024-11-08T15:00:00	8	Radiación solar	392
81781	7	Sololá	701	Sololá	4	Finca Santa Victoria	1	Enero	2023-03-01T00:00:00	2024-11-08T16:00:00	2	Temperatura media	18.5
81782	7	Sololá	701	Sololá	4	Finca Santa Victoria	1	Enero	2023-03-01T00:00:00	2024-11-08T16:00:00	4	Temperatura máxima	19.7
81783	7	Sololá	701	Sololá	4	Finca Santa Victoria	1	Enero	2023-03-01T00:00:00	2024-11-08T16:00:00	3	Temperatura mínima	18.5
81784	7	Sololá	701	Sololá	4	Finca Santa Victoria	1	Enero	2023-03-01T00:00:00	2024-11-08T16:00:00	5	Humedad	77
81785	7	Sololá	701	Sololá	4	Finca Santa Victoria	1	Enero	2023-03-01T00:00:00	2024-11-08T16:00:00	6	Velocidad del viento	3.2
81786	7	Sololá	701	Sololá	4	Finca Santa Victoria	1	Enero	2023-03-01T00:00:00	2024-11-08T16:00:00	7	Dirección del viento	3.22
81787	7	Sololá	701	Sololá	4	Finca Santa Victoria	1	Enero	2023-03-01T00:00:00	2024-11-08T16:00:00	1	Precipitación	0
81788	7	Sololá	701	Sololá	4	Finca Santa Victoria	1	Enero	2023-03-01T00:00:00	2024-11-08T16:00:00	8	Radiación solar	427
81789	7	Sololá	701	Sololá	4	Finca Santa Victoria	1	Enero	2023-03-01T00:00:00	2024-11-08T17:00:00	2	Temperatura media	15
81790	7	Sololá	701	Sololá	4	Finca Santa Victoria	1	Enero	2023-03-01T00:00:00	2024-11-08T17:00:00	4	Temperatura máxima	18.4
81791	7	Sololá	701	Sololá	4	Finca Santa Victoria	1	Enero	2023-03-01T00:00:00	2024-11-08T17:00:00	3	Temperatura mínima	14.9
81792	7	Sololá	701	Sololá	4	Finca Santa Victoria	1	Enero	2023-03-01T00:00:00	2024-11-08T17:00:00	5	Humedad	92
81793	7	Sololá	701	Sololá	4	Finca Santa Victoria	1	Enero	2023-03-01T00:00:00	2024-11-08T17:00:00	6	Velocidad del viento	3.2
81794	7	Sololá	701	Sololá	4	Finca Santa Victoria	1	Enero	2023-03-01T00:00:00	2024-11-08T17:00:00	7	Dirección del viento	3.22
81795	7	Sololá	701	Sololá	4	Finca Santa Victoria	1	Enero	2023-03-01T00:00:00	2024-11-08T17:00:00	1	Precipitación	0
81796	7	Sololá	701	Sololá	4	Finca Santa Victoria	1	Enero	2023-03-01T00:00:00	2024-11-08T17:00:00	8	Radiación solar	66
81797	7	Sololá	701	Sololá	4	Finca Santa Victoria	1	Enero	2023-03-01T00:00:00	2024-11-08T18:00:00	2	Temperatura media	14.2
81798	7	Sololá	701	Sololá	4	Finca Santa Victoria	1	Enero	2023-03-01T00:00:00	2024-11-08T18:00:00	4	Temperatura máxima	15.1
81799	7	Sololá	701	Sololá	4	Finca Santa Victoria	1	Enero	2023-03-01T00:00:00	2024-11-08T18:00:00	3	Temperatura mínima	14.2
81800	7	Sololá	701	Sololá	4	Finca Santa Victoria	1	Enero	2023-03-01T00:00:00	2024-11-08T18:00:00	5	Humedad	95
81801	7	Sololá	701	Sololá	4	Finca Santa Victoria	1	Enero	2023-03-01T00:00:00	2024-11-08T18:00:00	6	Velocidad del viento	1.6
81802	7	Sololá	701	Sololá	4	Finca Santa Victoria	1	Enero	2023-03-01T00:00:00	2024-11-08T18:00:00	7	Dirección del viento	1.61
81803	7	Sololá	701	Sololá	4	Finca Santa Victoria	1	Enero	2023-03-01T00:00:00	2024-11-08T18:00:00	1	Precipitación	0
81804	7	Sololá	701	Sololá	4	Finca Santa Victoria	1	Enero	2023-03-01T00:00:00	2024-11-08T18:00:00	8	Radiación solar	12
81805	7	Sololá	701	Sololá	4	Finca Santa Victoria	1	Enero	2023-03-01T00:00:00	2024-11-08T19:00:00	2	Temperatura media	13.7
81806	7	Sololá	701	Sololá	4	Finca Santa Victoria	1	Enero	2023-03-01T00:00:00	2024-11-08T19:00:00	4	Temperatura máxima	14.3
81807	7	Sololá	701	Sololá	4	Finca Santa Victoria	1	Enero	2023-03-01T00:00:00	2024-11-08T19:00:00	3	Temperatura mínima	13.7
81808	7	Sololá	701	Sololá	4	Finca Santa Victoria	1	Enero	2023-03-01T00:00:00	2024-11-08T19:00:00	5	Humedad	96
81809	7	Sololá	701	Sololá	4	Finca Santa Victoria	1	Enero	2023-03-01T00:00:00	2024-11-08T19:00:00	6	Velocidad del viento	1.6
81810	7	Sololá	701	Sololá	4	Finca Santa Victoria	1	Enero	2023-03-01T00:00:00	2024-11-08T19:00:00	7	Dirección del viento	1.61
81811	7	Sololá	701	Sololá	4	Finca Santa Victoria	1	Enero	2023-03-01T00:00:00	2024-11-08T19:00:00	1	Precipitación	0
81812	7	Sololá	701	Sololá	4	Finca Santa Victoria	1	Enero	2023-03-01T00:00:00	2024-11-08T19:00:00	8	Radiación solar	0
81813	7	Sololá	701	Sololá	4	Finca Santa Victoria	1	Enero	2023-03-01T00:00:00	2024-11-08T20:00:00	2	Temperatura media	12.9
81814	7	Sololá	701	Sololá	4	Finca Santa Victoria	1	Enero	2023-03-01T00:00:00	2024-11-08T20:00:00	4	Temperatura máxima	13.7
81815	7	Sololá	701	Sololá	4	Finca Santa Victoria	1	Enero	2023-03-01T00:00:00	2024-11-08T20:00:00	3	Temperatura mínima	12.8
81816	7	Sololá	701	Sololá	4	Finca Santa Victoria	1	Enero	2023-03-01T00:00:00	2024-11-08T20:00:00	5	Humedad	96
81817	7	Sololá	701	Sololá	4	Finca Santa Victoria	1	Enero	2023-03-01T00:00:00	2024-11-08T20:00:00	6	Velocidad del viento	0
81818	7	Sololá	701	Sololá	4	Finca Santa Victoria	1	Enero	2023-03-01T00:00:00	2024-11-08T20:00:00	7	Dirección del viento	0
81819	7	Sololá	701	Sololá	4	Finca Santa Victoria	1	Enero	2023-03-01T00:00:00	2024-11-08T20:00:00	1	Precipitación	0
81820	7	Sololá	701	Sololá	4	Finca Santa Victoria	1	Enero	2023-03-01T00:00:00	2024-11-08T20:00:00	8	Radiación solar	0
81821	7	Sololá	701	Sololá	4	Finca Santa Victoria	1	Enero	2023-03-01T00:00:00	2024-11-08T21:00:00	2	Temperatura media	12.7
81822	7	Sololá	701	Sololá	4	Finca Santa Victoria	1	Enero	2023-03-01T00:00:00	2024-11-08T21:00:00	4	Temperatura máxima	12.9
81823	7	Sololá	701	Sololá	4	Finca Santa Victoria	1	Enero	2023-03-01T00:00:00	2024-11-08T21:00:00	3	Temperatura mínima	12.7
81824	7	Sololá	701	Sololá	4	Finca Santa Victoria	1	Enero	2023-03-01T00:00:00	2024-11-08T21:00:00	5	Humedad	96
81825	7	Sololá	701	Sololá	4	Finca Santa Victoria	1	Enero	2023-03-01T00:00:00	2024-11-08T21:00:00	6	Velocidad del viento	0
81826	7	Sololá	701	Sololá	4	Finca Santa Victoria	1	Enero	2023-03-01T00:00:00	2024-11-08T21:00:00	7	Dirección del viento	0
81827	7	Sololá	701	Sololá	4	Finca Santa Victoria	1	Enero	2023-03-01T00:00:00	2024-11-08T21:00:00	1	Precipitación	0
81828	7	Sololá	701	Sololá	4	Finca Santa Victoria	1	Enero	2023-03-01T00:00:00	2024-11-08T21:00:00	8	Radiación solar	0
81829	7	Sololá	701	Sololá	4	Finca Santa Victoria	1	Enero	2023-03-01T00:00:00	2024-11-08T22:00:00	2	Temperatura media	12.2
81830	7	Sololá	701	Sololá	4	Finca Santa Victoria	1	Enero	2023-03-01T00:00:00	2024-11-08T22:00:00	4	Temperatura máxima	12.7
81831	7	Sololá	701	Sololá	4	Finca Santa Victoria	1	Enero	2023-03-01T00:00:00	2024-11-08T22:00:00	3	Temperatura mínima	12.2
81832	7	Sololá	701	Sololá	4	Finca Santa Victoria	1	Enero	2023-03-01T00:00:00	2024-11-08T22:00:00	5	Humedad	95
81833	7	Sololá	701	Sololá	4	Finca Santa Victoria	1	Enero	2023-03-01T00:00:00	2024-11-08T22:00:00	6	Velocidad del viento	0
81834	7	Sololá	701	Sololá	4	Finca Santa Victoria	1	Enero	2023-03-01T00:00:00	2024-11-08T22:00:00	7	Dirección del viento	0
81835	7	Sololá	701	Sololá	4	Finca Santa Victoria	1	Enero	2023-03-01T00:00:00	2024-11-08T22:00:00	1	Precipitación	0
81836	7	Sololá	701	Sololá	4	Finca Santa Victoria	1	Enero	2023-03-01T00:00:00	2024-11-08T22:00:00	8	Radiación solar	0
81837	7	Sololá	701	Sololá	4	Finca Santa Victoria	1	Enero	2023-03-01T00:00:00	2024-11-08T23:00:00	2	Temperatura media	11.3
81838	7	Sololá	701	Sololá	4	Finca Santa Victoria	1	Enero	2023-03-01T00:00:00	2024-11-08T23:00:00	4	Temperatura máxima	12.2
81839	7	Sololá	701	Sololá	4	Finca Santa Victoria	1	Enero	2023-03-01T00:00:00	2024-11-08T23:00:00	3	Temperatura mínima	11.3
81840	7	Sololá	701	Sololá	4	Finca Santa Victoria	1	Enero	2023-03-01T00:00:00	2024-11-08T23:00:00	5	Humedad	96
81841	7	Sololá	701	Sololá	4	Finca Santa Victoria	1	Enero	2023-03-01T00:00:00	2024-11-08T23:00:00	6	Velocidad del viento	0
81842	7	Sololá	701	Sololá	4	Finca Santa Victoria	1	Enero	2023-03-01T00:00:00	2024-11-08T23:00:00	7	Dirección del viento	0
81843	7	Sololá	701	Sololá	4	Finca Santa Victoria	1	Enero	2023-03-01T00:00:00	2024-11-08T23:00:00	1	Precipitación	0
81844	7	Sololá	701	Sololá	4	Finca Santa Victoria	1	Enero	2023-03-01T00:00:00	2024-11-08T23:00:00	8	Radiación solar	0
81845	7	Sololá	701	Sololá	4	Finca Santa Victoria	1	Enero	2023-04-01T00:00:00	2024-11-08T00:00:00	2	Temperatura media	11.4
81846	7	Sololá	701	Sololá	4	Finca Santa Victoria	1	Enero	2023-04-01T00:00:00	2024-11-08T00:00:00	4	Temperatura máxima	11.5
81847	7	Sololá	701	Sololá	4	Finca Santa Victoria	1	Enero	2023-04-01T00:00:00	2024-11-08T00:00:00	3	Temperatura mínima	11.3
81848	7	Sololá	701	Sololá	4	Finca Santa Victoria	1	Enero	2023-04-01T00:00:00	2024-11-08T00:00:00	5	Humedad	96
81849	7	Sololá	701	Sololá	4	Finca Santa Victoria	1	Enero	2023-04-01T00:00:00	2024-11-08T00:00:00	6	Velocidad del viento	1.6
81850	7	Sololá	701	Sololá	4	Finca Santa Victoria	1	Enero	2023-04-01T00:00:00	2024-11-08T00:00:00	7	Dirección del viento	1.61
81851	7	Sololá	701	Sololá	4	Finca Santa Victoria	1	Enero	2023-04-01T00:00:00	2024-11-08T00:00:00	1	Precipitación	0
81852	7	Sololá	701	Sololá	4	Finca Santa Victoria	1	Enero	2023-04-01T00:00:00	2024-11-08T00:00:00	8	Radiación solar	0
81853	7	Sololá	701	Sololá	4	Finca Santa Victoria	1	Enero	2023-04-01T00:00:00	2024-11-08T01:00:00	2	Temperatura media	11.3
81854	7	Sololá	701	Sololá	4	Finca Santa Victoria	1	Enero	2023-04-01T00:00:00	2024-11-08T01:00:00	4	Temperatura máxima	11.4
81855	7	Sololá	701	Sololá	4	Finca Santa Victoria	1	Enero	2023-04-01T00:00:00	2024-11-08T01:00:00	3	Temperatura mínima	11.3
81856	7	Sololá	701	Sololá	4	Finca Santa Victoria	1	Enero	2023-04-01T00:00:00	2024-11-08T01:00:00	5	Humedad	93
81857	7	Sololá	701	Sololá	4	Finca Santa Victoria	1	Enero	2023-04-01T00:00:00	2024-11-08T01:00:00	6	Velocidad del viento	0
81858	7	Sololá	701	Sololá	4	Finca Santa Victoria	1	Enero	2023-04-01T00:00:00	2024-11-08T01:00:00	7	Dirección del viento	0
81859	7	Sololá	701	Sololá	4	Finca Santa Victoria	1	Enero	2023-04-01T00:00:00	2024-11-08T01:00:00	1	Precipitación	0
81860	7	Sololá	701	Sololá	4	Finca Santa Victoria	1	Enero	2023-04-01T00:00:00	2024-11-08T01:00:00	8	Radiación solar	0
81861	7	Sololá	701	Sololá	4	Finca Santa Victoria	1	Enero	2023-04-01T00:00:00	2024-11-08T02:00:00	2	Temperatura media	11
81862	7	Sololá	701	Sololá	4	Finca Santa Victoria	1	Enero	2023-04-01T00:00:00	2024-11-08T02:00:00	4	Temperatura máxima	11.3
81863	7	Sololá	701	Sololá	4	Finca Santa Victoria	1	Enero	2023-04-01T00:00:00	2024-11-08T02:00:00	3	Temperatura mínima	10.8
81864	7	Sololá	701	Sololá	4	Finca Santa Victoria	1	Enero	2023-04-01T00:00:00	2024-11-08T02:00:00	5	Humedad	93
81865	7	Sololá	701	Sololá	4	Finca Santa Victoria	1	Enero	2023-04-01T00:00:00	2024-11-08T02:00:00	6	Velocidad del viento	1.6
81866	7	Sololá	701	Sololá	4	Finca Santa Victoria	1	Enero	2023-04-01T00:00:00	2024-11-08T02:00:00	7	Dirección del viento	1.61
81867	7	Sololá	701	Sololá	4	Finca Santa Victoria	1	Enero	2023-04-01T00:00:00	2024-11-08T02:00:00	1	Precipitación	0
81868	7	Sololá	701	Sololá	4	Finca Santa Victoria	1	Enero	2023-04-01T00:00:00	2024-11-08T02:00:00	8	Radiación solar	0
81869	7	Sololá	701	Sololá	4	Finca Santa Victoria	1	Enero	2023-04-01T00:00:00	2024-11-08T03:00:00	2	Temperatura media	10.8
81870	7	Sololá	701	Sololá	4	Finca Santa Victoria	1	Enero	2023-04-01T00:00:00	2024-11-08T03:00:00	4	Temperatura máxima	11
81871	7	Sololá	701	Sololá	4	Finca Santa Victoria	1	Enero	2023-04-01T00:00:00	2024-11-08T03:00:00	3	Temperatura mínima	10.7
81872	7	Sololá	701	Sololá	4	Finca Santa Victoria	1	Enero	2023-04-01T00:00:00	2024-11-08T03:00:00	5	Humedad	93
81873	7	Sololá	701	Sololá	4	Finca Santa Victoria	1	Enero	2023-04-01T00:00:00	2024-11-08T03:00:00	6	Velocidad del viento	1.6
81874	7	Sololá	701	Sololá	4	Finca Santa Victoria	1	Enero	2023-04-01T00:00:00	2024-11-08T03:00:00	7	Dirección del viento	1.61
81875	7	Sololá	701	Sololá	4	Finca Santa Victoria	1	Enero	2023-04-01T00:00:00	2024-11-08T03:00:00	1	Precipitación	0
81876	7	Sololá	701	Sololá	4	Finca Santa Victoria	1	Enero	2023-04-01T00:00:00	2024-11-08T03:00:00	8	Radiación solar	0
81877	7	Sololá	701	Sololá	4	Finca Santa Victoria	1	Enero	2023-04-01T00:00:00	2024-11-08T04:00:00	2	Temperatura media	10.7
81878	7	Sololá	701	Sololá	4	Finca Santa Victoria	1	Enero	2023-04-01T00:00:00	2024-11-08T04:00:00	4	Temperatura máxima	10.9
81879	7	Sololá	701	Sololá	4	Finca Santa Victoria	1	Enero	2023-04-01T00:00:00	2024-11-08T04:00:00	3	Temperatura mínima	10.6
81880	7	Sololá	701	Sololá	4	Finca Santa Victoria	1	Enero	2023-04-01T00:00:00	2024-11-08T04:00:00	5	Humedad	91
81881	7	Sololá	701	Sololá	4	Finca Santa Victoria	1	Enero	2023-04-01T00:00:00	2024-11-08T04:00:00	6	Velocidad del viento	1.6
81882	7	Sololá	701	Sololá	4	Finca Santa Victoria	1	Enero	2023-04-01T00:00:00	2024-11-08T04:00:00	7	Dirección del viento	1.61
81883	7	Sololá	701	Sololá	4	Finca Santa Victoria	1	Enero	2023-04-01T00:00:00	2024-11-08T04:00:00	1	Precipitación	0
81884	7	Sololá	701	Sololá	4	Finca Santa Victoria	1	Enero	2023-04-01T00:00:00	2024-11-08T04:00:00	8	Radiación solar	0
81885	7	Sololá	701	Sololá	4	Finca Santa Victoria	1	Enero	2023-04-01T00:00:00	2024-11-08T05:00:00	2	Temperatura media	9.9
81886	7	Sololá	701	Sololá	4	Finca Santa Victoria	1	Enero	2023-04-01T00:00:00	2024-11-08T05:00:00	4	Temperatura máxima	10.6
81887	7	Sololá	701	Sololá	4	Finca Santa Victoria	1	Enero	2023-04-01T00:00:00	2024-11-08T05:00:00	3	Temperatura mínima	9.9
81888	7	Sololá	701	Sololá	4	Finca Santa Victoria	1	Enero	2023-04-01T00:00:00	2024-11-08T05:00:00	5	Humedad	91
81889	7	Sololá	701	Sololá	4	Finca Santa Victoria	1	Enero	2023-04-01T00:00:00	2024-11-08T05:00:00	6	Velocidad del viento	1.6
81890	7	Sololá	701	Sololá	4	Finca Santa Victoria	1	Enero	2023-04-01T00:00:00	2024-11-08T05:00:00	7	Dirección del viento	1.61
81891	7	Sololá	701	Sololá	4	Finca Santa Victoria	1	Enero	2023-04-01T00:00:00	2024-11-08T05:00:00	1	Precipitación	0
81892	7	Sololá	701	Sololá	4	Finca Santa Victoria	1	Enero	2023-04-01T00:00:00	2024-11-08T05:00:00	8	Radiación solar	0
81893	7	Sololá	701	Sololá	4	Finca Santa Victoria	1	Enero	2023-04-01T00:00:00	2024-11-08T06:00:00	2	Temperatura media	9.7
81894	7	Sololá	701	Sololá	4	Finca Santa Victoria	1	Enero	2023-04-01T00:00:00	2024-11-08T06:00:00	4	Temperatura máxima	10
81895	7	Sololá	701	Sololá	4	Finca Santa Victoria	1	Enero	2023-04-01T00:00:00	2024-11-08T06:00:00	3	Temperatura mínima	9.6
81896	7	Sololá	701	Sololá	4	Finca Santa Victoria	1	Enero	2023-04-01T00:00:00	2024-11-08T06:00:00	5	Humedad	91
81897	7	Sololá	701	Sololá	4	Finca Santa Victoria	1	Enero	2023-04-01T00:00:00	2024-11-08T06:00:00	6	Velocidad del viento	1.6
81898	7	Sololá	701	Sololá	4	Finca Santa Victoria	1	Enero	2023-04-01T00:00:00	2024-11-08T06:00:00	7	Dirección del viento	1.61
81899	7	Sololá	701	Sololá	4	Finca Santa Victoria	1	Enero	2023-04-01T00:00:00	2024-11-08T06:00:00	1	Precipitación	0
81900	7	Sololá	701	Sololá	4	Finca Santa Victoria	1	Enero	2023-04-01T00:00:00	2024-11-08T06:00:00	8	Radiación solar	0
81901	7	Sololá	701	Sololá	4	Finca Santa Victoria	1	Enero	2023-04-01T00:00:00	2024-11-08T07:00:00	2	Temperatura media	10.4
81902	7	Sololá	701	Sololá	4	Finca Santa Victoria	1	Enero	2023-04-01T00:00:00	2024-11-08T07:00:00	4	Temperatura máxima	10.4
81903	7	Sololá	701	Sololá	4	Finca Santa Victoria	1	Enero	2023-04-01T00:00:00	2024-11-08T07:00:00	3	Temperatura mínima	9.6
81904	7	Sololá	701	Sololá	4	Finca Santa Victoria	1	Enero	2023-04-01T00:00:00	2024-11-08T07:00:00	5	Humedad	90
81905	7	Sololá	701	Sololá	4	Finca Santa Victoria	1	Enero	2023-04-01T00:00:00	2024-11-08T07:00:00	6	Velocidad del viento	1.6
81906	7	Sololá	701	Sololá	4	Finca Santa Victoria	1	Enero	2023-04-01T00:00:00	2024-11-08T07:00:00	7	Dirección del viento	1.61
81907	7	Sololá	701	Sololá	4	Finca Santa Victoria	1	Enero	2023-04-01T00:00:00	2024-11-08T07:00:00	1	Precipitación	0
81908	7	Sololá	701	Sololá	4	Finca Santa Victoria	1	Enero	2023-04-01T00:00:00	2024-11-08T07:00:00	8	Radiación solar	3
81909	7	Sololá	701	Sololá	4	Finca Santa Victoria	1	Enero	2023-04-01T00:00:00	2024-11-08T08:00:00	2	Temperatura media	12.2
81910	7	Sololá	701	Sololá	4	Finca Santa Victoria	1	Enero	2023-04-01T00:00:00	2024-11-08T08:00:00	4	Temperatura máxima	12.2
81911	7	Sololá	701	Sololá	4	Finca Santa Victoria	1	Enero	2023-04-01T00:00:00	2024-11-08T08:00:00	3	Temperatura mínima	10.4
81912	7	Sololá	701	Sololá	4	Finca Santa Victoria	1	Enero	2023-04-01T00:00:00	2024-11-08T08:00:00	5	Humedad	83
81913	7	Sololá	701	Sololá	4	Finca Santa Victoria	1	Enero	2023-04-01T00:00:00	2024-11-08T08:00:00	6	Velocidad del viento	1.6
81914	7	Sololá	701	Sololá	4	Finca Santa Victoria	1	Enero	2023-04-01T00:00:00	2024-11-08T08:00:00	7	Dirección del viento	1.61
81915	7	Sololá	701	Sololá	4	Finca Santa Victoria	1	Enero	2023-04-01T00:00:00	2024-11-08T08:00:00	1	Precipitación	0
81916	7	Sololá	701	Sololá	4	Finca Santa Victoria	1	Enero	2023-04-01T00:00:00	2024-11-08T08:00:00	8	Radiación solar	29
81917	7	Sololá	701	Sololá	4	Finca Santa Victoria	1	Enero	2023-04-01T00:00:00	2024-11-08T09:00:00	2	Temperatura media	15.6
81918	7	Sololá	701	Sololá	4	Finca Santa Victoria	1	Enero	2023-04-01T00:00:00	2024-11-08T09:00:00	4	Temperatura máxima	15.6
81919	7	Sololá	701	Sololá	4	Finca Santa Victoria	1	Enero	2023-04-01T00:00:00	2024-11-08T09:00:00	3	Temperatura mínima	12.2
81920	7	Sololá	701	Sololá	4	Finca Santa Victoria	1	Enero	2023-04-01T00:00:00	2024-11-08T09:00:00	5	Humedad	72
81921	7	Sololá	701	Sololá	4	Finca Santa Victoria	1	Enero	2023-04-01T00:00:00	2024-11-08T09:00:00	6	Velocidad del viento	1.6
81922	7	Sololá	701	Sololá	4	Finca Santa Victoria	1	Enero	2023-04-01T00:00:00	2024-11-08T09:00:00	7	Dirección del viento	1.61
81923	7	Sololá	701	Sololá	4	Finca Santa Victoria	1	Enero	2023-04-01T00:00:00	2024-11-08T09:00:00	1	Precipitación	0
81924	7	Sololá	701	Sololá	4	Finca Santa Victoria	1	Enero	2023-04-01T00:00:00	2024-11-08T09:00:00	8	Radiación solar	230
81925	7	Sololá	701	Sololá	4	Finca Santa Victoria	1	Enero	2023-04-01T00:00:00	2024-11-08T10:00:00	2	Temperatura media	17.8
81926	7	Sololá	701	Sololá	4	Finca Santa Victoria	1	Enero	2023-04-01T00:00:00	2024-11-08T10:00:00	4	Temperatura máxima	17.8
81927	7	Sololá	701	Sololá	4	Finca Santa Victoria	1	Enero	2023-04-01T00:00:00	2024-11-08T10:00:00	3	Temperatura mínima	15.6
81928	7	Sololá	701	Sololá	4	Finca Santa Victoria	1	Enero	2023-04-01T00:00:00	2024-11-08T10:00:00	5	Humedad	54
81929	7	Sololá	701	Sololá	4	Finca Santa Victoria	1	Enero	2023-04-01T00:00:00	2024-11-08T10:00:00	6	Velocidad del viento	3.2
81930	7	Sololá	701	Sololá	4	Finca Santa Victoria	1	Enero	2023-04-01T00:00:00	2024-11-08T10:00:00	7	Dirección del viento	3.22
81931	7	Sololá	701	Sololá	4	Finca Santa Victoria	1	Enero	2023-04-01T00:00:00	2024-11-08T10:00:00	1	Precipitación	0
81932	7	Sololá	701	Sololá	4	Finca Santa Victoria	1	Enero	2023-04-01T00:00:00	2024-11-08T10:00:00	8	Radiación solar	582
81933	7	Sololá	701	Sololá	4	Finca Santa Victoria	1	Enero	2023-04-01T00:00:00	2024-11-08T11:00:00	2	Temperatura media	19
81934	7	Sololá	701	Sololá	4	Finca Santa Victoria	1	Enero	2023-04-01T00:00:00	2024-11-08T11:00:00	4	Temperatura máxima	19
81935	7	Sololá	701	Sololá	4	Finca Santa Victoria	1	Enero	2023-04-01T00:00:00	2024-11-08T11:00:00	3	Temperatura mínima	17.7
81936	7	Sololá	701	Sololá	4	Finca Santa Victoria	1	Enero	2023-04-01T00:00:00	2024-11-08T11:00:00	5	Humedad	50
81937	7	Sololá	701	Sololá	4	Finca Santa Victoria	1	Enero	2023-04-01T00:00:00	2024-11-08T11:00:00	6	Velocidad del viento	4.8
81938	7	Sololá	701	Sololá	4	Finca Santa Victoria	1	Enero	2023-04-01T00:00:00	2024-11-08T11:00:00	7	Dirección del viento	4.83
81939	7	Sololá	701	Sololá	4	Finca Santa Victoria	1	Enero	2023-04-01T00:00:00	2024-11-08T11:00:00	1	Precipitación	0
81940	7	Sololá	701	Sololá	4	Finca Santa Victoria	1	Enero	2023-04-01T00:00:00	2024-11-08T11:00:00	8	Radiación solar	770
81941	7	Sololá	701	Sololá	4	Finca Santa Victoria	1	Enero	2023-04-01T00:00:00	2024-11-08T12:00:00	2	Temperatura media	20.5
81942	7	Sololá	701	Sololá	4	Finca Santa Victoria	1	Enero	2023-04-01T00:00:00	2024-11-08T12:00:00	4	Temperatura máxima	20.5
81943	7	Sololá	701	Sololá	4	Finca Santa Victoria	1	Enero	2023-04-01T00:00:00	2024-11-08T12:00:00	3	Temperatura mínima	19
81944	7	Sololá	701	Sololá	4	Finca Santa Victoria	1	Enero	2023-04-01T00:00:00	2024-11-08T12:00:00	5	Humedad	49
81945	7	Sololá	701	Sololá	4	Finca Santa Victoria	1	Enero	2023-04-01T00:00:00	2024-11-08T12:00:00	6	Velocidad del viento	3.2
81946	7	Sololá	701	Sololá	4	Finca Santa Victoria	1	Enero	2023-04-01T00:00:00	2024-11-08T12:00:00	7	Dirección del viento	3.22
81947	7	Sololá	701	Sololá	4	Finca Santa Victoria	1	Enero	2023-04-01T00:00:00	2024-11-08T12:00:00	1	Precipitación	0
81948	7	Sololá	701	Sololá	4	Finca Santa Victoria	1	Enero	2023-04-01T00:00:00	2024-11-08T12:00:00	8	Radiación solar	847
81949	7	Sololá	701	Sololá	4	Finca Santa Victoria	1	Enero	2023-04-01T00:00:00	2024-11-08T13:00:00	2	Temperatura media	19.6
81950	7	Sololá	701	Sololá	4	Finca Santa Victoria	1	Enero	2023-04-01T00:00:00	2024-11-08T13:00:00	4	Temperatura máxima	21.6
81951	7	Sololá	701	Sololá	4	Finca Santa Victoria	1	Enero	2023-04-01T00:00:00	2024-11-08T13:00:00	3	Temperatura mínima	19.6
81952	7	Sololá	701	Sololá	4	Finca Santa Victoria	1	Enero	2023-04-01T00:00:00	2024-11-08T13:00:00	5	Humedad	71
81953	7	Sololá	701	Sololá	4	Finca Santa Victoria	1	Enero	2023-04-01T00:00:00	2024-11-08T13:00:00	6	Velocidad del viento	3.2
81954	7	Sololá	701	Sololá	4	Finca Santa Victoria	1	Enero	2023-04-01T00:00:00	2024-11-08T13:00:00	7	Dirección del viento	3.22
81955	7	Sololá	701	Sololá	4	Finca Santa Victoria	1	Enero	2023-04-01T00:00:00	2024-11-08T13:00:00	1	Precipitación	0
81956	7	Sololá	701	Sololá	4	Finca Santa Victoria	1	Enero	2023-04-01T00:00:00	2024-11-08T13:00:00	8	Radiación solar	839
81957	7	Sololá	701	Sololá	4	Finca Santa Victoria	1	Enero	2023-04-01T00:00:00	2024-11-08T14:00:00	2	Temperatura media	18.8
81958	7	Sololá	701	Sololá	4	Finca Santa Victoria	1	Enero	2023-04-01T00:00:00	2024-11-08T14:00:00	4	Temperatura máxima	19.6
81959	7	Sololá	701	Sololá	4	Finca Santa Victoria	1	Enero	2023-04-01T00:00:00	2024-11-08T14:00:00	3	Temperatura mínima	18.6
81960	7	Sololá	701	Sololá	4	Finca Santa Victoria	1	Enero	2023-04-01T00:00:00	2024-11-08T14:00:00	5	Humedad	71
81961	7	Sololá	701	Sololá	4	Finca Santa Victoria	1	Enero	2023-04-01T00:00:00	2024-11-08T14:00:00	6	Velocidad del viento	3.2
81962	7	Sololá	701	Sololá	4	Finca Santa Victoria	1	Enero	2023-04-01T00:00:00	2024-11-08T14:00:00	7	Dirección del viento	3.22
81963	7	Sololá	701	Sololá	4	Finca Santa Victoria	1	Enero	2023-04-01T00:00:00	2024-11-08T14:00:00	1	Precipitación	0
81964	7	Sololá	701	Sololá	4	Finca Santa Victoria	1	Enero	2023-04-01T00:00:00	2024-11-08T14:00:00	8	Radiación solar	733
81965	7	Sololá	701	Sololá	4	Finca Santa Victoria	1	Enero	2023-04-01T00:00:00	2024-11-08T15:00:00	2	Temperatura media	18.7
81966	7	Sololá	701	Sololá	4	Finca Santa Victoria	1	Enero	2023-04-01T00:00:00	2024-11-08T15:00:00	4	Temperatura máxima	18.9
81967	7	Sololá	701	Sololá	4	Finca Santa Victoria	1	Enero	2023-04-01T00:00:00	2024-11-08T15:00:00	3	Temperatura mínima	18.4
81968	7	Sololá	701	Sololá	4	Finca Santa Victoria	1	Enero	2023-04-01T00:00:00	2024-11-08T15:00:00	5	Humedad	78
81969	7	Sololá	701	Sololá	4	Finca Santa Victoria	1	Enero	2023-04-01T00:00:00	2024-11-08T15:00:00	6	Velocidad del viento	4.8
81970	7	Sololá	701	Sololá	4	Finca Santa Victoria	1	Enero	2023-04-01T00:00:00	2024-11-08T15:00:00	7	Dirección del viento	4.83
81971	7	Sololá	701	Sololá	4	Finca Santa Victoria	1	Enero	2023-04-01T00:00:00	2024-11-08T15:00:00	1	Precipitación	0
81972	7	Sololá	701	Sololá	4	Finca Santa Victoria	1	Enero	2023-04-01T00:00:00	2024-11-08T15:00:00	8	Radiación solar	399
81973	7	Sololá	701	Sololá	4	Finca Santa Victoria	1	Enero	2023-04-01T00:00:00	2024-11-08T16:00:00	2	Temperatura media	19.3
81974	7	Sololá	701	Sololá	4	Finca Santa Victoria	1	Enero	2023-04-01T00:00:00	2024-11-08T16:00:00	4	Temperatura máxima	19.3
81975	7	Sololá	701	Sololá	4	Finca Santa Victoria	1	Enero	2023-04-01T00:00:00	2024-11-08T16:00:00	3	Temperatura mínima	18.5
81976	7	Sololá	701	Sololá	4	Finca Santa Victoria	1	Enero	2023-04-01T00:00:00	2024-11-08T16:00:00	5	Humedad	70
81977	7	Sololá	701	Sololá	4	Finca Santa Victoria	1	Enero	2023-04-01T00:00:00	2024-11-08T16:00:00	6	Velocidad del viento	3.2
81978	7	Sololá	701	Sololá	4	Finca Santa Victoria	1	Enero	2023-04-01T00:00:00	2024-11-08T16:00:00	7	Dirección del viento	3.22
81979	7	Sololá	701	Sololá	4	Finca Santa Victoria	1	Enero	2023-04-01T00:00:00	2024-11-08T16:00:00	1	Precipitación	0
81980	7	Sololá	701	Sololá	4	Finca Santa Victoria	1	Enero	2023-04-01T00:00:00	2024-11-08T16:00:00	8	Radiación solar	448
81981	7	Sololá	701	Sololá	4	Finca Santa Victoria	1	Enero	2023-04-01T00:00:00	2024-11-08T17:00:00	2	Temperatura media	18.4
81982	7	Sololá	701	Sololá	4	Finca Santa Victoria	1	Enero	2023-04-01T00:00:00	2024-11-08T17:00:00	4	Temperatura máxima	19.7
81983	7	Sololá	701	Sololá	4	Finca Santa Victoria	1	Enero	2023-04-01T00:00:00	2024-11-08T17:00:00	3	Temperatura mínima	18.4
81984	7	Sololá	701	Sololá	4	Finca Santa Victoria	1	Enero	2023-04-01T00:00:00	2024-11-08T17:00:00	5	Humedad	51
81985	7	Sololá	701	Sololá	4	Finca Santa Victoria	1	Enero	2023-04-01T00:00:00	2024-11-08T17:00:00	6	Velocidad del viento	3.2
81986	7	Sololá	701	Sololá	4	Finca Santa Victoria	1	Enero	2023-04-01T00:00:00	2024-11-08T17:00:00	7	Dirección del viento	3.22
81987	7	Sololá	701	Sololá	4	Finca Santa Victoria	1	Enero	2023-04-01T00:00:00	2024-11-08T17:00:00	1	Precipitación	0
81988	7	Sololá	701	Sololá	4	Finca Santa Victoria	1	Enero	2023-04-01T00:00:00	2024-11-08T17:00:00	8	Radiación solar	221
81989	7	Sololá	701	Sololá	4	Finca Santa Victoria	1	Enero	2023-04-01T00:00:00	2024-11-08T18:00:00	2	Temperatura media	14.9
81990	7	Sololá	701	Sololá	4	Finca Santa Victoria	1	Enero	2023-04-01T00:00:00	2024-11-08T18:00:00	4	Temperatura máxima	18.4
81991	7	Sololá	701	Sololá	4	Finca Santa Victoria	1	Enero	2023-04-01T00:00:00	2024-11-08T18:00:00	3	Temperatura mínima	14.9
81992	7	Sololá	701	Sololá	4	Finca Santa Victoria	1	Enero	2023-04-01T00:00:00	2024-11-08T18:00:00	5	Humedad	62
81993	7	Sololá	701	Sololá	4	Finca Santa Victoria	1	Enero	2023-04-01T00:00:00	2024-11-08T18:00:00	6	Velocidad del viento	1.6
81994	7	Sololá	701	Sololá	4	Finca Santa Victoria	1	Enero	2023-04-01T00:00:00	2024-11-08T18:00:00	7	Dirección del viento	1.61
81995	7	Sololá	701	Sololá	4	Finca Santa Victoria	1	Enero	2023-04-01T00:00:00	2024-11-08T18:00:00	1	Precipitación	0
81996	7	Sololá	701	Sololá	4	Finca Santa Victoria	1	Enero	2023-04-01T00:00:00	2024-11-08T18:00:00	8	Radiación solar	25
81997	7	Sololá	701	Sololá	4	Finca Santa Victoria	1	Enero	2023-04-01T00:00:00	2024-11-08T19:00:00	2	Temperatura media	13.6
81998	7	Sololá	701	Sololá	4	Finca Santa Victoria	1	Enero	2023-04-01T00:00:00	2024-11-08T19:00:00	4	Temperatura máxima	14.9
81999	7	Sololá	701	Sololá	4	Finca Santa Victoria	1	Enero	2023-04-01T00:00:00	2024-11-08T19:00:00	3	Temperatura mínima	13.6
82000	7	Sololá	701	Sololá	4	Finca Santa Victoria	1	Enero	2023-04-01T00:00:00	2024-11-08T19:00:00	5	Humedad	68
82001	7	Sololá	701	Sololá	4	Finca Santa Victoria	1	Enero	2023-04-01T00:00:00	2024-11-08T19:00:00	6	Velocidad del viento	3.2
82002	7	Sololá	701	Sololá	4	Finca Santa Victoria	1	Enero	2023-04-01T00:00:00	2024-11-08T19:00:00	7	Dirección del viento	3.22
82003	7	Sololá	701	Sololá	4	Finca Santa Victoria	1	Enero	2023-04-01T00:00:00	2024-11-08T19:00:00	1	Precipitación	0
82004	7	Sololá	701	Sololá	4	Finca Santa Victoria	1	Enero	2023-04-01T00:00:00	2024-11-08T19:00:00	8	Radiación solar	0
82005	7	Sololá	701	Sololá	4	Finca Santa Victoria	1	Enero	2023-04-01T00:00:00	2024-11-08T20:00:00	2	Temperatura media	12.8
82006	7	Sololá	701	Sololá	4	Finca Santa Victoria	1	Enero	2023-04-01T00:00:00	2024-11-08T20:00:00	4	Temperatura máxima	13.6
82007	7	Sololá	701	Sololá	4	Finca Santa Victoria	1	Enero	2023-04-01T00:00:00	2024-11-08T20:00:00	3	Temperatura mínima	12.8
82008	7	Sololá	701	Sololá	4	Finca Santa Victoria	1	Enero	2023-04-01T00:00:00	2024-11-08T20:00:00	5	Humedad	68
82009	7	Sololá	701	Sololá	4	Finca Santa Victoria	1	Enero	2023-04-01T00:00:00	2024-11-08T20:00:00	6	Velocidad del viento	3.2
82010	7	Sololá	701	Sololá	4	Finca Santa Victoria	1	Enero	2023-04-01T00:00:00	2024-11-08T20:00:00	7	Dirección del viento	3.22
82011	7	Sololá	701	Sololá	4	Finca Santa Victoria	1	Enero	2023-04-01T00:00:00	2024-11-08T20:00:00	1	Precipitación	0
82012	7	Sololá	701	Sololá	4	Finca Santa Victoria	1	Enero	2023-04-01T00:00:00	2024-11-08T20:00:00	8	Radiación solar	0
82013	7	Sololá	701	Sololá	4	Finca Santa Victoria	1	Enero	2023-04-01T00:00:00	2024-11-08T21:00:00	2	Temperatura media	12.3
82014	7	Sololá	701	Sololá	4	Finca Santa Victoria	1	Enero	2023-04-01T00:00:00	2024-11-08T21:00:00	4	Temperatura máxima	12.9
82015	7	Sololá	701	Sololá	4	Finca Santa Victoria	1	Enero	2023-04-01T00:00:00	2024-11-08T21:00:00	3	Temperatura mínima	12.3
82016	7	Sololá	701	Sololá	4	Finca Santa Victoria	1	Enero	2023-04-01T00:00:00	2024-11-08T21:00:00	5	Humedad	68
82017	7	Sololá	701	Sololá	4	Finca Santa Victoria	1	Enero	2023-04-01T00:00:00	2024-11-08T21:00:00	6	Velocidad del viento	3.2
82018	7	Sololá	701	Sololá	4	Finca Santa Victoria	1	Enero	2023-04-01T00:00:00	2024-11-08T21:00:00	7	Dirección del viento	3.22
82019	7	Sololá	701	Sololá	4	Finca Santa Victoria	1	Enero	2023-04-01T00:00:00	2024-11-08T21:00:00	1	Precipitación	0
82020	7	Sololá	701	Sololá	4	Finca Santa Victoria	1	Enero	2023-04-01T00:00:00	2024-11-08T21:00:00	8	Radiación solar	0
82021	7	Sololá	701	Sololá	4	Finca Santa Victoria	1	Enero	2023-04-01T00:00:00	2024-11-08T22:00:00	2	Temperatura media	11.8
82022	7	Sololá	701	Sololá	4	Finca Santa Victoria	1	Enero	2023-04-01T00:00:00	2024-11-08T22:00:00	4	Temperatura máxima	12.3
82023	7	Sololá	701	Sololá	4	Finca Santa Victoria	1	Enero	2023-04-01T00:00:00	2024-11-08T22:00:00	3	Temperatura mínima	11.7
82024	7	Sololá	701	Sololá	4	Finca Santa Victoria	1	Enero	2023-04-01T00:00:00	2024-11-08T22:00:00	5	Humedad	73
82025	7	Sololá	701	Sololá	4	Finca Santa Victoria	1	Enero	2023-04-01T00:00:00	2024-11-08T22:00:00	6	Velocidad del viento	3.2
82026	7	Sololá	701	Sololá	4	Finca Santa Victoria	1	Enero	2023-04-01T00:00:00	2024-11-08T22:00:00	7	Dirección del viento	3.22
82027	7	Sololá	701	Sololá	4	Finca Santa Victoria	1	Enero	2023-04-01T00:00:00	2024-11-08T22:00:00	1	Precipitación	0
82028	7	Sololá	701	Sololá	4	Finca Santa Victoria	1	Enero	2023-04-01T00:00:00	2024-11-08T22:00:00	8	Radiación solar	0
82029	7	Sololá	701	Sololá	4	Finca Santa Victoria	1	Enero	2023-04-01T00:00:00	2024-11-08T23:00:00	2	Temperatura media	10.8
82030	7	Sololá	701	Sololá	4	Finca Santa Victoria	1	Enero	2023-04-01T00:00:00	2024-11-08T23:00:00	4	Temperatura máxima	11.8
82031	7	Sololá	701	Sololá	4	Finca Santa Victoria	1	Enero	2023-04-01T00:00:00	2024-11-08T23:00:00	3	Temperatura mínima	10.8
82032	7	Sololá	701	Sololá	4	Finca Santa Victoria	1	Enero	2023-04-01T00:00:00	2024-11-08T23:00:00	5	Humedad	73
82033	7	Sololá	701	Sololá	4	Finca Santa Victoria	1	Enero	2023-04-01T00:00:00	2024-11-08T23:00:00	6	Velocidad del viento	3.2
82034	7	Sololá	701	Sololá	4	Finca Santa Victoria	1	Enero	2023-04-01T00:00:00	2024-11-08T23:00:00	7	Dirección del viento	3.22
82035	7	Sololá	701	Sololá	4	Finca Santa Victoria	1	Enero	2023-04-01T00:00:00	2024-11-08T23:00:00	1	Precipitación	0
82036	7	Sololá	701	Sololá	4	Finca Santa Victoria	1	Enero	2023-04-01T00:00:00	2024-11-08T23:00:00	8	Radiación solar	0
82037	7	Sololá	701	Sololá	4	Finca Santa Victoria	1	Enero	2023-05-01T00:00:00	2024-11-08T00:00:00	2	Temperatura media	11
82038	7	Sololá	701	Sololá	4	Finca Santa Victoria	1	Enero	2023-05-01T00:00:00	2024-11-08T00:00:00	4	Temperatura máxima	11.2
82039	7	Sololá	701	Sololá	4	Finca Santa Victoria	1	Enero	2023-05-01T00:00:00	2024-11-08T00:00:00	3	Temperatura mínima	10.8
82040	7	Sololá	701	Sololá	4	Finca Santa Victoria	1	Enero	2023-05-01T00:00:00	2024-11-08T00:00:00	5	Humedad	65
82041	7	Sololá	701	Sololá	4	Finca Santa Victoria	1	Enero	2023-05-01T00:00:00	2024-11-08T00:00:00	6	Velocidad del viento	3.2
82042	7	Sololá	701	Sololá	4	Finca Santa Victoria	1	Enero	2023-05-01T00:00:00	2024-11-08T00:00:00	7	Dirección del viento	3.22
82043	7	Sololá	701	Sololá	4	Finca Santa Victoria	1	Enero	2023-05-01T00:00:00	2024-11-08T00:00:00	1	Precipitación	0
82044	7	Sololá	701	Sololá	4	Finca Santa Victoria	1	Enero	2023-05-01T00:00:00	2024-11-08T00:00:00	8	Radiación solar	0
82045	7	Sololá	701	Sololá	4	Finca Santa Victoria	1	Enero	2023-05-01T00:00:00	2024-11-08T01:00:00	2	Temperatura media	10.8
82046	7	Sololá	701	Sololá	4	Finca Santa Victoria	1	Enero	2023-05-01T00:00:00	2024-11-08T01:00:00	4	Temperatura máxima	11.1
82047	7	Sololá	701	Sololá	4	Finca Santa Victoria	1	Enero	2023-05-01T00:00:00	2024-11-08T01:00:00	3	Temperatura mínima	10.7
82048	7	Sololá	701	Sololá	4	Finca Santa Victoria	1	Enero	2023-05-01T00:00:00	2024-11-08T01:00:00	5	Humedad	71
82049	7	Sololá	701	Sololá	4	Finca Santa Victoria	1	Enero	2023-05-01T00:00:00	2024-11-08T01:00:00	6	Velocidad del viento	1.6
82050	7	Sololá	701	Sololá	4	Finca Santa Victoria	1	Enero	2023-05-01T00:00:00	2024-11-08T01:00:00	7	Dirección del viento	1.61
82051	7	Sololá	701	Sololá	4	Finca Santa Victoria	1	Enero	2023-05-01T00:00:00	2024-11-08T01:00:00	1	Precipitación	0
82052	7	Sololá	701	Sololá	4	Finca Santa Victoria	1	Enero	2023-05-01T00:00:00	2024-11-08T01:00:00	8	Radiación solar	0
82053	7	Sololá	701	Sololá	4	Finca Santa Victoria	1	Enero	2023-05-01T00:00:00	2024-11-08T02:00:00	2	Temperatura media	11.3
82054	7	Sololá	701	Sololá	4	Finca Santa Victoria	1	Enero	2023-05-01T00:00:00	2024-11-08T02:00:00	4	Temperatura máxima	11.3
82055	7	Sololá	701	Sololá	4	Finca Santa Victoria	1	Enero	2023-05-01T00:00:00	2024-11-08T02:00:00	3	Temperatura mínima	10.8
82056	7	Sololá	701	Sololá	4	Finca Santa Victoria	1	Enero	2023-05-01T00:00:00	2024-11-08T02:00:00	5	Humedad	66
82057	7	Sololá	701	Sololá	4	Finca Santa Victoria	1	Enero	2023-05-01T00:00:00	2024-11-08T02:00:00	6	Velocidad del viento	1.6
82058	7	Sololá	701	Sololá	4	Finca Santa Victoria	1	Enero	2023-05-01T00:00:00	2024-11-08T02:00:00	7	Dirección del viento	1.61
82059	7	Sololá	701	Sololá	4	Finca Santa Victoria	1	Enero	2023-05-01T00:00:00	2024-11-08T02:00:00	1	Precipitación	0
82060	7	Sololá	701	Sololá	4	Finca Santa Victoria	1	Enero	2023-05-01T00:00:00	2024-11-08T02:00:00	8	Radiación solar	0
82061	7	Sololá	701	Sololá	4	Finca Santa Victoria	1	Enero	2023-05-01T00:00:00	2024-11-08T03:00:00	2	Temperatura media	11.7
82062	7	Sololá	701	Sololá	4	Finca Santa Victoria	1	Enero	2023-05-01T00:00:00	2024-11-08T03:00:00	4	Temperatura máxima	11.8
82063	7	Sololá	701	Sololá	4	Finca Santa Victoria	1	Enero	2023-05-01T00:00:00	2024-11-08T03:00:00	3	Temperatura mínima	11.3
82064	7	Sololá	701	Sololá	4	Finca Santa Victoria	1	Enero	2023-05-01T00:00:00	2024-11-08T03:00:00	5	Humedad	66
82065	7	Sololá	701	Sololá	4	Finca Santa Victoria	1	Enero	2023-05-01T00:00:00	2024-11-08T03:00:00	6	Velocidad del viento	3.2
82066	7	Sololá	701	Sololá	4	Finca Santa Victoria	1	Enero	2023-05-01T00:00:00	2024-11-08T03:00:00	7	Dirección del viento	3.22
82067	7	Sololá	701	Sololá	4	Finca Santa Victoria	1	Enero	2023-05-01T00:00:00	2024-11-08T03:00:00	1	Precipitación	0
82068	7	Sololá	701	Sololá	4	Finca Santa Victoria	1	Enero	2023-05-01T00:00:00	2024-11-08T03:00:00	8	Radiación solar	0
82069	7	Sololá	701	Sololá	4	Finca Santa Victoria	1	Enero	2023-05-01T00:00:00	2024-11-08T04:00:00	2	Temperatura media	11.8
82070	7	Sololá	701	Sololá	4	Finca Santa Victoria	1	Enero	2023-05-01T00:00:00	2024-11-08T04:00:00	4	Temperatura máxima	11.9
82071	7	Sololá	701	Sololá	4	Finca Santa Victoria	1	Enero	2023-05-01T00:00:00	2024-11-08T04:00:00	3	Temperatura mínima	11.7
82072	7	Sololá	701	Sololá	4	Finca Santa Victoria	1	Enero	2023-05-01T00:00:00	2024-11-08T04:00:00	5	Humedad	63
82073	7	Sololá	701	Sololá	4	Finca Santa Victoria	1	Enero	2023-05-01T00:00:00	2024-11-08T04:00:00	6	Velocidad del viento	3.2
82074	7	Sololá	701	Sololá	4	Finca Santa Victoria	1	Enero	2023-05-01T00:00:00	2024-11-08T04:00:00	7	Dirección del viento	3.22
82075	7	Sololá	701	Sololá	4	Finca Santa Victoria	1	Enero	2023-05-01T00:00:00	2024-11-08T04:00:00	1	Precipitación	0
82076	7	Sololá	701	Sololá	4	Finca Santa Victoria	1	Enero	2023-05-01T00:00:00	2024-11-08T04:00:00	8	Radiación solar	0
82077	7	Sololá	701	Sololá	4	Finca Santa Victoria	1	Enero	2023-05-01T00:00:00	2024-11-08T05:00:00	2	Temperatura media	11.7
82078	7	Sololá	701	Sololá	4	Finca Santa Victoria	1	Enero	2023-05-01T00:00:00	2024-11-08T05:00:00	4	Temperatura máxima	11.8
82079	7	Sololá	701	Sololá	4	Finca Santa Victoria	1	Enero	2023-05-01T00:00:00	2024-11-08T05:00:00	3	Temperatura mínima	11.7
82080	7	Sololá	701	Sololá	4	Finca Santa Victoria	1	Enero	2023-05-01T00:00:00	2024-11-08T05:00:00	5	Humedad	69
82081	7	Sololá	701	Sololá	4	Finca Santa Victoria	1	Enero	2023-05-01T00:00:00	2024-11-08T05:00:00	6	Velocidad del viento	1.6
82082	7	Sololá	701	Sololá	4	Finca Santa Victoria	1	Enero	2023-05-01T00:00:00	2024-11-08T05:00:00	7	Dirección del viento	1.61
82083	7	Sololá	701	Sololá	4	Finca Santa Victoria	1	Enero	2023-05-01T00:00:00	2024-11-08T05:00:00	1	Precipitación	0
82084	7	Sololá	701	Sololá	4	Finca Santa Victoria	1	Enero	2023-05-01T00:00:00	2024-11-08T05:00:00	8	Radiación solar	0
82085	7	Sololá	701	Sololá	4	Finca Santa Victoria	1	Enero	2023-05-01T00:00:00	2024-11-08T06:00:00	2	Temperatura media	11.1
82086	7	Sololá	701	Sololá	4	Finca Santa Victoria	1	Enero	2023-05-01T00:00:00	2024-11-08T06:00:00	4	Temperatura máxima	11.8
82087	7	Sololá	701	Sololá	4	Finca Santa Victoria	1	Enero	2023-05-01T00:00:00	2024-11-08T06:00:00	3	Temperatura mínima	11.1
82088	7	Sololá	701	Sololá	4	Finca Santa Victoria	1	Enero	2023-05-01T00:00:00	2024-11-08T06:00:00	5	Humedad	79
82089	7	Sololá	701	Sololá	4	Finca Santa Victoria	1	Enero	2023-05-01T00:00:00	2024-11-08T06:00:00	6	Velocidad del viento	3.2
82090	7	Sololá	701	Sololá	4	Finca Santa Victoria	1	Enero	2023-05-01T00:00:00	2024-11-08T06:00:00	7	Dirección del viento	3.22
82091	7	Sololá	701	Sololá	4	Finca Santa Victoria	1	Enero	2023-05-01T00:00:00	2024-11-08T06:00:00	1	Precipitación	0
82092	7	Sololá	701	Sololá	4	Finca Santa Victoria	1	Enero	2023-05-01T00:00:00	2024-11-08T06:00:00	8	Radiación solar	0
82093	7	Sololá	701	Sololá	4	Finca Santa Victoria	1	Enero	2023-05-01T00:00:00	2024-11-08T07:00:00	2	Temperatura media	10.2
82094	7	Sololá	701	Sololá	4	Finca Santa Victoria	1	Enero	2023-05-01T00:00:00	2024-11-08T07:00:00	4	Temperatura máxima	11.1
82095	7	Sololá	701	Sololá	4	Finca Santa Victoria	1	Enero	2023-05-01T00:00:00	2024-11-08T07:00:00	3	Temperatura mínima	10.2
82096	7	Sololá	701	Sololá	4	Finca Santa Victoria	1	Enero	2023-05-01T00:00:00	2024-11-08T07:00:00	5	Humedad	91
82097	7	Sololá	701	Sololá	4	Finca Santa Victoria	1	Enero	2023-05-01T00:00:00	2024-11-08T07:00:00	6	Velocidad del viento	3.2
82098	7	Sololá	701	Sololá	4	Finca Santa Victoria	1	Enero	2023-05-01T00:00:00	2024-11-08T07:00:00	7	Dirección del viento	3.22
82099	7	Sololá	701	Sololá	4	Finca Santa Victoria	1	Enero	2023-05-01T00:00:00	2024-11-08T07:00:00	1	Precipitación	0
82100	7	Sololá	701	Sololá	4	Finca Santa Victoria	1	Enero	2023-05-01T00:00:00	2024-11-08T07:00:00	8	Radiación solar	0
82101	7	Sololá	701	Sololá	4	Finca Santa Victoria	1	Enero	2023-05-01T00:00:00	2024-11-08T08:00:00	2	Temperatura media	10.4
82102	7	Sololá	701	Sololá	4	Finca Santa Victoria	1	Enero	2023-05-01T00:00:00	2024-11-08T08:00:00	4	Temperatura máxima	10.5
82103	7	Sololá	701	Sololá	4	Finca Santa Victoria	1	Enero	2023-05-01T00:00:00	2024-11-08T08:00:00	3	Temperatura mínima	10.2
82104	7	Sololá	701	Sololá	4	Finca Santa Victoria	1	Enero	2023-05-01T00:00:00	2024-11-08T08:00:00	5	Humedad	93
82105	7	Sololá	701	Sololá	4	Finca Santa Victoria	1	Enero	2023-05-01T00:00:00	2024-11-08T08:00:00	6	Velocidad del viento	3.2
82106	7	Sololá	701	Sololá	4	Finca Santa Victoria	1	Enero	2023-05-01T00:00:00	2024-11-08T08:00:00	7	Dirección del viento	3.22
82107	7	Sololá	701	Sololá	4	Finca Santa Victoria	1	Enero	2023-05-01T00:00:00	2024-11-08T08:00:00	1	Precipitación	0
82108	7	Sololá	701	Sololá	4	Finca Santa Victoria	1	Enero	2023-05-01T00:00:00	2024-11-08T08:00:00	8	Radiación solar	8
82109	7	Sololá	701	Sololá	4	Finca Santa Victoria	1	Enero	2023-05-01T00:00:00	2024-11-08T09:00:00	2	Temperatura media	10.7
82110	7	Sololá	701	Sololá	4	Finca Santa Victoria	1	Enero	2023-05-01T00:00:00	2024-11-08T09:00:00	4	Temperatura máxima	10.7
82111	7	Sololá	701	Sololá	4	Finca Santa Victoria	1	Enero	2023-05-01T00:00:00	2024-11-08T09:00:00	3	Temperatura mínima	10.4
82112	7	Sololá	701	Sololá	4	Finca Santa Victoria	1	Enero	2023-05-01T00:00:00	2024-11-08T09:00:00	5	Humedad	92
82113	7	Sololá	701	Sololá	4	Finca Santa Victoria	1	Enero	2023-05-01T00:00:00	2024-11-08T09:00:00	6	Velocidad del viento	3.2
82114	7	Sololá	701	Sololá	4	Finca Santa Victoria	1	Enero	2023-05-01T00:00:00	2024-11-08T09:00:00	7	Dirección del viento	3.22
82115	7	Sololá	701	Sololá	4	Finca Santa Victoria	1	Enero	2023-05-01T00:00:00	2024-11-08T09:00:00	1	Precipitación	0.2
82116	7	Sololá	701	Sololá	4	Finca Santa Victoria	1	Enero	2023-05-01T00:00:00	2024-11-08T09:00:00	8	Radiación solar	23
82117	7	Sololá	701	Sololá	4	Finca Santa Victoria	1	Enero	2023-05-01T00:00:00	2024-11-08T10:00:00	2	Temperatura media	11.9
82118	7	Sololá	701	Sololá	4	Finca Santa Victoria	1	Enero	2023-05-01T00:00:00	2024-11-08T10:00:00	4	Temperatura máxima	12
82119	7	Sololá	701	Sololá	4	Finca Santa Victoria	1	Enero	2023-05-01T00:00:00	2024-11-08T10:00:00	3	Temperatura mínima	10.7
82120	7	Sololá	701	Sololá	4	Finca Santa Victoria	1	Enero	2023-05-01T00:00:00	2024-11-08T10:00:00	5	Humedad	83
82121	7	Sololá	701	Sololá	4	Finca Santa Victoria	1	Enero	2023-05-01T00:00:00	2024-11-08T10:00:00	6	Velocidad del viento	3.2
82122	7	Sololá	701	Sololá	4	Finca Santa Victoria	1	Enero	2023-05-01T00:00:00	2024-11-08T10:00:00	7	Dirección del viento	3.22
82123	7	Sololá	701	Sololá	4	Finca Santa Victoria	1	Enero	2023-05-01T00:00:00	2024-11-08T10:00:00	1	Precipitación	0
82124	7	Sololá	701	Sololá	4	Finca Santa Victoria	1	Enero	2023-05-01T00:00:00	2024-11-08T10:00:00	8	Radiación solar	79
82125	7	Sololá	701	Sololá	4	Finca Santa Victoria	1	Enero	2023-05-01T00:00:00	2024-11-08T11:00:00	2	Temperatura media	12.4
82126	7	Sololá	701	Sololá	4	Finca Santa Victoria	1	Enero	2023-05-01T00:00:00	2024-11-08T11:00:00	4	Temperatura máxima	12.4
82127	7	Sololá	701	Sololá	4	Finca Santa Victoria	1	Enero	2023-05-01T00:00:00	2024-11-08T11:00:00	3	Temperatura mínima	12
82128	7	Sololá	701	Sololá	4	Finca Santa Victoria	1	Enero	2023-05-01T00:00:00	2024-11-08T11:00:00	5	Humedad	81
82129	7	Sololá	701	Sololá	4	Finca Santa Victoria	1	Enero	2023-05-01T00:00:00	2024-11-08T11:00:00	6	Velocidad del viento	3.2
82130	7	Sololá	701	Sololá	4	Finca Santa Victoria	1	Enero	2023-05-01T00:00:00	2024-11-08T11:00:00	7	Dirección del viento	3.22
82131	7	Sololá	701	Sololá	4	Finca Santa Victoria	1	Enero	2023-05-01T00:00:00	2024-11-08T11:00:00	1	Precipitación	0
82132	7	Sololá	701	Sololá	4	Finca Santa Victoria	1	Enero	2023-05-01T00:00:00	2024-11-08T11:00:00	8	Radiación solar	93
82133	7	Sololá	701	Sololá	4	Finca Santa Victoria	1	Enero	2023-05-01T00:00:00	2024-11-08T12:00:00	2	Temperatura media	13.6
82134	7	Sololá	701	Sololá	4	Finca Santa Victoria	1	Enero	2023-05-01T00:00:00	2024-11-08T12:00:00	4	Temperatura máxima	13.6
82135	7	Sololá	701	Sololá	4	Finca Santa Victoria	1	Enero	2023-05-01T00:00:00	2024-11-08T12:00:00	3	Temperatura mínima	12.4
82136	7	Sololá	701	Sololá	4	Finca Santa Victoria	1	Enero	2023-05-01T00:00:00	2024-11-08T12:00:00	5	Humedad	75
82137	7	Sololá	701	Sololá	4	Finca Santa Victoria	1	Enero	2023-05-01T00:00:00	2024-11-08T12:00:00	6	Velocidad del viento	3.2
82138	7	Sololá	701	Sololá	4	Finca Santa Victoria	1	Enero	2023-05-01T00:00:00	2024-11-08T12:00:00	7	Dirección del viento	3.22
82139	7	Sololá	701	Sololá	4	Finca Santa Victoria	1	Enero	2023-05-01T00:00:00	2024-11-08T12:00:00	1	Precipitación	0
82140	7	Sololá	701	Sololá	4	Finca Santa Victoria	1	Enero	2023-05-01T00:00:00	2024-11-08T12:00:00	8	Radiación solar	165
82141	7	Sololá	701	Sololá	4	Finca Santa Victoria	1	Enero	2023-05-01T00:00:00	2024-11-08T13:00:00	2	Temperatura media	13.7
82142	7	Sololá	701	Sololá	4	Finca Santa Victoria	1	Enero	2023-05-01T00:00:00	2024-11-08T13:00:00	4	Temperatura máxima	13.9
82143	7	Sololá	701	Sololá	4	Finca Santa Victoria	1	Enero	2023-05-01T00:00:00	2024-11-08T13:00:00	3	Temperatura mínima	13.4
82144	7	Sololá	701	Sololá	4	Finca Santa Victoria	1	Enero	2023-05-01T00:00:00	2024-11-08T13:00:00	5	Humedad	76
82145	7	Sololá	701	Sololá	4	Finca Santa Victoria	1	Enero	2023-05-01T00:00:00	2024-11-08T13:00:00	6	Velocidad del viento	3.2
82146	7	Sololá	701	Sololá	4	Finca Santa Victoria	1	Enero	2023-05-01T00:00:00	2024-11-08T13:00:00	7	Dirección del viento	3.22
82147	7	Sololá	701	Sololá	4	Finca Santa Victoria	1	Enero	2023-05-01T00:00:00	2024-11-08T13:00:00	1	Precipitación	0
82148	7	Sololá	701	Sololá	4	Finca Santa Victoria	1	Enero	2023-05-01T00:00:00	2024-11-08T13:00:00	8	Radiación solar	153
82149	7	Sololá	701	Sololá	4	Finca Santa Victoria	1	Enero	2023-05-01T00:00:00	2024-11-08T14:00:00	2	Temperatura media	12.6
82150	7	Sololá	701	Sololá	4	Finca Santa Victoria	1	Enero	2023-05-01T00:00:00	2024-11-08T14:00:00	4	Temperatura máxima	15.1
82151	7	Sololá	701	Sololá	4	Finca Santa Victoria	1	Enero	2023-05-01T00:00:00	2024-11-08T14:00:00	3	Temperatura mínima	12.6
82152	7	Sololá	701	Sololá	4	Finca Santa Victoria	1	Enero	2023-05-01T00:00:00	2024-11-08T14:00:00	5	Humedad	84
82153	7	Sololá	701	Sololá	4	Finca Santa Victoria	1	Enero	2023-05-01T00:00:00	2024-11-08T14:00:00	6	Velocidad del viento	3.2
82154	7	Sololá	701	Sololá	4	Finca Santa Victoria	1	Enero	2023-05-01T00:00:00	2024-11-08T14:00:00	7	Dirección del viento	3.22
82155	7	Sololá	701	Sololá	4	Finca Santa Victoria	1	Enero	2023-05-01T00:00:00	2024-11-08T14:00:00	1	Precipitación	0
82156	7	Sololá	701	Sololá	4	Finca Santa Victoria	1	Enero	2023-05-01T00:00:00	2024-11-08T14:00:00	8	Radiación solar	115
82157	7	Sololá	701	Sololá	4	Finca Santa Victoria	1	Enero	2023-05-01T00:00:00	2024-11-08T15:00:00	2	Temperatura media	12.9
82158	7	Sololá	701	Sololá	4	Finca Santa Victoria	1	Enero	2023-05-01T00:00:00	2024-11-08T15:00:00	4	Temperatura máxima	12.9
82159	7	Sololá	701	Sololá	4	Finca Santa Victoria	1	Enero	2023-05-01T00:00:00	2024-11-08T15:00:00	3	Temperatura mínima	12
82160	7	Sololá	701	Sololá	4	Finca Santa Victoria	1	Enero	2023-05-01T00:00:00	2024-11-08T15:00:00	5	Humedad	81
82161	7	Sololá	701	Sololá	4	Finca Santa Victoria	1	Enero	2023-05-01T00:00:00	2024-11-08T15:00:00	6	Velocidad del viento	1.6
82162	7	Sololá	701	Sololá	4	Finca Santa Victoria	1	Enero	2023-05-01T00:00:00	2024-11-08T15:00:00	7	Dirección del viento	1.61
82163	7	Sololá	701	Sololá	4	Finca Santa Victoria	1	Enero	2023-05-01T00:00:00	2024-11-08T15:00:00	1	Precipitación	0
82164	7	Sololá	701	Sololá	4	Finca Santa Victoria	1	Enero	2023-05-01T00:00:00	2024-11-08T15:00:00	8	Radiación solar	134
82165	7	Sololá	701	Sololá	4	Finca Santa Victoria	1	Enero	2023-05-01T00:00:00	2024-11-08T16:00:00	2	Temperatura media	12.1
82166	7	Sololá	701	Sololá	4	Finca Santa Victoria	1	Enero	2023-05-01T00:00:00	2024-11-08T16:00:00	4	Temperatura máxima	13.2
82167	7	Sololá	701	Sololá	4	Finca Santa Victoria	1	Enero	2023-05-01T00:00:00	2024-11-08T16:00:00	3	Temperatura mínima	12.1
82168	7	Sololá	701	Sololá	4	Finca Santa Victoria	1	Enero	2023-05-01T00:00:00	2024-11-08T16:00:00	5	Humedad	87
82169	7	Sololá	701	Sololá	4	Finca Santa Victoria	1	Enero	2023-05-01T00:00:00	2024-11-08T16:00:00	6	Velocidad del viento	3.2
82170	7	Sololá	701	Sololá	4	Finca Santa Victoria	1	Enero	2023-05-01T00:00:00	2024-11-08T16:00:00	7	Dirección del viento	3.22
82171	7	Sololá	701	Sololá	4	Finca Santa Victoria	1	Enero	2023-05-01T00:00:00	2024-11-08T16:00:00	1	Precipitación	0
82172	7	Sololá	701	Sololá	4	Finca Santa Victoria	1	Enero	2023-05-01T00:00:00	2024-11-08T16:00:00	8	Radiación solar	121
82173	7	Sololá	701	Sololá	4	Finca Santa Victoria	1	Enero	2023-05-01T00:00:00	2024-11-08T17:00:00	2	Temperatura media	10.6
82174	7	Sololá	701	Sololá	4	Finca Santa Victoria	1	Enero	2023-05-01T00:00:00	2024-11-08T17:00:00	4	Temperatura máxima	12.1
82175	7	Sololá	701	Sololá	4	Finca Santa Victoria	1	Enero	2023-05-01T00:00:00	2024-11-08T17:00:00	3	Temperatura mínima	10.6
82176	7	Sololá	701	Sololá	4	Finca Santa Victoria	1	Enero	2023-05-01T00:00:00	2024-11-08T17:00:00	5	Humedad	91
82177	7	Sololá	701	Sololá	4	Finca Santa Victoria	1	Enero	2023-05-01T00:00:00	2024-11-08T17:00:00	6	Velocidad del viento	3.2
82178	7	Sololá	701	Sololá	4	Finca Santa Victoria	1	Enero	2023-05-01T00:00:00	2024-11-08T17:00:00	7	Dirección del viento	3.22
82179	7	Sololá	701	Sololá	4	Finca Santa Victoria	1	Enero	2023-05-01T00:00:00	2024-11-08T17:00:00	1	Precipitación	0
82180	7	Sololá	701	Sololá	4	Finca Santa Victoria	1	Enero	2023-05-01T00:00:00	2024-11-08T17:00:00	8	Radiación solar	58
82181	7	Sololá	701	Sololá	4	Finca Santa Victoria	1	Enero	2023-05-01T00:00:00	2024-11-08T18:00:00	2	Temperatura media	10.8
82182	7	Sololá	701	Sololá	4	Finca Santa Victoria	1	Enero	2023-05-01T00:00:00	2024-11-08T18:00:00	4	Temperatura máxima	10.8
82183	7	Sololá	701	Sololá	4	Finca Santa Victoria	1	Enero	2023-05-01T00:00:00	2024-11-08T18:00:00	3	Temperatura mínima	10.6
82184	7	Sololá	701	Sololá	4	Finca Santa Victoria	1	Enero	2023-05-01T00:00:00	2024-11-08T18:00:00	5	Humedad	88
82185	7	Sololá	701	Sololá	4	Finca Santa Victoria	1	Enero	2023-05-01T00:00:00	2024-11-08T18:00:00	6	Velocidad del viento	3.2
82186	7	Sololá	701	Sololá	4	Finca Santa Victoria	1	Enero	2023-05-01T00:00:00	2024-11-08T18:00:00	7	Dirección del viento	3.22
82187	7	Sololá	701	Sololá	4	Finca Santa Victoria	1	Enero	2023-05-01T00:00:00	2024-11-08T18:00:00	1	Precipitación	0
82188	7	Sololá	701	Sololá	4	Finca Santa Victoria	1	Enero	2023-05-01T00:00:00	2024-11-08T18:00:00	8	Radiación solar	16
82189	7	Sololá	701	Sololá	4	Finca Santa Victoria	1	Enero	2023-05-01T00:00:00	2024-11-08T19:00:00	2	Temperatura media	11.2
82190	7	Sololá	701	Sololá	4	Finca Santa Victoria	1	Enero	2023-05-01T00:00:00	2024-11-08T19:00:00	4	Temperatura máxima	11.2
82191	7	Sololá	701	Sololá	4	Finca Santa Victoria	1	Enero	2023-05-01T00:00:00	2024-11-08T19:00:00	3	Temperatura mínima	10.7
82192	7	Sololá	701	Sololá	4	Finca Santa Victoria	1	Enero	2023-05-01T00:00:00	2024-11-08T19:00:00	5	Humedad	86
82193	7	Sololá	701	Sololá	4	Finca Santa Victoria	1	Enero	2023-05-01T00:00:00	2024-11-08T19:00:00	6	Velocidad del viento	4.8
82194	7	Sololá	701	Sololá	4	Finca Santa Victoria	1	Enero	2023-05-01T00:00:00	2024-11-08T19:00:00	7	Dirección del viento	4.83
82195	7	Sololá	701	Sololá	4	Finca Santa Victoria	1	Enero	2023-05-01T00:00:00	2024-11-08T19:00:00	1	Precipitación	0
82196	7	Sololá	701	Sololá	4	Finca Santa Victoria	1	Enero	2023-05-01T00:00:00	2024-11-08T19:00:00	8	Radiación solar	0
82197	7	Sololá	701	Sololá	4	Finca Santa Victoria	1	Enero	2023-05-01T00:00:00	2024-11-08T20:00:00	2	Temperatura media	11.2
82198	7	Sololá	701	Sololá	4	Finca Santa Victoria	1	Enero	2023-05-01T00:00:00	2024-11-08T20:00:00	4	Temperatura máxima	11.2
82199	7	Sololá	701	Sololá	4	Finca Santa Victoria	1	Enero	2023-05-01T00:00:00	2024-11-08T20:00:00	3	Temperatura mínima	11.1
82200	7	Sololá	701	Sololá	4	Finca Santa Victoria	1	Enero	2023-05-01T00:00:00	2024-11-08T20:00:00	5	Humedad	86
82201	7	Sololá	701	Sololá	4	Finca Santa Victoria	1	Enero	2023-05-01T00:00:00	2024-11-08T20:00:00	6	Velocidad del viento	4.8
82202	7	Sololá	701	Sololá	4	Finca Santa Victoria	1	Enero	2023-05-01T00:00:00	2024-11-08T20:00:00	7	Dirección del viento	4.83
82203	7	Sololá	701	Sololá	4	Finca Santa Victoria	1	Enero	2023-05-01T00:00:00	2024-11-08T20:00:00	1	Precipitación	0
82204	7	Sololá	701	Sololá	4	Finca Santa Victoria	1	Enero	2023-05-01T00:00:00	2024-11-08T20:00:00	8	Radiación solar	0
82205	7	Sololá	701	Sololá	4	Finca Santa Victoria	1	Enero	2023-05-01T00:00:00	2024-11-08T21:00:00	2	Temperatura media	10.9
82206	7	Sololá	701	Sololá	4	Finca Santa Victoria	1	Enero	2023-05-01T00:00:00	2024-11-08T21:00:00	4	Temperatura máxima	11.2
82207	7	Sololá	701	Sololá	4	Finca Santa Victoria	1	Enero	2023-05-01T00:00:00	2024-11-08T21:00:00	3	Temperatura mínima	10.8
82208	7	Sololá	701	Sololá	4	Finca Santa Victoria	1	Enero	2023-05-01T00:00:00	2024-11-08T21:00:00	5	Humedad	83
82209	7	Sololá	701	Sololá	4	Finca Santa Victoria	1	Enero	2023-05-01T00:00:00	2024-11-08T21:00:00	6	Velocidad del viento	4.8
82210	7	Sololá	701	Sololá	4	Finca Santa Victoria	1	Enero	2023-05-01T00:00:00	2024-11-08T21:00:00	7	Dirección del viento	4.83
82211	7	Sololá	701	Sololá	4	Finca Santa Victoria	1	Enero	2023-05-01T00:00:00	2024-11-08T21:00:00	1	Precipitación	0
82212	7	Sololá	701	Sololá	4	Finca Santa Victoria	1	Enero	2023-05-01T00:00:00	2024-11-08T21:00:00	8	Radiación solar	0
82213	7	Sololá	701	Sololá	4	Finca Santa Victoria	1	Enero	2023-05-01T00:00:00	2024-11-08T22:00:00	2	Temperatura media	10.1
82214	7	Sololá	701	Sololá	4	Finca Santa Victoria	1	Enero	2023-05-01T00:00:00	2024-11-08T22:00:00	4	Temperatura máxima	10.9
82215	7	Sololá	701	Sololá	4	Finca Santa Victoria	1	Enero	2023-05-01T00:00:00	2024-11-08T22:00:00	3	Temperatura mínima	10.1
82216	7	Sololá	701	Sololá	4	Finca Santa Victoria	1	Enero	2023-05-01T00:00:00	2024-11-08T22:00:00	5	Humedad	82
82217	7	Sololá	701	Sololá	4	Finca Santa Victoria	1	Enero	2023-05-01T00:00:00	2024-11-08T22:00:00	6	Velocidad del viento	3.2
82218	7	Sololá	701	Sololá	4	Finca Santa Victoria	1	Enero	2023-05-01T00:00:00	2024-11-08T22:00:00	7	Dirección del viento	3.22
82219	7	Sololá	701	Sololá	4	Finca Santa Victoria	1	Enero	2023-05-01T00:00:00	2024-11-08T22:00:00	1	Precipitación	0
82220	7	Sololá	701	Sololá	4	Finca Santa Victoria	1	Enero	2023-05-01T00:00:00	2024-11-08T22:00:00	8	Radiación solar	0
82221	7	Sololá	701	Sololá	4	Finca Santa Victoria	1	Enero	2023-05-01T00:00:00	2024-11-08T23:00:00	2	Temperatura media	10.2
82222	7	Sololá	701	Sololá	4	Finca Santa Victoria	1	Enero	2023-05-01T00:00:00	2024-11-08T23:00:00	4	Temperatura máxima	10.3
82223	7	Sololá	701	Sololá	4	Finca Santa Victoria	1	Enero	2023-05-01T00:00:00	2024-11-08T23:00:00	3	Temperatura mínima	9.9
82224	7	Sololá	701	Sololá	4	Finca Santa Victoria	1	Enero	2023-05-01T00:00:00	2024-11-08T23:00:00	5	Humedad	76
82225	7	Sololá	701	Sololá	4	Finca Santa Victoria	1	Enero	2023-05-01T00:00:00	2024-11-08T23:00:00	6	Velocidad del viento	3.2
82226	7	Sololá	701	Sololá	4	Finca Santa Victoria	1	Enero	2023-05-01T00:00:00	2024-11-08T23:00:00	7	Dirección del viento	3.22
82227	7	Sololá	701	Sololá	4	Finca Santa Victoria	1	Enero	2023-05-01T00:00:00	2024-11-08T23:00:00	1	Precipitación	0
82228	7	Sololá	701	Sololá	4	Finca Santa Victoria	1	Enero	2023-05-01T00:00:00	2024-11-08T23:00:00	8	Radiación solar	0
82229	7	Sololá	701	Sololá	4	Finca Santa Victoria	1	Enero	2023-06-01T00:00:00	2024-11-08T00:00:00	2	Temperatura media	9.9
82230	7	Sololá	701	Sololá	4	Finca Santa Victoria	1	Enero	2023-06-01T00:00:00	2024-11-08T00:00:00	4	Temperatura máxima	10.2
82231	7	Sololá	701	Sololá	4	Finca Santa Victoria	1	Enero	2023-06-01T00:00:00	2024-11-08T00:00:00	3	Temperatura mínima	9.9
82232	7	Sololá	701	Sololá	4	Finca Santa Victoria	1	Enero	2023-06-01T00:00:00	2024-11-08T00:00:00	5	Humedad	76
82233	7	Sololá	701	Sololá	4	Finca Santa Victoria	1	Enero	2023-06-01T00:00:00	2024-11-08T00:00:00	6	Velocidad del viento	3.2
82234	7	Sololá	701	Sololá	4	Finca Santa Victoria	1	Enero	2023-06-01T00:00:00	2024-11-08T00:00:00	7	Dirección del viento	3.22
82235	7	Sololá	701	Sololá	4	Finca Santa Victoria	1	Enero	2023-06-01T00:00:00	2024-11-08T00:00:00	1	Precipitación	0
82236	7	Sololá	701	Sololá	4	Finca Santa Victoria	1	Enero	2023-06-01T00:00:00	2024-11-08T00:00:00	8	Radiación solar	0
82237	7	Sololá	701	Sololá	4	Finca Santa Victoria	1	Enero	2023-06-01T00:00:00	2024-11-08T01:00:00	2	Temperatura media	9.6
82238	7	Sololá	701	Sololá	4	Finca Santa Victoria	1	Enero	2023-06-01T00:00:00	2024-11-08T01:00:00	4	Temperatura máxima	9.9
82239	7	Sololá	701	Sololá	4	Finca Santa Victoria	1	Enero	2023-06-01T00:00:00	2024-11-08T01:00:00	3	Temperatura mínima	9.6
82240	7	Sololá	701	Sololá	4	Finca Santa Victoria	1	Enero	2023-06-01T00:00:00	2024-11-08T01:00:00	5	Humedad	78
82241	7	Sololá	701	Sololá	4	Finca Santa Victoria	1	Enero	2023-06-01T00:00:00	2024-11-08T01:00:00	6	Velocidad del viento	4.8
82242	7	Sololá	701	Sololá	4	Finca Santa Victoria	1	Enero	2023-06-01T00:00:00	2024-11-08T01:00:00	7	Dirección del viento	4.83
82243	7	Sololá	701	Sololá	4	Finca Santa Victoria	1	Enero	2023-06-01T00:00:00	2024-11-08T01:00:00	1	Precipitación	0
82244	7	Sololá	701	Sololá	4	Finca Santa Victoria	1	Enero	2023-06-01T00:00:00	2024-11-08T01:00:00	8	Radiación solar	0
82245	7	Sololá	701	Sololá	4	Finca Santa Victoria	1	Enero	2023-06-01T00:00:00	2024-11-08T02:00:00	2	Temperatura media	9.3
82246	7	Sololá	701	Sololá	4	Finca Santa Victoria	1	Enero	2023-06-01T00:00:00	2024-11-08T02:00:00	4	Temperatura máxima	9.7
82247	7	Sololá	701	Sololá	4	Finca Santa Victoria	1	Enero	2023-06-01T00:00:00	2024-11-08T02:00:00	3	Temperatura mínima	9.2
82248	7	Sololá	701	Sololá	4	Finca Santa Victoria	1	Enero	2023-06-01T00:00:00	2024-11-08T02:00:00	5	Humedad	75
82249	7	Sololá	701	Sololá	4	Finca Santa Victoria	1	Enero	2023-06-01T00:00:00	2024-11-08T02:00:00	6	Velocidad del viento	3.2
82250	7	Sololá	701	Sololá	4	Finca Santa Victoria	1	Enero	2023-06-01T00:00:00	2024-11-08T02:00:00	7	Dirección del viento	3.22
82251	7	Sololá	701	Sololá	4	Finca Santa Victoria	1	Enero	2023-06-01T00:00:00	2024-11-08T02:00:00	1	Precipitación	0
82252	7	Sololá	701	Sololá	4	Finca Santa Victoria	1	Enero	2023-06-01T00:00:00	2024-11-08T02:00:00	8	Radiación solar	0
82253	7	Sololá	701	Sololá	4	Finca Santa Victoria	1	Enero	2023-06-01T00:00:00	2024-11-08T03:00:00	2	Temperatura media	8.8
82254	7	Sololá	701	Sololá	4	Finca Santa Victoria	1	Enero	2023-06-01T00:00:00	2024-11-08T03:00:00	4	Temperatura máxima	9.3
82255	7	Sololá	701	Sololá	4	Finca Santa Victoria	1	Enero	2023-06-01T00:00:00	2024-11-08T03:00:00	3	Temperatura mínima	8.7
82256	7	Sololá	701	Sololá	4	Finca Santa Victoria	1	Enero	2023-06-01T00:00:00	2024-11-08T03:00:00	5	Humedad	76
82257	7	Sololá	701	Sololá	4	Finca Santa Victoria	1	Enero	2023-06-01T00:00:00	2024-11-08T03:00:00	6	Velocidad del viento	4.8
82258	7	Sololá	701	Sololá	4	Finca Santa Victoria	1	Enero	2023-06-01T00:00:00	2024-11-08T03:00:00	7	Dirección del viento	4.83
82259	7	Sololá	701	Sololá	4	Finca Santa Victoria	1	Enero	2023-06-01T00:00:00	2024-11-08T03:00:00	1	Precipitación	0
82260	7	Sololá	701	Sololá	4	Finca Santa Victoria	1	Enero	2023-06-01T00:00:00	2024-11-08T03:00:00	8	Radiación solar	0
82261	7	Sololá	701	Sololá	4	Finca Santa Victoria	1	Enero	2023-06-01T00:00:00	2024-11-08T04:00:00	2	Temperatura media	8.3
82262	7	Sololá	701	Sololá	4	Finca Santa Victoria	1	Enero	2023-06-01T00:00:00	2024-11-08T04:00:00	4	Temperatura máxima	8.9
82263	7	Sololá	701	Sololá	4	Finca Santa Victoria	1	Enero	2023-06-01T00:00:00	2024-11-08T04:00:00	3	Temperatura mínima	8.3
82264	7	Sololá	701	Sololá	4	Finca Santa Victoria	1	Enero	2023-06-01T00:00:00	2024-11-08T04:00:00	5	Humedad	76
82265	7	Sololá	701	Sololá	4	Finca Santa Victoria	1	Enero	2023-06-01T00:00:00	2024-11-08T04:00:00	6	Velocidad del viento	3.2
82266	7	Sololá	701	Sololá	4	Finca Santa Victoria	1	Enero	2023-06-01T00:00:00	2024-11-08T04:00:00	7	Dirección del viento	3.22
82267	7	Sololá	701	Sololá	4	Finca Santa Victoria	1	Enero	2023-06-01T00:00:00	2024-11-08T04:00:00	1	Precipitación	0
82268	7	Sololá	701	Sololá	4	Finca Santa Victoria	1	Enero	2023-06-01T00:00:00	2024-11-08T04:00:00	8	Radiación solar	0
82269	7	Sololá	701	Sololá	4	Finca Santa Victoria	1	Enero	2023-06-01T00:00:00	2024-11-08T05:00:00	2	Temperatura media	8.6
82270	7	Sololá	701	Sololá	4	Finca Santa Victoria	1	Enero	2023-06-01T00:00:00	2024-11-08T05:00:00	4	Temperatura máxima	8.6
82271	7	Sololá	701	Sololá	4	Finca Santa Victoria	1	Enero	2023-06-01T00:00:00	2024-11-08T05:00:00	3	Temperatura mínima	8.3
82272	7	Sololá	701	Sololá	4	Finca Santa Victoria	1	Enero	2023-06-01T00:00:00	2024-11-08T05:00:00	5	Humedad	76
82273	7	Sololá	701	Sololá	4	Finca Santa Victoria	1	Enero	2023-06-01T00:00:00	2024-11-08T05:00:00	6	Velocidad del viento	3.2
82274	7	Sololá	701	Sololá	4	Finca Santa Victoria	1	Enero	2023-06-01T00:00:00	2024-11-08T05:00:00	7	Dirección del viento	3.22
82275	7	Sololá	701	Sololá	4	Finca Santa Victoria	1	Enero	2023-06-01T00:00:00	2024-11-08T05:00:00	1	Precipitación	0
82276	7	Sololá	701	Sololá	4	Finca Santa Victoria	1	Enero	2023-06-01T00:00:00	2024-11-08T05:00:00	8	Radiación solar	0
82277	7	Sololá	701	Sololá	4	Finca Santa Victoria	1	Enero	2023-06-01T00:00:00	2024-11-08T06:00:00	2	Temperatura media	8.3
82278	7	Sololá	701	Sololá	4	Finca Santa Victoria	1	Enero	2023-06-01T00:00:00	2024-11-08T06:00:00	4	Temperatura máxima	8.6
82279	7	Sololá	701	Sololá	4	Finca Santa Victoria	1	Enero	2023-06-01T00:00:00	2024-11-08T06:00:00	3	Temperatura mínima	8
82280	7	Sololá	701	Sololá	4	Finca Santa Victoria	1	Enero	2023-06-01T00:00:00	2024-11-08T06:00:00	5	Humedad	77
82281	7	Sololá	701	Sololá	4	Finca Santa Victoria	1	Enero	2023-06-01T00:00:00	2024-11-08T06:00:00	6	Velocidad del viento	3.2
82282	7	Sololá	701	Sololá	4	Finca Santa Victoria	1	Enero	2023-06-01T00:00:00	2024-11-08T06:00:00	7	Dirección del viento	3.22
82283	7	Sololá	701	Sololá	4	Finca Santa Victoria	1	Enero	2023-06-01T00:00:00	2024-11-08T06:00:00	1	Precipitación	0
82284	7	Sololá	701	Sololá	4	Finca Santa Victoria	1	Enero	2023-06-01T00:00:00	2024-11-08T06:00:00	8	Radiación solar	0
82285	7	Sololá	701	Sololá	4	Finca Santa Victoria	1	Enero	2023-06-01T00:00:00	2024-11-08T07:00:00	2	Temperatura media	8.7
82286	7	Sololá	701	Sololá	4	Finca Santa Victoria	1	Enero	2023-06-01T00:00:00	2024-11-08T07:00:00	4	Temperatura máxima	8.8
82287	7	Sololá	701	Sololá	4	Finca Santa Victoria	1	Enero	2023-06-01T00:00:00	2024-11-08T07:00:00	3	Temperatura mínima	8.2
82288	7	Sololá	701	Sololá	4	Finca Santa Victoria	1	Enero	2023-06-01T00:00:00	2024-11-08T07:00:00	5	Humedad	76
82289	7	Sololá	701	Sololá	4	Finca Santa Victoria	1	Enero	2023-06-01T00:00:00	2024-11-08T07:00:00	6	Velocidad del viento	3.2
82290	7	Sololá	701	Sololá	4	Finca Santa Victoria	1	Enero	2023-06-01T00:00:00	2024-11-08T07:00:00	7	Dirección del viento	3.22
82291	7	Sololá	701	Sololá	4	Finca Santa Victoria	1	Enero	2023-06-01T00:00:00	2024-11-08T07:00:00	1	Precipitación	0
82292	7	Sololá	701	Sololá	4	Finca Santa Victoria	1	Enero	2023-06-01T00:00:00	2024-11-08T07:00:00	8	Radiación solar	3
82293	7	Sololá	701	Sololá	4	Finca Santa Victoria	1	Enero	2023-06-01T00:00:00	2024-11-08T08:00:00	2	Temperatura media	10.1
82294	7	Sololá	701	Sololá	4	Finca Santa Victoria	1	Enero	2023-06-01T00:00:00	2024-11-08T08:00:00	4	Temperatura máxima	10.1
82295	7	Sololá	701	Sololá	4	Finca Santa Victoria	1	Enero	2023-06-01T00:00:00	2024-11-08T08:00:00	3	Temperatura mínima	8.7
82296	7	Sololá	701	Sololá	4	Finca Santa Victoria	1	Enero	2023-06-01T00:00:00	2024-11-08T08:00:00	5	Humedad	71
82297	7	Sololá	701	Sololá	4	Finca Santa Victoria	1	Enero	2023-06-01T00:00:00	2024-11-08T08:00:00	6	Velocidad del viento	4.8
82298	7	Sololá	701	Sololá	4	Finca Santa Victoria	1	Enero	2023-06-01T00:00:00	2024-11-08T08:00:00	7	Dirección del viento	4.83
82299	7	Sololá	701	Sololá	4	Finca Santa Victoria	1	Enero	2023-06-01T00:00:00	2024-11-08T08:00:00	1	Precipitación	0
82300	7	Sololá	701	Sololá	4	Finca Santa Victoria	1	Enero	2023-06-01T00:00:00	2024-11-08T08:00:00	8	Radiación solar	30
82301	7	Sololá	701	Sololá	4	Finca Santa Victoria	1	Enero	2023-06-01T00:00:00	2024-11-08T09:00:00	2	Temperatura media	12.3
82302	7	Sololá	701	Sololá	4	Finca Santa Victoria	1	Enero	2023-06-01T00:00:00	2024-11-08T09:00:00	4	Temperatura máxima	12.3
82303	7	Sololá	701	Sololá	4	Finca Santa Victoria	1	Enero	2023-06-01T00:00:00	2024-11-08T09:00:00	3	Temperatura mínima	10.1
82304	7	Sololá	701	Sololá	4	Finca Santa Victoria	1	Enero	2023-06-01T00:00:00	2024-11-08T09:00:00	5	Humedad	70
82305	7	Sololá	701	Sololá	4	Finca Santa Victoria	1	Enero	2023-06-01T00:00:00	2024-11-08T09:00:00	6	Velocidad del viento	4.8
82306	7	Sololá	701	Sololá	4	Finca Santa Victoria	1	Enero	2023-06-01T00:00:00	2024-11-08T09:00:00	7	Dirección del viento	4.83
82307	7	Sololá	701	Sololá	4	Finca Santa Victoria	1	Enero	2023-06-01T00:00:00	2024-11-08T09:00:00	1	Precipitación	0
82308	7	Sololá	701	Sololá	4	Finca Santa Victoria	1	Enero	2023-06-01T00:00:00	2024-11-08T09:00:00	8	Radiación solar	229
82309	7	Sololá	701	Sololá	4	Finca Santa Victoria	1	Enero	2023-06-01T00:00:00	2024-11-08T10:00:00	2	Temperatura media	13.7
82310	7	Sololá	701	Sololá	4	Finca Santa Victoria	1	Enero	2023-06-01T00:00:00	2024-11-08T10:00:00	4	Temperatura máxima	13.8
82311	7	Sololá	701	Sololá	4	Finca Santa Victoria	1	Enero	2023-06-01T00:00:00	2024-11-08T10:00:00	3	Temperatura mínima	12.3
82312	7	Sololá	701	Sololá	4	Finca Santa Victoria	1	Enero	2023-06-01T00:00:00	2024-11-08T10:00:00	5	Humedad	68
82313	7	Sololá	701	Sololá	4	Finca Santa Victoria	1	Enero	2023-06-01T00:00:00	2024-11-08T10:00:00	6	Velocidad del viento	6.4
82314	7	Sololá	701	Sololá	4	Finca Santa Victoria	1	Enero	2023-06-01T00:00:00	2024-11-08T10:00:00	7	Dirección del viento	6.44
82315	7	Sololá	701	Sololá	4	Finca Santa Victoria	1	Enero	2023-06-01T00:00:00	2024-11-08T10:00:00	1	Precipitación	0
82316	7	Sololá	701	Sololá	4	Finca Santa Victoria	1	Enero	2023-06-01T00:00:00	2024-11-08T10:00:00	8	Radiación solar	585
82317	7	Sololá	701	Sololá	4	Finca Santa Victoria	1	Enero	2023-06-01T00:00:00	2024-11-08T11:00:00	2	Temperatura media	14.7
82318	7	Sololá	701	Sololá	4	Finca Santa Victoria	1	Enero	2023-06-01T00:00:00	2024-11-08T11:00:00	4	Temperatura máxima	14.7
82319	7	Sololá	701	Sololá	4	Finca Santa Victoria	1	Enero	2023-06-01T00:00:00	2024-11-08T11:00:00	3	Temperatura mínima	13.7
82320	7	Sololá	701	Sololá	4	Finca Santa Victoria	1	Enero	2023-06-01T00:00:00	2024-11-08T11:00:00	5	Humedad	71
82321	7	Sololá	701	Sololá	4	Finca Santa Victoria	1	Enero	2023-06-01T00:00:00	2024-11-08T11:00:00	6	Velocidad del viento	6.4
82322	7	Sololá	701	Sololá	4	Finca Santa Victoria	1	Enero	2023-06-01T00:00:00	2024-11-08T11:00:00	7	Dirección del viento	6.44
82323	7	Sololá	701	Sololá	4	Finca Santa Victoria	1	Enero	2023-06-01T00:00:00	2024-11-08T11:00:00	1	Precipitación	0
82324	7	Sololá	701	Sololá	4	Finca Santa Victoria	1	Enero	2023-06-01T00:00:00	2024-11-08T11:00:00	8	Radiación solar	766
82325	7	Sololá	701	Sololá	4	Finca Santa Victoria	1	Enero	2023-06-01T00:00:00	2024-11-08T12:00:00	2	Temperatura media	15.8
82326	7	Sololá	701	Sololá	4	Finca Santa Victoria	1	Enero	2023-06-01T00:00:00	2024-11-08T12:00:00	4	Temperatura máxima	16.1
82327	7	Sololá	701	Sololá	4	Finca Santa Victoria	1	Enero	2023-06-01T00:00:00	2024-11-08T12:00:00	3	Temperatura mínima	14.7
82328	7	Sololá	701	Sololá	4	Finca Santa Victoria	1	Enero	2023-06-01T00:00:00	2024-11-08T12:00:00	5	Humedad	64
82329	7	Sololá	701	Sololá	4	Finca Santa Victoria	1	Enero	2023-06-01T00:00:00	2024-11-08T12:00:00	6	Velocidad del viento	4.8
82330	7	Sololá	701	Sololá	4	Finca Santa Victoria	1	Enero	2023-06-01T00:00:00	2024-11-08T12:00:00	7	Dirección del viento	4.83
82331	7	Sololá	701	Sololá	4	Finca Santa Victoria	1	Enero	2023-06-01T00:00:00	2024-11-08T12:00:00	1	Precipitación	0
82332	7	Sololá	701	Sololá	4	Finca Santa Victoria	1	Enero	2023-06-01T00:00:00	2024-11-08T12:00:00	8	Radiación solar	845
82333	7	Sololá	701	Sololá	4	Finca Santa Victoria	1	Enero	2023-06-01T00:00:00	2024-11-08T13:00:00	2	Temperatura media	16.7
82334	7	Sololá	701	Sololá	4	Finca Santa Victoria	1	Enero	2023-06-01T00:00:00	2024-11-08T13:00:00	4	Temperatura máxima	17.1
82335	7	Sololá	701	Sololá	4	Finca Santa Victoria	1	Enero	2023-06-01T00:00:00	2024-11-08T13:00:00	3	Temperatura mínima	15.8
82336	7	Sololá	701	Sololá	4	Finca Santa Victoria	1	Enero	2023-06-01T00:00:00	2024-11-08T13:00:00	5	Humedad	59
82337	7	Sololá	701	Sololá	4	Finca Santa Victoria	1	Enero	2023-06-01T00:00:00	2024-11-08T13:00:00	6	Velocidad del viento	6.4
82338	7	Sololá	701	Sololá	4	Finca Santa Victoria	1	Enero	2023-06-01T00:00:00	2024-11-08T13:00:00	7	Dirección del viento	6.44
82339	7	Sololá	701	Sololá	4	Finca Santa Victoria	1	Enero	2023-06-01T00:00:00	2024-11-08T13:00:00	1	Precipitación	0
82340	7	Sololá	701	Sololá	4	Finca Santa Victoria	1	Enero	2023-06-01T00:00:00	2024-11-08T13:00:00	8	Radiación solar	853
82341	7	Sololá	701	Sololá	4	Finca Santa Victoria	1	Enero	2023-06-01T00:00:00	2024-11-08T14:00:00	2	Temperatura media	17.6
82342	7	Sololá	701	Sololá	4	Finca Santa Victoria	1	Enero	2023-06-01T00:00:00	2024-11-08T14:00:00	4	Temperatura máxima	17.8
82343	7	Sololá	701	Sololá	4	Finca Santa Victoria	1	Enero	2023-06-01T00:00:00	2024-11-08T14:00:00	3	Temperatura mínima	16.7
82344	7	Sololá	701	Sololá	4	Finca Santa Victoria	1	Enero	2023-06-01T00:00:00	2024-11-08T14:00:00	5	Humedad	61
82345	7	Sololá	701	Sololá	4	Finca Santa Victoria	1	Enero	2023-06-01T00:00:00	2024-11-08T14:00:00	6	Velocidad del viento	6.4
82346	7	Sololá	701	Sololá	4	Finca Santa Victoria	1	Enero	2023-06-01T00:00:00	2024-11-08T14:00:00	7	Dirección del viento	6.44
82347	7	Sololá	701	Sololá	4	Finca Santa Victoria	1	Enero	2023-06-01T00:00:00	2024-11-08T14:00:00	1	Precipitación	0
82348	7	Sololá	701	Sololá	4	Finca Santa Victoria	1	Enero	2023-06-01T00:00:00	2024-11-08T14:00:00	8	Radiación solar	788
82349	7	Sololá	701	Sololá	4	Finca Santa Victoria	1	Enero	2023-06-01T00:00:00	2024-11-08T15:00:00	2	Temperatura media	16.9
82350	7	Sololá	701	Sololá	4	Finca Santa Victoria	1	Enero	2023-06-01T00:00:00	2024-11-08T15:00:00	4	Temperatura máxima	18.3
82351	7	Sololá	701	Sololá	4	Finca Santa Victoria	1	Enero	2023-06-01T00:00:00	2024-11-08T15:00:00	3	Temperatura mínima	16.9
82352	7	Sololá	701	Sololá	4	Finca Santa Victoria	1	Enero	2023-06-01T00:00:00	2024-11-08T15:00:00	5	Humedad	61
82353	7	Sololá	701	Sololá	4	Finca Santa Victoria	1	Enero	2023-06-01T00:00:00	2024-11-08T15:00:00	6	Velocidad del viento	4.8
82354	7	Sololá	701	Sololá	4	Finca Santa Victoria	1	Enero	2023-06-01T00:00:00	2024-11-08T15:00:00	7	Dirección del viento	4.83
82355	7	Sololá	701	Sololá	4	Finca Santa Victoria	1	Enero	2023-06-01T00:00:00	2024-11-08T15:00:00	1	Precipitación	0
82356	7	Sololá	701	Sololá	4	Finca Santa Victoria	1	Enero	2023-06-01T00:00:00	2024-11-08T15:00:00	8	Radiación solar	386
82357	7	Sololá	701	Sololá	4	Finca Santa Victoria	1	Enero	2023-06-01T00:00:00	2024-11-08T16:00:00	2	Temperatura media	16.8
82358	7	Sololá	701	Sololá	4	Finca Santa Victoria	1	Enero	2023-06-01T00:00:00	2024-11-08T16:00:00	4	Temperatura máxima	17.6
82359	7	Sololá	701	Sololá	4	Finca Santa Victoria	1	Enero	2023-06-01T00:00:00	2024-11-08T16:00:00	3	Temperatura mínima	16.6
82360	7	Sololá	701	Sololá	4	Finca Santa Victoria	1	Enero	2023-06-01T00:00:00	2024-11-08T16:00:00	5	Humedad	65
82361	7	Sololá	701	Sololá	4	Finca Santa Victoria	1	Enero	2023-06-01T00:00:00	2024-11-08T16:00:00	6	Velocidad del viento	4.8
82362	7	Sololá	701	Sololá	4	Finca Santa Victoria	1	Enero	2023-06-01T00:00:00	2024-11-08T16:00:00	7	Dirección del viento	4.83
82363	7	Sololá	701	Sololá	4	Finca Santa Victoria	1	Enero	2023-06-01T00:00:00	2024-11-08T16:00:00	1	Precipitación	0
82364	7	Sololá	701	Sololá	4	Finca Santa Victoria	1	Enero	2023-06-01T00:00:00	2024-11-08T16:00:00	8	Radiación solar	482
82365	7	Sololá	701	Sololá	4	Finca Santa Victoria	1	Enero	2023-06-01T00:00:00	2024-11-08T17:00:00	2	Temperatura media	15.1
82366	7	Sololá	701	Sololá	4	Finca Santa Victoria	1	Enero	2023-06-01T00:00:00	2024-11-08T17:00:00	4	Temperatura máxima	17
82367	7	Sololá	701	Sololá	4	Finca Santa Victoria	1	Enero	2023-06-01T00:00:00	2024-11-08T17:00:00	3	Temperatura mínima	15.1
82368	7	Sololá	701	Sololá	4	Finca Santa Victoria	1	Enero	2023-06-01T00:00:00	2024-11-08T17:00:00	5	Humedad	68
82369	7	Sololá	701	Sololá	4	Finca Santa Victoria	1	Enero	2023-06-01T00:00:00	2024-11-08T17:00:00	6	Velocidad del viento	3.2
82370	7	Sololá	701	Sololá	4	Finca Santa Victoria	1	Enero	2023-06-01T00:00:00	2024-11-08T17:00:00	7	Dirección del viento	3.22
82371	7	Sololá	701	Sololá	4	Finca Santa Victoria	1	Enero	2023-06-01T00:00:00	2024-11-08T17:00:00	1	Precipitación	0
82372	7	Sololá	701	Sololá	4	Finca Santa Victoria	1	Enero	2023-06-01T00:00:00	2024-11-08T17:00:00	8	Radiación solar	236
82373	7	Sololá	701	Sololá	4	Finca Santa Victoria	1	Enero	2023-06-01T00:00:00	2024-11-08T18:00:00	2	Temperatura media	11.7
82374	7	Sololá	701	Sololá	4	Finca Santa Victoria	1	Enero	2023-06-01T00:00:00	2024-11-08T18:00:00	4	Temperatura máxima	15.1
82375	7	Sololá	701	Sololá	4	Finca Santa Victoria	1	Enero	2023-06-01T00:00:00	2024-11-08T18:00:00	3	Temperatura mínima	11.7
82376	7	Sololá	701	Sololá	4	Finca Santa Victoria	1	Enero	2023-06-01T00:00:00	2024-11-08T18:00:00	5	Humedad	79
82377	7	Sololá	701	Sololá	4	Finca Santa Victoria	1	Enero	2023-06-01T00:00:00	2024-11-08T18:00:00	6	Velocidad del viento	3.2
82378	7	Sololá	701	Sololá	4	Finca Santa Victoria	1	Enero	2023-06-01T00:00:00	2024-11-08T18:00:00	7	Dirección del viento	3.22
82379	7	Sololá	701	Sololá	4	Finca Santa Victoria	1	Enero	2023-06-01T00:00:00	2024-11-08T18:00:00	1	Precipitación	0
82380	7	Sololá	701	Sololá	4	Finca Santa Victoria	1	Enero	2023-06-01T00:00:00	2024-11-08T18:00:00	8	Radiación solar	24
82381	7	Sololá	701	Sololá	4	Finca Santa Victoria	1	Enero	2023-06-01T00:00:00	2024-11-08T19:00:00	2	Temperatura media	11
82382	7	Sololá	701	Sololá	4	Finca Santa Victoria	1	Enero	2023-06-01T00:00:00	2024-11-08T19:00:00	4	Temperatura máxima	11.7
82383	7	Sololá	701	Sololá	4	Finca Santa Victoria	1	Enero	2023-06-01T00:00:00	2024-11-08T19:00:00	3	Temperatura mínima	11
82384	7	Sololá	701	Sololá	4	Finca Santa Victoria	1	Enero	2023-06-01T00:00:00	2024-11-08T19:00:00	5	Humedad	83
82385	7	Sololá	701	Sololá	4	Finca Santa Victoria	1	Enero	2023-06-01T00:00:00	2024-11-08T19:00:00	6	Velocidad del viento	4.8
82386	7	Sololá	701	Sololá	4	Finca Santa Victoria	1	Enero	2023-06-01T00:00:00	2024-11-08T19:00:00	7	Dirección del viento	4.83
82387	7	Sololá	701	Sololá	4	Finca Santa Victoria	1	Enero	2023-06-01T00:00:00	2024-11-08T19:00:00	1	Precipitación	0
82388	7	Sololá	701	Sololá	4	Finca Santa Victoria	1	Enero	2023-06-01T00:00:00	2024-11-08T19:00:00	8	Radiación solar	0
82389	7	Sololá	701	Sololá	4	Finca Santa Victoria	1	Enero	2023-06-01T00:00:00	2024-11-08T20:00:00	2	Temperatura media	10.6
82390	7	Sololá	701	Sololá	4	Finca Santa Victoria	1	Enero	2023-06-01T00:00:00	2024-11-08T20:00:00	4	Temperatura máxima	11
82391	7	Sololá	701	Sololá	4	Finca Santa Victoria	1	Enero	2023-06-01T00:00:00	2024-11-08T20:00:00	3	Temperatura mínima	10.6
82392	7	Sololá	701	Sololá	4	Finca Santa Victoria	1	Enero	2023-06-01T00:00:00	2024-11-08T20:00:00	5	Humedad	85
82393	7	Sololá	701	Sololá	4	Finca Santa Victoria	1	Enero	2023-06-01T00:00:00	2024-11-08T20:00:00	6	Velocidad del viento	3.2
82394	7	Sololá	701	Sololá	4	Finca Santa Victoria	1	Enero	2023-06-01T00:00:00	2024-11-08T20:00:00	7	Dirección del viento	3.22
82395	7	Sololá	701	Sololá	4	Finca Santa Victoria	1	Enero	2023-06-01T00:00:00	2024-11-08T20:00:00	1	Precipitación	0
82396	7	Sololá	701	Sololá	4	Finca Santa Victoria	1	Enero	2023-06-01T00:00:00	2024-11-08T20:00:00	8	Radiación solar	0
82397	7	Sololá	701	Sololá	4	Finca Santa Victoria	1	Enero	2023-06-01T00:00:00	2024-11-08T21:00:00	2	Temperatura media	10.8
82398	7	Sololá	701	Sololá	4	Finca Santa Victoria	1	Enero	2023-06-01T00:00:00	2024-11-08T21:00:00	4	Temperatura máxima	10.9
82399	7	Sololá	701	Sololá	4	Finca Santa Victoria	1	Enero	2023-06-01T00:00:00	2024-11-08T21:00:00	3	Temperatura mínima	10.6
82400	7	Sololá	701	Sololá	4	Finca Santa Victoria	1	Enero	2023-06-01T00:00:00	2024-11-08T21:00:00	5	Humedad	84
82401	7	Sololá	701	Sololá	4	Finca Santa Victoria	1	Enero	2023-06-01T00:00:00	2024-11-08T21:00:00	6	Velocidad del viento	3.2
82402	7	Sololá	701	Sololá	4	Finca Santa Victoria	1	Enero	2023-06-01T00:00:00	2024-11-08T21:00:00	7	Dirección del viento	3.22
82403	7	Sololá	701	Sololá	4	Finca Santa Victoria	1	Enero	2023-06-01T00:00:00	2024-11-08T21:00:00	1	Precipitación	0
82404	7	Sololá	701	Sololá	4	Finca Santa Victoria	1	Enero	2023-06-01T00:00:00	2024-11-08T21:00:00	8	Radiación solar	0
82405	7	Sololá	701	Sololá	4	Finca Santa Victoria	1	Enero	2023-06-01T00:00:00	2024-11-08T22:00:00	2	Temperatura media	10.7
82406	7	Sololá	701	Sololá	4	Finca Santa Victoria	1	Enero	2023-06-01T00:00:00	2024-11-08T22:00:00	4	Temperatura máxima	10.8
82407	7	Sololá	701	Sololá	4	Finca Santa Victoria	1	Enero	2023-06-01T00:00:00	2024-11-08T22:00:00	3	Temperatura mínima	10.6
82408	7	Sololá	701	Sololá	4	Finca Santa Victoria	1	Enero	2023-06-01T00:00:00	2024-11-08T22:00:00	5	Humedad	85
82409	7	Sololá	701	Sololá	4	Finca Santa Victoria	1	Enero	2023-06-01T00:00:00	2024-11-08T22:00:00	6	Velocidad del viento	4.8
82410	7	Sololá	701	Sololá	4	Finca Santa Victoria	1	Enero	2023-06-01T00:00:00	2024-11-08T22:00:00	7	Dirección del viento	4.83
82411	7	Sololá	701	Sololá	4	Finca Santa Victoria	1	Enero	2023-06-01T00:00:00	2024-11-08T22:00:00	1	Precipitación	0
82412	7	Sololá	701	Sololá	4	Finca Santa Victoria	1	Enero	2023-06-01T00:00:00	2024-11-08T22:00:00	8	Radiación solar	0
82413	7	Sololá	701	Sololá	4	Finca Santa Victoria	1	Enero	2023-06-01T00:00:00	2024-11-08T23:00:00	2	Temperatura media	10.3
82414	7	Sololá	701	Sololá	4	Finca Santa Victoria	1	Enero	2023-06-01T00:00:00	2024-11-08T23:00:00	4	Temperatura máxima	10.7
82415	7	Sololá	701	Sololá	4	Finca Santa Victoria	1	Enero	2023-06-01T00:00:00	2024-11-08T23:00:00	3	Temperatura mínima	10.3
82416	7	Sololá	701	Sololá	4	Finca Santa Victoria	1	Enero	2023-06-01T00:00:00	2024-11-08T23:00:00	5	Humedad	87
82417	7	Sololá	701	Sololá	4	Finca Santa Victoria	1	Enero	2023-06-01T00:00:00	2024-11-08T23:00:00	6	Velocidad del viento	4.8
82418	7	Sololá	701	Sololá	4	Finca Santa Victoria	1	Enero	2023-06-01T00:00:00	2024-11-08T23:00:00	7	Dirección del viento	4.83
82419	7	Sololá	701	Sololá	4	Finca Santa Victoria	1	Enero	2023-06-01T00:00:00	2024-11-08T23:00:00	1	Precipitación	0
82420	7	Sololá	701	Sololá	4	Finca Santa Victoria	1	Enero	2023-06-01T00:00:00	2024-11-08T23:00:00	8	Radiación solar	0
82421	7	Sololá	701	Sololá	4	Finca Santa Victoria	1	Enero	2023-07-01T00:00:00	2024-11-08T00:00:00	2	Temperatura media	10.5
82422	7	Sololá	701	Sololá	4	Finca Santa Victoria	1	Enero	2023-07-01T00:00:00	2024-11-08T00:00:00	4	Temperatura máxima	10.6
82423	7	Sololá	701	Sololá	4	Finca Santa Victoria	1	Enero	2023-07-01T00:00:00	2024-11-08T00:00:00	3	Temperatura mínima	10.3
82424	7	Sololá	701	Sololá	4	Finca Santa Victoria	1	Enero	2023-07-01T00:00:00	2024-11-08T00:00:00	5	Humedad	87
82425	7	Sololá	701	Sololá	4	Finca Santa Victoria	1	Enero	2023-07-01T00:00:00	2024-11-08T00:00:00	6	Velocidad del viento	3.2
82426	7	Sololá	701	Sololá	4	Finca Santa Victoria	1	Enero	2023-07-01T00:00:00	2024-11-08T00:00:00	7	Dirección del viento	3.22
82427	7	Sololá	701	Sololá	4	Finca Santa Victoria	1	Enero	2023-07-01T00:00:00	2024-11-08T00:00:00	1	Precipitación	0
82428	7	Sololá	701	Sololá	4	Finca Santa Victoria	1	Enero	2023-07-01T00:00:00	2024-11-08T00:00:00	8	Radiación solar	0
82429	7	Sololá	701	Sololá	4	Finca Santa Victoria	1	Enero	2023-07-01T00:00:00	2024-11-08T01:00:00	2	Temperatura media	10.8
82430	7	Sololá	701	Sololá	4	Finca Santa Victoria	1	Enero	2023-07-01T00:00:00	2024-11-08T01:00:00	4	Temperatura máxima	10.9
82431	7	Sololá	701	Sololá	4	Finca Santa Victoria	1	Enero	2023-07-01T00:00:00	2024-11-08T01:00:00	3	Temperatura mínima	10.4
82432	7	Sololá	701	Sololá	4	Finca Santa Victoria	1	Enero	2023-07-01T00:00:00	2024-11-08T01:00:00	5	Humedad	85
82433	7	Sololá	701	Sololá	4	Finca Santa Victoria	1	Enero	2023-07-01T00:00:00	2024-11-08T01:00:00	6	Velocidad del viento	3.2
82434	7	Sololá	701	Sololá	4	Finca Santa Victoria	1	Enero	2023-07-01T00:00:00	2024-11-08T01:00:00	7	Dirección del viento	3.22
82435	7	Sololá	701	Sololá	4	Finca Santa Victoria	1	Enero	2023-07-01T00:00:00	2024-11-08T01:00:00	1	Precipitación	0
82436	7	Sololá	701	Sololá	4	Finca Santa Victoria	1	Enero	2023-07-01T00:00:00	2024-11-08T01:00:00	8	Radiación solar	0
82437	7	Sololá	701	Sololá	4	Finca Santa Victoria	1	Enero	2023-07-01T00:00:00	2024-11-08T02:00:00	2	Temperatura media	10.6
82438	7	Sololá	701	Sololá	4	Finca Santa Victoria	1	Enero	2023-07-01T00:00:00	2024-11-08T02:00:00	4	Temperatura máxima	10.9
82439	7	Sololá	701	Sololá	4	Finca Santa Victoria	1	Enero	2023-07-01T00:00:00	2024-11-08T02:00:00	3	Temperatura mínima	10.6
82440	7	Sololá	701	Sololá	4	Finca Santa Victoria	1	Enero	2023-07-01T00:00:00	2024-11-08T02:00:00	5	Humedad	87
82441	7	Sololá	701	Sololá	4	Finca Santa Victoria	1	Enero	2023-07-01T00:00:00	2024-11-08T02:00:00	6	Velocidad del viento	3.2
82442	7	Sololá	701	Sololá	4	Finca Santa Victoria	1	Enero	2023-07-01T00:00:00	2024-11-08T02:00:00	7	Dirección del viento	3.22
82443	7	Sololá	701	Sololá	4	Finca Santa Victoria	1	Enero	2023-07-01T00:00:00	2024-11-08T02:00:00	1	Precipitación	0
82444	7	Sololá	701	Sololá	4	Finca Santa Victoria	1	Enero	2023-07-01T00:00:00	2024-11-08T02:00:00	8	Radiación solar	0
82445	7	Sololá	701	Sololá	4	Finca Santa Victoria	1	Enero	2023-07-01T00:00:00	2024-11-08T03:00:00	2	Temperatura media	10
82446	7	Sololá	701	Sololá	4	Finca Santa Victoria	1	Enero	2023-07-01T00:00:00	2024-11-08T03:00:00	4	Temperatura máxima	10.7
82447	7	Sololá	701	Sololá	4	Finca Santa Victoria	1	Enero	2023-07-01T00:00:00	2024-11-08T03:00:00	3	Temperatura mínima	10
82448	7	Sololá	701	Sololá	4	Finca Santa Victoria	1	Enero	2023-07-01T00:00:00	2024-11-08T03:00:00	5	Humedad	92
82449	7	Sololá	701	Sololá	4	Finca Santa Victoria	1	Enero	2023-07-01T00:00:00	2024-11-08T03:00:00	6	Velocidad del viento	3.2
82450	7	Sololá	701	Sololá	4	Finca Santa Victoria	1	Enero	2023-07-01T00:00:00	2024-11-08T03:00:00	7	Dirección del viento	3.22
82451	7	Sololá	701	Sololá	4	Finca Santa Victoria	1	Enero	2023-07-01T00:00:00	2024-11-08T03:00:00	1	Precipitación	0
82452	7	Sololá	701	Sololá	4	Finca Santa Victoria	1	Enero	2023-07-01T00:00:00	2024-11-08T03:00:00	8	Radiación solar	0
82453	7	Sololá	701	Sololá	4	Finca Santa Victoria	1	Enero	2023-07-01T00:00:00	2024-11-08T04:00:00	2	Temperatura media	10.1
82454	7	Sololá	701	Sololá	4	Finca Santa Victoria	1	Enero	2023-07-01T00:00:00	2024-11-08T04:00:00	4	Temperatura máxima	10.1
82455	7	Sololá	701	Sololá	4	Finca Santa Victoria	1	Enero	2023-07-01T00:00:00	2024-11-08T04:00:00	3	Temperatura mínima	9.9
82456	7	Sololá	701	Sololá	4	Finca Santa Victoria	1	Enero	2023-07-01T00:00:00	2024-11-08T04:00:00	5	Humedad	92
82457	7	Sololá	701	Sololá	4	Finca Santa Victoria	1	Enero	2023-07-01T00:00:00	2024-11-08T04:00:00	6	Velocidad del viento	3.2
82458	7	Sololá	701	Sololá	4	Finca Santa Victoria	1	Enero	2023-07-01T00:00:00	2024-11-08T04:00:00	7	Dirección del viento	3.22
82459	7	Sololá	701	Sololá	4	Finca Santa Victoria	1	Enero	2023-07-01T00:00:00	2024-11-08T04:00:00	1	Precipitación	0
82460	7	Sololá	701	Sololá	4	Finca Santa Victoria	1	Enero	2023-07-01T00:00:00	2024-11-08T04:00:00	8	Radiación solar	0
82461	7	Sololá	701	Sololá	4	Finca Santa Victoria	1	Enero	2023-07-01T00:00:00	2024-11-08T05:00:00	2	Temperatura media	10.2
82462	7	Sololá	701	Sololá	4	Finca Santa Victoria	1	Enero	2023-07-01T00:00:00	2024-11-08T05:00:00	4	Temperatura máxima	10.2
82463	7	Sololá	701	Sololá	4	Finca Santa Victoria	1	Enero	2023-07-01T00:00:00	2024-11-08T05:00:00	3	Temperatura mínima	10
82464	7	Sololá	701	Sololá	4	Finca Santa Victoria	1	Enero	2023-07-01T00:00:00	2024-11-08T05:00:00	5	Humedad	89
82465	7	Sololá	701	Sololá	4	Finca Santa Victoria	1	Enero	2023-07-01T00:00:00	2024-11-08T05:00:00	6	Velocidad del viento	4.8
82466	7	Sololá	701	Sololá	4	Finca Santa Victoria	1	Enero	2023-07-01T00:00:00	2024-11-08T05:00:00	7	Dirección del viento	4.83
82467	7	Sololá	701	Sololá	4	Finca Santa Victoria	1	Enero	2023-07-01T00:00:00	2024-11-08T05:00:00	1	Precipitación	0
82468	7	Sololá	701	Sololá	4	Finca Santa Victoria	1	Enero	2023-07-01T00:00:00	2024-11-08T05:00:00	8	Radiación solar	0
82469	7	Sololá	701	Sololá	4	Finca Santa Victoria	1	Enero	2023-07-01T00:00:00	2024-11-08T06:00:00	2	Temperatura media	9.9
82470	7	Sololá	701	Sololá	4	Finca Santa Victoria	1	Enero	2023-07-01T00:00:00	2024-11-08T06:00:00	4	Temperatura máxima	10.2
82471	7	Sololá	701	Sololá	4	Finca Santa Victoria	1	Enero	2023-07-01T00:00:00	2024-11-08T06:00:00	3	Temperatura mínima	9.9
82472	7	Sololá	701	Sololá	4	Finca Santa Victoria	1	Enero	2023-07-01T00:00:00	2024-11-08T06:00:00	5	Humedad	92
82473	7	Sololá	701	Sololá	4	Finca Santa Victoria	1	Enero	2023-07-01T00:00:00	2024-11-08T06:00:00	6	Velocidad del viento	3.2
82474	7	Sololá	701	Sololá	4	Finca Santa Victoria	1	Enero	2023-07-01T00:00:00	2024-11-08T06:00:00	7	Dirección del viento	3.22
82475	7	Sololá	701	Sololá	4	Finca Santa Victoria	1	Enero	2023-07-01T00:00:00	2024-11-08T06:00:00	1	Precipitación	0
82476	7	Sololá	701	Sololá	4	Finca Santa Victoria	1	Enero	2023-07-01T00:00:00	2024-11-08T06:00:00	8	Radiación solar	0
82477	7	Sololá	701	Sololá	4	Finca Santa Victoria	1	Enero	2023-07-01T00:00:00	2024-11-08T07:00:00	2	Temperatura media	9.8
82478	7	Sololá	701	Sololá	4	Finca Santa Victoria	1	Enero	2023-07-01T00:00:00	2024-11-08T07:00:00	4	Temperatura máxima	9.9
82479	7	Sololá	701	Sololá	4	Finca Santa Victoria	1	Enero	2023-07-01T00:00:00	2024-11-08T07:00:00	3	Temperatura mínima	9.6
82480	7	Sololá	701	Sololá	4	Finca Santa Victoria	1	Enero	2023-07-01T00:00:00	2024-11-08T07:00:00	5	Humedad	91
82481	7	Sololá	701	Sololá	4	Finca Santa Victoria	1	Enero	2023-07-01T00:00:00	2024-11-08T07:00:00	6	Velocidad del viento	1.6
82482	7	Sololá	701	Sololá	4	Finca Santa Victoria	1	Enero	2023-07-01T00:00:00	2024-11-08T07:00:00	7	Dirección del viento	1.61
82483	7	Sololá	701	Sololá	4	Finca Santa Victoria	1	Enero	2023-07-01T00:00:00	2024-11-08T07:00:00	1	Precipitación	0
82484	7	Sololá	701	Sololá	4	Finca Santa Victoria	1	Enero	2023-07-01T00:00:00	2024-11-08T07:00:00	8	Radiación solar	5
82485	7	Sololá	701	Sololá	4	Finca Santa Victoria	1	Enero	2023-07-01T00:00:00	2024-11-08T08:00:00	2	Temperatura media	11.4
82486	7	Sololá	701	Sololá	4	Finca Santa Victoria	1	Enero	2023-07-01T00:00:00	2024-11-08T08:00:00	4	Temperatura máxima	11.5
82487	7	Sololá	701	Sololá	4	Finca Santa Victoria	1	Enero	2023-07-01T00:00:00	2024-11-08T08:00:00	3	Temperatura mínima	9.8
82488	7	Sololá	701	Sololá	4	Finca Santa Victoria	1	Enero	2023-07-01T00:00:00	2024-11-08T08:00:00	5	Humedad	86
82489	7	Sololá	701	Sololá	4	Finca Santa Victoria	1	Enero	2023-07-01T00:00:00	2024-11-08T08:00:00	6	Velocidad del viento	3.2
82490	7	Sololá	701	Sololá	4	Finca Santa Victoria	1	Enero	2023-07-01T00:00:00	2024-11-08T08:00:00	7	Dirección del viento	3.22
82491	7	Sololá	701	Sololá	4	Finca Santa Victoria	1	Enero	2023-07-01T00:00:00	2024-11-08T08:00:00	1	Precipitación	0
82492	7	Sololá	701	Sololá	4	Finca Santa Victoria	1	Enero	2023-07-01T00:00:00	2024-11-08T08:00:00	8	Radiación solar	67
82493	7	Sololá	701	Sololá	4	Finca Santa Victoria	1	Enero	2023-07-01T00:00:00	2024-11-08T09:00:00	2	Temperatura media	13.1
82494	7	Sololá	701	Sololá	4	Finca Santa Victoria	1	Enero	2023-07-01T00:00:00	2024-11-08T09:00:00	4	Temperatura máxima	13.1
82495	7	Sololá	701	Sololá	4	Finca Santa Victoria	1	Enero	2023-07-01T00:00:00	2024-11-08T09:00:00	3	Temperatura mínima	11.4
82496	7	Sololá	701	Sololá	4	Finca Santa Victoria	1	Enero	2023-07-01T00:00:00	2024-11-08T09:00:00	5	Humedad	77
82497	7	Sololá	701	Sololá	4	Finca Santa Victoria	1	Enero	2023-07-01T00:00:00	2024-11-08T09:00:00	6	Velocidad del viento	3.2
82498	7	Sololá	701	Sololá	4	Finca Santa Victoria	1	Enero	2023-07-01T00:00:00	2024-11-08T09:00:00	7	Dirección del viento	3.22
82499	7	Sololá	701	Sololá	4	Finca Santa Victoria	1	Enero	2023-07-01T00:00:00	2024-11-08T09:00:00	1	Precipitación	0
82500	7	Sololá	701	Sololá	4	Finca Santa Victoria	1	Enero	2023-07-01T00:00:00	2024-11-08T09:00:00	8	Radiación solar	220
82501	7	Sololá	701	Sololá	4	Finca Santa Victoria	1	Enero	2023-07-01T00:00:00	2024-11-08T10:00:00	2	Temperatura media	14.5
82502	7	Sololá	701	Sololá	4	Finca Santa Victoria	1	Enero	2023-07-01T00:00:00	2024-11-08T10:00:00	4	Temperatura máxima	14.5
82503	7	Sololá	701	Sololá	4	Finca Santa Victoria	1	Enero	2023-07-01T00:00:00	2024-11-08T10:00:00	3	Temperatura mínima	13.1
82504	7	Sololá	701	Sololá	4	Finca Santa Victoria	1	Enero	2023-07-01T00:00:00	2024-11-08T10:00:00	5	Humedad	70
82505	7	Sololá	701	Sololá	4	Finca Santa Victoria	1	Enero	2023-07-01T00:00:00	2024-11-08T10:00:00	6	Velocidad del viento	3.2
82506	7	Sololá	701	Sololá	4	Finca Santa Victoria	1	Enero	2023-07-01T00:00:00	2024-11-08T10:00:00	7	Dirección del viento	3.22
82507	7	Sololá	701	Sololá	4	Finca Santa Victoria	1	Enero	2023-07-01T00:00:00	2024-11-08T10:00:00	1	Precipitación	0
82508	7	Sololá	701	Sololá	4	Finca Santa Victoria	1	Enero	2023-07-01T00:00:00	2024-11-08T10:00:00	8	Radiación solar	528
82509	7	Sololá	701	Sololá	4	Finca Santa Victoria	1	Enero	2023-07-01T00:00:00	2024-11-08T11:00:00	2	Temperatura media	15.2
82510	7	Sololá	701	Sololá	4	Finca Santa Victoria	1	Enero	2023-07-01T00:00:00	2024-11-08T11:00:00	4	Temperatura máxima	15.2
82511	7	Sololá	701	Sololá	4	Finca Santa Victoria	1	Enero	2023-07-01T00:00:00	2024-11-08T11:00:00	3	Temperatura mínima	14.4
82512	7	Sololá	701	Sololá	4	Finca Santa Victoria	1	Enero	2023-07-01T00:00:00	2024-11-08T11:00:00	5	Humedad	67
82513	7	Sololá	701	Sololá	4	Finca Santa Victoria	1	Enero	2023-07-01T00:00:00	2024-11-08T11:00:00	6	Velocidad del viento	4.8
82514	7	Sololá	701	Sololá	4	Finca Santa Victoria	1	Enero	2023-07-01T00:00:00	2024-11-08T11:00:00	7	Dirección del viento	4.83
82515	7	Sololá	701	Sololá	4	Finca Santa Victoria	1	Enero	2023-07-01T00:00:00	2024-11-08T11:00:00	1	Precipitación	0
82516	7	Sololá	701	Sololá	4	Finca Santa Victoria	1	Enero	2023-07-01T00:00:00	2024-11-08T11:00:00	8	Radiación solar	671
82517	7	Sololá	701	Sololá	4	Finca Santa Victoria	1	Enero	2023-07-01T00:00:00	2024-11-08T12:00:00	2	Temperatura media	15.5
82518	7	Sololá	701	Sololá	4	Finca Santa Victoria	1	Enero	2023-07-01T00:00:00	2024-11-08T12:00:00	4	Temperatura máxima	15.7
82519	7	Sololá	701	Sololá	4	Finca Santa Victoria	1	Enero	2023-07-01T00:00:00	2024-11-08T12:00:00	3	Temperatura mínima	15.2
82520	7	Sololá	701	Sololá	4	Finca Santa Victoria	1	Enero	2023-07-01T00:00:00	2024-11-08T12:00:00	5	Humedad	66
82521	7	Sololá	701	Sololá	4	Finca Santa Victoria	1	Enero	2023-07-01T00:00:00	2024-11-08T12:00:00	6	Velocidad del viento	3.2
82522	7	Sololá	701	Sololá	4	Finca Santa Victoria	1	Enero	2023-07-01T00:00:00	2024-11-08T12:00:00	7	Dirección del viento	3.22
82523	7	Sololá	701	Sololá	4	Finca Santa Victoria	1	Enero	2023-07-01T00:00:00	2024-11-08T12:00:00	1	Precipitación	0
82524	7	Sololá	701	Sololá	4	Finca Santa Victoria	1	Enero	2023-07-01T00:00:00	2024-11-08T12:00:00	8	Radiación solar	269
82525	7	Sololá	701	Sololá	4	Finca Santa Victoria	1	Enero	2023-07-01T00:00:00	2024-11-08T13:00:00	2	Temperatura media	16.8
82526	7	Sololá	701	Sololá	4	Finca Santa Victoria	1	Enero	2023-07-01T00:00:00	2024-11-08T13:00:00	4	Temperatura máxima	17.2
82527	7	Sololá	701	Sololá	4	Finca Santa Victoria	1	Enero	2023-07-01T00:00:00	2024-11-08T13:00:00	3	Temperatura mínima	15.3
82528	7	Sololá	701	Sololá	4	Finca Santa Victoria	1	Enero	2023-07-01T00:00:00	2024-11-08T13:00:00	5	Humedad	62
82529	7	Sololá	701	Sololá	4	Finca Santa Victoria	1	Enero	2023-07-01T00:00:00	2024-11-08T13:00:00	6	Velocidad del viento	4.8
82530	7	Sololá	701	Sololá	4	Finca Santa Victoria	1	Enero	2023-07-01T00:00:00	2024-11-08T13:00:00	7	Dirección del viento	4.83
82531	7	Sololá	701	Sololá	4	Finca Santa Victoria	1	Enero	2023-07-01T00:00:00	2024-11-08T13:00:00	1	Precipitación	0
82532	7	Sololá	701	Sololá	4	Finca Santa Victoria	1	Enero	2023-07-01T00:00:00	2024-11-08T13:00:00	8	Radiación solar	559
82533	7	Sololá	701	Sololá	4	Finca Santa Victoria	1	Enero	2023-07-01T00:00:00	2024-11-08T14:00:00	2	Temperatura media	14.9
82534	7	Sololá	701	Sololá	4	Finca Santa Victoria	1	Enero	2023-07-01T00:00:00	2024-11-08T14:00:00	4	Temperatura máxima	16.8
82535	7	Sololá	701	Sololá	4	Finca Santa Victoria	1	Enero	2023-07-01T00:00:00	2024-11-08T14:00:00	3	Temperatura mínima	14.8
82536	7	Sololá	701	Sololá	4	Finca Santa Victoria	1	Enero	2023-07-01T00:00:00	2024-11-08T14:00:00	5	Humedad	71
82537	7	Sololá	701	Sololá	4	Finca Santa Victoria	1	Enero	2023-07-01T00:00:00	2024-11-08T14:00:00	6	Velocidad del viento	3.2
82538	7	Sololá	701	Sololá	4	Finca Santa Victoria	1	Enero	2023-07-01T00:00:00	2024-11-08T14:00:00	7	Dirección del viento	3.22
82539	7	Sololá	701	Sololá	4	Finca Santa Victoria	1	Enero	2023-07-01T00:00:00	2024-11-08T14:00:00	1	Precipitación	0
82540	7	Sololá	701	Sololá	4	Finca Santa Victoria	1	Enero	2023-07-01T00:00:00	2024-11-08T14:00:00	8	Radiación solar	247
82541	7	Sololá	701	Sololá	4	Finca Santa Victoria	1	Enero	2023-07-01T00:00:00	2024-11-08T15:00:00	2	Temperatura media	15.9
82542	7	Sololá	701	Sololá	4	Finca Santa Victoria	1	Enero	2023-07-01T00:00:00	2024-11-08T15:00:00	4	Temperatura máxima	16.7
82543	7	Sololá	701	Sololá	4	Finca Santa Victoria	1	Enero	2023-07-01T00:00:00	2024-11-08T15:00:00	3	Temperatura mínima	15
82544	7	Sololá	701	Sololá	4	Finca Santa Victoria	1	Enero	2023-07-01T00:00:00	2024-11-08T15:00:00	5	Humedad	71
82545	7	Sololá	701	Sololá	4	Finca Santa Victoria	1	Enero	2023-07-01T00:00:00	2024-11-08T15:00:00	6	Velocidad del viento	3.2
82546	7	Sololá	701	Sololá	4	Finca Santa Victoria	1	Enero	2023-07-01T00:00:00	2024-11-08T15:00:00	7	Dirección del viento	3.22
82547	7	Sololá	701	Sololá	4	Finca Santa Victoria	1	Enero	2023-07-01T00:00:00	2024-11-08T15:00:00	1	Precipitación	0
82548	7	Sololá	701	Sololá	4	Finca Santa Victoria	1	Enero	2023-07-01T00:00:00	2024-11-08T15:00:00	8	Radiación solar	306
82549	7	Sololá	701	Sololá	4	Finca Santa Victoria	1	Enero	2023-07-01T00:00:00	2024-11-08T16:00:00	2	Temperatura media	15.3
82550	7	Sololá	701	Sololá	4	Finca Santa Victoria	1	Enero	2023-07-01T00:00:00	2024-11-08T16:00:00	4	Temperatura máxima	16.1
82551	7	Sololá	701	Sololá	4	Finca Santa Victoria	1	Enero	2023-07-01T00:00:00	2024-11-08T16:00:00	3	Temperatura mínima	14.9
82552	7	Sololá	701	Sololá	4	Finca Santa Victoria	1	Enero	2023-07-01T00:00:00	2024-11-08T16:00:00	5	Humedad	72
82553	7	Sololá	701	Sololá	4	Finca Santa Victoria	1	Enero	2023-07-01T00:00:00	2024-11-08T16:00:00	6	Velocidad del viento	4.8
82554	7	Sololá	701	Sololá	4	Finca Santa Victoria	1	Enero	2023-07-01T00:00:00	2024-11-08T16:00:00	7	Dirección del viento	4.83
82555	7	Sololá	701	Sololá	4	Finca Santa Victoria	1	Enero	2023-07-01T00:00:00	2024-11-08T16:00:00	1	Precipitación	0
82556	7	Sololá	701	Sololá	4	Finca Santa Victoria	1	Enero	2023-07-01T00:00:00	2024-11-08T16:00:00	8	Radiación solar	372
82557	7	Sololá	701	Sololá	4	Finca Santa Victoria	1	Enero	2023-07-01T00:00:00	2024-11-08T17:00:00	2	Temperatura media	14.2
82558	7	Sololá	701	Sololá	4	Finca Santa Victoria	1	Enero	2023-07-01T00:00:00	2024-11-08T17:00:00	4	Temperatura máxima	16.1
82559	7	Sololá	701	Sololá	4	Finca Santa Victoria	1	Enero	2023-07-01T00:00:00	2024-11-08T17:00:00	3	Temperatura mínima	14.2
82560	7	Sololá	701	Sololá	4	Finca Santa Victoria	1	Enero	2023-07-01T00:00:00	2024-11-08T17:00:00	5	Humedad	75
82561	7	Sololá	701	Sololá	4	Finca Santa Victoria	1	Enero	2023-07-01T00:00:00	2024-11-08T17:00:00	6	Velocidad del viento	3.2
82562	7	Sololá	701	Sololá	4	Finca Santa Victoria	1	Enero	2023-07-01T00:00:00	2024-11-08T17:00:00	7	Dirección del viento	3.22
82563	7	Sololá	701	Sololá	4	Finca Santa Victoria	1	Enero	2023-07-01T00:00:00	2024-11-08T17:00:00	1	Precipitación	0
82564	7	Sololá	701	Sololá	4	Finca Santa Victoria	1	Enero	2023-07-01T00:00:00	2024-11-08T17:00:00	8	Radiación solar	206
82565	7	Sololá	701	Sololá	4	Finca Santa Victoria	1	Enero	2023-07-01T00:00:00	2024-11-08T18:00:00	2	Temperatura media	12.5
82566	7	Sololá	701	Sololá	4	Finca Santa Victoria	1	Enero	2023-07-01T00:00:00	2024-11-08T18:00:00	4	Temperatura máxima	14.2
82567	7	Sololá	701	Sololá	4	Finca Santa Victoria	1	Enero	2023-07-01T00:00:00	2024-11-08T18:00:00	3	Temperatura mínima	12.5
82568	7	Sololá	701	Sololá	4	Finca Santa Victoria	1	Enero	2023-07-01T00:00:00	2024-11-08T18:00:00	5	Humedad	82
82569	7	Sololá	701	Sololá	4	Finca Santa Victoria	1	Enero	2023-07-01T00:00:00	2024-11-08T18:00:00	6	Velocidad del viento	1.6
82570	7	Sololá	701	Sololá	4	Finca Santa Victoria	1	Enero	2023-07-01T00:00:00	2024-11-08T18:00:00	7	Dirección del viento	1.61
82571	7	Sololá	701	Sololá	4	Finca Santa Victoria	1	Enero	2023-07-01T00:00:00	2024-11-08T18:00:00	1	Precipitación	0
82572	7	Sololá	701	Sololá	4	Finca Santa Victoria	1	Enero	2023-07-01T00:00:00	2024-11-08T18:00:00	8	Radiación solar	35
82573	7	Sololá	701	Sololá	4	Finca Santa Victoria	1	Enero	2023-07-01T00:00:00	2024-11-08T19:00:00	2	Temperatura media	11.7
82574	7	Sololá	701	Sololá	4	Finca Santa Victoria	1	Enero	2023-07-01T00:00:00	2024-11-08T19:00:00	4	Temperatura máxima	12.4
82575	7	Sololá	701	Sololá	4	Finca Santa Victoria	1	Enero	2023-07-01T00:00:00	2024-11-08T19:00:00	3	Temperatura mínima	11.6
82576	7	Sololá	701	Sololá	4	Finca Santa Victoria	1	Enero	2023-07-01T00:00:00	2024-11-08T19:00:00	5	Humedad	83
82577	7	Sololá	701	Sololá	4	Finca Santa Victoria	1	Enero	2023-07-01T00:00:00	2024-11-08T19:00:00	6	Velocidad del viento	1.6
82578	7	Sololá	701	Sololá	4	Finca Santa Victoria	1	Enero	2023-07-01T00:00:00	2024-11-08T19:00:00	7	Dirección del viento	1.61
82579	7	Sololá	701	Sololá	4	Finca Santa Victoria	1	Enero	2023-07-01T00:00:00	2024-11-08T19:00:00	1	Precipitación	0
82580	7	Sololá	701	Sololá	4	Finca Santa Victoria	1	Enero	2023-07-01T00:00:00	2024-11-08T19:00:00	8	Radiación solar	0
82581	7	Sololá	701	Sololá	4	Finca Santa Victoria	1	Enero	2023-07-01T00:00:00	2024-11-08T20:00:00	2	Temperatura media	11.6
82582	7	Sololá	701	Sololá	4	Finca Santa Victoria	1	Enero	2023-07-01T00:00:00	2024-11-08T20:00:00	4	Temperatura máxima	11.7
82583	7	Sololá	701	Sololá	4	Finca Santa Victoria	1	Enero	2023-07-01T00:00:00	2024-11-08T20:00:00	3	Temperatura mínima	11.5
82584	7	Sololá	701	Sololá	4	Finca Santa Victoria	1	Enero	2023-07-01T00:00:00	2024-11-08T20:00:00	5	Humedad	86
82585	7	Sololá	701	Sololá	4	Finca Santa Victoria	1	Enero	2023-07-01T00:00:00	2024-11-08T20:00:00	6	Velocidad del viento	1.6
82586	7	Sololá	701	Sololá	4	Finca Santa Victoria	1	Enero	2023-07-01T00:00:00	2024-11-08T20:00:00	7	Dirección del viento	1.61
82587	7	Sololá	701	Sololá	4	Finca Santa Victoria	1	Enero	2023-07-01T00:00:00	2024-11-08T20:00:00	1	Precipitación	0
82588	7	Sololá	701	Sololá	4	Finca Santa Victoria	1	Enero	2023-07-01T00:00:00	2024-11-08T20:00:00	8	Radiación solar	0
82589	7	Sololá	701	Sololá	4	Finca Santa Victoria	1	Enero	2023-07-01T00:00:00	2024-11-08T21:00:00	2	Temperatura media	11.8
82590	7	Sololá	701	Sololá	4	Finca Santa Victoria	1	Enero	2023-07-01T00:00:00	2024-11-08T21:00:00	4	Temperatura máxima	11.8
82591	7	Sololá	701	Sololá	4	Finca Santa Victoria	1	Enero	2023-07-01T00:00:00	2024-11-08T21:00:00	3	Temperatura mínima	11.6
82592	7	Sololá	701	Sololá	4	Finca Santa Victoria	1	Enero	2023-07-01T00:00:00	2024-11-08T21:00:00	5	Humedad	83
82593	7	Sololá	701	Sololá	4	Finca Santa Victoria	1	Enero	2023-07-01T00:00:00	2024-11-08T21:00:00	6	Velocidad del viento	1.6
82594	7	Sololá	701	Sololá	4	Finca Santa Victoria	1	Enero	2023-07-01T00:00:00	2024-11-08T21:00:00	7	Dirección del viento	1.61
82595	7	Sololá	701	Sololá	4	Finca Santa Victoria	1	Enero	2023-07-01T00:00:00	2024-11-08T21:00:00	1	Precipitación	0
82596	7	Sololá	701	Sololá	4	Finca Santa Victoria	1	Enero	2023-07-01T00:00:00	2024-11-08T21:00:00	8	Radiación solar	0
82597	7	Sololá	701	Sololá	4	Finca Santa Victoria	1	Enero	2023-07-01T00:00:00	2024-11-08T22:00:00	2	Temperatura media	11.6
82598	7	Sololá	701	Sololá	4	Finca Santa Victoria	1	Enero	2023-07-01T00:00:00	2024-11-08T22:00:00	4	Temperatura máxima	11.8
82599	7	Sololá	701	Sololá	4	Finca Santa Victoria	1	Enero	2023-07-01T00:00:00	2024-11-08T22:00:00	3	Temperatura mínima	11.6
82600	7	Sololá	701	Sololá	4	Finca Santa Victoria	1	Enero	2023-07-01T00:00:00	2024-11-08T22:00:00	5	Humedad	84
82601	7	Sololá	701	Sololá	4	Finca Santa Victoria	1	Enero	2023-07-01T00:00:00	2024-11-08T22:00:00	6	Velocidad del viento	1.6
82602	7	Sololá	701	Sololá	4	Finca Santa Victoria	1	Enero	2023-07-01T00:00:00	2024-11-08T22:00:00	7	Dirección del viento	1.61
82603	7	Sololá	701	Sololá	4	Finca Santa Victoria	1	Enero	2023-07-01T00:00:00	2024-11-08T22:00:00	1	Precipitación	0
82604	7	Sololá	701	Sololá	4	Finca Santa Victoria	1	Enero	2023-07-01T00:00:00	2024-11-08T22:00:00	8	Radiación solar	0
82605	7	Sololá	701	Sololá	4	Finca Santa Victoria	1	Enero	2023-07-01T00:00:00	2024-11-08T23:00:00	2	Temperatura media	10.9
82606	7	Sololá	701	Sololá	4	Finca Santa Victoria	1	Enero	2023-07-01T00:00:00	2024-11-08T23:00:00	4	Temperatura máxima	11.6
82607	7	Sololá	701	Sololá	4	Finca Santa Victoria	1	Enero	2023-07-01T00:00:00	2024-11-08T23:00:00	3	Temperatura mínima	10.9
82608	7	Sololá	701	Sololá	4	Finca Santa Victoria	1	Enero	2023-07-01T00:00:00	2024-11-08T23:00:00	5	Humedad	86
82609	7	Sololá	701	Sololá	4	Finca Santa Victoria	1	Enero	2023-07-01T00:00:00	2024-11-08T23:00:00	6	Velocidad del viento	3.2
82610	7	Sololá	701	Sololá	4	Finca Santa Victoria	1	Enero	2023-07-01T00:00:00	2024-11-08T23:00:00	7	Dirección del viento	3.22
82611	7	Sololá	701	Sololá	4	Finca Santa Victoria	1	Enero	2023-07-01T00:00:00	2024-11-08T23:00:00	1	Precipitación	0
82612	7	Sololá	701	Sololá	4	Finca Santa Victoria	1	Enero	2023-07-01T00:00:00	2024-11-08T23:00:00	8	Radiación solar	0
82613	7	Sololá	701	Sololá	4	Finca Santa Victoria	1	Enero	2023-08-01T00:00:00	2024-11-08T00:00:00	2	Temperatura media	11.1
82614	7	Sololá	701	Sololá	4	Finca Santa Victoria	1	Enero	2023-08-01T00:00:00	2024-11-08T00:00:00	4	Temperatura máxima	11.3
82615	7	Sololá	701	Sololá	4	Finca Santa Victoria	1	Enero	2023-08-01T00:00:00	2024-11-08T00:00:00	3	Temperatura mínima	10.9
82616	7	Sololá	701	Sololá	4	Finca Santa Victoria	1	Enero	2023-08-01T00:00:00	2024-11-08T00:00:00	5	Humedad	87
82617	7	Sololá	701	Sololá	4	Finca Santa Victoria	1	Enero	2023-08-01T00:00:00	2024-11-08T00:00:00	6	Velocidad del viento	3.2
82618	7	Sololá	701	Sololá	4	Finca Santa Victoria	1	Enero	2023-08-01T00:00:00	2024-11-08T00:00:00	7	Dirección del viento	3.22
82619	7	Sololá	701	Sololá	4	Finca Santa Victoria	1	Enero	2023-08-01T00:00:00	2024-11-08T00:00:00	1	Precipitación	0
82620	7	Sololá	701	Sololá	4	Finca Santa Victoria	1	Enero	2023-08-01T00:00:00	2024-11-08T00:00:00	8	Radiación solar	0
82621	7	Sololá	701	Sololá	4	Finca Santa Victoria	1	Enero	2023-08-01T00:00:00	2024-11-08T01:00:00	2	Temperatura media	10.5
82622	7	Sololá	701	Sololá	4	Finca Santa Victoria	1	Enero	2023-08-01T00:00:00	2024-11-08T01:00:00	4	Temperatura máxima	11.1
82623	7	Sololá	701	Sololá	4	Finca Santa Victoria	1	Enero	2023-08-01T00:00:00	2024-11-08T01:00:00	3	Temperatura mínima	10.5
82624	7	Sololá	701	Sololá	4	Finca Santa Victoria	1	Enero	2023-08-01T00:00:00	2024-11-08T01:00:00	5	Humedad	90
82625	7	Sololá	701	Sololá	4	Finca Santa Victoria	1	Enero	2023-08-01T00:00:00	2024-11-08T01:00:00	6	Velocidad del viento	1.6
82626	7	Sololá	701	Sololá	4	Finca Santa Victoria	1	Enero	2023-08-01T00:00:00	2024-11-08T01:00:00	7	Dirección del viento	1.61
82627	7	Sololá	701	Sololá	4	Finca Santa Victoria	1	Enero	2023-08-01T00:00:00	2024-11-08T01:00:00	1	Precipitación	0
82628	7	Sololá	701	Sololá	4	Finca Santa Victoria	1	Enero	2023-08-01T00:00:00	2024-11-08T01:00:00	8	Radiación solar	0
82629	7	Sololá	701	Sololá	4	Finca Santa Victoria	1	Enero	2023-08-01T00:00:00	2024-11-08T02:00:00	2	Temperatura media	10.5
82630	7	Sololá	701	Sololá	4	Finca Santa Victoria	1	Enero	2023-08-01T00:00:00	2024-11-08T02:00:00	4	Temperatura máxima	10.6
82631	7	Sololá	701	Sololá	4	Finca Santa Victoria	1	Enero	2023-08-01T00:00:00	2024-11-08T02:00:00	3	Temperatura mínima	10.4
82632	7	Sololá	701	Sololá	4	Finca Santa Victoria	1	Enero	2023-08-01T00:00:00	2024-11-08T02:00:00	5	Humedad	90
82633	7	Sololá	701	Sololá	4	Finca Santa Victoria	1	Enero	2023-08-01T00:00:00	2024-11-08T02:00:00	6	Velocidad del viento	3.2
82634	7	Sololá	701	Sololá	4	Finca Santa Victoria	1	Enero	2023-08-01T00:00:00	2024-11-08T02:00:00	7	Dirección del viento	3.22
82635	7	Sololá	701	Sololá	4	Finca Santa Victoria	1	Enero	2023-08-01T00:00:00	2024-11-08T02:00:00	1	Precipitación	0
82636	7	Sololá	701	Sololá	4	Finca Santa Victoria	1	Enero	2023-08-01T00:00:00	2024-11-08T02:00:00	8	Radiación solar	0
82637	7	Sololá	701	Sololá	4	Finca Santa Victoria	1	Enero	2023-08-01T00:00:00	2024-11-08T03:00:00	2	Temperatura media	10.8
82638	7	Sololá	701	Sololá	4	Finca Santa Victoria	1	Enero	2023-08-01T00:00:00	2024-11-08T03:00:00	4	Temperatura máxima	10.9
82639	7	Sololá	701	Sololá	4	Finca Santa Victoria	1	Enero	2023-08-01T00:00:00	2024-11-08T03:00:00	3	Temperatura mínima	10.4
82640	7	Sololá	701	Sololá	4	Finca Santa Victoria	1	Enero	2023-08-01T00:00:00	2024-11-08T03:00:00	5	Humedad	87
82641	7	Sololá	701	Sololá	4	Finca Santa Victoria	1	Enero	2023-08-01T00:00:00	2024-11-08T03:00:00	6	Velocidad del viento	3.2
82642	7	Sololá	701	Sololá	4	Finca Santa Victoria	1	Enero	2023-08-01T00:00:00	2024-11-08T03:00:00	7	Dirección del viento	3.22
82643	7	Sololá	701	Sololá	4	Finca Santa Victoria	1	Enero	2023-08-01T00:00:00	2024-11-08T03:00:00	1	Precipitación	0
82644	7	Sololá	701	Sololá	4	Finca Santa Victoria	1	Enero	2023-08-01T00:00:00	2024-11-08T03:00:00	8	Radiación solar	0
82645	7	Sololá	701	Sololá	4	Finca Santa Victoria	1	Enero	2023-08-01T00:00:00	2024-11-08T04:00:00	2	Temperatura media	10.7
82646	7	Sololá	701	Sololá	4	Finca Santa Victoria	1	Enero	2023-08-01T00:00:00	2024-11-08T04:00:00	4	Temperatura máxima	11.1
82647	7	Sololá	701	Sololá	4	Finca Santa Victoria	1	Enero	2023-08-01T00:00:00	2024-11-08T04:00:00	3	Temperatura mínima	10.7
82648	7	Sololá	701	Sololá	4	Finca Santa Victoria	1	Enero	2023-08-01T00:00:00	2024-11-08T04:00:00	5	Humedad	85
82649	7	Sololá	701	Sololá	4	Finca Santa Victoria	1	Enero	2023-08-01T00:00:00	2024-11-08T04:00:00	6	Velocidad del viento	3.2
82650	7	Sololá	701	Sololá	4	Finca Santa Victoria	1	Enero	2023-08-01T00:00:00	2024-11-08T04:00:00	7	Dirección del viento	3.22
82651	7	Sololá	701	Sololá	4	Finca Santa Victoria	1	Enero	2023-08-01T00:00:00	2024-11-08T04:00:00	1	Precipitación	0
82652	7	Sololá	701	Sololá	4	Finca Santa Victoria	1	Enero	2023-08-01T00:00:00	2024-11-08T04:00:00	8	Radiación solar	0
82653	7	Sololá	701	Sololá	4	Finca Santa Victoria	1	Enero	2023-08-01T00:00:00	2024-11-08T05:00:00	2	Temperatura media	10.3
82654	7	Sololá	701	Sololá	4	Finca Santa Victoria	1	Enero	2023-08-01T00:00:00	2024-11-08T05:00:00	4	Temperatura máxima	10.9
82655	7	Sololá	701	Sololá	4	Finca Santa Victoria	1	Enero	2023-08-01T00:00:00	2024-11-08T05:00:00	3	Temperatura mínima	10.3
82656	7	Sololá	701	Sololá	4	Finca Santa Victoria	1	Enero	2023-08-01T00:00:00	2024-11-08T05:00:00	5	Humedad	89
82657	7	Sololá	701	Sololá	4	Finca Santa Victoria	1	Enero	2023-08-01T00:00:00	2024-11-08T05:00:00	6	Velocidad del viento	1.6
82658	7	Sololá	701	Sololá	4	Finca Santa Victoria	1	Enero	2023-08-01T00:00:00	2024-11-08T05:00:00	7	Dirección del viento	1.61
82659	7	Sololá	701	Sololá	4	Finca Santa Victoria	1	Enero	2023-08-01T00:00:00	2024-11-08T05:00:00	1	Precipitación	0
82660	7	Sololá	701	Sololá	4	Finca Santa Victoria	1	Enero	2023-08-01T00:00:00	2024-11-08T05:00:00	8	Radiación solar	0
82661	7	Sololá	701	Sololá	4	Finca Santa Victoria	1	Enero	2023-08-01T00:00:00	2024-11-08T06:00:00	2	Temperatura media	10.2
82662	7	Sololá	701	Sololá	4	Finca Santa Victoria	1	Enero	2023-08-01T00:00:00	2024-11-08T06:00:00	4	Temperatura máxima	10.4
82663	7	Sololá	701	Sololá	4	Finca Santa Victoria	1	Enero	2023-08-01T00:00:00	2024-11-08T06:00:00	3	Temperatura mínima	9.9
82664	7	Sololá	701	Sololá	4	Finca Santa Victoria	1	Enero	2023-08-01T00:00:00	2024-11-08T06:00:00	5	Humedad	89
82665	7	Sololá	701	Sololá	4	Finca Santa Victoria	1	Enero	2023-08-01T00:00:00	2024-11-08T06:00:00	6	Velocidad del viento	1.6
82666	7	Sololá	701	Sololá	4	Finca Santa Victoria	1	Enero	2023-08-01T00:00:00	2024-11-08T06:00:00	7	Dirección del viento	1.61
82667	7	Sololá	701	Sololá	4	Finca Santa Victoria	1	Enero	2023-08-01T00:00:00	2024-11-08T06:00:00	1	Precipitación	0
82668	7	Sololá	701	Sololá	4	Finca Santa Victoria	1	Enero	2023-08-01T00:00:00	2024-11-08T06:00:00	8	Radiación solar	0
82669	7	Sololá	701	Sololá	4	Finca Santa Victoria	1	Enero	2023-08-01T00:00:00	2024-11-08T07:00:00	2	Temperatura media	10.2
82670	7	Sololá	701	Sololá	4	Finca Santa Victoria	1	Enero	2023-08-01T00:00:00	2024-11-08T07:00:00	4	Temperatura máxima	10.4
82671	7	Sololá	701	Sololá	4	Finca Santa Victoria	1	Enero	2023-08-01T00:00:00	2024-11-08T07:00:00	3	Temperatura mínima	10.2
82672	7	Sololá	701	Sololá	4	Finca Santa Victoria	1	Enero	2023-08-01T00:00:00	2024-11-08T07:00:00	5	Humedad	89
82673	7	Sololá	701	Sololá	4	Finca Santa Victoria	1	Enero	2023-08-01T00:00:00	2024-11-08T07:00:00	6	Velocidad del viento	1.6
82674	7	Sololá	701	Sololá	4	Finca Santa Victoria	1	Enero	2023-08-01T00:00:00	2024-11-08T07:00:00	7	Dirección del viento	1.61
82675	7	Sololá	701	Sololá	4	Finca Santa Victoria	1	Enero	2023-08-01T00:00:00	2024-11-08T07:00:00	1	Precipitación	0
82676	7	Sololá	701	Sololá	4	Finca Santa Victoria	1	Enero	2023-08-01T00:00:00	2024-11-08T07:00:00	8	Radiación solar	3
82677	7	Sololá	701	Sololá	4	Finca Santa Victoria	1	Enero	2023-08-01T00:00:00	2024-11-08T08:00:00	2	Temperatura media	12.7
82678	7	Sololá	701	Sololá	4	Finca Santa Victoria	1	Enero	2023-08-01T00:00:00	2024-11-08T08:00:00	4	Temperatura máxima	12.7
82679	7	Sololá	701	Sololá	4	Finca Santa Victoria	1	Enero	2023-08-01T00:00:00	2024-11-08T08:00:00	3	Temperatura mínima	10.2
82680	7	Sololá	701	Sololá	4	Finca Santa Victoria	1	Enero	2023-08-01T00:00:00	2024-11-08T08:00:00	5	Humedad	83
82681	7	Sololá	701	Sololá	4	Finca Santa Victoria	1	Enero	2023-08-01T00:00:00	2024-11-08T08:00:00	6	Velocidad del viento	1.6
82682	7	Sololá	701	Sololá	4	Finca Santa Victoria	1	Enero	2023-08-01T00:00:00	2024-11-08T08:00:00	7	Dirección del viento	1.61
82683	7	Sololá	701	Sololá	4	Finca Santa Victoria	1	Enero	2023-08-01T00:00:00	2024-11-08T08:00:00	1	Precipitación	0
82684	7	Sololá	701	Sololá	4	Finca Santa Victoria	1	Enero	2023-08-01T00:00:00	2024-11-08T08:00:00	8	Radiación solar	30
82685	7	Sololá	701	Sololá	4	Finca Santa Victoria	1	Enero	2023-08-01T00:00:00	2024-11-08T09:00:00	2	Temperatura media	15.4
82686	7	Sololá	701	Sololá	4	Finca Santa Victoria	1	Enero	2023-08-01T00:00:00	2024-11-08T09:00:00	4	Temperatura máxima	15.4
82687	7	Sololá	701	Sololá	4	Finca Santa Victoria	1	Enero	2023-08-01T00:00:00	2024-11-08T09:00:00	3	Temperatura mínima	12.6
82688	7	Sololá	701	Sololá	4	Finca Santa Victoria	1	Enero	2023-08-01T00:00:00	2024-11-08T09:00:00	5	Humedad	75
82689	7	Sololá	701	Sololá	4	Finca Santa Victoria	1	Enero	2023-08-01T00:00:00	2024-11-08T09:00:00	6	Velocidad del viento	3.2
82690	7	Sololá	701	Sololá	4	Finca Santa Victoria	1	Enero	2023-08-01T00:00:00	2024-11-08T09:00:00	7	Dirección del viento	3.22
82691	7	Sololá	701	Sololá	4	Finca Santa Victoria	1	Enero	2023-08-01T00:00:00	2024-11-08T09:00:00	1	Precipitación	0
82692	7	Sololá	701	Sololá	4	Finca Santa Victoria	1	Enero	2023-08-01T00:00:00	2024-11-08T09:00:00	8	Radiación solar	219
82693	7	Sololá	701	Sololá	4	Finca Santa Victoria	1	Enero	2023-08-01T00:00:00	2024-11-08T10:00:00	2	Temperatura media	15.9
82694	7	Sololá	701	Sololá	4	Finca Santa Victoria	1	Enero	2023-08-01T00:00:00	2024-11-08T10:00:00	4	Temperatura máxima	16.1
82695	7	Sololá	701	Sololá	4	Finca Santa Victoria	1	Enero	2023-08-01T00:00:00	2024-11-08T10:00:00	3	Temperatura mínima	15.4
82696	7	Sololá	701	Sololá	4	Finca Santa Victoria	1	Enero	2023-08-01T00:00:00	2024-11-08T10:00:00	5	Humedad	73
82697	7	Sololá	701	Sololá	4	Finca Santa Victoria	1	Enero	2023-08-01T00:00:00	2024-11-08T10:00:00	6	Velocidad del viento	3.2
82698	7	Sololá	701	Sololá	4	Finca Santa Victoria	1	Enero	2023-08-01T00:00:00	2024-11-08T10:00:00	7	Dirección del viento	3.22
82699	7	Sololá	701	Sololá	4	Finca Santa Victoria	1	Enero	2023-08-01T00:00:00	2024-11-08T10:00:00	1	Precipitación	0
82700	7	Sololá	701	Sololá	4	Finca Santa Victoria	1	Enero	2023-08-01T00:00:00	2024-11-08T10:00:00	8	Radiación solar	326
82701	7	Sololá	701	Sololá	4	Finca Santa Victoria	1	Enero	2023-08-01T00:00:00	2024-11-08T11:00:00	2	Temperatura media	16.9
82702	7	Sololá	701	Sololá	4	Finca Santa Victoria	1	Enero	2023-08-01T00:00:00	2024-11-08T11:00:00	4	Temperatura máxima	17.1
82703	7	Sololá	701	Sololá	4	Finca Santa Victoria	1	Enero	2023-08-01T00:00:00	2024-11-08T11:00:00	3	Temperatura mínima	15.9
82704	7	Sololá	701	Sololá	4	Finca Santa Victoria	1	Enero	2023-08-01T00:00:00	2024-11-08T11:00:00	5	Humedad	69
82705	7	Sololá	701	Sololá	4	Finca Santa Victoria	1	Enero	2023-08-01T00:00:00	2024-11-08T11:00:00	6	Velocidad del viento	1.6
82706	7	Sololá	701	Sololá	4	Finca Santa Victoria	1	Enero	2023-08-01T00:00:00	2024-11-08T11:00:00	7	Dirección del viento	1.61
82707	7	Sololá	701	Sololá	4	Finca Santa Victoria	1	Enero	2023-08-01T00:00:00	2024-11-08T11:00:00	1	Precipitación	0
82708	7	Sololá	701	Sololá	4	Finca Santa Victoria	1	Enero	2023-08-01T00:00:00	2024-11-08T11:00:00	8	Radiación solar	276
82709	7	Sololá	701	Sololá	4	Finca Santa Victoria	1	Enero	2023-08-01T00:00:00	2024-11-08T12:00:00	2	Temperatura media	18.1
82710	7	Sololá	701	Sololá	4	Finca Santa Victoria	1	Enero	2023-08-01T00:00:00	2024-11-08T12:00:00	4	Temperatura máxima	18.2
82711	7	Sololá	701	Sololá	4	Finca Santa Victoria	1	Enero	2023-08-01T00:00:00	2024-11-08T12:00:00	3	Temperatura mínima	16.9
82712	7	Sololá	701	Sololá	4	Finca Santa Victoria	1	Enero	2023-08-01T00:00:00	2024-11-08T12:00:00	5	Humedad	65
82713	7	Sololá	701	Sololá	4	Finca Santa Victoria	1	Enero	2023-08-01T00:00:00	2024-11-08T12:00:00	6	Velocidad del viento	1.6
82714	7	Sololá	701	Sololá	4	Finca Santa Victoria	1	Enero	2023-08-01T00:00:00	2024-11-08T12:00:00	7	Dirección del viento	1.61
82715	7	Sololá	701	Sololá	4	Finca Santa Victoria	1	Enero	2023-08-01T00:00:00	2024-11-08T12:00:00	1	Precipitación	0
82716	7	Sololá	701	Sololá	4	Finca Santa Victoria	1	Enero	2023-08-01T00:00:00	2024-11-08T12:00:00	8	Radiación solar	307
82717	7	Sololá	701	Sololá	4	Finca Santa Victoria	1	Enero	2023-08-01T00:00:00	2024-11-08T13:00:00	2	Temperatura media	18.5
82718	7	Sololá	701	Sololá	4	Finca Santa Victoria	1	Enero	2023-08-01T00:00:00	2024-11-08T13:00:00	4	Temperatura máxima	19.4
82719	7	Sololá	701	Sololá	4	Finca Santa Victoria	1	Enero	2023-08-01T00:00:00	2024-11-08T13:00:00	3	Temperatura mínima	17.5
82720	7	Sololá	701	Sololá	4	Finca Santa Victoria	1	Enero	2023-08-01T00:00:00	2024-11-08T13:00:00	5	Humedad	65
82721	7	Sololá	701	Sololá	4	Finca Santa Victoria	1	Enero	2023-08-01T00:00:00	2024-11-08T13:00:00	6	Velocidad del viento	3.2
82722	7	Sololá	701	Sololá	4	Finca Santa Victoria	1	Enero	2023-08-01T00:00:00	2024-11-08T13:00:00	7	Dirección del viento	3.22
82723	7	Sololá	701	Sololá	4	Finca Santa Victoria	1	Enero	2023-08-01T00:00:00	2024-11-08T13:00:00	1	Precipitación	0
82724	7	Sololá	701	Sololá	4	Finca Santa Victoria	1	Enero	2023-08-01T00:00:00	2024-11-08T13:00:00	8	Radiación solar	339
82725	7	Sololá	701	Sololá	4	Finca Santa Victoria	1	Enero	2023-08-01T00:00:00	2024-11-08T14:00:00	2	Temperatura media	15.9
82726	7	Sololá	701	Sololá	4	Finca Santa Victoria	1	Enero	2023-08-01T00:00:00	2024-11-08T14:00:00	4	Temperatura máxima	18.5
82727	7	Sololá	701	Sololá	4	Finca Santa Victoria	1	Enero	2023-08-01T00:00:00	2024-11-08T14:00:00	3	Temperatura mínima	15.9
82728	7	Sololá	701	Sololá	4	Finca Santa Victoria	1	Enero	2023-08-01T00:00:00	2024-11-08T14:00:00	5	Humedad	85
82729	7	Sololá	701	Sololá	4	Finca Santa Victoria	1	Enero	2023-08-01T00:00:00	2024-11-08T14:00:00	6	Velocidad del viento	1.6
82730	7	Sololá	701	Sololá	4	Finca Santa Victoria	1	Enero	2023-08-01T00:00:00	2024-11-08T14:00:00	7	Dirección del viento	1.61
82731	7	Sololá	701	Sololá	4	Finca Santa Victoria	1	Enero	2023-08-01T00:00:00	2024-11-08T14:00:00	1	Precipitación	0
82732	7	Sololá	701	Sololá	4	Finca Santa Victoria	1	Enero	2023-08-01T00:00:00	2024-11-08T14:00:00	8	Radiación solar	99
82733	7	Sololá	701	Sololá	4	Finca Santa Victoria	1	Enero	2023-08-01T00:00:00	2024-11-08T15:00:00	2	Temperatura media	15.3
82734	7	Sololá	701	Sololá	4	Finca Santa Victoria	1	Enero	2023-08-01T00:00:00	2024-11-08T15:00:00	4	Temperatura máxima	16
82735	7	Sololá	701	Sololá	4	Finca Santa Victoria	1	Enero	2023-08-01T00:00:00	2024-11-08T15:00:00	3	Temperatura mínima	15.3
82736	7	Sololá	701	Sololá	4	Finca Santa Victoria	1	Enero	2023-08-01T00:00:00	2024-11-08T15:00:00	5	Humedad	89
82737	7	Sololá	701	Sololá	4	Finca Santa Victoria	1	Enero	2023-08-01T00:00:00	2024-11-08T15:00:00	6	Velocidad del viento	1.6
82738	7	Sololá	701	Sololá	4	Finca Santa Victoria	1	Enero	2023-08-01T00:00:00	2024-11-08T15:00:00	7	Dirección del viento	1.61
82739	7	Sololá	701	Sololá	4	Finca Santa Victoria	1	Enero	2023-08-01T00:00:00	2024-11-08T15:00:00	1	Precipitación	0
82740	7	Sololá	701	Sololá	4	Finca Santa Victoria	1	Enero	2023-08-01T00:00:00	2024-11-08T15:00:00	8	Radiación solar	71
82741	7	Sololá	701	Sololá	4	Finca Santa Victoria	1	Enero	2023-08-01T00:00:00	2024-11-08T16:00:00	2	Temperatura media	15
82742	7	Sololá	701	Sololá	4	Finca Santa Victoria	1	Enero	2023-08-01T00:00:00	2024-11-08T16:00:00	4	Temperatura máxima	15.4
82743	7	Sololá	701	Sololá	4	Finca Santa Victoria	1	Enero	2023-08-01T00:00:00	2024-11-08T16:00:00	3	Temperatura mínima	15
82744	7	Sololá	701	Sololá	4	Finca Santa Victoria	1	Enero	2023-08-01T00:00:00	2024-11-08T16:00:00	5	Humedad	93
82745	7	Sololá	701	Sololá	4	Finca Santa Victoria	1	Enero	2023-08-01T00:00:00	2024-11-08T16:00:00	6	Velocidad del viento	1.6
82746	7	Sololá	701	Sololá	4	Finca Santa Victoria	1	Enero	2023-08-01T00:00:00	2024-11-08T16:00:00	7	Dirección del viento	1.61
82747	7	Sololá	701	Sololá	4	Finca Santa Victoria	1	Enero	2023-08-01T00:00:00	2024-11-08T16:00:00	1	Precipitación	0
82748	7	Sololá	701	Sololá	4	Finca Santa Victoria	1	Enero	2023-08-01T00:00:00	2024-11-08T16:00:00	8	Radiación solar	62
82749	7	Sololá	701	Sololá	4	Finca Santa Victoria	1	Enero	2023-08-01T00:00:00	2024-11-08T17:00:00	2	Temperatura media	14.3
82750	7	Sololá	701	Sololá	4	Finca Santa Victoria	1	Enero	2023-08-01T00:00:00	2024-11-08T17:00:00	4	Temperatura máxima	15
82751	7	Sololá	701	Sololá	4	Finca Santa Victoria	1	Enero	2023-08-01T00:00:00	2024-11-08T17:00:00	3	Temperatura mínima	14.2
82752	7	Sololá	701	Sololá	4	Finca Santa Victoria	1	Enero	2023-08-01T00:00:00	2024-11-08T17:00:00	5	Humedad	95
82753	7	Sololá	701	Sololá	4	Finca Santa Victoria	1	Enero	2023-08-01T00:00:00	2024-11-08T17:00:00	6	Velocidad del viento	1.6
82754	7	Sololá	701	Sololá	4	Finca Santa Victoria	1	Enero	2023-08-01T00:00:00	2024-11-08T17:00:00	7	Dirección del viento	1.61
82755	7	Sololá	701	Sololá	4	Finca Santa Victoria	1	Enero	2023-08-01T00:00:00	2024-11-08T17:00:00	1	Precipitación	0
82756	7	Sololá	701	Sololá	4	Finca Santa Victoria	1	Enero	2023-08-01T00:00:00	2024-11-08T17:00:00	8	Radiación solar	26
82757	7	Sololá	701	Sololá	4	Finca Santa Victoria	1	Enero	2023-08-01T00:00:00	2024-11-08T18:00:00	2	Temperatura media	13.2
82758	7	Sololá	701	Sololá	4	Finca Santa Victoria	1	Enero	2023-08-01T00:00:00	2024-11-08T18:00:00	4	Temperatura máxima	14.3
82759	7	Sololá	701	Sololá	4	Finca Santa Victoria	1	Enero	2023-08-01T00:00:00	2024-11-08T18:00:00	3	Temperatura mínima	13.2
82760	7	Sololá	701	Sololá	4	Finca Santa Victoria	1	Enero	2023-08-01T00:00:00	2024-11-08T18:00:00	5	Humedad	95
82761	7	Sololá	701	Sololá	4	Finca Santa Victoria	1	Enero	2023-08-01T00:00:00	2024-11-08T18:00:00	6	Velocidad del viento	1.6
82762	7	Sololá	701	Sololá	4	Finca Santa Victoria	1	Enero	2023-08-01T00:00:00	2024-11-08T18:00:00	7	Dirección del viento	1.61
82763	7	Sololá	701	Sololá	4	Finca Santa Victoria	1	Enero	2023-08-01T00:00:00	2024-11-08T18:00:00	1	Precipitación	0
82764	7	Sololá	701	Sololá	4	Finca Santa Victoria	1	Enero	2023-08-01T00:00:00	2024-11-08T18:00:00	8	Radiación solar	3
82765	7	Sololá	701	Sololá	4	Finca Santa Victoria	1	Enero	2023-08-01T00:00:00	2024-11-08T19:00:00	2	Temperatura media	11.9
82766	7	Sololá	701	Sololá	4	Finca Santa Victoria	1	Enero	2023-08-01T00:00:00	2024-11-08T19:00:00	4	Temperatura máxima	13.2
82767	7	Sololá	701	Sololá	4	Finca Santa Victoria	1	Enero	2023-08-01T00:00:00	2024-11-08T19:00:00	3	Temperatura mínima	11.9
82768	7	Sololá	701	Sololá	4	Finca Santa Victoria	1	Enero	2023-08-01T00:00:00	2024-11-08T19:00:00	5	Humedad	92
82769	7	Sololá	701	Sololá	4	Finca Santa Victoria	1	Enero	2023-08-01T00:00:00	2024-11-08T19:00:00	6	Velocidad del viento	0
82770	7	Sololá	701	Sololá	4	Finca Santa Victoria	1	Enero	2023-08-01T00:00:00	2024-11-08T19:00:00	7	Dirección del viento	0
82771	7	Sololá	701	Sololá	4	Finca Santa Victoria	1	Enero	2023-08-01T00:00:00	2024-11-08T19:00:00	1	Precipitación	0
82772	7	Sololá	701	Sololá	4	Finca Santa Victoria	1	Enero	2023-08-01T00:00:00	2024-11-08T19:00:00	8	Radiación solar	0
82773	7	Sololá	701	Sololá	4	Finca Santa Victoria	1	Enero	2023-08-01T00:00:00	2024-11-08T20:00:00	2	Temperatura media	11.7
82774	7	Sololá	701	Sololá	4	Finca Santa Victoria	1	Enero	2023-08-01T00:00:00	2024-11-08T20:00:00	4	Temperatura máxima	12.6
82775	7	Sololá	701	Sololá	4	Finca Santa Victoria	1	Enero	2023-08-01T00:00:00	2024-11-08T20:00:00	3	Temperatura mínima	11.7
82776	7	Sololá	701	Sololá	4	Finca Santa Victoria	1	Enero	2023-08-01T00:00:00	2024-11-08T20:00:00	5	Humedad	90
82777	7	Sololá	701	Sololá	4	Finca Santa Victoria	1	Enero	2023-08-01T00:00:00	2024-11-08T20:00:00	6	Velocidad del viento	1.6
82778	7	Sololá	701	Sololá	4	Finca Santa Victoria	1	Enero	2023-08-01T00:00:00	2024-11-08T20:00:00	7	Dirección del viento	1.61
82779	7	Sololá	701	Sololá	4	Finca Santa Victoria	1	Enero	2023-08-01T00:00:00	2024-11-08T20:00:00	1	Precipitación	0
82780	7	Sololá	701	Sololá	4	Finca Santa Victoria	1	Enero	2023-08-01T00:00:00	2024-11-08T20:00:00	8	Radiación solar	0
82781	7	Sololá	701	Sololá	4	Finca Santa Victoria	1	Enero	2023-08-01T00:00:00	2024-11-08T21:00:00	2	Temperatura media	12.2
82782	7	Sololá	701	Sololá	4	Finca Santa Victoria	1	Enero	2023-08-01T00:00:00	2024-11-08T21:00:00	4	Temperatura máxima	12.2
82783	7	Sololá	701	Sololá	4	Finca Santa Victoria	1	Enero	2023-08-01T00:00:00	2024-11-08T21:00:00	3	Temperatura mínima	11.4
82784	7	Sololá	701	Sololá	4	Finca Santa Victoria	1	Enero	2023-08-01T00:00:00	2024-11-08T21:00:00	5	Humedad	87
82785	7	Sololá	701	Sololá	4	Finca Santa Victoria	1	Enero	2023-08-01T00:00:00	2024-11-08T21:00:00	6	Velocidad del viento	1.6
82786	7	Sololá	701	Sololá	4	Finca Santa Victoria	1	Enero	2023-08-01T00:00:00	2024-11-08T21:00:00	7	Dirección del viento	1.61
82787	7	Sololá	701	Sololá	4	Finca Santa Victoria	1	Enero	2023-08-01T00:00:00	2024-11-08T21:00:00	1	Precipitación	0
82788	7	Sololá	701	Sololá	4	Finca Santa Victoria	1	Enero	2023-08-01T00:00:00	2024-11-08T21:00:00	8	Radiación solar	0
82789	7	Sololá	701	Sololá	4	Finca Santa Victoria	1	Enero	2023-08-01T00:00:00	2024-11-08T22:00:00	2	Temperatura media	12.3
82790	7	Sololá	701	Sololá	4	Finca Santa Victoria	1	Enero	2023-08-01T00:00:00	2024-11-08T22:00:00	4	Temperatura máxima	12.5
82791	7	Sololá	701	Sololá	4	Finca Santa Victoria	1	Enero	2023-08-01T00:00:00	2024-11-08T22:00:00	3	Temperatura mínima	12.1
82792	7	Sololá	701	Sololá	4	Finca Santa Victoria	1	Enero	2023-08-01T00:00:00	2024-11-08T22:00:00	5	Humedad	86
82793	7	Sololá	701	Sololá	4	Finca Santa Victoria	1	Enero	2023-08-01T00:00:00	2024-11-08T22:00:00	6	Velocidad del viento	3.2
82794	7	Sololá	701	Sololá	4	Finca Santa Victoria	1	Enero	2023-08-01T00:00:00	2024-11-08T22:00:00	7	Dirección del viento	3.22
82795	7	Sololá	701	Sololá	4	Finca Santa Victoria	1	Enero	2023-08-01T00:00:00	2024-11-08T22:00:00	1	Precipitación	0
82796	7	Sololá	701	Sololá	4	Finca Santa Victoria	1	Enero	2023-08-01T00:00:00	2024-11-08T22:00:00	8	Radiación solar	0
82797	7	Sololá	701	Sololá	4	Finca Santa Victoria	1	Enero	2023-08-01T00:00:00	2024-11-08T23:00:00	2	Temperatura media	11.9
82798	7	Sololá	701	Sololá	4	Finca Santa Victoria	1	Enero	2023-08-01T00:00:00	2024-11-08T23:00:00	4	Temperatura máxima	12.3
82799	7	Sololá	701	Sololá	4	Finca Santa Victoria	1	Enero	2023-08-01T00:00:00	2024-11-08T23:00:00	3	Temperatura mínima	11.9
82800	7	Sololá	701	Sololá	4	Finca Santa Victoria	1	Enero	2023-08-01T00:00:00	2024-11-08T23:00:00	5	Humedad	86
82801	7	Sololá	701	Sololá	4	Finca Santa Victoria	1	Enero	2023-08-01T00:00:00	2024-11-08T23:00:00	6	Velocidad del viento	3.2
82802	7	Sololá	701	Sololá	4	Finca Santa Victoria	1	Enero	2023-08-01T00:00:00	2024-11-08T23:00:00	7	Dirección del viento	3.22
82803	7	Sololá	701	Sololá	4	Finca Santa Victoria	1	Enero	2023-08-01T00:00:00	2024-11-08T23:00:00	1	Precipitación	0
82804	7	Sololá	701	Sololá	4	Finca Santa Victoria	1	Enero	2023-08-01T00:00:00	2024-11-08T23:00:00	8	Radiación solar	0
82805	7	Sololá	701	Sololá	4	Finca Santa Victoria	1	Enero	2023-09-01T00:00:00	2024-11-08T00:00:00	2	Temperatura media	11.8
82806	7	Sololá	701	Sololá	4	Finca Santa Victoria	1	Enero	2023-09-01T00:00:00	2024-11-08T00:00:00	4	Temperatura máxima	12.1
82807	7	Sololá	701	Sololá	4	Finca Santa Victoria	1	Enero	2023-09-01T00:00:00	2024-11-08T00:00:00	3	Temperatura mínima	11.8
82808	7	Sololá	701	Sololá	4	Finca Santa Victoria	1	Enero	2023-09-01T00:00:00	2024-11-08T00:00:00	5	Humedad	86
82809	7	Sololá	701	Sololá	4	Finca Santa Victoria	1	Enero	2023-09-01T00:00:00	2024-11-08T00:00:00	6	Velocidad del viento	3.2
82810	7	Sololá	701	Sololá	4	Finca Santa Victoria	1	Enero	2023-09-01T00:00:00	2024-11-08T00:00:00	7	Dirección del viento	3.22
82811	7	Sololá	701	Sololá	4	Finca Santa Victoria	1	Enero	2023-09-01T00:00:00	2024-11-08T00:00:00	1	Precipitación	0
82812	7	Sololá	701	Sololá	4	Finca Santa Victoria	1	Enero	2023-09-01T00:00:00	2024-11-08T00:00:00	8	Radiación solar	0
82813	7	Sololá	701	Sololá	4	Finca Santa Victoria	1	Enero	2023-09-01T00:00:00	2024-11-08T01:00:00	2	Temperatura media	11.3
82814	7	Sololá	701	Sololá	4	Finca Santa Victoria	1	Enero	2023-09-01T00:00:00	2024-11-08T01:00:00	4	Temperatura máxima	11.8
82815	7	Sololá	701	Sololá	4	Finca Santa Victoria	1	Enero	2023-09-01T00:00:00	2024-11-08T01:00:00	3	Temperatura mínima	11.2
82816	7	Sololá	701	Sololá	4	Finca Santa Victoria	1	Enero	2023-09-01T00:00:00	2024-11-08T01:00:00	5	Humedad	87
82817	7	Sololá	701	Sololá	4	Finca Santa Victoria	1	Enero	2023-09-01T00:00:00	2024-11-08T01:00:00	6	Velocidad del viento	1.6
82818	7	Sololá	701	Sololá	4	Finca Santa Victoria	1	Enero	2023-09-01T00:00:00	2024-11-08T01:00:00	7	Dirección del viento	1.61
82819	7	Sololá	701	Sololá	4	Finca Santa Victoria	1	Enero	2023-09-01T00:00:00	2024-11-08T01:00:00	1	Precipitación	0
82820	7	Sololá	701	Sololá	4	Finca Santa Victoria	1	Enero	2023-09-01T00:00:00	2024-11-08T01:00:00	8	Radiación solar	0
82821	7	Sololá	701	Sololá	4	Finca Santa Victoria	1	Enero	2023-09-01T00:00:00	2024-11-08T02:00:00	2	Temperatura media	10.7
82822	7	Sololá	701	Sololá	4	Finca Santa Victoria	1	Enero	2023-09-01T00:00:00	2024-11-08T02:00:00	4	Temperatura máxima	11.4
82823	7	Sololá	701	Sololá	4	Finca Santa Victoria	1	Enero	2023-09-01T00:00:00	2024-11-08T02:00:00	3	Temperatura mínima	10.7
82824	7	Sololá	701	Sololá	4	Finca Santa Victoria	1	Enero	2023-09-01T00:00:00	2024-11-08T02:00:00	5	Humedad	88
82825	7	Sololá	701	Sololá	4	Finca Santa Victoria	1	Enero	2023-09-01T00:00:00	2024-11-08T02:00:00	6	Velocidad del viento	1.6
82826	7	Sololá	701	Sololá	4	Finca Santa Victoria	1	Enero	2023-09-01T00:00:00	2024-11-08T02:00:00	7	Dirección del viento	1.61
82827	7	Sololá	701	Sololá	4	Finca Santa Victoria	1	Enero	2023-09-01T00:00:00	2024-11-08T02:00:00	1	Precipitación	0
82828	7	Sololá	701	Sololá	4	Finca Santa Victoria	1	Enero	2023-09-01T00:00:00	2024-11-08T02:00:00	8	Radiación solar	0
82829	7	Sololá	701	Sololá	4	Finca Santa Victoria	1	Enero	2023-09-01T00:00:00	2024-11-08T03:00:00	2	Temperatura media	10.3
82830	7	Sololá	701	Sololá	4	Finca Santa Victoria	1	Enero	2023-09-01T00:00:00	2024-11-08T03:00:00	4	Temperatura máxima	10.7
82831	7	Sololá	701	Sololá	4	Finca Santa Victoria	1	Enero	2023-09-01T00:00:00	2024-11-08T03:00:00	3	Temperatura mínima	10.2
82832	7	Sololá	701	Sololá	4	Finca Santa Victoria	1	Enero	2023-09-01T00:00:00	2024-11-08T03:00:00	5	Humedad	89
82833	7	Sololá	701	Sololá	4	Finca Santa Victoria	1	Enero	2023-09-01T00:00:00	2024-11-08T03:00:00	6	Velocidad del viento	1.6
82834	7	Sololá	701	Sololá	4	Finca Santa Victoria	1	Enero	2023-09-01T00:00:00	2024-11-08T03:00:00	7	Dirección del viento	1.61
82835	7	Sololá	701	Sololá	4	Finca Santa Victoria	1	Enero	2023-09-01T00:00:00	2024-11-08T03:00:00	1	Precipitación	0
82836	7	Sololá	701	Sololá	4	Finca Santa Victoria	1	Enero	2023-09-01T00:00:00	2024-11-08T03:00:00	8	Radiación solar	0
82837	7	Sololá	701	Sololá	4	Finca Santa Victoria	1	Enero	2023-09-01T00:00:00	2024-11-08T04:00:00	2	Temperatura media	9.3
82838	7	Sololá	701	Sololá	4	Finca Santa Victoria	1	Enero	2023-09-01T00:00:00	2024-11-08T04:00:00	4	Temperatura máxima	10.3
82839	7	Sololá	701	Sololá	4	Finca Santa Victoria	1	Enero	2023-09-01T00:00:00	2024-11-08T04:00:00	3	Temperatura mínima	9.3
82840	7	Sololá	701	Sololá	4	Finca Santa Victoria	1	Enero	2023-09-01T00:00:00	2024-11-08T04:00:00	5	Humedad	92
82841	7	Sololá	701	Sololá	4	Finca Santa Victoria	1	Enero	2023-09-01T00:00:00	2024-11-08T04:00:00	6	Velocidad del viento	1.6
82842	7	Sololá	701	Sololá	4	Finca Santa Victoria	1	Enero	2023-09-01T00:00:00	2024-11-08T04:00:00	7	Dirección del viento	1.61
82843	7	Sololá	701	Sololá	4	Finca Santa Victoria	1	Enero	2023-09-01T00:00:00	2024-11-08T04:00:00	1	Precipitación	0
82844	7	Sololá	701	Sololá	4	Finca Santa Victoria	1	Enero	2023-09-01T00:00:00	2024-11-08T04:00:00	8	Radiación solar	0
82845	7	Sololá	701	Sololá	4	Finca Santa Victoria	1	Enero	2023-09-01T00:00:00	2024-11-08T05:00:00	2	Temperatura media	9.9
82846	7	Sololá	701	Sololá	4	Finca Santa Victoria	1	Enero	2023-09-01T00:00:00	2024-11-08T05:00:00	4	Temperatura máxima	9.9
82847	7	Sololá	701	Sololá	4	Finca Santa Victoria	1	Enero	2023-09-01T00:00:00	2024-11-08T05:00:00	3	Temperatura mínima	9.2
82848	7	Sololá	701	Sololá	4	Finca Santa Victoria	1	Enero	2023-09-01T00:00:00	2024-11-08T05:00:00	5	Humedad	89
82849	7	Sololá	701	Sololá	4	Finca Santa Victoria	1	Enero	2023-09-01T00:00:00	2024-11-08T05:00:00	6	Velocidad del viento	1.6
82850	7	Sololá	701	Sololá	4	Finca Santa Victoria	1	Enero	2023-09-01T00:00:00	2024-11-08T05:00:00	7	Dirección del viento	1.61
82851	7	Sololá	701	Sololá	4	Finca Santa Victoria	1	Enero	2023-09-01T00:00:00	2024-11-08T05:00:00	1	Precipitación	0
82852	7	Sololá	701	Sololá	4	Finca Santa Victoria	1	Enero	2023-09-01T00:00:00	2024-11-08T05:00:00	8	Radiación solar	0
82853	7	Sololá	701	Sololá	4	Finca Santa Victoria	1	Enero	2023-09-01T00:00:00	2024-11-08T06:00:00	2	Temperatura media	10.1
82854	7	Sololá	701	Sololá	4	Finca Santa Victoria	1	Enero	2023-09-01T00:00:00	2024-11-08T06:00:00	4	Temperatura máxima	10.1
82855	7	Sololá	701	Sololá	4	Finca Santa Victoria	1	Enero	2023-09-01T00:00:00	2024-11-08T06:00:00	3	Temperatura mínima	9.7
82856	7	Sololá	701	Sololá	4	Finca Santa Victoria	1	Enero	2023-09-01T00:00:00	2024-11-08T06:00:00	5	Humedad	88
82857	7	Sololá	701	Sololá	4	Finca Santa Victoria	1	Enero	2023-09-01T00:00:00	2024-11-08T06:00:00	6	Velocidad del viento	1.6
82858	7	Sololá	701	Sololá	4	Finca Santa Victoria	1	Enero	2023-09-01T00:00:00	2024-11-08T06:00:00	7	Dirección del viento	1.61
82859	7	Sololá	701	Sololá	4	Finca Santa Victoria	1	Enero	2023-09-01T00:00:00	2024-11-08T06:00:00	1	Precipitación	0
82860	7	Sololá	701	Sololá	4	Finca Santa Victoria	1	Enero	2023-09-01T00:00:00	2024-11-08T06:00:00	8	Radiación solar	0
82861	7	Sololá	701	Sololá	4	Finca Santa Victoria	1	Enero	2023-09-01T00:00:00	2024-11-08T07:00:00	2	Temperatura media	10
82862	7	Sololá	701	Sololá	4	Finca Santa Victoria	1	Enero	2023-09-01T00:00:00	2024-11-08T07:00:00	4	Temperatura máxima	10.2
82863	7	Sololá	701	Sololá	4	Finca Santa Victoria	1	Enero	2023-09-01T00:00:00	2024-11-08T07:00:00	3	Temperatura mínima	9.6
82864	7	Sololá	701	Sololá	4	Finca Santa Victoria	1	Enero	2023-09-01T00:00:00	2024-11-08T07:00:00	5	Humedad	90
82865	7	Sololá	701	Sololá	4	Finca Santa Victoria	1	Enero	2023-09-01T00:00:00	2024-11-08T07:00:00	6	Velocidad del viento	1.6
82866	7	Sololá	701	Sololá	4	Finca Santa Victoria	1	Enero	2023-09-01T00:00:00	2024-11-08T07:00:00	7	Dirección del viento	1.61
82867	7	Sololá	701	Sololá	4	Finca Santa Victoria	1	Enero	2023-09-01T00:00:00	2024-11-08T07:00:00	1	Precipitación	0
82868	7	Sololá	701	Sololá	4	Finca Santa Victoria	1	Enero	2023-09-01T00:00:00	2024-11-08T07:00:00	8	Radiación solar	3
82869	7	Sololá	701	Sololá	4	Finca Santa Victoria	1	Enero	2023-09-01T00:00:00	2024-11-08T08:00:00	2	Temperatura media	12.1
82870	7	Sololá	701	Sololá	4	Finca Santa Victoria	1	Enero	2023-09-01T00:00:00	2024-11-08T08:00:00	4	Temperatura máxima	12.1
82871	7	Sololá	701	Sololá	4	Finca Santa Victoria	1	Enero	2023-09-01T00:00:00	2024-11-08T08:00:00	3	Temperatura mínima	10
82872	7	Sololá	701	Sololá	4	Finca Santa Victoria	1	Enero	2023-09-01T00:00:00	2024-11-08T08:00:00	5	Humedad	84
82873	7	Sololá	701	Sololá	4	Finca Santa Victoria	1	Enero	2023-09-01T00:00:00	2024-11-08T08:00:00	6	Velocidad del viento	1.6
82874	7	Sololá	701	Sololá	4	Finca Santa Victoria	1	Enero	2023-09-01T00:00:00	2024-11-08T08:00:00	7	Dirección del viento	1.61
82875	7	Sololá	701	Sololá	4	Finca Santa Victoria	1	Enero	2023-09-01T00:00:00	2024-11-08T08:00:00	1	Precipitación	0
82876	7	Sololá	701	Sololá	4	Finca Santa Victoria	1	Enero	2023-09-01T00:00:00	2024-11-08T08:00:00	8	Radiación solar	30
82877	7	Sololá	701	Sololá	4	Finca Santa Victoria	1	Enero	2023-09-01T00:00:00	2024-11-08T09:00:00	2	Temperatura media	15.2
82878	7	Sololá	701	Sololá	4	Finca Santa Victoria	1	Enero	2023-09-01T00:00:00	2024-11-08T09:00:00	4	Temperatura máxima	15.2
82879	7	Sololá	701	Sololá	4	Finca Santa Victoria	1	Enero	2023-09-01T00:00:00	2024-11-08T09:00:00	3	Temperatura mínima	12.1
82880	7	Sololá	701	Sololá	4	Finca Santa Victoria	1	Enero	2023-09-01T00:00:00	2024-11-08T09:00:00	5	Humedad	75
82881	7	Sololá	701	Sololá	4	Finca Santa Victoria	1	Enero	2023-09-01T00:00:00	2024-11-08T09:00:00	6	Velocidad del viento	1.6
82882	7	Sololá	701	Sololá	4	Finca Santa Victoria	1	Enero	2023-09-01T00:00:00	2024-11-08T09:00:00	7	Dirección del viento	1.61
82883	7	Sololá	701	Sololá	4	Finca Santa Victoria	1	Enero	2023-09-01T00:00:00	2024-11-08T09:00:00	1	Precipitación	0
82884	7	Sololá	701	Sololá	4	Finca Santa Victoria	1	Enero	2023-09-01T00:00:00	2024-11-08T09:00:00	8	Radiación solar	217
82885	7	Sololá	701	Sololá	4	Finca Santa Victoria	1	Enero	2023-09-01T00:00:00	2024-11-08T10:00:00	2	Temperatura media	16.2
82886	7	Sololá	701	Sololá	4	Finca Santa Victoria	1	Enero	2023-09-01T00:00:00	2024-11-08T10:00:00	4	Temperatura máxima	16.3
82887	7	Sololá	701	Sololá	4	Finca Santa Victoria	1	Enero	2023-09-01T00:00:00	2024-11-08T10:00:00	3	Temperatura mínima	15.2
82888	7	Sololá	701	Sololá	4	Finca Santa Victoria	1	Enero	2023-09-01T00:00:00	2024-11-08T10:00:00	5	Humedad	73
82889	7	Sololá	701	Sololá	4	Finca Santa Victoria	1	Enero	2023-09-01T00:00:00	2024-11-08T10:00:00	6	Velocidad del viento	3.2
82890	7	Sololá	701	Sololá	4	Finca Santa Victoria	1	Enero	2023-09-01T00:00:00	2024-11-08T10:00:00	7	Dirección del viento	3.22
82891	7	Sololá	701	Sololá	4	Finca Santa Victoria	1	Enero	2023-09-01T00:00:00	2024-11-08T10:00:00	1	Precipitación	0
82892	7	Sololá	701	Sololá	4	Finca Santa Victoria	1	Enero	2023-09-01T00:00:00	2024-11-08T10:00:00	8	Radiación solar	547
82893	7	Sololá	701	Sololá	4	Finca Santa Victoria	1	Enero	2023-09-01T00:00:00	2024-11-08T11:00:00	2	Temperatura media	18
82894	7	Sololá	701	Sololá	4	Finca Santa Victoria	1	Enero	2023-09-01T00:00:00	2024-11-08T11:00:00	4	Temperatura máxima	18
82895	7	Sololá	701	Sololá	4	Finca Santa Victoria	1	Enero	2023-09-01T00:00:00	2024-11-08T11:00:00	3	Temperatura mínima	16.2
82896	7	Sololá	701	Sololá	4	Finca Santa Victoria	1	Enero	2023-09-01T00:00:00	2024-11-08T11:00:00	5	Humedad	68
82897	7	Sololá	701	Sololá	4	Finca Santa Victoria	1	Enero	2023-09-01T00:00:00	2024-11-08T11:00:00	6	Velocidad del viento	3.2
82898	7	Sololá	701	Sololá	4	Finca Santa Victoria	1	Enero	2023-09-01T00:00:00	2024-11-08T11:00:00	7	Dirección del viento	3.22
82899	7	Sololá	701	Sololá	4	Finca Santa Victoria	1	Enero	2023-09-01T00:00:00	2024-11-08T11:00:00	1	Precipitación	0
82900	7	Sololá	701	Sololá	4	Finca Santa Victoria	1	Enero	2023-09-01T00:00:00	2024-11-08T11:00:00	8	Radiación solar	759
82901	7	Sololá	701	Sololá	4	Finca Santa Victoria	1	Enero	2023-09-01T00:00:00	2024-11-08T12:00:00	2	Temperatura media	19.1
82902	7	Sololá	701	Sololá	4	Finca Santa Victoria	1	Enero	2023-09-01T00:00:00	2024-11-08T12:00:00	4	Temperatura máxima	19.1
82903	7	Sololá	701	Sololá	4	Finca Santa Victoria	1	Enero	2023-09-01T00:00:00	2024-11-08T12:00:00	3	Temperatura mínima	17.8
82904	7	Sololá	701	Sololá	4	Finca Santa Victoria	1	Enero	2023-09-01T00:00:00	2024-11-08T12:00:00	5	Humedad	64
82905	7	Sololá	701	Sololá	4	Finca Santa Victoria	1	Enero	2023-09-01T00:00:00	2024-11-08T12:00:00	6	Velocidad del viento	3.2
82906	7	Sololá	701	Sololá	4	Finca Santa Victoria	1	Enero	2023-09-01T00:00:00	2024-11-08T12:00:00	7	Dirección del viento	3.22
82907	7	Sololá	701	Sololá	4	Finca Santa Victoria	1	Enero	2023-09-01T00:00:00	2024-11-08T12:00:00	1	Precipitación	0
82908	7	Sololá	701	Sololá	4	Finca Santa Victoria	1	Enero	2023-09-01T00:00:00	2024-11-08T12:00:00	8	Radiación solar	845
82909	7	Sololá	701	Sololá	4	Finca Santa Victoria	1	Enero	2023-09-01T00:00:00	2024-11-08T13:00:00	2	Temperatura media	19.6
82910	7	Sololá	701	Sololá	4	Finca Santa Victoria	1	Enero	2023-09-01T00:00:00	2024-11-08T13:00:00	4	Temperatura máxima	20.7
82911	7	Sololá	701	Sololá	4	Finca Santa Victoria	1	Enero	2023-09-01T00:00:00	2024-11-08T13:00:00	3	Temperatura mínima	19.1
82912	7	Sololá	701	Sololá	4	Finca Santa Victoria	1	Enero	2023-09-01T00:00:00	2024-11-08T13:00:00	5	Humedad	59
82913	7	Sololá	701	Sololá	4	Finca Santa Victoria	1	Enero	2023-09-01T00:00:00	2024-11-08T13:00:00	6	Velocidad del viento	3.2
82914	7	Sololá	701	Sololá	4	Finca Santa Victoria	1	Enero	2023-09-01T00:00:00	2024-11-08T13:00:00	7	Dirección del viento	3.22
82915	7	Sololá	701	Sololá	4	Finca Santa Victoria	1	Enero	2023-09-01T00:00:00	2024-11-08T13:00:00	1	Precipitación	0
82916	7	Sololá	701	Sololá	4	Finca Santa Victoria	1	Enero	2023-09-01T00:00:00	2024-11-08T13:00:00	8	Radiación solar	820
82917	7	Sololá	701	Sololá	4	Finca Santa Victoria	1	Enero	2023-09-01T00:00:00	2024-11-08T14:00:00	2	Temperatura media	16.7
82918	7	Sololá	701	Sololá	4	Finca Santa Victoria	1	Enero	2023-09-01T00:00:00	2024-11-08T14:00:00	4	Temperatura máxima	20.1
82919	7	Sololá	701	Sololá	4	Finca Santa Victoria	1	Enero	2023-09-01T00:00:00	2024-11-08T14:00:00	3	Temperatura mínima	16.7
82920	7	Sololá	701	Sololá	4	Finca Santa Victoria	1	Enero	2023-09-01T00:00:00	2024-11-08T14:00:00	5	Humedad	82
82921	7	Sololá	701	Sololá	4	Finca Santa Victoria	1	Enero	2023-09-01T00:00:00	2024-11-08T14:00:00	6	Velocidad del viento	3.2
82922	7	Sololá	701	Sololá	4	Finca Santa Victoria	1	Enero	2023-09-01T00:00:00	2024-11-08T14:00:00	7	Dirección del viento	3.22
82923	7	Sololá	701	Sololá	4	Finca Santa Victoria	1	Enero	2023-09-01T00:00:00	2024-11-08T14:00:00	1	Precipitación	0
82924	7	Sololá	701	Sololá	4	Finca Santa Victoria	1	Enero	2023-09-01T00:00:00	2024-11-08T14:00:00	8	Radiación solar	447
82925	7	Sololá	701	Sololá	4	Finca Santa Victoria	1	Enero	2023-09-01T00:00:00	2024-11-08T15:00:00	2	Temperatura media	17.7
82926	7	Sololá	701	Sololá	4	Finca Santa Victoria	1	Enero	2023-09-01T00:00:00	2024-11-08T15:00:00	4	Temperatura máxima	17.7
82927	7	Sololá	701	Sololá	4	Finca Santa Victoria	1	Enero	2023-09-01T00:00:00	2024-11-08T15:00:00	3	Temperatura mínima	15.9
82928	7	Sololá	701	Sololá	4	Finca Santa Victoria	1	Enero	2023-09-01T00:00:00	2024-11-08T15:00:00	5	Humedad	77
82929	7	Sololá	701	Sololá	4	Finca Santa Victoria	1	Enero	2023-09-01T00:00:00	2024-11-08T15:00:00	6	Velocidad del viento	3.2
82930	7	Sololá	701	Sololá	4	Finca Santa Victoria	1	Enero	2023-09-01T00:00:00	2024-11-08T15:00:00	7	Dirección del viento	3.22
82931	7	Sololá	701	Sololá	4	Finca Santa Victoria	1	Enero	2023-09-01T00:00:00	2024-11-08T15:00:00	1	Precipitación	0
82932	7	Sololá	701	Sololá	4	Finca Santa Victoria	1	Enero	2023-09-01T00:00:00	2024-11-08T15:00:00	8	Radiación solar	155
82933	7	Sololá	701	Sololá	4	Finca Santa Victoria	1	Enero	2023-09-01T00:00:00	2024-11-08T16:00:00	2	Temperatura media	15.9
82934	7	Sololá	701	Sololá	4	Finca Santa Victoria	1	Enero	2023-09-01T00:00:00	2024-11-08T16:00:00	4	Temperatura máxima	18.1
82935	7	Sololá	701	Sololá	4	Finca Santa Victoria	1	Enero	2023-09-01T00:00:00	2024-11-08T16:00:00	3	Temperatura mínima	15.6
82936	7	Sololá	701	Sololá	4	Finca Santa Victoria	1	Enero	2023-09-01T00:00:00	2024-11-08T16:00:00	5	Humedad	88
82937	7	Sololá	701	Sololá	4	Finca Santa Victoria	1	Enero	2023-09-01T00:00:00	2024-11-08T16:00:00	6	Velocidad del viento	1.6
82938	7	Sololá	701	Sololá	4	Finca Santa Victoria	1	Enero	2023-09-01T00:00:00	2024-11-08T16:00:00	7	Dirección del viento	1.61
82939	7	Sololá	701	Sololá	4	Finca Santa Victoria	1	Enero	2023-09-01T00:00:00	2024-11-08T16:00:00	1	Precipitación	0
82940	7	Sololá	701	Sololá	4	Finca Santa Victoria	1	Enero	2023-09-01T00:00:00	2024-11-08T16:00:00	8	Radiación solar	57
82941	7	Sololá	701	Sololá	4	Finca Santa Victoria	1	Enero	2023-09-01T00:00:00	2024-11-08T17:00:00	2	Temperatura media	18.1
82942	7	Sololá	701	Sololá	4	Finca Santa Victoria	1	Enero	2023-09-01T00:00:00	2024-11-08T17:00:00	4	Temperatura máxima	18.4
82943	7	Sololá	701	Sololá	4	Finca Santa Victoria	1	Enero	2023-09-01T00:00:00	2024-11-08T17:00:00	3	Temperatura mínima	15.9
82944	7	Sololá	701	Sololá	4	Finca Santa Victoria	1	Enero	2023-09-01T00:00:00	2024-11-08T17:00:00	5	Humedad	69
82945	7	Sololá	701	Sololá	4	Finca Santa Victoria	1	Enero	2023-09-01T00:00:00	2024-11-08T17:00:00	6	Velocidad del viento	1.6
82946	7	Sololá	701	Sololá	4	Finca Santa Victoria	1	Enero	2023-09-01T00:00:00	2024-11-08T17:00:00	7	Dirección del viento	1.61
82947	7	Sololá	701	Sololá	4	Finca Santa Victoria	1	Enero	2023-09-01T00:00:00	2024-11-08T17:00:00	1	Precipitación	0
82948	7	Sololá	701	Sololá	4	Finca Santa Victoria	1	Enero	2023-09-01T00:00:00	2024-11-08T17:00:00	8	Radiación solar	179
82949	7	Sololá	701	Sololá	4	Finca Santa Victoria	1	Enero	2023-09-01T00:00:00	2024-11-08T18:00:00	2	Temperatura media	13.8
82950	7	Sololá	701	Sololá	4	Finca Santa Victoria	1	Enero	2023-09-01T00:00:00	2024-11-08T18:00:00	4	Temperatura máxima	18.1
82951	7	Sololá	701	Sololá	4	Finca Santa Victoria	1	Enero	2023-09-01T00:00:00	2024-11-08T18:00:00	3	Temperatura mínima	13.8
82952	7	Sololá	701	Sololá	4	Finca Santa Victoria	1	Enero	2023-09-01T00:00:00	2024-11-08T18:00:00	5	Humedad	89
82953	7	Sololá	701	Sololá	4	Finca Santa Victoria	1	Enero	2023-09-01T00:00:00	2024-11-08T18:00:00	6	Velocidad del viento	0
82954	7	Sololá	701	Sololá	4	Finca Santa Victoria	1	Enero	2023-09-01T00:00:00	2024-11-08T18:00:00	7	Dirección del viento	0
82955	7	Sololá	701	Sololá	4	Finca Santa Victoria	1	Enero	2023-09-01T00:00:00	2024-11-08T18:00:00	1	Precipitación	0
82956	7	Sololá	701	Sololá	4	Finca Santa Victoria	1	Enero	2023-09-01T00:00:00	2024-11-08T18:00:00	8	Radiación solar	11
82957	7	Sololá	701	Sololá	4	Finca Santa Victoria	1	Enero	2023-09-01T00:00:00	2024-11-08T19:00:00	2	Temperatura media	13
82958	7	Sololá	701	Sololá	4	Finca Santa Victoria	1	Enero	2023-09-01T00:00:00	2024-11-08T19:00:00	4	Temperatura máxima	13.8
82959	7	Sololá	701	Sololá	4	Finca Santa Victoria	1	Enero	2023-09-01T00:00:00	2024-11-08T19:00:00	3	Temperatura mínima	12.6
82960	7	Sololá	701	Sololá	4	Finca Santa Victoria	1	Enero	2023-09-01T00:00:00	2024-11-08T19:00:00	5	Humedad	82
82961	7	Sololá	701	Sololá	4	Finca Santa Victoria	1	Enero	2023-09-01T00:00:00	2024-11-08T19:00:00	6	Velocidad del viento	1.6
82962	7	Sololá	701	Sololá	4	Finca Santa Victoria	1	Enero	2023-09-01T00:00:00	2024-11-08T19:00:00	7	Dirección del viento	1.61
82963	7	Sololá	701	Sololá	4	Finca Santa Victoria	1	Enero	2023-09-01T00:00:00	2024-11-08T19:00:00	1	Precipitación	0
82964	7	Sololá	701	Sololá	4	Finca Santa Victoria	1	Enero	2023-09-01T00:00:00	2024-11-08T19:00:00	8	Radiación solar	0
82965	7	Sololá	701	Sololá	4	Finca Santa Victoria	1	Enero	2023-09-01T00:00:00	2024-11-08T20:00:00	2	Temperatura media	12.7
82966	7	Sololá	701	Sololá	4	Finca Santa Victoria	1	Enero	2023-09-01T00:00:00	2024-11-08T20:00:00	4	Temperatura máxima	13.1
82967	7	Sololá	701	Sololá	4	Finca Santa Victoria	1	Enero	2023-09-01T00:00:00	2024-11-08T20:00:00	3	Temperatura mínima	12.7
82968	7	Sololá	701	Sololá	4	Finca Santa Victoria	1	Enero	2023-09-01T00:00:00	2024-11-08T20:00:00	5	Humedad	84
82969	7	Sololá	701	Sololá	4	Finca Santa Victoria	1	Enero	2023-09-01T00:00:00	2024-11-08T20:00:00	6	Velocidad del viento	1.6
82970	7	Sololá	701	Sololá	4	Finca Santa Victoria	1	Enero	2023-09-01T00:00:00	2024-11-08T20:00:00	7	Dirección del viento	1.61
82971	7	Sololá	701	Sololá	4	Finca Santa Victoria	1	Enero	2023-09-01T00:00:00	2024-11-08T20:00:00	1	Precipitación	0
82972	7	Sololá	701	Sololá	4	Finca Santa Victoria	1	Enero	2023-09-01T00:00:00	2024-11-08T20:00:00	8	Radiación solar	0
82973	7	Sololá	701	Sololá	4	Finca Santa Victoria	1	Enero	2023-09-01T00:00:00	2024-11-08T21:00:00	2	Temperatura media	12.6
82974	7	Sololá	701	Sololá	4	Finca Santa Victoria	1	Enero	2023-09-01T00:00:00	2024-11-08T21:00:00	4	Temperatura máxima	12.8
82975	7	Sololá	701	Sololá	4	Finca Santa Victoria	1	Enero	2023-09-01T00:00:00	2024-11-08T21:00:00	3	Temperatura mínima	12.5
82976	7	Sololá	701	Sololá	4	Finca Santa Victoria	1	Enero	2023-09-01T00:00:00	2024-11-08T21:00:00	5	Humedad	85
82977	7	Sololá	701	Sololá	4	Finca Santa Victoria	1	Enero	2023-09-01T00:00:00	2024-11-08T21:00:00	6	Velocidad del viento	1.6
82978	7	Sololá	701	Sololá	4	Finca Santa Victoria	1	Enero	2023-09-01T00:00:00	2024-11-08T21:00:00	7	Dirección del viento	1.61
82979	7	Sololá	701	Sololá	4	Finca Santa Victoria	1	Enero	2023-09-01T00:00:00	2024-11-08T21:00:00	1	Precipitación	0
82980	7	Sololá	701	Sololá	4	Finca Santa Victoria	1	Enero	2023-09-01T00:00:00	2024-11-08T21:00:00	8	Radiación solar	0
82981	7	Sololá	701	Sololá	4	Finca Santa Victoria	1	Enero	2023-09-01T00:00:00	2024-11-08T22:00:00	2	Temperatura media	12.4
82982	7	Sololá	701	Sololá	4	Finca Santa Victoria	1	Enero	2023-09-01T00:00:00	2024-11-08T22:00:00	4	Temperatura máxima	12.7
82983	7	Sololá	701	Sololá	4	Finca Santa Victoria	1	Enero	2023-09-01T00:00:00	2024-11-08T22:00:00	3	Temperatura mínima	12.4
82984	7	Sololá	701	Sololá	4	Finca Santa Victoria	1	Enero	2023-09-01T00:00:00	2024-11-08T22:00:00	5	Humedad	87
82985	7	Sololá	701	Sololá	4	Finca Santa Victoria	1	Enero	2023-09-01T00:00:00	2024-11-08T22:00:00	6	Velocidad del viento	1.6
82986	7	Sololá	701	Sololá	4	Finca Santa Victoria	1	Enero	2023-09-01T00:00:00	2024-11-08T22:00:00	7	Dirección del viento	1.61
82987	7	Sololá	701	Sololá	4	Finca Santa Victoria	1	Enero	2023-09-01T00:00:00	2024-11-08T22:00:00	1	Precipitación	0
82988	7	Sololá	701	Sololá	4	Finca Santa Victoria	1	Enero	2023-09-01T00:00:00	2024-11-08T22:00:00	8	Radiación solar	0
82989	7	Sololá	701	Sololá	4	Finca Santa Victoria	1	Enero	2023-09-01T00:00:00	2024-11-08T23:00:00	2	Temperatura media	11.8
82990	7	Sololá	701	Sololá	4	Finca Santa Victoria	1	Enero	2023-09-01T00:00:00	2024-11-08T23:00:00	4	Temperatura máxima	12.6
82991	7	Sololá	701	Sololá	4	Finca Santa Victoria	1	Enero	2023-09-01T00:00:00	2024-11-08T23:00:00	3	Temperatura mínima	11.8
82992	7	Sololá	701	Sololá	4	Finca Santa Victoria	1	Enero	2023-09-01T00:00:00	2024-11-08T23:00:00	5	Humedad	91
82993	7	Sololá	701	Sololá	4	Finca Santa Victoria	1	Enero	2023-09-01T00:00:00	2024-11-08T23:00:00	6	Velocidad del viento	1.6
82994	7	Sololá	701	Sololá	4	Finca Santa Victoria	1	Enero	2023-09-01T00:00:00	2024-11-08T23:00:00	7	Dirección del viento	1.61
82995	7	Sololá	701	Sololá	4	Finca Santa Victoria	1	Enero	2023-09-01T00:00:00	2024-11-08T23:00:00	1	Precipitación	0
82996	7	Sololá	701	Sololá	4	Finca Santa Victoria	1	Enero	2023-09-01T00:00:00	2024-11-08T23:00:00	8	Radiación solar	0
82997	7	Sololá	701	Sololá	4	Finca Santa Victoria	1	Enero	2023-10-01T00:00:00	2024-11-08T00:00:00	2	Temperatura media	11.8
82998	7	Sololá	701	Sololá	4	Finca Santa Victoria	1	Enero	2023-10-01T00:00:00	2024-11-08T00:00:00	4	Temperatura máxima	11.8
82999	7	Sololá	701	Sololá	4	Finca Santa Victoria	1	Enero	2023-10-01T00:00:00	2024-11-08T00:00:00	3	Temperatura mínima	11.6
83000	7	Sololá	701	Sololá	4	Finca Santa Victoria	1	Enero	2023-10-01T00:00:00	2024-11-08T00:00:00	5	Humedad	89
83001	7	Sololá	701	Sololá	4	Finca Santa Victoria	1	Enero	2023-10-01T00:00:00	2024-11-08T00:00:00	6	Velocidad del viento	3.2
83002	7	Sololá	701	Sololá	4	Finca Santa Victoria	1	Enero	2023-10-01T00:00:00	2024-11-08T00:00:00	7	Dirección del viento	3.22
83003	7	Sololá	701	Sololá	4	Finca Santa Victoria	1	Enero	2023-10-01T00:00:00	2024-11-08T00:00:00	1	Precipitación	0
83004	7	Sololá	701	Sololá	4	Finca Santa Victoria	1	Enero	2023-10-01T00:00:00	2024-11-08T00:00:00	8	Radiación solar	0
83005	7	Sololá	701	Sololá	4	Finca Santa Victoria	1	Enero	2023-10-01T00:00:00	2024-11-08T01:00:00	2	Temperatura media	11.3
83006	7	Sololá	701	Sololá	4	Finca Santa Victoria	1	Enero	2023-10-01T00:00:00	2024-11-08T01:00:00	4	Temperatura máxima	11.8
83007	7	Sololá	701	Sololá	4	Finca Santa Victoria	1	Enero	2023-10-01T00:00:00	2024-11-08T01:00:00	3	Temperatura mínima	11.2
83008	7	Sololá	701	Sololá	4	Finca Santa Victoria	1	Enero	2023-10-01T00:00:00	2024-11-08T01:00:00	5	Humedad	90
83009	7	Sololá	701	Sololá	4	Finca Santa Victoria	1	Enero	2023-10-01T00:00:00	2024-11-08T01:00:00	6	Velocidad del viento	1.6
83010	7	Sololá	701	Sololá	4	Finca Santa Victoria	1	Enero	2023-10-01T00:00:00	2024-11-08T01:00:00	7	Dirección del viento	1.61
83011	7	Sololá	701	Sololá	4	Finca Santa Victoria	1	Enero	2023-10-01T00:00:00	2024-11-08T01:00:00	1	Precipitación	0
83012	7	Sololá	701	Sololá	4	Finca Santa Victoria	1	Enero	2023-10-01T00:00:00	2024-11-08T01:00:00	8	Radiación solar	0
83013	7	Sololá	701	Sololá	4	Finca Santa Victoria	1	Enero	2023-10-01T00:00:00	2024-11-08T02:00:00	2	Temperatura media	11
83014	7	Sololá	701	Sololá	4	Finca Santa Victoria	1	Enero	2023-10-01T00:00:00	2024-11-08T02:00:00	4	Temperatura máxima	11.3
83015	7	Sololá	701	Sololá	4	Finca Santa Victoria	1	Enero	2023-10-01T00:00:00	2024-11-08T02:00:00	3	Temperatura mínima	11
83016	7	Sololá	701	Sololá	4	Finca Santa Victoria	1	Enero	2023-10-01T00:00:00	2024-11-08T02:00:00	5	Humedad	89
83017	7	Sololá	701	Sololá	4	Finca Santa Victoria	1	Enero	2023-10-01T00:00:00	2024-11-08T02:00:00	6	Velocidad del viento	1.6
83018	7	Sololá	701	Sololá	4	Finca Santa Victoria	1	Enero	2023-10-01T00:00:00	2024-11-08T02:00:00	7	Dirección del viento	1.61
83019	7	Sololá	701	Sololá	4	Finca Santa Victoria	1	Enero	2023-10-01T00:00:00	2024-11-08T02:00:00	1	Precipitación	0
83020	7	Sololá	701	Sololá	4	Finca Santa Victoria	1	Enero	2023-10-01T00:00:00	2024-11-08T02:00:00	8	Radiación solar	0
83021	7	Sololá	701	Sololá	4	Finca Santa Victoria	1	Enero	2023-10-01T00:00:00	2024-11-08T03:00:00	2	Temperatura media	10.4
83022	7	Sololá	701	Sololá	4	Finca Santa Victoria	1	Enero	2023-10-01T00:00:00	2024-11-08T03:00:00	4	Temperatura máxima	11.1
83023	7	Sololá	701	Sololá	4	Finca Santa Victoria	1	Enero	2023-10-01T00:00:00	2024-11-08T03:00:00	3	Temperatura mínima	10.4
83024	7	Sololá	701	Sololá	4	Finca Santa Victoria	1	Enero	2023-10-01T00:00:00	2024-11-08T03:00:00	5	Humedad	88
83025	7	Sololá	701	Sololá	4	Finca Santa Victoria	1	Enero	2023-10-01T00:00:00	2024-11-08T03:00:00	6	Velocidad del viento	1.6
83026	7	Sololá	701	Sololá	4	Finca Santa Victoria	1	Enero	2023-10-01T00:00:00	2024-11-08T03:00:00	7	Dirección del viento	1.61
83027	7	Sololá	701	Sololá	4	Finca Santa Victoria	1	Enero	2023-10-01T00:00:00	2024-11-08T03:00:00	1	Precipitación	0
83028	7	Sololá	701	Sololá	4	Finca Santa Victoria	1	Enero	2023-10-01T00:00:00	2024-11-08T03:00:00	8	Radiación solar	0
83029	7	Sololá	701	Sololá	4	Finca Santa Victoria	1	Enero	2023-10-01T00:00:00	2024-11-08T04:00:00	2	Temperatura media	9.9
83030	7	Sololá	701	Sololá	4	Finca Santa Victoria	1	Enero	2023-10-01T00:00:00	2024-11-08T04:00:00	4	Temperatura máxima	10.5
83031	7	Sololá	701	Sololá	4	Finca Santa Victoria	1	Enero	2023-10-01T00:00:00	2024-11-08T04:00:00	3	Temperatura mínima	9.9
83032	7	Sololá	701	Sololá	4	Finca Santa Victoria	1	Enero	2023-10-01T00:00:00	2024-11-08T04:00:00	5	Humedad	90
83033	7	Sololá	701	Sololá	4	Finca Santa Victoria	1	Enero	2023-10-01T00:00:00	2024-11-08T04:00:00	6	Velocidad del viento	0
83034	7	Sololá	701	Sololá	4	Finca Santa Victoria	1	Enero	2023-10-01T00:00:00	2024-11-08T04:00:00	7	Dirección del viento	0
83035	7	Sololá	701	Sololá	4	Finca Santa Victoria	1	Enero	2023-10-01T00:00:00	2024-11-08T04:00:00	1	Precipitación	0
83036	7	Sololá	701	Sololá	4	Finca Santa Victoria	1	Enero	2023-10-01T00:00:00	2024-11-08T04:00:00	8	Radiación solar	0
83037	7	Sololá	701	Sololá	4	Finca Santa Victoria	1	Enero	2023-10-01T00:00:00	2024-11-08T05:00:00	2	Temperatura media	10.3
83038	7	Sololá	701	Sololá	4	Finca Santa Victoria	1	Enero	2023-10-01T00:00:00	2024-11-08T05:00:00	4	Temperatura máxima	10.4
83039	7	Sololá	701	Sololá	4	Finca Santa Victoria	1	Enero	2023-10-01T00:00:00	2024-11-08T05:00:00	3	Temperatura mínima	9.9
83040	7	Sololá	701	Sololá	4	Finca Santa Victoria	1	Enero	2023-10-01T00:00:00	2024-11-08T05:00:00	5	Humedad	89
83041	7	Sololá	701	Sololá	4	Finca Santa Victoria	1	Enero	2023-10-01T00:00:00	2024-11-08T05:00:00	6	Velocidad del viento	0
83042	7	Sololá	701	Sololá	4	Finca Santa Victoria	1	Enero	2023-10-01T00:00:00	2024-11-08T05:00:00	7	Dirección del viento	0
83043	7	Sololá	701	Sololá	4	Finca Santa Victoria	1	Enero	2023-10-01T00:00:00	2024-11-08T05:00:00	1	Precipitación	0
83044	7	Sololá	701	Sololá	4	Finca Santa Victoria	1	Enero	2023-10-01T00:00:00	2024-11-08T05:00:00	8	Radiación solar	0
83045	7	Sololá	701	Sololá	4	Finca Santa Victoria	1	Enero	2023-10-01T00:00:00	2024-11-08T06:00:00	2	Temperatura media	10
83046	7	Sololá	701	Sololá	4	Finca Santa Victoria	1	Enero	2023-10-01T00:00:00	2024-11-08T06:00:00	4	Temperatura máxima	10.3
83047	7	Sololá	701	Sololá	4	Finca Santa Victoria	1	Enero	2023-10-01T00:00:00	2024-11-08T06:00:00	3	Temperatura mínima	10
83048	7	Sololá	701	Sololá	4	Finca Santa Victoria	1	Enero	2023-10-01T00:00:00	2024-11-08T06:00:00	5	Humedad	89
83049	7	Sololá	701	Sololá	4	Finca Santa Victoria	1	Enero	2023-10-01T00:00:00	2024-11-08T06:00:00	6	Velocidad del viento	0
83050	7	Sololá	701	Sololá	4	Finca Santa Victoria	1	Enero	2023-10-01T00:00:00	2024-11-08T06:00:00	7	Dirección del viento	0
83051	7	Sololá	701	Sololá	4	Finca Santa Victoria	1	Enero	2023-10-01T00:00:00	2024-11-08T06:00:00	1	Precipitación	0
83052	7	Sololá	701	Sololá	4	Finca Santa Victoria	1	Enero	2023-10-01T00:00:00	2024-11-08T06:00:00	8	Radiación solar	0
83053	7	Sololá	701	Sololá	4	Finca Santa Victoria	1	Enero	2023-10-01T00:00:00	2024-11-08T07:00:00	2	Temperatura media	9.7
83054	7	Sololá	701	Sololá	4	Finca Santa Victoria	1	Enero	2023-10-01T00:00:00	2024-11-08T07:00:00	4	Temperatura máxima	10
83055	7	Sololá	701	Sololá	4	Finca Santa Victoria	1	Enero	2023-10-01T00:00:00	2024-11-08T07:00:00	3	Temperatura mínima	9.3
83056	7	Sololá	701	Sololá	4	Finca Santa Victoria	1	Enero	2023-10-01T00:00:00	2024-11-08T07:00:00	5	Humedad	90
83057	7	Sololá	701	Sololá	4	Finca Santa Victoria	1	Enero	2023-10-01T00:00:00	2024-11-08T07:00:00	6	Velocidad del viento	0
83058	7	Sololá	701	Sololá	4	Finca Santa Victoria	1	Enero	2023-10-01T00:00:00	2024-11-08T07:00:00	7	Dirección del viento	0
83059	7	Sololá	701	Sololá	4	Finca Santa Victoria	1	Enero	2023-10-01T00:00:00	2024-11-08T07:00:00	1	Precipitación	0
83060	7	Sololá	701	Sololá	4	Finca Santa Victoria	1	Enero	2023-10-01T00:00:00	2024-11-08T07:00:00	8	Radiación solar	3
83061	7	Sololá	701	Sololá	4	Finca Santa Victoria	1	Enero	2023-10-01T00:00:00	2024-11-08T08:00:00	2	Temperatura media	12.8
83062	7	Sololá	701	Sololá	4	Finca Santa Victoria	1	Enero	2023-10-01T00:00:00	2024-11-08T08:00:00	4	Temperatura máxima	12.8
83063	7	Sololá	701	Sololá	4	Finca Santa Victoria	1	Enero	2023-10-01T00:00:00	2024-11-08T08:00:00	3	Temperatura mínima	9.7
83064	7	Sololá	701	Sololá	4	Finca Santa Victoria	1	Enero	2023-10-01T00:00:00	2024-11-08T08:00:00	5	Humedad	81
83065	7	Sololá	701	Sololá	4	Finca Santa Victoria	1	Enero	2023-10-01T00:00:00	2024-11-08T08:00:00	6	Velocidad del viento	1.6
83066	7	Sololá	701	Sololá	4	Finca Santa Victoria	1	Enero	2023-10-01T00:00:00	2024-11-08T08:00:00	7	Dirección del viento	1.61
83067	7	Sololá	701	Sololá	4	Finca Santa Victoria	1	Enero	2023-10-01T00:00:00	2024-11-08T08:00:00	1	Precipitación	0
83068	7	Sololá	701	Sololá	4	Finca Santa Victoria	1	Enero	2023-10-01T00:00:00	2024-11-08T08:00:00	8	Radiación solar	30
83069	7	Sololá	701	Sololá	4	Finca Santa Victoria	1	Enero	2023-10-01T00:00:00	2024-11-08T09:00:00	2	Temperatura media	15.8
83070	7	Sololá	701	Sololá	4	Finca Santa Victoria	1	Enero	2023-10-01T00:00:00	2024-11-08T09:00:00	4	Temperatura máxima	15.8
83071	7	Sololá	701	Sololá	4	Finca Santa Victoria	1	Enero	2023-10-01T00:00:00	2024-11-08T09:00:00	3	Temperatura mínima	12.8
83072	7	Sololá	701	Sololá	4	Finca Santa Victoria	1	Enero	2023-10-01T00:00:00	2024-11-08T09:00:00	5	Humedad	74
83073	7	Sololá	701	Sololá	4	Finca Santa Victoria	1	Enero	2023-10-01T00:00:00	2024-11-08T09:00:00	6	Velocidad del viento	3.2
83074	7	Sololá	701	Sololá	4	Finca Santa Victoria	1	Enero	2023-10-01T00:00:00	2024-11-08T09:00:00	7	Dirección del viento	3.22
83075	7	Sololá	701	Sololá	4	Finca Santa Victoria	1	Enero	2023-10-01T00:00:00	2024-11-08T09:00:00	1	Precipitación	0
83076	7	Sololá	701	Sololá	4	Finca Santa Victoria	1	Enero	2023-10-01T00:00:00	2024-11-08T09:00:00	8	Radiación solar	204
83077	7	Sololá	701	Sololá	4	Finca Santa Victoria	1	Enero	2023-10-01T00:00:00	2024-11-08T10:00:00	2	Temperatura media	17.8
83078	7	Sololá	701	Sololá	4	Finca Santa Victoria	1	Enero	2023-10-01T00:00:00	2024-11-08T10:00:00	4	Temperatura máxima	17.8
83079	7	Sololá	701	Sololá	4	Finca Santa Victoria	1	Enero	2023-10-01T00:00:00	2024-11-08T10:00:00	3	Temperatura mínima	15.8
83080	7	Sololá	701	Sololá	4	Finca Santa Victoria	1	Enero	2023-10-01T00:00:00	2024-11-08T10:00:00	5	Humedad	65
83081	7	Sololá	701	Sololá	4	Finca Santa Victoria	1	Enero	2023-10-01T00:00:00	2024-11-08T10:00:00	6	Velocidad del viento	3.2
83082	7	Sololá	701	Sololá	4	Finca Santa Victoria	1	Enero	2023-10-01T00:00:00	2024-11-08T10:00:00	7	Dirección del viento	3.22
83083	7	Sololá	701	Sololá	4	Finca Santa Victoria	1	Enero	2023-10-01T00:00:00	2024-11-08T10:00:00	1	Precipitación	0
83084	7	Sololá	701	Sololá	4	Finca Santa Victoria	1	Enero	2023-10-01T00:00:00	2024-11-08T10:00:00	8	Radiación solar	510
83085	7	Sololá	701	Sololá	4	Finca Santa Victoria	1	Enero	2023-10-01T00:00:00	2024-11-08T11:00:00	2	Temperatura media	19.3
83086	7	Sololá	701	Sololá	4	Finca Santa Victoria	1	Enero	2023-10-01T00:00:00	2024-11-08T11:00:00	4	Temperatura máxima	19.3
83087	7	Sololá	701	Sololá	4	Finca Santa Victoria	1	Enero	2023-10-01T00:00:00	2024-11-08T11:00:00	3	Temperatura mínima	17.8
83088	7	Sololá	701	Sololá	4	Finca Santa Victoria	1	Enero	2023-10-01T00:00:00	2024-11-08T11:00:00	5	Humedad	64
83089	7	Sololá	701	Sololá	4	Finca Santa Victoria	1	Enero	2023-10-01T00:00:00	2024-11-08T11:00:00	6	Velocidad del viento	3.2
83090	7	Sololá	701	Sololá	4	Finca Santa Victoria	1	Enero	2023-10-01T00:00:00	2024-11-08T11:00:00	7	Dirección del viento	3.22
83091	7	Sololá	701	Sololá	4	Finca Santa Victoria	1	Enero	2023-10-01T00:00:00	2024-11-08T11:00:00	1	Precipitación	0
83092	7	Sololá	701	Sololá	4	Finca Santa Victoria	1	Enero	2023-10-01T00:00:00	2024-11-08T11:00:00	8	Radiación solar	756
83093	7	Sololá	701	Sololá	4	Finca Santa Victoria	1	Enero	2023-10-01T00:00:00	2024-11-08T12:00:00	2	Temperatura media	20.3
83094	7	Sololá	701	Sololá	4	Finca Santa Victoria	1	Enero	2023-10-01T00:00:00	2024-11-08T12:00:00	4	Temperatura máxima	20.5
83095	7	Sololá	701	Sololá	4	Finca Santa Victoria	1	Enero	2023-10-01T00:00:00	2024-11-08T12:00:00	3	Temperatura mínima	19.3
83096	7	Sololá	701	Sololá	4	Finca Santa Victoria	1	Enero	2023-10-01T00:00:00	2024-11-08T12:00:00	5	Humedad	60
83097	7	Sololá	701	Sololá	4	Finca Santa Victoria	1	Enero	2023-10-01T00:00:00	2024-11-08T12:00:00	6	Velocidad del viento	3.2
83098	7	Sololá	701	Sololá	4	Finca Santa Victoria	1	Enero	2023-10-01T00:00:00	2024-11-08T12:00:00	7	Dirección del viento	3.22
83099	7	Sololá	701	Sololá	4	Finca Santa Victoria	1	Enero	2023-10-01T00:00:00	2024-11-08T12:00:00	1	Precipitación	0
83100	7	Sololá	701	Sololá	4	Finca Santa Victoria	1	Enero	2023-10-01T00:00:00	2024-11-08T12:00:00	8	Radiación solar	818
83101	7	Sololá	701	Sololá	4	Finca Santa Victoria	1	Enero	2023-10-01T00:00:00	2024-11-08T13:00:00	2	Temperatura media	16.6
83102	7	Sololá	701	Sololá	4	Finca Santa Victoria	1	Enero	2023-10-01T00:00:00	2024-11-08T13:00:00	4	Temperatura máxima	21.1
83103	7	Sololá	701	Sololá	4	Finca Santa Victoria	1	Enero	2023-10-01T00:00:00	2024-11-08T13:00:00	3	Temperatura mínima	16.6
83104	7	Sololá	701	Sololá	4	Finca Santa Victoria	1	Enero	2023-10-01T00:00:00	2024-11-08T13:00:00	5	Humedad	83
83105	7	Sololá	701	Sololá	4	Finca Santa Victoria	1	Enero	2023-10-01T00:00:00	2024-11-08T13:00:00	6	Velocidad del viento	3.2
83106	7	Sololá	701	Sololá	4	Finca Santa Victoria	1	Enero	2023-10-01T00:00:00	2024-11-08T13:00:00	7	Dirección del viento	3.22
83107	7	Sololá	701	Sololá	4	Finca Santa Victoria	1	Enero	2023-10-01T00:00:00	2024-11-08T13:00:00	1	Precipitación	0
83108	7	Sololá	701	Sololá	4	Finca Santa Victoria	1	Enero	2023-10-01T00:00:00	2024-11-08T13:00:00	8	Radiación solar	476
83109	7	Sololá	701	Sololá	4	Finca Santa Victoria	1	Enero	2023-10-01T00:00:00	2024-11-08T14:00:00	2	Temperatura media	15.6
83110	7	Sololá	701	Sololá	4	Finca Santa Victoria	1	Enero	2023-10-01T00:00:00	2024-11-08T14:00:00	4	Temperatura máxima	16.5
83111	7	Sololá	701	Sololá	4	Finca Santa Victoria	1	Enero	2023-10-01T00:00:00	2024-11-08T14:00:00	3	Temperatura mínima	15.6
83112	7	Sololá	701	Sololá	4	Finca Santa Victoria	1	Enero	2023-10-01T00:00:00	2024-11-08T14:00:00	5	Humedad	89
83113	7	Sololá	701	Sololá	4	Finca Santa Victoria	1	Enero	2023-10-01T00:00:00	2024-11-08T14:00:00	6	Velocidad del viento	1.6
83114	7	Sololá	701	Sololá	4	Finca Santa Victoria	1	Enero	2023-10-01T00:00:00	2024-11-08T14:00:00	7	Dirección del viento	1.61
83115	7	Sololá	701	Sololá	4	Finca Santa Victoria	1	Enero	2023-10-01T00:00:00	2024-11-08T14:00:00	1	Precipitación	0
83116	7	Sololá	701	Sololá	4	Finca Santa Victoria	1	Enero	2023-10-01T00:00:00	2024-11-08T14:00:00	8	Radiación solar	93
83117	7	Sololá	701	Sololá	4	Finca Santa Victoria	1	Enero	2023-10-01T00:00:00	2024-11-08T15:00:00	2	Temperatura media	18.4
83118	7	Sololá	701	Sololá	4	Finca Santa Victoria	1	Enero	2023-10-01T00:00:00	2024-11-08T15:00:00	4	Temperatura máxima	18.6
83119	7	Sololá	701	Sololá	4	Finca Santa Victoria	1	Enero	2023-10-01T00:00:00	2024-11-08T15:00:00	3	Temperatura mínima	15.4
83120	7	Sololá	701	Sololá	4	Finca Santa Victoria	1	Enero	2023-10-01T00:00:00	2024-11-08T15:00:00	5	Humedad	73
83121	7	Sololá	701	Sololá	4	Finca Santa Victoria	1	Enero	2023-10-01T00:00:00	2024-11-08T15:00:00	6	Velocidad del viento	1.6
83122	7	Sololá	701	Sololá	4	Finca Santa Victoria	1	Enero	2023-10-01T00:00:00	2024-11-08T15:00:00	7	Dirección del viento	1.61
83123	7	Sololá	701	Sololá	4	Finca Santa Victoria	1	Enero	2023-10-01T00:00:00	2024-11-08T15:00:00	1	Precipitación	0
83124	7	Sololá	701	Sololá	4	Finca Santa Victoria	1	Enero	2023-10-01T00:00:00	2024-11-08T15:00:00	8	Radiación solar	164
83125	7	Sololá	701	Sololá	4	Finca Santa Victoria	1	Enero	2023-10-01T00:00:00	2024-11-08T16:00:00	2	Temperatura media	15.9
83126	7	Sololá	701	Sololá	4	Finca Santa Victoria	1	Enero	2023-10-01T00:00:00	2024-11-08T16:00:00	4	Temperatura máxima	18.5
83127	7	Sololá	701	Sololá	4	Finca Santa Victoria	1	Enero	2023-10-01T00:00:00	2024-11-08T16:00:00	3	Temperatura mínima	15.9
83128	7	Sololá	701	Sololá	4	Finca Santa Victoria	1	Enero	2023-10-01T00:00:00	2024-11-08T16:00:00	5	Humedad	76
83129	7	Sololá	701	Sololá	4	Finca Santa Victoria	1	Enero	2023-10-01T00:00:00	2024-11-08T16:00:00	6	Velocidad del viento	1.6
83130	7	Sololá	701	Sololá	4	Finca Santa Victoria	1	Enero	2023-10-01T00:00:00	2024-11-08T16:00:00	7	Dirección del viento	1.61
83131	7	Sololá	701	Sololá	4	Finca Santa Victoria	1	Enero	2023-10-01T00:00:00	2024-11-08T16:00:00	1	Precipitación	0
83132	7	Sololá	701	Sololá	4	Finca Santa Victoria	1	Enero	2023-10-01T00:00:00	2024-11-08T16:00:00	8	Radiación solar	93
83133	7	Sololá	701	Sololá	4	Finca Santa Victoria	1	Enero	2023-10-01T00:00:00	2024-11-08T17:00:00	2	Temperatura media	16.3
83134	7	Sololá	701	Sololá	4	Finca Santa Victoria	1	Enero	2023-10-01T00:00:00	2024-11-08T17:00:00	4	Temperatura máxima	16.3
83135	7	Sololá	701	Sololá	4	Finca Santa Victoria	1	Enero	2023-10-01T00:00:00	2024-11-08T17:00:00	3	Temperatura mínima	15.1
83136	7	Sololá	701	Sololá	4	Finca Santa Victoria	1	Enero	2023-10-01T00:00:00	2024-11-08T17:00:00	5	Humedad	71
83137	7	Sololá	701	Sololá	4	Finca Santa Victoria	1	Enero	2023-10-01T00:00:00	2024-11-08T17:00:00	6	Velocidad del viento	1.6
83138	7	Sololá	701	Sololá	4	Finca Santa Victoria	1	Enero	2023-10-01T00:00:00	2024-11-08T17:00:00	7	Dirección del viento	1.61
83139	7	Sololá	701	Sololá	4	Finca Santa Victoria	1	Enero	2023-10-01T00:00:00	2024-11-08T17:00:00	1	Precipitación	0
83140	7	Sololá	701	Sololá	4	Finca Santa Victoria	1	Enero	2023-10-01T00:00:00	2024-11-08T17:00:00	8	Radiación solar	71
83141	7	Sololá	701	Sololá	4	Finca Santa Victoria	1	Enero	2023-10-01T00:00:00	2024-11-08T18:00:00	2	Temperatura media	13.9
83142	7	Sololá	701	Sololá	4	Finca Santa Victoria	1	Enero	2023-10-01T00:00:00	2024-11-08T18:00:00	4	Temperatura máxima	16.7
83143	7	Sololá	701	Sololá	4	Finca Santa Victoria	1	Enero	2023-10-01T00:00:00	2024-11-08T18:00:00	3	Temperatura mínima	13.9
83144	7	Sololá	701	Sololá	4	Finca Santa Victoria	1	Enero	2023-10-01T00:00:00	2024-11-08T18:00:00	5	Humedad	78
83145	7	Sololá	701	Sololá	4	Finca Santa Victoria	1	Enero	2023-10-01T00:00:00	2024-11-08T18:00:00	6	Velocidad del viento	1.6
83146	7	Sololá	701	Sololá	4	Finca Santa Victoria	1	Enero	2023-10-01T00:00:00	2024-11-08T18:00:00	7	Dirección del viento	1.61
83147	7	Sololá	701	Sololá	4	Finca Santa Victoria	1	Enero	2023-10-01T00:00:00	2024-11-08T18:00:00	1	Precipitación	0
83148	7	Sololá	701	Sololá	4	Finca Santa Victoria	1	Enero	2023-10-01T00:00:00	2024-11-08T18:00:00	8	Radiación solar	38
83149	7	Sololá	701	Sololá	4	Finca Santa Victoria	1	Enero	2023-10-01T00:00:00	2024-11-08T19:00:00	2	Temperatura media	13.3
83150	7	Sololá	701	Sololá	4	Finca Santa Victoria	1	Enero	2023-10-01T00:00:00	2024-11-08T19:00:00	4	Temperatura máxima	13.9
83151	7	Sololá	701	Sololá	4	Finca Santa Victoria	1	Enero	2023-10-01T00:00:00	2024-11-08T19:00:00	3	Temperatura mínima	13.1
83152	7	Sololá	701	Sololá	4	Finca Santa Victoria	1	Enero	2023-10-01T00:00:00	2024-11-08T19:00:00	5	Humedad	81
83153	7	Sololá	701	Sololá	4	Finca Santa Victoria	1	Enero	2023-10-01T00:00:00	2024-11-08T19:00:00	6	Velocidad del viento	3.2
83154	7	Sololá	701	Sololá	4	Finca Santa Victoria	1	Enero	2023-10-01T00:00:00	2024-11-08T19:00:00	7	Dirección del viento	3.22
83155	7	Sololá	701	Sololá	4	Finca Santa Victoria	1	Enero	2023-10-01T00:00:00	2024-11-08T19:00:00	1	Precipitación	0
83156	7	Sololá	701	Sololá	4	Finca Santa Victoria	1	Enero	2023-10-01T00:00:00	2024-11-08T19:00:00	8	Radiación solar	0
83157	7	Sololá	701	Sololá	4	Finca Santa Victoria	1	Enero	2023-10-01T00:00:00	2024-11-08T20:00:00	2	Temperatura media	12.9
83158	7	Sololá	701	Sololá	4	Finca Santa Victoria	1	Enero	2023-10-01T00:00:00	2024-11-08T20:00:00	4	Temperatura máxima	13.3
83159	7	Sololá	701	Sololá	4	Finca Santa Victoria	1	Enero	2023-10-01T00:00:00	2024-11-08T20:00:00	3	Temperatura mínima	12.9
83160	7	Sololá	701	Sololá	4	Finca Santa Victoria	1	Enero	2023-10-01T00:00:00	2024-11-08T20:00:00	5	Humedad	82
83161	7	Sololá	701	Sololá	4	Finca Santa Victoria	1	Enero	2023-10-01T00:00:00	2024-11-08T20:00:00	6	Velocidad del viento	1.6
83162	7	Sololá	701	Sololá	4	Finca Santa Victoria	1	Enero	2023-10-01T00:00:00	2024-11-08T20:00:00	7	Dirección del viento	1.61
83163	7	Sololá	701	Sololá	4	Finca Santa Victoria	1	Enero	2023-10-01T00:00:00	2024-11-08T20:00:00	1	Precipitación	0
83164	7	Sololá	701	Sololá	4	Finca Santa Victoria	1	Enero	2023-10-01T00:00:00	2024-11-08T20:00:00	8	Radiación solar	0
83165	7	Sololá	701	Sololá	4	Finca Santa Victoria	1	Enero	2023-10-01T00:00:00	2024-11-08T21:00:00	2	Temperatura media	13.2
83166	7	Sololá	701	Sololá	4	Finca Santa Victoria	1	Enero	2023-10-01T00:00:00	2024-11-08T21:00:00	4	Temperatura máxima	13.3
83167	7	Sololá	701	Sololá	4	Finca Santa Victoria	1	Enero	2023-10-01T00:00:00	2024-11-08T21:00:00	3	Temperatura mínima	12.9
83168	7	Sololá	701	Sololá	4	Finca Santa Victoria	1	Enero	2023-10-01T00:00:00	2024-11-08T21:00:00	5	Humedad	80
83169	7	Sololá	701	Sololá	4	Finca Santa Victoria	1	Enero	2023-10-01T00:00:00	2024-11-08T21:00:00	6	Velocidad del viento	3.2
83170	7	Sololá	701	Sololá	4	Finca Santa Victoria	1	Enero	2023-10-01T00:00:00	2024-11-08T21:00:00	7	Dirección del viento	3.22
83171	7	Sololá	701	Sololá	4	Finca Santa Victoria	1	Enero	2023-10-01T00:00:00	2024-11-08T21:00:00	1	Precipitación	0
83172	7	Sololá	701	Sololá	4	Finca Santa Victoria	1	Enero	2023-10-01T00:00:00	2024-11-08T21:00:00	8	Radiación solar	0
83173	7	Sololá	701	Sololá	4	Finca Santa Victoria	1	Enero	2023-10-01T00:00:00	2024-11-08T22:00:00	2	Temperatura media	12.2
83174	7	Sololá	701	Sololá	4	Finca Santa Victoria	1	Enero	2023-10-01T00:00:00	2024-11-08T22:00:00	4	Temperatura máxima	13.3
83175	7	Sololá	701	Sololá	4	Finca Santa Victoria	1	Enero	2023-10-01T00:00:00	2024-11-08T22:00:00	3	Temperatura mínima	12.2
83176	7	Sololá	701	Sololá	4	Finca Santa Victoria	1	Enero	2023-10-01T00:00:00	2024-11-08T22:00:00	5	Humedad	86
83177	7	Sololá	701	Sololá	4	Finca Santa Victoria	1	Enero	2023-10-01T00:00:00	2024-11-08T22:00:00	6	Velocidad del viento	3.2
83178	7	Sololá	701	Sololá	4	Finca Santa Victoria	1	Enero	2023-10-01T00:00:00	2024-11-08T22:00:00	7	Dirección del viento	3.22
83179	7	Sololá	701	Sololá	4	Finca Santa Victoria	1	Enero	2023-10-01T00:00:00	2024-11-08T22:00:00	1	Precipitación	0
83180	7	Sololá	701	Sololá	4	Finca Santa Victoria	1	Enero	2023-10-01T00:00:00	2024-11-08T22:00:00	8	Radiación solar	0
83181	7	Sololá	701	Sololá	4	Finca Santa Victoria	1	Enero	2023-10-01T00:00:00	2024-11-08T23:00:00	2	Temperatura media	12.7
83182	7	Sololá	701	Sololá	4	Finca Santa Victoria	1	Enero	2023-10-01T00:00:00	2024-11-08T23:00:00	4	Temperatura máxima	12.7
83183	7	Sololá	701	Sololá	4	Finca Santa Victoria	1	Enero	2023-10-01T00:00:00	2024-11-08T23:00:00	3	Temperatura mínima	12.2
83184	7	Sololá	701	Sololá	4	Finca Santa Victoria	1	Enero	2023-10-01T00:00:00	2024-11-08T23:00:00	5	Humedad	83
83185	7	Sololá	701	Sololá	4	Finca Santa Victoria	1	Enero	2023-10-01T00:00:00	2024-11-08T23:00:00	6	Velocidad del viento	4.8
83186	7	Sololá	701	Sololá	4	Finca Santa Victoria	1	Enero	2023-10-01T00:00:00	2024-11-08T23:00:00	7	Dirección del viento	4.83
83187	7	Sololá	701	Sololá	4	Finca Santa Victoria	1	Enero	2023-10-01T00:00:00	2024-11-08T23:00:00	1	Precipitación	0
83188	7	Sololá	701	Sololá	4	Finca Santa Victoria	1	Enero	2023-10-01T00:00:00	2024-11-08T23:00:00	8	Radiación solar	0
83189	7	Sololá	701	Sololá	4	Finca Santa Victoria	1	Enero	2023-11-01T00:00:00	2024-11-08T00:00:00	2	Temperatura media	12.4
83190	7	Sololá	701	Sololá	4	Finca Santa Victoria	1	Enero	2023-11-01T00:00:00	2024-11-08T00:00:00	4	Temperatura máxima	12.7
83191	7	Sololá	701	Sololá	4	Finca Santa Victoria	1	Enero	2023-11-01T00:00:00	2024-11-08T00:00:00	3	Temperatura mínima	12.2
83192	7	Sololá	701	Sololá	4	Finca Santa Victoria	1	Enero	2023-11-01T00:00:00	2024-11-08T00:00:00	5	Humedad	86
83193	7	Sololá	701	Sololá	4	Finca Santa Victoria	1	Enero	2023-11-01T00:00:00	2024-11-08T00:00:00	6	Velocidad del viento	3.2
83194	7	Sololá	701	Sololá	4	Finca Santa Victoria	1	Enero	2023-11-01T00:00:00	2024-11-08T00:00:00	7	Dirección del viento	3.22
83195	7	Sololá	701	Sololá	4	Finca Santa Victoria	1	Enero	2023-11-01T00:00:00	2024-11-08T00:00:00	1	Precipitación	0
83196	7	Sololá	701	Sololá	4	Finca Santa Victoria	1	Enero	2023-11-01T00:00:00	2024-11-08T00:00:00	8	Radiación solar	0
83197	7	Sololá	701	Sololá	4	Finca Santa Victoria	1	Enero	2023-11-01T00:00:00	2024-11-08T01:00:00	2	Temperatura media	11.9
83198	7	Sololá	701	Sololá	4	Finca Santa Victoria	1	Enero	2023-11-01T00:00:00	2024-11-08T01:00:00	4	Temperatura máxima	12.4
83199	7	Sololá	701	Sololá	4	Finca Santa Victoria	1	Enero	2023-11-01T00:00:00	2024-11-08T01:00:00	3	Temperatura mínima	11.9
83200	7	Sololá	701	Sololá	4	Finca Santa Victoria	1	Enero	2023-11-01T00:00:00	2024-11-08T01:00:00	5	Humedad	88
83201	7	Sololá	701	Sololá	4	Finca Santa Victoria	1	Enero	2023-11-01T00:00:00	2024-11-08T01:00:00	6	Velocidad del viento	3.2
83202	7	Sololá	701	Sololá	4	Finca Santa Victoria	1	Enero	2023-11-01T00:00:00	2024-11-08T01:00:00	7	Dirección del viento	3.22
83203	7	Sololá	701	Sololá	4	Finca Santa Victoria	1	Enero	2023-11-01T00:00:00	2024-11-08T01:00:00	1	Precipitación	0
83204	7	Sololá	701	Sololá	4	Finca Santa Victoria	1	Enero	2023-11-01T00:00:00	2024-11-08T01:00:00	8	Radiación solar	0
83205	7	Sololá	701	Sololá	4	Finca Santa Victoria	1	Enero	2023-11-01T00:00:00	2024-11-08T02:00:00	2	Temperatura media	11.7
83206	7	Sololá	701	Sololá	4	Finca Santa Victoria	1	Enero	2023-11-01T00:00:00	2024-11-08T02:00:00	4	Temperatura máxima	11.9
83207	7	Sololá	701	Sololá	4	Finca Santa Victoria	1	Enero	2023-11-01T00:00:00	2024-11-08T02:00:00	3	Temperatura mínima	11.7
83208	7	Sololá	701	Sololá	4	Finca Santa Victoria	1	Enero	2023-11-01T00:00:00	2024-11-08T02:00:00	5	Humedad	91
83209	7	Sololá	701	Sololá	4	Finca Santa Victoria	1	Enero	2023-11-01T00:00:00	2024-11-08T02:00:00	6	Velocidad del viento	3.2
83210	7	Sololá	701	Sololá	4	Finca Santa Victoria	1	Enero	2023-11-01T00:00:00	2024-11-08T02:00:00	7	Dirección del viento	3.22
83211	7	Sololá	701	Sololá	4	Finca Santa Victoria	1	Enero	2023-11-01T00:00:00	2024-11-08T02:00:00	1	Precipitación	0
83212	7	Sololá	701	Sololá	4	Finca Santa Victoria	1	Enero	2023-11-01T00:00:00	2024-11-08T02:00:00	8	Radiación solar	0
83213	7	Sololá	701	Sololá	4	Finca Santa Victoria	1	Enero	2023-11-01T00:00:00	2024-11-08T03:00:00	2	Temperatura media	11.8
83214	7	Sololá	701	Sololá	4	Finca Santa Victoria	1	Enero	2023-11-01T00:00:00	2024-11-08T03:00:00	4	Temperatura máxima	12.1
83215	7	Sololá	701	Sololá	4	Finca Santa Victoria	1	Enero	2023-11-01T00:00:00	2024-11-08T03:00:00	3	Temperatura mínima	11.6
83216	7	Sololá	701	Sololá	4	Finca Santa Victoria	1	Enero	2023-11-01T00:00:00	2024-11-08T03:00:00	5	Humedad	88
83217	7	Sololá	701	Sololá	4	Finca Santa Victoria	1	Enero	2023-11-01T00:00:00	2024-11-08T03:00:00	6	Velocidad del viento	3.2
83218	7	Sololá	701	Sololá	4	Finca Santa Victoria	1	Enero	2023-11-01T00:00:00	2024-11-08T03:00:00	7	Dirección del viento	3.22
83219	7	Sololá	701	Sololá	4	Finca Santa Victoria	1	Enero	2023-11-01T00:00:00	2024-11-08T03:00:00	1	Precipitación	0
83220	7	Sololá	701	Sololá	4	Finca Santa Victoria	1	Enero	2023-11-01T00:00:00	2024-11-08T03:00:00	8	Radiación solar	0
83221	7	Sololá	701	Sololá	4	Finca Santa Victoria	1	Enero	2023-11-01T00:00:00	2024-11-08T04:00:00	2	Temperatura media	11.7
83222	7	Sololá	701	Sololá	4	Finca Santa Victoria	1	Enero	2023-11-01T00:00:00	2024-11-08T04:00:00	4	Temperatura máxima	11.9
83223	7	Sololá	701	Sololá	4	Finca Santa Victoria	1	Enero	2023-11-01T00:00:00	2024-11-08T04:00:00	3	Temperatura mínima	11.7
83224	7	Sololá	701	Sololá	4	Finca Santa Victoria	1	Enero	2023-11-01T00:00:00	2024-11-08T04:00:00	5	Humedad	89
83225	7	Sololá	701	Sololá	4	Finca Santa Victoria	1	Enero	2023-11-01T00:00:00	2024-11-08T04:00:00	6	Velocidad del viento	1.6
83226	7	Sololá	701	Sololá	4	Finca Santa Victoria	1	Enero	2023-11-01T00:00:00	2024-11-08T04:00:00	7	Dirección del viento	1.61
83227	7	Sololá	701	Sololá	4	Finca Santa Victoria	1	Enero	2023-11-01T00:00:00	2024-11-08T04:00:00	1	Precipitación	0
83228	7	Sololá	701	Sololá	4	Finca Santa Victoria	1	Enero	2023-11-01T00:00:00	2024-11-08T04:00:00	8	Radiación solar	0
83229	7	Sololá	701	Sololá	4	Finca Santa Victoria	1	Enero	2023-11-01T00:00:00	2024-11-08T05:00:00	2	Temperatura media	11.4
83230	7	Sololá	701	Sololá	4	Finca Santa Victoria	1	Enero	2023-11-01T00:00:00	2024-11-08T05:00:00	4	Temperatura máxima	11.8
83231	7	Sololá	701	Sololá	4	Finca Santa Victoria	1	Enero	2023-11-01T00:00:00	2024-11-08T05:00:00	3	Temperatura mínima	11.4
83232	7	Sololá	701	Sololá	4	Finca Santa Victoria	1	Enero	2023-11-01T00:00:00	2024-11-08T05:00:00	5	Humedad	88
83233	7	Sololá	701	Sololá	4	Finca Santa Victoria	1	Enero	2023-11-01T00:00:00	2024-11-08T05:00:00	6	Velocidad del viento	3.2
83234	7	Sololá	701	Sololá	4	Finca Santa Victoria	1	Enero	2023-11-01T00:00:00	2024-11-08T05:00:00	7	Dirección del viento	3.22
83235	7	Sololá	701	Sololá	4	Finca Santa Victoria	1	Enero	2023-11-01T00:00:00	2024-11-08T05:00:00	1	Precipitación	0
83236	7	Sololá	701	Sololá	4	Finca Santa Victoria	1	Enero	2023-11-01T00:00:00	2024-11-08T05:00:00	8	Radiación solar	0
83237	7	Sololá	701	Sololá	4	Finca Santa Victoria	1	Enero	2023-11-01T00:00:00	2024-11-08T06:00:00	2	Temperatura media	11.3
83238	7	Sololá	701	Sololá	4	Finca Santa Victoria	1	Enero	2023-11-01T00:00:00	2024-11-08T06:00:00	4	Temperatura máxima	11.6
83239	7	Sololá	701	Sololá	4	Finca Santa Victoria	1	Enero	2023-11-01T00:00:00	2024-11-08T06:00:00	3	Temperatura mínima	11.3
83240	7	Sololá	701	Sololá	4	Finca Santa Victoria	1	Enero	2023-11-01T00:00:00	2024-11-08T06:00:00	5	Humedad	89
83241	7	Sololá	701	Sololá	4	Finca Santa Victoria	1	Enero	2023-11-01T00:00:00	2024-11-08T06:00:00	6	Velocidad del viento	3.2
83242	7	Sololá	701	Sololá	4	Finca Santa Victoria	1	Enero	2023-11-01T00:00:00	2024-11-08T06:00:00	7	Dirección del viento	3.22
83243	7	Sololá	701	Sololá	4	Finca Santa Victoria	1	Enero	2023-11-01T00:00:00	2024-11-08T06:00:00	1	Precipitación	0
83244	7	Sololá	701	Sololá	4	Finca Santa Victoria	1	Enero	2023-11-01T00:00:00	2024-11-08T06:00:00	8	Radiación solar	0
83245	7	Sololá	701	Sololá	4	Finca Santa Victoria	1	Enero	2023-11-01T00:00:00	2024-11-08T07:00:00	2	Temperatura media	11.2
83246	7	Sololá	701	Sololá	4	Finca Santa Victoria	1	Enero	2023-11-01T00:00:00	2024-11-08T07:00:00	4	Temperatura máxima	11.4
83247	7	Sololá	701	Sololá	4	Finca Santa Victoria	1	Enero	2023-11-01T00:00:00	2024-11-08T07:00:00	3	Temperatura mínima	11.2
83248	7	Sololá	701	Sololá	4	Finca Santa Victoria	1	Enero	2023-11-01T00:00:00	2024-11-08T07:00:00	5	Humedad	89
83249	7	Sololá	701	Sololá	4	Finca Santa Victoria	1	Enero	2023-11-01T00:00:00	2024-11-08T07:00:00	6	Velocidad del viento	3.2
83250	7	Sololá	701	Sololá	4	Finca Santa Victoria	1	Enero	2023-11-01T00:00:00	2024-11-08T07:00:00	7	Dirección del viento	3.22
83251	7	Sololá	701	Sololá	4	Finca Santa Victoria	1	Enero	2023-11-01T00:00:00	2024-11-08T07:00:00	1	Precipitación	0
83252	7	Sololá	701	Sololá	4	Finca Santa Victoria	1	Enero	2023-11-01T00:00:00	2024-11-08T07:00:00	8	Radiación solar	4
83253	7	Sololá	701	Sololá	4	Finca Santa Victoria	1	Enero	2023-11-01T00:00:00	2024-11-08T08:00:00	2	Temperatura media	12.8
83254	7	Sololá	701	Sololá	4	Finca Santa Victoria	1	Enero	2023-11-01T00:00:00	2024-11-08T08:00:00	4	Temperatura máxima	12.9
83255	7	Sololá	701	Sololá	4	Finca Santa Victoria	1	Enero	2023-11-01T00:00:00	2024-11-08T08:00:00	3	Temperatura mínima	11.2
83256	7	Sololá	701	Sololá	4	Finca Santa Victoria	1	Enero	2023-11-01T00:00:00	2024-11-08T08:00:00	5	Humedad	81
83257	7	Sololá	701	Sololá	4	Finca Santa Victoria	1	Enero	2023-11-01T00:00:00	2024-11-08T08:00:00	6	Velocidad del viento	3.2
83258	7	Sololá	701	Sololá	4	Finca Santa Victoria	1	Enero	2023-11-01T00:00:00	2024-11-08T08:00:00	7	Dirección del viento	3.22
83259	7	Sololá	701	Sololá	4	Finca Santa Victoria	1	Enero	2023-11-01T00:00:00	2024-11-08T08:00:00	1	Precipitación	0
83260	7	Sololá	701	Sololá	4	Finca Santa Victoria	1	Enero	2023-11-01T00:00:00	2024-11-08T08:00:00	8	Radiación solar	30
83261	7	Sololá	701	Sololá	4	Finca Santa Victoria	1	Enero	2023-11-01T00:00:00	2024-11-08T09:00:00	2	Temperatura media	15.4
83262	7	Sololá	701	Sololá	4	Finca Santa Victoria	1	Enero	2023-11-01T00:00:00	2024-11-08T09:00:00	4	Temperatura máxima	15.4
83263	7	Sololá	701	Sololá	4	Finca Santa Victoria	1	Enero	2023-11-01T00:00:00	2024-11-08T09:00:00	3	Temperatura mínima	12.9
83264	7	Sololá	701	Sololá	4	Finca Santa Victoria	1	Enero	2023-11-01T00:00:00	2024-11-08T09:00:00	5	Humedad	74
83265	7	Sololá	701	Sololá	4	Finca Santa Victoria	1	Enero	2023-11-01T00:00:00	2024-11-08T09:00:00	6	Velocidad del viento	3.2
83266	7	Sololá	701	Sololá	4	Finca Santa Victoria	1	Enero	2023-11-01T00:00:00	2024-11-08T09:00:00	7	Dirección del viento	3.22
83267	7	Sololá	701	Sololá	4	Finca Santa Victoria	1	Enero	2023-11-01T00:00:00	2024-11-08T09:00:00	1	Precipitación	0
83268	7	Sololá	701	Sololá	4	Finca Santa Victoria	1	Enero	2023-11-01T00:00:00	2024-11-08T09:00:00	8	Radiación solar	208
83269	7	Sololá	701	Sololá	4	Finca Santa Victoria	1	Enero	2023-11-01T00:00:00	2024-11-08T10:00:00	2	Temperatura media	16.9
83270	7	Sololá	701	Sololá	4	Finca Santa Victoria	1	Enero	2023-11-01T00:00:00	2024-11-08T10:00:00	4	Temperatura máxima	17.1
83271	7	Sololá	701	Sololá	4	Finca Santa Victoria	1	Enero	2023-11-01T00:00:00	2024-11-08T10:00:00	3	Temperatura mínima	15.4
83272	7	Sololá	701	Sololá	4	Finca Santa Victoria	1	Enero	2023-11-01T00:00:00	2024-11-08T10:00:00	5	Humedad	67
83273	7	Sololá	701	Sololá	4	Finca Santa Victoria	1	Enero	2023-11-01T00:00:00	2024-11-08T10:00:00	6	Velocidad del viento	3.2
83274	7	Sololá	701	Sololá	4	Finca Santa Victoria	1	Enero	2023-11-01T00:00:00	2024-11-08T10:00:00	7	Dirección del viento	3.22
83275	7	Sololá	701	Sololá	4	Finca Santa Victoria	1	Enero	2023-11-01T00:00:00	2024-11-08T10:00:00	1	Precipitación	0
83276	7	Sololá	701	Sololá	4	Finca Santa Victoria	1	Enero	2023-11-01T00:00:00	2024-11-08T10:00:00	8	Radiación solar	541
83277	7	Sololá	701	Sololá	4	Finca Santa Victoria	1	Enero	2023-11-01T00:00:00	2024-11-08T11:00:00	2	Temperatura media	17.9
83278	7	Sololá	701	Sololá	4	Finca Santa Victoria	1	Enero	2023-11-01T00:00:00	2024-11-08T11:00:00	4	Temperatura máxima	18.2
83279	7	Sololá	701	Sololá	4	Finca Santa Victoria	1	Enero	2023-11-01T00:00:00	2024-11-08T11:00:00	3	Temperatura mínima	16.7
83280	7	Sololá	701	Sololá	4	Finca Santa Victoria	1	Enero	2023-11-01T00:00:00	2024-11-08T11:00:00	5	Humedad	65
83281	7	Sololá	701	Sololá	4	Finca Santa Victoria	1	Enero	2023-11-01T00:00:00	2024-11-08T11:00:00	6	Velocidad del viento	4.8
83282	7	Sololá	701	Sololá	4	Finca Santa Victoria	1	Enero	2023-11-01T00:00:00	2024-11-08T11:00:00	7	Dirección del viento	4.83
83283	7	Sololá	701	Sololá	4	Finca Santa Victoria	1	Enero	2023-11-01T00:00:00	2024-11-08T11:00:00	1	Precipitación	0
83284	7	Sololá	701	Sololá	4	Finca Santa Victoria	1	Enero	2023-11-01T00:00:00	2024-11-08T11:00:00	8	Radiación solar	765
83285	7	Sololá	701	Sololá	4	Finca Santa Victoria	1	Enero	2023-11-01T00:00:00	2024-11-08T12:00:00	2	Temperatura media	19.1
83286	7	Sololá	701	Sololá	4	Finca Santa Victoria	1	Enero	2023-11-01T00:00:00	2024-11-08T12:00:00	4	Temperatura máxima	19.3
83287	7	Sololá	701	Sololá	4	Finca Santa Victoria	1	Enero	2023-11-01T00:00:00	2024-11-08T12:00:00	3	Temperatura mínima	17.9
83288	7	Sololá	701	Sololá	4	Finca Santa Victoria	1	Enero	2023-11-01T00:00:00	2024-11-08T12:00:00	5	Humedad	58
83289	7	Sololá	701	Sololá	4	Finca Santa Victoria	1	Enero	2023-11-01T00:00:00	2024-11-08T12:00:00	6	Velocidad del viento	4.8
83290	7	Sololá	701	Sololá	4	Finca Santa Victoria	1	Enero	2023-11-01T00:00:00	2024-11-08T12:00:00	7	Dirección del viento	4.83
83291	7	Sololá	701	Sololá	4	Finca Santa Victoria	1	Enero	2023-11-01T00:00:00	2024-11-08T12:00:00	1	Precipitación	0
83292	7	Sololá	701	Sololá	4	Finca Santa Victoria	1	Enero	2023-11-01T00:00:00	2024-11-08T12:00:00	8	Radiación solar	850
83293	7	Sololá	701	Sololá	4	Finca Santa Victoria	1	Enero	2023-11-01T00:00:00	2024-11-08T13:00:00	2	Temperatura media	19.8
83294	7	Sololá	701	Sololá	4	Finca Santa Victoria	1	Enero	2023-11-01T00:00:00	2024-11-08T13:00:00	4	Temperatura máxima	20
83295	7	Sololá	701	Sololá	4	Finca Santa Victoria	1	Enero	2023-11-01T00:00:00	2024-11-08T13:00:00	3	Temperatura mínima	19.1
83296	7	Sololá	701	Sololá	4	Finca Santa Victoria	1	Enero	2023-11-01T00:00:00	2024-11-08T13:00:00	5	Humedad	57
83297	7	Sololá	701	Sololá	4	Finca Santa Victoria	1	Enero	2023-11-01T00:00:00	2024-11-08T13:00:00	6	Velocidad del viento	3.2
83298	7	Sololá	701	Sololá	4	Finca Santa Victoria	1	Enero	2023-11-01T00:00:00	2024-11-08T13:00:00	7	Dirección del viento	3.22
83299	7	Sololá	701	Sololá	4	Finca Santa Victoria	1	Enero	2023-11-01T00:00:00	2024-11-08T13:00:00	1	Precipitación	0
83300	7	Sololá	701	Sololá	4	Finca Santa Victoria	1	Enero	2023-11-01T00:00:00	2024-11-08T13:00:00	8	Radiación solar	884
83301	7	Sololá	701	Sololá	4	Finca Santa Victoria	1	Enero	2023-11-01T00:00:00	2024-11-08T14:00:00	2	Temperatura media	18.2
83302	7	Sololá	701	Sololá	4	Finca Santa Victoria	1	Enero	2023-11-01T00:00:00	2024-11-08T14:00:00	4	Temperatura máxima	20.4
83303	7	Sololá	701	Sololá	4	Finca Santa Victoria	1	Enero	2023-11-01T00:00:00	2024-11-08T14:00:00	3	Temperatura mínima	18.2
83304	7	Sololá	701	Sololá	4	Finca Santa Victoria	1	Enero	2023-11-01T00:00:00	2024-11-08T14:00:00	5	Humedad	63
83305	7	Sololá	701	Sololá	4	Finca Santa Victoria	1	Enero	2023-11-01T00:00:00	2024-11-08T14:00:00	6	Velocidad del viento	3.2
83306	7	Sololá	701	Sololá	4	Finca Santa Victoria	1	Enero	2023-11-01T00:00:00	2024-11-08T14:00:00	7	Dirección del viento	3.22
83307	7	Sololá	701	Sololá	4	Finca Santa Victoria	1	Enero	2023-11-01T00:00:00	2024-11-08T14:00:00	1	Precipitación	0
83308	7	Sololá	701	Sololá	4	Finca Santa Victoria	1	Enero	2023-11-01T00:00:00	2024-11-08T14:00:00	8	Radiación solar	396
83309	7	Sololá	701	Sololá	4	Finca Santa Victoria	1	Enero	2023-11-01T00:00:00	2024-11-08T15:00:00	2	Temperatura media	16.5
83310	7	Sololá	701	Sololá	4	Finca Santa Victoria	1	Enero	2023-11-01T00:00:00	2024-11-08T15:00:00	4	Temperatura máxima	18.3
83311	7	Sololá	701	Sololá	4	Finca Santa Victoria	1	Enero	2023-11-01T00:00:00	2024-11-08T15:00:00	3	Temperatura mínima	16.5
83312	7	Sololá	701	Sololá	4	Finca Santa Victoria	1	Enero	2023-11-01T00:00:00	2024-11-08T15:00:00	5	Humedad	85
83313	7	Sololá	701	Sololá	4	Finca Santa Victoria	1	Enero	2023-11-01T00:00:00	2024-11-08T15:00:00	6	Velocidad del viento	1.6
83314	7	Sololá	701	Sololá	4	Finca Santa Victoria	1	Enero	2023-11-01T00:00:00	2024-11-08T15:00:00	7	Dirección del viento	1.61
83315	7	Sololá	701	Sololá	4	Finca Santa Victoria	1	Enero	2023-11-01T00:00:00	2024-11-08T15:00:00	1	Precipitación	0
83316	7	Sololá	701	Sololá	4	Finca Santa Victoria	1	Enero	2023-11-01T00:00:00	2024-11-08T15:00:00	8	Radiación solar	134
83317	7	Sololá	701	Sololá	4	Finca Santa Victoria	1	Enero	2023-11-01T00:00:00	2024-11-08T16:00:00	2	Temperatura media	15.9
83318	7	Sololá	701	Sololá	4	Finca Santa Victoria	1	Enero	2023-11-01T00:00:00	2024-11-08T16:00:00	4	Temperatura máxima	16.5
83319	7	Sololá	701	Sololá	4	Finca Santa Victoria	1	Enero	2023-11-01T00:00:00	2024-11-08T16:00:00	3	Temperatura mínima	15.9
83320	7	Sololá	701	Sololá	4	Finca Santa Victoria	1	Enero	2023-11-01T00:00:00	2024-11-08T16:00:00	5	Humedad	78
83321	7	Sololá	701	Sololá	4	Finca Santa Victoria	1	Enero	2023-11-01T00:00:00	2024-11-08T16:00:00	6	Velocidad del viento	1.6
83322	7	Sololá	701	Sololá	4	Finca Santa Victoria	1	Enero	2023-11-01T00:00:00	2024-11-08T16:00:00	7	Dirección del viento	1.61
83323	7	Sololá	701	Sololá	4	Finca Santa Victoria	1	Enero	2023-11-01T00:00:00	2024-11-08T16:00:00	1	Precipitación	0
83324	7	Sololá	701	Sololá	4	Finca Santa Victoria	1	Enero	2023-11-01T00:00:00	2024-11-08T16:00:00	8	Radiación solar	67
83325	7	Sololá	701	Sololá	4	Finca Santa Victoria	1	Enero	2023-11-01T00:00:00	2024-11-08T17:00:00	2	Temperatura media	17.3
83326	7	Sololá	701	Sololá	4	Finca Santa Victoria	1	Enero	2023-11-01T00:00:00	2024-11-08T17:00:00	4	Temperatura máxima	17.4
83327	7	Sololá	701	Sololá	4	Finca Santa Victoria	1	Enero	2023-11-01T00:00:00	2024-11-08T17:00:00	3	Temperatura mínima	15.2
83328	7	Sololá	701	Sololá	4	Finca Santa Victoria	1	Enero	2023-11-01T00:00:00	2024-11-08T17:00:00	5	Humedad	66
83329	7	Sololá	701	Sololá	4	Finca Santa Victoria	1	Enero	2023-11-01T00:00:00	2024-11-08T17:00:00	6	Velocidad del viento	1.6
83330	7	Sololá	701	Sololá	4	Finca Santa Victoria	1	Enero	2023-11-01T00:00:00	2024-11-08T17:00:00	7	Dirección del viento	1.61
83331	7	Sololá	701	Sololá	4	Finca Santa Victoria	1	Enero	2023-11-01T00:00:00	2024-11-08T17:00:00	1	Precipitación	0
83332	7	Sololá	701	Sololá	4	Finca Santa Victoria	1	Enero	2023-11-01T00:00:00	2024-11-08T17:00:00	8	Radiación solar	113
83333	7	Sololá	701	Sololá	4	Finca Santa Victoria	1	Enero	2023-11-01T00:00:00	2024-11-08T18:00:00	2	Temperatura media	13.3
83334	7	Sololá	701	Sololá	4	Finca Santa Victoria	1	Enero	2023-11-01T00:00:00	2024-11-08T18:00:00	4	Temperatura máxima	17.2
83335	7	Sololá	701	Sololá	4	Finca Santa Victoria	1	Enero	2023-11-01T00:00:00	2024-11-08T18:00:00	3	Temperatura mínima	13.3
83336	7	Sololá	701	Sololá	4	Finca Santa Victoria	1	Enero	2023-11-01T00:00:00	2024-11-08T18:00:00	5	Humedad	80
83337	7	Sololá	701	Sololá	4	Finca Santa Victoria	1	Enero	2023-11-01T00:00:00	2024-11-08T18:00:00	6	Velocidad del viento	1.6
83338	7	Sololá	701	Sololá	4	Finca Santa Victoria	1	Enero	2023-11-01T00:00:00	2024-11-08T18:00:00	7	Dirección del viento	1.61
83339	7	Sololá	701	Sololá	4	Finca Santa Victoria	1	Enero	2023-11-01T00:00:00	2024-11-08T18:00:00	1	Precipitación	0
83340	7	Sololá	701	Sololá	4	Finca Santa Victoria	1	Enero	2023-11-01T00:00:00	2024-11-08T18:00:00	8	Radiación solar	10
83341	7	Sololá	701	Sololá	4	Finca Santa Victoria	1	Enero	2023-11-01T00:00:00	2024-11-08T19:00:00	2	Temperatura media	12.9
83342	7	Sololá	701	Sololá	4	Finca Santa Victoria	1	Enero	2023-11-01T00:00:00	2024-11-08T19:00:00	4	Temperatura máxima	13.3
83343	7	Sololá	701	Sololá	4	Finca Santa Victoria	1	Enero	2023-11-01T00:00:00	2024-11-08T19:00:00	3	Temperatura mínima	12.9
83344	7	Sololá	701	Sololá	4	Finca Santa Victoria	1	Enero	2023-11-01T00:00:00	2024-11-08T19:00:00	5	Humedad	82
83345	7	Sololá	701	Sololá	4	Finca Santa Victoria	1	Enero	2023-11-01T00:00:00	2024-11-08T19:00:00	6	Velocidad del viento	3.2
83346	7	Sololá	701	Sololá	4	Finca Santa Victoria	1	Enero	2023-11-01T00:00:00	2024-11-08T19:00:00	7	Dirección del viento	3.22
83347	7	Sololá	701	Sololá	4	Finca Santa Victoria	1	Enero	2023-11-01T00:00:00	2024-11-08T19:00:00	1	Precipitación	0
83348	7	Sololá	701	Sololá	4	Finca Santa Victoria	1	Enero	2023-11-01T00:00:00	2024-11-08T19:00:00	8	Radiación solar	0
83349	7	Sololá	701	Sololá	4	Finca Santa Victoria	1	Enero	2023-11-01T00:00:00	2024-11-08T20:00:00	2	Temperatura media	12.8
83350	7	Sololá	701	Sololá	4	Finca Santa Victoria	1	Enero	2023-11-01T00:00:00	2024-11-08T20:00:00	4	Temperatura máxima	12.9
83351	7	Sololá	701	Sololá	4	Finca Santa Victoria	1	Enero	2023-11-01T00:00:00	2024-11-08T20:00:00	3	Temperatura mínima	12.4
83352	7	Sololá	701	Sololá	4	Finca Santa Victoria	1	Enero	2023-11-01T00:00:00	2024-11-08T20:00:00	5	Humedad	83
83353	7	Sololá	701	Sololá	4	Finca Santa Victoria	1	Enero	2023-11-01T00:00:00	2024-11-08T20:00:00	6	Velocidad del viento	1.6
83354	7	Sololá	701	Sololá	4	Finca Santa Victoria	1	Enero	2023-11-01T00:00:00	2024-11-08T20:00:00	7	Dirección del viento	1.61
83355	7	Sololá	701	Sololá	4	Finca Santa Victoria	1	Enero	2023-11-01T00:00:00	2024-11-08T20:00:00	1	Precipitación	0
83356	7	Sololá	701	Sololá	4	Finca Santa Victoria	1	Enero	2023-11-01T00:00:00	2024-11-08T20:00:00	8	Radiación solar	0
83357	7	Sololá	701	Sololá	4	Finca Santa Victoria	1	Enero	2023-11-01T00:00:00	2024-11-08T21:00:00	2	Temperatura media	12.5
83358	7	Sololá	701	Sololá	4	Finca Santa Victoria	1	Enero	2023-11-01T00:00:00	2024-11-08T21:00:00	4	Temperatura máxima	12.9
83359	7	Sololá	701	Sololá	4	Finca Santa Victoria	1	Enero	2023-11-01T00:00:00	2024-11-08T21:00:00	3	Temperatura mínima	12.5
83360	7	Sololá	701	Sololá	4	Finca Santa Victoria	1	Enero	2023-11-01T00:00:00	2024-11-08T21:00:00	5	Humedad	85
83361	7	Sololá	701	Sololá	4	Finca Santa Victoria	1	Enero	2023-11-01T00:00:00	2024-11-08T21:00:00	6	Velocidad del viento	1.6
83362	7	Sololá	701	Sololá	4	Finca Santa Victoria	1	Enero	2023-11-01T00:00:00	2024-11-08T21:00:00	7	Dirección del viento	1.61
83363	7	Sololá	701	Sololá	4	Finca Santa Victoria	1	Enero	2023-11-01T00:00:00	2024-11-08T21:00:00	1	Precipitación	0
83364	7	Sololá	701	Sololá	4	Finca Santa Victoria	1	Enero	2023-11-01T00:00:00	2024-11-08T21:00:00	8	Radiación solar	0
83365	7	Sololá	701	Sololá	4	Finca Santa Victoria	1	Enero	2023-11-01T00:00:00	2024-11-08T22:00:00	2	Temperatura media	11.3
83366	7	Sololá	701	Sololá	4	Finca Santa Victoria	1	Enero	2023-11-01T00:00:00	2024-11-08T22:00:00	4	Temperatura máxima	12.5
83367	7	Sololá	701	Sololá	4	Finca Santa Victoria	1	Enero	2023-11-01T00:00:00	2024-11-08T22:00:00	3	Temperatura mínima	11.3
83368	7	Sololá	701	Sololá	4	Finca Santa Victoria	1	Enero	2023-11-01T00:00:00	2024-11-08T22:00:00	5	Humedad	88
83369	7	Sololá	701	Sololá	4	Finca Santa Victoria	1	Enero	2023-11-01T00:00:00	2024-11-08T22:00:00	6	Velocidad del viento	0
83370	7	Sololá	701	Sololá	4	Finca Santa Victoria	1	Enero	2023-11-01T00:00:00	2024-11-08T22:00:00	7	Dirección del viento	0
83371	7	Sololá	701	Sololá	4	Finca Santa Victoria	1	Enero	2023-11-01T00:00:00	2024-11-08T22:00:00	1	Precipitación	0
83372	7	Sololá	701	Sololá	4	Finca Santa Victoria	1	Enero	2023-11-01T00:00:00	2024-11-08T22:00:00	8	Radiación solar	0
83373	7	Sololá	701	Sololá	4	Finca Santa Victoria	1	Enero	2023-11-01T00:00:00	2024-11-08T23:00:00	2	Temperatura media	10.8
83374	7	Sololá	701	Sololá	4	Finca Santa Victoria	1	Enero	2023-11-01T00:00:00	2024-11-08T23:00:00	4	Temperatura máxima	11.3
83375	7	Sololá	701	Sololá	4	Finca Santa Victoria	1	Enero	2023-11-01T00:00:00	2024-11-08T23:00:00	3	Temperatura mínima	10.8
83376	7	Sololá	701	Sololá	4	Finca Santa Victoria	1	Enero	2023-11-01T00:00:00	2024-11-08T23:00:00	5	Humedad	89
83377	7	Sololá	701	Sololá	4	Finca Santa Victoria	1	Enero	2023-11-01T00:00:00	2024-11-08T23:00:00	6	Velocidad del viento	0
83378	7	Sololá	701	Sololá	4	Finca Santa Victoria	1	Enero	2023-11-01T00:00:00	2024-11-08T23:00:00	7	Dirección del viento	0
83379	7	Sololá	701	Sololá	4	Finca Santa Victoria	1	Enero	2023-11-01T00:00:00	2024-11-08T23:00:00	1	Precipitación	0
83380	7	Sololá	701	Sololá	4	Finca Santa Victoria	1	Enero	2023-11-01T00:00:00	2024-11-08T23:00:00	8	Radiación solar	0
83381	7	Sololá	701	Sololá	4	Finca Santa Victoria	1	Enero	2023-12-01T00:00:00	2024-11-08T00:00:00	2	Temperatura media	10.6
83382	7	Sololá	701	Sololá	4	Finca Santa Victoria	1	Enero	2023-12-01T00:00:00	2024-11-08T00:00:00	4	Temperatura máxima	11
83383	7	Sololá	701	Sololá	4	Finca Santa Victoria	1	Enero	2023-12-01T00:00:00	2024-11-08T00:00:00	3	Temperatura mínima	10.5
83384	7	Sololá	701	Sololá	4	Finca Santa Victoria	1	Enero	2023-12-01T00:00:00	2024-11-08T00:00:00	5	Humedad	90
83385	7	Sololá	701	Sololá	4	Finca Santa Victoria	1	Enero	2023-12-01T00:00:00	2024-11-08T00:00:00	6	Velocidad del viento	0
83386	7	Sololá	701	Sololá	4	Finca Santa Victoria	1	Enero	2023-12-01T00:00:00	2024-11-08T00:00:00	7	Dirección del viento	0
83387	7	Sololá	701	Sololá	4	Finca Santa Victoria	1	Enero	2023-12-01T00:00:00	2024-11-08T00:00:00	1	Precipitación	0
83388	7	Sololá	701	Sololá	4	Finca Santa Victoria	1	Enero	2023-12-01T00:00:00	2024-11-08T00:00:00	8	Radiación solar	0
83389	7	Sololá	701	Sololá	4	Finca Santa Victoria	1	Enero	2023-12-01T00:00:00	2024-11-08T01:00:00	2	Temperatura media	10.5
83390	7	Sololá	701	Sololá	4	Finca Santa Victoria	1	Enero	2023-12-01T00:00:00	2024-11-08T01:00:00	4	Temperatura máxima	10.8
83391	7	Sololá	701	Sololá	4	Finca Santa Victoria	1	Enero	2023-12-01T00:00:00	2024-11-08T01:00:00	3	Temperatura mínima	10.5
83392	7	Sololá	701	Sololá	4	Finca Santa Victoria	1	Enero	2023-12-01T00:00:00	2024-11-08T01:00:00	5	Humedad	88
83393	7	Sololá	701	Sololá	4	Finca Santa Victoria	1	Enero	2023-12-01T00:00:00	2024-11-08T01:00:00	6	Velocidad del viento	0
83394	7	Sololá	701	Sololá	4	Finca Santa Victoria	1	Enero	2023-12-01T00:00:00	2024-11-08T01:00:00	7	Dirección del viento	0
83395	7	Sololá	701	Sololá	4	Finca Santa Victoria	1	Enero	2023-12-01T00:00:00	2024-11-08T01:00:00	1	Precipitación	0
83396	7	Sololá	701	Sololá	4	Finca Santa Victoria	1	Enero	2023-12-01T00:00:00	2024-11-08T01:00:00	8	Radiación solar	0
83397	7	Sololá	701	Sololá	4	Finca Santa Victoria	1	Enero	2023-12-01T00:00:00	2024-11-08T02:00:00	2	Temperatura media	10.6
83398	7	Sololá	701	Sololá	4	Finca Santa Victoria	1	Enero	2023-12-01T00:00:00	2024-11-08T02:00:00	4	Temperatura máxima	11
83399	7	Sololá	701	Sololá	4	Finca Santa Victoria	1	Enero	2023-12-01T00:00:00	2024-11-08T02:00:00	3	Temperatura mínima	10.5
83400	7	Sololá	701	Sololá	4	Finca Santa Victoria	1	Enero	2023-12-01T00:00:00	2024-11-08T02:00:00	5	Humedad	87
83401	7	Sololá	701	Sololá	4	Finca Santa Victoria	1	Enero	2023-12-01T00:00:00	2024-11-08T02:00:00	6	Velocidad del viento	0
83402	7	Sololá	701	Sololá	4	Finca Santa Victoria	1	Enero	2023-12-01T00:00:00	2024-11-08T02:00:00	7	Dirección del viento	0
83403	7	Sololá	701	Sololá	4	Finca Santa Victoria	1	Enero	2023-12-01T00:00:00	2024-11-08T02:00:00	1	Precipitación	0
83404	7	Sololá	701	Sololá	4	Finca Santa Victoria	1	Enero	2023-12-01T00:00:00	2024-11-08T02:00:00	8	Radiación solar	0
83405	7	Sololá	701	Sololá	4	Finca Santa Victoria	1	Enero	2023-12-01T00:00:00	2024-11-08T03:00:00	2	Temperatura media	9.8
83406	7	Sololá	701	Sololá	4	Finca Santa Victoria	1	Enero	2023-12-01T00:00:00	2024-11-08T03:00:00	4	Temperatura máxima	10.6
83407	7	Sololá	701	Sololá	4	Finca Santa Victoria	1	Enero	2023-12-01T00:00:00	2024-11-08T03:00:00	3	Temperatura mínima	9.7
83408	7	Sololá	701	Sololá	4	Finca Santa Victoria	1	Enero	2023-12-01T00:00:00	2024-11-08T03:00:00	5	Humedad	91
83409	7	Sololá	701	Sololá	4	Finca Santa Victoria	1	Enero	2023-12-01T00:00:00	2024-11-08T03:00:00	6	Velocidad del viento	0
83410	7	Sololá	701	Sololá	4	Finca Santa Victoria	1	Enero	2023-12-01T00:00:00	2024-11-08T03:00:00	7	Dirección del viento	0
83411	7	Sololá	701	Sololá	4	Finca Santa Victoria	1	Enero	2023-12-01T00:00:00	2024-11-08T03:00:00	1	Precipitación	0
83412	7	Sololá	701	Sololá	4	Finca Santa Victoria	1	Enero	2023-12-01T00:00:00	2024-11-08T03:00:00	8	Radiación solar	0
83413	7	Sololá	701	Sololá	4	Finca Santa Victoria	1	Enero	2023-12-01T00:00:00	2024-11-08T04:00:00	2	Temperatura media	9.8
83414	7	Sololá	701	Sololá	4	Finca Santa Victoria	1	Enero	2023-12-01T00:00:00	2024-11-08T04:00:00	4	Temperatura máxima	9.9
83415	7	Sololá	701	Sololá	4	Finca Santa Victoria	1	Enero	2023-12-01T00:00:00	2024-11-08T04:00:00	3	Temperatura mínima	9.6
83416	7	Sololá	701	Sololá	4	Finca Santa Victoria	1	Enero	2023-12-01T00:00:00	2024-11-08T04:00:00	5	Humedad	92
83417	7	Sololá	701	Sololá	4	Finca Santa Victoria	1	Enero	2023-12-01T00:00:00	2024-11-08T04:00:00	6	Velocidad del viento	0
83418	7	Sololá	701	Sololá	4	Finca Santa Victoria	1	Enero	2023-12-01T00:00:00	2024-11-08T04:00:00	7	Dirección del viento	0
83419	7	Sololá	701	Sololá	4	Finca Santa Victoria	1	Enero	2023-12-01T00:00:00	2024-11-08T04:00:00	1	Precipitación	0
83420	7	Sololá	701	Sololá	4	Finca Santa Victoria	1	Enero	2023-12-01T00:00:00	2024-11-08T04:00:00	8	Radiación solar	0
83421	7	Sololá	701	Sololá	4	Finca Santa Victoria	1	Enero	2023-12-01T00:00:00	2024-11-08T05:00:00	2	Temperatura media	9.6
83422	7	Sololá	701	Sololá	4	Finca Santa Victoria	1	Enero	2023-12-01T00:00:00	2024-11-08T05:00:00	4	Temperatura máxima	9.8
83423	7	Sololá	701	Sololá	4	Finca Santa Victoria	1	Enero	2023-12-01T00:00:00	2024-11-08T05:00:00	3	Temperatura mínima	9.6
83424	7	Sololá	701	Sololá	4	Finca Santa Victoria	1	Enero	2023-12-01T00:00:00	2024-11-08T05:00:00	5	Humedad	93
83425	7	Sololá	701	Sololá	4	Finca Santa Victoria	1	Enero	2023-12-01T00:00:00	2024-11-08T05:00:00	6	Velocidad del viento	1.6
83426	7	Sololá	701	Sololá	4	Finca Santa Victoria	1	Enero	2023-12-01T00:00:00	2024-11-08T05:00:00	7	Dirección del viento	1.61
83427	7	Sololá	701	Sololá	4	Finca Santa Victoria	1	Enero	2023-12-01T00:00:00	2024-11-08T05:00:00	1	Precipitación	0
83428	7	Sololá	701	Sololá	4	Finca Santa Victoria	1	Enero	2023-12-01T00:00:00	2024-11-08T05:00:00	8	Radiación solar	0
83429	7	Sololá	701	Sololá	4	Finca Santa Victoria	1	Enero	2023-12-01T00:00:00	2024-11-08T06:00:00	2	Temperatura media	9.2
83430	7	Sololá	701	Sololá	4	Finca Santa Victoria	1	Enero	2023-12-01T00:00:00	2024-11-08T06:00:00	4	Temperatura máxima	9.6
83431	7	Sololá	701	Sololá	4	Finca Santa Victoria	1	Enero	2023-12-01T00:00:00	2024-11-08T06:00:00	3	Temperatura mínima	9.1
83432	7	Sololá	701	Sololá	4	Finca Santa Victoria	1	Enero	2023-12-01T00:00:00	2024-11-08T06:00:00	5	Humedad	95
83433	7	Sololá	701	Sololá	4	Finca Santa Victoria	1	Enero	2023-12-01T00:00:00	2024-11-08T06:00:00	6	Velocidad del viento	1.6
83434	7	Sololá	701	Sololá	4	Finca Santa Victoria	1	Enero	2023-12-01T00:00:00	2024-11-08T06:00:00	7	Dirección del viento	1.61
83435	7	Sololá	701	Sololá	4	Finca Santa Victoria	1	Enero	2023-12-01T00:00:00	2024-11-08T06:00:00	1	Precipitación	0
83436	7	Sololá	701	Sololá	4	Finca Santa Victoria	1	Enero	2023-12-01T00:00:00	2024-11-08T06:00:00	8	Radiación solar	0
83437	7	Sololá	701	Sololá	4	Finca Santa Victoria	1	Enero	2023-12-01T00:00:00	2024-11-08T07:00:00	2	Temperatura media	9.2
83438	7	Sololá	701	Sololá	4	Finca Santa Victoria	1	Enero	2023-12-01T00:00:00	2024-11-08T07:00:00	4	Temperatura máxima	9.2
83439	7	Sololá	701	Sololá	4	Finca Santa Victoria	1	Enero	2023-12-01T00:00:00	2024-11-08T07:00:00	3	Temperatura mínima	8.7
83440	7	Sololá	701	Sololá	4	Finca Santa Victoria	1	Enero	2023-12-01T00:00:00	2024-11-08T07:00:00	5	Humedad	92
83441	7	Sololá	701	Sololá	4	Finca Santa Victoria	1	Enero	2023-12-01T00:00:00	2024-11-08T07:00:00	6	Velocidad del viento	0
83442	7	Sololá	701	Sololá	4	Finca Santa Victoria	1	Enero	2023-12-01T00:00:00	2024-11-08T07:00:00	7	Dirección del viento	0
83443	7	Sololá	701	Sololá	4	Finca Santa Victoria	1	Enero	2023-12-01T00:00:00	2024-11-08T07:00:00	1	Precipitación	0
83444	7	Sololá	701	Sololá	4	Finca Santa Victoria	1	Enero	2023-12-01T00:00:00	2024-11-08T07:00:00	8	Radiación solar	3
83445	7	Sololá	701	Sololá	4	Finca Santa Victoria	1	Enero	2023-12-01T00:00:00	2024-11-08T08:00:00	2	Temperatura media	11.8
83446	7	Sololá	701	Sololá	4	Finca Santa Victoria	1	Enero	2023-12-01T00:00:00	2024-11-08T08:00:00	4	Temperatura máxima	11.8
83447	7	Sololá	701	Sololá	4	Finca Santa Victoria	1	Enero	2023-12-01T00:00:00	2024-11-08T08:00:00	3	Temperatura mínima	9.2
83448	7	Sololá	701	Sololá	4	Finca Santa Victoria	1	Enero	2023-12-01T00:00:00	2024-11-08T08:00:00	5	Humedad	85
83449	7	Sololá	701	Sololá	4	Finca Santa Victoria	1	Enero	2023-12-01T00:00:00	2024-11-08T08:00:00	6	Velocidad del viento	1.6
83450	7	Sololá	701	Sololá	4	Finca Santa Victoria	1	Enero	2023-12-01T00:00:00	2024-11-08T08:00:00	7	Dirección del viento	1.61
83451	7	Sololá	701	Sololá	4	Finca Santa Victoria	1	Enero	2023-12-01T00:00:00	2024-11-08T08:00:00	1	Precipitación	0
83452	7	Sololá	701	Sololá	4	Finca Santa Victoria	1	Enero	2023-12-01T00:00:00	2024-11-08T08:00:00	8	Radiación solar	28
83453	7	Sololá	701	Sololá	4	Finca Santa Victoria	1	Enero	2023-12-01T00:00:00	2024-11-08T09:00:00	2	Temperatura media	15.1
83454	7	Sololá	701	Sololá	4	Finca Santa Victoria	1	Enero	2023-12-01T00:00:00	2024-11-08T09:00:00	4	Temperatura máxima	15.1
83455	7	Sololá	701	Sololá	4	Finca Santa Victoria	1	Enero	2023-12-01T00:00:00	2024-11-08T09:00:00	3	Temperatura mínima	11.8
83456	7	Sololá	701	Sololá	4	Finca Santa Victoria	1	Enero	2023-12-01T00:00:00	2024-11-08T09:00:00	5	Humedad	73
83457	7	Sololá	701	Sololá	4	Finca Santa Victoria	1	Enero	2023-12-01T00:00:00	2024-11-08T09:00:00	6	Velocidad del viento	1.6
83458	7	Sololá	701	Sololá	4	Finca Santa Victoria	1	Enero	2023-12-01T00:00:00	2024-11-08T09:00:00	7	Dirección del viento	1.61
83459	7	Sololá	701	Sololá	4	Finca Santa Victoria	1	Enero	2023-12-01T00:00:00	2024-11-08T09:00:00	1	Precipitación	0
83460	7	Sololá	701	Sololá	4	Finca Santa Victoria	1	Enero	2023-12-01T00:00:00	2024-11-08T09:00:00	8	Radiación solar	193
83461	7	Sololá	701	Sololá	4	Finca Santa Victoria	1	Enero	2023-12-01T00:00:00	2024-11-08T10:00:00	2	Temperatura media	16.9
83462	7	Sololá	701	Sololá	4	Finca Santa Victoria	1	Enero	2023-12-01T00:00:00	2024-11-08T10:00:00	4	Temperatura máxima	16.9
83463	7	Sololá	701	Sololá	4	Finca Santa Victoria	1	Enero	2023-12-01T00:00:00	2024-11-08T10:00:00	3	Temperatura mínima	15.1
83464	7	Sololá	701	Sololá	4	Finca Santa Victoria	1	Enero	2023-12-01T00:00:00	2024-11-08T10:00:00	5	Humedad	69
83465	7	Sololá	701	Sololá	4	Finca Santa Victoria	1	Enero	2023-12-01T00:00:00	2024-11-08T10:00:00	6	Velocidad del viento	1.6
83466	7	Sololá	701	Sololá	4	Finca Santa Victoria	1	Enero	2023-12-01T00:00:00	2024-11-08T10:00:00	7	Dirección del viento	1.61
83467	7	Sololá	701	Sololá	4	Finca Santa Victoria	1	Enero	2023-12-01T00:00:00	2024-11-08T10:00:00	1	Precipitación	0
83468	7	Sololá	701	Sololá	4	Finca Santa Victoria	1	Enero	2023-12-01T00:00:00	2024-11-08T10:00:00	8	Radiación solar	511
83469	7	Sololá	701	Sololá	4	Finca Santa Victoria	1	Enero	2023-12-01T00:00:00	2024-11-08T11:00:00	2	Temperatura media	18.1
83470	7	Sololá	701	Sololá	4	Finca Santa Victoria	1	Enero	2023-12-01T00:00:00	2024-11-08T11:00:00	4	Temperatura máxima	18.2
83471	7	Sololá	701	Sololá	4	Finca Santa Victoria	1	Enero	2023-12-01T00:00:00	2024-11-08T11:00:00	3	Temperatura mínima	16.9
83472	7	Sololá	701	Sololá	4	Finca Santa Victoria	1	Enero	2023-12-01T00:00:00	2024-11-08T11:00:00	5	Humedad	68
83473	7	Sololá	701	Sololá	4	Finca Santa Victoria	1	Enero	2023-12-01T00:00:00	2024-11-08T11:00:00	6	Velocidad del viento	3.2
83474	7	Sololá	701	Sololá	4	Finca Santa Victoria	1	Enero	2023-12-01T00:00:00	2024-11-08T11:00:00	7	Dirección del viento	3.22
83475	7	Sololá	701	Sololá	4	Finca Santa Victoria	1	Enero	2023-12-01T00:00:00	2024-11-08T11:00:00	1	Precipitación	0
83476	7	Sololá	701	Sololá	4	Finca Santa Victoria	1	Enero	2023-12-01T00:00:00	2024-11-08T11:00:00	8	Radiación solar	760
83477	7	Sololá	701	Sololá	4	Finca Santa Victoria	1	Enero	2023-12-01T00:00:00	2024-11-08T12:00:00	2	Temperatura media	18.1
83478	7	Sololá	701	Sololá	4	Finca Santa Victoria	1	Enero	2023-12-01T00:00:00	2024-11-08T12:00:00	4	Temperatura máxima	18.2
83479	7	Sololá	701	Sololá	4	Finca Santa Victoria	1	Enero	2023-12-01T00:00:00	2024-11-08T12:00:00	3	Temperatura mínima	17.6
83480	7	Sololá	701	Sololá	4	Finca Santa Victoria	1	Enero	2023-12-01T00:00:00	2024-11-08T12:00:00	5	Humedad	69
83481	7	Sololá	701	Sololá	4	Finca Santa Victoria	1	Enero	2023-12-01T00:00:00	2024-11-08T12:00:00	6	Velocidad del viento	3.2
83482	7	Sololá	701	Sololá	4	Finca Santa Victoria	1	Enero	2023-12-01T00:00:00	2024-11-08T12:00:00	7	Dirección del viento	3.22
83483	7	Sololá	701	Sololá	4	Finca Santa Victoria	1	Enero	2023-12-01T00:00:00	2024-11-08T12:00:00	1	Precipitación	0
83484	7	Sololá	701	Sololá	4	Finca Santa Victoria	1	Enero	2023-12-01T00:00:00	2024-11-08T12:00:00	8	Radiación solar	790
83485	7	Sololá	701	Sololá	4	Finca Santa Victoria	1	Enero	2023-12-01T00:00:00	2024-11-08T13:00:00	2	Temperatura media	18.2
83486	7	Sololá	701	Sololá	4	Finca Santa Victoria	1	Enero	2023-12-01T00:00:00	2024-11-08T13:00:00	4	Temperatura máxima	18.9
83487	7	Sololá	701	Sololá	4	Finca Santa Victoria	1	Enero	2023-12-01T00:00:00	2024-11-08T13:00:00	3	Temperatura mínima	17.8
83488	7	Sololá	701	Sololá	4	Finca Santa Victoria	1	Enero	2023-12-01T00:00:00	2024-11-08T13:00:00	5	Humedad	77
83489	7	Sololá	701	Sololá	4	Finca Santa Victoria	1	Enero	2023-12-01T00:00:00	2024-11-08T13:00:00	6	Velocidad del viento	4.8
83490	7	Sololá	701	Sololá	4	Finca Santa Victoria	1	Enero	2023-12-01T00:00:00	2024-11-08T13:00:00	7	Dirección del viento	4.83
83491	7	Sololá	701	Sololá	4	Finca Santa Victoria	1	Enero	2023-12-01T00:00:00	2024-11-08T13:00:00	1	Precipitación	0
83492	7	Sololá	701	Sololá	4	Finca Santa Victoria	1	Enero	2023-12-01T00:00:00	2024-11-08T13:00:00	8	Radiación solar	874
83493	7	Sololá	701	Sololá	4	Finca Santa Victoria	1	Enero	2023-12-01T00:00:00	2024-11-08T14:00:00	2	Temperatura media	17.6
83494	7	Sololá	701	Sololá	4	Finca Santa Victoria	1	Enero	2023-12-01T00:00:00	2024-11-08T14:00:00	4	Temperatura máxima	18.4
83495	7	Sololá	701	Sololá	4	Finca Santa Victoria	1	Enero	2023-12-01T00:00:00	2024-11-08T14:00:00	3	Temperatura mínima	17.6
83496	7	Sololá	701	Sololá	4	Finca Santa Victoria	1	Enero	2023-12-01T00:00:00	2024-11-08T14:00:00	5	Humedad	80
83497	7	Sololá	701	Sololá	4	Finca Santa Victoria	1	Enero	2023-12-01T00:00:00	2024-11-08T14:00:00	6	Velocidad del viento	4.8
83498	7	Sololá	701	Sololá	4	Finca Santa Victoria	1	Enero	2023-12-01T00:00:00	2024-11-08T14:00:00	7	Dirección del viento	4.83
83499	7	Sololá	701	Sololá	4	Finca Santa Victoria	1	Enero	2023-12-01T00:00:00	2024-11-08T14:00:00	1	Precipitación	0
83500	7	Sololá	701	Sololá	4	Finca Santa Victoria	1	Enero	2023-12-01T00:00:00	2024-11-08T14:00:00	8	Radiación solar	845
83501	7	Sololá	701	Sololá	4	Finca Santa Victoria	1	Enero	2023-12-01T00:00:00	2024-11-08T15:00:00	2	Temperatura media	18.1
83502	7	Sololá	701	Sololá	4	Finca Santa Victoria	1	Enero	2023-12-01T00:00:00	2024-11-08T15:00:00	4	Temperatura máxima	18.1
83503	7	Sololá	701	Sololá	4	Finca Santa Victoria	1	Enero	2023-12-01T00:00:00	2024-11-08T15:00:00	3	Temperatura mínima	17.2
83504	7	Sololá	701	Sololá	4	Finca Santa Victoria	1	Enero	2023-12-01T00:00:00	2024-11-08T15:00:00	5	Humedad	80
83505	7	Sololá	701	Sololá	4	Finca Santa Victoria	1	Enero	2023-12-01T00:00:00	2024-11-08T15:00:00	6	Velocidad del viento	4.8
83506	7	Sololá	701	Sololá	4	Finca Santa Victoria	1	Enero	2023-12-01T00:00:00	2024-11-08T15:00:00	7	Dirección del viento	4.83
83507	7	Sololá	701	Sololá	4	Finca Santa Victoria	1	Enero	2023-12-01T00:00:00	2024-11-08T15:00:00	1	Precipitación	0
83508	7	Sololá	701	Sololá	4	Finca Santa Victoria	1	Enero	2023-12-01T00:00:00	2024-11-08T15:00:00	8	Radiación solar	381
83509	7	Sololá	701	Sololá	4	Finca Santa Victoria	1	Enero	2023-12-01T00:00:00	2024-11-08T16:00:00	2	Temperatura media	15.7
83510	7	Sololá	701	Sololá	4	Finca Santa Victoria	1	Enero	2023-12-01T00:00:00	2024-11-08T16:00:00	4	Temperatura máxima	18.2
83511	7	Sololá	701	Sololá	4	Finca Santa Victoria	1	Enero	2023-12-01T00:00:00	2024-11-08T16:00:00	3	Temperatura mínima	15.1
83512	7	Sololá	701	Sololá	4	Finca Santa Victoria	1	Enero	2023-12-01T00:00:00	2024-11-08T16:00:00	5	Humedad	88
83513	7	Sololá	701	Sololá	4	Finca Santa Victoria	1	Enero	2023-12-01T00:00:00	2024-11-08T16:00:00	6	Velocidad del viento	4.8
83514	7	Sololá	701	Sololá	4	Finca Santa Victoria	1	Enero	2023-12-01T00:00:00	2024-11-08T16:00:00	7	Dirección del viento	4.83
83515	7	Sololá	701	Sololá	4	Finca Santa Victoria	1	Enero	2023-12-01T00:00:00	2024-11-08T16:00:00	1	Precipitación	0
83516	7	Sololá	701	Sololá	4	Finca Santa Victoria	1	Enero	2023-12-01T00:00:00	2024-11-08T16:00:00	8	Radiación solar	281
83517	7	Sololá	701	Sololá	4	Finca Santa Victoria	1	Enero	2023-12-01T00:00:00	2024-11-08T17:00:00	2	Temperatura media	14.4
83518	7	Sololá	701	Sololá	4	Finca Santa Victoria	1	Enero	2023-12-01T00:00:00	2024-11-08T17:00:00	4	Temperatura máxima	15.7
83519	7	Sololá	701	Sololá	4	Finca Santa Victoria	1	Enero	2023-12-01T00:00:00	2024-11-08T17:00:00	3	Temperatura mínima	14.4
83520	7	Sololá	701	Sololá	4	Finca Santa Victoria	1	Enero	2023-12-01T00:00:00	2024-11-08T17:00:00	5	Humedad	92
83521	7	Sololá	701	Sololá	4	Finca Santa Victoria	1	Enero	2023-12-01T00:00:00	2024-11-08T17:00:00	6	Velocidad del viento	3.2
83522	7	Sololá	701	Sololá	4	Finca Santa Victoria	1	Enero	2023-12-01T00:00:00	2024-11-08T17:00:00	7	Dirección del viento	3.22
83523	7	Sololá	701	Sololá	4	Finca Santa Victoria	1	Enero	2023-12-01T00:00:00	2024-11-08T17:00:00	1	Precipitación	0
83524	7	Sololá	701	Sololá	4	Finca Santa Victoria	1	Enero	2023-12-01T00:00:00	2024-11-08T17:00:00	8	Radiación solar	72
83525	7	Sololá	701	Sololá	4	Finca Santa Victoria	1	Enero	2023-12-01T00:00:00	2024-11-08T18:00:00	2	Temperatura media	13.7
83526	7	Sololá	701	Sololá	4	Finca Santa Victoria	1	Enero	2023-12-01T00:00:00	2024-11-08T18:00:00	4	Temperatura máxima	14.5
83527	7	Sololá	701	Sololá	4	Finca Santa Victoria	1	Enero	2023-12-01T00:00:00	2024-11-08T18:00:00	3	Temperatura mínima	13.7
83528	7	Sololá	701	Sololá	4	Finca Santa Victoria	1	Enero	2023-12-01T00:00:00	2024-11-08T18:00:00	5	Humedad	94
83529	7	Sololá	701	Sololá	4	Finca Santa Victoria	1	Enero	2023-12-01T00:00:00	2024-11-08T18:00:00	6	Velocidad del viento	1.6
83530	7	Sololá	701	Sololá	4	Finca Santa Victoria	1	Enero	2023-12-01T00:00:00	2024-11-08T18:00:00	7	Dirección del viento	1.61
83531	7	Sololá	701	Sololá	4	Finca Santa Victoria	1	Enero	2023-12-01T00:00:00	2024-11-08T18:00:00	1	Precipitación	0
83532	7	Sololá	701	Sololá	4	Finca Santa Victoria	1	Enero	2023-12-01T00:00:00	2024-11-08T18:00:00	8	Radiación solar	15
83533	7	Sololá	701	Sololá	4	Finca Santa Victoria	1	Enero	2023-12-01T00:00:00	2024-11-08T19:00:00	2	Temperatura media	12.8
83534	7	Sololá	701	Sololá	4	Finca Santa Victoria	1	Enero	2023-12-01T00:00:00	2024-11-08T19:00:00	4	Temperatura máxima	13.8
83535	7	Sololá	701	Sololá	4	Finca Santa Victoria	1	Enero	2023-12-01T00:00:00	2024-11-08T19:00:00	3	Temperatura mínima	12.8
83536	7	Sololá	701	Sololá	4	Finca Santa Victoria	1	Enero	2023-12-01T00:00:00	2024-11-08T19:00:00	5	Humedad	94
83537	7	Sololá	701	Sololá	4	Finca Santa Victoria	1	Enero	2023-12-01T00:00:00	2024-11-08T19:00:00	6	Velocidad del viento	0
83538	7	Sololá	701	Sololá	4	Finca Santa Victoria	1	Enero	2023-12-01T00:00:00	2024-11-08T19:00:00	7	Dirección del viento	0
83539	7	Sololá	701	Sololá	4	Finca Santa Victoria	1	Enero	2023-12-01T00:00:00	2024-11-08T19:00:00	1	Precipitación	0
83540	7	Sololá	701	Sololá	4	Finca Santa Victoria	1	Enero	2023-12-01T00:00:00	2024-11-08T19:00:00	8	Radiación solar	0
83541	7	Sololá	701	Sololá	4	Finca Santa Victoria	1	Enero	2023-12-01T00:00:00	2024-11-08T20:00:00	2	Temperatura media	12.1
83542	7	Sololá	701	Sololá	4	Finca Santa Victoria	1	Enero	2023-12-01T00:00:00	2024-11-08T20:00:00	4	Temperatura máxima	12.8
83543	7	Sololá	701	Sololá	4	Finca Santa Victoria	1	Enero	2023-12-01T00:00:00	2024-11-08T20:00:00	3	Temperatura mínima	12.1
83544	7	Sololá	701	Sololá	4	Finca Santa Victoria	1	Enero	2023-12-01T00:00:00	2024-11-08T20:00:00	5	Humedad	95
83545	7	Sololá	701	Sololá	4	Finca Santa Victoria	1	Enero	2023-12-01T00:00:00	2024-11-08T20:00:00	6	Velocidad del viento	0
83546	7	Sololá	701	Sololá	4	Finca Santa Victoria	1	Enero	2023-12-01T00:00:00	2024-11-08T20:00:00	7	Dirección del viento	0
83547	7	Sololá	701	Sololá	4	Finca Santa Victoria	1	Enero	2023-12-01T00:00:00	2024-11-08T20:00:00	1	Precipitación	0
83548	7	Sololá	701	Sololá	4	Finca Santa Victoria	1	Enero	2023-12-01T00:00:00	2024-11-08T20:00:00	8	Radiación solar	0
83549	7	Sololá	701	Sololá	4	Finca Santa Victoria	1	Enero	2023-12-01T00:00:00	2024-11-08T21:00:00	2	Temperatura media	13.3
83550	7	Sololá	701	Sololá	4	Finca Santa Victoria	1	Enero	2023-12-01T00:00:00	2024-11-08T21:00:00	4	Temperatura máxima	13.3
83551	7	Sololá	701	Sololá	4	Finca Santa Victoria	1	Enero	2023-12-01T00:00:00	2024-11-08T21:00:00	3	Temperatura mínima	12.1
83552	7	Sololá	701	Sololá	4	Finca Santa Victoria	1	Enero	2023-12-01T00:00:00	2024-11-08T21:00:00	5	Humedad	89
83553	7	Sololá	701	Sololá	4	Finca Santa Victoria	1	Enero	2023-12-01T00:00:00	2024-11-08T21:00:00	6	Velocidad del viento	1.6
83554	7	Sololá	701	Sololá	4	Finca Santa Victoria	1	Enero	2023-12-01T00:00:00	2024-11-08T21:00:00	7	Dirección del viento	1.61
83555	7	Sololá	701	Sololá	4	Finca Santa Victoria	1	Enero	2023-12-01T00:00:00	2024-11-08T21:00:00	1	Precipitación	0
83556	7	Sololá	701	Sololá	4	Finca Santa Victoria	1	Enero	2023-12-01T00:00:00	2024-11-08T21:00:00	8	Radiación solar	0
83557	7	Sololá	701	Sololá	4	Finca Santa Victoria	1	Enero	2023-12-01T00:00:00	2024-11-08T22:00:00	2	Temperatura media	12.7
83558	7	Sololá	701	Sololá	4	Finca Santa Victoria	1	Enero	2023-12-01T00:00:00	2024-11-08T22:00:00	4	Temperatura máxima	13.3
83559	7	Sololá	701	Sololá	4	Finca Santa Victoria	1	Enero	2023-12-01T00:00:00	2024-11-08T22:00:00	3	Temperatura mínima	12.7
83560	7	Sololá	701	Sololá	4	Finca Santa Victoria	1	Enero	2023-12-01T00:00:00	2024-11-08T22:00:00	5	Humedad	88
83561	7	Sololá	701	Sololá	4	Finca Santa Victoria	1	Enero	2023-12-01T00:00:00	2024-11-08T22:00:00	6	Velocidad del viento	1.6
83562	7	Sololá	701	Sololá	4	Finca Santa Victoria	1	Enero	2023-12-01T00:00:00	2024-11-08T22:00:00	7	Dirección del viento	1.61
83563	7	Sololá	701	Sololá	4	Finca Santa Victoria	1	Enero	2023-12-01T00:00:00	2024-11-08T22:00:00	1	Precipitación	0
83564	7	Sololá	701	Sololá	4	Finca Santa Victoria	1	Enero	2023-12-01T00:00:00	2024-11-08T22:00:00	8	Radiación solar	0
83565	7	Sololá	701	Sololá	4	Finca Santa Victoria	1	Enero	2023-12-01T00:00:00	2024-11-08T23:00:00	2	Temperatura media	12.7
83566	7	Sololá	701	Sololá	4	Finca Santa Victoria	1	Enero	2023-12-01T00:00:00	2024-11-08T23:00:00	4	Temperatura máxima	12.8
83567	7	Sololá	701	Sololá	4	Finca Santa Victoria	1	Enero	2023-12-01T00:00:00	2024-11-08T23:00:00	3	Temperatura mínima	12.6
83568	7	Sololá	701	Sololá	4	Finca Santa Victoria	1	Enero	2023-12-01T00:00:00	2024-11-08T23:00:00	5	Humedad	86
83569	7	Sololá	701	Sololá	4	Finca Santa Victoria	1	Enero	2023-12-01T00:00:00	2024-11-08T23:00:00	6	Velocidad del viento	1.6
83570	7	Sololá	701	Sololá	4	Finca Santa Victoria	1	Enero	2023-12-01T00:00:00	2024-11-08T23:00:00	7	Dirección del viento	1.61
83571	7	Sololá	701	Sololá	4	Finca Santa Victoria	1	Enero	2023-12-01T00:00:00	2024-11-08T23:00:00	1	Precipitación	0
83572	7	Sololá	701	Sololá	4	Finca Santa Victoria	1	Enero	2023-12-01T00:00:00	2024-11-08T23:00:00	8	Radiación solar	0
83573	7	Sololá	701	Sololá	4	Finca Santa Victoria	1	Enero	2023-01-13T00:00:00	2024-11-08T00:00:00	2	Temperatura media	12.7
83574	7	Sololá	701	Sololá	4	Finca Santa Victoria	1	Enero	2023-01-13T00:00:00	2024-11-08T00:00:00	4	Temperatura máxima	12.8
83575	7	Sololá	701	Sololá	4	Finca Santa Victoria	1	Enero	2023-01-13T00:00:00	2024-11-08T00:00:00	3	Temperatura mínima	12.6
83576	7	Sololá	701	Sololá	4	Finca Santa Victoria	1	Enero	2023-01-13T00:00:00	2024-11-08T00:00:00	5	Humedad	85
83577	7	Sololá	701	Sololá	4	Finca Santa Victoria	1	Enero	2023-01-13T00:00:00	2024-11-08T00:00:00	6	Velocidad del viento	3.2
83578	7	Sololá	701	Sololá	4	Finca Santa Victoria	1	Enero	2023-01-13T00:00:00	2024-11-08T00:00:00	7	Dirección del viento	3.22
83579	7	Sololá	701	Sololá	4	Finca Santa Victoria	1	Enero	2023-01-13T00:00:00	2024-11-08T00:00:00	1	Precipitación	0
83580	7	Sololá	701	Sololá	4	Finca Santa Victoria	1	Enero	2023-01-13T00:00:00	2024-11-08T00:00:00	8	Radiación solar	0
83581	7	Sololá	701	Sololá	4	Finca Santa Victoria	1	Enero	2023-01-13T00:00:00	2024-11-08T01:00:00	2	Temperatura media	12.2
83582	7	Sololá	701	Sololá	4	Finca Santa Victoria	1	Enero	2023-01-13T00:00:00	2024-11-08T01:00:00	4	Temperatura máxima	12.7
83583	7	Sololá	701	Sololá	4	Finca Santa Victoria	1	Enero	2023-01-13T00:00:00	2024-11-08T01:00:00	3	Temperatura mínima	12.2
83584	7	Sololá	701	Sololá	4	Finca Santa Victoria	1	Enero	2023-01-13T00:00:00	2024-11-08T01:00:00	5	Humedad	85
83585	7	Sololá	701	Sololá	4	Finca Santa Victoria	1	Enero	2023-01-13T00:00:00	2024-11-08T01:00:00	6	Velocidad del viento	3.2
83586	7	Sololá	701	Sololá	4	Finca Santa Victoria	1	Enero	2023-01-13T00:00:00	2024-11-08T01:00:00	7	Dirección del viento	3.22
83587	7	Sololá	701	Sololá	4	Finca Santa Victoria	1	Enero	2023-01-13T00:00:00	2024-11-08T01:00:00	1	Precipitación	0
83588	7	Sololá	701	Sololá	4	Finca Santa Victoria	1	Enero	2023-01-13T00:00:00	2024-11-08T01:00:00	8	Radiación solar	0
83589	7	Sololá	701	Sololá	4	Finca Santa Victoria	1	Enero	2023-01-13T00:00:00	2024-11-08T02:00:00	2	Temperatura media	11.6
83590	7	Sololá	701	Sololá	4	Finca Santa Victoria	1	Enero	2023-01-13T00:00:00	2024-11-08T02:00:00	4	Temperatura máxima	12.2
83591	7	Sololá	701	Sololá	4	Finca Santa Victoria	1	Enero	2023-01-13T00:00:00	2024-11-08T02:00:00	3	Temperatura mínima	11.4
83592	7	Sololá	701	Sololá	4	Finca Santa Victoria	1	Enero	2023-01-13T00:00:00	2024-11-08T02:00:00	5	Humedad	84
83593	7	Sololá	701	Sololá	4	Finca Santa Victoria	1	Enero	2023-01-13T00:00:00	2024-11-08T02:00:00	6	Velocidad del viento	3.2
83594	7	Sololá	701	Sololá	4	Finca Santa Victoria	1	Enero	2023-01-13T00:00:00	2024-11-08T02:00:00	7	Dirección del viento	3.22
83595	7	Sololá	701	Sololá	4	Finca Santa Victoria	1	Enero	2023-01-13T00:00:00	2024-11-08T02:00:00	1	Precipitación	0
83596	7	Sololá	701	Sololá	4	Finca Santa Victoria	1	Enero	2023-01-13T00:00:00	2024-11-08T02:00:00	8	Radiación solar	0
83597	7	Sololá	701	Sololá	4	Finca Santa Victoria	1	Enero	2023-01-13T00:00:00	2024-11-08T03:00:00	2	Temperatura media	11.4
83598	7	Sololá	701	Sololá	4	Finca Santa Victoria	1	Enero	2023-01-13T00:00:00	2024-11-08T03:00:00	4	Temperatura máxima	11.7
83599	7	Sololá	701	Sololá	4	Finca Santa Victoria	1	Enero	2023-01-13T00:00:00	2024-11-08T03:00:00	3	Temperatura mínima	11.4
83600	7	Sololá	701	Sololá	4	Finca Santa Victoria	1	Enero	2023-01-13T00:00:00	2024-11-08T03:00:00	5	Humedad	84
83601	7	Sololá	701	Sololá	4	Finca Santa Victoria	1	Enero	2023-01-13T00:00:00	2024-11-08T03:00:00	6	Velocidad del viento	3.2
83602	7	Sololá	701	Sololá	4	Finca Santa Victoria	1	Enero	2023-01-13T00:00:00	2024-11-08T03:00:00	7	Dirección del viento	3.22
83603	7	Sololá	701	Sololá	4	Finca Santa Victoria	1	Enero	2023-01-13T00:00:00	2024-11-08T03:00:00	1	Precipitación	0
83604	7	Sololá	701	Sololá	4	Finca Santa Victoria	1	Enero	2023-01-13T00:00:00	2024-11-08T03:00:00	8	Radiación solar	0
83605	7	Sololá	701	Sololá	4	Finca Santa Victoria	1	Enero	2023-01-13T00:00:00	2024-11-08T04:00:00	2	Temperatura media	11.1
83606	7	Sololá	701	Sololá	4	Finca Santa Victoria	1	Enero	2023-01-13T00:00:00	2024-11-08T04:00:00	4	Temperatura máxima	11.4
83607	7	Sololá	701	Sololá	4	Finca Santa Victoria	1	Enero	2023-01-13T00:00:00	2024-11-08T04:00:00	3	Temperatura mínima	11.1
83608	7	Sololá	701	Sololá	4	Finca Santa Victoria	1	Enero	2023-01-13T00:00:00	2024-11-08T04:00:00	5	Humedad	87
83609	7	Sololá	701	Sololá	4	Finca Santa Victoria	1	Enero	2023-01-13T00:00:00	2024-11-08T04:00:00	6	Velocidad del viento	3.2
83610	7	Sololá	701	Sololá	4	Finca Santa Victoria	1	Enero	2023-01-13T00:00:00	2024-11-08T04:00:00	7	Dirección del viento	3.22
83611	7	Sololá	701	Sololá	4	Finca Santa Victoria	1	Enero	2023-01-13T00:00:00	2024-11-08T04:00:00	1	Precipitación	0
83612	7	Sololá	701	Sololá	4	Finca Santa Victoria	1	Enero	2023-01-13T00:00:00	2024-11-08T04:00:00	8	Radiación solar	0
83613	7	Sololá	701	Sololá	4	Finca Santa Victoria	1	Enero	2023-01-13T00:00:00	2024-11-08T05:00:00	2	Temperatura media	10.9
83614	7	Sololá	701	Sololá	4	Finca Santa Victoria	1	Enero	2023-01-13T00:00:00	2024-11-08T05:00:00	4	Temperatura máxima	11.2
83615	7	Sololá	701	Sololá	4	Finca Santa Victoria	1	Enero	2023-01-13T00:00:00	2024-11-08T05:00:00	3	Temperatura mínima	10.9
83616	7	Sololá	701	Sololá	4	Finca Santa Victoria	1	Enero	2023-01-13T00:00:00	2024-11-08T05:00:00	5	Humedad	86
83617	7	Sololá	701	Sololá	4	Finca Santa Victoria	1	Enero	2023-01-13T00:00:00	2024-11-08T05:00:00	6	Velocidad del viento	4.8
83618	7	Sololá	701	Sololá	4	Finca Santa Victoria	1	Enero	2023-01-13T00:00:00	2024-11-08T05:00:00	7	Dirección del viento	4.83
83619	7	Sololá	701	Sololá	4	Finca Santa Victoria	1	Enero	2023-01-13T00:00:00	2024-11-08T05:00:00	1	Precipitación	0
83620	7	Sololá	701	Sololá	4	Finca Santa Victoria	1	Enero	2023-01-13T00:00:00	2024-11-08T05:00:00	8	Radiación solar	0
83621	7	Sololá	701	Sololá	4	Finca Santa Victoria	1	Enero	2023-01-13T00:00:00	2024-11-08T06:00:00	2	Temperatura media	10.9
83622	7	Sololá	701	Sololá	4	Finca Santa Victoria	1	Enero	2023-01-13T00:00:00	2024-11-08T06:00:00	4	Temperatura máxima	10.9
83623	7	Sololá	701	Sololá	4	Finca Santa Victoria	1	Enero	2023-01-13T00:00:00	2024-11-08T06:00:00	3	Temperatura mínima	10.8
83624	7	Sololá	701	Sololá	4	Finca Santa Victoria	1	Enero	2023-01-13T00:00:00	2024-11-08T06:00:00	5	Humedad	86
83625	7	Sololá	701	Sololá	4	Finca Santa Victoria	1	Enero	2023-01-13T00:00:00	2024-11-08T06:00:00	6	Velocidad del viento	3.2
83626	7	Sololá	701	Sololá	4	Finca Santa Victoria	1	Enero	2023-01-13T00:00:00	2024-11-08T06:00:00	7	Dirección del viento	3.22
83627	7	Sololá	701	Sololá	4	Finca Santa Victoria	1	Enero	2023-01-13T00:00:00	2024-11-08T06:00:00	1	Precipitación	0
83628	7	Sololá	701	Sololá	4	Finca Santa Victoria	1	Enero	2023-01-13T00:00:00	2024-11-08T06:00:00	8	Radiación solar	0
83629	7	Sololá	701	Sololá	4	Finca Santa Victoria	1	Enero	2023-01-13T00:00:00	2024-11-08T07:00:00	2	Temperatura media	10.8
83630	7	Sololá	701	Sololá	4	Finca Santa Victoria	1	Enero	2023-01-13T00:00:00	2024-11-08T07:00:00	4	Temperatura máxima	10.9
83631	7	Sololá	701	Sololá	4	Finca Santa Victoria	1	Enero	2023-01-13T00:00:00	2024-11-08T07:00:00	3	Temperatura mínima	10.7
83632	7	Sololá	701	Sololá	4	Finca Santa Victoria	1	Enero	2023-01-13T00:00:00	2024-11-08T07:00:00	5	Humedad	86
83633	7	Sololá	701	Sololá	4	Finca Santa Victoria	1	Enero	2023-01-13T00:00:00	2024-11-08T07:00:00	6	Velocidad del viento	4.8
83634	7	Sololá	701	Sololá	4	Finca Santa Victoria	1	Enero	2023-01-13T00:00:00	2024-11-08T07:00:00	7	Dirección del viento	4.83
83635	7	Sololá	701	Sololá	4	Finca Santa Victoria	1	Enero	2023-01-13T00:00:00	2024-11-08T07:00:00	1	Precipitación	0
83636	7	Sololá	701	Sololá	4	Finca Santa Victoria	1	Enero	2023-01-13T00:00:00	2024-11-08T07:00:00	8	Radiación solar	4
83637	7	Sololá	701	Sololá	4	Finca Santa Victoria	1	Enero	2023-01-13T00:00:00	2024-11-08T08:00:00	2	Temperatura media	11.6
83638	7	Sololá	701	Sololá	4	Finca Santa Victoria	1	Enero	2023-01-13T00:00:00	2024-11-08T08:00:00	4	Temperatura máxima	11.6
83639	7	Sololá	701	Sololá	4	Finca Santa Victoria	1	Enero	2023-01-13T00:00:00	2024-11-08T08:00:00	3	Temperatura mínima	10.8
83640	7	Sololá	701	Sololá	4	Finca Santa Victoria	1	Enero	2023-01-13T00:00:00	2024-11-08T08:00:00	5	Humedad	86
83641	7	Sololá	701	Sololá	4	Finca Santa Victoria	1	Enero	2023-01-13T00:00:00	2024-11-08T08:00:00	6	Velocidad del viento	6.4
83642	7	Sololá	701	Sololá	4	Finca Santa Victoria	1	Enero	2023-01-13T00:00:00	2024-11-08T08:00:00	7	Dirección del viento	6.44
83643	7	Sololá	701	Sololá	4	Finca Santa Victoria	1	Enero	2023-01-13T00:00:00	2024-11-08T08:00:00	1	Precipitación	0
83644	7	Sololá	701	Sololá	4	Finca Santa Victoria	1	Enero	2023-01-13T00:00:00	2024-11-08T08:00:00	8	Radiación solar	29
83645	7	Sololá	701	Sololá	4	Finca Santa Victoria	1	Enero	2023-01-13T00:00:00	2024-11-08T09:00:00	2	Temperatura media	12.8
83646	7	Sololá	701	Sololá	4	Finca Santa Victoria	1	Enero	2023-01-13T00:00:00	2024-11-08T09:00:00	4	Temperatura máxima	12.9
83647	7	Sololá	701	Sololá	4	Finca Santa Victoria	1	Enero	2023-01-13T00:00:00	2024-11-08T09:00:00	3	Temperatura mínima	11.3
83648	7	Sololá	701	Sololá	4	Finca Santa Victoria	1	Enero	2023-01-13T00:00:00	2024-11-08T09:00:00	5	Humedad	82
83649	7	Sololá	701	Sololá	4	Finca Santa Victoria	1	Enero	2023-01-13T00:00:00	2024-11-08T09:00:00	6	Velocidad del viento	6.4
83650	7	Sololá	701	Sololá	4	Finca Santa Victoria	1	Enero	2023-01-13T00:00:00	2024-11-08T09:00:00	7	Dirección del viento	6.44
83651	7	Sololá	701	Sololá	4	Finca Santa Victoria	1	Enero	2023-01-13T00:00:00	2024-11-08T09:00:00	1	Precipitación	0
83652	7	Sololá	701	Sololá	4	Finca Santa Victoria	1	Enero	2023-01-13T00:00:00	2024-11-08T09:00:00	8	Radiación solar	144
83653	7	Sololá	701	Sololá	4	Finca Santa Victoria	1	Enero	2023-01-13T00:00:00	2024-11-08T10:00:00	2	Temperatura media	14.1
83654	7	Sololá	701	Sololá	4	Finca Santa Victoria	1	Enero	2023-01-13T00:00:00	2024-11-08T10:00:00	4	Temperatura máxima	14.1
83655	7	Sololá	701	Sololá	4	Finca Santa Victoria	1	Enero	2023-01-13T00:00:00	2024-11-08T10:00:00	3	Temperatura mínima	12.7
83656	7	Sololá	701	Sololá	4	Finca Santa Victoria	1	Enero	2023-01-13T00:00:00	2024-11-08T10:00:00	5	Humedad	79
83657	7	Sololá	701	Sololá	4	Finca Santa Victoria	1	Enero	2023-01-13T00:00:00	2024-11-08T10:00:00	6	Velocidad del viento	6.4
83658	7	Sololá	701	Sololá	4	Finca Santa Victoria	1	Enero	2023-01-13T00:00:00	2024-11-08T10:00:00	7	Dirección del viento	6.44
83659	7	Sololá	701	Sololá	4	Finca Santa Victoria	1	Enero	2023-01-13T00:00:00	2024-11-08T10:00:00	1	Precipitación	0
83660	7	Sololá	701	Sololá	4	Finca Santa Victoria	1	Enero	2023-01-13T00:00:00	2024-11-08T10:00:00	8	Radiación solar	489
83661	7	Sololá	701	Sololá	4	Finca Santa Victoria	1	Enero	2023-01-13T00:00:00	2024-11-08T11:00:00	2	Temperatura media	14.1
83662	7	Sololá	701	Sololá	4	Finca Santa Victoria	1	Enero	2023-01-13T00:00:00	2024-11-08T11:00:00	4	Temperatura máxima	14.2
83663	7	Sololá	701	Sololá	4	Finca Santa Victoria	1	Enero	2023-01-13T00:00:00	2024-11-08T11:00:00	3	Temperatura mínima	13.1
83664	7	Sololá	701	Sololá	4	Finca Santa Victoria	1	Enero	2023-01-13T00:00:00	2024-11-08T11:00:00	5	Humedad	82
83665	7	Sololá	701	Sololá	4	Finca Santa Victoria	1	Enero	2023-01-13T00:00:00	2024-11-08T11:00:00	6	Velocidad del viento	6.4
83666	7	Sololá	701	Sololá	4	Finca Santa Victoria	1	Enero	2023-01-13T00:00:00	2024-11-08T11:00:00	7	Dirección del viento	6.44
83667	7	Sololá	701	Sololá	4	Finca Santa Victoria	1	Enero	2023-01-13T00:00:00	2024-11-08T11:00:00	1	Precipitación	0
83668	7	Sololá	701	Sololá	4	Finca Santa Victoria	1	Enero	2023-01-13T00:00:00	2024-11-08T11:00:00	8	Radiación solar	288
83669	7	Sololá	701	Sololá	4	Finca Santa Victoria	1	Enero	2023-01-13T00:00:00	2024-11-08T12:00:00	2	Temperatura media	15.6
83670	7	Sololá	701	Sololá	4	Finca Santa Victoria	1	Enero	2023-01-13T00:00:00	2024-11-08T12:00:00	4	Temperatura máxima	15.6
83671	7	Sololá	701	Sololá	4	Finca Santa Victoria	1	Enero	2023-01-13T00:00:00	2024-11-08T12:00:00	3	Temperatura mínima	13.8
83672	7	Sololá	701	Sololá	4	Finca Santa Victoria	1	Enero	2023-01-13T00:00:00	2024-11-08T12:00:00	5	Humedad	74
83673	7	Sololá	701	Sololá	4	Finca Santa Victoria	1	Enero	2023-01-13T00:00:00	2024-11-08T12:00:00	6	Velocidad del viento	6.4
83674	7	Sololá	701	Sololá	4	Finca Santa Victoria	1	Enero	2023-01-13T00:00:00	2024-11-08T12:00:00	7	Dirección del viento	6.44
83675	7	Sololá	701	Sololá	4	Finca Santa Victoria	1	Enero	2023-01-13T00:00:00	2024-11-08T12:00:00	1	Precipitación	0
83676	7	Sololá	701	Sololá	4	Finca Santa Victoria	1	Enero	2023-01-13T00:00:00	2024-11-08T12:00:00	8	Radiación solar	871
83677	7	Sololá	701	Sololá	4	Finca Santa Victoria	1	Enero	2023-01-13T00:00:00	2024-11-08T13:00:00	2	Temperatura media	16.7
83678	7	Sololá	701	Sololá	4	Finca Santa Victoria	1	Enero	2023-01-13T00:00:00	2024-11-08T13:00:00	4	Temperatura máxima	16.7
83679	7	Sololá	701	Sololá	4	Finca Santa Victoria	1	Enero	2023-01-13T00:00:00	2024-11-08T13:00:00	3	Temperatura mínima	15.1
83680	7	Sololá	701	Sololá	4	Finca Santa Victoria	1	Enero	2023-01-13T00:00:00	2024-11-08T13:00:00	5	Humedad	69
83681	7	Sololá	701	Sololá	4	Finca Santa Victoria	1	Enero	2023-01-13T00:00:00	2024-11-08T13:00:00	6	Velocidad del viento	6.4
83682	7	Sololá	701	Sololá	4	Finca Santa Victoria	1	Enero	2023-01-13T00:00:00	2024-11-08T13:00:00	7	Dirección del viento	6.44
83683	7	Sololá	701	Sololá	4	Finca Santa Victoria	1	Enero	2023-01-13T00:00:00	2024-11-08T13:00:00	1	Precipitación	0
83684	7	Sololá	701	Sololá	4	Finca Santa Victoria	1	Enero	2023-01-13T00:00:00	2024-11-08T13:00:00	8	Radiación solar	836
83685	7	Sololá	701	Sololá	4	Finca Santa Victoria	1	Enero	2023-01-13T00:00:00	2024-11-08T14:00:00	2	Temperatura media	15.6
83686	7	Sololá	701	Sololá	4	Finca Santa Victoria	1	Enero	2023-01-13T00:00:00	2024-11-08T14:00:00	4	Temperatura máxima	17.4
83687	7	Sololá	701	Sololá	4	Finca Santa Victoria	1	Enero	2023-01-13T00:00:00	2024-11-08T14:00:00	3	Temperatura mínima	15.4
83688	7	Sololá	701	Sololá	4	Finca Santa Victoria	1	Enero	2023-01-13T00:00:00	2024-11-08T14:00:00	5	Humedad	73
83689	7	Sololá	701	Sololá	4	Finca Santa Victoria	1	Enero	2023-01-13T00:00:00	2024-11-08T14:00:00	6	Velocidad del viento	6.4
83690	7	Sololá	701	Sololá	4	Finca Santa Victoria	1	Enero	2023-01-13T00:00:00	2024-11-08T14:00:00	7	Dirección del viento	6.44
83691	7	Sololá	701	Sololá	4	Finca Santa Victoria	1	Enero	2023-01-13T00:00:00	2024-11-08T14:00:00	1	Precipitación	0
83692	7	Sololá	701	Sololá	4	Finca Santa Victoria	1	Enero	2023-01-13T00:00:00	2024-11-08T14:00:00	8	Radiación solar	720
83693	7	Sololá	701	Sololá	4	Finca Santa Victoria	1	Enero	2023-01-13T00:00:00	2024-11-08T15:00:00	2	Temperatura media	16.6
83694	7	Sololá	701	Sololá	4	Finca Santa Victoria	1	Enero	2023-01-13T00:00:00	2024-11-08T15:00:00	4	Temperatura máxima	17.1
83695	7	Sololá	701	Sololá	4	Finca Santa Victoria	1	Enero	2023-01-13T00:00:00	2024-11-08T15:00:00	3	Temperatura mínima	15.4
83696	7	Sololá	701	Sololá	4	Finca Santa Victoria	1	Enero	2023-01-13T00:00:00	2024-11-08T15:00:00	5	Humedad	69
83697	7	Sololá	701	Sololá	4	Finca Santa Victoria	1	Enero	2023-01-13T00:00:00	2024-11-08T15:00:00	6	Velocidad del viento	4.8
83698	7	Sololá	701	Sololá	4	Finca Santa Victoria	1	Enero	2023-01-13T00:00:00	2024-11-08T15:00:00	7	Dirección del viento	4.83
83699	7	Sololá	701	Sololá	4	Finca Santa Victoria	1	Enero	2023-01-13T00:00:00	2024-11-08T15:00:00	1	Precipitación	0
83700	7	Sololá	701	Sololá	4	Finca Santa Victoria	1	Enero	2023-01-13T00:00:00	2024-11-08T15:00:00	8	Radiación solar	374
83701	7	Sololá	701	Sololá	4	Finca Santa Victoria	1	Enero	2023-01-13T00:00:00	2024-11-08T16:00:00	2	Temperatura media	15.8
83702	7	Sololá	701	Sololá	4	Finca Santa Victoria	1	Enero	2023-01-13T00:00:00	2024-11-08T16:00:00	4	Temperatura máxima	16.7
83703	7	Sololá	701	Sololá	4	Finca Santa Victoria	1	Enero	2023-01-13T00:00:00	2024-11-08T16:00:00	3	Temperatura mínima	15.6
83704	7	Sololá	701	Sololá	4	Finca Santa Victoria	1	Enero	2023-01-13T00:00:00	2024-11-08T16:00:00	5	Humedad	69
83705	7	Sololá	701	Sololá	4	Finca Santa Victoria	1	Enero	2023-01-13T00:00:00	2024-11-08T16:00:00	6	Velocidad del viento	4.8
83706	7	Sololá	701	Sololá	4	Finca Santa Victoria	1	Enero	2023-01-13T00:00:00	2024-11-08T16:00:00	7	Dirección del viento	4.83
83707	7	Sololá	701	Sololá	4	Finca Santa Victoria	1	Enero	2023-01-13T00:00:00	2024-11-08T16:00:00	1	Precipitación	0
83708	7	Sololá	701	Sololá	4	Finca Santa Victoria	1	Enero	2023-01-13T00:00:00	2024-11-08T16:00:00	8	Radiación solar	317
83709	7	Sololá	701	Sololá	4	Finca Santa Victoria	1	Enero	2023-01-13T00:00:00	2024-11-08T17:00:00	2	Temperatura media	12.1
83710	7	Sololá	701	Sololá	4	Finca Santa Victoria	1	Enero	2023-01-13T00:00:00	2024-11-08T17:00:00	4	Temperatura máxima	15.8
83711	7	Sololá	701	Sololá	4	Finca Santa Victoria	1	Enero	2023-01-13T00:00:00	2024-11-08T17:00:00	3	Temperatura mínima	12.1
83712	7	Sololá	701	Sololá	4	Finca Santa Victoria	1	Enero	2023-01-13T00:00:00	2024-11-08T17:00:00	5	Humedad	88
83713	7	Sololá	701	Sololá	4	Finca Santa Victoria	1	Enero	2023-01-13T00:00:00	2024-11-08T17:00:00	6	Velocidad del viento	3.2
83714	7	Sololá	701	Sololá	4	Finca Santa Victoria	1	Enero	2023-01-13T00:00:00	2024-11-08T17:00:00	7	Dirección del viento	3.22
83715	7	Sololá	701	Sololá	4	Finca Santa Victoria	1	Enero	2023-01-13T00:00:00	2024-11-08T17:00:00	1	Precipitación	0
83716	7	Sololá	701	Sololá	4	Finca Santa Victoria	1	Enero	2023-01-13T00:00:00	2024-11-08T17:00:00	8	Radiación solar	35
83717	7	Sololá	701	Sololá	4	Finca Santa Victoria	1	Enero	2023-01-13T00:00:00	2024-11-08T18:00:00	2	Temperatura media	11.2
83718	7	Sololá	701	Sololá	4	Finca Santa Victoria	1	Enero	2023-01-13T00:00:00	2024-11-08T18:00:00	4	Temperatura máxima	12.1
83719	7	Sololá	701	Sololá	4	Finca Santa Victoria	1	Enero	2023-01-13T00:00:00	2024-11-08T18:00:00	3	Temperatura mínima	11.2
83720	7	Sololá	701	Sololá	4	Finca Santa Victoria	1	Enero	2023-01-13T00:00:00	2024-11-08T18:00:00	5	Humedad	88
83721	7	Sololá	701	Sololá	4	Finca Santa Victoria	1	Enero	2023-01-13T00:00:00	2024-11-08T18:00:00	6	Velocidad del viento	4.8
83722	7	Sololá	701	Sololá	4	Finca Santa Victoria	1	Enero	2023-01-13T00:00:00	2024-11-08T18:00:00	7	Dirección del viento	4.83
83723	7	Sololá	701	Sololá	4	Finca Santa Victoria	1	Enero	2023-01-13T00:00:00	2024-11-08T18:00:00	1	Precipitación	0
83724	7	Sololá	701	Sololá	4	Finca Santa Victoria	1	Enero	2023-01-13T00:00:00	2024-11-08T18:00:00	8	Radiación solar	26
83725	7	Sololá	701	Sololá	4	Finca Santa Victoria	1	Enero	2023-01-13T00:00:00	2024-11-08T19:00:00	2	Temperatura media	11.1
83726	7	Sololá	701	Sololá	4	Finca Santa Victoria	1	Enero	2023-01-13T00:00:00	2024-11-08T19:00:00	4	Temperatura máxima	11.2
83727	7	Sololá	701	Sololá	4	Finca Santa Victoria	1	Enero	2023-01-13T00:00:00	2024-11-08T19:00:00	3	Temperatura mínima	11.1
83728	7	Sololá	701	Sololá	4	Finca Santa Victoria	1	Enero	2023-01-13T00:00:00	2024-11-08T19:00:00	5	Humedad	85
83729	7	Sololá	701	Sololá	4	Finca Santa Victoria	1	Enero	2023-01-13T00:00:00	2024-11-08T19:00:00	6	Velocidad del viento	6.4
83730	7	Sololá	701	Sololá	4	Finca Santa Victoria	1	Enero	2023-01-13T00:00:00	2024-11-08T19:00:00	7	Dirección del viento	6.44
83731	7	Sololá	701	Sololá	4	Finca Santa Victoria	1	Enero	2023-01-13T00:00:00	2024-11-08T19:00:00	1	Precipitación	0
83732	7	Sololá	701	Sololá	4	Finca Santa Victoria	1	Enero	2023-01-13T00:00:00	2024-11-08T19:00:00	8	Radiación solar	0
83733	7	Sololá	701	Sololá	4	Finca Santa Victoria	1	Enero	2023-01-13T00:00:00	2024-11-08T20:00:00	2	Temperatura media	10.3
83734	7	Sololá	701	Sololá	4	Finca Santa Victoria	1	Enero	2023-01-13T00:00:00	2024-11-08T20:00:00	4	Temperatura máxima	11.1
83735	7	Sololá	701	Sololá	4	Finca Santa Victoria	1	Enero	2023-01-13T00:00:00	2024-11-08T20:00:00	3	Temperatura mínima	10.3
83736	7	Sololá	701	Sololá	4	Finca Santa Victoria	1	Enero	2023-01-13T00:00:00	2024-11-08T20:00:00	5	Humedad	90
83737	7	Sololá	701	Sololá	4	Finca Santa Victoria	1	Enero	2023-01-13T00:00:00	2024-11-08T20:00:00	6	Velocidad del viento	6.4
83738	7	Sololá	701	Sololá	4	Finca Santa Victoria	1	Enero	2023-01-13T00:00:00	2024-11-08T20:00:00	7	Dirección del viento	6.44
83739	7	Sololá	701	Sololá	4	Finca Santa Victoria	1	Enero	2023-01-13T00:00:00	2024-11-08T20:00:00	1	Precipitación	0
83740	7	Sololá	701	Sololá	4	Finca Santa Victoria	1	Enero	2023-01-13T00:00:00	2024-11-08T20:00:00	8	Radiación solar	0
83741	7	Sololá	701	Sololá	4	Finca Santa Victoria	1	Enero	2023-01-13T00:00:00	2024-11-08T21:00:00	2	Temperatura media	10.2
83742	7	Sololá	701	Sololá	4	Finca Santa Victoria	1	Enero	2023-01-13T00:00:00	2024-11-08T21:00:00	4	Temperatura máxima	10.4
83743	7	Sololá	701	Sololá	4	Finca Santa Victoria	1	Enero	2023-01-13T00:00:00	2024-11-08T21:00:00	3	Temperatura mínima	10.2
83744	7	Sololá	701	Sololá	4	Finca Santa Victoria	1	Enero	2023-01-13T00:00:00	2024-11-08T21:00:00	5	Humedad	88
83745	7	Sololá	701	Sololá	4	Finca Santa Victoria	1	Enero	2023-01-13T00:00:00	2024-11-08T21:00:00	6	Velocidad del viento	8
83746	7	Sololá	701	Sololá	4	Finca Santa Victoria	1	Enero	2023-01-13T00:00:00	2024-11-08T21:00:00	7	Dirección del viento	8.05
83747	7	Sololá	701	Sololá	4	Finca Santa Victoria	1	Enero	2023-01-13T00:00:00	2024-11-08T21:00:00	1	Precipitación	0
83748	7	Sololá	701	Sololá	4	Finca Santa Victoria	1	Enero	2023-01-13T00:00:00	2024-11-08T21:00:00	8	Radiación solar	0
83749	7	Sololá	701	Sololá	4	Finca Santa Victoria	1	Enero	2023-01-13T00:00:00	2024-11-08T22:00:00	2	Temperatura media	9.7
83750	7	Sololá	701	Sololá	4	Finca Santa Victoria	1	Enero	2023-01-13T00:00:00	2024-11-08T22:00:00	4	Temperatura máxima	10.2
83751	7	Sololá	701	Sololá	4	Finca Santa Victoria	1	Enero	2023-01-13T00:00:00	2024-11-08T22:00:00	3	Temperatura mínima	9.7
83752	7	Sololá	701	Sololá	4	Finca Santa Victoria	1	Enero	2023-01-13T00:00:00	2024-11-08T22:00:00	5	Humedad	89
83753	7	Sololá	701	Sololá	4	Finca Santa Victoria	1	Enero	2023-01-13T00:00:00	2024-11-08T22:00:00	6	Velocidad del viento	6.4
83754	7	Sololá	701	Sololá	4	Finca Santa Victoria	1	Enero	2023-01-13T00:00:00	2024-11-08T22:00:00	7	Dirección del viento	6.44
83755	7	Sololá	701	Sololá	4	Finca Santa Victoria	1	Enero	2023-01-13T00:00:00	2024-11-08T22:00:00	1	Precipitación	0
83756	7	Sololá	701	Sololá	4	Finca Santa Victoria	1	Enero	2023-01-13T00:00:00	2024-11-08T22:00:00	8	Radiación solar	0
83757	7	Sololá	701	Sololá	4	Finca Santa Victoria	1	Enero	2023-01-13T00:00:00	2024-11-08T23:00:00	2	Temperatura media	9.9
83758	7	Sololá	701	Sololá	4	Finca Santa Victoria	1	Enero	2023-01-13T00:00:00	2024-11-08T23:00:00	4	Temperatura máxima	9.9
83759	7	Sololá	701	Sololá	4	Finca Santa Victoria	1	Enero	2023-01-13T00:00:00	2024-11-08T23:00:00	3	Temperatura mínima	9.6
83760	7	Sololá	701	Sololá	4	Finca Santa Victoria	1	Enero	2023-01-13T00:00:00	2024-11-08T23:00:00	5	Humedad	86
83761	7	Sololá	701	Sololá	4	Finca Santa Victoria	1	Enero	2023-01-13T00:00:00	2024-11-08T23:00:00	6	Velocidad del viento	6.4
83762	7	Sololá	701	Sololá	4	Finca Santa Victoria	1	Enero	2023-01-13T00:00:00	2024-11-08T23:00:00	7	Dirección del viento	6.44
83763	7	Sololá	701	Sololá	4	Finca Santa Victoria	1	Enero	2023-01-13T00:00:00	2024-11-08T23:00:00	1	Precipitación	0
83764	7	Sololá	701	Sololá	4	Finca Santa Victoria	1	Enero	2023-01-13T00:00:00	2024-11-08T23:00:00	8	Radiación solar	0
83765	7	Sololá	701	Sololá	4	Finca Santa Victoria	1	Enero	2023-01-14T00:00:00	2024-11-08T00:00:00	2	Temperatura media	10.1
83766	7	Sololá	701	Sololá	4	Finca Santa Victoria	1	Enero	2023-01-14T00:00:00	2024-11-08T00:00:00	4	Temperatura máxima	10.1
83767	7	Sololá	701	Sololá	4	Finca Santa Victoria	1	Enero	2023-01-14T00:00:00	2024-11-08T00:00:00	3	Temperatura mínima	9.8
83768	7	Sololá	701	Sololá	4	Finca Santa Victoria	1	Enero	2023-01-14T00:00:00	2024-11-08T00:00:00	5	Humedad	84
83769	7	Sololá	701	Sololá	4	Finca Santa Victoria	1	Enero	2023-01-14T00:00:00	2024-11-08T00:00:00	6	Velocidad del viento	4.8
83770	7	Sololá	701	Sololá	4	Finca Santa Victoria	1	Enero	2023-01-14T00:00:00	2024-11-08T00:00:00	7	Dirección del viento	4.83
83771	7	Sololá	701	Sololá	4	Finca Santa Victoria	1	Enero	2023-01-14T00:00:00	2024-11-08T00:00:00	1	Precipitación	0
83772	7	Sololá	701	Sololá	4	Finca Santa Victoria	1	Enero	2023-01-14T00:00:00	2024-11-08T00:00:00	8	Radiación solar	0
83773	7	Sololá	701	Sololá	4	Finca Santa Victoria	1	Enero	2023-01-14T00:00:00	2024-11-08T01:00:00	2	Temperatura media	10
83774	7	Sololá	701	Sololá	4	Finca Santa Victoria	1	Enero	2023-01-14T00:00:00	2024-11-08T01:00:00	4	Temperatura máxima	10.2
83775	7	Sololá	701	Sololá	4	Finca Santa Victoria	1	Enero	2023-01-14T00:00:00	2024-11-08T01:00:00	3	Temperatura mínima	9.8
83776	7	Sololá	701	Sololá	4	Finca Santa Victoria	1	Enero	2023-01-14T00:00:00	2024-11-08T01:00:00	5	Humedad	84
83777	7	Sololá	701	Sololá	4	Finca Santa Victoria	1	Enero	2023-01-14T00:00:00	2024-11-08T01:00:00	6	Velocidad del viento	6.4
83778	7	Sololá	701	Sololá	4	Finca Santa Victoria	1	Enero	2023-01-14T00:00:00	2024-11-08T01:00:00	7	Dirección del viento	6.44
83779	7	Sololá	701	Sololá	4	Finca Santa Victoria	1	Enero	2023-01-14T00:00:00	2024-11-08T01:00:00	1	Precipitación	0
83780	7	Sololá	701	Sololá	4	Finca Santa Victoria	1	Enero	2023-01-14T00:00:00	2024-11-08T01:00:00	8	Radiación solar	0
83781	7	Sololá	701	Sololá	4	Finca Santa Victoria	1	Enero	2023-01-14T00:00:00	2024-11-08T02:00:00	2	Temperatura media	9.8
83782	7	Sololá	701	Sololá	4	Finca Santa Victoria	1	Enero	2023-01-14T00:00:00	2024-11-08T02:00:00	4	Temperatura máxima	10.1
83783	7	Sololá	701	Sololá	4	Finca Santa Victoria	1	Enero	2023-01-14T00:00:00	2024-11-08T02:00:00	3	Temperatura mínima	9.7
83784	7	Sololá	701	Sololá	4	Finca Santa Victoria	1	Enero	2023-01-14T00:00:00	2024-11-08T02:00:00	5	Humedad	85
83785	7	Sololá	701	Sololá	4	Finca Santa Victoria	1	Enero	2023-01-14T00:00:00	2024-11-08T02:00:00	6	Velocidad del viento	6.4
83786	7	Sololá	701	Sololá	4	Finca Santa Victoria	1	Enero	2023-01-14T00:00:00	2024-11-08T02:00:00	7	Dirección del viento	6.44
83787	7	Sololá	701	Sololá	4	Finca Santa Victoria	1	Enero	2023-01-14T00:00:00	2024-11-08T02:00:00	1	Precipitación	0
83788	7	Sololá	701	Sololá	4	Finca Santa Victoria	1	Enero	2023-01-14T00:00:00	2024-11-08T02:00:00	8	Radiación solar	0
83789	7	Sololá	701	Sololá	4	Finca Santa Victoria	1	Enero	2023-01-14T00:00:00	2024-11-08T03:00:00	2	Temperatura media	9.3
83790	7	Sololá	701	Sololá	4	Finca Santa Victoria	1	Enero	2023-01-14T00:00:00	2024-11-08T03:00:00	4	Temperatura máxima	9.8
83791	7	Sololá	701	Sololá	4	Finca Santa Victoria	1	Enero	2023-01-14T00:00:00	2024-11-08T03:00:00	3	Temperatura mínima	9.3
83792	7	Sololá	701	Sololá	4	Finca Santa Victoria	1	Enero	2023-01-14T00:00:00	2024-11-08T03:00:00	5	Humedad	86
83793	7	Sololá	701	Sololá	4	Finca Santa Victoria	1	Enero	2023-01-14T00:00:00	2024-11-08T03:00:00	6	Velocidad del viento	6.4
83794	7	Sololá	701	Sololá	4	Finca Santa Victoria	1	Enero	2023-01-14T00:00:00	2024-11-08T03:00:00	7	Dirección del viento	6.44
83795	7	Sololá	701	Sololá	4	Finca Santa Victoria	1	Enero	2023-01-14T00:00:00	2024-11-08T03:00:00	1	Precipitación	0
83796	7	Sololá	701	Sololá	4	Finca Santa Victoria	1	Enero	2023-01-14T00:00:00	2024-11-08T03:00:00	8	Radiación solar	0
83797	7	Sololá	701	Sololá	4	Finca Santa Victoria	1	Enero	2023-01-14T00:00:00	2024-11-08T04:00:00	2	Temperatura media	9.3
83798	7	Sololá	701	Sololá	4	Finca Santa Victoria	1	Enero	2023-01-14T00:00:00	2024-11-08T04:00:00	4	Temperatura máxima	9.4
83799	7	Sololá	701	Sololá	4	Finca Santa Victoria	1	Enero	2023-01-14T00:00:00	2024-11-08T04:00:00	3	Temperatura mínima	9.2
83800	7	Sololá	701	Sololá	4	Finca Santa Victoria	1	Enero	2023-01-14T00:00:00	2024-11-08T04:00:00	5	Humedad	86
83801	7	Sololá	701	Sololá	4	Finca Santa Victoria	1	Enero	2023-01-14T00:00:00	2024-11-08T04:00:00	6	Velocidad del viento	4.8
83802	7	Sololá	701	Sololá	4	Finca Santa Victoria	1	Enero	2023-01-14T00:00:00	2024-11-08T04:00:00	7	Dirección del viento	4.83
83803	7	Sololá	701	Sololá	4	Finca Santa Victoria	1	Enero	2023-01-14T00:00:00	2024-11-08T04:00:00	1	Precipitación	0
83804	7	Sololá	701	Sololá	4	Finca Santa Victoria	1	Enero	2023-01-14T00:00:00	2024-11-08T04:00:00	8	Radiación solar	0
83805	7	Sololá	701	Sololá	4	Finca Santa Victoria	1	Enero	2023-01-14T00:00:00	2024-11-08T05:00:00	2	Temperatura media	8.9
83806	7	Sololá	701	Sololá	4	Finca Santa Victoria	1	Enero	2023-01-14T00:00:00	2024-11-08T05:00:00	4	Temperatura máxima	9.3
83807	7	Sololá	701	Sololá	4	Finca Santa Victoria	1	Enero	2023-01-14T00:00:00	2024-11-08T05:00:00	3	Temperatura mínima	8.9
83808	7	Sololá	701	Sololá	4	Finca Santa Victoria	1	Enero	2023-01-14T00:00:00	2024-11-08T05:00:00	5	Humedad	89
83809	7	Sololá	701	Sololá	4	Finca Santa Victoria	1	Enero	2023-01-14T00:00:00	2024-11-08T05:00:00	6	Velocidad del viento	6.4
83810	7	Sololá	701	Sololá	4	Finca Santa Victoria	1	Enero	2023-01-14T00:00:00	2024-11-08T05:00:00	7	Dirección del viento	6.44
83811	7	Sololá	701	Sololá	4	Finca Santa Victoria	1	Enero	2023-01-14T00:00:00	2024-11-08T05:00:00	1	Precipitación	0
83812	7	Sololá	701	Sololá	4	Finca Santa Victoria	1	Enero	2023-01-14T00:00:00	2024-11-08T05:00:00	8	Radiación solar	0
83813	7	Sololá	701	Sololá	4	Finca Santa Victoria	1	Enero	2023-01-14T00:00:00	2024-11-08T06:00:00	2	Temperatura media	8.8
83814	7	Sololá	701	Sololá	4	Finca Santa Victoria	1	Enero	2023-01-14T00:00:00	2024-11-08T06:00:00	4	Temperatura máxima	9.1
83815	7	Sololá	701	Sololá	4	Finca Santa Victoria	1	Enero	2023-01-14T00:00:00	2024-11-08T06:00:00	3	Temperatura mínima	8.8
83816	7	Sololá	701	Sololá	4	Finca Santa Victoria	1	Enero	2023-01-14T00:00:00	2024-11-08T06:00:00	5	Humedad	91
83817	7	Sololá	701	Sololá	4	Finca Santa Victoria	1	Enero	2023-01-14T00:00:00	2024-11-08T06:00:00	6	Velocidad del viento	6.4
83818	7	Sololá	701	Sololá	4	Finca Santa Victoria	1	Enero	2023-01-14T00:00:00	2024-11-08T06:00:00	7	Dirección del viento	6.44
83819	7	Sololá	701	Sololá	4	Finca Santa Victoria	1	Enero	2023-01-14T00:00:00	2024-11-08T06:00:00	1	Precipitación	0
83820	7	Sololá	701	Sololá	4	Finca Santa Victoria	1	Enero	2023-01-14T00:00:00	2024-11-08T06:00:00	8	Radiación solar	0
83821	7	Sololá	701	Sololá	4	Finca Santa Victoria	1	Enero	2023-01-14T00:00:00	2024-11-08T07:00:00	2	Temperatura media	8.6
83822	7	Sololá	701	Sololá	4	Finca Santa Victoria	1	Enero	2023-01-14T00:00:00	2024-11-08T07:00:00	4	Temperatura máxima	8.8
83823	7	Sololá	701	Sololá	4	Finca Santa Victoria	1	Enero	2023-01-14T00:00:00	2024-11-08T07:00:00	3	Temperatura mínima	8.5
83824	7	Sololá	701	Sololá	4	Finca Santa Victoria	1	Enero	2023-01-14T00:00:00	2024-11-08T07:00:00	5	Humedad	90
83825	7	Sololá	701	Sololá	4	Finca Santa Victoria	1	Enero	2023-01-14T00:00:00	2024-11-08T07:00:00	6	Velocidad del viento	6.4
83826	7	Sololá	701	Sololá	4	Finca Santa Victoria	1	Enero	2023-01-14T00:00:00	2024-11-08T07:00:00	7	Dirección del viento	6.44
83827	7	Sololá	701	Sololá	4	Finca Santa Victoria	1	Enero	2023-01-14T00:00:00	2024-11-08T07:00:00	1	Precipitación	0
83828	7	Sololá	701	Sololá	4	Finca Santa Victoria	1	Enero	2023-01-14T00:00:00	2024-11-08T07:00:00	8	Radiación solar	4
83829	7	Sololá	701	Sololá	4	Finca Santa Victoria	1	Enero	2023-01-14T00:00:00	2024-11-08T08:00:00	2	Temperatura media	9.7
83830	7	Sololá	701	Sololá	4	Finca Santa Victoria	1	Enero	2023-01-14T00:00:00	2024-11-08T08:00:00	4	Temperatura máxima	9.7
83831	7	Sololá	701	Sololá	4	Finca Santa Victoria	1	Enero	2023-01-14T00:00:00	2024-11-08T08:00:00	3	Temperatura mínima	8.6
83832	7	Sololá	701	Sololá	4	Finca Santa Victoria	1	Enero	2023-01-14T00:00:00	2024-11-08T08:00:00	5	Humedad	86
83833	7	Sololá	701	Sololá	4	Finca Santa Victoria	1	Enero	2023-01-14T00:00:00	2024-11-08T08:00:00	6	Velocidad del viento	6.4
83834	7	Sololá	701	Sololá	4	Finca Santa Victoria	1	Enero	2023-01-14T00:00:00	2024-11-08T08:00:00	7	Dirección del viento	6.44
83835	7	Sololá	701	Sololá	4	Finca Santa Victoria	1	Enero	2023-01-14T00:00:00	2024-11-08T08:00:00	1	Precipitación	0
83836	7	Sololá	701	Sololá	4	Finca Santa Victoria	1	Enero	2023-01-14T00:00:00	2024-11-08T08:00:00	8	Radiación solar	32
83837	7	Sololá	701	Sololá	4	Finca Santa Victoria	1	Enero	2023-01-14T00:00:00	2024-11-08T09:00:00	2	Temperatura media	11.2
83838	7	Sololá	701	Sololá	4	Finca Santa Victoria	1	Enero	2023-01-14T00:00:00	2024-11-08T09:00:00	4	Temperatura máxima	11.2
83839	7	Sololá	701	Sololá	4	Finca Santa Victoria	1	Enero	2023-01-14T00:00:00	2024-11-08T09:00:00	3	Temperatura mínima	9.7
83840	7	Sololá	701	Sololá	4	Finca Santa Victoria	1	Enero	2023-01-14T00:00:00	2024-11-08T09:00:00	5	Humedad	80
83841	7	Sololá	701	Sololá	4	Finca Santa Victoria	1	Enero	2023-01-14T00:00:00	2024-11-08T09:00:00	6	Velocidad del viento	4.8
83842	7	Sololá	701	Sololá	4	Finca Santa Victoria	1	Enero	2023-01-14T00:00:00	2024-11-08T09:00:00	7	Dirección del viento	4.83
83843	7	Sololá	701	Sololá	4	Finca Santa Victoria	1	Enero	2023-01-14T00:00:00	2024-11-08T09:00:00	1	Precipitación	0
83844	7	Sololá	701	Sololá	4	Finca Santa Victoria	1	Enero	2023-01-14T00:00:00	2024-11-08T09:00:00	8	Radiación solar	201
83845	7	Sololá	701	Sololá	4	Finca Santa Victoria	1	Enero	2023-01-14T00:00:00	2024-11-08T10:00:00	2	Temperatura media	13
83846	7	Sololá	701	Sololá	4	Finca Santa Victoria	1	Enero	2023-01-14T00:00:00	2024-11-08T10:00:00	4	Temperatura máxima	13
83847	7	Sololá	701	Sololá	4	Finca Santa Victoria	1	Enero	2023-01-14T00:00:00	2024-11-08T10:00:00	3	Temperatura mínima	11.2
83848	7	Sololá	701	Sololá	4	Finca Santa Victoria	1	Enero	2023-01-14T00:00:00	2024-11-08T10:00:00	5	Humedad	74
83849	7	Sololá	701	Sololá	4	Finca Santa Victoria	1	Enero	2023-01-14T00:00:00	2024-11-08T10:00:00	6	Velocidad del viento	6.4
83850	7	Sololá	701	Sololá	4	Finca Santa Victoria	1	Enero	2023-01-14T00:00:00	2024-11-08T10:00:00	7	Dirección del viento	6.44
83851	7	Sololá	701	Sololá	4	Finca Santa Victoria	1	Enero	2023-01-14T00:00:00	2024-11-08T10:00:00	1	Precipitación	0
83852	7	Sololá	701	Sololá	4	Finca Santa Victoria	1	Enero	2023-01-14T00:00:00	2024-11-08T10:00:00	8	Radiación solar	516
83853	7	Sololá	701	Sololá	4	Finca Santa Victoria	1	Enero	2023-01-14T00:00:00	2024-11-08T11:00:00	2	Temperatura media	15.1
83854	7	Sololá	701	Sololá	4	Finca Santa Victoria	1	Enero	2023-01-14T00:00:00	2024-11-08T11:00:00	4	Temperatura máxima	15.1
83855	7	Sololá	701	Sololá	4	Finca Santa Victoria	1	Enero	2023-01-14T00:00:00	2024-11-08T11:00:00	3	Temperatura mínima	13
83856	7	Sololá	701	Sololá	4	Finca Santa Victoria	1	Enero	2023-01-14T00:00:00	2024-11-08T11:00:00	5	Humedad	65
83857	7	Sololá	701	Sololá	4	Finca Santa Victoria	1	Enero	2023-01-14T00:00:00	2024-11-08T11:00:00	6	Velocidad del viento	4.8
83858	7	Sololá	701	Sololá	4	Finca Santa Victoria	1	Enero	2023-01-14T00:00:00	2024-11-08T11:00:00	7	Dirección del viento	4.83
83859	7	Sololá	701	Sololá	4	Finca Santa Victoria	1	Enero	2023-01-14T00:00:00	2024-11-08T11:00:00	1	Precipitación	0
83860	7	Sololá	701	Sololá	4	Finca Santa Victoria	1	Enero	2023-01-14T00:00:00	2024-11-08T11:00:00	8	Radiación solar	776
83861	7	Sololá	701	Sololá	4	Finca Santa Victoria	1	Enero	2023-01-14T00:00:00	2024-11-08T12:00:00	2	Temperatura media	17.3
83862	7	Sololá	701	Sololá	4	Finca Santa Victoria	1	Enero	2023-01-14T00:00:00	2024-11-08T12:00:00	4	Temperatura máxima	17.3
83863	7	Sololá	701	Sololá	4	Finca Santa Victoria	1	Enero	2023-01-14T00:00:00	2024-11-08T12:00:00	3	Temperatura mínima	15.1
83864	7	Sololá	701	Sololá	4	Finca Santa Victoria	1	Enero	2023-01-14T00:00:00	2024-11-08T12:00:00	5	Humedad	54
83865	7	Sololá	701	Sololá	4	Finca Santa Victoria	1	Enero	2023-01-14T00:00:00	2024-11-08T12:00:00	6	Velocidad del viento	3.2
83866	7	Sololá	701	Sololá	4	Finca Santa Victoria	1	Enero	2023-01-14T00:00:00	2024-11-08T12:00:00	7	Dirección del viento	3.22
83867	7	Sololá	701	Sololá	4	Finca Santa Victoria	1	Enero	2023-01-14T00:00:00	2024-11-08T12:00:00	1	Precipitación	0
83868	7	Sololá	701	Sololá	4	Finca Santa Victoria	1	Enero	2023-01-14T00:00:00	2024-11-08T12:00:00	8	Radiación solar	866
83869	7	Sololá	701	Sololá	4	Finca Santa Victoria	1	Enero	2023-01-14T00:00:00	2024-11-08T13:00:00	2	Temperatura media	19.1
83870	7	Sololá	701	Sololá	4	Finca Santa Victoria	1	Enero	2023-01-14T00:00:00	2024-11-08T13:00:00	4	Temperatura máxima	19.1
83871	7	Sololá	701	Sololá	4	Finca Santa Victoria	1	Enero	2023-01-14T00:00:00	2024-11-08T13:00:00	3	Temperatura mínima	17.3
83872	7	Sololá	701	Sololá	4	Finca Santa Victoria	1	Enero	2023-01-14T00:00:00	2024-11-08T13:00:00	5	Humedad	45
83873	7	Sololá	701	Sololá	4	Finca Santa Victoria	1	Enero	2023-01-14T00:00:00	2024-11-08T13:00:00	6	Velocidad del viento	4.8
83874	7	Sololá	701	Sololá	4	Finca Santa Victoria	1	Enero	2023-01-14T00:00:00	2024-11-08T13:00:00	7	Dirección del viento	4.83
83875	7	Sololá	701	Sololá	4	Finca Santa Victoria	1	Enero	2023-01-14T00:00:00	2024-11-08T13:00:00	1	Precipitación	0
83876	7	Sololá	701	Sololá	4	Finca Santa Victoria	1	Enero	2023-01-14T00:00:00	2024-11-08T13:00:00	8	Radiación solar	880
83877	7	Sololá	701	Sololá	4	Finca Santa Victoria	1	Enero	2023-01-14T00:00:00	2024-11-08T14:00:00	2	Temperatura media	19.7
83878	7	Sololá	701	Sololá	4	Finca Santa Victoria	1	Enero	2023-01-14T00:00:00	2024-11-08T14:00:00	4	Temperatura máxima	19.7
83879	7	Sololá	701	Sololá	4	Finca Santa Victoria	1	Enero	2023-01-14T00:00:00	2024-11-08T14:00:00	3	Temperatura mínima	18.8
83880	7	Sololá	701	Sololá	4	Finca Santa Victoria	1	Enero	2023-01-14T00:00:00	2024-11-08T14:00:00	5	Humedad	47
83881	7	Sololá	701	Sololá	4	Finca Santa Victoria	1	Enero	2023-01-14T00:00:00	2024-11-08T14:00:00	6	Velocidad del viento	3.2
83882	7	Sololá	701	Sololá	4	Finca Santa Victoria	1	Enero	2023-01-14T00:00:00	2024-11-08T14:00:00	7	Dirección del viento	3.22
83883	7	Sololá	701	Sololá	4	Finca Santa Victoria	1	Enero	2023-01-14T00:00:00	2024-11-08T14:00:00	1	Precipitación	0
83884	7	Sololá	701	Sololá	4	Finca Santa Victoria	1	Enero	2023-01-14T00:00:00	2024-11-08T14:00:00	8	Radiación solar	816
83885	7	Sololá	701	Sololá	4	Finca Santa Victoria	1	Enero	2023-01-14T00:00:00	2024-11-08T15:00:00	2	Temperatura media	19.2
83886	7	Sololá	701	Sololá	4	Finca Santa Victoria	1	Enero	2023-01-14T00:00:00	2024-11-08T15:00:00	4	Temperatura máxima	19.7
83887	7	Sololá	701	Sololá	4	Finca Santa Victoria	1	Enero	2023-01-14T00:00:00	2024-11-08T15:00:00	3	Temperatura mínima	18.8
83888	7	Sololá	701	Sololá	4	Finca Santa Victoria	1	Enero	2023-01-14T00:00:00	2024-11-08T15:00:00	5	Humedad	47
83889	7	Sololá	701	Sololá	4	Finca Santa Victoria	1	Enero	2023-01-14T00:00:00	2024-11-08T15:00:00	6	Velocidad del viento	3.2
83890	7	Sololá	701	Sololá	4	Finca Santa Victoria	1	Enero	2023-01-14T00:00:00	2024-11-08T15:00:00	7	Dirección del viento	3.22
83891	7	Sololá	701	Sololá	4	Finca Santa Victoria	1	Enero	2023-01-14T00:00:00	2024-11-08T15:00:00	1	Precipitación	0
83892	7	Sololá	701	Sololá	4	Finca Santa Victoria	1	Enero	2023-01-14T00:00:00	2024-11-08T15:00:00	8	Radiación solar	428
83893	7	Sololá	701	Sololá	4	Finca Santa Victoria	1	Enero	2023-01-14T00:00:00	2024-11-08T16:00:00	2	Temperatura media	18.6
83894	7	Sololá	701	Sololá	4	Finca Santa Victoria	1	Enero	2023-01-14T00:00:00	2024-11-08T16:00:00	4	Temperatura máxima	19.3
83895	7	Sololá	701	Sololá	4	Finca Santa Victoria	1	Enero	2023-01-14T00:00:00	2024-11-08T16:00:00	3	Temperatura mínima	18.6
83896	7	Sololá	701	Sololá	4	Finca Santa Victoria	1	Enero	2023-01-14T00:00:00	2024-11-08T16:00:00	5	Humedad	48
83897	7	Sololá	701	Sololá	4	Finca Santa Victoria	1	Enero	2023-01-14T00:00:00	2024-11-08T16:00:00	6	Velocidad del viento	3.2
83898	7	Sololá	701	Sololá	4	Finca Santa Victoria	1	Enero	2023-01-14T00:00:00	2024-11-08T16:00:00	7	Dirección del viento	3.22
83899	7	Sololá	701	Sololá	4	Finca Santa Victoria	1	Enero	2023-01-14T00:00:00	2024-11-08T16:00:00	1	Precipitación	0
83900	7	Sololá	701	Sololá	4	Finca Santa Victoria	1	Enero	2023-01-14T00:00:00	2024-11-08T16:00:00	8	Radiación solar	479
83901	7	Sololá	701	Sololá	4	Finca Santa Victoria	1	Enero	2023-01-14T00:00:00	2024-11-08T17:00:00	2	Temperatura media	16.6
83902	7	Sololá	701	Sololá	4	Finca Santa Victoria	1	Enero	2023-01-14T00:00:00	2024-11-08T17:00:00	4	Temperatura máxima	18.9
83903	7	Sololá	701	Sololá	4	Finca Santa Victoria	1	Enero	2023-01-14T00:00:00	2024-11-08T17:00:00	3	Temperatura mínima	16.6
83904	7	Sololá	701	Sololá	4	Finca Santa Victoria	1	Enero	2023-01-14T00:00:00	2024-11-08T17:00:00	5	Humedad	55
83905	7	Sololá	701	Sololá	4	Finca Santa Victoria	1	Enero	2023-01-14T00:00:00	2024-11-08T17:00:00	6	Velocidad del viento	1.6
83906	7	Sololá	701	Sololá	4	Finca Santa Victoria	1	Enero	2023-01-14T00:00:00	2024-11-08T17:00:00	7	Dirección del viento	1.61
83907	7	Sololá	701	Sololá	4	Finca Santa Victoria	1	Enero	2023-01-14T00:00:00	2024-11-08T17:00:00	1	Precipitación	0
83908	7	Sololá	701	Sololá	4	Finca Santa Victoria	1	Enero	2023-01-14T00:00:00	2024-11-08T17:00:00	8	Radiación solar	245
83909	7	Sololá	701	Sololá	4	Finca Santa Victoria	1	Enero	2023-01-14T00:00:00	2024-11-08T18:00:00	2	Temperatura media	11.9
83910	7	Sololá	701	Sololá	4	Finca Santa Victoria	1	Enero	2023-01-14T00:00:00	2024-11-08T18:00:00	4	Temperatura máxima	16.6
83911	7	Sololá	701	Sololá	4	Finca Santa Victoria	1	Enero	2023-01-14T00:00:00	2024-11-08T18:00:00	3	Temperatura mínima	11.9
83912	7	Sololá	701	Sololá	4	Finca Santa Victoria	1	Enero	2023-01-14T00:00:00	2024-11-08T18:00:00	5	Humedad	69
83913	7	Sololá	701	Sololá	4	Finca Santa Victoria	1	Enero	2023-01-14T00:00:00	2024-11-08T18:00:00	6	Velocidad del viento	3.2
83914	7	Sololá	701	Sololá	4	Finca Santa Victoria	1	Enero	2023-01-14T00:00:00	2024-11-08T18:00:00	7	Dirección del viento	3.22
83915	7	Sololá	701	Sololá	4	Finca Santa Victoria	1	Enero	2023-01-14T00:00:00	2024-11-08T18:00:00	1	Precipitación	0
83916	7	Sololá	701	Sololá	4	Finca Santa Victoria	1	Enero	2023-01-14T00:00:00	2024-11-08T18:00:00	8	Radiación solar	39
83917	7	Sololá	701	Sololá	4	Finca Santa Victoria	1	Enero	2023-01-14T00:00:00	2024-11-08T19:00:00	2	Temperatura media	10.3
83918	7	Sololá	701	Sololá	4	Finca Santa Victoria	1	Enero	2023-01-14T00:00:00	2024-11-08T19:00:00	4	Temperatura máxima	11.9
83919	7	Sololá	701	Sololá	4	Finca Santa Victoria	1	Enero	2023-01-14T00:00:00	2024-11-08T19:00:00	3	Temperatura mínima	10.3
83920	7	Sololá	701	Sololá	4	Finca Santa Victoria	1	Enero	2023-01-14T00:00:00	2024-11-08T19:00:00	5	Humedad	72
83921	7	Sololá	701	Sololá	4	Finca Santa Victoria	1	Enero	2023-01-14T00:00:00	2024-11-08T19:00:00	6	Velocidad del viento	1.6
83922	7	Sololá	701	Sololá	4	Finca Santa Victoria	1	Enero	2023-01-14T00:00:00	2024-11-08T19:00:00	7	Dirección del viento	1.61
83923	7	Sololá	701	Sololá	4	Finca Santa Victoria	1	Enero	2023-01-14T00:00:00	2024-11-08T19:00:00	1	Precipitación	0
83924	7	Sololá	701	Sololá	4	Finca Santa Victoria	1	Enero	2023-01-14T00:00:00	2024-11-08T19:00:00	8	Radiación solar	0
83925	7	Sololá	701	Sololá	4	Finca Santa Victoria	1	Enero	2023-01-14T00:00:00	2024-11-08T20:00:00	2	Temperatura media	8.7
83926	7	Sololá	701	Sololá	4	Finca Santa Victoria	1	Enero	2023-01-14T00:00:00	2024-11-08T20:00:00	4	Temperatura máxima	10.3
83927	7	Sololá	701	Sololá	4	Finca Santa Victoria	1	Enero	2023-01-14T00:00:00	2024-11-08T20:00:00	3	Temperatura mínima	8.7
83928	7	Sololá	701	Sololá	4	Finca Santa Victoria	1	Enero	2023-01-14T00:00:00	2024-11-08T20:00:00	5	Humedad	81
83929	7	Sololá	701	Sololá	4	Finca Santa Victoria	1	Enero	2023-01-14T00:00:00	2024-11-08T20:00:00	6	Velocidad del viento	1.6
83930	7	Sololá	701	Sololá	4	Finca Santa Victoria	1	Enero	2023-01-14T00:00:00	2024-11-08T20:00:00	7	Dirección del viento	1.61
83931	7	Sololá	701	Sololá	4	Finca Santa Victoria	1	Enero	2023-01-14T00:00:00	2024-11-08T20:00:00	1	Precipitación	0
83932	7	Sololá	701	Sololá	4	Finca Santa Victoria	1	Enero	2023-01-14T00:00:00	2024-11-08T20:00:00	8	Radiación solar	0
83933	7	Sololá	701	Sololá	4	Finca Santa Victoria	1	Enero	2023-01-14T00:00:00	2024-11-08T21:00:00	2	Temperatura media	7.5
83934	7	Sololá	701	Sololá	4	Finca Santa Victoria	1	Enero	2023-01-14T00:00:00	2024-11-08T21:00:00	4	Temperatura máxima	8.8
83935	7	Sololá	701	Sololá	4	Finca Santa Victoria	1	Enero	2023-01-14T00:00:00	2024-11-08T21:00:00	3	Temperatura mínima	7.3
83936	7	Sololá	701	Sololá	4	Finca Santa Victoria	1	Enero	2023-01-14T00:00:00	2024-11-08T21:00:00	5	Humedad	72
83937	7	Sololá	701	Sololá	4	Finca Santa Victoria	1	Enero	2023-01-14T00:00:00	2024-11-08T21:00:00	6	Velocidad del viento	3.2
83938	7	Sololá	701	Sololá	4	Finca Santa Victoria	1	Enero	2023-01-14T00:00:00	2024-11-08T21:00:00	7	Dirección del viento	3.22
83939	7	Sololá	701	Sololá	4	Finca Santa Victoria	1	Enero	2023-01-14T00:00:00	2024-11-08T21:00:00	1	Precipitación	0
83940	7	Sololá	701	Sololá	4	Finca Santa Victoria	1	Enero	2023-01-14T00:00:00	2024-11-08T21:00:00	8	Radiación solar	0
83941	7	Sololá	701	Sololá	4	Finca Santa Victoria	1	Enero	2023-01-14T00:00:00	2024-11-08T22:00:00	2	Temperatura media	6
83942	7	Sololá	701	Sololá	4	Finca Santa Victoria	1	Enero	2023-01-14T00:00:00	2024-11-08T22:00:00	4	Temperatura máxima	7.6
83943	7	Sololá	701	Sololá	4	Finca Santa Victoria	1	Enero	2023-01-14T00:00:00	2024-11-08T22:00:00	3	Temperatura mínima	6
83944	7	Sololá	701	Sololá	4	Finca Santa Victoria	1	Enero	2023-01-14T00:00:00	2024-11-08T22:00:00	5	Humedad	93
83945	7	Sololá	701	Sololá	4	Finca Santa Victoria	1	Enero	2023-01-14T00:00:00	2024-11-08T22:00:00	6	Velocidad del viento	3.2
83946	7	Sololá	701	Sololá	4	Finca Santa Victoria	1	Enero	2023-01-14T00:00:00	2024-11-08T22:00:00	7	Dirección del viento	3.22
83947	7	Sololá	701	Sololá	4	Finca Santa Victoria	1	Enero	2023-01-14T00:00:00	2024-11-08T22:00:00	1	Precipitación	0
83948	7	Sololá	701	Sololá	4	Finca Santa Victoria	1	Enero	2023-01-14T00:00:00	2024-11-08T22:00:00	8	Radiación solar	0
83949	7	Sololá	701	Sololá	4	Finca Santa Victoria	1	Enero	2023-01-14T00:00:00	2024-11-08T23:00:00	2	Temperatura media	5.4
83950	7	Sololá	701	Sololá	4	Finca Santa Victoria	1	Enero	2023-01-14T00:00:00	2024-11-08T23:00:00	4	Temperatura máxima	6
83951	7	Sololá	701	Sololá	4	Finca Santa Victoria	1	Enero	2023-01-14T00:00:00	2024-11-08T23:00:00	3	Temperatura mínima	5.4
83952	7	Sololá	701	Sololá	4	Finca Santa Victoria	1	Enero	2023-01-14T00:00:00	2024-11-08T23:00:00	5	Humedad	94
83953	7	Sololá	701	Sololá	4	Finca Santa Victoria	1	Enero	2023-01-14T00:00:00	2024-11-08T23:00:00	6	Velocidad del viento	3.2
83954	7	Sololá	701	Sololá	4	Finca Santa Victoria	1	Enero	2023-01-14T00:00:00	2024-11-08T23:00:00	7	Dirección del viento	3.22
83955	7	Sololá	701	Sololá	4	Finca Santa Victoria	1	Enero	2023-01-14T00:00:00	2024-11-08T23:00:00	1	Precipitación	0
83956	7	Sololá	701	Sololá	4	Finca Santa Victoria	1	Enero	2023-01-14T00:00:00	2024-11-08T23:00:00	8	Radiación solar	0
83957	7	Sololá	701	Sololá	4	Finca Santa Victoria	1	Enero	2023-01-15T00:00:00	2024-11-08T00:00:00	2	Temperatura media	4.8
83958	7	Sololá	701	Sololá	4	Finca Santa Victoria	1	Enero	2023-01-15T00:00:00	2024-11-08T00:00:00	4	Temperatura máxima	5.4
83959	7	Sololá	701	Sololá	4	Finca Santa Victoria	1	Enero	2023-01-15T00:00:00	2024-11-08T00:00:00	3	Temperatura mínima	4.8
83960	7	Sololá	701	Sololá	4	Finca Santa Victoria	1	Enero	2023-01-15T00:00:00	2024-11-08T00:00:00	5	Humedad	94
83961	7	Sololá	701	Sololá	4	Finca Santa Victoria	1	Enero	2023-01-15T00:00:00	2024-11-08T00:00:00	6	Velocidad del viento	1.6
83962	7	Sololá	701	Sololá	4	Finca Santa Victoria	1	Enero	2023-01-15T00:00:00	2024-11-08T00:00:00	7	Dirección del viento	1.61
83963	7	Sololá	701	Sololá	4	Finca Santa Victoria	1	Enero	2023-01-15T00:00:00	2024-11-08T00:00:00	1	Precipitación	0
83964	7	Sololá	701	Sololá	4	Finca Santa Victoria	1	Enero	2023-01-15T00:00:00	2024-11-08T00:00:00	8	Radiación solar	0
83965	7	Sololá	701	Sololá	4	Finca Santa Victoria	1	Enero	2023-01-15T00:00:00	2024-11-08T01:00:00	2	Temperatura media	6.9
83966	7	Sololá	701	Sololá	4	Finca Santa Victoria	1	Enero	2023-01-15T00:00:00	2024-11-08T01:00:00	4	Temperatura máxima	6.9
83967	7	Sololá	701	Sololá	4	Finca Santa Victoria	1	Enero	2023-01-15T00:00:00	2024-11-08T01:00:00	3	Temperatura mínima	4.7
83968	7	Sololá	701	Sololá	4	Finca Santa Victoria	1	Enero	2023-01-15T00:00:00	2024-11-08T01:00:00	5	Humedad	63
83969	7	Sololá	701	Sololá	4	Finca Santa Victoria	1	Enero	2023-01-15T00:00:00	2024-11-08T01:00:00	6	Velocidad del viento	3.2
83970	7	Sololá	701	Sololá	4	Finca Santa Victoria	1	Enero	2023-01-15T00:00:00	2024-11-08T01:00:00	7	Dirección del viento	3.22
83971	7	Sololá	701	Sololá	4	Finca Santa Victoria	1	Enero	2023-01-15T00:00:00	2024-11-08T01:00:00	1	Precipitación	0
83972	7	Sololá	701	Sololá	4	Finca Santa Victoria	1	Enero	2023-01-15T00:00:00	2024-11-08T01:00:00	8	Radiación solar	0
83973	7	Sololá	701	Sololá	4	Finca Santa Victoria	1	Enero	2023-01-15T00:00:00	2024-11-08T02:00:00	2	Temperatura media	8.7
83974	7	Sololá	701	Sololá	4	Finca Santa Victoria	1	Enero	2023-01-15T00:00:00	2024-11-08T02:00:00	4	Temperatura máxima	8.8
83975	7	Sololá	701	Sololá	4	Finca Santa Victoria	1	Enero	2023-01-15T00:00:00	2024-11-08T02:00:00	3	Temperatura mínima	6.9
83976	7	Sololá	701	Sololá	4	Finca Santa Victoria	1	Enero	2023-01-15T00:00:00	2024-11-08T02:00:00	5	Humedad	57
83977	7	Sololá	701	Sololá	4	Finca Santa Victoria	1	Enero	2023-01-15T00:00:00	2024-11-08T02:00:00	6	Velocidad del viento	3.2
83978	7	Sololá	701	Sololá	4	Finca Santa Victoria	1	Enero	2023-01-15T00:00:00	2024-11-08T02:00:00	7	Dirección del viento	3.22
83979	7	Sololá	701	Sololá	4	Finca Santa Victoria	1	Enero	2023-01-15T00:00:00	2024-11-08T02:00:00	1	Precipitación	0
83980	7	Sololá	701	Sololá	4	Finca Santa Victoria	1	Enero	2023-01-15T00:00:00	2024-11-08T02:00:00	8	Radiación solar	0
83981	7	Sololá	701	Sololá	4	Finca Santa Victoria	1	Enero	2023-01-15T00:00:00	2024-11-08T03:00:00	2	Temperatura media	9.5
83982	7	Sololá	701	Sololá	4	Finca Santa Victoria	1	Enero	2023-01-15T00:00:00	2024-11-08T03:00:00	4	Temperatura máxima	9.9
83983	7	Sololá	701	Sololá	4	Finca Santa Victoria	1	Enero	2023-01-15T00:00:00	2024-11-08T03:00:00	3	Temperatura mínima	8.7
83984	7	Sololá	701	Sololá	4	Finca Santa Victoria	1	Enero	2023-01-15T00:00:00	2024-11-08T03:00:00	5	Humedad	54
83985	7	Sololá	701	Sololá	4	Finca Santa Victoria	1	Enero	2023-01-15T00:00:00	2024-11-08T03:00:00	6	Velocidad del viento	3.2
83986	7	Sololá	701	Sololá	4	Finca Santa Victoria	1	Enero	2023-01-15T00:00:00	2024-11-08T03:00:00	7	Dirección del viento	3.22
83987	7	Sololá	701	Sololá	4	Finca Santa Victoria	1	Enero	2023-01-15T00:00:00	2024-11-08T03:00:00	1	Precipitación	0
83988	7	Sololá	701	Sololá	4	Finca Santa Victoria	1	Enero	2023-01-15T00:00:00	2024-11-08T03:00:00	8	Radiación solar	0
83989	7	Sololá	701	Sololá	4	Finca Santa Victoria	1	Enero	2023-01-15T00:00:00	2024-11-08T04:00:00	2	Temperatura media	8.5
83990	7	Sololá	701	Sololá	4	Finca Santa Victoria	1	Enero	2023-01-15T00:00:00	2024-11-08T04:00:00	4	Temperatura máxima	9.5
83991	7	Sololá	701	Sololá	4	Finca Santa Victoria	1	Enero	2023-01-15T00:00:00	2024-11-08T04:00:00	3	Temperatura mínima	8.4
83992	7	Sololá	701	Sololá	4	Finca Santa Victoria	1	Enero	2023-01-15T00:00:00	2024-11-08T04:00:00	5	Humedad	47
83993	7	Sololá	701	Sololá	4	Finca Santa Victoria	1	Enero	2023-01-15T00:00:00	2024-11-08T04:00:00	6	Velocidad del viento	3.2
83994	7	Sololá	701	Sololá	4	Finca Santa Victoria	1	Enero	2023-01-15T00:00:00	2024-11-08T04:00:00	7	Dirección del viento	3.22
83995	7	Sololá	701	Sololá	4	Finca Santa Victoria	1	Enero	2023-01-15T00:00:00	2024-11-08T04:00:00	1	Precipitación	0
83996	7	Sololá	701	Sololá	4	Finca Santa Victoria	1	Enero	2023-01-15T00:00:00	2024-11-08T04:00:00	8	Radiación solar	0
83997	7	Sololá	701	Sololá	4	Finca Santa Victoria	1	Enero	2023-01-15T00:00:00	2024-11-08T05:00:00	2	Temperatura media	9.7
83998	7	Sololá	701	Sololá	4	Finca Santa Victoria	1	Enero	2023-01-15T00:00:00	2024-11-08T05:00:00	4	Temperatura máxima	9.8
83999	7	Sololá	701	Sololá	4	Finca Santa Victoria	1	Enero	2023-01-15T00:00:00	2024-11-08T05:00:00	3	Temperatura mínima	8.5
84000	7	Sololá	701	Sololá	4	Finca Santa Victoria	1	Enero	2023-01-15T00:00:00	2024-11-08T05:00:00	5	Humedad	46
84001	7	Sololá	701	Sololá	4	Finca Santa Victoria	1	Enero	2023-01-15T00:00:00	2024-11-08T05:00:00	6	Velocidad del viento	1.6
84002	7	Sololá	701	Sololá	4	Finca Santa Victoria	1	Enero	2023-01-15T00:00:00	2024-11-08T05:00:00	7	Dirección del viento	1.61
84003	7	Sololá	701	Sololá	4	Finca Santa Victoria	1	Enero	2023-01-15T00:00:00	2024-11-08T05:00:00	1	Precipitación	0
84004	7	Sololá	701	Sololá	4	Finca Santa Victoria	1	Enero	2023-01-15T00:00:00	2024-11-08T05:00:00	8	Radiación solar	0
84005	7	Sololá	701	Sololá	4	Finca Santa Victoria	1	Enero	2023-01-15T00:00:00	2024-11-08T06:00:00	2	Temperatura media	9.7
84006	7	Sololá	701	Sololá	4	Finca Santa Victoria	1	Enero	2023-01-15T00:00:00	2024-11-08T06:00:00	4	Temperatura máxima	9.8
84007	7	Sololá	701	Sololá	4	Finca Santa Victoria	1	Enero	2023-01-15T00:00:00	2024-11-08T06:00:00	3	Temperatura mínima	9.2
84008	7	Sololá	701	Sololá	4	Finca Santa Victoria	1	Enero	2023-01-15T00:00:00	2024-11-08T06:00:00	5	Humedad	49
84009	7	Sololá	701	Sololá	4	Finca Santa Victoria	1	Enero	2023-01-15T00:00:00	2024-11-08T06:00:00	6	Velocidad del viento	1.6
84010	7	Sololá	701	Sololá	4	Finca Santa Victoria	1	Enero	2023-01-15T00:00:00	2024-11-08T06:00:00	7	Dirección del viento	1.61
84011	7	Sololá	701	Sololá	4	Finca Santa Victoria	1	Enero	2023-01-15T00:00:00	2024-11-08T06:00:00	1	Precipitación	0
84012	7	Sololá	701	Sololá	4	Finca Santa Victoria	1	Enero	2023-01-15T00:00:00	2024-11-08T06:00:00	8	Radiación solar	0
84013	7	Sololá	701	Sololá	4	Finca Santa Victoria	1	Enero	2023-01-15T00:00:00	2024-11-08T07:00:00	2	Temperatura media	10.4
84014	7	Sololá	701	Sololá	4	Finca Santa Victoria	1	Enero	2023-01-15T00:00:00	2024-11-08T07:00:00	4	Temperatura máxima	10.4
84015	7	Sololá	701	Sololá	4	Finca Santa Victoria	1	Enero	2023-01-15T00:00:00	2024-11-08T07:00:00	3	Temperatura mínima	9.7
84016	7	Sololá	701	Sololá	4	Finca Santa Victoria	1	Enero	2023-01-15T00:00:00	2024-11-08T07:00:00	5	Humedad	49
84017	7	Sololá	701	Sololá	4	Finca Santa Victoria	1	Enero	2023-01-15T00:00:00	2024-11-08T07:00:00	6	Velocidad del viento	1.6
84018	7	Sololá	701	Sololá	4	Finca Santa Victoria	1	Enero	2023-01-15T00:00:00	2024-11-08T07:00:00	7	Dirección del viento	1.61
84019	7	Sololá	701	Sololá	4	Finca Santa Victoria	1	Enero	2023-01-15T00:00:00	2024-11-08T07:00:00	1	Precipitación	0
84020	7	Sololá	701	Sololá	4	Finca Santa Victoria	1	Enero	2023-01-15T00:00:00	2024-11-08T07:00:00	8	Radiación solar	3
84021	7	Sololá	701	Sololá	4	Finca Santa Victoria	1	Enero	2023-01-15T00:00:00	2024-11-08T08:00:00	2	Temperatura media	12.1
84022	7	Sololá	701	Sololá	4	Finca Santa Victoria	1	Enero	2023-01-15T00:00:00	2024-11-08T08:00:00	4	Temperatura máxima	12.1
84023	7	Sololá	701	Sololá	4	Finca Santa Victoria	1	Enero	2023-01-15T00:00:00	2024-11-08T08:00:00	3	Temperatura mínima	10.4
84024	7	Sololá	701	Sololá	4	Finca Santa Victoria	1	Enero	2023-01-15T00:00:00	2024-11-08T08:00:00	5	Humedad	57
84025	7	Sololá	701	Sololá	4	Finca Santa Victoria	1	Enero	2023-01-15T00:00:00	2024-11-08T08:00:00	6	Velocidad del viento	1.6
84026	7	Sololá	701	Sololá	4	Finca Santa Victoria	1	Enero	2023-01-15T00:00:00	2024-11-08T08:00:00	7	Dirección del viento	1.61
84027	7	Sololá	701	Sololá	4	Finca Santa Victoria	1	Enero	2023-01-15T00:00:00	2024-11-08T08:00:00	1	Precipitación	0
84028	7	Sololá	701	Sololá	4	Finca Santa Victoria	1	Enero	2023-01-15T00:00:00	2024-11-08T08:00:00	8	Radiación solar	32
84029	7	Sololá	701	Sololá	4	Finca Santa Victoria	1	Enero	2023-01-15T00:00:00	2024-11-08T09:00:00	2	Temperatura media	17.1
84030	7	Sololá	701	Sololá	4	Finca Santa Victoria	1	Enero	2023-01-15T00:00:00	2024-11-08T09:00:00	4	Temperatura máxima	17.1
84031	7	Sololá	701	Sololá	4	Finca Santa Victoria	1	Enero	2023-01-15T00:00:00	2024-11-08T09:00:00	3	Temperatura mínima	12.1
84032	7	Sololá	701	Sololá	4	Finca Santa Victoria	1	Enero	2023-01-15T00:00:00	2024-11-08T09:00:00	5	Humedad	49
84033	7	Sololá	701	Sololá	4	Finca Santa Victoria	1	Enero	2023-01-15T00:00:00	2024-11-08T09:00:00	6	Velocidad del viento	0
84034	7	Sololá	701	Sololá	4	Finca Santa Victoria	1	Enero	2023-01-15T00:00:00	2024-11-08T09:00:00	7	Dirección del viento	0
84035	7	Sololá	701	Sololá	4	Finca Santa Victoria	1	Enero	2023-01-15T00:00:00	2024-11-08T09:00:00	1	Precipitación	0
84036	7	Sololá	701	Sololá	4	Finca Santa Victoria	1	Enero	2023-01-15T00:00:00	2024-11-08T09:00:00	8	Radiación solar	185
84037	7	Sololá	701	Sololá	4	Finca Santa Victoria	1	Enero	2023-01-15T00:00:00	2024-11-08T10:00:00	2	Temperatura media	18.7
84038	7	Sololá	701	Sololá	4	Finca Santa Victoria	1	Enero	2023-01-15T00:00:00	2024-11-08T10:00:00	4	Temperatura máxima	18.7
84039	7	Sololá	701	Sololá	4	Finca Santa Victoria	1	Enero	2023-01-15T00:00:00	2024-11-08T10:00:00	3	Temperatura mínima	17.1
84040	7	Sololá	701	Sololá	4	Finca Santa Victoria	1	Enero	2023-01-15T00:00:00	2024-11-08T10:00:00	5	Humedad	43
84041	7	Sololá	701	Sololá	4	Finca Santa Victoria	1	Enero	2023-01-15T00:00:00	2024-11-08T10:00:00	6	Velocidad del viento	1.6
84042	7	Sololá	701	Sololá	4	Finca Santa Victoria	1	Enero	2023-01-15T00:00:00	2024-11-08T10:00:00	7	Dirección del viento	1.61
84043	7	Sololá	701	Sololá	4	Finca Santa Victoria	1	Enero	2023-01-15T00:00:00	2024-11-08T10:00:00	1	Precipitación	0
84044	7	Sololá	701	Sololá	4	Finca Santa Victoria	1	Enero	2023-01-15T00:00:00	2024-11-08T10:00:00	8	Radiación solar	489
84045	7	Sololá	701	Sololá	4	Finca Santa Victoria	1	Enero	2023-01-15T00:00:00	2024-11-08T11:00:00	2	Temperatura media	18.9
84046	7	Sololá	701	Sololá	4	Finca Santa Victoria	1	Enero	2023-01-15T00:00:00	2024-11-08T11:00:00	4	Temperatura máxima	18.9
84047	7	Sololá	701	Sololá	4	Finca Santa Victoria	1	Enero	2023-01-15T00:00:00	2024-11-08T11:00:00	3	Temperatura mínima	18.2
84048	7	Sololá	701	Sololá	4	Finca Santa Victoria	1	Enero	2023-01-15T00:00:00	2024-11-08T11:00:00	5	Humedad	42
84049	7	Sololá	701	Sololá	4	Finca Santa Victoria	1	Enero	2023-01-15T00:00:00	2024-11-08T11:00:00	6	Velocidad del viento	3.2
84050	7	Sololá	701	Sololá	4	Finca Santa Victoria	1	Enero	2023-01-15T00:00:00	2024-11-08T11:00:00	7	Dirección del viento	3.22
84051	7	Sololá	701	Sololá	4	Finca Santa Victoria	1	Enero	2023-01-15T00:00:00	2024-11-08T11:00:00	1	Precipitación	0
84052	7	Sololá	701	Sololá	4	Finca Santa Victoria	1	Enero	2023-01-15T00:00:00	2024-11-08T11:00:00	8	Radiación solar	785
84053	7	Sololá	701	Sololá	4	Finca Santa Victoria	1	Enero	2023-01-15T00:00:00	2024-11-08T12:00:00	2	Temperatura media	19.1
84054	7	Sololá	701	Sololá	4	Finca Santa Victoria	1	Enero	2023-01-15T00:00:00	2024-11-08T12:00:00	4	Temperatura máxima	19.6
84055	7	Sololá	701	Sololá	4	Finca Santa Victoria	1	Enero	2023-01-15T00:00:00	2024-11-08T12:00:00	3	Temperatura mínima	18.8
84056	7	Sololá	701	Sololá	4	Finca Santa Victoria	1	Enero	2023-01-15T00:00:00	2024-11-08T12:00:00	5	Humedad	38
84057	7	Sololá	701	Sololá	4	Finca Santa Victoria	1	Enero	2023-01-15T00:00:00	2024-11-08T12:00:00	6	Velocidad del viento	4.8
84058	7	Sololá	701	Sololá	4	Finca Santa Victoria	1	Enero	2023-01-15T00:00:00	2024-11-08T12:00:00	7	Dirección del viento	4.83
84059	7	Sololá	701	Sololá	4	Finca Santa Victoria	1	Enero	2023-01-15T00:00:00	2024-11-08T12:00:00	1	Precipitación	0
84060	7	Sololá	701	Sololá	4	Finca Santa Victoria	1	Enero	2023-01-15T00:00:00	2024-11-08T12:00:00	8	Radiación solar	869
84061	7	Sololá	701	Sololá	4	Finca Santa Victoria	1	Enero	2023-01-15T00:00:00	2024-11-08T13:00:00	2	Temperatura media	17.2
84062	7	Sololá	701	Sololá	4	Finca Santa Victoria	1	Enero	2023-01-15T00:00:00	2024-11-08T13:00:00	4	Temperatura máxima	19.2
84063	7	Sololá	701	Sololá	4	Finca Santa Victoria	1	Enero	2023-01-15T00:00:00	2024-11-08T13:00:00	3	Temperatura mínima	17.2
84064	7	Sololá	701	Sololá	4	Finca Santa Victoria	1	Enero	2023-01-15T00:00:00	2024-11-08T13:00:00	5	Humedad	62
84065	7	Sololá	701	Sololá	4	Finca Santa Victoria	1	Enero	2023-01-15T00:00:00	2024-11-08T13:00:00	6	Velocidad del viento	4.8
84066	7	Sololá	701	Sololá	4	Finca Santa Victoria	1	Enero	2023-01-15T00:00:00	2024-11-08T13:00:00	7	Dirección del viento	4.83
84067	7	Sololá	701	Sololá	4	Finca Santa Victoria	1	Enero	2023-01-15T00:00:00	2024-11-08T13:00:00	1	Precipitación	0
84068	7	Sololá	701	Sololá	4	Finca Santa Victoria	1	Enero	2023-01-15T00:00:00	2024-11-08T13:00:00	8	Radiación solar	876
84069	7	Sololá	701	Sololá	4	Finca Santa Victoria	1	Enero	2023-01-15T00:00:00	2024-11-08T14:00:00	2	Temperatura media	16.9
84070	7	Sololá	701	Sololá	4	Finca Santa Victoria	1	Enero	2023-01-15T00:00:00	2024-11-08T14:00:00	4	Temperatura máxima	17.4
84071	7	Sololá	701	Sololá	4	Finca Santa Victoria	1	Enero	2023-01-15T00:00:00	2024-11-08T14:00:00	3	Temperatura mínima	16.8
84072	7	Sololá	701	Sololá	4	Finca Santa Victoria	1	Enero	2023-01-15T00:00:00	2024-11-08T14:00:00	5	Humedad	70
84073	7	Sololá	701	Sololá	4	Finca Santa Victoria	1	Enero	2023-01-15T00:00:00	2024-11-08T14:00:00	6	Velocidad del viento	6.4
84074	7	Sololá	701	Sololá	4	Finca Santa Victoria	1	Enero	2023-01-15T00:00:00	2024-11-08T14:00:00	7	Dirección del viento	6.44
84075	7	Sololá	701	Sololá	4	Finca Santa Victoria	1	Enero	2023-01-15T00:00:00	2024-11-08T14:00:00	1	Precipitación	0
84076	7	Sololá	701	Sololá	4	Finca Santa Victoria	1	Enero	2023-01-15T00:00:00	2024-11-08T14:00:00	8	Radiación solar	802
84077	7	Sololá	701	Sololá	4	Finca Santa Victoria	1	Enero	2023-01-15T00:00:00	2024-11-08T15:00:00	2	Temperatura media	16.4
84078	7	Sololá	701	Sololá	4	Finca Santa Victoria	1	Enero	2023-01-15T00:00:00	2024-11-08T15:00:00	4	Temperatura máxima	16.9
84079	7	Sololá	701	Sololá	4	Finca Santa Victoria	1	Enero	2023-01-15T00:00:00	2024-11-08T15:00:00	3	Temperatura mínima	15.6
84080	7	Sololá	701	Sololá	4	Finca Santa Victoria	1	Enero	2023-01-15T00:00:00	2024-11-08T15:00:00	5	Humedad	75
84081	7	Sololá	701	Sololá	4	Finca Santa Victoria	1	Enero	2023-01-15T00:00:00	2024-11-08T15:00:00	6	Velocidad del viento	4.8
84082	7	Sololá	701	Sololá	4	Finca Santa Victoria	1	Enero	2023-01-15T00:00:00	2024-11-08T15:00:00	7	Dirección del viento	4.83
84083	7	Sololá	701	Sololá	4	Finca Santa Victoria	1	Enero	2023-01-15T00:00:00	2024-11-08T15:00:00	1	Precipitación	0
84084	7	Sololá	701	Sololá	4	Finca Santa Victoria	1	Enero	2023-01-15T00:00:00	2024-11-08T15:00:00	8	Radiación solar	405
84085	7	Sololá	701	Sololá	4	Finca Santa Victoria	1	Enero	2023-01-15T00:00:00	2024-11-08T16:00:00	2	Temperatura media	15
84086	7	Sololá	701	Sololá	4	Finca Santa Victoria	1	Enero	2023-01-15T00:00:00	2024-11-08T16:00:00	4	Temperatura máxima	16.6
84087	7	Sololá	701	Sololá	4	Finca Santa Victoria	1	Enero	2023-01-15T00:00:00	2024-11-08T16:00:00	3	Temperatura mínima	14.6
84088	7	Sololá	701	Sololá	4	Finca Santa Victoria	1	Enero	2023-01-15T00:00:00	2024-11-08T16:00:00	5	Humedad	83
84089	7	Sololá	701	Sololá	4	Finca Santa Victoria	1	Enero	2023-01-15T00:00:00	2024-11-08T16:00:00	6	Velocidad del viento	4.8
84090	7	Sololá	701	Sololá	4	Finca Santa Victoria	1	Enero	2023-01-15T00:00:00	2024-11-08T16:00:00	7	Dirección del viento	4.83
84091	7	Sololá	701	Sololá	4	Finca Santa Victoria	1	Enero	2023-01-15T00:00:00	2024-11-08T16:00:00	1	Precipitación	0
84092	7	Sololá	701	Sololá	4	Finca Santa Victoria	1	Enero	2023-01-15T00:00:00	2024-11-08T16:00:00	8	Radiación solar	176
84093	7	Sololá	701	Sololá	4	Finca Santa Victoria	1	Enero	2023-01-15T00:00:00	2024-11-08T17:00:00	2	Temperatura media	13.9
84094	7	Sololá	701	Sololá	4	Finca Santa Victoria	1	Enero	2023-01-15T00:00:00	2024-11-08T17:00:00	4	Temperatura máxima	15.4
84095	7	Sololá	701	Sololá	4	Finca Santa Victoria	1	Enero	2023-01-15T00:00:00	2024-11-08T17:00:00	3	Temperatura mínima	13.9
84096	7	Sololá	701	Sololá	4	Finca Santa Victoria	1	Enero	2023-01-15T00:00:00	2024-11-08T17:00:00	5	Humedad	86
84097	7	Sololá	701	Sololá	4	Finca Santa Victoria	1	Enero	2023-01-15T00:00:00	2024-11-08T17:00:00	6	Velocidad del viento	3.2
84098	7	Sololá	701	Sololá	4	Finca Santa Victoria	1	Enero	2023-01-15T00:00:00	2024-11-08T17:00:00	7	Dirección del viento	3.22
84099	7	Sololá	701	Sololá	4	Finca Santa Victoria	1	Enero	2023-01-15T00:00:00	2024-11-08T17:00:00	1	Precipitación	0
84100	7	Sololá	701	Sololá	4	Finca Santa Victoria	1	Enero	2023-01-15T00:00:00	2024-11-08T17:00:00	8	Radiación solar	138
84101	7	Sololá	701	Sololá	4	Finca Santa Victoria	1	Enero	2023-01-15T00:00:00	2024-11-08T18:00:00	2	Temperatura media	12.5
84102	7	Sololá	701	Sololá	4	Finca Santa Victoria	1	Enero	2023-01-15T00:00:00	2024-11-08T18:00:00	4	Temperatura máxima	13.9
84103	7	Sololá	701	Sololá	4	Finca Santa Victoria	1	Enero	2023-01-15T00:00:00	2024-11-08T18:00:00	3	Temperatura mínima	12.5
84104	7	Sololá	701	Sololá	4	Finca Santa Victoria	1	Enero	2023-01-15T00:00:00	2024-11-08T18:00:00	5	Humedad	93
84105	7	Sololá	701	Sololá	4	Finca Santa Victoria	1	Enero	2023-01-15T00:00:00	2024-11-08T18:00:00	6	Velocidad del viento	1.6
84106	7	Sololá	701	Sololá	4	Finca Santa Victoria	1	Enero	2023-01-15T00:00:00	2024-11-08T18:00:00	7	Dirección del viento	1.61
84107	7	Sololá	701	Sololá	4	Finca Santa Victoria	1	Enero	2023-01-15T00:00:00	2024-11-08T18:00:00	1	Precipitación	0
84108	7	Sololá	701	Sololá	4	Finca Santa Victoria	1	Enero	2023-01-15T00:00:00	2024-11-08T18:00:00	8	Radiación solar	17
84109	7	Sololá	701	Sololá	4	Finca Santa Victoria	1	Enero	2023-01-15T00:00:00	2024-11-08T19:00:00	2	Temperatura media	11.6
84110	7	Sololá	701	Sololá	4	Finca Santa Victoria	1	Enero	2023-01-15T00:00:00	2024-11-08T19:00:00	4	Temperatura máxima	12.5
84111	7	Sololá	701	Sololá	4	Finca Santa Victoria	1	Enero	2023-01-15T00:00:00	2024-11-08T19:00:00	3	Temperatura mínima	11.6
84112	7	Sololá	701	Sololá	4	Finca Santa Victoria	1	Enero	2023-01-15T00:00:00	2024-11-08T19:00:00	5	Humedad	95
84113	7	Sololá	701	Sololá	4	Finca Santa Victoria	1	Enero	2023-01-15T00:00:00	2024-11-08T19:00:00	6	Velocidad del viento	0
84114	7	Sololá	701	Sololá	4	Finca Santa Victoria	1	Enero	2023-01-15T00:00:00	2024-11-08T19:00:00	7	Dirección del viento	0
84115	7	Sololá	701	Sololá	4	Finca Santa Victoria	1	Enero	2023-01-15T00:00:00	2024-11-08T19:00:00	1	Precipitación	0
84116	7	Sololá	701	Sololá	4	Finca Santa Victoria	1	Enero	2023-01-15T00:00:00	2024-11-08T19:00:00	8	Radiación solar	0
84117	7	Sololá	701	Sololá	4	Finca Santa Victoria	1	Enero	2023-01-15T00:00:00	2024-11-08T20:00:00	2	Temperatura media	11.3
84118	7	Sololá	701	Sololá	4	Finca Santa Victoria	1	Enero	2023-01-15T00:00:00	2024-11-08T20:00:00	4	Temperatura máxima	11.8
84119	7	Sololá	701	Sololá	4	Finca Santa Victoria	1	Enero	2023-01-15T00:00:00	2024-11-08T20:00:00	3	Temperatura mínima	11.3
84120	7	Sololá	701	Sololá	4	Finca Santa Victoria	1	Enero	2023-01-15T00:00:00	2024-11-08T20:00:00	5	Humedad	95
84121	7	Sololá	701	Sololá	4	Finca Santa Victoria	1	Enero	2023-01-15T00:00:00	2024-11-08T20:00:00	6	Velocidad del viento	0
84122	7	Sololá	701	Sololá	4	Finca Santa Victoria	1	Enero	2023-01-15T00:00:00	2024-11-08T20:00:00	7	Dirección del viento	0
84123	7	Sololá	701	Sololá	4	Finca Santa Victoria	1	Enero	2023-01-15T00:00:00	2024-11-08T20:00:00	1	Precipitación	0
84124	7	Sololá	701	Sololá	4	Finca Santa Victoria	1	Enero	2023-01-15T00:00:00	2024-11-08T20:00:00	8	Radiación solar	0
84125	7	Sololá	701	Sololá	4	Finca Santa Victoria	1	Enero	2023-01-15T00:00:00	2024-11-08T21:00:00	2	Temperatura media	11.4
84126	7	Sololá	701	Sololá	4	Finca Santa Victoria	1	Enero	2023-01-15T00:00:00	2024-11-08T21:00:00	4	Temperatura máxima	11.6
84127	7	Sololá	701	Sololá	4	Finca Santa Victoria	1	Enero	2023-01-15T00:00:00	2024-11-08T21:00:00	3	Temperatura mínima	11.3
84128	7	Sololá	701	Sololá	4	Finca Santa Victoria	1	Enero	2023-01-15T00:00:00	2024-11-08T21:00:00	5	Humedad	95
84129	7	Sololá	701	Sololá	4	Finca Santa Victoria	1	Enero	2023-01-15T00:00:00	2024-11-08T21:00:00	6	Velocidad del viento	0
84130	7	Sololá	701	Sololá	4	Finca Santa Victoria	1	Enero	2023-01-15T00:00:00	2024-11-08T21:00:00	7	Dirección del viento	0
84131	7	Sololá	701	Sololá	4	Finca Santa Victoria	1	Enero	2023-01-15T00:00:00	2024-11-08T21:00:00	1	Precipitación	0
84132	7	Sololá	701	Sololá	4	Finca Santa Victoria	1	Enero	2023-01-15T00:00:00	2024-11-08T21:00:00	8	Radiación solar	0
84133	7	Sololá	701	Sololá	4	Finca Santa Victoria	1	Enero	2023-01-15T00:00:00	2024-11-08T22:00:00	2	Temperatura media	11.4
84134	7	Sololá	701	Sololá	4	Finca Santa Victoria	1	Enero	2023-01-15T00:00:00	2024-11-08T22:00:00	4	Temperatura máxima	11.4
84135	7	Sololá	701	Sololá	4	Finca Santa Victoria	1	Enero	2023-01-15T00:00:00	2024-11-08T22:00:00	3	Temperatura mínima	11.2
84136	7	Sololá	701	Sololá	4	Finca Santa Victoria	1	Enero	2023-01-15T00:00:00	2024-11-08T22:00:00	5	Humedad	97
84137	7	Sololá	701	Sololá	4	Finca Santa Victoria	1	Enero	2023-01-15T00:00:00	2024-11-08T22:00:00	6	Velocidad del viento	0
84138	7	Sololá	701	Sololá	4	Finca Santa Victoria	1	Enero	2023-01-15T00:00:00	2024-11-08T22:00:00	7	Dirección del viento	0
84139	7	Sololá	701	Sololá	4	Finca Santa Victoria	1	Enero	2023-01-15T00:00:00	2024-11-08T22:00:00	1	Precipitación	0
84140	7	Sololá	701	Sololá	4	Finca Santa Victoria	1	Enero	2023-01-15T00:00:00	2024-11-08T22:00:00	8	Radiación solar	0
84141	7	Sololá	701	Sololá	4	Finca Santa Victoria	1	Enero	2023-01-15T00:00:00	2024-11-08T23:00:00	2	Temperatura media	11.8
84142	7	Sololá	701	Sololá	4	Finca Santa Victoria	1	Enero	2023-01-15T00:00:00	2024-11-08T23:00:00	4	Temperatura máxima	11.8
84143	7	Sololá	701	Sololá	4	Finca Santa Victoria	1	Enero	2023-01-15T00:00:00	2024-11-08T23:00:00	3	Temperatura mínima	11.4
84144	7	Sololá	701	Sololá	4	Finca Santa Victoria	1	Enero	2023-01-15T00:00:00	2024-11-08T23:00:00	5	Humedad	97
84145	7	Sololá	701	Sololá	4	Finca Santa Victoria	1	Enero	2023-01-15T00:00:00	2024-11-08T23:00:00	6	Velocidad del viento	0
84146	7	Sololá	701	Sololá	4	Finca Santa Victoria	1	Enero	2023-01-15T00:00:00	2024-11-08T23:00:00	7	Dirección del viento	0
84147	7	Sololá	701	Sololá	4	Finca Santa Victoria	1	Enero	2023-01-15T00:00:00	2024-11-08T23:00:00	1	Precipitación	0
84148	7	Sololá	701	Sololá	4	Finca Santa Victoria	1	Enero	2023-01-15T00:00:00	2024-11-08T23:00:00	8	Radiación solar	0
84149	7	Sololá	701	Sololá	4	Finca Santa Victoria	1	Enero	2023-01-16T00:00:00	2024-11-08T00:00:00	2	Temperatura media	11.8
84150	7	Sololá	701	Sololá	4	Finca Santa Victoria	1	Enero	2023-01-16T00:00:00	2024-11-08T00:00:00	4	Temperatura máxima	11.8
84151	7	Sololá	701	Sololá	4	Finca Santa Victoria	1	Enero	2023-01-16T00:00:00	2024-11-08T00:00:00	3	Temperatura mínima	11.8
84152	7	Sololá	701	Sololá	4	Finca Santa Victoria	1	Enero	2023-01-16T00:00:00	2024-11-08T00:00:00	5	Humedad	97
84153	7	Sololá	701	Sololá	4	Finca Santa Victoria	1	Enero	2023-01-16T00:00:00	2024-11-08T00:00:00	6	Velocidad del viento	0
84154	7	Sololá	701	Sololá	4	Finca Santa Victoria	1	Enero	2023-01-16T00:00:00	2024-11-08T00:00:00	7	Dirección del viento	0
84155	7	Sololá	701	Sololá	4	Finca Santa Victoria	1	Enero	2023-01-16T00:00:00	2024-11-08T00:00:00	1	Precipitación	0
84156	7	Sololá	701	Sololá	4	Finca Santa Victoria	1	Enero	2023-01-16T00:00:00	2024-11-08T00:00:00	8	Radiación solar	0
84157	7	Sololá	701	Sololá	4	Finca Santa Victoria	1	Enero	2023-01-16T00:00:00	2024-11-08T01:00:00	2	Temperatura media	10.7
84158	7	Sololá	701	Sololá	4	Finca Santa Victoria	1	Enero	2023-01-16T00:00:00	2024-11-08T01:00:00	4	Temperatura máxima	11.8
84159	7	Sololá	701	Sololá	4	Finca Santa Victoria	1	Enero	2023-01-16T00:00:00	2024-11-08T01:00:00	3	Temperatura mínima	10.7
84160	7	Sololá	701	Sololá	4	Finca Santa Victoria	1	Enero	2023-01-16T00:00:00	2024-11-08T01:00:00	5	Humedad	95
84161	7	Sololá	701	Sololá	4	Finca Santa Victoria	1	Enero	2023-01-16T00:00:00	2024-11-08T01:00:00	6	Velocidad del viento	0
84162	7	Sololá	701	Sololá	4	Finca Santa Victoria	1	Enero	2023-01-16T00:00:00	2024-11-08T01:00:00	7	Dirección del viento	0
84163	7	Sololá	701	Sololá	4	Finca Santa Victoria	1	Enero	2023-01-16T00:00:00	2024-11-08T01:00:00	1	Precipitación	0
84164	7	Sololá	701	Sololá	4	Finca Santa Victoria	1	Enero	2023-01-16T00:00:00	2024-11-08T01:00:00	8	Radiación solar	0
84165	7	Sololá	701	Sololá	4	Finca Santa Victoria	1	Enero	2023-01-16T00:00:00	2024-11-08T02:00:00	2	Temperatura media	9.9
84166	7	Sololá	701	Sololá	4	Finca Santa Victoria	1	Enero	2023-01-16T00:00:00	2024-11-08T02:00:00	4	Temperatura máxima	10.8
84167	7	Sololá	701	Sololá	4	Finca Santa Victoria	1	Enero	2023-01-16T00:00:00	2024-11-08T02:00:00	3	Temperatura mínima	9.8
84168	7	Sololá	701	Sololá	4	Finca Santa Victoria	1	Enero	2023-01-16T00:00:00	2024-11-08T02:00:00	5	Humedad	95
84169	7	Sololá	701	Sololá	4	Finca Santa Victoria	1	Enero	2023-01-16T00:00:00	2024-11-08T02:00:00	6	Velocidad del viento	0
84170	7	Sololá	701	Sololá	4	Finca Santa Victoria	1	Enero	2023-01-16T00:00:00	2024-11-08T02:00:00	7	Dirección del viento	0
84171	7	Sololá	701	Sololá	4	Finca Santa Victoria	1	Enero	2023-01-16T00:00:00	2024-11-08T02:00:00	1	Precipitación	0
84172	7	Sololá	701	Sololá	4	Finca Santa Victoria	1	Enero	2023-01-16T00:00:00	2024-11-08T02:00:00	8	Radiación solar	0
84173	7	Sololá	701	Sololá	4	Finca Santa Victoria	1	Enero	2023-01-16T00:00:00	2024-11-08T03:00:00	2	Temperatura media	10.4
84174	7	Sololá	701	Sololá	4	Finca Santa Victoria	1	Enero	2023-01-16T00:00:00	2024-11-08T03:00:00	4	Temperatura máxima	10.6
84175	7	Sololá	701	Sololá	4	Finca Santa Victoria	1	Enero	2023-01-16T00:00:00	2024-11-08T03:00:00	3	Temperatura mínima	9.9
84176	7	Sololá	701	Sololá	4	Finca Santa Victoria	1	Enero	2023-01-16T00:00:00	2024-11-08T03:00:00	5	Humedad	96
84177	7	Sololá	701	Sololá	4	Finca Santa Victoria	1	Enero	2023-01-16T00:00:00	2024-11-08T03:00:00	6	Velocidad del viento	0
84178	7	Sololá	701	Sololá	4	Finca Santa Victoria	1	Enero	2023-01-16T00:00:00	2024-11-08T03:00:00	7	Dirección del viento	0
84179	7	Sololá	701	Sololá	4	Finca Santa Victoria	1	Enero	2023-01-16T00:00:00	2024-11-08T03:00:00	1	Precipitación	0
84180	7	Sololá	701	Sololá	4	Finca Santa Victoria	1	Enero	2023-01-16T00:00:00	2024-11-08T03:00:00	8	Radiación solar	0
84181	7	Sololá	701	Sololá	4	Finca Santa Victoria	1	Enero	2023-01-16T00:00:00	2024-11-08T04:00:00	2	Temperatura media	9.7
84182	7	Sololá	701	Sololá	4	Finca Santa Victoria	1	Enero	2023-01-16T00:00:00	2024-11-08T04:00:00	4	Temperatura máxima	10.4
84183	7	Sololá	701	Sololá	4	Finca Santa Victoria	1	Enero	2023-01-16T00:00:00	2024-11-08T04:00:00	3	Temperatura mínima	9.6
84184	7	Sololá	701	Sololá	4	Finca Santa Victoria	1	Enero	2023-01-16T00:00:00	2024-11-08T04:00:00	5	Humedad	93
84185	7	Sololá	701	Sololá	4	Finca Santa Victoria	1	Enero	2023-01-16T00:00:00	2024-11-08T04:00:00	6	Velocidad del viento	0
84186	7	Sololá	701	Sololá	4	Finca Santa Victoria	1	Enero	2023-01-16T00:00:00	2024-11-08T04:00:00	7	Dirección del viento	0
84187	7	Sololá	701	Sololá	4	Finca Santa Victoria	1	Enero	2023-01-16T00:00:00	2024-11-08T04:00:00	1	Precipitación	0
84188	7	Sololá	701	Sololá	4	Finca Santa Victoria	1	Enero	2023-01-16T00:00:00	2024-11-08T04:00:00	8	Radiación solar	0
84189	7	Sololá	701	Sololá	4	Finca Santa Victoria	1	Enero	2023-01-16T00:00:00	2024-11-08T05:00:00	2	Temperatura media	9.4
84190	7	Sololá	701	Sololá	4	Finca Santa Victoria	1	Enero	2023-01-16T00:00:00	2024-11-08T05:00:00	4	Temperatura máxima	9.8
84191	7	Sololá	701	Sololá	4	Finca Santa Victoria	1	Enero	2023-01-16T00:00:00	2024-11-08T05:00:00	3	Temperatura mínima	9.4
84192	7	Sololá	701	Sololá	4	Finca Santa Victoria	1	Enero	2023-01-16T00:00:00	2024-11-08T05:00:00	5	Humedad	90
84193	7	Sololá	701	Sololá	4	Finca Santa Victoria	1	Enero	2023-01-16T00:00:00	2024-11-08T05:00:00	6	Velocidad del viento	1.6
84194	7	Sololá	701	Sololá	4	Finca Santa Victoria	1	Enero	2023-01-16T00:00:00	2024-11-08T05:00:00	7	Dirección del viento	1.61
84195	7	Sololá	701	Sololá	4	Finca Santa Victoria	1	Enero	2023-01-16T00:00:00	2024-11-08T05:00:00	1	Precipitación	0
84196	7	Sololá	701	Sololá	4	Finca Santa Victoria	1	Enero	2023-01-16T00:00:00	2024-11-08T05:00:00	8	Radiación solar	0
84197	7	Sololá	701	Sololá	4	Finca Santa Victoria	1	Enero	2023-01-16T00:00:00	2024-11-08T06:00:00	2	Temperatura media	9.4
84198	7	Sololá	701	Sololá	4	Finca Santa Victoria	1	Enero	2023-01-16T00:00:00	2024-11-08T06:00:00	4	Temperatura máxima	9.5
84199	7	Sololá	701	Sololá	4	Finca Santa Victoria	1	Enero	2023-01-16T00:00:00	2024-11-08T06:00:00	3	Temperatura mínima	9.3
84200	7	Sololá	701	Sololá	4	Finca Santa Victoria	1	Enero	2023-01-16T00:00:00	2024-11-08T06:00:00	5	Humedad	87
84201	7	Sololá	701	Sololá	4	Finca Santa Victoria	1	Enero	2023-01-16T00:00:00	2024-11-08T06:00:00	6	Velocidad del viento	1.6
84202	7	Sololá	701	Sololá	4	Finca Santa Victoria	1	Enero	2023-01-16T00:00:00	2024-11-08T06:00:00	7	Dirección del viento	1.61
84203	7	Sololá	701	Sololá	4	Finca Santa Victoria	1	Enero	2023-01-16T00:00:00	2024-11-08T06:00:00	1	Precipitación	0
84204	7	Sololá	701	Sololá	4	Finca Santa Victoria	1	Enero	2023-01-16T00:00:00	2024-11-08T06:00:00	8	Radiación solar	0
84205	7	Sololá	701	Sololá	4	Finca Santa Victoria	1	Enero	2023-01-16T00:00:00	2024-11-08T07:00:00	2	Temperatura media	9.4
84206	7	Sololá	701	Sololá	4	Finca Santa Victoria	1	Enero	2023-01-16T00:00:00	2024-11-08T07:00:00	4	Temperatura máxima	9.5
84207	7	Sololá	701	Sololá	4	Finca Santa Victoria	1	Enero	2023-01-16T00:00:00	2024-11-08T07:00:00	3	Temperatura mínima	9.2
84208	7	Sololá	701	Sololá	4	Finca Santa Victoria	1	Enero	2023-01-16T00:00:00	2024-11-08T07:00:00	5	Humedad	87
84209	7	Sololá	701	Sololá	4	Finca Santa Victoria	1	Enero	2023-01-16T00:00:00	2024-11-08T07:00:00	6	Velocidad del viento	0
84210	7	Sololá	701	Sololá	4	Finca Santa Victoria	1	Enero	2023-01-16T00:00:00	2024-11-08T07:00:00	7	Dirección del viento	0
84211	7	Sololá	701	Sololá	4	Finca Santa Victoria	1	Enero	2023-01-16T00:00:00	2024-11-08T07:00:00	1	Precipitación	0
84212	7	Sololá	701	Sololá	4	Finca Santa Victoria	1	Enero	2023-01-16T00:00:00	2024-11-08T07:00:00	8	Radiación solar	4
84213	7	Sololá	701	Sololá	4	Finca Santa Victoria	1	Enero	2023-01-16T00:00:00	2024-11-08T08:00:00	2	Temperatura media	11
84214	7	Sololá	701	Sololá	4	Finca Santa Victoria	1	Enero	2023-01-16T00:00:00	2024-11-08T08:00:00	4	Temperatura máxima	11
84215	7	Sololá	701	Sololá	4	Finca Santa Victoria	1	Enero	2023-01-16T00:00:00	2024-11-08T08:00:00	3	Temperatura mínima	9.4
84216	7	Sololá	701	Sololá	4	Finca Santa Victoria	1	Enero	2023-01-16T00:00:00	2024-11-08T08:00:00	5	Humedad	82
84217	7	Sololá	701	Sololá	4	Finca Santa Victoria	1	Enero	2023-01-16T00:00:00	2024-11-08T08:00:00	6	Velocidad del viento	1.6
84218	7	Sololá	701	Sololá	4	Finca Santa Victoria	1	Enero	2023-01-16T00:00:00	2024-11-08T08:00:00	7	Dirección del viento	1.61
84219	7	Sololá	701	Sololá	4	Finca Santa Victoria	1	Enero	2023-01-16T00:00:00	2024-11-08T08:00:00	1	Precipitación	0
84220	7	Sololá	701	Sololá	4	Finca Santa Victoria	1	Enero	2023-01-16T00:00:00	2024-11-08T08:00:00	8	Radiación solar	33
84221	7	Sololá	701	Sololá	4	Finca Santa Victoria	1	Enero	2023-01-16T00:00:00	2024-11-08T09:00:00	2	Temperatura media	13.6
84222	7	Sololá	701	Sololá	4	Finca Santa Victoria	1	Enero	2023-01-16T00:00:00	2024-11-08T09:00:00	4	Temperatura máxima	13.6
84223	7	Sololá	701	Sololá	4	Finca Santa Victoria	1	Enero	2023-01-16T00:00:00	2024-11-08T09:00:00	3	Temperatura mínima	10.9
84224	7	Sololá	701	Sololá	4	Finca Santa Victoria	1	Enero	2023-01-16T00:00:00	2024-11-08T09:00:00	5	Humedad	74
84225	7	Sololá	701	Sololá	4	Finca Santa Victoria	1	Enero	2023-01-16T00:00:00	2024-11-08T09:00:00	6	Velocidad del viento	1.6
84226	7	Sololá	701	Sololá	4	Finca Santa Victoria	1	Enero	2023-01-16T00:00:00	2024-11-08T09:00:00	7	Dirección del viento	1.61
84227	7	Sololá	701	Sololá	4	Finca Santa Victoria	1	Enero	2023-01-16T00:00:00	2024-11-08T09:00:00	1	Precipitación	0
84228	7	Sololá	701	Sololá	4	Finca Santa Victoria	1	Enero	2023-01-16T00:00:00	2024-11-08T09:00:00	8	Radiación solar	178
84229	7	Sololá	701	Sololá	4	Finca Santa Victoria	1	Enero	2023-01-16T00:00:00	2024-11-08T10:00:00	2	Temperatura media	15.6
84230	7	Sololá	701	Sololá	4	Finca Santa Victoria	1	Enero	2023-01-16T00:00:00	2024-11-08T10:00:00	4	Temperatura máxima	15.6
84231	7	Sololá	701	Sololá	4	Finca Santa Victoria	1	Enero	2023-01-16T00:00:00	2024-11-08T10:00:00	3	Temperatura mínima	13.6
84232	7	Sololá	701	Sololá	4	Finca Santa Victoria	1	Enero	2023-01-16T00:00:00	2024-11-08T10:00:00	5	Humedad	71
84233	7	Sololá	701	Sololá	4	Finca Santa Victoria	1	Enero	2023-01-16T00:00:00	2024-11-08T10:00:00	6	Velocidad del viento	3.2
84234	7	Sololá	701	Sololá	4	Finca Santa Victoria	1	Enero	2023-01-16T00:00:00	2024-11-08T10:00:00	7	Dirección del viento	3.22
84235	7	Sololá	701	Sololá	4	Finca Santa Victoria	1	Enero	2023-01-16T00:00:00	2024-11-08T10:00:00	1	Precipitación	0
84236	7	Sololá	701	Sololá	4	Finca Santa Victoria	1	Enero	2023-01-16T00:00:00	2024-11-08T10:00:00	8	Radiación solar	490
84237	7	Sololá	701	Sololá	4	Finca Santa Victoria	1	Enero	2023-01-16T00:00:00	2024-11-08T11:00:00	2	Temperatura media	17
84238	7	Sololá	701	Sololá	4	Finca Santa Victoria	1	Enero	2023-01-16T00:00:00	2024-11-08T11:00:00	4	Temperatura máxima	17.2
84239	7	Sololá	701	Sololá	4	Finca Santa Victoria	1	Enero	2023-01-16T00:00:00	2024-11-08T11:00:00	3	Temperatura mínima	15.4
84240	7	Sololá	701	Sololá	4	Finca Santa Victoria	1	Enero	2023-01-16T00:00:00	2024-11-08T11:00:00	5	Humedad	66
84241	7	Sololá	701	Sololá	4	Finca Santa Victoria	1	Enero	2023-01-16T00:00:00	2024-11-08T11:00:00	6	Velocidad del viento	3.2
84242	7	Sololá	701	Sololá	4	Finca Santa Victoria	1	Enero	2023-01-16T00:00:00	2024-11-08T11:00:00	7	Dirección del viento	3.22
84243	7	Sololá	701	Sololá	4	Finca Santa Victoria	1	Enero	2023-01-16T00:00:00	2024-11-08T11:00:00	1	Precipitación	0
84244	7	Sololá	701	Sololá	4	Finca Santa Victoria	1	Enero	2023-01-16T00:00:00	2024-11-08T11:00:00	8	Radiación solar	773
84245	7	Sololá	701	Sololá	4	Finca Santa Victoria	1	Enero	2023-01-16T00:00:00	2024-11-08T12:00:00	2	Temperatura media	17.6
84246	7	Sololá	701	Sololá	4	Finca Santa Victoria	1	Enero	2023-01-16T00:00:00	2024-11-08T12:00:00	4	Temperatura máxima	17.7
84247	7	Sololá	701	Sololá	4	Finca Santa Victoria	1	Enero	2023-01-16T00:00:00	2024-11-08T12:00:00	3	Temperatura mínima	17
84248	7	Sololá	701	Sololá	4	Finca Santa Victoria	1	Enero	2023-01-16T00:00:00	2024-11-08T12:00:00	5	Humedad	62
84249	7	Sololá	701	Sololá	4	Finca Santa Victoria	1	Enero	2023-01-16T00:00:00	2024-11-08T12:00:00	6	Velocidad del viento	4.8
84250	7	Sololá	701	Sololá	4	Finca Santa Victoria	1	Enero	2023-01-16T00:00:00	2024-11-08T12:00:00	7	Dirección del viento	4.83
84251	7	Sololá	701	Sololá	4	Finca Santa Victoria	1	Enero	2023-01-16T00:00:00	2024-11-08T12:00:00	1	Precipitación	0
84252	7	Sololá	701	Sololá	4	Finca Santa Victoria	1	Enero	2023-01-16T00:00:00	2024-11-08T12:00:00	8	Radiación solar	858
84253	7	Sololá	701	Sololá	4	Finca Santa Victoria	1	Enero	2023-01-16T00:00:00	2024-11-08T13:00:00	2	Temperatura media	17.1
84254	7	Sololá	701	Sololá	4	Finca Santa Victoria	1	Enero	2023-01-16T00:00:00	2024-11-08T13:00:00	4	Temperatura máxima	18
84255	7	Sololá	701	Sololá	4	Finca Santa Victoria	1	Enero	2023-01-16T00:00:00	2024-11-08T13:00:00	3	Temperatura mínima	17.1
84256	7	Sololá	701	Sololá	4	Finca Santa Victoria	1	Enero	2023-01-16T00:00:00	2024-11-08T13:00:00	5	Humedad	74
84257	7	Sololá	701	Sololá	4	Finca Santa Victoria	1	Enero	2023-01-16T00:00:00	2024-11-08T13:00:00	6	Velocidad del viento	4.8
84258	7	Sololá	701	Sololá	4	Finca Santa Victoria	1	Enero	2023-01-16T00:00:00	2024-11-08T13:00:00	7	Dirección del viento	4.83
84259	7	Sololá	701	Sololá	4	Finca Santa Victoria	1	Enero	2023-01-16T00:00:00	2024-11-08T13:00:00	1	Precipitación	0
84260	7	Sololá	701	Sololá	4	Finca Santa Victoria	1	Enero	2023-01-16T00:00:00	2024-11-08T13:00:00	8	Radiación solar	855
84261	7	Sololá	701	Sololá	4	Finca Santa Victoria	1	Enero	2023-01-16T00:00:00	2024-11-08T14:00:00	2	Temperatura media	16.2
84262	7	Sololá	701	Sololá	4	Finca Santa Victoria	1	Enero	2023-01-16T00:00:00	2024-11-08T14:00:00	4	Temperatura máxima	17.7
84263	7	Sololá	701	Sololá	4	Finca Santa Victoria	1	Enero	2023-01-16T00:00:00	2024-11-08T14:00:00	3	Temperatura mínima	16
84264	7	Sololá	701	Sololá	4	Finca Santa Victoria	1	Enero	2023-01-16T00:00:00	2024-11-08T14:00:00	5	Humedad	82
84265	7	Sololá	701	Sololá	4	Finca Santa Victoria	1	Enero	2023-01-16T00:00:00	2024-11-08T14:00:00	6	Velocidad del viento	4.8
84266	7	Sololá	701	Sololá	4	Finca Santa Victoria	1	Enero	2023-01-16T00:00:00	2024-11-08T14:00:00	7	Dirección del viento	4.83
84267	7	Sololá	701	Sololá	4	Finca Santa Victoria	1	Enero	2023-01-16T00:00:00	2024-11-08T14:00:00	1	Precipitación	0
84268	7	Sololá	701	Sololá	4	Finca Santa Victoria	1	Enero	2023-01-16T00:00:00	2024-11-08T14:00:00	8	Radiación solar	704
84269	7	Sololá	701	Sololá	4	Finca Santa Victoria	1	Enero	2023-01-16T00:00:00	2024-11-08T15:00:00	2	Temperatura media	16.3
84270	7	Sololá	701	Sololá	4	Finca Santa Victoria	1	Enero	2023-01-16T00:00:00	2024-11-08T15:00:00	4	Temperatura máxima	16.9
84271	7	Sololá	701	Sololá	4	Finca Santa Victoria	1	Enero	2023-01-16T00:00:00	2024-11-08T15:00:00	3	Temperatura mínima	16.1
84272	7	Sololá	701	Sololá	4	Finca Santa Victoria	1	Enero	2023-01-16T00:00:00	2024-11-08T15:00:00	5	Humedad	81
84273	7	Sololá	701	Sololá	4	Finca Santa Victoria	1	Enero	2023-01-16T00:00:00	2024-11-08T15:00:00	6	Velocidad del viento	4.8
84274	7	Sololá	701	Sololá	4	Finca Santa Victoria	1	Enero	2023-01-16T00:00:00	2024-11-08T15:00:00	7	Dirección del viento	4.83
84275	7	Sololá	701	Sololá	4	Finca Santa Victoria	1	Enero	2023-01-16T00:00:00	2024-11-08T15:00:00	1	Precipitación	0
84276	7	Sololá	701	Sololá	4	Finca Santa Victoria	1	Enero	2023-01-16T00:00:00	2024-11-08T15:00:00	8	Radiación solar	292
84277	7	Sololá	701	Sololá	4	Finca Santa Victoria	1	Enero	2023-01-16T00:00:00	2024-11-08T16:00:00	2	Temperatura media	14.5
84278	7	Sololá	701	Sololá	4	Finca Santa Victoria	1	Enero	2023-01-16T00:00:00	2024-11-08T16:00:00	4	Temperatura máxima	16.3
84279	7	Sololá	701	Sololá	4	Finca Santa Victoria	1	Enero	2023-01-16T00:00:00	2024-11-08T16:00:00	3	Temperatura mínima	14.5
84280	7	Sololá	701	Sololá	4	Finca Santa Victoria	1	Enero	2023-01-16T00:00:00	2024-11-08T16:00:00	5	Humedad	90
84281	7	Sololá	701	Sololá	4	Finca Santa Victoria	1	Enero	2023-01-16T00:00:00	2024-11-08T16:00:00	6	Velocidad del viento	3.2
84282	7	Sololá	701	Sololá	4	Finca Santa Victoria	1	Enero	2023-01-16T00:00:00	2024-11-08T16:00:00	7	Dirección del viento	3.22
84283	7	Sololá	701	Sololá	4	Finca Santa Victoria	1	Enero	2023-01-16T00:00:00	2024-11-08T16:00:00	1	Precipitación	0
84284	7	Sololá	701	Sololá	4	Finca Santa Victoria	1	Enero	2023-01-16T00:00:00	2024-11-08T16:00:00	8	Radiación solar	97
84285	7	Sololá	701	Sololá	4	Finca Santa Victoria	1	Enero	2023-01-16T00:00:00	2024-11-08T17:00:00	2	Temperatura media	13.6
84286	7	Sololá	701	Sololá	4	Finca Santa Victoria	1	Enero	2023-01-16T00:00:00	2024-11-08T17:00:00	4	Temperatura máxima	14.6
84287	7	Sololá	701	Sololá	4	Finca Santa Victoria	1	Enero	2023-01-16T00:00:00	2024-11-08T17:00:00	3	Temperatura mínima	13.6
84288	7	Sololá	701	Sololá	4	Finca Santa Victoria	1	Enero	2023-01-16T00:00:00	2024-11-08T17:00:00	5	Humedad	94
84289	7	Sololá	701	Sololá	4	Finca Santa Victoria	1	Enero	2023-01-16T00:00:00	2024-11-08T17:00:00	6	Velocidad del viento	1.6
84290	7	Sololá	701	Sololá	4	Finca Santa Victoria	1	Enero	2023-01-16T00:00:00	2024-11-08T17:00:00	7	Dirección del viento	1.61
84291	7	Sololá	701	Sololá	4	Finca Santa Victoria	1	Enero	2023-01-16T00:00:00	2024-11-08T17:00:00	1	Precipitación	0
84292	7	Sololá	701	Sololá	4	Finca Santa Victoria	1	Enero	2023-01-16T00:00:00	2024-11-08T17:00:00	8	Radiación solar	24
84293	7	Sololá	701	Sololá	4	Finca Santa Victoria	1	Enero	2023-01-16T00:00:00	2024-11-08T18:00:00	2	Temperatura media	13.3
84294	7	Sololá	701	Sololá	4	Finca Santa Victoria	1	Enero	2023-01-16T00:00:00	2024-11-08T18:00:00	4	Temperatura máxima	13.6
84295	7	Sololá	701	Sololá	4	Finca Santa Victoria	1	Enero	2023-01-16T00:00:00	2024-11-08T18:00:00	3	Temperatura mínima	13.2
84296	7	Sololá	701	Sololá	4	Finca Santa Victoria	1	Enero	2023-01-16T00:00:00	2024-11-08T18:00:00	5	Humedad	95
84297	7	Sololá	701	Sololá	4	Finca Santa Victoria	1	Enero	2023-01-16T00:00:00	2024-11-08T18:00:00	6	Velocidad del viento	1.6
84298	7	Sololá	701	Sololá	4	Finca Santa Victoria	1	Enero	2023-01-16T00:00:00	2024-11-08T18:00:00	7	Dirección del viento	1.61
84299	7	Sololá	701	Sololá	4	Finca Santa Victoria	1	Enero	2023-01-16T00:00:00	2024-11-08T18:00:00	1	Precipitación	0
84300	7	Sololá	701	Sololá	4	Finca Santa Victoria	1	Enero	2023-01-16T00:00:00	2024-11-08T18:00:00	8	Radiación solar	7
84301	7	Sololá	701	Sololá	4	Finca Santa Victoria	1	Enero	2023-01-16T00:00:00	2024-11-08T19:00:00	2	Temperatura media	13.2
84302	7	Sololá	701	Sololá	4	Finca Santa Victoria	1	Enero	2023-01-16T00:00:00	2024-11-08T19:00:00	4	Temperatura máxima	13.3
84303	7	Sololá	701	Sololá	4	Finca Santa Victoria	1	Enero	2023-01-16T00:00:00	2024-11-08T19:00:00	3	Temperatura mínima	13.2
84304	7	Sololá	701	Sololá	4	Finca Santa Victoria	1	Enero	2023-01-16T00:00:00	2024-11-08T19:00:00	5	Humedad	95
84305	7	Sololá	701	Sololá	4	Finca Santa Victoria	1	Enero	2023-01-16T00:00:00	2024-11-08T19:00:00	6	Velocidad del viento	0
84306	7	Sololá	701	Sololá	4	Finca Santa Victoria	1	Enero	2023-01-16T00:00:00	2024-11-08T19:00:00	7	Dirección del viento	0
84307	7	Sololá	701	Sololá	4	Finca Santa Victoria	1	Enero	2023-01-16T00:00:00	2024-11-08T19:00:00	1	Precipitación	0
84308	7	Sololá	701	Sololá	4	Finca Santa Victoria	1	Enero	2023-01-16T00:00:00	2024-11-08T19:00:00	8	Radiación solar	0
84309	7	Sololá	701	Sololá	4	Finca Santa Victoria	1	Enero	2023-01-16T00:00:00	2024-11-08T20:00:00	2	Temperatura media	12.6
84310	7	Sololá	701	Sololá	4	Finca Santa Victoria	1	Enero	2023-01-16T00:00:00	2024-11-08T20:00:00	4	Temperatura máxima	13.2
84311	7	Sololá	701	Sololá	4	Finca Santa Victoria	1	Enero	2023-01-16T00:00:00	2024-11-08T20:00:00	3	Temperatura mínima	12.5
84312	7	Sololá	701	Sololá	4	Finca Santa Victoria	1	Enero	2023-01-16T00:00:00	2024-11-08T20:00:00	5	Humedad	95
84313	7	Sololá	701	Sololá	4	Finca Santa Victoria	1	Enero	2023-01-16T00:00:00	2024-11-08T20:00:00	6	Velocidad del viento	0
84314	7	Sololá	701	Sololá	4	Finca Santa Victoria	1	Enero	2023-01-16T00:00:00	2024-11-08T20:00:00	7	Dirección del viento	0
84315	7	Sololá	701	Sololá	4	Finca Santa Victoria	1	Enero	2023-01-16T00:00:00	2024-11-08T20:00:00	1	Precipitación	0
84316	7	Sololá	701	Sololá	4	Finca Santa Victoria	1	Enero	2023-01-16T00:00:00	2024-11-08T20:00:00	8	Radiación solar	0
84317	7	Sololá	701	Sololá	4	Finca Santa Victoria	1	Enero	2023-01-16T00:00:00	2024-11-08T21:00:00	2	Temperatura media	12.2
84318	7	Sololá	701	Sololá	4	Finca Santa Victoria	1	Enero	2023-01-16T00:00:00	2024-11-08T21:00:00	4	Temperatura máxima	12.6
84319	7	Sololá	701	Sololá	4	Finca Santa Victoria	1	Enero	2023-01-16T00:00:00	2024-11-08T21:00:00	3	Temperatura mínima	12.2
84320	7	Sololá	701	Sololá	4	Finca Santa Victoria	1	Enero	2023-01-16T00:00:00	2024-11-08T21:00:00	5	Humedad	96
84321	7	Sololá	701	Sololá	4	Finca Santa Victoria	1	Enero	2023-01-16T00:00:00	2024-11-08T21:00:00	6	Velocidad del viento	0
84322	7	Sololá	701	Sololá	4	Finca Santa Victoria	1	Enero	2023-01-16T00:00:00	2024-11-08T21:00:00	7	Dirección del viento	0
84323	7	Sololá	701	Sololá	4	Finca Santa Victoria	1	Enero	2023-01-16T00:00:00	2024-11-08T21:00:00	1	Precipitación	0
84324	7	Sololá	701	Sololá	4	Finca Santa Victoria	1	Enero	2023-01-16T00:00:00	2024-11-08T21:00:00	8	Radiación solar	0
84325	7	Sololá	701	Sololá	4	Finca Santa Victoria	1	Enero	2023-01-16T00:00:00	2024-11-08T22:00:00	2	Temperatura media	11.7
84326	7	Sololá	701	Sololá	4	Finca Santa Victoria	1	Enero	2023-01-16T00:00:00	2024-11-08T22:00:00	4	Temperatura máxima	12.3
84327	7	Sololá	701	Sololá	4	Finca Santa Victoria	1	Enero	2023-01-16T00:00:00	2024-11-08T22:00:00	3	Temperatura mínima	11.7
84328	7	Sololá	701	Sololá	4	Finca Santa Victoria	1	Enero	2023-01-16T00:00:00	2024-11-08T22:00:00	5	Humedad	97
84329	7	Sololá	701	Sololá	4	Finca Santa Victoria	1	Enero	2023-01-16T00:00:00	2024-11-08T22:00:00	6	Velocidad del viento	0
84330	7	Sololá	701	Sololá	4	Finca Santa Victoria	1	Enero	2023-01-16T00:00:00	2024-11-08T22:00:00	7	Dirección del viento	0
84331	7	Sololá	701	Sololá	4	Finca Santa Victoria	1	Enero	2023-01-16T00:00:00	2024-11-08T22:00:00	1	Precipitación	0
84332	7	Sololá	701	Sololá	4	Finca Santa Victoria	1	Enero	2023-01-16T00:00:00	2024-11-08T22:00:00	8	Radiación solar	0
84333	7	Sololá	701	Sololá	4	Finca Santa Victoria	1	Enero	2023-01-16T00:00:00	2024-11-08T23:00:00	2	Temperatura media	11.4
84334	7	Sololá	701	Sololá	4	Finca Santa Victoria	1	Enero	2023-01-16T00:00:00	2024-11-08T23:00:00	4	Temperatura máxima	11.7
84335	7	Sololá	701	Sololá	4	Finca Santa Victoria	1	Enero	2023-01-16T00:00:00	2024-11-08T23:00:00	3	Temperatura mínima	11.3
84336	7	Sololá	701	Sololá	4	Finca Santa Victoria	1	Enero	2023-01-16T00:00:00	2024-11-08T23:00:00	5	Humedad	97
84337	7	Sololá	701	Sololá	4	Finca Santa Victoria	1	Enero	2023-01-16T00:00:00	2024-11-08T23:00:00	6	Velocidad del viento	0
84338	7	Sololá	701	Sololá	4	Finca Santa Victoria	1	Enero	2023-01-16T00:00:00	2024-11-08T23:00:00	7	Dirección del viento	0
84339	7	Sololá	701	Sololá	4	Finca Santa Victoria	1	Enero	2023-01-16T00:00:00	2024-11-08T23:00:00	1	Precipitación	0
84340	7	Sololá	701	Sololá	4	Finca Santa Victoria	1	Enero	2023-01-16T00:00:00	2024-11-08T23:00:00	8	Radiación solar	0
84341	7	Sololá	701	Sololá	4	Finca Santa Victoria	1	Enero	2023-01-17T00:00:00	2024-11-08T00:00:00	2	Temperatura media	11.2
84342	7	Sololá	701	Sololá	4	Finca Santa Victoria	1	Enero	2023-01-17T00:00:00	2024-11-08T00:00:00	4	Temperatura máxima	11.8
84343	7	Sololá	701	Sololá	4	Finca Santa Victoria	1	Enero	2023-01-17T00:00:00	2024-11-08T00:00:00	3	Temperatura mínima	11.2
84344	7	Sololá	701	Sololá	4	Finca Santa Victoria	1	Enero	2023-01-17T00:00:00	2024-11-08T00:00:00	5	Humedad	97
84345	7	Sololá	701	Sololá	4	Finca Santa Victoria	1	Enero	2023-01-17T00:00:00	2024-11-08T00:00:00	6	Velocidad del viento	0
84346	7	Sololá	701	Sololá	4	Finca Santa Victoria	1	Enero	2023-01-17T00:00:00	2024-11-08T00:00:00	7	Dirección del viento	0
84347	7	Sololá	701	Sololá	4	Finca Santa Victoria	1	Enero	2023-01-17T00:00:00	2024-11-08T00:00:00	1	Precipitación	0
84348	7	Sololá	701	Sololá	4	Finca Santa Victoria	1	Enero	2023-01-17T00:00:00	2024-11-08T00:00:00	8	Radiación solar	0
84349	7	Sololá	701	Sololá	4	Finca Santa Victoria	1	Enero	2023-01-17T00:00:00	2024-11-08T01:00:00	2	Temperatura media	11.3
84350	7	Sololá	701	Sololá	4	Finca Santa Victoria	1	Enero	2023-01-17T00:00:00	2024-11-08T01:00:00	4	Temperatura máxima	11.5
84351	7	Sololá	701	Sololá	4	Finca Santa Victoria	1	Enero	2023-01-17T00:00:00	2024-11-08T01:00:00	3	Temperatura mínima	11.2
84352	7	Sololá	701	Sololá	4	Finca Santa Victoria	1	Enero	2023-01-17T00:00:00	2024-11-08T01:00:00	5	Humedad	97
84353	7	Sololá	701	Sololá	4	Finca Santa Victoria	1	Enero	2023-01-17T00:00:00	2024-11-08T01:00:00	6	Velocidad del viento	0
84354	7	Sololá	701	Sololá	4	Finca Santa Victoria	1	Enero	2023-01-17T00:00:00	2024-11-08T01:00:00	7	Dirección del viento	0
84355	7	Sololá	701	Sololá	4	Finca Santa Victoria	1	Enero	2023-01-17T00:00:00	2024-11-08T01:00:00	1	Precipitación	0
84356	7	Sololá	701	Sololá	4	Finca Santa Victoria	1	Enero	2023-01-17T00:00:00	2024-11-08T01:00:00	8	Radiación solar	0
84357	7	Sololá	701	Sololá	4	Finca Santa Victoria	1	Enero	2023-01-17T00:00:00	2024-11-08T02:00:00	2	Temperatura media	11.4
84358	7	Sololá	701	Sololá	4	Finca Santa Victoria	1	Enero	2023-01-17T00:00:00	2024-11-08T02:00:00	4	Temperatura máxima	11.4
84359	7	Sololá	701	Sololá	4	Finca Santa Victoria	1	Enero	2023-01-17T00:00:00	2024-11-08T02:00:00	3	Temperatura mínima	11.3
84360	7	Sololá	701	Sololá	4	Finca Santa Victoria	1	Enero	2023-01-17T00:00:00	2024-11-08T02:00:00	5	Humedad	96
84361	7	Sololá	701	Sololá	4	Finca Santa Victoria	1	Enero	2023-01-17T00:00:00	2024-11-08T02:00:00	6	Velocidad del viento	0
84362	7	Sololá	701	Sololá	4	Finca Santa Victoria	1	Enero	2023-01-17T00:00:00	2024-11-08T02:00:00	7	Dirección del viento	0
84363	7	Sololá	701	Sololá	4	Finca Santa Victoria	1	Enero	2023-01-17T00:00:00	2024-11-08T02:00:00	1	Precipitación	0
84364	7	Sololá	701	Sololá	4	Finca Santa Victoria	1	Enero	2023-01-17T00:00:00	2024-11-08T02:00:00	8	Radiación solar	0
84365	7	Sololá	701	Sololá	4	Finca Santa Victoria	1	Enero	2023-01-17T00:00:00	2024-11-08T03:00:00	2	Temperatura media	11.4
84366	7	Sololá	701	Sololá	4	Finca Santa Victoria	1	Enero	2023-01-17T00:00:00	2024-11-08T03:00:00	4	Temperatura máxima	11.5
84367	7	Sololá	701	Sololá	4	Finca Santa Victoria	1	Enero	2023-01-17T00:00:00	2024-11-08T03:00:00	3	Temperatura mínima	11.3
84368	7	Sololá	701	Sololá	4	Finca Santa Victoria	1	Enero	2023-01-17T00:00:00	2024-11-08T03:00:00	5	Humedad	94
84369	7	Sololá	701	Sololá	4	Finca Santa Victoria	1	Enero	2023-01-17T00:00:00	2024-11-08T03:00:00	6	Velocidad del viento	0
84370	7	Sololá	701	Sololá	4	Finca Santa Victoria	1	Enero	2023-01-17T00:00:00	2024-11-08T03:00:00	7	Dirección del viento	0
84371	7	Sololá	701	Sololá	4	Finca Santa Victoria	1	Enero	2023-01-17T00:00:00	2024-11-08T03:00:00	1	Precipitación	0
84372	7	Sololá	701	Sololá	4	Finca Santa Victoria	1	Enero	2023-01-17T00:00:00	2024-11-08T03:00:00	8	Radiación solar	0
84373	7	Sololá	701	Sololá	4	Finca Santa Victoria	1	Enero	2023-01-17T00:00:00	2024-11-08T04:00:00	2	Temperatura media	10.3
84374	7	Sololá	701	Sololá	4	Finca Santa Victoria	1	Enero	2023-01-17T00:00:00	2024-11-08T04:00:00	4	Temperatura máxima	11.4
84375	7	Sololá	701	Sololá	4	Finca Santa Victoria	1	Enero	2023-01-17T00:00:00	2024-11-08T04:00:00	3	Temperatura mínima	10.3
84376	7	Sololá	701	Sololá	4	Finca Santa Victoria	1	Enero	2023-01-17T00:00:00	2024-11-08T04:00:00	5	Humedad	92
84377	7	Sololá	701	Sololá	4	Finca Santa Victoria	1	Enero	2023-01-17T00:00:00	2024-11-08T04:00:00	6	Velocidad del viento	1.6
84378	7	Sololá	701	Sololá	4	Finca Santa Victoria	1	Enero	2023-01-17T00:00:00	2024-11-08T04:00:00	7	Dirección del viento	1.61
84379	7	Sololá	701	Sololá	4	Finca Santa Victoria	1	Enero	2023-01-17T00:00:00	2024-11-08T04:00:00	1	Precipitación	0
84380	7	Sololá	701	Sololá	4	Finca Santa Victoria	1	Enero	2023-01-17T00:00:00	2024-11-08T04:00:00	8	Radiación solar	0
84381	7	Sololá	701	Sololá	4	Finca Santa Victoria	1	Enero	2023-01-17T00:00:00	2024-11-08T05:00:00	2	Temperatura media	10.6
84382	7	Sololá	701	Sololá	4	Finca Santa Victoria	1	Enero	2023-01-17T00:00:00	2024-11-08T05:00:00	4	Temperatura máxima	10.6
84383	7	Sololá	701	Sololá	4	Finca Santa Victoria	1	Enero	2023-01-17T00:00:00	2024-11-08T05:00:00	3	Temperatura mínima	9.9
84384	7	Sololá	701	Sololá	4	Finca Santa Victoria	1	Enero	2023-01-17T00:00:00	2024-11-08T05:00:00	5	Humedad	86
84385	7	Sololá	701	Sololá	4	Finca Santa Victoria	1	Enero	2023-01-17T00:00:00	2024-11-08T05:00:00	6	Velocidad del viento	1.6
84386	7	Sololá	701	Sololá	4	Finca Santa Victoria	1	Enero	2023-01-17T00:00:00	2024-11-08T05:00:00	7	Dirección del viento	1.61
84387	7	Sololá	701	Sololá	4	Finca Santa Victoria	1	Enero	2023-01-17T00:00:00	2024-11-08T05:00:00	1	Precipitación	0
84388	7	Sololá	701	Sololá	4	Finca Santa Victoria	1	Enero	2023-01-17T00:00:00	2024-11-08T05:00:00	8	Radiación solar	0
84389	7	Sololá	701	Sololá	4	Finca Santa Victoria	1	Enero	2023-01-17T00:00:00	2024-11-08T06:00:00	2	Temperatura media	10.6
84390	7	Sololá	701	Sololá	4	Finca Santa Victoria	1	Enero	2023-01-17T00:00:00	2024-11-08T06:00:00	4	Temperatura máxima	11.1
84391	7	Sololá	701	Sololá	4	Finca Santa Victoria	1	Enero	2023-01-17T00:00:00	2024-11-08T06:00:00	3	Temperatura mínima	10.6
84392	7	Sololá	701	Sololá	4	Finca Santa Victoria	1	Enero	2023-01-17T00:00:00	2024-11-08T06:00:00	5	Humedad	87
84393	7	Sololá	701	Sololá	4	Finca Santa Victoria	1	Enero	2023-01-17T00:00:00	2024-11-08T06:00:00	6	Velocidad del viento	1.6
84394	7	Sololá	701	Sololá	4	Finca Santa Victoria	1	Enero	2023-01-17T00:00:00	2024-11-08T06:00:00	7	Dirección del viento	1.61
84395	7	Sololá	701	Sololá	4	Finca Santa Victoria	1	Enero	2023-01-17T00:00:00	2024-11-08T06:00:00	1	Precipitación	0
84396	7	Sololá	701	Sololá	4	Finca Santa Victoria	1	Enero	2023-01-17T00:00:00	2024-11-08T06:00:00	8	Radiación solar	0
84397	7	Sololá	701	Sololá	4	Finca Santa Victoria	1	Enero	2023-01-17T00:00:00	2024-11-08T07:00:00	2	Temperatura media	9.8
84398	7	Sololá	701	Sololá	4	Finca Santa Victoria	1	Enero	2023-01-17T00:00:00	2024-11-08T07:00:00	4	Temperatura máxima	10.6
84399	7	Sololá	701	Sololá	4	Finca Santa Victoria	1	Enero	2023-01-17T00:00:00	2024-11-08T07:00:00	3	Temperatura mínima	9.7
84400	7	Sololá	701	Sololá	4	Finca Santa Victoria	1	Enero	2023-01-17T00:00:00	2024-11-08T07:00:00	5	Humedad	87
84401	7	Sololá	701	Sololá	4	Finca Santa Victoria	1	Enero	2023-01-17T00:00:00	2024-11-08T07:00:00	6	Velocidad del viento	1.6
84402	7	Sololá	701	Sololá	4	Finca Santa Victoria	1	Enero	2023-01-17T00:00:00	2024-11-08T07:00:00	7	Dirección del viento	1.61
84403	7	Sololá	701	Sololá	4	Finca Santa Victoria	1	Enero	2023-01-17T00:00:00	2024-11-08T07:00:00	1	Precipitación	0
84404	7	Sololá	701	Sololá	4	Finca Santa Victoria	1	Enero	2023-01-17T00:00:00	2024-11-08T07:00:00	8	Radiación solar	4
84405	7	Sololá	701	Sololá	4	Finca Santa Victoria	1	Enero	2023-01-17T00:00:00	2024-11-08T08:00:00	2	Temperatura media	12.1
84406	7	Sololá	701	Sololá	4	Finca Santa Victoria	1	Enero	2023-01-17T00:00:00	2024-11-08T08:00:00	4	Temperatura máxima	12.1
84407	7	Sololá	701	Sololá	4	Finca Santa Victoria	1	Enero	2023-01-17T00:00:00	2024-11-08T08:00:00	3	Temperatura mínima	9.8
84408	7	Sololá	701	Sololá	4	Finca Santa Victoria	1	Enero	2023-01-17T00:00:00	2024-11-08T08:00:00	5	Humedad	82
84409	7	Sololá	701	Sololá	4	Finca Santa Victoria	1	Enero	2023-01-17T00:00:00	2024-11-08T08:00:00	6	Velocidad del viento	1.6
84410	7	Sololá	701	Sololá	4	Finca Santa Victoria	1	Enero	2023-01-17T00:00:00	2024-11-08T08:00:00	7	Dirección del viento	1.61
84411	7	Sololá	701	Sololá	4	Finca Santa Victoria	1	Enero	2023-01-17T00:00:00	2024-11-08T08:00:00	1	Precipitación	0
84412	7	Sololá	701	Sololá	4	Finca Santa Victoria	1	Enero	2023-01-17T00:00:00	2024-11-08T08:00:00	8	Radiación solar	37
84413	7	Sololá	701	Sololá	4	Finca Santa Victoria	1	Enero	2023-01-17T00:00:00	2024-11-08T09:00:00	2	Temperatura media	14.7
84414	7	Sololá	701	Sololá	4	Finca Santa Victoria	1	Enero	2023-01-17T00:00:00	2024-11-08T09:00:00	4	Temperatura máxima	14.7
84415	7	Sololá	701	Sololá	4	Finca Santa Victoria	1	Enero	2023-01-17T00:00:00	2024-11-08T09:00:00	3	Temperatura mínima	12.1
84416	7	Sololá	701	Sololá	4	Finca Santa Victoria	1	Enero	2023-01-17T00:00:00	2024-11-08T09:00:00	5	Humedad	73
84417	7	Sololá	701	Sololá	4	Finca Santa Victoria	1	Enero	2023-01-17T00:00:00	2024-11-08T09:00:00	6	Velocidad del viento	1.6
84418	7	Sololá	701	Sololá	4	Finca Santa Victoria	1	Enero	2023-01-17T00:00:00	2024-11-08T09:00:00	7	Dirección del viento	1.61
84419	7	Sololá	701	Sololá	4	Finca Santa Victoria	1	Enero	2023-01-17T00:00:00	2024-11-08T09:00:00	1	Precipitación	0
84420	7	Sololá	701	Sololá	4	Finca Santa Victoria	1	Enero	2023-01-17T00:00:00	2024-11-08T09:00:00	8	Radiación solar	176
84421	7	Sololá	701	Sololá	4	Finca Santa Victoria	1	Enero	2023-01-17T00:00:00	2024-11-08T10:00:00	2	Temperatura media	16.7
84422	7	Sololá	701	Sololá	4	Finca Santa Victoria	1	Enero	2023-01-17T00:00:00	2024-11-08T10:00:00	4	Temperatura máxima	16.9
84423	7	Sololá	701	Sololá	4	Finca Santa Victoria	1	Enero	2023-01-17T00:00:00	2024-11-08T10:00:00	3	Temperatura mínima	14.7
84424	7	Sololá	701	Sololá	4	Finca Santa Victoria	1	Enero	2023-01-17T00:00:00	2024-11-08T10:00:00	5	Humedad	72
84425	7	Sololá	701	Sololá	4	Finca Santa Victoria	1	Enero	2023-01-17T00:00:00	2024-11-08T10:00:00	6	Velocidad del viento	3.2
84426	7	Sololá	701	Sololá	4	Finca Santa Victoria	1	Enero	2023-01-17T00:00:00	2024-11-08T10:00:00	7	Dirección del viento	3.22
84427	7	Sololá	701	Sololá	4	Finca Santa Victoria	1	Enero	2023-01-17T00:00:00	2024-11-08T10:00:00	1	Precipitación	0
84428	7	Sololá	701	Sololá	4	Finca Santa Victoria	1	Enero	2023-01-17T00:00:00	2024-11-08T10:00:00	8	Radiación solar	451
84429	7	Sololá	701	Sololá	4	Finca Santa Victoria	1	Enero	2023-01-17T00:00:00	2024-11-08T11:00:00	2	Temperatura media	16.9
84430	7	Sololá	701	Sololá	4	Finca Santa Victoria	1	Enero	2023-01-17T00:00:00	2024-11-08T11:00:00	4	Temperatura máxima	17.1
84431	7	Sololá	701	Sololá	4	Finca Santa Victoria	1	Enero	2023-01-17T00:00:00	2024-11-08T11:00:00	3	Temperatura mínima	16.7
84432	7	Sololá	701	Sololá	4	Finca Santa Victoria	1	Enero	2023-01-17T00:00:00	2024-11-08T11:00:00	5	Humedad	73
84433	7	Sololá	701	Sololá	4	Finca Santa Victoria	1	Enero	2023-01-17T00:00:00	2024-11-08T11:00:00	6	Velocidad del viento	3.2
84434	7	Sololá	701	Sololá	4	Finca Santa Victoria	1	Enero	2023-01-17T00:00:00	2024-11-08T11:00:00	7	Dirección del viento	3.22
84435	7	Sololá	701	Sololá	4	Finca Santa Victoria	1	Enero	2023-01-17T00:00:00	2024-11-08T11:00:00	1	Precipitación	0
84436	7	Sololá	701	Sololá	4	Finca Santa Victoria	1	Enero	2023-01-17T00:00:00	2024-11-08T11:00:00	8	Radiación solar	742
84437	7	Sololá	701	Sololá	4	Finca Santa Victoria	1	Enero	2023-01-17T00:00:00	2024-11-08T12:00:00	2	Temperatura media	16.5
84438	7	Sololá	701	Sololá	4	Finca Santa Victoria	1	Enero	2023-01-17T00:00:00	2024-11-08T12:00:00	4	Temperatura máxima	17.2
84439	7	Sololá	701	Sololá	4	Finca Santa Victoria	1	Enero	2023-01-17T00:00:00	2024-11-08T12:00:00	3	Temperatura mínima	16.5
84440	7	Sololá	701	Sololá	4	Finca Santa Victoria	1	Enero	2023-01-17T00:00:00	2024-11-08T12:00:00	5	Humedad	79
84441	7	Sololá	701	Sololá	4	Finca Santa Victoria	1	Enero	2023-01-17T00:00:00	2024-11-08T12:00:00	6	Velocidad del viento	4.8
84442	7	Sololá	701	Sololá	4	Finca Santa Victoria	1	Enero	2023-01-17T00:00:00	2024-11-08T12:00:00	7	Dirección del viento	4.83
84443	7	Sololá	701	Sololá	4	Finca Santa Victoria	1	Enero	2023-01-17T00:00:00	2024-11-08T12:00:00	1	Precipitación	0
84444	7	Sololá	701	Sololá	4	Finca Santa Victoria	1	Enero	2023-01-17T00:00:00	2024-11-08T12:00:00	8	Radiación solar	804
84445	7	Sololá	701	Sololá	4	Finca Santa Victoria	1	Enero	2023-01-17T00:00:00	2024-11-08T13:00:00	2	Temperatura media	16.4
84446	7	Sololá	701	Sololá	4	Finca Santa Victoria	1	Enero	2023-01-17T00:00:00	2024-11-08T13:00:00	4	Temperatura máxima	16.9
84447	7	Sololá	701	Sololá	4	Finca Santa Victoria	1	Enero	2023-01-17T00:00:00	2024-11-08T13:00:00	3	Temperatura mínima	16.3
84448	7	Sololá	701	Sololá	4	Finca Santa Victoria	1	Enero	2023-01-17T00:00:00	2024-11-08T13:00:00	5	Humedad	81
84449	7	Sololá	701	Sololá	4	Finca Santa Victoria	1	Enero	2023-01-17T00:00:00	2024-11-08T13:00:00	6	Velocidad del viento	4.8
84450	7	Sololá	701	Sololá	4	Finca Santa Victoria	1	Enero	2023-01-17T00:00:00	2024-11-08T13:00:00	7	Dirección del viento	4.83
84451	7	Sololá	701	Sololá	4	Finca Santa Victoria	1	Enero	2023-01-17T00:00:00	2024-11-08T13:00:00	1	Precipitación	0
84452	7	Sololá	701	Sololá	4	Finca Santa Victoria	1	Enero	2023-01-17T00:00:00	2024-11-08T13:00:00	8	Radiación solar	752
84453	7	Sololá	701	Sololá	4	Finca Santa Victoria	1	Enero	2023-01-17T00:00:00	2024-11-08T14:00:00	2	Temperatura media	16.2
84454	7	Sololá	701	Sololá	4	Finca Santa Victoria	1	Enero	2023-01-17T00:00:00	2024-11-08T14:00:00	4	Temperatura máxima	16.4
84455	7	Sololá	701	Sololá	4	Finca Santa Victoria	1	Enero	2023-01-17T00:00:00	2024-11-08T14:00:00	3	Temperatura mínima	15.6
84456	7	Sololá	701	Sololá	4	Finca Santa Victoria	1	Enero	2023-01-17T00:00:00	2024-11-08T14:00:00	5	Humedad	82
84457	7	Sololá	701	Sololá	4	Finca Santa Victoria	1	Enero	2023-01-17T00:00:00	2024-11-08T14:00:00	6	Velocidad del viento	4.8
84458	7	Sololá	701	Sololá	4	Finca Santa Victoria	1	Enero	2023-01-17T00:00:00	2024-11-08T14:00:00	7	Dirección del viento	4.83
84459	7	Sololá	701	Sololá	4	Finca Santa Victoria	1	Enero	2023-01-17T00:00:00	2024-11-08T14:00:00	1	Precipitación	0
84460	7	Sololá	701	Sololá	4	Finca Santa Victoria	1	Enero	2023-01-17T00:00:00	2024-11-08T14:00:00	8	Radiación solar	435
84461	7	Sololá	701	Sololá	4	Finca Santa Victoria	1	Enero	2023-01-17T00:00:00	2024-11-08T15:00:00	2	Temperatura media	14.6
84462	7	Sololá	701	Sololá	4	Finca Santa Victoria	1	Enero	2023-01-17T00:00:00	2024-11-08T15:00:00	4	Temperatura máxima	16.4
84463	7	Sololá	701	Sololá	4	Finca Santa Victoria	1	Enero	2023-01-17T00:00:00	2024-11-08T15:00:00	3	Temperatura mínima	14.6
84464	7	Sololá	701	Sololá	4	Finca Santa Victoria	1	Enero	2023-01-17T00:00:00	2024-11-08T15:00:00	5	Humedad	89
84465	7	Sololá	701	Sololá	4	Finca Santa Victoria	1	Enero	2023-01-17T00:00:00	2024-11-08T15:00:00	6	Velocidad del viento	3.2
84466	7	Sololá	701	Sololá	4	Finca Santa Victoria	1	Enero	2023-01-17T00:00:00	2024-11-08T15:00:00	7	Dirección del viento	3.22
84467	7	Sololá	701	Sololá	4	Finca Santa Victoria	1	Enero	2023-01-17T00:00:00	2024-11-08T15:00:00	1	Precipitación	0
84468	7	Sololá	701	Sololá	4	Finca Santa Victoria	1	Enero	2023-01-17T00:00:00	2024-11-08T15:00:00	8	Radiación solar	153
84469	7	Sololá	701	Sololá	4	Finca Santa Victoria	1	Enero	2023-01-17T00:00:00	2024-11-08T16:00:00	2	Temperatura media	14.4
84470	7	Sololá	701	Sololá	4	Finca Santa Victoria	1	Enero	2023-01-17T00:00:00	2024-11-08T16:00:00	4	Temperatura máxima	14.6
84471	7	Sololá	701	Sololá	4	Finca Santa Victoria	1	Enero	2023-01-17T00:00:00	2024-11-08T16:00:00	3	Temperatura mínima	14.3
84472	7	Sololá	701	Sololá	4	Finca Santa Victoria	1	Enero	2023-01-17T00:00:00	2024-11-08T16:00:00	5	Humedad	89
84473	7	Sololá	701	Sololá	4	Finca Santa Victoria	1	Enero	2023-01-17T00:00:00	2024-11-08T16:00:00	6	Velocidad del viento	3.2
84474	7	Sololá	701	Sololá	4	Finca Santa Victoria	1	Enero	2023-01-17T00:00:00	2024-11-08T16:00:00	7	Dirección del viento	3.22
84475	7	Sololá	701	Sololá	4	Finca Santa Victoria	1	Enero	2023-01-17T00:00:00	2024-11-08T16:00:00	1	Precipitación	0
84476	7	Sololá	701	Sololá	4	Finca Santa Victoria	1	Enero	2023-01-17T00:00:00	2024-11-08T16:00:00	8	Radiación solar	117
84477	7	Sololá	701	Sololá	4	Finca Santa Victoria	1	Enero	2023-01-17T00:00:00	2024-11-08T17:00:00	2	Temperatura media	13.8
84478	7	Sololá	701	Sololá	4	Finca Santa Victoria	1	Enero	2023-01-17T00:00:00	2024-11-08T17:00:00	4	Temperatura máxima	14.5
84479	7	Sololá	701	Sololá	4	Finca Santa Victoria	1	Enero	2023-01-17T00:00:00	2024-11-08T17:00:00	3	Temperatura mínima	13.8
84480	7	Sololá	701	Sololá	4	Finca Santa Victoria	1	Enero	2023-01-17T00:00:00	2024-11-08T17:00:00	5	Humedad	92
84481	7	Sololá	701	Sololá	4	Finca Santa Victoria	1	Enero	2023-01-17T00:00:00	2024-11-08T17:00:00	6	Velocidad del viento	1.6
84482	7	Sololá	701	Sololá	4	Finca Santa Victoria	1	Enero	2023-01-17T00:00:00	2024-11-08T17:00:00	7	Dirección del viento	1.61
84483	7	Sololá	701	Sololá	4	Finca Santa Victoria	1	Enero	2023-01-17T00:00:00	2024-11-08T17:00:00	1	Precipitación	0
84484	7	Sololá	701	Sololá	4	Finca Santa Victoria	1	Enero	2023-01-17T00:00:00	2024-11-08T17:00:00	8	Radiación solar	57
84485	7	Sololá	701	Sololá	4	Finca Santa Victoria	1	Enero	2023-01-17T00:00:00	2024-11-08T18:00:00	2	Temperatura media	13.1
84486	7	Sololá	701	Sololá	4	Finca Santa Victoria	1	Enero	2023-01-17T00:00:00	2024-11-08T18:00:00	4	Temperatura máxima	13.8
84487	7	Sololá	701	Sololá	4	Finca Santa Victoria	1	Enero	2023-01-17T00:00:00	2024-11-08T18:00:00	3	Temperatura mínima	13.1
84488	7	Sololá	701	Sololá	4	Finca Santa Victoria	1	Enero	2023-01-17T00:00:00	2024-11-08T18:00:00	5	Humedad	94
84489	7	Sololá	701	Sololá	4	Finca Santa Victoria	1	Enero	2023-01-17T00:00:00	2024-11-08T18:00:00	6	Velocidad del viento	1.6
84490	7	Sololá	701	Sololá	4	Finca Santa Victoria	1	Enero	2023-01-17T00:00:00	2024-11-08T18:00:00	7	Dirección del viento	1.61
84491	7	Sololá	701	Sololá	4	Finca Santa Victoria	1	Enero	2023-01-17T00:00:00	2024-11-08T18:00:00	1	Precipitación	0
84492	7	Sololá	701	Sololá	4	Finca Santa Victoria	1	Enero	2023-01-17T00:00:00	2024-11-08T18:00:00	8	Radiación solar	14
84493	7	Sololá	701	Sololá	4	Finca Santa Victoria	1	Enero	2023-01-17T00:00:00	2024-11-08T19:00:00	2	Temperatura media	11.9
84494	7	Sololá	701	Sololá	4	Finca Santa Victoria	1	Enero	2023-01-17T00:00:00	2024-11-08T19:00:00	4	Temperatura máxima	13.1
84495	7	Sololá	701	Sololá	4	Finca Santa Victoria	1	Enero	2023-01-17T00:00:00	2024-11-08T19:00:00	3	Temperatura mínima	11.9
84496	7	Sololá	701	Sololá	4	Finca Santa Victoria	1	Enero	2023-01-17T00:00:00	2024-11-08T19:00:00	5	Humedad	95
84497	7	Sololá	701	Sololá	4	Finca Santa Victoria	1	Enero	2023-01-17T00:00:00	2024-11-08T19:00:00	6	Velocidad del viento	0
84498	7	Sololá	701	Sololá	4	Finca Santa Victoria	1	Enero	2023-01-17T00:00:00	2024-11-08T19:00:00	7	Dirección del viento	0
84499	7	Sololá	701	Sololá	4	Finca Santa Victoria	1	Enero	2023-01-17T00:00:00	2024-11-08T19:00:00	1	Precipitación	0
84500	7	Sololá	701	Sololá	4	Finca Santa Victoria	1	Enero	2023-01-17T00:00:00	2024-11-08T19:00:00	8	Radiación solar	0
84501	7	Sololá	701	Sololá	4	Finca Santa Victoria	1	Enero	2023-01-17T00:00:00	2024-11-08T20:00:00	2	Temperatura media	11.4
84502	7	Sololá	701	Sololá	4	Finca Santa Victoria	1	Enero	2023-01-17T00:00:00	2024-11-08T20:00:00	4	Temperatura máxima	11.9
84503	7	Sololá	701	Sololá	4	Finca Santa Victoria	1	Enero	2023-01-17T00:00:00	2024-11-08T20:00:00	3	Temperatura mínima	11.3
84504	7	Sololá	701	Sololá	4	Finca Santa Victoria	1	Enero	2023-01-17T00:00:00	2024-11-08T20:00:00	5	Humedad	96
84505	7	Sololá	701	Sololá	4	Finca Santa Victoria	1	Enero	2023-01-17T00:00:00	2024-11-08T20:00:00	6	Velocidad del viento	0
84506	7	Sololá	701	Sololá	4	Finca Santa Victoria	1	Enero	2023-01-17T00:00:00	2024-11-08T20:00:00	7	Dirección del viento	0
84507	7	Sololá	701	Sololá	4	Finca Santa Victoria	1	Enero	2023-01-17T00:00:00	2024-11-08T20:00:00	1	Precipitación	0
84508	7	Sololá	701	Sololá	4	Finca Santa Victoria	1	Enero	2023-01-17T00:00:00	2024-11-08T20:00:00	8	Radiación solar	0
84509	7	Sololá	701	Sololá	4	Finca Santa Victoria	1	Enero	2023-01-17T00:00:00	2024-11-08T21:00:00	2	Temperatura media	11.3
84510	7	Sololá	701	Sololá	4	Finca Santa Victoria	1	Enero	2023-01-17T00:00:00	2024-11-08T21:00:00	4	Temperatura máxima	11.4
84511	7	Sololá	701	Sololá	4	Finca Santa Victoria	1	Enero	2023-01-17T00:00:00	2024-11-08T21:00:00	3	Temperatura mínima	11.3
84512	7	Sololá	701	Sololá	4	Finca Santa Victoria	1	Enero	2023-01-17T00:00:00	2024-11-08T21:00:00	5	Humedad	96
84513	7	Sololá	701	Sololá	4	Finca Santa Victoria	1	Enero	2023-01-17T00:00:00	2024-11-08T21:00:00	6	Velocidad del viento	0
84514	7	Sololá	701	Sololá	4	Finca Santa Victoria	1	Enero	2023-01-17T00:00:00	2024-11-08T21:00:00	7	Dirección del viento	0
84515	7	Sololá	701	Sololá	4	Finca Santa Victoria	1	Enero	2023-01-17T00:00:00	2024-11-08T21:00:00	1	Precipitación	0
84516	7	Sololá	701	Sololá	4	Finca Santa Victoria	1	Enero	2023-01-17T00:00:00	2024-11-08T21:00:00	8	Radiación solar	0
84517	7	Sololá	701	Sololá	4	Finca Santa Victoria	1	Enero	2023-01-17T00:00:00	2024-11-08T22:00:00	2	Temperatura media	10.9
84518	7	Sololá	701	Sololá	4	Finca Santa Victoria	1	Enero	2023-01-17T00:00:00	2024-11-08T22:00:00	4	Temperatura máxima	11.3
84519	7	Sololá	701	Sololá	4	Finca Santa Victoria	1	Enero	2023-01-17T00:00:00	2024-11-08T22:00:00	3	Temperatura mínima	10.9
84520	7	Sololá	701	Sololá	4	Finca Santa Victoria	1	Enero	2023-01-17T00:00:00	2024-11-08T22:00:00	5	Humedad	97
84521	7	Sololá	701	Sololá	4	Finca Santa Victoria	1	Enero	2023-01-17T00:00:00	2024-11-08T22:00:00	6	Velocidad del viento	0
84522	7	Sololá	701	Sololá	4	Finca Santa Victoria	1	Enero	2023-01-17T00:00:00	2024-11-08T22:00:00	7	Dirección del viento	0
84523	7	Sololá	701	Sololá	4	Finca Santa Victoria	1	Enero	2023-01-17T00:00:00	2024-11-08T22:00:00	1	Precipitación	0
84524	7	Sololá	701	Sololá	4	Finca Santa Victoria	1	Enero	2023-01-17T00:00:00	2024-11-08T22:00:00	8	Radiación solar	0
84525	7	Sololá	701	Sololá	4	Finca Santa Victoria	1	Enero	2023-01-17T00:00:00	2024-11-08T23:00:00	2	Temperatura media	11.1
84526	7	Sololá	701	Sololá	4	Finca Santa Victoria	1	Enero	2023-01-17T00:00:00	2024-11-08T23:00:00	4	Temperatura máxima	11.1
84527	7	Sololá	701	Sololá	4	Finca Santa Victoria	1	Enero	2023-01-17T00:00:00	2024-11-08T23:00:00	3	Temperatura mínima	10.7
84528	7	Sololá	701	Sololá	4	Finca Santa Victoria	1	Enero	2023-01-17T00:00:00	2024-11-08T23:00:00	5	Humedad	98
84529	7	Sololá	701	Sololá	4	Finca Santa Victoria	1	Enero	2023-01-17T00:00:00	2024-11-08T23:00:00	6	Velocidad del viento	0
84530	7	Sololá	701	Sololá	4	Finca Santa Victoria	1	Enero	2023-01-17T00:00:00	2024-11-08T23:00:00	7	Dirección del viento	0
84531	7	Sololá	701	Sololá	4	Finca Santa Victoria	1	Enero	2023-01-17T00:00:00	2024-11-08T23:00:00	1	Precipitación	0
84532	7	Sololá	701	Sololá	4	Finca Santa Victoria	1	Enero	2023-01-17T00:00:00	2024-11-08T23:00:00	8	Radiación solar	0
84533	7	Sololá	701	Sololá	4	Finca Santa Victoria	1	Enero	2023-01-18T00:00:00	2024-11-08T00:00:00	2	Temperatura media	11.4
84534	7	Sololá	701	Sololá	4	Finca Santa Victoria	1	Enero	2023-01-18T00:00:00	2024-11-08T00:00:00	4	Temperatura máxima	11.4
84535	7	Sololá	701	Sololá	4	Finca Santa Victoria	1	Enero	2023-01-18T00:00:00	2024-11-08T00:00:00	3	Temperatura mínima	11
84536	7	Sololá	701	Sololá	4	Finca Santa Victoria	1	Enero	2023-01-18T00:00:00	2024-11-08T00:00:00	5	Humedad	98
84537	7	Sololá	701	Sololá	4	Finca Santa Victoria	1	Enero	2023-01-18T00:00:00	2024-11-08T00:00:00	6	Velocidad del viento	0
84538	7	Sololá	701	Sololá	4	Finca Santa Victoria	1	Enero	2023-01-18T00:00:00	2024-11-08T00:00:00	7	Dirección del viento	0
84539	7	Sololá	701	Sololá	4	Finca Santa Victoria	1	Enero	2023-01-18T00:00:00	2024-11-08T00:00:00	1	Precipitación	0
84540	7	Sololá	701	Sololá	4	Finca Santa Victoria	1	Enero	2023-01-18T00:00:00	2024-11-08T00:00:00	8	Radiación solar	0
84541	7	Sololá	701	Sololá	4	Finca Santa Victoria	1	Enero	2023-01-18T00:00:00	2024-11-08T01:00:00	2	Temperatura media	11.2
84542	7	Sololá	701	Sololá	4	Finca Santa Victoria	1	Enero	2023-01-18T00:00:00	2024-11-08T01:00:00	4	Temperatura máxima	11.4
84543	7	Sololá	701	Sololá	4	Finca Santa Victoria	1	Enero	2023-01-18T00:00:00	2024-11-08T01:00:00	3	Temperatura mínima	11.2
84544	7	Sololá	701	Sololá	4	Finca Santa Victoria	1	Enero	2023-01-18T00:00:00	2024-11-08T01:00:00	5	Humedad	97
84545	7	Sololá	701	Sololá	4	Finca Santa Victoria	1	Enero	2023-01-18T00:00:00	2024-11-08T01:00:00	6	Velocidad del viento	0
84546	7	Sololá	701	Sololá	4	Finca Santa Victoria	1	Enero	2023-01-18T00:00:00	2024-11-08T01:00:00	7	Dirección del viento	0
84547	7	Sololá	701	Sololá	4	Finca Santa Victoria	1	Enero	2023-01-18T00:00:00	2024-11-08T01:00:00	1	Precipitación	0
84548	7	Sololá	701	Sololá	4	Finca Santa Victoria	1	Enero	2023-01-18T00:00:00	2024-11-08T01:00:00	8	Radiación solar	0
84549	7	Sololá	701	Sololá	4	Finca Santa Victoria	1	Enero	2023-01-18T00:00:00	2024-11-08T02:00:00	2	Temperatura media	10.4
84550	7	Sololá	701	Sololá	4	Finca Santa Victoria	1	Enero	2023-01-18T00:00:00	2024-11-08T02:00:00	4	Temperatura máxima	11.2
84551	7	Sololá	701	Sololá	4	Finca Santa Victoria	1	Enero	2023-01-18T00:00:00	2024-11-08T02:00:00	3	Temperatura mínima	10.4
84552	7	Sololá	701	Sololá	4	Finca Santa Victoria	1	Enero	2023-01-18T00:00:00	2024-11-08T02:00:00	5	Humedad	95
84553	7	Sololá	701	Sololá	4	Finca Santa Victoria	1	Enero	2023-01-18T00:00:00	2024-11-08T02:00:00	6	Velocidad del viento	0
84554	7	Sololá	701	Sololá	4	Finca Santa Victoria	1	Enero	2023-01-18T00:00:00	2024-11-08T02:00:00	7	Dirección del viento	0
84555	7	Sololá	701	Sololá	4	Finca Santa Victoria	1	Enero	2023-01-18T00:00:00	2024-11-08T02:00:00	1	Precipitación	0
84556	7	Sololá	701	Sololá	4	Finca Santa Victoria	1	Enero	2023-01-18T00:00:00	2024-11-08T02:00:00	8	Radiación solar	0
84557	7	Sololá	701	Sololá	4	Finca Santa Victoria	1	Enero	2023-01-18T00:00:00	2024-11-08T03:00:00	2	Temperatura media	9.8
84558	7	Sololá	701	Sololá	4	Finca Santa Victoria	1	Enero	2023-01-18T00:00:00	2024-11-08T03:00:00	4	Temperatura máxima	10.4
84559	7	Sololá	701	Sololá	4	Finca Santa Victoria	1	Enero	2023-01-18T00:00:00	2024-11-08T03:00:00	3	Temperatura mínima	9.8
84560	7	Sololá	701	Sololá	4	Finca Santa Victoria	1	Enero	2023-01-18T00:00:00	2024-11-08T03:00:00	5	Humedad	93
84561	7	Sololá	701	Sololá	4	Finca Santa Victoria	1	Enero	2023-01-18T00:00:00	2024-11-08T03:00:00	6	Velocidad del viento	1.6
84562	7	Sololá	701	Sololá	4	Finca Santa Victoria	1	Enero	2023-01-18T00:00:00	2024-11-08T03:00:00	7	Dirección del viento	1.61
84563	7	Sololá	701	Sololá	4	Finca Santa Victoria	1	Enero	2023-01-18T00:00:00	2024-11-08T03:00:00	1	Precipitación	0
84564	7	Sololá	701	Sololá	4	Finca Santa Victoria	1	Enero	2023-01-18T00:00:00	2024-11-08T03:00:00	8	Radiación solar	0
84565	7	Sololá	701	Sololá	4	Finca Santa Victoria	1	Enero	2023-01-18T00:00:00	2024-11-08T04:00:00	2	Temperatura media	9.4
84566	7	Sololá	701	Sololá	4	Finca Santa Victoria	1	Enero	2023-01-18T00:00:00	2024-11-08T04:00:00	4	Temperatura máxima	9.8
84567	7	Sololá	701	Sololá	4	Finca Santa Victoria	1	Enero	2023-01-18T00:00:00	2024-11-08T04:00:00	3	Temperatura mínima	9.4
84568	7	Sololá	701	Sololá	4	Finca Santa Victoria	1	Enero	2023-01-18T00:00:00	2024-11-08T04:00:00	5	Humedad	92
84569	7	Sololá	701	Sololá	4	Finca Santa Victoria	1	Enero	2023-01-18T00:00:00	2024-11-08T04:00:00	6	Velocidad del viento	1.6
84570	7	Sololá	701	Sololá	4	Finca Santa Victoria	1	Enero	2023-01-18T00:00:00	2024-11-08T04:00:00	7	Dirección del viento	1.61
84571	7	Sololá	701	Sololá	4	Finca Santa Victoria	1	Enero	2023-01-18T00:00:00	2024-11-08T04:00:00	1	Precipitación	0
84572	7	Sololá	701	Sololá	4	Finca Santa Victoria	1	Enero	2023-01-18T00:00:00	2024-11-08T04:00:00	8	Radiación solar	0
84573	7	Sololá	701	Sololá	4	Finca Santa Victoria	1	Enero	2023-01-18T00:00:00	2024-11-08T05:00:00	2	Temperatura media	9.4
84574	7	Sololá	701	Sololá	4	Finca Santa Victoria	1	Enero	2023-01-18T00:00:00	2024-11-08T05:00:00	4	Temperatura máxima	9.6
84575	7	Sololá	701	Sololá	4	Finca Santa Victoria	1	Enero	2023-01-18T00:00:00	2024-11-08T05:00:00	3	Temperatura mínima	9.3
84576	7	Sololá	701	Sololá	4	Finca Santa Victoria	1	Enero	2023-01-18T00:00:00	2024-11-08T05:00:00	5	Humedad	96
84577	7	Sololá	701	Sololá	4	Finca Santa Victoria	1	Enero	2023-01-18T00:00:00	2024-11-08T05:00:00	6	Velocidad del viento	1.6
84578	7	Sololá	701	Sololá	4	Finca Santa Victoria	1	Enero	2023-01-18T00:00:00	2024-11-08T05:00:00	7	Dirección del viento	1.61
84579	7	Sololá	701	Sololá	4	Finca Santa Victoria	1	Enero	2023-01-18T00:00:00	2024-11-08T05:00:00	1	Precipitación	0
84580	7	Sololá	701	Sololá	4	Finca Santa Victoria	1	Enero	2023-01-18T00:00:00	2024-11-08T05:00:00	8	Radiación solar	0
84581	7	Sololá	701	Sololá	4	Finca Santa Victoria	1	Enero	2023-01-18T00:00:00	2024-11-08T06:00:00	2	Temperatura media	9.7
84582	7	Sololá	701	Sololá	4	Finca Santa Victoria	1	Enero	2023-01-18T00:00:00	2024-11-08T06:00:00	4	Temperatura máxima	9.7
84583	7	Sololá	701	Sololá	4	Finca Santa Victoria	1	Enero	2023-01-18T00:00:00	2024-11-08T06:00:00	3	Temperatura mínima	9.3
84584	7	Sololá	701	Sololá	4	Finca Santa Victoria	1	Enero	2023-01-18T00:00:00	2024-11-08T06:00:00	5	Humedad	97
84585	7	Sololá	701	Sololá	4	Finca Santa Victoria	1	Enero	2023-01-18T00:00:00	2024-11-08T06:00:00	6	Velocidad del viento	0
84586	7	Sololá	701	Sololá	4	Finca Santa Victoria	1	Enero	2023-01-18T00:00:00	2024-11-08T06:00:00	7	Dirección del viento	0
84587	7	Sololá	701	Sololá	4	Finca Santa Victoria	1	Enero	2023-01-18T00:00:00	2024-11-08T06:00:00	1	Precipitación	0
84588	7	Sololá	701	Sololá	4	Finca Santa Victoria	1	Enero	2023-01-18T00:00:00	2024-11-08T06:00:00	8	Radiación solar	0
84589	7	Sololá	701	Sololá	4	Finca Santa Victoria	1	Enero	2023-01-18T00:00:00	2024-11-08T07:00:00	2	Temperatura media	9.3
84590	7	Sololá	701	Sololá	4	Finca Santa Victoria	1	Enero	2023-01-18T00:00:00	2024-11-08T07:00:00	4	Temperatura máxima	9.9
84591	7	Sololá	701	Sololá	4	Finca Santa Victoria	1	Enero	2023-01-18T00:00:00	2024-11-08T07:00:00	3	Temperatura mínima	9.3
84592	7	Sololá	701	Sololá	4	Finca Santa Victoria	1	Enero	2023-01-18T00:00:00	2024-11-08T07:00:00	5	Humedad	96
84593	7	Sololá	701	Sololá	4	Finca Santa Victoria	1	Enero	2023-01-18T00:00:00	2024-11-08T07:00:00	6	Velocidad del viento	0
84594	7	Sololá	701	Sololá	4	Finca Santa Victoria	1	Enero	2023-01-18T00:00:00	2024-11-08T07:00:00	7	Dirección del viento	0
84595	7	Sololá	701	Sololá	4	Finca Santa Victoria	1	Enero	2023-01-18T00:00:00	2024-11-08T07:00:00	1	Precipitación	0
84596	7	Sololá	701	Sololá	4	Finca Santa Victoria	1	Enero	2023-01-18T00:00:00	2024-11-08T07:00:00	8	Radiación solar	3
84597	7	Sololá	701	Sololá	4	Finca Santa Victoria	1	Enero	2023-01-18T00:00:00	2024-11-08T08:00:00	2	Temperatura media	10.8
84598	7	Sololá	701	Sololá	4	Finca Santa Victoria	1	Enero	2023-01-18T00:00:00	2024-11-08T08:00:00	4	Temperatura máxima	10.8
84599	7	Sololá	701	Sololá	4	Finca Santa Victoria	1	Enero	2023-01-18T00:00:00	2024-11-08T08:00:00	3	Temperatura mínima	9.2
84600	7	Sololá	701	Sololá	4	Finca Santa Victoria	1	Enero	2023-01-18T00:00:00	2024-11-08T08:00:00	5	Humedad	88
84601	7	Sololá	701	Sololá	4	Finca Santa Victoria	1	Enero	2023-01-18T00:00:00	2024-11-08T08:00:00	6	Velocidad del viento	1.6
84602	7	Sololá	701	Sololá	4	Finca Santa Victoria	1	Enero	2023-01-18T00:00:00	2024-11-08T08:00:00	7	Dirección del viento	1.61
84603	7	Sololá	701	Sololá	4	Finca Santa Victoria	1	Enero	2023-01-18T00:00:00	2024-11-08T08:00:00	1	Precipitación	0
84604	7	Sololá	701	Sololá	4	Finca Santa Victoria	1	Enero	2023-01-18T00:00:00	2024-11-08T08:00:00	8	Radiación solar	35
84605	7	Sololá	701	Sololá	4	Finca Santa Victoria	1	Enero	2023-01-18T00:00:00	2024-11-08T09:00:00	2	Temperatura media	13.6
84606	7	Sololá	701	Sololá	4	Finca Santa Victoria	1	Enero	2023-01-18T00:00:00	2024-11-08T09:00:00	4	Temperatura máxima	13.6
84607	7	Sololá	701	Sololá	4	Finca Santa Victoria	1	Enero	2023-01-18T00:00:00	2024-11-08T09:00:00	3	Temperatura mínima	10.8
84608	7	Sololá	701	Sololá	4	Finca Santa Victoria	1	Enero	2023-01-18T00:00:00	2024-11-08T09:00:00	5	Humedad	77
84609	7	Sololá	701	Sololá	4	Finca Santa Victoria	1	Enero	2023-01-18T00:00:00	2024-11-08T09:00:00	6	Velocidad del viento	0
84610	7	Sololá	701	Sololá	4	Finca Santa Victoria	1	Enero	2023-01-18T00:00:00	2024-11-08T09:00:00	7	Dirección del viento	0
84611	7	Sololá	701	Sololá	4	Finca Santa Victoria	1	Enero	2023-01-18T00:00:00	2024-11-08T09:00:00	1	Precipitación	0
84612	7	Sololá	701	Sololá	4	Finca Santa Victoria	1	Enero	2023-01-18T00:00:00	2024-11-08T09:00:00	8	Radiación solar	159
84613	7	Sololá	701	Sololá	4	Finca Santa Victoria	1	Enero	2023-01-18T00:00:00	2024-11-08T10:00:00	2	Temperatura media	15.1
84614	7	Sololá	701	Sololá	4	Finca Santa Victoria	1	Enero	2023-01-18T00:00:00	2024-11-08T10:00:00	4	Temperatura máxima	15.2
84615	7	Sololá	701	Sololá	4	Finca Santa Victoria	1	Enero	2023-01-18T00:00:00	2024-11-08T10:00:00	3	Temperatura mínima	13.5
84616	7	Sololá	701	Sololá	4	Finca Santa Victoria	1	Enero	2023-01-18T00:00:00	2024-11-08T10:00:00	5	Humedad	68
84617	7	Sololá	701	Sololá	4	Finca Santa Victoria	1	Enero	2023-01-18T00:00:00	2024-11-08T10:00:00	6	Velocidad del viento	3.2
84618	7	Sololá	701	Sololá	4	Finca Santa Victoria	1	Enero	2023-01-18T00:00:00	2024-11-08T10:00:00	7	Dirección del viento	3.22
84619	7	Sololá	701	Sololá	4	Finca Santa Victoria	1	Enero	2023-01-18T00:00:00	2024-11-08T10:00:00	1	Precipitación	0
84620	7	Sololá	701	Sololá	4	Finca Santa Victoria	1	Enero	2023-01-18T00:00:00	2024-11-08T10:00:00	8	Radiación solar	441
84621	7	Sololá	701	Sololá	4	Finca Santa Victoria	1	Enero	2023-01-18T00:00:00	2024-11-08T11:00:00	2	Temperatura media	16.3
84622	7	Sololá	701	Sololá	4	Finca Santa Victoria	1	Enero	2023-01-18T00:00:00	2024-11-08T11:00:00	4	Temperatura máxima	16.4
84623	7	Sololá	701	Sololá	4	Finca Santa Victoria	1	Enero	2023-01-18T00:00:00	2024-11-08T11:00:00	3	Temperatura mínima	15.1
84624	7	Sololá	701	Sololá	4	Finca Santa Victoria	1	Enero	2023-01-18T00:00:00	2024-11-08T11:00:00	5	Humedad	63
84625	7	Sololá	701	Sololá	4	Finca Santa Victoria	1	Enero	2023-01-18T00:00:00	2024-11-08T11:00:00	6	Velocidad del viento	3.2
84626	7	Sololá	701	Sololá	4	Finca Santa Victoria	1	Enero	2023-01-18T00:00:00	2024-11-08T11:00:00	7	Dirección del viento	3.22
84627	7	Sololá	701	Sololá	4	Finca Santa Victoria	1	Enero	2023-01-18T00:00:00	2024-11-08T11:00:00	1	Precipitación	0
84628	7	Sololá	701	Sololá	4	Finca Santa Victoria	1	Enero	2023-01-18T00:00:00	2024-11-08T11:00:00	8	Radiación solar	790
84629	7	Sololá	701	Sololá	4	Finca Santa Victoria	1	Enero	2023-01-18T00:00:00	2024-11-08T12:00:00	2	Temperatura media	16.7
84630	7	Sololá	701	Sololá	4	Finca Santa Victoria	1	Enero	2023-01-18T00:00:00	2024-11-08T12:00:00	4	Temperatura máxima	16.8
84631	7	Sololá	701	Sololá	4	Finca Santa Victoria	1	Enero	2023-01-18T00:00:00	2024-11-08T12:00:00	3	Temperatura mínima	16.1
84632	7	Sololá	701	Sololá	4	Finca Santa Victoria	1	Enero	2023-01-18T00:00:00	2024-11-08T12:00:00	5	Humedad	68
84633	7	Sololá	701	Sololá	4	Finca Santa Victoria	1	Enero	2023-01-18T00:00:00	2024-11-08T12:00:00	6	Velocidad del viento	4.8
84634	7	Sololá	701	Sololá	4	Finca Santa Victoria	1	Enero	2023-01-18T00:00:00	2024-11-08T12:00:00	7	Dirección del viento	4.83
84635	7	Sololá	701	Sololá	4	Finca Santa Victoria	1	Enero	2023-01-18T00:00:00	2024-11-08T12:00:00	1	Precipitación	0
84636	7	Sololá	701	Sololá	4	Finca Santa Victoria	1	Enero	2023-01-18T00:00:00	2024-11-08T12:00:00	8	Radiación solar	870
84637	7	Sololá	701	Sololá	4	Finca Santa Victoria	1	Enero	2023-01-18T00:00:00	2024-11-08T13:00:00	2	Temperatura media	16.3
84638	7	Sololá	701	Sololá	4	Finca Santa Victoria	1	Enero	2023-01-18T00:00:00	2024-11-08T13:00:00	4	Temperatura máxima	16.9
84639	7	Sololá	701	Sololá	4	Finca Santa Victoria	1	Enero	2023-01-18T00:00:00	2024-11-08T13:00:00	3	Temperatura mínima	15.9
84640	7	Sololá	701	Sololá	4	Finca Santa Victoria	1	Enero	2023-01-18T00:00:00	2024-11-08T13:00:00	5	Humedad	77
84641	7	Sololá	701	Sololá	4	Finca Santa Victoria	1	Enero	2023-01-18T00:00:00	2024-11-08T13:00:00	6	Velocidad del viento	4.8
84642	7	Sololá	701	Sololá	4	Finca Santa Victoria	1	Enero	2023-01-18T00:00:00	2024-11-08T13:00:00	7	Dirección del viento	4.83
84643	7	Sololá	701	Sololá	4	Finca Santa Victoria	1	Enero	2023-01-18T00:00:00	2024-11-08T13:00:00	1	Precipitación	0
84644	7	Sololá	701	Sololá	4	Finca Santa Victoria	1	Enero	2023-01-18T00:00:00	2024-11-08T13:00:00	8	Radiación solar	780
84645	7	Sololá	701	Sololá	4	Finca Santa Victoria	1	Enero	2023-01-18T00:00:00	2024-11-08T14:00:00	2	Temperatura media	15.4
84646	7	Sololá	701	Sololá	4	Finca Santa Victoria	1	Enero	2023-01-18T00:00:00	2024-11-08T14:00:00	4	Temperatura máxima	16.8
84647	7	Sololá	701	Sololá	4	Finca Santa Victoria	1	Enero	2023-01-18T00:00:00	2024-11-08T14:00:00	3	Temperatura mínima	15.4
84648	7	Sololá	701	Sololá	4	Finca Santa Victoria	1	Enero	2023-01-18T00:00:00	2024-11-08T14:00:00	5	Humedad	83
84649	7	Sololá	701	Sololá	4	Finca Santa Victoria	1	Enero	2023-01-18T00:00:00	2024-11-08T14:00:00	6	Velocidad del viento	4.8
84650	7	Sololá	701	Sololá	4	Finca Santa Victoria	1	Enero	2023-01-18T00:00:00	2024-11-08T14:00:00	7	Dirección del viento	4.83
84651	7	Sololá	701	Sololá	4	Finca Santa Victoria	1	Enero	2023-01-18T00:00:00	2024-11-08T14:00:00	1	Precipitación	0
84652	7	Sololá	701	Sololá	4	Finca Santa Victoria	1	Enero	2023-01-18T00:00:00	2024-11-08T14:00:00	8	Radiación solar	440
84653	7	Sololá	701	Sololá	4	Finca Santa Victoria	1	Enero	2023-01-18T00:00:00	2024-11-08T15:00:00	2	Temperatura media	14.3
84654	7	Sololá	701	Sololá	4	Finca Santa Victoria	1	Enero	2023-01-18T00:00:00	2024-11-08T15:00:00	4	Temperatura máxima	15.6
84655	7	Sololá	701	Sololá	4	Finca Santa Victoria	1	Enero	2023-01-18T00:00:00	2024-11-08T15:00:00	3	Temperatura mínima	14.3
84656	7	Sololá	701	Sololá	4	Finca Santa Victoria	1	Enero	2023-01-18T00:00:00	2024-11-08T15:00:00	5	Humedad	88
84657	7	Sololá	701	Sololá	4	Finca Santa Victoria	1	Enero	2023-01-18T00:00:00	2024-11-08T15:00:00	6	Velocidad del viento	3.2
84658	7	Sololá	701	Sololá	4	Finca Santa Victoria	1	Enero	2023-01-18T00:00:00	2024-11-08T15:00:00	7	Dirección del viento	3.22
84659	7	Sololá	701	Sololá	4	Finca Santa Victoria	1	Enero	2023-01-18T00:00:00	2024-11-08T15:00:00	1	Precipitación	0
84660	7	Sololá	701	Sololá	4	Finca Santa Victoria	1	Enero	2023-01-18T00:00:00	2024-11-08T15:00:00	8	Radiación solar	138
84661	7	Sololá	701	Sololá	4	Finca Santa Victoria	1	Enero	2023-01-18T00:00:00	2024-11-08T16:00:00	2	Temperatura media	13.6
84662	7	Sololá	701	Sololá	4	Finca Santa Victoria	1	Enero	2023-01-18T00:00:00	2024-11-08T16:00:00	4	Temperatura máxima	14.3
84663	7	Sololá	701	Sololá	4	Finca Santa Victoria	1	Enero	2023-01-18T00:00:00	2024-11-08T16:00:00	3	Temperatura mínima	13.6
84664	7	Sololá	701	Sololá	4	Finca Santa Victoria	1	Enero	2023-01-18T00:00:00	2024-11-08T16:00:00	5	Humedad	91
84665	7	Sololá	701	Sololá	4	Finca Santa Victoria	1	Enero	2023-01-18T00:00:00	2024-11-08T16:00:00	6	Velocidad del viento	3.2
84666	7	Sololá	701	Sololá	4	Finca Santa Victoria	1	Enero	2023-01-18T00:00:00	2024-11-08T16:00:00	7	Dirección del viento	3.22
84667	7	Sololá	701	Sololá	4	Finca Santa Victoria	1	Enero	2023-01-18T00:00:00	2024-11-08T16:00:00	1	Precipitación	0
84668	7	Sololá	701	Sololá	4	Finca Santa Victoria	1	Enero	2023-01-18T00:00:00	2024-11-08T16:00:00	8	Radiación solar	61
84669	7	Sololá	701	Sololá	4	Finca Santa Victoria	1	Enero	2023-01-18T00:00:00	2024-11-08T17:00:00	2	Temperatura media	13.1
84670	7	Sololá	701	Sololá	4	Finca Santa Victoria	1	Enero	2023-01-18T00:00:00	2024-11-08T17:00:00	4	Temperatura máxima	13.6
84671	7	Sololá	701	Sololá	4	Finca Santa Victoria	1	Enero	2023-01-18T00:00:00	2024-11-08T17:00:00	3	Temperatura mínima	13.1
84672	7	Sololá	701	Sololá	4	Finca Santa Victoria	1	Enero	2023-01-18T00:00:00	2024-11-08T17:00:00	5	Humedad	95
84673	7	Sololá	701	Sololá	4	Finca Santa Victoria	1	Enero	2023-01-18T00:00:00	2024-11-08T17:00:00	6	Velocidad del viento	1.6
84674	7	Sololá	701	Sololá	4	Finca Santa Victoria	1	Enero	2023-01-18T00:00:00	2024-11-08T17:00:00	7	Dirección del viento	1.61
84675	7	Sololá	701	Sololá	4	Finca Santa Victoria	1	Enero	2023-01-18T00:00:00	2024-11-08T17:00:00	1	Precipitación	0
84676	7	Sololá	701	Sololá	4	Finca Santa Victoria	1	Enero	2023-01-18T00:00:00	2024-11-08T17:00:00	8	Radiación solar	19
84677	7	Sololá	701	Sololá	4	Finca Santa Victoria	1	Enero	2023-01-18T00:00:00	2024-11-08T18:00:00	2	Temperatura media	12.8
84678	7	Sololá	701	Sololá	4	Finca Santa Victoria	1	Enero	2023-01-18T00:00:00	2024-11-08T18:00:00	4	Temperatura máxima	13.1
84679	7	Sololá	701	Sololá	4	Finca Santa Victoria	1	Enero	2023-01-18T00:00:00	2024-11-08T18:00:00	3	Temperatura mínima	12.8
84680	7	Sololá	701	Sololá	4	Finca Santa Victoria	1	Enero	2023-01-18T00:00:00	2024-11-08T18:00:00	5	Humedad	95
84681	7	Sololá	701	Sololá	4	Finca Santa Victoria	1	Enero	2023-01-18T00:00:00	2024-11-08T18:00:00	6	Velocidad del viento	1.6
84682	7	Sololá	701	Sololá	4	Finca Santa Victoria	1	Enero	2023-01-18T00:00:00	2024-11-08T18:00:00	7	Dirección del viento	1.61
84683	7	Sololá	701	Sololá	4	Finca Santa Victoria	1	Enero	2023-01-18T00:00:00	2024-11-08T18:00:00	1	Precipitación	0
84684	7	Sololá	701	Sololá	4	Finca Santa Victoria	1	Enero	2023-01-18T00:00:00	2024-11-08T18:00:00	8	Radiación solar	4
84685	7	Sololá	701	Sololá	4	Finca Santa Victoria	1	Enero	2023-01-18T00:00:00	2024-11-08T19:00:00	2	Temperatura media	12.5
84686	7	Sololá	701	Sololá	4	Finca Santa Victoria	1	Enero	2023-01-18T00:00:00	2024-11-08T19:00:00	4	Temperatura máxima	12.8
84687	7	Sololá	701	Sololá	4	Finca Santa Victoria	1	Enero	2023-01-18T00:00:00	2024-11-08T19:00:00	3	Temperatura mínima	12.4
84688	7	Sololá	701	Sololá	4	Finca Santa Victoria	1	Enero	2023-01-18T00:00:00	2024-11-08T19:00:00	5	Humedad	96
84689	7	Sololá	701	Sololá	4	Finca Santa Victoria	1	Enero	2023-01-18T00:00:00	2024-11-08T19:00:00	6	Velocidad del viento	1.6
84690	7	Sololá	701	Sololá	4	Finca Santa Victoria	1	Enero	2023-01-18T00:00:00	2024-11-08T19:00:00	7	Dirección del viento	1.61
84691	7	Sololá	701	Sololá	4	Finca Santa Victoria	1	Enero	2023-01-18T00:00:00	2024-11-08T19:00:00	1	Precipitación	0
84692	7	Sololá	701	Sololá	4	Finca Santa Victoria	1	Enero	2023-01-18T00:00:00	2024-11-08T19:00:00	8	Radiación solar	0
84693	7	Sololá	701	Sololá	4	Finca Santa Victoria	1	Enero	2023-01-18T00:00:00	2024-11-08T20:00:00	2	Temperatura media	11.9
84694	7	Sololá	701	Sololá	4	Finca Santa Victoria	1	Enero	2023-01-18T00:00:00	2024-11-08T20:00:00	4	Temperatura máxima	12.5
84695	7	Sololá	701	Sololá	4	Finca Santa Victoria	1	Enero	2023-01-18T00:00:00	2024-11-08T20:00:00	3	Temperatura mínima	11.9
84696	7	Sololá	701	Sololá	4	Finca Santa Victoria	1	Enero	2023-01-18T00:00:00	2024-11-08T20:00:00	5	Humedad	96
84697	7	Sololá	701	Sololá	4	Finca Santa Victoria	1	Enero	2023-01-18T00:00:00	2024-11-08T20:00:00	6	Velocidad del viento	0
84698	7	Sololá	701	Sololá	4	Finca Santa Victoria	1	Enero	2023-01-18T00:00:00	2024-11-08T20:00:00	7	Dirección del viento	0
84699	7	Sololá	701	Sololá	4	Finca Santa Victoria	1	Enero	2023-01-18T00:00:00	2024-11-08T20:00:00	1	Precipitación	0
84700	7	Sololá	701	Sololá	4	Finca Santa Victoria	1	Enero	2023-01-18T00:00:00	2024-11-08T20:00:00	8	Radiación solar	0
84701	7	Sololá	701	Sololá	4	Finca Santa Victoria	1	Enero	2023-01-18T00:00:00	2024-11-08T21:00:00	2	Temperatura media	11.8
84702	7	Sololá	701	Sololá	4	Finca Santa Victoria	1	Enero	2023-01-18T00:00:00	2024-11-08T21:00:00	4	Temperatura máxima	12
84703	7	Sololá	701	Sololá	4	Finca Santa Victoria	1	Enero	2023-01-18T00:00:00	2024-11-08T21:00:00	3	Temperatura mínima	11.8
84704	7	Sololá	701	Sololá	4	Finca Santa Victoria	1	Enero	2023-01-18T00:00:00	2024-11-08T21:00:00	5	Humedad	97
84705	7	Sololá	701	Sololá	4	Finca Santa Victoria	1	Enero	2023-01-18T00:00:00	2024-11-08T21:00:00	6	Velocidad del viento	0
84706	7	Sololá	701	Sololá	4	Finca Santa Victoria	1	Enero	2023-01-18T00:00:00	2024-11-08T21:00:00	7	Dirección del viento	0
84707	7	Sololá	701	Sololá	4	Finca Santa Victoria	1	Enero	2023-01-18T00:00:00	2024-11-08T21:00:00	1	Precipitación	0
84708	7	Sololá	701	Sololá	4	Finca Santa Victoria	1	Enero	2023-01-18T00:00:00	2024-11-08T21:00:00	8	Radiación solar	0
84709	7	Sololá	701	Sololá	4	Finca Santa Victoria	1	Enero	2023-01-18T00:00:00	2024-11-08T22:00:00	2	Temperatura media	11.3
84710	7	Sololá	701	Sololá	4	Finca Santa Victoria	1	Enero	2023-01-18T00:00:00	2024-11-08T22:00:00	4	Temperatura máxima	11.8
84711	7	Sololá	701	Sololá	4	Finca Santa Victoria	1	Enero	2023-01-18T00:00:00	2024-11-08T22:00:00	3	Temperatura mínima	11.3
84712	7	Sololá	701	Sololá	4	Finca Santa Victoria	1	Enero	2023-01-18T00:00:00	2024-11-08T22:00:00	5	Humedad	97
84713	7	Sololá	701	Sololá	4	Finca Santa Victoria	1	Enero	2023-01-18T00:00:00	2024-11-08T22:00:00	6	Velocidad del viento	0
84714	7	Sololá	701	Sololá	4	Finca Santa Victoria	1	Enero	2023-01-18T00:00:00	2024-11-08T22:00:00	7	Dirección del viento	0
84715	7	Sololá	701	Sololá	4	Finca Santa Victoria	1	Enero	2023-01-18T00:00:00	2024-11-08T22:00:00	1	Precipitación	0
84716	7	Sololá	701	Sololá	4	Finca Santa Victoria	1	Enero	2023-01-18T00:00:00	2024-11-08T22:00:00	8	Radiación solar	0
84717	7	Sololá	701	Sololá	4	Finca Santa Victoria	1	Enero	2023-01-18T00:00:00	2024-11-08T23:00:00	2	Temperatura media	10.3
84718	7	Sololá	701	Sololá	4	Finca Santa Victoria	1	Enero	2023-01-18T00:00:00	2024-11-08T23:00:00	4	Temperatura máxima	11.3
84719	7	Sololá	701	Sololá	4	Finca Santa Victoria	1	Enero	2023-01-18T00:00:00	2024-11-08T23:00:00	3	Temperatura mínima	10.3
84720	7	Sololá	701	Sololá	4	Finca Santa Victoria	1	Enero	2023-01-18T00:00:00	2024-11-08T23:00:00	5	Humedad	97
84721	7	Sololá	701	Sololá	4	Finca Santa Victoria	1	Enero	2023-01-18T00:00:00	2024-11-08T23:00:00	6	Velocidad del viento	0
84722	7	Sololá	701	Sololá	4	Finca Santa Victoria	1	Enero	2023-01-18T00:00:00	2024-11-08T23:00:00	7	Dirección del viento	0
84723	7	Sololá	701	Sololá	4	Finca Santa Victoria	1	Enero	2023-01-18T00:00:00	2024-11-08T23:00:00	1	Precipitación	0
84724	7	Sololá	701	Sololá	4	Finca Santa Victoria	1	Enero	2023-01-18T00:00:00	2024-11-08T23:00:00	8	Radiación solar	0
84725	7	Sololá	701	Sololá	4	Finca Santa Victoria	1	Enero	2023-01-19T00:00:00	2024-11-08T00:00:00	2	Temperatura media	10.2
84726	7	Sololá	701	Sololá	4	Finca Santa Victoria	1	Enero	2023-01-19T00:00:00	2024-11-08T00:00:00	4	Temperatura máxima	10.3
84727	7	Sololá	701	Sololá	4	Finca Santa Victoria	1	Enero	2023-01-19T00:00:00	2024-11-08T00:00:00	3	Temperatura mínima	9.9
84728	7	Sololá	701	Sololá	4	Finca Santa Victoria	1	Enero	2023-01-19T00:00:00	2024-11-08T00:00:00	5	Humedad	97
84729	7	Sololá	701	Sololá	4	Finca Santa Victoria	1	Enero	2023-01-19T00:00:00	2024-11-08T00:00:00	6	Velocidad del viento	1.6
84730	7	Sololá	701	Sololá	4	Finca Santa Victoria	1	Enero	2023-01-19T00:00:00	2024-11-08T00:00:00	7	Dirección del viento	1.61
84731	7	Sololá	701	Sololá	4	Finca Santa Victoria	1	Enero	2023-01-19T00:00:00	2024-11-08T00:00:00	1	Precipitación	0
84732	7	Sololá	701	Sololá	4	Finca Santa Victoria	1	Enero	2023-01-19T00:00:00	2024-11-08T00:00:00	8	Radiación solar	0
84733	7	Sololá	701	Sololá	4	Finca Santa Victoria	1	Enero	2023-01-19T00:00:00	2024-11-08T01:00:00	2	Temperatura media	9.8
84734	7	Sololá	701	Sololá	4	Finca Santa Victoria	1	Enero	2023-01-19T00:00:00	2024-11-08T01:00:00	4	Temperatura máxima	10.4
84735	7	Sololá	701	Sololá	4	Finca Santa Victoria	1	Enero	2023-01-19T00:00:00	2024-11-08T01:00:00	3	Temperatura mínima	9.8
84736	7	Sololá	701	Sololá	4	Finca Santa Victoria	1	Enero	2023-01-19T00:00:00	2024-11-08T01:00:00	5	Humedad	96
84737	7	Sololá	701	Sololá	4	Finca Santa Victoria	1	Enero	2023-01-19T00:00:00	2024-11-08T01:00:00	6	Velocidad del viento	1.6
84738	7	Sololá	701	Sololá	4	Finca Santa Victoria	1	Enero	2023-01-19T00:00:00	2024-11-08T01:00:00	7	Dirección del viento	1.61
84739	7	Sololá	701	Sololá	4	Finca Santa Victoria	1	Enero	2023-01-19T00:00:00	2024-11-08T01:00:00	1	Precipitación	0
84740	7	Sololá	701	Sololá	4	Finca Santa Victoria	1	Enero	2023-01-19T00:00:00	2024-11-08T01:00:00	8	Radiación solar	0
84741	7	Sololá	701	Sololá	4	Finca Santa Victoria	1	Enero	2023-01-19T00:00:00	2024-11-08T02:00:00	2	Temperatura media	9.5
84742	7	Sololá	701	Sololá	4	Finca Santa Victoria	1	Enero	2023-01-19T00:00:00	2024-11-08T02:00:00	4	Temperatura máxima	9.8
84743	7	Sololá	701	Sololá	4	Finca Santa Victoria	1	Enero	2023-01-19T00:00:00	2024-11-08T02:00:00	3	Temperatura mínima	9
84744	7	Sololá	701	Sololá	4	Finca Santa Victoria	1	Enero	2023-01-19T00:00:00	2024-11-08T02:00:00	5	Humedad	84
84745	7	Sololá	701	Sololá	4	Finca Santa Victoria	1	Enero	2023-01-19T00:00:00	2024-11-08T02:00:00	6	Velocidad del viento	1.6
84746	7	Sololá	701	Sololá	4	Finca Santa Victoria	1	Enero	2023-01-19T00:00:00	2024-11-08T02:00:00	7	Dirección del viento	1.61
84747	7	Sololá	701	Sololá	4	Finca Santa Victoria	1	Enero	2023-01-19T00:00:00	2024-11-08T02:00:00	1	Precipitación	0
84748	7	Sololá	701	Sololá	4	Finca Santa Victoria	1	Enero	2023-01-19T00:00:00	2024-11-08T02:00:00	8	Radiación solar	0
84749	7	Sololá	701	Sololá	4	Finca Santa Victoria	1	Enero	2023-01-19T00:00:00	2024-11-08T03:00:00	2	Temperatura media	10.1
84750	7	Sololá	701	Sololá	4	Finca Santa Victoria	1	Enero	2023-01-19T00:00:00	2024-11-08T03:00:00	4	Temperatura máxima	10.1
84751	7	Sololá	701	Sololá	4	Finca Santa Victoria	1	Enero	2023-01-19T00:00:00	2024-11-08T03:00:00	3	Temperatura mínima	9.4
84752	7	Sololá	701	Sololá	4	Finca Santa Victoria	1	Enero	2023-01-19T00:00:00	2024-11-08T03:00:00	5	Humedad	62
84753	7	Sololá	701	Sololá	4	Finca Santa Victoria	1	Enero	2023-01-19T00:00:00	2024-11-08T03:00:00	6	Velocidad del viento	1.6
84754	7	Sololá	701	Sololá	4	Finca Santa Victoria	1	Enero	2023-01-19T00:00:00	2024-11-08T03:00:00	7	Dirección del viento	1.61
84755	7	Sololá	701	Sololá	4	Finca Santa Victoria	1	Enero	2023-01-19T00:00:00	2024-11-08T03:00:00	1	Precipitación	0
84756	7	Sololá	701	Sololá	4	Finca Santa Victoria	1	Enero	2023-01-19T00:00:00	2024-11-08T03:00:00	8	Radiación solar	0
84757	7	Sololá	701	Sololá	4	Finca Santa Victoria	1	Enero	2023-01-19T00:00:00	2024-11-08T04:00:00	2	Temperatura media	10.4
84758	7	Sololá	701	Sololá	4	Finca Santa Victoria	1	Enero	2023-01-19T00:00:00	2024-11-08T04:00:00	4	Temperatura máxima	10.4
84759	7	Sololá	701	Sololá	4	Finca Santa Victoria	1	Enero	2023-01-19T00:00:00	2024-11-08T04:00:00	3	Temperatura mínima	10.1
84760	7	Sololá	701	Sololá	4	Finca Santa Victoria	1	Enero	2023-01-19T00:00:00	2024-11-08T04:00:00	5	Humedad	76
84761	7	Sololá	701	Sololá	4	Finca Santa Victoria	1	Enero	2023-01-19T00:00:00	2024-11-08T04:00:00	6	Velocidad del viento	1.6
84762	7	Sololá	701	Sololá	4	Finca Santa Victoria	1	Enero	2023-01-19T00:00:00	2024-11-08T04:00:00	7	Dirección del viento	1.61
84763	7	Sololá	701	Sololá	4	Finca Santa Victoria	1	Enero	2023-01-19T00:00:00	2024-11-08T04:00:00	1	Precipitación	0
84764	7	Sololá	701	Sololá	4	Finca Santa Victoria	1	Enero	2023-01-19T00:00:00	2024-11-08T04:00:00	8	Radiación solar	0
84765	7	Sololá	701	Sololá	4	Finca Santa Victoria	1	Enero	2023-01-19T00:00:00	2024-11-08T05:00:00	2	Temperatura media	10.3
84766	7	Sololá	701	Sololá	4	Finca Santa Victoria	1	Enero	2023-01-19T00:00:00	2024-11-08T05:00:00	4	Temperatura máxima	10.5
84767	7	Sololá	701	Sololá	4	Finca Santa Victoria	1	Enero	2023-01-19T00:00:00	2024-11-08T05:00:00	3	Temperatura mínima	10.2
84768	7	Sololá	701	Sololá	4	Finca Santa Victoria	1	Enero	2023-01-19T00:00:00	2024-11-08T05:00:00	5	Humedad	47
84769	7	Sololá	701	Sololá	4	Finca Santa Victoria	1	Enero	2023-01-19T00:00:00	2024-11-08T05:00:00	6	Velocidad del viento	1.6
84770	7	Sololá	701	Sololá	4	Finca Santa Victoria	1	Enero	2023-01-19T00:00:00	2024-11-08T05:00:00	7	Dirección del viento	1.61
84771	7	Sololá	701	Sololá	4	Finca Santa Victoria	1	Enero	2023-01-19T00:00:00	2024-11-08T05:00:00	1	Precipitación	0
84772	7	Sololá	701	Sololá	4	Finca Santa Victoria	1	Enero	2023-01-19T00:00:00	2024-11-08T05:00:00	8	Radiación solar	0
84773	7	Sololá	701	Sololá	4	Finca Santa Victoria	1	Enero	2023-01-19T00:00:00	2024-11-08T06:00:00	2	Temperatura media	10.8
84774	7	Sololá	701	Sololá	4	Finca Santa Victoria	1	Enero	2023-01-19T00:00:00	2024-11-08T06:00:00	4	Temperatura máxima	10.8
84775	7	Sololá	701	Sololá	4	Finca Santa Victoria	1	Enero	2023-01-19T00:00:00	2024-11-08T06:00:00	3	Temperatura mínima	10.3
84776	7	Sololá	701	Sololá	4	Finca Santa Victoria	1	Enero	2023-01-19T00:00:00	2024-11-08T06:00:00	5	Humedad	35
84777	7	Sololá	701	Sololá	4	Finca Santa Victoria	1	Enero	2023-01-19T00:00:00	2024-11-08T06:00:00	6	Velocidad del viento	1.6
84778	7	Sololá	701	Sololá	4	Finca Santa Victoria	1	Enero	2023-01-19T00:00:00	2024-11-08T06:00:00	7	Dirección del viento	1.61
84779	7	Sololá	701	Sololá	4	Finca Santa Victoria	1	Enero	2023-01-19T00:00:00	2024-11-08T06:00:00	1	Precipitación	0
84780	7	Sololá	701	Sololá	4	Finca Santa Victoria	1	Enero	2023-01-19T00:00:00	2024-11-08T06:00:00	8	Radiación solar	0
84781	7	Sololá	701	Sololá	4	Finca Santa Victoria	1	Enero	2023-01-19T00:00:00	2024-11-08T07:00:00	2	Temperatura media	11.3
84782	7	Sololá	701	Sololá	4	Finca Santa Victoria	1	Enero	2023-01-19T00:00:00	2024-11-08T07:00:00	4	Temperatura máxima	11.3
84783	7	Sololá	701	Sololá	4	Finca Santa Victoria	1	Enero	2023-01-19T00:00:00	2024-11-08T07:00:00	3	Temperatura mínima	10.7
84784	7	Sololá	701	Sololá	4	Finca Santa Victoria	1	Enero	2023-01-19T00:00:00	2024-11-08T07:00:00	5	Humedad	29
84785	7	Sololá	701	Sololá	4	Finca Santa Victoria	1	Enero	2023-01-19T00:00:00	2024-11-08T07:00:00	6	Velocidad del viento	1.6
84786	7	Sololá	701	Sololá	4	Finca Santa Victoria	1	Enero	2023-01-19T00:00:00	2024-11-08T07:00:00	7	Dirección del viento	1.61
84787	7	Sololá	701	Sololá	4	Finca Santa Victoria	1	Enero	2023-01-19T00:00:00	2024-11-08T07:00:00	1	Precipitación	0
84788	7	Sololá	701	Sololá	4	Finca Santa Victoria	1	Enero	2023-01-19T00:00:00	2024-11-08T07:00:00	8	Radiación solar	3
84789	7	Sololá	701	Sololá	4	Finca Santa Victoria	1	Enero	2023-01-19T00:00:00	2024-11-08T08:00:00	2	Temperatura media	11.8
84790	7	Sololá	701	Sololá	4	Finca Santa Victoria	1	Enero	2023-01-19T00:00:00	2024-11-08T08:00:00	4	Temperatura máxima	11.8
84791	7	Sololá	701	Sololá	4	Finca Santa Victoria	1	Enero	2023-01-19T00:00:00	2024-11-08T08:00:00	3	Temperatura mínima	11.2
84792	7	Sololá	701	Sololá	4	Finca Santa Victoria	1	Enero	2023-01-19T00:00:00	2024-11-08T08:00:00	5	Humedad	48
84793	7	Sololá	701	Sololá	4	Finca Santa Victoria	1	Enero	2023-01-19T00:00:00	2024-11-08T08:00:00	6	Velocidad del viento	0
84794	7	Sololá	701	Sololá	4	Finca Santa Victoria	1	Enero	2023-01-19T00:00:00	2024-11-08T08:00:00	7	Dirección del viento	0
84795	7	Sololá	701	Sololá	4	Finca Santa Victoria	1	Enero	2023-01-19T00:00:00	2024-11-08T08:00:00	1	Precipitación	0
84796	7	Sololá	701	Sololá	4	Finca Santa Victoria	1	Enero	2023-01-19T00:00:00	2024-11-08T08:00:00	8	Radiación solar	34
84797	7	Sololá	701	Sololá	4	Finca Santa Victoria	1	Enero	2023-01-19T00:00:00	2024-11-08T09:00:00	2	Temperatura media	14.3
84798	7	Sololá	701	Sololá	4	Finca Santa Victoria	1	Enero	2023-01-19T00:00:00	2024-11-08T09:00:00	4	Temperatura máxima	14.3
84799	7	Sololá	701	Sololá	4	Finca Santa Victoria	1	Enero	2023-01-19T00:00:00	2024-11-08T09:00:00	3	Temperatura mínima	11.8
84800	7	Sololá	701	Sololá	4	Finca Santa Victoria	1	Enero	2023-01-19T00:00:00	2024-11-08T09:00:00	5	Humedad	42
84801	7	Sololá	701	Sololá	4	Finca Santa Victoria	1	Enero	2023-01-19T00:00:00	2024-11-08T09:00:00	6	Velocidad del viento	0
84802	7	Sololá	701	Sololá	4	Finca Santa Victoria	1	Enero	2023-01-19T00:00:00	2024-11-08T09:00:00	7	Dirección del viento	0
84803	7	Sololá	701	Sololá	4	Finca Santa Victoria	1	Enero	2023-01-19T00:00:00	2024-11-08T09:00:00	1	Precipitación	0
84804	7	Sololá	701	Sololá	4	Finca Santa Victoria	1	Enero	2023-01-19T00:00:00	2024-11-08T09:00:00	8	Radiación solar	165
84805	7	Sololá	701	Sololá	4	Finca Santa Victoria	1	Enero	2023-01-19T00:00:00	2024-11-08T10:00:00	2	Temperatura media	14.5
84806	7	Sololá	701	Sololá	4	Finca Santa Victoria	1	Enero	2023-01-19T00:00:00	2024-11-08T10:00:00	4	Temperatura máxima	14.8
84807	7	Sololá	701	Sololá	4	Finca Santa Victoria	1	Enero	2023-01-19T00:00:00	2024-11-08T10:00:00	3	Temperatura mínima	14.2
84808	7	Sololá	701	Sololá	4	Finca Santa Victoria	1	Enero	2023-01-19T00:00:00	2024-11-08T10:00:00	5	Humedad	58
84809	7	Sololá	701	Sololá	4	Finca Santa Victoria	1	Enero	2023-01-19T00:00:00	2024-11-08T10:00:00	6	Velocidad del viento	3.2
84810	7	Sololá	701	Sololá	4	Finca Santa Victoria	1	Enero	2023-01-19T00:00:00	2024-11-08T10:00:00	7	Dirección del viento	3.22
84811	7	Sololá	701	Sololá	4	Finca Santa Victoria	1	Enero	2023-01-19T00:00:00	2024-11-08T10:00:00	1	Precipitación	0
84812	7	Sololá	701	Sololá	4	Finca Santa Victoria	1	Enero	2023-01-19T00:00:00	2024-11-08T10:00:00	8	Radiación solar	432
84813	7	Sololá	701	Sololá	4	Finca Santa Victoria	1	Enero	2023-01-19T00:00:00	2024-11-08T11:00:00	2	Temperatura media	16.2
84814	7	Sololá	701	Sololá	4	Finca Santa Victoria	1	Enero	2023-01-19T00:00:00	2024-11-08T11:00:00	4	Temperatura máxima	16.3
84815	7	Sololá	701	Sololá	4	Finca Santa Victoria	1	Enero	2023-01-19T00:00:00	2024-11-08T11:00:00	3	Temperatura mínima	14.4
84816	7	Sololá	701	Sololá	4	Finca Santa Victoria	1	Enero	2023-01-19T00:00:00	2024-11-08T11:00:00	5	Humedad	55
84817	7	Sololá	701	Sololá	4	Finca Santa Victoria	1	Enero	2023-01-19T00:00:00	2024-11-08T11:00:00	6	Velocidad del viento	3.2
84818	7	Sololá	701	Sololá	4	Finca Santa Victoria	1	Enero	2023-01-19T00:00:00	2024-11-08T11:00:00	7	Dirección del viento	3.22
84819	7	Sololá	701	Sololá	4	Finca Santa Victoria	1	Enero	2023-01-19T00:00:00	2024-11-08T11:00:00	1	Precipitación	0
84820	7	Sololá	701	Sololá	4	Finca Santa Victoria	1	Enero	2023-01-19T00:00:00	2024-11-08T11:00:00	8	Radiación solar	802
84821	7	Sololá	701	Sololá	4	Finca Santa Victoria	1	Enero	2023-01-19T00:00:00	2024-11-08T12:00:00	2	Temperatura media	16.1
84822	7	Sololá	701	Sololá	4	Finca Santa Victoria	1	Enero	2023-01-19T00:00:00	2024-11-08T12:00:00	4	Temperatura máxima	16.3
84823	7	Sololá	701	Sololá	4	Finca Santa Victoria	1	Enero	2023-01-19T00:00:00	2024-11-08T12:00:00	3	Temperatura mínima	15.9
84824	7	Sololá	701	Sololá	4	Finca Santa Victoria	1	Enero	2023-01-19T00:00:00	2024-11-08T12:00:00	5	Humedad	59
84825	7	Sololá	701	Sololá	4	Finca Santa Victoria	1	Enero	2023-01-19T00:00:00	2024-11-08T12:00:00	6	Velocidad del viento	4.8
84826	7	Sololá	701	Sololá	4	Finca Santa Victoria	1	Enero	2023-01-19T00:00:00	2024-11-08T12:00:00	7	Dirección del viento	4.83
84827	7	Sololá	701	Sololá	4	Finca Santa Victoria	1	Enero	2023-01-19T00:00:00	2024-11-08T12:00:00	1	Precipitación	0
84828	7	Sololá	701	Sololá	4	Finca Santa Victoria	1	Enero	2023-01-19T00:00:00	2024-11-08T12:00:00	8	Radiación solar	880
84829	7	Sololá	701	Sololá	4	Finca Santa Victoria	1	Enero	2023-01-19T00:00:00	2024-11-08T13:00:00	2	Temperatura media	16.3
84830	7	Sololá	701	Sololá	4	Finca Santa Victoria	1	Enero	2023-01-19T00:00:00	2024-11-08T13:00:00	4	Temperatura máxima	16.9
84831	7	Sololá	701	Sololá	4	Finca Santa Victoria	1	Enero	2023-01-19T00:00:00	2024-11-08T13:00:00	3	Temperatura mínima	15.8
84832	7	Sololá	701	Sololá	4	Finca Santa Victoria	1	Enero	2023-01-19T00:00:00	2024-11-08T13:00:00	5	Humedad	62
84833	7	Sololá	701	Sololá	4	Finca Santa Victoria	1	Enero	2023-01-19T00:00:00	2024-11-08T13:00:00	6	Velocidad del viento	4.8
84834	7	Sololá	701	Sololá	4	Finca Santa Victoria	1	Enero	2023-01-19T00:00:00	2024-11-08T13:00:00	7	Dirección del viento	4.83
84835	7	Sololá	701	Sololá	4	Finca Santa Victoria	1	Enero	2023-01-19T00:00:00	2024-11-08T13:00:00	1	Precipitación	0
84836	7	Sololá	701	Sololá	4	Finca Santa Victoria	1	Enero	2023-01-19T00:00:00	2024-11-08T13:00:00	8	Radiación solar	877
84837	7	Sololá	701	Sololá	4	Finca Santa Victoria	1	Enero	2023-01-19T00:00:00	2024-11-08T14:00:00	2	Temperatura media	16.7
84838	7	Sololá	701	Sololá	4	Finca Santa Victoria	1	Enero	2023-01-19T00:00:00	2024-11-08T14:00:00	4	Temperatura máxima	16.9
84839	7	Sololá	701	Sololá	4	Finca Santa Victoria	1	Enero	2023-01-19T00:00:00	2024-11-08T14:00:00	3	Temperatura mínima	16.2
84840	7	Sololá	701	Sololá	4	Finca Santa Victoria	1	Enero	2023-01-19T00:00:00	2024-11-08T14:00:00	5	Humedad	69
84841	7	Sololá	701	Sololá	4	Finca Santa Victoria	1	Enero	2023-01-19T00:00:00	2024-11-08T14:00:00	6	Velocidad del viento	6.4
84842	7	Sololá	701	Sololá	4	Finca Santa Victoria	1	Enero	2023-01-19T00:00:00	2024-11-08T14:00:00	7	Dirección del viento	6.44
84843	7	Sololá	701	Sololá	4	Finca Santa Victoria	1	Enero	2023-01-19T00:00:00	2024-11-08T14:00:00	1	Precipitación	0
84844	7	Sololá	701	Sololá	4	Finca Santa Victoria	1	Enero	2023-01-19T00:00:00	2024-11-08T14:00:00	8	Radiación solar	798
84845	7	Sololá	701	Sololá	4	Finca Santa Victoria	1	Enero	2023-01-19T00:00:00	2024-11-08T15:00:00	2	Temperatura media	15.9
84846	7	Sololá	701	Sololá	4	Finca Santa Victoria	1	Enero	2023-01-19T00:00:00	2024-11-08T15:00:00	4	Temperatura máxima	17.1
84847	7	Sololá	701	Sololá	4	Finca Santa Victoria	1	Enero	2023-01-19T00:00:00	2024-11-08T15:00:00	3	Temperatura mínima	15.7
84848	7	Sololá	701	Sololá	4	Finca Santa Victoria	1	Enero	2023-01-19T00:00:00	2024-11-08T15:00:00	5	Humedad	77
84849	7	Sololá	701	Sololá	4	Finca Santa Victoria	1	Enero	2023-01-19T00:00:00	2024-11-08T15:00:00	6	Velocidad del viento	4.8
84850	7	Sololá	701	Sololá	4	Finca Santa Victoria	1	Enero	2023-01-19T00:00:00	2024-11-08T15:00:00	7	Dirección del viento	4.83
84851	7	Sololá	701	Sololá	4	Finca Santa Victoria	1	Enero	2023-01-19T00:00:00	2024-11-08T15:00:00	1	Precipitación	0
84852	7	Sololá	701	Sololá	4	Finca Santa Victoria	1	Enero	2023-01-19T00:00:00	2024-11-08T15:00:00	8	Radiación solar	422
84853	7	Sololá	701	Sololá	4	Finca Santa Victoria	1	Enero	2023-01-19T00:00:00	2024-11-08T16:00:00	2	Temperatura media	16.2
84854	7	Sololá	701	Sololá	4	Finca Santa Victoria	1	Enero	2023-01-19T00:00:00	2024-11-08T16:00:00	4	Temperatura máxima	16.2
84855	7	Sololá	701	Sololá	4	Finca Santa Victoria	1	Enero	2023-01-19T00:00:00	2024-11-08T16:00:00	3	Temperatura mínima	15.6
84856	7	Sololá	701	Sololá	4	Finca Santa Victoria	1	Enero	2023-01-19T00:00:00	2024-11-08T16:00:00	5	Humedad	76
84857	7	Sololá	701	Sololá	4	Finca Santa Victoria	1	Enero	2023-01-19T00:00:00	2024-11-08T16:00:00	6	Velocidad del viento	4.8
84858	7	Sololá	701	Sololá	4	Finca Santa Victoria	1	Enero	2023-01-19T00:00:00	2024-11-08T16:00:00	7	Dirección del viento	4.83
84859	7	Sololá	701	Sololá	4	Finca Santa Victoria	1	Enero	2023-01-19T00:00:00	2024-11-08T16:00:00	1	Precipitación	0
84860	7	Sololá	701	Sololá	4	Finca Santa Victoria	1	Enero	2023-01-19T00:00:00	2024-11-08T16:00:00	8	Radiación solar	447
84861	7	Sololá	701	Sololá	4	Finca Santa Victoria	1	Enero	2023-01-19T00:00:00	2024-11-08T17:00:00	2	Temperatura media	14.5
84862	7	Sololá	701	Sololá	4	Finca Santa Victoria	1	Enero	2023-01-19T00:00:00	2024-11-08T17:00:00	4	Temperatura máxima	16.2
84863	7	Sololá	701	Sololá	4	Finca Santa Victoria	1	Enero	2023-01-19T00:00:00	2024-11-08T17:00:00	3	Temperatura mínima	14.1
84864	7	Sololá	701	Sololá	4	Finca Santa Victoria	1	Enero	2023-01-19T00:00:00	2024-11-08T17:00:00	5	Humedad	84
84865	7	Sololá	701	Sololá	4	Finca Santa Victoria	1	Enero	2023-01-19T00:00:00	2024-11-08T17:00:00	6	Velocidad del viento	3.2
84866	7	Sololá	701	Sololá	4	Finca Santa Victoria	1	Enero	2023-01-19T00:00:00	2024-11-08T17:00:00	7	Dirección del viento	3.22
84867	7	Sololá	701	Sololá	4	Finca Santa Victoria	1	Enero	2023-01-19T00:00:00	2024-11-08T17:00:00	1	Precipitación	0
84868	7	Sololá	701	Sololá	4	Finca Santa Victoria	1	Enero	2023-01-19T00:00:00	2024-11-08T17:00:00	8	Radiación solar	229
84869	7	Sololá	701	Sololá	4	Finca Santa Victoria	1	Enero	2023-01-19T00:00:00	2024-11-08T18:00:00	2	Temperatura media	12.2
84870	7	Sololá	701	Sololá	4	Finca Santa Victoria	1	Enero	2023-01-19T00:00:00	2024-11-08T18:00:00	4	Temperatura máxima	14.7
84871	7	Sololá	701	Sololá	4	Finca Santa Victoria	1	Enero	2023-01-19T00:00:00	2024-11-08T18:00:00	3	Temperatura mínima	12.2
84872	7	Sololá	701	Sololá	4	Finca Santa Victoria	1	Enero	2023-01-19T00:00:00	2024-11-08T18:00:00	5	Humedad	92
84873	7	Sololá	701	Sololá	4	Finca Santa Victoria	1	Enero	2023-01-19T00:00:00	2024-11-08T18:00:00	6	Velocidad del viento	1.6
84874	7	Sololá	701	Sololá	4	Finca Santa Victoria	1	Enero	2023-01-19T00:00:00	2024-11-08T18:00:00	7	Dirección del viento	1.61
84875	7	Sololá	701	Sololá	4	Finca Santa Victoria	1	Enero	2023-01-19T00:00:00	2024-11-08T18:00:00	1	Precipitación	0
84876	7	Sololá	701	Sololá	4	Finca Santa Victoria	1	Enero	2023-01-19T00:00:00	2024-11-08T18:00:00	8	Radiación solar	26
84877	7	Sololá	701	Sololá	4	Finca Santa Victoria	1	Enero	2023-01-19T00:00:00	2024-11-08T19:00:00	2	Temperatura media	11.1
84878	7	Sololá	701	Sololá	4	Finca Santa Victoria	1	Enero	2023-01-19T00:00:00	2024-11-08T19:00:00	4	Temperatura máxima	12.2
84879	7	Sololá	701	Sololá	4	Finca Santa Victoria	1	Enero	2023-01-19T00:00:00	2024-11-08T19:00:00	3	Temperatura mínima	11.1
84880	7	Sololá	701	Sololá	4	Finca Santa Victoria	1	Enero	2023-01-19T00:00:00	2024-11-08T19:00:00	5	Humedad	92
84881	7	Sololá	701	Sololá	4	Finca Santa Victoria	1	Enero	2023-01-19T00:00:00	2024-11-08T19:00:00	6	Velocidad del viento	1.6
84882	7	Sololá	701	Sololá	4	Finca Santa Victoria	1	Enero	2023-01-19T00:00:00	2024-11-08T19:00:00	7	Dirección del viento	1.61
84883	7	Sololá	701	Sololá	4	Finca Santa Victoria	1	Enero	2023-01-19T00:00:00	2024-11-08T19:00:00	1	Precipitación	0
84884	7	Sololá	701	Sololá	4	Finca Santa Victoria	1	Enero	2023-01-19T00:00:00	2024-11-08T19:00:00	8	Radiación solar	0
84885	7	Sololá	701	Sololá	4	Finca Santa Victoria	1	Enero	2023-01-19T00:00:00	2024-11-08T20:00:00	2	Temperatura media	11.2
84886	7	Sololá	701	Sololá	4	Finca Santa Victoria	1	Enero	2023-01-19T00:00:00	2024-11-08T20:00:00	4	Temperatura máxima	11.2
84887	7	Sololá	701	Sololá	4	Finca Santa Victoria	1	Enero	2023-01-19T00:00:00	2024-11-08T20:00:00	3	Temperatura mínima	10.5
84888	7	Sololá	701	Sololá	4	Finca Santa Victoria	1	Enero	2023-01-19T00:00:00	2024-11-08T20:00:00	5	Humedad	75
84889	7	Sololá	701	Sololá	4	Finca Santa Victoria	1	Enero	2023-01-19T00:00:00	2024-11-08T20:00:00	6	Velocidad del viento	1.6
84890	7	Sololá	701	Sololá	4	Finca Santa Victoria	1	Enero	2023-01-19T00:00:00	2024-11-08T20:00:00	7	Dirección del viento	1.61
84891	7	Sololá	701	Sololá	4	Finca Santa Victoria	1	Enero	2023-01-19T00:00:00	2024-11-08T20:00:00	1	Precipitación	0
84892	7	Sololá	701	Sololá	4	Finca Santa Victoria	1	Enero	2023-01-19T00:00:00	2024-11-08T20:00:00	8	Radiación solar	0
84893	7	Sololá	701	Sololá	4	Finca Santa Victoria	1	Enero	2023-01-19T00:00:00	2024-11-08T21:00:00	2	Temperatura media	11.1
84894	7	Sololá	701	Sololá	4	Finca Santa Victoria	1	Enero	2023-01-19T00:00:00	2024-11-08T21:00:00	4	Temperatura máxima	11.3
84895	7	Sololá	701	Sololá	4	Finca Santa Victoria	1	Enero	2023-01-19T00:00:00	2024-11-08T21:00:00	3	Temperatura mínima	10.9
84896	7	Sololá	701	Sololá	4	Finca Santa Victoria	1	Enero	2023-01-19T00:00:00	2024-11-08T21:00:00	5	Humedad	79
84897	7	Sololá	701	Sololá	4	Finca Santa Victoria	1	Enero	2023-01-19T00:00:00	2024-11-08T21:00:00	6	Velocidad del viento	1.6
84898	7	Sololá	701	Sololá	4	Finca Santa Victoria	1	Enero	2023-01-19T00:00:00	2024-11-08T21:00:00	7	Dirección del viento	1.61
84899	7	Sololá	701	Sololá	4	Finca Santa Victoria	1	Enero	2023-01-19T00:00:00	2024-11-08T21:00:00	1	Precipitación	0
84900	7	Sololá	701	Sololá	4	Finca Santa Victoria	1	Enero	2023-01-19T00:00:00	2024-11-08T21:00:00	8	Radiación solar	0
84901	7	Sololá	701	Sololá	4	Finca Santa Victoria	1	Enero	2023-01-19T00:00:00	2024-11-08T22:00:00	2	Temperatura media	10.8
84902	7	Sololá	701	Sololá	4	Finca Santa Victoria	1	Enero	2023-01-19T00:00:00	2024-11-08T22:00:00	4	Temperatura máxima	11.2
84903	7	Sololá	701	Sololá	4	Finca Santa Victoria	1	Enero	2023-01-19T00:00:00	2024-11-08T22:00:00	3	Temperatura mínima	10.7
84904	7	Sololá	701	Sololá	4	Finca Santa Victoria	1	Enero	2023-01-19T00:00:00	2024-11-08T22:00:00	5	Humedad	73
84905	7	Sololá	701	Sololá	4	Finca Santa Victoria	1	Enero	2023-01-19T00:00:00	2024-11-08T22:00:00	6	Velocidad del viento	0
84906	7	Sololá	701	Sololá	4	Finca Santa Victoria	1	Enero	2023-01-19T00:00:00	2024-11-08T22:00:00	7	Dirección del viento	0
84907	7	Sololá	701	Sololá	4	Finca Santa Victoria	1	Enero	2023-01-19T00:00:00	2024-11-08T22:00:00	1	Precipitación	0
84908	7	Sololá	701	Sololá	4	Finca Santa Victoria	1	Enero	2023-01-19T00:00:00	2024-11-08T22:00:00	8	Radiación solar	0
84909	7	Sololá	701	Sololá	4	Finca Santa Victoria	1	Enero	2023-01-19T00:00:00	2024-11-08T23:00:00	2	Temperatura media	10.6
84910	7	Sololá	701	Sololá	4	Finca Santa Victoria	1	Enero	2023-01-19T00:00:00	2024-11-08T23:00:00	4	Temperatura máxima	10.8
84911	7	Sololá	701	Sololá	4	Finca Santa Victoria	1	Enero	2023-01-19T00:00:00	2024-11-08T23:00:00	3	Temperatura mínima	10.4
84912	7	Sololá	701	Sololá	4	Finca Santa Victoria	1	Enero	2023-01-19T00:00:00	2024-11-08T23:00:00	5	Humedad	78
84913	7	Sololá	701	Sololá	4	Finca Santa Victoria	1	Enero	2023-01-19T00:00:00	2024-11-08T23:00:00	6	Velocidad del viento	1.6
84914	7	Sololá	701	Sololá	4	Finca Santa Victoria	1	Enero	2023-01-19T00:00:00	2024-11-08T23:00:00	7	Dirección del viento	1.61
84915	7	Sololá	701	Sololá	4	Finca Santa Victoria	1	Enero	2023-01-19T00:00:00	2024-11-08T23:00:00	1	Precipitación	0
84916	7	Sololá	701	Sololá	4	Finca Santa Victoria	1	Enero	2023-01-19T00:00:00	2024-11-08T23:00:00	8	Radiación solar	0
84917	7	Sololá	701	Sololá	4	Finca Santa Victoria	1	Enero	2023-01-20T00:00:00	2024-11-08T00:00:00	2	Temperatura media	10.2
84918	7	Sololá	701	Sololá	4	Finca Santa Victoria	1	Enero	2023-01-20T00:00:00	2024-11-08T00:00:00	4	Temperatura máxima	10.6
84919	7	Sololá	701	Sololá	4	Finca Santa Victoria	1	Enero	2023-01-20T00:00:00	2024-11-08T00:00:00	3	Temperatura mínima	10.1
84920	7	Sololá	701	Sololá	4	Finca Santa Victoria	1	Enero	2023-01-20T00:00:00	2024-11-08T00:00:00	5	Humedad	85
84921	7	Sololá	701	Sololá	4	Finca Santa Victoria	1	Enero	2023-01-20T00:00:00	2024-11-08T00:00:00	6	Velocidad del viento	1.6
84922	7	Sololá	701	Sololá	4	Finca Santa Victoria	1	Enero	2023-01-20T00:00:00	2024-11-08T00:00:00	7	Dirección del viento	1.61
84923	7	Sololá	701	Sololá	4	Finca Santa Victoria	1	Enero	2023-01-20T00:00:00	2024-11-08T00:00:00	1	Precipitación	0
84924	7	Sololá	701	Sololá	4	Finca Santa Victoria	1	Enero	2023-01-20T00:00:00	2024-11-08T00:00:00	8	Radiación solar	0
84925	7	Sololá	701	Sololá	4	Finca Santa Victoria	1	Enero	2023-01-20T00:00:00	2024-11-08T01:00:00	2	Temperatura media	10.5
84926	7	Sololá	701	Sololá	4	Finca Santa Victoria	1	Enero	2023-01-20T00:00:00	2024-11-08T01:00:00	4	Temperatura máxima	10.6
84927	7	Sololá	701	Sololá	4	Finca Santa Victoria	1	Enero	2023-01-20T00:00:00	2024-11-08T01:00:00	3	Temperatura mínima	10.2
84928	7	Sololá	701	Sololá	4	Finca Santa Victoria	1	Enero	2023-01-20T00:00:00	2024-11-08T01:00:00	5	Humedad	85
84929	7	Sololá	701	Sololá	4	Finca Santa Victoria	1	Enero	2023-01-20T00:00:00	2024-11-08T01:00:00	6	Velocidad del viento	1.6
84930	7	Sololá	701	Sololá	4	Finca Santa Victoria	1	Enero	2023-01-20T00:00:00	2024-11-08T01:00:00	7	Dirección del viento	1.61
84931	7	Sololá	701	Sololá	4	Finca Santa Victoria	1	Enero	2023-01-20T00:00:00	2024-11-08T01:00:00	1	Precipitación	0
84932	7	Sololá	701	Sololá	4	Finca Santa Victoria	1	Enero	2023-01-20T00:00:00	2024-11-08T01:00:00	8	Radiación solar	0
84933	7	Sololá	701	Sololá	4	Finca Santa Victoria	1	Enero	2023-01-20T00:00:00	2024-11-08T02:00:00	2	Temperatura media	9.3
84934	7	Sololá	701	Sololá	4	Finca Santa Victoria	1	Enero	2023-01-20T00:00:00	2024-11-08T02:00:00	4	Temperatura máxima	10.5
84935	7	Sololá	701	Sololá	4	Finca Santa Victoria	1	Enero	2023-01-20T00:00:00	2024-11-08T02:00:00	3	Temperatura mínima	9.3
84936	7	Sololá	701	Sololá	4	Finca Santa Victoria	1	Enero	2023-01-20T00:00:00	2024-11-08T02:00:00	5	Humedad	87
84937	7	Sololá	701	Sololá	4	Finca Santa Victoria	1	Enero	2023-01-20T00:00:00	2024-11-08T02:00:00	6	Velocidad del viento	0
84938	7	Sololá	701	Sololá	4	Finca Santa Victoria	1	Enero	2023-01-20T00:00:00	2024-11-08T02:00:00	7	Dirección del viento	0
84939	7	Sololá	701	Sololá	4	Finca Santa Victoria	1	Enero	2023-01-20T00:00:00	2024-11-08T02:00:00	1	Precipitación	0
84940	7	Sololá	701	Sololá	4	Finca Santa Victoria	1	Enero	2023-01-20T00:00:00	2024-11-08T02:00:00	8	Radiación solar	0
84941	7	Sololá	701	Sololá	4	Finca Santa Victoria	1	Enero	2023-01-20T00:00:00	2024-11-08T03:00:00	2	Temperatura media	10
84942	7	Sololá	701	Sololá	4	Finca Santa Victoria	1	Enero	2023-01-20T00:00:00	2024-11-08T03:00:00	4	Temperatura máxima	10
84943	7	Sololá	701	Sololá	4	Finca Santa Victoria	1	Enero	2023-01-20T00:00:00	2024-11-08T03:00:00	3	Temperatura mínima	9.3
84944	7	Sololá	701	Sololá	4	Finca Santa Victoria	1	Enero	2023-01-20T00:00:00	2024-11-08T03:00:00	5	Humedad	72
84945	7	Sololá	701	Sololá	4	Finca Santa Victoria	1	Enero	2023-01-20T00:00:00	2024-11-08T03:00:00	6	Velocidad del viento	1.6
84946	7	Sololá	701	Sololá	4	Finca Santa Victoria	1	Enero	2023-01-20T00:00:00	2024-11-08T03:00:00	7	Dirección del viento	1.61
84947	7	Sololá	701	Sololá	4	Finca Santa Victoria	1	Enero	2023-01-20T00:00:00	2024-11-08T03:00:00	1	Precipitación	0
84948	7	Sololá	701	Sololá	4	Finca Santa Victoria	1	Enero	2023-01-20T00:00:00	2024-11-08T03:00:00	8	Radiación solar	0
84949	7	Sololá	701	Sololá	4	Finca Santa Victoria	1	Enero	2023-01-20T00:00:00	2024-11-08T04:00:00	2	Temperatura media	9.6
84950	7	Sololá	701	Sololá	4	Finca Santa Victoria	1	Enero	2023-01-20T00:00:00	2024-11-08T04:00:00	4	Temperatura máxima	10.1
84951	7	Sololá	701	Sololá	4	Finca Santa Victoria	1	Enero	2023-01-20T00:00:00	2024-11-08T04:00:00	3	Temperatura mínima	9.3
84952	7	Sololá	701	Sololá	4	Finca Santa Victoria	1	Enero	2023-01-20T00:00:00	2024-11-08T04:00:00	5	Humedad	80
84953	7	Sololá	701	Sololá	4	Finca Santa Victoria	1	Enero	2023-01-20T00:00:00	2024-11-08T04:00:00	6	Velocidad del viento	1.6
84954	7	Sololá	701	Sololá	4	Finca Santa Victoria	1	Enero	2023-01-20T00:00:00	2024-11-08T04:00:00	7	Dirección del viento	1.61
84955	7	Sololá	701	Sololá	4	Finca Santa Victoria	1	Enero	2023-01-20T00:00:00	2024-11-08T04:00:00	1	Precipitación	0
84956	7	Sololá	701	Sololá	4	Finca Santa Victoria	1	Enero	2023-01-20T00:00:00	2024-11-08T04:00:00	8	Radiación solar	0
84957	7	Sololá	701	Sololá	4	Finca Santa Victoria	1	Enero	2023-01-20T00:00:00	2024-11-08T05:00:00	2	Temperatura media	10
84958	7	Sololá	701	Sololá	4	Finca Santa Victoria	1	Enero	2023-01-20T00:00:00	2024-11-08T05:00:00	4	Temperatura máxima	10
84959	7	Sololá	701	Sololá	4	Finca Santa Victoria	1	Enero	2023-01-20T00:00:00	2024-11-08T05:00:00	3	Temperatura mínima	9.6
84960	7	Sololá	701	Sololá	4	Finca Santa Victoria	1	Enero	2023-01-20T00:00:00	2024-11-08T05:00:00	5	Humedad	77
84961	7	Sololá	701	Sololá	4	Finca Santa Victoria	1	Enero	2023-01-20T00:00:00	2024-11-08T05:00:00	6	Velocidad del viento	1.6
84962	7	Sololá	701	Sololá	4	Finca Santa Victoria	1	Enero	2023-01-20T00:00:00	2024-11-08T05:00:00	7	Dirección del viento	1.61
84963	7	Sololá	701	Sololá	4	Finca Santa Victoria	1	Enero	2023-01-20T00:00:00	2024-11-08T05:00:00	1	Precipitación	0
84964	7	Sololá	701	Sololá	4	Finca Santa Victoria	1	Enero	2023-01-20T00:00:00	2024-11-08T05:00:00	8	Radiación solar	0
84965	7	Sololá	701	Sololá	4	Finca Santa Victoria	1	Enero	2023-01-20T00:00:00	2024-11-08T06:00:00	2	Temperatura media	10.6
84966	7	Sololá	701	Sololá	4	Finca Santa Victoria	1	Enero	2023-01-20T00:00:00	2024-11-08T06:00:00	4	Temperatura máxima	10.9
84967	7	Sololá	701	Sololá	4	Finca Santa Victoria	1	Enero	2023-01-20T00:00:00	2024-11-08T06:00:00	3	Temperatura mínima	9.9
84968	7	Sololá	701	Sololá	4	Finca Santa Victoria	1	Enero	2023-01-20T00:00:00	2024-11-08T06:00:00	5	Humedad	67
84969	7	Sololá	701	Sololá	4	Finca Santa Victoria	1	Enero	2023-01-20T00:00:00	2024-11-08T06:00:00	6	Velocidad del viento	1.6
84970	7	Sololá	701	Sololá	4	Finca Santa Victoria	1	Enero	2023-01-20T00:00:00	2024-11-08T06:00:00	7	Dirección del viento	1.61
84971	7	Sololá	701	Sololá	4	Finca Santa Victoria	1	Enero	2023-01-20T00:00:00	2024-11-08T06:00:00	1	Precipitación	0
84972	7	Sololá	701	Sololá	4	Finca Santa Victoria	1	Enero	2023-01-20T00:00:00	2024-11-08T06:00:00	8	Radiación solar	0
84973	7	Sololá	701	Sololá	4	Finca Santa Victoria	1	Enero	2023-01-20T00:00:00	2024-11-08T07:00:00	2	Temperatura media	10.6
84974	7	Sololá	701	Sololá	4	Finca Santa Victoria	1	Enero	2023-01-20T00:00:00	2024-11-08T07:00:00	4	Temperatura máxima	10.7
84975	7	Sololá	701	Sololá	4	Finca Santa Victoria	1	Enero	2023-01-20T00:00:00	2024-11-08T07:00:00	3	Temperatura mínima	10.1
84976	7	Sololá	701	Sololá	4	Finca Santa Victoria	1	Enero	2023-01-20T00:00:00	2024-11-08T07:00:00	5	Humedad	70
84977	7	Sololá	701	Sololá	4	Finca Santa Victoria	1	Enero	2023-01-20T00:00:00	2024-11-08T07:00:00	6	Velocidad del viento	0
84978	7	Sololá	701	Sololá	4	Finca Santa Victoria	1	Enero	2023-01-20T00:00:00	2024-11-08T07:00:00	7	Dirección del viento	0
84979	7	Sololá	701	Sololá	4	Finca Santa Victoria	1	Enero	2023-01-20T00:00:00	2024-11-08T07:00:00	1	Precipitación	0
84980	7	Sololá	701	Sololá	4	Finca Santa Victoria	1	Enero	2023-01-20T00:00:00	2024-11-08T07:00:00	8	Radiación solar	3
84981	7	Sololá	701	Sololá	4	Finca Santa Victoria	1	Enero	2023-01-20T00:00:00	2024-11-08T08:00:00	2	Temperatura media	12.5
84982	7	Sololá	701	Sololá	4	Finca Santa Victoria	1	Enero	2023-01-20T00:00:00	2024-11-08T08:00:00	4	Temperatura máxima	12.5
84983	7	Sololá	701	Sololá	4	Finca Santa Victoria	1	Enero	2023-01-20T00:00:00	2024-11-08T08:00:00	3	Temperatura mínima	10.6
84984	7	Sololá	701	Sololá	4	Finca Santa Victoria	1	Enero	2023-01-20T00:00:00	2024-11-08T08:00:00	5	Humedad	71
84985	7	Sololá	701	Sololá	4	Finca Santa Victoria	1	Enero	2023-01-20T00:00:00	2024-11-08T08:00:00	6	Velocidad del viento	1.6
84986	7	Sololá	701	Sololá	4	Finca Santa Victoria	1	Enero	2023-01-20T00:00:00	2024-11-08T08:00:00	7	Dirección del viento	1.61
84987	7	Sololá	701	Sololá	4	Finca Santa Victoria	1	Enero	2023-01-20T00:00:00	2024-11-08T08:00:00	1	Precipitación	0
84988	7	Sololá	701	Sololá	4	Finca Santa Victoria	1	Enero	2023-01-20T00:00:00	2024-11-08T08:00:00	8	Radiación solar	32
84989	7	Sololá	701	Sololá	4	Finca Santa Victoria	1	Enero	2023-01-20T00:00:00	2024-11-08T09:00:00	2	Temperatura media	16.6
84990	7	Sololá	701	Sololá	4	Finca Santa Victoria	1	Enero	2023-01-20T00:00:00	2024-11-08T09:00:00	4	Temperatura máxima	16.6
84991	7	Sololá	701	Sololá	4	Finca Santa Victoria	1	Enero	2023-01-20T00:00:00	2024-11-08T09:00:00	3	Temperatura mínima	12.5
84992	7	Sololá	701	Sololá	4	Finca Santa Victoria	1	Enero	2023-01-20T00:00:00	2024-11-08T09:00:00	5	Humedad	63
84993	7	Sololá	701	Sololá	4	Finca Santa Victoria	1	Enero	2023-01-20T00:00:00	2024-11-08T09:00:00	6	Velocidad del viento	3.2
84994	7	Sololá	701	Sololá	4	Finca Santa Victoria	1	Enero	2023-01-20T00:00:00	2024-11-08T09:00:00	7	Dirección del viento	3.22
84995	7	Sololá	701	Sololá	4	Finca Santa Victoria	1	Enero	2023-01-20T00:00:00	2024-11-08T09:00:00	1	Precipitación	0
84996	7	Sololá	701	Sololá	4	Finca Santa Victoria	1	Enero	2023-01-20T00:00:00	2024-11-08T09:00:00	8	Radiación solar	150
84997	7	Sololá	701	Sololá	4	Finca Santa Victoria	1	Enero	2023-01-20T00:00:00	2024-11-08T10:00:00	2	Temperatura media	18.9
84998	7	Sololá	701	Sololá	4	Finca Santa Victoria	1	Enero	2023-01-20T00:00:00	2024-11-08T10:00:00	4	Temperatura máxima	18.9
84999	7	Sololá	701	Sololá	4	Finca Santa Victoria	1	Enero	2023-01-20T00:00:00	2024-11-08T10:00:00	3	Temperatura mínima	16.6
85000	7	Sololá	701	Sololá	4	Finca Santa Victoria	1	Enero	2023-01-20T00:00:00	2024-11-08T10:00:00	5	Humedad	45
85001	7	Sololá	701	Sololá	4	Finca Santa Victoria	1	Enero	2023-01-20T00:00:00	2024-11-08T10:00:00	6	Velocidad del viento	4.8
85002	7	Sololá	701	Sololá	4	Finca Santa Victoria	1	Enero	2023-01-20T00:00:00	2024-11-08T10:00:00	7	Dirección del viento	4.83
85003	7	Sololá	701	Sololá	4	Finca Santa Victoria	1	Enero	2023-01-20T00:00:00	2024-11-08T10:00:00	1	Precipitación	0
85004	7	Sololá	701	Sololá	4	Finca Santa Victoria	1	Enero	2023-01-20T00:00:00	2024-11-08T10:00:00	8	Radiación solar	435
85005	7	Sololá	701	Sololá	4	Finca Santa Victoria	1	Enero	2023-01-20T00:00:00	2024-11-08T11:00:00	2	Temperatura media	19.5
85006	7	Sololá	701	Sololá	4	Finca Santa Victoria	1	Enero	2023-01-20T00:00:00	2024-11-08T11:00:00	4	Temperatura máxima	19.7
85007	7	Sololá	701	Sololá	4	Finca Santa Victoria	1	Enero	2023-01-20T00:00:00	2024-11-08T11:00:00	3	Temperatura mínima	18.6
85008	7	Sololá	701	Sololá	4	Finca Santa Victoria	1	Enero	2023-01-20T00:00:00	2024-11-08T11:00:00	5	Humedad	46
85009	7	Sololá	701	Sololá	4	Finca Santa Victoria	1	Enero	2023-01-20T00:00:00	2024-11-08T11:00:00	6	Velocidad del viento	8
85010	7	Sololá	701	Sololá	4	Finca Santa Victoria	1	Enero	2023-01-20T00:00:00	2024-11-08T11:00:00	7	Dirección del viento	8.05
85011	7	Sololá	701	Sololá	4	Finca Santa Victoria	1	Enero	2023-01-20T00:00:00	2024-11-08T11:00:00	1	Precipitación	0
85012	7	Sololá	701	Sololá	4	Finca Santa Victoria	1	Enero	2023-01-20T00:00:00	2024-11-08T11:00:00	8	Radiación solar	794
85013	7	Sololá	701	Sololá	4	Finca Santa Victoria	1	Enero	2023-01-20T00:00:00	2024-11-08T12:00:00	2	Temperatura media	20.2
85014	7	Sololá	701	Sololá	4	Finca Santa Victoria	1	Enero	2023-01-20T00:00:00	2024-11-08T12:00:00	4	Temperatura máxima	20.2
85015	7	Sololá	701	Sololá	4	Finca Santa Victoria	1	Enero	2023-01-20T00:00:00	2024-11-08T12:00:00	3	Temperatura mínima	19.3
85016	7	Sololá	701	Sololá	4	Finca Santa Victoria	1	Enero	2023-01-20T00:00:00	2024-11-08T12:00:00	5	Humedad	44
85017	7	Sololá	701	Sololá	4	Finca Santa Victoria	1	Enero	2023-01-20T00:00:00	2024-11-08T12:00:00	6	Velocidad del viento	8
85018	7	Sololá	701	Sololá	4	Finca Santa Victoria	1	Enero	2023-01-20T00:00:00	2024-11-08T12:00:00	7	Dirección del viento	8.05
85019	7	Sololá	701	Sololá	4	Finca Santa Victoria	1	Enero	2023-01-20T00:00:00	2024-11-08T12:00:00	1	Precipitación	0
85020	7	Sololá	701	Sololá	4	Finca Santa Victoria	1	Enero	2023-01-20T00:00:00	2024-11-08T12:00:00	8	Radiación solar	878
85021	7	Sololá	701	Sololá	4	Finca Santa Victoria	1	Enero	2023-01-20T00:00:00	2024-11-08T13:00:00	2	Temperatura media	20.7
85022	7	Sololá	701	Sololá	4	Finca Santa Victoria	1	Enero	2023-01-20T00:00:00	2024-11-08T13:00:00	4	Temperatura máxima	20.7
85023	7	Sololá	701	Sololá	4	Finca Santa Victoria	1	Enero	2023-01-20T00:00:00	2024-11-08T13:00:00	3	Temperatura mínima	20
85024	7	Sololá	701	Sololá	4	Finca Santa Victoria	1	Enero	2023-01-20T00:00:00	2024-11-08T13:00:00	5	Humedad	41
85025	7	Sololá	701	Sololá	4	Finca Santa Victoria	1	Enero	2023-01-20T00:00:00	2024-11-08T13:00:00	6	Velocidad del viento	8
85026	7	Sololá	701	Sololá	4	Finca Santa Victoria	1	Enero	2023-01-20T00:00:00	2024-11-08T13:00:00	7	Dirección del viento	8.05
85027	7	Sololá	701	Sololá	4	Finca Santa Victoria	1	Enero	2023-01-20T00:00:00	2024-11-08T13:00:00	1	Precipitación	0
85028	7	Sololá	701	Sololá	4	Finca Santa Victoria	1	Enero	2023-01-20T00:00:00	2024-11-08T13:00:00	8	Radiación solar	889
85029	7	Sololá	701	Sololá	4	Finca Santa Victoria	1	Enero	2023-01-20T00:00:00	2024-11-08T14:00:00	2	Temperatura media	20.8
85030	7	Sololá	701	Sololá	4	Finca Santa Victoria	1	Enero	2023-01-20T00:00:00	2024-11-08T14:00:00	4	Temperatura máxima	21.3
85031	7	Sololá	701	Sololá	4	Finca Santa Victoria	1	Enero	2023-01-20T00:00:00	2024-11-08T14:00:00	3	Temperatura mínima	20.6
85032	7	Sololá	701	Sololá	4	Finca Santa Victoria	1	Enero	2023-01-20T00:00:00	2024-11-08T14:00:00	5	Humedad	45
85033	7	Sololá	701	Sololá	4	Finca Santa Victoria	1	Enero	2023-01-20T00:00:00	2024-11-08T14:00:00	6	Velocidad del viento	6.4
85034	7	Sololá	701	Sololá	4	Finca Santa Victoria	1	Enero	2023-01-20T00:00:00	2024-11-08T14:00:00	7	Dirección del viento	6.44
85035	7	Sololá	701	Sololá	4	Finca Santa Victoria	1	Enero	2023-01-20T00:00:00	2024-11-08T14:00:00	1	Precipitación	0
85036	7	Sololá	701	Sololá	4	Finca Santa Victoria	1	Enero	2023-01-20T00:00:00	2024-11-08T14:00:00	8	Radiación solar	821
85037	7	Sololá	701	Sololá	4	Finca Santa Victoria	1	Enero	2023-01-20T00:00:00	2024-11-08T15:00:00	2	Temperatura media	18.8
85038	7	Sololá	701	Sololá	4	Finca Santa Victoria	1	Enero	2023-01-20T00:00:00	2024-11-08T15:00:00	4	Temperatura máxima	21.1
85039	7	Sololá	701	Sololá	4	Finca Santa Victoria	1	Enero	2023-01-20T00:00:00	2024-11-08T15:00:00	3	Temperatura mínima	18.8
85040	7	Sololá	701	Sololá	4	Finca Santa Victoria	1	Enero	2023-01-20T00:00:00	2024-11-08T15:00:00	5	Humedad	70
85041	7	Sololá	701	Sololá	4	Finca Santa Victoria	1	Enero	2023-01-20T00:00:00	2024-11-08T15:00:00	6	Velocidad del viento	4.8
85042	7	Sololá	701	Sololá	4	Finca Santa Victoria	1	Enero	2023-01-20T00:00:00	2024-11-08T15:00:00	7	Dirección del viento	4.83
85043	7	Sololá	701	Sololá	4	Finca Santa Victoria	1	Enero	2023-01-20T00:00:00	2024-11-08T15:00:00	1	Precipitación	0
85044	7	Sololá	701	Sololá	4	Finca Santa Victoria	1	Enero	2023-01-20T00:00:00	2024-11-08T15:00:00	8	Radiación solar	444
85045	7	Sololá	701	Sololá	4	Finca Santa Victoria	1	Enero	2023-01-20T00:00:00	2024-11-08T16:00:00	2	Temperatura media	16.4
85046	7	Sololá	701	Sololá	4	Finca Santa Victoria	1	Enero	2023-01-20T00:00:00	2024-11-08T16:00:00	4	Temperatura máxima	18.7
85047	7	Sololá	701	Sololá	4	Finca Santa Victoria	1	Enero	2023-01-20T00:00:00	2024-11-08T16:00:00	3	Temperatura mínima	15.8
85048	7	Sololá	701	Sololá	4	Finca Santa Victoria	1	Enero	2023-01-20T00:00:00	2024-11-08T16:00:00	5	Humedad	84
85049	7	Sololá	701	Sololá	4	Finca Santa Victoria	1	Enero	2023-01-20T00:00:00	2024-11-08T16:00:00	6	Velocidad del viento	3.2
85050	7	Sololá	701	Sololá	4	Finca Santa Victoria	1	Enero	2023-01-20T00:00:00	2024-11-08T16:00:00	7	Dirección del viento	3.22
85051	7	Sololá	701	Sololá	4	Finca Santa Victoria	1	Enero	2023-01-20T00:00:00	2024-11-08T16:00:00	1	Precipitación	0
85052	7	Sololá	701	Sololá	4	Finca Santa Victoria	1	Enero	2023-01-20T00:00:00	2024-11-08T16:00:00	8	Radiación solar	130
85053	7	Sololá	701	Sololá	4	Finca Santa Victoria	1	Enero	2023-01-20T00:00:00	2024-11-08T17:00:00	2	Temperatura media	14.3
85054	7	Sololá	701	Sololá	4	Finca Santa Victoria	1	Enero	2023-01-20T00:00:00	2024-11-08T17:00:00	4	Temperatura máxima	16.7
85055	7	Sololá	701	Sololá	4	Finca Santa Victoria	1	Enero	2023-01-20T00:00:00	2024-11-08T17:00:00	3	Temperatura mínima	14.3
85056	7	Sololá	701	Sololá	4	Finca Santa Victoria	1	Enero	2023-01-20T00:00:00	2024-11-08T17:00:00	5	Humedad	92
85057	7	Sololá	701	Sololá	4	Finca Santa Victoria	1	Enero	2023-01-20T00:00:00	2024-11-08T17:00:00	6	Velocidad del viento	3.2
85058	7	Sololá	701	Sololá	4	Finca Santa Victoria	1	Enero	2023-01-20T00:00:00	2024-11-08T17:00:00	7	Dirección del viento	3.22
85059	7	Sololá	701	Sololá	4	Finca Santa Victoria	1	Enero	2023-01-20T00:00:00	2024-11-08T17:00:00	1	Precipitación	0
85060	7	Sololá	701	Sololá	4	Finca Santa Victoria	1	Enero	2023-01-20T00:00:00	2024-11-08T17:00:00	8	Radiación solar	81
85061	7	Sololá	701	Sololá	4	Finca Santa Victoria	1	Enero	2023-01-20T00:00:00	2024-11-08T18:00:00	2	Temperatura media	13.7
85062	7	Sololá	701	Sololá	4	Finca Santa Victoria	1	Enero	2023-01-20T00:00:00	2024-11-08T18:00:00	4	Temperatura máxima	14.4
85063	7	Sololá	701	Sololá	4	Finca Santa Victoria	1	Enero	2023-01-20T00:00:00	2024-11-08T18:00:00	3	Temperatura mínima	13.7
85064	7	Sololá	701	Sololá	4	Finca Santa Victoria	1	Enero	2023-01-20T00:00:00	2024-11-08T18:00:00	5	Humedad	72
85065	7	Sololá	701	Sololá	4	Finca Santa Victoria	1	Enero	2023-01-20T00:00:00	2024-11-08T18:00:00	6	Velocidad del viento	1.6
85066	7	Sololá	701	Sololá	4	Finca Santa Victoria	1	Enero	2023-01-20T00:00:00	2024-11-08T18:00:00	7	Dirección del viento	1.61
85067	7	Sololá	701	Sololá	4	Finca Santa Victoria	1	Enero	2023-01-20T00:00:00	2024-11-08T18:00:00	1	Precipitación	0
85068	7	Sololá	701	Sololá	4	Finca Santa Victoria	1	Enero	2023-01-20T00:00:00	2024-11-08T18:00:00	8	Radiación solar	18
85069	7	Sololá	701	Sololá	4	Finca Santa Victoria	1	Enero	2023-01-20T00:00:00	2024-11-08T19:00:00	2	Temperatura media	13.1
85070	7	Sololá	701	Sololá	4	Finca Santa Victoria	1	Enero	2023-01-20T00:00:00	2024-11-08T19:00:00	4	Temperatura máxima	13.8
85071	7	Sololá	701	Sololá	4	Finca Santa Victoria	1	Enero	2023-01-20T00:00:00	2024-11-08T19:00:00	3	Temperatura mínima	13.1
85072	7	Sololá	701	Sololá	4	Finca Santa Victoria	1	Enero	2023-01-20T00:00:00	2024-11-08T19:00:00	5	Humedad	74
85073	7	Sololá	701	Sololá	4	Finca Santa Victoria	1	Enero	2023-01-20T00:00:00	2024-11-08T19:00:00	6	Velocidad del viento	3.2
85074	7	Sololá	701	Sololá	4	Finca Santa Victoria	1	Enero	2023-01-20T00:00:00	2024-11-08T19:00:00	7	Dirección del viento	3.22
85075	7	Sololá	701	Sololá	4	Finca Santa Victoria	1	Enero	2023-01-20T00:00:00	2024-11-08T19:00:00	1	Precipitación	0
85076	7	Sololá	701	Sololá	4	Finca Santa Victoria	1	Enero	2023-01-20T00:00:00	2024-11-08T19:00:00	8	Radiación solar	0
85077	7	Sololá	701	Sololá	4	Finca Santa Victoria	1	Enero	2023-01-20T00:00:00	2024-11-08T20:00:00	2	Temperatura media	12.9
85078	7	Sololá	701	Sololá	4	Finca Santa Victoria	1	Enero	2023-01-20T00:00:00	2024-11-08T20:00:00	4	Temperatura máxima	13.4
85079	7	Sololá	701	Sololá	4	Finca Santa Victoria	1	Enero	2023-01-20T00:00:00	2024-11-08T20:00:00	3	Temperatura mínima	12.9
85080	7	Sololá	701	Sololá	4	Finca Santa Victoria	1	Enero	2023-01-20T00:00:00	2024-11-08T20:00:00	5	Humedad	81
85081	7	Sololá	701	Sololá	4	Finca Santa Victoria	1	Enero	2023-01-20T00:00:00	2024-11-08T20:00:00	6	Velocidad del viento	3.2
85082	7	Sololá	701	Sololá	4	Finca Santa Victoria	1	Enero	2023-01-20T00:00:00	2024-11-08T20:00:00	7	Dirección del viento	3.22
85083	7	Sololá	701	Sololá	4	Finca Santa Victoria	1	Enero	2023-01-20T00:00:00	2024-11-08T20:00:00	1	Precipitación	0
85084	7	Sololá	701	Sololá	4	Finca Santa Victoria	1	Enero	2023-01-20T00:00:00	2024-11-08T20:00:00	8	Radiación solar	0
85085	7	Sololá	701	Sololá	4	Finca Santa Victoria	1	Enero	2023-01-20T00:00:00	2024-11-08T21:00:00	2	Temperatura media	12.8
85086	7	Sololá	701	Sololá	4	Finca Santa Victoria	1	Enero	2023-01-20T00:00:00	2024-11-08T21:00:00	4	Temperatura máxima	13.1
85087	7	Sololá	701	Sololá	4	Finca Santa Victoria	1	Enero	2023-01-20T00:00:00	2024-11-08T21:00:00	3	Temperatura mínima	12.8
85088	7	Sololá	701	Sololá	4	Finca Santa Victoria	1	Enero	2023-01-20T00:00:00	2024-11-08T21:00:00	5	Humedad	82
85089	7	Sololá	701	Sololá	4	Finca Santa Victoria	1	Enero	2023-01-20T00:00:00	2024-11-08T21:00:00	6	Velocidad del viento	3.2
85090	7	Sololá	701	Sololá	4	Finca Santa Victoria	1	Enero	2023-01-20T00:00:00	2024-11-08T21:00:00	7	Dirección del viento	3.22
85091	7	Sololá	701	Sololá	4	Finca Santa Victoria	1	Enero	2023-01-20T00:00:00	2024-11-08T21:00:00	1	Precipitación	0
85092	7	Sololá	701	Sololá	4	Finca Santa Victoria	1	Enero	2023-01-20T00:00:00	2024-11-08T21:00:00	8	Radiación solar	0
85093	7	Sololá	701	Sololá	4	Finca Santa Victoria	1	Enero	2023-01-20T00:00:00	2024-11-08T22:00:00	2	Temperatura media	12.3
85094	7	Sololá	701	Sololá	4	Finca Santa Victoria	1	Enero	2023-01-20T00:00:00	2024-11-08T22:00:00	4	Temperatura máxima	12.9
85095	7	Sololá	701	Sololá	4	Finca Santa Victoria	1	Enero	2023-01-20T00:00:00	2024-11-08T22:00:00	3	Temperatura mínima	12.1
85096	7	Sololá	701	Sololá	4	Finca Santa Victoria	1	Enero	2023-01-20T00:00:00	2024-11-08T22:00:00	5	Humedad	86
85097	7	Sololá	701	Sololá	4	Finca Santa Victoria	1	Enero	2023-01-20T00:00:00	2024-11-08T22:00:00	6	Velocidad del viento	1.6
85098	7	Sololá	701	Sololá	4	Finca Santa Victoria	1	Enero	2023-01-20T00:00:00	2024-11-08T22:00:00	7	Dirección del viento	1.61
85099	7	Sololá	701	Sololá	4	Finca Santa Victoria	1	Enero	2023-01-20T00:00:00	2024-11-08T22:00:00	1	Precipitación	0
85100	7	Sololá	701	Sololá	4	Finca Santa Victoria	1	Enero	2023-01-20T00:00:00	2024-11-08T22:00:00	8	Radiación solar	0
85101	7	Sololá	701	Sololá	4	Finca Santa Victoria	1	Enero	2023-01-20T00:00:00	2024-11-08T23:00:00	2	Temperatura media	12.1
85102	7	Sololá	701	Sololá	4	Finca Santa Victoria	1	Enero	2023-01-20T00:00:00	2024-11-08T23:00:00	4	Temperatura máxima	12.3
85103	7	Sololá	701	Sololá	4	Finca Santa Victoria	1	Enero	2023-01-20T00:00:00	2024-11-08T23:00:00	3	Temperatura mínima	12
85104	7	Sololá	701	Sololá	4	Finca Santa Victoria	1	Enero	2023-01-20T00:00:00	2024-11-08T23:00:00	5	Humedad	87
85105	7	Sololá	701	Sololá	4	Finca Santa Victoria	1	Enero	2023-01-20T00:00:00	2024-11-08T23:00:00	6	Velocidad del viento	1.6
85106	7	Sololá	701	Sololá	4	Finca Santa Victoria	1	Enero	2023-01-20T00:00:00	2024-11-08T23:00:00	7	Dirección del viento	1.61
85107	7	Sololá	701	Sololá	4	Finca Santa Victoria	1	Enero	2023-01-20T00:00:00	2024-11-08T23:00:00	1	Precipitación	0
85108	7	Sololá	701	Sololá	4	Finca Santa Victoria	1	Enero	2023-01-20T00:00:00	2024-11-08T23:00:00	8	Radiación solar	0
85109	7	Sololá	701	Sololá	4	Finca Santa Victoria	1	Enero	2023-01-21T00:00:00	2024-11-08T00:00:00	2	Temperatura media	11.8
85110	7	Sololá	701	Sololá	4	Finca Santa Victoria	1	Enero	2023-01-21T00:00:00	2024-11-08T00:00:00	4	Temperatura máxima	12.2
85111	7	Sololá	701	Sololá	4	Finca Santa Victoria	1	Enero	2023-01-21T00:00:00	2024-11-08T00:00:00	3	Temperatura mínima	11.8
85112	7	Sololá	701	Sololá	4	Finca Santa Victoria	1	Enero	2023-01-21T00:00:00	2024-11-08T00:00:00	5	Humedad	86
85113	7	Sololá	701	Sololá	4	Finca Santa Victoria	1	Enero	2023-01-21T00:00:00	2024-11-08T00:00:00	6	Velocidad del viento	1.6
85114	7	Sololá	701	Sololá	4	Finca Santa Victoria	1	Enero	2023-01-21T00:00:00	2024-11-08T00:00:00	7	Dirección del viento	1.61
85115	7	Sololá	701	Sololá	4	Finca Santa Victoria	1	Enero	2023-01-21T00:00:00	2024-11-08T00:00:00	1	Precipitación	0
85116	7	Sololá	701	Sololá	4	Finca Santa Victoria	1	Enero	2023-01-21T00:00:00	2024-11-08T00:00:00	8	Radiación solar	0
85117	7	Sololá	701	Sololá	4	Finca Santa Victoria	1	Enero	2023-01-21T00:00:00	2024-11-08T01:00:00	2	Temperatura media	11.6
85118	7	Sololá	701	Sololá	4	Finca Santa Victoria	1	Enero	2023-01-21T00:00:00	2024-11-08T01:00:00	4	Temperatura máxima	12
85119	7	Sololá	701	Sololá	4	Finca Santa Victoria	1	Enero	2023-01-21T00:00:00	2024-11-08T01:00:00	3	Temperatura mínima	11.4
85120	7	Sololá	701	Sololá	4	Finca Santa Victoria	1	Enero	2023-01-21T00:00:00	2024-11-08T01:00:00	5	Humedad	86
85121	7	Sololá	701	Sololá	4	Finca Santa Victoria	1	Enero	2023-01-21T00:00:00	2024-11-08T01:00:00	6	Velocidad del viento	1.6
85122	7	Sololá	701	Sololá	4	Finca Santa Victoria	1	Enero	2023-01-21T00:00:00	2024-11-08T01:00:00	7	Dirección del viento	1.61
85123	7	Sololá	701	Sololá	4	Finca Santa Victoria	1	Enero	2023-01-21T00:00:00	2024-11-08T01:00:00	1	Precipitación	0
85124	7	Sololá	701	Sololá	4	Finca Santa Victoria	1	Enero	2023-01-21T00:00:00	2024-11-08T01:00:00	8	Radiación solar	0
85125	7	Sololá	701	Sololá	4	Finca Santa Victoria	1	Enero	2023-01-21T00:00:00	2024-11-08T02:00:00	2	Temperatura media	11
85126	7	Sololá	701	Sololá	4	Finca Santa Victoria	1	Enero	2023-01-21T00:00:00	2024-11-08T02:00:00	4	Temperatura máxima	11.7
85127	7	Sololá	701	Sololá	4	Finca Santa Victoria	1	Enero	2023-01-21T00:00:00	2024-11-08T02:00:00	3	Temperatura mínima	10.9
85128	7	Sololá	701	Sololá	4	Finca Santa Victoria	1	Enero	2023-01-21T00:00:00	2024-11-08T02:00:00	5	Humedad	87
85129	7	Sololá	701	Sololá	4	Finca Santa Victoria	1	Enero	2023-01-21T00:00:00	2024-11-08T02:00:00	6	Velocidad del viento	1.6
85130	7	Sololá	701	Sololá	4	Finca Santa Victoria	1	Enero	2023-01-21T00:00:00	2024-11-08T02:00:00	7	Dirección del viento	1.61
85131	7	Sololá	701	Sololá	4	Finca Santa Victoria	1	Enero	2023-01-21T00:00:00	2024-11-08T02:00:00	1	Precipitación	0
85132	7	Sololá	701	Sololá	4	Finca Santa Victoria	1	Enero	2023-01-21T00:00:00	2024-11-08T02:00:00	8	Radiación solar	0
85133	7	Sololá	701	Sololá	4	Finca Santa Victoria	1	Enero	2023-01-21T00:00:00	2024-11-08T03:00:00	2	Temperatura media	10.1
85134	7	Sololá	701	Sololá	4	Finca Santa Victoria	1	Enero	2023-01-21T00:00:00	2024-11-08T03:00:00	4	Temperatura máxima	11.1
85135	7	Sololá	701	Sololá	4	Finca Santa Victoria	1	Enero	2023-01-21T00:00:00	2024-11-08T03:00:00	3	Temperatura mínima	10.1
85136	7	Sololá	701	Sololá	4	Finca Santa Victoria	1	Enero	2023-01-21T00:00:00	2024-11-08T03:00:00	5	Humedad	91
85137	7	Sololá	701	Sololá	4	Finca Santa Victoria	1	Enero	2023-01-21T00:00:00	2024-11-08T03:00:00	6	Velocidad del viento	1.6
85138	7	Sololá	701	Sololá	4	Finca Santa Victoria	1	Enero	2023-01-21T00:00:00	2024-11-08T03:00:00	7	Dirección del viento	1.61
85139	7	Sololá	701	Sololá	4	Finca Santa Victoria	1	Enero	2023-01-21T00:00:00	2024-11-08T03:00:00	1	Precipitación	0
85140	7	Sololá	701	Sololá	4	Finca Santa Victoria	1	Enero	2023-01-21T00:00:00	2024-11-08T03:00:00	8	Radiación solar	0
85141	7	Sololá	701	Sololá	4	Finca Santa Victoria	1	Enero	2023-01-21T00:00:00	2024-11-08T04:00:00	2	Temperatura media	9.5
85142	7	Sololá	701	Sololá	4	Finca Santa Victoria	1	Enero	2023-01-21T00:00:00	2024-11-08T04:00:00	4	Temperatura máxima	10.1
85143	7	Sololá	701	Sololá	4	Finca Santa Victoria	1	Enero	2023-01-21T00:00:00	2024-11-08T04:00:00	3	Temperatura mínima	9.4
85144	7	Sololá	701	Sololá	4	Finca Santa Victoria	1	Enero	2023-01-21T00:00:00	2024-11-08T04:00:00	5	Humedad	95
85145	7	Sololá	701	Sololá	4	Finca Santa Victoria	1	Enero	2023-01-21T00:00:00	2024-11-08T04:00:00	6	Velocidad del viento	1.6
85146	7	Sololá	701	Sololá	4	Finca Santa Victoria	1	Enero	2023-01-21T00:00:00	2024-11-08T04:00:00	7	Dirección del viento	1.61
85147	7	Sololá	701	Sololá	4	Finca Santa Victoria	1	Enero	2023-01-21T00:00:00	2024-11-08T04:00:00	1	Precipitación	0
85148	7	Sololá	701	Sololá	4	Finca Santa Victoria	1	Enero	2023-01-21T00:00:00	2024-11-08T04:00:00	8	Radiación solar	0
85149	7	Sololá	701	Sololá	4	Finca Santa Victoria	1	Enero	2023-01-21T00:00:00	2024-11-08T05:00:00	2	Temperatura media	9.4
85150	7	Sololá	701	Sololá	4	Finca Santa Victoria	1	Enero	2023-01-21T00:00:00	2024-11-08T05:00:00	4	Temperatura máxima	9.5
85151	7	Sololá	701	Sololá	4	Finca Santa Victoria	1	Enero	2023-01-21T00:00:00	2024-11-08T05:00:00	3	Temperatura mínima	9.3
85152	7	Sololá	701	Sololá	4	Finca Santa Victoria	1	Enero	2023-01-21T00:00:00	2024-11-08T05:00:00	5	Humedad	96
85153	7	Sololá	701	Sololá	4	Finca Santa Victoria	1	Enero	2023-01-21T00:00:00	2024-11-08T05:00:00	6	Velocidad del viento	1.6
85154	7	Sololá	701	Sololá	4	Finca Santa Victoria	1	Enero	2023-01-21T00:00:00	2024-11-08T05:00:00	7	Dirección del viento	1.61
85155	7	Sololá	701	Sololá	4	Finca Santa Victoria	1	Enero	2023-01-21T00:00:00	2024-11-08T05:00:00	1	Precipitación	0
85156	7	Sololá	701	Sololá	4	Finca Santa Victoria	1	Enero	2023-01-21T00:00:00	2024-11-08T05:00:00	8	Radiación solar	0
85157	7	Sololá	701	Sololá	4	Finca Santa Victoria	1	Enero	2023-01-21T00:00:00	2024-11-08T06:00:00	2	Temperatura media	8.8
85158	7	Sololá	701	Sololá	4	Finca Santa Victoria	1	Enero	2023-01-21T00:00:00	2024-11-08T06:00:00	4	Temperatura máxima	9.4
85159	7	Sololá	701	Sololá	4	Finca Santa Victoria	1	Enero	2023-01-21T00:00:00	2024-11-08T06:00:00	3	Temperatura mínima	8.8
85160	7	Sololá	701	Sololá	4	Finca Santa Victoria	1	Enero	2023-01-21T00:00:00	2024-11-08T06:00:00	5	Humedad	96
85161	7	Sololá	701	Sololá	4	Finca Santa Victoria	1	Enero	2023-01-21T00:00:00	2024-11-08T06:00:00	6	Velocidad del viento	1.6
85162	7	Sololá	701	Sololá	4	Finca Santa Victoria	1	Enero	2023-01-21T00:00:00	2024-11-08T06:00:00	7	Dirección del viento	1.61
85163	7	Sololá	701	Sololá	4	Finca Santa Victoria	1	Enero	2023-01-21T00:00:00	2024-11-08T06:00:00	1	Precipitación	0
85164	7	Sololá	701	Sololá	4	Finca Santa Victoria	1	Enero	2023-01-21T00:00:00	2024-11-08T06:00:00	8	Radiación solar	0
85165	7	Sololá	701	Sololá	4	Finca Santa Victoria	1	Enero	2023-01-21T00:00:00	2024-11-08T07:00:00	2	Temperatura media	8.5
85166	7	Sololá	701	Sololá	4	Finca Santa Victoria	1	Enero	2023-01-21T00:00:00	2024-11-08T07:00:00	4	Temperatura máxima	8.9
85167	7	Sololá	701	Sololá	4	Finca Santa Victoria	1	Enero	2023-01-21T00:00:00	2024-11-08T07:00:00	3	Temperatura mínima	8.5
85168	7	Sololá	701	Sololá	4	Finca Santa Victoria	1	Enero	2023-01-21T00:00:00	2024-11-08T07:00:00	5	Humedad	97
85169	7	Sololá	701	Sololá	4	Finca Santa Victoria	1	Enero	2023-01-21T00:00:00	2024-11-08T07:00:00	6	Velocidad del viento	1.6
85170	7	Sololá	701	Sololá	4	Finca Santa Victoria	1	Enero	2023-01-21T00:00:00	2024-11-08T07:00:00	7	Dirección del viento	1.61
85171	7	Sololá	701	Sololá	4	Finca Santa Victoria	1	Enero	2023-01-21T00:00:00	2024-11-08T07:00:00	1	Precipitación	0
85172	7	Sololá	701	Sololá	4	Finca Santa Victoria	1	Enero	2023-01-21T00:00:00	2024-11-08T07:00:00	8	Radiación solar	1
85173	7	Sololá	701	Sololá	4	Finca Santa Victoria	1	Enero	2023-01-21T00:00:00	2024-11-08T08:00:00	2	Temperatura media	8.9
85174	7	Sololá	701	Sololá	4	Finca Santa Victoria	1	Enero	2023-01-21T00:00:00	2024-11-08T08:00:00	4	Temperatura máxima	8.9
85175	7	Sololá	701	Sololá	4	Finca Santa Victoria	1	Enero	2023-01-21T00:00:00	2024-11-08T08:00:00	3	Temperatura mínima	8.4
85176	7	Sololá	701	Sololá	4	Finca Santa Victoria	1	Enero	2023-01-21T00:00:00	2024-11-08T08:00:00	5	Humedad	97
85177	7	Sololá	701	Sololá	4	Finca Santa Victoria	1	Enero	2023-01-21T00:00:00	2024-11-08T08:00:00	6	Velocidad del viento	1.6
85178	7	Sololá	701	Sololá	4	Finca Santa Victoria	1	Enero	2023-01-21T00:00:00	2024-11-08T08:00:00	7	Dirección del viento	1.61
85179	7	Sololá	701	Sololá	4	Finca Santa Victoria	1	Enero	2023-01-21T00:00:00	2024-11-08T08:00:00	1	Precipitación	0
85180	7	Sololá	701	Sololá	4	Finca Santa Victoria	1	Enero	2023-01-21T00:00:00	2024-11-08T08:00:00	8	Radiación solar	39
85181	7	Sololá	701	Sololá	4	Finca Santa Victoria	1	Enero	2023-01-21T00:00:00	2024-11-08T09:00:00	2	Temperatura media	12.4
85182	7	Sololá	701	Sololá	4	Finca Santa Victoria	1	Enero	2023-01-21T00:00:00	2024-11-08T09:00:00	4	Temperatura máxima	12.4
85183	7	Sololá	701	Sololá	4	Finca Santa Victoria	1	Enero	2023-01-21T00:00:00	2024-11-08T09:00:00	3	Temperatura mínima	8.9
85184	7	Sololá	701	Sololá	4	Finca Santa Victoria	1	Enero	2023-01-21T00:00:00	2024-11-08T09:00:00	5	Humedad	88
85185	7	Sololá	701	Sololá	4	Finca Santa Victoria	1	Enero	2023-01-21T00:00:00	2024-11-08T09:00:00	6	Velocidad del viento	3.2
85186	7	Sololá	701	Sololá	4	Finca Santa Victoria	1	Enero	2023-01-21T00:00:00	2024-11-08T09:00:00	7	Dirección del viento	3.22
85187	7	Sololá	701	Sololá	4	Finca Santa Victoria	1	Enero	2023-01-21T00:00:00	2024-11-08T09:00:00	1	Precipitación	0
85188	7	Sololá	701	Sololá	4	Finca Santa Victoria	1	Enero	2023-01-21T00:00:00	2024-11-08T09:00:00	8	Radiación solar	153
85189	7	Sololá	701	Sololá	4	Finca Santa Victoria	1	Enero	2023-01-21T00:00:00	2024-11-08T10:00:00	2	Temperatura media	16.8
85190	7	Sololá	701	Sololá	4	Finca Santa Victoria	1	Enero	2023-01-21T00:00:00	2024-11-08T10:00:00	4	Temperatura máxima	16.8
85191	7	Sololá	701	Sololá	4	Finca Santa Victoria	1	Enero	2023-01-21T00:00:00	2024-11-08T10:00:00	3	Temperatura mínima	12.4
85192	7	Sololá	701	Sololá	4	Finca Santa Victoria	1	Enero	2023-01-21T00:00:00	2024-11-08T10:00:00	5	Humedad	73
85193	7	Sololá	701	Sololá	4	Finca Santa Victoria	1	Enero	2023-01-21T00:00:00	2024-11-08T10:00:00	6	Velocidad del viento	3.2
85194	7	Sololá	701	Sololá	4	Finca Santa Victoria	1	Enero	2023-01-21T00:00:00	2024-11-08T10:00:00	7	Dirección del viento	3.22
85195	7	Sololá	701	Sololá	4	Finca Santa Victoria	1	Enero	2023-01-21T00:00:00	2024-11-08T10:00:00	1	Precipitación	0
85196	7	Sololá	701	Sololá	4	Finca Santa Victoria	1	Enero	2023-01-21T00:00:00	2024-11-08T10:00:00	8	Radiación solar	396
85197	7	Sololá	701	Sololá	4	Finca Santa Victoria	1	Enero	2023-01-21T00:00:00	2024-11-08T11:00:00	2	Temperatura media	17.6
85198	7	Sololá	701	Sololá	4	Finca Santa Victoria	1	Enero	2023-01-21T00:00:00	2024-11-08T11:00:00	4	Temperatura máxima	18.8
85199	7	Sololá	701	Sololá	4	Finca Santa Victoria	1	Enero	2023-01-21T00:00:00	2024-11-08T11:00:00	3	Temperatura mínima	16.9
85200	7	Sololá	701	Sololá	4	Finca Santa Victoria	1	Enero	2023-01-21T00:00:00	2024-11-08T11:00:00	5	Humedad	68
85201	7	Sololá	701	Sololá	4	Finca Santa Victoria	1	Enero	2023-01-21T00:00:00	2024-11-08T11:00:00	6	Velocidad del viento	3.2
85202	7	Sololá	701	Sololá	4	Finca Santa Victoria	1	Enero	2023-01-21T00:00:00	2024-11-08T11:00:00	7	Dirección del viento	3.22
85203	7	Sololá	701	Sololá	4	Finca Santa Victoria	1	Enero	2023-01-21T00:00:00	2024-11-08T11:00:00	1	Precipitación	0
85204	7	Sololá	701	Sololá	4	Finca Santa Victoria	1	Enero	2023-01-21T00:00:00	2024-11-08T11:00:00	8	Radiación solar	778
85205	7	Sololá	701	Sololá	4	Finca Santa Victoria	1	Enero	2023-01-21T00:00:00	2024-11-08T12:00:00	2	Temperatura media	17.8
85206	7	Sololá	701	Sololá	4	Finca Santa Victoria	1	Enero	2023-01-21T00:00:00	2024-11-08T12:00:00	4	Temperatura máxima	18.1
85207	7	Sololá	701	Sololá	4	Finca Santa Victoria	1	Enero	2023-01-21T00:00:00	2024-11-08T12:00:00	3	Temperatura mínima	17.6
85208	7	Sololá	701	Sololá	4	Finca Santa Victoria	1	Enero	2023-01-21T00:00:00	2024-11-08T12:00:00	5	Humedad	73
85209	7	Sololá	701	Sololá	4	Finca Santa Victoria	1	Enero	2023-01-21T00:00:00	2024-11-08T12:00:00	6	Velocidad del viento	4.8
85210	7	Sololá	701	Sololá	4	Finca Santa Victoria	1	Enero	2023-01-21T00:00:00	2024-11-08T12:00:00	7	Dirección del viento	4.83
85211	7	Sololá	701	Sololá	4	Finca Santa Victoria	1	Enero	2023-01-21T00:00:00	2024-11-08T12:00:00	1	Precipitación	0
85212	7	Sololá	701	Sololá	4	Finca Santa Victoria	1	Enero	2023-01-21T00:00:00	2024-11-08T12:00:00	8	Radiación solar	860
85213	7	Sololá	701	Sololá	4	Finca Santa Victoria	1	Enero	2023-01-21T00:00:00	2024-11-08T13:00:00	2	Temperatura media	17.7
85214	7	Sololá	701	Sololá	4	Finca Santa Victoria	1	Enero	2023-01-21T00:00:00	2024-11-08T13:00:00	4	Temperatura máxima	18.4
85215	7	Sololá	701	Sololá	4	Finca Santa Victoria	1	Enero	2023-01-21T00:00:00	2024-11-08T13:00:00	3	Temperatura mínima	17.6
85216	7	Sololá	701	Sololá	4	Finca Santa Victoria	1	Enero	2023-01-21T00:00:00	2024-11-08T13:00:00	5	Humedad	78
85217	7	Sololá	701	Sololá	4	Finca Santa Victoria	1	Enero	2023-01-21T00:00:00	2024-11-08T13:00:00	6	Velocidad del viento	4.8
85218	7	Sololá	701	Sololá	4	Finca Santa Victoria	1	Enero	2023-01-21T00:00:00	2024-11-08T13:00:00	7	Dirección del viento	4.83
85219	7	Sololá	701	Sololá	4	Finca Santa Victoria	1	Enero	2023-01-21T00:00:00	2024-11-08T13:00:00	1	Precipitación	0
85220	7	Sololá	701	Sololá	4	Finca Santa Victoria	1	Enero	2023-01-21T00:00:00	2024-11-08T13:00:00	8	Radiación solar	877
85221	7	Sololá	701	Sololá	4	Finca Santa Victoria	1	Enero	2023-01-21T00:00:00	2024-11-08T14:00:00	2	Temperatura media	17
85222	7	Sololá	701	Sololá	4	Finca Santa Victoria	1	Enero	2023-01-21T00:00:00	2024-11-08T14:00:00	4	Temperatura máxima	17.8
85223	7	Sololá	701	Sololá	4	Finca Santa Victoria	1	Enero	2023-01-21T00:00:00	2024-11-08T14:00:00	3	Temperatura mínima	17
85224	7	Sololá	701	Sololá	4	Finca Santa Victoria	1	Enero	2023-01-21T00:00:00	2024-11-08T14:00:00	5	Humedad	82
85225	7	Sololá	701	Sololá	4	Finca Santa Victoria	1	Enero	2023-01-21T00:00:00	2024-11-08T14:00:00	6	Velocidad del viento	4.8
85226	7	Sololá	701	Sololá	4	Finca Santa Victoria	1	Enero	2023-01-21T00:00:00	2024-11-08T14:00:00	7	Dirección del viento	4.83
85227	7	Sololá	701	Sololá	4	Finca Santa Victoria	1	Enero	2023-01-21T00:00:00	2024-11-08T14:00:00	1	Precipitación	0
85228	7	Sololá	701	Sololá	4	Finca Santa Victoria	1	Enero	2023-01-21T00:00:00	2024-11-08T14:00:00	8	Radiación solar	790
85229	7	Sololá	701	Sololá	4	Finca Santa Victoria	1	Enero	2023-01-21T00:00:00	2024-11-08T15:00:00	2	Temperatura media	15.2
85230	7	Sololá	701	Sololá	4	Finca Santa Victoria	1	Enero	2023-01-21T00:00:00	2024-11-08T15:00:00	4	Temperatura máxima	17.2
85231	7	Sololá	701	Sololá	4	Finca Santa Victoria	1	Enero	2023-01-21T00:00:00	2024-11-08T15:00:00	3	Temperatura mínima	15.2
85232	7	Sololá	701	Sololá	4	Finca Santa Victoria	1	Enero	2023-01-21T00:00:00	2024-11-08T15:00:00	5	Humedad	88
85233	7	Sololá	701	Sololá	4	Finca Santa Victoria	1	Enero	2023-01-21T00:00:00	2024-11-08T15:00:00	6	Velocidad del viento	4.8
85234	7	Sololá	701	Sololá	4	Finca Santa Victoria	1	Enero	2023-01-21T00:00:00	2024-11-08T15:00:00	7	Dirección del viento	4.83
85235	7	Sololá	701	Sololá	4	Finca Santa Victoria	1	Enero	2023-01-21T00:00:00	2024-11-08T15:00:00	1	Precipitación	0
85236	7	Sololá	701	Sololá	4	Finca Santa Victoria	1	Enero	2023-01-21T00:00:00	2024-11-08T15:00:00	8	Radiación solar	190
85237	7	Sololá	701	Sololá	4	Finca Santa Victoria	1	Enero	2023-01-21T00:00:00	2024-11-08T16:00:00	2	Temperatura media	14.4
85238	7	Sololá	701	Sololá	4	Finca Santa Victoria	1	Enero	2023-01-21T00:00:00	2024-11-08T16:00:00	4	Temperatura máxima	15.2
85239	7	Sololá	701	Sololá	4	Finca Santa Victoria	1	Enero	2023-01-21T00:00:00	2024-11-08T16:00:00	3	Temperatura mínima	14.4
85240	7	Sololá	701	Sololá	4	Finca Santa Victoria	1	Enero	2023-01-21T00:00:00	2024-11-08T16:00:00	5	Humedad	91
85241	7	Sololá	701	Sololá	4	Finca Santa Victoria	1	Enero	2023-01-21T00:00:00	2024-11-08T16:00:00	6	Velocidad del viento	3.2
85242	7	Sololá	701	Sololá	4	Finca Santa Victoria	1	Enero	2023-01-21T00:00:00	2024-11-08T16:00:00	7	Dirección del viento	3.22
85243	7	Sololá	701	Sololá	4	Finca Santa Victoria	1	Enero	2023-01-21T00:00:00	2024-11-08T16:00:00	1	Precipitación	0
85244	7	Sololá	701	Sololá	4	Finca Santa Victoria	1	Enero	2023-01-21T00:00:00	2024-11-08T16:00:00	8	Radiación solar	69
85245	7	Sololá	701	Sololá	4	Finca Santa Victoria	1	Enero	2023-01-21T00:00:00	2024-11-08T17:00:00	2	Temperatura media	14.1
85246	7	Sololá	701	Sololá	4	Finca Santa Victoria	1	Enero	2023-01-21T00:00:00	2024-11-08T17:00:00	4	Temperatura máxima	14.5
85247	7	Sololá	701	Sololá	4	Finca Santa Victoria	1	Enero	2023-01-21T00:00:00	2024-11-08T17:00:00	3	Temperatura mínima	13.9
85248	7	Sololá	701	Sololá	4	Finca Santa Victoria	1	Enero	2023-01-21T00:00:00	2024-11-08T17:00:00	5	Humedad	94
85249	7	Sololá	701	Sololá	4	Finca Santa Victoria	1	Enero	2023-01-21T00:00:00	2024-11-08T17:00:00	6	Velocidad del viento	3.2
85250	7	Sololá	701	Sololá	4	Finca Santa Victoria	1	Enero	2023-01-21T00:00:00	2024-11-08T17:00:00	7	Dirección del viento	3.22
85251	7	Sololá	701	Sololá	4	Finca Santa Victoria	1	Enero	2023-01-21T00:00:00	2024-11-08T17:00:00	1	Precipitación	0
85252	7	Sololá	701	Sololá	4	Finca Santa Victoria	1	Enero	2023-01-21T00:00:00	2024-11-08T17:00:00	8	Radiación solar	33
85253	7	Sololá	701	Sololá	4	Finca Santa Victoria	1	Enero	2023-01-21T00:00:00	2024-11-08T18:00:00	2	Temperatura media	13.5
85254	7	Sololá	701	Sololá	4	Finca Santa Victoria	1	Enero	2023-01-21T00:00:00	2024-11-08T18:00:00	4	Temperatura máxima	14.2
85255	7	Sololá	701	Sololá	4	Finca Santa Victoria	1	Enero	2023-01-21T00:00:00	2024-11-08T18:00:00	3	Temperatura mínima	13.4
85256	7	Sololá	701	Sololá	4	Finca Santa Victoria	1	Enero	2023-01-21T00:00:00	2024-11-08T18:00:00	5	Humedad	93
85257	7	Sololá	701	Sololá	4	Finca Santa Victoria	1	Enero	2023-01-21T00:00:00	2024-11-08T18:00:00	6	Velocidad del viento	1.6
85258	7	Sololá	701	Sololá	4	Finca Santa Victoria	1	Enero	2023-01-21T00:00:00	2024-11-08T18:00:00	7	Dirección del viento	1.61
85259	7	Sololá	701	Sololá	4	Finca Santa Victoria	1	Enero	2023-01-21T00:00:00	2024-11-08T18:00:00	1	Precipitación	0
85260	7	Sololá	701	Sololá	4	Finca Santa Victoria	1	Enero	2023-01-21T00:00:00	2024-11-08T18:00:00	8	Radiación solar	20
85261	7	Sololá	701	Sololá	4	Finca Santa Victoria	1	Enero	2023-01-21T00:00:00	2024-11-08T19:00:00	2	Temperatura media	12.6
85262	7	Sololá	701	Sololá	4	Finca Santa Victoria	1	Enero	2023-01-21T00:00:00	2024-11-08T19:00:00	4	Temperatura máxima	13.5
85263	7	Sololá	701	Sololá	4	Finca Santa Victoria	1	Enero	2023-01-21T00:00:00	2024-11-08T19:00:00	3	Temperatura mínima	12.6
85264	7	Sololá	701	Sololá	4	Finca Santa Victoria	1	Enero	2023-01-21T00:00:00	2024-11-08T19:00:00	5	Humedad	94
85265	7	Sololá	701	Sololá	4	Finca Santa Victoria	1	Enero	2023-01-21T00:00:00	2024-11-08T19:00:00	6	Velocidad del viento	0
85266	7	Sololá	701	Sololá	4	Finca Santa Victoria	1	Enero	2023-01-21T00:00:00	2024-11-08T19:00:00	7	Dirección del viento	0
85267	7	Sololá	701	Sololá	4	Finca Santa Victoria	1	Enero	2023-01-21T00:00:00	2024-11-08T19:00:00	1	Precipitación	0
85268	7	Sololá	701	Sololá	4	Finca Santa Victoria	1	Enero	2023-01-21T00:00:00	2024-11-08T19:00:00	8	Radiación solar	0
85269	7	Sololá	701	Sololá	4	Finca Santa Victoria	1	Enero	2023-01-21T00:00:00	2024-11-08T20:00:00	2	Temperatura media	11.8
85270	7	Sololá	701	Sololá	4	Finca Santa Victoria	1	Enero	2023-01-21T00:00:00	2024-11-08T20:00:00	4	Temperatura máxima	12.6
85271	7	Sololá	701	Sololá	4	Finca Santa Victoria	1	Enero	2023-01-21T00:00:00	2024-11-08T20:00:00	3	Temperatura mínima	11.8
85272	7	Sololá	701	Sololá	4	Finca Santa Victoria	1	Enero	2023-01-21T00:00:00	2024-11-08T20:00:00	5	Humedad	96
85273	7	Sololá	701	Sololá	4	Finca Santa Victoria	1	Enero	2023-01-21T00:00:00	2024-11-08T20:00:00	6	Velocidad del viento	0
85274	7	Sololá	701	Sololá	4	Finca Santa Victoria	1	Enero	2023-01-21T00:00:00	2024-11-08T20:00:00	7	Dirección del viento	0
85275	7	Sololá	701	Sololá	4	Finca Santa Victoria	1	Enero	2023-01-21T00:00:00	2024-11-08T20:00:00	1	Precipitación	0
85276	7	Sololá	701	Sololá	4	Finca Santa Victoria	1	Enero	2023-01-21T00:00:00	2024-11-08T20:00:00	8	Radiación solar	0
85277	7	Sololá	701	Sololá	4	Finca Santa Victoria	1	Enero	2023-01-21T00:00:00	2024-11-08T21:00:00	2	Temperatura media	11.6
85278	7	Sololá	701	Sololá	4	Finca Santa Victoria	1	Enero	2023-01-21T00:00:00	2024-11-08T21:00:00	4	Temperatura máxima	11.9
85279	7	Sololá	701	Sololá	4	Finca Santa Victoria	1	Enero	2023-01-21T00:00:00	2024-11-08T21:00:00	3	Temperatura mínima	11.5
85280	7	Sololá	701	Sololá	4	Finca Santa Victoria	1	Enero	2023-01-21T00:00:00	2024-11-08T21:00:00	5	Humedad	97
85281	7	Sololá	701	Sololá	4	Finca Santa Victoria	1	Enero	2023-01-21T00:00:00	2024-11-08T21:00:00	6	Velocidad del viento	0
85282	7	Sololá	701	Sololá	4	Finca Santa Victoria	1	Enero	2023-01-21T00:00:00	2024-11-08T21:00:00	7	Dirección del viento	0
85283	7	Sololá	701	Sololá	4	Finca Santa Victoria	1	Enero	2023-01-21T00:00:00	2024-11-08T21:00:00	1	Precipitación	0
85284	7	Sololá	701	Sololá	4	Finca Santa Victoria	1	Enero	2023-01-21T00:00:00	2024-11-08T21:00:00	8	Radiación solar	0
85285	7	Sololá	701	Sololá	4	Finca Santa Victoria	1	Enero	2023-01-21T00:00:00	2024-11-08T22:00:00	2	Temperatura media	10.3
85286	7	Sololá	701	Sololá	4	Finca Santa Victoria	1	Enero	2023-01-21T00:00:00	2024-11-08T22:00:00	4	Temperatura máxima	11.6
85287	7	Sololá	701	Sololá	4	Finca Santa Victoria	1	Enero	2023-01-21T00:00:00	2024-11-08T22:00:00	3	Temperatura mínima	10.3
85288	7	Sololá	701	Sololá	4	Finca Santa Victoria	1	Enero	2023-01-21T00:00:00	2024-11-08T22:00:00	5	Humedad	95
85289	7	Sololá	701	Sololá	4	Finca Santa Victoria	1	Enero	2023-01-21T00:00:00	2024-11-08T22:00:00	6	Velocidad del viento	0
85290	7	Sololá	701	Sololá	4	Finca Santa Victoria	1	Enero	2023-01-21T00:00:00	2024-11-08T22:00:00	7	Dirección del viento	0
85291	7	Sololá	701	Sololá	4	Finca Santa Victoria	1	Enero	2023-01-21T00:00:00	2024-11-08T22:00:00	1	Precipitación	0
85292	7	Sololá	701	Sololá	4	Finca Santa Victoria	1	Enero	2023-01-21T00:00:00	2024-11-08T22:00:00	8	Radiación solar	0
85293	7	Sololá	701	Sololá	4	Finca Santa Victoria	1	Enero	2023-01-21T00:00:00	2024-11-08T23:00:00	2	Temperatura media	10
85294	7	Sololá	701	Sololá	4	Finca Santa Victoria	1	Enero	2023-01-21T00:00:00	2024-11-08T23:00:00	4	Temperatura máxima	10.3
85295	7	Sololá	701	Sololá	4	Finca Santa Victoria	1	Enero	2023-01-21T00:00:00	2024-11-08T23:00:00	3	Temperatura mínima	9.8
85296	7	Sololá	701	Sololá	4	Finca Santa Victoria	1	Enero	2023-01-21T00:00:00	2024-11-08T23:00:00	5	Humedad	82
85297	7	Sololá	701	Sololá	4	Finca Santa Victoria	1	Enero	2023-01-21T00:00:00	2024-11-08T23:00:00	6	Velocidad del viento	1.6
85298	7	Sololá	701	Sololá	4	Finca Santa Victoria	1	Enero	2023-01-21T00:00:00	2024-11-08T23:00:00	7	Dirección del viento	1.61
85299	7	Sololá	701	Sololá	4	Finca Santa Victoria	1	Enero	2023-01-21T00:00:00	2024-11-08T23:00:00	1	Precipitación	0
85300	7	Sololá	701	Sololá	4	Finca Santa Victoria	1	Enero	2023-01-21T00:00:00	2024-11-08T23:00:00	8	Radiación solar	0
85301	7	Sololá	701	Sololá	4	Finca Santa Victoria	1	Enero	2023-01-22T00:00:00	2024-11-08T00:00:00	2	Temperatura media	11
85302	7	Sololá	701	Sololá	4	Finca Santa Victoria	1	Enero	2023-01-22T00:00:00	2024-11-08T00:00:00	4	Temperatura máxima	11
85303	7	Sololá	701	Sololá	4	Finca Santa Victoria	1	Enero	2023-01-22T00:00:00	2024-11-08T00:00:00	3	Temperatura mínima	10
85304	7	Sololá	701	Sololá	4	Finca Santa Victoria	1	Enero	2023-01-22T00:00:00	2024-11-08T00:00:00	5	Humedad	78
85305	7	Sololá	701	Sololá	4	Finca Santa Victoria	1	Enero	2023-01-22T00:00:00	2024-11-08T00:00:00	6	Velocidad del viento	0
85306	7	Sololá	701	Sololá	4	Finca Santa Victoria	1	Enero	2023-01-22T00:00:00	2024-11-08T00:00:00	7	Dirección del viento	0
85307	7	Sololá	701	Sololá	4	Finca Santa Victoria	1	Enero	2023-01-22T00:00:00	2024-11-08T00:00:00	1	Precipitación	0
85308	7	Sololá	701	Sololá	4	Finca Santa Victoria	1	Enero	2023-01-22T00:00:00	2024-11-08T00:00:00	8	Radiación solar	0
85309	7	Sololá	701	Sololá	4	Finca Santa Victoria	1	Enero	2023-01-22T00:00:00	2024-11-08T01:00:00	2	Temperatura media	10.9
85310	7	Sololá	701	Sololá	4	Finca Santa Victoria	1	Enero	2023-01-22T00:00:00	2024-11-08T01:00:00	4	Temperatura máxima	11.3
85311	7	Sololá	701	Sololá	4	Finca Santa Victoria	1	Enero	2023-01-22T00:00:00	2024-11-08T01:00:00	3	Temperatura mínima	10.9
85312	7	Sololá	701	Sololá	4	Finca Santa Victoria	1	Enero	2023-01-22T00:00:00	2024-11-08T01:00:00	5	Humedad	79
85313	7	Sololá	701	Sololá	4	Finca Santa Victoria	1	Enero	2023-01-22T00:00:00	2024-11-08T01:00:00	6	Velocidad del viento	1.6
85314	7	Sololá	701	Sololá	4	Finca Santa Victoria	1	Enero	2023-01-22T00:00:00	2024-11-08T01:00:00	7	Dirección del viento	1.61
85315	7	Sololá	701	Sololá	4	Finca Santa Victoria	1	Enero	2023-01-22T00:00:00	2024-11-08T01:00:00	1	Precipitación	0
85316	7	Sololá	701	Sololá	4	Finca Santa Victoria	1	Enero	2023-01-22T00:00:00	2024-11-08T01:00:00	8	Radiación solar	0
85317	7	Sololá	701	Sololá	4	Finca Santa Victoria	1	Enero	2023-01-22T00:00:00	2024-11-08T02:00:00	2	Temperatura media	10.6
85318	7	Sololá	701	Sololá	4	Finca Santa Victoria	1	Enero	2023-01-22T00:00:00	2024-11-08T02:00:00	4	Temperatura máxima	10.9
85319	7	Sololá	701	Sololá	4	Finca Santa Victoria	1	Enero	2023-01-22T00:00:00	2024-11-08T02:00:00	3	Temperatura mínima	10.6
85320	7	Sololá	701	Sololá	4	Finca Santa Victoria	1	Enero	2023-01-22T00:00:00	2024-11-08T02:00:00	5	Humedad	80
85321	7	Sololá	701	Sololá	4	Finca Santa Victoria	1	Enero	2023-01-22T00:00:00	2024-11-08T02:00:00	6	Velocidad del viento	1.6
85322	7	Sololá	701	Sololá	4	Finca Santa Victoria	1	Enero	2023-01-22T00:00:00	2024-11-08T02:00:00	7	Dirección del viento	1.61
85323	7	Sololá	701	Sololá	4	Finca Santa Victoria	1	Enero	2023-01-22T00:00:00	2024-11-08T02:00:00	1	Precipitación	0
85324	7	Sololá	701	Sololá	4	Finca Santa Victoria	1	Enero	2023-01-22T00:00:00	2024-11-08T02:00:00	8	Radiación solar	0
85325	7	Sololá	701	Sololá	4	Finca Santa Victoria	1	Enero	2023-01-22T00:00:00	2024-11-08T03:00:00	2	Temperatura media	10.2
85326	7	Sololá	701	Sololá	4	Finca Santa Victoria	1	Enero	2023-01-22T00:00:00	2024-11-08T03:00:00	4	Temperatura máxima	10.6
85327	7	Sololá	701	Sololá	4	Finca Santa Victoria	1	Enero	2023-01-22T00:00:00	2024-11-08T03:00:00	3	Temperatura mínima	10.2
85328	7	Sololá	701	Sololá	4	Finca Santa Victoria	1	Enero	2023-01-22T00:00:00	2024-11-08T03:00:00	5	Humedad	80
85329	7	Sololá	701	Sololá	4	Finca Santa Victoria	1	Enero	2023-01-22T00:00:00	2024-11-08T03:00:00	6	Velocidad del viento	1.6
85330	7	Sololá	701	Sololá	4	Finca Santa Victoria	1	Enero	2023-01-22T00:00:00	2024-11-08T03:00:00	7	Dirección del viento	1.61
85331	7	Sololá	701	Sololá	4	Finca Santa Victoria	1	Enero	2023-01-22T00:00:00	2024-11-08T03:00:00	1	Precipitación	0
85332	7	Sololá	701	Sololá	4	Finca Santa Victoria	1	Enero	2023-01-22T00:00:00	2024-11-08T03:00:00	8	Radiación solar	0
85333	7	Sololá	701	Sololá	4	Finca Santa Victoria	1	Enero	2023-01-22T00:00:00	2024-11-08T04:00:00	2	Temperatura media	9.9
85334	7	Sololá	701	Sololá	4	Finca Santa Victoria	1	Enero	2023-01-22T00:00:00	2024-11-08T04:00:00	4	Temperatura máxima	10.2
85335	7	Sololá	701	Sololá	4	Finca Santa Victoria	1	Enero	2023-01-22T00:00:00	2024-11-08T04:00:00	3	Temperatura mínima	9.9
85336	7	Sololá	701	Sololá	4	Finca Santa Victoria	1	Enero	2023-01-22T00:00:00	2024-11-08T04:00:00	5	Humedad	81
85337	7	Sololá	701	Sololá	4	Finca Santa Victoria	1	Enero	2023-01-22T00:00:00	2024-11-08T04:00:00	6	Velocidad del viento	1.6
85338	7	Sololá	701	Sololá	4	Finca Santa Victoria	1	Enero	2023-01-22T00:00:00	2024-11-08T04:00:00	7	Dirección del viento	1.61
85339	7	Sololá	701	Sololá	4	Finca Santa Victoria	1	Enero	2023-01-22T00:00:00	2024-11-08T04:00:00	1	Precipitación	0
85340	7	Sololá	701	Sololá	4	Finca Santa Victoria	1	Enero	2023-01-22T00:00:00	2024-11-08T04:00:00	8	Radiación solar	0
85341	7	Sololá	701	Sololá	4	Finca Santa Victoria	1	Enero	2023-01-22T00:00:00	2024-11-08T05:00:00	2	Temperatura media	9.7
85342	7	Sololá	701	Sololá	4	Finca Santa Victoria	1	Enero	2023-01-22T00:00:00	2024-11-08T05:00:00	4	Temperatura máxima	9.9
85343	7	Sololá	701	Sololá	4	Finca Santa Victoria	1	Enero	2023-01-22T00:00:00	2024-11-08T05:00:00	3	Temperatura mínima	9.7
85344	7	Sololá	701	Sololá	4	Finca Santa Victoria	1	Enero	2023-01-22T00:00:00	2024-11-08T05:00:00	5	Humedad	83
85345	7	Sololá	701	Sololá	4	Finca Santa Victoria	1	Enero	2023-01-22T00:00:00	2024-11-08T05:00:00	6	Velocidad del viento	1.6
85346	7	Sololá	701	Sololá	4	Finca Santa Victoria	1	Enero	2023-01-22T00:00:00	2024-11-08T05:00:00	7	Dirección del viento	1.61
85347	7	Sololá	701	Sololá	4	Finca Santa Victoria	1	Enero	2023-01-22T00:00:00	2024-11-08T05:00:00	1	Precipitación	0
85348	7	Sololá	701	Sololá	4	Finca Santa Victoria	1	Enero	2023-01-22T00:00:00	2024-11-08T05:00:00	8	Radiación solar	0
85349	7	Sololá	701	Sololá	4	Finca Santa Victoria	1	Enero	2023-01-22T00:00:00	2024-11-08T06:00:00	2	Temperatura media	9.3
85350	7	Sololá	701	Sololá	4	Finca Santa Victoria	1	Enero	2023-01-22T00:00:00	2024-11-08T06:00:00	4	Temperatura máxima	9.7
85351	7	Sololá	701	Sololá	4	Finca Santa Victoria	1	Enero	2023-01-22T00:00:00	2024-11-08T06:00:00	3	Temperatura mínima	9.3
85352	7	Sololá	701	Sololá	4	Finca Santa Victoria	1	Enero	2023-01-22T00:00:00	2024-11-08T06:00:00	5	Humedad	84
85353	7	Sololá	701	Sololá	4	Finca Santa Victoria	1	Enero	2023-01-22T00:00:00	2024-11-08T06:00:00	6	Velocidad del viento	1.6
85354	7	Sololá	701	Sololá	4	Finca Santa Victoria	1	Enero	2023-01-22T00:00:00	2024-11-08T06:00:00	7	Dirección del viento	1.61
85355	7	Sololá	701	Sololá	4	Finca Santa Victoria	1	Enero	2023-01-22T00:00:00	2024-11-08T06:00:00	1	Precipitación	0
85356	7	Sololá	701	Sololá	4	Finca Santa Victoria	1	Enero	2023-01-22T00:00:00	2024-11-08T06:00:00	8	Radiación solar	0
85357	7	Sololá	701	Sololá	4	Finca Santa Victoria	1	Enero	2023-01-22T00:00:00	2024-11-08T07:00:00	2	Temperatura media	9.1
85358	7	Sololá	701	Sololá	4	Finca Santa Victoria	1	Enero	2023-01-22T00:00:00	2024-11-08T07:00:00	4	Temperatura máxima	9.3
85359	7	Sololá	701	Sololá	4	Finca Santa Victoria	1	Enero	2023-01-22T00:00:00	2024-11-08T07:00:00	3	Temperatura mínima	9
85360	7	Sololá	701	Sololá	4	Finca Santa Victoria	1	Enero	2023-01-22T00:00:00	2024-11-08T07:00:00	5	Humedad	83
85361	7	Sololá	701	Sololá	4	Finca Santa Victoria	1	Enero	2023-01-22T00:00:00	2024-11-08T07:00:00	6	Velocidad del viento	1.6
85362	7	Sololá	701	Sololá	4	Finca Santa Victoria	1	Enero	2023-01-22T00:00:00	2024-11-08T07:00:00	7	Dirección del viento	1.61
85363	7	Sololá	701	Sololá	4	Finca Santa Victoria	1	Enero	2023-01-22T00:00:00	2024-11-08T07:00:00	1	Precipitación	0
85364	7	Sololá	701	Sololá	4	Finca Santa Victoria	1	Enero	2023-01-22T00:00:00	2024-11-08T07:00:00	8	Radiación solar	4
85365	7	Sololá	701	Sololá	4	Finca Santa Victoria	1	Enero	2023-01-22T00:00:00	2024-11-08T08:00:00	2	Temperatura media	10.4
85366	7	Sololá	701	Sololá	4	Finca Santa Victoria	1	Enero	2023-01-22T00:00:00	2024-11-08T08:00:00	4	Temperatura máxima	10.4
85367	7	Sololá	701	Sololá	4	Finca Santa Victoria	1	Enero	2023-01-22T00:00:00	2024-11-08T08:00:00	3	Temperatura mínima	9.1
85368	7	Sololá	701	Sololá	4	Finca Santa Victoria	1	Enero	2023-01-22T00:00:00	2024-11-08T08:00:00	5	Humedad	84
85369	7	Sololá	701	Sololá	4	Finca Santa Victoria	1	Enero	2023-01-22T00:00:00	2024-11-08T08:00:00	6	Velocidad del viento	1.6
85370	7	Sololá	701	Sololá	4	Finca Santa Victoria	1	Enero	2023-01-22T00:00:00	2024-11-08T08:00:00	7	Dirección del viento	1.61
85371	7	Sololá	701	Sololá	4	Finca Santa Victoria	1	Enero	2023-01-22T00:00:00	2024-11-08T08:00:00	1	Precipitación	0
85372	7	Sololá	701	Sololá	4	Finca Santa Victoria	1	Enero	2023-01-22T00:00:00	2024-11-08T08:00:00	8	Radiación solar	36
85373	7	Sololá	701	Sololá	4	Finca Santa Victoria	1	Enero	2023-01-22T00:00:00	2024-11-08T09:00:00	2	Temperatura media	13.4
85374	7	Sololá	701	Sololá	4	Finca Santa Victoria	1	Enero	2023-01-22T00:00:00	2024-11-08T09:00:00	4	Temperatura máxima	13.4
85375	7	Sololá	701	Sololá	4	Finca Santa Victoria	1	Enero	2023-01-22T00:00:00	2024-11-08T09:00:00	3	Temperatura mínima	10.4
85376	7	Sololá	701	Sololá	4	Finca Santa Victoria	1	Enero	2023-01-22T00:00:00	2024-11-08T09:00:00	5	Humedad	71
85377	7	Sololá	701	Sololá	4	Finca Santa Victoria	1	Enero	2023-01-22T00:00:00	2024-11-08T09:00:00	6	Velocidad del viento	1.6
85378	7	Sololá	701	Sololá	4	Finca Santa Victoria	1	Enero	2023-01-22T00:00:00	2024-11-08T09:00:00	7	Dirección del viento	1.61
85379	7	Sololá	701	Sololá	4	Finca Santa Victoria	1	Enero	2023-01-22T00:00:00	2024-11-08T09:00:00	1	Precipitación	0
85380	7	Sololá	701	Sololá	4	Finca Santa Victoria	1	Enero	2023-01-22T00:00:00	2024-11-08T09:00:00	8	Radiación solar	138
85381	7	Sololá	701	Sololá	4	Finca Santa Victoria	1	Enero	2023-01-22T00:00:00	2024-11-08T10:00:00	2	Temperatura media	14.8
85382	7	Sololá	701	Sololá	4	Finca Santa Victoria	1	Enero	2023-01-22T00:00:00	2024-11-08T10:00:00	4	Temperatura máxima	15.1
85383	7	Sololá	701	Sololá	4	Finca Santa Victoria	1	Enero	2023-01-22T00:00:00	2024-11-08T10:00:00	3	Temperatura mínima	13.3
85384	7	Sololá	701	Sololá	4	Finca Santa Victoria	1	Enero	2023-01-22T00:00:00	2024-11-08T10:00:00	5	Humedad	70
85385	7	Sololá	701	Sololá	4	Finca Santa Victoria	1	Enero	2023-01-22T00:00:00	2024-11-08T10:00:00	6	Velocidad del viento	3.2
85386	7	Sololá	701	Sololá	4	Finca Santa Victoria	1	Enero	2023-01-22T00:00:00	2024-11-08T10:00:00	7	Dirección del viento	3.22
85387	7	Sololá	701	Sololá	4	Finca Santa Victoria	1	Enero	2023-01-22T00:00:00	2024-11-08T10:00:00	1	Precipitación	0
85388	7	Sololá	701	Sololá	4	Finca Santa Victoria	1	Enero	2023-01-22T00:00:00	2024-11-08T10:00:00	8	Radiación solar	407
85389	7	Sololá	701	Sololá	4	Finca Santa Victoria	1	Enero	2023-01-22T00:00:00	2024-11-08T11:00:00	2	Temperatura media	16.4
85390	7	Sololá	701	Sololá	4	Finca Santa Victoria	1	Enero	2023-01-22T00:00:00	2024-11-08T11:00:00	4	Temperatura máxima	16.4
85391	7	Sololá	701	Sololá	4	Finca Santa Victoria	1	Enero	2023-01-22T00:00:00	2024-11-08T11:00:00	3	Temperatura mínima	14.8
85392	7	Sololá	701	Sololá	4	Finca Santa Victoria	1	Enero	2023-01-22T00:00:00	2024-11-08T11:00:00	5	Humedad	49
85393	7	Sololá	701	Sololá	4	Finca Santa Victoria	1	Enero	2023-01-22T00:00:00	2024-11-08T11:00:00	6	Velocidad del viento	3.2
85394	7	Sololá	701	Sololá	4	Finca Santa Victoria	1	Enero	2023-01-22T00:00:00	2024-11-08T11:00:00	7	Dirección del viento	3.22
85395	7	Sololá	701	Sololá	4	Finca Santa Victoria	1	Enero	2023-01-22T00:00:00	2024-11-08T11:00:00	1	Precipitación	0
85396	7	Sololá	701	Sololá	4	Finca Santa Victoria	1	Enero	2023-01-22T00:00:00	2024-11-08T11:00:00	8	Radiación solar	800
85397	7	Sololá	701	Sololá	4	Finca Santa Victoria	1	Enero	2023-01-22T00:00:00	2024-11-08T12:00:00	2	Temperatura media	17.3
85398	7	Sololá	701	Sololá	4	Finca Santa Victoria	1	Enero	2023-01-22T00:00:00	2024-11-08T12:00:00	4	Temperatura máxima	17.3
85399	7	Sololá	701	Sololá	4	Finca Santa Victoria	1	Enero	2023-01-22T00:00:00	2024-11-08T12:00:00	3	Temperatura mínima	16.4
85400	7	Sololá	701	Sololá	4	Finca Santa Victoria	1	Enero	2023-01-22T00:00:00	2024-11-08T12:00:00	5	Humedad	47
85401	7	Sololá	701	Sololá	4	Finca Santa Victoria	1	Enero	2023-01-22T00:00:00	2024-11-08T12:00:00	6	Velocidad del viento	4.8
85402	7	Sololá	701	Sololá	4	Finca Santa Victoria	1	Enero	2023-01-22T00:00:00	2024-11-08T12:00:00	7	Dirección del viento	4.83
85403	7	Sololá	701	Sololá	4	Finca Santa Victoria	1	Enero	2023-01-22T00:00:00	2024-11-08T12:00:00	1	Precipitación	0
85404	7	Sololá	701	Sololá	4	Finca Santa Victoria	1	Enero	2023-01-22T00:00:00	2024-11-08T12:00:00	8	Radiación solar	886
85405	7	Sololá	701	Sololá	4	Finca Santa Victoria	1	Enero	2023-01-22T00:00:00	2024-11-08T13:00:00	2	Temperatura media	17.9
85406	7	Sololá	701	Sololá	4	Finca Santa Victoria	1	Enero	2023-01-22T00:00:00	2024-11-08T13:00:00	4	Temperatura máxima	17.9
85407	7	Sololá	701	Sololá	4	Finca Santa Victoria	1	Enero	2023-01-22T00:00:00	2024-11-08T13:00:00	3	Temperatura mínima	17.3
85408	7	Sololá	701	Sololá	4	Finca Santa Victoria	1	Enero	2023-01-22T00:00:00	2024-11-08T13:00:00	5	Humedad	52
85409	7	Sololá	701	Sololá	4	Finca Santa Victoria	1	Enero	2023-01-22T00:00:00	2024-11-08T13:00:00	6	Velocidad del viento	4.8
85410	7	Sololá	701	Sololá	4	Finca Santa Victoria	1	Enero	2023-01-22T00:00:00	2024-11-08T13:00:00	7	Dirección del viento	4.83
85411	7	Sololá	701	Sololá	4	Finca Santa Victoria	1	Enero	2023-01-22T00:00:00	2024-11-08T13:00:00	1	Precipitación	0
85412	7	Sololá	701	Sololá	4	Finca Santa Victoria	1	Enero	2023-01-22T00:00:00	2024-11-08T13:00:00	8	Radiación solar	899
85413	7	Sololá	701	Sololá	4	Finca Santa Victoria	1	Enero	2023-01-22T00:00:00	2024-11-08T14:00:00	2	Temperatura media	17.7
85414	7	Sololá	701	Sololá	4	Finca Santa Victoria	1	Enero	2023-01-22T00:00:00	2024-11-08T14:00:00	4	Temperatura máxima	18.3
85415	7	Sololá	701	Sololá	4	Finca Santa Victoria	1	Enero	2023-01-22T00:00:00	2024-11-08T14:00:00	3	Temperatura mínima	17.4
85416	7	Sololá	701	Sololá	4	Finca Santa Victoria	1	Enero	2023-01-22T00:00:00	2024-11-08T14:00:00	5	Humedad	69
85417	7	Sololá	701	Sololá	4	Finca Santa Victoria	1	Enero	2023-01-22T00:00:00	2024-11-08T14:00:00	6	Velocidad del viento	4.8
85418	7	Sololá	701	Sololá	4	Finca Santa Victoria	1	Enero	2023-01-22T00:00:00	2024-11-08T14:00:00	7	Dirección del viento	4.83
85419	7	Sololá	701	Sololá	4	Finca Santa Victoria	1	Enero	2023-01-22T00:00:00	2024-11-08T14:00:00	1	Precipitación	0
85420	7	Sololá	701	Sololá	4	Finca Santa Victoria	1	Enero	2023-01-22T00:00:00	2024-11-08T14:00:00	8	Radiación solar	829
85421	7	Sololá	701	Sololá	4	Finca Santa Victoria	1	Enero	2023-01-22T00:00:00	2024-11-08T15:00:00	2	Temperatura media	16.9
85422	7	Sololá	701	Sololá	4	Finca Santa Victoria	1	Enero	2023-01-22T00:00:00	2024-11-08T15:00:00	4	Temperatura máxima	17.7
85423	7	Sololá	701	Sololá	4	Finca Santa Victoria	1	Enero	2023-01-22T00:00:00	2024-11-08T15:00:00	3	Temperatura mínima	16.9
85424	7	Sololá	701	Sololá	4	Finca Santa Victoria	1	Enero	2023-01-22T00:00:00	2024-11-08T15:00:00	5	Humedad	72
85425	7	Sololá	701	Sololá	4	Finca Santa Victoria	1	Enero	2023-01-22T00:00:00	2024-11-08T15:00:00	6	Velocidad del viento	6.4
85426	7	Sololá	701	Sololá	4	Finca Santa Victoria	1	Enero	2023-01-22T00:00:00	2024-11-08T15:00:00	7	Dirección del viento	6.44
85427	7	Sololá	701	Sololá	4	Finca Santa Victoria	1	Enero	2023-01-22T00:00:00	2024-11-08T15:00:00	1	Precipitación	0
85428	7	Sololá	701	Sololá	4	Finca Santa Victoria	1	Enero	2023-01-22T00:00:00	2024-11-08T15:00:00	8	Radiación solar	445
85429	7	Sololá	701	Sololá	4	Finca Santa Victoria	1	Enero	2023-01-22T00:00:00	2024-11-08T16:00:00	2	Temperatura media	15.7
85430	7	Sololá	701	Sololá	4	Finca Santa Victoria	1	Enero	2023-01-22T00:00:00	2024-11-08T16:00:00	4	Temperatura máxima	16.9
85431	7	Sololá	701	Sololá	4	Finca Santa Victoria	1	Enero	2023-01-22T00:00:00	2024-11-08T16:00:00	3	Temperatura mínima	15.4
85432	7	Sololá	701	Sololá	4	Finca Santa Victoria	1	Enero	2023-01-22T00:00:00	2024-11-08T16:00:00	5	Humedad	79
85433	7	Sololá	701	Sololá	4	Finca Santa Victoria	1	Enero	2023-01-22T00:00:00	2024-11-08T16:00:00	6	Velocidad del viento	4.8
85434	7	Sololá	701	Sololá	4	Finca Santa Victoria	1	Enero	2023-01-22T00:00:00	2024-11-08T16:00:00	7	Dirección del viento	4.83
85435	7	Sololá	701	Sololá	4	Finca Santa Victoria	1	Enero	2023-01-22T00:00:00	2024-11-08T16:00:00	1	Precipitación	0
85436	7	Sololá	701	Sololá	4	Finca Santa Victoria	1	Enero	2023-01-22T00:00:00	2024-11-08T16:00:00	8	Radiación solar	275
85437	7	Sololá	701	Sololá	4	Finca Santa Victoria	1	Enero	2023-01-22T00:00:00	2024-11-08T17:00:00	2	Temperatura media	14
85438	7	Sololá	701	Sololá	4	Finca Santa Victoria	1	Enero	2023-01-22T00:00:00	2024-11-08T17:00:00	4	Temperatura máxima	15.6
85439	7	Sololá	701	Sololá	4	Finca Santa Victoria	1	Enero	2023-01-22T00:00:00	2024-11-08T17:00:00	3	Temperatura mínima	14
85440	7	Sololá	701	Sololá	4	Finca Santa Victoria	1	Enero	2023-01-22T00:00:00	2024-11-08T17:00:00	5	Humedad	88
85441	7	Sololá	701	Sololá	4	Finca Santa Victoria	1	Enero	2023-01-22T00:00:00	2024-11-08T17:00:00	6	Velocidad del viento	3.2
85442	7	Sololá	701	Sololá	4	Finca Santa Victoria	1	Enero	2023-01-22T00:00:00	2024-11-08T17:00:00	7	Dirección del viento	3.22
85443	7	Sololá	701	Sololá	4	Finca Santa Victoria	1	Enero	2023-01-22T00:00:00	2024-11-08T17:00:00	1	Precipitación	0
85444	7	Sololá	701	Sololá	4	Finca Santa Victoria	1	Enero	2023-01-22T00:00:00	2024-11-08T17:00:00	8	Radiación solar	83
85445	7	Sololá	701	Sololá	4	Finca Santa Victoria	1	Enero	2023-01-22T00:00:00	2024-11-08T18:00:00	2	Temperatura media	13.2
85446	7	Sololá	701	Sololá	4	Finca Santa Victoria	1	Enero	2023-01-22T00:00:00	2024-11-08T18:00:00	4	Temperatura máxima	14
85447	7	Sololá	701	Sololá	4	Finca Santa Victoria	1	Enero	2023-01-22T00:00:00	2024-11-08T18:00:00	3	Temperatura mínima	13.2
85448	7	Sololá	701	Sololá	4	Finca Santa Victoria	1	Enero	2023-01-22T00:00:00	2024-11-08T18:00:00	5	Humedad	93
85449	7	Sololá	701	Sololá	4	Finca Santa Victoria	1	Enero	2023-01-22T00:00:00	2024-11-08T18:00:00	6	Velocidad del viento	1.6
85450	7	Sololá	701	Sololá	4	Finca Santa Victoria	1	Enero	2023-01-22T00:00:00	2024-11-08T18:00:00	7	Dirección del viento	1.61
85451	7	Sololá	701	Sololá	4	Finca Santa Victoria	1	Enero	2023-01-22T00:00:00	2024-11-08T18:00:00	1	Precipitación	0
85452	7	Sololá	701	Sololá	4	Finca Santa Victoria	1	Enero	2023-01-22T00:00:00	2024-11-08T18:00:00	8	Radiación solar	16
85453	7	Sololá	701	Sololá	4	Finca Santa Victoria	1	Enero	2023-01-22T00:00:00	2024-11-08T19:00:00	2	Temperatura media	12.1
85454	7	Sololá	701	Sololá	4	Finca Santa Victoria	1	Enero	2023-01-22T00:00:00	2024-11-08T19:00:00	4	Temperatura máxima	13.2
85455	7	Sololá	701	Sololá	4	Finca Santa Victoria	1	Enero	2023-01-22T00:00:00	2024-11-08T19:00:00	3	Temperatura mínima	12.1
85456	7	Sololá	701	Sololá	4	Finca Santa Victoria	1	Enero	2023-01-22T00:00:00	2024-11-08T19:00:00	5	Humedad	94
85457	7	Sololá	701	Sololá	4	Finca Santa Victoria	1	Enero	2023-01-22T00:00:00	2024-11-08T19:00:00	6	Velocidad del viento	0
85458	7	Sololá	701	Sololá	4	Finca Santa Victoria	1	Enero	2023-01-22T00:00:00	2024-11-08T19:00:00	7	Dirección del viento	0
85459	7	Sololá	701	Sololá	4	Finca Santa Victoria	1	Enero	2023-01-22T00:00:00	2024-11-08T19:00:00	1	Precipitación	0
85460	7	Sololá	701	Sololá	4	Finca Santa Victoria	1	Enero	2023-01-22T00:00:00	2024-11-08T19:00:00	8	Radiación solar	0
85461	7	Sololá	701	Sololá	4	Finca Santa Victoria	1	Enero	2023-01-22T00:00:00	2024-11-08T20:00:00	2	Temperatura media	11.7
85462	7	Sololá	701	Sololá	4	Finca Santa Victoria	1	Enero	2023-01-22T00:00:00	2024-11-08T20:00:00	4	Temperatura máxima	12.1
85463	7	Sololá	701	Sololá	4	Finca Santa Victoria	1	Enero	2023-01-22T00:00:00	2024-11-08T20:00:00	3	Temperatura mínima	11.4
85464	7	Sololá	701	Sololá	4	Finca Santa Victoria	1	Enero	2023-01-22T00:00:00	2024-11-08T20:00:00	5	Humedad	92
85465	7	Sololá	701	Sololá	4	Finca Santa Victoria	1	Enero	2023-01-22T00:00:00	2024-11-08T20:00:00	6	Velocidad del viento	0
85466	7	Sololá	701	Sololá	4	Finca Santa Victoria	1	Enero	2023-01-22T00:00:00	2024-11-08T20:00:00	7	Dirección del viento	0
85467	7	Sololá	701	Sololá	4	Finca Santa Victoria	1	Enero	2023-01-22T00:00:00	2024-11-08T20:00:00	1	Precipitación	0
85468	7	Sololá	701	Sololá	4	Finca Santa Victoria	1	Enero	2023-01-22T00:00:00	2024-11-08T20:00:00	8	Radiación solar	0
85469	7	Sololá	701	Sololá	4	Finca Santa Victoria	1	Enero	2023-01-22T00:00:00	2024-11-08T21:00:00	2	Temperatura media	11.4
85470	7	Sololá	701	Sololá	4	Finca Santa Victoria	1	Enero	2023-01-22T00:00:00	2024-11-08T21:00:00	4	Temperatura máxima	11.8
85471	7	Sololá	701	Sololá	4	Finca Santa Victoria	1	Enero	2023-01-22T00:00:00	2024-11-08T21:00:00	3	Temperatura mínima	11.1
85472	7	Sololá	701	Sololá	4	Finca Santa Victoria	1	Enero	2023-01-22T00:00:00	2024-11-08T21:00:00	5	Humedad	90
85473	7	Sololá	701	Sololá	4	Finca Santa Victoria	1	Enero	2023-01-22T00:00:00	2024-11-08T21:00:00	6	Velocidad del viento	1.6
85474	7	Sololá	701	Sololá	4	Finca Santa Victoria	1	Enero	2023-01-22T00:00:00	2024-11-08T21:00:00	7	Dirección del viento	1.61
85475	7	Sololá	701	Sololá	4	Finca Santa Victoria	1	Enero	2023-01-22T00:00:00	2024-11-08T21:00:00	1	Precipitación	0
85476	7	Sololá	701	Sololá	4	Finca Santa Victoria	1	Enero	2023-01-22T00:00:00	2024-11-08T21:00:00	8	Radiación solar	0
85477	7	Sololá	701	Sololá	4	Finca Santa Victoria	1	Enero	2023-01-22T00:00:00	2024-11-08T22:00:00	2	Temperatura media	10.8
85478	7	Sololá	701	Sololá	4	Finca Santa Victoria	1	Enero	2023-01-22T00:00:00	2024-11-08T22:00:00	4	Temperatura máxima	11.4
85479	7	Sololá	701	Sololá	4	Finca Santa Victoria	1	Enero	2023-01-22T00:00:00	2024-11-08T22:00:00	3	Temperatura mínima	10.8
85480	7	Sololá	701	Sololá	4	Finca Santa Victoria	1	Enero	2023-01-22T00:00:00	2024-11-08T22:00:00	5	Humedad	83
85481	7	Sololá	701	Sololá	4	Finca Santa Victoria	1	Enero	2023-01-22T00:00:00	2024-11-08T22:00:00	6	Velocidad del viento	1.6
85482	7	Sololá	701	Sololá	4	Finca Santa Victoria	1	Enero	2023-01-22T00:00:00	2024-11-08T22:00:00	7	Dirección del viento	1.61
85483	7	Sololá	701	Sololá	4	Finca Santa Victoria	1	Enero	2023-01-22T00:00:00	2024-11-08T22:00:00	1	Precipitación	0
85484	7	Sololá	701	Sololá	4	Finca Santa Victoria	1	Enero	2023-01-22T00:00:00	2024-11-08T22:00:00	8	Radiación solar	0
85485	7	Sololá	701	Sololá	4	Finca Santa Victoria	1	Enero	2023-01-22T00:00:00	2024-11-08T23:00:00	2	Temperatura media	10.5
85486	7	Sololá	701	Sololá	4	Finca Santa Victoria	1	Enero	2023-01-22T00:00:00	2024-11-08T23:00:00	4	Temperatura máxima	11
85487	7	Sololá	701	Sololá	4	Finca Santa Victoria	1	Enero	2023-01-22T00:00:00	2024-11-08T23:00:00	3	Temperatura mínima	10.4
85488	7	Sololá	701	Sololá	4	Finca Santa Victoria	1	Enero	2023-01-22T00:00:00	2024-11-08T23:00:00	5	Humedad	83
85489	7	Sololá	701	Sololá	4	Finca Santa Victoria	1	Enero	2023-01-22T00:00:00	2024-11-08T23:00:00	6	Velocidad del viento	1.6
85490	7	Sololá	701	Sololá	4	Finca Santa Victoria	1	Enero	2023-01-22T00:00:00	2024-11-08T23:00:00	7	Dirección del viento	1.61
85491	7	Sololá	701	Sololá	4	Finca Santa Victoria	1	Enero	2023-01-22T00:00:00	2024-11-08T23:00:00	1	Precipitación	0
85492	7	Sololá	701	Sololá	4	Finca Santa Victoria	1	Enero	2023-01-22T00:00:00	2024-11-08T23:00:00	8	Radiación solar	0
85493	7	Sololá	701	Sololá	4	Finca Santa Victoria	1	Enero	2023-01-23T00:00:00	2024-11-08T00:00:00	2	Temperatura media	10.2
85494	7	Sololá	701	Sololá	4	Finca Santa Victoria	1	Enero	2023-01-23T00:00:00	2024-11-08T00:00:00	4	Temperatura máxima	10.5
85495	7	Sololá	701	Sololá	4	Finca Santa Victoria	1	Enero	2023-01-23T00:00:00	2024-11-08T00:00:00	3	Temperatura mínima	10.2
85496	7	Sololá	701	Sololá	4	Finca Santa Victoria	1	Enero	2023-01-23T00:00:00	2024-11-08T00:00:00	5	Humedad	88
85497	7	Sololá	701	Sololá	4	Finca Santa Victoria	1	Enero	2023-01-23T00:00:00	2024-11-08T00:00:00	6	Velocidad del viento	0
85498	7	Sololá	701	Sololá	4	Finca Santa Victoria	1	Enero	2023-01-23T00:00:00	2024-11-08T00:00:00	7	Dirección del viento	0
85499	7	Sololá	701	Sololá	4	Finca Santa Victoria	1	Enero	2023-01-23T00:00:00	2024-11-08T00:00:00	1	Precipitación	0
85500	7	Sololá	701	Sololá	4	Finca Santa Victoria	1	Enero	2023-01-23T00:00:00	2024-11-08T00:00:00	8	Radiación solar	0
85501	7	Sololá	701	Sololá	4	Finca Santa Victoria	1	Enero	2023-01-23T00:00:00	2024-11-08T01:00:00	2	Temperatura media	10.2
85502	7	Sololá	701	Sololá	4	Finca Santa Victoria	1	Enero	2023-01-23T00:00:00	2024-11-08T01:00:00	4	Temperatura máxima	10.2
85503	7	Sololá	701	Sololá	4	Finca Santa Victoria	1	Enero	2023-01-23T00:00:00	2024-11-08T01:00:00	3	Temperatura mínima	9.9
85504	7	Sololá	701	Sololá	4	Finca Santa Victoria	1	Enero	2023-01-23T00:00:00	2024-11-08T01:00:00	5	Humedad	88
85505	7	Sololá	701	Sololá	4	Finca Santa Victoria	1	Enero	2023-01-23T00:00:00	2024-11-08T01:00:00	6	Velocidad del viento	0
85506	7	Sololá	701	Sololá	4	Finca Santa Victoria	1	Enero	2023-01-23T00:00:00	2024-11-08T01:00:00	7	Dirección del viento	0
85507	7	Sololá	701	Sololá	4	Finca Santa Victoria	1	Enero	2023-01-23T00:00:00	2024-11-08T01:00:00	1	Precipitación	0
85508	7	Sololá	701	Sololá	4	Finca Santa Victoria	1	Enero	2023-01-23T00:00:00	2024-11-08T01:00:00	8	Radiación solar	0
85509	7	Sololá	701	Sololá	4	Finca Santa Victoria	1	Enero	2023-01-23T00:00:00	2024-11-08T02:00:00	2	Temperatura media	9.8
85510	7	Sololá	701	Sololá	4	Finca Santa Victoria	1	Enero	2023-01-23T00:00:00	2024-11-08T02:00:00	4	Temperatura máxima	10.2
85511	7	Sololá	701	Sololá	4	Finca Santa Victoria	1	Enero	2023-01-23T00:00:00	2024-11-08T02:00:00	3	Temperatura mínima	9.7
85512	7	Sololá	701	Sololá	4	Finca Santa Victoria	1	Enero	2023-01-23T00:00:00	2024-11-08T02:00:00	5	Humedad	88
85513	7	Sololá	701	Sololá	4	Finca Santa Victoria	1	Enero	2023-01-23T00:00:00	2024-11-08T02:00:00	6	Velocidad del viento	0
85514	7	Sololá	701	Sololá	4	Finca Santa Victoria	1	Enero	2023-01-23T00:00:00	2024-11-08T02:00:00	7	Dirección del viento	0
85515	7	Sololá	701	Sololá	4	Finca Santa Victoria	1	Enero	2023-01-23T00:00:00	2024-11-08T02:00:00	1	Precipitación	0
85516	7	Sololá	701	Sololá	4	Finca Santa Victoria	1	Enero	2023-01-23T00:00:00	2024-11-08T02:00:00	8	Radiación solar	0
85517	7	Sololá	701	Sololá	4	Finca Santa Victoria	1	Enero	2023-01-23T00:00:00	2024-11-08T03:00:00	2	Temperatura media	9.7
85518	7	Sololá	701	Sololá	4	Finca Santa Victoria	1	Enero	2023-01-23T00:00:00	2024-11-08T03:00:00	4	Temperatura máxima	9.8
85519	7	Sololá	701	Sololá	4	Finca Santa Victoria	1	Enero	2023-01-23T00:00:00	2024-11-08T03:00:00	3	Temperatura mínima	9.6
85520	7	Sololá	701	Sololá	4	Finca Santa Victoria	1	Enero	2023-01-23T00:00:00	2024-11-08T03:00:00	5	Humedad	87
85521	7	Sololá	701	Sololá	4	Finca Santa Victoria	1	Enero	2023-01-23T00:00:00	2024-11-08T03:00:00	6	Velocidad del viento	1.6
85522	7	Sololá	701	Sololá	4	Finca Santa Victoria	1	Enero	2023-01-23T00:00:00	2024-11-08T03:00:00	7	Dirección del viento	1.61
85523	7	Sololá	701	Sololá	4	Finca Santa Victoria	1	Enero	2023-01-23T00:00:00	2024-11-08T03:00:00	1	Precipitación	0
85524	7	Sololá	701	Sololá	4	Finca Santa Victoria	1	Enero	2023-01-23T00:00:00	2024-11-08T03:00:00	8	Radiación solar	0
85525	7	Sololá	701	Sololá	4	Finca Santa Victoria	1	Enero	2023-01-23T00:00:00	2024-11-08T04:00:00	2	Temperatura media	9.7
85526	7	Sololá	701	Sololá	4	Finca Santa Victoria	1	Enero	2023-01-23T00:00:00	2024-11-08T04:00:00	4	Temperatura máxima	10.2
85527	7	Sololá	701	Sololá	4	Finca Santa Victoria	1	Enero	2023-01-23T00:00:00	2024-11-08T04:00:00	3	Temperatura mínima	9.6
85528	7	Sololá	701	Sololá	4	Finca Santa Victoria	1	Enero	2023-01-23T00:00:00	2024-11-08T04:00:00	5	Humedad	86
85529	7	Sololá	701	Sololá	4	Finca Santa Victoria	1	Enero	2023-01-23T00:00:00	2024-11-08T04:00:00	6	Velocidad del viento	1.6
85530	7	Sololá	701	Sololá	4	Finca Santa Victoria	1	Enero	2023-01-23T00:00:00	2024-11-08T04:00:00	7	Dirección del viento	1.61
85531	7	Sololá	701	Sololá	4	Finca Santa Victoria	1	Enero	2023-01-23T00:00:00	2024-11-08T04:00:00	1	Precipitación	0
85532	7	Sololá	701	Sololá	4	Finca Santa Victoria	1	Enero	2023-01-23T00:00:00	2024-11-08T04:00:00	8	Radiación solar	0
85533	7	Sololá	701	Sololá	4	Finca Santa Victoria	1	Enero	2023-01-23T00:00:00	2024-11-08T05:00:00	2	Temperatura media	9.1
85534	7	Sololá	701	Sololá	4	Finca Santa Victoria	1	Enero	2023-01-23T00:00:00	2024-11-08T05:00:00	4	Temperatura máxima	9.6
85535	7	Sololá	701	Sololá	4	Finca Santa Victoria	1	Enero	2023-01-23T00:00:00	2024-11-08T05:00:00	3	Temperatura mínima	8.9
85536	7	Sololá	701	Sololá	4	Finca Santa Victoria	1	Enero	2023-01-23T00:00:00	2024-11-08T05:00:00	5	Humedad	85
85537	7	Sololá	701	Sololá	4	Finca Santa Victoria	1	Enero	2023-01-23T00:00:00	2024-11-08T05:00:00	6	Velocidad del viento	1.6
85538	7	Sololá	701	Sololá	4	Finca Santa Victoria	1	Enero	2023-01-23T00:00:00	2024-11-08T05:00:00	7	Dirección del viento	1.61
85539	7	Sololá	701	Sololá	4	Finca Santa Victoria	1	Enero	2023-01-23T00:00:00	2024-11-08T05:00:00	1	Precipitación	0
85540	7	Sololá	701	Sololá	4	Finca Santa Victoria	1	Enero	2023-01-23T00:00:00	2024-11-08T05:00:00	8	Radiación solar	0
85541	7	Sololá	701	Sololá	4	Finca Santa Victoria	1	Enero	2023-01-23T00:00:00	2024-11-08T06:00:00	2	Temperatura media	9.1
85542	7	Sololá	701	Sololá	4	Finca Santa Victoria	1	Enero	2023-01-23T00:00:00	2024-11-08T06:00:00	4	Temperatura máxima	9.4
85543	7	Sololá	701	Sololá	4	Finca Santa Victoria	1	Enero	2023-01-23T00:00:00	2024-11-08T06:00:00	3	Temperatura mínima	8.8
85544	7	Sololá	701	Sololá	4	Finca Santa Victoria	1	Enero	2023-01-23T00:00:00	2024-11-08T06:00:00	5	Humedad	87
85545	7	Sololá	701	Sololá	4	Finca Santa Victoria	1	Enero	2023-01-23T00:00:00	2024-11-08T06:00:00	6	Velocidad del viento	1.6
85546	7	Sololá	701	Sololá	4	Finca Santa Victoria	1	Enero	2023-01-23T00:00:00	2024-11-08T06:00:00	7	Dirección del viento	1.61
85547	7	Sololá	701	Sololá	4	Finca Santa Victoria	1	Enero	2023-01-23T00:00:00	2024-11-08T06:00:00	1	Precipitación	0
85548	7	Sololá	701	Sololá	4	Finca Santa Victoria	1	Enero	2023-01-23T00:00:00	2024-11-08T06:00:00	8	Radiación solar	0
85549	7	Sololá	701	Sololá	4	Finca Santa Victoria	1	Enero	2023-01-23T00:00:00	2024-11-08T07:00:00	2	Temperatura media	10.3
85550	7	Sololá	701	Sololá	4	Finca Santa Victoria	1	Enero	2023-01-23T00:00:00	2024-11-08T07:00:00	4	Temperatura máxima	10.5
85551	7	Sololá	701	Sololá	4	Finca Santa Victoria	1	Enero	2023-01-23T00:00:00	2024-11-08T07:00:00	3	Temperatura mínima	9.1
85552	7	Sololá	701	Sololá	4	Finca Santa Victoria	1	Enero	2023-01-23T00:00:00	2024-11-08T07:00:00	5	Humedad	82
85553	7	Sololá	701	Sololá	4	Finca Santa Victoria	1	Enero	2023-01-23T00:00:00	2024-11-08T07:00:00	6	Velocidad del viento	3.2
85554	7	Sololá	701	Sololá	4	Finca Santa Victoria	1	Enero	2023-01-23T00:00:00	2024-11-08T07:00:00	7	Dirección del viento	3.22
85555	7	Sololá	701	Sololá	4	Finca Santa Victoria	1	Enero	2023-01-23T00:00:00	2024-11-08T07:00:00	1	Precipitación	0
85556	7	Sololá	701	Sololá	4	Finca Santa Victoria	1	Enero	2023-01-23T00:00:00	2024-11-08T07:00:00	8	Radiación solar	3
85557	7	Sololá	701	Sololá	4	Finca Santa Victoria	1	Enero	2023-01-23T00:00:00	2024-11-08T08:00:00	2	Temperatura media	11.8
85558	7	Sololá	701	Sololá	4	Finca Santa Victoria	1	Enero	2023-01-23T00:00:00	2024-11-08T08:00:00	4	Temperatura máxima	11.8
85559	7	Sololá	701	Sololá	4	Finca Santa Victoria	1	Enero	2023-01-23T00:00:00	2024-11-08T08:00:00	3	Temperatura mínima	10.3
85560	7	Sololá	701	Sololá	4	Finca Santa Victoria	1	Enero	2023-01-23T00:00:00	2024-11-08T08:00:00	5	Humedad	79
85561	7	Sololá	701	Sololá	4	Finca Santa Victoria	1	Enero	2023-01-23T00:00:00	2024-11-08T08:00:00	6	Velocidad del viento	3.2
85562	7	Sololá	701	Sololá	4	Finca Santa Victoria	1	Enero	2023-01-23T00:00:00	2024-11-08T08:00:00	7	Dirección del viento	3.22
85563	7	Sololá	701	Sololá	4	Finca Santa Victoria	1	Enero	2023-01-23T00:00:00	2024-11-08T08:00:00	1	Precipitación	0
85564	7	Sololá	701	Sololá	4	Finca Santa Victoria	1	Enero	2023-01-23T00:00:00	2024-11-08T08:00:00	8	Radiación solar	35
85565	7	Sololá	701	Sololá	4	Finca Santa Victoria	1	Enero	2023-01-23T00:00:00	2024-11-08T09:00:00	2	Temperatura media	14.2
85566	7	Sololá	701	Sololá	4	Finca Santa Victoria	1	Enero	2023-01-23T00:00:00	2024-11-08T09:00:00	4	Temperatura máxima	14.2
85567	7	Sololá	701	Sololá	4	Finca Santa Victoria	1	Enero	2023-01-23T00:00:00	2024-11-08T09:00:00	3	Temperatura mínima	11.8
85568	7	Sololá	701	Sololá	4	Finca Santa Victoria	1	Enero	2023-01-23T00:00:00	2024-11-08T09:00:00	5	Humedad	71
85569	7	Sololá	701	Sololá	4	Finca Santa Victoria	1	Enero	2023-01-23T00:00:00	2024-11-08T09:00:00	6	Velocidad del viento	3.2
85570	7	Sololá	701	Sololá	4	Finca Santa Victoria	1	Enero	2023-01-23T00:00:00	2024-11-08T09:00:00	7	Dirección del viento	3.22
85571	7	Sololá	701	Sololá	4	Finca Santa Victoria	1	Enero	2023-01-23T00:00:00	2024-11-08T09:00:00	1	Precipitación	0
85572	7	Sololá	701	Sololá	4	Finca Santa Victoria	1	Enero	2023-01-23T00:00:00	2024-11-08T09:00:00	8	Radiación solar	132
85573	7	Sololá	701	Sololá	4	Finca Santa Victoria	1	Enero	2023-01-23T00:00:00	2024-11-08T10:00:00	2	Temperatura media	16.6
85574	7	Sololá	701	Sololá	4	Finca Santa Victoria	1	Enero	2023-01-23T00:00:00	2024-11-08T10:00:00	4	Temperatura máxima	16.6
85575	7	Sololá	701	Sololá	4	Finca Santa Victoria	1	Enero	2023-01-23T00:00:00	2024-11-08T10:00:00	3	Temperatura mínima	14.1
85576	7	Sololá	701	Sololá	4	Finca Santa Victoria	1	Enero	2023-01-23T00:00:00	2024-11-08T10:00:00	5	Humedad	54
85577	7	Sololá	701	Sololá	4	Finca Santa Victoria	1	Enero	2023-01-23T00:00:00	2024-11-08T10:00:00	6	Velocidad del viento	4.8
85578	7	Sololá	701	Sololá	4	Finca Santa Victoria	1	Enero	2023-01-23T00:00:00	2024-11-08T10:00:00	7	Dirección del viento	4.83
85579	7	Sololá	701	Sololá	4	Finca Santa Victoria	1	Enero	2023-01-23T00:00:00	2024-11-08T10:00:00	1	Precipitación	0
85580	7	Sololá	701	Sololá	4	Finca Santa Victoria	1	Enero	2023-01-23T00:00:00	2024-11-08T10:00:00	8	Radiación solar	371
85581	7	Sololá	701	Sololá	4	Finca Santa Victoria	1	Enero	2023-01-23T00:00:00	2024-11-08T11:00:00	2	Temperatura media	18.3
85582	7	Sololá	701	Sololá	4	Finca Santa Victoria	1	Enero	2023-01-23T00:00:00	2024-11-08T11:00:00	4	Temperatura máxima	18.3
85583	7	Sololá	701	Sololá	4	Finca Santa Victoria	1	Enero	2023-01-23T00:00:00	2024-11-08T11:00:00	3	Temperatura mínima	16.6
85584	7	Sololá	701	Sololá	4	Finca Santa Victoria	1	Enero	2023-01-23T00:00:00	2024-11-08T11:00:00	5	Humedad	48
85585	7	Sololá	701	Sololá	4	Finca Santa Victoria	1	Enero	2023-01-23T00:00:00	2024-11-08T11:00:00	6	Velocidad del viento	4.8
85586	7	Sololá	701	Sololá	4	Finca Santa Victoria	1	Enero	2023-01-23T00:00:00	2024-11-08T11:00:00	7	Dirección del viento	4.83
85587	7	Sololá	701	Sololá	4	Finca Santa Victoria	1	Enero	2023-01-23T00:00:00	2024-11-08T11:00:00	1	Precipitación	0
85588	7	Sololá	701	Sololá	4	Finca Santa Victoria	1	Enero	2023-01-23T00:00:00	2024-11-08T11:00:00	8	Radiación solar	802
85589	7	Sololá	701	Sololá	4	Finca Santa Victoria	1	Enero	2023-01-23T00:00:00	2024-11-08T12:00:00	2	Temperatura media	19.5
85590	7	Sololá	701	Sololá	4	Finca Santa Victoria	1	Enero	2023-01-23T00:00:00	2024-11-08T12:00:00	4	Temperatura máxima	19.7
85591	7	Sololá	701	Sololá	4	Finca Santa Victoria	1	Enero	2023-01-23T00:00:00	2024-11-08T12:00:00	3	Temperatura mínima	18.3
85592	7	Sololá	701	Sololá	4	Finca Santa Victoria	1	Enero	2023-01-23T00:00:00	2024-11-08T12:00:00	5	Humedad	49
85593	7	Sololá	701	Sololá	4	Finca Santa Victoria	1	Enero	2023-01-23T00:00:00	2024-11-08T12:00:00	6	Velocidad del viento	3.2
85594	7	Sololá	701	Sololá	4	Finca Santa Victoria	1	Enero	2023-01-23T00:00:00	2024-11-08T12:00:00	7	Dirección del viento	3.22
85595	7	Sololá	701	Sololá	4	Finca Santa Victoria	1	Enero	2023-01-23T00:00:00	2024-11-08T12:00:00	1	Precipitación	0
85596	7	Sololá	701	Sololá	4	Finca Santa Victoria	1	Enero	2023-01-23T00:00:00	2024-11-08T12:00:00	8	Radiación solar	884
85597	7	Sololá	701	Sololá	4	Finca Santa Victoria	1	Enero	2023-01-23T00:00:00	2024-11-08T13:00:00	2	Temperatura media	20.6
85598	7	Sololá	701	Sololá	4	Finca Santa Victoria	1	Enero	2023-01-23T00:00:00	2024-11-08T13:00:00	4	Temperatura máxima	20.6
85599	7	Sololá	701	Sololá	4	Finca Santa Victoria	1	Enero	2023-01-23T00:00:00	2024-11-08T13:00:00	3	Temperatura mínima	19.4
85600	7	Sololá	701	Sololá	4	Finca Santa Victoria	1	Enero	2023-01-23T00:00:00	2024-11-08T13:00:00	5	Humedad	40
85601	7	Sololá	701	Sololá	4	Finca Santa Victoria	1	Enero	2023-01-23T00:00:00	2024-11-08T13:00:00	6	Velocidad del viento	4.8
85602	7	Sololá	701	Sololá	4	Finca Santa Victoria	1	Enero	2023-01-23T00:00:00	2024-11-08T13:00:00	7	Dirección del viento	4.83
85603	7	Sololá	701	Sololá	4	Finca Santa Victoria	1	Enero	2023-01-23T00:00:00	2024-11-08T13:00:00	1	Precipitación	0
85604	7	Sololá	701	Sololá	4	Finca Santa Victoria	1	Enero	2023-01-23T00:00:00	2024-11-08T13:00:00	8	Radiación solar	899
85605	7	Sololá	701	Sololá	4	Finca Santa Victoria	1	Enero	2023-01-23T00:00:00	2024-11-08T14:00:00	2	Temperatura media	20.3
85606	7	Sololá	701	Sololá	4	Finca Santa Victoria	1	Enero	2023-01-23T00:00:00	2024-11-08T14:00:00	4	Temperatura máxima	20.8
85607	7	Sololá	701	Sololá	4	Finca Santa Victoria	1	Enero	2023-01-23T00:00:00	2024-11-08T14:00:00	3	Temperatura mínima	20.2
85608	7	Sololá	701	Sololá	4	Finca Santa Victoria	1	Enero	2023-01-23T00:00:00	2024-11-08T14:00:00	5	Humedad	41
85609	7	Sololá	701	Sololá	4	Finca Santa Victoria	1	Enero	2023-01-23T00:00:00	2024-11-08T14:00:00	6	Velocidad del viento	4.8
85610	7	Sololá	701	Sololá	4	Finca Santa Victoria	1	Enero	2023-01-23T00:00:00	2024-11-08T14:00:00	7	Dirección del viento	4.83
85611	7	Sololá	701	Sololá	4	Finca Santa Victoria	1	Enero	2023-01-23T00:00:00	2024-11-08T14:00:00	1	Precipitación	0
85612	7	Sololá	701	Sololá	4	Finca Santa Victoria	1	Enero	2023-01-23T00:00:00	2024-11-08T14:00:00	8	Radiación solar	840
85613	7	Sololá	701	Sololá	4	Finca Santa Victoria	1	Enero	2023-01-23T00:00:00	2024-11-08T15:00:00	2	Temperatura media	20.1
85614	7	Sololá	701	Sololá	4	Finca Santa Victoria	1	Enero	2023-01-23T00:00:00	2024-11-08T15:00:00	4	Temperatura máxima	20.8
85615	7	Sololá	701	Sololá	4	Finca Santa Victoria	1	Enero	2023-01-23T00:00:00	2024-11-08T15:00:00	3	Temperatura mínima	20.1
85616	7	Sololá	701	Sololá	4	Finca Santa Victoria	1	Enero	2023-01-23T00:00:00	2024-11-08T15:00:00	5	Humedad	44
85617	7	Sololá	701	Sololá	4	Finca Santa Victoria	1	Enero	2023-01-23T00:00:00	2024-11-08T15:00:00	6	Velocidad del viento	4.8
85618	7	Sololá	701	Sololá	4	Finca Santa Victoria	1	Enero	2023-01-23T00:00:00	2024-11-08T15:00:00	7	Dirección del viento	4.83
85619	7	Sololá	701	Sololá	4	Finca Santa Victoria	1	Enero	2023-01-23T00:00:00	2024-11-08T15:00:00	1	Precipitación	0
85620	7	Sololá	701	Sololá	4	Finca Santa Victoria	1	Enero	2023-01-23T00:00:00	2024-11-08T15:00:00	8	Radiación solar	542
85621	7	Sololá	701	Sololá	4	Finca Santa Victoria	1	Enero	2023-01-23T00:00:00	2024-11-08T16:00:00	2	Temperatura media	19.3
85622	7	Sololá	701	Sololá	4	Finca Santa Victoria	1	Enero	2023-01-23T00:00:00	2024-11-08T16:00:00	4	Temperatura máxima	20.2
85623	7	Sololá	701	Sololá	4	Finca Santa Victoria	1	Enero	2023-01-23T00:00:00	2024-11-08T16:00:00	3	Temperatura mínima	19.1
85624	7	Sololá	701	Sololá	4	Finca Santa Victoria	1	Enero	2023-01-23T00:00:00	2024-11-08T16:00:00	5	Humedad	48
85625	7	Sololá	701	Sololá	4	Finca Santa Victoria	1	Enero	2023-01-23T00:00:00	2024-11-08T16:00:00	6	Velocidad del viento	4.8
85626	7	Sololá	701	Sololá	4	Finca Santa Victoria	1	Enero	2023-01-23T00:00:00	2024-11-08T16:00:00	7	Dirección del viento	4.83
85627	7	Sololá	701	Sololá	4	Finca Santa Victoria	1	Enero	2023-01-23T00:00:00	2024-11-08T16:00:00	1	Precipitación	0
85628	7	Sololá	701	Sololá	4	Finca Santa Victoria	1	Enero	2023-01-23T00:00:00	2024-11-08T16:00:00	8	Radiación solar	386
85629	7	Sololá	701	Sololá	4	Finca Santa Victoria	1	Enero	2023-01-23T00:00:00	2024-11-08T17:00:00	2	Temperatura media	18.6
85630	7	Sololá	701	Sololá	4	Finca Santa Victoria	1	Enero	2023-01-23T00:00:00	2024-11-08T17:00:00	4	Temperatura máxima	19.3
85631	7	Sololá	701	Sololá	4	Finca Santa Victoria	1	Enero	2023-01-23T00:00:00	2024-11-08T17:00:00	3	Temperatura mínima	17.9
85632	7	Sololá	701	Sololá	4	Finca Santa Victoria	1	Enero	2023-01-23T00:00:00	2024-11-08T17:00:00	5	Humedad	55
85633	7	Sololá	701	Sololá	4	Finca Santa Victoria	1	Enero	2023-01-23T00:00:00	2024-11-08T17:00:00	6	Velocidad del viento	3.2
85634	7	Sololá	701	Sololá	4	Finca Santa Victoria	1	Enero	2023-01-23T00:00:00	2024-11-08T17:00:00	7	Dirección del viento	3.22
85635	7	Sololá	701	Sololá	4	Finca Santa Victoria	1	Enero	2023-01-23T00:00:00	2024-11-08T17:00:00	1	Precipitación	0
85636	7	Sololá	701	Sololá	4	Finca Santa Victoria	1	Enero	2023-01-23T00:00:00	2024-11-08T17:00:00	8	Radiación solar	231
85637	7	Sololá	701	Sololá	4	Finca Santa Victoria	1	Enero	2023-01-23T00:00:00	2024-11-08T18:00:00	2	Temperatura media	14.5
85638	7	Sololá	701	Sololá	4	Finca Santa Victoria	1	Enero	2023-01-23T00:00:00	2024-11-08T18:00:00	4	Temperatura máxima	18.6
85639	7	Sololá	701	Sololá	4	Finca Santa Victoria	1	Enero	2023-01-23T00:00:00	2024-11-08T18:00:00	3	Temperatura mínima	14.5
85640	7	Sololá	701	Sololá	4	Finca Santa Victoria	1	Enero	2023-01-23T00:00:00	2024-11-08T18:00:00	5	Humedad	71
85641	7	Sololá	701	Sololá	4	Finca Santa Victoria	1	Enero	2023-01-23T00:00:00	2024-11-08T18:00:00	6	Velocidad del viento	3.2
85642	7	Sololá	701	Sololá	4	Finca Santa Victoria	1	Enero	2023-01-23T00:00:00	2024-11-08T18:00:00	7	Dirección del viento	3.22
85643	7	Sololá	701	Sololá	4	Finca Santa Victoria	1	Enero	2023-01-23T00:00:00	2024-11-08T18:00:00	1	Precipitación	0
85644	7	Sololá	701	Sololá	4	Finca Santa Victoria	1	Enero	2023-01-23T00:00:00	2024-11-08T18:00:00	8	Radiación solar	19
85645	7	Sololá	701	Sololá	4	Finca Santa Victoria	1	Enero	2023-01-23T00:00:00	2024-11-08T19:00:00	2	Temperatura media	13.2
85646	7	Sololá	701	Sololá	4	Finca Santa Victoria	1	Enero	2023-01-23T00:00:00	2024-11-08T19:00:00	4	Temperatura máxima	14.4
85647	7	Sololá	701	Sololá	4	Finca Santa Victoria	1	Enero	2023-01-23T00:00:00	2024-11-08T19:00:00	3	Temperatura mínima	13.2
85648	7	Sololá	701	Sololá	4	Finca Santa Victoria	1	Enero	2023-01-23T00:00:00	2024-11-08T19:00:00	5	Humedad	76
85649	7	Sololá	701	Sololá	4	Finca Santa Victoria	1	Enero	2023-01-23T00:00:00	2024-11-08T19:00:00	6	Velocidad del viento	3.2
85650	7	Sololá	701	Sololá	4	Finca Santa Victoria	1	Enero	2023-01-23T00:00:00	2024-11-08T19:00:00	7	Dirección del viento	3.22
85651	7	Sololá	701	Sololá	4	Finca Santa Victoria	1	Enero	2023-01-23T00:00:00	2024-11-08T19:00:00	1	Precipitación	0
85652	7	Sololá	701	Sololá	4	Finca Santa Victoria	1	Enero	2023-01-23T00:00:00	2024-11-08T19:00:00	8	Radiación solar	0
85653	7	Sololá	701	Sololá	4	Finca Santa Victoria	1	Enero	2023-01-23T00:00:00	2024-11-08T20:00:00	2	Temperatura media	12.2
85654	7	Sololá	701	Sololá	4	Finca Santa Victoria	1	Enero	2023-01-23T00:00:00	2024-11-08T20:00:00	4	Temperatura máxima	13.2
85655	7	Sololá	701	Sololá	4	Finca Santa Victoria	1	Enero	2023-01-23T00:00:00	2024-11-08T20:00:00	3	Temperatura mínima	12.2
85656	7	Sololá	701	Sololá	4	Finca Santa Victoria	1	Enero	2023-01-23T00:00:00	2024-11-08T20:00:00	5	Humedad	79
85657	7	Sololá	701	Sololá	4	Finca Santa Victoria	1	Enero	2023-01-23T00:00:00	2024-11-08T20:00:00	6	Velocidad del viento	1.6
85658	7	Sololá	701	Sololá	4	Finca Santa Victoria	1	Enero	2023-01-23T00:00:00	2024-11-08T20:00:00	7	Dirección del viento	1.61
85659	7	Sololá	701	Sololá	4	Finca Santa Victoria	1	Enero	2023-01-23T00:00:00	2024-11-08T20:00:00	1	Precipitación	0
85660	7	Sololá	701	Sololá	4	Finca Santa Victoria	1	Enero	2023-01-23T00:00:00	2024-11-08T20:00:00	8	Radiación solar	0
85661	7	Sololá	701	Sololá	4	Finca Santa Victoria	1	Enero	2023-01-23T00:00:00	2024-11-08T21:00:00	2	Temperatura media	11.5
85662	7	Sololá	701	Sololá	4	Finca Santa Victoria	1	Enero	2023-01-23T00:00:00	2024-11-08T21:00:00	4	Temperatura máxima	12.2
85663	7	Sololá	701	Sololá	4	Finca Santa Victoria	1	Enero	2023-01-23T00:00:00	2024-11-08T21:00:00	3	Temperatura mínima	11.5
85664	7	Sololá	701	Sololá	4	Finca Santa Victoria	1	Enero	2023-01-23T00:00:00	2024-11-08T21:00:00	5	Humedad	83
85665	7	Sololá	701	Sololá	4	Finca Santa Victoria	1	Enero	2023-01-23T00:00:00	2024-11-08T21:00:00	6	Velocidad del viento	1.6
85666	7	Sololá	701	Sololá	4	Finca Santa Victoria	1	Enero	2023-01-23T00:00:00	2024-11-08T21:00:00	7	Dirección del viento	1.61
85667	7	Sololá	701	Sololá	4	Finca Santa Victoria	1	Enero	2023-01-23T00:00:00	2024-11-08T21:00:00	1	Precipitación	0
85668	7	Sololá	701	Sololá	4	Finca Santa Victoria	1	Enero	2023-01-23T00:00:00	2024-11-08T21:00:00	8	Radiación solar	0
85669	7	Sololá	701	Sololá	4	Finca Santa Victoria	1	Enero	2023-01-23T00:00:00	2024-11-08T22:00:00	2	Temperatura media	10.8
85670	7	Sololá	701	Sololá	4	Finca Santa Victoria	1	Enero	2023-01-23T00:00:00	2024-11-08T22:00:00	4	Temperatura máxima	11.5
85671	7	Sololá	701	Sololá	4	Finca Santa Victoria	1	Enero	2023-01-23T00:00:00	2024-11-08T22:00:00	3	Temperatura mínima	10.8
85672	7	Sololá	701	Sololá	4	Finca Santa Victoria	1	Enero	2023-01-23T00:00:00	2024-11-08T22:00:00	5	Humedad	82
85673	7	Sololá	701	Sololá	4	Finca Santa Victoria	1	Enero	2023-01-23T00:00:00	2024-11-08T22:00:00	6	Velocidad del viento	1.6
85674	7	Sololá	701	Sololá	4	Finca Santa Victoria	1	Enero	2023-01-23T00:00:00	2024-11-08T22:00:00	7	Dirección del viento	1.61
85675	7	Sololá	701	Sololá	4	Finca Santa Victoria	1	Enero	2023-01-23T00:00:00	2024-11-08T22:00:00	1	Precipitación	0
85676	7	Sololá	701	Sololá	4	Finca Santa Victoria	1	Enero	2023-01-23T00:00:00	2024-11-08T22:00:00	8	Radiación solar	0
85677	7	Sololá	701	Sololá	4	Finca Santa Victoria	1	Enero	2023-01-23T00:00:00	2024-11-08T23:00:00	2	Temperatura media	10.4
85678	7	Sololá	701	Sololá	4	Finca Santa Victoria	1	Enero	2023-01-23T00:00:00	2024-11-08T23:00:00	4	Temperatura máxima	11
85679	7	Sololá	701	Sololá	4	Finca Santa Victoria	1	Enero	2023-01-23T00:00:00	2024-11-08T23:00:00	3	Temperatura mínima	10.4
85680	7	Sololá	701	Sololá	4	Finca Santa Victoria	1	Enero	2023-01-23T00:00:00	2024-11-08T23:00:00	5	Humedad	85
85681	7	Sololá	701	Sololá	4	Finca Santa Victoria	1	Enero	2023-01-23T00:00:00	2024-11-08T23:00:00	6	Velocidad del viento	1.6
85682	7	Sololá	701	Sololá	4	Finca Santa Victoria	1	Enero	2023-01-23T00:00:00	2024-11-08T23:00:00	7	Dirección del viento	1.61
85683	7	Sololá	701	Sololá	4	Finca Santa Victoria	1	Enero	2023-01-23T00:00:00	2024-11-08T23:00:00	1	Precipitación	0
85684	7	Sololá	701	Sololá	4	Finca Santa Victoria	1	Enero	2023-01-23T00:00:00	2024-11-08T23:00:00	8	Radiación solar	0
85685	7	Sololá	701	Sololá	4	Finca Santa Victoria	1	Enero	2023-01-24T00:00:00	2024-11-08T00:00:00	2	Temperatura media	10.5
85686	7	Sololá	701	Sololá	4	Finca Santa Victoria	1	Enero	2023-01-24T00:00:00	2024-11-08T00:00:00	4	Temperatura máxima	10.6
85687	7	Sololá	701	Sololá	4	Finca Santa Victoria	1	Enero	2023-01-24T00:00:00	2024-11-08T00:00:00	3	Temperatura mínima	10.4
85688	7	Sololá	701	Sololá	4	Finca Santa Victoria	1	Enero	2023-01-24T00:00:00	2024-11-08T00:00:00	5	Humedad	81
85689	7	Sololá	701	Sololá	4	Finca Santa Victoria	1	Enero	2023-01-24T00:00:00	2024-11-08T00:00:00	6	Velocidad del viento	3.2
85690	7	Sololá	701	Sololá	4	Finca Santa Victoria	1	Enero	2023-01-24T00:00:00	2024-11-08T00:00:00	7	Dirección del viento	3.22
85691	7	Sololá	701	Sololá	4	Finca Santa Victoria	1	Enero	2023-01-24T00:00:00	2024-11-08T00:00:00	1	Precipitación	0
85692	7	Sololá	701	Sololá	4	Finca Santa Victoria	1	Enero	2023-01-24T00:00:00	2024-11-08T00:00:00	8	Radiación solar	0
85693	7	Sololá	701	Sololá	4	Finca Santa Victoria	1	Enero	2023-01-24T00:00:00	2024-11-08T01:00:00	2	Temperatura media	10.3
85694	7	Sololá	701	Sololá	4	Finca Santa Victoria	1	Enero	2023-01-24T00:00:00	2024-11-08T01:00:00	4	Temperatura máxima	10.5
85695	7	Sololá	701	Sololá	4	Finca Santa Victoria	1	Enero	2023-01-24T00:00:00	2024-11-08T01:00:00	3	Temperatura mínima	10.3
85696	7	Sololá	701	Sololá	4	Finca Santa Victoria	1	Enero	2023-01-24T00:00:00	2024-11-08T01:00:00	5	Humedad	66
85697	7	Sololá	701	Sololá	4	Finca Santa Victoria	1	Enero	2023-01-24T00:00:00	2024-11-08T01:00:00	6	Velocidad del viento	3.2
85698	7	Sololá	701	Sololá	4	Finca Santa Victoria	1	Enero	2023-01-24T00:00:00	2024-11-08T01:00:00	7	Dirección del viento	3.22
85699	7	Sololá	701	Sololá	4	Finca Santa Victoria	1	Enero	2023-01-24T00:00:00	2024-11-08T01:00:00	1	Precipitación	0
85700	7	Sololá	701	Sololá	4	Finca Santa Victoria	1	Enero	2023-01-24T00:00:00	2024-11-08T01:00:00	8	Radiación solar	0
85701	7	Sololá	701	Sololá	4	Finca Santa Victoria	1	Enero	2023-01-24T00:00:00	2024-11-08T02:00:00	2	Temperatura media	9.9
85702	7	Sololá	701	Sololá	4	Finca Santa Victoria	1	Enero	2023-01-24T00:00:00	2024-11-08T02:00:00	4	Temperatura máxima	10.3
85703	7	Sololá	701	Sololá	4	Finca Santa Victoria	1	Enero	2023-01-24T00:00:00	2024-11-08T02:00:00	3	Temperatura mínima	9.8
85704	7	Sololá	701	Sololá	4	Finca Santa Victoria	1	Enero	2023-01-24T00:00:00	2024-11-08T02:00:00	5	Humedad	66
85705	7	Sololá	701	Sololá	4	Finca Santa Victoria	1	Enero	2023-01-24T00:00:00	2024-11-08T02:00:00	6	Velocidad del viento	1.6
85706	7	Sololá	701	Sololá	4	Finca Santa Victoria	1	Enero	2023-01-24T00:00:00	2024-11-08T02:00:00	7	Dirección del viento	1.61
85707	7	Sololá	701	Sololá	4	Finca Santa Victoria	1	Enero	2023-01-24T00:00:00	2024-11-08T02:00:00	1	Precipitación	0
85708	7	Sololá	701	Sololá	4	Finca Santa Victoria	1	Enero	2023-01-24T00:00:00	2024-11-08T02:00:00	8	Radiación solar	0
85709	7	Sololá	701	Sololá	4	Finca Santa Victoria	1	Enero	2023-01-24T00:00:00	2024-11-08T03:00:00	2	Temperatura media	8.7
85710	7	Sololá	701	Sololá	4	Finca Santa Victoria	1	Enero	2023-01-24T00:00:00	2024-11-08T03:00:00	4	Temperatura máxima	9.9
85711	7	Sololá	701	Sololá	4	Finca Santa Victoria	1	Enero	2023-01-24T00:00:00	2024-11-08T03:00:00	3	Temperatura mínima	8.7
85712	7	Sololá	701	Sololá	4	Finca Santa Victoria	1	Enero	2023-01-24T00:00:00	2024-11-08T03:00:00	5	Humedad	62
85713	7	Sololá	701	Sololá	4	Finca Santa Victoria	1	Enero	2023-01-24T00:00:00	2024-11-08T03:00:00	6	Velocidad del viento	1.6
85714	7	Sololá	701	Sololá	4	Finca Santa Victoria	1	Enero	2023-01-24T00:00:00	2024-11-08T03:00:00	7	Dirección del viento	1.61
85715	7	Sololá	701	Sololá	4	Finca Santa Victoria	1	Enero	2023-01-24T00:00:00	2024-11-08T03:00:00	1	Precipitación	0
85716	7	Sololá	701	Sololá	4	Finca Santa Victoria	1	Enero	2023-01-24T00:00:00	2024-11-08T03:00:00	8	Radiación solar	0
85717	7	Sololá	701	Sololá	4	Finca Santa Victoria	1	Enero	2023-01-24T00:00:00	2024-11-08T04:00:00	2	Temperatura media	9.7
85718	7	Sololá	701	Sololá	4	Finca Santa Victoria	1	Enero	2023-01-24T00:00:00	2024-11-08T04:00:00	4	Temperatura máxima	9.7
85719	7	Sololá	701	Sololá	4	Finca Santa Victoria	1	Enero	2023-01-24T00:00:00	2024-11-08T04:00:00	3	Temperatura mínima	8.7
85720	7	Sololá	701	Sololá	4	Finca Santa Victoria	1	Enero	2023-01-24T00:00:00	2024-11-08T04:00:00	5	Humedad	59
85721	7	Sololá	701	Sololá	4	Finca Santa Victoria	1	Enero	2023-01-24T00:00:00	2024-11-08T04:00:00	6	Velocidad del viento	1.6
85722	7	Sololá	701	Sololá	4	Finca Santa Victoria	1	Enero	2023-01-24T00:00:00	2024-11-08T04:00:00	7	Dirección del viento	1.61
85723	7	Sololá	701	Sololá	4	Finca Santa Victoria	1	Enero	2023-01-24T00:00:00	2024-11-08T04:00:00	1	Precipitación	0
85724	7	Sololá	701	Sololá	4	Finca Santa Victoria	1	Enero	2023-01-24T00:00:00	2024-11-08T04:00:00	8	Radiación solar	0
85725	7	Sololá	701	Sololá	4	Finca Santa Victoria	1	Enero	2023-01-24T00:00:00	2024-11-08T05:00:00	2	Temperatura media	9.7
85726	7	Sololá	701	Sololá	4	Finca Santa Victoria	1	Enero	2023-01-24T00:00:00	2024-11-08T05:00:00	4	Temperatura máxima	9.9
85727	7	Sololá	701	Sololá	4	Finca Santa Victoria	1	Enero	2023-01-24T00:00:00	2024-11-08T05:00:00	3	Temperatura mínima	9.6
85728	7	Sololá	701	Sololá	4	Finca Santa Victoria	1	Enero	2023-01-24T00:00:00	2024-11-08T05:00:00	5	Humedad	59
85729	7	Sololá	701	Sololá	4	Finca Santa Victoria	1	Enero	2023-01-24T00:00:00	2024-11-08T05:00:00	6	Velocidad del viento	1.6
85730	7	Sololá	701	Sololá	4	Finca Santa Victoria	1	Enero	2023-01-24T00:00:00	2024-11-08T05:00:00	7	Dirección del viento	1.61
85731	7	Sololá	701	Sololá	4	Finca Santa Victoria	1	Enero	2023-01-24T00:00:00	2024-11-08T05:00:00	1	Precipitación	0
85732	7	Sololá	701	Sololá	4	Finca Santa Victoria	1	Enero	2023-01-24T00:00:00	2024-11-08T05:00:00	8	Radiación solar	0
85733	7	Sololá	701	Sololá	4	Finca Santa Victoria	1	Enero	2023-01-24T00:00:00	2024-11-08T06:00:00	2	Temperatura media	10
85734	7	Sololá	701	Sololá	4	Finca Santa Victoria	1	Enero	2023-01-24T00:00:00	2024-11-08T06:00:00	4	Temperatura máxima	10.2
85735	7	Sololá	701	Sololá	4	Finca Santa Victoria	1	Enero	2023-01-24T00:00:00	2024-11-08T06:00:00	3	Temperatura mínima	9.7
85736	7	Sololá	701	Sololá	4	Finca Santa Victoria	1	Enero	2023-01-24T00:00:00	2024-11-08T06:00:00	5	Humedad	62
85737	7	Sololá	701	Sololá	4	Finca Santa Victoria	1	Enero	2023-01-24T00:00:00	2024-11-08T06:00:00	6	Velocidad del viento	1.6
85738	7	Sololá	701	Sololá	4	Finca Santa Victoria	1	Enero	2023-01-24T00:00:00	2024-11-08T06:00:00	7	Dirección del viento	1.61
85739	7	Sololá	701	Sololá	4	Finca Santa Victoria	1	Enero	2023-01-24T00:00:00	2024-11-08T06:00:00	1	Precipitación	0
85740	7	Sololá	701	Sololá	4	Finca Santa Victoria	1	Enero	2023-01-24T00:00:00	2024-11-08T06:00:00	8	Radiación solar	0
85741	7	Sololá	701	Sololá	4	Finca Santa Victoria	1	Enero	2023-01-24T00:00:00	2024-11-08T07:00:00	2	Temperatura media	9.9
85742	7	Sololá	701	Sololá	4	Finca Santa Victoria	1	Enero	2023-01-24T00:00:00	2024-11-08T07:00:00	4	Temperatura máxima	10.1
85743	7	Sololá	701	Sololá	4	Finca Santa Victoria	1	Enero	2023-01-24T00:00:00	2024-11-08T07:00:00	3	Temperatura mínima	9.7
85744	7	Sololá	701	Sololá	4	Finca Santa Victoria	1	Enero	2023-01-24T00:00:00	2024-11-08T07:00:00	5	Humedad	63
85745	7	Sololá	701	Sololá	4	Finca Santa Victoria	1	Enero	2023-01-24T00:00:00	2024-11-08T07:00:00	6	Velocidad del viento	1.6
85746	7	Sololá	701	Sololá	4	Finca Santa Victoria	1	Enero	2023-01-24T00:00:00	2024-11-08T07:00:00	7	Dirección del viento	1.61
85747	7	Sololá	701	Sololá	4	Finca Santa Victoria	1	Enero	2023-01-24T00:00:00	2024-11-08T07:00:00	1	Precipitación	0
85748	7	Sololá	701	Sololá	4	Finca Santa Victoria	1	Enero	2023-01-24T00:00:00	2024-11-08T07:00:00	8	Radiación solar	3
85749	7	Sololá	701	Sololá	4	Finca Santa Victoria	1	Enero	2023-01-24T00:00:00	2024-11-08T08:00:00	2	Temperatura media	12.4
85750	7	Sololá	701	Sololá	4	Finca Santa Victoria	1	Enero	2023-01-24T00:00:00	2024-11-08T08:00:00	4	Temperatura máxima	12.4
85751	7	Sololá	701	Sololá	4	Finca Santa Victoria	1	Enero	2023-01-24T00:00:00	2024-11-08T08:00:00	3	Temperatura mínima	9.9
85752	7	Sololá	701	Sololá	4	Finca Santa Victoria	1	Enero	2023-01-24T00:00:00	2024-11-08T08:00:00	5	Humedad	59
85753	7	Sololá	701	Sololá	4	Finca Santa Victoria	1	Enero	2023-01-24T00:00:00	2024-11-08T08:00:00	6	Velocidad del viento	1.6
85754	7	Sololá	701	Sololá	4	Finca Santa Victoria	1	Enero	2023-01-24T00:00:00	2024-11-08T08:00:00	7	Dirección del viento	1.61
85755	7	Sololá	701	Sololá	4	Finca Santa Victoria	1	Enero	2023-01-24T00:00:00	2024-11-08T08:00:00	1	Precipitación	0
85756	7	Sololá	701	Sololá	4	Finca Santa Victoria	1	Enero	2023-01-24T00:00:00	2024-11-08T08:00:00	8	Radiación solar	32
85757	7	Sololá	701	Sololá	4	Finca Santa Victoria	1	Enero	2023-01-24T00:00:00	2024-11-08T09:00:00	2	Temperatura media	16
85758	7	Sololá	701	Sololá	4	Finca Santa Victoria	1	Enero	2023-01-24T00:00:00	2024-11-08T09:00:00	4	Temperatura máxima	16
85759	7	Sololá	701	Sololá	4	Finca Santa Victoria	1	Enero	2023-01-24T00:00:00	2024-11-08T09:00:00	3	Temperatura mínima	12.4
85760	7	Sololá	701	Sololá	4	Finca Santa Victoria	1	Enero	2023-01-24T00:00:00	2024-11-08T09:00:00	5	Humedad	42
85761	7	Sololá	701	Sololá	4	Finca Santa Victoria	1	Enero	2023-01-24T00:00:00	2024-11-08T09:00:00	6	Velocidad del viento	1.6
85762	7	Sololá	701	Sololá	4	Finca Santa Victoria	1	Enero	2023-01-24T00:00:00	2024-11-08T09:00:00	7	Dirección del viento	1.61
85763	7	Sololá	701	Sololá	4	Finca Santa Victoria	1	Enero	2023-01-24T00:00:00	2024-11-08T09:00:00	1	Precipitación	0
85764	7	Sololá	701	Sololá	4	Finca Santa Victoria	1	Enero	2023-01-24T00:00:00	2024-11-08T09:00:00	8	Radiación solar	135
85765	7	Sololá	701	Sololá	4	Finca Santa Victoria	1	Enero	2023-01-24T00:00:00	2024-11-08T10:00:00	2	Temperatura media	17.6
85766	7	Sololá	701	Sololá	4	Finca Santa Victoria	1	Enero	2023-01-24T00:00:00	2024-11-08T10:00:00	4	Temperatura máxima	17.6
85767	7	Sololá	701	Sololá	4	Finca Santa Victoria	1	Enero	2023-01-24T00:00:00	2024-11-08T10:00:00	3	Temperatura mínima	15.9
85768	7	Sololá	701	Sololá	4	Finca Santa Victoria	1	Enero	2023-01-24T00:00:00	2024-11-08T10:00:00	5	Humedad	48
85769	7	Sololá	701	Sololá	4	Finca Santa Victoria	1	Enero	2023-01-24T00:00:00	2024-11-08T10:00:00	6	Velocidad del viento	3.2
85770	7	Sololá	701	Sololá	4	Finca Santa Victoria	1	Enero	2023-01-24T00:00:00	2024-11-08T10:00:00	7	Dirección del viento	3.22
85771	7	Sololá	701	Sololá	4	Finca Santa Victoria	1	Enero	2023-01-24T00:00:00	2024-11-08T10:00:00	1	Precipitación	0
85772	7	Sololá	701	Sololá	4	Finca Santa Victoria	1	Enero	2023-01-24T00:00:00	2024-11-08T10:00:00	8	Radiación solar	394
85773	7	Sololá	701	Sololá	4	Finca Santa Victoria	1	Enero	2023-01-24T00:00:00	2024-11-08T11:00:00	2	Temperatura media	19.7
85774	7	Sololá	701	Sololá	4	Finca Santa Victoria	1	Enero	2023-01-24T00:00:00	2024-11-08T11:00:00	4	Temperatura máxima	19.7
85775	7	Sololá	701	Sololá	4	Finca Santa Victoria	1	Enero	2023-01-24T00:00:00	2024-11-08T11:00:00	3	Temperatura mínima	17.6
85776	7	Sololá	701	Sololá	4	Finca Santa Victoria	1	Enero	2023-01-24T00:00:00	2024-11-08T11:00:00	5	Humedad	41
85777	7	Sololá	701	Sololá	4	Finca Santa Victoria	1	Enero	2023-01-24T00:00:00	2024-11-08T11:00:00	6	Velocidad del viento	3.2
85778	7	Sololá	701	Sololá	4	Finca Santa Victoria	1	Enero	2023-01-24T00:00:00	2024-11-08T11:00:00	7	Dirección del viento	3.22
85779	7	Sololá	701	Sololá	4	Finca Santa Victoria	1	Enero	2023-01-24T00:00:00	2024-11-08T11:00:00	1	Precipitación	0
85780	7	Sololá	701	Sololá	4	Finca Santa Victoria	1	Enero	2023-01-24T00:00:00	2024-11-08T11:00:00	8	Radiación solar	809
85781	7	Sololá	701	Sololá	4	Finca Santa Victoria	1	Enero	2023-01-24T00:00:00	2024-11-08T12:00:00	2	Temperatura media	19.3
85782	7	Sololá	701	Sololá	4	Finca Santa Victoria	1	Enero	2023-01-24T00:00:00	2024-11-08T12:00:00	4	Temperatura máxima	19.8
85783	7	Sololá	701	Sololá	4	Finca Santa Victoria	1	Enero	2023-01-24T00:00:00	2024-11-08T12:00:00	3	Temperatura mínima	19.2
85784	7	Sololá	701	Sololá	4	Finca Santa Victoria	1	Enero	2023-01-24T00:00:00	2024-11-08T12:00:00	5	Humedad	50
85785	7	Sololá	701	Sololá	4	Finca Santa Victoria	1	Enero	2023-01-24T00:00:00	2024-11-08T12:00:00	6	Velocidad del viento	3.2
85786	7	Sololá	701	Sololá	4	Finca Santa Victoria	1	Enero	2023-01-24T00:00:00	2024-11-08T12:00:00	7	Dirección del viento	3.22
85787	7	Sololá	701	Sololá	4	Finca Santa Victoria	1	Enero	2023-01-24T00:00:00	2024-11-08T12:00:00	1	Precipitación	0
85788	7	Sololá	701	Sololá	4	Finca Santa Victoria	1	Enero	2023-01-24T00:00:00	2024-11-08T12:00:00	8	Radiación solar	891
85789	7	Sololá	701	Sololá	4	Finca Santa Victoria	1	Enero	2023-01-24T00:00:00	2024-11-08T13:00:00	2	Temperatura media	19.6
85790	7	Sololá	701	Sololá	4	Finca Santa Victoria	1	Enero	2023-01-24T00:00:00	2024-11-08T13:00:00	4	Temperatura máxima	19.6
85791	7	Sololá	701	Sololá	4	Finca Santa Victoria	1	Enero	2023-01-24T00:00:00	2024-11-08T13:00:00	3	Temperatura mínima	18.9
85792	7	Sololá	701	Sololá	4	Finca Santa Victoria	1	Enero	2023-01-24T00:00:00	2024-11-08T13:00:00	5	Humedad	55
85793	7	Sololá	701	Sololá	4	Finca Santa Victoria	1	Enero	2023-01-24T00:00:00	2024-11-08T13:00:00	6	Velocidad del viento	4.8
85794	7	Sololá	701	Sololá	4	Finca Santa Victoria	1	Enero	2023-01-24T00:00:00	2024-11-08T13:00:00	7	Dirección del viento	4.83
85795	7	Sololá	701	Sololá	4	Finca Santa Victoria	1	Enero	2023-01-24T00:00:00	2024-11-08T13:00:00	1	Precipitación	0
85796	7	Sololá	701	Sololá	4	Finca Santa Victoria	1	Enero	2023-01-24T00:00:00	2024-11-08T13:00:00	8	Radiación solar	895
85797	7	Sololá	701	Sololá	4	Finca Santa Victoria	1	Enero	2023-01-24T00:00:00	2024-11-08T14:00:00	2	Temperatura media	19.5
85798	7	Sololá	701	Sololá	4	Finca Santa Victoria	1	Enero	2023-01-24T00:00:00	2024-11-08T14:00:00	4	Temperatura máxima	20.1
85799	7	Sololá	701	Sololá	4	Finca Santa Victoria	1	Enero	2023-01-24T00:00:00	2024-11-08T14:00:00	3	Temperatura mínima	18.7
85800	7	Sololá	701	Sololá	4	Finca Santa Victoria	1	Enero	2023-01-24T00:00:00	2024-11-08T14:00:00	5	Humedad	67
85801	7	Sololá	701	Sololá	4	Finca Santa Victoria	1	Enero	2023-01-24T00:00:00	2024-11-08T14:00:00	6	Velocidad del viento	4.8
85802	7	Sololá	701	Sololá	4	Finca Santa Victoria	1	Enero	2023-01-24T00:00:00	2024-11-08T14:00:00	7	Dirección del viento	4.83
85803	7	Sololá	701	Sololá	4	Finca Santa Victoria	1	Enero	2023-01-24T00:00:00	2024-11-08T14:00:00	1	Precipitación	0
85804	7	Sololá	701	Sololá	4	Finca Santa Victoria	1	Enero	2023-01-24T00:00:00	2024-11-08T14:00:00	8	Radiación solar	827
85805	7	Sololá	701	Sololá	4	Finca Santa Victoria	1	Enero	2023-01-24T00:00:00	2024-11-08T15:00:00	2	Temperatura media	17
85806	7	Sololá	701	Sololá	4	Finca Santa Victoria	1	Enero	2023-01-24T00:00:00	2024-11-08T15:00:00	4	Temperatura máxima	19.6
85807	7	Sololá	701	Sololá	4	Finca Santa Victoria	1	Enero	2023-01-24T00:00:00	2024-11-08T15:00:00	3	Temperatura mínima	16.6
85808	7	Sololá	701	Sololá	4	Finca Santa Victoria	1	Enero	2023-01-24T00:00:00	2024-11-08T15:00:00	5	Humedad	78
85809	7	Sololá	701	Sololá	4	Finca Santa Victoria	1	Enero	2023-01-24T00:00:00	2024-11-08T15:00:00	6	Velocidad del viento	6.4
85810	7	Sololá	701	Sololá	4	Finca Santa Victoria	1	Enero	2023-01-24T00:00:00	2024-11-08T15:00:00	7	Dirección del viento	6.44
85811	7	Sololá	701	Sololá	4	Finca Santa Victoria	1	Enero	2023-01-24T00:00:00	2024-11-08T15:00:00	1	Precipitación	0
85812	7	Sololá	701	Sololá	4	Finca Santa Victoria	1	Enero	2023-01-24T00:00:00	2024-11-08T15:00:00	8	Radiación solar	443
85813	7	Sololá	701	Sololá	4	Finca Santa Victoria	1	Enero	2023-01-24T00:00:00	2024-11-08T16:00:00	2	Temperatura media	15.1
85814	7	Sololá	701	Sololá	4	Finca Santa Victoria	1	Enero	2023-01-24T00:00:00	2024-11-08T16:00:00	4	Temperatura máxima	17
85815	7	Sololá	701	Sololá	4	Finca Santa Victoria	1	Enero	2023-01-24T00:00:00	2024-11-08T16:00:00	3	Temperatura mínima	15.1
85816	7	Sololá	701	Sololá	4	Finca Santa Victoria	1	Enero	2023-01-24T00:00:00	2024-11-08T16:00:00	5	Humedad	85
85817	7	Sololá	701	Sololá	4	Finca Santa Victoria	1	Enero	2023-01-24T00:00:00	2024-11-08T16:00:00	6	Velocidad del viento	4.8
85818	7	Sololá	701	Sololá	4	Finca Santa Victoria	1	Enero	2023-01-24T00:00:00	2024-11-08T16:00:00	7	Dirección del viento	4.83
85819	7	Sololá	701	Sololá	4	Finca Santa Victoria	1	Enero	2023-01-24T00:00:00	2024-11-08T16:00:00	1	Precipitación	0
85820	7	Sololá	701	Sololá	4	Finca Santa Victoria	1	Enero	2023-01-24T00:00:00	2024-11-08T16:00:00	8	Radiación solar	125
85821	7	Sololá	701	Sololá	4	Finca Santa Victoria	1	Enero	2023-01-24T00:00:00	2024-11-08T17:00:00	2	Temperatura media	14.2
85822	7	Sololá	701	Sololá	4	Finca Santa Victoria	1	Enero	2023-01-24T00:00:00	2024-11-08T17:00:00	4	Temperatura máxima	15.1
85823	7	Sololá	701	Sololá	4	Finca Santa Victoria	1	Enero	2023-01-24T00:00:00	2024-11-08T17:00:00	3	Temperatura mínima	14.2
85824	7	Sololá	701	Sololá	4	Finca Santa Victoria	1	Enero	2023-01-24T00:00:00	2024-11-08T17:00:00	5	Humedad	89
85825	7	Sololá	701	Sololá	4	Finca Santa Victoria	1	Enero	2023-01-24T00:00:00	2024-11-08T17:00:00	6	Velocidad del viento	3.2
85826	7	Sololá	701	Sololá	4	Finca Santa Victoria	1	Enero	2023-01-24T00:00:00	2024-11-08T17:00:00	7	Dirección del viento	3.22
85827	7	Sololá	701	Sololá	4	Finca Santa Victoria	1	Enero	2023-01-24T00:00:00	2024-11-08T17:00:00	1	Precipitación	0
85828	7	Sololá	701	Sololá	4	Finca Santa Victoria	1	Enero	2023-01-24T00:00:00	2024-11-08T17:00:00	8	Radiación solar	69
85829	7	Sololá	701	Sololá	4	Finca Santa Victoria	1	Enero	2023-01-24T00:00:00	2024-11-08T18:00:00	2	Temperatura media	13.4
85830	7	Sololá	701	Sololá	4	Finca Santa Victoria	1	Enero	2023-01-24T00:00:00	2024-11-08T18:00:00	4	Temperatura máxima	14.2
85831	7	Sololá	701	Sololá	4	Finca Santa Victoria	1	Enero	2023-01-24T00:00:00	2024-11-08T18:00:00	3	Temperatura mínima	13.4
85832	7	Sololá	701	Sololá	4	Finca Santa Victoria	1	Enero	2023-01-24T00:00:00	2024-11-08T18:00:00	5	Humedad	92
85833	7	Sololá	701	Sololá	4	Finca Santa Victoria	1	Enero	2023-01-24T00:00:00	2024-11-08T18:00:00	6	Velocidad del viento	1.6
85834	7	Sololá	701	Sololá	4	Finca Santa Victoria	1	Enero	2023-01-24T00:00:00	2024-11-08T18:00:00	7	Dirección del viento	1.61
85835	7	Sololá	701	Sololá	4	Finca Santa Victoria	1	Enero	2023-01-24T00:00:00	2024-11-08T18:00:00	1	Precipitación	0
85836	7	Sololá	701	Sololá	4	Finca Santa Victoria	1	Enero	2023-01-24T00:00:00	2024-11-08T18:00:00	8	Radiación solar	28
85837	7	Sololá	701	Sololá	4	Finca Santa Victoria	1	Enero	2023-01-24T00:00:00	2024-11-08T19:00:00	2	Temperatura media	11.9
85838	7	Sololá	701	Sololá	4	Finca Santa Victoria	1	Enero	2023-01-24T00:00:00	2024-11-08T19:00:00	4	Temperatura máxima	13.4
85839	7	Sololá	701	Sololá	4	Finca Santa Victoria	1	Enero	2023-01-24T00:00:00	2024-11-08T19:00:00	3	Temperatura mínima	11.9
85840	7	Sololá	701	Sololá	4	Finca Santa Victoria	1	Enero	2023-01-24T00:00:00	2024-11-08T19:00:00	5	Humedad	93
85841	7	Sololá	701	Sololá	4	Finca Santa Victoria	1	Enero	2023-01-24T00:00:00	2024-11-08T19:00:00	6	Velocidad del viento	0
85842	7	Sololá	701	Sololá	4	Finca Santa Victoria	1	Enero	2023-01-24T00:00:00	2024-11-08T19:00:00	7	Dirección del viento	0
85843	7	Sololá	701	Sololá	4	Finca Santa Victoria	1	Enero	2023-01-24T00:00:00	2024-11-08T19:00:00	1	Precipitación	0
85844	7	Sololá	701	Sololá	4	Finca Santa Victoria	1	Enero	2023-01-24T00:00:00	2024-11-08T19:00:00	8	Radiación solar	0
85845	7	Sololá	701	Sololá	4	Finca Santa Victoria	1	Enero	2023-01-24T00:00:00	2024-11-08T20:00:00	2	Temperatura media	11.3
85846	7	Sololá	701	Sololá	4	Finca Santa Victoria	1	Enero	2023-01-24T00:00:00	2024-11-08T20:00:00	4	Temperatura máxima	11.9
85847	7	Sololá	701	Sololá	4	Finca Santa Victoria	1	Enero	2023-01-24T00:00:00	2024-11-08T20:00:00	3	Temperatura mínima	11.3
85848	7	Sololá	701	Sololá	4	Finca Santa Victoria	1	Enero	2023-01-24T00:00:00	2024-11-08T20:00:00	5	Humedad	93
85849	7	Sololá	701	Sololá	4	Finca Santa Victoria	1	Enero	2023-01-24T00:00:00	2024-11-08T20:00:00	6	Velocidad del viento	0
85850	7	Sololá	701	Sololá	4	Finca Santa Victoria	1	Enero	2023-01-24T00:00:00	2024-11-08T20:00:00	7	Dirección del viento	0
85851	7	Sololá	701	Sololá	4	Finca Santa Victoria	1	Enero	2023-01-24T00:00:00	2024-11-08T20:00:00	1	Precipitación	0
85852	7	Sololá	701	Sololá	4	Finca Santa Victoria	1	Enero	2023-01-24T00:00:00	2024-11-08T20:00:00	8	Radiación solar	0
85853	7	Sololá	701	Sololá	4	Finca Santa Victoria	1	Enero	2023-01-24T00:00:00	2024-11-08T21:00:00	2	Temperatura media	10.9
85854	7	Sololá	701	Sololá	4	Finca Santa Victoria	1	Enero	2023-01-24T00:00:00	2024-11-08T21:00:00	4	Temperatura máxima	11.4
85855	7	Sololá	701	Sololá	4	Finca Santa Victoria	1	Enero	2023-01-24T00:00:00	2024-11-08T21:00:00	3	Temperatura mínima	10.8
85856	7	Sololá	701	Sololá	4	Finca Santa Victoria	1	Enero	2023-01-24T00:00:00	2024-11-08T21:00:00	5	Humedad	92
85857	7	Sololá	701	Sololá	4	Finca Santa Victoria	1	Enero	2023-01-24T00:00:00	2024-11-08T21:00:00	6	Velocidad del viento	1.6
85858	7	Sololá	701	Sololá	4	Finca Santa Victoria	1	Enero	2023-01-24T00:00:00	2024-11-08T21:00:00	7	Dirección del viento	1.61
85859	7	Sololá	701	Sololá	4	Finca Santa Victoria	1	Enero	2023-01-24T00:00:00	2024-11-08T21:00:00	1	Precipitación	0
85860	7	Sololá	701	Sololá	4	Finca Santa Victoria	1	Enero	2023-01-24T00:00:00	2024-11-08T21:00:00	8	Radiación solar	0
85861	7	Sololá	701	Sololá	4	Finca Santa Victoria	1	Enero	2023-01-24T00:00:00	2024-11-08T22:00:00	2	Temperatura media	11.1
85862	7	Sololá	701	Sololá	4	Finca Santa Victoria	1	Enero	2023-01-24T00:00:00	2024-11-08T22:00:00	4	Temperatura máxima	11.1
85863	7	Sololá	701	Sololá	4	Finca Santa Victoria	1	Enero	2023-01-24T00:00:00	2024-11-08T22:00:00	3	Temperatura mínima	10.8
85864	7	Sololá	701	Sololá	4	Finca Santa Victoria	1	Enero	2023-01-24T00:00:00	2024-11-08T22:00:00	5	Humedad	87
85865	7	Sololá	701	Sololá	4	Finca Santa Victoria	1	Enero	2023-01-24T00:00:00	2024-11-08T22:00:00	6	Velocidad del viento	1.6
85866	7	Sololá	701	Sololá	4	Finca Santa Victoria	1	Enero	2023-01-24T00:00:00	2024-11-08T22:00:00	7	Dirección del viento	1.61
85867	7	Sololá	701	Sololá	4	Finca Santa Victoria	1	Enero	2023-01-24T00:00:00	2024-11-08T22:00:00	1	Precipitación	0
85868	7	Sololá	701	Sololá	4	Finca Santa Victoria	1	Enero	2023-01-24T00:00:00	2024-11-08T22:00:00	8	Radiación solar	0
85869	7	Sololá	701	Sololá	4	Finca Santa Victoria	1	Enero	2023-01-24T00:00:00	2024-11-08T23:00:00	2	Temperatura media	11.1
85870	7	Sololá	701	Sololá	4	Finca Santa Victoria	1	Enero	2023-01-24T00:00:00	2024-11-08T23:00:00	4	Temperatura máxima	11.2
85871	7	Sololá	701	Sololá	4	Finca Santa Victoria	1	Enero	2023-01-24T00:00:00	2024-11-08T23:00:00	3	Temperatura mínima	11.1
85872	7	Sololá	701	Sololá	4	Finca Santa Victoria	1	Enero	2023-01-24T00:00:00	2024-11-08T23:00:00	5	Humedad	88
85873	7	Sololá	701	Sololá	4	Finca Santa Victoria	1	Enero	2023-01-24T00:00:00	2024-11-08T23:00:00	6	Velocidad del viento	0
85874	7	Sololá	701	Sololá	4	Finca Santa Victoria	1	Enero	2023-01-24T00:00:00	2024-11-08T23:00:00	7	Dirección del viento	0
85875	7	Sololá	701	Sololá	4	Finca Santa Victoria	1	Enero	2023-01-24T00:00:00	2024-11-08T23:00:00	1	Precipitación	0
85876	7	Sololá	701	Sololá	4	Finca Santa Victoria	1	Enero	2023-01-24T00:00:00	2024-11-08T23:00:00	8	Radiación solar	0
85877	7	Sololá	701	Sololá	4	Finca Santa Victoria	1	Enero	2023-01-25T00:00:00	2024-11-08T00:00:00	2	Temperatura media	10.6
85878	7	Sololá	701	Sololá	4	Finca Santa Victoria	1	Enero	2023-01-25T00:00:00	2024-11-08T00:00:00	4	Temperatura máxima	11.1
85879	7	Sololá	701	Sololá	4	Finca Santa Victoria	1	Enero	2023-01-25T00:00:00	2024-11-08T00:00:00	3	Temperatura mínima	10.6
85880	7	Sololá	701	Sololá	4	Finca Santa Victoria	1	Enero	2023-01-25T00:00:00	2024-11-08T00:00:00	5	Humedad	90
85881	7	Sololá	701	Sololá	4	Finca Santa Victoria	1	Enero	2023-01-25T00:00:00	2024-11-08T00:00:00	6	Velocidad del viento	0
85882	7	Sololá	701	Sololá	4	Finca Santa Victoria	1	Enero	2023-01-25T00:00:00	2024-11-08T00:00:00	7	Dirección del viento	0
85883	7	Sololá	701	Sololá	4	Finca Santa Victoria	1	Enero	2023-01-25T00:00:00	2024-11-08T00:00:00	1	Precipitación	0
85884	7	Sololá	701	Sololá	4	Finca Santa Victoria	1	Enero	2023-01-25T00:00:00	2024-11-08T00:00:00	8	Radiación solar	0
85885	7	Sololá	701	Sololá	4	Finca Santa Victoria	1	Enero	2023-01-25T00:00:00	2024-11-08T01:00:00	2	Temperatura media	10.3
85886	7	Sololá	701	Sololá	4	Finca Santa Victoria	1	Enero	2023-01-25T00:00:00	2024-11-08T01:00:00	4	Temperatura máxima	10.7
85887	7	Sololá	701	Sololá	4	Finca Santa Victoria	1	Enero	2023-01-25T00:00:00	2024-11-08T01:00:00	3	Temperatura mínima	10.3
85888	7	Sololá	701	Sololá	4	Finca Santa Victoria	1	Enero	2023-01-25T00:00:00	2024-11-08T01:00:00	5	Humedad	93
85889	7	Sololá	701	Sololá	4	Finca Santa Victoria	1	Enero	2023-01-25T00:00:00	2024-11-08T01:00:00	6	Velocidad del viento	0
85890	7	Sololá	701	Sololá	4	Finca Santa Victoria	1	Enero	2023-01-25T00:00:00	2024-11-08T01:00:00	7	Dirección del viento	0
85891	7	Sololá	701	Sololá	4	Finca Santa Victoria	1	Enero	2023-01-25T00:00:00	2024-11-08T01:00:00	1	Precipitación	0
85892	7	Sololá	701	Sololá	4	Finca Santa Victoria	1	Enero	2023-01-25T00:00:00	2024-11-08T01:00:00	8	Radiación solar	0
85893	7	Sololá	701	Sololá	4	Finca Santa Victoria	1	Enero	2023-01-25T00:00:00	2024-11-08T02:00:00	2	Temperatura media	10.1
85894	7	Sololá	701	Sololá	4	Finca Santa Victoria	1	Enero	2023-01-25T00:00:00	2024-11-08T02:00:00	4	Temperatura máxima	10.4
85895	7	Sololá	701	Sololá	4	Finca Santa Victoria	1	Enero	2023-01-25T00:00:00	2024-11-08T02:00:00	3	Temperatura mínima	10.1
85896	7	Sololá	701	Sololá	4	Finca Santa Victoria	1	Enero	2023-01-25T00:00:00	2024-11-08T02:00:00	5	Humedad	92
85897	7	Sololá	701	Sololá	4	Finca Santa Victoria	1	Enero	2023-01-25T00:00:00	2024-11-08T02:00:00	6	Velocidad del viento	1.6
85898	7	Sololá	701	Sololá	4	Finca Santa Victoria	1	Enero	2023-01-25T00:00:00	2024-11-08T02:00:00	7	Dirección del viento	1.61
85899	7	Sololá	701	Sololá	4	Finca Santa Victoria	1	Enero	2023-01-25T00:00:00	2024-11-08T02:00:00	1	Precipitación	0
85900	7	Sololá	701	Sololá	4	Finca Santa Victoria	1	Enero	2023-01-25T00:00:00	2024-11-08T02:00:00	8	Radiación solar	0
85901	7	Sololá	701	Sololá	4	Finca Santa Victoria	1	Enero	2023-01-25T00:00:00	2024-11-08T03:00:00	2	Temperatura media	10.1
85902	7	Sololá	701	Sololá	4	Finca Santa Victoria	1	Enero	2023-01-25T00:00:00	2024-11-08T03:00:00	4	Temperatura máxima	10.3
85903	7	Sololá	701	Sololá	4	Finca Santa Victoria	1	Enero	2023-01-25T00:00:00	2024-11-08T03:00:00	3	Temperatura mínima	10.1
85904	7	Sololá	701	Sololá	4	Finca Santa Victoria	1	Enero	2023-01-25T00:00:00	2024-11-08T03:00:00	5	Humedad	93
85905	7	Sololá	701	Sololá	4	Finca Santa Victoria	1	Enero	2023-01-25T00:00:00	2024-11-08T03:00:00	6	Velocidad del viento	0
85906	7	Sololá	701	Sololá	4	Finca Santa Victoria	1	Enero	2023-01-25T00:00:00	2024-11-08T03:00:00	7	Dirección del viento	0
85907	7	Sololá	701	Sololá	4	Finca Santa Victoria	1	Enero	2023-01-25T00:00:00	2024-11-08T03:00:00	1	Precipitación	0
85908	7	Sololá	701	Sololá	4	Finca Santa Victoria	1	Enero	2023-01-25T00:00:00	2024-11-08T03:00:00	8	Radiación solar	0
85909	7	Sololá	701	Sololá	4	Finca Santa Victoria	1	Enero	2023-01-25T00:00:00	2024-11-08T04:00:00	2	Temperatura media	10.2
85910	7	Sololá	701	Sololá	4	Finca Santa Victoria	1	Enero	2023-01-25T00:00:00	2024-11-08T04:00:00	4	Temperatura máxima	10.2
85911	7	Sololá	701	Sololá	4	Finca Santa Victoria	1	Enero	2023-01-25T00:00:00	2024-11-08T04:00:00	3	Temperatura mínima	10.1
85912	7	Sololá	701	Sololá	4	Finca Santa Victoria	1	Enero	2023-01-25T00:00:00	2024-11-08T04:00:00	5	Humedad	91
85913	7	Sololá	701	Sololá	4	Finca Santa Victoria	1	Enero	2023-01-25T00:00:00	2024-11-08T04:00:00	6	Velocidad del viento	0
85914	7	Sololá	701	Sololá	4	Finca Santa Victoria	1	Enero	2023-01-25T00:00:00	2024-11-08T04:00:00	7	Dirección del viento	0
85915	7	Sololá	701	Sololá	4	Finca Santa Victoria	1	Enero	2023-01-25T00:00:00	2024-11-08T04:00:00	1	Precipitación	0
85916	7	Sololá	701	Sololá	4	Finca Santa Victoria	1	Enero	2023-01-25T00:00:00	2024-11-08T04:00:00	8	Radiación solar	0
85917	7	Sololá	701	Sololá	4	Finca Santa Victoria	1	Enero	2023-01-25T00:00:00	2024-11-08T05:00:00	2	Temperatura media	10.6
85918	7	Sololá	701	Sololá	4	Finca Santa Victoria	1	Enero	2023-01-25T00:00:00	2024-11-08T05:00:00	4	Temperatura máxima	10.6
85919	7	Sololá	701	Sololá	4	Finca Santa Victoria	1	Enero	2023-01-25T00:00:00	2024-11-08T05:00:00	3	Temperatura mínima	10.2
85920	7	Sololá	701	Sololá	4	Finca Santa Victoria	1	Enero	2023-01-25T00:00:00	2024-11-08T05:00:00	5	Humedad	89
85921	7	Sololá	701	Sololá	4	Finca Santa Victoria	1	Enero	2023-01-25T00:00:00	2024-11-08T05:00:00	6	Velocidad del viento	0
85922	7	Sololá	701	Sololá	4	Finca Santa Victoria	1	Enero	2023-01-25T00:00:00	2024-11-08T05:00:00	7	Dirección del viento	0
85923	7	Sololá	701	Sololá	4	Finca Santa Victoria	1	Enero	2023-01-25T00:00:00	2024-11-08T05:00:00	1	Precipitación	0
85924	7	Sololá	701	Sololá	4	Finca Santa Victoria	1	Enero	2023-01-25T00:00:00	2024-11-08T05:00:00	8	Radiación solar	0
85925	7	Sololá	701	Sololá	4	Finca Santa Victoria	1	Enero	2023-01-25T00:00:00	2024-11-08T06:00:00	2	Temperatura media	10.2
85926	7	Sololá	701	Sololá	4	Finca Santa Victoria	1	Enero	2023-01-25T00:00:00	2024-11-08T06:00:00	4	Temperatura máxima	10.6
85927	7	Sololá	701	Sololá	4	Finca Santa Victoria	1	Enero	2023-01-25T00:00:00	2024-11-08T06:00:00	3	Temperatura mínima	10.1
85928	7	Sololá	701	Sololá	4	Finca Santa Victoria	1	Enero	2023-01-25T00:00:00	2024-11-08T06:00:00	5	Humedad	87
85929	7	Sololá	701	Sololá	4	Finca Santa Victoria	1	Enero	2023-01-25T00:00:00	2024-11-08T06:00:00	6	Velocidad del viento	0
85930	7	Sololá	701	Sololá	4	Finca Santa Victoria	1	Enero	2023-01-25T00:00:00	2024-11-08T06:00:00	7	Dirección del viento	0
85931	7	Sololá	701	Sololá	4	Finca Santa Victoria	1	Enero	2023-01-25T00:00:00	2024-11-08T06:00:00	1	Precipitación	0
85932	7	Sololá	701	Sololá	4	Finca Santa Victoria	1	Enero	2023-01-25T00:00:00	2024-11-08T06:00:00	8	Radiación solar	0
85933	7	Sololá	701	Sololá	4	Finca Santa Victoria	1	Enero	2023-01-25T00:00:00	2024-11-08T07:00:00	2	Temperatura media	10.2
85934	7	Sololá	701	Sololá	4	Finca Santa Victoria	1	Enero	2023-01-25T00:00:00	2024-11-08T07:00:00	4	Temperatura máxima	10.3
85935	7	Sololá	701	Sololá	4	Finca Santa Victoria	1	Enero	2023-01-25T00:00:00	2024-11-08T07:00:00	3	Temperatura mínima	10.2
85936	7	Sololá	701	Sololá	4	Finca Santa Victoria	1	Enero	2023-01-25T00:00:00	2024-11-08T07:00:00	5	Humedad	89
85937	7	Sololá	701	Sololá	4	Finca Santa Victoria	1	Enero	2023-01-25T00:00:00	2024-11-08T07:00:00	6	Velocidad del viento	1.6
85938	7	Sololá	701	Sololá	4	Finca Santa Victoria	1	Enero	2023-01-25T00:00:00	2024-11-08T07:00:00	7	Dirección del viento	1.61
85939	7	Sololá	701	Sololá	4	Finca Santa Victoria	1	Enero	2023-01-25T00:00:00	2024-11-08T07:00:00	1	Precipitación	0
85940	7	Sololá	701	Sololá	4	Finca Santa Victoria	1	Enero	2023-01-25T00:00:00	2024-11-08T07:00:00	8	Radiación solar	3
85941	7	Sololá	701	Sololá	4	Finca Santa Victoria	1	Enero	2023-01-25T00:00:00	2024-11-08T08:00:00	2	Temperatura media	11.7
85942	7	Sololá	701	Sololá	4	Finca Santa Victoria	1	Enero	2023-01-25T00:00:00	2024-11-08T08:00:00	4	Temperatura máxima	11.7
85943	7	Sololá	701	Sololá	4	Finca Santa Victoria	1	Enero	2023-01-25T00:00:00	2024-11-08T08:00:00	3	Temperatura mínima	10.2
85944	7	Sololá	701	Sololá	4	Finca Santa Victoria	1	Enero	2023-01-25T00:00:00	2024-11-08T08:00:00	5	Humedad	85
85945	7	Sololá	701	Sololá	4	Finca Santa Victoria	1	Enero	2023-01-25T00:00:00	2024-11-08T08:00:00	6	Velocidad del viento	1.6
85946	7	Sololá	701	Sololá	4	Finca Santa Victoria	1	Enero	2023-01-25T00:00:00	2024-11-08T08:00:00	7	Dirección del viento	1.61
85947	7	Sololá	701	Sololá	4	Finca Santa Victoria	1	Enero	2023-01-25T00:00:00	2024-11-08T08:00:00	1	Precipitación	0
85948	7	Sololá	701	Sololá	4	Finca Santa Victoria	1	Enero	2023-01-25T00:00:00	2024-11-08T08:00:00	8	Radiación solar	30
85949	7	Sololá	701	Sololá	4	Finca Santa Victoria	1	Enero	2023-01-25T00:00:00	2024-11-08T09:00:00	2	Temperatura media	15
85950	7	Sololá	701	Sololá	4	Finca Santa Victoria	1	Enero	2023-01-25T00:00:00	2024-11-08T09:00:00	4	Temperatura máxima	15
85951	7	Sololá	701	Sololá	4	Finca Santa Victoria	1	Enero	2023-01-25T00:00:00	2024-11-08T09:00:00	3	Temperatura mínima	11.7
85952	7	Sololá	701	Sololá	4	Finca Santa Victoria	1	Enero	2023-01-25T00:00:00	2024-11-08T09:00:00	5	Humedad	69
85953	7	Sololá	701	Sololá	4	Finca Santa Victoria	1	Enero	2023-01-25T00:00:00	2024-11-08T09:00:00	6	Velocidad del viento	1.6
85954	7	Sololá	701	Sololá	4	Finca Santa Victoria	1	Enero	2023-01-25T00:00:00	2024-11-08T09:00:00	7	Dirección del viento	1.61
85955	7	Sololá	701	Sololá	4	Finca Santa Victoria	1	Enero	2023-01-25T00:00:00	2024-11-08T09:00:00	1	Precipitación	0
85956	7	Sololá	701	Sololá	4	Finca Santa Victoria	1	Enero	2023-01-25T00:00:00	2024-11-08T09:00:00	8	Radiación solar	121
85957	7	Sololá	701	Sololá	4	Finca Santa Victoria	1	Enero	2023-01-25T00:00:00	2024-11-08T10:00:00	2	Temperatura media	16.9
85958	7	Sololá	701	Sololá	4	Finca Santa Victoria	1	Enero	2023-01-25T00:00:00	2024-11-08T10:00:00	4	Temperatura máxima	16.9
85959	7	Sololá	701	Sololá	4	Finca Santa Victoria	1	Enero	2023-01-25T00:00:00	2024-11-08T10:00:00	3	Temperatura mínima	14.9
85960	7	Sololá	701	Sololá	4	Finca Santa Victoria	1	Enero	2023-01-25T00:00:00	2024-11-08T10:00:00	5	Humedad	64
85961	7	Sololá	701	Sololá	4	Finca Santa Victoria	1	Enero	2023-01-25T00:00:00	2024-11-08T10:00:00	6	Velocidad del viento	1.6
85962	7	Sololá	701	Sololá	4	Finca Santa Victoria	1	Enero	2023-01-25T00:00:00	2024-11-08T10:00:00	7	Dirección del viento	1.61
85963	7	Sololá	701	Sololá	4	Finca Santa Victoria	1	Enero	2023-01-25T00:00:00	2024-11-08T10:00:00	1	Precipitación	0
85964	7	Sololá	701	Sololá	4	Finca Santa Victoria	1	Enero	2023-01-25T00:00:00	2024-11-08T10:00:00	8	Radiación solar	348
85965	7	Sololá	701	Sololá	4	Finca Santa Victoria	1	Enero	2023-01-25T00:00:00	2024-11-08T11:00:00	2	Temperatura media	18.2
85966	7	Sololá	701	Sololá	4	Finca Santa Victoria	1	Enero	2023-01-25T00:00:00	2024-11-08T11:00:00	4	Temperatura máxima	18.2
85967	7	Sololá	701	Sololá	4	Finca Santa Victoria	1	Enero	2023-01-25T00:00:00	2024-11-08T11:00:00	3	Temperatura mínima	17
85968	7	Sololá	701	Sololá	4	Finca Santa Victoria	1	Enero	2023-01-25T00:00:00	2024-11-08T11:00:00	5	Humedad	56
85969	7	Sololá	701	Sololá	4	Finca Santa Victoria	1	Enero	2023-01-25T00:00:00	2024-11-08T11:00:00	6	Velocidad del viento	3.2
85970	7	Sololá	701	Sololá	4	Finca Santa Victoria	1	Enero	2023-01-25T00:00:00	2024-11-08T11:00:00	7	Dirección del viento	3.22
85971	7	Sololá	701	Sololá	4	Finca Santa Victoria	1	Enero	2023-01-25T00:00:00	2024-11-08T11:00:00	1	Precipitación	0
85972	7	Sololá	701	Sololá	4	Finca Santa Victoria	1	Enero	2023-01-25T00:00:00	2024-11-08T11:00:00	8	Radiación solar	807
85973	7	Sololá	701	Sololá	4	Finca Santa Victoria	1	Enero	2023-01-25T00:00:00	2024-11-08T12:00:00	2	Temperatura media	19.1
85974	7	Sololá	701	Sololá	4	Finca Santa Victoria	1	Enero	2023-01-25T00:00:00	2024-11-08T12:00:00	4	Temperatura máxima	19.2
85975	7	Sololá	701	Sololá	4	Finca Santa Victoria	1	Enero	2023-01-25T00:00:00	2024-11-08T12:00:00	3	Temperatura mínima	18.2
85976	7	Sololá	701	Sololá	4	Finca Santa Victoria	1	Enero	2023-01-25T00:00:00	2024-11-08T12:00:00	5	Humedad	53
85977	7	Sololá	701	Sololá	4	Finca Santa Victoria	1	Enero	2023-01-25T00:00:00	2024-11-08T12:00:00	6	Velocidad del viento	4.8
85978	7	Sololá	701	Sololá	4	Finca Santa Victoria	1	Enero	2023-01-25T00:00:00	2024-11-08T12:00:00	7	Dirección del viento	4.83
85979	7	Sololá	701	Sololá	4	Finca Santa Victoria	1	Enero	2023-01-25T00:00:00	2024-11-08T12:00:00	1	Precipitación	0
85980	7	Sololá	701	Sololá	4	Finca Santa Victoria	1	Enero	2023-01-25T00:00:00	2024-11-08T12:00:00	8	Radiación solar	894
85981	7	Sololá	701	Sololá	4	Finca Santa Victoria	1	Enero	2023-01-25T00:00:00	2024-11-08T13:00:00	2	Temperatura media	18.1
85982	7	Sololá	701	Sololá	4	Finca Santa Victoria	1	Enero	2023-01-25T00:00:00	2024-11-08T13:00:00	4	Temperatura máxima	19.5
85983	7	Sololá	701	Sololá	4	Finca Santa Victoria	1	Enero	2023-01-25T00:00:00	2024-11-08T13:00:00	3	Temperatura mínima	18.1
85984	7	Sololá	701	Sololá	4	Finca Santa Victoria	1	Enero	2023-01-25T00:00:00	2024-11-08T13:00:00	5	Humedad	70
85985	7	Sololá	701	Sololá	4	Finca Santa Victoria	1	Enero	2023-01-25T00:00:00	2024-11-08T13:00:00	6	Velocidad del viento	6.4
85986	7	Sololá	701	Sololá	4	Finca Santa Victoria	1	Enero	2023-01-25T00:00:00	2024-11-08T13:00:00	7	Dirección del viento	6.44
85987	7	Sololá	701	Sololá	4	Finca Santa Victoria	1	Enero	2023-01-25T00:00:00	2024-11-08T13:00:00	1	Precipitación	0
85988	7	Sololá	701	Sololá	4	Finca Santa Victoria	1	Enero	2023-01-25T00:00:00	2024-11-08T13:00:00	8	Radiación solar	892
85989	7	Sololá	701	Sololá	4	Finca Santa Victoria	1	Enero	2023-01-25T00:00:00	2024-11-08T14:00:00	2	Temperatura media	19.4
85990	7	Sololá	701	Sololá	4	Finca Santa Victoria	1	Enero	2023-01-25T00:00:00	2024-11-08T14:00:00	4	Temperatura máxima	19.4
85991	7	Sololá	701	Sololá	4	Finca Santa Victoria	1	Enero	2023-01-25T00:00:00	2024-11-08T14:00:00	3	Temperatura mínima	17.9
85992	7	Sololá	701	Sololá	4	Finca Santa Victoria	1	Enero	2023-01-25T00:00:00	2024-11-08T14:00:00	5	Humedad	70
85993	7	Sololá	701	Sololá	4	Finca Santa Victoria	1	Enero	2023-01-25T00:00:00	2024-11-08T14:00:00	6	Velocidad del viento	4.8
85994	7	Sololá	701	Sololá	4	Finca Santa Victoria	1	Enero	2023-01-25T00:00:00	2024-11-08T14:00:00	7	Dirección del viento	4.83
85995	7	Sololá	701	Sololá	4	Finca Santa Victoria	1	Enero	2023-01-25T00:00:00	2024-11-08T14:00:00	1	Precipitación	0
85996	7	Sololá	701	Sololá	4	Finca Santa Victoria	1	Enero	2023-01-25T00:00:00	2024-11-08T14:00:00	8	Radiación solar	842
85997	7	Sololá	701	Sololá	4	Finca Santa Victoria	1	Enero	2023-01-25T00:00:00	2024-11-08T15:00:00	2	Temperatura media	18.9
85998	7	Sololá	701	Sololá	4	Finca Santa Victoria	1	Enero	2023-01-25T00:00:00	2024-11-08T15:00:00	4	Temperatura máxima	19.4
85999	7	Sololá	701	Sololá	4	Finca Santa Victoria	1	Enero	2023-01-25T00:00:00	2024-11-08T15:00:00	3	Temperatura mínima	18.2
86000	7	Sololá	701	Sololá	4	Finca Santa Victoria	1	Enero	2023-01-25T00:00:00	2024-11-08T15:00:00	5	Humedad	70
86001	7	Sololá	701	Sololá	4	Finca Santa Victoria	1	Enero	2023-01-25T00:00:00	2024-11-08T15:00:00	6	Velocidad del viento	4.8
86002	7	Sololá	701	Sololá	4	Finca Santa Victoria	1	Enero	2023-01-25T00:00:00	2024-11-08T15:00:00	7	Dirección del viento	4.83
86003	7	Sololá	701	Sololá	4	Finca Santa Victoria	1	Enero	2023-01-25T00:00:00	2024-11-08T15:00:00	1	Precipitación	0
86004	7	Sololá	701	Sololá	4	Finca Santa Victoria	1	Enero	2023-01-25T00:00:00	2024-11-08T15:00:00	8	Radiación solar	496
86005	7	Sololá	701	Sololá	4	Finca Santa Victoria	1	Enero	2023-01-25T00:00:00	2024-11-08T16:00:00	2	Temperatura media	16.1
86006	7	Sololá	701	Sololá	4	Finca Santa Victoria	1	Enero	2023-01-25T00:00:00	2024-11-08T16:00:00	4	Temperatura máxima	19.6
86007	7	Sololá	701	Sololá	4	Finca Santa Victoria	1	Enero	2023-01-25T00:00:00	2024-11-08T16:00:00	3	Temperatura mínima	16
86008	7	Sololá	701	Sololá	4	Finca Santa Victoria	1	Enero	2023-01-25T00:00:00	2024-11-08T16:00:00	5	Humedad	89
86009	7	Sololá	701	Sololá	4	Finca Santa Victoria	1	Enero	2023-01-25T00:00:00	2024-11-08T16:00:00	6	Velocidad del viento	3.2
86010	7	Sololá	701	Sololá	4	Finca Santa Victoria	1	Enero	2023-01-25T00:00:00	2024-11-08T16:00:00	7	Dirección del viento	3.22
86011	7	Sololá	701	Sololá	4	Finca Santa Victoria	1	Enero	2023-01-25T00:00:00	2024-11-08T16:00:00	1	Precipitación	0
86012	7	Sololá	701	Sololá	4	Finca Santa Victoria	1	Enero	2023-01-25T00:00:00	2024-11-08T16:00:00	8	Radiación solar	137
86013	7	Sololá	701	Sololá	4	Finca Santa Victoria	1	Enero	2023-01-25T00:00:00	2024-11-08T17:00:00	2	Temperatura media	16.1
86014	7	Sololá	701	Sololá	4	Finca Santa Victoria	1	Enero	2023-01-25T00:00:00	2024-11-08T17:00:00	4	Temperatura máxima	17
86015	7	Sololá	701	Sololá	4	Finca Santa Victoria	1	Enero	2023-01-25T00:00:00	2024-11-08T17:00:00	3	Temperatura mínima	16.1
86016	7	Sololá	701	Sololá	4	Finca Santa Victoria	1	Enero	2023-01-25T00:00:00	2024-11-08T17:00:00	5	Humedad	88
86017	7	Sololá	701	Sololá	4	Finca Santa Victoria	1	Enero	2023-01-25T00:00:00	2024-11-08T17:00:00	6	Velocidad del viento	1.6
86018	7	Sololá	701	Sololá	4	Finca Santa Victoria	1	Enero	2023-01-25T00:00:00	2024-11-08T17:00:00	7	Dirección del viento	1.61
86019	7	Sololá	701	Sololá	4	Finca Santa Victoria	1	Enero	2023-01-25T00:00:00	2024-11-08T17:00:00	1	Precipitación	0
86020	7	Sololá	701	Sololá	4	Finca Santa Victoria	1	Enero	2023-01-25T00:00:00	2024-11-08T17:00:00	8	Radiación solar	130
86021	7	Sololá	701	Sololá	4	Finca Santa Victoria	1	Enero	2023-01-25T00:00:00	2024-11-08T18:00:00	2	Temperatura media	14.8
86022	7	Sololá	701	Sololá	4	Finca Santa Victoria	1	Enero	2023-01-25T00:00:00	2024-11-08T18:00:00	4	Temperatura máxima	16.1
86023	7	Sololá	701	Sololá	4	Finca Santa Victoria	1	Enero	2023-01-25T00:00:00	2024-11-08T18:00:00	3	Temperatura mínima	14.8
86024	7	Sololá	701	Sololá	4	Finca Santa Victoria	1	Enero	2023-01-25T00:00:00	2024-11-08T18:00:00	5	Humedad	93
86025	7	Sololá	701	Sololá	4	Finca Santa Victoria	1	Enero	2023-01-25T00:00:00	2024-11-08T18:00:00	6	Velocidad del viento	0
86026	7	Sololá	701	Sololá	4	Finca Santa Victoria	1	Enero	2023-01-25T00:00:00	2024-11-08T18:00:00	7	Dirección del viento	0
86027	7	Sololá	701	Sololá	4	Finca Santa Victoria	1	Enero	2023-01-25T00:00:00	2024-11-08T18:00:00	1	Precipitación	0
86028	7	Sololá	701	Sololá	4	Finca Santa Victoria	1	Enero	2023-01-25T00:00:00	2024-11-08T18:00:00	8	Radiación solar	21
86029	7	Sololá	701	Sololá	4	Finca Santa Victoria	1	Enero	2023-01-25T00:00:00	2024-11-08T19:00:00	2	Temperatura media	14.3
86030	7	Sololá	701	Sololá	4	Finca Santa Victoria	1	Enero	2023-01-25T00:00:00	2024-11-08T19:00:00	4	Temperatura máxima	14.8
86031	7	Sololá	701	Sololá	4	Finca Santa Victoria	1	Enero	2023-01-25T00:00:00	2024-11-08T19:00:00	3	Temperatura mínima	13.8
86032	7	Sololá	701	Sololá	4	Finca Santa Victoria	1	Enero	2023-01-25T00:00:00	2024-11-08T19:00:00	5	Humedad	68
86033	7	Sololá	701	Sololá	4	Finca Santa Victoria	1	Enero	2023-01-25T00:00:00	2024-11-08T19:00:00	6	Velocidad del viento	1.6
86034	7	Sololá	701	Sololá	4	Finca Santa Victoria	1	Enero	2023-01-25T00:00:00	2024-11-08T19:00:00	7	Dirección del viento	1.61
86035	7	Sololá	701	Sololá	4	Finca Santa Victoria	1	Enero	2023-01-25T00:00:00	2024-11-08T19:00:00	1	Precipitación	0
86036	7	Sololá	701	Sololá	4	Finca Santa Victoria	1	Enero	2023-01-25T00:00:00	2024-11-08T19:00:00	8	Radiación solar	0
86037	7	Sololá	701	Sololá	4	Finca Santa Victoria	1	Enero	2023-01-25T00:00:00	2024-11-08T20:00:00	2	Temperatura media	13.9
86038	7	Sololá	701	Sololá	4	Finca Santa Victoria	1	Enero	2023-01-25T00:00:00	2024-11-08T20:00:00	4	Temperatura máxima	14.3
86039	7	Sololá	701	Sololá	4	Finca Santa Victoria	1	Enero	2023-01-25T00:00:00	2024-11-08T20:00:00	3	Temperatura mínima	13.9
86040	7	Sololá	701	Sololá	4	Finca Santa Victoria	1	Enero	2023-01-25T00:00:00	2024-11-08T20:00:00	5	Humedad	61
86041	7	Sololá	701	Sololá	4	Finca Santa Victoria	1	Enero	2023-01-25T00:00:00	2024-11-08T20:00:00	6	Velocidad del viento	1.6
86042	7	Sololá	701	Sololá	4	Finca Santa Victoria	1	Enero	2023-01-25T00:00:00	2024-11-08T20:00:00	7	Dirección del viento	1.61
86043	7	Sololá	701	Sololá	4	Finca Santa Victoria	1	Enero	2023-01-25T00:00:00	2024-11-08T20:00:00	1	Precipitación	0
86044	7	Sololá	701	Sololá	4	Finca Santa Victoria	1	Enero	2023-01-25T00:00:00	2024-11-08T20:00:00	8	Radiación solar	0
86045	7	Sololá	701	Sololá	4	Finca Santa Victoria	1	Enero	2023-01-25T00:00:00	2024-11-08T21:00:00	2	Temperatura media	12.6
86046	7	Sololá	701	Sololá	4	Finca Santa Victoria	1	Enero	2023-01-25T00:00:00	2024-11-08T21:00:00	4	Temperatura máxima	13.9
86047	7	Sololá	701	Sololá	4	Finca Santa Victoria	1	Enero	2023-01-25T00:00:00	2024-11-08T21:00:00	3	Temperatura mínima	12.6
86048	7	Sololá	701	Sololá	4	Finca Santa Victoria	1	Enero	2023-01-25T00:00:00	2024-11-08T21:00:00	5	Humedad	66
86049	7	Sololá	701	Sololá	4	Finca Santa Victoria	1	Enero	2023-01-25T00:00:00	2024-11-08T21:00:00	6	Velocidad del viento	3.2
86050	7	Sololá	701	Sololá	4	Finca Santa Victoria	1	Enero	2023-01-25T00:00:00	2024-11-08T21:00:00	7	Dirección del viento	3.22
86051	7	Sololá	701	Sololá	4	Finca Santa Victoria	1	Enero	2023-01-25T00:00:00	2024-11-08T21:00:00	1	Precipitación	0
86052	7	Sololá	701	Sololá	4	Finca Santa Victoria	1	Enero	2023-01-25T00:00:00	2024-11-08T21:00:00	8	Radiación solar	0
86053	7	Sololá	701	Sololá	4	Finca Santa Victoria	1	Enero	2023-01-25T00:00:00	2024-11-08T22:00:00	2	Temperatura media	12.4
86054	7	Sololá	701	Sololá	4	Finca Santa Victoria	1	Enero	2023-01-25T00:00:00	2024-11-08T22:00:00	4	Temperatura máxima	12.9
86055	7	Sololá	701	Sololá	4	Finca Santa Victoria	1	Enero	2023-01-25T00:00:00	2024-11-08T22:00:00	3	Temperatura mínima	12.4
86056	7	Sololá	701	Sololá	4	Finca Santa Victoria	1	Enero	2023-01-25T00:00:00	2024-11-08T22:00:00	5	Humedad	68
86057	7	Sololá	701	Sololá	4	Finca Santa Victoria	1	Enero	2023-01-25T00:00:00	2024-11-08T22:00:00	6	Velocidad del viento	3.2
86058	7	Sololá	701	Sololá	4	Finca Santa Victoria	1	Enero	2023-01-25T00:00:00	2024-11-08T22:00:00	7	Dirección del viento	3.22
86059	7	Sololá	701	Sololá	4	Finca Santa Victoria	1	Enero	2023-01-25T00:00:00	2024-11-08T22:00:00	1	Precipitación	0
86060	7	Sololá	701	Sololá	4	Finca Santa Victoria	1	Enero	2023-01-25T00:00:00	2024-11-08T22:00:00	8	Radiación solar	0
86061	7	Sololá	701	Sololá	4	Finca Santa Victoria	1	Enero	2023-01-25T00:00:00	2024-11-08T23:00:00	2	Temperatura media	11.9
86062	7	Sololá	701	Sololá	4	Finca Santa Victoria	1	Enero	2023-01-25T00:00:00	2024-11-08T23:00:00	4	Temperatura máxima	12.4
86063	7	Sololá	701	Sololá	4	Finca Santa Victoria	1	Enero	2023-01-25T00:00:00	2024-11-08T23:00:00	3	Temperatura mínima	11.9
86064	7	Sololá	701	Sololá	4	Finca Santa Victoria	1	Enero	2023-01-25T00:00:00	2024-11-08T23:00:00	5	Humedad	77
86065	7	Sololá	701	Sololá	4	Finca Santa Victoria	1	Enero	2023-01-25T00:00:00	2024-11-08T23:00:00	6	Velocidad del viento	3.2
86066	7	Sololá	701	Sololá	4	Finca Santa Victoria	1	Enero	2023-01-25T00:00:00	2024-11-08T23:00:00	7	Dirección del viento	3.22
86067	7	Sololá	701	Sololá	4	Finca Santa Victoria	1	Enero	2023-01-25T00:00:00	2024-11-08T23:00:00	1	Precipitación	0
86068	7	Sololá	701	Sololá	4	Finca Santa Victoria	1	Enero	2023-01-25T00:00:00	2024-11-08T23:00:00	8	Radiación solar	0
86069	7	Sololá	701	Sololá	4	Finca Santa Victoria	1	Enero	2023-01-26T00:00:00	2024-11-08T00:00:00	2	Temperatura media	11.7
86070	7	Sololá	701	Sololá	4	Finca Santa Victoria	1	Enero	2023-01-26T00:00:00	2024-11-08T00:00:00	4	Temperatura máxima	11.9
86071	7	Sololá	701	Sololá	4	Finca Santa Victoria	1	Enero	2023-01-26T00:00:00	2024-11-08T00:00:00	3	Temperatura mínima	11.6
86072	7	Sololá	701	Sololá	4	Finca Santa Victoria	1	Enero	2023-01-26T00:00:00	2024-11-08T00:00:00	5	Humedad	84
86073	7	Sololá	701	Sololá	4	Finca Santa Victoria	1	Enero	2023-01-26T00:00:00	2024-11-08T00:00:00	6	Velocidad del viento	3.2
86074	7	Sololá	701	Sololá	4	Finca Santa Victoria	1	Enero	2023-01-26T00:00:00	2024-11-08T00:00:00	7	Dirección del viento	3.22
86075	7	Sololá	701	Sololá	4	Finca Santa Victoria	1	Enero	2023-01-26T00:00:00	2024-11-08T00:00:00	1	Precipitación	0
86076	7	Sololá	701	Sololá	4	Finca Santa Victoria	1	Enero	2023-01-26T00:00:00	2024-11-08T00:00:00	8	Radiación solar	0
86077	7	Sololá	701	Sololá	4	Finca Santa Victoria	1	Enero	2023-01-26T00:00:00	2024-11-08T01:00:00	2	Temperatura media	11.6
86078	7	Sololá	701	Sololá	4	Finca Santa Victoria	1	Enero	2023-01-26T00:00:00	2024-11-08T01:00:00	4	Temperatura máxima	11.7
86079	7	Sololá	701	Sololá	4	Finca Santa Victoria	1	Enero	2023-01-26T00:00:00	2024-11-08T01:00:00	3	Temperatura mínima	11.6
86080	7	Sololá	701	Sololá	4	Finca Santa Victoria	1	Enero	2023-01-26T00:00:00	2024-11-08T01:00:00	5	Humedad	84
86081	7	Sololá	701	Sololá	4	Finca Santa Victoria	1	Enero	2023-01-26T00:00:00	2024-11-08T01:00:00	6	Velocidad del viento	3.2
86082	7	Sololá	701	Sololá	4	Finca Santa Victoria	1	Enero	2023-01-26T00:00:00	2024-11-08T01:00:00	7	Dirección del viento	3.22
86083	7	Sololá	701	Sololá	4	Finca Santa Victoria	1	Enero	2023-01-26T00:00:00	2024-11-08T01:00:00	1	Precipitación	0
86084	7	Sololá	701	Sololá	4	Finca Santa Victoria	1	Enero	2023-01-26T00:00:00	2024-11-08T01:00:00	8	Radiación solar	0
86085	7	Sololá	701	Sololá	4	Finca Santa Victoria	1	Enero	2023-01-26T00:00:00	2024-11-08T02:00:00	2	Temperatura media	11.4
86086	7	Sololá	701	Sololá	4	Finca Santa Victoria	1	Enero	2023-01-26T00:00:00	2024-11-08T02:00:00	4	Temperatura máxima	11.6
86087	7	Sololá	701	Sololá	4	Finca Santa Victoria	1	Enero	2023-01-26T00:00:00	2024-11-08T02:00:00	3	Temperatura mínima	11.3
86088	7	Sololá	701	Sololá	4	Finca Santa Victoria	1	Enero	2023-01-26T00:00:00	2024-11-08T02:00:00	5	Humedad	84
86089	7	Sololá	701	Sololá	4	Finca Santa Victoria	1	Enero	2023-01-26T00:00:00	2024-11-08T02:00:00	6	Velocidad del viento	3.2
86090	7	Sololá	701	Sololá	4	Finca Santa Victoria	1	Enero	2023-01-26T00:00:00	2024-11-08T02:00:00	7	Dirección del viento	3.22
86091	7	Sololá	701	Sololá	4	Finca Santa Victoria	1	Enero	2023-01-26T00:00:00	2024-11-08T02:00:00	1	Precipitación	0
86092	7	Sololá	701	Sololá	4	Finca Santa Victoria	1	Enero	2023-01-26T00:00:00	2024-11-08T02:00:00	8	Radiación solar	0
86093	7	Sololá	701	Sololá	4	Finca Santa Victoria	1	Enero	2023-01-26T00:00:00	2024-11-08T03:00:00	2	Temperatura media	11.3
86094	7	Sololá	701	Sololá	4	Finca Santa Victoria	1	Enero	2023-01-26T00:00:00	2024-11-08T03:00:00	4	Temperatura máxima	11.6
86095	7	Sololá	701	Sololá	4	Finca Santa Victoria	1	Enero	2023-01-26T00:00:00	2024-11-08T03:00:00	3	Temperatura mínima	11.3
86096	7	Sololá	701	Sololá	4	Finca Santa Victoria	1	Enero	2023-01-26T00:00:00	2024-11-08T03:00:00	5	Humedad	86
86097	7	Sololá	701	Sololá	4	Finca Santa Victoria	1	Enero	2023-01-26T00:00:00	2024-11-08T03:00:00	6	Velocidad del viento	4.8
86098	7	Sololá	701	Sololá	4	Finca Santa Victoria	1	Enero	2023-01-26T00:00:00	2024-11-08T03:00:00	7	Dirección del viento	4.83
86099	7	Sololá	701	Sololá	4	Finca Santa Victoria	1	Enero	2023-01-26T00:00:00	2024-11-08T03:00:00	1	Precipitación	0
86100	7	Sololá	701	Sololá	4	Finca Santa Victoria	1	Enero	2023-01-26T00:00:00	2024-11-08T03:00:00	8	Radiación solar	0
86101	7	Sololá	701	Sololá	4	Finca Santa Victoria	1	Enero	2023-01-26T00:00:00	2024-11-08T04:00:00	2	Temperatura media	11.5
86102	7	Sololá	701	Sololá	4	Finca Santa Victoria	1	Enero	2023-01-26T00:00:00	2024-11-08T04:00:00	4	Temperatura máxima	11.6
86103	7	Sololá	701	Sololá	4	Finca Santa Victoria	1	Enero	2023-01-26T00:00:00	2024-11-08T04:00:00	3	Temperatura mínima	11.3
86104	7	Sololá	701	Sololá	4	Finca Santa Victoria	1	Enero	2023-01-26T00:00:00	2024-11-08T04:00:00	5	Humedad	86
86105	7	Sololá	701	Sololá	4	Finca Santa Victoria	1	Enero	2023-01-26T00:00:00	2024-11-08T04:00:00	6	Velocidad del viento	4.8
86106	7	Sololá	701	Sololá	4	Finca Santa Victoria	1	Enero	2023-01-26T00:00:00	2024-11-08T04:00:00	7	Dirección del viento	4.83
86107	7	Sololá	701	Sololá	4	Finca Santa Victoria	1	Enero	2023-01-26T00:00:00	2024-11-08T04:00:00	1	Precipitación	0
86108	7	Sololá	701	Sololá	4	Finca Santa Victoria	1	Enero	2023-01-26T00:00:00	2024-11-08T04:00:00	8	Radiación solar	0
86109	7	Sololá	701	Sololá	4	Finca Santa Victoria	1	Enero	2023-01-26T00:00:00	2024-11-08T05:00:00	2	Temperatura media	11.6
86110	7	Sololá	701	Sololá	4	Finca Santa Victoria	1	Enero	2023-01-26T00:00:00	2024-11-08T05:00:00	4	Temperatura máxima	11.6
86111	7	Sololá	701	Sololá	4	Finca Santa Victoria	1	Enero	2023-01-26T00:00:00	2024-11-08T05:00:00	3	Temperatura mínima	11.4
86112	7	Sololá	701	Sololá	4	Finca Santa Victoria	1	Enero	2023-01-26T00:00:00	2024-11-08T05:00:00	5	Humedad	86
86113	7	Sololá	701	Sololá	4	Finca Santa Victoria	1	Enero	2023-01-26T00:00:00	2024-11-08T05:00:00	6	Velocidad del viento	4.8
86114	7	Sololá	701	Sololá	4	Finca Santa Victoria	1	Enero	2023-01-26T00:00:00	2024-11-08T05:00:00	7	Dirección del viento	4.83
86115	7	Sololá	701	Sololá	4	Finca Santa Victoria	1	Enero	2023-01-26T00:00:00	2024-11-08T05:00:00	1	Precipitación	0
86116	7	Sololá	701	Sololá	4	Finca Santa Victoria	1	Enero	2023-01-26T00:00:00	2024-11-08T05:00:00	8	Radiación solar	0
86117	7	Sololá	701	Sololá	4	Finca Santa Victoria	1	Enero	2023-01-26T00:00:00	2024-11-08T06:00:00	2	Temperatura media	11.4
86118	7	Sololá	701	Sololá	4	Finca Santa Victoria	1	Enero	2023-01-26T00:00:00	2024-11-08T06:00:00	4	Temperatura máxima	11.6
86119	7	Sololá	701	Sololá	4	Finca Santa Victoria	1	Enero	2023-01-26T00:00:00	2024-11-08T06:00:00	3	Temperatura mínima	11.4
86120	7	Sololá	701	Sololá	4	Finca Santa Victoria	1	Enero	2023-01-26T00:00:00	2024-11-08T06:00:00	5	Humedad	87
86121	7	Sololá	701	Sololá	4	Finca Santa Victoria	1	Enero	2023-01-26T00:00:00	2024-11-08T06:00:00	6	Velocidad del viento	4.8
86122	7	Sololá	701	Sololá	4	Finca Santa Victoria	1	Enero	2023-01-26T00:00:00	2024-11-08T06:00:00	7	Dirección del viento	4.83
86123	7	Sololá	701	Sololá	4	Finca Santa Victoria	1	Enero	2023-01-26T00:00:00	2024-11-08T06:00:00	1	Precipitación	0
86124	7	Sololá	701	Sololá	4	Finca Santa Victoria	1	Enero	2023-01-26T00:00:00	2024-11-08T06:00:00	8	Radiación solar	0
86125	7	Sololá	701	Sololá	4	Finca Santa Victoria	1	Enero	2023-01-26T00:00:00	2024-11-08T07:00:00	2	Temperatura media	11.7
86126	7	Sololá	701	Sololá	4	Finca Santa Victoria	1	Enero	2023-01-26T00:00:00	2024-11-08T07:00:00	4	Temperatura máxima	11.7
86127	7	Sololá	701	Sololá	4	Finca Santa Victoria	1	Enero	2023-01-26T00:00:00	2024-11-08T07:00:00	3	Temperatura mínima	11.3
86128	7	Sololá	701	Sololá	4	Finca Santa Victoria	1	Enero	2023-01-26T00:00:00	2024-11-08T07:00:00	5	Humedad	86
86129	7	Sololá	701	Sololá	4	Finca Santa Victoria	1	Enero	2023-01-26T00:00:00	2024-11-08T07:00:00	6	Velocidad del viento	4.8
86130	7	Sololá	701	Sololá	4	Finca Santa Victoria	1	Enero	2023-01-26T00:00:00	2024-11-08T07:00:00	7	Dirección del viento	4.83
86131	7	Sololá	701	Sololá	4	Finca Santa Victoria	1	Enero	2023-01-26T00:00:00	2024-11-08T07:00:00	1	Precipitación	0
86132	7	Sololá	701	Sololá	4	Finca Santa Victoria	1	Enero	2023-01-26T00:00:00	2024-11-08T07:00:00	8	Radiación solar	3
86133	7	Sololá	701	Sololá	4	Finca Santa Victoria	1	Enero	2023-01-26T00:00:00	2024-11-08T08:00:00	2	Temperatura media	12.7
86134	7	Sololá	701	Sololá	4	Finca Santa Victoria	1	Enero	2023-01-26T00:00:00	2024-11-08T08:00:00	4	Temperatura máxima	12.8
86135	7	Sololá	701	Sololá	4	Finca Santa Victoria	1	Enero	2023-01-26T00:00:00	2024-11-08T08:00:00	3	Temperatura mínima	11.7
86136	7	Sololá	701	Sololá	4	Finca Santa Victoria	1	Enero	2023-01-26T00:00:00	2024-11-08T08:00:00	5	Humedad	84
86137	7	Sololá	701	Sololá	4	Finca Santa Victoria	1	Enero	2023-01-26T00:00:00	2024-11-08T08:00:00	6	Velocidad del viento	6.4
86138	7	Sololá	701	Sololá	4	Finca Santa Victoria	1	Enero	2023-01-26T00:00:00	2024-11-08T08:00:00	7	Dirección del viento	6.44
86139	7	Sololá	701	Sololá	4	Finca Santa Victoria	1	Enero	2023-01-26T00:00:00	2024-11-08T08:00:00	1	Precipitación	0
86140	7	Sololá	701	Sololá	4	Finca Santa Victoria	1	Enero	2023-01-26T00:00:00	2024-11-08T08:00:00	8	Radiación solar	35
86141	7	Sololá	701	Sololá	4	Finca Santa Victoria	1	Enero	2023-01-26T00:00:00	2024-11-08T09:00:00	2	Temperatura media	14.2
86142	7	Sololá	701	Sololá	4	Finca Santa Victoria	1	Enero	2023-01-26T00:00:00	2024-11-08T09:00:00	4	Temperatura máxima	14.2
86143	7	Sololá	701	Sololá	4	Finca Santa Victoria	1	Enero	2023-01-26T00:00:00	2024-11-08T09:00:00	3	Temperatura mínima	12.7
86144	7	Sololá	701	Sololá	4	Finca Santa Victoria	1	Enero	2023-01-26T00:00:00	2024-11-08T09:00:00	5	Humedad	80
86145	7	Sololá	701	Sololá	4	Finca Santa Victoria	1	Enero	2023-01-26T00:00:00	2024-11-08T09:00:00	6	Velocidad del viento	4.8
86146	7	Sololá	701	Sololá	4	Finca Santa Victoria	1	Enero	2023-01-26T00:00:00	2024-11-08T09:00:00	7	Dirección del viento	4.83
86147	7	Sololá	701	Sololá	4	Finca Santa Victoria	1	Enero	2023-01-26T00:00:00	2024-11-08T09:00:00	1	Precipitación	0
86148	7	Sololá	701	Sololá	4	Finca Santa Victoria	1	Enero	2023-01-26T00:00:00	2024-11-08T09:00:00	8	Radiación solar	131
86149	7	Sololá	701	Sololá	4	Finca Santa Victoria	1	Enero	2023-01-26T00:00:00	2024-11-08T10:00:00	2	Temperatura media	16
86150	7	Sololá	701	Sololá	4	Finca Santa Victoria	1	Enero	2023-01-26T00:00:00	2024-11-08T10:00:00	4	Temperatura máxima	16
86151	7	Sololá	701	Sololá	4	Finca Santa Victoria	1	Enero	2023-01-26T00:00:00	2024-11-08T10:00:00	3	Temperatura mínima	14.2
86152	7	Sololá	701	Sololá	4	Finca Santa Victoria	1	Enero	2023-01-26T00:00:00	2024-11-08T10:00:00	5	Humedad	71
86153	7	Sololá	701	Sololá	4	Finca Santa Victoria	1	Enero	2023-01-26T00:00:00	2024-11-08T10:00:00	6	Velocidad del viento	4.8
86154	7	Sololá	701	Sololá	4	Finca Santa Victoria	1	Enero	2023-01-26T00:00:00	2024-11-08T10:00:00	7	Dirección del viento	4.83
86155	7	Sololá	701	Sololá	4	Finca Santa Victoria	1	Enero	2023-01-26T00:00:00	2024-11-08T10:00:00	1	Precipitación	0
86156	7	Sololá	701	Sololá	4	Finca Santa Victoria	1	Enero	2023-01-26T00:00:00	2024-11-08T10:00:00	8	Radiación solar	299
86157	7	Sololá	701	Sololá	4	Finca Santa Victoria	1	Enero	2023-01-26T00:00:00	2024-11-08T11:00:00	2	Temperatura media	17.4
86158	7	Sololá	701	Sololá	4	Finca Santa Victoria	1	Enero	2023-01-26T00:00:00	2024-11-08T11:00:00	4	Temperatura máxima	17.4
86159	7	Sololá	701	Sololá	4	Finca Santa Victoria	1	Enero	2023-01-26T00:00:00	2024-11-08T11:00:00	3	Temperatura mínima	16
86160	7	Sololá	701	Sololá	4	Finca Santa Victoria	1	Enero	2023-01-26T00:00:00	2024-11-08T11:00:00	5	Humedad	67
86161	7	Sololá	701	Sololá	4	Finca Santa Victoria	1	Enero	2023-01-26T00:00:00	2024-11-08T11:00:00	6	Velocidad del viento	4.8
86162	7	Sololá	701	Sololá	4	Finca Santa Victoria	1	Enero	2023-01-26T00:00:00	2024-11-08T11:00:00	7	Dirección del viento	4.83
86163	7	Sololá	701	Sololá	4	Finca Santa Victoria	1	Enero	2023-01-26T00:00:00	2024-11-08T11:00:00	1	Precipitación	0
86164	7	Sololá	701	Sololá	4	Finca Santa Victoria	1	Enero	2023-01-26T00:00:00	2024-11-08T11:00:00	8	Radiación solar	795
86165	7	Sololá	701	Sololá	4	Finca Santa Victoria	1	Enero	2023-01-26T00:00:00	2024-11-08T12:00:00	2	Temperatura media	18.4
86166	7	Sololá	701	Sololá	4	Finca Santa Victoria	1	Enero	2023-01-26T00:00:00	2024-11-08T12:00:00	4	Temperatura máxima	18.5
86167	7	Sololá	701	Sololá	4	Finca Santa Victoria	1	Enero	2023-01-26T00:00:00	2024-11-08T12:00:00	3	Temperatura mínima	17.2
86168	7	Sololá	701	Sololá	4	Finca Santa Victoria	1	Enero	2023-01-26T00:00:00	2024-11-08T12:00:00	5	Humedad	64
86169	7	Sololá	701	Sololá	4	Finca Santa Victoria	1	Enero	2023-01-26T00:00:00	2024-11-08T12:00:00	6	Velocidad del viento	4.8
86170	7	Sololá	701	Sololá	4	Finca Santa Victoria	1	Enero	2023-01-26T00:00:00	2024-11-08T12:00:00	7	Dirección del viento	4.83
86171	7	Sololá	701	Sololá	4	Finca Santa Victoria	1	Enero	2023-01-26T00:00:00	2024-11-08T12:00:00	1	Precipitación	0
86172	7	Sololá	701	Sololá	4	Finca Santa Victoria	1	Enero	2023-01-26T00:00:00	2024-11-08T12:00:00	8	Radiación solar	881
86173	7	Sololá	701	Sololá	4	Finca Santa Victoria	1	Enero	2023-01-26T00:00:00	2024-11-08T13:00:00	2	Temperatura media	19.4
86174	7	Sololá	701	Sololá	4	Finca Santa Victoria	1	Enero	2023-01-26T00:00:00	2024-11-08T13:00:00	4	Temperatura máxima	19.5
86175	7	Sololá	701	Sololá	4	Finca Santa Victoria	1	Enero	2023-01-26T00:00:00	2024-11-08T13:00:00	3	Temperatura mínima	18.4
86176	7	Sololá	701	Sololá	4	Finca Santa Victoria	1	Enero	2023-01-26T00:00:00	2024-11-08T13:00:00	5	Humedad	59
86177	7	Sololá	701	Sololá	4	Finca Santa Victoria	1	Enero	2023-01-26T00:00:00	2024-11-08T13:00:00	6	Velocidad del viento	4.8
86178	7	Sololá	701	Sololá	4	Finca Santa Victoria	1	Enero	2023-01-26T00:00:00	2024-11-08T13:00:00	7	Dirección del viento	4.83
86179	7	Sololá	701	Sololá	4	Finca Santa Victoria	1	Enero	2023-01-26T00:00:00	2024-11-08T13:00:00	1	Precipitación	0
86180	7	Sololá	701	Sololá	4	Finca Santa Victoria	1	Enero	2023-01-26T00:00:00	2024-11-08T13:00:00	8	Radiación solar	890
86181	7	Sololá	701	Sololá	4	Finca Santa Victoria	1	Enero	2023-01-26T00:00:00	2024-11-08T14:00:00	2	Temperatura media	20
86182	7	Sololá	701	Sololá	4	Finca Santa Victoria	1	Enero	2023-01-26T00:00:00	2024-11-08T14:00:00	4	Temperatura máxima	20.1
86183	7	Sololá	701	Sololá	4	Finca Santa Victoria	1	Enero	2023-01-26T00:00:00	2024-11-08T14:00:00	3	Temperatura mínima	19.3
86184	7	Sololá	701	Sololá	4	Finca Santa Victoria	1	Enero	2023-01-26T00:00:00	2024-11-08T14:00:00	5	Humedad	56
86185	7	Sololá	701	Sololá	4	Finca Santa Victoria	1	Enero	2023-01-26T00:00:00	2024-11-08T14:00:00	6	Velocidad del viento	4.8
86186	7	Sololá	701	Sololá	4	Finca Santa Victoria	1	Enero	2023-01-26T00:00:00	2024-11-08T14:00:00	7	Dirección del viento	4.83
86187	7	Sololá	701	Sololá	4	Finca Santa Victoria	1	Enero	2023-01-26T00:00:00	2024-11-08T14:00:00	1	Precipitación	0
86188	7	Sololá	701	Sololá	4	Finca Santa Victoria	1	Enero	2023-01-26T00:00:00	2024-11-08T14:00:00	8	Radiación solar	833
86189	7	Sololá	701	Sololá	4	Finca Santa Victoria	1	Enero	2023-01-26T00:00:00	2024-11-08T15:00:00	2	Temperatura media	18.7
86190	7	Sololá	701	Sololá	4	Finca Santa Victoria	1	Enero	2023-01-26T00:00:00	2024-11-08T15:00:00	4	Temperatura máxima	20.1
86191	7	Sololá	701	Sololá	4	Finca Santa Victoria	1	Enero	2023-01-26T00:00:00	2024-11-08T15:00:00	3	Temperatura mínima	18.7
86192	7	Sololá	701	Sololá	4	Finca Santa Victoria	1	Enero	2023-01-26T00:00:00	2024-11-08T15:00:00	5	Humedad	56
86193	7	Sololá	701	Sololá	4	Finca Santa Victoria	1	Enero	2023-01-26T00:00:00	2024-11-08T15:00:00	6	Velocidad del viento	4.8
86194	7	Sololá	701	Sololá	4	Finca Santa Victoria	1	Enero	2023-01-26T00:00:00	2024-11-08T15:00:00	7	Dirección del viento	4.83
86195	7	Sololá	701	Sololá	4	Finca Santa Victoria	1	Enero	2023-01-26T00:00:00	2024-11-08T15:00:00	1	Precipitación	0
86196	7	Sololá	701	Sololá	4	Finca Santa Victoria	1	Enero	2023-01-26T00:00:00	2024-11-08T15:00:00	8	Radiación solar	592
86197	7	Sololá	701	Sololá	4	Finca Santa Victoria	1	Enero	2023-01-26T00:00:00	2024-11-08T16:00:00	2	Temperatura media	18.3
86198	7	Sololá	701	Sololá	4	Finca Santa Victoria	1	Enero	2023-01-26T00:00:00	2024-11-08T16:00:00	4	Temperatura máxima	19.1
86199	7	Sololá	701	Sololá	4	Finca Santa Victoria	1	Enero	2023-01-26T00:00:00	2024-11-08T16:00:00	3	Temperatura mínima	18.3
86200	7	Sololá	701	Sololá	4	Finca Santa Victoria	1	Enero	2023-01-26T00:00:00	2024-11-08T16:00:00	5	Humedad	62
86201	7	Sololá	701	Sololá	4	Finca Santa Victoria	1	Enero	2023-01-26T00:00:00	2024-11-08T16:00:00	6	Velocidad del viento	4.8
86202	7	Sololá	701	Sololá	4	Finca Santa Victoria	1	Enero	2023-01-26T00:00:00	2024-11-08T16:00:00	7	Dirección del viento	4.83
86203	7	Sololá	701	Sololá	4	Finca Santa Victoria	1	Enero	2023-01-26T00:00:00	2024-11-08T16:00:00	1	Precipitación	0
86204	7	Sololá	701	Sololá	4	Finca Santa Victoria	1	Enero	2023-01-26T00:00:00	2024-11-08T16:00:00	8	Radiación solar	380
86205	7	Sololá	701	Sololá	4	Finca Santa Victoria	1	Enero	2023-01-26T00:00:00	2024-11-08T17:00:00	2	Temperatura media	16.1
86206	7	Sololá	701	Sololá	4	Finca Santa Victoria	1	Enero	2023-01-26T00:00:00	2024-11-08T17:00:00	4	Temperatura máxima	18.3
86207	7	Sololá	701	Sololá	4	Finca Santa Victoria	1	Enero	2023-01-26T00:00:00	2024-11-08T17:00:00	3	Temperatura mínima	16
86208	7	Sololá	701	Sololá	4	Finca Santa Victoria	1	Enero	2023-01-26T00:00:00	2024-11-08T17:00:00	5	Humedad	66
86209	7	Sololá	701	Sololá	4	Finca Santa Victoria	1	Enero	2023-01-26T00:00:00	2024-11-08T17:00:00	6	Velocidad del viento	4.8
86210	7	Sololá	701	Sololá	4	Finca Santa Victoria	1	Enero	2023-01-26T00:00:00	2024-11-08T17:00:00	7	Dirección del viento	4.83
86211	7	Sololá	701	Sololá	4	Finca Santa Victoria	1	Enero	2023-01-26T00:00:00	2024-11-08T17:00:00	1	Precipitación	0
86212	7	Sololá	701	Sololá	4	Finca Santa Victoria	1	Enero	2023-01-26T00:00:00	2024-11-08T17:00:00	8	Radiación solar	278
86213	7	Sololá	701	Sololá	4	Finca Santa Victoria	1	Enero	2023-01-26T00:00:00	2024-11-08T18:00:00	2	Temperatura media	12.7
86214	7	Sololá	701	Sololá	4	Finca Santa Victoria	1	Enero	2023-01-26T00:00:00	2024-11-08T18:00:00	4	Temperatura máxima	16.1
86215	7	Sololá	701	Sololá	4	Finca Santa Victoria	1	Enero	2023-01-26T00:00:00	2024-11-08T18:00:00	3	Temperatura mínima	12.7
86216	7	Sololá	701	Sololá	4	Finca Santa Victoria	1	Enero	2023-01-26T00:00:00	2024-11-08T18:00:00	5	Humedad	78
86217	7	Sololá	701	Sololá	4	Finca Santa Victoria	1	Enero	2023-01-26T00:00:00	2024-11-08T18:00:00	6	Velocidad del viento	4.8
86218	7	Sololá	701	Sololá	4	Finca Santa Victoria	1	Enero	2023-01-26T00:00:00	2024-11-08T18:00:00	7	Dirección del viento	4.83
86219	7	Sololá	701	Sololá	4	Finca Santa Victoria	1	Enero	2023-01-26T00:00:00	2024-11-08T18:00:00	1	Precipitación	0
86220	7	Sololá	701	Sololá	4	Finca Santa Victoria	1	Enero	2023-01-26T00:00:00	2024-11-08T18:00:00	8	Radiación solar	34
86221	7	Sololá	701	Sololá	4	Finca Santa Victoria	1	Enero	2023-01-26T00:00:00	2024-11-08T19:00:00	2	Temperatura media	12.2
86222	7	Sololá	701	Sololá	4	Finca Santa Victoria	1	Enero	2023-01-26T00:00:00	2024-11-08T19:00:00	4	Temperatura máxima	12.8
86223	7	Sololá	701	Sololá	4	Finca Santa Victoria	1	Enero	2023-01-26T00:00:00	2024-11-08T19:00:00	3	Temperatura mínima	12.2
86224	7	Sololá	701	Sololá	4	Finca Santa Victoria	1	Enero	2023-01-26T00:00:00	2024-11-08T19:00:00	5	Humedad	80
86225	7	Sololá	701	Sololá	4	Finca Santa Victoria	1	Enero	2023-01-26T00:00:00	2024-11-08T19:00:00	6	Velocidad del viento	4.8
86226	7	Sololá	701	Sololá	4	Finca Santa Victoria	1	Enero	2023-01-26T00:00:00	2024-11-08T19:00:00	7	Dirección del viento	4.83
86227	7	Sololá	701	Sololá	4	Finca Santa Victoria	1	Enero	2023-01-26T00:00:00	2024-11-08T19:00:00	1	Precipitación	0
86228	7	Sololá	701	Sololá	4	Finca Santa Victoria	1	Enero	2023-01-26T00:00:00	2024-11-08T19:00:00	8	Radiación solar	0
86229	7	Sololá	701	Sololá	4	Finca Santa Victoria	1	Enero	2023-01-26T00:00:00	2024-11-08T20:00:00	2	Temperatura media	11.8
86230	7	Sololá	701	Sololá	4	Finca Santa Victoria	1	Enero	2023-01-26T00:00:00	2024-11-08T20:00:00	4	Temperatura máxima	12.2
86231	7	Sololá	701	Sololá	4	Finca Santa Victoria	1	Enero	2023-01-26T00:00:00	2024-11-08T20:00:00	3	Temperatura mínima	11.8
86232	7	Sololá	701	Sololá	4	Finca Santa Victoria	1	Enero	2023-01-26T00:00:00	2024-11-08T20:00:00	5	Humedad	79
86233	7	Sololá	701	Sololá	4	Finca Santa Victoria	1	Enero	2023-01-26T00:00:00	2024-11-08T20:00:00	6	Velocidad del viento	4.8
86234	7	Sololá	701	Sololá	4	Finca Santa Victoria	1	Enero	2023-01-26T00:00:00	2024-11-08T20:00:00	7	Dirección del viento	4.83
86235	7	Sololá	701	Sololá	4	Finca Santa Victoria	1	Enero	2023-01-26T00:00:00	2024-11-08T20:00:00	1	Precipitación	0
86236	7	Sololá	701	Sololá	4	Finca Santa Victoria	1	Enero	2023-01-26T00:00:00	2024-11-08T20:00:00	8	Radiación solar	0
86237	7	Sololá	701	Sololá	4	Finca Santa Victoria	1	Enero	2023-01-26T00:00:00	2024-11-08T21:00:00	2	Temperatura media	11.4
86238	7	Sololá	701	Sololá	4	Finca Santa Victoria	1	Enero	2023-01-26T00:00:00	2024-11-08T21:00:00	4	Temperatura máxima	11.9
86239	7	Sololá	701	Sololá	4	Finca Santa Victoria	1	Enero	2023-01-26T00:00:00	2024-11-08T21:00:00	3	Temperatura mínima	11.4
86240	7	Sololá	701	Sololá	4	Finca Santa Victoria	1	Enero	2023-01-26T00:00:00	2024-11-08T21:00:00	5	Humedad	82
86241	7	Sololá	701	Sololá	4	Finca Santa Victoria	1	Enero	2023-01-26T00:00:00	2024-11-08T21:00:00	6	Velocidad del viento	4.8
86242	7	Sololá	701	Sololá	4	Finca Santa Victoria	1	Enero	2023-01-26T00:00:00	2024-11-08T21:00:00	7	Dirección del viento	4.83
86243	7	Sololá	701	Sololá	4	Finca Santa Victoria	1	Enero	2023-01-26T00:00:00	2024-11-08T21:00:00	1	Precipitación	0
86244	7	Sololá	701	Sololá	4	Finca Santa Victoria	1	Enero	2023-01-26T00:00:00	2024-11-08T21:00:00	8	Radiación solar	0
86245	7	Sololá	701	Sololá	4	Finca Santa Victoria	1	Enero	2023-01-26T00:00:00	2024-11-08T22:00:00	2	Temperatura media	11.3
86246	7	Sololá	701	Sololá	4	Finca Santa Victoria	1	Enero	2023-01-26T00:00:00	2024-11-08T22:00:00	4	Temperatura máxima	11.4
86247	7	Sololá	701	Sololá	4	Finca Santa Victoria	1	Enero	2023-01-26T00:00:00	2024-11-08T22:00:00	3	Temperatura mínima	11.2
86248	7	Sololá	701	Sololá	4	Finca Santa Victoria	1	Enero	2023-01-26T00:00:00	2024-11-08T22:00:00	5	Humedad	83
86249	7	Sololá	701	Sololá	4	Finca Santa Victoria	1	Enero	2023-01-26T00:00:00	2024-11-08T22:00:00	6	Velocidad del viento	3.2
86250	7	Sololá	701	Sololá	4	Finca Santa Victoria	1	Enero	2023-01-26T00:00:00	2024-11-08T22:00:00	7	Dirección del viento	3.22
86251	7	Sololá	701	Sololá	4	Finca Santa Victoria	1	Enero	2023-01-26T00:00:00	2024-11-08T22:00:00	1	Precipitación	0
86252	7	Sololá	701	Sololá	4	Finca Santa Victoria	1	Enero	2023-01-26T00:00:00	2024-11-08T22:00:00	8	Radiación solar	0
86253	7	Sololá	701	Sololá	4	Finca Santa Victoria	1	Enero	2023-01-26T00:00:00	2024-11-08T23:00:00	2	Temperatura media	11.1
86254	7	Sololá	701	Sololá	4	Finca Santa Victoria	1	Enero	2023-01-26T00:00:00	2024-11-08T23:00:00	4	Temperatura máxima	11.3
86255	7	Sololá	701	Sololá	4	Finca Santa Victoria	1	Enero	2023-01-26T00:00:00	2024-11-08T23:00:00	3	Temperatura mínima	11.1
86256	7	Sololá	701	Sololá	4	Finca Santa Victoria	1	Enero	2023-01-26T00:00:00	2024-11-08T23:00:00	5	Humedad	84
86257	7	Sololá	701	Sololá	4	Finca Santa Victoria	1	Enero	2023-01-26T00:00:00	2024-11-08T23:00:00	6	Velocidad del viento	4.8
86258	7	Sololá	701	Sololá	4	Finca Santa Victoria	1	Enero	2023-01-26T00:00:00	2024-11-08T23:00:00	7	Dirección del viento	4.83
86259	7	Sololá	701	Sololá	4	Finca Santa Victoria	1	Enero	2023-01-26T00:00:00	2024-11-08T23:00:00	1	Precipitación	0
86260	7	Sololá	701	Sololá	4	Finca Santa Victoria	1	Enero	2023-01-26T00:00:00	2024-11-08T23:00:00	8	Radiación solar	0
86261	7	Sololá	701	Sololá	4	Finca Santa Victoria	1	Enero	2023-01-27T00:00:00	2024-11-08T00:00:00	2	Temperatura media	10.9
86262	7	Sololá	701	Sololá	4	Finca Santa Victoria	1	Enero	2023-01-27T00:00:00	2024-11-08T00:00:00	4	Temperatura máxima	11.1
86263	7	Sololá	701	Sololá	4	Finca Santa Victoria	1	Enero	2023-01-27T00:00:00	2024-11-08T00:00:00	3	Temperatura mínima	10.9
86264	7	Sololá	701	Sololá	4	Finca Santa Victoria	1	Enero	2023-01-27T00:00:00	2024-11-08T00:00:00	5	Humedad	86
86265	7	Sololá	701	Sololá	4	Finca Santa Victoria	1	Enero	2023-01-27T00:00:00	2024-11-08T00:00:00	6	Velocidad del viento	4.8
86266	7	Sololá	701	Sololá	4	Finca Santa Victoria	1	Enero	2023-01-27T00:00:00	2024-11-08T00:00:00	7	Dirección del viento	4.83
86267	7	Sololá	701	Sololá	4	Finca Santa Victoria	1	Enero	2023-01-27T00:00:00	2024-11-08T00:00:00	1	Precipitación	0
86268	7	Sololá	701	Sololá	4	Finca Santa Victoria	1	Enero	2023-01-27T00:00:00	2024-11-08T00:00:00	8	Radiación solar	0
86269	7	Sololá	701	Sololá	4	Finca Santa Victoria	1	Enero	2023-01-27T00:00:00	2024-11-08T01:00:00	2	Temperatura media	11.2
86270	7	Sololá	701	Sololá	4	Finca Santa Victoria	1	Enero	2023-01-27T00:00:00	2024-11-08T01:00:00	4	Temperatura máxima	11.2
86271	7	Sololá	701	Sololá	4	Finca Santa Victoria	1	Enero	2023-01-27T00:00:00	2024-11-08T01:00:00	3	Temperatura mínima	10.9
86272	7	Sololá	701	Sololá	4	Finca Santa Victoria	1	Enero	2023-01-27T00:00:00	2024-11-08T01:00:00	5	Humedad	86
86273	7	Sololá	701	Sololá	4	Finca Santa Victoria	1	Enero	2023-01-27T00:00:00	2024-11-08T01:00:00	6	Velocidad del viento	8
86274	7	Sololá	701	Sololá	4	Finca Santa Victoria	1	Enero	2023-01-27T00:00:00	2024-11-08T01:00:00	7	Dirección del viento	8.05
86275	7	Sololá	701	Sololá	4	Finca Santa Victoria	1	Enero	2023-01-27T00:00:00	2024-11-08T01:00:00	1	Precipitación	0
86276	7	Sololá	701	Sololá	4	Finca Santa Victoria	1	Enero	2023-01-27T00:00:00	2024-11-08T01:00:00	8	Radiación solar	0
86277	7	Sololá	701	Sololá	4	Finca Santa Victoria	1	Enero	2023-01-27T00:00:00	2024-11-08T02:00:00	2	Temperatura media	11.2
86278	7	Sololá	701	Sololá	4	Finca Santa Victoria	1	Enero	2023-01-27T00:00:00	2024-11-08T02:00:00	4	Temperatura máxima	11.3
86279	7	Sololá	701	Sololá	4	Finca Santa Victoria	1	Enero	2023-01-27T00:00:00	2024-11-08T02:00:00	3	Temperatura mínima	11.1
86280	7	Sololá	701	Sololá	4	Finca Santa Victoria	1	Enero	2023-01-27T00:00:00	2024-11-08T02:00:00	5	Humedad	89
86281	7	Sololá	701	Sololá	4	Finca Santa Victoria	1	Enero	2023-01-27T00:00:00	2024-11-08T02:00:00	6	Velocidad del viento	8
86282	7	Sololá	701	Sololá	4	Finca Santa Victoria	1	Enero	2023-01-27T00:00:00	2024-11-08T02:00:00	7	Dirección del viento	8.05
86283	7	Sololá	701	Sololá	4	Finca Santa Victoria	1	Enero	2023-01-27T00:00:00	2024-11-08T02:00:00	1	Precipitación	0
86284	7	Sololá	701	Sololá	4	Finca Santa Victoria	1	Enero	2023-01-27T00:00:00	2024-11-08T02:00:00	8	Radiación solar	0
86285	7	Sololá	701	Sololá	4	Finca Santa Victoria	1	Enero	2023-01-27T00:00:00	2024-11-08T03:00:00	2	Temperatura media	11.1
86286	7	Sololá	701	Sololá	4	Finca Santa Victoria	1	Enero	2023-01-27T00:00:00	2024-11-08T03:00:00	4	Temperatura máxima	11.2
86287	7	Sololá	701	Sololá	4	Finca Santa Victoria	1	Enero	2023-01-27T00:00:00	2024-11-08T03:00:00	3	Temperatura mínima	10.9
86288	7	Sololá	701	Sololá	4	Finca Santa Victoria	1	Enero	2023-01-27T00:00:00	2024-11-08T03:00:00	5	Humedad	90
86289	7	Sololá	701	Sololá	4	Finca Santa Victoria	1	Enero	2023-01-27T00:00:00	2024-11-08T03:00:00	6	Velocidad del viento	8
86290	7	Sololá	701	Sololá	4	Finca Santa Victoria	1	Enero	2023-01-27T00:00:00	2024-11-08T03:00:00	7	Dirección del viento	8.05
86291	7	Sololá	701	Sololá	4	Finca Santa Victoria	1	Enero	2023-01-27T00:00:00	2024-11-08T03:00:00	1	Precipitación	0
86292	7	Sololá	701	Sololá	4	Finca Santa Victoria	1	Enero	2023-01-27T00:00:00	2024-11-08T03:00:00	8	Radiación solar	0
86293	7	Sololá	701	Sololá	4	Finca Santa Victoria	1	Enero	2023-01-27T00:00:00	2024-11-08T04:00:00	2	Temperatura media	11.4
86294	7	Sololá	701	Sololá	4	Finca Santa Victoria	1	Enero	2023-01-27T00:00:00	2024-11-08T04:00:00	4	Temperatura máxima	11.4
86295	7	Sololá	701	Sololá	4	Finca Santa Victoria	1	Enero	2023-01-27T00:00:00	2024-11-08T04:00:00	3	Temperatura mínima	10.9
86296	7	Sololá	701	Sololá	4	Finca Santa Victoria	1	Enero	2023-01-27T00:00:00	2024-11-08T04:00:00	5	Humedad	89
86297	7	Sololá	701	Sololá	4	Finca Santa Victoria	1	Enero	2023-01-27T00:00:00	2024-11-08T04:00:00	6	Velocidad del viento	6.4
86298	7	Sololá	701	Sololá	4	Finca Santa Victoria	1	Enero	2023-01-27T00:00:00	2024-11-08T04:00:00	7	Dirección del viento	6.44
86299	7	Sololá	701	Sololá	4	Finca Santa Victoria	1	Enero	2023-01-27T00:00:00	2024-11-08T04:00:00	1	Precipitación	0
86300	7	Sololá	701	Sololá	4	Finca Santa Victoria	1	Enero	2023-01-27T00:00:00	2024-11-08T04:00:00	8	Radiación solar	0
86301	7	Sololá	701	Sololá	4	Finca Santa Victoria	1	Enero	2023-01-27T00:00:00	2024-11-08T05:00:00	2	Temperatura media	11.3
86302	7	Sololá	701	Sololá	4	Finca Santa Victoria	1	Enero	2023-01-27T00:00:00	2024-11-08T05:00:00	4	Temperatura máxima	11.4
86303	7	Sololá	701	Sololá	4	Finca Santa Victoria	1	Enero	2023-01-27T00:00:00	2024-11-08T05:00:00	3	Temperatura mínima	11.2
86304	7	Sololá	701	Sololá	4	Finca Santa Victoria	1	Enero	2023-01-27T00:00:00	2024-11-08T05:00:00	5	Humedad	90
86305	7	Sololá	701	Sololá	4	Finca Santa Victoria	1	Enero	2023-01-27T00:00:00	2024-11-08T05:00:00	6	Velocidad del viento	6.4
86306	7	Sololá	701	Sololá	4	Finca Santa Victoria	1	Enero	2023-01-27T00:00:00	2024-11-08T05:00:00	7	Dirección del viento	6.44
86307	7	Sololá	701	Sololá	4	Finca Santa Victoria	1	Enero	2023-01-27T00:00:00	2024-11-08T05:00:00	1	Precipitación	0
86308	7	Sololá	701	Sololá	4	Finca Santa Victoria	1	Enero	2023-01-27T00:00:00	2024-11-08T05:00:00	8	Radiación solar	0
86309	7	Sololá	701	Sololá	4	Finca Santa Victoria	1	Enero	2023-01-27T00:00:00	2024-11-08T06:00:00	2	Temperatura media	11.3
86310	7	Sololá	701	Sololá	4	Finca Santa Victoria	1	Enero	2023-01-27T00:00:00	2024-11-08T06:00:00	4	Temperatura máxima	11.3
86311	7	Sololá	701	Sololá	4	Finca Santa Victoria	1	Enero	2023-01-27T00:00:00	2024-11-08T06:00:00	3	Temperatura mínima	11.2
86312	7	Sololá	701	Sololá	4	Finca Santa Victoria	1	Enero	2023-01-27T00:00:00	2024-11-08T06:00:00	5	Humedad	87
86313	7	Sololá	701	Sololá	4	Finca Santa Victoria	1	Enero	2023-01-27T00:00:00	2024-11-08T06:00:00	6	Velocidad del viento	4.8
86314	7	Sololá	701	Sololá	4	Finca Santa Victoria	1	Enero	2023-01-27T00:00:00	2024-11-08T06:00:00	7	Dirección del viento	4.83
86315	7	Sololá	701	Sololá	4	Finca Santa Victoria	1	Enero	2023-01-27T00:00:00	2024-11-08T06:00:00	1	Precipitación	0
86316	7	Sololá	701	Sololá	4	Finca Santa Victoria	1	Enero	2023-01-27T00:00:00	2024-11-08T06:00:00	8	Radiación solar	0
86317	7	Sololá	701	Sololá	4	Finca Santa Victoria	1	Enero	2023-01-27T00:00:00	2024-11-08T07:00:00	2	Temperatura media	11.4
86318	7	Sololá	701	Sololá	4	Finca Santa Victoria	1	Enero	2023-01-27T00:00:00	2024-11-08T07:00:00	4	Temperatura máxima	11.4
86319	7	Sololá	701	Sololá	4	Finca Santa Victoria	1	Enero	2023-01-27T00:00:00	2024-11-08T07:00:00	3	Temperatura mínima	11.2
86320	7	Sololá	701	Sololá	4	Finca Santa Victoria	1	Enero	2023-01-27T00:00:00	2024-11-08T07:00:00	5	Humedad	86
86321	7	Sololá	701	Sololá	4	Finca Santa Victoria	1	Enero	2023-01-27T00:00:00	2024-11-08T07:00:00	6	Velocidad del viento	4.8
86322	7	Sololá	701	Sololá	4	Finca Santa Victoria	1	Enero	2023-01-27T00:00:00	2024-11-08T07:00:00	7	Dirección del viento	4.83
86323	7	Sololá	701	Sololá	4	Finca Santa Victoria	1	Enero	2023-01-27T00:00:00	2024-11-08T07:00:00	1	Precipitación	0
86324	7	Sololá	701	Sololá	4	Finca Santa Victoria	1	Enero	2023-01-27T00:00:00	2024-11-08T07:00:00	8	Radiación solar	6
86325	7	Sololá	701	Sololá	4	Finca Santa Victoria	1	Enero	2023-01-27T00:00:00	2024-11-08T08:00:00	2	Temperatura media	12.3
86326	7	Sololá	701	Sololá	4	Finca Santa Victoria	1	Enero	2023-01-27T00:00:00	2024-11-08T08:00:00	4	Temperatura máxima	12.3
86327	7	Sololá	701	Sololá	4	Finca Santa Victoria	1	Enero	2023-01-27T00:00:00	2024-11-08T08:00:00	3	Temperatura mínima	11.3
86328	7	Sololá	701	Sololá	4	Finca Santa Victoria	1	Enero	2023-01-27T00:00:00	2024-11-08T08:00:00	5	Humedad	84
86329	7	Sololá	701	Sololá	4	Finca Santa Victoria	1	Enero	2023-01-27T00:00:00	2024-11-08T08:00:00	6	Velocidad del viento	6.4
86330	7	Sololá	701	Sololá	4	Finca Santa Victoria	1	Enero	2023-01-27T00:00:00	2024-11-08T08:00:00	7	Dirección del viento	6.44
86331	7	Sololá	701	Sololá	4	Finca Santa Victoria	1	Enero	2023-01-27T00:00:00	2024-11-08T08:00:00	1	Precipitación	0
86332	7	Sololá	701	Sololá	4	Finca Santa Victoria	1	Enero	2023-01-27T00:00:00	2024-11-08T08:00:00	8	Radiación solar	45
86333	7	Sololá	701	Sololá	4	Finca Santa Victoria	1	Enero	2023-01-27T00:00:00	2024-11-08T09:00:00	2	Temperatura media	13.7
86334	7	Sololá	701	Sololá	4	Finca Santa Victoria	1	Enero	2023-01-27T00:00:00	2024-11-08T09:00:00	4	Temperatura máxima	13.7
86335	7	Sololá	701	Sololá	4	Finca Santa Victoria	1	Enero	2023-01-27T00:00:00	2024-11-08T09:00:00	3	Temperatura mínima	12.3
86336	7	Sololá	701	Sololá	4	Finca Santa Victoria	1	Enero	2023-01-27T00:00:00	2024-11-08T09:00:00	5	Humedad	81
86337	7	Sololá	701	Sololá	4	Finca Santa Victoria	1	Enero	2023-01-27T00:00:00	2024-11-08T09:00:00	6	Velocidad del viento	8
86338	7	Sololá	701	Sololá	4	Finca Santa Victoria	1	Enero	2023-01-27T00:00:00	2024-11-08T09:00:00	7	Dirección del viento	8.05
86339	7	Sololá	701	Sololá	4	Finca Santa Victoria	1	Enero	2023-01-27T00:00:00	2024-11-08T09:00:00	1	Precipitación	0
86340	7	Sololá	701	Sololá	4	Finca Santa Victoria	1	Enero	2023-01-27T00:00:00	2024-11-08T09:00:00	8	Radiación solar	152
86341	7	Sololá	701	Sololá	4	Finca Santa Victoria	1	Enero	2023-01-27T00:00:00	2024-11-08T10:00:00	2	Temperatura media	13.5
86342	7	Sololá	701	Sololá	4	Finca Santa Victoria	1	Enero	2023-01-27T00:00:00	2024-11-08T10:00:00	4	Temperatura máxima	14.1
86343	7	Sololá	701	Sololá	4	Finca Santa Victoria	1	Enero	2023-01-27T00:00:00	2024-11-08T10:00:00	3	Temperatura mínima	12.9
86344	7	Sololá	701	Sololá	4	Finca Santa Victoria	1	Enero	2023-01-27T00:00:00	2024-11-08T10:00:00	5	Humedad	82
86345	7	Sololá	701	Sololá	4	Finca Santa Victoria	1	Enero	2023-01-27T00:00:00	2024-11-08T10:00:00	6	Velocidad del viento	8
86346	7	Sololá	701	Sololá	4	Finca Santa Victoria	1	Enero	2023-01-27T00:00:00	2024-11-08T10:00:00	7	Dirección del viento	8.05
86347	7	Sololá	701	Sololá	4	Finca Santa Victoria	1	Enero	2023-01-27T00:00:00	2024-11-08T10:00:00	1	Precipitación	0
86348	7	Sololá	701	Sololá	4	Finca Santa Victoria	1	Enero	2023-01-27T00:00:00	2024-11-08T10:00:00	8	Radiación solar	226
86349	7	Sololá	701	Sololá	4	Finca Santa Victoria	1	Enero	2023-01-27T00:00:00	2024-11-08T11:00:00	2	Temperatura media	14.2
86350	7	Sololá	701	Sololá	4	Finca Santa Victoria	1	Enero	2023-01-27T00:00:00	2024-11-08T11:00:00	4	Temperatura máxima	14.2
86351	7	Sololá	701	Sololá	4	Finca Santa Victoria	1	Enero	2023-01-27T00:00:00	2024-11-08T11:00:00	3	Temperatura mínima	13.2
86352	7	Sololá	701	Sololá	4	Finca Santa Victoria	1	Enero	2023-01-27T00:00:00	2024-11-08T11:00:00	5	Humedad	79
86353	7	Sololá	701	Sololá	4	Finca Santa Victoria	1	Enero	2023-01-27T00:00:00	2024-11-08T11:00:00	6	Velocidad del viento	4.8
86354	7	Sololá	701	Sololá	4	Finca Santa Victoria	1	Enero	2023-01-27T00:00:00	2024-11-08T11:00:00	7	Dirección del viento	4.83
86355	7	Sololá	701	Sololá	4	Finca Santa Victoria	1	Enero	2023-01-27T00:00:00	2024-11-08T11:00:00	1	Precipitación	0
86356	7	Sololá	701	Sololá	4	Finca Santa Victoria	1	Enero	2023-01-27T00:00:00	2024-11-08T11:00:00	8	Radiación solar	210
86357	7	Sololá	701	Sololá	4	Finca Santa Victoria	1	Enero	2023-01-27T00:00:00	2024-11-08T12:00:00	2	Temperatura media	16.1
86358	7	Sololá	701	Sololá	4	Finca Santa Victoria	1	Enero	2023-01-27T00:00:00	2024-11-08T12:00:00	4	Temperatura máxima	16.1
86359	7	Sololá	701	Sololá	4	Finca Santa Victoria	1	Enero	2023-01-27T00:00:00	2024-11-08T12:00:00	3	Temperatura mínima	14.2
86360	7	Sololá	701	Sololá	4	Finca Santa Victoria	1	Enero	2023-01-27T00:00:00	2024-11-08T12:00:00	5	Humedad	72
86361	7	Sololá	701	Sololá	4	Finca Santa Victoria	1	Enero	2023-01-27T00:00:00	2024-11-08T12:00:00	6	Velocidad del viento	6.4
86362	7	Sololá	701	Sololá	4	Finca Santa Victoria	1	Enero	2023-01-27T00:00:00	2024-11-08T12:00:00	7	Dirección del viento	6.44
86363	7	Sololá	701	Sololá	4	Finca Santa Victoria	1	Enero	2023-01-27T00:00:00	2024-11-08T12:00:00	1	Precipitación	0
86364	7	Sololá	701	Sololá	4	Finca Santa Victoria	1	Enero	2023-01-27T00:00:00	2024-11-08T12:00:00	8	Radiación solar	335
86365	7	Sololá	701	Sololá	4	Finca Santa Victoria	1	Enero	2023-01-27T00:00:00	2024-11-08T13:00:00	2	Temperatura media	15.8
86366	7	Sololá	701	Sololá	4	Finca Santa Victoria	1	Enero	2023-01-27T00:00:00	2024-11-08T13:00:00	4	Temperatura máxima	16.3
86367	7	Sololá	701	Sololá	4	Finca Santa Victoria	1	Enero	2023-01-27T00:00:00	2024-11-08T13:00:00	3	Temperatura mínima	15.4
86368	7	Sololá	701	Sololá	4	Finca Santa Victoria	1	Enero	2023-01-27T00:00:00	2024-11-08T13:00:00	5	Humedad	75
86369	7	Sololá	701	Sololá	4	Finca Santa Victoria	1	Enero	2023-01-27T00:00:00	2024-11-08T13:00:00	6	Velocidad del viento	4.8
86370	7	Sololá	701	Sololá	4	Finca Santa Victoria	1	Enero	2023-01-27T00:00:00	2024-11-08T13:00:00	7	Dirección del viento	4.83
86371	7	Sololá	701	Sololá	4	Finca Santa Victoria	1	Enero	2023-01-27T00:00:00	2024-11-08T13:00:00	1	Precipitación	0
86372	7	Sololá	701	Sololá	4	Finca Santa Victoria	1	Enero	2023-01-27T00:00:00	2024-11-08T13:00:00	8	Radiación solar	318
86373	7	Sololá	701	Sololá	4	Finca Santa Victoria	1	Enero	2023-01-27T00:00:00	2024-11-08T14:00:00	2	Temperatura media	14.7
86374	7	Sololá	701	Sololá	4	Finca Santa Victoria	1	Enero	2023-01-27T00:00:00	2024-11-08T14:00:00	4	Temperatura máxima	15.8
86375	7	Sololá	701	Sololá	4	Finca Santa Victoria	1	Enero	2023-01-27T00:00:00	2024-11-08T14:00:00	3	Temperatura mínima	14.3
86376	7	Sololá	701	Sololá	4	Finca Santa Victoria	1	Enero	2023-01-27T00:00:00	2024-11-08T14:00:00	5	Humedad	79
86377	7	Sololá	701	Sololá	4	Finca Santa Victoria	1	Enero	2023-01-27T00:00:00	2024-11-08T14:00:00	6	Velocidad del viento	3.2
86378	7	Sololá	701	Sololá	4	Finca Santa Victoria	1	Enero	2023-01-27T00:00:00	2024-11-08T14:00:00	7	Dirección del viento	3.22
86379	7	Sololá	701	Sololá	4	Finca Santa Victoria	1	Enero	2023-01-27T00:00:00	2024-11-08T14:00:00	1	Precipitación	0
86380	7	Sololá	701	Sololá	4	Finca Santa Victoria	1	Enero	2023-01-27T00:00:00	2024-11-08T14:00:00	8	Radiación solar	208
86381	7	Sololá	701	Sololá	4	Finca Santa Victoria	1	Enero	2023-01-27T00:00:00	2024-11-08T15:00:00	2	Temperatura media	14.2
86382	7	Sololá	701	Sololá	4	Finca Santa Victoria	1	Enero	2023-01-27T00:00:00	2024-11-08T15:00:00	4	Temperatura máxima	14.7
86383	7	Sololá	701	Sololá	4	Finca Santa Victoria	1	Enero	2023-01-27T00:00:00	2024-11-08T15:00:00	3	Temperatura mínima	14.1
86384	7	Sololá	701	Sololá	4	Finca Santa Victoria	1	Enero	2023-01-27T00:00:00	2024-11-08T15:00:00	5	Humedad	81
86385	7	Sololá	701	Sololá	4	Finca Santa Victoria	1	Enero	2023-01-27T00:00:00	2024-11-08T15:00:00	6	Velocidad del viento	4.8
86386	7	Sololá	701	Sololá	4	Finca Santa Victoria	1	Enero	2023-01-27T00:00:00	2024-11-08T15:00:00	7	Dirección del viento	4.83
86387	7	Sololá	701	Sololá	4	Finca Santa Victoria	1	Enero	2023-01-27T00:00:00	2024-11-08T15:00:00	1	Precipitación	0
86388	7	Sololá	701	Sololá	4	Finca Santa Victoria	1	Enero	2023-01-27T00:00:00	2024-11-08T15:00:00	8	Radiación solar	151
86389	7	Sololá	701	Sololá	4	Finca Santa Victoria	1	Enero	2023-01-27T00:00:00	2024-11-08T16:00:00	2	Temperatura media	14.6
86390	7	Sololá	701	Sololá	4	Finca Santa Victoria	1	Enero	2023-01-27T00:00:00	2024-11-08T16:00:00	4	Temperatura máxima	14.7
86391	7	Sololá	701	Sololá	4	Finca Santa Victoria	1	Enero	2023-01-27T00:00:00	2024-11-08T16:00:00	3	Temperatura mínima	13.8
86392	7	Sololá	701	Sololá	4	Finca Santa Victoria	1	Enero	2023-01-27T00:00:00	2024-11-08T16:00:00	5	Humedad	78
86393	7	Sololá	701	Sololá	4	Finca Santa Victoria	1	Enero	2023-01-27T00:00:00	2024-11-08T16:00:00	6	Velocidad del viento	6.4
86394	7	Sololá	701	Sololá	4	Finca Santa Victoria	1	Enero	2023-01-27T00:00:00	2024-11-08T16:00:00	7	Dirección del viento	6.44
86395	7	Sololá	701	Sololá	4	Finca Santa Victoria	1	Enero	2023-01-27T00:00:00	2024-11-08T16:00:00	1	Precipitación	0
86396	7	Sololá	701	Sololá	4	Finca Santa Victoria	1	Enero	2023-01-27T00:00:00	2024-11-08T16:00:00	8	Radiación solar	152
86397	7	Sololá	701	Sololá	4	Finca Santa Victoria	1	Enero	2023-01-27T00:00:00	2024-11-08T17:00:00	2	Temperatura media	13.4
86398	7	Sololá	701	Sololá	4	Finca Santa Victoria	1	Enero	2023-01-27T00:00:00	2024-11-08T17:00:00	4	Temperatura máxima	14.6
86399	7	Sololá	701	Sololá	4	Finca Santa Victoria	1	Enero	2023-01-27T00:00:00	2024-11-08T17:00:00	3	Temperatura mínima	13.4
86400	7	Sololá	701	Sololá	4	Finca Santa Victoria	1	Enero	2023-01-27T00:00:00	2024-11-08T17:00:00	5	Humedad	83
86401	7	Sololá	701	Sololá	4	Finca Santa Victoria	1	Enero	2023-01-27T00:00:00	2024-11-08T17:00:00	6	Velocidad del viento	4.8
86402	7	Sololá	701	Sololá	4	Finca Santa Victoria	1	Enero	2023-01-27T00:00:00	2024-11-08T17:00:00	7	Dirección del viento	4.83
86403	7	Sololá	701	Sololá	4	Finca Santa Victoria	1	Enero	2023-01-27T00:00:00	2024-11-08T17:00:00	1	Precipitación	0
86404	7	Sololá	701	Sololá	4	Finca Santa Victoria	1	Enero	2023-01-27T00:00:00	2024-11-08T17:00:00	8	Radiación solar	88
86405	7	Sololá	701	Sololá	4	Finca Santa Victoria	1	Enero	2023-01-27T00:00:00	2024-11-08T18:00:00	2	Temperatura media	12.6
86406	7	Sololá	701	Sololá	4	Finca Santa Victoria	1	Enero	2023-01-27T00:00:00	2024-11-08T18:00:00	4	Temperatura máxima	13.4
86407	7	Sololá	701	Sololá	4	Finca Santa Victoria	1	Enero	2023-01-27T00:00:00	2024-11-08T18:00:00	3	Temperatura mínima	12.6
86408	7	Sololá	701	Sololá	4	Finca Santa Victoria	1	Enero	2023-01-27T00:00:00	2024-11-08T18:00:00	5	Humedad	87
86409	7	Sololá	701	Sololá	4	Finca Santa Victoria	1	Enero	2023-01-27T00:00:00	2024-11-08T18:00:00	6	Velocidad del viento	4.8
86410	7	Sololá	701	Sololá	4	Finca Santa Victoria	1	Enero	2023-01-27T00:00:00	2024-11-08T18:00:00	7	Dirección del viento	4.83
86411	7	Sololá	701	Sololá	4	Finca Santa Victoria	1	Enero	2023-01-27T00:00:00	2024-11-08T18:00:00	1	Precipitación	0
86412	7	Sololá	701	Sololá	4	Finca Santa Victoria	1	Enero	2023-01-27T00:00:00	2024-11-08T18:00:00	8	Radiación solar	21
86413	7	Sololá	701	Sololá	4	Finca Santa Victoria	1	Enero	2023-01-27T00:00:00	2024-11-08T19:00:00	2	Temperatura media	11.8
86414	7	Sololá	701	Sololá	4	Finca Santa Victoria	1	Enero	2023-01-27T00:00:00	2024-11-08T19:00:00	4	Temperatura máxima	12.6
86415	7	Sololá	701	Sololá	4	Finca Santa Victoria	1	Enero	2023-01-27T00:00:00	2024-11-08T19:00:00	3	Temperatura mínima	11.8
86416	7	Sololá	701	Sololá	4	Finca Santa Victoria	1	Enero	2023-01-27T00:00:00	2024-11-08T19:00:00	5	Humedad	90
86417	7	Sololá	701	Sololá	4	Finca Santa Victoria	1	Enero	2023-01-27T00:00:00	2024-11-08T19:00:00	6	Velocidad del viento	3.2
86418	7	Sololá	701	Sololá	4	Finca Santa Victoria	1	Enero	2023-01-27T00:00:00	2024-11-08T19:00:00	7	Dirección del viento	3.22
86419	7	Sololá	701	Sololá	4	Finca Santa Victoria	1	Enero	2023-01-27T00:00:00	2024-11-08T19:00:00	1	Precipitación	0
86420	7	Sololá	701	Sololá	4	Finca Santa Victoria	1	Enero	2023-01-27T00:00:00	2024-11-08T19:00:00	8	Radiación solar	0
86421	7	Sololá	701	Sololá	4	Finca Santa Victoria	1	Enero	2023-01-27T00:00:00	2024-11-08T20:00:00	2	Temperatura media	11.8
86422	7	Sololá	701	Sololá	4	Finca Santa Victoria	1	Enero	2023-01-27T00:00:00	2024-11-08T20:00:00	4	Temperatura máxima	12
86423	7	Sololá	701	Sololá	4	Finca Santa Victoria	1	Enero	2023-01-27T00:00:00	2024-11-08T20:00:00	3	Temperatura mínima	11.8
86424	7	Sololá	701	Sololá	4	Finca Santa Victoria	1	Enero	2023-01-27T00:00:00	2024-11-08T20:00:00	5	Humedad	91
86425	7	Sololá	701	Sololá	4	Finca Santa Victoria	1	Enero	2023-01-27T00:00:00	2024-11-08T20:00:00	6	Velocidad del viento	3.2
86426	7	Sololá	701	Sololá	4	Finca Santa Victoria	1	Enero	2023-01-27T00:00:00	2024-11-08T20:00:00	7	Dirección del viento	3.22
86427	7	Sololá	701	Sololá	4	Finca Santa Victoria	1	Enero	2023-01-27T00:00:00	2024-11-08T20:00:00	1	Precipitación	0
86428	7	Sololá	701	Sololá	4	Finca Santa Victoria	1	Enero	2023-01-27T00:00:00	2024-11-08T20:00:00	8	Radiación solar	0
86429	7	Sololá	701	Sololá	4	Finca Santa Victoria	1	Enero	2023-01-27T00:00:00	2024-11-08T21:00:00	2	Temperatura media	11.7
86430	7	Sololá	701	Sololá	4	Finca Santa Victoria	1	Enero	2023-01-27T00:00:00	2024-11-08T21:00:00	4	Temperatura máxima	11.8
86431	7	Sololá	701	Sololá	4	Finca Santa Victoria	1	Enero	2023-01-27T00:00:00	2024-11-08T21:00:00	3	Temperatura mínima	11.7
86432	7	Sololá	701	Sololá	4	Finca Santa Victoria	1	Enero	2023-01-27T00:00:00	2024-11-08T21:00:00	5	Humedad	89
86433	7	Sololá	701	Sololá	4	Finca Santa Victoria	1	Enero	2023-01-27T00:00:00	2024-11-08T21:00:00	6	Velocidad del viento	4.8
86434	7	Sololá	701	Sololá	4	Finca Santa Victoria	1	Enero	2023-01-27T00:00:00	2024-11-08T21:00:00	7	Dirección del viento	4.83
86435	7	Sololá	701	Sololá	4	Finca Santa Victoria	1	Enero	2023-01-27T00:00:00	2024-11-08T21:00:00	1	Precipitación	0
86436	7	Sololá	701	Sololá	4	Finca Santa Victoria	1	Enero	2023-01-27T00:00:00	2024-11-08T21:00:00	8	Radiación solar	0
86437	7	Sololá	701	Sololá	4	Finca Santa Victoria	1	Enero	2023-01-27T00:00:00	2024-11-08T22:00:00	2	Temperatura media	11.1
86438	7	Sololá	701	Sololá	4	Finca Santa Victoria	1	Enero	2023-01-27T00:00:00	2024-11-08T22:00:00	4	Temperatura máxima	11.8
86439	7	Sololá	701	Sololá	4	Finca Santa Victoria	1	Enero	2023-01-27T00:00:00	2024-11-08T22:00:00	3	Temperatura mínima	11.1
86440	7	Sololá	701	Sololá	4	Finca Santa Victoria	1	Enero	2023-01-27T00:00:00	2024-11-08T22:00:00	5	Humedad	74
86441	7	Sololá	701	Sololá	4	Finca Santa Victoria	1	Enero	2023-01-27T00:00:00	2024-11-08T22:00:00	6	Velocidad del viento	6.4
86442	7	Sololá	701	Sololá	4	Finca Santa Victoria	1	Enero	2023-01-27T00:00:00	2024-11-08T22:00:00	7	Dirección del viento	6.44
86443	7	Sololá	701	Sololá	4	Finca Santa Victoria	1	Enero	2023-01-27T00:00:00	2024-11-08T22:00:00	1	Precipitación	0
86444	7	Sololá	701	Sololá	4	Finca Santa Victoria	1	Enero	2023-01-27T00:00:00	2024-11-08T22:00:00	8	Radiación solar	0
86445	7	Sololá	701	Sololá	4	Finca Santa Victoria	1	Enero	2023-01-27T00:00:00	2024-11-08T23:00:00	2	Temperatura media	10.3
86446	7	Sololá	701	Sololá	4	Finca Santa Victoria	1	Enero	2023-01-27T00:00:00	2024-11-08T23:00:00	4	Temperatura máxima	11.2
86447	7	Sololá	701	Sololá	4	Finca Santa Victoria	1	Enero	2023-01-27T00:00:00	2024-11-08T23:00:00	3	Temperatura mínima	10.3
86448	7	Sololá	701	Sololá	4	Finca Santa Victoria	1	Enero	2023-01-27T00:00:00	2024-11-08T23:00:00	5	Humedad	77
86449	7	Sololá	701	Sololá	4	Finca Santa Victoria	1	Enero	2023-01-27T00:00:00	2024-11-08T23:00:00	6	Velocidad del viento	4.8
86450	7	Sololá	701	Sololá	4	Finca Santa Victoria	1	Enero	2023-01-27T00:00:00	2024-11-08T23:00:00	7	Dirección del viento	4.83
86451	7	Sololá	701	Sololá	4	Finca Santa Victoria	1	Enero	2023-01-27T00:00:00	2024-11-08T23:00:00	1	Precipitación	0
86452	7	Sololá	701	Sololá	4	Finca Santa Victoria	1	Enero	2023-01-27T00:00:00	2024-11-08T23:00:00	8	Radiación solar	0
86453	7	Sololá	701	Sololá	4	Finca Santa Victoria	1	Enero	2023-01-28T00:00:00	2024-11-08T00:00:00	2	Temperatura media	9.2
86454	7	Sololá	701	Sololá	4	Finca Santa Victoria	1	Enero	2023-01-28T00:00:00	2024-11-08T00:00:00	4	Temperatura máxima	10.3
86455	7	Sololá	701	Sololá	4	Finca Santa Victoria	1	Enero	2023-01-28T00:00:00	2024-11-08T00:00:00	3	Temperatura mínima	9.2
86456	7	Sololá	701	Sololá	4	Finca Santa Victoria	1	Enero	2023-01-28T00:00:00	2024-11-08T00:00:00	5	Humedad	80
86457	7	Sololá	701	Sololá	4	Finca Santa Victoria	1	Enero	2023-01-28T00:00:00	2024-11-08T00:00:00	6	Velocidad del viento	3.2
86458	7	Sololá	701	Sololá	4	Finca Santa Victoria	1	Enero	2023-01-28T00:00:00	2024-11-08T00:00:00	7	Dirección del viento	3.22
86459	7	Sololá	701	Sololá	4	Finca Santa Victoria	1	Enero	2023-01-28T00:00:00	2024-11-08T00:00:00	1	Precipitación	0
86460	7	Sololá	701	Sololá	4	Finca Santa Victoria	1	Enero	2023-01-28T00:00:00	2024-11-08T00:00:00	8	Radiación solar	0
86461	7	Sololá	701	Sololá	4	Finca Santa Victoria	1	Enero	2023-01-28T00:00:00	2024-11-08T01:00:00	2	Temperatura media	9.1
86462	7	Sololá	701	Sololá	4	Finca Santa Victoria	1	Enero	2023-01-28T00:00:00	2024-11-08T01:00:00	4	Temperatura máxima	9.4
86463	7	Sololá	701	Sololá	4	Finca Santa Victoria	1	Enero	2023-01-28T00:00:00	2024-11-08T01:00:00	3	Temperatura mínima	9
86464	7	Sololá	701	Sololá	4	Finca Santa Victoria	1	Enero	2023-01-28T00:00:00	2024-11-08T01:00:00	5	Humedad	76
86465	7	Sololá	701	Sololá	4	Finca Santa Victoria	1	Enero	2023-01-28T00:00:00	2024-11-08T01:00:00	6	Velocidad del viento	3.2
86466	7	Sololá	701	Sololá	4	Finca Santa Victoria	1	Enero	2023-01-28T00:00:00	2024-11-08T01:00:00	7	Dirección del viento	3.22
86467	7	Sololá	701	Sololá	4	Finca Santa Victoria	1	Enero	2023-01-28T00:00:00	2024-11-08T01:00:00	1	Precipitación	0
86468	7	Sololá	701	Sololá	4	Finca Santa Victoria	1	Enero	2023-01-28T00:00:00	2024-11-08T01:00:00	8	Radiación solar	0
86469	7	Sololá	701	Sololá	4	Finca Santa Victoria	1	Enero	2023-01-28T00:00:00	2024-11-08T02:00:00	2	Temperatura media	9.2
86470	7	Sololá	701	Sololá	4	Finca Santa Victoria	1	Enero	2023-01-28T00:00:00	2024-11-08T02:00:00	4	Temperatura máxima	9.3
86471	7	Sololá	701	Sololá	4	Finca Santa Victoria	1	Enero	2023-01-28T00:00:00	2024-11-08T02:00:00	3	Temperatura mínima	8.7
86472	7	Sololá	701	Sololá	4	Finca Santa Victoria	1	Enero	2023-01-28T00:00:00	2024-11-08T02:00:00	5	Humedad	74
86473	7	Sololá	701	Sololá	4	Finca Santa Victoria	1	Enero	2023-01-28T00:00:00	2024-11-08T02:00:00	6	Velocidad del viento	4.8
86474	7	Sololá	701	Sololá	4	Finca Santa Victoria	1	Enero	2023-01-28T00:00:00	2024-11-08T02:00:00	7	Dirección del viento	4.83
86475	7	Sololá	701	Sololá	4	Finca Santa Victoria	1	Enero	2023-01-28T00:00:00	2024-11-08T02:00:00	1	Precipitación	0
86476	7	Sololá	701	Sololá	4	Finca Santa Victoria	1	Enero	2023-01-28T00:00:00	2024-11-08T02:00:00	8	Radiación solar	0
86477	7	Sololá	701	Sololá	4	Finca Santa Victoria	1	Enero	2023-01-28T00:00:00	2024-11-08T03:00:00	2	Temperatura media	9
86478	7	Sololá	701	Sololá	4	Finca Santa Victoria	1	Enero	2023-01-28T00:00:00	2024-11-08T03:00:00	4	Temperatura máxima	9.2
86479	7	Sololá	701	Sololá	4	Finca Santa Victoria	1	Enero	2023-01-28T00:00:00	2024-11-08T03:00:00	3	Temperatura mínima	8.8
86480	7	Sololá	701	Sololá	4	Finca Santa Victoria	1	Enero	2023-01-28T00:00:00	2024-11-08T03:00:00	5	Humedad	80
86481	7	Sololá	701	Sololá	4	Finca Santa Victoria	1	Enero	2023-01-28T00:00:00	2024-11-08T03:00:00	6	Velocidad del viento	4.8
86482	7	Sololá	701	Sololá	4	Finca Santa Victoria	1	Enero	2023-01-28T00:00:00	2024-11-08T03:00:00	7	Dirección del viento	4.83
86483	7	Sololá	701	Sololá	4	Finca Santa Victoria	1	Enero	2023-01-28T00:00:00	2024-11-08T03:00:00	1	Precipitación	0
86484	7	Sololá	701	Sololá	4	Finca Santa Victoria	1	Enero	2023-01-28T00:00:00	2024-11-08T03:00:00	8	Radiación solar	0
86485	7	Sololá	701	Sololá	4	Finca Santa Victoria	1	Enero	2023-01-28T00:00:00	2024-11-08T04:00:00	2	Temperatura media	10
86486	7	Sololá	701	Sololá	4	Finca Santa Victoria	1	Enero	2023-01-28T00:00:00	2024-11-08T04:00:00	4	Temperatura máxima	10.1
86487	7	Sololá	701	Sololá	4	Finca Santa Victoria	1	Enero	2023-01-28T00:00:00	2024-11-08T04:00:00	3	Temperatura mínima	8.9
86488	7	Sololá	701	Sololá	4	Finca Santa Victoria	1	Enero	2023-01-28T00:00:00	2024-11-08T04:00:00	5	Humedad	86
86489	7	Sololá	701	Sololá	4	Finca Santa Victoria	1	Enero	2023-01-28T00:00:00	2024-11-08T04:00:00	6	Velocidad del viento	6.4
86490	7	Sololá	701	Sololá	4	Finca Santa Victoria	1	Enero	2023-01-28T00:00:00	2024-11-08T04:00:00	7	Dirección del viento	6.44
86491	7	Sololá	701	Sololá	4	Finca Santa Victoria	1	Enero	2023-01-28T00:00:00	2024-11-08T04:00:00	1	Precipitación	0
86492	7	Sololá	701	Sololá	4	Finca Santa Victoria	1	Enero	2023-01-28T00:00:00	2024-11-08T04:00:00	8	Radiación solar	0
86493	7	Sololá	701	Sololá	4	Finca Santa Victoria	1	Enero	2023-01-28T00:00:00	2024-11-08T05:00:00	2	Temperatura media	10.2
86494	7	Sololá	701	Sololá	4	Finca Santa Victoria	1	Enero	2023-01-28T00:00:00	2024-11-08T05:00:00	4	Temperatura máxima	10.2
86495	7	Sololá	701	Sololá	4	Finca Santa Victoria	1	Enero	2023-01-28T00:00:00	2024-11-08T05:00:00	3	Temperatura mínima	9.9
86496	7	Sololá	701	Sololá	4	Finca Santa Victoria	1	Enero	2023-01-28T00:00:00	2024-11-08T05:00:00	5	Humedad	88
86497	7	Sololá	701	Sololá	4	Finca Santa Victoria	1	Enero	2023-01-28T00:00:00	2024-11-08T05:00:00	6	Velocidad del viento	6.4
86498	7	Sololá	701	Sololá	4	Finca Santa Victoria	1	Enero	2023-01-28T00:00:00	2024-11-08T05:00:00	7	Dirección del viento	6.44
86499	7	Sololá	701	Sololá	4	Finca Santa Victoria	1	Enero	2023-01-28T00:00:00	2024-11-08T05:00:00	1	Precipitación	0
86500	7	Sololá	701	Sololá	4	Finca Santa Victoria	1	Enero	2023-01-28T00:00:00	2024-11-08T05:00:00	8	Radiación solar	0
86501	7	Sololá	701	Sololá	4	Finca Santa Victoria	1	Enero	2023-01-28T00:00:00	2024-11-08T06:00:00	2	Temperatura media	10.2
86502	7	Sololá	701	Sololá	4	Finca Santa Victoria	1	Enero	2023-01-28T00:00:00	2024-11-08T06:00:00	4	Temperatura máxima	10.2
86503	7	Sololá	701	Sololá	4	Finca Santa Victoria	1	Enero	2023-01-28T00:00:00	2024-11-08T06:00:00	3	Temperatura mínima	10
86504	7	Sololá	701	Sololá	4	Finca Santa Victoria	1	Enero	2023-01-28T00:00:00	2024-11-08T06:00:00	5	Humedad	89
86505	7	Sololá	701	Sololá	4	Finca Santa Victoria	1	Enero	2023-01-28T00:00:00	2024-11-08T06:00:00	6	Velocidad del viento	4.8
86506	7	Sololá	701	Sololá	4	Finca Santa Victoria	1	Enero	2023-01-28T00:00:00	2024-11-08T06:00:00	7	Dirección del viento	4.83
86507	7	Sololá	701	Sololá	4	Finca Santa Victoria	1	Enero	2023-01-28T00:00:00	2024-11-08T06:00:00	1	Precipitación	0
86508	7	Sololá	701	Sololá	4	Finca Santa Victoria	1	Enero	2023-01-28T00:00:00	2024-11-08T06:00:00	8	Radiación solar	0
86509	7	Sololá	701	Sololá	4	Finca Santa Victoria	1	Enero	2023-01-28T00:00:00	2024-11-08T07:00:00	2	Temperatura media	10.9
86510	7	Sololá	701	Sololá	4	Finca Santa Victoria	1	Enero	2023-01-28T00:00:00	2024-11-08T07:00:00	4	Temperatura máxima	11
86511	7	Sololá	701	Sololá	4	Finca Santa Victoria	1	Enero	2023-01-28T00:00:00	2024-11-08T07:00:00	3	Temperatura mínima	10.2
86512	7	Sololá	701	Sololá	4	Finca Santa Victoria	1	Enero	2023-01-28T00:00:00	2024-11-08T07:00:00	5	Humedad	87
86513	7	Sololá	701	Sololá	4	Finca Santa Victoria	1	Enero	2023-01-28T00:00:00	2024-11-08T07:00:00	6	Velocidad del viento	4.8
86514	7	Sololá	701	Sololá	4	Finca Santa Victoria	1	Enero	2023-01-28T00:00:00	2024-11-08T07:00:00	7	Dirección del viento	4.83
86515	7	Sololá	701	Sololá	4	Finca Santa Victoria	1	Enero	2023-01-28T00:00:00	2024-11-08T07:00:00	1	Precipitación	0
86516	7	Sololá	701	Sololá	4	Finca Santa Victoria	1	Enero	2023-01-28T00:00:00	2024-11-08T07:00:00	8	Radiación solar	4
86517	7	Sololá	701	Sololá	4	Finca Santa Victoria	1	Enero	2023-01-28T00:00:00	2024-11-08T08:00:00	2	Temperatura media	12.2
86518	7	Sololá	701	Sololá	4	Finca Santa Victoria	1	Enero	2023-01-28T00:00:00	2024-11-08T08:00:00	4	Temperatura máxima	12.2
86519	7	Sololá	701	Sololá	4	Finca Santa Victoria	1	Enero	2023-01-28T00:00:00	2024-11-08T08:00:00	3	Temperatura mínima	11
86520	7	Sololá	701	Sololá	4	Finca Santa Victoria	1	Enero	2023-01-28T00:00:00	2024-11-08T08:00:00	5	Humedad	84
86521	7	Sololá	701	Sololá	4	Finca Santa Victoria	1	Enero	2023-01-28T00:00:00	2024-11-08T08:00:00	6	Velocidad del viento	6.4
86522	7	Sololá	701	Sololá	4	Finca Santa Victoria	1	Enero	2023-01-28T00:00:00	2024-11-08T08:00:00	7	Dirección del viento	6.44
86523	7	Sololá	701	Sololá	4	Finca Santa Victoria	1	Enero	2023-01-28T00:00:00	2024-11-08T08:00:00	1	Precipitación	0
86524	7	Sololá	701	Sololá	4	Finca Santa Victoria	1	Enero	2023-01-28T00:00:00	2024-11-08T08:00:00	8	Radiación solar	38
86525	7	Sololá	701	Sololá	4	Finca Santa Victoria	1	Enero	2023-01-28T00:00:00	2024-11-08T09:00:00	2	Temperatura media	14.1
86526	7	Sololá	701	Sololá	4	Finca Santa Victoria	1	Enero	2023-01-28T00:00:00	2024-11-08T09:00:00	4	Temperatura máxima	14.1
86527	7	Sololá	701	Sololá	4	Finca Santa Victoria	1	Enero	2023-01-28T00:00:00	2024-11-08T09:00:00	3	Temperatura mínima	12.2
86528	7	Sololá	701	Sololá	4	Finca Santa Victoria	1	Enero	2023-01-28T00:00:00	2024-11-08T09:00:00	5	Humedad	62
86529	7	Sololá	701	Sololá	4	Finca Santa Victoria	1	Enero	2023-01-28T00:00:00	2024-11-08T09:00:00	6	Velocidad del viento	8
86530	7	Sololá	701	Sololá	4	Finca Santa Victoria	1	Enero	2023-01-28T00:00:00	2024-11-08T09:00:00	7	Dirección del viento	8.05
86531	7	Sololá	701	Sololá	4	Finca Santa Victoria	1	Enero	2023-01-28T00:00:00	2024-11-08T09:00:00	1	Precipitación	0
86532	7	Sololá	701	Sololá	4	Finca Santa Victoria	1	Enero	2023-01-28T00:00:00	2024-11-08T09:00:00	8	Radiación solar	118
86533	7	Sololá	701	Sololá	4	Finca Santa Victoria	1	Enero	2023-01-28T00:00:00	2024-11-08T10:00:00	2	Temperatura media	16.3
86534	7	Sololá	701	Sololá	4	Finca Santa Victoria	1	Enero	2023-01-28T00:00:00	2024-11-08T10:00:00	4	Temperatura máxima	16.3
86535	7	Sololá	701	Sololá	4	Finca Santa Victoria	1	Enero	2023-01-28T00:00:00	2024-11-08T10:00:00	3	Temperatura mínima	14
86536	7	Sololá	701	Sololá	4	Finca Santa Victoria	1	Enero	2023-01-28T00:00:00	2024-11-08T10:00:00	5	Humedad	46
86537	7	Sololá	701	Sololá	4	Finca Santa Victoria	1	Enero	2023-01-28T00:00:00	2024-11-08T10:00:00	6	Velocidad del viento	8
86538	7	Sololá	701	Sololá	4	Finca Santa Victoria	1	Enero	2023-01-28T00:00:00	2024-11-08T10:00:00	7	Dirección del viento	8.05
86539	7	Sololá	701	Sololá	4	Finca Santa Victoria	1	Enero	2023-01-28T00:00:00	2024-11-08T10:00:00	1	Precipitación	0
86540	7	Sololá	701	Sololá	4	Finca Santa Victoria	1	Enero	2023-01-28T00:00:00	2024-11-08T10:00:00	8	Radiación solar	351
86541	7	Sololá	701	Sololá	4	Finca Santa Victoria	1	Enero	2023-01-28T00:00:00	2024-11-08T11:00:00	2	Temperatura media	18
86542	7	Sololá	701	Sololá	4	Finca Santa Victoria	1	Enero	2023-01-28T00:00:00	2024-11-08T11:00:00	4	Temperatura máxima	18
86543	7	Sololá	701	Sololá	4	Finca Santa Victoria	1	Enero	2023-01-28T00:00:00	2024-11-08T11:00:00	3	Temperatura mínima	16.2
86544	7	Sololá	701	Sololá	4	Finca Santa Victoria	1	Enero	2023-01-28T00:00:00	2024-11-08T11:00:00	5	Humedad	41
86545	7	Sololá	701	Sololá	4	Finca Santa Victoria	1	Enero	2023-01-28T00:00:00	2024-11-08T11:00:00	6	Velocidad del viento	6.4
86546	7	Sololá	701	Sololá	4	Finca Santa Victoria	1	Enero	2023-01-28T00:00:00	2024-11-08T11:00:00	7	Dirección del viento	6.44
86547	7	Sololá	701	Sololá	4	Finca Santa Victoria	1	Enero	2023-01-28T00:00:00	2024-11-08T11:00:00	1	Precipitación	0
86548	7	Sololá	701	Sololá	4	Finca Santa Victoria	1	Enero	2023-01-28T00:00:00	2024-11-08T11:00:00	8	Radiación solar	821
86549	7	Sololá	701	Sololá	4	Finca Santa Victoria	1	Enero	2023-01-28T00:00:00	2024-11-08T12:00:00	2	Temperatura media	19.9
86550	7	Sololá	701	Sololá	4	Finca Santa Victoria	1	Enero	2023-01-28T00:00:00	2024-11-08T12:00:00	4	Temperatura máxima	19.9
86551	7	Sololá	701	Sololá	4	Finca Santa Victoria	1	Enero	2023-01-28T00:00:00	2024-11-08T12:00:00	3	Temperatura mínima	18
86552	7	Sololá	701	Sololá	4	Finca Santa Victoria	1	Enero	2023-01-28T00:00:00	2024-11-08T12:00:00	5	Humedad	32
86553	7	Sololá	701	Sololá	4	Finca Santa Victoria	1	Enero	2023-01-28T00:00:00	2024-11-08T12:00:00	6	Velocidad del viento	6.4
86554	7	Sololá	701	Sololá	4	Finca Santa Victoria	1	Enero	2023-01-28T00:00:00	2024-11-08T12:00:00	7	Dirección del viento	6.44
86555	7	Sololá	701	Sololá	4	Finca Santa Victoria	1	Enero	2023-01-28T00:00:00	2024-11-08T12:00:00	1	Precipitación	0
86556	7	Sololá	701	Sololá	4	Finca Santa Victoria	1	Enero	2023-01-28T00:00:00	2024-11-08T12:00:00	8	Radiación solar	910
86557	7	Sololá	701	Sololá	4	Finca Santa Victoria	1	Enero	2023-01-28T00:00:00	2024-11-08T13:00:00	2	Temperatura media	20.5
86558	7	Sololá	701	Sololá	4	Finca Santa Victoria	1	Enero	2023-01-28T00:00:00	2024-11-08T13:00:00	4	Temperatura máxima	20.8
86559	7	Sololá	701	Sololá	4	Finca Santa Victoria	1	Enero	2023-01-28T00:00:00	2024-11-08T13:00:00	3	Temperatura mínima	19.9
86560	7	Sololá	701	Sololá	4	Finca Santa Victoria	1	Enero	2023-01-28T00:00:00	2024-11-08T13:00:00	5	Humedad	32
86561	7	Sololá	701	Sololá	4	Finca Santa Victoria	1	Enero	2023-01-28T00:00:00	2024-11-08T13:00:00	6	Velocidad del viento	4.8
86562	7	Sololá	701	Sololá	4	Finca Santa Victoria	1	Enero	2023-01-28T00:00:00	2024-11-08T13:00:00	7	Dirección del viento	4.83
86563	7	Sololá	701	Sololá	4	Finca Santa Victoria	1	Enero	2023-01-28T00:00:00	2024-11-08T13:00:00	1	Precipitación	0
86564	7	Sololá	701	Sololá	4	Finca Santa Victoria	1	Enero	2023-01-28T00:00:00	2024-11-08T13:00:00	8	Radiación solar	925
86565	7	Sololá	701	Sololá	4	Finca Santa Victoria	1	Enero	2023-01-28T00:00:00	2024-11-08T14:00:00	2	Temperatura media	21.4
86566	7	Sololá	701	Sololá	4	Finca Santa Victoria	1	Enero	2023-01-28T00:00:00	2024-11-08T14:00:00	4	Temperatura máxima	21.7
86567	7	Sololá	701	Sololá	4	Finca Santa Victoria	1	Enero	2023-01-28T00:00:00	2024-11-08T14:00:00	3	Temperatura mínima	20.3
86568	7	Sololá	701	Sololá	4	Finca Santa Victoria	1	Enero	2023-01-28T00:00:00	2024-11-08T14:00:00	5	Humedad	29
86569	7	Sololá	701	Sololá	4	Finca Santa Victoria	1	Enero	2023-01-28T00:00:00	2024-11-08T14:00:00	6	Velocidad del viento	4.8
86570	7	Sololá	701	Sololá	4	Finca Santa Victoria	1	Enero	2023-01-28T00:00:00	2024-11-08T14:00:00	7	Dirección del viento	4.83
86571	7	Sololá	701	Sololá	4	Finca Santa Victoria	1	Enero	2023-01-28T00:00:00	2024-11-08T14:00:00	1	Precipitación	0
86572	7	Sololá	701	Sololá	4	Finca Santa Victoria	1	Enero	2023-01-28T00:00:00	2024-11-08T14:00:00	8	Radiación solar	864
86573	7	Sololá	701	Sololá	4	Finca Santa Victoria	1	Enero	2023-01-28T00:00:00	2024-11-08T15:00:00	2	Temperatura media	20.6
86574	7	Sololá	701	Sololá	4	Finca Santa Victoria	1	Enero	2023-01-28T00:00:00	2024-11-08T15:00:00	4	Temperatura máxima	21.8
86575	7	Sololá	701	Sololá	4	Finca Santa Victoria	1	Enero	2023-01-28T00:00:00	2024-11-08T15:00:00	3	Temperatura mínima	20.6
86576	7	Sololá	701	Sololá	4	Finca Santa Victoria	1	Enero	2023-01-28T00:00:00	2024-11-08T15:00:00	5	Humedad	32
86577	7	Sololá	701	Sololá	4	Finca Santa Victoria	1	Enero	2023-01-28T00:00:00	2024-11-08T15:00:00	6	Velocidad del viento	3.2
86578	7	Sololá	701	Sololá	4	Finca Santa Victoria	1	Enero	2023-01-28T00:00:00	2024-11-08T15:00:00	7	Dirección del viento	3.22
86579	7	Sololá	701	Sololá	4	Finca Santa Victoria	1	Enero	2023-01-28T00:00:00	2024-11-08T15:00:00	1	Precipitación	0
86580	7	Sololá	701	Sololá	4	Finca Santa Victoria	1	Enero	2023-01-28T00:00:00	2024-11-08T15:00:00	8	Radiación solar	650
86581	7	Sololá	701	Sololá	4	Finca Santa Victoria	1	Enero	2023-01-28T00:00:00	2024-11-08T16:00:00	2	Temperatura media	20.2
86582	7	Sololá	701	Sololá	4	Finca Santa Victoria	1	Enero	2023-01-28T00:00:00	2024-11-08T16:00:00	4	Temperatura máxima	21.1
86583	7	Sololá	701	Sololá	4	Finca Santa Victoria	1	Enero	2023-01-28T00:00:00	2024-11-08T16:00:00	3	Temperatura mínima	20.1
86584	7	Sololá	701	Sololá	4	Finca Santa Victoria	1	Enero	2023-01-28T00:00:00	2024-11-08T16:00:00	5	Humedad	37
86585	7	Sololá	701	Sololá	4	Finca Santa Victoria	1	Enero	2023-01-28T00:00:00	2024-11-08T16:00:00	6	Velocidad del viento	3.2
86586	7	Sololá	701	Sololá	4	Finca Santa Victoria	1	Enero	2023-01-28T00:00:00	2024-11-08T16:00:00	7	Dirección del viento	3.22
86587	7	Sololá	701	Sololá	4	Finca Santa Victoria	1	Enero	2023-01-28T00:00:00	2024-11-08T16:00:00	1	Precipitación	0
86588	7	Sololá	701	Sololá	4	Finca Santa Victoria	1	Enero	2023-01-28T00:00:00	2024-11-08T16:00:00	8	Radiación solar	371
86589	7	Sololá	701	Sololá	4	Finca Santa Victoria	1	Enero	2023-01-28T00:00:00	2024-11-08T17:00:00	2	Temperatura media	18.7
86590	7	Sololá	701	Sololá	4	Finca Santa Victoria	1	Enero	2023-01-28T00:00:00	2024-11-08T17:00:00	4	Temperatura máxima	20.3
86591	7	Sololá	701	Sololá	4	Finca Santa Victoria	1	Enero	2023-01-28T00:00:00	2024-11-08T17:00:00	3	Temperatura mínima	18.7
86592	7	Sololá	701	Sololá	4	Finca Santa Victoria	1	Enero	2023-01-28T00:00:00	2024-11-08T17:00:00	5	Humedad	48
86593	7	Sololá	701	Sololá	4	Finca Santa Victoria	1	Enero	2023-01-28T00:00:00	2024-11-08T17:00:00	6	Velocidad del viento	3.2
86594	7	Sololá	701	Sololá	4	Finca Santa Victoria	1	Enero	2023-01-28T00:00:00	2024-11-08T17:00:00	7	Dirección del viento	3.22
86595	7	Sololá	701	Sololá	4	Finca Santa Victoria	1	Enero	2023-01-28T00:00:00	2024-11-08T17:00:00	1	Precipitación	0
86596	7	Sololá	701	Sololá	4	Finca Santa Victoria	1	Enero	2023-01-28T00:00:00	2024-11-08T17:00:00	8	Radiación solar	297
86597	7	Sololá	701	Sololá	4	Finca Santa Victoria	1	Enero	2023-01-28T00:00:00	2024-11-08T18:00:00	2	Temperatura media	13.9
86598	7	Sololá	701	Sololá	4	Finca Santa Victoria	1	Enero	2023-01-28T00:00:00	2024-11-08T18:00:00	4	Temperatura máxima	18.7
86599	7	Sololá	701	Sololá	4	Finca Santa Victoria	1	Enero	2023-01-28T00:00:00	2024-11-08T18:00:00	3	Temperatura mínima	13.9
86600	7	Sololá	701	Sololá	4	Finca Santa Victoria	1	Enero	2023-01-28T00:00:00	2024-11-08T18:00:00	5	Humedad	55
86601	7	Sololá	701	Sololá	4	Finca Santa Victoria	1	Enero	2023-01-28T00:00:00	2024-11-08T18:00:00	6	Velocidad del viento	4.8
86602	7	Sololá	701	Sololá	4	Finca Santa Victoria	1	Enero	2023-01-28T00:00:00	2024-11-08T18:00:00	7	Dirección del viento	4.83
86603	7	Sololá	701	Sololá	4	Finca Santa Victoria	1	Enero	2023-01-28T00:00:00	2024-11-08T18:00:00	1	Precipitación	0
86604	7	Sololá	701	Sololá	4	Finca Santa Victoria	1	Enero	2023-01-28T00:00:00	2024-11-08T18:00:00	8	Radiación solar	60
86605	7	Sololá	701	Sololá	4	Finca Santa Victoria	1	Enero	2023-01-28T00:00:00	2024-11-08T19:00:00	2	Temperatura media	12.7
86606	7	Sololá	701	Sololá	4	Finca Santa Victoria	1	Enero	2023-01-28T00:00:00	2024-11-08T19:00:00	4	Temperatura máxima	13.9
86607	7	Sololá	701	Sololá	4	Finca Santa Victoria	1	Enero	2023-01-28T00:00:00	2024-11-08T19:00:00	3	Temperatura mínima	12.7
86608	7	Sololá	701	Sololá	4	Finca Santa Victoria	1	Enero	2023-01-28T00:00:00	2024-11-08T19:00:00	5	Humedad	69
86609	7	Sololá	701	Sololá	4	Finca Santa Victoria	1	Enero	2023-01-28T00:00:00	2024-11-08T19:00:00	6	Velocidad del viento	3.2
86610	7	Sololá	701	Sololá	4	Finca Santa Victoria	1	Enero	2023-01-28T00:00:00	2024-11-08T19:00:00	7	Dirección del viento	3.22
86611	7	Sololá	701	Sololá	4	Finca Santa Victoria	1	Enero	2023-01-28T00:00:00	2024-11-08T19:00:00	1	Precipitación	0
86612	7	Sololá	701	Sololá	4	Finca Santa Victoria	1	Enero	2023-01-28T00:00:00	2024-11-08T19:00:00	8	Radiación solar	0
86613	7	Sololá	701	Sololá	4	Finca Santa Victoria	1	Enero	2023-01-28T00:00:00	2024-11-08T20:00:00	2	Temperatura media	12.2
86614	7	Sololá	701	Sololá	4	Finca Santa Victoria	1	Enero	2023-01-28T00:00:00	2024-11-08T20:00:00	4	Temperatura máxima	12.7
86615	7	Sololá	701	Sololá	4	Finca Santa Victoria	1	Enero	2023-01-28T00:00:00	2024-11-08T20:00:00	3	Temperatura mínima	12.2
86616	7	Sololá	701	Sololá	4	Finca Santa Victoria	1	Enero	2023-01-28T00:00:00	2024-11-08T20:00:00	5	Humedad	73
86617	7	Sololá	701	Sololá	4	Finca Santa Victoria	1	Enero	2023-01-28T00:00:00	2024-11-08T20:00:00	6	Velocidad del viento	4.8
86618	7	Sololá	701	Sololá	4	Finca Santa Victoria	1	Enero	2023-01-28T00:00:00	2024-11-08T20:00:00	7	Dirección del viento	4.83
86619	7	Sololá	701	Sololá	4	Finca Santa Victoria	1	Enero	2023-01-28T00:00:00	2024-11-08T20:00:00	1	Precipitación	0
86620	7	Sololá	701	Sololá	4	Finca Santa Victoria	1	Enero	2023-01-28T00:00:00	2024-11-08T20:00:00	8	Radiación solar	0
86621	7	Sololá	701	Sololá	4	Finca Santa Victoria	1	Enero	2023-01-28T00:00:00	2024-11-08T21:00:00	2	Temperatura media	11.8
86622	7	Sololá	701	Sololá	4	Finca Santa Victoria	1	Enero	2023-01-28T00:00:00	2024-11-08T21:00:00	4	Temperatura máxima	12.2
86623	7	Sololá	701	Sololá	4	Finca Santa Victoria	1	Enero	2023-01-28T00:00:00	2024-11-08T21:00:00	3	Temperatura mínima	11.7
86624	7	Sololá	701	Sololá	4	Finca Santa Victoria	1	Enero	2023-01-28T00:00:00	2024-11-08T21:00:00	5	Humedad	75
86625	7	Sololá	701	Sololá	4	Finca Santa Victoria	1	Enero	2023-01-28T00:00:00	2024-11-08T21:00:00	6	Velocidad del viento	4.8
86626	7	Sololá	701	Sololá	4	Finca Santa Victoria	1	Enero	2023-01-28T00:00:00	2024-11-08T21:00:00	7	Dirección del viento	4.83
86627	7	Sololá	701	Sololá	4	Finca Santa Victoria	1	Enero	2023-01-28T00:00:00	2024-11-08T21:00:00	1	Precipitación	0
86628	7	Sololá	701	Sololá	4	Finca Santa Victoria	1	Enero	2023-01-28T00:00:00	2024-11-08T21:00:00	8	Radiación solar	0
86629	7	Sololá	701	Sololá	4	Finca Santa Victoria	1	Enero	2023-01-28T00:00:00	2024-11-08T22:00:00	2	Temperatura media	11.3
86630	7	Sololá	701	Sololá	4	Finca Santa Victoria	1	Enero	2023-01-28T00:00:00	2024-11-08T22:00:00	4	Temperatura máxima	11.8
86631	7	Sololá	701	Sololá	4	Finca Santa Victoria	1	Enero	2023-01-28T00:00:00	2024-11-08T22:00:00	3	Temperatura mínima	11.3
86632	7	Sololá	701	Sololá	4	Finca Santa Victoria	1	Enero	2023-01-28T00:00:00	2024-11-08T22:00:00	5	Humedad	77
86633	7	Sololá	701	Sololá	4	Finca Santa Victoria	1	Enero	2023-01-28T00:00:00	2024-11-08T22:00:00	6	Velocidad del viento	4.8
86634	7	Sololá	701	Sololá	4	Finca Santa Victoria	1	Enero	2023-01-28T00:00:00	2024-11-08T22:00:00	7	Dirección del viento	4.83
86635	7	Sololá	701	Sololá	4	Finca Santa Victoria	1	Enero	2023-01-28T00:00:00	2024-11-08T22:00:00	1	Precipitación	0
86636	7	Sololá	701	Sololá	4	Finca Santa Victoria	1	Enero	2023-01-28T00:00:00	2024-11-08T22:00:00	8	Radiación solar	0
86637	7	Sololá	701	Sololá	4	Finca Santa Victoria	1	Enero	2023-01-28T00:00:00	2024-11-08T23:00:00	2	Temperatura media	11.2
86638	7	Sololá	701	Sololá	4	Finca Santa Victoria	1	Enero	2023-01-28T00:00:00	2024-11-08T23:00:00	4	Temperatura máxima	11.3
86639	7	Sololá	701	Sololá	4	Finca Santa Victoria	1	Enero	2023-01-28T00:00:00	2024-11-08T23:00:00	3	Temperatura mínima	10.9
86640	7	Sololá	701	Sololá	4	Finca Santa Victoria	1	Enero	2023-01-28T00:00:00	2024-11-08T23:00:00	5	Humedad	60
86641	7	Sololá	701	Sololá	4	Finca Santa Victoria	1	Enero	2023-01-28T00:00:00	2024-11-08T23:00:00	6	Velocidad del viento	3.2
86642	7	Sololá	701	Sololá	4	Finca Santa Victoria	1	Enero	2023-01-28T00:00:00	2024-11-08T23:00:00	7	Dirección del viento	3.22
86643	7	Sololá	701	Sololá	4	Finca Santa Victoria	1	Enero	2023-01-28T00:00:00	2024-11-08T23:00:00	1	Precipitación	0
86644	7	Sololá	701	Sololá	4	Finca Santa Victoria	1	Enero	2023-01-28T00:00:00	2024-11-08T23:00:00	8	Radiación solar	0
86645	7	Sololá	701	Sololá	4	Finca Santa Victoria	1	Enero	2023-01-29T00:00:00	2024-11-08T00:00:00	2	Temperatura media	11.8
86646	7	Sololá	701	Sololá	4	Finca Santa Victoria	1	Enero	2023-01-29T00:00:00	2024-11-08T00:00:00	4	Temperatura máxima	12.2
86647	7	Sololá	701	Sololá	4	Finca Santa Victoria	1	Enero	2023-01-29T00:00:00	2024-11-08T00:00:00	3	Temperatura mínima	10.7
86648	7	Sololá	701	Sololá	4	Finca Santa Victoria	1	Enero	2023-01-29T00:00:00	2024-11-08T00:00:00	5	Humedad	31
86649	7	Sololá	701	Sololá	4	Finca Santa Victoria	1	Enero	2023-01-29T00:00:00	2024-11-08T00:00:00	6	Velocidad del viento	3.2
86650	7	Sololá	701	Sololá	4	Finca Santa Victoria	1	Enero	2023-01-29T00:00:00	2024-11-08T00:00:00	7	Dirección del viento	3.22
86651	7	Sololá	701	Sololá	4	Finca Santa Victoria	1	Enero	2023-01-29T00:00:00	2024-11-08T00:00:00	1	Precipitación	0
86652	7	Sololá	701	Sololá	4	Finca Santa Victoria	1	Enero	2023-01-29T00:00:00	2024-11-08T00:00:00	8	Radiación solar	0
86653	7	Sololá	701	Sololá	4	Finca Santa Victoria	1	Enero	2023-01-29T00:00:00	2024-11-08T01:00:00	2	Temperatura media	11.3
86654	7	Sololá	701	Sololá	4	Finca Santa Victoria	1	Enero	2023-01-29T00:00:00	2024-11-08T01:00:00	4	Temperatura máxima	11.8
86655	7	Sololá	701	Sololá	4	Finca Santa Victoria	1	Enero	2023-01-29T00:00:00	2024-11-08T01:00:00	3	Temperatura mínima	11.1
86656	7	Sololá	701	Sololá	4	Finca Santa Victoria	1	Enero	2023-01-29T00:00:00	2024-11-08T01:00:00	5	Humedad	34
86657	7	Sololá	701	Sololá	4	Finca Santa Victoria	1	Enero	2023-01-29T00:00:00	2024-11-08T01:00:00	6	Velocidad del viento	3.2
86658	7	Sololá	701	Sololá	4	Finca Santa Victoria	1	Enero	2023-01-29T00:00:00	2024-11-08T01:00:00	7	Dirección del viento	3.22
86659	7	Sololá	701	Sololá	4	Finca Santa Victoria	1	Enero	2023-01-29T00:00:00	2024-11-08T01:00:00	1	Precipitación	0
86660	7	Sololá	701	Sololá	4	Finca Santa Victoria	1	Enero	2023-01-29T00:00:00	2024-11-08T01:00:00	8	Radiación solar	0
86661	7	Sololá	701	Sololá	4	Finca Santa Victoria	1	Enero	2023-01-29T00:00:00	2024-11-08T02:00:00	2	Temperatura media	10.1
86662	7	Sololá	701	Sololá	4	Finca Santa Victoria	1	Enero	2023-01-29T00:00:00	2024-11-08T02:00:00	4	Temperatura máxima	11.5
86663	7	Sololá	701	Sololá	4	Finca Santa Victoria	1	Enero	2023-01-29T00:00:00	2024-11-08T02:00:00	3	Temperatura mínima	10
86664	7	Sololá	701	Sololá	4	Finca Santa Victoria	1	Enero	2023-01-29T00:00:00	2024-11-08T02:00:00	5	Humedad	37
86665	7	Sololá	701	Sololá	4	Finca Santa Victoria	1	Enero	2023-01-29T00:00:00	2024-11-08T02:00:00	6	Velocidad del viento	1.6
86666	7	Sololá	701	Sololá	4	Finca Santa Victoria	1	Enero	2023-01-29T00:00:00	2024-11-08T02:00:00	7	Dirección del viento	1.61
86667	7	Sololá	701	Sololá	4	Finca Santa Victoria	1	Enero	2023-01-29T00:00:00	2024-11-08T02:00:00	1	Precipitación	0
86668	7	Sololá	701	Sololá	4	Finca Santa Victoria	1	Enero	2023-01-29T00:00:00	2024-11-08T02:00:00	8	Radiación solar	0
86669	7	Sololá	701	Sololá	4	Finca Santa Victoria	1	Enero	2023-01-29T00:00:00	2024-11-08T03:00:00	2	Temperatura media	9
86670	7	Sololá	701	Sololá	4	Finca Santa Victoria	1	Enero	2023-01-29T00:00:00	2024-11-08T03:00:00	4	Temperatura máxima	10.6
86671	7	Sololá	701	Sololá	4	Finca Santa Victoria	1	Enero	2023-01-29T00:00:00	2024-11-08T03:00:00	3	Temperatura mínima	9
86672	7	Sololá	701	Sololá	4	Finca Santa Victoria	1	Enero	2023-01-29T00:00:00	2024-11-08T03:00:00	5	Humedad	47
86673	7	Sololá	701	Sololá	4	Finca Santa Victoria	1	Enero	2023-01-29T00:00:00	2024-11-08T03:00:00	6	Velocidad del viento	1.6
86674	7	Sololá	701	Sololá	4	Finca Santa Victoria	1	Enero	2023-01-29T00:00:00	2024-11-08T03:00:00	7	Dirección del viento	1.61
86675	7	Sololá	701	Sololá	4	Finca Santa Victoria	1	Enero	2023-01-29T00:00:00	2024-11-08T03:00:00	1	Precipitación	0
86676	7	Sololá	701	Sololá	4	Finca Santa Victoria	1	Enero	2023-01-29T00:00:00	2024-11-08T03:00:00	8	Radiación solar	0
86677	7	Sololá	701	Sololá	4	Finca Santa Victoria	1	Enero	2023-01-29T00:00:00	2024-11-08T04:00:00	2	Temperatura media	8.2
86678	7	Sololá	701	Sololá	4	Finca Santa Victoria	1	Enero	2023-01-29T00:00:00	2024-11-08T04:00:00	4	Temperatura máxima	9.1
86679	7	Sololá	701	Sololá	4	Finca Santa Victoria	1	Enero	2023-01-29T00:00:00	2024-11-08T04:00:00	3	Temperatura mínima	8.1
86680	7	Sololá	701	Sololá	4	Finca Santa Victoria	1	Enero	2023-01-29T00:00:00	2024-11-08T04:00:00	5	Humedad	56
86681	7	Sololá	701	Sololá	4	Finca Santa Victoria	1	Enero	2023-01-29T00:00:00	2024-11-08T04:00:00	6	Velocidad del viento	1.6
86682	7	Sololá	701	Sololá	4	Finca Santa Victoria	1	Enero	2023-01-29T00:00:00	2024-11-08T04:00:00	7	Dirección del viento	1.61
86683	7	Sololá	701	Sololá	4	Finca Santa Victoria	1	Enero	2023-01-29T00:00:00	2024-11-08T04:00:00	1	Precipitación	0
86684	7	Sololá	701	Sololá	4	Finca Santa Victoria	1	Enero	2023-01-29T00:00:00	2024-11-08T04:00:00	8	Radiación solar	0
86685	7	Sololá	701	Sololá	4	Finca Santa Victoria	1	Enero	2023-01-29T00:00:00	2024-11-08T05:00:00	2	Temperatura media	7.9
86686	7	Sololá	701	Sololá	4	Finca Santa Victoria	1	Enero	2023-01-29T00:00:00	2024-11-08T05:00:00	4	Temperatura máxima	8.2
86687	7	Sololá	701	Sololá	4	Finca Santa Victoria	1	Enero	2023-01-29T00:00:00	2024-11-08T05:00:00	3	Temperatura mínima	7.5
86688	7	Sololá	701	Sololá	4	Finca Santa Victoria	1	Enero	2023-01-29T00:00:00	2024-11-08T05:00:00	5	Humedad	52
86689	7	Sololá	701	Sololá	4	Finca Santa Victoria	1	Enero	2023-01-29T00:00:00	2024-11-08T05:00:00	6	Velocidad del viento	0
86690	7	Sololá	701	Sololá	4	Finca Santa Victoria	1	Enero	2023-01-29T00:00:00	2024-11-08T05:00:00	7	Dirección del viento	0
86691	7	Sololá	701	Sololá	4	Finca Santa Victoria	1	Enero	2023-01-29T00:00:00	2024-11-08T05:00:00	1	Precipitación	0
86692	7	Sololá	701	Sololá	4	Finca Santa Victoria	1	Enero	2023-01-29T00:00:00	2024-11-08T05:00:00	8	Radiación solar	0
86693	7	Sololá	701	Sololá	4	Finca Santa Victoria	1	Enero	2023-01-29T00:00:00	2024-11-08T06:00:00	2	Temperatura media	9.1
86694	7	Sololá	701	Sololá	4	Finca Santa Victoria	1	Enero	2023-01-29T00:00:00	2024-11-08T06:00:00	4	Temperatura máxima	9.1
86695	7	Sololá	701	Sololá	4	Finca Santa Victoria	1	Enero	2023-01-29T00:00:00	2024-11-08T06:00:00	3	Temperatura mínima	7.9
86696	7	Sololá	701	Sololá	4	Finca Santa Victoria	1	Enero	2023-01-29T00:00:00	2024-11-08T06:00:00	5	Humedad	45
86697	7	Sololá	701	Sololá	4	Finca Santa Victoria	1	Enero	2023-01-29T00:00:00	2024-11-08T06:00:00	6	Velocidad del viento	1.6
86698	7	Sololá	701	Sololá	4	Finca Santa Victoria	1	Enero	2023-01-29T00:00:00	2024-11-08T06:00:00	7	Dirección del viento	1.61
86699	7	Sololá	701	Sololá	4	Finca Santa Victoria	1	Enero	2023-01-29T00:00:00	2024-11-08T06:00:00	1	Precipitación	0
86700	7	Sololá	701	Sololá	4	Finca Santa Victoria	1	Enero	2023-01-29T00:00:00	2024-11-08T06:00:00	8	Radiación solar	0
86701	7	Sololá	701	Sololá	4	Finca Santa Victoria	1	Enero	2023-01-29T00:00:00	2024-11-08T07:00:00	2	Temperatura media	8.2
86702	7	Sololá	701	Sololá	4	Finca Santa Victoria	1	Enero	2023-01-29T00:00:00	2024-11-08T07:00:00	4	Temperatura máxima	9.1
86703	7	Sololá	701	Sololá	4	Finca Santa Victoria	1	Enero	2023-01-29T00:00:00	2024-11-08T07:00:00	3	Temperatura mínima	8.1
86704	7	Sololá	701	Sololá	4	Finca Santa Victoria	1	Enero	2023-01-29T00:00:00	2024-11-08T07:00:00	5	Humedad	50
86705	7	Sololá	701	Sololá	4	Finca Santa Victoria	1	Enero	2023-01-29T00:00:00	2024-11-08T07:00:00	6	Velocidad del viento	1.6
86706	7	Sololá	701	Sololá	4	Finca Santa Victoria	1	Enero	2023-01-29T00:00:00	2024-11-08T07:00:00	7	Dirección del viento	1.61
86707	7	Sololá	701	Sololá	4	Finca Santa Victoria	1	Enero	2023-01-29T00:00:00	2024-11-08T07:00:00	1	Precipitación	0
86708	7	Sololá	701	Sololá	4	Finca Santa Victoria	1	Enero	2023-01-29T00:00:00	2024-11-08T07:00:00	8	Radiación solar	3
86709	7	Sololá	701	Sololá	4	Finca Santa Victoria	1	Enero	2023-01-29T00:00:00	2024-11-08T08:00:00	2	Temperatura media	11.5
86710	7	Sololá	701	Sololá	4	Finca Santa Victoria	1	Enero	2023-01-29T00:00:00	2024-11-08T08:00:00	4	Temperatura máxima	11.5
86711	7	Sololá	701	Sololá	4	Finca Santa Victoria	1	Enero	2023-01-29T00:00:00	2024-11-08T08:00:00	3	Temperatura mínima	8.2
86712	7	Sololá	701	Sololá	4	Finca Santa Victoria	1	Enero	2023-01-29T00:00:00	2024-11-08T08:00:00	5	Humedad	40
86713	7	Sololá	701	Sololá	4	Finca Santa Victoria	1	Enero	2023-01-29T00:00:00	2024-11-08T08:00:00	6	Velocidad del viento	1.6
86714	7	Sololá	701	Sololá	4	Finca Santa Victoria	1	Enero	2023-01-29T00:00:00	2024-11-08T08:00:00	7	Dirección del viento	1.61
86715	7	Sololá	701	Sololá	4	Finca Santa Victoria	1	Enero	2023-01-29T00:00:00	2024-11-08T08:00:00	1	Precipitación	0
86716	7	Sololá	701	Sololá	4	Finca Santa Victoria	1	Enero	2023-01-29T00:00:00	2024-11-08T08:00:00	8	Radiación solar	38
86717	7	Sololá	701	Sololá	4	Finca Santa Victoria	1	Enero	2023-01-29T00:00:00	2024-11-08T09:00:00	2	Temperatura media	15.5
86718	7	Sololá	701	Sololá	4	Finca Santa Victoria	1	Enero	2023-01-29T00:00:00	2024-11-08T09:00:00	4	Temperatura máxima	15.5
86719	7	Sololá	701	Sololá	4	Finca Santa Victoria	1	Enero	2023-01-29T00:00:00	2024-11-08T09:00:00	3	Temperatura mínima	11.5
86720	7	Sololá	701	Sololá	4	Finca Santa Victoria	1	Enero	2023-01-29T00:00:00	2024-11-08T09:00:00	5	Humedad	41
86721	7	Sololá	701	Sololá	4	Finca Santa Victoria	1	Enero	2023-01-29T00:00:00	2024-11-08T09:00:00	6	Velocidad del viento	3.2
86722	7	Sololá	701	Sololá	4	Finca Santa Victoria	1	Enero	2023-01-29T00:00:00	2024-11-08T09:00:00	7	Dirección del viento	3.22
86723	7	Sololá	701	Sololá	4	Finca Santa Victoria	1	Enero	2023-01-29T00:00:00	2024-11-08T09:00:00	1	Precipitación	0
86724	7	Sololá	701	Sololá	4	Finca Santa Victoria	1	Enero	2023-01-29T00:00:00	2024-11-08T09:00:00	8	Radiación solar	147
86725	7	Sololá	701	Sololá	4	Finca Santa Victoria	1	Enero	2023-01-29T00:00:00	2024-11-08T10:00:00	2	Temperatura media	18.4
86726	7	Sololá	701	Sololá	4	Finca Santa Victoria	1	Enero	2023-01-29T00:00:00	2024-11-08T10:00:00	4	Temperatura máxima	18.4
86727	7	Sololá	701	Sololá	4	Finca Santa Victoria	1	Enero	2023-01-29T00:00:00	2024-11-08T10:00:00	3	Temperatura mínima	15.5
86728	7	Sololá	701	Sololá	4	Finca Santa Victoria	1	Enero	2023-01-29T00:00:00	2024-11-08T10:00:00	5	Humedad	37
86729	7	Sololá	701	Sololá	4	Finca Santa Victoria	1	Enero	2023-01-29T00:00:00	2024-11-08T10:00:00	6	Velocidad del viento	3.2
86730	7	Sololá	701	Sololá	4	Finca Santa Victoria	1	Enero	2023-01-29T00:00:00	2024-11-08T10:00:00	7	Dirección del viento	3.22
86731	7	Sololá	701	Sololá	4	Finca Santa Victoria	1	Enero	2023-01-29T00:00:00	2024-11-08T10:00:00	1	Precipitación	0
86732	7	Sololá	701	Sololá	4	Finca Santa Victoria	1	Enero	2023-01-29T00:00:00	2024-11-08T10:00:00	8	Radiación solar	253
86733	7	Sololá	701	Sololá	4	Finca Santa Victoria	1	Enero	2023-01-29T00:00:00	2024-11-08T11:00:00	2	Temperatura media	20.1
86734	7	Sololá	701	Sololá	4	Finca Santa Victoria	1	Enero	2023-01-29T00:00:00	2024-11-08T11:00:00	4	Temperatura máxima	20.1
86735	7	Sololá	701	Sololá	4	Finca Santa Victoria	1	Enero	2023-01-29T00:00:00	2024-11-08T11:00:00	3	Temperatura mínima	18.3
86736	7	Sololá	701	Sololá	4	Finca Santa Victoria	1	Enero	2023-01-29T00:00:00	2024-11-08T11:00:00	5	Humedad	34
86737	7	Sololá	701	Sololá	4	Finca Santa Victoria	1	Enero	2023-01-29T00:00:00	2024-11-08T11:00:00	6	Velocidad del viento	3.2
86738	7	Sololá	701	Sololá	4	Finca Santa Victoria	1	Enero	2023-01-29T00:00:00	2024-11-08T11:00:00	7	Dirección del viento	3.22
86739	7	Sololá	701	Sololá	4	Finca Santa Victoria	1	Enero	2023-01-29T00:00:00	2024-11-08T11:00:00	1	Precipitación	0
86740	7	Sololá	701	Sololá	4	Finca Santa Victoria	1	Enero	2023-01-29T00:00:00	2024-11-08T11:00:00	8	Radiación solar	829
86741	7	Sololá	701	Sololá	4	Finca Santa Victoria	1	Enero	2023-01-29T00:00:00	2024-11-08T12:00:00	2	Temperatura media	21
86742	7	Sololá	701	Sololá	4	Finca Santa Victoria	1	Enero	2023-01-29T00:00:00	2024-11-08T12:00:00	4	Temperatura máxima	21.2
86743	7	Sololá	701	Sololá	4	Finca Santa Victoria	1	Enero	2023-01-29T00:00:00	2024-11-08T12:00:00	3	Temperatura mínima	20.1
86744	7	Sololá	701	Sololá	4	Finca Santa Victoria	1	Enero	2023-01-29T00:00:00	2024-11-08T12:00:00	5	Humedad	32
86745	7	Sololá	701	Sololá	4	Finca Santa Victoria	1	Enero	2023-01-29T00:00:00	2024-11-08T12:00:00	6	Velocidad del viento	3.2
86746	7	Sololá	701	Sololá	4	Finca Santa Victoria	1	Enero	2023-01-29T00:00:00	2024-11-08T12:00:00	7	Dirección del viento	3.22
86747	7	Sololá	701	Sololá	4	Finca Santa Victoria	1	Enero	2023-01-29T00:00:00	2024-11-08T12:00:00	1	Precipitación	0
86748	7	Sololá	701	Sololá	4	Finca Santa Victoria	1	Enero	2023-01-29T00:00:00	2024-11-08T12:00:00	8	Radiación solar	920
86749	7	Sololá	701	Sololá	4	Finca Santa Victoria	1	Enero	2023-01-29T00:00:00	2024-11-08T13:00:00	2	Temperatura media	21.1
86750	7	Sololá	701	Sololá	4	Finca Santa Victoria	1	Enero	2023-01-29T00:00:00	2024-11-08T13:00:00	4	Temperatura máxima	21.3
86751	7	Sololá	701	Sololá	4	Finca Santa Victoria	1	Enero	2023-01-29T00:00:00	2024-11-08T13:00:00	3	Temperatura mínima	20.7
86752	7	Sololá	701	Sololá	4	Finca Santa Victoria	1	Enero	2023-01-29T00:00:00	2024-11-08T13:00:00	5	Humedad	35
86753	7	Sololá	701	Sololá	4	Finca Santa Victoria	1	Enero	2023-01-29T00:00:00	2024-11-08T13:00:00	6	Velocidad del viento	3.2
86754	7	Sololá	701	Sololá	4	Finca Santa Victoria	1	Enero	2023-01-29T00:00:00	2024-11-08T13:00:00	7	Dirección del viento	3.22
86755	7	Sololá	701	Sololá	4	Finca Santa Victoria	1	Enero	2023-01-29T00:00:00	2024-11-08T13:00:00	1	Precipitación	0
86756	7	Sololá	701	Sololá	4	Finca Santa Victoria	1	Enero	2023-01-29T00:00:00	2024-11-08T13:00:00	8	Radiación solar	928
86757	7	Sololá	701	Sololá	4	Finca Santa Victoria	1	Enero	2023-01-29T00:00:00	2024-11-08T14:00:00	2	Temperatura media	22.3
86758	7	Sololá	701	Sololá	4	Finca Santa Victoria	1	Enero	2023-01-29T00:00:00	2024-11-08T14:00:00	4	Temperatura máxima	22.3
86759	7	Sololá	701	Sololá	4	Finca Santa Victoria	1	Enero	2023-01-29T00:00:00	2024-11-08T14:00:00	3	Temperatura mínima	20.7
86760	7	Sololá	701	Sololá	4	Finca Santa Victoria	1	Enero	2023-01-29T00:00:00	2024-11-08T14:00:00	5	Humedad	33
86761	7	Sololá	701	Sololá	4	Finca Santa Victoria	1	Enero	2023-01-29T00:00:00	2024-11-08T14:00:00	6	Velocidad del viento	3.2
86762	7	Sololá	701	Sololá	4	Finca Santa Victoria	1	Enero	2023-01-29T00:00:00	2024-11-08T14:00:00	7	Dirección del viento	3.22
86763	7	Sololá	701	Sololá	4	Finca Santa Victoria	1	Enero	2023-01-29T00:00:00	2024-11-08T14:00:00	1	Precipitación	0
86764	7	Sololá	701	Sololá	4	Finca Santa Victoria	1	Enero	2023-01-29T00:00:00	2024-11-08T14:00:00	8	Radiación solar	866
86765	7	Sololá	701	Sololá	4	Finca Santa Victoria	1	Enero	2023-01-29T00:00:00	2024-11-08T15:00:00	2	Temperatura media	18.6
86766	7	Sololá	701	Sololá	4	Finca Santa Victoria	1	Enero	2023-01-29T00:00:00	2024-11-08T15:00:00	4	Temperatura máxima	22.3
86767	7	Sololá	701	Sololá	4	Finca Santa Victoria	1	Enero	2023-01-29T00:00:00	2024-11-08T15:00:00	3	Temperatura mínima	18.6
86768	7	Sololá	701	Sololá	4	Finca Santa Victoria	1	Enero	2023-01-29T00:00:00	2024-11-08T15:00:00	5	Humedad	64
86769	7	Sololá	701	Sololá	4	Finca Santa Victoria	1	Enero	2023-01-29T00:00:00	2024-11-08T15:00:00	6	Velocidad del viento	6.4
86770	7	Sololá	701	Sololá	4	Finca Santa Victoria	1	Enero	2023-01-29T00:00:00	2024-11-08T15:00:00	7	Dirección del viento	6.44
86771	7	Sololá	701	Sololá	4	Finca Santa Victoria	1	Enero	2023-01-29T00:00:00	2024-11-08T15:00:00	1	Precipitación	0
86772	7	Sololá	701	Sololá	4	Finca Santa Victoria	1	Enero	2023-01-29T00:00:00	2024-11-08T15:00:00	8	Radiación solar	530
86773	7	Sololá	701	Sololá	4	Finca Santa Victoria	1	Enero	2023-01-29T00:00:00	2024-11-08T16:00:00	2	Temperatura media	17.9
86774	7	Sololá	701	Sololá	4	Finca Santa Victoria	1	Enero	2023-01-29T00:00:00	2024-11-08T16:00:00	4	Temperatura máxima	18.8
86775	7	Sololá	701	Sololá	4	Finca Santa Victoria	1	Enero	2023-01-29T00:00:00	2024-11-08T16:00:00	3	Temperatura mínima	17.8
86776	7	Sololá	701	Sololá	4	Finca Santa Victoria	1	Enero	2023-01-29T00:00:00	2024-11-08T16:00:00	5	Humedad	65
86777	7	Sololá	701	Sololá	4	Finca Santa Victoria	1	Enero	2023-01-29T00:00:00	2024-11-08T16:00:00	6	Velocidad del viento	6.4
86778	7	Sololá	701	Sololá	4	Finca Santa Victoria	1	Enero	2023-01-29T00:00:00	2024-11-08T16:00:00	7	Dirección del viento	6.44
86779	7	Sololá	701	Sololá	4	Finca Santa Victoria	1	Enero	2023-01-29T00:00:00	2024-11-08T16:00:00	1	Precipitación	0
86780	7	Sololá	701	Sololá	4	Finca Santa Victoria	1	Enero	2023-01-29T00:00:00	2024-11-08T16:00:00	8	Radiación solar	354
86781	7	Sololá	701	Sololá	4	Finca Santa Victoria	1	Enero	2023-01-29T00:00:00	2024-11-08T17:00:00	2	Temperatura media	17.4
86782	7	Sololá	701	Sololá	4	Finca Santa Victoria	1	Enero	2023-01-29T00:00:00	2024-11-08T17:00:00	4	Temperatura máxima	18.3
86783	7	Sololá	701	Sololá	4	Finca Santa Victoria	1	Enero	2023-01-29T00:00:00	2024-11-08T17:00:00	3	Temperatura mínima	17.3
86784	7	Sololá	701	Sololá	4	Finca Santa Victoria	1	Enero	2023-01-29T00:00:00	2024-11-08T17:00:00	5	Humedad	68
86785	7	Sololá	701	Sololá	4	Finca Santa Victoria	1	Enero	2023-01-29T00:00:00	2024-11-08T17:00:00	6	Velocidad del viento	4.8
86786	7	Sololá	701	Sololá	4	Finca Santa Victoria	1	Enero	2023-01-29T00:00:00	2024-11-08T17:00:00	7	Dirección del viento	4.83
86787	7	Sololá	701	Sololá	4	Finca Santa Victoria	1	Enero	2023-01-29T00:00:00	2024-11-08T17:00:00	1	Precipitación	0
86788	7	Sololá	701	Sololá	4	Finca Santa Victoria	1	Enero	2023-01-29T00:00:00	2024-11-08T17:00:00	8	Radiación solar	279
86789	7	Sololá	701	Sololá	4	Finca Santa Victoria	1	Enero	2023-01-29T00:00:00	2024-11-08T18:00:00	2	Temperatura media	15.1
86790	7	Sololá	701	Sololá	4	Finca Santa Victoria	1	Enero	2023-01-29T00:00:00	2024-11-08T18:00:00	4	Temperatura máxima	17.7
86791	7	Sololá	701	Sololá	4	Finca Santa Victoria	1	Enero	2023-01-29T00:00:00	2024-11-08T18:00:00	3	Temperatura mínima	15.1
86792	7	Sololá	701	Sololá	4	Finca Santa Victoria	1	Enero	2023-01-29T00:00:00	2024-11-08T18:00:00	5	Humedad	60
86793	7	Sololá	701	Sololá	4	Finca Santa Victoria	1	Enero	2023-01-29T00:00:00	2024-11-08T18:00:00	6	Velocidad del viento	1.6
86794	7	Sololá	701	Sololá	4	Finca Santa Victoria	1	Enero	2023-01-29T00:00:00	2024-11-08T18:00:00	7	Dirección del viento	1.61
86795	7	Sololá	701	Sololá	4	Finca Santa Victoria	1	Enero	2023-01-29T00:00:00	2024-11-08T18:00:00	1	Precipitación	0
86796	7	Sololá	701	Sololá	4	Finca Santa Victoria	1	Enero	2023-01-29T00:00:00	2024-11-08T18:00:00	8	Radiación solar	58
86797	7	Sololá	701	Sololá	4	Finca Santa Victoria	1	Enero	2023-01-29T00:00:00	2024-11-08T19:00:00	2	Temperatura media	12.6
86798	7	Sololá	701	Sololá	4	Finca Santa Victoria	1	Enero	2023-01-29T00:00:00	2024-11-08T19:00:00	4	Temperatura máxima	15.1
86799	7	Sololá	701	Sololá	4	Finca Santa Victoria	1	Enero	2023-01-29T00:00:00	2024-11-08T19:00:00	3	Temperatura mínima	12.6
86800	7	Sololá	701	Sololá	4	Finca Santa Victoria	1	Enero	2023-01-29T00:00:00	2024-11-08T19:00:00	5	Humedad	71
86801	7	Sololá	701	Sololá	4	Finca Santa Victoria	1	Enero	2023-01-29T00:00:00	2024-11-08T19:00:00	6	Velocidad del viento	0
86802	7	Sololá	701	Sololá	4	Finca Santa Victoria	1	Enero	2023-01-29T00:00:00	2024-11-08T19:00:00	7	Dirección del viento	0
86803	7	Sololá	701	Sololá	4	Finca Santa Victoria	1	Enero	2023-01-29T00:00:00	2024-11-08T19:00:00	1	Precipitación	0
86804	7	Sololá	701	Sololá	4	Finca Santa Victoria	1	Enero	2023-01-29T00:00:00	2024-11-08T19:00:00	8	Radiación solar	0
86805	7	Sololá	701	Sololá	4	Finca Santa Victoria	1	Enero	2023-01-29T00:00:00	2024-11-08T20:00:00	2	Temperatura media	11.6
86806	7	Sololá	701	Sololá	4	Finca Santa Victoria	1	Enero	2023-01-29T00:00:00	2024-11-08T20:00:00	4	Temperatura máxima	12.6
86807	7	Sololá	701	Sololá	4	Finca Santa Victoria	1	Enero	2023-01-29T00:00:00	2024-11-08T20:00:00	3	Temperatura mínima	11.6
86808	7	Sololá	701	Sololá	4	Finca Santa Victoria	1	Enero	2023-01-29T00:00:00	2024-11-08T20:00:00	5	Humedad	78
86809	7	Sololá	701	Sololá	4	Finca Santa Victoria	1	Enero	2023-01-29T00:00:00	2024-11-08T20:00:00	6	Velocidad del viento	1.6
86810	7	Sololá	701	Sololá	4	Finca Santa Victoria	1	Enero	2023-01-29T00:00:00	2024-11-08T20:00:00	7	Dirección del viento	1.61
86811	7	Sololá	701	Sololá	4	Finca Santa Victoria	1	Enero	2023-01-29T00:00:00	2024-11-08T20:00:00	1	Precipitación	0
86812	7	Sololá	701	Sololá	4	Finca Santa Victoria	1	Enero	2023-01-29T00:00:00	2024-11-08T20:00:00	8	Radiación solar	0
86813	7	Sololá	701	Sololá	4	Finca Santa Victoria	1	Enero	2023-01-29T00:00:00	2024-11-08T21:00:00	2	Temperatura media	10.3
86814	7	Sololá	701	Sololá	4	Finca Santa Victoria	1	Enero	2023-01-29T00:00:00	2024-11-08T21:00:00	4	Temperatura máxima	11.6
86815	7	Sololá	701	Sololá	4	Finca Santa Victoria	1	Enero	2023-01-29T00:00:00	2024-11-08T21:00:00	3	Temperatura mínima	10.3
86816	7	Sololá	701	Sololá	4	Finca Santa Victoria	1	Enero	2023-01-29T00:00:00	2024-11-08T21:00:00	5	Humedad	84
86817	7	Sololá	701	Sololá	4	Finca Santa Victoria	1	Enero	2023-01-29T00:00:00	2024-11-08T21:00:00	6	Velocidad del viento	1.6
86818	7	Sololá	701	Sololá	4	Finca Santa Victoria	1	Enero	2023-01-29T00:00:00	2024-11-08T21:00:00	7	Dirección del viento	1.61
86819	7	Sololá	701	Sololá	4	Finca Santa Victoria	1	Enero	2023-01-29T00:00:00	2024-11-08T21:00:00	1	Precipitación	0
86820	7	Sololá	701	Sololá	4	Finca Santa Victoria	1	Enero	2023-01-29T00:00:00	2024-11-08T21:00:00	8	Radiación solar	0
86821	7	Sololá	701	Sololá	4	Finca Santa Victoria	1	Enero	2023-01-29T00:00:00	2024-11-08T22:00:00	2	Temperatura media	9.3
86822	7	Sololá	701	Sololá	4	Finca Santa Victoria	1	Enero	2023-01-29T00:00:00	2024-11-08T22:00:00	4	Temperatura máxima	10.3
86823	7	Sololá	701	Sololá	4	Finca Santa Victoria	1	Enero	2023-01-29T00:00:00	2024-11-08T22:00:00	3	Temperatura mínima	9.3
86824	7	Sololá	701	Sololá	4	Finca Santa Victoria	1	Enero	2023-01-29T00:00:00	2024-11-08T22:00:00	5	Humedad	90
86825	7	Sololá	701	Sololá	4	Finca Santa Victoria	1	Enero	2023-01-29T00:00:00	2024-11-08T22:00:00	6	Velocidad del viento	3.2
86826	7	Sololá	701	Sololá	4	Finca Santa Victoria	1	Enero	2023-01-29T00:00:00	2024-11-08T22:00:00	7	Dirección del viento	3.22
86827	7	Sololá	701	Sololá	4	Finca Santa Victoria	1	Enero	2023-01-29T00:00:00	2024-11-08T22:00:00	1	Precipitación	0
86828	7	Sololá	701	Sololá	4	Finca Santa Victoria	1	Enero	2023-01-29T00:00:00	2024-11-08T22:00:00	8	Radiación solar	0
86829	7	Sololá	701	Sololá	4	Finca Santa Victoria	1	Enero	2023-01-29T00:00:00	2024-11-08T23:00:00	2	Temperatura media	8.8
86830	7	Sololá	701	Sololá	4	Finca Santa Victoria	1	Enero	2023-01-29T00:00:00	2024-11-08T23:00:00	4	Temperatura máxima	9.3
86831	7	Sololá	701	Sololá	4	Finca Santa Victoria	1	Enero	2023-01-29T00:00:00	2024-11-08T23:00:00	3	Temperatura mínima	8.7
86832	7	Sololá	701	Sololá	4	Finca Santa Victoria	1	Enero	2023-01-29T00:00:00	2024-11-08T23:00:00	5	Humedad	93
86833	7	Sololá	701	Sololá	4	Finca Santa Victoria	1	Enero	2023-01-29T00:00:00	2024-11-08T23:00:00	6	Velocidad del viento	3.2
86834	7	Sololá	701	Sololá	4	Finca Santa Victoria	1	Enero	2023-01-29T00:00:00	2024-11-08T23:00:00	7	Dirección del viento	3.22
86835	7	Sololá	701	Sololá	4	Finca Santa Victoria	1	Enero	2023-01-29T00:00:00	2024-11-08T23:00:00	1	Precipitación	0
86836	7	Sololá	701	Sololá	4	Finca Santa Victoria	1	Enero	2023-01-29T00:00:00	2024-11-08T23:00:00	8	Radiación solar	0
86837	7	Sololá	701	Sololá	4	Finca Santa Victoria	1	Enero	2023-01-30T00:00:00	2024-11-08T00:00:00	2	Temperatura media	8.3
86838	7	Sololá	701	Sololá	4	Finca Santa Victoria	1	Enero	2023-01-30T00:00:00	2024-11-08T00:00:00	4	Temperatura máxima	8.8
86839	7	Sololá	701	Sololá	4	Finca Santa Victoria	1	Enero	2023-01-30T00:00:00	2024-11-08T00:00:00	3	Temperatura mínima	8.2
86840	7	Sololá	701	Sololá	4	Finca Santa Victoria	1	Enero	2023-01-30T00:00:00	2024-11-08T00:00:00	5	Humedad	93
86841	7	Sololá	701	Sololá	4	Finca Santa Victoria	1	Enero	2023-01-30T00:00:00	2024-11-08T00:00:00	6	Velocidad del viento	3.2
86842	7	Sololá	701	Sololá	4	Finca Santa Victoria	1	Enero	2023-01-30T00:00:00	2024-11-08T00:00:00	7	Dirección del viento	3.22
86843	7	Sololá	701	Sololá	4	Finca Santa Victoria	1	Enero	2023-01-30T00:00:00	2024-11-08T00:00:00	1	Precipitación	0
86844	7	Sololá	701	Sololá	4	Finca Santa Victoria	1	Enero	2023-01-30T00:00:00	2024-11-08T00:00:00	8	Radiación solar	0
86845	7	Sololá	701	Sololá	4	Finca Santa Victoria	1	Enero	2023-01-30T00:00:00	2024-11-08T01:00:00	2	Temperatura media	8
86846	7	Sololá	701	Sololá	4	Finca Santa Victoria	1	Enero	2023-01-30T00:00:00	2024-11-08T01:00:00	4	Temperatura máxima	8.3
86847	7	Sololá	701	Sololá	4	Finca Santa Victoria	1	Enero	2023-01-30T00:00:00	2024-11-08T01:00:00	3	Temperatura mínima	8
86848	7	Sololá	701	Sololá	4	Finca Santa Victoria	1	Enero	2023-01-30T00:00:00	2024-11-08T01:00:00	5	Humedad	92
86849	7	Sololá	701	Sololá	4	Finca Santa Victoria	1	Enero	2023-01-30T00:00:00	2024-11-08T01:00:00	6	Velocidad del viento	1.6
86850	7	Sololá	701	Sololá	4	Finca Santa Victoria	1	Enero	2023-01-30T00:00:00	2024-11-08T01:00:00	7	Dirección del viento	1.61
86851	7	Sololá	701	Sololá	4	Finca Santa Victoria	1	Enero	2023-01-30T00:00:00	2024-11-08T01:00:00	1	Precipitación	0
86852	7	Sololá	701	Sololá	4	Finca Santa Victoria	1	Enero	2023-01-30T00:00:00	2024-11-08T01:00:00	8	Radiación solar	0
86853	7	Sololá	701	Sololá	4	Finca Santa Victoria	1	Enero	2023-01-30T00:00:00	2024-11-08T02:00:00	2	Temperatura media	7.9
86854	7	Sololá	701	Sololá	4	Finca Santa Victoria	1	Enero	2023-01-30T00:00:00	2024-11-08T02:00:00	4	Temperatura máxima	8
86855	7	Sololá	701	Sololá	4	Finca Santa Victoria	1	Enero	2023-01-30T00:00:00	2024-11-08T02:00:00	3	Temperatura mínima	7.8
86856	7	Sololá	701	Sololá	4	Finca Santa Victoria	1	Enero	2023-01-30T00:00:00	2024-11-08T02:00:00	5	Humedad	82
86857	7	Sololá	701	Sololá	4	Finca Santa Victoria	1	Enero	2023-01-30T00:00:00	2024-11-08T02:00:00	6	Velocidad del viento	1.6
86858	7	Sololá	701	Sololá	4	Finca Santa Victoria	1	Enero	2023-01-30T00:00:00	2024-11-08T02:00:00	7	Dirección del viento	1.61
86859	7	Sololá	701	Sololá	4	Finca Santa Victoria	1	Enero	2023-01-30T00:00:00	2024-11-08T02:00:00	1	Precipitación	0
86860	7	Sololá	701	Sololá	4	Finca Santa Victoria	1	Enero	2023-01-30T00:00:00	2024-11-08T02:00:00	8	Radiación solar	0
86861	7	Sololá	701	Sololá	4	Finca Santa Victoria	1	Enero	2023-01-30T00:00:00	2024-11-08T03:00:00	2	Temperatura media	9.6
86862	7	Sololá	701	Sololá	4	Finca Santa Victoria	1	Enero	2023-01-30T00:00:00	2024-11-08T03:00:00	4	Temperatura máxima	9.6
86863	7	Sololá	701	Sololá	4	Finca Santa Victoria	1	Enero	2023-01-30T00:00:00	2024-11-08T03:00:00	3	Temperatura mínima	7.9
86864	7	Sololá	701	Sololá	4	Finca Santa Victoria	1	Enero	2023-01-30T00:00:00	2024-11-08T03:00:00	5	Humedad	69
86865	7	Sololá	701	Sololá	4	Finca Santa Victoria	1	Enero	2023-01-30T00:00:00	2024-11-08T03:00:00	6	Velocidad del viento	3.2
86866	7	Sololá	701	Sololá	4	Finca Santa Victoria	1	Enero	2023-01-30T00:00:00	2024-11-08T03:00:00	7	Dirección del viento	3.22
86867	7	Sololá	701	Sololá	4	Finca Santa Victoria	1	Enero	2023-01-30T00:00:00	2024-11-08T03:00:00	1	Precipitación	0
86868	7	Sololá	701	Sololá	4	Finca Santa Victoria	1	Enero	2023-01-30T00:00:00	2024-11-08T03:00:00	8	Radiación solar	0
86869	7	Sololá	701	Sololá	4	Finca Santa Victoria	1	Enero	2023-01-30T00:00:00	2024-11-08T04:00:00	2	Temperatura media	11.6
86870	7	Sololá	701	Sololá	4	Finca Santa Victoria	1	Enero	2023-01-30T00:00:00	2024-11-08T04:00:00	4	Temperatura máxima	11.6
86871	7	Sololá	701	Sololá	4	Finca Santa Victoria	1	Enero	2023-01-30T00:00:00	2024-11-08T04:00:00	3	Temperatura mínima	9.6
86872	7	Sololá	701	Sololá	4	Finca Santa Victoria	1	Enero	2023-01-30T00:00:00	2024-11-08T04:00:00	5	Humedad	61
86873	7	Sololá	701	Sololá	4	Finca Santa Victoria	1	Enero	2023-01-30T00:00:00	2024-11-08T04:00:00	6	Velocidad del viento	1.6
86874	7	Sololá	701	Sololá	4	Finca Santa Victoria	1	Enero	2023-01-30T00:00:00	2024-11-08T04:00:00	7	Dirección del viento	1.61
86875	7	Sololá	701	Sololá	4	Finca Santa Victoria	1	Enero	2023-01-30T00:00:00	2024-11-08T04:00:00	1	Precipitación	0
86876	7	Sololá	701	Sololá	4	Finca Santa Victoria	1	Enero	2023-01-30T00:00:00	2024-11-08T04:00:00	8	Radiación solar	0
86877	7	Sololá	701	Sololá	4	Finca Santa Victoria	1	Enero	2023-01-30T00:00:00	2024-11-08T05:00:00	2	Temperatura media	11.4
86878	7	Sololá	701	Sololá	4	Finca Santa Victoria	1	Enero	2023-01-30T00:00:00	2024-11-08T05:00:00	4	Temperatura máxima	11.7
86879	7	Sololá	701	Sololá	4	Finca Santa Victoria	1	Enero	2023-01-30T00:00:00	2024-11-08T05:00:00	3	Temperatura mínima	11.4
86880	7	Sololá	701	Sololá	4	Finca Santa Victoria	1	Enero	2023-01-30T00:00:00	2024-11-08T05:00:00	5	Humedad	60
86881	7	Sololá	701	Sololá	4	Finca Santa Victoria	1	Enero	2023-01-30T00:00:00	2024-11-08T05:00:00	6	Velocidad del viento	1.6
86882	7	Sololá	701	Sololá	4	Finca Santa Victoria	1	Enero	2023-01-30T00:00:00	2024-11-08T05:00:00	7	Dirección del viento	1.61
86883	7	Sololá	701	Sololá	4	Finca Santa Victoria	1	Enero	2023-01-30T00:00:00	2024-11-08T05:00:00	1	Precipitación	0
86884	7	Sololá	701	Sololá	4	Finca Santa Victoria	1	Enero	2023-01-30T00:00:00	2024-11-08T05:00:00	8	Radiación solar	0
86885	7	Sololá	701	Sololá	4	Finca Santa Victoria	1	Enero	2023-01-30T00:00:00	2024-11-08T06:00:00	2	Temperatura media	11.1
86886	7	Sololá	701	Sololá	4	Finca Santa Victoria	1	Enero	2023-01-30T00:00:00	2024-11-08T06:00:00	4	Temperatura máxima	11.4
86887	7	Sololá	701	Sololá	4	Finca Santa Victoria	1	Enero	2023-01-30T00:00:00	2024-11-08T06:00:00	3	Temperatura mínima	11.1
86888	7	Sololá	701	Sololá	4	Finca Santa Victoria	1	Enero	2023-01-30T00:00:00	2024-11-08T06:00:00	5	Humedad	62
86889	7	Sololá	701	Sololá	4	Finca Santa Victoria	1	Enero	2023-01-30T00:00:00	2024-11-08T06:00:00	6	Velocidad del viento	1.6
86890	7	Sololá	701	Sololá	4	Finca Santa Victoria	1	Enero	2023-01-30T00:00:00	2024-11-08T06:00:00	7	Dirección del viento	1.61
86891	7	Sololá	701	Sololá	4	Finca Santa Victoria	1	Enero	2023-01-30T00:00:00	2024-11-08T06:00:00	1	Precipitación	0
86892	7	Sololá	701	Sololá	4	Finca Santa Victoria	1	Enero	2023-01-30T00:00:00	2024-11-08T06:00:00	8	Radiación solar	0
86893	7	Sololá	701	Sololá	4	Finca Santa Victoria	1	Enero	2023-01-30T00:00:00	2024-11-08T07:00:00	2	Temperatura media	10
86894	7	Sololá	701	Sololá	4	Finca Santa Victoria	1	Enero	2023-01-30T00:00:00	2024-11-08T07:00:00	4	Temperatura máxima	11.1
86895	7	Sololá	701	Sololá	4	Finca Santa Victoria	1	Enero	2023-01-30T00:00:00	2024-11-08T07:00:00	3	Temperatura mínima	9.6
86896	7	Sololá	701	Sololá	4	Finca Santa Victoria	1	Enero	2023-01-30T00:00:00	2024-11-08T07:00:00	5	Humedad	67
86897	7	Sololá	701	Sololá	4	Finca Santa Victoria	1	Enero	2023-01-30T00:00:00	2024-11-08T07:00:00	6	Velocidad del viento	1.6
86898	7	Sololá	701	Sololá	4	Finca Santa Victoria	1	Enero	2023-01-30T00:00:00	2024-11-08T07:00:00	7	Dirección del viento	1.61
86899	7	Sololá	701	Sololá	4	Finca Santa Victoria	1	Enero	2023-01-30T00:00:00	2024-11-08T07:00:00	1	Precipitación	0
86900	7	Sololá	701	Sololá	4	Finca Santa Victoria	1	Enero	2023-01-30T00:00:00	2024-11-08T07:00:00	8	Radiación solar	3
86901	7	Sololá	701	Sololá	4	Finca Santa Victoria	1	Enero	2023-01-30T00:00:00	2024-11-08T08:00:00	2	Temperatura media	11.8
86902	7	Sololá	701	Sololá	4	Finca Santa Victoria	1	Enero	2023-01-30T00:00:00	2024-11-08T08:00:00	4	Temperatura máxima	11.8
86903	7	Sololá	701	Sololá	4	Finca Santa Victoria	1	Enero	2023-01-30T00:00:00	2024-11-08T08:00:00	3	Temperatura mínima	10
86904	7	Sololá	701	Sololá	4	Finca Santa Victoria	1	Enero	2023-01-30T00:00:00	2024-11-08T08:00:00	5	Humedad	69
86905	7	Sololá	701	Sololá	4	Finca Santa Victoria	1	Enero	2023-01-30T00:00:00	2024-11-08T08:00:00	6	Velocidad del viento	1.6
86906	7	Sololá	701	Sololá	4	Finca Santa Victoria	1	Enero	2023-01-30T00:00:00	2024-11-08T08:00:00	7	Dirección del viento	1.61
86907	7	Sololá	701	Sololá	4	Finca Santa Victoria	1	Enero	2023-01-30T00:00:00	2024-11-08T08:00:00	1	Precipitación	0
86908	7	Sololá	701	Sololá	4	Finca Santa Victoria	1	Enero	2023-01-30T00:00:00	2024-11-08T08:00:00	8	Radiación solar	39
86909	7	Sololá	701	Sololá	4	Finca Santa Victoria	1	Enero	2023-01-30T00:00:00	2024-11-08T09:00:00	2	Temperatura media	13.4
86910	7	Sololá	701	Sololá	4	Finca Santa Victoria	1	Enero	2023-01-30T00:00:00	2024-11-08T09:00:00	4	Temperatura máxima	13.4
86911	7	Sololá	701	Sololá	4	Finca Santa Victoria	1	Enero	2023-01-30T00:00:00	2024-11-08T09:00:00	3	Temperatura mínima	11.8
86912	7	Sololá	701	Sololá	4	Finca Santa Victoria	1	Enero	2023-01-30T00:00:00	2024-11-08T09:00:00	5	Humedad	64
86913	7	Sololá	701	Sololá	4	Finca Santa Victoria	1	Enero	2023-01-30T00:00:00	2024-11-08T09:00:00	6	Velocidad del viento	1.6
86914	7	Sololá	701	Sololá	4	Finca Santa Victoria	1	Enero	2023-01-30T00:00:00	2024-11-08T09:00:00	7	Dirección del viento	1.61
86915	7	Sololá	701	Sololá	4	Finca Santa Victoria	1	Enero	2023-01-30T00:00:00	2024-11-08T09:00:00	1	Precipitación	0
86916	7	Sololá	701	Sololá	4	Finca Santa Victoria	1	Enero	2023-01-30T00:00:00	2024-11-08T09:00:00	8	Radiación solar	164
86917	7	Sololá	701	Sololá	4	Finca Santa Victoria	1	Enero	2023-01-30T00:00:00	2024-11-08T10:00:00	2	Temperatura media	16.8
86918	7	Sololá	701	Sololá	4	Finca Santa Victoria	1	Enero	2023-01-30T00:00:00	2024-11-08T10:00:00	4	Temperatura máxima	16.8
86919	7	Sololá	701	Sololá	4	Finca Santa Victoria	1	Enero	2023-01-30T00:00:00	2024-11-08T10:00:00	3	Temperatura mínima	13.4
86920	7	Sololá	701	Sololá	4	Finca Santa Victoria	1	Enero	2023-01-30T00:00:00	2024-11-08T10:00:00	5	Humedad	58
86921	7	Sololá	701	Sololá	4	Finca Santa Victoria	1	Enero	2023-01-30T00:00:00	2024-11-08T10:00:00	6	Velocidad del viento	3.2
86922	7	Sololá	701	Sololá	4	Finca Santa Victoria	1	Enero	2023-01-30T00:00:00	2024-11-08T10:00:00	7	Dirección del viento	3.22
86923	7	Sololá	701	Sololá	4	Finca Santa Victoria	1	Enero	2023-01-30T00:00:00	2024-11-08T10:00:00	1	Precipitación	0
86924	7	Sololá	701	Sololá	4	Finca Santa Victoria	1	Enero	2023-01-30T00:00:00	2024-11-08T10:00:00	8	Radiación solar	258
86925	7	Sololá	701	Sololá	4	Finca Santa Victoria	1	Enero	2023-01-30T00:00:00	2024-11-08T11:00:00	2	Temperatura media	19.8
86926	7	Sololá	701	Sololá	4	Finca Santa Victoria	1	Enero	2023-01-30T00:00:00	2024-11-08T11:00:00	4	Temperatura máxima	20.1
86927	7	Sololá	701	Sololá	4	Finca Santa Victoria	1	Enero	2023-01-30T00:00:00	2024-11-08T11:00:00	3	Temperatura mínima	16.8
86928	7	Sololá	701	Sololá	4	Finca Santa Victoria	1	Enero	2023-01-30T00:00:00	2024-11-08T11:00:00	5	Humedad	49
86929	7	Sololá	701	Sololá	4	Finca Santa Victoria	1	Enero	2023-01-30T00:00:00	2024-11-08T11:00:00	6	Velocidad del viento	3.2
86930	7	Sololá	701	Sololá	4	Finca Santa Victoria	1	Enero	2023-01-30T00:00:00	2024-11-08T11:00:00	7	Dirección del viento	3.22
86931	7	Sololá	701	Sololá	4	Finca Santa Victoria	1	Enero	2023-01-30T00:00:00	2024-11-08T11:00:00	1	Precipitación	0
86932	7	Sololá	701	Sololá	4	Finca Santa Victoria	1	Enero	2023-01-30T00:00:00	2024-11-08T11:00:00	8	Radiación solar	815
86933	7	Sololá	701	Sololá	4	Finca Santa Victoria	1	Enero	2023-01-30T00:00:00	2024-11-08T12:00:00	2	Temperatura media	20.9
86934	7	Sololá	701	Sololá	4	Finca Santa Victoria	1	Enero	2023-01-30T00:00:00	2024-11-08T12:00:00	4	Temperatura máxima	21
86935	7	Sololá	701	Sololá	4	Finca Santa Victoria	1	Enero	2023-01-30T00:00:00	2024-11-08T12:00:00	3	Temperatura mínima	19.6
86936	7	Sololá	701	Sololá	4	Finca Santa Victoria	1	Enero	2023-01-30T00:00:00	2024-11-08T12:00:00	5	Humedad	45
86937	7	Sololá	701	Sololá	4	Finca Santa Victoria	1	Enero	2023-01-30T00:00:00	2024-11-08T12:00:00	6	Velocidad del viento	3.2
86938	7	Sololá	701	Sololá	4	Finca Santa Victoria	1	Enero	2023-01-30T00:00:00	2024-11-08T12:00:00	7	Dirección del viento	3.22
86939	7	Sololá	701	Sololá	4	Finca Santa Victoria	1	Enero	2023-01-30T00:00:00	2024-11-08T12:00:00	1	Precipitación	0
86940	7	Sololá	701	Sololá	4	Finca Santa Victoria	1	Enero	2023-01-30T00:00:00	2024-11-08T12:00:00	8	Radiación solar	906
86941	7	Sololá	701	Sololá	4	Finca Santa Victoria	1	Enero	2023-01-30T00:00:00	2024-11-08T13:00:00	2	Temperatura media	20.8
86942	7	Sololá	701	Sololá	4	Finca Santa Victoria	1	Enero	2023-01-30T00:00:00	2024-11-08T13:00:00	4	Temperatura máxima	22.1
86943	7	Sololá	701	Sololá	4	Finca Santa Victoria	1	Enero	2023-01-30T00:00:00	2024-11-08T13:00:00	3	Temperatura mínima	20.7
86944	7	Sololá	701	Sololá	4	Finca Santa Victoria	1	Enero	2023-01-30T00:00:00	2024-11-08T13:00:00	5	Humedad	54
86945	7	Sololá	701	Sololá	4	Finca Santa Victoria	1	Enero	2023-01-30T00:00:00	2024-11-08T13:00:00	6	Velocidad del viento	3.2
86946	7	Sololá	701	Sololá	4	Finca Santa Victoria	1	Enero	2023-01-30T00:00:00	2024-11-08T13:00:00	7	Dirección del viento	3.22
86947	7	Sololá	701	Sololá	4	Finca Santa Victoria	1	Enero	2023-01-30T00:00:00	2024-11-08T13:00:00	1	Precipitación	0
86948	7	Sololá	701	Sololá	4	Finca Santa Victoria	1	Enero	2023-01-30T00:00:00	2024-11-08T13:00:00	8	Radiación solar	924
86949	7	Sololá	701	Sololá	4	Finca Santa Victoria	1	Enero	2023-01-30T00:00:00	2024-11-08T14:00:00	2	Temperatura media	19.3
86950	7	Sololá	701	Sololá	4	Finca Santa Victoria	1	Enero	2023-01-30T00:00:00	2024-11-08T14:00:00	4	Temperatura máxima	20.8
86951	7	Sololá	701	Sololá	4	Finca Santa Victoria	1	Enero	2023-01-30T00:00:00	2024-11-08T14:00:00	3	Temperatura mínima	19.3
86952	7	Sololá	701	Sololá	4	Finca Santa Victoria	1	Enero	2023-01-30T00:00:00	2024-11-08T14:00:00	5	Humedad	61
86953	7	Sololá	701	Sololá	4	Finca Santa Victoria	1	Enero	2023-01-30T00:00:00	2024-11-08T14:00:00	6	Velocidad del viento	4.8
86954	7	Sololá	701	Sololá	4	Finca Santa Victoria	1	Enero	2023-01-30T00:00:00	2024-11-08T14:00:00	7	Dirección del viento	4.83
86955	7	Sololá	701	Sololá	4	Finca Santa Victoria	1	Enero	2023-01-30T00:00:00	2024-11-08T14:00:00	1	Precipitación	0
86956	7	Sololá	701	Sololá	4	Finca Santa Victoria	1	Enero	2023-01-30T00:00:00	2024-11-08T14:00:00	8	Radiación solar	850
86957	7	Sololá	701	Sololá	4	Finca Santa Victoria	1	Enero	2023-01-30T00:00:00	2024-11-08T15:00:00	2	Temperatura media	18.6
86958	7	Sololá	701	Sololá	4	Finca Santa Victoria	1	Enero	2023-01-30T00:00:00	2024-11-08T15:00:00	4	Temperatura máxima	19.4
86959	7	Sololá	701	Sololá	4	Finca Santa Victoria	1	Enero	2023-01-30T00:00:00	2024-11-08T15:00:00	3	Temperatura mínima	18.3
86960	7	Sololá	701	Sololá	4	Finca Santa Victoria	1	Enero	2023-01-30T00:00:00	2024-11-08T15:00:00	5	Humedad	67
86961	7	Sololá	701	Sololá	4	Finca Santa Victoria	1	Enero	2023-01-30T00:00:00	2024-11-08T15:00:00	6	Velocidad del viento	4.8
86962	7	Sololá	701	Sololá	4	Finca Santa Victoria	1	Enero	2023-01-30T00:00:00	2024-11-08T15:00:00	7	Dirección del viento	4.83
86963	7	Sololá	701	Sololá	4	Finca Santa Victoria	1	Enero	2023-01-30T00:00:00	2024-11-08T15:00:00	1	Precipitación	0
86964	7	Sololá	701	Sololá	4	Finca Santa Victoria	1	Enero	2023-01-30T00:00:00	2024-11-08T15:00:00	8	Radiación solar	564
86965	7	Sololá	701	Sololá	4	Finca Santa Victoria	1	Enero	2023-01-30T00:00:00	2024-11-08T16:00:00	2	Temperatura media	18.3
86966	7	Sololá	701	Sololá	4	Finca Santa Victoria	1	Enero	2023-01-30T00:00:00	2024-11-08T16:00:00	4	Temperatura máxima	19.3
86967	7	Sololá	701	Sololá	4	Finca Santa Victoria	1	Enero	2023-01-30T00:00:00	2024-11-08T16:00:00	3	Temperatura mínima	17.9
86968	7	Sololá	701	Sololá	4	Finca Santa Victoria	1	Enero	2023-01-30T00:00:00	2024-11-08T16:00:00	5	Humedad	70
86969	7	Sololá	701	Sololá	4	Finca Santa Victoria	1	Enero	2023-01-30T00:00:00	2024-11-08T16:00:00	6	Velocidad del viento	4.8
86970	7	Sololá	701	Sololá	4	Finca Santa Victoria	1	Enero	2023-01-30T00:00:00	2024-11-08T16:00:00	7	Dirección del viento	4.83
86971	7	Sololá	701	Sololá	4	Finca Santa Victoria	1	Enero	2023-01-30T00:00:00	2024-11-08T16:00:00	1	Precipitación	0
86972	7	Sololá	701	Sololá	4	Finca Santa Victoria	1	Enero	2023-01-30T00:00:00	2024-11-08T16:00:00	8	Radiación solar	331
86973	7	Sololá	701	Sololá	4	Finca Santa Victoria	1	Enero	2023-01-30T00:00:00	2024-11-08T17:00:00	2	Temperatura media	17.3
86974	7	Sololá	701	Sololá	4	Finca Santa Victoria	1	Enero	2023-01-30T00:00:00	2024-11-08T17:00:00	4	Temperatura máxima	18.3
86975	7	Sololá	701	Sololá	4	Finca Santa Victoria	1	Enero	2023-01-30T00:00:00	2024-11-08T17:00:00	3	Temperatura mínima	17.3
86976	7	Sololá	701	Sololá	4	Finca Santa Victoria	1	Enero	2023-01-30T00:00:00	2024-11-08T17:00:00	5	Humedad	73
86977	7	Sololá	701	Sololá	4	Finca Santa Victoria	1	Enero	2023-01-30T00:00:00	2024-11-08T17:00:00	6	Velocidad del viento	3.2
86978	7	Sololá	701	Sololá	4	Finca Santa Victoria	1	Enero	2023-01-30T00:00:00	2024-11-08T17:00:00	7	Dirección del viento	3.22
86979	7	Sololá	701	Sololá	4	Finca Santa Victoria	1	Enero	2023-01-30T00:00:00	2024-11-08T17:00:00	1	Precipitación	0
86980	7	Sololá	701	Sololá	4	Finca Santa Victoria	1	Enero	2023-01-30T00:00:00	2024-11-08T17:00:00	8	Radiación solar	276
86981	7	Sololá	701	Sololá	4	Finca Santa Victoria	1	Enero	2023-01-30T00:00:00	2024-11-08T18:00:00	2	Temperatura media	14.8
86982	7	Sololá	701	Sololá	4	Finca Santa Victoria	1	Enero	2023-01-30T00:00:00	2024-11-08T18:00:00	4	Temperatura máxima	17.5
86983	7	Sololá	701	Sololá	4	Finca Santa Victoria	1	Enero	2023-01-30T00:00:00	2024-11-08T18:00:00	3	Temperatura mínima	14.8
86984	7	Sololá	701	Sololá	4	Finca Santa Victoria	1	Enero	2023-01-30T00:00:00	2024-11-08T18:00:00	5	Humedad	82
86985	7	Sololá	701	Sololá	4	Finca Santa Victoria	1	Enero	2023-01-30T00:00:00	2024-11-08T18:00:00	6	Velocidad del viento	1.6
86986	7	Sololá	701	Sololá	4	Finca Santa Victoria	1	Enero	2023-01-30T00:00:00	2024-11-08T18:00:00	7	Dirección del viento	1.61
86987	7	Sololá	701	Sololá	4	Finca Santa Victoria	1	Enero	2023-01-30T00:00:00	2024-11-08T18:00:00	1	Precipitación	0
86988	7	Sololá	701	Sololá	4	Finca Santa Victoria	1	Enero	2023-01-30T00:00:00	2024-11-08T18:00:00	8	Radiación solar	59
86989	7	Sololá	701	Sololá	4	Finca Santa Victoria	1	Enero	2023-01-30T00:00:00	2024-11-08T19:00:00	2	Temperatura media	13.2
86990	7	Sololá	701	Sololá	4	Finca Santa Victoria	1	Enero	2023-01-30T00:00:00	2024-11-08T19:00:00	4	Temperatura máxima	14.8
86991	7	Sololá	701	Sololá	4	Finca Santa Victoria	1	Enero	2023-01-30T00:00:00	2024-11-08T19:00:00	3	Temperatura mínima	13.2
86992	7	Sololá	701	Sololá	4	Finca Santa Victoria	1	Enero	2023-01-30T00:00:00	2024-11-08T19:00:00	5	Humedad	70
86993	7	Sololá	701	Sololá	4	Finca Santa Victoria	1	Enero	2023-01-30T00:00:00	2024-11-08T19:00:00	6	Velocidad del viento	1.6
86994	7	Sololá	701	Sololá	4	Finca Santa Victoria	1	Enero	2023-01-30T00:00:00	2024-11-08T19:00:00	7	Dirección del viento	1.61
86995	7	Sololá	701	Sololá	4	Finca Santa Victoria	1	Enero	2023-01-30T00:00:00	2024-11-08T19:00:00	1	Precipitación	0
86996	7	Sololá	701	Sololá	4	Finca Santa Victoria	1	Enero	2023-01-30T00:00:00	2024-11-08T19:00:00	8	Radiación solar	0
86997	7	Sololá	701	Sololá	4	Finca Santa Victoria	1	Enero	2023-01-30T00:00:00	2024-11-08T20:00:00	2	Temperatura media	12.4
86998	7	Sololá	701	Sololá	4	Finca Santa Victoria	1	Enero	2023-01-30T00:00:00	2024-11-08T20:00:00	4	Temperatura máxima	13.2
86999	7	Sololá	701	Sololá	4	Finca Santa Victoria	1	Enero	2023-01-30T00:00:00	2024-11-08T20:00:00	3	Temperatura mínima	12.3
87000	7	Sololá	701	Sololá	4	Finca Santa Victoria	1	Enero	2023-01-30T00:00:00	2024-11-08T20:00:00	5	Humedad	79
87001	7	Sololá	701	Sololá	4	Finca Santa Victoria	1	Enero	2023-01-30T00:00:00	2024-11-08T20:00:00	6	Velocidad del viento	1.6
87002	7	Sololá	701	Sololá	4	Finca Santa Victoria	1	Enero	2023-01-30T00:00:00	2024-11-08T20:00:00	7	Dirección del viento	1.61
87003	7	Sololá	701	Sololá	4	Finca Santa Victoria	1	Enero	2023-01-30T00:00:00	2024-11-08T20:00:00	1	Precipitación	0
87004	7	Sololá	701	Sololá	4	Finca Santa Victoria	1	Enero	2023-01-30T00:00:00	2024-11-08T20:00:00	8	Radiación solar	0
87005	7	Sololá	701	Sololá	4	Finca Santa Victoria	1	Enero	2023-01-30T00:00:00	2024-11-08T21:00:00	2	Temperatura media	12.7
87006	7	Sololá	701	Sololá	4	Finca Santa Victoria	1	Enero	2023-01-30T00:00:00	2024-11-08T21:00:00	4	Temperatura máxima	12.7
87007	7	Sololá	701	Sololá	4	Finca Santa Victoria	1	Enero	2023-01-30T00:00:00	2024-11-08T21:00:00	3	Temperatura mínima	12.1
87008	7	Sololá	701	Sololá	4	Finca Santa Victoria	1	Enero	2023-01-30T00:00:00	2024-11-08T21:00:00	5	Humedad	81
87009	7	Sololá	701	Sololá	4	Finca Santa Victoria	1	Enero	2023-01-30T00:00:00	2024-11-08T21:00:00	6	Velocidad del viento	3.2
87010	7	Sololá	701	Sololá	4	Finca Santa Victoria	1	Enero	2023-01-30T00:00:00	2024-11-08T21:00:00	7	Dirección del viento	3.22
87011	7	Sololá	701	Sololá	4	Finca Santa Victoria	1	Enero	2023-01-30T00:00:00	2024-11-08T21:00:00	1	Precipitación	0
87012	7	Sololá	701	Sololá	4	Finca Santa Victoria	1	Enero	2023-01-30T00:00:00	2024-11-08T21:00:00	8	Radiación solar	0
87013	7	Sololá	701	Sololá	4	Finca Santa Victoria	1	Enero	2023-01-30T00:00:00	2024-11-08T22:00:00	2	Temperatura media	12.4
87014	7	Sololá	701	Sololá	4	Finca Santa Victoria	1	Enero	2023-01-30T00:00:00	2024-11-08T22:00:00	4	Temperatura máxima	12.7
87015	7	Sololá	701	Sololá	4	Finca Santa Victoria	1	Enero	2023-01-30T00:00:00	2024-11-08T22:00:00	3	Temperatura mínima	12.3
87016	7	Sololá	701	Sololá	4	Finca Santa Victoria	1	Enero	2023-01-30T00:00:00	2024-11-08T22:00:00	5	Humedad	82
87017	7	Sololá	701	Sololá	4	Finca Santa Victoria	1	Enero	2023-01-30T00:00:00	2024-11-08T22:00:00	6	Velocidad del viento	3.2
87018	7	Sololá	701	Sololá	4	Finca Santa Victoria	1	Enero	2023-01-30T00:00:00	2024-11-08T22:00:00	7	Dirección del viento	3.22
87019	7	Sololá	701	Sololá	4	Finca Santa Victoria	1	Enero	2023-01-30T00:00:00	2024-11-08T22:00:00	1	Precipitación	0
87020	7	Sololá	701	Sololá	4	Finca Santa Victoria	1	Enero	2023-01-30T00:00:00	2024-11-08T22:00:00	8	Radiación solar	0
87021	7	Sololá	701	Sololá	4	Finca Santa Victoria	1	Enero	2023-01-30T00:00:00	2024-11-08T23:00:00	2	Temperatura media	11.7
87022	7	Sololá	701	Sololá	4	Finca Santa Victoria	1	Enero	2023-01-30T00:00:00	2024-11-08T23:00:00	4	Temperatura máxima	12.4
87023	7	Sololá	701	Sololá	4	Finca Santa Victoria	1	Enero	2023-01-30T00:00:00	2024-11-08T23:00:00	3	Temperatura mínima	11.6
87024	7	Sololá	701	Sololá	4	Finca Santa Victoria	1	Enero	2023-01-30T00:00:00	2024-11-08T23:00:00	5	Humedad	82
87025	7	Sololá	701	Sololá	4	Finca Santa Victoria	1	Enero	2023-01-30T00:00:00	2024-11-08T23:00:00	6	Velocidad del viento	3.2
87026	7	Sololá	701	Sololá	4	Finca Santa Victoria	1	Enero	2023-01-30T00:00:00	2024-11-08T23:00:00	7	Dirección del viento	3.22
87027	7	Sololá	701	Sololá	4	Finca Santa Victoria	1	Enero	2023-01-30T00:00:00	2024-11-08T23:00:00	1	Precipitación	0
87028	7	Sololá	701	Sololá	4	Finca Santa Victoria	1	Enero	2023-01-30T00:00:00	2024-11-08T23:00:00	8	Radiación solar	0
87029	7	Sololá	701	Sololá	4	Finca Santa Victoria	1	Enero	2023-01-31T00:00:00	2024-11-08T00:00:00	2	Temperatura media	11
87030	7	Sololá	701	Sololá	4	Finca Santa Victoria	1	Enero	2023-01-31T00:00:00	2024-11-08T00:00:00	4	Temperatura máxima	11.7
87031	7	Sololá	701	Sololá	4	Finca Santa Victoria	1	Enero	2023-01-31T00:00:00	2024-11-08T00:00:00	3	Temperatura mínima	10.9
87032	7	Sololá	701	Sololá	4	Finca Santa Victoria	1	Enero	2023-01-31T00:00:00	2024-11-08T00:00:00	5	Humedad	82
87033	7	Sololá	701	Sololá	4	Finca Santa Victoria	1	Enero	2023-01-31T00:00:00	2024-11-08T00:00:00	6	Velocidad del viento	3.2
87034	7	Sololá	701	Sololá	4	Finca Santa Victoria	1	Enero	2023-01-31T00:00:00	2024-11-08T00:00:00	7	Dirección del viento	3.22
87035	7	Sololá	701	Sololá	4	Finca Santa Victoria	1	Enero	2023-01-31T00:00:00	2024-11-08T00:00:00	1	Precipitación	0
87036	7	Sololá	701	Sololá	4	Finca Santa Victoria	1	Enero	2023-01-31T00:00:00	2024-11-08T00:00:00	8	Radiación solar	0
87037	7	Sololá	701	Sololá	4	Finca Santa Victoria	1	Enero	2023-01-31T00:00:00	2024-11-08T01:00:00	2	Temperatura media	9.9
87038	7	Sololá	701	Sololá	4	Finca Santa Victoria	1	Enero	2023-01-31T00:00:00	2024-11-08T01:00:00	4	Temperatura máxima	11
87039	7	Sololá	701	Sololá	4	Finca Santa Victoria	1	Enero	2023-01-31T00:00:00	2024-11-08T01:00:00	3	Temperatura mínima	9.9
87040	7	Sololá	701	Sololá	4	Finca Santa Victoria	1	Enero	2023-01-31T00:00:00	2024-11-08T01:00:00	5	Humedad	84
87041	7	Sololá	701	Sololá	4	Finca Santa Victoria	1	Enero	2023-01-31T00:00:00	2024-11-08T01:00:00	6	Velocidad del viento	1.6
87042	7	Sololá	701	Sololá	4	Finca Santa Victoria	1	Enero	2023-01-31T00:00:00	2024-11-08T01:00:00	7	Dirección del viento	1.61
87043	7	Sololá	701	Sololá	4	Finca Santa Victoria	1	Enero	2023-01-31T00:00:00	2024-11-08T01:00:00	1	Precipitación	0
87044	7	Sololá	701	Sololá	4	Finca Santa Victoria	1	Enero	2023-01-31T00:00:00	2024-11-08T01:00:00	8	Radiación solar	0
87045	7	Sololá	701	Sololá	4	Finca Santa Victoria	1	Enero	2023-01-31T00:00:00	2024-11-08T02:00:00	2	Temperatura media	9.8
87046	7	Sololá	701	Sololá	4	Finca Santa Victoria	1	Enero	2023-01-31T00:00:00	2024-11-08T02:00:00	4	Temperatura máxima	10.1
87047	7	Sololá	701	Sololá	4	Finca Santa Victoria	1	Enero	2023-01-31T00:00:00	2024-11-08T02:00:00	3	Temperatura mínima	9.8
87048	7	Sololá	701	Sololá	4	Finca Santa Victoria	1	Enero	2023-01-31T00:00:00	2024-11-08T02:00:00	5	Humedad	84
87049	7	Sololá	701	Sololá	4	Finca Santa Victoria	1	Enero	2023-01-31T00:00:00	2024-11-08T02:00:00	6	Velocidad del viento	1.6
87050	7	Sololá	701	Sololá	4	Finca Santa Victoria	1	Enero	2023-01-31T00:00:00	2024-11-08T02:00:00	7	Dirección del viento	1.61
87051	7	Sololá	701	Sololá	4	Finca Santa Victoria	1	Enero	2023-01-31T00:00:00	2024-11-08T02:00:00	1	Precipitación	0
87052	7	Sololá	701	Sololá	4	Finca Santa Victoria	1	Enero	2023-01-31T00:00:00	2024-11-08T02:00:00	8	Radiación solar	0
87053	7	Sololá	701	Sololá	4	Finca Santa Victoria	1	Enero	2023-01-31T00:00:00	2024-11-08T03:00:00	2	Temperatura media	9.8
87054	7	Sololá	701	Sololá	4	Finca Santa Victoria	1	Enero	2023-01-31T00:00:00	2024-11-08T03:00:00	4	Temperatura máxima	9.9
87055	7	Sololá	701	Sololá	4	Finca Santa Victoria	1	Enero	2023-01-31T00:00:00	2024-11-08T03:00:00	3	Temperatura mínima	9.6
87056	7	Sololá	701	Sololá	4	Finca Santa Victoria	1	Enero	2023-01-31T00:00:00	2024-11-08T03:00:00	5	Humedad	84
87057	7	Sololá	701	Sololá	4	Finca Santa Victoria	1	Enero	2023-01-31T00:00:00	2024-11-08T03:00:00	6	Velocidad del viento	3.2
87058	7	Sololá	701	Sololá	4	Finca Santa Victoria	1	Enero	2023-01-31T00:00:00	2024-11-08T03:00:00	7	Dirección del viento	3.22
87059	7	Sololá	701	Sololá	4	Finca Santa Victoria	1	Enero	2023-01-31T00:00:00	2024-11-08T03:00:00	1	Precipitación	0
87060	7	Sololá	701	Sololá	4	Finca Santa Victoria	1	Enero	2023-01-31T00:00:00	2024-11-08T03:00:00	8	Radiación solar	0
87061	7	Sololá	701	Sololá	4	Finca Santa Victoria	1	Enero	2023-01-31T00:00:00	2024-11-08T04:00:00	2	Temperatura media	9.1
87062	7	Sololá	701	Sololá	4	Finca Santa Victoria	1	Enero	2023-01-31T00:00:00	2024-11-08T04:00:00	4	Temperatura máxima	9.8
87063	7	Sololá	701	Sololá	4	Finca Santa Victoria	1	Enero	2023-01-31T00:00:00	2024-11-08T04:00:00	3	Temperatura mínima	9.1
87064	7	Sololá	701	Sololá	4	Finca Santa Victoria	1	Enero	2023-01-31T00:00:00	2024-11-08T04:00:00	5	Humedad	85
87065	7	Sololá	701	Sololá	4	Finca Santa Victoria	1	Enero	2023-01-31T00:00:00	2024-11-08T04:00:00	6	Velocidad del viento	1.6
87066	7	Sololá	701	Sololá	4	Finca Santa Victoria	1	Enero	2023-01-31T00:00:00	2024-11-08T04:00:00	7	Dirección del viento	1.61
87067	7	Sololá	701	Sololá	4	Finca Santa Victoria	1	Enero	2023-01-31T00:00:00	2024-11-08T04:00:00	1	Precipitación	0
87068	7	Sololá	701	Sololá	4	Finca Santa Victoria	1	Enero	2023-01-31T00:00:00	2024-11-08T04:00:00	8	Radiación solar	0
87069	7	Sololá	701	Sololá	4	Finca Santa Victoria	1	Enero	2023-01-31T00:00:00	2024-11-08T05:00:00	2	Temperatura media	8.1
87070	7	Sololá	701	Sololá	4	Finca Santa Victoria	1	Enero	2023-01-31T00:00:00	2024-11-08T05:00:00	4	Temperatura máxima	9.2
87071	7	Sololá	701	Sololá	4	Finca Santa Victoria	1	Enero	2023-01-31T00:00:00	2024-11-08T05:00:00	3	Temperatura mínima	8.1
87072	7	Sololá	701	Sololá	4	Finca Santa Victoria	1	Enero	2023-01-31T00:00:00	2024-11-08T05:00:00	5	Humedad	89
87073	7	Sololá	701	Sololá	4	Finca Santa Victoria	1	Enero	2023-01-31T00:00:00	2024-11-08T05:00:00	6	Velocidad del viento	1.6
87074	7	Sololá	701	Sololá	4	Finca Santa Victoria	1	Enero	2023-01-31T00:00:00	2024-11-08T05:00:00	7	Dirección del viento	1.61
87075	7	Sololá	701	Sololá	4	Finca Santa Victoria	1	Enero	2023-01-31T00:00:00	2024-11-08T05:00:00	1	Precipitación	0
87076	7	Sololá	701	Sololá	4	Finca Santa Victoria	1	Enero	2023-01-31T00:00:00	2024-11-08T05:00:00	8	Radiación solar	0
87077	7	Sololá	701	Sololá	4	Finca Santa Victoria	1	Enero	2023-01-31T00:00:00	2024-11-08T06:00:00	2	Temperatura media	8.4
87078	7	Sololá	701	Sololá	4	Finca Santa Victoria	1	Enero	2023-01-31T00:00:00	2024-11-08T06:00:00	4	Temperatura máxima	8.4
87079	7	Sololá	701	Sololá	4	Finca Santa Victoria	1	Enero	2023-01-31T00:00:00	2024-11-08T06:00:00	3	Temperatura mínima	7.7
87080	7	Sololá	701	Sololá	4	Finca Santa Victoria	1	Enero	2023-01-31T00:00:00	2024-11-08T06:00:00	5	Humedad	89
87081	7	Sololá	701	Sololá	4	Finca Santa Victoria	1	Enero	2023-01-31T00:00:00	2024-11-08T06:00:00	6	Velocidad del viento	1.6
87082	7	Sololá	701	Sololá	4	Finca Santa Victoria	1	Enero	2023-01-31T00:00:00	2024-11-08T06:00:00	7	Dirección del viento	1.61
87083	7	Sololá	701	Sololá	4	Finca Santa Victoria	1	Enero	2023-01-31T00:00:00	2024-11-08T06:00:00	1	Precipitación	0
87084	7	Sololá	701	Sololá	4	Finca Santa Victoria	1	Enero	2023-01-31T00:00:00	2024-11-08T06:00:00	8	Radiación solar	0
87085	7	Sololá	701	Sololá	4	Finca Santa Victoria	1	Enero	2023-01-31T00:00:00	2024-11-08T07:00:00	2	Temperatura media	8.2
87086	7	Sololá	701	Sololá	4	Finca Santa Victoria	1	Enero	2023-01-31T00:00:00	2024-11-08T07:00:00	4	Temperatura máxima	8.3
87087	7	Sololá	701	Sololá	4	Finca Santa Victoria	1	Enero	2023-01-31T00:00:00	2024-11-08T07:00:00	3	Temperatura mínima	7.9
87088	7	Sololá	701	Sololá	4	Finca Santa Victoria	1	Enero	2023-01-31T00:00:00	2024-11-08T07:00:00	5	Humedad	92
87089	7	Sololá	701	Sololá	4	Finca Santa Victoria	1	Enero	2023-01-31T00:00:00	2024-11-08T07:00:00	6	Velocidad del viento	1.6
87090	7	Sololá	701	Sololá	4	Finca Santa Victoria	1	Enero	2023-01-31T00:00:00	2024-11-08T07:00:00	7	Dirección del viento	1.61
87091	7	Sololá	701	Sololá	4	Finca Santa Victoria	1	Enero	2023-01-31T00:00:00	2024-11-08T07:00:00	1	Precipitación	0
87092	7	Sololá	701	Sololá	4	Finca Santa Victoria	1	Enero	2023-01-31T00:00:00	2024-11-08T07:00:00	8	Radiación solar	3
87093	7	Sololá	701	Sololá	4	Finca Santa Victoria	1	Enero	2023-01-31T00:00:00	2024-11-08T08:00:00	2	Temperatura media	10.7
87094	7	Sololá	701	Sololá	4	Finca Santa Victoria	1	Enero	2023-01-31T00:00:00	2024-11-08T08:00:00	4	Temperatura máxima	10.7
87095	7	Sololá	701	Sololá	4	Finca Santa Victoria	1	Enero	2023-01-31T00:00:00	2024-11-08T08:00:00	3	Temperatura mínima	8.2
87096	7	Sololá	701	Sololá	4	Finca Santa Victoria	1	Enero	2023-01-31T00:00:00	2024-11-08T08:00:00	5	Humedad	84
87097	7	Sololá	701	Sololá	4	Finca Santa Victoria	1	Enero	2023-01-31T00:00:00	2024-11-08T08:00:00	6	Velocidad del viento	1.6
87098	7	Sololá	701	Sololá	4	Finca Santa Victoria	1	Enero	2023-01-31T00:00:00	2024-11-08T08:00:00	7	Dirección del viento	1.61
87099	7	Sololá	701	Sololá	4	Finca Santa Victoria	1	Enero	2023-01-31T00:00:00	2024-11-08T08:00:00	1	Precipitación	0
87100	7	Sololá	701	Sololá	4	Finca Santa Victoria	1	Enero	2023-01-31T00:00:00	2024-11-08T08:00:00	8	Radiación solar	39
87101	7	Sololá	701	Sololá	4	Finca Santa Victoria	1	Enero	2023-01-31T00:00:00	2024-11-08T09:00:00	2	Temperatura media	14
87102	7	Sololá	701	Sololá	4	Finca Santa Victoria	1	Enero	2023-01-31T00:00:00	2024-11-08T09:00:00	4	Temperatura máxima	14.1
87103	7	Sololá	701	Sololá	4	Finca Santa Victoria	1	Enero	2023-01-31T00:00:00	2024-11-08T09:00:00	3	Temperatura mínima	10.7
87104	7	Sololá	701	Sololá	4	Finca Santa Victoria	1	Enero	2023-01-31T00:00:00	2024-11-08T09:00:00	5	Humedad	72
87105	7	Sololá	701	Sololá	4	Finca Santa Victoria	1	Enero	2023-01-31T00:00:00	2024-11-08T09:00:00	6	Velocidad del viento	1.6
87106	7	Sololá	701	Sololá	4	Finca Santa Victoria	1	Enero	2023-01-31T00:00:00	2024-11-08T09:00:00	7	Dirección del viento	1.61
87107	7	Sololá	701	Sololá	4	Finca Santa Victoria	1	Enero	2023-01-31T00:00:00	2024-11-08T09:00:00	1	Precipitación	0
87108	7	Sololá	701	Sololá	4	Finca Santa Victoria	1	Enero	2023-01-31T00:00:00	2024-11-08T09:00:00	8	Radiación solar	160
87109	7	Sololá	701	Sololá	4	Finca Santa Victoria	1	Enero	2023-01-31T00:00:00	2024-11-08T10:00:00	2	Temperatura media	16.3
87110	7	Sololá	701	Sololá	4	Finca Santa Victoria	1	Enero	2023-01-31T00:00:00	2024-11-08T10:00:00	4	Temperatura máxima	16.3
87111	7	Sololá	701	Sololá	4	Finca Santa Victoria	1	Enero	2023-01-31T00:00:00	2024-11-08T10:00:00	3	Temperatura mínima	14.1
87112	7	Sololá	701	Sololá	4	Finca Santa Victoria	1	Enero	2023-01-31T00:00:00	2024-11-08T10:00:00	5	Humedad	63
87113	7	Sololá	701	Sololá	4	Finca Santa Victoria	1	Enero	2023-01-31T00:00:00	2024-11-08T10:00:00	6	Velocidad del viento	3.2
87114	7	Sololá	701	Sololá	4	Finca Santa Victoria	1	Enero	2023-01-31T00:00:00	2024-11-08T10:00:00	7	Dirección del viento	3.22
87115	7	Sololá	701	Sololá	4	Finca Santa Victoria	1	Enero	2023-01-31T00:00:00	2024-11-08T10:00:00	1	Precipitación	0
87116	7	Sololá	701	Sololá	4	Finca Santa Victoria	1	Enero	2023-01-31T00:00:00	2024-11-08T10:00:00	8	Radiación solar	267
87117	7	Sololá	701	Sololá	4	Finca Santa Victoria	1	Enero	2023-01-31T00:00:00	2024-11-08T11:00:00	2	Temperatura media	20.2
87118	7	Sololá	701	Sololá	4	Finca Santa Victoria	1	Enero	2023-01-31T00:00:00	2024-11-08T11:00:00	4	Temperatura máxima	20.2
87119	7	Sololá	701	Sololá	4	Finca Santa Victoria	1	Enero	2023-01-31T00:00:00	2024-11-08T11:00:00	3	Temperatura mínima	16.3
87120	7	Sololá	701	Sololá	4	Finca Santa Victoria	1	Enero	2023-01-31T00:00:00	2024-11-08T11:00:00	5	Humedad	41
87121	7	Sololá	701	Sololá	4	Finca Santa Victoria	1	Enero	2023-01-31T00:00:00	2024-11-08T11:00:00	6	Velocidad del viento	3.2
87122	7	Sololá	701	Sololá	4	Finca Santa Victoria	1	Enero	2023-01-31T00:00:00	2024-11-08T11:00:00	7	Dirección del viento	3.22
87123	7	Sololá	701	Sololá	4	Finca Santa Victoria	1	Enero	2023-01-31T00:00:00	2024-11-08T11:00:00	1	Precipitación	0
87124	7	Sololá	701	Sololá	4	Finca Santa Victoria	1	Enero	2023-01-31T00:00:00	2024-11-08T11:00:00	8	Radiación solar	829
87125	7	Sololá	701	Sololá	4	Finca Santa Victoria	1	Enero	2023-01-31T00:00:00	2024-11-08T12:00:00	2	Temperatura media	21.9
87126	7	Sololá	701	Sololá	4	Finca Santa Victoria	1	Enero	2023-01-31T00:00:00	2024-11-08T12:00:00	4	Temperatura máxima	22.2
87127	7	Sololá	701	Sololá	4	Finca Santa Victoria	1	Enero	2023-01-31T00:00:00	2024-11-08T12:00:00	3	Temperatura mínima	20.3
87128	7	Sololá	701	Sololá	4	Finca Santa Victoria	1	Enero	2023-01-31T00:00:00	2024-11-08T12:00:00	5	Humedad	27
87129	7	Sololá	701	Sololá	4	Finca Santa Victoria	1	Enero	2023-01-31T00:00:00	2024-11-08T12:00:00	6	Velocidad del viento	6.4
87130	7	Sololá	701	Sololá	4	Finca Santa Victoria	1	Enero	2023-01-31T00:00:00	2024-11-08T12:00:00	7	Dirección del viento	6.44
87131	7	Sololá	701	Sololá	4	Finca Santa Victoria	1	Enero	2023-01-31T00:00:00	2024-11-08T12:00:00	1	Precipitación	0
87132	7	Sololá	701	Sololá	4	Finca Santa Victoria	1	Enero	2023-01-31T00:00:00	2024-11-08T12:00:00	8	Radiación solar	934
87133	7	Sololá	701	Sololá	4	Finca Santa Victoria	1	Enero	2023-01-31T00:00:00	2024-11-08T13:00:00	2	Temperatura media	22.2
87134	7	Sololá	701	Sololá	4	Finca Santa Victoria	1	Enero	2023-01-31T00:00:00	2024-11-08T13:00:00	4	Temperatura máxima	22.2
87135	7	Sololá	701	Sololá	4	Finca Santa Victoria	1	Enero	2023-01-31T00:00:00	2024-11-08T13:00:00	3	Temperatura mínima	21.6
87136	7	Sololá	701	Sololá	4	Finca Santa Victoria	1	Enero	2023-01-31T00:00:00	2024-11-08T13:00:00	5	Humedad	29
87137	7	Sololá	701	Sololá	4	Finca Santa Victoria	1	Enero	2023-01-31T00:00:00	2024-11-08T13:00:00	6	Velocidad del viento	6.4
87138	7	Sololá	701	Sololá	4	Finca Santa Victoria	1	Enero	2023-01-31T00:00:00	2024-11-08T13:00:00	7	Dirección del viento	6.44
87139	7	Sololá	701	Sololá	4	Finca Santa Victoria	1	Enero	2023-01-31T00:00:00	2024-11-08T13:00:00	1	Precipitación	0
87140	7	Sololá	701	Sololá	4	Finca Santa Victoria	1	Enero	2023-01-31T00:00:00	2024-11-08T13:00:00	8	Radiación solar	947
87141	7	Sololá	701	Sololá	4	Finca Santa Victoria	1	Enero	2023-01-31T00:00:00	2024-11-08T14:00:00	2	Temperatura media	22.7
87142	7	Sololá	701	Sololá	4	Finca Santa Victoria	1	Enero	2023-01-31T00:00:00	2024-11-08T14:00:00	4	Temperatura máxima	22.9
87143	7	Sololá	701	Sololá	4	Finca Santa Victoria	1	Enero	2023-01-31T00:00:00	2024-11-08T14:00:00	3	Temperatura mínima	22.2
87144	7	Sololá	701	Sololá	4	Finca Santa Victoria	1	Enero	2023-01-31T00:00:00	2024-11-08T14:00:00	5	Humedad	31
87145	7	Sololá	701	Sololá	4	Finca Santa Victoria	1	Enero	2023-01-31T00:00:00	2024-11-08T14:00:00	6	Velocidad del viento	6.4
87146	7	Sololá	701	Sololá	4	Finca Santa Victoria	1	Enero	2023-01-31T00:00:00	2024-11-08T14:00:00	7	Dirección del viento	6.44
87147	7	Sololá	701	Sololá	4	Finca Santa Victoria	1	Enero	2023-01-31T00:00:00	2024-11-08T14:00:00	1	Precipitación	0
87148	7	Sololá	701	Sololá	4	Finca Santa Victoria	1	Enero	2023-01-31T00:00:00	2024-11-08T14:00:00	8	Radiación solar	883
87149	7	Sololá	701	Sololá	4	Finca Santa Victoria	1	Enero	2023-01-31T00:00:00	2024-11-08T15:00:00	2	Temperatura media	22.3
87150	7	Sololá	701	Sololá	4	Finca Santa Victoria	1	Enero	2023-01-31T00:00:00	2024-11-08T15:00:00	4	Temperatura máxima	22.8
87151	7	Sololá	701	Sololá	4	Finca Santa Victoria	1	Enero	2023-01-31T00:00:00	2024-11-08T15:00:00	3	Temperatura mínima	22.2
87152	7	Sololá	701	Sololá	4	Finca Santa Victoria	1	Enero	2023-01-31T00:00:00	2024-11-08T15:00:00	5	Humedad	30
87153	7	Sololá	701	Sololá	4	Finca Santa Victoria	1	Enero	2023-01-31T00:00:00	2024-11-08T15:00:00	6	Velocidad del viento	4.8
87154	7	Sololá	701	Sololá	4	Finca Santa Victoria	1	Enero	2023-01-31T00:00:00	2024-11-08T15:00:00	7	Dirección del viento	4.83
87155	7	Sololá	701	Sololá	4	Finca Santa Victoria	1	Enero	2023-01-31T00:00:00	2024-11-08T15:00:00	1	Precipitación	0
87156	7	Sololá	701	Sololá	4	Finca Santa Victoria	1	Enero	2023-01-31T00:00:00	2024-11-08T15:00:00	8	Radiación solar	656
87157	7	Sololá	701	Sololá	4	Finca Santa Victoria	1	Enero	2023-01-31T00:00:00	2024-11-08T16:00:00	2	Temperatura media	20.1
87158	7	Sololá	701	Sololá	4	Finca Santa Victoria	1	Enero	2023-01-31T00:00:00	2024-11-08T16:00:00	4	Temperatura máxima	22.6
87159	7	Sololá	701	Sololá	4	Finca Santa Victoria	1	Enero	2023-01-31T00:00:00	2024-11-08T16:00:00	3	Temperatura mínima	19.9
87160	7	Sololá	701	Sololá	4	Finca Santa Victoria	1	Enero	2023-01-31T00:00:00	2024-11-08T16:00:00	5	Humedad	63
87161	7	Sololá	701	Sololá	4	Finca Santa Victoria	1	Enero	2023-01-31T00:00:00	2024-11-08T16:00:00	6	Velocidad del viento	4.8
87162	7	Sololá	701	Sololá	4	Finca Santa Victoria	1	Enero	2023-01-31T00:00:00	2024-11-08T16:00:00	7	Dirección del viento	4.83
87163	7	Sololá	701	Sololá	4	Finca Santa Victoria	1	Enero	2023-01-31T00:00:00	2024-11-08T16:00:00	1	Precipitación	0
87164	7	Sololá	701	Sololá	4	Finca Santa Victoria	1	Enero	2023-01-31T00:00:00	2024-11-08T16:00:00	8	Radiación solar	328
87165	7	Sololá	701	Sololá	4	Finca Santa Victoria	1	Enero	2023-01-31T00:00:00	2024-11-08T17:00:00	2	Temperatura media	19.8
87166	7	Sololá	701	Sololá	4	Finca Santa Victoria	1	Enero	2023-01-31T00:00:00	2024-11-08T17:00:00	4	Temperatura máxima	20.3
87167	7	Sololá	701	Sololá	4	Finca Santa Victoria	1	Enero	2023-01-31T00:00:00	2024-11-08T17:00:00	3	Temperatura mínima	19.7
87168	7	Sololá	701	Sololá	4	Finca Santa Victoria	1	Enero	2023-01-31T00:00:00	2024-11-08T17:00:00	5	Humedad	51
87169	7	Sololá	701	Sololá	4	Finca Santa Victoria	1	Enero	2023-01-31T00:00:00	2024-11-08T17:00:00	6	Velocidad del viento	1.6
87170	7	Sololá	701	Sololá	4	Finca Santa Victoria	1	Enero	2023-01-31T00:00:00	2024-11-08T17:00:00	7	Dirección del viento	1.61
87171	7	Sololá	701	Sololá	4	Finca Santa Victoria	1	Enero	2023-01-31T00:00:00	2024-11-08T17:00:00	1	Precipitación	0
87172	7	Sololá	701	Sololá	4	Finca Santa Victoria	1	Enero	2023-01-31T00:00:00	2024-11-08T17:00:00	8	Radiación solar	275
87173	7	Sololá	701	Sololá	4	Finca Santa Victoria	1	Enero	2023-01-31T00:00:00	2024-11-08T18:00:00	2	Temperatura media	15.5
87174	7	Sololá	701	Sololá	4	Finca Santa Victoria	1	Enero	2023-01-31T00:00:00	2024-11-08T18:00:00	4	Temperatura máxima	19.8
87175	7	Sololá	701	Sololá	4	Finca Santa Victoria	1	Enero	2023-01-31T00:00:00	2024-11-08T18:00:00	3	Temperatura mínima	15.5
87176	7	Sololá	701	Sololá	4	Finca Santa Victoria	1	Enero	2023-01-31T00:00:00	2024-11-08T18:00:00	5	Humedad	52
87177	7	Sololá	701	Sololá	4	Finca Santa Victoria	1	Enero	2023-01-31T00:00:00	2024-11-08T18:00:00	6	Velocidad del viento	3.2
87178	7	Sololá	701	Sololá	4	Finca Santa Victoria	1	Enero	2023-01-31T00:00:00	2024-11-08T18:00:00	7	Dirección del viento	3.22
87179	7	Sololá	701	Sololá	4	Finca Santa Victoria	1	Enero	2023-01-31T00:00:00	2024-11-08T18:00:00	1	Precipitación	0
87180	7	Sololá	701	Sololá	4	Finca Santa Victoria	1	Enero	2023-01-31T00:00:00	2024-11-08T18:00:00	8	Radiación solar	62
87181	7	Sololá	701	Sololá	4	Finca Santa Victoria	1	Enero	2023-01-31T00:00:00	2024-11-08T19:00:00	2	Temperatura media	13.7
87182	7	Sololá	701	Sololá	4	Finca Santa Victoria	1	Enero	2023-01-31T00:00:00	2024-11-08T19:00:00	4	Temperatura máxima	15.5
87183	7	Sololá	701	Sololá	4	Finca Santa Victoria	1	Enero	2023-01-31T00:00:00	2024-11-08T19:00:00	3	Temperatura mínima	13.6
87184	7	Sololá	701	Sololá	4	Finca Santa Victoria	1	Enero	2023-01-31T00:00:00	2024-11-08T19:00:00	5	Humedad	65
87185	7	Sololá	701	Sololá	4	Finca Santa Victoria	1	Enero	2023-01-31T00:00:00	2024-11-08T19:00:00	6	Velocidad del viento	1.6
87186	7	Sololá	701	Sololá	4	Finca Santa Victoria	1	Enero	2023-01-31T00:00:00	2024-11-08T19:00:00	7	Dirección del viento	1.61
87187	7	Sololá	701	Sololá	4	Finca Santa Victoria	1	Enero	2023-01-31T00:00:00	2024-11-08T19:00:00	1	Precipitación	0
87188	7	Sololá	701	Sololá	4	Finca Santa Victoria	1	Enero	2023-01-31T00:00:00	2024-11-08T19:00:00	8	Radiación solar	0
87189	7	Sololá	701	Sololá	4	Finca Santa Victoria	1	Enero	2023-01-31T00:00:00	2024-11-08T20:00:00	2	Temperatura media	12.1
87190	7	Sololá	701	Sololá	4	Finca Santa Victoria	1	Enero	2023-01-31T00:00:00	2024-11-08T20:00:00	4	Temperatura máxima	13.7
87191	7	Sololá	701	Sololá	4	Finca Santa Victoria	1	Enero	2023-01-31T00:00:00	2024-11-08T20:00:00	3	Temperatura mínima	12.1
87192	7	Sololá	701	Sololá	4	Finca Santa Victoria	1	Enero	2023-01-31T00:00:00	2024-11-08T20:00:00	5	Humedad	75
87193	7	Sololá	701	Sololá	4	Finca Santa Victoria	1	Enero	2023-01-31T00:00:00	2024-11-08T20:00:00	6	Velocidad del viento	1.6
87194	7	Sololá	701	Sololá	4	Finca Santa Victoria	1	Enero	2023-01-31T00:00:00	2024-11-08T20:00:00	7	Dirección del viento	1.61
87195	7	Sololá	701	Sololá	4	Finca Santa Victoria	1	Enero	2023-01-31T00:00:00	2024-11-08T20:00:00	1	Precipitación	0
87196	7	Sololá	701	Sololá	4	Finca Santa Victoria	1	Enero	2023-01-31T00:00:00	2024-11-08T20:00:00	8	Radiación solar	0
87197	7	Sololá	701	Sololá	4	Finca Santa Victoria	1	Enero	2023-01-31T00:00:00	2024-11-08T21:00:00	2	Temperatura media	12.5
87198	7	Sololá	701	Sololá	4	Finca Santa Victoria	1	Enero	2023-01-31T00:00:00	2024-11-08T21:00:00	4	Temperatura máxima	12.5
87199	7	Sololá	701	Sololá	4	Finca Santa Victoria	1	Enero	2023-01-31T00:00:00	2024-11-08T21:00:00	3	Temperatura mínima	12.1
87200	7	Sololá	701	Sololá	4	Finca Santa Victoria	1	Enero	2023-01-31T00:00:00	2024-11-08T21:00:00	5	Humedad	78
87201	7	Sololá	701	Sololá	4	Finca Santa Victoria	1	Enero	2023-01-31T00:00:00	2024-11-08T21:00:00	6	Velocidad del viento	1.6
87202	7	Sololá	701	Sololá	4	Finca Santa Victoria	1	Enero	2023-01-31T00:00:00	2024-11-08T21:00:00	7	Dirección del viento	1.61
87203	7	Sololá	701	Sololá	4	Finca Santa Victoria	1	Enero	2023-01-31T00:00:00	2024-11-08T21:00:00	1	Precipitación	0
87204	7	Sololá	701	Sololá	4	Finca Santa Victoria	1	Enero	2023-01-31T00:00:00	2024-11-08T21:00:00	8	Radiación solar	0
87205	7	Sololá	701	Sololá	4	Finca Santa Victoria	1	Enero	2023-01-31T00:00:00	2024-11-08T22:00:00	2	Temperatura media	12.2
87206	7	Sololá	701	Sololá	4	Finca Santa Victoria	1	Enero	2023-01-31T00:00:00	2024-11-08T22:00:00	4	Temperatura máxima	12.7
87207	7	Sololá	701	Sololá	4	Finca Santa Victoria	1	Enero	2023-01-31T00:00:00	2024-11-08T22:00:00	3	Temperatura mínima	12.2
87208	7	Sololá	701	Sololá	4	Finca Santa Victoria	1	Enero	2023-01-31T00:00:00	2024-11-08T22:00:00	5	Humedad	76
87209	7	Sololá	701	Sololá	4	Finca Santa Victoria	1	Enero	2023-01-31T00:00:00	2024-11-08T22:00:00	6	Velocidad del viento	3.2
87210	7	Sololá	701	Sololá	4	Finca Santa Victoria	1	Enero	2023-01-31T00:00:00	2024-11-08T22:00:00	7	Dirección del viento	3.22
87211	7	Sololá	701	Sololá	4	Finca Santa Victoria	1	Enero	2023-01-31T00:00:00	2024-11-08T22:00:00	1	Precipitación	0
87212	7	Sololá	701	Sololá	4	Finca Santa Victoria	1	Enero	2023-01-31T00:00:00	2024-11-08T22:00:00	8	Radiación solar	0
87213	7	Sololá	701	Sololá	4	Finca Santa Victoria	1	Enero	2023-01-31T00:00:00	2024-11-08T23:00:00	2	Temperatura media	11.3
87214	7	Sololá	701	Sololá	4	Finca Santa Victoria	1	Enero	2023-01-31T00:00:00	2024-11-08T23:00:00	4	Temperatura máxima	12.3
87215	7	Sololá	701	Sololá	4	Finca Santa Victoria	1	Enero	2023-01-31T00:00:00	2024-11-08T23:00:00	3	Temperatura mínima	11.2
87216	7	Sololá	701	Sololá	4	Finca Santa Victoria	1	Enero	2023-01-31T00:00:00	2024-11-08T23:00:00	5	Humedad	77
87217	7	Sololá	701	Sololá	4	Finca Santa Victoria	1	Enero	2023-01-31T00:00:00	2024-11-08T23:00:00	6	Velocidad del viento	1.6
87218	7	Sololá	701	Sololá	4	Finca Santa Victoria	1	Enero	2023-01-31T00:00:00	2024-11-08T23:00:00	7	Dirección del viento	1.61
87219	7	Sololá	701	Sololá	4	Finca Santa Victoria	1	Enero	2023-01-31T00:00:00	2024-11-08T23:00:00	1	Precipitación	0
87220	7	Sololá	701	Sololá	4	Finca Santa Victoria	1	Enero	2023-01-31T00:00:00	2024-11-08T23:00:00	8	Radiación solar	0
87221	7	Sololá	701	Sololá	4	Finca Santa Victoria	2	Febrero	2023-01-02T00:00:00	2024-11-08T00:00:00	2	Temperatura media	10.7
87222	7	Sololá	701	Sololá	4	Finca Santa Victoria	2	Febrero	2023-01-02T00:00:00	2024-11-08T00:00:00	4	Temperatura máxima	11.3
87223	7	Sololá	701	Sololá	4	Finca Santa Victoria	2	Febrero	2023-01-02T00:00:00	2024-11-08T00:00:00	3	Temperatura mínima	10.6
87224	7	Sololá	701	Sololá	4	Finca Santa Victoria	2	Febrero	2023-01-02T00:00:00	2024-11-08T00:00:00	5	Humedad	81
87225	7	Sololá	701	Sololá	4	Finca Santa Victoria	2	Febrero	2023-01-02T00:00:00	2024-11-08T00:00:00	6	Velocidad del viento	0
87226	7	Sololá	701	Sololá	4	Finca Santa Victoria	2	Febrero	2023-01-02T00:00:00	2024-11-08T00:00:00	7	Dirección del viento	0
87227	7	Sololá	701	Sololá	4	Finca Santa Victoria	2	Febrero	2023-01-02T00:00:00	2024-11-08T00:00:00	1	Precipitación	0
87228	7	Sololá	701	Sololá	4	Finca Santa Victoria	2	Febrero	2023-01-02T00:00:00	2024-11-08T00:00:00	8	Radiación solar	0
87229	7	Sololá	701	Sololá	4	Finca Santa Victoria	2	Febrero	2023-01-02T00:00:00	2024-11-08T01:00:00	2	Temperatura media	9.7
87230	7	Sololá	701	Sololá	4	Finca Santa Victoria	2	Febrero	2023-01-02T00:00:00	2024-11-08T01:00:00	4	Temperatura máxima	10.8
87231	7	Sololá	701	Sololá	4	Finca Santa Victoria	2	Febrero	2023-01-02T00:00:00	2024-11-08T01:00:00	3	Temperatura mínima	9.7
87232	7	Sololá	701	Sololá	4	Finca Santa Victoria	2	Febrero	2023-01-02T00:00:00	2024-11-08T01:00:00	5	Humedad	86
87233	7	Sololá	701	Sololá	4	Finca Santa Victoria	2	Febrero	2023-01-02T00:00:00	2024-11-08T01:00:00	6	Velocidad del viento	0
87234	7	Sololá	701	Sololá	4	Finca Santa Victoria	2	Febrero	2023-01-02T00:00:00	2024-11-08T01:00:00	7	Dirección del viento	0
87235	7	Sololá	701	Sololá	4	Finca Santa Victoria	2	Febrero	2023-01-02T00:00:00	2024-11-08T01:00:00	1	Precipitación	0
87236	7	Sololá	701	Sololá	4	Finca Santa Victoria	2	Febrero	2023-01-02T00:00:00	2024-11-08T01:00:00	8	Radiación solar	0
87237	7	Sololá	701	Sololá	4	Finca Santa Victoria	2	Febrero	2023-01-02T00:00:00	2024-11-08T02:00:00	2	Temperatura media	9.9
87238	7	Sololá	701	Sololá	4	Finca Santa Victoria	2	Febrero	2023-01-02T00:00:00	2024-11-08T02:00:00	4	Temperatura máxima	9.9
87239	7	Sololá	701	Sololá	4	Finca Santa Victoria	2	Febrero	2023-01-02T00:00:00	2024-11-08T02:00:00	3	Temperatura mínima	9.6
87240	7	Sololá	701	Sololá	4	Finca Santa Victoria	2	Febrero	2023-01-02T00:00:00	2024-11-08T02:00:00	5	Humedad	87
87241	7	Sololá	701	Sololá	4	Finca Santa Victoria	2	Febrero	2023-01-02T00:00:00	2024-11-08T02:00:00	6	Velocidad del viento	1.6
87242	7	Sololá	701	Sololá	4	Finca Santa Victoria	2	Febrero	2023-01-02T00:00:00	2024-11-08T02:00:00	7	Dirección del viento	1.61
87243	7	Sololá	701	Sololá	4	Finca Santa Victoria	2	Febrero	2023-01-02T00:00:00	2024-11-08T02:00:00	1	Precipitación	0
87244	7	Sololá	701	Sololá	4	Finca Santa Victoria	2	Febrero	2023-01-02T00:00:00	2024-11-08T02:00:00	8	Radiación solar	0
87245	7	Sololá	701	Sololá	4	Finca Santa Victoria	2	Febrero	2023-01-02T00:00:00	2024-11-08T03:00:00	2	Temperatura media	9.3
87246	7	Sololá	701	Sololá	4	Finca Santa Victoria	2	Febrero	2023-01-02T00:00:00	2024-11-08T03:00:00	4	Temperatura máxima	9.9
87247	7	Sololá	701	Sololá	4	Finca Santa Victoria	2	Febrero	2023-01-02T00:00:00	2024-11-08T03:00:00	3	Temperatura mínima	9.3
87248	7	Sololá	701	Sololá	4	Finca Santa Victoria	2	Febrero	2023-01-02T00:00:00	2024-11-08T03:00:00	5	Humedad	88
87249	7	Sololá	701	Sololá	4	Finca Santa Victoria	2	Febrero	2023-01-02T00:00:00	2024-11-08T03:00:00	6	Velocidad del viento	1.6
87250	7	Sololá	701	Sololá	4	Finca Santa Victoria	2	Febrero	2023-01-02T00:00:00	2024-11-08T03:00:00	7	Dirección del viento	1.61
87251	7	Sololá	701	Sololá	4	Finca Santa Victoria	2	Febrero	2023-01-02T00:00:00	2024-11-08T03:00:00	1	Precipitación	0
87252	7	Sololá	701	Sololá	4	Finca Santa Victoria	2	Febrero	2023-01-02T00:00:00	2024-11-08T03:00:00	8	Radiación solar	0
87253	7	Sololá	701	Sololá	4	Finca Santa Victoria	2	Febrero	2023-01-02T00:00:00	2024-11-08T04:00:00	2	Temperatura media	9.9
87254	7	Sololá	701	Sololá	4	Finca Santa Victoria	2	Febrero	2023-01-02T00:00:00	2024-11-08T04:00:00	4	Temperatura máxima	10
87255	7	Sololá	701	Sololá	4	Finca Santa Victoria	2	Febrero	2023-01-02T00:00:00	2024-11-08T04:00:00	3	Temperatura mínima	9.2
87256	7	Sololá	701	Sololá	4	Finca Santa Victoria	2	Febrero	2023-01-02T00:00:00	2024-11-08T04:00:00	5	Humedad	85
87257	7	Sololá	701	Sololá	4	Finca Santa Victoria	2	Febrero	2023-01-02T00:00:00	2024-11-08T04:00:00	6	Velocidad del viento	1.6
87258	7	Sololá	701	Sololá	4	Finca Santa Victoria	2	Febrero	2023-01-02T00:00:00	2024-11-08T04:00:00	7	Dirección del viento	1.61
87259	7	Sololá	701	Sololá	4	Finca Santa Victoria	2	Febrero	2023-01-02T00:00:00	2024-11-08T04:00:00	1	Precipitación	0
87260	7	Sololá	701	Sololá	4	Finca Santa Victoria	2	Febrero	2023-01-02T00:00:00	2024-11-08T04:00:00	8	Radiación solar	0
87261	7	Sololá	701	Sololá	4	Finca Santa Victoria	2	Febrero	2023-01-02T00:00:00	2024-11-08T05:00:00	2	Temperatura media	9.1
87262	7	Sololá	701	Sololá	4	Finca Santa Victoria	2	Febrero	2023-01-02T00:00:00	2024-11-08T05:00:00	4	Temperatura máxima	9.9
87263	7	Sololá	701	Sololá	4	Finca Santa Victoria	2	Febrero	2023-01-02T00:00:00	2024-11-08T05:00:00	3	Temperatura mínima	9.1
87264	7	Sololá	701	Sololá	4	Finca Santa Victoria	2	Febrero	2023-01-02T00:00:00	2024-11-08T05:00:00	5	Humedad	85
87265	7	Sololá	701	Sololá	4	Finca Santa Victoria	2	Febrero	2023-01-02T00:00:00	2024-11-08T05:00:00	6	Velocidad del viento	1.6
87266	7	Sololá	701	Sololá	4	Finca Santa Victoria	2	Febrero	2023-01-02T00:00:00	2024-11-08T05:00:00	7	Dirección del viento	1.61
87267	7	Sololá	701	Sololá	4	Finca Santa Victoria	2	Febrero	2023-01-02T00:00:00	2024-11-08T05:00:00	1	Precipitación	0
87268	7	Sololá	701	Sololá	4	Finca Santa Victoria	2	Febrero	2023-01-02T00:00:00	2024-11-08T05:00:00	8	Radiación solar	0
87269	7	Sololá	701	Sololá	4	Finca Santa Victoria	2	Febrero	2023-01-02T00:00:00	2024-11-08T06:00:00	2	Temperatura media	9.1
87270	7	Sololá	701	Sololá	4	Finca Santa Victoria	2	Febrero	2023-01-02T00:00:00	2024-11-08T06:00:00	4	Temperatura máxima	9.2
87271	7	Sololá	701	Sololá	4	Finca Santa Victoria	2	Febrero	2023-01-02T00:00:00	2024-11-08T06:00:00	3	Temperatura mínima	8.8
87272	7	Sololá	701	Sololá	4	Finca Santa Victoria	2	Febrero	2023-01-02T00:00:00	2024-11-08T06:00:00	5	Humedad	85
87273	7	Sololá	701	Sololá	4	Finca Santa Victoria	2	Febrero	2023-01-02T00:00:00	2024-11-08T06:00:00	6	Velocidad del viento	0
87274	7	Sololá	701	Sololá	4	Finca Santa Victoria	2	Febrero	2023-01-02T00:00:00	2024-11-08T06:00:00	7	Dirección del viento	0
87275	7	Sololá	701	Sololá	4	Finca Santa Victoria	2	Febrero	2023-01-02T00:00:00	2024-11-08T06:00:00	1	Precipitación	0
87276	7	Sololá	701	Sololá	4	Finca Santa Victoria	2	Febrero	2023-01-02T00:00:00	2024-11-08T06:00:00	8	Radiación solar	0
87277	7	Sololá	701	Sololá	4	Finca Santa Victoria	2	Febrero	2023-01-02T00:00:00	2024-11-08T07:00:00	2	Temperatura media	9.2
87278	7	Sololá	701	Sololá	4	Finca Santa Victoria	2	Febrero	2023-01-02T00:00:00	2024-11-08T07:00:00	4	Temperatura máxima	9.2
87279	7	Sololá	701	Sololá	4	Finca Santa Victoria	2	Febrero	2023-01-02T00:00:00	2024-11-08T07:00:00	3	Temperatura mínima	8.5
87280	7	Sololá	701	Sololá	4	Finca Santa Victoria	2	Febrero	2023-01-02T00:00:00	2024-11-08T07:00:00	5	Humedad	87
87281	7	Sololá	701	Sololá	4	Finca Santa Victoria	2	Febrero	2023-01-02T00:00:00	2024-11-08T07:00:00	6	Velocidad del viento	0
87282	7	Sololá	701	Sololá	4	Finca Santa Victoria	2	Febrero	2023-01-02T00:00:00	2024-11-08T07:00:00	7	Dirección del viento	0
87283	7	Sololá	701	Sololá	4	Finca Santa Victoria	2	Febrero	2023-01-02T00:00:00	2024-11-08T07:00:00	1	Precipitación	0
87284	7	Sololá	701	Sololá	4	Finca Santa Victoria	2	Febrero	2023-01-02T00:00:00	2024-11-08T07:00:00	8	Radiación solar	3
87285	7	Sololá	701	Sololá	4	Finca Santa Victoria	2	Febrero	2023-01-02T00:00:00	2024-11-08T08:00:00	2	Temperatura media	11.8
87286	7	Sololá	701	Sololá	4	Finca Santa Victoria	2	Febrero	2023-01-02T00:00:00	2024-11-08T08:00:00	4	Temperatura máxima	11.8
87287	7	Sololá	701	Sololá	4	Finca Santa Victoria	2	Febrero	2023-01-02T00:00:00	2024-11-08T08:00:00	3	Temperatura mínima	9.2
87288	7	Sololá	701	Sololá	4	Finca Santa Victoria	2	Febrero	2023-01-02T00:00:00	2024-11-08T08:00:00	5	Humedad	80
87289	7	Sololá	701	Sololá	4	Finca Santa Victoria	2	Febrero	2023-01-02T00:00:00	2024-11-08T08:00:00	6	Velocidad del viento	1.6
87290	7	Sololá	701	Sololá	4	Finca Santa Victoria	2	Febrero	2023-01-02T00:00:00	2024-11-08T08:00:00	7	Dirección del viento	1.61
87291	7	Sololá	701	Sololá	4	Finca Santa Victoria	2	Febrero	2023-01-02T00:00:00	2024-11-08T08:00:00	1	Precipitación	0
87292	7	Sololá	701	Sololá	4	Finca Santa Victoria	2	Febrero	2023-01-02T00:00:00	2024-11-08T08:00:00	8	Radiación solar	39
87293	7	Sololá	701	Sololá	4	Finca Santa Victoria	2	Febrero	2023-01-02T00:00:00	2024-11-08T09:00:00	2	Temperatura media	14.9
87294	7	Sololá	701	Sololá	4	Finca Santa Victoria	2	Febrero	2023-01-02T00:00:00	2024-11-08T09:00:00	4	Temperatura máxima	14.9
87295	7	Sololá	701	Sololá	4	Finca Santa Victoria	2	Febrero	2023-01-02T00:00:00	2024-11-08T09:00:00	3	Temperatura mínima	11.8
87296	7	Sololá	701	Sololá	4	Finca Santa Victoria	2	Febrero	2023-01-02T00:00:00	2024-11-08T09:00:00	5	Humedad	71
87297	7	Sololá	701	Sololá	4	Finca Santa Victoria	2	Febrero	2023-01-02T00:00:00	2024-11-08T09:00:00	6	Velocidad del viento	3.2
87298	7	Sololá	701	Sololá	4	Finca Santa Victoria	2	Febrero	2023-01-02T00:00:00	2024-11-08T09:00:00	7	Dirección del viento	3.22
87299	7	Sololá	701	Sololá	4	Finca Santa Victoria	2	Febrero	2023-01-02T00:00:00	2024-11-08T09:00:00	1	Precipitación	0
87300	7	Sololá	701	Sololá	4	Finca Santa Victoria	2	Febrero	2023-01-02T00:00:00	2024-11-08T09:00:00	8	Radiación solar	143
87301	7	Sololá	701	Sololá	4	Finca Santa Victoria	2	Febrero	2023-01-02T00:00:00	2024-11-08T10:00:00	2	Temperatura media	17.6
87302	7	Sololá	701	Sololá	4	Finca Santa Victoria	2	Febrero	2023-01-02T00:00:00	2024-11-08T10:00:00	4	Temperatura máxima	17.6
87303	7	Sololá	701	Sololá	4	Finca Santa Victoria	2	Febrero	2023-01-02T00:00:00	2024-11-08T10:00:00	3	Temperatura mínima	14.9
87304	7	Sololá	701	Sololá	4	Finca Santa Victoria	2	Febrero	2023-01-02T00:00:00	2024-11-08T10:00:00	5	Humedad	62
87305	7	Sololá	701	Sololá	4	Finca Santa Victoria	2	Febrero	2023-01-02T00:00:00	2024-11-08T10:00:00	6	Velocidad del viento	3.2
87306	7	Sololá	701	Sololá	4	Finca Santa Victoria	2	Febrero	2023-01-02T00:00:00	2024-11-08T10:00:00	7	Dirección del viento	3.22
87307	7	Sololá	701	Sololá	4	Finca Santa Victoria	2	Febrero	2023-01-02T00:00:00	2024-11-08T10:00:00	1	Precipitación	0
87308	7	Sololá	701	Sololá	4	Finca Santa Victoria	2	Febrero	2023-01-02T00:00:00	2024-11-08T10:00:00	8	Radiación solar	269
87309	7	Sololá	701	Sololá	4	Finca Santa Victoria	2	Febrero	2023-01-02T00:00:00	2024-11-08T11:00:00	2	Temperatura media	19.7
87310	7	Sololá	701	Sololá	4	Finca Santa Victoria	2	Febrero	2023-01-02T00:00:00	2024-11-08T11:00:00	4	Temperatura máxima	19.8
87311	7	Sololá	701	Sololá	4	Finca Santa Victoria	2	Febrero	2023-01-02T00:00:00	2024-11-08T11:00:00	3	Temperatura mínima	17.6
87312	7	Sololá	701	Sololá	4	Finca Santa Victoria	2	Febrero	2023-01-02T00:00:00	2024-11-08T11:00:00	5	Humedad	53
87313	7	Sololá	701	Sololá	4	Finca Santa Victoria	2	Febrero	2023-01-02T00:00:00	2024-11-08T11:00:00	6	Velocidad del viento	4.8
87314	7	Sololá	701	Sololá	4	Finca Santa Victoria	2	Febrero	2023-01-02T00:00:00	2024-11-08T11:00:00	7	Dirección del viento	4.83
87315	7	Sololá	701	Sololá	4	Finca Santa Victoria	2	Febrero	2023-01-02T00:00:00	2024-11-08T11:00:00	1	Precipitación	0
87316	7	Sololá	701	Sololá	4	Finca Santa Victoria	2	Febrero	2023-01-02T00:00:00	2024-11-08T11:00:00	8	Radiación solar	812
87317	7	Sololá	701	Sololá	4	Finca Santa Victoria	2	Febrero	2023-01-02T00:00:00	2024-11-08T12:00:00	2	Temperatura media	22.1
87318	7	Sololá	701	Sololá	4	Finca Santa Victoria	2	Febrero	2023-01-02T00:00:00	2024-11-08T12:00:00	4	Temperatura máxima	22.1
87319	7	Sololá	701	Sololá	4	Finca Santa Victoria	2	Febrero	2023-01-02T00:00:00	2024-11-08T12:00:00	3	Temperatura mínima	19.8
87320	7	Sololá	701	Sololá	4	Finca Santa Victoria	2	Febrero	2023-01-02T00:00:00	2024-11-08T12:00:00	5	Humedad	46
87321	7	Sololá	701	Sololá	4	Finca Santa Victoria	2	Febrero	2023-01-02T00:00:00	2024-11-08T12:00:00	6	Velocidad del viento	4.8
87322	7	Sololá	701	Sololá	4	Finca Santa Victoria	2	Febrero	2023-01-02T00:00:00	2024-11-08T12:00:00	7	Dirección del viento	4.83
87323	7	Sololá	701	Sololá	4	Finca Santa Victoria	2	Febrero	2023-01-02T00:00:00	2024-11-08T12:00:00	1	Precipitación	0
87324	7	Sololá	701	Sololá	4	Finca Santa Victoria	2	Febrero	2023-01-02T00:00:00	2024-11-08T12:00:00	8	Radiación solar	919
87325	7	Sololá	701	Sololá	4	Finca Santa Victoria	2	Febrero	2023-01-02T00:00:00	2024-11-08T13:00:00	2	Temperatura media	22.7
87326	7	Sololá	701	Sololá	4	Finca Santa Victoria	2	Febrero	2023-01-02T00:00:00	2024-11-08T13:00:00	4	Temperatura máxima	22.8
87327	7	Sololá	701	Sololá	4	Finca Santa Victoria	2	Febrero	2023-01-02T00:00:00	2024-11-08T13:00:00	3	Temperatura mínima	21.7
87328	7	Sololá	701	Sololá	4	Finca Santa Victoria	2	Febrero	2023-01-02T00:00:00	2024-11-08T13:00:00	5	Humedad	43
87329	7	Sololá	701	Sololá	4	Finca Santa Victoria	2	Febrero	2023-01-02T00:00:00	2024-11-08T13:00:00	6	Velocidad del viento	4.8
87330	7	Sololá	701	Sololá	4	Finca Santa Victoria	2	Febrero	2023-01-02T00:00:00	2024-11-08T13:00:00	7	Dirección del viento	4.83
87331	7	Sololá	701	Sololá	4	Finca Santa Victoria	2	Febrero	2023-01-02T00:00:00	2024-11-08T13:00:00	1	Precipitación	0
87332	7	Sololá	701	Sololá	4	Finca Santa Victoria	2	Febrero	2023-01-02T00:00:00	2024-11-08T13:00:00	8	Radiación solar	947
87333	7	Sololá	701	Sololá	4	Finca Santa Victoria	2	Febrero	2023-01-02T00:00:00	2024-11-08T14:00:00	2	Temperatura media	22
87334	7	Sololá	701	Sololá	4	Finca Santa Victoria	2	Febrero	2023-01-02T00:00:00	2024-11-08T14:00:00	4	Temperatura máxima	22.8
87335	7	Sololá	701	Sololá	4	Finca Santa Victoria	2	Febrero	2023-01-02T00:00:00	2024-11-08T14:00:00	3	Temperatura mínima	21.9
87336	7	Sololá	701	Sololá	4	Finca Santa Victoria	2	Febrero	2023-01-02T00:00:00	2024-11-08T14:00:00	5	Humedad	44
87337	7	Sololá	701	Sololá	4	Finca Santa Victoria	2	Febrero	2023-01-02T00:00:00	2024-11-08T14:00:00	6	Velocidad del viento	3.2
87338	7	Sololá	701	Sololá	4	Finca Santa Victoria	2	Febrero	2023-01-02T00:00:00	2024-11-08T14:00:00	7	Dirección del viento	3.22
87339	7	Sololá	701	Sololá	4	Finca Santa Victoria	2	Febrero	2023-01-02T00:00:00	2024-11-08T14:00:00	1	Precipitación	0
87340	7	Sololá	701	Sololá	4	Finca Santa Victoria	2	Febrero	2023-01-02T00:00:00	2024-11-08T14:00:00	8	Radiación solar	837
87341	7	Sololá	701	Sololá	4	Finca Santa Victoria	2	Febrero	2023-01-02T00:00:00	2024-11-08T15:00:00	2	Temperatura media	17.6
87342	7	Sololá	701	Sololá	4	Finca Santa Victoria	2	Febrero	2023-01-02T00:00:00	2024-11-08T15:00:00	4	Temperatura máxima	22.3
87343	7	Sololá	701	Sololá	4	Finca Santa Victoria	2	Febrero	2023-01-02T00:00:00	2024-11-08T15:00:00	3	Temperatura mínima	17.6
87344	7	Sololá	701	Sololá	4	Finca Santa Victoria	2	Febrero	2023-01-02T00:00:00	2024-11-08T15:00:00	5	Humedad	76
87345	7	Sololá	701	Sololá	4	Finca Santa Victoria	2	Febrero	2023-01-02T00:00:00	2024-11-08T15:00:00	6	Velocidad del viento	3.2
87346	7	Sololá	701	Sololá	4	Finca Santa Victoria	2	Febrero	2023-01-02T00:00:00	2024-11-08T15:00:00	7	Dirección del viento	3.22
87347	7	Sololá	701	Sololá	4	Finca Santa Victoria	2	Febrero	2023-01-02T00:00:00	2024-11-08T15:00:00	1	Precipitación	0
87348	7	Sololá	701	Sololá	4	Finca Santa Victoria	2	Febrero	2023-01-02T00:00:00	2024-11-08T15:00:00	8	Radiación solar	300
87349	7	Sololá	701	Sololá	4	Finca Santa Victoria	2	Febrero	2023-01-02T00:00:00	2024-11-08T16:00:00	2	Temperatura media	17.9
87350	7	Sololá	701	Sololá	4	Finca Santa Victoria	2	Febrero	2023-01-02T00:00:00	2024-11-08T16:00:00	4	Temperatura máxima	18.1
87351	7	Sololá	701	Sololá	4	Finca Santa Victoria	2	Febrero	2023-01-02T00:00:00	2024-11-08T16:00:00	3	Temperatura mínima	17.3
87352	7	Sololá	701	Sololá	4	Finca Santa Victoria	2	Febrero	2023-01-02T00:00:00	2024-11-08T16:00:00	5	Humedad	75
87353	7	Sololá	701	Sololá	4	Finca Santa Victoria	2	Febrero	2023-01-02T00:00:00	2024-11-08T16:00:00	6	Velocidad del viento	3.2
87354	7	Sololá	701	Sololá	4	Finca Santa Victoria	2	Febrero	2023-01-02T00:00:00	2024-11-08T16:00:00	7	Dirección del viento	3.22
87355	7	Sololá	701	Sololá	4	Finca Santa Victoria	2	Febrero	2023-01-02T00:00:00	2024-11-08T16:00:00	1	Precipitación	0
87356	7	Sololá	701	Sololá	4	Finca Santa Victoria	2	Febrero	2023-01-02T00:00:00	2024-11-08T16:00:00	8	Radiación solar	143
87357	7	Sololá	701	Sololá	4	Finca Santa Victoria	2	Febrero	2023-01-02T00:00:00	2024-11-08T17:00:00	2	Temperatura media	18.3
87358	7	Sololá	701	Sololá	4	Finca Santa Victoria	2	Febrero	2023-01-02T00:00:00	2024-11-08T17:00:00	4	Temperatura máxima	18.6
87359	7	Sololá	701	Sololá	4	Finca Santa Victoria	2	Febrero	2023-01-02T00:00:00	2024-11-08T17:00:00	3	Temperatura mínima	17.9
87360	7	Sololá	701	Sololá	4	Finca Santa Victoria	2	Febrero	2023-01-02T00:00:00	2024-11-08T17:00:00	5	Humedad	76
87361	7	Sololá	701	Sololá	4	Finca Santa Victoria	2	Febrero	2023-01-02T00:00:00	2024-11-08T17:00:00	6	Velocidad del viento	3.2
87362	7	Sololá	701	Sololá	4	Finca Santa Victoria	2	Febrero	2023-01-02T00:00:00	2024-11-08T17:00:00	7	Dirección del viento	3.22
87363	7	Sololá	701	Sololá	4	Finca Santa Victoria	2	Febrero	2023-01-02T00:00:00	2024-11-08T17:00:00	1	Precipitación	0
87364	7	Sololá	701	Sololá	4	Finca Santa Victoria	2	Febrero	2023-01-02T00:00:00	2024-11-08T17:00:00	8	Radiación solar	212
87365	7	Sololá	701	Sololá	4	Finca Santa Victoria	2	Febrero	2023-01-02T00:00:00	2024-11-08T18:00:00	2	Temperatura media	15.3
87366	7	Sololá	701	Sololá	4	Finca Santa Victoria	2	Febrero	2023-01-02T00:00:00	2024-11-08T18:00:00	4	Temperatura máxima	18.4
87367	7	Sololá	701	Sololá	4	Finca Santa Victoria	2	Febrero	2023-01-02T00:00:00	2024-11-08T18:00:00	3	Temperatura mínima	15.3
87368	7	Sololá	701	Sololá	4	Finca Santa Victoria	2	Febrero	2023-01-02T00:00:00	2024-11-08T18:00:00	5	Humedad	74
87369	7	Sololá	701	Sololá	4	Finca Santa Victoria	2	Febrero	2023-01-02T00:00:00	2024-11-08T18:00:00	6	Velocidad del viento	1.6
87370	7	Sololá	701	Sololá	4	Finca Santa Victoria	2	Febrero	2023-01-02T00:00:00	2024-11-08T18:00:00	7	Dirección del viento	1.61
87371	7	Sololá	701	Sololá	4	Finca Santa Victoria	2	Febrero	2023-01-02T00:00:00	2024-11-08T18:00:00	1	Precipitación	0
87372	7	Sololá	701	Sololá	4	Finca Santa Victoria	2	Febrero	2023-01-02T00:00:00	2024-11-08T18:00:00	8	Radiación solar	65
87373	7	Sololá	701	Sololá	4	Finca Santa Victoria	2	Febrero	2023-01-02T00:00:00	2024-11-08T19:00:00	2	Temperatura media	13.6
87374	7	Sololá	701	Sololá	4	Finca Santa Victoria	2	Febrero	2023-01-02T00:00:00	2024-11-08T19:00:00	4	Temperatura máxima	15.3
87375	7	Sololá	701	Sololá	4	Finca Santa Victoria	2	Febrero	2023-01-02T00:00:00	2024-11-08T19:00:00	3	Temperatura mínima	13.6
87376	7	Sololá	701	Sololá	4	Finca Santa Victoria	2	Febrero	2023-01-02T00:00:00	2024-11-08T19:00:00	5	Humedad	76
87377	7	Sololá	701	Sololá	4	Finca Santa Victoria	2	Febrero	2023-01-02T00:00:00	2024-11-08T19:00:00	6	Velocidad del viento	1.6
87378	7	Sololá	701	Sololá	4	Finca Santa Victoria	2	Febrero	2023-01-02T00:00:00	2024-11-08T19:00:00	7	Dirección del viento	1.61
87379	7	Sololá	701	Sololá	4	Finca Santa Victoria	2	Febrero	2023-01-02T00:00:00	2024-11-08T19:00:00	1	Precipitación	0
87380	7	Sololá	701	Sololá	4	Finca Santa Victoria	2	Febrero	2023-01-02T00:00:00	2024-11-08T19:00:00	8	Radiación solar	0
87381	7	Sololá	701	Sololá	4	Finca Santa Victoria	2	Febrero	2023-01-02T00:00:00	2024-11-08T20:00:00	2	Temperatura media	12.5
87382	7	Sololá	701	Sololá	4	Finca Santa Victoria	2	Febrero	2023-01-02T00:00:00	2024-11-08T20:00:00	4	Temperatura máxima	13.6
87383	7	Sololá	701	Sololá	4	Finca Santa Victoria	2	Febrero	2023-01-02T00:00:00	2024-11-08T20:00:00	3	Temperatura mínima	12.5
87384	7	Sololá	701	Sololá	4	Finca Santa Victoria	2	Febrero	2023-01-02T00:00:00	2024-11-08T20:00:00	5	Humedad	78
87385	7	Sololá	701	Sololá	4	Finca Santa Victoria	2	Febrero	2023-01-02T00:00:00	2024-11-08T20:00:00	6	Velocidad del viento	1.6
87386	7	Sololá	701	Sololá	4	Finca Santa Victoria	2	Febrero	2023-01-02T00:00:00	2024-11-08T20:00:00	7	Dirección del viento	1.61
87387	7	Sololá	701	Sololá	4	Finca Santa Victoria	2	Febrero	2023-01-02T00:00:00	2024-11-08T20:00:00	1	Precipitación	0
87388	7	Sololá	701	Sololá	4	Finca Santa Victoria	2	Febrero	2023-01-02T00:00:00	2024-11-08T20:00:00	8	Radiación solar	0
87389	7	Sololá	701	Sololá	4	Finca Santa Victoria	2	Febrero	2023-01-02T00:00:00	2024-11-08T21:00:00	2	Temperatura media	12.2
87390	7	Sololá	701	Sololá	4	Finca Santa Victoria	2	Febrero	2023-01-02T00:00:00	2024-11-08T21:00:00	4	Temperatura máxima	12.5
87391	7	Sololá	701	Sololá	4	Finca Santa Victoria	2	Febrero	2023-01-02T00:00:00	2024-11-08T21:00:00	3	Temperatura mínima	12.2
87392	7	Sololá	701	Sololá	4	Finca Santa Victoria	2	Febrero	2023-01-02T00:00:00	2024-11-08T21:00:00	5	Humedad	80
87393	7	Sololá	701	Sololá	4	Finca Santa Victoria	2	Febrero	2023-01-02T00:00:00	2024-11-08T21:00:00	6	Velocidad del viento	1.6
87394	7	Sololá	701	Sololá	4	Finca Santa Victoria	2	Febrero	2023-01-02T00:00:00	2024-11-08T21:00:00	7	Dirección del viento	1.61
87395	7	Sololá	701	Sololá	4	Finca Santa Victoria	2	Febrero	2023-01-02T00:00:00	2024-11-08T21:00:00	1	Precipitación	0
87396	7	Sololá	701	Sololá	4	Finca Santa Victoria	2	Febrero	2023-01-02T00:00:00	2024-11-08T21:00:00	8	Radiación solar	0
87397	7	Sololá	701	Sololá	4	Finca Santa Victoria	2	Febrero	2023-01-02T00:00:00	2024-11-08T22:00:00	2	Temperatura media	11.9
87398	7	Sololá	701	Sololá	4	Finca Santa Victoria	2	Febrero	2023-01-02T00:00:00	2024-11-08T22:00:00	4	Temperatura máxima	12.2
87399	7	Sololá	701	Sololá	4	Finca Santa Victoria	2	Febrero	2023-01-02T00:00:00	2024-11-08T22:00:00	3	Temperatura mínima	11.8
87400	7	Sololá	701	Sololá	4	Finca Santa Victoria	2	Febrero	2023-01-02T00:00:00	2024-11-08T22:00:00	5	Humedad	81
87401	7	Sololá	701	Sololá	4	Finca Santa Victoria	2	Febrero	2023-01-02T00:00:00	2024-11-08T22:00:00	6	Velocidad del viento	3.2
87402	7	Sololá	701	Sololá	4	Finca Santa Victoria	2	Febrero	2023-01-02T00:00:00	2024-11-08T22:00:00	7	Dirección del viento	3.22
87403	7	Sololá	701	Sololá	4	Finca Santa Victoria	2	Febrero	2023-01-02T00:00:00	2024-11-08T22:00:00	1	Precipitación	0
87404	7	Sololá	701	Sololá	4	Finca Santa Victoria	2	Febrero	2023-01-02T00:00:00	2024-11-08T22:00:00	8	Radiación solar	0
87405	7	Sololá	701	Sololá	4	Finca Santa Victoria	2	Febrero	2023-01-02T00:00:00	2024-11-08T23:00:00	2	Temperatura media	11.4
87406	7	Sololá	701	Sololá	4	Finca Santa Victoria	2	Febrero	2023-01-02T00:00:00	2024-11-08T23:00:00	4	Temperatura máxima	11.9
87407	7	Sololá	701	Sololá	4	Finca Santa Victoria	2	Febrero	2023-01-02T00:00:00	2024-11-08T23:00:00	3	Temperatura mínima	11.3
87408	7	Sololá	701	Sololá	4	Finca Santa Victoria	2	Febrero	2023-01-02T00:00:00	2024-11-08T23:00:00	5	Humedad	81
87409	7	Sololá	701	Sololá	4	Finca Santa Victoria	2	Febrero	2023-01-02T00:00:00	2024-11-08T23:00:00	6	Velocidad del viento	3.2
87410	7	Sololá	701	Sololá	4	Finca Santa Victoria	2	Febrero	2023-01-02T00:00:00	2024-11-08T23:00:00	7	Dirección del viento	3.22
87411	7	Sololá	701	Sololá	4	Finca Santa Victoria	2	Febrero	2023-01-02T00:00:00	2024-11-08T23:00:00	1	Precipitación	0
87412	7	Sololá	701	Sololá	4	Finca Santa Victoria	2	Febrero	2023-01-02T00:00:00	2024-11-08T23:00:00	8	Radiación solar	0
87413	7	Sololá	701	Sololá	4	Finca Santa Victoria	2	Febrero	2023-02-02T00:00:00	2024-11-08T00:00:00	2	Temperatura media	11.2
87414	7	Sololá	701	Sololá	4	Finca Santa Victoria	2	Febrero	2023-02-02T00:00:00	2024-11-08T00:00:00	4	Temperatura máxima	11.4
87415	7	Sololá	701	Sololá	4	Finca Santa Victoria	2	Febrero	2023-02-02T00:00:00	2024-11-08T00:00:00	3	Temperatura mínima	11.2
87416	7	Sololá	701	Sololá	4	Finca Santa Victoria	2	Febrero	2023-02-02T00:00:00	2024-11-08T00:00:00	5	Humedad	83
87417	7	Sololá	701	Sololá	4	Finca Santa Victoria	2	Febrero	2023-02-02T00:00:00	2024-11-08T00:00:00	6	Velocidad del viento	3.2
87418	7	Sololá	701	Sololá	4	Finca Santa Victoria	2	Febrero	2023-02-02T00:00:00	2024-11-08T00:00:00	7	Dirección del viento	3.22
87419	7	Sololá	701	Sololá	4	Finca Santa Victoria	2	Febrero	2023-02-02T00:00:00	2024-11-08T00:00:00	1	Precipitación	0
87420	7	Sololá	701	Sololá	4	Finca Santa Victoria	2	Febrero	2023-02-02T00:00:00	2024-11-08T00:00:00	8	Radiación solar	0
87421	7	Sololá	701	Sololá	4	Finca Santa Victoria	2	Febrero	2023-02-02T00:00:00	2024-11-08T01:00:00	2	Temperatura media	10.6
87422	7	Sololá	701	Sololá	4	Finca Santa Victoria	2	Febrero	2023-02-02T00:00:00	2024-11-08T01:00:00	4	Temperatura máxima	11.2
87423	7	Sololá	701	Sololá	4	Finca Santa Victoria	2	Febrero	2023-02-02T00:00:00	2024-11-08T01:00:00	3	Temperatura mínima	10.6
87424	7	Sololá	701	Sololá	4	Finca Santa Victoria	2	Febrero	2023-02-02T00:00:00	2024-11-08T01:00:00	5	Humedad	83
87425	7	Sololá	701	Sololá	4	Finca Santa Victoria	2	Febrero	2023-02-02T00:00:00	2024-11-08T01:00:00	6	Velocidad del viento	3.2
87426	7	Sololá	701	Sololá	4	Finca Santa Victoria	2	Febrero	2023-02-02T00:00:00	2024-11-08T01:00:00	7	Dirección del viento	3.22
87427	7	Sololá	701	Sololá	4	Finca Santa Victoria	2	Febrero	2023-02-02T00:00:00	2024-11-08T01:00:00	1	Precipitación	0
87428	7	Sololá	701	Sololá	4	Finca Santa Victoria	2	Febrero	2023-02-02T00:00:00	2024-11-08T01:00:00	8	Radiación solar	0
87429	7	Sololá	701	Sololá	4	Finca Santa Victoria	2	Febrero	2023-02-02T00:00:00	2024-11-08T02:00:00	2	Temperatura media	10.1
87430	7	Sololá	701	Sololá	4	Finca Santa Victoria	2	Febrero	2023-02-02T00:00:00	2024-11-08T02:00:00	4	Temperatura máxima	10.7
87431	7	Sololá	701	Sololá	4	Finca Santa Victoria	2	Febrero	2023-02-02T00:00:00	2024-11-08T02:00:00	3	Temperatura mínima	10.1
87432	7	Sololá	701	Sololá	4	Finca Santa Victoria	2	Febrero	2023-02-02T00:00:00	2024-11-08T02:00:00	5	Humedad	84
87433	7	Sololá	701	Sololá	4	Finca Santa Victoria	2	Febrero	2023-02-02T00:00:00	2024-11-08T02:00:00	6	Velocidad del viento	3.2
87434	7	Sololá	701	Sololá	4	Finca Santa Victoria	2	Febrero	2023-02-02T00:00:00	2024-11-08T02:00:00	7	Dirección del viento	3.22
87435	7	Sololá	701	Sololá	4	Finca Santa Victoria	2	Febrero	2023-02-02T00:00:00	2024-11-08T02:00:00	1	Precipitación	0
87436	7	Sololá	701	Sololá	4	Finca Santa Victoria	2	Febrero	2023-02-02T00:00:00	2024-11-08T02:00:00	8	Radiación solar	0
87437	7	Sololá	701	Sololá	4	Finca Santa Victoria	2	Febrero	2023-02-02T00:00:00	2024-11-08T03:00:00	2	Temperatura media	9.9
87438	7	Sololá	701	Sololá	4	Finca Santa Victoria	2	Febrero	2023-02-02T00:00:00	2024-11-08T03:00:00	4	Temperatura máxima	10.1
87439	7	Sololá	701	Sololá	4	Finca Santa Victoria	2	Febrero	2023-02-02T00:00:00	2024-11-08T03:00:00	3	Temperatura mínima	9.9
87440	7	Sololá	701	Sololá	4	Finca Santa Victoria	2	Febrero	2023-02-02T00:00:00	2024-11-08T03:00:00	5	Humedad	83
87441	7	Sololá	701	Sololá	4	Finca Santa Victoria	2	Febrero	2023-02-02T00:00:00	2024-11-08T03:00:00	6	Velocidad del viento	3.2
87442	7	Sololá	701	Sololá	4	Finca Santa Victoria	2	Febrero	2023-02-02T00:00:00	2024-11-08T03:00:00	7	Dirección del viento	3.22
87443	7	Sololá	701	Sololá	4	Finca Santa Victoria	2	Febrero	2023-02-02T00:00:00	2024-11-08T03:00:00	1	Precipitación	0
87444	7	Sololá	701	Sololá	4	Finca Santa Victoria	2	Febrero	2023-02-02T00:00:00	2024-11-08T03:00:00	8	Radiación solar	0
87445	7	Sololá	701	Sololá	4	Finca Santa Victoria	2	Febrero	2023-02-02T00:00:00	2024-11-08T04:00:00	2	Temperatura media	9.6
87446	7	Sololá	701	Sololá	4	Finca Santa Victoria	2	Febrero	2023-02-02T00:00:00	2024-11-08T04:00:00	4	Temperatura máxima	10.1
87447	7	Sololá	701	Sololá	4	Finca Santa Victoria	2	Febrero	2023-02-02T00:00:00	2024-11-08T04:00:00	3	Temperatura mínima	9.6
87448	7	Sololá	701	Sololá	4	Finca Santa Victoria	2	Febrero	2023-02-02T00:00:00	2024-11-08T04:00:00	5	Humedad	83
87449	7	Sololá	701	Sololá	4	Finca Santa Victoria	2	Febrero	2023-02-02T00:00:00	2024-11-08T04:00:00	6	Velocidad del viento	3.2
87450	7	Sololá	701	Sololá	4	Finca Santa Victoria	2	Febrero	2023-02-02T00:00:00	2024-11-08T04:00:00	7	Dirección del viento	3.22
87451	7	Sololá	701	Sololá	4	Finca Santa Victoria	2	Febrero	2023-02-02T00:00:00	2024-11-08T04:00:00	1	Precipitación	0
87452	7	Sololá	701	Sololá	4	Finca Santa Victoria	2	Febrero	2023-02-02T00:00:00	2024-11-08T04:00:00	8	Radiación solar	0
87453	7	Sololá	701	Sololá	4	Finca Santa Victoria	2	Febrero	2023-02-02T00:00:00	2024-11-08T05:00:00	2	Temperatura media	9.4
87454	7	Sololá	701	Sololá	4	Finca Santa Victoria	2	Febrero	2023-02-02T00:00:00	2024-11-08T05:00:00	4	Temperatura máxima	9.6
87455	7	Sololá	701	Sololá	4	Finca Santa Victoria	2	Febrero	2023-02-02T00:00:00	2024-11-08T05:00:00	3	Temperatura mínima	9.1
87456	7	Sololá	701	Sololá	4	Finca Santa Victoria	2	Febrero	2023-02-02T00:00:00	2024-11-08T05:00:00	5	Humedad	83
87457	7	Sololá	701	Sololá	4	Finca Santa Victoria	2	Febrero	2023-02-02T00:00:00	2024-11-08T05:00:00	6	Velocidad del viento	1.6
87458	7	Sololá	701	Sololá	4	Finca Santa Victoria	2	Febrero	2023-02-02T00:00:00	2024-11-08T05:00:00	7	Dirección del viento	1.61
87459	7	Sololá	701	Sololá	4	Finca Santa Victoria	2	Febrero	2023-02-02T00:00:00	2024-11-08T05:00:00	1	Precipitación	0
87460	7	Sololá	701	Sololá	4	Finca Santa Victoria	2	Febrero	2023-02-02T00:00:00	2024-11-08T05:00:00	8	Radiación solar	0
87461	7	Sololá	701	Sololá	4	Finca Santa Victoria	2	Febrero	2023-02-02T00:00:00	2024-11-08T06:00:00	2	Temperatura media	9.1
87462	7	Sololá	701	Sololá	4	Finca Santa Victoria	2	Febrero	2023-02-02T00:00:00	2024-11-08T06:00:00	4	Temperatura máxima	9.6
87463	7	Sololá	701	Sololá	4	Finca Santa Victoria	2	Febrero	2023-02-02T00:00:00	2024-11-08T06:00:00	3	Temperatura mínima	9.1
87464	7	Sololá	701	Sololá	4	Finca Santa Victoria	2	Febrero	2023-02-02T00:00:00	2024-11-08T06:00:00	5	Humedad	74
87465	7	Sololá	701	Sololá	4	Finca Santa Victoria	2	Febrero	2023-02-02T00:00:00	2024-11-08T06:00:00	6	Velocidad del viento	1.6
87466	7	Sololá	701	Sololá	4	Finca Santa Victoria	2	Febrero	2023-02-02T00:00:00	2024-11-08T06:00:00	7	Dirección del viento	1.61
87467	7	Sololá	701	Sololá	4	Finca Santa Victoria	2	Febrero	2023-02-02T00:00:00	2024-11-08T06:00:00	1	Precipitación	0
87468	7	Sololá	701	Sololá	4	Finca Santa Victoria	2	Febrero	2023-02-02T00:00:00	2024-11-08T06:00:00	8	Radiación solar	0
87469	7	Sololá	701	Sololá	4	Finca Santa Victoria	2	Febrero	2023-02-02T00:00:00	2024-11-08T07:00:00	2	Temperatura media	8.7
87470	7	Sololá	701	Sololá	4	Finca Santa Victoria	2	Febrero	2023-02-02T00:00:00	2024-11-08T07:00:00	4	Temperatura máxima	9.1
87471	7	Sololá	701	Sololá	4	Finca Santa Victoria	2	Febrero	2023-02-02T00:00:00	2024-11-08T07:00:00	3	Temperatura mínima	8.5
87472	7	Sololá	701	Sololá	4	Finca Santa Victoria	2	Febrero	2023-02-02T00:00:00	2024-11-08T07:00:00	5	Humedad	77
87473	7	Sololá	701	Sololá	4	Finca Santa Victoria	2	Febrero	2023-02-02T00:00:00	2024-11-08T07:00:00	6	Velocidad del viento	1.6
87474	7	Sololá	701	Sololá	4	Finca Santa Victoria	2	Febrero	2023-02-02T00:00:00	2024-11-08T07:00:00	7	Dirección del viento	1.61
87475	7	Sololá	701	Sololá	4	Finca Santa Victoria	2	Febrero	2023-02-02T00:00:00	2024-11-08T07:00:00	1	Precipitación	0
87476	7	Sololá	701	Sololá	4	Finca Santa Victoria	2	Febrero	2023-02-02T00:00:00	2024-11-08T07:00:00	8	Radiación solar	3
87477	7	Sololá	701	Sololá	4	Finca Santa Victoria	2	Febrero	2023-02-02T00:00:00	2024-11-08T08:00:00	2	Temperatura media	10.9
87478	7	Sololá	701	Sololá	4	Finca Santa Victoria	2	Febrero	2023-02-02T00:00:00	2024-11-08T08:00:00	4	Temperatura máxima	10.9
87479	7	Sololá	701	Sololá	4	Finca Santa Victoria	2	Febrero	2023-02-02T00:00:00	2024-11-08T08:00:00	3	Temperatura mínima	8.6
87480	7	Sololá	701	Sololá	4	Finca Santa Victoria	2	Febrero	2023-02-02T00:00:00	2024-11-08T08:00:00	5	Humedad	67
87481	7	Sololá	701	Sololá	4	Finca Santa Victoria	2	Febrero	2023-02-02T00:00:00	2024-11-08T08:00:00	6	Velocidad del viento	1.6
87482	7	Sololá	701	Sololá	4	Finca Santa Victoria	2	Febrero	2023-02-02T00:00:00	2024-11-08T08:00:00	7	Dirección del viento	1.61
87483	7	Sololá	701	Sololá	4	Finca Santa Victoria	2	Febrero	2023-02-02T00:00:00	2024-11-08T08:00:00	1	Precipitación	0
87484	7	Sololá	701	Sololá	4	Finca Santa Victoria	2	Febrero	2023-02-02T00:00:00	2024-11-08T08:00:00	8	Radiación solar	39
87485	7	Sololá	701	Sololá	4	Finca Santa Victoria	2	Febrero	2023-02-02T00:00:00	2024-11-08T09:00:00	2	Temperatura media	16.1
87486	7	Sololá	701	Sololá	4	Finca Santa Victoria	2	Febrero	2023-02-02T00:00:00	2024-11-08T09:00:00	4	Temperatura máxima	16.1
87487	7	Sololá	701	Sololá	4	Finca Santa Victoria	2	Febrero	2023-02-02T00:00:00	2024-11-08T09:00:00	3	Temperatura mínima	11
87488	7	Sololá	701	Sololá	4	Finca Santa Victoria	2	Febrero	2023-02-02T00:00:00	2024-11-08T09:00:00	5	Humedad	43
87489	7	Sololá	701	Sololá	4	Finca Santa Victoria	2	Febrero	2023-02-02T00:00:00	2024-11-08T09:00:00	6	Velocidad del viento	1.6
87490	7	Sololá	701	Sololá	4	Finca Santa Victoria	2	Febrero	2023-02-02T00:00:00	2024-11-08T09:00:00	7	Dirección del viento	1.61
87491	7	Sololá	701	Sololá	4	Finca Santa Victoria	2	Febrero	2023-02-02T00:00:00	2024-11-08T09:00:00	1	Precipitación	0
87492	7	Sololá	701	Sololá	4	Finca Santa Victoria	2	Febrero	2023-02-02T00:00:00	2024-11-08T09:00:00	8	Radiación solar	154
87493	7	Sololá	701	Sololá	4	Finca Santa Victoria	2	Febrero	2023-02-02T00:00:00	2024-11-08T10:00:00	2	Temperatura media	17.7
87494	7	Sololá	701	Sololá	4	Finca Santa Victoria	2	Febrero	2023-02-02T00:00:00	2024-11-08T10:00:00	4	Temperatura máxima	17.8
87495	7	Sololá	701	Sololá	4	Finca Santa Victoria	2	Febrero	2023-02-02T00:00:00	2024-11-08T10:00:00	3	Temperatura mínima	16.1
87496	7	Sololá	701	Sololá	4	Finca Santa Victoria	2	Febrero	2023-02-02T00:00:00	2024-11-08T10:00:00	5	Humedad	43
87497	7	Sololá	701	Sololá	4	Finca Santa Victoria	2	Febrero	2023-02-02T00:00:00	2024-11-08T10:00:00	6	Velocidad del viento	1.6
87498	7	Sololá	701	Sololá	4	Finca Santa Victoria	2	Febrero	2023-02-02T00:00:00	2024-11-08T10:00:00	7	Dirección del viento	1.61
87499	7	Sololá	701	Sololá	4	Finca Santa Victoria	2	Febrero	2023-02-02T00:00:00	2024-11-08T10:00:00	1	Precipitación	0
87500	7	Sololá	701	Sololá	4	Finca Santa Victoria	2	Febrero	2023-02-02T00:00:00	2024-11-08T10:00:00	8	Radiación solar	281
87501	7	Sololá	701	Sololá	4	Finca Santa Victoria	2	Febrero	2023-02-02T00:00:00	2024-11-08T11:00:00	2	Temperatura media	20.2
87502	7	Sololá	701	Sololá	4	Finca Santa Victoria	2	Febrero	2023-02-02T00:00:00	2024-11-08T11:00:00	4	Temperatura máxima	20.2
87503	7	Sololá	701	Sololá	4	Finca Santa Victoria	2	Febrero	2023-02-02T00:00:00	2024-11-08T11:00:00	3	Temperatura mínima	17.7
87504	7	Sololá	701	Sololá	4	Finca Santa Victoria	2	Febrero	2023-02-02T00:00:00	2024-11-08T11:00:00	5	Humedad	36
87505	7	Sololá	701	Sololá	4	Finca Santa Victoria	2	Febrero	2023-02-02T00:00:00	2024-11-08T11:00:00	6	Velocidad del viento	3.2
87506	7	Sololá	701	Sololá	4	Finca Santa Victoria	2	Febrero	2023-02-02T00:00:00	2024-11-08T11:00:00	7	Dirección del viento	3.22
87507	7	Sololá	701	Sololá	4	Finca Santa Victoria	2	Febrero	2023-02-02T00:00:00	2024-11-08T11:00:00	1	Precipitación	0
87508	7	Sololá	701	Sololá	4	Finca Santa Victoria	2	Febrero	2023-02-02T00:00:00	2024-11-08T11:00:00	8	Radiación solar	836
87509	7	Sololá	701	Sololá	4	Finca Santa Victoria	2	Febrero	2023-02-02T00:00:00	2024-11-08T12:00:00	2	Temperatura media	20.8
87510	7	Sololá	701	Sololá	4	Finca Santa Victoria	2	Febrero	2023-02-02T00:00:00	2024-11-08T12:00:00	4	Temperatura máxima	21
87511	7	Sololá	701	Sololá	4	Finca Santa Victoria	2	Febrero	2023-02-02T00:00:00	2024-11-08T12:00:00	3	Temperatura mínima	19.9
87512	7	Sololá	701	Sololá	4	Finca Santa Victoria	2	Febrero	2023-02-02T00:00:00	2024-11-08T12:00:00	5	Humedad	34
87513	7	Sololá	701	Sololá	4	Finca Santa Victoria	2	Febrero	2023-02-02T00:00:00	2024-11-08T12:00:00	6	Velocidad del viento	6.4
87514	7	Sololá	701	Sololá	4	Finca Santa Victoria	2	Febrero	2023-02-02T00:00:00	2024-11-08T12:00:00	7	Dirección del viento	6.44
87515	7	Sololá	701	Sololá	4	Finca Santa Victoria	2	Febrero	2023-02-02T00:00:00	2024-11-08T12:00:00	1	Precipitación	0
87516	7	Sololá	701	Sololá	4	Finca Santa Victoria	2	Febrero	2023-02-02T00:00:00	2024-11-08T12:00:00	8	Radiación solar	928
87517	7	Sololá	701	Sololá	4	Finca Santa Victoria	2	Febrero	2023-02-02T00:00:00	2024-11-08T13:00:00	2	Temperatura media	21.8
87518	7	Sololá	701	Sololá	4	Finca Santa Victoria	2	Febrero	2023-02-02T00:00:00	2024-11-08T13:00:00	4	Temperatura máxima	21.8
87519	7	Sololá	701	Sololá	4	Finca Santa Victoria	2	Febrero	2023-02-02T00:00:00	2024-11-08T13:00:00	3	Temperatura mínima	20.4
87520	7	Sololá	701	Sololá	4	Finca Santa Victoria	2	Febrero	2023-02-02T00:00:00	2024-11-08T13:00:00	5	Humedad	27
87521	7	Sololá	701	Sololá	4	Finca Santa Victoria	2	Febrero	2023-02-02T00:00:00	2024-11-08T13:00:00	6	Velocidad del viento	6.4
87522	7	Sololá	701	Sololá	4	Finca Santa Victoria	2	Febrero	2023-02-02T00:00:00	2024-11-08T13:00:00	7	Dirección del viento	6.44
87523	7	Sololá	701	Sololá	4	Finca Santa Victoria	2	Febrero	2023-02-02T00:00:00	2024-11-08T13:00:00	1	Precipitación	0
87524	7	Sololá	701	Sololá	4	Finca Santa Victoria	2	Febrero	2023-02-02T00:00:00	2024-11-08T13:00:00	8	Radiación solar	936
87525	7	Sololá	701	Sololá	4	Finca Santa Victoria	2	Febrero	2023-02-02T00:00:00	2024-11-08T14:00:00	2	Temperatura media	19.7
87526	7	Sololá	701	Sololá	4	Finca Santa Victoria	2	Febrero	2023-02-02T00:00:00	2024-11-08T14:00:00	4	Temperatura máxima	22.1
87527	7	Sololá	701	Sololá	4	Finca Santa Victoria	2	Febrero	2023-02-02T00:00:00	2024-11-08T14:00:00	3	Temperatura mínima	19.7
87528	7	Sololá	701	Sololá	4	Finca Santa Victoria	2	Febrero	2023-02-02T00:00:00	2024-11-08T14:00:00	5	Humedad	57
87529	7	Sololá	701	Sololá	4	Finca Santa Victoria	2	Febrero	2023-02-02T00:00:00	2024-11-08T14:00:00	6	Velocidad del viento	4.8
87530	7	Sololá	701	Sololá	4	Finca Santa Victoria	2	Febrero	2023-02-02T00:00:00	2024-11-08T14:00:00	7	Dirección del viento	4.83
87531	7	Sololá	701	Sololá	4	Finca Santa Victoria	2	Febrero	2023-02-02T00:00:00	2024-11-08T14:00:00	1	Precipitación	0
87532	7	Sololá	701	Sololá	4	Finca Santa Victoria	2	Febrero	2023-02-02T00:00:00	2024-11-08T14:00:00	8	Radiación solar	864
87533	7	Sololá	701	Sololá	4	Finca Santa Victoria	2	Febrero	2023-02-02T00:00:00	2024-11-08T15:00:00	2	Temperatura media	19
87534	7	Sololá	701	Sololá	4	Finca Santa Victoria	2	Febrero	2023-02-02T00:00:00	2024-11-08T15:00:00	4	Temperatura máxima	20.1
87535	7	Sololá	701	Sololá	4	Finca Santa Victoria	2	Febrero	2023-02-02T00:00:00	2024-11-08T15:00:00	3	Temperatura mínima	19
87536	7	Sololá	701	Sololá	4	Finca Santa Victoria	2	Febrero	2023-02-02T00:00:00	2024-11-08T15:00:00	5	Humedad	66
87537	7	Sololá	701	Sololá	4	Finca Santa Victoria	2	Febrero	2023-02-02T00:00:00	2024-11-08T15:00:00	6	Velocidad del viento	4.8
87538	7	Sololá	701	Sololá	4	Finca Santa Victoria	2	Febrero	2023-02-02T00:00:00	2024-11-08T15:00:00	7	Dirección del viento	4.83
87539	7	Sololá	701	Sololá	4	Finca Santa Victoria	2	Febrero	2023-02-02T00:00:00	2024-11-08T15:00:00	1	Precipitación	0
87540	7	Sololá	701	Sololá	4	Finca Santa Victoria	2	Febrero	2023-02-02T00:00:00	2024-11-08T15:00:00	8	Radiación solar	594
87541	7	Sololá	701	Sololá	4	Finca Santa Victoria	2	Febrero	2023-02-02T00:00:00	2024-11-08T16:00:00	2	Temperatura media	17.8
87542	7	Sololá	701	Sololá	4	Finca Santa Victoria	2	Febrero	2023-02-02T00:00:00	2024-11-08T16:00:00	4	Temperatura máxima	19.1
87543	7	Sololá	701	Sololá	4	Finca Santa Victoria	2	Febrero	2023-02-02T00:00:00	2024-11-08T16:00:00	3	Temperatura mínima	17.8
87544	7	Sololá	701	Sololá	4	Finca Santa Victoria	2	Febrero	2023-02-02T00:00:00	2024-11-08T16:00:00	5	Humedad	73
87545	7	Sololá	701	Sololá	4	Finca Santa Victoria	2	Febrero	2023-02-02T00:00:00	2024-11-08T16:00:00	6	Velocidad del viento	4.8
87546	7	Sololá	701	Sololá	4	Finca Santa Victoria	2	Febrero	2023-02-02T00:00:00	2024-11-08T16:00:00	7	Dirección del viento	4.83
87547	7	Sololá	701	Sololá	4	Finca Santa Victoria	2	Febrero	2023-02-02T00:00:00	2024-11-08T16:00:00	1	Precipitación	0
87548	7	Sololá	701	Sololá	4	Finca Santa Victoria	2	Febrero	2023-02-02T00:00:00	2024-11-08T16:00:00	8	Radiación solar	321
87549	7	Sololá	701	Sololá	4	Finca Santa Victoria	2	Febrero	2023-02-02T00:00:00	2024-11-08T17:00:00	2	Temperatura media	18.6
87550	7	Sololá	701	Sololá	4	Finca Santa Victoria	2	Febrero	2023-02-02T00:00:00	2024-11-08T17:00:00	4	Temperatura máxima	18.6
87551	7	Sololá	701	Sololá	4	Finca Santa Victoria	2	Febrero	2023-02-02T00:00:00	2024-11-08T17:00:00	3	Temperatura mínima	17.6
87552	7	Sololá	701	Sololá	4	Finca Santa Victoria	2	Febrero	2023-02-02T00:00:00	2024-11-08T17:00:00	5	Humedad	71
87553	7	Sololá	701	Sololá	4	Finca Santa Victoria	2	Febrero	2023-02-02T00:00:00	2024-11-08T17:00:00	6	Velocidad del viento	3.2
87554	7	Sololá	701	Sololá	4	Finca Santa Victoria	2	Febrero	2023-02-02T00:00:00	2024-11-08T17:00:00	7	Dirección del viento	3.22
87555	7	Sololá	701	Sololá	4	Finca Santa Victoria	2	Febrero	2023-02-02T00:00:00	2024-11-08T17:00:00	1	Precipitación	0
87556	7	Sololá	701	Sololá	4	Finca Santa Victoria	2	Febrero	2023-02-02T00:00:00	2024-11-08T17:00:00	8	Radiación solar	270
87557	7	Sololá	701	Sololá	4	Finca Santa Victoria	2	Febrero	2023-02-02T00:00:00	2024-11-08T18:00:00	2	Temperatura media	15.5
87558	7	Sololá	701	Sololá	4	Finca Santa Victoria	2	Febrero	2023-02-02T00:00:00	2024-11-08T18:00:00	4	Temperatura máxima	18.8
87559	7	Sololá	701	Sololá	4	Finca Santa Victoria	2	Febrero	2023-02-02T00:00:00	2024-11-08T18:00:00	3	Temperatura mínima	15.5
87560	7	Sololá	701	Sololá	4	Finca Santa Victoria	2	Febrero	2023-02-02T00:00:00	2024-11-08T18:00:00	5	Humedad	46
87561	7	Sololá	701	Sololá	4	Finca Santa Victoria	2	Febrero	2023-02-02T00:00:00	2024-11-08T18:00:00	6	Velocidad del viento	1.6
87562	7	Sololá	701	Sololá	4	Finca Santa Victoria	2	Febrero	2023-02-02T00:00:00	2024-11-08T18:00:00	7	Dirección del viento	1.61
87563	7	Sololá	701	Sololá	4	Finca Santa Victoria	2	Febrero	2023-02-02T00:00:00	2024-11-08T18:00:00	1	Precipitación	0
87564	7	Sololá	701	Sololá	4	Finca Santa Victoria	2	Febrero	2023-02-02T00:00:00	2024-11-08T18:00:00	8	Radiación solar	70
87565	7	Sololá	701	Sololá	4	Finca Santa Victoria	2	Febrero	2023-02-02T00:00:00	2024-11-08T19:00:00	2	Temperatura media	13.4
87566	7	Sololá	701	Sololá	4	Finca Santa Victoria	2	Febrero	2023-02-02T00:00:00	2024-11-08T19:00:00	4	Temperatura máxima	15.5
87567	7	Sololá	701	Sololá	4	Finca Santa Victoria	2	Febrero	2023-02-02T00:00:00	2024-11-08T19:00:00	3	Temperatura mínima	13.4
87568	7	Sololá	701	Sololá	4	Finca Santa Victoria	2	Febrero	2023-02-02T00:00:00	2024-11-08T19:00:00	5	Humedad	68
87569	7	Sololá	701	Sololá	4	Finca Santa Victoria	2	Febrero	2023-02-02T00:00:00	2024-11-08T19:00:00	6	Velocidad del viento	0
87570	7	Sololá	701	Sololá	4	Finca Santa Victoria	2	Febrero	2023-02-02T00:00:00	2024-11-08T19:00:00	7	Dirección del viento	0
87571	7	Sololá	701	Sololá	4	Finca Santa Victoria	2	Febrero	2023-02-02T00:00:00	2024-11-08T19:00:00	1	Precipitación	0
87572	7	Sololá	701	Sololá	4	Finca Santa Victoria	2	Febrero	2023-02-02T00:00:00	2024-11-08T19:00:00	8	Radiación solar	0
87573	7	Sololá	701	Sololá	4	Finca Santa Victoria	2	Febrero	2023-02-02T00:00:00	2024-11-08T20:00:00	2	Temperatura media	12.4
87574	7	Sololá	701	Sololá	4	Finca Santa Victoria	2	Febrero	2023-02-02T00:00:00	2024-11-08T20:00:00	4	Temperatura máxima	13.4
87575	7	Sololá	701	Sololá	4	Finca Santa Victoria	2	Febrero	2023-02-02T00:00:00	2024-11-08T20:00:00	3	Temperatura mínima	12.4
87576	7	Sololá	701	Sololá	4	Finca Santa Victoria	2	Febrero	2023-02-02T00:00:00	2024-11-08T20:00:00	5	Humedad	79
87577	7	Sololá	701	Sololá	4	Finca Santa Victoria	2	Febrero	2023-02-02T00:00:00	2024-11-08T20:00:00	6	Velocidad del viento	3.2
87578	7	Sololá	701	Sololá	4	Finca Santa Victoria	2	Febrero	2023-02-02T00:00:00	2024-11-08T20:00:00	7	Dirección del viento	3.22
87579	7	Sololá	701	Sololá	4	Finca Santa Victoria	2	Febrero	2023-02-02T00:00:00	2024-11-08T20:00:00	1	Precipitación	0
87580	7	Sololá	701	Sololá	4	Finca Santa Victoria	2	Febrero	2023-02-02T00:00:00	2024-11-08T20:00:00	8	Radiación solar	0
87581	7	Sololá	701	Sololá	4	Finca Santa Victoria	2	Febrero	2023-02-02T00:00:00	2024-11-08T21:00:00	2	Temperatura media	12.1
87582	7	Sololá	701	Sololá	4	Finca Santa Victoria	2	Febrero	2023-02-02T00:00:00	2024-11-08T21:00:00	4	Temperatura máxima	12.4
87583	7	Sololá	701	Sololá	4	Finca Santa Victoria	2	Febrero	2023-02-02T00:00:00	2024-11-08T21:00:00	3	Temperatura mínima	12
87584	7	Sololá	701	Sololá	4	Finca Santa Victoria	2	Febrero	2023-02-02T00:00:00	2024-11-08T21:00:00	5	Humedad	81
87585	7	Sololá	701	Sololá	4	Finca Santa Victoria	2	Febrero	2023-02-02T00:00:00	2024-11-08T21:00:00	6	Velocidad del viento	3.2
87586	7	Sololá	701	Sololá	4	Finca Santa Victoria	2	Febrero	2023-02-02T00:00:00	2024-11-08T21:00:00	7	Dirección del viento	3.22
87587	7	Sololá	701	Sololá	4	Finca Santa Victoria	2	Febrero	2023-02-02T00:00:00	2024-11-08T21:00:00	1	Precipitación	0
87588	7	Sololá	701	Sololá	4	Finca Santa Victoria	2	Febrero	2023-02-02T00:00:00	2024-11-08T21:00:00	8	Radiación solar	0
87589	7	Sololá	701	Sololá	4	Finca Santa Victoria	2	Febrero	2023-02-02T00:00:00	2024-11-08T22:00:00	2	Temperatura media	11.6
87590	7	Sololá	701	Sololá	4	Finca Santa Victoria	2	Febrero	2023-02-02T00:00:00	2024-11-08T22:00:00	4	Temperatura máxima	12.1
87591	7	Sololá	701	Sololá	4	Finca Santa Victoria	2	Febrero	2023-02-02T00:00:00	2024-11-08T22:00:00	3	Temperatura mínima	11.6
87592	7	Sololá	701	Sololá	4	Finca Santa Victoria	2	Febrero	2023-02-02T00:00:00	2024-11-08T22:00:00	5	Humedad	82
87593	7	Sololá	701	Sololá	4	Finca Santa Victoria	2	Febrero	2023-02-02T00:00:00	2024-11-08T22:00:00	6	Velocidad del viento	3.2
87594	7	Sololá	701	Sololá	4	Finca Santa Victoria	2	Febrero	2023-02-02T00:00:00	2024-11-08T22:00:00	7	Dirección del viento	3.22
87595	7	Sololá	701	Sololá	4	Finca Santa Victoria	2	Febrero	2023-02-02T00:00:00	2024-11-08T22:00:00	1	Precipitación	0
87596	7	Sololá	701	Sololá	4	Finca Santa Victoria	2	Febrero	2023-02-02T00:00:00	2024-11-08T22:00:00	8	Radiación solar	0
87597	7	Sololá	701	Sololá	4	Finca Santa Victoria	2	Febrero	2023-02-02T00:00:00	2024-11-08T23:00:00	2	Temperatura media	11.3
87598	7	Sololá	701	Sololá	4	Finca Santa Victoria	2	Febrero	2023-02-02T00:00:00	2024-11-08T23:00:00	4	Temperatura máxima	11.7
87599	7	Sololá	701	Sololá	4	Finca Santa Victoria	2	Febrero	2023-02-02T00:00:00	2024-11-08T23:00:00	3	Temperatura mínima	11.3
87600	7	Sololá	701	Sololá	4	Finca Santa Victoria	2	Febrero	2023-02-02T00:00:00	2024-11-08T23:00:00	5	Humedad	80
87601	7	Sololá	701	Sololá	4	Finca Santa Victoria	2	Febrero	2023-02-02T00:00:00	2024-11-08T23:00:00	6	Velocidad del viento	4.8
87602	7	Sololá	701	Sololá	4	Finca Santa Victoria	2	Febrero	2023-02-02T00:00:00	2024-11-08T23:00:00	7	Dirección del viento	4.83
87603	7	Sololá	701	Sololá	4	Finca Santa Victoria	2	Febrero	2023-02-02T00:00:00	2024-11-08T23:00:00	1	Precipitación	0
87604	7	Sololá	701	Sololá	4	Finca Santa Victoria	2	Febrero	2023-02-02T00:00:00	2024-11-08T23:00:00	8	Radiación solar	0
87605	7	Sololá	701	Sololá	4	Finca Santa Victoria	2	Febrero	2023-03-02T00:00:00	2024-11-08T00:00:00	2	Temperatura media	10.7
87606	7	Sololá	701	Sololá	4	Finca Santa Victoria	2	Febrero	2023-03-02T00:00:00	2024-11-08T00:00:00	4	Temperatura máxima	11.3
87607	7	Sololá	701	Sololá	4	Finca Santa Victoria	2	Febrero	2023-03-02T00:00:00	2024-11-08T00:00:00	3	Temperatura mínima	10.7
87608	7	Sololá	701	Sololá	4	Finca Santa Victoria	2	Febrero	2023-03-02T00:00:00	2024-11-08T00:00:00	5	Humedad	79
87609	7	Sololá	701	Sololá	4	Finca Santa Victoria	2	Febrero	2023-03-02T00:00:00	2024-11-08T00:00:00	6	Velocidad del viento	4.8
87610	7	Sololá	701	Sololá	4	Finca Santa Victoria	2	Febrero	2023-03-02T00:00:00	2024-11-08T00:00:00	7	Dirección del viento	4.83
87611	7	Sololá	701	Sololá	4	Finca Santa Victoria	2	Febrero	2023-03-02T00:00:00	2024-11-08T00:00:00	1	Precipitación	0
87612	7	Sololá	701	Sololá	4	Finca Santa Victoria	2	Febrero	2023-03-02T00:00:00	2024-11-08T00:00:00	8	Radiación solar	0
87613	7	Sololá	701	Sololá	4	Finca Santa Victoria	2	Febrero	2023-03-02T00:00:00	2024-11-08T01:00:00	2	Temperatura media	9.9
87614	7	Sololá	701	Sololá	4	Finca Santa Victoria	2	Febrero	2023-03-02T00:00:00	2024-11-08T01:00:00	4	Temperatura máxima	10.7
87615	7	Sololá	701	Sololá	4	Finca Santa Victoria	2	Febrero	2023-03-02T00:00:00	2024-11-08T01:00:00	3	Temperatura mínima	9.9
87616	7	Sololá	701	Sololá	4	Finca Santa Victoria	2	Febrero	2023-03-02T00:00:00	2024-11-08T01:00:00	5	Humedad	81
87617	7	Sololá	701	Sololá	4	Finca Santa Victoria	2	Febrero	2023-03-02T00:00:00	2024-11-08T01:00:00	6	Velocidad del viento	3.2
87618	7	Sololá	701	Sololá	4	Finca Santa Victoria	2	Febrero	2023-03-02T00:00:00	2024-11-08T01:00:00	7	Dirección del viento	3.22
87619	7	Sololá	701	Sololá	4	Finca Santa Victoria	2	Febrero	2023-03-02T00:00:00	2024-11-08T01:00:00	1	Precipitación	0
87620	7	Sololá	701	Sololá	4	Finca Santa Victoria	2	Febrero	2023-03-02T00:00:00	2024-11-08T01:00:00	8	Radiación solar	0
87621	7	Sololá	701	Sololá	4	Finca Santa Victoria	2	Febrero	2023-03-02T00:00:00	2024-11-08T02:00:00	2	Temperatura media	9.6
87622	7	Sololá	701	Sololá	4	Finca Santa Victoria	2	Febrero	2023-03-02T00:00:00	2024-11-08T02:00:00	4	Temperatura máxima	9.9
87623	7	Sololá	701	Sololá	4	Finca Santa Victoria	2	Febrero	2023-03-02T00:00:00	2024-11-08T02:00:00	3	Temperatura mínima	9.6
87624	7	Sololá	701	Sololá	4	Finca Santa Victoria	2	Febrero	2023-03-02T00:00:00	2024-11-08T02:00:00	5	Humedad	81
87625	7	Sololá	701	Sololá	4	Finca Santa Victoria	2	Febrero	2023-03-02T00:00:00	2024-11-08T02:00:00	6	Velocidad del viento	4.8
87626	7	Sololá	701	Sololá	4	Finca Santa Victoria	2	Febrero	2023-03-02T00:00:00	2024-11-08T02:00:00	7	Dirección del viento	4.83
87627	7	Sololá	701	Sololá	4	Finca Santa Victoria	2	Febrero	2023-03-02T00:00:00	2024-11-08T02:00:00	1	Precipitación	0
87628	7	Sololá	701	Sololá	4	Finca Santa Victoria	2	Febrero	2023-03-02T00:00:00	2024-11-08T02:00:00	8	Radiación solar	0
87629	7	Sololá	701	Sololá	4	Finca Santa Victoria	2	Febrero	2023-03-02T00:00:00	2024-11-08T03:00:00	2	Temperatura media	9.9
87630	7	Sololá	701	Sololá	4	Finca Santa Victoria	2	Febrero	2023-03-02T00:00:00	2024-11-08T03:00:00	4	Temperatura máxima	9.9
87631	7	Sololá	701	Sololá	4	Finca Santa Victoria	2	Febrero	2023-03-02T00:00:00	2024-11-08T03:00:00	3	Temperatura mínima	9.5
87632	7	Sololá	701	Sololá	4	Finca Santa Victoria	2	Febrero	2023-03-02T00:00:00	2024-11-08T03:00:00	5	Humedad	78
87633	7	Sololá	701	Sololá	4	Finca Santa Victoria	2	Febrero	2023-03-02T00:00:00	2024-11-08T03:00:00	6	Velocidad del viento	4.8
87634	7	Sololá	701	Sololá	4	Finca Santa Victoria	2	Febrero	2023-03-02T00:00:00	2024-11-08T03:00:00	7	Dirección del viento	4.83
87635	7	Sololá	701	Sololá	4	Finca Santa Victoria	2	Febrero	2023-03-02T00:00:00	2024-11-08T03:00:00	1	Precipitación	0
87636	7	Sololá	701	Sololá	4	Finca Santa Victoria	2	Febrero	2023-03-02T00:00:00	2024-11-08T03:00:00	8	Radiación solar	0
87637	7	Sololá	701	Sololá	4	Finca Santa Victoria	2	Febrero	2023-03-02T00:00:00	2024-11-08T04:00:00	2	Temperatura media	9.7
87638	7	Sololá	701	Sololá	4	Finca Santa Victoria	2	Febrero	2023-03-02T00:00:00	2024-11-08T04:00:00	4	Temperatura máxima	10.1
87639	7	Sololá	701	Sololá	4	Finca Santa Victoria	2	Febrero	2023-03-02T00:00:00	2024-11-08T04:00:00	3	Temperatura mínima	9.7
87640	7	Sololá	701	Sololá	4	Finca Santa Victoria	2	Febrero	2023-03-02T00:00:00	2024-11-08T04:00:00	5	Humedad	81
87641	7	Sololá	701	Sololá	4	Finca Santa Victoria	2	Febrero	2023-03-02T00:00:00	2024-11-08T04:00:00	6	Velocidad del viento	6.4
87642	7	Sololá	701	Sololá	4	Finca Santa Victoria	2	Febrero	2023-03-02T00:00:00	2024-11-08T04:00:00	7	Dirección del viento	6.44
87643	7	Sololá	701	Sololá	4	Finca Santa Victoria	2	Febrero	2023-03-02T00:00:00	2024-11-08T04:00:00	1	Precipitación	0
87644	7	Sololá	701	Sololá	4	Finca Santa Victoria	2	Febrero	2023-03-02T00:00:00	2024-11-08T04:00:00	8	Radiación solar	0
87645	7	Sololá	701	Sololá	4	Finca Santa Victoria	2	Febrero	2023-03-02T00:00:00	2024-11-08T05:00:00	2	Temperatura media	9.7
87646	7	Sololá	701	Sololá	4	Finca Santa Victoria	2	Febrero	2023-03-02T00:00:00	2024-11-08T05:00:00	4	Temperatura máxima	9.9
87647	7	Sololá	701	Sololá	4	Finca Santa Victoria	2	Febrero	2023-03-02T00:00:00	2024-11-08T05:00:00	3	Temperatura mínima	9.7
87648	7	Sololá	701	Sololá	4	Finca Santa Victoria	2	Febrero	2023-03-02T00:00:00	2024-11-08T05:00:00	5	Humedad	82
87649	7	Sololá	701	Sololá	4	Finca Santa Victoria	2	Febrero	2023-03-02T00:00:00	2024-11-08T05:00:00	6	Velocidad del viento	6.4
87650	7	Sololá	701	Sololá	4	Finca Santa Victoria	2	Febrero	2023-03-02T00:00:00	2024-11-08T05:00:00	7	Dirección del viento	6.44
87651	7	Sololá	701	Sololá	4	Finca Santa Victoria	2	Febrero	2023-03-02T00:00:00	2024-11-08T05:00:00	1	Precipitación	0
87652	7	Sololá	701	Sololá	4	Finca Santa Victoria	2	Febrero	2023-03-02T00:00:00	2024-11-08T05:00:00	8	Radiación solar	0
87653	7	Sololá	701	Sololá	4	Finca Santa Victoria	2	Febrero	2023-03-02T00:00:00	2024-11-08T06:00:00	2	Temperatura media	9.6
87654	7	Sololá	701	Sololá	4	Finca Santa Victoria	2	Febrero	2023-03-02T00:00:00	2024-11-08T06:00:00	4	Temperatura máxima	9.7
87655	7	Sololá	701	Sololá	4	Finca Santa Victoria	2	Febrero	2023-03-02T00:00:00	2024-11-08T06:00:00	3	Temperatura mínima	9.4
87656	7	Sololá	701	Sololá	4	Finca Santa Victoria	2	Febrero	2023-03-02T00:00:00	2024-11-08T06:00:00	5	Humedad	84
87657	7	Sololá	701	Sololá	4	Finca Santa Victoria	2	Febrero	2023-03-02T00:00:00	2024-11-08T06:00:00	6	Velocidad del viento	6.4
87658	7	Sololá	701	Sololá	4	Finca Santa Victoria	2	Febrero	2023-03-02T00:00:00	2024-11-08T06:00:00	7	Dirección del viento	6.44
87659	7	Sololá	701	Sololá	4	Finca Santa Victoria	2	Febrero	2023-03-02T00:00:00	2024-11-08T06:00:00	1	Precipitación	0
87660	7	Sololá	701	Sololá	4	Finca Santa Victoria	2	Febrero	2023-03-02T00:00:00	2024-11-08T06:00:00	8	Radiación solar	0
87661	7	Sololá	701	Sololá	4	Finca Santa Victoria	2	Febrero	2023-03-02T00:00:00	2024-11-08T07:00:00	2	Temperatura media	9.7
87662	7	Sololá	701	Sololá	4	Finca Santa Victoria	2	Febrero	2023-03-02T00:00:00	2024-11-08T07:00:00	4	Temperatura máxima	9.7
87663	7	Sololá	701	Sololá	4	Finca Santa Victoria	2	Febrero	2023-03-02T00:00:00	2024-11-08T07:00:00	3	Temperatura mínima	9.5
87664	7	Sololá	701	Sololá	4	Finca Santa Victoria	2	Febrero	2023-03-02T00:00:00	2024-11-08T07:00:00	5	Humedad	85
87665	7	Sololá	701	Sololá	4	Finca Santa Victoria	2	Febrero	2023-03-02T00:00:00	2024-11-08T07:00:00	6	Velocidad del viento	6.4
87666	7	Sololá	701	Sololá	4	Finca Santa Victoria	2	Febrero	2023-03-02T00:00:00	2024-11-08T07:00:00	7	Dirección del viento	6.44
87667	7	Sololá	701	Sololá	4	Finca Santa Victoria	2	Febrero	2023-03-02T00:00:00	2024-11-08T07:00:00	1	Precipitación	0
87668	7	Sololá	701	Sololá	4	Finca Santa Victoria	2	Febrero	2023-03-02T00:00:00	2024-11-08T07:00:00	8	Radiación solar	4
87669	7	Sololá	701	Sololá	4	Finca Santa Victoria	2	Febrero	2023-03-02T00:00:00	2024-11-08T08:00:00	2	Temperatura media	11.4
87670	7	Sololá	701	Sololá	4	Finca Santa Victoria	2	Febrero	2023-03-02T00:00:00	2024-11-08T08:00:00	4	Temperatura máxima	11.4
87671	7	Sololá	701	Sololá	4	Finca Santa Victoria	2	Febrero	2023-03-02T00:00:00	2024-11-08T08:00:00	3	Temperatura mínima	9.7
87672	7	Sololá	701	Sololá	4	Finca Santa Victoria	2	Febrero	2023-03-02T00:00:00	2024-11-08T08:00:00	5	Humedad	74
87673	7	Sololá	701	Sololá	4	Finca Santa Victoria	2	Febrero	2023-03-02T00:00:00	2024-11-08T08:00:00	6	Velocidad del viento	4.8
87674	7	Sololá	701	Sololá	4	Finca Santa Victoria	2	Febrero	2023-03-02T00:00:00	2024-11-08T08:00:00	7	Dirección del viento	4.83
87675	7	Sololá	701	Sololá	4	Finca Santa Victoria	2	Febrero	2023-03-02T00:00:00	2024-11-08T08:00:00	1	Precipitación	0
87676	7	Sololá	701	Sololá	4	Finca Santa Victoria	2	Febrero	2023-03-02T00:00:00	2024-11-08T08:00:00	8	Radiación solar	33
87677	7	Sololá	701	Sololá	4	Finca Santa Victoria	2	Febrero	2023-03-02T00:00:00	2024-11-08T09:00:00	2	Temperatura media	13.1
87678	7	Sololá	701	Sololá	4	Finca Santa Victoria	2	Febrero	2023-03-02T00:00:00	2024-11-08T09:00:00	4	Temperatura máxima	13.1
87679	7	Sololá	701	Sololá	4	Finca Santa Victoria	2	Febrero	2023-03-02T00:00:00	2024-11-08T09:00:00	3	Temperatura mínima	11.4
87680	7	Sololá	701	Sololá	4	Finca Santa Victoria	2	Febrero	2023-03-02T00:00:00	2024-11-08T09:00:00	5	Humedad	71
87681	7	Sololá	701	Sololá	4	Finca Santa Victoria	2	Febrero	2023-03-02T00:00:00	2024-11-08T09:00:00	6	Velocidad del viento	8
87682	7	Sololá	701	Sololá	4	Finca Santa Victoria	2	Febrero	2023-03-02T00:00:00	2024-11-08T09:00:00	7	Dirección del viento	8.05
87683	7	Sololá	701	Sololá	4	Finca Santa Victoria	2	Febrero	2023-03-02T00:00:00	2024-11-08T09:00:00	1	Precipitación	0
87684	7	Sololá	701	Sololá	4	Finca Santa Victoria	2	Febrero	2023-03-02T00:00:00	2024-11-08T09:00:00	8	Radiación solar	134
87685	7	Sololá	701	Sololá	4	Finca Santa Victoria	2	Febrero	2023-03-02T00:00:00	2024-11-08T10:00:00	2	Temperatura media	13.6
87686	7	Sololá	701	Sololá	4	Finca Santa Victoria	2	Febrero	2023-03-02T00:00:00	2024-11-08T10:00:00	4	Temperatura máxima	13.9
87687	7	Sololá	701	Sololá	4	Finca Santa Victoria	2	Febrero	2023-03-02T00:00:00	2024-11-08T10:00:00	3	Temperatura mínima	12.9
87688	7	Sololá	701	Sololá	4	Finca Santa Victoria	2	Febrero	2023-03-02T00:00:00	2024-11-08T10:00:00	5	Humedad	73
87689	7	Sololá	701	Sololá	4	Finca Santa Victoria	2	Febrero	2023-03-02T00:00:00	2024-11-08T10:00:00	6	Velocidad del viento	8
87690	7	Sololá	701	Sololá	4	Finca Santa Victoria	2	Febrero	2023-03-02T00:00:00	2024-11-08T10:00:00	7	Dirección del viento	8.05
87691	7	Sololá	701	Sololá	4	Finca Santa Victoria	2	Febrero	2023-03-02T00:00:00	2024-11-08T10:00:00	1	Precipitación	0
87692	7	Sololá	701	Sololá	4	Finca Santa Victoria	2	Febrero	2023-03-02T00:00:00	2024-11-08T10:00:00	8	Radiación solar	301
87693	7	Sololá	701	Sololá	4	Finca Santa Victoria	2	Febrero	2023-03-02T00:00:00	2024-11-08T11:00:00	2	Temperatura media	14.3
87694	7	Sololá	701	Sololá	4	Finca Santa Victoria	2	Febrero	2023-03-02T00:00:00	2024-11-08T11:00:00	4	Temperatura máxima	15.3
87695	7	Sololá	701	Sololá	4	Finca Santa Victoria	2	Febrero	2023-03-02T00:00:00	2024-11-08T11:00:00	3	Temperatura mínima	13.6
87696	7	Sololá	701	Sololá	4	Finca Santa Victoria	2	Febrero	2023-03-02T00:00:00	2024-11-08T11:00:00	5	Humedad	74
87697	7	Sololá	701	Sololá	4	Finca Santa Victoria	2	Febrero	2023-03-02T00:00:00	2024-11-08T11:00:00	6	Velocidad del viento	6.4
87698	7	Sololá	701	Sololá	4	Finca Santa Victoria	2	Febrero	2023-03-02T00:00:00	2024-11-08T11:00:00	7	Dirección del viento	6.44
87699	7	Sololá	701	Sololá	4	Finca Santa Victoria	2	Febrero	2023-03-02T00:00:00	2024-11-08T11:00:00	1	Precipitación	0
87700	7	Sololá	701	Sololá	4	Finca Santa Victoria	2	Febrero	2023-03-02T00:00:00	2024-11-08T11:00:00	8	Radiación solar	753
87701	7	Sololá	701	Sololá	4	Finca Santa Victoria	2	Febrero	2023-03-02T00:00:00	2024-11-08T12:00:00	2	Temperatura media	12.8
87702	7	Sololá	701	Sololá	4	Finca Santa Victoria	2	Febrero	2023-03-02T00:00:00	2024-11-08T12:00:00	4	Temperatura máxima	14.3
87703	7	Sololá	701	Sololá	4	Finca Santa Victoria	2	Febrero	2023-03-02T00:00:00	2024-11-08T12:00:00	3	Temperatura mínima	12.8
87704	7	Sololá	701	Sololá	4	Finca Santa Victoria	2	Febrero	2023-03-02T00:00:00	2024-11-08T12:00:00	5	Humedad	82
87705	7	Sololá	701	Sololá	4	Finca Santa Victoria	2	Febrero	2023-03-02T00:00:00	2024-11-08T12:00:00	6	Velocidad del viento	6.4
87706	7	Sololá	701	Sololá	4	Finca Santa Victoria	2	Febrero	2023-03-02T00:00:00	2024-11-08T12:00:00	7	Dirección del viento	6.44
87707	7	Sololá	701	Sololá	4	Finca Santa Victoria	2	Febrero	2023-03-02T00:00:00	2024-11-08T12:00:00	1	Precipitación	0
87708	7	Sololá	701	Sololá	4	Finca Santa Victoria	2	Febrero	2023-03-02T00:00:00	2024-11-08T12:00:00	8	Radiación solar	223
87709	7	Sololá	701	Sololá	4	Finca Santa Victoria	2	Febrero	2023-03-02T00:00:00	2024-11-08T13:00:00	2	Temperatura media	11.6
87710	7	Sololá	701	Sololá	4	Finca Santa Victoria	2	Febrero	2023-03-02T00:00:00	2024-11-08T13:00:00	4	Temperatura máxima	12.8
87711	7	Sololá	701	Sololá	4	Finca Santa Victoria	2	Febrero	2023-03-02T00:00:00	2024-11-08T13:00:00	3	Temperatura mínima	11.6
87712	7	Sololá	701	Sololá	4	Finca Santa Victoria	2	Febrero	2023-03-02T00:00:00	2024-11-08T13:00:00	5	Humedad	87
87713	7	Sololá	701	Sololá	4	Finca Santa Victoria	2	Febrero	2023-03-02T00:00:00	2024-11-08T13:00:00	6	Velocidad del viento	4.8
87714	7	Sololá	701	Sololá	4	Finca Santa Victoria	2	Febrero	2023-03-02T00:00:00	2024-11-08T13:00:00	7	Dirección del viento	4.83
87715	7	Sololá	701	Sololá	4	Finca Santa Victoria	2	Febrero	2023-03-02T00:00:00	2024-11-08T13:00:00	1	Precipitación	0
87716	7	Sololá	701	Sololá	4	Finca Santa Victoria	2	Febrero	2023-03-02T00:00:00	2024-11-08T13:00:00	8	Radiación solar	96
87717	7	Sololá	701	Sololá	4	Finca Santa Victoria	2	Febrero	2023-03-02T00:00:00	2024-11-08T14:00:00	2	Temperatura media	10.9
87718	7	Sololá	701	Sololá	4	Finca Santa Victoria	2	Febrero	2023-03-02T00:00:00	2024-11-08T14:00:00	4	Temperatura máxima	11.7
87719	7	Sololá	701	Sololá	4	Finca Santa Victoria	2	Febrero	2023-03-02T00:00:00	2024-11-08T14:00:00	3	Temperatura mínima	10.9
87720	7	Sololá	701	Sololá	4	Finca Santa Victoria	2	Febrero	2023-03-02T00:00:00	2024-11-08T14:00:00	5	Humedad	89
87721	7	Sololá	701	Sololá	4	Finca Santa Victoria	2	Febrero	2023-03-02T00:00:00	2024-11-08T14:00:00	6	Velocidad del viento	4.8
87722	7	Sololá	701	Sololá	4	Finca Santa Victoria	2	Febrero	2023-03-02T00:00:00	2024-11-08T14:00:00	7	Dirección del viento	4.83
87723	7	Sololá	701	Sololá	4	Finca Santa Victoria	2	Febrero	2023-03-02T00:00:00	2024-11-08T14:00:00	1	Precipitación	0
87724	7	Sololá	701	Sololá	4	Finca Santa Victoria	2	Febrero	2023-03-02T00:00:00	2024-11-08T14:00:00	8	Radiación solar	56
87725	7	Sololá	701	Sololá	4	Finca Santa Victoria	2	Febrero	2023-03-02T00:00:00	2024-11-08T15:00:00	2	Temperatura media	10.9
87726	7	Sololá	701	Sololá	4	Finca Santa Victoria	2	Febrero	2023-03-02T00:00:00	2024-11-08T15:00:00	4	Temperatura máxima	11.1
87727	7	Sololá	701	Sololá	4	Finca Santa Victoria	2	Febrero	2023-03-02T00:00:00	2024-11-08T15:00:00	3	Temperatura mínima	10.8
87728	7	Sololá	701	Sololá	4	Finca Santa Victoria	2	Febrero	2023-03-02T00:00:00	2024-11-08T15:00:00	5	Humedad	86
87729	7	Sololá	701	Sololá	4	Finca Santa Victoria	2	Febrero	2023-03-02T00:00:00	2024-11-08T15:00:00	6	Velocidad del viento	4.8
87730	7	Sololá	701	Sololá	4	Finca Santa Victoria	2	Febrero	2023-03-02T00:00:00	2024-11-08T15:00:00	7	Dirección del viento	4.83
87731	7	Sololá	701	Sololá	4	Finca Santa Victoria	2	Febrero	2023-03-02T00:00:00	2024-11-08T15:00:00	1	Precipitación	0
87732	7	Sololá	701	Sololá	4	Finca Santa Victoria	2	Febrero	2023-03-02T00:00:00	2024-11-08T15:00:00	8	Radiación solar	40
87733	7	Sololá	701	Sololá	4	Finca Santa Victoria	2	Febrero	2023-03-02T00:00:00	2024-11-08T16:00:00	2	Temperatura media	10.7
87734	7	Sololá	701	Sololá	4	Finca Santa Victoria	2	Febrero	2023-03-02T00:00:00	2024-11-08T16:00:00	4	Temperatura máxima	10.9
87735	7	Sololá	701	Sololá	4	Finca Santa Victoria	2	Febrero	2023-03-02T00:00:00	2024-11-08T16:00:00	3	Temperatura mínima	10.6
87736	7	Sololá	701	Sololá	4	Finca Santa Victoria	2	Febrero	2023-03-02T00:00:00	2024-11-08T16:00:00	5	Humedad	85
87737	7	Sololá	701	Sololá	4	Finca Santa Victoria	2	Febrero	2023-03-02T00:00:00	2024-11-08T16:00:00	6	Velocidad del viento	4.8
87738	7	Sololá	701	Sololá	4	Finca Santa Victoria	2	Febrero	2023-03-02T00:00:00	2024-11-08T16:00:00	7	Dirección del viento	4.83
87739	7	Sololá	701	Sololá	4	Finca Santa Victoria	2	Febrero	2023-03-02T00:00:00	2024-11-08T16:00:00	1	Precipitación	0
87740	7	Sololá	701	Sololá	4	Finca Santa Victoria	2	Febrero	2023-03-02T00:00:00	2024-11-08T16:00:00	8	Radiación solar	38
87741	7	Sololá	701	Sololá	4	Finca Santa Victoria	2	Febrero	2023-03-02T00:00:00	2024-11-08T17:00:00	2	Temperatura media	11.1
87742	7	Sololá	701	Sololá	4	Finca Santa Victoria	2	Febrero	2023-03-02T00:00:00	2024-11-08T17:00:00	4	Temperatura máxima	11.3
87743	7	Sololá	701	Sololá	4	Finca Santa Victoria	2	Febrero	2023-03-02T00:00:00	2024-11-08T17:00:00	3	Temperatura mínima	10.7
87744	7	Sololá	701	Sololá	4	Finca Santa Victoria	2	Febrero	2023-03-02T00:00:00	2024-11-08T17:00:00	5	Humedad	81
87745	7	Sololá	701	Sololá	4	Finca Santa Victoria	2	Febrero	2023-03-02T00:00:00	2024-11-08T17:00:00	6	Velocidad del viento	4.8
87746	7	Sololá	701	Sololá	4	Finca Santa Victoria	2	Febrero	2023-03-02T00:00:00	2024-11-08T17:00:00	7	Dirección del viento	4.83
87747	7	Sololá	701	Sololá	4	Finca Santa Victoria	2	Febrero	2023-03-02T00:00:00	2024-11-08T17:00:00	1	Precipitación	0
87748	7	Sololá	701	Sololá	4	Finca Santa Victoria	2	Febrero	2023-03-02T00:00:00	2024-11-08T17:00:00	8	Radiación solar	49
87749	7	Sololá	701	Sololá	4	Finca Santa Victoria	2	Febrero	2023-03-02T00:00:00	2024-11-08T18:00:00	2	Temperatura media	10.4
87750	7	Sololá	701	Sololá	4	Finca Santa Victoria	2	Febrero	2023-03-02T00:00:00	2024-11-08T18:00:00	4	Temperatura máxima	11.1
87751	7	Sololá	701	Sololá	4	Finca Santa Victoria	2	Febrero	2023-03-02T00:00:00	2024-11-08T18:00:00	3	Temperatura mínima	10.4
87752	7	Sololá	701	Sololá	4	Finca Santa Victoria	2	Febrero	2023-03-02T00:00:00	2024-11-08T18:00:00	5	Humedad	86
87753	7	Sololá	701	Sololá	4	Finca Santa Victoria	2	Febrero	2023-03-02T00:00:00	2024-11-08T18:00:00	6	Velocidad del viento	6.4
87754	7	Sololá	701	Sololá	4	Finca Santa Victoria	2	Febrero	2023-03-02T00:00:00	2024-11-08T18:00:00	7	Dirección del viento	6.44
87755	7	Sololá	701	Sololá	4	Finca Santa Victoria	2	Febrero	2023-03-02T00:00:00	2024-11-08T18:00:00	1	Precipitación	0
87756	7	Sololá	701	Sololá	4	Finca Santa Victoria	2	Febrero	2023-03-02T00:00:00	2024-11-08T18:00:00	8	Radiación solar	16
87757	7	Sololá	701	Sololá	4	Finca Santa Victoria	2	Febrero	2023-03-02T00:00:00	2024-11-08T19:00:00	2	Temperatura media	10.1
87758	7	Sololá	701	Sololá	4	Finca Santa Victoria	2	Febrero	2023-03-02T00:00:00	2024-11-08T19:00:00	4	Temperatura máxima	10.4
87759	7	Sololá	701	Sololá	4	Finca Santa Victoria	2	Febrero	2023-03-02T00:00:00	2024-11-08T19:00:00	3	Temperatura mínima	10.1
87760	7	Sololá	701	Sololá	4	Finca Santa Victoria	2	Febrero	2023-03-02T00:00:00	2024-11-08T19:00:00	5	Humedad	86
87761	7	Sololá	701	Sololá	4	Finca Santa Victoria	2	Febrero	2023-03-02T00:00:00	2024-11-08T19:00:00	6	Velocidad del viento	8
87762	7	Sololá	701	Sololá	4	Finca Santa Victoria	2	Febrero	2023-03-02T00:00:00	2024-11-08T19:00:00	7	Dirección del viento	8.05
87763	7	Sololá	701	Sololá	4	Finca Santa Victoria	2	Febrero	2023-03-02T00:00:00	2024-11-08T19:00:00	1	Precipitación	0
87764	7	Sololá	701	Sololá	4	Finca Santa Victoria	2	Febrero	2023-03-02T00:00:00	2024-11-08T19:00:00	8	Radiación solar	0
87765	7	Sololá	701	Sololá	4	Finca Santa Victoria	2	Febrero	2023-03-02T00:00:00	2024-11-08T20:00:00	2	Temperatura media	10.1
87766	7	Sololá	701	Sololá	4	Finca Santa Victoria	2	Febrero	2023-03-02T00:00:00	2024-11-08T20:00:00	4	Temperatura máxima	10.2
87767	7	Sololá	701	Sololá	4	Finca Santa Victoria	2	Febrero	2023-03-02T00:00:00	2024-11-08T20:00:00	3	Temperatura mínima	9.9
87768	7	Sololá	701	Sololá	4	Finca Santa Victoria	2	Febrero	2023-03-02T00:00:00	2024-11-08T20:00:00	5	Humedad	86
87769	7	Sololá	701	Sololá	4	Finca Santa Victoria	2	Febrero	2023-03-02T00:00:00	2024-11-08T20:00:00	6	Velocidad del viento	8
87770	7	Sololá	701	Sololá	4	Finca Santa Victoria	2	Febrero	2023-03-02T00:00:00	2024-11-08T20:00:00	7	Dirección del viento	8.05
87771	7	Sololá	701	Sololá	4	Finca Santa Victoria	2	Febrero	2023-03-02T00:00:00	2024-11-08T20:00:00	1	Precipitación	0
87772	7	Sololá	701	Sololá	4	Finca Santa Victoria	2	Febrero	2023-03-02T00:00:00	2024-11-08T20:00:00	8	Radiación solar	0
87773	7	Sololá	701	Sololá	4	Finca Santa Victoria	2	Febrero	2023-03-02T00:00:00	2024-11-08T21:00:00	2	Temperatura media	10.2
87774	7	Sololá	701	Sololá	4	Finca Santa Victoria	2	Febrero	2023-03-02T00:00:00	2024-11-08T21:00:00	4	Temperatura máxima	10.2
87775	7	Sololá	701	Sololá	4	Finca Santa Victoria	2	Febrero	2023-03-02T00:00:00	2024-11-08T21:00:00	3	Temperatura mínima	9.9
87776	7	Sololá	701	Sololá	4	Finca Santa Victoria	2	Febrero	2023-03-02T00:00:00	2024-11-08T21:00:00	5	Humedad	86
87777	7	Sololá	701	Sololá	4	Finca Santa Victoria	2	Febrero	2023-03-02T00:00:00	2024-11-08T21:00:00	6	Velocidad del viento	8
87778	7	Sololá	701	Sololá	4	Finca Santa Victoria	2	Febrero	2023-03-02T00:00:00	2024-11-08T21:00:00	7	Dirección del viento	8.05
87779	7	Sololá	701	Sololá	4	Finca Santa Victoria	2	Febrero	2023-03-02T00:00:00	2024-11-08T21:00:00	1	Precipitación	0
87780	7	Sololá	701	Sololá	4	Finca Santa Victoria	2	Febrero	2023-03-02T00:00:00	2024-11-08T21:00:00	8	Radiación solar	0
87781	7	Sololá	701	Sololá	4	Finca Santa Victoria	2	Febrero	2023-03-02T00:00:00	2024-11-08T22:00:00	2	Temperatura media	9.9
87782	7	Sololá	701	Sololá	4	Finca Santa Victoria	2	Febrero	2023-03-02T00:00:00	2024-11-08T22:00:00	4	Temperatura máxima	10.2
87783	7	Sololá	701	Sololá	4	Finca Santa Victoria	2	Febrero	2023-03-02T00:00:00	2024-11-08T22:00:00	3	Temperatura mínima	9.9
87784	7	Sololá	701	Sololá	4	Finca Santa Victoria	2	Febrero	2023-03-02T00:00:00	2024-11-08T22:00:00	5	Humedad	89
87785	7	Sololá	701	Sololá	4	Finca Santa Victoria	2	Febrero	2023-03-02T00:00:00	2024-11-08T22:00:00	6	Velocidad del viento	6.4
87786	7	Sololá	701	Sololá	4	Finca Santa Victoria	2	Febrero	2023-03-02T00:00:00	2024-11-08T22:00:00	7	Dirección del viento	6.44
87787	7	Sololá	701	Sololá	4	Finca Santa Victoria	2	Febrero	2023-03-02T00:00:00	2024-11-08T22:00:00	1	Precipitación	0
87788	7	Sololá	701	Sololá	4	Finca Santa Victoria	2	Febrero	2023-03-02T00:00:00	2024-11-08T22:00:00	8	Radiación solar	0
87789	7	Sololá	701	Sololá	4	Finca Santa Victoria	2	Febrero	2023-03-02T00:00:00	2024-11-08T23:00:00	2	Temperatura media	9.8
87790	7	Sololá	701	Sololá	4	Finca Santa Victoria	2	Febrero	2023-03-02T00:00:00	2024-11-08T23:00:00	4	Temperatura máxima	9.9
87791	7	Sololá	701	Sololá	4	Finca Santa Victoria	2	Febrero	2023-03-02T00:00:00	2024-11-08T23:00:00	3	Temperatura mínima	9.7
87792	7	Sololá	701	Sololá	4	Finca Santa Victoria	2	Febrero	2023-03-02T00:00:00	2024-11-08T23:00:00	5	Humedad	92
87793	7	Sololá	701	Sololá	4	Finca Santa Victoria	2	Febrero	2023-03-02T00:00:00	2024-11-08T23:00:00	6	Velocidad del viento	8
87794	7	Sololá	701	Sololá	4	Finca Santa Victoria	2	Febrero	2023-03-02T00:00:00	2024-11-08T23:00:00	7	Dirección del viento	8.05
87795	7	Sololá	701	Sololá	4	Finca Santa Victoria	2	Febrero	2023-03-02T00:00:00	2024-11-08T23:00:00	1	Precipitación	0
87796	7	Sololá	701	Sololá	4	Finca Santa Victoria	2	Febrero	2023-03-02T00:00:00	2024-11-08T23:00:00	8	Radiación solar	0
87797	7	Sololá	701	Sololá	4	Finca Santa Victoria	2	Febrero	2023-04-02T00:00:00	2024-11-08T00:00:00	2	Temperatura media	10.4
87798	7	Sololá	701	Sololá	4	Finca Santa Victoria	2	Febrero	2023-04-02T00:00:00	2024-11-08T00:00:00	4	Temperatura máxima	10.4
87799	7	Sololá	701	Sololá	4	Finca Santa Victoria	2	Febrero	2023-04-02T00:00:00	2024-11-08T00:00:00	3	Temperatura mínima	9.8
87800	7	Sololá	701	Sololá	4	Finca Santa Victoria	2	Febrero	2023-04-02T00:00:00	2024-11-08T00:00:00	5	Humedad	92
87801	7	Sololá	701	Sololá	4	Finca Santa Victoria	2	Febrero	2023-04-02T00:00:00	2024-11-08T00:00:00	6	Velocidad del viento	6.4
87802	7	Sololá	701	Sololá	4	Finca Santa Victoria	2	Febrero	2023-04-02T00:00:00	2024-11-08T00:00:00	7	Dirección del viento	6.44
87803	7	Sololá	701	Sololá	4	Finca Santa Victoria	2	Febrero	2023-04-02T00:00:00	2024-11-08T00:00:00	1	Precipitación	0
87804	7	Sololá	701	Sololá	4	Finca Santa Victoria	2	Febrero	2023-04-02T00:00:00	2024-11-08T00:00:00	8	Radiación solar	0
87805	7	Sololá	701	Sololá	4	Finca Santa Victoria	2	Febrero	2023-04-02T00:00:00	2024-11-08T01:00:00	2	Temperatura media	10.6
87806	7	Sololá	701	Sololá	4	Finca Santa Victoria	2	Febrero	2023-04-02T00:00:00	2024-11-08T01:00:00	4	Temperatura máxima	10.6
87807	7	Sololá	701	Sololá	4	Finca Santa Victoria	2	Febrero	2023-04-02T00:00:00	2024-11-08T01:00:00	3	Temperatura mínima	10.3
87808	7	Sololá	701	Sololá	4	Finca Santa Victoria	2	Febrero	2023-04-02T00:00:00	2024-11-08T01:00:00	5	Humedad	91
87809	7	Sololá	701	Sololá	4	Finca Santa Victoria	2	Febrero	2023-04-02T00:00:00	2024-11-08T01:00:00	6	Velocidad del viento	9.7
87810	7	Sololá	701	Sololá	4	Finca Santa Victoria	2	Febrero	2023-04-02T00:00:00	2024-11-08T01:00:00	7	Dirección del viento	9.66
87811	7	Sololá	701	Sololá	4	Finca Santa Victoria	2	Febrero	2023-04-02T00:00:00	2024-11-08T01:00:00	1	Precipitación	0
87812	7	Sololá	701	Sololá	4	Finca Santa Victoria	2	Febrero	2023-04-02T00:00:00	2024-11-08T01:00:00	8	Radiación solar	0
87813	7	Sololá	701	Sololá	4	Finca Santa Victoria	2	Febrero	2023-04-02T00:00:00	2024-11-08T02:00:00	2	Temperatura media	10.3
87814	7	Sololá	701	Sololá	4	Finca Santa Victoria	2	Febrero	2023-04-02T00:00:00	2024-11-08T02:00:00	4	Temperatura máxima	10.7
87815	7	Sololá	701	Sololá	4	Finca Santa Victoria	2	Febrero	2023-04-02T00:00:00	2024-11-08T02:00:00	3	Temperatura mínima	10.3
87816	7	Sololá	701	Sololá	4	Finca Santa Victoria	2	Febrero	2023-04-02T00:00:00	2024-11-08T02:00:00	5	Humedad	93
87817	7	Sololá	701	Sololá	4	Finca Santa Victoria	2	Febrero	2023-04-02T00:00:00	2024-11-08T02:00:00	6	Velocidad del viento	8
87818	7	Sololá	701	Sololá	4	Finca Santa Victoria	2	Febrero	2023-04-02T00:00:00	2024-11-08T02:00:00	7	Dirección del viento	8.05
87819	7	Sololá	701	Sololá	4	Finca Santa Victoria	2	Febrero	2023-04-02T00:00:00	2024-11-08T02:00:00	1	Precipitación	0
87820	7	Sololá	701	Sololá	4	Finca Santa Victoria	2	Febrero	2023-04-02T00:00:00	2024-11-08T02:00:00	8	Radiación solar	0
87821	7	Sololá	701	Sololá	4	Finca Santa Victoria	2	Febrero	2023-04-02T00:00:00	2024-11-08T03:00:00	2	Temperatura media	10.2
87822	7	Sololá	701	Sololá	4	Finca Santa Victoria	2	Febrero	2023-04-02T00:00:00	2024-11-08T03:00:00	4	Temperatura máxima	10.4
87823	7	Sololá	701	Sololá	4	Finca Santa Victoria	2	Febrero	2023-04-02T00:00:00	2024-11-08T03:00:00	3	Temperatura mínima	10.2
87824	7	Sololá	701	Sololá	4	Finca Santa Victoria	2	Febrero	2023-04-02T00:00:00	2024-11-08T03:00:00	5	Humedad	93
87825	7	Sololá	701	Sololá	4	Finca Santa Victoria	2	Febrero	2023-04-02T00:00:00	2024-11-08T03:00:00	6	Velocidad del viento	6.4
87826	7	Sololá	701	Sololá	4	Finca Santa Victoria	2	Febrero	2023-04-02T00:00:00	2024-11-08T03:00:00	7	Dirección del viento	6.44
87827	7	Sololá	701	Sololá	4	Finca Santa Victoria	2	Febrero	2023-04-02T00:00:00	2024-11-08T03:00:00	1	Precipitación	0
87828	7	Sololá	701	Sololá	4	Finca Santa Victoria	2	Febrero	2023-04-02T00:00:00	2024-11-08T03:00:00	8	Radiación solar	0
87829	7	Sololá	701	Sololá	4	Finca Santa Victoria	2	Febrero	2023-04-02T00:00:00	2024-11-08T04:00:00	2	Temperatura media	10.2
87830	7	Sololá	701	Sololá	4	Finca Santa Victoria	2	Febrero	2023-04-02T00:00:00	2024-11-08T04:00:00	4	Temperatura máxima	10.3
87831	7	Sololá	701	Sololá	4	Finca Santa Victoria	2	Febrero	2023-04-02T00:00:00	2024-11-08T04:00:00	3	Temperatura mínima	10.1
87832	7	Sololá	701	Sololá	4	Finca Santa Victoria	2	Febrero	2023-04-02T00:00:00	2024-11-08T04:00:00	5	Humedad	93
87833	7	Sololá	701	Sololá	4	Finca Santa Victoria	2	Febrero	2023-04-02T00:00:00	2024-11-08T04:00:00	6	Velocidad del viento	6.4
87834	7	Sololá	701	Sololá	4	Finca Santa Victoria	2	Febrero	2023-04-02T00:00:00	2024-11-08T04:00:00	7	Dirección del viento	6.44
87835	7	Sololá	701	Sololá	4	Finca Santa Victoria	2	Febrero	2023-04-02T00:00:00	2024-11-08T04:00:00	1	Precipitación	0
87836	7	Sololá	701	Sololá	4	Finca Santa Victoria	2	Febrero	2023-04-02T00:00:00	2024-11-08T04:00:00	8	Radiación solar	0
87837	7	Sololá	701	Sololá	4	Finca Santa Victoria	2	Febrero	2023-04-02T00:00:00	2024-11-08T05:00:00	2	Temperatura media	9.9
87838	7	Sololá	701	Sololá	4	Finca Santa Victoria	2	Febrero	2023-04-02T00:00:00	2024-11-08T05:00:00	4	Temperatura máxima	10.2
87839	7	Sololá	701	Sololá	4	Finca Santa Victoria	2	Febrero	2023-04-02T00:00:00	2024-11-08T05:00:00	3	Temperatura mínima	9.9
87840	7	Sololá	701	Sololá	4	Finca Santa Victoria	2	Febrero	2023-04-02T00:00:00	2024-11-08T05:00:00	5	Humedad	94
87841	7	Sololá	701	Sololá	4	Finca Santa Victoria	2	Febrero	2023-04-02T00:00:00	2024-11-08T05:00:00	6	Velocidad del viento	8
87842	7	Sololá	701	Sololá	4	Finca Santa Victoria	2	Febrero	2023-04-02T00:00:00	2024-11-08T05:00:00	7	Dirección del viento	8.05
87843	7	Sololá	701	Sololá	4	Finca Santa Victoria	2	Febrero	2023-04-02T00:00:00	2024-11-08T05:00:00	1	Precipitación	0
87844	7	Sololá	701	Sololá	4	Finca Santa Victoria	2	Febrero	2023-04-02T00:00:00	2024-11-08T05:00:00	8	Radiación solar	0
87845	7	Sololá	701	Sololá	4	Finca Santa Victoria	2	Febrero	2023-04-02T00:00:00	2024-11-08T06:00:00	2	Temperatura media	9.9
87846	7	Sololá	701	Sololá	4	Finca Santa Victoria	2	Febrero	2023-04-02T00:00:00	2024-11-08T06:00:00	4	Temperatura máxima	10
87847	7	Sololá	701	Sololá	4	Finca Santa Victoria	2	Febrero	2023-04-02T00:00:00	2024-11-08T06:00:00	3	Temperatura mínima	9.8
87848	7	Sololá	701	Sololá	4	Finca Santa Victoria	2	Febrero	2023-04-02T00:00:00	2024-11-08T06:00:00	5	Humedad	93
87849	7	Sololá	701	Sololá	4	Finca Santa Victoria	2	Febrero	2023-04-02T00:00:00	2024-11-08T06:00:00	6	Velocidad del viento	6.4
87850	7	Sololá	701	Sololá	4	Finca Santa Victoria	2	Febrero	2023-04-02T00:00:00	2024-11-08T06:00:00	7	Dirección del viento	6.44
87851	7	Sololá	701	Sololá	4	Finca Santa Victoria	2	Febrero	2023-04-02T00:00:00	2024-11-08T06:00:00	1	Precipitación	0
87852	7	Sololá	701	Sololá	4	Finca Santa Victoria	2	Febrero	2023-04-02T00:00:00	2024-11-08T06:00:00	8	Radiación solar	0
87853	7	Sololá	701	Sololá	4	Finca Santa Victoria	2	Febrero	2023-04-02T00:00:00	2024-11-08T07:00:00	2	Temperatura media	9.9
87854	7	Sololá	701	Sololá	4	Finca Santa Victoria	2	Febrero	2023-04-02T00:00:00	2024-11-08T07:00:00	4	Temperatura máxima	10.1
87855	7	Sololá	701	Sololá	4	Finca Santa Victoria	2	Febrero	2023-04-02T00:00:00	2024-11-08T07:00:00	3	Temperatura mínima	9.9
87856	7	Sololá	701	Sololá	4	Finca Santa Victoria	2	Febrero	2023-04-02T00:00:00	2024-11-08T07:00:00	5	Humedad	93
87857	7	Sololá	701	Sololá	4	Finca Santa Victoria	2	Febrero	2023-04-02T00:00:00	2024-11-08T07:00:00	6	Velocidad del viento	4.8
87858	7	Sololá	701	Sololá	4	Finca Santa Victoria	2	Febrero	2023-04-02T00:00:00	2024-11-08T07:00:00	7	Dirección del viento	4.83
87859	7	Sololá	701	Sololá	4	Finca Santa Victoria	2	Febrero	2023-04-02T00:00:00	2024-11-08T07:00:00	1	Precipitación	0
87860	7	Sololá	701	Sololá	4	Finca Santa Victoria	2	Febrero	2023-04-02T00:00:00	2024-11-08T07:00:00	8	Radiación solar	2
87861	7	Sololá	701	Sololá	4	Finca Santa Victoria	2	Febrero	2023-04-02T00:00:00	2024-11-08T08:00:00	2	Temperatura media	9.7
87862	7	Sololá	701	Sololá	4	Finca Santa Victoria	2	Febrero	2023-04-02T00:00:00	2024-11-08T08:00:00	4	Temperatura máxima	10
87863	7	Sololá	701	Sololá	4	Finca Santa Victoria	2	Febrero	2023-04-02T00:00:00	2024-11-08T08:00:00	3	Temperatura mínima	9.6
87864	7	Sololá	701	Sololá	4	Finca Santa Victoria	2	Febrero	2023-04-02T00:00:00	2024-11-08T08:00:00	5	Humedad	91
87865	7	Sololá	701	Sololá	4	Finca Santa Victoria	2	Febrero	2023-04-02T00:00:00	2024-11-08T08:00:00	6	Velocidad del viento	6.4
87866	7	Sololá	701	Sololá	4	Finca Santa Victoria	2	Febrero	2023-04-02T00:00:00	2024-11-08T08:00:00	7	Dirección del viento	6.44
87867	7	Sololá	701	Sololá	4	Finca Santa Victoria	2	Febrero	2023-04-02T00:00:00	2024-11-08T08:00:00	1	Precipitación	0
87868	7	Sololá	701	Sololá	4	Finca Santa Victoria	2	Febrero	2023-04-02T00:00:00	2024-11-08T08:00:00	8	Radiación solar	31
87869	7	Sololá	701	Sololá	4	Finca Santa Victoria	2	Febrero	2023-04-02T00:00:00	2024-11-08T09:00:00	2	Temperatura media	11.3
87870	7	Sololá	701	Sololá	4	Finca Santa Victoria	2	Febrero	2023-04-02T00:00:00	2024-11-08T09:00:00	4	Temperatura máxima	11.3
87871	7	Sololá	701	Sololá	4	Finca Santa Victoria	2	Febrero	2023-04-02T00:00:00	2024-11-08T09:00:00	3	Temperatura mínima	9.7
87872	7	Sololá	701	Sololá	4	Finca Santa Victoria	2	Febrero	2023-04-02T00:00:00	2024-11-08T09:00:00	5	Humedad	83
87873	7	Sololá	701	Sololá	4	Finca Santa Victoria	2	Febrero	2023-04-02T00:00:00	2024-11-08T09:00:00	6	Velocidad del viento	8
87874	7	Sololá	701	Sololá	4	Finca Santa Victoria	2	Febrero	2023-04-02T00:00:00	2024-11-08T09:00:00	7	Dirección del viento	8.05
87875	7	Sololá	701	Sololá	4	Finca Santa Victoria	2	Febrero	2023-04-02T00:00:00	2024-11-08T09:00:00	1	Precipitación	0
87876	7	Sololá	701	Sololá	4	Finca Santa Victoria	2	Febrero	2023-04-02T00:00:00	2024-11-08T09:00:00	8	Radiación solar	117
87877	7	Sololá	701	Sololá	4	Finca Santa Victoria	2	Febrero	2023-04-02T00:00:00	2024-11-08T10:00:00	2	Temperatura media	13.4
87878	7	Sololá	701	Sololá	4	Finca Santa Victoria	2	Febrero	2023-04-02T00:00:00	2024-11-08T10:00:00	4	Temperatura máxima	13.4
87879	7	Sololá	701	Sololá	4	Finca Santa Victoria	2	Febrero	2023-04-02T00:00:00	2024-11-08T10:00:00	3	Temperatura mínima	11.1
87880	7	Sololá	701	Sololá	4	Finca Santa Victoria	2	Febrero	2023-04-02T00:00:00	2024-11-08T10:00:00	5	Humedad	74
87881	7	Sololá	701	Sololá	4	Finca Santa Victoria	2	Febrero	2023-04-02T00:00:00	2024-11-08T10:00:00	6	Velocidad del viento	9.7
87882	7	Sololá	701	Sololá	4	Finca Santa Victoria	2	Febrero	2023-04-02T00:00:00	2024-11-08T10:00:00	7	Dirección del viento	9.66
87883	7	Sololá	701	Sololá	4	Finca Santa Victoria	2	Febrero	2023-04-02T00:00:00	2024-11-08T10:00:00	1	Precipitación	0
87884	7	Sololá	701	Sololá	4	Finca Santa Victoria	2	Febrero	2023-04-02T00:00:00	2024-11-08T10:00:00	8	Radiación solar	308
87885	7	Sololá	701	Sololá	4	Finca Santa Victoria	2	Febrero	2023-04-02T00:00:00	2024-11-08T11:00:00	2	Temperatura media	14.2
87886	7	Sololá	701	Sololá	4	Finca Santa Victoria	2	Febrero	2023-04-02T00:00:00	2024-11-08T11:00:00	4	Temperatura máxima	14.4
87887	7	Sololá	701	Sololá	4	Finca Santa Victoria	2	Febrero	2023-04-02T00:00:00	2024-11-08T11:00:00	3	Temperatura mínima	13.4
87888	7	Sololá	701	Sololá	4	Finca Santa Victoria	2	Febrero	2023-04-02T00:00:00	2024-11-08T11:00:00	5	Humedad	76
87889	7	Sololá	701	Sololá	4	Finca Santa Victoria	2	Febrero	2023-04-02T00:00:00	2024-11-08T11:00:00	6	Velocidad del viento	6.4
87890	7	Sololá	701	Sololá	4	Finca Santa Victoria	2	Febrero	2023-04-02T00:00:00	2024-11-08T11:00:00	7	Dirección del viento	6.44
87891	7	Sololá	701	Sololá	4	Finca Santa Victoria	2	Febrero	2023-04-02T00:00:00	2024-11-08T11:00:00	1	Precipitación	0
87892	7	Sololá	701	Sololá	4	Finca Santa Victoria	2	Febrero	2023-04-02T00:00:00	2024-11-08T11:00:00	8	Radiación solar	650
87893	7	Sololá	701	Sololá	4	Finca Santa Victoria	2	Febrero	2023-04-02T00:00:00	2024-11-08T12:00:00	2	Temperatura media	15.7
87894	7	Sololá	701	Sololá	4	Finca Santa Victoria	2	Febrero	2023-04-02T00:00:00	2024-11-08T12:00:00	4	Temperatura máxima	16.3
87895	7	Sololá	701	Sololá	4	Finca Santa Victoria	2	Febrero	2023-04-02T00:00:00	2024-11-08T12:00:00	3	Temperatura mínima	13.9
87896	7	Sololá	701	Sololá	4	Finca Santa Victoria	2	Febrero	2023-04-02T00:00:00	2024-11-08T12:00:00	5	Humedad	73
87897	7	Sololá	701	Sololá	4	Finca Santa Victoria	2	Febrero	2023-04-02T00:00:00	2024-11-08T12:00:00	6	Velocidad del viento	6.4
87898	7	Sololá	701	Sololá	4	Finca Santa Victoria	2	Febrero	2023-04-02T00:00:00	2024-11-08T12:00:00	7	Dirección del viento	6.44
87899	7	Sololá	701	Sololá	4	Finca Santa Victoria	2	Febrero	2023-04-02T00:00:00	2024-11-08T12:00:00	1	Precipitación	0
87900	7	Sololá	701	Sololá	4	Finca Santa Victoria	2	Febrero	2023-04-02T00:00:00	2024-11-08T12:00:00	8	Radiación solar	647
87901	7	Sololá	701	Sololá	4	Finca Santa Victoria	2	Febrero	2023-04-02T00:00:00	2024-11-08T13:00:00	2	Temperatura media	16.5
87902	7	Sololá	701	Sololá	4	Finca Santa Victoria	2	Febrero	2023-04-02T00:00:00	2024-11-08T13:00:00	4	Temperatura máxima	17.1
87903	7	Sololá	701	Sololá	4	Finca Santa Victoria	2	Febrero	2023-04-02T00:00:00	2024-11-08T13:00:00	3	Temperatura mínima	15.7
87904	7	Sololá	701	Sololá	4	Finca Santa Victoria	2	Febrero	2023-04-02T00:00:00	2024-11-08T13:00:00	5	Humedad	71
87905	7	Sololá	701	Sololá	4	Finca Santa Victoria	2	Febrero	2023-04-02T00:00:00	2024-11-08T13:00:00	6	Velocidad del viento	8
87906	7	Sololá	701	Sololá	4	Finca Santa Victoria	2	Febrero	2023-04-02T00:00:00	2024-11-08T13:00:00	7	Dirección del viento	8.05
87907	7	Sololá	701	Sololá	4	Finca Santa Victoria	2	Febrero	2023-04-02T00:00:00	2024-11-08T13:00:00	1	Precipitación	0
87908	7	Sololá	701	Sololá	4	Finca Santa Victoria	2	Febrero	2023-04-02T00:00:00	2024-11-08T13:00:00	8	Radiación solar	947
87909	7	Sololá	701	Sololá	4	Finca Santa Victoria	2	Febrero	2023-04-02T00:00:00	2024-11-08T14:00:00	2	Temperatura media	17.4
87910	7	Sololá	701	Sololá	4	Finca Santa Victoria	2	Febrero	2023-04-02T00:00:00	2024-11-08T14:00:00	4	Temperatura máxima	17.6
87911	7	Sololá	701	Sololá	4	Finca Santa Victoria	2	Febrero	2023-04-02T00:00:00	2024-11-08T14:00:00	3	Temperatura mínima	16.5
87912	7	Sololá	701	Sololá	4	Finca Santa Victoria	2	Febrero	2023-04-02T00:00:00	2024-11-08T14:00:00	5	Humedad	66
87913	7	Sololá	701	Sololá	4	Finca Santa Victoria	2	Febrero	2023-04-02T00:00:00	2024-11-08T14:00:00	6	Velocidad del viento	6.4
87914	7	Sololá	701	Sololá	4	Finca Santa Victoria	2	Febrero	2023-04-02T00:00:00	2024-11-08T14:00:00	7	Dirección del viento	6.44
87915	7	Sololá	701	Sololá	4	Finca Santa Victoria	2	Febrero	2023-04-02T00:00:00	2024-11-08T14:00:00	1	Precipitación	0
87916	7	Sololá	701	Sololá	4	Finca Santa Victoria	2	Febrero	2023-04-02T00:00:00	2024-11-08T14:00:00	8	Radiación solar	882
87917	7	Sololá	701	Sololá	4	Finca Santa Victoria	2	Febrero	2023-04-02T00:00:00	2024-11-08T15:00:00	2	Temperatura media	17.7
87918	7	Sololá	701	Sololá	4	Finca Santa Victoria	2	Febrero	2023-04-02T00:00:00	2024-11-08T15:00:00	4	Temperatura máxima	17.7
87919	7	Sololá	701	Sololá	4	Finca Santa Victoria	2	Febrero	2023-04-02T00:00:00	2024-11-08T15:00:00	3	Temperatura mínima	17.3
87920	7	Sololá	701	Sololá	4	Finca Santa Victoria	2	Febrero	2023-04-02T00:00:00	2024-11-08T15:00:00	5	Humedad	65
87921	7	Sololá	701	Sololá	4	Finca Santa Victoria	2	Febrero	2023-04-02T00:00:00	2024-11-08T15:00:00	6	Velocidad del viento	6.4
87922	7	Sololá	701	Sololá	4	Finca Santa Victoria	2	Febrero	2023-04-02T00:00:00	2024-11-08T15:00:00	7	Dirección del viento	6.44
87923	7	Sololá	701	Sololá	4	Finca Santa Victoria	2	Febrero	2023-04-02T00:00:00	2024-11-08T15:00:00	1	Precipitación	0
87924	7	Sololá	701	Sololá	4	Finca Santa Victoria	2	Febrero	2023-04-02T00:00:00	2024-11-08T15:00:00	8	Radiación solar	633
87925	7	Sololá	701	Sololá	4	Finca Santa Victoria	2	Febrero	2023-04-02T00:00:00	2024-11-08T16:00:00	2	Temperatura media	17
87926	7	Sololá	701	Sololá	4	Finca Santa Victoria	2	Febrero	2023-04-02T00:00:00	2024-11-08T16:00:00	4	Temperatura máxima	17.7
87927	7	Sololá	701	Sololá	4	Finca Santa Victoria	2	Febrero	2023-04-02T00:00:00	2024-11-08T16:00:00	3	Temperatura mínima	16.9
87928	7	Sololá	701	Sololá	4	Finca Santa Victoria	2	Febrero	2023-04-02T00:00:00	2024-11-08T16:00:00	5	Humedad	68
87929	7	Sololá	701	Sololá	4	Finca Santa Victoria	2	Febrero	2023-04-02T00:00:00	2024-11-08T16:00:00	6	Velocidad del viento	6.4
87930	7	Sololá	701	Sololá	4	Finca Santa Victoria	2	Febrero	2023-04-02T00:00:00	2024-11-08T16:00:00	7	Dirección del viento	6.44
87931	7	Sololá	701	Sololá	4	Finca Santa Victoria	2	Febrero	2023-04-02T00:00:00	2024-11-08T16:00:00	1	Precipitación	0
87932	7	Sololá	701	Sololá	4	Finca Santa Victoria	2	Febrero	2023-04-02T00:00:00	2024-11-08T16:00:00	8	Radiación solar	303
87933	7	Sololá	701	Sololá	4	Finca Santa Victoria	2	Febrero	2023-04-02T00:00:00	2024-11-08T17:00:00	2	Temperatura media	15.8
87934	7	Sololá	701	Sololá	4	Finca Santa Victoria	2	Febrero	2023-04-02T00:00:00	2024-11-08T17:00:00	4	Temperatura máxima	17.1
87935	7	Sololá	701	Sololá	4	Finca Santa Victoria	2	Febrero	2023-04-02T00:00:00	2024-11-08T17:00:00	3	Temperatura mínima	15.8
87936	7	Sololá	701	Sololá	4	Finca Santa Victoria	2	Febrero	2023-04-02T00:00:00	2024-11-08T17:00:00	5	Humedad	72
87937	7	Sololá	701	Sololá	4	Finca Santa Victoria	2	Febrero	2023-04-02T00:00:00	2024-11-08T17:00:00	6	Velocidad del viento	4.8
87938	7	Sololá	701	Sololá	4	Finca Santa Victoria	2	Febrero	2023-04-02T00:00:00	2024-11-08T17:00:00	7	Dirección del viento	4.83
87939	7	Sololá	701	Sololá	4	Finca Santa Victoria	2	Febrero	2023-04-02T00:00:00	2024-11-08T17:00:00	1	Precipitación	0
87940	7	Sololá	701	Sololá	4	Finca Santa Victoria	2	Febrero	2023-04-02T00:00:00	2024-11-08T17:00:00	8	Radiación solar	272
87941	7	Sololá	701	Sololá	4	Finca Santa Victoria	2	Febrero	2023-04-02T00:00:00	2024-11-08T18:00:00	2	Temperatura media	13.2
87942	7	Sololá	701	Sololá	4	Finca Santa Victoria	2	Febrero	2023-04-02T00:00:00	2024-11-08T18:00:00	4	Temperatura máxima	15.8
87943	7	Sololá	701	Sololá	4	Finca Santa Victoria	2	Febrero	2023-04-02T00:00:00	2024-11-08T18:00:00	3	Temperatura mínima	13.2
87944	7	Sololá	701	Sololá	4	Finca Santa Victoria	2	Febrero	2023-04-02T00:00:00	2024-11-08T18:00:00	5	Humedad	80
87945	7	Sololá	701	Sololá	4	Finca Santa Victoria	2	Febrero	2023-04-02T00:00:00	2024-11-08T18:00:00	6	Velocidad del viento	4.8
87946	7	Sololá	701	Sololá	4	Finca Santa Victoria	2	Febrero	2023-04-02T00:00:00	2024-11-08T18:00:00	7	Dirección del viento	4.83
87947	7	Sololá	701	Sololá	4	Finca Santa Victoria	2	Febrero	2023-04-02T00:00:00	2024-11-08T18:00:00	1	Precipitación	0
87948	7	Sololá	701	Sololá	4	Finca Santa Victoria	2	Febrero	2023-04-02T00:00:00	2024-11-08T18:00:00	8	Radiación solar	73
87949	7	Sololá	701	Sololá	4	Finca Santa Victoria	2	Febrero	2023-04-02T00:00:00	2024-11-08T19:00:00	2	Temperatura media	12.1
87950	7	Sololá	701	Sololá	4	Finca Santa Victoria	2	Febrero	2023-04-02T00:00:00	2024-11-08T19:00:00	4	Temperatura máxima	13.1
87951	7	Sololá	701	Sololá	4	Finca Santa Victoria	2	Febrero	2023-04-02T00:00:00	2024-11-08T19:00:00	3	Temperatura mínima	12.1
87952	7	Sololá	701	Sololá	4	Finca Santa Victoria	2	Febrero	2023-04-02T00:00:00	2024-11-08T19:00:00	5	Humedad	85
87953	7	Sololá	701	Sololá	4	Finca Santa Victoria	2	Febrero	2023-04-02T00:00:00	2024-11-08T19:00:00	6	Velocidad del viento	4.8
87954	7	Sololá	701	Sololá	4	Finca Santa Victoria	2	Febrero	2023-04-02T00:00:00	2024-11-08T19:00:00	7	Dirección del viento	4.83
87955	7	Sololá	701	Sololá	4	Finca Santa Victoria	2	Febrero	2023-04-02T00:00:00	2024-11-08T19:00:00	1	Precipitación	0
87956	7	Sololá	701	Sololá	4	Finca Santa Victoria	2	Febrero	2023-04-02T00:00:00	2024-11-08T19:00:00	8	Radiación solar	0
87957	7	Sololá	701	Sololá	4	Finca Santa Victoria	2	Febrero	2023-04-02T00:00:00	2024-11-08T20:00:00	2	Temperatura media	11.7
87958	7	Sololá	701	Sololá	4	Finca Santa Victoria	2	Febrero	2023-04-02T00:00:00	2024-11-08T20:00:00	4	Temperatura máxima	12.1
87959	7	Sololá	701	Sololá	4	Finca Santa Victoria	2	Febrero	2023-04-02T00:00:00	2024-11-08T20:00:00	3	Temperatura mínima	11.6
87960	7	Sololá	701	Sololá	4	Finca Santa Victoria	2	Febrero	2023-04-02T00:00:00	2024-11-08T20:00:00	5	Humedad	86
87961	7	Sololá	701	Sololá	4	Finca Santa Victoria	2	Febrero	2023-04-02T00:00:00	2024-11-08T20:00:00	6	Velocidad del viento	4.8
87962	7	Sololá	701	Sololá	4	Finca Santa Victoria	2	Febrero	2023-04-02T00:00:00	2024-11-08T20:00:00	7	Dirección del viento	4.83
87963	7	Sololá	701	Sololá	4	Finca Santa Victoria	2	Febrero	2023-04-02T00:00:00	2024-11-08T20:00:00	1	Precipitación	0
87964	7	Sololá	701	Sololá	4	Finca Santa Victoria	2	Febrero	2023-04-02T00:00:00	2024-11-08T20:00:00	8	Radiación solar	0
87965	7	Sololá	701	Sololá	4	Finca Santa Victoria	2	Febrero	2023-04-02T00:00:00	2024-11-08T21:00:00	2	Temperatura media	11.8
87966	7	Sololá	701	Sololá	4	Finca Santa Victoria	2	Febrero	2023-04-02T00:00:00	2024-11-08T21:00:00	4	Temperatura máxima	11.9
87967	7	Sololá	701	Sololá	4	Finca Santa Victoria	2	Febrero	2023-04-02T00:00:00	2024-11-08T21:00:00	3	Temperatura mínima	11.7
87968	7	Sololá	701	Sololá	4	Finca Santa Victoria	2	Febrero	2023-04-02T00:00:00	2024-11-08T21:00:00	5	Humedad	82
87969	7	Sololá	701	Sololá	4	Finca Santa Victoria	2	Febrero	2023-04-02T00:00:00	2024-11-08T21:00:00	6	Velocidad del viento	4.8
87970	7	Sololá	701	Sololá	4	Finca Santa Victoria	2	Febrero	2023-04-02T00:00:00	2024-11-08T21:00:00	7	Dirección del viento	4.83
87971	7	Sololá	701	Sololá	4	Finca Santa Victoria	2	Febrero	2023-04-02T00:00:00	2024-11-08T21:00:00	1	Precipitación	0
87972	7	Sololá	701	Sololá	4	Finca Santa Victoria	2	Febrero	2023-04-02T00:00:00	2024-11-08T21:00:00	8	Radiación solar	0
87973	7	Sololá	701	Sololá	4	Finca Santa Victoria	2	Febrero	2023-04-02T00:00:00	2024-11-08T22:00:00	2	Temperatura media	11.8
87974	7	Sololá	701	Sololá	4	Finca Santa Victoria	2	Febrero	2023-04-02T00:00:00	2024-11-08T22:00:00	4	Temperatura máxima	11.8
87975	7	Sololá	701	Sololá	4	Finca Santa Victoria	2	Febrero	2023-04-02T00:00:00	2024-11-08T22:00:00	3	Temperatura mínima	11.7
87976	7	Sololá	701	Sololá	4	Finca Santa Victoria	2	Febrero	2023-04-02T00:00:00	2024-11-08T22:00:00	5	Humedad	83
87977	7	Sololá	701	Sololá	4	Finca Santa Victoria	2	Febrero	2023-04-02T00:00:00	2024-11-08T22:00:00	6	Velocidad del viento	6.4
87978	7	Sololá	701	Sololá	4	Finca Santa Victoria	2	Febrero	2023-04-02T00:00:00	2024-11-08T22:00:00	7	Dirección del viento	6.44
87979	7	Sololá	701	Sololá	4	Finca Santa Victoria	2	Febrero	2023-04-02T00:00:00	2024-11-08T22:00:00	1	Precipitación	0
87980	7	Sololá	701	Sololá	4	Finca Santa Victoria	2	Febrero	2023-04-02T00:00:00	2024-11-08T22:00:00	8	Radiación solar	0
87981	7	Sololá	701	Sololá	4	Finca Santa Victoria	2	Febrero	2023-04-02T00:00:00	2024-11-08T23:00:00	2	Temperatura media	11.6
87982	7	Sololá	701	Sololá	4	Finca Santa Victoria	2	Febrero	2023-04-02T00:00:00	2024-11-08T23:00:00	4	Temperatura máxima	11.8
87983	7	Sololá	701	Sololá	4	Finca Santa Victoria	2	Febrero	2023-04-02T00:00:00	2024-11-08T23:00:00	3	Temperatura mínima	11.6
87984	7	Sololá	701	Sololá	4	Finca Santa Victoria	2	Febrero	2023-04-02T00:00:00	2024-11-08T23:00:00	5	Humedad	83
87985	7	Sololá	701	Sololá	4	Finca Santa Victoria	2	Febrero	2023-04-02T00:00:00	2024-11-08T23:00:00	6	Velocidad del viento	4.8
87986	7	Sololá	701	Sololá	4	Finca Santa Victoria	2	Febrero	2023-04-02T00:00:00	2024-11-08T23:00:00	7	Dirección del viento	4.83
87987	7	Sololá	701	Sololá	4	Finca Santa Victoria	2	Febrero	2023-04-02T00:00:00	2024-11-08T23:00:00	1	Precipitación	0
87988	7	Sololá	701	Sololá	4	Finca Santa Victoria	2	Febrero	2023-04-02T00:00:00	2024-11-08T23:00:00	8	Radiación solar	0
87989	7	Sololá	701	Sololá	4	Finca Santa Victoria	2	Febrero	2023-05-02T00:00:00	2024-11-08T00:00:00	2	Temperatura media	11.2
87990	7	Sololá	701	Sololá	4	Finca Santa Victoria	2	Febrero	2023-05-02T00:00:00	2024-11-08T00:00:00	4	Temperatura máxima	11.6
87991	7	Sololá	701	Sololá	4	Finca Santa Victoria	2	Febrero	2023-05-02T00:00:00	2024-11-08T00:00:00	3	Temperatura mínima	11.2
87992	7	Sololá	701	Sololá	4	Finca Santa Victoria	2	Febrero	2023-05-02T00:00:00	2024-11-08T00:00:00	5	Humedad	86
87993	7	Sololá	701	Sololá	4	Finca Santa Victoria	2	Febrero	2023-05-02T00:00:00	2024-11-08T00:00:00	6	Velocidad del viento	3.2
87994	7	Sololá	701	Sololá	4	Finca Santa Victoria	2	Febrero	2023-05-02T00:00:00	2024-11-08T00:00:00	7	Dirección del viento	3.22
87995	7	Sololá	701	Sololá	4	Finca Santa Victoria	2	Febrero	2023-05-02T00:00:00	2024-11-08T00:00:00	1	Precipitación	0
87996	7	Sololá	701	Sololá	4	Finca Santa Victoria	2	Febrero	2023-05-02T00:00:00	2024-11-08T00:00:00	8	Radiación solar	0
87997	7	Sololá	701	Sololá	4	Finca Santa Victoria	2	Febrero	2023-05-02T00:00:00	2024-11-08T01:00:00	2	Temperatura media	11.1
87998	7	Sololá	701	Sololá	4	Finca Santa Victoria	2	Febrero	2023-05-02T00:00:00	2024-11-08T01:00:00	4	Temperatura máxima	11.2
87999	7	Sololá	701	Sololá	4	Finca Santa Victoria	2	Febrero	2023-05-02T00:00:00	2024-11-08T01:00:00	3	Temperatura mínima	11.1
88000	7	Sololá	701	Sololá	4	Finca Santa Victoria	2	Febrero	2023-05-02T00:00:00	2024-11-08T01:00:00	5	Humedad	87
88001	7	Sololá	701	Sololá	4	Finca Santa Victoria	2	Febrero	2023-05-02T00:00:00	2024-11-08T01:00:00	6	Velocidad del viento	4.8
88002	7	Sololá	701	Sololá	4	Finca Santa Victoria	2	Febrero	2023-05-02T00:00:00	2024-11-08T01:00:00	7	Dirección del viento	4.83
88003	7	Sololá	701	Sololá	4	Finca Santa Victoria	2	Febrero	2023-05-02T00:00:00	2024-11-08T01:00:00	1	Precipitación	0
88004	7	Sololá	701	Sololá	4	Finca Santa Victoria	2	Febrero	2023-05-02T00:00:00	2024-11-08T01:00:00	8	Radiación solar	0
88005	7	Sololá	701	Sololá	4	Finca Santa Victoria	2	Febrero	2023-05-02T00:00:00	2024-11-08T02:00:00	2	Temperatura media	10.9
88006	7	Sololá	701	Sololá	4	Finca Santa Victoria	2	Febrero	2023-05-02T00:00:00	2024-11-08T02:00:00	4	Temperatura máxima	11.2
88007	7	Sololá	701	Sololá	4	Finca Santa Victoria	2	Febrero	2023-05-02T00:00:00	2024-11-08T02:00:00	3	Temperatura mínima	10.8
88008	7	Sololá	701	Sololá	4	Finca Santa Victoria	2	Febrero	2023-05-02T00:00:00	2024-11-08T02:00:00	5	Humedad	91
88009	7	Sololá	701	Sololá	4	Finca Santa Victoria	2	Febrero	2023-05-02T00:00:00	2024-11-08T02:00:00	6	Velocidad del viento	4.8
88010	7	Sololá	701	Sololá	4	Finca Santa Victoria	2	Febrero	2023-05-02T00:00:00	2024-11-08T02:00:00	7	Dirección del viento	4.83
88011	7	Sololá	701	Sololá	4	Finca Santa Victoria	2	Febrero	2023-05-02T00:00:00	2024-11-08T02:00:00	1	Precipitación	0
88012	7	Sololá	701	Sololá	4	Finca Santa Victoria	2	Febrero	2023-05-02T00:00:00	2024-11-08T02:00:00	8	Radiación solar	0
88013	7	Sololá	701	Sololá	4	Finca Santa Victoria	2	Febrero	2023-05-02T00:00:00	2024-11-08T03:00:00	2	Temperatura media	10.9
88014	7	Sololá	701	Sololá	4	Finca Santa Victoria	2	Febrero	2023-05-02T00:00:00	2024-11-08T03:00:00	4	Temperatura máxima	11
88015	7	Sololá	701	Sololá	4	Finca Santa Victoria	2	Febrero	2023-05-02T00:00:00	2024-11-08T03:00:00	3	Temperatura mínima	10.8
88016	7	Sololá	701	Sololá	4	Finca Santa Victoria	2	Febrero	2023-05-02T00:00:00	2024-11-08T03:00:00	5	Humedad	90
88017	7	Sololá	701	Sololá	4	Finca Santa Victoria	2	Febrero	2023-05-02T00:00:00	2024-11-08T03:00:00	6	Velocidad del viento	4.8
88018	7	Sololá	701	Sololá	4	Finca Santa Victoria	2	Febrero	2023-05-02T00:00:00	2024-11-08T03:00:00	7	Dirección del viento	4.83
88019	7	Sololá	701	Sololá	4	Finca Santa Victoria	2	Febrero	2023-05-02T00:00:00	2024-11-08T03:00:00	1	Precipitación	0
88020	7	Sololá	701	Sololá	4	Finca Santa Victoria	2	Febrero	2023-05-02T00:00:00	2024-11-08T03:00:00	8	Radiación solar	0
88021	7	Sololá	701	Sololá	4	Finca Santa Victoria	2	Febrero	2023-05-02T00:00:00	2024-11-08T04:00:00	2	Temperatura media	10.8
88022	7	Sololá	701	Sololá	4	Finca Santa Victoria	2	Febrero	2023-05-02T00:00:00	2024-11-08T04:00:00	4	Temperatura máxima	11.1
88023	7	Sololá	701	Sololá	4	Finca Santa Victoria	2	Febrero	2023-05-02T00:00:00	2024-11-08T04:00:00	3	Temperatura mínima	10.7
88024	7	Sololá	701	Sololá	4	Finca Santa Victoria	2	Febrero	2023-05-02T00:00:00	2024-11-08T04:00:00	5	Humedad	90
88025	7	Sololá	701	Sololá	4	Finca Santa Victoria	2	Febrero	2023-05-02T00:00:00	2024-11-08T04:00:00	6	Velocidad del viento	6.4
88026	7	Sololá	701	Sololá	4	Finca Santa Victoria	2	Febrero	2023-05-02T00:00:00	2024-11-08T04:00:00	7	Dirección del viento	6.44
88027	7	Sololá	701	Sololá	4	Finca Santa Victoria	2	Febrero	2023-05-02T00:00:00	2024-11-08T04:00:00	1	Precipitación	0
88028	7	Sololá	701	Sololá	4	Finca Santa Victoria	2	Febrero	2023-05-02T00:00:00	2024-11-08T04:00:00	8	Radiación solar	0
88029	7	Sololá	701	Sololá	4	Finca Santa Victoria	2	Febrero	2023-05-02T00:00:00	2024-11-08T05:00:00	2	Temperatura media	10.7
88030	7	Sololá	701	Sololá	4	Finca Santa Victoria	2	Febrero	2023-05-02T00:00:00	2024-11-08T05:00:00	4	Temperatura máxima	10.9
88031	7	Sololá	701	Sololá	4	Finca Santa Victoria	2	Febrero	2023-05-02T00:00:00	2024-11-08T05:00:00	3	Temperatura mínima	10.6
88032	7	Sololá	701	Sololá	4	Finca Santa Victoria	2	Febrero	2023-05-02T00:00:00	2024-11-08T05:00:00	5	Humedad	90
88033	7	Sololá	701	Sololá	4	Finca Santa Victoria	2	Febrero	2023-05-02T00:00:00	2024-11-08T05:00:00	6	Velocidad del viento	6.4
88034	7	Sololá	701	Sololá	4	Finca Santa Victoria	2	Febrero	2023-05-02T00:00:00	2024-11-08T05:00:00	7	Dirección del viento	6.44
88035	7	Sololá	701	Sololá	4	Finca Santa Victoria	2	Febrero	2023-05-02T00:00:00	2024-11-08T05:00:00	1	Precipitación	0
88036	7	Sololá	701	Sololá	4	Finca Santa Victoria	2	Febrero	2023-05-02T00:00:00	2024-11-08T05:00:00	8	Radiación solar	0
88037	7	Sololá	701	Sololá	4	Finca Santa Victoria	2	Febrero	2023-05-02T00:00:00	2024-11-08T06:00:00	2	Temperatura media	10.6
88038	7	Sololá	701	Sololá	4	Finca Santa Victoria	2	Febrero	2023-05-02T00:00:00	2024-11-08T06:00:00	4	Temperatura máxima	10.7
88039	7	Sololá	701	Sololá	4	Finca Santa Victoria	2	Febrero	2023-05-02T00:00:00	2024-11-08T06:00:00	3	Temperatura mínima	10.4
88040	7	Sololá	701	Sololá	4	Finca Santa Victoria	2	Febrero	2023-05-02T00:00:00	2024-11-08T06:00:00	5	Humedad	91
88041	7	Sololá	701	Sololá	4	Finca Santa Victoria	2	Febrero	2023-05-02T00:00:00	2024-11-08T06:00:00	6	Velocidad del viento	6.4
88042	7	Sololá	701	Sololá	4	Finca Santa Victoria	2	Febrero	2023-05-02T00:00:00	2024-11-08T06:00:00	7	Dirección del viento	6.44
88043	7	Sololá	701	Sololá	4	Finca Santa Victoria	2	Febrero	2023-05-02T00:00:00	2024-11-08T06:00:00	1	Precipitación	0
88044	7	Sololá	701	Sololá	4	Finca Santa Victoria	2	Febrero	2023-05-02T00:00:00	2024-11-08T06:00:00	8	Radiación solar	0
88045	7	Sololá	701	Sololá	4	Finca Santa Victoria	2	Febrero	2023-05-02T00:00:00	2024-11-08T07:00:00	2	Temperatura media	10.4
88046	7	Sololá	701	Sololá	4	Finca Santa Victoria	2	Febrero	2023-05-02T00:00:00	2024-11-08T07:00:00	4	Temperatura máxima	10.6
88047	7	Sololá	701	Sololá	4	Finca Santa Victoria	2	Febrero	2023-05-02T00:00:00	2024-11-08T07:00:00	3	Temperatura mínima	10.2
88048	7	Sololá	701	Sololá	4	Finca Santa Victoria	2	Febrero	2023-05-02T00:00:00	2024-11-08T07:00:00	5	Humedad	88
88049	7	Sololá	701	Sololá	4	Finca Santa Victoria	2	Febrero	2023-05-02T00:00:00	2024-11-08T07:00:00	6	Velocidad del viento	4.8
88050	7	Sololá	701	Sololá	4	Finca Santa Victoria	2	Febrero	2023-05-02T00:00:00	2024-11-08T07:00:00	7	Dirección del viento	4.83
88051	7	Sololá	701	Sololá	4	Finca Santa Victoria	2	Febrero	2023-05-02T00:00:00	2024-11-08T07:00:00	1	Precipitación	0
88052	7	Sololá	701	Sololá	4	Finca Santa Victoria	2	Febrero	2023-05-02T00:00:00	2024-11-08T07:00:00	8	Radiación solar	3
88053	7	Sololá	701	Sololá	4	Finca Santa Victoria	2	Febrero	2023-05-02T00:00:00	2024-11-08T08:00:00	2	Temperatura media	11.2
88054	7	Sololá	701	Sololá	4	Finca Santa Victoria	2	Febrero	2023-05-02T00:00:00	2024-11-08T08:00:00	4	Temperatura máxima	11.2
88055	7	Sololá	701	Sololá	4	Finca Santa Victoria	2	Febrero	2023-05-02T00:00:00	2024-11-08T08:00:00	3	Temperatura mínima	10.4
88056	7	Sololá	701	Sololá	4	Finca Santa Victoria	2	Febrero	2023-05-02T00:00:00	2024-11-08T08:00:00	5	Humedad	85
88057	7	Sololá	701	Sololá	4	Finca Santa Victoria	2	Febrero	2023-05-02T00:00:00	2024-11-08T08:00:00	6	Velocidad del viento	4.8
88058	7	Sololá	701	Sololá	4	Finca Santa Victoria	2	Febrero	2023-05-02T00:00:00	2024-11-08T08:00:00	7	Dirección del viento	4.83
88059	7	Sololá	701	Sololá	4	Finca Santa Victoria	2	Febrero	2023-05-02T00:00:00	2024-11-08T08:00:00	1	Precipitación	0
88060	7	Sololá	701	Sololá	4	Finca Santa Victoria	2	Febrero	2023-05-02T00:00:00	2024-11-08T08:00:00	8	Radiación solar	41
88061	7	Sololá	701	Sololá	4	Finca Santa Victoria	2	Febrero	2023-05-02T00:00:00	2024-11-08T09:00:00	2	Temperatura media	13.6
88062	7	Sololá	701	Sololá	4	Finca Santa Victoria	2	Febrero	2023-05-02T00:00:00	2024-11-08T09:00:00	4	Temperatura máxima	13.6
88063	7	Sololá	701	Sololá	4	Finca Santa Victoria	2	Febrero	2023-05-02T00:00:00	2024-11-08T09:00:00	3	Temperatura mínima	11.2
88064	7	Sololá	701	Sololá	4	Finca Santa Victoria	2	Febrero	2023-05-02T00:00:00	2024-11-08T09:00:00	5	Humedad	76
88065	7	Sololá	701	Sololá	4	Finca Santa Victoria	2	Febrero	2023-05-02T00:00:00	2024-11-08T09:00:00	6	Velocidad del viento	4.8
88066	7	Sololá	701	Sololá	4	Finca Santa Victoria	2	Febrero	2023-05-02T00:00:00	2024-11-08T09:00:00	7	Dirección del viento	4.83
88067	7	Sololá	701	Sololá	4	Finca Santa Victoria	2	Febrero	2023-05-02T00:00:00	2024-11-08T09:00:00	1	Precipitación	0
88068	7	Sololá	701	Sololá	4	Finca Santa Victoria	2	Febrero	2023-05-02T00:00:00	2024-11-08T09:00:00	8	Radiación solar	193
88069	7	Sololá	701	Sololá	4	Finca Santa Victoria	2	Febrero	2023-05-02T00:00:00	2024-11-08T10:00:00	2	Temperatura media	14.6
88070	7	Sololá	701	Sololá	4	Finca Santa Victoria	2	Febrero	2023-05-02T00:00:00	2024-11-08T10:00:00	4	Temperatura máxima	14.7
88071	7	Sololá	701	Sololá	4	Finca Santa Victoria	2	Febrero	2023-05-02T00:00:00	2024-11-08T10:00:00	3	Temperatura mínima	13.5
88072	7	Sololá	701	Sololá	4	Finca Santa Victoria	2	Febrero	2023-05-02T00:00:00	2024-11-08T10:00:00	5	Humedad	69
88073	7	Sololá	701	Sololá	4	Finca Santa Victoria	2	Febrero	2023-05-02T00:00:00	2024-11-08T10:00:00	6	Velocidad del viento	4.8
88074	7	Sololá	701	Sololá	4	Finca Santa Victoria	2	Febrero	2023-05-02T00:00:00	2024-11-08T10:00:00	7	Dirección del viento	4.83
88075	7	Sololá	701	Sololá	4	Finca Santa Victoria	2	Febrero	2023-05-02T00:00:00	2024-11-08T10:00:00	1	Precipitación	0
88076	7	Sololá	701	Sololá	4	Finca Santa Victoria	2	Febrero	2023-05-02T00:00:00	2024-11-08T10:00:00	8	Radiación solar	410
88077	7	Sololá	701	Sololá	4	Finca Santa Victoria	2	Febrero	2023-05-02T00:00:00	2024-11-08T11:00:00	2	Temperatura media	16.6
88078	7	Sololá	701	Sololá	4	Finca Santa Victoria	2	Febrero	2023-05-02T00:00:00	2024-11-08T11:00:00	4	Temperatura máxima	16.7
88079	7	Sololá	701	Sololá	4	Finca Santa Victoria	2	Febrero	2023-05-02T00:00:00	2024-11-08T11:00:00	3	Temperatura mínima	14.6
88080	7	Sololá	701	Sololá	4	Finca Santa Victoria	2	Febrero	2023-05-02T00:00:00	2024-11-08T11:00:00	5	Humedad	64
88081	7	Sololá	701	Sololá	4	Finca Santa Victoria	2	Febrero	2023-05-02T00:00:00	2024-11-08T11:00:00	6	Velocidad del viento	6.4
88082	7	Sololá	701	Sololá	4	Finca Santa Victoria	2	Febrero	2023-05-02T00:00:00	2024-11-08T11:00:00	7	Dirección del viento	6.44
88083	7	Sololá	701	Sololá	4	Finca Santa Victoria	2	Febrero	2023-05-02T00:00:00	2024-11-08T11:00:00	1	Precipitación	0
88084	7	Sololá	701	Sololá	4	Finca Santa Victoria	2	Febrero	2023-05-02T00:00:00	2024-11-08T11:00:00	8	Radiación solar	832
88085	7	Sololá	701	Sololá	4	Finca Santa Victoria	2	Febrero	2023-05-02T00:00:00	2024-11-08T12:00:00	2	Temperatura media	18.5
88086	7	Sololá	701	Sololá	4	Finca Santa Victoria	2	Febrero	2023-05-02T00:00:00	2024-11-08T12:00:00	4	Temperatura máxima	18.7
88087	7	Sololá	701	Sololá	4	Finca Santa Victoria	2	Febrero	2023-05-02T00:00:00	2024-11-08T12:00:00	3	Temperatura mínima	16.6
88088	7	Sololá	701	Sololá	4	Finca Santa Victoria	2	Febrero	2023-05-02T00:00:00	2024-11-08T12:00:00	5	Humedad	51
88089	7	Sololá	701	Sololá	4	Finca Santa Victoria	2	Febrero	2023-05-02T00:00:00	2024-11-08T12:00:00	6	Velocidad del viento	4.8
88090	7	Sololá	701	Sololá	4	Finca Santa Victoria	2	Febrero	2023-05-02T00:00:00	2024-11-08T12:00:00	7	Dirección del viento	4.83
88091	7	Sololá	701	Sololá	4	Finca Santa Victoria	2	Febrero	2023-05-02T00:00:00	2024-11-08T12:00:00	1	Precipitación	0
88092	7	Sololá	701	Sololá	4	Finca Santa Victoria	2	Febrero	2023-05-02T00:00:00	2024-11-08T12:00:00	8	Radiación solar	923
88093	7	Sololá	701	Sololá	4	Finca Santa Victoria	2	Febrero	2023-05-02T00:00:00	2024-11-08T13:00:00	2	Temperatura media	20.1
88094	7	Sololá	701	Sololá	4	Finca Santa Victoria	2	Febrero	2023-05-02T00:00:00	2024-11-08T13:00:00	4	Temperatura máxima	20.1
88095	7	Sololá	701	Sololá	4	Finca Santa Victoria	2	Febrero	2023-05-02T00:00:00	2024-11-08T13:00:00	3	Temperatura mínima	18.5
88096	7	Sololá	701	Sololá	4	Finca Santa Victoria	2	Febrero	2023-05-02T00:00:00	2024-11-08T13:00:00	5	Humedad	48
88097	7	Sololá	701	Sololá	4	Finca Santa Victoria	2	Febrero	2023-05-02T00:00:00	2024-11-08T13:00:00	6	Velocidad del viento	4.8
88098	7	Sololá	701	Sololá	4	Finca Santa Victoria	2	Febrero	2023-05-02T00:00:00	2024-11-08T13:00:00	7	Dirección del viento	4.83
88099	7	Sololá	701	Sololá	4	Finca Santa Victoria	2	Febrero	2023-05-02T00:00:00	2024-11-08T13:00:00	1	Precipitación	0
88100	7	Sololá	701	Sololá	4	Finca Santa Victoria	2	Febrero	2023-05-02T00:00:00	2024-11-08T13:00:00	8	Radiación solar	938
88101	7	Sololá	701	Sololá	4	Finca Santa Victoria	2	Febrero	2023-05-02T00:00:00	2024-11-08T14:00:00	2	Temperatura media	19.8
88102	7	Sololá	701	Sololá	4	Finca Santa Victoria	2	Febrero	2023-05-02T00:00:00	2024-11-08T14:00:00	4	Temperatura máxima	20.8
88103	7	Sololá	701	Sololá	4	Finca Santa Victoria	2	Febrero	2023-05-02T00:00:00	2024-11-08T14:00:00	3	Temperatura mínima	19.8
88104	7	Sololá	701	Sololá	4	Finca Santa Victoria	2	Febrero	2023-05-02T00:00:00	2024-11-08T14:00:00	5	Humedad	46
88105	7	Sololá	701	Sololá	4	Finca Santa Victoria	2	Febrero	2023-05-02T00:00:00	2024-11-08T14:00:00	6	Velocidad del viento	4.8
88106	7	Sololá	701	Sololá	4	Finca Santa Victoria	2	Febrero	2023-05-02T00:00:00	2024-11-08T14:00:00	7	Dirección del viento	4.83
88107	7	Sololá	701	Sololá	4	Finca Santa Victoria	2	Febrero	2023-05-02T00:00:00	2024-11-08T14:00:00	1	Precipitación	0
88108	7	Sololá	701	Sololá	4	Finca Santa Victoria	2	Febrero	2023-05-02T00:00:00	2024-11-08T14:00:00	8	Radiación solar	880
88109	7	Sololá	701	Sololá	4	Finca Santa Victoria	2	Febrero	2023-05-02T00:00:00	2024-11-08T15:00:00	2	Temperatura media	19.5
88110	7	Sololá	701	Sololá	4	Finca Santa Victoria	2	Febrero	2023-05-02T00:00:00	2024-11-08T15:00:00	4	Temperatura máxima	20.2
88111	7	Sololá	701	Sololá	4	Finca Santa Victoria	2	Febrero	2023-05-02T00:00:00	2024-11-08T15:00:00	3	Temperatura mínima	19.5
88112	7	Sololá	701	Sololá	4	Finca Santa Victoria	2	Febrero	2023-05-02T00:00:00	2024-11-08T15:00:00	5	Humedad	49
88113	7	Sololá	701	Sololá	4	Finca Santa Victoria	2	Febrero	2023-05-02T00:00:00	2024-11-08T15:00:00	6	Velocidad del viento	4.8
88114	7	Sololá	701	Sololá	4	Finca Santa Victoria	2	Febrero	2023-05-02T00:00:00	2024-11-08T15:00:00	7	Dirección del viento	4.83
88115	7	Sololá	701	Sololá	4	Finca Santa Victoria	2	Febrero	2023-05-02T00:00:00	2024-11-08T15:00:00	1	Precipitación	0
88116	7	Sololá	701	Sololá	4	Finca Santa Victoria	2	Febrero	2023-05-02T00:00:00	2024-11-08T15:00:00	8	Radiación solar	667
88117	7	Sololá	701	Sololá	4	Finca Santa Victoria	2	Febrero	2023-05-02T00:00:00	2024-11-08T16:00:00	2	Temperatura media	19.1
88118	7	Sololá	701	Sololá	4	Finca Santa Victoria	2	Febrero	2023-05-02T00:00:00	2024-11-08T16:00:00	4	Temperatura máxima	20.4
88119	7	Sololá	701	Sololá	4	Finca Santa Victoria	2	Febrero	2023-05-02T00:00:00	2024-11-08T16:00:00	3	Temperatura mínima	18.9
88120	7	Sololá	701	Sololá	4	Finca Santa Victoria	2	Febrero	2023-05-02T00:00:00	2024-11-08T16:00:00	5	Humedad	49
88121	7	Sololá	701	Sololá	4	Finca Santa Victoria	2	Febrero	2023-05-02T00:00:00	2024-11-08T16:00:00	6	Velocidad del viento	3.2
88122	7	Sololá	701	Sololá	4	Finca Santa Victoria	2	Febrero	2023-05-02T00:00:00	2024-11-08T16:00:00	7	Dirección del viento	3.22
88123	7	Sololá	701	Sololá	4	Finca Santa Victoria	2	Febrero	2023-05-02T00:00:00	2024-11-08T16:00:00	1	Precipitación	0
88124	7	Sololá	701	Sololá	4	Finca Santa Victoria	2	Febrero	2023-05-02T00:00:00	2024-11-08T16:00:00	8	Radiación solar	333
88125	7	Sololá	701	Sololá	4	Finca Santa Victoria	2	Febrero	2023-05-02T00:00:00	2024-11-08T17:00:00	2	Temperatura media	17.9
88126	7	Sololá	701	Sololá	4	Finca Santa Victoria	2	Febrero	2023-05-02T00:00:00	2024-11-08T17:00:00	4	Temperatura máxima	19.6
88127	7	Sololá	701	Sololá	4	Finca Santa Victoria	2	Febrero	2023-05-02T00:00:00	2024-11-08T17:00:00	3	Temperatura mínima	17.8
88128	7	Sololá	701	Sololá	4	Finca Santa Victoria	2	Febrero	2023-05-02T00:00:00	2024-11-08T17:00:00	5	Humedad	56
88129	7	Sololá	701	Sololá	4	Finca Santa Victoria	2	Febrero	2023-05-02T00:00:00	2024-11-08T17:00:00	6	Velocidad del viento	3.2
88130	7	Sololá	701	Sololá	4	Finca Santa Victoria	2	Febrero	2023-05-02T00:00:00	2024-11-08T17:00:00	7	Dirección del viento	3.22
88131	7	Sololá	701	Sololá	4	Finca Santa Victoria	2	Febrero	2023-05-02T00:00:00	2024-11-08T17:00:00	1	Precipitación	0
88132	7	Sololá	701	Sololá	4	Finca Santa Victoria	2	Febrero	2023-05-02T00:00:00	2024-11-08T17:00:00	8	Radiación solar	281
88133	7	Sololá	701	Sololá	4	Finca Santa Victoria	2	Febrero	2023-05-02T00:00:00	2024-11-08T18:00:00	2	Temperatura media	14.1
88134	7	Sololá	701	Sololá	4	Finca Santa Victoria	2	Febrero	2023-05-02T00:00:00	2024-11-08T18:00:00	4	Temperatura máxima	17.9
88135	7	Sololá	701	Sololá	4	Finca Santa Victoria	2	Febrero	2023-05-02T00:00:00	2024-11-08T18:00:00	3	Temperatura mínima	14.1
88136	7	Sololá	701	Sololá	4	Finca Santa Victoria	2	Febrero	2023-05-02T00:00:00	2024-11-08T18:00:00	5	Humedad	70
88137	7	Sololá	701	Sololá	4	Finca Santa Victoria	2	Febrero	2023-05-02T00:00:00	2024-11-08T18:00:00	6	Velocidad del viento	3.2
88138	7	Sololá	701	Sololá	4	Finca Santa Victoria	2	Febrero	2023-05-02T00:00:00	2024-11-08T18:00:00	7	Dirección del viento	3.22
88139	7	Sololá	701	Sololá	4	Finca Santa Victoria	2	Febrero	2023-05-02T00:00:00	2024-11-08T18:00:00	1	Precipitación	0
88140	7	Sololá	701	Sololá	4	Finca Santa Victoria	2	Febrero	2023-05-02T00:00:00	2024-11-08T18:00:00	8	Radiación solar	79
88141	7	Sololá	701	Sololá	4	Finca Santa Victoria	2	Febrero	2023-05-02T00:00:00	2024-11-08T19:00:00	2	Temperatura media	11.9
88142	7	Sololá	701	Sololá	4	Finca Santa Victoria	2	Febrero	2023-05-02T00:00:00	2024-11-08T19:00:00	4	Temperatura máxima	14.2
88143	7	Sololá	701	Sololá	4	Finca Santa Victoria	2	Febrero	2023-05-02T00:00:00	2024-11-08T19:00:00	3	Temperatura mínima	11.9
88144	7	Sololá	701	Sololá	4	Finca Santa Victoria	2	Febrero	2023-05-02T00:00:00	2024-11-08T19:00:00	5	Humedad	78
88145	7	Sololá	701	Sololá	4	Finca Santa Victoria	2	Febrero	2023-05-02T00:00:00	2024-11-08T19:00:00	6	Velocidad del viento	3.2
88146	7	Sololá	701	Sololá	4	Finca Santa Victoria	2	Febrero	2023-05-02T00:00:00	2024-11-08T19:00:00	7	Dirección del viento	3.22
88147	7	Sololá	701	Sololá	4	Finca Santa Victoria	2	Febrero	2023-05-02T00:00:00	2024-11-08T19:00:00	1	Precipitación	0
88148	7	Sololá	701	Sololá	4	Finca Santa Victoria	2	Febrero	2023-05-02T00:00:00	2024-11-08T19:00:00	8	Radiación solar	0
88149	7	Sololá	701	Sololá	4	Finca Santa Victoria	2	Febrero	2023-05-02T00:00:00	2024-11-08T20:00:00	2	Temperatura media	11.1
88150	7	Sololá	701	Sololá	4	Finca Santa Victoria	2	Febrero	2023-05-02T00:00:00	2024-11-08T20:00:00	4	Temperatura máxima	11.9
88151	7	Sololá	701	Sololá	4	Finca Santa Victoria	2	Febrero	2023-05-02T00:00:00	2024-11-08T20:00:00	3	Temperatura mínima	11.1
88152	7	Sololá	701	Sololá	4	Finca Santa Victoria	2	Febrero	2023-05-02T00:00:00	2024-11-08T20:00:00	5	Humedad	79
88153	7	Sololá	701	Sololá	4	Finca Santa Victoria	2	Febrero	2023-05-02T00:00:00	2024-11-08T20:00:00	6	Velocidad del viento	3.2
88154	7	Sololá	701	Sololá	4	Finca Santa Victoria	2	Febrero	2023-05-02T00:00:00	2024-11-08T20:00:00	7	Dirección del viento	3.22
88155	7	Sololá	701	Sololá	4	Finca Santa Victoria	2	Febrero	2023-05-02T00:00:00	2024-11-08T20:00:00	1	Precipitación	0
88156	7	Sololá	701	Sololá	4	Finca Santa Victoria	2	Febrero	2023-05-02T00:00:00	2024-11-08T20:00:00	8	Radiación solar	0
88157	7	Sololá	701	Sololá	4	Finca Santa Victoria	2	Febrero	2023-05-02T00:00:00	2024-11-08T21:00:00	2	Temperatura media	10.9
88158	7	Sololá	701	Sololá	4	Finca Santa Victoria	2	Febrero	2023-05-02T00:00:00	2024-11-08T21:00:00	4	Temperatura máxima	11.1
88159	7	Sololá	701	Sololá	4	Finca Santa Victoria	2	Febrero	2023-05-02T00:00:00	2024-11-08T21:00:00	3	Temperatura mínima	10.8
88160	7	Sololá	701	Sololá	4	Finca Santa Victoria	2	Febrero	2023-05-02T00:00:00	2024-11-08T21:00:00	5	Humedad	80
88161	7	Sololá	701	Sololá	4	Finca Santa Victoria	2	Febrero	2023-05-02T00:00:00	2024-11-08T21:00:00	6	Velocidad del viento	3.2
88162	7	Sololá	701	Sololá	4	Finca Santa Victoria	2	Febrero	2023-05-02T00:00:00	2024-11-08T21:00:00	7	Dirección del viento	3.22
88163	7	Sololá	701	Sololá	4	Finca Santa Victoria	2	Febrero	2023-05-02T00:00:00	2024-11-08T21:00:00	1	Precipitación	0
88164	7	Sololá	701	Sololá	4	Finca Santa Victoria	2	Febrero	2023-05-02T00:00:00	2024-11-08T21:00:00	8	Radiación solar	0
88165	7	Sololá	701	Sololá	4	Finca Santa Victoria	2	Febrero	2023-05-02T00:00:00	2024-11-08T22:00:00	2	Temperatura media	10.6
88166	7	Sololá	701	Sololá	4	Finca Santa Victoria	2	Febrero	2023-05-02T00:00:00	2024-11-08T22:00:00	4	Temperatura máxima	10.9
88167	7	Sololá	701	Sololá	4	Finca Santa Victoria	2	Febrero	2023-05-02T00:00:00	2024-11-08T22:00:00	3	Temperatura mínima	10.6
88168	7	Sololá	701	Sololá	4	Finca Santa Victoria	2	Febrero	2023-05-02T00:00:00	2024-11-08T22:00:00	5	Humedad	81
88169	7	Sololá	701	Sololá	4	Finca Santa Victoria	2	Febrero	2023-05-02T00:00:00	2024-11-08T22:00:00	6	Velocidad del viento	4.8
88170	7	Sololá	701	Sololá	4	Finca Santa Victoria	2	Febrero	2023-05-02T00:00:00	2024-11-08T22:00:00	7	Dirección del viento	4.83
88171	7	Sololá	701	Sololá	4	Finca Santa Victoria	2	Febrero	2023-05-02T00:00:00	2024-11-08T22:00:00	1	Precipitación	0
88172	7	Sololá	701	Sololá	4	Finca Santa Victoria	2	Febrero	2023-05-02T00:00:00	2024-11-08T22:00:00	8	Radiación solar	0
88173	7	Sololá	701	Sololá	4	Finca Santa Victoria	2	Febrero	2023-05-02T00:00:00	2024-11-08T23:00:00	2	Temperatura media	10.1
88174	7	Sololá	701	Sololá	4	Finca Santa Victoria	2	Febrero	2023-05-02T00:00:00	2024-11-08T23:00:00	4	Temperatura máxima	10.6
88175	7	Sololá	701	Sololá	4	Finca Santa Victoria	2	Febrero	2023-05-02T00:00:00	2024-11-08T23:00:00	3	Temperatura mínima	10.1
88176	7	Sololá	701	Sololá	4	Finca Santa Victoria	2	Febrero	2023-05-02T00:00:00	2024-11-08T23:00:00	5	Humedad	82
88177	7	Sololá	701	Sololá	4	Finca Santa Victoria	2	Febrero	2023-05-02T00:00:00	2024-11-08T23:00:00	6	Velocidad del viento	4.8
88178	7	Sololá	701	Sololá	4	Finca Santa Victoria	2	Febrero	2023-05-02T00:00:00	2024-11-08T23:00:00	7	Dirección del viento	4.83
88179	7	Sololá	701	Sololá	4	Finca Santa Victoria	2	Febrero	2023-05-02T00:00:00	2024-11-08T23:00:00	1	Precipitación	0
88180	7	Sololá	701	Sololá	4	Finca Santa Victoria	2	Febrero	2023-05-02T00:00:00	2024-11-08T23:00:00	8	Radiación solar	0
88181	7	Sololá	701	Sololá	4	Finca Santa Victoria	2	Febrero	2023-06-02T00:00:00	2024-11-08T00:00:00	2	Temperatura media	10.1
88182	7	Sololá	701	Sololá	4	Finca Santa Victoria	2	Febrero	2023-06-02T00:00:00	2024-11-08T00:00:00	4	Temperatura máxima	10.3
88183	7	Sololá	701	Sololá	4	Finca Santa Victoria	2	Febrero	2023-06-02T00:00:00	2024-11-08T00:00:00	3	Temperatura mínima	9.9
88184	7	Sololá	701	Sololá	4	Finca Santa Victoria	2	Febrero	2023-06-02T00:00:00	2024-11-08T00:00:00	5	Humedad	83
88185	7	Sololá	701	Sololá	4	Finca Santa Victoria	2	Febrero	2023-06-02T00:00:00	2024-11-08T00:00:00	6	Velocidad del viento	4.8
88186	7	Sololá	701	Sololá	4	Finca Santa Victoria	2	Febrero	2023-06-02T00:00:00	2024-11-08T00:00:00	7	Dirección del viento	4.83
88187	7	Sololá	701	Sololá	4	Finca Santa Victoria	2	Febrero	2023-06-02T00:00:00	2024-11-08T00:00:00	1	Precipitación	0
88188	7	Sololá	701	Sololá	4	Finca Santa Victoria	2	Febrero	2023-06-02T00:00:00	2024-11-08T00:00:00	8	Radiación solar	0
88189	7	Sololá	701	Sololá	4	Finca Santa Victoria	2	Febrero	2023-06-02T00:00:00	2024-11-08T01:00:00	2	Temperatura media	10
88190	7	Sololá	701	Sololá	4	Finca Santa Victoria	2	Febrero	2023-06-02T00:00:00	2024-11-08T01:00:00	4	Temperatura máxima	10.3
88191	7	Sololá	701	Sololá	4	Finca Santa Victoria	2	Febrero	2023-06-02T00:00:00	2024-11-08T01:00:00	3	Temperatura mínima	10
88192	7	Sololá	701	Sololá	4	Finca Santa Victoria	2	Febrero	2023-06-02T00:00:00	2024-11-08T01:00:00	5	Humedad	78
88193	7	Sololá	701	Sololá	4	Finca Santa Victoria	2	Febrero	2023-06-02T00:00:00	2024-11-08T01:00:00	6	Velocidad del viento	4.8
88194	7	Sololá	701	Sololá	4	Finca Santa Victoria	2	Febrero	2023-06-02T00:00:00	2024-11-08T01:00:00	7	Dirección del viento	4.83
88195	7	Sololá	701	Sololá	4	Finca Santa Victoria	2	Febrero	2023-06-02T00:00:00	2024-11-08T01:00:00	1	Precipitación	0
88196	7	Sololá	701	Sololá	4	Finca Santa Victoria	2	Febrero	2023-06-02T00:00:00	2024-11-08T01:00:00	8	Radiación solar	0
88197	7	Sololá	701	Sololá	4	Finca Santa Victoria	2	Febrero	2023-06-02T00:00:00	2024-11-08T02:00:00	2	Temperatura media	9.7
88198	7	Sololá	701	Sololá	4	Finca Santa Victoria	2	Febrero	2023-06-02T00:00:00	2024-11-08T02:00:00	4	Temperatura máxima	10.1
88199	7	Sololá	701	Sololá	4	Finca Santa Victoria	2	Febrero	2023-06-02T00:00:00	2024-11-08T02:00:00	3	Temperatura mínima	9.7
88200	7	Sololá	701	Sololá	4	Finca Santa Victoria	2	Febrero	2023-06-02T00:00:00	2024-11-08T02:00:00	5	Humedad	82
88201	7	Sololá	701	Sololá	4	Finca Santa Victoria	2	Febrero	2023-06-02T00:00:00	2024-11-08T02:00:00	6	Velocidad del viento	4.8
88202	7	Sololá	701	Sololá	4	Finca Santa Victoria	2	Febrero	2023-06-02T00:00:00	2024-11-08T02:00:00	7	Dirección del viento	4.83
88203	7	Sololá	701	Sololá	4	Finca Santa Victoria	2	Febrero	2023-06-02T00:00:00	2024-11-08T02:00:00	1	Precipitación	0
88204	7	Sololá	701	Sololá	4	Finca Santa Victoria	2	Febrero	2023-06-02T00:00:00	2024-11-08T02:00:00	8	Radiación solar	0
88205	7	Sololá	701	Sololá	4	Finca Santa Victoria	2	Febrero	2023-06-02T00:00:00	2024-11-08T03:00:00	2	Temperatura media	9.6
88206	7	Sololá	701	Sololá	4	Finca Santa Victoria	2	Febrero	2023-06-02T00:00:00	2024-11-08T03:00:00	4	Temperatura máxima	9.8
88207	7	Sololá	701	Sololá	4	Finca Santa Victoria	2	Febrero	2023-06-02T00:00:00	2024-11-08T03:00:00	3	Temperatura mínima	9.6
88208	7	Sololá	701	Sololá	4	Finca Santa Victoria	2	Febrero	2023-06-02T00:00:00	2024-11-08T03:00:00	5	Humedad	79
88209	7	Sololá	701	Sololá	4	Finca Santa Victoria	2	Febrero	2023-06-02T00:00:00	2024-11-08T03:00:00	6	Velocidad del viento	4.8
88210	7	Sololá	701	Sololá	4	Finca Santa Victoria	2	Febrero	2023-06-02T00:00:00	2024-11-08T03:00:00	7	Dirección del viento	4.83
88211	7	Sololá	701	Sololá	4	Finca Santa Victoria	2	Febrero	2023-06-02T00:00:00	2024-11-08T03:00:00	1	Precipitación	0
88212	7	Sololá	701	Sololá	4	Finca Santa Victoria	2	Febrero	2023-06-02T00:00:00	2024-11-08T03:00:00	8	Radiación solar	0
88213	7	Sololá	701	Sololá	4	Finca Santa Victoria	2	Febrero	2023-06-02T00:00:00	2024-11-08T04:00:00	2	Temperatura media	9.3
88214	7	Sololá	701	Sololá	4	Finca Santa Victoria	2	Febrero	2023-06-02T00:00:00	2024-11-08T04:00:00	4	Temperatura máxima	9.6
88215	7	Sololá	701	Sololá	4	Finca Santa Victoria	2	Febrero	2023-06-02T00:00:00	2024-11-08T04:00:00	3	Temperatura mínima	9.2
88216	7	Sololá	701	Sololá	4	Finca Santa Victoria	2	Febrero	2023-06-02T00:00:00	2024-11-08T04:00:00	5	Humedad	74
88217	7	Sololá	701	Sololá	4	Finca Santa Victoria	2	Febrero	2023-06-02T00:00:00	2024-11-08T04:00:00	6	Velocidad del viento	4.8
88218	7	Sololá	701	Sololá	4	Finca Santa Victoria	2	Febrero	2023-06-02T00:00:00	2024-11-08T04:00:00	7	Dirección del viento	4.83
88219	7	Sololá	701	Sololá	4	Finca Santa Victoria	2	Febrero	2023-06-02T00:00:00	2024-11-08T04:00:00	1	Precipitación	0
88220	7	Sololá	701	Sololá	4	Finca Santa Victoria	2	Febrero	2023-06-02T00:00:00	2024-11-08T04:00:00	8	Radiación solar	0
88221	7	Sololá	701	Sololá	4	Finca Santa Victoria	2	Febrero	2023-06-02T00:00:00	2024-11-08T05:00:00	2	Temperatura media	9.4
88222	7	Sololá	701	Sololá	4	Finca Santa Victoria	2	Febrero	2023-06-02T00:00:00	2024-11-08T05:00:00	4	Temperatura máxima	9.6
88223	7	Sololá	701	Sololá	4	Finca Santa Victoria	2	Febrero	2023-06-02T00:00:00	2024-11-08T05:00:00	3	Temperatura mínima	9.3
88224	7	Sololá	701	Sololá	4	Finca Santa Victoria	2	Febrero	2023-06-02T00:00:00	2024-11-08T05:00:00	5	Humedad	78
88225	7	Sololá	701	Sololá	4	Finca Santa Victoria	2	Febrero	2023-06-02T00:00:00	2024-11-08T05:00:00	6	Velocidad del viento	6.4
88226	7	Sololá	701	Sololá	4	Finca Santa Victoria	2	Febrero	2023-06-02T00:00:00	2024-11-08T05:00:00	7	Dirección del viento	6.44
88227	7	Sololá	701	Sololá	4	Finca Santa Victoria	2	Febrero	2023-06-02T00:00:00	2024-11-08T05:00:00	1	Precipitación	0
88228	7	Sololá	701	Sololá	4	Finca Santa Victoria	2	Febrero	2023-06-02T00:00:00	2024-11-08T05:00:00	8	Radiación solar	0
88229	7	Sololá	701	Sololá	4	Finca Santa Victoria	2	Febrero	2023-06-02T00:00:00	2024-11-08T06:00:00	2	Temperatura media	8.9
88230	7	Sololá	701	Sololá	4	Finca Santa Victoria	2	Febrero	2023-06-02T00:00:00	2024-11-08T06:00:00	4	Temperatura máxima	9.6
88231	7	Sololá	701	Sololá	4	Finca Santa Victoria	2	Febrero	2023-06-02T00:00:00	2024-11-08T06:00:00	3	Temperatura mínima	8.9
88232	7	Sololá	701	Sololá	4	Finca Santa Victoria	2	Febrero	2023-06-02T00:00:00	2024-11-08T06:00:00	5	Humedad	72
88233	7	Sololá	701	Sololá	4	Finca Santa Victoria	2	Febrero	2023-06-02T00:00:00	2024-11-08T06:00:00	6	Velocidad del viento	6.4
88234	7	Sololá	701	Sololá	4	Finca Santa Victoria	2	Febrero	2023-06-02T00:00:00	2024-11-08T06:00:00	7	Dirección del viento	6.44
88235	7	Sololá	701	Sololá	4	Finca Santa Victoria	2	Febrero	2023-06-02T00:00:00	2024-11-08T06:00:00	1	Precipitación	0
88236	7	Sololá	701	Sololá	4	Finca Santa Victoria	2	Febrero	2023-06-02T00:00:00	2024-11-08T06:00:00	8	Radiación solar	0
88237	7	Sololá	701	Sololá	4	Finca Santa Victoria	2	Febrero	2023-06-02T00:00:00	2024-11-08T07:00:00	2	Temperatura media	8.9
88238	7	Sololá	701	Sololá	4	Finca Santa Victoria	2	Febrero	2023-06-02T00:00:00	2024-11-08T07:00:00	4	Temperatura máxima	8.9
88239	7	Sololá	701	Sololá	4	Finca Santa Victoria	2	Febrero	2023-06-02T00:00:00	2024-11-08T07:00:00	3	Temperatura mínima	8.7
88240	7	Sololá	701	Sololá	4	Finca Santa Victoria	2	Febrero	2023-06-02T00:00:00	2024-11-08T07:00:00	5	Humedad	79
88241	7	Sololá	701	Sololá	4	Finca Santa Victoria	2	Febrero	2023-06-02T00:00:00	2024-11-08T07:00:00	6	Velocidad del viento	6.4
88242	7	Sololá	701	Sololá	4	Finca Santa Victoria	2	Febrero	2023-06-02T00:00:00	2024-11-08T07:00:00	7	Dirección del viento	6.44
88243	7	Sololá	701	Sololá	4	Finca Santa Victoria	2	Febrero	2023-06-02T00:00:00	2024-11-08T07:00:00	1	Precipitación	0
88244	7	Sololá	701	Sololá	4	Finca Santa Victoria	2	Febrero	2023-06-02T00:00:00	2024-11-08T07:00:00	8	Radiación solar	4
88245	7	Sololá	701	Sololá	4	Finca Santa Victoria	2	Febrero	2023-06-02T00:00:00	2024-11-08T08:00:00	2	Temperatura media	10.4
88246	7	Sololá	701	Sololá	4	Finca Santa Victoria	2	Febrero	2023-06-02T00:00:00	2024-11-08T08:00:00	4	Temperatura máxima	10.4
88247	7	Sololá	701	Sololá	4	Finca Santa Victoria	2	Febrero	2023-06-02T00:00:00	2024-11-08T08:00:00	3	Temperatura mínima	8.9
88248	7	Sololá	701	Sololá	4	Finca Santa Victoria	2	Febrero	2023-06-02T00:00:00	2024-11-08T08:00:00	5	Humedad	77
88249	7	Sololá	701	Sololá	4	Finca Santa Victoria	2	Febrero	2023-06-02T00:00:00	2024-11-08T08:00:00	6	Velocidad del viento	4.8
88250	7	Sololá	701	Sololá	4	Finca Santa Victoria	2	Febrero	2023-06-02T00:00:00	2024-11-08T08:00:00	7	Dirección del viento	4.83
88251	7	Sololá	701	Sololá	4	Finca Santa Victoria	2	Febrero	2023-06-02T00:00:00	2024-11-08T08:00:00	1	Precipitación	0
88252	7	Sololá	701	Sololá	4	Finca Santa Victoria	2	Febrero	2023-06-02T00:00:00	2024-11-08T08:00:00	8	Radiación solar	33
88253	7	Sololá	701	Sololá	4	Finca Santa Victoria	2	Febrero	2023-06-02T00:00:00	2024-11-08T09:00:00	2	Temperatura media	13.3
88254	7	Sololá	701	Sololá	4	Finca Santa Victoria	2	Febrero	2023-06-02T00:00:00	2024-11-08T09:00:00	4	Temperatura máxima	13.3
88255	7	Sololá	701	Sololá	4	Finca Santa Victoria	2	Febrero	2023-06-02T00:00:00	2024-11-08T09:00:00	3	Temperatura mínima	10.4
88256	7	Sololá	701	Sololá	4	Finca Santa Victoria	2	Febrero	2023-06-02T00:00:00	2024-11-08T09:00:00	5	Humedad	68
88257	7	Sololá	701	Sololá	4	Finca Santa Victoria	2	Febrero	2023-06-02T00:00:00	2024-11-08T09:00:00	6	Velocidad del viento	4.8
88258	7	Sololá	701	Sololá	4	Finca Santa Victoria	2	Febrero	2023-06-02T00:00:00	2024-11-08T09:00:00	7	Dirección del viento	4.83
88259	7	Sololá	701	Sololá	4	Finca Santa Victoria	2	Febrero	2023-06-02T00:00:00	2024-11-08T09:00:00	1	Precipitación	0
88260	7	Sololá	701	Sololá	4	Finca Santa Victoria	2	Febrero	2023-06-02T00:00:00	2024-11-08T09:00:00	8	Radiación solar	175
88261	7	Sololá	701	Sololá	4	Finca Santa Victoria	2	Febrero	2023-06-02T00:00:00	2024-11-08T10:00:00	2	Temperatura media	15.8
88262	7	Sololá	701	Sololá	4	Finca Santa Victoria	2	Febrero	2023-06-02T00:00:00	2024-11-08T10:00:00	4	Temperatura máxima	15.8
88263	7	Sololá	701	Sololá	4	Finca Santa Victoria	2	Febrero	2023-06-02T00:00:00	2024-11-08T10:00:00	3	Temperatura mínima	13.3
88264	7	Sololá	701	Sololá	4	Finca Santa Victoria	2	Febrero	2023-06-02T00:00:00	2024-11-08T10:00:00	5	Humedad	59
88265	7	Sololá	701	Sololá	4	Finca Santa Victoria	2	Febrero	2023-06-02T00:00:00	2024-11-08T10:00:00	6	Velocidad del viento	3.2
88266	7	Sololá	701	Sololá	4	Finca Santa Victoria	2	Febrero	2023-06-02T00:00:00	2024-11-08T10:00:00	7	Dirección del viento	3.22
88267	7	Sololá	701	Sololá	4	Finca Santa Victoria	2	Febrero	2023-06-02T00:00:00	2024-11-08T10:00:00	1	Precipitación	0
88268	7	Sololá	701	Sololá	4	Finca Santa Victoria	2	Febrero	2023-06-02T00:00:00	2024-11-08T10:00:00	8	Radiación solar	424
88269	7	Sololá	701	Sololá	4	Finca Santa Victoria	2	Febrero	2023-06-02T00:00:00	2024-11-08T11:00:00	2	Temperatura media	19.1
88270	7	Sololá	701	Sololá	4	Finca Santa Victoria	2	Febrero	2023-06-02T00:00:00	2024-11-08T11:00:00	4	Temperatura máxima	29.6
88271	7	Sololá	701	Sololá	4	Finca Santa Victoria	2	Febrero	2023-06-02T00:00:00	2024-11-08T11:00:00	3	Temperatura mínima	15.7
88272	7	Sololá	701	Sololá	4	Finca Santa Victoria	2	Febrero	2023-06-02T00:00:00	2024-11-08T11:00:00	5	Humedad	50
88273	7	Sololá	701	Sololá	4	Finca Santa Victoria	2	Febrero	2023-06-02T00:00:00	2024-11-08T11:00:00	6	Velocidad del viento	1.6
88274	7	Sololá	701	Sololá	4	Finca Santa Victoria	2	Febrero	2023-06-02T00:00:00	2024-11-08T11:00:00	7	Dirección del viento	1.61
88275	7	Sololá	701	Sololá	4	Finca Santa Victoria	2	Febrero	2023-06-02T00:00:00	2024-11-08T11:00:00	1	Precipitación	0.4
88276	7	Sololá	701	Sololá	4	Finca Santa Victoria	2	Febrero	2023-06-02T00:00:00	2024-11-08T11:00:00	8	Radiación solar	836
88277	7	Sololá	701	Sololá	4	Finca Santa Victoria	2	Febrero	2023-06-02T00:00:00	2024-11-08T12:00:00	2	Temperatura media	19.4
88278	7	Sololá	701	Sololá	4	Finca Santa Victoria	2	Febrero	2023-06-02T00:00:00	2024-11-08T12:00:00	4	Temperatura máxima	19.5
88279	7	Sololá	701	Sololá	4	Finca Santa Victoria	2	Febrero	2023-06-02T00:00:00	2024-11-08T12:00:00	3	Temperatura mínima	17.7
88280	7	Sololá	701	Sololá	4	Finca Santa Victoria	2	Febrero	2023-06-02T00:00:00	2024-11-08T12:00:00	5	Humedad	48
88281	7	Sololá	701	Sololá	4	Finca Santa Victoria	2	Febrero	2023-06-02T00:00:00	2024-11-08T12:00:00	6	Velocidad del viento	3.2
88282	7	Sololá	701	Sololá	4	Finca Santa Victoria	2	Febrero	2023-06-02T00:00:00	2024-11-08T12:00:00	7	Dirección del viento	3.22
88283	7	Sololá	701	Sololá	4	Finca Santa Victoria	2	Febrero	2023-06-02T00:00:00	2024-11-08T12:00:00	1	Precipitación	0
88284	7	Sololá	701	Sololá	4	Finca Santa Victoria	2	Febrero	2023-06-02T00:00:00	2024-11-08T12:00:00	8	Radiación solar	940
88285	7	Sololá	701	Sololá	4	Finca Santa Victoria	2	Febrero	2023-06-02T00:00:00	2024-11-08T13:00:00	2	Temperatura media	19.1
88286	7	Sololá	701	Sololá	4	Finca Santa Victoria	2	Febrero	2023-06-02T00:00:00	2024-11-08T13:00:00	4	Temperatura máxima	19.9
88287	7	Sololá	701	Sololá	4	Finca Santa Victoria	2	Febrero	2023-06-02T00:00:00	2024-11-08T13:00:00	3	Temperatura mínima	18.5
88288	7	Sololá	701	Sololá	4	Finca Santa Victoria	2	Febrero	2023-06-02T00:00:00	2024-11-08T13:00:00	5	Humedad	52
88289	7	Sololá	701	Sololá	4	Finca Santa Victoria	2	Febrero	2023-06-02T00:00:00	2024-11-08T13:00:00	6	Velocidad del viento	3.2
88290	7	Sololá	701	Sololá	4	Finca Santa Victoria	2	Febrero	2023-06-02T00:00:00	2024-11-08T13:00:00	7	Dirección del viento	3.22
88291	7	Sololá	701	Sololá	4	Finca Santa Victoria	2	Febrero	2023-06-02T00:00:00	2024-11-08T13:00:00	1	Precipitación	0
88292	7	Sololá	701	Sololá	4	Finca Santa Victoria	2	Febrero	2023-06-02T00:00:00	2024-11-08T13:00:00	8	Radiación solar	824
88293	7	Sololá	701	Sololá	4	Finca Santa Victoria	2	Febrero	2023-06-02T00:00:00	2024-11-08T14:00:00	2	Temperatura media	19.6
88294	7	Sololá	701	Sololá	4	Finca Santa Victoria	2	Febrero	2023-06-02T00:00:00	2024-11-08T14:00:00	4	Temperatura máxima	20.8
88295	7	Sololá	701	Sololá	4	Finca Santa Victoria	2	Febrero	2023-06-02T00:00:00	2024-11-08T14:00:00	3	Temperatura mínima	18.4
88296	7	Sololá	701	Sololá	4	Finca Santa Victoria	2	Febrero	2023-06-02T00:00:00	2024-11-08T14:00:00	5	Humedad	52
88297	7	Sololá	701	Sololá	4	Finca Santa Victoria	2	Febrero	2023-06-02T00:00:00	2024-11-08T14:00:00	6	Velocidad del viento	3.2
88298	7	Sololá	701	Sololá	4	Finca Santa Victoria	2	Febrero	2023-06-02T00:00:00	2024-11-08T14:00:00	7	Dirección del viento	3.22
88299	7	Sololá	701	Sololá	4	Finca Santa Victoria	2	Febrero	2023-06-02T00:00:00	2024-11-08T14:00:00	1	Precipitación	0
88300	7	Sololá	701	Sololá	4	Finca Santa Victoria	2	Febrero	2023-06-02T00:00:00	2024-11-08T14:00:00	8	Radiación solar	782
88301	7	Sololá	701	Sololá	4	Finca Santa Victoria	2	Febrero	2023-06-02T00:00:00	2024-11-08T15:00:00	2	Temperatura media	18.7
88302	7	Sololá	701	Sololá	4	Finca Santa Victoria	2	Febrero	2023-06-02T00:00:00	2024-11-08T15:00:00	4	Temperatura máxima	19.7
88303	7	Sololá	701	Sololá	4	Finca Santa Victoria	2	Febrero	2023-06-02T00:00:00	2024-11-08T15:00:00	3	Temperatura mínima	17.6
88304	7	Sololá	701	Sololá	4	Finca Santa Victoria	2	Febrero	2023-06-02T00:00:00	2024-11-08T15:00:00	5	Humedad	54
88305	7	Sololá	701	Sololá	4	Finca Santa Victoria	2	Febrero	2023-06-02T00:00:00	2024-11-08T15:00:00	6	Velocidad del viento	3.2
88306	7	Sololá	701	Sololá	4	Finca Santa Victoria	2	Febrero	2023-06-02T00:00:00	2024-11-08T15:00:00	7	Dirección del viento	3.22
88307	7	Sololá	701	Sololá	4	Finca Santa Victoria	2	Febrero	2023-06-02T00:00:00	2024-11-08T15:00:00	1	Precipitación	0
88308	7	Sololá	701	Sololá	4	Finca Santa Victoria	2	Febrero	2023-06-02T00:00:00	2024-11-08T15:00:00	8	Radiación solar	253
88309	7	Sololá	701	Sololá	4	Finca Santa Victoria	2	Febrero	2023-06-02T00:00:00	2024-11-08T16:00:00	2	Temperatura media	18.4
88310	7	Sololá	701	Sololá	4	Finca Santa Victoria	2	Febrero	2023-06-02T00:00:00	2024-11-08T16:00:00	4	Temperatura máxima	19.3
88311	7	Sololá	701	Sololá	4	Finca Santa Victoria	2	Febrero	2023-06-02T00:00:00	2024-11-08T16:00:00	3	Temperatura mínima	17
88312	7	Sololá	701	Sololá	4	Finca Santa Victoria	2	Febrero	2023-06-02T00:00:00	2024-11-08T16:00:00	5	Humedad	53
88313	7	Sololá	701	Sololá	4	Finca Santa Victoria	2	Febrero	2023-06-02T00:00:00	2024-11-08T16:00:00	6	Velocidad del viento	1.6
88314	7	Sololá	701	Sololá	4	Finca Santa Victoria	2	Febrero	2023-06-02T00:00:00	2024-11-08T16:00:00	7	Dirección del viento	1.61
88315	7	Sololá	701	Sololá	4	Finca Santa Victoria	2	Febrero	2023-06-02T00:00:00	2024-11-08T16:00:00	1	Precipitación	0
88316	7	Sololá	701	Sololá	4	Finca Santa Victoria	2	Febrero	2023-06-02T00:00:00	2024-11-08T16:00:00	8	Radiación solar	264
88317	7	Sololá	701	Sololá	4	Finca Santa Victoria	2	Febrero	2023-06-02T00:00:00	2024-11-08T17:00:00	2	Temperatura media	16.7
88318	7	Sololá	701	Sololá	4	Finca Santa Victoria	2	Febrero	2023-06-02T00:00:00	2024-11-08T17:00:00	4	Temperatura máxima	18.4
88319	7	Sololá	701	Sololá	4	Finca Santa Victoria	2	Febrero	2023-06-02T00:00:00	2024-11-08T17:00:00	3	Temperatura mínima	16.7
88320	7	Sololá	701	Sololá	4	Finca Santa Victoria	2	Febrero	2023-06-02T00:00:00	2024-11-08T17:00:00	5	Humedad	62
88321	7	Sololá	701	Sololá	4	Finca Santa Victoria	2	Febrero	2023-06-02T00:00:00	2024-11-08T17:00:00	6	Velocidad del viento	1.6
88322	7	Sololá	701	Sololá	4	Finca Santa Victoria	2	Febrero	2023-06-02T00:00:00	2024-11-08T17:00:00	7	Dirección del viento	1.61
88323	7	Sololá	701	Sololá	4	Finca Santa Victoria	2	Febrero	2023-06-02T00:00:00	2024-11-08T17:00:00	1	Precipitación	0
88324	7	Sololá	701	Sololá	4	Finca Santa Victoria	2	Febrero	2023-06-02T00:00:00	2024-11-08T17:00:00	8	Radiación solar	173
88325	7	Sololá	701	Sololá	4	Finca Santa Victoria	2	Febrero	2023-06-02T00:00:00	2024-11-08T18:00:00	2	Temperatura media	13
88326	7	Sololá	701	Sololá	4	Finca Santa Victoria	2	Febrero	2023-06-02T00:00:00	2024-11-08T18:00:00	4	Temperatura máxima	16.8
88327	7	Sololá	701	Sololá	4	Finca Santa Victoria	2	Febrero	2023-06-02T00:00:00	2024-11-08T18:00:00	3	Temperatura mínima	13
88328	7	Sololá	701	Sololá	4	Finca Santa Victoria	2	Febrero	2023-06-02T00:00:00	2024-11-08T18:00:00	5	Humedad	75
88329	7	Sololá	701	Sololá	4	Finca Santa Victoria	2	Febrero	2023-06-02T00:00:00	2024-11-08T18:00:00	6	Velocidad del viento	3.2
88330	7	Sololá	701	Sololá	4	Finca Santa Victoria	2	Febrero	2023-06-02T00:00:00	2024-11-08T18:00:00	7	Dirección del viento	3.22
88331	7	Sololá	701	Sololá	4	Finca Santa Victoria	2	Febrero	2023-06-02T00:00:00	2024-11-08T18:00:00	1	Precipitación	0
88332	7	Sololá	701	Sololá	4	Finca Santa Victoria	2	Febrero	2023-06-02T00:00:00	2024-11-08T18:00:00	8	Radiación solar	77
88333	7	Sololá	701	Sololá	4	Finca Santa Victoria	2	Febrero	2023-06-02T00:00:00	2024-11-08T19:00:00	2	Temperatura media	11.3
88334	7	Sololá	701	Sololá	4	Finca Santa Victoria	2	Febrero	2023-06-02T00:00:00	2024-11-08T19:00:00	4	Temperatura máxima	13
88335	7	Sololá	701	Sololá	4	Finca Santa Victoria	2	Febrero	2023-06-02T00:00:00	2024-11-08T19:00:00	3	Temperatura mínima	11.2
88336	7	Sololá	701	Sololá	4	Finca Santa Victoria	2	Febrero	2023-06-02T00:00:00	2024-11-08T19:00:00	5	Humedad	80
88337	7	Sololá	701	Sololá	4	Finca Santa Victoria	2	Febrero	2023-06-02T00:00:00	2024-11-08T19:00:00	6	Velocidad del viento	3.2
88338	7	Sololá	701	Sololá	4	Finca Santa Victoria	2	Febrero	2023-06-02T00:00:00	2024-11-08T19:00:00	7	Dirección del viento	3.22
88339	7	Sololá	701	Sololá	4	Finca Santa Victoria	2	Febrero	2023-06-02T00:00:00	2024-11-08T19:00:00	1	Precipitación	0
88340	7	Sololá	701	Sololá	4	Finca Santa Victoria	2	Febrero	2023-06-02T00:00:00	2024-11-08T19:00:00	8	Radiación solar	0
88341	7	Sololá	701	Sololá	4	Finca Santa Victoria	2	Febrero	2023-06-02T00:00:00	2024-11-08T20:00:00	2	Temperatura media	10.6
88342	7	Sololá	701	Sololá	4	Finca Santa Victoria	2	Febrero	2023-06-02T00:00:00	2024-11-08T20:00:00	4	Temperatura máxima	11.3
88343	7	Sololá	701	Sololá	4	Finca Santa Victoria	2	Febrero	2023-06-02T00:00:00	2024-11-08T20:00:00	3	Temperatura mínima	10.6
88344	7	Sololá	701	Sololá	4	Finca Santa Victoria	2	Febrero	2023-06-02T00:00:00	2024-11-08T20:00:00	5	Humedad	79
88345	7	Sololá	701	Sololá	4	Finca Santa Victoria	2	Febrero	2023-06-02T00:00:00	2024-11-08T20:00:00	6	Velocidad del viento	3.2
88346	7	Sololá	701	Sololá	4	Finca Santa Victoria	2	Febrero	2023-06-02T00:00:00	2024-11-08T20:00:00	7	Dirección del viento	3.22
88347	7	Sololá	701	Sololá	4	Finca Santa Victoria	2	Febrero	2023-06-02T00:00:00	2024-11-08T20:00:00	1	Precipitación	0
88348	7	Sololá	701	Sololá	4	Finca Santa Victoria	2	Febrero	2023-06-02T00:00:00	2024-11-08T20:00:00	8	Radiación solar	0
88349	7	Sololá	701	Sololá	4	Finca Santa Victoria	2	Febrero	2023-06-02T00:00:00	2024-11-08T21:00:00	2	Temperatura media	10.1
88350	7	Sololá	701	Sololá	4	Finca Santa Victoria	2	Febrero	2023-06-02T00:00:00	2024-11-08T21:00:00	4	Temperatura máxima	10.6
88351	7	Sololá	701	Sololá	4	Finca Santa Victoria	2	Febrero	2023-06-02T00:00:00	2024-11-08T21:00:00	3	Temperatura mínima	10.1
88352	7	Sololá	701	Sololá	4	Finca Santa Victoria	2	Febrero	2023-06-02T00:00:00	2024-11-08T21:00:00	5	Humedad	82
88353	7	Sololá	701	Sololá	4	Finca Santa Victoria	2	Febrero	2023-06-02T00:00:00	2024-11-08T21:00:00	6	Velocidad del viento	3.2
88354	7	Sololá	701	Sololá	4	Finca Santa Victoria	2	Febrero	2023-06-02T00:00:00	2024-11-08T21:00:00	7	Dirección del viento	3.22
88355	7	Sololá	701	Sololá	4	Finca Santa Victoria	2	Febrero	2023-06-02T00:00:00	2024-11-08T21:00:00	1	Precipitación	0
88356	7	Sololá	701	Sololá	4	Finca Santa Victoria	2	Febrero	2023-06-02T00:00:00	2024-11-08T21:00:00	8	Radiación solar	0
88357	7	Sololá	701	Sololá	4	Finca Santa Victoria	2	Febrero	2023-06-02T00:00:00	2024-11-08T22:00:00	2	Temperatura media	9.9
88358	7	Sololá	701	Sololá	4	Finca Santa Victoria	2	Febrero	2023-06-02T00:00:00	2024-11-08T22:00:00	4	Temperatura máxima	10.3
88359	7	Sololá	701	Sololá	4	Finca Santa Victoria	2	Febrero	2023-06-02T00:00:00	2024-11-08T22:00:00	3	Temperatura mínima	9.8
88360	7	Sololá	701	Sololá	4	Finca Santa Victoria	2	Febrero	2023-06-02T00:00:00	2024-11-08T22:00:00	5	Humedad	80
88361	7	Sololá	701	Sololá	4	Finca Santa Victoria	2	Febrero	2023-06-02T00:00:00	2024-11-08T22:00:00	6	Velocidad del viento	3.2
88362	7	Sololá	701	Sololá	4	Finca Santa Victoria	2	Febrero	2023-06-02T00:00:00	2024-11-08T22:00:00	7	Dirección del viento	3.22
88363	7	Sololá	701	Sololá	4	Finca Santa Victoria	2	Febrero	2023-06-02T00:00:00	2024-11-08T22:00:00	1	Precipitación	0
88364	7	Sololá	701	Sololá	4	Finca Santa Victoria	2	Febrero	2023-06-02T00:00:00	2024-11-08T22:00:00	8	Radiación solar	0
88365	7	Sololá	701	Sololá	4	Finca Santa Victoria	2	Febrero	2023-06-02T00:00:00	2024-11-08T23:00:00	2	Temperatura media	9.6
88366	7	Sololá	701	Sololá	4	Finca Santa Victoria	2	Febrero	2023-06-02T00:00:00	2024-11-08T23:00:00	4	Temperatura máxima	9.9
88367	7	Sololá	701	Sololá	4	Finca Santa Victoria	2	Febrero	2023-06-02T00:00:00	2024-11-08T23:00:00	3	Temperatura mínima	9.6
88368	7	Sololá	701	Sololá	4	Finca Santa Victoria	2	Febrero	2023-06-02T00:00:00	2024-11-08T23:00:00	5	Humedad	81
88369	7	Sololá	701	Sololá	4	Finca Santa Victoria	2	Febrero	2023-06-02T00:00:00	2024-11-08T23:00:00	6	Velocidad del viento	3.2
88370	7	Sololá	701	Sololá	4	Finca Santa Victoria	2	Febrero	2023-06-02T00:00:00	2024-11-08T23:00:00	7	Dirección del viento	3.22
88371	7	Sololá	701	Sololá	4	Finca Santa Victoria	2	Febrero	2023-06-02T00:00:00	2024-11-08T23:00:00	1	Precipitación	0
88372	7	Sololá	701	Sololá	4	Finca Santa Victoria	2	Febrero	2023-06-02T00:00:00	2024-11-08T23:00:00	8	Radiación solar	0
88373	7	Sololá	701	Sololá	4	Finca Santa Victoria	2	Febrero	2023-07-02T00:00:00	2024-11-08T00:00:00	2	Temperatura media	9.2
88374	7	Sololá	701	Sololá	4	Finca Santa Victoria	2	Febrero	2023-07-02T00:00:00	2024-11-08T00:00:00	4	Temperatura máxima	9.7
88375	7	Sololá	701	Sololá	4	Finca Santa Victoria	2	Febrero	2023-07-02T00:00:00	2024-11-08T00:00:00	3	Temperatura mínima	9.2
88376	7	Sololá	701	Sololá	4	Finca Santa Victoria	2	Febrero	2023-07-02T00:00:00	2024-11-08T00:00:00	5	Humedad	80
88377	7	Sololá	701	Sololá	4	Finca Santa Victoria	2	Febrero	2023-07-02T00:00:00	2024-11-08T00:00:00	6	Velocidad del viento	3.2
88378	7	Sololá	701	Sololá	4	Finca Santa Victoria	2	Febrero	2023-07-02T00:00:00	2024-11-08T00:00:00	7	Dirección del viento	3.22
88379	7	Sololá	701	Sololá	4	Finca Santa Victoria	2	Febrero	2023-07-02T00:00:00	2024-11-08T00:00:00	1	Precipitación	0
88380	7	Sololá	701	Sololá	4	Finca Santa Victoria	2	Febrero	2023-07-02T00:00:00	2024-11-08T00:00:00	8	Radiación solar	0
88381	7	Sololá	701	Sololá	4	Finca Santa Victoria	2	Febrero	2023-07-02T00:00:00	2024-11-08T01:00:00	2	Temperatura media	8.6
88382	7	Sololá	701	Sololá	4	Finca Santa Victoria	2	Febrero	2023-07-02T00:00:00	2024-11-08T01:00:00	4	Temperatura máxima	9.2
88383	7	Sololá	701	Sololá	4	Finca Santa Victoria	2	Febrero	2023-07-02T00:00:00	2024-11-08T01:00:00	3	Temperatura mínima	8.6
88384	7	Sololá	701	Sololá	4	Finca Santa Victoria	2	Febrero	2023-07-02T00:00:00	2024-11-08T01:00:00	5	Humedad	84
88385	7	Sololá	701	Sololá	4	Finca Santa Victoria	2	Febrero	2023-07-02T00:00:00	2024-11-08T01:00:00	6	Velocidad del viento	3.2
88386	7	Sololá	701	Sololá	4	Finca Santa Victoria	2	Febrero	2023-07-02T00:00:00	2024-11-08T01:00:00	7	Dirección del viento	3.22
88387	7	Sololá	701	Sololá	4	Finca Santa Victoria	2	Febrero	2023-07-02T00:00:00	2024-11-08T01:00:00	1	Precipitación	0
88388	7	Sololá	701	Sololá	4	Finca Santa Victoria	2	Febrero	2023-07-02T00:00:00	2024-11-08T01:00:00	8	Radiación solar	0
88389	7	Sololá	701	Sololá	4	Finca Santa Victoria	2	Febrero	2023-07-02T00:00:00	2024-11-08T02:00:00	2	Temperatura media	8.3
88390	7	Sololá	701	Sololá	4	Finca Santa Victoria	2	Febrero	2023-07-02T00:00:00	2024-11-08T02:00:00	4	Temperatura máxima	8.6
88391	7	Sololá	701	Sololá	4	Finca Santa Victoria	2	Febrero	2023-07-02T00:00:00	2024-11-08T02:00:00	3	Temperatura mínima	8.3
88392	7	Sololá	701	Sololá	4	Finca Santa Victoria	2	Febrero	2023-07-02T00:00:00	2024-11-08T02:00:00	5	Humedad	85
88393	7	Sololá	701	Sololá	4	Finca Santa Victoria	2	Febrero	2023-07-02T00:00:00	2024-11-08T02:00:00	6	Velocidad del viento	3.2
88394	7	Sololá	701	Sololá	4	Finca Santa Victoria	2	Febrero	2023-07-02T00:00:00	2024-11-08T02:00:00	7	Dirección del viento	3.22
88395	7	Sololá	701	Sololá	4	Finca Santa Victoria	2	Febrero	2023-07-02T00:00:00	2024-11-08T02:00:00	1	Precipitación	0
88396	7	Sololá	701	Sololá	4	Finca Santa Victoria	2	Febrero	2023-07-02T00:00:00	2024-11-08T02:00:00	8	Radiación solar	0
88397	7	Sololá	701	Sololá	4	Finca Santa Victoria	2	Febrero	2023-07-02T00:00:00	2024-11-08T03:00:00	2	Temperatura media	8.3
88398	7	Sololá	701	Sololá	4	Finca Santa Victoria	2	Febrero	2023-07-02T00:00:00	2024-11-08T03:00:00	4	Temperatura máxima	8.4
88399	7	Sololá	701	Sololá	4	Finca Santa Victoria	2	Febrero	2023-07-02T00:00:00	2024-11-08T03:00:00	3	Temperatura mínima	8.2
88400	7	Sololá	701	Sololá	4	Finca Santa Victoria	2	Febrero	2023-07-02T00:00:00	2024-11-08T03:00:00	5	Humedad	84
88401	7	Sololá	701	Sololá	4	Finca Santa Victoria	2	Febrero	2023-07-02T00:00:00	2024-11-08T03:00:00	6	Velocidad del viento	3.2
88402	7	Sololá	701	Sololá	4	Finca Santa Victoria	2	Febrero	2023-07-02T00:00:00	2024-11-08T03:00:00	7	Dirección del viento	3.22
88403	7	Sololá	701	Sololá	4	Finca Santa Victoria	2	Febrero	2023-07-02T00:00:00	2024-11-08T03:00:00	1	Precipitación	0
88404	7	Sololá	701	Sololá	4	Finca Santa Victoria	2	Febrero	2023-07-02T00:00:00	2024-11-08T03:00:00	8	Radiación solar	0
88405	7	Sololá	701	Sololá	4	Finca Santa Victoria	2	Febrero	2023-07-02T00:00:00	2024-11-08T04:00:00	2	Temperatura media	8.3
88406	7	Sololá	701	Sololá	4	Finca Santa Victoria	2	Febrero	2023-07-02T00:00:00	2024-11-08T04:00:00	4	Temperatura máxima	8.4
88407	7	Sololá	701	Sololá	4	Finca Santa Victoria	2	Febrero	2023-07-02T00:00:00	2024-11-08T04:00:00	3	Temperatura mínima	8.1
88408	7	Sololá	701	Sololá	4	Finca Santa Victoria	2	Febrero	2023-07-02T00:00:00	2024-11-08T04:00:00	5	Humedad	81
88409	7	Sololá	701	Sololá	4	Finca Santa Victoria	2	Febrero	2023-07-02T00:00:00	2024-11-08T04:00:00	6	Velocidad del viento	3.2
88410	7	Sololá	701	Sololá	4	Finca Santa Victoria	2	Febrero	2023-07-02T00:00:00	2024-11-08T04:00:00	7	Dirección del viento	3.22
88411	7	Sololá	701	Sololá	4	Finca Santa Victoria	2	Febrero	2023-07-02T00:00:00	2024-11-08T04:00:00	1	Precipitación	0
88412	7	Sololá	701	Sololá	4	Finca Santa Victoria	2	Febrero	2023-07-02T00:00:00	2024-11-08T04:00:00	8	Radiación solar	0
88413	7	Sololá	701	Sololá	4	Finca Santa Victoria	2	Febrero	2023-07-02T00:00:00	2024-11-08T05:00:00	2	Temperatura media	7.8
88414	7	Sololá	701	Sololá	4	Finca Santa Victoria	2	Febrero	2023-07-02T00:00:00	2024-11-08T05:00:00	4	Temperatura máxima	8.3
88415	7	Sololá	701	Sololá	4	Finca Santa Victoria	2	Febrero	2023-07-02T00:00:00	2024-11-08T05:00:00	3	Temperatura mínima	7.8
88416	7	Sololá	701	Sololá	4	Finca Santa Victoria	2	Febrero	2023-07-02T00:00:00	2024-11-08T05:00:00	5	Humedad	81
88417	7	Sololá	701	Sololá	4	Finca Santa Victoria	2	Febrero	2023-07-02T00:00:00	2024-11-08T05:00:00	6	Velocidad del viento	3.2
88418	7	Sololá	701	Sololá	4	Finca Santa Victoria	2	Febrero	2023-07-02T00:00:00	2024-11-08T05:00:00	7	Dirección del viento	3.22
88419	7	Sololá	701	Sololá	4	Finca Santa Victoria	2	Febrero	2023-07-02T00:00:00	2024-11-08T05:00:00	1	Precipitación	0
88420	7	Sololá	701	Sololá	4	Finca Santa Victoria	2	Febrero	2023-07-02T00:00:00	2024-11-08T05:00:00	8	Radiación solar	0
88421	7	Sololá	701	Sololá	4	Finca Santa Victoria	2	Febrero	2023-07-02T00:00:00	2024-11-08T06:00:00	2	Temperatura media	7.3
88422	7	Sololá	701	Sololá	4	Finca Santa Victoria	2	Febrero	2023-07-02T00:00:00	2024-11-08T06:00:00	4	Temperatura máxima	7.8
88423	7	Sololá	701	Sololá	4	Finca Santa Victoria	2	Febrero	2023-07-02T00:00:00	2024-11-08T06:00:00	3	Temperatura mínima	7.3
88424	7	Sololá	701	Sololá	4	Finca Santa Victoria	2	Febrero	2023-07-02T00:00:00	2024-11-08T06:00:00	5	Humedad	82
88425	7	Sololá	701	Sololá	4	Finca Santa Victoria	2	Febrero	2023-07-02T00:00:00	2024-11-08T06:00:00	6	Velocidad del viento	1.6
88426	7	Sololá	701	Sololá	4	Finca Santa Victoria	2	Febrero	2023-07-02T00:00:00	2024-11-08T06:00:00	7	Dirección del viento	1.61
88427	7	Sololá	701	Sololá	4	Finca Santa Victoria	2	Febrero	2023-07-02T00:00:00	2024-11-08T06:00:00	1	Precipitación	0
88428	7	Sololá	701	Sololá	4	Finca Santa Victoria	2	Febrero	2023-07-02T00:00:00	2024-11-08T06:00:00	8	Radiación solar	0
88429	7	Sololá	701	Sololá	4	Finca Santa Victoria	2	Febrero	2023-07-02T00:00:00	2024-11-08T07:00:00	2	Temperatura media	7.6
88430	7	Sololá	701	Sololá	4	Finca Santa Victoria	2	Febrero	2023-07-02T00:00:00	2024-11-08T07:00:00	4	Temperatura máxima	7.6
88431	7	Sololá	701	Sololá	4	Finca Santa Victoria	2	Febrero	2023-07-02T00:00:00	2024-11-08T07:00:00	3	Temperatura mínima	6.9
88432	7	Sololá	701	Sololá	4	Finca Santa Victoria	2	Febrero	2023-07-02T00:00:00	2024-11-08T07:00:00	5	Humedad	80
88433	7	Sololá	701	Sololá	4	Finca Santa Victoria	2	Febrero	2023-07-02T00:00:00	2024-11-08T07:00:00	6	Velocidad del viento	1.6
88434	7	Sololá	701	Sololá	4	Finca Santa Victoria	2	Febrero	2023-07-02T00:00:00	2024-11-08T07:00:00	7	Dirección del viento	1.61
88435	7	Sololá	701	Sololá	4	Finca Santa Victoria	2	Febrero	2023-07-02T00:00:00	2024-11-08T07:00:00	1	Precipitación	0
88436	7	Sololá	701	Sololá	4	Finca Santa Victoria	2	Febrero	2023-07-02T00:00:00	2024-11-08T07:00:00	8	Radiación solar	4
88437	7	Sololá	701	Sololá	4	Finca Santa Victoria	2	Febrero	2023-07-02T00:00:00	2024-11-08T08:00:00	2	Temperatura media	9.9
88438	7	Sololá	701	Sololá	4	Finca Santa Victoria	2	Febrero	2023-07-02T00:00:00	2024-11-08T08:00:00	4	Temperatura máxima	9.9
88439	7	Sololá	701	Sololá	4	Finca Santa Victoria	2	Febrero	2023-07-02T00:00:00	2024-11-08T08:00:00	3	Temperatura mínima	7.6
88440	7	Sololá	701	Sololá	4	Finca Santa Victoria	2	Febrero	2023-07-02T00:00:00	2024-11-08T08:00:00	5	Humedad	75
88441	7	Sololá	701	Sololá	4	Finca Santa Victoria	2	Febrero	2023-07-02T00:00:00	2024-11-08T08:00:00	6	Velocidad del viento	1.6
88442	7	Sololá	701	Sololá	4	Finca Santa Victoria	2	Febrero	2023-07-02T00:00:00	2024-11-08T08:00:00	7	Dirección del viento	1.61
88443	7	Sololá	701	Sololá	4	Finca Santa Victoria	2	Febrero	2023-07-02T00:00:00	2024-11-08T08:00:00	1	Precipitación	0
88444	7	Sololá	701	Sololá	4	Finca Santa Victoria	2	Febrero	2023-07-02T00:00:00	2024-11-08T08:00:00	8	Radiación solar	32
88445	7	Sololá	701	Sololá	4	Finca Santa Victoria	2	Febrero	2023-07-02T00:00:00	2024-11-08T09:00:00	2	Temperatura media	13.7
88446	7	Sololá	701	Sololá	4	Finca Santa Victoria	2	Febrero	2023-07-02T00:00:00	2024-11-08T09:00:00	4	Temperatura máxima	13.7
88447	7	Sololá	701	Sololá	4	Finca Santa Victoria	2	Febrero	2023-07-02T00:00:00	2024-11-08T09:00:00	3	Temperatura mínima	10
88448	7	Sololá	701	Sololá	4	Finca Santa Victoria	2	Febrero	2023-07-02T00:00:00	2024-11-08T09:00:00	5	Humedad	67
88449	7	Sololá	701	Sololá	4	Finca Santa Victoria	2	Febrero	2023-07-02T00:00:00	2024-11-08T09:00:00	6	Velocidad del viento	3.2
88450	7	Sololá	701	Sololá	4	Finca Santa Victoria	2	Febrero	2023-07-02T00:00:00	2024-11-08T09:00:00	7	Dirección del viento	3.22
88451	7	Sololá	701	Sololá	4	Finca Santa Victoria	2	Febrero	2023-07-02T00:00:00	2024-11-08T09:00:00	1	Precipitación	0
88452	7	Sololá	701	Sololá	4	Finca Santa Victoria	2	Febrero	2023-07-02T00:00:00	2024-11-08T09:00:00	8	Radiación solar	216
88453	7	Sololá	701	Sololá	4	Finca Santa Victoria	2	Febrero	2023-07-02T00:00:00	2024-11-08T10:00:00	2	Temperatura media	16.4
88454	7	Sololá	701	Sololá	4	Finca Santa Victoria	2	Febrero	2023-07-02T00:00:00	2024-11-08T10:00:00	4	Temperatura máxima	16.4
88455	7	Sololá	701	Sololá	4	Finca Santa Victoria	2	Febrero	2023-07-02T00:00:00	2024-11-08T10:00:00	3	Temperatura mínima	13.6
88456	7	Sololá	701	Sololá	4	Finca Santa Victoria	2	Febrero	2023-07-02T00:00:00	2024-11-08T10:00:00	5	Humedad	56
88457	7	Sololá	701	Sololá	4	Finca Santa Victoria	2	Febrero	2023-07-02T00:00:00	2024-11-08T10:00:00	6	Velocidad del viento	4.8
88458	7	Sololá	701	Sololá	4	Finca Santa Victoria	2	Febrero	2023-07-02T00:00:00	2024-11-08T10:00:00	7	Dirección del viento	4.83
88459	7	Sololá	701	Sololá	4	Finca Santa Victoria	2	Febrero	2023-07-02T00:00:00	2024-11-08T10:00:00	1	Precipitación	0
88460	7	Sololá	701	Sololá	4	Finca Santa Victoria	2	Febrero	2023-07-02T00:00:00	2024-11-08T10:00:00	8	Radiación solar	476
88461	7	Sololá	701	Sololá	4	Finca Santa Victoria	2	Febrero	2023-07-02T00:00:00	2024-11-08T11:00:00	2	Temperatura media	19.2
88462	7	Sololá	701	Sololá	4	Finca Santa Victoria	2	Febrero	2023-07-02T00:00:00	2024-11-08T11:00:00	4	Temperatura máxima	19.2
88463	7	Sololá	701	Sololá	4	Finca Santa Victoria	2	Febrero	2023-07-02T00:00:00	2024-11-08T11:00:00	3	Temperatura mínima	16.4
88464	7	Sololá	701	Sololá	4	Finca Santa Victoria	2	Febrero	2023-07-02T00:00:00	2024-11-08T11:00:00	5	Humedad	48
88465	7	Sololá	701	Sololá	4	Finca Santa Victoria	2	Febrero	2023-07-02T00:00:00	2024-11-08T11:00:00	6	Velocidad del viento	4.8
88466	7	Sololá	701	Sololá	4	Finca Santa Victoria	2	Febrero	2023-07-02T00:00:00	2024-11-08T11:00:00	7	Dirección del viento	4.83
88467	7	Sololá	701	Sololá	4	Finca Santa Victoria	2	Febrero	2023-07-02T00:00:00	2024-11-08T11:00:00	1	Precipitación	0
88468	7	Sololá	701	Sololá	4	Finca Santa Victoria	2	Febrero	2023-07-02T00:00:00	2024-11-08T11:00:00	8	Radiación solar	849
88469	7	Sololá	701	Sololá	4	Finca Santa Victoria	2	Febrero	2023-07-02T00:00:00	2024-11-08T12:00:00	2	Temperatura media	19.6
88470	7	Sololá	701	Sololá	4	Finca Santa Victoria	2	Febrero	2023-07-02T00:00:00	2024-11-08T12:00:00	4	Temperatura máxima	20.4
88471	7	Sololá	701	Sololá	4	Finca Santa Victoria	2	Febrero	2023-07-02T00:00:00	2024-11-08T12:00:00	3	Temperatura mínima	19.1
88472	7	Sololá	701	Sololá	4	Finca Santa Victoria	2	Febrero	2023-07-02T00:00:00	2024-11-08T12:00:00	5	Humedad	52
88473	7	Sololá	701	Sololá	4	Finca Santa Victoria	2	Febrero	2023-07-02T00:00:00	2024-11-08T12:00:00	6	Velocidad del viento	4.8
88474	7	Sololá	701	Sololá	4	Finca Santa Victoria	2	Febrero	2023-07-02T00:00:00	2024-11-08T12:00:00	7	Dirección del viento	4.83
88475	7	Sololá	701	Sololá	4	Finca Santa Victoria	2	Febrero	2023-07-02T00:00:00	2024-11-08T12:00:00	1	Precipitación	0
88476	7	Sololá	701	Sololá	4	Finca Santa Victoria	2	Febrero	2023-07-02T00:00:00	2024-11-08T12:00:00	8	Radiación solar	944
88477	7	Sololá	701	Sololá	4	Finca Santa Victoria	2	Febrero	2023-07-02T00:00:00	2024-11-08T13:00:00	2	Temperatura media	19.3
88478	7	Sololá	701	Sololá	4	Finca Santa Victoria	2	Febrero	2023-07-02T00:00:00	2024-11-08T13:00:00	4	Temperatura máxima	19.6
88479	7	Sololá	701	Sololá	4	Finca Santa Victoria	2	Febrero	2023-07-02T00:00:00	2024-11-08T13:00:00	3	Temperatura mínima	18.7
88480	7	Sololá	701	Sololá	4	Finca Santa Victoria	2	Febrero	2023-07-02T00:00:00	2024-11-08T13:00:00	5	Humedad	56
88481	7	Sololá	701	Sololá	4	Finca Santa Victoria	2	Febrero	2023-07-02T00:00:00	2024-11-08T13:00:00	6	Velocidad del viento	4.8
88482	7	Sololá	701	Sololá	4	Finca Santa Victoria	2	Febrero	2023-07-02T00:00:00	2024-11-08T13:00:00	7	Dirección del viento	4.83
88483	7	Sololá	701	Sololá	4	Finca Santa Victoria	2	Febrero	2023-07-02T00:00:00	2024-11-08T13:00:00	1	Precipitación	0
88484	7	Sololá	701	Sololá	4	Finca Santa Victoria	2	Febrero	2023-07-02T00:00:00	2024-11-08T13:00:00	8	Radiación solar	944
88485	7	Sololá	701	Sololá	4	Finca Santa Victoria	2	Febrero	2023-07-02T00:00:00	2024-11-08T14:00:00	2	Temperatura media	19.3
88486	7	Sololá	701	Sololá	4	Finca Santa Victoria	2	Febrero	2023-07-02T00:00:00	2024-11-08T14:00:00	4	Temperatura máxima	19.6
88487	7	Sololá	701	Sololá	4	Finca Santa Victoria	2	Febrero	2023-07-02T00:00:00	2024-11-08T14:00:00	3	Temperatura mínima	18.8
88488	7	Sololá	701	Sololá	4	Finca Santa Victoria	2	Febrero	2023-07-02T00:00:00	2024-11-08T14:00:00	5	Humedad	58
88489	7	Sololá	701	Sololá	4	Finca Santa Victoria	2	Febrero	2023-07-02T00:00:00	2024-11-08T14:00:00	6	Velocidad del viento	6.4
88490	7	Sololá	701	Sololá	4	Finca Santa Victoria	2	Febrero	2023-07-02T00:00:00	2024-11-08T14:00:00	7	Dirección del viento	6.44
88491	7	Sololá	701	Sololá	4	Finca Santa Victoria	2	Febrero	2023-07-02T00:00:00	2024-11-08T14:00:00	1	Precipitación	0
88492	7	Sololá	701	Sololá	4	Finca Santa Victoria	2	Febrero	2023-07-02T00:00:00	2024-11-08T14:00:00	8	Radiación solar	892
88493	7	Sololá	701	Sololá	4	Finca Santa Victoria	2	Febrero	2023-07-02T00:00:00	2024-11-08T15:00:00	2	Temperatura media	17.9
88494	7	Sololá	701	Sololá	4	Finca Santa Victoria	2	Febrero	2023-07-02T00:00:00	2024-11-08T15:00:00	4	Temperatura máxima	19.7
88495	7	Sololá	701	Sololá	4	Finca Santa Victoria	2	Febrero	2023-07-02T00:00:00	2024-11-08T15:00:00	3	Temperatura mínima	17.8
88496	7	Sololá	701	Sololá	4	Finca Santa Victoria	2	Febrero	2023-07-02T00:00:00	2024-11-08T15:00:00	5	Humedad	67
88497	7	Sololá	701	Sololá	4	Finca Santa Victoria	2	Febrero	2023-07-02T00:00:00	2024-11-08T15:00:00	6	Velocidad del viento	6.4
88498	7	Sololá	701	Sololá	4	Finca Santa Victoria	2	Febrero	2023-07-02T00:00:00	2024-11-08T15:00:00	7	Dirección del viento	6.44
88499	7	Sololá	701	Sololá	4	Finca Santa Victoria	2	Febrero	2023-07-02T00:00:00	2024-11-08T15:00:00	1	Precipitación	0
88500	7	Sololá	701	Sololá	4	Finca Santa Victoria	2	Febrero	2023-07-02T00:00:00	2024-11-08T15:00:00	8	Radiación solar	641
88501	7	Sololá	701	Sololá	4	Finca Santa Victoria	2	Febrero	2023-07-02T00:00:00	2024-11-08T16:00:00	2	Temperatura media	17.7
88502	7	Sololá	701	Sololá	4	Finca Santa Victoria	2	Febrero	2023-07-02T00:00:00	2024-11-08T16:00:00	4	Temperatura máxima	18.4
88503	7	Sololá	701	Sololá	4	Finca Santa Victoria	2	Febrero	2023-07-02T00:00:00	2024-11-08T16:00:00	3	Temperatura mínima	17.5
88504	7	Sololá	701	Sololá	4	Finca Santa Victoria	2	Febrero	2023-07-02T00:00:00	2024-11-08T16:00:00	5	Humedad	68
88505	7	Sololá	701	Sololá	4	Finca Santa Victoria	2	Febrero	2023-07-02T00:00:00	2024-11-08T16:00:00	6	Velocidad del viento	6.4
88506	7	Sololá	701	Sololá	4	Finca Santa Victoria	2	Febrero	2023-07-02T00:00:00	2024-11-08T16:00:00	7	Dirección del viento	6.44
88507	7	Sololá	701	Sololá	4	Finca Santa Victoria	2	Febrero	2023-07-02T00:00:00	2024-11-08T16:00:00	1	Precipitación	0
88508	7	Sololá	701	Sololá	4	Finca Santa Victoria	2	Febrero	2023-07-02T00:00:00	2024-11-08T16:00:00	8	Radiación solar	392
88509	7	Sololá	701	Sololá	4	Finca Santa Victoria	2	Febrero	2023-07-02T00:00:00	2024-11-08T17:00:00	2	Temperatura media	16.6
88510	7	Sololá	701	Sololá	4	Finca Santa Victoria	2	Febrero	2023-07-02T00:00:00	2024-11-08T17:00:00	4	Temperatura máxima	17.8
88511	7	Sololá	701	Sololá	4	Finca Santa Victoria	2	Febrero	2023-07-02T00:00:00	2024-11-08T17:00:00	3	Temperatura mínima	16.6
88512	7	Sololá	701	Sololá	4	Finca Santa Victoria	2	Febrero	2023-07-02T00:00:00	2024-11-08T17:00:00	5	Humedad	75
88513	7	Sololá	701	Sololá	4	Finca Santa Victoria	2	Febrero	2023-07-02T00:00:00	2024-11-08T17:00:00	6	Velocidad del viento	4.8
88514	7	Sololá	701	Sololá	4	Finca Santa Victoria	2	Febrero	2023-07-02T00:00:00	2024-11-08T17:00:00	7	Dirección del viento	4.83
88515	7	Sololá	701	Sololá	4	Finca Santa Victoria	2	Febrero	2023-07-02T00:00:00	2024-11-08T17:00:00	1	Precipitación	0
88516	7	Sololá	701	Sololá	4	Finca Santa Victoria	2	Febrero	2023-07-02T00:00:00	2024-11-08T17:00:00	8	Radiación solar	223
88517	7	Sololá	701	Sololá	4	Finca Santa Victoria	2	Febrero	2023-07-02T00:00:00	2024-11-08T18:00:00	2	Temperatura media	14.3
88518	7	Sololá	701	Sololá	4	Finca Santa Victoria	2	Febrero	2023-07-02T00:00:00	2024-11-08T18:00:00	4	Temperatura máxima	17.2
88519	7	Sololá	701	Sololá	4	Finca Santa Victoria	2	Febrero	2023-07-02T00:00:00	2024-11-08T18:00:00	3	Temperatura mínima	14.3
88520	7	Sololá	701	Sololá	4	Finca Santa Victoria	2	Febrero	2023-07-02T00:00:00	2024-11-08T18:00:00	5	Humedad	88
88521	7	Sololá	701	Sololá	4	Finca Santa Victoria	2	Febrero	2023-07-02T00:00:00	2024-11-08T18:00:00	6	Velocidad del viento	3.2
88522	7	Sololá	701	Sololá	4	Finca Santa Victoria	2	Febrero	2023-07-02T00:00:00	2024-11-08T18:00:00	7	Dirección del viento	3.22
88523	7	Sololá	701	Sololá	4	Finca Santa Victoria	2	Febrero	2023-07-02T00:00:00	2024-11-08T18:00:00	1	Precipitación	0
88524	7	Sololá	701	Sololá	4	Finca Santa Victoria	2	Febrero	2023-07-02T00:00:00	2024-11-08T18:00:00	8	Radiación solar	91
88525	7	Sololá	701	Sololá	4	Finca Santa Victoria	2	Febrero	2023-07-02T00:00:00	2024-11-08T19:00:00	2	Temperatura media	13.2
88526	7	Sololá	701	Sololá	4	Finca Santa Victoria	2	Febrero	2023-07-02T00:00:00	2024-11-08T19:00:00	4	Temperatura máxima	14.3
88527	7	Sololá	701	Sololá	4	Finca Santa Victoria	2	Febrero	2023-07-02T00:00:00	2024-11-08T19:00:00	3	Temperatura mínima	13.2
88528	7	Sololá	701	Sololá	4	Finca Santa Victoria	2	Febrero	2023-07-02T00:00:00	2024-11-08T19:00:00	5	Humedad	93
88529	7	Sololá	701	Sololá	4	Finca Santa Victoria	2	Febrero	2023-07-02T00:00:00	2024-11-08T19:00:00	6	Velocidad del viento	1.6
88530	7	Sololá	701	Sololá	4	Finca Santa Victoria	2	Febrero	2023-07-02T00:00:00	2024-11-08T19:00:00	7	Dirección del viento	1.61
88531	7	Sololá	701	Sololá	4	Finca Santa Victoria	2	Febrero	2023-07-02T00:00:00	2024-11-08T19:00:00	1	Precipitación	0
88532	7	Sololá	701	Sololá	4	Finca Santa Victoria	2	Febrero	2023-07-02T00:00:00	2024-11-08T19:00:00	8	Radiación solar	0
88533	7	Sololá	701	Sololá	4	Finca Santa Victoria	2	Febrero	2023-07-02T00:00:00	2024-11-08T20:00:00	2	Temperatura media	12
88534	7	Sololá	701	Sololá	4	Finca Santa Victoria	2	Febrero	2023-07-02T00:00:00	2024-11-08T20:00:00	4	Temperatura máxima	13.2
88535	7	Sololá	701	Sololá	4	Finca Santa Victoria	2	Febrero	2023-07-02T00:00:00	2024-11-08T20:00:00	3	Temperatura mínima	12
88536	7	Sololá	701	Sololá	4	Finca Santa Victoria	2	Febrero	2023-07-02T00:00:00	2024-11-08T20:00:00	5	Humedad	93
88537	7	Sololá	701	Sololá	4	Finca Santa Victoria	2	Febrero	2023-07-02T00:00:00	2024-11-08T20:00:00	6	Velocidad del viento	0
88538	7	Sololá	701	Sololá	4	Finca Santa Victoria	2	Febrero	2023-07-02T00:00:00	2024-11-08T20:00:00	7	Dirección del viento	0
88539	7	Sololá	701	Sololá	4	Finca Santa Victoria	2	Febrero	2023-07-02T00:00:00	2024-11-08T20:00:00	1	Precipitación	0
88540	7	Sololá	701	Sololá	4	Finca Santa Victoria	2	Febrero	2023-07-02T00:00:00	2024-11-08T20:00:00	8	Radiación solar	0
88541	7	Sololá	701	Sololá	4	Finca Santa Victoria	2	Febrero	2023-07-02T00:00:00	2024-11-08T21:00:00	2	Temperatura media	11.8
88542	7	Sololá	701	Sololá	4	Finca Santa Victoria	2	Febrero	2023-07-02T00:00:00	2024-11-08T21:00:00	4	Temperatura máxima	12.1
88543	7	Sololá	701	Sololá	4	Finca Santa Victoria	2	Febrero	2023-07-02T00:00:00	2024-11-08T21:00:00	3	Temperatura mínima	11.8
88544	7	Sololá	701	Sololá	4	Finca Santa Victoria	2	Febrero	2023-07-02T00:00:00	2024-11-08T21:00:00	5	Humedad	93
88545	7	Sololá	701	Sololá	4	Finca Santa Victoria	2	Febrero	2023-07-02T00:00:00	2024-11-08T21:00:00	6	Velocidad del viento	1.6
88546	7	Sololá	701	Sololá	4	Finca Santa Victoria	2	Febrero	2023-07-02T00:00:00	2024-11-08T21:00:00	7	Dirección del viento	1.61
88547	7	Sololá	701	Sololá	4	Finca Santa Victoria	2	Febrero	2023-07-02T00:00:00	2024-11-08T21:00:00	1	Precipitación	0
88548	7	Sololá	701	Sololá	4	Finca Santa Victoria	2	Febrero	2023-07-02T00:00:00	2024-11-08T21:00:00	8	Radiación solar	0
88549	7	Sololá	701	Sololá	4	Finca Santa Victoria	2	Febrero	2023-07-02T00:00:00	2024-11-08T22:00:00	2	Temperatura media	11.5
88550	7	Sololá	701	Sololá	4	Finca Santa Victoria	2	Febrero	2023-07-02T00:00:00	2024-11-08T22:00:00	4	Temperatura máxima	11.8
88551	7	Sololá	701	Sololá	4	Finca Santa Victoria	2	Febrero	2023-07-02T00:00:00	2024-11-08T22:00:00	3	Temperatura mínima	11.2
88552	7	Sololá	701	Sololá	4	Finca Santa Victoria	2	Febrero	2023-07-02T00:00:00	2024-11-08T22:00:00	5	Humedad	87
88553	7	Sololá	701	Sololá	4	Finca Santa Victoria	2	Febrero	2023-07-02T00:00:00	2024-11-08T22:00:00	6	Velocidad del viento	0
88554	7	Sololá	701	Sololá	4	Finca Santa Victoria	2	Febrero	2023-07-02T00:00:00	2024-11-08T22:00:00	7	Dirección del viento	0
88555	7	Sololá	701	Sololá	4	Finca Santa Victoria	2	Febrero	2023-07-02T00:00:00	2024-11-08T22:00:00	1	Precipitación	0
88556	7	Sololá	701	Sololá	4	Finca Santa Victoria	2	Febrero	2023-07-02T00:00:00	2024-11-08T22:00:00	8	Radiación solar	0
88557	7	Sololá	701	Sololá	4	Finca Santa Victoria	2	Febrero	2023-07-02T00:00:00	2024-11-08T23:00:00	2	Temperatura media	10.7
88558	7	Sololá	701	Sololá	4	Finca Santa Victoria	2	Febrero	2023-07-02T00:00:00	2024-11-08T23:00:00	4	Temperatura máxima	11.6
88559	7	Sololá	701	Sololá	4	Finca Santa Victoria	2	Febrero	2023-07-02T00:00:00	2024-11-08T23:00:00	3	Temperatura mínima	10.7
88560	7	Sololá	701	Sololá	4	Finca Santa Victoria	2	Febrero	2023-07-02T00:00:00	2024-11-08T23:00:00	5	Humedad	92
88561	7	Sololá	701	Sololá	4	Finca Santa Victoria	2	Febrero	2023-07-02T00:00:00	2024-11-08T23:00:00	6	Velocidad del viento	1.6
88562	7	Sololá	701	Sololá	4	Finca Santa Victoria	2	Febrero	2023-07-02T00:00:00	2024-11-08T23:00:00	7	Dirección del viento	1.61
88563	7	Sololá	701	Sololá	4	Finca Santa Victoria	2	Febrero	2023-07-02T00:00:00	2024-11-08T23:00:00	1	Precipitación	0
88564	7	Sololá	701	Sololá	4	Finca Santa Victoria	2	Febrero	2023-07-02T00:00:00	2024-11-08T23:00:00	8	Radiación solar	0
88565	7	Sololá	701	Sololá	4	Finca Santa Victoria	2	Febrero	2023-08-02T00:00:00	2024-11-08T00:00:00	2	Temperatura media	9.9
88566	7	Sololá	701	Sololá	4	Finca Santa Victoria	2	Febrero	2023-08-02T00:00:00	2024-11-08T00:00:00	4	Temperatura máxima	10.7
88567	7	Sololá	701	Sololá	4	Finca Santa Victoria	2	Febrero	2023-08-02T00:00:00	2024-11-08T00:00:00	3	Temperatura mínima	9.8
88568	7	Sololá	701	Sololá	4	Finca Santa Victoria	2	Febrero	2023-08-02T00:00:00	2024-11-08T00:00:00	5	Humedad	96
88569	7	Sololá	701	Sololá	4	Finca Santa Victoria	2	Febrero	2023-08-02T00:00:00	2024-11-08T00:00:00	6	Velocidad del viento	3.2
88570	7	Sololá	701	Sololá	4	Finca Santa Victoria	2	Febrero	2023-08-02T00:00:00	2024-11-08T00:00:00	7	Dirección del viento	3.22
88571	7	Sololá	701	Sololá	4	Finca Santa Victoria	2	Febrero	2023-08-02T00:00:00	2024-11-08T00:00:00	1	Precipitación	0
88572	7	Sololá	701	Sololá	4	Finca Santa Victoria	2	Febrero	2023-08-02T00:00:00	2024-11-08T00:00:00	8	Radiación solar	0
88573	7	Sololá	701	Sololá	4	Finca Santa Victoria	2	Febrero	2023-08-02T00:00:00	2024-11-08T01:00:00	2	Temperatura media	10.1
88574	7	Sololá	701	Sololá	4	Finca Santa Victoria	2	Febrero	2023-08-02T00:00:00	2024-11-08T01:00:00	4	Temperatura máxima	10.2
88575	7	Sololá	701	Sololá	4	Finca Santa Victoria	2	Febrero	2023-08-02T00:00:00	2024-11-08T01:00:00	3	Temperatura mínima	9.8
88576	7	Sololá	701	Sololá	4	Finca Santa Victoria	2	Febrero	2023-08-02T00:00:00	2024-11-08T01:00:00	5	Humedad	95
88577	7	Sololá	701	Sololá	4	Finca Santa Victoria	2	Febrero	2023-08-02T00:00:00	2024-11-08T01:00:00	6	Velocidad del viento	1.6
88578	7	Sololá	701	Sololá	4	Finca Santa Victoria	2	Febrero	2023-08-02T00:00:00	2024-11-08T01:00:00	7	Dirección del viento	1.61
88579	7	Sololá	701	Sololá	4	Finca Santa Victoria	2	Febrero	2023-08-02T00:00:00	2024-11-08T01:00:00	1	Precipitación	0
88580	7	Sololá	701	Sololá	4	Finca Santa Victoria	2	Febrero	2023-08-02T00:00:00	2024-11-08T01:00:00	8	Radiación solar	0
88581	7	Sololá	701	Sololá	4	Finca Santa Victoria	2	Febrero	2023-08-02T00:00:00	2024-11-08T02:00:00	2	Temperatura media	9.7
88582	7	Sololá	701	Sololá	4	Finca Santa Victoria	2	Febrero	2023-08-02T00:00:00	2024-11-08T02:00:00	4	Temperatura máxima	10.2
88583	7	Sololá	701	Sololá	4	Finca Santa Victoria	2	Febrero	2023-08-02T00:00:00	2024-11-08T02:00:00	3	Temperatura mínima	9.7
88584	7	Sololá	701	Sololá	4	Finca Santa Victoria	2	Febrero	2023-08-02T00:00:00	2024-11-08T02:00:00	5	Humedad	96
88585	7	Sololá	701	Sololá	4	Finca Santa Victoria	2	Febrero	2023-08-02T00:00:00	2024-11-08T02:00:00	6	Velocidad del viento	1.6
88586	7	Sololá	701	Sololá	4	Finca Santa Victoria	2	Febrero	2023-08-02T00:00:00	2024-11-08T02:00:00	7	Dirección del viento	1.61
88587	7	Sololá	701	Sololá	4	Finca Santa Victoria	2	Febrero	2023-08-02T00:00:00	2024-11-08T02:00:00	1	Precipitación	0
88588	7	Sololá	701	Sololá	4	Finca Santa Victoria	2	Febrero	2023-08-02T00:00:00	2024-11-08T02:00:00	8	Radiación solar	0
88589	7	Sololá	701	Sololá	4	Finca Santa Victoria	2	Febrero	2023-08-02T00:00:00	2024-11-08T03:00:00	2	Temperatura media	9.1
88590	7	Sololá	701	Sololá	4	Finca Santa Victoria	2	Febrero	2023-08-02T00:00:00	2024-11-08T03:00:00	4	Temperatura máxima	9.8
88591	7	Sololá	701	Sololá	4	Finca Santa Victoria	2	Febrero	2023-08-02T00:00:00	2024-11-08T03:00:00	3	Temperatura mínima	9.1
88592	7	Sololá	701	Sololá	4	Finca Santa Victoria	2	Febrero	2023-08-02T00:00:00	2024-11-08T03:00:00	5	Humedad	95
88593	7	Sololá	701	Sololá	4	Finca Santa Victoria	2	Febrero	2023-08-02T00:00:00	2024-11-08T03:00:00	6	Velocidad del viento	1.6
88594	7	Sololá	701	Sololá	4	Finca Santa Victoria	2	Febrero	2023-08-02T00:00:00	2024-11-08T03:00:00	7	Dirección del viento	1.61
88595	7	Sololá	701	Sololá	4	Finca Santa Victoria	2	Febrero	2023-08-02T00:00:00	2024-11-08T03:00:00	1	Precipitación	0
88596	7	Sololá	701	Sololá	4	Finca Santa Victoria	2	Febrero	2023-08-02T00:00:00	2024-11-08T03:00:00	8	Radiación solar	0
88597	7	Sololá	701	Sololá	4	Finca Santa Victoria	2	Febrero	2023-08-02T00:00:00	2024-11-08T04:00:00	2	Temperatura media	9
88598	7	Sololá	701	Sololá	4	Finca Santa Victoria	2	Febrero	2023-08-02T00:00:00	2024-11-08T04:00:00	4	Temperatura máxima	9.1
88599	7	Sololá	701	Sololá	4	Finca Santa Victoria	2	Febrero	2023-08-02T00:00:00	2024-11-08T04:00:00	3	Temperatura mínima	8.5
88600	7	Sololá	701	Sololá	4	Finca Santa Victoria	2	Febrero	2023-08-02T00:00:00	2024-11-08T04:00:00	5	Humedad	88
88601	7	Sololá	701	Sololá	4	Finca Santa Victoria	2	Febrero	2023-08-02T00:00:00	2024-11-08T04:00:00	6	Velocidad del viento	3.2
88602	7	Sololá	701	Sololá	4	Finca Santa Victoria	2	Febrero	2023-08-02T00:00:00	2024-11-08T04:00:00	7	Dirección del viento	3.22
88603	7	Sololá	701	Sololá	4	Finca Santa Victoria	2	Febrero	2023-08-02T00:00:00	2024-11-08T04:00:00	1	Precipitación	0
88604	7	Sololá	701	Sololá	4	Finca Santa Victoria	2	Febrero	2023-08-02T00:00:00	2024-11-08T04:00:00	8	Radiación solar	0
88605	7	Sololá	701	Sololá	4	Finca Santa Victoria	2	Febrero	2023-08-02T00:00:00	2024-11-08T05:00:00	2	Temperatura media	8.9
88606	7	Sololá	701	Sololá	4	Finca Santa Victoria	2	Febrero	2023-08-02T00:00:00	2024-11-08T05:00:00	4	Temperatura máxima	9.2
88607	7	Sololá	701	Sololá	4	Finca Santa Victoria	2	Febrero	2023-08-02T00:00:00	2024-11-08T05:00:00	3	Temperatura mínima	8.9
88608	7	Sololá	701	Sololá	4	Finca Santa Victoria	2	Febrero	2023-08-02T00:00:00	2024-11-08T05:00:00	5	Humedad	90
88609	7	Sololá	701	Sololá	4	Finca Santa Victoria	2	Febrero	2023-08-02T00:00:00	2024-11-08T05:00:00	6	Velocidad del viento	1.6
88610	7	Sololá	701	Sololá	4	Finca Santa Victoria	2	Febrero	2023-08-02T00:00:00	2024-11-08T05:00:00	7	Dirección del viento	1.61
88611	7	Sololá	701	Sololá	4	Finca Santa Victoria	2	Febrero	2023-08-02T00:00:00	2024-11-08T05:00:00	1	Precipitación	0
88612	7	Sololá	701	Sololá	4	Finca Santa Victoria	2	Febrero	2023-08-02T00:00:00	2024-11-08T05:00:00	8	Radiación solar	0
88613	7	Sololá	701	Sololá	4	Finca Santa Victoria	2	Febrero	2023-08-02T00:00:00	2024-11-08T06:00:00	2	Temperatura media	8.8
88614	7	Sololá	701	Sololá	4	Finca Santa Victoria	2	Febrero	2023-08-02T00:00:00	2024-11-08T06:00:00	4	Temperatura máxima	8.9
88615	7	Sololá	701	Sololá	4	Finca Santa Victoria	2	Febrero	2023-08-02T00:00:00	2024-11-08T06:00:00	3	Temperatura mínima	8.7
88616	7	Sololá	701	Sololá	4	Finca Santa Victoria	2	Febrero	2023-08-02T00:00:00	2024-11-08T06:00:00	5	Humedad	91
88617	7	Sololá	701	Sololá	4	Finca Santa Victoria	2	Febrero	2023-08-02T00:00:00	2024-11-08T06:00:00	6	Velocidad del viento	1.6
88618	7	Sololá	701	Sololá	4	Finca Santa Victoria	2	Febrero	2023-08-02T00:00:00	2024-11-08T06:00:00	7	Dirección del viento	1.61
88619	7	Sololá	701	Sololá	4	Finca Santa Victoria	2	Febrero	2023-08-02T00:00:00	2024-11-08T06:00:00	1	Precipitación	0
88620	7	Sololá	701	Sololá	4	Finca Santa Victoria	2	Febrero	2023-08-02T00:00:00	2024-11-08T06:00:00	8	Radiación solar	0
88621	7	Sololá	701	Sololá	4	Finca Santa Victoria	2	Febrero	2023-08-02T00:00:00	2024-11-08T07:00:00	2	Temperatura media	8.7
88622	7	Sololá	701	Sololá	4	Finca Santa Victoria	2	Febrero	2023-08-02T00:00:00	2024-11-08T07:00:00	4	Temperatura máxima	8.9
88623	7	Sololá	701	Sololá	4	Finca Santa Victoria	2	Febrero	2023-08-02T00:00:00	2024-11-08T07:00:00	3	Temperatura mínima	8.3
88624	7	Sololá	701	Sololá	4	Finca Santa Victoria	2	Febrero	2023-08-02T00:00:00	2024-11-08T07:00:00	5	Humedad	93
88625	7	Sololá	701	Sololá	4	Finca Santa Victoria	2	Febrero	2023-08-02T00:00:00	2024-11-08T07:00:00	6	Velocidad del viento	1.6
88626	7	Sololá	701	Sololá	4	Finca Santa Victoria	2	Febrero	2023-08-02T00:00:00	2024-11-08T07:00:00	7	Dirección del viento	1.61
88627	7	Sololá	701	Sololá	4	Finca Santa Victoria	2	Febrero	2023-08-02T00:00:00	2024-11-08T07:00:00	1	Precipitación	0
88628	7	Sololá	701	Sololá	4	Finca Santa Victoria	2	Febrero	2023-08-02T00:00:00	2024-11-08T07:00:00	8	Radiación solar	4
88629	7	Sololá	701	Sololá	4	Finca Santa Victoria	2	Febrero	2023-08-02T00:00:00	2024-11-08T08:00:00	2	Temperatura media	10.8
88630	7	Sololá	701	Sololá	4	Finca Santa Victoria	2	Febrero	2023-08-02T00:00:00	2024-11-08T08:00:00	4	Temperatura máxima	10.8
88631	7	Sololá	701	Sololá	4	Finca Santa Victoria	2	Febrero	2023-08-02T00:00:00	2024-11-08T08:00:00	3	Temperatura mínima	8.7
88632	7	Sololá	701	Sololá	4	Finca Santa Victoria	2	Febrero	2023-08-02T00:00:00	2024-11-08T08:00:00	5	Humedad	86
88633	7	Sololá	701	Sololá	4	Finca Santa Victoria	2	Febrero	2023-08-02T00:00:00	2024-11-08T08:00:00	6	Velocidad del viento	1.6
88634	7	Sololá	701	Sololá	4	Finca Santa Victoria	2	Febrero	2023-08-02T00:00:00	2024-11-08T08:00:00	7	Dirección del viento	1.61
88635	7	Sololá	701	Sololá	4	Finca Santa Victoria	2	Febrero	2023-08-02T00:00:00	2024-11-08T08:00:00	1	Precipitación	0
88636	7	Sololá	701	Sololá	4	Finca Santa Victoria	2	Febrero	2023-08-02T00:00:00	2024-11-08T08:00:00	8	Radiación solar	31
88637	7	Sololá	701	Sololá	4	Finca Santa Victoria	2	Febrero	2023-08-02T00:00:00	2024-11-08T09:00:00	2	Temperatura media	13.8
88638	7	Sololá	701	Sololá	4	Finca Santa Victoria	2	Febrero	2023-08-02T00:00:00	2024-11-08T09:00:00	4	Temperatura máxima	13.8
88639	7	Sololá	701	Sololá	4	Finca Santa Victoria	2	Febrero	2023-08-02T00:00:00	2024-11-08T09:00:00	3	Temperatura mínima	10.8
88640	7	Sololá	701	Sololá	4	Finca Santa Victoria	2	Febrero	2023-08-02T00:00:00	2024-11-08T09:00:00	5	Humedad	73
88641	7	Sololá	701	Sololá	4	Finca Santa Victoria	2	Febrero	2023-08-02T00:00:00	2024-11-08T09:00:00	6	Velocidad del viento	3.2
88642	7	Sololá	701	Sololá	4	Finca Santa Victoria	2	Febrero	2023-08-02T00:00:00	2024-11-08T09:00:00	7	Dirección del viento	3.22
88643	7	Sololá	701	Sololá	4	Finca Santa Victoria	2	Febrero	2023-08-02T00:00:00	2024-11-08T09:00:00	1	Precipitación	0
88644	7	Sololá	701	Sololá	4	Finca Santa Victoria	2	Febrero	2023-08-02T00:00:00	2024-11-08T09:00:00	8	Radiación solar	213
88645	7	Sololá	701	Sololá	4	Finca Santa Victoria	2	Febrero	2023-08-02T00:00:00	2024-11-08T10:00:00	2	Temperatura media	17.8
88646	7	Sololá	701	Sololá	4	Finca Santa Victoria	2	Febrero	2023-08-02T00:00:00	2024-11-08T10:00:00	4	Temperatura máxima	17.8
88647	7	Sololá	701	Sololá	4	Finca Santa Victoria	2	Febrero	2023-08-02T00:00:00	2024-11-08T10:00:00	3	Temperatura mínima	13.8
88648	7	Sololá	701	Sololá	4	Finca Santa Victoria	2	Febrero	2023-08-02T00:00:00	2024-11-08T10:00:00	5	Humedad	60
88649	7	Sololá	701	Sololá	4	Finca Santa Victoria	2	Febrero	2023-08-02T00:00:00	2024-11-08T10:00:00	6	Velocidad del viento	3.2
88650	7	Sololá	701	Sololá	4	Finca Santa Victoria	2	Febrero	2023-08-02T00:00:00	2024-11-08T10:00:00	7	Dirección del viento	3.22
88651	7	Sololá	701	Sololá	4	Finca Santa Victoria	2	Febrero	2023-08-02T00:00:00	2024-11-08T10:00:00	1	Precipitación	0
88652	7	Sololá	701	Sololá	4	Finca Santa Victoria	2	Febrero	2023-08-02T00:00:00	2024-11-08T10:00:00	8	Radiación solar	510
88653	7	Sololá	701	Sololá	4	Finca Santa Victoria	2	Febrero	2023-08-02T00:00:00	2024-11-08T11:00:00	2	Temperatura media	18.2
88654	7	Sololá	701	Sololá	4	Finca Santa Victoria	2	Febrero	2023-08-02T00:00:00	2024-11-08T11:00:00	4	Temperatura máxima	19.1
88655	7	Sololá	701	Sololá	4	Finca Santa Victoria	2	Febrero	2023-08-02T00:00:00	2024-11-08T11:00:00	3	Temperatura mínima	17.8
88656	7	Sololá	701	Sololá	4	Finca Santa Victoria	2	Febrero	2023-08-02T00:00:00	2024-11-08T11:00:00	5	Humedad	62
88657	7	Sololá	701	Sololá	4	Finca Santa Victoria	2	Febrero	2023-08-02T00:00:00	2024-11-08T11:00:00	6	Velocidad del viento	4.8
88658	7	Sololá	701	Sololá	4	Finca Santa Victoria	2	Febrero	2023-08-02T00:00:00	2024-11-08T11:00:00	7	Dirección del viento	4.83
88659	7	Sololá	701	Sololá	4	Finca Santa Victoria	2	Febrero	2023-08-02T00:00:00	2024-11-08T11:00:00	1	Precipitación	0
88660	7	Sololá	701	Sololá	4	Finca Santa Victoria	2	Febrero	2023-08-02T00:00:00	2024-11-08T11:00:00	8	Radiación solar	836
88661	7	Sololá	701	Sololá	4	Finca Santa Victoria	2	Febrero	2023-08-02T00:00:00	2024-11-08T12:00:00	2	Temperatura media	17.9
88662	7	Sololá	701	Sololá	4	Finca Santa Victoria	2	Febrero	2023-08-02T00:00:00	2024-11-08T12:00:00	4	Temperatura máxima	18.8
88663	7	Sololá	701	Sololá	4	Finca Santa Victoria	2	Febrero	2023-08-02T00:00:00	2024-11-08T12:00:00	3	Temperatura mínima	17.9
88664	7	Sololá	701	Sololá	4	Finca Santa Victoria	2	Febrero	2023-08-02T00:00:00	2024-11-08T12:00:00	5	Humedad	66
88665	7	Sololá	701	Sololá	4	Finca Santa Victoria	2	Febrero	2023-08-02T00:00:00	2024-11-08T12:00:00	6	Velocidad del viento	4.8
88666	7	Sololá	701	Sololá	4	Finca Santa Victoria	2	Febrero	2023-08-02T00:00:00	2024-11-08T12:00:00	7	Dirección del viento	4.83
88667	7	Sololá	701	Sololá	4	Finca Santa Victoria	2	Febrero	2023-08-02T00:00:00	2024-11-08T12:00:00	1	Precipitación	0
88668	7	Sololá	701	Sololá	4	Finca Santa Victoria	2	Febrero	2023-08-02T00:00:00	2024-11-08T12:00:00	8	Radiación solar	882
88669	7	Sololá	701	Sololá	4	Finca Santa Victoria	2	Febrero	2023-08-02T00:00:00	2024-11-08T13:00:00	2	Temperatura media	17.1
88670	7	Sololá	701	Sololá	4	Finca Santa Victoria	2	Febrero	2023-08-02T00:00:00	2024-11-08T13:00:00	4	Temperatura máxima	17.9
88671	7	Sololá	701	Sololá	4	Finca Santa Victoria	2	Febrero	2023-08-02T00:00:00	2024-11-08T13:00:00	3	Temperatura mínima	16.3
88672	7	Sololá	701	Sololá	4	Finca Santa Victoria	2	Febrero	2023-08-02T00:00:00	2024-11-08T13:00:00	5	Humedad	70
88673	7	Sololá	701	Sololá	4	Finca Santa Victoria	2	Febrero	2023-08-02T00:00:00	2024-11-08T13:00:00	6	Velocidad del viento	3.2
88674	7	Sololá	701	Sololá	4	Finca Santa Victoria	2	Febrero	2023-08-02T00:00:00	2024-11-08T13:00:00	7	Dirección del viento	3.22
88675	7	Sololá	701	Sololá	4	Finca Santa Victoria	2	Febrero	2023-08-02T00:00:00	2024-11-08T13:00:00	1	Precipitación	0
88676	7	Sololá	701	Sololá	4	Finca Santa Victoria	2	Febrero	2023-08-02T00:00:00	2024-11-08T13:00:00	8	Radiación solar	213
88677	7	Sololá	701	Sololá	4	Finca Santa Victoria	2	Febrero	2023-08-02T00:00:00	2024-11-08T14:00:00	2	Temperatura media	17.6
88678	7	Sololá	701	Sololá	4	Finca Santa Victoria	2	Febrero	2023-08-02T00:00:00	2024-11-08T14:00:00	4	Temperatura máxima	18.3
88679	7	Sololá	701	Sololá	4	Finca Santa Victoria	2	Febrero	2023-08-02T00:00:00	2024-11-08T14:00:00	3	Temperatura mínima	17.1
88680	7	Sololá	701	Sololá	4	Finca Santa Victoria	2	Febrero	2023-08-02T00:00:00	2024-11-08T14:00:00	5	Humedad	75
88681	7	Sololá	701	Sololá	4	Finca Santa Victoria	2	Febrero	2023-08-02T00:00:00	2024-11-08T14:00:00	6	Velocidad del viento	4.8
88682	7	Sololá	701	Sololá	4	Finca Santa Victoria	2	Febrero	2023-08-02T00:00:00	2024-11-08T14:00:00	7	Dirección del viento	4.83
88683	7	Sololá	701	Sololá	4	Finca Santa Victoria	2	Febrero	2023-08-02T00:00:00	2024-11-08T14:00:00	1	Precipitación	0
88684	7	Sololá	701	Sololá	4	Finca Santa Victoria	2	Febrero	2023-08-02T00:00:00	2024-11-08T14:00:00	8	Radiación solar	296
88685	7	Sololá	701	Sololá	4	Finca Santa Victoria	2	Febrero	2023-08-02T00:00:00	2024-11-08T15:00:00	2	Temperatura media	17.9
88686	7	Sololá	701	Sololá	4	Finca Santa Victoria	2	Febrero	2023-08-02T00:00:00	2024-11-08T15:00:00	4	Temperatura máxima	18.7
88687	7	Sololá	701	Sololá	4	Finca Santa Victoria	2	Febrero	2023-08-02T00:00:00	2024-11-08T15:00:00	3	Temperatura mínima	17.4
88688	7	Sololá	701	Sololá	4	Finca Santa Victoria	2	Febrero	2023-08-02T00:00:00	2024-11-08T15:00:00	5	Humedad	76
88689	7	Sololá	701	Sololá	4	Finca Santa Victoria	2	Febrero	2023-08-02T00:00:00	2024-11-08T15:00:00	6	Velocidad del viento	4.8
88690	7	Sololá	701	Sololá	4	Finca Santa Victoria	2	Febrero	2023-08-02T00:00:00	2024-11-08T15:00:00	7	Dirección del viento	4.83
88691	7	Sololá	701	Sololá	4	Finca Santa Victoria	2	Febrero	2023-08-02T00:00:00	2024-11-08T15:00:00	1	Precipitación	0
88692	7	Sololá	701	Sololá	4	Finca Santa Victoria	2	Febrero	2023-08-02T00:00:00	2024-11-08T15:00:00	8	Radiación solar	315
88693	7	Sololá	701	Sololá	4	Finca Santa Victoria	2	Febrero	2023-08-02T00:00:00	2024-11-08T16:00:00	2	Temperatura media	16.1
88694	7	Sololá	701	Sololá	4	Finca Santa Victoria	2	Febrero	2023-08-02T00:00:00	2024-11-08T16:00:00	4	Temperatura máxima	17.9
88695	7	Sololá	701	Sololá	4	Finca Santa Victoria	2	Febrero	2023-08-02T00:00:00	2024-11-08T16:00:00	3	Temperatura mínima	16.1
88696	7	Sololá	701	Sololá	4	Finca Santa Victoria	2	Febrero	2023-08-02T00:00:00	2024-11-08T16:00:00	5	Humedad	84
88697	7	Sololá	701	Sololá	4	Finca Santa Victoria	2	Febrero	2023-08-02T00:00:00	2024-11-08T16:00:00	6	Velocidad del viento	3.2
88698	7	Sololá	701	Sololá	4	Finca Santa Victoria	2	Febrero	2023-08-02T00:00:00	2024-11-08T16:00:00	7	Dirección del viento	3.22
88699	7	Sololá	701	Sololá	4	Finca Santa Victoria	2	Febrero	2023-08-02T00:00:00	2024-11-08T16:00:00	1	Precipitación	0
88700	7	Sololá	701	Sololá	4	Finca Santa Victoria	2	Febrero	2023-08-02T00:00:00	2024-11-08T16:00:00	8	Radiación solar	115
88701	7	Sololá	701	Sololá	4	Finca Santa Victoria	2	Febrero	2023-08-02T00:00:00	2024-11-08T17:00:00	2	Temperatura media	15.1
88702	7	Sololá	701	Sololá	4	Finca Santa Victoria	2	Febrero	2023-08-02T00:00:00	2024-11-08T17:00:00	4	Temperatura máxima	16.1
88703	7	Sololá	701	Sololá	4	Finca Santa Victoria	2	Febrero	2023-08-02T00:00:00	2024-11-08T17:00:00	3	Temperatura mínima	15.1
88704	7	Sololá	701	Sololá	4	Finca Santa Victoria	2	Febrero	2023-08-02T00:00:00	2024-11-08T17:00:00	5	Humedad	91
88705	7	Sololá	701	Sololá	4	Finca Santa Victoria	2	Febrero	2023-08-02T00:00:00	2024-11-08T17:00:00	6	Velocidad del viento	1.6
88706	7	Sololá	701	Sololá	4	Finca Santa Victoria	2	Febrero	2023-08-02T00:00:00	2024-11-08T17:00:00	7	Dirección del viento	1.61
88707	7	Sololá	701	Sololá	4	Finca Santa Victoria	2	Febrero	2023-08-02T00:00:00	2024-11-08T17:00:00	1	Precipitación	0.2
88708	7	Sololá	701	Sololá	4	Finca Santa Victoria	2	Febrero	2023-08-02T00:00:00	2024-11-08T17:00:00	8	Radiación solar	38
88709	7	Sololá	701	Sololá	4	Finca Santa Victoria	2	Febrero	2023-08-02T00:00:00	2024-11-08T18:00:00	2	Temperatura media	14.6
88710	7	Sololá	701	Sololá	4	Finca Santa Victoria	2	Febrero	2023-08-02T00:00:00	2024-11-08T18:00:00	4	Temperatura máxima	15.3
88711	7	Sololá	701	Sololá	4	Finca Santa Victoria	2	Febrero	2023-08-02T00:00:00	2024-11-08T18:00:00	3	Temperatura mínima	14.6
88712	7	Sololá	701	Sololá	4	Finca Santa Victoria	2	Febrero	2023-08-02T00:00:00	2024-11-08T18:00:00	5	Humedad	87
88713	7	Sololá	701	Sololá	4	Finca Santa Victoria	2	Febrero	2023-08-02T00:00:00	2024-11-08T18:00:00	6	Velocidad del viento	0
88714	7	Sololá	701	Sololá	4	Finca Santa Victoria	2	Febrero	2023-08-02T00:00:00	2024-11-08T18:00:00	7	Dirección del viento	0
88715	7	Sololá	701	Sololá	4	Finca Santa Victoria	2	Febrero	2023-08-02T00:00:00	2024-11-08T18:00:00	1	Precipitación	0
88716	7	Sololá	701	Sololá	4	Finca Santa Victoria	2	Febrero	2023-08-02T00:00:00	2024-11-08T18:00:00	8	Radiación solar	36
88717	7	Sololá	701	Sololá	4	Finca Santa Victoria	2	Febrero	2023-08-02T00:00:00	2024-11-08T19:00:00	2	Temperatura media	13.1
88718	7	Sololá	701	Sololá	4	Finca Santa Victoria	2	Febrero	2023-08-02T00:00:00	2024-11-08T19:00:00	4	Temperatura máxima	14.6
88719	7	Sololá	701	Sololá	4	Finca Santa Victoria	2	Febrero	2023-08-02T00:00:00	2024-11-08T19:00:00	3	Temperatura mínima	13.1
88720	7	Sololá	701	Sololá	4	Finca Santa Victoria	2	Febrero	2023-08-02T00:00:00	2024-11-08T19:00:00	5	Humedad	82
88721	7	Sololá	701	Sololá	4	Finca Santa Victoria	2	Febrero	2023-08-02T00:00:00	2024-11-08T19:00:00	6	Velocidad del viento	0
88722	7	Sololá	701	Sololá	4	Finca Santa Victoria	2	Febrero	2023-08-02T00:00:00	2024-11-08T19:00:00	7	Dirección del viento	0
88723	7	Sololá	701	Sololá	4	Finca Santa Victoria	2	Febrero	2023-08-02T00:00:00	2024-11-08T19:00:00	1	Precipitación	0
88724	7	Sololá	701	Sololá	4	Finca Santa Victoria	2	Febrero	2023-08-02T00:00:00	2024-11-08T19:00:00	8	Radiación solar	0
88725	7	Sololá	701	Sololá	4	Finca Santa Victoria	2	Febrero	2023-08-02T00:00:00	2024-11-08T20:00:00	2	Temperatura media	12.5
88726	7	Sololá	701	Sololá	4	Finca Santa Victoria	2	Febrero	2023-08-02T00:00:00	2024-11-08T20:00:00	4	Temperatura máxima	13.1
88727	7	Sololá	701	Sololá	4	Finca Santa Victoria	2	Febrero	2023-08-02T00:00:00	2024-11-08T20:00:00	3	Temperatura mínima	12.4
88728	7	Sololá	701	Sololá	4	Finca Santa Victoria	2	Febrero	2023-08-02T00:00:00	2024-11-08T20:00:00	5	Humedad	87
88729	7	Sololá	701	Sololá	4	Finca Santa Victoria	2	Febrero	2023-08-02T00:00:00	2024-11-08T20:00:00	6	Velocidad del viento	0
88730	7	Sololá	701	Sololá	4	Finca Santa Victoria	2	Febrero	2023-08-02T00:00:00	2024-11-08T20:00:00	7	Dirección del viento	0
88731	7	Sololá	701	Sololá	4	Finca Santa Victoria	2	Febrero	2023-08-02T00:00:00	2024-11-08T20:00:00	1	Precipitación	0
88732	7	Sololá	701	Sololá	4	Finca Santa Victoria	2	Febrero	2023-08-02T00:00:00	2024-11-08T20:00:00	8	Radiación solar	0
88733	7	Sololá	701	Sololá	4	Finca Santa Victoria	2	Febrero	2023-08-02T00:00:00	2024-11-08T21:00:00	2	Temperatura media	12.6
88734	7	Sololá	701	Sololá	4	Finca Santa Victoria	2	Febrero	2023-08-02T00:00:00	2024-11-08T21:00:00	4	Temperatura máxima	13.1
88735	7	Sololá	701	Sololá	4	Finca Santa Victoria	2	Febrero	2023-08-02T00:00:00	2024-11-08T21:00:00	3	Temperatura mínima	12.5
88736	7	Sololá	701	Sololá	4	Finca Santa Victoria	2	Febrero	2023-08-02T00:00:00	2024-11-08T21:00:00	5	Humedad	91
88737	7	Sololá	701	Sololá	4	Finca Santa Victoria	2	Febrero	2023-08-02T00:00:00	2024-11-08T21:00:00	6	Velocidad del viento	3.2
88738	7	Sololá	701	Sololá	4	Finca Santa Victoria	2	Febrero	2023-08-02T00:00:00	2024-11-08T21:00:00	7	Dirección del viento	3.22
88739	7	Sololá	701	Sololá	4	Finca Santa Victoria	2	Febrero	2023-08-02T00:00:00	2024-11-08T21:00:00	1	Precipitación	0
88740	7	Sololá	701	Sololá	4	Finca Santa Victoria	2	Febrero	2023-08-02T00:00:00	2024-11-08T21:00:00	8	Radiación solar	0
88741	7	Sololá	701	Sololá	4	Finca Santa Victoria	2	Febrero	2023-08-02T00:00:00	2024-11-08T22:00:00	2	Temperatura media	12.7
88742	7	Sololá	701	Sololá	4	Finca Santa Victoria	2	Febrero	2023-08-02T00:00:00	2024-11-08T22:00:00	4	Temperatura máxima	12.8
88743	7	Sololá	701	Sololá	4	Finca Santa Victoria	2	Febrero	2023-08-02T00:00:00	2024-11-08T22:00:00	3	Temperatura mínima	12.6
88744	7	Sololá	701	Sololá	4	Finca Santa Victoria	2	Febrero	2023-08-02T00:00:00	2024-11-08T22:00:00	5	Humedad	90
88745	7	Sololá	701	Sololá	4	Finca Santa Victoria	2	Febrero	2023-08-02T00:00:00	2024-11-08T22:00:00	6	Velocidad del viento	1.6
88746	7	Sololá	701	Sololá	4	Finca Santa Victoria	2	Febrero	2023-08-02T00:00:00	2024-11-08T22:00:00	7	Dirección del viento	1.61
88747	7	Sololá	701	Sololá	4	Finca Santa Victoria	2	Febrero	2023-08-02T00:00:00	2024-11-08T22:00:00	1	Precipitación	0
88748	7	Sololá	701	Sololá	4	Finca Santa Victoria	2	Febrero	2023-08-02T00:00:00	2024-11-08T22:00:00	8	Radiación solar	0
88749	7	Sololá	701	Sololá	4	Finca Santa Victoria	2	Febrero	2023-08-02T00:00:00	2024-11-08T23:00:00	2	Temperatura media	12.2
88750	7	Sololá	701	Sololá	4	Finca Santa Victoria	2	Febrero	2023-08-02T00:00:00	2024-11-08T23:00:00	4	Temperatura máxima	12.8
88751	7	Sololá	701	Sololá	4	Finca Santa Victoria	2	Febrero	2023-08-02T00:00:00	2024-11-08T23:00:00	3	Temperatura mínima	12.2
88752	7	Sololá	701	Sololá	4	Finca Santa Victoria	2	Febrero	2023-08-02T00:00:00	2024-11-08T23:00:00	5	Humedad	90
88753	7	Sololá	701	Sololá	4	Finca Santa Victoria	2	Febrero	2023-08-02T00:00:00	2024-11-08T23:00:00	6	Velocidad del viento	1.6
88754	7	Sololá	701	Sololá	4	Finca Santa Victoria	2	Febrero	2023-08-02T00:00:00	2024-11-08T23:00:00	7	Dirección del viento	1.61
88755	7	Sololá	701	Sololá	4	Finca Santa Victoria	2	Febrero	2023-08-02T00:00:00	2024-11-08T23:00:00	1	Precipitación	0
88756	7	Sololá	701	Sololá	4	Finca Santa Victoria	2	Febrero	2023-08-02T00:00:00	2024-11-08T23:00:00	8	Radiación solar	0
88757	7	Sololá	701	Sololá	4	Finca Santa Victoria	2	Febrero	2023-09-02T00:00:00	2024-11-08T00:00:00	2	Temperatura media	11.6
88758	7	Sololá	701	Sololá	4	Finca Santa Victoria	2	Febrero	2023-09-02T00:00:00	2024-11-08T00:00:00	4	Temperatura máxima	12.3
88759	7	Sololá	701	Sololá	4	Finca Santa Victoria	2	Febrero	2023-09-02T00:00:00	2024-11-08T00:00:00	3	Temperatura mínima	11.6
88760	7	Sololá	701	Sololá	4	Finca Santa Victoria	2	Febrero	2023-09-02T00:00:00	2024-11-08T00:00:00	5	Humedad	89
88761	7	Sololá	701	Sololá	4	Finca Santa Victoria	2	Febrero	2023-09-02T00:00:00	2024-11-08T00:00:00	6	Velocidad del viento	0
88762	7	Sololá	701	Sololá	4	Finca Santa Victoria	2	Febrero	2023-09-02T00:00:00	2024-11-08T00:00:00	7	Dirección del viento	0
88763	7	Sololá	701	Sololá	4	Finca Santa Victoria	2	Febrero	2023-09-02T00:00:00	2024-11-08T00:00:00	1	Precipitación	0
88764	7	Sololá	701	Sololá	4	Finca Santa Victoria	2	Febrero	2023-09-02T00:00:00	2024-11-08T00:00:00	8	Radiación solar	0
88765	7	Sololá	701	Sololá	4	Finca Santa Victoria	2	Febrero	2023-09-02T00:00:00	2024-11-08T01:00:00	2	Temperatura media	11.7
88766	7	Sololá	701	Sololá	4	Finca Santa Victoria	2	Febrero	2023-09-02T00:00:00	2024-11-08T01:00:00	4	Temperatura máxima	11.7
88767	7	Sololá	701	Sololá	4	Finca Santa Victoria	2	Febrero	2023-09-02T00:00:00	2024-11-08T01:00:00	3	Temperatura mínima	11.4
88768	7	Sololá	701	Sololá	4	Finca Santa Victoria	2	Febrero	2023-09-02T00:00:00	2024-11-08T01:00:00	5	Humedad	86
88769	7	Sololá	701	Sololá	4	Finca Santa Victoria	2	Febrero	2023-09-02T00:00:00	2024-11-08T01:00:00	6	Velocidad del viento	1.6
88770	7	Sololá	701	Sololá	4	Finca Santa Victoria	2	Febrero	2023-09-02T00:00:00	2024-11-08T01:00:00	7	Dirección del viento	1.61
88771	7	Sololá	701	Sololá	4	Finca Santa Victoria	2	Febrero	2023-09-02T00:00:00	2024-11-08T01:00:00	1	Precipitación	0
88772	7	Sololá	701	Sololá	4	Finca Santa Victoria	2	Febrero	2023-09-02T00:00:00	2024-11-08T01:00:00	8	Radiación solar	0
88773	7	Sololá	701	Sololá	4	Finca Santa Victoria	2	Febrero	2023-09-02T00:00:00	2024-11-08T02:00:00	2	Temperatura media	11.8
88774	7	Sololá	701	Sololá	4	Finca Santa Victoria	2	Febrero	2023-09-02T00:00:00	2024-11-08T02:00:00	4	Temperatura máxima	12.1
88775	7	Sololá	701	Sololá	4	Finca Santa Victoria	2	Febrero	2023-09-02T00:00:00	2024-11-08T02:00:00	3	Temperatura mínima	11.6
88776	7	Sololá	701	Sololá	4	Finca Santa Victoria	2	Febrero	2023-09-02T00:00:00	2024-11-08T02:00:00	5	Humedad	83
88777	7	Sololá	701	Sololá	4	Finca Santa Victoria	2	Febrero	2023-09-02T00:00:00	2024-11-08T02:00:00	6	Velocidad del viento	1.6
88778	7	Sololá	701	Sololá	4	Finca Santa Victoria	2	Febrero	2023-09-02T00:00:00	2024-11-08T02:00:00	7	Dirección del viento	1.61
88779	7	Sololá	701	Sololá	4	Finca Santa Victoria	2	Febrero	2023-09-02T00:00:00	2024-11-08T02:00:00	1	Precipitación	0
88780	7	Sololá	701	Sololá	4	Finca Santa Victoria	2	Febrero	2023-09-02T00:00:00	2024-11-08T02:00:00	8	Radiación solar	0
88781	7	Sololá	701	Sololá	4	Finca Santa Victoria	2	Febrero	2023-09-02T00:00:00	2024-11-08T03:00:00	2	Temperatura media	11.5
88782	7	Sololá	701	Sololá	4	Finca Santa Victoria	2	Febrero	2023-09-02T00:00:00	2024-11-08T03:00:00	4	Temperatura máxima	12.1
88783	7	Sololá	701	Sololá	4	Finca Santa Victoria	2	Febrero	2023-09-02T00:00:00	2024-11-08T03:00:00	3	Temperatura mínima	11.4
88784	7	Sololá	701	Sololá	4	Finca Santa Victoria	2	Febrero	2023-09-02T00:00:00	2024-11-08T03:00:00	5	Humedad	77
88785	7	Sololá	701	Sololá	4	Finca Santa Victoria	2	Febrero	2023-09-02T00:00:00	2024-11-08T03:00:00	6	Velocidad del viento	1.6
88786	7	Sololá	701	Sololá	4	Finca Santa Victoria	2	Febrero	2023-09-02T00:00:00	2024-11-08T03:00:00	7	Dirección del viento	1.61
88787	7	Sololá	701	Sololá	4	Finca Santa Victoria	2	Febrero	2023-09-02T00:00:00	2024-11-08T03:00:00	1	Precipitación	0
88788	7	Sololá	701	Sololá	4	Finca Santa Victoria	2	Febrero	2023-09-02T00:00:00	2024-11-08T03:00:00	8	Radiación solar	0
88789	7	Sololá	701	Sololá	4	Finca Santa Victoria	2	Febrero	2023-09-02T00:00:00	2024-11-08T04:00:00	2	Temperatura media	11.3
88790	7	Sololá	701	Sololá	4	Finca Santa Victoria	2	Febrero	2023-09-02T00:00:00	2024-11-08T04:00:00	4	Temperatura máxima	11.6
88791	7	Sololá	701	Sololá	4	Finca Santa Victoria	2	Febrero	2023-09-02T00:00:00	2024-11-08T04:00:00	3	Temperatura mínima	11.1
88792	7	Sololá	701	Sololá	4	Finca Santa Victoria	2	Febrero	2023-09-02T00:00:00	2024-11-08T04:00:00	5	Humedad	78
88793	7	Sololá	701	Sololá	4	Finca Santa Victoria	2	Febrero	2023-09-02T00:00:00	2024-11-08T04:00:00	6	Velocidad del viento	1.6
88794	7	Sololá	701	Sololá	4	Finca Santa Victoria	2	Febrero	2023-09-02T00:00:00	2024-11-08T04:00:00	7	Dirección del viento	1.61
88795	7	Sololá	701	Sololá	4	Finca Santa Victoria	2	Febrero	2023-09-02T00:00:00	2024-11-08T04:00:00	1	Precipitación	0
88796	7	Sololá	701	Sololá	4	Finca Santa Victoria	2	Febrero	2023-09-02T00:00:00	2024-11-08T04:00:00	8	Radiación solar	0
88797	7	Sololá	701	Sololá	4	Finca Santa Victoria	2	Febrero	2023-09-02T00:00:00	2024-11-08T05:00:00	2	Temperatura media	10.1
88798	7	Sololá	701	Sololá	4	Finca Santa Victoria	2	Febrero	2023-09-02T00:00:00	2024-11-08T05:00:00	4	Temperatura máxima	11.4
88799	7	Sololá	701	Sololá	4	Finca Santa Victoria	2	Febrero	2023-09-02T00:00:00	2024-11-08T05:00:00	3	Temperatura mínima	10.1
88800	7	Sololá	701	Sololá	4	Finca Santa Victoria	2	Febrero	2023-09-02T00:00:00	2024-11-08T05:00:00	5	Humedad	80
88801	7	Sololá	701	Sololá	4	Finca Santa Victoria	2	Febrero	2023-09-02T00:00:00	2024-11-08T05:00:00	6	Velocidad del viento	0
88802	7	Sololá	701	Sololá	4	Finca Santa Victoria	2	Febrero	2023-09-02T00:00:00	2024-11-08T05:00:00	7	Dirección del viento	0
88803	7	Sololá	701	Sololá	4	Finca Santa Victoria	2	Febrero	2023-09-02T00:00:00	2024-11-08T05:00:00	1	Precipitación	0
88804	7	Sololá	701	Sololá	4	Finca Santa Victoria	2	Febrero	2023-09-02T00:00:00	2024-11-08T05:00:00	8	Radiación solar	0
88805	7	Sololá	701	Sololá	4	Finca Santa Victoria	2	Febrero	2023-09-02T00:00:00	2024-11-08T06:00:00	2	Temperatura media	8.6
88806	7	Sololá	701	Sololá	4	Finca Santa Victoria	2	Febrero	2023-09-02T00:00:00	2024-11-08T06:00:00	4	Temperatura máxima	10.1
88807	7	Sololá	701	Sololá	4	Finca Santa Victoria	2	Febrero	2023-09-02T00:00:00	2024-11-08T06:00:00	3	Temperatura mínima	8.6
88808	7	Sololá	701	Sololá	4	Finca Santa Victoria	2	Febrero	2023-09-02T00:00:00	2024-11-08T06:00:00	5	Humedad	92
88809	7	Sololá	701	Sololá	4	Finca Santa Victoria	2	Febrero	2023-09-02T00:00:00	2024-11-08T06:00:00	6	Velocidad del viento	1.6
88810	7	Sololá	701	Sololá	4	Finca Santa Victoria	2	Febrero	2023-09-02T00:00:00	2024-11-08T06:00:00	7	Dirección del viento	1.61
88811	7	Sololá	701	Sololá	4	Finca Santa Victoria	2	Febrero	2023-09-02T00:00:00	2024-11-08T06:00:00	1	Precipitación	0
88812	7	Sololá	701	Sololá	4	Finca Santa Victoria	2	Febrero	2023-09-02T00:00:00	2024-11-08T06:00:00	8	Radiación solar	0
88813	7	Sololá	701	Sololá	4	Finca Santa Victoria	2	Febrero	2023-09-02T00:00:00	2024-11-08T07:00:00	2	Temperatura media	10
88814	7	Sololá	701	Sololá	4	Finca Santa Victoria	2	Febrero	2023-09-02T00:00:00	2024-11-08T07:00:00	4	Temperatura máxima	10
88815	7	Sololá	701	Sololá	4	Finca Santa Victoria	2	Febrero	2023-09-02T00:00:00	2024-11-08T07:00:00	3	Temperatura mínima	8.4
88816	7	Sololá	701	Sololá	4	Finca Santa Victoria	2	Febrero	2023-09-02T00:00:00	2024-11-08T07:00:00	5	Humedad	87
88817	7	Sololá	701	Sololá	4	Finca Santa Victoria	2	Febrero	2023-09-02T00:00:00	2024-11-08T07:00:00	6	Velocidad del viento	1.6
88818	7	Sololá	701	Sololá	4	Finca Santa Victoria	2	Febrero	2023-09-02T00:00:00	2024-11-08T07:00:00	7	Dirección del viento	1.61
88819	7	Sololá	701	Sololá	4	Finca Santa Victoria	2	Febrero	2023-09-02T00:00:00	2024-11-08T07:00:00	1	Precipitación	0
88820	7	Sololá	701	Sololá	4	Finca Santa Victoria	2	Febrero	2023-09-02T00:00:00	2024-11-08T07:00:00	8	Radiación solar	4
88821	7	Sololá	701	Sololá	4	Finca Santa Victoria	2	Febrero	2023-09-02T00:00:00	2024-11-08T08:00:00	2	Temperatura media	12.3
88822	7	Sololá	701	Sololá	4	Finca Santa Victoria	2	Febrero	2023-09-02T00:00:00	2024-11-08T08:00:00	4	Temperatura máxima	12.3
88823	7	Sololá	701	Sololá	4	Finca Santa Victoria	2	Febrero	2023-09-02T00:00:00	2024-11-08T08:00:00	3	Temperatura mínima	10
88824	7	Sololá	701	Sololá	4	Finca Santa Victoria	2	Febrero	2023-09-02T00:00:00	2024-11-08T08:00:00	5	Humedad	74
88825	7	Sololá	701	Sololá	4	Finca Santa Victoria	2	Febrero	2023-09-02T00:00:00	2024-11-08T08:00:00	6	Velocidad del viento	1.6
88826	7	Sololá	701	Sololá	4	Finca Santa Victoria	2	Febrero	2023-09-02T00:00:00	2024-11-08T08:00:00	7	Dirección del viento	1.61
88827	7	Sololá	701	Sololá	4	Finca Santa Victoria	2	Febrero	2023-09-02T00:00:00	2024-11-08T08:00:00	1	Precipitación	0
88828	7	Sololá	701	Sololá	4	Finca Santa Victoria	2	Febrero	2023-09-02T00:00:00	2024-11-08T08:00:00	8	Radiación solar	34
88829	7	Sololá	701	Sololá	4	Finca Santa Victoria	2	Febrero	2023-09-02T00:00:00	2024-11-08T09:00:00	2	Temperatura media	15.7
88830	7	Sololá	701	Sololá	4	Finca Santa Victoria	2	Febrero	2023-09-02T00:00:00	2024-11-08T09:00:00	4	Temperatura máxima	15.7
88831	7	Sololá	701	Sololá	4	Finca Santa Victoria	2	Febrero	2023-09-02T00:00:00	2024-11-08T09:00:00	3	Temperatura mínima	12.3
88832	7	Sololá	701	Sololá	4	Finca Santa Victoria	2	Febrero	2023-09-02T00:00:00	2024-11-08T09:00:00	5	Humedad	63
88833	7	Sololá	701	Sololá	4	Finca Santa Victoria	2	Febrero	2023-09-02T00:00:00	2024-11-08T09:00:00	6	Velocidad del viento	1.6
88834	7	Sololá	701	Sololá	4	Finca Santa Victoria	2	Febrero	2023-09-02T00:00:00	2024-11-08T09:00:00	7	Dirección del viento	1.61
88835	7	Sololá	701	Sololá	4	Finca Santa Victoria	2	Febrero	2023-09-02T00:00:00	2024-11-08T09:00:00	1	Precipitación	0
88836	7	Sololá	701	Sololá	4	Finca Santa Victoria	2	Febrero	2023-09-02T00:00:00	2024-11-08T09:00:00	8	Radiación solar	198
88837	7	Sololá	701	Sololá	4	Finca Santa Victoria	2	Febrero	2023-09-02T00:00:00	2024-11-08T10:00:00	2	Temperatura media	18.6
88838	7	Sololá	701	Sololá	4	Finca Santa Victoria	2	Febrero	2023-09-02T00:00:00	2024-11-08T10:00:00	4	Temperatura máxima	18.6
88839	7	Sololá	701	Sololá	4	Finca Santa Victoria	2	Febrero	2023-09-02T00:00:00	2024-11-08T10:00:00	3	Temperatura mínima	15.7
88840	7	Sololá	701	Sololá	4	Finca Santa Victoria	2	Febrero	2023-09-02T00:00:00	2024-11-08T10:00:00	5	Humedad	46
88841	7	Sololá	701	Sololá	4	Finca Santa Victoria	2	Febrero	2023-09-02T00:00:00	2024-11-08T10:00:00	6	Velocidad del viento	3.2
88842	7	Sololá	701	Sololá	4	Finca Santa Victoria	2	Febrero	2023-09-02T00:00:00	2024-11-08T10:00:00	7	Dirección del viento	3.22
88843	7	Sololá	701	Sololá	4	Finca Santa Victoria	2	Febrero	2023-09-02T00:00:00	2024-11-08T10:00:00	1	Precipitación	0
88844	7	Sololá	701	Sololá	4	Finca Santa Victoria	2	Febrero	2023-09-02T00:00:00	2024-11-08T10:00:00	8	Radiación solar	487
88845	7	Sololá	701	Sololá	4	Finca Santa Victoria	2	Febrero	2023-09-02T00:00:00	2024-11-08T11:00:00	2	Temperatura media	19.9
88846	7	Sololá	701	Sololá	4	Finca Santa Victoria	2	Febrero	2023-09-02T00:00:00	2024-11-08T11:00:00	4	Temperatura máxima	20.2
88847	7	Sololá	701	Sololá	4	Finca Santa Victoria	2	Febrero	2023-09-02T00:00:00	2024-11-08T11:00:00	3	Temperatura mínima	18.5
88848	7	Sololá	701	Sololá	4	Finca Santa Victoria	2	Febrero	2023-09-02T00:00:00	2024-11-08T11:00:00	5	Humedad	40
88849	7	Sololá	701	Sololá	4	Finca Santa Victoria	2	Febrero	2023-09-02T00:00:00	2024-11-08T11:00:00	6	Velocidad del viento	3.2
88850	7	Sololá	701	Sololá	4	Finca Santa Victoria	2	Febrero	2023-09-02T00:00:00	2024-11-08T11:00:00	7	Dirección del viento	3.22
88851	7	Sololá	701	Sololá	4	Finca Santa Victoria	2	Febrero	2023-09-02T00:00:00	2024-11-08T11:00:00	1	Precipitación	0
88852	7	Sololá	701	Sololá	4	Finca Santa Victoria	2	Febrero	2023-09-02T00:00:00	2024-11-08T11:00:00	8	Radiación solar	845
88853	7	Sololá	701	Sololá	4	Finca Santa Victoria	2	Febrero	2023-09-02T00:00:00	2024-11-08T12:00:00	2	Temperatura media	20.6
88854	7	Sololá	701	Sololá	4	Finca Santa Victoria	2	Febrero	2023-09-02T00:00:00	2024-11-08T12:00:00	4	Temperatura máxima	20.6
88855	7	Sololá	701	Sololá	4	Finca Santa Victoria	2	Febrero	2023-09-02T00:00:00	2024-11-08T12:00:00	3	Temperatura mínima	19.8
88856	7	Sololá	701	Sololá	4	Finca Santa Victoria	2	Febrero	2023-09-02T00:00:00	2024-11-08T12:00:00	5	Humedad	49
88857	7	Sololá	701	Sololá	4	Finca Santa Victoria	2	Febrero	2023-09-02T00:00:00	2024-11-08T12:00:00	6	Velocidad del viento	4.8
88858	7	Sololá	701	Sololá	4	Finca Santa Victoria	2	Febrero	2023-09-02T00:00:00	2024-11-08T12:00:00	7	Dirección del viento	4.83
88859	7	Sololá	701	Sololá	4	Finca Santa Victoria	2	Febrero	2023-09-02T00:00:00	2024-11-08T12:00:00	1	Precipitación	0
88860	7	Sololá	701	Sololá	4	Finca Santa Victoria	2	Febrero	2023-09-02T00:00:00	2024-11-08T12:00:00	8	Radiación solar	934
88861	7	Sololá	701	Sololá	4	Finca Santa Victoria	2	Febrero	2023-09-02T00:00:00	2024-11-08T13:00:00	2	Temperatura media	21.4
88862	7	Sololá	701	Sololá	4	Finca Santa Victoria	2	Febrero	2023-09-02T00:00:00	2024-11-08T13:00:00	4	Temperatura máxima	21.4
88863	7	Sololá	701	Sololá	4	Finca Santa Victoria	2	Febrero	2023-09-02T00:00:00	2024-11-08T13:00:00	3	Temperatura mínima	20.6
88864	7	Sololá	701	Sololá	4	Finca Santa Victoria	2	Febrero	2023-09-02T00:00:00	2024-11-08T13:00:00	5	Humedad	36
88865	7	Sololá	701	Sololá	4	Finca Santa Victoria	2	Febrero	2023-09-02T00:00:00	2024-11-08T13:00:00	6	Velocidad del viento	4.8
88866	7	Sololá	701	Sololá	4	Finca Santa Victoria	2	Febrero	2023-09-02T00:00:00	2024-11-08T13:00:00	7	Dirección del viento	4.83
88867	7	Sololá	701	Sololá	4	Finca Santa Victoria	2	Febrero	2023-09-02T00:00:00	2024-11-08T13:00:00	1	Precipitación	0
88868	7	Sololá	701	Sololá	4	Finca Santa Victoria	2	Febrero	2023-09-02T00:00:00	2024-11-08T13:00:00	8	Radiación solar	956
88869	7	Sololá	701	Sololá	4	Finca Santa Victoria	2	Febrero	2023-09-02T00:00:00	2024-11-08T14:00:00	2	Temperatura media	21.7
88870	7	Sololá	701	Sololá	4	Finca Santa Victoria	2	Febrero	2023-09-02T00:00:00	2024-11-08T14:00:00	4	Temperatura máxima	22.2
88871	7	Sololá	701	Sololá	4	Finca Santa Victoria	2	Febrero	2023-09-02T00:00:00	2024-11-08T14:00:00	3	Temperatura mínima	21.4
88872	7	Sololá	701	Sololá	4	Finca Santa Victoria	2	Febrero	2023-09-02T00:00:00	2024-11-08T14:00:00	5	Humedad	39
88873	7	Sololá	701	Sololá	4	Finca Santa Victoria	2	Febrero	2023-09-02T00:00:00	2024-11-08T14:00:00	6	Velocidad del viento	6.4
88874	7	Sololá	701	Sololá	4	Finca Santa Victoria	2	Febrero	2023-09-02T00:00:00	2024-11-08T14:00:00	7	Dirección del viento	6.44
88875	7	Sololá	701	Sololá	4	Finca Santa Victoria	2	Febrero	2023-09-02T00:00:00	2024-11-08T14:00:00	1	Precipitación	0
88876	7	Sololá	701	Sololá	4	Finca Santa Victoria	2	Febrero	2023-09-02T00:00:00	2024-11-08T14:00:00	8	Radiación solar	884
88877	7	Sololá	701	Sololá	4	Finca Santa Victoria	2	Febrero	2023-09-02T00:00:00	2024-11-08T15:00:00	2	Temperatura media	19.9
88878	7	Sololá	701	Sololá	4	Finca Santa Victoria	2	Febrero	2023-09-02T00:00:00	2024-11-08T15:00:00	4	Temperatura máxima	22.2
88879	7	Sololá	701	Sololá	4	Finca Santa Victoria	2	Febrero	2023-09-02T00:00:00	2024-11-08T15:00:00	3	Temperatura mínima	19.9
88880	7	Sololá	701	Sololá	4	Finca Santa Victoria	2	Febrero	2023-09-02T00:00:00	2024-11-08T15:00:00	5	Humedad	54
88881	7	Sololá	701	Sololá	4	Finca Santa Victoria	2	Febrero	2023-09-02T00:00:00	2024-11-08T15:00:00	6	Velocidad del viento	4.8
88882	7	Sololá	701	Sololá	4	Finca Santa Victoria	2	Febrero	2023-09-02T00:00:00	2024-11-08T15:00:00	7	Dirección del viento	4.83
88883	7	Sololá	701	Sololá	4	Finca Santa Victoria	2	Febrero	2023-09-02T00:00:00	2024-11-08T15:00:00	1	Precipitación	0
88884	7	Sololá	701	Sololá	4	Finca Santa Victoria	2	Febrero	2023-09-02T00:00:00	2024-11-08T15:00:00	8	Radiación solar	660
88885	7	Sololá	701	Sololá	4	Finca Santa Victoria	2	Febrero	2023-09-02T00:00:00	2024-11-08T16:00:00	2	Temperatura media	18.9
88886	7	Sololá	701	Sololá	4	Finca Santa Victoria	2	Febrero	2023-09-02T00:00:00	2024-11-08T16:00:00	4	Temperatura máxima	21.2
88887	7	Sololá	701	Sololá	4	Finca Santa Victoria	2	Febrero	2023-09-02T00:00:00	2024-11-08T16:00:00	3	Temperatura mínima	18.9
88888	7	Sololá	701	Sololá	4	Finca Santa Victoria	2	Febrero	2023-09-02T00:00:00	2024-11-08T16:00:00	5	Humedad	52
88889	7	Sololá	701	Sololá	4	Finca Santa Victoria	2	Febrero	2023-09-02T00:00:00	2024-11-08T16:00:00	6	Velocidad del viento	3.2
88890	7	Sololá	701	Sololá	4	Finca Santa Victoria	2	Febrero	2023-09-02T00:00:00	2024-11-08T16:00:00	7	Dirección del viento	3.22
88891	7	Sololá	701	Sololá	4	Finca Santa Victoria	2	Febrero	2023-09-02T00:00:00	2024-11-08T16:00:00	1	Precipitación	0
88892	7	Sololá	701	Sololá	4	Finca Santa Victoria	2	Febrero	2023-09-02T00:00:00	2024-11-08T16:00:00	8	Radiación solar	282
88893	7	Sololá	701	Sololá	4	Finca Santa Victoria	2	Febrero	2023-09-02T00:00:00	2024-11-08T17:00:00	2	Temperatura media	18.2
88894	7	Sololá	701	Sololá	4	Finca Santa Victoria	2	Febrero	2023-09-02T00:00:00	2024-11-08T17:00:00	4	Temperatura máxima	20
88895	7	Sololá	701	Sololá	4	Finca Santa Victoria	2	Febrero	2023-09-02T00:00:00	2024-11-08T17:00:00	3	Temperatura mínima	18.2
88896	7	Sololá	701	Sololá	4	Finca Santa Victoria	2	Febrero	2023-09-02T00:00:00	2024-11-08T17:00:00	5	Humedad	53
88897	7	Sololá	701	Sololá	4	Finca Santa Victoria	2	Febrero	2023-09-02T00:00:00	2024-11-08T17:00:00	6	Velocidad del viento	4.8
88898	7	Sololá	701	Sololá	4	Finca Santa Victoria	2	Febrero	2023-09-02T00:00:00	2024-11-08T17:00:00	7	Dirección del viento	4.83
88899	7	Sololá	701	Sololá	4	Finca Santa Victoria	2	Febrero	2023-09-02T00:00:00	2024-11-08T17:00:00	1	Precipitación	0
88900	7	Sololá	701	Sololá	4	Finca Santa Victoria	2	Febrero	2023-09-02T00:00:00	2024-11-08T17:00:00	8	Radiación solar	211
88901	7	Sololá	701	Sololá	4	Finca Santa Victoria	2	Febrero	2023-09-02T00:00:00	2024-11-08T18:00:00	2	Temperatura media	15.4
88902	7	Sololá	701	Sololá	4	Finca Santa Victoria	2	Febrero	2023-09-02T00:00:00	2024-11-08T18:00:00	4	Temperatura máxima	18.4
88903	7	Sololá	701	Sololá	4	Finca Santa Victoria	2	Febrero	2023-09-02T00:00:00	2024-11-08T18:00:00	3	Temperatura mínima	15.3
88904	7	Sololá	701	Sololá	4	Finca Santa Victoria	2	Febrero	2023-09-02T00:00:00	2024-11-08T18:00:00	5	Humedad	64
88905	7	Sololá	701	Sololá	4	Finca Santa Victoria	2	Febrero	2023-09-02T00:00:00	2024-11-08T18:00:00	6	Velocidad del viento	3.2
88906	7	Sololá	701	Sololá	4	Finca Santa Victoria	2	Febrero	2023-09-02T00:00:00	2024-11-08T18:00:00	7	Dirección del viento	3.22
88907	7	Sololá	701	Sololá	4	Finca Santa Victoria	2	Febrero	2023-09-02T00:00:00	2024-11-08T18:00:00	1	Precipitación	0
88908	7	Sololá	701	Sololá	4	Finca Santa Victoria	2	Febrero	2023-09-02T00:00:00	2024-11-08T18:00:00	8	Radiación solar	68
88909	7	Sololá	701	Sololá	4	Finca Santa Victoria	2	Febrero	2023-09-02T00:00:00	2024-11-08T19:00:00	2	Temperatura media	13.8
88910	7	Sololá	701	Sololá	4	Finca Santa Victoria	2	Febrero	2023-09-02T00:00:00	2024-11-08T19:00:00	4	Temperatura máxima	15.3
88911	7	Sololá	701	Sololá	4	Finca Santa Victoria	2	Febrero	2023-09-02T00:00:00	2024-11-08T19:00:00	3	Temperatura mínima	13.8
88912	7	Sololá	701	Sololá	4	Finca Santa Victoria	2	Febrero	2023-09-02T00:00:00	2024-11-08T19:00:00	5	Humedad	69
88913	7	Sololá	701	Sololá	4	Finca Santa Victoria	2	Febrero	2023-09-02T00:00:00	2024-11-08T19:00:00	6	Velocidad del viento	3.2
88914	7	Sololá	701	Sololá	4	Finca Santa Victoria	2	Febrero	2023-09-02T00:00:00	2024-11-08T19:00:00	7	Dirección del viento	3.22
88915	7	Sololá	701	Sololá	4	Finca Santa Victoria	2	Febrero	2023-09-02T00:00:00	2024-11-08T19:00:00	1	Precipitación	0
88916	7	Sololá	701	Sololá	4	Finca Santa Victoria	2	Febrero	2023-09-02T00:00:00	2024-11-08T19:00:00	8	Radiación solar	0
88917	7	Sololá	701	Sololá	4	Finca Santa Victoria	2	Febrero	2023-09-02T00:00:00	2024-11-08T20:00:00	2	Temperatura media	12.8
88918	7	Sololá	701	Sololá	4	Finca Santa Victoria	2	Febrero	2023-09-02T00:00:00	2024-11-08T20:00:00	4	Temperatura máxima	13.8
88919	7	Sololá	701	Sololá	4	Finca Santa Victoria	2	Febrero	2023-09-02T00:00:00	2024-11-08T20:00:00	3	Temperatura mínima	12.8
88920	7	Sololá	701	Sololá	4	Finca Santa Victoria	2	Febrero	2023-09-02T00:00:00	2024-11-08T20:00:00	5	Humedad	77
88921	7	Sololá	701	Sololá	4	Finca Santa Victoria	2	Febrero	2023-09-02T00:00:00	2024-11-08T20:00:00	6	Velocidad del viento	3.2
88922	7	Sololá	701	Sololá	4	Finca Santa Victoria	2	Febrero	2023-09-02T00:00:00	2024-11-08T20:00:00	7	Dirección del viento	3.22
88923	7	Sololá	701	Sololá	4	Finca Santa Victoria	2	Febrero	2023-09-02T00:00:00	2024-11-08T20:00:00	1	Precipitación	0
88924	7	Sololá	701	Sololá	4	Finca Santa Victoria	2	Febrero	2023-09-02T00:00:00	2024-11-08T20:00:00	8	Radiación solar	0
88925	7	Sololá	701	Sololá	4	Finca Santa Victoria	2	Febrero	2023-09-02T00:00:00	2024-11-08T21:00:00	2	Temperatura media	12.6
88926	7	Sololá	701	Sololá	4	Finca Santa Victoria	2	Febrero	2023-09-02T00:00:00	2024-11-08T21:00:00	4	Temperatura máxima	12.8
88927	7	Sololá	701	Sololá	4	Finca Santa Victoria	2	Febrero	2023-09-02T00:00:00	2024-11-08T21:00:00	3	Temperatura mínima	12.6
88928	7	Sololá	701	Sololá	4	Finca Santa Victoria	2	Febrero	2023-09-02T00:00:00	2024-11-08T21:00:00	5	Humedad	80
88929	7	Sololá	701	Sololá	4	Finca Santa Victoria	2	Febrero	2023-09-02T00:00:00	2024-11-08T21:00:00	6	Velocidad del viento	3.2
88930	7	Sololá	701	Sololá	4	Finca Santa Victoria	2	Febrero	2023-09-02T00:00:00	2024-11-08T21:00:00	7	Dirección del viento	3.22
88931	7	Sololá	701	Sololá	4	Finca Santa Victoria	2	Febrero	2023-09-02T00:00:00	2024-11-08T21:00:00	1	Precipitación	0
88932	7	Sololá	701	Sololá	4	Finca Santa Victoria	2	Febrero	2023-09-02T00:00:00	2024-11-08T21:00:00	8	Radiación solar	0
88933	7	Sololá	701	Sololá	4	Finca Santa Victoria	2	Febrero	2023-09-02T00:00:00	2024-11-08T22:00:00	2	Temperatura media	11.5
88934	7	Sololá	701	Sololá	4	Finca Santa Victoria	2	Febrero	2023-09-02T00:00:00	2024-11-08T22:00:00	4	Temperatura máxima	12.9
88935	7	Sololá	701	Sololá	4	Finca Santa Victoria	2	Febrero	2023-09-02T00:00:00	2024-11-08T22:00:00	3	Temperatura mínima	11.3
88936	7	Sololá	701	Sololá	4	Finca Santa Victoria	2	Febrero	2023-09-02T00:00:00	2024-11-08T22:00:00	5	Humedad	82
88937	7	Sololá	701	Sololá	4	Finca Santa Victoria	2	Febrero	2023-09-02T00:00:00	2024-11-08T22:00:00	6	Velocidad del viento	3.2
88938	7	Sololá	701	Sololá	4	Finca Santa Victoria	2	Febrero	2023-09-02T00:00:00	2024-11-08T22:00:00	7	Dirección del viento	3.22
88939	7	Sololá	701	Sololá	4	Finca Santa Victoria	2	Febrero	2023-09-02T00:00:00	2024-11-08T22:00:00	1	Precipitación	0
88940	7	Sololá	701	Sololá	4	Finca Santa Victoria	2	Febrero	2023-09-02T00:00:00	2024-11-08T22:00:00	8	Radiación solar	0
88941	7	Sololá	701	Sololá	4	Finca Santa Victoria	2	Febrero	2023-09-02T00:00:00	2024-11-08T23:00:00	2	Temperatura media	11.9
88942	7	Sololá	701	Sololá	4	Finca Santa Victoria	2	Febrero	2023-09-02T00:00:00	2024-11-08T23:00:00	4	Temperatura máxima	12.2
88943	7	Sololá	701	Sololá	4	Finca Santa Victoria	2	Febrero	2023-09-02T00:00:00	2024-11-08T23:00:00	3	Temperatura mínima	11.2
88944	7	Sololá	701	Sololá	4	Finca Santa Victoria	2	Febrero	2023-09-02T00:00:00	2024-11-08T23:00:00	5	Humedad	81
88945	7	Sololá	701	Sololá	4	Finca Santa Victoria	2	Febrero	2023-09-02T00:00:00	2024-11-08T23:00:00	6	Velocidad del viento	3.2
88946	7	Sololá	701	Sololá	4	Finca Santa Victoria	2	Febrero	2023-09-02T00:00:00	2024-11-08T23:00:00	7	Dirección del viento	3.22
88947	7	Sololá	701	Sololá	4	Finca Santa Victoria	2	Febrero	2023-09-02T00:00:00	2024-11-08T23:00:00	1	Precipitación	0
88948	7	Sololá	701	Sololá	4	Finca Santa Victoria	2	Febrero	2023-09-02T00:00:00	2024-11-08T23:00:00	8	Radiación solar	0
88949	7	Sololá	701	Sololá	4	Finca Santa Victoria	2	Febrero	2023-10-02T00:00:00	2024-11-08T00:00:00	2	Temperatura media	11.7
88950	7	Sololá	701	Sololá	4	Finca Santa Victoria	2	Febrero	2023-10-02T00:00:00	2024-11-08T00:00:00	4	Temperatura máxima	12
88951	7	Sololá	701	Sololá	4	Finca Santa Victoria	2	Febrero	2023-10-02T00:00:00	2024-11-08T00:00:00	3	Temperatura mínima	11.7
88952	7	Sololá	701	Sololá	4	Finca Santa Victoria	2	Febrero	2023-10-02T00:00:00	2024-11-08T00:00:00	5	Humedad	82
88953	7	Sololá	701	Sololá	4	Finca Santa Victoria	2	Febrero	2023-10-02T00:00:00	2024-11-08T00:00:00	6	Velocidad del viento	3.2
88954	7	Sololá	701	Sololá	4	Finca Santa Victoria	2	Febrero	2023-10-02T00:00:00	2024-11-08T00:00:00	7	Dirección del viento	3.22
88955	7	Sololá	701	Sololá	4	Finca Santa Victoria	2	Febrero	2023-10-02T00:00:00	2024-11-08T00:00:00	1	Precipitación	0
88956	7	Sololá	701	Sololá	4	Finca Santa Victoria	2	Febrero	2023-10-02T00:00:00	2024-11-08T00:00:00	8	Radiación solar	0
88957	7	Sololá	701	Sololá	4	Finca Santa Victoria	2	Febrero	2023-10-02T00:00:00	2024-11-08T01:00:00	2	Temperatura media	10.7
88958	7	Sololá	701	Sololá	4	Finca Santa Victoria	2	Febrero	2023-10-02T00:00:00	2024-11-08T01:00:00	4	Temperatura máxima	11.7
88959	7	Sololá	701	Sololá	4	Finca Santa Victoria	2	Febrero	2023-10-02T00:00:00	2024-11-08T01:00:00	3	Temperatura mínima	10.7
88960	7	Sololá	701	Sololá	4	Finca Santa Victoria	2	Febrero	2023-10-02T00:00:00	2024-11-08T01:00:00	5	Humedad	86
88961	7	Sololá	701	Sololá	4	Finca Santa Victoria	2	Febrero	2023-10-02T00:00:00	2024-11-08T01:00:00	6	Velocidad del viento	0
88962	7	Sololá	701	Sololá	4	Finca Santa Victoria	2	Febrero	2023-10-02T00:00:00	2024-11-08T01:00:00	7	Dirección del viento	0
88963	7	Sololá	701	Sololá	4	Finca Santa Victoria	2	Febrero	2023-10-02T00:00:00	2024-11-08T01:00:00	1	Precipitación	0
88964	7	Sololá	701	Sololá	4	Finca Santa Victoria	2	Febrero	2023-10-02T00:00:00	2024-11-08T01:00:00	8	Radiación solar	0
88965	7	Sololá	701	Sololá	4	Finca Santa Victoria	2	Febrero	2023-10-02T00:00:00	2024-11-08T02:00:00	2	Temperatura media	10.6
88966	7	Sololá	701	Sololá	4	Finca Santa Victoria	2	Febrero	2023-10-02T00:00:00	2024-11-08T02:00:00	4	Temperatura máxima	10.8
88967	7	Sololá	701	Sololá	4	Finca Santa Victoria	2	Febrero	2023-10-02T00:00:00	2024-11-08T02:00:00	3	Temperatura mínima	10.6
88968	7	Sololá	701	Sololá	4	Finca Santa Victoria	2	Febrero	2023-10-02T00:00:00	2024-11-08T02:00:00	5	Humedad	88
88969	7	Sololá	701	Sololá	4	Finca Santa Victoria	2	Febrero	2023-10-02T00:00:00	2024-11-08T02:00:00	6	Velocidad del viento	0
88970	7	Sololá	701	Sololá	4	Finca Santa Victoria	2	Febrero	2023-10-02T00:00:00	2024-11-08T02:00:00	7	Dirección del viento	0
88971	7	Sololá	701	Sololá	4	Finca Santa Victoria	2	Febrero	2023-10-02T00:00:00	2024-11-08T02:00:00	1	Precipitación	0
88972	7	Sololá	701	Sololá	4	Finca Santa Victoria	2	Febrero	2023-10-02T00:00:00	2024-11-08T02:00:00	8	Radiación solar	0
88973	7	Sololá	701	Sololá	4	Finca Santa Victoria	2	Febrero	2023-10-02T00:00:00	2024-11-08T03:00:00	2	Temperatura media	10.3
88974	7	Sololá	701	Sololá	4	Finca Santa Victoria	2	Febrero	2023-10-02T00:00:00	2024-11-08T03:00:00	4	Temperatura máxima	10.7
88975	7	Sololá	701	Sololá	4	Finca Santa Victoria	2	Febrero	2023-10-02T00:00:00	2024-11-08T03:00:00	3	Temperatura mínima	10.3
88976	7	Sololá	701	Sololá	4	Finca Santa Victoria	2	Febrero	2023-10-02T00:00:00	2024-11-08T03:00:00	5	Humedad	89
88977	7	Sololá	701	Sololá	4	Finca Santa Victoria	2	Febrero	2023-10-02T00:00:00	2024-11-08T03:00:00	6	Velocidad del viento	0
88978	7	Sololá	701	Sololá	4	Finca Santa Victoria	2	Febrero	2023-10-02T00:00:00	2024-11-08T03:00:00	7	Dirección del viento	0
88979	7	Sololá	701	Sololá	4	Finca Santa Victoria	2	Febrero	2023-10-02T00:00:00	2024-11-08T03:00:00	1	Precipitación	0
88980	7	Sololá	701	Sololá	4	Finca Santa Victoria	2	Febrero	2023-10-02T00:00:00	2024-11-08T03:00:00	8	Radiación solar	0
88981	7	Sololá	701	Sololá	4	Finca Santa Victoria	2	Febrero	2023-10-02T00:00:00	2024-11-08T04:00:00	2	Temperatura media	9.8
88982	7	Sololá	701	Sololá	4	Finca Santa Victoria	2	Febrero	2023-10-02T00:00:00	2024-11-08T04:00:00	4	Temperatura máxima	10.3
88983	7	Sololá	701	Sololá	4	Finca Santa Victoria	2	Febrero	2023-10-02T00:00:00	2024-11-08T04:00:00	3	Temperatura mínima	9.7
88984	7	Sololá	701	Sololá	4	Finca Santa Victoria	2	Febrero	2023-10-02T00:00:00	2024-11-08T04:00:00	5	Humedad	91
88985	7	Sololá	701	Sololá	4	Finca Santa Victoria	2	Febrero	2023-10-02T00:00:00	2024-11-08T04:00:00	6	Velocidad del viento	0
88986	7	Sololá	701	Sololá	4	Finca Santa Victoria	2	Febrero	2023-10-02T00:00:00	2024-11-08T04:00:00	7	Dirección del viento	0
88987	7	Sololá	701	Sololá	4	Finca Santa Victoria	2	Febrero	2023-10-02T00:00:00	2024-11-08T04:00:00	1	Precipitación	0
88988	7	Sololá	701	Sololá	4	Finca Santa Victoria	2	Febrero	2023-10-02T00:00:00	2024-11-08T04:00:00	8	Radiación solar	0
88989	7	Sololá	701	Sololá	4	Finca Santa Victoria	2	Febrero	2023-10-02T00:00:00	2024-11-08T05:00:00	2	Temperatura media	9.1
88990	7	Sololá	701	Sololá	4	Finca Santa Victoria	2	Febrero	2023-10-02T00:00:00	2024-11-08T05:00:00	4	Temperatura máxima	9.8
88991	7	Sololá	701	Sololá	4	Finca Santa Victoria	2	Febrero	2023-10-02T00:00:00	2024-11-08T05:00:00	3	Temperatura mínima	9.1
88992	7	Sololá	701	Sololá	4	Finca Santa Victoria	2	Febrero	2023-10-02T00:00:00	2024-11-08T05:00:00	5	Humedad	93
88993	7	Sololá	701	Sololá	4	Finca Santa Victoria	2	Febrero	2023-10-02T00:00:00	2024-11-08T05:00:00	6	Velocidad del viento	0
88994	7	Sololá	701	Sololá	4	Finca Santa Victoria	2	Febrero	2023-10-02T00:00:00	2024-11-08T05:00:00	7	Dirección del viento	0
88995	7	Sololá	701	Sololá	4	Finca Santa Victoria	2	Febrero	2023-10-02T00:00:00	2024-11-08T05:00:00	1	Precipitación	0
88996	7	Sololá	701	Sololá	4	Finca Santa Victoria	2	Febrero	2023-10-02T00:00:00	2024-11-08T05:00:00	8	Radiación solar	0
88997	7	Sololá	701	Sololá	4	Finca Santa Victoria	2	Febrero	2023-10-02T00:00:00	2024-11-08T06:00:00	2	Temperatura media	9
88998	7	Sololá	701	Sololá	4	Finca Santa Victoria	2	Febrero	2023-10-02T00:00:00	2024-11-08T06:00:00	4	Temperatura máxima	9.1
88999	7	Sololá	701	Sololá	4	Finca Santa Victoria	2	Febrero	2023-10-02T00:00:00	2024-11-08T06:00:00	3	Temperatura mínima	8.8
89000	7	Sololá	701	Sololá	4	Finca Santa Victoria	2	Febrero	2023-10-02T00:00:00	2024-11-08T06:00:00	5	Humedad	93
89001	7	Sololá	701	Sololá	4	Finca Santa Victoria	2	Febrero	2023-10-02T00:00:00	2024-11-08T06:00:00	6	Velocidad del viento	0
89002	7	Sololá	701	Sololá	4	Finca Santa Victoria	2	Febrero	2023-10-02T00:00:00	2024-11-08T06:00:00	7	Dirección del viento	0
89003	7	Sololá	701	Sololá	4	Finca Santa Victoria	2	Febrero	2023-10-02T00:00:00	2024-11-08T06:00:00	1	Precipitación	0
89004	7	Sololá	701	Sololá	4	Finca Santa Victoria	2	Febrero	2023-10-02T00:00:00	2024-11-08T06:00:00	8	Radiación solar	0
89005	7	Sololá	701	Sololá	4	Finca Santa Victoria	2	Febrero	2023-10-02T00:00:00	2024-11-08T07:00:00	2	Temperatura media	9.3
89006	7	Sololá	701	Sololá	4	Finca Santa Victoria	2	Febrero	2023-10-02T00:00:00	2024-11-08T07:00:00	4	Temperatura máxima	9.3
89007	7	Sololá	701	Sololá	4	Finca Santa Victoria	2	Febrero	2023-10-02T00:00:00	2024-11-08T07:00:00	3	Temperatura mínima	9
89008	7	Sololá	701	Sololá	4	Finca Santa Victoria	2	Febrero	2023-10-02T00:00:00	2024-11-08T07:00:00	5	Humedad	90
89009	7	Sololá	701	Sololá	4	Finca Santa Victoria	2	Febrero	2023-10-02T00:00:00	2024-11-08T07:00:00	6	Velocidad del viento	0
89010	7	Sololá	701	Sololá	4	Finca Santa Victoria	2	Febrero	2023-10-02T00:00:00	2024-11-08T07:00:00	7	Dirección del viento	0
89011	7	Sololá	701	Sololá	4	Finca Santa Victoria	2	Febrero	2023-10-02T00:00:00	2024-11-08T07:00:00	1	Precipitación	0
89012	7	Sololá	701	Sololá	4	Finca Santa Victoria	2	Febrero	2023-10-02T00:00:00	2024-11-08T07:00:00	8	Radiación solar	4
89013	7	Sololá	701	Sololá	4	Finca Santa Victoria	2	Febrero	2023-10-02T00:00:00	2024-11-08T08:00:00	2	Temperatura media	12.3
89014	7	Sololá	701	Sololá	4	Finca Santa Victoria	2	Febrero	2023-10-02T00:00:00	2024-11-08T08:00:00	4	Temperatura máxima	12.3
89015	7	Sololá	701	Sololá	4	Finca Santa Victoria	2	Febrero	2023-10-02T00:00:00	2024-11-08T08:00:00	3	Temperatura mínima	9.3
89016	7	Sololá	701	Sololá	4	Finca Santa Victoria	2	Febrero	2023-10-02T00:00:00	2024-11-08T08:00:00	5	Humedad	77
89017	7	Sololá	701	Sololá	4	Finca Santa Victoria	2	Febrero	2023-10-02T00:00:00	2024-11-08T08:00:00	6	Velocidad del viento	1.6
89018	7	Sololá	701	Sololá	4	Finca Santa Victoria	2	Febrero	2023-10-02T00:00:00	2024-11-08T08:00:00	7	Dirección del viento	1.61
89019	7	Sololá	701	Sololá	4	Finca Santa Victoria	2	Febrero	2023-10-02T00:00:00	2024-11-08T08:00:00	1	Precipitación	0
89020	7	Sololá	701	Sololá	4	Finca Santa Victoria	2	Febrero	2023-10-02T00:00:00	2024-11-08T08:00:00	8	Radiación solar	32
89021	7	Sololá	701	Sololá	4	Finca Santa Victoria	2	Febrero	2023-10-02T00:00:00	2024-11-08T09:00:00	2	Temperatura media	15.2
89022	7	Sololá	701	Sololá	4	Finca Santa Victoria	2	Febrero	2023-10-02T00:00:00	2024-11-08T09:00:00	4	Temperatura máxima	15.2
89023	7	Sololá	701	Sololá	4	Finca Santa Victoria	2	Febrero	2023-10-02T00:00:00	2024-11-08T09:00:00	3	Temperatura mínima	12.3
89024	7	Sololá	701	Sololá	4	Finca Santa Victoria	2	Febrero	2023-10-02T00:00:00	2024-11-08T09:00:00	5	Humedad	63
89025	7	Sololá	701	Sololá	4	Finca Santa Victoria	2	Febrero	2023-10-02T00:00:00	2024-11-08T09:00:00	6	Velocidad del viento	3.2
89026	7	Sololá	701	Sololá	4	Finca Santa Victoria	2	Febrero	2023-10-02T00:00:00	2024-11-08T09:00:00	7	Dirección del viento	3.22
89027	7	Sololá	701	Sololá	4	Finca Santa Victoria	2	Febrero	2023-10-02T00:00:00	2024-11-08T09:00:00	1	Precipitación	0
89028	7	Sololá	701	Sololá	4	Finca Santa Victoria	2	Febrero	2023-10-02T00:00:00	2024-11-08T09:00:00	8	Radiación solar	191
89029	7	Sololá	701	Sololá	4	Finca Santa Victoria	2	Febrero	2023-10-02T00:00:00	2024-11-08T10:00:00	2	Temperatura media	17.8
89030	7	Sololá	701	Sololá	4	Finca Santa Victoria	2	Febrero	2023-10-02T00:00:00	2024-11-08T10:00:00	4	Temperatura máxima	17.8
89031	7	Sololá	701	Sololá	4	Finca Santa Victoria	2	Febrero	2023-10-02T00:00:00	2024-11-08T10:00:00	3	Temperatura mínima	15.2
89032	7	Sololá	701	Sololá	4	Finca Santa Victoria	2	Febrero	2023-10-02T00:00:00	2024-11-08T10:00:00	5	Humedad	53
89033	7	Sololá	701	Sololá	4	Finca Santa Victoria	2	Febrero	2023-10-02T00:00:00	2024-11-08T10:00:00	6	Velocidad del viento	3.2
89034	7	Sololá	701	Sololá	4	Finca Santa Victoria	2	Febrero	2023-10-02T00:00:00	2024-11-08T10:00:00	7	Dirección del viento	3.22
89035	7	Sololá	701	Sololá	4	Finca Santa Victoria	2	Febrero	2023-10-02T00:00:00	2024-11-08T10:00:00	1	Precipitación	0
89036	7	Sololá	701	Sololá	4	Finca Santa Victoria	2	Febrero	2023-10-02T00:00:00	2024-11-08T10:00:00	8	Radiación solar	510
89037	7	Sololá	701	Sololá	4	Finca Santa Victoria	2	Febrero	2023-10-02T00:00:00	2024-11-08T11:00:00	2	Temperatura media	19.8
89038	7	Sololá	701	Sololá	4	Finca Santa Victoria	2	Febrero	2023-10-02T00:00:00	2024-11-08T11:00:00	4	Temperatura máxima	19.8
89039	7	Sololá	701	Sololá	4	Finca Santa Victoria	2	Febrero	2023-10-02T00:00:00	2024-11-08T11:00:00	3	Temperatura mínima	17.8
89040	7	Sololá	701	Sololá	4	Finca Santa Victoria	2	Febrero	2023-10-02T00:00:00	2024-11-08T11:00:00	5	Humedad	43
89041	7	Sololá	701	Sololá	4	Finca Santa Victoria	2	Febrero	2023-10-02T00:00:00	2024-11-08T11:00:00	6	Velocidad del viento	4.8
89042	7	Sololá	701	Sololá	4	Finca Santa Victoria	2	Febrero	2023-10-02T00:00:00	2024-11-08T11:00:00	7	Dirección del viento	4.83
89043	7	Sololá	701	Sololá	4	Finca Santa Victoria	2	Febrero	2023-10-02T00:00:00	2024-11-08T11:00:00	1	Precipitación	0
89044	7	Sololá	701	Sololá	4	Finca Santa Victoria	2	Febrero	2023-10-02T00:00:00	2024-11-08T11:00:00	8	Radiación solar	837
89045	7	Sololá	701	Sololá	4	Finca Santa Victoria	2	Febrero	2023-10-02T00:00:00	2024-11-08T12:00:00	2	Temperatura media	21.4
89046	7	Sololá	701	Sololá	4	Finca Santa Victoria	2	Febrero	2023-10-02T00:00:00	2024-11-08T12:00:00	4	Temperatura máxima	21.5
89047	7	Sololá	701	Sololá	4	Finca Santa Victoria	2	Febrero	2023-10-02T00:00:00	2024-11-08T12:00:00	3	Temperatura mínima	19.6
89048	7	Sololá	701	Sololá	4	Finca Santa Victoria	2	Febrero	2023-10-02T00:00:00	2024-11-08T12:00:00	5	Humedad	41
89049	7	Sololá	701	Sololá	4	Finca Santa Victoria	2	Febrero	2023-10-02T00:00:00	2024-11-08T12:00:00	6	Velocidad del viento	3.2
89050	7	Sololá	701	Sololá	4	Finca Santa Victoria	2	Febrero	2023-10-02T00:00:00	2024-11-08T12:00:00	7	Dirección del viento	3.22
89051	7	Sololá	701	Sololá	4	Finca Santa Victoria	2	Febrero	2023-10-02T00:00:00	2024-11-08T12:00:00	1	Precipitación	0
89052	7	Sololá	701	Sololá	4	Finca Santa Victoria	2	Febrero	2023-10-02T00:00:00	2024-11-08T12:00:00	8	Radiación solar	938
89053	7	Sololá	701	Sololá	4	Finca Santa Victoria	2	Febrero	2023-10-02T00:00:00	2024-11-08T13:00:00	2	Temperatura media	20.4
89054	7	Sololá	701	Sololá	4	Finca Santa Victoria	2	Febrero	2023-10-02T00:00:00	2024-11-08T13:00:00	4	Temperatura máxima	22
89055	7	Sololá	701	Sololá	4	Finca Santa Victoria	2	Febrero	2023-10-02T00:00:00	2024-11-08T13:00:00	3	Temperatura mínima	20.4
89056	7	Sololá	701	Sololá	4	Finca Santa Victoria	2	Febrero	2023-10-02T00:00:00	2024-11-08T13:00:00	5	Humedad	64
89057	7	Sololá	701	Sololá	4	Finca Santa Victoria	2	Febrero	2023-10-02T00:00:00	2024-11-08T13:00:00	6	Velocidad del viento	4.8
89058	7	Sololá	701	Sololá	4	Finca Santa Victoria	2	Febrero	2023-10-02T00:00:00	2024-11-08T13:00:00	7	Dirección del viento	4.83
89059	7	Sololá	701	Sololá	4	Finca Santa Victoria	2	Febrero	2023-10-02T00:00:00	2024-11-08T13:00:00	1	Precipitación	0
89060	7	Sololá	701	Sololá	4	Finca Santa Victoria	2	Febrero	2023-10-02T00:00:00	2024-11-08T13:00:00	8	Radiación solar	970
89061	7	Sololá	701	Sololá	4	Finca Santa Victoria	2	Febrero	2023-10-02T00:00:00	2024-11-08T14:00:00	2	Temperatura media	18.3
89062	7	Sololá	701	Sololá	4	Finca Santa Victoria	2	Febrero	2023-10-02T00:00:00	2024-11-08T14:00:00	4	Temperatura máxima	20.4
89063	7	Sololá	701	Sololá	4	Finca Santa Victoria	2	Febrero	2023-10-02T00:00:00	2024-11-08T14:00:00	3	Temperatura mínima	18.3
89064	7	Sololá	701	Sololá	4	Finca Santa Victoria	2	Febrero	2023-10-02T00:00:00	2024-11-08T14:00:00	5	Humedad	73
89065	7	Sololá	701	Sololá	4	Finca Santa Victoria	2	Febrero	2023-10-02T00:00:00	2024-11-08T14:00:00	6	Velocidad del viento	4.8
89066	7	Sololá	701	Sololá	4	Finca Santa Victoria	2	Febrero	2023-10-02T00:00:00	2024-11-08T14:00:00	7	Dirección del viento	4.83
89067	7	Sololá	701	Sololá	4	Finca Santa Victoria	2	Febrero	2023-10-02T00:00:00	2024-11-08T14:00:00	1	Precipitación	0
89068	7	Sololá	701	Sololá	4	Finca Santa Victoria	2	Febrero	2023-10-02T00:00:00	2024-11-08T14:00:00	8	Radiación solar	528
89069	7	Sololá	701	Sololá	4	Finca Santa Victoria	2	Febrero	2023-10-02T00:00:00	2024-11-08T15:00:00	2	Temperatura media	17.1
89070	7	Sololá	701	Sololá	4	Finca Santa Victoria	2	Febrero	2023-10-02T00:00:00	2024-11-08T15:00:00	4	Temperatura máxima	19
89071	7	Sololá	701	Sololá	4	Finca Santa Victoria	2	Febrero	2023-10-02T00:00:00	2024-11-08T15:00:00	3	Temperatura mínima	17
89072	7	Sololá	701	Sololá	4	Finca Santa Victoria	2	Febrero	2023-10-02T00:00:00	2024-11-08T15:00:00	5	Humedad	81
89073	7	Sololá	701	Sololá	4	Finca Santa Victoria	2	Febrero	2023-10-02T00:00:00	2024-11-08T15:00:00	6	Velocidad del viento	4.8
89074	7	Sololá	701	Sololá	4	Finca Santa Victoria	2	Febrero	2023-10-02T00:00:00	2024-11-08T15:00:00	7	Dirección del viento	4.83
89075	7	Sololá	701	Sololá	4	Finca Santa Victoria	2	Febrero	2023-10-02T00:00:00	2024-11-08T15:00:00	1	Precipitación	0
89076	7	Sololá	701	Sololá	4	Finca Santa Victoria	2	Febrero	2023-10-02T00:00:00	2024-11-08T15:00:00	8	Radiación solar	353
89077	7	Sololá	701	Sololá	4	Finca Santa Victoria	2	Febrero	2023-10-02T00:00:00	2024-11-08T16:00:00	2	Temperatura media	17.7
89078	7	Sololá	701	Sololá	4	Finca Santa Victoria	2	Febrero	2023-10-02T00:00:00	2024-11-08T16:00:00	4	Temperatura máxima	18.7
89079	7	Sololá	701	Sololá	4	Finca Santa Victoria	2	Febrero	2023-10-02T00:00:00	2024-11-08T16:00:00	3	Temperatura mínima	16.9
89080	7	Sololá	701	Sololá	4	Finca Santa Victoria	2	Febrero	2023-10-02T00:00:00	2024-11-08T16:00:00	5	Humedad	79
89081	7	Sololá	701	Sololá	4	Finca Santa Victoria	2	Febrero	2023-10-02T00:00:00	2024-11-08T16:00:00	6	Velocidad del viento	3.2
89082	7	Sololá	701	Sololá	4	Finca Santa Victoria	2	Febrero	2023-10-02T00:00:00	2024-11-08T16:00:00	7	Dirección del viento	3.22
89083	7	Sololá	701	Sololá	4	Finca Santa Victoria	2	Febrero	2023-10-02T00:00:00	2024-11-08T16:00:00	1	Precipitación	0
89084	7	Sololá	701	Sololá	4	Finca Santa Victoria	2	Febrero	2023-10-02T00:00:00	2024-11-08T16:00:00	8	Radiación solar	289
89085	7	Sololá	701	Sololá	4	Finca Santa Victoria	2	Febrero	2023-10-02T00:00:00	2024-11-08T17:00:00	2	Temperatura media	18.8
89086	7	Sololá	701	Sololá	4	Finca Santa Victoria	2	Febrero	2023-10-02T00:00:00	2024-11-08T17:00:00	4	Temperatura máxima	19.4
89087	7	Sololá	701	Sololá	4	Finca Santa Victoria	2	Febrero	2023-10-02T00:00:00	2024-11-08T17:00:00	3	Temperatura mínima	17.2
89088	7	Sololá	701	Sololá	4	Finca Santa Victoria	2	Febrero	2023-10-02T00:00:00	2024-11-08T17:00:00	5	Humedad	64
89089	7	Sololá	701	Sololá	4	Finca Santa Victoria	2	Febrero	2023-10-02T00:00:00	2024-11-08T17:00:00	6	Velocidad del viento	3.2
89090	7	Sololá	701	Sololá	4	Finca Santa Victoria	2	Febrero	2023-10-02T00:00:00	2024-11-08T17:00:00	7	Dirección del viento	3.22
89091	7	Sololá	701	Sololá	4	Finca Santa Victoria	2	Febrero	2023-10-02T00:00:00	2024-11-08T17:00:00	1	Precipitación	0
89092	7	Sololá	701	Sololá	4	Finca Santa Victoria	2	Febrero	2023-10-02T00:00:00	2024-11-08T17:00:00	8	Radiación solar	247
89093	7	Sololá	701	Sololá	4	Finca Santa Victoria	2	Febrero	2023-10-02T00:00:00	2024-11-08T18:00:00	2	Temperatura media	15.7
89094	7	Sololá	701	Sololá	4	Finca Santa Victoria	2	Febrero	2023-10-02T00:00:00	2024-11-08T18:00:00	4	Temperatura máxima	18.8
89095	7	Sololá	701	Sololá	4	Finca Santa Victoria	2	Febrero	2023-10-02T00:00:00	2024-11-08T18:00:00	3	Temperatura mínima	15.7
89096	7	Sololá	701	Sololá	4	Finca Santa Victoria	2	Febrero	2023-10-02T00:00:00	2024-11-08T18:00:00	5	Humedad	87
89097	7	Sololá	701	Sololá	4	Finca Santa Victoria	2	Febrero	2023-10-02T00:00:00	2024-11-08T18:00:00	6	Velocidad del viento	1.6
89098	7	Sololá	701	Sololá	4	Finca Santa Victoria	2	Febrero	2023-10-02T00:00:00	2024-11-08T18:00:00	7	Dirección del viento	1.61
89099	7	Sololá	701	Sololá	4	Finca Santa Victoria	2	Febrero	2023-10-02T00:00:00	2024-11-08T18:00:00	1	Precipitación	0
89100	7	Sololá	701	Sololá	4	Finca Santa Victoria	2	Febrero	2023-10-02T00:00:00	2024-11-08T18:00:00	8	Radiación solar	77
89101	7	Sololá	701	Sololá	4	Finca Santa Victoria	2	Febrero	2023-10-02T00:00:00	2024-11-08T19:00:00	2	Temperatura media	13.4
89102	7	Sololá	701	Sololá	4	Finca Santa Victoria	2	Febrero	2023-10-02T00:00:00	2024-11-08T19:00:00	4	Temperatura máxima	15.7
89103	7	Sololá	701	Sololá	4	Finca Santa Victoria	2	Febrero	2023-10-02T00:00:00	2024-11-08T19:00:00	3	Temperatura mínima	13.4
89104	7	Sololá	701	Sololá	4	Finca Santa Victoria	2	Febrero	2023-10-02T00:00:00	2024-11-08T19:00:00	5	Humedad	82
89105	7	Sololá	701	Sololá	4	Finca Santa Victoria	2	Febrero	2023-10-02T00:00:00	2024-11-08T19:00:00	6	Velocidad del viento	0
89106	7	Sololá	701	Sololá	4	Finca Santa Victoria	2	Febrero	2023-10-02T00:00:00	2024-11-08T19:00:00	7	Dirección del viento	0
89107	7	Sololá	701	Sololá	4	Finca Santa Victoria	2	Febrero	2023-10-02T00:00:00	2024-11-08T19:00:00	1	Precipitación	0
89108	7	Sololá	701	Sololá	4	Finca Santa Victoria	2	Febrero	2023-10-02T00:00:00	2024-11-08T19:00:00	8	Radiación solar	0
89109	7	Sololá	701	Sololá	4	Finca Santa Victoria	2	Febrero	2023-10-02T00:00:00	2024-11-08T20:00:00	2	Temperatura media	13
89110	7	Sololá	701	Sololá	4	Finca Santa Victoria	2	Febrero	2023-10-02T00:00:00	2024-11-08T20:00:00	4	Temperatura máxima	13.4
89111	7	Sololá	701	Sololá	4	Finca Santa Victoria	2	Febrero	2023-10-02T00:00:00	2024-11-08T20:00:00	3	Temperatura mínima	13
89112	7	Sololá	701	Sololá	4	Finca Santa Victoria	2	Febrero	2023-10-02T00:00:00	2024-11-08T20:00:00	5	Humedad	82
89113	7	Sololá	701	Sololá	4	Finca Santa Victoria	2	Febrero	2023-10-02T00:00:00	2024-11-08T20:00:00	6	Velocidad del viento	1.6
89114	7	Sololá	701	Sololá	4	Finca Santa Victoria	2	Febrero	2023-10-02T00:00:00	2024-11-08T20:00:00	7	Dirección del viento	1.61
89115	7	Sololá	701	Sololá	4	Finca Santa Victoria	2	Febrero	2023-10-02T00:00:00	2024-11-08T20:00:00	1	Precipitación	0
89116	7	Sololá	701	Sololá	4	Finca Santa Victoria	2	Febrero	2023-10-02T00:00:00	2024-11-08T20:00:00	8	Radiación solar	0
89117	7	Sololá	701	Sololá	4	Finca Santa Victoria	2	Febrero	2023-10-02T00:00:00	2024-11-08T21:00:00	2	Temperatura media	13.1
89118	7	Sololá	701	Sololá	4	Finca Santa Victoria	2	Febrero	2023-10-02T00:00:00	2024-11-08T21:00:00	4	Temperatura máxima	13.4
89119	7	Sololá	701	Sololá	4	Finca Santa Victoria	2	Febrero	2023-10-02T00:00:00	2024-11-08T21:00:00	3	Temperatura mínima	12.9
89120	7	Sololá	701	Sololá	4	Finca Santa Victoria	2	Febrero	2023-10-02T00:00:00	2024-11-08T21:00:00	5	Humedad	80
89121	7	Sololá	701	Sololá	4	Finca Santa Victoria	2	Febrero	2023-10-02T00:00:00	2024-11-08T21:00:00	6	Velocidad del viento	3.2
89122	7	Sololá	701	Sololá	4	Finca Santa Victoria	2	Febrero	2023-10-02T00:00:00	2024-11-08T21:00:00	7	Dirección del viento	3.22
89123	7	Sololá	701	Sololá	4	Finca Santa Victoria	2	Febrero	2023-10-02T00:00:00	2024-11-08T21:00:00	1	Precipitación	0
89124	7	Sololá	701	Sololá	4	Finca Santa Victoria	2	Febrero	2023-10-02T00:00:00	2024-11-08T21:00:00	8	Radiación solar	0
89125	7	Sololá	701	Sololá	4	Finca Santa Victoria	2	Febrero	2023-10-02T00:00:00	2024-11-08T22:00:00	2	Temperatura media	12.7
89126	7	Sololá	701	Sololá	4	Finca Santa Victoria	2	Febrero	2023-10-02T00:00:00	2024-11-08T22:00:00	4	Temperatura máxima	13.1
89127	7	Sololá	701	Sololá	4	Finca Santa Victoria	2	Febrero	2023-10-02T00:00:00	2024-11-08T22:00:00	3	Temperatura mínima	12.6
89128	7	Sololá	701	Sololá	4	Finca Santa Victoria	2	Febrero	2023-10-02T00:00:00	2024-11-08T22:00:00	5	Humedad	79
89129	7	Sololá	701	Sololá	4	Finca Santa Victoria	2	Febrero	2023-10-02T00:00:00	2024-11-08T22:00:00	6	Velocidad del viento	3.2
89130	7	Sololá	701	Sololá	4	Finca Santa Victoria	2	Febrero	2023-10-02T00:00:00	2024-11-08T22:00:00	7	Dirección del viento	3.22
89131	7	Sololá	701	Sololá	4	Finca Santa Victoria	2	Febrero	2023-10-02T00:00:00	2024-11-08T22:00:00	1	Precipitación	0
89132	7	Sololá	701	Sololá	4	Finca Santa Victoria	2	Febrero	2023-10-02T00:00:00	2024-11-08T22:00:00	8	Radiación solar	0
89133	7	Sololá	701	Sololá	4	Finca Santa Victoria	2	Febrero	2023-10-02T00:00:00	2024-11-08T23:00:00	2	Temperatura media	12.3
89134	7	Sololá	701	Sololá	4	Finca Santa Victoria	2	Febrero	2023-10-02T00:00:00	2024-11-08T23:00:00	4	Temperatura máxima	12.7
89135	7	Sololá	701	Sololá	4	Finca Santa Victoria	2	Febrero	2023-10-02T00:00:00	2024-11-08T23:00:00	3	Temperatura mínima	12.3
89136	7	Sololá	701	Sololá	4	Finca Santa Victoria	2	Febrero	2023-10-02T00:00:00	2024-11-08T23:00:00	5	Humedad	81
89137	7	Sololá	701	Sololá	4	Finca Santa Victoria	2	Febrero	2023-10-02T00:00:00	2024-11-08T23:00:00	6	Velocidad del viento	3.2
89138	7	Sololá	701	Sololá	4	Finca Santa Victoria	2	Febrero	2023-10-02T00:00:00	2024-11-08T23:00:00	7	Dirección del viento	3.22
89139	7	Sololá	701	Sololá	4	Finca Santa Victoria	2	Febrero	2023-10-02T00:00:00	2024-11-08T23:00:00	1	Precipitación	0
89140	7	Sololá	701	Sololá	4	Finca Santa Victoria	2	Febrero	2023-10-02T00:00:00	2024-11-08T23:00:00	8	Radiación solar	0
89141	7	Sololá	701	Sololá	4	Finca Santa Victoria	2	Febrero	2023-11-02T00:00:00	2024-11-08T00:00:00	2	Temperatura media	11.8
89142	7	Sololá	701	Sololá	4	Finca Santa Victoria	2	Febrero	2023-11-02T00:00:00	2024-11-08T00:00:00	4	Temperatura máxima	12.3
89143	7	Sololá	701	Sololá	4	Finca Santa Victoria	2	Febrero	2023-11-02T00:00:00	2024-11-08T00:00:00	3	Temperatura mínima	11.8
89144	7	Sololá	701	Sololá	4	Finca Santa Victoria	2	Febrero	2023-11-02T00:00:00	2024-11-08T00:00:00	5	Humedad	85
89145	7	Sololá	701	Sololá	4	Finca Santa Victoria	2	Febrero	2023-11-02T00:00:00	2024-11-08T00:00:00	6	Velocidad del viento	3.2
89146	7	Sololá	701	Sololá	4	Finca Santa Victoria	2	Febrero	2023-11-02T00:00:00	2024-11-08T00:00:00	7	Dirección del viento	3.22
89147	7	Sololá	701	Sololá	4	Finca Santa Victoria	2	Febrero	2023-11-02T00:00:00	2024-11-08T00:00:00	1	Precipitación	0
89148	7	Sololá	701	Sololá	4	Finca Santa Victoria	2	Febrero	2023-11-02T00:00:00	2024-11-08T00:00:00	8	Radiación solar	0
89149	7	Sololá	701	Sololá	4	Finca Santa Victoria	2	Febrero	2023-11-02T00:00:00	2024-11-08T01:00:00	2	Temperatura media	11.7
89150	7	Sololá	701	Sololá	4	Finca Santa Victoria	2	Febrero	2023-11-02T00:00:00	2024-11-08T01:00:00	4	Temperatura máxima	11.9
89151	7	Sololá	701	Sololá	4	Finca Santa Victoria	2	Febrero	2023-11-02T00:00:00	2024-11-08T01:00:00	3	Temperatura mínima	11.6
89152	7	Sololá	701	Sololá	4	Finca Santa Victoria	2	Febrero	2023-11-02T00:00:00	2024-11-08T01:00:00	5	Humedad	85
89153	7	Sololá	701	Sololá	4	Finca Santa Victoria	2	Febrero	2023-11-02T00:00:00	2024-11-08T01:00:00	6	Velocidad del viento	3.2
89154	7	Sololá	701	Sololá	4	Finca Santa Victoria	2	Febrero	2023-11-02T00:00:00	2024-11-08T01:00:00	7	Dirección del viento	3.22
89155	7	Sololá	701	Sololá	4	Finca Santa Victoria	2	Febrero	2023-11-02T00:00:00	2024-11-08T01:00:00	1	Precipitación	0
89156	7	Sololá	701	Sololá	4	Finca Santa Victoria	2	Febrero	2023-11-02T00:00:00	2024-11-08T01:00:00	8	Radiación solar	0
89157	7	Sololá	701	Sololá	4	Finca Santa Victoria	2	Febrero	2023-11-02T00:00:00	2024-11-08T02:00:00	2	Temperatura media	11.2
89158	7	Sololá	701	Sololá	4	Finca Santa Victoria	2	Febrero	2023-11-02T00:00:00	2024-11-08T02:00:00	4	Temperatura máxima	11.8
89159	7	Sololá	701	Sololá	4	Finca Santa Victoria	2	Febrero	2023-11-02T00:00:00	2024-11-08T02:00:00	3	Temperatura mínima	11.2
89160	7	Sololá	701	Sololá	4	Finca Santa Victoria	2	Febrero	2023-11-02T00:00:00	2024-11-08T02:00:00	5	Humedad	85
89161	7	Sololá	701	Sololá	4	Finca Santa Victoria	2	Febrero	2023-11-02T00:00:00	2024-11-08T02:00:00	6	Velocidad del viento	3.2
89162	7	Sololá	701	Sololá	4	Finca Santa Victoria	2	Febrero	2023-11-02T00:00:00	2024-11-08T02:00:00	7	Dirección del viento	3.22
89163	7	Sololá	701	Sololá	4	Finca Santa Victoria	2	Febrero	2023-11-02T00:00:00	2024-11-08T02:00:00	1	Precipitación	0
89164	7	Sololá	701	Sololá	4	Finca Santa Victoria	2	Febrero	2023-11-02T00:00:00	2024-11-08T02:00:00	8	Radiación solar	0
89165	7	Sololá	701	Sololá	4	Finca Santa Victoria	2	Febrero	2023-11-02T00:00:00	2024-11-08T03:00:00	2	Temperatura media	11.1
89166	7	Sololá	701	Sololá	4	Finca Santa Victoria	2	Febrero	2023-11-02T00:00:00	2024-11-08T03:00:00	4	Temperatura máxima	11.2
89167	7	Sololá	701	Sololá	4	Finca Santa Victoria	2	Febrero	2023-11-02T00:00:00	2024-11-08T03:00:00	3	Temperatura mínima	10.8
89168	7	Sololá	701	Sololá	4	Finca Santa Victoria	2	Febrero	2023-11-02T00:00:00	2024-11-08T03:00:00	5	Humedad	79
89169	7	Sololá	701	Sololá	4	Finca Santa Victoria	2	Febrero	2023-11-02T00:00:00	2024-11-08T03:00:00	6	Velocidad del viento	3.2
89170	7	Sololá	701	Sololá	4	Finca Santa Victoria	2	Febrero	2023-11-02T00:00:00	2024-11-08T03:00:00	7	Dirección del viento	3.22
89171	7	Sololá	701	Sololá	4	Finca Santa Victoria	2	Febrero	2023-11-02T00:00:00	2024-11-08T03:00:00	1	Precipitación	0
89172	7	Sololá	701	Sololá	4	Finca Santa Victoria	2	Febrero	2023-11-02T00:00:00	2024-11-08T03:00:00	8	Radiación solar	0
89173	7	Sololá	701	Sololá	4	Finca Santa Victoria	2	Febrero	2023-11-02T00:00:00	2024-11-08T04:00:00	2	Temperatura media	10.7
89174	7	Sololá	701	Sololá	4	Finca Santa Victoria	2	Febrero	2023-11-02T00:00:00	2024-11-08T04:00:00	4	Temperatura máxima	11.2
89175	7	Sololá	701	Sololá	4	Finca Santa Victoria	2	Febrero	2023-11-02T00:00:00	2024-11-08T04:00:00	3	Temperatura mínima	10.7
89176	7	Sololá	701	Sololá	4	Finca Santa Victoria	2	Febrero	2023-11-02T00:00:00	2024-11-08T04:00:00	5	Humedad	82
89177	7	Sololá	701	Sololá	4	Finca Santa Victoria	2	Febrero	2023-11-02T00:00:00	2024-11-08T04:00:00	6	Velocidad del viento	3.2
89178	7	Sololá	701	Sololá	4	Finca Santa Victoria	2	Febrero	2023-11-02T00:00:00	2024-11-08T04:00:00	7	Dirección del viento	3.22
89179	7	Sololá	701	Sololá	4	Finca Santa Victoria	2	Febrero	2023-11-02T00:00:00	2024-11-08T04:00:00	1	Precipitación	0
89180	7	Sololá	701	Sololá	4	Finca Santa Victoria	2	Febrero	2023-11-02T00:00:00	2024-11-08T04:00:00	8	Radiación solar	0
89181	7	Sololá	701	Sololá	4	Finca Santa Victoria	2	Febrero	2023-11-02T00:00:00	2024-11-08T05:00:00	2	Temperatura media	10.6
89182	7	Sololá	701	Sololá	4	Finca Santa Victoria	2	Febrero	2023-11-02T00:00:00	2024-11-08T05:00:00	4	Temperatura máxima	10.9
89183	7	Sololá	701	Sololá	4	Finca Santa Victoria	2	Febrero	2023-11-02T00:00:00	2024-11-08T05:00:00	3	Temperatura mínima	10.5
89184	7	Sololá	701	Sololá	4	Finca Santa Victoria	2	Febrero	2023-11-02T00:00:00	2024-11-08T05:00:00	5	Humedad	79
89185	7	Sololá	701	Sololá	4	Finca Santa Victoria	2	Febrero	2023-11-02T00:00:00	2024-11-08T05:00:00	6	Velocidad del viento	3.2
89186	7	Sololá	701	Sololá	4	Finca Santa Victoria	2	Febrero	2023-11-02T00:00:00	2024-11-08T05:00:00	7	Dirección del viento	3.22
89187	7	Sololá	701	Sololá	4	Finca Santa Victoria	2	Febrero	2023-11-02T00:00:00	2024-11-08T05:00:00	1	Precipitación	0
89188	7	Sololá	701	Sololá	4	Finca Santa Victoria	2	Febrero	2023-11-02T00:00:00	2024-11-08T05:00:00	8	Radiación solar	0
89189	7	Sololá	701	Sololá	4	Finca Santa Victoria	2	Febrero	2023-11-02T00:00:00	2024-11-08T06:00:00	2	Temperatura media	10.6
89190	7	Sololá	701	Sololá	4	Finca Santa Victoria	2	Febrero	2023-11-02T00:00:00	2024-11-08T06:00:00	4	Temperatura máxima	10.6
89191	7	Sololá	701	Sololá	4	Finca Santa Victoria	2	Febrero	2023-11-02T00:00:00	2024-11-08T06:00:00	3	Temperatura mínima	10.3
89192	7	Sololá	701	Sololá	4	Finca Santa Victoria	2	Febrero	2023-11-02T00:00:00	2024-11-08T06:00:00	5	Humedad	78
89193	7	Sololá	701	Sololá	4	Finca Santa Victoria	2	Febrero	2023-11-02T00:00:00	2024-11-08T06:00:00	6	Velocidad del viento	3.2
89194	7	Sololá	701	Sololá	4	Finca Santa Victoria	2	Febrero	2023-11-02T00:00:00	2024-11-08T06:00:00	7	Dirección del viento	3.22
89195	7	Sololá	701	Sololá	4	Finca Santa Victoria	2	Febrero	2023-11-02T00:00:00	2024-11-08T06:00:00	1	Precipitación	0
89196	7	Sololá	701	Sololá	4	Finca Santa Victoria	2	Febrero	2023-11-02T00:00:00	2024-11-08T06:00:00	8	Radiación solar	0
89197	7	Sololá	701	Sololá	4	Finca Santa Victoria	2	Febrero	2023-11-02T00:00:00	2024-11-08T07:00:00	2	Temperatura media	10.5
89198	7	Sololá	701	Sololá	4	Finca Santa Victoria	2	Febrero	2023-11-02T00:00:00	2024-11-08T07:00:00	4	Temperatura máxima	10.6
89199	7	Sololá	701	Sololá	4	Finca Santa Victoria	2	Febrero	2023-11-02T00:00:00	2024-11-08T07:00:00	3	Temperatura mínima	10.3
89200	7	Sololá	701	Sololá	4	Finca Santa Victoria	2	Febrero	2023-11-02T00:00:00	2024-11-08T07:00:00	5	Humedad	79
89201	7	Sololá	701	Sololá	4	Finca Santa Victoria	2	Febrero	2023-11-02T00:00:00	2024-11-08T07:00:00	6	Velocidad del viento	3.2
89202	7	Sololá	701	Sololá	4	Finca Santa Victoria	2	Febrero	2023-11-02T00:00:00	2024-11-08T07:00:00	7	Dirección del viento	3.22
89203	7	Sololá	701	Sololá	4	Finca Santa Victoria	2	Febrero	2023-11-02T00:00:00	2024-11-08T07:00:00	1	Precipitación	0
89204	7	Sololá	701	Sololá	4	Finca Santa Victoria	2	Febrero	2023-11-02T00:00:00	2024-11-08T07:00:00	8	Radiación solar	4
89205	7	Sololá	701	Sololá	4	Finca Santa Victoria	2	Febrero	2023-11-02T00:00:00	2024-11-08T08:00:00	2	Temperatura media	12.1
89206	7	Sololá	701	Sololá	4	Finca Santa Victoria	2	Febrero	2023-11-02T00:00:00	2024-11-08T08:00:00	4	Temperatura máxima	12.1
89207	7	Sololá	701	Sololá	4	Finca Santa Victoria	2	Febrero	2023-11-02T00:00:00	2024-11-08T08:00:00	3	Temperatura mínima	10.5
89208	7	Sololá	701	Sololá	4	Finca Santa Victoria	2	Febrero	2023-11-02T00:00:00	2024-11-08T08:00:00	5	Humedad	68
89209	7	Sololá	701	Sololá	4	Finca Santa Victoria	2	Febrero	2023-11-02T00:00:00	2024-11-08T08:00:00	6	Velocidad del viento	4.8
89210	7	Sololá	701	Sololá	4	Finca Santa Victoria	2	Febrero	2023-11-02T00:00:00	2024-11-08T08:00:00	7	Dirección del viento	4.83
89211	7	Sololá	701	Sololá	4	Finca Santa Victoria	2	Febrero	2023-11-02T00:00:00	2024-11-08T08:00:00	1	Precipitación	0
89212	7	Sololá	701	Sololá	4	Finca Santa Victoria	2	Febrero	2023-11-02T00:00:00	2024-11-08T08:00:00	8	Radiación solar	34
89213	7	Sololá	701	Sololá	4	Finca Santa Victoria	2	Febrero	2023-11-02T00:00:00	2024-11-08T09:00:00	2	Temperatura media	13.9
89214	7	Sololá	701	Sololá	4	Finca Santa Victoria	2	Febrero	2023-11-02T00:00:00	2024-11-08T09:00:00	4	Temperatura máxima	13.9
89215	7	Sololá	701	Sololá	4	Finca Santa Victoria	2	Febrero	2023-11-02T00:00:00	2024-11-08T09:00:00	3	Temperatura mínima	12.1
89216	7	Sololá	701	Sololá	4	Finca Santa Victoria	2	Febrero	2023-11-02T00:00:00	2024-11-08T09:00:00	5	Humedad	60
89217	7	Sololá	701	Sololá	4	Finca Santa Victoria	2	Febrero	2023-11-02T00:00:00	2024-11-08T09:00:00	6	Velocidad del viento	6.4
89218	7	Sololá	701	Sololá	4	Finca Santa Victoria	2	Febrero	2023-11-02T00:00:00	2024-11-08T09:00:00	7	Dirección del viento	6.44
89219	7	Sololá	701	Sololá	4	Finca Santa Victoria	2	Febrero	2023-11-02T00:00:00	2024-11-08T09:00:00	1	Precipitación	0
89220	7	Sololá	701	Sololá	4	Finca Santa Victoria	2	Febrero	2023-11-02T00:00:00	2024-11-08T09:00:00	8	Radiación solar	160
89221	7	Sololá	701	Sololá	4	Finca Santa Victoria	2	Febrero	2023-11-02T00:00:00	2024-11-08T10:00:00	2	Temperatura media	15.6
89222	7	Sololá	701	Sololá	4	Finca Santa Victoria	2	Febrero	2023-11-02T00:00:00	2024-11-08T10:00:00	4	Temperatura máxima	15.6
89223	7	Sololá	701	Sololá	4	Finca Santa Victoria	2	Febrero	2023-11-02T00:00:00	2024-11-08T10:00:00	3	Temperatura mínima	13.9
89224	7	Sololá	701	Sololá	4	Finca Santa Victoria	2	Febrero	2023-11-02T00:00:00	2024-11-08T10:00:00	5	Humedad	56
89225	7	Sololá	701	Sololá	4	Finca Santa Victoria	2	Febrero	2023-11-02T00:00:00	2024-11-08T10:00:00	6	Velocidad del viento	6.4
89226	7	Sololá	701	Sololá	4	Finca Santa Victoria	2	Febrero	2023-11-02T00:00:00	2024-11-08T10:00:00	7	Dirección del viento	6.44
89227	7	Sololá	701	Sololá	4	Finca Santa Victoria	2	Febrero	2023-11-02T00:00:00	2024-11-08T10:00:00	1	Precipitación	0
89228	7	Sololá	701	Sololá	4	Finca Santa Victoria	2	Febrero	2023-11-02T00:00:00	2024-11-08T10:00:00	8	Radiación solar	565
89229	7	Sololá	701	Sololá	4	Finca Santa Victoria	2	Febrero	2023-11-02T00:00:00	2024-11-08T11:00:00	2	Temperatura media	17.7
89230	7	Sololá	701	Sololá	4	Finca Santa Victoria	2	Febrero	2023-11-02T00:00:00	2024-11-08T11:00:00	4	Temperatura máxima	17.8
89231	7	Sololá	701	Sololá	4	Finca Santa Victoria	2	Febrero	2023-11-02T00:00:00	2024-11-08T11:00:00	3	Temperatura mínima	15.6
89232	7	Sololá	701	Sololá	4	Finca Santa Victoria	2	Febrero	2023-11-02T00:00:00	2024-11-08T11:00:00	5	Humedad	52
89233	7	Sololá	701	Sololá	4	Finca Santa Victoria	2	Febrero	2023-11-02T00:00:00	2024-11-08T11:00:00	6	Velocidad del viento	6.4
89234	7	Sololá	701	Sololá	4	Finca Santa Victoria	2	Febrero	2023-11-02T00:00:00	2024-11-08T11:00:00	7	Dirección del viento	6.44
89235	7	Sololá	701	Sololá	4	Finca Santa Victoria	2	Febrero	2023-11-02T00:00:00	2024-11-08T11:00:00	1	Precipitación	0
89236	7	Sololá	701	Sololá	4	Finca Santa Victoria	2	Febrero	2023-11-02T00:00:00	2024-11-08T11:00:00	8	Radiación solar	855
89237	7	Sololá	701	Sololá	4	Finca Santa Victoria	2	Febrero	2023-11-02T00:00:00	2024-11-08T12:00:00	2	Temperatura media	18.6
89238	7	Sololá	701	Sololá	4	Finca Santa Victoria	2	Febrero	2023-11-02T00:00:00	2024-11-08T12:00:00	4	Temperatura máxima	19.2
89239	7	Sololá	701	Sololá	4	Finca Santa Victoria	2	Febrero	2023-11-02T00:00:00	2024-11-08T12:00:00	3	Temperatura mínima	17.5
89240	7	Sololá	701	Sololá	4	Finca Santa Victoria	2	Febrero	2023-11-02T00:00:00	2024-11-08T12:00:00	5	Humedad	51
89241	7	Sololá	701	Sololá	4	Finca Santa Victoria	2	Febrero	2023-11-02T00:00:00	2024-11-08T12:00:00	6	Velocidad del viento	4.8
89242	7	Sololá	701	Sololá	4	Finca Santa Victoria	2	Febrero	2023-11-02T00:00:00	2024-11-08T12:00:00	7	Dirección del viento	4.83
89243	7	Sololá	701	Sololá	4	Finca Santa Victoria	2	Febrero	2023-11-02T00:00:00	2024-11-08T12:00:00	1	Precipitación	0
89244	7	Sololá	701	Sololá	4	Finca Santa Victoria	2	Febrero	2023-11-02T00:00:00	2024-11-08T12:00:00	8	Radiación solar	944
89245	7	Sololá	701	Sololá	4	Finca Santa Victoria	2	Febrero	2023-11-02T00:00:00	2024-11-08T13:00:00	2	Temperatura media	19.1
89246	7	Sololá	701	Sololá	4	Finca Santa Victoria	2	Febrero	2023-11-02T00:00:00	2024-11-08T13:00:00	4	Temperatura máxima	19.6
89247	7	Sololá	701	Sololá	4	Finca Santa Victoria	2	Febrero	2023-11-02T00:00:00	2024-11-08T13:00:00	3	Temperatura mínima	18.6
89248	7	Sololá	701	Sololá	4	Finca Santa Victoria	2	Febrero	2023-11-02T00:00:00	2024-11-08T13:00:00	5	Humedad	46
89249	7	Sololá	701	Sololá	4	Finca Santa Victoria	2	Febrero	2023-11-02T00:00:00	2024-11-08T13:00:00	6	Velocidad del viento	6.4
89250	7	Sololá	701	Sololá	4	Finca Santa Victoria	2	Febrero	2023-11-02T00:00:00	2024-11-08T13:00:00	7	Dirección del viento	6.44
89251	7	Sololá	701	Sololá	4	Finca Santa Victoria	2	Febrero	2023-11-02T00:00:00	2024-11-08T13:00:00	1	Precipitación	0
89252	7	Sololá	701	Sololá	4	Finca Santa Victoria	2	Febrero	2023-11-02T00:00:00	2024-11-08T13:00:00	8	Radiación solar	961
89253	7	Sololá	701	Sololá	4	Finca Santa Victoria	2	Febrero	2023-11-02T00:00:00	2024-11-08T14:00:00	2	Temperatura media	19.9
89254	7	Sololá	701	Sololá	4	Finca Santa Victoria	2	Febrero	2023-11-02T00:00:00	2024-11-08T14:00:00	4	Temperatura máxima	20.1
89255	7	Sololá	701	Sololá	4	Finca Santa Victoria	2	Febrero	2023-11-02T00:00:00	2024-11-08T14:00:00	3	Temperatura mínima	19.1
89256	7	Sololá	701	Sololá	4	Finca Santa Victoria	2	Febrero	2023-11-02T00:00:00	2024-11-08T14:00:00	5	Humedad	52
89257	7	Sololá	701	Sololá	4	Finca Santa Victoria	2	Febrero	2023-11-02T00:00:00	2024-11-08T14:00:00	6	Velocidad del viento	6.4
89258	7	Sololá	701	Sololá	4	Finca Santa Victoria	2	Febrero	2023-11-02T00:00:00	2024-11-08T14:00:00	7	Dirección del viento	6.44
89259	7	Sololá	701	Sololá	4	Finca Santa Victoria	2	Febrero	2023-11-02T00:00:00	2024-11-08T14:00:00	1	Precipitación	0
89260	7	Sololá	701	Sololá	4	Finca Santa Victoria	2	Febrero	2023-11-02T00:00:00	2024-11-08T14:00:00	8	Radiación solar	929
89261	7	Sololá	701	Sololá	4	Finca Santa Victoria	2	Febrero	2023-11-02T00:00:00	2024-11-08T15:00:00	2	Temperatura media	18.3
89262	7	Sololá	701	Sololá	4	Finca Santa Victoria	2	Febrero	2023-11-02T00:00:00	2024-11-08T15:00:00	4	Temperatura máxima	19.9
89263	7	Sololá	701	Sololá	4	Finca Santa Victoria	2	Febrero	2023-11-02T00:00:00	2024-11-08T15:00:00	3	Temperatura mínima	18.3
89264	7	Sololá	701	Sololá	4	Finca Santa Victoria	2	Febrero	2023-11-02T00:00:00	2024-11-08T15:00:00	5	Humedad	53
89265	7	Sololá	701	Sololá	4	Finca Santa Victoria	2	Febrero	2023-11-02T00:00:00	2024-11-08T15:00:00	6	Velocidad del viento	6.4
89266	7	Sololá	701	Sololá	4	Finca Santa Victoria	2	Febrero	2023-11-02T00:00:00	2024-11-08T15:00:00	7	Dirección del viento	6.44
89267	7	Sololá	701	Sololá	4	Finca Santa Victoria	2	Febrero	2023-11-02T00:00:00	2024-11-08T15:00:00	1	Precipitación	0
89268	7	Sololá	701	Sololá	4	Finca Santa Victoria	2	Febrero	2023-11-02T00:00:00	2024-11-08T15:00:00	8	Radiación solar	708
89269	7	Sololá	701	Sololá	4	Finca Santa Victoria	2	Febrero	2023-11-02T00:00:00	2024-11-08T16:00:00	2	Temperatura media	18.6
89270	7	Sololá	701	Sololá	4	Finca Santa Victoria	2	Febrero	2023-11-02T00:00:00	2024-11-08T16:00:00	4	Temperatura máxima	18.7
89271	7	Sololá	701	Sololá	4	Finca Santa Victoria	2	Febrero	2023-11-02T00:00:00	2024-11-08T16:00:00	3	Temperatura mínima	18.2
89272	7	Sololá	701	Sololá	4	Finca Santa Victoria	2	Febrero	2023-11-02T00:00:00	2024-11-08T16:00:00	5	Humedad	54
89273	7	Sololá	701	Sololá	4	Finca Santa Victoria	2	Febrero	2023-11-02T00:00:00	2024-11-08T16:00:00	6	Velocidad del viento	6.4
89274	7	Sololá	701	Sololá	4	Finca Santa Victoria	2	Febrero	2023-11-02T00:00:00	2024-11-08T16:00:00	7	Dirección del viento	6.44
89275	7	Sololá	701	Sololá	4	Finca Santa Victoria	2	Febrero	2023-11-02T00:00:00	2024-11-08T16:00:00	1	Precipitación	0
89276	7	Sololá	701	Sololá	4	Finca Santa Victoria	2	Febrero	2023-11-02T00:00:00	2024-11-08T16:00:00	8	Radiación solar	417
89277	7	Sololá	701	Sololá	4	Finca Santa Victoria	2	Febrero	2023-11-02T00:00:00	2024-11-08T17:00:00	2	Temperatura media	14.9
89278	7	Sololá	701	Sololá	4	Finca Santa Victoria	2	Febrero	2023-11-02T00:00:00	2024-11-08T17:00:00	4	Temperatura máxima	18.7
89279	7	Sololá	701	Sololá	4	Finca Santa Victoria	2	Febrero	2023-11-02T00:00:00	2024-11-08T17:00:00	3	Temperatura mínima	14.9
89280	7	Sololá	701	Sololá	4	Finca Santa Victoria	2	Febrero	2023-11-02T00:00:00	2024-11-08T17:00:00	5	Humedad	66
89281	7	Sololá	701	Sololá	4	Finca Santa Victoria	2	Febrero	2023-11-02T00:00:00	2024-11-08T17:00:00	6	Velocidad del viento	6.4
89282	7	Sololá	701	Sololá	4	Finca Santa Victoria	2	Febrero	2023-11-02T00:00:00	2024-11-08T17:00:00	7	Dirección del viento	6.44
89283	7	Sololá	701	Sololá	4	Finca Santa Victoria	2	Febrero	2023-11-02T00:00:00	2024-11-08T17:00:00	1	Precipitación	0
89284	7	Sololá	701	Sololá	4	Finca Santa Victoria	2	Febrero	2023-11-02T00:00:00	2024-11-08T17:00:00	8	Radiación solar	135
89285	7	Sololá	701	Sololá	4	Finca Santa Victoria	2	Febrero	2023-11-02T00:00:00	2024-11-08T18:00:00	2	Temperatura media	13.8
89286	7	Sololá	701	Sololá	4	Finca Santa Victoria	2	Febrero	2023-11-02T00:00:00	2024-11-08T18:00:00	4	Temperatura máxima	15.7
89287	7	Sololá	701	Sololá	4	Finca Santa Victoria	2	Febrero	2023-11-02T00:00:00	2024-11-08T18:00:00	3	Temperatura mínima	13.8
89288	7	Sololá	701	Sololá	4	Finca Santa Victoria	2	Febrero	2023-11-02T00:00:00	2024-11-08T18:00:00	5	Humedad	73
89289	7	Sololá	701	Sololá	4	Finca Santa Victoria	2	Febrero	2023-11-02T00:00:00	2024-11-08T18:00:00	6	Velocidad del viento	4.8
89290	7	Sololá	701	Sololá	4	Finca Santa Victoria	2	Febrero	2023-11-02T00:00:00	2024-11-08T18:00:00	7	Dirección del viento	4.83
89291	7	Sololá	701	Sololá	4	Finca Santa Victoria	2	Febrero	2023-11-02T00:00:00	2024-11-08T18:00:00	1	Precipitación	0
89292	7	Sololá	701	Sololá	4	Finca Santa Victoria	2	Febrero	2023-11-02T00:00:00	2024-11-08T18:00:00	8	Radiación solar	83
89293	7	Sololá	701	Sololá	4	Finca Santa Victoria	2	Febrero	2023-11-02T00:00:00	2024-11-08T19:00:00	2	Temperatura media	12.8
89294	7	Sololá	701	Sololá	4	Finca Santa Victoria	2	Febrero	2023-11-02T00:00:00	2024-11-08T19:00:00	4	Temperatura máxima	13.8
89295	7	Sololá	701	Sololá	4	Finca Santa Victoria	2	Febrero	2023-11-02T00:00:00	2024-11-08T19:00:00	3	Temperatura mínima	12.8
89296	7	Sololá	701	Sololá	4	Finca Santa Victoria	2	Febrero	2023-11-02T00:00:00	2024-11-08T19:00:00	5	Humedad	81
89297	7	Sololá	701	Sololá	4	Finca Santa Victoria	2	Febrero	2023-11-02T00:00:00	2024-11-08T19:00:00	6	Velocidad del viento	6.4
89298	7	Sololá	701	Sololá	4	Finca Santa Victoria	2	Febrero	2023-11-02T00:00:00	2024-11-08T19:00:00	7	Dirección del viento	6.44
89299	7	Sololá	701	Sololá	4	Finca Santa Victoria	2	Febrero	2023-11-02T00:00:00	2024-11-08T19:00:00	1	Precipitación	0
89300	7	Sololá	701	Sololá	4	Finca Santa Victoria	2	Febrero	2023-11-02T00:00:00	2024-11-08T19:00:00	8	Radiación solar	0
89301	7	Sololá	701	Sololá	4	Finca Santa Victoria	2	Febrero	2023-11-02T00:00:00	2024-11-08T20:00:00	2	Temperatura media	11.8
89302	7	Sololá	701	Sololá	4	Finca Santa Victoria	2	Febrero	2023-11-02T00:00:00	2024-11-08T20:00:00	4	Temperatura máxima	12.8
89303	7	Sololá	701	Sololá	4	Finca Santa Victoria	2	Febrero	2023-11-02T00:00:00	2024-11-08T20:00:00	3	Temperatura mínima	11.8
89304	7	Sololá	701	Sololá	4	Finca Santa Victoria	2	Febrero	2023-11-02T00:00:00	2024-11-08T20:00:00	5	Humedad	90
89305	7	Sololá	701	Sololá	4	Finca Santa Victoria	2	Febrero	2023-11-02T00:00:00	2024-11-08T20:00:00	6	Velocidad del viento	6.4
89306	7	Sololá	701	Sololá	4	Finca Santa Victoria	2	Febrero	2023-11-02T00:00:00	2024-11-08T20:00:00	7	Dirección del viento	6.44
89307	7	Sololá	701	Sololá	4	Finca Santa Victoria	2	Febrero	2023-11-02T00:00:00	2024-11-08T20:00:00	1	Precipitación	0
89308	7	Sololá	701	Sololá	4	Finca Santa Victoria	2	Febrero	2023-11-02T00:00:00	2024-11-08T20:00:00	8	Radiación solar	0
89309	7	Sololá	701	Sololá	4	Finca Santa Victoria	2	Febrero	2023-11-02T00:00:00	2024-11-08T21:00:00	2	Temperatura media	11.8
89310	7	Sololá	701	Sololá	4	Finca Santa Victoria	2	Febrero	2023-11-02T00:00:00	2024-11-08T21:00:00	4	Temperatura máxima	11.8
89311	7	Sololá	701	Sololá	4	Finca Santa Victoria	2	Febrero	2023-11-02T00:00:00	2024-11-08T21:00:00	3	Temperatura mínima	11.6
89312	7	Sololá	701	Sololá	4	Finca Santa Victoria	2	Febrero	2023-11-02T00:00:00	2024-11-08T21:00:00	5	Humedad	91
89313	7	Sololá	701	Sololá	4	Finca Santa Victoria	2	Febrero	2023-11-02T00:00:00	2024-11-08T21:00:00	6	Velocidad del viento	8
89314	7	Sololá	701	Sololá	4	Finca Santa Victoria	2	Febrero	2023-11-02T00:00:00	2024-11-08T21:00:00	7	Dirección del viento	8.05
89315	7	Sololá	701	Sololá	4	Finca Santa Victoria	2	Febrero	2023-11-02T00:00:00	2024-11-08T21:00:00	1	Precipitación	0
89316	7	Sololá	701	Sololá	4	Finca Santa Victoria	2	Febrero	2023-11-02T00:00:00	2024-11-08T21:00:00	8	Radiación solar	0
89317	7	Sololá	701	Sololá	4	Finca Santa Victoria	2	Febrero	2023-11-02T00:00:00	2024-11-08T22:00:00	2	Temperatura media	11.9
89318	7	Sololá	701	Sololá	4	Finca Santa Victoria	2	Febrero	2023-11-02T00:00:00	2024-11-08T22:00:00	4	Temperatura máxima	12.1
89319	7	Sololá	701	Sololá	4	Finca Santa Victoria	2	Febrero	2023-11-02T00:00:00	2024-11-08T22:00:00	3	Temperatura mínima	11.8
89320	7	Sololá	701	Sololá	4	Finca Santa Victoria	2	Febrero	2023-11-02T00:00:00	2024-11-08T22:00:00	5	Humedad	90
89321	7	Sololá	701	Sololá	4	Finca Santa Victoria	2	Febrero	2023-11-02T00:00:00	2024-11-08T22:00:00	6	Velocidad del viento	6.4
89322	7	Sololá	701	Sololá	4	Finca Santa Victoria	2	Febrero	2023-11-02T00:00:00	2024-11-08T22:00:00	7	Dirección del viento	6.44
89323	7	Sololá	701	Sololá	4	Finca Santa Victoria	2	Febrero	2023-11-02T00:00:00	2024-11-08T22:00:00	1	Precipitación	0
89324	7	Sololá	701	Sololá	4	Finca Santa Victoria	2	Febrero	2023-11-02T00:00:00	2024-11-08T22:00:00	8	Radiación solar	0
89325	7	Sololá	701	Sololá	4	Finca Santa Victoria	2	Febrero	2023-11-02T00:00:00	2024-11-08T23:00:00	2	Temperatura media	11.6
89326	7	Sololá	701	Sololá	4	Finca Santa Victoria	2	Febrero	2023-11-02T00:00:00	2024-11-08T23:00:00	4	Temperatura máxima	11.9
89327	7	Sololá	701	Sololá	4	Finca Santa Victoria	2	Febrero	2023-11-02T00:00:00	2024-11-08T23:00:00	3	Temperatura mínima	11.5
89328	7	Sololá	701	Sololá	4	Finca Santa Victoria	2	Febrero	2023-11-02T00:00:00	2024-11-08T23:00:00	5	Humedad	90
89329	7	Sololá	701	Sololá	4	Finca Santa Victoria	2	Febrero	2023-11-02T00:00:00	2024-11-08T23:00:00	6	Velocidad del viento	6.4
89330	7	Sololá	701	Sololá	4	Finca Santa Victoria	2	Febrero	2023-11-02T00:00:00	2024-11-08T23:00:00	7	Dirección del viento	6.44
89331	7	Sololá	701	Sololá	4	Finca Santa Victoria	2	Febrero	2023-11-02T00:00:00	2024-11-08T23:00:00	1	Precipitación	0
89332	7	Sololá	701	Sololá	4	Finca Santa Victoria	2	Febrero	2023-11-02T00:00:00	2024-11-08T23:00:00	8	Radiación solar	0
89333	7	Sololá	701	Sololá	4	Finca Santa Victoria	2	Febrero	2023-12-02T00:00:00	2024-11-08T00:00:00	2	Temperatura media	11.2
89334	7	Sololá	701	Sololá	4	Finca Santa Victoria	2	Febrero	2023-12-02T00:00:00	2024-11-08T00:00:00	4	Temperatura máxima	11.6
89335	7	Sololá	701	Sololá	4	Finca Santa Victoria	2	Febrero	2023-12-02T00:00:00	2024-11-08T00:00:00	3	Temperatura mínima	11.2
89336	7	Sololá	701	Sololá	4	Finca Santa Victoria	2	Febrero	2023-12-02T00:00:00	2024-11-08T00:00:00	5	Humedad	90
89337	7	Sololá	701	Sololá	4	Finca Santa Victoria	2	Febrero	2023-12-02T00:00:00	2024-11-08T00:00:00	6	Velocidad del viento	6.4
89338	7	Sololá	701	Sololá	4	Finca Santa Victoria	2	Febrero	2023-12-02T00:00:00	2024-11-08T00:00:00	7	Dirección del viento	6.44
89339	7	Sololá	701	Sololá	4	Finca Santa Victoria	2	Febrero	2023-12-02T00:00:00	2024-11-08T00:00:00	1	Precipitación	0
89340	7	Sololá	701	Sololá	4	Finca Santa Victoria	2	Febrero	2023-12-02T00:00:00	2024-11-08T00:00:00	8	Radiación solar	0
89341	7	Sololá	701	Sololá	4	Finca Santa Victoria	2	Febrero	2023-12-02T00:00:00	2024-11-08T01:00:00	2	Temperatura media	11.1
89342	7	Sololá	701	Sololá	4	Finca Santa Victoria	2	Febrero	2023-12-02T00:00:00	2024-11-08T01:00:00	4	Temperatura máxima	11.3
89343	7	Sololá	701	Sololá	4	Finca Santa Victoria	2	Febrero	2023-12-02T00:00:00	2024-11-08T01:00:00	3	Temperatura mínima	11.1
89344	7	Sololá	701	Sololá	4	Finca Santa Victoria	2	Febrero	2023-12-02T00:00:00	2024-11-08T01:00:00	5	Humedad	88
89345	7	Sololá	701	Sololá	4	Finca Santa Victoria	2	Febrero	2023-12-02T00:00:00	2024-11-08T01:00:00	6	Velocidad del viento	6.4
89346	7	Sololá	701	Sololá	4	Finca Santa Victoria	2	Febrero	2023-12-02T00:00:00	2024-11-08T01:00:00	7	Dirección del viento	6.44
89347	7	Sololá	701	Sololá	4	Finca Santa Victoria	2	Febrero	2023-12-02T00:00:00	2024-11-08T01:00:00	1	Precipitación	0
89348	7	Sololá	701	Sololá	4	Finca Santa Victoria	2	Febrero	2023-12-02T00:00:00	2024-11-08T01:00:00	8	Radiación solar	0
89349	7	Sololá	701	Sololá	4	Finca Santa Victoria	2	Febrero	2023-12-02T00:00:00	2024-11-08T02:00:00	2	Temperatura media	10.4
89350	7	Sololá	701	Sololá	4	Finca Santa Victoria	2	Febrero	2023-12-02T00:00:00	2024-11-08T02:00:00	4	Temperatura máxima	11.1
89351	7	Sololá	701	Sololá	4	Finca Santa Victoria	2	Febrero	2023-12-02T00:00:00	2024-11-08T02:00:00	3	Temperatura mínima	10.4
89352	7	Sololá	701	Sololá	4	Finca Santa Victoria	2	Febrero	2023-12-02T00:00:00	2024-11-08T02:00:00	5	Humedad	89
89353	7	Sololá	701	Sololá	4	Finca Santa Victoria	2	Febrero	2023-12-02T00:00:00	2024-11-08T02:00:00	6	Velocidad del viento	6.4
89354	7	Sololá	701	Sololá	4	Finca Santa Victoria	2	Febrero	2023-12-02T00:00:00	2024-11-08T02:00:00	7	Dirección del viento	6.44
89355	7	Sololá	701	Sololá	4	Finca Santa Victoria	2	Febrero	2023-12-02T00:00:00	2024-11-08T02:00:00	1	Precipitación	0
89356	7	Sololá	701	Sololá	4	Finca Santa Victoria	2	Febrero	2023-12-02T00:00:00	2024-11-08T02:00:00	8	Radiación solar	0
89357	7	Sololá	701	Sololá	4	Finca Santa Victoria	2	Febrero	2023-12-02T00:00:00	2024-11-08T03:00:00	2	Temperatura media	10.2
89358	7	Sololá	701	Sololá	4	Finca Santa Victoria	2	Febrero	2023-12-02T00:00:00	2024-11-08T03:00:00	4	Temperatura máxima	10.5
89359	7	Sololá	701	Sololá	4	Finca Santa Victoria	2	Febrero	2023-12-02T00:00:00	2024-11-08T03:00:00	3	Temperatura mínima	10.1
89360	7	Sololá	701	Sololá	4	Finca Santa Victoria	2	Febrero	2023-12-02T00:00:00	2024-11-08T03:00:00	5	Humedad	87
89361	7	Sololá	701	Sololá	4	Finca Santa Victoria	2	Febrero	2023-12-02T00:00:00	2024-11-08T03:00:00	6	Velocidad del viento	4.8
89362	7	Sololá	701	Sololá	4	Finca Santa Victoria	2	Febrero	2023-12-02T00:00:00	2024-11-08T03:00:00	7	Dirección del viento	4.83
89363	7	Sololá	701	Sololá	4	Finca Santa Victoria	2	Febrero	2023-12-02T00:00:00	2024-11-08T03:00:00	1	Precipitación	0
89364	7	Sololá	701	Sololá	4	Finca Santa Victoria	2	Febrero	2023-12-02T00:00:00	2024-11-08T03:00:00	8	Radiación solar	0
89365	7	Sololá	701	Sololá	4	Finca Santa Victoria	2	Febrero	2023-12-02T00:00:00	2024-11-08T04:00:00	2	Temperatura media	9.7
89366	7	Sololá	701	Sololá	4	Finca Santa Victoria	2	Febrero	2023-12-02T00:00:00	2024-11-08T04:00:00	4	Temperatura máxima	10.2
89367	7	Sololá	701	Sololá	4	Finca Santa Victoria	2	Febrero	2023-12-02T00:00:00	2024-11-08T04:00:00	3	Temperatura mínima	9.7
89368	7	Sololá	701	Sololá	4	Finca Santa Victoria	2	Febrero	2023-12-02T00:00:00	2024-11-08T04:00:00	5	Humedad	88
89369	7	Sololá	701	Sololá	4	Finca Santa Victoria	2	Febrero	2023-12-02T00:00:00	2024-11-08T04:00:00	6	Velocidad del viento	6.4
89370	7	Sololá	701	Sololá	4	Finca Santa Victoria	2	Febrero	2023-12-02T00:00:00	2024-11-08T04:00:00	7	Dirección del viento	6.44
89371	7	Sololá	701	Sololá	4	Finca Santa Victoria	2	Febrero	2023-12-02T00:00:00	2024-11-08T04:00:00	1	Precipitación	0
89372	7	Sololá	701	Sololá	4	Finca Santa Victoria	2	Febrero	2023-12-02T00:00:00	2024-11-08T04:00:00	8	Radiación solar	0
89373	7	Sololá	701	Sololá	4	Finca Santa Victoria	2	Febrero	2023-12-02T00:00:00	2024-11-08T05:00:00	2	Temperatura media	9.1
89374	7	Sololá	701	Sololá	4	Finca Santa Victoria	2	Febrero	2023-12-02T00:00:00	2024-11-08T05:00:00	4	Temperatura máxima	9.7
89375	7	Sololá	701	Sololá	4	Finca Santa Victoria	2	Febrero	2023-12-02T00:00:00	2024-11-08T05:00:00	3	Temperatura mínima	9.1
89376	7	Sololá	701	Sololá	4	Finca Santa Victoria	2	Febrero	2023-12-02T00:00:00	2024-11-08T05:00:00	5	Humedad	90
89377	7	Sololá	701	Sololá	4	Finca Santa Victoria	2	Febrero	2023-12-02T00:00:00	2024-11-08T05:00:00	6	Velocidad del viento	4.8
89378	7	Sololá	701	Sololá	4	Finca Santa Victoria	2	Febrero	2023-12-02T00:00:00	2024-11-08T05:00:00	7	Dirección del viento	4.83
89379	7	Sololá	701	Sololá	4	Finca Santa Victoria	2	Febrero	2023-12-02T00:00:00	2024-11-08T05:00:00	1	Precipitación	0
89380	7	Sololá	701	Sololá	4	Finca Santa Victoria	2	Febrero	2023-12-02T00:00:00	2024-11-08T05:00:00	8	Radiación solar	0
89381	7	Sololá	701	Sololá	4	Finca Santa Victoria	2	Febrero	2023-12-02T00:00:00	2024-11-08T06:00:00	2	Temperatura media	9.1
89382	7	Sololá	701	Sololá	4	Finca Santa Victoria	2	Febrero	2023-12-02T00:00:00	2024-11-08T06:00:00	4	Temperatura máxima	9.1
89383	7	Sololá	701	Sololá	4	Finca Santa Victoria	2	Febrero	2023-12-02T00:00:00	2024-11-08T06:00:00	3	Temperatura mínima	8.9
89384	7	Sololá	701	Sololá	4	Finca Santa Victoria	2	Febrero	2023-12-02T00:00:00	2024-11-08T06:00:00	5	Humedad	89
89385	7	Sololá	701	Sololá	4	Finca Santa Victoria	2	Febrero	2023-12-02T00:00:00	2024-11-08T06:00:00	6	Velocidad del viento	4.8
89386	7	Sololá	701	Sololá	4	Finca Santa Victoria	2	Febrero	2023-12-02T00:00:00	2024-11-08T06:00:00	7	Dirección del viento	4.83
89387	7	Sololá	701	Sololá	4	Finca Santa Victoria	2	Febrero	2023-12-02T00:00:00	2024-11-08T06:00:00	1	Precipitación	0
89388	7	Sololá	701	Sololá	4	Finca Santa Victoria	2	Febrero	2023-12-02T00:00:00	2024-11-08T06:00:00	8	Radiación solar	0
89389	7	Sololá	701	Sololá	4	Finca Santa Victoria	2	Febrero	2023-12-02T00:00:00	2024-11-08T07:00:00	2	Temperatura media	9.3
89390	7	Sololá	701	Sololá	4	Finca Santa Victoria	2	Febrero	2023-12-02T00:00:00	2024-11-08T07:00:00	4	Temperatura máxima	9.3
89391	7	Sololá	701	Sololá	4	Finca Santa Victoria	2	Febrero	2023-12-02T00:00:00	2024-11-08T07:00:00	3	Temperatura mínima	8.8
89392	7	Sololá	701	Sololá	4	Finca Santa Victoria	2	Febrero	2023-12-02T00:00:00	2024-11-08T07:00:00	5	Humedad	86
89393	7	Sololá	701	Sololá	4	Finca Santa Victoria	2	Febrero	2023-12-02T00:00:00	2024-11-08T07:00:00	6	Velocidad del viento	4.8
89394	7	Sololá	701	Sololá	4	Finca Santa Victoria	2	Febrero	2023-12-02T00:00:00	2024-11-08T07:00:00	7	Dirección del viento	4.83
89395	7	Sololá	701	Sololá	4	Finca Santa Victoria	2	Febrero	2023-12-02T00:00:00	2024-11-08T07:00:00	1	Precipitación	0
89396	7	Sololá	701	Sololá	4	Finca Santa Victoria	2	Febrero	2023-12-02T00:00:00	2024-11-08T07:00:00	8	Radiación solar	4
89397	7	Sololá	701	Sololá	4	Finca Santa Victoria	2	Febrero	2023-12-02T00:00:00	2024-11-08T08:00:00	2	Temperatura media	10.8
89398	7	Sololá	701	Sololá	4	Finca Santa Victoria	2	Febrero	2023-12-02T00:00:00	2024-11-08T08:00:00	4	Temperatura máxima	10.8
89399	7	Sololá	701	Sololá	4	Finca Santa Victoria	2	Febrero	2023-12-02T00:00:00	2024-11-08T08:00:00	3	Temperatura mínima	9.3
89400	7	Sololá	701	Sololá	4	Finca Santa Victoria	2	Febrero	2023-12-02T00:00:00	2024-11-08T08:00:00	5	Humedad	80
89401	7	Sololá	701	Sololá	4	Finca Santa Victoria	2	Febrero	2023-12-02T00:00:00	2024-11-08T08:00:00	6	Velocidad del viento	6.4
89402	7	Sololá	701	Sololá	4	Finca Santa Victoria	2	Febrero	2023-12-02T00:00:00	2024-11-08T08:00:00	7	Dirección del viento	6.44
89403	7	Sololá	701	Sololá	4	Finca Santa Victoria	2	Febrero	2023-12-02T00:00:00	2024-11-08T08:00:00	1	Precipitación	0
89404	7	Sololá	701	Sololá	4	Finca Santa Victoria	2	Febrero	2023-12-02T00:00:00	2024-11-08T08:00:00	8	Radiación solar	34
89405	7	Sololá	701	Sololá	4	Finca Santa Victoria	2	Febrero	2023-12-02T00:00:00	2024-11-08T09:00:00	2	Temperatura media	12.4
89406	7	Sololá	701	Sololá	4	Finca Santa Victoria	2	Febrero	2023-12-02T00:00:00	2024-11-08T09:00:00	4	Temperatura máxima	12.4
89407	7	Sololá	701	Sololá	4	Finca Santa Victoria	2	Febrero	2023-12-02T00:00:00	2024-11-08T09:00:00	3	Temperatura mínima	10.8
89408	7	Sololá	701	Sololá	4	Finca Santa Victoria	2	Febrero	2023-12-02T00:00:00	2024-11-08T09:00:00	5	Humedad	76
89409	7	Sololá	701	Sololá	4	Finca Santa Victoria	2	Febrero	2023-12-02T00:00:00	2024-11-08T09:00:00	6	Velocidad del viento	8
89410	7	Sololá	701	Sololá	4	Finca Santa Victoria	2	Febrero	2023-12-02T00:00:00	2024-11-08T09:00:00	7	Dirección del viento	8.05
89411	7	Sololá	701	Sololá	4	Finca Santa Victoria	2	Febrero	2023-12-02T00:00:00	2024-11-08T09:00:00	1	Precipitación	0
89412	7	Sololá	701	Sololá	4	Finca Santa Victoria	2	Febrero	2023-12-02T00:00:00	2024-11-08T09:00:00	8	Radiación solar	173
89413	7	Sololá	701	Sololá	4	Finca Santa Victoria	2	Febrero	2023-12-02T00:00:00	2024-11-08T10:00:00	2	Temperatura media	14.1
89414	7	Sololá	701	Sololá	4	Finca Santa Victoria	2	Febrero	2023-12-02T00:00:00	2024-11-08T10:00:00	4	Temperatura máxima	14.2
89415	7	Sololá	701	Sololá	4	Finca Santa Victoria	2	Febrero	2023-12-02T00:00:00	2024-11-08T10:00:00	3	Temperatura mínima	12.4
89416	7	Sololá	701	Sololá	4	Finca Santa Victoria	2	Febrero	2023-12-02T00:00:00	2024-11-08T10:00:00	5	Humedad	71
89417	7	Sololá	701	Sololá	4	Finca Santa Victoria	2	Febrero	2023-12-02T00:00:00	2024-11-08T10:00:00	6	Velocidad del viento	6.4
89418	7	Sololá	701	Sololá	4	Finca Santa Victoria	2	Febrero	2023-12-02T00:00:00	2024-11-08T10:00:00	7	Dirección del viento	6.44
89419	7	Sololá	701	Sololá	4	Finca Santa Victoria	2	Febrero	2023-12-02T00:00:00	2024-11-08T10:00:00	1	Precipitación	0
89420	7	Sololá	701	Sololá	4	Finca Santa Victoria	2	Febrero	2023-12-02T00:00:00	2024-11-08T10:00:00	8	Radiación solar	622
89421	7	Sololá	701	Sololá	4	Finca Santa Victoria	2	Febrero	2023-12-02T00:00:00	2024-11-08T11:00:00	2	Temperatura media	14.9
89422	7	Sololá	701	Sololá	4	Finca Santa Victoria	2	Febrero	2023-12-02T00:00:00	2024-11-08T11:00:00	4	Temperatura máxima	14.9
89423	7	Sololá	701	Sololá	4	Finca Santa Victoria	2	Febrero	2023-12-02T00:00:00	2024-11-08T11:00:00	3	Temperatura mínima	14.1
89424	7	Sololá	701	Sololá	4	Finca Santa Victoria	2	Febrero	2023-12-02T00:00:00	2024-11-08T11:00:00	5	Humedad	68
89425	7	Sololá	701	Sololá	4	Finca Santa Victoria	2	Febrero	2023-12-02T00:00:00	2024-11-08T11:00:00	6	Velocidad del viento	8
89426	7	Sololá	701	Sololá	4	Finca Santa Victoria	2	Febrero	2023-12-02T00:00:00	2024-11-08T11:00:00	7	Dirección del viento	8.05
89427	7	Sololá	701	Sololá	4	Finca Santa Victoria	2	Febrero	2023-12-02T00:00:00	2024-11-08T11:00:00	1	Precipitación	0
89428	7	Sololá	701	Sololá	4	Finca Santa Victoria	2	Febrero	2023-12-02T00:00:00	2024-11-08T11:00:00	8	Radiación solar	860
89429	7	Sololá	701	Sololá	4	Finca Santa Victoria	2	Febrero	2023-12-02T00:00:00	2024-11-08T12:00:00	2	Temperatura media	16.8
89430	7	Sololá	701	Sololá	4	Finca Santa Victoria	2	Febrero	2023-12-02T00:00:00	2024-11-08T12:00:00	4	Temperatura máxima	16.8
89431	7	Sololá	701	Sololá	4	Finca Santa Victoria	2	Febrero	2023-12-02T00:00:00	2024-11-08T12:00:00	3	Temperatura mínima	14.9
89432	7	Sololá	701	Sololá	4	Finca Santa Victoria	2	Febrero	2023-12-02T00:00:00	2024-11-08T12:00:00	5	Humedad	62
89433	7	Sololá	701	Sololá	4	Finca Santa Victoria	2	Febrero	2023-12-02T00:00:00	2024-11-08T12:00:00	6	Velocidad del viento	6.4
89434	7	Sololá	701	Sololá	4	Finca Santa Victoria	2	Febrero	2023-12-02T00:00:00	2024-11-08T12:00:00	7	Dirección del viento	6.44
89435	7	Sololá	701	Sololá	4	Finca Santa Victoria	2	Febrero	2023-12-02T00:00:00	2024-11-08T12:00:00	1	Precipitación	0
89436	7	Sololá	701	Sololá	4	Finca Santa Victoria	2	Febrero	2023-12-02T00:00:00	2024-11-08T12:00:00	8	Radiación solar	947
89437	7	Sololá	701	Sololá	4	Finca Santa Victoria	2	Febrero	2023-12-02T00:00:00	2024-11-08T13:00:00	2	Temperatura media	17.7
89438	7	Sololá	701	Sololá	4	Finca Santa Victoria	2	Febrero	2023-12-02T00:00:00	2024-11-08T13:00:00	4	Temperatura máxima	18.1
89439	7	Sololá	701	Sololá	4	Finca Santa Victoria	2	Febrero	2023-12-02T00:00:00	2024-11-08T13:00:00	3	Temperatura mínima	16.8
89440	7	Sololá	701	Sololá	4	Finca Santa Victoria	2	Febrero	2023-12-02T00:00:00	2024-11-08T13:00:00	5	Humedad	60
89441	7	Sololá	701	Sololá	4	Finca Santa Victoria	2	Febrero	2023-12-02T00:00:00	2024-11-08T13:00:00	6	Velocidad del viento	6.4
89442	7	Sololá	701	Sololá	4	Finca Santa Victoria	2	Febrero	2023-12-02T00:00:00	2024-11-08T13:00:00	7	Dirección del viento	6.44
89443	7	Sololá	701	Sololá	4	Finca Santa Victoria	2	Febrero	2023-12-02T00:00:00	2024-11-08T13:00:00	1	Precipitación	0
89444	7	Sololá	701	Sololá	4	Finca Santa Victoria	2	Febrero	2023-12-02T00:00:00	2024-11-08T13:00:00	8	Radiación solar	958
89445	7	Sololá	701	Sololá	4	Finca Santa Victoria	2	Febrero	2023-12-02T00:00:00	2024-11-08T14:00:00	2	Temperatura media	19.4
89446	7	Sololá	701	Sololá	4	Finca Santa Victoria	2	Febrero	2023-12-02T00:00:00	2024-11-08T14:00:00	4	Temperatura máxima	19.5
89447	7	Sololá	701	Sololá	4	Finca Santa Victoria	2	Febrero	2023-12-02T00:00:00	2024-11-08T14:00:00	3	Temperatura mínima	17.7
89448	7	Sololá	701	Sololá	4	Finca Santa Victoria	2	Febrero	2023-12-02T00:00:00	2024-11-08T14:00:00	5	Humedad	53
89449	7	Sololá	701	Sololá	4	Finca Santa Victoria	2	Febrero	2023-12-02T00:00:00	2024-11-08T14:00:00	6	Velocidad del viento	4.8
89450	7	Sololá	701	Sololá	4	Finca Santa Victoria	2	Febrero	2023-12-02T00:00:00	2024-11-08T14:00:00	7	Dirección del viento	4.83
89451	7	Sololá	701	Sololá	4	Finca Santa Victoria	2	Febrero	2023-12-02T00:00:00	2024-11-08T14:00:00	1	Precipitación	0
89452	7	Sololá	701	Sololá	4	Finca Santa Victoria	2	Febrero	2023-12-02T00:00:00	2024-11-08T14:00:00	8	Radiación solar	881
89453	7	Sololá	701	Sololá	4	Finca Santa Victoria	2	Febrero	2023-12-02T00:00:00	2024-11-08T15:00:00	2	Temperatura media	19.6
89454	7	Sololá	701	Sololá	4	Finca Santa Victoria	2	Febrero	2023-12-02T00:00:00	2024-11-08T15:00:00	4	Temperatura máxima	20.2
89455	7	Sololá	701	Sololá	4	Finca Santa Victoria	2	Febrero	2023-12-02T00:00:00	2024-11-08T15:00:00	3	Temperatura mínima	19.3
89456	7	Sololá	701	Sololá	4	Finca Santa Victoria	2	Febrero	2023-12-02T00:00:00	2024-11-08T15:00:00	5	Humedad	54
89457	7	Sololá	701	Sololá	4	Finca Santa Victoria	2	Febrero	2023-12-02T00:00:00	2024-11-08T15:00:00	6	Velocidad del viento	4.8
89458	7	Sololá	701	Sololá	4	Finca Santa Victoria	2	Febrero	2023-12-02T00:00:00	2024-11-08T15:00:00	7	Dirección del viento	4.83
89459	7	Sololá	701	Sololá	4	Finca Santa Victoria	2	Febrero	2023-12-02T00:00:00	2024-11-08T15:00:00	1	Precipitación	0
89460	7	Sololá	701	Sololá	4	Finca Santa Victoria	2	Febrero	2023-12-02T00:00:00	2024-11-08T15:00:00	8	Radiación solar	725
89461	7	Sololá	701	Sololá	4	Finca Santa Victoria	2	Febrero	2023-12-02T00:00:00	2024-11-08T16:00:00	2	Temperatura media	18.7
89462	7	Sololá	701	Sololá	4	Finca Santa Victoria	2	Febrero	2023-12-02T00:00:00	2024-11-08T16:00:00	4	Temperatura máxima	19.8
89463	7	Sololá	701	Sololá	4	Finca Santa Victoria	2	Febrero	2023-12-02T00:00:00	2024-11-08T16:00:00	3	Temperatura mínima	18.7
89464	7	Sololá	701	Sololá	4	Finca Santa Victoria	2	Febrero	2023-12-02T00:00:00	2024-11-08T16:00:00	5	Humedad	57
89465	7	Sololá	701	Sololá	4	Finca Santa Victoria	2	Febrero	2023-12-02T00:00:00	2024-11-08T16:00:00	6	Velocidad del viento	4.8
89466	7	Sololá	701	Sololá	4	Finca Santa Victoria	2	Febrero	2023-12-02T00:00:00	2024-11-08T16:00:00	7	Dirección del viento	4.83
89467	7	Sololá	701	Sololá	4	Finca Santa Victoria	2	Febrero	2023-12-02T00:00:00	2024-11-08T16:00:00	1	Precipitación	0
89468	7	Sololá	701	Sololá	4	Finca Santa Victoria	2	Febrero	2023-12-02T00:00:00	2024-11-08T16:00:00	8	Radiación solar	385
89469	7	Sololá	701	Sololá	4	Finca Santa Victoria	2	Febrero	2023-12-02T00:00:00	2024-11-08T17:00:00	2	Temperatura media	17.6
89470	7	Sololá	701	Sololá	4	Finca Santa Victoria	2	Febrero	2023-12-02T00:00:00	2024-11-08T17:00:00	4	Temperatura máxima	18.8
89471	7	Sololá	701	Sololá	4	Finca Santa Victoria	2	Febrero	2023-12-02T00:00:00	2024-11-08T17:00:00	3	Temperatura mínima	17.6
89472	7	Sololá	701	Sololá	4	Finca Santa Victoria	2	Febrero	2023-12-02T00:00:00	2024-11-08T17:00:00	5	Humedad	60
89473	7	Sololá	701	Sololá	4	Finca Santa Victoria	2	Febrero	2023-12-02T00:00:00	2024-11-08T17:00:00	6	Velocidad del viento	4.8
89474	7	Sololá	701	Sololá	4	Finca Santa Victoria	2	Febrero	2023-12-02T00:00:00	2024-11-08T17:00:00	7	Dirección del viento	4.83
89475	7	Sololá	701	Sololá	4	Finca Santa Victoria	2	Febrero	2023-12-02T00:00:00	2024-11-08T17:00:00	1	Precipitación	0
89476	7	Sololá	701	Sololá	4	Finca Santa Victoria	2	Febrero	2023-12-02T00:00:00	2024-11-08T17:00:00	8	Radiación solar	291
89477	7	Sololá	701	Sololá	4	Finca Santa Victoria	2	Febrero	2023-12-02T00:00:00	2024-11-08T18:00:00	2	Temperatura media	14
89478	7	Sololá	701	Sololá	4	Finca Santa Victoria	2	Febrero	2023-12-02T00:00:00	2024-11-08T18:00:00	4	Temperatura máxima	17.6
89479	7	Sololá	701	Sololá	4	Finca Santa Victoria	2	Febrero	2023-12-02T00:00:00	2024-11-08T18:00:00	3	Temperatura mínima	14
89480	7	Sololá	701	Sololá	4	Finca Santa Victoria	2	Febrero	2023-12-02T00:00:00	2024-11-08T18:00:00	5	Humedad	71
89481	7	Sololá	701	Sololá	4	Finca Santa Victoria	2	Febrero	2023-12-02T00:00:00	2024-11-08T18:00:00	6	Velocidad del viento	4.8
89482	7	Sololá	701	Sololá	4	Finca Santa Victoria	2	Febrero	2023-12-02T00:00:00	2024-11-08T18:00:00	7	Dirección del viento	4.83
89483	7	Sololá	701	Sololá	4	Finca Santa Victoria	2	Febrero	2023-12-02T00:00:00	2024-11-08T18:00:00	1	Precipitación	0
89484	7	Sololá	701	Sololá	4	Finca Santa Victoria	2	Febrero	2023-12-02T00:00:00	2024-11-08T18:00:00	8	Radiación solar	83
89485	7	Sololá	701	Sololá	4	Finca Santa Victoria	2	Febrero	2023-12-02T00:00:00	2024-11-08T19:00:00	2	Temperatura media	12.1
89486	7	Sololá	701	Sololá	4	Finca Santa Victoria	2	Febrero	2023-12-02T00:00:00	2024-11-08T19:00:00	4	Temperatura máxima	14
89487	7	Sololá	701	Sololá	4	Finca Santa Victoria	2	Febrero	2023-12-02T00:00:00	2024-11-08T19:00:00	3	Temperatura mínima	12.1
89488	7	Sololá	701	Sololá	4	Finca Santa Victoria	2	Febrero	2023-12-02T00:00:00	2024-11-08T19:00:00	5	Humedad	78
89489	7	Sololá	701	Sololá	4	Finca Santa Victoria	2	Febrero	2023-12-02T00:00:00	2024-11-08T19:00:00	6	Velocidad del viento	4.8
89490	7	Sololá	701	Sololá	4	Finca Santa Victoria	2	Febrero	2023-12-02T00:00:00	2024-11-08T19:00:00	7	Dirección del viento	4.83
89491	7	Sololá	701	Sololá	4	Finca Santa Victoria	2	Febrero	2023-12-02T00:00:00	2024-11-08T19:00:00	1	Precipitación	0
89492	7	Sololá	701	Sololá	4	Finca Santa Victoria	2	Febrero	2023-12-02T00:00:00	2024-11-08T19:00:00	8	Radiación solar	0
89493	7	Sololá	701	Sololá	4	Finca Santa Victoria	2	Febrero	2023-12-02T00:00:00	2024-11-08T20:00:00	2	Temperatura media	10.8
89494	7	Sololá	701	Sololá	4	Finca Santa Victoria	2	Febrero	2023-12-02T00:00:00	2024-11-08T20:00:00	4	Temperatura máxima	12.1
89495	7	Sololá	701	Sololá	4	Finca Santa Victoria	2	Febrero	2023-12-02T00:00:00	2024-11-08T20:00:00	3	Temperatura mínima	10.8
89496	7	Sololá	701	Sololá	4	Finca Santa Victoria	2	Febrero	2023-12-02T00:00:00	2024-11-08T20:00:00	5	Humedad	81
89497	7	Sololá	701	Sololá	4	Finca Santa Victoria	2	Febrero	2023-12-02T00:00:00	2024-11-08T20:00:00	6	Velocidad del viento	4.8
89498	7	Sololá	701	Sololá	4	Finca Santa Victoria	2	Febrero	2023-12-02T00:00:00	2024-11-08T20:00:00	7	Dirección del viento	4.83
89499	7	Sololá	701	Sololá	4	Finca Santa Victoria	2	Febrero	2023-12-02T00:00:00	2024-11-08T20:00:00	1	Precipitación	0
89500	7	Sololá	701	Sololá	4	Finca Santa Victoria	2	Febrero	2023-12-02T00:00:00	2024-11-08T20:00:00	8	Radiación solar	0
89501	7	Sololá	701	Sololá	4	Finca Santa Victoria	2	Febrero	2023-12-02T00:00:00	2024-11-08T21:00:00	2	Temperatura media	9.8
89502	7	Sololá	701	Sololá	4	Finca Santa Victoria	2	Febrero	2023-12-02T00:00:00	2024-11-08T21:00:00	4	Temperatura máxima	10.8
89503	7	Sololá	701	Sololá	4	Finca Santa Victoria	2	Febrero	2023-12-02T00:00:00	2024-11-08T21:00:00	3	Temperatura mínima	9.8
89504	7	Sololá	701	Sololá	4	Finca Santa Victoria	2	Febrero	2023-12-02T00:00:00	2024-11-08T21:00:00	5	Humedad	84
89505	7	Sololá	701	Sololá	4	Finca Santa Victoria	2	Febrero	2023-12-02T00:00:00	2024-11-08T21:00:00	6	Velocidad del viento	4.8
89506	7	Sololá	701	Sololá	4	Finca Santa Victoria	2	Febrero	2023-12-02T00:00:00	2024-11-08T21:00:00	7	Dirección del viento	4.83
89507	7	Sololá	701	Sololá	4	Finca Santa Victoria	2	Febrero	2023-12-02T00:00:00	2024-11-08T21:00:00	1	Precipitación	0
89508	7	Sololá	701	Sololá	4	Finca Santa Victoria	2	Febrero	2023-12-02T00:00:00	2024-11-08T21:00:00	8	Radiación solar	0
89509	7	Sololá	701	Sololá	4	Finca Santa Victoria	2	Febrero	2023-12-02T00:00:00	2024-11-08T22:00:00	2	Temperatura media	9.7
89510	7	Sololá	701	Sololá	4	Finca Santa Victoria	2	Febrero	2023-12-02T00:00:00	2024-11-08T22:00:00	4	Temperatura máxima	9.8
89511	7	Sololá	701	Sololá	4	Finca Santa Victoria	2	Febrero	2023-12-02T00:00:00	2024-11-08T22:00:00	3	Temperatura mínima	9.6
89512	7	Sololá	701	Sololá	4	Finca Santa Victoria	2	Febrero	2023-12-02T00:00:00	2024-11-08T22:00:00	5	Humedad	87
89513	7	Sololá	701	Sololá	4	Finca Santa Victoria	2	Febrero	2023-12-02T00:00:00	2024-11-08T22:00:00	6	Velocidad del viento	6.4
89514	7	Sololá	701	Sololá	4	Finca Santa Victoria	2	Febrero	2023-12-02T00:00:00	2024-11-08T22:00:00	7	Dirección del viento	6.44
89515	7	Sololá	701	Sololá	4	Finca Santa Victoria	2	Febrero	2023-12-02T00:00:00	2024-11-08T22:00:00	1	Precipitación	0
89516	7	Sololá	701	Sololá	4	Finca Santa Victoria	2	Febrero	2023-12-02T00:00:00	2024-11-08T22:00:00	8	Radiación solar	0
89517	7	Sololá	701	Sololá	4	Finca Santa Victoria	2	Febrero	2023-12-02T00:00:00	2024-11-08T23:00:00	2	Temperatura media	9.7
89518	7	Sololá	701	Sololá	4	Finca Santa Victoria	2	Febrero	2023-12-02T00:00:00	2024-11-08T23:00:00	4	Temperatura máxima	9.7
89519	7	Sololá	701	Sololá	4	Finca Santa Victoria	2	Febrero	2023-12-02T00:00:00	2024-11-08T23:00:00	3	Temperatura mínima	9.4
89520	7	Sololá	701	Sololá	4	Finca Santa Victoria	2	Febrero	2023-12-02T00:00:00	2024-11-08T23:00:00	5	Humedad	88
89521	7	Sololá	701	Sololá	4	Finca Santa Victoria	2	Febrero	2023-12-02T00:00:00	2024-11-08T23:00:00	6	Velocidad del viento	6.4
89522	7	Sololá	701	Sololá	4	Finca Santa Victoria	2	Febrero	2023-12-02T00:00:00	2024-11-08T23:00:00	7	Dirección del viento	6.44
89523	7	Sololá	701	Sololá	4	Finca Santa Victoria	2	Febrero	2023-12-02T00:00:00	2024-11-08T23:00:00	1	Precipitación	0
89524	7	Sololá	701	Sololá	4	Finca Santa Victoria	2	Febrero	2023-12-02T00:00:00	2024-11-08T23:00:00	8	Radiación solar	0
89525	7	Sololá	701	Sololá	4	Finca Santa Victoria	2	Febrero	2023-02-13T00:00:00	2024-11-08T00:00:00	2	Temperatura media	9.7
89526	7	Sololá	701	Sololá	4	Finca Santa Victoria	2	Febrero	2023-02-13T00:00:00	2024-11-08T00:00:00	4	Temperatura máxima	9.9
89527	7	Sololá	701	Sololá	4	Finca Santa Victoria	2	Febrero	2023-02-13T00:00:00	2024-11-08T00:00:00	3	Temperatura mínima	9.7
89528	7	Sololá	701	Sololá	4	Finca Santa Victoria	2	Febrero	2023-02-13T00:00:00	2024-11-08T00:00:00	5	Humedad	88
89529	7	Sololá	701	Sololá	4	Finca Santa Victoria	2	Febrero	2023-02-13T00:00:00	2024-11-08T00:00:00	6	Velocidad del viento	4.8
89530	7	Sololá	701	Sololá	4	Finca Santa Victoria	2	Febrero	2023-02-13T00:00:00	2024-11-08T00:00:00	7	Dirección del viento	4.83
89531	7	Sololá	701	Sololá	4	Finca Santa Victoria	2	Febrero	2023-02-13T00:00:00	2024-11-08T00:00:00	1	Precipitación	0
89532	7	Sololá	701	Sololá	4	Finca Santa Victoria	2	Febrero	2023-02-13T00:00:00	2024-11-08T00:00:00	8	Radiación solar	0
89533	7	Sololá	701	Sololá	4	Finca Santa Victoria	2	Febrero	2023-02-13T00:00:00	2024-11-08T01:00:00	2	Temperatura media	11.1
89534	7	Sololá	701	Sololá	4	Finca Santa Victoria	2	Febrero	2023-02-13T00:00:00	2024-11-08T01:00:00	4	Temperatura máxima	11.1
89535	7	Sololá	701	Sololá	4	Finca Santa Victoria	2	Febrero	2023-02-13T00:00:00	2024-11-08T01:00:00	3	Temperatura mínima	9.7
89536	7	Sololá	701	Sololá	4	Finca Santa Victoria	2	Febrero	2023-02-13T00:00:00	2024-11-08T01:00:00	5	Humedad	82
89537	7	Sololá	701	Sololá	4	Finca Santa Victoria	2	Febrero	2023-02-13T00:00:00	2024-11-08T01:00:00	6	Velocidad del viento	3.2
89538	7	Sololá	701	Sololá	4	Finca Santa Victoria	2	Febrero	2023-02-13T00:00:00	2024-11-08T01:00:00	7	Dirección del viento	3.22
89539	7	Sololá	701	Sololá	4	Finca Santa Victoria	2	Febrero	2023-02-13T00:00:00	2024-11-08T01:00:00	1	Precipitación	0
89540	7	Sololá	701	Sololá	4	Finca Santa Victoria	2	Febrero	2023-02-13T00:00:00	2024-11-08T01:00:00	8	Radiación solar	0
89541	7	Sololá	701	Sololá	4	Finca Santa Victoria	2	Febrero	2023-02-13T00:00:00	2024-11-08T02:00:00	2	Temperatura media	11.1
89542	7	Sololá	701	Sololá	4	Finca Santa Victoria	2	Febrero	2023-02-13T00:00:00	2024-11-08T02:00:00	4	Temperatura máxima	11.4
89543	7	Sololá	701	Sololá	4	Finca Santa Victoria	2	Febrero	2023-02-13T00:00:00	2024-11-08T02:00:00	3	Temperatura mínima	10.9
89544	7	Sololá	701	Sololá	4	Finca Santa Victoria	2	Febrero	2023-02-13T00:00:00	2024-11-08T02:00:00	5	Humedad	81
89545	7	Sololá	701	Sololá	4	Finca Santa Victoria	2	Febrero	2023-02-13T00:00:00	2024-11-08T02:00:00	6	Velocidad del viento	3.2
89546	7	Sololá	701	Sololá	4	Finca Santa Victoria	2	Febrero	2023-02-13T00:00:00	2024-11-08T02:00:00	7	Dirección del viento	3.22
89547	7	Sololá	701	Sololá	4	Finca Santa Victoria	2	Febrero	2023-02-13T00:00:00	2024-11-08T02:00:00	1	Precipitación	0
89548	7	Sololá	701	Sololá	4	Finca Santa Victoria	2	Febrero	2023-02-13T00:00:00	2024-11-08T02:00:00	8	Radiación solar	0
89549	7	Sololá	701	Sololá	4	Finca Santa Victoria	2	Febrero	2023-02-13T00:00:00	2024-11-08T03:00:00	2	Temperatura media	10
89550	7	Sololá	701	Sololá	4	Finca Santa Victoria	2	Febrero	2023-02-13T00:00:00	2024-11-08T03:00:00	4	Temperatura máxima	11.1
89551	7	Sololá	701	Sololá	4	Finca Santa Victoria	2	Febrero	2023-02-13T00:00:00	2024-11-08T03:00:00	3	Temperatura mínima	10
89552	7	Sololá	701	Sololá	4	Finca Santa Victoria	2	Febrero	2023-02-13T00:00:00	2024-11-08T03:00:00	5	Humedad	87
89553	7	Sololá	701	Sololá	4	Finca Santa Victoria	2	Febrero	2023-02-13T00:00:00	2024-11-08T03:00:00	6	Velocidad del viento	3.2
89554	7	Sololá	701	Sololá	4	Finca Santa Victoria	2	Febrero	2023-02-13T00:00:00	2024-11-08T03:00:00	7	Dirección del viento	3.22
89555	7	Sololá	701	Sololá	4	Finca Santa Victoria	2	Febrero	2023-02-13T00:00:00	2024-11-08T03:00:00	1	Precipitación	0
89556	7	Sololá	701	Sololá	4	Finca Santa Victoria	2	Febrero	2023-02-13T00:00:00	2024-11-08T03:00:00	8	Radiación solar	0
89557	7	Sololá	701	Sololá	4	Finca Santa Victoria	2	Febrero	2023-02-13T00:00:00	2024-11-08T04:00:00	2	Temperatura media	9.7
89558	7	Sololá	701	Sololá	4	Finca Santa Victoria	2	Febrero	2023-02-13T00:00:00	2024-11-08T04:00:00	4	Temperatura máxima	10.2
89559	7	Sololá	701	Sololá	4	Finca Santa Victoria	2	Febrero	2023-02-13T00:00:00	2024-11-08T04:00:00	3	Temperatura mínima	9.7
89560	7	Sololá	701	Sololá	4	Finca Santa Victoria	2	Febrero	2023-02-13T00:00:00	2024-11-08T04:00:00	5	Humedad	89
89561	7	Sololá	701	Sololá	4	Finca Santa Victoria	2	Febrero	2023-02-13T00:00:00	2024-11-08T04:00:00	6	Velocidad del viento	6.4
89562	7	Sololá	701	Sololá	4	Finca Santa Victoria	2	Febrero	2023-02-13T00:00:00	2024-11-08T04:00:00	7	Dirección del viento	6.44
89563	7	Sololá	701	Sololá	4	Finca Santa Victoria	2	Febrero	2023-02-13T00:00:00	2024-11-08T04:00:00	1	Precipitación	0
89564	7	Sololá	701	Sololá	4	Finca Santa Victoria	2	Febrero	2023-02-13T00:00:00	2024-11-08T04:00:00	8	Radiación solar	0
89565	7	Sololá	701	Sololá	4	Finca Santa Victoria	2	Febrero	2023-02-13T00:00:00	2024-11-08T05:00:00	2	Temperatura media	9.8
89566	7	Sololá	701	Sololá	4	Finca Santa Victoria	2	Febrero	2023-02-13T00:00:00	2024-11-08T05:00:00	4	Temperatura máxima	9.9
89567	7	Sololá	701	Sololá	4	Finca Santa Victoria	2	Febrero	2023-02-13T00:00:00	2024-11-08T05:00:00	3	Temperatura mínima	9.6
89568	7	Sololá	701	Sololá	4	Finca Santa Victoria	2	Febrero	2023-02-13T00:00:00	2024-11-08T05:00:00	5	Humedad	89
89569	7	Sololá	701	Sololá	4	Finca Santa Victoria	2	Febrero	2023-02-13T00:00:00	2024-11-08T05:00:00	6	Velocidad del viento	6.4
89570	7	Sololá	701	Sololá	4	Finca Santa Victoria	2	Febrero	2023-02-13T00:00:00	2024-11-08T05:00:00	7	Dirección del viento	6.44
89571	7	Sololá	701	Sololá	4	Finca Santa Victoria	2	Febrero	2023-02-13T00:00:00	2024-11-08T05:00:00	1	Precipitación	0
89572	7	Sololá	701	Sololá	4	Finca Santa Victoria	2	Febrero	2023-02-13T00:00:00	2024-11-08T05:00:00	8	Radiación solar	0
89573	7	Sololá	701	Sololá	4	Finca Santa Victoria	2	Febrero	2023-02-13T00:00:00	2024-11-08T06:00:00	2	Temperatura media	10
89574	7	Sololá	701	Sololá	4	Finca Santa Victoria	2	Febrero	2023-02-13T00:00:00	2024-11-08T06:00:00	4	Temperatura máxima	10.1
89575	7	Sololá	701	Sololá	4	Finca Santa Victoria	2	Febrero	2023-02-13T00:00:00	2024-11-08T06:00:00	3	Temperatura mínima	9.7
89576	7	Sololá	701	Sololá	4	Finca Santa Victoria	2	Febrero	2023-02-13T00:00:00	2024-11-08T06:00:00	5	Humedad	88
89577	7	Sololá	701	Sololá	4	Finca Santa Victoria	2	Febrero	2023-02-13T00:00:00	2024-11-08T06:00:00	6	Velocidad del viento	4.8
89578	7	Sololá	701	Sololá	4	Finca Santa Victoria	2	Febrero	2023-02-13T00:00:00	2024-11-08T06:00:00	7	Dirección del viento	4.83
89579	7	Sololá	701	Sololá	4	Finca Santa Victoria	2	Febrero	2023-02-13T00:00:00	2024-11-08T06:00:00	1	Precipitación	0
89580	7	Sololá	701	Sololá	4	Finca Santa Victoria	2	Febrero	2023-02-13T00:00:00	2024-11-08T06:00:00	8	Radiación solar	0
89581	7	Sololá	701	Sololá	4	Finca Santa Victoria	2	Febrero	2023-02-13T00:00:00	2024-11-08T07:00:00	2	Temperatura media	10
89582	7	Sololá	701	Sololá	4	Finca Santa Victoria	2	Febrero	2023-02-13T00:00:00	2024-11-08T07:00:00	4	Temperatura máxima	10.1
89583	7	Sololá	701	Sololá	4	Finca Santa Victoria	2	Febrero	2023-02-13T00:00:00	2024-11-08T07:00:00	3	Temperatura mínima	9.9
89584	7	Sololá	701	Sololá	4	Finca Santa Victoria	2	Febrero	2023-02-13T00:00:00	2024-11-08T07:00:00	5	Humedad	88
89585	7	Sololá	701	Sololá	4	Finca Santa Victoria	2	Febrero	2023-02-13T00:00:00	2024-11-08T07:00:00	6	Velocidad del viento	3.2
89586	7	Sololá	701	Sololá	4	Finca Santa Victoria	2	Febrero	2023-02-13T00:00:00	2024-11-08T07:00:00	7	Dirección del viento	3.22
89587	7	Sololá	701	Sololá	4	Finca Santa Victoria	2	Febrero	2023-02-13T00:00:00	2024-11-08T07:00:00	1	Precipitación	0
89588	7	Sololá	701	Sololá	4	Finca Santa Victoria	2	Febrero	2023-02-13T00:00:00	2024-11-08T07:00:00	8	Radiación solar	5
89589	7	Sololá	701	Sololá	4	Finca Santa Victoria	2	Febrero	2023-02-13T00:00:00	2024-11-08T08:00:00	2	Temperatura media	11.5
89590	7	Sololá	701	Sololá	4	Finca Santa Victoria	2	Febrero	2023-02-13T00:00:00	2024-11-08T08:00:00	4	Temperatura máxima	11.5
89591	7	Sololá	701	Sololá	4	Finca Santa Victoria	2	Febrero	2023-02-13T00:00:00	2024-11-08T08:00:00	3	Temperatura mínima	10
89592	7	Sololá	701	Sololá	4	Finca Santa Victoria	2	Febrero	2023-02-13T00:00:00	2024-11-08T08:00:00	5	Humedad	85
89593	7	Sololá	701	Sololá	4	Finca Santa Victoria	2	Febrero	2023-02-13T00:00:00	2024-11-08T08:00:00	6	Velocidad del viento	3.2
89594	7	Sololá	701	Sololá	4	Finca Santa Victoria	2	Febrero	2023-02-13T00:00:00	2024-11-08T08:00:00	7	Dirección del viento	3.22
89595	7	Sololá	701	Sololá	4	Finca Santa Victoria	2	Febrero	2023-02-13T00:00:00	2024-11-08T08:00:00	1	Precipitación	0
89596	7	Sololá	701	Sololá	4	Finca Santa Victoria	2	Febrero	2023-02-13T00:00:00	2024-11-08T08:00:00	8	Radiación solar	77
89597	7	Sololá	701	Sololá	4	Finca Santa Victoria	2	Febrero	2023-02-13T00:00:00	2024-11-08T09:00:00	2	Temperatura media	13.8
89598	7	Sololá	701	Sololá	4	Finca Santa Victoria	2	Febrero	2023-02-13T00:00:00	2024-11-08T09:00:00	4	Temperatura máxima	13.8
89599	7	Sololá	701	Sololá	4	Finca Santa Victoria	2	Febrero	2023-02-13T00:00:00	2024-11-08T09:00:00	3	Temperatura mínima	11.3
89600	7	Sololá	701	Sololá	4	Finca Santa Victoria	2	Febrero	2023-02-13T00:00:00	2024-11-08T09:00:00	5	Humedad	77
89601	7	Sololá	701	Sololá	4	Finca Santa Victoria	2	Febrero	2023-02-13T00:00:00	2024-11-08T09:00:00	6	Velocidad del viento	3.2
89602	7	Sololá	701	Sololá	4	Finca Santa Victoria	2	Febrero	2023-02-13T00:00:00	2024-11-08T09:00:00	7	Dirección del viento	3.22
89603	7	Sololá	701	Sololá	4	Finca Santa Victoria	2	Febrero	2023-02-13T00:00:00	2024-11-08T09:00:00	1	Precipitación	0
89604	7	Sololá	701	Sololá	4	Finca Santa Victoria	2	Febrero	2023-02-13T00:00:00	2024-11-08T09:00:00	8	Radiación solar	196
89605	7	Sololá	701	Sololá	4	Finca Santa Victoria	2	Febrero	2023-02-13T00:00:00	2024-11-08T10:00:00	2	Temperatura media	15.8
89606	7	Sololá	701	Sololá	4	Finca Santa Victoria	2	Febrero	2023-02-13T00:00:00	2024-11-08T10:00:00	4	Temperatura máxima	15.8
89607	7	Sololá	701	Sololá	4	Finca Santa Victoria	2	Febrero	2023-02-13T00:00:00	2024-11-08T10:00:00	3	Temperatura mínima	13.8
89608	7	Sololá	701	Sololá	4	Finca Santa Victoria	2	Febrero	2023-02-13T00:00:00	2024-11-08T10:00:00	5	Humedad	70
89609	7	Sololá	701	Sololá	4	Finca Santa Victoria	2	Febrero	2023-02-13T00:00:00	2024-11-08T10:00:00	6	Velocidad del viento	4.8
89610	7	Sololá	701	Sololá	4	Finca Santa Victoria	2	Febrero	2023-02-13T00:00:00	2024-11-08T10:00:00	7	Dirección del viento	4.83
89611	7	Sololá	701	Sololá	4	Finca Santa Victoria	2	Febrero	2023-02-13T00:00:00	2024-11-08T10:00:00	1	Precipitación	0
89612	7	Sololá	701	Sololá	4	Finca Santa Victoria	2	Febrero	2023-02-13T00:00:00	2024-11-08T10:00:00	8	Radiación solar	670
89613	7	Sololá	701	Sololá	4	Finca Santa Victoria	2	Febrero	2023-02-13T00:00:00	2024-11-08T11:00:00	2	Temperatura media	17.9
89614	7	Sololá	701	Sololá	4	Finca Santa Victoria	2	Febrero	2023-02-13T00:00:00	2024-11-08T11:00:00	4	Temperatura máxima	18
89615	7	Sololá	701	Sololá	4	Finca Santa Victoria	2	Febrero	2023-02-13T00:00:00	2024-11-08T11:00:00	3	Temperatura mínima	15.8
89616	7	Sololá	701	Sololá	4	Finca Santa Victoria	2	Febrero	2023-02-13T00:00:00	2024-11-08T11:00:00	5	Humedad	61
89617	7	Sololá	701	Sololá	4	Finca Santa Victoria	2	Febrero	2023-02-13T00:00:00	2024-11-08T11:00:00	6	Velocidad del viento	4.8
89618	7	Sololá	701	Sololá	4	Finca Santa Victoria	2	Febrero	2023-02-13T00:00:00	2024-11-08T11:00:00	7	Dirección del viento	4.83
89619	7	Sololá	701	Sololá	4	Finca Santa Victoria	2	Febrero	2023-02-13T00:00:00	2024-11-08T11:00:00	1	Precipitación	0
89620	7	Sololá	701	Sololá	4	Finca Santa Victoria	2	Febrero	2023-02-13T00:00:00	2024-11-08T11:00:00	8	Radiación solar	864
89621	7	Sololá	701	Sololá	4	Finca Santa Victoria	2	Febrero	2023-02-13T00:00:00	2024-11-08T12:00:00	2	Temperatura media	17.5
89622	7	Sololá	701	Sololá	4	Finca Santa Victoria	2	Febrero	2023-02-13T00:00:00	2024-11-08T12:00:00	4	Temperatura máxima	18.6
89623	7	Sololá	701	Sololá	4	Finca Santa Victoria	2	Febrero	2023-02-13T00:00:00	2024-11-08T12:00:00	3	Temperatura mínima	17.3
89624	7	Sololá	701	Sololá	4	Finca Santa Victoria	2	Febrero	2023-02-13T00:00:00	2024-11-08T12:00:00	5	Humedad	62
89625	7	Sololá	701	Sololá	4	Finca Santa Victoria	2	Febrero	2023-02-13T00:00:00	2024-11-08T12:00:00	6	Velocidad del viento	4.8
89626	7	Sololá	701	Sololá	4	Finca Santa Victoria	2	Febrero	2023-02-13T00:00:00	2024-11-08T12:00:00	7	Dirección del viento	4.83
89627	7	Sololá	701	Sololá	4	Finca Santa Victoria	2	Febrero	2023-02-13T00:00:00	2024-11-08T12:00:00	1	Precipitación	0
89628	7	Sololá	701	Sololá	4	Finca Santa Victoria	2	Febrero	2023-02-13T00:00:00	2024-11-08T12:00:00	8	Radiación solar	521
89629	7	Sololá	701	Sololá	4	Finca Santa Victoria	2	Febrero	2023-02-13T00:00:00	2024-11-08T13:00:00	2	Temperatura media	17.7
89630	7	Sololá	701	Sololá	4	Finca Santa Victoria	2	Febrero	2023-02-13T00:00:00	2024-11-08T13:00:00	4	Temperatura máxima	19.1
89631	7	Sololá	701	Sololá	4	Finca Santa Victoria	2	Febrero	2023-02-13T00:00:00	2024-11-08T13:00:00	3	Temperatura mínima	17.6
89632	7	Sololá	701	Sololá	4	Finca Santa Victoria	2	Febrero	2023-02-13T00:00:00	2024-11-08T13:00:00	5	Humedad	59
89633	7	Sololá	701	Sololá	4	Finca Santa Victoria	2	Febrero	2023-02-13T00:00:00	2024-11-08T13:00:00	6	Velocidad del viento	4.8
89634	7	Sololá	701	Sololá	4	Finca Santa Victoria	2	Febrero	2023-02-13T00:00:00	2024-11-08T13:00:00	7	Dirección del viento	4.83
89635	7	Sololá	701	Sololá	4	Finca Santa Victoria	2	Febrero	2023-02-13T00:00:00	2024-11-08T13:00:00	1	Precipitación	0
89636	7	Sololá	701	Sololá	4	Finca Santa Victoria	2	Febrero	2023-02-13T00:00:00	2024-11-08T13:00:00	8	Radiación solar	375
89637	7	Sololá	701	Sololá	4	Finca Santa Victoria	2	Febrero	2023-02-13T00:00:00	2024-11-08T14:00:00	2	Temperatura media	20.2
89638	7	Sololá	701	Sololá	4	Finca Santa Victoria	2	Febrero	2023-02-13T00:00:00	2024-11-08T14:00:00	4	Temperatura máxima	20.2
89639	7	Sololá	701	Sololá	4	Finca Santa Victoria	2	Febrero	2023-02-13T00:00:00	2024-11-08T14:00:00	3	Temperatura mínima	17.7
89640	7	Sololá	701	Sololá	4	Finca Santa Victoria	2	Febrero	2023-02-13T00:00:00	2024-11-08T14:00:00	5	Humedad	49
89641	7	Sololá	701	Sololá	4	Finca Santa Victoria	2	Febrero	2023-02-13T00:00:00	2024-11-08T14:00:00	6	Velocidad del viento	4.8
89642	7	Sololá	701	Sololá	4	Finca Santa Victoria	2	Febrero	2023-02-13T00:00:00	2024-11-08T14:00:00	7	Dirección del viento	4.83
89643	7	Sololá	701	Sololá	4	Finca Santa Victoria	2	Febrero	2023-02-13T00:00:00	2024-11-08T14:00:00	1	Precipitación	0
89644	7	Sololá	701	Sololá	4	Finca Santa Victoria	2	Febrero	2023-02-13T00:00:00	2024-11-08T14:00:00	8	Radiación solar	396
89645	7	Sololá	701	Sololá	4	Finca Santa Victoria	2	Febrero	2023-02-13T00:00:00	2024-11-08T15:00:00	2	Temperatura media	19.9
89646	7	Sololá	701	Sololá	4	Finca Santa Victoria	2	Febrero	2023-02-13T00:00:00	2024-11-08T15:00:00	4	Temperatura máxima	20.4
89647	7	Sololá	701	Sololá	4	Finca Santa Victoria	2	Febrero	2023-02-13T00:00:00	2024-11-08T15:00:00	3	Temperatura mínima	18.6
89648	7	Sololá	701	Sololá	4	Finca Santa Victoria	2	Febrero	2023-02-13T00:00:00	2024-11-08T15:00:00	5	Humedad	49
89649	7	Sololá	701	Sololá	4	Finca Santa Victoria	2	Febrero	2023-02-13T00:00:00	2024-11-08T15:00:00	6	Velocidad del viento	4.8
89650	7	Sololá	701	Sololá	4	Finca Santa Victoria	2	Febrero	2023-02-13T00:00:00	2024-11-08T15:00:00	7	Dirección del viento	4.83
89651	7	Sololá	701	Sololá	4	Finca Santa Victoria	2	Febrero	2023-02-13T00:00:00	2024-11-08T15:00:00	1	Precipitación	0
89652	7	Sololá	701	Sololá	4	Finca Santa Victoria	2	Febrero	2023-02-13T00:00:00	2024-11-08T15:00:00	8	Radiación solar	525
89653	7	Sololá	701	Sololá	4	Finca Santa Victoria	2	Febrero	2023-02-13T00:00:00	2024-11-08T16:00:00	2	Temperatura media	19.8
89654	7	Sololá	701	Sololá	4	Finca Santa Victoria	2	Febrero	2023-02-13T00:00:00	2024-11-08T16:00:00	4	Temperatura máxima	20.9
89655	7	Sololá	701	Sololá	4	Finca Santa Victoria	2	Febrero	2023-02-13T00:00:00	2024-11-08T16:00:00	3	Temperatura mínima	19.7
89656	7	Sololá	701	Sololá	4	Finca Santa Victoria	2	Febrero	2023-02-13T00:00:00	2024-11-08T16:00:00	5	Humedad	48
89657	7	Sololá	701	Sololá	4	Finca Santa Victoria	2	Febrero	2023-02-13T00:00:00	2024-11-08T16:00:00	6	Velocidad del viento	3.2
89658	7	Sololá	701	Sololá	4	Finca Santa Victoria	2	Febrero	2023-02-13T00:00:00	2024-11-08T16:00:00	7	Dirección del viento	3.22
89659	7	Sololá	701	Sololá	4	Finca Santa Victoria	2	Febrero	2023-02-13T00:00:00	2024-11-08T16:00:00	1	Precipitación	0
89660	7	Sololá	701	Sololá	4	Finca Santa Victoria	2	Febrero	2023-02-13T00:00:00	2024-11-08T16:00:00	8	Radiación solar	368
89661	7	Sololá	701	Sololá	4	Finca Santa Victoria	2	Febrero	2023-02-13T00:00:00	2024-11-08T17:00:00	2	Temperatura media	18.7
89662	7	Sololá	701	Sololá	4	Finca Santa Victoria	2	Febrero	2023-02-13T00:00:00	2024-11-08T17:00:00	4	Temperatura máxima	19.9
89663	7	Sololá	701	Sololá	4	Finca Santa Victoria	2	Febrero	2023-02-13T00:00:00	2024-11-08T17:00:00	3	Temperatura mínima	18.7
89664	7	Sololá	701	Sololá	4	Finca Santa Victoria	2	Febrero	2023-02-13T00:00:00	2024-11-08T17:00:00	5	Humedad	53
89665	7	Sololá	701	Sololá	4	Finca Santa Victoria	2	Febrero	2023-02-13T00:00:00	2024-11-08T17:00:00	6	Velocidad del viento	3.2
89666	7	Sololá	701	Sololá	4	Finca Santa Victoria	2	Febrero	2023-02-13T00:00:00	2024-11-08T17:00:00	7	Dirección del viento	3.22
89667	7	Sololá	701	Sololá	4	Finca Santa Victoria	2	Febrero	2023-02-13T00:00:00	2024-11-08T17:00:00	1	Precipitación	0
89668	7	Sololá	701	Sololá	4	Finca Santa Victoria	2	Febrero	2023-02-13T00:00:00	2024-11-08T17:00:00	8	Radiación solar	295
89669	7	Sololá	701	Sololá	4	Finca Santa Victoria	2	Febrero	2023-02-13T00:00:00	2024-11-08T18:00:00	2	Temperatura media	14.7
89670	7	Sololá	701	Sololá	4	Finca Santa Victoria	2	Febrero	2023-02-13T00:00:00	2024-11-08T18:00:00	4	Temperatura máxima	18.7
89671	7	Sololá	701	Sololá	4	Finca Santa Victoria	2	Febrero	2023-02-13T00:00:00	2024-11-08T18:00:00	3	Temperatura mínima	14.7
89672	7	Sololá	701	Sololá	4	Finca Santa Victoria	2	Febrero	2023-02-13T00:00:00	2024-11-08T18:00:00	5	Humedad	69
89673	7	Sololá	701	Sololá	4	Finca Santa Victoria	2	Febrero	2023-02-13T00:00:00	2024-11-08T18:00:00	6	Velocidad del viento	3.2
89674	7	Sololá	701	Sololá	4	Finca Santa Victoria	2	Febrero	2023-02-13T00:00:00	2024-11-08T18:00:00	7	Dirección del viento	3.22
89675	7	Sololá	701	Sololá	4	Finca Santa Victoria	2	Febrero	2023-02-13T00:00:00	2024-11-08T18:00:00	1	Precipitación	0
89676	7	Sololá	701	Sololá	4	Finca Santa Victoria	2	Febrero	2023-02-13T00:00:00	2024-11-08T18:00:00	8	Radiación solar	83
89677	7	Sololá	701	Sololá	4	Finca Santa Victoria	2	Febrero	2023-02-13T00:00:00	2024-11-08T19:00:00	2	Temperatura media	13.4
89678	7	Sololá	701	Sololá	4	Finca Santa Victoria	2	Febrero	2023-02-13T00:00:00	2024-11-08T19:00:00	4	Temperatura máxima	14.7
89679	7	Sololá	701	Sololá	4	Finca Santa Victoria	2	Febrero	2023-02-13T00:00:00	2024-11-08T19:00:00	3	Temperatura mínima	13.3
89680	7	Sololá	701	Sololá	4	Finca Santa Victoria	2	Febrero	2023-02-13T00:00:00	2024-11-08T19:00:00	5	Humedad	75
89681	7	Sololá	701	Sololá	4	Finca Santa Victoria	2	Febrero	2023-02-13T00:00:00	2024-11-08T19:00:00	6	Velocidad del viento	3.2
89682	7	Sololá	701	Sololá	4	Finca Santa Victoria	2	Febrero	2023-02-13T00:00:00	2024-11-08T19:00:00	7	Dirección del viento	3.22
89683	7	Sololá	701	Sololá	4	Finca Santa Victoria	2	Febrero	2023-02-13T00:00:00	2024-11-08T19:00:00	1	Precipitación	0
89684	7	Sololá	701	Sololá	4	Finca Santa Victoria	2	Febrero	2023-02-13T00:00:00	2024-11-08T19:00:00	8	Radiación solar	0
89685	7	Sololá	701	Sololá	4	Finca Santa Victoria	2	Febrero	2023-02-13T00:00:00	2024-11-08T20:00:00	2	Temperatura media	12
89686	7	Sololá	701	Sololá	4	Finca Santa Victoria	2	Febrero	2023-02-13T00:00:00	2024-11-08T20:00:00	4	Temperatura máxima	13.4
89687	7	Sololá	701	Sololá	4	Finca Santa Victoria	2	Febrero	2023-02-13T00:00:00	2024-11-08T20:00:00	3	Temperatura mínima	12
89688	7	Sololá	701	Sololá	4	Finca Santa Victoria	2	Febrero	2023-02-13T00:00:00	2024-11-08T20:00:00	5	Humedad	79
89689	7	Sololá	701	Sololá	4	Finca Santa Victoria	2	Febrero	2023-02-13T00:00:00	2024-11-08T20:00:00	6	Velocidad del viento	1.6
89690	7	Sololá	701	Sololá	4	Finca Santa Victoria	2	Febrero	2023-02-13T00:00:00	2024-11-08T20:00:00	7	Dirección del viento	1.61
89691	7	Sololá	701	Sololá	4	Finca Santa Victoria	2	Febrero	2023-02-13T00:00:00	2024-11-08T20:00:00	1	Precipitación	0
89692	7	Sololá	701	Sololá	4	Finca Santa Victoria	2	Febrero	2023-02-13T00:00:00	2024-11-08T20:00:00	8	Radiación solar	0
89693	7	Sololá	701	Sololá	4	Finca Santa Victoria	2	Febrero	2023-02-13T00:00:00	2024-11-08T21:00:00	2	Temperatura media	12.1
89694	7	Sololá	701	Sololá	4	Finca Santa Victoria	2	Febrero	2023-02-13T00:00:00	2024-11-08T21:00:00	4	Temperatura máxima	12.3
89695	7	Sololá	701	Sololá	4	Finca Santa Victoria	2	Febrero	2023-02-13T00:00:00	2024-11-08T21:00:00	3	Temperatura mínima	11.8
89696	7	Sololá	701	Sololá	4	Finca Santa Victoria	2	Febrero	2023-02-13T00:00:00	2024-11-08T21:00:00	5	Humedad	77
89697	7	Sololá	701	Sololá	4	Finca Santa Victoria	2	Febrero	2023-02-13T00:00:00	2024-11-08T21:00:00	6	Velocidad del viento	3.2
89698	7	Sololá	701	Sololá	4	Finca Santa Victoria	2	Febrero	2023-02-13T00:00:00	2024-11-08T21:00:00	7	Dirección del viento	3.22
89699	7	Sololá	701	Sololá	4	Finca Santa Victoria	2	Febrero	2023-02-13T00:00:00	2024-11-08T21:00:00	1	Precipitación	0
89700	7	Sololá	701	Sololá	4	Finca Santa Victoria	2	Febrero	2023-02-13T00:00:00	2024-11-08T21:00:00	8	Radiación solar	0
89701	7	Sololá	701	Sololá	4	Finca Santa Victoria	2	Febrero	2023-02-13T00:00:00	2024-11-08T22:00:00	2	Temperatura media	11.4
89702	7	Sololá	701	Sololá	4	Finca Santa Victoria	2	Febrero	2023-02-13T00:00:00	2024-11-08T22:00:00	4	Temperatura máxima	12.1
89703	7	Sololá	701	Sololá	4	Finca Santa Victoria	2	Febrero	2023-02-13T00:00:00	2024-11-08T22:00:00	3	Temperatura mínima	11.4
89704	7	Sololá	701	Sololá	4	Finca Santa Victoria	2	Febrero	2023-02-13T00:00:00	2024-11-08T22:00:00	5	Humedad	78
89705	7	Sololá	701	Sololá	4	Finca Santa Victoria	2	Febrero	2023-02-13T00:00:00	2024-11-08T22:00:00	6	Velocidad del viento	3.2
89706	7	Sololá	701	Sololá	4	Finca Santa Victoria	2	Febrero	2023-02-13T00:00:00	2024-11-08T22:00:00	7	Dirección del viento	3.22
89707	7	Sololá	701	Sololá	4	Finca Santa Victoria	2	Febrero	2023-02-13T00:00:00	2024-11-08T22:00:00	1	Precipitación	0
89708	7	Sololá	701	Sololá	4	Finca Santa Victoria	2	Febrero	2023-02-13T00:00:00	2024-11-08T22:00:00	8	Radiación solar	0
89709	7	Sololá	701	Sololá	4	Finca Santa Victoria	2	Febrero	2023-02-13T00:00:00	2024-11-08T23:00:00	2	Temperatura media	10.4
89710	7	Sololá	701	Sololá	4	Finca Santa Victoria	2	Febrero	2023-02-13T00:00:00	2024-11-08T23:00:00	4	Temperatura máxima	11.5
89711	7	Sololá	701	Sololá	4	Finca Santa Victoria	2	Febrero	2023-02-13T00:00:00	2024-11-08T23:00:00	3	Temperatura mínima	10.4
89712	7	Sololá	701	Sololá	4	Finca Santa Victoria	2	Febrero	2023-02-13T00:00:00	2024-11-08T23:00:00	5	Humedad	87
89713	7	Sololá	701	Sololá	4	Finca Santa Victoria	2	Febrero	2023-02-13T00:00:00	2024-11-08T23:00:00	6	Velocidad del viento	1.6
89714	7	Sololá	701	Sololá	4	Finca Santa Victoria	2	Febrero	2023-02-13T00:00:00	2024-11-08T23:00:00	7	Dirección del viento	1.61
89715	7	Sololá	701	Sololá	4	Finca Santa Victoria	2	Febrero	2023-02-13T00:00:00	2024-11-08T23:00:00	1	Precipitación	0
89716	7	Sololá	701	Sololá	4	Finca Santa Victoria	2	Febrero	2023-02-13T00:00:00	2024-11-08T23:00:00	8	Radiación solar	0
89717	7	Sololá	701	Sololá	4	Finca Santa Victoria	2	Febrero	2023-02-14T00:00:00	2024-11-08T00:00:00	2	Temperatura media	9.9
89718	7	Sololá	701	Sololá	4	Finca Santa Victoria	2	Febrero	2023-02-14T00:00:00	2024-11-08T00:00:00	4	Temperatura máxima	10.4
89719	7	Sololá	701	Sololá	4	Finca Santa Victoria	2	Febrero	2023-02-14T00:00:00	2024-11-08T00:00:00	3	Temperatura mínima	9.8
89720	7	Sololá	701	Sololá	4	Finca Santa Victoria	2	Febrero	2023-02-14T00:00:00	2024-11-08T00:00:00	5	Humedad	90
89721	7	Sololá	701	Sololá	4	Finca Santa Victoria	2	Febrero	2023-02-14T00:00:00	2024-11-08T00:00:00	6	Velocidad del viento	1.6
89722	7	Sololá	701	Sololá	4	Finca Santa Victoria	2	Febrero	2023-02-14T00:00:00	2024-11-08T00:00:00	7	Dirección del viento	1.61
89723	7	Sololá	701	Sololá	4	Finca Santa Victoria	2	Febrero	2023-02-14T00:00:00	2024-11-08T00:00:00	1	Precipitación	0
89724	7	Sololá	701	Sololá	4	Finca Santa Victoria	2	Febrero	2023-02-14T00:00:00	2024-11-08T00:00:00	8	Radiación solar	0
89725	7	Sololá	701	Sololá	4	Finca Santa Victoria	2	Febrero	2023-02-14T00:00:00	2024-11-08T01:00:00	2	Temperatura media	9.4
89726	7	Sololá	701	Sololá	4	Finca Santa Victoria	2	Febrero	2023-02-14T00:00:00	2024-11-08T01:00:00	4	Temperatura máxima	9.9
89727	7	Sololá	701	Sololá	4	Finca Santa Victoria	2	Febrero	2023-02-14T00:00:00	2024-11-08T01:00:00	3	Temperatura mínima	9.4
89728	7	Sololá	701	Sololá	4	Finca Santa Victoria	2	Febrero	2023-02-14T00:00:00	2024-11-08T01:00:00	5	Humedad	81
89729	7	Sololá	701	Sololá	4	Finca Santa Victoria	2	Febrero	2023-02-14T00:00:00	2024-11-08T01:00:00	6	Velocidad del viento	1.6
89730	7	Sololá	701	Sololá	4	Finca Santa Victoria	2	Febrero	2023-02-14T00:00:00	2024-11-08T01:00:00	7	Dirección del viento	1.61
89731	7	Sololá	701	Sololá	4	Finca Santa Victoria	2	Febrero	2023-02-14T00:00:00	2024-11-08T01:00:00	1	Precipitación	0
89732	7	Sololá	701	Sololá	4	Finca Santa Victoria	2	Febrero	2023-02-14T00:00:00	2024-11-08T01:00:00	8	Radiación solar	0
89733	7	Sololá	701	Sololá	4	Finca Santa Victoria	2	Febrero	2023-02-14T00:00:00	2024-11-08T02:00:00	2	Temperatura media	9.4
89734	7	Sololá	701	Sololá	4	Finca Santa Victoria	2	Febrero	2023-02-14T00:00:00	2024-11-08T02:00:00	4	Temperatura máxima	9.5
89735	7	Sololá	701	Sololá	4	Finca Santa Victoria	2	Febrero	2023-02-14T00:00:00	2024-11-08T02:00:00	3	Temperatura mínima	9.3
89736	7	Sololá	701	Sololá	4	Finca Santa Victoria	2	Febrero	2023-02-14T00:00:00	2024-11-08T02:00:00	5	Humedad	87
89737	7	Sololá	701	Sololá	4	Finca Santa Victoria	2	Febrero	2023-02-14T00:00:00	2024-11-08T02:00:00	6	Velocidad del viento	1.6
89738	7	Sololá	701	Sololá	4	Finca Santa Victoria	2	Febrero	2023-02-14T00:00:00	2024-11-08T02:00:00	7	Dirección del viento	1.61
89739	7	Sololá	701	Sololá	4	Finca Santa Victoria	2	Febrero	2023-02-14T00:00:00	2024-11-08T02:00:00	1	Precipitación	0
89740	7	Sololá	701	Sololá	4	Finca Santa Victoria	2	Febrero	2023-02-14T00:00:00	2024-11-08T02:00:00	8	Radiación solar	0
89741	7	Sololá	701	Sololá	4	Finca Santa Victoria	2	Febrero	2023-02-14T00:00:00	2024-11-08T03:00:00	2	Temperatura media	10.1
89742	7	Sololá	701	Sololá	4	Finca Santa Victoria	2	Febrero	2023-02-14T00:00:00	2024-11-08T03:00:00	4	Temperatura máxima	10.1
89743	7	Sololá	701	Sololá	4	Finca Santa Victoria	2	Febrero	2023-02-14T00:00:00	2024-11-08T03:00:00	3	Temperatura mínima	9.3
89744	7	Sololá	701	Sololá	4	Finca Santa Victoria	2	Febrero	2023-02-14T00:00:00	2024-11-08T03:00:00	5	Humedad	79
89745	7	Sololá	701	Sololá	4	Finca Santa Victoria	2	Febrero	2023-02-14T00:00:00	2024-11-08T03:00:00	6	Velocidad del viento	3.2
89746	7	Sololá	701	Sololá	4	Finca Santa Victoria	2	Febrero	2023-02-14T00:00:00	2024-11-08T03:00:00	7	Dirección del viento	3.22
89747	7	Sololá	701	Sololá	4	Finca Santa Victoria	2	Febrero	2023-02-14T00:00:00	2024-11-08T03:00:00	1	Precipitación	0
89748	7	Sololá	701	Sololá	4	Finca Santa Victoria	2	Febrero	2023-02-14T00:00:00	2024-11-08T03:00:00	8	Radiación solar	0
89749	7	Sololá	701	Sololá	4	Finca Santa Victoria	2	Febrero	2023-02-14T00:00:00	2024-11-08T04:00:00	2	Temperatura media	10.9
89750	7	Sololá	701	Sololá	4	Finca Santa Victoria	2	Febrero	2023-02-14T00:00:00	2024-11-08T04:00:00	4	Temperatura máxima	10.9
89751	7	Sololá	701	Sololá	4	Finca Santa Victoria	2	Febrero	2023-02-14T00:00:00	2024-11-08T04:00:00	3	Temperatura mínima	10.1
89752	7	Sololá	701	Sololá	4	Finca Santa Victoria	2	Febrero	2023-02-14T00:00:00	2024-11-08T04:00:00	5	Humedad	75
89753	7	Sololá	701	Sololá	4	Finca Santa Victoria	2	Febrero	2023-02-14T00:00:00	2024-11-08T04:00:00	6	Velocidad del viento	1.6
89754	7	Sololá	701	Sololá	4	Finca Santa Victoria	2	Febrero	2023-02-14T00:00:00	2024-11-08T04:00:00	7	Dirección del viento	1.61
89755	7	Sololá	701	Sololá	4	Finca Santa Victoria	2	Febrero	2023-02-14T00:00:00	2024-11-08T04:00:00	1	Precipitación	0
89756	7	Sololá	701	Sololá	4	Finca Santa Victoria	2	Febrero	2023-02-14T00:00:00	2024-11-08T04:00:00	8	Radiación solar	0
89757	7	Sololá	701	Sololá	4	Finca Santa Victoria	2	Febrero	2023-02-14T00:00:00	2024-11-08T05:00:00	2	Temperatura media	10.8
89758	7	Sololá	701	Sololá	4	Finca Santa Victoria	2	Febrero	2023-02-14T00:00:00	2024-11-08T05:00:00	4	Temperatura máxima	11.1
89759	7	Sololá	701	Sololá	4	Finca Santa Victoria	2	Febrero	2023-02-14T00:00:00	2024-11-08T05:00:00	3	Temperatura mínima	10.8
89760	7	Sololá	701	Sololá	4	Finca Santa Victoria	2	Febrero	2023-02-14T00:00:00	2024-11-08T05:00:00	5	Humedad	75
89761	7	Sololá	701	Sololá	4	Finca Santa Victoria	2	Febrero	2023-02-14T00:00:00	2024-11-08T05:00:00	6	Velocidad del viento	1.6
89762	7	Sololá	701	Sololá	4	Finca Santa Victoria	2	Febrero	2023-02-14T00:00:00	2024-11-08T05:00:00	7	Dirección del viento	1.61
89763	7	Sololá	701	Sololá	4	Finca Santa Victoria	2	Febrero	2023-02-14T00:00:00	2024-11-08T05:00:00	1	Precipitación	0
89764	7	Sololá	701	Sololá	4	Finca Santa Victoria	2	Febrero	2023-02-14T00:00:00	2024-11-08T05:00:00	8	Radiación solar	0
89765	7	Sololá	701	Sololá	4	Finca Santa Victoria	2	Febrero	2023-02-14T00:00:00	2024-11-08T06:00:00	2	Temperatura media	10.8
89766	7	Sololá	701	Sololá	4	Finca Santa Victoria	2	Febrero	2023-02-14T00:00:00	2024-11-08T06:00:00	4	Temperatura máxima	10.9
89767	7	Sololá	701	Sololá	4	Finca Santa Victoria	2	Febrero	2023-02-14T00:00:00	2024-11-08T06:00:00	3	Temperatura mínima	10.7
89768	7	Sololá	701	Sololá	4	Finca Santa Victoria	2	Febrero	2023-02-14T00:00:00	2024-11-08T06:00:00	5	Humedad	78
89769	7	Sololá	701	Sololá	4	Finca Santa Victoria	2	Febrero	2023-02-14T00:00:00	2024-11-08T06:00:00	6	Velocidad del viento	1.6
89770	7	Sololá	701	Sololá	4	Finca Santa Victoria	2	Febrero	2023-02-14T00:00:00	2024-11-08T06:00:00	7	Dirección del viento	1.61
89771	7	Sololá	701	Sololá	4	Finca Santa Victoria	2	Febrero	2023-02-14T00:00:00	2024-11-08T06:00:00	1	Precipitación	0
89772	7	Sololá	701	Sololá	4	Finca Santa Victoria	2	Febrero	2023-02-14T00:00:00	2024-11-08T06:00:00	8	Radiación solar	0
89773	7	Sololá	701	Sololá	4	Finca Santa Victoria	2	Febrero	2023-02-14T00:00:00	2024-11-08T07:00:00	2	Temperatura media	11.1
89774	7	Sololá	701	Sololá	4	Finca Santa Victoria	2	Febrero	2023-02-14T00:00:00	2024-11-08T07:00:00	4	Temperatura máxima	11.1
89775	7	Sololá	701	Sololá	4	Finca Santa Victoria	2	Febrero	2023-02-14T00:00:00	2024-11-08T07:00:00	3	Temperatura mínima	10.7
89776	7	Sololá	701	Sololá	4	Finca Santa Victoria	2	Febrero	2023-02-14T00:00:00	2024-11-08T07:00:00	5	Humedad	78
89777	7	Sololá	701	Sololá	4	Finca Santa Victoria	2	Febrero	2023-02-14T00:00:00	2024-11-08T07:00:00	6	Velocidad del viento	1.6
89778	7	Sololá	701	Sololá	4	Finca Santa Victoria	2	Febrero	2023-02-14T00:00:00	2024-11-08T07:00:00	7	Dirección del viento	1.61
89779	7	Sololá	701	Sololá	4	Finca Santa Victoria	2	Febrero	2023-02-14T00:00:00	2024-11-08T07:00:00	1	Precipitación	0
89780	7	Sololá	701	Sololá	4	Finca Santa Victoria	2	Febrero	2023-02-14T00:00:00	2024-11-08T07:00:00	8	Radiación solar	4
89781	7	Sololá	701	Sololá	4	Finca Santa Victoria	2	Febrero	2023-02-14T00:00:00	2024-11-08T08:00:00	2	Temperatura media	12.7
89782	7	Sololá	701	Sololá	4	Finca Santa Victoria	2	Febrero	2023-02-14T00:00:00	2024-11-08T08:00:00	4	Temperatura máxima	12.7
89783	7	Sololá	701	Sololá	4	Finca Santa Victoria	2	Febrero	2023-02-14T00:00:00	2024-11-08T08:00:00	3	Temperatura mínima	11
89784	7	Sololá	701	Sololá	4	Finca Santa Victoria	2	Febrero	2023-02-14T00:00:00	2024-11-08T08:00:00	5	Humedad	79
89785	7	Sololá	701	Sololá	4	Finca Santa Victoria	2	Febrero	2023-02-14T00:00:00	2024-11-08T08:00:00	6	Velocidad del viento	1.6
89786	7	Sololá	701	Sololá	4	Finca Santa Victoria	2	Febrero	2023-02-14T00:00:00	2024-11-08T08:00:00	7	Dirección del viento	1.61
89787	7	Sololá	701	Sololá	4	Finca Santa Victoria	2	Febrero	2023-02-14T00:00:00	2024-11-08T08:00:00	1	Precipitación	0
89788	7	Sololá	701	Sololá	4	Finca Santa Victoria	2	Febrero	2023-02-14T00:00:00	2024-11-08T08:00:00	8	Radiación solar	38
89789	7	Sololá	701	Sololá	4	Finca Santa Victoria	2	Febrero	2023-02-14T00:00:00	2024-11-08T09:00:00	2	Temperatura media	15.7
89790	7	Sololá	701	Sololá	4	Finca Santa Victoria	2	Febrero	2023-02-14T00:00:00	2024-11-08T09:00:00	4	Temperatura máxima	15.7
89791	7	Sololá	701	Sololá	4	Finca Santa Victoria	2	Febrero	2023-02-14T00:00:00	2024-11-08T09:00:00	3	Temperatura mínima	12.7
89792	7	Sololá	701	Sololá	4	Finca Santa Victoria	2	Febrero	2023-02-14T00:00:00	2024-11-08T09:00:00	5	Humedad	65
89793	7	Sololá	701	Sololá	4	Finca Santa Victoria	2	Febrero	2023-02-14T00:00:00	2024-11-08T09:00:00	6	Velocidad del viento	1.6
89794	7	Sololá	701	Sololá	4	Finca Santa Victoria	2	Febrero	2023-02-14T00:00:00	2024-11-08T09:00:00	7	Dirección del viento	1.61
89795	7	Sololá	701	Sololá	4	Finca Santa Victoria	2	Febrero	2023-02-14T00:00:00	2024-11-08T09:00:00	1	Precipitación	0
89796	7	Sololá	701	Sololá	4	Finca Santa Victoria	2	Febrero	2023-02-14T00:00:00	2024-11-08T09:00:00	8	Radiación solar	162
89797	7	Sololá	701	Sololá	4	Finca Santa Victoria	2	Febrero	2023-02-14T00:00:00	2024-11-08T10:00:00	2	Temperatura media	16.5
89798	7	Sololá	701	Sololá	4	Finca Santa Victoria	2	Febrero	2023-02-14T00:00:00	2024-11-08T10:00:00	4	Temperatura máxima	16.9
89799	7	Sololá	701	Sololá	4	Finca Santa Victoria	2	Febrero	2023-02-14T00:00:00	2024-11-08T10:00:00	3	Temperatura mínima	15.7
89800	7	Sololá	701	Sololá	4	Finca Santa Victoria	2	Febrero	2023-02-14T00:00:00	2024-11-08T10:00:00	5	Humedad	63
89801	7	Sololá	701	Sololá	4	Finca Santa Victoria	2	Febrero	2023-02-14T00:00:00	2024-11-08T10:00:00	6	Velocidad del viento	3.2
89802	7	Sololá	701	Sololá	4	Finca Santa Victoria	2	Febrero	2023-02-14T00:00:00	2024-11-08T10:00:00	7	Dirección del viento	3.22
89803	7	Sololá	701	Sololá	4	Finca Santa Victoria	2	Febrero	2023-02-14T00:00:00	2024-11-08T10:00:00	1	Precipitación	0
89804	7	Sololá	701	Sololá	4	Finca Santa Victoria	2	Febrero	2023-02-14T00:00:00	2024-11-08T10:00:00	8	Radiación solar	666
89805	7	Sololá	701	Sololá	4	Finca Santa Victoria	2	Febrero	2023-02-14T00:00:00	2024-11-08T11:00:00	2	Temperatura media	17.8
89806	7	Sololá	701	Sololá	4	Finca Santa Victoria	2	Febrero	2023-02-14T00:00:00	2024-11-08T11:00:00	4	Temperatura máxima	17.8
89807	7	Sololá	701	Sololá	4	Finca Santa Victoria	2	Febrero	2023-02-14T00:00:00	2024-11-08T11:00:00	3	Temperatura mínima	16.5
89808	7	Sololá	701	Sololá	4	Finca Santa Victoria	2	Febrero	2023-02-14T00:00:00	2024-11-08T11:00:00	5	Humedad	62
89809	7	Sololá	701	Sololá	4	Finca Santa Victoria	2	Febrero	2023-02-14T00:00:00	2024-11-08T11:00:00	6	Velocidad del viento	4.8
89810	7	Sololá	701	Sololá	4	Finca Santa Victoria	2	Febrero	2023-02-14T00:00:00	2024-11-08T11:00:00	7	Dirección del viento	4.83
89811	7	Sololá	701	Sololá	4	Finca Santa Victoria	2	Febrero	2023-02-14T00:00:00	2024-11-08T11:00:00	1	Precipitación	0
89812	7	Sololá	701	Sololá	4	Finca Santa Victoria	2	Febrero	2023-02-14T00:00:00	2024-11-08T11:00:00	8	Radiación solar	872
89813	7	Sololá	701	Sololá	4	Finca Santa Victoria	2	Febrero	2023-02-14T00:00:00	2024-11-08T12:00:00	2	Temperatura media	17.8
89814	7	Sololá	701	Sololá	4	Finca Santa Victoria	2	Febrero	2023-02-14T00:00:00	2024-11-08T12:00:00	4	Temperatura máxima	19.1
89815	7	Sololá	701	Sololá	4	Finca Santa Victoria	2	Febrero	2023-02-14T00:00:00	2024-11-08T12:00:00	3	Temperatura mínima	17.7
89816	7	Sololá	701	Sololá	4	Finca Santa Victoria	2	Febrero	2023-02-14T00:00:00	2024-11-08T12:00:00	5	Humedad	64
89817	7	Sololá	701	Sololá	4	Finca Santa Victoria	2	Febrero	2023-02-14T00:00:00	2024-11-08T12:00:00	6	Velocidad del viento	4.8
89818	7	Sololá	701	Sololá	4	Finca Santa Victoria	2	Febrero	2023-02-14T00:00:00	2024-11-08T12:00:00	7	Dirección del viento	4.83
89819	7	Sololá	701	Sololá	4	Finca Santa Victoria	2	Febrero	2023-02-14T00:00:00	2024-11-08T12:00:00	1	Precipitación	0
89820	7	Sololá	701	Sololá	4	Finca Santa Victoria	2	Febrero	2023-02-14T00:00:00	2024-11-08T12:00:00	8	Radiación solar	954
89821	7	Sololá	701	Sololá	4	Finca Santa Victoria	2	Febrero	2023-02-14T00:00:00	2024-11-08T13:00:00	2	Temperatura media	18.8
89822	7	Sololá	701	Sololá	4	Finca Santa Victoria	2	Febrero	2023-02-14T00:00:00	2024-11-08T13:00:00	4	Temperatura máxima	18.8
89823	7	Sololá	701	Sololá	4	Finca Santa Victoria	2	Febrero	2023-02-14T00:00:00	2024-11-08T13:00:00	3	Temperatura mínima	17.7
89824	7	Sololá	701	Sololá	4	Finca Santa Victoria	2	Febrero	2023-02-14T00:00:00	2024-11-08T13:00:00	5	Humedad	62
89825	7	Sololá	701	Sololá	4	Finca Santa Victoria	2	Febrero	2023-02-14T00:00:00	2024-11-08T13:00:00	6	Velocidad del viento	6.4
89826	7	Sololá	701	Sololá	4	Finca Santa Victoria	2	Febrero	2023-02-14T00:00:00	2024-11-08T13:00:00	7	Dirección del viento	6.44
89827	7	Sololá	701	Sololá	4	Finca Santa Victoria	2	Febrero	2023-02-14T00:00:00	2024-11-08T13:00:00	1	Precipitación	0
89828	7	Sololá	701	Sololá	4	Finca Santa Victoria	2	Febrero	2023-02-14T00:00:00	2024-11-08T13:00:00	8	Radiación solar	975
89829	7	Sololá	701	Sololá	4	Finca Santa Victoria	2	Febrero	2023-02-14T00:00:00	2024-11-08T14:00:00	2	Temperatura media	18.6
89830	7	Sololá	701	Sololá	4	Finca Santa Victoria	2	Febrero	2023-02-14T00:00:00	2024-11-08T14:00:00	4	Temperatura máxima	19.3
89831	7	Sololá	701	Sololá	4	Finca Santa Victoria	2	Febrero	2023-02-14T00:00:00	2024-11-08T14:00:00	3	Temperatura mínima	18.3
89832	7	Sololá	701	Sololá	4	Finca Santa Victoria	2	Febrero	2023-02-14T00:00:00	2024-11-08T14:00:00	5	Humedad	65
89833	7	Sololá	701	Sololá	4	Finca Santa Victoria	2	Febrero	2023-02-14T00:00:00	2024-11-08T14:00:00	6	Velocidad del viento	6.4
89834	7	Sololá	701	Sololá	4	Finca Santa Victoria	2	Febrero	2023-02-14T00:00:00	2024-11-08T14:00:00	7	Dirección del viento	6.44
89835	7	Sololá	701	Sololá	4	Finca Santa Victoria	2	Febrero	2023-02-14T00:00:00	2024-11-08T14:00:00	1	Precipitación	0
89836	7	Sololá	701	Sololá	4	Finca Santa Victoria	2	Febrero	2023-02-14T00:00:00	2024-11-08T14:00:00	8	Radiación solar	914
89837	7	Sololá	701	Sololá	4	Finca Santa Victoria	2	Febrero	2023-02-14T00:00:00	2024-11-08T15:00:00	2	Temperatura media	18.1
89838	7	Sololá	701	Sololá	4	Finca Santa Victoria	2	Febrero	2023-02-14T00:00:00	2024-11-08T15:00:00	4	Temperatura máxima	18.7
89839	7	Sololá	701	Sololá	4	Finca Santa Victoria	2	Febrero	2023-02-14T00:00:00	2024-11-08T15:00:00	3	Temperatura mínima	18.1
89840	7	Sololá	701	Sololá	4	Finca Santa Victoria	2	Febrero	2023-02-14T00:00:00	2024-11-08T15:00:00	5	Humedad	74
89841	7	Sololá	701	Sololá	4	Finca Santa Victoria	2	Febrero	2023-02-14T00:00:00	2024-11-08T15:00:00	6	Velocidad del viento	6.4
89842	7	Sololá	701	Sololá	4	Finca Santa Victoria	2	Febrero	2023-02-14T00:00:00	2024-11-08T15:00:00	7	Dirección del viento	6.44
89843	7	Sololá	701	Sololá	4	Finca Santa Victoria	2	Febrero	2023-02-14T00:00:00	2024-11-08T15:00:00	1	Precipitación	0
89844	7	Sololá	701	Sololá	4	Finca Santa Victoria	2	Febrero	2023-02-14T00:00:00	2024-11-08T15:00:00	8	Radiación solar	631
89845	7	Sololá	701	Sololá	4	Finca Santa Victoria	2	Febrero	2023-02-14T00:00:00	2024-11-08T16:00:00	2	Temperatura media	16.8
89846	7	Sololá	701	Sololá	4	Finca Santa Victoria	2	Febrero	2023-02-14T00:00:00	2024-11-08T16:00:00	4	Temperatura máxima	18.1
89847	7	Sololá	701	Sololá	4	Finca Santa Victoria	2	Febrero	2023-02-14T00:00:00	2024-11-08T16:00:00	3	Temperatura mínima	16.6
89848	7	Sololá	701	Sololá	4	Finca Santa Victoria	2	Febrero	2023-02-14T00:00:00	2024-11-08T16:00:00	5	Humedad	81
89849	7	Sololá	701	Sololá	4	Finca Santa Victoria	2	Febrero	2023-02-14T00:00:00	2024-11-08T16:00:00	6	Velocidad del viento	6.4
89850	7	Sololá	701	Sololá	4	Finca Santa Victoria	2	Febrero	2023-02-14T00:00:00	2024-11-08T16:00:00	7	Dirección del viento	6.44
89851	7	Sololá	701	Sololá	4	Finca Santa Victoria	2	Febrero	2023-02-14T00:00:00	2024-11-08T16:00:00	1	Precipitación	0
89852	7	Sololá	701	Sololá	4	Finca Santa Victoria	2	Febrero	2023-02-14T00:00:00	2024-11-08T16:00:00	8	Radiación solar	188
89853	7	Sololá	701	Sololá	4	Finca Santa Victoria	2	Febrero	2023-02-14T00:00:00	2024-11-08T17:00:00	2	Temperatura media	16.7
89854	7	Sololá	701	Sololá	4	Finca Santa Victoria	2	Febrero	2023-02-14T00:00:00	2024-11-08T17:00:00	4	Temperatura máxima	17.1
89855	7	Sololá	701	Sololá	4	Finca Santa Victoria	2	Febrero	2023-02-14T00:00:00	2024-11-08T17:00:00	3	Temperatura mínima	16.1
89856	7	Sololá	701	Sololá	4	Finca Santa Victoria	2	Febrero	2023-02-14T00:00:00	2024-11-08T17:00:00	5	Humedad	82
89857	7	Sololá	701	Sololá	4	Finca Santa Victoria	2	Febrero	2023-02-14T00:00:00	2024-11-08T17:00:00	6	Velocidad del viento	4.8
89858	7	Sololá	701	Sololá	4	Finca Santa Victoria	2	Febrero	2023-02-14T00:00:00	2024-11-08T17:00:00	7	Dirección del viento	4.83
89859	7	Sololá	701	Sololá	4	Finca Santa Victoria	2	Febrero	2023-02-14T00:00:00	2024-11-08T17:00:00	1	Precipitación	0
89860	7	Sololá	701	Sololá	4	Finca Santa Victoria	2	Febrero	2023-02-14T00:00:00	2024-11-08T17:00:00	8	Radiación solar	218
89861	7	Sololá	701	Sololá	4	Finca Santa Victoria	2	Febrero	2023-02-14T00:00:00	2024-11-08T18:00:00	2	Temperatura media	14.3
89862	7	Sololá	701	Sololá	4	Finca Santa Victoria	2	Febrero	2023-02-14T00:00:00	2024-11-08T18:00:00	4	Temperatura máxima	16.7
89863	7	Sololá	701	Sololá	4	Finca Santa Victoria	2	Febrero	2023-02-14T00:00:00	2024-11-08T18:00:00	3	Temperatura mínima	14.3
89864	7	Sololá	701	Sololá	4	Finca Santa Victoria	2	Febrero	2023-02-14T00:00:00	2024-11-08T18:00:00	5	Humedad	92
89865	7	Sololá	701	Sololá	4	Finca Santa Victoria	2	Febrero	2023-02-14T00:00:00	2024-11-08T18:00:00	6	Velocidad del viento	3.2
89866	7	Sololá	701	Sololá	4	Finca Santa Victoria	2	Febrero	2023-02-14T00:00:00	2024-11-08T18:00:00	7	Dirección del viento	3.22
89867	7	Sololá	701	Sololá	4	Finca Santa Victoria	2	Febrero	2023-02-14T00:00:00	2024-11-08T18:00:00	1	Precipitación	0
89868	7	Sololá	701	Sololá	4	Finca Santa Victoria	2	Febrero	2023-02-14T00:00:00	2024-11-08T18:00:00	8	Radiación solar	33
89869	7	Sololá	701	Sololá	4	Finca Santa Victoria	2	Febrero	2023-02-14T00:00:00	2024-11-08T19:00:00	2	Temperatura media	13.6
89870	7	Sololá	701	Sololá	4	Finca Santa Victoria	2	Febrero	2023-02-14T00:00:00	2024-11-08T19:00:00	4	Temperatura máxima	14.3
89871	7	Sololá	701	Sololá	4	Finca Santa Victoria	2	Febrero	2023-02-14T00:00:00	2024-11-08T19:00:00	3	Temperatura mínima	13.6
89872	7	Sololá	701	Sololá	4	Finca Santa Victoria	2	Febrero	2023-02-14T00:00:00	2024-11-08T19:00:00	5	Humedad	94
89873	7	Sololá	701	Sololá	4	Finca Santa Victoria	2	Febrero	2023-02-14T00:00:00	2024-11-08T19:00:00	6	Velocidad del viento	0
89874	7	Sololá	701	Sololá	4	Finca Santa Victoria	2	Febrero	2023-02-14T00:00:00	2024-11-08T19:00:00	7	Dirección del viento	0
89875	7	Sololá	701	Sololá	4	Finca Santa Victoria	2	Febrero	2023-02-14T00:00:00	2024-11-08T19:00:00	1	Precipitación	0
89876	7	Sololá	701	Sololá	4	Finca Santa Victoria	2	Febrero	2023-02-14T00:00:00	2024-11-08T19:00:00	8	Radiación solar	0
89877	7	Sololá	701	Sololá	4	Finca Santa Victoria	2	Febrero	2023-02-14T00:00:00	2024-11-08T20:00:00	2	Temperatura media	12.3
89878	7	Sololá	701	Sololá	4	Finca Santa Victoria	2	Febrero	2023-02-14T00:00:00	2024-11-08T20:00:00	4	Temperatura máxima	13.6
89879	7	Sololá	701	Sololá	4	Finca Santa Victoria	2	Febrero	2023-02-14T00:00:00	2024-11-08T20:00:00	3	Temperatura mínima	12.3
89880	7	Sololá	701	Sololá	4	Finca Santa Victoria	2	Febrero	2023-02-14T00:00:00	2024-11-08T20:00:00	5	Humedad	91
89881	7	Sololá	701	Sololá	4	Finca Santa Victoria	2	Febrero	2023-02-14T00:00:00	2024-11-08T20:00:00	6	Velocidad del viento	1.6
89882	7	Sololá	701	Sololá	4	Finca Santa Victoria	2	Febrero	2023-02-14T00:00:00	2024-11-08T20:00:00	7	Dirección del viento	1.61
89883	7	Sololá	701	Sololá	4	Finca Santa Victoria	2	Febrero	2023-02-14T00:00:00	2024-11-08T20:00:00	1	Precipitación	0
89884	7	Sololá	701	Sololá	4	Finca Santa Victoria	2	Febrero	2023-02-14T00:00:00	2024-11-08T20:00:00	8	Radiación solar	0
89885	7	Sololá	701	Sololá	4	Finca Santa Victoria	2	Febrero	2023-02-14T00:00:00	2024-11-08T21:00:00	2	Temperatura media	12.4
89886	7	Sololá	701	Sololá	4	Finca Santa Victoria	2	Febrero	2023-02-14T00:00:00	2024-11-08T21:00:00	4	Temperatura máxima	12.6
89887	7	Sololá	701	Sololá	4	Finca Santa Victoria	2	Febrero	2023-02-14T00:00:00	2024-11-08T21:00:00	3	Temperatura mínima	12.2
89888	7	Sololá	701	Sololá	4	Finca Santa Victoria	2	Febrero	2023-02-14T00:00:00	2024-11-08T21:00:00	5	Humedad	94
89889	7	Sololá	701	Sololá	4	Finca Santa Victoria	2	Febrero	2023-02-14T00:00:00	2024-11-08T21:00:00	6	Velocidad del viento	1.6
89890	7	Sololá	701	Sololá	4	Finca Santa Victoria	2	Febrero	2023-02-14T00:00:00	2024-11-08T21:00:00	7	Dirección del viento	1.61
89891	7	Sololá	701	Sololá	4	Finca Santa Victoria	2	Febrero	2023-02-14T00:00:00	2024-11-08T21:00:00	1	Precipitación	0
89892	7	Sololá	701	Sololá	4	Finca Santa Victoria	2	Febrero	2023-02-14T00:00:00	2024-11-08T21:00:00	8	Radiación solar	0
89893	7	Sololá	701	Sololá	4	Finca Santa Victoria	2	Febrero	2023-02-14T00:00:00	2024-11-08T22:00:00	2	Temperatura media	11.8
89894	7	Sololá	701	Sololá	4	Finca Santa Victoria	2	Febrero	2023-02-14T00:00:00	2024-11-08T22:00:00	4	Temperatura máxima	12.5
89895	7	Sololá	701	Sololá	4	Finca Santa Victoria	2	Febrero	2023-02-14T00:00:00	2024-11-08T22:00:00	3	Temperatura mínima	11.8
89896	7	Sololá	701	Sololá	4	Finca Santa Victoria	2	Febrero	2023-02-14T00:00:00	2024-11-08T22:00:00	5	Humedad	93
89897	7	Sololá	701	Sololá	4	Finca Santa Victoria	2	Febrero	2023-02-14T00:00:00	2024-11-08T22:00:00	6	Velocidad del viento	1.6
89898	7	Sololá	701	Sololá	4	Finca Santa Victoria	2	Febrero	2023-02-14T00:00:00	2024-11-08T22:00:00	7	Dirección del viento	1.61
89899	7	Sololá	701	Sololá	4	Finca Santa Victoria	2	Febrero	2023-02-14T00:00:00	2024-11-08T22:00:00	1	Precipitación	0
89900	7	Sololá	701	Sololá	4	Finca Santa Victoria	2	Febrero	2023-02-14T00:00:00	2024-11-08T22:00:00	8	Radiación solar	0
89901	7	Sololá	701	Sololá	4	Finca Santa Victoria	2	Febrero	2023-02-14T00:00:00	2024-11-08T23:00:00	2	Temperatura media	11.7
89902	7	Sololá	701	Sololá	4	Finca Santa Victoria	2	Febrero	2023-02-14T00:00:00	2024-11-08T23:00:00	4	Temperatura máxima	11.9
89903	7	Sololá	701	Sololá	4	Finca Santa Victoria	2	Febrero	2023-02-14T00:00:00	2024-11-08T23:00:00	3	Temperatura mínima	11.6
89904	7	Sololá	701	Sololá	4	Finca Santa Victoria	2	Febrero	2023-02-14T00:00:00	2024-11-08T23:00:00	5	Humedad	90
89905	7	Sololá	701	Sololá	4	Finca Santa Victoria	2	Febrero	2023-02-14T00:00:00	2024-11-08T23:00:00	6	Velocidad del viento	1.6
89906	7	Sololá	701	Sololá	4	Finca Santa Victoria	2	Febrero	2023-02-14T00:00:00	2024-11-08T23:00:00	7	Dirección del viento	1.61
89907	7	Sololá	701	Sololá	4	Finca Santa Victoria	2	Febrero	2023-02-14T00:00:00	2024-11-08T23:00:00	1	Precipitación	0
89908	7	Sololá	701	Sololá	4	Finca Santa Victoria	2	Febrero	2023-02-14T00:00:00	2024-11-08T23:00:00	8	Radiación solar	0
89909	7	Sololá	701	Sololá	4	Finca Santa Victoria	2	Febrero	2023-02-15T00:00:00	2024-11-08T00:00:00	2	Temperatura media	11.6
89910	7	Sololá	701	Sololá	4	Finca Santa Victoria	2	Febrero	2023-02-15T00:00:00	2024-11-08T00:00:00	4	Temperatura máxima	11.8
89911	7	Sololá	701	Sololá	4	Finca Santa Victoria	2	Febrero	2023-02-15T00:00:00	2024-11-08T00:00:00	3	Temperatura mínima	11.4
89912	7	Sololá	701	Sololá	4	Finca Santa Victoria	2	Febrero	2023-02-15T00:00:00	2024-11-08T00:00:00	5	Humedad	94
89913	7	Sololá	701	Sololá	4	Finca Santa Victoria	2	Febrero	2023-02-15T00:00:00	2024-11-08T00:00:00	6	Velocidad del viento	1.6
89914	7	Sololá	701	Sololá	4	Finca Santa Victoria	2	Febrero	2023-02-15T00:00:00	2024-11-08T00:00:00	7	Dirección del viento	1.61
89915	7	Sololá	701	Sololá	4	Finca Santa Victoria	2	Febrero	2023-02-15T00:00:00	2024-11-08T00:00:00	1	Precipitación	0
89916	7	Sololá	701	Sololá	4	Finca Santa Victoria	2	Febrero	2023-02-15T00:00:00	2024-11-08T00:00:00	8	Radiación solar	0
89917	7	Sololá	701	Sololá	4	Finca Santa Victoria	2	Febrero	2023-02-15T00:00:00	2024-11-08T01:00:00	2	Temperatura media	11.7
89918	7	Sololá	701	Sololá	4	Finca Santa Victoria	2	Febrero	2023-02-15T00:00:00	2024-11-08T01:00:00	4	Temperatura máxima	12
89919	7	Sololá	701	Sololá	4	Finca Santa Victoria	2	Febrero	2023-02-15T00:00:00	2024-11-08T01:00:00	3	Temperatura mínima	11.6
89920	7	Sololá	701	Sololá	4	Finca Santa Victoria	2	Febrero	2023-02-15T00:00:00	2024-11-08T01:00:00	5	Humedad	91
89921	7	Sololá	701	Sololá	4	Finca Santa Victoria	2	Febrero	2023-02-15T00:00:00	2024-11-08T01:00:00	6	Velocidad del viento	0
89922	7	Sololá	701	Sololá	4	Finca Santa Victoria	2	Febrero	2023-02-15T00:00:00	2024-11-08T01:00:00	7	Dirección del viento	0
89923	7	Sololá	701	Sololá	4	Finca Santa Victoria	2	Febrero	2023-02-15T00:00:00	2024-11-08T01:00:00	1	Precipitación	0
89924	7	Sololá	701	Sololá	4	Finca Santa Victoria	2	Febrero	2023-02-15T00:00:00	2024-11-08T01:00:00	8	Radiación solar	0
89925	7	Sololá	701	Sololá	4	Finca Santa Victoria	2	Febrero	2023-02-15T00:00:00	2024-11-08T02:00:00	2	Temperatura media	11.3
89926	7	Sololá	701	Sololá	4	Finca Santa Victoria	2	Febrero	2023-02-15T00:00:00	2024-11-08T02:00:00	4	Temperatura máxima	11.7
89927	7	Sololá	701	Sololá	4	Finca Santa Victoria	2	Febrero	2023-02-15T00:00:00	2024-11-08T02:00:00	3	Temperatura mínima	11.3
89928	7	Sololá	701	Sololá	4	Finca Santa Victoria	2	Febrero	2023-02-15T00:00:00	2024-11-08T02:00:00	5	Humedad	95
89929	7	Sololá	701	Sololá	4	Finca Santa Victoria	2	Febrero	2023-02-15T00:00:00	2024-11-08T02:00:00	6	Velocidad del viento	0
89930	7	Sololá	701	Sololá	4	Finca Santa Victoria	2	Febrero	2023-02-15T00:00:00	2024-11-08T02:00:00	7	Dirección del viento	0
89931	7	Sololá	701	Sololá	4	Finca Santa Victoria	2	Febrero	2023-02-15T00:00:00	2024-11-08T02:00:00	1	Precipitación	0
89932	7	Sololá	701	Sololá	4	Finca Santa Victoria	2	Febrero	2023-02-15T00:00:00	2024-11-08T02:00:00	8	Radiación solar	0
89933	7	Sololá	701	Sololá	4	Finca Santa Victoria	2	Febrero	2023-02-15T00:00:00	2024-11-08T03:00:00	2	Temperatura media	11
89934	7	Sololá	701	Sololá	4	Finca Santa Victoria	2	Febrero	2023-02-15T00:00:00	2024-11-08T03:00:00	4	Temperatura máxima	11.3
89935	7	Sololá	701	Sololá	4	Finca Santa Victoria	2	Febrero	2023-02-15T00:00:00	2024-11-08T03:00:00	3	Temperatura mínima	10.9
89936	7	Sololá	701	Sololá	4	Finca Santa Victoria	2	Febrero	2023-02-15T00:00:00	2024-11-08T03:00:00	5	Humedad	92
89937	7	Sololá	701	Sololá	4	Finca Santa Victoria	2	Febrero	2023-02-15T00:00:00	2024-11-08T03:00:00	6	Velocidad del viento	1.6
89938	7	Sololá	701	Sololá	4	Finca Santa Victoria	2	Febrero	2023-02-15T00:00:00	2024-11-08T03:00:00	7	Dirección del viento	1.61
89939	7	Sololá	701	Sololá	4	Finca Santa Victoria	2	Febrero	2023-02-15T00:00:00	2024-11-08T03:00:00	1	Precipitación	0
89940	7	Sololá	701	Sololá	4	Finca Santa Victoria	2	Febrero	2023-02-15T00:00:00	2024-11-08T03:00:00	8	Radiación solar	0
89941	7	Sololá	701	Sololá	4	Finca Santa Victoria	2	Febrero	2023-02-15T00:00:00	2024-11-08T04:00:00	2	Temperatura media	10.8
89942	7	Sololá	701	Sololá	4	Finca Santa Victoria	2	Febrero	2023-02-15T00:00:00	2024-11-08T04:00:00	4	Temperatura máxima	11.1
89943	7	Sololá	701	Sololá	4	Finca Santa Victoria	2	Febrero	2023-02-15T00:00:00	2024-11-08T04:00:00	3	Temperatura mínima	10.8
89944	7	Sololá	701	Sololá	4	Finca Santa Victoria	2	Febrero	2023-02-15T00:00:00	2024-11-08T04:00:00	5	Humedad	93
89945	7	Sololá	701	Sololá	4	Finca Santa Victoria	2	Febrero	2023-02-15T00:00:00	2024-11-08T04:00:00	6	Velocidad del viento	1.6
89946	7	Sololá	701	Sololá	4	Finca Santa Victoria	2	Febrero	2023-02-15T00:00:00	2024-11-08T04:00:00	7	Dirección del viento	1.61
89947	7	Sololá	701	Sololá	4	Finca Santa Victoria	2	Febrero	2023-02-15T00:00:00	2024-11-08T04:00:00	1	Precipitación	0
89948	7	Sololá	701	Sololá	4	Finca Santa Victoria	2	Febrero	2023-02-15T00:00:00	2024-11-08T04:00:00	8	Radiación solar	0
89949	7	Sololá	701	Sololá	4	Finca Santa Victoria	2	Febrero	2023-02-15T00:00:00	2024-11-08T05:00:00	2	Temperatura media	10.7
89950	7	Sololá	701	Sololá	4	Finca Santa Victoria	2	Febrero	2023-02-15T00:00:00	2024-11-08T05:00:00	4	Temperatura máxima	10.8
89951	7	Sololá	701	Sololá	4	Finca Santa Victoria	2	Febrero	2023-02-15T00:00:00	2024-11-08T05:00:00	3	Temperatura mínima	10.7
89952	7	Sololá	701	Sololá	4	Finca Santa Victoria	2	Febrero	2023-02-15T00:00:00	2024-11-08T05:00:00	5	Humedad	91
89953	7	Sololá	701	Sololá	4	Finca Santa Victoria	2	Febrero	2023-02-15T00:00:00	2024-11-08T05:00:00	6	Velocidad del viento	1.6
89954	7	Sololá	701	Sololá	4	Finca Santa Victoria	2	Febrero	2023-02-15T00:00:00	2024-11-08T05:00:00	7	Dirección del viento	1.61
89955	7	Sololá	701	Sololá	4	Finca Santa Victoria	2	Febrero	2023-02-15T00:00:00	2024-11-08T05:00:00	1	Precipitación	0
89956	7	Sololá	701	Sololá	4	Finca Santa Victoria	2	Febrero	2023-02-15T00:00:00	2024-11-08T05:00:00	8	Radiación solar	0
89957	7	Sololá	701	Sololá	4	Finca Santa Victoria	2	Febrero	2023-02-15T00:00:00	2024-11-08T06:00:00	2	Temperatura media	10.6
89958	7	Sololá	701	Sololá	4	Finca Santa Victoria	2	Febrero	2023-02-15T00:00:00	2024-11-08T06:00:00	4	Temperatura máxima	10.7
89959	7	Sololá	701	Sololá	4	Finca Santa Victoria	2	Febrero	2023-02-15T00:00:00	2024-11-08T06:00:00	3	Temperatura mínima	10.6
89960	7	Sololá	701	Sololá	4	Finca Santa Victoria	2	Febrero	2023-02-15T00:00:00	2024-11-08T06:00:00	5	Humedad	92
89961	7	Sololá	701	Sololá	4	Finca Santa Victoria	2	Febrero	2023-02-15T00:00:00	2024-11-08T06:00:00	6	Velocidad del viento	1.6
89962	7	Sololá	701	Sololá	4	Finca Santa Victoria	2	Febrero	2023-02-15T00:00:00	2024-11-08T06:00:00	7	Dirección del viento	1.61
89963	7	Sololá	701	Sololá	4	Finca Santa Victoria	2	Febrero	2023-02-15T00:00:00	2024-11-08T06:00:00	1	Precipitación	0
89964	7	Sololá	701	Sololá	4	Finca Santa Victoria	2	Febrero	2023-02-15T00:00:00	2024-11-08T06:00:00	8	Radiación solar	0
89965	7	Sololá	701	Sololá	4	Finca Santa Victoria	2	Febrero	2023-02-15T00:00:00	2024-11-08T07:00:00	2	Temperatura media	10.5
89966	7	Sololá	701	Sololá	4	Finca Santa Victoria	2	Febrero	2023-02-15T00:00:00	2024-11-08T07:00:00	4	Temperatura máxima	10.6
89967	7	Sololá	701	Sololá	4	Finca Santa Victoria	2	Febrero	2023-02-15T00:00:00	2024-11-08T07:00:00	3	Temperatura mínima	10.4
89968	7	Sololá	701	Sololá	4	Finca Santa Victoria	2	Febrero	2023-02-15T00:00:00	2024-11-08T07:00:00	5	Humedad	93
89969	7	Sololá	701	Sololá	4	Finca Santa Victoria	2	Febrero	2023-02-15T00:00:00	2024-11-08T07:00:00	6	Velocidad del viento	1.6
89970	7	Sololá	701	Sololá	4	Finca Santa Victoria	2	Febrero	2023-02-15T00:00:00	2024-11-08T07:00:00	7	Dirección del viento	1.61
89971	7	Sololá	701	Sololá	4	Finca Santa Victoria	2	Febrero	2023-02-15T00:00:00	2024-11-08T07:00:00	1	Precipitación	0
89972	7	Sololá	701	Sololá	4	Finca Santa Victoria	2	Febrero	2023-02-15T00:00:00	2024-11-08T07:00:00	8	Radiación solar	5
89973	7	Sololá	701	Sololá	4	Finca Santa Victoria	2	Febrero	2023-02-15T00:00:00	2024-11-08T08:00:00	2	Temperatura media	12.2
89974	7	Sololá	701	Sololá	4	Finca Santa Victoria	2	Febrero	2023-02-15T00:00:00	2024-11-08T08:00:00	4	Temperatura máxima	12.2
89975	7	Sololá	701	Sololá	4	Finca Santa Victoria	2	Febrero	2023-02-15T00:00:00	2024-11-08T08:00:00	3	Temperatura mínima	10.5
89976	7	Sololá	701	Sololá	4	Finca Santa Victoria	2	Febrero	2023-02-15T00:00:00	2024-11-08T08:00:00	5	Humedad	88
89977	7	Sololá	701	Sololá	4	Finca Santa Victoria	2	Febrero	2023-02-15T00:00:00	2024-11-08T08:00:00	6	Velocidad del viento	1.6
89978	7	Sololá	701	Sololá	4	Finca Santa Victoria	2	Febrero	2023-02-15T00:00:00	2024-11-08T08:00:00	7	Dirección del viento	1.61
89979	7	Sololá	701	Sololá	4	Finca Santa Victoria	2	Febrero	2023-02-15T00:00:00	2024-11-08T08:00:00	1	Precipitación	0
89980	7	Sololá	701	Sololá	4	Finca Santa Victoria	2	Febrero	2023-02-15T00:00:00	2024-11-08T08:00:00	8	Radiación solar	39
89981	7	Sololá	701	Sololá	4	Finca Santa Victoria	2	Febrero	2023-02-15T00:00:00	2024-11-08T09:00:00	2	Temperatura media	14.7
89982	7	Sololá	701	Sololá	4	Finca Santa Victoria	2	Febrero	2023-02-15T00:00:00	2024-11-08T09:00:00	4	Temperatura máxima	14.7
89983	7	Sololá	701	Sololá	4	Finca Santa Victoria	2	Febrero	2023-02-15T00:00:00	2024-11-08T09:00:00	3	Temperatura mínima	12.2
89984	7	Sololá	701	Sololá	4	Finca Santa Victoria	2	Febrero	2023-02-15T00:00:00	2024-11-08T09:00:00	5	Humedad	77
89985	7	Sololá	701	Sololá	4	Finca Santa Victoria	2	Febrero	2023-02-15T00:00:00	2024-11-08T09:00:00	6	Velocidad del viento	1.6
89986	7	Sololá	701	Sololá	4	Finca Santa Victoria	2	Febrero	2023-02-15T00:00:00	2024-11-08T09:00:00	7	Dirección del viento	1.61
89987	7	Sololá	701	Sololá	4	Finca Santa Victoria	2	Febrero	2023-02-15T00:00:00	2024-11-08T09:00:00	1	Precipitación	0
89988	7	Sololá	701	Sololá	4	Finca Santa Victoria	2	Febrero	2023-02-15T00:00:00	2024-11-08T09:00:00	8	Radiación solar	133
89989	7	Sololá	701	Sololá	4	Finca Santa Victoria	2	Febrero	2023-02-15T00:00:00	2024-11-08T10:00:00	2	Temperatura media	16
89990	7	Sololá	701	Sololá	4	Finca Santa Victoria	2	Febrero	2023-02-15T00:00:00	2024-11-08T10:00:00	4	Temperatura máxima	16
89991	7	Sololá	701	Sololá	4	Finca Santa Victoria	2	Febrero	2023-02-15T00:00:00	2024-11-08T10:00:00	3	Temperatura mínima	14.7
89992	7	Sololá	701	Sololá	4	Finca Santa Victoria	2	Febrero	2023-02-15T00:00:00	2024-11-08T10:00:00	5	Humedad	71
89993	7	Sololá	701	Sololá	4	Finca Santa Victoria	2	Febrero	2023-02-15T00:00:00	2024-11-08T10:00:00	6	Velocidad del viento	3.2
89994	7	Sololá	701	Sololá	4	Finca Santa Victoria	2	Febrero	2023-02-15T00:00:00	2024-11-08T10:00:00	7	Dirección del viento	3.22
89995	7	Sololá	701	Sololá	4	Finca Santa Victoria	2	Febrero	2023-02-15T00:00:00	2024-11-08T10:00:00	1	Precipitación	0
89996	7	Sololá	701	Sololá	4	Finca Santa Victoria	2	Febrero	2023-02-15T00:00:00	2024-11-08T10:00:00	8	Radiación solar	681
89997	7	Sololá	701	Sololá	4	Finca Santa Victoria	2	Febrero	2023-02-15T00:00:00	2024-11-08T11:00:00	2	Temperatura media	17.6
89998	7	Sololá	701	Sololá	4	Finca Santa Victoria	2	Febrero	2023-02-15T00:00:00	2024-11-08T11:00:00	4	Temperatura máxima	18.1
89999	7	Sololá	701	Sololá	4	Finca Santa Victoria	2	Febrero	2023-02-15T00:00:00	2024-11-08T11:00:00	3	Temperatura mínima	15.9
90000	7	Sololá	701	Sololá	4	Finca Santa Victoria	2	Febrero	2023-02-15T00:00:00	2024-11-08T11:00:00	5	Humedad	66
90001	7	Sololá	701	Sololá	4	Finca Santa Victoria	2	Febrero	2023-02-15T00:00:00	2024-11-08T11:00:00	6	Velocidad del viento	4.8
90002	7	Sololá	701	Sololá	4	Finca Santa Victoria	2	Febrero	2023-02-15T00:00:00	2024-11-08T11:00:00	7	Dirección del viento	4.83
90003	7	Sololá	701	Sololá	4	Finca Santa Victoria	2	Febrero	2023-02-15T00:00:00	2024-11-08T11:00:00	1	Precipitación	0
90004	7	Sololá	701	Sololá	4	Finca Santa Victoria	2	Febrero	2023-02-15T00:00:00	2024-11-08T11:00:00	8	Radiación solar	873
90005	7	Sololá	701	Sololá	4	Finca Santa Victoria	2	Febrero	2023-02-15T00:00:00	2024-11-08T12:00:00	2	Temperatura media	18.2
90006	7	Sololá	701	Sololá	4	Finca Santa Victoria	2	Febrero	2023-02-15T00:00:00	2024-11-08T12:00:00	4	Temperatura máxima	18.3
90007	7	Sololá	701	Sololá	4	Finca Santa Victoria	2	Febrero	2023-02-15T00:00:00	2024-11-08T12:00:00	3	Temperatura mínima	17.3
90008	7	Sololá	701	Sololá	4	Finca Santa Victoria	2	Febrero	2023-02-15T00:00:00	2024-11-08T12:00:00	5	Humedad	66
90009	7	Sololá	701	Sololá	4	Finca Santa Victoria	2	Febrero	2023-02-15T00:00:00	2024-11-08T12:00:00	6	Velocidad del viento	4.8
90010	7	Sololá	701	Sololá	4	Finca Santa Victoria	2	Febrero	2023-02-15T00:00:00	2024-11-08T12:00:00	7	Dirección del viento	4.83
90011	7	Sololá	701	Sololá	4	Finca Santa Victoria	2	Febrero	2023-02-15T00:00:00	2024-11-08T12:00:00	1	Precipitación	0
90012	7	Sololá	701	Sololá	4	Finca Santa Victoria	2	Febrero	2023-02-15T00:00:00	2024-11-08T12:00:00	8	Radiación solar	960
90013	7	Sololá	701	Sololá	4	Finca Santa Victoria	2	Febrero	2023-02-15T00:00:00	2024-11-08T13:00:00	2	Temperatura media	18.2
90014	7	Sololá	701	Sololá	4	Finca Santa Victoria	2	Febrero	2023-02-15T00:00:00	2024-11-08T13:00:00	4	Temperatura máxima	18.3
90015	7	Sololá	701	Sololá	4	Finca Santa Victoria	2	Febrero	2023-02-15T00:00:00	2024-11-08T13:00:00	3	Temperatura mínima	17.7
90016	7	Sololá	701	Sololá	4	Finca Santa Victoria	2	Febrero	2023-02-15T00:00:00	2024-11-08T13:00:00	5	Humedad	75
90017	7	Sololá	701	Sololá	4	Finca Santa Victoria	2	Febrero	2023-02-15T00:00:00	2024-11-08T13:00:00	6	Velocidad del viento	6.4
90018	7	Sololá	701	Sololá	4	Finca Santa Victoria	2	Febrero	2023-02-15T00:00:00	2024-11-08T13:00:00	7	Dirección del viento	6.44
90019	7	Sololá	701	Sololá	4	Finca Santa Victoria	2	Febrero	2023-02-15T00:00:00	2024-11-08T13:00:00	1	Precipitación	0
90020	7	Sololá	701	Sololá	4	Finca Santa Victoria	2	Febrero	2023-02-15T00:00:00	2024-11-08T13:00:00	8	Radiación solar	957
90021	7	Sololá	701	Sololá	4	Finca Santa Victoria	2	Febrero	2023-02-15T00:00:00	2024-11-08T14:00:00	2	Temperatura media	18.2
90022	7	Sololá	701	Sololá	4	Finca Santa Victoria	2	Febrero	2023-02-15T00:00:00	2024-11-08T14:00:00	4	Temperatura máxima	18.3
90023	7	Sololá	701	Sololá	4	Finca Santa Victoria	2	Febrero	2023-02-15T00:00:00	2024-11-08T14:00:00	3	Temperatura mínima	17.7
90024	7	Sololá	701	Sololá	4	Finca Santa Victoria	2	Febrero	2023-02-15T00:00:00	2024-11-08T14:00:00	5	Humedad	77
90025	7	Sololá	701	Sololá	4	Finca Santa Victoria	2	Febrero	2023-02-15T00:00:00	2024-11-08T14:00:00	6	Velocidad del viento	6.4
90026	7	Sololá	701	Sololá	4	Finca Santa Victoria	2	Febrero	2023-02-15T00:00:00	2024-11-08T14:00:00	7	Dirección del viento	6.44
90027	7	Sololá	701	Sololá	4	Finca Santa Victoria	2	Febrero	2023-02-15T00:00:00	2024-11-08T14:00:00	1	Precipitación	0
90028	7	Sololá	701	Sololá	4	Finca Santa Victoria	2	Febrero	2023-02-15T00:00:00	2024-11-08T14:00:00	8	Radiación solar	878
90029	7	Sololá	701	Sololá	4	Finca Santa Victoria	2	Febrero	2023-02-15T00:00:00	2024-11-08T15:00:00	2	Temperatura media	15.8
90030	7	Sololá	701	Sololá	4	Finca Santa Victoria	2	Febrero	2023-02-15T00:00:00	2024-11-08T15:00:00	4	Temperatura máxima	18.4
90031	7	Sololá	701	Sololá	4	Finca Santa Victoria	2	Febrero	2023-02-15T00:00:00	2024-11-08T15:00:00	3	Temperatura mínima	15.7
90032	7	Sololá	701	Sololá	4	Finca Santa Victoria	2	Febrero	2023-02-15T00:00:00	2024-11-08T15:00:00	5	Humedad	87
90033	7	Sololá	701	Sololá	4	Finca Santa Victoria	2	Febrero	2023-02-15T00:00:00	2024-11-08T15:00:00	6	Velocidad del viento	4.8
90034	7	Sololá	701	Sololá	4	Finca Santa Victoria	2	Febrero	2023-02-15T00:00:00	2024-11-08T15:00:00	7	Dirección del viento	4.83
90035	7	Sololá	701	Sololá	4	Finca Santa Victoria	2	Febrero	2023-02-15T00:00:00	2024-11-08T15:00:00	1	Precipitación	0
90036	7	Sololá	701	Sololá	4	Finca Santa Victoria	2	Febrero	2023-02-15T00:00:00	2024-11-08T15:00:00	8	Radiación solar	304
90037	7	Sololá	701	Sololá	4	Finca Santa Victoria	2	Febrero	2023-02-15T00:00:00	2024-11-08T16:00:00	2	Temperatura media	15.6
90038	7	Sololá	701	Sololá	4	Finca Santa Victoria	2	Febrero	2023-02-15T00:00:00	2024-11-08T16:00:00	4	Temperatura máxima	15.9
90039	7	Sololá	701	Sololá	4	Finca Santa Victoria	2	Febrero	2023-02-15T00:00:00	2024-11-08T16:00:00	3	Temperatura mínima	15.6
90040	7	Sololá	701	Sololá	4	Finca Santa Victoria	2	Febrero	2023-02-15T00:00:00	2024-11-08T16:00:00	5	Humedad	88
90041	7	Sololá	701	Sololá	4	Finca Santa Victoria	2	Febrero	2023-02-15T00:00:00	2024-11-08T16:00:00	6	Velocidad del viento	3.2
90042	7	Sololá	701	Sololá	4	Finca Santa Victoria	2	Febrero	2023-02-15T00:00:00	2024-11-08T16:00:00	7	Dirección del viento	3.22
90043	7	Sololá	701	Sololá	4	Finca Santa Victoria	2	Febrero	2023-02-15T00:00:00	2024-11-08T16:00:00	1	Precipitación	0
90044	7	Sololá	701	Sololá	4	Finca Santa Victoria	2	Febrero	2023-02-15T00:00:00	2024-11-08T16:00:00	8	Radiación solar	144
90045	7	Sololá	701	Sololá	4	Finca Santa Victoria	2	Febrero	2023-02-15T00:00:00	2024-11-08T17:00:00	2	Temperatura media	15.2
90046	7	Sololá	701	Sololá	4	Finca Santa Victoria	2	Febrero	2023-02-15T00:00:00	2024-11-08T17:00:00	4	Temperatura máxima	15.6
90047	7	Sololá	701	Sololá	4	Finca Santa Victoria	2	Febrero	2023-02-15T00:00:00	2024-11-08T17:00:00	3	Temperatura mínima	15.1
90048	7	Sololá	701	Sololá	4	Finca Santa Victoria	2	Febrero	2023-02-15T00:00:00	2024-11-08T17:00:00	5	Humedad	91
90049	7	Sololá	701	Sololá	4	Finca Santa Victoria	2	Febrero	2023-02-15T00:00:00	2024-11-08T17:00:00	6	Velocidad del viento	1.6
90050	7	Sololá	701	Sololá	4	Finca Santa Victoria	2	Febrero	2023-02-15T00:00:00	2024-11-08T17:00:00	7	Dirección del viento	1.61
90051	7	Sololá	701	Sololá	4	Finca Santa Victoria	2	Febrero	2023-02-15T00:00:00	2024-11-08T17:00:00	1	Precipitación	0
90052	7	Sololá	701	Sololá	4	Finca Santa Victoria	2	Febrero	2023-02-15T00:00:00	2024-11-08T17:00:00	8	Radiación solar	82
90053	7	Sololá	701	Sololá	4	Finca Santa Victoria	2	Febrero	2023-02-15T00:00:00	2024-11-08T18:00:00	2	Temperatura media	14.3
90054	7	Sololá	701	Sololá	4	Finca Santa Victoria	2	Febrero	2023-02-15T00:00:00	2024-11-08T18:00:00	4	Temperatura máxima	15.2
90055	7	Sololá	701	Sololá	4	Finca Santa Victoria	2	Febrero	2023-02-15T00:00:00	2024-11-08T18:00:00	3	Temperatura mínima	14.3
90056	7	Sololá	701	Sololá	4	Finca Santa Victoria	2	Febrero	2023-02-15T00:00:00	2024-11-08T18:00:00	5	Humedad	94
90057	7	Sololá	701	Sololá	4	Finca Santa Victoria	2	Febrero	2023-02-15T00:00:00	2024-11-08T18:00:00	6	Velocidad del viento	1.6
90058	7	Sololá	701	Sololá	4	Finca Santa Victoria	2	Febrero	2023-02-15T00:00:00	2024-11-08T18:00:00	7	Dirección del viento	1.61
90059	7	Sololá	701	Sololá	4	Finca Santa Victoria	2	Febrero	2023-02-15T00:00:00	2024-11-08T18:00:00	1	Precipitación	0
90060	7	Sololá	701	Sololá	4	Finca Santa Victoria	2	Febrero	2023-02-15T00:00:00	2024-11-08T18:00:00	8	Radiación solar	25
90061	7	Sololá	701	Sololá	4	Finca Santa Victoria	2	Febrero	2023-02-15T00:00:00	2024-11-08T19:00:00	2	Temperatura media	14.1
90062	7	Sololá	701	Sololá	4	Finca Santa Victoria	2	Febrero	2023-02-15T00:00:00	2024-11-08T19:00:00	4	Temperatura máxima	14.3
90063	7	Sololá	701	Sololá	4	Finca Santa Victoria	2	Febrero	2023-02-15T00:00:00	2024-11-08T19:00:00	3	Temperatura mínima	14.1
90064	7	Sololá	701	Sololá	4	Finca Santa Victoria	2	Febrero	2023-02-15T00:00:00	2024-11-08T19:00:00	5	Humedad	96
90065	7	Sololá	701	Sololá	4	Finca Santa Victoria	2	Febrero	2023-02-15T00:00:00	2024-11-08T19:00:00	6	Velocidad del viento	0
90066	7	Sololá	701	Sololá	4	Finca Santa Victoria	2	Febrero	2023-02-15T00:00:00	2024-11-08T19:00:00	7	Dirección del viento	0
90067	7	Sololá	701	Sololá	4	Finca Santa Victoria	2	Febrero	2023-02-15T00:00:00	2024-11-08T19:00:00	1	Precipitación	0
90068	7	Sololá	701	Sololá	4	Finca Santa Victoria	2	Febrero	2023-02-15T00:00:00	2024-11-08T19:00:00	8	Radiación solar	0
90069	7	Sololá	701	Sololá	4	Finca Santa Victoria	2	Febrero	2023-02-15T00:00:00	2024-11-08T20:00:00	2	Temperatura media	13.7
90070	7	Sololá	701	Sololá	4	Finca Santa Victoria	2	Febrero	2023-02-15T00:00:00	2024-11-08T20:00:00	4	Temperatura máxima	14.1
90071	7	Sololá	701	Sololá	4	Finca Santa Victoria	2	Febrero	2023-02-15T00:00:00	2024-11-08T20:00:00	3	Temperatura mínima	13.7
90072	7	Sololá	701	Sololá	4	Finca Santa Victoria	2	Febrero	2023-02-15T00:00:00	2024-11-08T20:00:00	5	Humedad	93
90073	7	Sololá	701	Sololá	4	Finca Santa Victoria	2	Febrero	2023-02-15T00:00:00	2024-11-08T20:00:00	6	Velocidad del viento	0
90074	7	Sololá	701	Sololá	4	Finca Santa Victoria	2	Febrero	2023-02-15T00:00:00	2024-11-08T20:00:00	7	Dirección del viento	0
90075	7	Sololá	701	Sololá	4	Finca Santa Victoria	2	Febrero	2023-02-15T00:00:00	2024-11-08T20:00:00	1	Precipitación	0
90076	7	Sololá	701	Sololá	4	Finca Santa Victoria	2	Febrero	2023-02-15T00:00:00	2024-11-08T20:00:00	8	Radiación solar	0
90077	7	Sololá	701	Sololá	4	Finca Santa Victoria	2	Febrero	2023-02-15T00:00:00	2024-11-08T21:00:00	2	Temperatura media	12.6
90078	7	Sololá	701	Sololá	4	Finca Santa Victoria	2	Febrero	2023-02-15T00:00:00	2024-11-08T21:00:00	4	Temperatura máxima	13.7
90079	7	Sololá	701	Sololá	4	Finca Santa Victoria	2	Febrero	2023-02-15T00:00:00	2024-11-08T21:00:00	3	Temperatura mínima	12.6
90080	7	Sololá	701	Sololá	4	Finca Santa Victoria	2	Febrero	2023-02-15T00:00:00	2024-11-08T21:00:00	5	Humedad	96
90081	7	Sololá	701	Sololá	4	Finca Santa Victoria	2	Febrero	2023-02-15T00:00:00	2024-11-08T21:00:00	6	Velocidad del viento	0
90082	7	Sololá	701	Sololá	4	Finca Santa Victoria	2	Febrero	2023-02-15T00:00:00	2024-11-08T21:00:00	7	Dirección del viento	0
90083	7	Sololá	701	Sololá	4	Finca Santa Victoria	2	Febrero	2023-02-15T00:00:00	2024-11-08T21:00:00	1	Precipitación	0
90084	7	Sololá	701	Sololá	4	Finca Santa Victoria	2	Febrero	2023-02-15T00:00:00	2024-11-08T21:00:00	8	Radiación solar	0
90085	7	Sololá	701	Sololá	4	Finca Santa Victoria	2	Febrero	2023-02-15T00:00:00	2024-11-08T22:00:00	2	Temperatura media	12.3
90086	7	Sololá	701	Sololá	4	Finca Santa Victoria	2	Febrero	2023-02-15T00:00:00	2024-11-08T22:00:00	4	Temperatura máxima	12.6
90087	7	Sololá	701	Sololá	4	Finca Santa Victoria	2	Febrero	2023-02-15T00:00:00	2024-11-08T22:00:00	3	Temperatura mínima	12.2
90088	7	Sololá	701	Sololá	4	Finca Santa Victoria	2	Febrero	2023-02-15T00:00:00	2024-11-08T22:00:00	5	Humedad	95
90089	7	Sololá	701	Sololá	4	Finca Santa Victoria	2	Febrero	2023-02-15T00:00:00	2024-11-08T22:00:00	6	Velocidad del viento	1.6
90090	7	Sololá	701	Sololá	4	Finca Santa Victoria	2	Febrero	2023-02-15T00:00:00	2024-11-08T22:00:00	7	Dirección del viento	1.61
90091	7	Sololá	701	Sololá	4	Finca Santa Victoria	2	Febrero	2023-02-15T00:00:00	2024-11-08T22:00:00	1	Precipitación	0
90092	7	Sololá	701	Sololá	4	Finca Santa Victoria	2	Febrero	2023-02-15T00:00:00	2024-11-08T22:00:00	8	Radiación solar	0
90093	7	Sololá	701	Sololá	4	Finca Santa Victoria	2	Febrero	2023-02-15T00:00:00	2024-11-08T23:00:00	2	Temperatura media	11.8
90094	7	Sololá	701	Sololá	4	Finca Santa Victoria	2	Febrero	2023-02-15T00:00:00	2024-11-08T23:00:00	4	Temperatura máxima	12.3
90095	7	Sololá	701	Sololá	4	Finca Santa Victoria	2	Febrero	2023-02-15T00:00:00	2024-11-08T23:00:00	3	Temperatura mínima	11.8
90096	7	Sololá	701	Sololá	4	Finca Santa Victoria	2	Febrero	2023-02-15T00:00:00	2024-11-08T23:00:00	5	Humedad	96
90097	7	Sololá	701	Sololá	4	Finca Santa Victoria	2	Febrero	2023-02-15T00:00:00	2024-11-08T23:00:00	6	Velocidad del viento	1.6
90098	7	Sololá	701	Sololá	4	Finca Santa Victoria	2	Febrero	2023-02-15T00:00:00	2024-11-08T23:00:00	7	Dirección del viento	1.61
90099	7	Sololá	701	Sololá	4	Finca Santa Victoria	2	Febrero	2023-02-15T00:00:00	2024-11-08T23:00:00	1	Precipitación	0
90100	7	Sololá	701	Sololá	4	Finca Santa Victoria	2	Febrero	2023-02-15T00:00:00	2024-11-08T23:00:00	8	Radiación solar	0
90101	7	Sololá	701	Sololá	4	Finca Santa Victoria	2	Febrero	2023-02-16T00:00:00	2024-11-08T00:00:00	2	Temperatura media	11
90102	7	Sololá	701	Sololá	4	Finca Santa Victoria	2	Febrero	2023-02-16T00:00:00	2024-11-08T00:00:00	4	Temperatura máxima	11.8
90103	7	Sololá	701	Sololá	4	Finca Santa Victoria	2	Febrero	2023-02-16T00:00:00	2024-11-08T00:00:00	3	Temperatura mínima	10.9
90104	7	Sololá	701	Sololá	4	Finca Santa Victoria	2	Febrero	2023-02-16T00:00:00	2024-11-08T00:00:00	5	Humedad	96
90105	7	Sololá	701	Sololá	4	Finca Santa Victoria	2	Febrero	2023-02-16T00:00:00	2024-11-08T00:00:00	6	Velocidad del viento	1.6
90106	7	Sololá	701	Sololá	4	Finca Santa Victoria	2	Febrero	2023-02-16T00:00:00	2024-11-08T00:00:00	7	Dirección del viento	1.61
90107	7	Sololá	701	Sololá	4	Finca Santa Victoria	2	Febrero	2023-02-16T00:00:00	2024-11-08T00:00:00	1	Precipitación	0
90108	7	Sololá	701	Sololá	4	Finca Santa Victoria	2	Febrero	2023-02-16T00:00:00	2024-11-08T00:00:00	8	Radiación solar	0
90109	7	Sololá	701	Sololá	4	Finca Santa Victoria	2	Febrero	2023-02-16T00:00:00	2024-11-08T01:00:00	2	Temperatura media	10.2
90110	7	Sololá	701	Sololá	4	Finca Santa Victoria	2	Febrero	2023-02-16T00:00:00	2024-11-08T01:00:00	4	Temperatura máxima	11.1
90111	7	Sololá	701	Sololá	4	Finca Santa Victoria	2	Febrero	2023-02-16T00:00:00	2024-11-08T01:00:00	3	Temperatura mínima	10.2
90112	7	Sololá	701	Sololá	4	Finca Santa Victoria	2	Febrero	2023-02-16T00:00:00	2024-11-08T01:00:00	5	Humedad	96
90113	7	Sololá	701	Sololá	4	Finca Santa Victoria	2	Febrero	2023-02-16T00:00:00	2024-11-08T01:00:00	6	Velocidad del viento	1.6
90114	7	Sololá	701	Sololá	4	Finca Santa Victoria	2	Febrero	2023-02-16T00:00:00	2024-11-08T01:00:00	7	Dirección del viento	1.61
90115	7	Sololá	701	Sololá	4	Finca Santa Victoria	2	Febrero	2023-02-16T00:00:00	2024-11-08T01:00:00	1	Precipitación	0
90116	7	Sololá	701	Sololá	4	Finca Santa Victoria	2	Febrero	2023-02-16T00:00:00	2024-11-08T01:00:00	8	Radiación solar	0
90117	7	Sololá	701	Sololá	4	Finca Santa Victoria	2	Febrero	2023-02-16T00:00:00	2024-11-08T02:00:00	2	Temperatura media	9.7
90118	7	Sololá	701	Sololá	4	Finca Santa Victoria	2	Febrero	2023-02-16T00:00:00	2024-11-08T02:00:00	4	Temperatura máxima	10.2
90119	7	Sololá	701	Sololá	4	Finca Santa Victoria	2	Febrero	2023-02-16T00:00:00	2024-11-08T02:00:00	3	Temperatura mínima	9.7
90120	7	Sololá	701	Sololá	4	Finca Santa Victoria	2	Febrero	2023-02-16T00:00:00	2024-11-08T02:00:00	5	Humedad	97
90121	7	Sololá	701	Sololá	4	Finca Santa Victoria	2	Febrero	2023-02-16T00:00:00	2024-11-08T02:00:00	6	Velocidad del viento	1.6
90122	7	Sololá	701	Sololá	4	Finca Santa Victoria	2	Febrero	2023-02-16T00:00:00	2024-11-08T02:00:00	7	Dirección del viento	1.61
90123	7	Sololá	701	Sololá	4	Finca Santa Victoria	2	Febrero	2023-02-16T00:00:00	2024-11-08T02:00:00	1	Precipitación	0
90124	7	Sololá	701	Sololá	4	Finca Santa Victoria	2	Febrero	2023-02-16T00:00:00	2024-11-08T02:00:00	8	Radiación solar	0
90125	7	Sololá	701	Sololá	4	Finca Santa Victoria	2	Febrero	2023-02-16T00:00:00	2024-11-08T03:00:00	2	Temperatura media	8.9
90126	7	Sololá	701	Sololá	4	Finca Santa Victoria	2	Febrero	2023-02-16T00:00:00	2024-11-08T03:00:00	4	Temperatura máxima	9.8
90127	7	Sololá	701	Sololá	4	Finca Santa Victoria	2	Febrero	2023-02-16T00:00:00	2024-11-08T03:00:00	3	Temperatura mínima	8.9
90128	7	Sololá	701	Sololá	4	Finca Santa Victoria	2	Febrero	2023-02-16T00:00:00	2024-11-08T03:00:00	5	Humedad	97
90129	7	Sololá	701	Sololá	4	Finca Santa Victoria	2	Febrero	2023-02-16T00:00:00	2024-11-08T03:00:00	6	Velocidad del viento	1.6
90130	7	Sololá	701	Sololá	4	Finca Santa Victoria	2	Febrero	2023-02-16T00:00:00	2024-11-08T03:00:00	7	Dirección del viento	1.61
90131	7	Sololá	701	Sololá	4	Finca Santa Victoria	2	Febrero	2023-02-16T00:00:00	2024-11-08T03:00:00	1	Precipitación	0
90132	7	Sololá	701	Sololá	4	Finca Santa Victoria	2	Febrero	2023-02-16T00:00:00	2024-11-08T03:00:00	8	Radiación solar	0
90133	7	Sololá	701	Sololá	4	Finca Santa Victoria	2	Febrero	2023-02-16T00:00:00	2024-11-08T04:00:00	2	Temperatura media	8.8
90134	7	Sololá	701	Sololá	4	Finca Santa Victoria	2	Febrero	2023-02-16T00:00:00	2024-11-08T04:00:00	4	Temperatura máxima	8.9
90135	7	Sololá	701	Sololá	4	Finca Santa Victoria	2	Febrero	2023-02-16T00:00:00	2024-11-08T04:00:00	3	Temperatura mínima	8.7
90136	7	Sololá	701	Sololá	4	Finca Santa Victoria	2	Febrero	2023-02-16T00:00:00	2024-11-08T04:00:00	5	Humedad	97
90137	7	Sololá	701	Sololá	4	Finca Santa Victoria	2	Febrero	2023-02-16T00:00:00	2024-11-08T04:00:00	6	Velocidad del viento	1.6
90138	7	Sololá	701	Sololá	4	Finca Santa Victoria	2	Febrero	2023-02-16T00:00:00	2024-11-08T04:00:00	7	Dirección del viento	1.61
90139	7	Sololá	701	Sololá	4	Finca Santa Victoria	2	Febrero	2023-02-16T00:00:00	2024-11-08T04:00:00	1	Precipitación	0
90140	7	Sololá	701	Sololá	4	Finca Santa Victoria	2	Febrero	2023-02-16T00:00:00	2024-11-08T04:00:00	8	Radiación solar	0
90141	7	Sololá	701	Sololá	4	Finca Santa Victoria	2	Febrero	2023-02-16T00:00:00	2024-11-08T05:00:00	2	Temperatura media	8.7
90142	7	Sololá	701	Sololá	4	Finca Santa Victoria	2	Febrero	2023-02-16T00:00:00	2024-11-08T05:00:00	4	Temperatura máxima	8.8
90143	7	Sololá	701	Sololá	4	Finca Santa Victoria	2	Febrero	2023-02-16T00:00:00	2024-11-08T05:00:00	3	Temperatura mínima	8.5
90144	7	Sololá	701	Sololá	4	Finca Santa Victoria	2	Febrero	2023-02-16T00:00:00	2024-11-08T05:00:00	5	Humedad	97
90145	7	Sololá	701	Sololá	4	Finca Santa Victoria	2	Febrero	2023-02-16T00:00:00	2024-11-08T05:00:00	6	Velocidad del viento	0
90146	7	Sololá	701	Sololá	4	Finca Santa Victoria	2	Febrero	2023-02-16T00:00:00	2024-11-08T05:00:00	7	Dirección del viento	0
90147	7	Sololá	701	Sololá	4	Finca Santa Victoria	2	Febrero	2023-02-16T00:00:00	2024-11-08T05:00:00	1	Precipitación	0
90148	7	Sololá	701	Sololá	4	Finca Santa Victoria	2	Febrero	2023-02-16T00:00:00	2024-11-08T05:00:00	8	Radiación solar	0
90149	7	Sololá	701	Sololá	4	Finca Santa Victoria	2	Febrero	2023-02-16T00:00:00	2024-11-08T06:00:00	2	Temperatura media	8.7
90150	7	Sololá	701	Sololá	4	Finca Santa Victoria	2	Febrero	2023-02-16T00:00:00	2024-11-08T06:00:00	4	Temperatura máxima	9.4
90151	7	Sololá	701	Sololá	4	Finca Santa Victoria	2	Febrero	2023-02-16T00:00:00	2024-11-08T06:00:00	3	Temperatura mínima	8.7
90152	7	Sololá	701	Sololá	4	Finca Santa Victoria	2	Febrero	2023-02-16T00:00:00	2024-11-08T06:00:00	5	Humedad	97
90153	7	Sololá	701	Sololá	4	Finca Santa Victoria	2	Febrero	2023-02-16T00:00:00	2024-11-08T06:00:00	6	Velocidad del viento	0
90154	7	Sololá	701	Sololá	4	Finca Santa Victoria	2	Febrero	2023-02-16T00:00:00	2024-11-08T06:00:00	7	Dirección del viento	0
90155	7	Sololá	701	Sololá	4	Finca Santa Victoria	2	Febrero	2023-02-16T00:00:00	2024-11-08T06:00:00	1	Precipitación	0
90156	7	Sololá	701	Sololá	4	Finca Santa Victoria	2	Febrero	2023-02-16T00:00:00	2024-11-08T06:00:00	8	Radiación solar	0
90157	7	Sololá	701	Sololá	4	Finca Santa Victoria	2	Febrero	2023-02-16T00:00:00	2024-11-08T07:00:00	2	Temperatura media	8
90158	7	Sololá	701	Sololá	4	Finca Santa Victoria	2	Febrero	2023-02-16T00:00:00	2024-11-08T07:00:00	4	Temperatura máxima	8.9
90159	7	Sololá	701	Sololá	4	Finca Santa Victoria	2	Febrero	2023-02-16T00:00:00	2024-11-08T07:00:00	3	Temperatura mínima	7.9
90160	7	Sololá	701	Sololá	4	Finca Santa Victoria	2	Febrero	2023-02-16T00:00:00	2024-11-08T07:00:00	5	Humedad	97
90161	7	Sololá	701	Sololá	4	Finca Santa Victoria	2	Febrero	2023-02-16T00:00:00	2024-11-08T07:00:00	6	Velocidad del viento	1.6
90162	7	Sololá	701	Sololá	4	Finca Santa Victoria	2	Febrero	2023-02-16T00:00:00	2024-11-08T07:00:00	7	Dirección del viento	1.61
90163	7	Sololá	701	Sololá	4	Finca Santa Victoria	2	Febrero	2023-02-16T00:00:00	2024-11-08T07:00:00	1	Precipitación	0
90164	7	Sololá	701	Sololá	4	Finca Santa Victoria	2	Febrero	2023-02-16T00:00:00	2024-11-08T07:00:00	8	Radiación solar	4
90165	7	Sololá	701	Sololá	4	Finca Santa Victoria	2	Febrero	2023-02-16T00:00:00	2024-11-08T08:00:00	2	Temperatura media	10.1
90166	7	Sololá	701	Sololá	4	Finca Santa Victoria	2	Febrero	2023-02-16T00:00:00	2024-11-08T08:00:00	4	Temperatura máxima	10.1
90167	7	Sololá	701	Sololá	4	Finca Santa Victoria	2	Febrero	2023-02-16T00:00:00	2024-11-08T08:00:00	3	Temperatura mínima	8
90168	7	Sololá	701	Sololá	4	Finca Santa Victoria	2	Febrero	2023-02-16T00:00:00	2024-11-08T08:00:00	5	Humedad	77
90169	7	Sololá	701	Sololá	4	Finca Santa Victoria	2	Febrero	2023-02-16T00:00:00	2024-11-08T08:00:00	6	Velocidad del viento	1.6
90170	7	Sololá	701	Sololá	4	Finca Santa Victoria	2	Febrero	2023-02-16T00:00:00	2024-11-08T08:00:00	7	Dirección del viento	1.61
90171	7	Sololá	701	Sololá	4	Finca Santa Victoria	2	Febrero	2023-02-16T00:00:00	2024-11-08T08:00:00	1	Precipitación	0
90172	7	Sololá	701	Sololá	4	Finca Santa Victoria	2	Febrero	2023-02-16T00:00:00	2024-11-08T08:00:00	8	Radiación solar	39
90173	7	Sololá	701	Sololá	4	Finca Santa Victoria	2	Febrero	2023-02-16T00:00:00	2024-11-08T09:00:00	2	Temperatura media	12.7
90174	7	Sololá	701	Sololá	4	Finca Santa Victoria	2	Febrero	2023-02-16T00:00:00	2024-11-08T09:00:00	4	Temperatura máxima	12.7
90175	7	Sololá	701	Sololá	4	Finca Santa Victoria	2	Febrero	2023-02-16T00:00:00	2024-11-08T09:00:00	3	Temperatura mínima	10.1
90176	7	Sololá	701	Sololá	4	Finca Santa Victoria	2	Febrero	2023-02-16T00:00:00	2024-11-08T09:00:00	5	Humedad	87
90177	7	Sololá	701	Sololá	4	Finca Santa Victoria	2	Febrero	2023-02-16T00:00:00	2024-11-08T09:00:00	6	Velocidad del viento	1.6
90178	7	Sololá	701	Sololá	4	Finca Santa Victoria	2	Febrero	2023-02-16T00:00:00	2024-11-08T09:00:00	7	Dirección del viento	1.61
90179	7	Sololá	701	Sololá	4	Finca Santa Victoria	2	Febrero	2023-02-16T00:00:00	2024-11-08T09:00:00	1	Precipitación	0
90180	7	Sololá	701	Sololá	4	Finca Santa Victoria	2	Febrero	2023-02-16T00:00:00	2024-11-08T09:00:00	8	Radiación solar	132
90181	7	Sololá	701	Sololá	4	Finca Santa Victoria	2	Febrero	2023-02-16T00:00:00	2024-11-08T10:00:00	2	Temperatura media	16
90182	7	Sololá	701	Sololá	4	Finca Santa Victoria	2	Febrero	2023-02-16T00:00:00	2024-11-08T10:00:00	4	Temperatura máxima	16.1
90183	7	Sololá	701	Sololá	4	Finca Santa Victoria	2	Febrero	2023-02-16T00:00:00	2024-11-08T10:00:00	3	Temperatura mínima	12.7
90184	7	Sololá	701	Sololá	4	Finca Santa Victoria	2	Febrero	2023-02-16T00:00:00	2024-11-08T10:00:00	5	Humedad	77
90185	7	Sololá	701	Sololá	4	Finca Santa Victoria	2	Febrero	2023-02-16T00:00:00	2024-11-08T10:00:00	6	Velocidad del viento	1.6
90186	7	Sololá	701	Sololá	4	Finca Santa Victoria	2	Febrero	2023-02-16T00:00:00	2024-11-08T10:00:00	7	Dirección del viento	1.61
90187	7	Sololá	701	Sololá	4	Finca Santa Victoria	2	Febrero	2023-02-16T00:00:00	2024-11-08T10:00:00	1	Precipitación	0
90188	7	Sololá	701	Sololá	4	Finca Santa Victoria	2	Febrero	2023-02-16T00:00:00	2024-11-08T10:00:00	8	Radiación solar	694
90189	7	Sololá	701	Sololá	4	Finca Santa Victoria	2	Febrero	2023-02-16T00:00:00	2024-11-08T11:00:00	2	Temperatura media	17.7
90190	7	Sololá	701	Sololá	4	Finca Santa Victoria	2	Febrero	2023-02-16T00:00:00	2024-11-08T11:00:00	4	Temperatura máxima	17.7
90191	7	Sololá	701	Sololá	4	Finca Santa Victoria	2	Febrero	2023-02-16T00:00:00	2024-11-08T11:00:00	3	Temperatura mínima	15.9
90192	7	Sololá	701	Sololá	4	Finca Santa Victoria	2	Febrero	2023-02-16T00:00:00	2024-11-08T11:00:00	5	Humedad	74
90193	7	Sololá	701	Sololá	4	Finca Santa Victoria	2	Febrero	2023-02-16T00:00:00	2024-11-08T11:00:00	6	Velocidad del viento	3.2
90194	7	Sololá	701	Sololá	4	Finca Santa Victoria	2	Febrero	2023-02-16T00:00:00	2024-11-08T11:00:00	7	Dirección del viento	3.22
90195	7	Sololá	701	Sololá	4	Finca Santa Victoria	2	Febrero	2023-02-16T00:00:00	2024-11-08T11:00:00	1	Precipitación	0
90196	7	Sololá	701	Sololá	4	Finca Santa Victoria	2	Febrero	2023-02-16T00:00:00	2024-11-08T11:00:00	8	Radiación solar	873
90197	7	Sololá	701	Sololá	4	Finca Santa Victoria	2	Febrero	2023-02-16T00:00:00	2024-11-08T12:00:00	2	Temperatura media	17.8
90198	7	Sololá	701	Sololá	4	Finca Santa Victoria	2	Febrero	2023-02-16T00:00:00	2024-11-08T12:00:00	4	Temperatura máxima	18.2
90199	7	Sololá	701	Sololá	4	Finca Santa Victoria	2	Febrero	2023-02-16T00:00:00	2024-11-08T12:00:00	3	Temperatura mínima	17.6
90200	7	Sololá	701	Sololá	4	Finca Santa Victoria	2	Febrero	2023-02-16T00:00:00	2024-11-08T12:00:00	5	Humedad	68
90201	7	Sololá	701	Sololá	4	Finca Santa Victoria	2	Febrero	2023-02-16T00:00:00	2024-11-08T12:00:00	6	Velocidad del viento	4.8
90202	7	Sololá	701	Sololá	4	Finca Santa Victoria	2	Febrero	2023-02-16T00:00:00	2024-11-08T12:00:00	7	Dirección del viento	4.83
90203	7	Sololá	701	Sololá	4	Finca Santa Victoria	2	Febrero	2023-02-16T00:00:00	2024-11-08T12:00:00	1	Precipitación	0
90204	7	Sololá	701	Sololá	4	Finca Santa Victoria	2	Febrero	2023-02-16T00:00:00	2024-11-08T12:00:00	8	Radiación solar	953
90205	7	Sololá	701	Sololá	4	Finca Santa Victoria	2	Febrero	2023-02-16T00:00:00	2024-11-08T13:00:00	2	Temperatura media	17.6
90206	7	Sololá	701	Sololá	4	Finca Santa Victoria	2	Febrero	2023-02-16T00:00:00	2024-11-08T13:00:00	4	Temperatura máxima	18.1
90207	7	Sololá	701	Sololá	4	Finca Santa Victoria	2	Febrero	2023-02-16T00:00:00	2024-11-08T13:00:00	3	Temperatura mínima	17.6
90208	7	Sololá	701	Sololá	4	Finca Santa Victoria	2	Febrero	2023-02-16T00:00:00	2024-11-08T13:00:00	5	Humedad	75
90209	7	Sololá	701	Sololá	4	Finca Santa Victoria	2	Febrero	2023-02-16T00:00:00	2024-11-08T13:00:00	6	Velocidad del viento	4.8
90210	7	Sololá	701	Sololá	4	Finca Santa Victoria	2	Febrero	2023-02-16T00:00:00	2024-11-08T13:00:00	7	Dirección del viento	4.83
90211	7	Sololá	701	Sololá	4	Finca Santa Victoria	2	Febrero	2023-02-16T00:00:00	2024-11-08T13:00:00	1	Precipitación	0
90212	7	Sololá	701	Sololá	4	Finca Santa Victoria	2	Febrero	2023-02-16T00:00:00	2024-11-08T13:00:00	8	Radiación solar	945
90213	7	Sololá	701	Sololá	4	Finca Santa Victoria	2	Febrero	2023-02-16T00:00:00	2024-11-08T14:00:00	2	Temperatura media	16.8
90214	7	Sololá	701	Sololá	4	Finca Santa Victoria	2	Febrero	2023-02-16T00:00:00	2024-11-08T14:00:00	4	Temperatura máxima	17.7
90215	7	Sololá	701	Sololá	4	Finca Santa Victoria	2	Febrero	2023-02-16T00:00:00	2024-11-08T14:00:00	3	Temperatura mínima	16.6
90216	7	Sololá	701	Sololá	4	Finca Santa Victoria	2	Febrero	2023-02-16T00:00:00	2024-11-08T14:00:00	5	Humedad	83
90217	7	Sololá	701	Sololá	4	Finca Santa Victoria	2	Febrero	2023-02-16T00:00:00	2024-11-08T14:00:00	6	Velocidad del viento	6.4
90218	7	Sololá	701	Sololá	4	Finca Santa Victoria	2	Febrero	2023-02-16T00:00:00	2024-11-08T14:00:00	7	Dirección del viento	6.44
90219	7	Sololá	701	Sololá	4	Finca Santa Victoria	2	Febrero	2023-02-16T00:00:00	2024-11-08T14:00:00	1	Precipitación	0
90220	7	Sololá	701	Sololá	4	Finca Santa Victoria	2	Febrero	2023-02-16T00:00:00	2024-11-08T14:00:00	8	Radiación solar	846
90221	7	Sololá	701	Sololá	4	Finca Santa Victoria	2	Febrero	2023-02-16T00:00:00	2024-11-08T15:00:00	2	Temperatura media	16.7
90222	7	Sololá	701	Sololá	4	Finca Santa Victoria	2	Febrero	2023-02-16T00:00:00	2024-11-08T15:00:00	4	Temperatura máxima	17.2
90223	7	Sololá	701	Sololá	4	Finca Santa Victoria	2	Febrero	2023-02-16T00:00:00	2024-11-08T15:00:00	3	Temperatura mínima	16.4
90224	7	Sololá	701	Sololá	4	Finca Santa Victoria	2	Febrero	2023-02-16T00:00:00	2024-11-08T15:00:00	5	Humedad	83
90225	7	Sololá	701	Sololá	4	Finca Santa Victoria	2	Febrero	2023-02-16T00:00:00	2024-11-08T15:00:00	6	Velocidad del viento	4.8
90226	7	Sololá	701	Sololá	4	Finca Santa Victoria	2	Febrero	2023-02-16T00:00:00	2024-11-08T15:00:00	7	Dirección del viento	4.83
90227	7	Sololá	701	Sololá	4	Finca Santa Victoria	2	Febrero	2023-02-16T00:00:00	2024-11-08T15:00:00	1	Precipitación	0
90228	7	Sololá	701	Sololá	4	Finca Santa Victoria	2	Febrero	2023-02-16T00:00:00	2024-11-08T15:00:00	8	Radiación solar	538
90229	7	Sololá	701	Sololá	4	Finca Santa Victoria	2	Febrero	2023-02-16T00:00:00	2024-11-08T16:00:00	2	Temperatura media	15.4
90230	7	Sololá	701	Sololá	4	Finca Santa Victoria	2	Febrero	2023-02-16T00:00:00	2024-11-08T16:00:00	4	Temperatura máxima	17.6
90231	7	Sololá	701	Sololá	4	Finca Santa Victoria	2	Febrero	2023-02-16T00:00:00	2024-11-08T16:00:00	3	Temperatura mínima	15.4
90232	7	Sololá	701	Sololá	4	Finca Santa Victoria	2	Febrero	2023-02-16T00:00:00	2024-11-08T16:00:00	5	Humedad	87
90233	7	Sololá	701	Sololá	4	Finca Santa Victoria	2	Febrero	2023-02-16T00:00:00	2024-11-08T16:00:00	6	Velocidad del viento	4.8
90234	7	Sololá	701	Sololá	4	Finca Santa Victoria	2	Febrero	2023-02-16T00:00:00	2024-11-08T16:00:00	7	Dirección del viento	4.83
90235	7	Sololá	701	Sololá	4	Finca Santa Victoria	2	Febrero	2023-02-16T00:00:00	2024-11-08T16:00:00	1	Precipitación	0
90236	7	Sololá	701	Sololá	4	Finca Santa Victoria	2	Febrero	2023-02-16T00:00:00	2024-11-08T16:00:00	8	Radiación solar	335
90237	7	Sololá	701	Sololá	4	Finca Santa Victoria	2	Febrero	2023-02-16T00:00:00	2024-11-08T17:00:00	2	Temperatura media	13.9
90238	7	Sololá	701	Sololá	4	Finca Santa Victoria	2	Febrero	2023-02-16T00:00:00	2024-11-08T17:00:00	4	Temperatura máxima	15.4
90239	7	Sololá	701	Sololá	4	Finca Santa Victoria	2	Febrero	2023-02-16T00:00:00	2024-11-08T17:00:00	3	Temperatura mínima	13.9
90240	7	Sololá	701	Sololá	4	Finca Santa Victoria	2	Febrero	2023-02-16T00:00:00	2024-11-08T17:00:00	5	Humedad	93
90241	7	Sololá	701	Sololá	4	Finca Santa Victoria	2	Febrero	2023-02-16T00:00:00	2024-11-08T17:00:00	6	Velocidad del viento	3.2
90242	7	Sololá	701	Sololá	4	Finca Santa Victoria	2	Febrero	2023-02-16T00:00:00	2024-11-08T17:00:00	7	Dirección del viento	3.22
90243	7	Sololá	701	Sololá	4	Finca Santa Victoria	2	Febrero	2023-02-16T00:00:00	2024-11-08T17:00:00	1	Precipitación	0
90244	7	Sololá	701	Sololá	4	Finca Santa Victoria	2	Febrero	2023-02-16T00:00:00	2024-11-08T17:00:00	8	Radiación solar	65
90245	7	Sololá	701	Sololá	4	Finca Santa Victoria	2	Febrero	2023-02-16T00:00:00	2024-11-08T18:00:00	2	Temperatura media	13.6
90246	7	Sololá	701	Sololá	4	Finca Santa Victoria	2	Febrero	2023-02-16T00:00:00	2024-11-08T18:00:00	4	Temperatura máxima	13.9
90247	7	Sololá	701	Sololá	4	Finca Santa Victoria	2	Febrero	2023-02-16T00:00:00	2024-11-08T18:00:00	3	Temperatura mínima	13.4
90248	7	Sololá	701	Sololá	4	Finca Santa Victoria	2	Febrero	2023-02-16T00:00:00	2024-11-08T18:00:00	5	Humedad	95
90249	7	Sololá	701	Sololá	4	Finca Santa Victoria	2	Febrero	2023-02-16T00:00:00	2024-11-08T18:00:00	6	Velocidad del viento	1.6
90250	7	Sololá	701	Sololá	4	Finca Santa Victoria	2	Febrero	2023-02-16T00:00:00	2024-11-08T18:00:00	7	Dirección del viento	1.61
90251	7	Sololá	701	Sololá	4	Finca Santa Victoria	2	Febrero	2023-02-16T00:00:00	2024-11-08T18:00:00	1	Precipitación	0
90252	7	Sololá	701	Sololá	4	Finca Santa Victoria	2	Febrero	2023-02-16T00:00:00	2024-11-08T18:00:00	8	Radiación solar	19
90253	7	Sololá	701	Sololá	4	Finca Santa Victoria	2	Febrero	2023-02-16T00:00:00	2024-11-08T19:00:00	2	Temperatura media	13.1
90254	7	Sololá	701	Sololá	4	Finca Santa Victoria	2	Febrero	2023-02-16T00:00:00	2024-11-08T19:00:00	4	Temperatura máxima	13.5
90255	7	Sololá	701	Sololá	4	Finca Santa Victoria	2	Febrero	2023-02-16T00:00:00	2024-11-08T19:00:00	3	Temperatura mínima	13.1
90256	7	Sololá	701	Sololá	4	Finca Santa Victoria	2	Febrero	2023-02-16T00:00:00	2024-11-08T19:00:00	5	Humedad	95
90257	7	Sololá	701	Sololá	4	Finca Santa Victoria	2	Febrero	2023-02-16T00:00:00	2024-11-08T19:00:00	6	Velocidad del viento	0
90258	7	Sololá	701	Sololá	4	Finca Santa Victoria	2	Febrero	2023-02-16T00:00:00	2024-11-08T19:00:00	7	Dirección del viento	0
90259	7	Sololá	701	Sololá	4	Finca Santa Victoria	2	Febrero	2023-02-16T00:00:00	2024-11-08T19:00:00	1	Precipitación	0
90260	7	Sololá	701	Sololá	4	Finca Santa Victoria	2	Febrero	2023-02-16T00:00:00	2024-11-08T19:00:00	8	Radiación solar	0
90261	7	Sololá	701	Sololá	4	Finca Santa Victoria	2	Febrero	2023-02-16T00:00:00	2024-11-08T20:00:00	2	Temperatura media	11.9
90262	7	Sololá	701	Sololá	4	Finca Santa Victoria	2	Febrero	2023-02-16T00:00:00	2024-11-08T20:00:00	4	Temperatura máxima	13.1
90263	7	Sololá	701	Sololá	4	Finca Santa Victoria	2	Febrero	2023-02-16T00:00:00	2024-11-08T20:00:00	3	Temperatura mínima	11.3
90264	7	Sololá	701	Sololá	4	Finca Santa Victoria	2	Febrero	2023-02-16T00:00:00	2024-11-08T20:00:00	5	Humedad	85
90265	7	Sololá	701	Sololá	4	Finca Santa Victoria	2	Febrero	2023-02-16T00:00:00	2024-11-08T20:00:00	6	Velocidad del viento	0
90266	7	Sololá	701	Sololá	4	Finca Santa Victoria	2	Febrero	2023-02-16T00:00:00	2024-11-08T20:00:00	7	Dirección del viento	0
90267	7	Sololá	701	Sololá	4	Finca Santa Victoria	2	Febrero	2023-02-16T00:00:00	2024-11-08T20:00:00	1	Precipitación	0
90268	7	Sololá	701	Sololá	4	Finca Santa Victoria	2	Febrero	2023-02-16T00:00:00	2024-11-08T20:00:00	8	Radiación solar	0
90269	7	Sololá	701	Sololá	4	Finca Santa Victoria	2	Febrero	2023-02-16T00:00:00	2024-11-08T21:00:00	2	Temperatura media	14.1
90270	7	Sololá	701	Sololá	4	Finca Santa Victoria	2	Febrero	2023-02-16T00:00:00	2024-11-08T21:00:00	4	Temperatura máxima	14.1
90271	7	Sololá	701	Sololá	4	Finca Santa Victoria	2	Febrero	2023-02-16T00:00:00	2024-11-08T21:00:00	3	Temperatura mínima	11.9
90272	7	Sololá	701	Sololá	4	Finca Santa Victoria	2	Febrero	2023-02-16T00:00:00	2024-11-08T21:00:00	5	Humedad	76
90273	7	Sololá	701	Sololá	4	Finca Santa Victoria	2	Febrero	2023-02-16T00:00:00	2024-11-08T21:00:00	6	Velocidad del viento	1.6
90274	7	Sololá	701	Sololá	4	Finca Santa Victoria	2	Febrero	2023-02-16T00:00:00	2024-11-08T21:00:00	7	Dirección del viento	1.61
90275	7	Sololá	701	Sololá	4	Finca Santa Victoria	2	Febrero	2023-02-16T00:00:00	2024-11-08T21:00:00	1	Precipitación	0
90276	7	Sololá	701	Sololá	4	Finca Santa Victoria	2	Febrero	2023-02-16T00:00:00	2024-11-08T21:00:00	8	Radiación solar	0
90277	7	Sololá	701	Sololá	4	Finca Santa Victoria	2	Febrero	2023-02-16T00:00:00	2024-11-08T22:00:00	2	Temperatura media	13.6
90278	7	Sololá	701	Sololá	4	Finca Santa Victoria	2	Febrero	2023-02-16T00:00:00	2024-11-08T22:00:00	4	Temperatura máxima	14.1
90279	7	Sololá	701	Sololá	4	Finca Santa Victoria	2	Febrero	2023-02-16T00:00:00	2024-11-08T22:00:00	3	Temperatura mínima	13.5
90280	7	Sololá	701	Sololá	4	Finca Santa Victoria	2	Febrero	2023-02-16T00:00:00	2024-11-08T22:00:00	5	Humedad	79
90281	7	Sololá	701	Sololá	4	Finca Santa Victoria	2	Febrero	2023-02-16T00:00:00	2024-11-08T22:00:00	6	Velocidad del viento	0
90282	7	Sololá	701	Sololá	4	Finca Santa Victoria	2	Febrero	2023-02-16T00:00:00	2024-11-08T22:00:00	7	Dirección del viento	0
90283	7	Sololá	701	Sololá	4	Finca Santa Victoria	2	Febrero	2023-02-16T00:00:00	2024-11-08T22:00:00	1	Precipitación	0
90284	7	Sololá	701	Sololá	4	Finca Santa Victoria	2	Febrero	2023-02-16T00:00:00	2024-11-08T22:00:00	8	Radiación solar	0
90285	7	Sololá	701	Sololá	4	Finca Santa Victoria	2	Febrero	2023-02-16T00:00:00	2024-11-08T23:00:00	2	Temperatura media	13.1
90286	7	Sololá	701	Sololá	4	Finca Santa Victoria	2	Febrero	2023-02-16T00:00:00	2024-11-08T23:00:00	4	Temperatura máxima	13.7
90287	7	Sololá	701	Sololá	4	Finca Santa Victoria	2	Febrero	2023-02-16T00:00:00	2024-11-08T23:00:00	3	Temperatura mínima	13
90288	7	Sololá	701	Sololá	4	Finca Santa Victoria	2	Febrero	2023-02-16T00:00:00	2024-11-08T23:00:00	5	Humedad	82
90289	7	Sololá	701	Sololá	4	Finca Santa Victoria	2	Febrero	2023-02-16T00:00:00	2024-11-08T23:00:00	6	Velocidad del viento	1.6
90290	7	Sololá	701	Sololá	4	Finca Santa Victoria	2	Febrero	2023-02-16T00:00:00	2024-11-08T23:00:00	7	Dirección del viento	1.61
90291	7	Sololá	701	Sololá	4	Finca Santa Victoria	2	Febrero	2023-02-16T00:00:00	2024-11-08T23:00:00	1	Precipitación	0
90292	7	Sololá	701	Sololá	4	Finca Santa Victoria	2	Febrero	2023-02-16T00:00:00	2024-11-08T23:00:00	8	Radiación solar	0
90293	7	Sololá	701	Sololá	4	Finca Santa Victoria	2	Febrero	2023-02-17T00:00:00	2024-11-08T00:00:00	2	Temperatura media	11.9
90294	7	Sololá	701	Sololá	4	Finca Santa Victoria	2	Febrero	2023-02-17T00:00:00	2024-11-08T00:00:00	4	Temperatura máxima	13
90295	7	Sololá	701	Sololá	4	Finca Santa Victoria	2	Febrero	2023-02-17T00:00:00	2024-11-08T00:00:00	3	Temperatura mínima	11.9
90296	7	Sololá	701	Sololá	4	Finca Santa Victoria	2	Febrero	2023-02-17T00:00:00	2024-11-08T00:00:00	5	Humedad	89
90297	7	Sololá	701	Sololá	4	Finca Santa Victoria	2	Febrero	2023-02-17T00:00:00	2024-11-08T00:00:00	6	Velocidad del viento	1.6
90298	7	Sololá	701	Sololá	4	Finca Santa Victoria	2	Febrero	2023-02-17T00:00:00	2024-11-08T00:00:00	7	Dirección del viento	1.61
90299	7	Sololá	701	Sololá	4	Finca Santa Victoria	2	Febrero	2023-02-17T00:00:00	2024-11-08T00:00:00	1	Precipitación	0
90300	7	Sololá	701	Sololá	4	Finca Santa Victoria	2	Febrero	2023-02-17T00:00:00	2024-11-08T00:00:00	8	Radiación solar	0
90301	7	Sololá	701	Sololá	4	Finca Santa Victoria	2	Febrero	2023-02-17T00:00:00	2024-11-08T01:00:00	2	Temperatura media	11.2
90302	7	Sololá	701	Sololá	4	Finca Santa Victoria	2	Febrero	2023-02-17T00:00:00	2024-11-08T01:00:00	4	Temperatura máxima	11.9
90303	7	Sololá	701	Sololá	4	Finca Santa Victoria	2	Febrero	2023-02-17T00:00:00	2024-11-08T01:00:00	3	Temperatura mínima	11.2
90304	7	Sololá	701	Sololá	4	Finca Santa Victoria	2	Febrero	2023-02-17T00:00:00	2024-11-08T01:00:00	5	Humedad	94
90305	7	Sololá	701	Sololá	4	Finca Santa Victoria	2	Febrero	2023-02-17T00:00:00	2024-11-08T01:00:00	6	Velocidad del viento	1.6
90306	7	Sololá	701	Sololá	4	Finca Santa Victoria	2	Febrero	2023-02-17T00:00:00	2024-11-08T01:00:00	7	Dirección del viento	1.61
90307	7	Sololá	701	Sololá	4	Finca Santa Victoria	2	Febrero	2023-02-17T00:00:00	2024-11-08T01:00:00	1	Precipitación	0
90308	7	Sololá	701	Sololá	4	Finca Santa Victoria	2	Febrero	2023-02-17T00:00:00	2024-11-08T01:00:00	8	Radiación solar	0
90309	7	Sololá	701	Sololá	4	Finca Santa Victoria	2	Febrero	2023-02-17T00:00:00	2024-11-08T02:00:00	2	Temperatura media	10.7
90310	7	Sololá	701	Sololá	4	Finca Santa Victoria	2	Febrero	2023-02-17T00:00:00	2024-11-08T02:00:00	4	Temperatura máxima	11.2
90311	7	Sololá	701	Sololá	4	Finca Santa Victoria	2	Febrero	2023-02-17T00:00:00	2024-11-08T02:00:00	3	Temperatura mínima	10.7
90312	7	Sololá	701	Sololá	4	Finca Santa Victoria	2	Febrero	2023-02-17T00:00:00	2024-11-08T02:00:00	5	Humedad	95
90313	7	Sololá	701	Sololá	4	Finca Santa Victoria	2	Febrero	2023-02-17T00:00:00	2024-11-08T02:00:00	6	Velocidad del viento	1.6
90314	7	Sololá	701	Sololá	4	Finca Santa Victoria	2	Febrero	2023-02-17T00:00:00	2024-11-08T02:00:00	7	Dirección del viento	1.61
90315	7	Sololá	701	Sololá	4	Finca Santa Victoria	2	Febrero	2023-02-17T00:00:00	2024-11-08T02:00:00	1	Precipitación	0
90316	7	Sololá	701	Sololá	4	Finca Santa Victoria	2	Febrero	2023-02-17T00:00:00	2024-11-08T02:00:00	8	Radiación solar	0
90317	7	Sololá	701	Sololá	4	Finca Santa Victoria	2	Febrero	2023-02-17T00:00:00	2024-11-08T03:00:00	2	Temperatura media	10.5
90318	7	Sololá	701	Sololá	4	Finca Santa Victoria	2	Febrero	2023-02-17T00:00:00	2024-11-08T03:00:00	4	Temperatura máxima	10.7
90319	7	Sololá	701	Sololá	4	Finca Santa Victoria	2	Febrero	2023-02-17T00:00:00	2024-11-08T03:00:00	3	Temperatura mínima	10.4
90320	7	Sololá	701	Sololá	4	Finca Santa Victoria	2	Febrero	2023-02-17T00:00:00	2024-11-08T03:00:00	5	Humedad	97
90321	7	Sololá	701	Sololá	4	Finca Santa Victoria	2	Febrero	2023-02-17T00:00:00	2024-11-08T03:00:00	6	Velocidad del viento	1.6
90322	7	Sololá	701	Sololá	4	Finca Santa Victoria	2	Febrero	2023-02-17T00:00:00	2024-11-08T03:00:00	7	Dirección del viento	1.61
90323	7	Sololá	701	Sololá	4	Finca Santa Victoria	2	Febrero	2023-02-17T00:00:00	2024-11-08T03:00:00	1	Precipitación	0
90324	7	Sololá	701	Sololá	4	Finca Santa Victoria	2	Febrero	2023-02-17T00:00:00	2024-11-08T03:00:00	8	Radiación solar	0
90325	7	Sololá	701	Sololá	4	Finca Santa Victoria	2	Febrero	2023-02-17T00:00:00	2024-11-08T04:00:00	2	Temperatura media	9.9
90326	7	Sololá	701	Sololá	4	Finca Santa Victoria	2	Febrero	2023-02-17T00:00:00	2024-11-08T04:00:00	4	Temperatura máxima	10.6
90327	7	Sololá	701	Sololá	4	Finca Santa Victoria	2	Febrero	2023-02-17T00:00:00	2024-11-08T04:00:00	3	Temperatura mínima	9.9
90328	7	Sololá	701	Sololá	4	Finca Santa Victoria	2	Febrero	2023-02-17T00:00:00	2024-11-08T04:00:00	5	Humedad	97
90329	7	Sololá	701	Sololá	4	Finca Santa Victoria	2	Febrero	2023-02-17T00:00:00	2024-11-08T04:00:00	6	Velocidad del viento	1.6
90330	7	Sololá	701	Sololá	4	Finca Santa Victoria	2	Febrero	2023-02-17T00:00:00	2024-11-08T04:00:00	7	Dirección del viento	1.61
90331	7	Sololá	701	Sololá	4	Finca Santa Victoria	2	Febrero	2023-02-17T00:00:00	2024-11-08T04:00:00	1	Precipitación	0
90332	7	Sololá	701	Sololá	4	Finca Santa Victoria	2	Febrero	2023-02-17T00:00:00	2024-11-08T04:00:00	8	Radiación solar	0
90333	7	Sololá	701	Sololá	4	Finca Santa Victoria	2	Febrero	2023-02-17T00:00:00	2024-11-08T05:00:00	2	Temperatura media	9.5
90334	7	Sololá	701	Sololá	4	Finca Santa Victoria	2	Febrero	2023-02-17T00:00:00	2024-11-08T05:00:00	4	Temperatura máxima	9.9
90335	7	Sololá	701	Sololá	4	Finca Santa Victoria	2	Febrero	2023-02-17T00:00:00	2024-11-08T05:00:00	3	Temperatura mínima	9.5
90336	7	Sololá	701	Sololá	4	Finca Santa Victoria	2	Febrero	2023-02-17T00:00:00	2024-11-08T05:00:00	5	Humedad	97
90337	7	Sololá	701	Sololá	4	Finca Santa Victoria	2	Febrero	2023-02-17T00:00:00	2024-11-08T05:00:00	6	Velocidad del viento	3.2
90338	7	Sololá	701	Sololá	4	Finca Santa Victoria	2	Febrero	2023-02-17T00:00:00	2024-11-08T05:00:00	7	Dirección del viento	3.22
90339	7	Sololá	701	Sololá	4	Finca Santa Victoria	2	Febrero	2023-02-17T00:00:00	2024-11-08T05:00:00	1	Precipitación	0
90340	7	Sololá	701	Sololá	4	Finca Santa Victoria	2	Febrero	2023-02-17T00:00:00	2024-11-08T05:00:00	8	Radiación solar	0
90341	7	Sololá	701	Sololá	4	Finca Santa Victoria	2	Febrero	2023-02-17T00:00:00	2024-11-08T06:00:00	2	Temperatura media	11.6
90342	7	Sololá	701	Sololá	4	Finca Santa Victoria	2	Febrero	2023-02-17T00:00:00	2024-11-08T06:00:00	4	Temperatura máxima	11.6
90343	7	Sololá	701	Sololá	4	Finca Santa Victoria	2	Febrero	2023-02-17T00:00:00	2024-11-08T06:00:00	3	Temperatura mínima	8.8
90344	7	Sololá	701	Sololá	4	Finca Santa Victoria	2	Febrero	2023-02-17T00:00:00	2024-11-08T06:00:00	5	Humedad	66
90345	7	Sololá	701	Sololá	4	Finca Santa Victoria	2	Febrero	2023-02-17T00:00:00	2024-11-08T06:00:00	6	Velocidad del viento	3.2
90346	7	Sololá	701	Sololá	4	Finca Santa Victoria	2	Febrero	2023-02-17T00:00:00	2024-11-08T06:00:00	7	Dirección del viento	3.22
90347	7	Sololá	701	Sololá	4	Finca Santa Victoria	2	Febrero	2023-02-17T00:00:00	2024-11-08T06:00:00	1	Precipitación	0
90348	7	Sololá	701	Sololá	4	Finca Santa Victoria	2	Febrero	2023-02-17T00:00:00	2024-11-08T06:00:00	8	Radiación solar	0
90349	7	Sololá	701	Sololá	4	Finca Santa Victoria	2	Febrero	2023-02-17T00:00:00	2024-11-08T07:00:00	2	Temperatura media	11.5
90350	7	Sololá	701	Sololá	4	Finca Santa Victoria	2	Febrero	2023-02-17T00:00:00	2024-11-08T07:00:00	4	Temperatura máxima	11.8
90351	7	Sololá	701	Sololá	4	Finca Santa Victoria	2	Febrero	2023-02-17T00:00:00	2024-11-08T07:00:00	3	Temperatura mínima	10.1
90352	7	Sololá	701	Sololá	4	Finca Santa Victoria	2	Febrero	2023-02-17T00:00:00	2024-11-08T07:00:00	5	Humedad	68
90353	7	Sololá	701	Sololá	4	Finca Santa Victoria	2	Febrero	2023-02-17T00:00:00	2024-11-08T07:00:00	6	Velocidad del viento	1.6
90354	7	Sololá	701	Sololá	4	Finca Santa Victoria	2	Febrero	2023-02-17T00:00:00	2024-11-08T07:00:00	7	Dirección del viento	1.61
90355	7	Sololá	701	Sololá	4	Finca Santa Victoria	2	Febrero	2023-02-17T00:00:00	2024-11-08T07:00:00	1	Precipitación	0
90356	7	Sololá	701	Sololá	4	Finca Santa Victoria	2	Febrero	2023-02-17T00:00:00	2024-11-08T07:00:00	8	Radiación solar	4
90357	7	Sololá	701	Sololá	4	Finca Santa Victoria	2	Febrero	2023-02-17T00:00:00	2024-11-08T08:00:00	2	Temperatura media	12.4
90358	7	Sololá	701	Sololá	4	Finca Santa Victoria	2	Febrero	2023-02-17T00:00:00	2024-11-08T08:00:00	4	Temperatura máxima	12.4
90359	7	Sololá	701	Sololá	4	Finca Santa Victoria	2	Febrero	2023-02-17T00:00:00	2024-11-08T08:00:00	3	Temperatura mínima	11.5
90360	7	Sololá	701	Sololá	4	Finca Santa Victoria	2	Febrero	2023-02-17T00:00:00	2024-11-08T08:00:00	5	Humedad	81
90361	7	Sololá	701	Sololá	4	Finca Santa Victoria	2	Febrero	2023-02-17T00:00:00	2024-11-08T08:00:00	6	Velocidad del viento	3.2
90362	7	Sololá	701	Sololá	4	Finca Santa Victoria	2	Febrero	2023-02-17T00:00:00	2024-11-08T08:00:00	7	Dirección del viento	3.22
90363	7	Sololá	701	Sololá	4	Finca Santa Victoria	2	Febrero	2023-02-17T00:00:00	2024-11-08T08:00:00	1	Precipitación	0
90364	7	Sololá	701	Sololá	4	Finca Santa Victoria	2	Febrero	2023-02-17T00:00:00	2024-11-08T08:00:00	8	Radiación solar	46
90365	7	Sololá	701	Sololá	4	Finca Santa Victoria	2	Febrero	2023-02-17T00:00:00	2024-11-08T09:00:00	2	Temperatura media	14.4
90366	7	Sololá	701	Sololá	4	Finca Santa Victoria	2	Febrero	2023-02-17T00:00:00	2024-11-08T09:00:00	4	Temperatura máxima	14.4
90367	7	Sololá	701	Sololá	4	Finca Santa Victoria	2	Febrero	2023-02-17T00:00:00	2024-11-08T09:00:00	3	Temperatura mínima	12.4
90368	7	Sololá	701	Sololá	4	Finca Santa Victoria	2	Febrero	2023-02-17T00:00:00	2024-11-08T09:00:00	5	Humedad	73
90369	7	Sololá	701	Sololá	4	Finca Santa Victoria	2	Febrero	2023-02-17T00:00:00	2024-11-08T09:00:00	6	Velocidad del viento	4.8
90370	7	Sololá	701	Sololá	4	Finca Santa Victoria	2	Febrero	2023-02-17T00:00:00	2024-11-08T09:00:00	7	Dirección del viento	4.83
90371	7	Sololá	701	Sololá	4	Finca Santa Victoria	2	Febrero	2023-02-17T00:00:00	2024-11-08T09:00:00	1	Precipitación	0
90372	7	Sololá	701	Sololá	4	Finca Santa Victoria	2	Febrero	2023-02-17T00:00:00	2024-11-08T09:00:00	8	Radiación solar	115
90373	7	Sololá	701	Sololá	4	Finca Santa Victoria	2	Febrero	2023-02-17T00:00:00	2024-11-08T10:00:00	2	Temperatura media	15.9
90374	7	Sololá	701	Sololá	4	Finca Santa Victoria	2	Febrero	2023-02-17T00:00:00	2024-11-08T10:00:00	4	Temperatura máxima	16.1
90375	7	Sololá	701	Sololá	4	Finca Santa Victoria	2	Febrero	2023-02-17T00:00:00	2024-11-08T10:00:00	3	Temperatura mínima	14.4
90376	7	Sololá	701	Sololá	4	Finca Santa Victoria	2	Febrero	2023-02-17T00:00:00	2024-11-08T10:00:00	5	Humedad	64
90377	7	Sololá	701	Sololá	4	Finca Santa Victoria	2	Febrero	2023-02-17T00:00:00	2024-11-08T10:00:00	6	Velocidad del viento	6.4
90378	7	Sololá	701	Sololá	4	Finca Santa Victoria	2	Febrero	2023-02-17T00:00:00	2024-11-08T10:00:00	7	Dirección del viento	6.44
90379	7	Sololá	701	Sololá	4	Finca Santa Victoria	2	Febrero	2023-02-17T00:00:00	2024-11-08T10:00:00	1	Precipitación	0
90380	7	Sololá	701	Sololá	4	Finca Santa Victoria	2	Febrero	2023-02-17T00:00:00	2024-11-08T10:00:00	8	Radiación solar	684
90381	7	Sololá	701	Sololá	4	Finca Santa Victoria	2	Febrero	2023-02-17T00:00:00	2024-11-08T11:00:00	2	Temperatura media	18.4
90382	7	Sololá	701	Sololá	4	Finca Santa Victoria	2	Febrero	2023-02-17T00:00:00	2024-11-08T11:00:00	4	Temperatura máxima	18.5
90383	7	Sololá	701	Sololá	4	Finca Santa Victoria	2	Febrero	2023-02-17T00:00:00	2024-11-08T11:00:00	3	Temperatura mínima	15.8
90384	7	Sololá	701	Sololá	4	Finca Santa Victoria	2	Febrero	2023-02-17T00:00:00	2024-11-08T11:00:00	5	Humedad	57
90385	7	Sololá	701	Sololá	4	Finca Santa Victoria	2	Febrero	2023-02-17T00:00:00	2024-11-08T11:00:00	6	Velocidad del viento	6.4
90386	7	Sololá	701	Sololá	4	Finca Santa Victoria	2	Febrero	2023-02-17T00:00:00	2024-11-08T11:00:00	7	Dirección del viento	6.44
90387	7	Sololá	701	Sololá	4	Finca Santa Victoria	2	Febrero	2023-02-17T00:00:00	2024-11-08T11:00:00	1	Precipitación	0
90388	7	Sololá	701	Sololá	4	Finca Santa Victoria	2	Febrero	2023-02-17T00:00:00	2024-11-08T11:00:00	8	Radiación solar	857
90389	7	Sololá	701	Sololá	4	Finca Santa Victoria	2	Febrero	2023-02-17T00:00:00	2024-11-08T12:00:00	2	Temperatura media	19.4
90390	7	Sololá	701	Sololá	4	Finca Santa Victoria	2	Febrero	2023-02-17T00:00:00	2024-11-08T12:00:00	4	Temperatura máxima	19.7
90391	7	Sololá	701	Sololá	4	Finca Santa Victoria	2	Febrero	2023-02-17T00:00:00	2024-11-08T12:00:00	3	Temperatura mínima	18.4
90392	7	Sololá	701	Sololá	4	Finca Santa Victoria	2	Febrero	2023-02-17T00:00:00	2024-11-08T12:00:00	5	Humedad	53
90393	7	Sololá	701	Sololá	4	Finca Santa Victoria	2	Febrero	2023-02-17T00:00:00	2024-11-08T12:00:00	6	Velocidad del viento	6.4
90394	7	Sololá	701	Sololá	4	Finca Santa Victoria	2	Febrero	2023-02-17T00:00:00	2024-11-08T12:00:00	7	Dirección del viento	6.44
90395	7	Sololá	701	Sololá	4	Finca Santa Victoria	2	Febrero	2023-02-17T00:00:00	2024-11-08T12:00:00	1	Precipitación	0
90396	7	Sololá	701	Sololá	4	Finca Santa Victoria	2	Febrero	2023-02-17T00:00:00	2024-11-08T12:00:00	8	Radiación solar	948
90397	7	Sololá	701	Sololá	4	Finca Santa Victoria	2	Febrero	2023-02-17T00:00:00	2024-11-08T13:00:00	2	Temperatura media	19.8
90398	7	Sololá	701	Sololá	4	Finca Santa Victoria	2	Febrero	2023-02-17T00:00:00	2024-11-08T13:00:00	4	Temperatura máxima	20.4
90399	7	Sololá	701	Sololá	4	Finca Santa Victoria	2	Febrero	2023-02-17T00:00:00	2024-11-08T13:00:00	3	Temperatura mínima	19.4
90400	7	Sololá	701	Sololá	4	Finca Santa Victoria	2	Febrero	2023-02-17T00:00:00	2024-11-08T13:00:00	5	Humedad	50
90401	7	Sololá	701	Sololá	4	Finca Santa Victoria	2	Febrero	2023-02-17T00:00:00	2024-11-08T13:00:00	6	Velocidad del viento	6.4
90402	7	Sololá	701	Sololá	4	Finca Santa Victoria	2	Febrero	2023-02-17T00:00:00	2024-11-08T13:00:00	7	Dirección del viento	6.44
90403	7	Sololá	701	Sololá	4	Finca Santa Victoria	2	Febrero	2023-02-17T00:00:00	2024-11-08T13:00:00	1	Precipitación	0
90404	7	Sololá	701	Sololá	4	Finca Santa Victoria	2	Febrero	2023-02-17T00:00:00	2024-11-08T13:00:00	8	Radiación solar	938
90405	7	Sololá	701	Sololá	4	Finca Santa Victoria	2	Febrero	2023-02-17T00:00:00	2024-11-08T14:00:00	2	Temperatura media	19.9
90406	7	Sololá	701	Sololá	4	Finca Santa Victoria	2	Febrero	2023-02-17T00:00:00	2024-11-08T14:00:00	4	Temperatura máxima	20.5
90407	7	Sololá	701	Sololá	4	Finca Santa Victoria	2	Febrero	2023-02-17T00:00:00	2024-11-08T14:00:00	3	Temperatura mínima	19.7
90408	7	Sololá	701	Sololá	4	Finca Santa Victoria	2	Febrero	2023-02-17T00:00:00	2024-11-08T14:00:00	5	Humedad	47
90409	7	Sololá	701	Sololá	4	Finca Santa Victoria	2	Febrero	2023-02-17T00:00:00	2024-11-08T14:00:00	6	Velocidad del viento	6.4
90410	7	Sololá	701	Sololá	4	Finca Santa Victoria	2	Febrero	2023-02-17T00:00:00	2024-11-08T14:00:00	7	Dirección del viento	6.44
90411	7	Sololá	701	Sololá	4	Finca Santa Victoria	2	Febrero	2023-02-17T00:00:00	2024-11-08T14:00:00	1	Precipitación	0
90412	7	Sololá	701	Sololá	4	Finca Santa Victoria	2	Febrero	2023-02-17T00:00:00	2024-11-08T14:00:00	8	Radiación solar	915
90413	7	Sololá	701	Sololá	4	Finca Santa Victoria	2	Febrero	2023-02-17T00:00:00	2024-11-08T15:00:00	2	Temperatura media	18.5
90414	7	Sololá	701	Sololá	4	Finca Santa Victoria	2	Febrero	2023-02-17T00:00:00	2024-11-08T15:00:00	4	Temperatura máxima	20
90415	7	Sololá	701	Sololá	4	Finca Santa Victoria	2	Febrero	2023-02-17T00:00:00	2024-11-08T15:00:00	3	Temperatura mínima	18.3
90416	7	Sololá	701	Sololá	4	Finca Santa Victoria	2	Febrero	2023-02-17T00:00:00	2024-11-08T15:00:00	5	Humedad	51
90417	7	Sololá	701	Sololá	4	Finca Santa Victoria	2	Febrero	2023-02-17T00:00:00	2024-11-08T15:00:00	6	Velocidad del viento	8
90418	7	Sololá	701	Sololá	4	Finca Santa Victoria	2	Febrero	2023-02-17T00:00:00	2024-11-08T15:00:00	7	Dirección del viento	8.05
90419	7	Sololá	701	Sololá	4	Finca Santa Victoria	2	Febrero	2023-02-17T00:00:00	2024-11-08T15:00:00	1	Precipitación	0
90420	7	Sololá	701	Sololá	4	Finca Santa Victoria	2	Febrero	2023-02-17T00:00:00	2024-11-08T15:00:00	8	Radiación solar	653
90421	7	Sololá	701	Sololá	4	Finca Santa Victoria	2	Febrero	2023-02-17T00:00:00	2024-11-08T16:00:00	2	Temperatura media	17.4
90422	7	Sololá	701	Sololá	4	Finca Santa Victoria	2	Febrero	2023-02-17T00:00:00	2024-11-08T16:00:00	4	Temperatura máxima	19.2
90423	7	Sololá	701	Sololá	4	Finca Santa Victoria	2	Febrero	2023-02-17T00:00:00	2024-11-08T16:00:00	3	Temperatura mínima	17.4
90424	7	Sololá	701	Sololá	4	Finca Santa Victoria	2	Febrero	2023-02-17T00:00:00	2024-11-08T16:00:00	5	Humedad	57
90425	7	Sololá	701	Sololá	4	Finca Santa Victoria	2	Febrero	2023-02-17T00:00:00	2024-11-08T16:00:00	6	Velocidad del viento	6.4
90426	7	Sololá	701	Sololá	4	Finca Santa Victoria	2	Febrero	2023-02-17T00:00:00	2024-11-08T16:00:00	7	Dirección del viento	6.44
90427	7	Sololá	701	Sololá	4	Finca Santa Victoria	2	Febrero	2023-02-17T00:00:00	2024-11-08T16:00:00	1	Precipitación	0
90428	7	Sololá	701	Sololá	4	Finca Santa Victoria	2	Febrero	2023-02-17T00:00:00	2024-11-08T16:00:00	8	Radiación solar	311
90429	7	Sololá	701	Sololá	4	Finca Santa Victoria	2	Febrero	2023-02-17T00:00:00	2024-11-08T17:00:00	2	Temperatura media	15.9
90430	7	Sololá	701	Sololá	4	Finca Santa Victoria	2	Febrero	2023-02-17T00:00:00	2024-11-08T17:00:00	4	Temperatura máxima	17.6
90431	7	Sololá	701	Sololá	4	Finca Santa Victoria	2	Febrero	2023-02-17T00:00:00	2024-11-08T17:00:00	3	Temperatura mínima	15.9
90432	7	Sololá	701	Sololá	4	Finca Santa Victoria	2	Febrero	2023-02-17T00:00:00	2024-11-08T17:00:00	5	Humedad	63
90433	7	Sololá	701	Sololá	4	Finca Santa Victoria	2	Febrero	2023-02-17T00:00:00	2024-11-08T17:00:00	6	Velocidad del viento	6.4
90434	7	Sololá	701	Sololá	4	Finca Santa Victoria	2	Febrero	2023-02-17T00:00:00	2024-11-08T17:00:00	7	Dirección del viento	6.44
90435	7	Sololá	701	Sololá	4	Finca Santa Victoria	2	Febrero	2023-02-17T00:00:00	2024-11-08T17:00:00	1	Precipitación	0
90436	7	Sololá	701	Sololá	4	Finca Santa Victoria	2	Febrero	2023-02-17T00:00:00	2024-11-08T17:00:00	8	Radiación solar	260
90437	7	Sololá	701	Sololá	4	Finca Santa Victoria	2	Febrero	2023-02-17T00:00:00	2024-11-08T18:00:00	2	Temperatura media	13.5
90438	7	Sololá	701	Sololá	4	Finca Santa Victoria	2	Febrero	2023-02-17T00:00:00	2024-11-08T18:00:00	4	Temperatura máxima	15.9
90439	7	Sololá	701	Sololá	4	Finca Santa Victoria	2	Febrero	2023-02-17T00:00:00	2024-11-08T18:00:00	3	Temperatura mínima	13.5
90440	7	Sololá	701	Sololá	4	Finca Santa Victoria	2	Febrero	2023-02-17T00:00:00	2024-11-08T18:00:00	5	Humedad	71
90441	7	Sololá	701	Sololá	4	Finca Santa Victoria	2	Febrero	2023-02-17T00:00:00	2024-11-08T18:00:00	6	Velocidad del viento	6.4
90442	7	Sololá	701	Sololá	4	Finca Santa Victoria	2	Febrero	2023-02-17T00:00:00	2024-11-08T18:00:00	7	Dirección del viento	6.44
90443	7	Sololá	701	Sololá	4	Finca Santa Victoria	2	Febrero	2023-02-17T00:00:00	2024-11-08T18:00:00	1	Precipitación	0
90444	7	Sololá	701	Sololá	4	Finca Santa Victoria	2	Febrero	2023-02-17T00:00:00	2024-11-08T18:00:00	8	Radiación solar	68
90445	7	Sololá	701	Sololá	4	Finca Santa Victoria	2	Febrero	2023-02-17T00:00:00	2024-11-08T19:00:00	2	Temperatura media	12.1
90446	7	Sololá	701	Sololá	4	Finca Santa Victoria	2	Febrero	2023-02-17T00:00:00	2024-11-08T19:00:00	4	Temperatura máxima	13.6
90447	7	Sololá	701	Sololá	4	Finca Santa Victoria	2	Febrero	2023-02-17T00:00:00	2024-11-08T19:00:00	3	Temperatura mínima	12.1
90448	7	Sololá	701	Sololá	4	Finca Santa Victoria	2	Febrero	2023-02-17T00:00:00	2024-11-08T19:00:00	5	Humedad	76
90449	7	Sololá	701	Sololá	4	Finca Santa Victoria	2	Febrero	2023-02-17T00:00:00	2024-11-08T19:00:00	6	Velocidad del viento	8
90450	7	Sololá	701	Sololá	4	Finca Santa Victoria	2	Febrero	2023-02-17T00:00:00	2024-11-08T19:00:00	7	Dirección del viento	8.05
90451	7	Sololá	701	Sololá	4	Finca Santa Victoria	2	Febrero	2023-02-17T00:00:00	2024-11-08T19:00:00	1	Precipitación	0
90452	7	Sololá	701	Sololá	4	Finca Santa Victoria	2	Febrero	2023-02-17T00:00:00	2024-11-08T19:00:00	8	Radiación solar	0
90453	7	Sololá	701	Sololá	4	Finca Santa Victoria	2	Febrero	2023-02-17T00:00:00	2024-11-08T20:00:00	2	Temperatura media	12.1
90454	7	Sololá	701	Sololá	4	Finca Santa Victoria	2	Febrero	2023-02-17T00:00:00	2024-11-08T20:00:00	4	Temperatura máxima	12.2
90455	7	Sololá	701	Sololá	4	Finca Santa Victoria	2	Febrero	2023-02-17T00:00:00	2024-11-08T20:00:00	3	Temperatura mínima	11.8
90456	7	Sololá	701	Sololá	4	Finca Santa Victoria	2	Febrero	2023-02-17T00:00:00	2024-11-08T20:00:00	5	Humedad	80
90457	7	Sololá	701	Sololá	4	Finca Santa Victoria	2	Febrero	2023-02-17T00:00:00	2024-11-08T20:00:00	6	Velocidad del viento	9.7
90458	7	Sololá	701	Sololá	4	Finca Santa Victoria	2	Febrero	2023-02-17T00:00:00	2024-11-08T20:00:00	7	Dirección del viento	9.66
90459	7	Sololá	701	Sololá	4	Finca Santa Victoria	2	Febrero	2023-02-17T00:00:00	2024-11-08T20:00:00	1	Precipitación	0
90460	7	Sololá	701	Sololá	4	Finca Santa Victoria	2	Febrero	2023-02-17T00:00:00	2024-11-08T20:00:00	8	Radiación solar	0
90461	7	Sololá	701	Sololá	4	Finca Santa Victoria	2	Febrero	2023-02-17T00:00:00	2024-11-08T21:00:00	2	Temperatura media	11.7
90462	7	Sololá	701	Sololá	4	Finca Santa Victoria	2	Febrero	2023-02-17T00:00:00	2024-11-08T21:00:00	4	Temperatura máxima	12.2
90463	7	Sololá	701	Sololá	4	Finca Santa Victoria	2	Febrero	2023-02-17T00:00:00	2024-11-08T21:00:00	3	Temperatura mínima	11.7
90464	7	Sololá	701	Sololá	4	Finca Santa Victoria	2	Febrero	2023-02-17T00:00:00	2024-11-08T21:00:00	5	Humedad	82
90465	7	Sololá	701	Sololá	4	Finca Santa Victoria	2	Febrero	2023-02-17T00:00:00	2024-11-08T21:00:00	6	Velocidad del viento	9.7
90466	7	Sololá	701	Sololá	4	Finca Santa Victoria	2	Febrero	2023-02-17T00:00:00	2024-11-08T21:00:00	7	Dirección del viento	9.66
90467	7	Sololá	701	Sololá	4	Finca Santa Victoria	2	Febrero	2023-02-17T00:00:00	2024-11-08T21:00:00	1	Precipitación	0
90468	7	Sololá	701	Sololá	4	Finca Santa Victoria	2	Febrero	2023-02-17T00:00:00	2024-11-08T21:00:00	8	Radiación solar	0
90469	7	Sololá	701	Sololá	4	Finca Santa Victoria	2	Febrero	2023-02-17T00:00:00	2024-11-08T22:00:00	2	Temperatura media	11.7
90470	7	Sololá	701	Sololá	4	Finca Santa Victoria	2	Febrero	2023-02-17T00:00:00	2024-11-08T22:00:00	4	Temperatura máxima	11.8
90471	7	Sololá	701	Sololá	4	Finca Santa Victoria	2	Febrero	2023-02-17T00:00:00	2024-11-08T22:00:00	3	Temperatura mínima	11.6
90472	7	Sololá	701	Sololá	4	Finca Santa Victoria	2	Febrero	2023-02-17T00:00:00	2024-11-08T22:00:00	5	Humedad	84
90473	7	Sololá	701	Sololá	4	Finca Santa Victoria	2	Febrero	2023-02-17T00:00:00	2024-11-08T22:00:00	6	Velocidad del viento	8
90474	7	Sololá	701	Sololá	4	Finca Santa Victoria	2	Febrero	2023-02-17T00:00:00	2024-11-08T22:00:00	7	Dirección del viento	8.05
90475	7	Sololá	701	Sololá	4	Finca Santa Victoria	2	Febrero	2023-02-17T00:00:00	2024-11-08T22:00:00	1	Precipitación	0
90476	7	Sololá	701	Sololá	4	Finca Santa Victoria	2	Febrero	2023-02-17T00:00:00	2024-11-08T22:00:00	8	Radiación solar	0
90477	7	Sololá	701	Sololá	4	Finca Santa Victoria	2	Febrero	2023-02-17T00:00:00	2024-11-08T23:00:00	2	Temperatura media	11.8
90478	7	Sololá	701	Sololá	4	Finca Santa Victoria	2	Febrero	2023-02-17T00:00:00	2024-11-08T23:00:00	4	Temperatura máxima	11.9
90479	7	Sololá	701	Sololá	4	Finca Santa Victoria	2	Febrero	2023-02-17T00:00:00	2024-11-08T23:00:00	3	Temperatura mínima	11.7
90480	7	Sololá	701	Sololá	4	Finca Santa Victoria	2	Febrero	2023-02-17T00:00:00	2024-11-08T23:00:00	5	Humedad	85
90481	7	Sololá	701	Sololá	4	Finca Santa Victoria	2	Febrero	2023-02-17T00:00:00	2024-11-08T23:00:00	6	Velocidad del viento	8
90482	7	Sololá	701	Sololá	4	Finca Santa Victoria	2	Febrero	2023-02-17T00:00:00	2024-11-08T23:00:00	7	Dirección del viento	8.05
90483	7	Sololá	701	Sololá	4	Finca Santa Victoria	2	Febrero	2023-02-17T00:00:00	2024-11-08T23:00:00	1	Precipitación	0
90484	7	Sololá	701	Sololá	4	Finca Santa Victoria	2	Febrero	2023-02-17T00:00:00	2024-11-08T23:00:00	8	Radiación solar	0
90485	7	Sololá	701	Sololá	4	Finca Santa Victoria	2	Febrero	2023-02-18T00:00:00	2024-11-08T00:00:00	2	Temperatura media	11.8
90486	7	Sololá	701	Sololá	4	Finca Santa Victoria	2	Febrero	2023-02-18T00:00:00	2024-11-08T00:00:00	4	Temperatura máxima	11.9
90487	7	Sololá	701	Sololá	4	Finca Santa Victoria	2	Febrero	2023-02-18T00:00:00	2024-11-08T00:00:00	3	Temperatura mínima	11.7
90488	7	Sololá	701	Sololá	4	Finca Santa Victoria	2	Febrero	2023-02-18T00:00:00	2024-11-08T00:00:00	5	Humedad	87
90489	7	Sololá	701	Sololá	4	Finca Santa Victoria	2	Febrero	2023-02-18T00:00:00	2024-11-08T00:00:00	6	Velocidad del viento	8
90490	7	Sololá	701	Sololá	4	Finca Santa Victoria	2	Febrero	2023-02-18T00:00:00	2024-11-08T00:00:00	7	Dirección del viento	8.05
90491	7	Sololá	701	Sololá	4	Finca Santa Victoria	2	Febrero	2023-02-18T00:00:00	2024-11-08T00:00:00	1	Precipitación	0
90492	7	Sololá	701	Sololá	4	Finca Santa Victoria	2	Febrero	2023-02-18T00:00:00	2024-11-08T00:00:00	8	Radiación solar	0
90493	7	Sololá	701	Sololá	4	Finca Santa Victoria	2	Febrero	2023-02-18T00:00:00	2024-11-08T01:00:00	2	Temperatura media	11.8
90494	7	Sololá	701	Sololá	4	Finca Santa Victoria	2	Febrero	2023-02-18T00:00:00	2024-11-08T01:00:00	4	Temperatura máxima	11.8
90495	7	Sololá	701	Sololá	4	Finca Santa Victoria	2	Febrero	2023-02-18T00:00:00	2024-11-08T01:00:00	3	Temperatura mínima	11.7
90496	7	Sololá	701	Sololá	4	Finca Santa Victoria	2	Febrero	2023-02-18T00:00:00	2024-11-08T01:00:00	5	Humedad	88
90497	7	Sololá	701	Sololá	4	Finca Santa Victoria	2	Febrero	2023-02-18T00:00:00	2024-11-08T01:00:00	6	Velocidad del viento	8
90498	7	Sololá	701	Sololá	4	Finca Santa Victoria	2	Febrero	2023-02-18T00:00:00	2024-11-08T01:00:00	7	Dirección del viento	8.05
90499	7	Sololá	701	Sololá	4	Finca Santa Victoria	2	Febrero	2023-02-18T00:00:00	2024-11-08T01:00:00	1	Precipitación	0
90500	7	Sololá	701	Sololá	4	Finca Santa Victoria	2	Febrero	2023-02-18T00:00:00	2024-11-08T01:00:00	8	Radiación solar	0
90501	7	Sololá	701	Sololá	4	Finca Santa Victoria	2	Febrero	2023-02-18T00:00:00	2024-11-08T02:00:00	2	Temperatura media	11.2
90502	7	Sololá	701	Sololá	4	Finca Santa Victoria	2	Febrero	2023-02-18T00:00:00	2024-11-08T02:00:00	4	Temperatura máxima	11.8
90503	7	Sololá	701	Sololá	4	Finca Santa Victoria	2	Febrero	2023-02-18T00:00:00	2024-11-08T02:00:00	3	Temperatura mínima	11.2
90504	7	Sololá	701	Sololá	4	Finca Santa Victoria	2	Febrero	2023-02-18T00:00:00	2024-11-08T02:00:00	5	Humedad	93
90505	7	Sololá	701	Sololá	4	Finca Santa Victoria	2	Febrero	2023-02-18T00:00:00	2024-11-08T02:00:00	6	Velocidad del viento	8
90506	7	Sololá	701	Sololá	4	Finca Santa Victoria	2	Febrero	2023-02-18T00:00:00	2024-11-08T02:00:00	7	Dirección del viento	8.05
90507	7	Sololá	701	Sololá	4	Finca Santa Victoria	2	Febrero	2023-02-18T00:00:00	2024-11-08T02:00:00	1	Precipitación	0
90508	7	Sololá	701	Sololá	4	Finca Santa Victoria	2	Febrero	2023-02-18T00:00:00	2024-11-08T02:00:00	8	Radiación solar	0
90509	7	Sololá	701	Sololá	4	Finca Santa Victoria	2	Febrero	2023-02-18T00:00:00	2024-11-08T03:00:00	2	Temperatura media	11.1
90510	7	Sololá	701	Sololá	4	Finca Santa Victoria	2	Febrero	2023-02-18T00:00:00	2024-11-08T03:00:00	4	Temperatura máxima	11.3
90511	7	Sololá	701	Sololá	4	Finca Santa Victoria	2	Febrero	2023-02-18T00:00:00	2024-11-08T03:00:00	3	Temperatura mínima	11.1
90512	7	Sololá	701	Sololá	4	Finca Santa Victoria	2	Febrero	2023-02-18T00:00:00	2024-11-08T03:00:00	5	Humedad	86
90513	7	Sololá	701	Sololá	4	Finca Santa Victoria	2	Febrero	2023-02-18T00:00:00	2024-11-08T03:00:00	6	Velocidad del viento	9.7
90514	7	Sololá	701	Sololá	4	Finca Santa Victoria	2	Febrero	2023-02-18T00:00:00	2024-11-08T03:00:00	7	Dirección del viento	9.66
90515	7	Sololá	701	Sololá	4	Finca Santa Victoria	2	Febrero	2023-02-18T00:00:00	2024-11-08T03:00:00	1	Precipitación	0
90516	7	Sololá	701	Sololá	4	Finca Santa Victoria	2	Febrero	2023-02-18T00:00:00	2024-11-08T03:00:00	8	Radiación solar	0
90517	7	Sololá	701	Sololá	4	Finca Santa Victoria	2	Febrero	2023-02-18T00:00:00	2024-11-08T04:00:00	2	Temperatura media	10.3
90518	7	Sololá	701	Sololá	4	Finca Santa Victoria	2	Febrero	2023-02-18T00:00:00	2024-11-08T04:00:00	4	Temperatura máxima	11.1
90519	7	Sololá	701	Sololá	4	Finca Santa Victoria	2	Febrero	2023-02-18T00:00:00	2024-11-08T04:00:00	3	Temperatura mínima	10.3
90520	7	Sololá	701	Sololá	4	Finca Santa Victoria	2	Febrero	2023-02-18T00:00:00	2024-11-08T04:00:00	5	Humedad	85
90521	7	Sololá	701	Sololá	4	Finca Santa Victoria	2	Febrero	2023-02-18T00:00:00	2024-11-08T04:00:00	6	Velocidad del viento	9.7
90522	7	Sololá	701	Sololá	4	Finca Santa Victoria	2	Febrero	2023-02-18T00:00:00	2024-11-08T04:00:00	7	Dirección del viento	9.66
90523	7	Sololá	701	Sololá	4	Finca Santa Victoria	2	Febrero	2023-02-18T00:00:00	2024-11-08T04:00:00	1	Precipitación	0
90524	7	Sololá	701	Sololá	4	Finca Santa Victoria	2	Febrero	2023-02-18T00:00:00	2024-11-08T04:00:00	8	Radiación solar	0
90525	7	Sololá	701	Sololá	4	Finca Santa Victoria	2	Febrero	2023-02-18T00:00:00	2024-11-08T05:00:00	2	Temperatura media	9.9
90526	7	Sololá	701	Sololá	4	Finca Santa Victoria	2	Febrero	2023-02-18T00:00:00	2024-11-08T05:00:00	4	Temperatura máxima	10.3
90527	7	Sololá	701	Sololá	4	Finca Santa Victoria	2	Febrero	2023-02-18T00:00:00	2024-11-08T05:00:00	3	Temperatura mínima	9.9
90528	7	Sololá	701	Sololá	4	Finca Santa Victoria	2	Febrero	2023-02-18T00:00:00	2024-11-08T05:00:00	5	Humedad	84
90529	7	Sololá	701	Sololá	4	Finca Santa Victoria	2	Febrero	2023-02-18T00:00:00	2024-11-08T05:00:00	6	Velocidad del viento	9.7
90530	7	Sololá	701	Sololá	4	Finca Santa Victoria	2	Febrero	2023-02-18T00:00:00	2024-11-08T05:00:00	7	Dirección del viento	9.66
90531	7	Sololá	701	Sololá	4	Finca Santa Victoria	2	Febrero	2023-02-18T00:00:00	2024-11-08T05:00:00	1	Precipitación	0
90532	7	Sololá	701	Sololá	4	Finca Santa Victoria	2	Febrero	2023-02-18T00:00:00	2024-11-08T05:00:00	8	Radiación solar	0
90533	7	Sololá	701	Sololá	4	Finca Santa Victoria	2	Febrero	2023-02-18T00:00:00	2024-11-08T06:00:00	2	Temperatura media	9.7
90534	7	Sololá	701	Sololá	4	Finca Santa Victoria	2	Febrero	2023-02-18T00:00:00	2024-11-08T06:00:00	4	Temperatura máxima	10
90535	7	Sololá	701	Sololá	4	Finca Santa Victoria	2	Febrero	2023-02-18T00:00:00	2024-11-08T06:00:00	3	Temperatura mínima	9.6
90536	7	Sololá	701	Sololá	4	Finca Santa Victoria	2	Febrero	2023-02-18T00:00:00	2024-11-08T06:00:00	5	Humedad	86
90537	7	Sololá	701	Sololá	4	Finca Santa Victoria	2	Febrero	2023-02-18T00:00:00	2024-11-08T06:00:00	6	Velocidad del viento	9.7
90538	7	Sololá	701	Sololá	4	Finca Santa Victoria	2	Febrero	2023-02-18T00:00:00	2024-11-08T06:00:00	7	Dirección del viento	9.66
90539	7	Sololá	701	Sololá	4	Finca Santa Victoria	2	Febrero	2023-02-18T00:00:00	2024-11-08T06:00:00	1	Precipitación	0
90540	7	Sololá	701	Sololá	4	Finca Santa Victoria	2	Febrero	2023-02-18T00:00:00	2024-11-08T06:00:00	8	Radiación solar	0
90541	7	Sololá	701	Sololá	4	Finca Santa Victoria	2	Febrero	2023-02-18T00:00:00	2024-11-08T07:00:00	2	Temperatura media	9.6
90542	7	Sololá	701	Sololá	4	Finca Santa Victoria	2	Febrero	2023-02-18T00:00:00	2024-11-08T07:00:00	4	Temperatura máxima	9.7
90543	7	Sololá	701	Sololá	4	Finca Santa Victoria	2	Febrero	2023-02-18T00:00:00	2024-11-08T07:00:00	3	Temperatura mínima	9.4
90544	7	Sololá	701	Sololá	4	Finca Santa Victoria	2	Febrero	2023-02-18T00:00:00	2024-11-08T07:00:00	5	Humedad	86
90545	7	Sololá	701	Sololá	4	Finca Santa Victoria	2	Febrero	2023-02-18T00:00:00	2024-11-08T07:00:00	6	Velocidad del viento	9.7
90546	7	Sololá	701	Sololá	4	Finca Santa Victoria	2	Febrero	2023-02-18T00:00:00	2024-11-08T07:00:00	7	Dirección del viento	9.66
90547	7	Sololá	701	Sololá	4	Finca Santa Victoria	2	Febrero	2023-02-18T00:00:00	2024-11-08T07:00:00	1	Precipitación	0
90548	7	Sololá	701	Sololá	4	Finca Santa Victoria	2	Febrero	2023-02-18T00:00:00	2024-11-08T07:00:00	8	Radiación solar	5
90549	7	Sololá	701	Sololá	4	Finca Santa Victoria	2	Febrero	2023-02-18T00:00:00	2024-11-08T08:00:00	2	Temperatura media	10.5
90550	7	Sololá	701	Sololá	4	Finca Santa Victoria	2	Febrero	2023-02-18T00:00:00	2024-11-08T08:00:00	4	Temperatura máxima	10.5
90551	7	Sololá	701	Sololá	4	Finca Santa Victoria	2	Febrero	2023-02-18T00:00:00	2024-11-08T08:00:00	3	Temperatura mínima	9.6
90552	7	Sololá	701	Sololá	4	Finca Santa Victoria	2	Febrero	2023-02-18T00:00:00	2024-11-08T08:00:00	5	Humedad	81
90553	7	Sololá	701	Sololá	4	Finca Santa Victoria	2	Febrero	2023-02-18T00:00:00	2024-11-08T08:00:00	6	Velocidad del viento	8
90554	7	Sololá	701	Sololá	4	Finca Santa Victoria	2	Febrero	2023-02-18T00:00:00	2024-11-08T08:00:00	7	Dirección del viento	8.05
90555	7	Sololá	701	Sololá	4	Finca Santa Victoria	2	Febrero	2023-02-18T00:00:00	2024-11-08T08:00:00	1	Precipitación	0
90556	7	Sololá	701	Sololá	4	Finca Santa Victoria	2	Febrero	2023-02-18T00:00:00	2024-11-08T08:00:00	8	Radiación solar	46
90557	7	Sololá	701	Sololá	4	Finca Santa Victoria	2	Febrero	2023-02-18T00:00:00	2024-11-08T09:00:00	2	Temperatura media	11.8
90558	7	Sololá	701	Sololá	4	Finca Santa Victoria	2	Febrero	2023-02-18T00:00:00	2024-11-08T09:00:00	4	Temperatura máxima	11.8
90559	7	Sololá	701	Sololá	4	Finca Santa Victoria	2	Febrero	2023-02-18T00:00:00	2024-11-08T09:00:00	3	Temperatura mínima	10.5
90560	7	Sololá	701	Sololá	4	Finca Santa Victoria	2	Febrero	2023-02-18T00:00:00	2024-11-08T09:00:00	5	Humedad	78
90561	7	Sololá	701	Sololá	4	Finca Santa Victoria	2	Febrero	2023-02-18T00:00:00	2024-11-08T09:00:00	6	Velocidad del viento	9.7
90562	7	Sololá	701	Sololá	4	Finca Santa Victoria	2	Febrero	2023-02-18T00:00:00	2024-11-08T09:00:00	7	Dirección del viento	9.66
90563	7	Sololá	701	Sololá	4	Finca Santa Victoria	2	Febrero	2023-02-18T00:00:00	2024-11-08T09:00:00	1	Precipitación	0
90564	7	Sololá	701	Sololá	4	Finca Santa Victoria	2	Febrero	2023-02-18T00:00:00	2024-11-08T09:00:00	8	Radiación solar	102
90565	7	Sololá	701	Sololá	4	Finca Santa Victoria	2	Febrero	2023-02-18T00:00:00	2024-11-08T10:00:00	2	Temperatura media	13.2
90566	7	Sololá	701	Sololá	4	Finca Santa Victoria	2	Febrero	2023-02-18T00:00:00	2024-11-08T10:00:00	4	Temperatura máxima	13.2
90567	7	Sololá	701	Sololá	4	Finca Santa Victoria	2	Febrero	2023-02-18T00:00:00	2024-11-08T10:00:00	3	Temperatura mínima	11.8
90568	7	Sololá	701	Sololá	4	Finca Santa Victoria	2	Febrero	2023-02-18T00:00:00	2024-11-08T10:00:00	5	Humedad	76
90569	7	Sololá	701	Sololá	4	Finca Santa Victoria	2	Febrero	2023-02-18T00:00:00	2024-11-08T10:00:00	6	Velocidad del viento	9.7
90570	7	Sololá	701	Sololá	4	Finca Santa Victoria	2	Febrero	2023-02-18T00:00:00	2024-11-08T10:00:00	7	Dirección del viento	9.66
90571	7	Sololá	701	Sololá	4	Finca Santa Victoria	2	Febrero	2023-02-18T00:00:00	2024-11-08T10:00:00	1	Precipitación	0
90572	7	Sololá	701	Sololá	4	Finca Santa Victoria	2	Febrero	2023-02-18T00:00:00	2024-11-08T10:00:00	8	Radiación solar	701
90573	7	Sololá	701	Sololá	4	Finca Santa Victoria	2	Febrero	2023-02-18T00:00:00	2024-11-08T11:00:00	2	Temperatura media	13.9
90574	7	Sololá	701	Sololá	4	Finca Santa Victoria	2	Febrero	2023-02-18T00:00:00	2024-11-08T11:00:00	4	Temperatura máxima	14.2
90575	7	Sololá	701	Sololá	4	Finca Santa Victoria	2	Febrero	2023-02-18T00:00:00	2024-11-08T11:00:00	3	Temperatura mínima	13.2
90576	7	Sololá	701	Sololá	4	Finca Santa Victoria	2	Febrero	2023-02-18T00:00:00	2024-11-08T11:00:00	5	Humedad	75
90577	7	Sololá	701	Sololá	4	Finca Santa Victoria	2	Febrero	2023-02-18T00:00:00	2024-11-08T11:00:00	6	Velocidad del viento	9.7
90578	7	Sololá	701	Sololá	4	Finca Santa Victoria	2	Febrero	2023-02-18T00:00:00	2024-11-08T11:00:00	7	Dirección del viento	9.66
90579	7	Sololá	701	Sololá	4	Finca Santa Victoria	2	Febrero	2023-02-18T00:00:00	2024-11-08T11:00:00	1	Precipitación	0
90580	7	Sololá	701	Sololá	4	Finca Santa Victoria	2	Febrero	2023-02-18T00:00:00	2024-11-08T11:00:00	8	Radiación solar	880
90581	7	Sololá	701	Sololá	4	Finca Santa Victoria	2	Febrero	2023-02-18T00:00:00	2024-11-08T12:00:00	2	Temperatura media	15.1
90582	7	Sololá	701	Sololá	4	Finca Santa Victoria	2	Febrero	2023-02-18T00:00:00	2024-11-08T12:00:00	4	Temperatura máxima	15.4
90583	7	Sololá	701	Sololá	4	Finca Santa Victoria	2	Febrero	2023-02-18T00:00:00	2024-11-08T12:00:00	3	Temperatura mínima	13.9
90584	7	Sololá	701	Sololá	4	Finca Santa Victoria	2	Febrero	2023-02-18T00:00:00	2024-11-08T12:00:00	5	Humedad	74
90585	7	Sololá	701	Sololá	4	Finca Santa Victoria	2	Febrero	2023-02-18T00:00:00	2024-11-08T12:00:00	6	Velocidad del viento	9.7
90586	7	Sololá	701	Sololá	4	Finca Santa Victoria	2	Febrero	2023-02-18T00:00:00	2024-11-08T12:00:00	7	Dirección del viento	9.66
90587	7	Sololá	701	Sololá	4	Finca Santa Victoria	2	Febrero	2023-02-18T00:00:00	2024-11-08T12:00:00	1	Precipitación	0
90588	7	Sololá	701	Sololá	4	Finca Santa Victoria	2	Febrero	2023-02-18T00:00:00	2024-11-08T12:00:00	8	Radiación solar	958
90589	7	Sololá	701	Sololá	4	Finca Santa Victoria	2	Febrero	2023-02-18T00:00:00	2024-11-08T13:00:00	2	Temperatura media	13.9
90590	7	Sololá	701	Sololá	4	Finca Santa Victoria	2	Febrero	2023-02-18T00:00:00	2024-11-08T13:00:00	4	Temperatura máxima	15.4
90591	7	Sololá	701	Sololá	4	Finca Santa Victoria	2	Febrero	2023-02-18T00:00:00	2024-11-08T13:00:00	3	Temperatura mínima	13.8
90592	7	Sololá	701	Sololá	4	Finca Santa Victoria	2	Febrero	2023-02-18T00:00:00	2024-11-08T13:00:00	5	Humedad	77
90593	7	Sololá	701	Sololá	4	Finca Santa Victoria	2	Febrero	2023-02-18T00:00:00	2024-11-08T13:00:00	6	Velocidad del viento	8
90594	7	Sololá	701	Sololá	4	Finca Santa Victoria	2	Febrero	2023-02-18T00:00:00	2024-11-08T13:00:00	7	Dirección del viento	8.05
90595	7	Sololá	701	Sololá	4	Finca Santa Victoria	2	Febrero	2023-02-18T00:00:00	2024-11-08T13:00:00	1	Precipitación	0
90596	7	Sololá	701	Sololá	4	Finca Santa Victoria	2	Febrero	2023-02-18T00:00:00	2024-11-08T13:00:00	8	Radiación solar	447
90597	7	Sololá	701	Sololá	4	Finca Santa Victoria	2	Febrero	2023-02-18T00:00:00	2024-11-08T14:00:00	2	Temperatura media	13.4
90598	7	Sololá	701	Sololá	4	Finca Santa Victoria	2	Febrero	2023-02-18T00:00:00	2024-11-08T14:00:00	4	Temperatura máxima	14.8
90599	7	Sololá	701	Sololá	4	Finca Santa Victoria	2	Febrero	2023-02-18T00:00:00	2024-11-08T14:00:00	3	Temperatura mínima	13.3
90600	7	Sololá	701	Sololá	4	Finca Santa Victoria	2	Febrero	2023-02-18T00:00:00	2024-11-08T14:00:00	5	Humedad	80
90601	7	Sololá	701	Sololá	4	Finca Santa Victoria	2	Febrero	2023-02-18T00:00:00	2024-11-08T14:00:00	6	Velocidad del viento	6.4
90602	7	Sololá	701	Sololá	4	Finca Santa Victoria	2	Febrero	2023-02-18T00:00:00	2024-11-08T14:00:00	7	Dirección del viento	6.44
90603	7	Sololá	701	Sololá	4	Finca Santa Victoria	2	Febrero	2023-02-18T00:00:00	2024-11-08T14:00:00	1	Precipitación	0
90604	7	Sololá	701	Sololá	4	Finca Santa Victoria	2	Febrero	2023-02-18T00:00:00	2024-11-08T14:00:00	8	Radiación solar	219
90605	7	Sololá	701	Sololá	4	Finca Santa Victoria	2	Febrero	2023-02-18T00:00:00	2024-11-08T15:00:00	2	Temperatura media	13.4
90606	7	Sololá	701	Sololá	4	Finca Santa Victoria	2	Febrero	2023-02-18T00:00:00	2024-11-08T15:00:00	4	Temperatura máxima	13.4
90607	7	Sololá	701	Sololá	4	Finca Santa Victoria	2	Febrero	2023-02-18T00:00:00	2024-11-08T15:00:00	3	Temperatura mínima	12.8
90608	7	Sololá	701	Sololá	4	Finca Santa Victoria	2	Febrero	2023-02-18T00:00:00	2024-11-08T15:00:00	5	Humedad	81
90609	7	Sololá	701	Sololá	4	Finca Santa Victoria	2	Febrero	2023-02-18T00:00:00	2024-11-08T15:00:00	6	Velocidad del viento	4.8
90610	7	Sololá	701	Sololá	4	Finca Santa Victoria	2	Febrero	2023-02-18T00:00:00	2024-11-08T15:00:00	7	Dirección del viento	4.83
90611	7	Sololá	701	Sololá	4	Finca Santa Victoria	2	Febrero	2023-02-18T00:00:00	2024-11-08T15:00:00	1	Precipitación	0
90612	7	Sololá	701	Sololá	4	Finca Santa Victoria	2	Febrero	2023-02-18T00:00:00	2024-11-08T15:00:00	8	Radiación solar	194
90613	7	Sololá	701	Sololá	4	Finca Santa Victoria	2	Febrero	2023-02-18T00:00:00	2024-11-08T16:00:00	2	Temperatura media	13
90614	7	Sololá	701	Sololá	4	Finca Santa Victoria	2	Febrero	2023-02-18T00:00:00	2024-11-08T16:00:00	4	Temperatura máxima	13.9
90615	7	Sololá	701	Sololá	4	Finca Santa Victoria	2	Febrero	2023-02-18T00:00:00	2024-11-08T16:00:00	3	Temperatura mínima	12.8
90616	7	Sololá	701	Sololá	4	Finca Santa Victoria	2	Febrero	2023-02-18T00:00:00	2024-11-08T16:00:00	5	Humedad	81
90617	7	Sololá	701	Sololá	4	Finca Santa Victoria	2	Febrero	2023-02-18T00:00:00	2024-11-08T16:00:00	6	Velocidad del viento	4.8
90618	7	Sololá	701	Sololá	4	Finca Santa Victoria	2	Febrero	2023-02-18T00:00:00	2024-11-08T16:00:00	7	Dirección del viento	4.83
90619	7	Sololá	701	Sololá	4	Finca Santa Victoria	2	Febrero	2023-02-18T00:00:00	2024-11-08T16:00:00	1	Precipitación	0
90620	7	Sololá	701	Sololá	4	Finca Santa Victoria	2	Febrero	2023-02-18T00:00:00	2024-11-08T16:00:00	8	Radiación solar	165
90621	7	Sololá	701	Sololá	4	Finca Santa Victoria	2	Febrero	2023-02-18T00:00:00	2024-11-08T17:00:00	2	Temperatura media	14.6
90622	7	Sololá	701	Sololá	4	Finca Santa Victoria	2	Febrero	2023-02-18T00:00:00	2024-11-08T17:00:00	4	Temperatura máxima	14.6
90623	7	Sololá	701	Sololá	4	Finca Santa Victoria	2	Febrero	2023-02-18T00:00:00	2024-11-08T17:00:00	3	Temperatura mínima	12.7
90624	7	Sololá	701	Sololá	4	Finca Santa Victoria	2	Febrero	2023-02-18T00:00:00	2024-11-08T17:00:00	5	Humedad	73
90625	7	Sololá	701	Sololá	4	Finca Santa Victoria	2	Febrero	2023-02-18T00:00:00	2024-11-08T17:00:00	6	Velocidad del viento	4.8
90626	7	Sololá	701	Sololá	4	Finca Santa Victoria	2	Febrero	2023-02-18T00:00:00	2024-11-08T17:00:00	7	Dirección del viento	4.83
90627	7	Sololá	701	Sololá	4	Finca Santa Victoria	2	Febrero	2023-02-18T00:00:00	2024-11-08T17:00:00	1	Precipitación	0
90628	7	Sololá	701	Sololá	4	Finca Santa Victoria	2	Febrero	2023-02-18T00:00:00	2024-11-08T17:00:00	8	Radiación solar	187
90629	7	Sololá	701	Sololá	4	Finca Santa Victoria	2	Febrero	2023-02-18T00:00:00	2024-11-08T18:00:00	2	Temperatura media	11.9
90630	7	Sololá	701	Sololá	4	Finca Santa Victoria	2	Febrero	2023-02-18T00:00:00	2024-11-08T18:00:00	4	Temperatura máxima	14.6
90631	7	Sololá	701	Sololá	4	Finca Santa Victoria	2	Febrero	2023-02-18T00:00:00	2024-11-08T18:00:00	3	Temperatura mínima	11.9
90632	7	Sololá	701	Sololá	4	Finca Santa Victoria	2	Febrero	2023-02-18T00:00:00	2024-11-08T18:00:00	5	Humedad	79
90633	7	Sololá	701	Sololá	4	Finca Santa Victoria	2	Febrero	2023-02-18T00:00:00	2024-11-08T18:00:00	6	Velocidad del viento	6.4
90634	7	Sololá	701	Sololá	4	Finca Santa Victoria	2	Febrero	2023-02-18T00:00:00	2024-11-08T18:00:00	7	Dirección del viento	6.44
90635	7	Sololá	701	Sololá	4	Finca Santa Victoria	2	Febrero	2023-02-18T00:00:00	2024-11-08T18:00:00	1	Precipitación	0
90636	7	Sololá	701	Sololá	4	Finca Santa Victoria	2	Febrero	2023-02-18T00:00:00	2024-11-08T18:00:00	8	Radiación solar	114
90637	7	Sololá	701	Sololá	4	Finca Santa Victoria	2	Febrero	2023-02-18T00:00:00	2024-11-08T19:00:00	2	Temperatura media	10.7
90638	7	Sololá	701	Sololá	4	Finca Santa Victoria	2	Febrero	2023-02-18T00:00:00	2024-11-08T19:00:00	4	Temperatura máxima	11.9
90639	7	Sololá	701	Sololá	4	Finca Santa Victoria	2	Febrero	2023-02-18T00:00:00	2024-11-08T19:00:00	3	Temperatura mínima	10.7
90640	7	Sololá	701	Sololá	4	Finca Santa Victoria	2	Febrero	2023-02-18T00:00:00	2024-11-08T19:00:00	5	Humedad	81
90641	7	Sololá	701	Sololá	4	Finca Santa Victoria	2	Febrero	2023-02-18T00:00:00	2024-11-08T19:00:00	6	Velocidad del viento	6.4
90642	7	Sololá	701	Sololá	4	Finca Santa Victoria	2	Febrero	2023-02-18T00:00:00	2024-11-08T19:00:00	7	Dirección del viento	6.44
90643	7	Sololá	701	Sololá	4	Finca Santa Victoria	2	Febrero	2023-02-18T00:00:00	2024-11-08T19:00:00	1	Precipitación	0
90644	7	Sololá	701	Sololá	4	Finca Santa Victoria	2	Febrero	2023-02-18T00:00:00	2024-11-08T19:00:00	8	Radiación solar	0
90645	7	Sololá	701	Sololá	4	Finca Santa Victoria	2	Febrero	2023-02-18T00:00:00	2024-11-08T20:00:00	2	Temperatura media	10.3
90646	7	Sololá	701	Sololá	4	Finca Santa Victoria	2	Febrero	2023-02-18T00:00:00	2024-11-08T20:00:00	4	Temperatura máxima	10.8
90647	7	Sololá	701	Sololá	4	Finca Santa Victoria	2	Febrero	2023-02-18T00:00:00	2024-11-08T20:00:00	3	Temperatura mínima	10.3
90648	7	Sololá	701	Sololá	4	Finca Santa Victoria	2	Febrero	2023-02-18T00:00:00	2024-11-08T20:00:00	5	Humedad	84
90649	7	Sololá	701	Sololá	4	Finca Santa Victoria	2	Febrero	2023-02-18T00:00:00	2024-11-08T20:00:00	6	Velocidad del viento	8
90650	7	Sololá	701	Sololá	4	Finca Santa Victoria	2	Febrero	2023-02-18T00:00:00	2024-11-08T20:00:00	7	Dirección del viento	8.05
90651	7	Sololá	701	Sololá	4	Finca Santa Victoria	2	Febrero	2023-02-18T00:00:00	2024-11-08T20:00:00	1	Precipitación	0
90652	7	Sololá	701	Sololá	4	Finca Santa Victoria	2	Febrero	2023-02-18T00:00:00	2024-11-08T20:00:00	8	Radiación solar	0
90653	7	Sololá	701	Sololá	4	Finca Santa Victoria	2	Febrero	2023-02-18T00:00:00	2024-11-08T21:00:00	2	Temperatura media	10.2
90654	7	Sololá	701	Sololá	4	Finca Santa Victoria	2	Febrero	2023-02-18T00:00:00	2024-11-08T21:00:00	4	Temperatura máxima	10.3
90655	7	Sololá	701	Sololá	4	Finca Santa Victoria	2	Febrero	2023-02-18T00:00:00	2024-11-08T21:00:00	3	Temperatura mínima	10.1
90656	7	Sololá	701	Sololá	4	Finca Santa Victoria	2	Febrero	2023-02-18T00:00:00	2024-11-08T21:00:00	5	Humedad	88
90657	7	Sololá	701	Sololá	4	Finca Santa Victoria	2	Febrero	2023-02-18T00:00:00	2024-11-08T21:00:00	6	Velocidad del viento	8
90658	7	Sololá	701	Sololá	4	Finca Santa Victoria	2	Febrero	2023-02-18T00:00:00	2024-11-08T21:00:00	7	Dirección del viento	8.05
90659	7	Sololá	701	Sololá	4	Finca Santa Victoria	2	Febrero	2023-02-18T00:00:00	2024-11-08T21:00:00	1	Precipitación	0
90660	7	Sololá	701	Sololá	4	Finca Santa Victoria	2	Febrero	2023-02-18T00:00:00	2024-11-08T21:00:00	8	Radiación solar	0
90661	7	Sololá	701	Sololá	4	Finca Santa Victoria	2	Febrero	2023-02-18T00:00:00	2024-11-08T22:00:00	2	Temperatura media	10
90662	7	Sololá	701	Sololá	4	Finca Santa Victoria	2	Febrero	2023-02-18T00:00:00	2024-11-08T22:00:00	4	Temperatura máxima	10.3
90663	7	Sololá	701	Sololá	4	Finca Santa Victoria	2	Febrero	2023-02-18T00:00:00	2024-11-08T22:00:00	3	Temperatura mínima	9.9
90664	7	Sololá	701	Sololá	4	Finca Santa Victoria	2	Febrero	2023-02-18T00:00:00	2024-11-08T22:00:00	5	Humedad	89
90665	7	Sololá	701	Sololá	4	Finca Santa Victoria	2	Febrero	2023-02-18T00:00:00	2024-11-08T22:00:00	6	Velocidad del viento	8
90666	7	Sololá	701	Sololá	4	Finca Santa Victoria	2	Febrero	2023-02-18T00:00:00	2024-11-08T22:00:00	7	Dirección del viento	8.05
90667	7	Sololá	701	Sololá	4	Finca Santa Victoria	2	Febrero	2023-02-18T00:00:00	2024-11-08T22:00:00	1	Precipitación	0
90668	7	Sololá	701	Sololá	4	Finca Santa Victoria	2	Febrero	2023-02-18T00:00:00	2024-11-08T22:00:00	8	Radiación solar	0
90669	7	Sololá	701	Sololá	4	Finca Santa Victoria	2	Febrero	2023-02-18T00:00:00	2024-11-08T23:00:00	2	Temperatura media	10.2
90670	7	Sololá	701	Sololá	4	Finca Santa Victoria	2	Febrero	2023-02-18T00:00:00	2024-11-08T23:00:00	4	Temperatura máxima	10.3
90671	7	Sololá	701	Sololá	4	Finca Santa Victoria	2	Febrero	2023-02-18T00:00:00	2024-11-08T23:00:00	3	Temperatura mínima	9.9
90672	7	Sololá	701	Sololá	4	Finca Santa Victoria	2	Febrero	2023-02-18T00:00:00	2024-11-08T23:00:00	5	Humedad	91
90673	7	Sololá	701	Sololá	4	Finca Santa Victoria	2	Febrero	2023-02-18T00:00:00	2024-11-08T23:00:00	6	Velocidad del viento	8
90674	7	Sololá	701	Sololá	4	Finca Santa Victoria	2	Febrero	2023-02-18T00:00:00	2024-11-08T23:00:00	7	Dirección del viento	8.05
90675	7	Sololá	701	Sololá	4	Finca Santa Victoria	2	Febrero	2023-02-18T00:00:00	2024-11-08T23:00:00	1	Precipitación	0
90676	7	Sololá	701	Sololá	4	Finca Santa Victoria	2	Febrero	2023-02-18T00:00:00	2024-11-08T23:00:00	8	Radiación solar	0
90677	7	Sololá	701	Sololá	4	Finca Santa Victoria	2	Febrero	2023-02-19T00:00:00	2024-11-08T00:00:00	2	Temperatura media	10.1
90678	7	Sololá	701	Sololá	4	Finca Santa Victoria	2	Febrero	2023-02-19T00:00:00	2024-11-08T00:00:00	4	Temperatura máxima	10.3
90679	7	Sololá	701	Sololá	4	Finca Santa Victoria	2	Febrero	2023-02-19T00:00:00	2024-11-08T00:00:00	3	Temperatura mínima	10.1
90680	7	Sololá	701	Sololá	4	Finca Santa Victoria	2	Febrero	2023-02-19T00:00:00	2024-11-08T00:00:00	5	Humedad	91
90681	7	Sololá	701	Sololá	4	Finca Santa Victoria	2	Febrero	2023-02-19T00:00:00	2024-11-08T00:00:00	6	Velocidad del viento	8
90682	7	Sololá	701	Sololá	4	Finca Santa Victoria	2	Febrero	2023-02-19T00:00:00	2024-11-08T00:00:00	7	Dirección del viento	8.05
90683	7	Sololá	701	Sololá	4	Finca Santa Victoria	2	Febrero	2023-02-19T00:00:00	2024-11-08T00:00:00	1	Precipitación	0
90684	7	Sololá	701	Sololá	4	Finca Santa Victoria	2	Febrero	2023-02-19T00:00:00	2024-11-08T00:00:00	8	Radiación solar	0
90685	7	Sololá	701	Sololá	4	Finca Santa Victoria	2	Febrero	2023-02-19T00:00:00	2024-11-08T01:00:00	2	Temperatura media	9.9
90686	7	Sololá	701	Sololá	4	Finca Santa Victoria	2	Febrero	2023-02-19T00:00:00	2024-11-08T01:00:00	4	Temperatura máxima	10.4
90687	7	Sololá	701	Sololá	4	Finca Santa Victoria	2	Febrero	2023-02-19T00:00:00	2024-11-08T01:00:00	3	Temperatura mínima	9.8
90688	7	Sololá	701	Sololá	4	Finca Santa Victoria	2	Febrero	2023-02-19T00:00:00	2024-11-08T01:00:00	5	Humedad	93
90689	7	Sololá	701	Sololá	4	Finca Santa Victoria	2	Febrero	2023-02-19T00:00:00	2024-11-08T01:00:00	6	Velocidad del viento	6.4
90690	7	Sololá	701	Sololá	4	Finca Santa Victoria	2	Febrero	2023-02-19T00:00:00	2024-11-08T01:00:00	7	Dirección del viento	6.44
90691	7	Sololá	701	Sololá	4	Finca Santa Victoria	2	Febrero	2023-02-19T00:00:00	2024-11-08T01:00:00	1	Precipitación	0
90692	7	Sololá	701	Sololá	4	Finca Santa Victoria	2	Febrero	2023-02-19T00:00:00	2024-11-08T01:00:00	8	Radiación solar	0
90693	7	Sololá	701	Sololá	4	Finca Santa Victoria	2	Febrero	2023-02-19T00:00:00	2024-11-08T02:00:00	2	Temperatura media	9.6
90694	7	Sololá	701	Sololá	4	Finca Santa Victoria	2	Febrero	2023-02-19T00:00:00	2024-11-08T02:00:00	4	Temperatura máxima	9.9
90695	7	Sololá	701	Sololá	4	Finca Santa Victoria	2	Febrero	2023-02-19T00:00:00	2024-11-08T02:00:00	3	Temperatura mínima	9.6
90696	7	Sololá	701	Sololá	4	Finca Santa Victoria	2	Febrero	2023-02-19T00:00:00	2024-11-08T02:00:00	5	Humedad	93
90697	7	Sololá	701	Sololá	4	Finca Santa Victoria	2	Febrero	2023-02-19T00:00:00	2024-11-08T02:00:00	6	Velocidad del viento	6.4
90698	7	Sololá	701	Sololá	4	Finca Santa Victoria	2	Febrero	2023-02-19T00:00:00	2024-11-08T02:00:00	7	Dirección del viento	6.44
90699	7	Sololá	701	Sololá	4	Finca Santa Victoria	2	Febrero	2023-02-19T00:00:00	2024-11-08T02:00:00	1	Precipitación	0
90700	7	Sololá	701	Sololá	4	Finca Santa Victoria	2	Febrero	2023-02-19T00:00:00	2024-11-08T02:00:00	8	Radiación solar	0
90701	7	Sololá	701	Sololá	4	Finca Santa Victoria	2	Febrero	2023-02-19T00:00:00	2024-11-08T03:00:00	2	Temperatura media	9.7
90702	7	Sololá	701	Sololá	4	Finca Santa Victoria	2	Febrero	2023-02-19T00:00:00	2024-11-08T03:00:00	4	Temperatura máxima	9.8
90703	7	Sololá	701	Sololá	4	Finca Santa Victoria	2	Febrero	2023-02-19T00:00:00	2024-11-08T03:00:00	3	Temperatura mínima	9.6
90704	7	Sololá	701	Sololá	4	Finca Santa Victoria	2	Febrero	2023-02-19T00:00:00	2024-11-08T03:00:00	5	Humedad	92
90705	7	Sololá	701	Sololá	4	Finca Santa Victoria	2	Febrero	2023-02-19T00:00:00	2024-11-08T03:00:00	6	Velocidad del viento	8
90706	7	Sololá	701	Sololá	4	Finca Santa Victoria	2	Febrero	2023-02-19T00:00:00	2024-11-08T03:00:00	7	Dirección del viento	8.05
90707	7	Sololá	701	Sololá	4	Finca Santa Victoria	2	Febrero	2023-02-19T00:00:00	2024-11-08T03:00:00	1	Precipitación	0
90708	7	Sololá	701	Sololá	4	Finca Santa Victoria	2	Febrero	2023-02-19T00:00:00	2024-11-08T03:00:00	8	Radiación solar	0
90709	7	Sololá	701	Sololá	4	Finca Santa Victoria	2	Febrero	2023-02-19T00:00:00	2024-11-08T04:00:00	2	Temperatura media	9.5
90710	7	Sololá	701	Sololá	4	Finca Santa Victoria	2	Febrero	2023-02-19T00:00:00	2024-11-08T04:00:00	4	Temperatura máxima	9.7
90711	7	Sololá	701	Sololá	4	Finca Santa Victoria	2	Febrero	2023-02-19T00:00:00	2024-11-08T04:00:00	3	Temperatura mínima	9.4
90712	7	Sololá	701	Sololá	4	Finca Santa Victoria	2	Febrero	2023-02-19T00:00:00	2024-11-08T04:00:00	5	Humedad	94
90713	7	Sololá	701	Sololá	4	Finca Santa Victoria	2	Febrero	2023-02-19T00:00:00	2024-11-08T04:00:00	6	Velocidad del viento	6.4
90714	7	Sololá	701	Sololá	4	Finca Santa Victoria	2	Febrero	2023-02-19T00:00:00	2024-11-08T04:00:00	7	Dirección del viento	6.44
90715	7	Sololá	701	Sololá	4	Finca Santa Victoria	2	Febrero	2023-02-19T00:00:00	2024-11-08T04:00:00	1	Precipitación	0
90716	7	Sololá	701	Sololá	4	Finca Santa Victoria	2	Febrero	2023-02-19T00:00:00	2024-11-08T04:00:00	8	Radiación solar	0
90717	7	Sololá	701	Sololá	4	Finca Santa Victoria	2	Febrero	2023-02-19T00:00:00	2024-11-08T05:00:00	2	Temperatura media	9.2
90718	7	Sololá	701	Sololá	4	Finca Santa Victoria	2	Febrero	2023-02-19T00:00:00	2024-11-08T05:00:00	4	Temperatura máxima	9.6
90719	7	Sololá	701	Sololá	4	Finca Santa Victoria	2	Febrero	2023-02-19T00:00:00	2024-11-08T05:00:00	3	Temperatura mínima	9.2
90720	7	Sololá	701	Sololá	4	Finca Santa Victoria	2	Febrero	2023-02-19T00:00:00	2024-11-08T05:00:00	5	Humedad	96
90721	7	Sololá	701	Sololá	4	Finca Santa Victoria	2	Febrero	2023-02-19T00:00:00	2024-11-08T05:00:00	6	Velocidad del viento	8
90722	7	Sololá	701	Sololá	4	Finca Santa Victoria	2	Febrero	2023-02-19T00:00:00	2024-11-08T05:00:00	7	Dirección del viento	8.05
90723	7	Sololá	701	Sololá	4	Finca Santa Victoria	2	Febrero	2023-02-19T00:00:00	2024-11-08T05:00:00	1	Precipitación	0
90724	7	Sololá	701	Sololá	4	Finca Santa Victoria	2	Febrero	2023-02-19T00:00:00	2024-11-08T05:00:00	8	Radiación solar	0
90725	7	Sololá	701	Sololá	4	Finca Santa Victoria	2	Febrero	2023-02-19T00:00:00	2024-11-08T06:00:00	2	Temperatura media	9.3
90726	7	Sololá	701	Sololá	4	Finca Santa Victoria	2	Febrero	2023-02-19T00:00:00	2024-11-08T06:00:00	4	Temperatura máxima	9.3
90727	7	Sololá	701	Sololá	4	Finca Santa Victoria	2	Febrero	2023-02-19T00:00:00	2024-11-08T06:00:00	3	Temperatura mínima	9.1
90728	7	Sololá	701	Sololá	4	Finca Santa Victoria	2	Febrero	2023-02-19T00:00:00	2024-11-08T06:00:00	5	Humedad	96
90729	7	Sololá	701	Sololá	4	Finca Santa Victoria	2	Febrero	2023-02-19T00:00:00	2024-11-08T06:00:00	6	Velocidad del viento	6.4
90730	7	Sololá	701	Sololá	4	Finca Santa Victoria	2	Febrero	2023-02-19T00:00:00	2024-11-08T06:00:00	7	Dirección del viento	6.44
90731	7	Sololá	701	Sololá	4	Finca Santa Victoria	2	Febrero	2023-02-19T00:00:00	2024-11-08T06:00:00	1	Precipitación	0
90732	7	Sololá	701	Sololá	4	Finca Santa Victoria	2	Febrero	2023-02-19T00:00:00	2024-11-08T06:00:00	8	Radiación solar	0
90733	7	Sololá	701	Sololá	4	Finca Santa Victoria	2	Febrero	2023-02-19T00:00:00	2024-11-08T07:00:00	2	Temperatura media	9.3
90734	7	Sololá	701	Sololá	4	Finca Santa Victoria	2	Febrero	2023-02-19T00:00:00	2024-11-08T07:00:00	4	Temperatura máxima	9.4
90735	7	Sololá	701	Sololá	4	Finca Santa Victoria	2	Febrero	2023-02-19T00:00:00	2024-11-08T07:00:00	3	Temperatura mínima	9.3
90736	7	Sololá	701	Sololá	4	Finca Santa Victoria	2	Febrero	2023-02-19T00:00:00	2024-11-08T07:00:00	5	Humedad	97
90737	7	Sololá	701	Sololá	4	Finca Santa Victoria	2	Febrero	2023-02-19T00:00:00	2024-11-08T07:00:00	6	Velocidad del viento	6.4
90738	7	Sololá	701	Sololá	4	Finca Santa Victoria	2	Febrero	2023-02-19T00:00:00	2024-11-08T07:00:00	7	Dirección del viento	6.44
90739	7	Sololá	701	Sololá	4	Finca Santa Victoria	2	Febrero	2023-02-19T00:00:00	2024-11-08T07:00:00	1	Precipitación	0
90740	7	Sololá	701	Sololá	4	Finca Santa Victoria	2	Febrero	2023-02-19T00:00:00	2024-11-08T07:00:00	8	Radiación solar	2
90741	7	Sololá	701	Sololá	4	Finca Santa Victoria	2	Febrero	2023-02-19T00:00:00	2024-11-08T08:00:00	2	Temperatura media	10.1
90742	7	Sololá	701	Sololá	4	Finca Santa Victoria	2	Febrero	2023-02-19T00:00:00	2024-11-08T08:00:00	4	Temperatura máxima	10.1
90743	7	Sololá	701	Sololá	4	Finca Santa Victoria	2	Febrero	2023-02-19T00:00:00	2024-11-08T08:00:00	3	Temperatura mínima	9.3
90744	7	Sololá	701	Sololá	4	Finca Santa Victoria	2	Febrero	2023-02-19T00:00:00	2024-11-08T08:00:00	5	Humedad	92
90745	7	Sololá	701	Sololá	4	Finca Santa Victoria	2	Febrero	2023-02-19T00:00:00	2024-11-08T08:00:00	6	Velocidad del viento	6.4
90746	7	Sololá	701	Sololá	4	Finca Santa Victoria	2	Febrero	2023-02-19T00:00:00	2024-11-08T08:00:00	7	Dirección del viento	6.44
90747	7	Sololá	701	Sololá	4	Finca Santa Victoria	2	Febrero	2023-02-19T00:00:00	2024-11-08T08:00:00	1	Precipitación	0
90748	7	Sololá	701	Sololá	4	Finca Santa Victoria	2	Febrero	2023-02-19T00:00:00	2024-11-08T08:00:00	8	Radiación solar	39
90749	7	Sololá	701	Sololá	4	Finca Santa Victoria	2	Febrero	2023-02-19T00:00:00	2024-11-08T09:00:00	2	Temperatura media	10.6
90750	7	Sololá	701	Sololá	4	Finca Santa Victoria	2	Febrero	2023-02-19T00:00:00	2024-11-08T09:00:00	4	Temperatura máxima	11.1
90751	7	Sololá	701	Sololá	4	Finca Santa Victoria	2	Febrero	2023-02-19T00:00:00	2024-11-08T09:00:00	3	Temperatura mínima	10.1
90752	7	Sololá	701	Sololá	4	Finca Santa Victoria	2	Febrero	2023-02-19T00:00:00	2024-11-08T09:00:00	5	Humedad	91
90753	7	Sololá	701	Sololá	4	Finca Santa Victoria	2	Febrero	2023-02-19T00:00:00	2024-11-08T09:00:00	6	Velocidad del viento	6.4
90754	7	Sololá	701	Sololá	4	Finca Santa Victoria	2	Febrero	2023-02-19T00:00:00	2024-11-08T09:00:00	7	Dirección del viento	6.44
90755	7	Sololá	701	Sololá	4	Finca Santa Victoria	2	Febrero	2023-02-19T00:00:00	2024-11-08T09:00:00	1	Precipitación	0
90756	7	Sololá	701	Sololá	4	Finca Santa Victoria	2	Febrero	2023-02-19T00:00:00	2024-11-08T09:00:00	8	Radiación solar	91
90757	7	Sololá	701	Sololá	4	Finca Santa Victoria	2	Febrero	2023-02-19T00:00:00	2024-11-08T10:00:00	2	Temperatura media	12.8
90758	7	Sololá	701	Sololá	4	Finca Santa Victoria	2	Febrero	2023-02-19T00:00:00	2024-11-08T10:00:00	4	Temperatura máxima	13.2
90759	7	Sololá	701	Sololá	4	Finca Santa Victoria	2	Febrero	2023-02-19T00:00:00	2024-11-08T10:00:00	3	Temperatura mínima	10.4
90760	7	Sololá	701	Sololá	4	Finca Santa Victoria	2	Febrero	2023-02-19T00:00:00	2024-11-08T10:00:00	5	Humedad	82
90761	7	Sololá	701	Sololá	4	Finca Santa Victoria	2	Febrero	2023-02-19T00:00:00	2024-11-08T10:00:00	6	Velocidad del viento	8
90762	7	Sololá	701	Sololá	4	Finca Santa Victoria	2	Febrero	2023-02-19T00:00:00	2024-11-08T10:00:00	7	Dirección del viento	8.05
90763	7	Sololá	701	Sololá	4	Finca Santa Victoria	2	Febrero	2023-02-19T00:00:00	2024-11-08T10:00:00	1	Precipitación	0
90764	7	Sololá	701	Sololá	4	Finca Santa Victoria	2	Febrero	2023-02-19T00:00:00	2024-11-08T10:00:00	8	Radiación solar	298
90765	7	Sololá	701	Sololá	4	Finca Santa Victoria	2	Febrero	2023-02-19T00:00:00	2024-11-08T11:00:00	2	Temperatura media	11.2
90766	7	Sololá	701	Sololá	4	Finca Santa Victoria	2	Febrero	2023-02-19T00:00:00	2024-11-08T11:00:00	4	Temperatura máxima	12.8
90767	7	Sololá	701	Sololá	4	Finca Santa Victoria	2	Febrero	2023-02-19T00:00:00	2024-11-08T11:00:00	3	Temperatura mínima	11.2
90768	7	Sololá	701	Sololá	4	Finca Santa Victoria	2	Febrero	2023-02-19T00:00:00	2024-11-08T11:00:00	5	Humedad	88
90769	7	Sololá	701	Sololá	4	Finca Santa Victoria	2	Febrero	2023-02-19T00:00:00	2024-11-08T11:00:00	6	Velocidad del viento	6.4
90770	7	Sololá	701	Sololá	4	Finca Santa Victoria	2	Febrero	2023-02-19T00:00:00	2024-11-08T11:00:00	7	Dirección del viento	6.44
90771	7	Sololá	701	Sololá	4	Finca Santa Victoria	2	Febrero	2023-02-19T00:00:00	2024-11-08T11:00:00	1	Precipitación	0
90772	7	Sololá	701	Sololá	4	Finca Santa Victoria	2	Febrero	2023-02-19T00:00:00	2024-11-08T11:00:00	8	Radiación solar	172
90773	7	Sololá	701	Sololá	4	Finca Santa Victoria	2	Febrero	2023-02-19T00:00:00	2024-11-08T12:00:00	2	Temperatura media	11.2
90774	7	Sololá	701	Sololá	4	Finca Santa Victoria	2	Febrero	2023-02-19T00:00:00	2024-11-08T12:00:00	4	Temperatura máxima	11.3
90775	7	Sololá	701	Sololá	4	Finca Santa Victoria	2	Febrero	2023-02-19T00:00:00	2024-11-08T12:00:00	3	Temperatura mínima	11.1
90776	7	Sololá	701	Sololá	4	Finca Santa Victoria	2	Febrero	2023-02-19T00:00:00	2024-11-08T12:00:00	5	Humedad	89
90777	7	Sololá	701	Sololá	4	Finca Santa Victoria	2	Febrero	2023-02-19T00:00:00	2024-11-08T12:00:00	6	Velocidad del viento	4.8
90778	7	Sololá	701	Sololá	4	Finca Santa Victoria	2	Febrero	2023-02-19T00:00:00	2024-11-08T12:00:00	7	Dirección del viento	4.83
90779	7	Sololá	701	Sololá	4	Finca Santa Victoria	2	Febrero	2023-02-19T00:00:00	2024-11-08T12:00:00	1	Precipitación	0
90780	7	Sololá	701	Sololá	4	Finca Santa Victoria	2	Febrero	2023-02-19T00:00:00	2024-11-08T12:00:00	8	Radiación solar	93
90781	7	Sololá	701	Sololá	4	Finca Santa Victoria	2	Febrero	2023-02-19T00:00:00	2024-11-08T13:00:00	2	Temperatura media	13.2
90782	7	Sololá	701	Sololá	4	Finca Santa Victoria	2	Febrero	2023-02-19T00:00:00	2024-11-08T13:00:00	4	Temperatura máxima	13.2
90783	7	Sololá	701	Sololá	4	Finca Santa Victoria	2	Febrero	2023-02-19T00:00:00	2024-11-08T13:00:00	3	Temperatura mínima	11.2
90784	7	Sololá	701	Sololá	4	Finca Santa Victoria	2	Febrero	2023-02-19T00:00:00	2024-11-08T13:00:00	5	Humedad	81
90785	7	Sololá	701	Sololá	4	Finca Santa Victoria	2	Febrero	2023-02-19T00:00:00	2024-11-08T13:00:00	6	Velocidad del viento	4.8
90786	7	Sololá	701	Sololá	4	Finca Santa Victoria	2	Febrero	2023-02-19T00:00:00	2024-11-08T13:00:00	7	Dirección del viento	4.83
90787	7	Sololá	701	Sololá	4	Finca Santa Victoria	2	Febrero	2023-02-19T00:00:00	2024-11-08T13:00:00	1	Precipitación	0
90788	7	Sololá	701	Sololá	4	Finca Santa Victoria	2	Febrero	2023-02-19T00:00:00	2024-11-08T13:00:00	8	Radiación solar	183
90789	7	Sololá	701	Sololá	4	Finca Santa Victoria	2	Febrero	2023-02-19T00:00:00	2024-11-08T14:00:00	2	Temperatura media	13.3
90790	7	Sololá	701	Sololá	4	Finca Santa Victoria	2	Febrero	2023-02-19T00:00:00	2024-11-08T14:00:00	4	Temperatura máxima	13.8
90791	7	Sololá	701	Sololá	4	Finca Santa Victoria	2	Febrero	2023-02-19T00:00:00	2024-11-08T14:00:00	3	Temperatura mínima	12.9
90792	7	Sololá	701	Sololá	4	Finca Santa Victoria	2	Febrero	2023-02-19T00:00:00	2024-11-08T14:00:00	5	Humedad	81
90793	7	Sololá	701	Sololá	4	Finca Santa Victoria	2	Febrero	2023-02-19T00:00:00	2024-11-08T14:00:00	6	Velocidad del viento	4.8
90794	7	Sololá	701	Sololá	4	Finca Santa Victoria	2	Febrero	2023-02-19T00:00:00	2024-11-08T14:00:00	7	Dirección del viento	4.83
90795	7	Sololá	701	Sololá	4	Finca Santa Victoria	2	Febrero	2023-02-19T00:00:00	2024-11-08T14:00:00	1	Precipitación	0
90796	7	Sololá	701	Sololá	4	Finca Santa Victoria	2	Febrero	2023-02-19T00:00:00	2024-11-08T14:00:00	8	Radiación solar	239
90797	7	Sololá	701	Sololá	4	Finca Santa Victoria	2	Febrero	2023-02-19T00:00:00	2024-11-08T15:00:00	2	Temperatura media	15.3
90798	7	Sololá	701	Sololá	4	Finca Santa Victoria	2	Febrero	2023-02-19T00:00:00	2024-11-08T15:00:00	4	Temperatura máxima	15.3
90799	7	Sololá	701	Sololá	4	Finca Santa Victoria	2	Febrero	2023-02-19T00:00:00	2024-11-08T15:00:00	3	Temperatura mínima	13.3
90800	7	Sololá	701	Sololá	4	Finca Santa Victoria	2	Febrero	2023-02-19T00:00:00	2024-11-08T15:00:00	5	Humedad	74
90801	7	Sololá	701	Sololá	4	Finca Santa Victoria	2	Febrero	2023-02-19T00:00:00	2024-11-08T15:00:00	6	Velocidad del viento	4.8
90802	7	Sololá	701	Sololá	4	Finca Santa Victoria	2	Febrero	2023-02-19T00:00:00	2024-11-08T15:00:00	7	Dirección del viento	4.83
90803	7	Sololá	701	Sololá	4	Finca Santa Victoria	2	Febrero	2023-02-19T00:00:00	2024-11-08T15:00:00	1	Precipitación	0
90804	7	Sololá	701	Sololá	4	Finca Santa Victoria	2	Febrero	2023-02-19T00:00:00	2024-11-08T15:00:00	8	Radiación solar	299
90805	7	Sololá	701	Sololá	4	Finca Santa Victoria	2	Febrero	2023-02-19T00:00:00	2024-11-08T16:00:00	2	Temperatura media	15.9
90806	7	Sololá	701	Sololá	4	Finca Santa Victoria	2	Febrero	2023-02-19T00:00:00	2024-11-08T16:00:00	4	Temperatura máxima	16
90807	7	Sololá	701	Sololá	4	Finca Santa Victoria	2	Febrero	2023-02-19T00:00:00	2024-11-08T16:00:00	3	Temperatura mínima	15.1
90808	7	Sololá	701	Sololá	4	Finca Santa Victoria	2	Febrero	2023-02-19T00:00:00	2024-11-08T16:00:00	5	Humedad	72
90809	7	Sololá	701	Sololá	4	Finca Santa Victoria	2	Febrero	2023-02-19T00:00:00	2024-11-08T16:00:00	6	Velocidad del viento	4.8
90810	7	Sololá	701	Sololá	4	Finca Santa Victoria	2	Febrero	2023-02-19T00:00:00	2024-11-08T16:00:00	7	Dirección del viento	4.83
90811	7	Sololá	701	Sololá	4	Finca Santa Victoria	2	Febrero	2023-02-19T00:00:00	2024-11-08T16:00:00	1	Precipitación	0
90812	7	Sololá	701	Sololá	4	Finca Santa Victoria	2	Febrero	2023-02-19T00:00:00	2024-11-08T16:00:00	8	Radiación solar	244
90813	7	Sololá	701	Sololá	4	Finca Santa Victoria	2	Febrero	2023-02-19T00:00:00	2024-11-08T17:00:00	2	Temperatura media	14.9
90814	7	Sololá	701	Sololá	4	Finca Santa Victoria	2	Febrero	2023-02-19T00:00:00	2024-11-08T17:00:00	4	Temperatura máxima	16.5
90815	7	Sololá	701	Sololá	4	Finca Santa Victoria	2	Febrero	2023-02-19T00:00:00	2024-11-08T17:00:00	3	Temperatura mínima	14.5
90816	7	Sololá	701	Sololá	4	Finca Santa Victoria	2	Febrero	2023-02-19T00:00:00	2024-11-08T17:00:00	5	Humedad	74
90817	7	Sololá	701	Sololá	4	Finca Santa Victoria	2	Febrero	2023-02-19T00:00:00	2024-11-08T17:00:00	6	Velocidad del viento	4.8
90818	7	Sololá	701	Sololá	4	Finca Santa Victoria	2	Febrero	2023-02-19T00:00:00	2024-11-08T17:00:00	7	Dirección del viento	4.83
90819	7	Sololá	701	Sololá	4	Finca Santa Victoria	2	Febrero	2023-02-19T00:00:00	2024-11-08T17:00:00	1	Precipitación	0
90820	7	Sololá	701	Sololá	4	Finca Santa Victoria	2	Febrero	2023-02-19T00:00:00	2024-11-08T17:00:00	8	Radiación solar	266
90821	7	Sololá	701	Sololá	4	Finca Santa Victoria	2	Febrero	2023-02-19T00:00:00	2024-11-08T18:00:00	2	Temperatura media	12.7
90822	7	Sololá	701	Sololá	4	Finca Santa Victoria	2	Febrero	2023-02-19T00:00:00	2024-11-08T18:00:00	4	Temperatura máxima	15.4
90823	7	Sololá	701	Sololá	4	Finca Santa Victoria	2	Febrero	2023-02-19T00:00:00	2024-11-08T18:00:00	3	Temperatura mínima	12.7
90824	7	Sololá	701	Sololá	4	Finca Santa Victoria	2	Febrero	2023-02-19T00:00:00	2024-11-08T18:00:00	5	Humedad	80
90825	7	Sololá	701	Sololá	4	Finca Santa Victoria	2	Febrero	2023-02-19T00:00:00	2024-11-08T18:00:00	6	Velocidad del viento	4.8
90826	7	Sololá	701	Sololá	4	Finca Santa Victoria	2	Febrero	2023-02-19T00:00:00	2024-11-08T18:00:00	7	Dirección del viento	4.83
90827	7	Sololá	701	Sololá	4	Finca Santa Victoria	2	Febrero	2023-02-19T00:00:00	2024-11-08T18:00:00	1	Precipitación	0
90828	7	Sololá	701	Sololá	4	Finca Santa Victoria	2	Febrero	2023-02-19T00:00:00	2024-11-08T18:00:00	8	Radiación solar	104
90829	7	Sololá	701	Sololá	4	Finca Santa Victoria	2	Febrero	2023-02-19T00:00:00	2024-11-08T19:00:00	2	Temperatura media	11.2
90830	7	Sololá	701	Sololá	4	Finca Santa Victoria	2	Febrero	2023-02-19T00:00:00	2024-11-08T19:00:00	4	Temperatura máxima	12.7
90831	7	Sololá	701	Sololá	4	Finca Santa Victoria	2	Febrero	2023-02-19T00:00:00	2024-11-08T19:00:00	3	Temperatura mínima	11.2
90832	7	Sololá	701	Sololá	4	Finca Santa Victoria	2	Febrero	2023-02-19T00:00:00	2024-11-08T19:00:00	5	Humedad	86
90833	7	Sololá	701	Sololá	4	Finca Santa Victoria	2	Febrero	2023-02-19T00:00:00	2024-11-08T19:00:00	6	Velocidad del viento	4.8
90834	7	Sololá	701	Sololá	4	Finca Santa Victoria	2	Febrero	2023-02-19T00:00:00	2024-11-08T19:00:00	7	Dirección del viento	4.83
90835	7	Sololá	701	Sololá	4	Finca Santa Victoria	2	Febrero	2023-02-19T00:00:00	2024-11-08T19:00:00	1	Precipitación	0
90836	7	Sololá	701	Sololá	4	Finca Santa Victoria	2	Febrero	2023-02-19T00:00:00	2024-11-08T19:00:00	8	Radiación solar	0
90837	7	Sololá	701	Sololá	4	Finca Santa Victoria	2	Febrero	2023-02-19T00:00:00	2024-11-08T20:00:00	2	Temperatura media	11.4
90838	7	Sololá	701	Sololá	4	Finca Santa Victoria	2	Febrero	2023-02-19T00:00:00	2024-11-08T20:00:00	4	Temperatura máxima	11.4
90839	7	Sololá	701	Sololá	4	Finca Santa Victoria	2	Febrero	2023-02-19T00:00:00	2024-11-08T20:00:00	3	Temperatura mínima	11.1
90840	7	Sololá	701	Sololá	4	Finca Santa Victoria	2	Febrero	2023-02-19T00:00:00	2024-11-08T20:00:00	5	Humedad	82
90841	7	Sololá	701	Sololá	4	Finca Santa Victoria	2	Febrero	2023-02-19T00:00:00	2024-11-08T20:00:00	6	Velocidad del viento	4.8
90842	7	Sololá	701	Sololá	4	Finca Santa Victoria	2	Febrero	2023-02-19T00:00:00	2024-11-08T20:00:00	7	Dirección del viento	4.83
90843	7	Sololá	701	Sololá	4	Finca Santa Victoria	2	Febrero	2023-02-19T00:00:00	2024-11-08T20:00:00	1	Precipitación	0
90844	7	Sololá	701	Sololá	4	Finca Santa Victoria	2	Febrero	2023-02-19T00:00:00	2024-11-08T20:00:00	8	Radiación solar	0
90845	7	Sololá	701	Sololá	4	Finca Santa Victoria	2	Febrero	2023-02-19T00:00:00	2024-11-08T21:00:00	2	Temperatura media	11.2
90846	7	Sololá	701	Sololá	4	Finca Santa Victoria	2	Febrero	2023-02-19T00:00:00	2024-11-08T21:00:00	4	Temperatura máxima	11.4
90847	7	Sololá	701	Sololá	4	Finca Santa Victoria	2	Febrero	2023-02-19T00:00:00	2024-11-08T21:00:00	3	Temperatura mínima	11.2
90848	7	Sololá	701	Sololá	4	Finca Santa Victoria	2	Febrero	2023-02-19T00:00:00	2024-11-08T21:00:00	5	Humedad	83
90849	7	Sololá	701	Sololá	4	Finca Santa Victoria	2	Febrero	2023-02-19T00:00:00	2024-11-08T21:00:00	6	Velocidad del viento	4.8
90850	7	Sololá	701	Sololá	4	Finca Santa Victoria	2	Febrero	2023-02-19T00:00:00	2024-11-08T21:00:00	7	Dirección del viento	4.83
90851	7	Sololá	701	Sololá	4	Finca Santa Victoria	2	Febrero	2023-02-19T00:00:00	2024-11-08T21:00:00	1	Precipitación	0
90852	7	Sololá	701	Sololá	4	Finca Santa Victoria	2	Febrero	2023-02-19T00:00:00	2024-11-08T21:00:00	8	Radiación solar	0
90853	7	Sololá	701	Sololá	4	Finca Santa Victoria	2	Febrero	2023-02-19T00:00:00	2024-11-08T22:00:00	2	Temperatura media	10.7
90854	7	Sololá	701	Sololá	4	Finca Santa Victoria	2	Febrero	2023-02-19T00:00:00	2024-11-08T22:00:00	4	Temperatura máxima	11.2
90855	7	Sololá	701	Sololá	4	Finca Santa Victoria	2	Febrero	2023-02-19T00:00:00	2024-11-08T22:00:00	3	Temperatura mínima	10.7
90856	7	Sololá	701	Sololá	4	Finca Santa Victoria	2	Febrero	2023-02-19T00:00:00	2024-11-08T22:00:00	5	Humedad	82
90857	7	Sololá	701	Sololá	4	Finca Santa Victoria	2	Febrero	2023-02-19T00:00:00	2024-11-08T22:00:00	6	Velocidad del viento	4.8
90858	7	Sololá	701	Sololá	4	Finca Santa Victoria	2	Febrero	2023-02-19T00:00:00	2024-11-08T22:00:00	7	Dirección del viento	4.83
90859	7	Sololá	701	Sololá	4	Finca Santa Victoria	2	Febrero	2023-02-19T00:00:00	2024-11-08T22:00:00	1	Precipitación	0
90860	7	Sololá	701	Sololá	4	Finca Santa Victoria	2	Febrero	2023-02-19T00:00:00	2024-11-08T22:00:00	8	Radiación solar	0
90861	7	Sololá	701	Sololá	4	Finca Santa Victoria	2	Febrero	2023-02-19T00:00:00	2024-11-08T23:00:00	2	Temperatura media	10.1
90862	7	Sololá	701	Sololá	4	Finca Santa Victoria	2	Febrero	2023-02-19T00:00:00	2024-11-08T23:00:00	4	Temperatura máxima	10.7
90863	7	Sololá	701	Sololá	4	Finca Santa Victoria	2	Febrero	2023-02-19T00:00:00	2024-11-08T23:00:00	3	Temperatura mínima	10.1
90864	7	Sololá	701	Sololá	4	Finca Santa Victoria	2	Febrero	2023-02-19T00:00:00	2024-11-08T23:00:00	5	Humedad	83
90865	7	Sololá	701	Sololá	4	Finca Santa Victoria	2	Febrero	2023-02-19T00:00:00	2024-11-08T23:00:00	6	Velocidad del viento	4.8
90866	7	Sololá	701	Sololá	4	Finca Santa Victoria	2	Febrero	2023-02-19T00:00:00	2024-11-08T23:00:00	7	Dirección del viento	4.83
90867	7	Sololá	701	Sololá	4	Finca Santa Victoria	2	Febrero	2023-02-19T00:00:00	2024-11-08T23:00:00	1	Precipitación	0
90868	7	Sololá	701	Sololá	4	Finca Santa Victoria	2	Febrero	2023-02-19T00:00:00	2024-11-08T23:00:00	8	Radiación solar	0
90869	7	Sololá	701	Sololá	4	Finca Santa Victoria	2	Febrero	2023-02-20T00:00:00	2024-11-08T00:00:00	2	Temperatura media	9.8
90870	7	Sololá	701	Sololá	4	Finca Santa Victoria	2	Febrero	2023-02-20T00:00:00	2024-11-08T00:00:00	4	Temperatura máxima	10.1
90871	7	Sololá	701	Sololá	4	Finca Santa Victoria	2	Febrero	2023-02-20T00:00:00	2024-11-08T00:00:00	3	Temperatura mínima	9.7
90872	7	Sololá	701	Sololá	4	Finca Santa Victoria	2	Febrero	2023-02-20T00:00:00	2024-11-08T00:00:00	5	Humedad	81
90873	7	Sololá	701	Sololá	4	Finca Santa Victoria	2	Febrero	2023-02-20T00:00:00	2024-11-08T00:00:00	6	Velocidad del viento	4.8
90874	7	Sololá	701	Sololá	4	Finca Santa Victoria	2	Febrero	2023-02-20T00:00:00	2024-11-08T00:00:00	7	Dirección del viento	4.83
90875	7	Sololá	701	Sololá	4	Finca Santa Victoria	2	Febrero	2023-02-20T00:00:00	2024-11-08T00:00:00	1	Precipitación	0
90876	7	Sololá	701	Sololá	4	Finca Santa Victoria	2	Febrero	2023-02-20T00:00:00	2024-11-08T00:00:00	8	Radiación solar	0
90877	7	Sololá	701	Sololá	4	Finca Santa Victoria	2	Febrero	2023-02-20T00:00:00	2024-11-08T01:00:00	2	Temperatura media	9.9
90878	7	Sololá	701	Sololá	4	Finca Santa Victoria	2	Febrero	2023-02-20T00:00:00	2024-11-08T01:00:00	4	Temperatura máxima	10
90879	7	Sololá	701	Sololá	4	Finca Santa Victoria	2	Febrero	2023-02-20T00:00:00	2024-11-08T01:00:00	3	Temperatura mínima	9.8
90880	7	Sololá	701	Sololá	4	Finca Santa Victoria	2	Febrero	2023-02-20T00:00:00	2024-11-08T01:00:00	5	Humedad	81
90881	7	Sololá	701	Sololá	4	Finca Santa Victoria	2	Febrero	2023-02-20T00:00:00	2024-11-08T01:00:00	6	Velocidad del viento	4.8
90882	7	Sololá	701	Sololá	4	Finca Santa Victoria	2	Febrero	2023-02-20T00:00:00	2024-11-08T01:00:00	7	Dirección del viento	4.83
90883	7	Sololá	701	Sololá	4	Finca Santa Victoria	2	Febrero	2023-02-20T00:00:00	2024-11-08T01:00:00	1	Precipitación	0
90884	7	Sololá	701	Sololá	4	Finca Santa Victoria	2	Febrero	2023-02-20T00:00:00	2024-11-08T01:00:00	8	Radiación solar	0
90885	7	Sololá	701	Sololá	4	Finca Santa Victoria	2	Febrero	2023-02-20T00:00:00	2024-11-08T02:00:00	2	Temperatura media	9.4
90886	7	Sololá	701	Sololá	4	Finca Santa Victoria	2	Febrero	2023-02-20T00:00:00	2024-11-08T02:00:00	4	Temperatura máxima	9.9
90887	7	Sololá	701	Sololá	4	Finca Santa Victoria	2	Febrero	2023-02-20T00:00:00	2024-11-08T02:00:00	3	Temperatura mínima	9.4
90888	7	Sololá	701	Sololá	4	Finca Santa Victoria	2	Febrero	2023-02-20T00:00:00	2024-11-08T02:00:00	5	Humedad	79
90889	7	Sololá	701	Sololá	4	Finca Santa Victoria	2	Febrero	2023-02-20T00:00:00	2024-11-08T02:00:00	6	Velocidad del viento	3.2
90890	7	Sololá	701	Sololá	4	Finca Santa Victoria	2	Febrero	2023-02-20T00:00:00	2024-11-08T02:00:00	7	Dirección del viento	3.22
90891	7	Sololá	701	Sololá	4	Finca Santa Victoria	2	Febrero	2023-02-20T00:00:00	2024-11-08T02:00:00	1	Precipitación	0
90892	7	Sololá	701	Sololá	4	Finca Santa Victoria	2	Febrero	2023-02-20T00:00:00	2024-11-08T02:00:00	8	Radiación solar	0
90893	7	Sololá	701	Sololá	4	Finca Santa Victoria	2	Febrero	2023-02-20T00:00:00	2024-11-08T03:00:00	2	Temperatura media	9.6
90894	7	Sololá	701	Sololá	4	Finca Santa Victoria	2	Febrero	2023-02-20T00:00:00	2024-11-08T03:00:00	4	Temperatura máxima	10
90895	7	Sololá	701	Sololá	4	Finca Santa Victoria	2	Febrero	2023-02-20T00:00:00	2024-11-08T03:00:00	3	Temperatura mínima	9.4
90896	7	Sololá	701	Sololá	4	Finca Santa Victoria	2	Febrero	2023-02-20T00:00:00	2024-11-08T03:00:00	5	Humedad	78
90897	7	Sololá	701	Sololá	4	Finca Santa Victoria	2	Febrero	2023-02-20T00:00:00	2024-11-08T03:00:00	6	Velocidad del viento	1.6
90898	7	Sololá	701	Sololá	4	Finca Santa Victoria	2	Febrero	2023-02-20T00:00:00	2024-11-08T03:00:00	7	Dirección del viento	1.61
90899	7	Sololá	701	Sololá	4	Finca Santa Victoria	2	Febrero	2023-02-20T00:00:00	2024-11-08T03:00:00	1	Precipitación	0
90900	7	Sololá	701	Sololá	4	Finca Santa Victoria	2	Febrero	2023-02-20T00:00:00	2024-11-08T03:00:00	8	Radiación solar	0
90901	7	Sololá	701	Sololá	4	Finca Santa Victoria	2	Febrero	2023-02-20T00:00:00	2024-11-08T04:00:00	2	Temperatura media	10.2
90902	7	Sololá	701	Sololá	4	Finca Santa Victoria	2	Febrero	2023-02-20T00:00:00	2024-11-08T04:00:00	4	Temperatura máxima	10.2
90903	7	Sololá	701	Sololá	4	Finca Santa Victoria	2	Febrero	2023-02-20T00:00:00	2024-11-08T04:00:00	3	Temperatura mínima	9.5
90904	7	Sololá	701	Sololá	4	Finca Santa Victoria	2	Febrero	2023-02-20T00:00:00	2024-11-08T04:00:00	5	Humedad	74
90905	7	Sololá	701	Sololá	4	Finca Santa Victoria	2	Febrero	2023-02-20T00:00:00	2024-11-08T04:00:00	6	Velocidad del viento	3.2
90906	7	Sololá	701	Sololá	4	Finca Santa Victoria	2	Febrero	2023-02-20T00:00:00	2024-11-08T04:00:00	7	Dirección del viento	3.22
90907	7	Sololá	701	Sololá	4	Finca Santa Victoria	2	Febrero	2023-02-20T00:00:00	2024-11-08T04:00:00	1	Precipitación	0
90908	7	Sololá	701	Sololá	4	Finca Santa Victoria	2	Febrero	2023-02-20T00:00:00	2024-11-08T04:00:00	8	Radiación solar	0
90909	7	Sololá	701	Sololá	4	Finca Santa Victoria	2	Febrero	2023-02-20T00:00:00	2024-11-08T05:00:00	2	Temperatura media	10.4
90910	7	Sololá	701	Sololá	4	Finca Santa Victoria	2	Febrero	2023-02-20T00:00:00	2024-11-08T05:00:00	4	Temperatura máxima	10.4
90911	7	Sololá	701	Sololá	4	Finca Santa Victoria	2	Febrero	2023-02-20T00:00:00	2024-11-08T05:00:00	3	Temperatura mínima	9.9
90912	7	Sololá	701	Sololá	4	Finca Santa Victoria	2	Febrero	2023-02-20T00:00:00	2024-11-08T05:00:00	5	Humedad	74
90913	7	Sololá	701	Sololá	4	Finca Santa Victoria	2	Febrero	2023-02-20T00:00:00	2024-11-08T05:00:00	6	Velocidad del viento	4.8
90914	7	Sololá	701	Sololá	4	Finca Santa Victoria	2	Febrero	2023-02-20T00:00:00	2024-11-08T05:00:00	7	Dirección del viento	4.83
90915	7	Sololá	701	Sololá	4	Finca Santa Victoria	2	Febrero	2023-02-20T00:00:00	2024-11-08T05:00:00	1	Precipitación	0
90916	7	Sololá	701	Sololá	4	Finca Santa Victoria	2	Febrero	2023-02-20T00:00:00	2024-11-08T05:00:00	8	Radiación solar	0
90917	7	Sololá	701	Sololá	4	Finca Santa Victoria	2	Febrero	2023-02-20T00:00:00	2024-11-08T06:00:00	2	Temperatura media	9.5
90918	7	Sololá	701	Sololá	4	Finca Santa Victoria	2	Febrero	2023-02-20T00:00:00	2024-11-08T06:00:00	4	Temperatura máxima	10.4
90919	7	Sololá	701	Sololá	4	Finca Santa Victoria	2	Febrero	2023-02-20T00:00:00	2024-11-08T06:00:00	3	Temperatura mínima	9.3
90920	7	Sololá	701	Sololá	4	Finca Santa Victoria	2	Febrero	2023-02-20T00:00:00	2024-11-08T06:00:00	5	Humedad	77
90921	7	Sololá	701	Sololá	4	Finca Santa Victoria	2	Febrero	2023-02-20T00:00:00	2024-11-08T06:00:00	6	Velocidad del viento	3.2
90922	7	Sololá	701	Sololá	4	Finca Santa Victoria	2	Febrero	2023-02-20T00:00:00	2024-11-08T06:00:00	7	Dirección del viento	3.22
90923	7	Sololá	701	Sololá	4	Finca Santa Victoria	2	Febrero	2023-02-20T00:00:00	2024-11-08T06:00:00	1	Precipitación	0
90924	7	Sololá	701	Sololá	4	Finca Santa Victoria	2	Febrero	2023-02-20T00:00:00	2024-11-08T06:00:00	8	Radiación solar	0
90925	7	Sololá	701	Sololá	4	Finca Santa Victoria	2	Febrero	2023-02-20T00:00:00	2024-11-08T07:00:00	2	Temperatura media	9.9
90926	7	Sololá	701	Sololá	4	Finca Santa Victoria	2	Febrero	2023-02-20T00:00:00	2024-11-08T07:00:00	4	Temperatura máxima	9.9
90927	7	Sololá	701	Sololá	4	Finca Santa Victoria	2	Febrero	2023-02-20T00:00:00	2024-11-08T07:00:00	3	Temperatura mínima	9.4
90928	7	Sololá	701	Sololá	4	Finca Santa Victoria	2	Febrero	2023-02-20T00:00:00	2024-11-08T07:00:00	5	Humedad	78
90929	7	Sololá	701	Sololá	4	Finca Santa Victoria	2	Febrero	2023-02-20T00:00:00	2024-11-08T07:00:00	6	Velocidad del viento	4.8
90930	7	Sololá	701	Sololá	4	Finca Santa Victoria	2	Febrero	2023-02-20T00:00:00	2024-11-08T07:00:00	7	Dirección del viento	4.83
90931	7	Sololá	701	Sololá	4	Finca Santa Victoria	2	Febrero	2023-02-20T00:00:00	2024-11-08T07:00:00	1	Precipitación	0
90932	7	Sololá	701	Sololá	4	Finca Santa Victoria	2	Febrero	2023-02-20T00:00:00	2024-11-08T07:00:00	8	Radiación solar	5
90933	7	Sololá	701	Sololá	4	Finca Santa Victoria	2	Febrero	2023-02-20T00:00:00	2024-11-08T08:00:00	2	Temperatura media	12.2
90934	7	Sololá	701	Sololá	4	Finca Santa Victoria	2	Febrero	2023-02-20T00:00:00	2024-11-08T08:00:00	4	Temperatura máxima	12.2
90935	7	Sololá	701	Sololá	4	Finca Santa Victoria	2	Febrero	2023-02-20T00:00:00	2024-11-08T08:00:00	3	Temperatura mínima	9.9
90936	7	Sololá	701	Sololá	4	Finca Santa Victoria	2	Febrero	2023-02-20T00:00:00	2024-11-08T08:00:00	5	Humedad	69
90937	7	Sololá	701	Sololá	4	Finca Santa Victoria	2	Febrero	2023-02-20T00:00:00	2024-11-08T08:00:00	6	Velocidad del viento	4.8
90938	7	Sololá	701	Sololá	4	Finca Santa Victoria	2	Febrero	2023-02-20T00:00:00	2024-11-08T08:00:00	7	Dirección del viento	4.83
90939	7	Sololá	701	Sololá	4	Finca Santa Victoria	2	Febrero	2023-02-20T00:00:00	2024-11-08T08:00:00	1	Precipitación	0
90940	7	Sololá	701	Sololá	4	Finca Santa Victoria	2	Febrero	2023-02-20T00:00:00	2024-11-08T08:00:00	8	Radiación solar	56
90941	7	Sololá	701	Sololá	4	Finca Santa Victoria	2	Febrero	2023-02-20T00:00:00	2024-11-08T09:00:00	2	Temperatura media	14.6
90942	7	Sololá	701	Sololá	4	Finca Santa Victoria	2	Febrero	2023-02-20T00:00:00	2024-11-08T09:00:00	4	Temperatura máxima	14.6
90943	7	Sololá	701	Sololá	4	Finca Santa Victoria	2	Febrero	2023-02-20T00:00:00	2024-11-08T09:00:00	3	Temperatura mínima	12.2
90944	7	Sololá	701	Sololá	4	Finca Santa Victoria	2	Febrero	2023-02-20T00:00:00	2024-11-08T09:00:00	5	Humedad	58
90945	7	Sololá	701	Sololá	4	Finca Santa Victoria	2	Febrero	2023-02-20T00:00:00	2024-11-08T09:00:00	6	Velocidad del viento	4.8
90946	7	Sololá	701	Sololá	4	Finca Santa Victoria	2	Febrero	2023-02-20T00:00:00	2024-11-08T09:00:00	7	Dirección del viento	4.83
90947	7	Sololá	701	Sololá	4	Finca Santa Victoria	2	Febrero	2023-02-20T00:00:00	2024-11-08T09:00:00	1	Precipitación	0
90948	7	Sololá	701	Sololá	4	Finca Santa Victoria	2	Febrero	2023-02-20T00:00:00	2024-11-08T09:00:00	8	Radiación solar	114
90949	7	Sololá	701	Sololá	4	Finca Santa Victoria	2	Febrero	2023-02-20T00:00:00	2024-11-08T10:00:00	2	Temperatura media	17.1
90950	7	Sololá	701	Sololá	4	Finca Santa Victoria	2	Febrero	2023-02-20T00:00:00	2024-11-08T10:00:00	4	Temperatura máxima	17.1
90951	7	Sololá	701	Sololá	4	Finca Santa Victoria	2	Febrero	2023-02-20T00:00:00	2024-11-08T10:00:00	3	Temperatura mínima	14.6
90952	7	Sololá	701	Sololá	4	Finca Santa Victoria	2	Febrero	2023-02-20T00:00:00	2024-11-08T10:00:00	5	Humedad	48
90953	7	Sololá	701	Sololá	4	Finca Santa Victoria	2	Febrero	2023-02-20T00:00:00	2024-11-08T10:00:00	6	Velocidad del viento	4.8
90954	7	Sololá	701	Sololá	4	Finca Santa Victoria	2	Febrero	2023-02-20T00:00:00	2024-11-08T10:00:00	7	Dirección del viento	4.83
90955	7	Sololá	701	Sololá	4	Finca Santa Victoria	2	Febrero	2023-02-20T00:00:00	2024-11-08T10:00:00	1	Precipitación	0
90956	7	Sololá	701	Sololá	4	Finca Santa Victoria	2	Febrero	2023-02-20T00:00:00	2024-11-08T10:00:00	8	Radiación solar	697
90957	7	Sololá	701	Sololá	4	Finca Santa Victoria	2	Febrero	2023-02-20T00:00:00	2024-11-08T11:00:00	2	Temperatura media	18.1
90958	7	Sololá	701	Sololá	4	Finca Santa Victoria	2	Febrero	2023-02-20T00:00:00	2024-11-08T11:00:00	4	Temperatura máxima	18.1
90959	7	Sololá	701	Sololá	4	Finca Santa Victoria	2	Febrero	2023-02-20T00:00:00	2024-11-08T11:00:00	3	Temperatura mínima	16.4
90960	7	Sololá	701	Sololá	4	Finca Santa Victoria	2	Febrero	2023-02-20T00:00:00	2024-11-08T11:00:00	5	Humedad	51
90961	7	Sololá	701	Sololá	4	Finca Santa Victoria	2	Febrero	2023-02-20T00:00:00	2024-11-08T11:00:00	6	Velocidad del viento	8
90962	7	Sololá	701	Sololá	4	Finca Santa Victoria	2	Febrero	2023-02-20T00:00:00	2024-11-08T11:00:00	7	Dirección del viento	8.05
90963	7	Sololá	701	Sololá	4	Finca Santa Victoria	2	Febrero	2023-02-20T00:00:00	2024-11-08T11:00:00	1	Precipitación	0
90964	7	Sololá	701	Sololá	4	Finca Santa Victoria	2	Febrero	2023-02-20T00:00:00	2024-11-08T11:00:00	8	Radiación solar	879
90965	7	Sololá	701	Sololá	4	Finca Santa Victoria	2	Febrero	2023-02-20T00:00:00	2024-11-08T12:00:00	2	Temperatura media	18.9
90966	7	Sololá	701	Sololá	4	Finca Santa Victoria	2	Febrero	2023-02-20T00:00:00	2024-11-08T12:00:00	4	Temperatura máxima	19.4
90967	7	Sololá	701	Sololá	4	Finca Santa Victoria	2	Febrero	2023-02-20T00:00:00	2024-11-08T12:00:00	3	Temperatura mínima	18
90968	7	Sololá	701	Sololá	4	Finca Santa Victoria	2	Febrero	2023-02-20T00:00:00	2024-11-08T12:00:00	5	Humedad	45
90969	7	Sololá	701	Sololá	4	Finca Santa Victoria	2	Febrero	2023-02-20T00:00:00	2024-11-08T12:00:00	6	Velocidad del viento	6.4
90970	7	Sololá	701	Sololá	4	Finca Santa Victoria	2	Febrero	2023-02-20T00:00:00	2024-11-08T12:00:00	7	Dirección del viento	6.44
90971	7	Sololá	701	Sololá	4	Finca Santa Victoria	2	Febrero	2023-02-20T00:00:00	2024-11-08T12:00:00	1	Precipitación	0
90972	7	Sololá	701	Sololá	4	Finca Santa Victoria	2	Febrero	2023-02-20T00:00:00	2024-11-08T12:00:00	8	Radiación solar	970
90973	7	Sololá	701	Sololá	4	Finca Santa Victoria	2	Febrero	2023-02-20T00:00:00	2024-11-08T13:00:00	2	Temperatura media	19.6
90974	7	Sololá	701	Sololá	4	Finca Santa Victoria	2	Febrero	2023-02-20T00:00:00	2024-11-08T13:00:00	4	Temperatura máxima	20.1
90975	7	Sololá	701	Sololá	4	Finca Santa Victoria	2	Febrero	2023-02-20T00:00:00	2024-11-08T13:00:00	3	Temperatura mínima	18.7
90976	7	Sololá	701	Sololá	4	Finca Santa Victoria	2	Febrero	2023-02-20T00:00:00	2024-11-08T13:00:00	5	Humedad	47
90977	7	Sololá	701	Sololá	4	Finca Santa Victoria	2	Febrero	2023-02-20T00:00:00	2024-11-08T13:00:00	6	Velocidad del viento	6.4
90978	7	Sololá	701	Sololá	4	Finca Santa Victoria	2	Febrero	2023-02-20T00:00:00	2024-11-08T13:00:00	7	Dirección del viento	6.44
90979	7	Sololá	701	Sololá	4	Finca Santa Victoria	2	Febrero	2023-02-20T00:00:00	2024-11-08T13:00:00	1	Precipitación	0
90980	7	Sololá	701	Sololá	4	Finca Santa Victoria	2	Febrero	2023-02-20T00:00:00	2024-11-08T13:00:00	8	Radiación solar	985
90981	7	Sololá	701	Sololá	4	Finca Santa Victoria	2	Febrero	2023-02-20T00:00:00	2024-11-08T14:00:00	2	Temperatura media	19.2
90982	7	Sololá	701	Sololá	4	Finca Santa Victoria	2	Febrero	2023-02-20T00:00:00	2024-11-08T14:00:00	4	Temperatura máxima	19.6
90983	7	Sololá	701	Sololá	4	Finca Santa Victoria	2	Febrero	2023-02-20T00:00:00	2024-11-08T14:00:00	3	Temperatura mínima	18.7
90984	7	Sololá	701	Sololá	4	Finca Santa Victoria	2	Febrero	2023-02-20T00:00:00	2024-11-08T14:00:00	5	Humedad	49
90985	7	Sololá	701	Sololá	4	Finca Santa Victoria	2	Febrero	2023-02-20T00:00:00	2024-11-08T14:00:00	6	Velocidad del viento	6.4
90986	7	Sololá	701	Sololá	4	Finca Santa Victoria	2	Febrero	2023-02-20T00:00:00	2024-11-08T14:00:00	7	Dirección del viento	6.44
90987	7	Sololá	701	Sololá	4	Finca Santa Victoria	2	Febrero	2023-02-20T00:00:00	2024-11-08T14:00:00	1	Precipitación	0
90988	7	Sololá	701	Sololá	4	Finca Santa Victoria	2	Febrero	2023-02-20T00:00:00	2024-11-08T14:00:00	8	Radiación solar	907
90989	7	Sololá	701	Sololá	4	Finca Santa Victoria	2	Febrero	2023-02-20T00:00:00	2024-11-08T15:00:00	2	Temperatura media	19.2
90990	7	Sololá	701	Sololá	4	Finca Santa Victoria	2	Febrero	2023-02-20T00:00:00	2024-11-08T15:00:00	4	Temperatura máxima	19.9
90991	7	Sololá	701	Sololá	4	Finca Santa Victoria	2	Febrero	2023-02-20T00:00:00	2024-11-08T15:00:00	3	Temperatura mínima	19.2
90992	7	Sololá	701	Sololá	4	Finca Santa Victoria	2	Febrero	2023-02-20T00:00:00	2024-11-08T15:00:00	5	Humedad	45
90993	7	Sololá	701	Sololá	4	Finca Santa Victoria	2	Febrero	2023-02-20T00:00:00	2024-11-08T15:00:00	6	Velocidad del viento	6.4
90994	7	Sololá	701	Sololá	4	Finca Santa Victoria	2	Febrero	2023-02-20T00:00:00	2024-11-08T15:00:00	7	Dirección del viento	6.44
90995	7	Sololá	701	Sololá	4	Finca Santa Victoria	2	Febrero	2023-02-20T00:00:00	2024-11-08T15:00:00	1	Precipitación	0
90996	7	Sololá	701	Sololá	4	Finca Santa Victoria	2	Febrero	2023-02-20T00:00:00	2024-11-08T15:00:00	8	Radiación solar	652
90997	7	Sololá	701	Sololá	4	Finca Santa Victoria	2	Febrero	2023-02-20T00:00:00	2024-11-08T16:00:00	2	Temperatura media	18.4
90998	7	Sololá	701	Sololá	4	Finca Santa Victoria	2	Febrero	2023-02-20T00:00:00	2024-11-08T16:00:00	4	Temperatura máxima	19.4
90999	7	Sololá	701	Sololá	4	Finca Santa Victoria	2	Febrero	2023-02-20T00:00:00	2024-11-08T16:00:00	3	Temperatura mínima	18.3
91000	7	Sololá	701	Sololá	4	Finca Santa Victoria	2	Febrero	2023-02-20T00:00:00	2024-11-08T16:00:00	5	Humedad	49
91001	7	Sololá	701	Sololá	4	Finca Santa Victoria	2	Febrero	2023-02-20T00:00:00	2024-11-08T16:00:00	6	Velocidad del viento	6.4
91002	7	Sololá	701	Sololá	4	Finca Santa Victoria	2	Febrero	2023-02-20T00:00:00	2024-11-08T16:00:00	7	Dirección del viento	6.44
91003	7	Sololá	701	Sololá	4	Finca Santa Victoria	2	Febrero	2023-02-20T00:00:00	2024-11-08T16:00:00	1	Precipitación	0
91004	7	Sololá	701	Sololá	4	Finca Santa Victoria	2	Febrero	2023-02-20T00:00:00	2024-11-08T16:00:00	8	Radiación solar	396
91005	7	Sololá	701	Sololá	4	Finca Santa Victoria	2	Febrero	2023-02-20T00:00:00	2024-11-08T17:00:00	2	Temperatura media	17.2
91006	7	Sololá	701	Sololá	4	Finca Santa Victoria	2	Febrero	2023-02-20T00:00:00	2024-11-08T17:00:00	4	Temperatura máxima	19.1
91007	7	Sololá	701	Sololá	4	Finca Santa Victoria	2	Febrero	2023-02-20T00:00:00	2024-11-08T17:00:00	3	Temperatura mínima	17.2
91008	7	Sololá	701	Sololá	4	Finca Santa Victoria	2	Febrero	2023-02-20T00:00:00	2024-11-08T17:00:00	5	Humedad	56
91009	7	Sololá	701	Sololá	4	Finca Santa Victoria	2	Febrero	2023-02-20T00:00:00	2024-11-08T17:00:00	6	Velocidad del viento	4.8
91010	7	Sololá	701	Sololá	4	Finca Santa Victoria	2	Febrero	2023-02-20T00:00:00	2024-11-08T17:00:00	7	Dirección del viento	4.83
91011	7	Sololá	701	Sololá	4	Finca Santa Victoria	2	Febrero	2023-02-20T00:00:00	2024-11-08T17:00:00	1	Precipitación	0
91012	7	Sololá	701	Sololá	4	Finca Santa Victoria	2	Febrero	2023-02-20T00:00:00	2024-11-08T17:00:00	8	Radiación solar	341
91013	7	Sololá	701	Sololá	4	Finca Santa Victoria	2	Febrero	2023-02-20T00:00:00	2024-11-08T18:00:00	2	Temperatura media	13.7
91014	7	Sololá	701	Sololá	4	Finca Santa Victoria	2	Febrero	2023-02-20T00:00:00	2024-11-08T18:00:00	4	Temperatura máxima	17.2
91015	7	Sololá	701	Sololá	4	Finca Santa Victoria	2	Febrero	2023-02-20T00:00:00	2024-11-08T18:00:00	3	Temperatura mínima	13.7
91016	7	Sololá	701	Sololá	4	Finca Santa Victoria	2	Febrero	2023-02-20T00:00:00	2024-11-08T18:00:00	5	Humedad	69
91017	7	Sololá	701	Sololá	4	Finca Santa Victoria	2	Febrero	2023-02-20T00:00:00	2024-11-08T18:00:00	6	Velocidad del viento	4.8
91018	7	Sololá	701	Sololá	4	Finca Santa Victoria	2	Febrero	2023-02-20T00:00:00	2024-11-08T18:00:00	7	Dirección del viento	4.83
91019	7	Sololá	701	Sololá	4	Finca Santa Victoria	2	Febrero	2023-02-20T00:00:00	2024-11-08T18:00:00	1	Precipitación	0
91020	7	Sololá	701	Sololá	4	Finca Santa Victoria	2	Febrero	2023-02-20T00:00:00	2024-11-08T18:00:00	8	Radiación solar	96
91021	7	Sololá	701	Sololá	4	Finca Santa Victoria	2	Febrero	2023-02-20T00:00:00	2024-11-08T19:00:00	2	Temperatura media	11.7
91022	7	Sololá	701	Sololá	4	Finca Santa Victoria	2	Febrero	2023-02-20T00:00:00	2024-11-08T19:00:00	4	Temperatura máxima	13.7
91023	7	Sololá	701	Sololá	4	Finca Santa Victoria	2	Febrero	2023-02-20T00:00:00	2024-11-08T19:00:00	3	Temperatura mínima	11.7
91024	7	Sololá	701	Sololá	4	Finca Santa Victoria	2	Febrero	2023-02-20T00:00:00	2024-11-08T19:00:00	5	Humedad	78
91025	7	Sololá	701	Sololá	4	Finca Santa Victoria	2	Febrero	2023-02-20T00:00:00	2024-11-08T19:00:00	6	Velocidad del viento	1.6
91026	7	Sololá	701	Sololá	4	Finca Santa Victoria	2	Febrero	2023-02-20T00:00:00	2024-11-08T19:00:00	7	Dirección del viento	1.61
91027	7	Sololá	701	Sololá	4	Finca Santa Victoria	2	Febrero	2023-02-20T00:00:00	2024-11-08T19:00:00	1	Precipitación	0
91028	7	Sololá	701	Sololá	4	Finca Santa Victoria	2	Febrero	2023-02-20T00:00:00	2024-11-08T19:00:00	8	Radiación solar	0
91029	7	Sololá	701	Sololá	4	Finca Santa Victoria	2	Febrero	2023-02-20T00:00:00	2024-11-08T20:00:00	2	Temperatura media	11.5
91030	7	Sololá	701	Sololá	4	Finca Santa Victoria	2	Febrero	2023-02-20T00:00:00	2024-11-08T20:00:00	4	Temperatura máxima	11.7
91031	7	Sololá	701	Sololá	4	Finca Santa Victoria	2	Febrero	2023-02-20T00:00:00	2024-11-08T20:00:00	3	Temperatura mínima	11.4
91032	7	Sololá	701	Sololá	4	Finca Santa Victoria	2	Febrero	2023-02-20T00:00:00	2024-11-08T20:00:00	5	Humedad	78
91033	7	Sololá	701	Sololá	4	Finca Santa Victoria	2	Febrero	2023-02-20T00:00:00	2024-11-08T20:00:00	6	Velocidad del viento	3.2
91034	7	Sololá	701	Sololá	4	Finca Santa Victoria	2	Febrero	2023-02-20T00:00:00	2024-11-08T20:00:00	7	Dirección del viento	3.22
91035	7	Sololá	701	Sololá	4	Finca Santa Victoria	2	Febrero	2023-02-20T00:00:00	2024-11-08T20:00:00	1	Precipitación	0
91036	7	Sololá	701	Sololá	4	Finca Santa Victoria	2	Febrero	2023-02-20T00:00:00	2024-11-08T20:00:00	8	Radiación solar	0
91037	7	Sololá	701	Sololá	4	Finca Santa Victoria	2	Febrero	2023-02-20T00:00:00	2024-11-08T21:00:00	2	Temperatura media	11
91038	7	Sololá	701	Sololá	4	Finca Santa Victoria	2	Febrero	2023-02-20T00:00:00	2024-11-08T21:00:00	4	Temperatura máxima	11.5
91039	7	Sololá	701	Sololá	4	Finca Santa Victoria	2	Febrero	2023-02-20T00:00:00	2024-11-08T21:00:00	3	Temperatura mínima	10.9
91040	7	Sololá	701	Sololá	4	Finca Santa Victoria	2	Febrero	2023-02-20T00:00:00	2024-11-08T21:00:00	5	Humedad	81
91041	7	Sololá	701	Sololá	4	Finca Santa Victoria	2	Febrero	2023-02-20T00:00:00	2024-11-08T21:00:00	6	Velocidad del viento	3.2
91042	7	Sololá	701	Sololá	4	Finca Santa Victoria	2	Febrero	2023-02-20T00:00:00	2024-11-08T21:00:00	7	Dirección del viento	3.22
91043	7	Sololá	701	Sololá	4	Finca Santa Victoria	2	Febrero	2023-02-20T00:00:00	2024-11-08T21:00:00	1	Precipitación	0
91044	7	Sololá	701	Sololá	4	Finca Santa Victoria	2	Febrero	2023-02-20T00:00:00	2024-11-08T21:00:00	8	Radiación solar	0
91045	7	Sololá	701	Sololá	4	Finca Santa Victoria	2	Febrero	2023-02-20T00:00:00	2024-11-08T22:00:00	2	Temperatura media	10.3
91046	7	Sololá	701	Sololá	4	Finca Santa Victoria	2	Febrero	2023-02-20T00:00:00	2024-11-08T22:00:00	4	Temperatura máxima	11
91047	7	Sololá	701	Sololá	4	Finca Santa Victoria	2	Febrero	2023-02-20T00:00:00	2024-11-08T22:00:00	3	Temperatura mínima	10.3
91048	7	Sololá	701	Sololá	4	Finca Santa Victoria	2	Febrero	2023-02-20T00:00:00	2024-11-08T22:00:00	5	Humedad	83
91049	7	Sololá	701	Sololá	4	Finca Santa Victoria	2	Febrero	2023-02-20T00:00:00	2024-11-08T22:00:00	6	Velocidad del viento	1.6
91050	7	Sololá	701	Sololá	4	Finca Santa Victoria	2	Febrero	2023-02-20T00:00:00	2024-11-08T22:00:00	7	Dirección del viento	1.61
91051	7	Sololá	701	Sololá	4	Finca Santa Victoria	2	Febrero	2023-02-20T00:00:00	2024-11-08T22:00:00	1	Precipitación	0
91052	7	Sololá	701	Sololá	4	Finca Santa Victoria	2	Febrero	2023-02-20T00:00:00	2024-11-08T22:00:00	8	Radiación solar	0
91053	7	Sololá	701	Sololá	4	Finca Santa Victoria	2	Febrero	2023-02-20T00:00:00	2024-11-08T23:00:00	2	Temperatura media	10.2
91054	7	Sololá	701	Sololá	4	Finca Santa Victoria	2	Febrero	2023-02-20T00:00:00	2024-11-08T23:00:00	4	Temperatura máxima	10.3
91055	7	Sololá	701	Sololá	4	Finca Santa Victoria	2	Febrero	2023-02-20T00:00:00	2024-11-08T23:00:00	3	Temperatura mínima	9.8
91056	7	Sololá	701	Sololá	4	Finca Santa Victoria	2	Febrero	2023-02-20T00:00:00	2024-11-08T23:00:00	5	Humedad	82
91057	7	Sololá	701	Sololá	4	Finca Santa Victoria	2	Febrero	2023-02-20T00:00:00	2024-11-08T23:00:00	6	Velocidad del viento	1.6
91058	7	Sololá	701	Sololá	4	Finca Santa Victoria	2	Febrero	2023-02-20T00:00:00	2024-11-08T23:00:00	7	Dirección del viento	1.61
91059	7	Sololá	701	Sololá	4	Finca Santa Victoria	2	Febrero	2023-02-20T00:00:00	2024-11-08T23:00:00	1	Precipitación	0
91060	7	Sololá	701	Sololá	4	Finca Santa Victoria	2	Febrero	2023-02-20T00:00:00	2024-11-08T23:00:00	8	Radiación solar	0
91061	7	Sololá	701	Sololá	4	Finca Santa Victoria	2	Febrero	2023-02-21T00:00:00	2024-11-08T00:00:00	2	Temperatura media	9.1
91062	7	Sololá	701	Sololá	4	Finca Santa Victoria	2	Febrero	2023-02-21T00:00:00	2024-11-08T00:00:00	4	Temperatura máxima	10.2
91063	7	Sololá	701	Sololá	4	Finca Santa Victoria	2	Febrero	2023-02-21T00:00:00	2024-11-08T00:00:00	3	Temperatura mínima	9.1
91064	7	Sololá	701	Sololá	4	Finca Santa Victoria	2	Febrero	2023-02-21T00:00:00	2024-11-08T00:00:00	5	Humedad	86
91065	7	Sololá	701	Sololá	4	Finca Santa Victoria	2	Febrero	2023-02-21T00:00:00	2024-11-08T00:00:00	6	Velocidad del viento	1.6
91066	7	Sololá	701	Sololá	4	Finca Santa Victoria	2	Febrero	2023-02-21T00:00:00	2024-11-08T00:00:00	7	Dirección del viento	1.61
91067	7	Sololá	701	Sololá	4	Finca Santa Victoria	2	Febrero	2023-02-21T00:00:00	2024-11-08T00:00:00	1	Precipitación	0
91068	7	Sololá	701	Sololá	4	Finca Santa Victoria	2	Febrero	2023-02-21T00:00:00	2024-11-08T00:00:00	8	Radiación solar	0
91069	7	Sololá	701	Sololá	4	Finca Santa Victoria	2	Febrero	2023-02-21T00:00:00	2024-11-08T01:00:00	2	Temperatura media	8.7
91070	7	Sololá	701	Sololá	4	Finca Santa Victoria	2	Febrero	2023-02-21T00:00:00	2024-11-08T01:00:00	4	Temperatura máxima	9.3
91071	7	Sololá	701	Sololá	4	Finca Santa Victoria	2	Febrero	2023-02-21T00:00:00	2024-11-08T01:00:00	3	Temperatura mínima	8.7
91072	7	Sololá	701	Sololá	4	Finca Santa Victoria	2	Febrero	2023-02-21T00:00:00	2024-11-08T01:00:00	5	Humedad	90
91073	7	Sololá	701	Sololá	4	Finca Santa Victoria	2	Febrero	2023-02-21T00:00:00	2024-11-08T01:00:00	6	Velocidad del viento	1.6
91074	7	Sololá	701	Sololá	4	Finca Santa Victoria	2	Febrero	2023-02-21T00:00:00	2024-11-08T01:00:00	7	Dirección del viento	1.61
91075	7	Sololá	701	Sololá	4	Finca Santa Victoria	2	Febrero	2023-02-21T00:00:00	2024-11-08T01:00:00	1	Precipitación	0
91076	7	Sololá	701	Sololá	4	Finca Santa Victoria	2	Febrero	2023-02-21T00:00:00	2024-11-08T01:00:00	8	Radiación solar	0
91077	7	Sololá	701	Sololá	4	Finca Santa Victoria	2	Febrero	2023-02-21T00:00:00	2024-11-08T02:00:00	2	Temperatura media	8.5
91078	7	Sololá	701	Sololá	4	Finca Santa Victoria	2	Febrero	2023-02-21T00:00:00	2024-11-08T02:00:00	4	Temperatura máxima	8.7
91079	7	Sololá	701	Sololá	4	Finca Santa Victoria	2	Febrero	2023-02-21T00:00:00	2024-11-08T02:00:00	3	Temperatura mínima	8.3
91080	7	Sololá	701	Sololá	4	Finca Santa Victoria	2	Febrero	2023-02-21T00:00:00	2024-11-08T02:00:00	5	Humedad	90
91081	7	Sololá	701	Sololá	4	Finca Santa Victoria	2	Febrero	2023-02-21T00:00:00	2024-11-08T02:00:00	6	Velocidad del viento	1.6
91082	7	Sololá	701	Sololá	4	Finca Santa Victoria	2	Febrero	2023-02-21T00:00:00	2024-11-08T02:00:00	7	Dirección del viento	1.61
91083	7	Sololá	701	Sololá	4	Finca Santa Victoria	2	Febrero	2023-02-21T00:00:00	2024-11-08T02:00:00	1	Precipitación	0
91084	7	Sololá	701	Sololá	4	Finca Santa Victoria	2	Febrero	2023-02-21T00:00:00	2024-11-08T02:00:00	8	Radiación solar	0
91085	7	Sololá	701	Sololá	4	Finca Santa Victoria	2	Febrero	2023-02-21T00:00:00	2024-11-08T03:00:00	2	Temperatura media	8.2
91086	7	Sololá	701	Sololá	4	Finca Santa Victoria	2	Febrero	2023-02-21T00:00:00	2024-11-08T03:00:00	4	Temperatura máxima	8.6
91087	7	Sololá	701	Sololá	4	Finca Santa Victoria	2	Febrero	2023-02-21T00:00:00	2024-11-08T03:00:00	3	Temperatura mínima	8
91088	7	Sololá	701	Sololá	4	Finca Santa Victoria	2	Febrero	2023-02-21T00:00:00	2024-11-08T03:00:00	5	Humedad	90
91089	7	Sololá	701	Sololá	4	Finca Santa Victoria	2	Febrero	2023-02-21T00:00:00	2024-11-08T03:00:00	6	Velocidad del viento	1.6
91090	7	Sololá	701	Sololá	4	Finca Santa Victoria	2	Febrero	2023-02-21T00:00:00	2024-11-08T03:00:00	7	Dirección del viento	1.61
91091	7	Sololá	701	Sololá	4	Finca Santa Victoria	2	Febrero	2023-02-21T00:00:00	2024-11-08T03:00:00	1	Precipitación	0
91092	7	Sololá	701	Sololá	4	Finca Santa Victoria	2	Febrero	2023-02-21T00:00:00	2024-11-08T03:00:00	8	Radiación solar	0
91093	7	Sololá	701	Sololá	4	Finca Santa Victoria	2	Febrero	2023-02-21T00:00:00	2024-11-08T04:00:00	2	Temperatura media	8.9
91094	7	Sololá	701	Sololá	4	Finca Santa Victoria	2	Febrero	2023-02-21T00:00:00	2024-11-08T04:00:00	4	Temperatura máxima	8.9
91095	7	Sololá	701	Sololá	4	Finca Santa Victoria	2	Febrero	2023-02-21T00:00:00	2024-11-08T04:00:00	3	Temperatura mínima	8.2
91096	7	Sololá	701	Sololá	4	Finca Santa Victoria	2	Febrero	2023-02-21T00:00:00	2024-11-08T04:00:00	5	Humedad	86
91097	7	Sololá	701	Sololá	4	Finca Santa Victoria	2	Febrero	2023-02-21T00:00:00	2024-11-08T04:00:00	6	Velocidad del viento	3.2
91098	7	Sololá	701	Sololá	4	Finca Santa Victoria	2	Febrero	2023-02-21T00:00:00	2024-11-08T04:00:00	7	Dirección del viento	3.22
91099	7	Sololá	701	Sololá	4	Finca Santa Victoria	2	Febrero	2023-02-21T00:00:00	2024-11-08T04:00:00	1	Precipitación	0
91100	7	Sololá	701	Sololá	4	Finca Santa Victoria	2	Febrero	2023-02-21T00:00:00	2024-11-08T04:00:00	8	Radiación solar	0
91101	7	Sololá	701	Sololá	4	Finca Santa Victoria	2	Febrero	2023-02-21T00:00:00	2024-11-08T05:00:00	2	Temperatura media	9.1
91102	7	Sololá	701	Sololá	4	Finca Santa Victoria	2	Febrero	2023-02-21T00:00:00	2024-11-08T05:00:00	4	Temperatura máxima	9.3
91103	7	Sololá	701	Sololá	4	Finca Santa Victoria	2	Febrero	2023-02-21T00:00:00	2024-11-08T05:00:00	3	Temperatura mínima	8.8
91104	7	Sololá	701	Sololá	4	Finca Santa Victoria	2	Febrero	2023-02-21T00:00:00	2024-11-08T05:00:00	5	Humedad	87
91105	7	Sololá	701	Sololá	4	Finca Santa Victoria	2	Febrero	2023-02-21T00:00:00	2024-11-08T05:00:00	6	Velocidad del viento	1.6
91106	7	Sololá	701	Sololá	4	Finca Santa Victoria	2	Febrero	2023-02-21T00:00:00	2024-11-08T05:00:00	7	Dirección del viento	1.61
91107	7	Sololá	701	Sololá	4	Finca Santa Victoria	2	Febrero	2023-02-21T00:00:00	2024-11-08T05:00:00	1	Precipitación	0
91108	7	Sololá	701	Sololá	4	Finca Santa Victoria	2	Febrero	2023-02-21T00:00:00	2024-11-08T05:00:00	8	Radiación solar	0
91109	7	Sololá	701	Sololá	4	Finca Santa Victoria	2	Febrero	2023-02-21T00:00:00	2024-11-08T06:00:00	2	Temperatura media	10.2
91110	7	Sololá	701	Sololá	4	Finca Santa Victoria	2	Febrero	2023-02-21T00:00:00	2024-11-08T06:00:00	4	Temperatura máxima	10.3
91111	7	Sololá	701	Sololá	4	Finca Santa Victoria	2	Febrero	2023-02-21T00:00:00	2024-11-08T06:00:00	3	Temperatura mínima	9.1
91112	7	Sololá	701	Sololá	4	Finca Santa Victoria	2	Febrero	2023-02-21T00:00:00	2024-11-08T06:00:00	5	Humedad	85
91113	7	Sololá	701	Sololá	4	Finca Santa Victoria	2	Febrero	2023-02-21T00:00:00	2024-11-08T06:00:00	6	Velocidad del viento	1.6
91114	7	Sololá	701	Sololá	4	Finca Santa Victoria	2	Febrero	2023-02-21T00:00:00	2024-11-08T06:00:00	7	Dirección del viento	1.61
91115	7	Sololá	701	Sololá	4	Finca Santa Victoria	2	Febrero	2023-02-21T00:00:00	2024-11-08T06:00:00	1	Precipitación	0
91116	7	Sololá	701	Sololá	4	Finca Santa Victoria	2	Febrero	2023-02-21T00:00:00	2024-11-08T06:00:00	8	Radiación solar	0
91117	7	Sololá	701	Sololá	4	Finca Santa Victoria	2	Febrero	2023-02-21T00:00:00	2024-11-08T07:00:00	2	Temperatura media	10.6
91118	7	Sololá	701	Sololá	4	Finca Santa Victoria	2	Febrero	2023-02-21T00:00:00	2024-11-08T07:00:00	4	Temperatura máxima	10.6
91119	7	Sololá	701	Sololá	4	Finca Santa Victoria	2	Febrero	2023-02-21T00:00:00	2024-11-08T07:00:00	3	Temperatura mínima	10.1
91120	7	Sololá	701	Sololá	4	Finca Santa Victoria	2	Febrero	2023-02-21T00:00:00	2024-11-08T07:00:00	5	Humedad	86
91121	7	Sololá	701	Sololá	4	Finca Santa Victoria	2	Febrero	2023-02-21T00:00:00	2024-11-08T07:00:00	6	Velocidad del viento	1.6
91122	7	Sololá	701	Sololá	4	Finca Santa Victoria	2	Febrero	2023-02-21T00:00:00	2024-11-08T07:00:00	7	Dirección del viento	1.61
91123	7	Sololá	701	Sololá	4	Finca Santa Victoria	2	Febrero	2023-02-21T00:00:00	2024-11-08T07:00:00	1	Precipitación	0
91124	7	Sololá	701	Sololá	4	Finca Santa Victoria	2	Febrero	2023-02-21T00:00:00	2024-11-08T07:00:00	8	Radiación solar	9
91125	7	Sololá	701	Sololá	4	Finca Santa Victoria	2	Febrero	2023-02-21T00:00:00	2024-11-08T08:00:00	2	Temperatura media	12.2
91126	7	Sololá	701	Sololá	4	Finca Santa Victoria	2	Febrero	2023-02-21T00:00:00	2024-11-08T08:00:00	4	Temperatura máxima	12.2
91127	7	Sololá	701	Sololá	4	Finca Santa Victoria	2	Febrero	2023-02-21T00:00:00	2024-11-08T08:00:00	3	Temperatura mínima	10.6
91128	7	Sololá	701	Sololá	4	Finca Santa Victoria	2	Febrero	2023-02-21T00:00:00	2024-11-08T08:00:00	5	Humedad	77
91129	7	Sololá	701	Sololá	4	Finca Santa Victoria	2	Febrero	2023-02-21T00:00:00	2024-11-08T08:00:00	6	Velocidad del viento	1.6
91130	7	Sololá	701	Sololá	4	Finca Santa Victoria	2	Febrero	2023-02-21T00:00:00	2024-11-08T08:00:00	7	Dirección del viento	1.61
91131	7	Sololá	701	Sololá	4	Finca Santa Victoria	2	Febrero	2023-02-21T00:00:00	2024-11-08T08:00:00	1	Precipitación	0
91132	7	Sololá	701	Sololá	4	Finca Santa Victoria	2	Febrero	2023-02-21T00:00:00	2024-11-08T08:00:00	8	Radiación solar	67
91133	7	Sololá	701	Sololá	4	Finca Santa Victoria	2	Febrero	2023-02-21T00:00:00	2024-11-08T09:00:00	2	Temperatura media	14
91134	7	Sololá	701	Sololá	4	Finca Santa Victoria	2	Febrero	2023-02-21T00:00:00	2024-11-08T09:00:00	4	Temperatura máxima	14
91135	7	Sololá	701	Sololá	4	Finca Santa Victoria	2	Febrero	2023-02-21T00:00:00	2024-11-08T09:00:00	3	Temperatura mínima	12.2
91136	7	Sololá	701	Sololá	4	Finca Santa Victoria	2	Febrero	2023-02-21T00:00:00	2024-11-08T09:00:00	5	Humedad	74
91137	7	Sololá	701	Sololá	4	Finca Santa Victoria	2	Febrero	2023-02-21T00:00:00	2024-11-08T09:00:00	6	Velocidad del viento	3.2
91138	7	Sololá	701	Sololá	4	Finca Santa Victoria	2	Febrero	2023-02-21T00:00:00	2024-11-08T09:00:00	7	Dirección del viento	3.22
91139	7	Sololá	701	Sololá	4	Finca Santa Victoria	2	Febrero	2023-02-21T00:00:00	2024-11-08T09:00:00	1	Precipitación	0
91140	7	Sololá	701	Sololá	4	Finca Santa Victoria	2	Febrero	2023-02-21T00:00:00	2024-11-08T09:00:00	8	Radiación solar	130
91141	7	Sololá	701	Sololá	4	Finca Santa Victoria	2	Febrero	2023-02-21T00:00:00	2024-11-08T10:00:00	2	Temperatura media	17.4
91142	7	Sololá	701	Sololá	4	Finca Santa Victoria	2	Febrero	2023-02-21T00:00:00	2024-11-08T10:00:00	4	Temperatura máxima	17.9
91143	7	Sololá	701	Sololá	4	Finca Santa Victoria	2	Febrero	2023-02-21T00:00:00	2024-11-08T10:00:00	3	Temperatura mínima	14.1
91144	7	Sololá	701	Sololá	4	Finca Santa Victoria	2	Febrero	2023-02-21T00:00:00	2024-11-08T10:00:00	5	Humedad	65
91145	7	Sololá	701	Sololá	4	Finca Santa Victoria	2	Febrero	2023-02-21T00:00:00	2024-11-08T10:00:00	6	Velocidad del viento	4.8
91146	7	Sololá	701	Sololá	4	Finca Santa Victoria	2	Febrero	2023-02-21T00:00:00	2024-11-08T10:00:00	7	Dirección del viento	4.83
91147	7	Sololá	701	Sololá	4	Finca Santa Victoria	2	Febrero	2023-02-21T00:00:00	2024-11-08T10:00:00	1	Precipitación	0
91148	7	Sololá	701	Sololá	4	Finca Santa Victoria	2	Febrero	2023-02-21T00:00:00	2024-11-08T10:00:00	8	Radiación solar	638
91149	7	Sololá	701	Sololá	4	Finca Santa Victoria	2	Febrero	2023-02-21T00:00:00	2024-11-08T11:00:00	2	Temperatura media	18.8
91150	7	Sololá	701	Sololá	4	Finca Santa Victoria	2	Febrero	2023-02-21T00:00:00	2024-11-08T11:00:00	4	Temperatura máxima	19.7
91151	7	Sololá	701	Sololá	4	Finca Santa Victoria	2	Febrero	2023-02-21T00:00:00	2024-11-08T11:00:00	3	Temperatura mínima	17.4
91152	7	Sololá	701	Sololá	4	Finca Santa Victoria	2	Febrero	2023-02-21T00:00:00	2024-11-08T11:00:00	5	Humedad	61
91153	7	Sololá	701	Sololá	4	Finca Santa Victoria	2	Febrero	2023-02-21T00:00:00	2024-11-08T11:00:00	6	Velocidad del viento	4.8
91154	7	Sololá	701	Sololá	4	Finca Santa Victoria	2	Febrero	2023-02-21T00:00:00	2024-11-08T11:00:00	7	Dirección del viento	4.83
91155	7	Sololá	701	Sololá	4	Finca Santa Victoria	2	Febrero	2023-02-21T00:00:00	2024-11-08T11:00:00	1	Precipitación	0
91156	7	Sololá	701	Sololá	4	Finca Santa Victoria	2	Febrero	2023-02-21T00:00:00	2024-11-08T11:00:00	8	Radiación solar	832
91157	7	Sololá	701	Sololá	4	Finca Santa Victoria	2	Febrero	2023-02-21T00:00:00	2024-11-08T12:00:00	2	Temperatura media	17.4
91158	7	Sololá	701	Sololá	4	Finca Santa Victoria	2	Febrero	2023-02-21T00:00:00	2024-11-08T12:00:00	4	Temperatura máxima	19.4
91159	7	Sololá	701	Sololá	4	Finca Santa Victoria	2	Febrero	2023-02-21T00:00:00	2024-11-08T12:00:00	3	Temperatura mínima	17.3
91160	7	Sololá	701	Sololá	4	Finca Santa Victoria	2	Febrero	2023-02-21T00:00:00	2024-11-08T12:00:00	5	Humedad	64
91161	7	Sololá	701	Sololá	4	Finca Santa Victoria	2	Febrero	2023-02-21T00:00:00	2024-11-08T12:00:00	6	Velocidad del viento	4.8
91162	7	Sololá	701	Sololá	4	Finca Santa Victoria	2	Febrero	2023-02-21T00:00:00	2024-11-08T12:00:00	7	Dirección del viento	4.83
91163	7	Sololá	701	Sololá	4	Finca Santa Victoria	2	Febrero	2023-02-21T00:00:00	2024-11-08T12:00:00	1	Precipitación	0
91164	7	Sololá	701	Sololá	4	Finca Santa Victoria	2	Febrero	2023-02-21T00:00:00	2024-11-08T12:00:00	8	Radiación solar	508
91165	7	Sololá	701	Sololá	4	Finca Santa Victoria	2	Febrero	2023-02-21T00:00:00	2024-11-08T13:00:00	2	Temperatura media	17.1
91166	7	Sololá	701	Sololá	4	Finca Santa Victoria	2	Febrero	2023-02-21T00:00:00	2024-11-08T13:00:00	4	Temperatura máxima	18.1
91167	7	Sololá	701	Sololá	4	Finca Santa Victoria	2	Febrero	2023-02-21T00:00:00	2024-11-08T13:00:00	3	Temperatura mínima	17.1
91168	7	Sololá	701	Sololá	4	Finca Santa Victoria	2	Febrero	2023-02-21T00:00:00	2024-11-08T13:00:00	5	Humedad	68
91169	7	Sololá	701	Sololá	4	Finca Santa Victoria	2	Febrero	2023-02-21T00:00:00	2024-11-08T13:00:00	6	Velocidad del viento	3.2
91170	7	Sololá	701	Sololá	4	Finca Santa Victoria	2	Febrero	2023-02-21T00:00:00	2024-11-08T13:00:00	7	Dirección del viento	3.22
91171	7	Sololá	701	Sololá	4	Finca Santa Victoria	2	Febrero	2023-02-21T00:00:00	2024-11-08T13:00:00	1	Precipitación	0
91172	7	Sololá	701	Sololá	4	Finca Santa Victoria	2	Febrero	2023-02-21T00:00:00	2024-11-08T13:00:00	8	Radiación solar	241
91173	7	Sololá	701	Sololá	4	Finca Santa Victoria	2	Febrero	2023-02-21T00:00:00	2024-11-08T14:00:00	2	Temperatura media	17.6
91174	7	Sololá	701	Sololá	4	Finca Santa Victoria	2	Febrero	2023-02-21T00:00:00	2024-11-08T14:00:00	4	Temperatura máxima	17.9
91175	7	Sololá	701	Sololá	4	Finca Santa Victoria	2	Febrero	2023-02-21T00:00:00	2024-11-08T14:00:00	3	Temperatura mínima	16.7
91176	7	Sololá	701	Sololá	4	Finca Santa Victoria	2	Febrero	2023-02-21T00:00:00	2024-11-08T14:00:00	5	Humedad	71
91177	7	Sololá	701	Sololá	4	Finca Santa Victoria	2	Febrero	2023-02-21T00:00:00	2024-11-08T14:00:00	6	Velocidad del viento	3.2
91178	7	Sololá	701	Sololá	4	Finca Santa Victoria	2	Febrero	2023-02-21T00:00:00	2024-11-08T14:00:00	7	Dirección del viento	3.22
91179	7	Sololá	701	Sololá	4	Finca Santa Victoria	2	Febrero	2023-02-21T00:00:00	2024-11-08T14:00:00	1	Precipitación	0
91180	7	Sololá	701	Sololá	4	Finca Santa Victoria	2	Febrero	2023-02-21T00:00:00	2024-11-08T14:00:00	8	Radiación solar	200
91181	7	Sololá	701	Sololá	4	Finca Santa Victoria	2	Febrero	2023-02-21T00:00:00	2024-11-08T15:00:00	2	Temperatura media	16.7
91182	7	Sololá	701	Sololá	4	Finca Santa Victoria	2	Febrero	2023-02-21T00:00:00	2024-11-08T15:00:00	4	Temperatura máxima	17.6
91183	7	Sololá	701	Sololá	4	Finca Santa Victoria	2	Febrero	2023-02-21T00:00:00	2024-11-08T15:00:00	3	Temperatura mínima	16.4
91184	7	Sololá	701	Sololá	4	Finca Santa Victoria	2	Febrero	2023-02-21T00:00:00	2024-11-08T15:00:00	5	Humedad	74
91185	7	Sololá	701	Sololá	4	Finca Santa Victoria	2	Febrero	2023-02-21T00:00:00	2024-11-08T15:00:00	6	Velocidad del viento	3.2
91186	7	Sololá	701	Sololá	4	Finca Santa Victoria	2	Febrero	2023-02-21T00:00:00	2024-11-08T15:00:00	7	Dirección del viento	3.22
91187	7	Sololá	701	Sololá	4	Finca Santa Victoria	2	Febrero	2023-02-21T00:00:00	2024-11-08T15:00:00	1	Precipitación	0
91188	7	Sololá	701	Sololá	4	Finca Santa Victoria	2	Febrero	2023-02-21T00:00:00	2024-11-08T15:00:00	8	Radiación solar	114
91189	7	Sololá	701	Sololá	4	Finca Santa Victoria	2	Febrero	2023-02-21T00:00:00	2024-11-08T16:00:00	2	Temperatura media	16.7
91190	7	Sololá	701	Sololá	4	Finca Santa Victoria	2	Febrero	2023-02-21T00:00:00	2024-11-08T16:00:00	4	Temperatura máxima	16.7
91191	7	Sololá	701	Sololá	4	Finca Santa Victoria	2	Febrero	2023-02-21T00:00:00	2024-11-08T16:00:00	3	Temperatura mínima	16.4
91192	7	Sololá	701	Sololá	4	Finca Santa Victoria	2	Febrero	2023-02-21T00:00:00	2024-11-08T16:00:00	5	Humedad	76
91193	7	Sololá	701	Sololá	4	Finca Santa Victoria	2	Febrero	2023-02-21T00:00:00	2024-11-08T16:00:00	6	Velocidad del viento	4.8
91194	7	Sololá	701	Sololá	4	Finca Santa Victoria	2	Febrero	2023-02-21T00:00:00	2024-11-08T16:00:00	7	Dirección del viento	4.83
91195	7	Sololá	701	Sololá	4	Finca Santa Victoria	2	Febrero	2023-02-21T00:00:00	2024-11-08T16:00:00	1	Precipitación	0
91196	7	Sololá	701	Sololá	4	Finca Santa Victoria	2	Febrero	2023-02-21T00:00:00	2024-11-08T16:00:00	8	Radiación solar	118
91197	7	Sololá	701	Sololá	4	Finca Santa Victoria	2	Febrero	2023-02-21T00:00:00	2024-11-08T17:00:00	2	Temperatura media	16.4
91198	7	Sololá	701	Sololá	4	Finca Santa Victoria	2	Febrero	2023-02-21T00:00:00	2024-11-08T17:00:00	4	Temperatura máxima	17.7
91199	7	Sololá	701	Sololá	4	Finca Santa Victoria	2	Febrero	2023-02-21T00:00:00	2024-11-08T17:00:00	3	Temperatura mínima	16.2
91200	7	Sololá	701	Sololá	4	Finca Santa Victoria	2	Febrero	2023-02-21T00:00:00	2024-11-08T17:00:00	5	Humedad	81
91201	7	Sololá	701	Sololá	4	Finca Santa Victoria	2	Febrero	2023-02-21T00:00:00	2024-11-08T17:00:00	6	Velocidad del viento	3.2
91202	7	Sololá	701	Sololá	4	Finca Santa Victoria	2	Febrero	2023-02-21T00:00:00	2024-11-08T17:00:00	7	Dirección del viento	3.22
91203	7	Sololá	701	Sololá	4	Finca Santa Victoria	2	Febrero	2023-02-21T00:00:00	2024-11-08T17:00:00	1	Precipitación	0
91204	7	Sololá	701	Sololá	4	Finca Santa Victoria	2	Febrero	2023-02-21T00:00:00	2024-11-08T17:00:00	8	Radiación solar	193
91205	7	Sololá	701	Sololá	4	Finca Santa Victoria	2	Febrero	2023-02-21T00:00:00	2024-11-08T18:00:00	2	Temperatura media	14.7
91206	7	Sololá	701	Sololá	4	Finca Santa Victoria	2	Febrero	2023-02-21T00:00:00	2024-11-08T18:00:00	4	Temperatura máxima	16.8
91207	7	Sololá	701	Sololá	4	Finca Santa Victoria	2	Febrero	2023-02-21T00:00:00	2024-11-08T18:00:00	3	Temperatura mínima	14.7
91208	7	Sololá	701	Sololá	4	Finca Santa Victoria	2	Febrero	2023-02-21T00:00:00	2024-11-08T18:00:00	5	Humedad	91
91209	7	Sololá	701	Sololá	4	Finca Santa Victoria	2	Febrero	2023-02-21T00:00:00	2024-11-08T18:00:00	6	Velocidad del viento	3.2
91210	7	Sololá	701	Sololá	4	Finca Santa Victoria	2	Febrero	2023-02-21T00:00:00	2024-11-08T18:00:00	7	Dirección del viento	3.22
91211	7	Sololá	701	Sololá	4	Finca Santa Victoria	2	Febrero	2023-02-21T00:00:00	2024-11-08T18:00:00	1	Precipitación	0
91212	7	Sololá	701	Sololá	4	Finca Santa Victoria	2	Febrero	2023-02-21T00:00:00	2024-11-08T18:00:00	8	Radiación solar	60
91213	7	Sololá	701	Sololá	4	Finca Santa Victoria	2	Febrero	2023-02-21T00:00:00	2024-11-08T19:00:00	2	Temperatura media	13.8
91214	7	Sololá	701	Sololá	4	Finca Santa Victoria	2	Febrero	2023-02-21T00:00:00	2024-11-08T19:00:00	4	Temperatura máxima	14.7
91215	7	Sololá	701	Sololá	4	Finca Santa Victoria	2	Febrero	2023-02-21T00:00:00	2024-11-08T19:00:00	3	Temperatura mínima	13.7
91216	7	Sololá	701	Sololá	4	Finca Santa Victoria	2	Febrero	2023-02-21T00:00:00	2024-11-08T19:00:00	5	Humedad	94
91217	7	Sololá	701	Sololá	4	Finca Santa Victoria	2	Febrero	2023-02-21T00:00:00	2024-11-08T19:00:00	6	Velocidad del viento	1.6
91218	7	Sololá	701	Sololá	4	Finca Santa Victoria	2	Febrero	2023-02-21T00:00:00	2024-11-08T19:00:00	7	Dirección del viento	1.61
91219	7	Sololá	701	Sololá	4	Finca Santa Victoria	2	Febrero	2023-02-21T00:00:00	2024-11-08T19:00:00	1	Precipitación	0
91220	7	Sololá	701	Sololá	4	Finca Santa Victoria	2	Febrero	2023-02-21T00:00:00	2024-11-08T19:00:00	8	Radiación solar	0
91221	7	Sololá	701	Sololá	4	Finca Santa Victoria	2	Febrero	2023-02-21T00:00:00	2024-11-08T20:00:00	2	Temperatura media	12.8
91222	7	Sololá	701	Sololá	4	Finca Santa Victoria	2	Febrero	2023-02-21T00:00:00	2024-11-08T20:00:00	4	Temperatura máxima	13.7
91223	7	Sololá	701	Sololá	4	Finca Santa Victoria	2	Febrero	2023-02-21T00:00:00	2024-11-08T20:00:00	3	Temperatura mínima	12.8
91224	7	Sololá	701	Sololá	4	Finca Santa Victoria	2	Febrero	2023-02-21T00:00:00	2024-11-08T20:00:00	5	Humedad	96
91225	7	Sololá	701	Sololá	4	Finca Santa Victoria	2	Febrero	2023-02-21T00:00:00	2024-11-08T20:00:00	6	Velocidad del viento	0
91226	7	Sololá	701	Sololá	4	Finca Santa Victoria	2	Febrero	2023-02-21T00:00:00	2024-11-08T20:00:00	7	Dirección del viento	0
91227	7	Sololá	701	Sololá	4	Finca Santa Victoria	2	Febrero	2023-02-21T00:00:00	2024-11-08T20:00:00	1	Precipitación	0
91228	7	Sololá	701	Sololá	4	Finca Santa Victoria	2	Febrero	2023-02-21T00:00:00	2024-11-08T20:00:00	8	Radiación solar	0
91229	7	Sololá	701	Sololá	4	Finca Santa Victoria	2	Febrero	2023-02-21T00:00:00	2024-11-08T21:00:00	2	Temperatura media	12.2
91230	7	Sololá	701	Sololá	4	Finca Santa Victoria	2	Febrero	2023-02-21T00:00:00	2024-11-08T21:00:00	4	Temperatura máxima	12.8
91231	7	Sololá	701	Sololá	4	Finca Santa Victoria	2	Febrero	2023-02-21T00:00:00	2024-11-08T21:00:00	3	Temperatura mínima	12.2
91232	7	Sololá	701	Sololá	4	Finca Santa Victoria	2	Febrero	2023-02-21T00:00:00	2024-11-08T21:00:00	5	Humedad	97
91233	7	Sololá	701	Sololá	4	Finca Santa Victoria	2	Febrero	2023-02-21T00:00:00	2024-11-08T21:00:00	6	Velocidad del viento	0
91234	7	Sololá	701	Sololá	4	Finca Santa Victoria	2	Febrero	2023-02-21T00:00:00	2024-11-08T21:00:00	7	Dirección del viento	0
91235	7	Sololá	701	Sololá	4	Finca Santa Victoria	2	Febrero	2023-02-21T00:00:00	2024-11-08T21:00:00	1	Precipitación	0
91236	7	Sololá	701	Sololá	4	Finca Santa Victoria	2	Febrero	2023-02-21T00:00:00	2024-11-08T21:00:00	8	Radiación solar	0
91237	7	Sololá	701	Sololá	4	Finca Santa Victoria	2	Febrero	2023-02-21T00:00:00	2024-11-08T22:00:00	2	Temperatura media	11.6
91238	7	Sololá	701	Sololá	4	Finca Santa Victoria	2	Febrero	2023-02-21T00:00:00	2024-11-08T22:00:00	4	Temperatura máxima	12.3
91239	7	Sololá	701	Sololá	4	Finca Santa Victoria	2	Febrero	2023-02-21T00:00:00	2024-11-08T22:00:00	3	Temperatura mínima	11.6
91240	7	Sololá	701	Sololá	4	Finca Santa Victoria	2	Febrero	2023-02-21T00:00:00	2024-11-08T22:00:00	5	Humedad	95
91241	7	Sololá	701	Sololá	4	Finca Santa Victoria	2	Febrero	2023-02-21T00:00:00	2024-11-08T22:00:00	6	Velocidad del viento	0
91242	7	Sololá	701	Sololá	4	Finca Santa Victoria	2	Febrero	2023-02-21T00:00:00	2024-11-08T22:00:00	7	Dirección del viento	0
91243	7	Sololá	701	Sololá	4	Finca Santa Victoria	2	Febrero	2023-02-21T00:00:00	2024-11-08T22:00:00	1	Precipitación	0
91244	7	Sololá	701	Sololá	4	Finca Santa Victoria	2	Febrero	2023-02-21T00:00:00	2024-11-08T22:00:00	8	Radiación solar	0
91245	7	Sololá	701	Sololá	4	Finca Santa Victoria	2	Febrero	2023-02-21T00:00:00	2024-11-08T23:00:00	2	Temperatura media	11.9
91246	7	Sololá	701	Sololá	4	Finca Santa Victoria	2	Febrero	2023-02-21T00:00:00	2024-11-08T23:00:00	4	Temperatura máxima	11.9
91247	7	Sololá	701	Sololá	4	Finca Santa Victoria	2	Febrero	2023-02-21T00:00:00	2024-11-08T23:00:00	3	Temperatura mínima	11.5
91248	7	Sololá	701	Sololá	4	Finca Santa Victoria	2	Febrero	2023-02-21T00:00:00	2024-11-08T23:00:00	5	Humedad	95
91249	7	Sololá	701	Sololá	4	Finca Santa Victoria	2	Febrero	2023-02-21T00:00:00	2024-11-08T23:00:00	6	Velocidad del viento	0
91250	7	Sololá	701	Sololá	4	Finca Santa Victoria	2	Febrero	2023-02-21T00:00:00	2024-11-08T23:00:00	7	Dirección del viento	0
91251	7	Sololá	701	Sololá	4	Finca Santa Victoria	2	Febrero	2023-02-21T00:00:00	2024-11-08T23:00:00	1	Precipitación	0
91252	7	Sololá	701	Sololá	4	Finca Santa Victoria	2	Febrero	2023-02-21T00:00:00	2024-11-08T23:00:00	8	Radiación solar	0
91253	7	Sololá	701	Sololá	4	Finca Santa Victoria	2	Febrero	2023-02-22T00:00:00	2024-11-08T00:00:00	2	Temperatura media	12.2
91254	7	Sololá	701	Sololá	4	Finca Santa Victoria	2	Febrero	2023-02-22T00:00:00	2024-11-08T00:00:00	4	Temperatura máxima	12.2
91255	7	Sololá	701	Sololá	4	Finca Santa Victoria	2	Febrero	2023-02-22T00:00:00	2024-11-08T00:00:00	3	Temperatura mínima	11.8
91256	7	Sololá	701	Sololá	4	Finca Santa Victoria	2	Febrero	2023-02-22T00:00:00	2024-11-08T00:00:00	5	Humedad	96
91257	7	Sololá	701	Sololá	4	Finca Santa Victoria	2	Febrero	2023-02-22T00:00:00	2024-11-08T00:00:00	6	Velocidad del viento	0
91258	7	Sololá	701	Sololá	4	Finca Santa Victoria	2	Febrero	2023-02-22T00:00:00	2024-11-08T00:00:00	7	Dirección del viento	0
91259	7	Sololá	701	Sololá	4	Finca Santa Victoria	2	Febrero	2023-02-22T00:00:00	2024-11-08T00:00:00	1	Precipitación	0
91260	7	Sololá	701	Sololá	4	Finca Santa Victoria	2	Febrero	2023-02-22T00:00:00	2024-11-08T00:00:00	8	Radiación solar	0
91261	7	Sololá	701	Sololá	4	Finca Santa Victoria	2	Febrero	2023-02-22T00:00:00	2024-11-08T01:00:00	2	Temperatura media	12.5
91262	7	Sololá	701	Sololá	4	Finca Santa Victoria	2	Febrero	2023-02-22T00:00:00	2024-11-08T01:00:00	4	Temperatura máxima	12.6
91263	7	Sololá	701	Sololá	4	Finca Santa Victoria	2	Febrero	2023-02-22T00:00:00	2024-11-08T01:00:00	3	Temperatura mínima	12.2
91264	7	Sololá	701	Sololá	4	Finca Santa Victoria	2	Febrero	2023-02-22T00:00:00	2024-11-08T01:00:00	5	Humedad	95
91265	7	Sololá	701	Sololá	4	Finca Santa Victoria	2	Febrero	2023-02-22T00:00:00	2024-11-08T01:00:00	6	Velocidad del viento	0
91266	7	Sololá	701	Sololá	4	Finca Santa Victoria	2	Febrero	2023-02-22T00:00:00	2024-11-08T01:00:00	7	Dirección del viento	0
91267	7	Sololá	701	Sololá	4	Finca Santa Victoria	2	Febrero	2023-02-22T00:00:00	2024-11-08T01:00:00	1	Precipitación	0
91268	7	Sololá	701	Sololá	4	Finca Santa Victoria	2	Febrero	2023-02-22T00:00:00	2024-11-08T01:00:00	8	Radiación solar	0
91269	7	Sololá	701	Sololá	4	Finca Santa Victoria	2	Febrero	2023-02-22T00:00:00	2024-11-08T02:00:00	2	Temperatura media	12.3
91270	7	Sololá	701	Sololá	4	Finca Santa Victoria	2	Febrero	2023-02-22T00:00:00	2024-11-08T02:00:00	4	Temperatura máxima	12.6
91271	7	Sololá	701	Sololá	4	Finca Santa Victoria	2	Febrero	2023-02-22T00:00:00	2024-11-08T02:00:00	3	Temperatura mínima	12.3
91272	7	Sololá	701	Sololá	4	Finca Santa Victoria	2	Febrero	2023-02-22T00:00:00	2024-11-08T02:00:00	5	Humedad	95
91273	7	Sololá	701	Sololá	4	Finca Santa Victoria	2	Febrero	2023-02-22T00:00:00	2024-11-08T02:00:00	6	Velocidad del viento	0
91274	7	Sololá	701	Sololá	4	Finca Santa Victoria	2	Febrero	2023-02-22T00:00:00	2024-11-08T02:00:00	7	Dirección del viento	0
91275	7	Sololá	701	Sololá	4	Finca Santa Victoria	2	Febrero	2023-02-22T00:00:00	2024-11-08T02:00:00	1	Precipitación	0
91276	7	Sololá	701	Sololá	4	Finca Santa Victoria	2	Febrero	2023-02-22T00:00:00	2024-11-08T02:00:00	8	Radiación solar	0
91277	7	Sololá	701	Sololá	4	Finca Santa Victoria	2	Febrero	2023-02-22T00:00:00	2024-11-08T03:00:00	2	Temperatura media	11.9
91278	7	Sololá	701	Sololá	4	Finca Santa Victoria	2	Febrero	2023-02-22T00:00:00	2024-11-08T03:00:00	4	Temperatura máxima	12.4
91279	7	Sololá	701	Sololá	4	Finca Santa Victoria	2	Febrero	2023-02-22T00:00:00	2024-11-08T03:00:00	3	Temperatura mínima	11.9
91280	7	Sololá	701	Sololá	4	Finca Santa Victoria	2	Febrero	2023-02-22T00:00:00	2024-11-08T03:00:00	5	Humedad	96
91281	7	Sololá	701	Sololá	4	Finca Santa Victoria	2	Febrero	2023-02-22T00:00:00	2024-11-08T03:00:00	6	Velocidad del viento	0
91282	7	Sololá	701	Sololá	4	Finca Santa Victoria	2	Febrero	2023-02-22T00:00:00	2024-11-08T03:00:00	7	Dirección del viento	0
91283	7	Sololá	701	Sololá	4	Finca Santa Victoria	2	Febrero	2023-02-22T00:00:00	2024-11-08T03:00:00	1	Precipitación	0
91284	7	Sololá	701	Sololá	4	Finca Santa Victoria	2	Febrero	2023-02-22T00:00:00	2024-11-08T03:00:00	8	Radiación solar	0
91285	7	Sololá	701	Sololá	4	Finca Santa Victoria	2	Febrero	2023-02-22T00:00:00	2024-11-08T04:00:00	2	Temperatura media	11.9
91286	7	Sololá	701	Sololá	4	Finca Santa Victoria	2	Febrero	2023-02-22T00:00:00	2024-11-08T04:00:00	4	Temperatura máxima	12.1
91287	7	Sololá	701	Sololá	4	Finca Santa Victoria	2	Febrero	2023-02-22T00:00:00	2024-11-08T04:00:00	3	Temperatura mínima	11.9
91288	7	Sololá	701	Sololá	4	Finca Santa Victoria	2	Febrero	2023-02-22T00:00:00	2024-11-08T04:00:00	5	Humedad	97
91289	7	Sololá	701	Sololá	4	Finca Santa Victoria	2	Febrero	2023-02-22T00:00:00	2024-11-08T04:00:00	6	Velocidad del viento	0
91290	7	Sololá	701	Sololá	4	Finca Santa Victoria	2	Febrero	2023-02-22T00:00:00	2024-11-08T04:00:00	7	Dirección del viento	0
91291	7	Sololá	701	Sololá	4	Finca Santa Victoria	2	Febrero	2023-02-22T00:00:00	2024-11-08T04:00:00	1	Precipitación	0
91292	7	Sololá	701	Sololá	4	Finca Santa Victoria	2	Febrero	2023-02-22T00:00:00	2024-11-08T04:00:00	8	Radiación solar	0
91293	7	Sololá	701	Sololá	4	Finca Santa Victoria	2	Febrero	2023-02-22T00:00:00	2024-11-08T05:00:00	2	Temperatura media	11.8
91294	7	Sololá	701	Sololá	4	Finca Santa Victoria	2	Febrero	2023-02-22T00:00:00	2024-11-08T05:00:00	4	Temperatura máxima	11.9
91295	7	Sololá	701	Sololá	4	Finca Santa Victoria	2	Febrero	2023-02-22T00:00:00	2024-11-08T05:00:00	3	Temperatura mínima	11.7
91296	7	Sololá	701	Sololá	4	Finca Santa Victoria	2	Febrero	2023-02-22T00:00:00	2024-11-08T05:00:00	5	Humedad	97
91297	7	Sololá	701	Sololá	4	Finca Santa Victoria	2	Febrero	2023-02-22T00:00:00	2024-11-08T05:00:00	6	Velocidad del viento	0
91298	7	Sololá	701	Sololá	4	Finca Santa Victoria	2	Febrero	2023-02-22T00:00:00	2024-11-08T05:00:00	7	Dirección del viento	0
91299	7	Sololá	701	Sololá	4	Finca Santa Victoria	2	Febrero	2023-02-22T00:00:00	2024-11-08T05:00:00	1	Precipitación	0
91300	7	Sololá	701	Sololá	4	Finca Santa Victoria	2	Febrero	2023-02-22T00:00:00	2024-11-08T05:00:00	8	Radiación solar	0
91301	7	Sololá	701	Sololá	4	Finca Santa Victoria	2	Febrero	2023-02-22T00:00:00	2024-11-08T06:00:00	2	Temperatura media	11.8
91302	7	Sololá	701	Sololá	4	Finca Santa Victoria	2	Febrero	2023-02-22T00:00:00	2024-11-08T06:00:00	4	Temperatura máxima	12
91303	7	Sololá	701	Sololá	4	Finca Santa Victoria	2	Febrero	2023-02-22T00:00:00	2024-11-08T06:00:00	3	Temperatura mínima	11.8
91304	7	Sololá	701	Sololá	4	Finca Santa Victoria	2	Febrero	2023-02-22T00:00:00	2024-11-08T06:00:00	5	Humedad	97
91305	7	Sololá	701	Sololá	4	Finca Santa Victoria	2	Febrero	2023-02-22T00:00:00	2024-11-08T06:00:00	6	Velocidad del viento	0
91306	7	Sololá	701	Sololá	4	Finca Santa Victoria	2	Febrero	2023-02-22T00:00:00	2024-11-08T06:00:00	7	Dirección del viento	0
91307	7	Sololá	701	Sololá	4	Finca Santa Victoria	2	Febrero	2023-02-22T00:00:00	2024-11-08T06:00:00	1	Precipitación	0
91308	7	Sololá	701	Sololá	4	Finca Santa Victoria	2	Febrero	2023-02-22T00:00:00	2024-11-08T06:00:00	8	Radiación solar	0
91309	7	Sololá	701	Sololá	4	Finca Santa Victoria	2	Febrero	2023-02-22T00:00:00	2024-11-08T07:00:00	2	Temperatura media	11.8
91310	7	Sololá	701	Sololá	4	Finca Santa Victoria	2	Febrero	2023-02-22T00:00:00	2024-11-08T07:00:00	4	Temperatura máxima	11.8
91311	7	Sololá	701	Sololá	4	Finca Santa Victoria	2	Febrero	2023-02-22T00:00:00	2024-11-08T07:00:00	3	Temperatura mínima	11.6
91312	7	Sololá	701	Sololá	4	Finca Santa Victoria	2	Febrero	2023-02-22T00:00:00	2024-11-08T07:00:00	5	Humedad	97
91313	7	Sololá	701	Sololá	4	Finca Santa Victoria	2	Febrero	2023-02-22T00:00:00	2024-11-08T07:00:00	6	Velocidad del viento	0
91314	7	Sololá	701	Sololá	4	Finca Santa Victoria	2	Febrero	2023-02-22T00:00:00	2024-11-08T07:00:00	7	Dirección del viento	0
91315	7	Sololá	701	Sololá	4	Finca Santa Victoria	2	Febrero	2023-02-22T00:00:00	2024-11-08T07:00:00	1	Precipitación	0
91316	7	Sololá	701	Sololá	4	Finca Santa Victoria	2	Febrero	2023-02-22T00:00:00	2024-11-08T07:00:00	8	Radiación solar	8
91317	7	Sololá	701	Sololá	4	Finca Santa Victoria	2	Febrero	2023-02-22T00:00:00	2024-11-08T08:00:00	2	Temperatura media	13.1
91318	7	Sololá	701	Sololá	4	Finca Santa Victoria	2	Febrero	2023-02-22T00:00:00	2024-11-08T08:00:00	4	Temperatura máxima	13.1
91319	7	Sololá	701	Sololá	4	Finca Santa Victoria	2	Febrero	2023-02-22T00:00:00	2024-11-08T08:00:00	3	Temperatura mínima	11.8
91320	7	Sololá	701	Sololá	4	Finca Santa Victoria	2	Febrero	2023-02-22T00:00:00	2024-11-08T08:00:00	5	Humedad	93
91321	7	Sololá	701	Sololá	4	Finca Santa Victoria	2	Febrero	2023-02-22T00:00:00	2024-11-08T08:00:00	6	Velocidad del viento	0
91322	7	Sololá	701	Sololá	4	Finca Santa Victoria	2	Febrero	2023-02-22T00:00:00	2024-11-08T08:00:00	7	Dirección del viento	0
91323	7	Sololá	701	Sololá	4	Finca Santa Victoria	2	Febrero	2023-02-22T00:00:00	2024-11-08T08:00:00	1	Precipitación	0
91324	7	Sololá	701	Sololá	4	Finca Santa Victoria	2	Febrero	2023-02-22T00:00:00	2024-11-08T08:00:00	8	Radiación solar	82
91325	7	Sololá	701	Sololá	4	Finca Santa Victoria	2	Febrero	2023-02-22T00:00:00	2024-11-08T09:00:00	2	Temperatura media	13.6
91326	7	Sololá	701	Sololá	4	Finca Santa Victoria	2	Febrero	2023-02-22T00:00:00	2024-11-08T09:00:00	4	Temperatura máxima	13.7
91327	7	Sololá	701	Sololá	4	Finca Santa Victoria	2	Febrero	2023-02-22T00:00:00	2024-11-08T09:00:00	3	Temperatura mínima	12.8
91328	7	Sololá	701	Sololá	4	Finca Santa Victoria	2	Febrero	2023-02-22T00:00:00	2024-11-08T09:00:00	5	Humedad	91
91329	7	Sololá	701	Sololá	4	Finca Santa Victoria	2	Febrero	2023-02-22T00:00:00	2024-11-08T09:00:00	6	Velocidad del viento	1.6
91330	7	Sololá	701	Sololá	4	Finca Santa Victoria	2	Febrero	2023-02-22T00:00:00	2024-11-08T09:00:00	7	Dirección del viento	1.61
91331	7	Sololá	701	Sololá	4	Finca Santa Victoria	2	Febrero	2023-02-22T00:00:00	2024-11-08T09:00:00	1	Precipitación	0
91332	7	Sololá	701	Sololá	4	Finca Santa Victoria	2	Febrero	2023-02-22T00:00:00	2024-11-08T09:00:00	8	Radiación solar	112
91333	7	Sololá	701	Sololá	4	Finca Santa Victoria	2	Febrero	2023-02-22T00:00:00	2024-11-08T10:00:00	2	Temperatura media	15.3
91334	7	Sololá	701	Sololá	4	Finca Santa Victoria	2	Febrero	2023-02-22T00:00:00	2024-11-08T10:00:00	4	Temperatura máxima	15.7
91335	7	Sololá	701	Sololá	4	Finca Santa Victoria	2	Febrero	2023-02-22T00:00:00	2024-11-08T10:00:00	3	Temperatura mínima	13.5
91336	7	Sololá	701	Sololá	4	Finca Santa Victoria	2	Febrero	2023-02-22T00:00:00	2024-11-08T10:00:00	5	Humedad	81
91337	7	Sololá	701	Sololá	4	Finca Santa Victoria	2	Febrero	2023-02-22T00:00:00	2024-11-08T10:00:00	6	Velocidad del viento	1.6
91338	7	Sololá	701	Sololá	4	Finca Santa Victoria	2	Febrero	2023-02-22T00:00:00	2024-11-08T10:00:00	7	Dirección del viento	1.61
91339	7	Sololá	701	Sololá	4	Finca Santa Victoria	2	Febrero	2023-02-22T00:00:00	2024-11-08T10:00:00	1	Precipitación	0
91340	7	Sololá	701	Sololá	4	Finca Santa Victoria	2	Febrero	2023-02-22T00:00:00	2024-11-08T10:00:00	8	Radiación solar	393
91341	7	Sololá	701	Sololá	4	Finca Santa Victoria	2	Febrero	2023-02-22T00:00:00	2024-11-08T11:00:00	2	Temperatura media	16.1
91342	7	Sololá	701	Sololá	4	Finca Santa Victoria	2	Febrero	2023-02-22T00:00:00	2024-11-08T11:00:00	4	Temperatura máxima	16.6
91343	7	Sololá	701	Sololá	4	Finca Santa Victoria	2	Febrero	2023-02-22T00:00:00	2024-11-08T11:00:00	3	Temperatura mínima	15.3
91344	7	Sololá	701	Sololá	4	Finca Santa Victoria	2	Febrero	2023-02-22T00:00:00	2024-11-08T11:00:00	5	Humedad	76
91345	7	Sololá	701	Sololá	4	Finca Santa Victoria	2	Febrero	2023-02-22T00:00:00	2024-11-08T11:00:00	6	Velocidad del viento	3.2
91346	7	Sololá	701	Sololá	4	Finca Santa Victoria	2	Febrero	2023-02-22T00:00:00	2024-11-08T11:00:00	7	Dirección del viento	3.22
91347	7	Sololá	701	Sololá	4	Finca Santa Victoria	2	Febrero	2023-02-22T00:00:00	2024-11-08T11:00:00	1	Precipitación	0
91348	7	Sololá	701	Sololá	4	Finca Santa Victoria	2	Febrero	2023-02-22T00:00:00	2024-11-08T11:00:00	8	Radiación solar	443
91349	7	Sololá	701	Sololá	4	Finca Santa Victoria	2	Febrero	2023-02-22T00:00:00	2024-11-08T12:00:00	2	Temperatura media	16.1
91350	7	Sololá	701	Sololá	4	Finca Santa Victoria	2	Febrero	2023-02-22T00:00:00	2024-11-08T12:00:00	4	Temperatura máxima	16.1
91351	7	Sololá	701	Sololá	4	Finca Santa Victoria	2	Febrero	2023-02-22T00:00:00	2024-11-08T12:00:00	3	Temperatura mínima	15.6
91352	7	Sololá	701	Sololá	4	Finca Santa Victoria	2	Febrero	2023-02-22T00:00:00	2024-11-08T12:00:00	5	Humedad	77
91353	7	Sololá	701	Sololá	4	Finca Santa Victoria	2	Febrero	2023-02-22T00:00:00	2024-11-08T12:00:00	6	Velocidad del viento	3.2
91354	7	Sololá	701	Sololá	4	Finca Santa Victoria	2	Febrero	2023-02-22T00:00:00	2024-11-08T12:00:00	7	Dirección del viento	3.22
91355	7	Sololá	701	Sololá	4	Finca Santa Victoria	2	Febrero	2023-02-22T00:00:00	2024-11-08T12:00:00	1	Precipitación	0
91356	7	Sololá	701	Sololá	4	Finca Santa Victoria	2	Febrero	2023-02-22T00:00:00	2024-11-08T12:00:00	8	Radiación solar	239
91357	7	Sololá	701	Sololá	4	Finca Santa Victoria	2	Febrero	2023-02-22T00:00:00	2024-11-08T13:00:00	2	Temperatura media	15.8
91358	7	Sololá	701	Sololá	4	Finca Santa Victoria	2	Febrero	2023-02-22T00:00:00	2024-11-08T13:00:00	4	Temperatura máxima	16.4
91359	7	Sololá	701	Sololá	4	Finca Santa Victoria	2	Febrero	2023-02-22T00:00:00	2024-11-08T13:00:00	3	Temperatura mínima	15.5
91360	7	Sololá	701	Sololá	4	Finca Santa Victoria	2	Febrero	2023-02-22T00:00:00	2024-11-08T13:00:00	5	Humedad	78
91361	7	Sololá	701	Sololá	4	Finca Santa Victoria	2	Febrero	2023-02-22T00:00:00	2024-11-08T13:00:00	6	Velocidad del viento	3.2
91362	7	Sololá	701	Sololá	4	Finca Santa Victoria	2	Febrero	2023-02-22T00:00:00	2024-11-08T13:00:00	7	Dirección del viento	3.22
91363	7	Sololá	701	Sololá	4	Finca Santa Victoria	2	Febrero	2023-02-22T00:00:00	2024-11-08T13:00:00	1	Precipitación	0
91364	7	Sololá	701	Sololá	4	Finca Santa Victoria	2	Febrero	2023-02-22T00:00:00	2024-11-08T13:00:00	8	Radiación solar	163
91365	7	Sololá	701	Sololá	4	Finca Santa Victoria	2	Febrero	2023-02-22T00:00:00	2024-11-08T14:00:00	2	Temperatura media	17.4
91366	7	Sololá	701	Sololá	4	Finca Santa Victoria	2	Febrero	2023-02-22T00:00:00	2024-11-08T14:00:00	4	Temperatura máxima	17.4
91367	7	Sololá	701	Sololá	4	Finca Santa Victoria	2	Febrero	2023-02-22T00:00:00	2024-11-08T14:00:00	3	Temperatura mínima	15.8
91368	7	Sololá	701	Sololá	4	Finca Santa Victoria	2	Febrero	2023-02-22T00:00:00	2024-11-08T14:00:00	5	Humedad	77
91369	7	Sololá	701	Sololá	4	Finca Santa Victoria	2	Febrero	2023-02-22T00:00:00	2024-11-08T14:00:00	6	Velocidad del viento	3.2
91370	7	Sololá	701	Sololá	4	Finca Santa Victoria	2	Febrero	2023-02-22T00:00:00	2024-11-08T14:00:00	7	Dirección del viento	3.22
91371	7	Sololá	701	Sololá	4	Finca Santa Victoria	2	Febrero	2023-02-22T00:00:00	2024-11-08T14:00:00	1	Precipitación	0
91372	7	Sololá	701	Sololá	4	Finca Santa Victoria	2	Febrero	2023-02-22T00:00:00	2024-11-08T14:00:00	8	Radiación solar	286
91373	7	Sololá	701	Sololá	4	Finca Santa Victoria	2	Febrero	2023-02-22T00:00:00	2024-11-08T15:00:00	2	Temperatura media	17.6
91374	7	Sololá	701	Sololá	4	Finca Santa Victoria	2	Febrero	2023-02-22T00:00:00	2024-11-08T15:00:00	4	Temperatura máxima	18.4
91375	7	Sololá	701	Sololá	4	Finca Santa Victoria	2	Febrero	2023-02-22T00:00:00	2024-11-08T15:00:00	3	Temperatura mínima	17.3
91376	7	Sololá	701	Sololá	4	Finca Santa Victoria	2	Febrero	2023-02-22T00:00:00	2024-11-08T15:00:00	5	Humedad	76
91377	7	Sololá	701	Sololá	4	Finca Santa Victoria	2	Febrero	2023-02-22T00:00:00	2024-11-08T15:00:00	6	Velocidad del viento	6.4
91378	7	Sololá	701	Sololá	4	Finca Santa Victoria	2	Febrero	2023-02-22T00:00:00	2024-11-08T15:00:00	7	Dirección del viento	6.44
91379	7	Sololá	701	Sololá	4	Finca Santa Victoria	2	Febrero	2023-02-22T00:00:00	2024-11-08T15:00:00	1	Precipitación	0
91380	7	Sololá	701	Sololá	4	Finca Santa Victoria	2	Febrero	2023-02-22T00:00:00	2024-11-08T15:00:00	8	Radiación solar	396
91381	7	Sololá	701	Sololá	4	Finca Santa Victoria	2	Febrero	2023-02-22T00:00:00	2024-11-08T16:00:00	2	Temperatura media	15.7
91382	7	Sololá	701	Sololá	4	Finca Santa Victoria	2	Febrero	2023-02-22T00:00:00	2024-11-08T16:00:00	4	Temperatura máxima	17.9
91383	7	Sololá	701	Sololá	4	Finca Santa Victoria	2	Febrero	2023-02-22T00:00:00	2024-11-08T16:00:00	3	Temperatura mínima	15.7
91384	7	Sololá	701	Sololá	4	Finca Santa Victoria	2	Febrero	2023-02-22T00:00:00	2024-11-08T16:00:00	5	Humedad	84
91385	7	Sololá	701	Sololá	4	Finca Santa Victoria	2	Febrero	2023-02-22T00:00:00	2024-11-08T16:00:00	6	Velocidad del viento	4.8
91386	7	Sololá	701	Sololá	4	Finca Santa Victoria	2	Febrero	2023-02-22T00:00:00	2024-11-08T16:00:00	7	Dirección del viento	4.83
91387	7	Sololá	701	Sololá	4	Finca Santa Victoria	2	Febrero	2023-02-22T00:00:00	2024-11-08T16:00:00	1	Precipitación	0
91388	7	Sololá	701	Sololá	4	Finca Santa Victoria	2	Febrero	2023-02-22T00:00:00	2024-11-08T16:00:00	8	Radiación solar	212
91389	7	Sololá	701	Sololá	4	Finca Santa Victoria	2	Febrero	2023-02-22T00:00:00	2024-11-08T17:00:00	2	Temperatura media	14.6
91390	7	Sololá	701	Sololá	4	Finca Santa Victoria	2	Febrero	2023-02-22T00:00:00	2024-11-08T17:00:00	4	Temperatura máxima	15.7
91391	7	Sololá	701	Sololá	4	Finca Santa Victoria	2	Febrero	2023-02-22T00:00:00	2024-11-08T17:00:00	3	Temperatura mínima	14.6
91392	7	Sololá	701	Sololá	4	Finca Santa Victoria	2	Febrero	2023-02-22T00:00:00	2024-11-08T17:00:00	5	Humedad	90
91393	7	Sololá	701	Sololá	4	Finca Santa Victoria	2	Febrero	2023-02-22T00:00:00	2024-11-08T17:00:00	6	Velocidad del viento	3.2
91394	7	Sololá	701	Sololá	4	Finca Santa Victoria	2	Febrero	2023-02-22T00:00:00	2024-11-08T17:00:00	7	Dirección del viento	3.22
91395	7	Sololá	701	Sololá	4	Finca Santa Victoria	2	Febrero	2023-02-22T00:00:00	2024-11-08T17:00:00	1	Precipitación	0
91396	7	Sololá	701	Sololá	4	Finca Santa Victoria	2	Febrero	2023-02-22T00:00:00	2024-11-08T17:00:00	8	Radiación solar	97
91397	7	Sololá	701	Sololá	4	Finca Santa Victoria	2	Febrero	2023-02-22T00:00:00	2024-11-08T18:00:00	2	Temperatura media	14.2
91398	7	Sololá	701	Sololá	4	Finca Santa Victoria	2	Febrero	2023-02-22T00:00:00	2024-11-08T18:00:00	4	Temperatura máxima	14.6
91399	7	Sololá	701	Sololá	4	Finca Santa Victoria	2	Febrero	2023-02-22T00:00:00	2024-11-08T18:00:00	3	Temperatura mínima	14.1
91400	7	Sololá	701	Sololá	4	Finca Santa Victoria	2	Febrero	2023-02-22T00:00:00	2024-11-08T18:00:00	5	Humedad	92
91401	7	Sololá	701	Sololá	4	Finca Santa Victoria	2	Febrero	2023-02-22T00:00:00	2024-11-08T18:00:00	6	Velocidad del viento	1.6
91402	7	Sololá	701	Sololá	4	Finca Santa Victoria	2	Febrero	2023-02-22T00:00:00	2024-11-08T18:00:00	7	Dirección del viento	1.61
91403	7	Sololá	701	Sololá	4	Finca Santa Victoria	2	Febrero	2023-02-22T00:00:00	2024-11-08T18:00:00	1	Precipitación	0
91404	7	Sololá	701	Sololá	4	Finca Santa Victoria	2	Febrero	2023-02-22T00:00:00	2024-11-08T18:00:00	8	Radiación solar	42
91405	7	Sololá	701	Sololá	4	Finca Santa Victoria	2	Febrero	2023-02-22T00:00:00	2024-11-08T19:00:00	2	Temperatura media	13.3
91406	7	Sololá	701	Sololá	4	Finca Santa Victoria	2	Febrero	2023-02-22T00:00:00	2024-11-08T19:00:00	4	Temperatura máxima	14.2
91407	7	Sololá	701	Sololá	4	Finca Santa Victoria	2	Febrero	2023-02-22T00:00:00	2024-11-08T19:00:00	3	Temperatura mínima	13.3
91408	7	Sololá	701	Sololá	4	Finca Santa Victoria	2	Febrero	2023-02-22T00:00:00	2024-11-08T19:00:00	5	Humedad	94
91409	7	Sololá	701	Sololá	4	Finca Santa Victoria	2	Febrero	2023-02-22T00:00:00	2024-11-08T19:00:00	6	Velocidad del viento	0
91410	7	Sololá	701	Sololá	4	Finca Santa Victoria	2	Febrero	2023-02-22T00:00:00	2024-11-08T19:00:00	7	Dirección del viento	0
91411	7	Sololá	701	Sololá	4	Finca Santa Victoria	2	Febrero	2023-02-22T00:00:00	2024-11-08T19:00:00	1	Precipitación	0
91412	7	Sololá	701	Sololá	4	Finca Santa Victoria	2	Febrero	2023-02-22T00:00:00	2024-11-08T19:00:00	8	Radiación solar	0
91413	7	Sololá	701	Sololá	4	Finca Santa Victoria	2	Febrero	2023-02-22T00:00:00	2024-11-08T20:00:00	2	Temperatura media	12.5
91414	7	Sololá	701	Sololá	4	Finca Santa Victoria	2	Febrero	2023-02-22T00:00:00	2024-11-08T20:00:00	4	Temperatura máxima	13.4
91415	7	Sololá	701	Sololá	4	Finca Santa Victoria	2	Febrero	2023-02-22T00:00:00	2024-11-08T20:00:00	3	Temperatura mínima	12.5
91416	7	Sololá	701	Sololá	4	Finca Santa Victoria	2	Febrero	2023-02-22T00:00:00	2024-11-08T20:00:00	5	Humedad	95
91417	7	Sololá	701	Sololá	4	Finca Santa Victoria	2	Febrero	2023-02-22T00:00:00	2024-11-08T20:00:00	6	Velocidad del viento	0
91418	7	Sololá	701	Sololá	4	Finca Santa Victoria	2	Febrero	2023-02-22T00:00:00	2024-11-08T20:00:00	7	Dirección del viento	0
91419	7	Sololá	701	Sololá	4	Finca Santa Victoria	2	Febrero	2023-02-22T00:00:00	2024-11-08T20:00:00	1	Precipitación	0
91420	7	Sololá	701	Sololá	4	Finca Santa Victoria	2	Febrero	2023-02-22T00:00:00	2024-11-08T20:00:00	8	Radiación solar	0
91421	7	Sololá	701	Sololá	4	Finca Santa Victoria	2	Febrero	2023-02-22T00:00:00	2024-11-08T21:00:00	2	Temperatura media	12.1
91422	7	Sololá	701	Sololá	4	Finca Santa Victoria	2	Febrero	2023-02-22T00:00:00	2024-11-08T21:00:00	4	Temperatura máxima	12.5
91423	7	Sololá	701	Sololá	4	Finca Santa Victoria	2	Febrero	2023-02-22T00:00:00	2024-11-08T21:00:00	3	Temperatura mínima	11.9
91424	7	Sololá	701	Sololá	4	Finca Santa Victoria	2	Febrero	2023-02-22T00:00:00	2024-11-08T21:00:00	5	Humedad	96
91425	7	Sololá	701	Sololá	4	Finca Santa Victoria	2	Febrero	2023-02-22T00:00:00	2024-11-08T21:00:00	6	Velocidad del viento	1.6
91426	7	Sololá	701	Sololá	4	Finca Santa Victoria	2	Febrero	2023-02-22T00:00:00	2024-11-08T21:00:00	7	Dirección del viento	1.61
91427	7	Sololá	701	Sololá	4	Finca Santa Victoria	2	Febrero	2023-02-22T00:00:00	2024-11-08T21:00:00	1	Precipitación	0
91428	7	Sololá	701	Sololá	4	Finca Santa Victoria	2	Febrero	2023-02-22T00:00:00	2024-11-08T21:00:00	8	Radiación solar	0
91429	7	Sololá	701	Sololá	4	Finca Santa Victoria	2	Febrero	2023-02-22T00:00:00	2024-11-08T22:00:00	2	Temperatura media	12.1
91430	7	Sololá	701	Sololá	4	Finca Santa Victoria	2	Febrero	2023-02-22T00:00:00	2024-11-08T22:00:00	4	Temperatura máxima	12.1
91431	7	Sololá	701	Sololá	4	Finca Santa Victoria	2	Febrero	2023-02-22T00:00:00	2024-11-08T22:00:00	3	Temperatura mínima	11.9
91432	7	Sololá	701	Sololá	4	Finca Santa Victoria	2	Febrero	2023-02-22T00:00:00	2024-11-08T22:00:00	5	Humedad	96
91433	7	Sololá	701	Sololá	4	Finca Santa Victoria	2	Febrero	2023-02-22T00:00:00	2024-11-08T22:00:00	6	Velocidad del viento	1.6
91434	7	Sololá	701	Sololá	4	Finca Santa Victoria	2	Febrero	2023-02-22T00:00:00	2024-11-08T22:00:00	7	Dirección del viento	1.61
91435	7	Sololá	701	Sololá	4	Finca Santa Victoria	2	Febrero	2023-02-22T00:00:00	2024-11-08T22:00:00	1	Precipitación	0
91436	7	Sololá	701	Sololá	4	Finca Santa Victoria	2	Febrero	2023-02-22T00:00:00	2024-11-08T22:00:00	8	Radiación solar	0
91437	7	Sololá	701	Sololá	4	Finca Santa Victoria	2	Febrero	2023-02-22T00:00:00	2024-11-08T23:00:00	2	Temperatura media	12.3
91438	7	Sololá	701	Sololá	4	Finca Santa Victoria	2	Febrero	2023-02-22T00:00:00	2024-11-08T23:00:00	4	Temperatura máxima	12.3
91439	7	Sololá	701	Sololá	4	Finca Santa Victoria	2	Febrero	2023-02-22T00:00:00	2024-11-08T23:00:00	3	Temperatura mínima	12
91440	7	Sololá	701	Sololá	4	Finca Santa Victoria	2	Febrero	2023-02-22T00:00:00	2024-11-08T23:00:00	5	Humedad	95
91441	7	Sololá	701	Sololá	4	Finca Santa Victoria	2	Febrero	2023-02-22T00:00:00	2024-11-08T23:00:00	6	Velocidad del viento	0
91442	7	Sololá	701	Sololá	4	Finca Santa Victoria	2	Febrero	2023-02-22T00:00:00	2024-11-08T23:00:00	7	Dirección del viento	0
91443	7	Sololá	701	Sololá	4	Finca Santa Victoria	2	Febrero	2023-02-22T00:00:00	2024-11-08T23:00:00	1	Precipitación	0
91444	7	Sololá	701	Sololá	4	Finca Santa Victoria	2	Febrero	2023-02-22T00:00:00	2024-11-08T23:00:00	8	Radiación solar	0
91445	7	Sololá	701	Sololá	4	Finca Santa Victoria	2	Febrero	2023-02-23T00:00:00	2024-11-08T00:00:00	2	Temperatura media	11.9
91446	7	Sololá	701	Sololá	4	Finca Santa Victoria	2	Febrero	2023-02-23T00:00:00	2024-11-08T00:00:00	4	Temperatura máxima	12.3
91447	7	Sololá	701	Sololá	4	Finca Santa Victoria	2	Febrero	2023-02-23T00:00:00	2024-11-08T00:00:00	3	Temperatura mínima	11.9
91448	7	Sololá	701	Sololá	4	Finca Santa Victoria	2	Febrero	2023-02-23T00:00:00	2024-11-08T00:00:00	5	Humedad	95
91449	7	Sololá	701	Sololá	4	Finca Santa Victoria	2	Febrero	2023-02-23T00:00:00	2024-11-08T00:00:00	6	Velocidad del viento	0
91450	7	Sololá	701	Sololá	4	Finca Santa Victoria	2	Febrero	2023-02-23T00:00:00	2024-11-08T00:00:00	7	Dirección del viento	0
91451	7	Sololá	701	Sololá	4	Finca Santa Victoria	2	Febrero	2023-02-23T00:00:00	2024-11-08T00:00:00	1	Precipitación	0
91452	7	Sololá	701	Sololá	4	Finca Santa Victoria	2	Febrero	2023-02-23T00:00:00	2024-11-08T00:00:00	8	Radiación solar	0
91453	7	Sololá	701	Sololá	4	Finca Santa Victoria	2	Febrero	2023-02-23T00:00:00	2024-11-08T01:00:00	2	Temperatura media	11.7
91454	7	Sololá	701	Sololá	4	Finca Santa Victoria	2	Febrero	2023-02-23T00:00:00	2024-11-08T01:00:00	4	Temperatura máxima	11.9
91455	7	Sololá	701	Sololá	4	Finca Santa Victoria	2	Febrero	2023-02-23T00:00:00	2024-11-08T01:00:00	3	Temperatura mínima	11.6
91456	7	Sololá	701	Sololá	4	Finca Santa Victoria	2	Febrero	2023-02-23T00:00:00	2024-11-08T01:00:00	5	Humedad	96
91457	7	Sololá	701	Sololá	4	Finca Santa Victoria	2	Febrero	2023-02-23T00:00:00	2024-11-08T01:00:00	6	Velocidad del viento	0
91458	7	Sololá	701	Sololá	4	Finca Santa Victoria	2	Febrero	2023-02-23T00:00:00	2024-11-08T01:00:00	7	Dirección del viento	0
91459	7	Sololá	701	Sololá	4	Finca Santa Victoria	2	Febrero	2023-02-23T00:00:00	2024-11-08T01:00:00	1	Precipitación	0
91460	7	Sololá	701	Sololá	4	Finca Santa Victoria	2	Febrero	2023-02-23T00:00:00	2024-11-08T01:00:00	8	Radiación solar	0
91461	7	Sololá	701	Sololá	4	Finca Santa Victoria	2	Febrero	2023-02-23T00:00:00	2024-11-08T02:00:00	2	Temperatura media	11.1
91462	7	Sololá	701	Sololá	4	Finca Santa Victoria	2	Febrero	2023-02-23T00:00:00	2024-11-08T02:00:00	4	Temperatura máxima	11.7
91463	7	Sololá	701	Sololá	4	Finca Santa Victoria	2	Febrero	2023-02-23T00:00:00	2024-11-08T02:00:00	3	Temperatura mínima	11.1
91464	7	Sololá	701	Sololá	4	Finca Santa Victoria	2	Febrero	2023-02-23T00:00:00	2024-11-08T02:00:00	5	Humedad	97
91465	7	Sololá	701	Sololá	4	Finca Santa Victoria	2	Febrero	2023-02-23T00:00:00	2024-11-08T02:00:00	6	Velocidad del viento	0
91466	7	Sololá	701	Sololá	4	Finca Santa Victoria	2	Febrero	2023-02-23T00:00:00	2024-11-08T02:00:00	7	Dirección del viento	0
91467	7	Sololá	701	Sololá	4	Finca Santa Victoria	2	Febrero	2023-02-23T00:00:00	2024-11-08T02:00:00	1	Precipitación	0
91468	7	Sololá	701	Sololá	4	Finca Santa Victoria	2	Febrero	2023-02-23T00:00:00	2024-11-08T02:00:00	8	Radiación solar	0
91469	7	Sololá	701	Sololá	4	Finca Santa Victoria	2	Febrero	2023-02-23T00:00:00	2024-11-08T03:00:00	2	Temperatura media	10.8
91470	7	Sololá	701	Sololá	4	Finca Santa Victoria	2	Febrero	2023-02-23T00:00:00	2024-11-08T03:00:00	4	Temperatura máxima	11.1
91471	7	Sololá	701	Sololá	4	Finca Santa Victoria	2	Febrero	2023-02-23T00:00:00	2024-11-08T03:00:00	3	Temperatura mínima	10.3
91472	7	Sololá	701	Sololá	4	Finca Santa Victoria	2	Febrero	2023-02-23T00:00:00	2024-11-08T03:00:00	5	Humedad	98
91473	7	Sololá	701	Sololá	4	Finca Santa Victoria	2	Febrero	2023-02-23T00:00:00	2024-11-08T03:00:00	6	Velocidad del viento	1.6
91474	7	Sololá	701	Sololá	4	Finca Santa Victoria	2	Febrero	2023-02-23T00:00:00	2024-11-08T03:00:00	7	Dirección del viento	1.61
91475	7	Sololá	701	Sololá	4	Finca Santa Victoria	2	Febrero	2023-02-23T00:00:00	2024-11-08T03:00:00	1	Precipitación	0
91476	7	Sololá	701	Sololá	4	Finca Santa Victoria	2	Febrero	2023-02-23T00:00:00	2024-11-08T03:00:00	8	Radiación solar	0
91477	7	Sololá	701	Sololá	4	Finca Santa Victoria	2	Febrero	2023-02-23T00:00:00	2024-11-08T04:00:00	2	Temperatura media	10.8
91478	7	Sololá	701	Sololá	4	Finca Santa Victoria	2	Febrero	2023-02-23T00:00:00	2024-11-08T04:00:00	4	Temperatura máxima	10.9
91479	7	Sololá	701	Sololá	4	Finca Santa Victoria	2	Febrero	2023-02-23T00:00:00	2024-11-08T04:00:00	3	Temperatura mínima	10.7
91480	7	Sololá	701	Sololá	4	Finca Santa Victoria	2	Febrero	2023-02-23T00:00:00	2024-11-08T04:00:00	5	Humedad	97
91481	7	Sololá	701	Sololá	4	Finca Santa Victoria	2	Febrero	2023-02-23T00:00:00	2024-11-08T04:00:00	6	Velocidad del viento	0
91482	7	Sololá	701	Sololá	4	Finca Santa Victoria	2	Febrero	2023-02-23T00:00:00	2024-11-08T04:00:00	7	Dirección del viento	0
91483	7	Sololá	701	Sololá	4	Finca Santa Victoria	2	Febrero	2023-02-23T00:00:00	2024-11-08T04:00:00	1	Precipitación	0
91484	7	Sololá	701	Sololá	4	Finca Santa Victoria	2	Febrero	2023-02-23T00:00:00	2024-11-08T04:00:00	8	Radiación solar	0
91485	7	Sololá	701	Sololá	4	Finca Santa Victoria	2	Febrero	2023-02-23T00:00:00	2024-11-08T05:00:00	2	Temperatura media	10.3
91486	7	Sololá	701	Sololá	4	Finca Santa Victoria	2	Febrero	2023-02-23T00:00:00	2024-11-08T05:00:00	4	Temperatura máxima	10.8
91487	7	Sololá	701	Sololá	4	Finca Santa Victoria	2	Febrero	2023-02-23T00:00:00	2024-11-08T05:00:00	3	Temperatura mínima	10.1
91488	7	Sololá	701	Sololá	4	Finca Santa Victoria	2	Febrero	2023-02-23T00:00:00	2024-11-08T05:00:00	5	Humedad	98
91489	7	Sololá	701	Sololá	4	Finca Santa Victoria	2	Febrero	2023-02-23T00:00:00	2024-11-08T05:00:00	6	Velocidad del viento	0
91490	7	Sololá	701	Sololá	4	Finca Santa Victoria	2	Febrero	2023-02-23T00:00:00	2024-11-08T05:00:00	7	Dirección del viento	0
91491	7	Sololá	701	Sololá	4	Finca Santa Victoria	2	Febrero	2023-02-23T00:00:00	2024-11-08T05:00:00	1	Precipitación	0
91492	7	Sololá	701	Sololá	4	Finca Santa Victoria	2	Febrero	2023-02-23T00:00:00	2024-11-08T05:00:00	8	Radiación solar	0
91493	7	Sololá	701	Sololá	4	Finca Santa Victoria	2	Febrero	2023-02-23T00:00:00	2024-11-08T06:00:00	2	Temperatura media	10.6
91494	7	Sololá	701	Sololá	4	Finca Santa Victoria	2	Febrero	2023-02-23T00:00:00	2024-11-08T06:00:00	4	Temperatura máxima	10.7
91495	7	Sololá	701	Sololá	4	Finca Santa Victoria	2	Febrero	2023-02-23T00:00:00	2024-11-08T06:00:00	3	Temperatura mínima	10.3
91496	7	Sololá	701	Sololá	4	Finca Santa Victoria	2	Febrero	2023-02-23T00:00:00	2024-11-08T06:00:00	5	Humedad	98
91497	7	Sololá	701	Sololá	4	Finca Santa Victoria	2	Febrero	2023-02-23T00:00:00	2024-11-08T06:00:00	6	Velocidad del viento	0
91498	7	Sololá	701	Sololá	4	Finca Santa Victoria	2	Febrero	2023-02-23T00:00:00	2024-11-08T06:00:00	7	Dirección del viento	0
91499	7	Sololá	701	Sololá	4	Finca Santa Victoria	2	Febrero	2023-02-23T00:00:00	2024-11-08T06:00:00	1	Precipitación	0
91500	7	Sololá	701	Sololá	4	Finca Santa Victoria	2	Febrero	2023-02-23T00:00:00	2024-11-08T06:00:00	8	Radiación solar	0
91501	7	Sololá	701	Sololá	4	Finca Santa Victoria	2	Febrero	2023-02-23T00:00:00	2024-11-08T07:00:00	2	Temperatura media	9.8
91502	7	Sololá	701	Sololá	4	Finca Santa Victoria	2	Febrero	2023-02-23T00:00:00	2024-11-08T07:00:00	4	Temperatura máxima	10.6
91503	7	Sololá	701	Sololá	4	Finca Santa Victoria	2	Febrero	2023-02-23T00:00:00	2024-11-08T07:00:00	3	Temperatura mínima	9.8
91504	7	Sololá	701	Sololá	4	Finca Santa Victoria	2	Febrero	2023-02-23T00:00:00	2024-11-08T07:00:00	5	Humedad	97
91505	7	Sololá	701	Sololá	4	Finca Santa Victoria	2	Febrero	2023-02-23T00:00:00	2024-11-08T07:00:00	6	Velocidad del viento	0
91506	7	Sololá	701	Sololá	4	Finca Santa Victoria	2	Febrero	2023-02-23T00:00:00	2024-11-08T07:00:00	7	Dirección del viento	0
91507	7	Sololá	701	Sololá	4	Finca Santa Victoria	2	Febrero	2023-02-23T00:00:00	2024-11-08T07:00:00	1	Precipitación	0
91508	7	Sololá	701	Sololá	4	Finca Santa Victoria	2	Febrero	2023-02-23T00:00:00	2024-11-08T07:00:00	8	Radiación solar	5
91509	7	Sololá	701	Sololá	4	Finca Santa Victoria	2	Febrero	2023-02-23T00:00:00	2024-11-08T08:00:00	2	Temperatura media	10.9
91510	7	Sololá	701	Sololá	4	Finca Santa Victoria	2	Febrero	2023-02-23T00:00:00	2024-11-08T08:00:00	4	Temperatura máxima	10.9
91511	7	Sololá	701	Sololá	4	Finca Santa Victoria	2	Febrero	2023-02-23T00:00:00	2024-11-08T08:00:00	3	Temperatura mínima	9.4
91512	7	Sololá	701	Sololá	4	Finca Santa Victoria	2	Febrero	2023-02-23T00:00:00	2024-11-08T08:00:00	5	Humedad	96
91513	7	Sololá	701	Sololá	4	Finca Santa Victoria	2	Febrero	2023-02-23T00:00:00	2024-11-08T08:00:00	6	Velocidad del viento	0
91514	7	Sololá	701	Sololá	4	Finca Santa Victoria	2	Febrero	2023-02-23T00:00:00	2024-11-08T08:00:00	7	Dirección del viento	0
91515	7	Sololá	701	Sololá	4	Finca Santa Victoria	2	Febrero	2023-02-23T00:00:00	2024-11-08T08:00:00	1	Precipitación	0
91516	7	Sololá	701	Sololá	4	Finca Santa Victoria	2	Febrero	2023-02-23T00:00:00	2024-11-08T08:00:00	8	Radiación solar	64
91517	7	Sololá	701	Sololá	4	Finca Santa Victoria	2	Febrero	2023-02-23T00:00:00	2024-11-08T09:00:00	2	Temperatura media	13.3
91518	7	Sololá	701	Sololá	4	Finca Santa Victoria	2	Febrero	2023-02-23T00:00:00	2024-11-08T09:00:00	4	Temperatura máxima	13.3
91519	7	Sololá	701	Sololá	4	Finca Santa Victoria	2	Febrero	2023-02-23T00:00:00	2024-11-08T09:00:00	3	Temperatura mínima	10.8
91520	7	Sololá	701	Sololá	4	Finca Santa Victoria	2	Febrero	2023-02-23T00:00:00	2024-11-08T09:00:00	5	Humedad	84
91521	7	Sololá	701	Sololá	4	Finca Santa Victoria	2	Febrero	2023-02-23T00:00:00	2024-11-08T09:00:00	6	Velocidad del viento	1.6
91522	7	Sololá	701	Sololá	4	Finca Santa Victoria	2	Febrero	2023-02-23T00:00:00	2024-11-08T09:00:00	7	Dirección del viento	1.61
91523	7	Sololá	701	Sololá	4	Finca Santa Victoria	2	Febrero	2023-02-23T00:00:00	2024-11-08T09:00:00	1	Precipitación	0
91524	7	Sololá	701	Sololá	4	Finca Santa Victoria	2	Febrero	2023-02-23T00:00:00	2024-11-08T09:00:00	8	Radiación solar	129
91525	7	Sololá	701	Sololá	4	Finca Santa Victoria	2	Febrero	2023-02-23T00:00:00	2024-11-08T10:00:00	2	Temperatura media	16.6
91526	7	Sololá	701	Sololá	4	Finca Santa Victoria	2	Febrero	2023-02-23T00:00:00	2024-11-08T10:00:00	4	Temperatura máxima	17.2
91527	7	Sololá	701	Sololá	4	Finca Santa Victoria	2	Febrero	2023-02-23T00:00:00	2024-11-08T10:00:00	3	Temperatura mínima	13.3
91528	7	Sololá	701	Sololá	4	Finca Santa Victoria	2	Febrero	2023-02-23T00:00:00	2024-11-08T10:00:00	5	Humedad	67
91529	7	Sololá	701	Sololá	4	Finca Santa Victoria	2	Febrero	2023-02-23T00:00:00	2024-11-08T10:00:00	6	Velocidad del viento	3.2
91530	7	Sololá	701	Sololá	4	Finca Santa Victoria	2	Febrero	2023-02-23T00:00:00	2024-11-08T10:00:00	7	Dirección del viento	3.22
91531	7	Sololá	701	Sololá	4	Finca Santa Victoria	2	Febrero	2023-02-23T00:00:00	2024-11-08T10:00:00	1	Precipitación	0
91532	7	Sololá	701	Sololá	4	Finca Santa Victoria	2	Febrero	2023-02-23T00:00:00	2024-11-08T10:00:00	8	Radiación solar	690
91533	7	Sololá	701	Sololá	4	Finca Santa Victoria	2	Febrero	2023-02-23T00:00:00	2024-11-08T11:00:00	2	Temperatura media	20.3
91534	7	Sololá	701	Sololá	4	Finca Santa Victoria	2	Febrero	2023-02-23T00:00:00	2024-11-08T11:00:00	4	Temperatura máxima	20.3
91535	7	Sololá	701	Sololá	4	Finca Santa Victoria	2	Febrero	2023-02-23T00:00:00	2024-11-08T11:00:00	3	Temperatura mínima	16.6
91536	7	Sololá	701	Sololá	4	Finca Santa Victoria	2	Febrero	2023-02-23T00:00:00	2024-11-08T11:00:00	5	Humedad	39
91537	7	Sololá	701	Sololá	4	Finca Santa Victoria	2	Febrero	2023-02-23T00:00:00	2024-11-08T11:00:00	6	Velocidad del viento	4.8
91538	7	Sololá	701	Sololá	4	Finca Santa Victoria	2	Febrero	2023-02-23T00:00:00	2024-11-08T11:00:00	7	Dirección del viento	4.83
91539	7	Sololá	701	Sololá	4	Finca Santa Victoria	2	Febrero	2023-02-23T00:00:00	2024-11-08T11:00:00	1	Precipitación	0
91540	7	Sololá	701	Sololá	4	Finca Santa Victoria	2	Febrero	2023-02-23T00:00:00	2024-11-08T11:00:00	8	Radiación solar	863
91541	7	Sololá	701	Sololá	4	Finca Santa Victoria	2	Febrero	2023-02-23T00:00:00	2024-11-08T12:00:00	2	Temperatura media	19.7
91542	7	Sololá	701	Sololá	4	Finca Santa Victoria	2	Febrero	2023-02-23T00:00:00	2024-11-08T12:00:00	4	Temperatura máxima	20.9
91543	7	Sololá	701	Sololá	4	Finca Santa Victoria	2	Febrero	2023-02-23T00:00:00	2024-11-08T12:00:00	3	Temperatura mínima	19.4
91544	7	Sololá	701	Sololá	4	Finca Santa Victoria	2	Febrero	2023-02-23T00:00:00	2024-11-08T12:00:00	5	Humedad	57
91545	7	Sololá	701	Sololá	4	Finca Santa Victoria	2	Febrero	2023-02-23T00:00:00	2024-11-08T12:00:00	6	Velocidad del viento	4.8
91546	7	Sololá	701	Sololá	4	Finca Santa Victoria	2	Febrero	2023-02-23T00:00:00	2024-11-08T12:00:00	7	Dirección del viento	4.83
91547	7	Sololá	701	Sololá	4	Finca Santa Victoria	2	Febrero	2023-02-23T00:00:00	2024-11-08T12:00:00	1	Precipitación	0
91548	7	Sololá	701	Sololá	4	Finca Santa Victoria	2	Febrero	2023-02-23T00:00:00	2024-11-08T12:00:00	8	Radiación solar	950
91549	7	Sololá	701	Sololá	4	Finca Santa Victoria	2	Febrero	2023-02-23T00:00:00	2024-11-08T13:00:00	2	Temperatura media	17.8
91550	7	Sololá	701	Sololá	4	Finca Santa Victoria	2	Febrero	2023-02-23T00:00:00	2024-11-08T13:00:00	4	Temperatura máxima	19.7
91551	7	Sololá	701	Sololá	4	Finca Santa Victoria	2	Febrero	2023-02-23T00:00:00	2024-11-08T13:00:00	3	Temperatura mínima	17.8
91552	7	Sololá	701	Sololá	4	Finca Santa Victoria	2	Febrero	2023-02-23T00:00:00	2024-11-08T13:00:00	5	Humedad	72
91553	7	Sololá	701	Sololá	4	Finca Santa Victoria	2	Febrero	2023-02-23T00:00:00	2024-11-08T13:00:00	6	Velocidad del viento	4.8
91554	7	Sololá	701	Sololá	4	Finca Santa Victoria	2	Febrero	2023-02-23T00:00:00	2024-11-08T13:00:00	7	Dirección del viento	4.83
91555	7	Sololá	701	Sololá	4	Finca Santa Victoria	2	Febrero	2023-02-23T00:00:00	2024-11-08T13:00:00	1	Precipitación	0
91556	7	Sololá	701	Sololá	4	Finca Santa Victoria	2	Febrero	2023-02-23T00:00:00	2024-11-08T13:00:00	8	Radiación solar	939
91557	7	Sololá	701	Sololá	4	Finca Santa Victoria	2	Febrero	2023-02-23T00:00:00	2024-11-08T14:00:00	2	Temperatura media	17.8
91558	7	Sololá	701	Sololá	4	Finca Santa Victoria	2	Febrero	2023-02-23T00:00:00	2024-11-08T14:00:00	4	Temperatura máxima	18.5
91559	7	Sololá	701	Sololá	4	Finca Santa Victoria	2	Febrero	2023-02-23T00:00:00	2024-11-08T14:00:00	3	Temperatura mínima	17.4
91560	7	Sololá	701	Sololá	4	Finca Santa Victoria	2	Febrero	2023-02-23T00:00:00	2024-11-08T14:00:00	5	Humedad	76
91561	7	Sololá	701	Sololá	4	Finca Santa Victoria	2	Febrero	2023-02-23T00:00:00	2024-11-08T14:00:00	6	Velocidad del viento	4.8
91562	7	Sololá	701	Sololá	4	Finca Santa Victoria	2	Febrero	2023-02-23T00:00:00	2024-11-08T14:00:00	7	Dirección del viento	4.83
91563	7	Sololá	701	Sololá	4	Finca Santa Victoria	2	Febrero	2023-02-23T00:00:00	2024-11-08T14:00:00	1	Precipitación	0
91564	7	Sololá	701	Sololá	4	Finca Santa Victoria	2	Febrero	2023-02-23T00:00:00	2024-11-08T14:00:00	8	Radiación solar	841
91565	7	Sololá	701	Sololá	4	Finca Santa Victoria	2	Febrero	2023-02-23T00:00:00	2024-11-08T15:00:00	2	Temperatura media	15.8
91566	7	Sololá	701	Sololá	4	Finca Santa Victoria	2	Febrero	2023-02-23T00:00:00	2024-11-08T15:00:00	4	Temperatura máxima	17.8
91567	7	Sololá	701	Sololá	4	Finca Santa Victoria	2	Febrero	2023-02-23T00:00:00	2024-11-08T15:00:00	3	Temperatura mínima	15.7
91568	7	Sololá	701	Sololá	4	Finca Santa Victoria	2	Febrero	2023-02-23T00:00:00	2024-11-08T15:00:00	5	Humedad	83
91569	7	Sololá	701	Sololá	4	Finca Santa Victoria	2	Febrero	2023-02-23T00:00:00	2024-11-08T15:00:00	6	Velocidad del viento	4.8
91570	7	Sololá	701	Sololá	4	Finca Santa Victoria	2	Febrero	2023-02-23T00:00:00	2024-11-08T15:00:00	7	Dirección del viento	4.83
91571	7	Sololá	701	Sololá	4	Finca Santa Victoria	2	Febrero	2023-02-23T00:00:00	2024-11-08T15:00:00	1	Precipitación	0
91572	7	Sololá	701	Sololá	4	Finca Santa Victoria	2	Febrero	2023-02-23T00:00:00	2024-11-08T15:00:00	8	Radiación solar	257
91573	7	Sololá	701	Sololá	4	Finca Santa Victoria	2	Febrero	2023-02-23T00:00:00	2024-11-08T16:00:00	2	Temperatura media	15.4
91574	7	Sololá	701	Sololá	4	Finca Santa Victoria	2	Febrero	2023-02-23T00:00:00	2024-11-08T16:00:00	4	Temperatura máxima	15.8
91575	7	Sololá	701	Sololá	4	Finca Santa Victoria	2	Febrero	2023-02-23T00:00:00	2024-11-08T16:00:00	3	Temperatura mínima	15.2
91576	7	Sololá	701	Sololá	4	Finca Santa Victoria	2	Febrero	2023-02-23T00:00:00	2024-11-08T16:00:00	5	Humedad	85
91577	7	Sololá	701	Sololá	4	Finca Santa Victoria	2	Febrero	2023-02-23T00:00:00	2024-11-08T16:00:00	6	Velocidad del viento	4.8
91578	7	Sololá	701	Sololá	4	Finca Santa Victoria	2	Febrero	2023-02-23T00:00:00	2024-11-08T16:00:00	7	Dirección del viento	4.83
91579	7	Sololá	701	Sololá	4	Finca Santa Victoria	2	Febrero	2023-02-23T00:00:00	2024-11-08T16:00:00	1	Precipitación	0
91580	7	Sololá	701	Sololá	4	Finca Santa Victoria	2	Febrero	2023-02-23T00:00:00	2024-11-08T16:00:00	8	Radiación solar	158
91581	7	Sololá	701	Sololá	4	Finca Santa Victoria	2	Febrero	2023-02-23T00:00:00	2024-11-08T17:00:00	2	Temperatura media	14.7
91582	7	Sololá	701	Sololá	4	Finca Santa Victoria	2	Febrero	2023-02-23T00:00:00	2024-11-08T17:00:00	4	Temperatura máxima	15.7
91583	7	Sololá	701	Sololá	4	Finca Santa Victoria	2	Febrero	2023-02-23T00:00:00	2024-11-08T17:00:00	3	Temperatura mínima	14.6
91584	7	Sololá	701	Sololá	4	Finca Santa Victoria	2	Febrero	2023-02-23T00:00:00	2024-11-08T17:00:00	5	Humedad	89
91585	7	Sololá	701	Sololá	4	Finca Santa Victoria	2	Febrero	2023-02-23T00:00:00	2024-11-08T17:00:00	6	Velocidad del viento	3.2
91586	7	Sololá	701	Sololá	4	Finca Santa Victoria	2	Febrero	2023-02-23T00:00:00	2024-11-08T17:00:00	7	Dirección del viento	3.22
91587	7	Sololá	701	Sololá	4	Finca Santa Victoria	2	Febrero	2023-02-23T00:00:00	2024-11-08T17:00:00	1	Precipitación	0
91588	7	Sololá	701	Sololá	4	Finca Santa Victoria	2	Febrero	2023-02-23T00:00:00	2024-11-08T17:00:00	8	Radiación solar	109
91589	7	Sololá	701	Sololá	4	Finca Santa Victoria	2	Febrero	2023-02-23T00:00:00	2024-11-08T18:00:00	2	Temperatura media	13.7
91590	7	Sololá	701	Sololá	4	Finca Santa Victoria	2	Febrero	2023-02-23T00:00:00	2024-11-08T18:00:00	4	Temperatura máxima	14.7
91591	7	Sololá	701	Sololá	4	Finca Santa Victoria	2	Febrero	2023-02-23T00:00:00	2024-11-08T18:00:00	3	Temperatura mínima	13.7
91592	7	Sololá	701	Sololá	4	Finca Santa Victoria	2	Febrero	2023-02-23T00:00:00	2024-11-08T18:00:00	5	Humedad	93
91593	7	Sololá	701	Sololá	4	Finca Santa Victoria	2	Febrero	2023-02-23T00:00:00	2024-11-08T18:00:00	6	Velocidad del viento	3.2
91594	7	Sololá	701	Sololá	4	Finca Santa Victoria	2	Febrero	2023-02-23T00:00:00	2024-11-08T18:00:00	7	Dirección del viento	3.22
91595	7	Sololá	701	Sololá	4	Finca Santa Victoria	2	Febrero	2023-02-23T00:00:00	2024-11-08T18:00:00	1	Precipitación	0
91596	7	Sololá	701	Sololá	4	Finca Santa Victoria	2	Febrero	2023-02-23T00:00:00	2024-11-08T18:00:00	8	Radiación solar	37
91597	7	Sololá	701	Sololá	4	Finca Santa Victoria	2	Febrero	2023-02-23T00:00:00	2024-11-08T19:00:00	2	Temperatura media	12.6
91598	7	Sololá	701	Sololá	4	Finca Santa Victoria	2	Febrero	2023-02-23T00:00:00	2024-11-08T19:00:00	4	Temperatura máxima	13.7
91599	7	Sololá	701	Sololá	4	Finca Santa Victoria	2	Febrero	2023-02-23T00:00:00	2024-11-08T19:00:00	3	Temperatura mínima	12.6
91600	7	Sololá	701	Sololá	4	Finca Santa Victoria	2	Febrero	2023-02-23T00:00:00	2024-11-08T19:00:00	5	Humedad	94
91601	7	Sololá	701	Sololá	4	Finca Santa Victoria	2	Febrero	2023-02-23T00:00:00	2024-11-08T19:00:00	6	Velocidad del viento	0
91602	7	Sololá	701	Sololá	4	Finca Santa Victoria	2	Febrero	2023-02-23T00:00:00	2024-11-08T19:00:00	7	Dirección del viento	0
91603	7	Sololá	701	Sololá	4	Finca Santa Victoria	2	Febrero	2023-02-23T00:00:00	2024-11-08T19:00:00	1	Precipitación	0
91604	7	Sololá	701	Sololá	4	Finca Santa Victoria	2	Febrero	2023-02-23T00:00:00	2024-11-08T19:00:00	8	Radiación solar	0
91605	7	Sololá	701	Sololá	4	Finca Santa Victoria	2	Febrero	2023-02-23T00:00:00	2024-11-08T20:00:00	2	Temperatura media	11.6
91606	7	Sololá	701	Sololá	4	Finca Santa Victoria	2	Febrero	2023-02-23T00:00:00	2024-11-08T20:00:00	4	Temperatura máxima	12.6
91607	7	Sololá	701	Sololá	4	Finca Santa Victoria	2	Febrero	2023-02-23T00:00:00	2024-11-08T20:00:00	3	Temperatura mínima	11.6
91608	7	Sololá	701	Sololá	4	Finca Santa Victoria	2	Febrero	2023-02-23T00:00:00	2024-11-08T20:00:00	5	Humedad	95
91609	7	Sololá	701	Sololá	4	Finca Santa Victoria	2	Febrero	2023-02-23T00:00:00	2024-11-08T20:00:00	6	Velocidad del viento	0
91610	7	Sololá	701	Sololá	4	Finca Santa Victoria	2	Febrero	2023-02-23T00:00:00	2024-11-08T20:00:00	7	Dirección del viento	0
91611	7	Sololá	701	Sololá	4	Finca Santa Victoria	2	Febrero	2023-02-23T00:00:00	2024-11-08T20:00:00	1	Precipitación	0
91612	7	Sololá	701	Sololá	4	Finca Santa Victoria	2	Febrero	2023-02-23T00:00:00	2024-11-08T20:00:00	8	Radiación solar	0
91613	7	Sololá	701	Sololá	4	Finca Santa Victoria	2	Febrero	2023-02-23T00:00:00	2024-11-08T21:00:00	2	Temperatura media	11.1
91614	7	Sololá	701	Sololá	4	Finca Santa Victoria	2	Febrero	2023-02-23T00:00:00	2024-11-08T21:00:00	4	Temperatura máxima	11.6
91615	7	Sololá	701	Sololá	4	Finca Santa Victoria	2	Febrero	2023-02-23T00:00:00	2024-11-08T21:00:00	3	Temperatura mínima	11.1
91616	7	Sololá	701	Sololá	4	Finca Santa Victoria	2	Febrero	2023-02-23T00:00:00	2024-11-08T21:00:00	5	Humedad	88
91617	7	Sololá	701	Sololá	4	Finca Santa Victoria	2	Febrero	2023-02-23T00:00:00	2024-11-08T21:00:00	6	Velocidad del viento	0
91618	7	Sololá	701	Sololá	4	Finca Santa Victoria	2	Febrero	2023-02-23T00:00:00	2024-11-08T21:00:00	7	Dirección del viento	0
91619	7	Sololá	701	Sololá	4	Finca Santa Victoria	2	Febrero	2023-02-23T00:00:00	2024-11-08T21:00:00	1	Precipitación	0
91620	7	Sololá	701	Sololá	4	Finca Santa Victoria	2	Febrero	2023-02-23T00:00:00	2024-11-08T21:00:00	8	Radiación solar	0
91621	7	Sololá	701	Sololá	4	Finca Santa Victoria	2	Febrero	2023-02-23T00:00:00	2024-11-08T22:00:00	2	Temperatura media	11.6
91622	7	Sololá	701	Sololá	4	Finca Santa Victoria	2	Febrero	2023-02-23T00:00:00	2024-11-08T22:00:00	4	Temperatura máxima	11.6
91623	7	Sololá	701	Sololá	4	Finca Santa Victoria	2	Febrero	2023-02-23T00:00:00	2024-11-08T22:00:00	3	Temperatura mínima	11
91624	7	Sololá	701	Sololá	4	Finca Santa Victoria	2	Febrero	2023-02-23T00:00:00	2024-11-08T22:00:00	5	Humedad	85
91625	7	Sololá	701	Sololá	4	Finca Santa Victoria	2	Febrero	2023-02-23T00:00:00	2024-11-08T22:00:00	6	Velocidad del viento	1.6
91626	7	Sololá	701	Sololá	4	Finca Santa Victoria	2	Febrero	2023-02-23T00:00:00	2024-11-08T22:00:00	7	Dirección del viento	1.61
91627	7	Sololá	701	Sololá	4	Finca Santa Victoria	2	Febrero	2023-02-23T00:00:00	2024-11-08T22:00:00	1	Precipitación	0
91628	7	Sololá	701	Sololá	4	Finca Santa Victoria	2	Febrero	2023-02-23T00:00:00	2024-11-08T22:00:00	8	Radiación solar	0
91629	7	Sololá	701	Sololá	4	Finca Santa Victoria	2	Febrero	2023-02-23T00:00:00	2024-11-08T23:00:00	2	Temperatura media	10.8
91630	7	Sololá	701	Sololá	4	Finca Santa Victoria	2	Febrero	2023-02-23T00:00:00	2024-11-08T23:00:00	4	Temperatura máxima	11.8
91631	7	Sololá	701	Sololá	4	Finca Santa Victoria	2	Febrero	2023-02-23T00:00:00	2024-11-08T23:00:00	3	Temperatura mínima	10.8
91632	7	Sololá	701	Sololá	4	Finca Santa Victoria	2	Febrero	2023-02-23T00:00:00	2024-11-08T23:00:00	5	Humedad	88
91633	7	Sololá	701	Sololá	4	Finca Santa Victoria	2	Febrero	2023-02-23T00:00:00	2024-11-08T23:00:00	6	Velocidad del viento	1.6
91634	7	Sololá	701	Sololá	4	Finca Santa Victoria	2	Febrero	2023-02-23T00:00:00	2024-11-08T23:00:00	7	Dirección del viento	1.61
91635	7	Sololá	701	Sololá	4	Finca Santa Victoria	2	Febrero	2023-02-23T00:00:00	2024-11-08T23:00:00	1	Precipitación	0
91636	7	Sololá	701	Sololá	4	Finca Santa Victoria	2	Febrero	2023-02-23T00:00:00	2024-11-08T23:00:00	8	Radiación solar	0
91637	7	Sololá	701	Sololá	4	Finca Santa Victoria	2	Febrero	2023-02-24T00:00:00	2024-11-08T00:00:00	2	Temperatura media	10.8
91638	7	Sololá	701	Sololá	4	Finca Santa Victoria	2	Febrero	2023-02-24T00:00:00	2024-11-08T00:00:00	4	Temperatura máxima	10.8
91639	7	Sololá	701	Sololá	4	Finca Santa Victoria	2	Febrero	2023-02-24T00:00:00	2024-11-08T00:00:00	3	Temperatura mínima	10.4
91640	7	Sololá	701	Sololá	4	Finca Santa Victoria	2	Febrero	2023-02-24T00:00:00	2024-11-08T00:00:00	5	Humedad	88
91641	7	Sololá	701	Sololá	4	Finca Santa Victoria	2	Febrero	2023-02-24T00:00:00	2024-11-08T00:00:00	6	Velocidad del viento	0
91642	7	Sololá	701	Sololá	4	Finca Santa Victoria	2	Febrero	2023-02-24T00:00:00	2024-11-08T00:00:00	7	Dirección del viento	0
91643	7	Sololá	701	Sololá	4	Finca Santa Victoria	2	Febrero	2023-02-24T00:00:00	2024-11-08T00:00:00	1	Precipitación	0
91644	7	Sololá	701	Sololá	4	Finca Santa Victoria	2	Febrero	2023-02-24T00:00:00	2024-11-08T00:00:00	8	Radiación solar	0
91645	7	Sololá	701	Sololá	4	Finca Santa Victoria	2	Febrero	2023-02-24T00:00:00	2024-11-08T01:00:00	2	Temperatura media	10.4
91646	7	Sololá	701	Sololá	4	Finca Santa Victoria	2	Febrero	2023-02-24T00:00:00	2024-11-08T01:00:00	4	Temperatura máxima	10.9
91647	7	Sololá	701	Sololá	4	Finca Santa Victoria	2	Febrero	2023-02-24T00:00:00	2024-11-08T01:00:00	3	Temperatura mínima	10.4
91648	7	Sololá	701	Sololá	4	Finca Santa Victoria	2	Febrero	2023-02-24T00:00:00	2024-11-08T01:00:00	5	Humedad	88
91649	7	Sololá	701	Sololá	4	Finca Santa Victoria	2	Febrero	2023-02-24T00:00:00	2024-11-08T01:00:00	6	Velocidad del viento	1.6
91650	7	Sololá	701	Sololá	4	Finca Santa Victoria	2	Febrero	2023-02-24T00:00:00	2024-11-08T01:00:00	7	Dirección del viento	1.61
91651	7	Sololá	701	Sololá	4	Finca Santa Victoria	2	Febrero	2023-02-24T00:00:00	2024-11-08T01:00:00	1	Precipitación	0
91652	7	Sololá	701	Sololá	4	Finca Santa Victoria	2	Febrero	2023-02-24T00:00:00	2024-11-08T01:00:00	8	Radiación solar	0
91653	7	Sololá	701	Sololá	4	Finca Santa Victoria	2	Febrero	2023-02-24T00:00:00	2024-11-08T02:00:00	2	Temperatura media	10.4
91654	7	Sololá	701	Sololá	4	Finca Santa Victoria	2	Febrero	2023-02-24T00:00:00	2024-11-08T02:00:00	4	Temperatura máxima	10.4
91655	7	Sololá	701	Sololá	4	Finca Santa Victoria	2	Febrero	2023-02-24T00:00:00	2024-11-08T02:00:00	3	Temperatura mínima	10.3
91656	7	Sololá	701	Sololá	4	Finca Santa Victoria	2	Febrero	2023-02-24T00:00:00	2024-11-08T02:00:00	5	Humedad	86
91657	7	Sololá	701	Sololá	4	Finca Santa Victoria	2	Febrero	2023-02-24T00:00:00	2024-11-08T02:00:00	6	Velocidad del viento	1.6
91658	7	Sololá	701	Sololá	4	Finca Santa Victoria	2	Febrero	2023-02-24T00:00:00	2024-11-08T02:00:00	7	Dirección del viento	1.61
91659	7	Sololá	701	Sololá	4	Finca Santa Victoria	2	Febrero	2023-02-24T00:00:00	2024-11-08T02:00:00	1	Precipitación	0
91660	7	Sololá	701	Sololá	4	Finca Santa Victoria	2	Febrero	2023-02-24T00:00:00	2024-11-08T02:00:00	8	Radiación solar	0
91661	7	Sololá	701	Sololá	4	Finca Santa Victoria	2	Febrero	2023-02-24T00:00:00	2024-11-08T03:00:00	2	Temperatura media	10
91662	7	Sololá	701	Sololá	4	Finca Santa Victoria	2	Febrero	2023-02-24T00:00:00	2024-11-08T03:00:00	4	Temperatura máxima	10.7
91663	7	Sololá	701	Sololá	4	Finca Santa Victoria	2	Febrero	2023-02-24T00:00:00	2024-11-08T03:00:00	3	Temperatura mínima	10
91664	7	Sololá	701	Sololá	4	Finca Santa Victoria	2	Febrero	2023-02-24T00:00:00	2024-11-08T03:00:00	5	Humedad	84
91665	7	Sololá	701	Sololá	4	Finca Santa Victoria	2	Febrero	2023-02-24T00:00:00	2024-11-08T03:00:00	6	Velocidad del viento	1.6
91666	7	Sololá	701	Sololá	4	Finca Santa Victoria	2	Febrero	2023-02-24T00:00:00	2024-11-08T03:00:00	7	Dirección del viento	1.61
91667	7	Sololá	701	Sololá	4	Finca Santa Victoria	2	Febrero	2023-02-24T00:00:00	2024-11-08T03:00:00	1	Precipitación	0
91668	7	Sololá	701	Sololá	4	Finca Santa Victoria	2	Febrero	2023-02-24T00:00:00	2024-11-08T03:00:00	8	Radiación solar	0
91669	7	Sololá	701	Sololá	4	Finca Santa Victoria	2	Febrero	2023-02-24T00:00:00	2024-11-08T04:00:00	2	Temperatura media	9.4
91670	7	Sololá	701	Sololá	4	Finca Santa Victoria	2	Febrero	2023-02-24T00:00:00	2024-11-08T04:00:00	4	Temperatura máxima	10.1
91671	7	Sololá	701	Sololá	4	Finca Santa Victoria	2	Febrero	2023-02-24T00:00:00	2024-11-08T04:00:00	3	Temperatura mínima	9.4
91672	7	Sololá	701	Sololá	4	Finca Santa Victoria	2	Febrero	2023-02-24T00:00:00	2024-11-08T04:00:00	5	Humedad	86
91673	7	Sololá	701	Sololá	4	Finca Santa Victoria	2	Febrero	2023-02-24T00:00:00	2024-11-08T04:00:00	6	Velocidad del viento	1.6
91674	7	Sololá	701	Sololá	4	Finca Santa Victoria	2	Febrero	2023-02-24T00:00:00	2024-11-08T04:00:00	7	Dirección del viento	1.61
91675	7	Sololá	701	Sololá	4	Finca Santa Victoria	2	Febrero	2023-02-24T00:00:00	2024-11-08T04:00:00	1	Precipitación	0
91676	7	Sololá	701	Sololá	4	Finca Santa Victoria	2	Febrero	2023-02-24T00:00:00	2024-11-08T04:00:00	8	Radiación solar	0
91677	7	Sololá	701	Sololá	4	Finca Santa Victoria	2	Febrero	2023-02-24T00:00:00	2024-11-08T05:00:00	2	Temperatura media	9.2
91678	7	Sololá	701	Sololá	4	Finca Santa Victoria	2	Febrero	2023-02-24T00:00:00	2024-11-08T05:00:00	4	Temperatura máxima	9.5
91679	7	Sololá	701	Sololá	4	Finca Santa Victoria	2	Febrero	2023-02-24T00:00:00	2024-11-08T05:00:00	3	Temperatura mínima	9.1
91680	7	Sololá	701	Sololá	4	Finca Santa Victoria	2	Febrero	2023-02-24T00:00:00	2024-11-08T05:00:00	5	Humedad	85
91681	7	Sololá	701	Sololá	4	Finca Santa Victoria	2	Febrero	2023-02-24T00:00:00	2024-11-08T05:00:00	6	Velocidad del viento	1.6
91682	7	Sololá	701	Sololá	4	Finca Santa Victoria	2	Febrero	2023-02-24T00:00:00	2024-11-08T05:00:00	7	Dirección del viento	1.61
91683	7	Sololá	701	Sololá	4	Finca Santa Victoria	2	Febrero	2023-02-24T00:00:00	2024-11-08T05:00:00	1	Precipitación	0
91684	7	Sololá	701	Sololá	4	Finca Santa Victoria	2	Febrero	2023-02-24T00:00:00	2024-11-08T05:00:00	8	Radiación solar	0
91685	7	Sololá	701	Sololá	4	Finca Santa Victoria	2	Febrero	2023-02-24T00:00:00	2024-11-08T06:00:00	2	Temperatura media	9.4
91686	7	Sololá	701	Sololá	4	Finca Santa Victoria	2	Febrero	2023-02-24T00:00:00	2024-11-08T06:00:00	4	Temperatura máxima	9.4
91687	7	Sololá	701	Sololá	4	Finca Santa Victoria	2	Febrero	2023-02-24T00:00:00	2024-11-08T06:00:00	3	Temperatura mínima	8.9
91688	7	Sololá	701	Sololá	4	Finca Santa Victoria	2	Febrero	2023-02-24T00:00:00	2024-11-08T06:00:00	5	Humedad	75
91689	7	Sololá	701	Sololá	4	Finca Santa Victoria	2	Febrero	2023-02-24T00:00:00	2024-11-08T06:00:00	6	Velocidad del viento	1.6
91690	7	Sololá	701	Sololá	4	Finca Santa Victoria	2	Febrero	2023-02-24T00:00:00	2024-11-08T06:00:00	7	Dirección del viento	1.61
91691	7	Sololá	701	Sololá	4	Finca Santa Victoria	2	Febrero	2023-02-24T00:00:00	2024-11-08T06:00:00	1	Precipitación	0
91692	7	Sololá	701	Sololá	4	Finca Santa Victoria	2	Febrero	2023-02-24T00:00:00	2024-11-08T06:00:00	8	Radiación solar	0
91693	7	Sololá	701	Sololá	4	Finca Santa Victoria	2	Febrero	2023-02-24T00:00:00	2024-11-08T07:00:00	2	Temperatura media	10.3
91694	7	Sololá	701	Sololá	4	Finca Santa Victoria	2	Febrero	2023-02-24T00:00:00	2024-11-08T07:00:00	4	Temperatura máxima	10.3
91695	7	Sololá	701	Sololá	4	Finca Santa Victoria	2	Febrero	2023-02-24T00:00:00	2024-11-08T07:00:00	3	Temperatura mínima	9.4
91696	7	Sololá	701	Sololá	4	Finca Santa Victoria	2	Febrero	2023-02-24T00:00:00	2024-11-08T07:00:00	5	Humedad	56
91697	7	Sololá	701	Sololá	4	Finca Santa Victoria	2	Febrero	2023-02-24T00:00:00	2024-11-08T07:00:00	6	Velocidad del viento	1.6
91698	7	Sololá	701	Sololá	4	Finca Santa Victoria	2	Febrero	2023-02-24T00:00:00	2024-11-08T07:00:00	7	Dirección del viento	1.61
91699	7	Sololá	701	Sololá	4	Finca Santa Victoria	2	Febrero	2023-02-24T00:00:00	2024-11-08T07:00:00	1	Precipitación	0
91700	7	Sololá	701	Sololá	4	Finca Santa Victoria	2	Febrero	2023-02-24T00:00:00	2024-11-08T07:00:00	8	Radiación solar	6
91701	7	Sololá	701	Sololá	4	Finca Santa Victoria	2	Febrero	2023-02-24T00:00:00	2024-11-08T08:00:00	2	Temperatura media	13.3
91702	7	Sololá	701	Sololá	4	Finca Santa Victoria	2	Febrero	2023-02-24T00:00:00	2024-11-08T08:00:00	4	Temperatura máxima	13.3
91703	7	Sololá	701	Sololá	4	Finca Santa Victoria	2	Febrero	2023-02-24T00:00:00	2024-11-08T08:00:00	3	Temperatura mínima	10.3
91704	7	Sololá	701	Sololá	4	Finca Santa Victoria	2	Febrero	2023-02-24T00:00:00	2024-11-08T08:00:00	5	Humedad	55
91705	7	Sololá	701	Sololá	4	Finca Santa Victoria	2	Febrero	2023-02-24T00:00:00	2024-11-08T08:00:00	6	Velocidad del viento	1.6
91706	7	Sololá	701	Sololá	4	Finca Santa Victoria	2	Febrero	2023-02-24T00:00:00	2024-11-08T08:00:00	7	Dirección del viento	1.61
91707	7	Sololá	701	Sololá	4	Finca Santa Victoria	2	Febrero	2023-02-24T00:00:00	2024-11-08T08:00:00	1	Precipitación	0
91708	7	Sololá	701	Sololá	4	Finca Santa Victoria	2	Febrero	2023-02-24T00:00:00	2024-11-08T08:00:00	8	Radiación solar	74
91709	7	Sololá	701	Sololá	4	Finca Santa Victoria	2	Febrero	2023-02-24T00:00:00	2024-11-08T09:00:00	2	Temperatura media	15.7
91710	7	Sololá	701	Sololá	4	Finca Santa Victoria	2	Febrero	2023-02-24T00:00:00	2024-11-08T09:00:00	4	Temperatura máxima	15.7
91711	7	Sololá	701	Sololá	4	Finca Santa Victoria	2	Febrero	2023-02-24T00:00:00	2024-11-08T09:00:00	3	Temperatura mínima	13.3
91712	7	Sololá	701	Sololá	4	Finca Santa Victoria	2	Febrero	2023-02-24T00:00:00	2024-11-08T09:00:00	5	Humedad	49
91713	7	Sololá	701	Sololá	4	Finca Santa Victoria	2	Febrero	2023-02-24T00:00:00	2024-11-08T09:00:00	6	Velocidad del viento	1.6
91714	7	Sololá	701	Sololá	4	Finca Santa Victoria	2	Febrero	2023-02-24T00:00:00	2024-11-08T09:00:00	7	Dirección del viento	1.61
91715	7	Sololá	701	Sololá	4	Finca Santa Victoria	2	Febrero	2023-02-24T00:00:00	2024-11-08T09:00:00	1	Precipitación	0
91716	7	Sololá	701	Sololá	4	Finca Santa Victoria	2	Febrero	2023-02-24T00:00:00	2024-11-08T09:00:00	8	Radiación solar	157
91717	7	Sololá	701	Sololá	4	Finca Santa Victoria	2	Febrero	2023-02-24T00:00:00	2024-11-08T10:00:00	2	Temperatura media	19.1
91718	7	Sololá	701	Sololá	4	Finca Santa Victoria	2	Febrero	2023-02-24T00:00:00	2024-11-08T10:00:00	4	Temperatura máxima	19.1
91719	7	Sololá	701	Sololá	4	Finca Santa Victoria	2	Febrero	2023-02-24T00:00:00	2024-11-08T10:00:00	3	Temperatura mínima	15.7
91720	7	Sololá	701	Sololá	4	Finca Santa Victoria	2	Febrero	2023-02-24T00:00:00	2024-11-08T10:00:00	5	Humedad	39
91721	7	Sololá	701	Sololá	4	Finca Santa Victoria	2	Febrero	2023-02-24T00:00:00	2024-11-08T10:00:00	6	Velocidad del viento	3.2
91722	7	Sololá	701	Sololá	4	Finca Santa Victoria	2	Febrero	2023-02-24T00:00:00	2024-11-08T10:00:00	7	Dirección del viento	3.22
91723	7	Sololá	701	Sololá	4	Finca Santa Victoria	2	Febrero	2023-02-24T00:00:00	2024-11-08T10:00:00	1	Precipitación	0
91724	7	Sololá	701	Sololá	4	Finca Santa Victoria	2	Febrero	2023-02-24T00:00:00	2024-11-08T10:00:00	8	Radiación solar	707
91725	7	Sololá	701	Sololá	4	Finca Santa Victoria	2	Febrero	2023-02-24T00:00:00	2024-11-08T11:00:00	2	Temperatura media	21
91726	7	Sololá	701	Sololá	4	Finca Santa Victoria	2	Febrero	2023-02-24T00:00:00	2024-11-08T11:00:00	4	Temperatura máxima	21
91727	7	Sololá	701	Sololá	4	Finca Santa Victoria	2	Febrero	2023-02-24T00:00:00	2024-11-08T11:00:00	3	Temperatura mínima	19.1
91728	7	Sololá	701	Sololá	4	Finca Santa Victoria	2	Febrero	2023-02-24T00:00:00	2024-11-08T11:00:00	5	Humedad	38
91729	7	Sololá	701	Sololá	4	Finca Santa Victoria	2	Febrero	2023-02-24T00:00:00	2024-11-08T11:00:00	6	Velocidad del viento	4.8
91730	7	Sololá	701	Sololá	4	Finca Santa Victoria	2	Febrero	2023-02-24T00:00:00	2024-11-08T11:00:00	7	Dirección del viento	4.83
91731	7	Sololá	701	Sololá	4	Finca Santa Victoria	2	Febrero	2023-02-24T00:00:00	2024-11-08T11:00:00	1	Precipitación	0
91732	7	Sololá	701	Sololá	4	Finca Santa Victoria	2	Febrero	2023-02-24T00:00:00	2024-11-08T11:00:00	8	Radiación solar	864
91733	7	Sololá	701	Sololá	4	Finca Santa Victoria	2	Febrero	2023-02-24T00:00:00	2024-11-08T12:00:00	2	Temperatura media	19.7
91734	7	Sololá	701	Sololá	4	Finca Santa Victoria	2	Febrero	2023-02-24T00:00:00	2024-11-08T12:00:00	4	Temperatura máxima	21.5
91735	7	Sololá	701	Sololá	4	Finca Santa Victoria	2	Febrero	2023-02-24T00:00:00	2024-11-08T12:00:00	3	Temperatura mínima	19.7
91736	7	Sololá	701	Sololá	4	Finca Santa Victoria	2	Febrero	2023-02-24T00:00:00	2024-11-08T12:00:00	5	Humedad	56
91737	7	Sololá	701	Sololá	4	Finca Santa Victoria	2	Febrero	2023-02-24T00:00:00	2024-11-08T12:00:00	6	Velocidad del viento	6.4
91738	7	Sololá	701	Sololá	4	Finca Santa Victoria	2	Febrero	2023-02-24T00:00:00	2024-11-08T12:00:00	7	Dirección del viento	6.44
91739	7	Sololá	701	Sololá	4	Finca Santa Victoria	2	Febrero	2023-02-24T00:00:00	2024-11-08T12:00:00	1	Precipitación	0
91740	7	Sololá	701	Sololá	4	Finca Santa Victoria	2	Febrero	2023-02-24T00:00:00	2024-11-08T12:00:00	8	Radiación solar	946
91741	7	Sololá	701	Sololá	4	Finca Santa Victoria	2	Febrero	2023-02-24T00:00:00	2024-11-08T13:00:00	2	Temperatura media	19.5
91742	7	Sololá	701	Sololá	4	Finca Santa Victoria	2	Febrero	2023-02-24T00:00:00	2024-11-08T13:00:00	4	Temperatura máxima	20.1
91743	7	Sololá	701	Sololá	4	Finca Santa Victoria	2	Febrero	2023-02-24T00:00:00	2024-11-08T13:00:00	3	Temperatura mínima	19.1
91744	7	Sololá	701	Sololá	4	Finca Santa Victoria	2	Febrero	2023-02-24T00:00:00	2024-11-08T13:00:00	5	Humedad	63
91745	7	Sololá	701	Sololá	4	Finca Santa Victoria	2	Febrero	2023-02-24T00:00:00	2024-11-08T13:00:00	6	Velocidad del viento	4.8
91746	7	Sololá	701	Sololá	4	Finca Santa Victoria	2	Febrero	2023-02-24T00:00:00	2024-11-08T13:00:00	7	Dirección del viento	4.83
91747	7	Sololá	701	Sololá	4	Finca Santa Victoria	2	Febrero	2023-02-24T00:00:00	2024-11-08T13:00:00	1	Precipitación	0
91748	7	Sololá	701	Sololá	4	Finca Santa Victoria	2	Febrero	2023-02-24T00:00:00	2024-11-08T13:00:00	8	Radiación solar	925
91749	7	Sololá	701	Sololá	4	Finca Santa Victoria	2	Febrero	2023-02-24T00:00:00	2024-11-08T14:00:00	2	Temperatura media	18.6
91750	7	Sololá	701	Sololá	4	Finca Santa Victoria	2	Febrero	2023-02-24T00:00:00	2024-11-08T14:00:00	4	Temperatura máxima	19.8
91751	7	Sololá	701	Sololá	4	Finca Santa Victoria	2	Febrero	2023-02-24T00:00:00	2024-11-08T14:00:00	3	Temperatura mínima	18.3
91752	7	Sololá	701	Sololá	4	Finca Santa Victoria	2	Febrero	2023-02-24T00:00:00	2024-11-08T14:00:00	5	Humedad	71
91753	7	Sololá	701	Sololá	4	Finca Santa Victoria	2	Febrero	2023-02-24T00:00:00	2024-11-08T14:00:00	6	Velocidad del viento	6.4
91754	7	Sololá	701	Sololá	4	Finca Santa Victoria	2	Febrero	2023-02-24T00:00:00	2024-11-08T14:00:00	7	Dirección del viento	6.44
91755	7	Sololá	701	Sololá	4	Finca Santa Victoria	2	Febrero	2023-02-24T00:00:00	2024-11-08T14:00:00	1	Precipitación	0
91756	7	Sololá	701	Sololá	4	Finca Santa Victoria	2	Febrero	2023-02-24T00:00:00	2024-11-08T14:00:00	8	Radiación solar	815
91757	7	Sololá	701	Sololá	4	Finca Santa Victoria	2	Febrero	2023-02-24T00:00:00	2024-11-08T15:00:00	2	Temperatura media	18.1
91758	7	Sololá	701	Sololá	4	Finca Santa Victoria	2	Febrero	2023-02-24T00:00:00	2024-11-08T15:00:00	4	Temperatura máxima	18.8
91759	7	Sololá	701	Sololá	4	Finca Santa Victoria	2	Febrero	2023-02-24T00:00:00	2024-11-08T15:00:00	3	Temperatura mínima	17.9
91760	7	Sololá	701	Sololá	4	Finca Santa Victoria	2	Febrero	2023-02-24T00:00:00	2024-11-08T15:00:00	5	Humedad	75
91761	7	Sololá	701	Sololá	4	Finca Santa Victoria	2	Febrero	2023-02-24T00:00:00	2024-11-08T15:00:00	6	Velocidad del viento	6.4
91762	7	Sololá	701	Sololá	4	Finca Santa Victoria	2	Febrero	2023-02-24T00:00:00	2024-11-08T15:00:00	7	Dirección del viento	6.44
91763	7	Sololá	701	Sololá	4	Finca Santa Victoria	2	Febrero	2023-02-24T00:00:00	2024-11-08T15:00:00	1	Precipitación	0
91764	7	Sololá	701	Sololá	4	Finca Santa Victoria	2	Febrero	2023-02-24T00:00:00	2024-11-08T15:00:00	8	Radiación solar	463
91765	7	Sololá	701	Sololá	4	Finca Santa Victoria	2	Febrero	2023-02-24T00:00:00	2024-11-08T16:00:00	2	Temperatura media	17
91766	7	Sololá	701	Sololá	4	Finca Santa Victoria	2	Febrero	2023-02-24T00:00:00	2024-11-08T16:00:00	4	Temperatura máxima	18.2
91767	7	Sololá	701	Sololá	4	Finca Santa Victoria	2	Febrero	2023-02-24T00:00:00	2024-11-08T16:00:00	3	Temperatura mínima	17
91768	7	Sololá	701	Sololá	4	Finca Santa Victoria	2	Febrero	2023-02-24T00:00:00	2024-11-08T16:00:00	5	Humedad	80
91769	7	Sololá	701	Sololá	4	Finca Santa Victoria	2	Febrero	2023-02-24T00:00:00	2024-11-08T16:00:00	6	Velocidad del viento	4.8
91770	7	Sololá	701	Sololá	4	Finca Santa Victoria	2	Febrero	2023-02-24T00:00:00	2024-11-08T16:00:00	7	Dirección del viento	4.83
91771	7	Sololá	701	Sololá	4	Finca Santa Victoria	2	Febrero	2023-02-24T00:00:00	2024-11-08T16:00:00	1	Precipitación	0
91772	7	Sololá	701	Sololá	4	Finca Santa Victoria	2	Febrero	2023-02-24T00:00:00	2024-11-08T16:00:00	8	Radiación solar	260
91773	7	Sololá	701	Sololá	4	Finca Santa Victoria	2	Febrero	2023-02-24T00:00:00	2024-11-08T17:00:00	2	Temperatura media	15.4
91774	7	Sololá	701	Sololá	4	Finca Santa Victoria	2	Febrero	2023-02-24T00:00:00	2024-11-08T17:00:00	4	Temperatura máxima	17
91775	7	Sololá	701	Sololá	4	Finca Santa Victoria	2	Febrero	2023-02-24T00:00:00	2024-11-08T17:00:00	3	Temperatura mínima	15.3
91776	7	Sololá	701	Sololá	4	Finca Santa Victoria	2	Febrero	2023-02-24T00:00:00	2024-11-08T17:00:00	5	Humedad	87
91777	7	Sololá	701	Sololá	4	Finca Santa Victoria	2	Febrero	2023-02-24T00:00:00	2024-11-08T17:00:00	6	Velocidad del viento	4.8
91778	7	Sololá	701	Sololá	4	Finca Santa Victoria	2	Febrero	2023-02-24T00:00:00	2024-11-08T17:00:00	7	Dirección del viento	4.83
91779	7	Sololá	701	Sololá	4	Finca Santa Victoria	2	Febrero	2023-02-24T00:00:00	2024-11-08T17:00:00	1	Precipitación	0
91780	7	Sololá	701	Sololá	4	Finca Santa Victoria	2	Febrero	2023-02-24T00:00:00	2024-11-08T17:00:00	8	Radiación solar	126
91781	7	Sololá	701	Sololá	4	Finca Santa Victoria	2	Febrero	2023-02-24T00:00:00	2024-11-08T18:00:00	2	Temperatura media	14.7
91782	7	Sololá	701	Sololá	4	Finca Santa Victoria	2	Febrero	2023-02-24T00:00:00	2024-11-08T18:00:00	4	Temperatura máxima	15.3
91783	7	Sololá	701	Sololá	4	Finca Santa Victoria	2	Febrero	2023-02-24T00:00:00	2024-11-08T18:00:00	3	Temperatura mínima	14.7
91784	7	Sololá	701	Sololá	4	Finca Santa Victoria	2	Febrero	2023-02-24T00:00:00	2024-11-08T18:00:00	5	Humedad	91
91785	7	Sololá	701	Sololá	4	Finca Santa Victoria	2	Febrero	2023-02-24T00:00:00	2024-11-08T18:00:00	6	Velocidad del viento	1.6
91786	7	Sololá	701	Sololá	4	Finca Santa Victoria	2	Febrero	2023-02-24T00:00:00	2024-11-08T18:00:00	7	Dirección del viento	1.61
91787	7	Sololá	701	Sololá	4	Finca Santa Victoria	2	Febrero	2023-02-24T00:00:00	2024-11-08T18:00:00	1	Precipitación	0
91788	7	Sololá	701	Sololá	4	Finca Santa Victoria	2	Febrero	2023-02-24T00:00:00	2024-11-08T18:00:00	8	Radiación solar	30
91789	7	Sololá	701	Sololá	4	Finca Santa Victoria	2	Febrero	2023-02-24T00:00:00	2024-11-08T19:00:00	2	Temperatura media	13.6
91790	7	Sololá	701	Sololá	4	Finca Santa Victoria	2	Febrero	2023-02-24T00:00:00	2024-11-08T19:00:00	4	Temperatura máxima	14.7
91791	7	Sololá	701	Sololá	4	Finca Santa Victoria	2	Febrero	2023-02-24T00:00:00	2024-11-08T19:00:00	3	Temperatura mínima	13.6
91792	7	Sololá	701	Sololá	4	Finca Santa Victoria	2	Febrero	2023-02-24T00:00:00	2024-11-08T19:00:00	5	Humedad	79
91793	7	Sololá	701	Sololá	4	Finca Santa Victoria	2	Febrero	2023-02-24T00:00:00	2024-11-08T19:00:00	6	Velocidad del viento	0
91794	7	Sololá	701	Sololá	4	Finca Santa Victoria	2	Febrero	2023-02-24T00:00:00	2024-11-08T19:00:00	7	Dirección del viento	0
91795	7	Sololá	701	Sololá	4	Finca Santa Victoria	2	Febrero	2023-02-24T00:00:00	2024-11-08T19:00:00	1	Precipitación	0
91796	7	Sololá	701	Sololá	4	Finca Santa Victoria	2	Febrero	2023-02-24T00:00:00	2024-11-08T19:00:00	8	Radiación solar	0
91797	7	Sololá	701	Sololá	4	Finca Santa Victoria	2	Febrero	2023-02-24T00:00:00	2024-11-08T20:00:00	2	Temperatura media	13.8
91798	7	Sololá	701	Sololá	4	Finca Santa Victoria	2	Febrero	2023-02-24T00:00:00	2024-11-08T20:00:00	4	Temperatura máxima	14.3
91799	7	Sololá	701	Sololá	4	Finca Santa Victoria	2	Febrero	2023-02-24T00:00:00	2024-11-08T20:00:00	3	Temperatura mínima	13.6
91800	7	Sololá	701	Sololá	4	Finca Santa Victoria	2	Febrero	2023-02-24T00:00:00	2024-11-08T20:00:00	5	Humedad	78
91801	7	Sololá	701	Sololá	4	Finca Santa Victoria	2	Febrero	2023-02-24T00:00:00	2024-11-08T20:00:00	6	Velocidad del viento	3.2
91802	7	Sololá	701	Sololá	4	Finca Santa Victoria	2	Febrero	2023-02-24T00:00:00	2024-11-08T20:00:00	7	Dirección del viento	3.22
91803	7	Sololá	701	Sololá	4	Finca Santa Victoria	2	Febrero	2023-02-24T00:00:00	2024-11-08T20:00:00	1	Precipitación	0
91804	7	Sololá	701	Sololá	4	Finca Santa Victoria	2	Febrero	2023-02-24T00:00:00	2024-11-08T20:00:00	8	Radiación solar	0
91805	7	Sololá	701	Sololá	4	Finca Santa Victoria	2	Febrero	2023-02-24T00:00:00	2024-11-08T21:00:00	2	Temperatura media	12.9
91806	7	Sololá	701	Sololá	4	Finca Santa Victoria	2	Febrero	2023-02-24T00:00:00	2024-11-08T21:00:00	4	Temperatura máxima	13.8
91807	7	Sololá	701	Sololá	4	Finca Santa Victoria	2	Febrero	2023-02-24T00:00:00	2024-11-08T21:00:00	3	Temperatura mínima	12.8
91808	7	Sololá	701	Sololá	4	Finca Santa Victoria	2	Febrero	2023-02-24T00:00:00	2024-11-08T21:00:00	5	Humedad	85
91809	7	Sololá	701	Sololá	4	Finca Santa Victoria	2	Febrero	2023-02-24T00:00:00	2024-11-08T21:00:00	6	Velocidad del viento	1.6
91810	7	Sololá	701	Sololá	4	Finca Santa Victoria	2	Febrero	2023-02-24T00:00:00	2024-11-08T21:00:00	7	Dirección del viento	1.61
91811	7	Sololá	701	Sololá	4	Finca Santa Victoria	2	Febrero	2023-02-24T00:00:00	2024-11-08T21:00:00	1	Precipitación	0
91812	7	Sololá	701	Sololá	4	Finca Santa Victoria	2	Febrero	2023-02-24T00:00:00	2024-11-08T21:00:00	8	Radiación solar	0
91813	7	Sololá	701	Sololá	4	Finca Santa Victoria	2	Febrero	2023-02-24T00:00:00	2024-11-08T22:00:00	2	Temperatura media	12.5
91814	7	Sololá	701	Sololá	4	Finca Santa Victoria	2	Febrero	2023-02-24T00:00:00	2024-11-08T22:00:00	4	Temperatura máxima	12.9
91815	7	Sololá	701	Sololá	4	Finca Santa Victoria	2	Febrero	2023-02-24T00:00:00	2024-11-08T22:00:00	3	Temperatura mínima	12.5
91816	7	Sololá	701	Sololá	4	Finca Santa Victoria	2	Febrero	2023-02-24T00:00:00	2024-11-08T22:00:00	5	Humedad	84
91817	7	Sololá	701	Sololá	4	Finca Santa Victoria	2	Febrero	2023-02-24T00:00:00	2024-11-08T22:00:00	6	Velocidad del viento	1.6
91818	7	Sololá	701	Sololá	4	Finca Santa Victoria	2	Febrero	2023-02-24T00:00:00	2024-11-08T22:00:00	7	Dirección del viento	1.61
91819	7	Sololá	701	Sololá	4	Finca Santa Victoria	2	Febrero	2023-02-24T00:00:00	2024-11-08T22:00:00	1	Precipitación	0
91820	7	Sololá	701	Sololá	4	Finca Santa Victoria	2	Febrero	2023-02-24T00:00:00	2024-11-08T22:00:00	8	Radiación solar	0
91821	7	Sololá	701	Sololá	4	Finca Santa Victoria	2	Febrero	2023-02-24T00:00:00	2024-11-08T23:00:00	2	Temperatura media	12
91822	7	Sololá	701	Sololá	4	Finca Santa Victoria	2	Febrero	2023-02-24T00:00:00	2024-11-08T23:00:00	4	Temperatura máxima	12.5
91823	7	Sololá	701	Sololá	4	Finca Santa Victoria	2	Febrero	2023-02-24T00:00:00	2024-11-08T23:00:00	3	Temperatura mínima	11.9
91824	7	Sololá	701	Sololá	4	Finca Santa Victoria	2	Febrero	2023-02-24T00:00:00	2024-11-08T23:00:00	5	Humedad	85
91825	7	Sololá	701	Sololá	4	Finca Santa Victoria	2	Febrero	2023-02-24T00:00:00	2024-11-08T23:00:00	6	Velocidad del viento	1.6
91826	7	Sololá	701	Sololá	4	Finca Santa Victoria	2	Febrero	2023-02-24T00:00:00	2024-11-08T23:00:00	7	Dirección del viento	1.61
91827	7	Sololá	701	Sololá	4	Finca Santa Victoria	2	Febrero	2023-02-24T00:00:00	2024-11-08T23:00:00	1	Precipitación	0
91828	7	Sololá	701	Sololá	4	Finca Santa Victoria	2	Febrero	2023-02-24T00:00:00	2024-11-08T23:00:00	8	Radiación solar	0
91829	7	Sololá	701	Sololá	4	Finca Santa Victoria	2	Febrero	2023-02-25T00:00:00	2024-11-08T00:00:00	2	Temperatura media	11.3
91830	7	Sololá	701	Sololá	4	Finca Santa Victoria	2	Febrero	2023-02-25T00:00:00	2024-11-08T00:00:00	4	Temperatura máxima	12.1
91831	7	Sololá	701	Sololá	4	Finca Santa Victoria	2	Febrero	2023-02-25T00:00:00	2024-11-08T00:00:00	3	Temperatura mínima	11.3
91832	7	Sololá	701	Sololá	4	Finca Santa Victoria	2	Febrero	2023-02-25T00:00:00	2024-11-08T00:00:00	5	Humedad	88
91833	7	Sololá	701	Sololá	4	Finca Santa Victoria	2	Febrero	2023-02-25T00:00:00	2024-11-08T00:00:00	6	Velocidad del viento	1.6
91834	7	Sololá	701	Sololá	4	Finca Santa Victoria	2	Febrero	2023-02-25T00:00:00	2024-11-08T00:00:00	7	Dirección del viento	1.61
91835	7	Sololá	701	Sololá	4	Finca Santa Victoria	2	Febrero	2023-02-25T00:00:00	2024-11-08T00:00:00	1	Precipitación	0
91836	7	Sololá	701	Sololá	4	Finca Santa Victoria	2	Febrero	2023-02-25T00:00:00	2024-11-08T00:00:00	8	Radiación solar	0
91837	7	Sololá	701	Sololá	4	Finca Santa Victoria	2	Febrero	2023-02-25T00:00:00	2024-11-08T01:00:00	2	Temperatura media	11.2
91838	7	Sololá	701	Sololá	4	Finca Santa Victoria	2	Febrero	2023-02-25T00:00:00	2024-11-08T01:00:00	4	Temperatura máxima	11.4
91839	7	Sololá	701	Sololá	4	Finca Santa Victoria	2	Febrero	2023-02-25T00:00:00	2024-11-08T01:00:00	3	Temperatura mínima	11.2
91840	7	Sololá	701	Sololá	4	Finca Santa Victoria	2	Febrero	2023-02-25T00:00:00	2024-11-08T01:00:00	5	Humedad	87
91841	7	Sololá	701	Sololá	4	Finca Santa Victoria	2	Febrero	2023-02-25T00:00:00	2024-11-08T01:00:00	6	Velocidad del viento	1.6
91842	7	Sololá	701	Sololá	4	Finca Santa Victoria	2	Febrero	2023-02-25T00:00:00	2024-11-08T01:00:00	7	Dirección del viento	1.61
91843	7	Sololá	701	Sololá	4	Finca Santa Victoria	2	Febrero	2023-02-25T00:00:00	2024-11-08T01:00:00	1	Precipitación	0
91844	7	Sololá	701	Sololá	4	Finca Santa Victoria	2	Febrero	2023-02-25T00:00:00	2024-11-08T01:00:00	8	Radiación solar	0
91845	7	Sololá	701	Sololá	4	Finca Santa Victoria	2	Febrero	2023-02-25T00:00:00	2024-11-08T02:00:00	2	Temperatura media	10.9
91846	7	Sololá	701	Sololá	4	Finca Santa Victoria	2	Febrero	2023-02-25T00:00:00	2024-11-08T02:00:00	4	Temperatura máxima	11.3
91847	7	Sololá	701	Sololá	4	Finca Santa Victoria	2	Febrero	2023-02-25T00:00:00	2024-11-08T02:00:00	3	Temperatura mínima	10.8
91848	7	Sololá	701	Sololá	4	Finca Santa Victoria	2	Febrero	2023-02-25T00:00:00	2024-11-08T02:00:00	5	Humedad	88
91849	7	Sololá	701	Sololá	4	Finca Santa Victoria	2	Febrero	2023-02-25T00:00:00	2024-11-08T02:00:00	6	Velocidad del viento	3.2
91850	7	Sololá	701	Sololá	4	Finca Santa Victoria	2	Febrero	2023-02-25T00:00:00	2024-11-08T02:00:00	7	Dirección del viento	3.22
91851	7	Sololá	701	Sololá	4	Finca Santa Victoria	2	Febrero	2023-02-25T00:00:00	2024-11-08T02:00:00	1	Precipitación	0
91852	7	Sololá	701	Sololá	4	Finca Santa Victoria	2	Febrero	2023-02-25T00:00:00	2024-11-08T02:00:00	8	Radiación solar	0
91853	7	Sololá	701	Sololá	4	Finca Santa Victoria	2	Febrero	2023-02-25T00:00:00	2024-11-08T03:00:00	2	Temperatura media	10.8
91854	7	Sololá	701	Sololá	4	Finca Santa Victoria	2	Febrero	2023-02-25T00:00:00	2024-11-08T03:00:00	4	Temperatura máxima	10.9
91855	7	Sololá	701	Sololá	4	Finca Santa Victoria	2	Febrero	2023-02-25T00:00:00	2024-11-08T03:00:00	3	Temperatura mínima	10.8
91856	7	Sololá	701	Sololá	4	Finca Santa Victoria	2	Febrero	2023-02-25T00:00:00	2024-11-08T03:00:00	5	Humedad	87
91857	7	Sololá	701	Sololá	4	Finca Santa Victoria	2	Febrero	2023-02-25T00:00:00	2024-11-08T03:00:00	6	Velocidad del viento	3.2
91858	7	Sololá	701	Sololá	4	Finca Santa Victoria	2	Febrero	2023-02-25T00:00:00	2024-11-08T03:00:00	7	Dirección del viento	3.22
91859	7	Sololá	701	Sololá	4	Finca Santa Victoria	2	Febrero	2023-02-25T00:00:00	2024-11-08T03:00:00	1	Precipitación	0
91860	7	Sololá	701	Sololá	4	Finca Santa Victoria	2	Febrero	2023-02-25T00:00:00	2024-11-08T03:00:00	8	Radiación solar	0
91861	7	Sololá	701	Sololá	4	Finca Santa Victoria	2	Febrero	2023-02-25T00:00:00	2024-11-08T04:00:00	2	Temperatura media	10.8
91862	7	Sololá	701	Sololá	4	Finca Santa Victoria	2	Febrero	2023-02-25T00:00:00	2024-11-08T04:00:00	4	Temperatura máxima	10.8
91863	7	Sololá	701	Sololá	4	Finca Santa Victoria	2	Febrero	2023-02-25T00:00:00	2024-11-08T04:00:00	3	Temperatura mínima	10.7
91864	7	Sololá	701	Sololá	4	Finca Santa Victoria	2	Febrero	2023-02-25T00:00:00	2024-11-08T04:00:00	5	Humedad	86
91865	7	Sololá	701	Sololá	4	Finca Santa Victoria	2	Febrero	2023-02-25T00:00:00	2024-11-08T04:00:00	6	Velocidad del viento	3.2
91866	7	Sololá	701	Sololá	4	Finca Santa Victoria	2	Febrero	2023-02-25T00:00:00	2024-11-08T04:00:00	7	Dirección del viento	3.22
91867	7	Sololá	701	Sololá	4	Finca Santa Victoria	2	Febrero	2023-02-25T00:00:00	2024-11-08T04:00:00	1	Precipitación	0
91868	7	Sololá	701	Sololá	4	Finca Santa Victoria	2	Febrero	2023-02-25T00:00:00	2024-11-08T04:00:00	8	Radiación solar	0
91869	7	Sololá	701	Sololá	4	Finca Santa Victoria	2	Febrero	2023-02-25T00:00:00	2024-11-08T05:00:00	2	Temperatura media	10.2
91870	7	Sololá	701	Sololá	4	Finca Santa Victoria	2	Febrero	2023-02-25T00:00:00	2024-11-08T05:00:00	4	Temperatura máxima	10.8
91871	7	Sololá	701	Sololá	4	Finca Santa Victoria	2	Febrero	2023-02-25T00:00:00	2024-11-08T05:00:00	3	Temperatura mínima	10.2
91872	7	Sololá	701	Sololá	4	Finca Santa Victoria	2	Febrero	2023-02-25T00:00:00	2024-11-08T05:00:00	5	Humedad	87
91873	7	Sololá	701	Sololá	4	Finca Santa Victoria	2	Febrero	2023-02-25T00:00:00	2024-11-08T05:00:00	6	Velocidad del viento	3.2
91874	7	Sololá	701	Sololá	4	Finca Santa Victoria	2	Febrero	2023-02-25T00:00:00	2024-11-08T05:00:00	7	Dirección del viento	3.22
91875	7	Sololá	701	Sololá	4	Finca Santa Victoria	2	Febrero	2023-02-25T00:00:00	2024-11-08T05:00:00	1	Precipitación	0
91876	7	Sololá	701	Sololá	4	Finca Santa Victoria	2	Febrero	2023-02-25T00:00:00	2024-11-08T05:00:00	8	Radiación solar	0
91877	7	Sololá	701	Sololá	4	Finca Santa Victoria	2	Febrero	2023-02-25T00:00:00	2024-11-08T06:00:00	2	Temperatura media	9.9
91878	7	Sololá	701	Sololá	4	Finca Santa Victoria	2	Febrero	2023-02-25T00:00:00	2024-11-08T06:00:00	4	Temperatura máxima	10.3
91879	7	Sololá	701	Sololá	4	Finca Santa Victoria	2	Febrero	2023-02-25T00:00:00	2024-11-08T06:00:00	3	Temperatura mínima	9.9
91880	7	Sololá	701	Sololá	4	Finca Santa Victoria	2	Febrero	2023-02-25T00:00:00	2024-11-08T06:00:00	5	Humedad	87
91881	7	Sololá	701	Sololá	4	Finca Santa Victoria	2	Febrero	2023-02-25T00:00:00	2024-11-08T06:00:00	6	Velocidad del viento	3.2
91882	7	Sololá	701	Sololá	4	Finca Santa Victoria	2	Febrero	2023-02-25T00:00:00	2024-11-08T06:00:00	7	Dirección del viento	3.22
91883	7	Sololá	701	Sololá	4	Finca Santa Victoria	2	Febrero	2023-02-25T00:00:00	2024-11-08T06:00:00	1	Precipitación	0
91884	7	Sololá	701	Sololá	4	Finca Santa Victoria	2	Febrero	2023-02-25T00:00:00	2024-11-08T06:00:00	8	Radiación solar	0
91885	7	Sololá	701	Sololá	4	Finca Santa Victoria	2	Febrero	2023-02-25T00:00:00	2024-11-08T07:00:00	2	Temperatura media	10.2
91886	7	Sololá	701	Sololá	4	Finca Santa Victoria	2	Febrero	2023-02-25T00:00:00	2024-11-08T07:00:00	4	Temperatura máxima	10.2
91887	7	Sololá	701	Sololá	4	Finca Santa Victoria	2	Febrero	2023-02-25T00:00:00	2024-11-08T07:00:00	3	Temperatura mínima	9.9
91888	7	Sololá	701	Sololá	4	Finca Santa Victoria	2	Febrero	2023-02-25T00:00:00	2024-11-08T07:00:00	5	Humedad	85
91889	7	Sololá	701	Sololá	4	Finca Santa Victoria	2	Febrero	2023-02-25T00:00:00	2024-11-08T07:00:00	6	Velocidad del viento	3.2
91890	7	Sololá	701	Sololá	4	Finca Santa Victoria	2	Febrero	2023-02-25T00:00:00	2024-11-08T07:00:00	7	Dirección del viento	3.22
91891	7	Sololá	701	Sololá	4	Finca Santa Victoria	2	Febrero	2023-02-25T00:00:00	2024-11-08T07:00:00	1	Precipitación	0
91892	7	Sololá	701	Sololá	4	Finca Santa Victoria	2	Febrero	2023-02-25T00:00:00	2024-11-08T07:00:00	8	Radiación solar	6
91893	7	Sololá	701	Sololá	4	Finca Santa Victoria	2	Febrero	2023-02-25T00:00:00	2024-11-08T08:00:00	2	Temperatura media	13.1
91894	7	Sololá	701	Sololá	4	Finca Santa Victoria	2	Febrero	2023-02-25T00:00:00	2024-11-08T08:00:00	4	Temperatura máxima	13.1
91895	7	Sololá	701	Sololá	4	Finca Santa Victoria	2	Febrero	2023-02-25T00:00:00	2024-11-08T08:00:00	3	Temperatura mínima	10.2
91896	7	Sololá	701	Sololá	4	Finca Santa Victoria	2	Febrero	2023-02-25T00:00:00	2024-11-08T08:00:00	5	Humedad	76
91897	7	Sololá	701	Sololá	4	Finca Santa Victoria	2	Febrero	2023-02-25T00:00:00	2024-11-08T08:00:00	6	Velocidad del viento	3.2
91898	7	Sololá	701	Sololá	4	Finca Santa Victoria	2	Febrero	2023-02-25T00:00:00	2024-11-08T08:00:00	7	Dirección del viento	3.22
91899	7	Sololá	701	Sololá	4	Finca Santa Victoria	2	Febrero	2023-02-25T00:00:00	2024-11-08T08:00:00	1	Precipitación	0
91900	7	Sololá	701	Sololá	4	Finca Santa Victoria	2	Febrero	2023-02-25T00:00:00	2024-11-08T08:00:00	8	Radiación solar	76
91901	7	Sololá	701	Sololá	4	Finca Santa Victoria	2	Febrero	2023-02-25T00:00:00	2024-11-08T09:00:00	2	Temperatura media	16.3
91902	7	Sololá	701	Sololá	4	Finca Santa Victoria	2	Febrero	2023-02-25T00:00:00	2024-11-08T09:00:00	4	Temperatura máxima	16.3
91903	7	Sololá	701	Sololá	4	Finca Santa Victoria	2	Febrero	2023-02-25T00:00:00	2024-11-08T09:00:00	3	Temperatura mínima	13.1
91904	7	Sololá	701	Sololá	4	Finca Santa Victoria	2	Febrero	2023-02-25T00:00:00	2024-11-08T09:00:00	5	Humedad	65
91905	7	Sololá	701	Sololá	4	Finca Santa Victoria	2	Febrero	2023-02-25T00:00:00	2024-11-08T09:00:00	6	Velocidad del viento	1.6
91906	7	Sololá	701	Sololá	4	Finca Santa Victoria	2	Febrero	2023-02-25T00:00:00	2024-11-08T09:00:00	7	Dirección del viento	1.61
91907	7	Sololá	701	Sololá	4	Finca Santa Victoria	2	Febrero	2023-02-25T00:00:00	2024-11-08T09:00:00	1	Precipitación	0
91908	7	Sololá	701	Sololá	4	Finca Santa Victoria	2	Febrero	2023-02-25T00:00:00	2024-11-08T09:00:00	8	Radiación solar	200
91909	7	Sololá	701	Sololá	4	Finca Santa Victoria	2	Febrero	2023-02-25T00:00:00	2024-11-08T10:00:00	2	Temperatura media	19.9
91910	7	Sololá	701	Sololá	4	Finca Santa Victoria	2	Febrero	2023-02-25T00:00:00	2024-11-08T10:00:00	4	Temperatura máxima	19.9
91911	7	Sololá	701	Sololá	4	Finca Santa Victoria	2	Febrero	2023-02-25T00:00:00	2024-11-08T10:00:00	3	Temperatura mínima	16.3
91912	7	Sololá	701	Sololá	4	Finca Santa Victoria	2	Febrero	2023-02-25T00:00:00	2024-11-08T10:00:00	5	Humedad	34
91913	7	Sololá	701	Sololá	4	Finca Santa Victoria	2	Febrero	2023-02-25T00:00:00	2024-11-08T10:00:00	6	Velocidad del viento	3.2
91914	7	Sololá	701	Sololá	4	Finca Santa Victoria	2	Febrero	2023-02-25T00:00:00	2024-11-08T10:00:00	7	Dirección del viento	3.22
91915	7	Sololá	701	Sololá	4	Finca Santa Victoria	2	Febrero	2023-02-25T00:00:00	2024-11-08T10:00:00	1	Precipitación	0
91916	7	Sololá	701	Sololá	4	Finca Santa Victoria	2	Febrero	2023-02-25T00:00:00	2024-11-08T10:00:00	8	Radiación solar	689
91917	7	Sololá	701	Sololá	4	Finca Santa Victoria	2	Febrero	2023-02-25T00:00:00	2024-11-08T11:00:00	2	Temperatura media	21.9
91918	7	Sololá	701	Sololá	4	Finca Santa Victoria	2	Febrero	2023-02-25T00:00:00	2024-11-08T11:00:00	4	Temperatura máxima	22
91919	7	Sololá	701	Sololá	4	Finca Santa Victoria	2	Febrero	2023-02-25T00:00:00	2024-11-08T11:00:00	3	Temperatura mínima	19.9
91920	7	Sololá	701	Sololá	4	Finca Santa Victoria	2	Febrero	2023-02-25T00:00:00	2024-11-08T11:00:00	5	Humedad	39
91921	7	Sololá	701	Sololá	4	Finca Santa Victoria	2	Febrero	2023-02-25T00:00:00	2024-11-08T11:00:00	6	Velocidad del viento	4.8
91922	7	Sololá	701	Sololá	4	Finca Santa Victoria	2	Febrero	2023-02-25T00:00:00	2024-11-08T11:00:00	7	Dirección del viento	4.83
91923	7	Sololá	701	Sololá	4	Finca Santa Victoria	2	Febrero	2023-02-25T00:00:00	2024-11-08T11:00:00	1	Precipitación	0
91924	7	Sololá	701	Sololá	4	Finca Santa Victoria	2	Febrero	2023-02-25T00:00:00	2024-11-08T11:00:00	8	Radiación solar	863
91925	7	Sololá	701	Sololá	4	Finca Santa Victoria	2	Febrero	2023-02-25T00:00:00	2024-11-08T12:00:00	2	Temperatura media	22.8
91926	7	Sololá	701	Sololá	4	Finca Santa Victoria	2	Febrero	2023-02-25T00:00:00	2024-11-08T12:00:00	4	Temperatura máxima	22.9
91927	7	Sololá	701	Sololá	4	Finca Santa Victoria	2	Febrero	2023-02-25T00:00:00	2024-11-08T12:00:00	3	Temperatura mínima	21.6
91928	7	Sololá	701	Sololá	4	Finca Santa Victoria	2	Febrero	2023-02-25T00:00:00	2024-11-08T12:00:00	5	Humedad	40
91929	7	Sololá	701	Sololá	4	Finca Santa Victoria	2	Febrero	2023-02-25T00:00:00	2024-11-08T12:00:00	6	Velocidad del viento	3.2
91930	7	Sololá	701	Sololá	4	Finca Santa Victoria	2	Febrero	2023-02-25T00:00:00	2024-11-08T12:00:00	7	Dirección del viento	3.22
91931	7	Sololá	701	Sololá	4	Finca Santa Victoria	2	Febrero	2023-02-25T00:00:00	2024-11-08T12:00:00	1	Precipitación	0
91932	7	Sololá	701	Sololá	4	Finca Santa Victoria	2	Febrero	2023-02-25T00:00:00	2024-11-08T12:00:00	8	Radiación solar	949
91933	7	Sololá	701	Sololá	4	Finca Santa Victoria	2	Febrero	2023-02-25T00:00:00	2024-11-08T13:00:00	2	Temperatura media	22.4
91934	7	Sololá	701	Sololá	4	Finca Santa Victoria	2	Febrero	2023-02-25T00:00:00	2024-11-08T13:00:00	4	Temperatura máxima	23.1
91935	7	Sololá	701	Sololá	4	Finca Santa Victoria	2	Febrero	2023-02-25T00:00:00	2024-11-08T13:00:00	3	Temperatura mínima	22.1
91936	7	Sololá	701	Sololá	4	Finca Santa Victoria	2	Febrero	2023-02-25T00:00:00	2024-11-08T13:00:00	5	Humedad	47
91937	7	Sololá	701	Sololá	4	Finca Santa Victoria	2	Febrero	2023-02-25T00:00:00	2024-11-08T13:00:00	6	Velocidad del viento	4.8
91938	7	Sololá	701	Sololá	4	Finca Santa Victoria	2	Febrero	2023-02-25T00:00:00	2024-11-08T13:00:00	7	Dirección del viento	4.83
91939	7	Sololá	701	Sololá	4	Finca Santa Victoria	2	Febrero	2023-02-25T00:00:00	2024-11-08T13:00:00	1	Precipitación	0
91940	7	Sololá	701	Sololá	4	Finca Santa Victoria	2	Febrero	2023-02-25T00:00:00	2024-11-08T13:00:00	8	Radiación solar	949
91941	7	Sololá	701	Sololá	4	Finca Santa Victoria	2	Febrero	2023-02-25T00:00:00	2024-11-08T14:00:00	2	Temperatura media	21.6
91942	7	Sololá	701	Sololá	4	Finca Santa Victoria	2	Febrero	2023-02-25T00:00:00	2024-11-08T14:00:00	4	Temperatura máxima	23
91943	7	Sololá	701	Sololá	4	Finca Santa Victoria	2	Febrero	2023-02-25T00:00:00	2024-11-08T14:00:00	3	Temperatura mínima	21.5
91944	7	Sololá	701	Sololá	4	Finca Santa Victoria	2	Febrero	2023-02-25T00:00:00	2024-11-08T14:00:00	5	Humedad	62
91945	7	Sololá	701	Sololá	4	Finca Santa Victoria	2	Febrero	2023-02-25T00:00:00	2024-11-08T14:00:00	6	Velocidad del viento	4.8
91946	7	Sololá	701	Sololá	4	Finca Santa Victoria	2	Febrero	2023-02-25T00:00:00	2024-11-08T14:00:00	7	Dirección del viento	4.83
91947	7	Sololá	701	Sololá	4	Finca Santa Victoria	2	Febrero	2023-02-25T00:00:00	2024-11-08T14:00:00	1	Precipitación	0
91948	7	Sololá	701	Sololá	4	Finca Santa Victoria	2	Febrero	2023-02-25T00:00:00	2024-11-08T14:00:00	8	Radiación solar	769
91949	7	Sololá	701	Sololá	4	Finca Santa Victoria	2	Febrero	2023-02-25T00:00:00	2024-11-08T15:00:00	2	Temperatura media	20.9
91950	7	Sololá	701	Sololá	4	Finca Santa Victoria	2	Febrero	2023-02-25T00:00:00	2024-11-08T15:00:00	4	Temperatura máxima	21.6
91951	7	Sololá	701	Sololá	4	Finca Santa Victoria	2	Febrero	2023-02-25T00:00:00	2024-11-08T15:00:00	3	Temperatura mínima	20.5
91952	7	Sololá	701	Sololá	4	Finca Santa Victoria	2	Febrero	2023-02-25T00:00:00	2024-11-08T15:00:00	5	Humedad	65
91953	7	Sololá	701	Sololá	4	Finca Santa Victoria	2	Febrero	2023-02-25T00:00:00	2024-11-08T15:00:00	6	Velocidad del viento	4.8
91954	7	Sololá	701	Sololá	4	Finca Santa Victoria	2	Febrero	2023-02-25T00:00:00	2024-11-08T15:00:00	7	Dirección del viento	4.83
91955	7	Sololá	701	Sololá	4	Finca Santa Victoria	2	Febrero	2023-02-25T00:00:00	2024-11-08T15:00:00	1	Precipitación	0
91956	7	Sololá	701	Sololá	4	Finca Santa Victoria	2	Febrero	2023-02-25T00:00:00	2024-11-08T15:00:00	8	Radiación solar	481
91957	7	Sololá	701	Sololá	4	Finca Santa Victoria	2	Febrero	2023-02-25T00:00:00	2024-11-08T16:00:00	2	Temperatura media	20.1
91958	7	Sololá	701	Sololá	4	Finca Santa Victoria	2	Febrero	2023-02-25T00:00:00	2024-11-08T16:00:00	4	Temperatura máxima	20.9
91959	7	Sololá	701	Sololá	4	Finca Santa Victoria	2	Febrero	2023-02-25T00:00:00	2024-11-08T16:00:00	3	Temperatura mínima	20.1
91960	7	Sololá	701	Sololá	4	Finca Santa Victoria	2	Febrero	2023-02-25T00:00:00	2024-11-08T16:00:00	5	Humedad	70
91961	7	Sololá	701	Sololá	4	Finca Santa Victoria	2	Febrero	2023-02-25T00:00:00	2024-11-08T16:00:00	6	Velocidad del viento	3.2
91962	7	Sololá	701	Sololá	4	Finca Santa Victoria	2	Febrero	2023-02-25T00:00:00	2024-11-08T16:00:00	7	Dirección del viento	3.22
91963	7	Sololá	701	Sololá	4	Finca Santa Victoria	2	Febrero	2023-02-25T00:00:00	2024-11-08T16:00:00	1	Precipitación	0
91964	7	Sololá	701	Sololá	4	Finca Santa Victoria	2	Febrero	2023-02-25T00:00:00	2024-11-08T16:00:00	8	Radiación solar	299
91965	7	Sololá	701	Sololá	4	Finca Santa Victoria	2	Febrero	2023-02-25T00:00:00	2024-11-08T17:00:00	2	Temperatura media	21.4
91966	7	Sololá	701	Sololá	4	Finca Santa Victoria	2	Febrero	2023-02-25T00:00:00	2024-11-08T17:00:00	4	Temperatura máxima	21.6
91967	7	Sololá	701	Sololá	4	Finca Santa Victoria	2	Febrero	2023-02-25T00:00:00	2024-11-08T17:00:00	3	Temperatura mínima	20.1
91968	7	Sololá	701	Sololá	4	Finca Santa Victoria	2	Febrero	2023-02-25T00:00:00	2024-11-08T17:00:00	5	Humedad	48
91969	7	Sololá	701	Sololá	4	Finca Santa Victoria	2	Febrero	2023-02-25T00:00:00	2024-11-08T17:00:00	6	Velocidad del viento	3.2
91970	7	Sololá	701	Sololá	4	Finca Santa Victoria	2	Febrero	2023-02-25T00:00:00	2024-11-08T17:00:00	7	Dirección del viento	3.22
91971	7	Sololá	701	Sololá	4	Finca Santa Victoria	2	Febrero	2023-02-25T00:00:00	2024-11-08T17:00:00	1	Precipitación	0
91972	7	Sololá	701	Sololá	4	Finca Santa Victoria	2	Febrero	2023-02-25T00:00:00	2024-11-08T17:00:00	8	Radiación solar	314
91973	7	Sololá	701	Sololá	4	Finca Santa Victoria	2	Febrero	2023-02-25T00:00:00	2024-11-08T18:00:00	2	Temperatura media	17.2
91974	7	Sololá	701	Sololá	4	Finca Santa Victoria	2	Febrero	2023-02-25T00:00:00	2024-11-08T18:00:00	4	Temperatura máxima	21.4
91975	7	Sololá	701	Sololá	4	Finca Santa Victoria	2	Febrero	2023-02-25T00:00:00	2024-11-08T18:00:00	3	Temperatura mínima	17.2
91976	7	Sololá	701	Sololá	4	Finca Santa Victoria	2	Febrero	2023-02-25T00:00:00	2024-11-08T18:00:00	5	Humedad	63
91977	7	Sololá	701	Sololá	4	Finca Santa Victoria	2	Febrero	2023-02-25T00:00:00	2024-11-08T18:00:00	6	Velocidad del viento	3.2
91978	7	Sololá	701	Sololá	4	Finca Santa Victoria	2	Febrero	2023-02-25T00:00:00	2024-11-08T18:00:00	7	Dirección del viento	3.22
91979	7	Sololá	701	Sololá	4	Finca Santa Victoria	2	Febrero	2023-02-25T00:00:00	2024-11-08T18:00:00	1	Precipitación	0
91980	7	Sololá	701	Sololá	4	Finca Santa Victoria	2	Febrero	2023-02-25T00:00:00	2024-11-08T18:00:00	8	Radiación solar	74
91981	7	Sololá	701	Sololá	4	Finca Santa Victoria	2	Febrero	2023-02-25T00:00:00	2024-11-08T19:00:00	2	Temperatura media	14.7
91982	7	Sololá	701	Sololá	4	Finca Santa Victoria	2	Febrero	2023-02-25T00:00:00	2024-11-08T19:00:00	4	Temperatura máxima	17.2
91983	7	Sololá	701	Sololá	4	Finca Santa Victoria	2	Febrero	2023-02-25T00:00:00	2024-11-08T19:00:00	3	Temperatura mínima	14.7
91984	7	Sololá	701	Sololá	4	Finca Santa Victoria	2	Febrero	2023-02-25T00:00:00	2024-11-08T19:00:00	5	Humedad	75
91985	7	Sololá	701	Sololá	4	Finca Santa Victoria	2	Febrero	2023-02-25T00:00:00	2024-11-08T19:00:00	6	Velocidad del viento	3.2
91986	7	Sololá	701	Sololá	4	Finca Santa Victoria	2	Febrero	2023-02-25T00:00:00	2024-11-08T19:00:00	7	Dirección del viento	3.22
91987	7	Sololá	701	Sololá	4	Finca Santa Victoria	2	Febrero	2023-02-25T00:00:00	2024-11-08T19:00:00	1	Precipitación	0
91988	7	Sololá	701	Sololá	4	Finca Santa Victoria	2	Febrero	2023-02-25T00:00:00	2024-11-08T19:00:00	8	Radiación solar	0
91989	7	Sololá	701	Sololá	4	Finca Santa Victoria	2	Febrero	2023-02-25T00:00:00	2024-11-08T20:00:00	2	Temperatura media	13.4
91990	7	Sololá	701	Sololá	4	Finca Santa Victoria	2	Febrero	2023-02-25T00:00:00	2024-11-08T20:00:00	4	Temperatura máxima	14.7
91991	7	Sololá	701	Sololá	4	Finca Santa Victoria	2	Febrero	2023-02-25T00:00:00	2024-11-08T20:00:00	3	Temperatura mínima	13.4
91992	7	Sololá	701	Sololá	4	Finca Santa Victoria	2	Febrero	2023-02-25T00:00:00	2024-11-08T20:00:00	5	Humedad	78
91993	7	Sololá	701	Sololá	4	Finca Santa Victoria	2	Febrero	2023-02-25T00:00:00	2024-11-08T20:00:00	6	Velocidad del viento	4.8
91994	7	Sololá	701	Sololá	4	Finca Santa Victoria	2	Febrero	2023-02-25T00:00:00	2024-11-08T20:00:00	7	Dirección del viento	4.83
91995	7	Sololá	701	Sololá	4	Finca Santa Victoria	2	Febrero	2023-02-25T00:00:00	2024-11-08T20:00:00	1	Precipitación	0
91996	7	Sololá	701	Sololá	4	Finca Santa Victoria	2	Febrero	2023-02-25T00:00:00	2024-11-08T20:00:00	8	Radiación solar	0
91997	7	Sololá	701	Sololá	4	Finca Santa Victoria	2	Febrero	2023-02-25T00:00:00	2024-11-08T21:00:00	2	Temperatura media	12.8
91998	7	Sololá	701	Sololá	4	Finca Santa Victoria	2	Febrero	2023-02-25T00:00:00	2024-11-08T21:00:00	4	Temperatura máxima	13.4
91999	7	Sololá	701	Sololá	4	Finca Santa Victoria	2	Febrero	2023-02-25T00:00:00	2024-11-08T21:00:00	3	Temperatura mínima	12.8
92000	7	Sololá	701	Sololá	4	Finca Santa Victoria	2	Febrero	2023-02-25T00:00:00	2024-11-08T21:00:00	5	Humedad	80
92001	7	Sololá	701	Sololá	4	Finca Santa Victoria	2	Febrero	2023-02-25T00:00:00	2024-11-08T21:00:00	6	Velocidad del viento	4.8
92002	7	Sololá	701	Sololá	4	Finca Santa Victoria	2	Febrero	2023-02-25T00:00:00	2024-11-08T21:00:00	7	Dirección del viento	4.83
92003	7	Sololá	701	Sololá	4	Finca Santa Victoria	2	Febrero	2023-02-25T00:00:00	2024-11-08T21:00:00	1	Precipitación	0
92004	7	Sololá	701	Sololá	4	Finca Santa Victoria	2	Febrero	2023-02-25T00:00:00	2024-11-08T21:00:00	8	Radiación solar	0
92005	7	Sololá	701	Sololá	4	Finca Santa Victoria	2	Febrero	2023-02-25T00:00:00	2024-11-08T22:00:00	2	Temperatura media	12.1
92006	7	Sololá	701	Sololá	4	Finca Santa Victoria	2	Febrero	2023-02-25T00:00:00	2024-11-08T22:00:00	4	Temperatura máxima	12.8
92007	7	Sololá	701	Sololá	4	Finca Santa Victoria	2	Febrero	2023-02-25T00:00:00	2024-11-08T22:00:00	3	Temperatura mínima	12.1
92008	7	Sololá	701	Sololá	4	Finca Santa Victoria	2	Febrero	2023-02-25T00:00:00	2024-11-08T22:00:00	5	Humedad	80
92009	7	Sololá	701	Sololá	4	Finca Santa Victoria	2	Febrero	2023-02-25T00:00:00	2024-11-08T22:00:00	6	Velocidad del viento	4.8
92010	7	Sololá	701	Sololá	4	Finca Santa Victoria	2	Febrero	2023-02-25T00:00:00	2024-11-08T22:00:00	7	Dirección del viento	4.83
92011	7	Sololá	701	Sololá	4	Finca Santa Victoria	2	Febrero	2023-02-25T00:00:00	2024-11-08T22:00:00	1	Precipitación	0
92012	7	Sololá	701	Sololá	4	Finca Santa Victoria	2	Febrero	2023-02-25T00:00:00	2024-11-08T22:00:00	8	Radiación solar	0
92013	7	Sololá	701	Sololá	4	Finca Santa Victoria	2	Febrero	2023-02-25T00:00:00	2024-11-08T23:00:00	2	Temperatura media	11.6
92014	7	Sololá	701	Sololá	4	Finca Santa Victoria	2	Febrero	2023-02-25T00:00:00	2024-11-08T23:00:00	4	Temperatura máxima	12.1
92015	7	Sololá	701	Sololá	4	Finca Santa Victoria	2	Febrero	2023-02-25T00:00:00	2024-11-08T23:00:00	3	Temperatura mínima	11.6
92016	7	Sololá	701	Sololá	4	Finca Santa Victoria	2	Febrero	2023-02-25T00:00:00	2024-11-08T23:00:00	5	Humedad	81
92017	7	Sololá	701	Sololá	4	Finca Santa Victoria	2	Febrero	2023-02-25T00:00:00	2024-11-08T23:00:00	6	Velocidad del viento	4.8
92018	7	Sololá	701	Sololá	4	Finca Santa Victoria	2	Febrero	2023-02-25T00:00:00	2024-11-08T23:00:00	7	Dirección del viento	4.83
92019	7	Sololá	701	Sololá	4	Finca Santa Victoria	2	Febrero	2023-02-25T00:00:00	2024-11-08T23:00:00	1	Precipitación	0
92020	7	Sololá	701	Sololá	4	Finca Santa Victoria	2	Febrero	2023-02-25T00:00:00	2024-11-08T23:00:00	8	Radiación solar	0
92021	7	Sololá	701	Sololá	4	Finca Santa Victoria	2	Febrero	2023-02-26T00:00:00	2024-11-08T00:00:00	2	Temperatura media	11.3
92022	7	Sololá	701	Sololá	4	Finca Santa Victoria	2	Febrero	2023-02-26T00:00:00	2024-11-08T00:00:00	4	Temperatura máxima	11.6
92023	7	Sololá	701	Sololá	4	Finca Santa Victoria	2	Febrero	2023-02-26T00:00:00	2024-11-08T00:00:00	3	Temperatura mínima	11.3
92024	7	Sololá	701	Sololá	4	Finca Santa Victoria	2	Febrero	2023-02-26T00:00:00	2024-11-08T00:00:00	5	Humedad	81
92025	7	Sololá	701	Sololá	4	Finca Santa Victoria	2	Febrero	2023-02-26T00:00:00	2024-11-08T00:00:00	6	Velocidad del viento	4.8
92026	7	Sololá	701	Sololá	4	Finca Santa Victoria	2	Febrero	2023-02-26T00:00:00	2024-11-08T00:00:00	7	Dirección del viento	4.83
92027	7	Sololá	701	Sololá	4	Finca Santa Victoria	2	Febrero	2023-02-26T00:00:00	2024-11-08T00:00:00	1	Precipitación	0
92028	7	Sololá	701	Sololá	4	Finca Santa Victoria	2	Febrero	2023-02-26T00:00:00	2024-11-08T00:00:00	8	Radiación solar	0
92029	7	Sololá	701	Sololá	4	Finca Santa Victoria	2	Febrero	2023-02-26T00:00:00	2024-11-08T01:00:00	2	Temperatura media	10.7
92030	7	Sololá	701	Sololá	4	Finca Santa Victoria	2	Febrero	2023-02-26T00:00:00	2024-11-08T01:00:00	4	Temperatura máxima	11.3
92031	7	Sololá	701	Sololá	4	Finca Santa Victoria	2	Febrero	2023-02-26T00:00:00	2024-11-08T01:00:00	3	Temperatura mínima	10.7
92032	7	Sololá	701	Sololá	4	Finca Santa Victoria	2	Febrero	2023-02-26T00:00:00	2024-11-08T01:00:00	5	Humedad	82
92033	7	Sololá	701	Sololá	4	Finca Santa Victoria	2	Febrero	2023-02-26T00:00:00	2024-11-08T01:00:00	6	Velocidad del viento	3.2
92034	7	Sololá	701	Sololá	4	Finca Santa Victoria	2	Febrero	2023-02-26T00:00:00	2024-11-08T01:00:00	7	Dirección del viento	3.22
92035	7	Sololá	701	Sololá	4	Finca Santa Victoria	2	Febrero	2023-02-26T00:00:00	2024-11-08T01:00:00	1	Precipitación	0
92036	7	Sololá	701	Sololá	4	Finca Santa Victoria	2	Febrero	2023-02-26T00:00:00	2024-11-08T01:00:00	8	Radiación solar	0
92037	7	Sololá	701	Sololá	4	Finca Santa Victoria	2	Febrero	2023-02-26T00:00:00	2024-11-08T02:00:00	2	Temperatura media	10.2
92038	7	Sololá	701	Sololá	4	Finca Santa Victoria	2	Febrero	2023-02-26T00:00:00	2024-11-08T02:00:00	4	Temperatura máxima	10.7
92039	7	Sololá	701	Sololá	4	Finca Santa Victoria	2	Febrero	2023-02-26T00:00:00	2024-11-08T02:00:00	3	Temperatura mínima	10.2
92040	7	Sololá	701	Sololá	4	Finca Santa Victoria	2	Febrero	2023-02-26T00:00:00	2024-11-08T02:00:00	5	Humedad	81
92041	7	Sololá	701	Sololá	4	Finca Santa Victoria	2	Febrero	2023-02-26T00:00:00	2024-11-08T02:00:00	6	Velocidad del viento	3.2
92042	7	Sololá	701	Sololá	4	Finca Santa Victoria	2	Febrero	2023-02-26T00:00:00	2024-11-08T02:00:00	7	Dirección del viento	3.22
92043	7	Sololá	701	Sololá	4	Finca Santa Victoria	2	Febrero	2023-02-26T00:00:00	2024-11-08T02:00:00	1	Precipitación	0
92044	7	Sololá	701	Sololá	4	Finca Santa Victoria	2	Febrero	2023-02-26T00:00:00	2024-11-08T02:00:00	8	Radiación solar	0
92045	7	Sololá	701	Sololá	4	Finca Santa Victoria	2	Febrero	2023-02-26T00:00:00	2024-11-08T03:00:00	2	Temperatura media	8.5
92046	7	Sololá	701	Sololá	4	Finca Santa Victoria	2	Febrero	2023-02-26T00:00:00	2024-11-08T03:00:00	4	Temperatura máxima	10.2
92047	7	Sololá	701	Sololá	4	Finca Santa Victoria	2	Febrero	2023-02-26T00:00:00	2024-11-08T03:00:00	3	Temperatura mínima	8.5
92048	7	Sololá	701	Sololá	4	Finca Santa Victoria	2	Febrero	2023-02-26T00:00:00	2024-11-08T03:00:00	5	Humedad	88
92049	7	Sololá	701	Sololá	4	Finca Santa Victoria	2	Febrero	2023-02-26T00:00:00	2024-11-08T03:00:00	6	Velocidad del viento	1.6
92050	7	Sololá	701	Sololá	4	Finca Santa Victoria	2	Febrero	2023-02-26T00:00:00	2024-11-08T03:00:00	7	Dirección del viento	1.61
92051	7	Sololá	701	Sololá	4	Finca Santa Victoria	2	Febrero	2023-02-26T00:00:00	2024-11-08T03:00:00	1	Precipitación	0
92052	7	Sololá	701	Sololá	4	Finca Santa Victoria	2	Febrero	2023-02-26T00:00:00	2024-11-08T03:00:00	8	Radiación solar	0
92053	7	Sololá	701	Sololá	4	Finca Santa Victoria	2	Febrero	2023-02-26T00:00:00	2024-11-08T04:00:00	2	Temperatura media	8.2
92054	7	Sololá	701	Sololá	4	Finca Santa Victoria	2	Febrero	2023-02-26T00:00:00	2024-11-08T04:00:00	4	Temperatura máxima	8.8
92055	7	Sololá	701	Sololá	4	Finca Santa Victoria	2	Febrero	2023-02-26T00:00:00	2024-11-08T04:00:00	3	Temperatura mínima	8.2
92056	7	Sololá	701	Sololá	4	Finca Santa Victoria	2	Febrero	2023-02-26T00:00:00	2024-11-08T04:00:00	5	Humedad	88
92057	7	Sololá	701	Sololá	4	Finca Santa Victoria	2	Febrero	2023-02-26T00:00:00	2024-11-08T04:00:00	6	Velocidad del viento	1.6
92058	7	Sololá	701	Sololá	4	Finca Santa Victoria	2	Febrero	2023-02-26T00:00:00	2024-11-08T04:00:00	7	Dirección del viento	1.61
92059	7	Sololá	701	Sololá	4	Finca Santa Victoria	2	Febrero	2023-02-26T00:00:00	2024-11-08T04:00:00	1	Precipitación	0
92060	7	Sololá	701	Sololá	4	Finca Santa Victoria	2	Febrero	2023-02-26T00:00:00	2024-11-08T04:00:00	8	Radiación solar	0
92061	7	Sololá	701	Sololá	4	Finca Santa Victoria	2	Febrero	2023-02-26T00:00:00	2024-11-08T05:00:00	2	Temperatura media	8.6
92062	7	Sololá	701	Sololá	4	Finca Santa Victoria	2	Febrero	2023-02-26T00:00:00	2024-11-08T05:00:00	4	Temperatura máxima	8.6
92063	7	Sololá	701	Sololá	4	Finca Santa Victoria	2	Febrero	2023-02-26T00:00:00	2024-11-08T05:00:00	3	Temperatura mínima	8.1
92064	7	Sololá	701	Sololá	4	Finca Santa Victoria	2	Febrero	2023-02-26T00:00:00	2024-11-08T05:00:00	5	Humedad	85
92065	7	Sololá	701	Sololá	4	Finca Santa Victoria	2	Febrero	2023-02-26T00:00:00	2024-11-08T05:00:00	6	Velocidad del viento	1.6
92066	7	Sololá	701	Sololá	4	Finca Santa Victoria	2	Febrero	2023-02-26T00:00:00	2024-11-08T05:00:00	7	Dirección del viento	1.61
92067	7	Sololá	701	Sololá	4	Finca Santa Victoria	2	Febrero	2023-02-26T00:00:00	2024-11-08T05:00:00	1	Precipitación	0
92068	7	Sololá	701	Sololá	4	Finca Santa Victoria	2	Febrero	2023-02-26T00:00:00	2024-11-08T05:00:00	8	Radiación solar	0
92069	7	Sololá	701	Sololá	4	Finca Santa Victoria	2	Febrero	2023-02-26T00:00:00	2024-11-08T06:00:00	2	Temperatura media	8.5
92070	7	Sololá	701	Sololá	4	Finca Santa Victoria	2	Febrero	2023-02-26T00:00:00	2024-11-08T06:00:00	4	Temperatura máxima	8.8
92071	7	Sololá	701	Sololá	4	Finca Santa Victoria	2	Febrero	2023-02-26T00:00:00	2024-11-08T06:00:00	3	Temperatura mínima	8.5
92072	7	Sololá	701	Sololá	4	Finca Santa Victoria	2	Febrero	2023-02-26T00:00:00	2024-11-08T06:00:00	5	Humedad	83
92073	7	Sololá	701	Sololá	4	Finca Santa Victoria	2	Febrero	2023-02-26T00:00:00	2024-11-08T06:00:00	6	Velocidad del viento	1.6
92074	7	Sololá	701	Sololá	4	Finca Santa Victoria	2	Febrero	2023-02-26T00:00:00	2024-11-08T06:00:00	7	Dirección del viento	1.61
92075	7	Sololá	701	Sololá	4	Finca Santa Victoria	2	Febrero	2023-02-26T00:00:00	2024-11-08T06:00:00	1	Precipitación	0
92076	7	Sololá	701	Sololá	4	Finca Santa Victoria	2	Febrero	2023-02-26T00:00:00	2024-11-08T06:00:00	8	Radiación solar	0
92077	7	Sololá	701	Sololá	4	Finca Santa Victoria	2	Febrero	2023-02-26T00:00:00	2024-11-08T07:00:00	2	Temperatura media	8.6
92078	7	Sololá	701	Sololá	4	Finca Santa Victoria	2	Febrero	2023-02-26T00:00:00	2024-11-08T07:00:00	4	Temperatura máxima	8.7
92079	7	Sololá	701	Sololá	4	Finca Santa Victoria	2	Febrero	2023-02-26T00:00:00	2024-11-08T07:00:00	3	Temperatura mínima	8.3
92080	7	Sololá	701	Sololá	4	Finca Santa Victoria	2	Febrero	2023-02-26T00:00:00	2024-11-08T07:00:00	5	Humedad	83
92081	7	Sololá	701	Sololá	4	Finca Santa Victoria	2	Febrero	2023-02-26T00:00:00	2024-11-08T07:00:00	6	Velocidad del viento	1.6
92082	7	Sololá	701	Sololá	4	Finca Santa Victoria	2	Febrero	2023-02-26T00:00:00	2024-11-08T07:00:00	7	Dirección del viento	1.61
92083	7	Sololá	701	Sololá	4	Finca Santa Victoria	2	Febrero	2023-02-26T00:00:00	2024-11-08T07:00:00	1	Precipitación	0
92084	7	Sololá	701	Sololá	4	Finca Santa Victoria	2	Febrero	2023-02-26T00:00:00	2024-11-08T07:00:00	8	Radiación solar	6
92085	7	Sololá	701	Sololá	4	Finca Santa Victoria	2	Febrero	2023-02-26T00:00:00	2024-11-08T08:00:00	2	Temperatura media	11.8
92086	7	Sololá	701	Sololá	4	Finca Santa Victoria	2	Febrero	2023-02-26T00:00:00	2024-11-08T08:00:00	4	Temperatura máxima	11.8
92087	7	Sololá	701	Sololá	4	Finca Santa Victoria	2	Febrero	2023-02-26T00:00:00	2024-11-08T08:00:00	3	Temperatura mínima	8.6
92088	7	Sololá	701	Sololá	4	Finca Santa Victoria	2	Febrero	2023-02-26T00:00:00	2024-11-08T08:00:00	5	Humedad	75
92089	7	Sololá	701	Sololá	4	Finca Santa Victoria	2	Febrero	2023-02-26T00:00:00	2024-11-08T08:00:00	6	Velocidad del viento	1.6
92090	7	Sololá	701	Sololá	4	Finca Santa Victoria	2	Febrero	2023-02-26T00:00:00	2024-11-08T08:00:00	7	Dirección del viento	1.61
92091	7	Sololá	701	Sololá	4	Finca Santa Victoria	2	Febrero	2023-02-26T00:00:00	2024-11-08T08:00:00	1	Precipitación	0
92092	7	Sololá	701	Sololá	4	Finca Santa Victoria	2	Febrero	2023-02-26T00:00:00	2024-11-08T08:00:00	8	Radiación solar	83
92093	7	Sololá	701	Sololá	4	Finca Santa Victoria	2	Febrero	2023-02-26T00:00:00	2024-11-08T09:00:00	2	Temperatura media	15
92094	7	Sololá	701	Sololá	4	Finca Santa Victoria	2	Febrero	2023-02-26T00:00:00	2024-11-08T09:00:00	4	Temperatura máxima	15
92095	7	Sololá	701	Sololá	4	Finca Santa Victoria	2	Febrero	2023-02-26T00:00:00	2024-11-08T09:00:00	3	Temperatura mínima	11.8
92096	7	Sololá	701	Sololá	4	Finca Santa Victoria	2	Febrero	2023-02-26T00:00:00	2024-11-08T09:00:00	5	Humedad	64
92097	7	Sololá	701	Sololá	4	Finca Santa Victoria	2	Febrero	2023-02-26T00:00:00	2024-11-08T09:00:00	6	Velocidad del viento	1.6
92098	7	Sololá	701	Sololá	4	Finca Santa Victoria	2	Febrero	2023-02-26T00:00:00	2024-11-08T09:00:00	7	Dirección del viento	1.61
92099	7	Sololá	701	Sololá	4	Finca Santa Victoria	2	Febrero	2023-02-26T00:00:00	2024-11-08T09:00:00	1	Precipitación	0
92100	7	Sololá	701	Sololá	4	Finca Santa Victoria	2	Febrero	2023-02-26T00:00:00	2024-11-08T09:00:00	8	Radiación solar	207
92101	7	Sololá	701	Sololá	4	Finca Santa Victoria	2	Febrero	2023-02-26T00:00:00	2024-11-08T10:00:00	2	Temperatura media	18.4
92102	7	Sololá	701	Sololá	4	Finca Santa Victoria	2	Febrero	2023-02-26T00:00:00	2024-11-08T10:00:00	4	Temperatura máxima	18.4
92103	7	Sololá	701	Sololá	4	Finca Santa Victoria	2	Febrero	2023-02-26T00:00:00	2024-11-08T10:00:00	3	Temperatura mínima	15
92104	7	Sololá	701	Sololá	4	Finca Santa Victoria	2	Febrero	2023-02-26T00:00:00	2024-11-08T10:00:00	5	Humedad	51
92105	7	Sololá	701	Sololá	4	Finca Santa Victoria	2	Febrero	2023-02-26T00:00:00	2024-11-08T10:00:00	6	Velocidad del viento	3.2
92106	7	Sololá	701	Sololá	4	Finca Santa Victoria	2	Febrero	2023-02-26T00:00:00	2024-11-08T10:00:00	7	Dirección del viento	3.22
92107	7	Sololá	701	Sololá	4	Finca Santa Victoria	2	Febrero	2023-02-26T00:00:00	2024-11-08T10:00:00	1	Precipitación	0
92108	7	Sololá	701	Sololá	4	Finca Santa Victoria	2	Febrero	2023-02-26T00:00:00	2024-11-08T10:00:00	8	Radiación solar	692
92109	7	Sololá	701	Sololá	4	Finca Santa Victoria	2	Febrero	2023-02-26T00:00:00	2024-11-08T11:00:00	2	Temperatura media	19.6
92110	7	Sololá	701	Sololá	4	Finca Santa Victoria	2	Febrero	2023-02-26T00:00:00	2024-11-08T11:00:00	4	Temperatura máxima	20.4
92111	7	Sololá	701	Sololá	4	Finca Santa Victoria	2	Febrero	2023-02-26T00:00:00	2024-11-08T11:00:00	3	Temperatura mínima	18.4
92112	7	Sololá	701	Sololá	4	Finca Santa Victoria	2	Febrero	2023-02-26T00:00:00	2024-11-08T11:00:00	5	Humedad	50
92113	7	Sololá	701	Sololá	4	Finca Santa Victoria	2	Febrero	2023-02-26T00:00:00	2024-11-08T11:00:00	6	Velocidad del viento	3.2
92114	7	Sololá	701	Sololá	4	Finca Santa Victoria	2	Febrero	2023-02-26T00:00:00	2024-11-08T11:00:00	7	Dirección del viento	3.22
92115	7	Sololá	701	Sololá	4	Finca Santa Victoria	2	Febrero	2023-02-26T00:00:00	2024-11-08T11:00:00	1	Precipitación	0
92116	7	Sololá	701	Sololá	4	Finca Santa Victoria	2	Febrero	2023-02-26T00:00:00	2024-11-08T11:00:00	8	Radiación solar	875
92117	7	Sololá	701	Sololá	4	Finca Santa Victoria	2	Febrero	2023-02-26T00:00:00	2024-11-08T12:00:00	2	Temperatura media	21
92118	7	Sololá	701	Sololá	4	Finca Santa Victoria	2	Febrero	2023-02-26T00:00:00	2024-11-08T12:00:00	4	Temperatura máxima	21.1
92119	7	Sololá	701	Sololá	4	Finca Santa Victoria	2	Febrero	2023-02-26T00:00:00	2024-11-08T12:00:00	3	Temperatura mínima	19.3
92120	7	Sololá	701	Sololá	4	Finca Santa Victoria	2	Febrero	2023-02-26T00:00:00	2024-11-08T12:00:00	5	Humedad	47
92121	7	Sololá	701	Sololá	4	Finca Santa Victoria	2	Febrero	2023-02-26T00:00:00	2024-11-08T12:00:00	6	Velocidad del viento	3.2
92122	7	Sololá	701	Sololá	4	Finca Santa Victoria	2	Febrero	2023-02-26T00:00:00	2024-11-08T12:00:00	7	Dirección del viento	3.22
92123	7	Sololá	701	Sololá	4	Finca Santa Victoria	2	Febrero	2023-02-26T00:00:00	2024-11-08T12:00:00	1	Precipitación	0
92124	7	Sololá	701	Sololá	4	Finca Santa Victoria	2	Febrero	2023-02-26T00:00:00	2024-11-08T12:00:00	8	Radiación solar	950
92125	7	Sololá	701	Sololá	4	Finca Santa Victoria	2	Febrero	2023-02-26T00:00:00	2024-11-08T13:00:00	2	Temperatura media	20.4
92126	7	Sololá	701	Sololá	4	Finca Santa Victoria	2	Febrero	2023-02-26T00:00:00	2024-11-08T13:00:00	4	Temperatura máxima	21.2
92127	7	Sololá	701	Sololá	4	Finca Santa Victoria	2	Febrero	2023-02-26T00:00:00	2024-11-08T13:00:00	3	Temperatura mínima	20.2
92128	7	Sololá	701	Sololá	4	Finca Santa Victoria	2	Febrero	2023-02-26T00:00:00	2024-11-08T13:00:00	5	Humedad	60
92129	7	Sololá	701	Sololá	4	Finca Santa Victoria	2	Febrero	2023-02-26T00:00:00	2024-11-08T13:00:00	6	Velocidad del viento	3.2
92130	7	Sololá	701	Sololá	4	Finca Santa Victoria	2	Febrero	2023-02-26T00:00:00	2024-11-08T13:00:00	7	Dirección del viento	3.22
92131	7	Sololá	701	Sololá	4	Finca Santa Victoria	2	Febrero	2023-02-26T00:00:00	2024-11-08T13:00:00	1	Precipitación	0
92132	7	Sololá	701	Sololá	4	Finca Santa Victoria	2	Febrero	2023-02-26T00:00:00	2024-11-08T13:00:00	8	Radiación solar	949
92133	7	Sololá	701	Sololá	4	Finca Santa Victoria	2	Febrero	2023-02-26T00:00:00	2024-11-08T14:00:00	2	Temperatura media	19.6
92134	7	Sololá	701	Sololá	4	Finca Santa Victoria	2	Febrero	2023-02-26T00:00:00	2024-11-08T14:00:00	4	Temperatura máxima	20.6
92135	7	Sololá	701	Sololá	4	Finca Santa Victoria	2	Febrero	2023-02-26T00:00:00	2024-11-08T14:00:00	3	Temperatura mínima	19.1
92136	7	Sololá	701	Sololá	4	Finca Santa Victoria	2	Febrero	2023-02-26T00:00:00	2024-11-08T14:00:00	5	Humedad	69
92137	7	Sololá	701	Sololá	4	Finca Santa Victoria	2	Febrero	2023-02-26T00:00:00	2024-11-08T14:00:00	6	Velocidad del viento	3.2
92138	7	Sololá	701	Sololá	4	Finca Santa Victoria	2	Febrero	2023-02-26T00:00:00	2024-11-08T14:00:00	7	Dirección del viento	3.22
92139	7	Sololá	701	Sololá	4	Finca Santa Victoria	2	Febrero	2023-02-26T00:00:00	2024-11-08T14:00:00	1	Precipitación	0
92140	7	Sololá	701	Sololá	4	Finca Santa Victoria	2	Febrero	2023-02-26T00:00:00	2024-11-08T14:00:00	8	Radiación solar	745
92141	7	Sololá	701	Sololá	4	Finca Santa Victoria	2	Febrero	2023-02-26T00:00:00	2024-11-08T15:00:00	2	Temperatura media	17.8
92142	7	Sololá	701	Sololá	4	Finca Santa Victoria	2	Febrero	2023-02-26T00:00:00	2024-11-08T15:00:00	4	Temperatura máxima	19.9
92143	7	Sololá	701	Sololá	4	Finca Santa Victoria	2	Febrero	2023-02-26T00:00:00	2024-11-08T15:00:00	3	Temperatura mínima	17.8
92144	7	Sololá	701	Sololá	4	Finca Santa Victoria	2	Febrero	2023-02-26T00:00:00	2024-11-08T15:00:00	5	Humedad	77
92145	7	Sololá	701	Sololá	4	Finca Santa Victoria	2	Febrero	2023-02-26T00:00:00	2024-11-08T15:00:00	6	Velocidad del viento	4.8
92146	7	Sololá	701	Sololá	4	Finca Santa Victoria	2	Febrero	2023-02-26T00:00:00	2024-11-08T15:00:00	7	Dirección del viento	4.83
92147	7	Sololá	701	Sololá	4	Finca Santa Victoria	2	Febrero	2023-02-26T00:00:00	2024-11-08T15:00:00	1	Precipitación	0
92148	7	Sololá	701	Sololá	4	Finca Santa Victoria	2	Febrero	2023-02-26T00:00:00	2024-11-08T15:00:00	8	Radiación solar	539
92149	7	Sololá	701	Sololá	4	Finca Santa Victoria	2	Febrero	2023-02-26T00:00:00	2024-11-08T16:00:00	2	Temperatura media	16.2
92150	7	Sololá	701	Sololá	4	Finca Santa Victoria	2	Febrero	2023-02-26T00:00:00	2024-11-08T16:00:00	4	Temperatura máxima	18.7
92151	7	Sololá	701	Sololá	4	Finca Santa Victoria	2	Febrero	2023-02-26T00:00:00	2024-11-08T16:00:00	3	Temperatura mínima	16.2
92152	7	Sololá	701	Sololá	4	Finca Santa Victoria	2	Febrero	2023-02-26T00:00:00	2024-11-08T16:00:00	5	Humedad	84
92153	7	Sololá	701	Sololá	4	Finca Santa Victoria	2	Febrero	2023-02-26T00:00:00	2024-11-08T16:00:00	6	Velocidad del viento	4.8
92154	7	Sololá	701	Sololá	4	Finca Santa Victoria	2	Febrero	2023-02-26T00:00:00	2024-11-08T16:00:00	7	Dirección del viento	4.83
92155	7	Sololá	701	Sololá	4	Finca Santa Victoria	2	Febrero	2023-02-26T00:00:00	2024-11-08T16:00:00	1	Precipitación	0
92156	7	Sololá	701	Sololá	4	Finca Santa Victoria	2	Febrero	2023-02-26T00:00:00	2024-11-08T16:00:00	8	Radiación solar	260
92157	7	Sololá	701	Sololá	4	Finca Santa Victoria	2	Febrero	2023-02-26T00:00:00	2024-11-08T17:00:00	2	Temperatura media	15.4
92158	7	Sololá	701	Sololá	4	Finca Santa Victoria	2	Febrero	2023-02-26T00:00:00	2024-11-08T17:00:00	4	Temperatura máxima	16.2
92159	7	Sololá	701	Sololá	4	Finca Santa Victoria	2	Febrero	2023-02-26T00:00:00	2024-11-08T17:00:00	3	Temperatura mínima	15.4
92160	7	Sololá	701	Sololá	4	Finca Santa Victoria	2	Febrero	2023-02-26T00:00:00	2024-11-08T17:00:00	5	Humedad	87
92161	7	Sololá	701	Sololá	4	Finca Santa Victoria	2	Febrero	2023-02-26T00:00:00	2024-11-08T17:00:00	6	Velocidad del viento	4.8
92162	7	Sololá	701	Sololá	4	Finca Santa Victoria	2	Febrero	2023-02-26T00:00:00	2024-11-08T17:00:00	7	Dirección del viento	4.83
92163	7	Sololá	701	Sololá	4	Finca Santa Victoria	2	Febrero	2023-02-26T00:00:00	2024-11-08T17:00:00	1	Precipitación	0
92164	7	Sololá	701	Sololá	4	Finca Santa Victoria	2	Febrero	2023-02-26T00:00:00	2024-11-08T17:00:00	8	Radiación solar	97
92165	7	Sololá	701	Sololá	4	Finca Santa Victoria	2	Febrero	2023-02-26T00:00:00	2024-11-08T18:00:00	2	Temperatura media	14.2
92166	7	Sololá	701	Sololá	4	Finca Santa Victoria	2	Febrero	2023-02-26T00:00:00	2024-11-08T18:00:00	4	Temperatura máxima	15.4
92167	7	Sololá	701	Sololá	4	Finca Santa Victoria	2	Febrero	2023-02-26T00:00:00	2024-11-08T18:00:00	3	Temperatura mínima	14.2
92168	7	Sololá	701	Sololá	4	Finca Santa Victoria	2	Febrero	2023-02-26T00:00:00	2024-11-08T18:00:00	5	Humedad	92
92169	7	Sololá	701	Sololá	4	Finca Santa Victoria	2	Febrero	2023-02-26T00:00:00	2024-11-08T18:00:00	6	Velocidad del viento	3.2
92170	7	Sololá	701	Sololá	4	Finca Santa Victoria	2	Febrero	2023-02-26T00:00:00	2024-11-08T18:00:00	7	Dirección del viento	3.22
92171	7	Sololá	701	Sololá	4	Finca Santa Victoria	2	Febrero	2023-02-26T00:00:00	2024-11-08T18:00:00	1	Precipitación	0
92172	7	Sololá	701	Sololá	4	Finca Santa Victoria	2	Febrero	2023-02-26T00:00:00	2024-11-08T18:00:00	8	Radiación solar	38
92173	7	Sololá	701	Sololá	4	Finca Santa Victoria	2	Febrero	2023-02-26T00:00:00	2024-11-08T19:00:00	2	Temperatura media	12.7
92174	7	Sololá	701	Sololá	4	Finca Santa Victoria	2	Febrero	2023-02-26T00:00:00	2024-11-08T19:00:00	4	Temperatura máxima	14.2
92175	7	Sololá	701	Sololá	4	Finca Santa Victoria	2	Febrero	2023-02-26T00:00:00	2024-11-08T19:00:00	3	Temperatura mínima	12.7
92176	7	Sololá	701	Sololá	4	Finca Santa Victoria	2	Febrero	2023-02-26T00:00:00	2024-11-08T19:00:00	5	Humedad	94
92177	7	Sololá	701	Sololá	4	Finca Santa Victoria	2	Febrero	2023-02-26T00:00:00	2024-11-08T19:00:00	6	Velocidad del viento	0
92178	7	Sololá	701	Sololá	4	Finca Santa Victoria	2	Febrero	2023-02-26T00:00:00	2024-11-08T19:00:00	7	Dirección del viento	0
92179	7	Sololá	701	Sololá	4	Finca Santa Victoria	2	Febrero	2023-02-26T00:00:00	2024-11-08T19:00:00	1	Precipitación	0
92180	7	Sololá	701	Sololá	4	Finca Santa Victoria	2	Febrero	2023-02-26T00:00:00	2024-11-08T19:00:00	8	Radiación solar	0
92181	7	Sololá	701	Sololá	4	Finca Santa Victoria	2	Febrero	2023-02-26T00:00:00	2024-11-08T20:00:00	2	Temperatura media	11.3
92182	7	Sololá	701	Sololá	4	Finca Santa Victoria	2	Febrero	2023-02-26T00:00:00	2024-11-08T20:00:00	4	Temperatura máxima	12.7
92183	7	Sololá	701	Sololá	4	Finca Santa Victoria	2	Febrero	2023-02-26T00:00:00	2024-11-08T20:00:00	3	Temperatura mínima	11.2
92184	7	Sololá	701	Sololá	4	Finca Santa Victoria	2	Febrero	2023-02-26T00:00:00	2024-11-08T20:00:00	5	Humedad	93
92185	7	Sololá	701	Sololá	4	Finca Santa Victoria	2	Febrero	2023-02-26T00:00:00	2024-11-08T20:00:00	6	Velocidad del viento	0
92186	7	Sololá	701	Sololá	4	Finca Santa Victoria	2	Febrero	2023-02-26T00:00:00	2024-11-08T20:00:00	7	Dirección del viento	0
92187	7	Sololá	701	Sololá	4	Finca Santa Victoria	2	Febrero	2023-02-26T00:00:00	2024-11-08T20:00:00	1	Precipitación	0
92188	7	Sololá	701	Sololá	4	Finca Santa Victoria	2	Febrero	2023-02-26T00:00:00	2024-11-08T20:00:00	8	Radiación solar	0
92189	7	Sololá	701	Sololá	4	Finca Santa Victoria	2	Febrero	2023-02-26T00:00:00	2024-11-08T21:00:00	2	Temperatura media	11.2
92190	7	Sololá	701	Sololá	4	Finca Santa Victoria	2	Febrero	2023-02-26T00:00:00	2024-11-08T21:00:00	4	Temperatura máxima	11.4
92191	7	Sololá	701	Sololá	4	Finca Santa Victoria	2	Febrero	2023-02-26T00:00:00	2024-11-08T21:00:00	3	Temperatura mínima	11.2
92192	7	Sololá	701	Sololá	4	Finca Santa Victoria	2	Febrero	2023-02-26T00:00:00	2024-11-08T21:00:00	5	Humedad	91
92193	7	Sololá	701	Sololá	4	Finca Santa Victoria	2	Febrero	2023-02-26T00:00:00	2024-11-08T21:00:00	6	Velocidad del viento	0
92194	7	Sololá	701	Sololá	4	Finca Santa Victoria	2	Febrero	2023-02-26T00:00:00	2024-11-08T21:00:00	7	Dirección del viento	0
92195	7	Sololá	701	Sololá	4	Finca Santa Victoria	2	Febrero	2023-02-26T00:00:00	2024-11-08T21:00:00	1	Precipitación	0
92196	7	Sololá	701	Sololá	4	Finca Santa Victoria	2	Febrero	2023-02-26T00:00:00	2024-11-08T21:00:00	8	Radiación solar	0
92197	7	Sololá	701	Sololá	4	Finca Santa Victoria	2	Febrero	2023-02-26T00:00:00	2024-11-08T22:00:00	2	Temperatura media	9.8
92198	7	Sololá	701	Sololá	4	Finca Santa Victoria	2	Febrero	2023-02-26T00:00:00	2024-11-08T22:00:00	4	Temperatura máxima	11.2
92199	7	Sololá	701	Sololá	4	Finca Santa Victoria	2	Febrero	2023-02-26T00:00:00	2024-11-08T22:00:00	3	Temperatura mínima	9.8
92200	7	Sololá	701	Sololá	4	Finca Santa Victoria	2	Febrero	2023-02-26T00:00:00	2024-11-08T22:00:00	5	Humedad	91
92201	7	Sololá	701	Sololá	4	Finca Santa Victoria	2	Febrero	2023-02-26T00:00:00	2024-11-08T22:00:00	6	Velocidad del viento	1.6
92202	7	Sololá	701	Sololá	4	Finca Santa Victoria	2	Febrero	2023-02-26T00:00:00	2024-11-08T22:00:00	7	Dirección del viento	1.61
92203	7	Sololá	701	Sololá	4	Finca Santa Victoria	2	Febrero	2023-02-26T00:00:00	2024-11-08T22:00:00	1	Precipitación	0
92204	7	Sololá	701	Sololá	4	Finca Santa Victoria	2	Febrero	2023-02-26T00:00:00	2024-11-08T22:00:00	8	Radiación solar	0
92205	7	Sololá	701	Sololá	4	Finca Santa Victoria	2	Febrero	2023-02-26T00:00:00	2024-11-08T23:00:00	2	Temperatura media	9.3
92206	7	Sololá	701	Sololá	4	Finca Santa Victoria	2	Febrero	2023-02-26T00:00:00	2024-11-08T23:00:00	4	Temperatura máxima	9.8
92207	7	Sololá	701	Sololá	4	Finca Santa Victoria	2	Febrero	2023-02-26T00:00:00	2024-11-08T23:00:00	3	Temperatura mínima	9.2
92208	7	Sololá	701	Sololá	4	Finca Santa Victoria	2	Febrero	2023-02-26T00:00:00	2024-11-08T23:00:00	5	Humedad	92
92209	7	Sololá	701	Sololá	4	Finca Santa Victoria	2	Febrero	2023-02-26T00:00:00	2024-11-08T23:00:00	6	Velocidad del viento	1.6
92210	7	Sololá	701	Sololá	4	Finca Santa Victoria	2	Febrero	2023-02-26T00:00:00	2024-11-08T23:00:00	7	Dirección del viento	1.61
92211	7	Sololá	701	Sololá	4	Finca Santa Victoria	2	Febrero	2023-02-26T00:00:00	2024-11-08T23:00:00	1	Precipitación	0
92212	7	Sololá	701	Sololá	4	Finca Santa Victoria	2	Febrero	2023-02-26T00:00:00	2024-11-08T23:00:00	8	Radiación solar	0
92213	7	Sololá	701	Sololá	4	Finca Santa Victoria	2	Febrero	2023-02-27T00:00:00	2024-11-08T00:00:00	2	Temperatura media	8.8
92214	7	Sololá	701	Sololá	4	Finca Santa Victoria	2	Febrero	2023-02-27T00:00:00	2024-11-08T00:00:00	4	Temperatura máxima	9.3
92215	7	Sololá	701	Sololá	4	Finca Santa Victoria	2	Febrero	2023-02-27T00:00:00	2024-11-08T00:00:00	3	Temperatura mínima	8.8
92216	7	Sololá	701	Sololá	4	Finca Santa Victoria	2	Febrero	2023-02-27T00:00:00	2024-11-08T00:00:00	5	Humedad	93
92217	7	Sololá	701	Sololá	4	Finca Santa Victoria	2	Febrero	2023-02-27T00:00:00	2024-11-08T00:00:00	6	Velocidad del viento	1.6
92218	7	Sololá	701	Sololá	4	Finca Santa Victoria	2	Febrero	2023-02-27T00:00:00	2024-11-08T00:00:00	7	Dirección del viento	1.61
92219	7	Sololá	701	Sololá	4	Finca Santa Victoria	2	Febrero	2023-02-27T00:00:00	2024-11-08T00:00:00	1	Precipitación	0
92220	7	Sololá	701	Sololá	4	Finca Santa Victoria	2	Febrero	2023-02-27T00:00:00	2024-11-08T00:00:00	8	Radiación solar	0
92221	7	Sololá	701	Sololá	4	Finca Santa Victoria	2	Febrero	2023-02-27T00:00:00	2024-11-08T01:00:00	2	Temperatura media	8.6
92222	7	Sololá	701	Sololá	4	Finca Santa Victoria	2	Febrero	2023-02-27T00:00:00	2024-11-08T01:00:00	4	Temperatura máxima	8.8
92223	7	Sololá	701	Sololá	4	Finca Santa Victoria	2	Febrero	2023-02-27T00:00:00	2024-11-08T01:00:00	3	Temperatura mínima	8.3
92224	7	Sololá	701	Sololá	4	Finca Santa Victoria	2	Febrero	2023-02-27T00:00:00	2024-11-08T01:00:00	5	Humedad	88
92225	7	Sololá	701	Sololá	4	Finca Santa Victoria	2	Febrero	2023-02-27T00:00:00	2024-11-08T01:00:00	6	Velocidad del viento	1.6
92226	7	Sololá	701	Sololá	4	Finca Santa Victoria	2	Febrero	2023-02-27T00:00:00	2024-11-08T01:00:00	7	Dirección del viento	1.61
92227	7	Sololá	701	Sololá	4	Finca Santa Victoria	2	Febrero	2023-02-27T00:00:00	2024-11-08T01:00:00	1	Precipitación	0
92228	7	Sololá	701	Sololá	4	Finca Santa Victoria	2	Febrero	2023-02-27T00:00:00	2024-11-08T01:00:00	8	Radiación solar	0
92229	7	Sololá	701	Sololá	4	Finca Santa Victoria	2	Febrero	2023-02-27T00:00:00	2024-11-08T02:00:00	2	Temperatura media	8.7
92230	7	Sololá	701	Sololá	4	Finca Santa Victoria	2	Febrero	2023-02-27T00:00:00	2024-11-08T02:00:00	4	Temperatura máxima	8.8
92231	7	Sololá	701	Sololá	4	Finca Santa Victoria	2	Febrero	2023-02-27T00:00:00	2024-11-08T02:00:00	3	Temperatura mínima	8.5
92232	7	Sololá	701	Sololá	4	Finca Santa Victoria	2	Febrero	2023-02-27T00:00:00	2024-11-08T02:00:00	5	Humedad	85
92233	7	Sololá	701	Sololá	4	Finca Santa Victoria	2	Febrero	2023-02-27T00:00:00	2024-11-08T02:00:00	6	Velocidad del viento	1.6
92234	7	Sololá	701	Sololá	4	Finca Santa Victoria	2	Febrero	2023-02-27T00:00:00	2024-11-08T02:00:00	7	Dirección del viento	1.61
92235	7	Sololá	701	Sololá	4	Finca Santa Victoria	2	Febrero	2023-02-27T00:00:00	2024-11-08T02:00:00	1	Precipitación	0
92236	7	Sololá	701	Sololá	4	Finca Santa Victoria	2	Febrero	2023-02-27T00:00:00	2024-11-08T02:00:00	8	Radiación solar	0
92237	7	Sololá	701	Sololá	4	Finca Santa Victoria	2	Febrero	2023-02-27T00:00:00	2024-11-08T03:00:00	2	Temperatura media	9.3
92238	7	Sololá	701	Sololá	4	Finca Santa Victoria	2	Febrero	2023-02-27T00:00:00	2024-11-08T03:00:00	4	Temperatura máxima	9.3
92239	7	Sololá	701	Sololá	4	Finca Santa Victoria	2	Febrero	2023-02-27T00:00:00	2024-11-08T03:00:00	3	Temperatura mínima	8.7
92240	7	Sololá	701	Sololá	4	Finca Santa Victoria	2	Febrero	2023-02-27T00:00:00	2024-11-08T03:00:00	5	Humedad	82
92241	7	Sololá	701	Sololá	4	Finca Santa Victoria	2	Febrero	2023-02-27T00:00:00	2024-11-08T03:00:00	6	Velocidad del viento	1.6
92242	7	Sololá	701	Sololá	4	Finca Santa Victoria	2	Febrero	2023-02-27T00:00:00	2024-11-08T03:00:00	7	Dirección del viento	1.61
92243	7	Sololá	701	Sololá	4	Finca Santa Victoria	2	Febrero	2023-02-27T00:00:00	2024-11-08T03:00:00	1	Precipitación	0
92244	7	Sololá	701	Sololá	4	Finca Santa Victoria	2	Febrero	2023-02-27T00:00:00	2024-11-08T03:00:00	8	Radiación solar	0
92245	7	Sololá	701	Sololá	4	Finca Santa Victoria	2	Febrero	2023-02-27T00:00:00	2024-11-08T04:00:00	2	Temperatura media	9.9
92246	7	Sololá	701	Sololá	4	Finca Santa Victoria	2	Febrero	2023-02-27T00:00:00	2024-11-08T04:00:00	4	Temperatura máxima	9.9
92247	7	Sololá	701	Sololá	4	Finca Santa Victoria	2	Febrero	2023-02-27T00:00:00	2024-11-08T04:00:00	3	Temperatura mínima	9.3
92248	7	Sololá	701	Sololá	4	Finca Santa Victoria	2	Febrero	2023-02-27T00:00:00	2024-11-08T04:00:00	5	Humedad	80
92249	7	Sololá	701	Sololá	4	Finca Santa Victoria	2	Febrero	2023-02-27T00:00:00	2024-11-08T04:00:00	6	Velocidad del viento	3.2
92250	7	Sololá	701	Sololá	4	Finca Santa Victoria	2	Febrero	2023-02-27T00:00:00	2024-11-08T04:00:00	7	Dirección del viento	3.22
92251	7	Sololá	701	Sololá	4	Finca Santa Victoria	2	Febrero	2023-02-27T00:00:00	2024-11-08T04:00:00	1	Precipitación	0
92252	7	Sololá	701	Sololá	4	Finca Santa Victoria	2	Febrero	2023-02-27T00:00:00	2024-11-08T04:00:00	8	Radiación solar	0
92253	7	Sololá	701	Sololá	4	Finca Santa Victoria	2	Febrero	2023-02-27T00:00:00	2024-11-08T05:00:00	2	Temperatura media	10
92254	7	Sololá	701	Sololá	4	Finca Santa Victoria	2	Febrero	2023-02-27T00:00:00	2024-11-08T05:00:00	4	Temperatura máxima	10.1
92255	7	Sololá	701	Sololá	4	Finca Santa Victoria	2	Febrero	2023-02-27T00:00:00	2024-11-08T05:00:00	3	Temperatura mínima	9.9
92256	7	Sololá	701	Sololá	4	Finca Santa Victoria	2	Febrero	2023-02-27T00:00:00	2024-11-08T05:00:00	5	Humedad	82
92257	7	Sololá	701	Sololá	4	Finca Santa Victoria	2	Febrero	2023-02-27T00:00:00	2024-11-08T05:00:00	6	Velocidad del viento	1.6
92258	7	Sololá	701	Sololá	4	Finca Santa Victoria	2	Febrero	2023-02-27T00:00:00	2024-11-08T05:00:00	7	Dirección del viento	1.61
92259	7	Sololá	701	Sololá	4	Finca Santa Victoria	2	Febrero	2023-02-27T00:00:00	2024-11-08T05:00:00	1	Precipitación	0
92260	7	Sololá	701	Sololá	4	Finca Santa Victoria	2	Febrero	2023-02-27T00:00:00	2024-11-08T05:00:00	8	Radiación solar	0
92261	7	Sololá	701	Sololá	4	Finca Santa Victoria	2	Febrero	2023-02-27T00:00:00	2024-11-08T06:00:00	2	Temperatura media	9.8
92262	7	Sololá	701	Sololá	4	Finca Santa Victoria	2	Febrero	2023-02-27T00:00:00	2024-11-08T06:00:00	4	Temperatura máxima	10.1
92263	7	Sololá	701	Sololá	4	Finca Santa Victoria	2	Febrero	2023-02-27T00:00:00	2024-11-08T06:00:00	3	Temperatura mínima	9.8
92264	7	Sololá	701	Sololá	4	Finca Santa Victoria	2	Febrero	2023-02-27T00:00:00	2024-11-08T06:00:00	5	Humedad	83
92265	7	Sololá	701	Sololá	4	Finca Santa Victoria	2	Febrero	2023-02-27T00:00:00	2024-11-08T06:00:00	6	Velocidad del viento	1.6
92266	7	Sololá	701	Sololá	4	Finca Santa Victoria	2	Febrero	2023-02-27T00:00:00	2024-11-08T06:00:00	7	Dirección del viento	1.61
92267	7	Sololá	701	Sololá	4	Finca Santa Victoria	2	Febrero	2023-02-27T00:00:00	2024-11-08T06:00:00	1	Precipitación	0
92268	7	Sololá	701	Sololá	4	Finca Santa Victoria	2	Febrero	2023-02-27T00:00:00	2024-11-08T06:00:00	8	Radiación solar	0
92269	7	Sololá	701	Sololá	4	Finca Santa Victoria	2	Febrero	2023-02-27T00:00:00	2024-11-08T07:00:00	2	Temperatura media	9.7
92270	7	Sololá	701	Sololá	4	Finca Santa Victoria	2	Febrero	2023-02-27T00:00:00	2024-11-08T07:00:00	4	Temperatura máxima	9.9
92271	7	Sololá	701	Sololá	4	Finca Santa Victoria	2	Febrero	2023-02-27T00:00:00	2024-11-08T07:00:00	3	Temperatura mínima	9.7
92272	7	Sololá	701	Sololá	4	Finca Santa Victoria	2	Febrero	2023-02-27T00:00:00	2024-11-08T07:00:00	5	Humedad	82
92273	7	Sololá	701	Sololá	4	Finca Santa Victoria	2	Febrero	2023-02-27T00:00:00	2024-11-08T07:00:00	6	Velocidad del viento	1.6
92274	7	Sololá	701	Sololá	4	Finca Santa Victoria	2	Febrero	2023-02-27T00:00:00	2024-11-08T07:00:00	7	Dirección del viento	1.61
92275	7	Sololá	701	Sololá	4	Finca Santa Victoria	2	Febrero	2023-02-27T00:00:00	2024-11-08T07:00:00	1	Precipitación	0
92276	7	Sololá	701	Sololá	4	Finca Santa Victoria	2	Febrero	2023-02-27T00:00:00	2024-11-08T07:00:00	8	Radiación solar	7
92277	7	Sololá	701	Sololá	4	Finca Santa Victoria	2	Febrero	2023-02-27T00:00:00	2024-11-08T08:00:00	2	Temperatura media	12.5
92278	7	Sololá	701	Sololá	4	Finca Santa Victoria	2	Febrero	2023-02-27T00:00:00	2024-11-08T08:00:00	4	Temperatura máxima	12.5
92279	7	Sololá	701	Sololá	4	Finca Santa Victoria	2	Febrero	2023-02-27T00:00:00	2024-11-08T08:00:00	3	Temperatura mínima	9.7
92280	7	Sololá	701	Sololá	4	Finca Santa Victoria	2	Febrero	2023-02-27T00:00:00	2024-11-08T08:00:00	5	Humedad	76
92281	7	Sololá	701	Sololá	4	Finca Santa Victoria	2	Febrero	2023-02-27T00:00:00	2024-11-08T08:00:00	6	Velocidad del viento	1.6
92282	7	Sololá	701	Sololá	4	Finca Santa Victoria	2	Febrero	2023-02-27T00:00:00	2024-11-08T08:00:00	7	Dirección del viento	1.61
92283	7	Sololá	701	Sololá	4	Finca Santa Victoria	2	Febrero	2023-02-27T00:00:00	2024-11-08T08:00:00	1	Precipitación	0
92284	7	Sololá	701	Sololá	4	Finca Santa Victoria	2	Febrero	2023-02-27T00:00:00	2024-11-08T08:00:00	8	Radiación solar	95
92285	7	Sololá	701	Sololá	4	Finca Santa Victoria	2	Febrero	2023-02-27T00:00:00	2024-11-08T09:00:00	2	Temperatura media	13.9
92286	7	Sololá	701	Sololá	4	Finca Santa Victoria	2	Febrero	2023-02-27T00:00:00	2024-11-08T09:00:00	4	Temperatura máxima	14
92287	7	Sololá	701	Sololá	4	Finca Santa Victoria	2	Febrero	2023-02-27T00:00:00	2024-11-08T09:00:00	3	Temperatura mínima	12.4
92288	7	Sololá	701	Sololá	4	Finca Santa Victoria	2	Febrero	2023-02-27T00:00:00	2024-11-08T09:00:00	5	Humedad	71
92289	7	Sololá	701	Sololá	4	Finca Santa Victoria	2	Febrero	2023-02-27T00:00:00	2024-11-08T09:00:00	6	Velocidad del viento	1.6
92290	7	Sololá	701	Sololá	4	Finca Santa Victoria	2	Febrero	2023-02-27T00:00:00	2024-11-08T09:00:00	7	Dirección del viento	1.61
92291	7	Sololá	701	Sololá	4	Finca Santa Victoria	2	Febrero	2023-02-27T00:00:00	2024-11-08T09:00:00	1	Precipitación	0
92292	7	Sololá	701	Sololá	4	Finca Santa Victoria	2	Febrero	2023-02-27T00:00:00	2024-11-08T09:00:00	8	Radiación solar	224
92293	7	Sololá	701	Sololá	4	Finca Santa Victoria	2	Febrero	2023-02-27T00:00:00	2024-11-08T10:00:00	2	Temperatura media	15.8
92294	7	Sololá	701	Sololá	4	Finca Santa Victoria	2	Febrero	2023-02-27T00:00:00	2024-11-08T10:00:00	4	Temperatura máxima	15.8
92295	7	Sololá	701	Sololá	4	Finca Santa Victoria	2	Febrero	2023-02-27T00:00:00	2024-11-08T10:00:00	3	Temperatura mínima	13.9
92296	7	Sololá	701	Sololá	4	Finca Santa Victoria	2	Febrero	2023-02-27T00:00:00	2024-11-08T10:00:00	5	Humedad	67
92297	7	Sololá	701	Sololá	4	Finca Santa Victoria	2	Febrero	2023-02-27T00:00:00	2024-11-08T10:00:00	6	Velocidad del viento	3.2
92298	7	Sololá	701	Sololá	4	Finca Santa Victoria	2	Febrero	2023-02-27T00:00:00	2024-11-08T10:00:00	7	Dirección del viento	3.22
92299	7	Sololá	701	Sololá	4	Finca Santa Victoria	2	Febrero	2023-02-27T00:00:00	2024-11-08T10:00:00	1	Precipitación	0
92300	7	Sololá	701	Sololá	4	Finca Santa Victoria	2	Febrero	2023-02-27T00:00:00	2024-11-08T10:00:00	8	Radiación solar	694
92301	7	Sololá	701	Sololá	4	Finca Santa Victoria	2	Febrero	2023-02-27T00:00:00	2024-11-08T11:00:00	2	Temperatura media	17.7
92302	7	Sololá	701	Sololá	4	Finca Santa Victoria	2	Febrero	2023-02-27T00:00:00	2024-11-08T11:00:00	4	Temperatura máxima	17.8
92303	7	Sololá	701	Sololá	4	Finca Santa Victoria	2	Febrero	2023-02-27T00:00:00	2024-11-08T11:00:00	3	Temperatura mínima	15.8
92304	7	Sololá	701	Sololá	4	Finca Santa Victoria	2	Febrero	2023-02-27T00:00:00	2024-11-08T11:00:00	5	Humedad	50
92305	7	Sololá	701	Sololá	4	Finca Santa Victoria	2	Febrero	2023-02-27T00:00:00	2024-11-08T11:00:00	6	Velocidad del viento	4.8
92306	7	Sololá	701	Sololá	4	Finca Santa Victoria	2	Febrero	2023-02-27T00:00:00	2024-11-08T11:00:00	7	Dirección del viento	4.83
92307	7	Sololá	701	Sololá	4	Finca Santa Victoria	2	Febrero	2023-02-27T00:00:00	2024-11-08T11:00:00	1	Precipitación	0
92308	7	Sololá	701	Sololá	4	Finca Santa Victoria	2	Febrero	2023-02-27T00:00:00	2024-11-08T11:00:00	8	Radiación solar	865
92309	7	Sololá	701	Sololá	4	Finca Santa Victoria	2	Febrero	2023-02-27T00:00:00	2024-11-08T12:00:00	2	Temperatura media	18.2
92310	7	Sololá	701	Sololá	4	Finca Santa Victoria	2	Febrero	2023-02-27T00:00:00	2024-11-08T12:00:00	4	Temperatura máxima	19
92311	7	Sololá	701	Sololá	4	Finca Santa Victoria	2	Febrero	2023-02-27T00:00:00	2024-11-08T12:00:00	3	Temperatura mínima	17.6
92312	7	Sololá	701	Sololá	4	Finca Santa Victoria	2	Febrero	2023-02-27T00:00:00	2024-11-08T12:00:00	5	Humedad	57
92313	7	Sololá	701	Sololá	4	Finca Santa Victoria	2	Febrero	2023-02-27T00:00:00	2024-11-08T12:00:00	6	Velocidad del viento	4.8
92314	7	Sololá	701	Sololá	4	Finca Santa Victoria	2	Febrero	2023-02-27T00:00:00	2024-11-08T12:00:00	7	Dirección del viento	4.83
92315	7	Sololá	701	Sololá	4	Finca Santa Victoria	2	Febrero	2023-02-27T00:00:00	2024-11-08T12:00:00	1	Precipitación	0
92316	7	Sololá	701	Sololá	4	Finca Santa Victoria	2	Febrero	2023-02-27T00:00:00	2024-11-08T12:00:00	8	Radiación solar	961
92317	7	Sololá	701	Sololá	4	Finca Santa Victoria	2	Febrero	2023-02-27T00:00:00	2024-11-08T13:00:00	2	Temperatura media	18.7
92318	7	Sololá	701	Sololá	4	Finca Santa Victoria	2	Febrero	2023-02-27T00:00:00	2024-11-08T13:00:00	4	Temperatura máxima	18.7
92319	7	Sololá	701	Sololá	4	Finca Santa Victoria	2	Febrero	2023-02-27T00:00:00	2024-11-08T13:00:00	3	Temperatura mínima	17.9
92320	7	Sololá	701	Sololá	4	Finca Santa Victoria	2	Febrero	2023-02-27T00:00:00	2024-11-08T13:00:00	5	Humedad	59
92321	7	Sololá	701	Sololá	4	Finca Santa Victoria	2	Febrero	2023-02-27T00:00:00	2024-11-08T13:00:00	6	Velocidad del viento	6.4
92322	7	Sololá	701	Sololá	4	Finca Santa Victoria	2	Febrero	2023-02-27T00:00:00	2024-11-08T13:00:00	7	Dirección del viento	6.44
92323	7	Sololá	701	Sololá	4	Finca Santa Victoria	2	Febrero	2023-02-27T00:00:00	2024-11-08T13:00:00	1	Precipitación	0
92324	7	Sololá	701	Sololá	4	Finca Santa Victoria	2	Febrero	2023-02-27T00:00:00	2024-11-08T13:00:00	8	Radiación solar	956
92325	7	Sololá	701	Sololá	4	Finca Santa Victoria	2	Febrero	2023-02-27T00:00:00	2024-11-08T14:00:00	2	Temperatura media	18.8
92326	7	Sololá	701	Sololá	4	Finca Santa Victoria	2	Febrero	2023-02-27T00:00:00	2024-11-08T14:00:00	4	Temperatura máxima	18.8
92327	7	Sololá	701	Sololá	4	Finca Santa Victoria	2	Febrero	2023-02-27T00:00:00	2024-11-08T14:00:00	3	Temperatura mínima	18.3
92328	7	Sololá	701	Sololá	4	Finca Santa Victoria	2	Febrero	2023-02-27T00:00:00	2024-11-08T14:00:00	5	Humedad	69
92329	7	Sololá	701	Sololá	4	Finca Santa Victoria	2	Febrero	2023-02-27T00:00:00	2024-11-08T14:00:00	6	Velocidad del viento	6.4
92330	7	Sololá	701	Sololá	4	Finca Santa Victoria	2	Febrero	2023-02-27T00:00:00	2024-11-08T14:00:00	7	Dirección del viento	6.44
92331	7	Sololá	701	Sololá	4	Finca Santa Victoria	2	Febrero	2023-02-27T00:00:00	2024-11-08T14:00:00	1	Precipitación	0
92332	7	Sololá	701	Sololá	4	Finca Santa Victoria	2	Febrero	2023-02-27T00:00:00	2024-11-08T14:00:00	8	Radiación solar	791
92333	7	Sololá	701	Sololá	4	Finca Santa Victoria	2	Febrero	2023-02-27T00:00:00	2024-11-08T15:00:00	2	Temperatura media	17.5
92334	7	Sololá	701	Sololá	4	Finca Santa Victoria	2	Febrero	2023-02-27T00:00:00	2024-11-08T15:00:00	4	Temperatura máxima	18.8
92335	7	Sololá	701	Sololá	4	Finca Santa Victoria	2	Febrero	2023-02-27T00:00:00	2024-11-08T15:00:00	3	Temperatura mínima	17.3
92336	7	Sololá	701	Sololá	4	Finca Santa Victoria	2	Febrero	2023-02-27T00:00:00	2024-11-08T15:00:00	5	Humedad	74
92337	7	Sololá	701	Sololá	4	Finca Santa Victoria	2	Febrero	2023-02-27T00:00:00	2024-11-08T15:00:00	6	Velocidad del viento	6.4
92338	7	Sololá	701	Sololá	4	Finca Santa Victoria	2	Febrero	2023-02-27T00:00:00	2024-11-08T15:00:00	7	Dirección del viento	6.44
92339	7	Sololá	701	Sololá	4	Finca Santa Victoria	2	Febrero	2023-02-27T00:00:00	2024-11-08T15:00:00	1	Precipitación	0
92340	7	Sololá	701	Sololá	4	Finca Santa Victoria	2	Febrero	2023-02-27T00:00:00	2024-11-08T15:00:00	8	Radiación solar	290
92341	7	Sololá	701	Sololá	4	Finca Santa Victoria	2	Febrero	2023-02-27T00:00:00	2024-11-08T16:00:00	2	Temperatura media	16.3
92342	7	Sololá	701	Sololá	4	Finca Santa Victoria	2	Febrero	2023-02-27T00:00:00	2024-11-08T16:00:00	4	Temperatura máxima	18.1
92343	7	Sololá	701	Sololá	4	Finca Santa Victoria	2	Febrero	2023-02-27T00:00:00	2024-11-08T16:00:00	3	Temperatura mínima	16.3
92344	7	Sololá	701	Sololá	4	Finca Santa Victoria	2	Febrero	2023-02-27T00:00:00	2024-11-08T16:00:00	5	Humedad	80
92345	7	Sololá	701	Sololá	4	Finca Santa Victoria	2	Febrero	2023-02-27T00:00:00	2024-11-08T16:00:00	6	Velocidad del viento	4.8
92346	7	Sololá	701	Sololá	4	Finca Santa Victoria	2	Febrero	2023-02-27T00:00:00	2024-11-08T16:00:00	7	Dirección del viento	4.83
92347	7	Sololá	701	Sololá	4	Finca Santa Victoria	2	Febrero	2023-02-27T00:00:00	2024-11-08T16:00:00	1	Precipitación	0
92348	7	Sololá	701	Sololá	4	Finca Santa Victoria	2	Febrero	2023-02-27T00:00:00	2024-11-08T16:00:00	8	Radiación solar	180
92349	7	Sololá	701	Sololá	4	Finca Santa Victoria	2	Febrero	2023-02-27T00:00:00	2024-11-08T17:00:00	2	Temperatura media	15.4
92350	7	Sololá	701	Sololá	4	Finca Santa Victoria	2	Febrero	2023-02-27T00:00:00	2024-11-08T17:00:00	4	Temperatura máxima	16.4
92351	7	Sololá	701	Sololá	4	Finca Santa Victoria	2	Febrero	2023-02-27T00:00:00	2024-11-08T17:00:00	3	Temperatura mínima	15.4
92352	7	Sololá	701	Sololá	4	Finca Santa Victoria	2	Febrero	2023-02-27T00:00:00	2024-11-08T17:00:00	5	Humedad	84
92353	7	Sololá	701	Sololá	4	Finca Santa Victoria	2	Febrero	2023-02-27T00:00:00	2024-11-08T17:00:00	6	Velocidad del viento	4.8
92354	7	Sololá	701	Sololá	4	Finca Santa Victoria	2	Febrero	2023-02-27T00:00:00	2024-11-08T17:00:00	7	Dirección del viento	4.83
92355	7	Sololá	701	Sololá	4	Finca Santa Victoria	2	Febrero	2023-02-27T00:00:00	2024-11-08T17:00:00	1	Precipitación	0
92356	7	Sololá	701	Sololá	4	Finca Santa Victoria	2	Febrero	2023-02-27T00:00:00	2024-11-08T17:00:00	8	Radiación solar	105
92357	7	Sololá	701	Sololá	4	Finca Santa Victoria	2	Febrero	2023-02-27T00:00:00	2024-11-08T18:00:00	2	Temperatura media	14.3
92358	7	Sololá	701	Sololá	4	Finca Santa Victoria	2	Febrero	2023-02-27T00:00:00	2024-11-08T18:00:00	4	Temperatura máxima	15.4
92359	7	Sololá	701	Sololá	4	Finca Santa Victoria	2	Febrero	2023-02-27T00:00:00	2024-11-08T18:00:00	3	Temperatura mínima	14.3
92360	7	Sololá	701	Sololá	4	Finca Santa Victoria	2	Febrero	2023-02-27T00:00:00	2024-11-08T18:00:00	5	Humedad	91
92361	7	Sololá	701	Sololá	4	Finca Santa Victoria	2	Febrero	2023-02-27T00:00:00	2024-11-08T18:00:00	6	Velocidad del viento	1.6
92362	7	Sololá	701	Sololá	4	Finca Santa Victoria	2	Febrero	2023-02-27T00:00:00	2024-11-08T18:00:00	7	Dirección del viento	1.61
92363	7	Sololá	701	Sololá	4	Finca Santa Victoria	2	Febrero	2023-02-27T00:00:00	2024-11-08T18:00:00	1	Precipitación	0
92364	7	Sololá	701	Sololá	4	Finca Santa Victoria	2	Febrero	2023-02-27T00:00:00	2024-11-08T18:00:00	8	Radiación solar	35
92365	7	Sololá	701	Sololá	4	Finca Santa Victoria	2	Febrero	2023-02-27T00:00:00	2024-11-08T19:00:00	2	Temperatura media	13
92366	7	Sololá	701	Sololá	4	Finca Santa Victoria	2	Febrero	2023-02-27T00:00:00	2024-11-08T19:00:00	4	Temperatura máxima	14.3
92367	7	Sololá	701	Sololá	4	Finca Santa Victoria	2	Febrero	2023-02-27T00:00:00	2024-11-08T19:00:00	3	Temperatura mínima	13
92368	7	Sololá	701	Sololá	4	Finca Santa Victoria	2	Febrero	2023-02-27T00:00:00	2024-11-08T19:00:00	5	Humedad	93
92369	7	Sololá	701	Sololá	4	Finca Santa Victoria	2	Febrero	2023-02-27T00:00:00	2024-11-08T19:00:00	6	Velocidad del viento	1.6
92370	7	Sololá	701	Sololá	4	Finca Santa Victoria	2	Febrero	2023-02-27T00:00:00	2024-11-08T19:00:00	7	Dirección del viento	1.61
92371	7	Sololá	701	Sololá	4	Finca Santa Victoria	2	Febrero	2023-02-27T00:00:00	2024-11-08T19:00:00	1	Precipitación	0
92372	7	Sololá	701	Sololá	4	Finca Santa Victoria	2	Febrero	2023-02-27T00:00:00	2024-11-08T19:00:00	8	Radiación solar	0
92373	7	Sololá	701	Sololá	4	Finca Santa Victoria	2	Febrero	2023-02-27T00:00:00	2024-11-08T20:00:00	2	Temperatura media	12.6
92374	7	Sololá	701	Sololá	4	Finca Santa Victoria	2	Febrero	2023-02-27T00:00:00	2024-11-08T20:00:00	4	Temperatura máxima	13.1
92375	7	Sololá	701	Sololá	4	Finca Santa Victoria	2	Febrero	2023-02-27T00:00:00	2024-11-08T20:00:00	3	Temperatura mínima	12.6
92376	7	Sololá	701	Sololá	4	Finca Santa Victoria	2	Febrero	2023-02-27T00:00:00	2024-11-08T20:00:00	5	Humedad	91
92377	7	Sololá	701	Sololá	4	Finca Santa Victoria	2	Febrero	2023-02-27T00:00:00	2024-11-08T20:00:00	6	Velocidad del viento	1.6
92378	7	Sololá	701	Sololá	4	Finca Santa Victoria	2	Febrero	2023-02-27T00:00:00	2024-11-08T20:00:00	7	Dirección del viento	1.61
92379	7	Sololá	701	Sololá	4	Finca Santa Victoria	2	Febrero	2023-02-27T00:00:00	2024-11-08T20:00:00	1	Precipitación	0
92380	7	Sololá	701	Sololá	4	Finca Santa Victoria	2	Febrero	2023-02-27T00:00:00	2024-11-08T20:00:00	8	Radiación solar	0
92381	7	Sololá	701	Sololá	4	Finca Santa Victoria	2	Febrero	2023-02-27T00:00:00	2024-11-08T21:00:00	2	Temperatura media	12.2
92382	7	Sololá	701	Sololá	4	Finca Santa Victoria	2	Febrero	2023-02-27T00:00:00	2024-11-08T21:00:00	4	Temperatura máxima	12.6
92383	7	Sololá	701	Sololá	4	Finca Santa Victoria	2	Febrero	2023-02-27T00:00:00	2024-11-08T21:00:00	3	Temperatura mínima	12.1
92384	7	Sololá	701	Sololá	4	Finca Santa Victoria	2	Febrero	2023-02-27T00:00:00	2024-11-08T21:00:00	5	Humedad	94
92385	7	Sololá	701	Sololá	4	Finca Santa Victoria	2	Febrero	2023-02-27T00:00:00	2024-11-08T21:00:00	6	Velocidad del viento	0
92386	7	Sololá	701	Sololá	4	Finca Santa Victoria	2	Febrero	2023-02-27T00:00:00	2024-11-08T21:00:00	7	Dirección del viento	0
92387	7	Sololá	701	Sololá	4	Finca Santa Victoria	2	Febrero	2023-02-27T00:00:00	2024-11-08T21:00:00	1	Precipitación	0
92388	7	Sololá	701	Sololá	4	Finca Santa Victoria	2	Febrero	2023-02-27T00:00:00	2024-11-08T21:00:00	8	Radiación solar	0
92389	7	Sololá	701	Sololá	4	Finca Santa Victoria	2	Febrero	2023-02-27T00:00:00	2024-11-08T22:00:00	2	Temperatura media	12.3
92390	7	Sololá	701	Sololá	4	Finca Santa Victoria	2	Febrero	2023-02-27T00:00:00	2024-11-08T22:00:00	4	Temperatura máxima	12.3
92391	7	Sololá	701	Sololá	4	Finca Santa Victoria	2	Febrero	2023-02-27T00:00:00	2024-11-08T22:00:00	3	Temperatura mínima	11.9
92392	7	Sololá	701	Sololá	4	Finca Santa Victoria	2	Febrero	2023-02-27T00:00:00	2024-11-08T22:00:00	5	Humedad	89
92393	7	Sololá	701	Sololá	4	Finca Santa Victoria	2	Febrero	2023-02-27T00:00:00	2024-11-08T22:00:00	6	Velocidad del viento	1.6
92394	7	Sololá	701	Sololá	4	Finca Santa Victoria	2	Febrero	2023-02-27T00:00:00	2024-11-08T22:00:00	7	Dirección del viento	1.61
92395	7	Sololá	701	Sololá	4	Finca Santa Victoria	2	Febrero	2023-02-27T00:00:00	2024-11-08T22:00:00	1	Precipitación	0
92396	7	Sololá	701	Sololá	4	Finca Santa Victoria	2	Febrero	2023-02-27T00:00:00	2024-11-08T22:00:00	8	Radiación solar	0
92397	7	Sololá	701	Sololá	4	Finca Santa Victoria	2	Febrero	2023-02-27T00:00:00	2024-11-08T23:00:00	2	Temperatura media	12.2
92398	7	Sololá	701	Sololá	4	Finca Santa Victoria	2	Febrero	2023-02-27T00:00:00	2024-11-08T23:00:00	4	Temperatura máxima	12.4
92399	7	Sololá	701	Sololá	4	Finca Santa Victoria	2	Febrero	2023-02-27T00:00:00	2024-11-08T23:00:00	3	Temperatura mínima	12.2
92400	7	Sololá	701	Sololá	4	Finca Santa Victoria	2	Febrero	2023-02-27T00:00:00	2024-11-08T23:00:00	5	Humedad	81
92401	7	Sololá	701	Sololá	4	Finca Santa Victoria	2	Febrero	2023-02-27T00:00:00	2024-11-08T23:00:00	6	Velocidad del viento	1.6
92402	7	Sololá	701	Sololá	4	Finca Santa Victoria	2	Febrero	2023-02-27T00:00:00	2024-11-08T23:00:00	7	Dirección del viento	1.61
92403	7	Sololá	701	Sololá	4	Finca Santa Victoria	2	Febrero	2023-02-27T00:00:00	2024-11-08T23:00:00	1	Precipitación	0
92404	7	Sololá	701	Sololá	4	Finca Santa Victoria	2	Febrero	2023-02-27T00:00:00	2024-11-08T23:00:00	8	Radiación solar	0
92405	7	Sololá	701	Sololá	4	Finca Santa Victoria	2	Febrero	2023-02-28T00:00:00	2024-11-08T00:00:00	2	Temperatura media	12.4
92406	7	Sololá	701	Sololá	4	Finca Santa Victoria	2	Febrero	2023-02-28T00:00:00	2024-11-08T00:00:00	4	Temperatura máxima	12.5
92407	7	Sololá	701	Sololá	4	Finca Santa Victoria	2	Febrero	2023-02-28T00:00:00	2024-11-08T00:00:00	3	Temperatura mínima	12.2
92408	7	Sololá	701	Sololá	4	Finca Santa Victoria	2	Febrero	2023-02-28T00:00:00	2024-11-08T00:00:00	5	Humedad	74
92409	7	Sololá	701	Sololá	4	Finca Santa Victoria	2	Febrero	2023-02-28T00:00:00	2024-11-08T00:00:00	6	Velocidad del viento	1.6
92410	7	Sololá	701	Sololá	4	Finca Santa Victoria	2	Febrero	2023-02-28T00:00:00	2024-11-08T00:00:00	7	Dirección del viento	1.61
92411	7	Sololá	701	Sololá	4	Finca Santa Victoria	2	Febrero	2023-02-28T00:00:00	2024-11-08T00:00:00	1	Precipitación	0
92412	7	Sololá	701	Sololá	4	Finca Santa Victoria	2	Febrero	2023-02-28T00:00:00	2024-11-08T00:00:00	8	Radiación solar	0
92413	7	Sololá	701	Sololá	4	Finca Santa Victoria	2	Febrero	2023-02-28T00:00:00	2024-11-08T01:00:00	2	Temperatura media	11.8
92414	7	Sololá	701	Sololá	4	Finca Santa Victoria	2	Febrero	2023-02-28T00:00:00	2024-11-08T01:00:00	4	Temperatura máxima	12.6
92415	7	Sololá	701	Sololá	4	Finca Santa Victoria	2	Febrero	2023-02-28T00:00:00	2024-11-08T01:00:00	3	Temperatura mínima	11.8
92416	7	Sololá	701	Sololá	4	Finca Santa Victoria	2	Febrero	2023-02-28T00:00:00	2024-11-08T01:00:00	5	Humedad	74
92417	7	Sololá	701	Sololá	4	Finca Santa Victoria	2	Febrero	2023-02-28T00:00:00	2024-11-08T01:00:00	6	Velocidad del viento	1.6
92418	7	Sololá	701	Sololá	4	Finca Santa Victoria	2	Febrero	2023-02-28T00:00:00	2024-11-08T01:00:00	7	Dirección del viento	1.61
92419	7	Sololá	701	Sololá	4	Finca Santa Victoria	2	Febrero	2023-02-28T00:00:00	2024-11-08T01:00:00	1	Precipitación	0
92420	7	Sololá	701	Sololá	4	Finca Santa Victoria	2	Febrero	2023-02-28T00:00:00	2024-11-08T01:00:00	8	Radiación solar	0
92421	7	Sololá	701	Sololá	4	Finca Santa Victoria	2	Febrero	2023-02-28T00:00:00	2024-11-08T02:00:00	2	Temperatura media	11.1
92422	7	Sololá	701	Sololá	4	Finca Santa Victoria	2	Febrero	2023-02-28T00:00:00	2024-11-08T02:00:00	4	Temperatura máxima	11.8
92423	7	Sololá	701	Sololá	4	Finca Santa Victoria	2	Febrero	2023-02-28T00:00:00	2024-11-08T02:00:00	3	Temperatura mínima	11.1
92424	7	Sololá	701	Sololá	4	Finca Santa Victoria	2	Febrero	2023-02-28T00:00:00	2024-11-08T02:00:00	5	Humedad	79
92425	7	Sololá	701	Sololá	4	Finca Santa Victoria	2	Febrero	2023-02-28T00:00:00	2024-11-08T02:00:00	6	Velocidad del viento	1.6
92426	7	Sololá	701	Sololá	4	Finca Santa Victoria	2	Febrero	2023-02-28T00:00:00	2024-11-08T02:00:00	7	Dirección del viento	1.61
92427	7	Sololá	701	Sololá	4	Finca Santa Victoria	2	Febrero	2023-02-28T00:00:00	2024-11-08T02:00:00	1	Precipitación	0
92428	7	Sololá	701	Sololá	4	Finca Santa Victoria	2	Febrero	2023-02-28T00:00:00	2024-11-08T02:00:00	8	Radiación solar	0
92429	7	Sololá	701	Sololá	4	Finca Santa Victoria	2	Febrero	2023-02-28T00:00:00	2024-11-08T03:00:00	2	Temperatura media	10.6
92430	7	Sololá	701	Sololá	4	Finca Santa Victoria	2	Febrero	2023-02-28T00:00:00	2024-11-08T03:00:00	4	Temperatura máxima	11.1
92431	7	Sololá	701	Sololá	4	Finca Santa Victoria	2	Febrero	2023-02-28T00:00:00	2024-11-08T03:00:00	3	Temperatura mínima	10.6
92432	7	Sololá	701	Sololá	4	Finca Santa Victoria	2	Febrero	2023-02-28T00:00:00	2024-11-08T03:00:00	5	Humedad	81
92433	7	Sololá	701	Sololá	4	Finca Santa Victoria	2	Febrero	2023-02-28T00:00:00	2024-11-08T03:00:00	6	Velocidad del viento	1.6
92434	7	Sololá	701	Sololá	4	Finca Santa Victoria	2	Febrero	2023-02-28T00:00:00	2024-11-08T03:00:00	7	Dirección del viento	1.61
92435	7	Sololá	701	Sololá	4	Finca Santa Victoria	2	Febrero	2023-02-28T00:00:00	2024-11-08T03:00:00	1	Precipitación	0
92436	7	Sololá	701	Sololá	4	Finca Santa Victoria	2	Febrero	2023-02-28T00:00:00	2024-11-08T03:00:00	8	Radiación solar	0
92437	7	Sololá	701	Sololá	4	Finca Santa Victoria	2	Febrero	2023-02-28T00:00:00	2024-11-08T04:00:00	2	Temperatura media	10.1
92438	7	Sololá	701	Sololá	4	Finca Santa Victoria	2	Febrero	2023-02-28T00:00:00	2024-11-08T04:00:00	4	Temperatura máxima	10.7
92439	7	Sololá	701	Sololá	4	Finca Santa Victoria	2	Febrero	2023-02-28T00:00:00	2024-11-08T04:00:00	3	Temperatura mínima	10.1
92440	7	Sololá	701	Sololá	4	Finca Santa Victoria	2	Febrero	2023-02-28T00:00:00	2024-11-08T04:00:00	5	Humedad	87
92441	7	Sololá	701	Sololá	4	Finca Santa Victoria	2	Febrero	2023-02-28T00:00:00	2024-11-08T04:00:00	6	Velocidad del viento	1.6
92442	7	Sololá	701	Sololá	4	Finca Santa Victoria	2	Febrero	2023-02-28T00:00:00	2024-11-08T04:00:00	7	Dirección del viento	1.61
92443	7	Sololá	701	Sololá	4	Finca Santa Victoria	2	Febrero	2023-02-28T00:00:00	2024-11-08T04:00:00	1	Precipitación	0
92444	7	Sololá	701	Sololá	4	Finca Santa Victoria	2	Febrero	2023-02-28T00:00:00	2024-11-08T04:00:00	8	Radiación solar	0
92445	7	Sololá	701	Sololá	4	Finca Santa Victoria	2	Febrero	2023-02-28T00:00:00	2024-11-08T05:00:00	2	Temperatura media	10.1
92446	7	Sololá	701	Sololá	4	Finca Santa Victoria	2	Febrero	2023-02-28T00:00:00	2024-11-08T05:00:00	4	Temperatura máxima	10.1
92447	7	Sololá	701	Sololá	4	Finca Santa Victoria	2	Febrero	2023-02-28T00:00:00	2024-11-08T05:00:00	3	Temperatura mínima	9.9
92448	7	Sololá	701	Sololá	4	Finca Santa Victoria	2	Febrero	2023-02-28T00:00:00	2024-11-08T05:00:00	5	Humedad	82
92449	7	Sololá	701	Sololá	4	Finca Santa Victoria	2	Febrero	2023-02-28T00:00:00	2024-11-08T05:00:00	6	Velocidad del viento	1.6
92450	7	Sololá	701	Sololá	4	Finca Santa Victoria	2	Febrero	2023-02-28T00:00:00	2024-11-08T05:00:00	7	Dirección del viento	1.61
92451	7	Sololá	701	Sololá	4	Finca Santa Victoria	2	Febrero	2023-02-28T00:00:00	2024-11-08T05:00:00	1	Precipitación	0
92452	7	Sololá	701	Sololá	4	Finca Santa Victoria	2	Febrero	2023-02-28T00:00:00	2024-11-08T05:00:00	8	Radiación solar	0
92453	7	Sololá	701	Sololá	4	Finca Santa Victoria	2	Febrero	2023-02-28T00:00:00	2024-11-08T06:00:00	2	Temperatura media	11
92454	7	Sololá	701	Sololá	4	Finca Santa Victoria	2	Febrero	2023-02-28T00:00:00	2024-11-08T06:00:00	4	Temperatura máxima	11
92455	7	Sololá	701	Sololá	4	Finca Santa Victoria	2	Febrero	2023-02-28T00:00:00	2024-11-08T06:00:00	3	Temperatura mínima	10
92456	7	Sololá	701	Sololá	4	Finca Santa Victoria	2	Febrero	2023-02-28T00:00:00	2024-11-08T06:00:00	5	Humedad	71
92457	7	Sololá	701	Sololá	4	Finca Santa Victoria	2	Febrero	2023-02-28T00:00:00	2024-11-08T06:00:00	6	Velocidad del viento	3.2
92458	7	Sololá	701	Sololá	4	Finca Santa Victoria	2	Febrero	2023-02-28T00:00:00	2024-11-08T06:00:00	7	Dirección del viento	3.22
92459	7	Sololá	701	Sololá	4	Finca Santa Victoria	2	Febrero	2023-02-28T00:00:00	2024-11-08T06:00:00	1	Precipitación	0
92460	7	Sololá	701	Sololá	4	Finca Santa Victoria	2	Febrero	2023-02-28T00:00:00	2024-11-08T06:00:00	8	Radiación solar	0
92461	7	Sololá	701	Sololá	4	Finca Santa Victoria	2	Febrero	2023-02-28T00:00:00	2024-11-08T07:00:00	2	Temperatura media	11.1
92462	7	Sololá	701	Sololá	4	Finca Santa Victoria	2	Febrero	2023-02-28T00:00:00	2024-11-08T07:00:00	4	Temperatura máxima	11.3
92463	7	Sololá	701	Sololá	4	Finca Santa Victoria	2	Febrero	2023-02-28T00:00:00	2024-11-08T07:00:00	3	Temperatura mínima	11
92464	7	Sololá	701	Sololá	4	Finca Santa Victoria	2	Febrero	2023-02-28T00:00:00	2024-11-08T07:00:00	5	Humedad	70
92465	7	Sololá	701	Sololá	4	Finca Santa Victoria	2	Febrero	2023-02-28T00:00:00	2024-11-08T07:00:00	6	Velocidad del viento	1.6
92466	7	Sololá	701	Sololá	4	Finca Santa Victoria	2	Febrero	2023-02-28T00:00:00	2024-11-08T07:00:00	7	Dirección del viento	1.61
92467	7	Sololá	701	Sololá	4	Finca Santa Victoria	2	Febrero	2023-02-28T00:00:00	2024-11-08T07:00:00	1	Precipitación	0
92468	7	Sololá	701	Sololá	4	Finca Santa Victoria	2	Febrero	2023-02-28T00:00:00	2024-11-08T07:00:00	8	Radiación solar	6
92469	7	Sololá	701	Sololá	4	Finca Santa Victoria	2	Febrero	2023-02-28T00:00:00	2024-11-08T08:00:00	2	Temperatura media	13.4
92470	7	Sololá	701	Sololá	4	Finca Santa Victoria	2	Febrero	2023-02-28T00:00:00	2024-11-08T08:00:00	4	Temperatura máxima	13.4
92471	7	Sololá	701	Sololá	4	Finca Santa Victoria	2	Febrero	2023-02-28T00:00:00	2024-11-08T08:00:00	3	Temperatura mínima	11.1
92472	7	Sololá	701	Sololá	4	Finca Santa Victoria	2	Febrero	2023-02-28T00:00:00	2024-11-08T08:00:00	5	Humedad	82
92473	7	Sololá	701	Sololá	4	Finca Santa Victoria	2	Febrero	2023-02-28T00:00:00	2024-11-08T08:00:00	6	Velocidad del viento	1.6
92474	7	Sololá	701	Sololá	4	Finca Santa Victoria	2	Febrero	2023-02-28T00:00:00	2024-11-08T08:00:00	7	Dirección del viento	1.61
92475	7	Sololá	701	Sololá	4	Finca Santa Victoria	2	Febrero	2023-02-28T00:00:00	2024-11-08T08:00:00	1	Precipitación	0
92476	7	Sololá	701	Sololá	4	Finca Santa Victoria	2	Febrero	2023-02-28T00:00:00	2024-11-08T08:00:00	8	Radiación solar	91
92477	7	Sololá	701	Sololá	4	Finca Santa Victoria	2	Febrero	2023-02-28T00:00:00	2024-11-08T09:00:00	2	Temperatura media	15.8
92478	7	Sololá	701	Sololá	4	Finca Santa Victoria	2	Febrero	2023-02-28T00:00:00	2024-11-08T09:00:00	4	Temperatura máxima	15.8
92479	7	Sololá	701	Sololá	4	Finca Santa Victoria	2	Febrero	2023-02-28T00:00:00	2024-11-08T09:00:00	3	Temperatura mínima	13.4
92480	7	Sololá	701	Sololá	4	Finca Santa Victoria	2	Febrero	2023-02-28T00:00:00	2024-11-08T09:00:00	5	Humedad	67
92481	7	Sololá	701	Sololá	4	Finca Santa Victoria	2	Febrero	2023-02-28T00:00:00	2024-11-08T09:00:00	6	Velocidad del viento	1.6
92482	7	Sololá	701	Sololá	4	Finca Santa Victoria	2	Febrero	2023-02-28T00:00:00	2024-11-08T09:00:00	7	Dirección del viento	1.61
92483	7	Sololá	701	Sololá	4	Finca Santa Victoria	2	Febrero	2023-02-28T00:00:00	2024-11-08T09:00:00	1	Precipitación	0
92484	7	Sololá	701	Sololá	4	Finca Santa Victoria	2	Febrero	2023-02-28T00:00:00	2024-11-08T09:00:00	8	Radiación solar	266
92485	7	Sololá	701	Sololá	4	Finca Santa Victoria	2	Febrero	2023-02-28T00:00:00	2024-11-08T10:00:00	2	Temperatura media	17.2
92486	7	Sololá	701	Sololá	4	Finca Santa Victoria	2	Febrero	2023-02-28T00:00:00	2024-11-08T10:00:00	4	Temperatura máxima	17.2
92487	7	Sololá	701	Sololá	4	Finca Santa Victoria	2	Febrero	2023-02-28T00:00:00	2024-11-08T10:00:00	3	Temperatura mínima	15.8
92488	7	Sololá	701	Sololá	4	Finca Santa Victoria	2	Febrero	2023-02-28T00:00:00	2024-11-08T10:00:00	5	Humedad	70
92489	7	Sololá	701	Sololá	4	Finca Santa Victoria	2	Febrero	2023-02-28T00:00:00	2024-11-08T10:00:00	6	Velocidad del viento	3.2
92490	7	Sololá	701	Sololá	4	Finca Santa Victoria	2	Febrero	2023-02-28T00:00:00	2024-11-08T10:00:00	7	Dirección del viento	3.22
92491	7	Sololá	701	Sololá	4	Finca Santa Victoria	2	Febrero	2023-02-28T00:00:00	2024-11-08T10:00:00	1	Precipitación	0
92492	7	Sololá	701	Sololá	4	Finca Santa Victoria	2	Febrero	2023-02-28T00:00:00	2024-11-08T10:00:00	8	Radiación solar	714
92493	7	Sololá	701	Sololá	4	Finca Santa Victoria	2	Febrero	2023-02-28T00:00:00	2024-11-08T11:00:00	2	Temperatura media	17.8
92494	7	Sololá	701	Sololá	4	Finca Santa Victoria	2	Febrero	2023-02-28T00:00:00	2024-11-08T11:00:00	4	Temperatura máxima	17.9
92495	7	Sololá	701	Sololá	4	Finca Santa Victoria	2	Febrero	2023-02-28T00:00:00	2024-11-08T11:00:00	3	Temperatura mínima	17.2
92496	7	Sololá	701	Sololá	4	Finca Santa Victoria	2	Febrero	2023-02-28T00:00:00	2024-11-08T11:00:00	5	Humedad	61
92497	7	Sololá	701	Sololá	4	Finca Santa Victoria	2	Febrero	2023-02-28T00:00:00	2024-11-08T11:00:00	6	Velocidad del viento	4.8
92498	7	Sololá	701	Sololá	4	Finca Santa Victoria	2	Febrero	2023-02-28T00:00:00	2024-11-08T11:00:00	7	Dirección del viento	4.83
92499	7	Sololá	701	Sololá	4	Finca Santa Victoria	2	Febrero	2023-02-28T00:00:00	2024-11-08T11:00:00	1	Precipitación	0
92500	7	Sololá	701	Sololá	4	Finca Santa Victoria	2	Febrero	2023-02-28T00:00:00	2024-11-08T11:00:00	8	Radiación solar	872
92501	7	Sololá	701	Sololá	4	Finca Santa Victoria	2	Febrero	2023-02-28T00:00:00	2024-11-08T12:00:00	2	Temperatura media	18.4
92502	7	Sololá	701	Sololá	4	Finca Santa Victoria	2	Febrero	2023-02-28T00:00:00	2024-11-08T12:00:00	4	Temperatura máxima	18.4
92503	7	Sololá	701	Sololá	4	Finca Santa Victoria	2	Febrero	2023-02-28T00:00:00	2024-11-08T12:00:00	3	Temperatura mínima	17.8
92504	7	Sololá	701	Sololá	4	Finca Santa Victoria	2	Febrero	2023-02-28T00:00:00	2024-11-08T12:00:00	5	Humedad	67
92505	7	Sololá	701	Sololá	4	Finca Santa Victoria	2	Febrero	2023-02-28T00:00:00	2024-11-08T12:00:00	6	Velocidad del viento	4.8
92506	7	Sololá	701	Sololá	4	Finca Santa Victoria	2	Febrero	2023-02-28T00:00:00	2024-11-08T12:00:00	7	Dirección del viento	4.83
92507	7	Sololá	701	Sololá	4	Finca Santa Victoria	2	Febrero	2023-02-28T00:00:00	2024-11-08T12:00:00	1	Precipitación	0
92508	7	Sololá	701	Sololá	4	Finca Santa Victoria	2	Febrero	2023-02-28T00:00:00	2024-11-08T12:00:00	8	Radiación solar	936
92509	7	Sololá	701	Sololá	4	Finca Santa Victoria	2	Febrero	2023-02-28T00:00:00	2024-11-08T13:00:00	2	Temperatura media	18.9
92510	7	Sololá	701	Sololá	4	Finca Santa Victoria	2	Febrero	2023-02-28T00:00:00	2024-11-08T13:00:00	4	Temperatura máxima	19.3
92511	7	Sololá	701	Sololá	4	Finca Santa Victoria	2	Febrero	2023-02-28T00:00:00	2024-11-08T13:00:00	3	Temperatura mínima	18.3
92512	7	Sololá	701	Sololá	4	Finca Santa Victoria	2	Febrero	2023-02-28T00:00:00	2024-11-08T13:00:00	5	Humedad	69
92513	7	Sololá	701	Sololá	4	Finca Santa Victoria	2	Febrero	2023-02-28T00:00:00	2024-11-08T13:00:00	6	Velocidad del viento	4.8
92514	7	Sololá	701	Sololá	4	Finca Santa Victoria	2	Febrero	2023-02-28T00:00:00	2024-11-08T13:00:00	7	Dirección del viento	4.83
92515	7	Sololá	701	Sololá	4	Finca Santa Victoria	2	Febrero	2023-02-28T00:00:00	2024-11-08T13:00:00	1	Precipitación	0
92516	7	Sololá	701	Sololá	4	Finca Santa Victoria	2	Febrero	2023-02-28T00:00:00	2024-11-08T13:00:00	8	Radiación solar	905
92517	7	Sololá	701	Sololá	4	Finca Santa Victoria	2	Febrero	2023-02-28T00:00:00	2024-11-08T14:00:00	2	Temperatura media	18.9
92518	7	Sololá	701	Sololá	4	Finca Santa Victoria	2	Febrero	2023-02-28T00:00:00	2024-11-08T14:00:00	4	Temperatura máxima	19.3
92519	7	Sololá	701	Sololá	4	Finca Santa Victoria	2	Febrero	2023-02-28T00:00:00	2024-11-08T14:00:00	3	Temperatura mínima	18.4
92520	7	Sololá	701	Sololá	4	Finca Santa Victoria	2	Febrero	2023-02-28T00:00:00	2024-11-08T14:00:00	5	Humedad	72
92521	7	Sololá	701	Sololá	4	Finca Santa Victoria	2	Febrero	2023-02-28T00:00:00	2024-11-08T14:00:00	6	Velocidad del viento	4.8
92522	7	Sololá	701	Sololá	4	Finca Santa Victoria	2	Febrero	2023-02-28T00:00:00	2024-11-08T14:00:00	7	Dirección del viento	4.83
92523	7	Sololá	701	Sololá	4	Finca Santa Victoria	2	Febrero	2023-02-28T00:00:00	2024-11-08T14:00:00	1	Precipitación	0
92524	7	Sololá	701	Sololá	4	Finca Santa Victoria	2	Febrero	2023-02-28T00:00:00	2024-11-08T14:00:00	8	Radiación solar	706
92525	7	Sololá	701	Sololá	4	Finca Santa Victoria	2	Febrero	2023-02-28T00:00:00	2024-11-08T15:00:00	2	Temperatura media	18.7
92526	7	Sololá	701	Sololá	4	Finca Santa Victoria	2	Febrero	2023-02-28T00:00:00	2024-11-08T15:00:00	4	Temperatura máxima	19.5
92527	7	Sololá	701	Sololá	4	Finca Santa Victoria	2	Febrero	2023-02-28T00:00:00	2024-11-08T15:00:00	3	Temperatura mínima	18.6
92528	7	Sololá	701	Sololá	4	Finca Santa Victoria	2	Febrero	2023-02-28T00:00:00	2024-11-08T15:00:00	5	Humedad	78
92529	7	Sololá	701	Sololá	4	Finca Santa Victoria	2	Febrero	2023-02-28T00:00:00	2024-11-08T15:00:00	6	Velocidad del viento	4.8
92530	7	Sololá	701	Sololá	4	Finca Santa Victoria	2	Febrero	2023-02-28T00:00:00	2024-11-08T15:00:00	7	Dirección del viento	4.83
92531	7	Sololá	701	Sololá	4	Finca Santa Victoria	2	Febrero	2023-02-28T00:00:00	2024-11-08T15:00:00	1	Precipitación	0
92532	7	Sololá	701	Sololá	4	Finca Santa Victoria	2	Febrero	2023-02-28T00:00:00	2024-11-08T15:00:00	8	Radiación solar	535
92533	7	Sololá	701	Sololá	4	Finca Santa Victoria	2	Febrero	2023-02-28T00:00:00	2024-11-08T16:00:00	2	Temperatura media	16.6
92534	7	Sololá	701	Sololá	4	Finca Santa Victoria	2	Febrero	2023-02-28T00:00:00	2024-11-08T16:00:00	4	Temperatura máxima	18.8
92535	7	Sololá	701	Sololá	4	Finca Santa Victoria	2	Febrero	2023-02-28T00:00:00	2024-11-08T16:00:00	3	Temperatura mínima	16.6
92536	7	Sololá	701	Sololá	4	Finca Santa Victoria	2	Febrero	2023-02-28T00:00:00	2024-11-08T16:00:00	5	Humedad	87
92537	7	Sololá	701	Sololá	4	Finca Santa Victoria	2	Febrero	2023-02-28T00:00:00	2024-11-08T16:00:00	6	Velocidad del viento	4.8
92538	7	Sololá	701	Sololá	4	Finca Santa Victoria	2	Febrero	2023-02-28T00:00:00	2024-11-08T16:00:00	7	Dirección del viento	4.83
92539	7	Sololá	701	Sololá	4	Finca Santa Victoria	2	Febrero	2023-02-28T00:00:00	2024-11-08T16:00:00	1	Precipitación	0
92540	7	Sololá	701	Sololá	4	Finca Santa Victoria	2	Febrero	2023-02-28T00:00:00	2024-11-08T16:00:00	8	Radiación solar	169
92541	7	Sololá	701	Sololá	4	Finca Santa Victoria	2	Febrero	2023-02-28T00:00:00	2024-11-08T17:00:00	2	Temperatura media	15.8
92542	7	Sololá	701	Sololá	4	Finca Santa Victoria	2	Febrero	2023-02-28T00:00:00	2024-11-08T17:00:00	4	Temperatura máxima	16.7
92543	7	Sololá	701	Sololá	4	Finca Santa Victoria	2	Febrero	2023-02-28T00:00:00	2024-11-08T17:00:00	3	Temperatura mínima	15.8
92544	7	Sololá	701	Sololá	4	Finca Santa Victoria	2	Febrero	2023-02-28T00:00:00	2024-11-08T17:00:00	5	Humedad	92
92545	7	Sololá	701	Sololá	4	Finca Santa Victoria	2	Febrero	2023-02-28T00:00:00	2024-11-08T17:00:00	6	Velocidad del viento	3.2
92546	7	Sololá	701	Sololá	4	Finca Santa Victoria	2	Febrero	2023-02-28T00:00:00	2024-11-08T17:00:00	7	Dirección del viento	3.22
92547	7	Sololá	701	Sololá	4	Finca Santa Victoria	2	Febrero	2023-02-28T00:00:00	2024-11-08T17:00:00	1	Precipitación	0
92548	7	Sololá	701	Sololá	4	Finca Santa Victoria	2	Febrero	2023-02-28T00:00:00	2024-11-08T17:00:00	8	Radiación solar	65
92549	7	Sololá	701	Sololá	4	Finca Santa Victoria	2	Febrero	2023-02-28T00:00:00	2024-11-08T18:00:00	2	Temperatura media	15.2
92550	7	Sololá	701	Sololá	4	Finca Santa Victoria	2	Febrero	2023-02-28T00:00:00	2024-11-08T18:00:00	4	Temperatura máxima	15.8
92551	7	Sololá	701	Sololá	4	Finca Santa Victoria	2	Febrero	2023-02-28T00:00:00	2024-11-08T18:00:00	3	Temperatura mínima	15.2
92552	7	Sololá	701	Sololá	4	Finca Santa Victoria	2	Febrero	2023-02-28T00:00:00	2024-11-08T18:00:00	5	Humedad	94
92553	7	Sololá	701	Sololá	4	Finca Santa Victoria	2	Febrero	2023-02-28T00:00:00	2024-11-08T18:00:00	6	Velocidad del viento	1.6
92554	7	Sololá	701	Sololá	4	Finca Santa Victoria	2	Febrero	2023-02-28T00:00:00	2024-11-08T18:00:00	7	Dirección del viento	1.61
92555	7	Sololá	701	Sololá	4	Finca Santa Victoria	2	Febrero	2023-02-28T00:00:00	2024-11-08T18:00:00	1	Precipitación	0
92556	7	Sololá	701	Sololá	4	Finca Santa Victoria	2	Febrero	2023-02-28T00:00:00	2024-11-08T18:00:00	8	Radiación solar	25
92557	7	Sololá	701	Sololá	4	Finca Santa Victoria	2	Febrero	2023-02-28T00:00:00	2024-11-08T19:00:00	2	Temperatura media	14.6
92558	7	Sololá	701	Sololá	4	Finca Santa Victoria	2	Febrero	2023-02-28T00:00:00	2024-11-08T19:00:00	4	Temperatura máxima	15.2
92559	7	Sololá	701	Sololá	4	Finca Santa Victoria	2	Febrero	2023-02-28T00:00:00	2024-11-08T19:00:00	3	Temperatura mínima	14.6
92560	7	Sololá	701	Sololá	4	Finca Santa Victoria	2	Febrero	2023-02-28T00:00:00	2024-11-08T19:00:00	5	Humedad	95
92561	7	Sololá	701	Sololá	4	Finca Santa Victoria	2	Febrero	2023-02-28T00:00:00	2024-11-08T19:00:00	6	Velocidad del viento	0
92562	7	Sololá	701	Sololá	4	Finca Santa Victoria	2	Febrero	2023-02-28T00:00:00	2024-11-08T19:00:00	7	Dirección del viento	0
92563	7	Sololá	701	Sololá	4	Finca Santa Victoria	2	Febrero	2023-02-28T00:00:00	2024-11-08T19:00:00	1	Precipitación	0
92564	7	Sololá	701	Sololá	4	Finca Santa Victoria	2	Febrero	2023-02-28T00:00:00	2024-11-08T19:00:00	8	Radiación solar	0
92565	7	Sololá	701	Sololá	4	Finca Santa Victoria	2	Febrero	2023-02-28T00:00:00	2024-11-08T20:00:00	2	Temperatura media	13.6
92566	7	Sololá	701	Sololá	4	Finca Santa Victoria	2	Febrero	2023-02-28T00:00:00	2024-11-08T20:00:00	4	Temperatura máxima	14.6
92567	7	Sololá	701	Sololá	4	Finca Santa Victoria	2	Febrero	2023-02-28T00:00:00	2024-11-08T20:00:00	3	Temperatura mínima	13.5
92568	7	Sololá	701	Sololá	4	Finca Santa Victoria	2	Febrero	2023-02-28T00:00:00	2024-11-08T20:00:00	5	Humedad	96
92569	7	Sololá	701	Sololá	4	Finca Santa Victoria	2	Febrero	2023-02-28T00:00:00	2024-11-08T20:00:00	6	Velocidad del viento	0
92570	7	Sololá	701	Sololá	4	Finca Santa Victoria	2	Febrero	2023-02-28T00:00:00	2024-11-08T20:00:00	7	Dirección del viento	0
92571	7	Sololá	701	Sololá	4	Finca Santa Victoria	2	Febrero	2023-02-28T00:00:00	2024-11-08T20:00:00	1	Precipitación	0
92572	7	Sololá	701	Sololá	4	Finca Santa Victoria	2	Febrero	2023-02-28T00:00:00	2024-11-08T20:00:00	8	Radiación solar	0
92573	7	Sololá	701	Sololá	4	Finca Santa Victoria	2	Febrero	2023-02-28T00:00:00	2024-11-08T21:00:00	2	Temperatura media	13.4
92574	7	Sololá	701	Sololá	4	Finca Santa Victoria	2	Febrero	2023-02-28T00:00:00	2024-11-08T21:00:00	4	Temperatura máxima	13.6
92575	7	Sololá	701	Sololá	4	Finca Santa Victoria	2	Febrero	2023-02-28T00:00:00	2024-11-08T21:00:00	3	Temperatura mínima	13.4
92576	7	Sololá	701	Sololá	4	Finca Santa Victoria	2	Febrero	2023-02-28T00:00:00	2024-11-08T21:00:00	5	Humedad	97
92577	7	Sololá	701	Sololá	4	Finca Santa Victoria	2	Febrero	2023-02-28T00:00:00	2024-11-08T21:00:00	6	Velocidad del viento	0
92578	7	Sololá	701	Sololá	4	Finca Santa Victoria	2	Febrero	2023-02-28T00:00:00	2024-11-08T21:00:00	7	Dirección del viento	0
92579	7	Sololá	701	Sololá	4	Finca Santa Victoria	2	Febrero	2023-02-28T00:00:00	2024-11-08T21:00:00	1	Precipitación	0
92580	7	Sololá	701	Sololá	4	Finca Santa Victoria	2	Febrero	2023-02-28T00:00:00	2024-11-08T21:00:00	8	Radiación solar	0
92581	7	Sololá	701	Sololá	4	Finca Santa Victoria	2	Febrero	2023-02-28T00:00:00	2024-11-08T22:00:00	2	Temperatura media	12.9
92582	7	Sololá	701	Sololá	4	Finca Santa Victoria	2	Febrero	2023-02-28T00:00:00	2024-11-08T22:00:00	4	Temperatura máxima	13.6
92583	7	Sololá	701	Sololá	4	Finca Santa Victoria	2	Febrero	2023-02-28T00:00:00	2024-11-08T22:00:00	3	Temperatura mínima	12.9
92584	7	Sololá	701	Sololá	4	Finca Santa Victoria	2	Febrero	2023-02-28T00:00:00	2024-11-08T22:00:00	5	Humedad	96
92585	7	Sololá	701	Sololá	4	Finca Santa Victoria	2	Febrero	2023-02-28T00:00:00	2024-11-08T22:00:00	6	Velocidad del viento	0
92586	7	Sololá	701	Sololá	4	Finca Santa Victoria	2	Febrero	2023-02-28T00:00:00	2024-11-08T22:00:00	7	Dirección del viento	0
92587	7	Sololá	701	Sololá	4	Finca Santa Victoria	2	Febrero	2023-02-28T00:00:00	2024-11-08T22:00:00	1	Precipitación	0
92588	7	Sololá	701	Sololá	4	Finca Santa Victoria	2	Febrero	2023-02-28T00:00:00	2024-11-08T22:00:00	8	Radiación solar	0
92589	7	Sololá	701	Sololá	4	Finca Santa Victoria	2	Febrero	2023-02-28T00:00:00	2024-11-08T23:00:00	2	Temperatura media	11.5
92590	7	Sololá	701	Sololá	4	Finca Santa Victoria	2	Febrero	2023-02-28T00:00:00	2024-11-08T23:00:00	4	Temperatura máxima	12.9
92591	7	Sololá	701	Sololá	4	Finca Santa Victoria	2	Febrero	2023-02-28T00:00:00	2024-11-08T23:00:00	3	Temperatura mínima	11.4
92592	7	Sololá	701	Sololá	4	Finca Santa Victoria	2	Febrero	2023-02-28T00:00:00	2024-11-08T23:00:00	5	Humedad	88
92593	7	Sololá	701	Sololá	4	Finca Santa Victoria	2	Febrero	2023-02-28T00:00:00	2024-11-08T23:00:00	6	Velocidad del viento	3.2
92594	7	Sololá	701	Sololá	4	Finca Santa Victoria	2	Febrero	2023-02-28T00:00:00	2024-11-08T23:00:00	7	Dirección del viento	3.22
92595	7	Sololá	701	Sololá	4	Finca Santa Victoria	2	Febrero	2023-02-28T00:00:00	2024-11-08T23:00:00	1	Precipitación	0
92596	7	Sololá	701	Sololá	4	Finca Santa Victoria	2	Febrero	2023-02-28T00:00:00	2024-11-08T23:00:00	8	Radiación solar	0
92597	7	Sololá	701	Sololá	4	Finca Santa Victoria	3	Marzo	2023-01-03T00:00:00	2024-11-08T00:00:00	2	Temperatura media	12.6
92598	7	Sololá	701	Sololá	4	Finca Santa Victoria	3	Marzo	2023-01-03T00:00:00	2024-11-08T00:00:00	4	Temperatura máxima	12.8
92599	7	Sololá	701	Sololá	4	Finca Santa Victoria	3	Marzo	2023-01-03T00:00:00	2024-11-08T00:00:00	3	Temperatura mínima	11.5
92600	7	Sololá	701	Sololá	4	Finca Santa Victoria	3	Marzo	2023-01-03T00:00:00	2024-11-08T00:00:00	5	Humedad	69
92601	7	Sololá	701	Sololá	4	Finca Santa Victoria	3	Marzo	2023-01-03T00:00:00	2024-11-08T00:00:00	6	Velocidad del viento	1.6
92602	7	Sololá	701	Sololá	4	Finca Santa Victoria	3	Marzo	2023-01-03T00:00:00	2024-11-08T00:00:00	7	Dirección del viento	1.61
92603	7	Sololá	701	Sololá	4	Finca Santa Victoria	3	Marzo	2023-01-03T00:00:00	2024-11-08T00:00:00	1	Precipitación	0
92604	7	Sololá	701	Sololá	4	Finca Santa Victoria	3	Marzo	2023-01-03T00:00:00	2024-11-08T00:00:00	8	Radiación solar	0
92605	7	Sololá	701	Sololá	4	Finca Santa Victoria	3	Marzo	2023-01-03T00:00:00	2024-11-08T01:00:00	2	Temperatura media	12
92606	7	Sololá	701	Sololá	4	Finca Santa Victoria	3	Marzo	2023-01-03T00:00:00	2024-11-08T01:00:00	4	Temperatura máxima	12.7
92607	7	Sololá	701	Sololá	4	Finca Santa Victoria	3	Marzo	2023-01-03T00:00:00	2024-11-08T01:00:00	3	Temperatura mínima	12
92608	7	Sololá	701	Sololá	4	Finca Santa Victoria	3	Marzo	2023-01-03T00:00:00	2024-11-08T01:00:00	5	Humedad	66
92609	7	Sololá	701	Sololá	4	Finca Santa Victoria	3	Marzo	2023-01-03T00:00:00	2024-11-08T01:00:00	6	Velocidad del viento	1.6
92610	7	Sololá	701	Sololá	4	Finca Santa Victoria	3	Marzo	2023-01-03T00:00:00	2024-11-08T01:00:00	7	Dirección del viento	1.61
92611	7	Sololá	701	Sololá	4	Finca Santa Victoria	3	Marzo	2023-01-03T00:00:00	2024-11-08T01:00:00	1	Precipitación	0
92612	7	Sololá	701	Sololá	4	Finca Santa Victoria	3	Marzo	2023-01-03T00:00:00	2024-11-08T01:00:00	8	Radiación solar	0
92613	7	Sololá	701	Sololá	4	Finca Santa Victoria	3	Marzo	2023-01-03T00:00:00	2024-11-08T02:00:00	2	Temperatura media	11.8
92614	7	Sololá	701	Sololá	4	Finca Santa Victoria	3	Marzo	2023-01-03T00:00:00	2024-11-08T02:00:00	4	Temperatura máxima	12.1
92615	7	Sololá	701	Sololá	4	Finca Santa Victoria	3	Marzo	2023-01-03T00:00:00	2024-11-08T02:00:00	3	Temperatura mínima	11.8
92616	7	Sololá	701	Sololá	4	Finca Santa Victoria	3	Marzo	2023-01-03T00:00:00	2024-11-08T02:00:00	5	Humedad	80
92617	7	Sololá	701	Sololá	4	Finca Santa Victoria	3	Marzo	2023-01-03T00:00:00	2024-11-08T02:00:00	6	Velocidad del viento	1.6
92618	7	Sololá	701	Sololá	4	Finca Santa Victoria	3	Marzo	2023-01-03T00:00:00	2024-11-08T02:00:00	7	Dirección del viento	1.61
92619	7	Sololá	701	Sololá	4	Finca Santa Victoria	3	Marzo	2023-01-03T00:00:00	2024-11-08T02:00:00	1	Precipitación	0
92620	7	Sololá	701	Sololá	4	Finca Santa Victoria	3	Marzo	2023-01-03T00:00:00	2024-11-08T02:00:00	8	Radiación solar	0
92621	7	Sololá	701	Sololá	4	Finca Santa Victoria	3	Marzo	2023-01-03T00:00:00	2024-11-08T03:00:00	2	Temperatura media	11.8
92622	7	Sololá	701	Sololá	4	Finca Santa Victoria	3	Marzo	2023-01-03T00:00:00	2024-11-08T03:00:00	4	Temperatura máxima	11.9
92623	7	Sololá	701	Sololá	4	Finca Santa Victoria	3	Marzo	2023-01-03T00:00:00	2024-11-08T03:00:00	3	Temperatura mínima	11.6
92624	7	Sololá	701	Sololá	4	Finca Santa Victoria	3	Marzo	2023-01-03T00:00:00	2024-11-08T03:00:00	5	Humedad	64
92625	7	Sololá	701	Sololá	4	Finca Santa Victoria	3	Marzo	2023-01-03T00:00:00	2024-11-08T03:00:00	6	Velocidad del viento	1.6
92626	7	Sololá	701	Sololá	4	Finca Santa Victoria	3	Marzo	2023-01-03T00:00:00	2024-11-08T03:00:00	7	Dirección del viento	1.61
92627	7	Sololá	701	Sololá	4	Finca Santa Victoria	3	Marzo	2023-01-03T00:00:00	2024-11-08T03:00:00	1	Precipitación	0
92628	7	Sololá	701	Sololá	4	Finca Santa Victoria	3	Marzo	2023-01-03T00:00:00	2024-11-08T03:00:00	8	Radiación solar	0
92629	7	Sololá	701	Sololá	4	Finca Santa Victoria	3	Marzo	2023-01-03T00:00:00	2024-11-08T04:00:00	2	Temperatura media	12.3
92630	7	Sololá	701	Sololá	4	Finca Santa Victoria	3	Marzo	2023-01-03T00:00:00	2024-11-08T04:00:00	4	Temperatura máxima	12.4
92631	7	Sololá	701	Sololá	4	Finca Santa Victoria	3	Marzo	2023-01-03T00:00:00	2024-11-08T04:00:00	3	Temperatura mínima	11.7
92632	7	Sololá	701	Sololá	4	Finca Santa Victoria	3	Marzo	2023-01-03T00:00:00	2024-11-08T04:00:00	5	Humedad	68
92633	7	Sololá	701	Sololá	4	Finca Santa Victoria	3	Marzo	2023-01-03T00:00:00	2024-11-08T04:00:00	6	Velocidad del viento	1.6
92634	7	Sololá	701	Sololá	4	Finca Santa Victoria	3	Marzo	2023-01-03T00:00:00	2024-11-08T04:00:00	7	Dirección del viento	1.61
92635	7	Sololá	701	Sololá	4	Finca Santa Victoria	3	Marzo	2023-01-03T00:00:00	2024-11-08T04:00:00	1	Precipitación	0
92636	7	Sololá	701	Sololá	4	Finca Santa Victoria	3	Marzo	2023-01-03T00:00:00	2024-11-08T04:00:00	8	Radiación solar	0
92637	7	Sololá	701	Sololá	4	Finca Santa Victoria	3	Marzo	2023-01-03T00:00:00	2024-11-08T05:00:00	2	Temperatura media	11.9
92638	7	Sololá	701	Sololá	4	Finca Santa Victoria	3	Marzo	2023-01-03T00:00:00	2024-11-08T05:00:00	4	Temperatura máxima	12.4
92639	7	Sololá	701	Sololá	4	Finca Santa Victoria	3	Marzo	2023-01-03T00:00:00	2024-11-08T05:00:00	3	Temperatura mínima	11.9
92640	7	Sololá	701	Sololá	4	Finca Santa Victoria	3	Marzo	2023-01-03T00:00:00	2024-11-08T05:00:00	5	Humedad	76
92641	7	Sololá	701	Sololá	4	Finca Santa Victoria	3	Marzo	2023-01-03T00:00:00	2024-11-08T05:00:00	6	Velocidad del viento	1.6
92642	7	Sololá	701	Sololá	4	Finca Santa Victoria	3	Marzo	2023-01-03T00:00:00	2024-11-08T05:00:00	7	Dirección del viento	1.61
92643	7	Sololá	701	Sololá	4	Finca Santa Victoria	3	Marzo	2023-01-03T00:00:00	2024-11-08T05:00:00	1	Precipitación	0
92644	7	Sololá	701	Sololá	4	Finca Santa Victoria	3	Marzo	2023-01-03T00:00:00	2024-11-08T05:00:00	8	Radiación solar	0
92645	7	Sololá	701	Sololá	4	Finca Santa Victoria	3	Marzo	2023-01-03T00:00:00	2024-11-08T06:00:00	2	Temperatura media	11.6
92646	7	Sololá	701	Sololá	4	Finca Santa Victoria	3	Marzo	2023-01-03T00:00:00	2024-11-08T06:00:00	4	Temperatura máxima	11.9
92647	7	Sololá	701	Sololá	4	Finca Santa Victoria	3	Marzo	2023-01-03T00:00:00	2024-11-08T06:00:00	3	Temperatura mínima	11.6
92648	7	Sololá	701	Sololá	4	Finca Santa Victoria	3	Marzo	2023-01-03T00:00:00	2024-11-08T06:00:00	5	Humedad	75
92649	7	Sololá	701	Sololá	4	Finca Santa Victoria	3	Marzo	2023-01-03T00:00:00	2024-11-08T06:00:00	6	Velocidad del viento	1.6
92650	7	Sololá	701	Sololá	4	Finca Santa Victoria	3	Marzo	2023-01-03T00:00:00	2024-11-08T06:00:00	7	Dirección del viento	1.61
92651	7	Sololá	701	Sololá	4	Finca Santa Victoria	3	Marzo	2023-01-03T00:00:00	2024-11-08T06:00:00	1	Precipitación	0
92652	7	Sololá	701	Sololá	4	Finca Santa Victoria	3	Marzo	2023-01-03T00:00:00	2024-11-08T06:00:00	8	Radiación solar	0
92653	7	Sololá	701	Sololá	4	Finca Santa Victoria	3	Marzo	2023-01-03T00:00:00	2024-11-08T07:00:00	2	Temperatura media	11.8
92654	7	Sololá	701	Sololá	4	Finca Santa Victoria	3	Marzo	2023-01-03T00:00:00	2024-11-08T07:00:00	4	Temperatura máxima	11.8
92655	7	Sololá	701	Sololá	4	Finca Santa Victoria	3	Marzo	2023-01-03T00:00:00	2024-11-08T07:00:00	3	Temperatura mínima	11.4
92656	7	Sololá	701	Sololá	4	Finca Santa Victoria	3	Marzo	2023-01-03T00:00:00	2024-11-08T07:00:00	5	Humedad	78
92657	7	Sololá	701	Sololá	4	Finca Santa Victoria	3	Marzo	2023-01-03T00:00:00	2024-11-08T07:00:00	6	Velocidad del viento	1.6
92658	7	Sololá	701	Sololá	4	Finca Santa Victoria	3	Marzo	2023-01-03T00:00:00	2024-11-08T07:00:00	7	Dirección del viento	1.61
92659	7	Sololá	701	Sololá	4	Finca Santa Victoria	3	Marzo	2023-01-03T00:00:00	2024-11-08T07:00:00	1	Precipitación	0
92660	7	Sololá	701	Sololá	4	Finca Santa Victoria	3	Marzo	2023-01-03T00:00:00	2024-11-08T07:00:00	8	Radiación solar	6
92661	7	Sololá	701	Sololá	4	Finca Santa Victoria	3	Marzo	2023-01-03T00:00:00	2024-11-08T08:00:00	2	Temperatura media	14.4
92662	7	Sololá	701	Sololá	4	Finca Santa Victoria	3	Marzo	2023-01-03T00:00:00	2024-11-08T08:00:00	4	Temperatura máxima	14.5
92663	7	Sololá	701	Sololá	4	Finca Santa Victoria	3	Marzo	2023-01-03T00:00:00	2024-11-08T08:00:00	3	Temperatura mínima	11.8
92664	7	Sololá	701	Sololá	4	Finca Santa Victoria	3	Marzo	2023-01-03T00:00:00	2024-11-08T08:00:00	5	Humedad	64
92665	7	Sololá	701	Sololá	4	Finca Santa Victoria	3	Marzo	2023-01-03T00:00:00	2024-11-08T08:00:00	6	Velocidad del viento	1.6
92666	7	Sololá	701	Sololá	4	Finca Santa Victoria	3	Marzo	2023-01-03T00:00:00	2024-11-08T08:00:00	7	Dirección del viento	1.61
92667	7	Sololá	701	Sololá	4	Finca Santa Victoria	3	Marzo	2023-01-03T00:00:00	2024-11-08T08:00:00	1	Precipitación	0
92668	7	Sololá	701	Sololá	4	Finca Santa Victoria	3	Marzo	2023-01-03T00:00:00	2024-11-08T08:00:00	8	Radiación solar	104
92669	7	Sololá	701	Sololá	4	Finca Santa Victoria	3	Marzo	2023-01-03T00:00:00	2024-11-08T09:00:00	2	Temperatura media	17.8
92670	7	Sololá	701	Sololá	4	Finca Santa Victoria	3	Marzo	2023-01-03T00:00:00	2024-11-08T09:00:00	4	Temperatura máxima	17.8
92671	7	Sololá	701	Sololá	4	Finca Santa Victoria	3	Marzo	2023-01-03T00:00:00	2024-11-08T09:00:00	3	Temperatura mínima	14.4
92672	7	Sololá	701	Sololá	4	Finca Santa Victoria	3	Marzo	2023-01-03T00:00:00	2024-11-08T09:00:00	5	Humedad	53
92673	7	Sololá	701	Sololá	4	Finca Santa Victoria	3	Marzo	2023-01-03T00:00:00	2024-11-08T09:00:00	6	Velocidad del viento	1.6
92674	7	Sololá	701	Sololá	4	Finca Santa Victoria	3	Marzo	2023-01-03T00:00:00	2024-11-08T09:00:00	7	Dirección del viento	1.61
92675	7	Sololá	701	Sololá	4	Finca Santa Victoria	3	Marzo	2023-01-03T00:00:00	2024-11-08T09:00:00	1	Precipitación	0
92676	7	Sololá	701	Sololá	4	Finca Santa Victoria	3	Marzo	2023-01-03T00:00:00	2024-11-08T09:00:00	8	Radiación solar	320
92677	7	Sololá	701	Sololá	4	Finca Santa Victoria	3	Marzo	2023-01-03T00:00:00	2024-11-08T10:00:00	2	Temperatura media	17.9
92678	7	Sololá	701	Sololá	4	Finca Santa Victoria	3	Marzo	2023-01-03T00:00:00	2024-11-08T10:00:00	4	Temperatura máxima	17.9
92679	7	Sololá	701	Sololá	4	Finca Santa Victoria	3	Marzo	2023-01-03T00:00:00	2024-11-08T10:00:00	3	Temperatura mínima	17.2
92680	7	Sololá	701	Sololá	4	Finca Santa Victoria	3	Marzo	2023-01-03T00:00:00	2024-11-08T10:00:00	5	Humedad	62
92681	7	Sololá	701	Sololá	4	Finca Santa Victoria	3	Marzo	2023-01-03T00:00:00	2024-11-08T10:00:00	6	Velocidad del viento	3.2
92682	7	Sololá	701	Sololá	4	Finca Santa Victoria	3	Marzo	2023-01-03T00:00:00	2024-11-08T10:00:00	7	Dirección del viento	3.22
92683	7	Sololá	701	Sololá	4	Finca Santa Victoria	3	Marzo	2023-01-03T00:00:00	2024-11-08T10:00:00	1	Precipitación	0
92684	7	Sololá	701	Sololá	4	Finca Santa Victoria	3	Marzo	2023-01-03T00:00:00	2024-11-08T10:00:00	8	Radiación solar	717
92685	7	Sololá	701	Sololá	4	Finca Santa Victoria	3	Marzo	2023-01-03T00:00:00	2024-11-08T11:00:00	2	Temperatura media	19.3
92686	7	Sololá	701	Sololá	4	Finca Santa Victoria	3	Marzo	2023-01-03T00:00:00	2024-11-08T11:00:00	4	Temperatura máxima	19.6
92687	7	Sololá	701	Sololá	4	Finca Santa Victoria	3	Marzo	2023-01-03T00:00:00	2024-11-08T11:00:00	3	Temperatura mínima	17.9
92688	7	Sololá	701	Sololá	4	Finca Santa Victoria	3	Marzo	2023-01-03T00:00:00	2024-11-08T11:00:00	5	Humedad	57
92689	7	Sololá	701	Sololá	4	Finca Santa Victoria	3	Marzo	2023-01-03T00:00:00	2024-11-08T11:00:00	6	Velocidad del viento	4.8
92690	7	Sololá	701	Sololá	4	Finca Santa Victoria	3	Marzo	2023-01-03T00:00:00	2024-11-08T11:00:00	7	Dirección del viento	4.83
92691	7	Sololá	701	Sololá	4	Finca Santa Victoria	3	Marzo	2023-01-03T00:00:00	2024-11-08T11:00:00	1	Precipitación	0
92692	7	Sololá	701	Sololá	4	Finca Santa Victoria	3	Marzo	2023-01-03T00:00:00	2024-11-08T11:00:00	8	Radiación solar	874
92693	7	Sololá	701	Sololá	4	Finca Santa Victoria	3	Marzo	2023-01-03T00:00:00	2024-11-08T12:00:00	2	Temperatura media	18.6
92694	7	Sololá	701	Sololá	4	Finca Santa Victoria	3	Marzo	2023-01-03T00:00:00	2024-11-08T12:00:00	4	Temperatura máxima	19.5
92695	7	Sololá	701	Sololá	4	Finca Santa Victoria	3	Marzo	2023-01-03T00:00:00	2024-11-08T12:00:00	3	Temperatura mínima	18.6
92696	7	Sololá	701	Sololá	4	Finca Santa Victoria	3	Marzo	2023-01-03T00:00:00	2024-11-08T12:00:00	5	Humedad	68
92697	7	Sololá	701	Sololá	4	Finca Santa Victoria	3	Marzo	2023-01-03T00:00:00	2024-11-08T12:00:00	6	Velocidad del viento	6.4
92698	7	Sololá	701	Sololá	4	Finca Santa Victoria	3	Marzo	2023-01-03T00:00:00	2024-11-08T12:00:00	7	Dirección del viento	6.44
92699	7	Sololá	701	Sololá	4	Finca Santa Victoria	3	Marzo	2023-01-03T00:00:00	2024-11-08T12:00:00	1	Precipitación	0
92700	7	Sololá	701	Sololá	4	Finca Santa Victoria	3	Marzo	2023-01-03T00:00:00	2024-11-08T12:00:00	8	Radiación solar	955
92701	7	Sololá	701	Sololá	4	Finca Santa Victoria	3	Marzo	2023-01-03T00:00:00	2024-11-08T13:00:00	2	Temperatura media	18.2
92702	7	Sololá	701	Sololá	4	Finca Santa Victoria	3	Marzo	2023-01-03T00:00:00	2024-11-08T13:00:00	4	Temperatura máxima	18.9
92703	7	Sololá	701	Sololá	4	Finca Santa Victoria	3	Marzo	2023-01-03T00:00:00	2024-11-08T13:00:00	3	Temperatura mínima	18.1
92704	7	Sololá	701	Sololá	4	Finca Santa Victoria	3	Marzo	2023-01-03T00:00:00	2024-11-08T13:00:00	5	Humedad	76
92705	7	Sololá	701	Sololá	4	Finca Santa Victoria	3	Marzo	2023-01-03T00:00:00	2024-11-08T13:00:00	6	Velocidad del viento	6.4
92706	7	Sololá	701	Sololá	4	Finca Santa Victoria	3	Marzo	2023-01-03T00:00:00	2024-11-08T13:00:00	7	Dirección del viento	6.44
92707	7	Sololá	701	Sololá	4	Finca Santa Victoria	3	Marzo	2023-01-03T00:00:00	2024-11-08T13:00:00	1	Precipitación	0
92708	7	Sololá	701	Sololá	4	Finca Santa Victoria	3	Marzo	2023-01-03T00:00:00	2024-11-08T13:00:00	8	Radiación solar	933
92709	7	Sololá	701	Sololá	4	Finca Santa Victoria	3	Marzo	2023-01-03T00:00:00	2024-11-08T14:00:00	2	Temperatura media	18.3
92710	7	Sololá	701	Sololá	4	Finca Santa Victoria	3	Marzo	2023-01-03T00:00:00	2024-11-08T14:00:00	4	Temperatura máxima	19.4
92711	7	Sololá	701	Sololá	4	Finca Santa Victoria	3	Marzo	2023-01-03T00:00:00	2024-11-08T14:00:00	3	Temperatura mínima	18.1
92712	7	Sololá	701	Sololá	4	Finca Santa Victoria	3	Marzo	2023-01-03T00:00:00	2024-11-08T14:00:00	5	Humedad	78
92713	7	Sololá	701	Sololá	4	Finca Santa Victoria	3	Marzo	2023-01-03T00:00:00	2024-11-08T14:00:00	6	Velocidad del viento	6.4
92714	7	Sololá	701	Sololá	4	Finca Santa Victoria	3	Marzo	2023-01-03T00:00:00	2024-11-08T14:00:00	7	Dirección del viento	6.44
92715	7	Sololá	701	Sololá	4	Finca Santa Victoria	3	Marzo	2023-01-03T00:00:00	2024-11-08T14:00:00	1	Precipitación	0
92716	7	Sololá	701	Sololá	4	Finca Santa Victoria	3	Marzo	2023-01-03T00:00:00	2024-11-08T14:00:00	8	Radiación solar	617
92717	7	Sololá	701	Sololá	4	Finca Santa Victoria	3	Marzo	2023-01-03T00:00:00	2024-11-08T15:00:00	2	Temperatura media	17.7
92718	7	Sololá	701	Sololá	4	Finca Santa Victoria	3	Marzo	2023-01-03T00:00:00	2024-11-08T15:00:00	4	Temperatura máxima	18.3
92719	7	Sololá	701	Sololá	4	Finca Santa Victoria	3	Marzo	2023-01-03T00:00:00	2024-11-08T15:00:00	3	Temperatura mínima	17.5
92720	7	Sololá	701	Sololá	4	Finca Santa Victoria	3	Marzo	2023-01-03T00:00:00	2024-11-08T15:00:00	5	Humedad	81
92721	7	Sololá	701	Sololá	4	Finca Santa Victoria	3	Marzo	2023-01-03T00:00:00	2024-11-08T15:00:00	6	Velocidad del viento	6.4
92722	7	Sololá	701	Sololá	4	Finca Santa Victoria	3	Marzo	2023-01-03T00:00:00	2024-11-08T15:00:00	7	Dirección del viento	6.44
92723	7	Sololá	701	Sololá	4	Finca Santa Victoria	3	Marzo	2023-01-03T00:00:00	2024-11-08T15:00:00	1	Precipitación	0
92724	7	Sololá	701	Sololá	4	Finca Santa Victoria	3	Marzo	2023-01-03T00:00:00	2024-11-08T15:00:00	8	Radiación solar	357
92725	7	Sololá	701	Sololá	4	Finca Santa Victoria	3	Marzo	2023-01-03T00:00:00	2024-11-08T16:00:00	2	Temperatura media	16.4
92726	7	Sololá	701	Sololá	4	Finca Santa Victoria	3	Marzo	2023-01-03T00:00:00	2024-11-08T16:00:00	4	Temperatura máxima	17.7
92727	7	Sololá	701	Sololá	4	Finca Santa Victoria	3	Marzo	2023-01-03T00:00:00	2024-11-08T16:00:00	3	Temperatura mínima	16.3
92728	7	Sololá	701	Sololá	4	Finca Santa Victoria	3	Marzo	2023-01-03T00:00:00	2024-11-08T16:00:00	5	Humedad	87
92729	7	Sololá	701	Sololá	4	Finca Santa Victoria	3	Marzo	2023-01-03T00:00:00	2024-11-08T16:00:00	6	Velocidad del viento	4.8
92730	7	Sololá	701	Sololá	4	Finca Santa Victoria	3	Marzo	2023-01-03T00:00:00	2024-11-08T16:00:00	7	Dirección del viento	4.83
92731	7	Sololá	701	Sololá	4	Finca Santa Victoria	3	Marzo	2023-01-03T00:00:00	2024-11-08T16:00:00	1	Precipitación	0
92732	7	Sololá	701	Sololá	4	Finca Santa Victoria	3	Marzo	2023-01-03T00:00:00	2024-11-08T16:00:00	8	Radiación solar	161
92733	7	Sololá	701	Sololá	4	Finca Santa Victoria	3	Marzo	2023-01-03T00:00:00	2024-11-08T17:00:00	2	Temperatura media	15.7
92734	7	Sololá	701	Sololá	4	Finca Santa Victoria	3	Marzo	2023-01-03T00:00:00	2024-11-08T17:00:00	4	Temperatura máxima	16.7
92735	7	Sololá	701	Sololá	4	Finca Santa Victoria	3	Marzo	2023-01-03T00:00:00	2024-11-08T17:00:00	3	Temperatura mínima	15.7
92736	7	Sololá	701	Sololá	4	Finca Santa Victoria	3	Marzo	2023-01-03T00:00:00	2024-11-08T17:00:00	5	Humedad	91
92737	7	Sololá	701	Sololá	4	Finca Santa Victoria	3	Marzo	2023-01-03T00:00:00	2024-11-08T17:00:00	6	Velocidad del viento	3.2
92738	7	Sololá	701	Sololá	4	Finca Santa Victoria	3	Marzo	2023-01-03T00:00:00	2024-11-08T17:00:00	7	Dirección del viento	3.22
92739	7	Sololá	701	Sololá	4	Finca Santa Victoria	3	Marzo	2023-01-03T00:00:00	2024-11-08T17:00:00	1	Precipitación	0
92740	7	Sololá	701	Sololá	4	Finca Santa Victoria	3	Marzo	2023-01-03T00:00:00	2024-11-08T17:00:00	8	Radiación solar	92
92741	7	Sololá	701	Sololá	4	Finca Santa Victoria	3	Marzo	2023-01-03T00:00:00	2024-11-08T18:00:00	2	Temperatura media	15.2
92742	7	Sololá	701	Sololá	4	Finca Santa Victoria	3	Marzo	2023-01-03T00:00:00	2024-11-08T18:00:00	4	Temperatura máxima	15.8
92743	7	Sololá	701	Sololá	4	Finca Santa Victoria	3	Marzo	2023-01-03T00:00:00	2024-11-08T18:00:00	3	Temperatura mínima	15.2
92744	7	Sololá	701	Sololá	4	Finca Santa Victoria	3	Marzo	2023-01-03T00:00:00	2024-11-08T18:00:00	5	Humedad	94
92745	7	Sololá	701	Sololá	4	Finca Santa Victoria	3	Marzo	2023-01-03T00:00:00	2024-11-08T18:00:00	6	Velocidad del viento	1.6
92746	7	Sololá	701	Sololá	4	Finca Santa Victoria	3	Marzo	2023-01-03T00:00:00	2024-11-08T18:00:00	7	Dirección del viento	1.61
92747	7	Sololá	701	Sololá	4	Finca Santa Victoria	3	Marzo	2023-01-03T00:00:00	2024-11-08T18:00:00	1	Precipitación	0
92748	7	Sololá	701	Sololá	4	Finca Santa Victoria	3	Marzo	2023-01-03T00:00:00	2024-11-08T18:00:00	8	Radiación solar	29
92749	7	Sololá	701	Sololá	4	Finca Santa Victoria	3	Marzo	2023-01-03T00:00:00	2024-11-08T19:00:00	2	Temperatura media	14.3
92750	7	Sololá	701	Sololá	4	Finca Santa Victoria	3	Marzo	2023-01-03T00:00:00	2024-11-08T19:00:00	4	Temperatura máxima	15.2
92751	7	Sololá	701	Sololá	4	Finca Santa Victoria	3	Marzo	2023-01-03T00:00:00	2024-11-08T19:00:00	3	Temperatura mínima	14.3
92752	7	Sololá	701	Sololá	4	Finca Santa Victoria	3	Marzo	2023-01-03T00:00:00	2024-11-08T19:00:00	5	Humedad	95
92753	7	Sololá	701	Sololá	4	Finca Santa Victoria	3	Marzo	2023-01-03T00:00:00	2024-11-08T19:00:00	6	Velocidad del viento	1.6
92754	7	Sololá	701	Sololá	4	Finca Santa Victoria	3	Marzo	2023-01-03T00:00:00	2024-11-08T19:00:00	7	Dirección del viento	1.61
92755	7	Sololá	701	Sololá	4	Finca Santa Victoria	3	Marzo	2023-01-03T00:00:00	2024-11-08T19:00:00	1	Precipitación	0
92756	7	Sololá	701	Sololá	4	Finca Santa Victoria	3	Marzo	2023-01-03T00:00:00	2024-11-08T19:00:00	8	Radiación solar	0
92757	7	Sololá	701	Sololá	4	Finca Santa Victoria	3	Marzo	2023-01-03T00:00:00	2024-11-08T20:00:00	2	Temperatura media	13.4
92758	7	Sololá	701	Sololá	4	Finca Santa Victoria	3	Marzo	2023-01-03T00:00:00	2024-11-08T20:00:00	4	Temperatura máxima	14.3
92759	7	Sololá	701	Sololá	4	Finca Santa Victoria	3	Marzo	2023-01-03T00:00:00	2024-11-08T20:00:00	3	Temperatura mínima	13.4
92760	7	Sololá	701	Sololá	4	Finca Santa Victoria	3	Marzo	2023-01-03T00:00:00	2024-11-08T20:00:00	5	Humedad	96
92761	7	Sololá	701	Sololá	4	Finca Santa Victoria	3	Marzo	2023-01-03T00:00:00	2024-11-08T20:00:00	6	Velocidad del viento	0
92762	7	Sololá	701	Sololá	4	Finca Santa Victoria	3	Marzo	2023-01-03T00:00:00	2024-11-08T20:00:00	7	Dirección del viento	0
92763	7	Sololá	701	Sololá	4	Finca Santa Victoria	3	Marzo	2023-01-03T00:00:00	2024-11-08T20:00:00	1	Precipitación	0
92764	7	Sololá	701	Sololá	4	Finca Santa Victoria	3	Marzo	2023-01-03T00:00:00	2024-11-08T20:00:00	8	Radiación solar	0
92765	7	Sololá	701	Sololá	4	Finca Santa Victoria	3	Marzo	2023-01-03T00:00:00	2024-11-08T21:00:00	2	Temperatura media	13.2
92766	7	Sololá	701	Sololá	4	Finca Santa Victoria	3	Marzo	2023-01-03T00:00:00	2024-11-08T21:00:00	4	Temperatura máxima	13.4
92767	7	Sololá	701	Sololá	4	Finca Santa Victoria	3	Marzo	2023-01-03T00:00:00	2024-11-08T21:00:00	3	Temperatura mínima	13.2
92768	7	Sololá	701	Sololá	4	Finca Santa Victoria	3	Marzo	2023-01-03T00:00:00	2024-11-08T21:00:00	5	Humedad	97
92769	7	Sololá	701	Sololá	4	Finca Santa Victoria	3	Marzo	2023-01-03T00:00:00	2024-11-08T21:00:00	6	Velocidad del viento	0
92770	7	Sololá	701	Sololá	4	Finca Santa Victoria	3	Marzo	2023-01-03T00:00:00	2024-11-08T21:00:00	7	Dirección del viento	0
92771	7	Sololá	701	Sololá	4	Finca Santa Victoria	3	Marzo	2023-01-03T00:00:00	2024-11-08T21:00:00	1	Precipitación	0
92772	7	Sololá	701	Sololá	4	Finca Santa Victoria	3	Marzo	2023-01-03T00:00:00	2024-11-08T21:00:00	8	Radiación solar	0
92773	7	Sololá	701	Sololá	4	Finca Santa Victoria	3	Marzo	2023-01-03T00:00:00	2024-11-08T22:00:00	2	Temperatura media	12.7
92774	7	Sololá	701	Sololá	4	Finca Santa Victoria	3	Marzo	2023-01-03T00:00:00	2024-11-08T22:00:00	4	Temperatura máxima	13.2
92775	7	Sololá	701	Sololá	4	Finca Santa Victoria	3	Marzo	2023-01-03T00:00:00	2024-11-08T22:00:00	3	Temperatura mínima	12.7
92776	7	Sololá	701	Sololá	4	Finca Santa Victoria	3	Marzo	2023-01-03T00:00:00	2024-11-08T22:00:00	5	Humedad	95
92777	7	Sololá	701	Sololá	4	Finca Santa Victoria	3	Marzo	2023-01-03T00:00:00	2024-11-08T22:00:00	6	Velocidad del viento	1.6
92778	7	Sololá	701	Sololá	4	Finca Santa Victoria	3	Marzo	2023-01-03T00:00:00	2024-11-08T22:00:00	7	Dirección del viento	1.61
92779	7	Sololá	701	Sololá	4	Finca Santa Victoria	3	Marzo	2023-01-03T00:00:00	2024-11-08T22:00:00	1	Precipitación	0
92780	7	Sololá	701	Sololá	4	Finca Santa Victoria	3	Marzo	2023-01-03T00:00:00	2024-11-08T22:00:00	8	Radiación solar	0
92781	7	Sololá	701	Sololá	4	Finca Santa Victoria	3	Marzo	2023-01-03T00:00:00	2024-11-08T23:00:00	2	Temperatura media	12.8
92782	7	Sololá	701	Sololá	4	Finca Santa Victoria	3	Marzo	2023-01-03T00:00:00	2024-11-08T23:00:00	4	Temperatura máxima	12.8
92783	7	Sololá	701	Sololá	4	Finca Santa Victoria	3	Marzo	2023-01-03T00:00:00	2024-11-08T23:00:00	3	Temperatura mínima	12.4
92784	7	Sololá	701	Sololá	4	Finca Santa Victoria	3	Marzo	2023-01-03T00:00:00	2024-11-08T23:00:00	5	Humedad	89
92785	7	Sololá	701	Sololá	4	Finca Santa Victoria	3	Marzo	2023-01-03T00:00:00	2024-11-08T23:00:00	6	Velocidad del viento	1.6
92786	7	Sololá	701	Sololá	4	Finca Santa Victoria	3	Marzo	2023-01-03T00:00:00	2024-11-08T23:00:00	7	Dirección del viento	1.61
92787	7	Sololá	701	Sololá	4	Finca Santa Victoria	3	Marzo	2023-01-03T00:00:00	2024-11-08T23:00:00	1	Precipitación	0
92788	7	Sololá	701	Sololá	4	Finca Santa Victoria	3	Marzo	2023-01-03T00:00:00	2024-11-08T23:00:00	8	Radiación solar	0
92789	7	Sololá	701	Sololá	4	Finca Santa Victoria	3	Marzo	2023-02-03T00:00:00	2024-11-08T00:00:00	2	Temperatura media	13.4
92790	7	Sololá	701	Sololá	4	Finca Santa Victoria	3	Marzo	2023-02-03T00:00:00	2024-11-08T00:00:00	4	Temperatura máxima	13.4
92791	7	Sololá	701	Sololá	4	Finca Santa Victoria	3	Marzo	2023-02-03T00:00:00	2024-11-08T00:00:00	3	Temperatura mínima	12.8
92792	7	Sololá	701	Sololá	4	Finca Santa Victoria	3	Marzo	2023-02-03T00:00:00	2024-11-08T00:00:00	5	Humedad	85
92793	7	Sololá	701	Sololá	4	Finca Santa Victoria	3	Marzo	2023-02-03T00:00:00	2024-11-08T00:00:00	6	Velocidad del viento	1.6
92794	7	Sololá	701	Sololá	4	Finca Santa Victoria	3	Marzo	2023-02-03T00:00:00	2024-11-08T00:00:00	7	Dirección del viento	1.61
92795	7	Sololá	701	Sololá	4	Finca Santa Victoria	3	Marzo	2023-02-03T00:00:00	2024-11-08T00:00:00	1	Precipitación	0
92796	7	Sololá	701	Sololá	4	Finca Santa Victoria	3	Marzo	2023-02-03T00:00:00	2024-11-08T00:00:00	8	Radiación solar	0
92797	7	Sololá	701	Sololá	4	Finca Santa Victoria	3	Marzo	2023-02-03T00:00:00	2024-11-08T01:00:00	2	Temperatura media	12.3
92798	7	Sololá	701	Sololá	4	Finca Santa Victoria	3	Marzo	2023-02-03T00:00:00	2024-11-08T01:00:00	4	Temperatura máxima	13.4
92799	7	Sololá	701	Sololá	4	Finca Santa Victoria	3	Marzo	2023-02-03T00:00:00	2024-11-08T01:00:00	3	Temperatura mínima	12.2
92800	7	Sololá	701	Sololá	4	Finca Santa Victoria	3	Marzo	2023-02-03T00:00:00	2024-11-08T01:00:00	5	Humedad	96
92801	7	Sololá	701	Sololá	4	Finca Santa Victoria	3	Marzo	2023-02-03T00:00:00	2024-11-08T01:00:00	6	Velocidad del viento	0
92802	7	Sololá	701	Sololá	4	Finca Santa Victoria	3	Marzo	2023-02-03T00:00:00	2024-11-08T01:00:00	7	Dirección del viento	0
92803	7	Sololá	701	Sololá	4	Finca Santa Victoria	3	Marzo	2023-02-03T00:00:00	2024-11-08T01:00:00	1	Precipitación	0
92804	7	Sololá	701	Sololá	4	Finca Santa Victoria	3	Marzo	2023-02-03T00:00:00	2024-11-08T01:00:00	8	Radiación solar	0
92805	7	Sololá	701	Sololá	4	Finca Santa Victoria	3	Marzo	2023-02-03T00:00:00	2024-11-08T02:00:00	2	Temperatura media	12.3
92806	7	Sololá	701	Sololá	4	Finca Santa Victoria	3	Marzo	2023-02-03T00:00:00	2024-11-08T02:00:00	4	Temperatura máxima	12.6
92807	7	Sololá	701	Sololá	4	Finca Santa Victoria	3	Marzo	2023-02-03T00:00:00	2024-11-08T02:00:00	3	Temperatura mínima	12.3
92808	7	Sololá	701	Sololá	4	Finca Santa Victoria	3	Marzo	2023-02-03T00:00:00	2024-11-08T02:00:00	5	Humedad	97
92809	7	Sololá	701	Sololá	4	Finca Santa Victoria	3	Marzo	2023-02-03T00:00:00	2024-11-08T02:00:00	6	Velocidad del viento	0
92810	7	Sololá	701	Sololá	4	Finca Santa Victoria	3	Marzo	2023-02-03T00:00:00	2024-11-08T02:00:00	7	Dirección del viento	0
92811	7	Sololá	701	Sololá	4	Finca Santa Victoria	3	Marzo	2023-02-03T00:00:00	2024-11-08T02:00:00	1	Precipitación	0
92812	7	Sololá	701	Sololá	4	Finca Santa Victoria	3	Marzo	2023-02-03T00:00:00	2024-11-08T02:00:00	8	Radiación solar	0
92813	7	Sololá	701	Sololá	4	Finca Santa Victoria	3	Marzo	2023-02-03T00:00:00	2024-11-08T03:00:00	2	Temperatura media	11.3
92814	7	Sololá	701	Sololá	4	Finca Santa Victoria	3	Marzo	2023-02-03T00:00:00	2024-11-08T03:00:00	4	Temperatura máxima	12.4
92815	7	Sololá	701	Sololá	4	Finca Santa Victoria	3	Marzo	2023-02-03T00:00:00	2024-11-08T03:00:00	3	Temperatura mínima	11.3
92816	7	Sololá	701	Sololá	4	Finca Santa Victoria	3	Marzo	2023-02-03T00:00:00	2024-11-08T03:00:00	5	Humedad	97
92817	7	Sololá	701	Sololá	4	Finca Santa Victoria	3	Marzo	2023-02-03T00:00:00	2024-11-08T03:00:00	6	Velocidad del viento	0
92818	7	Sololá	701	Sololá	4	Finca Santa Victoria	3	Marzo	2023-02-03T00:00:00	2024-11-08T03:00:00	7	Dirección del viento	0
92819	7	Sololá	701	Sololá	4	Finca Santa Victoria	3	Marzo	2023-02-03T00:00:00	2024-11-08T03:00:00	1	Precipitación	0
92820	7	Sololá	701	Sololá	4	Finca Santa Victoria	3	Marzo	2023-02-03T00:00:00	2024-11-08T03:00:00	8	Radiación solar	0
92821	7	Sololá	701	Sololá	4	Finca Santa Victoria	3	Marzo	2023-02-03T00:00:00	2024-11-08T04:00:00	2	Temperatura media	11.3
92822	7	Sololá	701	Sololá	4	Finca Santa Victoria	3	Marzo	2023-02-03T00:00:00	2024-11-08T04:00:00	4	Temperatura máxima	11.5
92823	7	Sololá	701	Sololá	4	Finca Santa Victoria	3	Marzo	2023-02-03T00:00:00	2024-11-08T04:00:00	3	Temperatura mínima	11.1
92824	7	Sololá	701	Sololá	4	Finca Santa Victoria	3	Marzo	2023-02-03T00:00:00	2024-11-08T04:00:00	5	Humedad	97
92825	7	Sololá	701	Sololá	4	Finca Santa Victoria	3	Marzo	2023-02-03T00:00:00	2024-11-08T04:00:00	6	Velocidad del viento	0
92826	7	Sololá	701	Sololá	4	Finca Santa Victoria	3	Marzo	2023-02-03T00:00:00	2024-11-08T04:00:00	7	Dirección del viento	0
92827	7	Sololá	701	Sololá	4	Finca Santa Victoria	3	Marzo	2023-02-03T00:00:00	2024-11-08T04:00:00	1	Precipitación	0
92828	7	Sololá	701	Sololá	4	Finca Santa Victoria	3	Marzo	2023-02-03T00:00:00	2024-11-08T04:00:00	8	Radiación solar	0
92829	7	Sololá	701	Sololá	4	Finca Santa Victoria	3	Marzo	2023-02-03T00:00:00	2024-11-08T05:00:00	2	Temperatura media	11.2
92830	7	Sololá	701	Sololá	4	Finca Santa Victoria	3	Marzo	2023-02-03T00:00:00	2024-11-08T05:00:00	4	Temperatura máxima	11.3
92831	7	Sololá	701	Sololá	4	Finca Santa Victoria	3	Marzo	2023-02-03T00:00:00	2024-11-08T05:00:00	3	Temperatura mínima	11.1
92832	7	Sololá	701	Sololá	4	Finca Santa Victoria	3	Marzo	2023-02-03T00:00:00	2024-11-08T05:00:00	5	Humedad	98
92833	7	Sololá	701	Sololá	4	Finca Santa Victoria	3	Marzo	2023-02-03T00:00:00	2024-11-08T05:00:00	6	Velocidad del viento	1.6
92834	7	Sololá	701	Sololá	4	Finca Santa Victoria	3	Marzo	2023-02-03T00:00:00	2024-11-08T05:00:00	7	Dirección del viento	1.61
92835	7	Sololá	701	Sololá	4	Finca Santa Victoria	3	Marzo	2023-02-03T00:00:00	2024-11-08T05:00:00	1	Precipitación	0
92836	7	Sololá	701	Sololá	4	Finca Santa Victoria	3	Marzo	2023-02-03T00:00:00	2024-11-08T05:00:00	8	Radiación solar	0
92837	7	Sololá	701	Sololá	4	Finca Santa Victoria	3	Marzo	2023-02-03T00:00:00	2024-11-08T06:00:00	2	Temperatura media	10.8
92838	7	Sololá	701	Sololá	4	Finca Santa Victoria	3	Marzo	2023-02-03T00:00:00	2024-11-08T06:00:00	4	Temperatura máxima	11.4
92839	7	Sololá	701	Sololá	4	Finca Santa Victoria	3	Marzo	2023-02-03T00:00:00	2024-11-08T06:00:00	3	Temperatura mínima	10.8
92840	7	Sololá	701	Sololá	4	Finca Santa Victoria	3	Marzo	2023-02-03T00:00:00	2024-11-08T06:00:00	5	Humedad	97
92841	7	Sololá	701	Sololá	4	Finca Santa Victoria	3	Marzo	2023-02-03T00:00:00	2024-11-08T06:00:00	6	Velocidad del viento	0
92842	7	Sololá	701	Sololá	4	Finca Santa Victoria	3	Marzo	2023-02-03T00:00:00	2024-11-08T06:00:00	7	Dirección del viento	0
92843	7	Sololá	701	Sololá	4	Finca Santa Victoria	3	Marzo	2023-02-03T00:00:00	2024-11-08T06:00:00	1	Precipitación	0
92844	7	Sololá	701	Sololá	4	Finca Santa Victoria	3	Marzo	2023-02-03T00:00:00	2024-11-08T06:00:00	8	Radiación solar	0
92845	7	Sololá	701	Sololá	4	Finca Santa Victoria	3	Marzo	2023-02-03T00:00:00	2024-11-08T07:00:00	2	Temperatura media	10.7
92846	7	Sololá	701	Sololá	4	Finca Santa Victoria	3	Marzo	2023-02-03T00:00:00	2024-11-08T07:00:00	4	Temperatura máxima	10.9
92847	7	Sololá	701	Sololá	4	Finca Santa Victoria	3	Marzo	2023-02-03T00:00:00	2024-11-08T07:00:00	3	Temperatura mínima	10.4
92848	7	Sololá	701	Sololá	4	Finca Santa Victoria	3	Marzo	2023-02-03T00:00:00	2024-11-08T07:00:00	5	Humedad	98
92849	7	Sololá	701	Sololá	4	Finca Santa Victoria	3	Marzo	2023-02-03T00:00:00	2024-11-08T07:00:00	6	Velocidad del viento	1.6
92850	7	Sololá	701	Sololá	4	Finca Santa Victoria	3	Marzo	2023-02-03T00:00:00	2024-11-08T07:00:00	7	Dirección del viento	1.61
92851	7	Sololá	701	Sololá	4	Finca Santa Victoria	3	Marzo	2023-02-03T00:00:00	2024-11-08T07:00:00	1	Precipitación	0
92852	7	Sololá	701	Sololá	4	Finca Santa Victoria	3	Marzo	2023-02-03T00:00:00	2024-11-08T07:00:00	8	Radiación solar	8
92853	7	Sololá	701	Sololá	4	Finca Santa Victoria	3	Marzo	2023-02-03T00:00:00	2024-11-08T08:00:00	2	Temperatura media	12.3
92854	7	Sololá	701	Sololá	4	Finca Santa Victoria	3	Marzo	2023-02-03T00:00:00	2024-11-08T08:00:00	4	Temperatura máxima	12.3
92855	7	Sololá	701	Sololá	4	Finca Santa Victoria	3	Marzo	2023-02-03T00:00:00	2024-11-08T08:00:00	3	Temperatura mínima	10.7
92856	7	Sololá	701	Sololá	4	Finca Santa Victoria	3	Marzo	2023-02-03T00:00:00	2024-11-08T08:00:00	5	Humedad	94
92857	7	Sololá	701	Sololá	4	Finca Santa Victoria	3	Marzo	2023-02-03T00:00:00	2024-11-08T08:00:00	6	Velocidad del viento	0
92858	7	Sololá	701	Sololá	4	Finca Santa Victoria	3	Marzo	2023-02-03T00:00:00	2024-11-08T08:00:00	7	Dirección del viento	0
92859	7	Sololá	701	Sololá	4	Finca Santa Victoria	3	Marzo	2023-02-03T00:00:00	2024-11-08T08:00:00	1	Precipitación	0
92860	7	Sololá	701	Sololá	4	Finca Santa Victoria	3	Marzo	2023-02-03T00:00:00	2024-11-08T08:00:00	8	Radiación solar	94
92861	7	Sololá	701	Sololá	4	Finca Santa Victoria	3	Marzo	2023-02-03T00:00:00	2024-11-08T09:00:00	2	Temperatura media	15.6
92862	7	Sololá	701	Sololá	4	Finca Santa Victoria	3	Marzo	2023-02-03T00:00:00	2024-11-08T09:00:00	4	Temperatura máxima	15.6
92863	7	Sololá	701	Sololá	4	Finca Santa Victoria	3	Marzo	2023-02-03T00:00:00	2024-11-08T09:00:00	3	Temperatura mínima	12.3
92864	7	Sololá	701	Sololá	4	Finca Santa Victoria	3	Marzo	2023-02-03T00:00:00	2024-11-08T09:00:00	5	Humedad	72
92865	7	Sololá	701	Sololá	4	Finca Santa Victoria	3	Marzo	2023-02-03T00:00:00	2024-11-08T09:00:00	6	Velocidad del viento	1.6
92866	7	Sololá	701	Sololá	4	Finca Santa Victoria	3	Marzo	2023-02-03T00:00:00	2024-11-08T09:00:00	7	Dirección del viento	1.61
92867	7	Sololá	701	Sololá	4	Finca Santa Victoria	3	Marzo	2023-02-03T00:00:00	2024-11-08T09:00:00	1	Precipitación	0
92868	7	Sololá	701	Sololá	4	Finca Santa Victoria	3	Marzo	2023-02-03T00:00:00	2024-11-08T09:00:00	8	Radiación solar	339
92869	7	Sololá	701	Sololá	4	Finca Santa Victoria	3	Marzo	2023-02-03T00:00:00	2024-11-08T10:00:00	2	Temperatura media	16.7
92870	7	Sololá	701	Sololá	4	Finca Santa Victoria	3	Marzo	2023-02-03T00:00:00	2024-11-08T10:00:00	4	Temperatura máxima	16.9
92871	7	Sololá	701	Sololá	4	Finca Santa Victoria	3	Marzo	2023-02-03T00:00:00	2024-11-08T10:00:00	3	Temperatura mínima	15.6
92872	7	Sololá	701	Sololá	4	Finca Santa Victoria	3	Marzo	2023-02-03T00:00:00	2024-11-08T10:00:00	5	Humedad	68
92873	7	Sololá	701	Sololá	4	Finca Santa Victoria	3	Marzo	2023-02-03T00:00:00	2024-11-08T10:00:00	6	Velocidad del viento	3.2
92874	7	Sololá	701	Sololá	4	Finca Santa Victoria	3	Marzo	2023-02-03T00:00:00	2024-11-08T10:00:00	7	Dirección del viento	3.22
92875	7	Sololá	701	Sololá	4	Finca Santa Victoria	3	Marzo	2023-02-03T00:00:00	2024-11-08T10:00:00	1	Precipitación	0
92876	7	Sololá	701	Sololá	4	Finca Santa Victoria	3	Marzo	2023-02-03T00:00:00	2024-11-08T10:00:00	8	Radiación solar	691
92877	7	Sololá	701	Sololá	4	Finca Santa Victoria	3	Marzo	2023-02-03T00:00:00	2024-11-08T11:00:00	2	Temperatura media	18.7
92878	7	Sololá	701	Sololá	4	Finca Santa Victoria	3	Marzo	2023-02-03T00:00:00	2024-11-08T11:00:00	4	Temperatura máxima	18.7
92879	7	Sololá	701	Sololá	4	Finca Santa Victoria	3	Marzo	2023-02-03T00:00:00	2024-11-08T11:00:00	3	Temperatura mínima	16.4
92880	7	Sololá	701	Sololá	4	Finca Santa Victoria	3	Marzo	2023-02-03T00:00:00	2024-11-08T11:00:00	5	Humedad	44
92881	7	Sololá	701	Sololá	4	Finca Santa Victoria	3	Marzo	2023-02-03T00:00:00	2024-11-08T11:00:00	6	Velocidad del viento	4.8
92882	7	Sololá	701	Sololá	4	Finca Santa Victoria	3	Marzo	2023-02-03T00:00:00	2024-11-08T11:00:00	7	Dirección del viento	4.83
92883	7	Sololá	701	Sololá	4	Finca Santa Victoria	3	Marzo	2023-02-03T00:00:00	2024-11-08T11:00:00	1	Precipitación	0
92884	7	Sololá	701	Sololá	4	Finca Santa Victoria	3	Marzo	2023-02-03T00:00:00	2024-11-08T11:00:00	8	Radiación solar	850
92885	7	Sololá	701	Sololá	4	Finca Santa Victoria	3	Marzo	2023-02-03T00:00:00	2024-11-08T12:00:00	2	Temperatura media	19.6
92886	7	Sololá	701	Sololá	4	Finca Santa Victoria	3	Marzo	2023-02-03T00:00:00	2024-11-08T12:00:00	4	Temperatura máxima	19.6
92887	7	Sololá	701	Sololá	4	Finca Santa Victoria	3	Marzo	2023-02-03T00:00:00	2024-11-08T12:00:00	3	Temperatura mínima	18.4
92888	7	Sololá	701	Sololá	4	Finca Santa Victoria	3	Marzo	2023-02-03T00:00:00	2024-11-08T12:00:00	5	Humedad	43
92889	7	Sololá	701	Sololá	4	Finca Santa Victoria	3	Marzo	2023-02-03T00:00:00	2024-11-08T12:00:00	6	Velocidad del viento	4.8
92890	7	Sololá	701	Sololá	4	Finca Santa Victoria	3	Marzo	2023-02-03T00:00:00	2024-11-08T12:00:00	7	Dirección del viento	4.83
92891	7	Sololá	701	Sololá	4	Finca Santa Victoria	3	Marzo	2023-02-03T00:00:00	2024-11-08T12:00:00	1	Precipitación	0
92892	7	Sololá	701	Sololá	4	Finca Santa Victoria	3	Marzo	2023-02-03T00:00:00	2024-11-08T12:00:00	8	Radiación solar	957
92893	7	Sololá	701	Sololá	4	Finca Santa Victoria	3	Marzo	2023-02-03T00:00:00	2024-11-08T13:00:00	2	Temperatura media	20.1
92894	7	Sololá	701	Sololá	4	Finca Santa Victoria	3	Marzo	2023-02-03T00:00:00	2024-11-08T13:00:00	4	Temperatura máxima	20.2
92895	7	Sololá	701	Sololá	4	Finca Santa Victoria	3	Marzo	2023-02-03T00:00:00	2024-11-08T13:00:00	3	Temperatura mínima	19.4
92896	7	Sololá	701	Sololá	4	Finca Santa Victoria	3	Marzo	2023-02-03T00:00:00	2024-11-08T13:00:00	5	Humedad	41
92897	7	Sololá	701	Sololá	4	Finca Santa Victoria	3	Marzo	2023-02-03T00:00:00	2024-11-08T13:00:00	6	Velocidad del viento	6.4
92898	7	Sololá	701	Sololá	4	Finca Santa Victoria	3	Marzo	2023-02-03T00:00:00	2024-11-08T13:00:00	7	Dirección del viento	6.44
92899	7	Sololá	701	Sololá	4	Finca Santa Victoria	3	Marzo	2023-02-03T00:00:00	2024-11-08T13:00:00	1	Precipitación	0
92900	7	Sololá	701	Sololá	4	Finca Santa Victoria	3	Marzo	2023-02-03T00:00:00	2024-11-08T13:00:00	8	Radiación solar	891
92901	7	Sololá	701	Sololá	4	Finca Santa Victoria	3	Marzo	2023-02-03T00:00:00	2024-11-08T14:00:00	2	Temperatura media	19.6
92902	7	Sololá	701	Sololá	4	Finca Santa Victoria	3	Marzo	2023-02-03T00:00:00	2024-11-08T14:00:00	4	Temperatura máxima	20.4
92903	7	Sololá	701	Sololá	4	Finca Santa Victoria	3	Marzo	2023-02-03T00:00:00	2024-11-08T14:00:00	3	Temperatura mínima	19.2
92904	7	Sololá	701	Sololá	4	Finca Santa Victoria	3	Marzo	2023-02-03T00:00:00	2024-11-08T14:00:00	5	Humedad	61
92905	7	Sololá	701	Sololá	4	Finca Santa Victoria	3	Marzo	2023-02-03T00:00:00	2024-11-08T14:00:00	6	Velocidad del viento	6.4
92906	7	Sololá	701	Sololá	4	Finca Santa Victoria	3	Marzo	2023-02-03T00:00:00	2024-11-08T14:00:00	7	Dirección del viento	6.44
92907	7	Sololá	701	Sololá	4	Finca Santa Victoria	3	Marzo	2023-02-03T00:00:00	2024-11-08T14:00:00	1	Precipitación	0
92908	7	Sololá	701	Sololá	4	Finca Santa Victoria	3	Marzo	2023-02-03T00:00:00	2024-11-08T14:00:00	8	Radiación solar	744
92909	7	Sololá	701	Sololá	4	Finca Santa Victoria	3	Marzo	2023-02-03T00:00:00	2024-11-08T15:00:00	2	Temperatura media	18.9
92910	7	Sololá	701	Sololá	4	Finca Santa Victoria	3	Marzo	2023-02-03T00:00:00	2024-11-08T15:00:00	4	Temperatura máxima	19.9
92911	7	Sololá	701	Sololá	4	Finca Santa Victoria	3	Marzo	2023-02-03T00:00:00	2024-11-08T15:00:00	3	Temperatura mínima	18.9
92912	7	Sololá	701	Sololá	4	Finca Santa Victoria	3	Marzo	2023-02-03T00:00:00	2024-11-08T15:00:00	5	Humedad	71
92913	7	Sololá	701	Sololá	4	Finca Santa Victoria	3	Marzo	2023-02-03T00:00:00	2024-11-08T15:00:00	6	Velocidad del viento	6.4
92914	7	Sololá	701	Sololá	4	Finca Santa Victoria	3	Marzo	2023-02-03T00:00:00	2024-11-08T15:00:00	7	Dirección del viento	6.44
92915	7	Sololá	701	Sololá	4	Finca Santa Victoria	3	Marzo	2023-02-03T00:00:00	2024-11-08T15:00:00	1	Precipitación	0
92916	7	Sololá	701	Sololá	4	Finca Santa Victoria	3	Marzo	2023-02-03T00:00:00	2024-11-08T15:00:00	8	Radiación solar	559
92917	7	Sololá	701	Sololá	4	Finca Santa Victoria	3	Marzo	2023-02-03T00:00:00	2024-11-08T16:00:00	2	Temperatura media	16.9
92918	7	Sololá	701	Sololá	4	Finca Santa Victoria	3	Marzo	2023-02-03T00:00:00	2024-11-08T16:00:00	4	Temperatura máxima	18.9
92919	7	Sololá	701	Sololá	4	Finca Santa Victoria	3	Marzo	2023-02-03T00:00:00	2024-11-08T16:00:00	3	Temperatura mínima	16.9
92920	7	Sololá	701	Sololá	4	Finca Santa Victoria	3	Marzo	2023-02-03T00:00:00	2024-11-08T16:00:00	5	Humedad	80
92921	7	Sololá	701	Sololá	4	Finca Santa Victoria	3	Marzo	2023-02-03T00:00:00	2024-11-08T16:00:00	6	Velocidad del viento	4.8
92922	7	Sololá	701	Sololá	4	Finca Santa Victoria	3	Marzo	2023-02-03T00:00:00	2024-11-08T16:00:00	7	Dirección del viento	4.83
92923	7	Sololá	701	Sololá	4	Finca Santa Victoria	3	Marzo	2023-02-03T00:00:00	2024-11-08T16:00:00	1	Precipitación	0
92924	7	Sololá	701	Sololá	4	Finca Santa Victoria	3	Marzo	2023-02-03T00:00:00	2024-11-08T16:00:00	8	Radiación solar	225
92925	7	Sololá	701	Sololá	4	Finca Santa Victoria	3	Marzo	2023-02-03T00:00:00	2024-11-08T17:00:00	2	Temperatura media	15.6
92926	7	Sololá	701	Sololá	4	Finca Santa Victoria	3	Marzo	2023-02-03T00:00:00	2024-11-08T17:00:00	4	Temperatura máxima	17
92927	7	Sololá	701	Sololá	4	Finca Santa Victoria	3	Marzo	2023-02-03T00:00:00	2024-11-08T17:00:00	3	Temperatura mínima	15.6
92928	7	Sololá	701	Sololá	4	Finca Santa Victoria	3	Marzo	2023-02-03T00:00:00	2024-11-08T17:00:00	5	Humedad	86
92929	7	Sololá	701	Sololá	4	Finca Santa Victoria	3	Marzo	2023-02-03T00:00:00	2024-11-08T17:00:00	6	Velocidad del viento	3.2
92930	7	Sololá	701	Sololá	4	Finca Santa Victoria	3	Marzo	2023-02-03T00:00:00	2024-11-08T17:00:00	7	Dirección del viento	3.22
92931	7	Sololá	701	Sololá	4	Finca Santa Victoria	3	Marzo	2023-02-03T00:00:00	2024-11-08T17:00:00	1	Precipitación	0
92932	7	Sololá	701	Sololá	4	Finca Santa Victoria	3	Marzo	2023-02-03T00:00:00	2024-11-08T17:00:00	8	Radiación solar	92
92933	7	Sololá	701	Sololá	4	Finca Santa Victoria	3	Marzo	2023-02-03T00:00:00	2024-11-08T18:00:00	2	Temperatura media	14.5
92934	7	Sololá	701	Sololá	4	Finca Santa Victoria	3	Marzo	2023-02-03T00:00:00	2024-11-08T18:00:00	4	Temperatura máxima	15.6
92935	7	Sololá	701	Sololá	4	Finca Santa Victoria	3	Marzo	2023-02-03T00:00:00	2024-11-08T18:00:00	3	Temperatura mínima	14.5
92936	7	Sololá	701	Sololá	4	Finca Santa Victoria	3	Marzo	2023-02-03T00:00:00	2024-11-08T18:00:00	5	Humedad	89
92937	7	Sololá	701	Sololá	4	Finca Santa Victoria	3	Marzo	2023-02-03T00:00:00	2024-11-08T18:00:00	6	Velocidad del viento	1.6
92938	7	Sololá	701	Sololá	4	Finca Santa Victoria	3	Marzo	2023-02-03T00:00:00	2024-11-08T18:00:00	7	Dirección del viento	1.61
92939	7	Sololá	701	Sololá	4	Finca Santa Victoria	3	Marzo	2023-02-03T00:00:00	2024-11-08T18:00:00	1	Precipitación	0
92940	7	Sololá	701	Sololá	4	Finca Santa Victoria	3	Marzo	2023-02-03T00:00:00	2024-11-08T18:00:00	8	Radiación solar	36
92941	7	Sololá	701	Sololá	4	Finca Santa Victoria	3	Marzo	2023-02-03T00:00:00	2024-11-08T19:00:00	2	Temperatura media	13.7
92942	7	Sololá	701	Sololá	4	Finca Santa Victoria	3	Marzo	2023-02-03T00:00:00	2024-11-08T19:00:00	4	Temperatura máxima	14.6
92943	7	Sololá	701	Sololá	4	Finca Santa Victoria	3	Marzo	2023-02-03T00:00:00	2024-11-08T19:00:00	3	Temperatura mínima	13.7
92944	7	Sololá	701	Sololá	4	Finca Santa Victoria	3	Marzo	2023-02-03T00:00:00	2024-11-08T19:00:00	5	Humedad	93
92945	7	Sololá	701	Sololá	4	Finca Santa Victoria	3	Marzo	2023-02-03T00:00:00	2024-11-08T19:00:00	6	Velocidad del viento	1.6
92946	7	Sololá	701	Sololá	4	Finca Santa Victoria	3	Marzo	2023-02-03T00:00:00	2024-11-08T19:00:00	7	Dirección del viento	1.61
92947	7	Sololá	701	Sololá	4	Finca Santa Victoria	3	Marzo	2023-02-03T00:00:00	2024-11-08T19:00:00	1	Precipitación	0
92948	7	Sololá	701	Sololá	4	Finca Santa Victoria	3	Marzo	2023-02-03T00:00:00	2024-11-08T19:00:00	8	Radiación solar	0
92949	7	Sololá	701	Sololá	4	Finca Santa Victoria	3	Marzo	2023-02-03T00:00:00	2024-11-08T20:00:00	2	Temperatura media	12.9
92950	7	Sololá	701	Sololá	4	Finca Santa Victoria	3	Marzo	2023-02-03T00:00:00	2024-11-08T20:00:00	4	Temperatura máxima	13.7
92951	7	Sololá	701	Sololá	4	Finca Santa Victoria	3	Marzo	2023-02-03T00:00:00	2024-11-08T20:00:00	3	Temperatura mínima	12.9
92952	7	Sololá	701	Sololá	4	Finca Santa Victoria	3	Marzo	2023-02-03T00:00:00	2024-11-08T20:00:00	5	Humedad	95
92953	7	Sololá	701	Sololá	4	Finca Santa Victoria	3	Marzo	2023-02-03T00:00:00	2024-11-08T20:00:00	6	Velocidad del viento	1.6
92954	7	Sololá	701	Sololá	4	Finca Santa Victoria	3	Marzo	2023-02-03T00:00:00	2024-11-08T20:00:00	7	Dirección del viento	1.61
92955	7	Sololá	701	Sololá	4	Finca Santa Victoria	3	Marzo	2023-02-03T00:00:00	2024-11-08T20:00:00	1	Precipitación	0
92956	7	Sololá	701	Sololá	4	Finca Santa Victoria	3	Marzo	2023-02-03T00:00:00	2024-11-08T20:00:00	8	Radiación solar	0
92957	7	Sololá	701	Sololá	4	Finca Santa Victoria	3	Marzo	2023-02-03T00:00:00	2024-11-08T21:00:00	2	Temperatura media	12.6
92958	7	Sololá	701	Sololá	4	Finca Santa Victoria	3	Marzo	2023-02-03T00:00:00	2024-11-08T21:00:00	4	Temperatura máxima	12.9
92959	7	Sololá	701	Sololá	4	Finca Santa Victoria	3	Marzo	2023-02-03T00:00:00	2024-11-08T21:00:00	3	Temperatura mínima	12.6
92960	7	Sololá	701	Sololá	4	Finca Santa Victoria	3	Marzo	2023-02-03T00:00:00	2024-11-08T21:00:00	5	Humedad	95
92961	7	Sololá	701	Sololá	4	Finca Santa Victoria	3	Marzo	2023-02-03T00:00:00	2024-11-08T21:00:00	6	Velocidad del viento	1.6
92962	7	Sololá	701	Sololá	4	Finca Santa Victoria	3	Marzo	2023-02-03T00:00:00	2024-11-08T21:00:00	7	Dirección del viento	1.61
92963	7	Sololá	701	Sololá	4	Finca Santa Victoria	3	Marzo	2023-02-03T00:00:00	2024-11-08T21:00:00	1	Precipitación	0
92964	7	Sololá	701	Sololá	4	Finca Santa Victoria	3	Marzo	2023-02-03T00:00:00	2024-11-08T21:00:00	8	Radiación solar	0
92965	7	Sololá	701	Sololá	4	Finca Santa Victoria	3	Marzo	2023-02-03T00:00:00	2024-11-08T22:00:00	2	Temperatura media	11.8
92966	7	Sololá	701	Sololá	4	Finca Santa Victoria	3	Marzo	2023-02-03T00:00:00	2024-11-08T22:00:00	4	Temperatura máxima	12.7
92967	7	Sololá	701	Sololá	4	Finca Santa Victoria	3	Marzo	2023-02-03T00:00:00	2024-11-08T22:00:00	3	Temperatura mínima	11.7
92968	7	Sololá	701	Sololá	4	Finca Santa Victoria	3	Marzo	2023-02-03T00:00:00	2024-11-08T22:00:00	5	Humedad	94
92969	7	Sololá	701	Sololá	4	Finca Santa Victoria	3	Marzo	2023-02-03T00:00:00	2024-11-08T22:00:00	6	Velocidad del viento	0
92970	7	Sololá	701	Sololá	4	Finca Santa Victoria	3	Marzo	2023-02-03T00:00:00	2024-11-08T22:00:00	7	Dirección del viento	0
92971	7	Sololá	701	Sololá	4	Finca Santa Victoria	3	Marzo	2023-02-03T00:00:00	2024-11-08T22:00:00	1	Precipitación	0
92972	7	Sololá	701	Sololá	4	Finca Santa Victoria	3	Marzo	2023-02-03T00:00:00	2024-11-08T22:00:00	8	Radiación solar	0
92973	7	Sololá	701	Sololá	4	Finca Santa Victoria	3	Marzo	2023-02-03T00:00:00	2024-11-08T23:00:00	2	Temperatura media	10.7
92974	7	Sololá	701	Sololá	4	Finca Santa Victoria	3	Marzo	2023-02-03T00:00:00	2024-11-08T23:00:00	4	Temperatura máxima	11.8
92975	7	Sololá	701	Sololá	4	Finca Santa Victoria	3	Marzo	2023-02-03T00:00:00	2024-11-08T23:00:00	3	Temperatura mínima	10.7
92976	7	Sololá	701	Sololá	4	Finca Santa Victoria	3	Marzo	2023-02-03T00:00:00	2024-11-08T23:00:00	5	Humedad	95
92977	7	Sololá	701	Sololá	4	Finca Santa Victoria	3	Marzo	2023-02-03T00:00:00	2024-11-08T23:00:00	6	Velocidad del viento	1.6
92978	7	Sololá	701	Sololá	4	Finca Santa Victoria	3	Marzo	2023-02-03T00:00:00	2024-11-08T23:00:00	7	Dirección del viento	1.61
92979	7	Sololá	701	Sololá	4	Finca Santa Victoria	3	Marzo	2023-02-03T00:00:00	2024-11-08T23:00:00	1	Precipitación	0
92980	7	Sololá	701	Sololá	4	Finca Santa Victoria	3	Marzo	2023-02-03T00:00:00	2024-11-08T23:00:00	8	Radiación solar	0
92981	7	Sololá	701	Sololá	4	Finca Santa Victoria	3	Marzo	2023-03-03T00:00:00	2024-11-08T00:00:00	2	Temperatura media	11.6
92982	7	Sololá	701	Sololá	4	Finca Santa Victoria	3	Marzo	2023-03-03T00:00:00	2024-11-08T00:00:00	4	Temperatura máxima	11.7
92983	7	Sololá	701	Sololá	4	Finca Santa Victoria	3	Marzo	2023-03-03T00:00:00	2024-11-08T00:00:00	3	Temperatura mínima	10.6
92984	7	Sololá	701	Sololá	4	Finca Santa Victoria	3	Marzo	2023-03-03T00:00:00	2024-11-08T00:00:00	5	Humedad	61
92985	7	Sololá	701	Sololá	4	Finca Santa Victoria	3	Marzo	2023-03-03T00:00:00	2024-11-08T00:00:00	6	Velocidad del viento	1.6
92986	7	Sololá	701	Sololá	4	Finca Santa Victoria	3	Marzo	2023-03-03T00:00:00	2024-11-08T00:00:00	7	Dirección del viento	1.61
92987	7	Sololá	701	Sololá	4	Finca Santa Victoria	3	Marzo	2023-03-03T00:00:00	2024-11-08T00:00:00	1	Precipitación	0
92988	7	Sololá	701	Sololá	4	Finca Santa Victoria	3	Marzo	2023-03-03T00:00:00	2024-11-08T00:00:00	8	Radiación solar	0
92989	7	Sololá	701	Sololá	4	Finca Santa Victoria	3	Marzo	2023-03-03T00:00:00	2024-11-08T01:00:00	2	Temperatura media	13.1
92990	7	Sololá	701	Sololá	4	Finca Santa Victoria	3	Marzo	2023-03-03T00:00:00	2024-11-08T01:00:00	4	Temperatura máxima	13.1
92991	7	Sololá	701	Sololá	4	Finca Santa Victoria	3	Marzo	2023-03-03T00:00:00	2024-11-08T01:00:00	3	Temperatura mínima	11.6
92992	7	Sololá	701	Sololá	4	Finca Santa Victoria	3	Marzo	2023-03-03T00:00:00	2024-11-08T01:00:00	5	Humedad	38
92993	7	Sololá	701	Sololá	4	Finca Santa Victoria	3	Marzo	2023-03-03T00:00:00	2024-11-08T01:00:00	6	Velocidad del viento	1.6
92994	7	Sololá	701	Sololá	4	Finca Santa Victoria	3	Marzo	2023-03-03T00:00:00	2024-11-08T01:00:00	7	Dirección del viento	1.61
92995	7	Sololá	701	Sololá	4	Finca Santa Victoria	3	Marzo	2023-03-03T00:00:00	2024-11-08T01:00:00	1	Precipitación	0
92996	7	Sololá	701	Sololá	4	Finca Santa Victoria	3	Marzo	2023-03-03T00:00:00	2024-11-08T01:00:00	8	Radiación solar	0
92997	7	Sololá	701	Sololá	4	Finca Santa Victoria	3	Marzo	2023-03-03T00:00:00	2024-11-08T02:00:00	2	Temperatura media	13.2
92998	7	Sololá	701	Sololá	4	Finca Santa Victoria	3	Marzo	2023-03-03T00:00:00	2024-11-08T02:00:00	4	Temperatura máxima	13.3
92999	7	Sololá	701	Sololá	4	Finca Santa Victoria	3	Marzo	2023-03-03T00:00:00	2024-11-08T02:00:00	3	Temperatura mínima	13
93000	7	Sololá	701	Sololá	4	Finca Santa Victoria	3	Marzo	2023-03-03T00:00:00	2024-11-08T02:00:00	5	Humedad	39
93001	7	Sololá	701	Sololá	4	Finca Santa Victoria	3	Marzo	2023-03-03T00:00:00	2024-11-08T02:00:00	6	Velocidad del viento	1.6
93002	7	Sololá	701	Sololá	4	Finca Santa Victoria	3	Marzo	2023-03-03T00:00:00	2024-11-08T02:00:00	7	Dirección del viento	1.61
93003	7	Sololá	701	Sololá	4	Finca Santa Victoria	3	Marzo	2023-03-03T00:00:00	2024-11-08T02:00:00	1	Precipitación	0
93004	7	Sololá	701	Sololá	4	Finca Santa Victoria	3	Marzo	2023-03-03T00:00:00	2024-11-08T02:00:00	8	Radiación solar	0
93005	7	Sololá	701	Sololá	4	Finca Santa Victoria	3	Marzo	2023-03-03T00:00:00	2024-11-08T03:00:00	2	Temperatura media	13.5
93006	7	Sololá	701	Sololá	4	Finca Santa Victoria	3	Marzo	2023-03-03T00:00:00	2024-11-08T03:00:00	4	Temperatura máxima	13.6
93007	7	Sololá	701	Sololá	4	Finca Santa Victoria	3	Marzo	2023-03-03T00:00:00	2024-11-08T03:00:00	3	Temperatura mínima	13.1
93008	7	Sololá	701	Sololá	4	Finca Santa Victoria	3	Marzo	2023-03-03T00:00:00	2024-11-08T03:00:00	5	Humedad	41
93009	7	Sololá	701	Sololá	4	Finca Santa Victoria	3	Marzo	2023-03-03T00:00:00	2024-11-08T03:00:00	6	Velocidad del viento	1.6
93010	7	Sololá	701	Sololá	4	Finca Santa Victoria	3	Marzo	2023-03-03T00:00:00	2024-11-08T03:00:00	7	Dirección del viento	1.61
93011	7	Sololá	701	Sololá	4	Finca Santa Victoria	3	Marzo	2023-03-03T00:00:00	2024-11-08T03:00:00	1	Precipitación	0
93012	7	Sololá	701	Sololá	4	Finca Santa Victoria	3	Marzo	2023-03-03T00:00:00	2024-11-08T03:00:00	8	Radiación solar	0
93013	7	Sololá	701	Sololá	4	Finca Santa Victoria	3	Marzo	2023-03-03T00:00:00	2024-11-08T04:00:00	2	Temperatura media	12.7
93014	7	Sololá	701	Sololá	4	Finca Santa Victoria	3	Marzo	2023-03-03T00:00:00	2024-11-08T04:00:00	4	Temperatura máxima	13.6
93015	7	Sololá	701	Sololá	4	Finca Santa Victoria	3	Marzo	2023-03-03T00:00:00	2024-11-08T04:00:00	3	Temperatura mínima	12.7
93016	7	Sololá	701	Sololá	4	Finca Santa Victoria	3	Marzo	2023-03-03T00:00:00	2024-11-08T04:00:00	5	Humedad	43
93017	7	Sololá	701	Sololá	4	Finca Santa Victoria	3	Marzo	2023-03-03T00:00:00	2024-11-08T04:00:00	6	Velocidad del viento	0
93018	7	Sololá	701	Sololá	4	Finca Santa Victoria	3	Marzo	2023-03-03T00:00:00	2024-11-08T04:00:00	7	Dirección del viento	0
93019	7	Sololá	701	Sololá	4	Finca Santa Victoria	3	Marzo	2023-03-03T00:00:00	2024-11-08T04:00:00	1	Precipitación	0
93020	7	Sololá	701	Sololá	4	Finca Santa Victoria	3	Marzo	2023-03-03T00:00:00	2024-11-08T04:00:00	8	Radiación solar	0
93021	7	Sololá	701	Sololá	4	Finca Santa Victoria	3	Marzo	2023-03-03T00:00:00	2024-11-08T05:00:00	2	Temperatura media	12.6
93022	7	Sololá	701	Sololá	4	Finca Santa Victoria	3	Marzo	2023-03-03T00:00:00	2024-11-08T05:00:00	4	Temperatura máxima	12.8
93023	7	Sololá	701	Sololá	4	Finca Santa Victoria	3	Marzo	2023-03-03T00:00:00	2024-11-08T05:00:00	3	Temperatura mínima	12.5
93024	7	Sololá	701	Sololá	4	Finca Santa Victoria	3	Marzo	2023-03-03T00:00:00	2024-11-08T05:00:00	5	Humedad	43
93025	7	Sololá	701	Sololá	4	Finca Santa Victoria	3	Marzo	2023-03-03T00:00:00	2024-11-08T05:00:00	6	Velocidad del viento	0
93026	7	Sololá	701	Sololá	4	Finca Santa Victoria	3	Marzo	2023-03-03T00:00:00	2024-11-08T05:00:00	7	Dirección del viento	0
93027	7	Sololá	701	Sololá	4	Finca Santa Victoria	3	Marzo	2023-03-03T00:00:00	2024-11-08T05:00:00	1	Precipitación	0
93028	7	Sololá	701	Sololá	4	Finca Santa Victoria	3	Marzo	2023-03-03T00:00:00	2024-11-08T05:00:00	8	Radiación solar	0
93029	7	Sololá	701	Sololá	4	Finca Santa Victoria	3	Marzo	2023-03-03T00:00:00	2024-11-08T06:00:00	2	Temperatura media	12.6
93030	7	Sololá	701	Sololá	4	Finca Santa Victoria	3	Marzo	2023-03-03T00:00:00	2024-11-08T06:00:00	4	Temperatura máxima	12.7
93031	7	Sololá	701	Sololá	4	Finca Santa Victoria	3	Marzo	2023-03-03T00:00:00	2024-11-08T06:00:00	3	Temperatura mínima	12.5
93032	7	Sololá	701	Sololá	4	Finca Santa Victoria	3	Marzo	2023-03-03T00:00:00	2024-11-08T06:00:00	5	Humedad	38
93033	7	Sololá	701	Sololá	4	Finca Santa Victoria	3	Marzo	2023-03-03T00:00:00	2024-11-08T06:00:00	6	Velocidad del viento	0
93034	7	Sololá	701	Sololá	4	Finca Santa Victoria	3	Marzo	2023-03-03T00:00:00	2024-11-08T06:00:00	7	Dirección del viento	0
93035	7	Sololá	701	Sololá	4	Finca Santa Victoria	3	Marzo	2023-03-03T00:00:00	2024-11-08T06:00:00	1	Precipitación	0
93036	7	Sololá	701	Sololá	4	Finca Santa Victoria	3	Marzo	2023-03-03T00:00:00	2024-11-08T06:00:00	8	Radiación solar	0
93037	7	Sololá	701	Sololá	4	Finca Santa Victoria	3	Marzo	2023-03-03T00:00:00	2024-11-08T07:00:00	2	Temperatura media	12.9
93038	7	Sololá	701	Sololá	4	Finca Santa Victoria	3	Marzo	2023-03-03T00:00:00	2024-11-08T07:00:00	4	Temperatura máxima	13.2
93039	7	Sololá	701	Sololá	4	Finca Santa Victoria	3	Marzo	2023-03-03T00:00:00	2024-11-08T07:00:00	3	Temperatura mínima	12.6
93040	7	Sololá	701	Sololá	4	Finca Santa Victoria	3	Marzo	2023-03-03T00:00:00	2024-11-08T07:00:00	5	Humedad	40
93041	7	Sololá	701	Sololá	4	Finca Santa Victoria	3	Marzo	2023-03-03T00:00:00	2024-11-08T07:00:00	6	Velocidad del viento	0
93042	7	Sololá	701	Sololá	4	Finca Santa Victoria	3	Marzo	2023-03-03T00:00:00	2024-11-08T07:00:00	7	Dirección del viento	0
93043	7	Sololá	701	Sololá	4	Finca Santa Victoria	3	Marzo	2023-03-03T00:00:00	2024-11-08T07:00:00	1	Precipitación	0
93044	7	Sololá	701	Sololá	4	Finca Santa Victoria	3	Marzo	2023-03-03T00:00:00	2024-11-08T07:00:00	8	Radiación solar	6
93045	7	Sololá	701	Sololá	4	Finca Santa Victoria	3	Marzo	2023-03-03T00:00:00	2024-11-08T08:00:00	2	Temperatura media	15.9
93046	7	Sololá	701	Sololá	4	Finca Santa Victoria	3	Marzo	2023-03-03T00:00:00	2024-11-08T08:00:00	4	Temperatura máxima	15.9
93047	7	Sololá	701	Sololá	4	Finca Santa Victoria	3	Marzo	2023-03-03T00:00:00	2024-11-08T08:00:00	3	Temperatura mínima	13
93048	7	Sololá	701	Sololá	4	Finca Santa Victoria	3	Marzo	2023-03-03T00:00:00	2024-11-08T08:00:00	5	Humedad	35
93049	7	Sololá	701	Sololá	4	Finca Santa Victoria	3	Marzo	2023-03-03T00:00:00	2024-11-08T08:00:00	6	Velocidad del viento	1.6
93050	7	Sololá	701	Sololá	4	Finca Santa Victoria	3	Marzo	2023-03-03T00:00:00	2024-11-08T08:00:00	7	Dirección del viento	1.61
93051	7	Sololá	701	Sololá	4	Finca Santa Victoria	3	Marzo	2023-03-03T00:00:00	2024-11-08T08:00:00	1	Precipitación	0
93052	7	Sololá	701	Sololá	4	Finca Santa Victoria	3	Marzo	2023-03-03T00:00:00	2024-11-08T08:00:00	8	Radiación solar	107
93053	7	Sololá	701	Sololá	4	Finca Santa Victoria	3	Marzo	2023-03-03T00:00:00	2024-11-08T09:00:00	2	Temperatura media	17.7
93054	7	Sololá	701	Sololá	4	Finca Santa Victoria	3	Marzo	2023-03-03T00:00:00	2024-11-08T09:00:00	4	Temperatura máxima	17.7
93055	7	Sololá	701	Sololá	4	Finca Santa Victoria	3	Marzo	2023-03-03T00:00:00	2024-11-08T09:00:00	3	Temperatura mínima	15.9
93056	7	Sololá	701	Sololá	4	Finca Santa Victoria	3	Marzo	2023-03-03T00:00:00	2024-11-08T09:00:00	5	Humedad	35
93057	7	Sololá	701	Sololá	4	Finca Santa Victoria	3	Marzo	2023-03-03T00:00:00	2024-11-08T09:00:00	6	Velocidad del viento	3.2
93058	7	Sololá	701	Sololá	4	Finca Santa Victoria	3	Marzo	2023-03-03T00:00:00	2024-11-08T09:00:00	7	Dirección del viento	3.22
93059	7	Sololá	701	Sololá	4	Finca Santa Victoria	3	Marzo	2023-03-03T00:00:00	2024-11-08T09:00:00	1	Precipitación	0
93060	7	Sololá	701	Sololá	4	Finca Santa Victoria	3	Marzo	2023-03-03T00:00:00	2024-11-08T09:00:00	8	Radiación solar	380
93061	7	Sololá	701	Sololá	4	Finca Santa Victoria	3	Marzo	2023-03-03T00:00:00	2024-11-08T10:00:00	2	Temperatura media	19.4
93062	7	Sololá	701	Sololá	4	Finca Santa Victoria	3	Marzo	2023-03-03T00:00:00	2024-11-08T10:00:00	4	Temperatura máxima	19.4
93063	7	Sololá	701	Sololá	4	Finca Santa Victoria	3	Marzo	2023-03-03T00:00:00	2024-11-08T10:00:00	3	Temperatura mínima	17.7
93064	7	Sololá	701	Sololá	4	Finca Santa Victoria	3	Marzo	2023-03-03T00:00:00	2024-11-08T10:00:00	5	Humedad	35
93065	7	Sololá	701	Sololá	4	Finca Santa Victoria	3	Marzo	2023-03-03T00:00:00	2024-11-08T10:00:00	6	Velocidad del viento	4.8
93066	7	Sololá	701	Sololá	4	Finca Santa Victoria	3	Marzo	2023-03-03T00:00:00	2024-11-08T10:00:00	7	Dirección del viento	4.83
93067	7	Sololá	701	Sololá	4	Finca Santa Victoria	3	Marzo	2023-03-03T00:00:00	2024-11-08T10:00:00	1	Precipitación	0
93068	7	Sololá	701	Sololá	4	Finca Santa Victoria	3	Marzo	2023-03-03T00:00:00	2024-11-08T10:00:00	8	Radiación solar	732
93069	7	Sololá	701	Sololá	4	Finca Santa Victoria	3	Marzo	2023-03-03T00:00:00	2024-11-08T11:00:00	2	Temperatura media	19.7
93070	7	Sololá	701	Sololá	4	Finca Santa Victoria	3	Marzo	2023-03-03T00:00:00	2024-11-08T11:00:00	4	Temperatura máxima	20.1
93071	7	Sololá	701	Sololá	4	Finca Santa Victoria	3	Marzo	2023-03-03T00:00:00	2024-11-08T11:00:00	3	Temperatura mínima	19.3
93072	7	Sololá	701	Sololá	4	Finca Santa Victoria	3	Marzo	2023-03-03T00:00:00	2024-11-08T11:00:00	5	Humedad	39
93073	7	Sololá	701	Sololá	4	Finca Santa Victoria	3	Marzo	2023-03-03T00:00:00	2024-11-08T11:00:00	6	Velocidad del viento	4.8
93074	7	Sololá	701	Sololá	4	Finca Santa Victoria	3	Marzo	2023-03-03T00:00:00	2024-11-08T11:00:00	7	Dirección del viento	4.83
93075	7	Sololá	701	Sololá	4	Finca Santa Victoria	3	Marzo	2023-03-03T00:00:00	2024-11-08T11:00:00	1	Precipitación	0
93076	7	Sololá	701	Sololá	4	Finca Santa Victoria	3	Marzo	2023-03-03T00:00:00	2024-11-08T11:00:00	8	Radiación solar	889
93077	7	Sololá	701	Sololá	4	Finca Santa Victoria	3	Marzo	2023-03-03T00:00:00	2024-11-08T12:00:00	2	Temperatura media	19.8
93078	7	Sololá	701	Sololá	4	Finca Santa Victoria	3	Marzo	2023-03-03T00:00:00	2024-11-08T12:00:00	4	Temperatura máxima	20.6
93079	7	Sololá	701	Sololá	4	Finca Santa Victoria	3	Marzo	2023-03-03T00:00:00	2024-11-08T12:00:00	3	Temperatura mínima	19.7
93080	7	Sololá	701	Sololá	4	Finca Santa Victoria	3	Marzo	2023-03-03T00:00:00	2024-11-08T12:00:00	5	Humedad	45
93081	7	Sololá	701	Sololá	4	Finca Santa Victoria	3	Marzo	2023-03-03T00:00:00	2024-11-08T12:00:00	6	Velocidad del viento	6.4
93082	7	Sololá	701	Sololá	4	Finca Santa Victoria	3	Marzo	2023-03-03T00:00:00	2024-11-08T12:00:00	7	Dirección del viento	6.44
93083	7	Sololá	701	Sololá	4	Finca Santa Victoria	3	Marzo	2023-03-03T00:00:00	2024-11-08T12:00:00	1	Precipitación	0
93084	7	Sololá	701	Sololá	4	Finca Santa Victoria	3	Marzo	2023-03-03T00:00:00	2024-11-08T12:00:00	8	Radiación solar	977
93085	7	Sololá	701	Sololá	4	Finca Santa Victoria	3	Marzo	2023-03-03T00:00:00	2024-11-08T13:00:00	2	Temperatura media	19.6
93086	7	Sololá	701	Sololá	4	Finca Santa Victoria	3	Marzo	2023-03-03T00:00:00	2024-11-08T13:00:00	4	Temperatura máxima	20.2
93087	7	Sololá	701	Sololá	4	Finca Santa Victoria	3	Marzo	2023-03-03T00:00:00	2024-11-08T13:00:00	3	Temperatura mínima	19.4
93088	7	Sololá	701	Sololá	4	Finca Santa Victoria	3	Marzo	2023-03-03T00:00:00	2024-11-08T13:00:00	5	Humedad	55
93089	7	Sololá	701	Sololá	4	Finca Santa Victoria	3	Marzo	2023-03-03T00:00:00	2024-11-08T13:00:00	6	Velocidad del viento	6.4
93090	7	Sololá	701	Sololá	4	Finca Santa Victoria	3	Marzo	2023-03-03T00:00:00	2024-11-08T13:00:00	7	Dirección del viento	6.44
93091	7	Sololá	701	Sololá	4	Finca Santa Victoria	3	Marzo	2023-03-03T00:00:00	2024-11-08T13:00:00	1	Precipitación	0
93092	7	Sololá	701	Sololá	4	Finca Santa Victoria	3	Marzo	2023-03-03T00:00:00	2024-11-08T13:00:00	8	Radiación solar	975
93093	7	Sololá	701	Sololá	4	Finca Santa Victoria	3	Marzo	2023-03-03T00:00:00	2024-11-08T14:00:00	2	Temperatura media	19.7
93094	7	Sololá	701	Sololá	4	Finca Santa Victoria	3	Marzo	2023-03-03T00:00:00	2024-11-08T14:00:00	4	Temperatura máxima	20.1
93095	7	Sololá	701	Sololá	4	Finca Santa Victoria	3	Marzo	2023-03-03T00:00:00	2024-11-08T14:00:00	3	Temperatura mínima	19.4
93096	7	Sololá	701	Sololá	4	Finca Santa Victoria	3	Marzo	2023-03-03T00:00:00	2024-11-08T14:00:00	5	Humedad	61
93097	7	Sololá	701	Sololá	4	Finca Santa Victoria	3	Marzo	2023-03-03T00:00:00	2024-11-08T14:00:00	6	Velocidad del viento	4.8
93098	7	Sololá	701	Sololá	4	Finca Santa Victoria	3	Marzo	2023-03-03T00:00:00	2024-11-08T14:00:00	7	Dirección del viento	4.83
93099	7	Sololá	701	Sololá	4	Finca Santa Victoria	3	Marzo	2023-03-03T00:00:00	2024-11-08T14:00:00	1	Precipitación	0
93100	7	Sololá	701	Sololá	4	Finca Santa Victoria	3	Marzo	2023-03-03T00:00:00	2024-11-08T14:00:00	8	Radiación solar	716
93101	7	Sololá	701	Sololá	4	Finca Santa Victoria	3	Marzo	2023-03-03T00:00:00	2024-11-08T15:00:00	2	Temperatura media	18.3
93102	7	Sololá	701	Sololá	4	Finca Santa Victoria	3	Marzo	2023-03-03T00:00:00	2024-11-08T15:00:00	4	Temperatura máxima	19.8
93103	7	Sololá	701	Sololá	4	Finca Santa Victoria	3	Marzo	2023-03-03T00:00:00	2024-11-08T15:00:00	3	Temperatura mínima	18.3
93104	7	Sololá	701	Sololá	4	Finca Santa Victoria	3	Marzo	2023-03-03T00:00:00	2024-11-08T15:00:00	5	Humedad	72
93105	7	Sololá	701	Sololá	4	Finca Santa Victoria	3	Marzo	2023-03-03T00:00:00	2024-11-08T15:00:00	6	Velocidad del viento	4.8
93106	7	Sololá	701	Sololá	4	Finca Santa Victoria	3	Marzo	2023-03-03T00:00:00	2024-11-08T15:00:00	7	Dirección del viento	4.83
93107	7	Sololá	701	Sololá	4	Finca Santa Victoria	3	Marzo	2023-03-03T00:00:00	2024-11-08T15:00:00	1	Precipitación	0
93108	7	Sololá	701	Sololá	4	Finca Santa Victoria	3	Marzo	2023-03-03T00:00:00	2024-11-08T15:00:00	8	Radiación solar	471
93109	7	Sololá	701	Sololá	4	Finca Santa Victoria	3	Marzo	2023-03-03T00:00:00	2024-11-08T16:00:00	2	Temperatura media	16.5
93110	7	Sololá	701	Sololá	4	Finca Santa Victoria	3	Marzo	2023-03-03T00:00:00	2024-11-08T16:00:00	4	Temperatura máxima	18.3
93111	7	Sololá	701	Sololá	4	Finca Santa Victoria	3	Marzo	2023-03-03T00:00:00	2024-11-08T16:00:00	3	Temperatura mínima	16.3
93112	7	Sololá	701	Sololá	4	Finca Santa Victoria	3	Marzo	2023-03-03T00:00:00	2024-11-08T16:00:00	5	Humedad	80
93113	7	Sololá	701	Sololá	4	Finca Santa Victoria	3	Marzo	2023-03-03T00:00:00	2024-11-08T16:00:00	6	Velocidad del viento	4.8
93114	7	Sololá	701	Sololá	4	Finca Santa Victoria	3	Marzo	2023-03-03T00:00:00	2024-11-08T16:00:00	7	Dirección del viento	4.83
93115	7	Sololá	701	Sololá	4	Finca Santa Victoria	3	Marzo	2023-03-03T00:00:00	2024-11-08T16:00:00	1	Precipitación	0
93116	7	Sololá	701	Sololá	4	Finca Santa Victoria	3	Marzo	2023-03-03T00:00:00	2024-11-08T16:00:00	8	Radiación solar	203
93117	7	Sololá	701	Sololá	4	Finca Santa Victoria	3	Marzo	2023-03-03T00:00:00	2024-11-08T17:00:00	2	Temperatura media	15.9
93118	7	Sololá	701	Sololá	4	Finca Santa Victoria	3	Marzo	2023-03-03T00:00:00	2024-11-08T17:00:00	4	Temperatura máxima	17.1
93119	7	Sololá	701	Sololá	4	Finca Santa Victoria	3	Marzo	2023-03-03T00:00:00	2024-11-08T17:00:00	3	Temperatura mínima	15.9
93120	7	Sololá	701	Sololá	4	Finca Santa Victoria	3	Marzo	2023-03-03T00:00:00	2024-11-08T17:00:00	5	Humedad	81
93121	7	Sololá	701	Sololá	4	Finca Santa Victoria	3	Marzo	2023-03-03T00:00:00	2024-11-08T17:00:00	6	Velocidad del viento	3.2
93122	7	Sololá	701	Sololá	4	Finca Santa Victoria	3	Marzo	2023-03-03T00:00:00	2024-11-08T17:00:00	7	Dirección del viento	3.22
93123	7	Sololá	701	Sololá	4	Finca Santa Victoria	3	Marzo	2023-03-03T00:00:00	2024-11-08T17:00:00	1	Precipitación	0
93124	7	Sololá	701	Sololá	4	Finca Santa Victoria	3	Marzo	2023-03-03T00:00:00	2024-11-08T17:00:00	8	Radiación solar	159
93125	7	Sololá	701	Sololá	4	Finca Santa Victoria	3	Marzo	2023-03-03T00:00:00	2024-11-08T18:00:00	2	Temperatura media	14.6
93126	7	Sololá	701	Sololá	4	Finca Santa Victoria	3	Marzo	2023-03-03T00:00:00	2024-11-08T18:00:00	4	Temperatura máxima	15.9
93127	7	Sololá	701	Sololá	4	Finca Santa Victoria	3	Marzo	2023-03-03T00:00:00	2024-11-08T18:00:00	3	Temperatura mínima	14.6
93128	7	Sololá	701	Sololá	4	Finca Santa Victoria	3	Marzo	2023-03-03T00:00:00	2024-11-08T18:00:00	5	Humedad	88
93129	7	Sololá	701	Sololá	4	Finca Santa Victoria	3	Marzo	2023-03-03T00:00:00	2024-11-08T18:00:00	6	Velocidad del viento	1.6
93130	7	Sololá	701	Sololá	4	Finca Santa Victoria	3	Marzo	2023-03-03T00:00:00	2024-11-08T18:00:00	7	Dirección del viento	1.61
93131	7	Sololá	701	Sololá	4	Finca Santa Victoria	3	Marzo	2023-03-03T00:00:00	2024-11-08T18:00:00	1	Precipitación	0
93132	7	Sololá	701	Sololá	4	Finca Santa Victoria	3	Marzo	2023-03-03T00:00:00	2024-11-08T18:00:00	8	Radiación solar	39
93133	7	Sololá	701	Sololá	4	Finca Santa Victoria	3	Marzo	2023-03-03T00:00:00	2024-11-08T19:00:00	2	Temperatura media	13.7
93134	7	Sololá	701	Sololá	4	Finca Santa Victoria	3	Marzo	2023-03-03T00:00:00	2024-11-08T19:00:00	4	Temperatura máxima	14.6
93135	7	Sololá	701	Sololá	4	Finca Santa Victoria	3	Marzo	2023-03-03T00:00:00	2024-11-08T19:00:00	3	Temperatura mínima	13.7
93136	7	Sololá	701	Sololá	4	Finca Santa Victoria	3	Marzo	2023-03-03T00:00:00	2024-11-08T19:00:00	5	Humedad	93
93137	7	Sololá	701	Sololá	4	Finca Santa Victoria	3	Marzo	2023-03-03T00:00:00	2024-11-08T19:00:00	6	Velocidad del viento	0
93138	7	Sololá	701	Sololá	4	Finca Santa Victoria	3	Marzo	2023-03-03T00:00:00	2024-11-08T19:00:00	7	Dirección del viento	0
93139	7	Sololá	701	Sololá	4	Finca Santa Victoria	3	Marzo	2023-03-03T00:00:00	2024-11-08T19:00:00	1	Precipitación	0
93140	7	Sololá	701	Sololá	4	Finca Santa Victoria	3	Marzo	2023-03-03T00:00:00	2024-11-08T19:00:00	8	Radiación solar	0
93141	7	Sololá	701	Sololá	4	Finca Santa Victoria	3	Marzo	2023-03-03T00:00:00	2024-11-08T20:00:00	2	Temperatura media	12.9
93142	7	Sololá	701	Sololá	4	Finca Santa Victoria	3	Marzo	2023-03-03T00:00:00	2024-11-08T20:00:00	4	Temperatura máxima	13.7
93143	7	Sololá	701	Sololá	4	Finca Santa Victoria	3	Marzo	2023-03-03T00:00:00	2024-11-08T20:00:00	3	Temperatura mínima	12.9
93144	7	Sololá	701	Sololá	4	Finca Santa Victoria	3	Marzo	2023-03-03T00:00:00	2024-11-08T20:00:00	5	Humedad	95
93145	7	Sololá	701	Sololá	4	Finca Santa Victoria	3	Marzo	2023-03-03T00:00:00	2024-11-08T20:00:00	6	Velocidad del viento	0
93146	7	Sololá	701	Sololá	4	Finca Santa Victoria	3	Marzo	2023-03-03T00:00:00	2024-11-08T20:00:00	7	Dirección del viento	0
93147	7	Sololá	701	Sololá	4	Finca Santa Victoria	3	Marzo	2023-03-03T00:00:00	2024-11-08T20:00:00	1	Precipitación	0
93148	7	Sololá	701	Sololá	4	Finca Santa Victoria	3	Marzo	2023-03-03T00:00:00	2024-11-08T20:00:00	8	Radiación solar	0
93149	7	Sololá	701	Sololá	4	Finca Santa Victoria	3	Marzo	2023-03-03T00:00:00	2024-11-08T21:00:00	2	Temperatura media	12.7
93150	7	Sololá	701	Sololá	4	Finca Santa Victoria	3	Marzo	2023-03-03T00:00:00	2024-11-08T21:00:00	4	Temperatura máxima	12.9
93151	7	Sololá	701	Sololá	4	Finca Santa Victoria	3	Marzo	2023-03-03T00:00:00	2024-11-08T21:00:00	3	Temperatura mínima	12.7
93152	7	Sololá	701	Sololá	4	Finca Santa Victoria	3	Marzo	2023-03-03T00:00:00	2024-11-08T21:00:00	5	Humedad	96
93153	7	Sololá	701	Sololá	4	Finca Santa Victoria	3	Marzo	2023-03-03T00:00:00	2024-11-08T21:00:00	6	Velocidad del viento	0
93154	7	Sololá	701	Sololá	4	Finca Santa Victoria	3	Marzo	2023-03-03T00:00:00	2024-11-08T21:00:00	7	Dirección del viento	0
93155	7	Sololá	701	Sololá	4	Finca Santa Victoria	3	Marzo	2023-03-03T00:00:00	2024-11-08T21:00:00	1	Precipitación	0
93156	7	Sololá	701	Sololá	4	Finca Santa Victoria	3	Marzo	2023-03-03T00:00:00	2024-11-08T21:00:00	8	Radiación solar	0
93157	7	Sololá	701	Sololá	4	Finca Santa Victoria	3	Marzo	2023-03-03T00:00:00	2024-11-08T22:00:00	2	Temperatura media	12.9
93158	7	Sololá	701	Sololá	4	Finca Santa Victoria	3	Marzo	2023-03-03T00:00:00	2024-11-08T22:00:00	4	Temperatura máxima	12.9
93159	7	Sololá	701	Sololá	4	Finca Santa Victoria	3	Marzo	2023-03-03T00:00:00	2024-11-08T22:00:00	3	Temperatura mínima	12.4
93160	7	Sololá	701	Sololá	4	Finca Santa Victoria	3	Marzo	2023-03-03T00:00:00	2024-11-08T22:00:00	5	Humedad	97
93161	7	Sololá	701	Sololá	4	Finca Santa Victoria	3	Marzo	2023-03-03T00:00:00	2024-11-08T22:00:00	6	Velocidad del viento	0
93162	7	Sololá	701	Sololá	4	Finca Santa Victoria	3	Marzo	2023-03-03T00:00:00	2024-11-08T22:00:00	7	Dirección del viento	0
93163	7	Sololá	701	Sololá	4	Finca Santa Victoria	3	Marzo	2023-03-03T00:00:00	2024-11-08T22:00:00	1	Precipitación	0
93164	7	Sololá	701	Sololá	4	Finca Santa Victoria	3	Marzo	2023-03-03T00:00:00	2024-11-08T22:00:00	8	Radiación solar	0
93165	7	Sololá	701	Sololá	4	Finca Santa Victoria	3	Marzo	2023-03-03T00:00:00	2024-11-08T23:00:00	2	Temperatura media	12.8
93166	7	Sololá	701	Sololá	4	Finca Santa Victoria	3	Marzo	2023-03-03T00:00:00	2024-11-08T23:00:00	4	Temperatura máxima	13
93167	7	Sololá	701	Sololá	4	Finca Santa Victoria	3	Marzo	2023-03-03T00:00:00	2024-11-08T23:00:00	3	Temperatura mínima	12.8
93168	7	Sololá	701	Sololá	4	Finca Santa Victoria	3	Marzo	2023-03-03T00:00:00	2024-11-08T23:00:00	5	Humedad	97
93169	7	Sololá	701	Sololá	4	Finca Santa Victoria	3	Marzo	2023-03-03T00:00:00	2024-11-08T23:00:00	6	Velocidad del viento	1.6
93170	7	Sololá	701	Sololá	4	Finca Santa Victoria	3	Marzo	2023-03-03T00:00:00	2024-11-08T23:00:00	7	Dirección del viento	1.61
93171	7	Sololá	701	Sololá	4	Finca Santa Victoria	3	Marzo	2023-03-03T00:00:00	2024-11-08T23:00:00	1	Precipitación	0
93172	7	Sololá	701	Sololá	4	Finca Santa Victoria	3	Marzo	2023-03-03T00:00:00	2024-11-08T23:00:00	8	Radiación solar	0
93173	7	Sololá	701	Sololá	4	Finca Santa Victoria	3	Marzo	2023-04-03T00:00:00	2024-11-08T00:00:00	2	Temperatura media	12
93174	7	Sololá	701	Sololá	4	Finca Santa Victoria	3	Marzo	2023-04-03T00:00:00	2024-11-08T00:00:00	4	Temperatura máxima	12.9
93175	7	Sololá	701	Sololá	4	Finca Santa Victoria	3	Marzo	2023-04-03T00:00:00	2024-11-08T00:00:00	3	Temperatura mínima	12
93176	7	Sololá	701	Sololá	4	Finca Santa Victoria	3	Marzo	2023-04-03T00:00:00	2024-11-08T00:00:00	5	Humedad	97
93177	7	Sololá	701	Sololá	4	Finca Santa Victoria	3	Marzo	2023-04-03T00:00:00	2024-11-08T00:00:00	6	Velocidad del viento	0
93178	7	Sololá	701	Sololá	4	Finca Santa Victoria	3	Marzo	2023-04-03T00:00:00	2024-11-08T00:00:00	7	Dirección del viento	0
93179	7	Sololá	701	Sololá	4	Finca Santa Victoria	3	Marzo	2023-04-03T00:00:00	2024-11-08T00:00:00	1	Precipitación	0
93180	7	Sololá	701	Sololá	4	Finca Santa Victoria	3	Marzo	2023-04-03T00:00:00	2024-11-08T00:00:00	8	Radiación solar	0
93181	7	Sololá	701	Sololá	4	Finca Santa Victoria	3	Marzo	2023-04-03T00:00:00	2024-11-08T01:00:00	2	Temperatura media	10.8
93182	7	Sololá	701	Sololá	4	Finca Santa Victoria	3	Marzo	2023-04-03T00:00:00	2024-11-08T01:00:00	4	Temperatura máxima	12
93183	7	Sololá	701	Sololá	4	Finca Santa Victoria	3	Marzo	2023-04-03T00:00:00	2024-11-08T01:00:00	3	Temperatura mínima	10.8
93184	7	Sololá	701	Sololá	4	Finca Santa Victoria	3	Marzo	2023-04-03T00:00:00	2024-11-08T01:00:00	5	Humedad	93
93185	7	Sololá	701	Sololá	4	Finca Santa Victoria	3	Marzo	2023-04-03T00:00:00	2024-11-08T01:00:00	6	Velocidad del viento	1.6
93186	7	Sololá	701	Sololá	4	Finca Santa Victoria	3	Marzo	2023-04-03T00:00:00	2024-11-08T01:00:00	7	Dirección del viento	1.61
93187	7	Sololá	701	Sololá	4	Finca Santa Victoria	3	Marzo	2023-04-03T00:00:00	2024-11-08T01:00:00	1	Precipitación	0
93188	7	Sololá	701	Sololá	4	Finca Santa Victoria	3	Marzo	2023-04-03T00:00:00	2024-11-08T01:00:00	8	Radiación solar	0
93189	7	Sololá	701	Sololá	4	Finca Santa Victoria	3	Marzo	2023-04-03T00:00:00	2024-11-08T02:00:00	2	Temperatura media	12.7
93190	7	Sololá	701	Sololá	4	Finca Santa Victoria	3	Marzo	2023-04-03T00:00:00	2024-11-08T02:00:00	4	Temperatura máxima	12.7
93191	7	Sololá	701	Sololá	4	Finca Santa Victoria	3	Marzo	2023-04-03T00:00:00	2024-11-08T02:00:00	3	Temperatura mínima	10.8
93192	7	Sololá	701	Sololá	4	Finca Santa Victoria	3	Marzo	2023-04-03T00:00:00	2024-11-08T02:00:00	5	Humedad	81
93193	7	Sololá	701	Sololá	4	Finca Santa Victoria	3	Marzo	2023-04-03T00:00:00	2024-11-08T02:00:00	6	Velocidad del viento	0
93194	7	Sololá	701	Sololá	4	Finca Santa Victoria	3	Marzo	2023-04-03T00:00:00	2024-11-08T02:00:00	7	Dirección del viento	0
93195	7	Sololá	701	Sololá	4	Finca Santa Victoria	3	Marzo	2023-04-03T00:00:00	2024-11-08T02:00:00	1	Precipitación	0
93196	7	Sololá	701	Sololá	4	Finca Santa Victoria	3	Marzo	2023-04-03T00:00:00	2024-11-08T02:00:00	8	Radiación solar	0
93197	7	Sololá	701	Sololá	4	Finca Santa Victoria	3	Marzo	2023-04-03T00:00:00	2024-11-08T03:00:00	2	Temperatura media	12.2
93198	7	Sololá	701	Sololá	4	Finca Santa Victoria	3	Marzo	2023-04-03T00:00:00	2024-11-08T03:00:00	4	Temperatura máxima	12.8
93199	7	Sololá	701	Sololá	4	Finca Santa Victoria	3	Marzo	2023-04-03T00:00:00	2024-11-08T03:00:00	3	Temperatura mínima	12.2
93200	7	Sololá	701	Sololá	4	Finca Santa Victoria	3	Marzo	2023-04-03T00:00:00	2024-11-08T03:00:00	5	Humedad	82
93201	7	Sololá	701	Sololá	4	Finca Santa Victoria	3	Marzo	2023-04-03T00:00:00	2024-11-08T03:00:00	6	Velocidad del viento	0
93202	7	Sololá	701	Sololá	4	Finca Santa Victoria	3	Marzo	2023-04-03T00:00:00	2024-11-08T03:00:00	7	Dirección del viento	0
93203	7	Sololá	701	Sololá	4	Finca Santa Victoria	3	Marzo	2023-04-03T00:00:00	2024-11-08T03:00:00	1	Precipitación	0
93204	7	Sololá	701	Sololá	4	Finca Santa Victoria	3	Marzo	2023-04-03T00:00:00	2024-11-08T03:00:00	8	Radiación solar	0
93205	7	Sololá	701	Sololá	4	Finca Santa Victoria	3	Marzo	2023-04-03T00:00:00	2024-11-08T04:00:00	2	Temperatura media	11.9
93206	7	Sololá	701	Sololá	4	Finca Santa Victoria	3	Marzo	2023-04-03T00:00:00	2024-11-08T04:00:00	4	Temperatura máxima	12.4
93207	7	Sololá	701	Sololá	4	Finca Santa Victoria	3	Marzo	2023-04-03T00:00:00	2024-11-08T04:00:00	3	Temperatura mínima	11.9
93208	7	Sololá	701	Sololá	4	Finca Santa Victoria	3	Marzo	2023-04-03T00:00:00	2024-11-08T04:00:00	5	Humedad	83
93209	7	Sololá	701	Sololá	4	Finca Santa Victoria	3	Marzo	2023-04-03T00:00:00	2024-11-08T04:00:00	6	Velocidad del viento	1.6
93210	7	Sololá	701	Sololá	4	Finca Santa Victoria	3	Marzo	2023-04-03T00:00:00	2024-11-08T04:00:00	7	Dirección del viento	1.61
93211	7	Sololá	701	Sololá	4	Finca Santa Victoria	3	Marzo	2023-04-03T00:00:00	2024-11-08T04:00:00	1	Precipitación	0
93212	7	Sololá	701	Sololá	4	Finca Santa Victoria	3	Marzo	2023-04-03T00:00:00	2024-11-08T04:00:00	8	Radiación solar	0
93213	7	Sololá	701	Sololá	4	Finca Santa Victoria	3	Marzo	2023-04-03T00:00:00	2024-11-08T05:00:00	2	Temperatura media	11.5
93214	7	Sololá	701	Sololá	4	Finca Santa Victoria	3	Marzo	2023-04-03T00:00:00	2024-11-08T05:00:00	4	Temperatura máxima	12.1
93215	7	Sololá	701	Sololá	4	Finca Santa Victoria	3	Marzo	2023-04-03T00:00:00	2024-11-08T05:00:00	3	Temperatura mínima	11.4
93216	7	Sololá	701	Sololá	4	Finca Santa Victoria	3	Marzo	2023-04-03T00:00:00	2024-11-08T05:00:00	5	Humedad	86
93217	7	Sololá	701	Sololá	4	Finca Santa Victoria	3	Marzo	2023-04-03T00:00:00	2024-11-08T05:00:00	6	Velocidad del viento	1.6
93218	7	Sololá	701	Sololá	4	Finca Santa Victoria	3	Marzo	2023-04-03T00:00:00	2024-11-08T05:00:00	7	Dirección del viento	1.61
93219	7	Sololá	701	Sololá	4	Finca Santa Victoria	3	Marzo	2023-04-03T00:00:00	2024-11-08T05:00:00	1	Precipitación	0
93220	7	Sololá	701	Sololá	4	Finca Santa Victoria	3	Marzo	2023-04-03T00:00:00	2024-11-08T05:00:00	8	Radiación solar	0
93221	7	Sololá	701	Sololá	4	Finca Santa Victoria	3	Marzo	2023-04-03T00:00:00	2024-11-08T06:00:00	2	Temperatura media	11.6
93222	7	Sololá	701	Sololá	4	Finca Santa Victoria	3	Marzo	2023-04-03T00:00:00	2024-11-08T06:00:00	4	Temperatura máxima	11.8
93223	7	Sololá	701	Sololá	4	Finca Santa Victoria	3	Marzo	2023-04-03T00:00:00	2024-11-08T06:00:00	3	Temperatura mínima	11.4
93224	7	Sololá	701	Sololá	4	Finca Santa Victoria	3	Marzo	2023-04-03T00:00:00	2024-11-08T06:00:00	5	Humedad	86
93225	7	Sololá	701	Sololá	4	Finca Santa Victoria	3	Marzo	2023-04-03T00:00:00	2024-11-08T06:00:00	6	Velocidad del viento	0
93226	7	Sololá	701	Sololá	4	Finca Santa Victoria	3	Marzo	2023-04-03T00:00:00	2024-11-08T06:00:00	7	Dirección del viento	0
93227	7	Sololá	701	Sololá	4	Finca Santa Victoria	3	Marzo	2023-04-03T00:00:00	2024-11-08T06:00:00	1	Precipitación	0
93228	7	Sololá	701	Sololá	4	Finca Santa Victoria	3	Marzo	2023-04-03T00:00:00	2024-11-08T06:00:00	8	Radiación solar	0
93229	7	Sololá	701	Sololá	4	Finca Santa Victoria	3	Marzo	2023-04-03T00:00:00	2024-11-08T07:00:00	2	Temperatura media	11.3
93230	7	Sololá	701	Sololá	4	Finca Santa Victoria	3	Marzo	2023-04-03T00:00:00	2024-11-08T07:00:00	4	Temperatura máxima	11.6
93231	7	Sololá	701	Sololá	4	Finca Santa Victoria	3	Marzo	2023-04-03T00:00:00	2024-11-08T07:00:00	3	Temperatura mínima	10.9
93232	7	Sololá	701	Sololá	4	Finca Santa Victoria	3	Marzo	2023-04-03T00:00:00	2024-11-08T07:00:00	5	Humedad	89
93233	7	Sololá	701	Sololá	4	Finca Santa Victoria	3	Marzo	2023-04-03T00:00:00	2024-11-08T07:00:00	6	Velocidad del viento	0
93234	7	Sololá	701	Sololá	4	Finca Santa Victoria	3	Marzo	2023-04-03T00:00:00	2024-11-08T07:00:00	7	Dirección del viento	0
93235	7	Sololá	701	Sololá	4	Finca Santa Victoria	3	Marzo	2023-04-03T00:00:00	2024-11-08T07:00:00	1	Precipitación	0
93236	7	Sololá	701	Sololá	4	Finca Santa Victoria	3	Marzo	2023-04-03T00:00:00	2024-11-08T07:00:00	8	Radiación solar	8
93237	7	Sololá	701	Sololá	4	Finca Santa Victoria	3	Marzo	2023-04-03T00:00:00	2024-11-08T08:00:00	2	Temperatura media	14.4
93238	7	Sololá	701	Sololá	4	Finca Santa Victoria	3	Marzo	2023-04-03T00:00:00	2024-11-08T08:00:00	4	Temperatura máxima	14.4
93239	7	Sololá	701	Sololá	4	Finca Santa Victoria	3	Marzo	2023-04-03T00:00:00	2024-11-08T08:00:00	3	Temperatura mínima	11.2
93240	7	Sololá	701	Sololá	4	Finca Santa Victoria	3	Marzo	2023-04-03T00:00:00	2024-11-08T08:00:00	5	Humedad	80
93241	7	Sololá	701	Sololá	4	Finca Santa Victoria	3	Marzo	2023-04-03T00:00:00	2024-11-08T08:00:00	6	Velocidad del viento	0
93242	7	Sololá	701	Sololá	4	Finca Santa Victoria	3	Marzo	2023-04-03T00:00:00	2024-11-08T08:00:00	7	Dirección del viento	0
93243	7	Sololá	701	Sololá	4	Finca Santa Victoria	3	Marzo	2023-04-03T00:00:00	2024-11-08T08:00:00	1	Precipitación	0
93244	7	Sololá	701	Sololá	4	Finca Santa Victoria	3	Marzo	2023-04-03T00:00:00	2024-11-08T08:00:00	8	Radiación solar	113
93245	7	Sololá	701	Sololá	4	Finca Santa Victoria	3	Marzo	2023-04-03T00:00:00	2024-11-08T09:00:00	2	Temperatura media	17.9
93246	7	Sololá	701	Sololá	4	Finca Santa Victoria	3	Marzo	2023-04-03T00:00:00	2024-11-08T09:00:00	4	Temperatura máxima	18
93247	7	Sololá	701	Sololá	4	Finca Santa Victoria	3	Marzo	2023-04-03T00:00:00	2024-11-08T09:00:00	3	Temperatura mínima	14.4
93248	7	Sololá	701	Sololá	4	Finca Santa Victoria	3	Marzo	2023-04-03T00:00:00	2024-11-08T09:00:00	5	Humedad	70
93249	7	Sololá	701	Sololá	4	Finca Santa Victoria	3	Marzo	2023-04-03T00:00:00	2024-11-08T09:00:00	6	Velocidad del viento	1.6
93250	7	Sololá	701	Sololá	4	Finca Santa Victoria	3	Marzo	2023-04-03T00:00:00	2024-11-08T09:00:00	7	Dirección del viento	1.61
93251	7	Sololá	701	Sololá	4	Finca Santa Victoria	3	Marzo	2023-04-03T00:00:00	2024-11-08T09:00:00	1	Precipitación	0
93252	7	Sololá	701	Sololá	4	Finca Santa Victoria	3	Marzo	2023-04-03T00:00:00	2024-11-08T09:00:00	8	Radiación solar	390
93253	7	Sololá	701	Sololá	4	Finca Santa Victoria	3	Marzo	2023-04-03T00:00:00	2024-11-08T10:00:00	2	Temperatura media	21.3
93254	7	Sololá	701	Sololá	4	Finca Santa Victoria	3	Marzo	2023-04-03T00:00:00	2024-11-08T10:00:00	4	Temperatura máxima	21.3
93255	7	Sololá	701	Sololá	4	Finca Santa Victoria	3	Marzo	2023-04-03T00:00:00	2024-11-08T10:00:00	3	Temperatura mínima	17.9
93256	7	Sololá	701	Sololá	4	Finca Santa Victoria	3	Marzo	2023-04-03T00:00:00	2024-11-08T10:00:00	5	Humedad	44
93257	7	Sololá	701	Sololá	4	Finca Santa Victoria	3	Marzo	2023-04-03T00:00:00	2024-11-08T10:00:00	6	Velocidad del viento	3.2
93258	7	Sololá	701	Sololá	4	Finca Santa Victoria	3	Marzo	2023-04-03T00:00:00	2024-11-08T10:00:00	7	Dirección del viento	3.22
93259	7	Sololá	701	Sololá	4	Finca Santa Victoria	3	Marzo	2023-04-03T00:00:00	2024-11-08T10:00:00	1	Precipitación	0
93260	7	Sololá	701	Sololá	4	Finca Santa Victoria	3	Marzo	2023-04-03T00:00:00	2024-11-08T10:00:00	8	Radiación solar	699
93261	7	Sololá	701	Sololá	4	Finca Santa Victoria	3	Marzo	2023-04-03T00:00:00	2024-11-08T11:00:00	2	Temperatura media	21.8
93262	7	Sololá	701	Sololá	4	Finca Santa Victoria	3	Marzo	2023-04-03T00:00:00	2024-11-08T11:00:00	4	Temperatura máxima	22.2
93263	7	Sololá	701	Sololá	4	Finca Santa Victoria	3	Marzo	2023-04-03T00:00:00	2024-11-08T11:00:00	3	Temperatura mínima	21.2
93264	7	Sololá	701	Sololá	4	Finca Santa Victoria	3	Marzo	2023-04-03T00:00:00	2024-11-08T11:00:00	5	Humedad	40
93265	7	Sololá	701	Sololá	4	Finca Santa Victoria	3	Marzo	2023-04-03T00:00:00	2024-11-08T11:00:00	6	Velocidad del viento	4.8
93266	7	Sololá	701	Sololá	4	Finca Santa Victoria	3	Marzo	2023-04-03T00:00:00	2024-11-08T11:00:00	7	Dirección del viento	4.83
93267	7	Sololá	701	Sololá	4	Finca Santa Victoria	3	Marzo	2023-04-03T00:00:00	2024-11-08T11:00:00	1	Precipitación	0
93268	7	Sololá	701	Sololá	4	Finca Santa Victoria	3	Marzo	2023-04-03T00:00:00	2024-11-08T11:00:00	8	Radiación solar	861
93269	7	Sololá	701	Sololá	4	Finca Santa Victoria	3	Marzo	2023-04-03T00:00:00	2024-11-08T12:00:00	2	Temperatura media	21.3
93270	7	Sololá	701	Sololá	4	Finca Santa Victoria	3	Marzo	2023-04-03T00:00:00	2024-11-08T12:00:00	4	Temperatura máxima	22
93271	7	Sololá	701	Sololá	4	Finca Santa Victoria	3	Marzo	2023-04-03T00:00:00	2024-11-08T12:00:00	3	Temperatura mínima	21.2
93272	7	Sololá	701	Sololá	4	Finca Santa Victoria	3	Marzo	2023-04-03T00:00:00	2024-11-08T12:00:00	5	Humedad	47
93273	7	Sololá	701	Sololá	4	Finca Santa Victoria	3	Marzo	2023-04-03T00:00:00	2024-11-08T12:00:00	6	Velocidad del viento	4.8
93274	7	Sololá	701	Sololá	4	Finca Santa Victoria	3	Marzo	2023-04-03T00:00:00	2024-11-08T12:00:00	7	Dirección del viento	4.83
93275	7	Sololá	701	Sololá	4	Finca Santa Victoria	3	Marzo	2023-04-03T00:00:00	2024-11-08T12:00:00	1	Precipitación	0
93276	7	Sololá	701	Sololá	4	Finca Santa Victoria	3	Marzo	2023-04-03T00:00:00	2024-11-08T12:00:00	8	Radiación solar	957
93277	7	Sololá	701	Sololá	4	Finca Santa Victoria	3	Marzo	2023-04-03T00:00:00	2024-11-08T13:00:00	2	Temperatura media	18.8
93278	7	Sololá	701	Sololá	4	Finca Santa Victoria	3	Marzo	2023-04-03T00:00:00	2024-11-08T13:00:00	4	Temperatura máxima	21.6
93279	7	Sololá	701	Sololá	4	Finca Santa Victoria	3	Marzo	2023-04-03T00:00:00	2024-11-08T13:00:00	3	Temperatura mínima	18.8
93280	7	Sololá	701	Sololá	4	Finca Santa Victoria	3	Marzo	2023-04-03T00:00:00	2024-11-08T13:00:00	5	Humedad	70
93281	7	Sololá	701	Sololá	4	Finca Santa Victoria	3	Marzo	2023-04-03T00:00:00	2024-11-08T13:00:00	6	Velocidad del viento	4.8
93282	7	Sololá	701	Sololá	4	Finca Santa Victoria	3	Marzo	2023-04-03T00:00:00	2024-11-08T13:00:00	7	Dirección del viento	4.83
93283	7	Sololá	701	Sololá	4	Finca Santa Victoria	3	Marzo	2023-04-03T00:00:00	2024-11-08T13:00:00	1	Precipitación	0
93284	7	Sololá	701	Sololá	4	Finca Santa Victoria	3	Marzo	2023-04-03T00:00:00	2024-11-08T13:00:00	8	Radiación solar	730
93285	7	Sololá	701	Sololá	4	Finca Santa Victoria	3	Marzo	2023-04-03T00:00:00	2024-11-08T14:00:00	2	Temperatura media	17.2
93286	7	Sololá	701	Sololá	4	Finca Santa Victoria	3	Marzo	2023-04-03T00:00:00	2024-11-08T14:00:00	4	Temperatura máxima	18.8
93287	7	Sololá	701	Sololá	4	Finca Santa Victoria	3	Marzo	2023-04-03T00:00:00	2024-11-08T14:00:00	3	Temperatura mínima	17.2
93288	7	Sololá	701	Sololá	4	Finca Santa Victoria	3	Marzo	2023-04-03T00:00:00	2024-11-08T14:00:00	5	Humedad	80
93289	7	Sololá	701	Sololá	4	Finca Santa Victoria	3	Marzo	2023-04-03T00:00:00	2024-11-08T14:00:00	6	Velocidad del viento	3.2
93290	7	Sololá	701	Sololá	4	Finca Santa Victoria	3	Marzo	2023-04-03T00:00:00	2024-11-08T14:00:00	7	Dirección del viento	3.22
93291	7	Sololá	701	Sololá	4	Finca Santa Victoria	3	Marzo	2023-04-03T00:00:00	2024-11-08T14:00:00	1	Precipitación	0
93292	7	Sololá	701	Sololá	4	Finca Santa Victoria	3	Marzo	2023-04-03T00:00:00	2024-11-08T14:00:00	8	Radiación solar	163
93293	7	Sololá	701	Sololá	4	Finca Santa Victoria	3	Marzo	2023-04-03T00:00:00	2024-11-08T15:00:00	2	Temperatura media	17.8
93294	7	Sololá	701	Sololá	4	Finca Santa Victoria	3	Marzo	2023-04-03T00:00:00	2024-11-08T15:00:00	4	Temperatura máxima	17.8
93295	7	Sololá	701	Sololá	4	Finca Santa Victoria	3	Marzo	2023-04-03T00:00:00	2024-11-08T15:00:00	3	Temperatura mínima	17.2
93296	7	Sololá	701	Sololá	4	Finca Santa Victoria	3	Marzo	2023-04-03T00:00:00	2024-11-08T15:00:00	5	Humedad	78
93297	7	Sololá	701	Sololá	4	Finca Santa Victoria	3	Marzo	2023-04-03T00:00:00	2024-11-08T15:00:00	6	Velocidad del viento	3.2
93298	7	Sololá	701	Sololá	4	Finca Santa Victoria	3	Marzo	2023-04-03T00:00:00	2024-11-08T15:00:00	7	Dirección del viento	3.22
93299	7	Sololá	701	Sololá	4	Finca Santa Victoria	3	Marzo	2023-04-03T00:00:00	2024-11-08T15:00:00	1	Precipitación	0
93300	7	Sololá	701	Sololá	4	Finca Santa Victoria	3	Marzo	2023-04-03T00:00:00	2024-11-08T15:00:00	8	Radiación solar	195
93301	7	Sololá	701	Sololá	4	Finca Santa Victoria	3	Marzo	2023-04-03T00:00:00	2024-11-08T16:00:00	2	Temperatura media	17.2
93302	7	Sololá	701	Sololá	4	Finca Santa Victoria	3	Marzo	2023-04-03T00:00:00	2024-11-08T16:00:00	4	Temperatura máxima	17.9
93303	7	Sololá	701	Sololá	4	Finca Santa Victoria	3	Marzo	2023-04-03T00:00:00	2024-11-08T16:00:00	3	Temperatura mínima	17.1
93304	7	Sololá	701	Sololá	4	Finca Santa Victoria	3	Marzo	2023-04-03T00:00:00	2024-11-08T16:00:00	5	Humedad	84
93305	7	Sololá	701	Sololá	4	Finca Santa Victoria	3	Marzo	2023-04-03T00:00:00	2024-11-08T16:00:00	6	Velocidad del viento	3.2
93306	7	Sololá	701	Sololá	4	Finca Santa Victoria	3	Marzo	2023-04-03T00:00:00	2024-11-08T16:00:00	7	Dirección del viento	3.22
93307	7	Sololá	701	Sololá	4	Finca Santa Victoria	3	Marzo	2023-04-03T00:00:00	2024-11-08T16:00:00	1	Precipitación	0
93308	7	Sololá	701	Sololá	4	Finca Santa Victoria	3	Marzo	2023-04-03T00:00:00	2024-11-08T16:00:00	8	Radiación solar	168
93309	7	Sololá	701	Sololá	4	Finca Santa Victoria	3	Marzo	2023-04-03T00:00:00	2024-11-08T17:00:00	2	Temperatura media	17.2
93310	7	Sololá	701	Sololá	4	Finca Santa Victoria	3	Marzo	2023-04-03T00:00:00	2024-11-08T17:00:00	4	Temperatura máxima	17.6
93311	7	Sololá	701	Sololá	4	Finca Santa Victoria	3	Marzo	2023-04-03T00:00:00	2024-11-08T17:00:00	3	Temperatura mínima	17
93312	7	Sololá	701	Sololá	4	Finca Santa Victoria	3	Marzo	2023-04-03T00:00:00	2024-11-08T17:00:00	5	Humedad	85
93313	7	Sololá	701	Sololá	4	Finca Santa Victoria	3	Marzo	2023-04-03T00:00:00	2024-11-08T17:00:00	6	Velocidad del viento	3.2
93314	7	Sololá	701	Sololá	4	Finca Santa Victoria	3	Marzo	2023-04-03T00:00:00	2024-11-08T17:00:00	7	Dirección del viento	3.22
93315	7	Sololá	701	Sololá	4	Finca Santa Victoria	3	Marzo	2023-04-03T00:00:00	2024-11-08T17:00:00	1	Precipitación	0
93316	7	Sololá	701	Sololá	4	Finca Santa Victoria	3	Marzo	2023-04-03T00:00:00	2024-11-08T17:00:00	8	Radiación solar	179
93317	7	Sololá	701	Sololá	4	Finca Santa Victoria	3	Marzo	2023-04-03T00:00:00	2024-11-08T18:00:00	2	Temperatura media	15.4
93318	7	Sololá	701	Sololá	4	Finca Santa Victoria	3	Marzo	2023-04-03T00:00:00	2024-11-08T18:00:00	4	Temperatura máxima	17.2
93319	7	Sololá	701	Sololá	4	Finca Santa Victoria	3	Marzo	2023-04-03T00:00:00	2024-11-08T18:00:00	3	Temperatura mínima	15.4
93320	7	Sololá	701	Sololá	4	Finca Santa Victoria	3	Marzo	2023-04-03T00:00:00	2024-11-08T18:00:00	5	Humedad	91
93321	7	Sololá	701	Sololá	4	Finca Santa Victoria	3	Marzo	2023-04-03T00:00:00	2024-11-08T18:00:00	6	Velocidad del viento	1.6
93322	7	Sololá	701	Sololá	4	Finca Santa Victoria	3	Marzo	2023-04-03T00:00:00	2024-11-08T18:00:00	7	Dirección del viento	1.61
93323	7	Sololá	701	Sololá	4	Finca Santa Victoria	3	Marzo	2023-04-03T00:00:00	2024-11-08T18:00:00	1	Precipitación	0
93324	7	Sololá	701	Sololá	4	Finca Santa Victoria	3	Marzo	2023-04-03T00:00:00	2024-11-08T18:00:00	8	Radiación solar	37
93325	7	Sololá	701	Sololá	4	Finca Santa Victoria	3	Marzo	2023-04-03T00:00:00	2024-11-08T19:00:00	2	Temperatura media	14.3
93326	7	Sololá	701	Sololá	4	Finca Santa Victoria	3	Marzo	2023-04-03T00:00:00	2024-11-08T19:00:00	4	Temperatura máxima	15.4
93327	7	Sololá	701	Sololá	4	Finca Santa Victoria	3	Marzo	2023-04-03T00:00:00	2024-11-08T19:00:00	3	Temperatura mínima	14.3
93328	7	Sololá	701	Sololá	4	Finca Santa Victoria	3	Marzo	2023-04-03T00:00:00	2024-11-08T19:00:00	5	Humedad	94
93329	7	Sololá	701	Sololá	4	Finca Santa Victoria	3	Marzo	2023-04-03T00:00:00	2024-11-08T19:00:00	6	Velocidad del viento	0
93330	7	Sololá	701	Sololá	4	Finca Santa Victoria	3	Marzo	2023-04-03T00:00:00	2024-11-08T19:00:00	7	Dirección del viento	0
93331	7	Sololá	701	Sololá	4	Finca Santa Victoria	3	Marzo	2023-04-03T00:00:00	2024-11-08T19:00:00	1	Precipitación	0
93332	7	Sololá	701	Sololá	4	Finca Santa Victoria	3	Marzo	2023-04-03T00:00:00	2024-11-08T19:00:00	8	Radiación solar	0
93333	7	Sololá	701	Sololá	4	Finca Santa Victoria	3	Marzo	2023-04-03T00:00:00	2024-11-08T20:00:00	2	Temperatura media	14.4
93334	7	Sololá	701	Sololá	4	Finca Santa Victoria	3	Marzo	2023-04-03T00:00:00	2024-11-08T20:00:00	4	Temperatura máxima	14.4
93335	7	Sololá	701	Sololá	4	Finca Santa Victoria	3	Marzo	2023-04-03T00:00:00	2024-11-08T20:00:00	3	Temperatura mínima	13.9
93336	7	Sololá	701	Sololá	4	Finca Santa Victoria	3	Marzo	2023-04-03T00:00:00	2024-11-08T20:00:00	5	Humedad	82
93337	7	Sololá	701	Sololá	4	Finca Santa Victoria	3	Marzo	2023-04-03T00:00:00	2024-11-08T20:00:00	6	Velocidad del viento	0
93338	7	Sololá	701	Sololá	4	Finca Santa Victoria	3	Marzo	2023-04-03T00:00:00	2024-11-08T20:00:00	7	Dirección del viento	0
93339	7	Sololá	701	Sololá	4	Finca Santa Victoria	3	Marzo	2023-04-03T00:00:00	2024-11-08T20:00:00	1	Precipitación	0
93340	7	Sololá	701	Sololá	4	Finca Santa Victoria	3	Marzo	2023-04-03T00:00:00	2024-11-08T20:00:00	8	Radiación solar	0
93341	7	Sololá	701	Sololá	4	Finca Santa Victoria	3	Marzo	2023-04-03T00:00:00	2024-11-08T21:00:00	2	Temperatura media	14.4
93342	7	Sololá	701	Sololá	4	Finca Santa Victoria	3	Marzo	2023-04-03T00:00:00	2024-11-08T21:00:00	4	Temperatura máxima	14.5
93343	7	Sololá	701	Sololá	4	Finca Santa Victoria	3	Marzo	2023-04-03T00:00:00	2024-11-08T21:00:00	3	Temperatura mínima	14.3
93344	7	Sololá	701	Sololá	4	Finca Santa Victoria	3	Marzo	2023-04-03T00:00:00	2024-11-08T21:00:00	5	Humedad	83
93345	7	Sololá	701	Sololá	4	Finca Santa Victoria	3	Marzo	2023-04-03T00:00:00	2024-11-08T21:00:00	6	Velocidad del viento	0
93346	7	Sololá	701	Sololá	4	Finca Santa Victoria	3	Marzo	2023-04-03T00:00:00	2024-11-08T21:00:00	7	Dirección del viento	0
93347	7	Sololá	701	Sololá	4	Finca Santa Victoria	3	Marzo	2023-04-03T00:00:00	2024-11-08T21:00:00	1	Precipitación	0
93348	7	Sololá	701	Sololá	4	Finca Santa Victoria	3	Marzo	2023-04-03T00:00:00	2024-11-08T21:00:00	8	Radiación solar	0
93349	7	Sololá	701	Sololá	4	Finca Santa Victoria	3	Marzo	2023-04-03T00:00:00	2024-11-08T22:00:00	2	Temperatura media	14.3
93350	7	Sololá	701	Sololá	4	Finca Santa Victoria	3	Marzo	2023-04-03T00:00:00	2024-11-08T22:00:00	4	Temperatura máxima	14.4
93351	7	Sololá	701	Sololá	4	Finca Santa Victoria	3	Marzo	2023-04-03T00:00:00	2024-11-08T22:00:00	3	Temperatura mínima	14.3
93352	7	Sololá	701	Sololá	4	Finca Santa Victoria	3	Marzo	2023-04-03T00:00:00	2024-11-08T22:00:00	5	Humedad	85
93353	7	Sololá	701	Sololá	4	Finca Santa Victoria	3	Marzo	2023-04-03T00:00:00	2024-11-08T22:00:00	6	Velocidad del viento	0
93354	7	Sololá	701	Sololá	4	Finca Santa Victoria	3	Marzo	2023-04-03T00:00:00	2024-11-08T22:00:00	7	Dirección del viento	0
93355	7	Sololá	701	Sololá	4	Finca Santa Victoria	3	Marzo	2023-04-03T00:00:00	2024-11-08T22:00:00	1	Precipitación	0
93356	7	Sololá	701	Sololá	4	Finca Santa Victoria	3	Marzo	2023-04-03T00:00:00	2024-11-08T22:00:00	8	Radiación solar	0
93357	7	Sololá	701	Sololá	4	Finca Santa Victoria	3	Marzo	2023-04-03T00:00:00	2024-11-08T23:00:00	2	Temperatura media	13.3
93358	7	Sololá	701	Sololá	4	Finca Santa Victoria	3	Marzo	2023-04-03T00:00:00	2024-11-08T23:00:00	4	Temperatura máxima	14.3
93359	7	Sololá	701	Sololá	4	Finca Santa Victoria	3	Marzo	2023-04-03T00:00:00	2024-11-08T23:00:00	3	Temperatura mínima	13.2
93360	7	Sololá	701	Sololá	4	Finca Santa Victoria	3	Marzo	2023-04-03T00:00:00	2024-11-08T23:00:00	5	Humedad	88
93361	7	Sololá	701	Sololá	4	Finca Santa Victoria	3	Marzo	2023-04-03T00:00:00	2024-11-08T23:00:00	6	Velocidad del viento	1.6
93362	7	Sololá	701	Sololá	4	Finca Santa Victoria	3	Marzo	2023-04-03T00:00:00	2024-11-08T23:00:00	7	Dirección del viento	1.61
93363	7	Sololá	701	Sololá	4	Finca Santa Victoria	3	Marzo	2023-04-03T00:00:00	2024-11-08T23:00:00	1	Precipitación	0
93364	7	Sololá	701	Sololá	4	Finca Santa Victoria	3	Marzo	2023-04-03T00:00:00	2024-11-08T23:00:00	8	Radiación solar	0
93365	7	Sololá	701	Sololá	4	Finca Santa Victoria	3	Marzo	2023-05-03T00:00:00	2024-11-08T00:00:00	2	Temperatura media	12.6
93366	7	Sololá	701	Sololá	4	Finca Santa Victoria	3	Marzo	2023-05-03T00:00:00	2024-11-08T00:00:00	4	Temperatura máxima	13.2
93367	7	Sololá	701	Sololá	4	Finca Santa Victoria	3	Marzo	2023-05-03T00:00:00	2024-11-08T00:00:00	3	Temperatura mínima	12.5
93368	7	Sololá	701	Sololá	4	Finca Santa Victoria	3	Marzo	2023-05-03T00:00:00	2024-11-08T00:00:00	5	Humedad	93
93369	7	Sololá	701	Sololá	4	Finca Santa Victoria	3	Marzo	2023-05-03T00:00:00	2024-11-08T00:00:00	6	Velocidad del viento	0
93370	7	Sololá	701	Sololá	4	Finca Santa Victoria	3	Marzo	2023-05-03T00:00:00	2024-11-08T00:00:00	7	Dirección del viento	0
93371	7	Sololá	701	Sololá	4	Finca Santa Victoria	3	Marzo	2023-05-03T00:00:00	2024-11-08T00:00:00	1	Precipitación	0
93372	7	Sololá	701	Sololá	4	Finca Santa Victoria	3	Marzo	2023-05-03T00:00:00	2024-11-08T00:00:00	8	Radiación solar	0
93373	7	Sololá	701	Sololá	4	Finca Santa Victoria	3	Marzo	2023-05-03T00:00:00	2024-11-08T01:00:00	2	Temperatura media	12
93374	7	Sololá	701	Sololá	4	Finca Santa Victoria	3	Marzo	2023-05-03T00:00:00	2024-11-08T01:00:00	4	Temperatura máxima	12.6
93375	7	Sololá	701	Sololá	4	Finca Santa Victoria	3	Marzo	2023-05-03T00:00:00	2024-11-08T01:00:00	3	Temperatura mínima	12
93376	7	Sololá	701	Sololá	4	Finca Santa Victoria	3	Marzo	2023-05-03T00:00:00	2024-11-08T01:00:00	5	Humedad	92
93377	7	Sololá	701	Sololá	4	Finca Santa Victoria	3	Marzo	2023-05-03T00:00:00	2024-11-08T01:00:00	6	Velocidad del viento	0
93378	7	Sololá	701	Sololá	4	Finca Santa Victoria	3	Marzo	2023-05-03T00:00:00	2024-11-08T01:00:00	7	Dirección del viento	0
93379	7	Sololá	701	Sololá	4	Finca Santa Victoria	3	Marzo	2023-05-03T00:00:00	2024-11-08T01:00:00	1	Precipitación	0
93380	7	Sololá	701	Sololá	4	Finca Santa Victoria	3	Marzo	2023-05-03T00:00:00	2024-11-08T01:00:00	8	Radiación solar	0
93381	7	Sololá	701	Sololá	4	Finca Santa Victoria	3	Marzo	2023-05-03T00:00:00	2024-11-08T02:00:00	2	Temperatura media	12.1
93382	7	Sololá	701	Sololá	4	Finca Santa Victoria	3	Marzo	2023-05-03T00:00:00	2024-11-08T02:00:00	4	Temperatura máxima	12.3
93383	7	Sololá	701	Sololá	4	Finca Santa Victoria	3	Marzo	2023-05-03T00:00:00	2024-11-08T02:00:00	3	Temperatura mínima	11.9
93384	7	Sololá	701	Sololá	4	Finca Santa Victoria	3	Marzo	2023-05-03T00:00:00	2024-11-08T02:00:00	5	Humedad	89
93385	7	Sololá	701	Sololá	4	Finca Santa Victoria	3	Marzo	2023-05-03T00:00:00	2024-11-08T02:00:00	6	Velocidad del viento	1.6
93386	7	Sololá	701	Sololá	4	Finca Santa Victoria	3	Marzo	2023-05-03T00:00:00	2024-11-08T02:00:00	7	Dirección del viento	1.61
93387	7	Sololá	701	Sololá	4	Finca Santa Victoria	3	Marzo	2023-05-03T00:00:00	2024-11-08T02:00:00	1	Precipitación	0
93388	7	Sololá	701	Sololá	4	Finca Santa Victoria	3	Marzo	2023-05-03T00:00:00	2024-11-08T02:00:00	8	Radiación solar	0
93389	7	Sololá	701	Sololá	4	Finca Santa Victoria	3	Marzo	2023-05-03T00:00:00	2024-11-08T03:00:00	2	Temperatura media	11.9
93390	7	Sololá	701	Sololá	4	Finca Santa Victoria	3	Marzo	2023-05-03T00:00:00	2024-11-08T03:00:00	4	Temperatura máxima	12.2
93391	7	Sololá	701	Sololá	4	Finca Santa Victoria	3	Marzo	2023-05-03T00:00:00	2024-11-08T03:00:00	3	Temperatura mínima	11.8
93392	7	Sololá	701	Sololá	4	Finca Santa Victoria	3	Marzo	2023-05-03T00:00:00	2024-11-08T03:00:00	5	Humedad	90
93393	7	Sololá	701	Sololá	4	Finca Santa Victoria	3	Marzo	2023-05-03T00:00:00	2024-11-08T03:00:00	6	Velocidad del viento	1.6
93394	7	Sololá	701	Sololá	4	Finca Santa Victoria	3	Marzo	2023-05-03T00:00:00	2024-11-08T03:00:00	7	Dirección del viento	1.61
93395	7	Sololá	701	Sololá	4	Finca Santa Victoria	3	Marzo	2023-05-03T00:00:00	2024-11-08T03:00:00	1	Precipitación	0
93396	7	Sololá	701	Sololá	4	Finca Santa Victoria	3	Marzo	2023-05-03T00:00:00	2024-11-08T03:00:00	8	Radiación solar	0
93397	7	Sololá	701	Sololá	4	Finca Santa Victoria	3	Marzo	2023-05-03T00:00:00	2024-11-08T04:00:00	2	Temperatura media	11.5
93398	7	Sololá	701	Sololá	4	Finca Santa Victoria	3	Marzo	2023-05-03T00:00:00	2024-11-08T04:00:00	4	Temperatura máxima	11.9
93399	7	Sololá	701	Sololá	4	Finca Santa Victoria	3	Marzo	2023-05-03T00:00:00	2024-11-08T04:00:00	3	Temperatura mínima	11.4
93400	7	Sololá	701	Sololá	4	Finca Santa Victoria	3	Marzo	2023-05-03T00:00:00	2024-11-08T04:00:00	5	Humedad	90
93401	7	Sololá	701	Sololá	4	Finca Santa Victoria	3	Marzo	2023-05-03T00:00:00	2024-11-08T04:00:00	6	Velocidad del viento	1.6
93402	7	Sololá	701	Sololá	4	Finca Santa Victoria	3	Marzo	2023-05-03T00:00:00	2024-11-08T04:00:00	7	Dirección del viento	1.61
93403	7	Sololá	701	Sololá	4	Finca Santa Victoria	3	Marzo	2023-05-03T00:00:00	2024-11-08T04:00:00	1	Precipitación	0
93404	7	Sololá	701	Sololá	4	Finca Santa Victoria	3	Marzo	2023-05-03T00:00:00	2024-11-08T04:00:00	8	Radiación solar	0
93405	7	Sololá	701	Sololá	4	Finca Santa Victoria	3	Marzo	2023-05-03T00:00:00	2024-11-08T05:00:00	2	Temperatura media	11.2
93406	7	Sololá	701	Sololá	4	Finca Santa Victoria	3	Marzo	2023-05-03T00:00:00	2024-11-08T05:00:00	4	Temperatura máxima	11.6
93407	7	Sololá	701	Sololá	4	Finca Santa Victoria	3	Marzo	2023-05-03T00:00:00	2024-11-08T05:00:00	3	Temperatura mínima	11.2
93408	7	Sololá	701	Sololá	4	Finca Santa Victoria	3	Marzo	2023-05-03T00:00:00	2024-11-08T05:00:00	5	Humedad	90
93409	7	Sololá	701	Sololá	4	Finca Santa Victoria	3	Marzo	2023-05-03T00:00:00	2024-11-08T05:00:00	6	Velocidad del viento	1.6
93410	7	Sololá	701	Sololá	4	Finca Santa Victoria	3	Marzo	2023-05-03T00:00:00	2024-11-08T05:00:00	7	Dirección del viento	1.61
93411	7	Sololá	701	Sololá	4	Finca Santa Victoria	3	Marzo	2023-05-03T00:00:00	2024-11-08T05:00:00	1	Precipitación	0
93412	7	Sololá	701	Sololá	4	Finca Santa Victoria	3	Marzo	2023-05-03T00:00:00	2024-11-08T05:00:00	8	Radiación solar	0
93413	7	Sololá	701	Sololá	4	Finca Santa Victoria	3	Marzo	2023-05-03T00:00:00	2024-11-08T06:00:00	2	Temperatura media	11.1
93414	7	Sololá	701	Sololá	4	Finca Santa Victoria	3	Marzo	2023-05-03T00:00:00	2024-11-08T06:00:00	4	Temperatura máxima	11.4
93415	7	Sololá	701	Sololá	4	Finca Santa Victoria	3	Marzo	2023-05-03T00:00:00	2024-11-08T06:00:00	3	Temperatura mínima	11.1
93416	7	Sololá	701	Sololá	4	Finca Santa Victoria	3	Marzo	2023-05-03T00:00:00	2024-11-08T06:00:00	5	Humedad	89
93417	7	Sololá	701	Sololá	4	Finca Santa Victoria	3	Marzo	2023-05-03T00:00:00	2024-11-08T06:00:00	6	Velocidad del viento	1.6
93418	7	Sololá	701	Sololá	4	Finca Santa Victoria	3	Marzo	2023-05-03T00:00:00	2024-11-08T06:00:00	7	Dirección del viento	1.61
93419	7	Sololá	701	Sololá	4	Finca Santa Victoria	3	Marzo	2023-05-03T00:00:00	2024-11-08T06:00:00	1	Precipitación	0
93420	7	Sololá	701	Sololá	4	Finca Santa Victoria	3	Marzo	2023-05-03T00:00:00	2024-11-08T06:00:00	8	Radiación solar	0
93421	7	Sololá	701	Sololá	4	Finca Santa Victoria	3	Marzo	2023-05-03T00:00:00	2024-11-08T07:00:00	2	Temperatura media	10.7
93422	7	Sololá	701	Sololá	4	Finca Santa Victoria	3	Marzo	2023-05-03T00:00:00	2024-11-08T07:00:00	4	Temperatura máxima	11.2
93423	7	Sololá	701	Sololá	4	Finca Santa Victoria	3	Marzo	2023-05-03T00:00:00	2024-11-08T07:00:00	3	Temperatura mínima	10.5
93424	7	Sololá	701	Sololá	4	Finca Santa Victoria	3	Marzo	2023-05-03T00:00:00	2024-11-08T07:00:00	5	Humedad	91
93425	7	Sololá	701	Sololá	4	Finca Santa Victoria	3	Marzo	2023-05-03T00:00:00	2024-11-08T07:00:00	6	Velocidad del viento	1.6
93426	7	Sololá	701	Sololá	4	Finca Santa Victoria	3	Marzo	2023-05-03T00:00:00	2024-11-08T07:00:00	7	Dirección del viento	1.61
93427	7	Sololá	701	Sololá	4	Finca Santa Victoria	3	Marzo	2023-05-03T00:00:00	2024-11-08T07:00:00	1	Precipitación	0
93428	7	Sololá	701	Sololá	4	Finca Santa Victoria	3	Marzo	2023-05-03T00:00:00	2024-11-08T07:00:00	8	Radiación solar	8
93429	7	Sololá	701	Sololá	4	Finca Santa Victoria	3	Marzo	2023-05-03T00:00:00	2024-11-08T08:00:00	2	Temperatura media	15.3
93430	7	Sololá	701	Sololá	4	Finca Santa Victoria	3	Marzo	2023-05-03T00:00:00	2024-11-08T08:00:00	4	Temperatura máxima	15.3
93431	7	Sololá	701	Sololá	4	Finca Santa Victoria	3	Marzo	2023-05-03T00:00:00	2024-11-08T08:00:00	3	Temperatura mínima	10.7
93432	7	Sololá	701	Sololá	4	Finca Santa Victoria	3	Marzo	2023-05-03T00:00:00	2024-11-08T08:00:00	5	Humedad	74
93433	7	Sololá	701	Sololá	4	Finca Santa Victoria	3	Marzo	2023-05-03T00:00:00	2024-11-08T08:00:00	6	Velocidad del viento	1.6
93434	7	Sololá	701	Sololá	4	Finca Santa Victoria	3	Marzo	2023-05-03T00:00:00	2024-11-08T08:00:00	7	Dirección del viento	1.61
93435	7	Sololá	701	Sololá	4	Finca Santa Victoria	3	Marzo	2023-05-03T00:00:00	2024-11-08T08:00:00	1	Precipitación	0
93436	7	Sololá	701	Sololá	4	Finca Santa Victoria	3	Marzo	2023-05-03T00:00:00	2024-11-08T08:00:00	8	Radiación solar	119
93437	7	Sololá	701	Sololá	4	Finca Santa Victoria	3	Marzo	2023-05-03T00:00:00	2024-11-08T09:00:00	2	Temperatura media	18.4
93438	7	Sololá	701	Sololá	4	Finca Santa Victoria	3	Marzo	2023-05-03T00:00:00	2024-11-08T09:00:00	4	Temperatura máxima	18.4
93439	7	Sololá	701	Sololá	4	Finca Santa Victoria	3	Marzo	2023-05-03T00:00:00	2024-11-08T09:00:00	3	Temperatura mínima	15.3
93440	7	Sololá	701	Sololá	4	Finca Santa Victoria	3	Marzo	2023-05-03T00:00:00	2024-11-08T09:00:00	5	Humedad	63
93441	7	Sololá	701	Sololá	4	Finca Santa Victoria	3	Marzo	2023-05-03T00:00:00	2024-11-08T09:00:00	6	Velocidad del viento	1.6
93442	7	Sololá	701	Sololá	4	Finca Santa Victoria	3	Marzo	2023-05-03T00:00:00	2024-11-08T09:00:00	7	Dirección del viento	1.61
93443	7	Sololá	701	Sololá	4	Finca Santa Victoria	3	Marzo	2023-05-03T00:00:00	2024-11-08T09:00:00	1	Precipitación	0
93444	7	Sololá	701	Sololá	4	Finca Santa Victoria	3	Marzo	2023-05-03T00:00:00	2024-11-08T09:00:00	8	Radiación solar	444
93445	7	Sololá	701	Sololá	4	Finca Santa Victoria	3	Marzo	2023-05-03T00:00:00	2024-11-08T10:00:00	2	Temperatura media	21.8
93446	7	Sololá	701	Sololá	4	Finca Santa Victoria	3	Marzo	2023-05-03T00:00:00	2024-11-08T10:00:00	4	Temperatura máxima	21.8
93447	7	Sololá	701	Sololá	4	Finca Santa Victoria	3	Marzo	2023-05-03T00:00:00	2024-11-08T10:00:00	3	Temperatura mínima	18.3
93448	7	Sololá	701	Sololá	4	Finca Santa Victoria	3	Marzo	2023-05-03T00:00:00	2024-11-08T10:00:00	5	Humedad	45
93449	7	Sololá	701	Sololá	4	Finca Santa Victoria	3	Marzo	2023-05-03T00:00:00	2024-11-08T10:00:00	6	Velocidad del viento	3.2
93450	7	Sololá	701	Sololá	4	Finca Santa Victoria	3	Marzo	2023-05-03T00:00:00	2024-11-08T10:00:00	7	Dirección del viento	3.22
93451	7	Sololá	701	Sololá	4	Finca Santa Victoria	3	Marzo	2023-05-03T00:00:00	2024-11-08T10:00:00	1	Precipitación	0
93452	7	Sololá	701	Sololá	4	Finca Santa Victoria	3	Marzo	2023-05-03T00:00:00	2024-11-08T10:00:00	8	Radiación solar	703
93453	7	Sololá	701	Sololá	4	Finca Santa Victoria	3	Marzo	2023-05-03T00:00:00	2024-11-08T11:00:00	2	Temperatura media	21.7
93454	7	Sololá	701	Sololá	4	Finca Santa Victoria	3	Marzo	2023-05-03T00:00:00	2024-11-08T11:00:00	4	Temperatura máxima	22.8
93455	7	Sololá	701	Sololá	4	Finca Santa Victoria	3	Marzo	2023-05-03T00:00:00	2024-11-08T11:00:00	3	Temperatura mínima	21.7
93456	7	Sololá	701	Sololá	4	Finca Santa Victoria	3	Marzo	2023-05-03T00:00:00	2024-11-08T11:00:00	5	Humedad	46
93457	7	Sololá	701	Sololá	4	Finca Santa Victoria	3	Marzo	2023-05-03T00:00:00	2024-11-08T11:00:00	6	Velocidad del viento	3.2
93458	7	Sololá	701	Sololá	4	Finca Santa Victoria	3	Marzo	2023-05-03T00:00:00	2024-11-08T11:00:00	7	Dirección del viento	3.22
93459	7	Sololá	701	Sololá	4	Finca Santa Victoria	3	Marzo	2023-05-03T00:00:00	2024-11-08T11:00:00	1	Precipitación	0
93460	7	Sololá	701	Sololá	4	Finca Santa Victoria	3	Marzo	2023-05-03T00:00:00	2024-11-08T11:00:00	8	Radiación solar	847
93461	7	Sololá	701	Sololá	4	Finca Santa Victoria	3	Marzo	2023-05-03T00:00:00	2024-11-08T12:00:00	2	Temperatura media	21.9
93462	7	Sololá	701	Sololá	4	Finca Santa Victoria	3	Marzo	2023-05-03T00:00:00	2024-11-08T12:00:00	4	Temperatura máxima	22.2
93463	7	Sololá	701	Sololá	4	Finca Santa Victoria	3	Marzo	2023-05-03T00:00:00	2024-11-08T12:00:00	3	Temperatura mínima	21.5
93464	7	Sololá	701	Sololá	4	Finca Santa Victoria	3	Marzo	2023-05-03T00:00:00	2024-11-08T12:00:00	5	Humedad	55
93465	7	Sololá	701	Sololá	4	Finca Santa Victoria	3	Marzo	2023-05-03T00:00:00	2024-11-08T12:00:00	6	Velocidad del viento	4.8
93466	7	Sololá	701	Sololá	4	Finca Santa Victoria	3	Marzo	2023-05-03T00:00:00	2024-11-08T12:00:00	7	Dirección del viento	4.83
93467	7	Sololá	701	Sololá	4	Finca Santa Victoria	3	Marzo	2023-05-03T00:00:00	2024-11-08T12:00:00	1	Precipitación	0
93468	7	Sololá	701	Sololá	4	Finca Santa Victoria	3	Marzo	2023-05-03T00:00:00	2024-11-08T12:00:00	8	Radiación solar	924
93469	7	Sololá	701	Sololá	4	Finca Santa Victoria	3	Marzo	2023-05-03T00:00:00	2024-11-08T13:00:00	2	Temperatura media	20.7
93470	7	Sololá	701	Sololá	4	Finca Santa Victoria	3	Marzo	2023-05-03T00:00:00	2024-11-08T13:00:00	4	Temperatura máxima	22.3
93471	7	Sololá	701	Sololá	4	Finca Santa Victoria	3	Marzo	2023-05-03T00:00:00	2024-11-08T13:00:00	3	Temperatura mínima	20.7
93472	7	Sololá	701	Sololá	4	Finca Santa Victoria	3	Marzo	2023-05-03T00:00:00	2024-11-08T13:00:00	5	Humedad	71
93473	7	Sololá	701	Sololá	4	Finca Santa Victoria	3	Marzo	2023-05-03T00:00:00	2024-11-08T13:00:00	6	Velocidad del viento	4.8
93474	7	Sololá	701	Sololá	4	Finca Santa Victoria	3	Marzo	2023-05-03T00:00:00	2024-11-08T13:00:00	7	Dirección del viento	4.83
93475	7	Sololá	701	Sololá	4	Finca Santa Victoria	3	Marzo	2023-05-03T00:00:00	2024-11-08T13:00:00	1	Precipitación	0
93476	7	Sololá	701	Sololá	4	Finca Santa Victoria	3	Marzo	2023-05-03T00:00:00	2024-11-08T13:00:00	8	Radiación solar	973
93477	7	Sololá	701	Sololá	4	Finca Santa Victoria	3	Marzo	2023-05-03T00:00:00	2024-11-08T14:00:00	2	Temperatura media	19.4
93478	7	Sololá	701	Sololá	4	Finca Santa Victoria	3	Marzo	2023-05-03T00:00:00	2024-11-08T14:00:00	4	Temperatura máxima	20.9
93479	7	Sololá	701	Sololá	4	Finca Santa Victoria	3	Marzo	2023-05-03T00:00:00	2024-11-08T14:00:00	3	Temperatura mínima	19.4
93480	7	Sololá	701	Sololá	4	Finca Santa Victoria	3	Marzo	2023-05-03T00:00:00	2024-11-08T14:00:00	5	Humedad	76
93481	7	Sololá	701	Sololá	4	Finca Santa Victoria	3	Marzo	2023-05-03T00:00:00	2024-11-08T14:00:00	6	Velocidad del viento	4.8
93482	7	Sololá	701	Sololá	4	Finca Santa Victoria	3	Marzo	2023-05-03T00:00:00	2024-11-08T14:00:00	7	Dirección del viento	4.83
93483	7	Sololá	701	Sololá	4	Finca Santa Victoria	3	Marzo	2023-05-03T00:00:00	2024-11-08T14:00:00	1	Precipitación	0
93484	7	Sololá	701	Sololá	4	Finca Santa Victoria	3	Marzo	2023-05-03T00:00:00	2024-11-08T14:00:00	8	Radiación solar	421
93485	7	Sololá	701	Sololá	4	Finca Santa Victoria	3	Marzo	2023-05-03T00:00:00	2024-11-08T15:00:00	2	Temperatura media	18.7
93486	7	Sololá	701	Sololá	4	Finca Santa Victoria	3	Marzo	2023-05-03T00:00:00	2024-11-08T15:00:00	4	Temperatura máxima	19.4
93487	7	Sololá	701	Sololá	4	Finca Santa Victoria	3	Marzo	2023-05-03T00:00:00	2024-11-08T15:00:00	3	Temperatura mínima	18.7
93488	7	Sololá	701	Sololá	4	Finca Santa Victoria	3	Marzo	2023-05-03T00:00:00	2024-11-08T15:00:00	5	Humedad	79
93489	7	Sololá	701	Sololá	4	Finca Santa Victoria	3	Marzo	2023-05-03T00:00:00	2024-11-08T15:00:00	6	Velocidad del viento	6.4
93490	7	Sololá	701	Sololá	4	Finca Santa Victoria	3	Marzo	2023-05-03T00:00:00	2024-11-08T15:00:00	7	Dirección del viento	6.44
93491	7	Sololá	701	Sololá	4	Finca Santa Victoria	3	Marzo	2023-05-03T00:00:00	2024-11-08T15:00:00	1	Precipitación	0
93492	7	Sololá	701	Sololá	4	Finca Santa Victoria	3	Marzo	2023-05-03T00:00:00	2024-11-08T15:00:00	8	Radiación solar	316
93493	7	Sololá	701	Sololá	4	Finca Santa Victoria	3	Marzo	2023-05-03T00:00:00	2024-11-08T16:00:00	2	Temperatura media	17.8
93494	7	Sololá	701	Sololá	4	Finca Santa Victoria	3	Marzo	2023-05-03T00:00:00	2024-11-08T16:00:00	4	Temperatura máxima	18.7
93495	7	Sololá	701	Sololá	4	Finca Santa Victoria	3	Marzo	2023-05-03T00:00:00	2024-11-08T16:00:00	3	Temperatura mínima	17.3
93496	7	Sololá	701	Sololá	4	Finca Santa Victoria	3	Marzo	2023-05-03T00:00:00	2024-11-08T16:00:00	5	Humedad	83
93497	7	Sololá	701	Sololá	4	Finca Santa Victoria	3	Marzo	2023-05-03T00:00:00	2024-11-08T16:00:00	6	Velocidad del viento	4.8
93498	7	Sololá	701	Sololá	4	Finca Santa Victoria	3	Marzo	2023-05-03T00:00:00	2024-11-08T16:00:00	7	Dirección del viento	4.83
93499	7	Sololá	701	Sololá	4	Finca Santa Victoria	3	Marzo	2023-05-03T00:00:00	2024-11-08T16:00:00	1	Precipitación	0
93500	7	Sololá	701	Sololá	4	Finca Santa Victoria	3	Marzo	2023-05-03T00:00:00	2024-11-08T16:00:00	8	Radiación solar	177
93501	7	Sololá	701	Sololá	4	Finca Santa Victoria	3	Marzo	2023-05-03T00:00:00	2024-11-08T17:00:00	2	Temperatura media	16.1
93502	7	Sololá	701	Sololá	4	Finca Santa Victoria	3	Marzo	2023-05-03T00:00:00	2024-11-08T17:00:00	4	Temperatura máxima	17.9
93503	7	Sololá	701	Sololá	4	Finca Santa Victoria	3	Marzo	2023-05-03T00:00:00	2024-11-08T17:00:00	3	Temperatura mínima	16.1
93504	7	Sololá	701	Sololá	4	Finca Santa Victoria	3	Marzo	2023-05-03T00:00:00	2024-11-08T17:00:00	5	Humedad	92
93505	7	Sololá	701	Sololá	4	Finca Santa Victoria	3	Marzo	2023-05-03T00:00:00	2024-11-08T17:00:00	6	Velocidad del viento	4.8
93506	7	Sololá	701	Sololá	4	Finca Santa Victoria	3	Marzo	2023-05-03T00:00:00	2024-11-08T17:00:00	7	Dirección del viento	4.83
93507	7	Sololá	701	Sololá	4	Finca Santa Victoria	3	Marzo	2023-05-03T00:00:00	2024-11-08T17:00:00	1	Precipitación	0
93508	7	Sololá	701	Sololá	4	Finca Santa Victoria	3	Marzo	2023-05-03T00:00:00	2024-11-08T17:00:00	8	Radiación solar	91
93509	7	Sololá	701	Sololá	4	Finca Santa Victoria	3	Marzo	2023-05-03T00:00:00	2024-11-08T18:00:00	2	Temperatura media	15.3
93510	7	Sololá	701	Sololá	4	Finca Santa Victoria	3	Marzo	2023-05-03T00:00:00	2024-11-08T18:00:00	4	Temperatura máxima	16.1
93511	7	Sololá	701	Sololá	4	Finca Santa Victoria	3	Marzo	2023-05-03T00:00:00	2024-11-08T18:00:00	3	Temperatura mínima	15.3
93512	7	Sololá	701	Sololá	4	Finca Santa Victoria	3	Marzo	2023-05-03T00:00:00	2024-11-08T18:00:00	5	Humedad	94
93513	7	Sololá	701	Sololá	4	Finca Santa Victoria	3	Marzo	2023-05-03T00:00:00	2024-11-08T18:00:00	6	Velocidad del viento	3.2
93514	7	Sololá	701	Sololá	4	Finca Santa Victoria	3	Marzo	2023-05-03T00:00:00	2024-11-08T18:00:00	7	Dirección del viento	3.22
93515	7	Sololá	701	Sololá	4	Finca Santa Victoria	3	Marzo	2023-05-03T00:00:00	2024-11-08T18:00:00	1	Precipitación	0
93516	7	Sololá	701	Sololá	4	Finca Santa Victoria	3	Marzo	2023-05-03T00:00:00	2024-11-08T18:00:00	8	Radiación solar	42
93517	7	Sololá	701	Sololá	4	Finca Santa Victoria	3	Marzo	2023-05-03T00:00:00	2024-11-08T19:00:00	2	Temperatura media	14.7
93518	7	Sololá	701	Sololá	4	Finca Santa Victoria	3	Marzo	2023-05-03T00:00:00	2024-11-08T19:00:00	4	Temperatura máxima	15.3
93519	7	Sololá	701	Sololá	4	Finca Santa Victoria	3	Marzo	2023-05-03T00:00:00	2024-11-08T19:00:00	3	Temperatura mínima	14.7
93520	7	Sololá	701	Sololá	4	Finca Santa Victoria	3	Marzo	2023-05-03T00:00:00	2024-11-08T19:00:00	5	Humedad	95
93521	7	Sololá	701	Sololá	4	Finca Santa Victoria	3	Marzo	2023-05-03T00:00:00	2024-11-08T19:00:00	6	Velocidad del viento	0
93522	7	Sololá	701	Sololá	4	Finca Santa Victoria	3	Marzo	2023-05-03T00:00:00	2024-11-08T19:00:00	7	Dirección del viento	0
93523	7	Sololá	701	Sololá	4	Finca Santa Victoria	3	Marzo	2023-05-03T00:00:00	2024-11-08T19:00:00	1	Precipitación	0
93524	7	Sololá	701	Sololá	4	Finca Santa Victoria	3	Marzo	2023-05-03T00:00:00	2024-11-08T19:00:00	8	Radiación solar	0
93525	7	Sololá	701	Sololá	4	Finca Santa Victoria	3	Marzo	2023-05-03T00:00:00	2024-11-08T20:00:00	2	Temperatura media	13.9
93526	7	Sololá	701	Sololá	4	Finca Santa Victoria	3	Marzo	2023-05-03T00:00:00	2024-11-08T20:00:00	4	Temperatura máxima	14.7
93527	7	Sololá	701	Sololá	4	Finca Santa Victoria	3	Marzo	2023-05-03T00:00:00	2024-11-08T20:00:00	3	Temperatura mínima	13.9
93528	7	Sololá	701	Sololá	4	Finca Santa Victoria	3	Marzo	2023-05-03T00:00:00	2024-11-08T20:00:00	5	Humedad	95
93529	7	Sololá	701	Sololá	4	Finca Santa Victoria	3	Marzo	2023-05-03T00:00:00	2024-11-08T20:00:00	6	Velocidad del viento	0
93530	7	Sololá	701	Sololá	4	Finca Santa Victoria	3	Marzo	2023-05-03T00:00:00	2024-11-08T20:00:00	7	Dirección del viento	0
93531	7	Sololá	701	Sololá	4	Finca Santa Victoria	3	Marzo	2023-05-03T00:00:00	2024-11-08T20:00:00	1	Precipitación	0
93532	7	Sololá	701	Sololá	4	Finca Santa Victoria	3	Marzo	2023-05-03T00:00:00	2024-11-08T20:00:00	8	Radiación solar	0
93533	7	Sololá	701	Sololá	4	Finca Santa Victoria	3	Marzo	2023-05-03T00:00:00	2024-11-08T21:00:00	2	Temperatura media	13.2
93534	7	Sololá	701	Sololá	4	Finca Santa Victoria	3	Marzo	2023-05-03T00:00:00	2024-11-08T21:00:00	4	Temperatura máxima	13.9
93535	7	Sololá	701	Sololá	4	Finca Santa Victoria	3	Marzo	2023-05-03T00:00:00	2024-11-08T21:00:00	3	Temperatura mínima	13.2
93536	7	Sololá	701	Sololá	4	Finca Santa Victoria	3	Marzo	2023-05-03T00:00:00	2024-11-08T21:00:00	5	Humedad	88
93537	7	Sololá	701	Sololá	4	Finca Santa Victoria	3	Marzo	2023-05-03T00:00:00	2024-11-08T21:00:00	6	Velocidad del viento	1.6
93538	7	Sololá	701	Sololá	4	Finca Santa Victoria	3	Marzo	2023-05-03T00:00:00	2024-11-08T21:00:00	7	Dirección del viento	1.61
93539	7	Sololá	701	Sololá	4	Finca Santa Victoria	3	Marzo	2023-05-03T00:00:00	2024-11-08T21:00:00	1	Precipitación	0
93540	7	Sololá	701	Sololá	4	Finca Santa Victoria	3	Marzo	2023-05-03T00:00:00	2024-11-08T21:00:00	8	Radiación solar	0
93541	7	Sololá	701	Sololá	4	Finca Santa Victoria	3	Marzo	2023-05-03T00:00:00	2024-11-08T22:00:00	2	Temperatura media	13.1
93542	7	Sololá	701	Sololá	4	Finca Santa Victoria	3	Marzo	2023-05-03T00:00:00	2024-11-08T22:00:00	4	Temperatura máxima	13.3
93543	7	Sololá	701	Sololá	4	Finca Santa Victoria	3	Marzo	2023-05-03T00:00:00	2024-11-08T22:00:00	3	Temperatura mínima	12.8
93544	7	Sololá	701	Sololá	4	Finca Santa Victoria	3	Marzo	2023-05-03T00:00:00	2024-11-08T22:00:00	5	Humedad	83
93545	7	Sololá	701	Sololá	4	Finca Santa Victoria	3	Marzo	2023-05-03T00:00:00	2024-11-08T22:00:00	6	Velocidad del viento	1.6
93546	7	Sololá	701	Sololá	4	Finca Santa Victoria	3	Marzo	2023-05-03T00:00:00	2024-11-08T22:00:00	7	Dirección del viento	1.61
93547	7	Sololá	701	Sololá	4	Finca Santa Victoria	3	Marzo	2023-05-03T00:00:00	2024-11-08T22:00:00	1	Precipitación	0
93548	7	Sololá	701	Sololá	4	Finca Santa Victoria	3	Marzo	2023-05-03T00:00:00	2024-11-08T22:00:00	8	Radiación solar	0
93549	7	Sololá	701	Sololá	4	Finca Santa Victoria	3	Marzo	2023-05-03T00:00:00	2024-11-08T23:00:00	2	Temperatura media	12.9
93550	7	Sololá	701	Sololá	4	Finca Santa Victoria	3	Marzo	2023-05-03T00:00:00	2024-11-08T23:00:00	4	Temperatura máxima	13.1
93551	7	Sololá	701	Sololá	4	Finca Santa Victoria	3	Marzo	2023-05-03T00:00:00	2024-11-08T23:00:00	3	Temperatura mínima	12.6
93552	7	Sololá	701	Sololá	4	Finca Santa Victoria	3	Marzo	2023-05-03T00:00:00	2024-11-08T23:00:00	5	Humedad	84
93553	7	Sololá	701	Sololá	4	Finca Santa Victoria	3	Marzo	2023-05-03T00:00:00	2024-11-08T23:00:00	6	Velocidad del viento	1.6
93554	7	Sololá	701	Sololá	4	Finca Santa Victoria	3	Marzo	2023-05-03T00:00:00	2024-11-08T23:00:00	7	Dirección del viento	1.61
93555	7	Sololá	701	Sololá	4	Finca Santa Victoria	3	Marzo	2023-05-03T00:00:00	2024-11-08T23:00:00	1	Precipitación	0
93556	7	Sololá	701	Sololá	4	Finca Santa Victoria	3	Marzo	2023-05-03T00:00:00	2024-11-08T23:00:00	8	Radiación solar	0
93557	7	Sololá	701	Sololá	4	Finca Santa Victoria	3	Marzo	2023-06-03T00:00:00	2024-11-08T00:00:00	2	Temperatura media	12.7
93558	7	Sololá	701	Sololá	4	Finca Santa Victoria	3	Marzo	2023-06-03T00:00:00	2024-11-08T00:00:00	4	Temperatura máxima	13
93559	7	Sololá	701	Sololá	4	Finca Santa Victoria	3	Marzo	2023-06-03T00:00:00	2024-11-08T00:00:00	3	Temperatura mínima	12.7
93560	7	Sololá	701	Sololá	4	Finca Santa Victoria	3	Marzo	2023-06-03T00:00:00	2024-11-08T00:00:00	5	Humedad	85
93561	7	Sololá	701	Sololá	4	Finca Santa Victoria	3	Marzo	2023-06-03T00:00:00	2024-11-08T00:00:00	6	Velocidad del viento	3.2
93562	7	Sololá	701	Sololá	4	Finca Santa Victoria	3	Marzo	2023-06-03T00:00:00	2024-11-08T00:00:00	7	Dirección del viento	3.22
93563	7	Sololá	701	Sololá	4	Finca Santa Victoria	3	Marzo	2023-06-03T00:00:00	2024-11-08T00:00:00	1	Precipitación	0
93564	7	Sololá	701	Sololá	4	Finca Santa Victoria	3	Marzo	2023-06-03T00:00:00	2024-11-08T00:00:00	8	Radiación solar	0
93565	7	Sololá	701	Sololá	4	Finca Santa Victoria	3	Marzo	2023-06-03T00:00:00	2024-11-08T01:00:00	2	Temperatura media	12.3
93566	7	Sololá	701	Sololá	4	Finca Santa Victoria	3	Marzo	2023-06-03T00:00:00	2024-11-08T01:00:00	4	Temperatura máxima	12.8
93567	7	Sololá	701	Sololá	4	Finca Santa Victoria	3	Marzo	2023-06-03T00:00:00	2024-11-08T01:00:00	3	Temperatura mínima	12.3
93568	7	Sololá	701	Sololá	4	Finca Santa Victoria	3	Marzo	2023-06-03T00:00:00	2024-11-08T01:00:00	5	Humedad	82
93569	7	Sololá	701	Sololá	4	Finca Santa Victoria	3	Marzo	2023-06-03T00:00:00	2024-11-08T01:00:00	6	Velocidad del viento	3.2
93570	7	Sololá	701	Sololá	4	Finca Santa Victoria	3	Marzo	2023-06-03T00:00:00	2024-11-08T01:00:00	7	Dirección del viento	3.22
93571	7	Sololá	701	Sololá	4	Finca Santa Victoria	3	Marzo	2023-06-03T00:00:00	2024-11-08T01:00:00	1	Precipitación	0
93572	7	Sololá	701	Sololá	4	Finca Santa Victoria	3	Marzo	2023-06-03T00:00:00	2024-11-08T01:00:00	8	Radiación solar	0
93573	7	Sololá	701	Sololá	4	Finca Santa Victoria	3	Marzo	2023-06-03T00:00:00	2024-11-08T02:00:00	2	Temperatura media	11
93574	7	Sololá	701	Sololá	4	Finca Santa Victoria	3	Marzo	2023-06-03T00:00:00	2024-11-08T02:00:00	4	Temperatura máxima	12.3
93575	7	Sololá	701	Sololá	4	Finca Santa Victoria	3	Marzo	2023-06-03T00:00:00	2024-11-08T02:00:00	3	Temperatura mínima	11
93576	7	Sololá	701	Sololá	4	Finca Santa Victoria	3	Marzo	2023-06-03T00:00:00	2024-11-08T02:00:00	5	Humedad	88
93577	7	Sololá	701	Sololá	4	Finca Santa Victoria	3	Marzo	2023-06-03T00:00:00	2024-11-08T02:00:00	6	Velocidad del viento	1.6
93578	7	Sololá	701	Sololá	4	Finca Santa Victoria	3	Marzo	2023-06-03T00:00:00	2024-11-08T02:00:00	7	Dirección del viento	1.61
93579	7	Sololá	701	Sololá	4	Finca Santa Victoria	3	Marzo	2023-06-03T00:00:00	2024-11-08T02:00:00	1	Precipitación	0
93580	7	Sololá	701	Sololá	4	Finca Santa Victoria	3	Marzo	2023-06-03T00:00:00	2024-11-08T02:00:00	8	Radiación solar	0
93581	7	Sololá	701	Sololá	4	Finca Santa Victoria	3	Marzo	2023-06-03T00:00:00	2024-11-08T03:00:00	2	Temperatura media	10.8
93582	7	Sololá	701	Sololá	4	Finca Santa Victoria	3	Marzo	2023-06-03T00:00:00	2024-11-08T03:00:00	4	Temperatura máxima	11.2
93583	7	Sololá	701	Sololá	4	Finca Santa Victoria	3	Marzo	2023-06-03T00:00:00	2024-11-08T03:00:00	3	Temperatura mínima	10.7
93584	7	Sololá	701	Sololá	4	Finca Santa Victoria	3	Marzo	2023-06-03T00:00:00	2024-11-08T03:00:00	5	Humedad	88
93585	7	Sololá	701	Sololá	4	Finca Santa Victoria	3	Marzo	2023-06-03T00:00:00	2024-11-08T03:00:00	6	Velocidad del viento	1.6
93586	7	Sololá	701	Sololá	4	Finca Santa Victoria	3	Marzo	2023-06-03T00:00:00	2024-11-08T03:00:00	7	Dirección del viento	1.61
93587	7	Sololá	701	Sololá	4	Finca Santa Victoria	3	Marzo	2023-06-03T00:00:00	2024-11-08T03:00:00	1	Precipitación	0
93588	7	Sololá	701	Sololá	4	Finca Santa Victoria	3	Marzo	2023-06-03T00:00:00	2024-11-08T03:00:00	8	Radiación solar	0
93589	7	Sololá	701	Sololá	4	Finca Santa Victoria	3	Marzo	2023-06-03T00:00:00	2024-11-08T04:00:00	2	Temperatura media	10.7
93590	7	Sololá	701	Sololá	4	Finca Santa Victoria	3	Marzo	2023-06-03T00:00:00	2024-11-08T04:00:00	4	Temperatura máxima	11
93591	7	Sololá	701	Sololá	4	Finca Santa Victoria	3	Marzo	2023-06-03T00:00:00	2024-11-08T04:00:00	3	Temperatura mínima	10.6
93592	7	Sololá	701	Sololá	4	Finca Santa Victoria	3	Marzo	2023-06-03T00:00:00	2024-11-08T04:00:00	5	Humedad	87
93593	7	Sololá	701	Sololá	4	Finca Santa Victoria	3	Marzo	2023-06-03T00:00:00	2024-11-08T04:00:00	6	Velocidad del viento	1.6
93594	7	Sololá	701	Sololá	4	Finca Santa Victoria	3	Marzo	2023-06-03T00:00:00	2024-11-08T04:00:00	7	Dirección del viento	1.61
93595	7	Sololá	701	Sololá	4	Finca Santa Victoria	3	Marzo	2023-06-03T00:00:00	2024-11-08T04:00:00	1	Precipitación	0
93596	7	Sololá	701	Sololá	4	Finca Santa Victoria	3	Marzo	2023-06-03T00:00:00	2024-11-08T04:00:00	8	Radiación solar	0
93597	7	Sololá	701	Sololá	4	Finca Santa Victoria	3	Marzo	2023-06-03T00:00:00	2024-11-08T05:00:00	2	Temperatura media	10.1
93598	7	Sololá	701	Sololá	4	Finca Santa Victoria	3	Marzo	2023-06-03T00:00:00	2024-11-08T05:00:00	4	Temperatura máxima	10.7
93599	7	Sololá	701	Sololá	4	Finca Santa Victoria	3	Marzo	2023-06-03T00:00:00	2024-11-08T05:00:00	3	Temperatura mínima	10.1
93600	7	Sololá	701	Sololá	4	Finca Santa Victoria	3	Marzo	2023-06-03T00:00:00	2024-11-08T05:00:00	5	Humedad	90
93601	7	Sololá	701	Sololá	4	Finca Santa Victoria	3	Marzo	2023-06-03T00:00:00	2024-11-08T05:00:00	6	Velocidad del viento	1.6
93602	7	Sololá	701	Sololá	4	Finca Santa Victoria	3	Marzo	2023-06-03T00:00:00	2024-11-08T05:00:00	7	Dirección del viento	1.61
93603	7	Sololá	701	Sololá	4	Finca Santa Victoria	3	Marzo	2023-06-03T00:00:00	2024-11-08T05:00:00	1	Precipitación	0
93604	7	Sololá	701	Sololá	4	Finca Santa Victoria	3	Marzo	2023-06-03T00:00:00	2024-11-08T05:00:00	8	Radiación solar	0
93605	7	Sololá	701	Sololá	4	Finca Santa Victoria	3	Marzo	2023-06-03T00:00:00	2024-11-08T06:00:00	2	Temperatura media	9.9
93606	7	Sololá	701	Sololá	4	Finca Santa Victoria	3	Marzo	2023-06-03T00:00:00	2024-11-08T06:00:00	4	Temperatura máxima	10.3
93607	7	Sololá	701	Sololá	4	Finca Santa Victoria	3	Marzo	2023-06-03T00:00:00	2024-11-08T06:00:00	3	Temperatura mínima	9.9
93608	7	Sololá	701	Sololá	4	Finca Santa Victoria	3	Marzo	2023-06-03T00:00:00	2024-11-08T06:00:00	5	Humedad	91
93609	7	Sololá	701	Sololá	4	Finca Santa Victoria	3	Marzo	2023-06-03T00:00:00	2024-11-08T06:00:00	6	Velocidad del viento	1.6
93610	7	Sololá	701	Sololá	4	Finca Santa Victoria	3	Marzo	2023-06-03T00:00:00	2024-11-08T06:00:00	7	Dirección del viento	1.61
93611	7	Sololá	701	Sololá	4	Finca Santa Victoria	3	Marzo	2023-06-03T00:00:00	2024-11-08T06:00:00	1	Precipitación	0
93612	7	Sololá	701	Sololá	4	Finca Santa Victoria	3	Marzo	2023-06-03T00:00:00	2024-11-08T06:00:00	8	Radiación solar	0
93613	7	Sololá	701	Sololá	4	Finca Santa Victoria	3	Marzo	2023-06-03T00:00:00	2024-11-08T07:00:00	2	Temperatura media	10.6
93614	7	Sololá	701	Sololá	4	Finca Santa Victoria	3	Marzo	2023-06-03T00:00:00	2024-11-08T07:00:00	4	Temperatura máxima	10.6
93615	7	Sololá	701	Sololá	4	Finca Santa Victoria	3	Marzo	2023-06-03T00:00:00	2024-11-08T07:00:00	3	Temperatura mínima	9.8
93616	7	Sololá	701	Sololá	4	Finca Santa Victoria	3	Marzo	2023-06-03T00:00:00	2024-11-08T07:00:00	5	Humedad	89
93617	7	Sololá	701	Sololá	4	Finca Santa Victoria	3	Marzo	2023-06-03T00:00:00	2024-11-08T07:00:00	6	Velocidad del viento	1.6
93618	7	Sololá	701	Sololá	4	Finca Santa Victoria	3	Marzo	2023-06-03T00:00:00	2024-11-08T07:00:00	7	Dirección del viento	1.61
93619	7	Sololá	701	Sololá	4	Finca Santa Victoria	3	Marzo	2023-06-03T00:00:00	2024-11-08T07:00:00	1	Precipitación	0
93620	7	Sololá	701	Sololá	4	Finca Santa Victoria	3	Marzo	2023-06-03T00:00:00	2024-11-08T07:00:00	8	Radiación solar	8
93621	7	Sololá	701	Sololá	4	Finca Santa Victoria	3	Marzo	2023-06-03T00:00:00	2024-11-08T08:00:00	2	Temperatura media	14.1
93622	7	Sololá	701	Sololá	4	Finca Santa Victoria	3	Marzo	2023-06-03T00:00:00	2024-11-08T08:00:00	4	Temperatura máxima	14.1
93623	7	Sololá	701	Sololá	4	Finca Santa Victoria	3	Marzo	2023-06-03T00:00:00	2024-11-08T08:00:00	3	Temperatura mínima	10.5
93624	7	Sololá	701	Sololá	4	Finca Santa Victoria	3	Marzo	2023-06-03T00:00:00	2024-11-08T08:00:00	5	Humedad	79
93625	7	Sololá	701	Sololá	4	Finca Santa Victoria	3	Marzo	2023-06-03T00:00:00	2024-11-08T08:00:00	6	Velocidad del viento	1.6
93626	7	Sololá	701	Sololá	4	Finca Santa Victoria	3	Marzo	2023-06-03T00:00:00	2024-11-08T08:00:00	7	Dirección del viento	1.61
93627	7	Sololá	701	Sololá	4	Finca Santa Victoria	3	Marzo	2023-06-03T00:00:00	2024-11-08T08:00:00	1	Precipitación	0
93628	7	Sololá	701	Sololá	4	Finca Santa Victoria	3	Marzo	2023-06-03T00:00:00	2024-11-08T08:00:00	8	Radiación solar	118
93629	7	Sololá	701	Sololá	4	Finca Santa Victoria	3	Marzo	2023-06-03T00:00:00	2024-11-08T09:00:00	2	Temperatura media	16.6
93630	7	Sololá	701	Sololá	4	Finca Santa Victoria	3	Marzo	2023-06-03T00:00:00	2024-11-08T09:00:00	4	Temperatura máxima	16.6
93631	7	Sololá	701	Sololá	4	Finca Santa Victoria	3	Marzo	2023-06-03T00:00:00	2024-11-08T09:00:00	3	Temperatura mínima	14.2
93632	7	Sololá	701	Sololá	4	Finca Santa Victoria	3	Marzo	2023-06-03T00:00:00	2024-11-08T09:00:00	5	Humedad	68
93633	7	Sololá	701	Sololá	4	Finca Santa Victoria	3	Marzo	2023-06-03T00:00:00	2024-11-08T09:00:00	6	Velocidad del viento	1.6
93634	7	Sololá	701	Sololá	4	Finca Santa Victoria	3	Marzo	2023-06-03T00:00:00	2024-11-08T09:00:00	7	Dirección del viento	1.61
93635	7	Sololá	701	Sololá	4	Finca Santa Victoria	3	Marzo	2023-06-03T00:00:00	2024-11-08T09:00:00	1	Precipitación	0
93636	7	Sololá	701	Sololá	4	Finca Santa Victoria	3	Marzo	2023-06-03T00:00:00	2024-11-08T09:00:00	8	Radiación solar	456
93637	7	Sololá	701	Sololá	4	Finca Santa Victoria	3	Marzo	2023-06-03T00:00:00	2024-11-08T10:00:00	2	Temperatura media	19.1
93638	7	Sololá	701	Sololá	4	Finca Santa Victoria	3	Marzo	2023-06-03T00:00:00	2024-11-08T10:00:00	4	Temperatura máxima	19.1
93639	7	Sololá	701	Sololá	4	Finca Santa Victoria	3	Marzo	2023-06-03T00:00:00	2024-11-08T10:00:00	3	Temperatura mínima	16.6
93640	7	Sololá	701	Sololá	4	Finca Santa Victoria	3	Marzo	2023-06-03T00:00:00	2024-11-08T10:00:00	5	Humedad	53
93641	7	Sololá	701	Sololá	4	Finca Santa Victoria	3	Marzo	2023-06-03T00:00:00	2024-11-08T10:00:00	6	Velocidad del viento	3.2
93642	7	Sololá	701	Sololá	4	Finca Santa Victoria	3	Marzo	2023-06-03T00:00:00	2024-11-08T10:00:00	7	Dirección del viento	3.22
93643	7	Sololá	701	Sololá	4	Finca Santa Victoria	3	Marzo	2023-06-03T00:00:00	2024-11-08T10:00:00	1	Precipitación	0
93644	7	Sololá	701	Sololá	4	Finca Santa Victoria	3	Marzo	2023-06-03T00:00:00	2024-11-08T10:00:00	8	Radiación solar	720
93645	7	Sololá	701	Sololá	4	Finca Santa Victoria	3	Marzo	2023-06-03T00:00:00	2024-11-08T11:00:00	2	Temperatura media	22.7
93646	7	Sololá	701	Sololá	4	Finca Santa Victoria	3	Marzo	2023-06-03T00:00:00	2024-11-08T11:00:00	4	Temperatura máxima	22.7
93647	7	Sololá	701	Sololá	4	Finca Santa Victoria	3	Marzo	2023-06-03T00:00:00	2024-11-08T11:00:00	3	Temperatura mínima	19.1
93648	7	Sololá	701	Sololá	4	Finca Santa Victoria	3	Marzo	2023-06-03T00:00:00	2024-11-08T11:00:00	5	Humedad	38
93649	7	Sololá	701	Sololá	4	Finca Santa Victoria	3	Marzo	2023-06-03T00:00:00	2024-11-08T11:00:00	6	Velocidad del viento	3.2
93650	7	Sololá	701	Sololá	4	Finca Santa Victoria	3	Marzo	2023-06-03T00:00:00	2024-11-08T11:00:00	7	Dirección del viento	3.22
93651	7	Sololá	701	Sololá	4	Finca Santa Victoria	3	Marzo	2023-06-03T00:00:00	2024-11-08T11:00:00	1	Precipitación	0
93652	7	Sololá	701	Sololá	4	Finca Santa Victoria	3	Marzo	2023-06-03T00:00:00	2024-11-08T11:00:00	8	Radiación solar	880
93653	7	Sololá	701	Sololá	4	Finca Santa Victoria	3	Marzo	2023-06-03T00:00:00	2024-11-08T12:00:00	2	Temperatura media	20.5
93654	7	Sololá	701	Sololá	4	Finca Santa Victoria	3	Marzo	2023-06-03T00:00:00	2024-11-08T12:00:00	4	Temperatura máxima	22.9
93655	7	Sololá	701	Sololá	4	Finca Santa Victoria	3	Marzo	2023-06-03T00:00:00	2024-11-08T12:00:00	3	Temperatura mínima	20.5
93656	7	Sololá	701	Sololá	4	Finca Santa Victoria	3	Marzo	2023-06-03T00:00:00	2024-11-08T12:00:00	5	Humedad	57
93657	7	Sololá	701	Sololá	4	Finca Santa Victoria	3	Marzo	2023-06-03T00:00:00	2024-11-08T12:00:00	6	Velocidad del viento	4.8
93658	7	Sololá	701	Sololá	4	Finca Santa Victoria	3	Marzo	2023-06-03T00:00:00	2024-11-08T12:00:00	7	Dirección del viento	4.83
93659	7	Sololá	701	Sololá	4	Finca Santa Victoria	3	Marzo	2023-06-03T00:00:00	2024-11-08T12:00:00	1	Precipitación	0
93660	7	Sololá	701	Sololá	4	Finca Santa Victoria	3	Marzo	2023-06-03T00:00:00	2024-11-08T12:00:00	8	Radiación solar	916
93661	7	Sololá	701	Sololá	4	Finca Santa Victoria	3	Marzo	2023-06-03T00:00:00	2024-11-08T13:00:00	2	Temperatura media	21.1
93662	7	Sololá	701	Sololá	4	Finca Santa Victoria	3	Marzo	2023-06-03T00:00:00	2024-11-08T13:00:00	4	Temperatura máxima	21.7
93663	7	Sololá	701	Sololá	4	Finca Santa Victoria	3	Marzo	2023-06-03T00:00:00	2024-11-08T13:00:00	3	Temperatura mínima	20.1
93664	7	Sololá	701	Sololá	4	Finca Santa Victoria	3	Marzo	2023-06-03T00:00:00	2024-11-08T13:00:00	5	Humedad	65
93665	7	Sololá	701	Sololá	4	Finca Santa Victoria	3	Marzo	2023-06-03T00:00:00	2024-11-08T13:00:00	6	Velocidad del viento	4.8
93666	7	Sololá	701	Sololá	4	Finca Santa Victoria	3	Marzo	2023-06-03T00:00:00	2024-11-08T13:00:00	7	Dirección del viento	4.83
93667	7	Sololá	701	Sololá	4	Finca Santa Victoria	3	Marzo	2023-06-03T00:00:00	2024-11-08T13:00:00	1	Precipitación	0
93668	7	Sololá	701	Sololá	4	Finca Santa Victoria	3	Marzo	2023-06-03T00:00:00	2024-11-08T13:00:00	8	Radiación solar	934
93669	7	Sololá	701	Sololá	4	Finca Santa Victoria	3	Marzo	2023-06-03T00:00:00	2024-11-08T14:00:00	2	Temperatura media	20.7
93670	7	Sololá	701	Sololá	4	Finca Santa Victoria	3	Marzo	2023-06-03T00:00:00	2024-11-08T14:00:00	4	Temperatura máxima	21.1
93671	7	Sololá	701	Sololá	4	Finca Santa Victoria	3	Marzo	2023-06-03T00:00:00	2024-11-08T14:00:00	3	Temperatura mínima	19.9
93672	7	Sololá	701	Sololá	4	Finca Santa Victoria	3	Marzo	2023-06-03T00:00:00	2024-11-08T14:00:00	5	Humedad	72
93673	7	Sololá	701	Sololá	4	Finca Santa Victoria	3	Marzo	2023-06-03T00:00:00	2024-11-08T14:00:00	6	Velocidad del viento	4.8
93674	7	Sololá	701	Sololá	4	Finca Santa Victoria	3	Marzo	2023-06-03T00:00:00	2024-11-08T14:00:00	7	Dirección del viento	4.83
93675	7	Sololá	701	Sololá	4	Finca Santa Victoria	3	Marzo	2023-06-03T00:00:00	2024-11-08T14:00:00	1	Precipitación	0
93676	7	Sololá	701	Sololá	4	Finca Santa Victoria	3	Marzo	2023-06-03T00:00:00	2024-11-08T14:00:00	8	Radiación solar	486
93677	7	Sololá	701	Sololá	4	Finca Santa Victoria	3	Marzo	2023-06-03T00:00:00	2024-11-08T15:00:00	2	Temperatura media	17.6
93678	7	Sololá	701	Sololá	4	Finca Santa Victoria	3	Marzo	2023-06-03T00:00:00	2024-11-08T15:00:00	4	Temperatura máxima	20.9
93679	7	Sololá	701	Sololá	4	Finca Santa Victoria	3	Marzo	2023-06-03T00:00:00	2024-11-08T15:00:00	3	Temperatura mínima	17.6
93680	7	Sololá	701	Sololá	4	Finca Santa Victoria	3	Marzo	2023-06-03T00:00:00	2024-11-08T15:00:00	5	Humedad	82
93681	7	Sololá	701	Sololá	4	Finca Santa Victoria	3	Marzo	2023-06-03T00:00:00	2024-11-08T15:00:00	6	Velocidad del viento	4.8
93682	7	Sololá	701	Sololá	4	Finca Santa Victoria	3	Marzo	2023-06-03T00:00:00	2024-11-08T15:00:00	7	Dirección del viento	4.83
93683	7	Sololá	701	Sololá	4	Finca Santa Victoria	3	Marzo	2023-06-03T00:00:00	2024-11-08T15:00:00	1	Precipitación	0
93684	7	Sololá	701	Sololá	4	Finca Santa Victoria	3	Marzo	2023-06-03T00:00:00	2024-11-08T15:00:00	8	Radiación solar	293
93685	7	Sololá	701	Sololá	4	Finca Santa Victoria	3	Marzo	2023-06-03T00:00:00	2024-11-08T16:00:00	2	Temperatura media	19.2
93686	7	Sololá	701	Sololá	4	Finca Santa Victoria	3	Marzo	2023-06-03T00:00:00	2024-11-08T16:00:00	4	Temperatura máxima	19.3
93687	7	Sololá	701	Sololá	4	Finca Santa Victoria	3	Marzo	2023-06-03T00:00:00	2024-11-08T16:00:00	3	Temperatura mínima	17.6
93688	7	Sololá	701	Sololá	4	Finca Santa Victoria	3	Marzo	2023-06-03T00:00:00	2024-11-08T16:00:00	5	Humedad	77
93689	7	Sololá	701	Sololá	4	Finca Santa Victoria	3	Marzo	2023-06-03T00:00:00	2024-11-08T16:00:00	6	Velocidad del viento	4.8
93690	7	Sololá	701	Sololá	4	Finca Santa Victoria	3	Marzo	2023-06-03T00:00:00	2024-11-08T16:00:00	7	Dirección del viento	4.83
93691	7	Sololá	701	Sololá	4	Finca Santa Victoria	3	Marzo	2023-06-03T00:00:00	2024-11-08T16:00:00	1	Precipitación	0
93692	7	Sololá	701	Sololá	4	Finca Santa Victoria	3	Marzo	2023-06-03T00:00:00	2024-11-08T16:00:00	8	Radiación solar	335
93693	7	Sololá	701	Sololá	4	Finca Santa Victoria	3	Marzo	2023-06-03T00:00:00	2024-11-08T17:00:00	2	Temperatura media	17.2
93694	7	Sololá	701	Sololá	4	Finca Santa Victoria	3	Marzo	2023-06-03T00:00:00	2024-11-08T17:00:00	4	Temperatura máxima	19.3
93695	7	Sololá	701	Sololá	4	Finca Santa Victoria	3	Marzo	2023-06-03T00:00:00	2024-11-08T17:00:00	3	Temperatura mínima	17.2
93696	7	Sololá	701	Sololá	4	Finca Santa Victoria	3	Marzo	2023-06-03T00:00:00	2024-11-08T17:00:00	5	Humedad	84
93697	7	Sololá	701	Sololá	4	Finca Santa Victoria	3	Marzo	2023-06-03T00:00:00	2024-11-08T17:00:00	6	Velocidad del viento	4.8
93698	7	Sololá	701	Sololá	4	Finca Santa Victoria	3	Marzo	2023-06-03T00:00:00	2024-11-08T17:00:00	7	Dirección del viento	4.83
93699	7	Sololá	701	Sololá	4	Finca Santa Victoria	3	Marzo	2023-06-03T00:00:00	2024-11-08T17:00:00	1	Precipitación	0
93700	7	Sololá	701	Sololá	4	Finca Santa Victoria	3	Marzo	2023-06-03T00:00:00	2024-11-08T17:00:00	8	Radiación solar	246
93701	7	Sololá	701	Sololá	4	Finca Santa Victoria	3	Marzo	2023-06-03T00:00:00	2024-11-08T18:00:00	2	Temperatura media	15.3
93702	7	Sololá	701	Sololá	4	Finca Santa Victoria	3	Marzo	2023-06-03T00:00:00	2024-11-08T18:00:00	4	Temperatura máxima	17.2
93703	7	Sololá	701	Sololá	4	Finca Santa Victoria	3	Marzo	2023-06-03T00:00:00	2024-11-08T18:00:00	3	Temperatura mínima	15.3
93704	7	Sololá	701	Sololá	4	Finca Santa Victoria	3	Marzo	2023-06-03T00:00:00	2024-11-08T18:00:00	5	Humedad	93
93705	7	Sololá	701	Sololá	4	Finca Santa Victoria	3	Marzo	2023-06-03T00:00:00	2024-11-08T18:00:00	6	Velocidad del viento	3.2
93706	7	Sololá	701	Sololá	4	Finca Santa Victoria	3	Marzo	2023-06-03T00:00:00	2024-11-08T18:00:00	7	Dirección del viento	3.22
93707	7	Sololá	701	Sololá	4	Finca Santa Victoria	3	Marzo	2023-06-03T00:00:00	2024-11-08T18:00:00	1	Precipitación	0
93708	7	Sololá	701	Sololá	4	Finca Santa Victoria	3	Marzo	2023-06-03T00:00:00	2024-11-08T18:00:00	8	Radiación solar	52
93709	7	Sololá	701	Sololá	4	Finca Santa Victoria	3	Marzo	2023-06-03T00:00:00	2024-11-08T19:00:00	2	Temperatura media	14.4
93710	7	Sololá	701	Sololá	4	Finca Santa Victoria	3	Marzo	2023-06-03T00:00:00	2024-11-08T19:00:00	4	Temperatura máxima	15.3
93711	7	Sololá	701	Sololá	4	Finca Santa Victoria	3	Marzo	2023-06-03T00:00:00	2024-11-08T19:00:00	3	Temperatura mínima	14.4
93712	7	Sololá	701	Sololá	4	Finca Santa Victoria	3	Marzo	2023-06-03T00:00:00	2024-11-08T19:00:00	5	Humedad	91
93713	7	Sololá	701	Sololá	4	Finca Santa Victoria	3	Marzo	2023-06-03T00:00:00	2024-11-08T19:00:00	6	Velocidad del viento	1.6
93714	7	Sololá	701	Sololá	4	Finca Santa Victoria	3	Marzo	2023-06-03T00:00:00	2024-11-08T19:00:00	7	Dirección del viento	1.61
93715	7	Sololá	701	Sololá	4	Finca Santa Victoria	3	Marzo	2023-06-03T00:00:00	2024-11-08T19:00:00	1	Precipitación	0
93716	7	Sololá	701	Sololá	4	Finca Santa Victoria	3	Marzo	2023-06-03T00:00:00	2024-11-08T19:00:00	8	Radiación solar	0
93717	7	Sololá	701	Sololá	4	Finca Santa Victoria	3	Marzo	2023-06-03T00:00:00	2024-11-08T20:00:00	2	Temperatura media	13.2
93718	7	Sololá	701	Sololá	4	Finca Santa Victoria	3	Marzo	2023-06-03T00:00:00	2024-11-08T20:00:00	4	Temperatura máxima	14.4
93719	7	Sololá	701	Sololá	4	Finca Santa Victoria	3	Marzo	2023-06-03T00:00:00	2024-11-08T20:00:00	3	Temperatura mínima	13.2
93720	7	Sololá	701	Sololá	4	Finca Santa Victoria	3	Marzo	2023-06-03T00:00:00	2024-11-08T20:00:00	5	Humedad	86
93721	7	Sololá	701	Sololá	4	Finca Santa Victoria	3	Marzo	2023-06-03T00:00:00	2024-11-08T20:00:00	6	Velocidad del viento	1.6
93722	7	Sololá	701	Sololá	4	Finca Santa Victoria	3	Marzo	2023-06-03T00:00:00	2024-11-08T20:00:00	7	Dirección del viento	1.61
93723	7	Sololá	701	Sololá	4	Finca Santa Victoria	3	Marzo	2023-06-03T00:00:00	2024-11-08T20:00:00	1	Precipitación	0
93724	7	Sololá	701	Sololá	4	Finca Santa Victoria	3	Marzo	2023-06-03T00:00:00	2024-11-08T20:00:00	8	Radiación solar	0
93725	7	Sololá	701	Sololá	4	Finca Santa Victoria	3	Marzo	2023-06-03T00:00:00	2024-11-08T21:00:00	2	Temperatura media	12.6
93726	7	Sololá	701	Sololá	4	Finca Santa Victoria	3	Marzo	2023-06-03T00:00:00	2024-11-08T21:00:00	4	Temperatura máxima	13.2
93727	7	Sololá	701	Sololá	4	Finca Santa Victoria	3	Marzo	2023-06-03T00:00:00	2024-11-08T21:00:00	3	Temperatura mínima	12.6
93728	7	Sololá	701	Sololá	4	Finca Santa Victoria	3	Marzo	2023-06-03T00:00:00	2024-11-08T21:00:00	5	Humedad	84
93729	7	Sololá	701	Sololá	4	Finca Santa Victoria	3	Marzo	2023-06-03T00:00:00	2024-11-08T21:00:00	6	Velocidad del viento	1.6
93730	7	Sololá	701	Sololá	4	Finca Santa Victoria	3	Marzo	2023-06-03T00:00:00	2024-11-08T21:00:00	7	Dirección del viento	1.61
93731	7	Sololá	701	Sololá	4	Finca Santa Victoria	3	Marzo	2023-06-03T00:00:00	2024-11-08T21:00:00	1	Precipitación	0
93732	7	Sololá	701	Sololá	4	Finca Santa Victoria	3	Marzo	2023-06-03T00:00:00	2024-11-08T21:00:00	8	Radiación solar	0
93733	7	Sololá	701	Sololá	4	Finca Santa Victoria	3	Marzo	2023-06-03T00:00:00	2024-11-08T22:00:00	2	Temperatura media	11.9
93734	7	Sololá	701	Sololá	4	Finca Santa Victoria	3	Marzo	2023-06-03T00:00:00	2024-11-08T22:00:00	4	Temperatura máxima	12.6
93735	7	Sololá	701	Sololá	4	Finca Santa Victoria	3	Marzo	2023-06-03T00:00:00	2024-11-08T22:00:00	3	Temperatura mínima	11.9
93736	7	Sololá	701	Sololá	4	Finca Santa Victoria	3	Marzo	2023-06-03T00:00:00	2024-11-08T22:00:00	5	Humedad	86
93737	7	Sololá	701	Sololá	4	Finca Santa Victoria	3	Marzo	2023-06-03T00:00:00	2024-11-08T22:00:00	6	Velocidad del viento	1.6
93738	7	Sololá	701	Sololá	4	Finca Santa Victoria	3	Marzo	2023-06-03T00:00:00	2024-11-08T22:00:00	7	Dirección del viento	1.61
93739	7	Sololá	701	Sololá	4	Finca Santa Victoria	3	Marzo	2023-06-03T00:00:00	2024-11-08T22:00:00	1	Precipitación	0
93740	7	Sololá	701	Sololá	4	Finca Santa Victoria	3	Marzo	2023-06-03T00:00:00	2024-11-08T22:00:00	8	Radiación solar	0
93741	7	Sololá	701	Sololá	4	Finca Santa Victoria	3	Marzo	2023-06-03T00:00:00	2024-11-08T23:00:00	2	Temperatura media	11.5
93742	7	Sololá	701	Sololá	4	Finca Santa Victoria	3	Marzo	2023-06-03T00:00:00	2024-11-08T23:00:00	4	Temperatura máxima	12
93743	7	Sololá	701	Sololá	4	Finca Santa Victoria	3	Marzo	2023-06-03T00:00:00	2024-11-08T23:00:00	3	Temperatura mínima	11.4
93744	7	Sololá	701	Sololá	4	Finca Santa Victoria	3	Marzo	2023-06-03T00:00:00	2024-11-08T23:00:00	5	Humedad	87
93745	7	Sololá	701	Sololá	4	Finca Santa Victoria	3	Marzo	2023-06-03T00:00:00	2024-11-08T23:00:00	6	Velocidad del viento	1.6
93746	7	Sololá	701	Sololá	4	Finca Santa Victoria	3	Marzo	2023-06-03T00:00:00	2024-11-08T23:00:00	7	Dirección del viento	1.61
93747	7	Sololá	701	Sololá	4	Finca Santa Victoria	3	Marzo	2023-06-03T00:00:00	2024-11-08T23:00:00	1	Precipitación	0
93748	7	Sololá	701	Sololá	4	Finca Santa Victoria	3	Marzo	2023-06-03T00:00:00	2024-11-08T23:00:00	8	Radiación solar	0
93749	7	Sololá	701	Sololá	4	Finca Santa Victoria	3	Marzo	2023-07-03T00:00:00	2024-11-08T00:00:00	2	Temperatura media	11.3
93750	7	Sololá	701	Sololá	4	Finca Santa Victoria	3	Marzo	2023-07-03T00:00:00	2024-11-08T00:00:00	4	Temperatura máxima	11.6
93751	7	Sololá	701	Sololá	4	Finca Santa Victoria	3	Marzo	2023-07-03T00:00:00	2024-11-08T00:00:00	3	Temperatura mínima	11.3
93752	7	Sololá	701	Sololá	4	Finca Santa Victoria	3	Marzo	2023-07-03T00:00:00	2024-11-08T00:00:00	5	Humedad	86
93753	7	Sololá	701	Sololá	4	Finca Santa Victoria	3	Marzo	2023-07-03T00:00:00	2024-11-08T00:00:00	6	Velocidad del viento	1.6
93754	7	Sololá	701	Sololá	4	Finca Santa Victoria	3	Marzo	2023-07-03T00:00:00	2024-11-08T00:00:00	7	Dirección del viento	1.61
93755	7	Sololá	701	Sololá	4	Finca Santa Victoria	3	Marzo	2023-07-03T00:00:00	2024-11-08T00:00:00	1	Precipitación	0
93756	7	Sololá	701	Sololá	4	Finca Santa Victoria	3	Marzo	2023-07-03T00:00:00	2024-11-08T00:00:00	8	Radiación solar	0
93757	7	Sololá	701	Sololá	4	Finca Santa Victoria	3	Marzo	2023-07-03T00:00:00	2024-11-08T01:00:00	2	Temperatura media	9.9
93758	7	Sololá	701	Sololá	4	Finca Santa Victoria	3	Marzo	2023-07-03T00:00:00	2024-11-08T01:00:00	4	Temperatura máxima	11.3
93759	7	Sololá	701	Sololá	4	Finca Santa Victoria	3	Marzo	2023-07-03T00:00:00	2024-11-08T01:00:00	3	Temperatura mínima	9.9
93760	7	Sololá	701	Sololá	4	Finca Santa Victoria	3	Marzo	2023-07-03T00:00:00	2024-11-08T01:00:00	5	Humedad	94
93761	7	Sololá	701	Sololá	4	Finca Santa Victoria	3	Marzo	2023-07-03T00:00:00	2024-11-08T01:00:00	6	Velocidad del viento	1.6
93762	7	Sololá	701	Sololá	4	Finca Santa Victoria	3	Marzo	2023-07-03T00:00:00	2024-11-08T01:00:00	7	Dirección del viento	1.61
93763	7	Sololá	701	Sololá	4	Finca Santa Victoria	3	Marzo	2023-07-03T00:00:00	2024-11-08T01:00:00	1	Precipitación	0
93764	7	Sololá	701	Sololá	4	Finca Santa Victoria	3	Marzo	2023-07-03T00:00:00	2024-11-08T01:00:00	8	Radiación solar	0
93765	7	Sololá	701	Sololá	4	Finca Santa Victoria	3	Marzo	2023-07-03T00:00:00	2024-11-08T02:00:00	2	Temperatura media	9.6
93766	7	Sololá	701	Sololá	4	Finca Santa Victoria	3	Marzo	2023-07-03T00:00:00	2024-11-08T02:00:00	4	Temperatura máxima	10.1
93767	7	Sololá	701	Sololá	4	Finca Santa Victoria	3	Marzo	2023-07-03T00:00:00	2024-11-08T02:00:00	3	Temperatura mínima	9.5
93768	7	Sololá	701	Sololá	4	Finca Santa Victoria	3	Marzo	2023-07-03T00:00:00	2024-11-08T02:00:00	5	Humedad	96
93769	7	Sololá	701	Sololá	4	Finca Santa Victoria	3	Marzo	2023-07-03T00:00:00	2024-11-08T02:00:00	6	Velocidad del viento	1.6
93770	7	Sololá	701	Sololá	4	Finca Santa Victoria	3	Marzo	2023-07-03T00:00:00	2024-11-08T02:00:00	7	Dirección del viento	1.61
93771	7	Sololá	701	Sololá	4	Finca Santa Victoria	3	Marzo	2023-07-03T00:00:00	2024-11-08T02:00:00	1	Precipitación	0
93772	7	Sololá	701	Sololá	4	Finca Santa Victoria	3	Marzo	2023-07-03T00:00:00	2024-11-08T02:00:00	8	Radiación solar	0
93773	7	Sololá	701	Sololá	4	Finca Santa Victoria	3	Marzo	2023-07-03T00:00:00	2024-11-08T03:00:00	2	Temperatura media	9.2
93774	7	Sololá	701	Sololá	4	Finca Santa Victoria	3	Marzo	2023-07-03T00:00:00	2024-11-08T03:00:00	4	Temperatura máxima	9.6
93775	7	Sololá	701	Sololá	4	Finca Santa Victoria	3	Marzo	2023-07-03T00:00:00	2024-11-08T03:00:00	3	Temperatura mínima	9.2
93776	7	Sololá	701	Sololá	4	Finca Santa Victoria	3	Marzo	2023-07-03T00:00:00	2024-11-08T03:00:00	5	Humedad	96
93777	7	Sololá	701	Sololá	4	Finca Santa Victoria	3	Marzo	2023-07-03T00:00:00	2024-11-08T03:00:00	6	Velocidad del viento	0
93778	7	Sololá	701	Sololá	4	Finca Santa Victoria	3	Marzo	2023-07-03T00:00:00	2024-11-08T03:00:00	7	Dirección del viento	0
93779	7	Sololá	701	Sololá	4	Finca Santa Victoria	3	Marzo	2023-07-03T00:00:00	2024-11-08T03:00:00	1	Precipitación	0
93780	7	Sololá	701	Sololá	4	Finca Santa Victoria	3	Marzo	2023-07-03T00:00:00	2024-11-08T03:00:00	8	Radiación solar	0
93781	7	Sololá	701	Sololá	4	Finca Santa Victoria	3	Marzo	2023-07-03T00:00:00	2024-11-08T04:00:00	2	Temperatura media	8.1
93782	7	Sololá	701	Sololá	4	Finca Santa Victoria	3	Marzo	2023-07-03T00:00:00	2024-11-08T04:00:00	4	Temperatura máxima	9.2
93783	7	Sololá	701	Sololá	4	Finca Santa Victoria	3	Marzo	2023-07-03T00:00:00	2024-11-08T04:00:00	3	Temperatura mínima	7.8
93784	7	Sololá	701	Sololá	4	Finca Santa Victoria	3	Marzo	2023-07-03T00:00:00	2024-11-08T04:00:00	5	Humedad	95
93785	7	Sololá	701	Sololá	4	Finca Santa Victoria	3	Marzo	2023-07-03T00:00:00	2024-11-08T04:00:00	6	Velocidad del viento	1.6
93786	7	Sololá	701	Sololá	4	Finca Santa Victoria	3	Marzo	2023-07-03T00:00:00	2024-11-08T04:00:00	7	Dirección del viento	1.61
93787	7	Sololá	701	Sololá	4	Finca Santa Victoria	3	Marzo	2023-07-03T00:00:00	2024-11-08T04:00:00	1	Precipitación	0
93788	7	Sololá	701	Sololá	4	Finca Santa Victoria	3	Marzo	2023-07-03T00:00:00	2024-11-08T04:00:00	8	Radiación solar	0
93789	7	Sololá	701	Sololá	4	Finca Santa Victoria	3	Marzo	2023-07-03T00:00:00	2024-11-08T05:00:00	2	Temperatura media	8.9
93790	7	Sololá	701	Sololá	4	Finca Santa Victoria	3	Marzo	2023-07-03T00:00:00	2024-11-08T05:00:00	4	Temperatura máxima	8.9
93791	7	Sololá	701	Sololá	4	Finca Santa Victoria	3	Marzo	2023-07-03T00:00:00	2024-11-08T05:00:00	3	Temperatura mínima	8.1
93792	7	Sololá	701	Sololá	4	Finca Santa Victoria	3	Marzo	2023-07-03T00:00:00	2024-11-08T05:00:00	5	Humedad	86
93793	7	Sololá	701	Sololá	4	Finca Santa Victoria	3	Marzo	2023-07-03T00:00:00	2024-11-08T05:00:00	6	Velocidad del viento	3.2
93794	7	Sololá	701	Sololá	4	Finca Santa Victoria	3	Marzo	2023-07-03T00:00:00	2024-11-08T05:00:00	7	Dirección del viento	3.22
93795	7	Sololá	701	Sololá	4	Finca Santa Victoria	3	Marzo	2023-07-03T00:00:00	2024-11-08T05:00:00	1	Precipitación	0
93796	7	Sololá	701	Sololá	4	Finca Santa Victoria	3	Marzo	2023-07-03T00:00:00	2024-11-08T05:00:00	8	Radiación solar	0
93797	7	Sololá	701	Sololá	4	Finca Santa Victoria	3	Marzo	2023-07-03T00:00:00	2024-11-08T06:00:00	2	Temperatura media	9.8
93798	7	Sololá	701	Sololá	4	Finca Santa Victoria	3	Marzo	2023-07-03T00:00:00	2024-11-08T06:00:00	4	Temperatura máxima	9.9
93799	7	Sololá	701	Sololá	4	Finca Santa Victoria	3	Marzo	2023-07-03T00:00:00	2024-11-08T06:00:00	3	Temperatura mínima	8.9
93800	7	Sololá	701	Sololá	4	Finca Santa Victoria	3	Marzo	2023-07-03T00:00:00	2024-11-08T06:00:00	5	Humedad	83
93801	7	Sololá	701	Sololá	4	Finca Santa Victoria	3	Marzo	2023-07-03T00:00:00	2024-11-08T06:00:00	6	Velocidad del viento	1.6
93802	7	Sololá	701	Sololá	4	Finca Santa Victoria	3	Marzo	2023-07-03T00:00:00	2024-11-08T06:00:00	7	Dirección del viento	1.61
93803	7	Sololá	701	Sololá	4	Finca Santa Victoria	3	Marzo	2023-07-03T00:00:00	2024-11-08T06:00:00	1	Precipitación	0
93804	7	Sololá	701	Sololá	4	Finca Santa Victoria	3	Marzo	2023-07-03T00:00:00	2024-11-08T06:00:00	8	Radiación solar	0
93805	7	Sololá	701	Sololá	4	Finca Santa Victoria	3	Marzo	2023-07-03T00:00:00	2024-11-08T07:00:00	2	Temperatura media	10.9
93806	7	Sololá	701	Sololá	4	Finca Santa Victoria	3	Marzo	2023-07-03T00:00:00	2024-11-08T07:00:00	4	Temperatura máxima	10.9
93807	7	Sololá	701	Sololá	4	Finca Santa Victoria	3	Marzo	2023-07-03T00:00:00	2024-11-08T07:00:00	3	Temperatura mínima	9.8
93808	7	Sololá	701	Sololá	4	Finca Santa Victoria	3	Marzo	2023-07-03T00:00:00	2024-11-08T07:00:00	5	Humedad	79
93809	7	Sololá	701	Sololá	4	Finca Santa Victoria	3	Marzo	2023-07-03T00:00:00	2024-11-08T07:00:00	6	Velocidad del viento	1.6
93810	7	Sololá	701	Sololá	4	Finca Santa Victoria	3	Marzo	2023-07-03T00:00:00	2024-11-08T07:00:00	7	Dirección del viento	1.61
93811	7	Sololá	701	Sololá	4	Finca Santa Victoria	3	Marzo	2023-07-03T00:00:00	2024-11-08T07:00:00	1	Precipitación	0
93812	7	Sololá	701	Sololá	4	Finca Santa Victoria	3	Marzo	2023-07-03T00:00:00	2024-11-08T07:00:00	8	Radiación solar	13
93813	7	Sololá	701	Sololá	4	Finca Santa Victoria	3	Marzo	2023-07-03T00:00:00	2024-11-08T08:00:00	2	Temperatura media	12.8
93814	7	Sololá	701	Sololá	4	Finca Santa Victoria	3	Marzo	2023-07-03T00:00:00	2024-11-08T08:00:00	4	Temperatura máxima	12.8
93815	7	Sololá	701	Sololá	4	Finca Santa Victoria	3	Marzo	2023-07-03T00:00:00	2024-11-08T08:00:00	3	Temperatura mínima	10.9
93816	7	Sololá	701	Sololá	4	Finca Santa Victoria	3	Marzo	2023-07-03T00:00:00	2024-11-08T08:00:00	5	Humedad	75
93817	7	Sololá	701	Sololá	4	Finca Santa Victoria	3	Marzo	2023-07-03T00:00:00	2024-11-08T08:00:00	6	Velocidad del viento	0
93818	7	Sololá	701	Sololá	4	Finca Santa Victoria	3	Marzo	2023-07-03T00:00:00	2024-11-08T08:00:00	7	Dirección del viento	0
93819	7	Sololá	701	Sololá	4	Finca Santa Victoria	3	Marzo	2023-07-03T00:00:00	2024-11-08T08:00:00	1	Precipitación	0
93820	7	Sololá	701	Sololá	4	Finca Santa Victoria	3	Marzo	2023-07-03T00:00:00	2024-11-08T08:00:00	8	Radiación solar	105
93821	7	Sololá	701	Sololá	4	Finca Santa Victoria	3	Marzo	2023-07-03T00:00:00	2024-11-08T09:00:00	2	Temperatura media	14.9
93822	7	Sololá	701	Sololá	4	Finca Santa Victoria	3	Marzo	2023-07-03T00:00:00	2024-11-08T09:00:00	4	Temperatura máxima	15.5
93823	7	Sololá	701	Sololá	4	Finca Santa Victoria	3	Marzo	2023-07-03T00:00:00	2024-11-08T09:00:00	3	Temperatura mínima	12.8
93824	7	Sololá	701	Sololá	4	Finca Santa Victoria	3	Marzo	2023-07-03T00:00:00	2024-11-08T09:00:00	5	Humedad	70
93825	7	Sololá	701	Sololá	4	Finca Santa Victoria	3	Marzo	2023-07-03T00:00:00	2024-11-08T09:00:00	6	Velocidad del viento	1.6
93826	7	Sololá	701	Sololá	4	Finca Santa Victoria	3	Marzo	2023-07-03T00:00:00	2024-11-08T09:00:00	7	Dirección del viento	1.61
93827	7	Sololá	701	Sololá	4	Finca Santa Victoria	3	Marzo	2023-07-03T00:00:00	2024-11-08T09:00:00	1	Precipitación	0
93828	7	Sololá	701	Sololá	4	Finca Santa Victoria	3	Marzo	2023-07-03T00:00:00	2024-11-08T09:00:00	8	Radiación solar	333
93829	7	Sololá	701	Sololá	4	Finca Santa Victoria	3	Marzo	2023-07-03T00:00:00	2024-11-08T10:00:00	2	Temperatura media	15.8
93830	7	Sololá	701	Sololá	4	Finca Santa Victoria	3	Marzo	2023-07-03T00:00:00	2024-11-08T10:00:00	4	Temperatura máxima	15.9
93831	7	Sololá	701	Sololá	4	Finca Santa Victoria	3	Marzo	2023-07-03T00:00:00	2024-11-08T10:00:00	3	Temperatura mínima	14.9
93832	7	Sololá	701	Sololá	4	Finca Santa Victoria	3	Marzo	2023-07-03T00:00:00	2024-11-08T10:00:00	5	Humedad	69
93833	7	Sololá	701	Sololá	4	Finca Santa Victoria	3	Marzo	2023-07-03T00:00:00	2024-11-08T10:00:00	6	Velocidad del viento	3.2
93834	7	Sololá	701	Sololá	4	Finca Santa Victoria	3	Marzo	2023-07-03T00:00:00	2024-11-08T10:00:00	7	Dirección del viento	3.22
93835	7	Sololá	701	Sololá	4	Finca Santa Victoria	3	Marzo	2023-07-03T00:00:00	2024-11-08T10:00:00	1	Precipitación	0
93836	7	Sololá	701	Sololá	4	Finca Santa Victoria	3	Marzo	2023-07-03T00:00:00	2024-11-08T10:00:00	8	Radiación solar	628
93837	7	Sololá	701	Sololá	4	Finca Santa Victoria	3	Marzo	2023-07-03T00:00:00	2024-11-08T11:00:00	2	Temperatura media	17.6
93838	7	Sololá	701	Sololá	4	Finca Santa Victoria	3	Marzo	2023-07-03T00:00:00	2024-11-08T11:00:00	4	Temperatura máxima	17.6
93839	7	Sololá	701	Sololá	4	Finca Santa Victoria	3	Marzo	2023-07-03T00:00:00	2024-11-08T11:00:00	3	Temperatura mínima	15.7
93840	7	Sololá	701	Sololá	4	Finca Santa Victoria	3	Marzo	2023-07-03T00:00:00	2024-11-08T11:00:00	5	Humedad	65
93841	7	Sololá	701	Sololá	4	Finca Santa Victoria	3	Marzo	2023-07-03T00:00:00	2024-11-08T11:00:00	6	Velocidad del viento	4.8
93842	7	Sololá	701	Sololá	4	Finca Santa Victoria	3	Marzo	2023-07-03T00:00:00	2024-11-08T11:00:00	7	Dirección del viento	4.83
93843	7	Sololá	701	Sololá	4	Finca Santa Victoria	3	Marzo	2023-07-03T00:00:00	2024-11-08T11:00:00	1	Precipitación	0
93844	7	Sololá	701	Sololá	4	Finca Santa Victoria	3	Marzo	2023-07-03T00:00:00	2024-11-08T11:00:00	8	Radiación solar	715
93845	7	Sololá	701	Sololá	4	Finca Santa Victoria	3	Marzo	2023-07-03T00:00:00	2024-11-08T12:00:00	2	Temperatura media	17.3
93846	7	Sololá	701	Sololá	4	Finca Santa Victoria	3	Marzo	2023-07-03T00:00:00	2024-11-08T12:00:00	4	Temperatura máxima	18.4
93847	7	Sololá	701	Sololá	4	Finca Santa Victoria	3	Marzo	2023-07-03T00:00:00	2024-11-08T12:00:00	3	Temperatura mínima	17.3
93848	7	Sololá	701	Sololá	4	Finca Santa Victoria	3	Marzo	2023-07-03T00:00:00	2024-11-08T12:00:00	5	Humedad	69
93849	7	Sololá	701	Sololá	4	Finca Santa Victoria	3	Marzo	2023-07-03T00:00:00	2024-11-08T12:00:00	6	Velocidad del viento	6.4
93850	7	Sololá	701	Sololá	4	Finca Santa Victoria	3	Marzo	2023-07-03T00:00:00	2024-11-08T12:00:00	7	Dirección del viento	6.44
93851	7	Sololá	701	Sololá	4	Finca Santa Victoria	3	Marzo	2023-07-03T00:00:00	2024-11-08T12:00:00	1	Precipitación	0
93852	7	Sololá	701	Sololá	4	Finca Santa Victoria	3	Marzo	2023-07-03T00:00:00	2024-11-08T12:00:00	8	Radiación solar	907
93853	7	Sololá	701	Sololá	4	Finca Santa Victoria	3	Marzo	2023-07-03T00:00:00	2024-11-08T13:00:00	2	Temperatura media	18
93854	7	Sololá	701	Sololá	4	Finca Santa Victoria	3	Marzo	2023-07-03T00:00:00	2024-11-08T13:00:00	4	Temperatura máxima	18
93855	7	Sololá	701	Sololá	4	Finca Santa Victoria	3	Marzo	2023-07-03T00:00:00	2024-11-08T13:00:00	3	Temperatura mínima	16.6
93856	7	Sololá	701	Sololá	4	Finca Santa Victoria	3	Marzo	2023-07-03T00:00:00	2024-11-08T13:00:00	5	Humedad	71
93857	7	Sololá	701	Sololá	4	Finca Santa Victoria	3	Marzo	2023-07-03T00:00:00	2024-11-08T13:00:00	6	Velocidad del viento	4.8
93858	7	Sololá	701	Sololá	4	Finca Santa Victoria	3	Marzo	2023-07-03T00:00:00	2024-11-08T13:00:00	7	Dirección del viento	4.83
93859	7	Sololá	701	Sololá	4	Finca Santa Victoria	3	Marzo	2023-07-03T00:00:00	2024-11-08T13:00:00	1	Precipitación	0
93860	7	Sololá	701	Sololá	4	Finca Santa Victoria	3	Marzo	2023-07-03T00:00:00	2024-11-08T13:00:00	8	Radiación solar	596
93861	7	Sololá	701	Sololá	4	Finca Santa Victoria	3	Marzo	2023-07-03T00:00:00	2024-11-08T14:00:00	2	Temperatura media	17.4
93862	7	Sololá	701	Sololá	4	Finca Santa Victoria	3	Marzo	2023-07-03T00:00:00	2024-11-08T14:00:00	4	Temperatura máxima	21.4
93863	7	Sololá	701	Sololá	4	Finca Santa Victoria	3	Marzo	2023-07-03T00:00:00	2024-11-08T14:00:00	3	Temperatura mínima	17.4
93864	7	Sololá	701	Sololá	4	Finca Santa Victoria	3	Marzo	2023-07-03T00:00:00	2024-11-08T14:00:00	5	Humedad	76
93865	7	Sololá	701	Sololá	4	Finca Santa Victoria	3	Marzo	2023-07-03T00:00:00	2024-11-08T14:00:00	6	Velocidad del viento	3.2
93866	7	Sololá	701	Sololá	4	Finca Santa Victoria	3	Marzo	2023-07-03T00:00:00	2024-11-08T14:00:00	7	Dirección del viento	3.22
93867	7	Sololá	701	Sololá	4	Finca Santa Victoria	3	Marzo	2023-07-03T00:00:00	2024-11-08T14:00:00	1	Precipitación	0
93868	7	Sololá	701	Sololá	4	Finca Santa Victoria	3	Marzo	2023-07-03T00:00:00	2024-11-08T14:00:00	8	Radiación solar	435
93869	7	Sololá	701	Sololá	4	Finca Santa Victoria	3	Marzo	2023-07-03T00:00:00	2024-11-08T15:00:00	2	Temperatura media	16.2
93870	7	Sololá	701	Sololá	4	Finca Santa Victoria	3	Marzo	2023-07-03T00:00:00	2024-11-08T15:00:00	4	Temperatura máxima	17.4
93871	7	Sololá	701	Sololá	4	Finca Santa Victoria	3	Marzo	2023-07-03T00:00:00	2024-11-08T15:00:00	3	Temperatura mínima	16.2
93872	7	Sololá	701	Sololá	4	Finca Santa Victoria	3	Marzo	2023-07-03T00:00:00	2024-11-08T15:00:00	5	Humedad	83
93873	7	Sololá	701	Sololá	4	Finca Santa Victoria	3	Marzo	2023-07-03T00:00:00	2024-11-08T15:00:00	6	Velocidad del viento	3.2
93874	7	Sololá	701	Sololá	4	Finca Santa Victoria	3	Marzo	2023-07-03T00:00:00	2024-11-08T15:00:00	7	Dirección del viento	3.22
93875	7	Sololá	701	Sololá	4	Finca Santa Victoria	3	Marzo	2023-07-03T00:00:00	2024-11-08T15:00:00	1	Precipitación	0
93876	7	Sololá	701	Sololá	4	Finca Santa Victoria	3	Marzo	2023-07-03T00:00:00	2024-11-08T15:00:00	8	Radiación solar	261
93877	7	Sololá	701	Sololá	4	Finca Santa Victoria	3	Marzo	2023-07-03T00:00:00	2024-11-08T16:00:00	2	Temperatura media	15.1
93878	7	Sololá	701	Sololá	4	Finca Santa Victoria	3	Marzo	2023-07-03T00:00:00	2024-11-08T16:00:00	4	Temperatura máxima	16.4
93879	7	Sololá	701	Sololá	4	Finca Santa Victoria	3	Marzo	2023-07-03T00:00:00	2024-11-08T16:00:00	3	Temperatura mínima	15.1
93880	7	Sololá	701	Sololá	4	Finca Santa Victoria	3	Marzo	2023-07-03T00:00:00	2024-11-08T16:00:00	5	Humedad	89
93881	7	Sololá	701	Sololá	4	Finca Santa Victoria	3	Marzo	2023-07-03T00:00:00	2024-11-08T16:00:00	6	Velocidad del viento	3.2
93882	7	Sololá	701	Sololá	4	Finca Santa Victoria	3	Marzo	2023-07-03T00:00:00	2024-11-08T16:00:00	7	Dirección del viento	3.22
93883	7	Sololá	701	Sololá	4	Finca Santa Victoria	3	Marzo	2023-07-03T00:00:00	2024-11-08T16:00:00	1	Precipitación	0
93884	7	Sololá	701	Sololá	4	Finca Santa Victoria	3	Marzo	2023-07-03T00:00:00	2024-11-08T16:00:00	8	Radiación solar	127
93885	7	Sololá	701	Sololá	4	Finca Santa Victoria	3	Marzo	2023-07-03T00:00:00	2024-11-08T17:00:00	2	Temperatura media	14.3
93886	7	Sololá	701	Sololá	4	Finca Santa Victoria	3	Marzo	2023-07-03T00:00:00	2024-11-08T17:00:00	4	Temperatura máxima	15.2
93887	7	Sololá	701	Sololá	4	Finca Santa Victoria	3	Marzo	2023-07-03T00:00:00	2024-11-08T17:00:00	3	Temperatura mínima	14.2
93888	7	Sololá	701	Sololá	4	Finca Santa Victoria	3	Marzo	2023-07-03T00:00:00	2024-11-08T17:00:00	5	Humedad	93
93889	7	Sololá	701	Sololá	4	Finca Santa Victoria	3	Marzo	2023-07-03T00:00:00	2024-11-08T17:00:00	6	Velocidad del viento	3.2
93890	7	Sololá	701	Sololá	4	Finca Santa Victoria	3	Marzo	2023-07-03T00:00:00	2024-11-08T17:00:00	7	Dirección del viento	3.22
93891	7	Sololá	701	Sololá	4	Finca Santa Victoria	3	Marzo	2023-07-03T00:00:00	2024-11-08T17:00:00	1	Precipitación	0
93892	7	Sololá	701	Sololá	4	Finca Santa Victoria	3	Marzo	2023-07-03T00:00:00	2024-11-08T17:00:00	8	Radiación solar	39
93893	7	Sololá	701	Sololá	4	Finca Santa Victoria	3	Marzo	2023-07-03T00:00:00	2024-11-08T18:00:00	2	Temperatura media	14.1
93894	7	Sololá	701	Sololá	4	Finca Santa Victoria	3	Marzo	2023-07-03T00:00:00	2024-11-08T18:00:00	4	Temperatura máxima	14.3
93895	7	Sololá	701	Sololá	4	Finca Santa Victoria	3	Marzo	2023-07-03T00:00:00	2024-11-08T18:00:00	3	Temperatura mínima	14.1
93896	7	Sololá	701	Sololá	4	Finca Santa Victoria	3	Marzo	2023-07-03T00:00:00	2024-11-08T18:00:00	5	Humedad	94
93897	7	Sololá	701	Sololá	4	Finca Santa Victoria	3	Marzo	2023-07-03T00:00:00	2024-11-08T18:00:00	6	Velocidad del viento	1.6
93898	7	Sololá	701	Sololá	4	Finca Santa Victoria	3	Marzo	2023-07-03T00:00:00	2024-11-08T18:00:00	7	Dirección del viento	1.61
93899	7	Sololá	701	Sololá	4	Finca Santa Victoria	3	Marzo	2023-07-03T00:00:00	2024-11-08T18:00:00	1	Precipitación	0
93900	7	Sololá	701	Sololá	4	Finca Santa Victoria	3	Marzo	2023-07-03T00:00:00	2024-11-08T18:00:00	8	Radiación solar	22
93901	7	Sololá	701	Sololá	4	Finca Santa Victoria	3	Marzo	2023-07-03T00:00:00	2024-11-08T19:00:00	2	Temperatura media	13.4
93902	7	Sololá	701	Sololá	4	Finca Santa Victoria	3	Marzo	2023-07-03T00:00:00	2024-11-08T19:00:00	4	Temperatura máxima	14.2
93903	7	Sololá	701	Sololá	4	Finca Santa Victoria	3	Marzo	2023-07-03T00:00:00	2024-11-08T19:00:00	3	Temperatura mínima	13.4
93904	7	Sololá	701	Sololá	4	Finca Santa Victoria	3	Marzo	2023-07-03T00:00:00	2024-11-08T19:00:00	5	Humedad	94
93905	7	Sololá	701	Sololá	4	Finca Santa Victoria	3	Marzo	2023-07-03T00:00:00	2024-11-08T19:00:00	6	Velocidad del viento	0
93906	7	Sololá	701	Sololá	4	Finca Santa Victoria	3	Marzo	2023-07-03T00:00:00	2024-11-08T19:00:00	7	Dirección del viento	0
93907	7	Sololá	701	Sololá	4	Finca Santa Victoria	3	Marzo	2023-07-03T00:00:00	2024-11-08T19:00:00	1	Precipitación	0
93908	7	Sololá	701	Sololá	4	Finca Santa Victoria	3	Marzo	2023-07-03T00:00:00	2024-11-08T19:00:00	8	Radiación solar	0
93909	7	Sololá	701	Sololá	4	Finca Santa Victoria	3	Marzo	2023-07-03T00:00:00	2024-11-08T20:00:00	2	Temperatura media	13.2
93910	7	Sololá	701	Sololá	4	Finca Santa Victoria	3	Marzo	2023-07-03T00:00:00	2024-11-08T20:00:00	4	Temperatura máxima	13.4
93911	7	Sololá	701	Sololá	4	Finca Santa Victoria	3	Marzo	2023-07-03T00:00:00	2024-11-08T20:00:00	3	Temperatura mínima	13.1
93912	7	Sololá	701	Sololá	4	Finca Santa Victoria	3	Marzo	2023-07-03T00:00:00	2024-11-08T20:00:00	5	Humedad	96
93913	7	Sololá	701	Sololá	4	Finca Santa Victoria	3	Marzo	2023-07-03T00:00:00	2024-11-08T20:00:00	6	Velocidad del viento	0
93914	7	Sololá	701	Sololá	4	Finca Santa Victoria	3	Marzo	2023-07-03T00:00:00	2024-11-08T20:00:00	7	Dirección del viento	0
93915	7	Sololá	701	Sololá	4	Finca Santa Victoria	3	Marzo	2023-07-03T00:00:00	2024-11-08T20:00:00	1	Precipitación	0
93916	7	Sololá	701	Sololá	4	Finca Santa Victoria	3	Marzo	2023-07-03T00:00:00	2024-11-08T20:00:00	8	Radiación solar	0
93917	7	Sololá	701	Sololá	4	Finca Santa Victoria	3	Marzo	2023-07-03T00:00:00	2024-11-08T21:00:00	2	Temperatura media	12.2
93918	7	Sololá	701	Sololá	4	Finca Santa Victoria	3	Marzo	2023-07-03T00:00:00	2024-11-08T21:00:00	4	Temperatura máxima	13.2
93919	7	Sololá	701	Sololá	4	Finca Santa Victoria	3	Marzo	2023-07-03T00:00:00	2024-11-08T21:00:00	3	Temperatura mínima	12.1
93920	7	Sololá	701	Sololá	4	Finca Santa Victoria	3	Marzo	2023-07-03T00:00:00	2024-11-08T21:00:00	5	Humedad	90
93921	7	Sololá	701	Sololá	4	Finca Santa Victoria	3	Marzo	2023-07-03T00:00:00	2024-11-08T21:00:00	6	Velocidad del viento	0
93922	7	Sololá	701	Sololá	4	Finca Santa Victoria	3	Marzo	2023-07-03T00:00:00	2024-11-08T21:00:00	7	Dirección del viento	0
93923	7	Sololá	701	Sololá	4	Finca Santa Victoria	3	Marzo	2023-07-03T00:00:00	2024-11-08T21:00:00	1	Precipitación	0
93924	7	Sololá	701	Sololá	4	Finca Santa Victoria	3	Marzo	2023-07-03T00:00:00	2024-11-08T21:00:00	8	Radiación solar	0
93925	7	Sololá	701	Sololá	4	Finca Santa Victoria	3	Marzo	2023-07-03T00:00:00	2024-11-08T22:00:00	2	Temperatura media	12.1
93926	7	Sololá	701	Sololá	4	Finca Santa Victoria	3	Marzo	2023-07-03T00:00:00	2024-11-08T22:00:00	4	Temperatura máxima	12.3
93927	7	Sololá	701	Sololá	4	Finca Santa Victoria	3	Marzo	2023-07-03T00:00:00	2024-11-08T22:00:00	3	Temperatura mínima	12.1
93928	7	Sololá	701	Sololá	4	Finca Santa Victoria	3	Marzo	2023-07-03T00:00:00	2024-11-08T22:00:00	5	Humedad	89
93929	7	Sololá	701	Sololá	4	Finca Santa Victoria	3	Marzo	2023-07-03T00:00:00	2024-11-08T22:00:00	6	Velocidad del viento	0
93930	7	Sololá	701	Sololá	4	Finca Santa Victoria	3	Marzo	2023-07-03T00:00:00	2024-11-08T22:00:00	7	Dirección del viento	0
93931	7	Sololá	701	Sololá	4	Finca Santa Victoria	3	Marzo	2023-07-03T00:00:00	2024-11-08T22:00:00	1	Precipitación	0
93932	7	Sololá	701	Sololá	4	Finca Santa Victoria	3	Marzo	2023-07-03T00:00:00	2024-11-08T22:00:00	8	Radiación solar	0
93933	7	Sololá	701	Sololá	4	Finca Santa Victoria	3	Marzo	2023-07-03T00:00:00	2024-11-08T23:00:00	2	Temperatura media	12.4
93934	7	Sololá	701	Sololá	4	Finca Santa Victoria	3	Marzo	2023-07-03T00:00:00	2024-11-08T23:00:00	4	Temperatura máxima	12.5
93935	7	Sololá	701	Sololá	4	Finca Santa Victoria	3	Marzo	2023-07-03T00:00:00	2024-11-08T23:00:00	3	Temperatura mínima	12.1
93936	7	Sololá	701	Sololá	4	Finca Santa Victoria	3	Marzo	2023-07-03T00:00:00	2024-11-08T23:00:00	5	Humedad	88
93937	7	Sololá	701	Sololá	4	Finca Santa Victoria	3	Marzo	2023-07-03T00:00:00	2024-11-08T23:00:00	6	Velocidad del viento	1.6
93938	7	Sololá	701	Sololá	4	Finca Santa Victoria	3	Marzo	2023-07-03T00:00:00	2024-11-08T23:00:00	7	Dirección del viento	1.61
93939	7	Sololá	701	Sololá	4	Finca Santa Victoria	3	Marzo	2023-07-03T00:00:00	2024-11-08T23:00:00	1	Precipitación	0
93940	7	Sololá	701	Sololá	4	Finca Santa Victoria	3	Marzo	2023-07-03T00:00:00	2024-11-08T23:00:00	8	Radiación solar	0
93941	7	Sololá	701	Sololá	4	Finca Santa Victoria	3	Marzo	2023-08-03T00:00:00	2024-11-08T00:00:00	2	Temperatura media	12.2
93942	7	Sololá	701	Sololá	4	Finca Santa Victoria	3	Marzo	2023-08-03T00:00:00	2024-11-08T00:00:00	4	Temperatura máxima	12.4
93943	7	Sololá	701	Sololá	4	Finca Santa Victoria	3	Marzo	2023-08-03T00:00:00	2024-11-08T00:00:00	3	Temperatura mínima	12.1
93944	7	Sololá	701	Sololá	4	Finca Santa Victoria	3	Marzo	2023-08-03T00:00:00	2024-11-08T00:00:00	5	Humedad	87
93945	7	Sololá	701	Sololá	4	Finca Santa Victoria	3	Marzo	2023-08-03T00:00:00	2024-11-08T00:00:00	6	Velocidad del viento	1.6
93946	7	Sololá	701	Sololá	4	Finca Santa Victoria	3	Marzo	2023-08-03T00:00:00	2024-11-08T00:00:00	7	Dirección del viento	1.61
93947	7	Sololá	701	Sololá	4	Finca Santa Victoria	3	Marzo	2023-08-03T00:00:00	2024-11-08T00:00:00	1	Precipitación	0
93948	7	Sololá	701	Sololá	4	Finca Santa Victoria	3	Marzo	2023-08-03T00:00:00	2024-11-08T00:00:00	8	Radiación solar	0
93949	7	Sololá	701	Sololá	4	Finca Santa Victoria	3	Marzo	2023-08-03T00:00:00	2024-11-08T01:00:00	2	Temperatura media	11.3
93950	7	Sololá	701	Sololá	4	Finca Santa Victoria	3	Marzo	2023-08-03T00:00:00	2024-11-08T01:00:00	4	Temperatura máxima	12.3
93951	7	Sololá	701	Sololá	4	Finca Santa Victoria	3	Marzo	2023-08-03T00:00:00	2024-11-08T01:00:00	3	Temperatura mínima	11.3
93952	7	Sololá	701	Sololá	4	Finca Santa Victoria	3	Marzo	2023-08-03T00:00:00	2024-11-08T01:00:00	5	Humedad	90
93953	7	Sololá	701	Sololá	4	Finca Santa Victoria	3	Marzo	2023-08-03T00:00:00	2024-11-08T01:00:00	6	Velocidad del viento	0
93954	7	Sololá	701	Sololá	4	Finca Santa Victoria	3	Marzo	2023-08-03T00:00:00	2024-11-08T01:00:00	7	Dirección del viento	0
93955	7	Sololá	701	Sololá	4	Finca Santa Victoria	3	Marzo	2023-08-03T00:00:00	2024-11-08T01:00:00	1	Precipitación	0
93956	7	Sololá	701	Sololá	4	Finca Santa Victoria	3	Marzo	2023-08-03T00:00:00	2024-11-08T01:00:00	8	Radiación solar	0
93957	7	Sololá	701	Sololá	4	Finca Santa Victoria	3	Marzo	2023-08-03T00:00:00	2024-11-08T02:00:00	2	Temperatura media	10.8
93958	7	Sololá	701	Sololá	4	Finca Santa Victoria	3	Marzo	2023-08-03T00:00:00	2024-11-08T02:00:00	4	Temperatura máxima	11.7
93959	7	Sololá	701	Sololá	4	Finca Santa Victoria	3	Marzo	2023-08-03T00:00:00	2024-11-08T02:00:00	3	Temperatura mínima	10.8
93960	7	Sololá	701	Sololá	4	Finca Santa Victoria	3	Marzo	2023-08-03T00:00:00	2024-11-08T02:00:00	5	Humedad	92
93961	7	Sololá	701	Sololá	4	Finca Santa Victoria	3	Marzo	2023-08-03T00:00:00	2024-11-08T02:00:00	6	Velocidad del viento	0
93962	7	Sololá	701	Sololá	4	Finca Santa Victoria	3	Marzo	2023-08-03T00:00:00	2024-11-08T02:00:00	7	Dirección del viento	0
93963	7	Sololá	701	Sololá	4	Finca Santa Victoria	3	Marzo	2023-08-03T00:00:00	2024-11-08T02:00:00	1	Precipitación	0
93964	7	Sololá	701	Sololá	4	Finca Santa Victoria	3	Marzo	2023-08-03T00:00:00	2024-11-08T02:00:00	8	Radiación solar	0
93965	7	Sololá	701	Sololá	4	Finca Santa Victoria	3	Marzo	2023-08-03T00:00:00	2024-11-08T03:00:00	2	Temperatura media	10.8
93966	7	Sololá	701	Sololá	4	Finca Santa Victoria	3	Marzo	2023-08-03T00:00:00	2024-11-08T03:00:00	4	Temperatura máxima	10.8
93967	7	Sololá	701	Sololá	4	Finca Santa Victoria	3	Marzo	2023-08-03T00:00:00	2024-11-08T03:00:00	3	Temperatura mínima	10.7
93968	7	Sololá	701	Sololá	4	Finca Santa Victoria	3	Marzo	2023-08-03T00:00:00	2024-11-08T03:00:00	5	Humedad	93
93969	7	Sololá	701	Sololá	4	Finca Santa Victoria	3	Marzo	2023-08-03T00:00:00	2024-11-08T03:00:00	6	Velocidad del viento	0
93970	7	Sololá	701	Sololá	4	Finca Santa Victoria	3	Marzo	2023-08-03T00:00:00	2024-11-08T03:00:00	7	Dirección del viento	0
93971	7	Sololá	701	Sololá	4	Finca Santa Victoria	3	Marzo	2023-08-03T00:00:00	2024-11-08T03:00:00	1	Precipitación	0
93972	7	Sololá	701	Sololá	4	Finca Santa Victoria	3	Marzo	2023-08-03T00:00:00	2024-11-08T03:00:00	8	Radiación solar	0
93973	7	Sololá	701	Sololá	4	Finca Santa Victoria	3	Marzo	2023-08-03T00:00:00	2024-11-08T04:00:00	2	Temperatura media	10.9
93974	7	Sololá	701	Sololá	4	Finca Santa Victoria	3	Marzo	2023-08-03T00:00:00	2024-11-08T04:00:00	4	Temperatura máxima	11.1
93975	7	Sololá	701	Sololá	4	Finca Santa Victoria	3	Marzo	2023-08-03T00:00:00	2024-11-08T04:00:00	3	Temperatura mínima	10.8
93976	7	Sololá	701	Sololá	4	Finca Santa Victoria	3	Marzo	2023-08-03T00:00:00	2024-11-08T04:00:00	5	Humedad	93
93977	7	Sololá	701	Sololá	4	Finca Santa Victoria	3	Marzo	2023-08-03T00:00:00	2024-11-08T04:00:00	6	Velocidad del viento	0
93978	7	Sololá	701	Sololá	4	Finca Santa Victoria	3	Marzo	2023-08-03T00:00:00	2024-11-08T04:00:00	7	Dirección del viento	0
93979	7	Sololá	701	Sololá	4	Finca Santa Victoria	3	Marzo	2023-08-03T00:00:00	2024-11-08T04:00:00	1	Precipitación	0
93980	7	Sololá	701	Sololá	4	Finca Santa Victoria	3	Marzo	2023-08-03T00:00:00	2024-11-08T04:00:00	8	Radiación solar	0
93981	7	Sololá	701	Sololá	4	Finca Santa Victoria	3	Marzo	2023-08-03T00:00:00	2024-11-08T05:00:00	2	Temperatura media	10.9
93982	7	Sololá	701	Sololá	4	Finca Santa Victoria	3	Marzo	2023-08-03T00:00:00	2024-11-08T05:00:00	4	Temperatura máxima	11.1
93983	7	Sololá	701	Sololá	4	Finca Santa Victoria	3	Marzo	2023-08-03T00:00:00	2024-11-08T05:00:00	3	Temperatura mínima	10.8
93984	7	Sololá	701	Sololá	4	Finca Santa Victoria	3	Marzo	2023-08-03T00:00:00	2024-11-08T05:00:00	5	Humedad	96
93985	7	Sololá	701	Sololá	4	Finca Santa Victoria	3	Marzo	2023-08-03T00:00:00	2024-11-08T05:00:00	6	Velocidad del viento	0
93986	7	Sololá	701	Sololá	4	Finca Santa Victoria	3	Marzo	2023-08-03T00:00:00	2024-11-08T05:00:00	7	Dirección del viento	0
93987	7	Sololá	701	Sololá	4	Finca Santa Victoria	3	Marzo	2023-08-03T00:00:00	2024-11-08T05:00:00	1	Precipitación	0
93988	7	Sololá	701	Sololá	4	Finca Santa Victoria	3	Marzo	2023-08-03T00:00:00	2024-11-08T05:00:00	8	Radiación solar	0
93989	7	Sololá	701	Sololá	4	Finca Santa Victoria	3	Marzo	2023-08-03T00:00:00	2024-11-08T06:00:00	2	Temperatura media	10.3
93990	7	Sololá	701	Sololá	4	Finca Santa Victoria	3	Marzo	2023-08-03T00:00:00	2024-11-08T06:00:00	4	Temperatura máxima	10.9
93991	7	Sololá	701	Sololá	4	Finca Santa Victoria	3	Marzo	2023-08-03T00:00:00	2024-11-08T06:00:00	3	Temperatura mínima	10.3
93992	7	Sololá	701	Sololá	4	Finca Santa Victoria	3	Marzo	2023-08-03T00:00:00	2024-11-08T06:00:00	5	Humedad	94
93993	7	Sololá	701	Sololá	4	Finca Santa Victoria	3	Marzo	2023-08-03T00:00:00	2024-11-08T06:00:00	6	Velocidad del viento	0
93994	7	Sololá	701	Sololá	4	Finca Santa Victoria	3	Marzo	2023-08-03T00:00:00	2024-11-08T06:00:00	7	Dirección del viento	0
93995	7	Sololá	701	Sololá	4	Finca Santa Victoria	3	Marzo	2023-08-03T00:00:00	2024-11-08T06:00:00	1	Precipitación	0
93996	7	Sololá	701	Sololá	4	Finca Santa Victoria	3	Marzo	2023-08-03T00:00:00	2024-11-08T06:00:00	8	Radiación solar	0
93997	7	Sololá	701	Sololá	4	Finca Santa Victoria	3	Marzo	2023-08-03T00:00:00	2024-11-08T07:00:00	2	Temperatura media	9.9
93998	7	Sololá	701	Sololá	4	Finca Santa Victoria	3	Marzo	2023-08-03T00:00:00	2024-11-08T07:00:00	4	Temperatura máxima	10.3
93999	7	Sololá	701	Sololá	4	Finca Santa Victoria	3	Marzo	2023-08-03T00:00:00	2024-11-08T07:00:00	3	Temperatura mínima	9.8
94000	7	Sololá	701	Sololá	4	Finca Santa Victoria	3	Marzo	2023-08-03T00:00:00	2024-11-08T07:00:00	5	Humedad	96
94001	7	Sololá	701	Sololá	4	Finca Santa Victoria	3	Marzo	2023-08-03T00:00:00	2024-11-08T07:00:00	6	Velocidad del viento	0
94002	7	Sololá	701	Sololá	4	Finca Santa Victoria	3	Marzo	2023-08-03T00:00:00	2024-11-08T07:00:00	7	Dirección del viento	0
94003	7	Sololá	701	Sololá	4	Finca Santa Victoria	3	Marzo	2023-08-03T00:00:00	2024-11-08T07:00:00	1	Precipitación	0
94004	7	Sololá	701	Sololá	4	Finca Santa Victoria	3	Marzo	2023-08-03T00:00:00	2024-11-08T07:00:00	8	Radiación solar	7
94005	7	Sololá	701	Sololá	4	Finca Santa Victoria	3	Marzo	2023-08-03T00:00:00	2024-11-08T08:00:00	2	Temperatura media	12.3
94006	7	Sololá	701	Sololá	4	Finca Santa Victoria	3	Marzo	2023-08-03T00:00:00	2024-11-08T08:00:00	4	Temperatura máxima	12.3
94007	7	Sololá	701	Sololá	4	Finca Santa Victoria	3	Marzo	2023-08-03T00:00:00	2024-11-08T08:00:00	3	Temperatura mínima	9.8
94008	7	Sololá	701	Sololá	4	Finca Santa Victoria	3	Marzo	2023-08-03T00:00:00	2024-11-08T08:00:00	5	Humedad	90
94009	7	Sololá	701	Sololá	4	Finca Santa Victoria	3	Marzo	2023-08-03T00:00:00	2024-11-08T08:00:00	6	Velocidad del viento	0
94010	7	Sololá	701	Sololá	4	Finca Santa Victoria	3	Marzo	2023-08-03T00:00:00	2024-11-08T08:00:00	7	Dirección del viento	0
94011	7	Sololá	701	Sololá	4	Finca Santa Victoria	3	Marzo	2023-08-03T00:00:00	2024-11-08T08:00:00	1	Precipitación	0
94012	7	Sololá	701	Sololá	4	Finca Santa Victoria	3	Marzo	2023-08-03T00:00:00	2024-11-08T08:00:00	8	Radiación solar	118
94013	7	Sololá	701	Sololá	4	Finca Santa Victoria	3	Marzo	2023-08-03T00:00:00	2024-11-08T09:00:00	2	Temperatura media	13.6
94014	7	Sololá	701	Sololá	4	Finca Santa Victoria	3	Marzo	2023-08-03T00:00:00	2024-11-08T09:00:00	4	Temperatura máxima	13.6
94015	7	Sololá	701	Sololá	4	Finca Santa Victoria	3	Marzo	2023-08-03T00:00:00	2024-11-08T09:00:00	3	Temperatura mínima	12.3
94016	7	Sololá	701	Sololá	4	Finca Santa Victoria	3	Marzo	2023-08-03T00:00:00	2024-11-08T09:00:00	5	Humedad	84
94017	7	Sololá	701	Sololá	4	Finca Santa Victoria	3	Marzo	2023-08-03T00:00:00	2024-11-08T09:00:00	6	Velocidad del viento	1.6
94018	7	Sololá	701	Sololá	4	Finca Santa Victoria	3	Marzo	2023-08-03T00:00:00	2024-11-08T09:00:00	7	Dirección del viento	1.61
94019	7	Sololá	701	Sololá	4	Finca Santa Victoria	3	Marzo	2023-08-03T00:00:00	2024-11-08T09:00:00	1	Precipitación	0
94020	7	Sololá	701	Sololá	4	Finca Santa Victoria	3	Marzo	2023-08-03T00:00:00	2024-11-08T09:00:00	8	Radiación solar	228
94021	7	Sololá	701	Sololá	4	Finca Santa Victoria	3	Marzo	2023-08-03T00:00:00	2024-11-08T10:00:00	2	Temperatura media	16.1
94022	7	Sololá	701	Sololá	4	Finca Santa Victoria	3	Marzo	2023-08-03T00:00:00	2024-11-08T10:00:00	4	Temperatura máxima	16.1
94023	7	Sololá	701	Sololá	4	Finca Santa Victoria	3	Marzo	2023-08-03T00:00:00	2024-11-08T10:00:00	3	Temperatura mínima	13.6
94024	7	Sololá	701	Sololá	4	Finca Santa Victoria	3	Marzo	2023-08-03T00:00:00	2024-11-08T10:00:00	5	Humedad	76
94025	7	Sololá	701	Sololá	4	Finca Santa Victoria	3	Marzo	2023-08-03T00:00:00	2024-11-08T10:00:00	6	Velocidad del viento	3.2
94026	7	Sololá	701	Sololá	4	Finca Santa Victoria	3	Marzo	2023-08-03T00:00:00	2024-11-08T10:00:00	7	Dirección del viento	3.22
94027	7	Sololá	701	Sololá	4	Finca Santa Victoria	3	Marzo	2023-08-03T00:00:00	2024-11-08T10:00:00	1	Precipitación	0
94028	7	Sololá	701	Sololá	4	Finca Santa Victoria	3	Marzo	2023-08-03T00:00:00	2024-11-08T10:00:00	8	Radiación solar	479
94029	7	Sololá	701	Sololá	4	Finca Santa Victoria	3	Marzo	2023-08-03T00:00:00	2024-11-08T11:00:00	2	Temperatura media	17.8
94030	7	Sololá	701	Sololá	4	Finca Santa Victoria	3	Marzo	2023-08-03T00:00:00	2024-11-08T11:00:00	4	Temperatura máxima	17.8
94031	7	Sololá	701	Sololá	4	Finca Santa Victoria	3	Marzo	2023-08-03T00:00:00	2024-11-08T11:00:00	3	Temperatura mínima	15.5
94032	7	Sololá	701	Sololá	4	Finca Santa Victoria	3	Marzo	2023-08-03T00:00:00	2024-11-08T11:00:00	5	Humedad	68
94033	7	Sololá	701	Sololá	4	Finca Santa Victoria	3	Marzo	2023-08-03T00:00:00	2024-11-08T11:00:00	6	Velocidad del viento	3.2
94034	7	Sololá	701	Sololá	4	Finca Santa Victoria	3	Marzo	2023-08-03T00:00:00	2024-11-08T11:00:00	7	Dirección del viento	3.22
94035	7	Sololá	701	Sololá	4	Finca Santa Victoria	3	Marzo	2023-08-03T00:00:00	2024-11-08T11:00:00	1	Precipitación	0
94036	7	Sololá	701	Sololá	4	Finca Santa Victoria	3	Marzo	2023-08-03T00:00:00	2024-11-08T11:00:00	8	Radiación solar	788
94037	7	Sololá	701	Sololá	4	Finca Santa Victoria	3	Marzo	2023-08-03T00:00:00	2024-11-08T12:00:00	2	Temperatura media	17.9
94038	7	Sololá	701	Sololá	4	Finca Santa Victoria	3	Marzo	2023-08-03T00:00:00	2024-11-08T12:00:00	4	Temperatura máxima	18.2
94039	7	Sololá	701	Sololá	4	Finca Santa Victoria	3	Marzo	2023-08-03T00:00:00	2024-11-08T12:00:00	3	Temperatura mínima	17.6
94040	7	Sololá	701	Sololá	4	Finca Santa Victoria	3	Marzo	2023-08-03T00:00:00	2024-11-08T12:00:00	5	Humedad	75
94041	7	Sololá	701	Sololá	4	Finca Santa Victoria	3	Marzo	2023-08-03T00:00:00	2024-11-08T12:00:00	6	Velocidad del viento	4.8
94042	7	Sololá	701	Sololá	4	Finca Santa Victoria	3	Marzo	2023-08-03T00:00:00	2024-11-08T12:00:00	7	Dirección del viento	4.83
94043	7	Sololá	701	Sololá	4	Finca Santa Victoria	3	Marzo	2023-08-03T00:00:00	2024-11-08T12:00:00	1	Precipitación	0
94044	7	Sololá	701	Sololá	4	Finca Santa Victoria	3	Marzo	2023-08-03T00:00:00	2024-11-08T12:00:00	8	Radiación solar	978
94045	7	Sololá	701	Sololá	4	Finca Santa Victoria	3	Marzo	2023-08-03T00:00:00	2024-11-08T13:00:00	2	Temperatura media	17.8
94046	7	Sololá	701	Sololá	4	Finca Santa Victoria	3	Marzo	2023-08-03T00:00:00	2024-11-08T13:00:00	4	Temperatura máxima	18.2
94047	7	Sololá	701	Sololá	4	Finca Santa Victoria	3	Marzo	2023-08-03T00:00:00	2024-11-08T13:00:00	3	Temperatura mínima	17.3
94048	7	Sololá	701	Sololá	4	Finca Santa Victoria	3	Marzo	2023-08-03T00:00:00	2024-11-08T13:00:00	5	Humedad	74
94049	7	Sololá	701	Sololá	4	Finca Santa Victoria	3	Marzo	2023-08-03T00:00:00	2024-11-08T13:00:00	6	Velocidad del viento	6.4
94050	7	Sololá	701	Sololá	4	Finca Santa Victoria	3	Marzo	2023-08-03T00:00:00	2024-11-08T13:00:00	7	Dirección del viento	6.44
94051	7	Sololá	701	Sololá	4	Finca Santa Victoria	3	Marzo	2023-08-03T00:00:00	2024-11-08T13:00:00	1	Precipitación	0
94052	7	Sololá	701	Sololá	4	Finca Santa Victoria	3	Marzo	2023-08-03T00:00:00	2024-11-08T13:00:00	8	Radiación solar	877
94053	7	Sololá	701	Sololá	4	Finca Santa Victoria	3	Marzo	2023-08-03T00:00:00	2024-11-08T14:00:00	2	Temperatura media	15.9
94054	7	Sololá	701	Sololá	4	Finca Santa Victoria	3	Marzo	2023-08-03T00:00:00	2024-11-08T14:00:00	4	Temperatura máxima	18
94055	7	Sololá	701	Sololá	4	Finca Santa Victoria	3	Marzo	2023-08-03T00:00:00	2024-11-08T14:00:00	3	Temperatura mínima	15.9
94056	7	Sololá	701	Sololá	4	Finca Santa Victoria	3	Marzo	2023-08-03T00:00:00	2024-11-08T14:00:00	5	Humedad	82
94057	7	Sololá	701	Sololá	4	Finca Santa Victoria	3	Marzo	2023-08-03T00:00:00	2024-11-08T14:00:00	6	Velocidad del viento	4.8
94058	7	Sololá	701	Sololá	4	Finca Santa Victoria	3	Marzo	2023-08-03T00:00:00	2024-11-08T14:00:00	7	Dirección del viento	4.83
94059	7	Sololá	701	Sololá	4	Finca Santa Victoria	3	Marzo	2023-08-03T00:00:00	2024-11-08T14:00:00	1	Precipitación	0
94060	7	Sololá	701	Sololá	4	Finca Santa Victoria	3	Marzo	2023-08-03T00:00:00	2024-11-08T14:00:00	8	Radiación solar	354
94061	7	Sololá	701	Sololá	4	Finca Santa Victoria	3	Marzo	2023-08-03T00:00:00	2024-11-08T15:00:00	2	Temperatura media	14.7
94062	7	Sololá	701	Sololá	4	Finca Santa Victoria	3	Marzo	2023-08-03T00:00:00	2024-11-08T15:00:00	4	Temperatura máxima	16.1
94063	7	Sololá	701	Sololá	4	Finca Santa Victoria	3	Marzo	2023-08-03T00:00:00	2024-11-08T15:00:00	3	Temperatura mínima	14.7
94064	7	Sololá	701	Sololá	4	Finca Santa Victoria	3	Marzo	2023-08-03T00:00:00	2024-11-08T15:00:00	5	Humedad	87
94065	7	Sololá	701	Sololá	4	Finca Santa Victoria	3	Marzo	2023-08-03T00:00:00	2024-11-08T15:00:00	6	Velocidad del viento	3.2
94066	7	Sololá	701	Sololá	4	Finca Santa Victoria	3	Marzo	2023-08-03T00:00:00	2024-11-08T15:00:00	7	Dirección del viento	3.22
94067	7	Sololá	701	Sololá	4	Finca Santa Victoria	3	Marzo	2023-08-03T00:00:00	2024-11-08T15:00:00	1	Precipitación	0
94068	7	Sololá	701	Sololá	4	Finca Santa Victoria	3	Marzo	2023-08-03T00:00:00	2024-11-08T15:00:00	8	Radiación solar	152
94069	7	Sololá	701	Sololá	4	Finca Santa Victoria	3	Marzo	2023-08-03T00:00:00	2024-11-08T16:00:00	2	Temperatura media	14.2
94070	7	Sololá	701	Sololá	4	Finca Santa Victoria	3	Marzo	2023-08-03T00:00:00	2024-11-08T16:00:00	4	Temperatura máxima	14.7
94071	7	Sololá	701	Sololá	4	Finca Santa Victoria	3	Marzo	2023-08-03T00:00:00	2024-11-08T16:00:00	3	Temperatura mínima	13.8
94072	7	Sololá	701	Sololá	4	Finca Santa Victoria	3	Marzo	2023-08-03T00:00:00	2024-11-08T16:00:00	5	Humedad	90
94073	7	Sololá	701	Sololá	4	Finca Santa Victoria	3	Marzo	2023-08-03T00:00:00	2024-11-08T16:00:00	6	Velocidad del viento	3.2
94074	7	Sololá	701	Sololá	4	Finca Santa Victoria	3	Marzo	2023-08-03T00:00:00	2024-11-08T16:00:00	7	Dirección del viento	3.22
94075	7	Sololá	701	Sololá	4	Finca Santa Victoria	3	Marzo	2023-08-03T00:00:00	2024-11-08T16:00:00	1	Precipitación	0
94076	7	Sololá	701	Sololá	4	Finca Santa Victoria	3	Marzo	2023-08-03T00:00:00	2024-11-08T16:00:00	8	Radiación solar	81
94077	7	Sololá	701	Sololá	4	Finca Santa Victoria	3	Marzo	2023-08-03T00:00:00	2024-11-08T17:00:00	2	Temperatura media	13.9
94078	7	Sololá	701	Sololá	4	Finca Santa Victoria	3	Marzo	2023-08-03T00:00:00	2024-11-08T17:00:00	4	Temperatura máxima	14.6
94079	7	Sololá	701	Sololá	4	Finca Santa Victoria	3	Marzo	2023-08-03T00:00:00	2024-11-08T17:00:00	3	Temperatura mínima	13.9
94080	7	Sololá	701	Sololá	4	Finca Santa Victoria	3	Marzo	2023-08-03T00:00:00	2024-11-08T17:00:00	5	Humedad	91
94081	7	Sololá	701	Sololá	4	Finca Santa Victoria	3	Marzo	2023-08-03T00:00:00	2024-11-08T17:00:00	6	Velocidad del viento	1.6
94082	7	Sololá	701	Sololá	4	Finca Santa Victoria	3	Marzo	2023-08-03T00:00:00	2024-11-08T17:00:00	7	Dirección del viento	1.61
94083	7	Sololá	701	Sololá	4	Finca Santa Victoria	3	Marzo	2023-08-03T00:00:00	2024-11-08T17:00:00	1	Precipitación	0
94084	7	Sololá	701	Sololá	4	Finca Santa Victoria	3	Marzo	2023-08-03T00:00:00	2024-11-08T17:00:00	8	Radiación solar	79
94085	7	Sololá	701	Sololá	4	Finca Santa Victoria	3	Marzo	2023-08-03T00:00:00	2024-11-08T18:00:00	2	Temperatura media	13.6
94086	7	Sololá	701	Sololá	4	Finca Santa Victoria	3	Marzo	2023-08-03T00:00:00	2024-11-08T18:00:00	4	Temperatura máxima	13.9
94087	7	Sololá	701	Sololá	4	Finca Santa Victoria	3	Marzo	2023-08-03T00:00:00	2024-11-08T18:00:00	3	Temperatura mínima	13.6
94088	7	Sololá	701	Sololá	4	Finca Santa Victoria	3	Marzo	2023-08-03T00:00:00	2024-11-08T18:00:00	5	Humedad	92
94089	7	Sololá	701	Sololá	4	Finca Santa Victoria	3	Marzo	2023-08-03T00:00:00	2024-11-08T18:00:00	6	Velocidad del viento	1.6
94090	7	Sololá	701	Sololá	4	Finca Santa Victoria	3	Marzo	2023-08-03T00:00:00	2024-11-08T18:00:00	7	Dirección del viento	1.61
94091	7	Sololá	701	Sololá	4	Finca Santa Victoria	3	Marzo	2023-08-03T00:00:00	2024-11-08T18:00:00	1	Precipitación	0
94092	7	Sololá	701	Sololá	4	Finca Santa Victoria	3	Marzo	2023-08-03T00:00:00	2024-11-08T18:00:00	8	Radiación solar	35
94093	7	Sololá	701	Sololá	4	Finca Santa Victoria	3	Marzo	2023-08-03T00:00:00	2024-11-08T19:00:00	2	Temperatura media	12.9
94094	7	Sololá	701	Sololá	4	Finca Santa Victoria	3	Marzo	2023-08-03T00:00:00	2024-11-08T19:00:00	4	Temperatura máxima	13.6
94095	7	Sololá	701	Sololá	4	Finca Santa Victoria	3	Marzo	2023-08-03T00:00:00	2024-11-08T19:00:00	3	Temperatura mínima	12.8
94096	7	Sololá	701	Sololá	4	Finca Santa Victoria	3	Marzo	2023-08-03T00:00:00	2024-11-08T19:00:00	5	Humedad	96
94097	7	Sololá	701	Sololá	4	Finca Santa Victoria	3	Marzo	2023-08-03T00:00:00	2024-11-08T19:00:00	6	Velocidad del viento	0
94098	7	Sololá	701	Sololá	4	Finca Santa Victoria	3	Marzo	2023-08-03T00:00:00	2024-11-08T19:00:00	7	Dirección del viento	0
94099	7	Sololá	701	Sololá	4	Finca Santa Victoria	3	Marzo	2023-08-03T00:00:00	2024-11-08T19:00:00	1	Precipitación	0
94100	7	Sololá	701	Sololá	4	Finca Santa Victoria	3	Marzo	2023-08-03T00:00:00	2024-11-08T19:00:00	8	Radiación solar	0
94101	7	Sololá	701	Sololá	4	Finca Santa Victoria	3	Marzo	2023-08-03T00:00:00	2024-11-08T20:00:00	2	Temperatura media	12.4
94102	7	Sololá	701	Sololá	4	Finca Santa Victoria	3	Marzo	2023-08-03T00:00:00	2024-11-08T20:00:00	4	Temperatura máxima	13.1
94103	7	Sololá	701	Sololá	4	Finca Santa Victoria	3	Marzo	2023-08-03T00:00:00	2024-11-08T20:00:00	3	Temperatura mínima	12.4
94104	7	Sololá	701	Sololá	4	Finca Santa Victoria	3	Marzo	2023-08-03T00:00:00	2024-11-08T20:00:00	5	Humedad	96
94105	7	Sololá	701	Sololá	4	Finca Santa Victoria	3	Marzo	2023-08-03T00:00:00	2024-11-08T20:00:00	6	Velocidad del viento	0
94106	7	Sololá	701	Sololá	4	Finca Santa Victoria	3	Marzo	2023-08-03T00:00:00	2024-11-08T20:00:00	7	Dirección del viento	0
94107	7	Sololá	701	Sololá	4	Finca Santa Victoria	3	Marzo	2023-08-03T00:00:00	2024-11-08T20:00:00	1	Precipitación	0
94108	7	Sololá	701	Sololá	4	Finca Santa Victoria	3	Marzo	2023-08-03T00:00:00	2024-11-08T20:00:00	8	Radiación solar	0
94109	7	Sololá	701	Sololá	4	Finca Santa Victoria	3	Marzo	2023-08-03T00:00:00	2024-11-08T21:00:00	2	Temperatura media	11.7
94110	7	Sololá	701	Sololá	4	Finca Santa Victoria	3	Marzo	2023-08-03T00:00:00	2024-11-08T21:00:00	4	Temperatura máxima	12.4
94111	7	Sololá	701	Sololá	4	Finca Santa Victoria	3	Marzo	2023-08-03T00:00:00	2024-11-08T21:00:00	3	Temperatura mínima	11.6
94112	7	Sololá	701	Sololá	4	Finca Santa Victoria	3	Marzo	2023-08-03T00:00:00	2024-11-08T21:00:00	5	Humedad	96
94113	7	Sololá	701	Sololá	4	Finca Santa Victoria	3	Marzo	2023-08-03T00:00:00	2024-11-08T21:00:00	6	Velocidad del viento	0
94114	7	Sololá	701	Sololá	4	Finca Santa Victoria	3	Marzo	2023-08-03T00:00:00	2024-11-08T21:00:00	7	Dirección del viento	0
94115	7	Sololá	701	Sololá	4	Finca Santa Victoria	3	Marzo	2023-08-03T00:00:00	2024-11-08T21:00:00	1	Precipitación	0
94116	7	Sololá	701	Sololá	4	Finca Santa Victoria	3	Marzo	2023-08-03T00:00:00	2024-11-08T21:00:00	8	Radiación solar	0
94117	7	Sololá	701	Sololá	4	Finca Santa Victoria	3	Marzo	2023-08-03T00:00:00	2024-11-08T22:00:00	2	Temperatura media	11.6
94118	7	Sololá	701	Sololá	4	Finca Santa Victoria	3	Marzo	2023-08-03T00:00:00	2024-11-08T22:00:00	4	Temperatura máxima	11.7
94119	7	Sololá	701	Sololá	4	Finca Santa Victoria	3	Marzo	2023-08-03T00:00:00	2024-11-08T22:00:00	3	Temperatura mínima	11.6
94120	7	Sololá	701	Sololá	4	Finca Santa Victoria	3	Marzo	2023-08-03T00:00:00	2024-11-08T22:00:00	5	Humedad	96
94121	7	Sololá	701	Sololá	4	Finca Santa Victoria	3	Marzo	2023-08-03T00:00:00	2024-11-08T22:00:00	6	Velocidad del viento	0
94122	7	Sololá	701	Sololá	4	Finca Santa Victoria	3	Marzo	2023-08-03T00:00:00	2024-11-08T22:00:00	7	Dirección del viento	0
94123	7	Sololá	701	Sololá	4	Finca Santa Victoria	3	Marzo	2023-08-03T00:00:00	2024-11-08T22:00:00	1	Precipitación	0
94124	7	Sololá	701	Sololá	4	Finca Santa Victoria	3	Marzo	2023-08-03T00:00:00	2024-11-08T22:00:00	8	Radiación solar	0
94125	7	Sololá	701	Sololá	4	Finca Santa Victoria	3	Marzo	2023-08-03T00:00:00	2024-11-08T23:00:00	2	Temperatura media	11.2
94126	7	Sololá	701	Sololá	4	Finca Santa Victoria	3	Marzo	2023-08-03T00:00:00	2024-11-08T23:00:00	4	Temperatura máxima	11.7
94127	7	Sololá	701	Sololá	4	Finca Santa Victoria	3	Marzo	2023-08-03T00:00:00	2024-11-08T23:00:00	3	Temperatura mínima	11.2
94128	7	Sololá	701	Sololá	4	Finca Santa Victoria	3	Marzo	2023-08-03T00:00:00	2024-11-08T23:00:00	5	Humedad	96
94129	7	Sololá	701	Sololá	4	Finca Santa Victoria	3	Marzo	2023-08-03T00:00:00	2024-11-08T23:00:00	6	Velocidad del viento	0
94130	7	Sololá	701	Sololá	4	Finca Santa Victoria	3	Marzo	2023-08-03T00:00:00	2024-11-08T23:00:00	7	Dirección del viento	0
94131	7	Sololá	701	Sololá	4	Finca Santa Victoria	3	Marzo	2023-08-03T00:00:00	2024-11-08T23:00:00	1	Precipitación	0
94132	7	Sololá	701	Sololá	4	Finca Santa Victoria	3	Marzo	2023-08-03T00:00:00	2024-11-08T23:00:00	8	Radiación solar	0
94133	7	Sololá	701	Sololá	4	Finca Santa Victoria	3	Marzo	2023-09-03T00:00:00	2024-11-08T00:00:00	2	Temperatura media	10.2
94134	7	Sololá	701	Sololá	4	Finca Santa Victoria	3	Marzo	2023-09-03T00:00:00	2024-11-08T00:00:00	4	Temperatura máxima	11.2
94135	7	Sololá	701	Sololá	4	Finca Santa Victoria	3	Marzo	2023-09-03T00:00:00	2024-11-08T00:00:00	3	Temperatura mínima	10.1
94136	7	Sololá	701	Sololá	4	Finca Santa Victoria	3	Marzo	2023-09-03T00:00:00	2024-11-08T00:00:00	5	Humedad	88
94137	7	Sololá	701	Sololá	4	Finca Santa Victoria	3	Marzo	2023-09-03T00:00:00	2024-11-08T00:00:00	6	Velocidad del viento	1.6
94138	7	Sololá	701	Sololá	4	Finca Santa Victoria	3	Marzo	2023-09-03T00:00:00	2024-11-08T00:00:00	7	Dirección del viento	1.61
94139	7	Sololá	701	Sololá	4	Finca Santa Victoria	3	Marzo	2023-09-03T00:00:00	2024-11-08T00:00:00	1	Precipitación	0
94140	7	Sololá	701	Sololá	4	Finca Santa Victoria	3	Marzo	2023-09-03T00:00:00	2024-11-08T00:00:00	8	Radiación solar	0
94141	7	Sololá	701	Sololá	4	Finca Santa Victoria	3	Marzo	2023-09-03T00:00:00	2024-11-08T01:00:00	2	Temperatura media	9.9
94142	7	Sololá	701	Sololá	4	Finca Santa Victoria	3	Marzo	2023-09-03T00:00:00	2024-11-08T01:00:00	4	Temperatura máxima	10.2
94143	7	Sololá	701	Sololá	4	Finca Santa Victoria	3	Marzo	2023-09-03T00:00:00	2024-11-08T01:00:00	3	Temperatura mínima	9.9
94144	7	Sololá	701	Sololá	4	Finca Santa Victoria	3	Marzo	2023-09-03T00:00:00	2024-11-08T01:00:00	5	Humedad	82
94145	7	Sololá	701	Sololá	4	Finca Santa Victoria	3	Marzo	2023-09-03T00:00:00	2024-11-08T01:00:00	6	Velocidad del viento	1.6
94146	7	Sololá	701	Sololá	4	Finca Santa Victoria	3	Marzo	2023-09-03T00:00:00	2024-11-08T01:00:00	7	Dirección del viento	1.61
94147	7	Sololá	701	Sololá	4	Finca Santa Victoria	3	Marzo	2023-09-03T00:00:00	2024-11-08T01:00:00	1	Precipitación	0
94148	7	Sololá	701	Sololá	4	Finca Santa Victoria	3	Marzo	2023-09-03T00:00:00	2024-11-08T01:00:00	8	Radiación solar	0
94149	7	Sololá	701	Sololá	4	Finca Santa Victoria	3	Marzo	2023-09-03T00:00:00	2024-11-08T02:00:00	2	Temperatura media	10.1
94150	7	Sololá	701	Sololá	4	Finca Santa Victoria	3	Marzo	2023-09-03T00:00:00	2024-11-08T02:00:00	4	Temperatura máxima	10.1
94151	7	Sololá	701	Sololá	4	Finca Santa Victoria	3	Marzo	2023-09-03T00:00:00	2024-11-08T02:00:00	3	Temperatura mínima	9.8
94152	7	Sololá	701	Sololá	4	Finca Santa Victoria	3	Marzo	2023-09-03T00:00:00	2024-11-08T02:00:00	5	Humedad	87
94153	7	Sololá	701	Sololá	4	Finca Santa Victoria	3	Marzo	2023-09-03T00:00:00	2024-11-08T02:00:00	6	Velocidad del viento	1.6
94154	7	Sololá	701	Sololá	4	Finca Santa Victoria	3	Marzo	2023-09-03T00:00:00	2024-11-08T02:00:00	7	Dirección del viento	1.61
94155	7	Sololá	701	Sololá	4	Finca Santa Victoria	3	Marzo	2023-09-03T00:00:00	2024-11-08T02:00:00	1	Precipitación	0
94156	7	Sololá	701	Sololá	4	Finca Santa Victoria	3	Marzo	2023-09-03T00:00:00	2024-11-08T02:00:00	8	Radiación solar	0
94157	7	Sololá	701	Sololá	4	Finca Santa Victoria	3	Marzo	2023-09-03T00:00:00	2024-11-08T03:00:00	2	Temperatura media	9.6
94158	7	Sololá	701	Sololá	4	Finca Santa Victoria	3	Marzo	2023-09-03T00:00:00	2024-11-08T03:00:00	4	Temperatura máxima	10.2
94159	7	Sololá	701	Sololá	4	Finca Santa Victoria	3	Marzo	2023-09-03T00:00:00	2024-11-08T03:00:00	3	Temperatura mínima	9.6
94160	7	Sololá	701	Sololá	4	Finca Santa Victoria	3	Marzo	2023-09-03T00:00:00	2024-11-08T03:00:00	5	Humedad	81
94161	7	Sololá	701	Sololá	4	Finca Santa Victoria	3	Marzo	2023-09-03T00:00:00	2024-11-08T03:00:00	6	Velocidad del viento	0
94162	7	Sololá	701	Sololá	4	Finca Santa Victoria	3	Marzo	2023-09-03T00:00:00	2024-11-08T03:00:00	7	Dirección del viento	0
94163	7	Sololá	701	Sololá	4	Finca Santa Victoria	3	Marzo	2023-09-03T00:00:00	2024-11-08T03:00:00	1	Precipitación	0
94164	7	Sololá	701	Sololá	4	Finca Santa Victoria	3	Marzo	2023-09-03T00:00:00	2024-11-08T03:00:00	8	Radiación solar	0
94165	7	Sololá	701	Sololá	4	Finca Santa Victoria	3	Marzo	2023-09-03T00:00:00	2024-11-08T04:00:00	2	Temperatura media	9.7
94166	7	Sololá	701	Sololá	4	Finca Santa Victoria	3	Marzo	2023-09-03T00:00:00	2024-11-08T04:00:00	4	Temperatura máxima	9.8
94167	7	Sololá	701	Sololá	4	Finca Santa Victoria	3	Marzo	2023-09-03T00:00:00	2024-11-08T04:00:00	3	Temperatura mínima	9.6
94168	7	Sololá	701	Sololá	4	Finca Santa Victoria	3	Marzo	2023-09-03T00:00:00	2024-11-08T04:00:00	5	Humedad	83
94169	7	Sololá	701	Sololá	4	Finca Santa Victoria	3	Marzo	2023-09-03T00:00:00	2024-11-08T04:00:00	6	Velocidad del viento	0
94170	7	Sololá	701	Sololá	4	Finca Santa Victoria	3	Marzo	2023-09-03T00:00:00	2024-11-08T04:00:00	7	Dirección del viento	0
94171	7	Sololá	701	Sololá	4	Finca Santa Victoria	3	Marzo	2023-09-03T00:00:00	2024-11-08T04:00:00	1	Precipitación	0
94172	7	Sololá	701	Sololá	4	Finca Santa Victoria	3	Marzo	2023-09-03T00:00:00	2024-11-08T04:00:00	8	Radiación solar	0
94173	7	Sololá	701	Sololá	4	Finca Santa Victoria	3	Marzo	2023-09-03T00:00:00	2024-11-08T05:00:00	2	Temperatura media	9.7
94174	7	Sololá	701	Sololá	4	Finca Santa Victoria	3	Marzo	2023-09-03T00:00:00	2024-11-08T05:00:00	4	Temperatura máxima	9.8
94175	7	Sololá	701	Sololá	4	Finca Santa Victoria	3	Marzo	2023-09-03T00:00:00	2024-11-08T05:00:00	3	Temperatura mínima	9.6
94176	7	Sololá	701	Sololá	4	Finca Santa Victoria	3	Marzo	2023-09-03T00:00:00	2024-11-08T05:00:00	5	Humedad	85
94177	7	Sololá	701	Sololá	4	Finca Santa Victoria	3	Marzo	2023-09-03T00:00:00	2024-11-08T05:00:00	6	Velocidad del viento	1.6
94178	7	Sololá	701	Sololá	4	Finca Santa Victoria	3	Marzo	2023-09-03T00:00:00	2024-11-08T05:00:00	7	Dirección del viento	1.61
94179	7	Sololá	701	Sololá	4	Finca Santa Victoria	3	Marzo	2023-09-03T00:00:00	2024-11-08T05:00:00	1	Precipitación	0
94180	7	Sololá	701	Sololá	4	Finca Santa Victoria	3	Marzo	2023-09-03T00:00:00	2024-11-08T05:00:00	8	Radiación solar	0
94181	7	Sololá	701	Sololá	4	Finca Santa Victoria	3	Marzo	2023-09-03T00:00:00	2024-11-08T06:00:00	2	Temperatura media	10
94182	7	Sololá	701	Sololá	4	Finca Santa Victoria	3	Marzo	2023-09-03T00:00:00	2024-11-08T06:00:00	4	Temperatura máxima	10
94183	7	Sololá	701	Sololá	4	Finca Santa Victoria	3	Marzo	2023-09-03T00:00:00	2024-11-08T06:00:00	3	Temperatura mínima	9.7
94184	7	Sololá	701	Sololá	4	Finca Santa Victoria	3	Marzo	2023-09-03T00:00:00	2024-11-08T06:00:00	5	Humedad	80
94185	7	Sololá	701	Sololá	4	Finca Santa Victoria	3	Marzo	2023-09-03T00:00:00	2024-11-08T06:00:00	6	Velocidad del viento	1.6
94186	7	Sololá	701	Sololá	4	Finca Santa Victoria	3	Marzo	2023-09-03T00:00:00	2024-11-08T06:00:00	7	Dirección del viento	1.61
94187	7	Sololá	701	Sololá	4	Finca Santa Victoria	3	Marzo	2023-09-03T00:00:00	2024-11-08T06:00:00	1	Precipitación	0
94188	7	Sololá	701	Sololá	4	Finca Santa Victoria	3	Marzo	2023-09-03T00:00:00	2024-11-08T06:00:00	8	Radiación solar	0
94189	7	Sololá	701	Sololá	4	Finca Santa Victoria	3	Marzo	2023-09-03T00:00:00	2024-11-08T07:00:00	2	Temperatura media	10.5
94190	7	Sololá	701	Sololá	4	Finca Santa Victoria	3	Marzo	2023-09-03T00:00:00	2024-11-08T07:00:00	4	Temperatura máxima	10.5
94191	7	Sololá	701	Sololá	4	Finca Santa Victoria	3	Marzo	2023-09-03T00:00:00	2024-11-08T07:00:00	3	Temperatura mínima	9.9
94192	7	Sololá	701	Sololá	4	Finca Santa Victoria	3	Marzo	2023-09-03T00:00:00	2024-11-08T07:00:00	5	Humedad	78
94193	7	Sololá	701	Sololá	4	Finca Santa Victoria	3	Marzo	2023-09-03T00:00:00	2024-11-08T07:00:00	6	Velocidad del viento	1.6
94194	7	Sololá	701	Sololá	4	Finca Santa Victoria	3	Marzo	2023-09-03T00:00:00	2024-11-08T07:00:00	7	Dirección del viento	1.61
94195	7	Sololá	701	Sololá	4	Finca Santa Victoria	3	Marzo	2023-09-03T00:00:00	2024-11-08T07:00:00	1	Precipitación	0
94196	7	Sololá	701	Sololá	4	Finca Santa Victoria	3	Marzo	2023-09-03T00:00:00	2024-11-08T07:00:00	8	Radiación solar	19
94197	7	Sololá	701	Sololá	4	Finca Santa Victoria	3	Marzo	2023-09-03T00:00:00	2024-11-08T08:00:00	2	Temperatura media	12.5
94198	7	Sololá	701	Sololá	4	Finca Santa Victoria	3	Marzo	2023-09-03T00:00:00	2024-11-08T08:00:00	4	Temperatura máxima	12.5
94199	7	Sololá	701	Sololá	4	Finca Santa Victoria	3	Marzo	2023-09-03T00:00:00	2024-11-08T08:00:00	3	Temperatura mínima	10.5
94200	7	Sololá	701	Sololá	4	Finca Santa Victoria	3	Marzo	2023-09-03T00:00:00	2024-11-08T08:00:00	5	Humedad	71
94201	7	Sololá	701	Sololá	4	Finca Santa Victoria	3	Marzo	2023-09-03T00:00:00	2024-11-08T08:00:00	6	Velocidad del viento	1.6
94202	7	Sololá	701	Sololá	4	Finca Santa Victoria	3	Marzo	2023-09-03T00:00:00	2024-11-08T08:00:00	7	Dirección del viento	1.61
94203	7	Sololá	701	Sololá	4	Finca Santa Victoria	3	Marzo	2023-09-03T00:00:00	2024-11-08T08:00:00	1	Precipitación	0
94204	7	Sololá	701	Sololá	4	Finca Santa Victoria	3	Marzo	2023-09-03T00:00:00	2024-11-08T08:00:00	8	Radiación solar	114
94205	7	Sololá	701	Sololá	4	Finca Santa Victoria	3	Marzo	2023-09-03T00:00:00	2024-11-08T09:00:00	2	Temperatura media	15.4
94206	7	Sololá	701	Sololá	4	Finca Santa Victoria	3	Marzo	2023-09-03T00:00:00	2024-11-08T09:00:00	4	Temperatura máxima	15.4
94207	7	Sololá	701	Sololá	4	Finca Santa Victoria	3	Marzo	2023-09-03T00:00:00	2024-11-08T09:00:00	3	Temperatura mínima	12.5
94208	7	Sololá	701	Sololá	4	Finca Santa Victoria	3	Marzo	2023-09-03T00:00:00	2024-11-08T09:00:00	5	Humedad	76
94209	7	Sololá	701	Sololá	4	Finca Santa Victoria	3	Marzo	2023-09-03T00:00:00	2024-11-08T09:00:00	6	Velocidad del viento	1.6
94210	7	Sololá	701	Sololá	4	Finca Santa Victoria	3	Marzo	2023-09-03T00:00:00	2024-11-08T09:00:00	7	Dirección del viento	1.61
94211	7	Sololá	701	Sololá	4	Finca Santa Victoria	3	Marzo	2023-09-03T00:00:00	2024-11-08T09:00:00	1	Precipitación	0
94212	7	Sololá	701	Sololá	4	Finca Santa Victoria	3	Marzo	2023-09-03T00:00:00	2024-11-08T09:00:00	8	Radiación solar	363
94213	7	Sololá	701	Sololá	4	Finca Santa Victoria	3	Marzo	2023-09-03T00:00:00	2024-11-08T10:00:00	2	Temperatura media	16.3
94214	7	Sololá	701	Sololá	4	Finca Santa Victoria	3	Marzo	2023-09-03T00:00:00	2024-11-08T10:00:00	4	Temperatura máxima	16.8
94215	7	Sololá	701	Sololá	4	Finca Santa Victoria	3	Marzo	2023-09-03T00:00:00	2024-11-08T10:00:00	3	Temperatura mínima	15.1
94216	7	Sololá	701	Sololá	4	Finca Santa Victoria	3	Marzo	2023-09-03T00:00:00	2024-11-08T10:00:00	5	Humedad	73
94217	7	Sololá	701	Sololá	4	Finca Santa Victoria	3	Marzo	2023-09-03T00:00:00	2024-11-08T10:00:00	6	Velocidad del viento	3.2
94218	7	Sololá	701	Sololá	4	Finca Santa Victoria	3	Marzo	2023-09-03T00:00:00	2024-11-08T10:00:00	7	Dirección del viento	3.22
94219	7	Sololá	701	Sololá	4	Finca Santa Victoria	3	Marzo	2023-09-03T00:00:00	2024-11-08T10:00:00	1	Precipitación	0
94220	7	Sololá	701	Sololá	4	Finca Santa Victoria	3	Marzo	2023-09-03T00:00:00	2024-11-08T10:00:00	8	Radiación solar	582
94221	7	Sololá	701	Sololá	4	Finca Santa Victoria	3	Marzo	2023-09-03T00:00:00	2024-11-08T11:00:00	2	Temperatura media	17.9
94222	7	Sololá	701	Sololá	4	Finca Santa Victoria	3	Marzo	2023-09-03T00:00:00	2024-11-08T11:00:00	4	Temperatura máxima	17.9
94223	7	Sololá	701	Sololá	4	Finca Santa Victoria	3	Marzo	2023-09-03T00:00:00	2024-11-08T11:00:00	3	Temperatura mínima	16.2
94224	7	Sololá	701	Sololá	4	Finca Santa Victoria	3	Marzo	2023-09-03T00:00:00	2024-11-08T11:00:00	5	Humedad	68
94225	7	Sololá	701	Sololá	4	Finca Santa Victoria	3	Marzo	2023-09-03T00:00:00	2024-11-08T11:00:00	6	Velocidad del viento	3.2
94226	7	Sololá	701	Sololá	4	Finca Santa Victoria	3	Marzo	2023-09-03T00:00:00	2024-11-08T11:00:00	7	Dirección del viento	3.22
94227	7	Sololá	701	Sololá	4	Finca Santa Victoria	3	Marzo	2023-09-03T00:00:00	2024-11-08T11:00:00	1	Precipitación	0
94228	7	Sololá	701	Sololá	4	Finca Santa Victoria	3	Marzo	2023-09-03T00:00:00	2024-11-08T11:00:00	8	Radiación solar	747
94229	7	Sololá	701	Sololá	4	Finca Santa Victoria	3	Marzo	2023-09-03T00:00:00	2024-11-08T12:00:00	2	Temperatura media	18.3
94230	7	Sololá	701	Sololá	4	Finca Santa Victoria	3	Marzo	2023-09-03T00:00:00	2024-11-08T12:00:00	4	Temperatura máxima	18.8
94231	7	Sololá	701	Sololá	4	Finca Santa Victoria	3	Marzo	2023-09-03T00:00:00	2024-11-08T12:00:00	3	Temperatura mínima	17.6
94232	7	Sololá	701	Sololá	4	Finca Santa Victoria	3	Marzo	2023-09-03T00:00:00	2024-11-08T12:00:00	5	Humedad	69
94233	7	Sololá	701	Sololá	4	Finca Santa Victoria	3	Marzo	2023-09-03T00:00:00	2024-11-08T12:00:00	6	Velocidad del viento	4.8
94234	7	Sololá	701	Sololá	4	Finca Santa Victoria	3	Marzo	2023-09-03T00:00:00	2024-11-08T12:00:00	7	Dirección del viento	4.83
94235	7	Sololá	701	Sololá	4	Finca Santa Victoria	3	Marzo	2023-09-03T00:00:00	2024-11-08T12:00:00	1	Precipitación	0
94236	7	Sololá	701	Sololá	4	Finca Santa Victoria	3	Marzo	2023-09-03T00:00:00	2024-11-08T12:00:00	8	Radiación solar	932
94237	7	Sololá	701	Sololá	4	Finca Santa Victoria	3	Marzo	2023-09-03T00:00:00	2024-11-08T13:00:00	2	Temperatura media	18.6
94238	7	Sololá	701	Sololá	4	Finca Santa Victoria	3	Marzo	2023-09-03T00:00:00	2024-11-08T13:00:00	4	Temperatura máxima	19.5
94239	7	Sololá	701	Sololá	4	Finca Santa Victoria	3	Marzo	2023-09-03T00:00:00	2024-11-08T13:00:00	3	Temperatura mínima	18.2
94240	7	Sololá	701	Sololá	4	Finca Santa Victoria	3	Marzo	2023-09-03T00:00:00	2024-11-08T13:00:00	5	Humedad	74
94241	7	Sololá	701	Sololá	4	Finca Santa Victoria	3	Marzo	2023-09-03T00:00:00	2024-11-08T13:00:00	6	Velocidad del viento	4.8
94242	7	Sololá	701	Sololá	4	Finca Santa Victoria	3	Marzo	2023-09-03T00:00:00	2024-11-08T13:00:00	7	Dirección del viento	4.83
94243	7	Sololá	701	Sololá	4	Finca Santa Victoria	3	Marzo	2023-09-03T00:00:00	2024-11-08T13:00:00	1	Precipitación	0
94244	7	Sololá	701	Sololá	4	Finca Santa Victoria	3	Marzo	2023-09-03T00:00:00	2024-11-08T13:00:00	8	Radiación solar	884
94245	7	Sololá	701	Sololá	4	Finca Santa Victoria	3	Marzo	2023-09-03T00:00:00	2024-11-08T14:00:00	2	Temperatura media	16.5
94246	7	Sololá	701	Sololá	4	Finca Santa Victoria	3	Marzo	2023-09-03T00:00:00	2024-11-08T14:00:00	4	Temperatura máxima	18.7
94247	7	Sololá	701	Sololá	4	Finca Santa Victoria	3	Marzo	2023-09-03T00:00:00	2024-11-08T14:00:00	3	Temperatura mínima	16.5
94248	7	Sololá	701	Sololá	4	Finca Santa Victoria	3	Marzo	2023-09-03T00:00:00	2024-11-08T14:00:00	5	Humedad	83
94249	7	Sololá	701	Sololá	4	Finca Santa Victoria	3	Marzo	2023-09-03T00:00:00	2024-11-08T14:00:00	6	Velocidad del viento	4.8
94250	7	Sololá	701	Sololá	4	Finca Santa Victoria	3	Marzo	2023-09-03T00:00:00	2024-11-08T14:00:00	7	Dirección del viento	4.83
94251	7	Sololá	701	Sololá	4	Finca Santa Victoria	3	Marzo	2023-09-03T00:00:00	2024-11-08T14:00:00	1	Precipitación	0
94252	7	Sololá	701	Sololá	4	Finca Santa Victoria	3	Marzo	2023-09-03T00:00:00	2024-11-08T14:00:00	8	Radiación solar	386
94253	7	Sololá	701	Sololá	4	Finca Santa Victoria	3	Marzo	2023-09-03T00:00:00	2024-11-08T15:00:00	2	Temperatura media	16.5
94254	7	Sololá	701	Sololá	4	Finca Santa Victoria	3	Marzo	2023-09-03T00:00:00	2024-11-08T15:00:00	4	Temperatura máxima	17.2
94255	7	Sololá	701	Sololá	4	Finca Santa Victoria	3	Marzo	2023-09-03T00:00:00	2024-11-08T15:00:00	3	Temperatura mínima	16.3
94256	7	Sololá	701	Sololá	4	Finca Santa Victoria	3	Marzo	2023-09-03T00:00:00	2024-11-08T15:00:00	5	Humedad	84
94257	7	Sololá	701	Sololá	4	Finca Santa Victoria	3	Marzo	2023-09-03T00:00:00	2024-11-08T15:00:00	6	Velocidad del viento	4.8
94258	7	Sololá	701	Sololá	4	Finca Santa Victoria	3	Marzo	2023-09-03T00:00:00	2024-11-08T15:00:00	7	Dirección del viento	4.83
94259	7	Sololá	701	Sololá	4	Finca Santa Victoria	3	Marzo	2023-09-03T00:00:00	2024-11-08T15:00:00	1	Precipitación	0
94260	7	Sololá	701	Sololá	4	Finca Santa Victoria	3	Marzo	2023-09-03T00:00:00	2024-11-08T15:00:00	8	Radiación solar	316
94261	7	Sololá	701	Sololá	4	Finca Santa Victoria	3	Marzo	2023-09-03T00:00:00	2024-11-08T16:00:00	2	Temperatura media	16.1
94262	7	Sololá	701	Sololá	4	Finca Santa Victoria	3	Marzo	2023-09-03T00:00:00	2024-11-08T16:00:00	4	Temperatura máxima	16.7
94263	7	Sololá	701	Sololá	4	Finca Santa Victoria	3	Marzo	2023-09-03T00:00:00	2024-11-08T16:00:00	3	Temperatura mínima	16.1
94264	7	Sololá	701	Sololá	4	Finca Santa Victoria	3	Marzo	2023-09-03T00:00:00	2024-11-08T16:00:00	5	Humedad	86
94265	7	Sololá	701	Sololá	4	Finca Santa Victoria	3	Marzo	2023-09-03T00:00:00	2024-11-08T16:00:00	6	Velocidad del viento	4.8
94266	7	Sololá	701	Sololá	4	Finca Santa Victoria	3	Marzo	2023-09-03T00:00:00	2024-11-08T16:00:00	7	Dirección del viento	4.83
94267	7	Sololá	701	Sololá	4	Finca Santa Victoria	3	Marzo	2023-09-03T00:00:00	2024-11-08T16:00:00	1	Precipitación	0
94268	7	Sololá	701	Sololá	4	Finca Santa Victoria	3	Marzo	2023-09-03T00:00:00	2024-11-08T16:00:00	8	Radiación solar	242
94269	7	Sololá	701	Sololá	4	Finca Santa Victoria	3	Marzo	2023-09-03T00:00:00	2024-11-08T17:00:00	2	Temperatura media	14.9
94270	7	Sololá	701	Sololá	4	Finca Santa Victoria	3	Marzo	2023-09-03T00:00:00	2024-11-08T17:00:00	4	Temperatura máxima	16.1
94271	7	Sololá	701	Sololá	4	Finca Santa Victoria	3	Marzo	2023-09-03T00:00:00	2024-11-08T17:00:00	3	Temperatura mínima	14.9
94272	7	Sololá	701	Sololá	4	Finca Santa Victoria	3	Marzo	2023-09-03T00:00:00	2024-11-08T17:00:00	5	Humedad	91
94273	7	Sololá	701	Sololá	4	Finca Santa Victoria	3	Marzo	2023-09-03T00:00:00	2024-11-08T17:00:00	6	Velocidad del viento	3.2
94274	7	Sololá	701	Sololá	4	Finca Santa Victoria	3	Marzo	2023-09-03T00:00:00	2024-11-08T17:00:00	7	Dirección del viento	3.22
94275	7	Sololá	701	Sololá	4	Finca Santa Victoria	3	Marzo	2023-09-03T00:00:00	2024-11-08T17:00:00	1	Precipitación	0
94276	7	Sololá	701	Sololá	4	Finca Santa Victoria	3	Marzo	2023-09-03T00:00:00	2024-11-08T17:00:00	8	Radiación solar	83
94277	7	Sololá	701	Sololá	4	Finca Santa Victoria	3	Marzo	2023-09-03T00:00:00	2024-11-08T18:00:00	2	Temperatura media	14.3
94278	7	Sololá	701	Sololá	4	Finca Santa Victoria	3	Marzo	2023-09-03T00:00:00	2024-11-08T18:00:00	4	Temperatura máxima	15
94279	7	Sololá	701	Sololá	4	Finca Santa Victoria	3	Marzo	2023-09-03T00:00:00	2024-11-08T18:00:00	3	Temperatura mínima	14.3
94280	7	Sololá	701	Sololá	4	Finca Santa Victoria	3	Marzo	2023-09-03T00:00:00	2024-11-08T18:00:00	5	Humedad	95
94281	7	Sololá	701	Sololá	4	Finca Santa Victoria	3	Marzo	2023-09-03T00:00:00	2024-11-08T18:00:00	6	Velocidad del viento	1.6
94282	7	Sololá	701	Sololá	4	Finca Santa Victoria	3	Marzo	2023-09-03T00:00:00	2024-11-08T18:00:00	7	Dirección del viento	1.61
94283	7	Sololá	701	Sololá	4	Finca Santa Victoria	3	Marzo	2023-09-03T00:00:00	2024-11-08T18:00:00	1	Precipitación	0
94284	7	Sololá	701	Sololá	4	Finca Santa Victoria	3	Marzo	2023-09-03T00:00:00	2024-11-08T18:00:00	8	Radiación solar	24
94285	7	Sololá	701	Sololá	4	Finca Santa Victoria	3	Marzo	2023-09-03T00:00:00	2024-11-08T19:00:00	2	Temperatura media	14
94286	7	Sololá	701	Sololá	4	Finca Santa Victoria	3	Marzo	2023-09-03T00:00:00	2024-11-08T19:00:00	4	Temperatura máxima	14.4
94287	7	Sololá	701	Sololá	4	Finca Santa Victoria	3	Marzo	2023-09-03T00:00:00	2024-11-08T19:00:00	3	Temperatura mínima	14
94288	7	Sololá	701	Sololá	4	Finca Santa Victoria	3	Marzo	2023-09-03T00:00:00	2024-11-08T19:00:00	5	Humedad	94
94289	7	Sololá	701	Sololá	4	Finca Santa Victoria	3	Marzo	2023-09-03T00:00:00	2024-11-08T19:00:00	6	Velocidad del viento	0
94290	7	Sololá	701	Sololá	4	Finca Santa Victoria	3	Marzo	2023-09-03T00:00:00	2024-11-08T19:00:00	7	Dirección del viento	0
94291	7	Sololá	701	Sololá	4	Finca Santa Victoria	3	Marzo	2023-09-03T00:00:00	2024-11-08T19:00:00	1	Precipitación	0
94292	7	Sololá	701	Sololá	4	Finca Santa Victoria	3	Marzo	2023-09-03T00:00:00	2024-11-08T19:00:00	8	Radiación solar	0
94293	7	Sololá	701	Sololá	4	Finca Santa Victoria	3	Marzo	2023-09-03T00:00:00	2024-11-08T20:00:00	2	Temperatura media	14
94294	7	Sololá	701	Sololá	4	Finca Santa Victoria	3	Marzo	2023-09-03T00:00:00	2024-11-08T20:00:00	4	Temperatura máxima	14.1
94295	7	Sololá	701	Sololá	4	Finca Santa Victoria	3	Marzo	2023-09-03T00:00:00	2024-11-08T20:00:00	3	Temperatura mínima	13.9
94296	7	Sololá	701	Sololá	4	Finca Santa Victoria	3	Marzo	2023-09-03T00:00:00	2024-11-08T20:00:00	5	Humedad	93
94297	7	Sololá	701	Sololá	4	Finca Santa Victoria	3	Marzo	2023-09-03T00:00:00	2024-11-08T20:00:00	6	Velocidad del viento	0
94298	7	Sololá	701	Sololá	4	Finca Santa Victoria	3	Marzo	2023-09-03T00:00:00	2024-11-08T20:00:00	7	Dirección del viento	0
94299	7	Sololá	701	Sololá	4	Finca Santa Victoria	3	Marzo	2023-09-03T00:00:00	2024-11-08T20:00:00	1	Precipitación	0
94300	7	Sololá	701	Sololá	4	Finca Santa Victoria	3	Marzo	2023-09-03T00:00:00	2024-11-08T20:00:00	8	Radiación solar	0
94301	7	Sololá	701	Sololá	4	Finca Santa Victoria	3	Marzo	2023-09-03T00:00:00	2024-11-08T21:00:00	2	Temperatura media	12.6
94302	7	Sololá	701	Sololá	4	Finca Santa Victoria	3	Marzo	2023-09-03T00:00:00	2024-11-08T21:00:00	4	Temperatura máxima	14
94303	7	Sololá	701	Sololá	4	Finca Santa Victoria	3	Marzo	2023-09-03T00:00:00	2024-11-08T21:00:00	3	Temperatura mínima	12.6
94304	7	Sololá	701	Sololá	4	Finca Santa Victoria	3	Marzo	2023-09-03T00:00:00	2024-11-08T21:00:00	5	Humedad	82
94305	7	Sololá	701	Sololá	4	Finca Santa Victoria	3	Marzo	2023-09-03T00:00:00	2024-11-08T21:00:00	6	Velocidad del viento	1.6
94306	7	Sololá	701	Sololá	4	Finca Santa Victoria	3	Marzo	2023-09-03T00:00:00	2024-11-08T21:00:00	7	Dirección del viento	1.61
94307	7	Sololá	701	Sololá	4	Finca Santa Victoria	3	Marzo	2023-09-03T00:00:00	2024-11-08T21:00:00	1	Precipitación	0
94308	7	Sololá	701	Sololá	4	Finca Santa Victoria	3	Marzo	2023-09-03T00:00:00	2024-11-08T21:00:00	8	Radiación solar	0
94309	7	Sololá	701	Sololá	4	Finca Santa Victoria	3	Marzo	2023-09-03T00:00:00	2024-11-08T22:00:00	2	Temperatura media	11.9
94310	7	Sololá	701	Sololá	4	Finca Santa Victoria	3	Marzo	2023-09-03T00:00:00	2024-11-08T22:00:00	4	Temperatura máxima	12.7
94311	7	Sololá	701	Sololá	4	Finca Santa Victoria	3	Marzo	2023-09-03T00:00:00	2024-11-08T22:00:00	3	Temperatura mínima	11.9
94312	7	Sololá	701	Sololá	4	Finca Santa Victoria	3	Marzo	2023-09-03T00:00:00	2024-11-08T22:00:00	5	Humedad	85
94313	7	Sololá	701	Sololá	4	Finca Santa Victoria	3	Marzo	2023-09-03T00:00:00	2024-11-08T22:00:00	6	Velocidad del viento	0
94314	7	Sololá	701	Sololá	4	Finca Santa Victoria	3	Marzo	2023-09-03T00:00:00	2024-11-08T22:00:00	7	Dirección del viento	0
94315	7	Sololá	701	Sololá	4	Finca Santa Victoria	3	Marzo	2023-09-03T00:00:00	2024-11-08T22:00:00	1	Precipitación	0
94316	7	Sololá	701	Sololá	4	Finca Santa Victoria	3	Marzo	2023-09-03T00:00:00	2024-11-08T22:00:00	8	Radiación solar	0
94317	7	Sololá	701	Sololá	4	Finca Santa Victoria	3	Marzo	2023-09-03T00:00:00	2024-11-08T23:00:00	2	Temperatura media	11.2
94318	7	Sololá	701	Sololá	4	Finca Santa Victoria	3	Marzo	2023-09-03T00:00:00	2024-11-08T23:00:00	4	Temperatura máxima	11.9
94319	7	Sololá	701	Sololá	4	Finca Santa Victoria	3	Marzo	2023-09-03T00:00:00	2024-11-08T23:00:00	3	Temperatura mínima	11.2
94320	7	Sololá	701	Sololá	4	Finca Santa Victoria	3	Marzo	2023-09-03T00:00:00	2024-11-08T23:00:00	5	Humedad	88
94321	7	Sololá	701	Sololá	4	Finca Santa Victoria	3	Marzo	2023-09-03T00:00:00	2024-11-08T23:00:00	6	Velocidad del viento	0
94322	7	Sololá	701	Sololá	4	Finca Santa Victoria	3	Marzo	2023-09-03T00:00:00	2024-11-08T23:00:00	7	Dirección del viento	0
94323	7	Sololá	701	Sololá	4	Finca Santa Victoria	3	Marzo	2023-09-03T00:00:00	2024-11-08T23:00:00	1	Precipitación	0
94324	7	Sololá	701	Sololá	4	Finca Santa Victoria	3	Marzo	2023-09-03T00:00:00	2024-11-08T23:00:00	8	Radiación solar	0
94325	7	Sololá	701	Sololá	4	Finca Santa Victoria	3	Marzo	2023-10-03T00:00:00	2024-11-08T00:00:00	2	Temperatura media	10.7
94326	7	Sololá	701	Sololá	4	Finca Santa Victoria	3	Marzo	2023-10-03T00:00:00	2024-11-08T00:00:00	4	Temperatura máxima	11.2
94327	7	Sololá	701	Sololá	4	Finca Santa Victoria	3	Marzo	2023-10-03T00:00:00	2024-11-08T00:00:00	3	Temperatura mínima	10.7
94328	7	Sololá	701	Sololá	4	Finca Santa Victoria	3	Marzo	2023-10-03T00:00:00	2024-11-08T00:00:00	5	Humedad	94
94329	7	Sololá	701	Sololá	4	Finca Santa Victoria	3	Marzo	2023-10-03T00:00:00	2024-11-08T00:00:00	6	Velocidad del viento	0
94330	7	Sololá	701	Sololá	4	Finca Santa Victoria	3	Marzo	2023-10-03T00:00:00	2024-11-08T00:00:00	7	Dirección del viento	0
94331	7	Sololá	701	Sololá	4	Finca Santa Victoria	3	Marzo	2023-10-03T00:00:00	2024-11-08T00:00:00	1	Precipitación	0
94332	7	Sololá	701	Sololá	4	Finca Santa Victoria	3	Marzo	2023-10-03T00:00:00	2024-11-08T00:00:00	8	Radiación solar	0
94333	7	Sololá	701	Sololá	4	Finca Santa Victoria	3	Marzo	2023-10-03T00:00:00	2024-11-08T01:00:00	2	Temperatura media	10.3
94334	7	Sololá	701	Sololá	4	Finca Santa Victoria	3	Marzo	2023-10-03T00:00:00	2024-11-08T01:00:00	4	Temperatura máxima	10.8
94335	7	Sololá	701	Sololá	4	Finca Santa Victoria	3	Marzo	2023-10-03T00:00:00	2024-11-08T01:00:00	3	Temperatura mínima	10.3
94336	7	Sololá	701	Sololá	4	Finca Santa Victoria	3	Marzo	2023-10-03T00:00:00	2024-11-08T01:00:00	5	Humedad	95
94337	7	Sololá	701	Sololá	4	Finca Santa Victoria	3	Marzo	2023-10-03T00:00:00	2024-11-08T01:00:00	6	Velocidad del viento	1.6
94338	7	Sololá	701	Sololá	4	Finca Santa Victoria	3	Marzo	2023-10-03T00:00:00	2024-11-08T01:00:00	7	Dirección del viento	1.61
94339	7	Sololá	701	Sololá	4	Finca Santa Victoria	3	Marzo	2023-10-03T00:00:00	2024-11-08T01:00:00	1	Precipitación	0
94340	7	Sololá	701	Sololá	4	Finca Santa Victoria	3	Marzo	2023-10-03T00:00:00	2024-11-08T01:00:00	8	Radiación solar	0
94341	7	Sololá	701	Sololá	4	Finca Santa Victoria	3	Marzo	2023-10-03T00:00:00	2024-11-08T02:00:00	2	Temperatura media	9.9
94342	7	Sololá	701	Sololá	4	Finca Santa Victoria	3	Marzo	2023-10-03T00:00:00	2024-11-08T02:00:00	4	Temperatura máxima	10.4
94343	7	Sololá	701	Sololá	4	Finca Santa Victoria	3	Marzo	2023-10-03T00:00:00	2024-11-08T02:00:00	3	Temperatura mínima	9.9
94344	7	Sololá	701	Sololá	4	Finca Santa Victoria	3	Marzo	2023-10-03T00:00:00	2024-11-08T02:00:00	5	Humedad	96
94345	7	Sololá	701	Sololá	4	Finca Santa Victoria	3	Marzo	2023-10-03T00:00:00	2024-11-08T02:00:00	6	Velocidad del viento	1.6
94346	7	Sololá	701	Sololá	4	Finca Santa Victoria	3	Marzo	2023-10-03T00:00:00	2024-11-08T02:00:00	7	Dirección del viento	1.61
94347	7	Sololá	701	Sololá	4	Finca Santa Victoria	3	Marzo	2023-10-03T00:00:00	2024-11-08T02:00:00	1	Precipitación	0
94348	7	Sololá	701	Sololá	4	Finca Santa Victoria	3	Marzo	2023-10-03T00:00:00	2024-11-08T02:00:00	8	Radiación solar	0
94349	7	Sololá	701	Sololá	4	Finca Santa Victoria	3	Marzo	2023-10-03T00:00:00	2024-11-08T03:00:00	2	Temperatura media	9.6
94350	7	Sololá	701	Sololá	4	Finca Santa Victoria	3	Marzo	2023-10-03T00:00:00	2024-11-08T03:00:00	4	Temperatura máxima	9.9
94351	7	Sololá	701	Sololá	4	Finca Santa Victoria	3	Marzo	2023-10-03T00:00:00	2024-11-08T03:00:00	3	Temperatura mínima	9.6
94352	7	Sololá	701	Sololá	4	Finca Santa Victoria	3	Marzo	2023-10-03T00:00:00	2024-11-08T03:00:00	5	Humedad	97
94353	7	Sololá	701	Sololá	4	Finca Santa Victoria	3	Marzo	2023-10-03T00:00:00	2024-11-08T03:00:00	6	Velocidad del viento	0
94354	7	Sololá	701	Sololá	4	Finca Santa Victoria	3	Marzo	2023-10-03T00:00:00	2024-11-08T03:00:00	7	Dirección del viento	0
94355	7	Sololá	701	Sololá	4	Finca Santa Victoria	3	Marzo	2023-10-03T00:00:00	2024-11-08T03:00:00	1	Precipitación	0
94356	7	Sololá	701	Sololá	4	Finca Santa Victoria	3	Marzo	2023-10-03T00:00:00	2024-11-08T03:00:00	8	Radiación solar	0
94357	7	Sololá	701	Sololá	4	Finca Santa Victoria	3	Marzo	2023-10-03T00:00:00	2024-11-08T04:00:00	2	Temperatura media	9.4
94358	7	Sololá	701	Sololá	4	Finca Santa Victoria	3	Marzo	2023-10-03T00:00:00	2024-11-08T04:00:00	4	Temperatura máxima	9.7
94359	7	Sololá	701	Sololá	4	Finca Santa Victoria	3	Marzo	2023-10-03T00:00:00	2024-11-08T04:00:00	3	Temperatura mínima	9.4
94360	7	Sololá	701	Sololá	4	Finca Santa Victoria	3	Marzo	2023-10-03T00:00:00	2024-11-08T04:00:00	5	Humedad	97
94361	7	Sololá	701	Sololá	4	Finca Santa Victoria	3	Marzo	2023-10-03T00:00:00	2024-11-08T04:00:00	6	Velocidad del viento	1.6
94362	7	Sololá	701	Sololá	4	Finca Santa Victoria	3	Marzo	2023-10-03T00:00:00	2024-11-08T04:00:00	7	Dirección del viento	1.61
94363	7	Sololá	701	Sololá	4	Finca Santa Victoria	3	Marzo	2023-10-03T00:00:00	2024-11-08T04:00:00	1	Precipitación	0
94364	7	Sololá	701	Sololá	4	Finca Santa Victoria	3	Marzo	2023-10-03T00:00:00	2024-11-08T04:00:00	8	Radiación solar	0
94365	7	Sololá	701	Sololá	4	Finca Santa Victoria	3	Marzo	2023-10-03T00:00:00	2024-11-08T05:00:00	2	Temperatura media	9.2
94366	7	Sololá	701	Sololá	4	Finca Santa Victoria	3	Marzo	2023-10-03T00:00:00	2024-11-08T05:00:00	4	Temperatura máxima	9.4
94367	7	Sololá	701	Sololá	4	Finca Santa Victoria	3	Marzo	2023-10-03T00:00:00	2024-11-08T05:00:00	3	Temperatura mínima	8.9
94368	7	Sololá	701	Sololá	4	Finca Santa Victoria	3	Marzo	2023-10-03T00:00:00	2024-11-08T05:00:00	5	Humedad	97
94369	7	Sololá	701	Sololá	4	Finca Santa Victoria	3	Marzo	2023-10-03T00:00:00	2024-11-08T05:00:00	6	Velocidad del viento	1.6
94370	7	Sololá	701	Sololá	4	Finca Santa Victoria	3	Marzo	2023-10-03T00:00:00	2024-11-08T05:00:00	7	Dirección del viento	1.61
94371	7	Sololá	701	Sololá	4	Finca Santa Victoria	3	Marzo	2023-10-03T00:00:00	2024-11-08T05:00:00	1	Precipitación	0
94372	7	Sololá	701	Sololá	4	Finca Santa Victoria	3	Marzo	2023-10-03T00:00:00	2024-11-08T05:00:00	8	Radiación solar	0
94373	7	Sololá	701	Sololá	4	Finca Santa Victoria	3	Marzo	2023-10-03T00:00:00	2024-11-08T06:00:00	2	Temperatura media	9.4
94374	7	Sololá	701	Sololá	4	Finca Santa Victoria	3	Marzo	2023-10-03T00:00:00	2024-11-08T06:00:00	4	Temperatura máxima	9.5
94375	7	Sololá	701	Sololá	4	Finca Santa Victoria	3	Marzo	2023-10-03T00:00:00	2024-11-08T06:00:00	3	Temperatura mínima	9.1
94376	7	Sololá	701	Sololá	4	Finca Santa Victoria	3	Marzo	2023-10-03T00:00:00	2024-11-08T06:00:00	5	Humedad	98
94377	7	Sololá	701	Sololá	4	Finca Santa Victoria	3	Marzo	2023-10-03T00:00:00	2024-11-08T06:00:00	6	Velocidad del viento	1.6
94378	7	Sololá	701	Sololá	4	Finca Santa Victoria	3	Marzo	2023-10-03T00:00:00	2024-11-08T06:00:00	7	Dirección del viento	1.61
94379	7	Sololá	701	Sololá	4	Finca Santa Victoria	3	Marzo	2023-10-03T00:00:00	2024-11-08T06:00:00	1	Precipitación	0
94380	7	Sololá	701	Sololá	4	Finca Santa Victoria	3	Marzo	2023-10-03T00:00:00	2024-11-08T06:00:00	8	Radiación solar	0
94381	7	Sololá	701	Sololá	4	Finca Santa Victoria	3	Marzo	2023-10-03T00:00:00	2024-11-08T07:00:00	2	Temperatura media	9.5
94382	7	Sololá	701	Sololá	4	Finca Santa Victoria	3	Marzo	2023-10-03T00:00:00	2024-11-08T07:00:00	4	Temperatura máxima	9.6
94383	7	Sololá	701	Sololá	4	Finca Santa Victoria	3	Marzo	2023-10-03T00:00:00	2024-11-08T07:00:00	3	Temperatura mínima	9.3
94384	7	Sololá	701	Sololá	4	Finca Santa Victoria	3	Marzo	2023-10-03T00:00:00	2024-11-08T07:00:00	5	Humedad	98
94385	7	Sololá	701	Sololá	4	Finca Santa Victoria	3	Marzo	2023-10-03T00:00:00	2024-11-08T07:00:00	6	Velocidad del viento	1.6
94386	7	Sololá	701	Sololá	4	Finca Santa Victoria	3	Marzo	2023-10-03T00:00:00	2024-11-08T07:00:00	7	Dirección del viento	1.61
94387	7	Sololá	701	Sololá	4	Finca Santa Victoria	3	Marzo	2023-10-03T00:00:00	2024-11-08T07:00:00	1	Precipitación	0
94388	7	Sololá	701	Sololá	4	Finca Santa Victoria	3	Marzo	2023-10-03T00:00:00	2024-11-08T07:00:00	8	Radiación solar	7
94389	7	Sololá	701	Sololá	4	Finca Santa Victoria	3	Marzo	2023-10-03T00:00:00	2024-11-08T08:00:00	2	Temperatura media	11.1
94390	7	Sololá	701	Sololá	4	Finca Santa Victoria	3	Marzo	2023-10-03T00:00:00	2024-11-08T08:00:00	4	Temperatura máxima	11.1
94391	7	Sololá	701	Sololá	4	Finca Santa Victoria	3	Marzo	2023-10-03T00:00:00	2024-11-08T08:00:00	3	Temperatura mínima	9.5
94392	7	Sololá	701	Sololá	4	Finca Santa Victoria	3	Marzo	2023-10-03T00:00:00	2024-11-08T08:00:00	5	Humedad	98
94393	7	Sololá	701	Sololá	4	Finca Santa Victoria	3	Marzo	2023-10-03T00:00:00	2024-11-08T08:00:00	6	Velocidad del viento	0
94394	7	Sololá	701	Sololá	4	Finca Santa Victoria	3	Marzo	2023-10-03T00:00:00	2024-11-08T08:00:00	7	Dirección del viento	0
94395	7	Sololá	701	Sololá	4	Finca Santa Victoria	3	Marzo	2023-10-03T00:00:00	2024-11-08T08:00:00	1	Precipitación	0
94396	7	Sololá	701	Sololá	4	Finca Santa Victoria	3	Marzo	2023-10-03T00:00:00	2024-11-08T08:00:00	8	Radiación solar	49
94397	7	Sololá	701	Sololá	4	Finca Santa Victoria	3	Marzo	2023-10-03T00:00:00	2024-11-08T09:00:00	2	Temperatura media	12
94398	7	Sololá	701	Sololá	4	Finca Santa Victoria	3	Marzo	2023-10-03T00:00:00	2024-11-08T09:00:00	4	Temperatura máxima	12
94399	7	Sololá	701	Sololá	4	Finca Santa Victoria	3	Marzo	2023-10-03T00:00:00	2024-11-08T09:00:00	3	Temperatura mínima	11.1
94400	7	Sololá	701	Sololá	4	Finca Santa Victoria	3	Marzo	2023-10-03T00:00:00	2024-11-08T09:00:00	5	Humedad	93
94401	7	Sololá	701	Sololá	4	Finca Santa Victoria	3	Marzo	2023-10-03T00:00:00	2024-11-08T09:00:00	6	Velocidad del viento	1.6
94402	7	Sololá	701	Sololá	4	Finca Santa Victoria	3	Marzo	2023-10-03T00:00:00	2024-11-08T09:00:00	7	Dirección del viento	1.61
94403	7	Sololá	701	Sololá	4	Finca Santa Victoria	3	Marzo	2023-10-03T00:00:00	2024-11-08T09:00:00	1	Precipitación	0
94404	7	Sololá	701	Sololá	4	Finca Santa Victoria	3	Marzo	2023-10-03T00:00:00	2024-11-08T09:00:00	8	Radiación solar	101
94405	7	Sololá	701	Sololá	4	Finca Santa Victoria	3	Marzo	2023-10-03T00:00:00	2024-11-08T10:00:00	2	Temperatura media	13.1
94406	7	Sololá	701	Sololá	4	Finca Santa Victoria	3	Marzo	2023-10-03T00:00:00	2024-11-08T10:00:00	4	Temperatura máxima	13.1
94407	7	Sololá	701	Sololá	4	Finca Santa Victoria	3	Marzo	2023-10-03T00:00:00	2024-11-08T10:00:00	3	Temperatura mínima	11.9
94408	7	Sololá	701	Sololá	4	Finca Santa Victoria	3	Marzo	2023-10-03T00:00:00	2024-11-08T10:00:00	5	Humedad	92
94409	7	Sololá	701	Sololá	4	Finca Santa Victoria	3	Marzo	2023-10-03T00:00:00	2024-11-08T10:00:00	6	Velocidad del viento	1.6
94410	7	Sololá	701	Sololá	4	Finca Santa Victoria	3	Marzo	2023-10-03T00:00:00	2024-11-08T10:00:00	7	Dirección del viento	1.61
94411	7	Sololá	701	Sololá	4	Finca Santa Victoria	3	Marzo	2023-10-03T00:00:00	2024-11-08T10:00:00	1	Precipitación	0
94412	7	Sololá	701	Sololá	4	Finca Santa Victoria	3	Marzo	2023-10-03T00:00:00	2024-11-08T10:00:00	8	Radiación solar	121
94413	7	Sololá	701	Sololá	4	Finca Santa Victoria	3	Marzo	2023-10-03T00:00:00	2024-11-08T11:00:00	2	Temperatura media	14.3
94414	7	Sololá	701	Sololá	4	Finca Santa Victoria	3	Marzo	2023-10-03T00:00:00	2024-11-08T11:00:00	4	Temperatura máxima	14.3
94415	7	Sololá	701	Sololá	4	Finca Santa Victoria	3	Marzo	2023-10-03T00:00:00	2024-11-08T11:00:00	3	Temperatura mínima	13.1
94416	7	Sololá	701	Sololá	4	Finca Santa Victoria	3	Marzo	2023-10-03T00:00:00	2024-11-08T11:00:00	5	Humedad	86
94417	7	Sololá	701	Sololá	4	Finca Santa Victoria	3	Marzo	2023-10-03T00:00:00	2024-11-08T11:00:00	6	Velocidad del viento	3.2
94418	7	Sololá	701	Sololá	4	Finca Santa Victoria	3	Marzo	2023-10-03T00:00:00	2024-11-08T11:00:00	7	Dirección del viento	3.22
94419	7	Sololá	701	Sololá	4	Finca Santa Victoria	3	Marzo	2023-10-03T00:00:00	2024-11-08T11:00:00	1	Precipitación	0
94420	7	Sololá	701	Sololá	4	Finca Santa Victoria	3	Marzo	2023-10-03T00:00:00	2024-11-08T11:00:00	8	Radiación solar	264
94421	7	Sololá	701	Sololá	4	Finca Santa Victoria	3	Marzo	2023-10-03T00:00:00	2024-11-08T12:00:00	2	Temperatura media	13.3
94422	7	Sololá	701	Sololá	4	Finca Santa Victoria	3	Marzo	2023-10-03T00:00:00	2024-11-08T12:00:00	4	Temperatura máxima	14.3
94423	7	Sololá	701	Sololá	4	Finca Santa Victoria	3	Marzo	2023-10-03T00:00:00	2024-11-08T12:00:00	3	Temperatura mínima	13.1
94424	7	Sololá	701	Sololá	4	Finca Santa Victoria	3	Marzo	2023-10-03T00:00:00	2024-11-08T12:00:00	5	Humedad	91
94425	7	Sololá	701	Sololá	4	Finca Santa Victoria	3	Marzo	2023-10-03T00:00:00	2024-11-08T12:00:00	6	Velocidad del viento	3.2
94426	7	Sololá	701	Sololá	4	Finca Santa Victoria	3	Marzo	2023-10-03T00:00:00	2024-11-08T12:00:00	7	Dirección del viento	3.22
94427	7	Sololá	701	Sololá	4	Finca Santa Victoria	3	Marzo	2023-10-03T00:00:00	2024-11-08T12:00:00	1	Precipitación	0
94428	7	Sololá	701	Sololá	4	Finca Santa Victoria	3	Marzo	2023-10-03T00:00:00	2024-11-08T12:00:00	8	Radiación solar	165
94429	7	Sololá	701	Sololá	4	Finca Santa Victoria	3	Marzo	2023-10-03T00:00:00	2024-11-08T13:00:00	2	Temperatura media	15
94430	7	Sololá	701	Sololá	4	Finca Santa Victoria	3	Marzo	2023-10-03T00:00:00	2024-11-08T13:00:00	4	Temperatura máxima	15
94431	7	Sololá	701	Sololá	4	Finca Santa Victoria	3	Marzo	2023-10-03T00:00:00	2024-11-08T13:00:00	3	Temperatura mínima	13.3
94432	7	Sololá	701	Sololá	4	Finca Santa Victoria	3	Marzo	2023-10-03T00:00:00	2024-11-08T13:00:00	5	Humedad	85
94433	7	Sololá	701	Sololá	4	Finca Santa Victoria	3	Marzo	2023-10-03T00:00:00	2024-11-08T13:00:00	6	Velocidad del viento	3.2
94434	7	Sololá	701	Sololá	4	Finca Santa Victoria	3	Marzo	2023-10-03T00:00:00	2024-11-08T13:00:00	7	Dirección del viento	3.22
94435	7	Sololá	701	Sololá	4	Finca Santa Victoria	3	Marzo	2023-10-03T00:00:00	2024-11-08T13:00:00	1	Precipitación	0
94436	7	Sololá	701	Sololá	4	Finca Santa Victoria	3	Marzo	2023-10-03T00:00:00	2024-11-08T13:00:00	8	Radiación solar	315
94437	7	Sololá	701	Sololá	4	Finca Santa Victoria	3	Marzo	2023-10-03T00:00:00	2024-11-08T14:00:00	2	Temperatura media	15.6
94438	7	Sololá	701	Sololá	4	Finca Santa Victoria	3	Marzo	2023-10-03T00:00:00	2024-11-08T14:00:00	4	Temperatura máxima	15.6
94439	7	Sololá	701	Sololá	4	Finca Santa Victoria	3	Marzo	2023-10-03T00:00:00	2024-11-08T14:00:00	3	Temperatura mínima	14.8
94440	7	Sololá	701	Sololá	4	Finca Santa Victoria	3	Marzo	2023-10-03T00:00:00	2024-11-08T14:00:00	5	Humedad	81
94441	7	Sololá	701	Sololá	4	Finca Santa Victoria	3	Marzo	2023-10-03T00:00:00	2024-11-08T14:00:00	6	Velocidad del viento	3.2
94442	7	Sololá	701	Sololá	4	Finca Santa Victoria	3	Marzo	2023-10-03T00:00:00	2024-11-08T14:00:00	7	Dirección del viento	3.22
94443	7	Sololá	701	Sololá	4	Finca Santa Victoria	3	Marzo	2023-10-03T00:00:00	2024-11-08T14:00:00	1	Precipitación	0
94444	7	Sololá	701	Sololá	4	Finca Santa Victoria	3	Marzo	2023-10-03T00:00:00	2024-11-08T14:00:00	8	Radiación solar	299
94445	7	Sololá	701	Sololá	4	Finca Santa Victoria	3	Marzo	2023-10-03T00:00:00	2024-11-08T15:00:00	2	Temperatura media	16.2
94446	7	Sololá	701	Sololá	4	Finca Santa Victoria	3	Marzo	2023-10-03T00:00:00	2024-11-08T15:00:00	4	Temperatura máxima	16.5
94447	7	Sololá	701	Sololá	4	Finca Santa Victoria	3	Marzo	2023-10-03T00:00:00	2024-11-08T15:00:00	3	Temperatura mínima	15.6
94448	7	Sololá	701	Sololá	4	Finca Santa Victoria	3	Marzo	2023-10-03T00:00:00	2024-11-08T15:00:00	5	Humedad	78
94449	7	Sololá	701	Sololá	4	Finca Santa Victoria	3	Marzo	2023-10-03T00:00:00	2024-11-08T15:00:00	6	Velocidad del viento	4.8
94450	7	Sololá	701	Sololá	4	Finca Santa Victoria	3	Marzo	2023-10-03T00:00:00	2024-11-08T15:00:00	7	Dirección del viento	4.83
94451	7	Sololá	701	Sololá	4	Finca Santa Victoria	3	Marzo	2023-10-03T00:00:00	2024-11-08T15:00:00	1	Precipitación	0
94452	7	Sololá	701	Sololá	4	Finca Santa Victoria	3	Marzo	2023-10-03T00:00:00	2024-11-08T15:00:00	8	Radiación solar	333
94453	7	Sololá	701	Sololá	4	Finca Santa Victoria	3	Marzo	2023-10-03T00:00:00	2024-11-08T16:00:00	2	Temperatura media	14.3
94454	7	Sololá	701	Sololá	4	Finca Santa Victoria	3	Marzo	2023-10-03T00:00:00	2024-11-08T16:00:00	4	Temperatura máxima	16.5
94455	7	Sololá	701	Sololá	4	Finca Santa Victoria	3	Marzo	2023-10-03T00:00:00	2024-11-08T16:00:00	3	Temperatura mínima	14.3
94456	7	Sololá	701	Sololá	4	Finca Santa Victoria	3	Marzo	2023-10-03T00:00:00	2024-11-08T16:00:00	5	Humedad	90
94457	7	Sololá	701	Sololá	4	Finca Santa Victoria	3	Marzo	2023-10-03T00:00:00	2024-11-08T16:00:00	6	Velocidad del viento	3.2
94458	7	Sololá	701	Sololá	4	Finca Santa Victoria	3	Marzo	2023-10-03T00:00:00	2024-11-08T16:00:00	7	Dirección del viento	3.22
94459	7	Sololá	701	Sololá	4	Finca Santa Victoria	3	Marzo	2023-10-03T00:00:00	2024-11-08T16:00:00	1	Precipitación	0
94460	7	Sololá	701	Sololá	4	Finca Santa Victoria	3	Marzo	2023-10-03T00:00:00	2024-11-08T16:00:00	8	Radiación solar	126
94461	7	Sololá	701	Sololá	4	Finca Santa Victoria	3	Marzo	2023-10-03T00:00:00	2024-11-08T17:00:00	2	Temperatura media	14.3
94462	7	Sololá	701	Sololá	4	Finca Santa Victoria	3	Marzo	2023-10-03T00:00:00	2024-11-08T17:00:00	4	Temperatura máxima	14.4
94463	7	Sololá	701	Sololá	4	Finca Santa Victoria	3	Marzo	2023-10-03T00:00:00	2024-11-08T17:00:00	3	Temperatura mínima	14.1
94464	7	Sololá	701	Sololá	4	Finca Santa Victoria	3	Marzo	2023-10-03T00:00:00	2024-11-08T17:00:00	5	Humedad	90
94465	7	Sololá	701	Sololá	4	Finca Santa Victoria	3	Marzo	2023-10-03T00:00:00	2024-11-08T17:00:00	6	Velocidad del viento	3.2
94466	7	Sololá	701	Sololá	4	Finca Santa Victoria	3	Marzo	2023-10-03T00:00:00	2024-11-08T17:00:00	7	Dirección del viento	3.22
94467	7	Sololá	701	Sololá	4	Finca Santa Victoria	3	Marzo	2023-10-03T00:00:00	2024-11-08T17:00:00	1	Precipitación	0
94468	7	Sololá	701	Sololá	4	Finca Santa Victoria	3	Marzo	2023-10-03T00:00:00	2024-11-08T17:00:00	8	Radiación solar	93
94469	7	Sololá	701	Sololá	4	Finca Santa Victoria	3	Marzo	2023-10-03T00:00:00	2024-11-08T18:00:00	2	Temperatura media	13.7
94470	7	Sololá	701	Sololá	4	Finca Santa Victoria	3	Marzo	2023-10-03T00:00:00	2024-11-08T18:00:00	4	Temperatura máxima	14.4
94471	7	Sololá	701	Sololá	4	Finca Santa Victoria	3	Marzo	2023-10-03T00:00:00	2024-11-08T18:00:00	3	Temperatura mínima	13.7
94472	7	Sololá	701	Sololá	4	Finca Santa Victoria	3	Marzo	2023-10-03T00:00:00	2024-11-08T18:00:00	5	Humedad	94
94473	7	Sololá	701	Sololá	4	Finca Santa Victoria	3	Marzo	2023-10-03T00:00:00	2024-11-08T18:00:00	6	Velocidad del viento	1.6
94474	7	Sololá	701	Sololá	4	Finca Santa Victoria	3	Marzo	2023-10-03T00:00:00	2024-11-08T18:00:00	7	Dirección del viento	1.61
94475	7	Sololá	701	Sololá	4	Finca Santa Victoria	3	Marzo	2023-10-03T00:00:00	2024-11-08T18:00:00	1	Precipitación	0
94476	7	Sololá	701	Sololá	4	Finca Santa Victoria	3	Marzo	2023-10-03T00:00:00	2024-11-08T18:00:00	8	Radiación solar	35
94477	7	Sololá	701	Sololá	4	Finca Santa Victoria	3	Marzo	2023-10-03T00:00:00	2024-11-08T19:00:00	2	Temperatura media	13.1
94478	7	Sololá	701	Sololá	4	Finca Santa Victoria	3	Marzo	2023-10-03T00:00:00	2024-11-08T19:00:00	4	Temperatura máxima	13.7
94479	7	Sololá	701	Sololá	4	Finca Santa Victoria	3	Marzo	2023-10-03T00:00:00	2024-11-08T19:00:00	3	Temperatura mínima	13.1
94480	7	Sololá	701	Sololá	4	Finca Santa Victoria	3	Marzo	2023-10-03T00:00:00	2024-11-08T19:00:00	5	Humedad	96
94481	7	Sololá	701	Sololá	4	Finca Santa Victoria	3	Marzo	2023-10-03T00:00:00	2024-11-08T19:00:00	6	Velocidad del viento	0
94482	7	Sololá	701	Sololá	4	Finca Santa Victoria	3	Marzo	2023-10-03T00:00:00	2024-11-08T19:00:00	7	Dirección del viento	0
94483	7	Sololá	701	Sololá	4	Finca Santa Victoria	3	Marzo	2023-10-03T00:00:00	2024-11-08T19:00:00	1	Precipitación	0
94484	7	Sololá	701	Sololá	4	Finca Santa Victoria	3	Marzo	2023-10-03T00:00:00	2024-11-08T19:00:00	8	Radiación solar	0
94485	7	Sololá	701	Sololá	4	Finca Santa Victoria	3	Marzo	2023-10-03T00:00:00	2024-11-08T20:00:00	2	Temperatura media	12.8
94486	7	Sololá	701	Sololá	4	Finca Santa Victoria	3	Marzo	2023-10-03T00:00:00	2024-11-08T20:00:00	4	Temperatura máxima	13.2
94487	7	Sololá	701	Sololá	4	Finca Santa Victoria	3	Marzo	2023-10-03T00:00:00	2024-11-08T20:00:00	3	Temperatura mínima	12.8
94488	7	Sololá	701	Sololá	4	Finca Santa Victoria	3	Marzo	2023-10-03T00:00:00	2024-11-08T20:00:00	5	Humedad	96
94489	7	Sololá	701	Sololá	4	Finca Santa Victoria	3	Marzo	2023-10-03T00:00:00	2024-11-08T20:00:00	6	Velocidad del viento	0
94490	7	Sololá	701	Sololá	4	Finca Santa Victoria	3	Marzo	2023-10-03T00:00:00	2024-11-08T20:00:00	7	Dirección del viento	0
94491	7	Sololá	701	Sololá	4	Finca Santa Victoria	3	Marzo	2023-10-03T00:00:00	2024-11-08T20:00:00	1	Precipitación	0
94492	7	Sololá	701	Sololá	4	Finca Santa Victoria	3	Marzo	2023-10-03T00:00:00	2024-11-08T20:00:00	8	Radiación solar	0
94493	7	Sololá	701	Sololá	4	Finca Santa Victoria	3	Marzo	2023-10-03T00:00:00	2024-11-08T21:00:00	2	Temperatura media	12.9
94494	7	Sololá	701	Sololá	4	Finca Santa Victoria	3	Marzo	2023-10-03T00:00:00	2024-11-08T21:00:00	4	Temperatura máxima	12.9
94495	7	Sololá	701	Sololá	4	Finca Santa Victoria	3	Marzo	2023-10-03T00:00:00	2024-11-08T21:00:00	3	Temperatura mínima	12.7
94496	7	Sololá	701	Sololá	4	Finca Santa Victoria	3	Marzo	2023-10-03T00:00:00	2024-11-08T21:00:00	5	Humedad	93
94497	7	Sololá	701	Sololá	4	Finca Santa Victoria	3	Marzo	2023-10-03T00:00:00	2024-11-08T21:00:00	6	Velocidad del viento	0
94498	7	Sololá	701	Sololá	4	Finca Santa Victoria	3	Marzo	2023-10-03T00:00:00	2024-11-08T21:00:00	7	Dirección del viento	0
94499	7	Sololá	701	Sololá	4	Finca Santa Victoria	3	Marzo	2023-10-03T00:00:00	2024-11-08T21:00:00	1	Precipitación	0
94500	7	Sololá	701	Sololá	4	Finca Santa Victoria	3	Marzo	2023-10-03T00:00:00	2024-11-08T21:00:00	8	Radiación solar	0
94501	7	Sololá	701	Sololá	4	Finca Santa Victoria	3	Marzo	2023-10-03T00:00:00	2024-11-08T22:00:00	2	Temperatura media	12.6
94502	7	Sololá	701	Sololá	4	Finca Santa Victoria	3	Marzo	2023-10-03T00:00:00	2024-11-08T22:00:00	4	Temperatura máxima	13
94503	7	Sololá	701	Sololá	4	Finca Santa Victoria	3	Marzo	2023-10-03T00:00:00	2024-11-08T22:00:00	3	Temperatura mínima	12.5
94504	7	Sololá	701	Sololá	4	Finca Santa Victoria	3	Marzo	2023-10-03T00:00:00	2024-11-08T22:00:00	5	Humedad	96
94505	7	Sololá	701	Sololá	4	Finca Santa Victoria	3	Marzo	2023-10-03T00:00:00	2024-11-08T22:00:00	6	Velocidad del viento	0
94506	7	Sololá	701	Sololá	4	Finca Santa Victoria	3	Marzo	2023-10-03T00:00:00	2024-11-08T22:00:00	7	Dirección del viento	0
94507	7	Sololá	701	Sololá	4	Finca Santa Victoria	3	Marzo	2023-10-03T00:00:00	2024-11-08T22:00:00	1	Precipitación	0
94508	7	Sololá	701	Sololá	4	Finca Santa Victoria	3	Marzo	2023-10-03T00:00:00	2024-11-08T22:00:00	8	Radiación solar	0
94509	7	Sololá	701	Sololá	4	Finca Santa Victoria	3	Marzo	2023-10-03T00:00:00	2024-11-08T23:00:00	2	Temperatura media	12.1
94510	7	Sololá	701	Sololá	4	Finca Santa Victoria	3	Marzo	2023-10-03T00:00:00	2024-11-08T23:00:00	4	Temperatura máxima	12.6
94511	7	Sololá	701	Sololá	4	Finca Santa Victoria	3	Marzo	2023-10-03T00:00:00	2024-11-08T23:00:00	3	Temperatura mínima	11.9
94512	7	Sololá	701	Sololá	4	Finca Santa Victoria	3	Marzo	2023-10-03T00:00:00	2024-11-08T23:00:00	5	Humedad	97
94513	7	Sololá	701	Sololá	4	Finca Santa Victoria	3	Marzo	2023-10-03T00:00:00	2024-11-08T23:00:00	6	Velocidad del viento	0
94514	7	Sololá	701	Sololá	4	Finca Santa Victoria	3	Marzo	2023-10-03T00:00:00	2024-11-08T23:00:00	7	Dirección del viento	0
94515	7	Sololá	701	Sololá	4	Finca Santa Victoria	3	Marzo	2023-10-03T00:00:00	2024-11-08T23:00:00	1	Precipitación	0
94516	7	Sololá	701	Sololá	4	Finca Santa Victoria	3	Marzo	2023-10-03T00:00:00	2024-11-08T23:00:00	8	Radiación solar	0
94517	7	Sololá	701	Sololá	4	Finca Santa Victoria	3	Marzo	2023-11-03T00:00:00	2024-11-08T00:00:00	2	Temperatura media	11.9
94518	7	Sololá	701	Sololá	4	Finca Santa Victoria	3	Marzo	2023-11-03T00:00:00	2024-11-08T00:00:00	4	Temperatura máxima	12.1
94519	7	Sololá	701	Sololá	4	Finca Santa Victoria	3	Marzo	2023-11-03T00:00:00	2024-11-08T00:00:00	3	Temperatura mínima	11.6
94520	7	Sololá	701	Sololá	4	Finca Santa Victoria	3	Marzo	2023-11-03T00:00:00	2024-11-08T00:00:00	5	Humedad	95
94521	7	Sololá	701	Sololá	4	Finca Santa Victoria	3	Marzo	2023-11-03T00:00:00	2024-11-08T00:00:00	6	Velocidad del viento	0
94522	7	Sololá	701	Sololá	4	Finca Santa Victoria	3	Marzo	2023-11-03T00:00:00	2024-11-08T00:00:00	7	Dirección del viento	0
94523	7	Sololá	701	Sololá	4	Finca Santa Victoria	3	Marzo	2023-11-03T00:00:00	2024-11-08T00:00:00	1	Precipitación	0
94524	7	Sololá	701	Sololá	4	Finca Santa Victoria	3	Marzo	2023-11-03T00:00:00	2024-11-08T00:00:00	8	Radiación solar	0
94525	7	Sololá	701	Sololá	4	Finca Santa Victoria	3	Marzo	2023-11-03T00:00:00	2024-11-08T01:00:00	2	Temperatura media	11.8
94526	7	Sololá	701	Sololá	4	Finca Santa Victoria	3	Marzo	2023-11-03T00:00:00	2024-11-08T01:00:00	4	Temperatura máxima	12.1
94527	7	Sololá	701	Sololá	4	Finca Santa Victoria	3	Marzo	2023-11-03T00:00:00	2024-11-08T01:00:00	3	Temperatura mínima	11.8
94528	7	Sololá	701	Sololá	4	Finca Santa Victoria	3	Marzo	2023-11-03T00:00:00	2024-11-08T01:00:00	5	Humedad	95
94529	7	Sololá	701	Sololá	4	Finca Santa Victoria	3	Marzo	2023-11-03T00:00:00	2024-11-08T01:00:00	6	Velocidad del viento	0
94530	7	Sololá	701	Sololá	4	Finca Santa Victoria	3	Marzo	2023-11-03T00:00:00	2024-11-08T01:00:00	7	Dirección del viento	0
94531	7	Sololá	701	Sololá	4	Finca Santa Victoria	3	Marzo	2023-11-03T00:00:00	2024-11-08T01:00:00	1	Precipitación	0
94532	7	Sololá	701	Sololá	4	Finca Santa Victoria	3	Marzo	2023-11-03T00:00:00	2024-11-08T01:00:00	8	Radiación solar	0
94533	7	Sololá	701	Sololá	4	Finca Santa Victoria	3	Marzo	2023-11-03T00:00:00	2024-11-08T02:00:00	2	Temperatura media	11.2
94534	7	Sololá	701	Sololá	4	Finca Santa Victoria	3	Marzo	2023-11-03T00:00:00	2024-11-08T02:00:00	4	Temperatura máxima	11.8
94535	7	Sololá	701	Sololá	4	Finca Santa Victoria	3	Marzo	2023-11-03T00:00:00	2024-11-08T02:00:00	3	Temperatura mínima	11.1
94536	7	Sololá	701	Sololá	4	Finca Santa Victoria	3	Marzo	2023-11-03T00:00:00	2024-11-08T02:00:00	5	Humedad	97
94537	7	Sololá	701	Sololá	4	Finca Santa Victoria	3	Marzo	2023-11-03T00:00:00	2024-11-08T02:00:00	6	Velocidad del viento	1.6
94538	7	Sololá	701	Sololá	4	Finca Santa Victoria	3	Marzo	2023-11-03T00:00:00	2024-11-08T02:00:00	7	Dirección del viento	1.61
94539	7	Sololá	701	Sololá	4	Finca Santa Victoria	3	Marzo	2023-11-03T00:00:00	2024-11-08T02:00:00	1	Precipitación	0
94540	7	Sololá	701	Sololá	4	Finca Santa Victoria	3	Marzo	2023-11-03T00:00:00	2024-11-08T02:00:00	8	Radiación solar	0
94541	7	Sololá	701	Sololá	4	Finca Santa Victoria	3	Marzo	2023-11-03T00:00:00	2024-11-08T03:00:00	2	Temperatura media	10.7
94542	7	Sololá	701	Sololá	4	Finca Santa Victoria	3	Marzo	2023-11-03T00:00:00	2024-11-08T03:00:00	4	Temperatura máxima	11.2
94543	7	Sololá	701	Sololá	4	Finca Santa Victoria	3	Marzo	2023-11-03T00:00:00	2024-11-08T03:00:00	3	Temperatura mínima	10.7
94544	7	Sololá	701	Sololá	4	Finca Santa Victoria	3	Marzo	2023-11-03T00:00:00	2024-11-08T03:00:00	5	Humedad	97
94545	7	Sololá	701	Sololá	4	Finca Santa Victoria	3	Marzo	2023-11-03T00:00:00	2024-11-08T03:00:00	6	Velocidad del viento	0
94546	7	Sololá	701	Sololá	4	Finca Santa Victoria	3	Marzo	2023-11-03T00:00:00	2024-11-08T03:00:00	7	Dirección del viento	0
94547	7	Sololá	701	Sololá	4	Finca Santa Victoria	3	Marzo	2023-11-03T00:00:00	2024-11-08T03:00:00	1	Precipitación	0
94548	7	Sololá	701	Sololá	4	Finca Santa Victoria	3	Marzo	2023-11-03T00:00:00	2024-11-08T03:00:00	8	Radiación solar	0
94549	7	Sololá	701	Sololá	4	Finca Santa Victoria	3	Marzo	2023-11-03T00:00:00	2024-11-08T04:00:00	2	Temperatura media	10.2
94550	7	Sololá	701	Sololá	4	Finca Santa Victoria	3	Marzo	2023-11-03T00:00:00	2024-11-08T04:00:00	4	Temperatura máxima	10.7
94551	7	Sololá	701	Sololá	4	Finca Santa Victoria	3	Marzo	2023-11-03T00:00:00	2024-11-08T04:00:00	3	Temperatura mínima	10.2
94552	7	Sololá	701	Sololá	4	Finca Santa Victoria	3	Marzo	2023-11-03T00:00:00	2024-11-08T04:00:00	5	Humedad	97
94553	7	Sololá	701	Sololá	4	Finca Santa Victoria	3	Marzo	2023-11-03T00:00:00	2024-11-08T04:00:00	6	Velocidad del viento	0
94554	7	Sololá	701	Sololá	4	Finca Santa Victoria	3	Marzo	2023-11-03T00:00:00	2024-11-08T04:00:00	7	Dirección del viento	0
94555	7	Sololá	701	Sololá	4	Finca Santa Victoria	3	Marzo	2023-11-03T00:00:00	2024-11-08T04:00:00	1	Precipitación	0
94556	7	Sololá	701	Sololá	4	Finca Santa Victoria	3	Marzo	2023-11-03T00:00:00	2024-11-08T04:00:00	8	Radiación solar	0
94557	7	Sololá	701	Sololá	4	Finca Santa Victoria	3	Marzo	2023-11-03T00:00:00	2024-11-08T05:00:00	2	Temperatura media	10.3
94558	7	Sololá	701	Sololá	4	Finca Santa Victoria	3	Marzo	2023-11-03T00:00:00	2024-11-08T05:00:00	4	Temperatura máxima	10.3
94559	7	Sololá	701	Sololá	4	Finca Santa Victoria	3	Marzo	2023-11-03T00:00:00	2024-11-08T05:00:00	3	Temperatura mínima	9.8
94560	7	Sololá	701	Sololá	4	Finca Santa Victoria	3	Marzo	2023-11-03T00:00:00	2024-11-08T05:00:00	5	Humedad	98
94561	7	Sololá	701	Sololá	4	Finca Santa Victoria	3	Marzo	2023-11-03T00:00:00	2024-11-08T05:00:00	6	Velocidad del viento	1.6
94562	7	Sololá	701	Sololá	4	Finca Santa Victoria	3	Marzo	2023-11-03T00:00:00	2024-11-08T05:00:00	7	Dirección del viento	1.61
94563	7	Sololá	701	Sololá	4	Finca Santa Victoria	3	Marzo	2023-11-03T00:00:00	2024-11-08T05:00:00	1	Precipitación	0
94564	7	Sololá	701	Sololá	4	Finca Santa Victoria	3	Marzo	2023-11-03T00:00:00	2024-11-08T05:00:00	8	Radiación solar	0
94565	7	Sololá	701	Sololá	4	Finca Santa Victoria	3	Marzo	2023-11-03T00:00:00	2024-11-08T06:00:00	2	Temperatura media	10.6
94566	7	Sololá	701	Sololá	4	Finca Santa Victoria	3	Marzo	2023-11-03T00:00:00	2024-11-08T06:00:00	4	Temperatura máxima	10.7
94567	7	Sololá	701	Sololá	4	Finca Santa Victoria	3	Marzo	2023-11-03T00:00:00	2024-11-08T06:00:00	3	Temperatura mínima	10.3
94568	7	Sololá	701	Sololá	4	Finca Santa Victoria	3	Marzo	2023-11-03T00:00:00	2024-11-08T06:00:00	5	Humedad	96
94569	7	Sololá	701	Sololá	4	Finca Santa Victoria	3	Marzo	2023-11-03T00:00:00	2024-11-08T06:00:00	6	Velocidad del viento	0
94570	7	Sololá	701	Sololá	4	Finca Santa Victoria	3	Marzo	2023-11-03T00:00:00	2024-11-08T06:00:00	7	Dirección del viento	0
94571	7	Sololá	701	Sololá	4	Finca Santa Victoria	3	Marzo	2023-11-03T00:00:00	2024-11-08T06:00:00	1	Precipitación	0
94572	7	Sololá	701	Sololá	4	Finca Santa Victoria	3	Marzo	2023-11-03T00:00:00	2024-11-08T06:00:00	8	Radiación solar	0
94573	7	Sololá	701	Sololá	4	Finca Santa Victoria	3	Marzo	2023-11-03T00:00:00	2024-11-08T07:00:00	2	Temperatura media	11.2
94574	7	Sololá	701	Sololá	4	Finca Santa Victoria	3	Marzo	2023-11-03T00:00:00	2024-11-08T07:00:00	4	Temperatura máxima	11.2
94575	7	Sololá	701	Sololá	4	Finca Santa Victoria	3	Marzo	2023-11-03T00:00:00	2024-11-08T07:00:00	3	Temperatura mínima	10.6
94576	7	Sololá	701	Sololá	4	Finca Santa Victoria	3	Marzo	2023-11-03T00:00:00	2024-11-08T07:00:00	5	Humedad	97
94577	7	Sololá	701	Sololá	4	Finca Santa Victoria	3	Marzo	2023-11-03T00:00:00	2024-11-08T07:00:00	6	Velocidad del viento	0
94578	7	Sololá	701	Sololá	4	Finca Santa Victoria	3	Marzo	2023-11-03T00:00:00	2024-11-08T07:00:00	7	Dirección del viento	0
94579	7	Sololá	701	Sololá	4	Finca Santa Victoria	3	Marzo	2023-11-03T00:00:00	2024-11-08T07:00:00	1	Precipitación	0
94580	7	Sololá	701	Sololá	4	Finca Santa Victoria	3	Marzo	2023-11-03T00:00:00	2024-11-08T07:00:00	8	Radiación solar	12
94581	7	Sololá	701	Sololá	4	Finca Santa Victoria	3	Marzo	2023-11-03T00:00:00	2024-11-08T08:00:00	2	Temperatura media	12.6
94582	7	Sololá	701	Sololá	4	Finca Santa Victoria	3	Marzo	2023-11-03T00:00:00	2024-11-08T08:00:00	4	Temperatura máxima	12.6
94583	7	Sololá	701	Sololá	4	Finca Santa Victoria	3	Marzo	2023-11-03T00:00:00	2024-11-08T08:00:00	3	Temperatura mínima	11.1
94584	7	Sololá	701	Sololá	4	Finca Santa Victoria	3	Marzo	2023-11-03T00:00:00	2024-11-08T08:00:00	5	Humedad	93
94585	7	Sololá	701	Sololá	4	Finca Santa Victoria	3	Marzo	2023-11-03T00:00:00	2024-11-08T08:00:00	6	Velocidad del viento	0
94586	7	Sololá	701	Sololá	4	Finca Santa Victoria	3	Marzo	2023-11-03T00:00:00	2024-11-08T08:00:00	7	Dirección del viento	0
94587	7	Sololá	701	Sololá	4	Finca Santa Victoria	3	Marzo	2023-11-03T00:00:00	2024-11-08T08:00:00	1	Precipitación	0
94588	7	Sololá	701	Sololá	4	Finca Santa Victoria	3	Marzo	2023-11-03T00:00:00	2024-11-08T08:00:00	8	Radiación solar	91
94589	7	Sololá	701	Sololá	4	Finca Santa Victoria	3	Marzo	2023-11-03T00:00:00	2024-11-08T09:00:00	2	Temperatura media	13.8
94590	7	Sololá	701	Sololá	4	Finca Santa Victoria	3	Marzo	2023-11-03T00:00:00	2024-11-08T09:00:00	4	Temperatura máxima	14
94591	7	Sololá	701	Sololá	4	Finca Santa Victoria	3	Marzo	2023-11-03T00:00:00	2024-11-08T09:00:00	3	Temperatura mínima	12.5
94592	7	Sololá	701	Sololá	4	Finca Santa Victoria	3	Marzo	2023-11-03T00:00:00	2024-11-08T09:00:00	5	Humedad	88
94593	7	Sololá	701	Sololá	4	Finca Santa Victoria	3	Marzo	2023-11-03T00:00:00	2024-11-08T09:00:00	6	Velocidad del viento	1.6
94594	7	Sololá	701	Sololá	4	Finca Santa Victoria	3	Marzo	2023-11-03T00:00:00	2024-11-08T09:00:00	7	Dirección del viento	1.61
94595	7	Sololá	701	Sololá	4	Finca Santa Victoria	3	Marzo	2023-11-03T00:00:00	2024-11-08T09:00:00	1	Precipitación	0
94596	7	Sololá	701	Sololá	4	Finca Santa Victoria	3	Marzo	2023-11-03T00:00:00	2024-11-08T09:00:00	8	Radiación solar	193
94597	7	Sololá	701	Sololá	4	Finca Santa Victoria	3	Marzo	2023-11-03T00:00:00	2024-11-08T10:00:00	2	Temperatura media	14.7
94598	7	Sololá	701	Sololá	4	Finca Santa Victoria	3	Marzo	2023-11-03T00:00:00	2024-11-08T10:00:00	4	Temperatura máxima	14.7
94599	7	Sololá	701	Sololá	4	Finca Santa Victoria	3	Marzo	2023-11-03T00:00:00	2024-11-08T10:00:00	3	Temperatura mínima	13.3
94600	7	Sololá	701	Sololá	4	Finca Santa Victoria	3	Marzo	2023-11-03T00:00:00	2024-11-08T10:00:00	5	Humedad	89
94601	7	Sololá	701	Sololá	4	Finca Santa Victoria	3	Marzo	2023-11-03T00:00:00	2024-11-08T10:00:00	6	Velocidad del viento	1.6
94602	7	Sololá	701	Sololá	4	Finca Santa Victoria	3	Marzo	2023-11-03T00:00:00	2024-11-08T10:00:00	7	Dirección del viento	1.61
94603	7	Sololá	701	Sololá	4	Finca Santa Victoria	3	Marzo	2023-11-03T00:00:00	2024-11-08T10:00:00	1	Precipitación	0
94604	7	Sololá	701	Sololá	4	Finca Santa Victoria	3	Marzo	2023-11-03T00:00:00	2024-11-08T10:00:00	8	Radiación solar	192
94605	7	Sololá	701	Sololá	4	Finca Santa Victoria	3	Marzo	2023-11-03T00:00:00	2024-11-08T11:00:00	2	Temperatura media	15.6
94606	7	Sololá	701	Sololá	4	Finca Santa Victoria	3	Marzo	2023-11-03T00:00:00	2024-11-08T11:00:00	4	Temperatura máxima	15.8
94607	7	Sololá	701	Sololá	4	Finca Santa Victoria	3	Marzo	2023-11-03T00:00:00	2024-11-08T11:00:00	3	Temperatura mínima	14.7
94608	7	Sololá	701	Sololá	4	Finca Santa Victoria	3	Marzo	2023-11-03T00:00:00	2024-11-08T11:00:00	5	Humedad	85
94609	7	Sololá	701	Sololá	4	Finca Santa Victoria	3	Marzo	2023-11-03T00:00:00	2024-11-08T11:00:00	6	Velocidad del viento	4.8
94610	7	Sololá	701	Sololá	4	Finca Santa Victoria	3	Marzo	2023-11-03T00:00:00	2024-11-08T11:00:00	7	Dirección del viento	4.83
94611	7	Sololá	701	Sololá	4	Finca Santa Victoria	3	Marzo	2023-11-03T00:00:00	2024-11-08T11:00:00	1	Precipitación	0
94612	7	Sololá	701	Sololá	4	Finca Santa Victoria	3	Marzo	2023-11-03T00:00:00	2024-11-08T11:00:00	8	Radiación solar	433
94613	7	Sololá	701	Sololá	4	Finca Santa Victoria	3	Marzo	2023-11-03T00:00:00	2024-11-08T12:00:00	2	Temperatura media	16.1
94614	7	Sololá	701	Sololá	4	Finca Santa Victoria	3	Marzo	2023-11-03T00:00:00	2024-11-08T12:00:00	4	Temperatura máxima	17.1
94615	7	Sololá	701	Sololá	4	Finca Santa Victoria	3	Marzo	2023-11-03T00:00:00	2024-11-08T12:00:00	3	Temperatura mínima	15.6
94616	7	Sololá	701	Sololá	4	Finca Santa Victoria	3	Marzo	2023-11-03T00:00:00	2024-11-08T12:00:00	5	Humedad	82
94617	7	Sololá	701	Sololá	4	Finca Santa Victoria	3	Marzo	2023-11-03T00:00:00	2024-11-08T12:00:00	6	Velocidad del viento	4.8
94618	7	Sololá	701	Sololá	4	Finca Santa Victoria	3	Marzo	2023-11-03T00:00:00	2024-11-08T12:00:00	7	Dirección del viento	4.83
94619	7	Sololá	701	Sololá	4	Finca Santa Victoria	3	Marzo	2023-11-03T00:00:00	2024-11-08T12:00:00	1	Precipitación	0
94620	7	Sololá	701	Sololá	4	Finca Santa Victoria	3	Marzo	2023-11-03T00:00:00	2024-11-08T12:00:00	8	Radiación solar	735
94621	7	Sololá	701	Sololá	4	Finca Santa Victoria	3	Marzo	2023-11-03T00:00:00	2024-11-08T13:00:00	2	Temperatura media	14.9
94622	7	Sololá	701	Sololá	4	Finca Santa Victoria	3	Marzo	2023-11-03T00:00:00	2024-11-08T13:00:00	4	Temperatura máxima	16.4
94623	7	Sololá	701	Sololá	4	Finca Santa Victoria	3	Marzo	2023-11-03T00:00:00	2024-11-08T13:00:00	3	Temperatura mínima	14.9
94624	7	Sololá	701	Sololá	4	Finca Santa Victoria	3	Marzo	2023-11-03T00:00:00	2024-11-08T13:00:00	5	Humedad	89
94625	7	Sololá	701	Sololá	4	Finca Santa Victoria	3	Marzo	2023-11-03T00:00:00	2024-11-08T13:00:00	6	Velocidad del viento	4.8
94626	7	Sololá	701	Sololá	4	Finca Santa Victoria	3	Marzo	2023-11-03T00:00:00	2024-11-08T13:00:00	7	Dirección del viento	4.83
94627	7	Sololá	701	Sololá	4	Finca Santa Victoria	3	Marzo	2023-11-03T00:00:00	2024-11-08T13:00:00	1	Precipitación	0
94628	7	Sololá	701	Sololá	4	Finca Santa Victoria	3	Marzo	2023-11-03T00:00:00	2024-11-08T13:00:00	8	Radiación solar	296
94629	7	Sololá	701	Sololá	4	Finca Santa Victoria	3	Marzo	2023-11-03T00:00:00	2024-11-08T14:00:00	2	Temperatura media	13.8
94630	7	Sololá	701	Sololá	4	Finca Santa Victoria	3	Marzo	2023-11-03T00:00:00	2024-11-08T14:00:00	4	Temperatura máxima	15.2
94631	7	Sololá	701	Sololá	4	Finca Santa Victoria	3	Marzo	2023-11-03T00:00:00	2024-11-08T14:00:00	3	Temperatura mínima	13.8
94632	7	Sololá	701	Sololá	4	Finca Santa Victoria	3	Marzo	2023-11-03T00:00:00	2024-11-08T14:00:00	5	Humedad	94
94633	7	Sololá	701	Sololá	4	Finca Santa Victoria	3	Marzo	2023-11-03T00:00:00	2024-11-08T14:00:00	6	Velocidad del viento	4.8
94634	7	Sololá	701	Sololá	4	Finca Santa Victoria	3	Marzo	2023-11-03T00:00:00	2024-11-08T14:00:00	7	Dirección del viento	4.83
94635	7	Sololá	701	Sololá	4	Finca Santa Victoria	3	Marzo	2023-11-03T00:00:00	2024-11-08T14:00:00	1	Precipitación	0
94636	7	Sololá	701	Sololá	4	Finca Santa Victoria	3	Marzo	2023-11-03T00:00:00	2024-11-08T14:00:00	8	Radiación solar	143
94637	7	Sololá	701	Sololá	4	Finca Santa Victoria	3	Marzo	2023-11-03T00:00:00	2024-11-08T15:00:00	2	Temperatura media	13.6
94638	7	Sololá	701	Sololá	4	Finca Santa Victoria	3	Marzo	2023-11-03T00:00:00	2024-11-08T15:00:00	4	Temperatura máxima	13.8
94639	7	Sololá	701	Sololá	4	Finca Santa Victoria	3	Marzo	2023-11-03T00:00:00	2024-11-08T15:00:00	3	Temperatura mínima	13.6
94640	7	Sololá	701	Sololá	4	Finca Santa Victoria	3	Marzo	2023-11-03T00:00:00	2024-11-08T15:00:00	5	Humedad	95
94641	7	Sololá	701	Sololá	4	Finca Santa Victoria	3	Marzo	2023-11-03T00:00:00	2024-11-08T15:00:00	6	Velocidad del viento	3.2
94642	7	Sololá	701	Sololá	4	Finca Santa Victoria	3	Marzo	2023-11-03T00:00:00	2024-11-08T15:00:00	7	Dirección del viento	3.22
94643	7	Sololá	701	Sololá	4	Finca Santa Victoria	3	Marzo	2023-11-03T00:00:00	2024-11-08T15:00:00	1	Precipitación	0
94644	7	Sololá	701	Sololá	4	Finca Santa Victoria	3	Marzo	2023-11-03T00:00:00	2024-11-08T15:00:00	8	Radiación solar	60
94645	7	Sololá	701	Sololá	4	Finca Santa Victoria	3	Marzo	2023-11-03T00:00:00	2024-11-08T16:00:00	2	Temperatura media	13.8
94646	7	Sololá	701	Sololá	4	Finca Santa Victoria	3	Marzo	2023-11-03T00:00:00	2024-11-08T16:00:00	4	Temperatura máxima	13.9
94647	7	Sololá	701	Sololá	4	Finca Santa Victoria	3	Marzo	2023-11-03T00:00:00	2024-11-08T16:00:00	3	Temperatura mínima	13.6
94648	7	Sololá	701	Sololá	4	Finca Santa Victoria	3	Marzo	2023-11-03T00:00:00	2024-11-08T16:00:00	5	Humedad	94
94649	7	Sololá	701	Sololá	4	Finca Santa Victoria	3	Marzo	2023-11-03T00:00:00	2024-11-08T16:00:00	6	Velocidad del viento	1.6
94650	7	Sololá	701	Sololá	4	Finca Santa Victoria	3	Marzo	2023-11-03T00:00:00	2024-11-08T16:00:00	7	Dirección del viento	1.61
94651	7	Sololá	701	Sololá	4	Finca Santa Victoria	3	Marzo	2023-11-03T00:00:00	2024-11-08T16:00:00	1	Precipitación	0
94652	7	Sololá	701	Sololá	4	Finca Santa Victoria	3	Marzo	2023-11-03T00:00:00	2024-11-08T16:00:00	8	Radiación solar	65
94653	7	Sololá	701	Sololá	4	Finca Santa Victoria	3	Marzo	2023-11-03T00:00:00	2024-11-08T17:00:00	2	Temperatura media	14.6
94654	7	Sololá	701	Sololá	4	Finca Santa Victoria	3	Marzo	2023-11-03T00:00:00	2024-11-08T17:00:00	4	Temperatura máxima	14.6
94655	7	Sololá	701	Sololá	4	Finca Santa Victoria	3	Marzo	2023-11-03T00:00:00	2024-11-08T17:00:00	3	Temperatura mínima	13.8
94656	7	Sololá	701	Sololá	4	Finca Santa Victoria	3	Marzo	2023-11-03T00:00:00	2024-11-08T17:00:00	5	Humedad	92
94657	7	Sololá	701	Sololá	4	Finca Santa Victoria	3	Marzo	2023-11-03T00:00:00	2024-11-08T17:00:00	6	Velocidad del viento	3.2
94658	7	Sololá	701	Sololá	4	Finca Santa Victoria	3	Marzo	2023-11-03T00:00:00	2024-11-08T17:00:00	7	Dirección del viento	3.22
94659	7	Sololá	701	Sololá	4	Finca Santa Victoria	3	Marzo	2023-11-03T00:00:00	2024-11-08T17:00:00	1	Precipitación	0
94660	7	Sololá	701	Sololá	4	Finca Santa Victoria	3	Marzo	2023-11-03T00:00:00	2024-11-08T17:00:00	8	Radiación solar	134
94661	7	Sololá	701	Sololá	4	Finca Santa Victoria	3	Marzo	2023-11-03T00:00:00	2024-11-08T18:00:00	2	Temperatura media	13.7
94662	7	Sololá	701	Sololá	4	Finca Santa Victoria	3	Marzo	2023-11-03T00:00:00	2024-11-08T18:00:00	4	Temperatura máxima	14.6
94663	7	Sololá	701	Sololá	4	Finca Santa Victoria	3	Marzo	2023-11-03T00:00:00	2024-11-08T18:00:00	3	Temperatura mínima	13.7
94664	7	Sololá	701	Sololá	4	Finca Santa Victoria	3	Marzo	2023-11-03T00:00:00	2024-11-08T18:00:00	5	Humedad	94
94665	7	Sololá	701	Sololá	4	Finca Santa Victoria	3	Marzo	2023-11-03T00:00:00	2024-11-08T18:00:00	6	Velocidad del viento	1.6
94666	7	Sololá	701	Sololá	4	Finca Santa Victoria	3	Marzo	2023-11-03T00:00:00	2024-11-08T18:00:00	7	Dirección del viento	1.61
94667	7	Sololá	701	Sololá	4	Finca Santa Victoria	3	Marzo	2023-11-03T00:00:00	2024-11-08T18:00:00	1	Precipitación	0
94668	7	Sololá	701	Sololá	4	Finca Santa Victoria	3	Marzo	2023-11-03T00:00:00	2024-11-08T18:00:00	8	Radiación solar	25
94669	7	Sololá	701	Sololá	4	Finca Santa Victoria	3	Marzo	2023-11-03T00:00:00	2024-11-08T19:00:00	2	Temperatura media	13.1
94670	7	Sololá	701	Sololá	4	Finca Santa Victoria	3	Marzo	2023-11-03T00:00:00	2024-11-08T19:00:00	4	Temperatura máxima	13.7
94671	7	Sololá	701	Sololá	4	Finca Santa Victoria	3	Marzo	2023-11-03T00:00:00	2024-11-08T19:00:00	3	Temperatura mínima	13.1
94672	7	Sololá	701	Sololá	4	Finca Santa Victoria	3	Marzo	2023-11-03T00:00:00	2024-11-08T19:00:00	5	Humedad	96
94673	7	Sololá	701	Sololá	4	Finca Santa Victoria	3	Marzo	2023-11-03T00:00:00	2024-11-08T19:00:00	6	Velocidad del viento	0
94674	7	Sololá	701	Sololá	4	Finca Santa Victoria	3	Marzo	2023-11-03T00:00:00	2024-11-08T19:00:00	7	Dirección del viento	0
94675	7	Sololá	701	Sololá	4	Finca Santa Victoria	3	Marzo	2023-11-03T00:00:00	2024-11-08T19:00:00	1	Precipitación	0
94676	7	Sololá	701	Sololá	4	Finca Santa Victoria	3	Marzo	2023-11-03T00:00:00	2024-11-08T19:00:00	8	Radiación solar	0
94677	7	Sololá	701	Sololá	4	Finca Santa Victoria	3	Marzo	2023-11-03T00:00:00	2024-11-08T20:00:00	2	Temperatura media	12.9
94678	7	Sololá	701	Sololá	4	Finca Santa Victoria	3	Marzo	2023-11-03T00:00:00	2024-11-08T20:00:00	4	Temperatura máxima	13.1
94679	7	Sololá	701	Sololá	4	Finca Santa Victoria	3	Marzo	2023-11-03T00:00:00	2024-11-08T20:00:00	3	Temperatura mínima	12.9
94680	7	Sololá	701	Sololá	4	Finca Santa Victoria	3	Marzo	2023-11-03T00:00:00	2024-11-08T20:00:00	5	Humedad	96
94681	7	Sololá	701	Sololá	4	Finca Santa Victoria	3	Marzo	2023-11-03T00:00:00	2024-11-08T20:00:00	6	Velocidad del viento	0
94682	7	Sololá	701	Sololá	4	Finca Santa Victoria	3	Marzo	2023-11-03T00:00:00	2024-11-08T20:00:00	7	Dirección del viento	0
94683	7	Sololá	701	Sololá	4	Finca Santa Victoria	3	Marzo	2023-11-03T00:00:00	2024-11-08T20:00:00	1	Precipitación	0
94684	7	Sololá	701	Sololá	4	Finca Santa Victoria	3	Marzo	2023-11-03T00:00:00	2024-11-08T20:00:00	8	Radiación solar	0
94685	7	Sololá	701	Sololá	4	Finca Santa Victoria	3	Marzo	2023-11-03T00:00:00	2024-11-08T21:00:00	2	Temperatura media	12.8
94686	7	Sololá	701	Sololá	4	Finca Santa Victoria	3	Marzo	2023-11-03T00:00:00	2024-11-08T21:00:00	4	Temperatura máxima	12.9
94687	7	Sololá	701	Sololá	4	Finca Santa Victoria	3	Marzo	2023-11-03T00:00:00	2024-11-08T21:00:00	3	Temperatura mínima	12.7
94688	7	Sololá	701	Sololá	4	Finca Santa Victoria	3	Marzo	2023-11-03T00:00:00	2024-11-08T21:00:00	5	Humedad	96
94689	7	Sololá	701	Sololá	4	Finca Santa Victoria	3	Marzo	2023-11-03T00:00:00	2024-11-08T21:00:00	6	Velocidad del viento	0
94690	7	Sololá	701	Sololá	4	Finca Santa Victoria	3	Marzo	2023-11-03T00:00:00	2024-11-08T21:00:00	7	Dirección del viento	0
94691	7	Sololá	701	Sololá	4	Finca Santa Victoria	3	Marzo	2023-11-03T00:00:00	2024-11-08T21:00:00	1	Precipitación	0
94692	7	Sololá	701	Sololá	4	Finca Santa Victoria	3	Marzo	2023-11-03T00:00:00	2024-11-08T21:00:00	8	Radiación solar	0
94693	7	Sololá	701	Sololá	4	Finca Santa Victoria	3	Marzo	2023-11-03T00:00:00	2024-11-08T22:00:00	2	Temperatura media	12.2
94694	7	Sololá	701	Sololá	4	Finca Santa Victoria	3	Marzo	2023-11-03T00:00:00	2024-11-08T22:00:00	4	Temperatura máxima	12.9
94695	7	Sololá	701	Sololá	4	Finca Santa Victoria	3	Marzo	2023-11-03T00:00:00	2024-11-08T22:00:00	3	Temperatura mínima	12.2
94696	7	Sololá	701	Sololá	4	Finca Santa Victoria	3	Marzo	2023-11-03T00:00:00	2024-11-08T22:00:00	5	Humedad	96
94697	7	Sololá	701	Sololá	4	Finca Santa Victoria	3	Marzo	2023-11-03T00:00:00	2024-11-08T22:00:00	6	Velocidad del viento	0
94698	7	Sololá	701	Sololá	4	Finca Santa Victoria	3	Marzo	2023-11-03T00:00:00	2024-11-08T22:00:00	7	Dirección del viento	0
94699	7	Sololá	701	Sololá	4	Finca Santa Victoria	3	Marzo	2023-11-03T00:00:00	2024-11-08T22:00:00	1	Precipitación	0
94700	7	Sololá	701	Sololá	4	Finca Santa Victoria	3	Marzo	2023-11-03T00:00:00	2024-11-08T22:00:00	8	Radiación solar	0
94701	7	Sololá	701	Sololá	4	Finca Santa Victoria	3	Marzo	2023-11-03T00:00:00	2024-11-08T23:00:00	2	Temperatura media	12.2
94702	7	Sololá	701	Sololá	4	Finca Santa Victoria	3	Marzo	2023-11-03T00:00:00	2024-11-08T23:00:00	4	Temperatura máxima	12.2
94703	7	Sololá	701	Sololá	4	Finca Santa Victoria	3	Marzo	2023-11-03T00:00:00	2024-11-08T23:00:00	3	Temperatura mínima	11.9
94704	7	Sololá	701	Sololá	4	Finca Santa Victoria	3	Marzo	2023-11-03T00:00:00	2024-11-08T23:00:00	5	Humedad	98
94705	7	Sololá	701	Sololá	4	Finca Santa Victoria	3	Marzo	2023-11-03T00:00:00	2024-11-08T23:00:00	6	Velocidad del viento	0
94706	7	Sololá	701	Sololá	4	Finca Santa Victoria	3	Marzo	2023-11-03T00:00:00	2024-11-08T23:00:00	7	Dirección del viento	0
94707	7	Sololá	701	Sololá	4	Finca Santa Victoria	3	Marzo	2023-11-03T00:00:00	2024-11-08T23:00:00	1	Precipitación	0
94708	7	Sololá	701	Sololá	4	Finca Santa Victoria	3	Marzo	2023-11-03T00:00:00	2024-11-08T23:00:00	8	Radiación solar	0
94709	7	Sololá	701	Sololá	4	Finca Santa Victoria	3	Marzo	2023-12-03T00:00:00	2024-11-08T00:00:00	2	Temperatura media	11.9
94710	7	Sololá	701	Sololá	4	Finca Santa Victoria	3	Marzo	2023-12-03T00:00:00	2024-11-08T00:00:00	4	Temperatura máxima	12.2
94711	7	Sololá	701	Sololá	4	Finca Santa Victoria	3	Marzo	2023-12-03T00:00:00	2024-11-08T00:00:00	3	Temperatura mínima	11.9
94712	7	Sololá	701	Sololá	4	Finca Santa Victoria	3	Marzo	2023-12-03T00:00:00	2024-11-08T00:00:00	5	Humedad	97
94713	7	Sololá	701	Sololá	4	Finca Santa Victoria	3	Marzo	2023-12-03T00:00:00	2024-11-08T00:00:00	6	Velocidad del viento	0
94714	7	Sololá	701	Sololá	4	Finca Santa Victoria	3	Marzo	2023-12-03T00:00:00	2024-11-08T00:00:00	7	Dirección del viento	0
94715	7	Sololá	701	Sololá	4	Finca Santa Victoria	3	Marzo	2023-12-03T00:00:00	2024-11-08T00:00:00	1	Precipitación	0
94716	7	Sololá	701	Sololá	4	Finca Santa Victoria	3	Marzo	2023-12-03T00:00:00	2024-11-08T00:00:00	8	Radiación solar	0
94717	7	Sololá	701	Sololá	4	Finca Santa Victoria	3	Marzo	2023-12-03T00:00:00	2024-11-08T01:00:00	2	Temperatura media	11.8
94718	7	Sololá	701	Sololá	4	Finca Santa Victoria	3	Marzo	2023-12-03T00:00:00	2024-11-08T01:00:00	4	Temperatura máxima	11.9
94719	7	Sololá	701	Sololá	4	Finca Santa Victoria	3	Marzo	2023-12-03T00:00:00	2024-11-08T01:00:00	3	Temperatura mínima	11.7
94720	7	Sololá	701	Sololá	4	Finca Santa Victoria	3	Marzo	2023-12-03T00:00:00	2024-11-08T01:00:00	5	Humedad	97
94721	7	Sololá	701	Sololá	4	Finca Santa Victoria	3	Marzo	2023-12-03T00:00:00	2024-11-08T01:00:00	6	Velocidad del viento	0
94722	7	Sololá	701	Sololá	4	Finca Santa Victoria	3	Marzo	2023-12-03T00:00:00	2024-11-08T01:00:00	7	Dirección del viento	0
94723	7	Sololá	701	Sololá	4	Finca Santa Victoria	3	Marzo	2023-12-03T00:00:00	2024-11-08T01:00:00	1	Precipitación	0
94724	7	Sololá	701	Sololá	4	Finca Santa Victoria	3	Marzo	2023-12-03T00:00:00	2024-11-08T01:00:00	8	Radiación solar	0
94725	7	Sololá	701	Sololá	4	Finca Santa Victoria	3	Marzo	2023-12-03T00:00:00	2024-11-08T02:00:00	2	Temperatura media	11.8
94726	7	Sololá	701	Sololá	4	Finca Santa Victoria	3	Marzo	2023-12-03T00:00:00	2024-11-08T02:00:00	4	Temperatura máxima	12
94727	7	Sololá	701	Sololá	4	Finca Santa Victoria	3	Marzo	2023-12-03T00:00:00	2024-11-08T02:00:00	3	Temperatura mínima	11.8
94728	7	Sololá	701	Sololá	4	Finca Santa Victoria	3	Marzo	2023-12-03T00:00:00	2024-11-08T02:00:00	5	Humedad	97
94729	7	Sololá	701	Sololá	4	Finca Santa Victoria	3	Marzo	2023-12-03T00:00:00	2024-11-08T02:00:00	6	Velocidad del viento	0
94730	7	Sololá	701	Sololá	4	Finca Santa Victoria	3	Marzo	2023-12-03T00:00:00	2024-11-08T02:00:00	7	Dirección del viento	0
94731	7	Sololá	701	Sololá	4	Finca Santa Victoria	3	Marzo	2023-12-03T00:00:00	2024-11-08T02:00:00	1	Precipitación	0
94732	7	Sololá	701	Sololá	4	Finca Santa Victoria	3	Marzo	2023-12-03T00:00:00	2024-11-08T02:00:00	8	Radiación solar	0
94733	7	Sololá	701	Sololá	4	Finca Santa Victoria	3	Marzo	2023-12-03T00:00:00	2024-11-08T03:00:00	2	Temperatura media	11.7
94734	7	Sololá	701	Sololá	4	Finca Santa Victoria	3	Marzo	2023-12-03T00:00:00	2024-11-08T03:00:00	4	Temperatura máxima	11.8
94735	7	Sololá	701	Sololá	4	Finca Santa Victoria	3	Marzo	2023-12-03T00:00:00	2024-11-08T03:00:00	3	Temperatura mínima	11.7
94736	7	Sololá	701	Sololá	4	Finca Santa Victoria	3	Marzo	2023-12-03T00:00:00	2024-11-08T03:00:00	5	Humedad	97
94737	7	Sololá	701	Sololá	4	Finca Santa Victoria	3	Marzo	2023-12-03T00:00:00	2024-11-08T03:00:00	6	Velocidad del viento	0
94738	7	Sololá	701	Sololá	4	Finca Santa Victoria	3	Marzo	2023-12-03T00:00:00	2024-11-08T03:00:00	7	Dirección del viento	0
94739	7	Sololá	701	Sololá	4	Finca Santa Victoria	3	Marzo	2023-12-03T00:00:00	2024-11-08T03:00:00	1	Precipitación	0
94740	7	Sololá	701	Sololá	4	Finca Santa Victoria	3	Marzo	2023-12-03T00:00:00	2024-11-08T03:00:00	8	Radiación solar	0
94741	7	Sololá	701	Sololá	4	Finca Santa Victoria	3	Marzo	2023-12-03T00:00:00	2024-11-08T04:00:00	2	Temperatura media	11.8
94742	7	Sololá	701	Sololá	4	Finca Santa Victoria	3	Marzo	2023-12-03T00:00:00	2024-11-08T04:00:00	4	Temperatura máxima	11.8
94743	7	Sololá	701	Sololá	4	Finca Santa Victoria	3	Marzo	2023-12-03T00:00:00	2024-11-08T04:00:00	3	Temperatura mínima	11.6
94744	7	Sololá	701	Sololá	4	Finca Santa Victoria	3	Marzo	2023-12-03T00:00:00	2024-11-08T04:00:00	5	Humedad	97
94745	7	Sololá	701	Sololá	4	Finca Santa Victoria	3	Marzo	2023-12-03T00:00:00	2024-11-08T04:00:00	6	Velocidad del viento	0
94746	7	Sololá	701	Sololá	4	Finca Santa Victoria	3	Marzo	2023-12-03T00:00:00	2024-11-08T04:00:00	7	Dirección del viento	0
94747	7	Sololá	701	Sololá	4	Finca Santa Victoria	3	Marzo	2023-12-03T00:00:00	2024-11-08T04:00:00	1	Precipitación	0
94748	7	Sololá	701	Sololá	4	Finca Santa Victoria	3	Marzo	2023-12-03T00:00:00	2024-11-08T04:00:00	8	Radiación solar	0
94749	7	Sololá	701	Sololá	4	Finca Santa Victoria	3	Marzo	2023-12-03T00:00:00	2024-11-08T05:00:00	2	Temperatura media	11.9
94750	7	Sololá	701	Sololá	4	Finca Santa Victoria	3	Marzo	2023-12-03T00:00:00	2024-11-08T05:00:00	4	Temperatura máxima	11.9
94751	7	Sololá	701	Sololá	4	Finca Santa Victoria	3	Marzo	2023-12-03T00:00:00	2024-11-08T05:00:00	3	Temperatura mínima	11.8
94752	7	Sololá	701	Sololá	4	Finca Santa Victoria	3	Marzo	2023-12-03T00:00:00	2024-11-08T05:00:00	5	Humedad	97
94753	7	Sololá	701	Sololá	4	Finca Santa Victoria	3	Marzo	2023-12-03T00:00:00	2024-11-08T05:00:00	6	Velocidad del viento	0
94754	7	Sololá	701	Sololá	4	Finca Santa Victoria	3	Marzo	2023-12-03T00:00:00	2024-11-08T05:00:00	7	Dirección del viento	0
94755	7	Sololá	701	Sololá	4	Finca Santa Victoria	3	Marzo	2023-12-03T00:00:00	2024-11-08T05:00:00	1	Precipitación	0
94756	7	Sololá	701	Sololá	4	Finca Santa Victoria	3	Marzo	2023-12-03T00:00:00	2024-11-08T05:00:00	8	Radiación solar	0
94757	7	Sololá	701	Sololá	4	Finca Santa Victoria	3	Marzo	2023-12-03T00:00:00	2024-11-08T06:00:00	2	Temperatura media	12.1
94758	7	Sololá	701	Sololá	4	Finca Santa Victoria	3	Marzo	2023-12-03T00:00:00	2024-11-08T06:00:00	4	Temperatura máxima	12.1
94759	7	Sololá	701	Sololá	4	Finca Santa Victoria	3	Marzo	2023-12-03T00:00:00	2024-11-08T06:00:00	3	Temperatura mínima	11.9
94760	7	Sololá	701	Sololá	4	Finca Santa Victoria	3	Marzo	2023-12-03T00:00:00	2024-11-08T06:00:00	5	Humedad	98
94761	7	Sololá	701	Sololá	4	Finca Santa Victoria	3	Marzo	2023-12-03T00:00:00	2024-11-08T06:00:00	6	Velocidad del viento	0
94762	7	Sololá	701	Sololá	4	Finca Santa Victoria	3	Marzo	2023-12-03T00:00:00	2024-11-08T06:00:00	7	Dirección del viento	0
94763	7	Sololá	701	Sololá	4	Finca Santa Victoria	3	Marzo	2023-12-03T00:00:00	2024-11-08T06:00:00	1	Precipitación	0
94764	7	Sololá	701	Sololá	4	Finca Santa Victoria	3	Marzo	2023-12-03T00:00:00	2024-11-08T06:00:00	8	Radiación solar	0
94765	7	Sololá	701	Sololá	4	Finca Santa Victoria	3	Marzo	2023-12-03T00:00:00	2024-11-08T07:00:00	2	Temperatura media	11.8
94766	7	Sololá	701	Sololá	4	Finca Santa Victoria	3	Marzo	2023-12-03T00:00:00	2024-11-08T07:00:00	4	Temperatura máxima	12.1
94767	7	Sololá	701	Sololá	4	Finca Santa Victoria	3	Marzo	2023-12-03T00:00:00	2024-11-08T07:00:00	3	Temperatura mínima	11.6
94768	7	Sololá	701	Sololá	4	Finca Santa Victoria	3	Marzo	2023-12-03T00:00:00	2024-11-08T07:00:00	5	Humedad	98
94769	7	Sololá	701	Sololá	4	Finca Santa Victoria	3	Marzo	2023-12-03T00:00:00	2024-11-08T07:00:00	6	Velocidad del viento	0
94770	7	Sololá	701	Sololá	4	Finca Santa Victoria	3	Marzo	2023-12-03T00:00:00	2024-11-08T07:00:00	7	Dirección del viento	0
94771	7	Sololá	701	Sololá	4	Finca Santa Victoria	3	Marzo	2023-12-03T00:00:00	2024-11-08T07:00:00	1	Precipitación	0.2
94772	7	Sololá	701	Sololá	4	Finca Santa Victoria	3	Marzo	2023-12-03T00:00:00	2024-11-08T07:00:00	8	Radiación solar	1
94773	7	Sololá	701	Sololá	4	Finca Santa Victoria	3	Marzo	2023-12-03T00:00:00	2024-11-08T08:00:00	2	Temperatura media	11.9
94774	7	Sololá	701	Sololá	4	Finca Santa Victoria	3	Marzo	2023-12-03T00:00:00	2024-11-08T08:00:00	4	Temperatura máxima	11.9
94775	7	Sololá	701	Sololá	4	Finca Santa Victoria	3	Marzo	2023-12-03T00:00:00	2024-11-08T08:00:00	3	Temperatura mínima	11.8
94776	7	Sololá	701	Sololá	4	Finca Santa Victoria	3	Marzo	2023-12-03T00:00:00	2024-11-08T08:00:00	5	Humedad	98
94777	7	Sololá	701	Sololá	4	Finca Santa Victoria	3	Marzo	2023-12-03T00:00:00	2024-11-08T08:00:00	6	Velocidad del viento	1.6
94778	7	Sololá	701	Sololá	4	Finca Santa Victoria	3	Marzo	2023-12-03T00:00:00	2024-11-08T08:00:00	7	Dirección del viento	1.61
94779	7	Sololá	701	Sololá	4	Finca Santa Victoria	3	Marzo	2023-12-03T00:00:00	2024-11-08T08:00:00	1	Precipitación	0
94780	7	Sololá	701	Sololá	4	Finca Santa Victoria	3	Marzo	2023-12-03T00:00:00	2024-11-08T08:00:00	8	Radiación solar	25
94781	7	Sololá	701	Sololá	4	Finca Santa Victoria	3	Marzo	2023-12-03T00:00:00	2024-11-08T09:00:00	2	Temperatura media	12.1
94782	7	Sololá	701	Sololá	4	Finca Santa Victoria	3	Marzo	2023-12-03T00:00:00	2024-11-08T09:00:00	4	Temperatura máxima	12.2
94783	7	Sololá	701	Sololá	4	Finca Santa Victoria	3	Marzo	2023-12-03T00:00:00	2024-11-08T09:00:00	3	Temperatura mínima	11.9
94784	7	Sololá	701	Sololá	4	Finca Santa Victoria	3	Marzo	2023-12-03T00:00:00	2024-11-08T09:00:00	5	Humedad	98
94785	7	Sololá	701	Sololá	4	Finca Santa Victoria	3	Marzo	2023-12-03T00:00:00	2024-11-08T09:00:00	6	Velocidad del viento	1.6
94786	7	Sololá	701	Sololá	4	Finca Santa Victoria	3	Marzo	2023-12-03T00:00:00	2024-11-08T09:00:00	7	Dirección del viento	1.61
94787	7	Sololá	701	Sololá	4	Finca Santa Victoria	3	Marzo	2023-12-03T00:00:00	2024-11-08T09:00:00	1	Precipitación	0
94788	7	Sololá	701	Sololá	4	Finca Santa Victoria	3	Marzo	2023-12-03T00:00:00	2024-11-08T09:00:00	8	Radiación solar	52
94789	7	Sololá	701	Sololá	4	Finca Santa Victoria	3	Marzo	2023-12-03T00:00:00	2024-11-08T10:00:00	2	Temperatura media	13.4
94790	7	Sololá	701	Sololá	4	Finca Santa Victoria	3	Marzo	2023-12-03T00:00:00	2024-11-08T10:00:00	4	Temperatura máxima	13.4
94791	7	Sololá	701	Sololá	4	Finca Santa Victoria	3	Marzo	2023-12-03T00:00:00	2024-11-08T10:00:00	3	Temperatura mínima	12.1
94792	7	Sololá	701	Sololá	4	Finca Santa Victoria	3	Marzo	2023-12-03T00:00:00	2024-11-08T10:00:00	5	Humedad	95
94793	7	Sololá	701	Sololá	4	Finca Santa Victoria	3	Marzo	2023-12-03T00:00:00	2024-11-08T10:00:00	6	Velocidad del viento	1.6
94794	7	Sololá	701	Sololá	4	Finca Santa Victoria	3	Marzo	2023-12-03T00:00:00	2024-11-08T10:00:00	7	Dirección del viento	1.61
94795	7	Sololá	701	Sololá	4	Finca Santa Victoria	3	Marzo	2023-12-03T00:00:00	2024-11-08T10:00:00	1	Precipitación	0
94796	7	Sololá	701	Sololá	4	Finca Santa Victoria	3	Marzo	2023-12-03T00:00:00	2024-11-08T10:00:00	8	Radiación solar	177
94797	7	Sololá	701	Sololá	4	Finca Santa Victoria	3	Marzo	2023-12-03T00:00:00	2024-11-08T11:00:00	2	Temperatura media	14.3
94798	7	Sololá	701	Sololá	4	Finca Santa Victoria	3	Marzo	2023-12-03T00:00:00	2024-11-08T11:00:00	4	Temperatura máxima	14.7
94799	7	Sololá	701	Sololá	4	Finca Santa Victoria	3	Marzo	2023-12-03T00:00:00	2024-11-08T11:00:00	3	Temperatura mínima	13.4
94800	7	Sololá	701	Sololá	4	Finca Santa Victoria	3	Marzo	2023-12-03T00:00:00	2024-11-08T11:00:00	5	Humedad	89
94801	7	Sololá	701	Sololá	4	Finca Santa Victoria	3	Marzo	2023-12-03T00:00:00	2024-11-08T11:00:00	6	Velocidad del viento	3.2
94802	7	Sololá	701	Sololá	4	Finca Santa Victoria	3	Marzo	2023-12-03T00:00:00	2024-11-08T11:00:00	7	Dirección del viento	3.22
94803	7	Sololá	701	Sololá	4	Finca Santa Victoria	3	Marzo	2023-12-03T00:00:00	2024-11-08T11:00:00	1	Precipitación	0
94804	7	Sololá	701	Sololá	4	Finca Santa Victoria	3	Marzo	2023-12-03T00:00:00	2024-11-08T11:00:00	8	Radiación solar	282
94805	7	Sololá	701	Sololá	4	Finca Santa Victoria	3	Marzo	2023-12-03T00:00:00	2024-11-08T12:00:00	2	Temperatura media	14.6
94806	7	Sololá	701	Sololá	4	Finca Santa Victoria	3	Marzo	2023-12-03T00:00:00	2024-11-08T12:00:00	4	Temperatura máxima	15.5
94807	7	Sololá	701	Sololá	4	Finca Santa Victoria	3	Marzo	2023-12-03T00:00:00	2024-11-08T12:00:00	3	Temperatura mínima	14.3
94808	7	Sololá	701	Sololá	4	Finca Santa Victoria	3	Marzo	2023-12-03T00:00:00	2024-11-08T12:00:00	5	Humedad	89
94809	7	Sololá	701	Sololá	4	Finca Santa Victoria	3	Marzo	2023-12-03T00:00:00	2024-11-08T12:00:00	6	Velocidad del viento	3.2
94810	7	Sololá	701	Sololá	4	Finca Santa Victoria	3	Marzo	2023-12-03T00:00:00	2024-11-08T12:00:00	7	Dirección del viento	3.22
94811	7	Sololá	701	Sololá	4	Finca Santa Victoria	3	Marzo	2023-12-03T00:00:00	2024-11-08T12:00:00	1	Precipitación	0
94812	7	Sololá	701	Sololá	4	Finca Santa Victoria	3	Marzo	2023-12-03T00:00:00	2024-11-08T12:00:00	8	Radiación solar	256
94813	7	Sololá	701	Sololá	4	Finca Santa Victoria	3	Marzo	2023-12-03T00:00:00	2024-11-08T13:00:00	2	Temperatura media	13.7
94814	7	Sololá	701	Sololá	4	Finca Santa Victoria	3	Marzo	2023-12-03T00:00:00	2024-11-08T13:00:00	4	Temperatura máxima	14.6
94815	7	Sololá	701	Sololá	4	Finca Santa Victoria	3	Marzo	2023-12-03T00:00:00	2024-11-08T13:00:00	3	Temperatura mínima	13.7
94816	7	Sololá	701	Sololá	4	Finca Santa Victoria	3	Marzo	2023-12-03T00:00:00	2024-11-08T13:00:00	5	Humedad	93
94817	7	Sololá	701	Sololá	4	Finca Santa Victoria	3	Marzo	2023-12-03T00:00:00	2024-11-08T13:00:00	6	Velocidad del viento	3.2
94818	7	Sololá	701	Sololá	4	Finca Santa Victoria	3	Marzo	2023-12-03T00:00:00	2024-11-08T13:00:00	7	Dirección del viento	3.22
94819	7	Sololá	701	Sololá	4	Finca Santa Victoria	3	Marzo	2023-12-03T00:00:00	2024-11-08T13:00:00	1	Precipitación	0
94820	7	Sololá	701	Sololá	4	Finca Santa Victoria	3	Marzo	2023-12-03T00:00:00	2024-11-08T13:00:00	8	Radiación solar	111
94821	7	Sololá	701	Sololá	4	Finca Santa Victoria	3	Marzo	2023-12-03T00:00:00	2024-11-08T14:00:00	2	Temperatura media	14.1
94822	7	Sololá	701	Sololá	4	Finca Santa Victoria	3	Marzo	2023-12-03T00:00:00	2024-11-08T14:00:00	4	Temperatura máxima	14.2
94823	7	Sololá	701	Sololá	4	Finca Santa Victoria	3	Marzo	2023-12-03T00:00:00	2024-11-08T14:00:00	3	Temperatura mínima	13.7
94824	7	Sololá	701	Sololá	4	Finca Santa Victoria	3	Marzo	2023-12-03T00:00:00	2024-11-08T14:00:00	5	Humedad	92
94825	7	Sololá	701	Sololá	4	Finca Santa Victoria	3	Marzo	2023-12-03T00:00:00	2024-11-08T14:00:00	6	Velocidad del viento	3.2
94826	7	Sololá	701	Sololá	4	Finca Santa Victoria	3	Marzo	2023-12-03T00:00:00	2024-11-08T14:00:00	7	Dirección del viento	3.22
94827	7	Sololá	701	Sololá	4	Finca Santa Victoria	3	Marzo	2023-12-03T00:00:00	2024-11-08T14:00:00	1	Precipitación	0
94828	7	Sololá	701	Sololá	4	Finca Santa Victoria	3	Marzo	2023-12-03T00:00:00	2024-11-08T14:00:00	8	Radiación solar	130
94829	7	Sololá	701	Sololá	4	Finca Santa Victoria	3	Marzo	2023-12-03T00:00:00	2024-11-08T15:00:00	2	Temperatura media	14.4
94830	7	Sololá	701	Sololá	4	Finca Santa Victoria	3	Marzo	2023-12-03T00:00:00	2024-11-08T15:00:00	4	Temperatura máxima	14.4
94831	7	Sololá	701	Sololá	4	Finca Santa Victoria	3	Marzo	2023-12-03T00:00:00	2024-11-08T15:00:00	3	Temperatura mínima	13.8
94832	7	Sololá	701	Sololá	4	Finca Santa Victoria	3	Marzo	2023-12-03T00:00:00	2024-11-08T15:00:00	5	Humedad	92
94833	7	Sololá	701	Sololá	4	Finca Santa Victoria	3	Marzo	2023-12-03T00:00:00	2024-11-08T15:00:00	6	Velocidad del viento	3.2
94834	7	Sololá	701	Sololá	4	Finca Santa Victoria	3	Marzo	2023-12-03T00:00:00	2024-11-08T15:00:00	7	Dirección del viento	3.22
94835	7	Sololá	701	Sololá	4	Finca Santa Victoria	3	Marzo	2023-12-03T00:00:00	2024-11-08T15:00:00	1	Precipitación	0
94836	7	Sololá	701	Sololá	4	Finca Santa Victoria	3	Marzo	2023-12-03T00:00:00	2024-11-08T15:00:00	8	Radiación solar	140
94837	7	Sololá	701	Sololá	4	Finca Santa Victoria	3	Marzo	2023-12-03T00:00:00	2024-11-08T16:00:00	2	Temperatura media	13.9
94838	7	Sololá	701	Sololá	4	Finca Santa Victoria	3	Marzo	2023-12-03T00:00:00	2024-11-08T16:00:00	4	Temperatura máxima	14.5
94839	7	Sololá	701	Sololá	4	Finca Santa Victoria	3	Marzo	2023-12-03T00:00:00	2024-11-08T16:00:00	3	Temperatura mínima	13.9
94840	7	Sololá	701	Sololá	4	Finca Santa Victoria	3	Marzo	2023-12-03T00:00:00	2024-11-08T16:00:00	5	Humedad	92
94841	7	Sololá	701	Sololá	4	Finca Santa Victoria	3	Marzo	2023-12-03T00:00:00	2024-11-08T16:00:00	6	Velocidad del viento	1.6
94842	7	Sololá	701	Sololá	4	Finca Santa Victoria	3	Marzo	2023-12-03T00:00:00	2024-11-08T16:00:00	7	Dirección del viento	1.61
94843	7	Sololá	701	Sololá	4	Finca Santa Victoria	3	Marzo	2023-12-03T00:00:00	2024-11-08T16:00:00	1	Precipitación	0
94844	7	Sololá	701	Sololá	4	Finca Santa Victoria	3	Marzo	2023-12-03T00:00:00	2024-11-08T16:00:00	8	Radiación solar	80
94845	7	Sololá	701	Sololá	4	Finca Santa Victoria	3	Marzo	2023-12-03T00:00:00	2024-11-08T17:00:00	2	Temperatura media	13.2
94846	7	Sololá	701	Sololá	4	Finca Santa Victoria	3	Marzo	2023-12-03T00:00:00	2024-11-08T17:00:00	4	Temperatura máxima	13.9
94847	7	Sololá	701	Sololá	4	Finca Santa Victoria	3	Marzo	2023-12-03T00:00:00	2024-11-08T17:00:00	3	Temperatura mínima	13.1
94848	7	Sololá	701	Sololá	4	Finca Santa Victoria	3	Marzo	2023-12-03T00:00:00	2024-11-08T17:00:00	5	Humedad	96
94849	7	Sololá	701	Sololá	4	Finca Santa Victoria	3	Marzo	2023-12-03T00:00:00	2024-11-08T17:00:00	6	Velocidad del viento	1.6
94850	7	Sololá	701	Sololá	4	Finca Santa Victoria	3	Marzo	2023-12-03T00:00:00	2024-11-08T17:00:00	7	Dirección del viento	1.61
94851	7	Sololá	701	Sololá	4	Finca Santa Victoria	3	Marzo	2023-12-03T00:00:00	2024-11-08T17:00:00	1	Precipitación	0
94852	7	Sololá	701	Sololá	4	Finca Santa Victoria	3	Marzo	2023-12-03T00:00:00	2024-11-08T17:00:00	8	Radiación solar	16
94853	7	Sololá	701	Sololá	4	Finca Santa Victoria	3	Marzo	2023-12-03T00:00:00	2024-11-08T18:00:00	2	Temperatura media	13.4
94854	7	Sololá	701	Sololá	4	Finca Santa Victoria	3	Marzo	2023-12-03T00:00:00	2024-11-08T18:00:00	4	Temperatura máxima	13.4
94855	7	Sololá	701	Sololá	4	Finca Santa Victoria	3	Marzo	2023-12-03T00:00:00	2024-11-08T18:00:00	3	Temperatura mínima	13.1
94856	7	Sololá	701	Sololá	4	Finca Santa Victoria	3	Marzo	2023-12-03T00:00:00	2024-11-08T18:00:00	5	Humedad	97
94857	7	Sololá	701	Sololá	4	Finca Santa Victoria	3	Marzo	2023-12-03T00:00:00	2024-11-08T18:00:00	6	Velocidad del viento	0
94858	7	Sololá	701	Sololá	4	Finca Santa Victoria	3	Marzo	2023-12-03T00:00:00	2024-11-08T18:00:00	7	Dirección del viento	0
94859	7	Sololá	701	Sololá	4	Finca Santa Victoria	3	Marzo	2023-12-03T00:00:00	2024-11-08T18:00:00	1	Precipitación	0
94860	7	Sololá	701	Sololá	4	Finca Santa Victoria	3	Marzo	2023-12-03T00:00:00	2024-11-08T18:00:00	8	Radiación solar	25
94861	7	Sololá	701	Sololá	4	Finca Santa Victoria	3	Marzo	2023-12-03T00:00:00	2024-11-08T19:00:00	2	Temperatura media	13.1
94862	7	Sololá	701	Sololá	4	Finca Santa Victoria	3	Marzo	2023-12-03T00:00:00	2024-11-08T19:00:00	4	Temperatura máxima	13.4
94863	7	Sololá	701	Sololá	4	Finca Santa Victoria	3	Marzo	2023-12-03T00:00:00	2024-11-08T19:00:00	3	Temperatura mínima	13.1
94864	7	Sololá	701	Sololá	4	Finca Santa Victoria	3	Marzo	2023-12-03T00:00:00	2024-11-08T19:00:00	5	Humedad	95
94865	7	Sololá	701	Sololá	4	Finca Santa Victoria	3	Marzo	2023-12-03T00:00:00	2024-11-08T19:00:00	6	Velocidad del viento	0
94866	7	Sololá	701	Sololá	4	Finca Santa Victoria	3	Marzo	2023-12-03T00:00:00	2024-11-08T19:00:00	7	Dirección del viento	0
94867	7	Sololá	701	Sololá	4	Finca Santa Victoria	3	Marzo	2023-12-03T00:00:00	2024-11-08T19:00:00	1	Precipitación	0
94868	7	Sololá	701	Sololá	4	Finca Santa Victoria	3	Marzo	2023-12-03T00:00:00	2024-11-08T19:00:00	8	Radiación solar	0
94869	7	Sololá	701	Sololá	4	Finca Santa Victoria	3	Marzo	2023-12-03T00:00:00	2024-11-08T20:00:00	2	Temperatura media	13.1
94870	7	Sololá	701	Sololá	4	Finca Santa Victoria	3	Marzo	2023-12-03T00:00:00	2024-11-08T20:00:00	4	Temperatura máxima	13.1
94871	7	Sololá	701	Sololá	4	Finca Santa Victoria	3	Marzo	2023-12-03T00:00:00	2024-11-08T20:00:00	3	Temperatura mínima	12.9
94872	7	Sololá	701	Sololá	4	Finca Santa Victoria	3	Marzo	2023-12-03T00:00:00	2024-11-08T20:00:00	5	Humedad	97
94873	7	Sololá	701	Sololá	4	Finca Santa Victoria	3	Marzo	2023-12-03T00:00:00	2024-11-08T20:00:00	6	Velocidad del viento	0
94874	7	Sololá	701	Sololá	4	Finca Santa Victoria	3	Marzo	2023-12-03T00:00:00	2024-11-08T20:00:00	7	Dirección del viento	0
94875	7	Sololá	701	Sololá	4	Finca Santa Victoria	3	Marzo	2023-12-03T00:00:00	2024-11-08T20:00:00	1	Precipitación	0
94876	7	Sololá	701	Sololá	4	Finca Santa Victoria	3	Marzo	2023-12-03T00:00:00	2024-11-08T20:00:00	8	Radiación solar	0
94877	7	Sololá	701	Sololá	4	Finca Santa Victoria	3	Marzo	2023-12-03T00:00:00	2024-11-08T21:00:00	2	Temperatura media	13.2
94878	7	Sololá	701	Sololá	4	Finca Santa Victoria	3	Marzo	2023-12-03T00:00:00	2024-11-08T21:00:00	4	Temperatura máxima	13.2
94879	7	Sololá	701	Sololá	4	Finca Santa Victoria	3	Marzo	2023-12-03T00:00:00	2024-11-08T21:00:00	3	Temperatura mínima	13.1
94880	7	Sololá	701	Sololá	4	Finca Santa Victoria	3	Marzo	2023-12-03T00:00:00	2024-11-08T21:00:00	5	Humedad	97
94881	7	Sololá	701	Sololá	4	Finca Santa Victoria	3	Marzo	2023-12-03T00:00:00	2024-11-08T21:00:00	6	Velocidad del viento	0
94882	7	Sololá	701	Sololá	4	Finca Santa Victoria	3	Marzo	2023-12-03T00:00:00	2024-11-08T21:00:00	7	Dirección del viento	0
94883	7	Sololá	701	Sololá	4	Finca Santa Victoria	3	Marzo	2023-12-03T00:00:00	2024-11-08T21:00:00	1	Precipitación	0
94884	7	Sololá	701	Sololá	4	Finca Santa Victoria	3	Marzo	2023-12-03T00:00:00	2024-11-08T21:00:00	8	Radiación solar	0
94885	7	Sololá	701	Sololá	4	Finca Santa Victoria	3	Marzo	2023-12-03T00:00:00	2024-11-08T22:00:00	2	Temperatura media	13.2
94886	7	Sololá	701	Sololá	4	Finca Santa Victoria	3	Marzo	2023-12-03T00:00:00	2024-11-08T22:00:00	4	Temperatura máxima	13.2
94887	7	Sololá	701	Sololá	4	Finca Santa Victoria	3	Marzo	2023-12-03T00:00:00	2024-11-08T22:00:00	3	Temperatura mínima	13.1
94888	7	Sololá	701	Sololá	4	Finca Santa Victoria	3	Marzo	2023-12-03T00:00:00	2024-11-08T22:00:00	5	Humedad	97
94889	7	Sololá	701	Sololá	4	Finca Santa Victoria	3	Marzo	2023-12-03T00:00:00	2024-11-08T22:00:00	6	Velocidad del viento	0
94890	7	Sololá	701	Sololá	4	Finca Santa Victoria	3	Marzo	2023-12-03T00:00:00	2024-11-08T22:00:00	7	Dirección del viento	0
94891	7	Sololá	701	Sololá	4	Finca Santa Victoria	3	Marzo	2023-12-03T00:00:00	2024-11-08T22:00:00	1	Precipitación	0
94892	7	Sololá	701	Sololá	4	Finca Santa Victoria	3	Marzo	2023-12-03T00:00:00	2024-11-08T22:00:00	8	Radiación solar	0
94893	7	Sololá	701	Sololá	4	Finca Santa Victoria	3	Marzo	2023-12-03T00:00:00	2024-11-08T23:00:00	2	Temperatura media	12.9
94894	7	Sololá	701	Sololá	4	Finca Santa Victoria	3	Marzo	2023-12-03T00:00:00	2024-11-08T23:00:00	4	Temperatura máxima	13.2
94895	7	Sololá	701	Sololá	4	Finca Santa Victoria	3	Marzo	2023-12-03T00:00:00	2024-11-08T23:00:00	3	Temperatura mínima	12.9
94896	7	Sololá	701	Sololá	4	Finca Santa Victoria	3	Marzo	2023-12-03T00:00:00	2024-11-08T23:00:00	5	Humedad	98
94897	7	Sololá	701	Sololá	4	Finca Santa Victoria	3	Marzo	2023-12-03T00:00:00	2024-11-08T23:00:00	6	Velocidad del viento	1.6
94898	7	Sololá	701	Sololá	4	Finca Santa Victoria	3	Marzo	2023-12-03T00:00:00	2024-11-08T23:00:00	7	Dirección del viento	1.61
94899	7	Sololá	701	Sololá	4	Finca Santa Victoria	3	Marzo	2023-12-03T00:00:00	2024-11-08T23:00:00	1	Precipitación	0
94900	7	Sololá	701	Sololá	4	Finca Santa Victoria	3	Marzo	2023-12-03T00:00:00	2024-11-08T23:00:00	8	Radiación solar	0
94901	7	Sololá	701	Sololá	4	Finca Santa Victoria	3	Marzo	2023-03-13T00:00:00	2024-11-08T00:00:00	2	Temperatura media	12.3
94902	7	Sololá	701	Sololá	4	Finca Santa Victoria	3	Marzo	2023-03-13T00:00:00	2024-11-08T00:00:00	4	Temperatura máxima	13
94903	7	Sololá	701	Sololá	4	Finca Santa Victoria	3	Marzo	2023-03-13T00:00:00	2024-11-08T00:00:00	3	Temperatura mínima	12.3
94904	7	Sololá	701	Sololá	4	Finca Santa Victoria	3	Marzo	2023-03-13T00:00:00	2024-11-08T00:00:00	5	Humedad	98
94905	7	Sololá	701	Sololá	4	Finca Santa Victoria	3	Marzo	2023-03-13T00:00:00	2024-11-08T00:00:00	6	Velocidad del viento	1.6
94906	7	Sololá	701	Sololá	4	Finca Santa Victoria	3	Marzo	2023-03-13T00:00:00	2024-11-08T00:00:00	7	Dirección del viento	1.61
94907	7	Sololá	701	Sololá	4	Finca Santa Victoria	3	Marzo	2023-03-13T00:00:00	2024-11-08T00:00:00	1	Precipitación	0
94908	7	Sololá	701	Sololá	4	Finca Santa Victoria	3	Marzo	2023-03-13T00:00:00	2024-11-08T00:00:00	8	Radiación solar	0
94909	7	Sololá	701	Sololá	4	Finca Santa Victoria	3	Marzo	2023-03-13T00:00:00	2024-11-08T01:00:00	2	Temperatura media	12.1
94910	7	Sololá	701	Sololá	4	Finca Santa Victoria	3	Marzo	2023-03-13T00:00:00	2024-11-08T01:00:00	4	Temperatura máxima	12.3
94911	7	Sololá	701	Sololá	4	Finca Santa Victoria	3	Marzo	2023-03-13T00:00:00	2024-11-08T01:00:00	3	Temperatura mínima	12
94912	7	Sololá	701	Sololá	4	Finca Santa Victoria	3	Marzo	2023-03-13T00:00:00	2024-11-08T01:00:00	5	Humedad	98
94913	7	Sololá	701	Sololá	4	Finca Santa Victoria	3	Marzo	2023-03-13T00:00:00	2024-11-08T01:00:00	6	Velocidad del viento	0
94914	7	Sololá	701	Sololá	4	Finca Santa Victoria	3	Marzo	2023-03-13T00:00:00	2024-11-08T01:00:00	7	Dirección del viento	0
94915	7	Sololá	701	Sololá	4	Finca Santa Victoria	3	Marzo	2023-03-13T00:00:00	2024-11-08T01:00:00	1	Precipitación	0
94916	7	Sololá	701	Sololá	4	Finca Santa Victoria	3	Marzo	2023-03-13T00:00:00	2024-11-08T01:00:00	8	Radiación solar	0
94917	7	Sololá	701	Sololá	4	Finca Santa Victoria	3	Marzo	2023-03-13T00:00:00	2024-11-08T02:00:00	2	Temperatura media	11.9
94918	7	Sololá	701	Sololá	4	Finca Santa Victoria	3	Marzo	2023-03-13T00:00:00	2024-11-08T02:00:00	4	Temperatura máxima	12.2
94919	7	Sololá	701	Sololá	4	Finca Santa Victoria	3	Marzo	2023-03-13T00:00:00	2024-11-08T02:00:00	3	Temperatura mínima	11.9
94920	7	Sololá	701	Sololá	4	Finca Santa Victoria	3	Marzo	2023-03-13T00:00:00	2024-11-08T02:00:00	5	Humedad	98
94921	7	Sololá	701	Sololá	4	Finca Santa Victoria	3	Marzo	2023-03-13T00:00:00	2024-11-08T02:00:00	6	Velocidad del viento	0
94922	7	Sololá	701	Sololá	4	Finca Santa Victoria	3	Marzo	2023-03-13T00:00:00	2024-11-08T02:00:00	7	Dirección del viento	0
94923	7	Sololá	701	Sololá	4	Finca Santa Victoria	3	Marzo	2023-03-13T00:00:00	2024-11-08T02:00:00	1	Precipitación	0
94924	7	Sololá	701	Sololá	4	Finca Santa Victoria	3	Marzo	2023-03-13T00:00:00	2024-11-08T02:00:00	8	Radiación solar	0
94925	7	Sololá	701	Sololá	4	Finca Santa Victoria	3	Marzo	2023-03-13T00:00:00	2024-11-08T03:00:00	2	Temperatura media	11.4
94926	7	Sololá	701	Sololá	4	Finca Santa Victoria	3	Marzo	2023-03-13T00:00:00	2024-11-08T03:00:00	4	Temperatura máxima	12
94927	7	Sololá	701	Sololá	4	Finca Santa Victoria	3	Marzo	2023-03-13T00:00:00	2024-11-08T03:00:00	3	Temperatura mínima	11.4
94928	7	Sololá	701	Sololá	4	Finca Santa Victoria	3	Marzo	2023-03-13T00:00:00	2024-11-08T03:00:00	5	Humedad	98
94929	7	Sololá	701	Sololá	4	Finca Santa Victoria	3	Marzo	2023-03-13T00:00:00	2024-11-08T03:00:00	6	Velocidad del viento	0
94930	7	Sololá	701	Sololá	4	Finca Santa Victoria	3	Marzo	2023-03-13T00:00:00	2024-11-08T03:00:00	7	Dirección del viento	0
94931	7	Sololá	701	Sololá	4	Finca Santa Victoria	3	Marzo	2023-03-13T00:00:00	2024-11-08T03:00:00	1	Precipitación	0
94932	7	Sololá	701	Sololá	4	Finca Santa Victoria	3	Marzo	2023-03-13T00:00:00	2024-11-08T03:00:00	8	Radiación solar	0
94933	7	Sololá	701	Sololá	4	Finca Santa Victoria	3	Marzo	2023-03-13T00:00:00	2024-11-08T04:00:00	2	Temperatura media	11.4
94934	7	Sololá	701	Sololá	4	Finca Santa Victoria	3	Marzo	2023-03-13T00:00:00	2024-11-08T04:00:00	4	Temperatura máxima	11.5
94935	7	Sololá	701	Sololá	4	Finca Santa Victoria	3	Marzo	2023-03-13T00:00:00	2024-11-08T04:00:00	3	Temperatura mínima	11.3
94936	7	Sololá	701	Sololá	4	Finca Santa Victoria	3	Marzo	2023-03-13T00:00:00	2024-11-08T04:00:00	5	Humedad	98
94937	7	Sololá	701	Sololá	4	Finca Santa Victoria	3	Marzo	2023-03-13T00:00:00	2024-11-08T04:00:00	6	Velocidad del viento	1.6
94938	7	Sololá	701	Sololá	4	Finca Santa Victoria	3	Marzo	2023-03-13T00:00:00	2024-11-08T04:00:00	7	Dirección del viento	1.61
94939	7	Sololá	701	Sololá	4	Finca Santa Victoria	3	Marzo	2023-03-13T00:00:00	2024-11-08T04:00:00	1	Precipitación	0
94940	7	Sololá	701	Sololá	4	Finca Santa Victoria	3	Marzo	2023-03-13T00:00:00	2024-11-08T04:00:00	8	Radiación solar	0
94941	7	Sololá	701	Sololá	4	Finca Santa Victoria	3	Marzo	2023-03-13T00:00:00	2024-11-08T05:00:00	2	Temperatura media	11.2
94942	7	Sololá	701	Sololá	4	Finca Santa Victoria	3	Marzo	2023-03-13T00:00:00	2024-11-08T05:00:00	4	Temperatura máxima	11.4
94943	7	Sololá	701	Sololá	4	Finca Santa Victoria	3	Marzo	2023-03-13T00:00:00	2024-11-08T05:00:00	3	Temperatura mínima	11.1
94944	7	Sololá	701	Sololá	4	Finca Santa Victoria	3	Marzo	2023-03-13T00:00:00	2024-11-08T05:00:00	5	Humedad	98
94945	7	Sololá	701	Sololá	4	Finca Santa Victoria	3	Marzo	2023-03-13T00:00:00	2024-11-08T05:00:00	6	Velocidad del viento	1.6
94946	7	Sololá	701	Sololá	4	Finca Santa Victoria	3	Marzo	2023-03-13T00:00:00	2024-11-08T05:00:00	7	Dirección del viento	1.61
94947	7	Sololá	701	Sololá	4	Finca Santa Victoria	3	Marzo	2023-03-13T00:00:00	2024-11-08T05:00:00	1	Precipitación	0
94948	7	Sololá	701	Sololá	4	Finca Santa Victoria	3	Marzo	2023-03-13T00:00:00	2024-11-08T05:00:00	8	Radiación solar	0
94949	7	Sololá	701	Sololá	4	Finca Santa Victoria	3	Marzo	2023-03-13T00:00:00	2024-11-08T06:00:00	2	Temperatura media	11.1
94950	7	Sololá	701	Sololá	4	Finca Santa Victoria	3	Marzo	2023-03-13T00:00:00	2024-11-08T06:00:00	4	Temperatura máxima	11.2
94951	7	Sololá	701	Sololá	4	Finca Santa Victoria	3	Marzo	2023-03-13T00:00:00	2024-11-08T06:00:00	3	Temperatura mínima	11.1
94952	7	Sololá	701	Sololá	4	Finca Santa Victoria	3	Marzo	2023-03-13T00:00:00	2024-11-08T06:00:00	5	Humedad	97
94953	7	Sololá	701	Sololá	4	Finca Santa Victoria	3	Marzo	2023-03-13T00:00:00	2024-11-08T06:00:00	6	Velocidad del viento	1.6
94954	7	Sololá	701	Sololá	4	Finca Santa Victoria	3	Marzo	2023-03-13T00:00:00	2024-11-08T06:00:00	7	Dirección del viento	1.61
94955	7	Sololá	701	Sololá	4	Finca Santa Victoria	3	Marzo	2023-03-13T00:00:00	2024-11-08T06:00:00	1	Precipitación	0
94956	7	Sololá	701	Sololá	4	Finca Santa Victoria	3	Marzo	2023-03-13T00:00:00	2024-11-08T06:00:00	8	Radiación solar	0
94957	7	Sololá	701	Sololá	4	Finca Santa Victoria	3	Marzo	2023-03-13T00:00:00	2024-11-08T07:00:00	2	Temperatura media	11.3
94958	7	Sololá	701	Sololá	4	Finca Santa Victoria	3	Marzo	2023-03-13T00:00:00	2024-11-08T07:00:00	4	Temperatura máxima	11.3
94959	7	Sololá	701	Sololá	4	Finca Santa Victoria	3	Marzo	2023-03-13T00:00:00	2024-11-08T07:00:00	3	Temperatura mínima	11
94960	7	Sololá	701	Sololá	4	Finca Santa Victoria	3	Marzo	2023-03-13T00:00:00	2024-11-08T07:00:00	5	Humedad	97
94961	7	Sololá	701	Sololá	4	Finca Santa Victoria	3	Marzo	2023-03-13T00:00:00	2024-11-08T07:00:00	6	Velocidad del viento	0
94962	7	Sololá	701	Sololá	4	Finca Santa Victoria	3	Marzo	2023-03-13T00:00:00	2024-11-08T07:00:00	7	Dirección del viento	0
94963	7	Sololá	701	Sololá	4	Finca Santa Victoria	3	Marzo	2023-03-13T00:00:00	2024-11-08T07:00:00	1	Precipitación	0
94964	7	Sololá	701	Sololá	4	Finca Santa Victoria	3	Marzo	2023-03-13T00:00:00	2024-11-08T07:00:00	8	Radiación solar	12
94965	7	Sololá	701	Sololá	4	Finca Santa Victoria	3	Marzo	2023-03-13T00:00:00	2024-11-08T08:00:00	2	Temperatura media	13.9
94966	7	Sololá	701	Sololá	4	Finca Santa Victoria	3	Marzo	2023-03-13T00:00:00	2024-11-08T08:00:00	4	Temperatura máxima	13.9
94967	7	Sololá	701	Sololá	4	Finca Santa Victoria	3	Marzo	2023-03-13T00:00:00	2024-11-08T08:00:00	3	Temperatura mínima	11.3
94968	7	Sololá	701	Sololá	4	Finca Santa Victoria	3	Marzo	2023-03-13T00:00:00	2024-11-08T08:00:00	5	Humedad	90
94969	7	Sololá	701	Sololá	4	Finca Santa Victoria	3	Marzo	2023-03-13T00:00:00	2024-11-08T08:00:00	6	Velocidad del viento	1.6
94970	7	Sololá	701	Sololá	4	Finca Santa Victoria	3	Marzo	2023-03-13T00:00:00	2024-11-08T08:00:00	7	Dirección del viento	1.61
94971	7	Sololá	701	Sololá	4	Finca Santa Victoria	3	Marzo	2023-03-13T00:00:00	2024-11-08T08:00:00	1	Precipitación	0
94972	7	Sololá	701	Sololá	4	Finca Santa Victoria	3	Marzo	2023-03-13T00:00:00	2024-11-08T08:00:00	8	Radiación solar	158
94973	7	Sololá	701	Sololá	4	Finca Santa Victoria	3	Marzo	2023-03-13T00:00:00	2024-11-08T09:00:00	2	Temperatura media	16.1
94974	7	Sololá	701	Sololá	4	Finca Santa Victoria	3	Marzo	2023-03-13T00:00:00	2024-11-08T09:00:00	4	Temperatura máxima	16.1
94975	7	Sololá	701	Sololá	4	Finca Santa Victoria	3	Marzo	2023-03-13T00:00:00	2024-11-08T09:00:00	3	Temperatura mínima	13.9
94976	7	Sololá	701	Sololá	4	Finca Santa Victoria	3	Marzo	2023-03-13T00:00:00	2024-11-08T09:00:00	5	Humedad	81
94977	7	Sololá	701	Sololá	4	Finca Santa Victoria	3	Marzo	2023-03-13T00:00:00	2024-11-08T09:00:00	6	Velocidad del viento	1.6
94978	7	Sololá	701	Sololá	4	Finca Santa Victoria	3	Marzo	2023-03-13T00:00:00	2024-11-08T09:00:00	7	Dirección del viento	1.61
94979	7	Sololá	701	Sololá	4	Finca Santa Victoria	3	Marzo	2023-03-13T00:00:00	2024-11-08T09:00:00	1	Precipitación	0
94980	7	Sololá	701	Sololá	4	Finca Santa Victoria	3	Marzo	2023-03-13T00:00:00	2024-11-08T09:00:00	8	Radiación solar	453
94981	7	Sololá	701	Sololá	4	Finca Santa Victoria	3	Marzo	2023-03-13T00:00:00	2024-11-08T10:00:00	2	Temperatura media	17.3
94982	7	Sololá	701	Sololá	4	Finca Santa Victoria	3	Marzo	2023-03-13T00:00:00	2024-11-08T10:00:00	4	Temperatura máxima	17.3
94983	7	Sololá	701	Sololá	4	Finca Santa Victoria	3	Marzo	2023-03-13T00:00:00	2024-11-08T10:00:00	3	Temperatura mínima	16.1
94984	7	Sololá	701	Sololá	4	Finca Santa Victoria	3	Marzo	2023-03-13T00:00:00	2024-11-08T10:00:00	5	Humedad	75
94985	7	Sololá	701	Sololá	4	Finca Santa Victoria	3	Marzo	2023-03-13T00:00:00	2024-11-08T10:00:00	6	Velocidad del viento	3.2
94986	7	Sololá	701	Sololá	4	Finca Santa Victoria	3	Marzo	2023-03-13T00:00:00	2024-11-08T10:00:00	7	Dirección del viento	3.22
94987	7	Sololá	701	Sololá	4	Finca Santa Victoria	3	Marzo	2023-03-13T00:00:00	2024-11-08T10:00:00	1	Precipitación	0
94988	7	Sololá	701	Sololá	4	Finca Santa Victoria	3	Marzo	2023-03-13T00:00:00	2024-11-08T10:00:00	8	Radiación solar	727
94989	7	Sololá	701	Sololá	4	Finca Santa Victoria	3	Marzo	2023-03-13T00:00:00	2024-11-08T11:00:00	2	Temperatura media	17.7
94990	7	Sololá	701	Sololá	4	Finca Santa Victoria	3	Marzo	2023-03-13T00:00:00	2024-11-08T11:00:00	4	Temperatura máxima	18.2
94991	7	Sololá	701	Sololá	4	Finca Santa Victoria	3	Marzo	2023-03-13T00:00:00	2024-11-08T11:00:00	3	Temperatura mínima	17.1
94992	7	Sololá	701	Sololá	4	Finca Santa Victoria	3	Marzo	2023-03-13T00:00:00	2024-11-08T11:00:00	5	Humedad	73
94993	7	Sololá	701	Sololá	4	Finca Santa Victoria	3	Marzo	2023-03-13T00:00:00	2024-11-08T11:00:00	6	Velocidad del viento	4.8
94994	7	Sololá	701	Sololá	4	Finca Santa Victoria	3	Marzo	2023-03-13T00:00:00	2024-11-08T11:00:00	7	Dirección del viento	4.83
94995	7	Sololá	701	Sololá	4	Finca Santa Victoria	3	Marzo	2023-03-13T00:00:00	2024-11-08T11:00:00	1	Precipitación	0
94996	7	Sololá	701	Sololá	4	Finca Santa Victoria	3	Marzo	2023-03-13T00:00:00	2024-11-08T11:00:00	8	Radiación solar	886
94997	7	Sololá	701	Sololá	4	Finca Santa Victoria	3	Marzo	2023-03-13T00:00:00	2024-11-08T12:00:00	2	Temperatura media	18.4
94998	7	Sololá	701	Sololá	4	Finca Santa Victoria	3	Marzo	2023-03-13T00:00:00	2024-11-08T12:00:00	4	Temperatura máxima	18.4
94999	7	Sololá	701	Sololá	4	Finca Santa Victoria	3	Marzo	2023-03-13T00:00:00	2024-11-08T12:00:00	3	Temperatura mínima	17.6
95000	7	Sololá	701	Sololá	4	Finca Santa Victoria	3	Marzo	2023-03-13T00:00:00	2024-11-08T12:00:00	5	Humedad	78
95001	7	Sololá	701	Sololá	4	Finca Santa Victoria	3	Marzo	2023-03-13T00:00:00	2024-11-08T12:00:00	6	Velocidad del viento	4.8
95002	7	Sololá	701	Sololá	4	Finca Santa Victoria	3	Marzo	2023-03-13T00:00:00	2024-11-08T12:00:00	7	Dirección del viento	4.83
95003	7	Sololá	701	Sololá	4	Finca Santa Victoria	3	Marzo	2023-03-13T00:00:00	2024-11-08T12:00:00	1	Precipitación	0
95004	7	Sololá	701	Sololá	4	Finca Santa Victoria	3	Marzo	2023-03-13T00:00:00	2024-11-08T12:00:00	8	Radiación solar	977
95005	7	Sololá	701	Sololá	4	Finca Santa Victoria	3	Marzo	2023-03-13T00:00:00	2024-11-08T13:00:00	2	Temperatura media	16.8
95006	7	Sololá	701	Sololá	4	Finca Santa Victoria	3	Marzo	2023-03-13T00:00:00	2024-11-08T13:00:00	4	Temperatura máxima	18.3
95007	7	Sololá	701	Sololá	4	Finca Santa Victoria	3	Marzo	2023-03-13T00:00:00	2024-11-08T13:00:00	3	Temperatura mínima	16.8
95008	7	Sololá	701	Sololá	4	Finca Santa Victoria	3	Marzo	2023-03-13T00:00:00	2024-11-08T13:00:00	5	Humedad	83
95009	7	Sololá	701	Sololá	4	Finca Santa Victoria	3	Marzo	2023-03-13T00:00:00	2024-11-08T13:00:00	6	Velocidad del viento	4.8
95010	7	Sololá	701	Sololá	4	Finca Santa Victoria	3	Marzo	2023-03-13T00:00:00	2024-11-08T13:00:00	7	Dirección del viento	4.83
95011	7	Sololá	701	Sololá	4	Finca Santa Victoria	3	Marzo	2023-03-13T00:00:00	2024-11-08T13:00:00	1	Precipitación	0
95012	7	Sololá	701	Sololá	4	Finca Santa Victoria	3	Marzo	2023-03-13T00:00:00	2024-11-08T13:00:00	8	Radiación solar	441
95013	7	Sololá	701	Sololá	4	Finca Santa Victoria	3	Marzo	2023-03-13T00:00:00	2024-11-08T14:00:00	2	Temperatura media	17
95014	7	Sololá	701	Sololá	4	Finca Santa Victoria	3	Marzo	2023-03-13T00:00:00	2024-11-08T14:00:00	4	Temperatura máxima	17.2
95015	7	Sololá	701	Sololá	4	Finca Santa Victoria	3	Marzo	2023-03-13T00:00:00	2024-11-08T14:00:00	3	Temperatura mínima	16.6
95016	7	Sololá	701	Sololá	4	Finca Santa Victoria	3	Marzo	2023-03-13T00:00:00	2024-11-08T14:00:00	5	Humedad	83
95017	7	Sololá	701	Sololá	4	Finca Santa Victoria	3	Marzo	2023-03-13T00:00:00	2024-11-08T14:00:00	6	Velocidad del viento	4.8
95018	7	Sololá	701	Sololá	4	Finca Santa Victoria	3	Marzo	2023-03-13T00:00:00	2024-11-08T14:00:00	7	Dirección del viento	4.83
95019	7	Sololá	701	Sololá	4	Finca Santa Victoria	3	Marzo	2023-03-13T00:00:00	2024-11-08T14:00:00	1	Precipitación	0
95020	7	Sololá	701	Sololá	4	Finca Santa Victoria	3	Marzo	2023-03-13T00:00:00	2024-11-08T14:00:00	8	Radiación solar	331
95021	7	Sololá	701	Sololá	4	Finca Santa Victoria	3	Marzo	2023-03-13T00:00:00	2024-11-08T15:00:00	2	Temperatura media	15.7
95022	7	Sololá	701	Sololá	4	Finca Santa Victoria	3	Marzo	2023-03-13T00:00:00	2024-11-08T15:00:00	4	Temperatura máxima	17.3
95023	7	Sololá	701	Sololá	4	Finca Santa Victoria	3	Marzo	2023-03-13T00:00:00	2024-11-08T15:00:00	3	Temperatura mínima	15.7
95024	7	Sololá	701	Sololá	4	Finca Santa Victoria	3	Marzo	2023-03-13T00:00:00	2024-11-08T15:00:00	5	Humedad	88
95025	7	Sololá	701	Sololá	4	Finca Santa Victoria	3	Marzo	2023-03-13T00:00:00	2024-11-08T15:00:00	6	Velocidad del viento	4.8
95026	7	Sololá	701	Sololá	4	Finca Santa Victoria	3	Marzo	2023-03-13T00:00:00	2024-11-08T15:00:00	7	Dirección del viento	4.83
95027	7	Sololá	701	Sololá	4	Finca Santa Victoria	3	Marzo	2023-03-13T00:00:00	2024-11-08T15:00:00	1	Precipitación	0
95028	7	Sololá	701	Sololá	4	Finca Santa Victoria	3	Marzo	2023-03-13T00:00:00	2024-11-08T15:00:00	8	Radiación solar	181
95029	7	Sololá	701	Sololá	4	Finca Santa Victoria	3	Marzo	2023-03-13T00:00:00	2024-11-08T16:00:00	2	Temperatura media	14.8
95030	7	Sololá	701	Sololá	4	Finca Santa Victoria	3	Marzo	2023-03-13T00:00:00	2024-11-08T16:00:00	4	Temperatura máxima	15.8
95031	7	Sololá	701	Sololá	4	Finca Santa Victoria	3	Marzo	2023-03-13T00:00:00	2024-11-08T16:00:00	3	Temperatura mínima	14.8
95032	7	Sololá	701	Sololá	4	Finca Santa Victoria	3	Marzo	2023-03-13T00:00:00	2024-11-08T16:00:00	5	Humedad	93
95033	7	Sololá	701	Sololá	4	Finca Santa Victoria	3	Marzo	2023-03-13T00:00:00	2024-11-08T16:00:00	6	Velocidad del viento	3.2
95034	7	Sololá	701	Sololá	4	Finca Santa Victoria	3	Marzo	2023-03-13T00:00:00	2024-11-08T16:00:00	7	Dirección del viento	3.22
95035	7	Sololá	701	Sololá	4	Finca Santa Victoria	3	Marzo	2023-03-13T00:00:00	2024-11-08T16:00:00	1	Precipitación	0
95036	7	Sololá	701	Sololá	4	Finca Santa Victoria	3	Marzo	2023-03-13T00:00:00	2024-11-08T16:00:00	8	Radiación solar	90
95037	7	Sololá	701	Sololá	4	Finca Santa Victoria	3	Marzo	2023-03-13T00:00:00	2024-11-08T17:00:00	2	Temperatura media	14.9
95038	7	Sololá	701	Sololá	4	Finca Santa Victoria	3	Marzo	2023-03-13T00:00:00	2024-11-08T17:00:00	4	Temperatura máxima	14.9
95039	7	Sololá	701	Sololá	4	Finca Santa Victoria	3	Marzo	2023-03-13T00:00:00	2024-11-08T17:00:00	3	Temperatura mínima	14.7
95040	7	Sololá	701	Sololá	4	Finca Santa Victoria	3	Marzo	2023-03-13T00:00:00	2024-11-08T17:00:00	5	Humedad	93
95041	7	Sololá	701	Sololá	4	Finca Santa Victoria	3	Marzo	2023-03-13T00:00:00	2024-11-08T17:00:00	6	Velocidad del viento	1.6
95042	7	Sololá	701	Sololá	4	Finca Santa Victoria	3	Marzo	2023-03-13T00:00:00	2024-11-08T17:00:00	7	Dirección del viento	1.61
95043	7	Sololá	701	Sololá	4	Finca Santa Victoria	3	Marzo	2023-03-13T00:00:00	2024-11-08T17:00:00	1	Precipitación	0
95044	7	Sololá	701	Sololá	4	Finca Santa Victoria	3	Marzo	2023-03-13T00:00:00	2024-11-08T17:00:00	8	Radiación solar	49
95045	7	Sololá	701	Sololá	4	Finca Santa Victoria	3	Marzo	2023-03-13T00:00:00	2024-11-08T18:00:00	2	Temperatura media	14.3
95046	7	Sololá	701	Sololá	4	Finca Santa Victoria	3	Marzo	2023-03-13T00:00:00	2024-11-08T18:00:00	4	Temperatura máxima	14.9
95047	7	Sololá	701	Sololá	4	Finca Santa Victoria	3	Marzo	2023-03-13T00:00:00	2024-11-08T18:00:00	3	Temperatura mínima	14.3
95048	7	Sololá	701	Sololá	4	Finca Santa Victoria	3	Marzo	2023-03-13T00:00:00	2024-11-08T18:00:00	5	Humedad	95
95049	7	Sololá	701	Sololá	4	Finca Santa Victoria	3	Marzo	2023-03-13T00:00:00	2024-11-08T18:00:00	6	Velocidad del viento	1.6
95050	7	Sololá	701	Sololá	4	Finca Santa Victoria	3	Marzo	2023-03-13T00:00:00	2024-11-08T18:00:00	7	Dirección del viento	1.61
95051	7	Sololá	701	Sololá	4	Finca Santa Victoria	3	Marzo	2023-03-13T00:00:00	2024-11-08T18:00:00	1	Precipitación	0
95052	7	Sololá	701	Sololá	4	Finca Santa Victoria	3	Marzo	2023-03-13T00:00:00	2024-11-08T18:00:00	8	Radiación solar	18
95053	7	Sololá	701	Sololá	4	Finca Santa Victoria	3	Marzo	2023-03-13T00:00:00	2024-11-08T19:00:00	2	Temperatura media	13.6
95054	7	Sololá	701	Sololá	4	Finca Santa Victoria	3	Marzo	2023-03-13T00:00:00	2024-11-08T19:00:00	4	Temperatura máxima	14.3
95055	7	Sololá	701	Sololá	4	Finca Santa Victoria	3	Marzo	2023-03-13T00:00:00	2024-11-08T19:00:00	3	Temperatura mínima	13.6
95056	7	Sololá	701	Sololá	4	Finca Santa Victoria	3	Marzo	2023-03-13T00:00:00	2024-11-08T19:00:00	5	Humedad	96
95057	7	Sololá	701	Sololá	4	Finca Santa Victoria	3	Marzo	2023-03-13T00:00:00	2024-11-08T19:00:00	6	Velocidad del viento	0
95058	7	Sololá	701	Sololá	4	Finca Santa Victoria	3	Marzo	2023-03-13T00:00:00	2024-11-08T19:00:00	7	Dirección del viento	0
95059	7	Sololá	701	Sololá	4	Finca Santa Victoria	3	Marzo	2023-03-13T00:00:00	2024-11-08T19:00:00	1	Precipitación	0
95060	7	Sololá	701	Sololá	4	Finca Santa Victoria	3	Marzo	2023-03-13T00:00:00	2024-11-08T19:00:00	8	Radiación solar	0
95061	7	Sololá	701	Sololá	4	Finca Santa Victoria	3	Marzo	2023-03-13T00:00:00	2024-11-08T20:00:00	2	Temperatura media	13.7
95062	7	Sololá	701	Sololá	4	Finca Santa Victoria	3	Marzo	2023-03-13T00:00:00	2024-11-08T20:00:00	4	Temperatura máxima	13.7
95063	7	Sololá	701	Sololá	4	Finca Santa Victoria	3	Marzo	2023-03-13T00:00:00	2024-11-08T20:00:00	3	Temperatura mínima	13.6
95064	7	Sololá	701	Sololá	4	Finca Santa Victoria	3	Marzo	2023-03-13T00:00:00	2024-11-08T20:00:00	5	Humedad	96
95065	7	Sololá	701	Sololá	4	Finca Santa Victoria	3	Marzo	2023-03-13T00:00:00	2024-11-08T20:00:00	6	Velocidad del viento	0
95066	7	Sololá	701	Sololá	4	Finca Santa Victoria	3	Marzo	2023-03-13T00:00:00	2024-11-08T20:00:00	7	Dirección del viento	0
95067	7	Sololá	701	Sololá	4	Finca Santa Victoria	3	Marzo	2023-03-13T00:00:00	2024-11-08T20:00:00	1	Precipitación	0
95068	7	Sololá	701	Sololá	4	Finca Santa Victoria	3	Marzo	2023-03-13T00:00:00	2024-11-08T20:00:00	8	Radiación solar	0
95069	7	Sololá	701	Sololá	4	Finca Santa Victoria	3	Marzo	2023-03-13T00:00:00	2024-11-08T21:00:00	2	Temperatura media	13.6
95070	7	Sololá	701	Sololá	4	Finca Santa Victoria	3	Marzo	2023-03-13T00:00:00	2024-11-08T21:00:00	4	Temperatura máxima	13.7
95071	7	Sololá	701	Sololá	4	Finca Santa Victoria	3	Marzo	2023-03-13T00:00:00	2024-11-08T21:00:00	3	Temperatura mínima	13.4
95072	7	Sololá	701	Sololá	4	Finca Santa Victoria	3	Marzo	2023-03-13T00:00:00	2024-11-08T21:00:00	5	Humedad	97
95073	7	Sololá	701	Sololá	4	Finca Santa Victoria	3	Marzo	2023-03-13T00:00:00	2024-11-08T21:00:00	6	Velocidad del viento	0
95074	7	Sololá	701	Sololá	4	Finca Santa Victoria	3	Marzo	2023-03-13T00:00:00	2024-11-08T21:00:00	7	Dirección del viento	0
95075	7	Sololá	701	Sololá	4	Finca Santa Victoria	3	Marzo	2023-03-13T00:00:00	2024-11-08T21:00:00	1	Precipitación	0
95076	7	Sololá	701	Sololá	4	Finca Santa Victoria	3	Marzo	2023-03-13T00:00:00	2024-11-08T21:00:00	8	Radiación solar	0
95077	7	Sololá	701	Sololá	4	Finca Santa Victoria	3	Marzo	2023-03-13T00:00:00	2024-11-08T22:00:00	2	Temperatura media	13.3
95078	7	Sololá	701	Sololá	4	Finca Santa Victoria	3	Marzo	2023-03-13T00:00:00	2024-11-08T22:00:00	4	Temperatura máxima	13.7
95079	7	Sololá	701	Sololá	4	Finca Santa Victoria	3	Marzo	2023-03-13T00:00:00	2024-11-08T22:00:00	3	Temperatura mínima	13.3
95080	7	Sololá	701	Sololá	4	Finca Santa Victoria	3	Marzo	2023-03-13T00:00:00	2024-11-08T22:00:00	5	Humedad	97
95081	7	Sololá	701	Sololá	4	Finca Santa Victoria	3	Marzo	2023-03-13T00:00:00	2024-11-08T22:00:00	6	Velocidad del viento	0
95082	7	Sololá	701	Sololá	4	Finca Santa Victoria	3	Marzo	2023-03-13T00:00:00	2024-11-08T22:00:00	7	Dirección del viento	0
95083	7	Sololá	701	Sololá	4	Finca Santa Victoria	3	Marzo	2023-03-13T00:00:00	2024-11-08T22:00:00	1	Precipitación	0
95084	7	Sololá	701	Sololá	4	Finca Santa Victoria	3	Marzo	2023-03-13T00:00:00	2024-11-08T22:00:00	8	Radiación solar	0
95085	7	Sololá	701	Sololá	4	Finca Santa Victoria	3	Marzo	2023-03-13T00:00:00	2024-11-08T23:00:00	2	Temperatura media	13.1
95086	7	Sololá	701	Sololá	4	Finca Santa Victoria	3	Marzo	2023-03-13T00:00:00	2024-11-08T23:00:00	4	Temperatura máxima	13.3
95087	7	Sololá	701	Sololá	4	Finca Santa Victoria	3	Marzo	2023-03-13T00:00:00	2024-11-08T23:00:00	3	Temperatura mínima	13.1
95088	7	Sololá	701	Sololá	4	Finca Santa Victoria	3	Marzo	2023-03-13T00:00:00	2024-11-08T23:00:00	5	Humedad	97
95089	7	Sololá	701	Sololá	4	Finca Santa Victoria	3	Marzo	2023-03-13T00:00:00	2024-11-08T23:00:00	6	Velocidad del viento	0
95090	7	Sololá	701	Sololá	4	Finca Santa Victoria	3	Marzo	2023-03-13T00:00:00	2024-11-08T23:00:00	7	Dirección del viento	0
95091	7	Sololá	701	Sololá	4	Finca Santa Victoria	3	Marzo	2023-03-13T00:00:00	2024-11-08T23:00:00	1	Precipitación	0
95092	7	Sololá	701	Sololá	4	Finca Santa Victoria	3	Marzo	2023-03-13T00:00:00	2024-11-08T23:00:00	8	Radiación solar	0
95093	7	Sololá	701	Sololá	4	Finca Santa Victoria	3	Marzo	2023-03-14T00:00:00	2024-11-08T00:00:00	2	Temperatura media	11.9
95094	7	Sololá	701	Sololá	4	Finca Santa Victoria	3	Marzo	2023-03-14T00:00:00	2024-11-08T00:00:00	4	Temperatura máxima	13.1
95095	7	Sololá	701	Sololá	4	Finca Santa Victoria	3	Marzo	2023-03-14T00:00:00	2024-11-08T00:00:00	3	Temperatura mínima	11.9
95096	7	Sololá	701	Sololá	4	Finca Santa Victoria	3	Marzo	2023-03-14T00:00:00	2024-11-08T00:00:00	5	Humedad	96
95097	7	Sololá	701	Sololá	4	Finca Santa Victoria	3	Marzo	2023-03-14T00:00:00	2024-11-08T00:00:00	6	Velocidad del viento	0
95098	7	Sololá	701	Sololá	4	Finca Santa Victoria	3	Marzo	2023-03-14T00:00:00	2024-11-08T00:00:00	7	Dirección del viento	0
95099	7	Sololá	701	Sololá	4	Finca Santa Victoria	3	Marzo	2023-03-14T00:00:00	2024-11-08T00:00:00	1	Precipitación	0
95100	7	Sololá	701	Sololá	4	Finca Santa Victoria	3	Marzo	2023-03-14T00:00:00	2024-11-08T00:00:00	8	Radiación solar	0
95101	7	Sololá	701	Sololá	4	Finca Santa Victoria	3	Marzo	2023-03-14T00:00:00	2024-11-08T01:00:00	2	Temperatura media	11.7
95102	7	Sololá	701	Sololá	4	Finca Santa Victoria	3	Marzo	2023-03-14T00:00:00	2024-11-08T01:00:00	4	Temperatura máxima	12.1
95103	7	Sololá	701	Sololá	4	Finca Santa Victoria	3	Marzo	2023-03-14T00:00:00	2024-11-08T01:00:00	3	Temperatura mínima	11.6
95104	7	Sololá	701	Sololá	4	Finca Santa Victoria	3	Marzo	2023-03-14T00:00:00	2024-11-08T01:00:00	5	Humedad	93
95105	7	Sololá	701	Sololá	4	Finca Santa Victoria	3	Marzo	2023-03-14T00:00:00	2024-11-08T01:00:00	6	Velocidad del viento	1.6
95106	7	Sololá	701	Sololá	4	Finca Santa Victoria	3	Marzo	2023-03-14T00:00:00	2024-11-08T01:00:00	7	Dirección del viento	1.61
95107	7	Sololá	701	Sololá	4	Finca Santa Victoria	3	Marzo	2023-03-14T00:00:00	2024-11-08T01:00:00	1	Precipitación	0
95108	7	Sololá	701	Sololá	4	Finca Santa Victoria	3	Marzo	2023-03-14T00:00:00	2024-11-08T01:00:00	8	Radiación solar	0
95109	7	Sololá	701	Sololá	4	Finca Santa Victoria	3	Marzo	2023-03-14T00:00:00	2024-11-08T02:00:00	2	Temperatura media	12.1
95110	7	Sololá	701	Sololá	4	Finca Santa Victoria	3	Marzo	2023-03-14T00:00:00	2024-11-08T02:00:00	4	Temperatura máxima	12.1
95111	7	Sololá	701	Sololá	4	Finca Santa Victoria	3	Marzo	2023-03-14T00:00:00	2024-11-08T02:00:00	3	Temperatura mínima	11.7
95112	7	Sololá	701	Sololá	4	Finca Santa Victoria	3	Marzo	2023-03-14T00:00:00	2024-11-08T02:00:00	5	Humedad	90
95113	7	Sololá	701	Sololá	4	Finca Santa Victoria	3	Marzo	2023-03-14T00:00:00	2024-11-08T02:00:00	6	Velocidad del viento	0
95114	7	Sololá	701	Sololá	4	Finca Santa Victoria	3	Marzo	2023-03-14T00:00:00	2024-11-08T02:00:00	7	Dirección del viento	0
95115	7	Sololá	701	Sololá	4	Finca Santa Victoria	3	Marzo	2023-03-14T00:00:00	2024-11-08T02:00:00	1	Precipitación	0
95116	7	Sololá	701	Sololá	4	Finca Santa Victoria	3	Marzo	2023-03-14T00:00:00	2024-11-08T02:00:00	8	Radiación solar	0
95117	7	Sololá	701	Sololá	4	Finca Santa Victoria	3	Marzo	2023-03-14T00:00:00	2024-11-08T03:00:00	2	Temperatura media	12.6
95118	7	Sololá	701	Sololá	4	Finca Santa Victoria	3	Marzo	2023-03-14T00:00:00	2024-11-08T03:00:00	4	Temperatura máxima	12.6
95119	7	Sololá	701	Sololá	4	Finca Santa Victoria	3	Marzo	2023-03-14T00:00:00	2024-11-08T03:00:00	3	Temperatura mínima	12
95120	7	Sololá	701	Sololá	4	Finca Santa Victoria	3	Marzo	2023-03-14T00:00:00	2024-11-08T03:00:00	5	Humedad	87
95121	7	Sololá	701	Sololá	4	Finca Santa Victoria	3	Marzo	2023-03-14T00:00:00	2024-11-08T03:00:00	6	Velocidad del viento	0
95122	7	Sololá	701	Sololá	4	Finca Santa Victoria	3	Marzo	2023-03-14T00:00:00	2024-11-08T03:00:00	7	Dirección del viento	0
95123	7	Sololá	701	Sololá	4	Finca Santa Victoria	3	Marzo	2023-03-14T00:00:00	2024-11-08T03:00:00	1	Precipitación	0
95124	7	Sololá	701	Sololá	4	Finca Santa Victoria	3	Marzo	2023-03-14T00:00:00	2024-11-08T03:00:00	8	Radiación solar	0
95125	7	Sololá	701	Sololá	4	Finca Santa Victoria	3	Marzo	2023-03-14T00:00:00	2024-11-08T04:00:00	2	Temperatura media	11.7
95126	7	Sololá	701	Sololá	4	Finca Santa Victoria	3	Marzo	2023-03-14T00:00:00	2024-11-08T04:00:00	4	Temperatura máxima	12.8
95127	7	Sololá	701	Sololá	4	Finca Santa Victoria	3	Marzo	2023-03-14T00:00:00	2024-11-08T04:00:00	3	Temperatura mínima	11.7
95128	7	Sololá	701	Sololá	4	Finca Santa Victoria	3	Marzo	2023-03-14T00:00:00	2024-11-08T04:00:00	5	Humedad	91
95129	7	Sololá	701	Sololá	4	Finca Santa Victoria	3	Marzo	2023-03-14T00:00:00	2024-11-08T04:00:00	6	Velocidad del viento	0
95130	7	Sololá	701	Sololá	4	Finca Santa Victoria	3	Marzo	2023-03-14T00:00:00	2024-11-08T04:00:00	7	Dirección del viento	0
95131	7	Sololá	701	Sololá	4	Finca Santa Victoria	3	Marzo	2023-03-14T00:00:00	2024-11-08T04:00:00	1	Precipitación	0
95132	7	Sololá	701	Sololá	4	Finca Santa Victoria	3	Marzo	2023-03-14T00:00:00	2024-11-08T04:00:00	8	Radiación solar	0
95133	7	Sololá	701	Sololá	4	Finca Santa Victoria	3	Marzo	2023-03-14T00:00:00	2024-11-08T05:00:00	2	Temperatura media	12.1
95134	7	Sololá	701	Sololá	4	Finca Santa Victoria	3	Marzo	2023-03-14T00:00:00	2024-11-08T05:00:00	4	Temperatura máxima	12.1
95135	7	Sololá	701	Sololá	4	Finca Santa Victoria	3	Marzo	2023-03-14T00:00:00	2024-11-08T05:00:00	3	Temperatura mínima	11.5
95136	7	Sololá	701	Sololá	4	Finca Santa Victoria	3	Marzo	2023-03-14T00:00:00	2024-11-08T05:00:00	5	Humedad	89
95137	7	Sololá	701	Sololá	4	Finca Santa Victoria	3	Marzo	2023-03-14T00:00:00	2024-11-08T05:00:00	6	Velocidad del viento	0
95138	7	Sololá	701	Sololá	4	Finca Santa Victoria	3	Marzo	2023-03-14T00:00:00	2024-11-08T05:00:00	7	Dirección del viento	0
95139	7	Sololá	701	Sololá	4	Finca Santa Victoria	3	Marzo	2023-03-14T00:00:00	2024-11-08T05:00:00	1	Precipitación	0
95140	7	Sololá	701	Sololá	4	Finca Santa Victoria	3	Marzo	2023-03-14T00:00:00	2024-11-08T05:00:00	8	Radiación solar	0
95141	7	Sololá	701	Sololá	4	Finca Santa Victoria	3	Marzo	2023-03-14T00:00:00	2024-11-08T06:00:00	2	Temperatura media	11.7
95142	7	Sololá	701	Sololá	4	Finca Santa Victoria	3	Marzo	2023-03-14T00:00:00	2024-11-08T06:00:00	4	Temperatura máxima	12.2
95143	7	Sololá	701	Sololá	4	Finca Santa Victoria	3	Marzo	2023-03-14T00:00:00	2024-11-08T06:00:00	3	Temperatura mínima	11.6
95144	7	Sololá	701	Sololá	4	Finca Santa Victoria	3	Marzo	2023-03-14T00:00:00	2024-11-08T06:00:00	5	Humedad	92
95145	7	Sololá	701	Sololá	4	Finca Santa Victoria	3	Marzo	2023-03-14T00:00:00	2024-11-08T06:00:00	6	Velocidad del viento	0
95146	7	Sololá	701	Sololá	4	Finca Santa Victoria	3	Marzo	2023-03-14T00:00:00	2024-11-08T06:00:00	7	Dirección del viento	0
95147	7	Sololá	701	Sololá	4	Finca Santa Victoria	3	Marzo	2023-03-14T00:00:00	2024-11-08T06:00:00	1	Precipitación	0
95148	7	Sololá	701	Sololá	4	Finca Santa Victoria	3	Marzo	2023-03-14T00:00:00	2024-11-08T06:00:00	8	Radiación solar	0
95149	7	Sololá	701	Sololá	4	Finca Santa Victoria	3	Marzo	2023-03-14T00:00:00	2024-11-08T07:00:00	2	Temperatura media	12.3
95150	7	Sololá	701	Sololá	4	Finca Santa Victoria	3	Marzo	2023-03-14T00:00:00	2024-11-08T07:00:00	4	Temperatura máxima	12.3
95151	7	Sololá	701	Sololá	4	Finca Santa Victoria	3	Marzo	2023-03-14T00:00:00	2024-11-08T07:00:00	3	Temperatura mínima	11.7
95152	7	Sololá	701	Sololá	4	Finca Santa Victoria	3	Marzo	2023-03-14T00:00:00	2024-11-08T07:00:00	5	Humedad	91
95153	7	Sololá	701	Sololá	4	Finca Santa Victoria	3	Marzo	2023-03-14T00:00:00	2024-11-08T07:00:00	6	Velocidad del viento	0
95154	7	Sololá	701	Sololá	4	Finca Santa Victoria	3	Marzo	2023-03-14T00:00:00	2024-11-08T07:00:00	7	Dirección del viento	0
95155	7	Sololá	701	Sololá	4	Finca Santa Victoria	3	Marzo	2023-03-14T00:00:00	2024-11-08T07:00:00	1	Precipitación	0
95156	7	Sololá	701	Sololá	4	Finca Santa Victoria	3	Marzo	2023-03-14T00:00:00	2024-11-08T07:00:00	8	Radiación solar	21
95157	7	Sololá	701	Sololá	4	Finca Santa Victoria	3	Marzo	2023-03-14T00:00:00	2024-11-08T08:00:00	2	Temperatura media	14.5
95158	7	Sololá	701	Sololá	4	Finca Santa Victoria	3	Marzo	2023-03-14T00:00:00	2024-11-08T08:00:00	4	Temperatura máxima	14.5
95159	7	Sololá	701	Sololá	4	Finca Santa Victoria	3	Marzo	2023-03-14T00:00:00	2024-11-08T08:00:00	3	Temperatura mínima	12.3
95160	7	Sololá	701	Sololá	4	Finca Santa Victoria	3	Marzo	2023-03-14T00:00:00	2024-11-08T08:00:00	5	Humedad	85
95161	7	Sololá	701	Sololá	4	Finca Santa Victoria	3	Marzo	2023-03-14T00:00:00	2024-11-08T08:00:00	6	Velocidad del viento	1.6
95162	7	Sololá	701	Sololá	4	Finca Santa Victoria	3	Marzo	2023-03-14T00:00:00	2024-11-08T08:00:00	7	Dirección del viento	1.61
95163	7	Sololá	701	Sololá	4	Finca Santa Victoria	3	Marzo	2023-03-14T00:00:00	2024-11-08T08:00:00	1	Precipitación	0
95164	7	Sololá	701	Sololá	4	Finca Santa Victoria	3	Marzo	2023-03-14T00:00:00	2024-11-08T08:00:00	8	Radiación solar	167
95165	7	Sololá	701	Sololá	4	Finca Santa Victoria	3	Marzo	2023-03-14T00:00:00	2024-11-08T09:00:00	2	Temperatura media	17.1
95166	7	Sololá	701	Sololá	4	Finca Santa Victoria	3	Marzo	2023-03-14T00:00:00	2024-11-08T09:00:00	4	Temperatura máxima	17.1
95167	7	Sololá	701	Sololá	4	Finca Santa Victoria	3	Marzo	2023-03-14T00:00:00	2024-11-08T09:00:00	3	Temperatura mínima	14.5
95168	7	Sololá	701	Sololá	4	Finca Santa Victoria	3	Marzo	2023-03-14T00:00:00	2024-11-08T09:00:00	5	Humedad	75
95169	7	Sololá	701	Sololá	4	Finca Santa Victoria	3	Marzo	2023-03-14T00:00:00	2024-11-08T09:00:00	6	Velocidad del viento	3.2
95170	7	Sololá	701	Sololá	4	Finca Santa Victoria	3	Marzo	2023-03-14T00:00:00	2024-11-08T09:00:00	7	Dirección del viento	3.22
95171	7	Sololá	701	Sololá	4	Finca Santa Victoria	3	Marzo	2023-03-14T00:00:00	2024-11-08T09:00:00	1	Precipitación	0
95172	7	Sololá	701	Sololá	4	Finca Santa Victoria	3	Marzo	2023-03-14T00:00:00	2024-11-08T09:00:00	8	Radiación solar	446
95173	7	Sololá	701	Sololá	4	Finca Santa Victoria	3	Marzo	2023-03-14T00:00:00	2024-11-08T10:00:00	2	Temperatura media	18.8
95174	7	Sololá	701	Sololá	4	Finca Santa Victoria	3	Marzo	2023-03-14T00:00:00	2024-11-08T10:00:00	4	Temperatura máxima	18.8
95175	7	Sololá	701	Sololá	4	Finca Santa Victoria	3	Marzo	2023-03-14T00:00:00	2024-11-08T10:00:00	3	Temperatura mínima	17.1
95176	7	Sololá	701	Sololá	4	Finca Santa Victoria	3	Marzo	2023-03-14T00:00:00	2024-11-08T10:00:00	5	Humedad	70
95177	7	Sololá	701	Sololá	4	Finca Santa Victoria	3	Marzo	2023-03-14T00:00:00	2024-11-08T10:00:00	6	Velocidad del viento	3.2
95178	7	Sololá	701	Sololá	4	Finca Santa Victoria	3	Marzo	2023-03-14T00:00:00	2024-11-08T10:00:00	7	Dirección del viento	3.22
95179	7	Sololá	701	Sololá	4	Finca Santa Victoria	3	Marzo	2023-03-14T00:00:00	2024-11-08T10:00:00	1	Precipitación	0
95180	7	Sololá	701	Sololá	4	Finca Santa Victoria	3	Marzo	2023-03-14T00:00:00	2024-11-08T10:00:00	8	Radiación solar	624
95181	7	Sololá	701	Sololá	4	Finca Santa Victoria	3	Marzo	2023-03-14T00:00:00	2024-11-08T11:00:00	2	Temperatura media	19.8
95182	7	Sololá	701	Sololá	4	Finca Santa Victoria	3	Marzo	2023-03-14T00:00:00	2024-11-08T11:00:00	4	Temperatura máxima	19.8
95183	7	Sololá	701	Sololá	4	Finca Santa Victoria	3	Marzo	2023-03-14T00:00:00	2024-11-08T11:00:00	3	Temperatura mínima	17.3
95184	7	Sololá	701	Sololá	4	Finca Santa Victoria	3	Marzo	2023-03-14T00:00:00	2024-11-08T11:00:00	5	Humedad	68
95185	7	Sololá	701	Sololá	4	Finca Santa Victoria	3	Marzo	2023-03-14T00:00:00	2024-11-08T11:00:00	6	Velocidad del viento	3.2
95186	7	Sololá	701	Sololá	4	Finca Santa Victoria	3	Marzo	2023-03-14T00:00:00	2024-11-08T11:00:00	7	Dirección del viento	3.22
95187	7	Sololá	701	Sololá	4	Finca Santa Victoria	3	Marzo	2023-03-14T00:00:00	2024-11-08T11:00:00	1	Precipitación	0
95188	7	Sololá	701	Sololá	4	Finca Santa Victoria	3	Marzo	2023-03-14T00:00:00	2024-11-08T11:00:00	8	Radiación solar	605
95189	7	Sololá	701	Sololá	4	Finca Santa Victoria	3	Marzo	2023-03-14T00:00:00	2024-11-08T12:00:00	2	Temperatura media	20.2
95190	7	Sololá	701	Sololá	4	Finca Santa Victoria	3	Marzo	2023-03-14T00:00:00	2024-11-08T12:00:00	4	Temperatura máxima	20.7
95191	7	Sololá	701	Sololá	4	Finca Santa Victoria	3	Marzo	2023-03-14T00:00:00	2024-11-08T12:00:00	3	Temperatura mínima	18.9
95192	7	Sololá	701	Sololá	4	Finca Santa Victoria	3	Marzo	2023-03-14T00:00:00	2024-11-08T12:00:00	5	Humedad	70
95193	7	Sololá	701	Sololá	4	Finca Santa Victoria	3	Marzo	2023-03-14T00:00:00	2024-11-08T12:00:00	6	Velocidad del viento	4.8
95194	7	Sololá	701	Sololá	4	Finca Santa Victoria	3	Marzo	2023-03-14T00:00:00	2024-11-08T12:00:00	7	Dirección del viento	4.83
95195	7	Sololá	701	Sololá	4	Finca Santa Victoria	3	Marzo	2023-03-14T00:00:00	2024-11-08T12:00:00	1	Precipitación	0
95196	7	Sololá	701	Sololá	4	Finca Santa Victoria	3	Marzo	2023-03-14T00:00:00	2024-11-08T12:00:00	8	Radiación solar	772
95197	7	Sololá	701	Sololá	4	Finca Santa Victoria	3	Marzo	2023-03-14T00:00:00	2024-11-08T13:00:00	2	Temperatura media	18.5
95198	7	Sololá	701	Sololá	4	Finca Santa Victoria	3	Marzo	2023-03-14T00:00:00	2024-11-08T13:00:00	4	Temperatura máxima	20.4
95199	7	Sololá	701	Sololá	4	Finca Santa Victoria	3	Marzo	2023-03-14T00:00:00	2024-11-08T13:00:00	3	Temperatura mínima	18.5
95200	7	Sololá	701	Sololá	4	Finca Santa Victoria	3	Marzo	2023-03-14T00:00:00	2024-11-08T13:00:00	5	Humedad	79
95201	7	Sololá	701	Sololá	4	Finca Santa Victoria	3	Marzo	2023-03-14T00:00:00	2024-11-08T13:00:00	6	Velocidad del viento	4.8
95202	7	Sololá	701	Sololá	4	Finca Santa Victoria	3	Marzo	2023-03-14T00:00:00	2024-11-08T13:00:00	7	Dirección del viento	4.83
95203	7	Sololá	701	Sololá	4	Finca Santa Victoria	3	Marzo	2023-03-14T00:00:00	2024-11-08T13:00:00	1	Precipitación	0
95204	7	Sololá	701	Sololá	4	Finca Santa Victoria	3	Marzo	2023-03-14T00:00:00	2024-11-08T13:00:00	8	Radiación solar	505
95205	7	Sololá	701	Sololá	4	Finca Santa Victoria	3	Marzo	2023-03-14T00:00:00	2024-11-08T14:00:00	2	Temperatura media	17.9
95206	7	Sololá	701	Sololá	4	Finca Santa Victoria	3	Marzo	2023-03-14T00:00:00	2024-11-08T14:00:00	4	Temperatura máxima	20.2
95207	7	Sololá	701	Sololá	4	Finca Santa Victoria	3	Marzo	2023-03-14T00:00:00	2024-11-08T14:00:00	3	Temperatura mínima	17.9
95208	7	Sololá	701	Sololá	4	Finca Santa Victoria	3	Marzo	2023-03-14T00:00:00	2024-11-08T14:00:00	5	Humedad	84
95209	7	Sololá	701	Sololá	4	Finca Santa Victoria	3	Marzo	2023-03-14T00:00:00	2024-11-08T14:00:00	6	Velocidad del viento	4.8
95210	7	Sololá	701	Sololá	4	Finca Santa Victoria	3	Marzo	2023-03-14T00:00:00	2024-11-08T14:00:00	7	Dirección del viento	4.83
95211	7	Sololá	701	Sololá	4	Finca Santa Victoria	3	Marzo	2023-03-14T00:00:00	2024-11-08T14:00:00	1	Precipitación	0
95212	7	Sololá	701	Sololá	4	Finca Santa Victoria	3	Marzo	2023-03-14T00:00:00	2024-11-08T14:00:00	8	Radiación solar	360
95213	7	Sololá	701	Sololá	4	Finca Santa Victoria	3	Marzo	2023-03-14T00:00:00	2024-11-08T15:00:00	2	Temperatura media	16.9
95214	7	Sololá	701	Sololá	4	Finca Santa Victoria	3	Marzo	2023-03-14T00:00:00	2024-11-08T15:00:00	4	Temperatura máxima	18.7
95215	7	Sololá	701	Sololá	4	Finca Santa Victoria	3	Marzo	2023-03-14T00:00:00	2024-11-08T15:00:00	3	Temperatura mínima	16.9
95216	7	Sololá	701	Sololá	4	Finca Santa Victoria	3	Marzo	2023-03-14T00:00:00	2024-11-08T15:00:00	5	Humedad	88
95217	7	Sololá	701	Sololá	4	Finca Santa Victoria	3	Marzo	2023-03-14T00:00:00	2024-11-08T15:00:00	6	Velocidad del viento	4.8
95218	7	Sololá	701	Sololá	4	Finca Santa Victoria	3	Marzo	2023-03-14T00:00:00	2024-11-08T15:00:00	7	Dirección del viento	4.83
95219	7	Sololá	701	Sololá	4	Finca Santa Victoria	3	Marzo	2023-03-14T00:00:00	2024-11-08T15:00:00	1	Precipitación	0
95220	7	Sololá	701	Sololá	4	Finca Santa Victoria	3	Marzo	2023-03-14T00:00:00	2024-11-08T15:00:00	8	Radiación solar	200
95221	7	Sololá	701	Sololá	4	Finca Santa Victoria	3	Marzo	2023-03-14T00:00:00	2024-11-08T16:00:00	2	Temperatura media	15.3
95222	7	Sololá	701	Sololá	4	Finca Santa Victoria	3	Marzo	2023-03-14T00:00:00	2024-11-08T16:00:00	4	Temperatura máxima	17.1
95223	7	Sololá	701	Sololá	4	Finca Santa Victoria	3	Marzo	2023-03-14T00:00:00	2024-11-08T16:00:00	3	Temperatura mínima	15.3
95224	7	Sololá	701	Sololá	4	Finca Santa Victoria	3	Marzo	2023-03-14T00:00:00	2024-11-08T16:00:00	5	Humedad	95
95225	7	Sololá	701	Sololá	4	Finca Santa Victoria	3	Marzo	2023-03-14T00:00:00	2024-11-08T16:00:00	6	Velocidad del viento	3.2
95226	7	Sololá	701	Sololá	4	Finca Santa Victoria	3	Marzo	2023-03-14T00:00:00	2024-11-08T16:00:00	7	Dirección del viento	3.22
95227	7	Sololá	701	Sololá	4	Finca Santa Victoria	3	Marzo	2023-03-14T00:00:00	2024-11-08T16:00:00	1	Precipitación	0.2
95228	7	Sololá	701	Sololá	4	Finca Santa Victoria	3	Marzo	2023-03-14T00:00:00	2024-11-08T16:00:00	8	Radiación solar	99
95229	7	Sololá	701	Sololá	4	Finca Santa Victoria	3	Marzo	2023-03-14T00:00:00	2024-11-08T17:00:00	2	Temperatura media	15.8
95230	7	Sololá	701	Sololá	4	Finca Santa Victoria	3	Marzo	2023-03-14T00:00:00	2024-11-08T17:00:00	4	Temperatura máxima	15.8
95231	7	Sololá	701	Sololá	4	Finca Santa Victoria	3	Marzo	2023-03-14T00:00:00	2024-11-08T17:00:00	3	Temperatura mínima	14.9
95232	7	Sololá	701	Sololá	4	Finca Santa Victoria	3	Marzo	2023-03-14T00:00:00	2024-11-08T17:00:00	5	Humedad	93
95233	7	Sololá	701	Sololá	4	Finca Santa Victoria	3	Marzo	2023-03-14T00:00:00	2024-11-08T17:00:00	6	Velocidad del viento	1.6
95234	7	Sololá	701	Sololá	4	Finca Santa Victoria	3	Marzo	2023-03-14T00:00:00	2024-11-08T17:00:00	7	Dirección del viento	1.61
95235	7	Sololá	701	Sololá	4	Finca Santa Victoria	3	Marzo	2023-03-14T00:00:00	2024-11-08T17:00:00	1	Precipitación	0
95236	7	Sololá	701	Sololá	4	Finca Santa Victoria	3	Marzo	2023-03-14T00:00:00	2024-11-08T17:00:00	8	Radiación solar	107
95237	7	Sololá	701	Sololá	4	Finca Santa Victoria	3	Marzo	2023-03-14T00:00:00	2024-11-08T18:00:00	2	Temperatura media	14.9
95238	7	Sololá	701	Sololá	4	Finca Santa Victoria	3	Marzo	2023-03-14T00:00:00	2024-11-08T18:00:00	4	Temperatura máxima	15.8
95239	7	Sololá	701	Sololá	4	Finca Santa Victoria	3	Marzo	2023-03-14T00:00:00	2024-11-08T18:00:00	3	Temperatura mínima	14.9
95240	7	Sololá	701	Sololá	4	Finca Santa Victoria	3	Marzo	2023-03-14T00:00:00	2024-11-08T18:00:00	5	Humedad	95
95241	7	Sololá	701	Sololá	4	Finca Santa Victoria	3	Marzo	2023-03-14T00:00:00	2024-11-08T18:00:00	6	Velocidad del viento	1.6
95242	7	Sololá	701	Sololá	4	Finca Santa Victoria	3	Marzo	2023-03-14T00:00:00	2024-11-08T18:00:00	7	Dirección del viento	1.61
95243	7	Sololá	701	Sololá	4	Finca Santa Victoria	3	Marzo	2023-03-14T00:00:00	2024-11-08T18:00:00	1	Precipitación	0
95244	7	Sololá	701	Sololá	4	Finca Santa Victoria	3	Marzo	2023-03-14T00:00:00	2024-11-08T18:00:00	8	Radiación solar	45
95245	7	Sololá	701	Sololá	4	Finca Santa Victoria	3	Marzo	2023-03-14T00:00:00	2024-11-08T19:00:00	2	Temperatura media	14.4
95246	7	Sololá	701	Sololá	4	Finca Santa Victoria	3	Marzo	2023-03-14T00:00:00	2024-11-08T19:00:00	4	Temperatura máxima	14.9
95247	7	Sololá	701	Sololá	4	Finca Santa Victoria	3	Marzo	2023-03-14T00:00:00	2024-11-08T19:00:00	3	Temperatura mínima	14.4
95248	7	Sololá	701	Sololá	4	Finca Santa Victoria	3	Marzo	2023-03-14T00:00:00	2024-11-08T19:00:00	5	Humedad	97
95249	7	Sololá	701	Sololá	4	Finca Santa Victoria	3	Marzo	2023-03-14T00:00:00	2024-11-08T19:00:00	6	Velocidad del viento	0
95250	7	Sololá	701	Sololá	4	Finca Santa Victoria	3	Marzo	2023-03-14T00:00:00	2024-11-08T19:00:00	7	Dirección del viento	0
95251	7	Sololá	701	Sololá	4	Finca Santa Victoria	3	Marzo	2023-03-14T00:00:00	2024-11-08T19:00:00	1	Precipitación	0.2
95252	7	Sololá	701	Sololá	4	Finca Santa Victoria	3	Marzo	2023-03-14T00:00:00	2024-11-08T19:00:00	8	Radiación solar	0
95253	7	Sololá	701	Sololá	4	Finca Santa Victoria	3	Marzo	2023-03-14T00:00:00	2024-11-08T20:00:00	2	Temperatura media	14.3
95254	7	Sololá	701	Sololá	4	Finca Santa Victoria	3	Marzo	2023-03-14T00:00:00	2024-11-08T20:00:00	4	Temperatura máxima	14.5
95255	7	Sololá	701	Sololá	4	Finca Santa Victoria	3	Marzo	2023-03-14T00:00:00	2024-11-08T20:00:00	3	Temperatura mínima	14.3
95256	7	Sololá	701	Sololá	4	Finca Santa Victoria	3	Marzo	2023-03-14T00:00:00	2024-11-08T20:00:00	5	Humedad	97
95257	7	Sololá	701	Sololá	4	Finca Santa Victoria	3	Marzo	2023-03-14T00:00:00	2024-11-08T20:00:00	6	Velocidad del viento	0
95258	7	Sololá	701	Sololá	4	Finca Santa Victoria	3	Marzo	2023-03-14T00:00:00	2024-11-08T20:00:00	7	Dirección del viento	0
95259	7	Sololá	701	Sololá	4	Finca Santa Victoria	3	Marzo	2023-03-14T00:00:00	2024-11-08T20:00:00	1	Precipitación	0
95260	7	Sololá	701	Sololá	4	Finca Santa Victoria	3	Marzo	2023-03-14T00:00:00	2024-11-08T20:00:00	8	Radiación solar	0
95261	7	Sololá	701	Sololá	4	Finca Santa Victoria	3	Marzo	2023-03-14T00:00:00	2024-11-08T21:00:00	2	Temperatura media	13.1
95262	7	Sololá	701	Sololá	4	Finca Santa Victoria	3	Marzo	2023-03-14T00:00:00	2024-11-08T21:00:00	4	Temperatura máxima	14.3
95263	7	Sololá	701	Sololá	4	Finca Santa Victoria	3	Marzo	2023-03-14T00:00:00	2024-11-08T21:00:00	3	Temperatura mínima	13.1
95264	7	Sololá	701	Sololá	4	Finca Santa Victoria	3	Marzo	2023-03-14T00:00:00	2024-11-08T21:00:00	5	Humedad	96
95265	7	Sololá	701	Sololá	4	Finca Santa Victoria	3	Marzo	2023-03-14T00:00:00	2024-11-08T21:00:00	6	Velocidad del viento	0
95266	7	Sololá	701	Sololá	4	Finca Santa Victoria	3	Marzo	2023-03-14T00:00:00	2024-11-08T21:00:00	7	Dirección del viento	0
95267	7	Sololá	701	Sololá	4	Finca Santa Victoria	3	Marzo	2023-03-14T00:00:00	2024-11-08T21:00:00	1	Precipitación	0.2
95268	7	Sololá	701	Sololá	4	Finca Santa Victoria	3	Marzo	2023-03-14T00:00:00	2024-11-08T21:00:00	8	Radiación solar	0
95269	7	Sololá	701	Sololá	4	Finca Santa Victoria	3	Marzo	2023-03-14T00:00:00	2024-11-08T22:00:00	2	Temperatura media	12.4
95270	7	Sololá	701	Sololá	4	Finca Santa Victoria	3	Marzo	2023-03-14T00:00:00	2024-11-08T22:00:00	4	Temperatura máxima	13.1
95271	7	Sololá	701	Sololá	4	Finca Santa Victoria	3	Marzo	2023-03-14T00:00:00	2024-11-08T22:00:00	3	Temperatura mínima	11.9
95272	7	Sololá	701	Sololá	4	Finca Santa Victoria	3	Marzo	2023-03-14T00:00:00	2024-11-08T22:00:00	5	Humedad	97
95273	7	Sololá	701	Sololá	4	Finca Santa Victoria	3	Marzo	2023-03-14T00:00:00	2024-11-08T22:00:00	6	Velocidad del viento	1.6
95274	7	Sololá	701	Sololá	4	Finca Santa Victoria	3	Marzo	2023-03-14T00:00:00	2024-11-08T22:00:00	7	Dirección del viento	1.61
95275	7	Sololá	701	Sololá	4	Finca Santa Victoria	3	Marzo	2023-03-14T00:00:00	2024-11-08T22:00:00	1	Precipitación	0
95276	7	Sololá	701	Sololá	4	Finca Santa Victoria	3	Marzo	2023-03-14T00:00:00	2024-11-08T22:00:00	8	Radiación solar	0
95277	7	Sololá	701	Sololá	4	Finca Santa Victoria	3	Marzo	2023-03-14T00:00:00	2024-11-08T23:00:00	2	Temperatura media	12.2
95278	7	Sololá	701	Sololá	4	Finca Santa Victoria	3	Marzo	2023-03-14T00:00:00	2024-11-08T23:00:00	4	Temperatura máxima	12.8
95279	7	Sololá	701	Sololá	4	Finca Santa Victoria	3	Marzo	2023-03-14T00:00:00	2024-11-08T23:00:00	3	Temperatura mínima	12.2
95280	7	Sololá	701	Sololá	4	Finca Santa Victoria	3	Marzo	2023-03-14T00:00:00	2024-11-08T23:00:00	5	Humedad	97
95281	7	Sololá	701	Sololá	4	Finca Santa Victoria	3	Marzo	2023-03-14T00:00:00	2024-11-08T23:00:00	6	Velocidad del viento	1.6
95282	7	Sololá	701	Sololá	4	Finca Santa Victoria	3	Marzo	2023-03-14T00:00:00	2024-11-08T23:00:00	7	Dirección del viento	1.61
95283	7	Sololá	701	Sololá	4	Finca Santa Victoria	3	Marzo	2023-03-14T00:00:00	2024-11-08T23:00:00	1	Precipitación	0
95284	7	Sololá	701	Sololá	4	Finca Santa Victoria	3	Marzo	2023-03-14T00:00:00	2024-11-08T23:00:00	8	Radiación solar	0
95285	7	Sololá	701	Sololá	4	Finca Santa Victoria	3	Marzo	2023-03-15T00:00:00	2024-11-08T00:00:00	2	Temperatura media	11.8
95286	7	Sololá	701	Sololá	4	Finca Santa Victoria	3	Marzo	2023-03-15T00:00:00	2024-11-08T00:00:00	4	Temperatura máxima	12.2
95287	7	Sololá	701	Sololá	4	Finca Santa Victoria	3	Marzo	2023-03-15T00:00:00	2024-11-08T00:00:00	3	Temperatura mínima	11.6
95288	7	Sololá	701	Sololá	4	Finca Santa Victoria	3	Marzo	2023-03-15T00:00:00	2024-11-08T00:00:00	5	Humedad	89
95289	7	Sololá	701	Sololá	4	Finca Santa Victoria	3	Marzo	2023-03-15T00:00:00	2024-11-08T00:00:00	6	Velocidad del viento	0
95290	7	Sololá	701	Sololá	4	Finca Santa Victoria	3	Marzo	2023-03-15T00:00:00	2024-11-08T00:00:00	7	Dirección del viento	0
95291	7	Sololá	701	Sololá	4	Finca Santa Victoria	3	Marzo	2023-03-15T00:00:00	2024-11-08T00:00:00	1	Precipitación	0
95292	7	Sololá	701	Sololá	4	Finca Santa Victoria	3	Marzo	2023-03-15T00:00:00	2024-11-08T00:00:00	8	Radiación solar	0
95293	7	Sololá	701	Sololá	4	Finca Santa Victoria	3	Marzo	2023-03-15T00:00:00	2024-11-08T01:00:00	2	Temperatura media	11.9
95294	7	Sololá	701	Sololá	4	Finca Santa Victoria	3	Marzo	2023-03-15T00:00:00	2024-11-08T01:00:00	4	Temperatura máxima	12.1
95295	7	Sololá	701	Sololá	4	Finca Santa Victoria	3	Marzo	2023-03-15T00:00:00	2024-11-08T01:00:00	3	Temperatura mínima	11.8
95296	7	Sololá	701	Sololá	4	Finca Santa Victoria	3	Marzo	2023-03-15T00:00:00	2024-11-08T01:00:00	5	Humedad	90
95297	7	Sololá	701	Sololá	4	Finca Santa Victoria	3	Marzo	2023-03-15T00:00:00	2024-11-08T01:00:00	6	Velocidad del viento	1.6
95298	7	Sololá	701	Sololá	4	Finca Santa Victoria	3	Marzo	2023-03-15T00:00:00	2024-11-08T01:00:00	7	Dirección del viento	1.61
95299	7	Sololá	701	Sololá	4	Finca Santa Victoria	3	Marzo	2023-03-15T00:00:00	2024-11-08T01:00:00	1	Precipitación	0
95300	7	Sololá	701	Sololá	4	Finca Santa Victoria	3	Marzo	2023-03-15T00:00:00	2024-11-08T01:00:00	8	Radiación solar	0
95301	7	Sololá	701	Sololá	4	Finca Santa Victoria	3	Marzo	2023-03-15T00:00:00	2024-11-08T02:00:00	2	Temperatura media	12.1
95302	7	Sololá	701	Sololá	4	Finca Santa Victoria	3	Marzo	2023-03-15T00:00:00	2024-11-08T02:00:00	4	Temperatura máxima	12.1
95303	7	Sololá	701	Sololá	4	Finca Santa Victoria	3	Marzo	2023-03-15T00:00:00	2024-11-08T02:00:00	3	Temperatura mínima	11.3
95304	7	Sololá	701	Sololá	4	Finca Santa Victoria	3	Marzo	2023-03-15T00:00:00	2024-11-08T02:00:00	5	Humedad	88
95305	7	Sololá	701	Sololá	4	Finca Santa Victoria	3	Marzo	2023-03-15T00:00:00	2024-11-08T02:00:00	6	Velocidad del viento	0
95306	7	Sololá	701	Sololá	4	Finca Santa Victoria	3	Marzo	2023-03-15T00:00:00	2024-11-08T02:00:00	7	Dirección del viento	0
95307	7	Sololá	701	Sololá	4	Finca Santa Victoria	3	Marzo	2023-03-15T00:00:00	2024-11-08T02:00:00	1	Precipitación	0
95308	7	Sololá	701	Sololá	4	Finca Santa Victoria	3	Marzo	2023-03-15T00:00:00	2024-11-08T02:00:00	8	Radiación solar	0
95309	7	Sololá	701	Sololá	4	Finca Santa Victoria	3	Marzo	2023-03-15T00:00:00	2024-11-08T03:00:00	2	Temperatura media	12.3
95310	7	Sololá	701	Sololá	4	Finca Santa Victoria	3	Marzo	2023-03-15T00:00:00	2024-11-08T03:00:00	4	Temperatura máxima	12.4
95311	7	Sololá	701	Sololá	4	Finca Santa Victoria	3	Marzo	2023-03-15T00:00:00	2024-11-08T03:00:00	3	Temperatura mínima	12.1
95312	7	Sololá	701	Sololá	4	Finca Santa Victoria	3	Marzo	2023-03-15T00:00:00	2024-11-08T03:00:00	5	Humedad	91
95313	7	Sololá	701	Sololá	4	Finca Santa Victoria	3	Marzo	2023-03-15T00:00:00	2024-11-08T03:00:00	6	Velocidad del viento	0
95314	7	Sololá	701	Sololá	4	Finca Santa Victoria	3	Marzo	2023-03-15T00:00:00	2024-11-08T03:00:00	7	Dirección del viento	0
95315	7	Sololá	701	Sololá	4	Finca Santa Victoria	3	Marzo	2023-03-15T00:00:00	2024-11-08T03:00:00	1	Precipitación	0
95316	7	Sololá	701	Sololá	4	Finca Santa Victoria	3	Marzo	2023-03-15T00:00:00	2024-11-08T03:00:00	8	Radiación solar	0
95317	7	Sololá	701	Sololá	4	Finca Santa Victoria	3	Marzo	2023-03-15T00:00:00	2024-11-08T04:00:00	2	Temperatura media	12.4
95318	7	Sololá	701	Sololá	4	Finca Santa Victoria	3	Marzo	2023-03-15T00:00:00	2024-11-08T04:00:00	4	Temperatura máxima	12.4
95319	7	Sololá	701	Sololá	4	Finca Santa Victoria	3	Marzo	2023-03-15T00:00:00	2024-11-08T04:00:00	3	Temperatura mínima	12
95320	7	Sololá	701	Sololá	4	Finca Santa Victoria	3	Marzo	2023-03-15T00:00:00	2024-11-08T04:00:00	5	Humedad	91
95321	7	Sololá	701	Sololá	4	Finca Santa Victoria	3	Marzo	2023-03-15T00:00:00	2024-11-08T04:00:00	6	Velocidad del viento	1.6
95322	7	Sololá	701	Sololá	4	Finca Santa Victoria	3	Marzo	2023-03-15T00:00:00	2024-11-08T04:00:00	7	Dirección del viento	1.61
95323	7	Sololá	701	Sololá	4	Finca Santa Victoria	3	Marzo	2023-03-15T00:00:00	2024-11-08T04:00:00	1	Precipitación	0
95324	7	Sololá	701	Sololá	4	Finca Santa Victoria	3	Marzo	2023-03-15T00:00:00	2024-11-08T04:00:00	8	Radiación solar	0
95325	7	Sololá	701	Sololá	4	Finca Santa Victoria	3	Marzo	2023-03-15T00:00:00	2024-11-08T05:00:00	2	Temperatura media	12.5
95326	7	Sololá	701	Sololá	4	Finca Santa Victoria	3	Marzo	2023-03-15T00:00:00	2024-11-08T05:00:00	4	Temperatura máxima	12.6
95327	7	Sololá	701	Sololá	4	Finca Santa Victoria	3	Marzo	2023-03-15T00:00:00	2024-11-08T05:00:00	3	Temperatura mínima	12.4
95328	7	Sololá	701	Sololá	4	Finca Santa Victoria	3	Marzo	2023-03-15T00:00:00	2024-11-08T05:00:00	5	Humedad	89
95329	7	Sololá	701	Sololá	4	Finca Santa Victoria	3	Marzo	2023-03-15T00:00:00	2024-11-08T05:00:00	6	Velocidad del viento	1.6
95330	7	Sololá	701	Sololá	4	Finca Santa Victoria	3	Marzo	2023-03-15T00:00:00	2024-11-08T05:00:00	7	Dirección del viento	1.61
95331	7	Sololá	701	Sololá	4	Finca Santa Victoria	3	Marzo	2023-03-15T00:00:00	2024-11-08T05:00:00	1	Precipitación	0
95332	7	Sololá	701	Sololá	4	Finca Santa Victoria	3	Marzo	2023-03-15T00:00:00	2024-11-08T05:00:00	8	Radiación solar	0
95333	7	Sololá	701	Sololá	4	Finca Santa Victoria	3	Marzo	2023-03-15T00:00:00	2024-11-08T06:00:00	2	Temperatura media	12.1
95334	7	Sololá	701	Sololá	4	Finca Santa Victoria	3	Marzo	2023-03-15T00:00:00	2024-11-08T06:00:00	4	Temperatura máxima	12.6
95335	7	Sololá	701	Sololá	4	Finca Santa Victoria	3	Marzo	2023-03-15T00:00:00	2024-11-08T06:00:00	3	Temperatura mínima	12.1
95336	7	Sololá	701	Sololá	4	Finca Santa Victoria	3	Marzo	2023-03-15T00:00:00	2024-11-08T06:00:00	5	Humedad	90
95337	7	Sololá	701	Sololá	4	Finca Santa Victoria	3	Marzo	2023-03-15T00:00:00	2024-11-08T06:00:00	6	Velocidad del viento	0
95338	7	Sololá	701	Sololá	4	Finca Santa Victoria	3	Marzo	2023-03-15T00:00:00	2024-11-08T06:00:00	7	Dirección del viento	0
95339	7	Sololá	701	Sololá	4	Finca Santa Victoria	3	Marzo	2023-03-15T00:00:00	2024-11-08T06:00:00	1	Precipitación	0
95340	7	Sololá	701	Sololá	4	Finca Santa Victoria	3	Marzo	2023-03-15T00:00:00	2024-11-08T06:00:00	8	Radiación solar	0
95341	7	Sololá	701	Sololá	4	Finca Santa Victoria	3	Marzo	2023-03-15T00:00:00	2024-11-08T07:00:00	2	Temperatura media	12.1
95342	7	Sololá	701	Sololá	4	Finca Santa Victoria	3	Marzo	2023-03-15T00:00:00	2024-11-08T07:00:00	4	Temperatura máxima	12.2
95343	7	Sololá	701	Sololá	4	Finca Santa Victoria	3	Marzo	2023-03-15T00:00:00	2024-11-08T07:00:00	3	Temperatura mínima	12
95344	7	Sololá	701	Sololá	4	Finca Santa Victoria	3	Marzo	2023-03-15T00:00:00	2024-11-08T07:00:00	5	Humedad	89
95345	7	Sololá	701	Sololá	4	Finca Santa Victoria	3	Marzo	2023-03-15T00:00:00	2024-11-08T07:00:00	6	Velocidad del viento	1.6
95346	7	Sololá	701	Sololá	4	Finca Santa Victoria	3	Marzo	2023-03-15T00:00:00	2024-11-08T07:00:00	7	Dirección del viento	1.61
95347	7	Sololá	701	Sololá	4	Finca Santa Victoria	3	Marzo	2023-03-15T00:00:00	2024-11-08T07:00:00	1	Precipitación	0
95348	7	Sololá	701	Sololá	4	Finca Santa Victoria	3	Marzo	2023-03-15T00:00:00	2024-11-08T07:00:00	8	Radiación solar	10
95349	7	Sololá	701	Sololá	4	Finca Santa Victoria	3	Marzo	2023-03-15T00:00:00	2024-11-08T08:00:00	2	Temperatura media	15.1
95350	7	Sololá	701	Sololá	4	Finca Santa Victoria	3	Marzo	2023-03-15T00:00:00	2024-11-08T08:00:00	4	Temperatura máxima	15.1
95351	7	Sololá	701	Sololá	4	Finca Santa Victoria	3	Marzo	2023-03-15T00:00:00	2024-11-08T08:00:00	3	Temperatura mínima	12
95352	7	Sololá	701	Sololá	4	Finca Santa Victoria	3	Marzo	2023-03-15T00:00:00	2024-11-08T08:00:00	5	Humedad	80
95353	7	Sololá	701	Sololá	4	Finca Santa Victoria	3	Marzo	2023-03-15T00:00:00	2024-11-08T08:00:00	6	Velocidad del viento	1.6
95354	7	Sololá	701	Sololá	4	Finca Santa Victoria	3	Marzo	2023-03-15T00:00:00	2024-11-08T08:00:00	7	Dirección del viento	1.61
95355	7	Sololá	701	Sololá	4	Finca Santa Victoria	3	Marzo	2023-03-15T00:00:00	2024-11-08T08:00:00	1	Precipitación	0
95356	7	Sololá	701	Sololá	4	Finca Santa Victoria	3	Marzo	2023-03-15T00:00:00	2024-11-08T08:00:00	8	Radiación solar	170
95357	7	Sololá	701	Sololá	4	Finca Santa Victoria	3	Marzo	2023-03-15T00:00:00	2024-11-08T09:00:00	2	Temperatura media	16.7
95358	7	Sololá	701	Sololá	4	Finca Santa Victoria	3	Marzo	2023-03-15T00:00:00	2024-11-08T09:00:00	4	Temperatura máxima	16.7
95359	7	Sololá	701	Sololá	4	Finca Santa Victoria	3	Marzo	2023-03-15T00:00:00	2024-11-08T09:00:00	3	Temperatura mínima	15.1
95360	7	Sololá	701	Sololá	4	Finca Santa Victoria	3	Marzo	2023-03-15T00:00:00	2024-11-08T09:00:00	5	Humedad	72
95361	7	Sololá	701	Sololá	4	Finca Santa Victoria	3	Marzo	2023-03-15T00:00:00	2024-11-08T09:00:00	6	Velocidad del viento	1.6
95362	7	Sololá	701	Sololá	4	Finca Santa Victoria	3	Marzo	2023-03-15T00:00:00	2024-11-08T09:00:00	7	Dirección del viento	1.61
95363	7	Sololá	701	Sololá	4	Finca Santa Victoria	3	Marzo	2023-03-15T00:00:00	2024-11-08T09:00:00	1	Precipitación	0
95364	7	Sololá	701	Sololá	4	Finca Santa Victoria	3	Marzo	2023-03-15T00:00:00	2024-11-08T09:00:00	8	Radiación solar	440
95365	7	Sololá	701	Sololá	4	Finca Santa Victoria	3	Marzo	2023-03-15T00:00:00	2024-11-08T10:00:00	2	Temperatura media	17.9
95366	7	Sololá	701	Sololá	4	Finca Santa Victoria	3	Marzo	2023-03-15T00:00:00	2024-11-08T10:00:00	4	Temperatura máxima	17.9
95367	7	Sololá	701	Sololá	4	Finca Santa Victoria	3	Marzo	2023-03-15T00:00:00	2024-11-08T10:00:00	3	Temperatura mínima	16.3
95368	7	Sololá	701	Sololá	4	Finca Santa Victoria	3	Marzo	2023-03-15T00:00:00	2024-11-08T10:00:00	5	Humedad	69
95369	7	Sololá	701	Sololá	4	Finca Santa Victoria	3	Marzo	2023-03-15T00:00:00	2024-11-08T10:00:00	6	Velocidad del viento	1.6
95370	7	Sololá	701	Sololá	4	Finca Santa Victoria	3	Marzo	2023-03-15T00:00:00	2024-11-08T10:00:00	7	Dirección del viento	1.61
95371	7	Sololá	701	Sololá	4	Finca Santa Victoria	3	Marzo	2023-03-15T00:00:00	2024-11-08T10:00:00	1	Precipitación	0
95372	7	Sololá	701	Sololá	4	Finca Santa Victoria	3	Marzo	2023-03-15T00:00:00	2024-11-08T10:00:00	8	Radiación solar	339
95373	7	Sololá	701	Sololá	4	Finca Santa Victoria	3	Marzo	2023-03-15T00:00:00	2024-11-08T11:00:00	2	Temperatura media	20.6
95374	7	Sololá	701	Sololá	4	Finca Santa Victoria	3	Marzo	2023-03-15T00:00:00	2024-11-08T11:00:00	4	Temperatura máxima	20.8
95375	7	Sololá	701	Sololá	4	Finca Santa Victoria	3	Marzo	2023-03-15T00:00:00	2024-11-08T11:00:00	3	Temperatura mínima	17.9
95376	7	Sololá	701	Sololá	4	Finca Santa Victoria	3	Marzo	2023-03-15T00:00:00	2024-11-08T11:00:00	5	Humedad	56
95377	7	Sololá	701	Sololá	4	Finca Santa Victoria	3	Marzo	2023-03-15T00:00:00	2024-11-08T11:00:00	6	Velocidad del viento	3.2
95378	7	Sololá	701	Sololá	4	Finca Santa Victoria	3	Marzo	2023-03-15T00:00:00	2024-11-08T11:00:00	7	Dirección del viento	3.22
95379	7	Sololá	701	Sololá	4	Finca Santa Victoria	3	Marzo	2023-03-15T00:00:00	2024-11-08T11:00:00	1	Precipitación	0
95380	7	Sololá	701	Sololá	4	Finca Santa Victoria	3	Marzo	2023-03-15T00:00:00	2024-11-08T11:00:00	8	Radiación solar	900
95381	7	Sololá	701	Sololá	4	Finca Santa Victoria	3	Marzo	2023-03-15T00:00:00	2024-11-08T12:00:00	2	Temperatura media	22.3
95382	7	Sololá	701	Sololá	4	Finca Santa Victoria	3	Marzo	2023-03-15T00:00:00	2024-11-08T12:00:00	4	Temperatura máxima	22.3
95383	7	Sololá	701	Sololá	4	Finca Santa Victoria	3	Marzo	2023-03-15T00:00:00	2024-11-08T12:00:00	3	Temperatura mínima	20.4
95384	7	Sololá	701	Sololá	4	Finca Santa Victoria	3	Marzo	2023-03-15T00:00:00	2024-11-08T12:00:00	5	Humedad	50
95385	7	Sololá	701	Sololá	4	Finca Santa Victoria	3	Marzo	2023-03-15T00:00:00	2024-11-08T12:00:00	6	Velocidad del viento	4.8
95386	7	Sololá	701	Sololá	4	Finca Santa Victoria	3	Marzo	2023-03-15T00:00:00	2024-11-08T12:00:00	7	Dirección del viento	4.83
95387	7	Sololá	701	Sololá	4	Finca Santa Victoria	3	Marzo	2023-03-15T00:00:00	2024-11-08T12:00:00	1	Precipitación	0
95388	7	Sololá	701	Sololá	4	Finca Santa Victoria	3	Marzo	2023-03-15T00:00:00	2024-11-08T12:00:00	8	Radiación solar	1037
95389	7	Sololá	701	Sololá	4	Finca Santa Victoria	3	Marzo	2023-03-15T00:00:00	2024-11-08T13:00:00	2	Temperatura media	22.4
95390	7	Sololá	701	Sololá	4	Finca Santa Victoria	3	Marzo	2023-03-15T00:00:00	2024-11-08T13:00:00	4	Temperatura máxima	23.3
95391	7	Sololá	701	Sololá	4	Finca Santa Victoria	3	Marzo	2023-03-15T00:00:00	2024-11-08T13:00:00	3	Temperatura mínima	22.1
95392	7	Sololá	701	Sololá	4	Finca Santa Victoria	3	Marzo	2023-03-15T00:00:00	2024-11-08T13:00:00	5	Humedad	51
95393	7	Sololá	701	Sololá	4	Finca Santa Victoria	3	Marzo	2023-03-15T00:00:00	2024-11-08T13:00:00	6	Velocidad del viento	4.8
95394	7	Sololá	701	Sololá	4	Finca Santa Victoria	3	Marzo	2023-03-15T00:00:00	2024-11-08T13:00:00	7	Dirección del viento	4.83
95395	7	Sololá	701	Sololá	4	Finca Santa Victoria	3	Marzo	2023-03-15T00:00:00	2024-11-08T13:00:00	1	Precipitación	0
95396	7	Sololá	701	Sololá	4	Finca Santa Victoria	3	Marzo	2023-03-15T00:00:00	2024-11-08T13:00:00	8	Radiación solar	908
95397	7	Sololá	701	Sololá	4	Finca Santa Victoria	3	Marzo	2023-03-15T00:00:00	2024-11-08T14:00:00	2	Temperatura media	16.9
95398	7	Sololá	701	Sololá	4	Finca Santa Victoria	3	Marzo	2023-03-15T00:00:00	2024-11-08T14:00:00	4	Temperatura máxima	22.7
95399	7	Sololá	701	Sololá	4	Finca Santa Victoria	3	Marzo	2023-03-15T00:00:00	2024-11-08T14:00:00	3	Temperatura mínima	16.9
95400	7	Sololá	701	Sololá	4	Finca Santa Victoria	3	Marzo	2023-03-15T00:00:00	2024-11-08T14:00:00	5	Humedad	86
95401	7	Sololá	701	Sololá	4	Finca Santa Victoria	3	Marzo	2023-03-15T00:00:00	2024-11-08T14:00:00	6	Velocidad del viento	3.2
95402	7	Sololá	701	Sololá	4	Finca Santa Victoria	3	Marzo	2023-03-15T00:00:00	2024-11-08T14:00:00	7	Dirección del viento	3.22
95403	7	Sololá	701	Sololá	4	Finca Santa Victoria	3	Marzo	2023-03-15T00:00:00	2024-11-08T14:00:00	1	Precipitación	0
95404	7	Sololá	701	Sololá	4	Finca Santa Victoria	3	Marzo	2023-03-15T00:00:00	2024-11-08T14:00:00	8	Radiación solar	142
95405	7	Sololá	701	Sololá	4	Finca Santa Victoria	3	Marzo	2023-03-15T00:00:00	2024-11-08T15:00:00	2	Temperatura media	15.6
95406	7	Sololá	701	Sololá	4	Finca Santa Victoria	3	Marzo	2023-03-15T00:00:00	2024-11-08T15:00:00	4	Temperatura máxima	16.9
95407	7	Sololá	701	Sololá	4	Finca Santa Victoria	3	Marzo	2023-03-15T00:00:00	2024-11-08T15:00:00	3	Temperatura mínima	15.4
95408	7	Sololá	701	Sololá	4	Finca Santa Victoria	3	Marzo	2023-03-15T00:00:00	2024-11-08T15:00:00	5	Humedad	96
95409	7	Sololá	701	Sololá	4	Finca Santa Victoria	3	Marzo	2023-03-15T00:00:00	2024-11-08T15:00:00	6	Velocidad del viento	3.2
95410	7	Sololá	701	Sololá	4	Finca Santa Victoria	3	Marzo	2023-03-15T00:00:00	2024-11-08T15:00:00	7	Dirección del viento	3.22
95411	7	Sololá	701	Sololá	4	Finca Santa Victoria	3	Marzo	2023-03-15T00:00:00	2024-11-08T15:00:00	1	Precipitación	0.2
95412	7	Sololá	701	Sololá	4	Finca Santa Victoria	3	Marzo	2023-03-15T00:00:00	2024-11-08T15:00:00	8	Radiación solar	115
95413	7	Sololá	701	Sololá	4	Finca Santa Victoria	3	Marzo	2023-03-15T00:00:00	2024-11-08T16:00:00	2	Temperatura media	15.2
95414	7	Sololá	701	Sololá	4	Finca Santa Victoria	3	Marzo	2023-03-15T00:00:00	2024-11-08T16:00:00	4	Temperatura máxima	15.5
95415	7	Sololá	701	Sololá	4	Finca Santa Victoria	3	Marzo	2023-03-15T00:00:00	2024-11-08T16:00:00	3	Temperatura mínima	15.2
95416	7	Sololá	701	Sololá	4	Finca Santa Victoria	3	Marzo	2023-03-15T00:00:00	2024-11-08T16:00:00	5	Humedad	94
95417	7	Sololá	701	Sololá	4	Finca Santa Victoria	3	Marzo	2023-03-15T00:00:00	2024-11-08T16:00:00	6	Velocidad del viento	1.6
95418	7	Sololá	701	Sololá	4	Finca Santa Victoria	3	Marzo	2023-03-15T00:00:00	2024-11-08T16:00:00	7	Dirección del viento	1.61
95419	7	Sololá	701	Sololá	4	Finca Santa Victoria	3	Marzo	2023-03-15T00:00:00	2024-11-08T16:00:00	1	Precipitación	0.2
95420	7	Sololá	701	Sololá	4	Finca Santa Victoria	3	Marzo	2023-03-15T00:00:00	2024-11-08T16:00:00	8	Radiación solar	81
95421	7	Sololá	701	Sololá	4	Finca Santa Victoria	3	Marzo	2023-03-15T00:00:00	2024-11-08T17:00:00	2	Temperatura media	14.2
95422	7	Sololá	701	Sololá	4	Finca Santa Victoria	3	Marzo	2023-03-15T00:00:00	2024-11-08T17:00:00	4	Temperatura máxima	15.2
95423	7	Sololá	701	Sololá	4	Finca Santa Victoria	3	Marzo	2023-03-15T00:00:00	2024-11-08T17:00:00	3	Temperatura mínima	14.2
95424	7	Sololá	701	Sololá	4	Finca Santa Victoria	3	Marzo	2023-03-15T00:00:00	2024-11-08T17:00:00	5	Humedad	94
95425	7	Sololá	701	Sololá	4	Finca Santa Victoria	3	Marzo	2023-03-15T00:00:00	2024-11-08T17:00:00	6	Velocidad del viento	1.6
95426	7	Sololá	701	Sololá	4	Finca Santa Victoria	3	Marzo	2023-03-15T00:00:00	2024-11-08T17:00:00	7	Dirección del viento	1.61
95427	7	Sololá	701	Sololá	4	Finca Santa Victoria	3	Marzo	2023-03-15T00:00:00	2024-11-08T17:00:00	1	Precipitación	2.2
95428	7	Sololá	701	Sololá	4	Finca Santa Victoria	3	Marzo	2023-03-15T00:00:00	2024-11-08T17:00:00	8	Radiación solar	15
95429	7	Sololá	701	Sololá	4	Finca Santa Victoria	3	Marzo	2023-03-15T00:00:00	2024-11-08T18:00:00	2	Temperatura media	13.1
95430	7	Sololá	701	Sololá	4	Finca Santa Victoria	3	Marzo	2023-03-15T00:00:00	2024-11-08T18:00:00	4	Temperatura máxima	14.2
95431	7	Sololá	701	Sololá	4	Finca Santa Victoria	3	Marzo	2023-03-15T00:00:00	2024-11-08T18:00:00	3	Temperatura mínima	12.9
95432	7	Sololá	701	Sololá	4	Finca Santa Victoria	3	Marzo	2023-03-15T00:00:00	2024-11-08T18:00:00	5	Humedad	92
95433	7	Sololá	701	Sololá	4	Finca Santa Victoria	3	Marzo	2023-03-15T00:00:00	2024-11-08T18:00:00	6	Velocidad del viento	1.6
95434	7	Sololá	701	Sololá	4	Finca Santa Victoria	3	Marzo	2023-03-15T00:00:00	2024-11-08T18:00:00	7	Dirección del viento	1.61
95435	7	Sololá	701	Sololá	4	Finca Santa Victoria	3	Marzo	2023-03-15T00:00:00	2024-11-08T18:00:00	1	Precipitación	1.2
95436	7	Sololá	701	Sololá	4	Finca Santa Victoria	3	Marzo	2023-03-15T00:00:00	2024-11-08T18:00:00	8	Radiación solar	11
95437	7	Sololá	701	Sololá	4	Finca Santa Victoria	3	Marzo	2023-03-15T00:00:00	2024-11-08T19:00:00	2	Temperatura media	12.4
95438	7	Sololá	701	Sololá	4	Finca Santa Victoria	3	Marzo	2023-03-15T00:00:00	2024-11-08T19:00:00	4	Temperatura máxima	13.1
95439	7	Sololá	701	Sololá	4	Finca Santa Victoria	3	Marzo	2023-03-15T00:00:00	2024-11-08T19:00:00	3	Temperatura mínima	12.4
95440	7	Sololá	701	Sololá	4	Finca Santa Victoria	3	Marzo	2023-03-15T00:00:00	2024-11-08T19:00:00	5	Humedad	93
95441	7	Sololá	701	Sololá	4	Finca Santa Victoria	3	Marzo	2023-03-15T00:00:00	2024-11-08T19:00:00	6	Velocidad del viento	1.6
95442	7	Sololá	701	Sololá	4	Finca Santa Victoria	3	Marzo	2023-03-15T00:00:00	2024-11-08T19:00:00	7	Dirección del viento	1.61
95443	7	Sololá	701	Sololá	4	Finca Santa Victoria	3	Marzo	2023-03-15T00:00:00	2024-11-08T19:00:00	1	Precipitación	0.4
95444	7	Sololá	701	Sololá	4	Finca Santa Victoria	3	Marzo	2023-03-15T00:00:00	2024-11-08T19:00:00	8	Radiación solar	0
95445	7	Sololá	701	Sololá	4	Finca Santa Victoria	3	Marzo	2023-03-15T00:00:00	2024-11-08T20:00:00	2	Temperatura media	11.7
95446	7	Sololá	701	Sololá	4	Finca Santa Victoria	3	Marzo	2023-03-15T00:00:00	2024-11-08T20:00:00	4	Temperatura máxima	12.4
95447	7	Sololá	701	Sololá	4	Finca Santa Victoria	3	Marzo	2023-03-15T00:00:00	2024-11-08T20:00:00	3	Temperatura mínima	11.6
95448	7	Sololá	701	Sololá	4	Finca Santa Victoria	3	Marzo	2023-03-15T00:00:00	2024-11-08T20:00:00	5	Humedad	92
95449	7	Sololá	701	Sololá	4	Finca Santa Victoria	3	Marzo	2023-03-15T00:00:00	2024-11-08T20:00:00	6	Velocidad del viento	1.6
95450	7	Sololá	701	Sololá	4	Finca Santa Victoria	3	Marzo	2023-03-15T00:00:00	2024-11-08T20:00:00	7	Dirección del viento	1.61
95451	7	Sololá	701	Sololá	4	Finca Santa Victoria	3	Marzo	2023-03-15T00:00:00	2024-11-08T20:00:00	1	Precipitación	0
95452	7	Sololá	701	Sololá	4	Finca Santa Victoria	3	Marzo	2023-03-15T00:00:00	2024-11-08T20:00:00	8	Radiación solar	0
95453	7	Sololá	701	Sololá	4	Finca Santa Victoria	3	Marzo	2023-03-15T00:00:00	2024-11-08T21:00:00	2	Temperatura media	12.2
95454	7	Sololá	701	Sololá	4	Finca Santa Victoria	3	Marzo	2023-03-15T00:00:00	2024-11-08T21:00:00	4	Temperatura máxima	12.3
95455	7	Sololá	701	Sololá	4	Finca Santa Victoria	3	Marzo	2023-03-15T00:00:00	2024-11-08T21:00:00	3	Temperatura mínima	11.7
95456	7	Sololá	701	Sololá	4	Finca Santa Victoria	3	Marzo	2023-03-15T00:00:00	2024-11-08T21:00:00	5	Humedad	89
95457	7	Sololá	701	Sololá	4	Finca Santa Victoria	3	Marzo	2023-03-15T00:00:00	2024-11-08T21:00:00	6	Velocidad del viento	3.2
95458	7	Sololá	701	Sololá	4	Finca Santa Victoria	3	Marzo	2023-03-15T00:00:00	2024-11-08T21:00:00	7	Dirección del viento	3.22
95459	7	Sololá	701	Sololá	4	Finca Santa Victoria	3	Marzo	2023-03-15T00:00:00	2024-11-08T21:00:00	1	Precipitación	0
95460	7	Sololá	701	Sololá	4	Finca Santa Victoria	3	Marzo	2023-03-15T00:00:00	2024-11-08T21:00:00	8	Radiación solar	0
95461	7	Sololá	701	Sololá	4	Finca Santa Victoria	3	Marzo	2023-03-15T00:00:00	2024-11-08T22:00:00	2	Temperatura media	12.3
95462	7	Sololá	701	Sololá	4	Finca Santa Victoria	3	Marzo	2023-03-15T00:00:00	2024-11-08T22:00:00	4	Temperatura máxima	12.3
95463	7	Sololá	701	Sololá	4	Finca Santa Victoria	3	Marzo	2023-03-15T00:00:00	2024-11-08T22:00:00	3	Temperatura mínima	12.1
95464	7	Sololá	701	Sololá	4	Finca Santa Victoria	3	Marzo	2023-03-15T00:00:00	2024-11-08T22:00:00	5	Humedad	88
95465	7	Sololá	701	Sololá	4	Finca Santa Victoria	3	Marzo	2023-03-15T00:00:00	2024-11-08T22:00:00	6	Velocidad del viento	3.2
95466	7	Sololá	701	Sololá	4	Finca Santa Victoria	3	Marzo	2023-03-15T00:00:00	2024-11-08T22:00:00	7	Dirección del viento	3.22
95467	7	Sololá	701	Sololá	4	Finca Santa Victoria	3	Marzo	2023-03-15T00:00:00	2024-11-08T22:00:00	1	Precipitación	0
95468	7	Sololá	701	Sololá	4	Finca Santa Victoria	3	Marzo	2023-03-15T00:00:00	2024-11-08T22:00:00	8	Radiación solar	0
95469	7	Sololá	701	Sololá	4	Finca Santa Victoria	3	Marzo	2023-03-15T00:00:00	2024-11-08T23:00:00	2	Temperatura media	11.7
95470	7	Sololá	701	Sololá	4	Finca Santa Victoria	3	Marzo	2023-03-15T00:00:00	2024-11-08T23:00:00	4	Temperatura máxima	12.3
95471	7	Sololá	701	Sololá	4	Finca Santa Victoria	3	Marzo	2023-03-15T00:00:00	2024-11-08T23:00:00	3	Temperatura mínima	11.7
95472	7	Sololá	701	Sololá	4	Finca Santa Victoria	3	Marzo	2023-03-15T00:00:00	2024-11-08T23:00:00	5	Humedad	88
95473	7	Sololá	701	Sololá	4	Finca Santa Victoria	3	Marzo	2023-03-15T00:00:00	2024-11-08T23:00:00	6	Velocidad del viento	1.6
95474	7	Sololá	701	Sololá	4	Finca Santa Victoria	3	Marzo	2023-03-15T00:00:00	2024-11-08T23:00:00	7	Dirección del viento	1.61
95475	7	Sololá	701	Sololá	4	Finca Santa Victoria	3	Marzo	2023-03-15T00:00:00	2024-11-08T23:00:00	1	Precipitación	0
95476	7	Sololá	701	Sololá	4	Finca Santa Victoria	3	Marzo	2023-03-15T00:00:00	2024-11-08T23:00:00	8	Radiación solar	0
95477	7	Sololá	701	Sololá	4	Finca Santa Victoria	3	Marzo	2023-03-16T00:00:00	2024-11-08T00:00:00	2	Temperatura media	11.4
95478	7	Sololá	701	Sololá	4	Finca Santa Victoria	3	Marzo	2023-03-16T00:00:00	2024-11-08T00:00:00	4	Temperatura máxima	11.8
95479	7	Sololá	701	Sololá	4	Finca Santa Victoria	3	Marzo	2023-03-16T00:00:00	2024-11-08T00:00:00	3	Temperatura mínima	11.4
95480	7	Sololá	701	Sololá	4	Finca Santa Victoria	3	Marzo	2023-03-16T00:00:00	2024-11-08T00:00:00	5	Humedad	89
95481	7	Sololá	701	Sololá	4	Finca Santa Victoria	3	Marzo	2023-03-16T00:00:00	2024-11-08T00:00:00	6	Velocidad del viento	1.6
95482	7	Sololá	701	Sololá	4	Finca Santa Victoria	3	Marzo	2023-03-16T00:00:00	2024-11-08T00:00:00	7	Dirección del viento	1.61
95483	7	Sololá	701	Sololá	4	Finca Santa Victoria	3	Marzo	2023-03-16T00:00:00	2024-11-08T00:00:00	1	Precipitación	0
95484	7	Sololá	701	Sololá	4	Finca Santa Victoria	3	Marzo	2023-03-16T00:00:00	2024-11-08T00:00:00	8	Radiación solar	0
95485	7	Sololá	701	Sololá	4	Finca Santa Victoria	3	Marzo	2023-03-16T00:00:00	2024-11-08T01:00:00	2	Temperatura media	11.4
95486	7	Sololá	701	Sololá	4	Finca Santa Victoria	3	Marzo	2023-03-16T00:00:00	2024-11-08T01:00:00	4	Temperatura máxima	11.6
95487	7	Sololá	701	Sololá	4	Finca Santa Victoria	3	Marzo	2023-03-16T00:00:00	2024-11-08T01:00:00	3	Temperatura mínima	11.3
95488	7	Sololá	701	Sololá	4	Finca Santa Victoria	3	Marzo	2023-03-16T00:00:00	2024-11-08T01:00:00	5	Humedad	89
95489	7	Sololá	701	Sololá	4	Finca Santa Victoria	3	Marzo	2023-03-16T00:00:00	2024-11-08T01:00:00	6	Velocidad del viento	3.2
95490	7	Sololá	701	Sololá	4	Finca Santa Victoria	3	Marzo	2023-03-16T00:00:00	2024-11-08T01:00:00	7	Dirección del viento	3.22
95491	7	Sololá	701	Sololá	4	Finca Santa Victoria	3	Marzo	2023-03-16T00:00:00	2024-11-08T01:00:00	1	Precipitación	0
95492	7	Sololá	701	Sololá	4	Finca Santa Victoria	3	Marzo	2023-03-16T00:00:00	2024-11-08T01:00:00	8	Radiación solar	0
95493	7	Sololá	701	Sololá	4	Finca Santa Victoria	3	Marzo	2023-03-16T00:00:00	2024-11-08T02:00:00	2	Temperatura media	10.9
95494	7	Sololá	701	Sololá	4	Finca Santa Victoria	3	Marzo	2023-03-16T00:00:00	2024-11-08T02:00:00	4	Temperatura máxima	11.5
95495	7	Sololá	701	Sololá	4	Finca Santa Victoria	3	Marzo	2023-03-16T00:00:00	2024-11-08T02:00:00	3	Temperatura mínima	10.9
95496	7	Sololá	701	Sololá	4	Finca Santa Victoria	3	Marzo	2023-03-16T00:00:00	2024-11-08T02:00:00	5	Humedad	91
95497	7	Sololá	701	Sololá	4	Finca Santa Victoria	3	Marzo	2023-03-16T00:00:00	2024-11-08T02:00:00	6	Velocidad del viento	1.6
95498	7	Sololá	701	Sololá	4	Finca Santa Victoria	3	Marzo	2023-03-16T00:00:00	2024-11-08T02:00:00	7	Dirección del viento	1.61
95499	7	Sololá	701	Sololá	4	Finca Santa Victoria	3	Marzo	2023-03-16T00:00:00	2024-11-08T02:00:00	1	Precipitación	0
95500	7	Sololá	701	Sololá	4	Finca Santa Victoria	3	Marzo	2023-03-16T00:00:00	2024-11-08T02:00:00	8	Radiación solar	0
95501	7	Sololá	701	Sololá	4	Finca Santa Victoria	3	Marzo	2023-03-16T00:00:00	2024-11-08T03:00:00	2	Temperatura media	11.2
95502	7	Sololá	701	Sololá	4	Finca Santa Victoria	3	Marzo	2023-03-16T00:00:00	2024-11-08T03:00:00	4	Temperatura máxima	11.4
95503	7	Sololá	701	Sololá	4	Finca Santa Victoria	3	Marzo	2023-03-16T00:00:00	2024-11-08T03:00:00	3	Temperatura mínima	10.9
95504	7	Sololá	701	Sololá	4	Finca Santa Victoria	3	Marzo	2023-03-16T00:00:00	2024-11-08T03:00:00	5	Humedad	89
95505	7	Sololá	701	Sololá	4	Finca Santa Victoria	3	Marzo	2023-03-16T00:00:00	2024-11-08T03:00:00	6	Velocidad del viento	1.6
95506	7	Sololá	701	Sololá	4	Finca Santa Victoria	3	Marzo	2023-03-16T00:00:00	2024-11-08T03:00:00	7	Dirección del viento	1.61
95507	7	Sololá	701	Sololá	4	Finca Santa Victoria	3	Marzo	2023-03-16T00:00:00	2024-11-08T03:00:00	1	Precipitación	0
95508	7	Sololá	701	Sololá	4	Finca Santa Victoria	3	Marzo	2023-03-16T00:00:00	2024-11-08T03:00:00	8	Radiación solar	0
95509	7	Sololá	701	Sololá	4	Finca Santa Victoria	3	Marzo	2023-03-16T00:00:00	2024-11-08T04:00:00	2	Temperatura media	11.2
95510	7	Sololá	701	Sololá	4	Finca Santa Victoria	3	Marzo	2023-03-16T00:00:00	2024-11-08T04:00:00	4	Temperatura máxima	11.3
95511	7	Sololá	701	Sololá	4	Finca Santa Victoria	3	Marzo	2023-03-16T00:00:00	2024-11-08T04:00:00	3	Temperatura mínima	11.2
95512	7	Sololá	701	Sololá	4	Finca Santa Victoria	3	Marzo	2023-03-16T00:00:00	2024-11-08T04:00:00	5	Humedad	89
95513	7	Sololá	701	Sololá	4	Finca Santa Victoria	3	Marzo	2023-03-16T00:00:00	2024-11-08T04:00:00	6	Velocidad del viento	1.6
95514	7	Sololá	701	Sololá	4	Finca Santa Victoria	3	Marzo	2023-03-16T00:00:00	2024-11-08T04:00:00	7	Dirección del viento	1.61
95515	7	Sololá	701	Sololá	4	Finca Santa Victoria	3	Marzo	2023-03-16T00:00:00	2024-11-08T04:00:00	1	Precipitación	0
95516	7	Sololá	701	Sololá	4	Finca Santa Victoria	3	Marzo	2023-03-16T00:00:00	2024-11-08T04:00:00	8	Radiación solar	0
95517	7	Sololá	701	Sololá	4	Finca Santa Victoria	3	Marzo	2023-03-16T00:00:00	2024-11-08T05:00:00	2	Temperatura media	10.6
95518	7	Sololá	701	Sololá	4	Finca Santa Victoria	3	Marzo	2023-03-16T00:00:00	2024-11-08T05:00:00	4	Temperatura máxima	11.2
95519	7	Sololá	701	Sololá	4	Finca Santa Victoria	3	Marzo	2023-03-16T00:00:00	2024-11-08T05:00:00	3	Temperatura mínima	10.6
95520	7	Sololá	701	Sololá	4	Finca Santa Victoria	3	Marzo	2023-03-16T00:00:00	2024-11-08T05:00:00	5	Humedad	91
95521	7	Sololá	701	Sololá	4	Finca Santa Victoria	3	Marzo	2023-03-16T00:00:00	2024-11-08T05:00:00	6	Velocidad del viento	1.6
95522	7	Sololá	701	Sololá	4	Finca Santa Victoria	3	Marzo	2023-03-16T00:00:00	2024-11-08T05:00:00	7	Dirección del viento	1.61
95523	7	Sololá	701	Sololá	4	Finca Santa Victoria	3	Marzo	2023-03-16T00:00:00	2024-11-08T05:00:00	1	Precipitación	0
95524	7	Sololá	701	Sololá	4	Finca Santa Victoria	3	Marzo	2023-03-16T00:00:00	2024-11-08T05:00:00	8	Radiación solar	0
95525	7	Sololá	701	Sololá	4	Finca Santa Victoria	3	Marzo	2023-03-16T00:00:00	2024-11-08T06:00:00	2	Temperatura media	11.1
95526	7	Sololá	701	Sololá	4	Finca Santa Victoria	3	Marzo	2023-03-16T00:00:00	2024-11-08T06:00:00	4	Temperatura máxima	11.1
95527	7	Sololá	701	Sololá	4	Finca Santa Victoria	3	Marzo	2023-03-16T00:00:00	2024-11-08T06:00:00	3	Temperatura mínima	10.4
95528	7	Sololá	701	Sololá	4	Finca Santa Victoria	3	Marzo	2023-03-16T00:00:00	2024-11-08T06:00:00	5	Humedad	91
95529	7	Sololá	701	Sololá	4	Finca Santa Victoria	3	Marzo	2023-03-16T00:00:00	2024-11-08T06:00:00	6	Velocidad del viento	1.6
95530	7	Sololá	701	Sololá	4	Finca Santa Victoria	3	Marzo	2023-03-16T00:00:00	2024-11-08T06:00:00	7	Dirección del viento	1.61
95531	7	Sololá	701	Sololá	4	Finca Santa Victoria	3	Marzo	2023-03-16T00:00:00	2024-11-08T06:00:00	1	Precipitación	0
95532	7	Sololá	701	Sololá	4	Finca Santa Victoria	3	Marzo	2023-03-16T00:00:00	2024-11-08T06:00:00	8	Radiación solar	0
95533	7	Sololá	701	Sololá	4	Finca Santa Victoria	3	Marzo	2023-03-16T00:00:00	2024-11-08T07:00:00	2	Temperatura media	11.8
95534	7	Sololá	701	Sololá	4	Finca Santa Victoria	3	Marzo	2023-03-16T00:00:00	2024-11-08T07:00:00	4	Temperatura máxima	11.8
95535	7	Sololá	701	Sololá	4	Finca Santa Victoria	3	Marzo	2023-03-16T00:00:00	2024-11-08T07:00:00	3	Temperatura mínima	11.1
95536	7	Sololá	701	Sololá	4	Finca Santa Victoria	3	Marzo	2023-03-16T00:00:00	2024-11-08T07:00:00	5	Humedad	88
95537	7	Sololá	701	Sololá	4	Finca Santa Victoria	3	Marzo	2023-03-16T00:00:00	2024-11-08T07:00:00	6	Velocidad del viento	3.2
95538	7	Sololá	701	Sololá	4	Finca Santa Victoria	3	Marzo	2023-03-16T00:00:00	2024-11-08T07:00:00	7	Dirección del viento	3.22
95539	7	Sololá	701	Sololá	4	Finca Santa Victoria	3	Marzo	2023-03-16T00:00:00	2024-11-08T07:00:00	1	Precipitación	0
95540	7	Sololá	701	Sololá	4	Finca Santa Victoria	3	Marzo	2023-03-16T00:00:00	2024-11-08T07:00:00	8	Radiación solar	11
95541	7	Sololá	701	Sololá	4	Finca Santa Victoria	3	Marzo	2023-03-16T00:00:00	2024-11-08T08:00:00	2	Temperatura media	14.3
95542	7	Sololá	701	Sololá	4	Finca Santa Victoria	3	Marzo	2023-03-16T00:00:00	2024-11-08T08:00:00	4	Temperatura máxima	14.3
95543	7	Sololá	701	Sololá	4	Finca Santa Victoria	3	Marzo	2023-03-16T00:00:00	2024-11-08T08:00:00	3	Temperatura mínima	11.8
95544	7	Sololá	701	Sololá	4	Finca Santa Victoria	3	Marzo	2023-03-16T00:00:00	2024-11-08T08:00:00	5	Humedad	80
95545	7	Sololá	701	Sololá	4	Finca Santa Victoria	3	Marzo	2023-03-16T00:00:00	2024-11-08T08:00:00	6	Velocidad del viento	3.2
95546	7	Sololá	701	Sololá	4	Finca Santa Victoria	3	Marzo	2023-03-16T00:00:00	2024-11-08T08:00:00	7	Dirección del viento	3.22
95547	7	Sololá	701	Sololá	4	Finca Santa Victoria	3	Marzo	2023-03-16T00:00:00	2024-11-08T08:00:00	1	Precipitación	0
95548	7	Sololá	701	Sololá	4	Finca Santa Victoria	3	Marzo	2023-03-16T00:00:00	2024-11-08T08:00:00	8	Radiación solar	188
95549	7	Sololá	701	Sololá	4	Finca Santa Victoria	3	Marzo	2023-03-16T00:00:00	2024-11-08T09:00:00	2	Temperatura media	16.7
95550	7	Sololá	701	Sololá	4	Finca Santa Victoria	3	Marzo	2023-03-16T00:00:00	2024-11-08T09:00:00	4	Temperatura máxima	16.7
95551	7	Sololá	701	Sololá	4	Finca Santa Victoria	3	Marzo	2023-03-16T00:00:00	2024-11-08T09:00:00	3	Temperatura mínima	14.3
95552	7	Sololá	701	Sololá	4	Finca Santa Victoria	3	Marzo	2023-03-16T00:00:00	2024-11-08T09:00:00	5	Humedad	71
95553	7	Sololá	701	Sololá	4	Finca Santa Victoria	3	Marzo	2023-03-16T00:00:00	2024-11-08T09:00:00	6	Velocidad del viento	3.2
95554	7	Sololá	701	Sololá	4	Finca Santa Victoria	3	Marzo	2023-03-16T00:00:00	2024-11-08T09:00:00	7	Dirección del viento	3.22
95555	7	Sololá	701	Sololá	4	Finca Santa Victoria	3	Marzo	2023-03-16T00:00:00	2024-11-08T09:00:00	1	Precipitación	0
95556	7	Sololá	701	Sololá	4	Finca Santa Victoria	3	Marzo	2023-03-16T00:00:00	2024-11-08T09:00:00	8	Radiación solar	497
95557	7	Sololá	701	Sololá	4	Finca Santa Victoria	3	Marzo	2023-03-16T00:00:00	2024-11-08T10:00:00	2	Temperatura media	17.7
95558	7	Sololá	701	Sololá	4	Finca Santa Victoria	3	Marzo	2023-03-16T00:00:00	2024-11-08T10:00:00	4	Temperatura máxima	18.5
95559	7	Sololá	701	Sololá	4	Finca Santa Victoria	3	Marzo	2023-03-16T00:00:00	2024-11-08T10:00:00	3	Temperatura mínima	16.7
95560	7	Sololá	701	Sololá	4	Finca Santa Victoria	3	Marzo	2023-03-16T00:00:00	2024-11-08T10:00:00	5	Humedad	69
95561	7	Sololá	701	Sololá	4	Finca Santa Victoria	3	Marzo	2023-03-16T00:00:00	2024-11-08T10:00:00	6	Velocidad del viento	3.2
95562	7	Sololá	701	Sololá	4	Finca Santa Victoria	3	Marzo	2023-03-16T00:00:00	2024-11-08T10:00:00	7	Dirección del viento	3.22
95563	7	Sololá	701	Sololá	4	Finca Santa Victoria	3	Marzo	2023-03-16T00:00:00	2024-11-08T10:00:00	1	Precipitación	0
95564	7	Sololá	701	Sololá	4	Finca Santa Victoria	3	Marzo	2023-03-16T00:00:00	2024-11-08T10:00:00	8	Radiación solar	739
95565	7	Sololá	701	Sololá	4	Finca Santa Victoria	3	Marzo	2023-03-16T00:00:00	2024-11-08T11:00:00	2	Temperatura media	17.3
95566	7	Sololá	701	Sololá	4	Finca Santa Victoria	3	Marzo	2023-03-16T00:00:00	2024-11-08T11:00:00	4	Temperatura máxima	17.7
95567	7	Sololá	701	Sololá	4	Finca Santa Victoria	3	Marzo	2023-03-16T00:00:00	2024-11-08T11:00:00	3	Temperatura mínima	15.8
95568	7	Sololá	701	Sololá	4	Finca Santa Victoria	3	Marzo	2023-03-16T00:00:00	2024-11-08T11:00:00	5	Humedad	78
95569	7	Sololá	701	Sololá	4	Finca Santa Victoria	3	Marzo	2023-03-16T00:00:00	2024-11-08T11:00:00	6	Velocidad del viento	3.2
95570	7	Sololá	701	Sololá	4	Finca Santa Victoria	3	Marzo	2023-03-16T00:00:00	2024-11-08T11:00:00	7	Dirección del viento	3.22
95571	7	Sololá	701	Sololá	4	Finca Santa Victoria	3	Marzo	2023-03-16T00:00:00	2024-11-08T11:00:00	1	Precipitación	0
95572	7	Sololá	701	Sololá	4	Finca Santa Victoria	3	Marzo	2023-03-16T00:00:00	2024-11-08T11:00:00	8	Radiación solar	626
95573	7	Sololá	701	Sololá	4	Finca Santa Victoria	3	Marzo	2023-03-16T00:00:00	2024-11-08T12:00:00	2	Temperatura media	17.7
95574	7	Sololá	701	Sololá	4	Finca Santa Victoria	3	Marzo	2023-03-16T00:00:00	2024-11-08T12:00:00	4	Temperatura máxima	18.1
95575	7	Sololá	701	Sololá	4	Finca Santa Victoria	3	Marzo	2023-03-16T00:00:00	2024-11-08T12:00:00	3	Temperatura mínima	17.3
95576	7	Sololá	701	Sololá	4	Finca Santa Victoria	3	Marzo	2023-03-16T00:00:00	2024-11-08T12:00:00	5	Humedad	79
95577	7	Sololá	701	Sololá	4	Finca Santa Victoria	3	Marzo	2023-03-16T00:00:00	2024-11-08T12:00:00	6	Velocidad del viento	4.8
95578	7	Sololá	701	Sololá	4	Finca Santa Victoria	3	Marzo	2023-03-16T00:00:00	2024-11-08T12:00:00	7	Dirección del viento	4.83
95579	7	Sololá	701	Sololá	4	Finca Santa Victoria	3	Marzo	2023-03-16T00:00:00	2024-11-08T12:00:00	1	Precipitación	0
95580	7	Sololá	701	Sololá	4	Finca Santa Victoria	3	Marzo	2023-03-16T00:00:00	2024-11-08T12:00:00	8	Radiación solar	1000
95581	7	Sololá	701	Sololá	4	Finca Santa Victoria	3	Marzo	2023-03-16T00:00:00	2024-11-08T13:00:00	2	Temperatura media	17.3
95582	7	Sololá	701	Sololá	4	Finca Santa Victoria	3	Marzo	2023-03-16T00:00:00	2024-11-08T13:00:00	4	Temperatura máxima	17.9
95583	7	Sololá	701	Sololá	4	Finca Santa Victoria	3	Marzo	2023-03-16T00:00:00	2024-11-08T13:00:00	3	Temperatura mínima	17.1
95584	7	Sololá	701	Sololá	4	Finca Santa Victoria	3	Marzo	2023-03-16T00:00:00	2024-11-08T13:00:00	5	Humedad	81
95585	7	Sololá	701	Sololá	4	Finca Santa Victoria	3	Marzo	2023-03-16T00:00:00	2024-11-08T13:00:00	6	Velocidad del viento	4.8
95586	7	Sololá	701	Sololá	4	Finca Santa Victoria	3	Marzo	2023-03-16T00:00:00	2024-11-08T13:00:00	7	Dirección del viento	4.83
95587	7	Sololá	701	Sololá	4	Finca Santa Victoria	3	Marzo	2023-03-16T00:00:00	2024-11-08T13:00:00	1	Precipitación	0
95588	7	Sololá	701	Sololá	4	Finca Santa Victoria	3	Marzo	2023-03-16T00:00:00	2024-11-08T13:00:00	8	Radiación solar	638
95589	7	Sololá	701	Sololá	4	Finca Santa Victoria	3	Marzo	2023-03-16T00:00:00	2024-11-08T14:00:00	2	Temperatura media	16.9
95590	7	Sololá	701	Sololá	4	Finca Santa Victoria	3	Marzo	2023-03-16T00:00:00	2024-11-08T14:00:00	4	Temperatura máxima	17.8
95591	7	Sololá	701	Sololá	4	Finca Santa Victoria	3	Marzo	2023-03-16T00:00:00	2024-11-08T14:00:00	3	Temperatura mínima	16.7
95592	7	Sololá	701	Sololá	4	Finca Santa Victoria	3	Marzo	2023-03-16T00:00:00	2024-11-08T14:00:00	5	Humedad	83
95593	7	Sololá	701	Sololá	4	Finca Santa Victoria	3	Marzo	2023-03-16T00:00:00	2024-11-08T14:00:00	6	Velocidad del viento	4.8
95594	7	Sololá	701	Sololá	4	Finca Santa Victoria	3	Marzo	2023-03-16T00:00:00	2024-11-08T14:00:00	7	Dirección del viento	4.83
95595	7	Sololá	701	Sololá	4	Finca Santa Victoria	3	Marzo	2023-03-16T00:00:00	2024-11-08T14:00:00	1	Precipitación	0
95596	7	Sololá	701	Sololá	4	Finca Santa Victoria	3	Marzo	2023-03-16T00:00:00	2024-11-08T14:00:00	8	Radiación solar	311
95597	7	Sololá	701	Sololá	4	Finca Santa Victoria	3	Marzo	2023-03-16T00:00:00	2024-11-08T15:00:00	2	Temperatura media	15.1
95598	7	Sololá	701	Sololá	4	Finca Santa Victoria	3	Marzo	2023-03-16T00:00:00	2024-11-08T15:00:00	4	Temperatura máxima	17.1
95599	7	Sololá	701	Sololá	4	Finca Santa Victoria	3	Marzo	2023-03-16T00:00:00	2024-11-08T15:00:00	3	Temperatura mínima	15.1
95600	7	Sololá	701	Sololá	4	Finca Santa Victoria	3	Marzo	2023-03-16T00:00:00	2024-11-08T15:00:00	5	Humedad	91
95601	7	Sololá	701	Sololá	4	Finca Santa Victoria	3	Marzo	2023-03-16T00:00:00	2024-11-08T15:00:00	6	Velocidad del viento	4.8
95602	7	Sololá	701	Sololá	4	Finca Santa Victoria	3	Marzo	2023-03-16T00:00:00	2024-11-08T15:00:00	7	Dirección del viento	4.83
95603	7	Sololá	701	Sololá	4	Finca Santa Victoria	3	Marzo	2023-03-16T00:00:00	2024-11-08T15:00:00	1	Precipitación	0
95604	7	Sololá	701	Sololá	4	Finca Santa Victoria	3	Marzo	2023-03-16T00:00:00	2024-11-08T15:00:00	8	Radiación solar	164
95605	7	Sololá	701	Sololá	4	Finca Santa Victoria	3	Marzo	2023-03-16T00:00:00	2024-11-08T16:00:00	2	Temperatura media	15.4
95606	7	Sololá	701	Sololá	4	Finca Santa Victoria	3	Marzo	2023-03-16T00:00:00	2024-11-08T16:00:00	4	Temperatura máxima	15.7
95607	7	Sololá	701	Sololá	4	Finca Santa Victoria	3	Marzo	2023-03-16T00:00:00	2024-11-08T16:00:00	3	Temperatura mínima	15
95608	7	Sololá	701	Sololá	4	Finca Santa Victoria	3	Marzo	2023-03-16T00:00:00	2024-11-08T16:00:00	5	Humedad	90
95609	7	Sololá	701	Sololá	4	Finca Santa Victoria	3	Marzo	2023-03-16T00:00:00	2024-11-08T16:00:00	6	Velocidad del viento	3.2
95610	7	Sololá	701	Sololá	4	Finca Santa Victoria	3	Marzo	2023-03-16T00:00:00	2024-11-08T16:00:00	7	Dirección del viento	3.22
95611	7	Sololá	701	Sololá	4	Finca Santa Victoria	3	Marzo	2023-03-16T00:00:00	2024-11-08T16:00:00	1	Precipitación	0
95612	7	Sololá	701	Sololá	4	Finca Santa Victoria	3	Marzo	2023-03-16T00:00:00	2024-11-08T16:00:00	8	Radiación solar	108
95613	7	Sololá	701	Sololá	4	Finca Santa Victoria	3	Marzo	2023-03-16T00:00:00	2024-11-08T17:00:00	2	Temperatura media	11.9
95614	7	Sololá	701	Sololá	4	Finca Santa Victoria	3	Marzo	2023-03-16T00:00:00	2024-11-08T17:00:00	4	Temperatura máxima	15.4
95615	7	Sololá	701	Sololá	4	Finca Santa Victoria	3	Marzo	2023-03-16T00:00:00	2024-11-08T17:00:00	3	Temperatura mínima	11.4
95616	7	Sololá	701	Sololá	4	Finca Santa Victoria	3	Marzo	2023-03-16T00:00:00	2024-11-08T17:00:00	5	Humedad	94
95617	7	Sololá	701	Sololá	4	Finca Santa Victoria	3	Marzo	2023-03-16T00:00:00	2024-11-08T17:00:00	6	Velocidad del viento	3.2
95618	7	Sololá	701	Sololá	4	Finca Santa Victoria	3	Marzo	2023-03-16T00:00:00	2024-11-08T17:00:00	7	Dirección del viento	3.22
95619	7	Sololá	701	Sololá	4	Finca Santa Victoria	3	Marzo	2023-03-16T00:00:00	2024-11-08T17:00:00	1	Precipitación	8.6
95620	7	Sololá	701	Sololá	4	Finca Santa Victoria	3	Marzo	2023-03-16T00:00:00	2024-11-08T17:00:00	8	Radiación solar	18
95621	7	Sololá	701	Sololá	4	Finca Santa Victoria	3	Marzo	2023-03-16T00:00:00	2024-11-08T18:00:00	2	Temperatura media	12.4
95622	7	Sololá	701	Sololá	4	Finca Santa Victoria	3	Marzo	2023-03-16T00:00:00	2024-11-08T18:00:00	4	Temperatura máxima	12.6
95623	7	Sololá	701	Sololá	4	Finca Santa Victoria	3	Marzo	2023-03-16T00:00:00	2024-11-08T18:00:00	3	Temperatura mínima	11.9
95624	7	Sololá	701	Sololá	4	Finca Santa Victoria	3	Marzo	2023-03-16T00:00:00	2024-11-08T18:00:00	5	Humedad	95
95625	7	Sololá	701	Sololá	4	Finca Santa Victoria	3	Marzo	2023-03-16T00:00:00	2024-11-08T18:00:00	6	Velocidad del viento	1.6
95626	7	Sololá	701	Sololá	4	Finca Santa Victoria	3	Marzo	2023-03-16T00:00:00	2024-11-08T18:00:00	7	Dirección del viento	1.61
95627	7	Sololá	701	Sololá	4	Finca Santa Victoria	3	Marzo	2023-03-16T00:00:00	2024-11-08T18:00:00	1	Precipitación	0.4
95628	7	Sololá	701	Sololá	4	Finca Santa Victoria	3	Marzo	2023-03-16T00:00:00	2024-11-08T18:00:00	8	Radiación solar	24
95629	7	Sololá	701	Sololá	4	Finca Santa Victoria	3	Marzo	2023-03-16T00:00:00	2024-11-08T19:00:00	2	Temperatura media	12.1
95630	7	Sololá	701	Sololá	4	Finca Santa Victoria	3	Marzo	2023-03-16T00:00:00	2024-11-08T19:00:00	4	Temperatura máxima	12.4
95631	7	Sololá	701	Sololá	4	Finca Santa Victoria	3	Marzo	2023-03-16T00:00:00	2024-11-08T19:00:00	3	Temperatura mínima	12.1
95632	7	Sololá	701	Sololá	4	Finca Santa Victoria	3	Marzo	2023-03-16T00:00:00	2024-11-08T19:00:00	5	Humedad	95
95633	7	Sololá	701	Sololá	4	Finca Santa Victoria	3	Marzo	2023-03-16T00:00:00	2024-11-08T19:00:00	6	Velocidad del viento	0
95634	7	Sololá	701	Sololá	4	Finca Santa Victoria	3	Marzo	2023-03-16T00:00:00	2024-11-08T19:00:00	7	Dirección del viento	0
95635	7	Sololá	701	Sololá	4	Finca Santa Victoria	3	Marzo	2023-03-16T00:00:00	2024-11-08T19:00:00	1	Precipitación	0.2
95636	7	Sololá	701	Sololá	4	Finca Santa Victoria	3	Marzo	2023-03-16T00:00:00	2024-11-08T19:00:00	8	Radiación solar	0
95637	7	Sololá	701	Sololá	4	Finca Santa Victoria	3	Marzo	2023-03-16T00:00:00	2024-11-08T20:00:00	2	Temperatura media	11.5
95638	7	Sololá	701	Sololá	4	Finca Santa Victoria	3	Marzo	2023-03-16T00:00:00	2024-11-08T20:00:00	4	Temperatura máxima	12.1
95639	7	Sololá	701	Sololá	4	Finca Santa Victoria	3	Marzo	2023-03-16T00:00:00	2024-11-08T20:00:00	3	Temperatura mínima	11.4
95640	7	Sololá	701	Sololá	4	Finca Santa Victoria	3	Marzo	2023-03-16T00:00:00	2024-11-08T20:00:00	5	Humedad	94
95641	7	Sololá	701	Sololá	4	Finca Santa Victoria	3	Marzo	2023-03-16T00:00:00	2024-11-08T20:00:00	6	Velocidad del viento	1.6
95642	7	Sololá	701	Sololá	4	Finca Santa Victoria	3	Marzo	2023-03-16T00:00:00	2024-11-08T20:00:00	7	Dirección del viento	1.61
95643	7	Sololá	701	Sololá	4	Finca Santa Victoria	3	Marzo	2023-03-16T00:00:00	2024-11-08T20:00:00	1	Precipitación	0
95644	7	Sololá	701	Sololá	4	Finca Santa Victoria	3	Marzo	2023-03-16T00:00:00	2024-11-08T20:00:00	8	Radiación solar	0
95645	7	Sololá	701	Sololá	4	Finca Santa Victoria	3	Marzo	2023-03-16T00:00:00	2024-11-08T21:00:00	2	Temperatura media	11.2
95646	7	Sololá	701	Sololá	4	Finca Santa Victoria	3	Marzo	2023-03-16T00:00:00	2024-11-08T21:00:00	4	Temperatura máxima	11.6
95647	7	Sololá	701	Sololá	4	Finca Santa Victoria	3	Marzo	2023-03-16T00:00:00	2024-11-08T21:00:00	3	Temperatura mínima	11.2
95648	7	Sololá	701	Sololá	4	Finca Santa Victoria	3	Marzo	2023-03-16T00:00:00	2024-11-08T21:00:00	5	Humedad	94
95649	7	Sololá	701	Sololá	4	Finca Santa Victoria	3	Marzo	2023-03-16T00:00:00	2024-11-08T21:00:00	6	Velocidad del viento	1.6
95650	7	Sololá	701	Sololá	4	Finca Santa Victoria	3	Marzo	2023-03-16T00:00:00	2024-11-08T21:00:00	7	Dirección del viento	1.61
95651	7	Sololá	701	Sololá	4	Finca Santa Victoria	3	Marzo	2023-03-16T00:00:00	2024-11-08T21:00:00	1	Precipitación	0
95652	7	Sololá	701	Sololá	4	Finca Santa Victoria	3	Marzo	2023-03-16T00:00:00	2024-11-08T21:00:00	8	Radiación solar	0
95653	7	Sololá	701	Sololá	4	Finca Santa Victoria	3	Marzo	2023-03-16T00:00:00	2024-11-08T22:00:00	2	Temperatura media	11.4
95654	7	Sololá	701	Sololá	4	Finca Santa Victoria	3	Marzo	2023-03-16T00:00:00	2024-11-08T22:00:00	4	Temperatura máxima	11.5
95655	7	Sololá	701	Sololá	4	Finca Santa Victoria	3	Marzo	2023-03-16T00:00:00	2024-11-08T22:00:00	3	Temperatura mínima	11.1
95656	7	Sololá	701	Sololá	4	Finca Santa Victoria	3	Marzo	2023-03-16T00:00:00	2024-11-08T22:00:00	5	Humedad	94
95657	7	Sololá	701	Sololá	4	Finca Santa Victoria	3	Marzo	2023-03-16T00:00:00	2024-11-08T22:00:00	6	Velocidad del viento	1.6
95658	7	Sololá	701	Sololá	4	Finca Santa Victoria	3	Marzo	2023-03-16T00:00:00	2024-11-08T22:00:00	7	Dirección del viento	1.61
95659	7	Sololá	701	Sololá	4	Finca Santa Victoria	3	Marzo	2023-03-16T00:00:00	2024-11-08T22:00:00	1	Precipitación	0
95660	7	Sololá	701	Sololá	4	Finca Santa Victoria	3	Marzo	2023-03-16T00:00:00	2024-11-08T22:00:00	8	Radiación solar	0
95661	7	Sololá	701	Sololá	4	Finca Santa Victoria	3	Marzo	2023-03-16T00:00:00	2024-11-08T23:00:00	2	Temperatura media	11.4
95662	7	Sololá	701	Sololá	4	Finca Santa Victoria	3	Marzo	2023-03-16T00:00:00	2024-11-08T23:00:00	4	Temperatura máxima	11.4
95663	7	Sololá	701	Sololá	4	Finca Santa Victoria	3	Marzo	2023-03-16T00:00:00	2024-11-08T23:00:00	3	Temperatura mínima	11.2
95664	7	Sololá	701	Sololá	4	Finca Santa Victoria	3	Marzo	2023-03-16T00:00:00	2024-11-08T23:00:00	5	Humedad	96
95665	7	Sololá	701	Sololá	4	Finca Santa Victoria	3	Marzo	2023-03-16T00:00:00	2024-11-08T23:00:00	6	Velocidad del viento	0
95666	7	Sololá	701	Sololá	4	Finca Santa Victoria	3	Marzo	2023-03-16T00:00:00	2024-11-08T23:00:00	7	Dirección del viento	0
95667	7	Sololá	701	Sololá	4	Finca Santa Victoria	3	Marzo	2023-03-16T00:00:00	2024-11-08T23:00:00	1	Precipitación	0
95668	7	Sololá	701	Sololá	4	Finca Santa Victoria	3	Marzo	2023-03-16T00:00:00	2024-11-08T23:00:00	8	Radiación solar	0
95669	7	Sololá	701	Sololá	4	Finca Santa Victoria	3	Marzo	2023-03-17T00:00:00	2024-11-08T00:00:00	2	Temperatura media	11.2
95670	7	Sololá	701	Sololá	4	Finca Santa Victoria	3	Marzo	2023-03-17T00:00:00	2024-11-08T00:00:00	4	Temperatura máxima	11.6
95671	7	Sololá	701	Sololá	4	Finca Santa Victoria	3	Marzo	2023-03-17T00:00:00	2024-11-08T00:00:00	3	Temperatura mínima	11.1
95672	7	Sololá	701	Sololá	4	Finca Santa Victoria	3	Marzo	2023-03-17T00:00:00	2024-11-08T00:00:00	5	Humedad	97
95673	7	Sololá	701	Sololá	4	Finca Santa Victoria	3	Marzo	2023-03-17T00:00:00	2024-11-08T00:00:00	6	Velocidad del viento	1.6
95674	7	Sololá	701	Sololá	4	Finca Santa Victoria	3	Marzo	2023-03-17T00:00:00	2024-11-08T00:00:00	7	Dirección del viento	1.61
95675	7	Sololá	701	Sololá	4	Finca Santa Victoria	3	Marzo	2023-03-17T00:00:00	2024-11-08T00:00:00	1	Precipitación	0
95676	7	Sololá	701	Sololá	4	Finca Santa Victoria	3	Marzo	2023-03-17T00:00:00	2024-11-08T00:00:00	8	Radiación solar	0
95677	7	Sololá	701	Sololá	4	Finca Santa Victoria	3	Marzo	2023-03-17T00:00:00	2024-11-08T01:00:00	2	Temperatura media	11.7
95678	7	Sololá	701	Sololá	4	Finca Santa Victoria	3	Marzo	2023-03-17T00:00:00	2024-11-08T01:00:00	4	Temperatura máxima	11.7
95679	7	Sololá	701	Sololá	4	Finca Santa Victoria	3	Marzo	2023-03-17T00:00:00	2024-11-08T01:00:00	3	Temperatura mínima	11.2
95680	7	Sololá	701	Sololá	4	Finca Santa Victoria	3	Marzo	2023-03-17T00:00:00	2024-11-08T01:00:00	5	Humedad	97
95681	7	Sololá	701	Sololá	4	Finca Santa Victoria	3	Marzo	2023-03-17T00:00:00	2024-11-08T01:00:00	6	Velocidad del viento	0
95682	7	Sololá	701	Sololá	4	Finca Santa Victoria	3	Marzo	2023-03-17T00:00:00	2024-11-08T01:00:00	7	Dirección del viento	0
95683	7	Sololá	701	Sololá	4	Finca Santa Victoria	3	Marzo	2023-03-17T00:00:00	2024-11-08T01:00:00	1	Precipitación	0
95684	7	Sololá	701	Sololá	4	Finca Santa Victoria	3	Marzo	2023-03-17T00:00:00	2024-11-08T01:00:00	8	Radiación solar	0
95685	7	Sololá	701	Sololá	4	Finca Santa Victoria	3	Marzo	2023-03-17T00:00:00	2024-11-08T02:00:00	2	Temperatura media	11.3
95686	7	Sololá	701	Sololá	4	Finca Santa Victoria	3	Marzo	2023-03-17T00:00:00	2024-11-08T02:00:00	4	Temperatura máxima	11.6
95687	7	Sololá	701	Sololá	4	Finca Santa Victoria	3	Marzo	2023-03-17T00:00:00	2024-11-08T02:00:00	3	Temperatura mínima	11.3
95688	7	Sololá	701	Sololá	4	Finca Santa Victoria	3	Marzo	2023-03-17T00:00:00	2024-11-08T02:00:00	5	Humedad	97
95689	7	Sololá	701	Sololá	4	Finca Santa Victoria	3	Marzo	2023-03-17T00:00:00	2024-11-08T02:00:00	6	Velocidad del viento	0
95690	7	Sololá	701	Sololá	4	Finca Santa Victoria	3	Marzo	2023-03-17T00:00:00	2024-11-08T02:00:00	7	Dirección del viento	0
95691	7	Sololá	701	Sololá	4	Finca Santa Victoria	3	Marzo	2023-03-17T00:00:00	2024-11-08T02:00:00	1	Precipitación	0
95692	7	Sololá	701	Sololá	4	Finca Santa Victoria	3	Marzo	2023-03-17T00:00:00	2024-11-08T02:00:00	8	Radiación solar	0
95693	7	Sololá	701	Sololá	4	Finca Santa Victoria	3	Marzo	2023-03-17T00:00:00	2024-11-08T03:00:00	2	Temperatura media	11.5
95694	7	Sololá	701	Sololá	4	Finca Santa Victoria	3	Marzo	2023-03-17T00:00:00	2024-11-08T03:00:00	4	Temperatura máxima	11.6
95695	7	Sololá	701	Sololá	4	Finca Santa Victoria	3	Marzo	2023-03-17T00:00:00	2024-11-08T03:00:00	3	Temperatura mínima	11.3
95696	7	Sololá	701	Sololá	4	Finca Santa Victoria	3	Marzo	2023-03-17T00:00:00	2024-11-08T03:00:00	5	Humedad	97
95697	7	Sololá	701	Sololá	4	Finca Santa Victoria	3	Marzo	2023-03-17T00:00:00	2024-11-08T03:00:00	6	Velocidad del viento	0
95698	7	Sololá	701	Sololá	4	Finca Santa Victoria	3	Marzo	2023-03-17T00:00:00	2024-11-08T03:00:00	7	Dirección del viento	0
95699	7	Sololá	701	Sololá	4	Finca Santa Victoria	3	Marzo	2023-03-17T00:00:00	2024-11-08T03:00:00	1	Precipitación	0
95700	7	Sololá	701	Sololá	4	Finca Santa Victoria	3	Marzo	2023-03-17T00:00:00	2024-11-08T03:00:00	8	Radiación solar	0
95701	7	Sololá	701	Sololá	4	Finca Santa Victoria	3	Marzo	2023-03-17T00:00:00	2024-11-08T04:00:00	2	Temperatura media	10.8
95702	7	Sololá	701	Sololá	4	Finca Santa Victoria	3	Marzo	2023-03-17T00:00:00	2024-11-08T04:00:00	4	Temperatura máxima	11.5
95703	7	Sololá	701	Sololá	4	Finca Santa Victoria	3	Marzo	2023-03-17T00:00:00	2024-11-08T04:00:00	3	Temperatura mínima	10.8
95704	7	Sololá	701	Sololá	4	Finca Santa Victoria	3	Marzo	2023-03-17T00:00:00	2024-11-08T04:00:00	5	Humedad	96
95705	7	Sololá	701	Sololá	4	Finca Santa Victoria	3	Marzo	2023-03-17T00:00:00	2024-11-08T04:00:00	6	Velocidad del viento	0
95706	7	Sololá	701	Sololá	4	Finca Santa Victoria	3	Marzo	2023-03-17T00:00:00	2024-11-08T04:00:00	7	Dirección del viento	0
95707	7	Sololá	701	Sololá	4	Finca Santa Victoria	3	Marzo	2023-03-17T00:00:00	2024-11-08T04:00:00	1	Precipitación	0
95708	7	Sololá	701	Sololá	4	Finca Santa Victoria	3	Marzo	2023-03-17T00:00:00	2024-11-08T04:00:00	8	Radiación solar	0
95709	7	Sololá	701	Sololá	4	Finca Santa Victoria	3	Marzo	2023-03-17T00:00:00	2024-11-08T05:00:00	2	Temperatura media	10.7
95710	7	Sololá	701	Sololá	4	Finca Santa Victoria	3	Marzo	2023-03-17T00:00:00	2024-11-08T05:00:00	4	Temperatura máxima	10.9
95711	7	Sololá	701	Sololá	4	Finca Santa Victoria	3	Marzo	2023-03-17T00:00:00	2024-11-08T05:00:00	3	Temperatura mínima	10.7
95712	7	Sololá	701	Sololá	4	Finca Santa Victoria	3	Marzo	2023-03-17T00:00:00	2024-11-08T05:00:00	5	Humedad	95
95713	7	Sololá	701	Sololá	4	Finca Santa Victoria	3	Marzo	2023-03-17T00:00:00	2024-11-08T05:00:00	6	Velocidad del viento	1.6
95714	7	Sololá	701	Sololá	4	Finca Santa Victoria	3	Marzo	2023-03-17T00:00:00	2024-11-08T05:00:00	7	Dirección del viento	1.61
95715	7	Sololá	701	Sololá	4	Finca Santa Victoria	3	Marzo	2023-03-17T00:00:00	2024-11-08T05:00:00	1	Precipitación	0
95716	7	Sololá	701	Sololá	4	Finca Santa Victoria	3	Marzo	2023-03-17T00:00:00	2024-11-08T05:00:00	8	Radiación solar	0
95717	7	Sololá	701	Sololá	4	Finca Santa Victoria	3	Marzo	2023-03-17T00:00:00	2024-11-08T06:00:00	2	Temperatura media	10.7
95718	7	Sololá	701	Sololá	4	Finca Santa Victoria	3	Marzo	2023-03-17T00:00:00	2024-11-08T06:00:00	4	Temperatura máxima	10.9
95719	7	Sololá	701	Sololá	4	Finca Santa Victoria	3	Marzo	2023-03-17T00:00:00	2024-11-08T06:00:00	3	Temperatura mínima	10.7
95720	7	Sololá	701	Sololá	4	Finca Santa Victoria	3	Marzo	2023-03-17T00:00:00	2024-11-08T06:00:00	5	Humedad	93
95721	7	Sololá	701	Sololá	4	Finca Santa Victoria	3	Marzo	2023-03-17T00:00:00	2024-11-08T06:00:00	6	Velocidad del viento	0
95722	7	Sololá	701	Sololá	4	Finca Santa Victoria	3	Marzo	2023-03-17T00:00:00	2024-11-08T06:00:00	7	Dirección del viento	0
95723	7	Sololá	701	Sololá	4	Finca Santa Victoria	3	Marzo	2023-03-17T00:00:00	2024-11-08T06:00:00	1	Precipitación	0.2
95724	7	Sololá	701	Sololá	4	Finca Santa Victoria	3	Marzo	2023-03-17T00:00:00	2024-11-08T06:00:00	8	Radiación solar	0
95725	7	Sololá	701	Sololá	4	Finca Santa Victoria	3	Marzo	2023-03-17T00:00:00	2024-11-08T07:00:00	2	Temperatura media	11
95726	7	Sololá	701	Sololá	4	Finca Santa Victoria	3	Marzo	2023-03-17T00:00:00	2024-11-08T07:00:00	4	Temperatura máxima	11.1
95727	7	Sololá	701	Sololá	4	Finca Santa Victoria	3	Marzo	2023-03-17T00:00:00	2024-11-08T07:00:00	3	Temperatura mínima	10.7
95728	7	Sololá	701	Sololá	4	Finca Santa Victoria	3	Marzo	2023-03-17T00:00:00	2024-11-08T07:00:00	5	Humedad	97
95729	7	Sololá	701	Sololá	4	Finca Santa Victoria	3	Marzo	2023-03-17T00:00:00	2024-11-08T07:00:00	6	Velocidad del viento	1.6
95730	7	Sololá	701	Sololá	4	Finca Santa Victoria	3	Marzo	2023-03-17T00:00:00	2024-11-08T07:00:00	7	Dirección del viento	1.61
95731	7	Sololá	701	Sololá	4	Finca Santa Victoria	3	Marzo	2023-03-17T00:00:00	2024-11-08T07:00:00	1	Precipitación	0
95732	7	Sololá	701	Sololá	4	Finca Santa Victoria	3	Marzo	2023-03-17T00:00:00	2024-11-08T07:00:00	8	Radiación solar	10
95733	7	Sololá	701	Sololá	4	Finca Santa Victoria	3	Marzo	2023-03-17T00:00:00	2024-11-08T08:00:00	2	Temperatura media	13.8
95734	7	Sololá	701	Sololá	4	Finca Santa Victoria	3	Marzo	2023-03-17T00:00:00	2024-11-08T08:00:00	4	Temperatura máxima	13.8
95735	7	Sololá	701	Sololá	4	Finca Santa Victoria	3	Marzo	2023-03-17T00:00:00	2024-11-08T08:00:00	3	Temperatura mínima	10.9
95736	7	Sololá	701	Sololá	4	Finca Santa Victoria	3	Marzo	2023-03-17T00:00:00	2024-11-08T08:00:00	5	Humedad	92
95737	7	Sololá	701	Sololá	4	Finca Santa Victoria	3	Marzo	2023-03-17T00:00:00	2024-11-08T08:00:00	6	Velocidad del viento	1.6
95738	7	Sololá	701	Sololá	4	Finca Santa Victoria	3	Marzo	2023-03-17T00:00:00	2024-11-08T08:00:00	7	Dirección del viento	1.61
95739	7	Sololá	701	Sololá	4	Finca Santa Victoria	3	Marzo	2023-03-17T00:00:00	2024-11-08T08:00:00	1	Precipitación	0
95740	7	Sololá	701	Sololá	4	Finca Santa Victoria	3	Marzo	2023-03-17T00:00:00	2024-11-08T08:00:00	8	Radiación solar	180
95741	7	Sololá	701	Sololá	4	Finca Santa Victoria	3	Marzo	2023-03-17T00:00:00	2024-11-08T09:00:00	2	Temperatura media	15.4
95742	7	Sololá	701	Sololá	4	Finca Santa Victoria	3	Marzo	2023-03-17T00:00:00	2024-11-08T09:00:00	4	Temperatura máxima	15.4
95743	7	Sololá	701	Sololá	4	Finca Santa Victoria	3	Marzo	2023-03-17T00:00:00	2024-11-08T09:00:00	3	Temperatura mínima	13.8
95744	7	Sololá	701	Sololá	4	Finca Santa Victoria	3	Marzo	2023-03-17T00:00:00	2024-11-08T09:00:00	5	Humedad	79
95745	7	Sololá	701	Sololá	4	Finca Santa Victoria	3	Marzo	2023-03-17T00:00:00	2024-11-08T09:00:00	6	Velocidad del viento	1.6
95746	7	Sololá	701	Sololá	4	Finca Santa Victoria	3	Marzo	2023-03-17T00:00:00	2024-11-08T09:00:00	7	Dirección del viento	1.61
95747	7	Sololá	701	Sololá	4	Finca Santa Victoria	3	Marzo	2023-03-17T00:00:00	2024-11-08T09:00:00	1	Precipitación	0
95748	7	Sololá	701	Sololá	4	Finca Santa Victoria	3	Marzo	2023-03-17T00:00:00	2024-11-08T09:00:00	8	Radiación solar	424
95749	7	Sololá	701	Sololá	4	Finca Santa Victoria	3	Marzo	2023-03-17T00:00:00	2024-11-08T10:00:00	2	Temperatura media	16.9
95750	7	Sololá	701	Sololá	4	Finca Santa Victoria	3	Marzo	2023-03-17T00:00:00	2024-11-08T10:00:00	4	Temperatura máxima	17
95751	7	Sololá	701	Sololá	4	Finca Santa Victoria	3	Marzo	2023-03-17T00:00:00	2024-11-08T10:00:00	3	Temperatura mínima	15.4
95752	7	Sololá	701	Sololá	4	Finca Santa Victoria	3	Marzo	2023-03-17T00:00:00	2024-11-08T10:00:00	5	Humedad	79
95753	7	Sololá	701	Sololá	4	Finca Santa Victoria	3	Marzo	2023-03-17T00:00:00	2024-11-08T10:00:00	6	Velocidad del viento	3.2
95754	7	Sololá	701	Sololá	4	Finca Santa Victoria	3	Marzo	2023-03-17T00:00:00	2024-11-08T10:00:00	7	Dirección del viento	3.22
95755	7	Sololá	701	Sololá	4	Finca Santa Victoria	3	Marzo	2023-03-17T00:00:00	2024-11-08T10:00:00	1	Precipitación	0
95756	7	Sololá	701	Sololá	4	Finca Santa Victoria	3	Marzo	2023-03-17T00:00:00	2024-11-08T10:00:00	8	Radiación solar	730
95757	7	Sololá	701	Sololá	4	Finca Santa Victoria	3	Marzo	2023-03-17T00:00:00	2024-11-08T11:00:00	2	Temperatura media	17.4
95758	7	Sololá	701	Sololá	4	Finca Santa Victoria	3	Marzo	2023-03-17T00:00:00	2024-11-08T11:00:00	4	Temperatura máxima	17.6
95759	7	Sololá	701	Sololá	4	Finca Santa Victoria	3	Marzo	2023-03-17T00:00:00	2024-11-08T11:00:00	3	Temperatura mínima	16.5
95760	7	Sololá	701	Sololá	4	Finca Santa Victoria	3	Marzo	2023-03-17T00:00:00	2024-11-08T11:00:00	5	Humedad	73
95761	7	Sololá	701	Sololá	4	Finca Santa Victoria	3	Marzo	2023-03-17T00:00:00	2024-11-08T11:00:00	6	Velocidad del viento	4.8
95762	7	Sololá	701	Sololá	4	Finca Santa Victoria	3	Marzo	2023-03-17T00:00:00	2024-11-08T11:00:00	7	Dirección del viento	4.83
95763	7	Sololá	701	Sololá	4	Finca Santa Victoria	3	Marzo	2023-03-17T00:00:00	2024-11-08T11:00:00	1	Precipitación	0
95764	7	Sololá	701	Sololá	4	Finca Santa Victoria	3	Marzo	2023-03-17T00:00:00	2024-11-08T11:00:00	8	Radiación solar	903
95765	7	Sololá	701	Sololá	4	Finca Santa Victoria	3	Marzo	2023-03-17T00:00:00	2024-11-08T12:00:00	2	Temperatura media	17.7
95766	7	Sololá	701	Sololá	4	Finca Santa Victoria	3	Marzo	2023-03-17T00:00:00	2024-11-08T12:00:00	4	Temperatura máxima	17.9
95767	7	Sololá	701	Sololá	4	Finca Santa Victoria	3	Marzo	2023-03-17T00:00:00	2024-11-08T12:00:00	3	Temperatura mínima	17.2
95768	7	Sololá	701	Sololá	4	Finca Santa Victoria	3	Marzo	2023-03-17T00:00:00	2024-11-08T12:00:00	5	Humedad	76
95769	7	Sololá	701	Sololá	4	Finca Santa Victoria	3	Marzo	2023-03-17T00:00:00	2024-11-08T12:00:00	6	Velocidad del viento	4.8
95770	7	Sololá	701	Sololá	4	Finca Santa Victoria	3	Marzo	2023-03-17T00:00:00	2024-11-08T12:00:00	7	Dirección del viento	4.83
95771	7	Sololá	701	Sololá	4	Finca Santa Victoria	3	Marzo	2023-03-17T00:00:00	2024-11-08T12:00:00	1	Precipitación	0
95772	7	Sololá	701	Sololá	4	Finca Santa Victoria	3	Marzo	2023-03-17T00:00:00	2024-11-08T12:00:00	8	Radiación solar	918
95773	7	Sololá	701	Sololá	4	Finca Santa Victoria	3	Marzo	2023-03-17T00:00:00	2024-11-08T13:00:00	2	Temperatura media	17.7
95774	7	Sololá	701	Sololá	4	Finca Santa Victoria	3	Marzo	2023-03-17T00:00:00	2024-11-08T13:00:00	4	Temperatura máxima	18
95775	7	Sololá	701	Sololá	4	Finca Santa Victoria	3	Marzo	2023-03-17T00:00:00	2024-11-08T13:00:00	3	Temperatura mínima	16.9
95776	7	Sololá	701	Sololá	4	Finca Santa Victoria	3	Marzo	2023-03-17T00:00:00	2024-11-08T13:00:00	5	Humedad	79
95777	7	Sololá	701	Sololá	4	Finca Santa Victoria	3	Marzo	2023-03-17T00:00:00	2024-11-08T13:00:00	6	Velocidad del viento	4.8
95778	7	Sololá	701	Sololá	4	Finca Santa Victoria	3	Marzo	2023-03-17T00:00:00	2024-11-08T13:00:00	7	Dirección del viento	4.83
95779	7	Sololá	701	Sololá	4	Finca Santa Victoria	3	Marzo	2023-03-17T00:00:00	2024-11-08T13:00:00	1	Precipitación	0
95780	7	Sololá	701	Sololá	4	Finca Santa Victoria	3	Marzo	2023-03-17T00:00:00	2024-11-08T13:00:00	8	Radiación solar	400
95781	7	Sololá	701	Sololá	4	Finca Santa Victoria	3	Marzo	2023-03-17T00:00:00	2024-11-08T14:00:00	2	Temperatura media	15.8
95782	7	Sololá	701	Sololá	4	Finca Santa Victoria	3	Marzo	2023-03-17T00:00:00	2024-11-08T14:00:00	4	Temperatura máxima	18
95783	7	Sololá	701	Sololá	4	Finca Santa Victoria	3	Marzo	2023-03-17T00:00:00	2024-11-08T14:00:00	3	Temperatura mínima	15.8
95784	7	Sololá	701	Sololá	4	Finca Santa Victoria	3	Marzo	2023-03-17T00:00:00	2024-11-08T14:00:00	5	Humedad	87
95785	7	Sololá	701	Sololá	4	Finca Santa Victoria	3	Marzo	2023-03-17T00:00:00	2024-11-08T14:00:00	6	Velocidad del viento	4.8
95786	7	Sololá	701	Sololá	4	Finca Santa Victoria	3	Marzo	2023-03-17T00:00:00	2024-11-08T14:00:00	7	Dirección del viento	4.83
95787	7	Sololá	701	Sololá	4	Finca Santa Victoria	3	Marzo	2023-03-17T00:00:00	2024-11-08T14:00:00	1	Precipitación	0
95788	7	Sololá	701	Sololá	4	Finca Santa Victoria	3	Marzo	2023-03-17T00:00:00	2024-11-08T14:00:00	8	Radiación solar	213
95789	7	Sololá	701	Sololá	4	Finca Santa Victoria	3	Marzo	2023-03-17T00:00:00	2024-11-08T15:00:00	2	Temperatura media	13.7
95790	7	Sololá	701	Sololá	4	Finca Santa Victoria	3	Marzo	2023-03-17T00:00:00	2024-11-08T15:00:00	4	Temperatura máxima	15.8
95791	7	Sololá	701	Sololá	4	Finca Santa Victoria	3	Marzo	2023-03-17T00:00:00	2024-11-08T15:00:00	3	Temperatura mínima	13.7
95792	7	Sololá	701	Sololá	4	Finca Santa Victoria	3	Marzo	2023-03-17T00:00:00	2024-11-08T15:00:00	5	Humedad	96
95793	7	Sololá	701	Sololá	4	Finca Santa Victoria	3	Marzo	2023-03-17T00:00:00	2024-11-08T15:00:00	6	Velocidad del viento	3.2
95794	7	Sololá	701	Sololá	4	Finca Santa Victoria	3	Marzo	2023-03-17T00:00:00	2024-11-08T15:00:00	7	Dirección del viento	3.22
95795	7	Sololá	701	Sololá	4	Finca Santa Victoria	3	Marzo	2023-03-17T00:00:00	2024-11-08T15:00:00	1	Precipitación	0.8
95796	7	Sololá	701	Sololá	4	Finca Santa Victoria	3	Marzo	2023-03-17T00:00:00	2024-11-08T15:00:00	8	Radiación solar	49
95797	7	Sololá	701	Sololá	4	Finca Santa Victoria	3	Marzo	2023-03-17T00:00:00	2024-11-08T16:00:00	2	Temperatura media	14.2
95798	7	Sololá	701	Sololá	4	Finca Santa Victoria	3	Marzo	2023-03-17T00:00:00	2024-11-08T16:00:00	4	Temperatura máxima	14.3
95799	7	Sololá	701	Sololá	4	Finca Santa Victoria	3	Marzo	2023-03-17T00:00:00	2024-11-08T16:00:00	3	Temperatura mínima	13.6
95800	7	Sololá	701	Sololá	4	Finca Santa Victoria	3	Marzo	2023-03-17T00:00:00	2024-11-08T16:00:00	5	Humedad	93
95801	7	Sololá	701	Sololá	4	Finca Santa Victoria	3	Marzo	2023-03-17T00:00:00	2024-11-08T16:00:00	6	Velocidad del viento	3.2
95802	7	Sololá	701	Sololá	4	Finca Santa Victoria	3	Marzo	2023-03-17T00:00:00	2024-11-08T16:00:00	7	Dirección del viento	3.22
95803	7	Sololá	701	Sololá	4	Finca Santa Victoria	3	Marzo	2023-03-17T00:00:00	2024-11-08T16:00:00	1	Precipitación	0
95804	7	Sololá	701	Sololá	4	Finca Santa Victoria	3	Marzo	2023-03-17T00:00:00	2024-11-08T16:00:00	8	Radiación solar	161
95805	7	Sololá	701	Sololá	4	Finca Santa Victoria	3	Marzo	2023-03-17T00:00:00	2024-11-08T17:00:00	2	Temperatura media	13.4
95806	7	Sololá	701	Sololá	4	Finca Santa Victoria	3	Marzo	2023-03-17T00:00:00	2024-11-08T17:00:00	4	Temperatura máxima	14.3
95807	7	Sololá	701	Sololá	4	Finca Santa Victoria	3	Marzo	2023-03-17T00:00:00	2024-11-08T17:00:00	3	Temperatura mínima	13.4
95808	7	Sololá	701	Sololá	4	Finca Santa Victoria	3	Marzo	2023-03-17T00:00:00	2024-11-08T17:00:00	5	Humedad	92
95809	7	Sololá	701	Sololá	4	Finca Santa Victoria	3	Marzo	2023-03-17T00:00:00	2024-11-08T17:00:00	6	Velocidad del viento	1.6
95810	7	Sololá	701	Sololá	4	Finca Santa Victoria	3	Marzo	2023-03-17T00:00:00	2024-11-08T17:00:00	7	Dirección del viento	1.61
95811	7	Sololá	701	Sololá	4	Finca Santa Victoria	3	Marzo	2023-03-17T00:00:00	2024-11-08T17:00:00	1	Precipitación	0
95812	7	Sololá	701	Sololá	4	Finca Santa Victoria	3	Marzo	2023-03-17T00:00:00	2024-11-08T17:00:00	8	Radiación solar	71
95813	7	Sololá	701	Sololá	4	Finca Santa Victoria	3	Marzo	2023-03-17T00:00:00	2024-11-08T18:00:00	2	Temperatura media	12.8
95814	7	Sololá	701	Sololá	4	Finca Santa Victoria	3	Marzo	2023-03-17T00:00:00	2024-11-08T18:00:00	4	Temperatura máxima	13.4
95815	7	Sololá	701	Sololá	4	Finca Santa Victoria	3	Marzo	2023-03-17T00:00:00	2024-11-08T18:00:00	3	Temperatura mínima	12.7
95816	7	Sololá	701	Sololá	4	Finca Santa Victoria	3	Marzo	2023-03-17T00:00:00	2024-11-08T18:00:00	5	Humedad	94
95817	7	Sololá	701	Sololá	4	Finca Santa Victoria	3	Marzo	2023-03-17T00:00:00	2024-11-08T18:00:00	6	Velocidad del viento	0
95818	7	Sololá	701	Sololá	4	Finca Santa Victoria	3	Marzo	2023-03-17T00:00:00	2024-11-08T18:00:00	7	Dirección del viento	0
95819	7	Sololá	701	Sololá	4	Finca Santa Victoria	3	Marzo	2023-03-17T00:00:00	2024-11-08T18:00:00	1	Precipitación	0
95820	7	Sololá	701	Sololá	4	Finca Santa Victoria	3	Marzo	2023-03-17T00:00:00	2024-11-08T18:00:00	8	Radiación solar	26
95821	7	Sololá	701	Sololá	4	Finca Santa Victoria	3	Marzo	2023-03-17T00:00:00	2024-11-08T19:00:00	2	Temperatura media	12.9
95822	7	Sololá	701	Sololá	4	Finca Santa Victoria	3	Marzo	2023-03-17T00:00:00	2024-11-08T19:00:00	4	Temperatura máxima	13
95823	7	Sololá	701	Sololá	4	Finca Santa Victoria	3	Marzo	2023-03-17T00:00:00	2024-11-08T19:00:00	3	Temperatura mínima	12.7
95824	7	Sololá	701	Sololá	4	Finca Santa Victoria	3	Marzo	2023-03-17T00:00:00	2024-11-08T19:00:00	5	Humedad	96
95825	7	Sololá	701	Sololá	4	Finca Santa Victoria	3	Marzo	2023-03-17T00:00:00	2024-11-08T19:00:00	6	Velocidad del viento	1.6
95826	7	Sololá	701	Sololá	4	Finca Santa Victoria	3	Marzo	2023-03-17T00:00:00	2024-11-08T19:00:00	7	Dirección del viento	1.61
95827	7	Sololá	701	Sololá	4	Finca Santa Victoria	3	Marzo	2023-03-17T00:00:00	2024-11-08T19:00:00	1	Precipitación	0
95828	7	Sololá	701	Sololá	4	Finca Santa Victoria	3	Marzo	2023-03-17T00:00:00	2024-11-08T19:00:00	8	Radiación solar	0
95829	7	Sololá	701	Sololá	4	Finca Santa Victoria	3	Marzo	2023-03-17T00:00:00	2024-11-08T20:00:00	2	Temperatura media	12.8
95830	7	Sololá	701	Sololá	4	Finca Santa Victoria	3	Marzo	2023-03-17T00:00:00	2024-11-08T20:00:00	4	Temperatura máxima	12.9
95831	7	Sololá	701	Sololá	4	Finca Santa Victoria	3	Marzo	2023-03-17T00:00:00	2024-11-08T20:00:00	3	Temperatura mínima	12.8
95832	7	Sololá	701	Sololá	4	Finca Santa Victoria	3	Marzo	2023-03-17T00:00:00	2024-11-08T20:00:00	5	Humedad	97
95833	7	Sololá	701	Sololá	4	Finca Santa Victoria	3	Marzo	2023-03-17T00:00:00	2024-11-08T20:00:00	6	Velocidad del viento	0
95834	7	Sololá	701	Sololá	4	Finca Santa Victoria	3	Marzo	2023-03-17T00:00:00	2024-11-08T20:00:00	7	Dirección del viento	0
95835	7	Sololá	701	Sololá	4	Finca Santa Victoria	3	Marzo	2023-03-17T00:00:00	2024-11-08T20:00:00	1	Precipitación	3.8
95836	7	Sololá	701	Sololá	4	Finca Santa Victoria	3	Marzo	2023-03-17T00:00:00	2024-11-08T20:00:00	8	Radiación solar	0
95837	7	Sololá	701	Sololá	4	Finca Santa Victoria	3	Marzo	2023-03-17T00:00:00	2024-11-08T21:00:00	2	Temperatura media	12.8
95838	7	Sololá	701	Sololá	4	Finca Santa Victoria	3	Marzo	2023-03-17T00:00:00	2024-11-08T21:00:00	4	Temperatura máxima	13
95839	7	Sololá	701	Sololá	4	Finca Santa Victoria	3	Marzo	2023-03-17T00:00:00	2024-11-08T21:00:00	3	Temperatura mínima	12.8
95840	7	Sololá	701	Sololá	4	Finca Santa Victoria	3	Marzo	2023-03-17T00:00:00	2024-11-08T21:00:00	5	Humedad	97
95841	7	Sololá	701	Sololá	4	Finca Santa Victoria	3	Marzo	2023-03-17T00:00:00	2024-11-08T21:00:00	6	Velocidad del viento	0
95842	7	Sololá	701	Sololá	4	Finca Santa Victoria	3	Marzo	2023-03-17T00:00:00	2024-11-08T21:00:00	7	Dirección del viento	0
95843	7	Sololá	701	Sololá	4	Finca Santa Victoria	3	Marzo	2023-03-17T00:00:00	2024-11-08T21:00:00	1	Precipitación	0
95844	7	Sololá	701	Sololá	4	Finca Santa Victoria	3	Marzo	2023-03-17T00:00:00	2024-11-08T21:00:00	8	Radiación solar	0
95845	7	Sololá	701	Sololá	4	Finca Santa Victoria	3	Marzo	2023-03-17T00:00:00	2024-11-08T22:00:00	2	Temperatura media	12.3
95846	7	Sololá	701	Sololá	4	Finca Santa Victoria	3	Marzo	2023-03-17T00:00:00	2024-11-08T22:00:00	4	Temperatura máxima	12.8
95847	7	Sololá	701	Sololá	4	Finca Santa Victoria	3	Marzo	2023-03-17T00:00:00	2024-11-08T22:00:00	3	Temperatura mínima	12.3
95848	7	Sololá	701	Sololá	4	Finca Santa Victoria	3	Marzo	2023-03-17T00:00:00	2024-11-08T22:00:00	5	Humedad	97
95849	7	Sololá	701	Sololá	4	Finca Santa Victoria	3	Marzo	2023-03-17T00:00:00	2024-11-08T22:00:00	6	Velocidad del viento	0
95850	7	Sololá	701	Sololá	4	Finca Santa Victoria	3	Marzo	2023-03-17T00:00:00	2024-11-08T22:00:00	7	Dirección del viento	0
95851	7	Sololá	701	Sololá	4	Finca Santa Victoria	3	Marzo	2023-03-17T00:00:00	2024-11-08T22:00:00	1	Precipitación	0
95852	7	Sololá	701	Sololá	4	Finca Santa Victoria	3	Marzo	2023-03-17T00:00:00	2024-11-08T22:00:00	8	Radiación solar	0
95853	7	Sololá	701	Sololá	4	Finca Santa Victoria	3	Marzo	2023-03-17T00:00:00	2024-11-08T23:00:00	2	Temperatura media	12.2
95854	7	Sololá	701	Sololá	4	Finca Santa Victoria	3	Marzo	2023-03-17T00:00:00	2024-11-08T23:00:00	4	Temperatura máxima	12.4
95855	7	Sololá	701	Sololá	4	Finca Santa Victoria	3	Marzo	2023-03-17T00:00:00	2024-11-08T23:00:00	3	Temperatura mínima	12.1
95856	7	Sololá	701	Sololá	4	Finca Santa Victoria	3	Marzo	2023-03-17T00:00:00	2024-11-08T23:00:00	5	Humedad	98
95857	7	Sololá	701	Sololá	4	Finca Santa Victoria	3	Marzo	2023-03-17T00:00:00	2024-11-08T23:00:00	6	Velocidad del viento	0
95858	7	Sololá	701	Sololá	4	Finca Santa Victoria	3	Marzo	2023-03-17T00:00:00	2024-11-08T23:00:00	7	Dirección del viento	0
95859	7	Sololá	701	Sololá	4	Finca Santa Victoria	3	Marzo	2023-03-17T00:00:00	2024-11-08T23:00:00	1	Precipitación	0
95860	7	Sololá	701	Sololá	4	Finca Santa Victoria	3	Marzo	2023-03-17T00:00:00	2024-11-08T23:00:00	8	Radiación solar	0
95861	7	Sololá	701	Sololá	4	Finca Santa Victoria	3	Marzo	2023-03-18T00:00:00	2024-11-08T00:00:00	2	Temperatura media	11.9
95862	7	Sololá	701	Sololá	4	Finca Santa Victoria	3	Marzo	2023-03-18T00:00:00	2024-11-08T00:00:00	4	Temperatura máxima	12.2
95863	7	Sololá	701	Sololá	4	Finca Santa Victoria	3	Marzo	2023-03-18T00:00:00	2024-11-08T00:00:00	3	Temperatura mínima	11.8
95864	7	Sololá	701	Sololá	4	Finca Santa Victoria	3	Marzo	2023-03-18T00:00:00	2024-11-08T00:00:00	5	Humedad	98
95865	7	Sololá	701	Sololá	4	Finca Santa Victoria	3	Marzo	2023-03-18T00:00:00	2024-11-08T00:00:00	6	Velocidad del viento	0
95866	7	Sololá	701	Sololá	4	Finca Santa Victoria	3	Marzo	2023-03-18T00:00:00	2024-11-08T00:00:00	7	Dirección del viento	0
95867	7	Sololá	701	Sololá	4	Finca Santa Victoria	3	Marzo	2023-03-18T00:00:00	2024-11-08T00:00:00	1	Precipitación	0
95868	7	Sololá	701	Sololá	4	Finca Santa Victoria	3	Marzo	2023-03-18T00:00:00	2024-11-08T00:00:00	8	Radiación solar	0
95869	7	Sololá	701	Sololá	4	Finca Santa Victoria	3	Marzo	2023-03-18T00:00:00	2024-11-08T01:00:00	2	Temperatura media	11.8
95870	7	Sololá	701	Sololá	4	Finca Santa Victoria	3	Marzo	2023-03-18T00:00:00	2024-11-08T01:00:00	4	Temperatura máxima	12.1
95871	7	Sololá	701	Sololá	4	Finca Santa Victoria	3	Marzo	2023-03-18T00:00:00	2024-11-08T01:00:00	3	Temperatura mínima	11.8
95872	7	Sololá	701	Sololá	4	Finca Santa Victoria	3	Marzo	2023-03-18T00:00:00	2024-11-08T01:00:00	5	Humedad	98
95873	7	Sololá	701	Sololá	4	Finca Santa Victoria	3	Marzo	2023-03-18T00:00:00	2024-11-08T01:00:00	6	Velocidad del viento	0
95874	7	Sololá	701	Sololá	4	Finca Santa Victoria	3	Marzo	2023-03-18T00:00:00	2024-11-08T01:00:00	7	Dirección del viento	0
95875	7	Sololá	701	Sololá	4	Finca Santa Victoria	3	Marzo	2023-03-18T00:00:00	2024-11-08T01:00:00	1	Precipitación	0
95876	7	Sololá	701	Sololá	4	Finca Santa Victoria	3	Marzo	2023-03-18T00:00:00	2024-11-08T01:00:00	8	Radiación solar	0
95877	7	Sololá	701	Sololá	4	Finca Santa Victoria	3	Marzo	2023-03-18T00:00:00	2024-11-08T02:00:00	2	Temperatura media	11.1
95878	7	Sololá	701	Sololá	4	Finca Santa Victoria	3	Marzo	2023-03-18T00:00:00	2024-11-08T02:00:00	4	Temperatura máxima	11.9
95879	7	Sololá	701	Sololá	4	Finca Santa Victoria	3	Marzo	2023-03-18T00:00:00	2024-11-08T02:00:00	3	Temperatura mínima	11
95880	7	Sololá	701	Sololá	4	Finca Santa Victoria	3	Marzo	2023-03-18T00:00:00	2024-11-08T02:00:00	5	Humedad	97
95881	7	Sololá	701	Sololá	4	Finca Santa Victoria	3	Marzo	2023-03-18T00:00:00	2024-11-08T02:00:00	6	Velocidad del viento	0
95882	7	Sololá	701	Sololá	4	Finca Santa Victoria	3	Marzo	2023-03-18T00:00:00	2024-11-08T02:00:00	7	Dirección del viento	0
95883	7	Sololá	701	Sololá	4	Finca Santa Victoria	3	Marzo	2023-03-18T00:00:00	2024-11-08T02:00:00	1	Precipitación	0
95884	7	Sololá	701	Sololá	4	Finca Santa Victoria	3	Marzo	2023-03-18T00:00:00	2024-11-08T02:00:00	8	Radiación solar	0
95885	7	Sololá	701	Sololá	4	Finca Santa Victoria	3	Marzo	2023-03-18T00:00:00	2024-11-08T03:00:00	2	Temperatura media	10.5
95886	7	Sololá	701	Sololá	4	Finca Santa Victoria	3	Marzo	2023-03-18T00:00:00	2024-11-08T03:00:00	4	Temperatura máxima	11.1
95887	7	Sololá	701	Sololá	4	Finca Santa Victoria	3	Marzo	2023-03-18T00:00:00	2024-11-08T03:00:00	3	Temperatura mínima	10.4
95888	7	Sololá	701	Sololá	4	Finca Santa Victoria	3	Marzo	2023-03-18T00:00:00	2024-11-08T03:00:00	5	Humedad	97
95889	7	Sololá	701	Sololá	4	Finca Santa Victoria	3	Marzo	2023-03-18T00:00:00	2024-11-08T03:00:00	6	Velocidad del viento	0
95890	7	Sololá	701	Sololá	4	Finca Santa Victoria	3	Marzo	2023-03-18T00:00:00	2024-11-08T03:00:00	7	Dirección del viento	0
95891	7	Sololá	701	Sololá	4	Finca Santa Victoria	3	Marzo	2023-03-18T00:00:00	2024-11-08T03:00:00	1	Precipitación	0
95892	7	Sololá	701	Sololá	4	Finca Santa Victoria	3	Marzo	2023-03-18T00:00:00	2024-11-08T03:00:00	8	Radiación solar	0
95893	7	Sololá	701	Sololá	4	Finca Santa Victoria	3	Marzo	2023-03-18T00:00:00	2024-11-08T04:00:00	2	Temperatura media	10
95894	7	Sololá	701	Sololá	4	Finca Santa Victoria	3	Marzo	2023-03-18T00:00:00	2024-11-08T04:00:00	4	Temperatura máxima	10.8
95895	7	Sololá	701	Sololá	4	Finca Santa Victoria	3	Marzo	2023-03-18T00:00:00	2024-11-08T04:00:00	3	Temperatura mínima	9.9
95896	7	Sololá	701	Sololá	4	Finca Santa Victoria	3	Marzo	2023-03-18T00:00:00	2024-11-08T04:00:00	5	Humedad	94
95897	7	Sololá	701	Sololá	4	Finca Santa Victoria	3	Marzo	2023-03-18T00:00:00	2024-11-08T04:00:00	6	Velocidad del viento	0
95898	7	Sololá	701	Sololá	4	Finca Santa Victoria	3	Marzo	2023-03-18T00:00:00	2024-11-08T04:00:00	7	Dirección del viento	0
95899	7	Sololá	701	Sololá	4	Finca Santa Victoria	3	Marzo	2023-03-18T00:00:00	2024-11-08T04:00:00	1	Precipitación	0
95900	7	Sololá	701	Sololá	4	Finca Santa Victoria	3	Marzo	2023-03-18T00:00:00	2024-11-08T04:00:00	8	Radiación solar	0
95901	7	Sololá	701	Sololá	4	Finca Santa Victoria	3	Marzo	2023-03-18T00:00:00	2024-11-08T05:00:00	2	Temperatura media	9.6
95902	7	Sololá	701	Sololá	4	Finca Santa Victoria	3	Marzo	2023-03-18T00:00:00	2024-11-08T05:00:00	4	Temperatura máxima	10
95903	7	Sololá	701	Sololá	4	Finca Santa Victoria	3	Marzo	2023-03-18T00:00:00	2024-11-08T05:00:00	3	Temperatura mínima	9.6
95904	7	Sololá	701	Sololá	4	Finca Santa Victoria	3	Marzo	2023-03-18T00:00:00	2024-11-08T05:00:00	5	Humedad	96
95905	7	Sololá	701	Sololá	4	Finca Santa Victoria	3	Marzo	2023-03-18T00:00:00	2024-11-08T05:00:00	6	Velocidad del viento	1.6
95906	7	Sololá	701	Sololá	4	Finca Santa Victoria	3	Marzo	2023-03-18T00:00:00	2024-11-08T05:00:00	7	Dirección del viento	1.61
95907	7	Sololá	701	Sololá	4	Finca Santa Victoria	3	Marzo	2023-03-18T00:00:00	2024-11-08T05:00:00	1	Precipitación	0
95908	7	Sololá	701	Sololá	4	Finca Santa Victoria	3	Marzo	2023-03-18T00:00:00	2024-11-08T05:00:00	8	Radiación solar	0
95909	7	Sololá	701	Sololá	4	Finca Santa Victoria	3	Marzo	2023-03-18T00:00:00	2024-11-08T06:00:00	2	Temperatura media	9.2
95910	7	Sololá	701	Sololá	4	Finca Santa Victoria	3	Marzo	2023-03-18T00:00:00	2024-11-08T06:00:00	4	Temperatura máxima	9.9
95911	7	Sololá	701	Sololá	4	Finca Santa Victoria	3	Marzo	2023-03-18T00:00:00	2024-11-08T06:00:00	3	Temperatura mínima	9.2
95912	7	Sololá	701	Sololá	4	Finca Santa Victoria	3	Marzo	2023-03-18T00:00:00	2024-11-08T06:00:00	5	Humedad	88
95913	7	Sololá	701	Sololá	4	Finca Santa Victoria	3	Marzo	2023-03-18T00:00:00	2024-11-08T06:00:00	6	Velocidad del viento	3.2
95914	7	Sololá	701	Sololá	4	Finca Santa Victoria	3	Marzo	2023-03-18T00:00:00	2024-11-08T06:00:00	7	Dirección del viento	3.22
95915	7	Sololá	701	Sololá	4	Finca Santa Victoria	3	Marzo	2023-03-18T00:00:00	2024-11-08T06:00:00	1	Precipitación	0.2
95916	7	Sololá	701	Sololá	4	Finca Santa Victoria	3	Marzo	2023-03-18T00:00:00	2024-11-08T06:00:00	8	Radiación solar	0
95917	7	Sololá	701	Sololá	4	Finca Santa Victoria	3	Marzo	2023-03-18T00:00:00	2024-11-08T07:00:00	2	Temperatura media	10.2
95918	7	Sololá	701	Sololá	4	Finca Santa Victoria	3	Marzo	2023-03-18T00:00:00	2024-11-08T07:00:00	4	Temperatura máxima	10.3
95919	7	Sololá	701	Sololá	4	Finca Santa Victoria	3	Marzo	2023-03-18T00:00:00	2024-11-08T07:00:00	3	Temperatura mínima	9.2
95920	7	Sololá	701	Sololá	4	Finca Santa Victoria	3	Marzo	2023-03-18T00:00:00	2024-11-08T07:00:00	5	Humedad	79
95921	7	Sololá	701	Sololá	4	Finca Santa Victoria	3	Marzo	2023-03-18T00:00:00	2024-11-08T07:00:00	6	Velocidad del viento	1.6
95922	7	Sololá	701	Sololá	4	Finca Santa Victoria	3	Marzo	2023-03-18T00:00:00	2024-11-08T07:00:00	7	Dirección del viento	1.61
95923	7	Sololá	701	Sololá	4	Finca Santa Victoria	3	Marzo	2023-03-18T00:00:00	2024-11-08T07:00:00	1	Precipitación	0
95924	7	Sololá	701	Sololá	4	Finca Santa Victoria	3	Marzo	2023-03-18T00:00:00	2024-11-08T07:00:00	8	Radiación solar	10
95925	7	Sololá	701	Sololá	4	Finca Santa Victoria	3	Marzo	2023-03-18T00:00:00	2024-11-08T08:00:00	2	Temperatura media	14.9
95926	7	Sololá	701	Sololá	4	Finca Santa Victoria	3	Marzo	2023-03-18T00:00:00	2024-11-08T08:00:00	4	Temperatura máxima	14.9
95927	7	Sololá	701	Sololá	4	Finca Santa Victoria	3	Marzo	2023-03-18T00:00:00	2024-11-08T08:00:00	3	Temperatura mínima	10.2
95928	7	Sololá	701	Sololá	4	Finca Santa Victoria	3	Marzo	2023-03-18T00:00:00	2024-11-08T08:00:00	5	Humedad	78
95929	7	Sololá	701	Sololá	4	Finca Santa Victoria	3	Marzo	2023-03-18T00:00:00	2024-11-08T08:00:00	6	Velocidad del viento	1.6
95930	7	Sololá	701	Sololá	4	Finca Santa Victoria	3	Marzo	2023-03-18T00:00:00	2024-11-08T08:00:00	7	Dirección del viento	1.61
95931	7	Sololá	701	Sololá	4	Finca Santa Victoria	3	Marzo	2023-03-18T00:00:00	2024-11-08T08:00:00	1	Precipitación	0
95932	7	Sololá	701	Sololá	4	Finca Santa Victoria	3	Marzo	2023-03-18T00:00:00	2024-11-08T08:00:00	8	Radiación solar	201
95933	7	Sololá	701	Sololá	4	Finca Santa Victoria	3	Marzo	2023-03-18T00:00:00	2024-11-08T09:00:00	2	Temperatura media	17.3
95934	7	Sololá	701	Sololá	4	Finca Santa Victoria	3	Marzo	2023-03-18T00:00:00	2024-11-08T09:00:00	4	Temperatura máxima	17.3
95935	7	Sololá	701	Sololá	4	Finca Santa Victoria	3	Marzo	2023-03-18T00:00:00	2024-11-08T09:00:00	3	Temperatura mínima	14.9
95936	7	Sololá	701	Sololá	4	Finca Santa Victoria	3	Marzo	2023-03-18T00:00:00	2024-11-08T09:00:00	5	Humedad	69
95937	7	Sololá	701	Sololá	4	Finca Santa Victoria	3	Marzo	2023-03-18T00:00:00	2024-11-08T09:00:00	6	Velocidad del viento	1.6
95938	7	Sololá	701	Sololá	4	Finca Santa Victoria	3	Marzo	2023-03-18T00:00:00	2024-11-08T09:00:00	7	Dirección del viento	1.61
95939	7	Sololá	701	Sololá	4	Finca Santa Victoria	3	Marzo	2023-03-18T00:00:00	2024-11-08T09:00:00	1	Precipitación	0
95940	7	Sololá	701	Sololá	4	Finca Santa Victoria	3	Marzo	2023-03-18T00:00:00	2024-11-08T09:00:00	8	Radiación solar	496
95941	7	Sololá	701	Sololá	4	Finca Santa Victoria	3	Marzo	2023-03-18T00:00:00	2024-11-08T10:00:00	2	Temperatura media	17.7
95942	7	Sololá	701	Sololá	4	Finca Santa Victoria	3	Marzo	2023-03-18T00:00:00	2024-11-08T10:00:00	4	Temperatura máxima	18.5
95943	7	Sololá	701	Sololá	4	Finca Santa Victoria	3	Marzo	2023-03-18T00:00:00	2024-11-08T10:00:00	3	Temperatura mínima	17.3
95944	7	Sololá	701	Sololá	4	Finca Santa Victoria	3	Marzo	2023-03-18T00:00:00	2024-11-08T10:00:00	5	Humedad	71
95945	7	Sololá	701	Sololá	4	Finca Santa Victoria	3	Marzo	2023-03-18T00:00:00	2024-11-08T10:00:00	6	Velocidad del viento	3.2
95946	7	Sololá	701	Sololá	4	Finca Santa Victoria	3	Marzo	2023-03-18T00:00:00	2024-11-08T10:00:00	7	Dirección del viento	3.22
95947	7	Sololá	701	Sololá	4	Finca Santa Victoria	3	Marzo	2023-03-18T00:00:00	2024-11-08T10:00:00	1	Precipitación	0
95948	7	Sololá	701	Sololá	4	Finca Santa Victoria	3	Marzo	2023-03-18T00:00:00	2024-11-08T10:00:00	8	Radiación solar	740
95949	7	Sololá	701	Sololá	4	Finca Santa Victoria	3	Marzo	2023-03-18T00:00:00	2024-11-08T11:00:00	2	Temperatura media	18
95950	7	Sololá	701	Sololá	4	Finca Santa Victoria	3	Marzo	2023-03-18T00:00:00	2024-11-08T11:00:00	4	Temperatura máxima	18.2
95951	7	Sololá	701	Sololá	4	Finca Santa Victoria	3	Marzo	2023-03-18T00:00:00	2024-11-08T11:00:00	3	Temperatura mínima	17.7
95952	7	Sololá	701	Sololá	4	Finca Santa Victoria	3	Marzo	2023-03-18T00:00:00	2024-11-08T11:00:00	5	Humedad	73
95953	7	Sololá	701	Sololá	4	Finca Santa Victoria	3	Marzo	2023-03-18T00:00:00	2024-11-08T11:00:00	6	Velocidad del viento	4.8
95954	7	Sololá	701	Sololá	4	Finca Santa Victoria	3	Marzo	2023-03-18T00:00:00	2024-11-08T11:00:00	7	Dirección del viento	4.83
95955	7	Sololá	701	Sololá	4	Finca Santa Victoria	3	Marzo	2023-03-18T00:00:00	2024-11-08T11:00:00	1	Precipitación	0
95956	7	Sololá	701	Sololá	4	Finca Santa Victoria	3	Marzo	2023-03-18T00:00:00	2024-11-08T11:00:00	8	Radiación solar	900
95957	7	Sololá	701	Sololá	4	Finca Santa Victoria	3	Marzo	2023-03-18T00:00:00	2024-11-08T12:00:00	2	Temperatura media	18.4
95958	7	Sololá	701	Sololá	4	Finca Santa Victoria	3	Marzo	2023-03-18T00:00:00	2024-11-08T12:00:00	4	Temperatura máxima	18.7
95959	7	Sololá	701	Sololá	4	Finca Santa Victoria	3	Marzo	2023-03-18T00:00:00	2024-11-08T12:00:00	3	Temperatura mínima	17.9
95960	7	Sololá	701	Sololá	4	Finca Santa Victoria	3	Marzo	2023-03-18T00:00:00	2024-11-08T12:00:00	5	Humedad	75
95961	7	Sololá	701	Sololá	4	Finca Santa Victoria	3	Marzo	2023-03-18T00:00:00	2024-11-08T12:00:00	6	Velocidad del viento	4.8
95962	7	Sololá	701	Sololá	4	Finca Santa Victoria	3	Marzo	2023-03-18T00:00:00	2024-11-08T12:00:00	7	Dirección del viento	4.83
95963	7	Sololá	701	Sololá	4	Finca Santa Victoria	3	Marzo	2023-03-18T00:00:00	2024-11-08T12:00:00	1	Precipitación	0
95964	7	Sololá	701	Sololá	4	Finca Santa Victoria	3	Marzo	2023-03-18T00:00:00	2024-11-08T12:00:00	8	Radiación solar	992
95965	7	Sololá	701	Sololá	4	Finca Santa Victoria	3	Marzo	2023-03-18T00:00:00	2024-11-08T13:00:00	2	Temperatura media	17.7
95966	7	Sololá	701	Sololá	4	Finca Santa Victoria	3	Marzo	2023-03-18T00:00:00	2024-11-08T13:00:00	4	Temperatura máxima	18.5
95967	7	Sololá	701	Sololá	4	Finca Santa Victoria	3	Marzo	2023-03-18T00:00:00	2024-11-08T13:00:00	3	Temperatura mínima	17.4
95968	7	Sololá	701	Sololá	4	Finca Santa Victoria	3	Marzo	2023-03-18T00:00:00	2024-11-08T13:00:00	5	Humedad	80
95969	7	Sololá	701	Sololá	4	Finca Santa Victoria	3	Marzo	2023-03-18T00:00:00	2024-11-08T13:00:00	6	Velocidad del viento	4.8
95970	7	Sololá	701	Sololá	4	Finca Santa Victoria	3	Marzo	2023-03-18T00:00:00	2024-11-08T13:00:00	7	Dirección del viento	4.83
95971	7	Sololá	701	Sololá	4	Finca Santa Victoria	3	Marzo	2023-03-18T00:00:00	2024-11-08T13:00:00	1	Precipitación	0
95972	7	Sololá	701	Sololá	4	Finca Santa Victoria	3	Marzo	2023-03-18T00:00:00	2024-11-08T13:00:00	8	Radiación solar	736
95973	7	Sololá	701	Sololá	4	Finca Santa Victoria	3	Marzo	2023-03-18T00:00:00	2024-11-08T14:00:00	2	Temperatura media	16.2
95974	7	Sololá	701	Sololá	4	Finca Santa Victoria	3	Marzo	2023-03-18T00:00:00	2024-11-08T14:00:00	4	Temperatura máxima	17.7
95975	7	Sololá	701	Sololá	4	Finca Santa Victoria	3	Marzo	2023-03-18T00:00:00	2024-11-08T14:00:00	3	Temperatura mínima	16.1
95976	7	Sololá	701	Sololá	4	Finca Santa Victoria	3	Marzo	2023-03-18T00:00:00	2024-11-08T14:00:00	5	Humedad	86
95977	7	Sololá	701	Sololá	4	Finca Santa Victoria	3	Marzo	2023-03-18T00:00:00	2024-11-08T14:00:00	6	Velocidad del viento	4.8
95978	7	Sololá	701	Sololá	4	Finca Santa Victoria	3	Marzo	2023-03-18T00:00:00	2024-11-08T14:00:00	7	Dirección del viento	4.83
95979	7	Sololá	701	Sololá	4	Finca Santa Victoria	3	Marzo	2023-03-18T00:00:00	2024-11-08T14:00:00	1	Precipitación	0
95980	7	Sololá	701	Sololá	4	Finca Santa Victoria	3	Marzo	2023-03-18T00:00:00	2024-11-08T14:00:00	8	Radiación solar	288
95981	7	Sololá	701	Sololá	4	Finca Santa Victoria	3	Marzo	2023-03-18T00:00:00	2024-11-08T15:00:00	2	Temperatura media	15.7
95982	7	Sololá	701	Sololá	4	Finca Santa Victoria	3	Marzo	2023-03-18T00:00:00	2024-11-08T15:00:00	4	Temperatura máxima	16.2
95983	7	Sololá	701	Sololá	4	Finca Santa Victoria	3	Marzo	2023-03-18T00:00:00	2024-11-08T15:00:00	3	Temperatura mínima	15.7
95984	7	Sololá	701	Sololá	4	Finca Santa Victoria	3	Marzo	2023-03-18T00:00:00	2024-11-08T15:00:00	5	Humedad	90
95985	7	Sololá	701	Sololá	4	Finca Santa Victoria	3	Marzo	2023-03-18T00:00:00	2024-11-08T15:00:00	6	Velocidad del viento	4.8
95986	7	Sololá	701	Sololá	4	Finca Santa Victoria	3	Marzo	2023-03-18T00:00:00	2024-11-08T15:00:00	7	Dirección del viento	4.83
95987	7	Sololá	701	Sololá	4	Finca Santa Victoria	3	Marzo	2023-03-18T00:00:00	2024-11-08T15:00:00	1	Precipitación	0
95988	7	Sololá	701	Sololá	4	Finca Santa Victoria	3	Marzo	2023-03-18T00:00:00	2024-11-08T15:00:00	8	Radiación solar	152
95989	7	Sololá	701	Sololá	4	Finca Santa Victoria	3	Marzo	2023-03-18T00:00:00	2024-11-08T16:00:00	2	Temperatura media	15.8
95990	7	Sololá	701	Sololá	4	Finca Santa Victoria	3	Marzo	2023-03-18T00:00:00	2024-11-08T16:00:00	4	Temperatura máxima	15.9
95991	7	Sololá	701	Sololá	4	Finca Santa Victoria	3	Marzo	2023-03-18T00:00:00	2024-11-08T16:00:00	3	Temperatura mínima	15.6
95992	7	Sololá	701	Sololá	4	Finca Santa Victoria	3	Marzo	2023-03-18T00:00:00	2024-11-08T16:00:00	5	Humedad	88
95993	7	Sololá	701	Sololá	4	Finca Santa Victoria	3	Marzo	2023-03-18T00:00:00	2024-11-08T16:00:00	6	Velocidad del viento	3.2
95994	7	Sololá	701	Sololá	4	Finca Santa Victoria	3	Marzo	2023-03-18T00:00:00	2024-11-08T16:00:00	7	Dirección del viento	3.22
95995	7	Sololá	701	Sololá	4	Finca Santa Victoria	3	Marzo	2023-03-18T00:00:00	2024-11-08T16:00:00	1	Precipitación	0
95996	7	Sololá	701	Sololá	4	Finca Santa Victoria	3	Marzo	2023-03-18T00:00:00	2024-11-08T16:00:00	8	Radiación solar	172
95997	7	Sololá	701	Sololá	4	Finca Santa Victoria	3	Marzo	2023-03-18T00:00:00	2024-11-08T17:00:00	2	Temperatura media	14.7
95998	7	Sololá	701	Sololá	4	Finca Santa Victoria	3	Marzo	2023-03-18T00:00:00	2024-11-08T17:00:00	4	Temperatura máxima	15.8
95999	7	Sololá	701	Sololá	4	Finca Santa Victoria	3	Marzo	2023-03-18T00:00:00	2024-11-08T17:00:00	3	Temperatura mínima	14.7
96000	7	Sololá	701	Sololá	4	Finca Santa Victoria	3	Marzo	2023-03-18T00:00:00	2024-11-08T17:00:00	5	Humedad	94
96001	7	Sololá	701	Sololá	4	Finca Santa Victoria	3	Marzo	2023-03-18T00:00:00	2024-11-08T17:00:00	6	Velocidad del viento	1.6
96002	7	Sololá	701	Sololá	4	Finca Santa Victoria	3	Marzo	2023-03-18T00:00:00	2024-11-08T17:00:00	7	Dirección del viento	1.61
96003	7	Sololá	701	Sololá	4	Finca Santa Victoria	3	Marzo	2023-03-18T00:00:00	2024-11-08T17:00:00	1	Precipitación	0
96004	7	Sololá	701	Sololá	4	Finca Santa Victoria	3	Marzo	2023-03-18T00:00:00	2024-11-08T17:00:00	8	Radiación solar	57
96005	7	Sololá	701	Sololá	4	Finca Santa Victoria	3	Marzo	2023-03-18T00:00:00	2024-11-08T18:00:00	2	Temperatura media	13.4
96006	7	Sololá	701	Sololá	4	Finca Santa Victoria	3	Marzo	2023-03-18T00:00:00	2024-11-08T18:00:00	4	Temperatura máxima	14.7
96007	7	Sololá	701	Sololá	4	Finca Santa Victoria	3	Marzo	2023-03-18T00:00:00	2024-11-08T18:00:00	3	Temperatura mínima	13.4
96008	7	Sololá	701	Sololá	4	Finca Santa Victoria	3	Marzo	2023-03-18T00:00:00	2024-11-08T18:00:00	5	Humedad	96
96009	7	Sololá	701	Sololá	4	Finca Santa Victoria	3	Marzo	2023-03-18T00:00:00	2024-11-08T18:00:00	6	Velocidad del viento	1.6
96010	7	Sololá	701	Sololá	4	Finca Santa Victoria	3	Marzo	2023-03-18T00:00:00	2024-11-08T18:00:00	7	Dirección del viento	1.61
96011	7	Sololá	701	Sololá	4	Finca Santa Victoria	3	Marzo	2023-03-18T00:00:00	2024-11-08T18:00:00	1	Precipitación	0.8
96012	7	Sololá	701	Sololá	4	Finca Santa Victoria	3	Marzo	2023-03-18T00:00:00	2024-11-08T18:00:00	8	Radiación solar	17
96013	7	Sololá	701	Sololá	4	Finca Santa Victoria	3	Marzo	2023-03-18T00:00:00	2024-11-08T19:00:00	2	Temperatura media	12.9
96014	7	Sololá	701	Sololá	4	Finca Santa Victoria	3	Marzo	2023-03-18T00:00:00	2024-11-08T19:00:00	4	Temperatura máxima	13.4
96015	7	Sololá	701	Sololá	4	Finca Santa Victoria	3	Marzo	2023-03-18T00:00:00	2024-11-08T19:00:00	3	Temperatura mínima	12.9
96016	7	Sololá	701	Sololá	4	Finca Santa Victoria	3	Marzo	2023-03-18T00:00:00	2024-11-08T19:00:00	5	Humedad	97
96017	7	Sololá	701	Sololá	4	Finca Santa Victoria	3	Marzo	2023-03-18T00:00:00	2024-11-08T19:00:00	6	Velocidad del viento	0
96018	7	Sololá	701	Sololá	4	Finca Santa Victoria	3	Marzo	2023-03-18T00:00:00	2024-11-08T19:00:00	7	Dirección del viento	0
96019	7	Sololá	701	Sololá	4	Finca Santa Victoria	3	Marzo	2023-03-18T00:00:00	2024-11-08T19:00:00	1	Precipitación	0
96020	7	Sololá	701	Sololá	4	Finca Santa Victoria	3	Marzo	2023-03-18T00:00:00	2024-11-08T19:00:00	8	Radiación solar	0
96021	7	Sololá	701	Sololá	4	Finca Santa Victoria	3	Marzo	2023-03-18T00:00:00	2024-11-08T20:00:00	2	Temperatura media	12.7
96022	7	Sololá	701	Sololá	4	Finca Santa Victoria	3	Marzo	2023-03-18T00:00:00	2024-11-08T20:00:00	4	Temperatura máxima	12.9
96023	7	Sololá	701	Sololá	4	Finca Santa Victoria	3	Marzo	2023-03-18T00:00:00	2024-11-08T20:00:00	3	Temperatura mínima	12.7
96024	7	Sololá	701	Sololá	4	Finca Santa Victoria	3	Marzo	2023-03-18T00:00:00	2024-11-08T20:00:00	5	Humedad	97
96025	7	Sololá	701	Sololá	4	Finca Santa Victoria	3	Marzo	2023-03-18T00:00:00	2024-11-08T20:00:00	6	Velocidad del viento	0
96026	7	Sololá	701	Sololá	4	Finca Santa Victoria	3	Marzo	2023-03-18T00:00:00	2024-11-08T20:00:00	7	Dirección del viento	0
96027	7	Sololá	701	Sololá	4	Finca Santa Victoria	3	Marzo	2023-03-18T00:00:00	2024-11-08T20:00:00	1	Precipitación	0
96028	7	Sololá	701	Sololá	4	Finca Santa Victoria	3	Marzo	2023-03-18T00:00:00	2024-11-08T20:00:00	8	Radiación solar	0
96029	7	Sololá	701	Sololá	4	Finca Santa Victoria	3	Marzo	2023-03-18T00:00:00	2024-11-08T21:00:00	2	Temperatura media	12.7
96030	7	Sololá	701	Sololá	4	Finca Santa Victoria	3	Marzo	2023-03-18T00:00:00	2024-11-08T21:00:00	4	Temperatura máxima	12.8
96031	7	Sololá	701	Sololá	4	Finca Santa Victoria	3	Marzo	2023-03-18T00:00:00	2024-11-08T21:00:00	3	Temperatura mínima	12.5
96032	7	Sololá	701	Sololá	4	Finca Santa Victoria	3	Marzo	2023-03-18T00:00:00	2024-11-08T21:00:00	5	Humedad	98
96033	7	Sololá	701	Sololá	4	Finca Santa Victoria	3	Marzo	2023-03-18T00:00:00	2024-11-08T21:00:00	6	Velocidad del viento	0
96034	7	Sololá	701	Sololá	4	Finca Santa Victoria	3	Marzo	2023-03-18T00:00:00	2024-11-08T21:00:00	7	Dirección del viento	0
96035	7	Sololá	701	Sololá	4	Finca Santa Victoria	3	Marzo	2023-03-18T00:00:00	2024-11-08T21:00:00	1	Precipitación	0
96036	7	Sololá	701	Sololá	4	Finca Santa Victoria	3	Marzo	2023-03-18T00:00:00	2024-11-08T21:00:00	8	Radiación solar	0
96037	7	Sololá	701	Sololá	4	Finca Santa Victoria	3	Marzo	2023-03-18T00:00:00	2024-11-08T22:00:00	2	Temperatura media	11.9
96038	7	Sololá	701	Sololá	4	Finca Santa Victoria	3	Marzo	2023-03-18T00:00:00	2024-11-08T22:00:00	4	Temperatura máxima	12.7
96039	7	Sololá	701	Sololá	4	Finca Santa Victoria	3	Marzo	2023-03-18T00:00:00	2024-11-08T22:00:00	3	Temperatura mínima	11.9
96040	7	Sololá	701	Sololá	4	Finca Santa Victoria	3	Marzo	2023-03-18T00:00:00	2024-11-08T22:00:00	5	Humedad	98
96041	7	Sololá	701	Sololá	4	Finca Santa Victoria	3	Marzo	2023-03-18T00:00:00	2024-11-08T22:00:00	6	Velocidad del viento	1.6
96042	7	Sololá	701	Sololá	4	Finca Santa Victoria	3	Marzo	2023-03-18T00:00:00	2024-11-08T22:00:00	7	Dirección del viento	1.61
96043	7	Sololá	701	Sololá	4	Finca Santa Victoria	3	Marzo	2023-03-18T00:00:00	2024-11-08T22:00:00	1	Precipitación	0.2
96044	7	Sololá	701	Sololá	4	Finca Santa Victoria	3	Marzo	2023-03-18T00:00:00	2024-11-08T22:00:00	8	Radiación solar	0
96045	7	Sololá	701	Sololá	4	Finca Santa Victoria	3	Marzo	2023-03-18T00:00:00	2024-11-08T23:00:00	2	Temperatura media	12.3
96046	7	Sololá	701	Sololá	4	Finca Santa Victoria	3	Marzo	2023-03-18T00:00:00	2024-11-08T23:00:00	4	Temperatura máxima	12.4
96047	7	Sololá	701	Sololá	4	Finca Santa Victoria	3	Marzo	2023-03-18T00:00:00	2024-11-08T23:00:00	3	Temperatura mínima	11.8
96048	7	Sololá	701	Sololá	4	Finca Santa Victoria	3	Marzo	2023-03-18T00:00:00	2024-11-08T23:00:00	5	Humedad	98
96049	7	Sololá	701	Sololá	4	Finca Santa Victoria	3	Marzo	2023-03-18T00:00:00	2024-11-08T23:00:00	6	Velocidad del viento	1.6
96050	7	Sololá	701	Sololá	4	Finca Santa Victoria	3	Marzo	2023-03-18T00:00:00	2024-11-08T23:00:00	7	Dirección del viento	1.61
96051	7	Sololá	701	Sololá	4	Finca Santa Victoria	3	Marzo	2023-03-18T00:00:00	2024-11-08T23:00:00	1	Precipitación	0
96052	7	Sololá	701	Sololá	4	Finca Santa Victoria	3	Marzo	2023-03-18T00:00:00	2024-11-08T23:00:00	8	Radiación solar	0
96053	7	Sololá	701	Sololá	4	Finca Santa Victoria	3	Marzo	2023-03-19T00:00:00	2024-11-08T00:00:00	2	Temperatura media	12.3
96054	7	Sololá	701	Sololá	4	Finca Santa Victoria	3	Marzo	2023-03-19T00:00:00	2024-11-08T00:00:00	4	Temperatura máxima	12.4
96055	7	Sololá	701	Sololá	4	Finca Santa Victoria	3	Marzo	2023-03-19T00:00:00	2024-11-08T00:00:00	3	Temperatura mínima	12.3
96056	7	Sololá	701	Sololá	4	Finca Santa Victoria	3	Marzo	2023-03-19T00:00:00	2024-11-08T00:00:00	5	Humedad	98
96057	7	Sololá	701	Sololá	4	Finca Santa Victoria	3	Marzo	2023-03-19T00:00:00	2024-11-08T00:00:00	6	Velocidad del viento	1.6
96058	7	Sololá	701	Sololá	4	Finca Santa Victoria	3	Marzo	2023-03-19T00:00:00	2024-11-08T00:00:00	7	Dirección del viento	1.61
96059	7	Sololá	701	Sololá	4	Finca Santa Victoria	3	Marzo	2023-03-19T00:00:00	2024-11-08T00:00:00	1	Precipitación	0
96060	7	Sololá	701	Sololá	4	Finca Santa Victoria	3	Marzo	2023-03-19T00:00:00	2024-11-08T00:00:00	8	Radiación solar	0
96061	7	Sololá	701	Sololá	4	Finca Santa Victoria	3	Marzo	2023-03-19T00:00:00	2024-11-08T01:00:00	2	Temperatura media	12.2
96062	7	Sololá	701	Sololá	4	Finca Santa Victoria	3	Marzo	2023-03-19T00:00:00	2024-11-08T01:00:00	4	Temperatura máxima	12.3
96063	7	Sololá	701	Sololá	4	Finca Santa Victoria	3	Marzo	2023-03-19T00:00:00	2024-11-08T01:00:00	3	Temperatura mínima	12.1
96064	7	Sololá	701	Sololá	4	Finca Santa Victoria	3	Marzo	2023-03-19T00:00:00	2024-11-08T01:00:00	5	Humedad	96
96065	7	Sololá	701	Sololá	4	Finca Santa Victoria	3	Marzo	2023-03-19T00:00:00	2024-11-08T01:00:00	6	Velocidad del viento	0
96066	7	Sololá	701	Sololá	4	Finca Santa Victoria	3	Marzo	2023-03-19T00:00:00	2024-11-08T01:00:00	7	Dirección del viento	0
96067	7	Sololá	701	Sololá	4	Finca Santa Victoria	3	Marzo	2023-03-19T00:00:00	2024-11-08T01:00:00	1	Precipitación	0
96068	7	Sololá	701	Sololá	4	Finca Santa Victoria	3	Marzo	2023-03-19T00:00:00	2024-11-08T01:00:00	8	Radiación solar	0
96069	7	Sololá	701	Sololá	4	Finca Santa Victoria	3	Marzo	2023-03-19T00:00:00	2024-11-08T02:00:00	2	Temperatura media	12.3
96070	7	Sololá	701	Sololá	4	Finca Santa Victoria	3	Marzo	2023-03-19T00:00:00	2024-11-08T02:00:00	4	Temperatura máxima	12.3
96071	7	Sololá	701	Sololá	4	Finca Santa Victoria	3	Marzo	2023-03-19T00:00:00	2024-11-08T02:00:00	3	Temperatura mínima	12.2
96072	7	Sololá	701	Sololá	4	Finca Santa Victoria	3	Marzo	2023-03-19T00:00:00	2024-11-08T02:00:00	5	Humedad	98
96073	7	Sololá	701	Sololá	4	Finca Santa Victoria	3	Marzo	2023-03-19T00:00:00	2024-11-08T02:00:00	6	Velocidad del viento	0
96074	7	Sololá	701	Sololá	4	Finca Santa Victoria	3	Marzo	2023-03-19T00:00:00	2024-11-08T02:00:00	7	Dirección del viento	0
96075	7	Sololá	701	Sololá	4	Finca Santa Victoria	3	Marzo	2023-03-19T00:00:00	2024-11-08T02:00:00	1	Precipitación	0
96076	7	Sololá	701	Sololá	4	Finca Santa Victoria	3	Marzo	2023-03-19T00:00:00	2024-11-08T02:00:00	8	Radiación solar	0
96077	7	Sololá	701	Sololá	4	Finca Santa Victoria	3	Marzo	2023-03-19T00:00:00	2024-11-08T03:00:00	2	Temperatura media	12.1
96078	7	Sololá	701	Sololá	4	Finca Santa Victoria	3	Marzo	2023-03-19T00:00:00	2024-11-08T03:00:00	4	Temperatura máxima	12.4
96079	7	Sololá	701	Sololá	4	Finca Santa Victoria	3	Marzo	2023-03-19T00:00:00	2024-11-08T03:00:00	3	Temperatura mínima	12
96080	7	Sololá	701	Sololá	4	Finca Santa Victoria	3	Marzo	2023-03-19T00:00:00	2024-11-08T03:00:00	5	Humedad	97
96081	7	Sololá	701	Sololá	4	Finca Santa Victoria	3	Marzo	2023-03-19T00:00:00	2024-11-08T03:00:00	6	Velocidad del viento	0
96082	7	Sololá	701	Sololá	4	Finca Santa Victoria	3	Marzo	2023-03-19T00:00:00	2024-11-08T03:00:00	7	Dirección del viento	0
96083	7	Sololá	701	Sololá	4	Finca Santa Victoria	3	Marzo	2023-03-19T00:00:00	2024-11-08T03:00:00	1	Precipitación	0
96084	7	Sololá	701	Sololá	4	Finca Santa Victoria	3	Marzo	2023-03-19T00:00:00	2024-11-08T03:00:00	8	Radiación solar	0
96085	7	Sololá	701	Sololá	4	Finca Santa Victoria	3	Marzo	2023-03-19T00:00:00	2024-11-08T04:00:00	2	Temperatura media	12.1
96086	7	Sololá	701	Sololá	4	Finca Santa Victoria	3	Marzo	2023-03-19T00:00:00	2024-11-08T04:00:00	4	Temperatura máxima	12.2
96087	7	Sololá	701	Sololá	4	Finca Santa Victoria	3	Marzo	2023-03-19T00:00:00	2024-11-08T04:00:00	3	Temperatura mínima	12
96088	7	Sololá	701	Sololá	4	Finca Santa Victoria	3	Marzo	2023-03-19T00:00:00	2024-11-08T04:00:00	5	Humedad	97
96089	7	Sololá	701	Sololá	4	Finca Santa Victoria	3	Marzo	2023-03-19T00:00:00	2024-11-08T04:00:00	6	Velocidad del viento	0
96090	7	Sololá	701	Sololá	4	Finca Santa Victoria	3	Marzo	2023-03-19T00:00:00	2024-11-08T04:00:00	7	Dirección del viento	0
96091	7	Sololá	701	Sololá	4	Finca Santa Victoria	3	Marzo	2023-03-19T00:00:00	2024-11-08T04:00:00	1	Precipitación	0
96092	7	Sololá	701	Sololá	4	Finca Santa Victoria	3	Marzo	2023-03-19T00:00:00	2024-11-08T04:00:00	8	Radiación solar	0
96093	7	Sololá	701	Sololá	4	Finca Santa Victoria	3	Marzo	2023-03-19T00:00:00	2024-11-08T05:00:00	2	Temperatura media	11.6
96094	7	Sololá	701	Sololá	4	Finca Santa Victoria	3	Marzo	2023-03-19T00:00:00	2024-11-08T05:00:00	4	Temperatura máxima	12.1
96095	7	Sololá	701	Sololá	4	Finca Santa Victoria	3	Marzo	2023-03-19T00:00:00	2024-11-08T05:00:00	3	Temperatura mínima	11.5
96096	7	Sololá	701	Sololá	4	Finca Santa Victoria	3	Marzo	2023-03-19T00:00:00	2024-11-08T05:00:00	5	Humedad	96
96097	7	Sololá	701	Sololá	4	Finca Santa Victoria	3	Marzo	2023-03-19T00:00:00	2024-11-08T05:00:00	6	Velocidad del viento	0
96098	7	Sololá	701	Sololá	4	Finca Santa Victoria	3	Marzo	2023-03-19T00:00:00	2024-11-08T05:00:00	7	Dirección del viento	0
96099	7	Sololá	701	Sololá	4	Finca Santa Victoria	3	Marzo	2023-03-19T00:00:00	2024-11-08T05:00:00	1	Precipitación	0
96100	7	Sololá	701	Sololá	4	Finca Santa Victoria	3	Marzo	2023-03-19T00:00:00	2024-11-08T05:00:00	8	Radiación solar	0
96101	7	Sololá	701	Sololá	4	Finca Santa Victoria	3	Marzo	2023-03-19T00:00:00	2024-11-08T06:00:00	2	Temperatura media	11.1
96102	7	Sololá	701	Sololá	4	Finca Santa Victoria	3	Marzo	2023-03-19T00:00:00	2024-11-08T06:00:00	4	Temperatura máxima	11.6
96103	7	Sololá	701	Sololá	4	Finca Santa Victoria	3	Marzo	2023-03-19T00:00:00	2024-11-08T06:00:00	3	Temperatura mínima	11.1
96104	7	Sololá	701	Sololá	4	Finca Santa Victoria	3	Marzo	2023-03-19T00:00:00	2024-11-08T06:00:00	5	Humedad	96
96105	7	Sololá	701	Sololá	4	Finca Santa Victoria	3	Marzo	2023-03-19T00:00:00	2024-11-08T06:00:00	6	Velocidad del viento	0
96106	7	Sololá	701	Sololá	4	Finca Santa Victoria	3	Marzo	2023-03-19T00:00:00	2024-11-08T06:00:00	7	Dirección del viento	0
96107	7	Sololá	701	Sololá	4	Finca Santa Victoria	3	Marzo	2023-03-19T00:00:00	2024-11-08T06:00:00	1	Precipitación	0
96108	7	Sololá	701	Sololá	4	Finca Santa Victoria	3	Marzo	2023-03-19T00:00:00	2024-11-08T06:00:00	8	Radiación solar	0
96109	7	Sololá	701	Sololá	4	Finca Santa Victoria	3	Marzo	2023-03-19T00:00:00	2024-11-08T07:00:00	2	Temperatura media	11.6
96110	7	Sololá	701	Sololá	4	Finca Santa Victoria	3	Marzo	2023-03-19T00:00:00	2024-11-08T07:00:00	4	Temperatura máxima	11.6
96111	7	Sololá	701	Sololá	4	Finca Santa Victoria	3	Marzo	2023-03-19T00:00:00	2024-11-08T07:00:00	3	Temperatura mínima	10.8
96112	7	Sololá	701	Sololá	4	Finca Santa Victoria	3	Marzo	2023-03-19T00:00:00	2024-11-08T07:00:00	5	Humedad	94
96113	7	Sololá	701	Sololá	4	Finca Santa Victoria	3	Marzo	2023-03-19T00:00:00	2024-11-08T07:00:00	6	Velocidad del viento	0
96114	7	Sololá	701	Sololá	4	Finca Santa Victoria	3	Marzo	2023-03-19T00:00:00	2024-11-08T07:00:00	7	Dirección del viento	0
96115	7	Sololá	701	Sololá	4	Finca Santa Victoria	3	Marzo	2023-03-19T00:00:00	2024-11-08T07:00:00	1	Precipitación	0
96116	7	Sololá	701	Sololá	4	Finca Santa Victoria	3	Marzo	2023-03-19T00:00:00	2024-11-08T07:00:00	8	Radiación solar	12
96117	7	Sololá	701	Sololá	4	Finca Santa Victoria	3	Marzo	2023-03-19T00:00:00	2024-11-08T08:00:00	2	Temperatura media	15
96118	7	Sololá	701	Sololá	4	Finca Santa Victoria	3	Marzo	2023-03-19T00:00:00	2024-11-08T08:00:00	4	Temperatura máxima	15.2
96119	7	Sololá	701	Sololá	4	Finca Santa Victoria	3	Marzo	2023-03-19T00:00:00	2024-11-08T08:00:00	3	Temperatura mínima	11.6
96120	7	Sololá	701	Sololá	4	Finca Santa Victoria	3	Marzo	2023-03-19T00:00:00	2024-11-08T08:00:00	5	Humedad	86
96121	7	Sololá	701	Sololá	4	Finca Santa Victoria	3	Marzo	2023-03-19T00:00:00	2024-11-08T08:00:00	6	Velocidad del viento	1.6
96122	7	Sololá	701	Sololá	4	Finca Santa Victoria	3	Marzo	2023-03-19T00:00:00	2024-11-08T08:00:00	7	Dirección del viento	1.61
96123	7	Sololá	701	Sololá	4	Finca Santa Victoria	3	Marzo	2023-03-19T00:00:00	2024-11-08T08:00:00	1	Precipitación	0
96124	7	Sololá	701	Sololá	4	Finca Santa Victoria	3	Marzo	2023-03-19T00:00:00	2024-11-08T08:00:00	8	Radiación solar	189
96125	7	Sololá	701	Sololá	4	Finca Santa Victoria	3	Marzo	2023-03-19T00:00:00	2024-11-08T09:00:00	2	Temperatura media	17.2
96126	7	Sololá	701	Sololá	4	Finca Santa Victoria	3	Marzo	2023-03-19T00:00:00	2024-11-08T09:00:00	4	Temperatura máxima	17.2
96127	7	Sololá	701	Sololá	4	Finca Santa Victoria	3	Marzo	2023-03-19T00:00:00	2024-11-08T09:00:00	3	Temperatura mínima	14.7
96128	7	Sololá	701	Sololá	4	Finca Santa Victoria	3	Marzo	2023-03-19T00:00:00	2024-11-08T09:00:00	5	Humedad	76
96129	7	Sololá	701	Sololá	4	Finca Santa Victoria	3	Marzo	2023-03-19T00:00:00	2024-11-08T09:00:00	6	Velocidad del viento	3.2
96130	7	Sololá	701	Sololá	4	Finca Santa Victoria	3	Marzo	2023-03-19T00:00:00	2024-11-08T09:00:00	7	Dirección del viento	3.22
96131	7	Sololá	701	Sololá	4	Finca Santa Victoria	3	Marzo	2023-03-19T00:00:00	2024-11-08T09:00:00	1	Precipitación	0
96132	7	Sololá	701	Sololá	4	Finca Santa Victoria	3	Marzo	2023-03-19T00:00:00	2024-11-08T09:00:00	8	Radiación solar	489
96133	7	Sololá	701	Sololá	4	Finca Santa Victoria	3	Marzo	2023-03-19T00:00:00	2024-11-08T10:00:00	2	Temperatura media	17.8
96134	7	Sololá	701	Sololá	4	Finca Santa Victoria	3	Marzo	2023-03-19T00:00:00	2024-11-08T10:00:00	4	Temperatura máxima	18.9
96135	7	Sololá	701	Sololá	4	Finca Santa Victoria	3	Marzo	2023-03-19T00:00:00	2024-11-08T10:00:00	3	Temperatura mínima	17.3
96136	7	Sololá	701	Sololá	4	Finca Santa Victoria	3	Marzo	2023-03-19T00:00:00	2024-11-08T10:00:00	5	Humedad	73
96137	7	Sololá	701	Sololá	4	Finca Santa Victoria	3	Marzo	2023-03-19T00:00:00	2024-11-08T10:00:00	6	Velocidad del viento	3.2
96138	7	Sololá	701	Sololá	4	Finca Santa Victoria	3	Marzo	2023-03-19T00:00:00	2024-11-08T10:00:00	7	Dirección del viento	3.22
96139	7	Sololá	701	Sololá	4	Finca Santa Victoria	3	Marzo	2023-03-19T00:00:00	2024-11-08T10:00:00	1	Precipitación	0
96140	7	Sololá	701	Sololá	4	Finca Santa Victoria	3	Marzo	2023-03-19T00:00:00	2024-11-08T10:00:00	8	Radiación solar	754
96141	7	Sololá	701	Sololá	4	Finca Santa Victoria	3	Marzo	2023-03-19T00:00:00	2024-11-08T11:00:00	2	Temperatura media	17.4
96142	7	Sololá	701	Sololá	4	Finca Santa Victoria	3	Marzo	2023-03-19T00:00:00	2024-11-08T11:00:00	4	Temperatura máxima	18.9
96143	7	Sololá	701	Sololá	4	Finca Santa Victoria	3	Marzo	2023-03-19T00:00:00	2024-11-08T11:00:00	3	Temperatura mínima	17.3
96144	7	Sololá	701	Sololá	4	Finca Santa Victoria	3	Marzo	2023-03-19T00:00:00	2024-11-08T11:00:00	5	Humedad	77
96145	7	Sololá	701	Sololá	4	Finca Santa Victoria	3	Marzo	2023-03-19T00:00:00	2024-11-08T11:00:00	6	Velocidad del viento	3.2
96146	7	Sololá	701	Sololá	4	Finca Santa Victoria	3	Marzo	2023-03-19T00:00:00	2024-11-08T11:00:00	7	Dirección del viento	3.22
96147	7	Sololá	701	Sololá	4	Finca Santa Victoria	3	Marzo	2023-03-19T00:00:00	2024-11-08T11:00:00	1	Precipitación	0
96148	7	Sololá	701	Sololá	4	Finca Santa Victoria	3	Marzo	2023-03-19T00:00:00	2024-11-08T11:00:00	8	Radiación solar	574
96149	7	Sololá	701	Sololá	4	Finca Santa Victoria	3	Marzo	2023-03-19T00:00:00	2024-11-08T12:00:00	2	Temperatura media	18.3
96150	7	Sololá	701	Sololá	4	Finca Santa Victoria	3	Marzo	2023-03-19T00:00:00	2024-11-08T12:00:00	4	Temperatura máxima	18.5
96151	7	Sololá	701	Sololá	4	Finca Santa Victoria	3	Marzo	2023-03-19T00:00:00	2024-11-08T12:00:00	3	Temperatura mínima	17.4
96152	7	Sololá	701	Sololá	4	Finca Santa Victoria	3	Marzo	2023-03-19T00:00:00	2024-11-08T12:00:00	5	Humedad	78
96153	7	Sololá	701	Sololá	4	Finca Santa Victoria	3	Marzo	2023-03-19T00:00:00	2024-11-08T12:00:00	6	Velocidad del viento	3.2
96154	7	Sololá	701	Sololá	4	Finca Santa Victoria	3	Marzo	2023-03-19T00:00:00	2024-11-08T12:00:00	7	Dirección del viento	3.22
96155	7	Sololá	701	Sololá	4	Finca Santa Victoria	3	Marzo	2023-03-19T00:00:00	2024-11-08T12:00:00	1	Precipitación	0
96156	7	Sololá	701	Sololá	4	Finca Santa Victoria	3	Marzo	2023-03-19T00:00:00	2024-11-08T12:00:00	8	Radiación solar	407
96157	7	Sololá	701	Sololá	4	Finca Santa Victoria	3	Marzo	2023-03-19T00:00:00	2024-11-08T13:00:00	2	Temperatura media	17.7
96158	7	Sololá	701	Sololá	4	Finca Santa Victoria	3	Marzo	2023-03-19T00:00:00	2024-11-08T13:00:00	4	Temperatura máxima	18.3
96159	7	Sololá	701	Sololá	4	Finca Santa Victoria	3	Marzo	2023-03-19T00:00:00	2024-11-08T13:00:00	3	Temperatura mínima	16.4
96160	7	Sololá	701	Sololá	4	Finca Santa Victoria	3	Marzo	2023-03-19T00:00:00	2024-11-08T13:00:00	5	Humedad	81
96161	7	Sololá	701	Sololá	4	Finca Santa Victoria	3	Marzo	2023-03-19T00:00:00	2024-11-08T13:00:00	6	Velocidad del viento	3.2
96162	7	Sololá	701	Sololá	4	Finca Santa Victoria	3	Marzo	2023-03-19T00:00:00	2024-11-08T13:00:00	7	Dirección del viento	3.22
96163	7	Sololá	701	Sololá	4	Finca Santa Victoria	3	Marzo	2023-03-19T00:00:00	2024-11-08T13:00:00	1	Precipitación	0
96164	7	Sololá	701	Sololá	4	Finca Santa Victoria	3	Marzo	2023-03-19T00:00:00	2024-11-08T13:00:00	8	Radiación solar	252
96165	7	Sololá	701	Sololá	4	Finca Santa Victoria	3	Marzo	2023-03-19T00:00:00	2024-11-08T14:00:00	2	Temperatura media	14.4
96166	7	Sololá	701	Sololá	4	Finca Santa Victoria	3	Marzo	2023-03-19T00:00:00	2024-11-08T14:00:00	4	Temperatura máxima	17.7
96167	7	Sololá	701	Sololá	4	Finca Santa Victoria	3	Marzo	2023-03-19T00:00:00	2024-11-08T14:00:00	3	Temperatura mínima	14.4
96168	7	Sololá	701	Sololá	4	Finca Santa Victoria	3	Marzo	2023-03-19T00:00:00	2024-11-08T14:00:00	5	Humedad	92
96169	7	Sololá	701	Sololá	4	Finca Santa Victoria	3	Marzo	2023-03-19T00:00:00	2024-11-08T14:00:00	6	Velocidad del viento	3.2
96170	7	Sololá	701	Sololá	4	Finca Santa Victoria	3	Marzo	2023-03-19T00:00:00	2024-11-08T14:00:00	7	Dirección del viento	3.22
96171	7	Sololá	701	Sololá	4	Finca Santa Victoria	3	Marzo	2023-03-19T00:00:00	2024-11-08T14:00:00	1	Precipitación	0.6
96172	7	Sololá	701	Sololá	4	Finca Santa Victoria	3	Marzo	2023-03-19T00:00:00	2024-11-08T14:00:00	8	Radiación solar	72
96173	7	Sololá	701	Sololá	4	Finca Santa Victoria	3	Marzo	2023-03-19T00:00:00	2024-11-08T15:00:00	2	Temperatura media	13.9
96174	7	Sololá	701	Sololá	4	Finca Santa Victoria	3	Marzo	2023-03-19T00:00:00	2024-11-08T15:00:00	4	Temperatura máxima	14.4
96175	7	Sololá	701	Sololá	4	Finca Santa Victoria	3	Marzo	2023-03-19T00:00:00	2024-11-08T15:00:00	3	Temperatura mínima	13.9
96176	7	Sololá	701	Sololá	4	Finca Santa Victoria	3	Marzo	2023-03-19T00:00:00	2024-11-08T15:00:00	5	Humedad	95
96177	7	Sololá	701	Sololá	4	Finca Santa Victoria	3	Marzo	2023-03-19T00:00:00	2024-11-08T15:00:00	6	Velocidad del viento	1.6
96178	7	Sololá	701	Sololá	4	Finca Santa Victoria	3	Marzo	2023-03-19T00:00:00	2024-11-08T15:00:00	7	Dirección del viento	1.61
96179	7	Sololá	701	Sololá	4	Finca Santa Victoria	3	Marzo	2023-03-19T00:00:00	2024-11-08T15:00:00	1	Precipitación	0.2
96180	7	Sololá	701	Sololá	4	Finca Santa Victoria	3	Marzo	2023-03-19T00:00:00	2024-11-08T15:00:00	8	Radiación solar	63
96181	7	Sololá	701	Sololá	4	Finca Santa Victoria	3	Marzo	2023-03-19T00:00:00	2024-11-08T16:00:00	2	Temperatura media	12.8
96182	7	Sololá	701	Sololá	4	Finca Santa Victoria	3	Marzo	2023-03-19T00:00:00	2024-11-08T16:00:00	4	Temperatura máxima	13.9
96183	7	Sololá	701	Sololá	4	Finca Santa Victoria	3	Marzo	2023-03-19T00:00:00	2024-11-08T16:00:00	3	Temperatura mínima	12.8
96184	7	Sololá	701	Sololá	4	Finca Santa Victoria	3	Marzo	2023-03-19T00:00:00	2024-11-08T16:00:00	5	Humedad	96
96185	7	Sololá	701	Sololá	4	Finca Santa Victoria	3	Marzo	2023-03-19T00:00:00	2024-11-08T16:00:00	6	Velocidad del viento	1.6
96186	7	Sololá	701	Sololá	4	Finca Santa Victoria	3	Marzo	2023-03-19T00:00:00	2024-11-08T16:00:00	7	Dirección del viento	1.61
96187	7	Sololá	701	Sololá	4	Finca Santa Victoria	3	Marzo	2023-03-19T00:00:00	2024-11-08T16:00:00	1	Precipitación	5
96188	7	Sololá	701	Sololá	4	Finca Santa Victoria	3	Marzo	2023-03-19T00:00:00	2024-11-08T16:00:00	8	Radiación solar	7
96189	7	Sololá	701	Sololá	4	Finca Santa Victoria	3	Marzo	2023-03-19T00:00:00	2024-11-08T17:00:00	2	Temperatura media	12.9
96190	7	Sololá	701	Sololá	4	Finca Santa Victoria	3	Marzo	2023-03-19T00:00:00	2024-11-08T17:00:00	4	Temperatura máxima	12.9
96191	7	Sololá	701	Sololá	4	Finca Santa Victoria	3	Marzo	2023-03-19T00:00:00	2024-11-08T17:00:00	3	Temperatura mínima	12.6
96192	7	Sololá	701	Sololá	4	Finca Santa Victoria	3	Marzo	2023-03-19T00:00:00	2024-11-08T17:00:00	5	Humedad	97
96193	7	Sololá	701	Sololá	4	Finca Santa Victoria	3	Marzo	2023-03-19T00:00:00	2024-11-08T17:00:00	6	Velocidad del viento	1.6
96194	7	Sololá	701	Sololá	4	Finca Santa Victoria	3	Marzo	2023-03-19T00:00:00	2024-11-08T17:00:00	7	Dirección del viento	1.61
96195	7	Sololá	701	Sololá	4	Finca Santa Victoria	3	Marzo	2023-03-19T00:00:00	2024-11-08T17:00:00	1	Precipitación	0.2
96196	7	Sololá	701	Sololá	4	Finca Santa Victoria	3	Marzo	2023-03-19T00:00:00	2024-11-08T17:00:00	8	Radiación solar	30
96197	7	Sololá	701	Sololá	4	Finca Santa Victoria	3	Marzo	2023-03-19T00:00:00	2024-11-08T18:00:00	2	Temperatura media	13.2
96198	7	Sololá	701	Sololá	4	Finca Santa Victoria	3	Marzo	2023-03-19T00:00:00	2024-11-08T18:00:00	4	Temperatura máxima	13.2
96199	7	Sololá	701	Sololá	4	Finca Santa Victoria	3	Marzo	2023-03-19T00:00:00	2024-11-08T18:00:00	3	Temperatura mínima	12.9
96200	7	Sololá	701	Sololá	4	Finca Santa Victoria	3	Marzo	2023-03-19T00:00:00	2024-11-08T18:00:00	5	Humedad	97
96201	7	Sololá	701	Sololá	4	Finca Santa Victoria	3	Marzo	2023-03-19T00:00:00	2024-11-08T18:00:00	6	Velocidad del viento	0
96202	7	Sololá	701	Sololá	4	Finca Santa Victoria	3	Marzo	2023-03-19T00:00:00	2024-11-08T18:00:00	7	Dirección del viento	0
96203	7	Sololá	701	Sololá	4	Finca Santa Victoria	3	Marzo	2023-03-19T00:00:00	2024-11-08T18:00:00	1	Precipitación	0.2
96204	7	Sololá	701	Sololá	4	Finca Santa Victoria	3	Marzo	2023-03-19T00:00:00	2024-11-08T18:00:00	8	Radiación solar	38
96205	7	Sololá	701	Sololá	4	Finca Santa Victoria	3	Marzo	2023-03-19T00:00:00	2024-11-08T19:00:00	2	Temperatura media	12.8
96206	7	Sololá	701	Sololá	4	Finca Santa Victoria	3	Marzo	2023-03-19T00:00:00	2024-11-08T19:00:00	4	Temperatura máxima	13.2
96207	7	Sololá	701	Sololá	4	Finca Santa Victoria	3	Marzo	2023-03-19T00:00:00	2024-11-08T19:00:00	3	Temperatura mínima	12.8
96208	7	Sololá	701	Sololá	4	Finca Santa Victoria	3	Marzo	2023-03-19T00:00:00	2024-11-08T19:00:00	5	Humedad	97
96209	7	Sololá	701	Sololá	4	Finca Santa Victoria	3	Marzo	2023-03-19T00:00:00	2024-11-08T19:00:00	6	Velocidad del viento	0
96210	7	Sololá	701	Sololá	4	Finca Santa Victoria	3	Marzo	2023-03-19T00:00:00	2024-11-08T19:00:00	7	Dirección del viento	0
96211	7	Sololá	701	Sololá	4	Finca Santa Victoria	3	Marzo	2023-03-19T00:00:00	2024-11-08T19:00:00	1	Precipitación	0
96212	7	Sololá	701	Sololá	4	Finca Santa Victoria	3	Marzo	2023-03-19T00:00:00	2024-11-08T19:00:00	8	Radiación solar	0
96213	7	Sololá	701	Sololá	4	Finca Santa Victoria	3	Marzo	2023-03-19T00:00:00	2024-11-08T20:00:00	2	Temperatura media	12.7
96214	7	Sololá	701	Sololá	4	Finca Santa Victoria	3	Marzo	2023-03-19T00:00:00	2024-11-08T20:00:00	4	Temperatura máxima	12.9
96215	7	Sololá	701	Sololá	4	Finca Santa Victoria	3	Marzo	2023-03-19T00:00:00	2024-11-08T20:00:00	3	Temperatura mínima	12.6
96216	7	Sololá	701	Sololá	4	Finca Santa Victoria	3	Marzo	2023-03-19T00:00:00	2024-11-08T20:00:00	5	Humedad	95
96217	7	Sololá	701	Sololá	4	Finca Santa Victoria	3	Marzo	2023-03-19T00:00:00	2024-11-08T20:00:00	6	Velocidad del viento	1.6
96218	7	Sololá	701	Sololá	4	Finca Santa Victoria	3	Marzo	2023-03-19T00:00:00	2024-11-08T20:00:00	7	Dirección del viento	1.61
96219	7	Sololá	701	Sololá	4	Finca Santa Victoria	3	Marzo	2023-03-19T00:00:00	2024-11-08T20:00:00	1	Precipitación	0
96220	7	Sololá	701	Sololá	4	Finca Santa Victoria	3	Marzo	2023-03-19T00:00:00	2024-11-08T20:00:00	8	Radiación solar	0
96221	7	Sololá	701	Sololá	4	Finca Santa Victoria	3	Marzo	2023-03-19T00:00:00	2024-11-08T21:00:00	2	Temperatura media	12.8
96222	7	Sololá	701	Sololá	4	Finca Santa Victoria	3	Marzo	2023-03-19T00:00:00	2024-11-08T21:00:00	4	Temperatura máxima	12.9
96223	7	Sololá	701	Sololá	4	Finca Santa Victoria	3	Marzo	2023-03-19T00:00:00	2024-11-08T21:00:00	3	Temperatura mínima	12.6
96224	7	Sololá	701	Sololá	4	Finca Santa Victoria	3	Marzo	2023-03-19T00:00:00	2024-11-08T21:00:00	5	Humedad	93
96225	7	Sololá	701	Sololá	4	Finca Santa Victoria	3	Marzo	2023-03-19T00:00:00	2024-11-08T21:00:00	6	Velocidad del viento	3.2
96226	7	Sololá	701	Sololá	4	Finca Santa Victoria	3	Marzo	2023-03-19T00:00:00	2024-11-08T21:00:00	7	Dirección del viento	3.22
96227	7	Sololá	701	Sololá	4	Finca Santa Victoria	3	Marzo	2023-03-19T00:00:00	2024-11-08T21:00:00	1	Precipitación	0
96228	7	Sololá	701	Sololá	4	Finca Santa Victoria	3	Marzo	2023-03-19T00:00:00	2024-11-08T21:00:00	8	Radiación solar	0
96229	7	Sololá	701	Sololá	4	Finca Santa Victoria	3	Marzo	2023-03-19T00:00:00	2024-11-08T22:00:00	2	Temperatura media	13.1
96230	7	Sololá	701	Sololá	4	Finca Santa Victoria	3	Marzo	2023-03-19T00:00:00	2024-11-08T22:00:00	4	Temperatura máxima	13.1
96231	7	Sololá	701	Sololá	4	Finca Santa Victoria	3	Marzo	2023-03-19T00:00:00	2024-11-08T22:00:00	3	Temperatura mínima	12.8
96232	7	Sololá	701	Sololá	4	Finca Santa Victoria	3	Marzo	2023-03-19T00:00:00	2024-11-08T22:00:00	5	Humedad	91
96233	7	Sololá	701	Sololá	4	Finca Santa Victoria	3	Marzo	2023-03-19T00:00:00	2024-11-08T22:00:00	6	Velocidad del viento	3.2
96234	7	Sololá	701	Sololá	4	Finca Santa Victoria	3	Marzo	2023-03-19T00:00:00	2024-11-08T22:00:00	7	Dirección del viento	3.22
96235	7	Sololá	701	Sololá	4	Finca Santa Victoria	3	Marzo	2023-03-19T00:00:00	2024-11-08T22:00:00	1	Precipitación	0
96236	7	Sololá	701	Sololá	4	Finca Santa Victoria	3	Marzo	2023-03-19T00:00:00	2024-11-08T22:00:00	8	Radiación solar	0
96237	7	Sololá	701	Sololá	4	Finca Santa Victoria	3	Marzo	2023-03-19T00:00:00	2024-11-08T23:00:00	2	Temperatura media	12.7
96238	7	Sololá	701	Sololá	4	Finca Santa Victoria	3	Marzo	2023-03-19T00:00:00	2024-11-08T23:00:00	4	Temperatura máxima	13.1
96239	7	Sololá	701	Sololá	4	Finca Santa Victoria	3	Marzo	2023-03-19T00:00:00	2024-11-08T23:00:00	3	Temperatura mínima	12.6
96240	7	Sololá	701	Sololá	4	Finca Santa Victoria	3	Marzo	2023-03-19T00:00:00	2024-11-08T23:00:00	5	Humedad	90
96241	7	Sololá	701	Sololá	4	Finca Santa Victoria	3	Marzo	2023-03-19T00:00:00	2024-11-08T23:00:00	6	Velocidad del viento	3.2
96242	7	Sololá	701	Sololá	4	Finca Santa Victoria	3	Marzo	2023-03-19T00:00:00	2024-11-08T23:00:00	7	Dirección del viento	3.22
96243	7	Sololá	701	Sololá	4	Finca Santa Victoria	3	Marzo	2023-03-19T00:00:00	2024-11-08T23:00:00	1	Precipitación	0
96244	7	Sololá	701	Sololá	4	Finca Santa Victoria	3	Marzo	2023-03-19T00:00:00	2024-11-08T23:00:00	8	Radiación solar	0
96245	7	Sololá	701	Sololá	4	Finca Santa Victoria	3	Marzo	2023-03-20T00:00:00	2024-11-08T00:00:00	2	Temperatura media	12.4
96246	7	Sololá	701	Sololá	4	Finca Santa Victoria	3	Marzo	2023-03-20T00:00:00	2024-11-08T00:00:00	4	Temperatura máxima	12.7
96247	7	Sololá	701	Sololá	4	Finca Santa Victoria	3	Marzo	2023-03-20T00:00:00	2024-11-08T00:00:00	3	Temperatura mínima	12.1
96248	7	Sololá	701	Sololá	4	Finca Santa Victoria	3	Marzo	2023-03-20T00:00:00	2024-11-08T00:00:00	5	Humedad	89
96249	7	Sololá	701	Sololá	4	Finca Santa Victoria	3	Marzo	2023-03-20T00:00:00	2024-11-08T00:00:00	6	Velocidad del viento	1.6
96250	7	Sololá	701	Sololá	4	Finca Santa Victoria	3	Marzo	2023-03-20T00:00:00	2024-11-08T00:00:00	7	Dirección del viento	1.61
96251	7	Sololá	701	Sololá	4	Finca Santa Victoria	3	Marzo	2023-03-20T00:00:00	2024-11-08T00:00:00	1	Precipitación	0
96252	7	Sololá	701	Sololá	4	Finca Santa Victoria	3	Marzo	2023-03-20T00:00:00	2024-11-08T00:00:00	8	Radiación solar	0
96253	7	Sololá	701	Sololá	4	Finca Santa Victoria	3	Marzo	2023-03-20T00:00:00	2024-11-08T01:00:00	2	Temperatura media	12.3
96254	7	Sololá	701	Sololá	4	Finca Santa Victoria	3	Marzo	2023-03-20T00:00:00	2024-11-08T01:00:00	4	Temperatura máxima	12.7
96255	7	Sololá	701	Sololá	4	Finca Santa Victoria	3	Marzo	2023-03-20T00:00:00	2024-11-08T01:00:00	3	Temperatura mínima	12.2
96256	7	Sololá	701	Sololá	4	Finca Santa Victoria	3	Marzo	2023-03-20T00:00:00	2024-11-08T01:00:00	5	Humedad	90
96257	7	Sololá	701	Sololá	4	Finca Santa Victoria	3	Marzo	2023-03-20T00:00:00	2024-11-08T01:00:00	6	Velocidad del viento	3.2
96258	7	Sololá	701	Sololá	4	Finca Santa Victoria	3	Marzo	2023-03-20T00:00:00	2024-11-08T01:00:00	7	Dirección del viento	3.22
96259	7	Sololá	701	Sololá	4	Finca Santa Victoria	3	Marzo	2023-03-20T00:00:00	2024-11-08T01:00:00	1	Precipitación	0
96260	7	Sololá	701	Sololá	4	Finca Santa Victoria	3	Marzo	2023-03-20T00:00:00	2024-11-08T01:00:00	8	Radiación solar	0
96261	7	Sololá	701	Sololá	4	Finca Santa Victoria	3	Marzo	2023-03-20T00:00:00	2024-11-08T02:00:00	2	Temperatura media	11.9
96262	7	Sololá	701	Sololá	4	Finca Santa Victoria	3	Marzo	2023-03-20T00:00:00	2024-11-08T02:00:00	4	Temperatura máxima	12.3
96263	7	Sololá	701	Sololá	4	Finca Santa Victoria	3	Marzo	2023-03-20T00:00:00	2024-11-08T02:00:00	3	Temperatura mínima	11.9
96264	7	Sololá	701	Sololá	4	Finca Santa Victoria	3	Marzo	2023-03-20T00:00:00	2024-11-08T02:00:00	5	Humedad	93
96265	7	Sololá	701	Sololá	4	Finca Santa Victoria	3	Marzo	2023-03-20T00:00:00	2024-11-08T02:00:00	6	Velocidad del viento	3.2
96266	7	Sololá	701	Sololá	4	Finca Santa Victoria	3	Marzo	2023-03-20T00:00:00	2024-11-08T02:00:00	7	Dirección del viento	3.22
96267	7	Sololá	701	Sololá	4	Finca Santa Victoria	3	Marzo	2023-03-20T00:00:00	2024-11-08T02:00:00	1	Precipitación	0
96268	7	Sololá	701	Sololá	4	Finca Santa Victoria	3	Marzo	2023-03-20T00:00:00	2024-11-08T02:00:00	8	Radiación solar	0
96269	7	Sololá	701	Sololá	4	Finca Santa Victoria	3	Marzo	2023-03-20T00:00:00	2024-11-08T03:00:00	2	Temperatura media	11.6
96270	7	Sololá	701	Sololá	4	Finca Santa Victoria	3	Marzo	2023-03-20T00:00:00	2024-11-08T03:00:00	4	Temperatura máxima	11.9
96271	7	Sololá	701	Sololá	4	Finca Santa Victoria	3	Marzo	2023-03-20T00:00:00	2024-11-08T03:00:00	3	Temperatura mínima	11.5
96272	7	Sololá	701	Sololá	4	Finca Santa Victoria	3	Marzo	2023-03-20T00:00:00	2024-11-08T03:00:00	5	Humedad	89
96273	7	Sololá	701	Sololá	4	Finca Santa Victoria	3	Marzo	2023-03-20T00:00:00	2024-11-08T03:00:00	6	Velocidad del viento	3.2
96274	7	Sololá	701	Sololá	4	Finca Santa Victoria	3	Marzo	2023-03-20T00:00:00	2024-11-08T03:00:00	7	Dirección del viento	3.22
96275	7	Sololá	701	Sololá	4	Finca Santa Victoria	3	Marzo	2023-03-20T00:00:00	2024-11-08T03:00:00	1	Precipitación	0
96276	7	Sololá	701	Sololá	4	Finca Santa Victoria	3	Marzo	2023-03-20T00:00:00	2024-11-08T03:00:00	8	Radiación solar	0
96277	7	Sololá	701	Sololá	4	Finca Santa Victoria	3	Marzo	2023-03-20T00:00:00	2024-11-08T04:00:00	2	Temperatura media	11.4
96278	7	Sololá	701	Sololá	4	Finca Santa Victoria	3	Marzo	2023-03-20T00:00:00	2024-11-08T04:00:00	4	Temperatura máxima	11.6
96279	7	Sololá	701	Sololá	4	Finca Santa Victoria	3	Marzo	2023-03-20T00:00:00	2024-11-08T04:00:00	3	Temperatura mínima	11.3
96280	7	Sololá	701	Sololá	4	Finca Santa Victoria	3	Marzo	2023-03-20T00:00:00	2024-11-08T04:00:00	5	Humedad	88
96281	7	Sololá	701	Sololá	4	Finca Santa Victoria	3	Marzo	2023-03-20T00:00:00	2024-11-08T04:00:00	6	Velocidad del viento	3.2
96282	7	Sololá	701	Sololá	4	Finca Santa Victoria	3	Marzo	2023-03-20T00:00:00	2024-11-08T04:00:00	7	Dirección del viento	3.22
96283	7	Sololá	701	Sololá	4	Finca Santa Victoria	3	Marzo	2023-03-20T00:00:00	2024-11-08T04:00:00	1	Precipitación	0.2
96284	7	Sololá	701	Sololá	4	Finca Santa Victoria	3	Marzo	2023-03-20T00:00:00	2024-11-08T04:00:00	8	Radiación solar	0
96285	7	Sololá	701	Sololá	4	Finca Santa Victoria	3	Marzo	2023-03-20T00:00:00	2024-11-08T05:00:00	2	Temperatura media	11.6
96286	7	Sololá	701	Sololá	4	Finca Santa Victoria	3	Marzo	2023-03-20T00:00:00	2024-11-08T05:00:00	4	Temperatura máxima	11.6
96287	7	Sololá	701	Sololá	4	Finca Santa Victoria	3	Marzo	2023-03-20T00:00:00	2024-11-08T05:00:00	3	Temperatura mínima	11.3
96288	7	Sololá	701	Sololá	4	Finca Santa Victoria	3	Marzo	2023-03-20T00:00:00	2024-11-08T05:00:00	5	Humedad	88
96289	7	Sololá	701	Sololá	4	Finca Santa Victoria	3	Marzo	2023-03-20T00:00:00	2024-11-08T05:00:00	6	Velocidad del viento	3.2
96290	7	Sololá	701	Sololá	4	Finca Santa Victoria	3	Marzo	2023-03-20T00:00:00	2024-11-08T05:00:00	7	Dirección del viento	3.22
96291	7	Sololá	701	Sololá	4	Finca Santa Victoria	3	Marzo	2023-03-20T00:00:00	2024-11-08T05:00:00	1	Precipitación	0
96292	7	Sololá	701	Sololá	4	Finca Santa Victoria	3	Marzo	2023-03-20T00:00:00	2024-11-08T05:00:00	8	Radiación solar	0
96293	7	Sololá	701	Sololá	4	Finca Santa Victoria	3	Marzo	2023-03-20T00:00:00	2024-11-08T06:00:00	2	Temperatura media	11.8
96294	7	Sololá	701	Sololá	4	Finca Santa Victoria	3	Marzo	2023-03-20T00:00:00	2024-11-08T06:00:00	4	Temperatura máxima	11.8
96295	7	Sololá	701	Sololá	4	Finca Santa Victoria	3	Marzo	2023-03-20T00:00:00	2024-11-08T06:00:00	3	Temperatura mínima	11.6
96296	7	Sololá	701	Sololá	4	Finca Santa Victoria	3	Marzo	2023-03-20T00:00:00	2024-11-08T06:00:00	5	Humedad	86
96297	7	Sololá	701	Sololá	4	Finca Santa Victoria	3	Marzo	2023-03-20T00:00:00	2024-11-08T06:00:00	6	Velocidad del viento	4.8
96298	7	Sololá	701	Sololá	4	Finca Santa Victoria	3	Marzo	2023-03-20T00:00:00	2024-11-08T06:00:00	7	Dirección del viento	4.83
96299	7	Sololá	701	Sololá	4	Finca Santa Victoria	3	Marzo	2023-03-20T00:00:00	2024-11-08T06:00:00	1	Precipitación	0
96300	7	Sololá	701	Sololá	4	Finca Santa Victoria	3	Marzo	2023-03-20T00:00:00	2024-11-08T06:00:00	8	Radiación solar	0
96301	7	Sololá	701	Sololá	4	Finca Santa Victoria	3	Marzo	2023-03-20T00:00:00	2024-11-08T07:00:00	2	Temperatura media	12.3
96302	7	Sololá	701	Sololá	4	Finca Santa Victoria	3	Marzo	2023-03-20T00:00:00	2024-11-08T07:00:00	4	Temperatura máxima	12.3
96303	7	Sololá	701	Sololá	4	Finca Santa Victoria	3	Marzo	2023-03-20T00:00:00	2024-11-08T07:00:00	3	Temperatura mínima	11.8
96304	7	Sololá	701	Sololá	4	Finca Santa Victoria	3	Marzo	2023-03-20T00:00:00	2024-11-08T07:00:00	5	Humedad	85
96305	7	Sololá	701	Sololá	4	Finca Santa Victoria	3	Marzo	2023-03-20T00:00:00	2024-11-08T07:00:00	6	Velocidad del viento	4.8
96306	7	Sololá	701	Sololá	4	Finca Santa Victoria	3	Marzo	2023-03-20T00:00:00	2024-11-08T07:00:00	7	Dirección del viento	4.83
96307	7	Sololá	701	Sololá	4	Finca Santa Victoria	3	Marzo	2023-03-20T00:00:00	2024-11-08T07:00:00	1	Precipitación	0
96308	7	Sololá	701	Sololá	4	Finca Santa Victoria	3	Marzo	2023-03-20T00:00:00	2024-11-08T07:00:00	8	Radiación solar	9
96309	7	Sololá	701	Sololá	4	Finca Santa Victoria	3	Marzo	2023-03-20T00:00:00	2024-11-08T08:00:00	2	Temperatura media	14
96310	7	Sololá	701	Sololá	4	Finca Santa Victoria	3	Marzo	2023-03-20T00:00:00	2024-11-08T08:00:00	4	Temperatura máxima	14
96311	7	Sololá	701	Sololá	4	Finca Santa Victoria	3	Marzo	2023-03-20T00:00:00	2024-11-08T08:00:00	3	Temperatura mínima	12.3
96312	7	Sololá	701	Sololá	4	Finca Santa Victoria	3	Marzo	2023-03-20T00:00:00	2024-11-08T08:00:00	5	Humedad	83
96313	7	Sololá	701	Sololá	4	Finca Santa Victoria	3	Marzo	2023-03-20T00:00:00	2024-11-08T08:00:00	6	Velocidad del viento	6.4
96314	7	Sololá	701	Sololá	4	Finca Santa Victoria	3	Marzo	2023-03-20T00:00:00	2024-11-08T08:00:00	7	Dirección del viento	6.44
96315	7	Sololá	701	Sololá	4	Finca Santa Victoria	3	Marzo	2023-03-20T00:00:00	2024-11-08T08:00:00	1	Precipitación	0
96316	7	Sololá	701	Sololá	4	Finca Santa Victoria	3	Marzo	2023-03-20T00:00:00	2024-11-08T08:00:00	8	Radiación solar	209
96317	7	Sololá	701	Sololá	4	Finca Santa Victoria	3	Marzo	2023-03-20T00:00:00	2024-11-08T09:00:00	2	Temperatura media	15.1
96318	7	Sololá	701	Sololá	4	Finca Santa Victoria	3	Marzo	2023-03-20T00:00:00	2024-11-08T09:00:00	4	Temperatura máxima	15.1
96319	7	Sololá	701	Sololá	4	Finca Santa Victoria	3	Marzo	2023-03-20T00:00:00	2024-11-08T09:00:00	3	Temperatura mínima	13.9
96320	7	Sololá	701	Sololá	4	Finca Santa Victoria	3	Marzo	2023-03-20T00:00:00	2024-11-08T09:00:00	5	Humedad	79
96321	7	Sololá	701	Sololá	4	Finca Santa Victoria	3	Marzo	2023-03-20T00:00:00	2024-11-08T09:00:00	6	Velocidad del viento	8
96322	7	Sololá	701	Sololá	4	Finca Santa Victoria	3	Marzo	2023-03-20T00:00:00	2024-11-08T09:00:00	7	Dirección del viento	8.05
96323	7	Sololá	701	Sololá	4	Finca Santa Victoria	3	Marzo	2023-03-20T00:00:00	2024-11-08T09:00:00	1	Precipitación	0
96324	7	Sololá	701	Sololá	4	Finca Santa Victoria	3	Marzo	2023-03-20T00:00:00	2024-11-08T09:00:00	8	Radiación solar	521
96325	7	Sololá	701	Sololá	4	Finca Santa Victoria	3	Marzo	2023-03-20T00:00:00	2024-11-08T10:00:00	2	Temperatura media	16.2
96326	7	Sololá	701	Sololá	4	Finca Santa Victoria	3	Marzo	2023-03-20T00:00:00	2024-11-08T10:00:00	4	Temperatura máxima	16.3
96327	7	Sololá	701	Sololá	4	Finca Santa Victoria	3	Marzo	2023-03-20T00:00:00	2024-11-08T10:00:00	3	Temperatura mínima	15.1
96328	7	Sololá	701	Sololá	4	Finca Santa Victoria	3	Marzo	2023-03-20T00:00:00	2024-11-08T10:00:00	5	Humedad	75
96329	7	Sololá	701	Sololá	4	Finca Santa Victoria	3	Marzo	2023-03-20T00:00:00	2024-11-08T10:00:00	6	Velocidad del viento	8
96330	7	Sololá	701	Sololá	4	Finca Santa Victoria	3	Marzo	2023-03-20T00:00:00	2024-11-08T10:00:00	7	Dirección del viento	8.05
96331	7	Sololá	701	Sololá	4	Finca Santa Victoria	3	Marzo	2023-03-20T00:00:00	2024-11-08T10:00:00	1	Precipitación	0
96332	7	Sololá	701	Sololá	4	Finca Santa Victoria	3	Marzo	2023-03-20T00:00:00	2024-11-08T10:00:00	8	Radiación solar	769
96333	7	Sololá	701	Sololá	4	Finca Santa Victoria	3	Marzo	2023-03-20T00:00:00	2024-11-08T11:00:00	2	Temperatura media	17.1
96334	7	Sololá	701	Sololá	4	Finca Santa Victoria	3	Marzo	2023-03-20T00:00:00	2024-11-08T11:00:00	4	Temperatura máxima	17.1
96335	7	Sololá	701	Sololá	4	Finca Santa Victoria	3	Marzo	2023-03-20T00:00:00	2024-11-08T11:00:00	3	Temperatura mínima	15.3
96336	7	Sololá	701	Sololá	4	Finca Santa Victoria	3	Marzo	2023-03-20T00:00:00	2024-11-08T11:00:00	5	Humedad	73
96337	7	Sololá	701	Sololá	4	Finca Santa Victoria	3	Marzo	2023-03-20T00:00:00	2024-11-08T11:00:00	6	Velocidad del viento	6.4
96338	7	Sololá	701	Sololá	4	Finca Santa Victoria	3	Marzo	2023-03-20T00:00:00	2024-11-08T11:00:00	7	Dirección del viento	6.44
96339	7	Sololá	701	Sololá	4	Finca Santa Victoria	3	Marzo	2023-03-20T00:00:00	2024-11-08T11:00:00	1	Precipitación	0
96340	7	Sololá	701	Sololá	4	Finca Santa Victoria	3	Marzo	2023-03-20T00:00:00	2024-11-08T11:00:00	8	Radiación solar	828
96341	7	Sololá	701	Sololá	4	Finca Santa Victoria	3	Marzo	2023-03-20T00:00:00	2024-11-08T12:00:00	2	Temperatura media	18.4
96342	7	Sololá	701	Sololá	4	Finca Santa Victoria	3	Marzo	2023-03-20T00:00:00	2024-11-08T12:00:00	4	Temperatura máxima	18.7
96343	7	Sololá	701	Sololá	4	Finca Santa Victoria	3	Marzo	2023-03-20T00:00:00	2024-11-08T12:00:00	3	Temperatura mínima	17.1
96344	7	Sololá	701	Sololá	4	Finca Santa Victoria	3	Marzo	2023-03-20T00:00:00	2024-11-08T12:00:00	5	Humedad	69
96345	7	Sololá	701	Sololá	4	Finca Santa Victoria	3	Marzo	2023-03-20T00:00:00	2024-11-08T12:00:00	6	Velocidad del viento	6.4
96346	7	Sololá	701	Sololá	4	Finca Santa Victoria	3	Marzo	2023-03-20T00:00:00	2024-11-08T12:00:00	7	Dirección del viento	6.44
96347	7	Sololá	701	Sololá	4	Finca Santa Victoria	3	Marzo	2023-03-20T00:00:00	2024-11-08T12:00:00	1	Precipitación	0
96348	7	Sololá	701	Sololá	4	Finca Santa Victoria	3	Marzo	2023-03-20T00:00:00	2024-11-08T12:00:00	8	Radiación solar	1003
96349	7	Sololá	701	Sololá	4	Finca Santa Victoria	3	Marzo	2023-03-20T00:00:00	2024-11-08T13:00:00	2	Temperatura media	20.4
96350	7	Sololá	701	Sololá	4	Finca Santa Victoria	3	Marzo	2023-03-20T00:00:00	2024-11-08T13:00:00	4	Temperatura máxima	20.5
96351	7	Sololá	701	Sololá	4	Finca Santa Victoria	3	Marzo	2023-03-20T00:00:00	2024-11-08T13:00:00	3	Temperatura mínima	18.3
96352	7	Sololá	701	Sololá	4	Finca Santa Victoria	3	Marzo	2023-03-20T00:00:00	2024-11-08T13:00:00	5	Humedad	63
96353	7	Sololá	701	Sololá	4	Finca Santa Victoria	3	Marzo	2023-03-20T00:00:00	2024-11-08T13:00:00	6	Velocidad del viento	4.8
96354	7	Sololá	701	Sololá	4	Finca Santa Victoria	3	Marzo	2023-03-20T00:00:00	2024-11-08T13:00:00	7	Dirección del viento	4.83
96355	7	Sololá	701	Sololá	4	Finca Santa Victoria	3	Marzo	2023-03-20T00:00:00	2024-11-08T13:00:00	1	Precipitación	0
96356	7	Sololá	701	Sololá	4	Finca Santa Victoria	3	Marzo	2023-03-20T00:00:00	2024-11-08T13:00:00	8	Radiación solar	850
96357	7	Sololá	701	Sololá	4	Finca Santa Victoria	3	Marzo	2023-03-20T00:00:00	2024-11-08T14:00:00	2	Temperatura media	20.4
96358	7	Sololá	701	Sololá	4	Finca Santa Victoria	3	Marzo	2023-03-20T00:00:00	2024-11-08T14:00:00	4	Temperatura máxima	20.7
96359	7	Sololá	701	Sololá	4	Finca Santa Victoria	3	Marzo	2023-03-20T00:00:00	2024-11-08T14:00:00	3	Temperatura mínima	19.9
96360	7	Sololá	701	Sololá	4	Finca Santa Victoria	3	Marzo	2023-03-20T00:00:00	2024-11-08T14:00:00	5	Humedad	61
96361	7	Sololá	701	Sololá	4	Finca Santa Victoria	3	Marzo	2023-03-20T00:00:00	2024-11-08T14:00:00	6	Velocidad del viento	4.8
96362	7	Sololá	701	Sololá	4	Finca Santa Victoria	3	Marzo	2023-03-20T00:00:00	2024-11-08T14:00:00	7	Dirección del viento	4.83
96363	7	Sololá	701	Sololá	4	Finca Santa Victoria	3	Marzo	2023-03-20T00:00:00	2024-11-08T14:00:00	1	Precipitación	0
96364	7	Sololá	701	Sololá	4	Finca Santa Victoria	3	Marzo	2023-03-20T00:00:00	2024-11-08T14:00:00	8	Radiación solar	134
96365	7	Sololá	701	Sololá	4	Finca Santa Victoria	3	Marzo	2023-03-20T00:00:00	2024-11-08T15:00:00	2	Temperatura media	20.7
96366	7	Sololá	701	Sololá	4	Finca Santa Victoria	3	Marzo	2023-03-20T00:00:00	2024-11-08T15:00:00	4	Temperatura máxima	20.7
96367	7	Sololá	701	Sololá	4	Finca Santa Victoria	3	Marzo	2023-03-20T00:00:00	2024-11-08T15:00:00	3	Temperatura mínima	19.8
96368	7	Sololá	701	Sololá	4	Finca Santa Victoria	3	Marzo	2023-03-20T00:00:00	2024-11-08T15:00:00	5	Humedad	60
96369	7	Sololá	701	Sololá	4	Finca Santa Victoria	3	Marzo	2023-03-20T00:00:00	2024-11-08T15:00:00	6	Velocidad del viento	4.8
96370	7	Sololá	701	Sololá	4	Finca Santa Victoria	3	Marzo	2023-03-20T00:00:00	2024-11-08T15:00:00	7	Dirección del viento	4.83
96371	7	Sololá	701	Sololá	4	Finca Santa Victoria	3	Marzo	2023-03-20T00:00:00	2024-11-08T15:00:00	1	Precipitación	0
96372	7	Sololá	701	Sololá	4	Finca Santa Victoria	3	Marzo	2023-03-20T00:00:00	2024-11-08T15:00:00	8	Radiación solar	191
96373	7	Sololá	701	Sololá	4	Finca Santa Victoria	3	Marzo	2023-03-20T00:00:00	2024-11-08T16:00:00	2	Temperatura media	16.8
96374	7	Sololá	701	Sololá	4	Finca Santa Victoria	3	Marzo	2023-03-20T00:00:00	2024-11-08T16:00:00	4	Temperatura máxima	20.8
96375	7	Sololá	701	Sololá	4	Finca Santa Victoria	3	Marzo	2023-03-20T00:00:00	2024-11-08T16:00:00	3	Temperatura mínima	16.8
96376	7	Sololá	701	Sololá	4	Finca Santa Victoria	3	Marzo	2023-03-20T00:00:00	2024-11-08T16:00:00	5	Humedad	72
96377	7	Sololá	701	Sololá	4	Finca Santa Victoria	3	Marzo	2023-03-20T00:00:00	2024-11-08T16:00:00	6	Velocidad del viento	3.2
96378	7	Sololá	701	Sololá	4	Finca Santa Victoria	3	Marzo	2023-03-20T00:00:00	2024-11-08T16:00:00	7	Dirección del viento	3.22
96379	7	Sololá	701	Sololá	4	Finca Santa Victoria	3	Marzo	2023-03-20T00:00:00	2024-11-08T16:00:00	1	Precipitación	0
96380	7	Sololá	701	Sololá	4	Finca Santa Victoria	3	Marzo	2023-03-20T00:00:00	2024-11-08T16:00:00	8	Radiación solar	131
96381	7	Sololá	701	Sololá	4	Finca Santa Victoria	3	Marzo	2023-03-20T00:00:00	2024-11-08T17:00:00	2	Temperatura media	14.9
96382	7	Sololá	701	Sololá	4	Finca Santa Victoria	3	Marzo	2023-03-20T00:00:00	2024-11-08T17:00:00	4	Temperatura máxima	16.8
96383	7	Sololá	701	Sololá	4	Finca Santa Victoria	3	Marzo	2023-03-20T00:00:00	2024-11-08T17:00:00	3	Temperatura mínima	14.9
96384	7	Sololá	701	Sololá	4	Finca Santa Victoria	3	Marzo	2023-03-20T00:00:00	2024-11-08T17:00:00	5	Humedad	77
96385	7	Sololá	701	Sololá	4	Finca Santa Victoria	3	Marzo	2023-03-20T00:00:00	2024-11-08T17:00:00	6	Velocidad del viento	4.8
96386	7	Sololá	701	Sololá	4	Finca Santa Victoria	3	Marzo	2023-03-20T00:00:00	2024-11-08T17:00:00	7	Dirección del viento	4.83
96387	7	Sololá	701	Sololá	4	Finca Santa Victoria	3	Marzo	2023-03-20T00:00:00	2024-11-08T17:00:00	1	Precipitación	0
96388	7	Sololá	701	Sololá	4	Finca Santa Victoria	3	Marzo	2023-03-20T00:00:00	2024-11-08T17:00:00	8	Radiación solar	20
96389	7	Sololá	701	Sololá	4	Finca Santa Victoria	3	Marzo	2023-03-20T00:00:00	2024-11-08T18:00:00	2	Temperatura media	14.2
96390	7	Sololá	701	Sololá	4	Finca Santa Victoria	3	Marzo	2023-03-20T00:00:00	2024-11-08T18:00:00	4	Temperatura máxima	14.9
96391	7	Sololá	701	Sololá	4	Finca Santa Victoria	3	Marzo	2023-03-20T00:00:00	2024-11-08T18:00:00	3	Temperatura mínima	14.2
96392	7	Sololá	701	Sololá	4	Finca Santa Victoria	3	Marzo	2023-03-20T00:00:00	2024-11-08T18:00:00	5	Humedad	79
96393	7	Sololá	701	Sololá	4	Finca Santa Victoria	3	Marzo	2023-03-20T00:00:00	2024-11-08T18:00:00	6	Velocidad del viento	3.2
96394	7	Sololá	701	Sololá	4	Finca Santa Victoria	3	Marzo	2023-03-20T00:00:00	2024-11-08T18:00:00	7	Dirección del viento	3.22
96395	7	Sololá	701	Sololá	4	Finca Santa Victoria	3	Marzo	2023-03-20T00:00:00	2024-11-08T18:00:00	1	Precipitación	0
96396	7	Sololá	701	Sololá	4	Finca Santa Victoria	3	Marzo	2023-03-20T00:00:00	2024-11-08T18:00:00	8	Radiación solar	7
96397	7	Sololá	701	Sololá	4	Finca Santa Victoria	3	Marzo	2023-03-20T00:00:00	2024-11-08T19:00:00	2	Temperatura media	13.3
96398	7	Sololá	701	Sololá	4	Finca Santa Victoria	3	Marzo	2023-03-20T00:00:00	2024-11-08T19:00:00	4	Temperatura máxima	14.2
96399	7	Sololá	701	Sololá	4	Finca Santa Victoria	3	Marzo	2023-03-20T00:00:00	2024-11-08T19:00:00	3	Temperatura mínima	13.3
96400	7	Sololá	701	Sololá	4	Finca Santa Victoria	3	Marzo	2023-03-20T00:00:00	2024-11-08T19:00:00	5	Humedad	83
96401	7	Sololá	701	Sololá	4	Finca Santa Victoria	3	Marzo	2023-03-20T00:00:00	2024-11-08T19:00:00	6	Velocidad del viento	3.2
96402	7	Sololá	701	Sololá	4	Finca Santa Victoria	3	Marzo	2023-03-20T00:00:00	2024-11-08T19:00:00	7	Dirección del viento	3.22
96403	7	Sololá	701	Sololá	4	Finca Santa Victoria	3	Marzo	2023-03-20T00:00:00	2024-11-08T19:00:00	1	Precipitación	0
96404	7	Sololá	701	Sololá	4	Finca Santa Victoria	3	Marzo	2023-03-20T00:00:00	2024-11-08T19:00:00	8	Radiación solar	0
96405	7	Sololá	701	Sololá	4	Finca Santa Victoria	3	Marzo	2023-03-20T00:00:00	2024-11-08T20:00:00	2	Temperatura media	12.8
96406	7	Sololá	701	Sololá	4	Finca Santa Victoria	3	Marzo	2023-03-20T00:00:00	2024-11-08T20:00:00	4	Temperatura máxima	13.3
96407	7	Sololá	701	Sololá	4	Finca Santa Victoria	3	Marzo	2023-03-20T00:00:00	2024-11-08T20:00:00	3	Temperatura mínima	12.8
96408	7	Sololá	701	Sololá	4	Finca Santa Victoria	3	Marzo	2023-03-20T00:00:00	2024-11-08T20:00:00	5	Humedad	84
96409	7	Sololá	701	Sololá	4	Finca Santa Victoria	3	Marzo	2023-03-20T00:00:00	2024-11-08T20:00:00	6	Velocidad del viento	3.2
96410	7	Sololá	701	Sololá	4	Finca Santa Victoria	3	Marzo	2023-03-20T00:00:00	2024-11-08T20:00:00	7	Dirección del viento	3.22
96411	7	Sololá	701	Sololá	4	Finca Santa Victoria	3	Marzo	2023-03-20T00:00:00	2024-11-08T20:00:00	1	Precipitación	0
96412	7	Sololá	701	Sololá	4	Finca Santa Victoria	3	Marzo	2023-03-20T00:00:00	2024-11-08T20:00:00	8	Radiación solar	0
96413	7	Sololá	701	Sololá	4	Finca Santa Victoria	3	Marzo	2023-03-20T00:00:00	2024-11-08T21:00:00	2	Temperatura media	12.8
96414	7	Sololá	701	Sololá	4	Finca Santa Victoria	3	Marzo	2023-03-20T00:00:00	2024-11-08T21:00:00	4	Temperatura máxima	12.9
96415	7	Sololá	701	Sololá	4	Finca Santa Victoria	3	Marzo	2023-03-20T00:00:00	2024-11-08T21:00:00	3	Temperatura mínima	12.7
96416	7	Sololá	701	Sololá	4	Finca Santa Victoria	3	Marzo	2023-03-20T00:00:00	2024-11-08T21:00:00	5	Humedad	84
96417	7	Sololá	701	Sololá	4	Finca Santa Victoria	3	Marzo	2023-03-20T00:00:00	2024-11-08T21:00:00	6	Velocidad del viento	3.2
96418	7	Sololá	701	Sololá	4	Finca Santa Victoria	3	Marzo	2023-03-20T00:00:00	2024-11-08T21:00:00	7	Dirección del viento	3.22
96419	7	Sololá	701	Sololá	4	Finca Santa Victoria	3	Marzo	2023-03-20T00:00:00	2024-11-08T21:00:00	1	Precipitación	0
96420	7	Sololá	701	Sololá	4	Finca Santa Victoria	3	Marzo	2023-03-20T00:00:00	2024-11-08T21:00:00	8	Radiación solar	0
96421	7	Sololá	701	Sololá	4	Finca Santa Victoria	3	Marzo	2023-03-20T00:00:00	2024-11-08T22:00:00	2	Temperatura media	12.7
96422	7	Sololá	701	Sololá	4	Finca Santa Victoria	3	Marzo	2023-03-20T00:00:00	2024-11-08T22:00:00	4	Temperatura máxima	12.8
96423	7	Sololá	701	Sololá	4	Finca Santa Victoria	3	Marzo	2023-03-20T00:00:00	2024-11-08T22:00:00	3	Temperatura mínima	12.5
96424	7	Sololá	701	Sololá	4	Finca Santa Victoria	3	Marzo	2023-03-20T00:00:00	2024-11-08T22:00:00	5	Humedad	87
96425	7	Sololá	701	Sololá	4	Finca Santa Victoria	3	Marzo	2023-03-20T00:00:00	2024-11-08T22:00:00	6	Velocidad del viento	4.8
96426	7	Sololá	701	Sololá	4	Finca Santa Victoria	3	Marzo	2023-03-20T00:00:00	2024-11-08T22:00:00	7	Dirección del viento	4.83
96427	7	Sololá	701	Sololá	4	Finca Santa Victoria	3	Marzo	2023-03-20T00:00:00	2024-11-08T22:00:00	1	Precipitación	0
96428	7	Sololá	701	Sololá	4	Finca Santa Victoria	3	Marzo	2023-03-20T00:00:00	2024-11-08T22:00:00	8	Radiación solar	0
96429	7	Sololá	701	Sololá	4	Finca Santa Victoria	3	Marzo	2023-03-20T00:00:00	2024-11-08T23:00:00	2	Temperatura media	12.6
96430	7	Sololá	701	Sololá	4	Finca Santa Victoria	3	Marzo	2023-03-20T00:00:00	2024-11-08T23:00:00	4	Temperatura máxima	12.7
96431	7	Sololá	701	Sololá	4	Finca Santa Victoria	3	Marzo	2023-03-20T00:00:00	2024-11-08T23:00:00	3	Temperatura mínima	12.3
96432	7	Sololá	701	Sololá	4	Finca Santa Victoria	3	Marzo	2023-03-20T00:00:00	2024-11-08T23:00:00	5	Humedad	85
96433	7	Sololá	701	Sololá	4	Finca Santa Victoria	3	Marzo	2023-03-20T00:00:00	2024-11-08T23:00:00	6	Velocidad del viento	3.2
96434	7	Sololá	701	Sololá	4	Finca Santa Victoria	3	Marzo	2023-03-20T00:00:00	2024-11-08T23:00:00	7	Dirección del viento	3.22
96435	7	Sololá	701	Sololá	4	Finca Santa Victoria	3	Marzo	2023-03-20T00:00:00	2024-11-08T23:00:00	1	Precipitación	0
96436	7	Sololá	701	Sololá	4	Finca Santa Victoria	3	Marzo	2023-03-20T00:00:00	2024-11-08T23:00:00	8	Radiación solar	0
96437	7	Sololá	701	Sololá	4	Finca Santa Victoria	3	Marzo	2023-03-21T00:00:00	2024-11-08T00:00:00	2	Temperatura media	12.7
96438	7	Sololá	701	Sololá	4	Finca Santa Victoria	3	Marzo	2023-03-21T00:00:00	2024-11-08T00:00:00	4	Temperatura máxima	12.9
96439	7	Sololá	701	Sololá	4	Finca Santa Victoria	3	Marzo	2023-03-21T00:00:00	2024-11-08T00:00:00	3	Temperatura mínima	12.5
96440	7	Sololá	701	Sololá	4	Finca Santa Victoria	3	Marzo	2023-03-21T00:00:00	2024-11-08T00:00:00	5	Humedad	85
96441	7	Sololá	701	Sololá	4	Finca Santa Victoria	3	Marzo	2023-03-21T00:00:00	2024-11-08T00:00:00	6	Velocidad del viento	3.2
96442	7	Sololá	701	Sololá	4	Finca Santa Victoria	3	Marzo	2023-03-21T00:00:00	2024-11-08T00:00:00	7	Dirección del viento	3.22
96443	7	Sololá	701	Sololá	4	Finca Santa Victoria	3	Marzo	2023-03-21T00:00:00	2024-11-08T00:00:00	1	Precipitación	0
96444	7	Sololá	701	Sololá	4	Finca Santa Victoria	3	Marzo	2023-03-21T00:00:00	2024-11-08T00:00:00	8	Radiación solar	0
96445	7	Sololá	701	Sololá	4	Finca Santa Victoria	3	Marzo	2023-03-21T00:00:00	2024-11-08T01:00:00	2	Temperatura media	12.5
96446	7	Sololá	701	Sololá	4	Finca Santa Victoria	3	Marzo	2023-03-21T00:00:00	2024-11-08T01:00:00	4	Temperatura máxima	12.7
96447	7	Sololá	701	Sololá	4	Finca Santa Victoria	3	Marzo	2023-03-21T00:00:00	2024-11-08T01:00:00	3	Temperatura mínima	12.5
96448	7	Sololá	701	Sololá	4	Finca Santa Victoria	3	Marzo	2023-03-21T00:00:00	2024-11-08T01:00:00	5	Humedad	88
96449	7	Sololá	701	Sololá	4	Finca Santa Victoria	3	Marzo	2023-03-21T00:00:00	2024-11-08T01:00:00	6	Velocidad del viento	3.2
96450	7	Sololá	701	Sololá	4	Finca Santa Victoria	3	Marzo	2023-03-21T00:00:00	2024-11-08T01:00:00	7	Dirección del viento	3.22
96451	7	Sololá	701	Sololá	4	Finca Santa Victoria	3	Marzo	2023-03-21T00:00:00	2024-11-08T01:00:00	1	Precipitación	0
96452	7	Sololá	701	Sololá	4	Finca Santa Victoria	3	Marzo	2023-03-21T00:00:00	2024-11-08T01:00:00	8	Radiación solar	0
96453	7	Sololá	701	Sololá	4	Finca Santa Victoria	3	Marzo	2023-03-21T00:00:00	2024-11-08T02:00:00	2	Temperatura media	12.1
96454	7	Sololá	701	Sololá	4	Finca Santa Victoria	3	Marzo	2023-03-21T00:00:00	2024-11-08T02:00:00	4	Temperatura máxima	12.6
96455	7	Sololá	701	Sololá	4	Finca Santa Victoria	3	Marzo	2023-03-21T00:00:00	2024-11-08T02:00:00	3	Temperatura mínima	12.1
96456	7	Sololá	701	Sololá	4	Finca Santa Victoria	3	Marzo	2023-03-21T00:00:00	2024-11-08T02:00:00	5	Humedad	89
96457	7	Sololá	701	Sololá	4	Finca Santa Victoria	3	Marzo	2023-03-21T00:00:00	2024-11-08T02:00:00	6	Velocidad del viento	3.2
96458	7	Sololá	701	Sololá	4	Finca Santa Victoria	3	Marzo	2023-03-21T00:00:00	2024-11-08T02:00:00	7	Dirección del viento	3.22
96459	7	Sololá	701	Sololá	4	Finca Santa Victoria	3	Marzo	2023-03-21T00:00:00	2024-11-08T02:00:00	1	Precipitación	0
96460	7	Sololá	701	Sololá	4	Finca Santa Victoria	3	Marzo	2023-03-21T00:00:00	2024-11-08T02:00:00	8	Radiación solar	0
96461	7	Sololá	701	Sololá	4	Finca Santa Victoria	3	Marzo	2023-03-21T00:00:00	2024-11-08T03:00:00	2	Temperatura media	11.9
96462	7	Sololá	701	Sololá	4	Finca Santa Victoria	3	Marzo	2023-03-21T00:00:00	2024-11-08T03:00:00	4	Temperatura máxima	12.1
96463	7	Sololá	701	Sololá	4	Finca Santa Victoria	3	Marzo	2023-03-21T00:00:00	2024-11-08T03:00:00	3	Temperatura mínima	11.9
96464	7	Sololá	701	Sololá	4	Finca Santa Victoria	3	Marzo	2023-03-21T00:00:00	2024-11-08T03:00:00	5	Humedad	90
96465	7	Sololá	701	Sololá	4	Finca Santa Victoria	3	Marzo	2023-03-21T00:00:00	2024-11-08T03:00:00	6	Velocidad del viento	3.2
96466	7	Sololá	701	Sololá	4	Finca Santa Victoria	3	Marzo	2023-03-21T00:00:00	2024-11-08T03:00:00	7	Dirección del viento	3.22
96467	7	Sololá	701	Sololá	4	Finca Santa Victoria	3	Marzo	2023-03-21T00:00:00	2024-11-08T03:00:00	1	Precipitación	0
96468	7	Sololá	701	Sololá	4	Finca Santa Victoria	3	Marzo	2023-03-21T00:00:00	2024-11-08T03:00:00	8	Radiación solar	0
96469	7	Sololá	701	Sololá	4	Finca Santa Victoria	3	Marzo	2023-03-21T00:00:00	2024-11-08T04:00:00	2	Temperatura media	11.9
96470	7	Sololá	701	Sololá	4	Finca Santa Victoria	3	Marzo	2023-03-21T00:00:00	2024-11-08T04:00:00	4	Temperatura máxima	12.1
96471	7	Sololá	701	Sololá	4	Finca Santa Victoria	3	Marzo	2023-03-21T00:00:00	2024-11-08T04:00:00	3	Temperatura mínima	11.8
96472	7	Sololá	701	Sololá	4	Finca Santa Victoria	3	Marzo	2023-03-21T00:00:00	2024-11-08T04:00:00	5	Humedad	89
96473	7	Sololá	701	Sololá	4	Finca Santa Victoria	3	Marzo	2023-03-21T00:00:00	2024-11-08T04:00:00	6	Velocidad del viento	3.2
96474	7	Sololá	701	Sololá	4	Finca Santa Victoria	3	Marzo	2023-03-21T00:00:00	2024-11-08T04:00:00	7	Dirección del viento	3.22
96475	7	Sololá	701	Sololá	4	Finca Santa Victoria	3	Marzo	2023-03-21T00:00:00	2024-11-08T04:00:00	1	Precipitación	0
96476	7	Sololá	701	Sololá	4	Finca Santa Victoria	3	Marzo	2023-03-21T00:00:00	2024-11-08T04:00:00	8	Radiación solar	0
96477	7	Sololá	701	Sololá	4	Finca Santa Victoria	3	Marzo	2023-03-21T00:00:00	2024-11-08T05:00:00	2	Temperatura media	11.9
96478	7	Sololá	701	Sololá	4	Finca Santa Victoria	3	Marzo	2023-03-21T00:00:00	2024-11-08T05:00:00	4	Temperatura máxima	12
96479	7	Sololá	701	Sololá	4	Finca Santa Victoria	3	Marzo	2023-03-21T00:00:00	2024-11-08T05:00:00	3	Temperatura mínima	11.8
96480	7	Sololá	701	Sololá	4	Finca Santa Victoria	3	Marzo	2023-03-21T00:00:00	2024-11-08T05:00:00	5	Humedad	89
96481	7	Sololá	701	Sololá	4	Finca Santa Victoria	3	Marzo	2023-03-21T00:00:00	2024-11-08T05:00:00	6	Velocidad del viento	3.2
96482	7	Sololá	701	Sololá	4	Finca Santa Victoria	3	Marzo	2023-03-21T00:00:00	2024-11-08T05:00:00	7	Dirección del viento	3.22
96483	7	Sololá	701	Sololá	4	Finca Santa Victoria	3	Marzo	2023-03-21T00:00:00	2024-11-08T05:00:00	1	Precipitación	0
96484	7	Sololá	701	Sololá	4	Finca Santa Victoria	3	Marzo	2023-03-21T00:00:00	2024-11-08T05:00:00	8	Radiación solar	0
96485	7	Sololá	701	Sololá	4	Finca Santa Victoria	3	Marzo	2023-03-21T00:00:00	2024-11-08T06:00:00	2	Temperatura media	12.3
96486	7	Sololá	701	Sololá	4	Finca Santa Victoria	3	Marzo	2023-03-21T00:00:00	2024-11-08T06:00:00	4	Temperatura máxima	12.3
96487	7	Sololá	701	Sololá	4	Finca Santa Victoria	3	Marzo	2023-03-21T00:00:00	2024-11-08T06:00:00	3	Temperatura mínima	11.8
96488	7	Sololá	701	Sololá	4	Finca Santa Victoria	3	Marzo	2023-03-21T00:00:00	2024-11-08T06:00:00	5	Humedad	87
96489	7	Sololá	701	Sololá	4	Finca Santa Victoria	3	Marzo	2023-03-21T00:00:00	2024-11-08T06:00:00	6	Velocidad del viento	4.8
96490	7	Sololá	701	Sololá	4	Finca Santa Victoria	3	Marzo	2023-03-21T00:00:00	2024-11-08T06:00:00	7	Dirección del viento	4.83
96491	7	Sololá	701	Sololá	4	Finca Santa Victoria	3	Marzo	2023-03-21T00:00:00	2024-11-08T06:00:00	1	Precipitación	0
96492	7	Sololá	701	Sololá	4	Finca Santa Victoria	3	Marzo	2023-03-21T00:00:00	2024-11-08T06:00:00	8	Radiación solar	0
96493	7	Sololá	701	Sololá	4	Finca Santa Victoria	3	Marzo	2023-03-21T00:00:00	2024-11-08T07:00:00	2	Temperatura media	12.4
96494	7	Sololá	701	Sololá	4	Finca Santa Victoria	3	Marzo	2023-03-21T00:00:00	2024-11-08T07:00:00	4	Temperatura máxima	12.5
96495	7	Sololá	701	Sololá	4	Finca Santa Victoria	3	Marzo	2023-03-21T00:00:00	2024-11-08T07:00:00	3	Temperatura mínima	12.2
96496	7	Sololá	701	Sololá	4	Finca Santa Victoria	3	Marzo	2023-03-21T00:00:00	2024-11-08T07:00:00	5	Humedad	88
96497	7	Sololá	701	Sololá	4	Finca Santa Victoria	3	Marzo	2023-03-21T00:00:00	2024-11-08T07:00:00	6	Velocidad del viento	4.8
96498	7	Sololá	701	Sololá	4	Finca Santa Victoria	3	Marzo	2023-03-21T00:00:00	2024-11-08T07:00:00	7	Dirección del viento	4.83
96499	7	Sololá	701	Sololá	4	Finca Santa Victoria	3	Marzo	2023-03-21T00:00:00	2024-11-08T07:00:00	1	Precipitación	0
96500	7	Sololá	701	Sololá	4	Finca Santa Victoria	3	Marzo	2023-03-21T00:00:00	2024-11-08T07:00:00	8	Radiación solar	14
96501	7	Sololá	701	Sololá	4	Finca Santa Victoria	3	Marzo	2023-03-21T00:00:00	2024-11-08T08:00:00	2	Temperatura media	15.1
96502	7	Sololá	701	Sololá	4	Finca Santa Victoria	3	Marzo	2023-03-21T00:00:00	2024-11-08T08:00:00	4	Temperatura máxima	15.1
96503	7	Sololá	701	Sololá	4	Finca Santa Victoria	3	Marzo	2023-03-21T00:00:00	2024-11-08T08:00:00	3	Temperatura mínima	12.4
96504	7	Sololá	701	Sololá	4	Finca Santa Victoria	3	Marzo	2023-03-21T00:00:00	2024-11-08T08:00:00	5	Humedad	79
96505	7	Sololá	701	Sololá	4	Finca Santa Victoria	3	Marzo	2023-03-21T00:00:00	2024-11-08T08:00:00	6	Velocidad del viento	4.8
96506	7	Sololá	701	Sololá	4	Finca Santa Victoria	3	Marzo	2023-03-21T00:00:00	2024-11-08T08:00:00	7	Dirección del viento	4.83
96507	7	Sololá	701	Sololá	4	Finca Santa Victoria	3	Marzo	2023-03-21T00:00:00	2024-11-08T08:00:00	1	Precipitación	0
96508	7	Sololá	701	Sololá	4	Finca Santa Victoria	3	Marzo	2023-03-21T00:00:00	2024-11-08T08:00:00	8	Radiación solar	223
96509	7	Sololá	701	Sololá	4	Finca Santa Victoria	3	Marzo	2023-03-21T00:00:00	2024-11-08T09:00:00	2	Temperatura media	14.7
96510	7	Sololá	701	Sololá	4	Finca Santa Victoria	3	Marzo	2023-03-21T00:00:00	2024-11-08T09:00:00	4	Temperatura máxima	15.7
96511	7	Sololá	701	Sololá	4	Finca Santa Victoria	3	Marzo	2023-03-21T00:00:00	2024-11-08T09:00:00	3	Temperatura mínima	14.7
96512	7	Sololá	701	Sololá	4	Finca Santa Victoria	3	Marzo	2023-03-21T00:00:00	2024-11-08T09:00:00	5	Humedad	81
96513	7	Sololá	701	Sololá	4	Finca Santa Victoria	3	Marzo	2023-03-21T00:00:00	2024-11-08T09:00:00	6	Velocidad del viento	4.8
96514	7	Sololá	701	Sololá	4	Finca Santa Victoria	3	Marzo	2023-03-21T00:00:00	2024-11-08T09:00:00	7	Dirección del viento	4.83
96515	7	Sololá	701	Sololá	4	Finca Santa Victoria	3	Marzo	2023-03-21T00:00:00	2024-11-08T09:00:00	1	Precipitación	0
96516	7	Sololá	701	Sololá	4	Finca Santa Victoria	3	Marzo	2023-03-21T00:00:00	2024-11-08T09:00:00	8	Radiación solar	442
96517	7	Sololá	701	Sololá	4	Finca Santa Victoria	3	Marzo	2023-03-21T00:00:00	2024-11-08T10:00:00	2	Temperatura media	17.4
96518	7	Sololá	701	Sololá	4	Finca Santa Victoria	3	Marzo	2023-03-21T00:00:00	2024-11-08T10:00:00	4	Temperatura máxima	17.4
96519	7	Sololá	701	Sololá	4	Finca Santa Victoria	3	Marzo	2023-03-21T00:00:00	2024-11-08T10:00:00	3	Temperatura mínima	14.6
96520	7	Sololá	701	Sololá	4	Finca Santa Victoria	3	Marzo	2023-03-21T00:00:00	2024-11-08T10:00:00	5	Humedad	69
96521	7	Sololá	701	Sololá	4	Finca Santa Victoria	3	Marzo	2023-03-21T00:00:00	2024-11-08T10:00:00	6	Velocidad del viento	4.8
96522	7	Sololá	701	Sololá	4	Finca Santa Victoria	3	Marzo	2023-03-21T00:00:00	2024-11-08T10:00:00	7	Dirección del viento	4.83
96523	7	Sololá	701	Sololá	4	Finca Santa Victoria	3	Marzo	2023-03-21T00:00:00	2024-11-08T10:00:00	1	Precipitación	0
96524	7	Sololá	701	Sololá	4	Finca Santa Victoria	3	Marzo	2023-03-21T00:00:00	2024-11-08T10:00:00	8	Radiación solar	793
96525	7	Sololá	701	Sololá	4	Finca Santa Victoria	3	Marzo	2023-03-21T00:00:00	2024-11-08T11:00:00	2	Temperatura media	18.6
96526	7	Sololá	701	Sololá	4	Finca Santa Victoria	3	Marzo	2023-03-21T00:00:00	2024-11-08T11:00:00	4	Temperatura máxima	18.9
96527	7	Sololá	701	Sololá	4	Finca Santa Victoria	3	Marzo	2023-03-21T00:00:00	2024-11-08T11:00:00	3	Temperatura mínima	17.4
96528	7	Sololá	701	Sololá	4	Finca Santa Victoria	3	Marzo	2023-03-21T00:00:00	2024-11-08T11:00:00	5	Humedad	67
96529	7	Sololá	701	Sololá	4	Finca Santa Victoria	3	Marzo	2023-03-21T00:00:00	2024-11-08T11:00:00	6	Velocidad del viento	4.8
96530	7	Sololá	701	Sololá	4	Finca Santa Victoria	3	Marzo	2023-03-21T00:00:00	2024-11-08T11:00:00	7	Dirección del viento	4.83
96531	7	Sololá	701	Sololá	4	Finca Santa Victoria	3	Marzo	2023-03-21T00:00:00	2024-11-08T11:00:00	1	Precipitación	0
96532	7	Sololá	701	Sololá	4	Finca Santa Victoria	3	Marzo	2023-03-21T00:00:00	2024-11-08T11:00:00	8	Radiación solar	989
96533	7	Sololá	701	Sololá	4	Finca Santa Victoria	3	Marzo	2023-03-21T00:00:00	2024-11-08T12:00:00	2	Temperatura media	19.4
96534	7	Sololá	701	Sololá	4	Finca Santa Victoria	3	Marzo	2023-03-21T00:00:00	2024-11-08T12:00:00	4	Temperatura máxima	19.7
96535	7	Sololá	701	Sololá	4	Finca Santa Victoria	3	Marzo	2023-03-21T00:00:00	2024-11-08T12:00:00	3	Temperatura mínima	17.8
96536	7	Sololá	701	Sololá	4	Finca Santa Victoria	3	Marzo	2023-03-21T00:00:00	2024-11-08T12:00:00	5	Humedad	63
96537	7	Sololá	701	Sololá	4	Finca Santa Victoria	3	Marzo	2023-03-21T00:00:00	2024-11-08T12:00:00	6	Velocidad del viento	4.8
96538	7	Sololá	701	Sololá	4	Finca Santa Victoria	3	Marzo	2023-03-21T00:00:00	2024-11-08T12:00:00	7	Dirección del viento	4.83
96539	7	Sololá	701	Sololá	4	Finca Santa Victoria	3	Marzo	2023-03-21T00:00:00	2024-11-08T12:00:00	1	Precipitación	0
96540	7	Sololá	701	Sololá	4	Finca Santa Victoria	3	Marzo	2023-03-21T00:00:00	2024-11-08T12:00:00	8	Radiación solar	1020
96541	7	Sololá	701	Sololá	4	Finca Santa Victoria	3	Marzo	2023-03-21T00:00:00	2024-11-08T13:00:00	2	Temperatura media	20.4
96542	7	Sololá	701	Sololá	4	Finca Santa Victoria	3	Marzo	2023-03-21T00:00:00	2024-11-08T13:00:00	4	Temperatura máxima	21.2
96543	7	Sololá	701	Sololá	4	Finca Santa Victoria	3	Marzo	2023-03-21T00:00:00	2024-11-08T13:00:00	3	Temperatura mínima	19.5
96544	7	Sololá	701	Sololá	4	Finca Santa Victoria	3	Marzo	2023-03-21T00:00:00	2024-11-08T13:00:00	5	Humedad	60
96545	7	Sololá	701	Sololá	4	Finca Santa Victoria	3	Marzo	2023-03-21T00:00:00	2024-11-08T13:00:00	6	Velocidad del viento	4.8
96546	7	Sololá	701	Sololá	4	Finca Santa Victoria	3	Marzo	2023-03-21T00:00:00	2024-11-08T13:00:00	7	Dirección del viento	4.83
96547	7	Sololá	701	Sololá	4	Finca Santa Victoria	3	Marzo	2023-03-21T00:00:00	2024-11-08T13:00:00	1	Precipitación	0
96548	7	Sololá	701	Sololá	4	Finca Santa Victoria	3	Marzo	2023-03-21T00:00:00	2024-11-08T13:00:00	8	Radiación solar	919
96549	7	Sololá	701	Sololá	4	Finca Santa Victoria	3	Marzo	2023-03-21T00:00:00	2024-11-08T14:00:00	2	Temperatura media	19.3
96550	7	Sololá	701	Sololá	4	Finca Santa Victoria	3	Marzo	2023-03-21T00:00:00	2024-11-08T14:00:00	4	Temperatura máxima	21.2
96551	7	Sololá	701	Sololá	4	Finca Santa Victoria	3	Marzo	2023-03-21T00:00:00	2024-11-08T14:00:00	3	Temperatura mínima	19.3
96552	7	Sololá	701	Sololá	4	Finca Santa Victoria	3	Marzo	2023-03-21T00:00:00	2024-11-08T14:00:00	5	Humedad	59
96553	7	Sololá	701	Sololá	4	Finca Santa Victoria	3	Marzo	2023-03-21T00:00:00	2024-11-08T14:00:00	6	Velocidad del viento	4.8
96554	7	Sololá	701	Sololá	4	Finca Santa Victoria	3	Marzo	2023-03-21T00:00:00	2024-11-08T14:00:00	7	Dirección del viento	4.83
96555	7	Sololá	701	Sololá	4	Finca Santa Victoria	3	Marzo	2023-03-21T00:00:00	2024-11-08T14:00:00	1	Precipitación	0
96556	7	Sololá	701	Sololá	4	Finca Santa Victoria	3	Marzo	2023-03-21T00:00:00	2024-11-08T14:00:00	8	Radiación solar	387
96557	7	Sololá	701	Sololá	4	Finca Santa Victoria	3	Marzo	2023-03-21T00:00:00	2024-11-08T15:00:00	2	Temperatura media	19
96558	7	Sololá	701	Sololá	4	Finca Santa Victoria	3	Marzo	2023-03-21T00:00:00	2024-11-08T15:00:00	4	Temperatura máxima	20.1
96559	7	Sololá	701	Sololá	4	Finca Santa Victoria	3	Marzo	2023-03-21T00:00:00	2024-11-08T15:00:00	3	Temperatura mínima	19
96560	7	Sololá	701	Sololá	4	Finca Santa Victoria	3	Marzo	2023-03-21T00:00:00	2024-11-08T15:00:00	5	Humedad	60
96561	7	Sololá	701	Sololá	4	Finca Santa Victoria	3	Marzo	2023-03-21T00:00:00	2024-11-08T15:00:00	6	Velocidad del viento	3.2
96562	7	Sololá	701	Sololá	4	Finca Santa Victoria	3	Marzo	2023-03-21T00:00:00	2024-11-08T15:00:00	7	Dirección del viento	3.22
96563	7	Sololá	701	Sololá	4	Finca Santa Victoria	3	Marzo	2023-03-21T00:00:00	2024-11-08T15:00:00	1	Precipitación	0
96564	7	Sololá	701	Sololá	4	Finca Santa Victoria	3	Marzo	2023-03-21T00:00:00	2024-11-08T15:00:00	8	Radiación solar	327
96565	7	Sololá	701	Sololá	4	Finca Santa Victoria	3	Marzo	2023-03-21T00:00:00	2024-11-08T16:00:00	2	Temperatura media	18.8
96566	7	Sololá	701	Sololá	4	Finca Santa Victoria	3	Marzo	2023-03-21T00:00:00	2024-11-08T16:00:00	4	Temperatura máxima	18.9
96567	7	Sololá	701	Sololá	4	Finca Santa Victoria	3	Marzo	2023-03-21T00:00:00	2024-11-08T16:00:00	3	Temperatura mínima	18
96568	7	Sololá	701	Sololá	4	Finca Santa Victoria	3	Marzo	2023-03-21T00:00:00	2024-11-08T16:00:00	5	Humedad	62
96569	7	Sololá	701	Sololá	4	Finca Santa Victoria	3	Marzo	2023-03-21T00:00:00	2024-11-08T16:00:00	6	Velocidad del viento	3.2
96570	7	Sololá	701	Sololá	4	Finca Santa Victoria	3	Marzo	2023-03-21T00:00:00	2024-11-08T16:00:00	7	Dirección del viento	3.22
96571	7	Sololá	701	Sololá	4	Finca Santa Victoria	3	Marzo	2023-03-21T00:00:00	2024-11-08T16:00:00	1	Precipitación	0
96572	7	Sololá	701	Sololá	4	Finca Santa Victoria	3	Marzo	2023-03-21T00:00:00	2024-11-08T16:00:00	8	Radiación solar	215
96573	7	Sololá	701	Sololá	4	Finca Santa Victoria	3	Marzo	2023-03-21T00:00:00	2024-11-08T17:00:00	2	Temperatura media	17.2
96574	7	Sololá	701	Sololá	4	Finca Santa Victoria	3	Marzo	2023-03-21T00:00:00	2024-11-08T17:00:00	4	Temperatura máxima	19.1
96575	7	Sololá	701	Sololá	4	Finca Santa Victoria	3	Marzo	2023-03-21T00:00:00	2024-11-08T17:00:00	3	Temperatura mínima	17.2
96576	7	Sololá	701	Sololá	4	Finca Santa Victoria	3	Marzo	2023-03-21T00:00:00	2024-11-08T17:00:00	5	Humedad	69
96577	7	Sololá	701	Sololá	4	Finca Santa Victoria	3	Marzo	2023-03-21T00:00:00	2024-11-08T17:00:00	6	Velocidad del viento	4.8
96578	7	Sololá	701	Sololá	4	Finca Santa Victoria	3	Marzo	2023-03-21T00:00:00	2024-11-08T17:00:00	7	Dirección del viento	4.83
96579	7	Sololá	701	Sololá	4	Finca Santa Victoria	3	Marzo	2023-03-21T00:00:00	2024-11-08T17:00:00	1	Precipitación	0
96580	7	Sololá	701	Sololá	4	Finca Santa Victoria	3	Marzo	2023-03-21T00:00:00	2024-11-08T17:00:00	8	Radiación solar	171
96581	7	Sololá	701	Sololá	4	Finca Santa Victoria	3	Marzo	2023-03-21T00:00:00	2024-11-08T18:00:00	2	Temperatura media	15.3
96582	7	Sololá	701	Sololá	4	Finca Santa Victoria	3	Marzo	2023-03-21T00:00:00	2024-11-08T18:00:00	4	Temperatura máxima	17.1
96583	7	Sololá	701	Sololá	4	Finca Santa Victoria	3	Marzo	2023-03-21T00:00:00	2024-11-08T18:00:00	3	Temperatura mínima	15.3
96584	7	Sololá	701	Sololá	4	Finca Santa Victoria	3	Marzo	2023-03-21T00:00:00	2024-11-08T18:00:00	5	Humedad	78
96585	7	Sololá	701	Sololá	4	Finca Santa Victoria	3	Marzo	2023-03-21T00:00:00	2024-11-08T18:00:00	6	Velocidad del viento	4.8
96586	7	Sololá	701	Sololá	4	Finca Santa Victoria	3	Marzo	2023-03-21T00:00:00	2024-11-08T18:00:00	7	Dirección del viento	4.83
96587	7	Sololá	701	Sololá	4	Finca Santa Victoria	3	Marzo	2023-03-21T00:00:00	2024-11-08T18:00:00	1	Precipitación	0
96588	7	Sololá	701	Sololá	4	Finca Santa Victoria	3	Marzo	2023-03-21T00:00:00	2024-11-08T18:00:00	8	Radiación solar	29
96589	7	Sololá	701	Sololá	4	Finca Santa Victoria	3	Marzo	2023-03-21T00:00:00	2024-11-08T19:00:00	2	Temperatura media	14
96590	7	Sololá	701	Sololá	4	Finca Santa Victoria	3	Marzo	2023-03-21T00:00:00	2024-11-08T19:00:00	4	Temperatura máxima	15.3
96591	7	Sololá	701	Sololá	4	Finca Santa Victoria	3	Marzo	2023-03-21T00:00:00	2024-11-08T19:00:00	3	Temperatura mínima	14
96592	7	Sololá	701	Sololá	4	Finca Santa Victoria	3	Marzo	2023-03-21T00:00:00	2024-11-08T19:00:00	5	Humedad	87
96593	7	Sololá	701	Sololá	4	Finca Santa Victoria	3	Marzo	2023-03-21T00:00:00	2024-11-08T19:00:00	6	Velocidad del viento	4.8
96594	7	Sololá	701	Sololá	4	Finca Santa Victoria	3	Marzo	2023-03-21T00:00:00	2024-11-08T19:00:00	7	Dirección del viento	4.83
96595	7	Sololá	701	Sololá	4	Finca Santa Victoria	3	Marzo	2023-03-21T00:00:00	2024-11-08T19:00:00	1	Precipitación	0
96596	7	Sololá	701	Sololá	4	Finca Santa Victoria	3	Marzo	2023-03-21T00:00:00	2024-11-08T19:00:00	8	Radiación solar	0
96597	7	Sololá	701	Sololá	4	Finca Santa Victoria	3	Marzo	2023-03-21T00:00:00	2024-11-08T20:00:00	2	Temperatura media	13.8
96598	7	Sololá	701	Sololá	4	Finca Santa Victoria	3	Marzo	2023-03-21T00:00:00	2024-11-08T20:00:00	4	Temperatura máxima	14
96599	7	Sololá	701	Sololá	4	Finca Santa Victoria	3	Marzo	2023-03-21T00:00:00	2024-11-08T20:00:00	3	Temperatura mínima	13.6
96600	7	Sololá	701	Sololá	4	Finca Santa Victoria	3	Marzo	2023-03-21T00:00:00	2024-11-08T20:00:00	5	Humedad	89
96601	7	Sololá	701	Sololá	4	Finca Santa Victoria	3	Marzo	2023-03-21T00:00:00	2024-11-08T20:00:00	6	Velocidad del viento	3.2
96602	7	Sololá	701	Sololá	4	Finca Santa Victoria	3	Marzo	2023-03-21T00:00:00	2024-11-08T20:00:00	7	Dirección del viento	3.22
96603	7	Sololá	701	Sololá	4	Finca Santa Victoria	3	Marzo	2023-03-21T00:00:00	2024-11-08T20:00:00	1	Precipitación	0
96604	7	Sololá	701	Sololá	4	Finca Santa Victoria	3	Marzo	2023-03-21T00:00:00	2024-11-08T20:00:00	8	Radiación solar	0
96605	7	Sololá	701	Sololá	4	Finca Santa Victoria	3	Marzo	2023-03-21T00:00:00	2024-11-08T21:00:00	2	Temperatura media	13.9
96606	7	Sololá	701	Sololá	4	Finca Santa Victoria	3	Marzo	2023-03-21T00:00:00	2024-11-08T21:00:00	4	Temperatura máxima	14
96607	7	Sololá	701	Sololá	4	Finca Santa Victoria	3	Marzo	2023-03-21T00:00:00	2024-11-08T21:00:00	3	Temperatura mínima	13.8
96608	7	Sololá	701	Sololá	4	Finca Santa Victoria	3	Marzo	2023-03-21T00:00:00	2024-11-08T21:00:00	5	Humedad	87
96609	7	Sololá	701	Sololá	4	Finca Santa Victoria	3	Marzo	2023-03-21T00:00:00	2024-11-08T21:00:00	6	Velocidad del viento	6.4
96610	7	Sololá	701	Sololá	4	Finca Santa Victoria	3	Marzo	2023-03-21T00:00:00	2024-11-08T21:00:00	7	Dirección del viento	6.44
96611	7	Sololá	701	Sololá	4	Finca Santa Victoria	3	Marzo	2023-03-21T00:00:00	2024-11-08T21:00:00	1	Precipitación	0
96612	7	Sololá	701	Sololá	4	Finca Santa Victoria	3	Marzo	2023-03-21T00:00:00	2024-11-08T21:00:00	8	Radiación solar	0
96613	7	Sololá	701	Sololá	4	Finca Santa Victoria	3	Marzo	2023-03-21T00:00:00	2024-11-08T22:00:00	2	Temperatura media	13.7
96614	7	Sololá	701	Sololá	4	Finca Santa Victoria	3	Marzo	2023-03-21T00:00:00	2024-11-08T22:00:00	4	Temperatura máxima	13.9
96615	7	Sololá	701	Sololá	4	Finca Santa Victoria	3	Marzo	2023-03-21T00:00:00	2024-11-08T22:00:00	3	Temperatura mínima	13.7
96616	7	Sololá	701	Sololá	4	Finca Santa Victoria	3	Marzo	2023-03-21T00:00:00	2024-11-08T22:00:00	5	Humedad	86
96617	7	Sololá	701	Sololá	4	Finca Santa Victoria	3	Marzo	2023-03-21T00:00:00	2024-11-08T22:00:00	6	Velocidad del viento	6.4
96618	7	Sololá	701	Sololá	4	Finca Santa Victoria	3	Marzo	2023-03-21T00:00:00	2024-11-08T22:00:00	7	Dirección del viento	6.44
96619	7	Sololá	701	Sololá	4	Finca Santa Victoria	3	Marzo	2023-03-21T00:00:00	2024-11-08T22:00:00	1	Precipitación	0
96620	7	Sololá	701	Sololá	4	Finca Santa Victoria	3	Marzo	2023-03-21T00:00:00	2024-11-08T22:00:00	8	Radiación solar	0
96621	7	Sololá	701	Sololá	4	Finca Santa Victoria	3	Marzo	2023-03-21T00:00:00	2024-11-08T23:00:00	2	Temperatura media	13.6
96622	7	Sololá	701	Sololá	4	Finca Santa Victoria	3	Marzo	2023-03-21T00:00:00	2024-11-08T23:00:00	4	Temperatura máxima	13.8
96623	7	Sololá	701	Sololá	4	Finca Santa Victoria	3	Marzo	2023-03-21T00:00:00	2024-11-08T23:00:00	3	Temperatura mínima	13.4
96624	7	Sololá	701	Sololá	4	Finca Santa Victoria	3	Marzo	2023-03-21T00:00:00	2024-11-08T23:00:00	5	Humedad	85
96625	7	Sololá	701	Sololá	4	Finca Santa Victoria	3	Marzo	2023-03-21T00:00:00	2024-11-08T23:00:00	6	Velocidad del viento	6.4
96626	7	Sololá	701	Sololá	4	Finca Santa Victoria	3	Marzo	2023-03-21T00:00:00	2024-11-08T23:00:00	7	Dirección del viento	6.44
96627	7	Sololá	701	Sololá	4	Finca Santa Victoria	3	Marzo	2023-03-21T00:00:00	2024-11-08T23:00:00	1	Precipitación	0
96628	7	Sololá	701	Sololá	4	Finca Santa Victoria	3	Marzo	2023-03-21T00:00:00	2024-11-08T23:00:00	8	Radiación solar	0
96629	7	Sololá	701	Sololá	4	Finca Santa Victoria	3	Marzo	2023-03-22T00:00:00	2024-11-08T00:00:00	2	Temperatura media	13.4
96630	7	Sololá	701	Sololá	4	Finca Santa Victoria	3	Marzo	2023-03-22T00:00:00	2024-11-08T00:00:00	4	Temperatura máxima	13.7
96631	7	Sololá	701	Sololá	4	Finca Santa Victoria	3	Marzo	2023-03-22T00:00:00	2024-11-08T00:00:00	3	Temperatura mínima	13.4
96632	7	Sololá	701	Sololá	4	Finca Santa Victoria	3	Marzo	2023-03-22T00:00:00	2024-11-08T00:00:00	5	Humedad	84
96633	7	Sololá	701	Sololá	4	Finca Santa Victoria	3	Marzo	2023-03-22T00:00:00	2024-11-08T00:00:00	6	Velocidad del viento	4.8
96634	7	Sololá	701	Sololá	4	Finca Santa Victoria	3	Marzo	2023-03-22T00:00:00	2024-11-08T00:00:00	7	Dirección del viento	4.83
96635	7	Sololá	701	Sololá	4	Finca Santa Victoria	3	Marzo	2023-03-22T00:00:00	2024-11-08T00:00:00	1	Precipitación	0
96636	7	Sololá	701	Sololá	4	Finca Santa Victoria	3	Marzo	2023-03-22T00:00:00	2024-11-08T00:00:00	8	Radiación solar	0
96637	7	Sololá	701	Sololá	4	Finca Santa Victoria	3	Marzo	2023-03-22T00:00:00	2024-11-08T01:00:00	2	Temperatura media	13.4
96638	7	Sololá	701	Sololá	4	Finca Santa Victoria	3	Marzo	2023-03-22T00:00:00	2024-11-08T01:00:00	4	Temperatura máxima	13.5
96639	7	Sololá	701	Sololá	4	Finca Santa Victoria	3	Marzo	2023-03-22T00:00:00	2024-11-08T01:00:00	3	Temperatura mínima	13.3
96640	7	Sololá	701	Sololá	4	Finca Santa Victoria	3	Marzo	2023-03-22T00:00:00	2024-11-08T01:00:00	5	Humedad	82
96641	7	Sololá	701	Sololá	4	Finca Santa Victoria	3	Marzo	2023-03-22T00:00:00	2024-11-08T01:00:00	6	Velocidad del viento	3.2
96642	7	Sololá	701	Sololá	4	Finca Santa Victoria	3	Marzo	2023-03-22T00:00:00	2024-11-08T01:00:00	7	Dirección del viento	3.22
96643	7	Sololá	701	Sololá	4	Finca Santa Victoria	3	Marzo	2023-03-22T00:00:00	2024-11-08T01:00:00	1	Precipitación	0
96644	7	Sololá	701	Sololá	4	Finca Santa Victoria	3	Marzo	2023-03-22T00:00:00	2024-11-08T01:00:00	8	Radiación solar	0
96645	7	Sololá	701	Sololá	4	Finca Santa Victoria	3	Marzo	2023-03-22T00:00:00	2024-11-08T02:00:00	2	Temperatura media	13.2
96646	7	Sololá	701	Sololá	4	Finca Santa Victoria	3	Marzo	2023-03-22T00:00:00	2024-11-08T02:00:00	4	Temperatura máxima	13.5
96647	7	Sololá	701	Sololá	4	Finca Santa Victoria	3	Marzo	2023-03-22T00:00:00	2024-11-08T02:00:00	3	Temperatura mínima	13.1
96648	7	Sololá	701	Sololá	4	Finca Santa Victoria	3	Marzo	2023-03-22T00:00:00	2024-11-08T02:00:00	5	Humedad	86
96649	7	Sololá	701	Sololá	4	Finca Santa Victoria	3	Marzo	2023-03-22T00:00:00	2024-11-08T02:00:00	6	Velocidad del viento	1.6
96650	7	Sololá	701	Sololá	4	Finca Santa Victoria	3	Marzo	2023-03-22T00:00:00	2024-11-08T02:00:00	7	Dirección del viento	1.61
96651	7	Sololá	701	Sololá	4	Finca Santa Victoria	3	Marzo	2023-03-22T00:00:00	2024-11-08T02:00:00	1	Precipitación	0
96652	7	Sololá	701	Sololá	4	Finca Santa Victoria	3	Marzo	2023-03-22T00:00:00	2024-11-08T02:00:00	8	Radiación solar	0
96653	7	Sololá	701	Sololá	4	Finca Santa Victoria	3	Marzo	2023-03-22T00:00:00	2024-11-08T03:00:00	2	Temperatura media	12.8
96654	7	Sololá	701	Sololá	4	Finca Santa Victoria	3	Marzo	2023-03-22T00:00:00	2024-11-08T03:00:00	4	Temperatura máxima	13.3
96655	7	Sololá	701	Sololá	4	Finca Santa Victoria	3	Marzo	2023-03-22T00:00:00	2024-11-08T03:00:00	3	Temperatura mínima	12.8
96656	7	Sololá	701	Sololá	4	Finca Santa Victoria	3	Marzo	2023-03-22T00:00:00	2024-11-08T03:00:00	5	Humedad	90
96657	7	Sololá	701	Sololá	4	Finca Santa Victoria	3	Marzo	2023-03-22T00:00:00	2024-11-08T03:00:00	6	Velocidad del viento	1.6
96658	7	Sololá	701	Sololá	4	Finca Santa Victoria	3	Marzo	2023-03-22T00:00:00	2024-11-08T03:00:00	7	Dirección del viento	1.61
96659	7	Sololá	701	Sololá	4	Finca Santa Victoria	3	Marzo	2023-03-22T00:00:00	2024-11-08T03:00:00	1	Precipitación	0
96660	7	Sololá	701	Sololá	4	Finca Santa Victoria	3	Marzo	2023-03-22T00:00:00	2024-11-08T03:00:00	8	Radiación solar	0
96661	7	Sololá	701	Sololá	4	Finca Santa Victoria	3	Marzo	2023-03-22T00:00:00	2024-11-08T04:00:00	2	Temperatura media	12.9
96662	7	Sololá	701	Sololá	4	Finca Santa Victoria	3	Marzo	2023-03-22T00:00:00	2024-11-08T04:00:00	4	Temperatura máxima	12.9
96663	7	Sololá	701	Sololá	4	Finca Santa Victoria	3	Marzo	2023-03-22T00:00:00	2024-11-08T04:00:00	3	Temperatura mínima	12.7
96664	7	Sololá	701	Sololá	4	Finca Santa Victoria	3	Marzo	2023-03-22T00:00:00	2024-11-08T04:00:00	5	Humedad	90
96665	7	Sololá	701	Sololá	4	Finca Santa Victoria	3	Marzo	2023-03-22T00:00:00	2024-11-08T04:00:00	6	Velocidad del viento	3.2
96666	7	Sololá	701	Sololá	4	Finca Santa Victoria	3	Marzo	2023-03-22T00:00:00	2024-11-08T04:00:00	7	Dirección del viento	3.22
96667	7	Sololá	701	Sololá	4	Finca Santa Victoria	3	Marzo	2023-03-22T00:00:00	2024-11-08T04:00:00	1	Precipitación	0
96668	7	Sololá	701	Sololá	4	Finca Santa Victoria	3	Marzo	2023-03-22T00:00:00	2024-11-08T04:00:00	8	Radiación solar	0
96669	7	Sololá	701	Sololá	4	Finca Santa Victoria	3	Marzo	2023-03-22T00:00:00	2024-11-08T05:00:00	2	Temperatura media	12.7
96670	7	Sololá	701	Sololá	4	Finca Santa Victoria	3	Marzo	2023-03-22T00:00:00	2024-11-08T05:00:00	4	Temperatura máxima	12.9
96671	7	Sololá	701	Sololá	4	Finca Santa Victoria	3	Marzo	2023-03-22T00:00:00	2024-11-08T05:00:00	3	Temperatura mínima	12.6
96672	7	Sololá	701	Sololá	4	Finca Santa Victoria	3	Marzo	2023-03-22T00:00:00	2024-11-08T05:00:00	5	Humedad	90
96673	7	Sololá	701	Sololá	4	Finca Santa Victoria	3	Marzo	2023-03-22T00:00:00	2024-11-08T05:00:00	6	Velocidad del viento	3.2
96674	7	Sololá	701	Sololá	4	Finca Santa Victoria	3	Marzo	2023-03-22T00:00:00	2024-11-08T05:00:00	7	Dirección del viento	3.22
96675	7	Sololá	701	Sololá	4	Finca Santa Victoria	3	Marzo	2023-03-22T00:00:00	2024-11-08T05:00:00	1	Precipitación	0
96676	7	Sololá	701	Sololá	4	Finca Santa Victoria	3	Marzo	2023-03-22T00:00:00	2024-11-08T05:00:00	8	Radiación solar	0
96677	7	Sololá	701	Sololá	4	Finca Santa Victoria	3	Marzo	2023-03-22T00:00:00	2024-11-08T06:00:00	2	Temperatura media	12.6
96678	7	Sololá	701	Sololá	4	Finca Santa Victoria	3	Marzo	2023-03-22T00:00:00	2024-11-08T06:00:00	4	Temperatura máxima	12.8
96679	7	Sololá	701	Sololá	4	Finca Santa Victoria	3	Marzo	2023-03-22T00:00:00	2024-11-08T06:00:00	3	Temperatura mínima	12.6
96680	7	Sololá	701	Sololá	4	Finca Santa Victoria	3	Marzo	2023-03-22T00:00:00	2024-11-08T06:00:00	5	Humedad	91
96681	7	Sololá	701	Sololá	4	Finca Santa Victoria	3	Marzo	2023-03-22T00:00:00	2024-11-08T06:00:00	6	Velocidad del viento	3.2
96682	7	Sololá	701	Sololá	4	Finca Santa Victoria	3	Marzo	2023-03-22T00:00:00	2024-11-08T06:00:00	7	Dirección del viento	3.22
96683	7	Sololá	701	Sololá	4	Finca Santa Victoria	3	Marzo	2023-03-22T00:00:00	2024-11-08T06:00:00	1	Precipitación	0
96684	7	Sololá	701	Sololá	4	Finca Santa Victoria	3	Marzo	2023-03-22T00:00:00	2024-11-08T06:00:00	8	Radiación solar	0
96685	7	Sololá	701	Sololá	4	Finca Santa Victoria	3	Marzo	2023-03-22T00:00:00	2024-11-08T07:00:00	2	Temperatura media	12.5
96686	7	Sololá	701	Sololá	4	Finca Santa Victoria	3	Marzo	2023-03-22T00:00:00	2024-11-08T07:00:00	4	Temperatura máxima	12.8
96687	7	Sololá	701	Sololá	4	Finca Santa Victoria	3	Marzo	2023-03-22T00:00:00	2024-11-08T07:00:00	3	Temperatura mínima	12.5
96688	7	Sololá	701	Sololá	4	Finca Santa Victoria	3	Marzo	2023-03-22T00:00:00	2024-11-08T07:00:00	5	Humedad	92
96689	7	Sololá	701	Sololá	4	Finca Santa Victoria	3	Marzo	2023-03-22T00:00:00	2024-11-08T07:00:00	6	Velocidad del viento	3.2
96690	7	Sololá	701	Sololá	4	Finca Santa Victoria	3	Marzo	2023-03-22T00:00:00	2024-11-08T07:00:00	7	Dirección del viento	3.22
96691	7	Sololá	701	Sololá	4	Finca Santa Victoria	3	Marzo	2023-03-22T00:00:00	2024-11-08T07:00:00	1	Precipitación	0
96692	7	Sololá	701	Sololá	4	Finca Santa Victoria	3	Marzo	2023-03-22T00:00:00	2024-11-08T07:00:00	8	Radiación solar	7
96693	7	Sololá	701	Sololá	4	Finca Santa Victoria	3	Marzo	2023-03-22T00:00:00	2024-11-08T08:00:00	2	Temperatura media	13.5
96694	7	Sololá	701	Sololá	4	Finca Santa Victoria	3	Marzo	2023-03-22T00:00:00	2024-11-08T08:00:00	4	Temperatura máxima	13.5
96695	7	Sololá	701	Sololá	4	Finca Santa Victoria	3	Marzo	2023-03-22T00:00:00	2024-11-08T08:00:00	3	Temperatura mínima	12.4
96696	7	Sololá	701	Sololá	4	Finca Santa Victoria	3	Marzo	2023-03-22T00:00:00	2024-11-08T08:00:00	5	Humedad	90
96697	7	Sololá	701	Sololá	4	Finca Santa Victoria	3	Marzo	2023-03-22T00:00:00	2024-11-08T08:00:00	6	Velocidad del viento	1.6
96698	7	Sololá	701	Sololá	4	Finca Santa Victoria	3	Marzo	2023-03-22T00:00:00	2024-11-08T08:00:00	7	Dirección del viento	1.61
96699	7	Sololá	701	Sololá	4	Finca Santa Victoria	3	Marzo	2023-03-22T00:00:00	2024-11-08T08:00:00	1	Precipitación	0
96700	7	Sololá	701	Sololá	4	Finca Santa Victoria	3	Marzo	2023-03-22T00:00:00	2024-11-08T08:00:00	8	Radiación solar	60
96701	7	Sololá	701	Sololá	4	Finca Santa Victoria	3	Marzo	2023-03-22T00:00:00	2024-11-08T09:00:00	2	Temperatura media	14.6
96702	7	Sololá	701	Sololá	4	Finca Santa Victoria	3	Marzo	2023-03-22T00:00:00	2024-11-08T09:00:00	4	Temperatura máxima	14.6
96703	7	Sololá	701	Sololá	4	Finca Santa Victoria	3	Marzo	2023-03-22T00:00:00	2024-11-08T09:00:00	3	Temperatura mínima	13.4
96704	7	Sololá	701	Sololá	4	Finca Santa Victoria	3	Marzo	2023-03-22T00:00:00	2024-11-08T09:00:00	5	Humedad	83
96705	7	Sololá	701	Sololá	4	Finca Santa Victoria	3	Marzo	2023-03-22T00:00:00	2024-11-08T09:00:00	6	Velocidad del viento	3.2
96706	7	Sololá	701	Sololá	4	Finca Santa Victoria	3	Marzo	2023-03-22T00:00:00	2024-11-08T09:00:00	7	Dirección del viento	3.22
96707	7	Sololá	701	Sololá	4	Finca Santa Victoria	3	Marzo	2023-03-22T00:00:00	2024-11-08T09:00:00	1	Precipitación	0
96708	7	Sololá	701	Sololá	4	Finca Santa Victoria	3	Marzo	2023-03-22T00:00:00	2024-11-08T09:00:00	8	Radiación solar	97
96709	7	Sololá	701	Sololá	4	Finca Santa Victoria	3	Marzo	2023-03-22T00:00:00	2024-11-08T10:00:00	2	Temperatura media	15.9
96710	7	Sololá	701	Sololá	4	Finca Santa Victoria	3	Marzo	2023-03-22T00:00:00	2024-11-08T10:00:00	4	Temperatura máxima	15.9
96711	7	Sololá	701	Sololá	4	Finca Santa Victoria	3	Marzo	2023-03-22T00:00:00	2024-11-08T10:00:00	3	Temperatura mínima	14.6
96712	7	Sololá	701	Sololá	4	Finca Santa Victoria	3	Marzo	2023-03-22T00:00:00	2024-11-08T10:00:00	5	Humedad	77
96713	7	Sololá	701	Sololá	4	Finca Santa Victoria	3	Marzo	2023-03-22T00:00:00	2024-11-08T10:00:00	6	Velocidad del viento	4.8
96714	7	Sololá	701	Sololá	4	Finca Santa Victoria	3	Marzo	2023-03-22T00:00:00	2024-11-08T10:00:00	7	Dirección del viento	4.83
96715	7	Sololá	701	Sololá	4	Finca Santa Victoria	3	Marzo	2023-03-22T00:00:00	2024-11-08T10:00:00	1	Precipitación	0
96716	7	Sololá	701	Sololá	4	Finca Santa Victoria	3	Marzo	2023-03-22T00:00:00	2024-11-08T10:00:00	8	Radiación solar	205
96717	7	Sololá	701	Sololá	4	Finca Santa Victoria	3	Marzo	2023-03-22T00:00:00	2024-11-08T11:00:00	2	Temperatura media	16.8
96718	7	Sololá	701	Sololá	4	Finca Santa Victoria	3	Marzo	2023-03-22T00:00:00	2024-11-08T11:00:00	4	Temperatura máxima	16.8
96719	7	Sololá	701	Sololá	4	Finca Santa Victoria	3	Marzo	2023-03-22T00:00:00	2024-11-08T11:00:00	3	Temperatura mínima	15.6
96720	7	Sololá	701	Sololá	4	Finca Santa Victoria	3	Marzo	2023-03-22T00:00:00	2024-11-08T11:00:00	5	Humedad	74
96721	7	Sololá	701	Sololá	4	Finca Santa Victoria	3	Marzo	2023-03-22T00:00:00	2024-11-08T11:00:00	6	Velocidad del viento	4.8
96722	7	Sololá	701	Sololá	4	Finca Santa Victoria	3	Marzo	2023-03-22T00:00:00	2024-11-08T11:00:00	7	Dirección del viento	4.83
96723	7	Sololá	701	Sololá	4	Finca Santa Victoria	3	Marzo	2023-03-22T00:00:00	2024-11-08T11:00:00	1	Precipitación	0
96724	7	Sololá	701	Sololá	4	Finca Santa Victoria	3	Marzo	2023-03-22T00:00:00	2024-11-08T11:00:00	8	Radiación solar	214
96725	7	Sololá	701	Sololá	4	Finca Santa Victoria	3	Marzo	2023-03-22T00:00:00	2024-11-08T12:00:00	2	Temperatura media	19.3
96726	7	Sololá	701	Sololá	4	Finca Santa Victoria	3	Marzo	2023-03-22T00:00:00	2024-11-08T12:00:00	4	Temperatura máxima	19.3
96727	7	Sololá	701	Sololá	4	Finca Santa Victoria	3	Marzo	2023-03-22T00:00:00	2024-11-08T12:00:00	3	Temperatura mínima	16.8
96728	7	Sololá	701	Sololá	4	Finca Santa Victoria	3	Marzo	2023-03-22T00:00:00	2024-11-08T12:00:00	5	Humedad	65
96729	7	Sololá	701	Sololá	4	Finca Santa Victoria	3	Marzo	2023-03-22T00:00:00	2024-11-08T12:00:00	6	Velocidad del viento	4.8
96730	7	Sololá	701	Sololá	4	Finca Santa Victoria	3	Marzo	2023-03-22T00:00:00	2024-11-08T12:00:00	7	Dirección del viento	4.83
96731	7	Sololá	701	Sololá	4	Finca Santa Victoria	3	Marzo	2023-03-22T00:00:00	2024-11-08T12:00:00	1	Precipitación	0
96732	7	Sololá	701	Sololá	4	Finca Santa Victoria	3	Marzo	2023-03-22T00:00:00	2024-11-08T12:00:00	8	Radiación solar	341
96733	7	Sololá	701	Sololá	4	Finca Santa Victoria	3	Marzo	2023-03-22T00:00:00	2024-11-08T13:00:00	2	Temperatura media	19.1
96734	7	Sololá	701	Sololá	4	Finca Santa Victoria	3	Marzo	2023-03-22T00:00:00	2024-11-08T13:00:00	4	Temperatura máxima	19.6
96735	7	Sololá	701	Sololá	4	Finca Santa Victoria	3	Marzo	2023-03-22T00:00:00	2024-11-08T13:00:00	3	Temperatura mínima	18.2
96736	7	Sololá	701	Sololá	4	Finca Santa Victoria	3	Marzo	2023-03-22T00:00:00	2024-11-08T13:00:00	5	Humedad	67
96737	7	Sololá	701	Sololá	4	Finca Santa Victoria	3	Marzo	2023-03-22T00:00:00	2024-11-08T13:00:00	6	Velocidad del viento	4.8
96738	7	Sololá	701	Sololá	4	Finca Santa Victoria	3	Marzo	2023-03-22T00:00:00	2024-11-08T13:00:00	7	Dirección del viento	4.83
96739	7	Sololá	701	Sololá	4	Finca Santa Victoria	3	Marzo	2023-03-22T00:00:00	2024-11-08T13:00:00	1	Precipitación	0
96740	7	Sololá	701	Sololá	4	Finca Santa Victoria	3	Marzo	2023-03-22T00:00:00	2024-11-08T13:00:00	8	Radiación solar	361
96741	7	Sololá	701	Sololá	4	Finca Santa Victoria	3	Marzo	2023-03-22T00:00:00	2024-11-08T14:00:00	2	Temperatura media	20.8
96742	7	Sololá	701	Sololá	4	Finca Santa Victoria	3	Marzo	2023-03-22T00:00:00	2024-11-08T14:00:00	4	Temperatura máxima	20.8
96743	7	Sololá	701	Sololá	4	Finca Santa Victoria	3	Marzo	2023-03-22T00:00:00	2024-11-08T14:00:00	3	Temperatura mínima	19.1
96744	7	Sololá	701	Sololá	4	Finca Santa Victoria	3	Marzo	2023-03-22T00:00:00	2024-11-08T14:00:00	5	Humedad	62
96745	7	Sololá	701	Sololá	4	Finca Santa Victoria	3	Marzo	2023-03-22T00:00:00	2024-11-08T14:00:00	6	Velocidad del viento	4.8
96746	7	Sololá	701	Sololá	4	Finca Santa Victoria	3	Marzo	2023-03-22T00:00:00	2024-11-08T14:00:00	7	Dirección del viento	4.83
96747	7	Sololá	701	Sololá	4	Finca Santa Victoria	3	Marzo	2023-03-22T00:00:00	2024-11-08T14:00:00	1	Precipitación	0
96748	7	Sololá	701	Sololá	4	Finca Santa Victoria	3	Marzo	2023-03-22T00:00:00	2024-11-08T14:00:00	8	Radiación solar	243
96749	7	Sololá	701	Sololá	4	Finca Santa Victoria	3	Marzo	2023-03-22T00:00:00	2024-11-08T15:00:00	2	Temperatura media	20.7
96750	7	Sololá	701	Sololá	4	Finca Santa Victoria	3	Marzo	2023-03-22T00:00:00	2024-11-08T15:00:00	4	Temperatura máxima	21.1
96751	7	Sololá	701	Sololá	4	Finca Santa Victoria	3	Marzo	2023-03-22T00:00:00	2024-11-08T15:00:00	3	Temperatura mínima	20.4
96752	7	Sololá	701	Sololá	4	Finca Santa Victoria	3	Marzo	2023-03-22T00:00:00	2024-11-08T15:00:00	5	Humedad	54
96753	7	Sololá	701	Sololá	4	Finca Santa Victoria	3	Marzo	2023-03-22T00:00:00	2024-11-08T15:00:00	6	Velocidad del viento	6.4
96754	7	Sololá	701	Sololá	4	Finca Santa Victoria	3	Marzo	2023-03-22T00:00:00	2024-11-08T15:00:00	7	Dirección del viento	6.44
96755	7	Sololá	701	Sololá	4	Finca Santa Victoria	3	Marzo	2023-03-22T00:00:00	2024-11-08T15:00:00	1	Precipitación	0
96756	7	Sololá	701	Sololá	4	Finca Santa Victoria	3	Marzo	2023-03-22T00:00:00	2024-11-08T15:00:00	8	Radiación solar	188
96757	7	Sololá	701	Sololá	4	Finca Santa Victoria	3	Marzo	2023-03-22T00:00:00	2024-11-08T16:00:00	2	Temperatura media	20.9
96758	7	Sololá	701	Sololá	4	Finca Santa Victoria	3	Marzo	2023-03-22T00:00:00	2024-11-08T16:00:00	4	Temperatura máxima	21.1
96759	7	Sololá	701	Sololá	4	Finca Santa Victoria	3	Marzo	2023-03-22T00:00:00	2024-11-08T16:00:00	3	Temperatura mínima	20.2
96760	7	Sololá	701	Sololá	4	Finca Santa Victoria	3	Marzo	2023-03-22T00:00:00	2024-11-08T16:00:00	5	Humedad	50
96761	7	Sololá	701	Sololá	4	Finca Santa Victoria	3	Marzo	2023-03-22T00:00:00	2024-11-08T16:00:00	6	Velocidad del viento	6.4
96762	7	Sololá	701	Sololá	4	Finca Santa Victoria	3	Marzo	2023-03-22T00:00:00	2024-11-08T16:00:00	7	Dirección del viento	6.44
96763	7	Sololá	701	Sololá	4	Finca Santa Victoria	3	Marzo	2023-03-22T00:00:00	2024-11-08T16:00:00	1	Precipitación	0
96764	7	Sololá	701	Sololá	4	Finca Santa Victoria	3	Marzo	2023-03-22T00:00:00	2024-11-08T16:00:00	8	Radiación solar	360
96765	7	Sololá	701	Sololá	4	Finca Santa Victoria	3	Marzo	2023-03-22T00:00:00	2024-11-08T17:00:00	2	Temperatura media	19.8
96766	7	Sololá	701	Sololá	4	Finca Santa Victoria	3	Marzo	2023-03-22T00:00:00	2024-11-08T17:00:00	4	Temperatura máxima	20.9
96767	7	Sololá	701	Sololá	4	Finca Santa Victoria	3	Marzo	2023-03-22T00:00:00	2024-11-08T17:00:00	3	Temperatura mínima	19.6
96768	7	Sololá	701	Sololá	4	Finca Santa Victoria	3	Marzo	2023-03-22T00:00:00	2024-11-08T17:00:00	5	Humedad	55
96769	7	Sololá	701	Sololá	4	Finca Santa Victoria	3	Marzo	2023-03-22T00:00:00	2024-11-08T17:00:00	6	Velocidad del viento	4.8
96770	7	Sololá	701	Sololá	4	Finca Santa Victoria	3	Marzo	2023-03-22T00:00:00	2024-11-08T17:00:00	7	Dirección del viento	4.83
96771	7	Sololá	701	Sololá	4	Finca Santa Victoria	3	Marzo	2023-03-22T00:00:00	2024-11-08T17:00:00	1	Precipitación	0
96772	7	Sololá	701	Sololá	4	Finca Santa Victoria	3	Marzo	2023-03-22T00:00:00	2024-11-08T17:00:00	8	Radiación solar	304
96773	7	Sololá	701	Sololá	4	Finca Santa Victoria	3	Marzo	2023-03-22T00:00:00	2024-11-08T18:00:00	2	Temperatura media	16.6
96774	7	Sololá	701	Sololá	4	Finca Santa Victoria	3	Marzo	2023-03-22T00:00:00	2024-11-08T18:00:00	4	Temperatura máxima	19.9
96775	7	Sololá	701	Sololá	4	Finca Santa Victoria	3	Marzo	2023-03-22T00:00:00	2024-11-08T18:00:00	3	Temperatura mínima	16.6
96776	7	Sololá	701	Sololá	4	Finca Santa Victoria	3	Marzo	2023-03-22T00:00:00	2024-11-08T18:00:00	5	Humedad	70
96777	7	Sololá	701	Sololá	4	Finca Santa Victoria	3	Marzo	2023-03-22T00:00:00	2024-11-08T18:00:00	6	Velocidad del viento	3.2
96778	7	Sololá	701	Sololá	4	Finca Santa Victoria	3	Marzo	2023-03-22T00:00:00	2024-11-08T18:00:00	7	Dirección del viento	3.22
96779	7	Sololá	701	Sololá	4	Finca Santa Victoria	3	Marzo	2023-03-22T00:00:00	2024-11-08T18:00:00	1	Precipitación	0
96780	7	Sololá	701	Sololá	4	Finca Santa Victoria	3	Marzo	2023-03-22T00:00:00	2024-11-08T18:00:00	8	Radiación solar	85
96781	7	Sololá	701	Sololá	4	Finca Santa Victoria	3	Marzo	2023-03-22T00:00:00	2024-11-08T19:00:00	2	Temperatura media	14.4
96782	7	Sololá	701	Sololá	4	Finca Santa Victoria	3	Marzo	2023-03-22T00:00:00	2024-11-08T19:00:00	4	Temperatura máxima	16.6
96783	7	Sololá	701	Sololá	4	Finca Santa Victoria	3	Marzo	2023-03-22T00:00:00	2024-11-08T19:00:00	3	Temperatura mínima	14.4
96784	7	Sololá	701	Sololá	4	Finca Santa Victoria	3	Marzo	2023-03-22T00:00:00	2024-11-08T19:00:00	5	Humedad	78
96785	7	Sololá	701	Sololá	4	Finca Santa Victoria	3	Marzo	2023-03-22T00:00:00	2024-11-08T19:00:00	6	Velocidad del viento	3.2
96786	7	Sololá	701	Sololá	4	Finca Santa Victoria	3	Marzo	2023-03-22T00:00:00	2024-11-08T19:00:00	7	Dirección del viento	3.22
96787	7	Sololá	701	Sololá	4	Finca Santa Victoria	3	Marzo	2023-03-22T00:00:00	2024-11-08T19:00:00	1	Precipitación	0
96788	7	Sololá	701	Sololá	4	Finca Santa Victoria	3	Marzo	2023-03-22T00:00:00	2024-11-08T19:00:00	8	Radiación solar	0
96789	7	Sololá	701	Sololá	4	Finca Santa Victoria	3	Marzo	2023-03-22T00:00:00	2024-11-08T20:00:00	2	Temperatura media	13.6
96790	7	Sololá	701	Sololá	4	Finca Santa Victoria	3	Marzo	2023-03-22T00:00:00	2024-11-08T20:00:00	4	Temperatura máxima	14.4
96791	7	Sololá	701	Sololá	4	Finca Santa Victoria	3	Marzo	2023-03-22T00:00:00	2024-11-08T20:00:00	3	Temperatura mínima	13.6
96792	7	Sololá	701	Sololá	4	Finca Santa Victoria	3	Marzo	2023-03-22T00:00:00	2024-11-08T20:00:00	5	Humedad	80
96793	7	Sololá	701	Sololá	4	Finca Santa Victoria	3	Marzo	2023-03-22T00:00:00	2024-11-08T20:00:00	6	Velocidad del viento	4.8
96794	7	Sololá	701	Sololá	4	Finca Santa Victoria	3	Marzo	2023-03-22T00:00:00	2024-11-08T20:00:00	7	Dirección del viento	4.83
96795	7	Sololá	701	Sololá	4	Finca Santa Victoria	3	Marzo	2023-03-22T00:00:00	2024-11-08T20:00:00	1	Precipitación	0
96796	7	Sololá	701	Sololá	4	Finca Santa Victoria	3	Marzo	2023-03-22T00:00:00	2024-11-08T20:00:00	8	Radiación solar	0
96797	7	Sololá	701	Sololá	4	Finca Santa Victoria	3	Marzo	2023-03-22T00:00:00	2024-11-08T21:00:00	2	Temperatura media	13.1
96798	7	Sololá	701	Sololá	4	Finca Santa Victoria	3	Marzo	2023-03-22T00:00:00	2024-11-08T21:00:00	4	Temperatura máxima	13.6
96799	7	Sololá	701	Sololá	4	Finca Santa Victoria	3	Marzo	2023-03-22T00:00:00	2024-11-08T21:00:00	3	Temperatura mínima	13.1
96800	7	Sololá	701	Sololá	4	Finca Santa Victoria	3	Marzo	2023-03-22T00:00:00	2024-11-08T21:00:00	5	Humedad	81
96801	7	Sololá	701	Sololá	4	Finca Santa Victoria	3	Marzo	2023-03-22T00:00:00	2024-11-08T21:00:00	6	Velocidad del viento	3.2
96802	7	Sololá	701	Sololá	4	Finca Santa Victoria	3	Marzo	2023-03-22T00:00:00	2024-11-08T21:00:00	7	Dirección del viento	3.22
96803	7	Sololá	701	Sololá	4	Finca Santa Victoria	3	Marzo	2023-03-22T00:00:00	2024-11-08T21:00:00	1	Precipitación	0
96804	7	Sololá	701	Sololá	4	Finca Santa Victoria	3	Marzo	2023-03-22T00:00:00	2024-11-08T21:00:00	8	Radiación solar	0
96805	7	Sololá	701	Sololá	4	Finca Santa Victoria	3	Marzo	2023-03-22T00:00:00	2024-11-08T22:00:00	2	Temperatura media	12.8
96806	7	Sololá	701	Sololá	4	Finca Santa Victoria	3	Marzo	2023-03-22T00:00:00	2024-11-08T22:00:00	4	Temperatura máxima	13.1
96807	7	Sololá	701	Sololá	4	Finca Santa Victoria	3	Marzo	2023-03-22T00:00:00	2024-11-08T22:00:00	3	Temperatura mínima	12.7
96808	7	Sololá	701	Sololá	4	Finca Santa Victoria	3	Marzo	2023-03-22T00:00:00	2024-11-08T22:00:00	5	Humedad	81
96809	7	Sololá	701	Sololá	4	Finca Santa Victoria	3	Marzo	2023-03-22T00:00:00	2024-11-08T22:00:00	6	Velocidad del viento	3.2
96810	7	Sololá	701	Sololá	4	Finca Santa Victoria	3	Marzo	2023-03-22T00:00:00	2024-11-08T22:00:00	7	Dirección del viento	3.22
96811	7	Sololá	701	Sololá	4	Finca Santa Victoria	3	Marzo	2023-03-22T00:00:00	2024-11-08T22:00:00	1	Precipitación	0
96812	7	Sololá	701	Sololá	4	Finca Santa Victoria	3	Marzo	2023-03-22T00:00:00	2024-11-08T22:00:00	8	Radiación solar	0
96813	7	Sololá	701	Sololá	4	Finca Santa Victoria	3	Marzo	2023-03-22T00:00:00	2024-11-08T23:00:00	2	Temperatura media	12.3
96814	7	Sololá	701	Sololá	4	Finca Santa Victoria	3	Marzo	2023-03-22T00:00:00	2024-11-08T23:00:00	4	Temperatura máxima	12.8
96815	7	Sololá	701	Sololá	4	Finca Santa Victoria	3	Marzo	2023-03-22T00:00:00	2024-11-08T23:00:00	3	Temperatura mínima	12.2
96816	7	Sololá	701	Sololá	4	Finca Santa Victoria	3	Marzo	2023-03-22T00:00:00	2024-11-08T23:00:00	5	Humedad	83
96817	7	Sololá	701	Sololá	4	Finca Santa Victoria	3	Marzo	2023-03-22T00:00:00	2024-11-08T23:00:00	6	Velocidad del viento	4.8
96818	7	Sololá	701	Sololá	4	Finca Santa Victoria	3	Marzo	2023-03-22T00:00:00	2024-11-08T23:00:00	7	Dirección del viento	4.83
96819	7	Sololá	701	Sololá	4	Finca Santa Victoria	3	Marzo	2023-03-22T00:00:00	2024-11-08T23:00:00	1	Precipitación	0
96820	7	Sololá	701	Sololá	4	Finca Santa Victoria	3	Marzo	2023-03-22T00:00:00	2024-11-08T23:00:00	8	Radiación solar	0
96821	7	Sololá	701	Sololá	4	Finca Santa Victoria	3	Marzo	2023-03-23T00:00:00	2024-11-08T00:00:00	2	Temperatura media	12.2
96822	7	Sololá	701	Sololá	4	Finca Santa Victoria	3	Marzo	2023-03-23T00:00:00	2024-11-08T00:00:00	4	Temperatura máxima	12.3
96823	7	Sololá	701	Sololá	4	Finca Santa Victoria	3	Marzo	2023-03-23T00:00:00	2024-11-08T00:00:00	3	Temperatura mínima	12.1
96824	7	Sololá	701	Sololá	4	Finca Santa Victoria	3	Marzo	2023-03-23T00:00:00	2024-11-08T00:00:00	5	Humedad	80
96825	7	Sololá	701	Sololá	4	Finca Santa Victoria	3	Marzo	2023-03-23T00:00:00	2024-11-08T00:00:00	6	Velocidad del viento	3.2
96826	7	Sololá	701	Sololá	4	Finca Santa Victoria	3	Marzo	2023-03-23T00:00:00	2024-11-08T00:00:00	7	Dirección del viento	3.22
96827	7	Sololá	701	Sololá	4	Finca Santa Victoria	3	Marzo	2023-03-23T00:00:00	2024-11-08T00:00:00	1	Precipitación	0
96828	7	Sololá	701	Sololá	4	Finca Santa Victoria	3	Marzo	2023-03-23T00:00:00	2024-11-08T00:00:00	8	Radiación solar	0
96829	7	Sololá	701	Sololá	4	Finca Santa Victoria	3	Marzo	2023-03-23T00:00:00	2024-11-08T01:00:00	2	Temperatura media	12.2
96830	7	Sololá	701	Sololá	4	Finca Santa Victoria	3	Marzo	2023-03-23T00:00:00	2024-11-08T01:00:00	4	Temperatura máxima	12.2
96831	7	Sololá	701	Sololá	4	Finca Santa Victoria	3	Marzo	2023-03-23T00:00:00	2024-11-08T01:00:00	3	Temperatura mínima	11.8
96832	7	Sololá	701	Sololá	4	Finca Santa Victoria	3	Marzo	2023-03-23T00:00:00	2024-11-08T01:00:00	5	Humedad	79
96833	7	Sololá	701	Sololá	4	Finca Santa Victoria	3	Marzo	2023-03-23T00:00:00	2024-11-08T01:00:00	6	Velocidad del viento	3.2
96834	7	Sololá	701	Sololá	4	Finca Santa Victoria	3	Marzo	2023-03-23T00:00:00	2024-11-08T01:00:00	7	Dirección del viento	3.22
96835	7	Sololá	701	Sololá	4	Finca Santa Victoria	3	Marzo	2023-03-23T00:00:00	2024-11-08T01:00:00	1	Precipitación	0
96836	7	Sololá	701	Sololá	4	Finca Santa Victoria	3	Marzo	2023-03-23T00:00:00	2024-11-08T01:00:00	8	Radiación solar	0
96837	7	Sololá	701	Sololá	4	Finca Santa Victoria	3	Marzo	2023-03-23T00:00:00	2024-11-08T02:00:00	2	Temperatura media	10.8
96838	7	Sololá	701	Sololá	4	Finca Santa Victoria	3	Marzo	2023-03-23T00:00:00	2024-11-08T02:00:00	4	Temperatura máxima	12.2
96839	7	Sololá	701	Sololá	4	Finca Santa Victoria	3	Marzo	2023-03-23T00:00:00	2024-11-08T02:00:00	3	Temperatura mínima	10.8
96840	7	Sololá	701	Sololá	4	Finca Santa Victoria	3	Marzo	2023-03-23T00:00:00	2024-11-08T02:00:00	5	Humedad	84
96841	7	Sololá	701	Sololá	4	Finca Santa Victoria	3	Marzo	2023-03-23T00:00:00	2024-11-08T02:00:00	6	Velocidad del viento	1.6
96842	7	Sololá	701	Sololá	4	Finca Santa Victoria	3	Marzo	2023-03-23T00:00:00	2024-11-08T02:00:00	7	Dirección del viento	1.61
96843	7	Sololá	701	Sololá	4	Finca Santa Victoria	3	Marzo	2023-03-23T00:00:00	2024-11-08T02:00:00	1	Precipitación	0
96844	7	Sololá	701	Sololá	4	Finca Santa Victoria	3	Marzo	2023-03-23T00:00:00	2024-11-08T02:00:00	8	Radiación solar	0
96845	7	Sololá	701	Sololá	4	Finca Santa Victoria	3	Marzo	2023-03-23T00:00:00	2024-11-08T03:00:00	2	Temperatura media	10.8
96846	7	Sololá	701	Sololá	4	Finca Santa Victoria	3	Marzo	2023-03-23T00:00:00	2024-11-08T03:00:00	4	Temperatura máxima	10.8
96847	7	Sololá	701	Sololá	4	Finca Santa Victoria	3	Marzo	2023-03-23T00:00:00	2024-11-08T03:00:00	3	Temperatura mínima	10.3
96848	7	Sololá	701	Sololá	4	Finca Santa Victoria	3	Marzo	2023-03-23T00:00:00	2024-11-08T03:00:00	5	Humedad	86
96849	7	Sololá	701	Sololá	4	Finca Santa Victoria	3	Marzo	2023-03-23T00:00:00	2024-11-08T03:00:00	6	Velocidad del viento	1.6
96850	7	Sololá	701	Sololá	4	Finca Santa Victoria	3	Marzo	2023-03-23T00:00:00	2024-11-08T03:00:00	7	Dirección del viento	1.61
96851	7	Sololá	701	Sololá	4	Finca Santa Victoria	3	Marzo	2023-03-23T00:00:00	2024-11-08T03:00:00	1	Precipitación	0
96852	7	Sololá	701	Sololá	4	Finca Santa Victoria	3	Marzo	2023-03-23T00:00:00	2024-11-08T03:00:00	8	Radiación solar	0
96853	7	Sololá	701	Sololá	4	Finca Santa Victoria	3	Marzo	2023-03-23T00:00:00	2024-11-08T04:00:00	2	Temperatura media	10.8
96854	7	Sololá	701	Sololá	4	Finca Santa Victoria	3	Marzo	2023-03-23T00:00:00	2024-11-08T04:00:00	4	Temperatura máxima	10.9
96855	7	Sololá	701	Sololá	4	Finca Santa Victoria	3	Marzo	2023-03-23T00:00:00	2024-11-08T04:00:00	3	Temperatura mínima	10.7
96856	7	Sololá	701	Sololá	4	Finca Santa Victoria	3	Marzo	2023-03-23T00:00:00	2024-11-08T04:00:00	5	Humedad	88
96857	7	Sololá	701	Sololá	4	Finca Santa Victoria	3	Marzo	2023-03-23T00:00:00	2024-11-08T04:00:00	6	Velocidad del viento	1.6
96858	7	Sololá	701	Sololá	4	Finca Santa Victoria	3	Marzo	2023-03-23T00:00:00	2024-11-08T04:00:00	7	Dirección del viento	1.61
96859	7	Sololá	701	Sololá	4	Finca Santa Victoria	3	Marzo	2023-03-23T00:00:00	2024-11-08T04:00:00	1	Precipitación	0
96860	7	Sololá	701	Sololá	4	Finca Santa Victoria	3	Marzo	2023-03-23T00:00:00	2024-11-08T04:00:00	8	Radiación solar	0
96861	7	Sololá	701	Sololá	4	Finca Santa Victoria	3	Marzo	2023-03-23T00:00:00	2024-11-08T05:00:00	2	Temperatura media	10.8
96862	7	Sololá	701	Sololá	4	Finca Santa Victoria	3	Marzo	2023-03-23T00:00:00	2024-11-08T05:00:00	4	Temperatura máxima	10.8
96863	7	Sololá	701	Sololá	4	Finca Santa Victoria	3	Marzo	2023-03-23T00:00:00	2024-11-08T05:00:00	3	Temperatura mínima	10.3
96864	7	Sololá	701	Sololá	4	Finca Santa Victoria	3	Marzo	2023-03-23T00:00:00	2024-11-08T05:00:00	5	Humedad	86
96865	7	Sololá	701	Sololá	4	Finca Santa Victoria	3	Marzo	2023-03-23T00:00:00	2024-11-08T05:00:00	6	Velocidad del viento	1.6
96866	7	Sololá	701	Sololá	4	Finca Santa Victoria	3	Marzo	2023-03-23T00:00:00	2024-11-08T05:00:00	7	Dirección del viento	1.61
96867	7	Sololá	701	Sololá	4	Finca Santa Victoria	3	Marzo	2023-03-23T00:00:00	2024-11-08T05:00:00	1	Precipitación	0
96868	7	Sololá	701	Sololá	4	Finca Santa Victoria	3	Marzo	2023-03-23T00:00:00	2024-11-08T05:00:00	8	Radiación solar	0
96869	7	Sololá	701	Sololá	4	Finca Santa Victoria	3	Marzo	2023-03-23T00:00:00	2024-11-08T06:00:00	2	Temperatura media	11.4
96870	7	Sololá	701	Sololá	4	Finca Santa Victoria	3	Marzo	2023-03-23T00:00:00	2024-11-08T06:00:00	4	Temperatura máxima	11.4
96871	7	Sololá	701	Sololá	4	Finca Santa Victoria	3	Marzo	2023-03-23T00:00:00	2024-11-08T06:00:00	3	Temperatura mínima	10.8
96872	7	Sololá	701	Sololá	4	Finca Santa Victoria	3	Marzo	2023-03-23T00:00:00	2024-11-08T06:00:00	5	Humedad	85
96873	7	Sololá	701	Sololá	4	Finca Santa Victoria	3	Marzo	2023-03-23T00:00:00	2024-11-08T06:00:00	6	Velocidad del viento	1.6
96874	7	Sololá	701	Sololá	4	Finca Santa Victoria	3	Marzo	2023-03-23T00:00:00	2024-11-08T06:00:00	7	Dirección del viento	1.61
96875	7	Sololá	701	Sololá	4	Finca Santa Victoria	3	Marzo	2023-03-23T00:00:00	2024-11-08T06:00:00	1	Precipitación	0
96876	7	Sololá	701	Sololá	4	Finca Santa Victoria	3	Marzo	2023-03-23T00:00:00	2024-11-08T06:00:00	8	Radiación solar	0
96877	7	Sololá	701	Sololá	4	Finca Santa Victoria	3	Marzo	2023-03-23T00:00:00	2024-11-08T07:00:00	2	Temperatura media	11.6
96878	7	Sololá	701	Sololá	4	Finca Santa Victoria	3	Marzo	2023-03-23T00:00:00	2024-11-08T07:00:00	4	Temperatura máxima	11.6
96879	7	Sololá	701	Sololá	4	Finca Santa Victoria	3	Marzo	2023-03-23T00:00:00	2024-11-08T07:00:00	3	Temperatura mínima	11.1
96880	7	Sololá	701	Sololá	4	Finca Santa Victoria	3	Marzo	2023-03-23T00:00:00	2024-11-08T07:00:00	5	Humedad	86
96881	7	Sololá	701	Sololá	4	Finca Santa Victoria	3	Marzo	2023-03-23T00:00:00	2024-11-08T07:00:00	6	Velocidad del viento	1.6
96882	7	Sololá	701	Sololá	4	Finca Santa Victoria	3	Marzo	2023-03-23T00:00:00	2024-11-08T07:00:00	7	Dirección del viento	1.61
96883	7	Sololá	701	Sololá	4	Finca Santa Victoria	3	Marzo	2023-03-23T00:00:00	2024-11-08T07:00:00	1	Precipitación	0
96884	7	Sololá	701	Sololá	4	Finca Santa Victoria	3	Marzo	2023-03-23T00:00:00	2024-11-08T07:00:00	8	Radiación solar	10
96885	7	Sololá	701	Sololá	4	Finca Santa Victoria	3	Marzo	2023-03-23T00:00:00	2024-11-08T08:00:00	2	Temperatura media	15
96886	7	Sololá	701	Sololá	4	Finca Santa Victoria	3	Marzo	2023-03-23T00:00:00	2024-11-08T08:00:00	4	Temperatura máxima	15.1
96887	7	Sololá	701	Sololá	4	Finca Santa Victoria	3	Marzo	2023-03-23T00:00:00	2024-11-08T08:00:00	3	Temperatura mínima	11.6
96888	7	Sololá	701	Sololá	4	Finca Santa Victoria	3	Marzo	2023-03-23T00:00:00	2024-11-08T08:00:00	5	Humedad	75
96889	7	Sololá	701	Sololá	4	Finca Santa Victoria	3	Marzo	2023-03-23T00:00:00	2024-11-08T08:00:00	6	Velocidad del viento	3.2
96890	7	Sololá	701	Sololá	4	Finca Santa Victoria	3	Marzo	2023-03-23T00:00:00	2024-11-08T08:00:00	7	Dirección del viento	3.22
96891	7	Sololá	701	Sololá	4	Finca Santa Victoria	3	Marzo	2023-03-23T00:00:00	2024-11-08T08:00:00	1	Precipitación	0
96892	7	Sololá	701	Sololá	4	Finca Santa Victoria	3	Marzo	2023-03-23T00:00:00	2024-11-08T08:00:00	8	Radiación solar	206
96893	7	Sololá	701	Sololá	4	Finca Santa Victoria	3	Marzo	2023-03-23T00:00:00	2024-11-08T09:00:00	2	Temperatura media	17.2
96894	7	Sololá	701	Sololá	4	Finca Santa Victoria	3	Marzo	2023-03-23T00:00:00	2024-11-08T09:00:00	4	Temperatura máxima	17.2
96895	7	Sololá	701	Sololá	4	Finca Santa Victoria	3	Marzo	2023-03-23T00:00:00	2024-11-08T09:00:00	3	Temperatura mínima	15.1
96896	7	Sololá	701	Sololá	4	Finca Santa Victoria	3	Marzo	2023-03-23T00:00:00	2024-11-08T09:00:00	5	Humedad	69
96897	7	Sololá	701	Sololá	4	Finca Santa Victoria	3	Marzo	2023-03-23T00:00:00	2024-11-08T09:00:00	6	Velocidad del viento	4.8
96898	7	Sololá	701	Sololá	4	Finca Santa Victoria	3	Marzo	2023-03-23T00:00:00	2024-11-08T09:00:00	7	Dirección del viento	4.83
96899	7	Sololá	701	Sololá	4	Finca Santa Victoria	3	Marzo	2023-03-23T00:00:00	2024-11-08T09:00:00	1	Precipitación	0
96900	7	Sololá	701	Sololá	4	Finca Santa Victoria	3	Marzo	2023-03-23T00:00:00	2024-11-08T09:00:00	8	Radiación solar	536
96901	7	Sololá	701	Sololá	4	Finca Santa Victoria	3	Marzo	2023-03-23T00:00:00	2024-11-08T10:00:00	2	Temperatura media	18.4
96902	7	Sololá	701	Sololá	4	Finca Santa Victoria	3	Marzo	2023-03-23T00:00:00	2024-11-08T10:00:00	4	Temperatura máxima	18.7
96903	7	Sololá	701	Sololá	4	Finca Santa Victoria	3	Marzo	2023-03-23T00:00:00	2024-11-08T10:00:00	3	Temperatura mínima	17.2
96904	7	Sololá	701	Sololá	4	Finca Santa Victoria	3	Marzo	2023-03-23T00:00:00	2024-11-08T10:00:00	5	Humedad	64
96905	7	Sololá	701	Sololá	4	Finca Santa Victoria	3	Marzo	2023-03-23T00:00:00	2024-11-08T10:00:00	6	Velocidad del viento	6.4
96906	7	Sololá	701	Sololá	4	Finca Santa Victoria	3	Marzo	2023-03-23T00:00:00	2024-11-08T10:00:00	7	Dirección del viento	6.44
96907	7	Sololá	701	Sololá	4	Finca Santa Victoria	3	Marzo	2023-03-23T00:00:00	2024-11-08T10:00:00	1	Precipitación	0
96908	7	Sololá	701	Sololá	4	Finca Santa Victoria	3	Marzo	2023-03-23T00:00:00	2024-11-08T10:00:00	8	Radiación solar	790
96909	7	Sololá	701	Sololá	4	Finca Santa Victoria	3	Marzo	2023-03-23T00:00:00	2024-11-08T11:00:00	2	Temperatura media	19
96910	7	Sololá	701	Sololá	4	Finca Santa Victoria	3	Marzo	2023-03-23T00:00:00	2024-11-08T11:00:00	4	Temperatura máxima	19.5
96911	7	Sololá	701	Sololá	4	Finca Santa Victoria	3	Marzo	2023-03-23T00:00:00	2024-11-08T11:00:00	3	Temperatura mínima	18.2
96912	7	Sololá	701	Sololá	4	Finca Santa Victoria	3	Marzo	2023-03-23T00:00:00	2024-11-08T11:00:00	5	Humedad	60
96913	7	Sololá	701	Sololá	4	Finca Santa Victoria	3	Marzo	2023-03-23T00:00:00	2024-11-08T11:00:00	6	Velocidad del viento	6.4
96914	7	Sololá	701	Sololá	4	Finca Santa Victoria	3	Marzo	2023-03-23T00:00:00	2024-11-08T11:00:00	7	Dirección del viento	6.44
96915	7	Sololá	701	Sololá	4	Finca Santa Victoria	3	Marzo	2023-03-23T00:00:00	2024-11-08T11:00:00	1	Precipitación	0
96916	7	Sololá	701	Sololá	4	Finca Santa Victoria	3	Marzo	2023-03-23T00:00:00	2024-11-08T11:00:00	8	Radiación solar	954
96917	7	Sololá	701	Sololá	4	Finca Santa Victoria	3	Marzo	2023-03-23T00:00:00	2024-11-08T12:00:00	2	Temperatura media	21.2
96918	7	Sololá	701	Sololá	4	Finca Santa Victoria	3	Marzo	2023-03-23T00:00:00	2024-11-08T12:00:00	4	Temperatura máxima	21.2
96919	7	Sololá	701	Sololá	4	Finca Santa Victoria	3	Marzo	2023-03-23T00:00:00	2024-11-08T12:00:00	3	Temperatura mínima	18.9
96920	7	Sololá	701	Sololá	4	Finca Santa Victoria	3	Marzo	2023-03-23T00:00:00	2024-11-08T12:00:00	5	Humedad	54
96921	7	Sololá	701	Sololá	4	Finca Santa Victoria	3	Marzo	2023-03-23T00:00:00	2024-11-08T12:00:00	6	Velocidad del viento	6.4
96922	7	Sololá	701	Sololá	4	Finca Santa Victoria	3	Marzo	2023-03-23T00:00:00	2024-11-08T12:00:00	7	Dirección del viento	6.44
96923	7	Sololá	701	Sololá	4	Finca Santa Victoria	3	Marzo	2023-03-23T00:00:00	2024-11-08T12:00:00	1	Precipitación	0
96924	7	Sololá	701	Sololá	4	Finca Santa Victoria	3	Marzo	2023-03-23T00:00:00	2024-11-08T12:00:00	8	Radiación solar	1030
96925	7	Sololá	701	Sololá	4	Finca Santa Victoria	3	Marzo	2023-03-23T00:00:00	2024-11-08T13:00:00	2	Temperatura media	20.1
96926	7	Sololá	701	Sololá	4	Finca Santa Victoria	3	Marzo	2023-03-23T00:00:00	2024-11-08T13:00:00	4	Temperatura máxima	21.6
96927	7	Sololá	701	Sololá	4	Finca Santa Victoria	3	Marzo	2023-03-23T00:00:00	2024-11-08T13:00:00	3	Temperatura mínima	19.9
96928	7	Sololá	701	Sololá	4	Finca Santa Victoria	3	Marzo	2023-03-23T00:00:00	2024-11-08T13:00:00	5	Humedad	58
96929	7	Sololá	701	Sololá	4	Finca Santa Victoria	3	Marzo	2023-03-23T00:00:00	2024-11-08T13:00:00	6	Velocidad del viento	4.8
96930	7	Sololá	701	Sololá	4	Finca Santa Victoria	3	Marzo	2023-03-23T00:00:00	2024-11-08T13:00:00	7	Dirección del viento	4.83
96931	7	Sololá	701	Sololá	4	Finca Santa Victoria	3	Marzo	2023-03-23T00:00:00	2024-11-08T13:00:00	1	Precipitación	0
96932	7	Sololá	701	Sololá	4	Finca Santa Victoria	3	Marzo	2023-03-23T00:00:00	2024-11-08T13:00:00	8	Radiación solar	678
96933	7	Sololá	701	Sololá	4	Finca Santa Victoria	3	Marzo	2023-03-23T00:00:00	2024-11-08T14:00:00	2	Temperatura media	20
96934	7	Sololá	701	Sololá	4	Finca Santa Victoria	3	Marzo	2023-03-23T00:00:00	2024-11-08T14:00:00	4	Temperatura máxima	21.3
96935	7	Sololá	701	Sololá	4	Finca Santa Victoria	3	Marzo	2023-03-23T00:00:00	2024-11-08T14:00:00	3	Temperatura mínima	19.9
96936	7	Sololá	701	Sololá	4	Finca Santa Victoria	3	Marzo	2023-03-23T00:00:00	2024-11-08T14:00:00	5	Humedad	59
96937	7	Sololá	701	Sololá	4	Finca Santa Victoria	3	Marzo	2023-03-23T00:00:00	2024-11-08T14:00:00	6	Velocidad del viento	4.8
96938	7	Sololá	701	Sololá	4	Finca Santa Victoria	3	Marzo	2023-03-23T00:00:00	2024-11-08T14:00:00	7	Dirección del viento	4.83
96939	7	Sololá	701	Sololá	4	Finca Santa Victoria	3	Marzo	2023-03-23T00:00:00	2024-11-08T14:00:00	1	Precipitación	0
96940	7	Sololá	701	Sololá	4	Finca Santa Victoria	3	Marzo	2023-03-23T00:00:00	2024-11-08T14:00:00	8	Radiación solar	221
96941	7	Sololá	701	Sololá	4	Finca Santa Victoria	3	Marzo	2023-03-23T00:00:00	2024-11-08T15:00:00	2	Temperatura media	20.2
96942	7	Sololá	701	Sololá	4	Finca Santa Victoria	3	Marzo	2023-03-23T00:00:00	2024-11-08T15:00:00	4	Temperatura máxima	21.1
96943	7	Sololá	701	Sololá	4	Finca Santa Victoria	3	Marzo	2023-03-23T00:00:00	2024-11-08T15:00:00	3	Temperatura mínima	19.3
96944	7	Sololá	701	Sololá	4	Finca Santa Victoria	3	Marzo	2023-03-23T00:00:00	2024-11-08T15:00:00	5	Humedad	58
96945	7	Sololá	701	Sololá	4	Finca Santa Victoria	3	Marzo	2023-03-23T00:00:00	2024-11-08T15:00:00	6	Velocidad del viento	4.8
96946	7	Sololá	701	Sololá	4	Finca Santa Victoria	3	Marzo	2023-03-23T00:00:00	2024-11-08T15:00:00	7	Dirección del viento	4.83
96947	7	Sololá	701	Sololá	4	Finca Santa Victoria	3	Marzo	2023-03-23T00:00:00	2024-11-08T15:00:00	1	Precipitación	0
96948	7	Sololá	701	Sololá	4	Finca Santa Victoria	3	Marzo	2023-03-23T00:00:00	2024-11-08T15:00:00	8	Radiación solar	201
96949	7	Sololá	701	Sololá	4	Finca Santa Victoria	3	Marzo	2023-03-23T00:00:00	2024-11-08T16:00:00	2	Temperatura media	20.8
96950	7	Sololá	701	Sololá	4	Finca Santa Victoria	3	Marzo	2023-03-23T00:00:00	2024-11-08T16:00:00	4	Temperatura máxima	20.9
96951	7	Sololá	701	Sololá	4	Finca Santa Victoria	3	Marzo	2023-03-23T00:00:00	2024-11-08T16:00:00	3	Temperatura mínima	19.7
96952	7	Sololá	701	Sololá	4	Finca Santa Victoria	3	Marzo	2023-03-23T00:00:00	2024-11-08T16:00:00	5	Humedad	55
96953	7	Sololá	701	Sololá	4	Finca Santa Victoria	3	Marzo	2023-03-23T00:00:00	2024-11-08T16:00:00	6	Velocidad del viento	4.8
96954	7	Sololá	701	Sololá	4	Finca Santa Victoria	3	Marzo	2023-03-23T00:00:00	2024-11-08T16:00:00	7	Dirección del viento	4.83
96955	7	Sololá	701	Sololá	4	Finca Santa Victoria	3	Marzo	2023-03-23T00:00:00	2024-11-08T16:00:00	1	Precipitación	0
96956	7	Sololá	701	Sololá	4	Finca Santa Victoria	3	Marzo	2023-03-23T00:00:00	2024-11-08T16:00:00	8	Radiación solar	336
96957	7	Sololá	701	Sololá	4	Finca Santa Victoria	3	Marzo	2023-03-23T00:00:00	2024-11-08T17:00:00	2	Temperatura media	19.1
96958	7	Sololá	701	Sololá	4	Finca Santa Victoria	3	Marzo	2023-03-23T00:00:00	2024-11-08T17:00:00	4	Temperatura máxima	21.1
96959	7	Sololá	701	Sololá	4	Finca Santa Victoria	3	Marzo	2023-03-23T00:00:00	2024-11-08T17:00:00	3	Temperatura mínima	19.1
96960	7	Sololá	701	Sololá	4	Finca Santa Victoria	3	Marzo	2023-03-23T00:00:00	2024-11-08T17:00:00	5	Humedad	58
96961	7	Sololá	701	Sololá	4	Finca Santa Victoria	3	Marzo	2023-03-23T00:00:00	2024-11-08T17:00:00	6	Velocidad del viento	4.8
96962	7	Sololá	701	Sololá	4	Finca Santa Victoria	3	Marzo	2023-03-23T00:00:00	2024-11-08T17:00:00	7	Dirección del viento	4.83
96963	7	Sololá	701	Sololá	4	Finca Santa Victoria	3	Marzo	2023-03-23T00:00:00	2024-11-08T17:00:00	1	Precipitación	0
96964	7	Sololá	701	Sololá	4	Finca Santa Victoria	3	Marzo	2023-03-23T00:00:00	2024-11-08T17:00:00	8	Radiación solar	287
96965	7	Sololá	701	Sololá	4	Finca Santa Victoria	3	Marzo	2023-03-23T00:00:00	2024-11-08T18:00:00	2	Temperatura media	16.2
96966	7	Sololá	701	Sololá	4	Finca Santa Victoria	3	Marzo	2023-03-23T00:00:00	2024-11-08T18:00:00	4	Temperatura máxima	19.2
96967	7	Sololá	701	Sololá	4	Finca Santa Victoria	3	Marzo	2023-03-23T00:00:00	2024-11-08T18:00:00	3	Temperatura mínima	16.2
96968	7	Sololá	701	Sololá	4	Finca Santa Victoria	3	Marzo	2023-03-23T00:00:00	2024-11-08T18:00:00	5	Humedad	69
96969	7	Sololá	701	Sololá	4	Finca Santa Victoria	3	Marzo	2023-03-23T00:00:00	2024-11-08T18:00:00	6	Velocidad del viento	3.2
96970	7	Sololá	701	Sololá	4	Finca Santa Victoria	3	Marzo	2023-03-23T00:00:00	2024-11-08T18:00:00	7	Dirección del viento	3.22
96971	7	Sololá	701	Sololá	4	Finca Santa Victoria	3	Marzo	2023-03-23T00:00:00	2024-11-08T18:00:00	1	Precipitación	0
96972	7	Sololá	701	Sololá	4	Finca Santa Victoria	3	Marzo	2023-03-23T00:00:00	2024-11-08T18:00:00	8	Radiación solar	58
96973	7	Sololá	701	Sololá	4	Finca Santa Victoria	3	Marzo	2023-03-23T00:00:00	2024-11-08T19:00:00	2	Temperatura media	14.9
96974	7	Sololá	701	Sololá	4	Finca Santa Victoria	3	Marzo	2023-03-23T00:00:00	2024-11-08T19:00:00	4	Temperatura máxima	16.2
96975	7	Sololá	701	Sololá	4	Finca Santa Victoria	3	Marzo	2023-03-23T00:00:00	2024-11-08T19:00:00	3	Temperatura mínima	14.9
96976	7	Sololá	701	Sololá	4	Finca Santa Victoria	3	Marzo	2023-03-23T00:00:00	2024-11-08T19:00:00	5	Humedad	75
96977	7	Sololá	701	Sololá	4	Finca Santa Victoria	3	Marzo	2023-03-23T00:00:00	2024-11-08T19:00:00	6	Velocidad del viento	3.2
96978	7	Sololá	701	Sololá	4	Finca Santa Victoria	3	Marzo	2023-03-23T00:00:00	2024-11-08T19:00:00	7	Dirección del viento	3.22
96979	7	Sololá	701	Sololá	4	Finca Santa Victoria	3	Marzo	2023-03-23T00:00:00	2024-11-08T19:00:00	1	Precipitación	0
96980	7	Sololá	701	Sololá	4	Finca Santa Victoria	3	Marzo	2023-03-23T00:00:00	2024-11-08T19:00:00	8	Radiación solar	0
96981	7	Sololá	701	Sololá	4	Finca Santa Victoria	3	Marzo	2023-03-23T00:00:00	2024-11-08T20:00:00	2	Temperatura media	14.1
96982	7	Sololá	701	Sololá	4	Finca Santa Victoria	3	Marzo	2023-03-23T00:00:00	2024-11-08T20:00:00	4	Temperatura máxima	14.9
96983	7	Sololá	701	Sololá	4	Finca Santa Victoria	3	Marzo	2023-03-23T00:00:00	2024-11-08T20:00:00	3	Temperatura mínima	14.1
96984	7	Sololá	701	Sololá	4	Finca Santa Victoria	3	Marzo	2023-03-23T00:00:00	2024-11-08T20:00:00	5	Humedad	79
96985	7	Sololá	701	Sololá	4	Finca Santa Victoria	3	Marzo	2023-03-23T00:00:00	2024-11-08T20:00:00	6	Velocidad del viento	3.2
96986	7	Sololá	701	Sololá	4	Finca Santa Victoria	3	Marzo	2023-03-23T00:00:00	2024-11-08T20:00:00	7	Dirección del viento	3.22
96987	7	Sololá	701	Sololá	4	Finca Santa Victoria	3	Marzo	2023-03-23T00:00:00	2024-11-08T20:00:00	1	Precipitación	0
96988	7	Sololá	701	Sololá	4	Finca Santa Victoria	3	Marzo	2023-03-23T00:00:00	2024-11-08T20:00:00	8	Radiación solar	0
96989	7	Sololá	701	Sololá	4	Finca Santa Victoria	3	Marzo	2023-03-23T00:00:00	2024-11-08T21:00:00	2	Temperatura media	13.2
96990	7	Sololá	701	Sololá	4	Finca Santa Victoria	3	Marzo	2023-03-23T00:00:00	2024-11-08T21:00:00	4	Temperatura máxima	14.1
96991	7	Sololá	701	Sololá	4	Finca Santa Victoria	3	Marzo	2023-03-23T00:00:00	2024-11-08T21:00:00	3	Temperatura mínima	13.2
96992	7	Sololá	701	Sololá	4	Finca Santa Victoria	3	Marzo	2023-03-23T00:00:00	2024-11-08T21:00:00	5	Humedad	80
96993	7	Sololá	701	Sololá	4	Finca Santa Victoria	3	Marzo	2023-03-23T00:00:00	2024-11-08T21:00:00	6	Velocidad del viento	3.2
96994	7	Sololá	701	Sololá	4	Finca Santa Victoria	3	Marzo	2023-03-23T00:00:00	2024-11-08T21:00:00	7	Dirección del viento	3.22
96995	7	Sololá	701	Sololá	4	Finca Santa Victoria	3	Marzo	2023-03-23T00:00:00	2024-11-08T21:00:00	1	Precipitación	0
96996	7	Sololá	701	Sololá	4	Finca Santa Victoria	3	Marzo	2023-03-23T00:00:00	2024-11-08T21:00:00	8	Radiación solar	0
96997	7	Sololá	701	Sololá	4	Finca Santa Victoria	3	Marzo	2023-03-23T00:00:00	2024-11-08T22:00:00	2	Temperatura media	12.4
96998	7	Sololá	701	Sololá	4	Finca Santa Victoria	3	Marzo	2023-03-23T00:00:00	2024-11-08T22:00:00	4	Temperatura máxima	13.2
96999	7	Sololá	701	Sololá	4	Finca Santa Victoria	3	Marzo	2023-03-23T00:00:00	2024-11-08T22:00:00	3	Temperatura mínima	12.4
97000	7	Sololá	701	Sololá	4	Finca Santa Victoria	3	Marzo	2023-03-23T00:00:00	2024-11-08T22:00:00	5	Humedad	84
97001	7	Sololá	701	Sololá	4	Finca Santa Victoria	3	Marzo	2023-03-23T00:00:00	2024-11-08T22:00:00	6	Velocidad del viento	3.2
97002	7	Sololá	701	Sololá	4	Finca Santa Victoria	3	Marzo	2023-03-23T00:00:00	2024-11-08T22:00:00	7	Dirección del viento	3.22
97003	7	Sololá	701	Sololá	4	Finca Santa Victoria	3	Marzo	2023-03-23T00:00:00	2024-11-08T22:00:00	1	Precipitación	0
97004	7	Sololá	701	Sololá	4	Finca Santa Victoria	3	Marzo	2023-03-23T00:00:00	2024-11-08T22:00:00	8	Radiación solar	0
97005	7	Sololá	701	Sololá	4	Finca Santa Victoria	3	Marzo	2023-03-23T00:00:00	2024-11-08T23:00:00	2	Temperatura media	11.7
97006	7	Sololá	701	Sololá	4	Finca Santa Victoria	3	Marzo	2023-03-23T00:00:00	2024-11-08T23:00:00	4	Temperatura máxima	12.4
97007	7	Sololá	701	Sololá	4	Finca Santa Victoria	3	Marzo	2023-03-23T00:00:00	2024-11-08T23:00:00	3	Temperatura mínima	11.7
97008	7	Sololá	701	Sololá	4	Finca Santa Victoria	3	Marzo	2023-03-23T00:00:00	2024-11-08T23:00:00	5	Humedad	86
97009	7	Sololá	701	Sololá	4	Finca Santa Victoria	3	Marzo	2023-03-23T00:00:00	2024-11-08T23:00:00	6	Velocidad del viento	1.6
97010	7	Sololá	701	Sololá	4	Finca Santa Victoria	3	Marzo	2023-03-23T00:00:00	2024-11-08T23:00:00	7	Dirección del viento	1.61
97011	7	Sololá	701	Sololá	4	Finca Santa Victoria	3	Marzo	2023-03-23T00:00:00	2024-11-08T23:00:00	1	Precipitación	0
97012	7	Sololá	701	Sololá	4	Finca Santa Victoria	3	Marzo	2023-03-23T00:00:00	2024-11-08T23:00:00	8	Radiación solar	0
97013	7	Sololá	701	Sololá	4	Finca Santa Victoria	3	Marzo	2023-03-24T00:00:00	2024-11-08T00:00:00	2	Temperatura media	10.9
97014	7	Sololá	701	Sololá	4	Finca Santa Victoria	3	Marzo	2023-03-24T00:00:00	2024-11-08T00:00:00	4	Temperatura máxima	11.7
97015	7	Sololá	701	Sololá	4	Finca Santa Victoria	3	Marzo	2023-03-24T00:00:00	2024-11-08T00:00:00	3	Temperatura mínima	10.9
97016	7	Sololá	701	Sololá	4	Finca Santa Victoria	3	Marzo	2023-03-24T00:00:00	2024-11-08T00:00:00	5	Humedad	85
97017	7	Sololá	701	Sololá	4	Finca Santa Victoria	3	Marzo	2023-03-24T00:00:00	2024-11-08T00:00:00	6	Velocidad del viento	1.6
97018	7	Sololá	701	Sololá	4	Finca Santa Victoria	3	Marzo	2023-03-24T00:00:00	2024-11-08T00:00:00	7	Dirección del viento	1.61
97019	7	Sololá	701	Sololá	4	Finca Santa Victoria	3	Marzo	2023-03-24T00:00:00	2024-11-08T00:00:00	1	Precipitación	0
97020	7	Sololá	701	Sololá	4	Finca Santa Victoria	3	Marzo	2023-03-24T00:00:00	2024-11-08T00:00:00	8	Radiación solar	0
97021	7	Sololá	701	Sololá	4	Finca Santa Victoria	3	Marzo	2023-03-24T00:00:00	2024-11-08T01:00:00	2	Temperatura media	10.5
97022	7	Sololá	701	Sololá	4	Finca Santa Victoria	3	Marzo	2023-03-24T00:00:00	2024-11-08T01:00:00	4	Temperatura máxima	11.1
97023	7	Sololá	701	Sololá	4	Finca Santa Victoria	3	Marzo	2023-03-24T00:00:00	2024-11-08T01:00:00	3	Temperatura mínima	10.5
97024	7	Sololá	701	Sololá	4	Finca Santa Victoria	3	Marzo	2023-03-24T00:00:00	2024-11-08T01:00:00	5	Humedad	88
97025	7	Sololá	701	Sololá	4	Finca Santa Victoria	3	Marzo	2023-03-24T00:00:00	2024-11-08T01:00:00	6	Velocidad del viento	1.6
97026	7	Sololá	701	Sololá	4	Finca Santa Victoria	3	Marzo	2023-03-24T00:00:00	2024-11-08T01:00:00	7	Dirección del viento	1.61
97027	7	Sololá	701	Sololá	4	Finca Santa Victoria	3	Marzo	2023-03-24T00:00:00	2024-11-08T01:00:00	1	Precipitación	0
97028	7	Sololá	701	Sololá	4	Finca Santa Victoria	3	Marzo	2023-03-24T00:00:00	2024-11-08T01:00:00	8	Radiación solar	0
97029	7	Sololá	701	Sololá	4	Finca Santa Victoria	3	Marzo	2023-03-24T00:00:00	2024-11-08T02:00:00	2	Temperatura media	10.6
97030	7	Sololá	701	Sololá	4	Finca Santa Victoria	3	Marzo	2023-03-24T00:00:00	2024-11-08T02:00:00	4	Temperatura máxima	10.6
97031	7	Sololá	701	Sololá	4	Finca Santa Victoria	3	Marzo	2023-03-24T00:00:00	2024-11-08T02:00:00	3	Temperatura mínima	10.3
97032	7	Sololá	701	Sololá	4	Finca Santa Victoria	3	Marzo	2023-03-24T00:00:00	2024-11-08T02:00:00	5	Humedad	87
97033	7	Sololá	701	Sololá	4	Finca Santa Victoria	3	Marzo	2023-03-24T00:00:00	2024-11-08T02:00:00	6	Velocidad del viento	1.6
97034	7	Sololá	701	Sololá	4	Finca Santa Victoria	3	Marzo	2023-03-24T00:00:00	2024-11-08T02:00:00	7	Dirección del viento	1.61
97035	7	Sololá	701	Sololá	4	Finca Santa Victoria	3	Marzo	2023-03-24T00:00:00	2024-11-08T02:00:00	1	Precipitación	0
97036	7	Sololá	701	Sololá	4	Finca Santa Victoria	3	Marzo	2023-03-24T00:00:00	2024-11-08T02:00:00	8	Radiación solar	0
97037	7	Sololá	701	Sololá	4	Finca Santa Victoria	3	Marzo	2023-03-24T00:00:00	2024-11-08T03:00:00	2	Temperatura media	10.1
97038	7	Sololá	701	Sololá	4	Finca Santa Victoria	3	Marzo	2023-03-24T00:00:00	2024-11-08T03:00:00	4	Temperatura máxima	10.6
97039	7	Sololá	701	Sololá	4	Finca Santa Victoria	3	Marzo	2023-03-24T00:00:00	2024-11-08T03:00:00	3	Temperatura mínima	10.1
97040	7	Sololá	701	Sololá	4	Finca Santa Victoria	3	Marzo	2023-03-24T00:00:00	2024-11-08T03:00:00	5	Humedad	89
97041	7	Sololá	701	Sololá	4	Finca Santa Victoria	3	Marzo	2023-03-24T00:00:00	2024-11-08T03:00:00	6	Velocidad del viento	1.6
97042	7	Sololá	701	Sololá	4	Finca Santa Victoria	3	Marzo	2023-03-24T00:00:00	2024-11-08T03:00:00	7	Dirección del viento	1.61
97043	7	Sololá	701	Sololá	4	Finca Santa Victoria	3	Marzo	2023-03-24T00:00:00	2024-11-08T03:00:00	1	Precipitación	0
97044	7	Sololá	701	Sololá	4	Finca Santa Victoria	3	Marzo	2023-03-24T00:00:00	2024-11-08T03:00:00	8	Radiación solar	0
97045	7	Sololá	701	Sololá	4	Finca Santa Victoria	3	Marzo	2023-03-24T00:00:00	2024-11-08T04:00:00	2	Temperatura media	9.9
97046	7	Sololá	701	Sololá	4	Finca Santa Victoria	3	Marzo	2023-03-24T00:00:00	2024-11-08T04:00:00	4	Temperatura máxima	10.1
97047	7	Sololá	701	Sololá	4	Finca Santa Victoria	3	Marzo	2023-03-24T00:00:00	2024-11-08T04:00:00	3	Temperatura mínima	9.7
97048	7	Sololá	701	Sololá	4	Finca Santa Victoria	3	Marzo	2023-03-24T00:00:00	2024-11-08T04:00:00	5	Humedad	89
97049	7	Sololá	701	Sololá	4	Finca Santa Victoria	3	Marzo	2023-03-24T00:00:00	2024-11-08T04:00:00	6	Velocidad del viento	1.6
97050	7	Sololá	701	Sololá	4	Finca Santa Victoria	3	Marzo	2023-03-24T00:00:00	2024-11-08T04:00:00	7	Dirección del viento	1.61
97051	7	Sololá	701	Sololá	4	Finca Santa Victoria	3	Marzo	2023-03-24T00:00:00	2024-11-08T04:00:00	1	Precipitación	0
97052	7	Sololá	701	Sololá	4	Finca Santa Victoria	3	Marzo	2023-03-24T00:00:00	2024-11-08T04:00:00	8	Radiación solar	0
97053	7	Sololá	701	Sololá	4	Finca Santa Victoria	3	Marzo	2023-03-24T00:00:00	2024-11-08T05:00:00	2	Temperatura media	10.3
97054	7	Sololá	701	Sololá	4	Finca Santa Victoria	3	Marzo	2023-03-24T00:00:00	2024-11-08T05:00:00	4	Temperatura máxima	10.3
97055	7	Sololá	701	Sololá	4	Finca Santa Victoria	3	Marzo	2023-03-24T00:00:00	2024-11-08T05:00:00	3	Temperatura mínima	9.8
97056	7	Sololá	701	Sololá	4	Finca Santa Victoria	3	Marzo	2023-03-24T00:00:00	2024-11-08T05:00:00	5	Humedad	82
97057	7	Sololá	701	Sololá	4	Finca Santa Victoria	3	Marzo	2023-03-24T00:00:00	2024-11-08T05:00:00	6	Velocidad del viento	1.6
97058	7	Sololá	701	Sololá	4	Finca Santa Victoria	3	Marzo	2023-03-24T00:00:00	2024-11-08T05:00:00	7	Dirección del viento	1.61
97059	7	Sololá	701	Sololá	4	Finca Santa Victoria	3	Marzo	2023-03-24T00:00:00	2024-11-08T05:00:00	1	Precipitación	0
97060	7	Sololá	701	Sololá	4	Finca Santa Victoria	3	Marzo	2023-03-24T00:00:00	2024-11-08T05:00:00	8	Radiación solar	0
97061	7	Sololá	701	Sololá	4	Finca Santa Victoria	3	Marzo	2023-03-24T00:00:00	2024-11-08T06:00:00	2	Temperatura media	11.2
97062	7	Sololá	701	Sololá	4	Finca Santa Victoria	3	Marzo	2023-03-24T00:00:00	2024-11-08T06:00:00	4	Temperatura máxima	11.2
97063	7	Sololá	701	Sololá	4	Finca Santa Victoria	3	Marzo	2023-03-24T00:00:00	2024-11-08T06:00:00	3	Temperatura mínima	10.3
97064	7	Sololá	701	Sololá	4	Finca Santa Victoria	3	Marzo	2023-03-24T00:00:00	2024-11-08T06:00:00	5	Humedad	82
97065	7	Sololá	701	Sololá	4	Finca Santa Victoria	3	Marzo	2023-03-24T00:00:00	2024-11-08T06:00:00	6	Velocidad del viento	1.6
97066	7	Sololá	701	Sololá	4	Finca Santa Victoria	3	Marzo	2023-03-24T00:00:00	2024-11-08T06:00:00	7	Dirección del viento	1.61
97067	7	Sololá	701	Sololá	4	Finca Santa Victoria	3	Marzo	2023-03-24T00:00:00	2024-11-08T06:00:00	1	Precipitación	0
97068	7	Sololá	701	Sololá	4	Finca Santa Victoria	3	Marzo	2023-03-24T00:00:00	2024-11-08T06:00:00	8	Radiación solar	0
97069	7	Sololá	701	Sololá	4	Finca Santa Victoria	3	Marzo	2023-03-24T00:00:00	2024-11-08T07:00:00	2	Temperatura media	11.5
97070	7	Sololá	701	Sololá	4	Finca Santa Victoria	3	Marzo	2023-03-24T00:00:00	2024-11-08T07:00:00	4	Temperatura máxima	11.5
97071	7	Sololá	701	Sololá	4	Finca Santa Victoria	3	Marzo	2023-03-24T00:00:00	2024-11-08T07:00:00	3	Temperatura mínima	11.1
97072	7	Sololá	701	Sololá	4	Finca Santa Victoria	3	Marzo	2023-03-24T00:00:00	2024-11-08T07:00:00	5	Humedad	86
97073	7	Sololá	701	Sololá	4	Finca Santa Victoria	3	Marzo	2023-03-24T00:00:00	2024-11-08T07:00:00	6	Velocidad del viento	1.6
97074	7	Sololá	701	Sololá	4	Finca Santa Victoria	3	Marzo	2023-03-24T00:00:00	2024-11-08T07:00:00	7	Dirección del viento	1.61
97075	7	Sololá	701	Sololá	4	Finca Santa Victoria	3	Marzo	2023-03-24T00:00:00	2024-11-08T07:00:00	1	Precipitación	0
97076	7	Sololá	701	Sololá	4	Finca Santa Victoria	3	Marzo	2023-03-24T00:00:00	2024-11-08T07:00:00	8	Radiación solar	12
97077	7	Sololá	701	Sololá	4	Finca Santa Victoria	3	Marzo	2023-03-24T00:00:00	2024-11-08T08:00:00	2	Temperatura media	14.3
97078	7	Sololá	701	Sololá	4	Finca Santa Victoria	3	Marzo	2023-03-24T00:00:00	2024-11-08T08:00:00	4	Temperatura máxima	14.3
97079	7	Sololá	701	Sololá	4	Finca Santa Victoria	3	Marzo	2023-03-24T00:00:00	2024-11-08T08:00:00	3	Temperatura mínima	11.5
97080	7	Sololá	701	Sololá	4	Finca Santa Victoria	3	Marzo	2023-03-24T00:00:00	2024-11-08T08:00:00	5	Humedad	84
97081	7	Sololá	701	Sololá	4	Finca Santa Victoria	3	Marzo	2023-03-24T00:00:00	2024-11-08T08:00:00	6	Velocidad del viento	1.6
97082	7	Sololá	701	Sololá	4	Finca Santa Victoria	3	Marzo	2023-03-24T00:00:00	2024-11-08T08:00:00	7	Dirección del viento	1.61
97083	7	Sololá	701	Sololá	4	Finca Santa Victoria	3	Marzo	2023-03-24T00:00:00	2024-11-08T08:00:00	1	Precipitación	0
97084	7	Sololá	701	Sololá	4	Finca Santa Victoria	3	Marzo	2023-03-24T00:00:00	2024-11-08T08:00:00	8	Radiación solar	171
97085	7	Sololá	701	Sololá	4	Finca Santa Victoria	3	Marzo	2023-03-24T00:00:00	2024-11-08T09:00:00	2	Temperatura media	15.8
97086	7	Sololá	701	Sololá	4	Finca Santa Victoria	3	Marzo	2023-03-24T00:00:00	2024-11-08T09:00:00	4	Temperatura máxima	15.9
97087	7	Sololá	701	Sololá	4	Finca Santa Victoria	3	Marzo	2023-03-24T00:00:00	2024-11-08T09:00:00	3	Temperatura mínima	14.3
97088	7	Sololá	701	Sololá	4	Finca Santa Victoria	3	Marzo	2023-03-24T00:00:00	2024-11-08T09:00:00	5	Humedad	77
97089	7	Sololá	701	Sololá	4	Finca Santa Victoria	3	Marzo	2023-03-24T00:00:00	2024-11-08T09:00:00	6	Velocidad del viento	1.6
97090	7	Sololá	701	Sololá	4	Finca Santa Victoria	3	Marzo	2023-03-24T00:00:00	2024-11-08T09:00:00	7	Dirección del viento	1.61
97091	7	Sololá	701	Sololá	4	Finca Santa Victoria	3	Marzo	2023-03-24T00:00:00	2024-11-08T09:00:00	1	Precipitación	0
97092	7	Sololá	701	Sololá	4	Finca Santa Victoria	3	Marzo	2023-03-24T00:00:00	2024-11-08T09:00:00	8	Radiación solar	537
97093	7	Sololá	701	Sololá	4	Finca Santa Victoria	3	Marzo	2023-03-24T00:00:00	2024-11-08T10:00:00	2	Temperatura media	17.7
97094	7	Sololá	701	Sololá	4	Finca Santa Victoria	3	Marzo	2023-03-24T00:00:00	2024-11-08T10:00:00	4	Temperatura máxima	17.7
97095	7	Sololá	701	Sololá	4	Finca Santa Victoria	3	Marzo	2023-03-24T00:00:00	2024-11-08T10:00:00	3	Temperatura mínima	15.7
97096	7	Sololá	701	Sololá	4	Finca Santa Victoria	3	Marzo	2023-03-24T00:00:00	2024-11-08T10:00:00	5	Humedad	71
97097	7	Sololá	701	Sololá	4	Finca Santa Victoria	3	Marzo	2023-03-24T00:00:00	2024-11-08T10:00:00	6	Velocidad del viento	3.2
97098	7	Sololá	701	Sololá	4	Finca Santa Victoria	3	Marzo	2023-03-24T00:00:00	2024-11-08T10:00:00	7	Dirección del viento	3.22
97099	7	Sololá	701	Sololá	4	Finca Santa Victoria	3	Marzo	2023-03-24T00:00:00	2024-11-08T10:00:00	1	Precipitación	0
97100	7	Sololá	701	Sololá	4	Finca Santa Victoria	3	Marzo	2023-03-24T00:00:00	2024-11-08T10:00:00	8	Radiación solar	785
97101	7	Sololá	701	Sololá	4	Finca Santa Victoria	3	Marzo	2023-03-24T00:00:00	2024-11-08T11:00:00	2	Temperatura media	18.1
97102	7	Sololá	701	Sololá	4	Finca Santa Victoria	3	Marzo	2023-03-24T00:00:00	2024-11-08T11:00:00	4	Temperatura máxima	18.8
97103	7	Sololá	701	Sololá	4	Finca Santa Victoria	3	Marzo	2023-03-24T00:00:00	2024-11-08T11:00:00	3	Temperatura mínima	17.7
97104	7	Sololá	701	Sololá	4	Finca Santa Victoria	3	Marzo	2023-03-24T00:00:00	2024-11-08T11:00:00	5	Humedad	64
97105	7	Sololá	701	Sololá	4	Finca Santa Victoria	3	Marzo	2023-03-24T00:00:00	2024-11-08T11:00:00	6	Velocidad del viento	4.8
97106	7	Sololá	701	Sololá	4	Finca Santa Victoria	3	Marzo	2023-03-24T00:00:00	2024-11-08T11:00:00	7	Dirección del viento	4.83
97107	7	Sololá	701	Sololá	4	Finca Santa Victoria	3	Marzo	2023-03-24T00:00:00	2024-11-08T11:00:00	1	Precipitación	0
97108	7	Sololá	701	Sololá	4	Finca Santa Victoria	3	Marzo	2023-03-24T00:00:00	2024-11-08T11:00:00	8	Radiación solar	930
97109	7	Sololá	701	Sololá	4	Finca Santa Victoria	3	Marzo	2023-03-24T00:00:00	2024-11-08T12:00:00	2	Temperatura media	17.8
97110	7	Sololá	701	Sololá	4	Finca Santa Victoria	3	Marzo	2023-03-24T00:00:00	2024-11-08T12:00:00	4	Temperatura máxima	18.6
97111	7	Sololá	701	Sololá	4	Finca Santa Victoria	3	Marzo	2023-03-24T00:00:00	2024-11-08T12:00:00	3	Temperatura mínima	17.6
97112	7	Sololá	701	Sololá	4	Finca Santa Victoria	3	Marzo	2023-03-24T00:00:00	2024-11-08T12:00:00	5	Humedad	74
97113	7	Sololá	701	Sololá	4	Finca Santa Victoria	3	Marzo	2023-03-24T00:00:00	2024-11-08T12:00:00	6	Velocidad del viento	6.4
97114	7	Sololá	701	Sololá	4	Finca Santa Victoria	3	Marzo	2023-03-24T00:00:00	2024-11-08T12:00:00	7	Dirección del viento	6.44
97115	7	Sololá	701	Sololá	4	Finca Santa Victoria	3	Marzo	2023-03-24T00:00:00	2024-11-08T12:00:00	1	Precipitación	0
97116	7	Sololá	701	Sololá	4	Finca Santa Victoria	3	Marzo	2023-03-24T00:00:00	2024-11-08T12:00:00	8	Radiación solar	1002
97117	7	Sololá	701	Sololá	4	Finca Santa Victoria	3	Marzo	2023-03-24T00:00:00	2024-11-08T13:00:00	2	Temperatura media	18.1
97118	7	Sololá	701	Sololá	4	Finca Santa Victoria	3	Marzo	2023-03-24T00:00:00	2024-11-08T13:00:00	4	Temperatura máxima	18.8
97119	7	Sololá	701	Sololá	4	Finca Santa Victoria	3	Marzo	2023-03-24T00:00:00	2024-11-08T13:00:00	3	Temperatura mínima	17.3
97120	7	Sololá	701	Sololá	4	Finca Santa Victoria	3	Marzo	2023-03-24T00:00:00	2024-11-08T13:00:00	5	Humedad	75
97121	7	Sololá	701	Sololá	4	Finca Santa Victoria	3	Marzo	2023-03-24T00:00:00	2024-11-08T13:00:00	6	Velocidad del viento	6.4
97122	7	Sololá	701	Sololá	4	Finca Santa Victoria	3	Marzo	2023-03-24T00:00:00	2024-11-08T13:00:00	7	Dirección del viento	6.44
97123	7	Sololá	701	Sololá	4	Finca Santa Victoria	3	Marzo	2023-03-24T00:00:00	2024-11-08T13:00:00	1	Precipitación	0
97124	7	Sololá	701	Sololá	4	Finca Santa Victoria	3	Marzo	2023-03-24T00:00:00	2024-11-08T13:00:00	8	Radiación solar	608
97125	7	Sololá	701	Sololá	4	Finca Santa Victoria	3	Marzo	2023-03-24T00:00:00	2024-11-08T14:00:00	2	Temperatura media	17.6
97126	7	Sololá	701	Sololá	4	Finca Santa Victoria	3	Marzo	2023-03-24T00:00:00	2024-11-08T14:00:00	4	Temperatura máxima	18.9
97127	7	Sololá	701	Sololá	4	Finca Santa Victoria	3	Marzo	2023-03-24T00:00:00	2024-11-08T14:00:00	3	Temperatura mínima	17.4
97128	7	Sololá	701	Sololá	4	Finca Santa Victoria	3	Marzo	2023-03-24T00:00:00	2024-11-08T14:00:00	5	Humedad	77
97129	7	Sololá	701	Sololá	4	Finca Santa Victoria	3	Marzo	2023-03-24T00:00:00	2024-11-08T14:00:00	6	Velocidad del viento	4.8
97130	7	Sololá	701	Sololá	4	Finca Santa Victoria	3	Marzo	2023-03-24T00:00:00	2024-11-08T14:00:00	7	Dirección del viento	4.83
97131	7	Sololá	701	Sololá	4	Finca Santa Victoria	3	Marzo	2023-03-24T00:00:00	2024-11-08T14:00:00	1	Precipitación	0
97132	7	Sololá	701	Sololá	4	Finca Santa Victoria	3	Marzo	2023-03-24T00:00:00	2024-11-08T14:00:00	8	Radiación solar	282
97133	7	Sololá	701	Sololá	4	Finca Santa Victoria	3	Marzo	2023-03-24T00:00:00	2024-11-08T15:00:00	2	Temperatura media	17
97134	7	Sololá	701	Sololá	4	Finca Santa Victoria	3	Marzo	2023-03-24T00:00:00	2024-11-08T15:00:00	4	Temperatura máxima	18.3
97135	7	Sololá	701	Sololá	4	Finca Santa Victoria	3	Marzo	2023-03-24T00:00:00	2024-11-08T15:00:00	3	Temperatura mínima	17
97136	7	Sololá	701	Sololá	4	Finca Santa Victoria	3	Marzo	2023-03-24T00:00:00	2024-11-08T15:00:00	5	Humedad	79
97137	7	Sololá	701	Sololá	4	Finca Santa Victoria	3	Marzo	2023-03-24T00:00:00	2024-11-08T15:00:00	6	Velocidad del viento	6.4
97138	7	Sololá	701	Sololá	4	Finca Santa Victoria	3	Marzo	2023-03-24T00:00:00	2024-11-08T15:00:00	7	Dirección del viento	6.44
97139	7	Sololá	701	Sololá	4	Finca Santa Victoria	3	Marzo	2023-03-24T00:00:00	2024-11-08T15:00:00	1	Precipitación	0
97140	7	Sololá	701	Sololá	4	Finca Santa Victoria	3	Marzo	2023-03-24T00:00:00	2024-11-08T15:00:00	8	Radiación solar	229
97141	7	Sololá	701	Sololá	4	Finca Santa Victoria	3	Marzo	2023-03-24T00:00:00	2024-11-08T16:00:00	2	Temperatura media	17.6
97142	7	Sololá	701	Sololá	4	Finca Santa Victoria	3	Marzo	2023-03-24T00:00:00	2024-11-08T16:00:00	4	Temperatura máxima	17.7
97143	7	Sololá	701	Sololá	4	Finca Santa Victoria	3	Marzo	2023-03-24T00:00:00	2024-11-08T16:00:00	3	Temperatura mínima	17
97144	7	Sololá	701	Sololá	4	Finca Santa Victoria	3	Marzo	2023-03-24T00:00:00	2024-11-08T16:00:00	5	Humedad	80
97145	7	Sololá	701	Sololá	4	Finca Santa Victoria	3	Marzo	2023-03-24T00:00:00	2024-11-08T16:00:00	6	Velocidad del viento	4.8
97146	7	Sololá	701	Sololá	4	Finca Santa Victoria	3	Marzo	2023-03-24T00:00:00	2024-11-08T16:00:00	7	Dirección del viento	4.83
97147	7	Sololá	701	Sololá	4	Finca Santa Victoria	3	Marzo	2023-03-24T00:00:00	2024-11-08T16:00:00	1	Precipitación	0
97148	7	Sololá	701	Sololá	4	Finca Santa Victoria	3	Marzo	2023-03-24T00:00:00	2024-11-08T16:00:00	8	Radiación solar	213
97149	7	Sololá	701	Sololá	4	Finca Santa Victoria	3	Marzo	2023-03-24T00:00:00	2024-11-08T17:00:00	2	Temperatura media	16.7
97150	7	Sololá	701	Sololá	4	Finca Santa Victoria	3	Marzo	2023-03-24T00:00:00	2024-11-08T17:00:00	4	Temperatura máxima	18.1
97151	7	Sololá	701	Sololá	4	Finca Santa Victoria	3	Marzo	2023-03-24T00:00:00	2024-11-08T17:00:00	3	Temperatura mínima	16.4
97152	7	Sololá	701	Sololá	4	Finca Santa Victoria	3	Marzo	2023-03-24T00:00:00	2024-11-08T17:00:00	5	Humedad	84
97153	7	Sololá	701	Sololá	4	Finca Santa Victoria	3	Marzo	2023-03-24T00:00:00	2024-11-08T17:00:00	6	Velocidad del viento	3.2
97154	7	Sololá	701	Sololá	4	Finca Santa Victoria	3	Marzo	2023-03-24T00:00:00	2024-11-08T17:00:00	7	Dirección del viento	3.22
97155	7	Sololá	701	Sololá	4	Finca Santa Victoria	3	Marzo	2023-03-24T00:00:00	2024-11-08T17:00:00	1	Precipitación	0
97156	7	Sololá	701	Sololá	4	Finca Santa Victoria	3	Marzo	2023-03-24T00:00:00	2024-11-08T17:00:00	8	Radiación solar	153
97157	7	Sololá	701	Sololá	4	Finca Santa Victoria	3	Marzo	2023-03-24T00:00:00	2024-11-08T18:00:00	2	Temperatura media	14.9
97158	7	Sololá	701	Sololá	4	Finca Santa Victoria	3	Marzo	2023-03-24T00:00:00	2024-11-08T18:00:00	4	Temperatura máxima	16.9
97159	7	Sololá	701	Sololá	4	Finca Santa Victoria	3	Marzo	2023-03-24T00:00:00	2024-11-08T18:00:00	3	Temperatura mínima	14.9
97160	7	Sololá	701	Sololá	4	Finca Santa Victoria	3	Marzo	2023-03-24T00:00:00	2024-11-08T18:00:00	5	Humedad	91
97161	7	Sololá	701	Sololá	4	Finca Santa Victoria	3	Marzo	2023-03-24T00:00:00	2024-11-08T18:00:00	6	Velocidad del viento	1.6
97162	7	Sololá	701	Sololá	4	Finca Santa Victoria	3	Marzo	2023-03-24T00:00:00	2024-11-08T18:00:00	7	Dirección del viento	1.61
97163	7	Sololá	701	Sololá	4	Finca Santa Victoria	3	Marzo	2023-03-24T00:00:00	2024-11-08T18:00:00	1	Precipitación	0
97164	7	Sololá	701	Sololá	4	Finca Santa Victoria	3	Marzo	2023-03-24T00:00:00	2024-11-08T18:00:00	8	Radiación solar	38
97165	7	Sololá	701	Sololá	4	Finca Santa Victoria	3	Marzo	2023-03-24T00:00:00	2024-11-08T19:00:00	2	Temperatura media	14.1
97166	7	Sololá	701	Sololá	4	Finca Santa Victoria	3	Marzo	2023-03-24T00:00:00	2024-11-08T19:00:00	4	Temperatura máxima	14.9
97167	7	Sololá	701	Sololá	4	Finca Santa Victoria	3	Marzo	2023-03-24T00:00:00	2024-11-08T19:00:00	3	Temperatura mínima	14.1
97168	7	Sololá	701	Sololá	4	Finca Santa Victoria	3	Marzo	2023-03-24T00:00:00	2024-11-08T19:00:00	5	Humedad	94
97169	7	Sololá	701	Sololá	4	Finca Santa Victoria	3	Marzo	2023-03-24T00:00:00	2024-11-08T19:00:00	6	Velocidad del viento	0
97170	7	Sololá	701	Sololá	4	Finca Santa Victoria	3	Marzo	2023-03-24T00:00:00	2024-11-08T19:00:00	7	Dirección del viento	0
97171	7	Sololá	701	Sololá	4	Finca Santa Victoria	3	Marzo	2023-03-24T00:00:00	2024-11-08T19:00:00	1	Precipitación	0
97172	7	Sololá	701	Sololá	4	Finca Santa Victoria	3	Marzo	2023-03-24T00:00:00	2024-11-08T19:00:00	8	Radiación solar	0
97173	7	Sololá	701	Sololá	4	Finca Santa Victoria	3	Marzo	2023-03-24T00:00:00	2024-11-08T20:00:00	2	Temperatura media	13.9
97174	7	Sololá	701	Sololá	4	Finca Santa Victoria	3	Marzo	2023-03-24T00:00:00	2024-11-08T20:00:00	4	Temperatura máxima	14.1
97175	7	Sololá	701	Sololá	4	Finca Santa Victoria	3	Marzo	2023-03-24T00:00:00	2024-11-08T20:00:00	3	Temperatura mínima	13.8
97176	7	Sololá	701	Sololá	4	Finca Santa Victoria	3	Marzo	2023-03-24T00:00:00	2024-11-08T20:00:00	5	Humedad	95
97177	7	Sololá	701	Sololá	4	Finca Santa Victoria	3	Marzo	2023-03-24T00:00:00	2024-11-08T20:00:00	6	Velocidad del viento	0
97178	7	Sololá	701	Sololá	4	Finca Santa Victoria	3	Marzo	2023-03-24T00:00:00	2024-11-08T20:00:00	7	Dirección del viento	0
97179	7	Sololá	701	Sololá	4	Finca Santa Victoria	3	Marzo	2023-03-24T00:00:00	2024-11-08T20:00:00	1	Precipitación	0
97180	7	Sololá	701	Sololá	4	Finca Santa Victoria	3	Marzo	2023-03-24T00:00:00	2024-11-08T20:00:00	8	Radiación solar	0
97181	7	Sololá	701	Sololá	4	Finca Santa Victoria	3	Marzo	2023-03-24T00:00:00	2024-11-08T21:00:00	2	Temperatura media	13.2
97182	7	Sololá	701	Sololá	4	Finca Santa Victoria	3	Marzo	2023-03-24T00:00:00	2024-11-08T21:00:00	4	Temperatura máxima	13.9
97183	7	Sololá	701	Sololá	4	Finca Santa Victoria	3	Marzo	2023-03-24T00:00:00	2024-11-08T21:00:00	3	Temperatura mínima	13.2
97184	7	Sololá	701	Sololá	4	Finca Santa Victoria	3	Marzo	2023-03-24T00:00:00	2024-11-08T21:00:00	5	Humedad	96
97185	7	Sololá	701	Sololá	4	Finca Santa Victoria	3	Marzo	2023-03-24T00:00:00	2024-11-08T21:00:00	6	Velocidad del viento	0
97186	7	Sololá	701	Sololá	4	Finca Santa Victoria	3	Marzo	2023-03-24T00:00:00	2024-11-08T21:00:00	7	Dirección del viento	0
97187	7	Sololá	701	Sololá	4	Finca Santa Victoria	3	Marzo	2023-03-24T00:00:00	2024-11-08T21:00:00	1	Precipitación	0
97188	7	Sololá	701	Sololá	4	Finca Santa Victoria	3	Marzo	2023-03-24T00:00:00	2024-11-08T21:00:00	8	Radiación solar	0
97189	7	Sololá	701	Sololá	4	Finca Santa Victoria	3	Marzo	2023-03-24T00:00:00	2024-11-08T22:00:00	2	Temperatura media	13.2
97190	7	Sololá	701	Sololá	4	Finca Santa Victoria	3	Marzo	2023-03-24T00:00:00	2024-11-08T22:00:00	4	Temperatura máxima	13.3
97191	7	Sololá	701	Sololá	4	Finca Santa Victoria	3	Marzo	2023-03-24T00:00:00	2024-11-08T22:00:00	3	Temperatura mínima	13.1
97192	7	Sololá	701	Sololá	4	Finca Santa Victoria	3	Marzo	2023-03-24T00:00:00	2024-11-08T22:00:00	5	Humedad	97
97193	7	Sololá	701	Sololá	4	Finca Santa Victoria	3	Marzo	2023-03-24T00:00:00	2024-11-08T22:00:00	6	Velocidad del viento	0
97194	7	Sololá	701	Sololá	4	Finca Santa Victoria	3	Marzo	2023-03-24T00:00:00	2024-11-08T22:00:00	7	Dirección del viento	0
97195	7	Sololá	701	Sololá	4	Finca Santa Victoria	3	Marzo	2023-03-24T00:00:00	2024-11-08T22:00:00	1	Precipitación	0
97196	7	Sololá	701	Sololá	4	Finca Santa Victoria	3	Marzo	2023-03-24T00:00:00	2024-11-08T22:00:00	8	Radiación solar	0
97197	7	Sololá	701	Sololá	4	Finca Santa Victoria	3	Marzo	2023-03-24T00:00:00	2024-11-08T23:00:00	2	Temperatura media	12.9
97198	7	Sololá	701	Sololá	4	Finca Santa Victoria	3	Marzo	2023-03-24T00:00:00	2024-11-08T23:00:00	4	Temperatura máxima	13.4
97199	7	Sololá	701	Sololá	4	Finca Santa Victoria	3	Marzo	2023-03-24T00:00:00	2024-11-08T23:00:00	3	Temperatura mínima	12.9
97200	7	Sololá	701	Sololá	4	Finca Santa Victoria	3	Marzo	2023-03-24T00:00:00	2024-11-08T23:00:00	5	Humedad	95
97201	7	Sololá	701	Sololá	4	Finca Santa Victoria	3	Marzo	2023-03-24T00:00:00	2024-11-08T23:00:00	6	Velocidad del viento	1.6
97202	7	Sololá	701	Sololá	4	Finca Santa Victoria	3	Marzo	2023-03-24T00:00:00	2024-11-08T23:00:00	7	Dirección del viento	1.61
97203	7	Sololá	701	Sololá	4	Finca Santa Victoria	3	Marzo	2023-03-24T00:00:00	2024-11-08T23:00:00	1	Precipitación	0
97204	7	Sololá	701	Sololá	4	Finca Santa Victoria	3	Marzo	2023-03-24T00:00:00	2024-11-08T23:00:00	8	Radiación solar	0
97205	7	Sololá	701	Sololá	4	Finca Santa Victoria	3	Marzo	2023-03-25T00:00:00	2024-11-08T00:00:00	2	Temperatura media	12.6
97206	7	Sololá	701	Sololá	4	Finca Santa Victoria	3	Marzo	2023-03-25T00:00:00	2024-11-08T00:00:00	4	Temperatura máxima	13
97207	7	Sololá	701	Sololá	4	Finca Santa Victoria	3	Marzo	2023-03-25T00:00:00	2024-11-08T00:00:00	3	Temperatura mínima	12.6
97208	7	Sololá	701	Sololá	4	Finca Santa Victoria	3	Marzo	2023-03-25T00:00:00	2024-11-08T00:00:00	5	Humedad	91
97209	7	Sololá	701	Sololá	4	Finca Santa Victoria	3	Marzo	2023-03-25T00:00:00	2024-11-08T00:00:00	6	Velocidad del viento	1.6
97210	7	Sololá	701	Sololá	4	Finca Santa Victoria	3	Marzo	2023-03-25T00:00:00	2024-11-08T00:00:00	7	Dirección del viento	1.61
97211	7	Sololá	701	Sololá	4	Finca Santa Victoria	3	Marzo	2023-03-25T00:00:00	2024-11-08T00:00:00	1	Precipitación	0
97212	7	Sololá	701	Sololá	4	Finca Santa Victoria	3	Marzo	2023-03-25T00:00:00	2024-11-08T00:00:00	8	Radiación solar	0
97213	7	Sololá	701	Sololá	4	Finca Santa Victoria	3	Marzo	2023-03-25T00:00:00	2024-11-08T01:00:00	2	Temperatura media	12.6
97214	7	Sololá	701	Sololá	4	Finca Santa Victoria	3	Marzo	2023-03-25T00:00:00	2024-11-08T01:00:00	4	Temperatura máxima	12.6
97215	7	Sololá	701	Sololá	4	Finca Santa Victoria	3	Marzo	2023-03-25T00:00:00	2024-11-08T01:00:00	3	Temperatura mínima	12.5
97216	7	Sololá	701	Sololá	4	Finca Santa Victoria	3	Marzo	2023-03-25T00:00:00	2024-11-08T01:00:00	5	Humedad	92
97217	7	Sololá	701	Sololá	4	Finca Santa Victoria	3	Marzo	2023-03-25T00:00:00	2024-11-08T01:00:00	6	Velocidad del viento	0
97218	7	Sololá	701	Sololá	4	Finca Santa Victoria	3	Marzo	2023-03-25T00:00:00	2024-11-08T01:00:00	7	Dirección del viento	0
97219	7	Sololá	701	Sololá	4	Finca Santa Victoria	3	Marzo	2023-03-25T00:00:00	2024-11-08T01:00:00	1	Precipitación	0
97220	7	Sololá	701	Sololá	4	Finca Santa Victoria	3	Marzo	2023-03-25T00:00:00	2024-11-08T01:00:00	8	Radiación solar	0
97221	7	Sololá	701	Sololá	4	Finca Santa Victoria	3	Marzo	2023-03-25T00:00:00	2024-11-08T02:00:00	2	Temperatura media	11.9
97222	7	Sololá	701	Sololá	4	Finca Santa Victoria	3	Marzo	2023-03-25T00:00:00	2024-11-08T02:00:00	4	Temperatura máxima	12.6
97223	7	Sololá	701	Sololá	4	Finca Santa Victoria	3	Marzo	2023-03-25T00:00:00	2024-11-08T02:00:00	3	Temperatura mínima	11.9
97224	7	Sololá	701	Sololá	4	Finca Santa Victoria	3	Marzo	2023-03-25T00:00:00	2024-11-08T02:00:00	5	Humedad	90
97225	7	Sololá	701	Sololá	4	Finca Santa Victoria	3	Marzo	2023-03-25T00:00:00	2024-11-08T02:00:00	6	Velocidad del viento	0
97226	7	Sololá	701	Sololá	4	Finca Santa Victoria	3	Marzo	2023-03-25T00:00:00	2024-11-08T02:00:00	7	Dirección del viento	0
97227	7	Sololá	701	Sololá	4	Finca Santa Victoria	3	Marzo	2023-03-25T00:00:00	2024-11-08T02:00:00	1	Precipitación	0
97228	7	Sololá	701	Sololá	4	Finca Santa Victoria	3	Marzo	2023-03-25T00:00:00	2024-11-08T02:00:00	8	Radiación solar	0
97229	7	Sololá	701	Sololá	4	Finca Santa Victoria	3	Marzo	2023-03-25T00:00:00	2024-11-08T03:00:00	2	Temperatura media	11.8
97230	7	Sololá	701	Sololá	4	Finca Santa Victoria	3	Marzo	2023-03-25T00:00:00	2024-11-08T03:00:00	4	Temperatura máxima	12.1
97231	7	Sololá	701	Sololá	4	Finca Santa Victoria	3	Marzo	2023-03-25T00:00:00	2024-11-08T03:00:00	3	Temperatura mínima	11.8
97232	7	Sololá	701	Sololá	4	Finca Santa Victoria	3	Marzo	2023-03-25T00:00:00	2024-11-08T03:00:00	5	Humedad	91
97233	7	Sololá	701	Sololá	4	Finca Santa Victoria	3	Marzo	2023-03-25T00:00:00	2024-11-08T03:00:00	6	Velocidad del viento	0
97234	7	Sololá	701	Sololá	4	Finca Santa Victoria	3	Marzo	2023-03-25T00:00:00	2024-11-08T03:00:00	7	Dirección del viento	0
97235	7	Sololá	701	Sololá	4	Finca Santa Victoria	3	Marzo	2023-03-25T00:00:00	2024-11-08T03:00:00	1	Precipitación	0
97236	7	Sololá	701	Sololá	4	Finca Santa Victoria	3	Marzo	2023-03-25T00:00:00	2024-11-08T03:00:00	8	Radiación solar	0
97237	7	Sololá	701	Sololá	4	Finca Santa Victoria	3	Marzo	2023-03-25T00:00:00	2024-11-08T04:00:00	2	Temperatura media	12.1
97238	7	Sololá	701	Sololá	4	Finca Santa Victoria	3	Marzo	2023-03-25T00:00:00	2024-11-08T04:00:00	4	Temperatura máxima	12.2
97239	7	Sololá	701	Sololá	4	Finca Santa Victoria	3	Marzo	2023-03-25T00:00:00	2024-11-08T04:00:00	3	Temperatura mínima	11.7
97240	7	Sololá	701	Sololá	4	Finca Santa Victoria	3	Marzo	2023-03-25T00:00:00	2024-11-08T04:00:00	5	Humedad	95
97241	7	Sololá	701	Sololá	4	Finca Santa Victoria	3	Marzo	2023-03-25T00:00:00	2024-11-08T04:00:00	6	Velocidad del viento	0
97242	7	Sololá	701	Sololá	4	Finca Santa Victoria	3	Marzo	2023-03-25T00:00:00	2024-11-08T04:00:00	7	Dirección del viento	0
97243	7	Sololá	701	Sololá	4	Finca Santa Victoria	3	Marzo	2023-03-25T00:00:00	2024-11-08T04:00:00	1	Precipitación	0
97244	7	Sololá	701	Sololá	4	Finca Santa Victoria	3	Marzo	2023-03-25T00:00:00	2024-11-08T04:00:00	8	Radiación solar	0
97245	7	Sololá	701	Sololá	4	Finca Santa Victoria	3	Marzo	2023-03-25T00:00:00	2024-11-08T05:00:00	2	Temperatura media	12.1
97246	7	Sololá	701	Sololá	4	Finca Santa Victoria	3	Marzo	2023-03-25T00:00:00	2024-11-08T05:00:00	4	Temperatura máxima	12.2
97247	7	Sololá	701	Sololá	4	Finca Santa Victoria	3	Marzo	2023-03-25T00:00:00	2024-11-08T05:00:00	3	Temperatura mínima	12.1
97248	7	Sololá	701	Sololá	4	Finca Santa Victoria	3	Marzo	2023-03-25T00:00:00	2024-11-08T05:00:00	5	Humedad	93
97249	7	Sololá	701	Sololá	4	Finca Santa Victoria	3	Marzo	2023-03-25T00:00:00	2024-11-08T05:00:00	6	Velocidad del viento	0
97250	7	Sololá	701	Sololá	4	Finca Santa Victoria	3	Marzo	2023-03-25T00:00:00	2024-11-08T05:00:00	7	Dirección del viento	0
97251	7	Sololá	701	Sololá	4	Finca Santa Victoria	3	Marzo	2023-03-25T00:00:00	2024-11-08T05:00:00	1	Precipitación	0
97252	7	Sololá	701	Sololá	4	Finca Santa Victoria	3	Marzo	2023-03-25T00:00:00	2024-11-08T05:00:00	8	Radiación solar	0
97253	7	Sololá	701	Sololá	4	Finca Santa Victoria	3	Marzo	2023-03-25T00:00:00	2024-11-08T06:00:00	2	Temperatura media	11.9
97254	7	Sololá	701	Sololá	4	Finca Santa Victoria	3	Marzo	2023-03-25T00:00:00	2024-11-08T06:00:00	4	Temperatura máxima	12.1
97255	7	Sololá	701	Sololá	4	Finca Santa Victoria	3	Marzo	2023-03-25T00:00:00	2024-11-08T06:00:00	3	Temperatura mínima	11.9
97256	7	Sololá	701	Sololá	4	Finca Santa Victoria	3	Marzo	2023-03-25T00:00:00	2024-11-08T06:00:00	5	Humedad	95
97257	7	Sololá	701	Sololá	4	Finca Santa Victoria	3	Marzo	2023-03-25T00:00:00	2024-11-08T06:00:00	6	Velocidad del viento	0
97258	7	Sololá	701	Sololá	4	Finca Santa Victoria	3	Marzo	2023-03-25T00:00:00	2024-11-08T06:00:00	7	Dirección del viento	0
97259	7	Sololá	701	Sololá	4	Finca Santa Victoria	3	Marzo	2023-03-25T00:00:00	2024-11-08T06:00:00	1	Precipitación	0
97260	7	Sololá	701	Sololá	4	Finca Santa Victoria	3	Marzo	2023-03-25T00:00:00	2024-11-08T06:00:00	8	Radiación solar	0
97261	7	Sololá	701	Sololá	4	Finca Santa Victoria	3	Marzo	2023-03-25T00:00:00	2024-11-08T07:00:00	2	Temperatura media	12.1
97262	7	Sololá	701	Sololá	4	Finca Santa Victoria	3	Marzo	2023-03-25T00:00:00	2024-11-08T07:00:00	4	Temperatura máxima	12.1
97263	7	Sololá	701	Sololá	4	Finca Santa Victoria	3	Marzo	2023-03-25T00:00:00	2024-11-08T07:00:00	3	Temperatura mínima	11.9
97264	7	Sololá	701	Sololá	4	Finca Santa Victoria	3	Marzo	2023-03-25T00:00:00	2024-11-08T07:00:00	5	Humedad	96
97265	7	Sololá	701	Sololá	4	Finca Santa Victoria	3	Marzo	2023-03-25T00:00:00	2024-11-08T07:00:00	6	Velocidad del viento	0
97266	7	Sololá	701	Sololá	4	Finca Santa Victoria	3	Marzo	2023-03-25T00:00:00	2024-11-08T07:00:00	7	Dirección del viento	0
97267	7	Sololá	701	Sololá	4	Finca Santa Victoria	3	Marzo	2023-03-25T00:00:00	2024-11-08T07:00:00	1	Precipitación	0
97268	7	Sololá	701	Sololá	4	Finca Santa Victoria	3	Marzo	2023-03-25T00:00:00	2024-11-08T07:00:00	8	Radiación solar	11
97269	7	Sololá	701	Sololá	4	Finca Santa Victoria	3	Marzo	2023-03-25T00:00:00	2024-11-08T08:00:00	2	Temperatura media	12.8
97270	7	Sololá	701	Sololá	4	Finca Santa Victoria	3	Marzo	2023-03-25T00:00:00	2024-11-08T08:00:00	4	Temperatura máxima	12.8
97271	7	Sololá	701	Sololá	4	Finca Santa Victoria	3	Marzo	2023-03-25T00:00:00	2024-11-08T08:00:00	3	Temperatura mínima	12.1
97272	7	Sololá	701	Sololá	4	Finca Santa Victoria	3	Marzo	2023-03-25T00:00:00	2024-11-08T08:00:00	5	Humedad	94
97273	7	Sololá	701	Sololá	4	Finca Santa Victoria	3	Marzo	2023-03-25T00:00:00	2024-11-08T08:00:00	6	Velocidad del viento	1.6
97274	7	Sololá	701	Sololá	4	Finca Santa Victoria	3	Marzo	2023-03-25T00:00:00	2024-11-08T08:00:00	7	Dirección del viento	1.61
97275	7	Sololá	701	Sololá	4	Finca Santa Victoria	3	Marzo	2023-03-25T00:00:00	2024-11-08T08:00:00	1	Precipitación	0
97276	7	Sololá	701	Sololá	4	Finca Santa Victoria	3	Marzo	2023-03-25T00:00:00	2024-11-08T08:00:00	8	Radiación solar	74
97277	7	Sololá	701	Sololá	4	Finca Santa Victoria	3	Marzo	2023-03-25T00:00:00	2024-11-08T09:00:00	2	Temperatura media	13.3
97278	7	Sololá	701	Sololá	4	Finca Santa Victoria	3	Marzo	2023-03-25T00:00:00	2024-11-08T09:00:00	4	Temperatura máxima	13.4
97279	7	Sololá	701	Sololá	4	Finca Santa Victoria	3	Marzo	2023-03-25T00:00:00	2024-11-08T09:00:00	3	Temperatura mínima	12.7
97280	7	Sololá	701	Sololá	4	Finca Santa Victoria	3	Marzo	2023-03-25T00:00:00	2024-11-08T09:00:00	5	Humedad	93
97281	7	Sololá	701	Sololá	4	Finca Santa Victoria	3	Marzo	2023-03-25T00:00:00	2024-11-08T09:00:00	6	Velocidad del viento	1.6
97282	7	Sololá	701	Sololá	4	Finca Santa Victoria	3	Marzo	2023-03-25T00:00:00	2024-11-08T09:00:00	7	Dirección del viento	1.61
97283	7	Sololá	701	Sololá	4	Finca Santa Victoria	3	Marzo	2023-03-25T00:00:00	2024-11-08T09:00:00	1	Precipitación	0
97284	7	Sololá	701	Sololá	4	Finca Santa Victoria	3	Marzo	2023-03-25T00:00:00	2024-11-08T09:00:00	8	Radiación solar	105
97285	7	Sololá	701	Sololá	4	Finca Santa Victoria	3	Marzo	2023-03-25T00:00:00	2024-11-08T10:00:00	2	Temperatura media	15.4
97286	7	Sololá	701	Sololá	4	Finca Santa Victoria	3	Marzo	2023-03-25T00:00:00	2024-11-08T10:00:00	4	Temperatura máxima	15.5
97287	7	Sololá	701	Sololá	4	Finca Santa Victoria	3	Marzo	2023-03-25T00:00:00	2024-11-08T10:00:00	3	Temperatura mínima	13.2
97288	7	Sololá	701	Sololá	4	Finca Santa Victoria	3	Marzo	2023-03-25T00:00:00	2024-11-08T10:00:00	5	Humedad	85
97289	7	Sololá	701	Sololá	4	Finca Santa Victoria	3	Marzo	2023-03-25T00:00:00	2024-11-08T10:00:00	6	Velocidad del viento	1.6
97290	7	Sololá	701	Sololá	4	Finca Santa Victoria	3	Marzo	2023-03-25T00:00:00	2024-11-08T10:00:00	7	Dirección del viento	1.61
97291	7	Sololá	701	Sololá	4	Finca Santa Victoria	3	Marzo	2023-03-25T00:00:00	2024-11-08T10:00:00	1	Precipitación	0
97292	7	Sololá	701	Sololá	4	Finca Santa Victoria	3	Marzo	2023-03-25T00:00:00	2024-11-08T10:00:00	8	Radiación solar	250
97293	7	Sololá	701	Sololá	4	Finca Santa Victoria	3	Marzo	2023-03-25T00:00:00	2024-11-08T11:00:00	2	Temperatura media	16.2
97294	7	Sololá	701	Sololá	4	Finca Santa Victoria	3	Marzo	2023-03-25T00:00:00	2024-11-08T11:00:00	4	Temperatura máxima	16.2
97295	7	Sololá	701	Sololá	4	Finca Santa Victoria	3	Marzo	2023-03-25T00:00:00	2024-11-08T11:00:00	3	Temperatura mínima	15.2
97296	7	Sololá	701	Sololá	4	Finca Santa Victoria	3	Marzo	2023-03-25T00:00:00	2024-11-08T11:00:00	5	Humedad	83
97297	7	Sololá	701	Sololá	4	Finca Santa Victoria	3	Marzo	2023-03-25T00:00:00	2024-11-08T11:00:00	6	Velocidad del viento	3.2
97298	7	Sololá	701	Sololá	4	Finca Santa Victoria	3	Marzo	2023-03-25T00:00:00	2024-11-08T11:00:00	7	Dirección del viento	3.22
97299	7	Sololá	701	Sololá	4	Finca Santa Victoria	3	Marzo	2023-03-25T00:00:00	2024-11-08T11:00:00	1	Precipitación	0
97300	7	Sololá	701	Sololá	4	Finca Santa Victoria	3	Marzo	2023-03-25T00:00:00	2024-11-08T11:00:00	8	Radiación solar	290
97301	7	Sololá	701	Sololá	4	Finca Santa Victoria	3	Marzo	2023-03-25T00:00:00	2024-11-08T12:00:00	2	Temperatura media	16.6
97302	7	Sololá	701	Sololá	4	Finca Santa Victoria	3	Marzo	2023-03-25T00:00:00	2024-11-08T12:00:00	4	Temperatura máxima	18
97303	7	Sololá	701	Sololá	4	Finca Santa Victoria	3	Marzo	2023-03-25T00:00:00	2024-11-08T12:00:00	3	Temperatura mínima	16.2
97304	7	Sololá	701	Sololá	4	Finca Santa Victoria	3	Marzo	2023-03-25T00:00:00	2024-11-08T12:00:00	5	Humedad	80
97305	7	Sololá	701	Sololá	4	Finca Santa Victoria	3	Marzo	2023-03-25T00:00:00	2024-11-08T12:00:00	6	Velocidad del viento	4.8
97306	7	Sololá	701	Sololá	4	Finca Santa Victoria	3	Marzo	2023-03-25T00:00:00	2024-11-08T12:00:00	7	Dirección del viento	4.83
97307	7	Sololá	701	Sololá	4	Finca Santa Victoria	3	Marzo	2023-03-25T00:00:00	2024-11-08T12:00:00	1	Precipitación	0
97308	7	Sololá	701	Sololá	4	Finca Santa Victoria	3	Marzo	2023-03-25T00:00:00	2024-11-08T12:00:00	8	Radiación solar	653
97309	7	Sololá	701	Sololá	4	Finca Santa Victoria	3	Marzo	2023-03-25T00:00:00	2024-11-08T13:00:00	2	Temperatura media	16.9
97310	7	Sololá	701	Sololá	4	Finca Santa Victoria	3	Marzo	2023-03-25T00:00:00	2024-11-08T13:00:00	4	Temperatura máxima	17.8
97311	7	Sololá	701	Sololá	4	Finca Santa Victoria	3	Marzo	2023-03-25T00:00:00	2024-11-08T13:00:00	3	Temperatura mínima	16.3
97312	7	Sololá	701	Sololá	4	Finca Santa Victoria	3	Marzo	2023-03-25T00:00:00	2024-11-08T13:00:00	5	Humedad	80
97313	7	Sololá	701	Sololá	4	Finca Santa Victoria	3	Marzo	2023-03-25T00:00:00	2024-11-08T13:00:00	6	Velocidad del viento	4.8
97314	7	Sololá	701	Sololá	4	Finca Santa Victoria	3	Marzo	2023-03-25T00:00:00	2024-11-08T13:00:00	7	Dirección del viento	4.83
97315	7	Sololá	701	Sololá	4	Finca Santa Victoria	3	Marzo	2023-03-25T00:00:00	2024-11-08T13:00:00	1	Precipitación	0
97316	7	Sololá	701	Sololá	4	Finca Santa Victoria	3	Marzo	2023-03-25T00:00:00	2024-11-08T13:00:00	8	Radiación solar	366
97317	7	Sololá	701	Sololá	4	Finca Santa Victoria	3	Marzo	2023-03-25T00:00:00	2024-11-08T14:00:00	2	Temperatura media	16.1
97318	7	Sololá	701	Sololá	4	Finca Santa Victoria	3	Marzo	2023-03-25T00:00:00	2024-11-08T14:00:00	4	Temperatura máxima	17
97319	7	Sololá	701	Sololá	4	Finca Santa Victoria	3	Marzo	2023-03-25T00:00:00	2024-11-08T14:00:00	3	Temperatura mínima	15.8
97320	7	Sololá	701	Sololá	4	Finca Santa Victoria	3	Marzo	2023-03-25T00:00:00	2024-11-08T14:00:00	5	Humedad	86
97321	7	Sololá	701	Sololá	4	Finca Santa Victoria	3	Marzo	2023-03-25T00:00:00	2024-11-08T14:00:00	6	Velocidad del viento	4.8
97322	7	Sololá	701	Sololá	4	Finca Santa Victoria	3	Marzo	2023-03-25T00:00:00	2024-11-08T14:00:00	7	Dirección del viento	4.83
97323	7	Sololá	701	Sololá	4	Finca Santa Victoria	3	Marzo	2023-03-25T00:00:00	2024-11-08T14:00:00	1	Precipitación	0
97324	7	Sololá	701	Sololá	4	Finca Santa Victoria	3	Marzo	2023-03-25T00:00:00	2024-11-08T14:00:00	8	Radiación solar	215
97325	7	Sololá	701	Sololá	4	Finca Santa Victoria	3	Marzo	2023-03-25T00:00:00	2024-11-08T15:00:00	2	Temperatura media	15.7
97326	7	Sololá	701	Sololá	4	Finca Santa Victoria	3	Marzo	2023-03-25T00:00:00	2024-11-08T15:00:00	4	Temperatura máxima	16.3
97327	7	Sololá	701	Sololá	4	Finca Santa Victoria	3	Marzo	2023-03-25T00:00:00	2024-11-08T15:00:00	3	Temperatura mínima	15.7
97328	7	Sololá	701	Sololá	4	Finca Santa Victoria	3	Marzo	2023-03-25T00:00:00	2024-11-08T15:00:00	5	Humedad	88
97329	7	Sololá	701	Sololá	4	Finca Santa Victoria	3	Marzo	2023-03-25T00:00:00	2024-11-08T15:00:00	6	Velocidad del viento	3.2
97330	7	Sololá	701	Sololá	4	Finca Santa Victoria	3	Marzo	2023-03-25T00:00:00	2024-11-08T15:00:00	7	Dirección del viento	3.22
97331	7	Sololá	701	Sololá	4	Finca Santa Victoria	3	Marzo	2023-03-25T00:00:00	2024-11-08T15:00:00	1	Precipitación	0
97332	7	Sololá	701	Sololá	4	Finca Santa Victoria	3	Marzo	2023-03-25T00:00:00	2024-11-08T15:00:00	8	Radiación solar	198
97333	7	Sololá	701	Sololá	4	Finca Santa Victoria	3	Marzo	2023-03-25T00:00:00	2024-11-08T16:00:00	2	Temperatura media	15
97334	7	Sololá	701	Sololá	4	Finca Santa Victoria	3	Marzo	2023-03-25T00:00:00	2024-11-08T16:00:00	4	Temperatura máxima	15.7
97335	7	Sololá	701	Sololá	4	Finca Santa Victoria	3	Marzo	2023-03-25T00:00:00	2024-11-08T16:00:00	3	Temperatura mínima	15
97336	7	Sololá	701	Sololá	4	Finca Santa Victoria	3	Marzo	2023-03-25T00:00:00	2024-11-08T16:00:00	5	Humedad	92
97337	7	Sololá	701	Sololá	4	Finca Santa Victoria	3	Marzo	2023-03-25T00:00:00	2024-11-08T16:00:00	6	Velocidad del viento	3.2
97338	7	Sololá	701	Sololá	4	Finca Santa Victoria	3	Marzo	2023-03-25T00:00:00	2024-11-08T16:00:00	7	Dirección del viento	3.22
97339	7	Sololá	701	Sololá	4	Finca Santa Victoria	3	Marzo	2023-03-25T00:00:00	2024-11-08T16:00:00	1	Precipitación	0
97340	7	Sololá	701	Sololá	4	Finca Santa Victoria	3	Marzo	2023-03-25T00:00:00	2024-11-08T16:00:00	8	Radiación solar	132
97341	7	Sololá	701	Sololá	4	Finca Santa Victoria	3	Marzo	2023-03-25T00:00:00	2024-11-08T17:00:00	2	Temperatura media	14.6
97342	7	Sololá	701	Sololá	4	Finca Santa Victoria	3	Marzo	2023-03-25T00:00:00	2024-11-08T17:00:00	4	Temperatura máxima	15
97343	7	Sololá	701	Sololá	4	Finca Santa Victoria	3	Marzo	2023-03-25T00:00:00	2024-11-08T17:00:00	3	Temperatura mínima	14.4
97344	7	Sololá	701	Sololá	4	Finca Santa Victoria	3	Marzo	2023-03-25T00:00:00	2024-11-08T17:00:00	5	Humedad	93
97345	7	Sololá	701	Sololá	4	Finca Santa Victoria	3	Marzo	2023-03-25T00:00:00	2024-11-08T17:00:00	6	Velocidad del viento	3.2
97346	7	Sololá	701	Sololá	4	Finca Santa Victoria	3	Marzo	2023-03-25T00:00:00	2024-11-08T17:00:00	7	Dirección del viento	3.22
97347	7	Sololá	701	Sololá	4	Finca Santa Victoria	3	Marzo	2023-03-25T00:00:00	2024-11-08T17:00:00	1	Precipitación	0
97348	7	Sololá	701	Sololá	4	Finca Santa Victoria	3	Marzo	2023-03-25T00:00:00	2024-11-08T17:00:00	8	Radiación solar	60
97349	7	Sololá	701	Sololá	4	Finca Santa Victoria	3	Marzo	2023-03-25T00:00:00	2024-11-08T18:00:00	2	Temperatura media	14.5
97350	7	Sololá	701	Sololá	4	Finca Santa Victoria	3	Marzo	2023-03-25T00:00:00	2024-11-08T18:00:00	4	Temperatura máxima	14.8
97351	7	Sololá	701	Sololá	4	Finca Santa Victoria	3	Marzo	2023-03-25T00:00:00	2024-11-08T18:00:00	3	Temperatura mínima	14.5
97352	7	Sololá	701	Sololá	4	Finca Santa Victoria	3	Marzo	2023-03-25T00:00:00	2024-11-08T18:00:00	5	Humedad	94
97353	7	Sololá	701	Sololá	4	Finca Santa Victoria	3	Marzo	2023-03-25T00:00:00	2024-11-08T18:00:00	6	Velocidad del viento	1.6
97354	7	Sololá	701	Sololá	4	Finca Santa Victoria	3	Marzo	2023-03-25T00:00:00	2024-11-08T18:00:00	7	Dirección del viento	1.61
97355	7	Sololá	701	Sololá	4	Finca Santa Victoria	3	Marzo	2023-03-25T00:00:00	2024-11-08T18:00:00	1	Precipitación	0
97356	7	Sololá	701	Sololá	4	Finca Santa Victoria	3	Marzo	2023-03-25T00:00:00	2024-11-08T18:00:00	8	Radiación solar	37
97357	7	Sololá	701	Sololá	4	Finca Santa Victoria	3	Marzo	2023-03-25T00:00:00	2024-11-08T19:00:00	2	Temperatura media	13.3
97358	7	Sololá	701	Sololá	4	Finca Santa Victoria	3	Marzo	2023-03-25T00:00:00	2024-11-08T19:00:00	4	Temperatura máxima	14.6
97359	7	Sololá	701	Sololá	4	Finca Santa Victoria	3	Marzo	2023-03-25T00:00:00	2024-11-08T19:00:00	3	Temperatura mínima	13.3
97360	7	Sololá	701	Sololá	4	Finca Santa Victoria	3	Marzo	2023-03-25T00:00:00	2024-11-08T19:00:00	5	Humedad	96
97361	7	Sololá	701	Sololá	4	Finca Santa Victoria	3	Marzo	2023-03-25T00:00:00	2024-11-08T19:00:00	6	Velocidad del viento	0
97362	7	Sololá	701	Sololá	4	Finca Santa Victoria	3	Marzo	2023-03-25T00:00:00	2024-11-08T19:00:00	7	Dirección del viento	0
97363	7	Sololá	701	Sololá	4	Finca Santa Victoria	3	Marzo	2023-03-25T00:00:00	2024-11-08T19:00:00	1	Precipitación	0
97364	7	Sololá	701	Sololá	4	Finca Santa Victoria	3	Marzo	2023-03-25T00:00:00	2024-11-08T19:00:00	8	Radiación solar	0
97365	7	Sololá	701	Sololá	4	Finca Santa Victoria	3	Marzo	2023-03-25T00:00:00	2024-11-08T20:00:00	2	Temperatura media	13.2
97366	7	Sololá	701	Sololá	4	Finca Santa Victoria	3	Marzo	2023-03-25T00:00:00	2024-11-08T20:00:00	4	Temperatura máxima	13.3
97367	7	Sololá	701	Sololá	4	Finca Santa Victoria	3	Marzo	2023-03-25T00:00:00	2024-11-08T20:00:00	3	Temperatura mínima	13
97368	7	Sololá	701	Sololá	4	Finca Santa Victoria	3	Marzo	2023-03-25T00:00:00	2024-11-08T20:00:00	5	Humedad	97
97369	7	Sololá	701	Sololá	4	Finca Santa Victoria	3	Marzo	2023-03-25T00:00:00	2024-11-08T20:00:00	6	Velocidad del viento	0
97370	7	Sololá	701	Sololá	4	Finca Santa Victoria	3	Marzo	2023-03-25T00:00:00	2024-11-08T20:00:00	7	Dirección del viento	0
97371	7	Sololá	701	Sololá	4	Finca Santa Victoria	3	Marzo	2023-03-25T00:00:00	2024-11-08T20:00:00	1	Precipitación	0
97372	7	Sololá	701	Sololá	4	Finca Santa Victoria	3	Marzo	2023-03-25T00:00:00	2024-11-08T20:00:00	8	Radiación solar	0
97373	7	Sololá	701	Sololá	4	Finca Santa Victoria	3	Marzo	2023-03-25T00:00:00	2024-11-08T21:00:00	2	Temperatura media	12.9
97374	7	Sololá	701	Sololá	4	Finca Santa Victoria	3	Marzo	2023-03-25T00:00:00	2024-11-08T21:00:00	4	Temperatura máxima	13.3
97375	7	Sololá	701	Sololá	4	Finca Santa Victoria	3	Marzo	2023-03-25T00:00:00	2024-11-08T21:00:00	3	Temperatura mínima	12.9
97376	7	Sololá	701	Sololá	4	Finca Santa Victoria	3	Marzo	2023-03-25T00:00:00	2024-11-08T21:00:00	5	Humedad	97
97377	7	Sololá	701	Sololá	4	Finca Santa Victoria	3	Marzo	2023-03-25T00:00:00	2024-11-08T21:00:00	6	Velocidad del viento	0
97378	7	Sololá	701	Sololá	4	Finca Santa Victoria	3	Marzo	2023-03-25T00:00:00	2024-11-08T21:00:00	7	Dirección del viento	0
97379	7	Sololá	701	Sololá	4	Finca Santa Victoria	3	Marzo	2023-03-25T00:00:00	2024-11-08T21:00:00	1	Precipitación	0
97380	7	Sololá	701	Sololá	4	Finca Santa Victoria	3	Marzo	2023-03-25T00:00:00	2024-11-08T21:00:00	8	Radiación solar	0
97381	7	Sololá	701	Sololá	4	Finca Santa Victoria	3	Marzo	2023-03-25T00:00:00	2024-11-08T22:00:00	2	Temperatura media	12.7
97382	7	Sololá	701	Sololá	4	Finca Santa Victoria	3	Marzo	2023-03-25T00:00:00	2024-11-08T22:00:00	4	Temperatura máxima	13
97383	7	Sololá	701	Sololá	4	Finca Santa Victoria	3	Marzo	2023-03-25T00:00:00	2024-11-08T22:00:00	3	Temperatura mínima	12.5
97384	7	Sololá	701	Sololá	4	Finca Santa Victoria	3	Marzo	2023-03-25T00:00:00	2024-11-08T22:00:00	5	Humedad	97
97385	7	Sololá	701	Sololá	4	Finca Santa Victoria	3	Marzo	2023-03-25T00:00:00	2024-11-08T22:00:00	6	Velocidad del viento	0
97386	7	Sololá	701	Sololá	4	Finca Santa Victoria	3	Marzo	2023-03-25T00:00:00	2024-11-08T22:00:00	7	Dirección del viento	0
97387	7	Sololá	701	Sololá	4	Finca Santa Victoria	3	Marzo	2023-03-25T00:00:00	2024-11-08T22:00:00	1	Precipitación	0
97388	7	Sololá	701	Sololá	4	Finca Santa Victoria	3	Marzo	2023-03-25T00:00:00	2024-11-08T22:00:00	8	Radiación solar	0
97389	7	Sololá	701	Sololá	4	Finca Santa Victoria	3	Marzo	2023-03-25T00:00:00	2024-11-08T23:00:00	2	Temperatura media	12.4
97390	7	Sololá	701	Sololá	4	Finca Santa Victoria	3	Marzo	2023-03-25T00:00:00	2024-11-08T23:00:00	4	Temperatura máxima	12.7
97391	7	Sololá	701	Sololá	4	Finca Santa Victoria	3	Marzo	2023-03-25T00:00:00	2024-11-08T23:00:00	3	Temperatura mínima	12.3
97392	7	Sololá	701	Sololá	4	Finca Santa Victoria	3	Marzo	2023-03-25T00:00:00	2024-11-08T23:00:00	5	Humedad	97
97393	7	Sololá	701	Sololá	4	Finca Santa Victoria	3	Marzo	2023-03-25T00:00:00	2024-11-08T23:00:00	6	Velocidad del viento	0
97394	7	Sololá	701	Sololá	4	Finca Santa Victoria	3	Marzo	2023-03-25T00:00:00	2024-11-08T23:00:00	7	Dirección del viento	0
97395	7	Sololá	701	Sololá	4	Finca Santa Victoria	3	Marzo	2023-03-25T00:00:00	2024-11-08T23:00:00	1	Precipitación	0
97396	7	Sololá	701	Sololá	4	Finca Santa Victoria	3	Marzo	2023-03-25T00:00:00	2024-11-08T23:00:00	8	Radiación solar	0
97397	7	Sololá	701	Sololá	4	Finca Santa Victoria	3	Marzo	2023-03-26T00:00:00	2024-11-08T00:00:00	2	Temperatura media	12.7
97398	7	Sololá	701	Sololá	4	Finca Santa Victoria	3	Marzo	2023-03-26T00:00:00	2024-11-08T00:00:00	4	Temperatura máxima	12.9
97399	7	Sololá	701	Sololá	4	Finca Santa Victoria	3	Marzo	2023-03-26T00:00:00	2024-11-08T00:00:00	3	Temperatura mínima	12.4
97400	7	Sololá	701	Sololá	4	Finca Santa Victoria	3	Marzo	2023-03-26T00:00:00	2024-11-08T00:00:00	5	Humedad	97
97401	7	Sololá	701	Sololá	4	Finca Santa Victoria	3	Marzo	2023-03-26T00:00:00	2024-11-08T00:00:00	6	Velocidad del viento	0
97402	7	Sololá	701	Sololá	4	Finca Santa Victoria	3	Marzo	2023-03-26T00:00:00	2024-11-08T00:00:00	7	Dirección del viento	0
97403	7	Sololá	701	Sololá	4	Finca Santa Victoria	3	Marzo	2023-03-26T00:00:00	2024-11-08T00:00:00	1	Precipitación	0
97404	7	Sololá	701	Sololá	4	Finca Santa Victoria	3	Marzo	2023-03-26T00:00:00	2024-11-08T00:00:00	8	Radiación solar	0
97405	7	Sololá	701	Sololá	4	Finca Santa Victoria	3	Marzo	2023-03-26T00:00:00	2024-11-08T01:00:00	2	Temperatura media	12.2
97406	7	Sololá	701	Sololá	4	Finca Santa Victoria	3	Marzo	2023-03-26T00:00:00	2024-11-08T01:00:00	4	Temperatura máxima	12.7
97407	7	Sololá	701	Sololá	4	Finca Santa Victoria	3	Marzo	2023-03-26T00:00:00	2024-11-08T01:00:00	3	Temperatura mínima	12.1
97408	7	Sololá	701	Sololá	4	Finca Santa Victoria	3	Marzo	2023-03-26T00:00:00	2024-11-08T01:00:00	5	Humedad	97
97409	7	Sololá	701	Sololá	4	Finca Santa Victoria	3	Marzo	2023-03-26T00:00:00	2024-11-08T01:00:00	6	Velocidad del viento	0
97410	7	Sololá	701	Sololá	4	Finca Santa Victoria	3	Marzo	2023-03-26T00:00:00	2024-11-08T01:00:00	7	Dirección del viento	0
97411	7	Sololá	701	Sololá	4	Finca Santa Victoria	3	Marzo	2023-03-26T00:00:00	2024-11-08T01:00:00	1	Precipitación	0
97412	7	Sololá	701	Sololá	4	Finca Santa Victoria	3	Marzo	2023-03-26T00:00:00	2024-11-08T01:00:00	8	Radiación solar	0
97413	7	Sololá	701	Sololá	4	Finca Santa Victoria	3	Marzo	2023-03-26T00:00:00	2024-11-08T02:00:00	2	Temperatura media	12.6
97414	7	Sololá	701	Sololá	4	Finca Santa Victoria	3	Marzo	2023-03-26T00:00:00	2024-11-08T02:00:00	4	Temperatura máxima	12.6
97415	7	Sololá	701	Sololá	4	Finca Santa Victoria	3	Marzo	2023-03-26T00:00:00	2024-11-08T02:00:00	3	Temperatura mínima	11.8
97416	7	Sololá	701	Sololá	4	Finca Santa Victoria	3	Marzo	2023-03-26T00:00:00	2024-11-08T02:00:00	5	Humedad	98
97417	7	Sololá	701	Sololá	4	Finca Santa Victoria	3	Marzo	2023-03-26T00:00:00	2024-11-08T02:00:00	6	Velocidad del viento	0
97418	7	Sololá	701	Sololá	4	Finca Santa Victoria	3	Marzo	2023-03-26T00:00:00	2024-11-08T02:00:00	7	Dirección del viento	0
97419	7	Sololá	701	Sololá	4	Finca Santa Victoria	3	Marzo	2023-03-26T00:00:00	2024-11-08T02:00:00	1	Precipitación	0
97420	7	Sololá	701	Sololá	4	Finca Santa Victoria	3	Marzo	2023-03-26T00:00:00	2024-11-08T02:00:00	8	Radiación solar	0
97421	7	Sololá	701	Sololá	4	Finca Santa Victoria	3	Marzo	2023-03-26T00:00:00	2024-11-08T03:00:00	2	Temperatura media	12.5
97422	7	Sololá	701	Sololá	4	Finca Santa Victoria	3	Marzo	2023-03-26T00:00:00	2024-11-08T03:00:00	4	Temperatura máxima	12.7
97423	7	Sololá	701	Sololá	4	Finca Santa Victoria	3	Marzo	2023-03-26T00:00:00	2024-11-08T03:00:00	3	Temperatura mínima	12.5
97424	7	Sololá	701	Sololá	4	Finca Santa Victoria	3	Marzo	2023-03-26T00:00:00	2024-11-08T03:00:00	5	Humedad	98
97425	7	Sololá	701	Sololá	4	Finca Santa Victoria	3	Marzo	2023-03-26T00:00:00	2024-11-08T03:00:00	6	Velocidad del viento	0
97426	7	Sololá	701	Sololá	4	Finca Santa Victoria	3	Marzo	2023-03-26T00:00:00	2024-11-08T03:00:00	7	Dirección del viento	0
97427	7	Sololá	701	Sololá	4	Finca Santa Victoria	3	Marzo	2023-03-26T00:00:00	2024-11-08T03:00:00	1	Precipitación	0
97428	7	Sololá	701	Sololá	4	Finca Santa Victoria	3	Marzo	2023-03-26T00:00:00	2024-11-08T03:00:00	8	Radiación solar	0
97429	7	Sololá	701	Sololá	4	Finca Santa Victoria	3	Marzo	2023-03-26T00:00:00	2024-11-08T04:00:00	2	Temperatura media	12.5
97430	7	Sololá	701	Sololá	4	Finca Santa Victoria	3	Marzo	2023-03-26T00:00:00	2024-11-08T04:00:00	4	Temperatura máxima	12.6
97431	7	Sololá	701	Sololá	4	Finca Santa Victoria	3	Marzo	2023-03-26T00:00:00	2024-11-08T04:00:00	3	Temperatura mínima	12.4
97432	7	Sololá	701	Sololá	4	Finca Santa Victoria	3	Marzo	2023-03-26T00:00:00	2024-11-08T04:00:00	5	Humedad	98
97433	7	Sololá	701	Sololá	4	Finca Santa Victoria	3	Marzo	2023-03-26T00:00:00	2024-11-08T04:00:00	6	Velocidad del viento	0
97434	7	Sololá	701	Sololá	4	Finca Santa Victoria	3	Marzo	2023-03-26T00:00:00	2024-11-08T04:00:00	7	Dirección del viento	0
97435	7	Sololá	701	Sololá	4	Finca Santa Victoria	3	Marzo	2023-03-26T00:00:00	2024-11-08T04:00:00	1	Precipitación	0
97436	7	Sololá	701	Sololá	4	Finca Santa Victoria	3	Marzo	2023-03-26T00:00:00	2024-11-08T04:00:00	8	Radiación solar	0
97437	7	Sololá	701	Sololá	4	Finca Santa Victoria	3	Marzo	2023-03-26T00:00:00	2024-11-08T05:00:00	2	Temperatura media	12.6
97438	7	Sololá	701	Sololá	4	Finca Santa Victoria	3	Marzo	2023-03-26T00:00:00	2024-11-08T05:00:00	4	Temperatura máxima	12.6
97439	7	Sololá	701	Sololá	4	Finca Santa Victoria	3	Marzo	2023-03-26T00:00:00	2024-11-08T05:00:00	3	Temperatura mínima	12.5
97440	7	Sololá	701	Sololá	4	Finca Santa Victoria	3	Marzo	2023-03-26T00:00:00	2024-11-08T05:00:00	5	Humedad	98
97441	7	Sololá	701	Sololá	4	Finca Santa Victoria	3	Marzo	2023-03-26T00:00:00	2024-11-08T05:00:00	6	Velocidad del viento	0
97442	7	Sololá	701	Sololá	4	Finca Santa Victoria	3	Marzo	2023-03-26T00:00:00	2024-11-08T05:00:00	7	Dirección del viento	0
97443	7	Sololá	701	Sololá	4	Finca Santa Victoria	3	Marzo	2023-03-26T00:00:00	2024-11-08T05:00:00	1	Precipitación	0
97444	7	Sololá	701	Sololá	4	Finca Santa Victoria	3	Marzo	2023-03-26T00:00:00	2024-11-08T05:00:00	8	Radiación solar	0
97445	7	Sololá	701	Sololá	4	Finca Santa Victoria	3	Marzo	2023-03-26T00:00:00	2024-11-08T06:00:00	2	Temperatura media	11.8
97446	7	Sololá	701	Sololá	4	Finca Santa Victoria	3	Marzo	2023-03-26T00:00:00	2024-11-08T06:00:00	4	Temperatura máxima	12.6
97447	7	Sololá	701	Sololá	4	Finca Santa Victoria	3	Marzo	2023-03-26T00:00:00	2024-11-08T06:00:00	3	Temperatura mínima	11.8
97448	7	Sololá	701	Sololá	4	Finca Santa Victoria	3	Marzo	2023-03-26T00:00:00	2024-11-08T06:00:00	5	Humedad	98
97449	7	Sololá	701	Sololá	4	Finca Santa Victoria	3	Marzo	2023-03-26T00:00:00	2024-11-08T06:00:00	6	Velocidad del viento	1.6
97450	7	Sololá	701	Sololá	4	Finca Santa Victoria	3	Marzo	2023-03-26T00:00:00	2024-11-08T06:00:00	7	Dirección del viento	1.61
97451	7	Sololá	701	Sololá	4	Finca Santa Victoria	3	Marzo	2023-03-26T00:00:00	2024-11-08T06:00:00	1	Precipitación	0
97452	7	Sololá	701	Sololá	4	Finca Santa Victoria	3	Marzo	2023-03-26T00:00:00	2024-11-08T06:00:00	8	Radiación solar	0
97453	7	Sololá	701	Sololá	4	Finca Santa Victoria	3	Marzo	2023-03-26T00:00:00	2024-11-08T07:00:00	2	Temperatura media	11.7
97454	7	Sololá	701	Sololá	4	Finca Santa Victoria	3	Marzo	2023-03-26T00:00:00	2024-11-08T07:00:00	4	Temperatura máxima	11.9
97455	7	Sololá	701	Sololá	4	Finca Santa Victoria	3	Marzo	2023-03-26T00:00:00	2024-11-08T07:00:00	3	Temperatura mínima	11.6
97456	7	Sololá	701	Sololá	4	Finca Santa Victoria	3	Marzo	2023-03-26T00:00:00	2024-11-08T07:00:00	5	Humedad	98
97457	7	Sololá	701	Sololá	4	Finca Santa Victoria	3	Marzo	2023-03-26T00:00:00	2024-11-08T07:00:00	6	Velocidad del viento	0
97458	7	Sololá	701	Sololá	4	Finca Santa Victoria	3	Marzo	2023-03-26T00:00:00	2024-11-08T07:00:00	7	Dirección del viento	0
97459	7	Sololá	701	Sololá	4	Finca Santa Victoria	3	Marzo	2023-03-26T00:00:00	2024-11-08T07:00:00	1	Precipitación	0
97460	7	Sololá	701	Sololá	4	Finca Santa Victoria	3	Marzo	2023-03-26T00:00:00	2024-11-08T07:00:00	8	Radiación solar	9
97461	7	Sololá	701	Sololá	4	Finca Santa Victoria	3	Marzo	2023-03-26T00:00:00	2024-11-08T08:00:00	2	Temperatura media	11.8
97462	7	Sololá	701	Sololá	4	Finca Santa Victoria	3	Marzo	2023-03-26T00:00:00	2024-11-08T08:00:00	4	Temperatura máxima	11.9
97463	7	Sololá	701	Sololá	4	Finca Santa Victoria	3	Marzo	2023-03-26T00:00:00	2024-11-08T08:00:00	3	Temperatura mínima	11.7
97464	7	Sololá	701	Sololá	4	Finca Santa Victoria	3	Marzo	2023-03-26T00:00:00	2024-11-08T08:00:00	5	Humedad	98
97465	7	Sololá	701	Sololá	4	Finca Santa Victoria	3	Marzo	2023-03-26T00:00:00	2024-11-08T08:00:00	6	Velocidad del viento	0
97466	7	Sololá	701	Sololá	4	Finca Santa Victoria	3	Marzo	2023-03-26T00:00:00	2024-11-08T08:00:00	7	Dirección del viento	0
97467	7	Sololá	701	Sololá	4	Finca Santa Victoria	3	Marzo	2023-03-26T00:00:00	2024-11-08T08:00:00	1	Precipitación	0
97468	7	Sololá	701	Sololá	4	Finca Santa Victoria	3	Marzo	2023-03-26T00:00:00	2024-11-08T08:00:00	8	Radiación solar	72
97469	7	Sololá	701	Sololá	4	Finca Santa Victoria	3	Marzo	2023-03-26T00:00:00	2024-11-08T09:00:00	2	Temperatura media	14.8
97470	7	Sololá	701	Sololá	4	Finca Santa Victoria	3	Marzo	2023-03-26T00:00:00	2024-11-08T09:00:00	4	Temperatura máxima	14.8
97471	7	Sololá	701	Sololá	4	Finca Santa Victoria	3	Marzo	2023-03-26T00:00:00	2024-11-08T09:00:00	3	Temperatura mínima	11.8
97472	7	Sololá	701	Sololá	4	Finca Santa Victoria	3	Marzo	2023-03-26T00:00:00	2024-11-08T09:00:00	5	Humedad	87
97473	7	Sololá	701	Sololá	4	Finca Santa Victoria	3	Marzo	2023-03-26T00:00:00	2024-11-08T09:00:00	6	Velocidad del viento	1.6
97474	7	Sololá	701	Sololá	4	Finca Santa Victoria	3	Marzo	2023-03-26T00:00:00	2024-11-08T09:00:00	7	Dirección del viento	1.61
97475	7	Sololá	701	Sololá	4	Finca Santa Victoria	3	Marzo	2023-03-26T00:00:00	2024-11-08T09:00:00	1	Precipitación	0
97476	7	Sololá	701	Sololá	4	Finca Santa Victoria	3	Marzo	2023-03-26T00:00:00	2024-11-08T09:00:00	8	Radiación solar	306
97477	7	Sololá	701	Sololá	4	Finca Santa Victoria	3	Marzo	2023-03-26T00:00:00	2024-11-08T10:00:00	2	Temperatura media	15.8
97478	7	Sololá	701	Sololá	4	Finca Santa Victoria	3	Marzo	2023-03-26T00:00:00	2024-11-08T10:00:00	4	Temperatura máxima	15.9
97479	7	Sololá	701	Sololá	4	Finca Santa Victoria	3	Marzo	2023-03-26T00:00:00	2024-11-08T10:00:00	3	Temperatura mínima	14.2
97480	7	Sololá	701	Sololá	4	Finca Santa Victoria	3	Marzo	2023-03-26T00:00:00	2024-11-08T10:00:00	5	Humedad	85
97481	7	Sololá	701	Sololá	4	Finca Santa Victoria	3	Marzo	2023-03-26T00:00:00	2024-11-08T10:00:00	6	Velocidad del viento	3.2
97482	7	Sololá	701	Sololá	4	Finca Santa Victoria	3	Marzo	2023-03-26T00:00:00	2024-11-08T10:00:00	7	Dirección del viento	3.22
97483	7	Sololá	701	Sololá	4	Finca Santa Victoria	3	Marzo	2023-03-26T00:00:00	2024-11-08T10:00:00	1	Precipitación	0
97484	7	Sololá	701	Sololá	4	Finca Santa Victoria	3	Marzo	2023-03-26T00:00:00	2024-11-08T10:00:00	8	Radiación solar	541
97485	7	Sololá	701	Sololá	4	Finca Santa Victoria	3	Marzo	2023-03-26T00:00:00	2024-11-08T11:00:00	2	Temperatura media	17.2
97486	7	Sololá	701	Sololá	4	Finca Santa Victoria	3	Marzo	2023-03-26T00:00:00	2024-11-08T11:00:00	4	Temperatura máxima	17.2
97487	7	Sololá	701	Sololá	4	Finca Santa Victoria	3	Marzo	2023-03-26T00:00:00	2024-11-08T11:00:00	3	Temperatura mínima	15.8
97488	7	Sololá	701	Sololá	4	Finca Santa Victoria	3	Marzo	2023-03-26T00:00:00	2024-11-08T11:00:00	5	Humedad	80
97489	7	Sololá	701	Sololá	4	Finca Santa Victoria	3	Marzo	2023-03-26T00:00:00	2024-11-08T11:00:00	6	Velocidad del viento	4.8
97490	7	Sololá	701	Sololá	4	Finca Santa Victoria	3	Marzo	2023-03-26T00:00:00	2024-11-08T11:00:00	7	Dirección del viento	4.83
97491	7	Sololá	701	Sololá	4	Finca Santa Victoria	3	Marzo	2023-03-26T00:00:00	2024-11-08T11:00:00	1	Precipitación	0
97492	7	Sololá	701	Sololá	4	Finca Santa Victoria	3	Marzo	2023-03-26T00:00:00	2024-11-08T11:00:00	8	Radiación solar	917
97493	7	Sololá	701	Sololá	4	Finca Santa Victoria	3	Marzo	2023-03-26T00:00:00	2024-11-08T12:00:00	2	Temperatura media	16.6
97494	7	Sololá	701	Sololá	4	Finca Santa Victoria	3	Marzo	2023-03-26T00:00:00	2024-11-08T12:00:00	4	Temperatura máxima	18.2
97495	7	Sololá	701	Sololá	4	Finca Santa Victoria	3	Marzo	2023-03-26T00:00:00	2024-11-08T12:00:00	3	Temperatura mínima	16.2
97496	7	Sololá	701	Sololá	4	Finca Santa Victoria	3	Marzo	2023-03-26T00:00:00	2024-11-08T12:00:00	5	Humedad	85
97497	7	Sololá	701	Sololá	4	Finca Santa Victoria	3	Marzo	2023-03-26T00:00:00	2024-11-08T12:00:00	6	Velocidad del viento	4.8
97498	7	Sololá	701	Sololá	4	Finca Santa Victoria	3	Marzo	2023-03-26T00:00:00	2024-11-08T12:00:00	7	Dirección del viento	4.83
97499	7	Sololá	701	Sololá	4	Finca Santa Victoria	3	Marzo	2023-03-26T00:00:00	2024-11-08T12:00:00	1	Precipitación	0
97500	7	Sololá	701	Sololá	4	Finca Santa Victoria	3	Marzo	2023-03-26T00:00:00	2024-11-08T12:00:00	8	Radiación solar	930
97501	7	Sololá	701	Sololá	4	Finca Santa Victoria	3	Marzo	2023-03-26T00:00:00	2024-11-08T13:00:00	2	Temperatura media	17.6
97502	7	Sololá	701	Sololá	4	Finca Santa Victoria	3	Marzo	2023-03-26T00:00:00	2024-11-08T13:00:00	4	Temperatura máxima	18.1
97503	7	Sololá	701	Sololá	4	Finca Santa Victoria	3	Marzo	2023-03-26T00:00:00	2024-11-08T13:00:00	3	Temperatura mínima	16.6
97504	7	Sololá	701	Sololá	4	Finca Santa Victoria	3	Marzo	2023-03-26T00:00:00	2024-11-08T13:00:00	5	Humedad	80
97505	7	Sololá	701	Sololá	4	Finca Santa Victoria	3	Marzo	2023-03-26T00:00:00	2024-11-08T13:00:00	6	Velocidad del viento	4.8
97506	7	Sololá	701	Sololá	4	Finca Santa Victoria	3	Marzo	2023-03-26T00:00:00	2024-11-08T13:00:00	7	Dirección del viento	4.83
97507	7	Sololá	701	Sololá	4	Finca Santa Victoria	3	Marzo	2023-03-26T00:00:00	2024-11-08T13:00:00	1	Precipitación	0
97508	7	Sololá	701	Sololá	4	Finca Santa Victoria	3	Marzo	2023-03-26T00:00:00	2024-11-08T13:00:00	8	Radiación solar	651
97509	7	Sololá	701	Sololá	4	Finca Santa Victoria	3	Marzo	2023-03-26T00:00:00	2024-11-08T14:00:00	2	Temperatura media	16.7
97510	7	Sololá	701	Sololá	4	Finca Santa Victoria	3	Marzo	2023-03-26T00:00:00	2024-11-08T14:00:00	4	Temperatura máxima	18.2
97511	7	Sololá	701	Sololá	4	Finca Santa Victoria	3	Marzo	2023-03-26T00:00:00	2024-11-08T14:00:00	3	Temperatura mínima	16.5
97512	7	Sololá	701	Sololá	4	Finca Santa Victoria	3	Marzo	2023-03-26T00:00:00	2024-11-08T14:00:00	5	Humedad	86
97513	7	Sololá	701	Sololá	4	Finca Santa Victoria	3	Marzo	2023-03-26T00:00:00	2024-11-08T14:00:00	6	Velocidad del viento	4.8
97514	7	Sololá	701	Sololá	4	Finca Santa Victoria	3	Marzo	2023-03-26T00:00:00	2024-11-08T14:00:00	7	Dirección del viento	4.83
97515	7	Sololá	701	Sololá	4	Finca Santa Victoria	3	Marzo	2023-03-26T00:00:00	2024-11-08T14:00:00	1	Precipitación	0
97516	7	Sololá	701	Sololá	4	Finca Santa Victoria	3	Marzo	2023-03-26T00:00:00	2024-11-08T14:00:00	8	Radiación solar	370
97517	7	Sololá	701	Sololá	4	Finca Santa Victoria	3	Marzo	2023-03-26T00:00:00	2024-11-08T15:00:00	2	Temperatura media	15.9
97518	7	Sololá	701	Sololá	4	Finca Santa Victoria	3	Marzo	2023-03-26T00:00:00	2024-11-08T15:00:00	4	Temperatura máxima	17.4
97519	7	Sololá	701	Sololá	4	Finca Santa Victoria	3	Marzo	2023-03-26T00:00:00	2024-11-08T15:00:00	3	Temperatura mínima	15.9
97520	7	Sololá	701	Sololá	4	Finca Santa Victoria	3	Marzo	2023-03-26T00:00:00	2024-11-08T15:00:00	5	Humedad	87
97521	7	Sololá	701	Sololá	4	Finca Santa Victoria	3	Marzo	2023-03-26T00:00:00	2024-11-08T15:00:00	6	Velocidad del viento	4.8
97522	7	Sololá	701	Sololá	4	Finca Santa Victoria	3	Marzo	2023-03-26T00:00:00	2024-11-08T15:00:00	7	Dirección del viento	4.83
97523	7	Sololá	701	Sololá	4	Finca Santa Victoria	3	Marzo	2023-03-26T00:00:00	2024-11-08T15:00:00	1	Precipitación	0
97524	7	Sololá	701	Sololá	4	Finca Santa Victoria	3	Marzo	2023-03-26T00:00:00	2024-11-08T15:00:00	8	Radiación solar	268
97525	7	Sololá	701	Sololá	4	Finca Santa Victoria	3	Marzo	2023-03-26T00:00:00	2024-11-08T16:00:00	2	Temperatura media	15.4
97526	7	Sololá	701	Sololá	4	Finca Santa Victoria	3	Marzo	2023-03-26T00:00:00	2024-11-08T16:00:00	4	Temperatura máxima	16.3
97527	7	Sololá	701	Sololá	4	Finca Santa Victoria	3	Marzo	2023-03-26T00:00:00	2024-11-08T16:00:00	3	Temperatura mínima	15.4
97528	7	Sololá	701	Sololá	4	Finca Santa Victoria	3	Marzo	2023-03-26T00:00:00	2024-11-08T16:00:00	5	Humedad	89
97529	7	Sololá	701	Sololá	4	Finca Santa Victoria	3	Marzo	2023-03-26T00:00:00	2024-11-08T16:00:00	6	Velocidad del viento	4.8
97530	7	Sololá	701	Sololá	4	Finca Santa Victoria	3	Marzo	2023-03-26T00:00:00	2024-11-08T16:00:00	7	Dirección del viento	4.83
97531	7	Sololá	701	Sololá	4	Finca Santa Victoria	3	Marzo	2023-03-26T00:00:00	2024-11-08T16:00:00	1	Precipitación	0
97532	7	Sololá	701	Sololá	4	Finca Santa Victoria	3	Marzo	2023-03-26T00:00:00	2024-11-08T16:00:00	8	Radiación solar	166
97533	7	Sololá	701	Sololá	4	Finca Santa Victoria	3	Marzo	2023-03-26T00:00:00	2024-11-08T17:00:00	2	Temperatura media	14.5
97534	7	Sololá	701	Sololá	4	Finca Santa Victoria	3	Marzo	2023-03-26T00:00:00	2024-11-08T17:00:00	4	Temperatura máxima	15.4
97535	7	Sololá	701	Sololá	4	Finca Santa Victoria	3	Marzo	2023-03-26T00:00:00	2024-11-08T17:00:00	3	Temperatura mínima	14.5
97536	7	Sololá	701	Sololá	4	Finca Santa Victoria	3	Marzo	2023-03-26T00:00:00	2024-11-08T17:00:00	5	Humedad	95
97537	7	Sololá	701	Sololá	4	Finca Santa Victoria	3	Marzo	2023-03-26T00:00:00	2024-11-08T17:00:00	6	Velocidad del viento	3.2
97538	7	Sololá	701	Sololá	4	Finca Santa Victoria	3	Marzo	2023-03-26T00:00:00	2024-11-08T17:00:00	7	Dirección del viento	3.22
97539	7	Sololá	701	Sololá	4	Finca Santa Victoria	3	Marzo	2023-03-26T00:00:00	2024-11-08T17:00:00	1	Precipitación	0
97540	7	Sololá	701	Sololá	4	Finca Santa Victoria	3	Marzo	2023-03-26T00:00:00	2024-11-08T17:00:00	8	Radiación solar	55
97541	7	Sololá	701	Sololá	4	Finca Santa Victoria	3	Marzo	2023-03-26T00:00:00	2024-11-08T18:00:00	2	Temperatura media	14.1
97542	7	Sololá	701	Sololá	4	Finca Santa Victoria	3	Marzo	2023-03-26T00:00:00	2024-11-08T18:00:00	4	Temperatura máxima	14.7
97543	7	Sololá	701	Sololá	4	Finca Santa Victoria	3	Marzo	2023-03-26T00:00:00	2024-11-08T18:00:00	3	Temperatura mínima	14.1
97544	7	Sololá	701	Sololá	4	Finca Santa Victoria	3	Marzo	2023-03-26T00:00:00	2024-11-08T18:00:00	5	Humedad	95
97545	7	Sololá	701	Sololá	4	Finca Santa Victoria	3	Marzo	2023-03-26T00:00:00	2024-11-08T18:00:00	6	Velocidad del viento	1.6
97546	7	Sololá	701	Sololá	4	Finca Santa Victoria	3	Marzo	2023-03-26T00:00:00	2024-11-08T18:00:00	7	Dirección del viento	1.61
97547	7	Sololá	701	Sololá	4	Finca Santa Victoria	3	Marzo	2023-03-26T00:00:00	2024-11-08T18:00:00	1	Precipitación	0
97548	7	Sololá	701	Sololá	4	Finca Santa Victoria	3	Marzo	2023-03-26T00:00:00	2024-11-08T18:00:00	8	Radiación solar	31
97549	7	Sololá	701	Sololá	4	Finca Santa Victoria	3	Marzo	2023-03-26T00:00:00	2024-11-08T19:00:00	2	Temperatura media	13.6
97550	7	Sololá	701	Sololá	4	Finca Santa Victoria	3	Marzo	2023-03-26T00:00:00	2024-11-08T19:00:00	4	Temperatura máxima	14.2
97551	7	Sololá	701	Sololá	4	Finca Santa Victoria	3	Marzo	2023-03-26T00:00:00	2024-11-08T19:00:00	3	Temperatura mínima	13.6
97552	7	Sololá	701	Sololá	4	Finca Santa Victoria	3	Marzo	2023-03-26T00:00:00	2024-11-08T19:00:00	5	Humedad	95
97553	7	Sololá	701	Sololá	4	Finca Santa Victoria	3	Marzo	2023-03-26T00:00:00	2024-11-08T19:00:00	6	Velocidad del viento	0
97554	7	Sololá	701	Sololá	4	Finca Santa Victoria	3	Marzo	2023-03-26T00:00:00	2024-11-08T19:00:00	7	Dirección del viento	0
97555	7	Sololá	701	Sololá	4	Finca Santa Victoria	3	Marzo	2023-03-26T00:00:00	2024-11-08T19:00:00	1	Precipitación	0
97556	7	Sololá	701	Sololá	4	Finca Santa Victoria	3	Marzo	2023-03-26T00:00:00	2024-11-08T19:00:00	8	Radiación solar	0
97557	7	Sololá	701	Sololá	4	Finca Santa Victoria	3	Marzo	2023-03-26T00:00:00	2024-11-08T20:00:00	2	Temperatura media	13.1
97558	7	Sololá	701	Sololá	4	Finca Santa Victoria	3	Marzo	2023-03-26T00:00:00	2024-11-08T20:00:00	4	Temperatura máxima	13.6
97559	7	Sololá	701	Sololá	4	Finca Santa Victoria	3	Marzo	2023-03-26T00:00:00	2024-11-08T20:00:00	3	Temperatura mínima	12.9
97560	7	Sololá	701	Sololá	4	Finca Santa Victoria	3	Marzo	2023-03-26T00:00:00	2024-11-08T20:00:00	5	Humedad	97
97561	7	Sololá	701	Sololá	4	Finca Santa Victoria	3	Marzo	2023-03-26T00:00:00	2024-11-08T20:00:00	6	Velocidad del viento	0
97562	7	Sololá	701	Sololá	4	Finca Santa Victoria	3	Marzo	2023-03-26T00:00:00	2024-11-08T20:00:00	7	Dirección del viento	0
97563	7	Sololá	701	Sololá	4	Finca Santa Victoria	3	Marzo	2023-03-26T00:00:00	2024-11-08T20:00:00	1	Precipitación	0
97564	7	Sololá	701	Sololá	4	Finca Santa Victoria	3	Marzo	2023-03-26T00:00:00	2024-11-08T20:00:00	8	Radiación solar	0
97565	7	Sololá	701	Sololá	4	Finca Santa Victoria	3	Marzo	2023-03-26T00:00:00	2024-11-08T21:00:00	2	Temperatura media	12.8
97566	7	Sololá	701	Sololá	4	Finca Santa Victoria	3	Marzo	2023-03-26T00:00:00	2024-11-08T21:00:00	4	Temperatura máxima	13.2
97567	7	Sololá	701	Sololá	4	Finca Santa Victoria	3	Marzo	2023-03-26T00:00:00	2024-11-08T21:00:00	3	Temperatura mínima	12.7
97568	7	Sololá	701	Sololá	4	Finca Santa Victoria	3	Marzo	2023-03-26T00:00:00	2024-11-08T21:00:00	5	Humedad	97
97569	7	Sololá	701	Sololá	4	Finca Santa Victoria	3	Marzo	2023-03-26T00:00:00	2024-11-08T21:00:00	6	Velocidad del viento	0
97570	7	Sololá	701	Sololá	4	Finca Santa Victoria	3	Marzo	2023-03-26T00:00:00	2024-11-08T21:00:00	7	Dirección del viento	0
97571	7	Sololá	701	Sololá	4	Finca Santa Victoria	3	Marzo	2023-03-26T00:00:00	2024-11-08T21:00:00	1	Precipitación	0
97572	7	Sololá	701	Sololá	4	Finca Santa Victoria	3	Marzo	2023-03-26T00:00:00	2024-11-08T21:00:00	8	Radiación solar	0
97573	7	Sololá	701	Sololá	4	Finca Santa Victoria	3	Marzo	2023-03-26T00:00:00	2024-11-08T22:00:00	2	Temperatura media	12.4
97574	7	Sololá	701	Sololá	4	Finca Santa Victoria	3	Marzo	2023-03-26T00:00:00	2024-11-08T22:00:00	4	Temperatura máxima	12.8
97575	7	Sololá	701	Sololá	4	Finca Santa Victoria	3	Marzo	2023-03-26T00:00:00	2024-11-08T22:00:00	3	Temperatura mínima	12.4
97576	7	Sololá	701	Sololá	4	Finca Santa Victoria	3	Marzo	2023-03-26T00:00:00	2024-11-08T22:00:00	5	Humedad	97
97577	7	Sololá	701	Sololá	4	Finca Santa Victoria	3	Marzo	2023-03-26T00:00:00	2024-11-08T22:00:00	6	Velocidad del viento	0
97578	7	Sololá	701	Sololá	4	Finca Santa Victoria	3	Marzo	2023-03-26T00:00:00	2024-11-08T22:00:00	7	Dirección del viento	0
97579	7	Sololá	701	Sololá	4	Finca Santa Victoria	3	Marzo	2023-03-26T00:00:00	2024-11-08T22:00:00	1	Precipitación	0
97580	7	Sololá	701	Sololá	4	Finca Santa Victoria	3	Marzo	2023-03-26T00:00:00	2024-11-08T22:00:00	8	Radiación solar	0
97581	7	Sololá	701	Sololá	4	Finca Santa Victoria	3	Marzo	2023-03-26T00:00:00	2024-11-08T23:00:00	2	Temperatura media	12.3
97582	7	Sololá	701	Sololá	4	Finca Santa Victoria	3	Marzo	2023-03-26T00:00:00	2024-11-08T23:00:00	4	Temperatura máxima	12.5
97583	7	Sololá	701	Sololá	4	Finca Santa Victoria	3	Marzo	2023-03-26T00:00:00	2024-11-08T23:00:00	3	Temperatura mínima	12.3
97584	7	Sololá	701	Sololá	4	Finca Santa Victoria	3	Marzo	2023-03-26T00:00:00	2024-11-08T23:00:00	5	Humedad	97
97585	7	Sololá	701	Sololá	4	Finca Santa Victoria	3	Marzo	2023-03-26T00:00:00	2024-11-08T23:00:00	6	Velocidad del viento	0
97586	7	Sololá	701	Sololá	4	Finca Santa Victoria	3	Marzo	2023-03-26T00:00:00	2024-11-08T23:00:00	7	Dirección del viento	0
97587	7	Sololá	701	Sololá	4	Finca Santa Victoria	3	Marzo	2023-03-26T00:00:00	2024-11-08T23:00:00	1	Precipitación	0
97588	7	Sololá	701	Sololá	4	Finca Santa Victoria	3	Marzo	2023-03-26T00:00:00	2024-11-08T23:00:00	8	Radiación solar	0
97589	7	Sololá	701	Sololá	4	Finca Santa Victoria	3	Marzo	2023-03-27T00:00:00	2024-11-08T00:00:00	2	Temperatura media	12.2
97590	7	Sololá	701	Sololá	4	Finca Santa Victoria	3	Marzo	2023-03-27T00:00:00	2024-11-08T00:00:00	4	Temperatura máxima	12.6
97591	7	Sololá	701	Sololá	4	Finca Santa Victoria	3	Marzo	2023-03-27T00:00:00	2024-11-08T00:00:00	3	Temperatura mínima	12.2
97592	7	Sololá	701	Sololá	4	Finca Santa Victoria	3	Marzo	2023-03-27T00:00:00	2024-11-08T00:00:00	5	Humedad	97
97593	7	Sololá	701	Sololá	4	Finca Santa Victoria	3	Marzo	2023-03-27T00:00:00	2024-11-08T00:00:00	6	Velocidad del viento	0
97594	7	Sololá	701	Sololá	4	Finca Santa Victoria	3	Marzo	2023-03-27T00:00:00	2024-11-08T00:00:00	7	Dirección del viento	0
97595	7	Sololá	701	Sololá	4	Finca Santa Victoria	3	Marzo	2023-03-27T00:00:00	2024-11-08T00:00:00	1	Precipitación	0
97596	7	Sololá	701	Sololá	4	Finca Santa Victoria	3	Marzo	2023-03-27T00:00:00	2024-11-08T00:00:00	8	Radiación solar	0
97597	7	Sololá	701	Sololá	4	Finca Santa Victoria	3	Marzo	2023-03-27T00:00:00	2024-11-08T01:00:00	2	Temperatura media	11.8
97598	7	Sololá	701	Sololá	4	Finca Santa Victoria	3	Marzo	2023-03-27T00:00:00	2024-11-08T01:00:00	4	Temperatura máxima	12.2
97599	7	Sololá	701	Sololá	4	Finca Santa Victoria	3	Marzo	2023-03-27T00:00:00	2024-11-08T01:00:00	3	Temperatura mínima	11.7
97600	7	Sololá	701	Sololá	4	Finca Santa Victoria	3	Marzo	2023-03-27T00:00:00	2024-11-08T01:00:00	5	Humedad	98
97601	7	Sololá	701	Sololá	4	Finca Santa Victoria	3	Marzo	2023-03-27T00:00:00	2024-11-08T01:00:00	6	Velocidad del viento	0
97602	7	Sololá	701	Sololá	4	Finca Santa Victoria	3	Marzo	2023-03-27T00:00:00	2024-11-08T01:00:00	7	Dirección del viento	0
97603	7	Sololá	701	Sololá	4	Finca Santa Victoria	3	Marzo	2023-03-27T00:00:00	2024-11-08T01:00:00	1	Precipitación	0
97604	7	Sololá	701	Sololá	4	Finca Santa Victoria	3	Marzo	2023-03-27T00:00:00	2024-11-08T01:00:00	8	Radiación solar	0
97605	7	Sololá	701	Sololá	4	Finca Santa Victoria	3	Marzo	2023-03-27T00:00:00	2024-11-08T02:00:00	2	Temperatura media	12.2
97606	7	Sololá	701	Sololá	4	Finca Santa Victoria	3	Marzo	2023-03-27T00:00:00	2024-11-08T02:00:00	4	Temperatura máxima	12.2
97607	7	Sololá	701	Sololá	4	Finca Santa Victoria	3	Marzo	2023-03-27T00:00:00	2024-11-08T02:00:00	3	Temperatura mínima	11.7
97608	7	Sololá	701	Sololá	4	Finca Santa Victoria	3	Marzo	2023-03-27T00:00:00	2024-11-08T02:00:00	5	Humedad	98
97609	7	Sololá	701	Sololá	4	Finca Santa Victoria	3	Marzo	2023-03-27T00:00:00	2024-11-08T02:00:00	6	Velocidad del viento	0
97610	7	Sololá	701	Sololá	4	Finca Santa Victoria	3	Marzo	2023-03-27T00:00:00	2024-11-08T02:00:00	7	Dirección del viento	0
97611	7	Sololá	701	Sololá	4	Finca Santa Victoria	3	Marzo	2023-03-27T00:00:00	2024-11-08T02:00:00	1	Precipitación	0
97612	7	Sololá	701	Sololá	4	Finca Santa Victoria	3	Marzo	2023-03-27T00:00:00	2024-11-08T02:00:00	8	Radiación solar	0
97613	7	Sololá	701	Sololá	4	Finca Santa Victoria	3	Marzo	2023-03-27T00:00:00	2024-11-08T03:00:00	2	Temperatura media	11.7
97614	7	Sololá	701	Sololá	4	Finca Santa Victoria	3	Marzo	2023-03-27T00:00:00	2024-11-08T03:00:00	4	Temperatura máxima	12.4
97615	7	Sololá	701	Sololá	4	Finca Santa Victoria	3	Marzo	2023-03-27T00:00:00	2024-11-08T03:00:00	3	Temperatura mínima	11.6
97616	7	Sololá	701	Sololá	4	Finca Santa Victoria	3	Marzo	2023-03-27T00:00:00	2024-11-08T03:00:00	5	Humedad	98
97617	7	Sololá	701	Sololá	4	Finca Santa Victoria	3	Marzo	2023-03-27T00:00:00	2024-11-08T03:00:00	6	Velocidad del viento	0
97618	7	Sololá	701	Sololá	4	Finca Santa Victoria	3	Marzo	2023-03-27T00:00:00	2024-11-08T03:00:00	7	Dirección del viento	0
97619	7	Sololá	701	Sololá	4	Finca Santa Victoria	3	Marzo	2023-03-27T00:00:00	2024-11-08T03:00:00	1	Precipitación	0
97620	7	Sololá	701	Sololá	4	Finca Santa Victoria	3	Marzo	2023-03-27T00:00:00	2024-11-08T03:00:00	8	Radiación solar	0
97621	7	Sololá	701	Sololá	4	Finca Santa Victoria	3	Marzo	2023-03-27T00:00:00	2024-11-08T04:00:00	2	Temperatura media	11.4
97622	7	Sololá	701	Sololá	4	Finca Santa Victoria	3	Marzo	2023-03-27T00:00:00	2024-11-08T04:00:00	4	Temperatura máxima	11.7
97623	7	Sololá	701	Sololá	4	Finca Santa Victoria	3	Marzo	2023-03-27T00:00:00	2024-11-08T04:00:00	3	Temperatura mínima	11.3
97624	7	Sololá	701	Sololá	4	Finca Santa Victoria	3	Marzo	2023-03-27T00:00:00	2024-11-08T04:00:00	5	Humedad	98
97625	7	Sololá	701	Sololá	4	Finca Santa Victoria	3	Marzo	2023-03-27T00:00:00	2024-11-08T04:00:00	6	Velocidad del viento	1.6
97626	7	Sololá	701	Sololá	4	Finca Santa Victoria	3	Marzo	2023-03-27T00:00:00	2024-11-08T04:00:00	7	Dirección del viento	1.61
97627	7	Sololá	701	Sololá	4	Finca Santa Victoria	3	Marzo	2023-03-27T00:00:00	2024-11-08T04:00:00	1	Precipitación	0
97628	7	Sololá	701	Sololá	4	Finca Santa Victoria	3	Marzo	2023-03-27T00:00:00	2024-11-08T04:00:00	8	Radiación solar	0
97629	7	Sololá	701	Sololá	4	Finca Santa Victoria	3	Marzo	2023-03-27T00:00:00	2024-11-08T05:00:00	2	Temperatura media	10.9
97630	7	Sololá	701	Sololá	4	Finca Santa Victoria	3	Marzo	2023-03-27T00:00:00	2024-11-08T05:00:00	4	Temperatura máxima	11.4
97631	7	Sololá	701	Sololá	4	Finca Santa Victoria	3	Marzo	2023-03-27T00:00:00	2024-11-08T05:00:00	3	Temperatura mínima	10.9
97632	7	Sololá	701	Sololá	4	Finca Santa Victoria	3	Marzo	2023-03-27T00:00:00	2024-11-08T05:00:00	5	Humedad	98
97633	7	Sololá	701	Sololá	4	Finca Santa Victoria	3	Marzo	2023-03-27T00:00:00	2024-11-08T05:00:00	6	Velocidad del viento	1.6
97634	7	Sololá	701	Sololá	4	Finca Santa Victoria	3	Marzo	2023-03-27T00:00:00	2024-11-08T05:00:00	7	Dirección del viento	1.61
97635	7	Sololá	701	Sololá	4	Finca Santa Victoria	3	Marzo	2023-03-27T00:00:00	2024-11-08T05:00:00	1	Precipitación	0
97636	7	Sololá	701	Sololá	4	Finca Santa Victoria	3	Marzo	2023-03-27T00:00:00	2024-11-08T05:00:00	8	Radiación solar	0
97637	7	Sololá	701	Sololá	4	Finca Santa Victoria	3	Marzo	2023-03-27T00:00:00	2024-11-08T06:00:00	2	Temperatura media	10.7
97638	7	Sololá	701	Sololá	4	Finca Santa Victoria	3	Marzo	2023-03-27T00:00:00	2024-11-08T06:00:00	4	Temperatura máxima	10.9
97639	7	Sololá	701	Sololá	4	Finca Santa Victoria	3	Marzo	2023-03-27T00:00:00	2024-11-08T06:00:00	3	Temperatura mínima	10.6
97640	7	Sololá	701	Sololá	4	Finca Santa Victoria	3	Marzo	2023-03-27T00:00:00	2024-11-08T06:00:00	5	Humedad	98
97641	7	Sololá	701	Sololá	4	Finca Santa Victoria	3	Marzo	2023-03-27T00:00:00	2024-11-08T06:00:00	6	Velocidad del viento	1.6
97642	7	Sololá	701	Sololá	4	Finca Santa Victoria	3	Marzo	2023-03-27T00:00:00	2024-11-08T06:00:00	7	Dirección del viento	1.61
97643	7	Sololá	701	Sololá	4	Finca Santa Victoria	3	Marzo	2023-03-27T00:00:00	2024-11-08T06:00:00	1	Precipitación	0
97644	7	Sololá	701	Sololá	4	Finca Santa Victoria	3	Marzo	2023-03-27T00:00:00	2024-11-08T06:00:00	8	Radiación solar	0
97645	7	Sololá	701	Sololá	4	Finca Santa Victoria	3	Marzo	2023-03-27T00:00:00	2024-11-08T07:00:00	2	Temperatura media	10.7
97646	7	Sololá	701	Sololá	4	Finca Santa Victoria	3	Marzo	2023-03-27T00:00:00	2024-11-08T07:00:00	4	Temperatura máxima	10.9
97647	7	Sololá	701	Sololá	4	Finca Santa Victoria	3	Marzo	2023-03-27T00:00:00	2024-11-08T07:00:00	3	Temperatura mínima	10.6
97648	7	Sololá	701	Sololá	4	Finca Santa Victoria	3	Marzo	2023-03-27T00:00:00	2024-11-08T07:00:00	5	Humedad	98
97649	7	Sololá	701	Sololá	4	Finca Santa Victoria	3	Marzo	2023-03-27T00:00:00	2024-11-08T07:00:00	6	Velocidad del viento	0
97650	7	Sololá	701	Sololá	4	Finca Santa Victoria	3	Marzo	2023-03-27T00:00:00	2024-11-08T07:00:00	7	Dirección del viento	0
97651	7	Sololá	701	Sololá	4	Finca Santa Victoria	3	Marzo	2023-03-27T00:00:00	2024-11-08T07:00:00	1	Precipitación	0
97652	7	Sololá	701	Sololá	4	Finca Santa Victoria	3	Marzo	2023-03-27T00:00:00	2024-11-08T07:00:00	8	Radiación solar	14
97653	7	Sololá	701	Sololá	4	Finca Santa Victoria	3	Marzo	2023-03-27T00:00:00	2024-11-08T08:00:00	2	Temperatura media	13.5
97654	7	Sololá	701	Sololá	4	Finca Santa Victoria	3	Marzo	2023-03-27T00:00:00	2024-11-08T08:00:00	4	Temperatura máxima	13.5
97655	7	Sololá	701	Sololá	4	Finca Santa Victoria	3	Marzo	2023-03-27T00:00:00	2024-11-08T08:00:00	3	Temperatura mínima	10.7
97656	7	Sololá	701	Sololá	4	Finca Santa Victoria	3	Marzo	2023-03-27T00:00:00	2024-11-08T08:00:00	5	Humedad	85
97657	7	Sololá	701	Sololá	4	Finca Santa Victoria	3	Marzo	2023-03-27T00:00:00	2024-11-08T08:00:00	6	Velocidad del viento	0
97658	7	Sololá	701	Sololá	4	Finca Santa Victoria	3	Marzo	2023-03-27T00:00:00	2024-11-08T08:00:00	7	Dirección del viento	0
97659	7	Sololá	701	Sololá	4	Finca Santa Victoria	3	Marzo	2023-03-27T00:00:00	2024-11-08T08:00:00	1	Precipitación	0
97660	7	Sololá	701	Sololá	4	Finca Santa Victoria	3	Marzo	2023-03-27T00:00:00	2024-11-08T08:00:00	8	Radiación solar	182
97661	7	Sololá	701	Sololá	4	Finca Santa Victoria	3	Marzo	2023-03-27T00:00:00	2024-11-08T09:00:00	2	Temperatura media	15.2
97662	7	Sololá	701	Sololá	4	Finca Santa Victoria	3	Marzo	2023-03-27T00:00:00	2024-11-08T09:00:00	4	Temperatura máxima	15.2
97663	7	Sololá	701	Sololá	4	Finca Santa Victoria	3	Marzo	2023-03-27T00:00:00	2024-11-08T09:00:00	3	Temperatura mínima	13.5
97664	7	Sololá	701	Sololá	4	Finca Santa Victoria	3	Marzo	2023-03-27T00:00:00	2024-11-08T09:00:00	5	Humedad	78
97665	7	Sololá	701	Sololá	4	Finca Santa Victoria	3	Marzo	2023-03-27T00:00:00	2024-11-08T09:00:00	6	Velocidad del viento	1.6
97666	7	Sololá	701	Sololá	4	Finca Santa Victoria	3	Marzo	2023-03-27T00:00:00	2024-11-08T09:00:00	7	Dirección del viento	1.61
97667	7	Sololá	701	Sololá	4	Finca Santa Victoria	3	Marzo	2023-03-27T00:00:00	2024-11-08T09:00:00	1	Precipitación	0
97668	7	Sololá	701	Sololá	4	Finca Santa Victoria	3	Marzo	2023-03-27T00:00:00	2024-11-08T09:00:00	8	Radiación solar	513
97669	7	Sololá	701	Sololá	4	Finca Santa Victoria	3	Marzo	2023-03-27T00:00:00	2024-11-08T10:00:00	2	Temperatura media	17.7
97670	7	Sololá	701	Sololá	4	Finca Santa Victoria	3	Marzo	2023-03-27T00:00:00	2024-11-08T10:00:00	4	Temperatura máxima	17.9
97671	7	Sololá	701	Sololá	4	Finca Santa Victoria	3	Marzo	2023-03-27T00:00:00	2024-11-08T10:00:00	3	Temperatura mínima	15.2
97672	7	Sololá	701	Sololá	4	Finca Santa Victoria	3	Marzo	2023-03-27T00:00:00	2024-11-08T10:00:00	5	Humedad	71
97673	7	Sololá	701	Sololá	4	Finca Santa Victoria	3	Marzo	2023-03-27T00:00:00	2024-11-08T10:00:00	6	Velocidad del viento	3.2
97674	7	Sololá	701	Sololá	4	Finca Santa Victoria	3	Marzo	2023-03-27T00:00:00	2024-11-08T10:00:00	7	Dirección del viento	3.22
97675	7	Sololá	701	Sololá	4	Finca Santa Victoria	3	Marzo	2023-03-27T00:00:00	2024-11-08T10:00:00	1	Precipitación	0
97676	7	Sololá	701	Sololá	4	Finca Santa Victoria	3	Marzo	2023-03-27T00:00:00	2024-11-08T10:00:00	8	Radiación solar	807
97677	7	Sololá	701	Sololá	4	Finca Santa Victoria	3	Marzo	2023-03-27T00:00:00	2024-11-08T11:00:00	2	Temperatura media	17.2
97678	7	Sololá	701	Sololá	4	Finca Santa Victoria	3	Marzo	2023-03-27T00:00:00	2024-11-08T11:00:00	4	Temperatura máxima	18.2
97679	7	Sololá	701	Sololá	4	Finca Santa Victoria	3	Marzo	2023-03-27T00:00:00	2024-11-08T11:00:00	3	Temperatura mínima	16.6
97680	7	Sololá	701	Sololá	4	Finca Santa Victoria	3	Marzo	2023-03-27T00:00:00	2024-11-08T11:00:00	5	Humedad	73
97681	7	Sololá	701	Sololá	4	Finca Santa Victoria	3	Marzo	2023-03-27T00:00:00	2024-11-08T11:00:00	6	Velocidad del viento	3.2
97682	7	Sololá	701	Sololá	4	Finca Santa Victoria	3	Marzo	2023-03-27T00:00:00	2024-11-08T11:00:00	7	Dirección del viento	3.22
97683	7	Sololá	701	Sololá	4	Finca Santa Victoria	3	Marzo	2023-03-27T00:00:00	2024-11-08T11:00:00	1	Precipitación	0
97684	7	Sololá	701	Sololá	4	Finca Santa Victoria	3	Marzo	2023-03-27T00:00:00	2024-11-08T11:00:00	8	Radiación solar	420
97685	7	Sololá	701	Sololá	4	Finca Santa Victoria	3	Marzo	2023-03-27T00:00:00	2024-11-08T12:00:00	2	Temperatura media	18.1
97686	7	Sololá	701	Sololá	4	Finca Santa Victoria	3	Marzo	2023-03-27T00:00:00	2024-11-08T12:00:00	4	Temperatura máxima	18.8
97687	7	Sololá	701	Sololá	4	Finca Santa Victoria	3	Marzo	2023-03-27T00:00:00	2024-11-08T12:00:00	3	Temperatura mínima	17.2
97688	7	Sololá	701	Sololá	4	Finca Santa Victoria	3	Marzo	2023-03-27T00:00:00	2024-11-08T12:00:00	5	Humedad	72
97689	7	Sololá	701	Sololá	4	Finca Santa Victoria	3	Marzo	2023-03-27T00:00:00	2024-11-08T12:00:00	6	Velocidad del viento	3.2
97690	7	Sololá	701	Sololá	4	Finca Santa Victoria	3	Marzo	2023-03-27T00:00:00	2024-11-08T12:00:00	7	Dirección del viento	3.22
97691	7	Sololá	701	Sololá	4	Finca Santa Victoria	3	Marzo	2023-03-27T00:00:00	2024-11-08T12:00:00	1	Precipitación	0
97692	7	Sololá	701	Sololá	4	Finca Santa Victoria	3	Marzo	2023-03-27T00:00:00	2024-11-08T12:00:00	8	Radiación solar	615
97693	7	Sololá	701	Sololá	4	Finca Santa Victoria	3	Marzo	2023-03-27T00:00:00	2024-11-08T13:00:00	2	Temperatura media	17.8
97694	7	Sololá	701	Sololá	4	Finca Santa Victoria	3	Marzo	2023-03-27T00:00:00	2024-11-08T13:00:00	4	Temperatura máxima	18.4
97695	7	Sololá	701	Sololá	4	Finca Santa Victoria	3	Marzo	2023-03-27T00:00:00	2024-11-08T13:00:00	3	Temperatura mínima	16.9
97696	7	Sololá	701	Sololá	4	Finca Santa Victoria	3	Marzo	2023-03-27T00:00:00	2024-11-08T13:00:00	5	Humedad	78
97697	7	Sololá	701	Sololá	4	Finca Santa Victoria	3	Marzo	2023-03-27T00:00:00	2024-11-08T13:00:00	6	Velocidad del viento	4.8
97698	7	Sololá	701	Sololá	4	Finca Santa Victoria	3	Marzo	2023-03-27T00:00:00	2024-11-08T13:00:00	7	Dirección del viento	4.83
97699	7	Sololá	701	Sololá	4	Finca Santa Victoria	3	Marzo	2023-03-27T00:00:00	2024-11-08T13:00:00	1	Precipitación	0
97700	7	Sololá	701	Sololá	4	Finca Santa Victoria	3	Marzo	2023-03-27T00:00:00	2024-11-08T13:00:00	8	Radiación solar	311
97701	7	Sololá	701	Sololá	4	Finca Santa Victoria	3	Marzo	2023-03-27T00:00:00	2024-11-08T14:00:00	2	Temperatura media	18.2
97702	7	Sololá	701	Sololá	4	Finca Santa Victoria	3	Marzo	2023-03-27T00:00:00	2024-11-08T14:00:00	4	Temperatura máxima	18.9
97703	7	Sololá	701	Sololá	4	Finca Santa Victoria	3	Marzo	2023-03-27T00:00:00	2024-11-08T14:00:00	3	Temperatura mínima	17.7
97704	7	Sololá	701	Sololá	4	Finca Santa Victoria	3	Marzo	2023-03-27T00:00:00	2024-11-08T14:00:00	5	Humedad	81
97705	7	Sololá	701	Sololá	4	Finca Santa Victoria	3	Marzo	2023-03-27T00:00:00	2024-11-08T14:00:00	6	Velocidad del viento	4.8
97706	7	Sololá	701	Sololá	4	Finca Santa Victoria	3	Marzo	2023-03-27T00:00:00	2024-11-08T14:00:00	7	Dirección del viento	4.83
97707	7	Sololá	701	Sololá	4	Finca Santa Victoria	3	Marzo	2023-03-27T00:00:00	2024-11-08T14:00:00	1	Precipitación	0
97708	7	Sololá	701	Sololá	4	Finca Santa Victoria	3	Marzo	2023-03-27T00:00:00	2024-11-08T14:00:00	8	Radiación solar	330
97709	7	Sololá	701	Sololá	4	Finca Santa Victoria	3	Marzo	2023-03-27T00:00:00	2024-11-08T15:00:00	2	Temperatura media	17.4
97710	7	Sololá	701	Sololá	4	Finca Santa Victoria	3	Marzo	2023-03-27T00:00:00	2024-11-08T15:00:00	4	Temperatura máxima	18.2
97711	7	Sololá	701	Sololá	4	Finca Santa Victoria	3	Marzo	2023-03-27T00:00:00	2024-11-08T15:00:00	3	Temperatura mínima	16.5
97712	7	Sololá	701	Sololá	4	Finca Santa Victoria	3	Marzo	2023-03-27T00:00:00	2024-11-08T15:00:00	5	Humedad	85
97713	7	Sololá	701	Sololá	4	Finca Santa Victoria	3	Marzo	2023-03-27T00:00:00	2024-11-08T15:00:00	6	Velocidad del viento	4.8
97714	7	Sololá	701	Sololá	4	Finca Santa Victoria	3	Marzo	2023-03-27T00:00:00	2024-11-08T15:00:00	7	Dirección del viento	4.83
97715	7	Sololá	701	Sololá	4	Finca Santa Victoria	3	Marzo	2023-03-27T00:00:00	2024-11-08T15:00:00	1	Precipitación	0
97716	7	Sololá	701	Sololá	4	Finca Santa Victoria	3	Marzo	2023-03-27T00:00:00	2024-11-08T15:00:00	8	Radiación solar	255
97717	7	Sololá	701	Sololá	4	Finca Santa Victoria	3	Marzo	2023-03-27T00:00:00	2024-11-08T16:00:00	2	Temperatura media	17.1
97718	7	Sololá	701	Sololá	4	Finca Santa Victoria	3	Marzo	2023-03-27T00:00:00	2024-11-08T16:00:00	4	Temperatura máxima	17.7
97719	7	Sololá	701	Sololá	4	Finca Santa Victoria	3	Marzo	2023-03-27T00:00:00	2024-11-08T16:00:00	3	Temperatura mínima	16.8
97720	7	Sololá	701	Sololá	4	Finca Santa Victoria	3	Marzo	2023-03-27T00:00:00	2024-11-08T16:00:00	5	Humedad	84
97721	7	Sololá	701	Sololá	4	Finca Santa Victoria	3	Marzo	2023-03-27T00:00:00	2024-11-08T16:00:00	6	Velocidad del viento	4.8
97722	7	Sololá	701	Sololá	4	Finca Santa Victoria	3	Marzo	2023-03-27T00:00:00	2024-11-08T16:00:00	7	Dirección del viento	4.83
97723	7	Sololá	701	Sololá	4	Finca Santa Victoria	3	Marzo	2023-03-27T00:00:00	2024-11-08T16:00:00	1	Precipitación	0
97724	7	Sololá	701	Sololá	4	Finca Santa Victoria	3	Marzo	2023-03-27T00:00:00	2024-11-08T16:00:00	8	Radiación solar	222
97725	7	Sololá	701	Sololá	4	Finca Santa Victoria	3	Marzo	2023-03-27T00:00:00	2024-11-08T17:00:00	2	Temperatura media	15.9
97726	7	Sololá	701	Sololá	4	Finca Santa Victoria	3	Marzo	2023-03-27T00:00:00	2024-11-08T17:00:00	4	Temperatura máxima	17.1
97727	7	Sololá	701	Sololá	4	Finca Santa Victoria	3	Marzo	2023-03-27T00:00:00	2024-11-08T17:00:00	3	Temperatura mínima	15.8
97728	7	Sololá	701	Sololá	4	Finca Santa Victoria	3	Marzo	2023-03-27T00:00:00	2024-11-08T17:00:00	5	Humedad	89
97729	7	Sololá	701	Sololá	4	Finca Santa Victoria	3	Marzo	2023-03-27T00:00:00	2024-11-08T17:00:00	6	Velocidad del viento	3.2
97730	7	Sololá	701	Sololá	4	Finca Santa Victoria	3	Marzo	2023-03-27T00:00:00	2024-11-08T17:00:00	7	Dirección del viento	3.22
97731	7	Sololá	701	Sololá	4	Finca Santa Victoria	3	Marzo	2023-03-27T00:00:00	2024-11-08T17:00:00	1	Precipitación	0
97732	7	Sololá	701	Sololá	4	Finca Santa Victoria	3	Marzo	2023-03-27T00:00:00	2024-11-08T17:00:00	8	Radiación solar	115
97733	7	Sololá	701	Sololá	4	Finca Santa Victoria	3	Marzo	2023-03-27T00:00:00	2024-11-08T18:00:00	2	Temperatura media	15.1
97734	7	Sololá	701	Sololá	4	Finca Santa Victoria	3	Marzo	2023-03-27T00:00:00	2024-11-08T18:00:00	4	Temperatura máxima	15.9
97735	7	Sololá	701	Sololá	4	Finca Santa Victoria	3	Marzo	2023-03-27T00:00:00	2024-11-08T18:00:00	3	Temperatura mínima	15.1
97736	7	Sololá	701	Sololá	4	Finca Santa Victoria	3	Marzo	2023-03-27T00:00:00	2024-11-08T18:00:00	5	Humedad	94
97737	7	Sololá	701	Sololá	4	Finca Santa Victoria	3	Marzo	2023-03-27T00:00:00	2024-11-08T18:00:00	6	Velocidad del viento	3.2
97738	7	Sololá	701	Sololá	4	Finca Santa Victoria	3	Marzo	2023-03-27T00:00:00	2024-11-08T18:00:00	7	Dirección del viento	3.22
97739	7	Sololá	701	Sololá	4	Finca Santa Victoria	3	Marzo	2023-03-27T00:00:00	2024-11-08T18:00:00	1	Precipitación	0
97740	7	Sololá	701	Sololá	4	Finca Santa Victoria	3	Marzo	2023-03-27T00:00:00	2024-11-08T18:00:00	8	Radiación solar	36
97741	7	Sololá	701	Sololá	4	Finca Santa Victoria	3	Marzo	2023-03-27T00:00:00	2024-11-08T19:00:00	2	Temperatura media	14.2
97742	7	Sololá	701	Sololá	4	Finca Santa Victoria	3	Marzo	2023-03-27T00:00:00	2024-11-08T19:00:00	4	Temperatura máxima	15.1
97743	7	Sololá	701	Sololá	4	Finca Santa Victoria	3	Marzo	2023-03-27T00:00:00	2024-11-08T19:00:00	3	Temperatura mínima	14.1
97744	7	Sololá	701	Sololá	4	Finca Santa Victoria	3	Marzo	2023-03-27T00:00:00	2024-11-08T19:00:00	5	Humedad	94
97745	7	Sololá	701	Sololá	4	Finca Santa Victoria	3	Marzo	2023-03-27T00:00:00	2024-11-08T19:00:00	6	Velocidad del viento	0
97746	7	Sololá	701	Sololá	4	Finca Santa Victoria	3	Marzo	2023-03-27T00:00:00	2024-11-08T19:00:00	7	Dirección del viento	0
97747	7	Sololá	701	Sololá	4	Finca Santa Victoria	3	Marzo	2023-03-27T00:00:00	2024-11-08T19:00:00	1	Precipitación	0
97748	7	Sololá	701	Sololá	4	Finca Santa Victoria	3	Marzo	2023-03-27T00:00:00	2024-11-08T19:00:00	8	Radiación solar	0
97749	7	Sololá	701	Sololá	4	Finca Santa Victoria	3	Marzo	2023-03-27T00:00:00	2024-11-08T20:00:00	2	Temperatura media	13.4
97750	7	Sololá	701	Sololá	4	Finca Santa Victoria	3	Marzo	2023-03-27T00:00:00	2024-11-08T20:00:00	4	Temperatura máxima	14.1
97751	7	Sololá	701	Sololá	4	Finca Santa Victoria	3	Marzo	2023-03-27T00:00:00	2024-11-08T20:00:00	3	Temperatura mínima	13.4
97752	7	Sololá	701	Sololá	4	Finca Santa Victoria	3	Marzo	2023-03-27T00:00:00	2024-11-08T20:00:00	5	Humedad	97
97753	7	Sololá	701	Sololá	4	Finca Santa Victoria	3	Marzo	2023-03-27T00:00:00	2024-11-08T20:00:00	6	Velocidad del viento	0
97754	7	Sololá	701	Sololá	4	Finca Santa Victoria	3	Marzo	2023-03-27T00:00:00	2024-11-08T20:00:00	7	Dirección del viento	0
97755	7	Sololá	701	Sololá	4	Finca Santa Victoria	3	Marzo	2023-03-27T00:00:00	2024-11-08T20:00:00	1	Precipitación	0
97756	7	Sololá	701	Sololá	4	Finca Santa Victoria	3	Marzo	2023-03-27T00:00:00	2024-11-08T20:00:00	8	Radiación solar	0
97757	7	Sololá	701	Sololá	4	Finca Santa Victoria	3	Marzo	2023-03-27T00:00:00	2024-11-08T21:00:00	2	Temperatura media	13.2
97758	7	Sololá	701	Sololá	4	Finca Santa Victoria	3	Marzo	2023-03-27T00:00:00	2024-11-08T21:00:00	4	Temperatura máxima	13.5
97759	7	Sololá	701	Sololá	4	Finca Santa Victoria	3	Marzo	2023-03-27T00:00:00	2024-11-08T21:00:00	3	Temperatura mínima	13.2
97760	7	Sololá	701	Sololá	4	Finca Santa Victoria	3	Marzo	2023-03-27T00:00:00	2024-11-08T21:00:00	5	Humedad	97
97761	7	Sololá	701	Sololá	4	Finca Santa Victoria	3	Marzo	2023-03-27T00:00:00	2024-11-08T21:00:00	6	Velocidad del viento	0
97762	7	Sololá	701	Sololá	4	Finca Santa Victoria	3	Marzo	2023-03-27T00:00:00	2024-11-08T21:00:00	7	Dirección del viento	0
97763	7	Sololá	701	Sololá	4	Finca Santa Victoria	3	Marzo	2023-03-27T00:00:00	2024-11-08T21:00:00	1	Precipitación	0
97764	7	Sololá	701	Sololá	4	Finca Santa Victoria	3	Marzo	2023-03-27T00:00:00	2024-11-08T21:00:00	8	Radiación solar	0
97765	7	Sololá	701	Sololá	4	Finca Santa Victoria	3	Marzo	2023-03-27T00:00:00	2024-11-08T22:00:00	2	Temperatura media	12.2
97766	7	Sololá	701	Sololá	4	Finca Santa Victoria	3	Marzo	2023-03-27T00:00:00	2024-11-08T22:00:00	4	Temperatura máxima	13.2
97767	7	Sololá	701	Sololá	4	Finca Santa Victoria	3	Marzo	2023-03-27T00:00:00	2024-11-08T22:00:00	3	Temperatura mínima	12.1
97768	7	Sololá	701	Sololá	4	Finca Santa Victoria	3	Marzo	2023-03-27T00:00:00	2024-11-08T22:00:00	5	Humedad	94
97769	7	Sololá	701	Sololá	4	Finca Santa Victoria	3	Marzo	2023-03-27T00:00:00	2024-11-08T22:00:00	6	Velocidad del viento	0
97770	7	Sololá	701	Sololá	4	Finca Santa Victoria	3	Marzo	2023-03-27T00:00:00	2024-11-08T22:00:00	7	Dirección del viento	0
97771	7	Sololá	701	Sololá	4	Finca Santa Victoria	3	Marzo	2023-03-27T00:00:00	2024-11-08T22:00:00	1	Precipitación	0
97772	7	Sololá	701	Sololá	4	Finca Santa Victoria	3	Marzo	2023-03-27T00:00:00	2024-11-08T22:00:00	8	Radiación solar	0
97773	7	Sololá	701	Sololá	4	Finca Santa Victoria	3	Marzo	2023-03-27T00:00:00	2024-11-08T23:00:00	2	Temperatura media	11.9
97774	7	Sololá	701	Sololá	4	Finca Santa Victoria	3	Marzo	2023-03-27T00:00:00	2024-11-08T23:00:00	4	Temperatura máxima	12.7
97775	7	Sololá	701	Sololá	4	Finca Santa Victoria	3	Marzo	2023-03-27T00:00:00	2024-11-08T23:00:00	3	Temperatura mínima	11.8
97776	7	Sololá	701	Sololá	4	Finca Santa Victoria	3	Marzo	2023-03-27T00:00:00	2024-11-08T23:00:00	5	Humedad	91
97777	7	Sololá	701	Sololá	4	Finca Santa Victoria	3	Marzo	2023-03-27T00:00:00	2024-11-08T23:00:00	6	Velocidad del viento	0
97778	7	Sololá	701	Sololá	4	Finca Santa Victoria	3	Marzo	2023-03-27T00:00:00	2024-11-08T23:00:00	7	Dirección del viento	0
97779	7	Sololá	701	Sololá	4	Finca Santa Victoria	3	Marzo	2023-03-27T00:00:00	2024-11-08T23:00:00	1	Precipitación	0
97780	7	Sololá	701	Sololá	4	Finca Santa Victoria	3	Marzo	2023-03-27T00:00:00	2024-11-08T23:00:00	8	Radiación solar	0
97781	7	Sololá	701	Sololá	4	Finca Santa Victoria	3	Marzo	2023-03-28T00:00:00	2024-11-08T00:00:00	2	Temperatura media	12.3
97782	7	Sololá	701	Sololá	4	Finca Santa Victoria	3	Marzo	2023-03-28T00:00:00	2024-11-08T00:00:00	4	Temperatura máxima	12.4
97783	7	Sololá	701	Sololá	4	Finca Santa Victoria	3	Marzo	2023-03-28T00:00:00	2024-11-08T00:00:00	3	Temperatura mínima	11.8
97784	7	Sololá	701	Sololá	4	Finca Santa Victoria	3	Marzo	2023-03-28T00:00:00	2024-11-08T00:00:00	5	Humedad	88
97785	7	Sololá	701	Sololá	4	Finca Santa Victoria	3	Marzo	2023-03-28T00:00:00	2024-11-08T00:00:00	6	Velocidad del viento	0
97786	7	Sololá	701	Sololá	4	Finca Santa Victoria	3	Marzo	2023-03-28T00:00:00	2024-11-08T00:00:00	7	Dirección del viento	0
97787	7	Sololá	701	Sololá	4	Finca Santa Victoria	3	Marzo	2023-03-28T00:00:00	2024-11-08T00:00:00	1	Precipitación	0
97788	7	Sololá	701	Sololá	4	Finca Santa Victoria	3	Marzo	2023-03-28T00:00:00	2024-11-08T00:00:00	8	Radiación solar	0
97789	7	Sololá	701	Sololá	4	Finca Santa Victoria	3	Marzo	2023-03-28T00:00:00	2024-11-08T01:00:00	2	Temperatura media	11.7
97790	7	Sololá	701	Sololá	4	Finca Santa Victoria	3	Marzo	2023-03-28T00:00:00	2024-11-08T01:00:00	4	Temperatura máxima	12.4
97791	7	Sololá	701	Sololá	4	Finca Santa Victoria	3	Marzo	2023-03-28T00:00:00	2024-11-08T01:00:00	3	Temperatura mínima	11.7
97792	7	Sololá	701	Sololá	4	Finca Santa Victoria	3	Marzo	2023-03-28T00:00:00	2024-11-08T01:00:00	5	Humedad	90
97793	7	Sololá	701	Sololá	4	Finca Santa Victoria	3	Marzo	2023-03-28T00:00:00	2024-11-08T01:00:00	6	Velocidad del viento	0
97794	7	Sololá	701	Sololá	4	Finca Santa Victoria	3	Marzo	2023-03-28T00:00:00	2024-11-08T01:00:00	7	Dirección del viento	0
97795	7	Sololá	701	Sololá	4	Finca Santa Victoria	3	Marzo	2023-03-28T00:00:00	2024-11-08T01:00:00	1	Precipitación	0
97796	7	Sololá	701	Sololá	4	Finca Santa Victoria	3	Marzo	2023-03-28T00:00:00	2024-11-08T01:00:00	8	Radiación solar	0
97797	7	Sololá	701	Sololá	4	Finca Santa Victoria	3	Marzo	2023-03-28T00:00:00	2024-11-08T02:00:00	2	Temperatura media	11.9
97798	7	Sololá	701	Sololá	4	Finca Santa Victoria	3	Marzo	2023-03-28T00:00:00	2024-11-08T02:00:00	4	Temperatura máxima	12
97799	7	Sololá	701	Sololá	4	Finca Santa Victoria	3	Marzo	2023-03-28T00:00:00	2024-11-08T02:00:00	3	Temperatura mínima	11.6
97800	7	Sololá	701	Sololá	4	Finca Santa Victoria	3	Marzo	2023-03-28T00:00:00	2024-11-08T02:00:00	5	Humedad	90
97801	7	Sololá	701	Sololá	4	Finca Santa Victoria	3	Marzo	2023-03-28T00:00:00	2024-11-08T02:00:00	6	Velocidad del viento	0
97802	7	Sololá	701	Sololá	4	Finca Santa Victoria	3	Marzo	2023-03-28T00:00:00	2024-11-08T02:00:00	7	Dirección del viento	0
97803	7	Sololá	701	Sololá	4	Finca Santa Victoria	3	Marzo	2023-03-28T00:00:00	2024-11-08T02:00:00	1	Precipitación	0
97804	7	Sololá	701	Sololá	4	Finca Santa Victoria	3	Marzo	2023-03-28T00:00:00	2024-11-08T02:00:00	8	Radiación solar	0
97805	7	Sololá	701	Sololá	4	Finca Santa Victoria	3	Marzo	2023-03-28T00:00:00	2024-11-08T03:00:00	2	Temperatura media	11.7
97806	7	Sololá	701	Sololá	4	Finca Santa Victoria	3	Marzo	2023-03-28T00:00:00	2024-11-08T03:00:00	4	Temperatura máxima	11.9
97807	7	Sololá	701	Sololá	4	Finca Santa Victoria	3	Marzo	2023-03-28T00:00:00	2024-11-08T03:00:00	3	Temperatura mínima	11.7
97808	7	Sololá	701	Sololá	4	Finca Santa Victoria	3	Marzo	2023-03-28T00:00:00	2024-11-08T03:00:00	5	Humedad	91
97809	7	Sololá	701	Sololá	4	Finca Santa Victoria	3	Marzo	2023-03-28T00:00:00	2024-11-08T03:00:00	6	Velocidad del viento	0
97810	7	Sololá	701	Sololá	4	Finca Santa Victoria	3	Marzo	2023-03-28T00:00:00	2024-11-08T03:00:00	7	Dirección del viento	0
97811	7	Sololá	701	Sololá	4	Finca Santa Victoria	3	Marzo	2023-03-28T00:00:00	2024-11-08T03:00:00	1	Precipitación	0
97812	7	Sololá	701	Sololá	4	Finca Santa Victoria	3	Marzo	2023-03-28T00:00:00	2024-11-08T03:00:00	8	Radiación solar	0
97813	7	Sololá	701	Sololá	4	Finca Santa Victoria	3	Marzo	2023-03-28T00:00:00	2024-11-08T04:00:00	2	Temperatura media	11.7
97814	7	Sololá	701	Sololá	4	Finca Santa Victoria	3	Marzo	2023-03-28T00:00:00	2024-11-08T04:00:00	4	Temperatura máxima	11.9
97815	7	Sololá	701	Sololá	4	Finca Santa Victoria	3	Marzo	2023-03-28T00:00:00	2024-11-08T04:00:00	3	Temperatura mínima	11.6
97816	7	Sololá	701	Sololá	4	Finca Santa Victoria	3	Marzo	2023-03-28T00:00:00	2024-11-08T04:00:00	5	Humedad	90
97817	7	Sololá	701	Sololá	4	Finca Santa Victoria	3	Marzo	2023-03-28T00:00:00	2024-11-08T04:00:00	6	Velocidad del viento	0
97818	7	Sololá	701	Sololá	4	Finca Santa Victoria	3	Marzo	2023-03-28T00:00:00	2024-11-08T04:00:00	7	Dirección del viento	0
97819	7	Sololá	701	Sololá	4	Finca Santa Victoria	3	Marzo	2023-03-28T00:00:00	2024-11-08T04:00:00	1	Precipitación	0
97820	7	Sololá	701	Sololá	4	Finca Santa Victoria	3	Marzo	2023-03-28T00:00:00	2024-11-08T04:00:00	8	Radiación solar	0
97821	7	Sololá	701	Sololá	4	Finca Santa Victoria	3	Marzo	2023-03-28T00:00:00	2024-11-08T05:00:00	2	Temperatura media	12.2
97822	7	Sololá	701	Sololá	4	Finca Santa Victoria	3	Marzo	2023-03-28T00:00:00	2024-11-08T05:00:00	4	Temperatura máxima	12.3
97823	7	Sololá	701	Sololá	4	Finca Santa Victoria	3	Marzo	2023-03-28T00:00:00	2024-11-08T05:00:00	3	Temperatura mínima	11.6
97824	7	Sololá	701	Sololá	4	Finca Santa Victoria	3	Marzo	2023-03-28T00:00:00	2024-11-08T05:00:00	5	Humedad	88
97825	7	Sololá	701	Sololá	4	Finca Santa Victoria	3	Marzo	2023-03-28T00:00:00	2024-11-08T05:00:00	6	Velocidad del viento	0
97826	7	Sololá	701	Sololá	4	Finca Santa Victoria	3	Marzo	2023-03-28T00:00:00	2024-11-08T05:00:00	7	Dirección del viento	0
97827	7	Sololá	701	Sololá	4	Finca Santa Victoria	3	Marzo	2023-03-28T00:00:00	2024-11-08T05:00:00	1	Precipitación	0
97828	7	Sololá	701	Sololá	4	Finca Santa Victoria	3	Marzo	2023-03-28T00:00:00	2024-11-08T05:00:00	8	Radiación solar	0
97829	7	Sololá	701	Sololá	4	Finca Santa Victoria	3	Marzo	2023-03-28T00:00:00	2024-11-08T06:00:00	2	Temperatura media	11.8
97830	7	Sololá	701	Sololá	4	Finca Santa Victoria	3	Marzo	2023-03-28T00:00:00	2024-11-08T06:00:00	4	Temperatura máxima	12.3
97831	7	Sololá	701	Sololá	4	Finca Santa Victoria	3	Marzo	2023-03-28T00:00:00	2024-11-08T06:00:00	3	Temperatura mínima	11.8
97832	7	Sololá	701	Sololá	4	Finca Santa Victoria	3	Marzo	2023-03-28T00:00:00	2024-11-08T06:00:00	5	Humedad	90
97833	7	Sololá	701	Sololá	4	Finca Santa Victoria	3	Marzo	2023-03-28T00:00:00	2024-11-08T06:00:00	6	Velocidad del viento	0
97834	7	Sololá	701	Sololá	4	Finca Santa Victoria	3	Marzo	2023-03-28T00:00:00	2024-11-08T06:00:00	7	Dirección del viento	0
97835	7	Sololá	701	Sololá	4	Finca Santa Victoria	3	Marzo	2023-03-28T00:00:00	2024-11-08T06:00:00	1	Precipitación	0
97836	7	Sololá	701	Sololá	4	Finca Santa Victoria	3	Marzo	2023-03-28T00:00:00	2024-11-08T06:00:00	8	Radiación solar	0
97837	7	Sololá	701	Sololá	4	Finca Santa Victoria	3	Marzo	2023-03-28T00:00:00	2024-11-08T07:00:00	2	Temperatura media	12.3
97838	7	Sololá	701	Sololá	4	Finca Santa Victoria	3	Marzo	2023-03-28T00:00:00	2024-11-08T07:00:00	4	Temperatura máxima	12.3
97839	7	Sololá	701	Sololá	4	Finca Santa Victoria	3	Marzo	2023-03-28T00:00:00	2024-11-08T07:00:00	3	Temperatura mínima	11.8
97840	7	Sololá	701	Sololá	4	Finca Santa Victoria	3	Marzo	2023-03-28T00:00:00	2024-11-08T07:00:00	5	Humedad	91
97841	7	Sololá	701	Sololá	4	Finca Santa Victoria	3	Marzo	2023-03-28T00:00:00	2024-11-08T07:00:00	6	Velocidad del viento	0
97842	7	Sololá	701	Sololá	4	Finca Santa Victoria	3	Marzo	2023-03-28T00:00:00	2024-11-08T07:00:00	7	Dirección del viento	0
97843	7	Sololá	701	Sololá	4	Finca Santa Victoria	3	Marzo	2023-03-28T00:00:00	2024-11-08T07:00:00	1	Precipitación	0
97844	7	Sololá	701	Sololá	4	Finca Santa Victoria	3	Marzo	2023-03-28T00:00:00	2024-11-08T07:00:00	8	Radiación solar	25
97845	7	Sololá	701	Sololá	4	Finca Santa Victoria	3	Marzo	2023-03-28T00:00:00	2024-11-08T08:00:00	2	Temperatura media	15.1
97846	7	Sololá	701	Sololá	4	Finca Santa Victoria	3	Marzo	2023-03-28T00:00:00	2024-11-08T08:00:00	4	Temperatura máxima	15.1
97847	7	Sololá	701	Sololá	4	Finca Santa Victoria	3	Marzo	2023-03-28T00:00:00	2024-11-08T08:00:00	3	Temperatura mínima	12.3
97848	7	Sololá	701	Sololá	4	Finca Santa Victoria	3	Marzo	2023-03-28T00:00:00	2024-11-08T08:00:00	5	Humedad	86
97849	7	Sololá	701	Sololá	4	Finca Santa Victoria	3	Marzo	2023-03-28T00:00:00	2024-11-08T08:00:00	6	Velocidad del viento	0
97850	7	Sololá	701	Sololá	4	Finca Santa Victoria	3	Marzo	2023-03-28T00:00:00	2024-11-08T08:00:00	7	Dirección del viento	0
97851	7	Sololá	701	Sololá	4	Finca Santa Victoria	3	Marzo	2023-03-28T00:00:00	2024-11-08T08:00:00	1	Precipitación	0
97852	7	Sololá	701	Sololá	4	Finca Santa Victoria	3	Marzo	2023-03-28T00:00:00	2024-11-08T08:00:00	8	Radiación solar	228
97853	7	Sololá	701	Sololá	4	Finca Santa Victoria	3	Marzo	2023-03-28T00:00:00	2024-11-08T09:00:00	2	Temperatura media	16.8
97854	7	Sololá	701	Sololá	4	Finca Santa Victoria	3	Marzo	2023-03-28T00:00:00	2024-11-08T09:00:00	4	Temperatura máxima	16.9
97855	7	Sololá	701	Sololá	4	Finca Santa Victoria	3	Marzo	2023-03-28T00:00:00	2024-11-08T09:00:00	3	Temperatura mínima	15.1
97856	7	Sololá	701	Sololá	4	Finca Santa Victoria	3	Marzo	2023-03-28T00:00:00	2024-11-08T09:00:00	5	Humedad	75
97857	7	Sololá	701	Sololá	4	Finca Santa Victoria	3	Marzo	2023-03-28T00:00:00	2024-11-08T09:00:00	6	Velocidad del viento	1.6
97858	7	Sololá	701	Sololá	4	Finca Santa Victoria	3	Marzo	2023-03-28T00:00:00	2024-11-08T09:00:00	7	Dirección del viento	1.61
97859	7	Sololá	701	Sololá	4	Finca Santa Victoria	3	Marzo	2023-03-28T00:00:00	2024-11-08T09:00:00	1	Precipitación	0
97860	7	Sololá	701	Sololá	4	Finca Santa Victoria	3	Marzo	2023-03-28T00:00:00	2024-11-08T09:00:00	8	Radiación solar	510
97861	7	Sololá	701	Sololá	4	Finca Santa Victoria	3	Marzo	2023-03-28T00:00:00	2024-11-08T10:00:00	2	Temperatura media	18.1
97862	7	Sololá	701	Sololá	4	Finca Santa Victoria	3	Marzo	2023-03-28T00:00:00	2024-11-08T10:00:00	4	Temperatura máxima	18.1
97863	7	Sololá	701	Sololá	4	Finca Santa Victoria	3	Marzo	2023-03-28T00:00:00	2024-11-08T10:00:00	3	Temperatura mínima	16.2
97864	7	Sololá	701	Sololá	4	Finca Santa Victoria	3	Marzo	2023-03-28T00:00:00	2024-11-08T10:00:00	5	Humedad	77
97865	7	Sololá	701	Sololá	4	Finca Santa Victoria	3	Marzo	2023-03-28T00:00:00	2024-11-08T10:00:00	6	Velocidad del viento	1.6
97866	7	Sololá	701	Sololá	4	Finca Santa Victoria	3	Marzo	2023-03-28T00:00:00	2024-11-08T10:00:00	7	Dirección del viento	1.61
97867	7	Sololá	701	Sololá	4	Finca Santa Victoria	3	Marzo	2023-03-28T00:00:00	2024-11-08T10:00:00	1	Precipitación	0
97868	7	Sololá	701	Sololá	4	Finca Santa Victoria	3	Marzo	2023-03-28T00:00:00	2024-11-08T10:00:00	8	Radiación solar	352
97869	7	Sololá	701	Sololá	4	Finca Santa Victoria	3	Marzo	2023-03-28T00:00:00	2024-11-08T11:00:00	2	Temperatura media	18.5
97870	7	Sololá	701	Sololá	4	Finca Santa Victoria	3	Marzo	2023-03-28T00:00:00	2024-11-08T11:00:00	4	Temperatura máxima	18.8
97871	7	Sololá	701	Sololá	4	Finca Santa Victoria	3	Marzo	2023-03-28T00:00:00	2024-11-08T11:00:00	3	Temperatura mínima	17.6
97872	7	Sololá	701	Sololá	4	Finca Santa Victoria	3	Marzo	2023-03-28T00:00:00	2024-11-08T11:00:00	5	Humedad	73
97873	7	Sololá	701	Sololá	4	Finca Santa Victoria	3	Marzo	2023-03-28T00:00:00	2024-11-08T11:00:00	6	Velocidad del viento	3.2
97874	7	Sololá	701	Sololá	4	Finca Santa Victoria	3	Marzo	2023-03-28T00:00:00	2024-11-08T11:00:00	7	Dirección del viento	3.22
97875	7	Sololá	701	Sololá	4	Finca Santa Victoria	3	Marzo	2023-03-28T00:00:00	2024-11-08T11:00:00	1	Precipitación	0
97876	7	Sololá	701	Sololá	4	Finca Santa Victoria	3	Marzo	2023-03-28T00:00:00	2024-11-08T11:00:00	8	Radiación solar	394
97877	7	Sololá	701	Sololá	4	Finca Santa Victoria	3	Marzo	2023-03-28T00:00:00	2024-11-08T12:00:00	2	Temperatura media	19.1
97878	7	Sololá	701	Sololá	4	Finca Santa Victoria	3	Marzo	2023-03-28T00:00:00	2024-11-08T12:00:00	4	Temperatura máxima	19.8
97879	7	Sololá	701	Sololá	4	Finca Santa Victoria	3	Marzo	2023-03-28T00:00:00	2024-11-08T12:00:00	3	Temperatura mínima	18.5
97880	7	Sololá	701	Sololá	4	Finca Santa Victoria	3	Marzo	2023-03-28T00:00:00	2024-11-08T12:00:00	5	Humedad	78
97881	7	Sololá	701	Sololá	4	Finca Santa Victoria	3	Marzo	2023-03-28T00:00:00	2024-11-08T12:00:00	6	Velocidad del viento	4.8
97882	7	Sololá	701	Sololá	4	Finca Santa Victoria	3	Marzo	2023-03-28T00:00:00	2024-11-08T12:00:00	7	Dirección del viento	4.83
97883	7	Sololá	701	Sololá	4	Finca Santa Victoria	3	Marzo	2023-03-28T00:00:00	2024-11-08T12:00:00	1	Precipitación	0
97884	7	Sololá	701	Sololá	4	Finca Santa Victoria	3	Marzo	2023-03-28T00:00:00	2024-11-08T12:00:00	8	Radiación solar	938
97885	7	Sololá	701	Sololá	4	Finca Santa Victoria	3	Marzo	2023-03-28T00:00:00	2024-11-08T13:00:00	2	Temperatura media	17.4
97886	7	Sololá	701	Sololá	4	Finca Santa Victoria	3	Marzo	2023-03-28T00:00:00	2024-11-08T13:00:00	4	Temperatura máxima	19.4
97887	7	Sololá	701	Sololá	4	Finca Santa Victoria	3	Marzo	2023-03-28T00:00:00	2024-11-08T13:00:00	3	Temperatura mínima	17.3
97888	7	Sololá	701	Sololá	4	Finca Santa Victoria	3	Marzo	2023-03-28T00:00:00	2024-11-08T13:00:00	5	Humedad	83
97889	7	Sololá	701	Sololá	4	Finca Santa Victoria	3	Marzo	2023-03-28T00:00:00	2024-11-08T13:00:00	6	Velocidad del viento	4.8
97890	7	Sololá	701	Sololá	4	Finca Santa Victoria	3	Marzo	2023-03-28T00:00:00	2024-11-08T13:00:00	7	Dirección del viento	4.83
97891	7	Sololá	701	Sololá	4	Finca Santa Victoria	3	Marzo	2023-03-28T00:00:00	2024-11-08T13:00:00	1	Precipitación	0
97892	7	Sololá	701	Sololá	4	Finca Santa Victoria	3	Marzo	2023-03-28T00:00:00	2024-11-08T13:00:00	8	Radiación solar	441
97893	7	Sololá	701	Sololá	4	Finca Santa Victoria	3	Marzo	2023-03-28T00:00:00	2024-11-08T14:00:00	2	Temperatura media	16.9
97894	7	Sololá	701	Sololá	4	Finca Santa Victoria	3	Marzo	2023-03-28T00:00:00	2024-11-08T14:00:00	4	Temperatura máxima	17.8
97895	7	Sololá	701	Sololá	4	Finca Santa Victoria	3	Marzo	2023-03-28T00:00:00	2024-11-08T14:00:00	3	Temperatura mínima	16.9
97896	7	Sololá	701	Sololá	4	Finca Santa Victoria	3	Marzo	2023-03-28T00:00:00	2024-11-08T14:00:00	5	Humedad	85
97897	7	Sololá	701	Sololá	4	Finca Santa Victoria	3	Marzo	2023-03-28T00:00:00	2024-11-08T14:00:00	6	Velocidad del viento	4.8
97898	7	Sololá	701	Sololá	4	Finca Santa Victoria	3	Marzo	2023-03-28T00:00:00	2024-11-08T14:00:00	7	Dirección del viento	4.83
97899	7	Sololá	701	Sololá	4	Finca Santa Victoria	3	Marzo	2023-03-28T00:00:00	2024-11-08T14:00:00	1	Precipitación	0
97900	7	Sololá	701	Sololá	4	Finca Santa Victoria	3	Marzo	2023-03-28T00:00:00	2024-11-08T14:00:00	8	Radiación solar	278
97901	7	Sololá	701	Sololá	4	Finca Santa Victoria	3	Marzo	2023-03-28T00:00:00	2024-11-08T15:00:00	2	Temperatura media	17.7
97902	7	Sololá	701	Sololá	4	Finca Santa Victoria	3	Marzo	2023-03-28T00:00:00	2024-11-08T15:00:00	4	Temperatura máxima	18.7
97903	7	Sololá	701	Sololá	4	Finca Santa Victoria	3	Marzo	2023-03-28T00:00:00	2024-11-08T15:00:00	3	Temperatura mínima	16.8
97904	7	Sololá	701	Sololá	4	Finca Santa Victoria	3	Marzo	2023-03-28T00:00:00	2024-11-08T15:00:00	5	Humedad	83
97905	7	Sololá	701	Sololá	4	Finca Santa Victoria	3	Marzo	2023-03-28T00:00:00	2024-11-08T15:00:00	6	Velocidad del viento	4.8
97906	7	Sololá	701	Sololá	4	Finca Santa Victoria	3	Marzo	2023-03-28T00:00:00	2024-11-08T15:00:00	7	Dirección del viento	4.83
97907	7	Sololá	701	Sololá	4	Finca Santa Victoria	3	Marzo	2023-03-28T00:00:00	2024-11-08T15:00:00	1	Precipitación	0
97908	7	Sololá	701	Sololá	4	Finca Santa Victoria	3	Marzo	2023-03-28T00:00:00	2024-11-08T15:00:00	8	Radiación solar	275
97909	7	Sololá	701	Sololá	4	Finca Santa Victoria	3	Marzo	2023-03-28T00:00:00	2024-11-08T16:00:00	2	Temperatura media	16.9
97910	7	Sololá	701	Sololá	4	Finca Santa Victoria	3	Marzo	2023-03-28T00:00:00	2024-11-08T16:00:00	4	Temperatura máxima	18.7
97911	7	Sololá	701	Sololá	4	Finca Santa Victoria	3	Marzo	2023-03-28T00:00:00	2024-11-08T16:00:00	3	Temperatura mínima	16.9
97912	7	Sololá	701	Sololá	4	Finca Santa Victoria	3	Marzo	2023-03-28T00:00:00	2024-11-08T16:00:00	5	Humedad	88
97913	7	Sololá	701	Sololá	4	Finca Santa Victoria	3	Marzo	2023-03-28T00:00:00	2024-11-08T16:00:00	6	Velocidad del viento	4.8
97914	7	Sololá	701	Sololá	4	Finca Santa Victoria	3	Marzo	2023-03-28T00:00:00	2024-11-08T16:00:00	7	Dirección del viento	4.83
97915	7	Sololá	701	Sololá	4	Finca Santa Victoria	3	Marzo	2023-03-28T00:00:00	2024-11-08T16:00:00	1	Precipitación	0
97916	7	Sololá	701	Sololá	4	Finca Santa Victoria	3	Marzo	2023-03-28T00:00:00	2024-11-08T16:00:00	8	Radiación solar	215
97917	7	Sololá	701	Sololá	4	Finca Santa Victoria	3	Marzo	2023-03-28T00:00:00	2024-11-08T17:00:00	2	Temperatura media	16.2
97918	7	Sololá	701	Sololá	4	Finca Santa Victoria	3	Marzo	2023-03-28T00:00:00	2024-11-08T17:00:00	4	Temperatura máxima	17
97919	7	Sololá	701	Sololá	4	Finca Santa Victoria	3	Marzo	2023-03-28T00:00:00	2024-11-08T17:00:00	3	Temperatura mínima	16.2
97920	7	Sololá	701	Sololá	4	Finca Santa Victoria	3	Marzo	2023-03-28T00:00:00	2024-11-08T17:00:00	5	Humedad	91
97921	7	Sololá	701	Sololá	4	Finca Santa Victoria	3	Marzo	2023-03-28T00:00:00	2024-11-08T17:00:00	6	Velocidad del viento	3.2
97922	7	Sololá	701	Sololá	4	Finca Santa Victoria	3	Marzo	2023-03-28T00:00:00	2024-11-08T17:00:00	7	Dirección del viento	3.22
97923	7	Sololá	701	Sololá	4	Finca Santa Victoria	3	Marzo	2023-03-28T00:00:00	2024-11-08T17:00:00	1	Precipitación	0
97924	7	Sololá	701	Sololá	4	Finca Santa Victoria	3	Marzo	2023-03-28T00:00:00	2024-11-08T17:00:00	8	Radiación solar	90
97925	7	Sololá	701	Sololá	4	Finca Santa Victoria	3	Marzo	2023-03-28T00:00:00	2024-11-08T18:00:00	2	Temperatura media	15.6
97926	7	Sololá	701	Sololá	4	Finca Santa Victoria	3	Marzo	2023-03-28T00:00:00	2024-11-08T18:00:00	4	Temperatura máxima	16.3
97927	7	Sololá	701	Sololá	4	Finca Santa Victoria	3	Marzo	2023-03-28T00:00:00	2024-11-08T18:00:00	3	Temperatura mínima	15.6
97928	7	Sololá	701	Sololá	4	Finca Santa Victoria	3	Marzo	2023-03-28T00:00:00	2024-11-08T18:00:00	5	Humedad	93
97929	7	Sololá	701	Sololá	4	Finca Santa Victoria	3	Marzo	2023-03-28T00:00:00	2024-11-08T18:00:00	6	Velocidad del viento	1.6
97930	7	Sololá	701	Sololá	4	Finca Santa Victoria	3	Marzo	2023-03-28T00:00:00	2024-11-08T18:00:00	7	Dirección del viento	1.61
97931	7	Sololá	701	Sololá	4	Finca Santa Victoria	3	Marzo	2023-03-28T00:00:00	2024-11-08T18:00:00	1	Precipitación	0
97932	7	Sololá	701	Sololá	4	Finca Santa Victoria	3	Marzo	2023-03-28T00:00:00	2024-11-08T18:00:00	8	Radiación solar	47
97933	7	Sololá	701	Sololá	4	Finca Santa Victoria	3	Marzo	2023-03-28T00:00:00	2024-11-08T19:00:00	2	Temperatura media	14.7
97934	7	Sololá	701	Sololá	4	Finca Santa Victoria	3	Marzo	2023-03-28T00:00:00	2024-11-08T19:00:00	4	Temperatura máxima	15.6
97935	7	Sololá	701	Sololá	4	Finca Santa Victoria	3	Marzo	2023-03-28T00:00:00	2024-11-08T19:00:00	3	Temperatura mínima	14.7
97936	7	Sololá	701	Sololá	4	Finca Santa Victoria	3	Marzo	2023-03-28T00:00:00	2024-11-08T19:00:00	5	Humedad	95
97937	7	Sololá	701	Sololá	4	Finca Santa Victoria	3	Marzo	2023-03-28T00:00:00	2024-11-08T19:00:00	6	Velocidad del viento	0
97938	7	Sololá	701	Sololá	4	Finca Santa Victoria	3	Marzo	2023-03-28T00:00:00	2024-11-08T19:00:00	7	Dirección del viento	0
97939	7	Sololá	701	Sololá	4	Finca Santa Victoria	3	Marzo	2023-03-28T00:00:00	2024-11-08T19:00:00	1	Precipitación	0
97940	7	Sololá	701	Sololá	4	Finca Santa Victoria	3	Marzo	2023-03-28T00:00:00	2024-11-08T19:00:00	8	Radiación solar	0
97941	7	Sololá	701	Sololá	4	Finca Santa Victoria	3	Marzo	2023-03-28T00:00:00	2024-11-08T20:00:00	2	Temperatura media	14.6
97942	7	Sololá	701	Sololá	4	Finca Santa Victoria	3	Marzo	2023-03-28T00:00:00	2024-11-08T20:00:00	4	Temperatura máxima	14.7
97943	7	Sololá	701	Sololá	4	Finca Santa Victoria	3	Marzo	2023-03-28T00:00:00	2024-11-08T20:00:00	3	Temperatura mínima	14.5
97944	7	Sololá	701	Sololá	4	Finca Santa Victoria	3	Marzo	2023-03-28T00:00:00	2024-11-08T20:00:00	5	Humedad	88
97945	7	Sololá	701	Sololá	4	Finca Santa Victoria	3	Marzo	2023-03-28T00:00:00	2024-11-08T20:00:00	6	Velocidad del viento	0
97946	7	Sololá	701	Sololá	4	Finca Santa Victoria	3	Marzo	2023-03-28T00:00:00	2024-11-08T20:00:00	7	Dirección del viento	0
97947	7	Sololá	701	Sololá	4	Finca Santa Victoria	3	Marzo	2023-03-28T00:00:00	2024-11-08T20:00:00	1	Precipitación	0
97948	7	Sololá	701	Sololá	4	Finca Santa Victoria	3	Marzo	2023-03-28T00:00:00	2024-11-08T20:00:00	8	Radiación solar	0
97949	7	Sololá	701	Sololá	4	Finca Santa Victoria	3	Marzo	2023-03-28T00:00:00	2024-11-08T21:00:00	2	Temperatura media	14.8
97950	7	Sololá	701	Sololá	4	Finca Santa Victoria	3	Marzo	2023-03-28T00:00:00	2024-11-08T21:00:00	4	Temperatura máxima	15.1
97951	7	Sololá	701	Sololá	4	Finca Santa Victoria	3	Marzo	2023-03-28T00:00:00	2024-11-08T21:00:00	3	Temperatura mínima	14.6
97952	7	Sololá	701	Sololá	4	Finca Santa Victoria	3	Marzo	2023-03-28T00:00:00	2024-11-08T21:00:00	5	Humedad	84
97953	7	Sololá	701	Sololá	4	Finca Santa Victoria	3	Marzo	2023-03-28T00:00:00	2024-11-08T21:00:00	6	Velocidad del viento	1.6
97954	7	Sololá	701	Sololá	4	Finca Santa Victoria	3	Marzo	2023-03-28T00:00:00	2024-11-08T21:00:00	7	Dirección del viento	1.61
97955	7	Sololá	701	Sololá	4	Finca Santa Victoria	3	Marzo	2023-03-28T00:00:00	2024-11-08T21:00:00	1	Precipitación	0
97956	7	Sololá	701	Sololá	4	Finca Santa Victoria	3	Marzo	2023-03-28T00:00:00	2024-11-08T21:00:00	8	Radiación solar	0
97957	7	Sololá	701	Sololá	4	Finca Santa Victoria	3	Marzo	2023-03-28T00:00:00	2024-11-08T22:00:00	2	Temperatura media	14.3
97958	7	Sololá	701	Sololá	4	Finca Santa Victoria	3	Marzo	2023-03-28T00:00:00	2024-11-08T22:00:00	4	Temperatura máxima	14.8
97959	7	Sololá	701	Sololá	4	Finca Santa Victoria	3	Marzo	2023-03-28T00:00:00	2024-11-08T22:00:00	3	Temperatura mínima	14.3
97960	7	Sololá	701	Sololá	4	Finca Santa Victoria	3	Marzo	2023-03-28T00:00:00	2024-11-08T22:00:00	5	Humedad	83
97961	7	Sololá	701	Sololá	4	Finca Santa Victoria	3	Marzo	2023-03-28T00:00:00	2024-11-08T22:00:00	6	Velocidad del viento	1.6
97962	7	Sololá	701	Sololá	4	Finca Santa Victoria	3	Marzo	2023-03-28T00:00:00	2024-11-08T22:00:00	7	Dirección del viento	1.61
97963	7	Sololá	701	Sololá	4	Finca Santa Victoria	3	Marzo	2023-03-28T00:00:00	2024-11-08T22:00:00	1	Precipitación	0
97964	7	Sololá	701	Sololá	4	Finca Santa Victoria	3	Marzo	2023-03-28T00:00:00	2024-11-08T22:00:00	8	Radiación solar	0
97965	7	Sololá	701	Sololá	4	Finca Santa Victoria	3	Marzo	2023-03-28T00:00:00	2024-11-08T23:00:00	2	Temperatura media	14.1
97966	7	Sololá	701	Sololá	4	Finca Santa Victoria	3	Marzo	2023-03-28T00:00:00	2024-11-08T23:00:00	4	Temperatura máxima	14.3
97967	7	Sololá	701	Sololá	4	Finca Santa Victoria	3	Marzo	2023-03-28T00:00:00	2024-11-08T23:00:00	3	Temperatura mínima	13.9
97968	7	Sololá	701	Sololá	4	Finca Santa Victoria	3	Marzo	2023-03-28T00:00:00	2024-11-08T23:00:00	5	Humedad	72
97969	7	Sololá	701	Sololá	4	Finca Santa Victoria	3	Marzo	2023-03-28T00:00:00	2024-11-08T23:00:00	6	Velocidad del viento	3.2
97970	7	Sololá	701	Sololá	4	Finca Santa Victoria	3	Marzo	2023-03-28T00:00:00	2024-11-08T23:00:00	7	Dirección del viento	3.22
97971	7	Sololá	701	Sololá	4	Finca Santa Victoria	3	Marzo	2023-03-28T00:00:00	2024-11-08T23:00:00	1	Precipitación	0
97972	7	Sololá	701	Sololá	4	Finca Santa Victoria	3	Marzo	2023-03-28T00:00:00	2024-11-08T23:00:00	8	Radiación solar	0
97973	7	Sololá	701	Sololá	4	Finca Santa Victoria	3	Marzo	2023-03-29T00:00:00	2024-11-08T00:00:00	2	Temperatura media	13.6
97974	7	Sololá	701	Sololá	4	Finca Santa Victoria	3	Marzo	2023-03-29T00:00:00	2024-11-08T00:00:00	4	Temperatura máxima	14.2
97975	7	Sololá	701	Sololá	4	Finca Santa Victoria	3	Marzo	2023-03-29T00:00:00	2024-11-08T00:00:00	3	Temperatura mínima	13.4
97976	7	Sololá	701	Sololá	4	Finca Santa Victoria	3	Marzo	2023-03-29T00:00:00	2024-11-08T00:00:00	5	Humedad	72
97977	7	Sololá	701	Sololá	4	Finca Santa Victoria	3	Marzo	2023-03-29T00:00:00	2024-11-08T00:00:00	6	Velocidad del viento	3.2
97978	7	Sololá	701	Sololá	4	Finca Santa Victoria	3	Marzo	2023-03-29T00:00:00	2024-11-08T00:00:00	7	Dirección del viento	3.22
97979	7	Sololá	701	Sololá	4	Finca Santa Victoria	3	Marzo	2023-03-29T00:00:00	2024-11-08T00:00:00	1	Precipitación	0
97980	7	Sololá	701	Sololá	4	Finca Santa Victoria	3	Marzo	2023-03-29T00:00:00	2024-11-08T00:00:00	8	Radiación solar	0
97981	7	Sololá	701	Sololá	4	Finca Santa Victoria	3	Marzo	2023-03-29T00:00:00	2024-11-08T01:00:00	2	Temperatura media	12.9
97982	7	Sololá	701	Sololá	4	Finca Santa Victoria	3	Marzo	2023-03-29T00:00:00	2024-11-08T01:00:00	4	Temperatura máxima	13.8
97983	7	Sololá	701	Sololá	4	Finca Santa Victoria	3	Marzo	2023-03-29T00:00:00	2024-11-08T01:00:00	3	Temperatura mínima	12.9
97984	7	Sololá	701	Sololá	4	Finca Santa Victoria	3	Marzo	2023-03-29T00:00:00	2024-11-08T01:00:00	5	Humedad	77
97985	7	Sololá	701	Sololá	4	Finca Santa Victoria	3	Marzo	2023-03-29T00:00:00	2024-11-08T01:00:00	6	Velocidad del viento	3.2
97986	7	Sololá	701	Sololá	4	Finca Santa Victoria	3	Marzo	2023-03-29T00:00:00	2024-11-08T01:00:00	7	Dirección del viento	3.22
97987	7	Sololá	701	Sololá	4	Finca Santa Victoria	3	Marzo	2023-03-29T00:00:00	2024-11-08T01:00:00	1	Precipitación	0
97988	7	Sololá	701	Sololá	4	Finca Santa Victoria	3	Marzo	2023-03-29T00:00:00	2024-11-08T01:00:00	8	Radiación solar	0
97989	7	Sololá	701	Sololá	4	Finca Santa Victoria	3	Marzo	2023-03-29T00:00:00	2024-11-08T02:00:00	2	Temperatura media	12.4
97990	7	Sololá	701	Sololá	4	Finca Santa Victoria	3	Marzo	2023-03-29T00:00:00	2024-11-08T02:00:00	4	Temperatura máxima	13
97991	7	Sololá	701	Sololá	4	Finca Santa Victoria	3	Marzo	2023-03-29T00:00:00	2024-11-08T02:00:00	3	Temperatura mínima	12.4
97992	7	Sololá	701	Sololá	4	Finca Santa Victoria	3	Marzo	2023-03-29T00:00:00	2024-11-08T02:00:00	5	Humedad	80
97993	7	Sololá	701	Sololá	4	Finca Santa Victoria	3	Marzo	2023-03-29T00:00:00	2024-11-08T02:00:00	6	Velocidad del viento	1.6
97994	7	Sololá	701	Sololá	4	Finca Santa Victoria	3	Marzo	2023-03-29T00:00:00	2024-11-08T02:00:00	7	Dirección del viento	1.61
97995	7	Sololá	701	Sololá	4	Finca Santa Victoria	3	Marzo	2023-03-29T00:00:00	2024-11-08T02:00:00	1	Precipitación	0
97996	7	Sololá	701	Sololá	4	Finca Santa Victoria	3	Marzo	2023-03-29T00:00:00	2024-11-08T02:00:00	8	Radiación solar	0
97997	7	Sololá	701	Sololá	4	Finca Santa Victoria	3	Marzo	2023-03-29T00:00:00	2024-11-08T03:00:00	2	Temperatura media	11.9
97998	7	Sololá	701	Sololá	4	Finca Santa Victoria	3	Marzo	2023-03-29T00:00:00	2024-11-08T03:00:00	4	Temperatura máxima	12.4
97999	7	Sololá	701	Sololá	4	Finca Santa Victoria	3	Marzo	2023-03-29T00:00:00	2024-11-08T03:00:00	3	Temperatura mínima	11.9
98000	7	Sololá	701	Sololá	4	Finca Santa Victoria	3	Marzo	2023-03-29T00:00:00	2024-11-08T03:00:00	5	Humedad	80
98001	7	Sololá	701	Sololá	4	Finca Santa Victoria	3	Marzo	2023-03-29T00:00:00	2024-11-08T03:00:00	6	Velocidad del viento	1.6
98002	7	Sololá	701	Sololá	4	Finca Santa Victoria	3	Marzo	2023-03-29T00:00:00	2024-11-08T03:00:00	7	Dirección del viento	1.61
98003	7	Sololá	701	Sololá	4	Finca Santa Victoria	3	Marzo	2023-03-29T00:00:00	2024-11-08T03:00:00	1	Precipitación	0
98004	7	Sololá	701	Sololá	4	Finca Santa Victoria	3	Marzo	2023-03-29T00:00:00	2024-11-08T03:00:00	8	Radiación solar	0
98005	7	Sololá	701	Sololá	4	Finca Santa Victoria	3	Marzo	2023-03-29T00:00:00	2024-11-08T04:00:00	2	Temperatura media	11.7
98006	7	Sololá	701	Sololá	4	Finca Santa Victoria	3	Marzo	2023-03-29T00:00:00	2024-11-08T04:00:00	4	Temperatura máxima	11.9
98007	7	Sololá	701	Sololá	4	Finca Santa Victoria	3	Marzo	2023-03-29T00:00:00	2024-11-08T04:00:00	3	Temperatura mínima	11.3
98008	7	Sololá	701	Sololá	4	Finca Santa Victoria	3	Marzo	2023-03-29T00:00:00	2024-11-08T04:00:00	5	Humedad	81
98009	7	Sololá	701	Sololá	4	Finca Santa Victoria	3	Marzo	2023-03-29T00:00:00	2024-11-08T04:00:00	6	Velocidad del viento	1.6
98010	7	Sololá	701	Sololá	4	Finca Santa Victoria	3	Marzo	2023-03-29T00:00:00	2024-11-08T04:00:00	7	Dirección del viento	1.61
98011	7	Sololá	701	Sololá	4	Finca Santa Victoria	3	Marzo	2023-03-29T00:00:00	2024-11-08T04:00:00	1	Precipitación	0
98012	7	Sololá	701	Sololá	4	Finca Santa Victoria	3	Marzo	2023-03-29T00:00:00	2024-11-08T04:00:00	8	Radiación solar	0
98013	7	Sololá	701	Sololá	4	Finca Santa Victoria	3	Marzo	2023-03-29T00:00:00	2024-11-08T05:00:00	2	Temperatura media	11.6
98014	7	Sololá	701	Sololá	4	Finca Santa Victoria	3	Marzo	2023-03-29T00:00:00	2024-11-08T05:00:00	4	Temperatura máxima	12.2
98015	7	Sololá	701	Sololá	4	Finca Santa Victoria	3	Marzo	2023-03-29T00:00:00	2024-11-08T05:00:00	3	Temperatura mínima	11.6
98016	7	Sololá	701	Sololá	4	Finca Santa Victoria	3	Marzo	2023-03-29T00:00:00	2024-11-08T05:00:00	5	Humedad	82
98017	7	Sololá	701	Sololá	4	Finca Santa Victoria	3	Marzo	2023-03-29T00:00:00	2024-11-08T05:00:00	6	Velocidad del viento	3.2
98018	7	Sololá	701	Sololá	4	Finca Santa Victoria	3	Marzo	2023-03-29T00:00:00	2024-11-08T05:00:00	7	Dirección del viento	3.22
98019	7	Sololá	701	Sololá	4	Finca Santa Victoria	3	Marzo	2023-03-29T00:00:00	2024-11-08T05:00:00	1	Precipitación	0
98020	7	Sololá	701	Sololá	4	Finca Santa Victoria	3	Marzo	2023-03-29T00:00:00	2024-11-08T05:00:00	8	Radiación solar	0
98021	7	Sololá	701	Sololá	4	Finca Santa Victoria	3	Marzo	2023-03-29T00:00:00	2024-11-08T06:00:00	2	Temperatura media	11.7
98022	7	Sololá	701	Sololá	4	Finca Santa Victoria	3	Marzo	2023-03-29T00:00:00	2024-11-08T06:00:00	4	Temperatura máxima	11.8
98023	7	Sololá	701	Sololá	4	Finca Santa Victoria	3	Marzo	2023-03-29T00:00:00	2024-11-08T06:00:00	3	Temperatura mínima	11.2
98024	7	Sololá	701	Sololá	4	Finca Santa Victoria	3	Marzo	2023-03-29T00:00:00	2024-11-08T06:00:00	5	Humedad	81
98025	7	Sololá	701	Sololá	4	Finca Santa Victoria	3	Marzo	2023-03-29T00:00:00	2024-11-08T06:00:00	6	Velocidad del viento	3.2
98026	7	Sololá	701	Sololá	4	Finca Santa Victoria	3	Marzo	2023-03-29T00:00:00	2024-11-08T06:00:00	7	Dirección del viento	3.22
98027	7	Sololá	701	Sololá	4	Finca Santa Victoria	3	Marzo	2023-03-29T00:00:00	2024-11-08T06:00:00	1	Precipitación	0
98028	7	Sololá	701	Sololá	4	Finca Santa Victoria	3	Marzo	2023-03-29T00:00:00	2024-11-08T06:00:00	8	Radiación solar	0
98029	7	Sololá	701	Sololá	4	Finca Santa Victoria	3	Marzo	2023-03-29T00:00:00	2024-11-08T07:00:00	2	Temperatura media	12.4
98030	7	Sololá	701	Sololá	4	Finca Santa Victoria	3	Marzo	2023-03-29T00:00:00	2024-11-08T07:00:00	4	Temperatura máxima	12.4
98031	7	Sololá	701	Sololá	4	Finca Santa Victoria	3	Marzo	2023-03-29T00:00:00	2024-11-08T07:00:00	3	Temperatura mínima	11.4
98032	7	Sololá	701	Sololá	4	Finca Santa Victoria	3	Marzo	2023-03-29T00:00:00	2024-11-08T07:00:00	5	Humedad	82
98033	7	Sololá	701	Sololá	4	Finca Santa Victoria	3	Marzo	2023-03-29T00:00:00	2024-11-08T07:00:00	6	Velocidad del viento	3.2
98034	7	Sololá	701	Sololá	4	Finca Santa Victoria	3	Marzo	2023-03-29T00:00:00	2024-11-08T07:00:00	7	Dirección del viento	3.22
98035	7	Sololá	701	Sololá	4	Finca Santa Victoria	3	Marzo	2023-03-29T00:00:00	2024-11-08T07:00:00	1	Precipitación	0
98036	7	Sololá	701	Sololá	4	Finca Santa Victoria	3	Marzo	2023-03-29T00:00:00	2024-11-08T07:00:00	8	Radiación solar	14
98037	7	Sololá	701	Sololá	4	Finca Santa Victoria	3	Marzo	2023-03-29T00:00:00	2024-11-08T08:00:00	2	Temperatura media	14.2
98038	7	Sololá	701	Sololá	4	Finca Santa Victoria	3	Marzo	2023-03-29T00:00:00	2024-11-08T08:00:00	4	Temperatura máxima	14.2
98039	7	Sololá	701	Sololá	4	Finca Santa Victoria	3	Marzo	2023-03-29T00:00:00	2024-11-08T08:00:00	3	Temperatura mínima	12.4
98040	7	Sololá	701	Sololá	4	Finca Santa Victoria	3	Marzo	2023-03-29T00:00:00	2024-11-08T08:00:00	5	Humedad	81
98041	7	Sololá	701	Sololá	4	Finca Santa Victoria	3	Marzo	2023-03-29T00:00:00	2024-11-08T08:00:00	6	Velocidad del viento	3.2
98042	7	Sololá	701	Sololá	4	Finca Santa Victoria	3	Marzo	2023-03-29T00:00:00	2024-11-08T08:00:00	7	Dirección del viento	3.22
98043	7	Sololá	701	Sololá	4	Finca Santa Victoria	3	Marzo	2023-03-29T00:00:00	2024-11-08T08:00:00	1	Precipitación	0
98044	7	Sololá	701	Sololá	4	Finca Santa Victoria	3	Marzo	2023-03-29T00:00:00	2024-11-08T08:00:00	8	Radiación solar	158
98045	7	Sololá	701	Sololá	4	Finca Santa Victoria	3	Marzo	2023-03-29T00:00:00	2024-11-08T09:00:00	2	Temperatura media	14.8
98046	7	Sololá	701	Sololá	4	Finca Santa Victoria	3	Marzo	2023-03-29T00:00:00	2024-11-08T09:00:00	4	Temperatura máxima	15.7
98047	7	Sololá	701	Sololá	4	Finca Santa Victoria	3	Marzo	2023-03-29T00:00:00	2024-11-08T09:00:00	3	Temperatura mínima	14.2
98048	7	Sololá	701	Sololá	4	Finca Santa Victoria	3	Marzo	2023-03-29T00:00:00	2024-11-08T09:00:00	5	Humedad	79
98049	7	Sololá	701	Sololá	4	Finca Santa Victoria	3	Marzo	2023-03-29T00:00:00	2024-11-08T09:00:00	6	Velocidad del viento	3.2
98050	7	Sololá	701	Sololá	4	Finca Santa Victoria	3	Marzo	2023-03-29T00:00:00	2024-11-08T09:00:00	7	Dirección del viento	3.22
98051	7	Sololá	701	Sololá	4	Finca Santa Victoria	3	Marzo	2023-03-29T00:00:00	2024-11-08T09:00:00	1	Precipitación	0
98052	7	Sololá	701	Sololá	4	Finca Santa Victoria	3	Marzo	2023-03-29T00:00:00	2024-11-08T09:00:00	8	Radiación solar	338
98053	7	Sololá	701	Sololá	4	Finca Santa Victoria	3	Marzo	2023-03-29T00:00:00	2024-11-08T10:00:00	2	Temperatura media	17.2
98054	7	Sololá	701	Sololá	4	Finca Santa Victoria	3	Marzo	2023-03-29T00:00:00	2024-11-08T10:00:00	4	Temperatura máxima	17.3
98055	7	Sololá	701	Sololá	4	Finca Santa Victoria	3	Marzo	2023-03-29T00:00:00	2024-11-08T10:00:00	3	Temperatura mínima	14.8
98056	7	Sololá	701	Sololá	4	Finca Santa Victoria	3	Marzo	2023-03-29T00:00:00	2024-11-08T10:00:00	5	Humedad	70
98057	7	Sololá	701	Sololá	4	Finca Santa Victoria	3	Marzo	2023-03-29T00:00:00	2024-11-08T10:00:00	6	Velocidad del viento	4.8
98058	7	Sololá	701	Sololá	4	Finca Santa Victoria	3	Marzo	2023-03-29T00:00:00	2024-11-08T10:00:00	7	Dirección del viento	4.83
98059	7	Sololá	701	Sololá	4	Finca Santa Victoria	3	Marzo	2023-03-29T00:00:00	2024-11-08T10:00:00	1	Precipitación	0
98060	7	Sololá	701	Sololá	4	Finca Santa Victoria	3	Marzo	2023-03-29T00:00:00	2024-11-08T10:00:00	8	Radiación solar	496
98061	7	Sololá	701	Sololá	4	Finca Santa Victoria	3	Marzo	2023-03-29T00:00:00	2024-11-08T11:00:00	2	Temperatura media	20.1
98062	7	Sololá	701	Sololá	4	Finca Santa Victoria	3	Marzo	2023-03-29T00:00:00	2024-11-08T11:00:00	4	Temperatura máxima	20.4
98063	7	Sololá	701	Sololá	4	Finca Santa Victoria	3	Marzo	2023-03-29T00:00:00	2024-11-08T11:00:00	3	Temperatura mínima	17.2
98064	7	Sololá	701	Sololá	4	Finca Santa Victoria	3	Marzo	2023-03-29T00:00:00	2024-11-08T11:00:00	5	Humedad	56
98065	7	Sololá	701	Sololá	4	Finca Santa Victoria	3	Marzo	2023-03-29T00:00:00	2024-11-08T11:00:00	6	Velocidad del viento	4.8
98066	7	Sololá	701	Sololá	4	Finca Santa Victoria	3	Marzo	2023-03-29T00:00:00	2024-11-08T11:00:00	7	Dirección del viento	4.83
98067	7	Sololá	701	Sololá	4	Finca Santa Victoria	3	Marzo	2023-03-29T00:00:00	2024-11-08T11:00:00	1	Precipitación	0
98068	7	Sololá	701	Sololá	4	Finca Santa Victoria	3	Marzo	2023-03-29T00:00:00	2024-11-08T11:00:00	8	Radiación solar	894
98069	7	Sololá	701	Sololá	4	Finca Santa Victoria	3	Marzo	2023-03-29T00:00:00	2024-11-08T12:00:00	2	Temperatura media	20.7
98070	7	Sololá	701	Sololá	4	Finca Santa Victoria	3	Marzo	2023-03-29T00:00:00	2024-11-08T12:00:00	4	Temperatura máxima	20.9
98071	7	Sololá	701	Sololá	4	Finca Santa Victoria	3	Marzo	2023-03-29T00:00:00	2024-11-08T12:00:00	3	Temperatura mínima	19.8
98072	7	Sololá	701	Sololá	4	Finca Santa Victoria	3	Marzo	2023-03-29T00:00:00	2024-11-08T12:00:00	5	Humedad	54
98073	7	Sololá	701	Sololá	4	Finca Santa Victoria	3	Marzo	2023-03-29T00:00:00	2024-11-08T12:00:00	6	Velocidad del viento	4.8
98074	7	Sololá	701	Sololá	4	Finca Santa Victoria	3	Marzo	2023-03-29T00:00:00	2024-11-08T12:00:00	7	Dirección del viento	4.83
98075	7	Sololá	701	Sololá	4	Finca Santa Victoria	3	Marzo	2023-03-29T00:00:00	2024-11-08T12:00:00	1	Precipitación	0
98076	7	Sololá	701	Sololá	4	Finca Santa Victoria	3	Marzo	2023-03-29T00:00:00	2024-11-08T12:00:00	8	Radiación solar	1030
98077	7	Sololá	701	Sololá	4	Finca Santa Victoria	3	Marzo	2023-03-29T00:00:00	2024-11-08T13:00:00	2	Temperatura media	21.5
98078	7	Sololá	701	Sololá	4	Finca Santa Victoria	3	Marzo	2023-03-29T00:00:00	2024-11-08T13:00:00	4	Temperatura máxima	21.7
98079	7	Sololá	701	Sololá	4	Finca Santa Victoria	3	Marzo	2023-03-29T00:00:00	2024-11-08T13:00:00	3	Temperatura mínima	20.6
98080	7	Sololá	701	Sololá	4	Finca Santa Victoria	3	Marzo	2023-03-29T00:00:00	2024-11-08T13:00:00	5	Humedad	49
98081	7	Sololá	701	Sololá	4	Finca Santa Victoria	3	Marzo	2023-03-29T00:00:00	2024-11-08T13:00:00	6	Velocidad del viento	4.8
98082	7	Sololá	701	Sololá	4	Finca Santa Victoria	3	Marzo	2023-03-29T00:00:00	2024-11-08T13:00:00	7	Dirección del viento	4.83
98083	7	Sololá	701	Sololá	4	Finca Santa Victoria	3	Marzo	2023-03-29T00:00:00	2024-11-08T13:00:00	1	Precipitación	0
98084	7	Sololá	701	Sololá	4	Finca Santa Victoria	3	Marzo	2023-03-29T00:00:00	2024-11-08T13:00:00	8	Radiación solar	927
98085	7	Sololá	701	Sololá	4	Finca Santa Victoria	3	Marzo	2023-03-29T00:00:00	2024-11-08T14:00:00	2	Temperatura media	21.6
98086	7	Sololá	701	Sololá	4	Finca Santa Victoria	3	Marzo	2023-03-29T00:00:00	2024-11-08T14:00:00	4	Temperatura máxima	21.6
98087	7	Sololá	701	Sololá	4	Finca Santa Victoria	3	Marzo	2023-03-29T00:00:00	2024-11-08T14:00:00	3	Temperatura mínima	20.4
98088	7	Sololá	701	Sololá	4	Finca Santa Victoria	3	Marzo	2023-03-29T00:00:00	2024-11-08T14:00:00	5	Humedad	48
98089	7	Sololá	701	Sololá	4	Finca Santa Victoria	3	Marzo	2023-03-29T00:00:00	2024-11-08T14:00:00	6	Velocidad del viento	4.8
98090	7	Sololá	701	Sololá	4	Finca Santa Victoria	3	Marzo	2023-03-29T00:00:00	2024-11-08T14:00:00	7	Dirección del viento	4.83
98091	7	Sololá	701	Sololá	4	Finca Santa Victoria	3	Marzo	2023-03-29T00:00:00	2024-11-08T14:00:00	1	Precipitación	0
98092	7	Sololá	701	Sololá	4	Finca Santa Victoria	3	Marzo	2023-03-29T00:00:00	2024-11-08T14:00:00	8	Radiación solar	206
98093	7	Sololá	701	Sololá	4	Finca Santa Victoria	3	Marzo	2023-03-29T00:00:00	2024-11-08T15:00:00	2	Temperatura media	21.3
98094	7	Sololá	701	Sololá	4	Finca Santa Victoria	3	Marzo	2023-03-29T00:00:00	2024-11-08T15:00:00	4	Temperatura máxima	21.8
98095	7	Sololá	701	Sololá	4	Finca Santa Victoria	3	Marzo	2023-03-29T00:00:00	2024-11-08T15:00:00	3	Temperatura mínima	20.9
98096	7	Sololá	701	Sololá	4	Finca Santa Victoria	3	Marzo	2023-03-29T00:00:00	2024-11-08T15:00:00	5	Humedad	48
98097	7	Sololá	701	Sololá	4	Finca Santa Victoria	3	Marzo	2023-03-29T00:00:00	2024-11-08T15:00:00	6	Velocidad del viento	4.8
98098	7	Sololá	701	Sololá	4	Finca Santa Victoria	3	Marzo	2023-03-29T00:00:00	2024-11-08T15:00:00	7	Dirección del viento	4.83
98099	7	Sololá	701	Sololá	4	Finca Santa Victoria	3	Marzo	2023-03-29T00:00:00	2024-11-08T15:00:00	1	Precipitación	0
98100	7	Sololá	701	Sololá	4	Finca Santa Victoria	3	Marzo	2023-03-29T00:00:00	2024-11-08T15:00:00	8	Radiación solar	269
98101	7	Sololá	701	Sololá	4	Finca Santa Victoria	3	Marzo	2023-03-29T00:00:00	2024-11-08T16:00:00	2	Temperatura media	20.8
98102	7	Sololá	701	Sololá	4	Finca Santa Victoria	3	Marzo	2023-03-29T00:00:00	2024-11-08T16:00:00	4	Temperatura máxima	21.4
98103	7	Sololá	701	Sololá	4	Finca Santa Victoria	3	Marzo	2023-03-29T00:00:00	2024-11-08T16:00:00	3	Temperatura mínima	20
98104	7	Sololá	701	Sololá	4	Finca Santa Victoria	3	Marzo	2023-03-29T00:00:00	2024-11-08T16:00:00	5	Humedad	42
98105	7	Sololá	701	Sololá	4	Finca Santa Victoria	3	Marzo	2023-03-29T00:00:00	2024-11-08T16:00:00	6	Velocidad del viento	6.4
98106	7	Sololá	701	Sololá	4	Finca Santa Victoria	3	Marzo	2023-03-29T00:00:00	2024-11-08T16:00:00	7	Dirección del viento	6.44
98107	7	Sololá	701	Sololá	4	Finca Santa Victoria	3	Marzo	2023-03-29T00:00:00	2024-11-08T16:00:00	1	Precipitación	0
98108	7	Sololá	701	Sololá	4	Finca Santa Victoria	3	Marzo	2023-03-29T00:00:00	2024-11-08T16:00:00	8	Radiación solar	342
98109	7	Sololá	701	Sololá	4	Finca Santa Victoria	3	Marzo	2023-03-29T00:00:00	2024-11-08T17:00:00	2	Temperatura media	19.2
98110	7	Sololá	701	Sololá	4	Finca Santa Victoria	3	Marzo	2023-03-29T00:00:00	2024-11-08T17:00:00	4	Temperatura máxima	20.8
98111	7	Sololá	701	Sololá	4	Finca Santa Victoria	3	Marzo	2023-03-29T00:00:00	2024-11-08T17:00:00	3	Temperatura mínima	19.1
98112	7	Sololá	701	Sololá	4	Finca Santa Victoria	3	Marzo	2023-03-29T00:00:00	2024-11-08T17:00:00	5	Humedad	48
98113	7	Sololá	701	Sololá	4	Finca Santa Victoria	3	Marzo	2023-03-29T00:00:00	2024-11-08T17:00:00	6	Velocidad del viento	4.8
98114	7	Sololá	701	Sololá	4	Finca Santa Victoria	3	Marzo	2023-03-29T00:00:00	2024-11-08T17:00:00	7	Dirección del viento	4.83
98115	7	Sololá	701	Sololá	4	Finca Santa Victoria	3	Marzo	2023-03-29T00:00:00	2024-11-08T17:00:00	1	Precipitación	0
98116	7	Sololá	701	Sololá	4	Finca Santa Victoria	3	Marzo	2023-03-29T00:00:00	2024-11-08T17:00:00	8	Radiación solar	165
98117	7	Sololá	701	Sololá	4	Finca Santa Victoria	3	Marzo	2023-03-29T00:00:00	2024-11-08T18:00:00	2	Temperatura media	16.3
98118	7	Sololá	701	Sololá	4	Finca Santa Victoria	3	Marzo	2023-03-29T00:00:00	2024-11-08T18:00:00	4	Temperatura máxima	19.1
98119	7	Sololá	701	Sololá	4	Finca Santa Victoria	3	Marzo	2023-03-29T00:00:00	2024-11-08T18:00:00	3	Temperatura mínima	16.3
98120	7	Sololá	701	Sololá	4	Finca Santa Victoria	3	Marzo	2023-03-29T00:00:00	2024-11-08T18:00:00	5	Humedad	61
98121	7	Sololá	701	Sololá	4	Finca Santa Victoria	3	Marzo	2023-03-29T00:00:00	2024-11-08T18:00:00	6	Velocidad del viento	3.2
98122	7	Sololá	701	Sololá	4	Finca Santa Victoria	3	Marzo	2023-03-29T00:00:00	2024-11-08T18:00:00	7	Dirección del viento	3.22
98123	7	Sololá	701	Sololá	4	Finca Santa Victoria	3	Marzo	2023-03-29T00:00:00	2024-11-08T18:00:00	1	Precipitación	0
98124	7	Sololá	701	Sololá	4	Finca Santa Victoria	3	Marzo	2023-03-29T00:00:00	2024-11-08T18:00:00	8	Radiación solar	41
98125	7	Sololá	701	Sololá	4	Finca Santa Victoria	3	Marzo	2023-03-29T00:00:00	2024-11-08T19:00:00	2	Temperatura media	14.3
98126	7	Sololá	701	Sololá	4	Finca Santa Victoria	3	Marzo	2023-03-29T00:00:00	2024-11-08T19:00:00	4	Temperatura máxima	16.4
98127	7	Sololá	701	Sololá	4	Finca Santa Victoria	3	Marzo	2023-03-29T00:00:00	2024-11-08T19:00:00	3	Temperatura mínima	14.3
98128	7	Sololá	701	Sololá	4	Finca Santa Victoria	3	Marzo	2023-03-29T00:00:00	2024-11-08T19:00:00	5	Humedad	72
98129	7	Sololá	701	Sololá	4	Finca Santa Victoria	3	Marzo	2023-03-29T00:00:00	2024-11-08T19:00:00	6	Velocidad del viento	3.2
98130	7	Sololá	701	Sololá	4	Finca Santa Victoria	3	Marzo	2023-03-29T00:00:00	2024-11-08T19:00:00	7	Dirección del viento	3.22
98131	7	Sololá	701	Sololá	4	Finca Santa Victoria	3	Marzo	2023-03-29T00:00:00	2024-11-08T19:00:00	1	Precipitación	0
98132	7	Sololá	701	Sololá	4	Finca Santa Victoria	3	Marzo	2023-03-29T00:00:00	2024-11-08T19:00:00	8	Radiación solar	0
98133	7	Sololá	701	Sololá	4	Finca Santa Victoria	3	Marzo	2023-03-29T00:00:00	2024-11-08T20:00:00	2	Temperatura media	13.1
98134	7	Sololá	701	Sololá	4	Finca Santa Victoria	3	Marzo	2023-03-29T00:00:00	2024-11-08T20:00:00	4	Temperatura máxima	14.3
98135	7	Sololá	701	Sololá	4	Finca Santa Victoria	3	Marzo	2023-03-29T00:00:00	2024-11-08T20:00:00	3	Temperatura mínima	13.1
98136	7	Sololá	701	Sololá	4	Finca Santa Victoria	3	Marzo	2023-03-29T00:00:00	2024-11-08T20:00:00	5	Humedad	78
98137	7	Sololá	701	Sololá	4	Finca Santa Victoria	3	Marzo	2023-03-29T00:00:00	2024-11-08T20:00:00	6	Velocidad del viento	4.8
98138	7	Sololá	701	Sololá	4	Finca Santa Victoria	3	Marzo	2023-03-29T00:00:00	2024-11-08T20:00:00	7	Dirección del viento	4.83
98139	7	Sololá	701	Sololá	4	Finca Santa Victoria	3	Marzo	2023-03-29T00:00:00	2024-11-08T20:00:00	1	Precipitación	0
98140	7	Sololá	701	Sololá	4	Finca Santa Victoria	3	Marzo	2023-03-29T00:00:00	2024-11-08T20:00:00	8	Radiación solar	0
98141	7	Sololá	701	Sololá	4	Finca Santa Victoria	3	Marzo	2023-03-29T00:00:00	2024-11-08T21:00:00	2	Temperatura media	12.2
98142	7	Sololá	701	Sololá	4	Finca Santa Victoria	3	Marzo	2023-03-29T00:00:00	2024-11-08T21:00:00	4	Temperatura máxima	13.1
98143	7	Sololá	701	Sololá	4	Finca Santa Victoria	3	Marzo	2023-03-29T00:00:00	2024-11-08T21:00:00	3	Temperatura mínima	12.2
98144	7	Sololá	701	Sololá	4	Finca Santa Victoria	3	Marzo	2023-03-29T00:00:00	2024-11-08T21:00:00	5	Humedad	78
98145	7	Sololá	701	Sololá	4	Finca Santa Victoria	3	Marzo	2023-03-29T00:00:00	2024-11-08T21:00:00	6	Velocidad del viento	6.4
98146	7	Sololá	701	Sololá	4	Finca Santa Victoria	3	Marzo	2023-03-29T00:00:00	2024-11-08T21:00:00	7	Dirección del viento	6.44
98147	7	Sololá	701	Sololá	4	Finca Santa Victoria	3	Marzo	2023-03-29T00:00:00	2024-11-08T21:00:00	1	Precipitación	0
98148	7	Sololá	701	Sololá	4	Finca Santa Victoria	3	Marzo	2023-03-29T00:00:00	2024-11-08T21:00:00	8	Radiación solar	0
98149	7	Sololá	701	Sololá	4	Finca Santa Victoria	3	Marzo	2023-03-29T00:00:00	2024-11-08T22:00:00	2	Temperatura media	11.6
98150	7	Sololá	701	Sololá	4	Finca Santa Victoria	3	Marzo	2023-03-29T00:00:00	2024-11-08T22:00:00	4	Temperatura máxima	12.2
98151	7	Sololá	701	Sololá	4	Finca Santa Victoria	3	Marzo	2023-03-29T00:00:00	2024-11-08T22:00:00	3	Temperatura mínima	11.6
98152	7	Sololá	701	Sololá	4	Finca Santa Victoria	3	Marzo	2023-03-29T00:00:00	2024-11-08T22:00:00	5	Humedad	77
98153	7	Sololá	701	Sololá	4	Finca Santa Victoria	3	Marzo	2023-03-29T00:00:00	2024-11-08T22:00:00	6	Velocidad del viento	3.2
98154	7	Sololá	701	Sololá	4	Finca Santa Victoria	3	Marzo	2023-03-29T00:00:00	2024-11-08T22:00:00	7	Dirección del viento	3.22
98155	7	Sololá	701	Sololá	4	Finca Santa Victoria	3	Marzo	2023-03-29T00:00:00	2024-11-08T22:00:00	1	Precipitación	0
98156	7	Sololá	701	Sololá	4	Finca Santa Victoria	3	Marzo	2023-03-29T00:00:00	2024-11-08T22:00:00	8	Radiación solar	0
98157	7	Sololá	701	Sololá	4	Finca Santa Victoria	3	Marzo	2023-03-29T00:00:00	2024-11-08T23:00:00	2	Temperatura media	11.6
98158	7	Sololá	701	Sololá	4	Finca Santa Victoria	3	Marzo	2023-03-29T00:00:00	2024-11-08T23:00:00	4	Temperatura máxima	11.7
98159	7	Sololá	701	Sololá	4	Finca Santa Victoria	3	Marzo	2023-03-29T00:00:00	2024-11-08T23:00:00	3	Temperatura mínima	11.5
98160	7	Sololá	701	Sololá	4	Finca Santa Victoria	3	Marzo	2023-03-29T00:00:00	2024-11-08T23:00:00	5	Humedad	79
98161	7	Sololá	701	Sololá	4	Finca Santa Victoria	3	Marzo	2023-03-29T00:00:00	2024-11-08T23:00:00	6	Velocidad del viento	3.2
98162	7	Sololá	701	Sololá	4	Finca Santa Victoria	3	Marzo	2023-03-29T00:00:00	2024-11-08T23:00:00	7	Dirección del viento	3.22
98163	7	Sololá	701	Sololá	4	Finca Santa Victoria	3	Marzo	2023-03-29T00:00:00	2024-11-08T23:00:00	1	Precipitación	0
98164	7	Sololá	701	Sololá	4	Finca Santa Victoria	3	Marzo	2023-03-29T00:00:00	2024-11-08T23:00:00	8	Radiación solar	0
98165	7	Sololá	701	Sololá	4	Finca Santa Victoria	3	Marzo	2023-03-30T00:00:00	2024-11-08T00:00:00	2	Temperatura media	11.1
98166	7	Sololá	701	Sololá	4	Finca Santa Victoria	3	Marzo	2023-03-30T00:00:00	2024-11-08T00:00:00	4	Temperatura máxima	11.6
98167	7	Sololá	701	Sololá	4	Finca Santa Victoria	3	Marzo	2023-03-30T00:00:00	2024-11-08T00:00:00	3	Temperatura mínima	11.1
98168	7	Sololá	701	Sololá	4	Finca Santa Victoria	3	Marzo	2023-03-30T00:00:00	2024-11-08T00:00:00	5	Humedad	83
98169	7	Sololá	701	Sololá	4	Finca Santa Victoria	3	Marzo	2023-03-30T00:00:00	2024-11-08T00:00:00	6	Velocidad del viento	4.8
98170	7	Sololá	701	Sololá	4	Finca Santa Victoria	3	Marzo	2023-03-30T00:00:00	2024-11-08T00:00:00	7	Dirección del viento	4.83
98171	7	Sololá	701	Sololá	4	Finca Santa Victoria	3	Marzo	2023-03-30T00:00:00	2024-11-08T00:00:00	1	Precipitación	0
98172	7	Sololá	701	Sololá	4	Finca Santa Victoria	3	Marzo	2023-03-30T00:00:00	2024-11-08T00:00:00	8	Radiación solar	0
98173	7	Sololá	701	Sololá	4	Finca Santa Victoria	3	Marzo	2023-03-30T00:00:00	2024-11-08T01:00:00	2	Temperatura media	10.7
98174	7	Sololá	701	Sololá	4	Finca Santa Victoria	3	Marzo	2023-03-30T00:00:00	2024-11-08T01:00:00	4	Temperatura máxima	11.1
98175	7	Sololá	701	Sololá	4	Finca Santa Victoria	3	Marzo	2023-03-30T00:00:00	2024-11-08T01:00:00	3	Temperatura mínima	10.7
98176	7	Sololá	701	Sololá	4	Finca Santa Victoria	3	Marzo	2023-03-30T00:00:00	2024-11-08T01:00:00	5	Humedad	84
98177	7	Sololá	701	Sololá	4	Finca Santa Victoria	3	Marzo	2023-03-30T00:00:00	2024-11-08T01:00:00	6	Velocidad del viento	3.2
98178	7	Sololá	701	Sololá	4	Finca Santa Victoria	3	Marzo	2023-03-30T00:00:00	2024-11-08T01:00:00	7	Dirección del viento	3.22
98179	7	Sololá	701	Sololá	4	Finca Santa Victoria	3	Marzo	2023-03-30T00:00:00	2024-11-08T01:00:00	1	Precipitación	0
98180	7	Sololá	701	Sololá	4	Finca Santa Victoria	3	Marzo	2023-03-30T00:00:00	2024-11-08T01:00:00	8	Radiación solar	0
98181	7	Sololá	701	Sololá	4	Finca Santa Victoria	3	Marzo	2023-03-30T00:00:00	2024-11-08T02:00:00	2	Temperatura media	10.3
98182	7	Sololá	701	Sololá	4	Finca Santa Victoria	3	Marzo	2023-03-30T00:00:00	2024-11-08T02:00:00	4	Temperatura máxima	10.8
98183	7	Sololá	701	Sololá	4	Finca Santa Victoria	3	Marzo	2023-03-30T00:00:00	2024-11-08T02:00:00	3	Temperatura mínima	10.3
98184	7	Sololá	701	Sololá	4	Finca Santa Victoria	3	Marzo	2023-03-30T00:00:00	2024-11-08T02:00:00	5	Humedad	83
98185	7	Sololá	701	Sololá	4	Finca Santa Victoria	3	Marzo	2023-03-30T00:00:00	2024-11-08T02:00:00	6	Velocidad del viento	3.2
98186	7	Sololá	701	Sololá	4	Finca Santa Victoria	3	Marzo	2023-03-30T00:00:00	2024-11-08T02:00:00	7	Dirección del viento	3.22
98187	7	Sololá	701	Sololá	4	Finca Santa Victoria	3	Marzo	2023-03-30T00:00:00	2024-11-08T02:00:00	1	Precipitación	0
98188	7	Sololá	701	Sololá	4	Finca Santa Victoria	3	Marzo	2023-03-30T00:00:00	2024-11-08T02:00:00	8	Radiación solar	0
98189	7	Sololá	701	Sololá	4	Finca Santa Victoria	3	Marzo	2023-03-30T00:00:00	2024-11-08T03:00:00	2	Temperatura media	9.9
98190	7	Sololá	701	Sololá	4	Finca Santa Victoria	3	Marzo	2023-03-30T00:00:00	2024-11-08T03:00:00	4	Temperatura máxima	10.4
98191	7	Sololá	701	Sololá	4	Finca Santa Victoria	3	Marzo	2023-03-30T00:00:00	2024-11-08T03:00:00	3	Temperatura mínima	9.9
98192	7	Sololá	701	Sololá	4	Finca Santa Victoria	3	Marzo	2023-03-30T00:00:00	2024-11-08T03:00:00	5	Humedad	85
98193	7	Sololá	701	Sololá	4	Finca Santa Victoria	3	Marzo	2023-03-30T00:00:00	2024-11-08T03:00:00	6	Velocidad del viento	1.6
98194	7	Sololá	701	Sololá	4	Finca Santa Victoria	3	Marzo	2023-03-30T00:00:00	2024-11-08T03:00:00	7	Dirección del viento	1.61
98195	7	Sololá	701	Sololá	4	Finca Santa Victoria	3	Marzo	2023-03-30T00:00:00	2024-11-08T03:00:00	1	Precipitación	0
98196	7	Sololá	701	Sololá	4	Finca Santa Victoria	3	Marzo	2023-03-30T00:00:00	2024-11-08T03:00:00	8	Radiación solar	0
98197	7	Sololá	701	Sololá	4	Finca Santa Victoria	3	Marzo	2023-03-30T00:00:00	2024-11-08T04:00:00	2	Temperatura media	10.1
98198	7	Sololá	701	Sololá	4	Finca Santa Victoria	3	Marzo	2023-03-30T00:00:00	2024-11-08T04:00:00	4	Temperatura máxima	10.1
98199	7	Sololá	701	Sololá	4	Finca Santa Victoria	3	Marzo	2023-03-30T00:00:00	2024-11-08T04:00:00	3	Temperatura mínima	9.7
98200	7	Sololá	701	Sololá	4	Finca Santa Victoria	3	Marzo	2023-03-30T00:00:00	2024-11-08T04:00:00	5	Humedad	84
98201	7	Sololá	701	Sololá	4	Finca Santa Victoria	3	Marzo	2023-03-30T00:00:00	2024-11-08T04:00:00	6	Velocidad del viento	1.6
98202	7	Sololá	701	Sololá	4	Finca Santa Victoria	3	Marzo	2023-03-30T00:00:00	2024-11-08T04:00:00	7	Dirección del viento	1.61
98203	7	Sololá	701	Sololá	4	Finca Santa Victoria	3	Marzo	2023-03-30T00:00:00	2024-11-08T04:00:00	1	Precipitación	0
98204	7	Sololá	701	Sololá	4	Finca Santa Victoria	3	Marzo	2023-03-30T00:00:00	2024-11-08T04:00:00	8	Radiación solar	0
98205	7	Sololá	701	Sololá	4	Finca Santa Victoria	3	Marzo	2023-03-30T00:00:00	2024-11-08T05:00:00	2	Temperatura media	9.6
98206	7	Sololá	701	Sololá	4	Finca Santa Victoria	3	Marzo	2023-03-30T00:00:00	2024-11-08T05:00:00	4	Temperatura máxima	10.1
98207	7	Sololá	701	Sololá	4	Finca Santa Victoria	3	Marzo	2023-03-30T00:00:00	2024-11-08T05:00:00	3	Temperatura mínima	9.6
98208	7	Sololá	701	Sololá	4	Finca Santa Victoria	3	Marzo	2023-03-30T00:00:00	2024-11-08T05:00:00	5	Humedad	86
98209	7	Sololá	701	Sololá	4	Finca Santa Victoria	3	Marzo	2023-03-30T00:00:00	2024-11-08T05:00:00	6	Velocidad del viento	1.6
98210	7	Sololá	701	Sololá	4	Finca Santa Victoria	3	Marzo	2023-03-30T00:00:00	2024-11-08T05:00:00	7	Dirección del viento	1.61
98211	7	Sololá	701	Sololá	4	Finca Santa Victoria	3	Marzo	2023-03-30T00:00:00	2024-11-08T05:00:00	1	Precipitación	0
98212	7	Sololá	701	Sololá	4	Finca Santa Victoria	3	Marzo	2023-03-30T00:00:00	2024-11-08T05:00:00	8	Radiación solar	0
98213	7	Sololá	701	Sololá	4	Finca Santa Victoria	3	Marzo	2023-03-30T00:00:00	2024-11-08T06:00:00	2	Temperatura media	9.9
98214	7	Sololá	701	Sololá	4	Finca Santa Victoria	3	Marzo	2023-03-30T00:00:00	2024-11-08T06:00:00	4	Temperatura máxima	9.9
98215	7	Sololá	701	Sololá	4	Finca Santa Victoria	3	Marzo	2023-03-30T00:00:00	2024-11-08T06:00:00	3	Temperatura mínima	9.5
98216	7	Sololá	701	Sololá	4	Finca Santa Victoria	3	Marzo	2023-03-30T00:00:00	2024-11-08T06:00:00	5	Humedad	85
98217	7	Sololá	701	Sololá	4	Finca Santa Victoria	3	Marzo	2023-03-30T00:00:00	2024-11-08T06:00:00	6	Velocidad del viento	1.6
98218	7	Sololá	701	Sololá	4	Finca Santa Victoria	3	Marzo	2023-03-30T00:00:00	2024-11-08T06:00:00	7	Dirección del viento	1.61
98219	7	Sololá	701	Sololá	4	Finca Santa Victoria	3	Marzo	2023-03-30T00:00:00	2024-11-08T06:00:00	1	Precipitación	0
98220	7	Sololá	701	Sololá	4	Finca Santa Victoria	3	Marzo	2023-03-30T00:00:00	2024-11-08T06:00:00	8	Radiación solar	0
98221	7	Sololá	701	Sololá	4	Finca Santa Victoria	3	Marzo	2023-03-30T00:00:00	2024-11-08T07:00:00	2	Temperatura media	10.7
98222	7	Sololá	701	Sololá	4	Finca Santa Victoria	3	Marzo	2023-03-30T00:00:00	2024-11-08T07:00:00	4	Temperatura máxima	10.7
98223	7	Sololá	701	Sololá	4	Finca Santa Victoria	3	Marzo	2023-03-30T00:00:00	2024-11-08T07:00:00	3	Temperatura mínima	9.9
98224	7	Sololá	701	Sololá	4	Finca Santa Victoria	3	Marzo	2023-03-30T00:00:00	2024-11-08T07:00:00	5	Humedad	83
98225	7	Sololá	701	Sololá	4	Finca Santa Victoria	3	Marzo	2023-03-30T00:00:00	2024-11-08T07:00:00	6	Velocidad del viento	3.2
98226	7	Sololá	701	Sololá	4	Finca Santa Victoria	3	Marzo	2023-03-30T00:00:00	2024-11-08T07:00:00	7	Dirección del viento	3.22
98227	7	Sololá	701	Sololá	4	Finca Santa Victoria	3	Marzo	2023-03-30T00:00:00	2024-11-08T07:00:00	1	Precipitación	0
98228	7	Sololá	701	Sololá	4	Finca Santa Victoria	3	Marzo	2023-03-30T00:00:00	2024-11-08T07:00:00	8	Radiación solar	14
98229	7	Sololá	701	Sololá	4	Finca Santa Victoria	3	Marzo	2023-03-30T00:00:00	2024-11-08T08:00:00	2	Temperatura media	13.2
98230	7	Sololá	701	Sololá	4	Finca Santa Victoria	3	Marzo	2023-03-30T00:00:00	2024-11-08T08:00:00	4	Temperatura máxima	13.2
98231	7	Sololá	701	Sololá	4	Finca Santa Victoria	3	Marzo	2023-03-30T00:00:00	2024-11-08T08:00:00	3	Temperatura mínima	10.6
98232	7	Sololá	701	Sololá	4	Finca Santa Victoria	3	Marzo	2023-03-30T00:00:00	2024-11-08T08:00:00	5	Humedad	74
98233	7	Sololá	701	Sololá	4	Finca Santa Victoria	3	Marzo	2023-03-30T00:00:00	2024-11-08T08:00:00	6	Velocidad del viento	4.8
98234	7	Sololá	701	Sololá	4	Finca Santa Victoria	3	Marzo	2023-03-30T00:00:00	2024-11-08T08:00:00	7	Dirección del viento	4.83
98235	7	Sololá	701	Sololá	4	Finca Santa Victoria	3	Marzo	2023-03-30T00:00:00	2024-11-08T08:00:00	1	Precipitación	0
98236	7	Sololá	701	Sololá	4	Finca Santa Victoria	3	Marzo	2023-03-30T00:00:00	2024-11-08T08:00:00	8	Radiación solar	214
98237	7	Sololá	701	Sololá	4	Finca Santa Victoria	3	Marzo	2023-03-30T00:00:00	2024-11-08T09:00:00	2	Temperatura media	16.1
98238	7	Sololá	701	Sololá	4	Finca Santa Victoria	3	Marzo	2023-03-30T00:00:00	2024-11-08T09:00:00	4	Temperatura máxima	16.1
98239	7	Sololá	701	Sololá	4	Finca Santa Victoria	3	Marzo	2023-03-30T00:00:00	2024-11-08T09:00:00	3	Temperatura mínima	13.2
98240	7	Sololá	701	Sololá	4	Finca Santa Victoria	3	Marzo	2023-03-30T00:00:00	2024-11-08T09:00:00	5	Humedad	62
98241	7	Sololá	701	Sololá	4	Finca Santa Victoria	3	Marzo	2023-03-30T00:00:00	2024-11-08T09:00:00	6	Velocidad del viento	4.8
98242	7	Sololá	701	Sololá	4	Finca Santa Victoria	3	Marzo	2023-03-30T00:00:00	2024-11-08T09:00:00	7	Dirección del viento	4.83
98243	7	Sololá	701	Sololá	4	Finca Santa Victoria	3	Marzo	2023-03-30T00:00:00	2024-11-08T09:00:00	1	Precipitación	0
98244	7	Sololá	701	Sololá	4	Finca Santa Victoria	3	Marzo	2023-03-30T00:00:00	2024-11-08T09:00:00	8	Radiación solar	577
98245	7	Sololá	701	Sololá	4	Finca Santa Victoria	3	Marzo	2023-03-30T00:00:00	2024-11-08T10:00:00	2	Temperatura media	18.2
98246	7	Sololá	701	Sololá	4	Finca Santa Victoria	3	Marzo	2023-03-30T00:00:00	2024-11-08T10:00:00	4	Temperatura máxima	18.2
98247	7	Sololá	701	Sololá	4	Finca Santa Victoria	3	Marzo	2023-03-30T00:00:00	2024-11-08T10:00:00	3	Temperatura mínima	16.1
98248	7	Sololá	701	Sololá	4	Finca Santa Victoria	3	Marzo	2023-03-30T00:00:00	2024-11-08T10:00:00	5	Humedad	62
98249	7	Sololá	701	Sololá	4	Finca Santa Victoria	3	Marzo	2023-03-30T00:00:00	2024-11-08T10:00:00	6	Velocidad del viento	4.8
98250	7	Sololá	701	Sololá	4	Finca Santa Victoria	3	Marzo	2023-03-30T00:00:00	2024-11-08T10:00:00	7	Dirección del viento	4.83
98251	7	Sololá	701	Sololá	4	Finca Santa Victoria	3	Marzo	2023-03-30T00:00:00	2024-11-08T10:00:00	1	Precipitación	0
98252	7	Sololá	701	Sololá	4	Finca Santa Victoria	3	Marzo	2023-03-30T00:00:00	2024-11-08T10:00:00	8	Radiación solar	799
98253	7	Sololá	701	Sololá	4	Finca Santa Victoria	3	Marzo	2023-03-30T00:00:00	2024-11-08T11:00:00	2	Temperatura media	19.4
98254	7	Sololá	701	Sololá	4	Finca Santa Victoria	3	Marzo	2023-03-30T00:00:00	2024-11-08T11:00:00	4	Temperatura máxima	19.4
98255	7	Sololá	701	Sololá	4	Finca Santa Victoria	3	Marzo	2023-03-30T00:00:00	2024-11-08T11:00:00	3	Temperatura mínima	18.2
98256	7	Sololá	701	Sololá	4	Finca Santa Victoria	3	Marzo	2023-03-30T00:00:00	2024-11-08T11:00:00	5	Humedad	56
98257	7	Sololá	701	Sololá	4	Finca Santa Victoria	3	Marzo	2023-03-30T00:00:00	2024-11-08T11:00:00	6	Velocidad del viento	6.4
98258	7	Sololá	701	Sololá	4	Finca Santa Victoria	3	Marzo	2023-03-30T00:00:00	2024-11-08T11:00:00	7	Dirección del viento	6.44
98259	7	Sololá	701	Sololá	4	Finca Santa Victoria	3	Marzo	2023-03-30T00:00:00	2024-11-08T11:00:00	1	Precipitación	0
98260	7	Sololá	701	Sololá	4	Finca Santa Victoria	3	Marzo	2023-03-30T00:00:00	2024-11-08T11:00:00	8	Radiación solar	945
98261	7	Sololá	701	Sololá	4	Finca Santa Victoria	3	Marzo	2023-03-30T00:00:00	2024-11-08T12:00:00	2	Temperatura media	20.4
98262	7	Sololá	701	Sololá	4	Finca Santa Victoria	3	Marzo	2023-03-30T00:00:00	2024-11-08T12:00:00	4	Temperatura máxima	20.6
98263	7	Sololá	701	Sololá	4	Finca Santa Victoria	3	Marzo	2023-03-30T00:00:00	2024-11-08T12:00:00	3	Temperatura mínima	19.3
98264	7	Sololá	701	Sololá	4	Finca Santa Victoria	3	Marzo	2023-03-30T00:00:00	2024-11-08T12:00:00	5	Humedad	53
98265	7	Sololá	701	Sololá	4	Finca Santa Victoria	3	Marzo	2023-03-30T00:00:00	2024-11-08T12:00:00	6	Velocidad del viento	4.8
98266	7	Sololá	701	Sololá	4	Finca Santa Victoria	3	Marzo	2023-03-30T00:00:00	2024-11-08T12:00:00	7	Dirección del viento	4.83
98267	7	Sololá	701	Sololá	4	Finca Santa Victoria	3	Marzo	2023-03-30T00:00:00	2024-11-08T12:00:00	1	Precipitación	0
98268	7	Sololá	701	Sololá	4	Finca Santa Victoria	3	Marzo	2023-03-30T00:00:00	2024-11-08T12:00:00	8	Radiación solar	1026
98269	7	Sololá	701	Sololá	4	Finca Santa Victoria	3	Marzo	2023-03-30T00:00:00	2024-11-08T13:00:00	2	Temperatura media	20.8
98270	7	Sololá	701	Sololá	4	Finca Santa Victoria	3	Marzo	2023-03-30T00:00:00	2024-11-08T13:00:00	4	Temperatura máxima	21.6
98271	7	Sololá	701	Sololá	4	Finca Santa Victoria	3	Marzo	2023-03-30T00:00:00	2024-11-08T13:00:00	3	Temperatura mínima	20.3
98272	7	Sololá	701	Sololá	4	Finca Santa Victoria	3	Marzo	2023-03-30T00:00:00	2024-11-08T13:00:00	5	Humedad	46
98273	7	Sololá	701	Sololá	4	Finca Santa Victoria	3	Marzo	2023-03-30T00:00:00	2024-11-08T13:00:00	6	Velocidad del viento	4.8
98274	7	Sololá	701	Sololá	4	Finca Santa Victoria	3	Marzo	2023-03-30T00:00:00	2024-11-08T13:00:00	7	Dirección del viento	4.83
98275	7	Sololá	701	Sololá	4	Finca Santa Victoria	3	Marzo	2023-03-30T00:00:00	2024-11-08T13:00:00	1	Precipitación	0
98276	7	Sololá	701	Sololá	4	Finca Santa Victoria	3	Marzo	2023-03-30T00:00:00	2024-11-08T13:00:00	8	Radiación solar	854
98277	7	Sololá	701	Sololá	4	Finca Santa Victoria	3	Marzo	2023-03-30T00:00:00	2024-11-08T14:00:00	2	Temperatura media	22.3
98278	7	Sololá	701	Sololá	4	Finca Santa Victoria	3	Marzo	2023-03-30T00:00:00	2024-11-08T14:00:00	4	Temperatura máxima	22.3
98279	7	Sololá	701	Sololá	4	Finca Santa Victoria	3	Marzo	2023-03-30T00:00:00	2024-11-08T14:00:00	3	Temperatura mínima	20.8
98280	7	Sololá	701	Sololá	4	Finca Santa Victoria	3	Marzo	2023-03-30T00:00:00	2024-11-08T14:00:00	5	Humedad	38
98281	7	Sololá	701	Sololá	4	Finca Santa Victoria	3	Marzo	2023-03-30T00:00:00	2024-11-08T14:00:00	6	Velocidad del viento	4.8
98282	7	Sololá	701	Sololá	4	Finca Santa Victoria	3	Marzo	2023-03-30T00:00:00	2024-11-08T14:00:00	7	Dirección del viento	4.83
98283	7	Sololá	701	Sololá	4	Finca Santa Victoria	3	Marzo	2023-03-30T00:00:00	2024-11-08T14:00:00	1	Precipitación	0
98284	7	Sololá	701	Sololá	4	Finca Santa Victoria	3	Marzo	2023-03-30T00:00:00	2024-11-08T14:00:00	8	Radiación solar	150
98285	7	Sololá	701	Sololá	4	Finca Santa Victoria	3	Marzo	2023-03-30T00:00:00	2024-11-08T15:00:00	2	Temperatura media	21.8
98286	7	Sololá	701	Sololá	4	Finca Santa Victoria	3	Marzo	2023-03-30T00:00:00	2024-11-08T15:00:00	4	Temperatura máxima	22.4
98287	7	Sololá	701	Sololá	4	Finca Santa Victoria	3	Marzo	2023-03-30T00:00:00	2024-11-08T15:00:00	3	Temperatura mínima	21.7
98288	7	Sololá	701	Sololá	4	Finca Santa Victoria	3	Marzo	2023-03-30T00:00:00	2024-11-08T15:00:00	5	Humedad	34
98289	7	Sololá	701	Sololá	4	Finca Santa Victoria	3	Marzo	2023-03-30T00:00:00	2024-11-08T15:00:00	6	Velocidad del viento	4.8
98290	7	Sololá	701	Sololá	4	Finca Santa Victoria	3	Marzo	2023-03-30T00:00:00	2024-11-08T15:00:00	7	Dirección del viento	4.83
98291	7	Sololá	701	Sololá	4	Finca Santa Victoria	3	Marzo	2023-03-30T00:00:00	2024-11-08T15:00:00	1	Precipitación	0
98292	7	Sololá	701	Sololá	4	Finca Santa Victoria	3	Marzo	2023-03-30T00:00:00	2024-11-08T15:00:00	8	Radiación solar	316
98293	7	Sololá	701	Sololá	4	Finca Santa Victoria	3	Marzo	2023-03-30T00:00:00	2024-11-08T16:00:00	2	Temperatura media	20.9
98294	7	Sololá	701	Sololá	4	Finca Santa Victoria	3	Marzo	2023-03-30T00:00:00	2024-11-08T16:00:00	4	Temperatura máxima	22.1
98295	7	Sololá	701	Sololá	4	Finca Santa Victoria	3	Marzo	2023-03-30T00:00:00	2024-11-08T16:00:00	3	Temperatura mínima	20.8
98296	7	Sololá	701	Sololá	4	Finca Santa Victoria	3	Marzo	2023-03-30T00:00:00	2024-11-08T16:00:00	5	Humedad	39
98297	7	Sololá	701	Sololá	4	Finca Santa Victoria	3	Marzo	2023-03-30T00:00:00	2024-11-08T16:00:00	6	Velocidad del viento	4.8
98298	7	Sololá	701	Sololá	4	Finca Santa Victoria	3	Marzo	2023-03-30T00:00:00	2024-11-08T16:00:00	7	Dirección del viento	4.83
98299	7	Sololá	701	Sololá	4	Finca Santa Victoria	3	Marzo	2023-03-30T00:00:00	2024-11-08T16:00:00	1	Precipitación	0
98300	7	Sololá	701	Sololá	4	Finca Santa Victoria	3	Marzo	2023-03-30T00:00:00	2024-11-08T16:00:00	8	Radiación solar	404
98301	7	Sololá	701	Sololá	4	Finca Santa Victoria	3	Marzo	2023-03-30T00:00:00	2024-11-08T17:00:00	2	Temperatura media	19.1
98302	7	Sololá	701	Sololá	4	Finca Santa Victoria	3	Marzo	2023-03-30T00:00:00	2024-11-08T17:00:00	4	Temperatura máxima	20.9
98303	7	Sololá	701	Sololá	4	Finca Santa Victoria	3	Marzo	2023-03-30T00:00:00	2024-11-08T17:00:00	3	Temperatura mínima	19.1
98304	7	Sololá	701	Sololá	4	Finca Santa Victoria	3	Marzo	2023-03-30T00:00:00	2024-11-08T17:00:00	5	Humedad	45
98305	7	Sololá	701	Sololá	4	Finca Santa Victoria	3	Marzo	2023-03-30T00:00:00	2024-11-08T17:00:00	6	Velocidad del viento	4.8
98306	7	Sololá	701	Sololá	4	Finca Santa Victoria	3	Marzo	2023-03-30T00:00:00	2024-11-08T17:00:00	7	Dirección del viento	4.83
98307	7	Sololá	701	Sololá	4	Finca Santa Victoria	3	Marzo	2023-03-30T00:00:00	2024-11-08T17:00:00	1	Precipitación	0
98308	7	Sololá	701	Sololá	4	Finca Santa Victoria	3	Marzo	2023-03-30T00:00:00	2024-11-08T17:00:00	8	Radiación solar	141
98309	7	Sololá	701	Sololá	4	Finca Santa Victoria	3	Marzo	2023-03-30T00:00:00	2024-11-08T18:00:00	2	Temperatura media	16.8
98310	7	Sololá	701	Sololá	4	Finca Santa Victoria	3	Marzo	2023-03-30T00:00:00	2024-11-08T18:00:00	4	Temperatura máxima	19.1
98311	7	Sololá	701	Sololá	4	Finca Santa Victoria	3	Marzo	2023-03-30T00:00:00	2024-11-08T18:00:00	3	Temperatura mínima	16.8
98312	7	Sololá	701	Sololá	4	Finca Santa Victoria	3	Marzo	2023-03-30T00:00:00	2024-11-08T18:00:00	5	Humedad	55
98313	7	Sololá	701	Sololá	4	Finca Santa Victoria	3	Marzo	2023-03-30T00:00:00	2024-11-08T18:00:00	6	Velocidad del viento	3.2
98314	7	Sololá	701	Sololá	4	Finca Santa Victoria	3	Marzo	2023-03-30T00:00:00	2024-11-08T18:00:00	7	Dirección del viento	3.22
98315	7	Sololá	701	Sololá	4	Finca Santa Victoria	3	Marzo	2023-03-30T00:00:00	2024-11-08T18:00:00	1	Precipitación	0
98316	7	Sololá	701	Sololá	4	Finca Santa Victoria	3	Marzo	2023-03-30T00:00:00	2024-11-08T18:00:00	8	Radiación solar	31
98317	7	Sololá	701	Sololá	4	Finca Santa Victoria	3	Marzo	2023-03-30T00:00:00	2024-11-08T19:00:00	2	Temperatura media	14.9
98318	7	Sololá	701	Sololá	4	Finca Santa Victoria	3	Marzo	2023-03-30T00:00:00	2024-11-08T19:00:00	4	Temperatura máxima	16.8
98319	7	Sololá	701	Sololá	4	Finca Santa Victoria	3	Marzo	2023-03-30T00:00:00	2024-11-08T19:00:00	3	Temperatura mínima	14.9
98320	7	Sololá	701	Sololá	4	Finca Santa Victoria	3	Marzo	2023-03-30T00:00:00	2024-11-08T19:00:00	5	Humedad	72
98321	7	Sololá	701	Sololá	4	Finca Santa Victoria	3	Marzo	2023-03-30T00:00:00	2024-11-08T19:00:00	6	Velocidad del viento	3.2
98322	7	Sololá	701	Sololá	4	Finca Santa Victoria	3	Marzo	2023-03-30T00:00:00	2024-11-08T19:00:00	7	Dirección del viento	3.22
98323	7	Sololá	701	Sololá	4	Finca Santa Victoria	3	Marzo	2023-03-30T00:00:00	2024-11-08T19:00:00	1	Precipitación	0
98324	7	Sololá	701	Sololá	4	Finca Santa Victoria	3	Marzo	2023-03-30T00:00:00	2024-11-08T19:00:00	8	Radiación solar	0
98325	7	Sololá	701	Sololá	4	Finca Santa Victoria	3	Marzo	2023-03-30T00:00:00	2024-11-08T20:00:00	2	Temperatura media	14
98326	7	Sololá	701	Sololá	4	Finca Santa Victoria	3	Marzo	2023-03-30T00:00:00	2024-11-08T20:00:00	4	Temperatura máxima	15
98327	7	Sololá	701	Sololá	4	Finca Santa Victoria	3	Marzo	2023-03-30T00:00:00	2024-11-08T20:00:00	3	Temperatura mínima	13.9
98328	7	Sololá	701	Sololá	4	Finca Santa Victoria	3	Marzo	2023-03-30T00:00:00	2024-11-08T20:00:00	5	Humedad	77
98329	7	Sololá	701	Sololá	4	Finca Santa Victoria	3	Marzo	2023-03-30T00:00:00	2024-11-08T20:00:00	6	Velocidad del viento	1.6
98330	7	Sololá	701	Sololá	4	Finca Santa Victoria	3	Marzo	2023-03-30T00:00:00	2024-11-08T20:00:00	7	Dirección del viento	1.61
98331	7	Sololá	701	Sololá	4	Finca Santa Victoria	3	Marzo	2023-03-30T00:00:00	2024-11-08T20:00:00	1	Precipitación	0
98332	7	Sololá	701	Sololá	4	Finca Santa Victoria	3	Marzo	2023-03-30T00:00:00	2024-11-08T20:00:00	8	Radiación solar	0
98333	7	Sololá	701	Sololá	4	Finca Santa Victoria	3	Marzo	2023-03-30T00:00:00	2024-11-08T21:00:00	2	Temperatura media	13.1
98334	7	Sololá	701	Sololá	4	Finca Santa Victoria	3	Marzo	2023-03-30T00:00:00	2024-11-08T21:00:00	4	Temperatura máxima	13.9
98335	7	Sololá	701	Sololá	4	Finca Santa Victoria	3	Marzo	2023-03-30T00:00:00	2024-11-08T21:00:00	3	Temperatura mínima	13.1
98336	7	Sololá	701	Sololá	4	Finca Santa Victoria	3	Marzo	2023-03-30T00:00:00	2024-11-08T21:00:00	5	Humedad	80
98337	7	Sololá	701	Sololá	4	Finca Santa Victoria	3	Marzo	2023-03-30T00:00:00	2024-11-08T21:00:00	6	Velocidad del viento	3.2
98338	7	Sololá	701	Sololá	4	Finca Santa Victoria	3	Marzo	2023-03-30T00:00:00	2024-11-08T21:00:00	7	Dirección del viento	3.22
98339	7	Sololá	701	Sololá	4	Finca Santa Victoria	3	Marzo	2023-03-30T00:00:00	2024-11-08T21:00:00	1	Precipitación	0
98340	7	Sololá	701	Sololá	4	Finca Santa Victoria	3	Marzo	2023-03-30T00:00:00	2024-11-08T21:00:00	8	Radiación solar	0
98341	7	Sololá	701	Sololá	4	Finca Santa Victoria	3	Marzo	2023-03-30T00:00:00	2024-11-08T22:00:00	2	Temperatura media	12.6
98342	7	Sololá	701	Sololá	4	Finca Santa Victoria	3	Marzo	2023-03-30T00:00:00	2024-11-08T22:00:00	4	Temperatura máxima	13.2
98343	7	Sololá	701	Sololá	4	Finca Santa Victoria	3	Marzo	2023-03-30T00:00:00	2024-11-08T22:00:00	3	Temperatura mínima	12.6
98344	7	Sololá	701	Sololá	4	Finca Santa Victoria	3	Marzo	2023-03-30T00:00:00	2024-11-08T22:00:00	5	Humedad	81
98345	7	Sololá	701	Sololá	4	Finca Santa Victoria	3	Marzo	2023-03-30T00:00:00	2024-11-08T22:00:00	6	Velocidad del viento	1.6
98346	7	Sololá	701	Sololá	4	Finca Santa Victoria	3	Marzo	2023-03-30T00:00:00	2024-11-08T22:00:00	7	Dirección del viento	1.61
98347	7	Sololá	701	Sololá	4	Finca Santa Victoria	3	Marzo	2023-03-30T00:00:00	2024-11-08T22:00:00	1	Precipitación	0
98348	7	Sololá	701	Sololá	4	Finca Santa Victoria	3	Marzo	2023-03-30T00:00:00	2024-11-08T22:00:00	8	Radiación solar	0
98349	7	Sololá	701	Sololá	4	Finca Santa Victoria	3	Marzo	2023-03-30T00:00:00	2024-11-08T23:00:00	2	Temperatura media	11.9
98350	7	Sololá	701	Sololá	4	Finca Santa Victoria	3	Marzo	2023-03-30T00:00:00	2024-11-08T23:00:00	4	Temperatura máxima	12.6
98351	7	Sololá	701	Sololá	4	Finca Santa Victoria	3	Marzo	2023-03-30T00:00:00	2024-11-08T23:00:00	3	Temperatura mínima	11.9
98352	7	Sololá	701	Sololá	4	Finca Santa Victoria	3	Marzo	2023-03-30T00:00:00	2024-11-08T23:00:00	5	Humedad	83
98353	7	Sololá	701	Sololá	4	Finca Santa Victoria	3	Marzo	2023-03-30T00:00:00	2024-11-08T23:00:00	6	Velocidad del viento	1.6
98354	7	Sololá	701	Sololá	4	Finca Santa Victoria	3	Marzo	2023-03-30T00:00:00	2024-11-08T23:00:00	7	Dirección del viento	1.61
98355	7	Sololá	701	Sololá	4	Finca Santa Victoria	3	Marzo	2023-03-30T00:00:00	2024-11-08T23:00:00	1	Precipitación	0
98356	7	Sololá	701	Sololá	4	Finca Santa Victoria	3	Marzo	2023-03-30T00:00:00	2024-11-08T23:00:00	8	Radiación solar	0
98357	7	Sololá	701	Sololá	4	Finca Santa Victoria	3	Marzo	2023-03-31T00:00:00	2024-11-08T00:00:00	2	Temperatura media	11.6
98358	7	Sololá	701	Sololá	4	Finca Santa Victoria	3	Marzo	2023-03-31T00:00:00	2024-11-08T00:00:00	4	Temperatura máxima	11.9
98359	7	Sololá	701	Sololá	4	Finca Santa Victoria	3	Marzo	2023-03-31T00:00:00	2024-11-08T00:00:00	3	Temperatura mínima	11.6
98360	7	Sololá	701	Sololá	4	Finca Santa Victoria	3	Marzo	2023-03-31T00:00:00	2024-11-08T00:00:00	5	Humedad	83
98361	7	Sololá	701	Sololá	4	Finca Santa Victoria	3	Marzo	2023-03-31T00:00:00	2024-11-08T00:00:00	6	Velocidad del viento	1.6
98362	7	Sololá	701	Sololá	4	Finca Santa Victoria	3	Marzo	2023-03-31T00:00:00	2024-11-08T00:00:00	7	Dirección del viento	1.61
98363	7	Sololá	701	Sololá	4	Finca Santa Victoria	3	Marzo	2023-03-31T00:00:00	2024-11-08T00:00:00	1	Precipitación	0
98364	7	Sololá	701	Sololá	4	Finca Santa Victoria	3	Marzo	2023-03-31T00:00:00	2024-11-08T00:00:00	8	Radiación solar	0
98365	7	Sololá	701	Sololá	4	Finca Santa Victoria	3	Marzo	2023-03-31T00:00:00	2024-11-08T01:00:00	2	Temperatura media	10.9
98366	7	Sololá	701	Sololá	4	Finca Santa Victoria	3	Marzo	2023-03-31T00:00:00	2024-11-08T01:00:00	4	Temperatura máxima	11.6
98367	7	Sololá	701	Sololá	4	Finca Santa Victoria	3	Marzo	2023-03-31T00:00:00	2024-11-08T01:00:00	3	Temperatura mínima	10.8
98368	7	Sololá	701	Sololá	4	Finca Santa Victoria	3	Marzo	2023-03-31T00:00:00	2024-11-08T01:00:00	5	Humedad	84
98369	7	Sololá	701	Sololá	4	Finca Santa Victoria	3	Marzo	2023-03-31T00:00:00	2024-11-08T01:00:00	6	Velocidad del viento	0
98370	7	Sololá	701	Sololá	4	Finca Santa Victoria	3	Marzo	2023-03-31T00:00:00	2024-11-08T01:00:00	7	Dirección del viento	0
98371	7	Sololá	701	Sololá	4	Finca Santa Victoria	3	Marzo	2023-03-31T00:00:00	2024-11-08T01:00:00	1	Precipitación	0
98372	7	Sololá	701	Sololá	4	Finca Santa Victoria	3	Marzo	2023-03-31T00:00:00	2024-11-08T01:00:00	8	Radiación solar	0
98373	7	Sololá	701	Sololá	4	Finca Santa Victoria	3	Marzo	2023-03-31T00:00:00	2024-11-08T02:00:00	2	Temperatura media	10.7
98374	7	Sololá	701	Sololá	4	Finca Santa Victoria	3	Marzo	2023-03-31T00:00:00	2024-11-08T02:00:00	4	Temperatura máxima	10.9
98375	7	Sololá	701	Sololá	4	Finca Santa Victoria	3	Marzo	2023-03-31T00:00:00	2024-11-08T02:00:00	3	Temperatura mínima	10.7
98376	7	Sololá	701	Sololá	4	Finca Santa Victoria	3	Marzo	2023-03-31T00:00:00	2024-11-08T02:00:00	5	Humedad	86
98377	7	Sololá	701	Sololá	4	Finca Santa Victoria	3	Marzo	2023-03-31T00:00:00	2024-11-08T02:00:00	6	Velocidad del viento	1.6
98378	7	Sololá	701	Sololá	4	Finca Santa Victoria	3	Marzo	2023-03-31T00:00:00	2024-11-08T02:00:00	7	Dirección del viento	1.61
98379	7	Sololá	701	Sololá	4	Finca Santa Victoria	3	Marzo	2023-03-31T00:00:00	2024-11-08T02:00:00	1	Precipitación	0
98380	7	Sololá	701	Sololá	4	Finca Santa Victoria	3	Marzo	2023-03-31T00:00:00	2024-11-08T02:00:00	8	Radiación solar	0
98381	7	Sololá	701	Sololá	4	Finca Santa Victoria	3	Marzo	2023-03-31T00:00:00	2024-11-08T03:00:00	2	Temperatura media	10.6
98382	7	Sololá	701	Sololá	4	Finca Santa Victoria	3	Marzo	2023-03-31T00:00:00	2024-11-08T03:00:00	4	Temperatura máxima	10.8
98383	7	Sololá	701	Sololá	4	Finca Santa Victoria	3	Marzo	2023-03-31T00:00:00	2024-11-08T03:00:00	3	Temperatura mínima	10.5
98384	7	Sololá	701	Sololá	4	Finca Santa Victoria	3	Marzo	2023-03-31T00:00:00	2024-11-08T03:00:00	5	Humedad	85
98385	7	Sololá	701	Sololá	4	Finca Santa Victoria	3	Marzo	2023-03-31T00:00:00	2024-11-08T03:00:00	6	Velocidad del viento	1.6
98386	7	Sololá	701	Sololá	4	Finca Santa Victoria	3	Marzo	2023-03-31T00:00:00	2024-11-08T03:00:00	7	Dirección del viento	1.61
98387	7	Sololá	701	Sololá	4	Finca Santa Victoria	3	Marzo	2023-03-31T00:00:00	2024-11-08T03:00:00	1	Precipitación	0
98388	7	Sololá	701	Sololá	4	Finca Santa Victoria	3	Marzo	2023-03-31T00:00:00	2024-11-08T03:00:00	8	Radiación solar	0
98389	7	Sololá	701	Sololá	4	Finca Santa Victoria	3	Marzo	2023-03-31T00:00:00	2024-11-08T04:00:00	2	Temperatura media	10.2
98390	7	Sololá	701	Sololá	4	Finca Santa Victoria	3	Marzo	2023-03-31T00:00:00	2024-11-08T04:00:00	4	Temperatura máxima	10.6
98391	7	Sololá	701	Sololá	4	Finca Santa Victoria	3	Marzo	2023-03-31T00:00:00	2024-11-08T04:00:00	3	Temperatura mínima	10.1
98392	7	Sololá	701	Sololá	4	Finca Santa Victoria	3	Marzo	2023-03-31T00:00:00	2024-11-08T04:00:00	5	Humedad	89
98393	7	Sololá	701	Sololá	4	Finca Santa Victoria	3	Marzo	2023-03-31T00:00:00	2024-11-08T04:00:00	6	Velocidad del viento	1.6
98394	7	Sololá	701	Sololá	4	Finca Santa Victoria	3	Marzo	2023-03-31T00:00:00	2024-11-08T04:00:00	7	Dirección del viento	1.61
98395	7	Sololá	701	Sololá	4	Finca Santa Victoria	3	Marzo	2023-03-31T00:00:00	2024-11-08T04:00:00	1	Precipitación	0
98396	7	Sololá	701	Sololá	4	Finca Santa Victoria	3	Marzo	2023-03-31T00:00:00	2024-11-08T04:00:00	8	Radiación solar	0
98397	7	Sololá	701	Sololá	4	Finca Santa Victoria	3	Marzo	2023-03-31T00:00:00	2024-11-08T05:00:00	2	Temperatura media	11.4
98398	7	Sololá	701	Sololá	4	Finca Santa Victoria	3	Marzo	2023-03-31T00:00:00	2024-11-08T05:00:00	4	Temperatura máxima	11.4
98399	7	Sololá	701	Sololá	4	Finca Santa Victoria	3	Marzo	2023-03-31T00:00:00	2024-11-08T05:00:00	3	Temperatura mínima	10.2
98400	7	Sololá	701	Sololá	4	Finca Santa Victoria	3	Marzo	2023-03-31T00:00:00	2024-11-08T05:00:00	5	Humedad	82
98401	7	Sololá	701	Sololá	4	Finca Santa Victoria	3	Marzo	2023-03-31T00:00:00	2024-11-08T05:00:00	6	Velocidad del viento	0
98402	7	Sololá	701	Sololá	4	Finca Santa Victoria	3	Marzo	2023-03-31T00:00:00	2024-11-08T05:00:00	7	Dirección del viento	0
98403	7	Sololá	701	Sololá	4	Finca Santa Victoria	3	Marzo	2023-03-31T00:00:00	2024-11-08T05:00:00	1	Precipitación	0
98404	7	Sololá	701	Sololá	4	Finca Santa Victoria	3	Marzo	2023-03-31T00:00:00	2024-11-08T05:00:00	8	Radiación solar	0
98405	7	Sololá	701	Sololá	4	Finca Santa Victoria	3	Marzo	2023-03-31T00:00:00	2024-11-08T06:00:00	2	Temperatura media	10.9
98406	7	Sololá	701	Sololá	4	Finca Santa Victoria	3	Marzo	2023-03-31T00:00:00	2024-11-08T06:00:00	4	Temperatura máxima	11.4
98407	7	Sololá	701	Sololá	4	Finca Santa Victoria	3	Marzo	2023-03-31T00:00:00	2024-11-08T06:00:00	3	Temperatura mínima	10.9
98408	7	Sololá	701	Sololá	4	Finca Santa Victoria	3	Marzo	2023-03-31T00:00:00	2024-11-08T06:00:00	5	Humedad	86
98409	7	Sololá	701	Sololá	4	Finca Santa Victoria	3	Marzo	2023-03-31T00:00:00	2024-11-08T06:00:00	6	Velocidad del viento	0
98410	7	Sololá	701	Sololá	4	Finca Santa Victoria	3	Marzo	2023-03-31T00:00:00	2024-11-08T06:00:00	7	Dirección del viento	0
98411	7	Sololá	701	Sololá	4	Finca Santa Victoria	3	Marzo	2023-03-31T00:00:00	2024-11-08T06:00:00	1	Precipitación	0
98412	7	Sololá	701	Sololá	4	Finca Santa Victoria	3	Marzo	2023-03-31T00:00:00	2024-11-08T06:00:00	8	Radiación solar	0
98413	7	Sololá	701	Sololá	4	Finca Santa Victoria	3	Marzo	2023-03-31T00:00:00	2024-11-08T07:00:00	2	Temperatura media	10.9
98414	7	Sololá	701	Sololá	4	Finca Santa Victoria	3	Marzo	2023-03-31T00:00:00	2024-11-08T07:00:00	4	Temperatura máxima	10.9
98415	7	Sololá	701	Sololá	4	Finca Santa Victoria	3	Marzo	2023-03-31T00:00:00	2024-11-08T07:00:00	3	Temperatura mínima	10.7
98416	7	Sololá	701	Sololá	4	Finca Santa Victoria	3	Marzo	2023-03-31T00:00:00	2024-11-08T07:00:00	5	Humedad	87
98417	7	Sololá	701	Sololá	4	Finca Santa Victoria	3	Marzo	2023-03-31T00:00:00	2024-11-08T07:00:00	6	Velocidad del viento	0
98418	7	Sololá	701	Sololá	4	Finca Santa Victoria	3	Marzo	2023-03-31T00:00:00	2024-11-08T07:00:00	7	Dirección del viento	0
98419	7	Sololá	701	Sololá	4	Finca Santa Victoria	3	Marzo	2023-03-31T00:00:00	2024-11-08T07:00:00	1	Precipitación	0
98420	7	Sololá	701	Sololá	4	Finca Santa Victoria	3	Marzo	2023-03-31T00:00:00	2024-11-08T07:00:00	8	Radiación solar	20
98421	7	Sololá	701	Sololá	4	Finca Santa Victoria	3	Marzo	2023-03-31T00:00:00	2024-11-08T08:00:00	2	Temperatura media	14.6
98422	7	Sololá	701	Sololá	4	Finca Santa Victoria	3	Marzo	2023-03-31T00:00:00	2024-11-08T08:00:00	4	Temperatura máxima	14.7
98423	7	Sololá	701	Sololá	4	Finca Santa Victoria	3	Marzo	2023-03-31T00:00:00	2024-11-08T08:00:00	3	Temperatura mínima	10.9
98424	7	Sololá	701	Sololá	4	Finca Santa Victoria	3	Marzo	2023-03-31T00:00:00	2024-11-08T08:00:00	5	Humedad	72
98425	7	Sololá	701	Sololá	4	Finca Santa Victoria	3	Marzo	2023-03-31T00:00:00	2024-11-08T08:00:00	6	Velocidad del viento	3.2
98426	7	Sololá	701	Sololá	4	Finca Santa Victoria	3	Marzo	2023-03-31T00:00:00	2024-11-08T08:00:00	7	Dirección del viento	3.22
98427	7	Sololá	701	Sololá	4	Finca Santa Victoria	3	Marzo	2023-03-31T00:00:00	2024-11-08T08:00:00	1	Precipitación	0
98428	7	Sololá	701	Sololá	4	Finca Santa Victoria	3	Marzo	2023-03-31T00:00:00	2024-11-08T08:00:00	8	Radiación solar	207
98429	7	Sololá	701	Sololá	4	Finca Santa Victoria	3	Marzo	2023-03-31T00:00:00	2024-11-08T09:00:00	2	Temperatura media	17.1
98430	7	Sololá	701	Sololá	4	Finca Santa Victoria	3	Marzo	2023-03-31T00:00:00	2024-11-08T09:00:00	4	Temperatura máxima	17.1
98431	7	Sololá	701	Sololá	4	Finca Santa Victoria	3	Marzo	2023-03-31T00:00:00	2024-11-08T09:00:00	3	Temperatura mínima	14.6
98432	7	Sololá	701	Sololá	4	Finca Santa Victoria	3	Marzo	2023-03-31T00:00:00	2024-11-08T09:00:00	5	Humedad	63
98433	7	Sololá	701	Sololá	4	Finca Santa Victoria	3	Marzo	2023-03-31T00:00:00	2024-11-08T09:00:00	6	Velocidad del viento	4.8
98434	7	Sololá	701	Sololá	4	Finca Santa Victoria	3	Marzo	2023-03-31T00:00:00	2024-11-08T09:00:00	7	Dirección del viento	4.83
98435	7	Sololá	701	Sololá	4	Finca Santa Victoria	3	Marzo	2023-03-31T00:00:00	2024-11-08T09:00:00	1	Precipitación	0
98436	7	Sololá	701	Sololá	4	Finca Santa Victoria	3	Marzo	2023-03-31T00:00:00	2024-11-08T09:00:00	8	Radiación solar	561
98437	7	Sololá	701	Sololá	4	Finca Santa Victoria	3	Marzo	2023-03-31T00:00:00	2024-11-08T10:00:00	2	Temperatura media	19.2
98438	7	Sololá	701	Sololá	4	Finca Santa Victoria	3	Marzo	2023-03-31T00:00:00	2024-11-08T10:00:00	4	Temperatura máxima	19.3
98439	7	Sololá	701	Sololá	4	Finca Santa Victoria	3	Marzo	2023-03-31T00:00:00	2024-11-08T10:00:00	3	Temperatura mínima	17.1
98440	7	Sololá	701	Sololá	4	Finca Santa Victoria	3	Marzo	2023-03-31T00:00:00	2024-11-08T10:00:00	5	Humedad	56
98441	7	Sololá	701	Sololá	4	Finca Santa Victoria	3	Marzo	2023-03-31T00:00:00	2024-11-08T10:00:00	6	Velocidad del viento	3.2
98442	7	Sololá	701	Sololá	4	Finca Santa Victoria	3	Marzo	2023-03-31T00:00:00	2024-11-08T10:00:00	7	Dirección del viento	3.22
98443	7	Sololá	701	Sololá	4	Finca Santa Victoria	3	Marzo	2023-03-31T00:00:00	2024-11-08T10:00:00	1	Precipitación	0
98444	7	Sololá	701	Sololá	4	Finca Santa Victoria	3	Marzo	2023-03-31T00:00:00	2024-11-08T10:00:00	8	Radiación solar	805
98445	7	Sololá	701	Sololá	4	Finca Santa Victoria	3	Marzo	2023-03-31T00:00:00	2024-11-08T11:00:00	2	Temperatura media	21.1
98446	7	Sololá	701	Sololá	4	Finca Santa Victoria	3	Marzo	2023-03-31T00:00:00	2024-11-08T11:00:00	4	Temperatura máxima	21.3
98447	7	Sololá	701	Sololá	4	Finca Santa Victoria	3	Marzo	2023-03-31T00:00:00	2024-11-08T11:00:00	3	Temperatura mínima	19.3
98448	7	Sololá	701	Sololá	4	Finca Santa Victoria	3	Marzo	2023-03-31T00:00:00	2024-11-08T11:00:00	5	Humedad	54
98449	7	Sololá	701	Sololá	4	Finca Santa Victoria	3	Marzo	2023-03-31T00:00:00	2024-11-08T11:00:00	6	Velocidad del viento	3.2
98450	7	Sololá	701	Sololá	4	Finca Santa Victoria	3	Marzo	2023-03-31T00:00:00	2024-11-08T11:00:00	7	Dirección del viento	3.22
98451	7	Sololá	701	Sololá	4	Finca Santa Victoria	3	Marzo	2023-03-31T00:00:00	2024-11-08T11:00:00	1	Precipitación	0
98452	7	Sololá	701	Sololá	4	Finca Santa Victoria	3	Marzo	2023-03-31T00:00:00	2024-11-08T11:00:00	8	Radiación solar	949
98453	7	Sololá	701	Sololá	4	Finca Santa Victoria	3	Marzo	2023-03-31T00:00:00	2024-11-08T12:00:00	2	Temperatura media	21.2
98454	7	Sololá	701	Sololá	4	Finca Santa Victoria	3	Marzo	2023-03-31T00:00:00	2024-11-08T12:00:00	4	Temperatura máxima	21.4
98455	7	Sololá	701	Sololá	4	Finca Santa Victoria	3	Marzo	2023-03-31T00:00:00	2024-11-08T12:00:00	3	Temperatura mínima	20.4
98456	7	Sololá	701	Sololá	4	Finca Santa Victoria	3	Marzo	2023-03-31T00:00:00	2024-11-08T12:00:00	5	Humedad	52
98457	7	Sololá	701	Sololá	4	Finca Santa Victoria	3	Marzo	2023-03-31T00:00:00	2024-11-08T12:00:00	6	Velocidad del viento	3.2
98458	7	Sololá	701	Sololá	4	Finca Santa Victoria	3	Marzo	2023-03-31T00:00:00	2024-11-08T12:00:00	7	Dirección del viento	3.22
98459	7	Sololá	701	Sololá	4	Finca Santa Victoria	3	Marzo	2023-03-31T00:00:00	2024-11-08T12:00:00	1	Precipitación	0
98460	7	Sololá	701	Sololá	4	Finca Santa Victoria	3	Marzo	2023-03-31T00:00:00	2024-11-08T12:00:00	8	Radiación solar	1014
98461	7	Sololá	701	Sololá	4	Finca Santa Victoria	3	Marzo	2023-03-31T00:00:00	2024-11-08T13:00:00	2	Temperatura media	20.7
98462	7	Sololá	701	Sololá	4	Finca Santa Victoria	3	Marzo	2023-03-31T00:00:00	2024-11-08T13:00:00	4	Temperatura máxima	22.1
98463	7	Sololá	701	Sololá	4	Finca Santa Victoria	3	Marzo	2023-03-31T00:00:00	2024-11-08T13:00:00	3	Temperatura mínima	20.7
98464	7	Sololá	701	Sololá	4	Finca Santa Victoria	3	Marzo	2023-03-31T00:00:00	2024-11-08T13:00:00	5	Humedad	62
98465	7	Sololá	701	Sololá	4	Finca Santa Victoria	3	Marzo	2023-03-31T00:00:00	2024-11-08T13:00:00	6	Velocidad del viento	4.8
98466	7	Sololá	701	Sololá	4	Finca Santa Victoria	3	Marzo	2023-03-31T00:00:00	2024-11-08T13:00:00	7	Dirección del viento	4.83
98467	7	Sololá	701	Sololá	4	Finca Santa Victoria	3	Marzo	2023-03-31T00:00:00	2024-11-08T13:00:00	1	Precipitación	0
98468	7	Sololá	701	Sololá	4	Finca Santa Victoria	3	Marzo	2023-03-31T00:00:00	2024-11-08T13:00:00	8	Radiación solar	819
98469	7	Sololá	701	Sololá	4	Finca Santa Victoria	3	Marzo	2023-03-31T00:00:00	2024-11-08T14:00:00	2	Temperatura media	20.2
98470	7	Sololá	701	Sololá	4	Finca Santa Victoria	3	Marzo	2023-03-31T00:00:00	2024-11-08T14:00:00	4	Temperatura máxima	21.1
98471	7	Sololá	701	Sololá	4	Finca Santa Victoria	3	Marzo	2023-03-31T00:00:00	2024-11-08T14:00:00	3	Temperatura mínima	19.8
98472	7	Sololá	701	Sololá	4	Finca Santa Victoria	3	Marzo	2023-03-31T00:00:00	2024-11-08T14:00:00	5	Humedad	72
98473	7	Sololá	701	Sololá	4	Finca Santa Victoria	3	Marzo	2023-03-31T00:00:00	2024-11-08T14:00:00	6	Velocidad del viento	4.8
98474	7	Sololá	701	Sololá	4	Finca Santa Victoria	3	Marzo	2023-03-31T00:00:00	2024-11-08T14:00:00	7	Dirección del viento	4.83
98475	7	Sololá	701	Sololá	4	Finca Santa Victoria	3	Marzo	2023-03-31T00:00:00	2024-11-08T14:00:00	1	Precipitación	0
98476	7	Sololá	701	Sololá	4	Finca Santa Victoria	3	Marzo	2023-03-31T00:00:00	2024-11-08T14:00:00	8	Radiación solar	228
98477	7	Sololá	701	Sololá	4	Finca Santa Victoria	3	Marzo	2023-03-31T00:00:00	2024-11-08T15:00:00	2	Temperatura media	17.6
98478	7	Sololá	701	Sololá	4	Finca Santa Victoria	3	Marzo	2023-03-31T00:00:00	2024-11-08T15:00:00	4	Temperatura máxima	20.2
98479	7	Sololá	701	Sololá	4	Finca Santa Victoria	3	Marzo	2023-03-31T00:00:00	2024-11-08T15:00:00	3	Temperatura mínima	17.6
98480	7	Sololá	701	Sololá	4	Finca Santa Victoria	3	Marzo	2023-03-31T00:00:00	2024-11-08T15:00:00	5	Humedad	82
98481	7	Sololá	701	Sololá	4	Finca Santa Victoria	3	Marzo	2023-03-31T00:00:00	2024-11-08T15:00:00	6	Velocidad del viento	6.4
98482	7	Sololá	701	Sololá	4	Finca Santa Victoria	3	Marzo	2023-03-31T00:00:00	2024-11-08T15:00:00	7	Dirección del viento	6.44
98483	7	Sololá	701	Sololá	4	Finca Santa Victoria	3	Marzo	2023-03-31T00:00:00	2024-11-08T15:00:00	1	Precipitación	0
98484	7	Sololá	701	Sololá	4	Finca Santa Victoria	3	Marzo	2023-03-31T00:00:00	2024-11-08T15:00:00	8	Radiación solar	224
98485	7	Sololá	701	Sololá	4	Finca Santa Victoria	3	Marzo	2023-03-31T00:00:00	2024-11-08T16:00:00	2	Temperatura media	16.9
98486	7	Sololá	701	Sololá	4	Finca Santa Victoria	3	Marzo	2023-03-31T00:00:00	2024-11-08T16:00:00	4	Temperatura máxima	17.7
98487	7	Sololá	701	Sololá	4	Finca Santa Victoria	3	Marzo	2023-03-31T00:00:00	2024-11-08T16:00:00	3	Temperatura mínima	16.6
98488	7	Sololá	701	Sololá	4	Finca Santa Victoria	3	Marzo	2023-03-31T00:00:00	2024-11-08T16:00:00	5	Humedad	86
98489	7	Sololá	701	Sololá	4	Finca Santa Victoria	3	Marzo	2023-03-31T00:00:00	2024-11-08T16:00:00	6	Velocidad del viento	4.8
98490	7	Sololá	701	Sololá	4	Finca Santa Victoria	3	Marzo	2023-03-31T00:00:00	2024-11-08T16:00:00	7	Dirección del viento	4.83
98491	7	Sololá	701	Sololá	4	Finca Santa Victoria	3	Marzo	2023-03-31T00:00:00	2024-11-08T16:00:00	1	Precipitación	0
98492	7	Sololá	701	Sololá	4	Finca Santa Victoria	3	Marzo	2023-03-31T00:00:00	2024-11-08T16:00:00	8	Radiación solar	163
98493	7	Sololá	701	Sololá	4	Finca Santa Victoria	3	Marzo	2023-03-31T00:00:00	2024-11-08T17:00:00	2	Temperatura media	16.2
98494	7	Sololá	701	Sololá	4	Finca Santa Victoria	3	Marzo	2023-03-31T00:00:00	2024-11-08T17:00:00	4	Temperatura máxima	16.9
98495	7	Sololá	701	Sololá	4	Finca Santa Victoria	3	Marzo	2023-03-31T00:00:00	2024-11-08T17:00:00	3	Temperatura mínima	15.9
98496	7	Sololá	701	Sololá	4	Finca Santa Victoria	3	Marzo	2023-03-31T00:00:00	2024-11-08T17:00:00	5	Humedad	89
98497	7	Sololá	701	Sololá	4	Finca Santa Victoria	3	Marzo	2023-03-31T00:00:00	2024-11-08T17:00:00	6	Velocidad del viento	3.2
98498	7	Sololá	701	Sololá	4	Finca Santa Victoria	3	Marzo	2023-03-31T00:00:00	2024-11-08T17:00:00	7	Dirección del viento	3.22
98499	7	Sololá	701	Sololá	4	Finca Santa Victoria	3	Marzo	2023-03-31T00:00:00	2024-11-08T17:00:00	1	Precipitación	0
98500	7	Sololá	701	Sololá	4	Finca Santa Victoria	3	Marzo	2023-03-31T00:00:00	2024-11-08T17:00:00	8	Radiación solar	94
98501	7	Sololá	701	Sololá	4	Finca Santa Victoria	3	Marzo	2023-03-31T00:00:00	2024-11-08T18:00:00	2	Temperatura media	15.6
98502	7	Sololá	701	Sololá	4	Finca Santa Victoria	3	Marzo	2023-03-31T00:00:00	2024-11-08T18:00:00	4	Temperatura máxima	16.3
98503	7	Sololá	701	Sololá	4	Finca Santa Victoria	3	Marzo	2023-03-31T00:00:00	2024-11-08T18:00:00	3	Temperatura mínima	15.6
98504	7	Sololá	701	Sololá	4	Finca Santa Victoria	3	Marzo	2023-03-31T00:00:00	2024-11-08T18:00:00	5	Humedad	91
98505	7	Sololá	701	Sololá	4	Finca Santa Victoria	3	Marzo	2023-03-31T00:00:00	2024-11-08T18:00:00	6	Velocidad del viento	1.6
98506	7	Sololá	701	Sololá	4	Finca Santa Victoria	3	Marzo	2023-03-31T00:00:00	2024-11-08T18:00:00	7	Dirección del viento	1.61
98507	7	Sololá	701	Sololá	4	Finca Santa Victoria	3	Marzo	2023-03-31T00:00:00	2024-11-08T18:00:00	1	Precipitación	0
98508	7	Sololá	701	Sololá	4	Finca Santa Victoria	3	Marzo	2023-03-31T00:00:00	2024-11-08T18:00:00	8	Radiación solar	51
98509	7	Sololá	701	Sololá	4	Finca Santa Victoria	3	Marzo	2023-03-31T00:00:00	2024-11-08T19:00:00	2	Temperatura media	14.5
98510	7	Sololá	701	Sololá	4	Finca Santa Victoria	3	Marzo	2023-03-31T00:00:00	2024-11-08T19:00:00	4	Temperatura máxima	15.6
98511	7	Sololá	701	Sololá	4	Finca Santa Victoria	3	Marzo	2023-03-31T00:00:00	2024-11-08T19:00:00	3	Temperatura mínima	14.4
98512	7	Sololá	701	Sololá	4	Finca Santa Victoria	3	Marzo	2023-03-31T00:00:00	2024-11-08T19:00:00	5	Humedad	94
98513	7	Sololá	701	Sololá	4	Finca Santa Victoria	3	Marzo	2023-03-31T00:00:00	2024-11-08T19:00:00	6	Velocidad del viento	0
98514	7	Sololá	701	Sololá	4	Finca Santa Victoria	3	Marzo	2023-03-31T00:00:00	2024-11-08T19:00:00	7	Dirección del viento	0
98515	7	Sololá	701	Sololá	4	Finca Santa Victoria	3	Marzo	2023-03-31T00:00:00	2024-11-08T19:00:00	1	Precipitación	0
98516	7	Sololá	701	Sololá	4	Finca Santa Victoria	3	Marzo	2023-03-31T00:00:00	2024-11-08T19:00:00	8	Radiación solar	0
98517	7	Sololá	701	Sololá	4	Finca Santa Victoria	3	Marzo	2023-03-31T00:00:00	2024-11-08T20:00:00	2	Temperatura media	12.5
98518	7	Sololá	701	Sololá	4	Finca Santa Victoria	3	Marzo	2023-03-31T00:00:00	2024-11-08T20:00:00	4	Temperatura máxima	14.5
98519	7	Sololá	701	Sololá	4	Finca Santa Victoria	3	Marzo	2023-03-31T00:00:00	2024-11-08T20:00:00	3	Temperatura mínima	12.5
98520	7	Sololá	701	Sololá	4	Finca Santa Victoria	3	Marzo	2023-03-31T00:00:00	2024-11-08T20:00:00	5	Humedad	91
98521	7	Sololá	701	Sololá	4	Finca Santa Victoria	3	Marzo	2023-03-31T00:00:00	2024-11-08T20:00:00	6	Velocidad del viento	0
98522	7	Sololá	701	Sololá	4	Finca Santa Victoria	3	Marzo	2023-03-31T00:00:00	2024-11-08T20:00:00	7	Dirección del viento	0
98523	7	Sololá	701	Sololá	4	Finca Santa Victoria	3	Marzo	2023-03-31T00:00:00	2024-11-08T20:00:00	1	Precipitación	0
98524	7	Sololá	701	Sololá	4	Finca Santa Victoria	3	Marzo	2023-03-31T00:00:00	2024-11-08T20:00:00	8	Radiación solar	0
98525	7	Sololá	701	Sololá	4	Finca Santa Victoria	3	Marzo	2023-03-31T00:00:00	2024-11-08T21:00:00	2	Temperatura media	11.9
98526	7	Sololá	701	Sololá	4	Finca Santa Victoria	3	Marzo	2023-03-31T00:00:00	2024-11-08T21:00:00	4	Temperatura máxima	12.5
98527	7	Sololá	701	Sololá	4	Finca Santa Victoria	3	Marzo	2023-03-31T00:00:00	2024-11-08T21:00:00	3	Temperatura mínima	11.9
98528	7	Sololá	701	Sololá	4	Finca Santa Victoria	3	Marzo	2023-03-31T00:00:00	2024-11-08T21:00:00	5	Humedad	89
98529	7	Sololá	701	Sololá	4	Finca Santa Victoria	3	Marzo	2023-03-31T00:00:00	2024-11-08T21:00:00	6	Velocidad del viento	0
98530	7	Sololá	701	Sololá	4	Finca Santa Victoria	3	Marzo	2023-03-31T00:00:00	2024-11-08T21:00:00	7	Dirección del viento	0
98531	7	Sololá	701	Sololá	4	Finca Santa Victoria	3	Marzo	2023-03-31T00:00:00	2024-11-08T21:00:00	1	Precipitación	0
98532	7	Sololá	701	Sololá	4	Finca Santa Victoria	3	Marzo	2023-03-31T00:00:00	2024-11-08T21:00:00	8	Radiación solar	0
98533	7	Sololá	701	Sololá	4	Finca Santa Victoria	3	Marzo	2023-03-31T00:00:00	2024-11-08T22:00:00	2	Temperatura media	11.7
98534	7	Sololá	701	Sololá	4	Finca Santa Victoria	3	Marzo	2023-03-31T00:00:00	2024-11-08T22:00:00	4	Temperatura máxima	12.1
98535	7	Sololá	701	Sololá	4	Finca Santa Victoria	3	Marzo	2023-03-31T00:00:00	2024-11-08T22:00:00	3	Temperatura mínima	11.6
98536	7	Sololá	701	Sololá	4	Finca Santa Victoria	3	Marzo	2023-03-31T00:00:00	2024-11-08T22:00:00	5	Humedad	85
98537	7	Sololá	701	Sololá	4	Finca Santa Victoria	3	Marzo	2023-03-31T00:00:00	2024-11-08T22:00:00	6	Velocidad del viento	0
98538	7	Sololá	701	Sololá	4	Finca Santa Victoria	3	Marzo	2023-03-31T00:00:00	2024-11-08T22:00:00	7	Dirección del viento	0
98539	7	Sololá	701	Sololá	4	Finca Santa Victoria	3	Marzo	2023-03-31T00:00:00	2024-11-08T22:00:00	1	Precipitación	0
98540	7	Sololá	701	Sololá	4	Finca Santa Victoria	3	Marzo	2023-03-31T00:00:00	2024-11-08T22:00:00	8	Radiación solar	0
98541	7	Sololá	701	Sololá	4	Finca Santa Victoria	3	Marzo	2023-03-31T00:00:00	2024-11-08T23:00:00	2	Temperatura media	11.4
98542	7	Sololá	701	Sololá	4	Finca Santa Victoria	3	Marzo	2023-03-31T00:00:00	2024-11-08T23:00:00	4	Temperatura máxima	11.8
98543	7	Sololá	701	Sololá	4	Finca Santa Victoria	3	Marzo	2023-03-31T00:00:00	2024-11-08T23:00:00	3	Temperatura mínima	11.4
98544	7	Sololá	701	Sololá	4	Finca Santa Victoria	3	Marzo	2023-03-31T00:00:00	2024-11-08T23:00:00	5	Humedad	89
98545	7	Sololá	701	Sololá	4	Finca Santa Victoria	3	Marzo	2023-03-31T00:00:00	2024-11-08T23:00:00	6	Velocidad del viento	1.6
98546	7	Sololá	701	Sololá	4	Finca Santa Victoria	3	Marzo	2023-03-31T00:00:00	2024-11-08T23:00:00	7	Dirección del viento	1.61
98547	7	Sololá	701	Sololá	4	Finca Santa Victoria	3	Marzo	2023-03-31T00:00:00	2024-11-08T23:00:00	1	Precipitación	0
98548	7	Sololá	701	Sololá	4	Finca Santa Victoria	3	Marzo	2023-03-31T00:00:00	2024-11-08T23:00:00	8	Radiación solar	0
98549	7	Sololá	701	Sololá	4	Finca Santa Victoria	4	Abril	2023-01-04T00:00:00	2024-11-08T00:00:00	2	Temperatura media	10.7
98550	7	Sololá	701	Sololá	4	Finca Santa Victoria	4	Abril	2023-01-04T00:00:00	2024-11-08T00:00:00	4	Temperatura máxima	11.5
98551	7	Sololá	701	Sololá	4	Finca Santa Victoria	4	Abril	2023-01-04T00:00:00	2024-11-08T00:00:00	3	Temperatura mínima	10.7
98552	7	Sololá	701	Sololá	4	Finca Santa Victoria	4	Abril	2023-01-04T00:00:00	2024-11-08T00:00:00	5	Humedad	92
98553	7	Sololá	701	Sololá	4	Finca Santa Victoria	4	Abril	2023-01-04T00:00:00	2024-11-08T00:00:00	6	Velocidad del viento	1.6
98554	7	Sololá	701	Sololá	4	Finca Santa Victoria	4	Abril	2023-01-04T00:00:00	2024-11-08T00:00:00	7	Dirección del viento	1.61
98555	7	Sololá	701	Sololá	4	Finca Santa Victoria	4	Abril	2023-01-04T00:00:00	2024-11-08T00:00:00	1	Precipitación	0
98556	7	Sololá	701	Sololá	4	Finca Santa Victoria	4	Abril	2023-01-04T00:00:00	2024-11-08T00:00:00	8	Radiación solar	0
98557	7	Sololá	701	Sololá	4	Finca Santa Victoria	4	Abril	2023-01-04T00:00:00	2024-11-08T01:00:00	2	Temperatura media	10.5
98558	7	Sololá	701	Sololá	4	Finca Santa Victoria	4	Abril	2023-01-04T00:00:00	2024-11-08T01:00:00	4	Temperatura máxima	10.7
98559	7	Sololá	701	Sololá	4	Finca Santa Victoria	4	Abril	2023-01-04T00:00:00	2024-11-08T01:00:00	3	Temperatura mínima	10.3
98560	7	Sololá	701	Sololá	4	Finca Santa Victoria	4	Abril	2023-01-04T00:00:00	2024-11-08T01:00:00	5	Humedad	94
98561	7	Sololá	701	Sololá	4	Finca Santa Victoria	4	Abril	2023-01-04T00:00:00	2024-11-08T01:00:00	6	Velocidad del viento	1.6
98562	7	Sololá	701	Sololá	4	Finca Santa Victoria	4	Abril	2023-01-04T00:00:00	2024-11-08T01:00:00	7	Dirección del viento	1.61
98563	7	Sololá	701	Sololá	4	Finca Santa Victoria	4	Abril	2023-01-04T00:00:00	2024-11-08T01:00:00	1	Precipitación	0
98564	7	Sololá	701	Sololá	4	Finca Santa Victoria	4	Abril	2023-01-04T00:00:00	2024-11-08T01:00:00	8	Radiación solar	0
98565	7	Sololá	701	Sololá	4	Finca Santa Victoria	4	Abril	2023-01-04T00:00:00	2024-11-08T02:00:00	2	Temperatura media	10.3
98566	7	Sololá	701	Sololá	4	Finca Santa Victoria	4	Abril	2023-01-04T00:00:00	2024-11-08T02:00:00	4	Temperatura máxima	10.6
98567	7	Sololá	701	Sololá	4	Finca Santa Victoria	4	Abril	2023-01-04T00:00:00	2024-11-08T02:00:00	3	Temperatura mínima	10.3
98568	7	Sololá	701	Sololá	4	Finca Santa Victoria	4	Abril	2023-01-04T00:00:00	2024-11-08T02:00:00	5	Humedad	96
98569	7	Sololá	701	Sololá	4	Finca Santa Victoria	4	Abril	2023-01-04T00:00:00	2024-11-08T02:00:00	6	Velocidad del viento	1.6
98570	7	Sololá	701	Sololá	4	Finca Santa Victoria	4	Abril	2023-01-04T00:00:00	2024-11-08T02:00:00	7	Dirección del viento	1.61
98571	7	Sololá	701	Sololá	4	Finca Santa Victoria	4	Abril	2023-01-04T00:00:00	2024-11-08T02:00:00	1	Precipitación	0
98572	7	Sololá	701	Sololá	4	Finca Santa Victoria	4	Abril	2023-01-04T00:00:00	2024-11-08T02:00:00	8	Radiación solar	0
98573	7	Sololá	701	Sololá	4	Finca Santa Victoria	4	Abril	2023-01-04T00:00:00	2024-11-08T03:00:00	2	Temperatura media	9.9
98574	7	Sololá	701	Sololá	4	Finca Santa Victoria	4	Abril	2023-01-04T00:00:00	2024-11-08T03:00:00	4	Temperatura máxima	10.4
98575	7	Sololá	701	Sololá	4	Finca Santa Victoria	4	Abril	2023-01-04T00:00:00	2024-11-08T03:00:00	3	Temperatura mínima	9.9
98576	7	Sololá	701	Sololá	4	Finca Santa Victoria	4	Abril	2023-01-04T00:00:00	2024-11-08T03:00:00	5	Humedad	95
98577	7	Sololá	701	Sololá	4	Finca Santa Victoria	4	Abril	2023-01-04T00:00:00	2024-11-08T03:00:00	6	Velocidad del viento	1.6
98578	7	Sololá	701	Sololá	4	Finca Santa Victoria	4	Abril	2023-01-04T00:00:00	2024-11-08T03:00:00	7	Dirección del viento	1.61
98579	7	Sololá	701	Sololá	4	Finca Santa Victoria	4	Abril	2023-01-04T00:00:00	2024-11-08T03:00:00	1	Precipitación	0
98580	7	Sololá	701	Sololá	4	Finca Santa Victoria	4	Abril	2023-01-04T00:00:00	2024-11-08T03:00:00	8	Radiación solar	0
98581	7	Sololá	701	Sololá	4	Finca Santa Victoria	4	Abril	2023-01-04T00:00:00	2024-11-08T04:00:00	2	Temperatura media	9.8
98582	7	Sololá	701	Sololá	4	Finca Santa Victoria	4	Abril	2023-01-04T00:00:00	2024-11-08T04:00:00	4	Temperatura máxima	9.9
98583	7	Sololá	701	Sololá	4	Finca Santa Victoria	4	Abril	2023-01-04T00:00:00	2024-11-08T04:00:00	3	Temperatura mínima	9.7
98584	7	Sololá	701	Sololá	4	Finca Santa Victoria	4	Abril	2023-01-04T00:00:00	2024-11-08T04:00:00	5	Humedad	93
98585	7	Sololá	701	Sololá	4	Finca Santa Victoria	4	Abril	2023-01-04T00:00:00	2024-11-08T04:00:00	6	Velocidad del viento	3.2
98586	7	Sololá	701	Sololá	4	Finca Santa Victoria	4	Abril	2023-01-04T00:00:00	2024-11-08T04:00:00	7	Dirección del viento	3.22
98587	7	Sololá	701	Sololá	4	Finca Santa Victoria	4	Abril	2023-01-04T00:00:00	2024-11-08T04:00:00	1	Precipitación	0
98588	7	Sololá	701	Sololá	4	Finca Santa Victoria	4	Abril	2023-01-04T00:00:00	2024-11-08T04:00:00	8	Radiación solar	0
98589	7	Sololá	701	Sololá	4	Finca Santa Victoria	4	Abril	2023-01-04T00:00:00	2024-11-08T05:00:00	2	Temperatura media	10
98590	7	Sololá	701	Sololá	4	Finca Santa Victoria	4	Abril	2023-01-04T00:00:00	2024-11-08T05:00:00	4	Temperatura máxima	10.2
98591	7	Sololá	701	Sololá	4	Finca Santa Victoria	4	Abril	2023-01-04T00:00:00	2024-11-08T05:00:00	3	Temperatura mínima	9.8
98592	7	Sololá	701	Sololá	4	Finca Santa Victoria	4	Abril	2023-01-04T00:00:00	2024-11-08T05:00:00	5	Humedad	93
98593	7	Sololá	701	Sololá	4	Finca Santa Victoria	4	Abril	2023-01-04T00:00:00	2024-11-08T05:00:00	6	Velocidad del viento	1.6
98594	7	Sololá	701	Sololá	4	Finca Santa Victoria	4	Abril	2023-01-04T00:00:00	2024-11-08T05:00:00	7	Dirección del viento	1.61
98595	7	Sololá	701	Sololá	4	Finca Santa Victoria	4	Abril	2023-01-04T00:00:00	2024-11-08T05:00:00	1	Precipitación	0
98596	7	Sololá	701	Sololá	4	Finca Santa Victoria	4	Abril	2023-01-04T00:00:00	2024-11-08T05:00:00	8	Radiación solar	0
98597	7	Sololá	701	Sololá	4	Finca Santa Victoria	4	Abril	2023-01-04T00:00:00	2024-11-08T06:00:00	2	Temperatura media	9.4
98598	7	Sololá	701	Sololá	4	Finca Santa Victoria	4	Abril	2023-01-04T00:00:00	2024-11-08T06:00:00	4	Temperatura máxima	10
98599	7	Sololá	701	Sololá	4	Finca Santa Victoria	4	Abril	2023-01-04T00:00:00	2024-11-08T06:00:00	3	Temperatura mínima	9.4
98600	7	Sololá	701	Sololá	4	Finca Santa Victoria	4	Abril	2023-01-04T00:00:00	2024-11-08T06:00:00	5	Humedad	94
98601	7	Sololá	701	Sololá	4	Finca Santa Victoria	4	Abril	2023-01-04T00:00:00	2024-11-08T06:00:00	6	Velocidad del viento	1.6
98602	7	Sololá	701	Sololá	4	Finca Santa Victoria	4	Abril	2023-01-04T00:00:00	2024-11-08T06:00:00	7	Dirección del viento	1.61
98603	7	Sololá	701	Sololá	4	Finca Santa Victoria	4	Abril	2023-01-04T00:00:00	2024-11-08T06:00:00	1	Precipitación	0
98604	7	Sololá	701	Sololá	4	Finca Santa Victoria	4	Abril	2023-01-04T00:00:00	2024-11-08T06:00:00	8	Radiación solar	0
98605	7	Sololá	701	Sololá	4	Finca Santa Victoria	4	Abril	2023-01-04T00:00:00	2024-11-08T07:00:00	2	Temperatura media	10.5
98606	7	Sololá	701	Sololá	4	Finca Santa Victoria	4	Abril	2023-01-04T00:00:00	2024-11-08T07:00:00	4	Temperatura máxima	10.5
98607	7	Sololá	701	Sololá	4	Finca Santa Victoria	4	Abril	2023-01-04T00:00:00	2024-11-08T07:00:00	3	Temperatura mínima	9.3
98608	7	Sololá	701	Sololá	4	Finca Santa Victoria	4	Abril	2023-01-04T00:00:00	2024-11-08T07:00:00	5	Humedad	92
98609	7	Sololá	701	Sololá	4	Finca Santa Victoria	4	Abril	2023-01-04T00:00:00	2024-11-08T07:00:00	6	Velocidad del viento	1.6
98610	7	Sololá	701	Sololá	4	Finca Santa Victoria	4	Abril	2023-01-04T00:00:00	2024-11-08T07:00:00	7	Dirección del viento	1.61
98611	7	Sololá	701	Sololá	4	Finca Santa Victoria	4	Abril	2023-01-04T00:00:00	2024-11-08T07:00:00	1	Precipitación	0
98612	7	Sololá	701	Sololá	4	Finca Santa Victoria	4	Abril	2023-01-04T00:00:00	2024-11-08T07:00:00	8	Radiación solar	13
98613	7	Sololá	701	Sololá	4	Finca Santa Victoria	4	Abril	2023-01-04T00:00:00	2024-11-08T08:00:00	2	Temperatura media	15.2
98614	7	Sololá	701	Sololá	4	Finca Santa Victoria	4	Abril	2023-01-04T00:00:00	2024-11-08T08:00:00	4	Temperatura máxima	15.2
98615	7	Sololá	701	Sololá	4	Finca Santa Victoria	4	Abril	2023-01-04T00:00:00	2024-11-08T08:00:00	3	Temperatura mínima	10.5
98616	7	Sololá	701	Sololá	4	Finca Santa Victoria	4	Abril	2023-01-04T00:00:00	2024-11-08T08:00:00	5	Humedad	74
98617	7	Sololá	701	Sololá	4	Finca Santa Victoria	4	Abril	2023-01-04T00:00:00	2024-11-08T08:00:00	6	Velocidad del viento	1.6
98618	7	Sololá	701	Sololá	4	Finca Santa Victoria	4	Abril	2023-01-04T00:00:00	2024-11-08T08:00:00	7	Dirección del viento	1.61
98619	7	Sololá	701	Sololá	4	Finca Santa Victoria	4	Abril	2023-01-04T00:00:00	2024-11-08T08:00:00	1	Precipitación	0
98620	7	Sololá	701	Sololá	4	Finca Santa Victoria	4	Abril	2023-01-04T00:00:00	2024-11-08T08:00:00	8	Radiación solar	190
98621	7	Sololá	701	Sololá	4	Finca Santa Victoria	4	Abril	2023-01-04T00:00:00	2024-11-08T09:00:00	2	Temperatura media	16.1
98622	7	Sololá	701	Sololá	4	Finca Santa Victoria	4	Abril	2023-01-04T00:00:00	2024-11-08T09:00:00	4	Temperatura máxima	16.2
98623	7	Sololá	701	Sololá	4	Finca Santa Victoria	4	Abril	2023-01-04T00:00:00	2024-11-08T09:00:00	3	Temperatura mínima	15.2
98624	7	Sololá	701	Sololá	4	Finca Santa Victoria	4	Abril	2023-01-04T00:00:00	2024-11-08T09:00:00	5	Humedad	76
98625	7	Sololá	701	Sololá	4	Finca Santa Victoria	4	Abril	2023-01-04T00:00:00	2024-11-08T09:00:00	6	Velocidad del viento	1.6
98626	7	Sololá	701	Sololá	4	Finca Santa Victoria	4	Abril	2023-01-04T00:00:00	2024-11-08T09:00:00	7	Dirección del viento	1.61
98627	7	Sololá	701	Sololá	4	Finca Santa Victoria	4	Abril	2023-01-04T00:00:00	2024-11-08T09:00:00	1	Precipitación	0
98628	7	Sololá	701	Sololá	4	Finca Santa Victoria	4	Abril	2023-01-04T00:00:00	2024-11-08T09:00:00	8	Radiación solar	526
98629	7	Sololá	701	Sololá	4	Finca Santa Victoria	4	Abril	2023-01-04T00:00:00	2024-11-08T10:00:00	2	Temperatura media	18.1
98630	7	Sololá	701	Sololá	4	Finca Santa Victoria	4	Abril	2023-01-04T00:00:00	2024-11-08T10:00:00	4	Temperatura máxima	18.1
98631	7	Sololá	701	Sololá	4	Finca Santa Victoria	4	Abril	2023-01-04T00:00:00	2024-11-08T10:00:00	3	Temperatura mínima	16.2
98632	7	Sololá	701	Sololá	4	Finca Santa Victoria	4	Abril	2023-01-04T00:00:00	2024-11-08T10:00:00	5	Humedad	72
98633	7	Sololá	701	Sololá	4	Finca Santa Victoria	4	Abril	2023-01-04T00:00:00	2024-11-08T10:00:00	6	Velocidad del viento	3.2
98634	7	Sololá	701	Sololá	4	Finca Santa Victoria	4	Abril	2023-01-04T00:00:00	2024-11-08T10:00:00	7	Dirección del viento	3.22
98635	7	Sololá	701	Sololá	4	Finca Santa Victoria	4	Abril	2023-01-04T00:00:00	2024-11-08T10:00:00	1	Precipitación	0
98636	7	Sololá	701	Sololá	4	Finca Santa Victoria	4	Abril	2023-01-04T00:00:00	2024-11-08T10:00:00	8	Radiación solar	788
98637	7	Sololá	701	Sololá	4	Finca Santa Victoria	4	Abril	2023-01-04T00:00:00	2024-11-08T11:00:00	2	Temperatura media	20.1
98638	7	Sololá	701	Sololá	4	Finca Santa Victoria	4	Abril	2023-01-04T00:00:00	2024-11-08T11:00:00	4	Temperatura máxima	20.1
98639	7	Sololá	701	Sololá	4	Finca Santa Victoria	4	Abril	2023-01-04T00:00:00	2024-11-08T11:00:00	3	Temperatura mínima	18.2
98640	7	Sololá	701	Sololá	4	Finca Santa Victoria	4	Abril	2023-01-04T00:00:00	2024-11-08T11:00:00	5	Humedad	59
98641	7	Sololá	701	Sololá	4	Finca Santa Victoria	4	Abril	2023-01-04T00:00:00	2024-11-08T11:00:00	6	Velocidad del viento	4.8
98642	7	Sololá	701	Sololá	4	Finca Santa Victoria	4	Abril	2023-01-04T00:00:00	2024-11-08T11:00:00	7	Dirección del viento	4.83
98643	7	Sololá	701	Sololá	4	Finca Santa Victoria	4	Abril	2023-01-04T00:00:00	2024-11-08T11:00:00	1	Precipitación	0
98644	7	Sololá	701	Sololá	4	Finca Santa Victoria	4	Abril	2023-01-04T00:00:00	2024-11-08T11:00:00	8	Radiación solar	929
98645	7	Sololá	701	Sololá	4	Finca Santa Victoria	4	Abril	2023-01-04T00:00:00	2024-11-08T12:00:00	2	Temperatura media	20.2
98646	7	Sololá	701	Sololá	4	Finca Santa Victoria	4	Abril	2023-01-04T00:00:00	2024-11-08T12:00:00	4	Temperatura máxima	20.9
98647	7	Sololá	701	Sololá	4	Finca Santa Victoria	4	Abril	2023-01-04T00:00:00	2024-11-08T12:00:00	3	Temperatura mínima	19.9
98648	7	Sololá	701	Sololá	4	Finca Santa Victoria	4	Abril	2023-01-04T00:00:00	2024-11-08T12:00:00	5	Humedad	69
98649	7	Sololá	701	Sololá	4	Finca Santa Victoria	4	Abril	2023-01-04T00:00:00	2024-11-08T12:00:00	6	Velocidad del viento	4.8
98650	7	Sololá	701	Sololá	4	Finca Santa Victoria	4	Abril	2023-01-04T00:00:00	2024-11-08T12:00:00	7	Dirección del viento	4.83
98651	7	Sololá	701	Sololá	4	Finca Santa Victoria	4	Abril	2023-01-04T00:00:00	2024-11-08T12:00:00	1	Precipitación	0
98652	7	Sololá	701	Sololá	4	Finca Santa Victoria	4	Abril	2023-01-04T00:00:00	2024-11-08T12:00:00	8	Radiación solar	992
98653	7	Sololá	701	Sololá	4	Finca Santa Victoria	4	Abril	2023-01-04T00:00:00	2024-11-08T13:00:00	2	Temperatura media	19.3
98654	7	Sololá	701	Sololá	4	Finca Santa Victoria	4	Abril	2023-01-04T00:00:00	2024-11-08T13:00:00	4	Temperatura máxima	20.7
98655	7	Sololá	701	Sololá	4	Finca Santa Victoria	4	Abril	2023-01-04T00:00:00	2024-11-08T13:00:00	3	Temperatura mínima	18.9
98656	7	Sololá	701	Sololá	4	Finca Santa Victoria	4	Abril	2023-01-04T00:00:00	2024-11-08T13:00:00	5	Humedad	76
98657	7	Sololá	701	Sololá	4	Finca Santa Victoria	4	Abril	2023-01-04T00:00:00	2024-11-08T13:00:00	6	Velocidad del viento	4.8
98658	7	Sololá	701	Sololá	4	Finca Santa Victoria	4	Abril	2023-01-04T00:00:00	2024-11-08T13:00:00	7	Dirección del viento	4.83
98659	7	Sololá	701	Sololá	4	Finca Santa Victoria	4	Abril	2023-01-04T00:00:00	2024-11-08T13:00:00	1	Precipitación	0
98660	7	Sololá	701	Sololá	4	Finca Santa Victoria	4	Abril	2023-01-04T00:00:00	2024-11-08T13:00:00	8	Radiación solar	888
98661	7	Sololá	701	Sololá	4	Finca Santa Victoria	4	Abril	2023-01-04T00:00:00	2024-11-08T14:00:00	2	Temperatura media	18.4
98662	7	Sololá	701	Sololá	4	Finca Santa Victoria	4	Abril	2023-01-04T00:00:00	2024-11-08T14:00:00	4	Temperatura máxima	19.6
98663	7	Sololá	701	Sololá	4	Finca Santa Victoria	4	Abril	2023-01-04T00:00:00	2024-11-08T14:00:00	3	Temperatura mínima	18.4
98664	7	Sololá	701	Sololá	4	Finca Santa Victoria	4	Abril	2023-01-04T00:00:00	2024-11-08T14:00:00	5	Humedad	81
98665	7	Sololá	701	Sololá	4	Finca Santa Victoria	4	Abril	2023-01-04T00:00:00	2024-11-08T14:00:00	6	Velocidad del viento	6.4
98666	7	Sololá	701	Sololá	4	Finca Santa Victoria	4	Abril	2023-01-04T00:00:00	2024-11-08T14:00:00	7	Dirección del viento	6.44
98667	7	Sololá	701	Sololá	4	Finca Santa Victoria	4	Abril	2023-01-04T00:00:00	2024-11-08T14:00:00	1	Precipitación	0
98668	7	Sololá	701	Sololá	4	Finca Santa Victoria	4	Abril	2023-01-04T00:00:00	2024-11-08T14:00:00	8	Radiación solar	235
98669	7	Sololá	701	Sololá	4	Finca Santa Victoria	4	Abril	2023-01-04T00:00:00	2024-11-08T15:00:00	2	Temperatura media	17.5
98670	7	Sololá	701	Sololá	4	Finca Santa Victoria	4	Abril	2023-01-04T00:00:00	2024-11-08T15:00:00	4	Temperatura máxima	18.4
98671	7	Sololá	701	Sololá	4	Finca Santa Victoria	4	Abril	2023-01-04T00:00:00	2024-11-08T15:00:00	3	Temperatura mínima	17.4
98672	7	Sololá	701	Sololá	4	Finca Santa Victoria	4	Abril	2023-01-04T00:00:00	2024-11-08T15:00:00	5	Humedad	85
98673	7	Sololá	701	Sololá	4	Finca Santa Victoria	4	Abril	2023-01-04T00:00:00	2024-11-08T15:00:00	6	Velocidad del viento	4.8
98674	7	Sololá	701	Sololá	4	Finca Santa Victoria	4	Abril	2023-01-04T00:00:00	2024-11-08T15:00:00	7	Dirección del viento	4.83
98675	7	Sololá	701	Sololá	4	Finca Santa Victoria	4	Abril	2023-01-04T00:00:00	2024-11-08T15:00:00	1	Precipitación	0
98676	7	Sololá	701	Sololá	4	Finca Santa Victoria	4	Abril	2023-01-04T00:00:00	2024-11-08T15:00:00	8	Radiación solar	260
98677	7	Sololá	701	Sololá	4	Finca Santa Victoria	4	Abril	2023-01-04T00:00:00	2024-11-08T16:00:00	2	Temperatura media	17.8
98678	7	Sololá	701	Sololá	4	Finca Santa Victoria	4	Abril	2023-01-04T00:00:00	2024-11-08T16:00:00	4	Temperatura máxima	17.9
98679	7	Sololá	701	Sololá	4	Finca Santa Victoria	4	Abril	2023-01-04T00:00:00	2024-11-08T16:00:00	3	Temperatura mínima	17.3
98680	7	Sololá	701	Sololá	4	Finca Santa Victoria	4	Abril	2023-01-04T00:00:00	2024-11-08T16:00:00	5	Humedad	84
98681	7	Sololá	701	Sololá	4	Finca Santa Victoria	4	Abril	2023-01-04T00:00:00	2024-11-08T16:00:00	6	Velocidad del viento	4.8
98682	7	Sololá	701	Sololá	4	Finca Santa Victoria	4	Abril	2023-01-04T00:00:00	2024-11-08T16:00:00	7	Dirección del viento	4.83
98683	7	Sololá	701	Sololá	4	Finca Santa Victoria	4	Abril	2023-01-04T00:00:00	2024-11-08T16:00:00	1	Precipitación	0
98684	7	Sololá	701	Sololá	4	Finca Santa Victoria	4	Abril	2023-01-04T00:00:00	2024-11-08T16:00:00	8	Radiación solar	199
98685	7	Sololá	701	Sololá	4	Finca Santa Victoria	4	Abril	2023-01-04T00:00:00	2024-11-08T17:00:00	2	Temperatura media	16.6
98686	7	Sololá	701	Sololá	4	Finca Santa Victoria	4	Abril	2023-01-04T00:00:00	2024-11-08T17:00:00	4	Temperatura máxima	17.9
98687	7	Sololá	701	Sololá	4	Finca Santa Victoria	4	Abril	2023-01-04T00:00:00	2024-11-08T17:00:00	3	Temperatura mínima	16.5
98688	7	Sololá	701	Sololá	4	Finca Santa Victoria	4	Abril	2023-01-04T00:00:00	2024-11-08T17:00:00	5	Humedad	89
98689	7	Sololá	701	Sololá	4	Finca Santa Victoria	4	Abril	2023-01-04T00:00:00	2024-11-08T17:00:00	6	Velocidad del viento	3.2
98690	7	Sololá	701	Sololá	4	Finca Santa Victoria	4	Abril	2023-01-04T00:00:00	2024-11-08T17:00:00	7	Dirección del viento	3.22
98691	7	Sololá	701	Sololá	4	Finca Santa Victoria	4	Abril	2023-01-04T00:00:00	2024-11-08T17:00:00	1	Precipitación	0
98692	7	Sololá	701	Sololá	4	Finca Santa Victoria	4	Abril	2023-01-04T00:00:00	2024-11-08T17:00:00	8	Radiación solar	132
98693	7	Sololá	701	Sololá	4	Finca Santa Victoria	4	Abril	2023-01-04T00:00:00	2024-11-08T18:00:00	2	Temperatura media	15.6
98694	7	Sololá	701	Sololá	4	Finca Santa Victoria	4	Abril	2023-01-04T00:00:00	2024-11-08T18:00:00	4	Temperatura máxima	16.5
98695	7	Sololá	701	Sololá	4	Finca Santa Victoria	4	Abril	2023-01-04T00:00:00	2024-11-08T18:00:00	3	Temperatura mínima	15.6
98696	7	Sololá	701	Sololá	4	Finca Santa Victoria	4	Abril	2023-01-04T00:00:00	2024-11-08T18:00:00	5	Humedad	92
98697	7	Sololá	701	Sololá	4	Finca Santa Victoria	4	Abril	2023-01-04T00:00:00	2024-11-08T18:00:00	6	Velocidad del viento	1.6
98698	7	Sololá	701	Sololá	4	Finca Santa Victoria	4	Abril	2023-01-04T00:00:00	2024-11-08T18:00:00	7	Dirección del viento	1.61
98699	7	Sololá	701	Sololá	4	Finca Santa Victoria	4	Abril	2023-01-04T00:00:00	2024-11-08T18:00:00	1	Precipitación	0
98700	7	Sololá	701	Sololá	4	Finca Santa Victoria	4	Abril	2023-01-04T00:00:00	2024-11-08T18:00:00	8	Radiación solar	46
98701	7	Sololá	701	Sololá	4	Finca Santa Victoria	4	Abril	2023-01-04T00:00:00	2024-11-08T19:00:00	2	Temperatura media	15.3
98702	7	Sololá	701	Sololá	4	Finca Santa Victoria	4	Abril	2023-01-04T00:00:00	2024-11-08T19:00:00	4	Temperatura máxima	15.8
98703	7	Sololá	701	Sololá	4	Finca Santa Victoria	4	Abril	2023-01-04T00:00:00	2024-11-08T19:00:00	3	Temperatura mínima	15.2
98704	7	Sololá	701	Sololá	4	Finca Santa Victoria	4	Abril	2023-01-04T00:00:00	2024-11-08T19:00:00	5	Humedad	77
98705	7	Sololá	701	Sololá	4	Finca Santa Victoria	4	Abril	2023-01-04T00:00:00	2024-11-08T19:00:00	6	Velocidad del viento	1.6
98706	7	Sololá	701	Sololá	4	Finca Santa Victoria	4	Abril	2023-01-04T00:00:00	2024-11-08T19:00:00	7	Dirección del viento	1.61
98707	7	Sololá	701	Sololá	4	Finca Santa Victoria	4	Abril	2023-01-04T00:00:00	2024-11-08T19:00:00	1	Precipitación	0
98708	7	Sololá	701	Sololá	4	Finca Santa Victoria	4	Abril	2023-01-04T00:00:00	2024-11-08T19:00:00	8	Radiación solar	0
98709	7	Sololá	701	Sololá	4	Finca Santa Victoria	4	Abril	2023-01-04T00:00:00	2024-11-08T20:00:00	2	Temperatura media	14.2
98710	7	Sololá	701	Sololá	4	Finca Santa Victoria	4	Abril	2023-01-04T00:00:00	2024-11-08T20:00:00	4	Temperatura máxima	15.3
98711	7	Sololá	701	Sololá	4	Finca Santa Victoria	4	Abril	2023-01-04T00:00:00	2024-11-08T20:00:00	3	Temperatura mínima	14.2
98712	7	Sololá	701	Sololá	4	Finca Santa Victoria	4	Abril	2023-01-04T00:00:00	2024-11-08T20:00:00	5	Humedad	82
98713	7	Sololá	701	Sololá	4	Finca Santa Victoria	4	Abril	2023-01-04T00:00:00	2024-11-08T20:00:00	6	Velocidad del viento	1.6
98714	7	Sololá	701	Sololá	4	Finca Santa Victoria	4	Abril	2023-01-04T00:00:00	2024-11-08T20:00:00	7	Dirección del viento	1.61
98715	7	Sololá	701	Sololá	4	Finca Santa Victoria	4	Abril	2023-01-04T00:00:00	2024-11-08T20:00:00	1	Precipitación	0
98716	7	Sololá	701	Sololá	4	Finca Santa Victoria	4	Abril	2023-01-04T00:00:00	2024-11-08T20:00:00	8	Radiación solar	0
98717	7	Sololá	701	Sololá	4	Finca Santa Victoria	4	Abril	2023-01-04T00:00:00	2024-11-08T21:00:00	2	Temperatura media	13.7
98718	7	Sololá	701	Sololá	4	Finca Santa Victoria	4	Abril	2023-01-04T00:00:00	2024-11-08T21:00:00	4	Temperatura máxima	14.2
98719	7	Sololá	701	Sololá	4	Finca Santa Victoria	4	Abril	2023-01-04T00:00:00	2024-11-08T21:00:00	3	Temperatura mínima	13.6
98720	7	Sololá	701	Sololá	4	Finca Santa Victoria	4	Abril	2023-01-04T00:00:00	2024-11-08T21:00:00	5	Humedad	83
98721	7	Sololá	701	Sololá	4	Finca Santa Victoria	4	Abril	2023-01-04T00:00:00	2024-11-08T21:00:00	6	Velocidad del viento	1.6
98722	7	Sololá	701	Sololá	4	Finca Santa Victoria	4	Abril	2023-01-04T00:00:00	2024-11-08T21:00:00	7	Dirección del viento	1.61
98723	7	Sololá	701	Sololá	4	Finca Santa Victoria	4	Abril	2023-01-04T00:00:00	2024-11-08T21:00:00	1	Precipitación	0
98724	7	Sololá	701	Sololá	4	Finca Santa Victoria	4	Abril	2023-01-04T00:00:00	2024-11-08T21:00:00	8	Radiación solar	0
98725	7	Sololá	701	Sololá	4	Finca Santa Victoria	4	Abril	2023-01-04T00:00:00	2024-11-08T22:00:00	2	Temperatura media	13.2
98726	7	Sololá	701	Sololá	4	Finca Santa Victoria	4	Abril	2023-01-04T00:00:00	2024-11-08T22:00:00	4	Temperatura máxima	13.7
98727	7	Sololá	701	Sololá	4	Finca Santa Victoria	4	Abril	2023-01-04T00:00:00	2024-11-08T22:00:00	3	Temperatura mínima	13.2
98728	7	Sololá	701	Sololá	4	Finca Santa Victoria	4	Abril	2023-01-04T00:00:00	2024-11-08T22:00:00	5	Humedad	84
98729	7	Sololá	701	Sololá	4	Finca Santa Victoria	4	Abril	2023-01-04T00:00:00	2024-11-08T22:00:00	6	Velocidad del viento	3.2
98730	7	Sololá	701	Sololá	4	Finca Santa Victoria	4	Abril	2023-01-04T00:00:00	2024-11-08T22:00:00	7	Dirección del viento	3.22
98731	7	Sololá	701	Sololá	4	Finca Santa Victoria	4	Abril	2023-01-04T00:00:00	2024-11-08T22:00:00	1	Precipitación	0
98732	7	Sololá	701	Sololá	4	Finca Santa Victoria	4	Abril	2023-01-04T00:00:00	2024-11-08T22:00:00	8	Radiación solar	0
98733	7	Sololá	701	Sololá	4	Finca Santa Victoria	4	Abril	2023-01-04T00:00:00	2024-11-08T23:00:00	2	Temperatura media	12.8
98734	7	Sololá	701	Sololá	4	Finca Santa Victoria	4	Abril	2023-01-04T00:00:00	2024-11-08T23:00:00	4	Temperatura máxima	13.2
98735	7	Sololá	701	Sololá	4	Finca Santa Victoria	4	Abril	2023-01-04T00:00:00	2024-11-08T23:00:00	3	Temperatura mínima	12.8
98736	7	Sololá	701	Sololá	4	Finca Santa Victoria	4	Abril	2023-01-04T00:00:00	2024-11-08T23:00:00	5	Humedad	83
98737	7	Sololá	701	Sololá	4	Finca Santa Victoria	4	Abril	2023-01-04T00:00:00	2024-11-08T23:00:00	6	Velocidad del viento	3.2
98738	7	Sololá	701	Sololá	4	Finca Santa Victoria	4	Abril	2023-01-04T00:00:00	2024-11-08T23:00:00	7	Dirección del viento	3.22
98739	7	Sololá	701	Sololá	4	Finca Santa Victoria	4	Abril	2023-01-04T00:00:00	2024-11-08T23:00:00	1	Precipitación	0
98740	7	Sololá	701	Sololá	4	Finca Santa Victoria	4	Abril	2023-01-04T00:00:00	2024-11-08T23:00:00	8	Radiación solar	0
98741	7	Sololá	701	Sololá	4	Finca Santa Victoria	4	Abril	2023-02-04T00:00:00	2024-11-08T00:00:00	2	Temperatura media	11.9
98742	7	Sololá	701	Sololá	4	Finca Santa Victoria	4	Abril	2023-02-04T00:00:00	2024-11-08T00:00:00	4	Temperatura máxima	12.8
98743	7	Sololá	701	Sololá	4	Finca Santa Victoria	4	Abril	2023-02-04T00:00:00	2024-11-08T00:00:00	3	Temperatura mínima	11.8
98744	7	Sololá	701	Sololá	4	Finca Santa Victoria	4	Abril	2023-02-04T00:00:00	2024-11-08T00:00:00	5	Humedad	85
98745	7	Sololá	701	Sololá	4	Finca Santa Victoria	4	Abril	2023-02-04T00:00:00	2024-11-08T00:00:00	6	Velocidad del viento	1.6
98746	7	Sololá	701	Sololá	4	Finca Santa Victoria	4	Abril	2023-02-04T00:00:00	2024-11-08T00:00:00	7	Dirección del viento	1.61
98747	7	Sololá	701	Sololá	4	Finca Santa Victoria	4	Abril	2023-02-04T00:00:00	2024-11-08T00:00:00	1	Precipitación	0
98748	7	Sololá	701	Sololá	4	Finca Santa Victoria	4	Abril	2023-02-04T00:00:00	2024-11-08T00:00:00	8	Radiación solar	0
98749	7	Sololá	701	Sololá	4	Finca Santa Victoria	4	Abril	2023-02-04T00:00:00	2024-11-08T01:00:00	2	Temperatura media	11.2
98750	7	Sololá	701	Sololá	4	Finca Santa Victoria	4	Abril	2023-02-04T00:00:00	2024-11-08T01:00:00	4	Temperatura máxima	12.2
98751	7	Sololá	701	Sololá	4	Finca Santa Victoria	4	Abril	2023-02-04T00:00:00	2024-11-08T01:00:00	3	Temperatura mínima	11.1
98752	7	Sololá	701	Sololá	4	Finca Santa Victoria	4	Abril	2023-02-04T00:00:00	2024-11-08T01:00:00	5	Humedad	85
98753	7	Sololá	701	Sololá	4	Finca Santa Victoria	4	Abril	2023-02-04T00:00:00	2024-11-08T01:00:00	6	Velocidad del viento	1.6
98754	7	Sololá	701	Sololá	4	Finca Santa Victoria	4	Abril	2023-02-04T00:00:00	2024-11-08T01:00:00	7	Dirección del viento	1.61
98755	7	Sololá	701	Sololá	4	Finca Santa Victoria	4	Abril	2023-02-04T00:00:00	2024-11-08T01:00:00	1	Precipitación	0
98756	7	Sololá	701	Sololá	4	Finca Santa Victoria	4	Abril	2023-02-04T00:00:00	2024-11-08T01:00:00	8	Radiación solar	0
98757	7	Sololá	701	Sololá	4	Finca Santa Victoria	4	Abril	2023-02-04T00:00:00	2024-11-08T02:00:00	2	Temperatura media	10.3
98758	7	Sololá	701	Sololá	4	Finca Santa Victoria	4	Abril	2023-02-04T00:00:00	2024-11-08T02:00:00	4	Temperatura máxima	11.2
98759	7	Sololá	701	Sololá	4	Finca Santa Victoria	4	Abril	2023-02-04T00:00:00	2024-11-08T02:00:00	3	Temperatura mínima	10.3
98760	7	Sololá	701	Sololá	4	Finca Santa Victoria	4	Abril	2023-02-04T00:00:00	2024-11-08T02:00:00	5	Humedad	85
98761	7	Sololá	701	Sololá	4	Finca Santa Victoria	4	Abril	2023-02-04T00:00:00	2024-11-08T02:00:00	6	Velocidad del viento	1.6
98762	7	Sololá	701	Sololá	4	Finca Santa Victoria	4	Abril	2023-02-04T00:00:00	2024-11-08T02:00:00	7	Dirección del viento	1.61
98763	7	Sololá	701	Sololá	4	Finca Santa Victoria	4	Abril	2023-02-04T00:00:00	2024-11-08T02:00:00	1	Precipitación	0
98764	7	Sololá	701	Sololá	4	Finca Santa Victoria	4	Abril	2023-02-04T00:00:00	2024-11-08T02:00:00	8	Radiación solar	0
98765	7	Sololá	701	Sololá	4	Finca Santa Victoria	4	Abril	2023-02-04T00:00:00	2024-11-08T03:00:00	2	Temperatura media	9.8
98766	7	Sololá	701	Sololá	4	Finca Santa Victoria	4	Abril	2023-02-04T00:00:00	2024-11-08T03:00:00	4	Temperatura máxima	10.4
98767	7	Sololá	701	Sololá	4	Finca Santa Victoria	4	Abril	2023-02-04T00:00:00	2024-11-08T03:00:00	3	Temperatura mínima	9.8
98768	7	Sololá	701	Sololá	4	Finca Santa Victoria	4	Abril	2023-02-04T00:00:00	2024-11-08T03:00:00	5	Humedad	85
98769	7	Sololá	701	Sololá	4	Finca Santa Victoria	4	Abril	2023-02-04T00:00:00	2024-11-08T03:00:00	6	Velocidad del viento	1.6
98770	7	Sololá	701	Sololá	4	Finca Santa Victoria	4	Abril	2023-02-04T00:00:00	2024-11-08T03:00:00	7	Dirección del viento	1.61
98771	7	Sololá	701	Sololá	4	Finca Santa Victoria	4	Abril	2023-02-04T00:00:00	2024-11-08T03:00:00	1	Precipitación	0
98772	7	Sololá	701	Sololá	4	Finca Santa Victoria	4	Abril	2023-02-04T00:00:00	2024-11-08T03:00:00	8	Radiación solar	0
98773	7	Sololá	701	Sololá	4	Finca Santa Victoria	4	Abril	2023-02-04T00:00:00	2024-11-08T04:00:00	2	Temperatura media	9.2
98774	7	Sololá	701	Sololá	4	Finca Santa Victoria	4	Abril	2023-02-04T00:00:00	2024-11-08T04:00:00	4	Temperatura máxima	10.1
98775	7	Sololá	701	Sololá	4	Finca Santa Victoria	4	Abril	2023-02-04T00:00:00	2024-11-08T04:00:00	3	Temperatura mínima	9.2
98776	7	Sololá	701	Sololá	4	Finca Santa Victoria	4	Abril	2023-02-04T00:00:00	2024-11-08T04:00:00	5	Humedad	80
98777	7	Sololá	701	Sololá	4	Finca Santa Victoria	4	Abril	2023-02-04T00:00:00	2024-11-08T04:00:00	6	Velocidad del viento	0
98778	7	Sololá	701	Sololá	4	Finca Santa Victoria	4	Abril	2023-02-04T00:00:00	2024-11-08T04:00:00	7	Dirección del viento	0
98779	7	Sololá	701	Sololá	4	Finca Santa Victoria	4	Abril	2023-02-04T00:00:00	2024-11-08T04:00:00	1	Precipitación	0
98780	7	Sololá	701	Sololá	4	Finca Santa Victoria	4	Abril	2023-02-04T00:00:00	2024-11-08T04:00:00	8	Radiación solar	0
98781	7	Sololá	701	Sololá	4	Finca Santa Victoria	4	Abril	2023-02-04T00:00:00	2024-11-08T05:00:00	2	Temperatura media	9.5
98782	7	Sololá	701	Sololá	4	Finca Santa Victoria	4	Abril	2023-02-04T00:00:00	2024-11-08T05:00:00	4	Temperatura máxima	9.5
98783	7	Sololá	701	Sololá	4	Finca Santa Victoria	4	Abril	2023-02-04T00:00:00	2024-11-08T05:00:00	3	Temperatura mínima	9.2
98784	7	Sololá	701	Sololá	4	Finca Santa Victoria	4	Abril	2023-02-04T00:00:00	2024-11-08T05:00:00	5	Humedad	73
98785	7	Sololá	701	Sololá	4	Finca Santa Victoria	4	Abril	2023-02-04T00:00:00	2024-11-08T05:00:00	6	Velocidad del viento	1.6
98786	7	Sololá	701	Sololá	4	Finca Santa Victoria	4	Abril	2023-02-04T00:00:00	2024-11-08T05:00:00	7	Dirección del viento	1.61
98787	7	Sololá	701	Sololá	4	Finca Santa Victoria	4	Abril	2023-02-04T00:00:00	2024-11-08T05:00:00	1	Precipitación	0
98788	7	Sololá	701	Sololá	4	Finca Santa Victoria	4	Abril	2023-02-04T00:00:00	2024-11-08T05:00:00	8	Radiación solar	0
98789	7	Sololá	701	Sololá	4	Finca Santa Victoria	4	Abril	2023-02-04T00:00:00	2024-11-08T06:00:00	2	Temperatura media	9.8
98790	7	Sololá	701	Sololá	4	Finca Santa Victoria	4	Abril	2023-02-04T00:00:00	2024-11-08T06:00:00	4	Temperatura máxima	10.2
98791	7	Sololá	701	Sololá	4	Finca Santa Victoria	4	Abril	2023-02-04T00:00:00	2024-11-08T06:00:00	3	Temperatura mínima	9.4
98792	7	Sololá	701	Sololá	4	Finca Santa Victoria	4	Abril	2023-02-04T00:00:00	2024-11-08T06:00:00	5	Humedad	70
98793	7	Sololá	701	Sololá	4	Finca Santa Victoria	4	Abril	2023-02-04T00:00:00	2024-11-08T06:00:00	6	Velocidad del viento	3.2
98794	7	Sololá	701	Sololá	4	Finca Santa Victoria	4	Abril	2023-02-04T00:00:00	2024-11-08T06:00:00	7	Dirección del viento	3.22
98795	7	Sololá	701	Sololá	4	Finca Santa Victoria	4	Abril	2023-02-04T00:00:00	2024-11-08T06:00:00	1	Precipitación	0
98796	7	Sololá	701	Sololá	4	Finca Santa Victoria	4	Abril	2023-02-04T00:00:00	2024-11-08T06:00:00	8	Radiación solar	0
98797	7	Sololá	701	Sololá	4	Finca Santa Victoria	4	Abril	2023-02-04T00:00:00	2024-11-08T07:00:00	2	Temperatura media	10.6
98798	7	Sololá	701	Sololá	4	Finca Santa Victoria	4	Abril	2023-02-04T00:00:00	2024-11-08T07:00:00	4	Temperatura máxima	10.6
98799	7	Sololá	701	Sololá	4	Finca Santa Victoria	4	Abril	2023-02-04T00:00:00	2024-11-08T07:00:00	3	Temperatura mínima	9.8
98800	7	Sololá	701	Sololá	4	Finca Santa Victoria	4	Abril	2023-02-04T00:00:00	2024-11-08T07:00:00	5	Humedad	71
98801	7	Sololá	701	Sololá	4	Finca Santa Victoria	4	Abril	2023-02-04T00:00:00	2024-11-08T07:00:00	6	Velocidad del viento	1.6
98802	7	Sololá	701	Sololá	4	Finca Santa Victoria	4	Abril	2023-02-04T00:00:00	2024-11-08T07:00:00	7	Dirección del viento	1.61
98803	7	Sololá	701	Sololá	4	Finca Santa Victoria	4	Abril	2023-02-04T00:00:00	2024-11-08T07:00:00	1	Precipitación	0
98804	7	Sololá	701	Sololá	4	Finca Santa Victoria	4	Abril	2023-02-04T00:00:00	2024-11-08T07:00:00	8	Radiación solar	15
98805	7	Sololá	701	Sololá	4	Finca Santa Victoria	4	Abril	2023-02-04T00:00:00	2024-11-08T08:00:00	2	Temperatura media	16.7
98806	7	Sololá	701	Sololá	4	Finca Santa Victoria	4	Abril	2023-02-04T00:00:00	2024-11-08T08:00:00	4	Temperatura máxima	16.7
98807	7	Sololá	701	Sololá	4	Finca Santa Victoria	4	Abril	2023-02-04T00:00:00	2024-11-08T08:00:00	3	Temperatura mínima	10.6
98808	7	Sololá	701	Sololá	4	Finca Santa Victoria	4	Abril	2023-02-04T00:00:00	2024-11-08T08:00:00	5	Humedad	53
98809	7	Sololá	701	Sololá	4	Finca Santa Victoria	4	Abril	2023-02-04T00:00:00	2024-11-08T08:00:00	6	Velocidad del viento	1.6
98810	7	Sololá	701	Sololá	4	Finca Santa Victoria	4	Abril	2023-02-04T00:00:00	2024-11-08T08:00:00	7	Dirección del viento	1.61
98811	7	Sololá	701	Sololá	4	Finca Santa Victoria	4	Abril	2023-02-04T00:00:00	2024-11-08T08:00:00	1	Precipitación	0
98812	7	Sololá	701	Sololá	4	Finca Santa Victoria	4	Abril	2023-02-04T00:00:00	2024-11-08T08:00:00	8	Radiación solar	209
98813	7	Sololá	701	Sololá	4	Finca Santa Victoria	4	Abril	2023-02-04T00:00:00	2024-11-08T09:00:00	2	Temperatura media	18.7
98814	7	Sololá	701	Sololá	4	Finca Santa Victoria	4	Abril	2023-02-04T00:00:00	2024-11-08T09:00:00	4	Temperatura máxima	18.7
98815	7	Sololá	701	Sololá	4	Finca Santa Victoria	4	Abril	2023-02-04T00:00:00	2024-11-08T09:00:00	3	Temperatura mínima	16.7
98816	7	Sololá	701	Sololá	4	Finca Santa Victoria	4	Abril	2023-02-04T00:00:00	2024-11-08T09:00:00	5	Humedad	48
98817	7	Sololá	701	Sololá	4	Finca Santa Victoria	4	Abril	2023-02-04T00:00:00	2024-11-08T09:00:00	6	Velocidad del viento	4.8
98818	7	Sololá	701	Sololá	4	Finca Santa Victoria	4	Abril	2023-02-04T00:00:00	2024-11-08T09:00:00	7	Dirección del viento	4.83
98819	7	Sololá	701	Sololá	4	Finca Santa Victoria	4	Abril	2023-02-04T00:00:00	2024-11-08T09:00:00	1	Precipitación	0
98820	7	Sololá	701	Sololá	4	Finca Santa Victoria	4	Abril	2023-02-04T00:00:00	2024-11-08T09:00:00	8	Radiación solar	533
98821	7	Sololá	701	Sololá	4	Finca Santa Victoria	4	Abril	2023-02-04T00:00:00	2024-11-08T10:00:00	2	Temperatura media	20.8
98822	7	Sololá	701	Sololá	4	Finca Santa Victoria	4	Abril	2023-02-04T00:00:00	2024-11-08T10:00:00	4	Temperatura máxima	20.8
98823	7	Sololá	701	Sololá	4	Finca Santa Victoria	4	Abril	2023-02-04T00:00:00	2024-11-08T10:00:00	3	Temperatura mínima	18.6
98824	7	Sololá	701	Sololá	4	Finca Santa Victoria	4	Abril	2023-02-04T00:00:00	2024-11-08T10:00:00	5	Humedad	41
98825	7	Sololá	701	Sololá	4	Finca Santa Victoria	4	Abril	2023-02-04T00:00:00	2024-11-08T10:00:00	6	Velocidad del viento	4.8
98826	7	Sololá	701	Sololá	4	Finca Santa Victoria	4	Abril	2023-02-04T00:00:00	2024-11-08T10:00:00	7	Dirección del viento	4.83
98827	7	Sololá	701	Sololá	4	Finca Santa Victoria	4	Abril	2023-02-04T00:00:00	2024-11-08T10:00:00	1	Precipitación	0
98828	7	Sololá	701	Sololá	4	Finca Santa Victoria	4	Abril	2023-02-04T00:00:00	2024-11-08T10:00:00	8	Radiación solar	811
98829	7	Sololá	701	Sololá	4	Finca Santa Victoria	4	Abril	2023-02-04T00:00:00	2024-11-08T11:00:00	2	Temperatura media	22.3
98830	7	Sololá	701	Sololá	4	Finca Santa Victoria	4	Abril	2023-02-04T00:00:00	2024-11-08T11:00:00	4	Temperatura máxima	22.7
98831	7	Sololá	701	Sololá	4	Finca Santa Victoria	4	Abril	2023-02-04T00:00:00	2024-11-08T11:00:00	3	Temperatura mínima	20.8
98832	7	Sololá	701	Sololá	4	Finca Santa Victoria	4	Abril	2023-02-04T00:00:00	2024-11-08T11:00:00	5	Humedad	29
98833	7	Sololá	701	Sololá	4	Finca Santa Victoria	4	Abril	2023-02-04T00:00:00	2024-11-08T11:00:00	6	Velocidad del viento	4.8
98834	7	Sololá	701	Sololá	4	Finca Santa Victoria	4	Abril	2023-02-04T00:00:00	2024-11-08T11:00:00	7	Dirección del viento	4.83
98835	7	Sololá	701	Sololá	4	Finca Santa Victoria	4	Abril	2023-02-04T00:00:00	2024-11-08T11:00:00	1	Precipitación	0
98836	7	Sololá	701	Sololá	4	Finca Santa Victoria	4	Abril	2023-02-04T00:00:00	2024-11-08T11:00:00	8	Radiación solar	962
98837	7	Sololá	701	Sololá	4	Finca Santa Victoria	4	Abril	2023-02-04T00:00:00	2024-11-08T12:00:00	2	Temperatura media	23.3
98838	7	Sololá	701	Sololá	4	Finca Santa Victoria	4	Abril	2023-02-04T00:00:00	2024-11-08T12:00:00	4	Temperatura máxima	23.4
98839	7	Sololá	701	Sololá	4	Finca Santa Victoria	4	Abril	2023-02-04T00:00:00	2024-11-08T12:00:00	3	Temperatura mínima	22.3
98840	7	Sololá	701	Sololá	4	Finca Santa Victoria	4	Abril	2023-02-04T00:00:00	2024-11-08T12:00:00	5	Humedad	32
98841	7	Sololá	701	Sololá	4	Finca Santa Victoria	4	Abril	2023-02-04T00:00:00	2024-11-08T12:00:00	6	Velocidad del viento	4.8
98842	7	Sololá	701	Sololá	4	Finca Santa Victoria	4	Abril	2023-02-04T00:00:00	2024-11-08T12:00:00	7	Dirección del viento	4.83
98843	7	Sololá	701	Sololá	4	Finca Santa Victoria	4	Abril	2023-02-04T00:00:00	2024-11-08T12:00:00	1	Precipitación	0
98844	7	Sololá	701	Sololá	4	Finca Santa Victoria	4	Abril	2023-02-04T00:00:00	2024-11-08T12:00:00	8	Radiación solar	1037
98845	7	Sololá	701	Sololá	4	Finca Santa Victoria	4	Abril	2023-02-04T00:00:00	2024-11-08T13:00:00	2	Temperatura media	24
98846	7	Sololá	701	Sololá	4	Finca Santa Victoria	4	Abril	2023-02-04T00:00:00	2024-11-08T13:00:00	4	Temperatura máxima	24.1
98847	7	Sololá	701	Sololá	4	Finca Santa Victoria	4	Abril	2023-02-04T00:00:00	2024-11-08T13:00:00	3	Temperatura mínima	23
98848	7	Sololá	701	Sololá	4	Finca Santa Victoria	4	Abril	2023-02-04T00:00:00	2024-11-08T13:00:00	5	Humedad	25
98849	7	Sololá	701	Sololá	4	Finca Santa Victoria	4	Abril	2023-02-04T00:00:00	2024-11-08T13:00:00	6	Velocidad del viento	4.8
98850	7	Sololá	701	Sololá	4	Finca Santa Victoria	4	Abril	2023-02-04T00:00:00	2024-11-08T13:00:00	7	Dirección del viento	4.83
98851	7	Sololá	701	Sololá	4	Finca Santa Victoria	4	Abril	2023-02-04T00:00:00	2024-11-08T13:00:00	1	Precipitación	0
98852	7	Sololá	701	Sololá	4	Finca Santa Victoria	4	Abril	2023-02-04T00:00:00	2024-11-08T13:00:00	8	Radiación solar	903
98853	7	Sololá	701	Sololá	4	Finca Santa Victoria	4	Abril	2023-02-04T00:00:00	2024-11-08T14:00:00	2	Temperatura media	23.7
98854	7	Sololá	701	Sololá	4	Finca Santa Victoria	4	Abril	2023-02-04T00:00:00	2024-11-08T14:00:00	4	Temperatura máxima	24
98855	7	Sololá	701	Sololá	4	Finca Santa Victoria	4	Abril	2023-02-04T00:00:00	2024-11-08T14:00:00	3	Temperatura mínima	23.1
98856	7	Sololá	701	Sololá	4	Finca Santa Victoria	4	Abril	2023-02-04T00:00:00	2024-11-08T14:00:00	5	Humedad	27
98857	7	Sololá	701	Sololá	4	Finca Santa Victoria	4	Abril	2023-02-04T00:00:00	2024-11-08T14:00:00	6	Velocidad del viento	4.8
98858	7	Sololá	701	Sololá	4	Finca Santa Victoria	4	Abril	2023-02-04T00:00:00	2024-11-08T14:00:00	7	Dirección del viento	4.83
98859	7	Sololá	701	Sololá	4	Finca Santa Victoria	4	Abril	2023-02-04T00:00:00	2024-11-08T14:00:00	1	Precipitación	0
98860	7	Sololá	701	Sololá	4	Finca Santa Victoria	4	Abril	2023-02-04T00:00:00	2024-11-08T14:00:00	8	Radiación solar	181
98861	7	Sololá	701	Sololá	4	Finca Santa Victoria	4	Abril	2023-02-04T00:00:00	2024-11-08T15:00:00	2	Temperatura media	23.1
98862	7	Sololá	701	Sololá	4	Finca Santa Victoria	4	Abril	2023-02-04T00:00:00	2024-11-08T15:00:00	4	Temperatura máxima	23.7
98863	7	Sololá	701	Sololá	4	Finca Santa Victoria	4	Abril	2023-02-04T00:00:00	2024-11-08T15:00:00	3	Temperatura mínima	22.7
98864	7	Sololá	701	Sololá	4	Finca Santa Victoria	4	Abril	2023-02-04T00:00:00	2024-11-08T15:00:00	5	Humedad	26
98865	7	Sololá	701	Sololá	4	Finca Santa Victoria	4	Abril	2023-02-04T00:00:00	2024-11-08T15:00:00	6	Velocidad del viento	4.8
98866	7	Sololá	701	Sololá	4	Finca Santa Victoria	4	Abril	2023-02-04T00:00:00	2024-11-08T15:00:00	7	Dirección del viento	4.83
98867	7	Sololá	701	Sololá	4	Finca Santa Victoria	4	Abril	2023-02-04T00:00:00	2024-11-08T15:00:00	1	Precipitación	0
98868	7	Sololá	701	Sololá	4	Finca Santa Victoria	4	Abril	2023-02-04T00:00:00	2024-11-08T15:00:00	8	Radiación solar	261
98869	7	Sololá	701	Sololá	4	Finca Santa Victoria	4	Abril	2023-02-04T00:00:00	2024-11-08T16:00:00	2	Temperatura media	22.6
98870	7	Sololá	701	Sololá	4	Finca Santa Victoria	4	Abril	2023-02-04T00:00:00	2024-11-08T16:00:00	4	Temperatura máxima	23.7
98871	7	Sololá	701	Sololá	4	Finca Santa Victoria	4	Abril	2023-02-04T00:00:00	2024-11-08T16:00:00	3	Temperatura mínima	22.6
98872	7	Sololá	701	Sololá	4	Finca Santa Victoria	4	Abril	2023-02-04T00:00:00	2024-11-08T16:00:00	5	Humedad	30
98873	7	Sololá	701	Sololá	4	Finca Santa Victoria	4	Abril	2023-02-04T00:00:00	2024-11-08T16:00:00	6	Velocidad del viento	4.8
98874	7	Sololá	701	Sololá	4	Finca Santa Victoria	4	Abril	2023-02-04T00:00:00	2024-11-08T16:00:00	7	Dirección del viento	4.83
98875	7	Sololá	701	Sololá	4	Finca Santa Victoria	4	Abril	2023-02-04T00:00:00	2024-11-08T16:00:00	1	Precipitación	0
98876	7	Sololá	701	Sololá	4	Finca Santa Victoria	4	Abril	2023-02-04T00:00:00	2024-11-08T16:00:00	8	Radiación solar	364
98877	7	Sololá	701	Sololá	4	Finca Santa Victoria	4	Abril	2023-02-04T00:00:00	2024-11-08T17:00:00	2	Temperatura media	18.3
98878	7	Sololá	701	Sololá	4	Finca Santa Victoria	4	Abril	2023-02-04T00:00:00	2024-11-08T17:00:00	4	Temperatura máxima	22.7
98879	7	Sololá	701	Sololá	4	Finca Santa Victoria	4	Abril	2023-02-04T00:00:00	2024-11-08T17:00:00	3	Temperatura mínima	18.3
98880	7	Sololá	701	Sololá	4	Finca Santa Victoria	4	Abril	2023-02-04T00:00:00	2024-11-08T17:00:00	5	Humedad	80
98881	7	Sololá	701	Sololá	4	Finca Santa Victoria	4	Abril	2023-02-04T00:00:00	2024-11-08T17:00:00	6	Velocidad del viento	3.2
98882	7	Sololá	701	Sololá	4	Finca Santa Victoria	4	Abril	2023-02-04T00:00:00	2024-11-08T17:00:00	7	Dirección del viento	3.22
98883	7	Sololá	701	Sololá	4	Finca Santa Victoria	4	Abril	2023-02-04T00:00:00	2024-11-08T17:00:00	1	Precipitación	0
98884	7	Sololá	701	Sololá	4	Finca Santa Victoria	4	Abril	2023-02-04T00:00:00	2024-11-08T17:00:00	8	Radiación solar	65
98885	7	Sololá	701	Sololá	4	Finca Santa Victoria	4	Abril	2023-02-04T00:00:00	2024-11-08T18:00:00	2	Temperatura media	15.8
98886	7	Sololá	701	Sololá	4	Finca Santa Victoria	4	Abril	2023-02-04T00:00:00	2024-11-08T18:00:00	4	Temperatura máxima	18.3
98887	7	Sololá	701	Sololá	4	Finca Santa Victoria	4	Abril	2023-02-04T00:00:00	2024-11-08T18:00:00	3	Temperatura mínima	15.8
98888	7	Sololá	701	Sololá	4	Finca Santa Victoria	4	Abril	2023-02-04T00:00:00	2024-11-08T18:00:00	5	Humedad	90
98889	7	Sololá	701	Sololá	4	Finca Santa Victoria	4	Abril	2023-02-04T00:00:00	2024-11-08T18:00:00	6	Velocidad del viento	3.2
98890	7	Sololá	701	Sololá	4	Finca Santa Victoria	4	Abril	2023-02-04T00:00:00	2024-11-08T18:00:00	7	Dirección del viento	3.22
98891	7	Sololá	701	Sololá	4	Finca Santa Victoria	4	Abril	2023-02-04T00:00:00	2024-11-08T18:00:00	1	Precipitación	0
98892	7	Sololá	701	Sololá	4	Finca Santa Victoria	4	Abril	2023-02-04T00:00:00	2024-11-08T18:00:00	8	Radiación solar	38
98893	7	Sololá	701	Sololá	4	Finca Santa Victoria	4	Abril	2023-02-04T00:00:00	2024-11-08T19:00:00	2	Temperatura media	14.8
98894	7	Sololá	701	Sololá	4	Finca Santa Victoria	4	Abril	2023-02-04T00:00:00	2024-11-08T19:00:00	4	Temperatura máxima	15.8
98895	7	Sololá	701	Sololá	4	Finca Santa Victoria	4	Abril	2023-02-04T00:00:00	2024-11-08T19:00:00	3	Temperatura mínima	14.3
98896	7	Sololá	701	Sololá	4	Finca Santa Victoria	4	Abril	2023-02-04T00:00:00	2024-11-08T19:00:00	5	Humedad	62
98897	7	Sololá	701	Sololá	4	Finca Santa Victoria	4	Abril	2023-02-04T00:00:00	2024-11-08T19:00:00	6	Velocidad del viento	1.6
98898	7	Sololá	701	Sololá	4	Finca Santa Victoria	4	Abril	2023-02-04T00:00:00	2024-11-08T19:00:00	7	Dirección del viento	1.61
98899	7	Sololá	701	Sololá	4	Finca Santa Victoria	4	Abril	2023-02-04T00:00:00	2024-11-08T19:00:00	1	Precipitación	0
98900	7	Sololá	701	Sololá	4	Finca Santa Victoria	4	Abril	2023-02-04T00:00:00	2024-11-08T19:00:00	8	Radiación solar	0
98901	7	Sololá	701	Sololá	4	Finca Santa Victoria	4	Abril	2023-02-04T00:00:00	2024-11-08T20:00:00	2	Temperatura media	14.5
98902	7	Sololá	701	Sololá	4	Finca Santa Victoria	4	Abril	2023-02-04T00:00:00	2024-11-08T20:00:00	4	Temperatura máxima	15.2
98903	7	Sololá	701	Sololá	4	Finca Santa Victoria	4	Abril	2023-02-04T00:00:00	2024-11-08T20:00:00	3	Temperatura mínima	14.4
98904	7	Sololá	701	Sololá	4	Finca Santa Victoria	4	Abril	2023-02-04T00:00:00	2024-11-08T20:00:00	5	Humedad	69
98905	7	Sololá	701	Sololá	4	Finca Santa Victoria	4	Abril	2023-02-04T00:00:00	2024-11-08T20:00:00	6	Velocidad del viento	1.6
98906	7	Sololá	701	Sololá	4	Finca Santa Victoria	4	Abril	2023-02-04T00:00:00	2024-11-08T20:00:00	7	Dirección del viento	1.61
98907	7	Sololá	701	Sololá	4	Finca Santa Victoria	4	Abril	2023-02-04T00:00:00	2024-11-08T20:00:00	1	Precipitación	0
98908	7	Sololá	701	Sololá	4	Finca Santa Victoria	4	Abril	2023-02-04T00:00:00	2024-11-08T20:00:00	8	Radiación solar	0
98909	7	Sololá	701	Sololá	4	Finca Santa Victoria	4	Abril	2023-02-04T00:00:00	2024-11-08T21:00:00	2	Temperatura media	13.8
98910	7	Sololá	701	Sololá	4	Finca Santa Victoria	4	Abril	2023-02-04T00:00:00	2024-11-08T21:00:00	4	Temperatura máxima	14.4
98911	7	Sololá	701	Sololá	4	Finca Santa Victoria	4	Abril	2023-02-04T00:00:00	2024-11-08T21:00:00	3	Temperatura mínima	13.8
98912	7	Sololá	701	Sololá	4	Finca Santa Victoria	4	Abril	2023-02-04T00:00:00	2024-11-08T21:00:00	5	Humedad	79
98913	7	Sololá	701	Sololá	4	Finca Santa Victoria	4	Abril	2023-02-04T00:00:00	2024-11-08T21:00:00	6	Velocidad del viento	1.6
98914	7	Sololá	701	Sololá	4	Finca Santa Victoria	4	Abril	2023-02-04T00:00:00	2024-11-08T21:00:00	7	Dirección del viento	1.61
98915	7	Sololá	701	Sololá	4	Finca Santa Victoria	4	Abril	2023-02-04T00:00:00	2024-11-08T21:00:00	1	Precipitación	0
98916	7	Sololá	701	Sololá	4	Finca Santa Victoria	4	Abril	2023-02-04T00:00:00	2024-11-08T21:00:00	8	Radiación solar	0
98917	7	Sololá	701	Sololá	4	Finca Santa Victoria	4	Abril	2023-02-04T00:00:00	2024-11-08T22:00:00	2	Temperatura media	13.1
98918	7	Sololá	701	Sololá	4	Finca Santa Victoria	4	Abril	2023-02-04T00:00:00	2024-11-08T22:00:00	4	Temperatura máxima	13.8
98919	7	Sololá	701	Sololá	4	Finca Santa Victoria	4	Abril	2023-02-04T00:00:00	2024-11-08T22:00:00	3	Temperatura mínima	13.1
98920	7	Sololá	701	Sololá	4	Finca Santa Victoria	4	Abril	2023-02-04T00:00:00	2024-11-08T22:00:00	5	Humedad	83
98921	7	Sololá	701	Sololá	4	Finca Santa Victoria	4	Abril	2023-02-04T00:00:00	2024-11-08T22:00:00	6	Velocidad del viento	1.6
98922	7	Sololá	701	Sololá	4	Finca Santa Victoria	4	Abril	2023-02-04T00:00:00	2024-11-08T22:00:00	7	Dirección del viento	1.61
98923	7	Sololá	701	Sololá	4	Finca Santa Victoria	4	Abril	2023-02-04T00:00:00	2024-11-08T22:00:00	1	Precipitación	0
98924	7	Sololá	701	Sololá	4	Finca Santa Victoria	4	Abril	2023-02-04T00:00:00	2024-11-08T22:00:00	8	Radiación solar	0
98925	7	Sololá	701	Sololá	4	Finca Santa Victoria	4	Abril	2023-02-04T00:00:00	2024-11-08T23:00:00	2	Temperatura media	12.4
98926	7	Sololá	701	Sololá	4	Finca Santa Victoria	4	Abril	2023-02-04T00:00:00	2024-11-08T23:00:00	4	Temperatura máxima	13.3
98927	7	Sololá	701	Sololá	4	Finca Santa Victoria	4	Abril	2023-02-04T00:00:00	2024-11-08T23:00:00	3	Temperatura mínima	12.4
98928	7	Sololá	701	Sololá	4	Finca Santa Victoria	4	Abril	2023-02-04T00:00:00	2024-11-08T23:00:00	5	Humedad	83
98929	7	Sololá	701	Sololá	4	Finca Santa Victoria	4	Abril	2023-02-04T00:00:00	2024-11-08T23:00:00	6	Velocidad del viento	3.2
98930	7	Sololá	701	Sololá	4	Finca Santa Victoria	4	Abril	2023-02-04T00:00:00	2024-11-08T23:00:00	7	Dirección del viento	3.22
98931	7	Sololá	701	Sololá	4	Finca Santa Victoria	4	Abril	2023-02-04T00:00:00	2024-11-08T23:00:00	1	Precipitación	0
98932	7	Sololá	701	Sololá	4	Finca Santa Victoria	4	Abril	2023-02-04T00:00:00	2024-11-08T23:00:00	8	Radiación solar	0
98933	7	Sololá	701	Sololá	4	Finca Santa Victoria	4	Abril	2023-03-04T00:00:00	2024-11-08T00:00:00	2	Temperatura media	10.9
98934	7	Sololá	701	Sololá	4	Finca Santa Victoria	4	Abril	2023-03-04T00:00:00	2024-11-08T00:00:00	4	Temperatura máxima	12.4
98935	7	Sololá	701	Sololá	4	Finca Santa Victoria	4	Abril	2023-03-04T00:00:00	2024-11-08T00:00:00	3	Temperatura mínima	10.9
98936	7	Sololá	701	Sololá	4	Finca Santa Victoria	4	Abril	2023-03-04T00:00:00	2024-11-08T00:00:00	5	Humedad	89
98937	7	Sololá	701	Sololá	4	Finca Santa Victoria	4	Abril	2023-03-04T00:00:00	2024-11-08T00:00:00	6	Velocidad del viento	1.6
98938	7	Sololá	701	Sololá	4	Finca Santa Victoria	4	Abril	2023-03-04T00:00:00	2024-11-08T00:00:00	7	Dirección del viento	1.61
98939	7	Sololá	701	Sololá	4	Finca Santa Victoria	4	Abril	2023-03-04T00:00:00	2024-11-08T00:00:00	1	Precipitación	0
98940	7	Sololá	701	Sololá	4	Finca Santa Victoria	4	Abril	2023-03-04T00:00:00	2024-11-08T00:00:00	8	Radiación solar	0
98941	7	Sololá	701	Sololá	4	Finca Santa Victoria	4	Abril	2023-03-04T00:00:00	2024-11-08T01:00:00	2	Temperatura media	10.2
98942	7	Sololá	701	Sololá	4	Finca Santa Victoria	4	Abril	2023-03-04T00:00:00	2024-11-08T01:00:00	4	Temperatura máxima	10.9
98943	7	Sololá	701	Sololá	4	Finca Santa Victoria	4	Abril	2023-03-04T00:00:00	2024-11-08T01:00:00	3	Temperatura mínima	10.1
98944	7	Sololá	701	Sololá	4	Finca Santa Victoria	4	Abril	2023-03-04T00:00:00	2024-11-08T01:00:00	5	Humedad	92
98945	7	Sololá	701	Sololá	4	Finca Santa Victoria	4	Abril	2023-03-04T00:00:00	2024-11-08T01:00:00	6	Velocidad del viento	1.6
98946	7	Sololá	701	Sololá	4	Finca Santa Victoria	4	Abril	2023-03-04T00:00:00	2024-11-08T01:00:00	7	Dirección del viento	1.61
98947	7	Sololá	701	Sololá	4	Finca Santa Victoria	4	Abril	2023-03-04T00:00:00	2024-11-08T01:00:00	1	Precipitación	0
98948	7	Sololá	701	Sololá	4	Finca Santa Victoria	4	Abril	2023-03-04T00:00:00	2024-11-08T01:00:00	8	Radiación solar	0
98949	7	Sololá	701	Sololá	4	Finca Santa Victoria	4	Abril	2023-03-04T00:00:00	2024-11-08T02:00:00	2	Temperatura media	10.4
98950	7	Sololá	701	Sololá	4	Finca Santa Victoria	4	Abril	2023-03-04T00:00:00	2024-11-08T02:00:00	4	Temperatura máxima	10.4
98951	7	Sololá	701	Sololá	4	Finca Santa Victoria	4	Abril	2023-03-04T00:00:00	2024-11-08T02:00:00	3	Temperatura mínima	10
98952	7	Sololá	701	Sololá	4	Finca Santa Victoria	4	Abril	2023-03-04T00:00:00	2024-11-08T02:00:00	5	Humedad	70
98953	7	Sololá	701	Sololá	4	Finca Santa Victoria	4	Abril	2023-03-04T00:00:00	2024-11-08T02:00:00	6	Velocidad del viento	1.6
98954	7	Sololá	701	Sololá	4	Finca Santa Victoria	4	Abril	2023-03-04T00:00:00	2024-11-08T02:00:00	7	Dirección del viento	1.61
98955	7	Sololá	701	Sololá	4	Finca Santa Victoria	4	Abril	2023-03-04T00:00:00	2024-11-08T02:00:00	1	Precipitación	0
98956	7	Sololá	701	Sololá	4	Finca Santa Victoria	4	Abril	2023-03-04T00:00:00	2024-11-08T02:00:00	8	Radiación solar	0
98957	7	Sololá	701	Sololá	4	Finca Santa Victoria	4	Abril	2023-03-04T00:00:00	2024-11-08T03:00:00	2	Temperatura media	11.6
98958	7	Sololá	701	Sololá	4	Finca Santa Victoria	4	Abril	2023-03-04T00:00:00	2024-11-08T03:00:00	4	Temperatura máxima	11.7
98959	7	Sololá	701	Sololá	4	Finca Santa Victoria	4	Abril	2023-03-04T00:00:00	2024-11-08T03:00:00	3	Temperatura mínima	10.4
98960	7	Sololá	701	Sololá	4	Finca Santa Victoria	4	Abril	2023-03-04T00:00:00	2024-11-08T03:00:00	5	Humedad	59
98961	7	Sololá	701	Sololá	4	Finca Santa Victoria	4	Abril	2023-03-04T00:00:00	2024-11-08T03:00:00	6	Velocidad del viento	3.2
98962	7	Sololá	701	Sololá	4	Finca Santa Victoria	4	Abril	2023-03-04T00:00:00	2024-11-08T03:00:00	7	Dirección del viento	3.22
98963	7	Sololá	701	Sololá	4	Finca Santa Victoria	4	Abril	2023-03-04T00:00:00	2024-11-08T03:00:00	1	Precipitación	0
98964	7	Sololá	701	Sololá	4	Finca Santa Victoria	4	Abril	2023-03-04T00:00:00	2024-11-08T03:00:00	8	Radiación solar	0
98965	7	Sololá	701	Sololá	4	Finca Santa Victoria	4	Abril	2023-03-04T00:00:00	2024-11-08T04:00:00	2	Temperatura media	11.8
98966	7	Sololá	701	Sololá	4	Finca Santa Victoria	4	Abril	2023-03-04T00:00:00	2024-11-08T04:00:00	4	Temperatura máxima	11.8
98967	7	Sololá	701	Sololá	4	Finca Santa Victoria	4	Abril	2023-03-04T00:00:00	2024-11-08T04:00:00	3	Temperatura mínima	11.6
98968	7	Sololá	701	Sololá	4	Finca Santa Victoria	4	Abril	2023-03-04T00:00:00	2024-11-08T04:00:00	5	Humedad	59
98969	7	Sololá	701	Sololá	4	Finca Santa Victoria	4	Abril	2023-03-04T00:00:00	2024-11-08T04:00:00	6	Velocidad del viento	1.6
98970	7	Sololá	701	Sololá	4	Finca Santa Victoria	4	Abril	2023-03-04T00:00:00	2024-11-08T04:00:00	7	Dirección del viento	1.61
98971	7	Sololá	701	Sololá	4	Finca Santa Victoria	4	Abril	2023-03-04T00:00:00	2024-11-08T04:00:00	1	Precipitación	0
98972	7	Sololá	701	Sololá	4	Finca Santa Victoria	4	Abril	2023-03-04T00:00:00	2024-11-08T04:00:00	8	Radiación solar	0
98973	7	Sololá	701	Sololá	4	Finca Santa Victoria	4	Abril	2023-03-04T00:00:00	2024-11-08T05:00:00	2	Temperatura media	11.4
98974	7	Sololá	701	Sololá	4	Finca Santa Victoria	4	Abril	2023-03-04T00:00:00	2024-11-08T05:00:00	4	Temperatura máxima	11.8
98975	7	Sololá	701	Sololá	4	Finca Santa Victoria	4	Abril	2023-03-04T00:00:00	2024-11-08T05:00:00	3	Temperatura mínima	11.3
98976	7	Sololá	701	Sololá	4	Finca Santa Victoria	4	Abril	2023-03-04T00:00:00	2024-11-08T05:00:00	5	Humedad	63
98977	7	Sololá	701	Sololá	4	Finca Santa Victoria	4	Abril	2023-03-04T00:00:00	2024-11-08T05:00:00	6	Velocidad del viento	1.6
98978	7	Sololá	701	Sololá	4	Finca Santa Victoria	4	Abril	2023-03-04T00:00:00	2024-11-08T05:00:00	7	Dirección del viento	1.61
98979	7	Sololá	701	Sololá	4	Finca Santa Victoria	4	Abril	2023-03-04T00:00:00	2024-11-08T05:00:00	1	Precipitación	0
98980	7	Sololá	701	Sololá	4	Finca Santa Victoria	4	Abril	2023-03-04T00:00:00	2024-11-08T05:00:00	8	Radiación solar	0
98981	7	Sololá	701	Sololá	4	Finca Santa Victoria	4	Abril	2023-03-04T00:00:00	2024-11-08T06:00:00	2	Temperatura media	11.6
98982	7	Sololá	701	Sololá	4	Finca Santa Victoria	4	Abril	2023-03-04T00:00:00	2024-11-08T06:00:00	4	Temperatura máxima	11.6
98983	7	Sololá	701	Sololá	4	Finca Santa Victoria	4	Abril	2023-03-04T00:00:00	2024-11-08T06:00:00	3	Temperatura mínima	11.3
98984	7	Sololá	701	Sololá	4	Finca Santa Victoria	4	Abril	2023-03-04T00:00:00	2024-11-08T06:00:00	5	Humedad	63
98985	7	Sololá	701	Sololá	4	Finca Santa Victoria	4	Abril	2023-03-04T00:00:00	2024-11-08T06:00:00	6	Velocidad del viento	1.6
98986	7	Sololá	701	Sololá	4	Finca Santa Victoria	4	Abril	2023-03-04T00:00:00	2024-11-08T06:00:00	7	Dirección del viento	1.61
98987	7	Sololá	701	Sololá	4	Finca Santa Victoria	4	Abril	2023-03-04T00:00:00	2024-11-08T06:00:00	1	Precipitación	0
98988	7	Sololá	701	Sololá	4	Finca Santa Victoria	4	Abril	2023-03-04T00:00:00	2024-11-08T06:00:00	8	Radiación solar	0
98989	7	Sololá	701	Sololá	4	Finca Santa Victoria	4	Abril	2023-03-04T00:00:00	2024-11-08T07:00:00	2	Temperatura media	12.2
98990	7	Sololá	701	Sololá	4	Finca Santa Victoria	4	Abril	2023-03-04T00:00:00	2024-11-08T07:00:00	4	Temperatura máxima	12.2
98991	7	Sololá	701	Sololá	4	Finca Santa Victoria	4	Abril	2023-03-04T00:00:00	2024-11-08T07:00:00	3	Temperatura mínima	11.6
98992	7	Sololá	701	Sololá	4	Finca Santa Victoria	4	Abril	2023-03-04T00:00:00	2024-11-08T07:00:00	5	Humedad	73
98993	7	Sololá	701	Sololá	4	Finca Santa Victoria	4	Abril	2023-03-04T00:00:00	2024-11-08T07:00:00	6	Velocidad del viento	1.6
98994	7	Sololá	701	Sololá	4	Finca Santa Victoria	4	Abril	2023-03-04T00:00:00	2024-11-08T07:00:00	7	Dirección del viento	1.61
98995	7	Sololá	701	Sololá	4	Finca Santa Victoria	4	Abril	2023-03-04T00:00:00	2024-11-08T07:00:00	1	Precipitación	0
98996	7	Sololá	701	Sololá	4	Finca Santa Victoria	4	Abril	2023-03-04T00:00:00	2024-11-08T07:00:00	8	Radiación solar	33
98997	7	Sololá	701	Sololá	4	Finca Santa Victoria	4	Abril	2023-03-04T00:00:00	2024-11-08T08:00:00	2	Temperatura media	15.2
98998	7	Sololá	701	Sololá	4	Finca Santa Victoria	4	Abril	2023-03-04T00:00:00	2024-11-08T08:00:00	4	Temperatura máxima	15.2
98999	7	Sololá	701	Sololá	4	Finca Santa Victoria	4	Abril	2023-03-04T00:00:00	2024-11-08T08:00:00	3	Temperatura mínima	12.2
99000	7	Sololá	701	Sololá	4	Finca Santa Victoria	4	Abril	2023-03-04T00:00:00	2024-11-08T08:00:00	5	Humedad	69
99001	7	Sololá	701	Sololá	4	Finca Santa Victoria	4	Abril	2023-03-04T00:00:00	2024-11-08T08:00:00	6	Velocidad del viento	1.6
99002	7	Sololá	701	Sololá	4	Finca Santa Victoria	4	Abril	2023-03-04T00:00:00	2024-11-08T08:00:00	7	Dirección del viento	1.61
99003	7	Sololá	701	Sololá	4	Finca Santa Victoria	4	Abril	2023-03-04T00:00:00	2024-11-08T08:00:00	1	Precipitación	0
99004	7	Sololá	701	Sololá	4	Finca Santa Victoria	4	Abril	2023-03-04T00:00:00	2024-11-08T08:00:00	8	Radiación solar	199
99005	7	Sololá	701	Sololá	4	Finca Santa Victoria	4	Abril	2023-03-04T00:00:00	2024-11-08T09:00:00	2	Temperatura media	16.3
99006	7	Sololá	701	Sololá	4	Finca Santa Victoria	4	Abril	2023-03-04T00:00:00	2024-11-08T09:00:00	4	Temperatura máxima	16.4
99007	7	Sololá	701	Sololá	4	Finca Santa Victoria	4	Abril	2023-03-04T00:00:00	2024-11-08T09:00:00	3	Temperatura mínima	15.2
99008	7	Sololá	701	Sololá	4	Finca Santa Victoria	4	Abril	2023-03-04T00:00:00	2024-11-08T09:00:00	5	Humedad	69
99009	7	Sololá	701	Sololá	4	Finca Santa Victoria	4	Abril	2023-03-04T00:00:00	2024-11-08T09:00:00	6	Velocidad del viento	1.6
99010	7	Sololá	701	Sololá	4	Finca Santa Victoria	4	Abril	2023-03-04T00:00:00	2024-11-08T09:00:00	7	Dirección del viento	1.61
99011	7	Sololá	701	Sololá	4	Finca Santa Victoria	4	Abril	2023-03-04T00:00:00	2024-11-08T09:00:00	1	Precipitación	0
99012	7	Sololá	701	Sololá	4	Finca Santa Victoria	4	Abril	2023-03-04T00:00:00	2024-11-08T09:00:00	8	Radiación solar	523
99013	7	Sololá	701	Sololá	4	Finca Santa Victoria	4	Abril	2023-03-04T00:00:00	2024-11-08T10:00:00	2	Temperatura media	17.9
99014	7	Sololá	701	Sololá	4	Finca Santa Victoria	4	Abril	2023-03-04T00:00:00	2024-11-08T10:00:00	4	Temperatura máxima	18
99015	7	Sololá	701	Sololá	4	Finca Santa Victoria	4	Abril	2023-03-04T00:00:00	2024-11-08T10:00:00	3	Temperatura mínima	16.2
99016	7	Sololá	701	Sololá	4	Finca Santa Victoria	4	Abril	2023-03-04T00:00:00	2024-11-08T10:00:00	5	Humedad	68
99017	7	Sololá	701	Sololá	4	Finca Santa Victoria	4	Abril	2023-03-04T00:00:00	2024-11-08T10:00:00	6	Velocidad del viento	3.2
99018	7	Sololá	701	Sololá	4	Finca Santa Victoria	4	Abril	2023-03-04T00:00:00	2024-11-08T10:00:00	7	Dirección del viento	3.22
99019	7	Sololá	701	Sololá	4	Finca Santa Victoria	4	Abril	2023-03-04T00:00:00	2024-11-08T10:00:00	1	Precipitación	0
99020	7	Sololá	701	Sololá	4	Finca Santa Victoria	4	Abril	2023-03-04T00:00:00	2024-11-08T10:00:00	8	Radiación solar	780
99021	7	Sololá	701	Sololá	4	Finca Santa Victoria	4	Abril	2023-03-04T00:00:00	2024-11-08T11:00:00	2	Temperatura media	17.9
99022	7	Sololá	701	Sololá	4	Finca Santa Victoria	4	Abril	2023-03-04T00:00:00	2024-11-08T11:00:00	4	Temperatura máxima	18.4
99023	7	Sololá	701	Sololá	4	Finca Santa Victoria	4	Abril	2023-03-04T00:00:00	2024-11-08T11:00:00	3	Temperatura mínima	17.8
99024	7	Sololá	701	Sololá	4	Finca Santa Victoria	4	Abril	2023-03-04T00:00:00	2024-11-08T11:00:00	5	Humedad	67
99025	7	Sololá	701	Sololá	4	Finca Santa Victoria	4	Abril	2023-03-04T00:00:00	2024-11-08T11:00:00	6	Velocidad del viento	4.8
99026	7	Sololá	701	Sololá	4	Finca Santa Victoria	4	Abril	2023-03-04T00:00:00	2024-11-08T11:00:00	7	Dirección del viento	4.83
99027	7	Sololá	701	Sololá	4	Finca Santa Victoria	4	Abril	2023-03-04T00:00:00	2024-11-08T11:00:00	1	Precipitación	0
99028	7	Sololá	701	Sololá	4	Finca Santa Victoria	4	Abril	2023-03-04T00:00:00	2024-11-08T11:00:00	8	Radiación solar	921
99029	7	Sololá	701	Sololá	4	Finca Santa Victoria	4	Abril	2023-03-04T00:00:00	2024-11-08T12:00:00	2	Temperatura media	19.2
99030	7	Sololá	701	Sololá	4	Finca Santa Victoria	4	Abril	2023-03-04T00:00:00	2024-11-08T12:00:00	4	Temperatura máxima	19.6
99031	7	Sololá	701	Sololá	4	Finca Santa Victoria	4	Abril	2023-03-04T00:00:00	2024-11-08T12:00:00	3	Temperatura mínima	17.8
99032	7	Sololá	701	Sololá	4	Finca Santa Victoria	4	Abril	2023-03-04T00:00:00	2024-11-08T12:00:00	5	Humedad	69
99033	7	Sololá	701	Sololá	4	Finca Santa Victoria	4	Abril	2023-03-04T00:00:00	2024-11-08T12:00:00	6	Velocidad del viento	4.8
99034	7	Sololá	701	Sololá	4	Finca Santa Victoria	4	Abril	2023-03-04T00:00:00	2024-11-08T12:00:00	7	Dirección del viento	4.83
99035	7	Sololá	701	Sololá	4	Finca Santa Victoria	4	Abril	2023-03-04T00:00:00	2024-11-08T12:00:00	1	Precipitación	0
99036	7	Sololá	701	Sololá	4	Finca Santa Victoria	4	Abril	2023-03-04T00:00:00	2024-11-08T12:00:00	8	Radiación solar	993
99037	7	Sololá	701	Sololá	4	Finca Santa Victoria	4	Abril	2023-03-04T00:00:00	2024-11-08T13:00:00	2	Temperatura media	18.6
99038	7	Sololá	701	Sololá	4	Finca Santa Victoria	4	Abril	2023-03-04T00:00:00	2024-11-08T13:00:00	4	Temperatura máxima	19.2
99039	7	Sololá	701	Sololá	4	Finca Santa Victoria	4	Abril	2023-03-04T00:00:00	2024-11-08T13:00:00	3	Temperatura mínima	18.4
99040	7	Sololá	701	Sololá	4	Finca Santa Victoria	4	Abril	2023-03-04T00:00:00	2024-11-08T13:00:00	5	Humedad	76
99041	7	Sololá	701	Sololá	4	Finca Santa Victoria	4	Abril	2023-03-04T00:00:00	2024-11-08T13:00:00	6	Velocidad del viento	6.4
99042	7	Sololá	701	Sololá	4	Finca Santa Victoria	4	Abril	2023-03-04T00:00:00	2024-11-08T13:00:00	7	Dirección del viento	6.44
99043	7	Sololá	701	Sololá	4	Finca Santa Victoria	4	Abril	2023-03-04T00:00:00	2024-11-08T13:00:00	1	Precipitación	0
99044	7	Sololá	701	Sololá	4	Finca Santa Victoria	4	Abril	2023-03-04T00:00:00	2024-11-08T13:00:00	8	Radiación solar	846
99045	7	Sololá	701	Sololá	4	Finca Santa Victoria	4	Abril	2023-03-04T00:00:00	2024-11-08T14:00:00	2	Temperatura media	16.8
99046	7	Sololá	701	Sololá	4	Finca Santa Victoria	4	Abril	2023-03-04T00:00:00	2024-11-08T14:00:00	4	Temperatura máxima	18.6
99047	7	Sololá	701	Sololá	4	Finca Santa Victoria	4	Abril	2023-03-04T00:00:00	2024-11-08T14:00:00	3	Temperatura mínima	16.8
99048	7	Sololá	701	Sololá	4	Finca Santa Victoria	4	Abril	2023-03-04T00:00:00	2024-11-08T14:00:00	5	Humedad	82
99049	7	Sololá	701	Sololá	4	Finca Santa Victoria	4	Abril	2023-03-04T00:00:00	2024-11-08T14:00:00	6	Velocidad del viento	6.4
99050	7	Sololá	701	Sololá	4	Finca Santa Victoria	4	Abril	2023-03-04T00:00:00	2024-11-08T14:00:00	7	Dirección del viento	6.44
99051	7	Sololá	701	Sololá	4	Finca Santa Victoria	4	Abril	2023-03-04T00:00:00	2024-11-08T14:00:00	1	Precipitación	0
99052	7	Sololá	701	Sololá	4	Finca Santa Victoria	4	Abril	2023-03-04T00:00:00	2024-11-08T14:00:00	8	Radiación solar	315
99053	7	Sololá	701	Sololá	4	Finca Santa Victoria	4	Abril	2023-03-04T00:00:00	2024-11-08T15:00:00	2	Temperatura media	17.1
99054	7	Sololá	701	Sololá	4	Finca Santa Victoria	4	Abril	2023-03-04T00:00:00	2024-11-08T15:00:00	4	Temperatura máxima	17.7
99055	7	Sololá	701	Sololá	4	Finca Santa Victoria	4	Abril	2023-03-04T00:00:00	2024-11-08T15:00:00	3	Temperatura mínima	16.7
99056	7	Sololá	701	Sololá	4	Finca Santa Victoria	4	Abril	2023-03-04T00:00:00	2024-11-08T15:00:00	5	Humedad	84
99057	7	Sololá	701	Sololá	4	Finca Santa Victoria	4	Abril	2023-03-04T00:00:00	2024-11-08T15:00:00	6	Velocidad del viento	4.8
99058	7	Sololá	701	Sololá	4	Finca Santa Victoria	4	Abril	2023-03-04T00:00:00	2024-11-08T15:00:00	7	Dirección del viento	4.83
99059	7	Sololá	701	Sololá	4	Finca Santa Victoria	4	Abril	2023-03-04T00:00:00	2024-11-08T15:00:00	1	Precipitación	0
99060	7	Sololá	701	Sololá	4	Finca Santa Victoria	4	Abril	2023-03-04T00:00:00	2024-11-08T15:00:00	8	Radiación solar	256
99061	7	Sololá	701	Sololá	4	Finca Santa Victoria	4	Abril	2023-03-04T00:00:00	2024-11-08T16:00:00	2	Temperatura media	15.9
99062	7	Sololá	701	Sololá	4	Finca Santa Victoria	4	Abril	2023-03-04T00:00:00	2024-11-08T16:00:00	4	Temperatura máxima	17.2
99063	7	Sololá	701	Sololá	4	Finca Santa Victoria	4	Abril	2023-03-04T00:00:00	2024-11-08T16:00:00	3	Temperatura mínima	15.9
99064	7	Sololá	701	Sololá	4	Finca Santa Victoria	4	Abril	2023-03-04T00:00:00	2024-11-08T16:00:00	5	Humedad	88
99065	7	Sololá	701	Sololá	4	Finca Santa Victoria	4	Abril	2023-03-04T00:00:00	2024-11-08T16:00:00	6	Velocidad del viento	4.8
99066	7	Sololá	701	Sololá	4	Finca Santa Victoria	4	Abril	2023-03-04T00:00:00	2024-11-08T16:00:00	7	Dirección del viento	4.83
99067	7	Sololá	701	Sololá	4	Finca Santa Victoria	4	Abril	2023-03-04T00:00:00	2024-11-08T16:00:00	1	Precipitación	0
99068	7	Sololá	701	Sololá	4	Finca Santa Victoria	4	Abril	2023-03-04T00:00:00	2024-11-08T16:00:00	8	Radiación solar	163
99069	7	Sololá	701	Sololá	4	Finca Santa Victoria	4	Abril	2023-03-04T00:00:00	2024-11-08T17:00:00	2	Temperatura media	15.4
99070	7	Sololá	701	Sololá	4	Finca Santa Victoria	4	Abril	2023-03-04T00:00:00	2024-11-08T17:00:00	4	Temperatura máxima	15.9
99071	7	Sololá	701	Sololá	4	Finca Santa Victoria	4	Abril	2023-03-04T00:00:00	2024-11-08T17:00:00	3	Temperatura mínima	15.4
99072	7	Sololá	701	Sololá	4	Finca Santa Victoria	4	Abril	2023-03-04T00:00:00	2024-11-08T17:00:00	5	Humedad	91
99073	7	Sololá	701	Sololá	4	Finca Santa Victoria	4	Abril	2023-03-04T00:00:00	2024-11-08T17:00:00	6	Velocidad del viento	3.2
99074	7	Sololá	701	Sololá	4	Finca Santa Victoria	4	Abril	2023-03-04T00:00:00	2024-11-08T17:00:00	7	Dirección del viento	3.22
99075	7	Sololá	701	Sololá	4	Finca Santa Victoria	4	Abril	2023-03-04T00:00:00	2024-11-08T17:00:00	1	Precipitación	0
99076	7	Sololá	701	Sololá	4	Finca Santa Victoria	4	Abril	2023-03-04T00:00:00	2024-11-08T17:00:00	8	Radiación solar	84
99077	7	Sololá	701	Sololá	4	Finca Santa Victoria	4	Abril	2023-03-04T00:00:00	2024-11-08T18:00:00	2	Temperatura media	15.5
99078	7	Sololá	701	Sololá	4	Finca Santa Victoria	4	Abril	2023-03-04T00:00:00	2024-11-08T18:00:00	4	Temperatura máxima	16
99079	7	Sololá	701	Sololá	4	Finca Santa Victoria	4	Abril	2023-03-04T00:00:00	2024-11-08T18:00:00	3	Temperatura mínima	15.4
99080	7	Sololá	701	Sololá	4	Finca Santa Victoria	4	Abril	2023-03-04T00:00:00	2024-11-08T18:00:00	5	Humedad	92
99081	7	Sololá	701	Sololá	4	Finca Santa Victoria	4	Abril	2023-03-04T00:00:00	2024-11-08T18:00:00	6	Velocidad del viento	1.6
99082	7	Sololá	701	Sololá	4	Finca Santa Victoria	4	Abril	2023-03-04T00:00:00	2024-11-08T18:00:00	7	Dirección del viento	1.61
99083	7	Sololá	701	Sololá	4	Finca Santa Victoria	4	Abril	2023-03-04T00:00:00	2024-11-08T18:00:00	1	Precipitación	0
99084	7	Sololá	701	Sololá	4	Finca Santa Victoria	4	Abril	2023-03-04T00:00:00	2024-11-08T18:00:00	8	Radiación solar	46
99085	7	Sololá	701	Sololá	4	Finca Santa Victoria	4	Abril	2023-03-04T00:00:00	2024-11-08T19:00:00	2	Temperatura media	14.5
99086	7	Sololá	701	Sololá	4	Finca Santa Victoria	4	Abril	2023-03-04T00:00:00	2024-11-08T19:00:00	4	Temperatura máxima	15.4
99087	7	Sololá	701	Sololá	4	Finca Santa Victoria	4	Abril	2023-03-04T00:00:00	2024-11-08T19:00:00	3	Temperatura mínima	14.5
99088	7	Sololá	701	Sololá	4	Finca Santa Victoria	4	Abril	2023-03-04T00:00:00	2024-11-08T19:00:00	5	Humedad	95
99089	7	Sololá	701	Sololá	4	Finca Santa Victoria	4	Abril	2023-03-04T00:00:00	2024-11-08T19:00:00	6	Velocidad del viento	0
99090	7	Sololá	701	Sololá	4	Finca Santa Victoria	4	Abril	2023-03-04T00:00:00	2024-11-08T19:00:00	7	Dirección del viento	0
99091	7	Sololá	701	Sololá	4	Finca Santa Victoria	4	Abril	2023-03-04T00:00:00	2024-11-08T19:00:00	1	Precipitación	0
99092	7	Sololá	701	Sololá	4	Finca Santa Victoria	4	Abril	2023-03-04T00:00:00	2024-11-08T19:00:00	8	Radiación solar	0
99093	7	Sololá	701	Sololá	4	Finca Santa Victoria	4	Abril	2023-03-04T00:00:00	2024-11-08T20:00:00	2	Temperatura media	13.8
99094	7	Sololá	701	Sololá	4	Finca Santa Victoria	4	Abril	2023-03-04T00:00:00	2024-11-08T20:00:00	4	Temperatura máxima	14.5
99095	7	Sololá	701	Sololá	4	Finca Santa Victoria	4	Abril	2023-03-04T00:00:00	2024-11-08T20:00:00	3	Temperatura mínima	13.8
99096	7	Sololá	701	Sololá	4	Finca Santa Victoria	4	Abril	2023-03-04T00:00:00	2024-11-08T20:00:00	5	Humedad	95
99097	7	Sololá	701	Sololá	4	Finca Santa Victoria	4	Abril	2023-03-04T00:00:00	2024-11-08T20:00:00	6	Velocidad del viento	0
99098	7	Sololá	701	Sololá	4	Finca Santa Victoria	4	Abril	2023-03-04T00:00:00	2024-11-08T20:00:00	7	Dirección del viento	0
99099	7	Sololá	701	Sololá	4	Finca Santa Victoria	4	Abril	2023-03-04T00:00:00	2024-11-08T20:00:00	1	Precipitación	0
99100	7	Sololá	701	Sololá	4	Finca Santa Victoria	4	Abril	2023-03-04T00:00:00	2024-11-08T20:00:00	8	Radiación solar	0
99101	7	Sololá	701	Sololá	4	Finca Santa Victoria	4	Abril	2023-03-04T00:00:00	2024-11-08T21:00:00	2	Temperatura media	12.7
99102	7	Sololá	701	Sololá	4	Finca Santa Victoria	4	Abril	2023-03-04T00:00:00	2024-11-08T21:00:00	4	Temperatura máxima	13.8
99103	7	Sololá	701	Sololá	4	Finca Santa Victoria	4	Abril	2023-03-04T00:00:00	2024-11-08T21:00:00	3	Temperatura mínima	12.7
99104	7	Sololá	701	Sololá	4	Finca Santa Victoria	4	Abril	2023-03-04T00:00:00	2024-11-08T21:00:00	5	Humedad	95
99105	7	Sololá	701	Sololá	4	Finca Santa Victoria	4	Abril	2023-03-04T00:00:00	2024-11-08T21:00:00	6	Velocidad del viento	0
99106	7	Sololá	701	Sololá	4	Finca Santa Victoria	4	Abril	2023-03-04T00:00:00	2024-11-08T21:00:00	7	Dirección del viento	0
99107	7	Sololá	701	Sololá	4	Finca Santa Victoria	4	Abril	2023-03-04T00:00:00	2024-11-08T21:00:00	1	Precipitación	0
99108	7	Sololá	701	Sololá	4	Finca Santa Victoria	4	Abril	2023-03-04T00:00:00	2024-11-08T21:00:00	8	Radiación solar	0
99109	7	Sololá	701	Sololá	4	Finca Santa Victoria	4	Abril	2023-03-04T00:00:00	2024-11-08T22:00:00	2	Temperatura media	12.6
99110	7	Sololá	701	Sololá	4	Finca Santa Victoria	4	Abril	2023-03-04T00:00:00	2024-11-08T22:00:00	4	Temperatura máxima	12.7
99111	7	Sololá	701	Sololá	4	Finca Santa Victoria	4	Abril	2023-03-04T00:00:00	2024-11-08T22:00:00	3	Temperatura mínima	12.3
99112	7	Sololá	701	Sololá	4	Finca Santa Victoria	4	Abril	2023-03-04T00:00:00	2024-11-08T22:00:00	5	Humedad	84
99113	7	Sololá	701	Sololá	4	Finca Santa Victoria	4	Abril	2023-03-04T00:00:00	2024-11-08T22:00:00	6	Velocidad del viento	1.6
99114	7	Sololá	701	Sololá	4	Finca Santa Victoria	4	Abril	2023-03-04T00:00:00	2024-11-08T22:00:00	7	Dirección del viento	1.61
99115	7	Sololá	701	Sololá	4	Finca Santa Victoria	4	Abril	2023-03-04T00:00:00	2024-11-08T22:00:00	1	Precipitación	0
99116	7	Sololá	701	Sololá	4	Finca Santa Victoria	4	Abril	2023-03-04T00:00:00	2024-11-08T22:00:00	8	Radiación solar	0
99117	7	Sololá	701	Sololá	4	Finca Santa Victoria	4	Abril	2023-03-04T00:00:00	2024-11-08T23:00:00	2	Temperatura media	13.1
99118	7	Sololá	701	Sololá	4	Finca Santa Victoria	4	Abril	2023-03-04T00:00:00	2024-11-08T23:00:00	4	Temperatura máxima	13.2
99119	7	Sololá	701	Sololá	4	Finca Santa Victoria	4	Abril	2023-03-04T00:00:00	2024-11-08T23:00:00	3	Temperatura mínima	12.5
99120	7	Sololá	701	Sololá	4	Finca Santa Victoria	4	Abril	2023-03-04T00:00:00	2024-11-08T23:00:00	5	Humedad	78
99121	7	Sololá	701	Sololá	4	Finca Santa Victoria	4	Abril	2023-03-04T00:00:00	2024-11-08T23:00:00	6	Velocidad del viento	1.6
99122	7	Sololá	701	Sololá	4	Finca Santa Victoria	4	Abril	2023-03-04T00:00:00	2024-11-08T23:00:00	7	Dirección del viento	1.61
99123	7	Sololá	701	Sololá	4	Finca Santa Victoria	4	Abril	2023-03-04T00:00:00	2024-11-08T23:00:00	1	Precipitación	0
99124	7	Sololá	701	Sololá	4	Finca Santa Victoria	4	Abril	2023-03-04T00:00:00	2024-11-08T23:00:00	8	Radiación solar	0
99125	7	Sololá	701	Sololá	4	Finca Santa Victoria	4	Abril	2023-04-04T00:00:00	2024-11-08T00:00:00	2	Temperatura media	11.6
99126	7	Sololá	701	Sololá	4	Finca Santa Victoria	4	Abril	2023-04-04T00:00:00	2024-11-08T00:00:00	4	Temperatura máxima	13.1
99127	7	Sololá	701	Sololá	4	Finca Santa Victoria	4	Abril	2023-04-04T00:00:00	2024-11-08T00:00:00	3	Temperatura mínima	11.6
99128	7	Sololá	701	Sololá	4	Finca Santa Victoria	4	Abril	2023-04-04T00:00:00	2024-11-08T00:00:00	5	Humedad	84
99129	7	Sololá	701	Sololá	4	Finca Santa Victoria	4	Abril	2023-04-04T00:00:00	2024-11-08T00:00:00	6	Velocidad del viento	1.6
99130	7	Sololá	701	Sololá	4	Finca Santa Victoria	4	Abril	2023-04-04T00:00:00	2024-11-08T00:00:00	7	Dirección del viento	1.61
99131	7	Sololá	701	Sololá	4	Finca Santa Victoria	4	Abril	2023-04-04T00:00:00	2024-11-08T00:00:00	1	Precipitación	0
99132	7	Sololá	701	Sololá	4	Finca Santa Victoria	4	Abril	2023-04-04T00:00:00	2024-11-08T00:00:00	8	Radiación solar	0
99133	7	Sololá	701	Sololá	4	Finca Santa Victoria	4	Abril	2023-04-04T00:00:00	2024-11-08T01:00:00	2	Temperatura media	10.7
99134	7	Sololá	701	Sololá	4	Finca Santa Victoria	4	Abril	2023-04-04T00:00:00	2024-11-08T01:00:00	4	Temperatura máxima	11.6
99135	7	Sololá	701	Sololá	4	Finca Santa Victoria	4	Abril	2023-04-04T00:00:00	2024-11-08T01:00:00	3	Temperatura mínima	10.7
99136	7	Sololá	701	Sololá	4	Finca Santa Victoria	4	Abril	2023-04-04T00:00:00	2024-11-08T01:00:00	5	Humedad	87
99137	7	Sololá	701	Sololá	4	Finca Santa Victoria	4	Abril	2023-04-04T00:00:00	2024-11-08T01:00:00	6	Velocidad del viento	1.6
99138	7	Sololá	701	Sololá	4	Finca Santa Victoria	4	Abril	2023-04-04T00:00:00	2024-11-08T01:00:00	7	Dirección del viento	1.61
99139	7	Sololá	701	Sololá	4	Finca Santa Victoria	4	Abril	2023-04-04T00:00:00	2024-11-08T01:00:00	1	Precipitación	0
99140	7	Sololá	701	Sololá	4	Finca Santa Victoria	4	Abril	2023-04-04T00:00:00	2024-11-08T01:00:00	8	Radiación solar	0
99141	7	Sololá	701	Sololá	4	Finca Santa Victoria	4	Abril	2023-04-04T00:00:00	2024-11-08T02:00:00	2	Temperatura media	11.1
99142	7	Sololá	701	Sololá	4	Finca Santa Victoria	4	Abril	2023-04-04T00:00:00	2024-11-08T02:00:00	4	Temperatura máxima	11.1
99143	7	Sololá	701	Sololá	4	Finca Santa Victoria	4	Abril	2023-04-04T00:00:00	2024-11-08T02:00:00	3	Temperatura mínima	10.7
99144	7	Sololá	701	Sololá	4	Finca Santa Victoria	4	Abril	2023-04-04T00:00:00	2024-11-08T02:00:00	5	Humedad	92
99145	7	Sololá	701	Sololá	4	Finca Santa Victoria	4	Abril	2023-04-04T00:00:00	2024-11-08T02:00:00	6	Velocidad del viento	1.6
99146	7	Sololá	701	Sololá	4	Finca Santa Victoria	4	Abril	2023-04-04T00:00:00	2024-11-08T02:00:00	7	Dirección del viento	1.61
99147	7	Sololá	701	Sololá	4	Finca Santa Victoria	4	Abril	2023-04-04T00:00:00	2024-11-08T02:00:00	1	Precipitación	0
99148	7	Sololá	701	Sololá	4	Finca Santa Victoria	4	Abril	2023-04-04T00:00:00	2024-11-08T02:00:00	8	Radiación solar	0
99149	7	Sololá	701	Sololá	4	Finca Santa Victoria	4	Abril	2023-04-04T00:00:00	2024-11-08T03:00:00	2	Temperatura media	11.8
99150	7	Sololá	701	Sololá	4	Finca Santa Victoria	4	Abril	2023-04-04T00:00:00	2024-11-08T03:00:00	4	Temperatura máxima	11.8
99151	7	Sololá	701	Sololá	4	Finca Santa Victoria	4	Abril	2023-04-04T00:00:00	2024-11-08T03:00:00	3	Temperatura mínima	10.9
99152	7	Sololá	701	Sololá	4	Finca Santa Victoria	4	Abril	2023-04-04T00:00:00	2024-11-08T03:00:00	5	Humedad	79
99153	7	Sololá	701	Sololá	4	Finca Santa Victoria	4	Abril	2023-04-04T00:00:00	2024-11-08T03:00:00	6	Velocidad del viento	1.6
99154	7	Sololá	701	Sololá	4	Finca Santa Victoria	4	Abril	2023-04-04T00:00:00	2024-11-08T03:00:00	7	Dirección del viento	1.61
99155	7	Sololá	701	Sololá	4	Finca Santa Victoria	4	Abril	2023-04-04T00:00:00	2024-11-08T03:00:00	1	Precipitación	0
99156	7	Sololá	701	Sololá	4	Finca Santa Victoria	4	Abril	2023-04-04T00:00:00	2024-11-08T03:00:00	8	Radiación solar	0
99157	7	Sololá	701	Sololá	4	Finca Santa Victoria	4	Abril	2023-04-04T00:00:00	2024-11-08T04:00:00	2	Temperatura media	11.8
99158	7	Sololá	701	Sololá	4	Finca Santa Victoria	4	Abril	2023-04-04T00:00:00	2024-11-08T04:00:00	4	Temperatura máxima	11.9
99159	7	Sololá	701	Sololá	4	Finca Santa Victoria	4	Abril	2023-04-04T00:00:00	2024-11-08T04:00:00	3	Temperatura mínima	11.8
99160	7	Sololá	701	Sololá	4	Finca Santa Victoria	4	Abril	2023-04-04T00:00:00	2024-11-08T04:00:00	5	Humedad	81
99161	7	Sololá	701	Sololá	4	Finca Santa Victoria	4	Abril	2023-04-04T00:00:00	2024-11-08T04:00:00	6	Velocidad del viento	1.6
99162	7	Sololá	701	Sololá	4	Finca Santa Victoria	4	Abril	2023-04-04T00:00:00	2024-11-08T04:00:00	7	Dirección del viento	1.61
99163	7	Sololá	701	Sololá	4	Finca Santa Victoria	4	Abril	2023-04-04T00:00:00	2024-11-08T04:00:00	1	Precipitación	0
99164	7	Sololá	701	Sololá	4	Finca Santa Victoria	4	Abril	2023-04-04T00:00:00	2024-11-08T04:00:00	8	Radiación solar	0
99165	7	Sololá	701	Sololá	4	Finca Santa Victoria	4	Abril	2023-04-04T00:00:00	2024-11-08T05:00:00	2	Temperatura media	11.6
99166	7	Sololá	701	Sololá	4	Finca Santa Victoria	4	Abril	2023-04-04T00:00:00	2024-11-08T05:00:00	4	Temperatura máxima	11.8
99167	7	Sololá	701	Sololá	4	Finca Santa Victoria	4	Abril	2023-04-04T00:00:00	2024-11-08T05:00:00	3	Temperatura mínima	11.6
99168	7	Sololá	701	Sololá	4	Finca Santa Victoria	4	Abril	2023-04-04T00:00:00	2024-11-08T05:00:00	5	Humedad	79
99169	7	Sololá	701	Sololá	4	Finca Santa Victoria	4	Abril	2023-04-04T00:00:00	2024-11-08T05:00:00	6	Velocidad del viento	1.6
99170	7	Sololá	701	Sololá	4	Finca Santa Victoria	4	Abril	2023-04-04T00:00:00	2024-11-08T05:00:00	7	Dirección del viento	1.61
99171	7	Sololá	701	Sololá	4	Finca Santa Victoria	4	Abril	2023-04-04T00:00:00	2024-11-08T05:00:00	1	Precipitación	0
99172	7	Sololá	701	Sololá	4	Finca Santa Victoria	4	Abril	2023-04-04T00:00:00	2024-11-08T05:00:00	8	Radiación solar	0
99173	7	Sololá	701	Sololá	4	Finca Santa Victoria	4	Abril	2023-04-04T00:00:00	2024-11-08T06:00:00	2	Temperatura media	11.4
99174	7	Sololá	701	Sololá	4	Finca Santa Victoria	4	Abril	2023-04-04T00:00:00	2024-11-08T06:00:00	4	Temperatura máxima	11.6
99175	7	Sololá	701	Sololá	4	Finca Santa Victoria	4	Abril	2023-04-04T00:00:00	2024-11-08T06:00:00	3	Temperatura mínima	11.3
99176	7	Sololá	701	Sololá	4	Finca Santa Victoria	4	Abril	2023-04-04T00:00:00	2024-11-08T06:00:00	5	Humedad	79
99177	7	Sololá	701	Sololá	4	Finca Santa Victoria	4	Abril	2023-04-04T00:00:00	2024-11-08T06:00:00	6	Velocidad del viento	1.6
99178	7	Sololá	701	Sololá	4	Finca Santa Victoria	4	Abril	2023-04-04T00:00:00	2024-11-08T06:00:00	7	Dirección del viento	1.61
99179	7	Sololá	701	Sololá	4	Finca Santa Victoria	4	Abril	2023-04-04T00:00:00	2024-11-08T06:00:00	1	Precipitación	0
99180	7	Sololá	701	Sololá	4	Finca Santa Victoria	4	Abril	2023-04-04T00:00:00	2024-11-08T06:00:00	8	Radiación solar	0
99181	7	Sololá	701	Sololá	4	Finca Santa Victoria	4	Abril	2023-04-04T00:00:00	2024-11-08T07:00:00	2	Temperatura media	11.5
99182	7	Sololá	701	Sololá	4	Finca Santa Victoria	4	Abril	2023-04-04T00:00:00	2024-11-08T07:00:00	4	Temperatura máxima	11.5
99183	7	Sololá	701	Sololá	4	Finca Santa Victoria	4	Abril	2023-04-04T00:00:00	2024-11-08T07:00:00	3	Temperatura mínima	11.3
99184	7	Sololá	701	Sololá	4	Finca Santa Victoria	4	Abril	2023-04-04T00:00:00	2024-11-08T07:00:00	5	Humedad	85
99185	7	Sololá	701	Sololá	4	Finca Santa Victoria	4	Abril	2023-04-04T00:00:00	2024-11-08T07:00:00	6	Velocidad del viento	0
99186	7	Sololá	701	Sololá	4	Finca Santa Victoria	4	Abril	2023-04-04T00:00:00	2024-11-08T07:00:00	7	Dirección del viento	0
99187	7	Sololá	701	Sololá	4	Finca Santa Victoria	4	Abril	2023-04-04T00:00:00	2024-11-08T07:00:00	1	Precipitación	0
99188	7	Sololá	701	Sololá	4	Finca Santa Victoria	4	Abril	2023-04-04T00:00:00	2024-11-08T07:00:00	8	Radiación solar	20
99189	7	Sololá	701	Sololá	4	Finca Santa Victoria	4	Abril	2023-04-04T00:00:00	2024-11-08T08:00:00	2	Temperatura media	13.6
99190	7	Sololá	701	Sololá	4	Finca Santa Victoria	4	Abril	2023-04-04T00:00:00	2024-11-08T08:00:00	4	Temperatura máxima	13.6
99191	7	Sololá	701	Sololá	4	Finca Santa Victoria	4	Abril	2023-04-04T00:00:00	2024-11-08T08:00:00	3	Temperatura mínima	11.6
99192	7	Sololá	701	Sololá	4	Finca Santa Victoria	4	Abril	2023-04-04T00:00:00	2024-11-08T08:00:00	5	Humedad	88
99193	7	Sololá	701	Sololá	4	Finca Santa Victoria	4	Abril	2023-04-04T00:00:00	2024-11-08T08:00:00	6	Velocidad del viento	1.6
99194	7	Sololá	701	Sololá	4	Finca Santa Victoria	4	Abril	2023-04-04T00:00:00	2024-11-08T08:00:00	7	Dirección del viento	1.61
99195	7	Sololá	701	Sololá	4	Finca Santa Victoria	4	Abril	2023-04-04T00:00:00	2024-11-08T08:00:00	1	Precipitación	0
99196	7	Sololá	701	Sololá	4	Finca Santa Victoria	4	Abril	2023-04-04T00:00:00	2024-11-08T08:00:00	8	Radiación solar	154
99197	7	Sololá	701	Sololá	4	Finca Santa Victoria	4	Abril	2023-04-04T00:00:00	2024-11-08T09:00:00	2	Temperatura media	14.1
99198	7	Sololá	701	Sololá	4	Finca Santa Victoria	4	Abril	2023-04-04T00:00:00	2024-11-08T09:00:00	4	Temperatura máxima	14.5
99199	7	Sololá	701	Sololá	4	Finca Santa Victoria	4	Abril	2023-04-04T00:00:00	2024-11-08T09:00:00	3	Temperatura mínima	13.6
99200	7	Sololá	701	Sololá	4	Finca Santa Victoria	4	Abril	2023-04-04T00:00:00	2024-11-08T09:00:00	5	Humedad	81
99201	7	Sololá	701	Sololá	4	Finca Santa Victoria	4	Abril	2023-04-04T00:00:00	2024-11-08T09:00:00	6	Velocidad del viento	3.2
99202	7	Sololá	701	Sololá	4	Finca Santa Victoria	4	Abril	2023-04-04T00:00:00	2024-11-08T09:00:00	7	Dirección del viento	3.22
99203	7	Sololá	701	Sololá	4	Finca Santa Victoria	4	Abril	2023-04-04T00:00:00	2024-11-08T09:00:00	1	Precipitación	0
99204	7	Sololá	701	Sololá	4	Finca Santa Victoria	4	Abril	2023-04-04T00:00:00	2024-11-08T09:00:00	8	Radiación solar	349
99205	7	Sololá	701	Sololá	4	Finca Santa Victoria	4	Abril	2023-04-04T00:00:00	2024-11-08T10:00:00	2	Temperatura media	16.7
99206	7	Sololá	701	Sololá	4	Finca Santa Victoria	4	Abril	2023-04-04T00:00:00	2024-11-08T10:00:00	4	Temperatura máxima	16.8
99207	7	Sololá	701	Sololá	4	Finca Santa Victoria	4	Abril	2023-04-04T00:00:00	2024-11-08T10:00:00	3	Temperatura mínima	14.1
99208	7	Sololá	701	Sololá	4	Finca Santa Victoria	4	Abril	2023-04-04T00:00:00	2024-11-08T10:00:00	5	Humedad	71
99209	7	Sololá	701	Sololá	4	Finca Santa Victoria	4	Abril	2023-04-04T00:00:00	2024-11-08T10:00:00	6	Velocidad del viento	3.2
99210	7	Sololá	701	Sololá	4	Finca Santa Victoria	4	Abril	2023-04-04T00:00:00	2024-11-08T10:00:00	7	Dirección del viento	3.22
99211	7	Sololá	701	Sololá	4	Finca Santa Victoria	4	Abril	2023-04-04T00:00:00	2024-11-08T10:00:00	1	Precipitación	0
99212	7	Sololá	701	Sololá	4	Finca Santa Victoria	4	Abril	2023-04-04T00:00:00	2024-11-08T10:00:00	8	Radiación solar	773
99213	7	Sololá	701	Sololá	4	Finca Santa Victoria	4	Abril	2023-04-04T00:00:00	2024-11-08T11:00:00	2	Temperatura media	18.2
99214	7	Sololá	701	Sololá	4	Finca Santa Victoria	4	Abril	2023-04-04T00:00:00	2024-11-08T11:00:00	4	Temperatura máxima	18.3
99215	7	Sololá	701	Sololá	4	Finca Santa Victoria	4	Abril	2023-04-04T00:00:00	2024-11-08T11:00:00	3	Temperatura mínima	16.6
99216	7	Sololá	701	Sololá	4	Finca Santa Victoria	4	Abril	2023-04-04T00:00:00	2024-11-08T11:00:00	5	Humedad	66
99217	7	Sololá	701	Sololá	4	Finca Santa Victoria	4	Abril	2023-04-04T00:00:00	2024-11-08T11:00:00	6	Velocidad del viento	4.8
99218	7	Sololá	701	Sololá	4	Finca Santa Victoria	4	Abril	2023-04-04T00:00:00	2024-11-08T11:00:00	7	Dirección del viento	4.83
99219	7	Sololá	701	Sololá	4	Finca Santa Victoria	4	Abril	2023-04-04T00:00:00	2024-11-08T11:00:00	1	Precipitación	0
99220	7	Sololá	701	Sololá	4	Finca Santa Victoria	4	Abril	2023-04-04T00:00:00	2024-11-08T11:00:00	8	Radiación solar	928
99221	7	Sololá	701	Sololá	4	Finca Santa Victoria	4	Abril	2023-04-04T00:00:00	2024-11-08T12:00:00	2	Temperatura media	18.1
99222	7	Sololá	701	Sololá	4	Finca Santa Victoria	4	Abril	2023-04-04T00:00:00	2024-11-08T12:00:00	4	Temperatura máxima	18.6
99223	7	Sololá	701	Sololá	4	Finca Santa Victoria	4	Abril	2023-04-04T00:00:00	2024-11-08T12:00:00	3	Temperatura mínima	18
99224	7	Sololá	701	Sololá	4	Finca Santa Victoria	4	Abril	2023-04-04T00:00:00	2024-11-08T12:00:00	5	Humedad	68
99225	7	Sololá	701	Sololá	4	Finca Santa Victoria	4	Abril	2023-04-04T00:00:00	2024-11-08T12:00:00	6	Velocidad del viento	4.8
99226	7	Sololá	701	Sololá	4	Finca Santa Victoria	4	Abril	2023-04-04T00:00:00	2024-11-08T12:00:00	7	Dirección del viento	4.83
99227	7	Sololá	701	Sololá	4	Finca Santa Victoria	4	Abril	2023-04-04T00:00:00	2024-11-08T12:00:00	1	Precipitación	0
99228	7	Sololá	701	Sololá	4	Finca Santa Victoria	4	Abril	2023-04-04T00:00:00	2024-11-08T12:00:00	8	Radiación solar	994
99229	7	Sololá	701	Sololá	4	Finca Santa Victoria	4	Abril	2023-04-04T00:00:00	2024-11-08T13:00:00	2	Temperatura media	19.2
99230	7	Sololá	701	Sololá	4	Finca Santa Victoria	4	Abril	2023-04-04T00:00:00	2024-11-08T13:00:00	4	Temperatura máxima	19.2
99231	7	Sololá	701	Sololá	4	Finca Santa Victoria	4	Abril	2023-04-04T00:00:00	2024-11-08T13:00:00	3	Temperatura mínima	18.1
99232	7	Sololá	701	Sololá	4	Finca Santa Victoria	4	Abril	2023-04-04T00:00:00	2024-11-08T13:00:00	5	Humedad	71
99233	7	Sololá	701	Sololá	4	Finca Santa Victoria	4	Abril	2023-04-04T00:00:00	2024-11-08T13:00:00	6	Velocidad del viento	6.4
99234	7	Sololá	701	Sololá	4	Finca Santa Victoria	4	Abril	2023-04-04T00:00:00	2024-11-08T13:00:00	7	Dirección del viento	6.44
99235	7	Sololá	701	Sololá	4	Finca Santa Victoria	4	Abril	2023-04-04T00:00:00	2024-11-08T13:00:00	1	Precipitación	0
99236	7	Sololá	701	Sololá	4	Finca Santa Victoria	4	Abril	2023-04-04T00:00:00	2024-11-08T13:00:00	8	Radiación solar	872
99237	7	Sololá	701	Sololá	4	Finca Santa Victoria	4	Abril	2023-04-04T00:00:00	2024-11-08T14:00:00	2	Temperatura media	18.3
99238	7	Sololá	701	Sololá	4	Finca Santa Victoria	4	Abril	2023-04-04T00:00:00	2024-11-08T14:00:00	4	Temperatura máxima	19.5
99239	7	Sololá	701	Sololá	4	Finca Santa Victoria	4	Abril	2023-04-04T00:00:00	2024-11-08T14:00:00	3	Temperatura mínima	18.2
99240	7	Sololá	701	Sololá	4	Finca Santa Victoria	4	Abril	2023-04-04T00:00:00	2024-11-08T14:00:00	5	Humedad	77
99241	7	Sololá	701	Sololá	4	Finca Santa Victoria	4	Abril	2023-04-04T00:00:00	2024-11-08T14:00:00	6	Velocidad del viento	6.4
99242	7	Sololá	701	Sololá	4	Finca Santa Victoria	4	Abril	2023-04-04T00:00:00	2024-11-08T14:00:00	7	Dirección del viento	6.44
99243	7	Sololá	701	Sololá	4	Finca Santa Victoria	4	Abril	2023-04-04T00:00:00	2024-11-08T14:00:00	1	Precipitación	0
99244	7	Sololá	701	Sololá	4	Finca Santa Victoria	4	Abril	2023-04-04T00:00:00	2024-11-08T14:00:00	8	Radiación solar	275
99245	7	Sololá	701	Sololá	4	Finca Santa Victoria	4	Abril	2023-04-04T00:00:00	2024-11-08T15:00:00	2	Temperatura media	16.8
99246	7	Sololá	701	Sololá	4	Finca Santa Victoria	4	Abril	2023-04-04T00:00:00	2024-11-08T15:00:00	4	Temperatura máxima	18.3
99247	7	Sololá	701	Sololá	4	Finca Santa Victoria	4	Abril	2023-04-04T00:00:00	2024-11-08T15:00:00	3	Temperatura mínima	16.8
99248	7	Sololá	701	Sololá	4	Finca Santa Victoria	4	Abril	2023-04-04T00:00:00	2024-11-08T15:00:00	5	Humedad	83
99249	7	Sololá	701	Sololá	4	Finca Santa Victoria	4	Abril	2023-04-04T00:00:00	2024-11-08T15:00:00	6	Velocidad del viento	4.8
99250	7	Sololá	701	Sololá	4	Finca Santa Victoria	4	Abril	2023-04-04T00:00:00	2024-11-08T15:00:00	7	Dirección del viento	4.83
99251	7	Sololá	701	Sololá	4	Finca Santa Victoria	4	Abril	2023-04-04T00:00:00	2024-11-08T15:00:00	1	Precipitación	0
99252	7	Sololá	701	Sololá	4	Finca Santa Victoria	4	Abril	2023-04-04T00:00:00	2024-11-08T15:00:00	8	Radiación solar	281
99253	7	Sololá	701	Sololá	4	Finca Santa Victoria	4	Abril	2023-04-04T00:00:00	2024-11-08T16:00:00	2	Temperatura media	15.8
99254	7	Sololá	701	Sololá	4	Finca Santa Victoria	4	Abril	2023-04-04T00:00:00	2024-11-08T16:00:00	4	Temperatura máxima	16.8
99255	7	Sololá	701	Sololá	4	Finca Santa Victoria	4	Abril	2023-04-04T00:00:00	2024-11-08T16:00:00	3	Temperatura mínima	15.7
99256	7	Sololá	701	Sololá	4	Finca Santa Victoria	4	Abril	2023-04-04T00:00:00	2024-11-08T16:00:00	5	Humedad	89
99257	7	Sololá	701	Sololá	4	Finca Santa Victoria	4	Abril	2023-04-04T00:00:00	2024-11-08T16:00:00	6	Velocidad del viento	3.2
99258	7	Sololá	701	Sololá	4	Finca Santa Victoria	4	Abril	2023-04-04T00:00:00	2024-11-08T16:00:00	7	Dirección del viento	3.22
99259	7	Sololá	701	Sololá	4	Finca Santa Victoria	4	Abril	2023-04-04T00:00:00	2024-11-08T16:00:00	1	Precipitación	0
99260	7	Sololá	701	Sololá	4	Finca Santa Victoria	4	Abril	2023-04-04T00:00:00	2024-11-08T16:00:00	8	Radiación solar	110
99261	7	Sololá	701	Sololá	4	Finca Santa Victoria	4	Abril	2023-04-04T00:00:00	2024-11-08T17:00:00	2	Temperatura media	15.1
99262	7	Sololá	701	Sololá	4	Finca Santa Victoria	4	Abril	2023-04-04T00:00:00	2024-11-08T17:00:00	4	Temperatura máxima	15.9
99263	7	Sololá	701	Sololá	4	Finca Santa Victoria	4	Abril	2023-04-04T00:00:00	2024-11-08T17:00:00	3	Temperatura mínima	14.9
99264	7	Sololá	701	Sololá	4	Finca Santa Victoria	4	Abril	2023-04-04T00:00:00	2024-11-08T17:00:00	5	Humedad	91
99265	7	Sololá	701	Sololá	4	Finca Santa Victoria	4	Abril	2023-04-04T00:00:00	2024-11-08T17:00:00	6	Velocidad del viento	3.2
99266	7	Sololá	701	Sololá	4	Finca Santa Victoria	4	Abril	2023-04-04T00:00:00	2024-11-08T17:00:00	7	Dirección del viento	3.22
99267	7	Sololá	701	Sololá	4	Finca Santa Victoria	4	Abril	2023-04-04T00:00:00	2024-11-08T17:00:00	1	Precipitación	0
99268	7	Sololá	701	Sololá	4	Finca Santa Victoria	4	Abril	2023-04-04T00:00:00	2024-11-08T17:00:00	8	Radiación solar	76
99269	7	Sololá	701	Sololá	4	Finca Santa Victoria	4	Abril	2023-04-04T00:00:00	2024-11-08T18:00:00	2	Temperatura media	14.6
99270	7	Sololá	701	Sololá	4	Finca Santa Victoria	4	Abril	2023-04-04T00:00:00	2024-11-08T18:00:00	4	Temperatura máxima	15.1
99271	7	Sololá	701	Sololá	4	Finca Santa Victoria	4	Abril	2023-04-04T00:00:00	2024-11-08T18:00:00	3	Temperatura mínima	14.6
99272	7	Sololá	701	Sololá	4	Finca Santa Victoria	4	Abril	2023-04-04T00:00:00	2024-11-08T18:00:00	5	Humedad	94
99273	7	Sololá	701	Sololá	4	Finca Santa Victoria	4	Abril	2023-04-04T00:00:00	2024-11-08T18:00:00	6	Velocidad del viento	1.6
99274	7	Sololá	701	Sololá	4	Finca Santa Victoria	4	Abril	2023-04-04T00:00:00	2024-11-08T18:00:00	7	Dirección del viento	1.61
99275	7	Sololá	701	Sololá	4	Finca Santa Victoria	4	Abril	2023-04-04T00:00:00	2024-11-08T18:00:00	1	Precipitación	0
99276	7	Sololá	701	Sololá	4	Finca Santa Victoria	4	Abril	2023-04-04T00:00:00	2024-11-08T18:00:00	8	Radiación solar	20
99277	7	Sololá	701	Sololá	4	Finca Santa Victoria	4	Abril	2023-04-04T00:00:00	2024-11-08T19:00:00	2	Temperatura media	14.4
99278	7	Sololá	701	Sololá	4	Finca Santa Victoria	4	Abril	2023-04-04T00:00:00	2024-11-08T19:00:00	4	Temperatura máxima	14.6
99279	7	Sololá	701	Sololá	4	Finca Santa Victoria	4	Abril	2023-04-04T00:00:00	2024-11-08T19:00:00	3	Temperatura mínima	14.3
99280	7	Sololá	701	Sololá	4	Finca Santa Victoria	4	Abril	2023-04-04T00:00:00	2024-11-08T19:00:00	5	Humedad	95
99281	7	Sololá	701	Sololá	4	Finca Santa Victoria	4	Abril	2023-04-04T00:00:00	2024-11-08T19:00:00	6	Velocidad del viento	0
99282	7	Sololá	701	Sololá	4	Finca Santa Victoria	4	Abril	2023-04-04T00:00:00	2024-11-08T19:00:00	7	Dirección del viento	0
99283	7	Sololá	701	Sololá	4	Finca Santa Victoria	4	Abril	2023-04-04T00:00:00	2024-11-08T19:00:00	1	Precipitación	0
99284	7	Sololá	701	Sololá	4	Finca Santa Victoria	4	Abril	2023-04-04T00:00:00	2024-11-08T19:00:00	8	Radiación solar	0
99285	7	Sololá	701	Sololá	4	Finca Santa Victoria	4	Abril	2023-04-04T00:00:00	2024-11-08T20:00:00	2	Temperatura media	14
99286	7	Sololá	701	Sololá	4	Finca Santa Victoria	4	Abril	2023-04-04T00:00:00	2024-11-08T20:00:00	4	Temperatura máxima	14.4
99287	7	Sololá	701	Sololá	4	Finca Santa Victoria	4	Abril	2023-04-04T00:00:00	2024-11-08T20:00:00	3	Temperatura mínima	14
99288	7	Sololá	701	Sololá	4	Finca Santa Victoria	4	Abril	2023-04-04T00:00:00	2024-11-08T20:00:00	5	Humedad	95
99289	7	Sololá	701	Sololá	4	Finca Santa Victoria	4	Abril	2023-04-04T00:00:00	2024-11-08T20:00:00	6	Velocidad del viento	0
99290	7	Sololá	701	Sololá	4	Finca Santa Victoria	4	Abril	2023-04-04T00:00:00	2024-11-08T20:00:00	7	Dirección del viento	0
99291	7	Sololá	701	Sololá	4	Finca Santa Victoria	4	Abril	2023-04-04T00:00:00	2024-11-08T20:00:00	1	Precipitación	0
99292	7	Sololá	701	Sololá	4	Finca Santa Victoria	4	Abril	2023-04-04T00:00:00	2024-11-08T20:00:00	8	Radiación solar	0
99293	7	Sololá	701	Sololá	4	Finca Santa Victoria	4	Abril	2023-04-04T00:00:00	2024-11-08T21:00:00	2	Temperatura media	13.3
99294	7	Sololá	701	Sololá	4	Finca Santa Victoria	4	Abril	2023-04-04T00:00:00	2024-11-08T21:00:00	4	Temperatura máxima	14
99295	7	Sololá	701	Sololá	4	Finca Santa Victoria	4	Abril	2023-04-04T00:00:00	2024-11-08T21:00:00	3	Temperatura mínima	13.2
99296	7	Sololá	701	Sololá	4	Finca Santa Victoria	4	Abril	2023-04-04T00:00:00	2024-11-08T21:00:00	5	Humedad	96
99297	7	Sololá	701	Sololá	4	Finca Santa Victoria	4	Abril	2023-04-04T00:00:00	2024-11-08T21:00:00	6	Velocidad del viento	0
99298	7	Sololá	701	Sololá	4	Finca Santa Victoria	4	Abril	2023-04-04T00:00:00	2024-11-08T21:00:00	7	Dirección del viento	0
99299	7	Sololá	701	Sololá	4	Finca Santa Victoria	4	Abril	2023-04-04T00:00:00	2024-11-08T21:00:00	1	Precipitación	0
99300	7	Sololá	701	Sololá	4	Finca Santa Victoria	4	Abril	2023-04-04T00:00:00	2024-11-08T21:00:00	8	Radiación solar	0
99301	7	Sololá	701	Sololá	4	Finca Santa Victoria	4	Abril	2023-04-04T00:00:00	2024-11-08T22:00:00	2	Temperatura media	13.1
99302	7	Sololá	701	Sololá	4	Finca Santa Victoria	4	Abril	2023-04-04T00:00:00	2024-11-08T22:00:00	4	Temperatura máxima	13.3
99303	7	Sololá	701	Sololá	4	Finca Santa Victoria	4	Abril	2023-04-04T00:00:00	2024-11-08T22:00:00	3	Temperatura mínima	13.1
99304	7	Sololá	701	Sololá	4	Finca Santa Victoria	4	Abril	2023-04-04T00:00:00	2024-11-08T22:00:00	5	Humedad	97
99305	7	Sololá	701	Sololá	4	Finca Santa Victoria	4	Abril	2023-04-04T00:00:00	2024-11-08T22:00:00	6	Velocidad del viento	0
99306	7	Sololá	701	Sololá	4	Finca Santa Victoria	4	Abril	2023-04-04T00:00:00	2024-11-08T22:00:00	7	Dirección del viento	0
99307	7	Sololá	701	Sololá	4	Finca Santa Victoria	4	Abril	2023-04-04T00:00:00	2024-11-08T22:00:00	1	Precipitación	0
99308	7	Sololá	701	Sololá	4	Finca Santa Victoria	4	Abril	2023-04-04T00:00:00	2024-11-08T22:00:00	8	Radiación solar	0
99309	7	Sololá	701	Sololá	4	Finca Santa Victoria	4	Abril	2023-04-04T00:00:00	2024-11-08T23:00:00	2	Temperatura media	13
99310	7	Sololá	701	Sololá	4	Finca Santa Victoria	4	Abril	2023-04-04T00:00:00	2024-11-08T23:00:00	4	Temperatura máxima	13.2
99311	7	Sololá	701	Sololá	4	Finca Santa Victoria	4	Abril	2023-04-04T00:00:00	2024-11-08T23:00:00	3	Temperatura mínima	13
99312	7	Sololá	701	Sololá	4	Finca Santa Victoria	4	Abril	2023-04-04T00:00:00	2024-11-08T23:00:00	5	Humedad	96
99313	7	Sololá	701	Sololá	4	Finca Santa Victoria	4	Abril	2023-04-04T00:00:00	2024-11-08T23:00:00	6	Velocidad del viento	0
99314	7	Sololá	701	Sololá	4	Finca Santa Victoria	4	Abril	2023-04-04T00:00:00	2024-11-08T23:00:00	7	Dirección del viento	0
99315	7	Sololá	701	Sololá	4	Finca Santa Victoria	4	Abril	2023-04-04T00:00:00	2024-11-08T23:00:00	1	Precipitación	0
99316	7	Sololá	701	Sololá	4	Finca Santa Victoria	4	Abril	2023-04-04T00:00:00	2024-11-08T23:00:00	8	Radiación solar	0
99317	7	Sololá	701	Sololá	4	Finca Santa Victoria	4	Abril	2023-05-04T00:00:00	2024-11-08T00:00:00	2	Temperatura media	13
99318	7	Sololá	701	Sololá	4	Finca Santa Victoria	4	Abril	2023-05-04T00:00:00	2024-11-08T00:00:00	4	Temperatura máxima	13.6
99319	7	Sololá	701	Sololá	4	Finca Santa Victoria	4	Abril	2023-05-04T00:00:00	2024-11-08T00:00:00	3	Temperatura mínima	13
99320	7	Sololá	701	Sololá	4	Finca Santa Victoria	4	Abril	2023-05-04T00:00:00	2024-11-08T00:00:00	5	Humedad	88
99321	7	Sololá	701	Sololá	4	Finca Santa Victoria	4	Abril	2023-05-04T00:00:00	2024-11-08T00:00:00	6	Velocidad del viento	1.6
99322	7	Sololá	701	Sololá	4	Finca Santa Victoria	4	Abril	2023-05-04T00:00:00	2024-11-08T00:00:00	7	Dirección del viento	1.61
99323	7	Sololá	701	Sololá	4	Finca Santa Victoria	4	Abril	2023-05-04T00:00:00	2024-11-08T00:00:00	1	Precipitación	0
99324	7	Sololá	701	Sololá	4	Finca Santa Victoria	4	Abril	2023-05-04T00:00:00	2024-11-08T00:00:00	8	Radiación solar	0
99325	7	Sololá	701	Sololá	4	Finca Santa Victoria	4	Abril	2023-05-04T00:00:00	2024-11-08T01:00:00	2	Temperatura media	12.9
99326	7	Sololá	701	Sololá	4	Finca Santa Victoria	4	Abril	2023-05-04T00:00:00	2024-11-08T01:00:00	4	Temperatura máxima	13.1
99327	7	Sololá	701	Sololá	4	Finca Santa Victoria	4	Abril	2023-05-04T00:00:00	2024-11-08T01:00:00	3	Temperatura mínima	12.8
99328	7	Sololá	701	Sololá	4	Finca Santa Victoria	4	Abril	2023-05-04T00:00:00	2024-11-08T01:00:00	5	Humedad	87
99329	7	Sololá	701	Sololá	4	Finca Santa Victoria	4	Abril	2023-05-04T00:00:00	2024-11-08T01:00:00	6	Velocidad del viento	1.6
99330	7	Sololá	701	Sololá	4	Finca Santa Victoria	4	Abril	2023-05-04T00:00:00	2024-11-08T01:00:00	7	Dirección del viento	1.61
99331	7	Sololá	701	Sololá	4	Finca Santa Victoria	4	Abril	2023-05-04T00:00:00	2024-11-08T01:00:00	1	Precipitación	0
99332	7	Sololá	701	Sololá	4	Finca Santa Victoria	4	Abril	2023-05-04T00:00:00	2024-11-08T01:00:00	8	Radiación solar	0
99333	7	Sololá	701	Sololá	4	Finca Santa Victoria	4	Abril	2023-05-04T00:00:00	2024-11-08T02:00:00	2	Temperatura media	13.3
99334	7	Sololá	701	Sololá	4	Finca Santa Victoria	4	Abril	2023-05-04T00:00:00	2024-11-08T02:00:00	4	Temperatura máxima	13.3
99335	7	Sololá	701	Sololá	4	Finca Santa Victoria	4	Abril	2023-05-04T00:00:00	2024-11-08T02:00:00	3	Temperatura mínima	12.8
99336	7	Sololá	701	Sololá	4	Finca Santa Victoria	4	Abril	2023-05-04T00:00:00	2024-11-08T02:00:00	5	Humedad	88
99337	7	Sololá	701	Sololá	4	Finca Santa Victoria	4	Abril	2023-05-04T00:00:00	2024-11-08T02:00:00	6	Velocidad del viento	0
99338	7	Sololá	701	Sololá	4	Finca Santa Victoria	4	Abril	2023-05-04T00:00:00	2024-11-08T02:00:00	7	Dirección del viento	0
99339	7	Sololá	701	Sololá	4	Finca Santa Victoria	4	Abril	2023-05-04T00:00:00	2024-11-08T02:00:00	1	Precipitación	0
99340	7	Sololá	701	Sololá	4	Finca Santa Victoria	4	Abril	2023-05-04T00:00:00	2024-11-08T02:00:00	8	Radiación solar	0
99341	7	Sololá	701	Sololá	4	Finca Santa Victoria	4	Abril	2023-05-04T00:00:00	2024-11-08T03:00:00	2	Temperatura media	12.9
99342	7	Sololá	701	Sololá	4	Finca Santa Victoria	4	Abril	2023-05-04T00:00:00	2024-11-08T03:00:00	4	Temperatura máxima	13.3
99343	7	Sololá	701	Sololá	4	Finca Santa Victoria	4	Abril	2023-05-04T00:00:00	2024-11-08T03:00:00	3	Temperatura mínima	12.8
99344	7	Sololá	701	Sololá	4	Finca Santa Victoria	4	Abril	2023-05-04T00:00:00	2024-11-08T03:00:00	5	Humedad	87
99345	7	Sololá	701	Sololá	4	Finca Santa Victoria	4	Abril	2023-05-04T00:00:00	2024-11-08T03:00:00	6	Velocidad del viento	0
99346	7	Sololá	701	Sololá	4	Finca Santa Victoria	4	Abril	2023-05-04T00:00:00	2024-11-08T03:00:00	7	Dirección del viento	0
99347	7	Sololá	701	Sololá	4	Finca Santa Victoria	4	Abril	2023-05-04T00:00:00	2024-11-08T03:00:00	1	Precipitación	0
99348	7	Sololá	701	Sololá	4	Finca Santa Victoria	4	Abril	2023-05-04T00:00:00	2024-11-08T03:00:00	8	Radiación solar	0
99349	7	Sololá	701	Sololá	4	Finca Santa Victoria	4	Abril	2023-05-04T00:00:00	2024-11-08T04:00:00	2	Temperatura media	12.4
99350	7	Sololá	701	Sololá	4	Finca Santa Victoria	4	Abril	2023-05-04T00:00:00	2024-11-08T04:00:00	4	Temperatura máxima	12.9
99351	7	Sololá	701	Sololá	4	Finca Santa Victoria	4	Abril	2023-05-04T00:00:00	2024-11-08T04:00:00	3	Temperatura mínima	12.4
99352	7	Sololá	701	Sololá	4	Finca Santa Victoria	4	Abril	2023-05-04T00:00:00	2024-11-08T04:00:00	5	Humedad	88
99353	7	Sololá	701	Sololá	4	Finca Santa Victoria	4	Abril	2023-05-04T00:00:00	2024-11-08T04:00:00	6	Velocidad del viento	1.6
99354	7	Sololá	701	Sololá	4	Finca Santa Victoria	4	Abril	2023-05-04T00:00:00	2024-11-08T04:00:00	7	Dirección del viento	1.61
99355	7	Sololá	701	Sololá	4	Finca Santa Victoria	4	Abril	2023-05-04T00:00:00	2024-11-08T04:00:00	1	Precipitación	0
99356	7	Sololá	701	Sololá	4	Finca Santa Victoria	4	Abril	2023-05-04T00:00:00	2024-11-08T04:00:00	8	Radiación solar	0
99357	7	Sololá	701	Sololá	4	Finca Santa Victoria	4	Abril	2023-05-04T00:00:00	2024-11-08T05:00:00	2	Temperatura media	12.3
99358	7	Sololá	701	Sololá	4	Finca Santa Victoria	4	Abril	2023-05-04T00:00:00	2024-11-08T05:00:00	4	Temperatura máxima	12.5
99359	7	Sololá	701	Sololá	4	Finca Santa Victoria	4	Abril	2023-05-04T00:00:00	2024-11-08T05:00:00	3	Temperatura mínima	12.2
99360	7	Sololá	701	Sololá	4	Finca Santa Victoria	4	Abril	2023-05-04T00:00:00	2024-11-08T05:00:00	5	Humedad	86
99361	7	Sololá	701	Sololá	4	Finca Santa Victoria	4	Abril	2023-05-04T00:00:00	2024-11-08T05:00:00	6	Velocidad del viento	1.6
99362	7	Sololá	701	Sololá	4	Finca Santa Victoria	4	Abril	2023-05-04T00:00:00	2024-11-08T05:00:00	7	Dirección del viento	1.61
99363	7	Sololá	701	Sololá	4	Finca Santa Victoria	4	Abril	2023-05-04T00:00:00	2024-11-08T05:00:00	1	Precipitación	0
99364	7	Sololá	701	Sololá	4	Finca Santa Victoria	4	Abril	2023-05-04T00:00:00	2024-11-08T05:00:00	8	Radiación solar	0
99365	7	Sololá	701	Sololá	4	Finca Santa Victoria	4	Abril	2023-05-04T00:00:00	2024-11-08T06:00:00	2	Temperatura media	12.4
99366	7	Sololá	701	Sololá	4	Finca Santa Victoria	4	Abril	2023-05-04T00:00:00	2024-11-08T06:00:00	4	Temperatura máxima	12.4
99367	7	Sololá	701	Sololá	4	Finca Santa Victoria	4	Abril	2023-05-04T00:00:00	2024-11-08T06:00:00	3	Temperatura mínima	12.3
99368	7	Sololá	701	Sololá	4	Finca Santa Victoria	4	Abril	2023-05-04T00:00:00	2024-11-08T06:00:00	5	Humedad	88
99369	7	Sololá	701	Sololá	4	Finca Santa Victoria	4	Abril	2023-05-04T00:00:00	2024-11-08T06:00:00	6	Velocidad del viento	1.6
99370	7	Sololá	701	Sololá	4	Finca Santa Victoria	4	Abril	2023-05-04T00:00:00	2024-11-08T06:00:00	7	Dirección del viento	1.61
99371	7	Sololá	701	Sololá	4	Finca Santa Victoria	4	Abril	2023-05-04T00:00:00	2024-11-08T06:00:00	1	Precipitación	0
99372	7	Sololá	701	Sololá	4	Finca Santa Victoria	4	Abril	2023-05-04T00:00:00	2024-11-08T06:00:00	8	Radiación solar	0
99373	7	Sololá	701	Sololá	4	Finca Santa Victoria	4	Abril	2023-05-04T00:00:00	2024-11-08T07:00:00	2	Temperatura media	12.5
99374	7	Sololá	701	Sololá	4	Finca Santa Victoria	4	Abril	2023-05-04T00:00:00	2024-11-08T07:00:00	4	Temperatura máxima	12.5
99375	7	Sololá	701	Sololá	4	Finca Santa Victoria	4	Abril	2023-05-04T00:00:00	2024-11-08T07:00:00	3	Temperatura mínima	12.2
99376	7	Sololá	701	Sololá	4	Finca Santa Victoria	4	Abril	2023-05-04T00:00:00	2024-11-08T07:00:00	5	Humedad	85
99377	7	Sololá	701	Sololá	4	Finca Santa Victoria	4	Abril	2023-05-04T00:00:00	2024-11-08T07:00:00	6	Velocidad del viento	1.6
99378	7	Sololá	701	Sololá	4	Finca Santa Victoria	4	Abril	2023-05-04T00:00:00	2024-11-08T07:00:00	7	Dirección del viento	1.61
99379	7	Sololá	701	Sololá	4	Finca Santa Victoria	4	Abril	2023-05-04T00:00:00	2024-11-08T07:00:00	1	Precipitación	0
99380	7	Sololá	701	Sololá	4	Finca Santa Victoria	4	Abril	2023-05-04T00:00:00	2024-11-08T07:00:00	8	Radiación solar	16
99381	7	Sololá	701	Sololá	4	Finca Santa Victoria	4	Abril	2023-05-04T00:00:00	2024-11-08T08:00:00	2	Temperatura media	16.8
99382	7	Sololá	701	Sololá	4	Finca Santa Victoria	4	Abril	2023-05-04T00:00:00	2024-11-08T08:00:00	4	Temperatura máxima	16.8
99383	7	Sololá	701	Sololá	4	Finca Santa Victoria	4	Abril	2023-05-04T00:00:00	2024-11-08T08:00:00	3	Temperatura mínima	12.5
99384	7	Sololá	701	Sololá	4	Finca Santa Victoria	4	Abril	2023-05-04T00:00:00	2024-11-08T08:00:00	5	Humedad	69
99385	7	Sololá	701	Sololá	4	Finca Santa Victoria	4	Abril	2023-05-04T00:00:00	2024-11-08T08:00:00	6	Velocidad del viento	1.6
99386	7	Sololá	701	Sololá	4	Finca Santa Victoria	4	Abril	2023-05-04T00:00:00	2024-11-08T08:00:00	7	Dirección del viento	1.61
99387	7	Sololá	701	Sololá	4	Finca Santa Victoria	4	Abril	2023-05-04T00:00:00	2024-11-08T08:00:00	1	Precipitación	0
99388	7	Sololá	701	Sololá	4	Finca Santa Victoria	4	Abril	2023-05-04T00:00:00	2024-11-08T08:00:00	8	Radiación solar	195
99389	7	Sololá	701	Sololá	4	Finca Santa Victoria	4	Abril	2023-05-04T00:00:00	2024-11-08T09:00:00	2	Temperatura media	17.7
99390	7	Sololá	701	Sololá	4	Finca Santa Victoria	4	Abril	2023-05-04T00:00:00	2024-11-08T09:00:00	4	Temperatura máxima	17.8
99391	7	Sololá	701	Sololá	4	Finca Santa Victoria	4	Abril	2023-05-04T00:00:00	2024-11-08T09:00:00	3	Temperatura mínima	16.8
99392	7	Sololá	701	Sololá	4	Finca Santa Victoria	4	Abril	2023-05-04T00:00:00	2024-11-08T09:00:00	5	Humedad	63
99393	7	Sololá	701	Sololá	4	Finca Santa Victoria	4	Abril	2023-05-04T00:00:00	2024-11-08T09:00:00	6	Velocidad del viento	1.6
99394	7	Sololá	701	Sololá	4	Finca Santa Victoria	4	Abril	2023-05-04T00:00:00	2024-11-08T09:00:00	7	Dirección del viento	1.61
99395	7	Sololá	701	Sololá	4	Finca Santa Victoria	4	Abril	2023-05-04T00:00:00	2024-11-08T09:00:00	1	Precipitación	0
99396	7	Sololá	701	Sololá	4	Finca Santa Victoria	4	Abril	2023-05-04T00:00:00	2024-11-08T09:00:00	8	Radiación solar	552
99397	7	Sololá	701	Sololá	4	Finca Santa Victoria	4	Abril	2023-05-04T00:00:00	2024-11-08T10:00:00	2	Temperatura media	19
99398	7	Sololá	701	Sololá	4	Finca Santa Victoria	4	Abril	2023-05-04T00:00:00	2024-11-08T10:00:00	4	Temperatura máxima	19
99399	7	Sololá	701	Sololá	4	Finca Santa Victoria	4	Abril	2023-05-04T00:00:00	2024-11-08T10:00:00	3	Temperatura mínima	17.6
99400	7	Sololá	701	Sololá	4	Finca Santa Victoria	4	Abril	2023-05-04T00:00:00	2024-11-08T10:00:00	5	Humedad	55
99401	7	Sololá	701	Sololá	4	Finca Santa Victoria	4	Abril	2023-05-04T00:00:00	2024-11-08T10:00:00	6	Velocidad del viento	3.2
99402	7	Sololá	701	Sololá	4	Finca Santa Victoria	4	Abril	2023-05-04T00:00:00	2024-11-08T10:00:00	7	Dirección del viento	3.22
99403	7	Sololá	701	Sololá	4	Finca Santa Victoria	4	Abril	2023-05-04T00:00:00	2024-11-08T10:00:00	1	Precipitación	0
99404	7	Sololá	701	Sololá	4	Finca Santa Victoria	4	Abril	2023-05-04T00:00:00	2024-11-08T10:00:00	8	Radiación solar	784
99405	7	Sololá	701	Sololá	4	Finca Santa Victoria	4	Abril	2023-05-04T00:00:00	2024-11-08T11:00:00	2	Temperatura media	19.6
99406	7	Sololá	701	Sololá	4	Finca Santa Victoria	4	Abril	2023-05-04T00:00:00	2024-11-08T11:00:00	4	Temperatura máxima	19.6
99407	7	Sololá	701	Sololá	4	Finca Santa Victoria	4	Abril	2023-05-04T00:00:00	2024-11-08T11:00:00	3	Temperatura mínima	19
99408	7	Sololá	701	Sololá	4	Finca Santa Victoria	4	Abril	2023-05-04T00:00:00	2024-11-08T11:00:00	5	Humedad	59
99409	7	Sololá	701	Sololá	4	Finca Santa Victoria	4	Abril	2023-05-04T00:00:00	2024-11-08T11:00:00	6	Velocidad del viento	4.8
99410	7	Sololá	701	Sololá	4	Finca Santa Victoria	4	Abril	2023-05-04T00:00:00	2024-11-08T11:00:00	7	Dirección del viento	4.83
99411	7	Sololá	701	Sololá	4	Finca Santa Victoria	4	Abril	2023-05-04T00:00:00	2024-11-08T11:00:00	1	Precipitación	0
99412	7	Sololá	701	Sololá	4	Finca Santa Victoria	4	Abril	2023-05-04T00:00:00	2024-11-08T11:00:00	8	Radiación solar	961
99413	7	Sololá	701	Sololá	4	Finca Santa Victoria	4	Abril	2023-05-04T00:00:00	2024-11-08T12:00:00	2	Temperatura media	19.2
99414	7	Sololá	701	Sololá	4	Finca Santa Victoria	4	Abril	2023-05-04T00:00:00	2024-11-08T12:00:00	4	Temperatura máxima	19.7
99415	7	Sololá	701	Sololá	4	Finca Santa Victoria	4	Abril	2023-05-04T00:00:00	2024-11-08T12:00:00	3	Temperatura mínima	18.9
99416	7	Sololá	701	Sololá	4	Finca Santa Victoria	4	Abril	2023-05-04T00:00:00	2024-11-08T12:00:00	5	Humedad	71
99417	7	Sololá	701	Sololá	4	Finca Santa Victoria	4	Abril	2023-05-04T00:00:00	2024-11-08T12:00:00	6	Velocidad del viento	4.8
99418	7	Sololá	701	Sololá	4	Finca Santa Victoria	4	Abril	2023-05-04T00:00:00	2024-11-08T12:00:00	7	Dirección del viento	4.83
99419	7	Sololá	701	Sololá	4	Finca Santa Victoria	4	Abril	2023-05-04T00:00:00	2024-11-08T12:00:00	1	Precipitación	0
99420	7	Sololá	701	Sololá	4	Finca Santa Victoria	4	Abril	2023-05-04T00:00:00	2024-11-08T12:00:00	8	Radiación solar	1008
99421	7	Sololá	701	Sololá	4	Finca Santa Victoria	4	Abril	2023-05-04T00:00:00	2024-11-08T13:00:00	2	Temperatura media	19.8
99422	7	Sololá	701	Sololá	4	Finca Santa Victoria	4	Abril	2023-05-04T00:00:00	2024-11-08T13:00:00	4	Temperatura máxima	19.9
99423	7	Sololá	701	Sololá	4	Finca Santa Victoria	4	Abril	2023-05-04T00:00:00	2024-11-08T13:00:00	3	Temperatura mínima	19.1
99424	7	Sololá	701	Sololá	4	Finca Santa Victoria	4	Abril	2023-05-04T00:00:00	2024-11-08T13:00:00	5	Humedad	70
99425	7	Sololá	701	Sololá	4	Finca Santa Victoria	4	Abril	2023-05-04T00:00:00	2024-11-08T13:00:00	6	Velocidad del viento	6.4
99426	7	Sololá	701	Sololá	4	Finca Santa Victoria	4	Abril	2023-05-04T00:00:00	2024-11-08T13:00:00	7	Dirección del viento	6.44
99427	7	Sololá	701	Sololá	4	Finca Santa Victoria	4	Abril	2023-05-04T00:00:00	2024-11-08T13:00:00	1	Precipitación	0
99428	7	Sololá	701	Sololá	4	Finca Santa Victoria	4	Abril	2023-05-04T00:00:00	2024-11-08T13:00:00	8	Radiación solar	946
99429	7	Sololá	701	Sololá	4	Finca Santa Victoria	4	Abril	2023-05-04T00:00:00	2024-11-08T14:00:00	2	Temperatura media	19.1
99430	7	Sololá	701	Sololá	4	Finca Santa Victoria	4	Abril	2023-05-04T00:00:00	2024-11-08T14:00:00	4	Temperatura máxima	20.3
99431	7	Sololá	701	Sololá	4	Finca Santa Victoria	4	Abril	2023-05-04T00:00:00	2024-11-08T14:00:00	3	Temperatura mínima	18.8
99432	7	Sololá	701	Sololá	4	Finca Santa Victoria	4	Abril	2023-05-04T00:00:00	2024-11-08T14:00:00	5	Humedad	76
99433	7	Sololá	701	Sololá	4	Finca Santa Victoria	4	Abril	2023-05-04T00:00:00	2024-11-08T14:00:00	6	Velocidad del viento	6.4
99434	7	Sololá	701	Sololá	4	Finca Santa Victoria	4	Abril	2023-05-04T00:00:00	2024-11-08T14:00:00	7	Dirección del viento	6.44
99435	7	Sololá	701	Sololá	4	Finca Santa Victoria	4	Abril	2023-05-04T00:00:00	2024-11-08T14:00:00	1	Precipitación	0
99436	7	Sololá	701	Sololá	4	Finca Santa Victoria	4	Abril	2023-05-04T00:00:00	2024-11-08T14:00:00	8	Radiación solar	256
99437	7	Sololá	701	Sololá	4	Finca Santa Victoria	4	Abril	2023-05-04T00:00:00	2024-11-08T15:00:00	2	Temperatura media	18.6
99438	7	Sololá	701	Sololá	4	Finca Santa Victoria	4	Abril	2023-05-04T00:00:00	2024-11-08T15:00:00	4	Temperatura máxima	19.2
99439	7	Sololá	701	Sololá	4	Finca Santa Victoria	4	Abril	2023-05-04T00:00:00	2024-11-08T15:00:00	3	Temperatura mínima	18.3
99440	7	Sololá	701	Sololá	4	Finca Santa Victoria	4	Abril	2023-05-04T00:00:00	2024-11-08T15:00:00	5	Humedad	80
99441	7	Sololá	701	Sololá	4	Finca Santa Victoria	4	Abril	2023-05-04T00:00:00	2024-11-08T15:00:00	6	Velocidad del viento	6.4
99442	7	Sololá	701	Sololá	4	Finca Santa Victoria	4	Abril	2023-05-04T00:00:00	2024-11-08T15:00:00	7	Dirección del viento	6.44
99443	7	Sololá	701	Sololá	4	Finca Santa Victoria	4	Abril	2023-05-04T00:00:00	2024-11-08T15:00:00	1	Precipitación	0
99444	7	Sololá	701	Sololá	4	Finca Santa Victoria	4	Abril	2023-05-04T00:00:00	2024-11-08T15:00:00	8	Radiación solar	269
99445	7	Sololá	701	Sololá	4	Finca Santa Victoria	4	Abril	2023-05-04T00:00:00	2024-11-08T16:00:00	2	Temperatura media	16.9
99446	7	Sololá	701	Sololá	4	Finca Santa Victoria	4	Abril	2023-05-04T00:00:00	2024-11-08T16:00:00	4	Temperatura máxima	18.6
99447	7	Sololá	701	Sololá	4	Finca Santa Victoria	4	Abril	2023-05-04T00:00:00	2024-11-08T16:00:00	3	Temperatura mínima	16.9
99448	7	Sololá	701	Sololá	4	Finca Santa Victoria	4	Abril	2023-05-04T00:00:00	2024-11-08T16:00:00	5	Humedad	87
99449	7	Sololá	701	Sololá	4	Finca Santa Victoria	4	Abril	2023-05-04T00:00:00	2024-11-08T16:00:00	6	Velocidad del viento	4.8
99450	7	Sololá	701	Sololá	4	Finca Santa Victoria	4	Abril	2023-05-04T00:00:00	2024-11-08T16:00:00	7	Dirección del viento	4.83
99451	7	Sololá	701	Sololá	4	Finca Santa Victoria	4	Abril	2023-05-04T00:00:00	2024-11-08T16:00:00	1	Precipitación	0
99452	7	Sololá	701	Sololá	4	Finca Santa Victoria	4	Abril	2023-05-04T00:00:00	2024-11-08T16:00:00	8	Radiación solar	144
99453	7	Sololá	701	Sololá	4	Finca Santa Victoria	4	Abril	2023-05-04T00:00:00	2024-11-08T17:00:00	2	Temperatura media	15.9
99454	7	Sololá	701	Sololá	4	Finca Santa Victoria	4	Abril	2023-05-04T00:00:00	2024-11-08T17:00:00	4	Temperatura máxima	16.9
99455	7	Sololá	701	Sololá	4	Finca Santa Victoria	4	Abril	2023-05-04T00:00:00	2024-11-08T17:00:00	3	Temperatura mínima	15.9
99456	7	Sololá	701	Sololá	4	Finca Santa Victoria	4	Abril	2023-05-04T00:00:00	2024-11-08T17:00:00	5	Humedad	93
99457	7	Sololá	701	Sololá	4	Finca Santa Victoria	4	Abril	2023-05-04T00:00:00	2024-11-08T17:00:00	6	Velocidad del viento	3.2
99458	7	Sololá	701	Sololá	4	Finca Santa Victoria	4	Abril	2023-05-04T00:00:00	2024-11-08T17:00:00	7	Dirección del viento	3.22
99459	7	Sololá	701	Sololá	4	Finca Santa Victoria	4	Abril	2023-05-04T00:00:00	2024-11-08T17:00:00	1	Precipitación	0
99460	7	Sololá	701	Sololá	4	Finca Santa Victoria	4	Abril	2023-05-04T00:00:00	2024-11-08T17:00:00	8	Radiación solar	43
99461	7	Sololá	701	Sololá	4	Finca Santa Victoria	4	Abril	2023-05-04T00:00:00	2024-11-08T18:00:00	2	Temperatura media	15.6
99462	7	Sololá	701	Sololá	4	Finca Santa Victoria	4	Abril	2023-05-04T00:00:00	2024-11-08T18:00:00	4	Temperatura máxima	16
99463	7	Sololá	701	Sololá	4	Finca Santa Victoria	4	Abril	2023-05-04T00:00:00	2024-11-08T18:00:00	3	Temperatura mínima	15.6
99464	7	Sololá	701	Sololá	4	Finca Santa Victoria	4	Abril	2023-05-04T00:00:00	2024-11-08T18:00:00	5	Humedad	95
99465	7	Sololá	701	Sololá	4	Finca Santa Victoria	4	Abril	2023-05-04T00:00:00	2024-11-08T18:00:00	6	Velocidad del viento	1.6
99466	7	Sololá	701	Sololá	4	Finca Santa Victoria	4	Abril	2023-05-04T00:00:00	2024-11-08T18:00:00	7	Dirección del viento	1.61
99467	7	Sololá	701	Sololá	4	Finca Santa Victoria	4	Abril	2023-05-04T00:00:00	2024-11-08T18:00:00	1	Precipitación	0
99468	7	Sololá	701	Sololá	4	Finca Santa Victoria	4	Abril	2023-05-04T00:00:00	2024-11-08T18:00:00	8	Radiación solar	17
99469	7	Sololá	701	Sololá	4	Finca Santa Victoria	4	Abril	2023-05-04T00:00:00	2024-11-08T19:00:00	2	Temperatura media	15.5
99470	7	Sololá	701	Sololá	4	Finca Santa Victoria	4	Abril	2023-05-04T00:00:00	2024-11-08T19:00:00	4	Temperatura máxima	15.6
99471	7	Sololá	701	Sololá	4	Finca Santa Victoria	4	Abril	2023-05-04T00:00:00	2024-11-08T19:00:00	3	Temperatura mínima	15.4
99472	7	Sololá	701	Sololá	4	Finca Santa Victoria	4	Abril	2023-05-04T00:00:00	2024-11-08T19:00:00	5	Humedad	96
99473	7	Sololá	701	Sololá	4	Finca Santa Victoria	4	Abril	2023-05-04T00:00:00	2024-11-08T19:00:00	6	Velocidad del viento	0
99474	7	Sololá	701	Sololá	4	Finca Santa Victoria	4	Abril	2023-05-04T00:00:00	2024-11-08T19:00:00	7	Dirección del viento	0
99475	7	Sololá	701	Sololá	4	Finca Santa Victoria	4	Abril	2023-05-04T00:00:00	2024-11-08T19:00:00	1	Precipitación	0
99476	7	Sololá	701	Sololá	4	Finca Santa Victoria	4	Abril	2023-05-04T00:00:00	2024-11-08T19:00:00	8	Radiación solar	0
99477	7	Sololá	701	Sololá	4	Finca Santa Victoria	4	Abril	2023-05-04T00:00:00	2024-11-08T20:00:00	2	Temperatura media	14.8
99478	7	Sololá	701	Sololá	4	Finca Santa Victoria	4	Abril	2023-05-04T00:00:00	2024-11-08T20:00:00	4	Temperatura máxima	15.5
99479	7	Sololá	701	Sololá	4	Finca Santa Victoria	4	Abril	2023-05-04T00:00:00	2024-11-08T20:00:00	3	Temperatura mínima	14.8
99480	7	Sololá	701	Sololá	4	Finca Santa Victoria	4	Abril	2023-05-04T00:00:00	2024-11-08T20:00:00	5	Humedad	96
99481	7	Sololá	701	Sololá	4	Finca Santa Victoria	4	Abril	2023-05-04T00:00:00	2024-11-08T20:00:00	6	Velocidad del viento	0
99482	7	Sololá	701	Sololá	4	Finca Santa Victoria	4	Abril	2023-05-04T00:00:00	2024-11-08T20:00:00	7	Dirección del viento	0
99483	7	Sololá	701	Sololá	4	Finca Santa Victoria	4	Abril	2023-05-04T00:00:00	2024-11-08T20:00:00	1	Precipitación	0
99484	7	Sololá	701	Sololá	4	Finca Santa Victoria	4	Abril	2023-05-04T00:00:00	2024-11-08T20:00:00	8	Radiación solar	0
99485	7	Sololá	701	Sololá	4	Finca Santa Victoria	4	Abril	2023-05-04T00:00:00	2024-11-08T21:00:00	2	Temperatura media	14.9
99486	7	Sololá	701	Sololá	4	Finca Santa Victoria	4	Abril	2023-05-04T00:00:00	2024-11-08T21:00:00	4	Temperatura máxima	14.9
99487	7	Sololá	701	Sololá	4	Finca Santa Victoria	4	Abril	2023-05-04T00:00:00	2024-11-08T21:00:00	3	Temperatura mínima	14.5
99488	7	Sololá	701	Sololá	4	Finca Santa Victoria	4	Abril	2023-05-04T00:00:00	2024-11-08T21:00:00	5	Humedad	97
99489	7	Sololá	701	Sololá	4	Finca Santa Victoria	4	Abril	2023-05-04T00:00:00	2024-11-08T21:00:00	6	Velocidad del viento	0
99490	7	Sololá	701	Sololá	4	Finca Santa Victoria	4	Abril	2023-05-04T00:00:00	2024-11-08T21:00:00	7	Dirección del viento	0
99491	7	Sololá	701	Sololá	4	Finca Santa Victoria	4	Abril	2023-05-04T00:00:00	2024-11-08T21:00:00	1	Precipitación	0
99492	7	Sololá	701	Sololá	4	Finca Santa Victoria	4	Abril	2023-05-04T00:00:00	2024-11-08T21:00:00	8	Radiación solar	0
99493	7	Sololá	701	Sololá	4	Finca Santa Victoria	4	Abril	2023-05-04T00:00:00	2024-11-08T22:00:00	2	Temperatura media	14.3
99494	7	Sololá	701	Sololá	4	Finca Santa Victoria	4	Abril	2023-05-04T00:00:00	2024-11-08T22:00:00	4	Temperatura máxima	14.9
99495	7	Sololá	701	Sololá	4	Finca Santa Victoria	4	Abril	2023-05-04T00:00:00	2024-11-08T22:00:00	3	Temperatura mínima	14.3
99496	7	Sololá	701	Sololá	4	Finca Santa Victoria	4	Abril	2023-05-04T00:00:00	2024-11-08T22:00:00	5	Humedad	97
99497	7	Sololá	701	Sololá	4	Finca Santa Victoria	4	Abril	2023-05-04T00:00:00	2024-11-08T22:00:00	6	Velocidad del viento	0
99498	7	Sololá	701	Sololá	4	Finca Santa Victoria	4	Abril	2023-05-04T00:00:00	2024-11-08T22:00:00	7	Dirección del viento	0
99499	7	Sololá	701	Sololá	4	Finca Santa Victoria	4	Abril	2023-05-04T00:00:00	2024-11-08T22:00:00	1	Precipitación	0
99500	7	Sololá	701	Sololá	4	Finca Santa Victoria	4	Abril	2023-05-04T00:00:00	2024-11-08T22:00:00	8	Radiación solar	0
99501	7	Sololá	701	Sololá	4	Finca Santa Victoria	4	Abril	2023-05-04T00:00:00	2024-11-08T23:00:00	2	Temperatura media	13.6
99502	7	Sololá	701	Sololá	4	Finca Santa Victoria	4	Abril	2023-05-04T00:00:00	2024-11-08T23:00:00	4	Temperatura máxima	14.3
99503	7	Sololá	701	Sololá	4	Finca Santa Victoria	4	Abril	2023-05-04T00:00:00	2024-11-08T23:00:00	3	Temperatura mínima	13.6
99504	7	Sololá	701	Sololá	4	Finca Santa Victoria	4	Abril	2023-05-04T00:00:00	2024-11-08T23:00:00	5	Humedad	97
99505	7	Sololá	701	Sololá	4	Finca Santa Victoria	4	Abril	2023-05-04T00:00:00	2024-11-08T23:00:00	6	Velocidad del viento	0
99506	7	Sololá	701	Sololá	4	Finca Santa Victoria	4	Abril	2023-05-04T00:00:00	2024-11-08T23:00:00	7	Dirección del viento	0
99507	7	Sololá	701	Sololá	4	Finca Santa Victoria	4	Abril	2023-05-04T00:00:00	2024-11-08T23:00:00	1	Precipitación	0
99508	7	Sololá	701	Sololá	4	Finca Santa Victoria	4	Abril	2023-05-04T00:00:00	2024-11-08T23:00:00	8	Radiación solar	0
99509	7	Sololá	701	Sololá	4	Finca Santa Victoria	4	Abril	2023-06-04T00:00:00	2024-11-08T00:00:00	2	Temperatura media	13.1
99510	7	Sololá	701	Sololá	4	Finca Santa Victoria	4	Abril	2023-06-04T00:00:00	2024-11-08T00:00:00	4	Temperatura máxima	13.7
99511	7	Sololá	701	Sololá	4	Finca Santa Victoria	4	Abril	2023-06-04T00:00:00	2024-11-08T00:00:00	3	Temperatura mínima	13.1
99512	7	Sololá	701	Sololá	4	Finca Santa Victoria	4	Abril	2023-06-04T00:00:00	2024-11-08T00:00:00	5	Humedad	97
99513	7	Sololá	701	Sololá	4	Finca Santa Victoria	4	Abril	2023-06-04T00:00:00	2024-11-08T00:00:00	6	Velocidad del viento	0
99514	7	Sololá	701	Sololá	4	Finca Santa Victoria	4	Abril	2023-06-04T00:00:00	2024-11-08T00:00:00	7	Dirección del viento	0
99515	7	Sololá	701	Sololá	4	Finca Santa Victoria	4	Abril	2023-06-04T00:00:00	2024-11-08T00:00:00	1	Precipitación	0
99516	7	Sololá	701	Sololá	4	Finca Santa Victoria	4	Abril	2023-06-04T00:00:00	2024-11-08T00:00:00	8	Radiación solar	0
99517	7	Sololá	701	Sololá	4	Finca Santa Victoria	4	Abril	2023-06-04T00:00:00	2024-11-08T01:00:00	2	Temperatura media	13.1
99518	7	Sololá	701	Sololá	4	Finca Santa Victoria	4	Abril	2023-06-04T00:00:00	2024-11-08T01:00:00	4	Temperatura máxima	13.1
99519	7	Sololá	701	Sololá	4	Finca Santa Victoria	4	Abril	2023-06-04T00:00:00	2024-11-08T01:00:00	3	Temperatura mínima	12.8
99520	7	Sololá	701	Sololá	4	Finca Santa Victoria	4	Abril	2023-06-04T00:00:00	2024-11-08T01:00:00	5	Humedad	98
99521	7	Sololá	701	Sololá	4	Finca Santa Victoria	4	Abril	2023-06-04T00:00:00	2024-11-08T01:00:00	6	Velocidad del viento	0
99522	7	Sololá	701	Sololá	4	Finca Santa Victoria	4	Abril	2023-06-04T00:00:00	2024-11-08T01:00:00	7	Dirección del viento	0
99523	7	Sololá	701	Sololá	4	Finca Santa Victoria	4	Abril	2023-06-04T00:00:00	2024-11-08T01:00:00	1	Precipitación	0
99524	7	Sololá	701	Sololá	4	Finca Santa Victoria	4	Abril	2023-06-04T00:00:00	2024-11-08T01:00:00	8	Radiación solar	0
99525	7	Sololá	701	Sololá	4	Finca Santa Victoria	4	Abril	2023-06-04T00:00:00	2024-11-08T02:00:00	2	Temperatura media	12.8
99526	7	Sololá	701	Sololá	4	Finca Santa Victoria	4	Abril	2023-06-04T00:00:00	2024-11-08T02:00:00	4	Temperatura máxima	13.2
99527	7	Sololá	701	Sololá	4	Finca Santa Victoria	4	Abril	2023-06-04T00:00:00	2024-11-08T02:00:00	3	Temperatura mínima	12.8
99528	7	Sololá	701	Sololá	4	Finca Santa Victoria	4	Abril	2023-06-04T00:00:00	2024-11-08T02:00:00	5	Humedad	97
99529	7	Sololá	701	Sololá	4	Finca Santa Victoria	4	Abril	2023-06-04T00:00:00	2024-11-08T02:00:00	6	Velocidad del viento	0
99530	7	Sololá	701	Sololá	4	Finca Santa Victoria	4	Abril	2023-06-04T00:00:00	2024-11-08T02:00:00	7	Dirección del viento	0
99531	7	Sololá	701	Sololá	4	Finca Santa Victoria	4	Abril	2023-06-04T00:00:00	2024-11-08T02:00:00	1	Precipitación	0
99532	7	Sololá	701	Sololá	4	Finca Santa Victoria	4	Abril	2023-06-04T00:00:00	2024-11-08T02:00:00	8	Radiación solar	0
99533	7	Sololá	701	Sololá	4	Finca Santa Victoria	4	Abril	2023-06-04T00:00:00	2024-11-08T03:00:00	2	Temperatura media	12.7
99534	7	Sololá	701	Sololá	4	Finca Santa Victoria	4	Abril	2023-06-04T00:00:00	2024-11-08T03:00:00	4	Temperatura máxima	12.8
99535	7	Sololá	701	Sololá	4	Finca Santa Victoria	4	Abril	2023-06-04T00:00:00	2024-11-08T03:00:00	3	Temperatura mínima	12.4
99536	7	Sololá	701	Sololá	4	Finca Santa Victoria	4	Abril	2023-06-04T00:00:00	2024-11-08T03:00:00	5	Humedad	98
99537	7	Sololá	701	Sololá	4	Finca Santa Victoria	4	Abril	2023-06-04T00:00:00	2024-11-08T03:00:00	6	Velocidad del viento	0
99538	7	Sololá	701	Sololá	4	Finca Santa Victoria	4	Abril	2023-06-04T00:00:00	2024-11-08T03:00:00	7	Dirección del viento	0
99539	7	Sololá	701	Sololá	4	Finca Santa Victoria	4	Abril	2023-06-04T00:00:00	2024-11-08T03:00:00	1	Precipitación	0
99540	7	Sololá	701	Sololá	4	Finca Santa Victoria	4	Abril	2023-06-04T00:00:00	2024-11-08T03:00:00	8	Radiación solar	0
99541	7	Sololá	701	Sololá	4	Finca Santa Victoria	4	Abril	2023-06-04T00:00:00	2024-11-08T04:00:00	2	Temperatura media	12.7
99542	7	Sololá	701	Sololá	4	Finca Santa Victoria	4	Abril	2023-06-04T00:00:00	2024-11-08T04:00:00	4	Temperatura máxima	12.8
99543	7	Sololá	701	Sololá	4	Finca Santa Victoria	4	Abril	2023-06-04T00:00:00	2024-11-08T04:00:00	3	Temperatura mínima	12.6
99544	7	Sololá	701	Sololá	4	Finca Santa Victoria	4	Abril	2023-06-04T00:00:00	2024-11-08T04:00:00	5	Humedad	98
99545	7	Sololá	701	Sololá	4	Finca Santa Victoria	4	Abril	2023-06-04T00:00:00	2024-11-08T04:00:00	6	Velocidad del viento	0
99546	7	Sololá	701	Sololá	4	Finca Santa Victoria	4	Abril	2023-06-04T00:00:00	2024-11-08T04:00:00	7	Dirección del viento	0
99547	7	Sololá	701	Sololá	4	Finca Santa Victoria	4	Abril	2023-06-04T00:00:00	2024-11-08T04:00:00	1	Precipitación	0
99548	7	Sololá	701	Sololá	4	Finca Santa Victoria	4	Abril	2023-06-04T00:00:00	2024-11-08T04:00:00	8	Radiación solar	0
99549	7	Sololá	701	Sololá	4	Finca Santa Victoria	4	Abril	2023-06-04T00:00:00	2024-11-08T05:00:00	2	Temperatura media	12.6
99550	7	Sololá	701	Sololá	4	Finca Santa Victoria	4	Abril	2023-06-04T00:00:00	2024-11-08T05:00:00	4	Temperatura máxima	12.8
99551	7	Sololá	701	Sololá	4	Finca Santa Victoria	4	Abril	2023-06-04T00:00:00	2024-11-08T05:00:00	3	Temperatura mínima	12.4
99552	7	Sololá	701	Sololá	4	Finca Santa Victoria	4	Abril	2023-06-04T00:00:00	2024-11-08T05:00:00	5	Humedad	98
99553	7	Sololá	701	Sololá	4	Finca Santa Victoria	4	Abril	2023-06-04T00:00:00	2024-11-08T05:00:00	6	Velocidad del viento	0
99554	7	Sololá	701	Sololá	4	Finca Santa Victoria	4	Abril	2023-06-04T00:00:00	2024-11-08T05:00:00	7	Dirección del viento	0
99555	7	Sololá	701	Sololá	4	Finca Santa Victoria	4	Abril	2023-06-04T00:00:00	2024-11-08T05:00:00	1	Precipitación	0
99556	7	Sololá	701	Sololá	4	Finca Santa Victoria	4	Abril	2023-06-04T00:00:00	2024-11-08T05:00:00	8	Radiación solar	0
99557	7	Sololá	701	Sololá	4	Finca Santa Victoria	4	Abril	2023-06-04T00:00:00	2024-11-08T06:00:00	2	Temperatura media	12.5
99558	7	Sololá	701	Sololá	4	Finca Santa Victoria	4	Abril	2023-06-04T00:00:00	2024-11-08T06:00:00	4	Temperatura máxima	12.7
99559	7	Sololá	701	Sololá	4	Finca Santa Victoria	4	Abril	2023-06-04T00:00:00	2024-11-08T06:00:00	3	Temperatura mínima	12.4
99560	7	Sololá	701	Sololá	4	Finca Santa Victoria	4	Abril	2023-06-04T00:00:00	2024-11-08T06:00:00	5	Humedad	97
99561	7	Sololá	701	Sololá	4	Finca Santa Victoria	4	Abril	2023-06-04T00:00:00	2024-11-08T06:00:00	6	Velocidad del viento	0
99562	7	Sololá	701	Sololá	4	Finca Santa Victoria	4	Abril	2023-06-04T00:00:00	2024-11-08T06:00:00	7	Dirección del viento	0
99563	7	Sololá	701	Sololá	4	Finca Santa Victoria	4	Abril	2023-06-04T00:00:00	2024-11-08T06:00:00	1	Precipitación	0
99564	7	Sololá	701	Sololá	4	Finca Santa Victoria	4	Abril	2023-06-04T00:00:00	2024-11-08T06:00:00	8	Radiación solar	0
99565	7	Sololá	701	Sololá	4	Finca Santa Victoria	4	Abril	2023-06-04T00:00:00	2024-11-08T07:00:00	2	Temperatura media	12.9
99566	7	Sololá	701	Sololá	4	Finca Santa Victoria	4	Abril	2023-06-04T00:00:00	2024-11-08T07:00:00	4	Temperatura máxima	12.9
99567	7	Sololá	701	Sololá	4	Finca Santa Victoria	4	Abril	2023-06-04T00:00:00	2024-11-08T07:00:00	3	Temperatura mínima	12.2
99568	7	Sololá	701	Sololá	4	Finca Santa Victoria	4	Abril	2023-06-04T00:00:00	2024-11-08T07:00:00	5	Humedad	97
99569	7	Sololá	701	Sololá	4	Finca Santa Victoria	4	Abril	2023-06-04T00:00:00	2024-11-08T07:00:00	6	Velocidad del viento	0
99570	7	Sololá	701	Sololá	4	Finca Santa Victoria	4	Abril	2023-06-04T00:00:00	2024-11-08T07:00:00	7	Dirección del viento	0
99571	7	Sololá	701	Sololá	4	Finca Santa Victoria	4	Abril	2023-06-04T00:00:00	2024-11-08T07:00:00	1	Precipitación	0
99572	7	Sololá	701	Sololá	4	Finca Santa Victoria	4	Abril	2023-06-04T00:00:00	2024-11-08T07:00:00	8	Radiación solar	35
99573	7	Sololá	701	Sololá	4	Finca Santa Victoria	4	Abril	2023-06-04T00:00:00	2024-11-08T08:00:00	2	Temperatura media	14.3
99574	7	Sololá	701	Sololá	4	Finca Santa Victoria	4	Abril	2023-06-04T00:00:00	2024-11-08T08:00:00	4	Temperatura máxima	14.3
99575	7	Sololá	701	Sololá	4	Finca Santa Victoria	4	Abril	2023-06-04T00:00:00	2024-11-08T08:00:00	3	Temperatura mínima	12.9
99576	7	Sololá	701	Sololá	4	Finca Santa Victoria	4	Abril	2023-06-04T00:00:00	2024-11-08T08:00:00	5	Humedad	93
99577	7	Sololá	701	Sololá	4	Finca Santa Victoria	4	Abril	2023-06-04T00:00:00	2024-11-08T08:00:00	6	Velocidad del viento	0
99578	7	Sololá	701	Sololá	4	Finca Santa Victoria	4	Abril	2023-06-04T00:00:00	2024-11-08T08:00:00	7	Dirección del viento	0
99579	7	Sololá	701	Sololá	4	Finca Santa Victoria	4	Abril	2023-06-04T00:00:00	2024-11-08T08:00:00	1	Precipitación	0
99580	7	Sololá	701	Sololá	4	Finca Santa Victoria	4	Abril	2023-06-04T00:00:00	2024-11-08T08:00:00	8	Radiación solar	98
99581	7	Sololá	701	Sololá	4	Finca Santa Victoria	4	Abril	2023-06-04T00:00:00	2024-11-08T09:00:00	2	Temperatura media	14.6
99582	7	Sololá	701	Sololá	4	Finca Santa Victoria	4	Abril	2023-06-04T00:00:00	2024-11-08T09:00:00	4	Temperatura máxima	14.9
99583	7	Sololá	701	Sololá	4	Finca Santa Victoria	4	Abril	2023-06-04T00:00:00	2024-11-08T09:00:00	3	Temperatura mínima	13.9
99584	7	Sololá	701	Sololá	4	Finca Santa Victoria	4	Abril	2023-06-04T00:00:00	2024-11-08T09:00:00	5	Humedad	89
99585	7	Sololá	701	Sololá	4	Finca Santa Victoria	4	Abril	2023-06-04T00:00:00	2024-11-08T09:00:00	6	Velocidad del viento	1.6
99586	7	Sololá	701	Sololá	4	Finca Santa Victoria	4	Abril	2023-06-04T00:00:00	2024-11-08T09:00:00	7	Dirección del viento	1.61
99587	7	Sololá	701	Sololá	4	Finca Santa Victoria	4	Abril	2023-06-04T00:00:00	2024-11-08T09:00:00	1	Precipitación	0
99588	7	Sololá	701	Sololá	4	Finca Santa Victoria	4	Abril	2023-06-04T00:00:00	2024-11-08T09:00:00	8	Radiación solar	126
99589	7	Sololá	701	Sololá	4	Finca Santa Victoria	4	Abril	2023-06-04T00:00:00	2024-11-08T10:00:00	2	Temperatura media	18.2
99590	7	Sololá	701	Sololá	4	Finca Santa Victoria	4	Abril	2023-06-04T00:00:00	2024-11-08T10:00:00	4	Temperatura máxima	18.2
99591	7	Sololá	701	Sololá	4	Finca Santa Victoria	4	Abril	2023-06-04T00:00:00	2024-11-08T10:00:00	3	Temperatura mínima	14.6
99592	7	Sololá	701	Sololá	4	Finca Santa Victoria	4	Abril	2023-06-04T00:00:00	2024-11-08T10:00:00	5	Humedad	76
99593	7	Sololá	701	Sololá	4	Finca Santa Victoria	4	Abril	2023-06-04T00:00:00	2024-11-08T10:00:00	6	Velocidad del viento	3.2
99594	7	Sololá	701	Sololá	4	Finca Santa Victoria	4	Abril	2023-06-04T00:00:00	2024-11-08T10:00:00	7	Dirección del viento	3.22
99595	7	Sololá	701	Sololá	4	Finca Santa Victoria	4	Abril	2023-06-04T00:00:00	2024-11-08T10:00:00	1	Precipitación	0
99596	7	Sololá	701	Sololá	4	Finca Santa Victoria	4	Abril	2023-06-04T00:00:00	2024-11-08T10:00:00	8	Radiación solar	590
99597	7	Sololá	701	Sololá	4	Finca Santa Victoria	4	Abril	2023-06-04T00:00:00	2024-11-08T11:00:00	2	Temperatura media	18.8
99598	7	Sololá	701	Sololá	4	Finca Santa Victoria	4	Abril	2023-06-04T00:00:00	2024-11-08T11:00:00	4	Temperatura máxima	19.2
99599	7	Sololá	701	Sololá	4	Finca Santa Victoria	4	Abril	2023-06-04T00:00:00	2024-11-08T11:00:00	3	Temperatura mínima	17.7
99600	7	Sololá	701	Sololá	4	Finca Santa Victoria	4	Abril	2023-06-04T00:00:00	2024-11-08T11:00:00	5	Humedad	73
99601	7	Sololá	701	Sololá	4	Finca Santa Victoria	4	Abril	2023-06-04T00:00:00	2024-11-08T11:00:00	6	Velocidad del viento	4.8
99602	7	Sololá	701	Sololá	4	Finca Santa Victoria	4	Abril	2023-06-04T00:00:00	2024-11-08T11:00:00	7	Dirección del viento	4.83
99603	7	Sololá	701	Sololá	4	Finca Santa Victoria	4	Abril	2023-06-04T00:00:00	2024-11-08T11:00:00	1	Precipitación	0
99604	7	Sololá	701	Sololá	4	Finca Santa Victoria	4	Abril	2023-06-04T00:00:00	2024-11-08T11:00:00	8	Radiación solar	900
99605	7	Sololá	701	Sololá	4	Finca Santa Victoria	4	Abril	2023-06-04T00:00:00	2024-11-08T12:00:00	2	Temperatura media	18.5
99606	7	Sololá	701	Sololá	4	Finca Santa Victoria	4	Abril	2023-06-04T00:00:00	2024-11-08T12:00:00	4	Temperatura máxima	19.1
99607	7	Sololá	701	Sololá	4	Finca Santa Victoria	4	Abril	2023-06-04T00:00:00	2024-11-08T12:00:00	3	Temperatura mínima	18.3
99608	7	Sololá	701	Sololá	4	Finca Santa Victoria	4	Abril	2023-06-04T00:00:00	2024-11-08T12:00:00	5	Humedad	75
99609	7	Sololá	701	Sololá	4	Finca Santa Victoria	4	Abril	2023-06-04T00:00:00	2024-11-08T12:00:00	6	Velocidad del viento	4.8
99610	7	Sololá	701	Sololá	4	Finca Santa Victoria	4	Abril	2023-06-04T00:00:00	2024-11-08T12:00:00	7	Dirección del viento	4.83
99611	7	Sololá	701	Sololá	4	Finca Santa Victoria	4	Abril	2023-06-04T00:00:00	2024-11-08T12:00:00	1	Precipitación	0
99612	7	Sololá	701	Sololá	4	Finca Santa Victoria	4	Abril	2023-06-04T00:00:00	2024-11-08T12:00:00	8	Radiación solar	944
99613	7	Sololá	701	Sololá	4	Finca Santa Victoria	4	Abril	2023-06-04T00:00:00	2024-11-08T13:00:00	2	Temperatura media	17.8
99614	7	Sololá	701	Sololá	4	Finca Santa Victoria	4	Abril	2023-06-04T00:00:00	2024-11-08T13:00:00	4	Temperatura máxima	19.1
99615	7	Sololá	701	Sololá	4	Finca Santa Victoria	4	Abril	2023-06-04T00:00:00	2024-11-08T13:00:00	3	Temperatura mínima	17.6
99616	7	Sololá	701	Sololá	4	Finca Santa Victoria	4	Abril	2023-06-04T00:00:00	2024-11-08T13:00:00	5	Humedad	82
99617	7	Sololá	701	Sololá	4	Finca Santa Victoria	4	Abril	2023-06-04T00:00:00	2024-11-08T13:00:00	6	Velocidad del viento	6.4
99618	7	Sololá	701	Sololá	4	Finca Santa Victoria	4	Abril	2023-06-04T00:00:00	2024-11-08T13:00:00	7	Dirección del viento	6.44
99619	7	Sololá	701	Sololá	4	Finca Santa Victoria	4	Abril	2023-06-04T00:00:00	2024-11-08T13:00:00	1	Precipitación	0
99620	7	Sololá	701	Sololá	4	Finca Santa Victoria	4	Abril	2023-06-04T00:00:00	2024-11-08T13:00:00	8	Radiación solar	607
99621	7	Sololá	701	Sololá	4	Finca Santa Victoria	4	Abril	2023-06-04T00:00:00	2024-11-08T14:00:00	2	Temperatura media	18.4
99622	7	Sololá	701	Sololá	4	Finca Santa Victoria	4	Abril	2023-06-04T00:00:00	2024-11-08T14:00:00	4	Temperatura máxima	18.9
99623	7	Sololá	701	Sololá	4	Finca Santa Victoria	4	Abril	2023-06-04T00:00:00	2024-11-08T14:00:00	3	Temperatura mínima	17.7
99624	7	Sololá	701	Sololá	4	Finca Santa Victoria	4	Abril	2023-06-04T00:00:00	2024-11-08T14:00:00	5	Humedad	81
99625	7	Sololá	701	Sololá	4	Finca Santa Victoria	4	Abril	2023-06-04T00:00:00	2024-11-08T14:00:00	6	Velocidad del viento	4.8
99626	7	Sololá	701	Sololá	4	Finca Santa Victoria	4	Abril	2023-06-04T00:00:00	2024-11-08T14:00:00	7	Dirección del viento	4.83
99627	7	Sololá	701	Sololá	4	Finca Santa Victoria	4	Abril	2023-06-04T00:00:00	2024-11-08T14:00:00	1	Precipitación	0
99628	7	Sololá	701	Sololá	4	Finca Santa Victoria	4	Abril	2023-06-04T00:00:00	2024-11-08T14:00:00	8	Radiación solar	368
99629	7	Sololá	701	Sololá	4	Finca Santa Victoria	4	Abril	2023-06-04T00:00:00	2024-11-08T15:00:00	2	Temperatura media	17.3
99630	7	Sololá	701	Sololá	4	Finca Santa Victoria	4	Abril	2023-06-04T00:00:00	2024-11-08T15:00:00	4	Temperatura máxima	18.4
99631	7	Sololá	701	Sololá	4	Finca Santa Victoria	4	Abril	2023-06-04T00:00:00	2024-11-08T15:00:00	3	Temperatura mínima	16.6
99632	7	Sololá	701	Sololá	4	Finca Santa Victoria	4	Abril	2023-06-04T00:00:00	2024-11-08T15:00:00	5	Humedad	89
99633	7	Sololá	701	Sololá	4	Finca Santa Victoria	4	Abril	2023-06-04T00:00:00	2024-11-08T15:00:00	6	Velocidad del viento	4.8
99634	7	Sololá	701	Sololá	4	Finca Santa Victoria	4	Abril	2023-06-04T00:00:00	2024-11-08T15:00:00	7	Dirección del viento	4.83
99635	7	Sololá	701	Sololá	4	Finca Santa Victoria	4	Abril	2023-06-04T00:00:00	2024-11-08T15:00:00	1	Precipitación	0
99636	7	Sololá	701	Sololá	4	Finca Santa Victoria	4	Abril	2023-06-04T00:00:00	2024-11-08T15:00:00	8	Radiación solar	212
99637	7	Sololá	701	Sololá	4	Finca Santa Victoria	4	Abril	2023-06-04T00:00:00	2024-11-08T16:00:00	2	Temperatura media	16.8
99638	7	Sololá	701	Sololá	4	Finca Santa Victoria	4	Abril	2023-06-04T00:00:00	2024-11-08T16:00:00	4	Temperatura máxima	17.6
99639	7	Sololá	701	Sololá	4	Finca Santa Victoria	4	Abril	2023-06-04T00:00:00	2024-11-08T16:00:00	3	Temperatura mínima	16.7
99640	7	Sololá	701	Sololá	4	Finca Santa Victoria	4	Abril	2023-06-04T00:00:00	2024-11-08T16:00:00	5	Humedad	91
99641	7	Sololá	701	Sololá	4	Finca Santa Victoria	4	Abril	2023-06-04T00:00:00	2024-11-08T16:00:00	6	Velocidad del viento	3.2
99642	7	Sololá	701	Sololá	4	Finca Santa Victoria	4	Abril	2023-06-04T00:00:00	2024-11-08T16:00:00	7	Dirección del viento	3.22
99643	7	Sololá	701	Sololá	4	Finca Santa Victoria	4	Abril	2023-06-04T00:00:00	2024-11-08T16:00:00	1	Precipitación	0
99644	7	Sololá	701	Sololá	4	Finca Santa Victoria	4	Abril	2023-06-04T00:00:00	2024-11-08T16:00:00	8	Radiación solar	163
99645	7	Sololá	701	Sololá	4	Finca Santa Victoria	4	Abril	2023-06-04T00:00:00	2024-11-08T17:00:00	2	Temperatura media	15.8
99646	7	Sololá	701	Sololá	4	Finca Santa Victoria	4	Abril	2023-06-04T00:00:00	2024-11-08T17:00:00	4	Temperatura máxima	16.8
99647	7	Sololá	701	Sololá	4	Finca Santa Victoria	4	Abril	2023-06-04T00:00:00	2024-11-08T17:00:00	3	Temperatura mínima	15.8
99648	7	Sololá	701	Sololá	4	Finca Santa Victoria	4	Abril	2023-06-04T00:00:00	2024-11-08T17:00:00	5	Humedad	94
99649	7	Sololá	701	Sololá	4	Finca Santa Victoria	4	Abril	2023-06-04T00:00:00	2024-11-08T17:00:00	6	Velocidad del viento	3.2
99650	7	Sololá	701	Sololá	4	Finca Santa Victoria	4	Abril	2023-06-04T00:00:00	2024-11-08T17:00:00	7	Dirección del viento	3.22
99651	7	Sololá	701	Sololá	4	Finca Santa Victoria	4	Abril	2023-06-04T00:00:00	2024-11-08T17:00:00	1	Precipitación	0
99652	7	Sololá	701	Sololá	4	Finca Santa Victoria	4	Abril	2023-06-04T00:00:00	2024-11-08T17:00:00	8	Radiación solar	64
99653	7	Sololá	701	Sololá	4	Finca Santa Victoria	4	Abril	2023-06-04T00:00:00	2024-11-08T18:00:00	2	Temperatura media	15.3
99654	7	Sololá	701	Sololá	4	Finca Santa Victoria	4	Abril	2023-06-04T00:00:00	2024-11-08T18:00:00	4	Temperatura máxima	15.8
99655	7	Sololá	701	Sololá	4	Finca Santa Victoria	4	Abril	2023-06-04T00:00:00	2024-11-08T18:00:00	3	Temperatura mínima	15.3
99656	7	Sololá	701	Sololá	4	Finca Santa Victoria	4	Abril	2023-06-04T00:00:00	2024-11-08T18:00:00	5	Humedad	96
99657	7	Sololá	701	Sololá	4	Finca Santa Victoria	4	Abril	2023-06-04T00:00:00	2024-11-08T18:00:00	6	Velocidad del viento	1.6
99658	7	Sololá	701	Sololá	4	Finca Santa Victoria	4	Abril	2023-06-04T00:00:00	2024-11-08T18:00:00	7	Dirección del viento	1.61
99659	7	Sololá	701	Sololá	4	Finca Santa Victoria	4	Abril	2023-06-04T00:00:00	2024-11-08T18:00:00	1	Precipitación	0
99660	7	Sololá	701	Sololá	4	Finca Santa Victoria	4	Abril	2023-06-04T00:00:00	2024-11-08T18:00:00	8	Radiación solar	31
99661	7	Sololá	701	Sololá	4	Finca Santa Victoria	4	Abril	2023-06-04T00:00:00	2024-11-08T19:00:00	2	Temperatura media	14.8
99662	7	Sololá	701	Sololá	4	Finca Santa Victoria	4	Abril	2023-06-04T00:00:00	2024-11-08T19:00:00	4	Temperatura máxima	15.3
99663	7	Sololá	701	Sololá	4	Finca Santa Victoria	4	Abril	2023-06-04T00:00:00	2024-11-08T19:00:00	3	Temperatura mínima	14.8
99664	7	Sololá	701	Sololá	4	Finca Santa Victoria	4	Abril	2023-06-04T00:00:00	2024-11-08T19:00:00	5	Humedad	97
99665	7	Sololá	701	Sololá	4	Finca Santa Victoria	4	Abril	2023-06-04T00:00:00	2024-11-08T19:00:00	6	Velocidad del viento	1.6
99666	7	Sololá	701	Sololá	4	Finca Santa Victoria	4	Abril	2023-06-04T00:00:00	2024-11-08T19:00:00	7	Dirección del viento	1.61
99667	7	Sololá	701	Sololá	4	Finca Santa Victoria	4	Abril	2023-06-04T00:00:00	2024-11-08T19:00:00	1	Precipitación	0
99668	7	Sololá	701	Sololá	4	Finca Santa Victoria	4	Abril	2023-06-04T00:00:00	2024-11-08T19:00:00	8	Radiación solar	0
99669	7	Sololá	701	Sololá	4	Finca Santa Victoria	4	Abril	2023-06-04T00:00:00	2024-11-08T20:00:00	2	Temperatura media	14.2
99670	7	Sololá	701	Sololá	4	Finca Santa Victoria	4	Abril	2023-06-04T00:00:00	2024-11-08T20:00:00	4	Temperatura máxima	14.8
99671	7	Sololá	701	Sololá	4	Finca Santa Victoria	4	Abril	2023-06-04T00:00:00	2024-11-08T20:00:00	3	Temperatura mínima	14.1
99672	7	Sololá	701	Sololá	4	Finca Santa Victoria	4	Abril	2023-06-04T00:00:00	2024-11-08T20:00:00	5	Humedad	94
99673	7	Sololá	701	Sololá	4	Finca Santa Victoria	4	Abril	2023-06-04T00:00:00	2024-11-08T20:00:00	6	Velocidad del viento	1.6
99674	7	Sololá	701	Sololá	4	Finca Santa Victoria	4	Abril	2023-06-04T00:00:00	2024-11-08T20:00:00	7	Dirección del viento	1.61
99675	7	Sololá	701	Sololá	4	Finca Santa Victoria	4	Abril	2023-06-04T00:00:00	2024-11-08T20:00:00	1	Precipitación	0
99676	7	Sololá	701	Sololá	4	Finca Santa Victoria	4	Abril	2023-06-04T00:00:00	2024-11-08T20:00:00	8	Radiación solar	0
99677	7	Sololá	701	Sololá	4	Finca Santa Victoria	4	Abril	2023-06-04T00:00:00	2024-11-08T21:00:00	2	Temperatura media	14.7
99678	7	Sololá	701	Sololá	4	Finca Santa Victoria	4	Abril	2023-06-04T00:00:00	2024-11-08T21:00:00	4	Temperatura máxima	14.8
99679	7	Sololá	701	Sololá	4	Finca Santa Victoria	4	Abril	2023-06-04T00:00:00	2024-11-08T21:00:00	3	Temperatura mínima	14.2
99680	7	Sololá	701	Sololá	4	Finca Santa Victoria	4	Abril	2023-06-04T00:00:00	2024-11-08T21:00:00	5	Humedad	86
99681	7	Sololá	701	Sololá	4	Finca Santa Victoria	4	Abril	2023-06-04T00:00:00	2024-11-08T21:00:00	6	Velocidad del viento	3.2
99682	7	Sololá	701	Sololá	4	Finca Santa Victoria	4	Abril	2023-06-04T00:00:00	2024-11-08T21:00:00	7	Dirección del viento	3.22
99683	7	Sololá	701	Sololá	4	Finca Santa Victoria	4	Abril	2023-06-04T00:00:00	2024-11-08T21:00:00	1	Precipitación	0
99684	7	Sololá	701	Sololá	4	Finca Santa Victoria	4	Abril	2023-06-04T00:00:00	2024-11-08T21:00:00	8	Radiación solar	0
99685	7	Sololá	701	Sololá	4	Finca Santa Victoria	4	Abril	2023-06-04T00:00:00	2024-11-08T22:00:00	2	Temperatura media	13.8
99686	7	Sololá	701	Sololá	4	Finca Santa Victoria	4	Abril	2023-06-04T00:00:00	2024-11-08T22:00:00	4	Temperatura máxima	14.7
99687	7	Sololá	701	Sololá	4	Finca Santa Victoria	4	Abril	2023-06-04T00:00:00	2024-11-08T22:00:00	3	Temperatura mínima	13.8
99688	7	Sololá	701	Sololá	4	Finca Santa Victoria	4	Abril	2023-06-04T00:00:00	2024-11-08T22:00:00	5	Humedad	88
99689	7	Sololá	701	Sololá	4	Finca Santa Victoria	4	Abril	2023-06-04T00:00:00	2024-11-08T22:00:00	6	Velocidad del viento	1.6
99690	7	Sololá	701	Sololá	4	Finca Santa Victoria	4	Abril	2023-06-04T00:00:00	2024-11-08T22:00:00	7	Dirección del viento	1.61
99691	7	Sololá	701	Sololá	4	Finca Santa Victoria	4	Abril	2023-06-04T00:00:00	2024-11-08T22:00:00	1	Precipitación	0
99692	7	Sololá	701	Sololá	4	Finca Santa Victoria	4	Abril	2023-06-04T00:00:00	2024-11-08T22:00:00	8	Radiación solar	0
99693	7	Sololá	701	Sololá	4	Finca Santa Victoria	4	Abril	2023-06-04T00:00:00	2024-11-08T23:00:00	2	Temperatura media	13.8
99694	7	Sololá	701	Sololá	4	Finca Santa Victoria	4	Abril	2023-06-04T00:00:00	2024-11-08T23:00:00	4	Temperatura máxima	14
99695	7	Sololá	701	Sololá	4	Finca Santa Victoria	4	Abril	2023-06-04T00:00:00	2024-11-08T23:00:00	3	Temperatura mínima	13.8
99696	7	Sololá	701	Sololá	4	Finca Santa Victoria	4	Abril	2023-06-04T00:00:00	2024-11-08T23:00:00	5	Humedad	89
99697	7	Sololá	701	Sololá	4	Finca Santa Victoria	4	Abril	2023-06-04T00:00:00	2024-11-08T23:00:00	6	Velocidad del viento	1.6
99698	7	Sololá	701	Sololá	4	Finca Santa Victoria	4	Abril	2023-06-04T00:00:00	2024-11-08T23:00:00	7	Dirección del viento	1.61
99699	7	Sololá	701	Sololá	4	Finca Santa Victoria	4	Abril	2023-06-04T00:00:00	2024-11-08T23:00:00	1	Precipitación	0
99700	7	Sololá	701	Sololá	4	Finca Santa Victoria	4	Abril	2023-06-04T00:00:00	2024-11-08T23:00:00	8	Radiación solar	0
99701	7	Sololá	701	Sololá	4	Finca Santa Victoria	4	Abril	2023-07-04T00:00:00	2024-11-08T00:00:00	2	Temperatura media	13.2
99702	7	Sololá	701	Sololá	4	Finca Santa Victoria	4	Abril	2023-07-04T00:00:00	2024-11-08T00:00:00	4	Temperatura máxima	13.8
99703	7	Sololá	701	Sololá	4	Finca Santa Victoria	4	Abril	2023-07-04T00:00:00	2024-11-08T00:00:00	3	Temperatura mínima	13.2
99704	7	Sololá	701	Sololá	4	Finca Santa Victoria	4	Abril	2023-07-04T00:00:00	2024-11-08T00:00:00	5	Humedad	90
99705	7	Sololá	701	Sololá	4	Finca Santa Victoria	4	Abril	2023-07-04T00:00:00	2024-11-08T00:00:00	6	Velocidad del viento	0
99706	7	Sololá	701	Sololá	4	Finca Santa Victoria	4	Abril	2023-07-04T00:00:00	2024-11-08T00:00:00	7	Dirección del viento	0
99707	7	Sololá	701	Sololá	4	Finca Santa Victoria	4	Abril	2023-07-04T00:00:00	2024-11-08T00:00:00	1	Precipitación	0
99708	7	Sololá	701	Sololá	4	Finca Santa Victoria	4	Abril	2023-07-04T00:00:00	2024-11-08T00:00:00	8	Radiación solar	0
99709	7	Sololá	701	Sololá	4	Finca Santa Victoria	4	Abril	2023-07-04T00:00:00	2024-11-08T01:00:00	2	Temperatura media	12.9
99710	7	Sololá	701	Sololá	4	Finca Santa Victoria	4	Abril	2023-07-04T00:00:00	2024-11-08T01:00:00	4	Temperatura máxima	13.2
99711	7	Sololá	701	Sololá	4	Finca Santa Victoria	4	Abril	2023-07-04T00:00:00	2024-11-08T01:00:00	3	Temperatura mínima	12.9
99712	7	Sololá	701	Sololá	4	Finca Santa Victoria	4	Abril	2023-07-04T00:00:00	2024-11-08T01:00:00	5	Humedad	91
99713	7	Sololá	701	Sololá	4	Finca Santa Victoria	4	Abril	2023-07-04T00:00:00	2024-11-08T01:00:00	6	Velocidad del viento	0
99714	7	Sololá	701	Sololá	4	Finca Santa Victoria	4	Abril	2023-07-04T00:00:00	2024-11-08T01:00:00	7	Dirección del viento	0
99715	7	Sololá	701	Sololá	4	Finca Santa Victoria	4	Abril	2023-07-04T00:00:00	2024-11-08T01:00:00	1	Precipitación	0
99716	7	Sololá	701	Sololá	4	Finca Santa Victoria	4	Abril	2023-07-04T00:00:00	2024-11-08T01:00:00	8	Radiación solar	0
99717	7	Sololá	701	Sololá	4	Finca Santa Victoria	4	Abril	2023-07-04T00:00:00	2024-11-08T02:00:00	2	Temperatura media	12.2
99718	7	Sololá	701	Sololá	4	Finca Santa Victoria	4	Abril	2023-07-04T00:00:00	2024-11-08T02:00:00	4	Temperatura máxima	12.9
99719	7	Sololá	701	Sololá	4	Finca Santa Victoria	4	Abril	2023-07-04T00:00:00	2024-11-08T02:00:00	3	Temperatura mínima	12.1
99720	7	Sololá	701	Sololá	4	Finca Santa Victoria	4	Abril	2023-07-04T00:00:00	2024-11-08T02:00:00	5	Humedad	93
99721	7	Sololá	701	Sololá	4	Finca Santa Victoria	4	Abril	2023-07-04T00:00:00	2024-11-08T02:00:00	6	Velocidad del viento	0
99722	7	Sololá	701	Sololá	4	Finca Santa Victoria	4	Abril	2023-07-04T00:00:00	2024-11-08T02:00:00	7	Dirección del viento	0
99723	7	Sololá	701	Sololá	4	Finca Santa Victoria	4	Abril	2023-07-04T00:00:00	2024-11-08T02:00:00	1	Precipitación	0
99724	7	Sololá	701	Sololá	4	Finca Santa Victoria	4	Abril	2023-07-04T00:00:00	2024-11-08T02:00:00	8	Radiación solar	0
99725	7	Sololá	701	Sololá	4	Finca Santa Victoria	4	Abril	2023-07-04T00:00:00	2024-11-08T03:00:00	2	Temperatura media	12
99726	7	Sololá	701	Sololá	4	Finca Santa Victoria	4	Abril	2023-07-04T00:00:00	2024-11-08T03:00:00	4	Temperatura máxima	12.7
99727	7	Sololá	701	Sololá	4	Finca Santa Victoria	4	Abril	2023-07-04T00:00:00	2024-11-08T03:00:00	3	Temperatura mínima	12
99728	7	Sololá	701	Sololá	4	Finca Santa Victoria	4	Abril	2023-07-04T00:00:00	2024-11-08T03:00:00	5	Humedad	92
99729	7	Sololá	701	Sololá	4	Finca Santa Victoria	4	Abril	2023-07-04T00:00:00	2024-11-08T03:00:00	6	Velocidad del viento	0
99730	7	Sololá	701	Sololá	4	Finca Santa Victoria	4	Abril	2023-07-04T00:00:00	2024-11-08T03:00:00	7	Dirección del viento	0
99731	7	Sololá	701	Sololá	4	Finca Santa Victoria	4	Abril	2023-07-04T00:00:00	2024-11-08T03:00:00	1	Precipitación	0
99732	7	Sololá	701	Sololá	4	Finca Santa Victoria	4	Abril	2023-07-04T00:00:00	2024-11-08T03:00:00	8	Radiación solar	0
99733	7	Sololá	701	Sololá	4	Finca Santa Victoria	4	Abril	2023-07-04T00:00:00	2024-11-08T04:00:00	2	Temperatura media	10.9
99734	7	Sololá	701	Sololá	4	Finca Santa Victoria	4	Abril	2023-07-04T00:00:00	2024-11-08T04:00:00	4	Temperatura máxima	12
99735	7	Sololá	701	Sololá	4	Finca Santa Victoria	4	Abril	2023-07-04T00:00:00	2024-11-08T04:00:00	3	Temperatura mínima	10.9
99736	7	Sololá	701	Sololá	4	Finca Santa Victoria	4	Abril	2023-07-04T00:00:00	2024-11-08T04:00:00	5	Humedad	96
99737	7	Sololá	701	Sololá	4	Finca Santa Victoria	4	Abril	2023-07-04T00:00:00	2024-11-08T04:00:00	6	Velocidad del viento	1.6
99738	7	Sololá	701	Sololá	4	Finca Santa Victoria	4	Abril	2023-07-04T00:00:00	2024-11-08T04:00:00	7	Dirección del viento	1.61
99739	7	Sololá	701	Sololá	4	Finca Santa Victoria	4	Abril	2023-07-04T00:00:00	2024-11-08T04:00:00	1	Precipitación	0
99740	7	Sololá	701	Sololá	4	Finca Santa Victoria	4	Abril	2023-07-04T00:00:00	2024-11-08T04:00:00	8	Radiación solar	0
99741	7	Sololá	701	Sololá	4	Finca Santa Victoria	4	Abril	2023-07-04T00:00:00	2024-11-08T05:00:00	2	Temperatura media	10.4
99742	7	Sololá	701	Sololá	4	Finca Santa Victoria	4	Abril	2023-07-04T00:00:00	2024-11-08T05:00:00	4	Temperatura máxima	10.9
99743	7	Sololá	701	Sololá	4	Finca Santa Victoria	4	Abril	2023-07-04T00:00:00	2024-11-08T05:00:00	3	Temperatura mínima	10.4
99744	7	Sololá	701	Sololá	4	Finca Santa Victoria	4	Abril	2023-07-04T00:00:00	2024-11-08T05:00:00	5	Humedad	95
99745	7	Sololá	701	Sololá	4	Finca Santa Victoria	4	Abril	2023-07-04T00:00:00	2024-11-08T05:00:00	6	Velocidad del viento	1.6
99746	7	Sololá	701	Sololá	4	Finca Santa Victoria	4	Abril	2023-07-04T00:00:00	2024-11-08T05:00:00	7	Dirección del viento	1.61
99747	7	Sololá	701	Sololá	4	Finca Santa Victoria	4	Abril	2023-07-04T00:00:00	2024-11-08T05:00:00	1	Precipitación	0
99748	7	Sololá	701	Sololá	4	Finca Santa Victoria	4	Abril	2023-07-04T00:00:00	2024-11-08T05:00:00	8	Radiación solar	0
99749	7	Sololá	701	Sololá	4	Finca Santa Victoria	4	Abril	2023-07-04T00:00:00	2024-11-08T06:00:00	2	Temperatura media	10.3
99750	7	Sololá	701	Sololá	4	Finca Santa Victoria	4	Abril	2023-07-04T00:00:00	2024-11-08T06:00:00	4	Temperatura máxima	10.4
99751	7	Sololá	701	Sololá	4	Finca Santa Victoria	4	Abril	2023-07-04T00:00:00	2024-11-08T06:00:00	3	Temperatura mínima	10
99752	7	Sololá	701	Sololá	4	Finca Santa Victoria	4	Abril	2023-07-04T00:00:00	2024-11-08T06:00:00	5	Humedad	96
99753	7	Sololá	701	Sololá	4	Finca Santa Victoria	4	Abril	2023-07-04T00:00:00	2024-11-08T06:00:00	6	Velocidad del viento	1.6
99754	7	Sololá	701	Sololá	4	Finca Santa Victoria	4	Abril	2023-07-04T00:00:00	2024-11-08T06:00:00	7	Dirección del viento	1.61
99755	7	Sololá	701	Sololá	4	Finca Santa Victoria	4	Abril	2023-07-04T00:00:00	2024-11-08T06:00:00	1	Precipitación	0
99756	7	Sololá	701	Sololá	4	Finca Santa Victoria	4	Abril	2023-07-04T00:00:00	2024-11-08T06:00:00	8	Radiación solar	0
99757	7	Sololá	701	Sololá	4	Finca Santa Victoria	4	Abril	2023-07-04T00:00:00	2024-11-08T07:00:00	2	Temperatura media	10.7
99758	7	Sololá	701	Sololá	4	Finca Santa Victoria	4	Abril	2023-07-04T00:00:00	2024-11-08T07:00:00	4	Temperatura máxima	10.7
99759	7	Sololá	701	Sololá	4	Finca Santa Victoria	4	Abril	2023-07-04T00:00:00	2024-11-08T07:00:00	3	Temperatura mínima	10.2
99760	7	Sololá	701	Sololá	4	Finca Santa Victoria	4	Abril	2023-07-04T00:00:00	2024-11-08T07:00:00	5	Humedad	91
99761	7	Sololá	701	Sololá	4	Finca Santa Victoria	4	Abril	2023-07-04T00:00:00	2024-11-08T07:00:00	6	Velocidad del viento	1.6
99762	7	Sololá	701	Sololá	4	Finca Santa Victoria	4	Abril	2023-07-04T00:00:00	2024-11-08T07:00:00	7	Dirección del viento	1.61
99763	7	Sololá	701	Sololá	4	Finca Santa Victoria	4	Abril	2023-07-04T00:00:00	2024-11-08T07:00:00	1	Precipitación	0
99764	7	Sololá	701	Sololá	4	Finca Santa Victoria	4	Abril	2023-07-04T00:00:00	2024-11-08T07:00:00	8	Radiación solar	20
99765	7	Sololá	701	Sololá	4	Finca Santa Victoria	4	Abril	2023-07-04T00:00:00	2024-11-08T08:00:00	2	Temperatura media	15.2
99766	7	Sololá	701	Sololá	4	Finca Santa Victoria	4	Abril	2023-07-04T00:00:00	2024-11-08T08:00:00	4	Temperatura máxima	15.2
99767	7	Sololá	701	Sololá	4	Finca Santa Victoria	4	Abril	2023-07-04T00:00:00	2024-11-08T08:00:00	3	Temperatura mínima	10.7
99768	7	Sololá	701	Sololá	4	Finca Santa Victoria	4	Abril	2023-07-04T00:00:00	2024-11-08T08:00:00	5	Humedad	79
99769	7	Sololá	701	Sololá	4	Finca Santa Victoria	4	Abril	2023-07-04T00:00:00	2024-11-08T08:00:00	6	Velocidad del viento	0
99770	7	Sololá	701	Sololá	4	Finca Santa Victoria	4	Abril	2023-07-04T00:00:00	2024-11-08T08:00:00	7	Dirección del viento	0
99771	7	Sololá	701	Sololá	4	Finca Santa Victoria	4	Abril	2023-07-04T00:00:00	2024-11-08T08:00:00	1	Precipitación	0
99772	7	Sololá	701	Sololá	4	Finca Santa Victoria	4	Abril	2023-07-04T00:00:00	2024-11-08T08:00:00	8	Radiación solar	196
99773	7	Sololá	701	Sololá	4	Finca Santa Victoria	4	Abril	2023-07-04T00:00:00	2024-11-08T09:00:00	2	Temperatura media	17.1
99774	7	Sololá	701	Sololá	4	Finca Santa Victoria	4	Abril	2023-07-04T00:00:00	2024-11-08T09:00:00	4	Temperatura máxima	17.1
99775	7	Sololá	701	Sololá	4	Finca Santa Victoria	4	Abril	2023-07-04T00:00:00	2024-11-08T09:00:00	3	Temperatura mínima	15.3
99776	7	Sololá	701	Sololá	4	Finca Santa Victoria	4	Abril	2023-07-04T00:00:00	2024-11-08T09:00:00	5	Humedad	71
99777	7	Sololá	701	Sololá	4	Finca Santa Victoria	4	Abril	2023-07-04T00:00:00	2024-11-08T09:00:00	6	Velocidad del viento	1.6
99778	7	Sololá	701	Sololá	4	Finca Santa Victoria	4	Abril	2023-07-04T00:00:00	2024-11-08T09:00:00	7	Dirección del viento	1.61
99779	7	Sololá	701	Sololá	4	Finca Santa Victoria	4	Abril	2023-07-04T00:00:00	2024-11-08T09:00:00	1	Precipitación	0
99780	7	Sololá	701	Sololá	4	Finca Santa Victoria	4	Abril	2023-07-04T00:00:00	2024-11-08T09:00:00	8	Radiación solar	525
99781	7	Sololá	701	Sololá	4	Finca Santa Victoria	4	Abril	2023-07-04T00:00:00	2024-11-08T10:00:00	2	Temperatura media	18.4
99782	7	Sololá	701	Sololá	4	Finca Santa Victoria	4	Abril	2023-07-04T00:00:00	2024-11-08T10:00:00	4	Temperatura máxima	18.4
99783	7	Sololá	701	Sololá	4	Finca Santa Victoria	4	Abril	2023-07-04T00:00:00	2024-11-08T10:00:00	3	Temperatura mínima	17
99784	7	Sololá	701	Sololá	4	Finca Santa Victoria	4	Abril	2023-07-04T00:00:00	2024-11-08T10:00:00	5	Humedad	65
99785	7	Sololá	701	Sololá	4	Finca Santa Victoria	4	Abril	2023-07-04T00:00:00	2024-11-08T10:00:00	6	Velocidad del viento	3.2
99786	7	Sololá	701	Sololá	4	Finca Santa Victoria	4	Abril	2023-07-04T00:00:00	2024-11-08T10:00:00	7	Dirección del viento	3.22
99787	7	Sololá	701	Sololá	4	Finca Santa Victoria	4	Abril	2023-07-04T00:00:00	2024-11-08T10:00:00	1	Precipitación	0
99788	7	Sololá	701	Sololá	4	Finca Santa Victoria	4	Abril	2023-07-04T00:00:00	2024-11-08T10:00:00	8	Radiación solar	735
99789	7	Sololá	701	Sololá	4	Finca Santa Victoria	4	Abril	2023-07-04T00:00:00	2024-11-08T11:00:00	2	Temperatura media	20.4
99790	7	Sololá	701	Sololá	4	Finca Santa Victoria	4	Abril	2023-07-04T00:00:00	2024-11-08T11:00:00	4	Temperatura máxima	20.6
99791	7	Sololá	701	Sololá	4	Finca Santa Victoria	4	Abril	2023-07-04T00:00:00	2024-11-08T11:00:00	3	Temperatura mínima	18.4
99792	7	Sololá	701	Sololá	4	Finca Santa Victoria	4	Abril	2023-07-04T00:00:00	2024-11-08T11:00:00	5	Humedad	59
99793	7	Sololá	701	Sololá	4	Finca Santa Victoria	4	Abril	2023-07-04T00:00:00	2024-11-08T11:00:00	6	Velocidad del viento	3.2
99794	7	Sololá	701	Sololá	4	Finca Santa Victoria	4	Abril	2023-07-04T00:00:00	2024-11-08T11:00:00	7	Dirección del viento	3.22
99795	7	Sololá	701	Sololá	4	Finca Santa Victoria	4	Abril	2023-07-04T00:00:00	2024-11-08T11:00:00	1	Precipitación	0
99796	7	Sololá	701	Sololá	4	Finca Santa Victoria	4	Abril	2023-07-04T00:00:00	2024-11-08T11:00:00	8	Radiación solar	925
99797	7	Sololá	701	Sololá	4	Finca Santa Victoria	4	Abril	2023-07-04T00:00:00	2024-11-08T12:00:00	2	Temperatura media	19.1
99798	7	Sololá	701	Sololá	4	Finca Santa Victoria	4	Abril	2023-07-04T00:00:00	2024-11-08T12:00:00	4	Temperatura máxima	20.4
99799	7	Sololá	701	Sololá	4	Finca Santa Victoria	4	Abril	2023-07-04T00:00:00	2024-11-08T12:00:00	3	Temperatura mínima	19.1
99800	7	Sololá	701	Sololá	4	Finca Santa Victoria	4	Abril	2023-07-04T00:00:00	2024-11-08T12:00:00	5	Humedad	73
99801	7	Sololá	701	Sololá	4	Finca Santa Victoria	4	Abril	2023-07-04T00:00:00	2024-11-08T12:00:00	6	Velocidad del viento	4.8
99802	7	Sololá	701	Sololá	4	Finca Santa Victoria	4	Abril	2023-07-04T00:00:00	2024-11-08T12:00:00	7	Dirección del viento	4.83
99803	7	Sololá	701	Sololá	4	Finca Santa Victoria	4	Abril	2023-07-04T00:00:00	2024-11-08T12:00:00	1	Precipitación	0
99804	7	Sololá	701	Sololá	4	Finca Santa Victoria	4	Abril	2023-07-04T00:00:00	2024-11-08T12:00:00	8	Radiación solar	981
99805	7	Sololá	701	Sololá	4	Finca Santa Victoria	4	Abril	2023-07-04T00:00:00	2024-11-08T13:00:00	2	Temperatura media	19.5
99806	7	Sololá	701	Sololá	4	Finca Santa Victoria	4	Abril	2023-07-04T00:00:00	2024-11-08T13:00:00	4	Temperatura máxima	19.5
99807	7	Sololá	701	Sololá	4	Finca Santa Victoria	4	Abril	2023-07-04T00:00:00	2024-11-08T13:00:00	3	Temperatura mínima	18.7
99808	7	Sololá	701	Sololá	4	Finca Santa Victoria	4	Abril	2023-07-04T00:00:00	2024-11-08T13:00:00	5	Humedad	75
99809	7	Sololá	701	Sololá	4	Finca Santa Victoria	4	Abril	2023-07-04T00:00:00	2024-11-08T13:00:00	6	Velocidad del viento	4.8
99810	7	Sololá	701	Sololá	4	Finca Santa Victoria	4	Abril	2023-07-04T00:00:00	2024-11-08T13:00:00	7	Dirección del viento	4.83
99811	7	Sololá	701	Sololá	4	Finca Santa Victoria	4	Abril	2023-07-04T00:00:00	2024-11-08T13:00:00	1	Precipitación	0
99812	7	Sololá	701	Sololá	4	Finca Santa Victoria	4	Abril	2023-07-04T00:00:00	2024-11-08T13:00:00	8	Radiación solar	904
99813	7	Sololá	701	Sololá	4	Finca Santa Victoria	4	Abril	2023-07-04T00:00:00	2024-11-08T14:00:00	2	Temperatura media	17.4
99814	7	Sololá	701	Sololá	4	Finca Santa Victoria	4	Abril	2023-07-04T00:00:00	2024-11-08T14:00:00	4	Temperatura máxima	19.5
99815	7	Sololá	701	Sololá	4	Finca Santa Victoria	4	Abril	2023-07-04T00:00:00	2024-11-08T14:00:00	3	Temperatura mínima	17.4
99816	7	Sololá	701	Sololá	4	Finca Santa Victoria	4	Abril	2023-07-04T00:00:00	2024-11-08T14:00:00	5	Humedad	82
99817	7	Sololá	701	Sololá	4	Finca Santa Victoria	4	Abril	2023-07-04T00:00:00	2024-11-08T14:00:00	6	Velocidad del viento	6.4
99818	7	Sololá	701	Sololá	4	Finca Santa Victoria	4	Abril	2023-07-04T00:00:00	2024-11-08T14:00:00	7	Dirección del viento	6.44
99819	7	Sololá	701	Sololá	4	Finca Santa Victoria	4	Abril	2023-07-04T00:00:00	2024-11-08T14:00:00	1	Precipitación	0
99820	7	Sololá	701	Sololá	4	Finca Santa Victoria	4	Abril	2023-07-04T00:00:00	2024-11-08T14:00:00	8	Radiación solar	350
99821	7	Sololá	701	Sololá	4	Finca Santa Victoria	4	Abril	2023-07-04T00:00:00	2024-11-08T15:00:00	2	Temperatura media	16.8
99822	7	Sololá	701	Sololá	4	Finca Santa Victoria	4	Abril	2023-07-04T00:00:00	2024-11-08T15:00:00	4	Temperatura máxima	17.4
99823	7	Sololá	701	Sololá	4	Finca Santa Victoria	4	Abril	2023-07-04T00:00:00	2024-11-08T15:00:00	3	Temperatura mínima	16
99824	7	Sololá	701	Sololá	4	Finca Santa Victoria	4	Abril	2023-07-04T00:00:00	2024-11-08T15:00:00	5	Humedad	87
99825	7	Sololá	701	Sololá	4	Finca Santa Victoria	4	Abril	2023-07-04T00:00:00	2024-11-08T15:00:00	6	Velocidad del viento	4.8
99826	7	Sololá	701	Sololá	4	Finca Santa Victoria	4	Abril	2023-07-04T00:00:00	2024-11-08T15:00:00	7	Dirección del viento	4.83
99827	7	Sololá	701	Sololá	4	Finca Santa Victoria	4	Abril	2023-07-04T00:00:00	2024-11-08T15:00:00	1	Precipitación	0
99828	7	Sololá	701	Sololá	4	Finca Santa Victoria	4	Abril	2023-07-04T00:00:00	2024-11-08T15:00:00	8	Radiación solar	177
99829	7	Sololá	701	Sololá	4	Finca Santa Victoria	4	Abril	2023-07-04T00:00:00	2024-11-08T16:00:00	2	Temperatura media	15.8
99830	7	Sololá	701	Sololá	4	Finca Santa Victoria	4	Abril	2023-07-04T00:00:00	2024-11-08T16:00:00	4	Temperatura máxima	16.8
99831	7	Sololá	701	Sololá	4	Finca Santa Victoria	4	Abril	2023-07-04T00:00:00	2024-11-08T16:00:00	3	Temperatura mínima	15.8
99832	7	Sololá	701	Sololá	4	Finca Santa Victoria	4	Abril	2023-07-04T00:00:00	2024-11-08T16:00:00	5	Humedad	91
99833	7	Sololá	701	Sololá	4	Finca Santa Victoria	4	Abril	2023-07-04T00:00:00	2024-11-08T16:00:00	6	Velocidad del viento	3.2
99834	7	Sololá	701	Sololá	4	Finca Santa Victoria	4	Abril	2023-07-04T00:00:00	2024-11-08T16:00:00	7	Dirección del viento	3.22
99835	7	Sololá	701	Sololá	4	Finca Santa Victoria	4	Abril	2023-07-04T00:00:00	2024-11-08T16:00:00	1	Precipitación	0
99836	7	Sololá	701	Sololá	4	Finca Santa Victoria	4	Abril	2023-07-04T00:00:00	2024-11-08T16:00:00	8	Radiación solar	152
99837	7	Sololá	701	Sololá	4	Finca Santa Victoria	4	Abril	2023-07-04T00:00:00	2024-11-08T17:00:00	2	Temperatura media	15.6
99838	7	Sololá	701	Sololá	4	Finca Santa Victoria	4	Abril	2023-07-04T00:00:00	2024-11-08T17:00:00	4	Temperatura máxima	15.8
99839	7	Sololá	701	Sololá	4	Finca Santa Victoria	4	Abril	2023-07-04T00:00:00	2024-11-08T17:00:00	3	Temperatura mínima	15.5
99840	7	Sololá	701	Sololá	4	Finca Santa Victoria	4	Abril	2023-07-04T00:00:00	2024-11-08T17:00:00	5	Humedad	93
99841	7	Sololá	701	Sololá	4	Finca Santa Victoria	4	Abril	2023-07-04T00:00:00	2024-11-08T17:00:00	6	Velocidad del viento	3.2
99842	7	Sololá	701	Sololá	4	Finca Santa Victoria	4	Abril	2023-07-04T00:00:00	2024-11-08T17:00:00	7	Dirección del viento	3.22
99843	7	Sololá	701	Sololá	4	Finca Santa Victoria	4	Abril	2023-07-04T00:00:00	2024-11-08T17:00:00	1	Precipitación	0
99844	7	Sololá	701	Sololá	4	Finca Santa Victoria	4	Abril	2023-07-04T00:00:00	2024-11-08T17:00:00	8	Radiación solar	66
99845	7	Sololá	701	Sololá	4	Finca Santa Victoria	4	Abril	2023-07-04T00:00:00	2024-11-08T18:00:00	2	Temperatura media	15.2
99846	7	Sololá	701	Sololá	4	Finca Santa Victoria	4	Abril	2023-07-04T00:00:00	2024-11-08T18:00:00	4	Temperatura máxima	15.6
99847	7	Sololá	701	Sololá	4	Finca Santa Victoria	4	Abril	2023-07-04T00:00:00	2024-11-08T18:00:00	3	Temperatura mínima	15.2
99848	7	Sololá	701	Sololá	4	Finca Santa Victoria	4	Abril	2023-07-04T00:00:00	2024-11-08T18:00:00	5	Humedad	94
99849	7	Sololá	701	Sololá	4	Finca Santa Victoria	4	Abril	2023-07-04T00:00:00	2024-11-08T18:00:00	6	Velocidad del viento	1.6
99850	7	Sololá	701	Sololá	4	Finca Santa Victoria	4	Abril	2023-07-04T00:00:00	2024-11-08T18:00:00	7	Dirección del viento	1.61
99851	7	Sololá	701	Sololá	4	Finca Santa Victoria	4	Abril	2023-07-04T00:00:00	2024-11-08T18:00:00	1	Precipitación	0
99852	7	Sololá	701	Sololá	4	Finca Santa Victoria	4	Abril	2023-07-04T00:00:00	2024-11-08T18:00:00	8	Radiación solar	40
99853	7	Sololá	701	Sololá	4	Finca Santa Victoria	4	Abril	2023-07-04T00:00:00	2024-11-08T19:00:00	2	Temperatura media	15.2
99854	7	Sololá	701	Sololá	4	Finca Santa Victoria	4	Abril	2023-07-04T00:00:00	2024-11-08T19:00:00	4	Temperatura máxima	15.2
99855	7	Sololá	701	Sololá	4	Finca Santa Victoria	4	Abril	2023-07-04T00:00:00	2024-11-08T19:00:00	3	Temperatura mínima	14.8
99856	7	Sololá	701	Sololá	4	Finca Santa Victoria	4	Abril	2023-07-04T00:00:00	2024-11-08T19:00:00	5	Humedad	79
99857	7	Sololá	701	Sololá	4	Finca Santa Victoria	4	Abril	2023-07-04T00:00:00	2024-11-08T19:00:00	6	Velocidad del viento	3.2
99858	7	Sololá	701	Sololá	4	Finca Santa Victoria	4	Abril	2023-07-04T00:00:00	2024-11-08T19:00:00	7	Dirección del viento	3.22
99859	7	Sololá	701	Sololá	4	Finca Santa Victoria	4	Abril	2023-07-04T00:00:00	2024-11-08T19:00:00	1	Precipitación	0
99860	7	Sololá	701	Sololá	4	Finca Santa Victoria	4	Abril	2023-07-04T00:00:00	2024-11-08T19:00:00	8	Radiación solar	0
99861	7	Sololá	701	Sololá	4	Finca Santa Victoria	4	Abril	2023-07-04T00:00:00	2024-11-08T20:00:00	2	Temperatura media	14.5
99862	7	Sololá	701	Sololá	4	Finca Santa Victoria	4	Abril	2023-07-04T00:00:00	2024-11-08T20:00:00	4	Temperatura máxima	15.3
99863	7	Sololá	701	Sololá	4	Finca Santa Victoria	4	Abril	2023-07-04T00:00:00	2024-11-08T20:00:00	3	Temperatura mínima	14.5
99864	7	Sololá	701	Sololá	4	Finca Santa Victoria	4	Abril	2023-07-04T00:00:00	2024-11-08T20:00:00	5	Humedad	80
99865	7	Sololá	701	Sololá	4	Finca Santa Victoria	4	Abril	2023-07-04T00:00:00	2024-11-08T20:00:00	6	Velocidad del viento	3.2
99866	7	Sololá	701	Sololá	4	Finca Santa Victoria	4	Abril	2023-07-04T00:00:00	2024-11-08T20:00:00	7	Dirección del viento	3.22
99867	7	Sololá	701	Sololá	4	Finca Santa Victoria	4	Abril	2023-07-04T00:00:00	2024-11-08T20:00:00	1	Precipitación	0
99868	7	Sololá	701	Sololá	4	Finca Santa Victoria	4	Abril	2023-07-04T00:00:00	2024-11-08T20:00:00	8	Radiación solar	0
99869	7	Sololá	701	Sololá	4	Finca Santa Victoria	4	Abril	2023-07-04T00:00:00	2024-11-08T21:00:00	2	Temperatura media	13.8
99870	7	Sololá	701	Sololá	4	Finca Santa Victoria	4	Abril	2023-07-04T00:00:00	2024-11-08T21:00:00	4	Temperatura máxima	14.5
99871	7	Sololá	701	Sololá	4	Finca Santa Victoria	4	Abril	2023-07-04T00:00:00	2024-11-08T21:00:00	3	Temperatura mínima	13.8
99872	7	Sololá	701	Sololá	4	Finca Santa Victoria	4	Abril	2023-07-04T00:00:00	2024-11-08T21:00:00	5	Humedad	80
99873	7	Sololá	701	Sololá	4	Finca Santa Victoria	4	Abril	2023-07-04T00:00:00	2024-11-08T21:00:00	6	Velocidad del viento	3.2
99874	7	Sololá	701	Sololá	4	Finca Santa Victoria	4	Abril	2023-07-04T00:00:00	2024-11-08T21:00:00	7	Dirección del viento	3.22
99875	7	Sololá	701	Sololá	4	Finca Santa Victoria	4	Abril	2023-07-04T00:00:00	2024-11-08T21:00:00	1	Precipitación	0
99876	7	Sololá	701	Sololá	4	Finca Santa Victoria	4	Abril	2023-07-04T00:00:00	2024-11-08T21:00:00	8	Radiación solar	0
99877	7	Sololá	701	Sololá	4	Finca Santa Victoria	4	Abril	2023-07-04T00:00:00	2024-11-08T22:00:00	2	Temperatura media	13.7
99878	7	Sololá	701	Sololá	4	Finca Santa Victoria	4	Abril	2023-07-04T00:00:00	2024-11-08T22:00:00	4	Temperatura máxima	13.8
99879	7	Sololá	701	Sololá	4	Finca Santa Victoria	4	Abril	2023-07-04T00:00:00	2024-11-08T22:00:00	3	Temperatura mínima	13.6
99880	7	Sololá	701	Sololá	4	Finca Santa Victoria	4	Abril	2023-07-04T00:00:00	2024-11-08T22:00:00	5	Humedad	82
99881	7	Sololá	701	Sololá	4	Finca Santa Victoria	4	Abril	2023-07-04T00:00:00	2024-11-08T22:00:00	6	Velocidad del viento	3.2
99882	7	Sololá	701	Sololá	4	Finca Santa Victoria	4	Abril	2023-07-04T00:00:00	2024-11-08T22:00:00	7	Dirección del viento	3.22
99883	7	Sololá	701	Sololá	4	Finca Santa Victoria	4	Abril	2023-07-04T00:00:00	2024-11-08T22:00:00	1	Precipitación	0
99884	7	Sololá	701	Sololá	4	Finca Santa Victoria	4	Abril	2023-07-04T00:00:00	2024-11-08T22:00:00	8	Radiación solar	0
99885	7	Sololá	701	Sololá	4	Finca Santa Victoria	4	Abril	2023-07-04T00:00:00	2024-11-08T23:00:00	2	Temperatura media	13.4
99886	7	Sololá	701	Sololá	4	Finca Santa Victoria	4	Abril	2023-07-04T00:00:00	2024-11-08T23:00:00	4	Temperatura máxima	13.8
99887	7	Sololá	701	Sololá	4	Finca Santa Victoria	4	Abril	2023-07-04T00:00:00	2024-11-08T23:00:00	3	Temperatura mínima	13.4
99888	7	Sololá	701	Sololá	4	Finca Santa Victoria	4	Abril	2023-07-04T00:00:00	2024-11-08T23:00:00	5	Humedad	83
99889	7	Sololá	701	Sololá	4	Finca Santa Victoria	4	Abril	2023-07-04T00:00:00	2024-11-08T23:00:00	6	Velocidad del viento	0
99890	7	Sololá	701	Sololá	4	Finca Santa Victoria	4	Abril	2023-07-04T00:00:00	2024-11-08T23:00:00	7	Dirección del viento	0
99891	7	Sololá	701	Sololá	4	Finca Santa Victoria	4	Abril	2023-07-04T00:00:00	2024-11-08T23:00:00	1	Precipitación	0
99892	7	Sololá	701	Sololá	4	Finca Santa Victoria	4	Abril	2023-07-04T00:00:00	2024-11-08T23:00:00	8	Radiación solar	0
99893	7	Sololá	701	Sololá	4	Finca Santa Victoria	4	Abril	2023-08-04T00:00:00	2024-11-08T00:00:00	2	Temperatura media	13.2
99894	7	Sololá	701	Sololá	4	Finca Santa Victoria	4	Abril	2023-08-04T00:00:00	2024-11-08T00:00:00	4	Temperatura máxima	13.4
99895	7	Sololá	701	Sololá	4	Finca Santa Victoria	4	Abril	2023-08-04T00:00:00	2024-11-08T00:00:00	3	Temperatura mínima	13.1
99896	7	Sololá	701	Sololá	4	Finca Santa Victoria	4	Abril	2023-08-04T00:00:00	2024-11-08T00:00:00	5	Humedad	85
99897	7	Sololá	701	Sololá	4	Finca Santa Victoria	4	Abril	2023-08-04T00:00:00	2024-11-08T00:00:00	6	Velocidad del viento	1.6
99898	7	Sololá	701	Sololá	4	Finca Santa Victoria	4	Abril	2023-08-04T00:00:00	2024-11-08T00:00:00	7	Dirección del viento	1.61
99899	7	Sololá	701	Sololá	4	Finca Santa Victoria	4	Abril	2023-08-04T00:00:00	2024-11-08T00:00:00	1	Precipitación	0
99900	7	Sololá	701	Sololá	4	Finca Santa Victoria	4	Abril	2023-08-04T00:00:00	2024-11-08T00:00:00	8	Radiación solar	0
99901	7	Sololá	701	Sololá	4	Finca Santa Victoria	4	Abril	2023-08-04T00:00:00	2024-11-08T01:00:00	2	Temperatura media	13.4
99902	7	Sololá	701	Sololá	4	Finca Santa Victoria	4	Abril	2023-08-04T00:00:00	2024-11-08T01:00:00	4	Temperatura máxima	13.4
99903	7	Sololá	701	Sololá	4	Finca Santa Victoria	4	Abril	2023-08-04T00:00:00	2024-11-08T01:00:00	3	Temperatura mínima	13.1
99904	7	Sololá	701	Sololá	4	Finca Santa Victoria	4	Abril	2023-08-04T00:00:00	2024-11-08T01:00:00	5	Humedad	85
99905	7	Sololá	701	Sololá	4	Finca Santa Victoria	4	Abril	2023-08-04T00:00:00	2024-11-08T01:00:00	6	Velocidad del viento	1.6
99906	7	Sololá	701	Sololá	4	Finca Santa Victoria	4	Abril	2023-08-04T00:00:00	2024-11-08T01:00:00	7	Dirección del viento	1.61
99907	7	Sololá	701	Sololá	4	Finca Santa Victoria	4	Abril	2023-08-04T00:00:00	2024-11-08T01:00:00	1	Precipitación	0
99908	7	Sololá	701	Sololá	4	Finca Santa Victoria	4	Abril	2023-08-04T00:00:00	2024-11-08T01:00:00	8	Radiación solar	0
99909	7	Sololá	701	Sololá	4	Finca Santa Victoria	4	Abril	2023-08-04T00:00:00	2024-11-08T02:00:00	2	Temperatura media	13.4
99910	7	Sololá	701	Sololá	4	Finca Santa Victoria	4	Abril	2023-08-04T00:00:00	2024-11-08T02:00:00	4	Temperatura máxima	13.5
99911	7	Sololá	701	Sololá	4	Finca Santa Victoria	4	Abril	2023-08-04T00:00:00	2024-11-08T02:00:00	3	Temperatura mínima	13.3
99912	7	Sololá	701	Sololá	4	Finca Santa Victoria	4	Abril	2023-08-04T00:00:00	2024-11-08T02:00:00	5	Humedad	83
99913	7	Sololá	701	Sololá	4	Finca Santa Victoria	4	Abril	2023-08-04T00:00:00	2024-11-08T02:00:00	6	Velocidad del viento	1.6
99914	7	Sololá	701	Sololá	4	Finca Santa Victoria	4	Abril	2023-08-04T00:00:00	2024-11-08T02:00:00	7	Dirección del viento	1.61
99915	7	Sololá	701	Sololá	4	Finca Santa Victoria	4	Abril	2023-08-04T00:00:00	2024-11-08T02:00:00	1	Precipitación	0
99916	7	Sololá	701	Sololá	4	Finca Santa Victoria	4	Abril	2023-08-04T00:00:00	2024-11-08T02:00:00	8	Radiación solar	0
99917	7	Sololá	701	Sololá	4	Finca Santa Victoria	4	Abril	2023-08-04T00:00:00	2024-11-08T03:00:00	2	Temperatura media	13.1
99918	7	Sololá	701	Sololá	4	Finca Santa Victoria	4	Abril	2023-08-04T00:00:00	2024-11-08T03:00:00	4	Temperatura máxima	13.4
99919	7	Sololá	701	Sololá	4	Finca Santa Victoria	4	Abril	2023-08-04T00:00:00	2024-11-08T03:00:00	3	Temperatura mínima	13.1
99920	7	Sololá	701	Sololá	4	Finca Santa Victoria	4	Abril	2023-08-04T00:00:00	2024-11-08T03:00:00	5	Humedad	84
99921	7	Sololá	701	Sololá	4	Finca Santa Victoria	4	Abril	2023-08-04T00:00:00	2024-11-08T03:00:00	6	Velocidad del viento	1.6
99922	7	Sololá	701	Sololá	4	Finca Santa Victoria	4	Abril	2023-08-04T00:00:00	2024-11-08T03:00:00	7	Dirección del viento	1.61
99923	7	Sololá	701	Sololá	4	Finca Santa Victoria	4	Abril	2023-08-04T00:00:00	2024-11-08T03:00:00	1	Precipitación	0
99924	7	Sololá	701	Sololá	4	Finca Santa Victoria	4	Abril	2023-08-04T00:00:00	2024-11-08T03:00:00	8	Radiación solar	0
99925	7	Sololá	701	Sololá	4	Finca Santa Victoria	4	Abril	2023-08-04T00:00:00	2024-11-08T04:00:00	2	Temperatura media	11.1
99926	7	Sololá	701	Sololá	4	Finca Santa Victoria	4	Abril	2023-08-04T00:00:00	2024-11-08T04:00:00	4	Temperatura máxima	13.1
99927	7	Sololá	701	Sololá	4	Finca Santa Victoria	4	Abril	2023-08-04T00:00:00	2024-11-08T04:00:00	3	Temperatura mínima	11.1
99928	7	Sololá	701	Sololá	4	Finca Santa Victoria	4	Abril	2023-08-04T00:00:00	2024-11-08T04:00:00	5	Humedad	91
99929	7	Sololá	701	Sololá	4	Finca Santa Victoria	4	Abril	2023-08-04T00:00:00	2024-11-08T04:00:00	6	Velocidad del viento	1.6
99930	7	Sololá	701	Sololá	4	Finca Santa Victoria	4	Abril	2023-08-04T00:00:00	2024-11-08T04:00:00	7	Dirección del viento	1.61
99931	7	Sololá	701	Sololá	4	Finca Santa Victoria	4	Abril	2023-08-04T00:00:00	2024-11-08T04:00:00	1	Precipitación	0
99932	7	Sololá	701	Sololá	4	Finca Santa Victoria	4	Abril	2023-08-04T00:00:00	2024-11-08T04:00:00	8	Radiación solar	0
99933	7	Sololá	701	Sololá	4	Finca Santa Victoria	4	Abril	2023-08-04T00:00:00	2024-11-08T05:00:00	2	Temperatura media	9.8
99934	7	Sololá	701	Sololá	4	Finca Santa Victoria	4	Abril	2023-08-04T00:00:00	2024-11-08T05:00:00	4	Temperatura máxima	11.1
99935	7	Sololá	701	Sololá	4	Finca Santa Victoria	4	Abril	2023-08-04T00:00:00	2024-11-08T05:00:00	3	Temperatura mínima	9.8
99936	7	Sololá	701	Sololá	4	Finca Santa Victoria	4	Abril	2023-08-04T00:00:00	2024-11-08T05:00:00	5	Humedad	95
99937	7	Sololá	701	Sololá	4	Finca Santa Victoria	4	Abril	2023-08-04T00:00:00	2024-11-08T05:00:00	6	Velocidad del viento	1.6
99938	7	Sololá	701	Sololá	4	Finca Santa Victoria	4	Abril	2023-08-04T00:00:00	2024-11-08T05:00:00	7	Dirección del viento	1.61
99939	7	Sololá	701	Sololá	4	Finca Santa Victoria	4	Abril	2023-08-04T00:00:00	2024-11-08T05:00:00	1	Precipitación	0
99940	7	Sololá	701	Sololá	4	Finca Santa Victoria	4	Abril	2023-08-04T00:00:00	2024-11-08T05:00:00	8	Radiación solar	0
99941	7	Sololá	701	Sololá	4	Finca Santa Victoria	4	Abril	2023-08-04T00:00:00	2024-11-08T06:00:00	2	Temperatura media	9.9
99942	7	Sololá	701	Sololá	4	Finca Santa Victoria	4	Abril	2023-08-04T00:00:00	2024-11-08T06:00:00	4	Temperatura máxima	9.9
99943	7	Sololá	701	Sololá	4	Finca Santa Victoria	4	Abril	2023-08-04T00:00:00	2024-11-08T06:00:00	3	Temperatura mínima	9.7
99944	7	Sololá	701	Sololá	4	Finca Santa Victoria	4	Abril	2023-08-04T00:00:00	2024-11-08T06:00:00	5	Humedad	93
99945	7	Sololá	701	Sololá	4	Finca Santa Victoria	4	Abril	2023-08-04T00:00:00	2024-11-08T06:00:00	6	Velocidad del viento	1.6
99946	7	Sololá	701	Sololá	4	Finca Santa Victoria	4	Abril	2023-08-04T00:00:00	2024-11-08T06:00:00	7	Dirección del viento	1.61
99947	7	Sololá	701	Sololá	4	Finca Santa Victoria	4	Abril	2023-08-04T00:00:00	2024-11-08T06:00:00	1	Precipitación	0
99948	7	Sololá	701	Sololá	4	Finca Santa Victoria	4	Abril	2023-08-04T00:00:00	2024-11-08T06:00:00	8	Radiación solar	0
99949	7	Sololá	701	Sololá	4	Finca Santa Victoria	4	Abril	2023-08-04T00:00:00	2024-11-08T07:00:00	2	Temperatura media	10.6
99950	7	Sololá	701	Sololá	4	Finca Santa Victoria	4	Abril	2023-08-04T00:00:00	2024-11-08T07:00:00	4	Temperatura máxima	10.7
99951	7	Sololá	701	Sololá	4	Finca Santa Victoria	4	Abril	2023-08-04T00:00:00	2024-11-08T07:00:00	3	Temperatura mínima	9.9
99952	7	Sololá	701	Sololá	4	Finca Santa Victoria	4	Abril	2023-08-04T00:00:00	2024-11-08T07:00:00	5	Humedad	93
99953	7	Sololá	701	Sololá	4	Finca Santa Victoria	4	Abril	2023-08-04T00:00:00	2024-11-08T07:00:00	6	Velocidad del viento	1.6
99954	7	Sololá	701	Sololá	4	Finca Santa Victoria	4	Abril	2023-08-04T00:00:00	2024-11-08T07:00:00	7	Dirección del viento	1.61
99955	7	Sololá	701	Sololá	4	Finca Santa Victoria	4	Abril	2023-08-04T00:00:00	2024-11-08T07:00:00	1	Precipitación	0
99956	7	Sololá	701	Sololá	4	Finca Santa Victoria	4	Abril	2023-08-04T00:00:00	2024-11-08T07:00:00	8	Radiación solar	15
99957	7	Sololá	701	Sololá	4	Finca Santa Victoria	4	Abril	2023-08-04T00:00:00	2024-11-08T08:00:00	2	Temperatura media	14.9
99958	7	Sololá	701	Sololá	4	Finca Santa Victoria	4	Abril	2023-08-04T00:00:00	2024-11-08T08:00:00	4	Temperatura máxima	15.1
99959	7	Sololá	701	Sololá	4	Finca Santa Victoria	4	Abril	2023-08-04T00:00:00	2024-11-08T08:00:00	3	Temperatura mínima	10.6
99960	7	Sololá	701	Sololá	4	Finca Santa Victoria	4	Abril	2023-08-04T00:00:00	2024-11-08T08:00:00	5	Humedad	76
99961	7	Sololá	701	Sololá	4	Finca Santa Victoria	4	Abril	2023-08-04T00:00:00	2024-11-08T08:00:00	6	Velocidad del viento	1.6
99962	7	Sololá	701	Sololá	4	Finca Santa Victoria	4	Abril	2023-08-04T00:00:00	2024-11-08T08:00:00	7	Dirección del viento	1.61
99963	7	Sololá	701	Sololá	4	Finca Santa Victoria	4	Abril	2023-08-04T00:00:00	2024-11-08T08:00:00	1	Precipitación	0
99964	7	Sololá	701	Sololá	4	Finca Santa Victoria	4	Abril	2023-08-04T00:00:00	2024-11-08T08:00:00	8	Radiación solar	213
99965	7	Sololá	701	Sololá	4	Finca Santa Victoria	4	Abril	2023-08-04T00:00:00	2024-11-08T09:00:00	2	Temperatura media	16.5
99966	7	Sololá	701	Sololá	4	Finca Santa Victoria	4	Abril	2023-08-04T00:00:00	2024-11-08T09:00:00	4	Temperatura máxima	16.8
99967	7	Sololá	701	Sololá	4	Finca Santa Victoria	4	Abril	2023-08-04T00:00:00	2024-11-08T09:00:00	3	Temperatura mínima	14.9
99968	7	Sololá	701	Sololá	4	Finca Santa Victoria	4	Abril	2023-08-04T00:00:00	2024-11-08T09:00:00	5	Humedad	73
99969	7	Sololá	701	Sololá	4	Finca Santa Victoria	4	Abril	2023-08-04T00:00:00	2024-11-08T09:00:00	6	Velocidad del viento	1.6
99970	7	Sololá	701	Sololá	4	Finca Santa Victoria	4	Abril	2023-08-04T00:00:00	2024-11-08T09:00:00	7	Dirección del viento	1.61
99971	7	Sololá	701	Sololá	4	Finca Santa Victoria	4	Abril	2023-08-04T00:00:00	2024-11-08T09:00:00	1	Precipitación	0
99972	7	Sololá	701	Sololá	4	Finca Santa Victoria	4	Abril	2023-08-04T00:00:00	2024-11-08T09:00:00	8	Radiación solar	535
99973	7	Sololá	701	Sololá	4	Finca Santa Victoria	4	Abril	2023-08-04T00:00:00	2024-11-08T10:00:00	2	Temperatura media	18.7
99974	7	Sololá	701	Sololá	4	Finca Santa Victoria	4	Abril	2023-08-04T00:00:00	2024-11-08T10:00:00	4	Temperatura máxima	18.7
99975	7	Sololá	701	Sololá	4	Finca Santa Victoria	4	Abril	2023-08-04T00:00:00	2024-11-08T10:00:00	3	Temperatura mínima	16.2
99976	7	Sololá	701	Sololá	4	Finca Santa Victoria	4	Abril	2023-08-04T00:00:00	2024-11-08T10:00:00	5	Humedad	64
99977	7	Sololá	701	Sololá	4	Finca Santa Victoria	4	Abril	2023-08-04T00:00:00	2024-11-08T10:00:00	6	Velocidad del viento	3.2
99978	7	Sololá	701	Sololá	4	Finca Santa Victoria	4	Abril	2023-08-04T00:00:00	2024-11-08T10:00:00	7	Dirección del viento	3.22
99979	7	Sololá	701	Sololá	4	Finca Santa Victoria	4	Abril	2023-08-04T00:00:00	2024-11-08T10:00:00	1	Precipitación	0
99980	7	Sololá	701	Sololá	4	Finca Santa Victoria	4	Abril	2023-08-04T00:00:00	2024-11-08T10:00:00	8	Radiación solar	733
99981	7	Sololá	701	Sololá	4	Finca Santa Victoria	4	Abril	2023-08-04T00:00:00	2024-11-08T11:00:00	2	Temperatura media	19.1
99982	7	Sololá	701	Sololá	4	Finca Santa Victoria	4	Abril	2023-08-04T00:00:00	2024-11-08T11:00:00	4	Temperatura máxima	19.4
99983	7	Sololá	701	Sololá	4	Finca Santa Victoria	4	Abril	2023-08-04T00:00:00	2024-11-08T11:00:00	3	Temperatura mínima	18.7
99984	7	Sololá	701	Sololá	4	Finca Santa Victoria	4	Abril	2023-08-04T00:00:00	2024-11-08T11:00:00	5	Humedad	64
99985	7	Sololá	701	Sololá	4	Finca Santa Victoria	4	Abril	2023-08-04T00:00:00	2024-11-08T11:00:00	6	Velocidad del viento	3.2
99986	7	Sololá	701	Sololá	4	Finca Santa Victoria	4	Abril	2023-08-04T00:00:00	2024-11-08T11:00:00	7	Dirección del viento	3.22
99987	7	Sololá	701	Sololá	4	Finca Santa Victoria	4	Abril	2023-08-04T00:00:00	2024-11-08T11:00:00	1	Precipitación	0
99988	7	Sololá	701	Sololá	4	Finca Santa Victoria	4	Abril	2023-08-04T00:00:00	2024-11-08T11:00:00	8	Radiación solar	925
99989	7	Sololá	701	Sololá	4	Finca Santa Victoria	4	Abril	2023-08-04T00:00:00	2024-11-08T12:00:00	2	Temperatura media	19.1
99990	7	Sololá	701	Sololá	4	Finca Santa Victoria	4	Abril	2023-08-04T00:00:00	2024-11-08T12:00:00	4	Temperatura máxima	19.3
99991	7	Sololá	701	Sololá	4	Finca Santa Victoria	4	Abril	2023-08-04T00:00:00	2024-11-08T12:00:00	3	Temperatura mínima	18.8
99992	7	Sololá	701	Sololá	4	Finca Santa Victoria	4	Abril	2023-08-04T00:00:00	2024-11-08T12:00:00	5	Humedad	73
99993	7	Sololá	701	Sololá	4	Finca Santa Victoria	4	Abril	2023-08-04T00:00:00	2024-11-08T12:00:00	6	Velocidad del viento	4.8
99994	7	Sololá	701	Sololá	4	Finca Santa Victoria	4	Abril	2023-08-04T00:00:00	2024-11-08T12:00:00	7	Dirección del viento	4.83
99995	7	Sololá	701	Sololá	4	Finca Santa Victoria	4	Abril	2023-08-04T00:00:00	2024-11-08T12:00:00	1	Precipitación	0
99996	7	Sololá	701	Sololá	4	Finca Santa Victoria	4	Abril	2023-08-04T00:00:00	2024-11-08T12:00:00	8	Radiación solar	1014
99997	7	Sololá	701	Sololá	4	Finca Santa Victoria	4	Abril	2023-08-04T00:00:00	2024-11-08T13:00:00	2	Temperatura media	18.1
99998	7	Sololá	701	Sololá	4	Finca Santa Victoria	4	Abril	2023-08-04T00:00:00	2024-11-08T13:00:00	4	Temperatura máxima	19.2
99999	7	Sololá	701	Sololá	4	Finca Santa Victoria	4	Abril	2023-08-04T00:00:00	2024-11-08T13:00:00	3	Temperatura mínima	17.9
100000	7	Sololá	701	Sololá	4	Finca Santa Victoria	4	Abril	2023-08-04T00:00:00	2024-11-08T13:00:00	5	Humedad	77
100001	7	Sololá	701	Sololá	4	Finca Santa Victoria	4	Abril	2023-08-04T00:00:00	2024-11-08T13:00:00	6	Velocidad del viento	6.4
100002	7	Sololá	701	Sololá	4	Finca Santa Victoria	4	Abril	2023-08-04T00:00:00	2024-11-08T13:00:00	7	Dirección del viento	6.44
100003	7	Sololá	701	Sololá	4	Finca Santa Victoria	4	Abril	2023-08-04T00:00:00	2024-11-08T13:00:00	1	Precipitación	0
100004	7	Sololá	701	Sololá	4	Finca Santa Victoria	4	Abril	2023-08-04T00:00:00	2024-11-08T13:00:00	8	Radiación solar	759
100005	7	Sololá	701	Sololá	4	Finca Santa Victoria	4	Abril	2023-08-04T00:00:00	2024-11-08T14:00:00	2	Temperatura media	18.3
100006	7	Sololá	701	Sololá	4	Finca Santa Victoria	4	Abril	2023-08-04T00:00:00	2024-11-08T14:00:00	4	Temperatura máxima	19.2
100007	7	Sololá	701	Sololá	4	Finca Santa Victoria	4	Abril	2023-08-04T00:00:00	2024-11-08T14:00:00	3	Temperatura mínima	17.7
100008	7	Sololá	701	Sololá	4	Finca Santa Victoria	4	Abril	2023-08-04T00:00:00	2024-11-08T14:00:00	5	Humedad	79
100009	7	Sololá	701	Sololá	4	Finca Santa Victoria	4	Abril	2023-08-04T00:00:00	2024-11-08T14:00:00	6	Velocidad del viento	6.4
100010	7	Sololá	701	Sololá	4	Finca Santa Victoria	4	Abril	2023-08-04T00:00:00	2024-11-08T14:00:00	7	Dirección del viento	6.44
100011	7	Sololá	701	Sololá	4	Finca Santa Victoria	4	Abril	2023-08-04T00:00:00	2024-11-08T14:00:00	1	Precipitación	0
100012	7	Sololá	701	Sololá	4	Finca Santa Victoria	4	Abril	2023-08-04T00:00:00	2024-11-08T14:00:00	8	Radiación solar	282
100013	7	Sololá	701	Sololá	4	Finca Santa Victoria	4	Abril	2023-08-04T00:00:00	2024-11-08T15:00:00	2	Temperatura media	17.8
100014	7	Sololá	701	Sololá	4	Finca Santa Victoria	4	Abril	2023-08-04T00:00:00	2024-11-08T15:00:00	4	Temperatura máxima	19.1
100015	7	Sololá	701	Sololá	4	Finca Santa Victoria	4	Abril	2023-08-04T00:00:00	2024-11-08T15:00:00	3	Temperatura mínima	17.7
100016	7	Sololá	701	Sololá	4	Finca Santa Victoria	4	Abril	2023-08-04T00:00:00	2024-11-08T15:00:00	5	Humedad	84
100017	7	Sololá	701	Sololá	4	Finca Santa Victoria	4	Abril	2023-08-04T00:00:00	2024-11-08T15:00:00	6	Velocidad del viento	4.8
100018	7	Sololá	701	Sololá	4	Finca Santa Victoria	4	Abril	2023-08-04T00:00:00	2024-11-08T15:00:00	7	Dirección del viento	4.83
100019	7	Sololá	701	Sololá	4	Finca Santa Victoria	4	Abril	2023-08-04T00:00:00	2024-11-08T15:00:00	1	Precipitación	0
100020	7	Sololá	701	Sololá	4	Finca Santa Victoria	4	Abril	2023-08-04T00:00:00	2024-11-08T15:00:00	8	Radiación solar	241
100021	7	Sololá	701	Sololá	4	Finca Santa Victoria	4	Abril	2023-08-04T00:00:00	2024-11-08T16:00:00	2	Temperatura media	16.8
100022	7	Sololá	701	Sololá	4	Finca Santa Victoria	4	Abril	2023-08-04T00:00:00	2024-11-08T16:00:00	4	Temperatura máxima	18.7
100023	7	Sololá	701	Sololá	4	Finca Santa Victoria	4	Abril	2023-08-04T00:00:00	2024-11-08T16:00:00	3	Temperatura mínima	16.8
100024	7	Sololá	701	Sololá	4	Finca Santa Victoria	4	Abril	2023-08-04T00:00:00	2024-11-08T16:00:00	5	Humedad	87
100025	7	Sololá	701	Sololá	4	Finca Santa Victoria	4	Abril	2023-08-04T00:00:00	2024-11-08T16:00:00	6	Velocidad del viento	4.8
100026	7	Sololá	701	Sololá	4	Finca Santa Victoria	4	Abril	2023-08-04T00:00:00	2024-11-08T16:00:00	7	Dirección del viento	4.83
100027	7	Sololá	701	Sololá	4	Finca Santa Victoria	4	Abril	2023-08-04T00:00:00	2024-11-08T16:00:00	1	Precipitación	0
100028	7	Sololá	701	Sololá	4	Finca Santa Victoria	4	Abril	2023-08-04T00:00:00	2024-11-08T16:00:00	8	Radiación solar	163
100029	7	Sololá	701	Sololá	4	Finca Santa Victoria	4	Abril	2023-08-04T00:00:00	2024-11-08T17:00:00	2	Temperatura media	18.4
100030	7	Sololá	701	Sololá	4	Finca Santa Victoria	4	Abril	2023-08-04T00:00:00	2024-11-08T17:00:00	4	Temperatura máxima	18.4
100031	7	Sololá	701	Sololá	4	Finca Santa Victoria	4	Abril	2023-08-04T00:00:00	2024-11-08T17:00:00	3	Temperatura mínima	16.8
100032	7	Sololá	701	Sololá	4	Finca Santa Victoria	4	Abril	2023-08-04T00:00:00	2024-11-08T17:00:00	5	Humedad	59
100033	7	Sololá	701	Sololá	4	Finca Santa Victoria	4	Abril	2023-08-04T00:00:00	2024-11-08T17:00:00	6	Velocidad del viento	3.2
100034	7	Sololá	701	Sololá	4	Finca Santa Victoria	4	Abril	2023-08-04T00:00:00	2024-11-08T17:00:00	7	Dirección del viento	3.22
100035	7	Sololá	701	Sololá	4	Finca Santa Victoria	4	Abril	2023-08-04T00:00:00	2024-11-08T17:00:00	1	Precipitación	0
100036	7	Sololá	701	Sololá	4	Finca Santa Victoria	4	Abril	2023-08-04T00:00:00	2024-11-08T17:00:00	8	Radiación solar	111
100037	7	Sololá	701	Sololá	4	Finca Santa Victoria	4	Abril	2023-08-04T00:00:00	2024-11-08T18:00:00	2	Temperatura media	16.2
100038	7	Sololá	701	Sololá	4	Finca Santa Victoria	4	Abril	2023-08-04T00:00:00	2024-11-08T18:00:00	4	Temperatura máxima	18.4
100039	7	Sololá	701	Sololá	4	Finca Santa Victoria	4	Abril	2023-08-04T00:00:00	2024-11-08T18:00:00	3	Temperatura mínima	16.2
100040	7	Sololá	701	Sololá	4	Finca Santa Victoria	4	Abril	2023-08-04T00:00:00	2024-11-08T18:00:00	5	Humedad	62
100041	7	Sololá	701	Sololá	4	Finca Santa Victoria	4	Abril	2023-08-04T00:00:00	2024-11-08T18:00:00	6	Velocidad del viento	3.2
100042	7	Sololá	701	Sololá	4	Finca Santa Victoria	4	Abril	2023-08-04T00:00:00	2024-11-08T18:00:00	7	Dirección del viento	3.22
100043	7	Sololá	701	Sololá	4	Finca Santa Victoria	4	Abril	2023-08-04T00:00:00	2024-11-08T18:00:00	1	Precipitación	0
100044	7	Sololá	701	Sololá	4	Finca Santa Victoria	4	Abril	2023-08-04T00:00:00	2024-11-08T18:00:00	8	Radiación solar	37
100045	7	Sololá	701	Sololá	4	Finca Santa Victoria	4	Abril	2023-08-04T00:00:00	2024-11-08T19:00:00	2	Temperatura media	14.2
100046	7	Sololá	701	Sololá	4	Finca Santa Victoria	4	Abril	2023-08-04T00:00:00	2024-11-08T19:00:00	4	Temperatura máxima	16.2
100047	7	Sololá	701	Sololá	4	Finca Santa Victoria	4	Abril	2023-08-04T00:00:00	2024-11-08T19:00:00	3	Temperatura mínima	14.2
100048	7	Sololá	701	Sololá	4	Finca Santa Victoria	4	Abril	2023-08-04T00:00:00	2024-11-08T19:00:00	5	Humedad	70
100049	7	Sololá	701	Sololá	4	Finca Santa Victoria	4	Abril	2023-08-04T00:00:00	2024-11-08T19:00:00	6	Velocidad del viento	3.2
100050	7	Sololá	701	Sololá	4	Finca Santa Victoria	4	Abril	2023-08-04T00:00:00	2024-11-08T19:00:00	7	Dirección del viento	3.22
100051	7	Sololá	701	Sololá	4	Finca Santa Victoria	4	Abril	2023-08-04T00:00:00	2024-11-08T19:00:00	1	Precipitación	0
100052	7	Sololá	701	Sololá	4	Finca Santa Victoria	4	Abril	2023-08-04T00:00:00	2024-11-08T19:00:00	8	Radiación solar	0
100053	7	Sololá	701	Sololá	4	Finca Santa Victoria	4	Abril	2023-08-04T00:00:00	2024-11-08T20:00:00	2	Temperatura media	12.8
100054	7	Sololá	701	Sololá	4	Finca Santa Victoria	4	Abril	2023-08-04T00:00:00	2024-11-08T20:00:00	4	Temperatura máxima	14.2
100055	7	Sololá	701	Sololá	4	Finca Santa Victoria	4	Abril	2023-08-04T00:00:00	2024-11-08T20:00:00	3	Temperatura mínima	12.8
100056	7	Sololá	701	Sololá	4	Finca Santa Victoria	4	Abril	2023-08-04T00:00:00	2024-11-08T20:00:00	5	Humedad	73
100057	7	Sololá	701	Sololá	4	Finca Santa Victoria	4	Abril	2023-08-04T00:00:00	2024-11-08T20:00:00	6	Velocidad del viento	3.2
100058	7	Sololá	701	Sololá	4	Finca Santa Victoria	4	Abril	2023-08-04T00:00:00	2024-11-08T20:00:00	7	Dirección del viento	3.22
100059	7	Sololá	701	Sololá	4	Finca Santa Victoria	4	Abril	2023-08-04T00:00:00	2024-11-08T20:00:00	1	Precipitación	0
100060	7	Sololá	701	Sololá	4	Finca Santa Victoria	4	Abril	2023-08-04T00:00:00	2024-11-08T20:00:00	8	Radiación solar	0
100061	7	Sololá	701	Sololá	4	Finca Santa Victoria	4	Abril	2023-08-04T00:00:00	2024-11-08T21:00:00	2	Temperatura media	11.8
100062	7	Sololá	701	Sololá	4	Finca Santa Victoria	4	Abril	2023-08-04T00:00:00	2024-11-08T21:00:00	4	Temperatura máxima	12.8
100063	7	Sololá	701	Sololá	4	Finca Santa Victoria	4	Abril	2023-08-04T00:00:00	2024-11-08T21:00:00	3	Temperatura mínima	11.8
100064	7	Sololá	701	Sololá	4	Finca Santa Victoria	4	Abril	2023-08-04T00:00:00	2024-11-08T21:00:00	5	Humedad	78
100065	7	Sololá	701	Sololá	4	Finca Santa Victoria	4	Abril	2023-08-04T00:00:00	2024-11-08T21:00:00	6	Velocidad del viento	3.2
100066	7	Sololá	701	Sololá	4	Finca Santa Victoria	4	Abril	2023-08-04T00:00:00	2024-11-08T21:00:00	7	Dirección del viento	3.22
100067	7	Sololá	701	Sololá	4	Finca Santa Victoria	4	Abril	2023-08-04T00:00:00	2024-11-08T21:00:00	1	Precipitación	0
100068	7	Sololá	701	Sololá	4	Finca Santa Victoria	4	Abril	2023-08-04T00:00:00	2024-11-08T21:00:00	8	Radiación solar	0
100069	7	Sololá	701	Sololá	4	Finca Santa Victoria	4	Abril	2023-08-04T00:00:00	2024-11-08T22:00:00	2	Temperatura media	11.3
100070	7	Sololá	701	Sololá	4	Finca Santa Victoria	4	Abril	2023-08-04T00:00:00	2024-11-08T22:00:00	4	Temperatura máxima	11.8
100071	7	Sololá	701	Sololá	4	Finca Santa Victoria	4	Abril	2023-08-04T00:00:00	2024-11-08T22:00:00	3	Temperatura mínima	11.3
100072	7	Sololá	701	Sololá	4	Finca Santa Victoria	4	Abril	2023-08-04T00:00:00	2024-11-08T22:00:00	5	Humedad	75
100073	7	Sololá	701	Sololá	4	Finca Santa Victoria	4	Abril	2023-08-04T00:00:00	2024-11-08T22:00:00	6	Velocidad del viento	3.2
100074	7	Sololá	701	Sololá	4	Finca Santa Victoria	4	Abril	2023-08-04T00:00:00	2024-11-08T22:00:00	7	Dirección del viento	3.22
100075	7	Sololá	701	Sololá	4	Finca Santa Victoria	4	Abril	2023-08-04T00:00:00	2024-11-08T22:00:00	1	Precipitación	0
100076	7	Sololá	701	Sololá	4	Finca Santa Victoria	4	Abril	2023-08-04T00:00:00	2024-11-08T22:00:00	8	Radiación solar	0
100077	7	Sololá	701	Sololá	4	Finca Santa Victoria	4	Abril	2023-08-04T00:00:00	2024-11-08T23:00:00	2	Temperatura media	10.7
100078	7	Sololá	701	Sololá	4	Finca Santa Victoria	4	Abril	2023-08-04T00:00:00	2024-11-08T23:00:00	4	Temperatura máxima	11.4
100079	7	Sololá	701	Sololá	4	Finca Santa Victoria	4	Abril	2023-08-04T00:00:00	2024-11-08T23:00:00	3	Temperatura mínima	10.7
100080	7	Sololá	701	Sololá	4	Finca Santa Victoria	4	Abril	2023-08-04T00:00:00	2024-11-08T23:00:00	5	Humedad	75
100081	7	Sololá	701	Sololá	4	Finca Santa Victoria	4	Abril	2023-08-04T00:00:00	2024-11-08T23:00:00	6	Velocidad del viento	3.2
100082	7	Sololá	701	Sololá	4	Finca Santa Victoria	4	Abril	2023-08-04T00:00:00	2024-11-08T23:00:00	7	Dirección del viento	3.22
100083	7	Sololá	701	Sololá	4	Finca Santa Victoria	4	Abril	2023-08-04T00:00:00	2024-11-08T23:00:00	1	Precipitación	0
100084	7	Sololá	701	Sololá	4	Finca Santa Victoria	4	Abril	2023-08-04T00:00:00	2024-11-08T23:00:00	8	Radiación solar	0
100085	7	Sololá	701	Sololá	4	Finca Santa Victoria	4	Abril	2023-09-04T00:00:00	2024-11-08T00:00:00	2	Temperatura media	10.9
100086	7	Sololá	701	Sololá	4	Finca Santa Victoria	4	Abril	2023-09-04T00:00:00	2024-11-08T00:00:00	4	Temperatura máxima	10.9
100087	7	Sololá	701	Sololá	4	Finca Santa Victoria	4	Abril	2023-09-04T00:00:00	2024-11-08T00:00:00	3	Temperatura mínima	10.6
100088	7	Sololá	701	Sololá	4	Finca Santa Victoria	4	Abril	2023-09-04T00:00:00	2024-11-08T00:00:00	5	Humedad	73
100089	7	Sololá	701	Sololá	4	Finca Santa Victoria	4	Abril	2023-09-04T00:00:00	2024-11-08T00:00:00	6	Velocidad del viento	3.2
100090	7	Sololá	701	Sololá	4	Finca Santa Victoria	4	Abril	2023-09-04T00:00:00	2024-11-08T00:00:00	7	Dirección del viento	3.22
100091	7	Sololá	701	Sololá	4	Finca Santa Victoria	4	Abril	2023-09-04T00:00:00	2024-11-08T00:00:00	1	Precipitación	0
100092	7	Sololá	701	Sololá	4	Finca Santa Victoria	4	Abril	2023-09-04T00:00:00	2024-11-08T00:00:00	8	Radiación solar	0
100093	7	Sololá	701	Sololá	4	Finca Santa Victoria	4	Abril	2023-09-04T00:00:00	2024-11-08T01:00:00	2	Temperatura media	10.8
100094	7	Sololá	701	Sololá	4	Finca Santa Victoria	4	Abril	2023-09-04T00:00:00	2024-11-08T01:00:00	4	Temperatura máxima	11
100095	7	Sololá	701	Sololá	4	Finca Santa Victoria	4	Abril	2023-09-04T00:00:00	2024-11-08T01:00:00	3	Temperatura mínima	10.8
100096	7	Sololá	701	Sololá	4	Finca Santa Victoria	4	Abril	2023-09-04T00:00:00	2024-11-08T01:00:00	5	Humedad	78
100097	7	Sololá	701	Sololá	4	Finca Santa Victoria	4	Abril	2023-09-04T00:00:00	2024-11-08T01:00:00	6	Velocidad del viento	3.2
100098	7	Sololá	701	Sololá	4	Finca Santa Victoria	4	Abril	2023-09-04T00:00:00	2024-11-08T01:00:00	7	Dirección del viento	3.22
100099	7	Sololá	701	Sololá	4	Finca Santa Victoria	4	Abril	2023-09-04T00:00:00	2024-11-08T01:00:00	1	Precipitación	0
100100	7	Sololá	701	Sololá	4	Finca Santa Victoria	4	Abril	2023-09-04T00:00:00	2024-11-08T01:00:00	8	Radiación solar	0
100101	7	Sololá	701	Sololá	4	Finca Santa Victoria	4	Abril	2023-09-04T00:00:00	2024-11-08T02:00:00	2	Temperatura media	11.1
100102	7	Sololá	701	Sololá	4	Finca Santa Victoria	4	Abril	2023-09-04T00:00:00	2024-11-08T02:00:00	4	Temperatura máxima	11.1
100103	7	Sololá	701	Sololá	4	Finca Santa Victoria	4	Abril	2023-09-04T00:00:00	2024-11-08T02:00:00	3	Temperatura mínima	10.8
100104	7	Sololá	701	Sololá	4	Finca Santa Victoria	4	Abril	2023-09-04T00:00:00	2024-11-08T02:00:00	5	Humedad	82
100105	7	Sololá	701	Sololá	4	Finca Santa Victoria	4	Abril	2023-09-04T00:00:00	2024-11-08T02:00:00	6	Velocidad del viento	3.2
100106	7	Sololá	701	Sololá	4	Finca Santa Victoria	4	Abril	2023-09-04T00:00:00	2024-11-08T02:00:00	7	Dirección del viento	3.22
100107	7	Sololá	701	Sololá	4	Finca Santa Victoria	4	Abril	2023-09-04T00:00:00	2024-11-08T02:00:00	1	Precipitación	0
100108	7	Sololá	701	Sololá	4	Finca Santa Victoria	4	Abril	2023-09-04T00:00:00	2024-11-08T02:00:00	8	Radiación solar	0
100109	7	Sololá	701	Sololá	4	Finca Santa Victoria	4	Abril	2023-09-04T00:00:00	2024-11-08T03:00:00	2	Temperatura media	10.7
100110	7	Sololá	701	Sololá	4	Finca Santa Victoria	4	Abril	2023-09-04T00:00:00	2024-11-08T03:00:00	4	Temperatura máxima	11.1
100111	7	Sololá	701	Sololá	4	Finca Santa Victoria	4	Abril	2023-09-04T00:00:00	2024-11-08T03:00:00	3	Temperatura mínima	10.7
100112	7	Sololá	701	Sololá	4	Finca Santa Victoria	4	Abril	2023-09-04T00:00:00	2024-11-08T03:00:00	5	Humedad	80
100113	7	Sololá	701	Sololá	4	Finca Santa Victoria	4	Abril	2023-09-04T00:00:00	2024-11-08T03:00:00	6	Velocidad del viento	3.2
100114	7	Sololá	701	Sololá	4	Finca Santa Victoria	4	Abril	2023-09-04T00:00:00	2024-11-08T03:00:00	7	Dirección del viento	3.22
100115	7	Sololá	701	Sololá	4	Finca Santa Victoria	4	Abril	2023-09-04T00:00:00	2024-11-08T03:00:00	1	Precipitación	0
100116	7	Sololá	701	Sololá	4	Finca Santa Victoria	4	Abril	2023-09-04T00:00:00	2024-11-08T03:00:00	8	Radiación solar	0
100117	7	Sololá	701	Sololá	4	Finca Santa Victoria	4	Abril	2023-09-04T00:00:00	2024-11-08T04:00:00	2	Temperatura media	10.7
100118	7	Sololá	701	Sololá	4	Finca Santa Victoria	4	Abril	2023-09-04T00:00:00	2024-11-08T04:00:00	4	Temperatura máxima	10.8
100119	7	Sololá	701	Sololá	4	Finca Santa Victoria	4	Abril	2023-09-04T00:00:00	2024-11-08T04:00:00	3	Temperatura mínima	10.5
100120	7	Sololá	701	Sololá	4	Finca Santa Victoria	4	Abril	2023-09-04T00:00:00	2024-11-08T04:00:00	5	Humedad	77
100121	7	Sololá	701	Sololá	4	Finca Santa Victoria	4	Abril	2023-09-04T00:00:00	2024-11-08T04:00:00	6	Velocidad del viento	3.2
100122	7	Sololá	701	Sololá	4	Finca Santa Victoria	4	Abril	2023-09-04T00:00:00	2024-11-08T04:00:00	7	Dirección del viento	3.22
100123	7	Sololá	701	Sololá	4	Finca Santa Victoria	4	Abril	2023-09-04T00:00:00	2024-11-08T04:00:00	1	Precipitación	0
100124	7	Sololá	701	Sololá	4	Finca Santa Victoria	4	Abril	2023-09-04T00:00:00	2024-11-08T04:00:00	8	Radiación solar	0
100125	7	Sololá	701	Sololá	4	Finca Santa Victoria	4	Abril	2023-09-04T00:00:00	2024-11-08T05:00:00	2	Temperatura media	10.5
100126	7	Sololá	701	Sololá	4	Finca Santa Victoria	4	Abril	2023-09-04T00:00:00	2024-11-08T05:00:00	4	Temperatura máxima	10.8
100127	7	Sololá	701	Sololá	4	Finca Santa Victoria	4	Abril	2023-09-04T00:00:00	2024-11-08T05:00:00	3	Temperatura mínima	10.3
100128	7	Sololá	701	Sololá	4	Finca Santa Victoria	4	Abril	2023-09-04T00:00:00	2024-11-08T05:00:00	5	Humedad	80
100129	7	Sololá	701	Sololá	4	Finca Santa Victoria	4	Abril	2023-09-04T00:00:00	2024-11-08T05:00:00	6	Velocidad del viento	3.2
100130	7	Sololá	701	Sololá	4	Finca Santa Victoria	4	Abril	2023-09-04T00:00:00	2024-11-08T05:00:00	7	Dirección del viento	3.22
100131	7	Sololá	701	Sololá	4	Finca Santa Victoria	4	Abril	2023-09-04T00:00:00	2024-11-08T05:00:00	1	Precipitación	0
100132	7	Sololá	701	Sololá	4	Finca Santa Victoria	4	Abril	2023-09-04T00:00:00	2024-11-08T05:00:00	8	Radiación solar	0
100133	7	Sololá	701	Sololá	4	Finca Santa Victoria	4	Abril	2023-09-04T00:00:00	2024-11-08T06:00:00	2	Temperatura media	10.4
100134	7	Sololá	701	Sololá	4	Finca Santa Victoria	4	Abril	2023-09-04T00:00:00	2024-11-08T06:00:00	4	Temperatura máxima	10.7
100135	7	Sololá	701	Sololá	4	Finca Santa Victoria	4	Abril	2023-09-04T00:00:00	2024-11-08T06:00:00	3	Temperatura mínima	10.4
100136	7	Sololá	701	Sololá	4	Finca Santa Victoria	4	Abril	2023-09-04T00:00:00	2024-11-08T06:00:00	5	Humedad	80
100137	7	Sololá	701	Sololá	4	Finca Santa Victoria	4	Abril	2023-09-04T00:00:00	2024-11-08T06:00:00	6	Velocidad del viento	3.2
100138	7	Sololá	701	Sololá	4	Finca Santa Victoria	4	Abril	2023-09-04T00:00:00	2024-11-08T06:00:00	7	Dirección del viento	3.22
100139	7	Sololá	701	Sololá	4	Finca Santa Victoria	4	Abril	2023-09-04T00:00:00	2024-11-08T06:00:00	1	Precipitación	0
100140	7	Sololá	701	Sololá	4	Finca Santa Victoria	4	Abril	2023-09-04T00:00:00	2024-11-08T06:00:00	8	Radiación solar	0
100141	7	Sololá	701	Sololá	4	Finca Santa Victoria	4	Abril	2023-09-04T00:00:00	2024-11-08T07:00:00	2	Temperatura media	11.1
100142	7	Sololá	701	Sololá	4	Finca Santa Victoria	4	Abril	2023-09-04T00:00:00	2024-11-08T07:00:00	4	Temperatura máxima	11.1
100143	7	Sololá	701	Sololá	4	Finca Santa Victoria	4	Abril	2023-09-04T00:00:00	2024-11-08T07:00:00	3	Temperatura mínima	10.4
100144	7	Sololá	701	Sololá	4	Finca Santa Victoria	4	Abril	2023-09-04T00:00:00	2024-11-08T07:00:00	5	Humedad	78
100145	7	Sololá	701	Sololá	4	Finca Santa Victoria	4	Abril	2023-09-04T00:00:00	2024-11-08T07:00:00	6	Velocidad del viento	3.2
100146	7	Sololá	701	Sololá	4	Finca Santa Victoria	4	Abril	2023-09-04T00:00:00	2024-11-08T07:00:00	7	Dirección del viento	3.22
100147	7	Sololá	701	Sololá	4	Finca Santa Victoria	4	Abril	2023-09-04T00:00:00	2024-11-08T07:00:00	1	Precipitación	0
100148	7	Sololá	701	Sololá	4	Finca Santa Victoria	4	Abril	2023-09-04T00:00:00	2024-11-08T07:00:00	8	Radiación solar	16
100149	7	Sololá	701	Sololá	4	Finca Santa Victoria	4	Abril	2023-09-04T00:00:00	2024-11-08T08:00:00	2	Temperatura media	14.3
100150	7	Sololá	701	Sololá	4	Finca Santa Victoria	4	Abril	2023-09-04T00:00:00	2024-11-08T08:00:00	4	Temperatura máxima	14.3
100151	7	Sololá	701	Sololá	4	Finca Santa Victoria	4	Abril	2023-09-04T00:00:00	2024-11-08T08:00:00	3	Temperatura mínima	11.1
100152	7	Sololá	701	Sololá	4	Finca Santa Victoria	4	Abril	2023-09-04T00:00:00	2024-11-08T08:00:00	5	Humedad	68
100153	7	Sololá	701	Sololá	4	Finca Santa Victoria	4	Abril	2023-09-04T00:00:00	2024-11-08T08:00:00	6	Velocidad del viento	3.2
100154	7	Sololá	701	Sololá	4	Finca Santa Victoria	4	Abril	2023-09-04T00:00:00	2024-11-08T08:00:00	7	Dirección del viento	3.22
100155	7	Sololá	701	Sololá	4	Finca Santa Victoria	4	Abril	2023-09-04T00:00:00	2024-11-08T08:00:00	1	Precipitación	0
100156	7	Sololá	701	Sololá	4	Finca Santa Victoria	4	Abril	2023-09-04T00:00:00	2024-11-08T08:00:00	8	Radiación solar	229
100157	7	Sololá	701	Sololá	4	Finca Santa Victoria	4	Abril	2023-09-04T00:00:00	2024-11-08T09:00:00	2	Temperatura media	16.3
100158	7	Sololá	701	Sololá	4	Finca Santa Victoria	4	Abril	2023-09-04T00:00:00	2024-11-08T09:00:00	4	Temperatura máxima	16.3
100159	7	Sololá	701	Sololá	4	Finca Santa Victoria	4	Abril	2023-09-04T00:00:00	2024-11-08T09:00:00	3	Temperatura mínima	14.3
100160	7	Sololá	701	Sololá	4	Finca Santa Victoria	4	Abril	2023-09-04T00:00:00	2024-11-08T09:00:00	5	Humedad	62
100161	7	Sololá	701	Sololá	4	Finca Santa Victoria	4	Abril	2023-09-04T00:00:00	2024-11-08T09:00:00	6	Velocidad del viento	4.8
100162	7	Sololá	701	Sololá	4	Finca Santa Victoria	4	Abril	2023-09-04T00:00:00	2024-11-08T09:00:00	7	Dirección del viento	4.83
100163	7	Sololá	701	Sololá	4	Finca Santa Victoria	4	Abril	2023-09-04T00:00:00	2024-11-08T09:00:00	1	Precipitación	0
100164	7	Sololá	701	Sololá	4	Finca Santa Victoria	4	Abril	2023-09-04T00:00:00	2024-11-08T09:00:00	8	Radiación solar	553
100165	7	Sololá	701	Sololá	4	Finca Santa Victoria	4	Abril	2023-09-04T00:00:00	2024-11-08T10:00:00	2	Temperatura media	17.3
100166	7	Sololá	701	Sololá	4	Finca Santa Victoria	4	Abril	2023-09-04T00:00:00	2024-11-08T10:00:00	4	Temperatura máxima	17.3
100167	7	Sololá	701	Sololá	4	Finca Santa Victoria	4	Abril	2023-09-04T00:00:00	2024-11-08T10:00:00	3	Temperatura mínima	16.3
100168	7	Sololá	701	Sololá	4	Finca Santa Victoria	4	Abril	2023-09-04T00:00:00	2024-11-08T10:00:00	5	Humedad	60
100169	7	Sololá	701	Sololá	4	Finca Santa Victoria	4	Abril	2023-09-04T00:00:00	2024-11-08T10:00:00	6	Velocidad del viento	3.2
100170	7	Sololá	701	Sololá	4	Finca Santa Victoria	4	Abril	2023-09-04T00:00:00	2024-11-08T10:00:00	7	Dirección del viento	3.22
100171	7	Sololá	701	Sololá	4	Finca Santa Victoria	4	Abril	2023-09-04T00:00:00	2024-11-08T10:00:00	1	Precipitación	0
100172	7	Sololá	701	Sololá	4	Finca Santa Victoria	4	Abril	2023-09-04T00:00:00	2024-11-08T10:00:00	8	Radiación solar	485
100173	7	Sololá	701	Sololá	4	Finca Santa Victoria	4	Abril	2023-09-04T00:00:00	2024-11-08T11:00:00	2	Temperatura media	18.7
100174	7	Sololá	701	Sololá	4	Finca Santa Victoria	4	Abril	2023-09-04T00:00:00	2024-11-08T11:00:00	4	Temperatura máxima	19.3
100175	7	Sololá	701	Sololá	4	Finca Santa Victoria	4	Abril	2023-09-04T00:00:00	2024-11-08T11:00:00	3	Temperatura mínima	17.3
100176	7	Sololá	701	Sololá	4	Finca Santa Victoria	4	Abril	2023-09-04T00:00:00	2024-11-08T11:00:00	5	Humedad	56
100177	7	Sololá	701	Sololá	4	Finca Santa Victoria	4	Abril	2023-09-04T00:00:00	2024-11-08T11:00:00	6	Velocidad del viento	4.8
100178	7	Sololá	701	Sololá	4	Finca Santa Victoria	4	Abril	2023-09-04T00:00:00	2024-11-08T11:00:00	7	Dirección del viento	4.83
100179	7	Sololá	701	Sololá	4	Finca Santa Victoria	4	Abril	2023-09-04T00:00:00	2024-11-08T11:00:00	1	Precipitación	0
100180	7	Sololá	701	Sololá	4	Finca Santa Victoria	4	Abril	2023-09-04T00:00:00	2024-11-08T11:00:00	8	Radiación solar	744
100181	7	Sololá	701	Sololá	4	Finca Santa Victoria	4	Abril	2023-09-04T00:00:00	2024-11-08T12:00:00	2	Temperatura media	20.6
100182	7	Sololá	701	Sololá	4	Finca Santa Victoria	4	Abril	2023-09-04T00:00:00	2024-11-08T12:00:00	4	Temperatura máxima	20.9
100183	7	Sololá	701	Sololá	4	Finca Santa Victoria	4	Abril	2023-09-04T00:00:00	2024-11-08T12:00:00	3	Temperatura mínima	18.8
100184	7	Sololá	701	Sololá	4	Finca Santa Victoria	4	Abril	2023-09-04T00:00:00	2024-11-08T12:00:00	5	Humedad	43
100185	7	Sololá	701	Sololá	4	Finca Santa Victoria	4	Abril	2023-09-04T00:00:00	2024-11-08T12:00:00	6	Velocidad del viento	4.8
100186	7	Sololá	701	Sololá	4	Finca Santa Victoria	4	Abril	2023-09-04T00:00:00	2024-11-08T12:00:00	7	Dirección del viento	4.83
100187	7	Sololá	701	Sololá	4	Finca Santa Victoria	4	Abril	2023-09-04T00:00:00	2024-11-08T12:00:00	1	Precipitación	0
100188	7	Sololá	701	Sololá	4	Finca Santa Victoria	4	Abril	2023-09-04T00:00:00	2024-11-08T12:00:00	8	Radiación solar	1030
100189	7	Sololá	701	Sololá	4	Finca Santa Victoria	4	Abril	2023-09-04T00:00:00	2024-11-08T13:00:00	2	Temperatura media	21.8
100190	7	Sololá	701	Sololá	4	Finca Santa Victoria	4	Abril	2023-09-04T00:00:00	2024-11-08T13:00:00	4	Temperatura máxima	21.8
100191	7	Sololá	701	Sololá	4	Finca Santa Victoria	4	Abril	2023-09-04T00:00:00	2024-11-08T13:00:00	3	Temperatura mínima	20.4
100192	7	Sololá	701	Sololá	4	Finca Santa Victoria	4	Abril	2023-09-04T00:00:00	2024-11-08T13:00:00	5	Humedad	44
100193	7	Sololá	701	Sololá	4	Finca Santa Victoria	4	Abril	2023-09-04T00:00:00	2024-11-08T13:00:00	6	Velocidad del viento	4.8
100194	7	Sololá	701	Sololá	4	Finca Santa Victoria	4	Abril	2023-09-04T00:00:00	2024-11-08T13:00:00	7	Dirección del viento	4.83
100195	7	Sololá	701	Sololá	4	Finca Santa Victoria	4	Abril	2023-09-04T00:00:00	2024-11-08T13:00:00	1	Precipitación	0
100196	7	Sololá	701	Sololá	4	Finca Santa Victoria	4	Abril	2023-09-04T00:00:00	2024-11-08T13:00:00	8	Radiación solar	939
100197	7	Sololá	701	Sololá	4	Finca Santa Victoria	4	Abril	2023-09-04T00:00:00	2024-11-08T14:00:00	2	Temperatura media	22.1
100198	7	Sololá	701	Sololá	4	Finca Santa Victoria	4	Abril	2023-09-04T00:00:00	2024-11-08T14:00:00	4	Temperatura máxima	22.4
100199	7	Sololá	701	Sololá	4	Finca Santa Victoria	4	Abril	2023-09-04T00:00:00	2024-11-08T14:00:00	3	Temperatura mínima	21.6
100200	7	Sololá	701	Sololá	4	Finca Santa Victoria	4	Abril	2023-09-04T00:00:00	2024-11-08T14:00:00	5	Humedad	43
100201	7	Sololá	701	Sololá	4	Finca Santa Victoria	4	Abril	2023-09-04T00:00:00	2024-11-08T14:00:00	6	Velocidad del viento	4.8
100202	7	Sololá	701	Sololá	4	Finca Santa Victoria	4	Abril	2023-09-04T00:00:00	2024-11-08T14:00:00	7	Dirección del viento	4.83
100203	7	Sololá	701	Sololá	4	Finca Santa Victoria	4	Abril	2023-09-04T00:00:00	2024-11-08T14:00:00	1	Precipitación	0
100204	7	Sololá	701	Sololá	4	Finca Santa Victoria	4	Abril	2023-09-04T00:00:00	2024-11-08T14:00:00	8	Radiación solar	291
100205	7	Sololá	701	Sololá	4	Finca Santa Victoria	4	Abril	2023-09-04T00:00:00	2024-11-08T15:00:00	2	Temperatura media	22.5
100206	7	Sololá	701	Sololá	4	Finca Santa Victoria	4	Abril	2023-09-04T00:00:00	2024-11-08T15:00:00	4	Temperatura máxima	22.8
100207	7	Sololá	701	Sololá	4	Finca Santa Victoria	4	Abril	2023-09-04T00:00:00	2024-11-08T15:00:00	3	Temperatura mínima	21.7
100208	7	Sololá	701	Sololá	4	Finca Santa Victoria	4	Abril	2023-09-04T00:00:00	2024-11-08T15:00:00	5	Humedad	39
100209	7	Sololá	701	Sololá	4	Finca Santa Victoria	4	Abril	2023-09-04T00:00:00	2024-11-08T15:00:00	6	Velocidad del viento	3.2
100210	7	Sololá	701	Sololá	4	Finca Santa Victoria	4	Abril	2023-09-04T00:00:00	2024-11-08T15:00:00	7	Dirección del viento	3.22
100211	7	Sololá	701	Sololá	4	Finca Santa Victoria	4	Abril	2023-09-04T00:00:00	2024-11-08T15:00:00	1	Precipitación	0
100212	7	Sololá	701	Sololá	4	Finca Santa Victoria	4	Abril	2023-09-04T00:00:00	2024-11-08T15:00:00	8	Radiación solar	280
100213	7	Sololá	701	Sololá	4	Finca Santa Victoria	4	Abril	2023-09-04T00:00:00	2024-11-08T16:00:00	2	Temperatura media	18.4
100214	7	Sololá	701	Sololá	4	Finca Santa Victoria	4	Abril	2023-09-04T00:00:00	2024-11-08T16:00:00	4	Temperatura máxima	22.5
100215	7	Sololá	701	Sololá	4	Finca Santa Victoria	4	Abril	2023-09-04T00:00:00	2024-11-08T16:00:00	3	Temperatura mínima	18.4
100216	7	Sololá	701	Sololá	4	Finca Santa Victoria	4	Abril	2023-09-04T00:00:00	2024-11-08T16:00:00	5	Humedad	67
100217	7	Sololá	701	Sololá	4	Finca Santa Victoria	4	Abril	2023-09-04T00:00:00	2024-11-08T16:00:00	6	Velocidad del viento	3.2
100218	7	Sololá	701	Sololá	4	Finca Santa Victoria	4	Abril	2023-09-04T00:00:00	2024-11-08T16:00:00	7	Dirección del viento	3.22
100219	7	Sololá	701	Sololá	4	Finca Santa Victoria	4	Abril	2023-09-04T00:00:00	2024-11-08T16:00:00	1	Precipitación	0
100220	7	Sololá	701	Sololá	4	Finca Santa Victoria	4	Abril	2023-09-04T00:00:00	2024-11-08T16:00:00	8	Radiación solar	147
100221	7	Sololá	701	Sololá	4	Finca Santa Victoria	4	Abril	2023-09-04T00:00:00	2024-11-08T17:00:00	2	Temperatura media	17.8
100222	7	Sololá	701	Sololá	4	Finca Santa Victoria	4	Abril	2023-09-04T00:00:00	2024-11-08T17:00:00	4	Temperatura máxima	18.4
100223	7	Sololá	701	Sololá	4	Finca Santa Victoria	4	Abril	2023-09-04T00:00:00	2024-11-08T17:00:00	3	Temperatura mínima	17.2
100224	7	Sololá	701	Sololá	4	Finca Santa Victoria	4	Abril	2023-09-04T00:00:00	2024-11-08T17:00:00	5	Humedad	54
100225	7	Sololá	701	Sololá	4	Finca Santa Victoria	4	Abril	2023-09-04T00:00:00	2024-11-08T17:00:00	6	Velocidad del viento	3.2
100226	7	Sololá	701	Sololá	4	Finca Santa Victoria	4	Abril	2023-09-04T00:00:00	2024-11-08T17:00:00	7	Dirección del viento	3.22
100227	7	Sololá	701	Sololá	4	Finca Santa Victoria	4	Abril	2023-09-04T00:00:00	2024-11-08T17:00:00	1	Precipitación	0
100228	7	Sololá	701	Sololá	4	Finca Santa Victoria	4	Abril	2023-09-04T00:00:00	2024-11-08T17:00:00	8	Radiación solar	69
100229	7	Sololá	701	Sololá	4	Finca Santa Victoria	4	Abril	2023-09-04T00:00:00	2024-11-08T18:00:00	2	Temperatura media	16.2
100230	7	Sololá	701	Sololá	4	Finca Santa Victoria	4	Abril	2023-09-04T00:00:00	2024-11-08T18:00:00	4	Temperatura máxima	18.1
100231	7	Sololá	701	Sololá	4	Finca Santa Victoria	4	Abril	2023-09-04T00:00:00	2024-11-08T18:00:00	3	Temperatura mínima	16.2
100232	7	Sololá	701	Sololá	4	Finca Santa Victoria	4	Abril	2023-09-04T00:00:00	2024-11-08T18:00:00	5	Humedad	55
100233	7	Sololá	701	Sololá	4	Finca Santa Victoria	4	Abril	2023-09-04T00:00:00	2024-11-08T18:00:00	6	Velocidad del viento	1.6
100234	7	Sololá	701	Sololá	4	Finca Santa Victoria	4	Abril	2023-09-04T00:00:00	2024-11-08T18:00:00	7	Dirección del viento	1.61
100235	7	Sololá	701	Sololá	4	Finca Santa Victoria	4	Abril	2023-09-04T00:00:00	2024-11-08T18:00:00	1	Precipitación	0
100236	7	Sololá	701	Sololá	4	Finca Santa Victoria	4	Abril	2023-09-04T00:00:00	2024-11-08T18:00:00	8	Radiación solar	52
100237	7	Sololá	701	Sololá	4	Finca Santa Victoria	4	Abril	2023-09-04T00:00:00	2024-11-08T19:00:00	2	Temperatura media	14
100238	7	Sololá	701	Sololá	4	Finca Santa Victoria	4	Abril	2023-09-04T00:00:00	2024-11-08T19:00:00	4	Temperatura máxima	16.2
100239	7	Sololá	701	Sololá	4	Finca Santa Victoria	4	Abril	2023-09-04T00:00:00	2024-11-08T19:00:00	3	Temperatura mínima	14
100240	7	Sololá	701	Sololá	4	Finca Santa Victoria	4	Abril	2023-09-04T00:00:00	2024-11-08T19:00:00	5	Humedad	68
100241	7	Sololá	701	Sololá	4	Finca Santa Victoria	4	Abril	2023-09-04T00:00:00	2024-11-08T19:00:00	6	Velocidad del viento	3.2
100242	7	Sololá	701	Sololá	4	Finca Santa Victoria	4	Abril	2023-09-04T00:00:00	2024-11-08T19:00:00	7	Dirección del viento	3.22
100243	7	Sololá	701	Sololá	4	Finca Santa Victoria	4	Abril	2023-09-04T00:00:00	2024-11-08T19:00:00	1	Precipitación	0
100244	7	Sololá	701	Sololá	4	Finca Santa Victoria	4	Abril	2023-09-04T00:00:00	2024-11-08T19:00:00	8	Radiación solar	0
100245	7	Sololá	701	Sololá	4	Finca Santa Victoria	4	Abril	2023-09-04T00:00:00	2024-11-08T20:00:00	2	Temperatura media	12.7
100246	7	Sololá	701	Sololá	4	Finca Santa Victoria	4	Abril	2023-09-04T00:00:00	2024-11-08T20:00:00	4	Temperatura máxima	14
100247	7	Sololá	701	Sololá	4	Finca Santa Victoria	4	Abril	2023-09-04T00:00:00	2024-11-08T20:00:00	3	Temperatura mínima	12.7
100248	7	Sololá	701	Sololá	4	Finca Santa Victoria	4	Abril	2023-09-04T00:00:00	2024-11-08T20:00:00	5	Humedad	68
100249	7	Sololá	701	Sololá	4	Finca Santa Victoria	4	Abril	2023-09-04T00:00:00	2024-11-08T20:00:00	6	Velocidad del viento	4.8
100250	7	Sololá	701	Sololá	4	Finca Santa Victoria	4	Abril	2023-09-04T00:00:00	2024-11-08T20:00:00	7	Dirección del viento	4.83
100251	7	Sololá	701	Sololá	4	Finca Santa Victoria	4	Abril	2023-09-04T00:00:00	2024-11-08T20:00:00	1	Precipitación	0
100252	7	Sololá	701	Sololá	4	Finca Santa Victoria	4	Abril	2023-09-04T00:00:00	2024-11-08T20:00:00	8	Radiación solar	0
100253	7	Sololá	701	Sololá	4	Finca Santa Victoria	4	Abril	2023-09-04T00:00:00	2024-11-08T21:00:00	2	Temperatura media	12.1
100254	7	Sololá	701	Sololá	4	Finca Santa Victoria	4	Abril	2023-09-04T00:00:00	2024-11-08T21:00:00	4	Temperatura máxima	12.7
100255	7	Sololá	701	Sololá	4	Finca Santa Victoria	4	Abril	2023-09-04T00:00:00	2024-11-08T21:00:00	3	Temperatura mínima	12
100256	7	Sololá	701	Sololá	4	Finca Santa Victoria	4	Abril	2023-09-04T00:00:00	2024-11-08T21:00:00	5	Humedad	73
100257	7	Sololá	701	Sololá	4	Finca Santa Victoria	4	Abril	2023-09-04T00:00:00	2024-11-08T21:00:00	6	Velocidad del viento	4.8
100258	7	Sololá	701	Sololá	4	Finca Santa Victoria	4	Abril	2023-09-04T00:00:00	2024-11-08T21:00:00	7	Dirección del viento	4.83
100259	7	Sololá	701	Sololá	4	Finca Santa Victoria	4	Abril	2023-09-04T00:00:00	2024-11-08T21:00:00	1	Precipitación	0
100260	7	Sololá	701	Sololá	4	Finca Santa Victoria	4	Abril	2023-09-04T00:00:00	2024-11-08T21:00:00	8	Radiación solar	0
100261	7	Sololá	701	Sololá	4	Finca Santa Victoria	4	Abril	2023-09-04T00:00:00	2024-11-08T22:00:00	2	Temperatura media	11.6
100262	7	Sololá	701	Sololá	4	Finca Santa Victoria	4	Abril	2023-09-04T00:00:00	2024-11-08T22:00:00	4	Temperatura máxima	12.1
100263	7	Sololá	701	Sololá	4	Finca Santa Victoria	4	Abril	2023-09-04T00:00:00	2024-11-08T22:00:00	3	Temperatura mínima	11.6
100264	7	Sololá	701	Sololá	4	Finca Santa Victoria	4	Abril	2023-09-04T00:00:00	2024-11-08T22:00:00	5	Humedad	74
100265	7	Sololá	701	Sololá	4	Finca Santa Victoria	4	Abril	2023-09-04T00:00:00	2024-11-08T22:00:00	6	Velocidad del viento	3.2
100266	7	Sololá	701	Sololá	4	Finca Santa Victoria	4	Abril	2023-09-04T00:00:00	2024-11-08T22:00:00	7	Dirección del viento	3.22
100267	7	Sololá	701	Sololá	4	Finca Santa Victoria	4	Abril	2023-09-04T00:00:00	2024-11-08T22:00:00	1	Precipitación	0
100268	7	Sololá	701	Sololá	4	Finca Santa Victoria	4	Abril	2023-09-04T00:00:00	2024-11-08T22:00:00	8	Radiación solar	0
100269	7	Sololá	701	Sololá	4	Finca Santa Victoria	4	Abril	2023-09-04T00:00:00	2024-11-08T23:00:00	2	Temperatura media	11.8
100270	7	Sololá	701	Sololá	4	Finca Santa Victoria	4	Abril	2023-09-04T00:00:00	2024-11-08T23:00:00	4	Temperatura máxima	12.3
100271	7	Sololá	701	Sololá	4	Finca Santa Victoria	4	Abril	2023-09-04T00:00:00	2024-11-08T23:00:00	3	Temperatura mínima	11.6
100272	7	Sololá	701	Sololá	4	Finca Santa Victoria	4	Abril	2023-09-04T00:00:00	2024-11-08T23:00:00	5	Humedad	65
100273	7	Sololá	701	Sololá	4	Finca Santa Victoria	4	Abril	2023-09-04T00:00:00	2024-11-08T23:00:00	6	Velocidad del viento	4.8
100274	7	Sololá	701	Sololá	4	Finca Santa Victoria	4	Abril	2023-09-04T00:00:00	2024-11-08T23:00:00	7	Dirección del viento	4.83
100275	7	Sololá	701	Sololá	4	Finca Santa Victoria	4	Abril	2023-09-04T00:00:00	2024-11-08T23:00:00	1	Precipitación	0
100276	7	Sololá	701	Sololá	4	Finca Santa Victoria	4	Abril	2023-09-04T00:00:00	2024-11-08T23:00:00	8	Radiación solar	0
100277	7	Sololá	701	Sololá	4	Finca Santa Victoria	4	Abril	2023-10-04T00:00:00	2024-11-08T00:00:00	2	Temperatura media	12.2
100278	7	Sololá	701	Sololá	4	Finca Santa Victoria	4	Abril	2023-10-04T00:00:00	2024-11-08T00:00:00	4	Temperatura máxima	12.2
100279	7	Sololá	701	Sololá	4	Finca Santa Victoria	4	Abril	2023-10-04T00:00:00	2024-11-08T00:00:00	3	Temperatura mínima	11.4
100280	7	Sololá	701	Sololá	4	Finca Santa Victoria	4	Abril	2023-10-04T00:00:00	2024-11-08T00:00:00	5	Humedad	62
100281	7	Sololá	701	Sololá	4	Finca Santa Victoria	4	Abril	2023-10-04T00:00:00	2024-11-08T00:00:00	6	Velocidad del viento	4.8
100282	7	Sololá	701	Sololá	4	Finca Santa Victoria	4	Abril	2023-10-04T00:00:00	2024-11-08T00:00:00	7	Dirección del viento	4.83
100283	7	Sololá	701	Sololá	4	Finca Santa Victoria	4	Abril	2023-10-04T00:00:00	2024-11-08T00:00:00	1	Precipitación	0
100284	7	Sololá	701	Sololá	4	Finca Santa Victoria	4	Abril	2023-10-04T00:00:00	2024-11-08T00:00:00	8	Radiación solar	0
100285	7	Sololá	701	Sololá	4	Finca Santa Victoria	4	Abril	2023-10-04T00:00:00	2024-11-08T01:00:00	2	Temperatura media	11.4
100286	7	Sololá	701	Sololá	4	Finca Santa Victoria	4	Abril	2023-10-04T00:00:00	2024-11-08T01:00:00	4	Temperatura máxima	12.2
100287	7	Sololá	701	Sololá	4	Finca Santa Victoria	4	Abril	2023-10-04T00:00:00	2024-11-08T01:00:00	3	Temperatura mínima	11.3
100288	7	Sololá	701	Sololá	4	Finca Santa Victoria	4	Abril	2023-10-04T00:00:00	2024-11-08T01:00:00	5	Humedad	72
100289	7	Sololá	701	Sololá	4	Finca Santa Victoria	4	Abril	2023-10-04T00:00:00	2024-11-08T01:00:00	6	Velocidad del viento	4.8
100290	7	Sololá	701	Sololá	4	Finca Santa Victoria	4	Abril	2023-10-04T00:00:00	2024-11-08T01:00:00	7	Dirección del viento	4.83
100291	7	Sololá	701	Sololá	4	Finca Santa Victoria	4	Abril	2023-10-04T00:00:00	2024-11-08T01:00:00	1	Precipitación	0
100292	7	Sololá	701	Sololá	4	Finca Santa Victoria	4	Abril	2023-10-04T00:00:00	2024-11-08T01:00:00	8	Radiación solar	0
100293	7	Sololá	701	Sololá	4	Finca Santa Victoria	4	Abril	2023-10-04T00:00:00	2024-11-08T02:00:00	2	Temperatura media	11
100294	7	Sololá	701	Sololá	4	Finca Santa Victoria	4	Abril	2023-10-04T00:00:00	2024-11-08T02:00:00	4	Temperatura máxima	11.4
100295	7	Sololá	701	Sololá	4	Finca Santa Victoria	4	Abril	2023-10-04T00:00:00	2024-11-08T02:00:00	3	Temperatura mínima	10.9
100296	7	Sololá	701	Sololá	4	Finca Santa Victoria	4	Abril	2023-10-04T00:00:00	2024-11-08T02:00:00	5	Humedad	75
100297	7	Sololá	701	Sololá	4	Finca Santa Victoria	4	Abril	2023-10-04T00:00:00	2024-11-08T02:00:00	6	Velocidad del viento	4.8
100298	7	Sololá	701	Sololá	4	Finca Santa Victoria	4	Abril	2023-10-04T00:00:00	2024-11-08T02:00:00	7	Dirección del viento	4.83
100299	7	Sololá	701	Sololá	4	Finca Santa Victoria	4	Abril	2023-10-04T00:00:00	2024-11-08T02:00:00	1	Precipitación	0
100300	7	Sololá	701	Sololá	4	Finca Santa Victoria	4	Abril	2023-10-04T00:00:00	2024-11-08T02:00:00	8	Radiación solar	0
100301	7	Sololá	701	Sololá	4	Finca Santa Victoria	4	Abril	2023-10-04T00:00:00	2024-11-08T03:00:00	2	Temperatura media	10.8
100302	7	Sololá	701	Sololá	4	Finca Santa Victoria	4	Abril	2023-10-04T00:00:00	2024-11-08T03:00:00	4	Temperatura máxima	11.1
100303	7	Sololá	701	Sololá	4	Finca Santa Victoria	4	Abril	2023-10-04T00:00:00	2024-11-08T03:00:00	3	Temperatura mínima	10.8
100304	7	Sololá	701	Sololá	4	Finca Santa Victoria	4	Abril	2023-10-04T00:00:00	2024-11-08T03:00:00	5	Humedad	78
100305	7	Sololá	701	Sololá	4	Finca Santa Victoria	4	Abril	2023-10-04T00:00:00	2024-11-08T03:00:00	6	Velocidad del viento	3.2
100306	7	Sololá	701	Sololá	4	Finca Santa Victoria	4	Abril	2023-10-04T00:00:00	2024-11-08T03:00:00	7	Dirección del viento	3.22
100307	7	Sololá	701	Sololá	4	Finca Santa Victoria	4	Abril	2023-10-04T00:00:00	2024-11-08T03:00:00	1	Precipitación	0
100308	7	Sololá	701	Sololá	4	Finca Santa Victoria	4	Abril	2023-10-04T00:00:00	2024-11-08T03:00:00	8	Radiación solar	0
100309	7	Sololá	701	Sololá	4	Finca Santa Victoria	4	Abril	2023-10-04T00:00:00	2024-11-08T04:00:00	2	Temperatura media	10.8
100310	7	Sololá	701	Sololá	4	Finca Santa Victoria	4	Abril	2023-10-04T00:00:00	2024-11-08T04:00:00	4	Temperatura máxima	10.9
100311	7	Sololá	701	Sololá	4	Finca Santa Victoria	4	Abril	2023-10-04T00:00:00	2024-11-08T04:00:00	3	Temperatura mínima	10.7
100312	7	Sololá	701	Sololá	4	Finca Santa Victoria	4	Abril	2023-10-04T00:00:00	2024-11-08T04:00:00	5	Humedad	78
100313	7	Sololá	701	Sololá	4	Finca Santa Victoria	4	Abril	2023-10-04T00:00:00	2024-11-08T04:00:00	6	Velocidad del viento	4.8
100314	7	Sololá	701	Sololá	4	Finca Santa Victoria	4	Abril	2023-10-04T00:00:00	2024-11-08T04:00:00	7	Dirección del viento	4.83
100315	7	Sololá	701	Sololá	4	Finca Santa Victoria	4	Abril	2023-10-04T00:00:00	2024-11-08T04:00:00	1	Precipitación	0
100316	7	Sololá	701	Sololá	4	Finca Santa Victoria	4	Abril	2023-10-04T00:00:00	2024-11-08T04:00:00	8	Radiación solar	0
100317	7	Sololá	701	Sololá	4	Finca Santa Victoria	4	Abril	2023-10-04T00:00:00	2024-11-08T05:00:00	2	Temperatura media	10.7
100318	7	Sololá	701	Sololá	4	Finca Santa Victoria	4	Abril	2023-10-04T00:00:00	2024-11-08T05:00:00	4	Temperatura máxima	10.8
100319	7	Sololá	701	Sololá	4	Finca Santa Victoria	4	Abril	2023-10-04T00:00:00	2024-11-08T05:00:00	3	Temperatura mínima	10.6
100320	7	Sololá	701	Sololá	4	Finca Santa Victoria	4	Abril	2023-10-04T00:00:00	2024-11-08T05:00:00	5	Humedad	78
100321	7	Sololá	701	Sololá	4	Finca Santa Victoria	4	Abril	2023-10-04T00:00:00	2024-11-08T05:00:00	6	Velocidad del viento	3.2
100322	7	Sololá	701	Sololá	4	Finca Santa Victoria	4	Abril	2023-10-04T00:00:00	2024-11-08T05:00:00	7	Dirección del viento	3.22
100323	7	Sololá	701	Sololá	4	Finca Santa Victoria	4	Abril	2023-10-04T00:00:00	2024-11-08T05:00:00	1	Precipitación	0
100324	7	Sololá	701	Sololá	4	Finca Santa Victoria	4	Abril	2023-10-04T00:00:00	2024-11-08T05:00:00	8	Radiación solar	0
100325	7	Sololá	701	Sololá	4	Finca Santa Victoria	4	Abril	2023-10-04T00:00:00	2024-11-08T06:00:00	2	Temperatura media	10.6
100326	7	Sololá	701	Sololá	4	Finca Santa Victoria	4	Abril	2023-10-04T00:00:00	2024-11-08T06:00:00	4	Temperatura máxima	10.8
100327	7	Sololá	701	Sololá	4	Finca Santa Victoria	4	Abril	2023-10-04T00:00:00	2024-11-08T06:00:00	3	Temperatura mínima	10.6
100328	7	Sololá	701	Sololá	4	Finca Santa Victoria	4	Abril	2023-10-04T00:00:00	2024-11-08T06:00:00	5	Humedad	79
100329	7	Sololá	701	Sololá	4	Finca Santa Victoria	4	Abril	2023-10-04T00:00:00	2024-11-08T06:00:00	6	Velocidad del viento	3.2
100330	7	Sololá	701	Sololá	4	Finca Santa Victoria	4	Abril	2023-10-04T00:00:00	2024-11-08T06:00:00	7	Dirección del viento	3.22
100331	7	Sololá	701	Sololá	4	Finca Santa Victoria	4	Abril	2023-10-04T00:00:00	2024-11-08T06:00:00	1	Precipitación	0
100332	7	Sololá	701	Sololá	4	Finca Santa Victoria	4	Abril	2023-10-04T00:00:00	2024-11-08T06:00:00	8	Radiación solar	0
100333	7	Sololá	701	Sololá	4	Finca Santa Victoria	4	Abril	2023-10-04T00:00:00	2024-11-08T07:00:00	2	Temperatura media	11.1
100334	7	Sololá	701	Sololá	4	Finca Santa Victoria	4	Abril	2023-10-04T00:00:00	2024-11-08T07:00:00	4	Temperatura máxima	11.1
100335	7	Sololá	701	Sololá	4	Finca Santa Victoria	4	Abril	2023-10-04T00:00:00	2024-11-08T07:00:00	3	Temperatura mínima	10.6
100336	7	Sololá	701	Sololá	4	Finca Santa Victoria	4	Abril	2023-10-04T00:00:00	2024-11-08T07:00:00	5	Humedad	77
100337	7	Sololá	701	Sololá	4	Finca Santa Victoria	4	Abril	2023-10-04T00:00:00	2024-11-08T07:00:00	6	Velocidad del viento	4.8
100338	7	Sololá	701	Sololá	4	Finca Santa Victoria	4	Abril	2023-10-04T00:00:00	2024-11-08T07:00:00	7	Dirección del viento	4.83
100339	7	Sololá	701	Sololá	4	Finca Santa Victoria	4	Abril	2023-10-04T00:00:00	2024-11-08T07:00:00	1	Precipitación	0
100340	7	Sololá	701	Sololá	4	Finca Santa Victoria	4	Abril	2023-10-04T00:00:00	2024-11-08T07:00:00	8	Radiación solar	16
100341	7	Sololá	701	Sololá	4	Finca Santa Victoria	4	Abril	2023-10-04T00:00:00	2024-11-08T08:00:00	2	Temperatura media	13.7
100342	7	Sololá	701	Sololá	4	Finca Santa Victoria	4	Abril	2023-10-04T00:00:00	2024-11-08T08:00:00	4	Temperatura máxima	13.7
100343	7	Sololá	701	Sololá	4	Finca Santa Victoria	4	Abril	2023-10-04T00:00:00	2024-11-08T08:00:00	3	Temperatura mínima	11.1
100344	7	Sololá	701	Sololá	4	Finca Santa Victoria	4	Abril	2023-10-04T00:00:00	2024-11-08T08:00:00	5	Humedad	69
100345	7	Sololá	701	Sololá	4	Finca Santa Victoria	4	Abril	2023-10-04T00:00:00	2024-11-08T08:00:00	6	Velocidad del viento	4.8
100346	7	Sololá	701	Sololá	4	Finca Santa Victoria	4	Abril	2023-10-04T00:00:00	2024-11-08T08:00:00	7	Dirección del viento	4.83
100347	7	Sololá	701	Sololá	4	Finca Santa Victoria	4	Abril	2023-10-04T00:00:00	2024-11-08T08:00:00	1	Precipitación	0
100348	7	Sololá	701	Sololá	4	Finca Santa Victoria	4	Abril	2023-10-04T00:00:00	2024-11-08T08:00:00	8	Radiación solar	251
100349	7	Sololá	701	Sololá	4	Finca Santa Victoria	4	Abril	2023-10-04T00:00:00	2024-11-08T09:00:00	2	Temperatura media	15.8
100350	7	Sololá	701	Sololá	4	Finca Santa Victoria	4	Abril	2023-10-04T00:00:00	2024-11-08T09:00:00	4	Temperatura máxima	15.8
100351	7	Sololá	701	Sololá	4	Finca Santa Victoria	4	Abril	2023-10-04T00:00:00	2024-11-08T09:00:00	3	Temperatura mínima	13.7
100352	7	Sololá	701	Sololá	4	Finca Santa Victoria	4	Abril	2023-10-04T00:00:00	2024-11-08T09:00:00	5	Humedad	61
100353	7	Sololá	701	Sololá	4	Finca Santa Victoria	4	Abril	2023-10-04T00:00:00	2024-11-08T09:00:00	6	Velocidad del viento	4.8
100354	7	Sololá	701	Sololá	4	Finca Santa Victoria	4	Abril	2023-10-04T00:00:00	2024-11-08T09:00:00	7	Dirección del viento	4.83
100355	7	Sololá	701	Sololá	4	Finca Santa Victoria	4	Abril	2023-10-04T00:00:00	2024-11-08T09:00:00	1	Precipitación	0
100356	7	Sololá	701	Sololá	4	Finca Santa Victoria	4	Abril	2023-10-04T00:00:00	2024-11-08T09:00:00	8	Radiación solar	539
100357	7	Sololá	701	Sololá	4	Finca Santa Victoria	4	Abril	2023-10-04T00:00:00	2024-11-08T10:00:00	2	Temperatura media	17.2
100358	7	Sololá	701	Sololá	4	Finca Santa Victoria	4	Abril	2023-10-04T00:00:00	2024-11-08T10:00:00	4	Temperatura máxima	17.3
100359	7	Sololá	701	Sololá	4	Finca Santa Victoria	4	Abril	2023-10-04T00:00:00	2024-11-08T10:00:00	3	Temperatura mínima	15.8
100360	7	Sololá	701	Sololá	4	Finca Santa Victoria	4	Abril	2023-10-04T00:00:00	2024-11-08T10:00:00	5	Humedad	59
100361	7	Sololá	701	Sololá	4	Finca Santa Victoria	4	Abril	2023-10-04T00:00:00	2024-11-08T10:00:00	6	Velocidad del viento	4.8
100362	7	Sololá	701	Sololá	4	Finca Santa Victoria	4	Abril	2023-10-04T00:00:00	2024-11-08T10:00:00	7	Dirección del viento	4.83
100363	7	Sololá	701	Sololá	4	Finca Santa Victoria	4	Abril	2023-10-04T00:00:00	2024-11-08T10:00:00	1	Precipitación	0
100364	7	Sololá	701	Sololá	4	Finca Santa Victoria	4	Abril	2023-10-04T00:00:00	2024-11-08T10:00:00	8	Radiación solar	772
100365	7	Sololá	701	Sololá	4	Finca Santa Victoria	4	Abril	2023-10-04T00:00:00	2024-11-08T11:00:00	2	Temperatura media	19.4
100366	7	Sololá	701	Sololá	4	Finca Santa Victoria	4	Abril	2023-10-04T00:00:00	2024-11-08T11:00:00	4	Temperatura máxima	19.6
100367	7	Sololá	701	Sololá	4	Finca Santa Victoria	4	Abril	2023-10-04T00:00:00	2024-11-08T11:00:00	3	Temperatura mínima	17.2
100368	7	Sololá	701	Sololá	4	Finca Santa Victoria	4	Abril	2023-10-04T00:00:00	2024-11-08T11:00:00	5	Humedad	51
100369	7	Sololá	701	Sololá	4	Finca Santa Victoria	4	Abril	2023-10-04T00:00:00	2024-11-08T11:00:00	6	Velocidad del viento	3.2
100370	7	Sololá	701	Sololá	4	Finca Santa Victoria	4	Abril	2023-10-04T00:00:00	2024-11-08T11:00:00	7	Dirección del viento	3.22
100371	7	Sololá	701	Sololá	4	Finca Santa Victoria	4	Abril	2023-10-04T00:00:00	2024-11-08T11:00:00	1	Precipitación	0
100372	7	Sololá	701	Sololá	4	Finca Santa Victoria	4	Abril	2023-10-04T00:00:00	2024-11-08T11:00:00	8	Radiación solar	953
100373	7	Sololá	701	Sololá	4	Finca Santa Victoria	4	Abril	2023-10-04T00:00:00	2024-11-08T12:00:00	2	Temperatura media	20.7
100374	7	Sololá	701	Sololá	4	Finca Santa Victoria	4	Abril	2023-10-04T00:00:00	2024-11-08T12:00:00	4	Temperatura máxima	20.7
100375	7	Sololá	701	Sololá	4	Finca Santa Victoria	4	Abril	2023-10-04T00:00:00	2024-11-08T12:00:00	3	Temperatura mínima	19.4
100376	7	Sololá	701	Sololá	4	Finca Santa Victoria	4	Abril	2023-10-04T00:00:00	2024-11-08T12:00:00	5	Humedad	48
100377	7	Sololá	701	Sololá	4	Finca Santa Victoria	4	Abril	2023-10-04T00:00:00	2024-11-08T12:00:00	6	Velocidad del viento	4.8
100378	7	Sololá	701	Sololá	4	Finca Santa Victoria	4	Abril	2023-10-04T00:00:00	2024-11-08T12:00:00	7	Dirección del viento	4.83
100379	7	Sololá	701	Sololá	4	Finca Santa Victoria	4	Abril	2023-10-04T00:00:00	2024-11-08T12:00:00	1	Precipitación	0
100380	7	Sololá	701	Sololá	4	Finca Santa Victoria	4	Abril	2023-10-04T00:00:00	2024-11-08T12:00:00	8	Radiación solar	1022
100381	7	Sololá	701	Sololá	4	Finca Santa Victoria	4	Abril	2023-10-04T00:00:00	2024-11-08T13:00:00	2	Temperatura media	21.4
100382	7	Sololá	701	Sololá	4	Finca Santa Victoria	4	Abril	2023-10-04T00:00:00	2024-11-08T13:00:00	4	Temperatura máxima	21.8
100383	7	Sololá	701	Sololá	4	Finca Santa Victoria	4	Abril	2023-10-04T00:00:00	2024-11-08T13:00:00	3	Temperatura mínima	20.2
100384	7	Sololá	701	Sololá	4	Finca Santa Victoria	4	Abril	2023-10-04T00:00:00	2024-11-08T13:00:00	5	Humedad	43
100385	7	Sololá	701	Sololá	4	Finca Santa Victoria	4	Abril	2023-10-04T00:00:00	2024-11-08T13:00:00	6	Velocidad del viento	4.8
100386	7	Sololá	701	Sololá	4	Finca Santa Victoria	4	Abril	2023-10-04T00:00:00	2024-11-08T13:00:00	7	Dirección del viento	4.83
100387	7	Sololá	701	Sololá	4	Finca Santa Victoria	4	Abril	2023-10-04T00:00:00	2024-11-08T13:00:00	1	Precipitación	0
100388	7	Sololá	701	Sololá	4	Finca Santa Victoria	4	Abril	2023-10-04T00:00:00	2024-11-08T13:00:00	8	Radiación solar	978
100389	7	Sololá	701	Sololá	4	Finca Santa Victoria	4	Abril	2023-10-04T00:00:00	2024-11-08T14:00:00	2	Temperatura media	22.2
100390	7	Sololá	701	Sololá	4	Finca Santa Victoria	4	Abril	2023-10-04T00:00:00	2024-11-08T14:00:00	4	Temperatura máxima	22.4
100391	7	Sololá	701	Sololá	4	Finca Santa Victoria	4	Abril	2023-10-04T00:00:00	2024-11-08T14:00:00	3	Temperatura mínima	21.2
100392	7	Sololá	701	Sololá	4	Finca Santa Victoria	4	Abril	2023-10-04T00:00:00	2024-11-08T14:00:00	5	Humedad	45
100393	7	Sololá	701	Sololá	4	Finca Santa Victoria	4	Abril	2023-10-04T00:00:00	2024-11-08T14:00:00	6	Velocidad del viento	3.2
100394	7	Sololá	701	Sololá	4	Finca Santa Victoria	4	Abril	2023-10-04T00:00:00	2024-11-08T14:00:00	7	Dirección del viento	3.22
100395	7	Sololá	701	Sololá	4	Finca Santa Victoria	4	Abril	2023-10-04T00:00:00	2024-11-08T14:00:00	1	Precipitación	0
100396	7	Sololá	701	Sololá	4	Finca Santa Victoria	4	Abril	2023-10-04T00:00:00	2024-11-08T14:00:00	8	Radiación solar	271
100397	7	Sololá	701	Sololá	4	Finca Santa Victoria	4	Abril	2023-10-04T00:00:00	2024-11-08T15:00:00	2	Temperatura media	21.4
100398	7	Sololá	701	Sololá	4	Finca Santa Victoria	4	Abril	2023-10-04T00:00:00	2024-11-08T15:00:00	4	Temperatura máxima	22.4
100399	7	Sololá	701	Sololá	4	Finca Santa Victoria	4	Abril	2023-10-04T00:00:00	2024-11-08T15:00:00	3	Temperatura mínima	20.9
100400	7	Sololá	701	Sololá	4	Finca Santa Victoria	4	Abril	2023-10-04T00:00:00	2024-11-08T15:00:00	5	Humedad	44
100401	7	Sololá	701	Sololá	4	Finca Santa Victoria	4	Abril	2023-10-04T00:00:00	2024-11-08T15:00:00	6	Velocidad del viento	3.2
100402	7	Sololá	701	Sololá	4	Finca Santa Victoria	4	Abril	2023-10-04T00:00:00	2024-11-08T15:00:00	7	Dirección del viento	3.22
100403	7	Sololá	701	Sololá	4	Finca Santa Victoria	4	Abril	2023-10-04T00:00:00	2024-11-08T15:00:00	1	Precipitación	0
100404	7	Sololá	701	Sololá	4	Finca Santa Victoria	4	Abril	2023-10-04T00:00:00	2024-11-08T15:00:00	8	Radiación solar	290
100405	7	Sololá	701	Sololá	4	Finca Santa Victoria	4	Abril	2023-10-04T00:00:00	2024-11-08T16:00:00	2	Temperatura media	19.7
100406	7	Sololá	701	Sololá	4	Finca Santa Victoria	4	Abril	2023-10-04T00:00:00	2024-11-08T16:00:00	4	Temperatura máxima	21.5
100407	7	Sololá	701	Sololá	4	Finca Santa Victoria	4	Abril	2023-10-04T00:00:00	2024-11-08T16:00:00	3	Temperatura mínima	19.7
100408	7	Sololá	701	Sololá	4	Finca Santa Victoria	4	Abril	2023-10-04T00:00:00	2024-11-08T16:00:00	5	Humedad	48
100409	7	Sololá	701	Sololá	4	Finca Santa Victoria	4	Abril	2023-10-04T00:00:00	2024-11-08T16:00:00	6	Velocidad del viento	4.8
100410	7	Sololá	701	Sololá	4	Finca Santa Victoria	4	Abril	2023-10-04T00:00:00	2024-11-08T16:00:00	7	Dirección del viento	4.83
100411	7	Sololá	701	Sololá	4	Finca Santa Victoria	4	Abril	2023-10-04T00:00:00	2024-11-08T16:00:00	1	Precipitación	0
100412	7	Sololá	701	Sololá	4	Finca Santa Victoria	4	Abril	2023-10-04T00:00:00	2024-11-08T16:00:00	8	Radiación solar	321
100413	7	Sololá	701	Sololá	4	Finca Santa Victoria	4	Abril	2023-10-04T00:00:00	2024-11-08T17:00:00	2	Temperatura media	17.7
100414	7	Sololá	701	Sololá	4	Finca Santa Victoria	4	Abril	2023-10-04T00:00:00	2024-11-08T17:00:00	4	Temperatura máxima	19.7
100415	7	Sololá	701	Sololá	4	Finca Santa Victoria	4	Abril	2023-10-04T00:00:00	2024-11-08T17:00:00	3	Temperatura mínima	17.7
100416	7	Sololá	701	Sololá	4	Finca Santa Victoria	4	Abril	2023-10-04T00:00:00	2024-11-08T17:00:00	5	Humedad	53
100417	7	Sololá	701	Sololá	4	Finca Santa Victoria	4	Abril	2023-10-04T00:00:00	2024-11-08T17:00:00	6	Velocidad del viento	4.8
100418	7	Sololá	701	Sololá	4	Finca Santa Victoria	4	Abril	2023-10-04T00:00:00	2024-11-08T17:00:00	7	Dirección del viento	4.83
100419	7	Sololá	701	Sololá	4	Finca Santa Victoria	4	Abril	2023-10-04T00:00:00	2024-11-08T17:00:00	1	Precipitación	0
100420	7	Sololá	701	Sololá	4	Finca Santa Victoria	4	Abril	2023-10-04T00:00:00	2024-11-08T17:00:00	8	Radiación solar	128
100421	7	Sololá	701	Sololá	4	Finca Santa Victoria	4	Abril	2023-10-04T00:00:00	2024-11-08T18:00:00	2	Temperatura media	15.3
100422	7	Sololá	701	Sololá	4	Finca Santa Victoria	4	Abril	2023-10-04T00:00:00	2024-11-08T18:00:00	4	Temperatura máxima	17.7
100423	7	Sololá	701	Sololá	4	Finca Santa Victoria	4	Abril	2023-10-04T00:00:00	2024-11-08T18:00:00	3	Temperatura mínima	15.3
100424	7	Sololá	701	Sololá	4	Finca Santa Victoria	4	Abril	2023-10-04T00:00:00	2024-11-08T18:00:00	5	Humedad	59
100425	7	Sololá	701	Sololá	4	Finca Santa Victoria	4	Abril	2023-10-04T00:00:00	2024-11-08T18:00:00	6	Velocidad del viento	3.2
100426	7	Sololá	701	Sololá	4	Finca Santa Victoria	4	Abril	2023-10-04T00:00:00	2024-11-08T18:00:00	7	Dirección del viento	3.22
100427	7	Sololá	701	Sololá	4	Finca Santa Victoria	4	Abril	2023-10-04T00:00:00	2024-11-08T18:00:00	1	Precipitación	0
100428	7	Sololá	701	Sololá	4	Finca Santa Victoria	4	Abril	2023-10-04T00:00:00	2024-11-08T18:00:00	8	Radiación solar	66
100429	7	Sololá	701	Sololá	4	Finca Santa Victoria	4	Abril	2023-10-04T00:00:00	2024-11-08T19:00:00	2	Temperatura media	13.5
100430	7	Sololá	701	Sololá	4	Finca Santa Victoria	4	Abril	2023-10-04T00:00:00	2024-11-08T19:00:00	4	Temperatura máxima	15.3
100431	7	Sololá	701	Sololá	4	Finca Santa Victoria	4	Abril	2023-10-04T00:00:00	2024-11-08T19:00:00	3	Temperatura mínima	13.5
100432	7	Sololá	701	Sololá	4	Finca Santa Victoria	4	Abril	2023-10-04T00:00:00	2024-11-08T19:00:00	5	Humedad	69
100433	7	Sololá	701	Sololá	4	Finca Santa Victoria	4	Abril	2023-10-04T00:00:00	2024-11-08T19:00:00	6	Velocidad del viento	4.8
100434	7	Sololá	701	Sololá	4	Finca Santa Victoria	4	Abril	2023-10-04T00:00:00	2024-11-08T19:00:00	7	Dirección del viento	4.83
100435	7	Sololá	701	Sololá	4	Finca Santa Victoria	4	Abril	2023-10-04T00:00:00	2024-11-08T19:00:00	1	Precipitación	0
100436	7	Sololá	701	Sololá	4	Finca Santa Victoria	4	Abril	2023-10-04T00:00:00	2024-11-08T19:00:00	8	Radiación solar	0
100437	7	Sololá	701	Sololá	4	Finca Santa Victoria	4	Abril	2023-10-04T00:00:00	2024-11-08T20:00:00	2	Temperatura media	12.3
100438	7	Sololá	701	Sololá	4	Finca Santa Victoria	4	Abril	2023-10-04T00:00:00	2024-11-08T20:00:00	4	Temperatura máxima	13.5
100439	7	Sololá	701	Sololá	4	Finca Santa Victoria	4	Abril	2023-10-04T00:00:00	2024-11-08T20:00:00	3	Temperatura mínima	12.3
100440	7	Sololá	701	Sololá	4	Finca Santa Victoria	4	Abril	2023-10-04T00:00:00	2024-11-08T20:00:00	5	Humedad	75
100441	7	Sololá	701	Sololá	4	Finca Santa Victoria	4	Abril	2023-10-04T00:00:00	2024-11-08T20:00:00	6	Velocidad del viento	4.8
100442	7	Sololá	701	Sololá	4	Finca Santa Victoria	4	Abril	2023-10-04T00:00:00	2024-11-08T20:00:00	7	Dirección del viento	4.83
100443	7	Sololá	701	Sololá	4	Finca Santa Victoria	4	Abril	2023-10-04T00:00:00	2024-11-08T20:00:00	1	Precipitación	0
100444	7	Sololá	701	Sololá	4	Finca Santa Victoria	4	Abril	2023-10-04T00:00:00	2024-11-08T20:00:00	8	Radiación solar	0
100445	7	Sololá	701	Sololá	4	Finca Santa Victoria	4	Abril	2023-10-04T00:00:00	2024-11-08T21:00:00	2	Temperatura media	11.8
100446	7	Sololá	701	Sololá	4	Finca Santa Victoria	4	Abril	2023-10-04T00:00:00	2024-11-08T21:00:00	4	Temperatura máxima	12.3
100447	7	Sololá	701	Sololá	4	Finca Santa Victoria	4	Abril	2023-10-04T00:00:00	2024-11-08T21:00:00	3	Temperatura mínima	11.8
100448	7	Sololá	701	Sololá	4	Finca Santa Victoria	4	Abril	2023-10-04T00:00:00	2024-11-08T21:00:00	5	Humedad	70
100449	7	Sololá	701	Sololá	4	Finca Santa Victoria	4	Abril	2023-10-04T00:00:00	2024-11-08T21:00:00	6	Velocidad del viento	4.8
100450	7	Sololá	701	Sololá	4	Finca Santa Victoria	4	Abril	2023-10-04T00:00:00	2024-11-08T21:00:00	7	Dirección del viento	4.83
100451	7	Sololá	701	Sololá	4	Finca Santa Victoria	4	Abril	2023-10-04T00:00:00	2024-11-08T21:00:00	1	Precipitación	0
100452	7	Sololá	701	Sololá	4	Finca Santa Victoria	4	Abril	2023-10-04T00:00:00	2024-11-08T21:00:00	8	Radiación solar	0
100453	7	Sololá	701	Sololá	4	Finca Santa Victoria	4	Abril	2023-10-04T00:00:00	2024-11-08T22:00:00	2	Temperatura media	11.8
100454	7	Sololá	701	Sololá	4	Finca Santa Victoria	4	Abril	2023-10-04T00:00:00	2024-11-08T22:00:00	4	Temperatura máxima	12
100455	7	Sololá	701	Sololá	4	Finca Santa Victoria	4	Abril	2023-10-04T00:00:00	2024-11-08T22:00:00	3	Temperatura mínima	11.8
100456	7	Sololá	701	Sololá	4	Finca Santa Victoria	4	Abril	2023-10-04T00:00:00	2024-11-08T22:00:00	5	Humedad	72
100457	7	Sololá	701	Sololá	4	Finca Santa Victoria	4	Abril	2023-10-04T00:00:00	2024-11-08T22:00:00	6	Velocidad del viento	4.8
100458	7	Sololá	701	Sololá	4	Finca Santa Victoria	4	Abril	2023-10-04T00:00:00	2024-11-08T22:00:00	7	Dirección del viento	4.83
100459	7	Sololá	701	Sololá	4	Finca Santa Victoria	4	Abril	2023-10-04T00:00:00	2024-11-08T22:00:00	1	Precipitación	0
100460	7	Sololá	701	Sololá	4	Finca Santa Victoria	4	Abril	2023-10-04T00:00:00	2024-11-08T22:00:00	8	Radiación solar	0
100461	7	Sololá	701	Sololá	4	Finca Santa Victoria	4	Abril	2023-10-04T00:00:00	2024-11-08T23:00:00	2	Temperatura media	11.6
100462	7	Sololá	701	Sololá	4	Finca Santa Victoria	4	Abril	2023-10-04T00:00:00	2024-11-08T23:00:00	4	Temperatura máxima	11.8
100463	7	Sololá	701	Sololá	4	Finca Santa Victoria	4	Abril	2023-10-04T00:00:00	2024-11-08T23:00:00	3	Temperatura mínima	11.6
100464	7	Sololá	701	Sololá	4	Finca Santa Victoria	4	Abril	2023-10-04T00:00:00	2024-11-08T23:00:00	5	Humedad	71
100465	7	Sololá	701	Sololá	4	Finca Santa Victoria	4	Abril	2023-10-04T00:00:00	2024-11-08T23:00:00	6	Velocidad del viento	4.8
100466	7	Sololá	701	Sololá	4	Finca Santa Victoria	4	Abril	2023-10-04T00:00:00	2024-11-08T23:00:00	7	Dirección del viento	4.83
100467	7	Sololá	701	Sololá	4	Finca Santa Victoria	4	Abril	2023-10-04T00:00:00	2024-11-08T23:00:00	1	Precipitación	0
100468	7	Sololá	701	Sololá	4	Finca Santa Victoria	4	Abril	2023-10-04T00:00:00	2024-11-08T23:00:00	8	Radiación solar	0
100469	7	Sololá	701	Sololá	4	Finca Santa Victoria	4	Abril	2023-11-04T00:00:00	2024-11-08T00:00:00	2	Temperatura media	11.3
100470	7	Sololá	701	Sololá	4	Finca Santa Victoria	4	Abril	2023-11-04T00:00:00	2024-11-08T00:00:00	4	Temperatura máxima	11.6
100471	7	Sololá	701	Sololá	4	Finca Santa Victoria	4	Abril	2023-11-04T00:00:00	2024-11-08T00:00:00	3	Temperatura mínima	11.3
100472	7	Sololá	701	Sololá	4	Finca Santa Victoria	4	Abril	2023-11-04T00:00:00	2024-11-08T00:00:00	5	Humedad	75
100473	7	Sololá	701	Sololá	4	Finca Santa Victoria	4	Abril	2023-11-04T00:00:00	2024-11-08T00:00:00	6	Velocidad del viento	4.8
100474	7	Sololá	701	Sololá	4	Finca Santa Victoria	4	Abril	2023-11-04T00:00:00	2024-11-08T00:00:00	7	Dirección del viento	4.83
100475	7	Sololá	701	Sololá	4	Finca Santa Victoria	4	Abril	2023-11-04T00:00:00	2024-11-08T00:00:00	1	Precipitación	0
100476	7	Sololá	701	Sololá	4	Finca Santa Victoria	4	Abril	2023-11-04T00:00:00	2024-11-08T00:00:00	8	Radiación solar	0
100477	7	Sololá	701	Sololá	4	Finca Santa Victoria	4	Abril	2023-11-04T00:00:00	2024-11-08T01:00:00	2	Temperatura media	10.9
100478	7	Sololá	701	Sololá	4	Finca Santa Victoria	4	Abril	2023-11-04T00:00:00	2024-11-08T01:00:00	4	Temperatura máxima	11.3
100479	7	Sololá	701	Sololá	4	Finca Santa Victoria	4	Abril	2023-11-04T00:00:00	2024-11-08T01:00:00	3	Temperatura mínima	10.8
100480	7	Sololá	701	Sololá	4	Finca Santa Victoria	4	Abril	2023-11-04T00:00:00	2024-11-08T01:00:00	5	Humedad	79
100481	7	Sololá	701	Sololá	4	Finca Santa Victoria	4	Abril	2023-11-04T00:00:00	2024-11-08T01:00:00	6	Velocidad del viento	4.8
100482	7	Sololá	701	Sololá	4	Finca Santa Victoria	4	Abril	2023-11-04T00:00:00	2024-11-08T01:00:00	7	Dirección del viento	4.83
100483	7	Sololá	701	Sololá	4	Finca Santa Victoria	4	Abril	2023-11-04T00:00:00	2024-11-08T01:00:00	1	Precipitación	0
100484	7	Sololá	701	Sololá	4	Finca Santa Victoria	4	Abril	2023-11-04T00:00:00	2024-11-08T01:00:00	8	Radiación solar	0
100485	7	Sololá	701	Sololá	4	Finca Santa Victoria	4	Abril	2023-11-04T00:00:00	2024-11-08T02:00:00	2	Temperatura media	10.8
100486	7	Sololá	701	Sololá	4	Finca Santa Victoria	4	Abril	2023-11-04T00:00:00	2024-11-08T02:00:00	4	Temperatura máxima	10.9
100487	7	Sololá	701	Sololá	4	Finca Santa Victoria	4	Abril	2023-11-04T00:00:00	2024-11-08T02:00:00	3	Temperatura mínima	10.8
100488	7	Sololá	701	Sololá	4	Finca Santa Victoria	4	Abril	2023-11-04T00:00:00	2024-11-08T02:00:00	5	Humedad	80
100489	7	Sololá	701	Sololá	4	Finca Santa Victoria	4	Abril	2023-11-04T00:00:00	2024-11-08T02:00:00	6	Velocidad del viento	4.8
100490	7	Sololá	701	Sololá	4	Finca Santa Victoria	4	Abril	2023-11-04T00:00:00	2024-11-08T02:00:00	7	Dirección del viento	4.83
100491	7	Sololá	701	Sololá	4	Finca Santa Victoria	4	Abril	2023-11-04T00:00:00	2024-11-08T02:00:00	1	Precipitación	0
100492	7	Sololá	701	Sololá	4	Finca Santa Victoria	4	Abril	2023-11-04T00:00:00	2024-11-08T02:00:00	8	Radiación solar	0
100493	7	Sololá	701	Sololá	4	Finca Santa Victoria	4	Abril	2023-11-04T00:00:00	2024-11-08T03:00:00	2	Temperatura media	10.7
100494	7	Sololá	701	Sololá	4	Finca Santa Victoria	4	Abril	2023-11-04T00:00:00	2024-11-08T03:00:00	4	Temperatura máxima	10.8
100495	7	Sololá	701	Sololá	4	Finca Santa Victoria	4	Abril	2023-11-04T00:00:00	2024-11-08T03:00:00	3	Temperatura mínima	10.6
100496	7	Sololá	701	Sololá	4	Finca Santa Victoria	4	Abril	2023-11-04T00:00:00	2024-11-08T03:00:00	5	Humedad	81
100497	7	Sololá	701	Sololá	4	Finca Santa Victoria	4	Abril	2023-11-04T00:00:00	2024-11-08T03:00:00	6	Velocidad del viento	4.8
100498	7	Sololá	701	Sololá	4	Finca Santa Victoria	4	Abril	2023-11-04T00:00:00	2024-11-08T03:00:00	7	Dirección del viento	4.83
100499	7	Sololá	701	Sololá	4	Finca Santa Victoria	4	Abril	2023-11-04T00:00:00	2024-11-08T03:00:00	1	Precipitación	0
100500	7	Sololá	701	Sololá	4	Finca Santa Victoria	4	Abril	2023-11-04T00:00:00	2024-11-08T03:00:00	8	Radiación solar	0
100501	7	Sololá	701	Sololá	4	Finca Santa Victoria	4	Abril	2023-11-04T00:00:00	2024-11-08T04:00:00	2	Temperatura media	11.3
100502	7	Sololá	701	Sololá	4	Finca Santa Victoria	4	Abril	2023-11-04T00:00:00	2024-11-08T04:00:00	4	Temperatura máxima	11.4
100503	7	Sololá	701	Sololá	4	Finca Santa Victoria	4	Abril	2023-11-04T00:00:00	2024-11-08T04:00:00	3	Temperatura mínima	10.6
100504	7	Sololá	701	Sololá	4	Finca Santa Victoria	4	Abril	2023-11-04T00:00:00	2024-11-08T04:00:00	5	Humedad	76
100505	7	Sololá	701	Sololá	4	Finca Santa Victoria	4	Abril	2023-11-04T00:00:00	2024-11-08T04:00:00	6	Velocidad del viento	3.2
100506	7	Sololá	701	Sololá	4	Finca Santa Victoria	4	Abril	2023-11-04T00:00:00	2024-11-08T04:00:00	7	Dirección del viento	3.22
100507	7	Sololá	701	Sololá	4	Finca Santa Victoria	4	Abril	2023-11-04T00:00:00	2024-11-08T04:00:00	1	Precipitación	0
100508	7	Sololá	701	Sololá	4	Finca Santa Victoria	4	Abril	2023-11-04T00:00:00	2024-11-08T04:00:00	8	Radiación solar	0
100509	7	Sololá	701	Sololá	4	Finca Santa Victoria	4	Abril	2023-11-04T00:00:00	2024-11-08T05:00:00	2	Temperatura media	11.3
100510	7	Sololá	701	Sololá	4	Finca Santa Victoria	4	Abril	2023-11-04T00:00:00	2024-11-08T05:00:00	4	Temperatura máxima	11.9
100511	7	Sololá	701	Sololá	4	Finca Santa Victoria	4	Abril	2023-11-04T00:00:00	2024-11-08T05:00:00	3	Temperatura mínima	11.3
100512	7	Sololá	701	Sololá	4	Finca Santa Victoria	4	Abril	2023-11-04T00:00:00	2024-11-08T05:00:00	5	Humedad	78
100513	7	Sololá	701	Sololá	4	Finca Santa Victoria	4	Abril	2023-11-04T00:00:00	2024-11-08T05:00:00	6	Velocidad del viento	3.2
100514	7	Sololá	701	Sololá	4	Finca Santa Victoria	4	Abril	2023-11-04T00:00:00	2024-11-08T05:00:00	7	Dirección del viento	3.22
100515	7	Sololá	701	Sololá	4	Finca Santa Victoria	4	Abril	2023-11-04T00:00:00	2024-11-08T05:00:00	1	Precipitación	0
100516	7	Sololá	701	Sololá	4	Finca Santa Victoria	4	Abril	2023-11-04T00:00:00	2024-11-08T05:00:00	8	Radiación solar	0
100517	7	Sololá	701	Sololá	4	Finca Santa Victoria	4	Abril	2023-11-04T00:00:00	2024-11-08T06:00:00	2	Temperatura media	10.9
100518	7	Sololá	701	Sololá	4	Finca Santa Victoria	4	Abril	2023-11-04T00:00:00	2024-11-08T06:00:00	4	Temperatura máxima	11.4
100519	7	Sololá	701	Sololá	4	Finca Santa Victoria	4	Abril	2023-11-04T00:00:00	2024-11-08T06:00:00	3	Temperatura mínima	10.8
100520	7	Sololá	701	Sololá	4	Finca Santa Victoria	4	Abril	2023-11-04T00:00:00	2024-11-08T06:00:00	5	Humedad	79
100521	7	Sololá	701	Sololá	4	Finca Santa Victoria	4	Abril	2023-11-04T00:00:00	2024-11-08T06:00:00	6	Velocidad del viento	3.2
100522	7	Sololá	701	Sololá	4	Finca Santa Victoria	4	Abril	2023-11-04T00:00:00	2024-11-08T06:00:00	7	Dirección del viento	3.22
100523	7	Sololá	701	Sololá	4	Finca Santa Victoria	4	Abril	2023-11-04T00:00:00	2024-11-08T06:00:00	1	Precipitación	0
100524	7	Sololá	701	Sololá	4	Finca Santa Victoria	4	Abril	2023-11-04T00:00:00	2024-11-08T06:00:00	8	Radiación solar	0
100525	7	Sololá	701	Sololá	4	Finca Santa Victoria	4	Abril	2023-11-04T00:00:00	2024-11-08T07:00:00	2	Temperatura media	11.6
100526	7	Sololá	701	Sololá	4	Finca Santa Victoria	4	Abril	2023-11-04T00:00:00	2024-11-08T07:00:00	4	Temperatura máxima	11.7
100527	7	Sololá	701	Sololá	4	Finca Santa Victoria	4	Abril	2023-11-04T00:00:00	2024-11-08T07:00:00	3	Temperatura mínima	10.9
100528	7	Sololá	701	Sololá	4	Finca Santa Victoria	4	Abril	2023-11-04T00:00:00	2024-11-08T07:00:00	5	Humedad	77
100529	7	Sololá	701	Sololá	4	Finca Santa Victoria	4	Abril	2023-11-04T00:00:00	2024-11-08T07:00:00	6	Velocidad del viento	4.8
100530	7	Sololá	701	Sololá	4	Finca Santa Victoria	4	Abril	2023-11-04T00:00:00	2024-11-08T07:00:00	7	Dirección del viento	4.83
100531	7	Sololá	701	Sololá	4	Finca Santa Victoria	4	Abril	2023-11-04T00:00:00	2024-11-08T07:00:00	1	Precipitación	0
100532	7	Sololá	701	Sololá	4	Finca Santa Victoria	4	Abril	2023-11-04T00:00:00	2024-11-08T07:00:00	8	Radiación solar	14
100533	7	Sololá	701	Sololá	4	Finca Santa Victoria	4	Abril	2023-11-04T00:00:00	2024-11-08T08:00:00	2	Temperatura media	13.8
100534	7	Sololá	701	Sololá	4	Finca Santa Victoria	4	Abril	2023-11-04T00:00:00	2024-11-08T08:00:00	4	Temperatura máxima	13.8
100535	7	Sololá	701	Sololá	4	Finca Santa Victoria	4	Abril	2023-11-04T00:00:00	2024-11-08T08:00:00	3	Temperatura mínima	11.6
100536	7	Sololá	701	Sololá	4	Finca Santa Victoria	4	Abril	2023-11-04T00:00:00	2024-11-08T08:00:00	5	Humedad	71
100537	7	Sololá	701	Sololá	4	Finca Santa Victoria	4	Abril	2023-11-04T00:00:00	2024-11-08T08:00:00	6	Velocidad del viento	4.8
100538	7	Sololá	701	Sololá	4	Finca Santa Victoria	4	Abril	2023-11-04T00:00:00	2024-11-08T08:00:00	7	Dirección del viento	4.83
100539	7	Sololá	701	Sololá	4	Finca Santa Victoria	4	Abril	2023-11-04T00:00:00	2024-11-08T08:00:00	1	Precipitación	0
100540	7	Sololá	701	Sololá	4	Finca Santa Victoria	4	Abril	2023-11-04T00:00:00	2024-11-08T08:00:00	8	Radiación solar	152
100541	7	Sololá	701	Sololá	4	Finca Santa Victoria	4	Abril	2023-11-04T00:00:00	2024-11-08T09:00:00	2	Temperatura media	16.5
100542	7	Sololá	701	Sololá	4	Finca Santa Victoria	4	Abril	2023-11-04T00:00:00	2024-11-08T09:00:00	4	Temperatura máxima	16.5
100543	7	Sololá	701	Sololá	4	Finca Santa Victoria	4	Abril	2023-11-04T00:00:00	2024-11-08T09:00:00	3	Temperatura mínima	13.8
100544	7	Sololá	701	Sololá	4	Finca Santa Victoria	4	Abril	2023-11-04T00:00:00	2024-11-08T09:00:00	5	Humedad	61
100545	7	Sololá	701	Sololá	4	Finca Santa Victoria	4	Abril	2023-11-04T00:00:00	2024-11-08T09:00:00	6	Velocidad del viento	4.8
100546	7	Sololá	701	Sololá	4	Finca Santa Victoria	4	Abril	2023-11-04T00:00:00	2024-11-08T09:00:00	7	Dirección del viento	4.83
100547	7	Sololá	701	Sololá	4	Finca Santa Victoria	4	Abril	2023-11-04T00:00:00	2024-11-08T09:00:00	1	Precipitación	0
100548	7	Sololá	701	Sololá	4	Finca Santa Victoria	4	Abril	2023-11-04T00:00:00	2024-11-08T09:00:00	8	Radiación solar	555
100549	7	Sololá	701	Sololá	4	Finca Santa Victoria	4	Abril	2023-11-04T00:00:00	2024-11-08T10:00:00	2	Temperatura media	18.9
100550	7	Sololá	701	Sololá	4	Finca Santa Victoria	4	Abril	2023-11-04T00:00:00	2024-11-08T10:00:00	4	Temperatura máxima	19
100551	7	Sololá	701	Sololá	4	Finca Santa Victoria	4	Abril	2023-11-04T00:00:00	2024-11-08T10:00:00	3	Temperatura mínima	16.2
100552	7	Sololá	701	Sololá	4	Finca Santa Victoria	4	Abril	2023-11-04T00:00:00	2024-11-08T10:00:00	5	Humedad	52
100553	7	Sololá	701	Sololá	4	Finca Santa Victoria	4	Abril	2023-11-04T00:00:00	2024-11-08T10:00:00	6	Velocidad del viento	4.8
100554	7	Sololá	701	Sololá	4	Finca Santa Victoria	4	Abril	2023-11-04T00:00:00	2024-11-08T10:00:00	7	Dirección del viento	4.83
100555	7	Sololá	701	Sololá	4	Finca Santa Victoria	4	Abril	2023-11-04T00:00:00	2024-11-08T10:00:00	1	Precipitación	0
100556	7	Sololá	701	Sololá	4	Finca Santa Victoria	4	Abril	2023-11-04T00:00:00	2024-11-08T10:00:00	8	Radiación solar	722
100557	7	Sololá	701	Sololá	4	Finca Santa Victoria	4	Abril	2023-11-04T00:00:00	2024-11-08T11:00:00	2	Temperatura media	20.2
100558	7	Sololá	701	Sololá	4	Finca Santa Victoria	4	Abril	2023-11-04T00:00:00	2024-11-08T11:00:00	4	Temperatura máxima	20.3
100559	7	Sololá	701	Sololá	4	Finca Santa Victoria	4	Abril	2023-11-04T00:00:00	2024-11-08T11:00:00	3	Temperatura mínima	18.9
100560	7	Sololá	701	Sololá	4	Finca Santa Victoria	4	Abril	2023-11-04T00:00:00	2024-11-08T11:00:00	5	Humedad	47
100561	7	Sololá	701	Sololá	4	Finca Santa Victoria	4	Abril	2023-11-04T00:00:00	2024-11-08T11:00:00	6	Velocidad del viento	4.8
100562	7	Sololá	701	Sololá	4	Finca Santa Victoria	4	Abril	2023-11-04T00:00:00	2024-11-08T11:00:00	7	Dirección del viento	4.83
100563	7	Sololá	701	Sololá	4	Finca Santa Victoria	4	Abril	2023-11-04T00:00:00	2024-11-08T11:00:00	1	Precipitación	0
100564	7	Sololá	701	Sololá	4	Finca Santa Victoria	4	Abril	2023-11-04T00:00:00	2024-11-08T11:00:00	8	Radiación solar	949
100565	7	Sololá	701	Sololá	4	Finca Santa Victoria	4	Abril	2023-11-04T00:00:00	2024-11-08T12:00:00	2	Temperatura media	21.9
100566	7	Sololá	701	Sololá	4	Finca Santa Victoria	4	Abril	2023-11-04T00:00:00	2024-11-08T12:00:00	4	Temperatura máxima	21.9
100567	7	Sololá	701	Sololá	4	Finca Santa Victoria	4	Abril	2023-11-04T00:00:00	2024-11-08T12:00:00	3	Temperatura mínima	20.2
100568	7	Sololá	701	Sololá	4	Finca Santa Victoria	4	Abril	2023-11-04T00:00:00	2024-11-08T12:00:00	5	Humedad	47
100569	7	Sololá	701	Sololá	4	Finca Santa Victoria	4	Abril	2023-11-04T00:00:00	2024-11-08T12:00:00	6	Velocidad del viento	4.8
100570	7	Sololá	701	Sololá	4	Finca Santa Victoria	4	Abril	2023-11-04T00:00:00	2024-11-08T12:00:00	7	Dirección del viento	4.83
100571	7	Sololá	701	Sololá	4	Finca Santa Victoria	4	Abril	2023-11-04T00:00:00	2024-11-08T12:00:00	1	Precipitación	0
100572	7	Sololá	701	Sololá	4	Finca Santa Victoria	4	Abril	2023-11-04T00:00:00	2024-11-08T12:00:00	8	Radiación solar	1017
100573	7	Sololá	701	Sololá	4	Finca Santa Victoria	4	Abril	2023-11-04T00:00:00	2024-11-08T13:00:00	2	Temperatura media	23.1
100574	7	Sololá	701	Sololá	4	Finca Santa Victoria	4	Abril	2023-11-04T00:00:00	2024-11-08T13:00:00	4	Temperatura máxima	23.1
100575	7	Sololá	701	Sololá	4	Finca Santa Victoria	4	Abril	2023-11-04T00:00:00	2024-11-08T13:00:00	3	Temperatura mínima	21.9
100576	7	Sololá	701	Sololá	4	Finca Santa Victoria	4	Abril	2023-11-04T00:00:00	2024-11-08T13:00:00	5	Humedad	40
100577	7	Sololá	701	Sololá	4	Finca Santa Victoria	4	Abril	2023-11-04T00:00:00	2024-11-08T13:00:00	6	Velocidad del viento	4.8
100578	7	Sololá	701	Sololá	4	Finca Santa Victoria	4	Abril	2023-11-04T00:00:00	2024-11-08T13:00:00	7	Dirección del viento	4.83
100579	7	Sololá	701	Sololá	4	Finca Santa Victoria	4	Abril	2023-11-04T00:00:00	2024-11-08T13:00:00	1	Precipitación	0
100580	7	Sololá	701	Sololá	4	Finca Santa Victoria	4	Abril	2023-11-04T00:00:00	2024-11-08T13:00:00	8	Radiación solar	948
100581	7	Sololá	701	Sololá	4	Finca Santa Victoria	4	Abril	2023-11-04T00:00:00	2024-11-08T14:00:00	2	Temperatura media	19.2
100582	7	Sololá	701	Sololá	4	Finca Santa Victoria	4	Abril	2023-11-04T00:00:00	2024-11-08T14:00:00	4	Temperatura máxima	23.2
100583	7	Sololá	701	Sololá	4	Finca Santa Victoria	4	Abril	2023-11-04T00:00:00	2024-11-08T14:00:00	3	Temperatura mínima	19.2
100584	7	Sololá	701	Sololá	4	Finca Santa Victoria	4	Abril	2023-11-04T00:00:00	2024-11-08T14:00:00	5	Humedad	66
100585	7	Sololá	701	Sololá	4	Finca Santa Victoria	4	Abril	2023-11-04T00:00:00	2024-11-08T14:00:00	6	Velocidad del viento	4.8
100586	7	Sololá	701	Sololá	4	Finca Santa Victoria	4	Abril	2023-11-04T00:00:00	2024-11-08T14:00:00	7	Dirección del viento	4.83
100587	7	Sololá	701	Sololá	4	Finca Santa Victoria	4	Abril	2023-11-04T00:00:00	2024-11-08T14:00:00	1	Precipitación	0
100588	7	Sololá	701	Sololá	4	Finca Santa Victoria	4	Abril	2023-11-04T00:00:00	2024-11-08T14:00:00	8	Radiación solar	291
100589	7	Sololá	701	Sololá	4	Finca Santa Victoria	4	Abril	2023-11-04T00:00:00	2024-11-08T15:00:00	2	Temperatura media	19.8
100590	7	Sololá	701	Sololá	4	Finca Santa Victoria	4	Abril	2023-11-04T00:00:00	2024-11-08T15:00:00	4	Temperatura máxima	19.9
100591	7	Sololá	701	Sololá	4	Finca Santa Victoria	4	Abril	2023-11-04T00:00:00	2024-11-08T15:00:00	3	Temperatura mínima	19
100592	7	Sololá	701	Sololá	4	Finca Santa Victoria	4	Abril	2023-11-04T00:00:00	2024-11-08T15:00:00	5	Humedad	66
100593	7	Sololá	701	Sololá	4	Finca Santa Victoria	4	Abril	2023-11-04T00:00:00	2024-11-08T15:00:00	6	Velocidad del viento	4.8
100594	7	Sololá	701	Sololá	4	Finca Santa Victoria	4	Abril	2023-11-04T00:00:00	2024-11-08T15:00:00	7	Dirección del viento	4.83
100595	7	Sololá	701	Sololá	4	Finca Santa Victoria	4	Abril	2023-11-04T00:00:00	2024-11-08T15:00:00	1	Precipitación	0
100596	7	Sololá	701	Sololá	4	Finca Santa Victoria	4	Abril	2023-11-04T00:00:00	2024-11-08T15:00:00	8	Radiación solar	296
100597	7	Sololá	701	Sololá	4	Finca Santa Victoria	4	Abril	2023-11-04T00:00:00	2024-11-08T16:00:00	2	Temperatura media	19
100598	7	Sololá	701	Sololá	4	Finca Santa Victoria	4	Abril	2023-11-04T00:00:00	2024-11-08T16:00:00	4	Temperatura máxima	19.8
100599	7	Sololá	701	Sololá	4	Finca Santa Victoria	4	Abril	2023-11-04T00:00:00	2024-11-08T16:00:00	3	Temperatura mínima	18.1
100600	7	Sololá	701	Sololá	4	Finca Santa Victoria	4	Abril	2023-11-04T00:00:00	2024-11-08T16:00:00	5	Humedad	69
100601	7	Sololá	701	Sololá	4	Finca Santa Victoria	4	Abril	2023-11-04T00:00:00	2024-11-08T16:00:00	6	Velocidad del viento	4.8
100602	7	Sololá	701	Sololá	4	Finca Santa Victoria	4	Abril	2023-11-04T00:00:00	2024-11-08T16:00:00	7	Dirección del viento	4.83
100603	7	Sololá	701	Sololá	4	Finca Santa Victoria	4	Abril	2023-11-04T00:00:00	2024-11-08T16:00:00	1	Precipitación	0
100604	7	Sololá	701	Sololá	4	Finca Santa Victoria	4	Abril	2023-11-04T00:00:00	2024-11-08T16:00:00	8	Radiación solar	211
100605	7	Sololá	701	Sololá	4	Finca Santa Victoria	4	Abril	2023-11-04T00:00:00	2024-11-08T17:00:00	2	Temperatura media	17.8
100606	7	Sololá	701	Sololá	4	Finca Santa Victoria	4	Abril	2023-11-04T00:00:00	2024-11-08T17:00:00	4	Temperatura máxima	19.4
100607	7	Sololá	701	Sololá	4	Finca Santa Victoria	4	Abril	2023-11-04T00:00:00	2024-11-08T17:00:00	3	Temperatura mínima	17.8
100608	7	Sololá	701	Sololá	4	Finca Santa Victoria	4	Abril	2023-11-04T00:00:00	2024-11-08T17:00:00	5	Humedad	78
100609	7	Sololá	701	Sololá	4	Finca Santa Victoria	4	Abril	2023-11-04T00:00:00	2024-11-08T17:00:00	6	Velocidad del viento	4.8
100610	7	Sololá	701	Sololá	4	Finca Santa Victoria	4	Abril	2023-11-04T00:00:00	2024-11-08T17:00:00	7	Dirección del viento	4.83
100611	7	Sololá	701	Sololá	4	Finca Santa Victoria	4	Abril	2023-11-04T00:00:00	2024-11-08T17:00:00	1	Precipitación	0
100612	7	Sololá	701	Sololá	4	Finca Santa Victoria	4	Abril	2023-11-04T00:00:00	2024-11-08T17:00:00	8	Radiación solar	223
100613	7	Sololá	701	Sololá	4	Finca Santa Victoria	4	Abril	2023-11-04T00:00:00	2024-11-08T18:00:00	2	Temperatura media	15.9
100614	7	Sololá	701	Sololá	4	Finca Santa Victoria	4	Abril	2023-11-04T00:00:00	2024-11-08T18:00:00	4	Temperatura máxima	17.9
100615	7	Sololá	701	Sololá	4	Finca Santa Victoria	4	Abril	2023-11-04T00:00:00	2024-11-08T18:00:00	3	Temperatura mínima	15.9
100616	7	Sololá	701	Sololá	4	Finca Santa Victoria	4	Abril	2023-11-04T00:00:00	2024-11-08T18:00:00	5	Humedad	89
100617	7	Sololá	701	Sololá	4	Finca Santa Victoria	4	Abril	2023-11-04T00:00:00	2024-11-08T18:00:00	6	Velocidad del viento	1.6
100618	7	Sololá	701	Sololá	4	Finca Santa Victoria	4	Abril	2023-11-04T00:00:00	2024-11-08T18:00:00	7	Dirección del viento	1.61
100619	7	Sololá	701	Sololá	4	Finca Santa Victoria	4	Abril	2023-11-04T00:00:00	2024-11-08T18:00:00	1	Precipitación	0
100620	7	Sololá	701	Sololá	4	Finca Santa Victoria	4	Abril	2023-11-04T00:00:00	2024-11-08T18:00:00	8	Radiación solar	58
100621	7	Sololá	701	Sololá	4	Finca Santa Victoria	4	Abril	2023-11-04T00:00:00	2024-11-08T19:00:00	2	Temperatura media	14.9
100622	7	Sololá	701	Sololá	4	Finca Santa Victoria	4	Abril	2023-11-04T00:00:00	2024-11-08T19:00:00	4	Temperatura máxima	15.9
100623	7	Sololá	701	Sololá	4	Finca Santa Victoria	4	Abril	2023-11-04T00:00:00	2024-11-08T19:00:00	3	Temperatura mínima	14.9
100624	7	Sololá	701	Sololá	4	Finca Santa Victoria	4	Abril	2023-11-04T00:00:00	2024-11-08T19:00:00	5	Humedad	76
100625	7	Sololá	701	Sololá	4	Finca Santa Victoria	4	Abril	2023-11-04T00:00:00	2024-11-08T19:00:00	6	Velocidad del viento	1.6
100626	7	Sololá	701	Sololá	4	Finca Santa Victoria	4	Abril	2023-11-04T00:00:00	2024-11-08T19:00:00	7	Dirección del viento	1.61
100627	7	Sololá	701	Sololá	4	Finca Santa Victoria	4	Abril	2023-11-04T00:00:00	2024-11-08T19:00:00	1	Precipitación	0
100628	7	Sololá	701	Sololá	4	Finca Santa Victoria	4	Abril	2023-11-04T00:00:00	2024-11-08T19:00:00	8	Radiación solar	0
100629	7	Sololá	701	Sololá	4	Finca Santa Victoria	4	Abril	2023-11-04T00:00:00	2024-11-08T20:00:00	2	Temperatura media	14.2
100630	7	Sololá	701	Sololá	4	Finca Santa Victoria	4	Abril	2023-11-04T00:00:00	2024-11-08T20:00:00	4	Temperatura máxima	14.9
100631	7	Sololá	701	Sololá	4	Finca Santa Victoria	4	Abril	2023-11-04T00:00:00	2024-11-08T20:00:00	3	Temperatura mínima	14.2
100632	7	Sololá	701	Sololá	4	Finca Santa Victoria	4	Abril	2023-11-04T00:00:00	2024-11-08T20:00:00	5	Humedad	76
100633	7	Sololá	701	Sololá	4	Finca Santa Victoria	4	Abril	2023-11-04T00:00:00	2024-11-08T20:00:00	6	Velocidad del viento	3.2
100634	7	Sololá	701	Sololá	4	Finca Santa Victoria	4	Abril	2023-11-04T00:00:00	2024-11-08T20:00:00	7	Dirección del viento	3.22
100635	7	Sololá	701	Sololá	4	Finca Santa Victoria	4	Abril	2023-11-04T00:00:00	2024-11-08T20:00:00	1	Precipitación	0
100636	7	Sololá	701	Sololá	4	Finca Santa Victoria	4	Abril	2023-11-04T00:00:00	2024-11-08T20:00:00	8	Radiación solar	0
100637	7	Sololá	701	Sololá	4	Finca Santa Victoria	4	Abril	2023-11-04T00:00:00	2024-11-08T21:00:00	2	Temperatura media	13.2
100638	7	Sololá	701	Sololá	4	Finca Santa Victoria	4	Abril	2023-11-04T00:00:00	2024-11-08T21:00:00	4	Temperatura máxima	14.2
100639	7	Sololá	701	Sololá	4	Finca Santa Victoria	4	Abril	2023-11-04T00:00:00	2024-11-08T21:00:00	3	Temperatura mínima	13.2
100640	7	Sololá	701	Sololá	4	Finca Santa Victoria	4	Abril	2023-11-04T00:00:00	2024-11-08T21:00:00	5	Humedad	80
100641	7	Sololá	701	Sololá	4	Finca Santa Victoria	4	Abril	2023-11-04T00:00:00	2024-11-08T21:00:00	6	Velocidad del viento	3.2
100642	7	Sololá	701	Sololá	4	Finca Santa Victoria	4	Abril	2023-11-04T00:00:00	2024-11-08T21:00:00	7	Dirección del viento	3.22
100643	7	Sololá	701	Sololá	4	Finca Santa Victoria	4	Abril	2023-11-04T00:00:00	2024-11-08T21:00:00	1	Precipitación	0
100644	7	Sololá	701	Sololá	4	Finca Santa Victoria	4	Abril	2023-11-04T00:00:00	2024-11-08T21:00:00	8	Radiación solar	0
100645	7	Sololá	701	Sololá	4	Finca Santa Victoria	4	Abril	2023-11-04T00:00:00	2024-11-08T22:00:00	2	Temperatura media	12.7
100646	7	Sololá	701	Sololá	4	Finca Santa Victoria	4	Abril	2023-11-04T00:00:00	2024-11-08T22:00:00	4	Temperatura máxima	13.3
100647	7	Sololá	701	Sololá	4	Finca Santa Victoria	4	Abril	2023-11-04T00:00:00	2024-11-08T22:00:00	3	Temperatura mínima	12.7
100648	7	Sololá	701	Sololá	4	Finca Santa Victoria	4	Abril	2023-11-04T00:00:00	2024-11-08T22:00:00	5	Humedad	82
100649	7	Sololá	701	Sololá	4	Finca Santa Victoria	4	Abril	2023-11-04T00:00:00	2024-11-08T22:00:00	6	Velocidad del viento	1.6
100650	7	Sololá	701	Sololá	4	Finca Santa Victoria	4	Abril	2023-11-04T00:00:00	2024-11-08T22:00:00	7	Dirección del viento	1.61
100651	7	Sololá	701	Sololá	4	Finca Santa Victoria	4	Abril	2023-11-04T00:00:00	2024-11-08T22:00:00	1	Precipitación	0
100652	7	Sololá	701	Sololá	4	Finca Santa Victoria	4	Abril	2023-11-04T00:00:00	2024-11-08T22:00:00	8	Radiación solar	0
100653	7	Sololá	701	Sololá	4	Finca Santa Victoria	4	Abril	2023-11-04T00:00:00	2024-11-08T23:00:00	2	Temperatura media	11.8
100654	7	Sololá	701	Sololá	4	Finca Santa Victoria	4	Abril	2023-11-04T00:00:00	2024-11-08T23:00:00	4	Temperatura máxima	12.8
100655	7	Sololá	701	Sololá	4	Finca Santa Victoria	4	Abril	2023-11-04T00:00:00	2024-11-08T23:00:00	3	Temperatura mínima	11.8
100656	7	Sololá	701	Sololá	4	Finca Santa Victoria	4	Abril	2023-11-04T00:00:00	2024-11-08T23:00:00	5	Humedad	82
100657	7	Sololá	701	Sololá	4	Finca Santa Victoria	4	Abril	2023-11-04T00:00:00	2024-11-08T23:00:00	6	Velocidad del viento	1.6
100658	7	Sololá	701	Sololá	4	Finca Santa Victoria	4	Abril	2023-11-04T00:00:00	2024-11-08T23:00:00	7	Dirección del viento	1.61
100659	7	Sololá	701	Sololá	4	Finca Santa Victoria	4	Abril	2023-11-04T00:00:00	2024-11-08T23:00:00	1	Precipitación	0
100660	7	Sololá	701	Sololá	4	Finca Santa Victoria	4	Abril	2023-11-04T00:00:00	2024-11-08T23:00:00	8	Radiación solar	0
100661	7	Sololá	701	Sololá	4	Finca Santa Victoria	4	Abril	2023-12-04T00:00:00	2024-11-08T00:00:00	2	Temperatura media	11.7
100662	7	Sololá	701	Sololá	4	Finca Santa Victoria	4	Abril	2023-12-04T00:00:00	2024-11-08T00:00:00	4	Temperatura máxima	11.9
100663	7	Sololá	701	Sololá	4	Finca Santa Victoria	4	Abril	2023-12-04T00:00:00	2024-11-08T00:00:00	3	Temperatura mínima	11.6
100664	7	Sololá	701	Sololá	4	Finca Santa Victoria	4	Abril	2023-12-04T00:00:00	2024-11-08T00:00:00	5	Humedad	74
100665	7	Sololá	701	Sololá	4	Finca Santa Victoria	4	Abril	2023-12-04T00:00:00	2024-11-08T00:00:00	6	Velocidad del viento	1.6
100666	7	Sololá	701	Sololá	4	Finca Santa Victoria	4	Abril	2023-12-04T00:00:00	2024-11-08T00:00:00	7	Dirección del viento	1.61
100667	7	Sololá	701	Sololá	4	Finca Santa Victoria	4	Abril	2023-12-04T00:00:00	2024-11-08T00:00:00	1	Precipitación	0
100668	7	Sololá	701	Sololá	4	Finca Santa Victoria	4	Abril	2023-12-04T00:00:00	2024-11-08T00:00:00	8	Radiación solar	0
100669	7	Sololá	701	Sololá	4	Finca Santa Victoria	4	Abril	2023-12-04T00:00:00	2024-11-08T01:00:00	2	Temperatura media	11.5
100670	7	Sololá	701	Sololá	4	Finca Santa Victoria	4	Abril	2023-12-04T00:00:00	2024-11-08T01:00:00	4	Temperatura máxima	12.3
100671	7	Sololá	701	Sololá	4	Finca Santa Victoria	4	Abril	2023-12-04T00:00:00	2024-11-08T01:00:00	3	Temperatura mínima	11.4
100672	7	Sololá	701	Sololá	4	Finca Santa Victoria	4	Abril	2023-12-04T00:00:00	2024-11-08T01:00:00	5	Humedad	81
100673	7	Sololá	701	Sololá	4	Finca Santa Victoria	4	Abril	2023-12-04T00:00:00	2024-11-08T01:00:00	6	Velocidad del viento	3.2
100674	7	Sololá	701	Sololá	4	Finca Santa Victoria	4	Abril	2023-12-04T00:00:00	2024-11-08T01:00:00	7	Dirección del viento	3.22
100675	7	Sololá	701	Sololá	4	Finca Santa Victoria	4	Abril	2023-12-04T00:00:00	2024-11-08T01:00:00	1	Precipitación	0
100676	7	Sololá	701	Sololá	4	Finca Santa Victoria	4	Abril	2023-12-04T00:00:00	2024-11-08T01:00:00	8	Radiación solar	0
100677	7	Sololá	701	Sololá	4	Finca Santa Victoria	4	Abril	2023-12-04T00:00:00	2024-11-08T02:00:00	2	Temperatura media	11.2
100678	7	Sololá	701	Sololá	4	Finca Santa Victoria	4	Abril	2023-12-04T00:00:00	2024-11-08T02:00:00	4	Temperatura máxima	11.6
100679	7	Sololá	701	Sololá	4	Finca Santa Victoria	4	Abril	2023-12-04T00:00:00	2024-11-08T02:00:00	3	Temperatura mínima	11.2
100680	7	Sololá	701	Sololá	4	Finca Santa Victoria	4	Abril	2023-12-04T00:00:00	2024-11-08T02:00:00	5	Humedad	81
100681	7	Sololá	701	Sololá	4	Finca Santa Victoria	4	Abril	2023-12-04T00:00:00	2024-11-08T02:00:00	6	Velocidad del viento	1.6
100682	7	Sololá	701	Sololá	4	Finca Santa Victoria	4	Abril	2023-12-04T00:00:00	2024-11-08T02:00:00	7	Dirección del viento	1.61
100683	7	Sololá	701	Sololá	4	Finca Santa Victoria	4	Abril	2023-12-04T00:00:00	2024-11-08T02:00:00	1	Precipitación	0
100684	7	Sololá	701	Sololá	4	Finca Santa Victoria	4	Abril	2023-12-04T00:00:00	2024-11-08T02:00:00	8	Radiación solar	0
100685	7	Sololá	701	Sololá	4	Finca Santa Victoria	4	Abril	2023-12-04T00:00:00	2024-11-08T03:00:00	2	Temperatura media	10.9
100686	7	Sololá	701	Sololá	4	Finca Santa Victoria	4	Abril	2023-12-04T00:00:00	2024-11-08T03:00:00	4	Temperatura máxima	11.2
100687	7	Sololá	701	Sololá	4	Finca Santa Victoria	4	Abril	2023-12-04T00:00:00	2024-11-08T03:00:00	3	Temperatura mínima	10.9
100688	7	Sololá	701	Sololá	4	Finca Santa Victoria	4	Abril	2023-12-04T00:00:00	2024-11-08T03:00:00	5	Humedad	81
100689	7	Sololá	701	Sololá	4	Finca Santa Victoria	4	Abril	2023-12-04T00:00:00	2024-11-08T03:00:00	6	Velocidad del viento	1.6
100690	7	Sololá	701	Sololá	4	Finca Santa Victoria	4	Abril	2023-12-04T00:00:00	2024-11-08T03:00:00	7	Dirección del viento	1.61
100691	7	Sololá	701	Sololá	4	Finca Santa Victoria	4	Abril	2023-12-04T00:00:00	2024-11-08T03:00:00	1	Precipitación	0
100692	7	Sololá	701	Sololá	4	Finca Santa Victoria	4	Abril	2023-12-04T00:00:00	2024-11-08T03:00:00	8	Radiación solar	0
100693	7	Sololá	701	Sololá	4	Finca Santa Victoria	4	Abril	2023-12-04T00:00:00	2024-11-08T04:00:00	2	Temperatura media	10.2
100694	7	Sololá	701	Sololá	4	Finca Santa Victoria	4	Abril	2023-12-04T00:00:00	2024-11-08T04:00:00	4	Temperatura máxima	10.9
100695	7	Sololá	701	Sololá	4	Finca Santa Victoria	4	Abril	2023-12-04T00:00:00	2024-11-08T04:00:00	3	Temperatura mínima	10.2
100696	7	Sololá	701	Sololá	4	Finca Santa Victoria	4	Abril	2023-12-04T00:00:00	2024-11-08T04:00:00	5	Humedad	84
100697	7	Sololá	701	Sololá	4	Finca Santa Victoria	4	Abril	2023-12-04T00:00:00	2024-11-08T04:00:00	6	Velocidad del viento	1.6
100698	7	Sololá	701	Sololá	4	Finca Santa Victoria	4	Abril	2023-12-04T00:00:00	2024-11-08T04:00:00	7	Dirección del viento	1.61
100699	7	Sololá	701	Sololá	4	Finca Santa Victoria	4	Abril	2023-12-04T00:00:00	2024-11-08T04:00:00	1	Precipitación	0
100700	7	Sololá	701	Sololá	4	Finca Santa Victoria	4	Abril	2023-12-04T00:00:00	2024-11-08T04:00:00	8	Radiación solar	0
100701	7	Sololá	701	Sololá	4	Finca Santa Victoria	4	Abril	2023-12-04T00:00:00	2024-11-08T05:00:00	2	Temperatura media	10.1
100702	7	Sololá	701	Sololá	4	Finca Santa Victoria	4	Abril	2023-12-04T00:00:00	2024-11-08T05:00:00	4	Temperatura máxima	10.2
100703	7	Sololá	701	Sololá	4	Finca Santa Victoria	4	Abril	2023-12-04T00:00:00	2024-11-08T05:00:00	3	Temperatura mínima	9.8
100704	7	Sololá	701	Sololá	4	Finca Santa Victoria	4	Abril	2023-12-04T00:00:00	2024-11-08T05:00:00	5	Humedad	86
100705	7	Sololá	701	Sololá	4	Finca Santa Victoria	4	Abril	2023-12-04T00:00:00	2024-11-08T05:00:00	6	Velocidad del viento	1.6
100706	7	Sololá	701	Sololá	4	Finca Santa Victoria	4	Abril	2023-12-04T00:00:00	2024-11-08T05:00:00	7	Dirección del viento	1.61
100707	7	Sololá	701	Sololá	4	Finca Santa Victoria	4	Abril	2023-12-04T00:00:00	2024-11-08T05:00:00	1	Precipitación	0
100708	7	Sololá	701	Sololá	4	Finca Santa Victoria	4	Abril	2023-12-04T00:00:00	2024-11-08T05:00:00	8	Radiación solar	0
100709	7	Sololá	701	Sololá	4	Finca Santa Victoria	4	Abril	2023-12-04T00:00:00	2024-11-08T06:00:00	2	Temperatura media	10.2
100710	7	Sololá	701	Sololá	4	Finca Santa Victoria	4	Abril	2023-12-04T00:00:00	2024-11-08T06:00:00	4	Temperatura máxima	10.4
100711	7	Sololá	701	Sololá	4	Finca Santa Victoria	4	Abril	2023-12-04T00:00:00	2024-11-08T06:00:00	3	Temperatura mínima	10.1
100712	7	Sololá	701	Sololá	4	Finca Santa Victoria	4	Abril	2023-12-04T00:00:00	2024-11-08T06:00:00	5	Humedad	85
100713	7	Sololá	701	Sololá	4	Finca Santa Victoria	4	Abril	2023-12-04T00:00:00	2024-11-08T06:00:00	6	Velocidad del viento	1.6
100714	7	Sololá	701	Sololá	4	Finca Santa Victoria	4	Abril	2023-12-04T00:00:00	2024-11-08T06:00:00	7	Dirección del viento	1.61
100715	7	Sololá	701	Sololá	4	Finca Santa Victoria	4	Abril	2023-12-04T00:00:00	2024-11-08T06:00:00	1	Precipitación	0
100716	7	Sololá	701	Sololá	4	Finca Santa Victoria	4	Abril	2023-12-04T00:00:00	2024-11-08T06:00:00	8	Radiación solar	0
100717	7	Sololá	701	Sololá	4	Finca Santa Victoria	4	Abril	2023-12-04T00:00:00	2024-11-08T07:00:00	2	Temperatura media	10.8
100718	7	Sololá	701	Sololá	4	Finca Santa Victoria	4	Abril	2023-12-04T00:00:00	2024-11-08T07:00:00	4	Temperatura máxima	10.8
100719	7	Sololá	701	Sololá	4	Finca Santa Victoria	4	Abril	2023-12-04T00:00:00	2024-11-08T07:00:00	3	Temperatura mínima	10.1
100720	7	Sololá	701	Sololá	4	Finca Santa Victoria	4	Abril	2023-12-04T00:00:00	2024-11-08T07:00:00	5	Humedad	83
100721	7	Sololá	701	Sololá	4	Finca Santa Victoria	4	Abril	2023-12-04T00:00:00	2024-11-08T07:00:00	6	Velocidad del viento	1.6
100722	7	Sololá	701	Sololá	4	Finca Santa Victoria	4	Abril	2023-12-04T00:00:00	2024-11-08T07:00:00	7	Dirección del viento	1.61
100723	7	Sololá	701	Sololá	4	Finca Santa Victoria	4	Abril	2023-12-04T00:00:00	2024-11-08T07:00:00	1	Precipitación	0
100724	7	Sololá	701	Sololá	4	Finca Santa Victoria	4	Abril	2023-12-04T00:00:00	2024-11-08T07:00:00	8	Radiación solar	30
100725	7	Sololá	701	Sololá	4	Finca Santa Victoria	4	Abril	2023-12-04T00:00:00	2024-11-08T08:00:00	2	Temperatura media	13.3
100726	7	Sololá	701	Sololá	4	Finca Santa Victoria	4	Abril	2023-12-04T00:00:00	2024-11-08T08:00:00	4	Temperatura máxima	13.3
100727	7	Sololá	701	Sololá	4	Finca Santa Victoria	4	Abril	2023-12-04T00:00:00	2024-11-08T08:00:00	3	Temperatura mínima	10.8
100728	7	Sololá	701	Sololá	4	Finca Santa Victoria	4	Abril	2023-12-04T00:00:00	2024-11-08T08:00:00	5	Humedad	78
100729	7	Sololá	701	Sololá	4	Finca Santa Victoria	4	Abril	2023-12-04T00:00:00	2024-11-08T08:00:00	6	Velocidad del viento	1.6
100730	7	Sololá	701	Sololá	4	Finca Santa Victoria	4	Abril	2023-12-04T00:00:00	2024-11-08T08:00:00	7	Dirección del viento	1.61
100731	7	Sololá	701	Sololá	4	Finca Santa Victoria	4	Abril	2023-12-04T00:00:00	2024-11-08T08:00:00	1	Precipitación	0
100732	7	Sololá	701	Sololá	4	Finca Santa Victoria	4	Abril	2023-12-04T00:00:00	2024-11-08T08:00:00	8	Radiación solar	126
100733	7	Sololá	701	Sololá	4	Finca Santa Victoria	4	Abril	2023-12-04T00:00:00	2024-11-08T09:00:00	2	Temperatura media	15.4
100734	7	Sololá	701	Sololá	4	Finca Santa Victoria	4	Abril	2023-12-04T00:00:00	2024-11-08T09:00:00	4	Temperatura máxima	15.4
100735	7	Sololá	701	Sololá	4	Finca Santa Victoria	4	Abril	2023-12-04T00:00:00	2024-11-08T09:00:00	3	Temperatura mínima	13.3
100736	7	Sololá	701	Sololá	4	Finca Santa Victoria	4	Abril	2023-12-04T00:00:00	2024-11-08T09:00:00	5	Humedad	63
100737	7	Sololá	701	Sololá	4	Finca Santa Victoria	4	Abril	2023-12-04T00:00:00	2024-11-08T09:00:00	6	Velocidad del viento	1.6
100738	7	Sololá	701	Sololá	4	Finca Santa Victoria	4	Abril	2023-12-04T00:00:00	2024-11-08T09:00:00	7	Dirección del viento	1.61
100739	7	Sololá	701	Sololá	4	Finca Santa Victoria	4	Abril	2023-12-04T00:00:00	2024-11-08T09:00:00	1	Precipitación	0
100740	7	Sololá	701	Sololá	4	Finca Santa Victoria	4	Abril	2023-12-04T00:00:00	2024-11-08T09:00:00	8	Radiación solar	218
100741	7	Sololá	701	Sololá	4	Finca Santa Victoria	4	Abril	2023-12-04T00:00:00	2024-11-08T10:00:00	2	Temperatura media	17
100742	7	Sololá	701	Sololá	4	Finca Santa Victoria	4	Abril	2023-12-04T00:00:00	2024-11-08T10:00:00	4	Temperatura máxima	17
100743	7	Sololá	701	Sololá	4	Finca Santa Victoria	4	Abril	2023-12-04T00:00:00	2024-11-08T10:00:00	3	Temperatura mínima	15.4
100744	7	Sololá	701	Sololá	4	Finca Santa Victoria	4	Abril	2023-12-04T00:00:00	2024-11-08T10:00:00	5	Humedad	63
100745	7	Sololá	701	Sololá	4	Finca Santa Victoria	4	Abril	2023-12-04T00:00:00	2024-11-08T10:00:00	6	Velocidad del viento	3.2
100746	7	Sololá	701	Sololá	4	Finca Santa Victoria	4	Abril	2023-12-04T00:00:00	2024-11-08T10:00:00	7	Dirección del viento	3.22
100747	7	Sololá	701	Sololá	4	Finca Santa Victoria	4	Abril	2023-12-04T00:00:00	2024-11-08T10:00:00	1	Precipitación	0
100748	7	Sololá	701	Sololá	4	Finca Santa Victoria	4	Abril	2023-12-04T00:00:00	2024-11-08T10:00:00	8	Radiación solar	290
100749	7	Sololá	701	Sololá	4	Finca Santa Victoria	4	Abril	2023-12-04T00:00:00	2024-11-08T11:00:00	2	Temperatura media	16.1
100750	7	Sololá	701	Sololá	4	Finca Santa Victoria	4	Abril	2023-12-04T00:00:00	2024-11-08T11:00:00	4	Temperatura máxima	17.7
100751	7	Sololá	701	Sololá	4	Finca Santa Victoria	4	Abril	2023-12-04T00:00:00	2024-11-08T11:00:00	3	Temperatura mínima	15.9
100752	7	Sololá	701	Sololá	4	Finca Santa Victoria	4	Abril	2023-12-04T00:00:00	2024-11-08T11:00:00	5	Humedad	64
100753	7	Sololá	701	Sololá	4	Finca Santa Victoria	4	Abril	2023-12-04T00:00:00	2024-11-08T11:00:00	6	Velocidad del viento	1.6
100754	7	Sololá	701	Sololá	4	Finca Santa Victoria	4	Abril	2023-12-04T00:00:00	2024-11-08T11:00:00	7	Dirección del viento	1.61
100755	7	Sololá	701	Sololá	4	Finca Santa Victoria	4	Abril	2023-12-04T00:00:00	2024-11-08T11:00:00	1	Precipitación	0
100756	7	Sololá	701	Sololá	4	Finca Santa Victoria	4	Abril	2023-12-04T00:00:00	2024-11-08T11:00:00	8	Radiación solar	194
100757	7	Sololá	701	Sololá	4	Finca Santa Victoria	4	Abril	2023-12-04T00:00:00	2024-11-08T12:00:00	2	Temperatura media	18.4
100758	7	Sololá	701	Sololá	4	Finca Santa Victoria	4	Abril	2023-12-04T00:00:00	2024-11-08T12:00:00	4	Temperatura máxima	18.4
100759	7	Sololá	701	Sololá	4	Finca Santa Victoria	4	Abril	2023-12-04T00:00:00	2024-11-08T12:00:00	3	Temperatura mínima	16.1
100760	7	Sololá	701	Sololá	4	Finca Santa Victoria	4	Abril	2023-12-04T00:00:00	2024-11-08T12:00:00	5	Humedad	60
100761	7	Sololá	701	Sololá	4	Finca Santa Victoria	4	Abril	2023-12-04T00:00:00	2024-11-08T12:00:00	6	Velocidad del viento	3.2
100762	7	Sololá	701	Sololá	4	Finca Santa Victoria	4	Abril	2023-12-04T00:00:00	2024-11-08T12:00:00	7	Dirección del viento	3.22
100763	7	Sololá	701	Sololá	4	Finca Santa Victoria	4	Abril	2023-12-04T00:00:00	2024-11-08T12:00:00	1	Precipitación	0
100764	7	Sololá	701	Sololá	4	Finca Santa Victoria	4	Abril	2023-12-04T00:00:00	2024-11-08T12:00:00	8	Radiación solar	391
100765	7	Sololá	701	Sololá	4	Finca Santa Victoria	4	Abril	2023-12-04T00:00:00	2024-11-08T13:00:00	2	Temperatura media	18.2
100766	7	Sololá	701	Sololá	4	Finca Santa Victoria	4	Abril	2023-12-04T00:00:00	2024-11-08T13:00:00	4	Temperatura máxima	19.7
100767	7	Sololá	701	Sololá	4	Finca Santa Victoria	4	Abril	2023-12-04T00:00:00	2024-11-08T13:00:00	3	Temperatura mínima	18.2
100768	7	Sololá	701	Sololá	4	Finca Santa Victoria	4	Abril	2023-12-04T00:00:00	2024-11-08T13:00:00	5	Humedad	64
100769	7	Sololá	701	Sololá	4	Finca Santa Victoria	4	Abril	2023-12-04T00:00:00	2024-11-08T13:00:00	6	Velocidad del viento	4.8
100770	7	Sololá	701	Sololá	4	Finca Santa Victoria	4	Abril	2023-12-04T00:00:00	2024-11-08T13:00:00	7	Dirección del viento	4.83
100771	7	Sololá	701	Sololá	4	Finca Santa Victoria	4	Abril	2023-12-04T00:00:00	2024-11-08T13:00:00	1	Precipitación	0
100772	7	Sololá	701	Sololá	4	Finca Santa Victoria	4	Abril	2023-12-04T00:00:00	2024-11-08T13:00:00	8	Radiación solar	859
100773	7	Sololá	701	Sololá	4	Finca Santa Victoria	4	Abril	2023-12-04T00:00:00	2024-11-08T14:00:00	2	Temperatura media	16.8
100774	7	Sololá	701	Sololá	4	Finca Santa Victoria	4	Abril	2023-12-04T00:00:00	2024-11-08T14:00:00	4	Temperatura máxima	18.2
100775	7	Sololá	701	Sololá	4	Finca Santa Victoria	4	Abril	2023-12-04T00:00:00	2024-11-08T14:00:00	3	Temperatura mínima	16.6
100776	7	Sololá	701	Sololá	4	Finca Santa Victoria	4	Abril	2023-12-04T00:00:00	2024-11-08T14:00:00	5	Humedad	79
100777	7	Sololá	701	Sololá	4	Finca Santa Victoria	4	Abril	2023-12-04T00:00:00	2024-11-08T14:00:00	6	Velocidad del viento	4.8
100778	7	Sololá	701	Sololá	4	Finca Santa Victoria	4	Abril	2023-12-04T00:00:00	2024-11-08T14:00:00	7	Dirección del viento	4.83
100779	7	Sololá	701	Sololá	4	Finca Santa Victoria	4	Abril	2023-12-04T00:00:00	2024-11-08T14:00:00	1	Precipitación	0
100780	7	Sololá	701	Sololá	4	Finca Santa Victoria	4	Abril	2023-12-04T00:00:00	2024-11-08T14:00:00	8	Radiación solar	291
100781	7	Sololá	701	Sololá	4	Finca Santa Victoria	4	Abril	2023-12-04T00:00:00	2024-11-08T15:00:00	2	Temperatura media	16.7
100782	7	Sololá	701	Sololá	4	Finca Santa Victoria	4	Abril	2023-12-04T00:00:00	2024-11-08T15:00:00	4	Temperatura máxima	17.9
100783	7	Sololá	701	Sololá	4	Finca Santa Victoria	4	Abril	2023-12-04T00:00:00	2024-11-08T15:00:00	3	Temperatura mínima	16.7
100784	7	Sololá	701	Sololá	4	Finca Santa Victoria	4	Abril	2023-12-04T00:00:00	2024-11-08T15:00:00	5	Humedad	77
100785	7	Sololá	701	Sololá	4	Finca Santa Victoria	4	Abril	2023-12-04T00:00:00	2024-11-08T15:00:00	6	Velocidad del viento	4.8
100786	7	Sololá	701	Sololá	4	Finca Santa Victoria	4	Abril	2023-12-04T00:00:00	2024-11-08T15:00:00	7	Dirección del viento	4.83
100787	7	Sololá	701	Sololá	4	Finca Santa Victoria	4	Abril	2023-12-04T00:00:00	2024-11-08T15:00:00	1	Precipitación	0
100788	7	Sololá	701	Sololá	4	Finca Santa Victoria	4	Abril	2023-12-04T00:00:00	2024-11-08T15:00:00	8	Radiación solar	258
100789	7	Sololá	701	Sololá	4	Finca Santa Victoria	4	Abril	2023-12-04T00:00:00	2024-11-08T16:00:00	2	Temperatura media	15.5
100790	7	Sololá	701	Sololá	4	Finca Santa Victoria	4	Abril	2023-12-04T00:00:00	2024-11-08T16:00:00	4	Temperatura máxima	17.3
100791	7	Sololá	701	Sololá	4	Finca Santa Victoria	4	Abril	2023-12-04T00:00:00	2024-11-08T16:00:00	3	Temperatura mínima	15.5
100792	7	Sololá	701	Sololá	4	Finca Santa Victoria	4	Abril	2023-12-04T00:00:00	2024-11-08T16:00:00	5	Humedad	84
100793	7	Sololá	701	Sololá	4	Finca Santa Victoria	4	Abril	2023-12-04T00:00:00	2024-11-08T16:00:00	6	Velocidad del viento	3.2
100794	7	Sololá	701	Sololá	4	Finca Santa Victoria	4	Abril	2023-12-04T00:00:00	2024-11-08T16:00:00	7	Dirección del viento	3.22
100795	7	Sololá	701	Sololá	4	Finca Santa Victoria	4	Abril	2023-12-04T00:00:00	2024-11-08T16:00:00	1	Precipitación	0
100796	7	Sololá	701	Sololá	4	Finca Santa Victoria	4	Abril	2023-12-04T00:00:00	2024-11-08T16:00:00	8	Radiación solar	117
100797	7	Sololá	701	Sololá	4	Finca Santa Victoria	4	Abril	2023-12-04T00:00:00	2024-11-08T17:00:00	2	Temperatura media	17.4
100798	7	Sololá	701	Sololá	4	Finca Santa Victoria	4	Abril	2023-12-04T00:00:00	2024-11-08T17:00:00	4	Temperatura máxima	17.4
100799	7	Sololá	701	Sololá	4	Finca Santa Victoria	4	Abril	2023-12-04T00:00:00	2024-11-08T17:00:00	3	Temperatura mínima	15.4
100800	7	Sololá	701	Sololá	4	Finca Santa Victoria	4	Abril	2023-12-04T00:00:00	2024-11-08T17:00:00	5	Humedad	77
100801	7	Sololá	701	Sololá	4	Finca Santa Victoria	4	Abril	2023-12-04T00:00:00	2024-11-08T17:00:00	6	Velocidad del viento	1.6
100802	7	Sololá	701	Sololá	4	Finca Santa Victoria	4	Abril	2023-12-04T00:00:00	2024-11-08T17:00:00	7	Dirección del viento	1.61
100803	7	Sololá	701	Sololá	4	Finca Santa Victoria	4	Abril	2023-12-04T00:00:00	2024-11-08T17:00:00	1	Precipitación	0
100804	7	Sololá	701	Sololá	4	Finca Santa Victoria	4	Abril	2023-12-04T00:00:00	2024-11-08T17:00:00	8	Radiación solar	131
100805	7	Sololá	701	Sololá	4	Finca Santa Victoria	4	Abril	2023-12-04T00:00:00	2024-11-08T18:00:00	2	Temperatura media	15.3
100806	7	Sololá	701	Sololá	4	Finca Santa Victoria	4	Abril	2023-12-04T00:00:00	2024-11-08T18:00:00	4	Temperatura máxima	17.6
100807	7	Sololá	701	Sololá	4	Finca Santa Victoria	4	Abril	2023-12-04T00:00:00	2024-11-08T18:00:00	3	Temperatura mínima	15.3
100808	7	Sololá	701	Sololá	4	Finca Santa Victoria	4	Abril	2023-12-04T00:00:00	2024-11-08T18:00:00	5	Humedad	86
100809	7	Sololá	701	Sololá	4	Finca Santa Victoria	4	Abril	2023-12-04T00:00:00	2024-11-08T18:00:00	6	Velocidad del viento	1.6
100810	7	Sololá	701	Sololá	4	Finca Santa Victoria	4	Abril	2023-12-04T00:00:00	2024-11-08T18:00:00	7	Dirección del viento	1.61
100811	7	Sololá	701	Sololá	4	Finca Santa Victoria	4	Abril	2023-12-04T00:00:00	2024-11-08T18:00:00	1	Precipitación	0
100812	7	Sololá	701	Sololá	4	Finca Santa Victoria	4	Abril	2023-12-04T00:00:00	2024-11-08T18:00:00	8	Radiación solar	43
100813	7	Sololá	701	Sololá	4	Finca Santa Victoria	4	Abril	2023-12-04T00:00:00	2024-11-08T19:00:00	2	Temperatura media	13.9
100814	7	Sololá	701	Sololá	4	Finca Santa Victoria	4	Abril	2023-12-04T00:00:00	2024-11-08T19:00:00	4	Temperatura máxima	15.3
100815	7	Sololá	701	Sololá	4	Finca Santa Victoria	4	Abril	2023-12-04T00:00:00	2024-11-08T19:00:00	3	Temperatura mínima	13.9
100816	7	Sololá	701	Sololá	4	Finca Santa Victoria	4	Abril	2023-12-04T00:00:00	2024-11-08T19:00:00	5	Humedad	87
100817	7	Sololá	701	Sololá	4	Finca Santa Victoria	4	Abril	2023-12-04T00:00:00	2024-11-08T19:00:00	6	Velocidad del viento	0
100818	7	Sololá	701	Sololá	4	Finca Santa Victoria	4	Abril	2023-12-04T00:00:00	2024-11-08T19:00:00	7	Dirección del viento	0
100819	7	Sololá	701	Sololá	4	Finca Santa Victoria	4	Abril	2023-12-04T00:00:00	2024-11-08T19:00:00	1	Precipitación	0
100820	7	Sololá	701	Sololá	4	Finca Santa Victoria	4	Abril	2023-12-04T00:00:00	2024-11-08T19:00:00	8	Radiación solar	0
100821	7	Sololá	701	Sololá	4	Finca Santa Victoria	4	Abril	2023-12-04T00:00:00	2024-11-08T20:00:00	2	Temperatura media	14.7
100822	7	Sololá	701	Sololá	4	Finca Santa Victoria	4	Abril	2023-12-04T00:00:00	2024-11-08T20:00:00	4	Temperatura máxima	14.7
100823	7	Sololá	701	Sololá	4	Finca Santa Victoria	4	Abril	2023-12-04T00:00:00	2024-11-08T20:00:00	3	Temperatura mínima	13.9
100824	7	Sololá	701	Sololá	4	Finca Santa Victoria	4	Abril	2023-12-04T00:00:00	2024-11-08T20:00:00	5	Humedad	82
100825	7	Sololá	701	Sololá	4	Finca Santa Victoria	4	Abril	2023-12-04T00:00:00	2024-11-08T20:00:00	6	Velocidad del viento	0
100826	7	Sololá	701	Sololá	4	Finca Santa Victoria	4	Abril	2023-12-04T00:00:00	2024-11-08T20:00:00	7	Dirección del viento	0
100827	7	Sololá	701	Sololá	4	Finca Santa Victoria	4	Abril	2023-12-04T00:00:00	2024-11-08T20:00:00	1	Precipitación	0
100828	7	Sololá	701	Sololá	4	Finca Santa Victoria	4	Abril	2023-12-04T00:00:00	2024-11-08T20:00:00	8	Radiación solar	0
100829	7	Sololá	701	Sololá	4	Finca Santa Victoria	4	Abril	2023-12-04T00:00:00	2024-11-08T21:00:00	2	Temperatura media	14.4
100830	7	Sololá	701	Sololá	4	Finca Santa Victoria	4	Abril	2023-12-04T00:00:00	2024-11-08T21:00:00	4	Temperatura máxima	14.8
100831	7	Sololá	701	Sololá	4	Finca Santa Victoria	4	Abril	2023-12-04T00:00:00	2024-11-08T21:00:00	3	Temperatura mínima	14.4
100832	7	Sololá	701	Sololá	4	Finca Santa Victoria	4	Abril	2023-12-04T00:00:00	2024-11-08T21:00:00	5	Humedad	83
100833	7	Sololá	701	Sololá	4	Finca Santa Victoria	4	Abril	2023-12-04T00:00:00	2024-11-08T21:00:00	6	Velocidad del viento	1.6
100834	7	Sololá	701	Sololá	4	Finca Santa Victoria	4	Abril	2023-12-04T00:00:00	2024-11-08T21:00:00	7	Dirección del viento	1.61
100835	7	Sololá	701	Sololá	4	Finca Santa Victoria	4	Abril	2023-12-04T00:00:00	2024-11-08T21:00:00	1	Precipitación	0
100836	7	Sololá	701	Sololá	4	Finca Santa Victoria	4	Abril	2023-12-04T00:00:00	2024-11-08T21:00:00	8	Radiación solar	0
100837	7	Sololá	701	Sololá	4	Finca Santa Victoria	4	Abril	2023-12-04T00:00:00	2024-11-08T22:00:00	2	Temperatura media	13.7
100838	7	Sololá	701	Sololá	4	Finca Santa Victoria	4	Abril	2023-12-04T00:00:00	2024-11-08T22:00:00	4	Temperatura máxima	14.5
100839	7	Sololá	701	Sololá	4	Finca Santa Victoria	4	Abril	2023-12-04T00:00:00	2024-11-08T22:00:00	3	Temperatura mínima	13.7
100840	7	Sololá	701	Sololá	4	Finca Santa Victoria	4	Abril	2023-12-04T00:00:00	2024-11-08T22:00:00	5	Humedad	85
100841	7	Sololá	701	Sololá	4	Finca Santa Victoria	4	Abril	2023-12-04T00:00:00	2024-11-08T22:00:00	6	Velocidad del viento	0
100842	7	Sololá	701	Sololá	4	Finca Santa Victoria	4	Abril	2023-12-04T00:00:00	2024-11-08T22:00:00	7	Dirección del viento	0
100843	7	Sololá	701	Sololá	4	Finca Santa Victoria	4	Abril	2023-12-04T00:00:00	2024-11-08T22:00:00	1	Precipitación	0
100844	7	Sololá	701	Sololá	4	Finca Santa Victoria	4	Abril	2023-12-04T00:00:00	2024-11-08T22:00:00	8	Radiación solar	0
100845	7	Sololá	701	Sololá	4	Finca Santa Victoria	4	Abril	2023-12-04T00:00:00	2024-11-08T23:00:00	2	Temperatura media	12.7
100846	7	Sololá	701	Sololá	4	Finca Santa Victoria	4	Abril	2023-12-04T00:00:00	2024-11-08T23:00:00	4	Temperatura máxima	13.7
100847	7	Sololá	701	Sololá	4	Finca Santa Victoria	4	Abril	2023-12-04T00:00:00	2024-11-08T23:00:00	3	Temperatura mínima	12.7
100848	7	Sololá	701	Sololá	4	Finca Santa Victoria	4	Abril	2023-12-04T00:00:00	2024-11-08T23:00:00	5	Humedad	88
100849	7	Sololá	701	Sololá	4	Finca Santa Victoria	4	Abril	2023-12-04T00:00:00	2024-11-08T23:00:00	6	Velocidad del viento	0
100850	7	Sololá	701	Sololá	4	Finca Santa Victoria	4	Abril	2023-12-04T00:00:00	2024-11-08T23:00:00	7	Dirección del viento	0
100851	7	Sololá	701	Sololá	4	Finca Santa Victoria	4	Abril	2023-12-04T00:00:00	2024-11-08T23:00:00	1	Precipitación	0
100852	7	Sololá	701	Sololá	4	Finca Santa Victoria	4	Abril	2023-12-04T00:00:00	2024-11-08T23:00:00	8	Radiación solar	0
100853	7	Sololá	701	Sololá	4	Finca Santa Victoria	4	Abril	2023-04-13T00:00:00	2024-11-08T00:00:00	2	Temperatura media	11.7
100854	7	Sololá	701	Sololá	4	Finca Santa Victoria	4	Abril	2023-04-13T00:00:00	2024-11-08T00:00:00	4	Temperatura máxima	12.7
100855	7	Sololá	701	Sololá	4	Finca Santa Victoria	4	Abril	2023-04-13T00:00:00	2024-11-08T00:00:00	3	Temperatura mínima	11.7
100856	7	Sololá	701	Sololá	4	Finca Santa Victoria	4	Abril	2023-04-13T00:00:00	2024-11-08T00:00:00	5	Humedad	92
100857	7	Sololá	701	Sololá	4	Finca Santa Victoria	4	Abril	2023-04-13T00:00:00	2024-11-08T00:00:00	6	Velocidad del viento	0
100858	7	Sololá	701	Sololá	4	Finca Santa Victoria	4	Abril	2023-04-13T00:00:00	2024-11-08T00:00:00	7	Dirección del viento	0
100859	7	Sololá	701	Sololá	4	Finca Santa Victoria	4	Abril	2023-04-13T00:00:00	2024-11-08T00:00:00	1	Precipitación	0
100860	7	Sololá	701	Sololá	4	Finca Santa Victoria	4	Abril	2023-04-13T00:00:00	2024-11-08T00:00:00	8	Radiación solar	0
100861	7	Sololá	701	Sololá	4	Finca Santa Victoria	4	Abril	2023-04-13T00:00:00	2024-11-08T01:00:00	2	Temperatura media	11.5
100862	7	Sololá	701	Sololá	4	Finca Santa Victoria	4	Abril	2023-04-13T00:00:00	2024-11-08T01:00:00	4	Temperatura máxima	11.7
100863	7	Sololá	701	Sololá	4	Finca Santa Victoria	4	Abril	2023-04-13T00:00:00	2024-11-08T01:00:00	3	Temperatura mínima	11.4
100864	7	Sololá	701	Sololá	4	Finca Santa Victoria	4	Abril	2023-04-13T00:00:00	2024-11-08T01:00:00	5	Humedad	93
100865	7	Sololá	701	Sololá	4	Finca Santa Victoria	4	Abril	2023-04-13T00:00:00	2024-11-08T01:00:00	6	Velocidad del viento	0
100866	7	Sololá	701	Sololá	4	Finca Santa Victoria	4	Abril	2023-04-13T00:00:00	2024-11-08T01:00:00	7	Dirección del viento	0
100867	7	Sololá	701	Sololá	4	Finca Santa Victoria	4	Abril	2023-04-13T00:00:00	2024-11-08T01:00:00	1	Precipitación	0
100868	7	Sololá	701	Sololá	4	Finca Santa Victoria	4	Abril	2023-04-13T00:00:00	2024-11-08T01:00:00	8	Radiación solar	0
100869	7	Sololá	701	Sololá	4	Finca Santa Victoria	4	Abril	2023-04-13T00:00:00	2024-11-08T02:00:00	2	Temperatura media	11.2
100870	7	Sololá	701	Sololá	4	Finca Santa Victoria	4	Abril	2023-04-13T00:00:00	2024-11-08T02:00:00	4	Temperatura máxima	11.7
100871	7	Sololá	701	Sololá	4	Finca Santa Victoria	4	Abril	2023-04-13T00:00:00	2024-11-08T02:00:00	3	Temperatura mínima	11.1
100872	7	Sololá	701	Sololá	4	Finca Santa Victoria	4	Abril	2023-04-13T00:00:00	2024-11-08T02:00:00	5	Humedad	91
100873	7	Sololá	701	Sololá	4	Finca Santa Victoria	4	Abril	2023-04-13T00:00:00	2024-11-08T02:00:00	6	Velocidad del viento	0
100874	7	Sololá	701	Sololá	4	Finca Santa Victoria	4	Abril	2023-04-13T00:00:00	2024-11-08T02:00:00	7	Dirección del viento	0
100875	7	Sololá	701	Sololá	4	Finca Santa Victoria	4	Abril	2023-04-13T00:00:00	2024-11-08T02:00:00	1	Precipitación	0
100876	7	Sololá	701	Sololá	4	Finca Santa Victoria	4	Abril	2023-04-13T00:00:00	2024-11-08T02:00:00	8	Radiación solar	0
100877	7	Sololá	701	Sololá	4	Finca Santa Victoria	4	Abril	2023-04-13T00:00:00	2024-11-08T03:00:00	2	Temperatura media	11.6
100878	7	Sololá	701	Sololá	4	Finca Santa Victoria	4	Abril	2023-04-13T00:00:00	2024-11-08T03:00:00	4	Temperatura máxima	11.6
100879	7	Sololá	701	Sololá	4	Finca Santa Victoria	4	Abril	2023-04-13T00:00:00	2024-11-08T03:00:00	3	Temperatura mínima	11
100880	7	Sololá	701	Sololá	4	Finca Santa Victoria	4	Abril	2023-04-13T00:00:00	2024-11-08T03:00:00	5	Humedad	85
100881	7	Sololá	701	Sololá	4	Finca Santa Victoria	4	Abril	2023-04-13T00:00:00	2024-11-08T03:00:00	6	Velocidad del viento	0
100882	7	Sololá	701	Sololá	4	Finca Santa Victoria	4	Abril	2023-04-13T00:00:00	2024-11-08T03:00:00	7	Dirección del viento	0
100883	7	Sololá	701	Sololá	4	Finca Santa Victoria	4	Abril	2023-04-13T00:00:00	2024-11-08T03:00:00	1	Precipitación	0
100884	7	Sololá	701	Sololá	4	Finca Santa Victoria	4	Abril	2023-04-13T00:00:00	2024-11-08T03:00:00	8	Radiación solar	0
100885	7	Sololá	701	Sololá	4	Finca Santa Victoria	4	Abril	2023-04-13T00:00:00	2024-11-08T04:00:00	2	Temperatura media	10.8
100886	7	Sololá	701	Sololá	4	Finca Santa Victoria	4	Abril	2023-04-13T00:00:00	2024-11-08T04:00:00	4	Temperatura máxima	11.6
100887	7	Sololá	701	Sololá	4	Finca Santa Victoria	4	Abril	2023-04-13T00:00:00	2024-11-08T04:00:00	3	Temperatura mínima	10.8
100888	7	Sololá	701	Sololá	4	Finca Santa Victoria	4	Abril	2023-04-13T00:00:00	2024-11-08T04:00:00	5	Humedad	90
100889	7	Sololá	701	Sololá	4	Finca Santa Victoria	4	Abril	2023-04-13T00:00:00	2024-11-08T04:00:00	6	Velocidad del viento	1.6
100890	7	Sololá	701	Sololá	4	Finca Santa Victoria	4	Abril	2023-04-13T00:00:00	2024-11-08T04:00:00	7	Dirección del viento	1.61
100891	7	Sololá	701	Sololá	4	Finca Santa Victoria	4	Abril	2023-04-13T00:00:00	2024-11-08T04:00:00	1	Precipitación	0
100892	7	Sololá	701	Sololá	4	Finca Santa Victoria	4	Abril	2023-04-13T00:00:00	2024-11-08T04:00:00	8	Radiación solar	0
100893	7	Sololá	701	Sololá	4	Finca Santa Victoria	4	Abril	2023-04-13T00:00:00	2024-11-08T05:00:00	2	Temperatura media	11.1
100894	7	Sololá	701	Sololá	4	Finca Santa Victoria	4	Abril	2023-04-13T00:00:00	2024-11-08T05:00:00	4	Temperatura máxima	11.4
100895	7	Sololá	701	Sololá	4	Finca Santa Victoria	4	Abril	2023-04-13T00:00:00	2024-11-08T05:00:00	3	Temperatura mínima	10.8
100896	7	Sololá	701	Sololá	4	Finca Santa Victoria	4	Abril	2023-04-13T00:00:00	2024-11-08T05:00:00	5	Humedad	87
100897	7	Sololá	701	Sololá	4	Finca Santa Victoria	4	Abril	2023-04-13T00:00:00	2024-11-08T05:00:00	6	Velocidad del viento	1.6
100898	7	Sololá	701	Sololá	4	Finca Santa Victoria	4	Abril	2023-04-13T00:00:00	2024-11-08T05:00:00	7	Dirección del viento	1.61
100899	7	Sololá	701	Sololá	4	Finca Santa Victoria	4	Abril	2023-04-13T00:00:00	2024-11-08T05:00:00	1	Precipitación	0
100900	7	Sololá	701	Sololá	4	Finca Santa Victoria	4	Abril	2023-04-13T00:00:00	2024-11-08T05:00:00	8	Radiación solar	0
100901	7	Sololá	701	Sololá	4	Finca Santa Victoria	4	Abril	2023-04-13T00:00:00	2024-11-08T06:00:00	2	Temperatura media	10.9
100902	7	Sololá	701	Sololá	4	Finca Santa Victoria	4	Abril	2023-04-13T00:00:00	2024-11-08T06:00:00	4	Temperatura máxima	11.1
100903	7	Sololá	701	Sololá	4	Finca Santa Victoria	4	Abril	2023-04-13T00:00:00	2024-11-08T06:00:00	3	Temperatura mínima	10.4
100904	7	Sololá	701	Sololá	4	Finca Santa Victoria	4	Abril	2023-04-13T00:00:00	2024-11-08T06:00:00	5	Humedad	86
100905	7	Sololá	701	Sololá	4	Finca Santa Victoria	4	Abril	2023-04-13T00:00:00	2024-11-08T06:00:00	6	Velocidad del viento	1.6
100906	7	Sololá	701	Sololá	4	Finca Santa Victoria	4	Abril	2023-04-13T00:00:00	2024-11-08T06:00:00	7	Dirección del viento	1.61
100907	7	Sololá	701	Sololá	4	Finca Santa Victoria	4	Abril	2023-04-13T00:00:00	2024-11-08T06:00:00	1	Precipitación	0
100908	7	Sololá	701	Sololá	4	Finca Santa Victoria	4	Abril	2023-04-13T00:00:00	2024-11-08T06:00:00	8	Radiación solar	0
100909	7	Sololá	701	Sololá	4	Finca Santa Victoria	4	Abril	2023-04-13T00:00:00	2024-11-08T07:00:00	2	Temperatura media	12.1
100910	7	Sololá	701	Sololá	4	Finca Santa Victoria	4	Abril	2023-04-13T00:00:00	2024-11-08T07:00:00	4	Temperatura máxima	12.1
100911	7	Sololá	701	Sololá	4	Finca Santa Victoria	4	Abril	2023-04-13T00:00:00	2024-11-08T07:00:00	3	Temperatura mínima	10.9
100912	7	Sololá	701	Sololá	4	Finca Santa Victoria	4	Abril	2023-04-13T00:00:00	2024-11-08T07:00:00	5	Humedad	84
100913	7	Sololá	701	Sololá	4	Finca Santa Victoria	4	Abril	2023-04-13T00:00:00	2024-11-08T07:00:00	6	Velocidad del viento	1.6
100914	7	Sololá	701	Sololá	4	Finca Santa Victoria	4	Abril	2023-04-13T00:00:00	2024-11-08T07:00:00	7	Dirección del viento	1.61
100915	7	Sololá	701	Sololá	4	Finca Santa Victoria	4	Abril	2023-04-13T00:00:00	2024-11-08T07:00:00	1	Precipitación	0
100916	7	Sololá	701	Sololá	4	Finca Santa Victoria	4	Abril	2023-04-13T00:00:00	2024-11-08T07:00:00	8	Radiación solar	20
100917	7	Sololá	701	Sololá	4	Finca Santa Victoria	4	Abril	2023-04-13T00:00:00	2024-11-08T08:00:00	2	Temperatura media	16.1
100918	7	Sololá	701	Sololá	4	Finca Santa Victoria	4	Abril	2023-04-13T00:00:00	2024-11-08T08:00:00	4	Temperatura máxima	16.1
100919	7	Sololá	701	Sololá	4	Finca Santa Victoria	4	Abril	2023-04-13T00:00:00	2024-11-08T08:00:00	3	Temperatura mínima	12.1
100920	7	Sololá	701	Sololá	4	Finca Santa Victoria	4	Abril	2023-04-13T00:00:00	2024-11-08T08:00:00	5	Humedad	72
100921	7	Sololá	701	Sololá	4	Finca Santa Victoria	4	Abril	2023-04-13T00:00:00	2024-11-08T08:00:00	6	Velocidad del viento	0
100922	7	Sololá	701	Sololá	4	Finca Santa Victoria	4	Abril	2023-04-13T00:00:00	2024-11-08T08:00:00	7	Dirección del viento	0
100923	7	Sololá	701	Sololá	4	Finca Santa Victoria	4	Abril	2023-04-13T00:00:00	2024-11-08T08:00:00	1	Precipitación	0
100924	7	Sololá	701	Sololá	4	Finca Santa Victoria	4	Abril	2023-04-13T00:00:00	2024-11-08T08:00:00	8	Radiación solar	228
100925	7	Sololá	701	Sololá	4	Finca Santa Victoria	4	Abril	2023-04-13T00:00:00	2024-11-08T09:00:00	2	Temperatura media	15.4
100926	7	Sololá	701	Sololá	4	Finca Santa Victoria	4	Abril	2023-04-13T00:00:00	2024-11-08T09:00:00	4	Temperatura máxima	16.3
100927	7	Sololá	701	Sololá	4	Finca Santa Victoria	4	Abril	2023-04-13T00:00:00	2024-11-08T09:00:00	3	Temperatura mínima	15.4
100928	7	Sololá	701	Sololá	4	Finca Santa Victoria	4	Abril	2023-04-13T00:00:00	2024-11-08T09:00:00	5	Humedad	74
100929	7	Sololá	701	Sololá	4	Finca Santa Victoria	4	Abril	2023-04-13T00:00:00	2024-11-08T09:00:00	6	Velocidad del viento	1.6
100930	7	Sololá	701	Sololá	4	Finca Santa Victoria	4	Abril	2023-04-13T00:00:00	2024-11-08T09:00:00	7	Dirección del viento	1.61
100931	7	Sololá	701	Sololá	4	Finca Santa Victoria	4	Abril	2023-04-13T00:00:00	2024-11-08T09:00:00	1	Precipitación	0
100932	7	Sololá	701	Sololá	4	Finca Santa Victoria	4	Abril	2023-04-13T00:00:00	2024-11-08T09:00:00	8	Radiación solar	249
100933	7	Sololá	701	Sololá	4	Finca Santa Victoria	4	Abril	2023-04-13T00:00:00	2024-11-08T10:00:00	2	Temperatura media	17.9
100934	7	Sololá	701	Sololá	4	Finca Santa Victoria	4	Abril	2023-04-13T00:00:00	2024-11-08T10:00:00	4	Temperatura máxima	17.9
100935	7	Sololá	701	Sololá	4	Finca Santa Victoria	4	Abril	2023-04-13T00:00:00	2024-11-08T10:00:00	3	Temperatura mínima	15.4
100936	7	Sololá	701	Sololá	4	Finca Santa Victoria	4	Abril	2023-04-13T00:00:00	2024-11-08T10:00:00	5	Humedad	68
100937	7	Sololá	701	Sololá	4	Finca Santa Victoria	4	Abril	2023-04-13T00:00:00	2024-11-08T10:00:00	6	Velocidad del viento	3.2
100938	7	Sololá	701	Sololá	4	Finca Santa Victoria	4	Abril	2023-04-13T00:00:00	2024-11-08T10:00:00	7	Dirección del viento	3.22
100939	7	Sololá	701	Sololá	4	Finca Santa Victoria	4	Abril	2023-04-13T00:00:00	2024-11-08T10:00:00	1	Precipitación	0
100940	7	Sololá	701	Sololá	4	Finca Santa Victoria	4	Abril	2023-04-13T00:00:00	2024-11-08T10:00:00	8	Radiación solar	475
100941	7	Sololá	701	Sololá	4	Finca Santa Victoria	4	Abril	2023-04-13T00:00:00	2024-11-08T11:00:00	2	Temperatura media	18.2
100942	7	Sololá	701	Sololá	4	Finca Santa Victoria	4	Abril	2023-04-13T00:00:00	2024-11-08T11:00:00	4	Temperatura máxima	18.8
100943	7	Sololá	701	Sololá	4	Finca Santa Victoria	4	Abril	2023-04-13T00:00:00	2024-11-08T11:00:00	3	Temperatura mínima	17.6
100944	7	Sololá	701	Sololá	4	Finca Santa Victoria	4	Abril	2023-04-13T00:00:00	2024-11-08T11:00:00	5	Humedad	66
100945	7	Sololá	701	Sololá	4	Finca Santa Victoria	4	Abril	2023-04-13T00:00:00	2024-11-08T11:00:00	6	Velocidad del viento	4.8
100946	7	Sololá	701	Sololá	4	Finca Santa Victoria	4	Abril	2023-04-13T00:00:00	2024-11-08T11:00:00	7	Dirección del viento	4.83
100947	7	Sololá	701	Sololá	4	Finca Santa Victoria	4	Abril	2023-04-13T00:00:00	2024-11-08T11:00:00	1	Precipitación	0
100948	7	Sololá	701	Sololá	4	Finca Santa Victoria	4	Abril	2023-04-13T00:00:00	2024-11-08T11:00:00	8	Radiación solar	878
100949	7	Sololá	701	Sololá	4	Finca Santa Victoria	4	Abril	2023-04-13T00:00:00	2024-11-08T12:00:00	2	Temperatura media	19.3
100950	7	Sololá	701	Sololá	4	Finca Santa Victoria	4	Abril	2023-04-13T00:00:00	2024-11-08T12:00:00	4	Temperatura máxima	19.5
100951	7	Sololá	701	Sololá	4	Finca Santa Victoria	4	Abril	2023-04-13T00:00:00	2024-11-08T12:00:00	3	Temperatura mínima	18.1
100952	7	Sololá	701	Sololá	4	Finca Santa Victoria	4	Abril	2023-04-13T00:00:00	2024-11-08T12:00:00	5	Humedad	67
100953	7	Sololá	701	Sololá	4	Finca Santa Victoria	4	Abril	2023-04-13T00:00:00	2024-11-08T12:00:00	6	Velocidad del viento	4.8
100954	7	Sololá	701	Sololá	4	Finca Santa Victoria	4	Abril	2023-04-13T00:00:00	2024-11-08T12:00:00	7	Dirección del viento	4.83
100955	7	Sololá	701	Sololá	4	Finca Santa Victoria	4	Abril	2023-04-13T00:00:00	2024-11-08T12:00:00	1	Precipitación	0
100956	7	Sololá	701	Sololá	4	Finca Santa Victoria	4	Abril	2023-04-13T00:00:00	2024-11-08T12:00:00	8	Radiación solar	966
100957	7	Sololá	701	Sololá	4	Finca Santa Victoria	4	Abril	2023-04-13T00:00:00	2024-11-08T13:00:00	2	Temperatura media	19.1
100958	7	Sololá	701	Sololá	4	Finca Santa Victoria	4	Abril	2023-04-13T00:00:00	2024-11-08T13:00:00	4	Temperatura máxima	19.5
100959	7	Sololá	701	Sololá	4	Finca Santa Victoria	4	Abril	2023-04-13T00:00:00	2024-11-08T13:00:00	3	Temperatura mínima	18.8
100960	7	Sololá	701	Sololá	4	Finca Santa Victoria	4	Abril	2023-04-13T00:00:00	2024-11-08T13:00:00	5	Humedad	73
100961	7	Sololá	701	Sololá	4	Finca Santa Victoria	4	Abril	2023-04-13T00:00:00	2024-11-08T13:00:00	6	Velocidad del viento	6.4
100962	7	Sololá	701	Sololá	4	Finca Santa Victoria	4	Abril	2023-04-13T00:00:00	2024-11-08T13:00:00	7	Dirección del viento	6.44
100963	7	Sololá	701	Sololá	4	Finca Santa Victoria	4	Abril	2023-04-13T00:00:00	2024-11-08T13:00:00	1	Precipitación	0
100964	7	Sololá	701	Sololá	4	Finca Santa Victoria	4	Abril	2023-04-13T00:00:00	2024-11-08T13:00:00	8	Radiación solar	819
100965	7	Sololá	701	Sololá	4	Finca Santa Victoria	4	Abril	2023-04-13T00:00:00	2024-11-08T14:00:00	2	Temperatura media	17.3
100966	7	Sololá	701	Sololá	4	Finca Santa Victoria	4	Abril	2023-04-13T00:00:00	2024-11-08T14:00:00	4	Temperatura máxima	19.7
100967	7	Sololá	701	Sololá	4	Finca Santa Victoria	4	Abril	2023-04-13T00:00:00	2024-11-08T14:00:00	3	Temperatura mínima	17.3
100968	7	Sololá	701	Sololá	4	Finca Santa Victoria	4	Abril	2023-04-13T00:00:00	2024-11-08T14:00:00	5	Humedad	82
100969	7	Sololá	701	Sololá	4	Finca Santa Victoria	4	Abril	2023-04-13T00:00:00	2024-11-08T14:00:00	6	Velocidad del viento	4.8
100970	7	Sololá	701	Sololá	4	Finca Santa Victoria	4	Abril	2023-04-13T00:00:00	2024-11-08T14:00:00	7	Dirección del viento	4.83
100971	7	Sololá	701	Sololá	4	Finca Santa Victoria	4	Abril	2023-04-13T00:00:00	2024-11-08T14:00:00	1	Precipitación	0
100972	7	Sololá	701	Sololá	4	Finca Santa Victoria	4	Abril	2023-04-13T00:00:00	2024-11-08T14:00:00	8	Radiación solar	328
100973	7	Sololá	701	Sololá	4	Finca Santa Victoria	4	Abril	2023-04-13T00:00:00	2024-11-08T15:00:00	2	Temperatura media	16.1
100974	7	Sololá	701	Sololá	4	Finca Santa Victoria	4	Abril	2023-04-13T00:00:00	2024-11-08T15:00:00	4	Temperatura máxima	17.4
100975	7	Sololá	701	Sololá	4	Finca Santa Victoria	4	Abril	2023-04-13T00:00:00	2024-11-08T15:00:00	3	Temperatura mínima	16
100976	7	Sololá	701	Sololá	4	Finca Santa Victoria	4	Abril	2023-04-13T00:00:00	2024-11-08T15:00:00	5	Humedad	87
100977	7	Sololá	701	Sololá	4	Finca Santa Victoria	4	Abril	2023-04-13T00:00:00	2024-11-08T15:00:00	6	Velocidad del viento	4.8
100978	7	Sololá	701	Sololá	4	Finca Santa Victoria	4	Abril	2023-04-13T00:00:00	2024-11-08T15:00:00	7	Dirección del viento	4.83
100979	7	Sololá	701	Sololá	4	Finca Santa Victoria	4	Abril	2023-04-13T00:00:00	2024-11-08T15:00:00	1	Precipitación	0
100980	7	Sololá	701	Sololá	4	Finca Santa Victoria	4	Abril	2023-04-13T00:00:00	2024-11-08T15:00:00	8	Radiación solar	217
100981	7	Sololá	701	Sololá	4	Finca Santa Victoria	4	Abril	2023-04-13T00:00:00	2024-11-08T16:00:00	2	Temperatura media	15.5
100982	7	Sololá	701	Sololá	4	Finca Santa Victoria	4	Abril	2023-04-13T00:00:00	2024-11-08T16:00:00	4	Temperatura máxima	16.1
100983	7	Sololá	701	Sololá	4	Finca Santa Victoria	4	Abril	2023-04-13T00:00:00	2024-11-08T16:00:00	3	Temperatura mínima	15.4
100984	7	Sololá	701	Sololá	4	Finca Santa Victoria	4	Abril	2023-04-13T00:00:00	2024-11-08T16:00:00	5	Humedad	90
100985	7	Sololá	701	Sololá	4	Finca Santa Victoria	4	Abril	2023-04-13T00:00:00	2024-11-08T16:00:00	6	Velocidad del viento	3.2
100986	7	Sololá	701	Sololá	4	Finca Santa Victoria	4	Abril	2023-04-13T00:00:00	2024-11-08T16:00:00	7	Dirección del viento	3.22
100987	7	Sololá	701	Sololá	4	Finca Santa Victoria	4	Abril	2023-04-13T00:00:00	2024-11-08T16:00:00	1	Precipitación	0
100988	7	Sololá	701	Sololá	4	Finca Santa Victoria	4	Abril	2023-04-13T00:00:00	2024-11-08T16:00:00	8	Radiación solar	88
100989	7	Sololá	701	Sololá	4	Finca Santa Victoria	4	Abril	2023-04-13T00:00:00	2024-11-08T17:00:00	2	Temperatura media	15.5
100990	7	Sololá	701	Sololá	4	Finca Santa Victoria	4	Abril	2023-04-13T00:00:00	2024-11-08T17:00:00	4	Temperatura máxima	15.7
100991	7	Sololá	701	Sololá	4	Finca Santa Victoria	4	Abril	2023-04-13T00:00:00	2024-11-08T17:00:00	3	Temperatura mínima	15.3
100992	7	Sololá	701	Sololá	4	Finca Santa Victoria	4	Abril	2023-04-13T00:00:00	2024-11-08T17:00:00	5	Humedad	91
100993	7	Sololá	701	Sololá	4	Finca Santa Victoria	4	Abril	2023-04-13T00:00:00	2024-11-08T17:00:00	6	Velocidad del viento	1.6
100994	7	Sololá	701	Sololá	4	Finca Santa Victoria	4	Abril	2023-04-13T00:00:00	2024-11-08T17:00:00	7	Dirección del viento	1.61
100995	7	Sololá	701	Sololá	4	Finca Santa Victoria	4	Abril	2023-04-13T00:00:00	2024-11-08T17:00:00	1	Precipitación	0
100996	7	Sololá	701	Sololá	4	Finca Santa Victoria	4	Abril	2023-04-13T00:00:00	2024-11-08T17:00:00	8	Radiación solar	80
100997	7	Sololá	701	Sololá	4	Finca Santa Victoria	4	Abril	2023-04-13T00:00:00	2024-11-08T18:00:00	2	Temperatura media	15.1
100998	7	Sololá	701	Sololá	4	Finca Santa Victoria	4	Abril	2023-04-13T00:00:00	2024-11-08T18:00:00	4	Temperatura máxima	15.6
100999	7	Sololá	701	Sololá	4	Finca Santa Victoria	4	Abril	2023-04-13T00:00:00	2024-11-08T18:00:00	3	Temperatura mínima	15.1
101000	7	Sololá	701	Sololá	4	Finca Santa Victoria	4	Abril	2023-04-13T00:00:00	2024-11-08T18:00:00	5	Humedad	94
101001	7	Sololá	701	Sololá	4	Finca Santa Victoria	4	Abril	2023-04-13T00:00:00	2024-11-08T18:00:00	6	Velocidad del viento	1.6
101002	7	Sololá	701	Sololá	4	Finca Santa Victoria	4	Abril	2023-04-13T00:00:00	2024-11-08T18:00:00	7	Dirección del viento	1.61
101003	7	Sololá	701	Sololá	4	Finca Santa Victoria	4	Abril	2023-04-13T00:00:00	2024-11-08T18:00:00	1	Precipitación	0
101004	7	Sololá	701	Sololá	4	Finca Santa Victoria	4	Abril	2023-04-13T00:00:00	2024-11-08T18:00:00	8	Radiación solar	41
101005	7	Sololá	701	Sololá	4	Finca Santa Victoria	4	Abril	2023-04-13T00:00:00	2024-11-08T19:00:00	2	Temperatura media	14.4
101006	7	Sololá	701	Sololá	4	Finca Santa Victoria	4	Abril	2023-04-13T00:00:00	2024-11-08T19:00:00	4	Temperatura máxima	15.1
101007	7	Sololá	701	Sololá	4	Finca Santa Victoria	4	Abril	2023-04-13T00:00:00	2024-11-08T19:00:00	3	Temperatura mínima	14.4
101008	7	Sololá	701	Sololá	4	Finca Santa Victoria	4	Abril	2023-04-13T00:00:00	2024-11-08T19:00:00	5	Humedad	95
101009	7	Sololá	701	Sololá	4	Finca Santa Victoria	4	Abril	2023-04-13T00:00:00	2024-11-08T19:00:00	6	Velocidad del viento	1.6
101010	7	Sololá	701	Sololá	4	Finca Santa Victoria	4	Abril	2023-04-13T00:00:00	2024-11-08T19:00:00	7	Dirección del viento	1.61
101011	7	Sololá	701	Sololá	4	Finca Santa Victoria	4	Abril	2023-04-13T00:00:00	2024-11-08T19:00:00	1	Precipitación	0
101012	7	Sololá	701	Sololá	4	Finca Santa Victoria	4	Abril	2023-04-13T00:00:00	2024-11-08T19:00:00	8	Radiación solar	0
101013	7	Sololá	701	Sololá	4	Finca Santa Victoria	4	Abril	2023-04-13T00:00:00	2024-11-08T20:00:00	2	Temperatura media	13.7
101014	7	Sololá	701	Sololá	4	Finca Santa Victoria	4	Abril	2023-04-13T00:00:00	2024-11-08T20:00:00	4	Temperatura máxima	14.4
101015	7	Sololá	701	Sololá	4	Finca Santa Victoria	4	Abril	2023-04-13T00:00:00	2024-11-08T20:00:00	3	Temperatura mínima	13.7
101016	7	Sololá	701	Sololá	4	Finca Santa Victoria	4	Abril	2023-04-13T00:00:00	2024-11-08T20:00:00	5	Humedad	96
101017	7	Sololá	701	Sololá	4	Finca Santa Victoria	4	Abril	2023-04-13T00:00:00	2024-11-08T20:00:00	6	Velocidad del viento	0
101018	7	Sololá	701	Sololá	4	Finca Santa Victoria	4	Abril	2023-04-13T00:00:00	2024-11-08T20:00:00	7	Dirección del viento	0
101019	7	Sololá	701	Sololá	4	Finca Santa Victoria	4	Abril	2023-04-13T00:00:00	2024-11-08T20:00:00	1	Precipitación	0
101020	7	Sololá	701	Sololá	4	Finca Santa Victoria	4	Abril	2023-04-13T00:00:00	2024-11-08T20:00:00	8	Radiación solar	0
101021	7	Sololá	701	Sololá	4	Finca Santa Victoria	4	Abril	2023-04-13T00:00:00	2024-11-08T21:00:00	2	Temperatura media	13.4
101022	7	Sololá	701	Sololá	4	Finca Santa Victoria	4	Abril	2023-04-13T00:00:00	2024-11-08T21:00:00	4	Temperatura máxima	13.7
101023	7	Sololá	701	Sololá	4	Finca Santa Victoria	4	Abril	2023-04-13T00:00:00	2024-11-08T21:00:00	3	Temperatura mínima	13.4
101024	7	Sololá	701	Sololá	4	Finca Santa Victoria	4	Abril	2023-04-13T00:00:00	2024-11-08T21:00:00	5	Humedad	96
101025	7	Sololá	701	Sololá	4	Finca Santa Victoria	4	Abril	2023-04-13T00:00:00	2024-11-08T21:00:00	6	Velocidad del viento	0
101026	7	Sololá	701	Sololá	4	Finca Santa Victoria	4	Abril	2023-04-13T00:00:00	2024-11-08T21:00:00	7	Dirección del viento	0
101027	7	Sololá	701	Sololá	4	Finca Santa Victoria	4	Abril	2023-04-13T00:00:00	2024-11-08T21:00:00	1	Precipitación	0
101028	7	Sololá	701	Sololá	4	Finca Santa Victoria	4	Abril	2023-04-13T00:00:00	2024-11-08T21:00:00	8	Radiación solar	0
101029	7	Sololá	701	Sololá	4	Finca Santa Victoria	4	Abril	2023-04-13T00:00:00	2024-11-08T22:00:00	2	Temperatura media	13.4
101030	7	Sololá	701	Sololá	4	Finca Santa Victoria	4	Abril	2023-04-13T00:00:00	2024-11-08T22:00:00	4	Temperatura máxima	13.4
101031	7	Sololá	701	Sololá	4	Finca Santa Victoria	4	Abril	2023-04-13T00:00:00	2024-11-08T22:00:00	3	Temperatura mínima	13.2
101032	7	Sololá	701	Sololá	4	Finca Santa Victoria	4	Abril	2023-04-13T00:00:00	2024-11-08T22:00:00	5	Humedad	97
101033	7	Sololá	701	Sololá	4	Finca Santa Victoria	4	Abril	2023-04-13T00:00:00	2024-11-08T22:00:00	6	Velocidad del viento	0
101034	7	Sololá	701	Sololá	4	Finca Santa Victoria	4	Abril	2023-04-13T00:00:00	2024-11-08T22:00:00	7	Dirección del viento	0
101035	7	Sololá	701	Sololá	4	Finca Santa Victoria	4	Abril	2023-04-13T00:00:00	2024-11-08T22:00:00	1	Precipitación	0
101036	7	Sololá	701	Sololá	4	Finca Santa Victoria	4	Abril	2023-04-13T00:00:00	2024-11-08T22:00:00	8	Radiación solar	0
101037	7	Sololá	701	Sololá	4	Finca Santa Victoria	4	Abril	2023-04-13T00:00:00	2024-11-08T23:00:00	2	Temperatura media	12.6
101038	7	Sololá	701	Sololá	4	Finca Santa Victoria	4	Abril	2023-04-13T00:00:00	2024-11-08T23:00:00	4	Temperatura máxima	13.4
101039	7	Sololá	701	Sololá	4	Finca Santa Victoria	4	Abril	2023-04-13T00:00:00	2024-11-08T23:00:00	3	Temperatura mínima	12.2
101040	7	Sololá	701	Sololá	4	Finca Santa Victoria	4	Abril	2023-04-13T00:00:00	2024-11-08T23:00:00	5	Humedad	97
101041	7	Sololá	701	Sololá	4	Finca Santa Victoria	4	Abril	2023-04-13T00:00:00	2024-11-08T23:00:00	6	Velocidad del viento	1.6
101042	7	Sololá	701	Sololá	4	Finca Santa Victoria	4	Abril	2023-04-13T00:00:00	2024-11-08T23:00:00	7	Dirección del viento	1.61
101043	7	Sololá	701	Sololá	4	Finca Santa Victoria	4	Abril	2023-04-13T00:00:00	2024-11-08T23:00:00	1	Precipitación	0
101044	7	Sololá	701	Sololá	4	Finca Santa Victoria	4	Abril	2023-04-13T00:00:00	2024-11-08T23:00:00	8	Radiación solar	0
101045	7	Sololá	701	Sololá	4	Finca Santa Victoria	4	Abril	2023-04-14T00:00:00	2024-11-08T00:00:00	2	Temperatura media	11.9
101046	7	Sololá	701	Sololá	4	Finca Santa Victoria	4	Abril	2023-04-14T00:00:00	2024-11-08T00:00:00	4	Temperatura máxima	12.8
101047	7	Sololá	701	Sololá	4	Finca Santa Victoria	4	Abril	2023-04-14T00:00:00	2024-11-08T00:00:00	3	Temperatura mínima	11.9
101048	7	Sololá	701	Sololá	4	Finca Santa Victoria	4	Abril	2023-04-14T00:00:00	2024-11-08T00:00:00	5	Humedad	95
101049	7	Sololá	701	Sololá	4	Finca Santa Victoria	4	Abril	2023-04-14T00:00:00	2024-11-08T00:00:00	6	Velocidad del viento	0
101050	7	Sololá	701	Sololá	4	Finca Santa Victoria	4	Abril	2023-04-14T00:00:00	2024-11-08T00:00:00	7	Dirección del viento	0
101051	7	Sololá	701	Sololá	4	Finca Santa Victoria	4	Abril	2023-04-14T00:00:00	2024-11-08T00:00:00	1	Precipitación	0
101052	7	Sololá	701	Sololá	4	Finca Santa Victoria	4	Abril	2023-04-14T00:00:00	2024-11-08T00:00:00	8	Radiación solar	0
101053	7	Sololá	701	Sololá	4	Finca Santa Victoria	4	Abril	2023-04-14T00:00:00	2024-11-08T01:00:00	2	Temperatura media	11.5
101054	7	Sololá	701	Sololá	4	Finca Santa Victoria	4	Abril	2023-04-14T00:00:00	2024-11-08T01:00:00	4	Temperatura máxima	12.1
101055	7	Sololá	701	Sololá	4	Finca Santa Victoria	4	Abril	2023-04-14T00:00:00	2024-11-08T01:00:00	3	Temperatura mínima	11.4
101056	7	Sololá	701	Sololá	4	Finca Santa Victoria	4	Abril	2023-04-14T00:00:00	2024-11-08T01:00:00	5	Humedad	88
101057	7	Sololá	701	Sololá	4	Finca Santa Victoria	4	Abril	2023-04-14T00:00:00	2024-11-08T01:00:00	6	Velocidad del viento	0
101058	7	Sololá	701	Sololá	4	Finca Santa Victoria	4	Abril	2023-04-14T00:00:00	2024-11-08T01:00:00	7	Dirección del viento	0
101059	7	Sololá	701	Sololá	4	Finca Santa Victoria	4	Abril	2023-04-14T00:00:00	2024-11-08T01:00:00	1	Precipitación	0
101060	7	Sololá	701	Sololá	4	Finca Santa Victoria	4	Abril	2023-04-14T00:00:00	2024-11-08T01:00:00	8	Radiación solar	0
101061	7	Sololá	701	Sololá	4	Finca Santa Victoria	4	Abril	2023-04-14T00:00:00	2024-11-08T02:00:00	2	Temperatura media	12.2
101062	7	Sololá	701	Sololá	4	Finca Santa Victoria	4	Abril	2023-04-14T00:00:00	2024-11-08T02:00:00	4	Temperatura máxima	12.3
101063	7	Sololá	701	Sololá	4	Finca Santa Victoria	4	Abril	2023-04-14T00:00:00	2024-11-08T02:00:00	3	Temperatura mínima	11.4
101064	7	Sololá	701	Sololá	4	Finca Santa Victoria	4	Abril	2023-04-14T00:00:00	2024-11-08T02:00:00	5	Humedad	84
101065	7	Sololá	701	Sololá	4	Finca Santa Victoria	4	Abril	2023-04-14T00:00:00	2024-11-08T02:00:00	6	Velocidad del viento	1.6
101066	7	Sololá	701	Sololá	4	Finca Santa Victoria	4	Abril	2023-04-14T00:00:00	2024-11-08T02:00:00	7	Dirección del viento	1.61
101067	7	Sololá	701	Sololá	4	Finca Santa Victoria	4	Abril	2023-04-14T00:00:00	2024-11-08T02:00:00	1	Precipitación	0
101068	7	Sololá	701	Sololá	4	Finca Santa Victoria	4	Abril	2023-04-14T00:00:00	2024-11-08T02:00:00	8	Radiación solar	0
101069	7	Sololá	701	Sololá	4	Finca Santa Victoria	4	Abril	2023-04-14T00:00:00	2024-11-08T03:00:00	2	Temperatura media	11.7
101070	7	Sololá	701	Sololá	4	Finca Santa Victoria	4	Abril	2023-04-14T00:00:00	2024-11-08T03:00:00	4	Temperatura máxima	12.3
101071	7	Sololá	701	Sololá	4	Finca Santa Victoria	4	Abril	2023-04-14T00:00:00	2024-11-08T03:00:00	3	Temperatura mínima	11.6
101072	7	Sololá	701	Sololá	4	Finca Santa Victoria	4	Abril	2023-04-14T00:00:00	2024-11-08T03:00:00	5	Humedad	82
101073	7	Sololá	701	Sololá	4	Finca Santa Victoria	4	Abril	2023-04-14T00:00:00	2024-11-08T03:00:00	6	Velocidad del viento	1.6
101074	7	Sololá	701	Sololá	4	Finca Santa Victoria	4	Abril	2023-04-14T00:00:00	2024-11-08T03:00:00	7	Dirección del viento	1.61
101075	7	Sololá	701	Sololá	4	Finca Santa Victoria	4	Abril	2023-04-14T00:00:00	2024-11-08T03:00:00	1	Precipitación	0
101076	7	Sololá	701	Sololá	4	Finca Santa Victoria	4	Abril	2023-04-14T00:00:00	2024-11-08T03:00:00	8	Radiación solar	0
101077	7	Sololá	701	Sololá	4	Finca Santa Victoria	4	Abril	2023-04-14T00:00:00	2024-11-08T04:00:00	2	Temperatura media	10.7
101078	7	Sololá	701	Sololá	4	Finca Santa Victoria	4	Abril	2023-04-14T00:00:00	2024-11-08T04:00:00	4	Temperatura máxima	11.7
101079	7	Sololá	701	Sololá	4	Finca Santa Victoria	4	Abril	2023-04-14T00:00:00	2024-11-08T04:00:00	3	Temperatura mínima	10.7
101080	7	Sololá	701	Sololá	4	Finca Santa Victoria	4	Abril	2023-04-14T00:00:00	2024-11-08T04:00:00	5	Humedad	84
101081	7	Sololá	701	Sololá	4	Finca Santa Victoria	4	Abril	2023-04-14T00:00:00	2024-11-08T04:00:00	6	Velocidad del viento	0
101082	7	Sololá	701	Sololá	4	Finca Santa Victoria	4	Abril	2023-04-14T00:00:00	2024-11-08T04:00:00	7	Dirección del viento	0
101083	7	Sololá	701	Sololá	4	Finca Santa Victoria	4	Abril	2023-04-14T00:00:00	2024-11-08T04:00:00	1	Precipitación	0
101084	7	Sololá	701	Sololá	4	Finca Santa Victoria	4	Abril	2023-04-14T00:00:00	2024-11-08T04:00:00	8	Radiación solar	0
101085	7	Sololá	701	Sololá	4	Finca Santa Victoria	4	Abril	2023-04-14T00:00:00	2024-11-08T05:00:00	2	Temperatura media	10.9
101086	7	Sololá	701	Sololá	4	Finca Santa Victoria	4	Abril	2023-04-14T00:00:00	2024-11-08T05:00:00	4	Temperatura máxima	10.9
101087	7	Sololá	701	Sololá	4	Finca Santa Victoria	4	Abril	2023-04-14T00:00:00	2024-11-08T05:00:00	3	Temperatura mínima	10.4
101088	7	Sololá	701	Sololá	4	Finca Santa Victoria	4	Abril	2023-04-14T00:00:00	2024-11-08T05:00:00	5	Humedad	81
101089	7	Sololá	701	Sololá	4	Finca Santa Victoria	4	Abril	2023-04-14T00:00:00	2024-11-08T05:00:00	6	Velocidad del viento	0
101090	7	Sololá	701	Sololá	4	Finca Santa Victoria	4	Abril	2023-04-14T00:00:00	2024-11-08T05:00:00	7	Dirección del viento	0
101091	7	Sololá	701	Sololá	4	Finca Santa Victoria	4	Abril	2023-04-14T00:00:00	2024-11-08T05:00:00	1	Precipitación	0
101092	7	Sololá	701	Sololá	4	Finca Santa Victoria	4	Abril	2023-04-14T00:00:00	2024-11-08T05:00:00	8	Radiación solar	0
101093	7	Sololá	701	Sololá	4	Finca Santa Victoria	4	Abril	2023-04-14T00:00:00	2024-11-08T06:00:00	2	Temperatura media	10.6
101094	7	Sololá	701	Sololá	4	Finca Santa Victoria	4	Abril	2023-04-14T00:00:00	2024-11-08T06:00:00	4	Temperatura máxima	10.9
101095	7	Sololá	701	Sololá	4	Finca Santa Victoria	4	Abril	2023-04-14T00:00:00	2024-11-08T06:00:00	3	Temperatura mínima	10.4
101096	7	Sololá	701	Sololá	4	Finca Santa Victoria	4	Abril	2023-04-14T00:00:00	2024-11-08T06:00:00	5	Humedad	81
101097	7	Sololá	701	Sololá	4	Finca Santa Victoria	4	Abril	2023-04-14T00:00:00	2024-11-08T06:00:00	6	Velocidad del viento	0
101098	7	Sololá	701	Sololá	4	Finca Santa Victoria	4	Abril	2023-04-14T00:00:00	2024-11-08T06:00:00	7	Dirección del viento	0
101099	7	Sololá	701	Sololá	4	Finca Santa Victoria	4	Abril	2023-04-14T00:00:00	2024-11-08T06:00:00	1	Precipitación	0
101100	7	Sololá	701	Sololá	4	Finca Santa Victoria	4	Abril	2023-04-14T00:00:00	2024-11-08T06:00:00	8	Radiación solar	0
101101	7	Sololá	701	Sololá	4	Finca Santa Victoria	4	Abril	2023-04-14T00:00:00	2024-11-08T07:00:00	2	Temperatura media	11.1
101102	7	Sololá	701	Sololá	4	Finca Santa Victoria	4	Abril	2023-04-14T00:00:00	2024-11-08T07:00:00	4	Temperatura máxima	11.1
101103	7	Sololá	701	Sololá	4	Finca Santa Victoria	4	Abril	2023-04-14T00:00:00	2024-11-08T07:00:00	3	Temperatura mínima	10.5
101104	7	Sololá	701	Sololá	4	Finca Santa Victoria	4	Abril	2023-04-14T00:00:00	2024-11-08T07:00:00	5	Humedad	83
101105	7	Sololá	701	Sololá	4	Finca Santa Victoria	4	Abril	2023-04-14T00:00:00	2024-11-08T07:00:00	6	Velocidad del viento	0
101106	7	Sololá	701	Sololá	4	Finca Santa Victoria	4	Abril	2023-04-14T00:00:00	2024-11-08T07:00:00	7	Dirección del viento	0
101107	7	Sololá	701	Sololá	4	Finca Santa Victoria	4	Abril	2023-04-14T00:00:00	2024-11-08T07:00:00	1	Precipitación	0
101108	7	Sololá	701	Sololá	4	Finca Santa Victoria	4	Abril	2023-04-14T00:00:00	2024-11-08T07:00:00	8	Radiación solar	17
101109	7	Sololá	701	Sololá	4	Finca Santa Victoria	4	Abril	2023-04-14T00:00:00	2024-11-08T08:00:00	2	Temperatura media	16
101110	7	Sololá	701	Sololá	4	Finca Santa Victoria	4	Abril	2023-04-14T00:00:00	2024-11-08T08:00:00	4	Temperatura máxima	16.1
101111	7	Sololá	701	Sololá	4	Finca Santa Victoria	4	Abril	2023-04-14T00:00:00	2024-11-08T08:00:00	3	Temperatura mínima	11.1
101112	7	Sololá	701	Sololá	4	Finca Santa Victoria	4	Abril	2023-04-14T00:00:00	2024-11-08T08:00:00	5	Humedad	63
101113	7	Sololá	701	Sololá	4	Finca Santa Victoria	4	Abril	2023-04-14T00:00:00	2024-11-08T08:00:00	6	Velocidad del viento	1.6
101114	7	Sololá	701	Sololá	4	Finca Santa Victoria	4	Abril	2023-04-14T00:00:00	2024-11-08T08:00:00	7	Dirección del viento	1.61
101115	7	Sololá	701	Sololá	4	Finca Santa Victoria	4	Abril	2023-04-14T00:00:00	2024-11-08T08:00:00	1	Precipitación	0
101116	7	Sololá	701	Sololá	4	Finca Santa Victoria	4	Abril	2023-04-14T00:00:00	2024-11-08T08:00:00	8	Radiación solar	259
101117	7	Sololá	701	Sololá	4	Finca Santa Victoria	4	Abril	2023-04-14T00:00:00	2024-11-08T09:00:00	2	Temperatura media	17.6
101118	7	Sololá	701	Sololá	4	Finca Santa Victoria	4	Abril	2023-04-14T00:00:00	2024-11-08T09:00:00	4	Temperatura máxima	17.6
101119	7	Sololá	701	Sololá	4	Finca Santa Victoria	4	Abril	2023-04-14T00:00:00	2024-11-08T09:00:00	3	Temperatura mínima	15.8
101120	7	Sololá	701	Sololá	4	Finca Santa Victoria	4	Abril	2023-04-14T00:00:00	2024-11-08T09:00:00	5	Humedad	62
101121	7	Sololá	701	Sololá	4	Finca Santa Victoria	4	Abril	2023-04-14T00:00:00	2024-11-08T09:00:00	6	Velocidad del viento	4.8
101122	7	Sololá	701	Sololá	4	Finca Santa Victoria	4	Abril	2023-04-14T00:00:00	2024-11-08T09:00:00	7	Dirección del viento	4.83
101123	7	Sololá	701	Sololá	4	Finca Santa Victoria	4	Abril	2023-04-14T00:00:00	2024-11-08T09:00:00	1	Precipitación	0
101124	7	Sololá	701	Sololá	4	Finca Santa Victoria	4	Abril	2023-04-14T00:00:00	2024-11-08T09:00:00	8	Radiación solar	525
101125	7	Sololá	701	Sololá	4	Finca Santa Victoria	4	Abril	2023-04-14T00:00:00	2024-11-08T10:00:00	2	Temperatura media	18.7
101126	7	Sololá	701	Sololá	4	Finca Santa Victoria	4	Abril	2023-04-14T00:00:00	2024-11-08T10:00:00	4	Temperatura máxima	18.9
101127	7	Sololá	701	Sololá	4	Finca Santa Victoria	4	Abril	2023-04-14T00:00:00	2024-11-08T10:00:00	3	Temperatura mínima	17.6
101128	7	Sololá	701	Sololá	4	Finca Santa Victoria	4	Abril	2023-04-14T00:00:00	2024-11-08T10:00:00	5	Humedad	61
101129	7	Sololá	701	Sololá	4	Finca Santa Victoria	4	Abril	2023-04-14T00:00:00	2024-11-08T10:00:00	6	Velocidad del viento	4.8
101130	7	Sololá	701	Sololá	4	Finca Santa Victoria	4	Abril	2023-04-14T00:00:00	2024-11-08T10:00:00	7	Dirección del viento	4.83
101131	7	Sololá	701	Sololá	4	Finca Santa Victoria	4	Abril	2023-04-14T00:00:00	2024-11-08T10:00:00	1	Precipitación	0
101132	7	Sololá	701	Sololá	4	Finca Santa Victoria	4	Abril	2023-04-14T00:00:00	2024-11-08T10:00:00	8	Radiación solar	408
101133	7	Sololá	701	Sololá	4	Finca Santa Victoria	4	Abril	2023-04-14T00:00:00	2024-11-08T11:00:00	2	Temperatura media	19.4
101134	7	Sololá	701	Sololá	4	Finca Santa Victoria	4	Abril	2023-04-14T00:00:00	2024-11-08T11:00:00	4	Temperatura máxima	19.4
101135	7	Sololá	701	Sololá	4	Finca Santa Victoria	4	Abril	2023-04-14T00:00:00	2024-11-08T11:00:00	3	Temperatura mínima	18.3
101136	7	Sololá	701	Sololá	4	Finca Santa Victoria	4	Abril	2023-04-14T00:00:00	2024-11-08T11:00:00	5	Humedad	60
101137	7	Sololá	701	Sololá	4	Finca Santa Victoria	4	Abril	2023-04-14T00:00:00	2024-11-08T11:00:00	6	Velocidad del viento	4.8
101138	7	Sololá	701	Sololá	4	Finca Santa Victoria	4	Abril	2023-04-14T00:00:00	2024-11-08T11:00:00	7	Dirección del viento	4.83
101139	7	Sololá	701	Sololá	4	Finca Santa Victoria	4	Abril	2023-04-14T00:00:00	2024-11-08T11:00:00	1	Precipitación	0
101140	7	Sololá	701	Sololá	4	Finca Santa Victoria	4	Abril	2023-04-14T00:00:00	2024-11-08T11:00:00	8	Radiación solar	923
101141	7	Sololá	701	Sololá	4	Finca Santa Victoria	4	Abril	2023-04-14T00:00:00	2024-11-08T12:00:00	2	Temperatura media	22.3
101142	7	Sololá	701	Sololá	4	Finca Santa Victoria	4	Abril	2023-04-14T00:00:00	2024-11-08T12:00:00	4	Temperatura máxima	22.3
101143	7	Sololá	701	Sololá	4	Finca Santa Victoria	4	Abril	2023-04-14T00:00:00	2024-11-08T12:00:00	3	Temperatura mínima	19.4
101144	7	Sololá	701	Sololá	4	Finca Santa Victoria	4	Abril	2023-04-14T00:00:00	2024-11-08T12:00:00	5	Humedad	54
101145	7	Sololá	701	Sololá	4	Finca Santa Victoria	4	Abril	2023-04-14T00:00:00	2024-11-08T12:00:00	6	Velocidad del viento	3.2
101146	7	Sololá	701	Sololá	4	Finca Santa Victoria	4	Abril	2023-04-14T00:00:00	2024-11-08T12:00:00	7	Dirección del viento	3.22
101147	7	Sololá	701	Sololá	4	Finca Santa Victoria	4	Abril	2023-04-14T00:00:00	2024-11-08T12:00:00	1	Precipitación	0
101148	7	Sololá	701	Sololá	4	Finca Santa Victoria	4	Abril	2023-04-14T00:00:00	2024-11-08T12:00:00	8	Radiación solar	1014
101149	7	Sololá	701	Sololá	4	Finca Santa Victoria	4	Abril	2023-04-14T00:00:00	2024-11-08T13:00:00	2	Temperatura media	20
101150	7	Sololá	701	Sololá	4	Finca Santa Victoria	4	Abril	2023-04-14T00:00:00	2024-11-08T13:00:00	4	Temperatura máxima	22.6
101151	7	Sololá	701	Sololá	4	Finca Santa Victoria	4	Abril	2023-04-14T00:00:00	2024-11-08T13:00:00	3	Temperatura mínima	19.9
101152	7	Sololá	701	Sololá	4	Finca Santa Victoria	4	Abril	2023-04-14T00:00:00	2024-11-08T13:00:00	5	Humedad	70
101153	7	Sololá	701	Sololá	4	Finca Santa Victoria	4	Abril	2023-04-14T00:00:00	2024-11-08T13:00:00	6	Velocidad del viento	6.4
101154	7	Sololá	701	Sololá	4	Finca Santa Victoria	4	Abril	2023-04-14T00:00:00	2024-11-08T13:00:00	7	Dirección del viento	6.44
101155	7	Sololá	701	Sololá	4	Finca Santa Victoria	4	Abril	2023-04-14T00:00:00	2024-11-08T13:00:00	1	Precipitación	0
101156	7	Sololá	701	Sololá	4	Finca Santa Victoria	4	Abril	2023-04-14T00:00:00	2024-11-08T13:00:00	8	Radiación solar	907
101157	7	Sololá	701	Sololá	4	Finca Santa Victoria	4	Abril	2023-04-14T00:00:00	2024-11-08T14:00:00	2	Temperatura media	19.5
101158	7	Sololá	701	Sololá	4	Finca Santa Victoria	4	Abril	2023-04-14T00:00:00	2024-11-08T14:00:00	4	Temperatura máxima	20.1
101159	7	Sololá	701	Sololá	4	Finca Santa Victoria	4	Abril	2023-04-14T00:00:00	2024-11-08T14:00:00	3	Temperatura mínima	19.4
101160	7	Sololá	701	Sololá	4	Finca Santa Victoria	4	Abril	2023-04-14T00:00:00	2024-11-08T14:00:00	5	Humedad	74
101161	7	Sololá	701	Sololá	4	Finca Santa Victoria	4	Abril	2023-04-14T00:00:00	2024-11-08T14:00:00	6	Velocidad del viento	6.4
101162	7	Sololá	701	Sololá	4	Finca Santa Victoria	4	Abril	2023-04-14T00:00:00	2024-11-08T14:00:00	7	Dirección del viento	6.44
101163	7	Sololá	701	Sololá	4	Finca Santa Victoria	4	Abril	2023-04-14T00:00:00	2024-11-08T14:00:00	1	Precipitación	0
101164	7	Sololá	701	Sololá	4	Finca Santa Victoria	4	Abril	2023-04-14T00:00:00	2024-11-08T14:00:00	8	Radiación solar	301
101165	7	Sololá	701	Sololá	4	Finca Santa Victoria	4	Abril	2023-04-14T00:00:00	2024-11-08T15:00:00	2	Temperatura media	18.5
101166	7	Sololá	701	Sololá	4	Finca Santa Victoria	4	Abril	2023-04-14T00:00:00	2024-11-08T15:00:00	4	Temperatura máxima	19.5
101167	7	Sololá	701	Sololá	4	Finca Santa Victoria	4	Abril	2023-04-14T00:00:00	2024-11-08T15:00:00	3	Temperatura mínima	18
101168	7	Sololá	701	Sololá	4	Finca Santa Victoria	4	Abril	2023-04-14T00:00:00	2024-11-08T15:00:00	5	Humedad	80
101169	7	Sololá	701	Sololá	4	Finca Santa Victoria	4	Abril	2023-04-14T00:00:00	2024-11-08T15:00:00	6	Velocidad del viento	4.8
101170	7	Sololá	701	Sololá	4	Finca Santa Victoria	4	Abril	2023-04-14T00:00:00	2024-11-08T15:00:00	7	Dirección del viento	4.83
101171	7	Sololá	701	Sololá	4	Finca Santa Victoria	4	Abril	2023-04-14T00:00:00	2024-11-08T15:00:00	1	Precipitación	0
101172	7	Sololá	701	Sololá	4	Finca Santa Victoria	4	Abril	2023-04-14T00:00:00	2024-11-08T15:00:00	8	Radiación solar	240
101173	7	Sololá	701	Sololá	4	Finca Santa Victoria	4	Abril	2023-04-14T00:00:00	2024-11-08T16:00:00	2	Temperatura media	17.3
101174	7	Sololá	701	Sololá	4	Finca Santa Victoria	4	Abril	2023-04-14T00:00:00	2024-11-08T16:00:00	4	Temperatura máxima	18.5
101175	7	Sololá	701	Sololá	4	Finca Santa Victoria	4	Abril	2023-04-14T00:00:00	2024-11-08T16:00:00	3	Temperatura mínima	17.1
101176	7	Sololá	701	Sololá	4	Finca Santa Victoria	4	Abril	2023-04-14T00:00:00	2024-11-08T16:00:00	5	Humedad	83
101177	7	Sololá	701	Sololá	4	Finca Santa Victoria	4	Abril	2023-04-14T00:00:00	2024-11-08T16:00:00	6	Velocidad del viento	4.8
101178	7	Sololá	701	Sololá	4	Finca Santa Victoria	4	Abril	2023-04-14T00:00:00	2024-11-08T16:00:00	7	Dirección del viento	4.83
101179	7	Sololá	701	Sololá	4	Finca Santa Victoria	4	Abril	2023-04-14T00:00:00	2024-11-08T16:00:00	1	Precipitación	0
101180	7	Sololá	701	Sololá	4	Finca Santa Victoria	4	Abril	2023-04-14T00:00:00	2024-11-08T16:00:00	8	Radiación solar	149
101181	7	Sololá	701	Sololá	4	Finca Santa Victoria	4	Abril	2023-04-14T00:00:00	2024-11-08T17:00:00	2	Temperatura media	16.1
101182	7	Sololá	701	Sololá	4	Finca Santa Victoria	4	Abril	2023-04-14T00:00:00	2024-11-08T17:00:00	4	Temperatura máxima	17.4
101183	7	Sololá	701	Sololá	4	Finca Santa Victoria	4	Abril	2023-04-14T00:00:00	2024-11-08T17:00:00	3	Temperatura mínima	16.1
101184	7	Sololá	701	Sololá	4	Finca Santa Victoria	4	Abril	2023-04-14T00:00:00	2024-11-08T17:00:00	5	Humedad	90
101185	7	Sololá	701	Sololá	4	Finca Santa Victoria	4	Abril	2023-04-14T00:00:00	2024-11-08T17:00:00	6	Velocidad del viento	3.2
101186	7	Sololá	701	Sololá	4	Finca Santa Victoria	4	Abril	2023-04-14T00:00:00	2024-11-08T17:00:00	7	Dirección del viento	3.22
101187	7	Sololá	701	Sololá	4	Finca Santa Victoria	4	Abril	2023-04-14T00:00:00	2024-11-08T17:00:00	1	Precipitación	0
101188	7	Sololá	701	Sololá	4	Finca Santa Victoria	4	Abril	2023-04-14T00:00:00	2024-11-08T17:00:00	8	Radiación solar	78
101189	7	Sololá	701	Sololá	4	Finca Santa Victoria	4	Abril	2023-04-14T00:00:00	2024-11-08T18:00:00	2	Temperatura media	15.5
101190	7	Sololá	701	Sololá	4	Finca Santa Victoria	4	Abril	2023-04-14T00:00:00	2024-11-08T18:00:00	4	Temperatura máxima	16.1
101191	7	Sololá	701	Sololá	4	Finca Santa Victoria	4	Abril	2023-04-14T00:00:00	2024-11-08T18:00:00	3	Temperatura mínima	15.5
101192	7	Sololá	701	Sololá	4	Finca Santa Victoria	4	Abril	2023-04-14T00:00:00	2024-11-08T18:00:00	5	Humedad	94
101193	7	Sololá	701	Sololá	4	Finca Santa Victoria	4	Abril	2023-04-14T00:00:00	2024-11-08T18:00:00	6	Velocidad del viento	1.6
101194	7	Sololá	701	Sololá	4	Finca Santa Victoria	4	Abril	2023-04-14T00:00:00	2024-11-08T18:00:00	7	Dirección del viento	1.61
101195	7	Sololá	701	Sololá	4	Finca Santa Victoria	4	Abril	2023-04-14T00:00:00	2024-11-08T18:00:00	1	Precipitación	0
101196	7	Sololá	701	Sololá	4	Finca Santa Victoria	4	Abril	2023-04-14T00:00:00	2024-11-08T18:00:00	8	Radiación solar	28
101197	7	Sololá	701	Sololá	4	Finca Santa Victoria	4	Abril	2023-04-14T00:00:00	2024-11-08T19:00:00	2	Temperatura media	14.8
101198	7	Sololá	701	Sololá	4	Finca Santa Victoria	4	Abril	2023-04-14T00:00:00	2024-11-08T19:00:00	4	Temperatura máxima	15.5
101199	7	Sololá	701	Sololá	4	Finca Santa Victoria	4	Abril	2023-04-14T00:00:00	2024-11-08T19:00:00	3	Temperatura mínima	14.8
101200	7	Sololá	701	Sololá	4	Finca Santa Victoria	4	Abril	2023-04-14T00:00:00	2024-11-08T19:00:00	5	Humedad	95
101201	7	Sololá	701	Sololá	4	Finca Santa Victoria	4	Abril	2023-04-14T00:00:00	2024-11-08T19:00:00	6	Velocidad del viento	1.6
101202	7	Sololá	701	Sololá	4	Finca Santa Victoria	4	Abril	2023-04-14T00:00:00	2024-11-08T19:00:00	7	Dirección del viento	1.61
101203	7	Sololá	701	Sololá	4	Finca Santa Victoria	4	Abril	2023-04-14T00:00:00	2024-11-08T19:00:00	1	Precipitación	0
101204	7	Sololá	701	Sololá	4	Finca Santa Victoria	4	Abril	2023-04-14T00:00:00	2024-11-08T19:00:00	8	Radiación solar	0
101205	7	Sololá	701	Sololá	4	Finca Santa Victoria	4	Abril	2023-04-14T00:00:00	2024-11-08T20:00:00	2	Temperatura media	14.6
101206	7	Sololá	701	Sololá	4	Finca Santa Victoria	4	Abril	2023-04-14T00:00:00	2024-11-08T20:00:00	4	Temperatura máxima	14.8
101207	7	Sololá	701	Sololá	4	Finca Santa Victoria	4	Abril	2023-04-14T00:00:00	2024-11-08T20:00:00	3	Temperatura mínima	14.4
101208	7	Sololá	701	Sololá	4	Finca Santa Victoria	4	Abril	2023-04-14T00:00:00	2024-11-08T20:00:00	5	Humedad	96
101209	7	Sololá	701	Sololá	4	Finca Santa Victoria	4	Abril	2023-04-14T00:00:00	2024-11-08T20:00:00	6	Velocidad del viento	0
101210	7	Sololá	701	Sololá	4	Finca Santa Victoria	4	Abril	2023-04-14T00:00:00	2024-11-08T20:00:00	7	Dirección del viento	0
101211	7	Sololá	701	Sololá	4	Finca Santa Victoria	4	Abril	2023-04-14T00:00:00	2024-11-08T20:00:00	1	Precipitación	0
101212	7	Sololá	701	Sololá	4	Finca Santa Victoria	4	Abril	2023-04-14T00:00:00	2024-11-08T20:00:00	8	Radiación solar	0
101213	7	Sololá	701	Sololá	4	Finca Santa Victoria	4	Abril	2023-04-14T00:00:00	2024-11-08T21:00:00	2	Temperatura media	14
101214	7	Sololá	701	Sololá	4	Finca Santa Victoria	4	Abril	2023-04-14T00:00:00	2024-11-08T21:00:00	4	Temperatura máxima	14.7
101215	7	Sololá	701	Sololá	4	Finca Santa Victoria	4	Abril	2023-04-14T00:00:00	2024-11-08T21:00:00	3	Temperatura mínima	14
101216	7	Sololá	701	Sololá	4	Finca Santa Victoria	4	Abril	2023-04-14T00:00:00	2024-11-08T21:00:00	5	Humedad	96
101217	7	Sololá	701	Sololá	4	Finca Santa Victoria	4	Abril	2023-04-14T00:00:00	2024-11-08T21:00:00	6	Velocidad del viento	0
101218	7	Sololá	701	Sololá	4	Finca Santa Victoria	4	Abril	2023-04-14T00:00:00	2024-11-08T21:00:00	7	Dirección del viento	0
101219	7	Sololá	701	Sololá	4	Finca Santa Victoria	4	Abril	2023-04-14T00:00:00	2024-11-08T21:00:00	1	Precipitación	0
101220	7	Sololá	701	Sololá	4	Finca Santa Victoria	4	Abril	2023-04-14T00:00:00	2024-11-08T21:00:00	8	Radiación solar	0
101221	7	Sololá	701	Sololá	4	Finca Santa Victoria	4	Abril	2023-04-14T00:00:00	2024-11-08T22:00:00	2	Temperatura media	14.2
101222	7	Sololá	701	Sololá	4	Finca Santa Victoria	4	Abril	2023-04-14T00:00:00	2024-11-08T22:00:00	4	Temperatura máxima	14.2
101223	7	Sololá	701	Sololá	4	Finca Santa Victoria	4	Abril	2023-04-14T00:00:00	2024-11-08T22:00:00	3	Temperatura mínima	13.8
101224	7	Sololá	701	Sololá	4	Finca Santa Victoria	4	Abril	2023-04-14T00:00:00	2024-11-08T22:00:00	5	Humedad	97
101225	7	Sololá	701	Sololá	4	Finca Santa Victoria	4	Abril	2023-04-14T00:00:00	2024-11-08T22:00:00	6	Velocidad del viento	0
101226	7	Sololá	701	Sololá	4	Finca Santa Victoria	4	Abril	2023-04-14T00:00:00	2024-11-08T22:00:00	7	Dirección del viento	0
101227	7	Sololá	701	Sololá	4	Finca Santa Victoria	4	Abril	2023-04-14T00:00:00	2024-11-08T22:00:00	1	Precipitación	0
101228	7	Sololá	701	Sololá	4	Finca Santa Victoria	4	Abril	2023-04-14T00:00:00	2024-11-08T22:00:00	8	Radiación solar	0
101229	7	Sololá	701	Sololá	4	Finca Santa Victoria	4	Abril	2023-04-14T00:00:00	2024-11-08T23:00:00	2	Temperatura media	14
101230	7	Sololá	701	Sololá	4	Finca Santa Victoria	4	Abril	2023-04-14T00:00:00	2024-11-08T23:00:00	4	Temperatura máxima	14.2
101231	7	Sololá	701	Sololá	4	Finca Santa Victoria	4	Abril	2023-04-14T00:00:00	2024-11-08T23:00:00	3	Temperatura mínima	14
101232	7	Sololá	701	Sololá	4	Finca Santa Victoria	4	Abril	2023-04-14T00:00:00	2024-11-08T23:00:00	5	Humedad	97
101233	7	Sololá	701	Sololá	4	Finca Santa Victoria	4	Abril	2023-04-14T00:00:00	2024-11-08T23:00:00	6	Velocidad del viento	0
101234	7	Sololá	701	Sololá	4	Finca Santa Victoria	4	Abril	2023-04-14T00:00:00	2024-11-08T23:00:00	7	Dirección del viento	0
101235	7	Sololá	701	Sololá	4	Finca Santa Victoria	4	Abril	2023-04-14T00:00:00	2024-11-08T23:00:00	1	Precipitación	0
101236	7	Sololá	701	Sololá	4	Finca Santa Victoria	4	Abril	2023-04-14T00:00:00	2024-11-08T23:00:00	8	Radiación solar	0
101237	7	Sololá	701	Sololá	4	Finca Santa Victoria	4	Abril	2023-04-15T00:00:00	2024-11-08T00:00:00	2	Temperatura media	13.6
101238	7	Sololá	701	Sololá	4	Finca Santa Victoria	4	Abril	2023-04-15T00:00:00	2024-11-08T00:00:00	4	Temperatura máxima	14
101239	7	Sololá	701	Sololá	4	Finca Santa Victoria	4	Abril	2023-04-15T00:00:00	2024-11-08T00:00:00	3	Temperatura mínima	13.4
101240	7	Sololá	701	Sololá	4	Finca Santa Victoria	4	Abril	2023-04-15T00:00:00	2024-11-08T00:00:00	5	Humedad	97
101241	7	Sololá	701	Sololá	4	Finca Santa Victoria	4	Abril	2023-04-15T00:00:00	2024-11-08T00:00:00	6	Velocidad del viento	0
101242	7	Sololá	701	Sololá	4	Finca Santa Victoria	4	Abril	2023-04-15T00:00:00	2024-11-08T00:00:00	7	Dirección del viento	0
101243	7	Sololá	701	Sololá	4	Finca Santa Victoria	4	Abril	2023-04-15T00:00:00	2024-11-08T00:00:00	1	Precipitación	0
101244	7	Sololá	701	Sololá	4	Finca Santa Victoria	4	Abril	2023-04-15T00:00:00	2024-11-08T00:00:00	8	Radiación solar	0
101245	7	Sololá	701	Sololá	4	Finca Santa Victoria	4	Abril	2023-04-15T00:00:00	2024-11-08T01:00:00	2	Temperatura media	13.6
101246	7	Sololá	701	Sololá	4	Finca Santa Victoria	4	Abril	2023-04-15T00:00:00	2024-11-08T01:00:00	4	Temperatura máxima	13.7
101247	7	Sololá	701	Sololá	4	Finca Santa Victoria	4	Abril	2023-04-15T00:00:00	2024-11-08T01:00:00	3	Temperatura mínima	13.6
101248	7	Sololá	701	Sololá	4	Finca Santa Victoria	4	Abril	2023-04-15T00:00:00	2024-11-08T01:00:00	5	Humedad	97
101249	7	Sololá	701	Sololá	4	Finca Santa Victoria	4	Abril	2023-04-15T00:00:00	2024-11-08T01:00:00	6	Velocidad del viento	0
101250	7	Sololá	701	Sololá	4	Finca Santa Victoria	4	Abril	2023-04-15T00:00:00	2024-11-08T01:00:00	7	Dirección del viento	0
101251	7	Sololá	701	Sololá	4	Finca Santa Victoria	4	Abril	2023-04-15T00:00:00	2024-11-08T01:00:00	1	Precipitación	0
101252	7	Sololá	701	Sololá	4	Finca Santa Victoria	4	Abril	2023-04-15T00:00:00	2024-11-08T01:00:00	8	Radiación solar	0
101253	7	Sololá	701	Sololá	4	Finca Santa Victoria	4	Abril	2023-04-15T00:00:00	2024-11-08T02:00:00	2	Temperatura media	13.2
101254	7	Sololá	701	Sololá	4	Finca Santa Victoria	4	Abril	2023-04-15T00:00:00	2024-11-08T02:00:00	4	Temperatura máxima	13.6
101255	7	Sololá	701	Sololá	4	Finca Santa Victoria	4	Abril	2023-04-15T00:00:00	2024-11-08T02:00:00	3	Temperatura mínima	13.1
101256	7	Sololá	701	Sololá	4	Finca Santa Victoria	4	Abril	2023-04-15T00:00:00	2024-11-08T02:00:00	5	Humedad	97
101257	7	Sololá	701	Sololá	4	Finca Santa Victoria	4	Abril	2023-04-15T00:00:00	2024-11-08T02:00:00	6	Velocidad del viento	0
101258	7	Sololá	701	Sololá	4	Finca Santa Victoria	4	Abril	2023-04-15T00:00:00	2024-11-08T02:00:00	7	Dirección del viento	0
101259	7	Sololá	701	Sololá	4	Finca Santa Victoria	4	Abril	2023-04-15T00:00:00	2024-11-08T02:00:00	1	Precipitación	0
101260	7	Sololá	701	Sololá	4	Finca Santa Victoria	4	Abril	2023-04-15T00:00:00	2024-11-08T02:00:00	8	Radiación solar	0
101261	7	Sololá	701	Sololá	4	Finca Santa Victoria	4	Abril	2023-04-15T00:00:00	2024-11-08T03:00:00	2	Temperatura media	13.3
101262	7	Sololá	701	Sololá	4	Finca Santa Victoria	4	Abril	2023-04-15T00:00:00	2024-11-08T03:00:00	4	Temperatura máxima	13.3
101263	7	Sololá	701	Sololá	4	Finca Santa Victoria	4	Abril	2023-04-15T00:00:00	2024-11-08T03:00:00	3	Temperatura mínima	13.2
101264	7	Sololá	701	Sololá	4	Finca Santa Victoria	4	Abril	2023-04-15T00:00:00	2024-11-08T03:00:00	5	Humedad	97
101265	7	Sololá	701	Sololá	4	Finca Santa Victoria	4	Abril	2023-04-15T00:00:00	2024-11-08T03:00:00	6	Velocidad del viento	0
101266	7	Sololá	701	Sololá	4	Finca Santa Victoria	4	Abril	2023-04-15T00:00:00	2024-11-08T03:00:00	7	Dirección del viento	0
101267	7	Sololá	701	Sololá	4	Finca Santa Victoria	4	Abril	2023-04-15T00:00:00	2024-11-08T03:00:00	1	Precipitación	0
101268	7	Sololá	701	Sololá	4	Finca Santa Victoria	4	Abril	2023-04-15T00:00:00	2024-11-08T03:00:00	8	Radiación solar	0
101269	7	Sololá	701	Sololá	4	Finca Santa Victoria	4	Abril	2023-04-15T00:00:00	2024-11-08T04:00:00	2	Temperatura media	12.7
101270	7	Sololá	701	Sololá	4	Finca Santa Victoria	4	Abril	2023-04-15T00:00:00	2024-11-08T04:00:00	4	Temperatura máxima	13.3
101271	7	Sololá	701	Sololá	4	Finca Santa Victoria	4	Abril	2023-04-15T00:00:00	2024-11-08T04:00:00	3	Temperatura mínima	12.7
101272	7	Sololá	701	Sololá	4	Finca Santa Victoria	4	Abril	2023-04-15T00:00:00	2024-11-08T04:00:00	5	Humedad	97
101273	7	Sololá	701	Sololá	4	Finca Santa Victoria	4	Abril	2023-04-15T00:00:00	2024-11-08T04:00:00	6	Velocidad del viento	0
101274	7	Sololá	701	Sololá	4	Finca Santa Victoria	4	Abril	2023-04-15T00:00:00	2024-11-08T04:00:00	7	Dirección del viento	0
101275	7	Sololá	701	Sololá	4	Finca Santa Victoria	4	Abril	2023-04-15T00:00:00	2024-11-08T04:00:00	1	Precipitación	0
101276	7	Sololá	701	Sololá	4	Finca Santa Victoria	4	Abril	2023-04-15T00:00:00	2024-11-08T04:00:00	8	Radiación solar	0
101277	7	Sololá	701	Sololá	4	Finca Santa Victoria	4	Abril	2023-04-15T00:00:00	2024-11-08T05:00:00	2	Temperatura media	12.7
101278	7	Sololá	701	Sololá	4	Finca Santa Victoria	4	Abril	2023-04-15T00:00:00	2024-11-08T05:00:00	4	Temperatura máxima	12.7
101279	7	Sololá	701	Sololá	4	Finca Santa Victoria	4	Abril	2023-04-15T00:00:00	2024-11-08T05:00:00	3	Temperatura mínima	12.6
101280	7	Sololá	701	Sololá	4	Finca Santa Victoria	4	Abril	2023-04-15T00:00:00	2024-11-08T05:00:00	5	Humedad	96
101281	7	Sololá	701	Sololá	4	Finca Santa Victoria	4	Abril	2023-04-15T00:00:00	2024-11-08T05:00:00	6	Velocidad del viento	1.6
101282	7	Sololá	701	Sololá	4	Finca Santa Victoria	4	Abril	2023-04-15T00:00:00	2024-11-08T05:00:00	7	Dirección del viento	1.61
101283	7	Sololá	701	Sololá	4	Finca Santa Victoria	4	Abril	2023-04-15T00:00:00	2024-11-08T05:00:00	1	Precipitación	0
101284	7	Sololá	701	Sololá	4	Finca Santa Victoria	4	Abril	2023-04-15T00:00:00	2024-11-08T05:00:00	8	Radiación solar	0
101285	7	Sololá	701	Sololá	4	Finca Santa Victoria	4	Abril	2023-04-15T00:00:00	2024-11-08T06:00:00	2	Temperatura media	12.6
101286	7	Sololá	701	Sololá	4	Finca Santa Victoria	4	Abril	2023-04-15T00:00:00	2024-11-08T06:00:00	4	Temperatura máxima	12.7
101287	7	Sololá	701	Sololá	4	Finca Santa Victoria	4	Abril	2023-04-15T00:00:00	2024-11-08T06:00:00	3	Temperatura mínima	12.6
101288	7	Sololá	701	Sololá	4	Finca Santa Victoria	4	Abril	2023-04-15T00:00:00	2024-11-08T06:00:00	5	Humedad	94
101289	7	Sololá	701	Sololá	4	Finca Santa Victoria	4	Abril	2023-04-15T00:00:00	2024-11-08T06:00:00	6	Velocidad del viento	1.6
101290	7	Sololá	701	Sololá	4	Finca Santa Victoria	4	Abril	2023-04-15T00:00:00	2024-11-08T06:00:00	7	Dirección del viento	1.61
101291	7	Sololá	701	Sololá	4	Finca Santa Victoria	4	Abril	2023-04-15T00:00:00	2024-11-08T06:00:00	1	Precipitación	0
101292	7	Sololá	701	Sololá	4	Finca Santa Victoria	4	Abril	2023-04-15T00:00:00	2024-11-08T06:00:00	8	Radiación solar	0
101293	7	Sololá	701	Sololá	4	Finca Santa Victoria	4	Abril	2023-04-15T00:00:00	2024-11-08T07:00:00	2	Temperatura media	13.2
101294	7	Sololá	701	Sololá	4	Finca Santa Victoria	4	Abril	2023-04-15T00:00:00	2024-11-08T07:00:00	4	Temperatura máxima	13.2
101295	7	Sololá	701	Sololá	4	Finca Santa Victoria	4	Abril	2023-04-15T00:00:00	2024-11-08T07:00:00	3	Temperatura mínima	12.6
101296	7	Sololá	701	Sololá	4	Finca Santa Victoria	4	Abril	2023-04-15T00:00:00	2024-11-08T07:00:00	5	Humedad	92
101297	7	Sololá	701	Sololá	4	Finca Santa Victoria	4	Abril	2023-04-15T00:00:00	2024-11-08T07:00:00	6	Velocidad del viento	0
101298	7	Sololá	701	Sololá	4	Finca Santa Victoria	4	Abril	2023-04-15T00:00:00	2024-11-08T07:00:00	7	Dirección del viento	0
101299	7	Sololá	701	Sololá	4	Finca Santa Victoria	4	Abril	2023-04-15T00:00:00	2024-11-08T07:00:00	1	Precipitación	0
101300	7	Sololá	701	Sololá	4	Finca Santa Victoria	4	Abril	2023-04-15T00:00:00	2024-11-08T07:00:00	8	Radiación solar	29
101301	7	Sololá	701	Sololá	4	Finca Santa Victoria	4	Abril	2023-04-15T00:00:00	2024-11-08T08:00:00	2	Temperatura media	15.3
101302	7	Sololá	701	Sololá	4	Finca Santa Victoria	4	Abril	2023-04-15T00:00:00	2024-11-08T08:00:00	4	Temperatura máxima	15.8
101303	7	Sololá	701	Sololá	4	Finca Santa Victoria	4	Abril	2023-04-15T00:00:00	2024-11-08T08:00:00	3	Temperatura mínima	13.1
101304	7	Sololá	701	Sololá	4	Finca Santa Victoria	4	Abril	2023-04-15T00:00:00	2024-11-08T08:00:00	5	Humedad	85
101305	7	Sololá	701	Sololá	4	Finca Santa Victoria	4	Abril	2023-04-15T00:00:00	2024-11-08T08:00:00	6	Velocidad del viento	0
101306	7	Sololá	701	Sololá	4	Finca Santa Victoria	4	Abril	2023-04-15T00:00:00	2024-11-08T08:00:00	7	Dirección del viento	0
101307	7	Sololá	701	Sololá	4	Finca Santa Victoria	4	Abril	2023-04-15T00:00:00	2024-11-08T08:00:00	1	Precipitación	0
101308	7	Sololá	701	Sololá	4	Finca Santa Victoria	4	Abril	2023-04-15T00:00:00	2024-11-08T08:00:00	8	Radiación solar	163
101309	7	Sololá	701	Sololá	4	Finca Santa Victoria	4	Abril	2023-04-15T00:00:00	2024-11-08T09:00:00	2	Temperatura media	17.1
101310	7	Sololá	701	Sololá	4	Finca Santa Victoria	4	Abril	2023-04-15T00:00:00	2024-11-08T09:00:00	4	Temperatura máxima	17.4
101311	7	Sololá	701	Sololá	4	Finca Santa Victoria	4	Abril	2023-04-15T00:00:00	2024-11-08T09:00:00	3	Temperatura mínima	15.2
101312	7	Sololá	701	Sololá	4	Finca Santa Victoria	4	Abril	2023-04-15T00:00:00	2024-11-08T09:00:00	5	Humedad	76
101313	7	Sololá	701	Sololá	4	Finca Santa Victoria	4	Abril	2023-04-15T00:00:00	2024-11-08T09:00:00	6	Velocidad del viento	1.6
101314	7	Sololá	701	Sololá	4	Finca Santa Victoria	4	Abril	2023-04-15T00:00:00	2024-11-08T09:00:00	7	Dirección del viento	1.61
101315	7	Sololá	701	Sololá	4	Finca Santa Victoria	4	Abril	2023-04-15T00:00:00	2024-11-08T09:00:00	1	Precipitación	0
101316	7	Sololá	701	Sololá	4	Finca Santa Victoria	4	Abril	2023-04-15T00:00:00	2024-11-08T09:00:00	8	Radiación solar	473
101317	7	Sololá	701	Sololá	4	Finca Santa Victoria	4	Abril	2023-04-15T00:00:00	2024-11-08T10:00:00	2	Temperatura media	18.8
101318	7	Sololá	701	Sololá	4	Finca Santa Victoria	4	Abril	2023-04-15T00:00:00	2024-11-08T10:00:00	4	Temperatura máxima	18.8
101319	7	Sololá	701	Sololá	4	Finca Santa Victoria	4	Abril	2023-04-15T00:00:00	2024-11-08T10:00:00	3	Temperatura mínima	17.1
101320	7	Sololá	701	Sololá	4	Finca Santa Victoria	4	Abril	2023-04-15T00:00:00	2024-11-08T10:00:00	5	Humedad	69
101321	7	Sololá	701	Sololá	4	Finca Santa Victoria	4	Abril	2023-04-15T00:00:00	2024-11-08T10:00:00	6	Velocidad del viento	3.2
101322	7	Sololá	701	Sololá	4	Finca Santa Victoria	4	Abril	2023-04-15T00:00:00	2024-11-08T10:00:00	7	Dirección del viento	3.22
101323	7	Sololá	701	Sololá	4	Finca Santa Victoria	4	Abril	2023-04-15T00:00:00	2024-11-08T10:00:00	1	Precipitación	0
101324	7	Sololá	701	Sololá	4	Finca Santa Victoria	4	Abril	2023-04-15T00:00:00	2024-11-08T10:00:00	8	Radiación solar	339
101325	7	Sololá	701	Sololá	4	Finca Santa Victoria	4	Abril	2023-04-15T00:00:00	2024-11-08T11:00:00	2	Temperatura media	19.3
101326	7	Sololá	701	Sololá	4	Finca Santa Victoria	4	Abril	2023-04-15T00:00:00	2024-11-08T11:00:00	4	Temperatura máxima	19.3
101327	7	Sololá	701	Sololá	4	Finca Santa Victoria	4	Abril	2023-04-15T00:00:00	2024-11-08T11:00:00	3	Temperatura mínima	18.6
101328	7	Sololá	701	Sololá	4	Finca Santa Victoria	4	Abril	2023-04-15T00:00:00	2024-11-08T11:00:00	5	Humedad	70
101329	7	Sololá	701	Sololá	4	Finca Santa Victoria	4	Abril	2023-04-15T00:00:00	2024-11-08T11:00:00	6	Velocidad del viento	4.8
101330	7	Sololá	701	Sololá	4	Finca Santa Victoria	4	Abril	2023-04-15T00:00:00	2024-11-08T11:00:00	7	Dirección del viento	4.83
101331	7	Sololá	701	Sololá	4	Finca Santa Victoria	4	Abril	2023-04-15T00:00:00	2024-11-08T11:00:00	1	Precipitación	0
101332	7	Sololá	701	Sololá	4	Finca Santa Victoria	4	Abril	2023-04-15T00:00:00	2024-11-08T11:00:00	8	Radiación solar	871
101333	7	Sololá	701	Sololá	4	Finca Santa Victoria	4	Abril	2023-04-15T00:00:00	2024-11-08T12:00:00	2	Temperatura media	18.4
101334	7	Sololá	701	Sololá	4	Finca Santa Victoria	4	Abril	2023-04-15T00:00:00	2024-11-08T12:00:00	4	Temperatura máxima	19.6
101335	7	Sololá	701	Sololá	4	Finca Santa Victoria	4	Abril	2023-04-15T00:00:00	2024-11-08T12:00:00	3	Temperatura mínima	18.4
101336	7	Sololá	701	Sololá	4	Finca Santa Victoria	4	Abril	2023-04-15T00:00:00	2024-11-08T12:00:00	5	Humedad	77
101337	7	Sololá	701	Sololá	4	Finca Santa Victoria	4	Abril	2023-04-15T00:00:00	2024-11-08T12:00:00	6	Velocidad del viento	6.4
101338	7	Sololá	701	Sololá	4	Finca Santa Victoria	4	Abril	2023-04-15T00:00:00	2024-11-08T12:00:00	7	Dirección del viento	6.44
101339	7	Sololá	701	Sololá	4	Finca Santa Victoria	4	Abril	2023-04-15T00:00:00	2024-11-08T12:00:00	1	Precipitación	0
101340	7	Sololá	701	Sololá	4	Finca Santa Victoria	4	Abril	2023-04-15T00:00:00	2024-11-08T12:00:00	8	Radiación solar	725
101341	7	Sololá	701	Sololá	4	Finca Santa Victoria	4	Abril	2023-04-15T00:00:00	2024-11-08T13:00:00	2	Temperatura media	18.5
101342	7	Sololá	701	Sololá	4	Finca Santa Victoria	4	Abril	2023-04-15T00:00:00	2024-11-08T13:00:00	4	Temperatura máxima	18.7
101343	7	Sololá	701	Sololá	4	Finca Santa Victoria	4	Abril	2023-04-15T00:00:00	2024-11-08T13:00:00	3	Temperatura mínima	18
101344	7	Sololá	701	Sololá	4	Finca Santa Victoria	4	Abril	2023-04-15T00:00:00	2024-11-08T13:00:00	5	Humedad	81
101345	7	Sololá	701	Sololá	4	Finca Santa Victoria	4	Abril	2023-04-15T00:00:00	2024-11-08T13:00:00	6	Velocidad del viento	4.8
101346	7	Sololá	701	Sololá	4	Finca Santa Victoria	4	Abril	2023-04-15T00:00:00	2024-11-08T13:00:00	7	Dirección del viento	4.83
101347	7	Sololá	701	Sololá	4	Finca Santa Victoria	4	Abril	2023-04-15T00:00:00	2024-11-08T13:00:00	1	Precipitación	0
101348	7	Sololá	701	Sololá	4	Finca Santa Victoria	4	Abril	2023-04-15T00:00:00	2024-11-08T13:00:00	8	Radiación solar	363
101349	7	Sololá	701	Sololá	4	Finca Santa Victoria	4	Abril	2023-04-15T00:00:00	2024-11-08T14:00:00	2	Temperatura media	18.3
101350	7	Sololá	701	Sololá	4	Finca Santa Victoria	4	Abril	2023-04-15T00:00:00	2024-11-08T14:00:00	4	Temperatura máxima	19.6
101351	7	Sololá	701	Sololá	4	Finca Santa Victoria	4	Abril	2023-04-15T00:00:00	2024-11-08T14:00:00	3	Temperatura mínima	18.1
101352	7	Sololá	701	Sololá	4	Finca Santa Victoria	4	Abril	2023-04-15T00:00:00	2024-11-08T14:00:00	5	Humedad	83
101353	7	Sololá	701	Sololá	4	Finca Santa Victoria	4	Abril	2023-04-15T00:00:00	2024-11-08T14:00:00	6	Velocidad del viento	4.8
101354	7	Sololá	701	Sololá	4	Finca Santa Victoria	4	Abril	2023-04-15T00:00:00	2024-11-08T14:00:00	7	Dirección del viento	4.83
101355	7	Sololá	701	Sololá	4	Finca Santa Victoria	4	Abril	2023-04-15T00:00:00	2024-11-08T14:00:00	1	Precipitación	0
101356	7	Sololá	701	Sololá	4	Finca Santa Victoria	4	Abril	2023-04-15T00:00:00	2024-11-08T14:00:00	8	Radiación solar	341
101357	7	Sololá	701	Sololá	4	Finca Santa Victoria	4	Abril	2023-04-15T00:00:00	2024-11-08T15:00:00	2	Temperatura media	17.4
101358	7	Sololá	701	Sololá	4	Finca Santa Victoria	4	Abril	2023-04-15T00:00:00	2024-11-08T15:00:00	4	Temperatura máxima	18.4
101359	7	Sololá	701	Sololá	4	Finca Santa Victoria	4	Abril	2023-04-15T00:00:00	2024-11-08T15:00:00	3	Temperatura mínima	17.4
101360	7	Sololá	701	Sololá	4	Finca Santa Victoria	4	Abril	2023-04-15T00:00:00	2024-11-08T15:00:00	5	Humedad	86
101361	7	Sololá	701	Sololá	4	Finca Santa Victoria	4	Abril	2023-04-15T00:00:00	2024-11-08T15:00:00	6	Velocidad del viento	4.8
101362	7	Sololá	701	Sololá	4	Finca Santa Victoria	4	Abril	2023-04-15T00:00:00	2024-11-08T15:00:00	7	Dirección del viento	4.83
101363	7	Sololá	701	Sololá	4	Finca Santa Victoria	4	Abril	2023-04-15T00:00:00	2024-11-08T15:00:00	1	Precipitación	0
101364	7	Sololá	701	Sololá	4	Finca Santa Victoria	4	Abril	2023-04-15T00:00:00	2024-11-08T15:00:00	8	Radiación solar	179
101365	7	Sololá	701	Sololá	4	Finca Santa Victoria	4	Abril	2023-04-15T00:00:00	2024-11-08T16:00:00	2	Temperatura media	16.4
101366	7	Sololá	701	Sololá	4	Finca Santa Victoria	4	Abril	2023-04-15T00:00:00	2024-11-08T16:00:00	4	Temperatura máxima	17.5
101367	7	Sololá	701	Sololá	4	Finca Santa Victoria	4	Abril	2023-04-15T00:00:00	2024-11-08T16:00:00	3	Temperatura mínima	16.3
101368	7	Sololá	701	Sololá	4	Finca Santa Victoria	4	Abril	2023-04-15T00:00:00	2024-11-08T16:00:00	5	Humedad	91
101369	7	Sololá	701	Sololá	4	Finca Santa Victoria	4	Abril	2023-04-15T00:00:00	2024-11-08T16:00:00	6	Velocidad del viento	3.2
101370	7	Sololá	701	Sololá	4	Finca Santa Victoria	4	Abril	2023-04-15T00:00:00	2024-11-08T16:00:00	7	Dirección del viento	3.22
101371	7	Sololá	701	Sololá	4	Finca Santa Victoria	4	Abril	2023-04-15T00:00:00	2024-11-08T16:00:00	1	Precipitación	0
101372	7	Sololá	701	Sololá	4	Finca Santa Victoria	4	Abril	2023-04-15T00:00:00	2024-11-08T16:00:00	8	Radiación solar	120
101373	7	Sololá	701	Sololá	4	Finca Santa Victoria	4	Abril	2023-04-15T00:00:00	2024-11-08T17:00:00	2	Temperatura media	15.9
101374	7	Sololá	701	Sololá	4	Finca Santa Victoria	4	Abril	2023-04-15T00:00:00	2024-11-08T17:00:00	4	Temperatura máxima	16.4
101375	7	Sololá	701	Sololá	4	Finca Santa Victoria	4	Abril	2023-04-15T00:00:00	2024-11-08T17:00:00	3	Temperatura mínima	15.8
101376	7	Sololá	701	Sololá	4	Finca Santa Victoria	4	Abril	2023-04-15T00:00:00	2024-11-08T17:00:00	5	Humedad	94
101377	7	Sololá	701	Sololá	4	Finca Santa Victoria	4	Abril	2023-04-15T00:00:00	2024-11-08T17:00:00	6	Velocidad del viento	1.6
101378	7	Sololá	701	Sololá	4	Finca Santa Victoria	4	Abril	2023-04-15T00:00:00	2024-11-08T17:00:00	7	Dirección del viento	1.61
101379	7	Sololá	701	Sololá	4	Finca Santa Victoria	4	Abril	2023-04-15T00:00:00	2024-11-08T17:00:00	1	Precipitación	0
101380	7	Sololá	701	Sololá	4	Finca Santa Victoria	4	Abril	2023-04-15T00:00:00	2024-11-08T17:00:00	8	Radiación solar	38
101381	7	Sololá	701	Sololá	4	Finca Santa Victoria	4	Abril	2023-04-15T00:00:00	2024-11-08T18:00:00	2	Temperatura media	15.3
101382	7	Sololá	701	Sololá	4	Finca Santa Victoria	4	Abril	2023-04-15T00:00:00	2024-11-08T18:00:00	4	Temperatura máxima	15.9
101383	7	Sololá	701	Sololá	4	Finca Santa Victoria	4	Abril	2023-04-15T00:00:00	2024-11-08T18:00:00	3	Temperatura mínima	15.3
101384	7	Sololá	701	Sololá	4	Finca Santa Victoria	4	Abril	2023-04-15T00:00:00	2024-11-08T18:00:00	5	Humedad	96
101385	7	Sololá	701	Sololá	4	Finca Santa Victoria	4	Abril	2023-04-15T00:00:00	2024-11-08T18:00:00	6	Velocidad del viento	1.6
101386	7	Sololá	701	Sololá	4	Finca Santa Victoria	4	Abril	2023-04-15T00:00:00	2024-11-08T18:00:00	7	Dirección del viento	1.61
101387	7	Sololá	701	Sololá	4	Finca Santa Victoria	4	Abril	2023-04-15T00:00:00	2024-11-08T18:00:00	1	Precipitación	0
101388	7	Sololá	701	Sololá	4	Finca Santa Victoria	4	Abril	2023-04-15T00:00:00	2024-11-08T18:00:00	8	Radiación solar	6
101389	7	Sololá	701	Sololá	4	Finca Santa Victoria	4	Abril	2023-04-15T00:00:00	2024-11-08T19:00:00	2	Temperatura media	15.1
101390	7	Sololá	701	Sololá	4	Finca Santa Victoria	4	Abril	2023-04-15T00:00:00	2024-11-08T19:00:00	4	Temperatura máxima	15.3
101391	7	Sololá	701	Sololá	4	Finca Santa Victoria	4	Abril	2023-04-15T00:00:00	2024-11-08T19:00:00	3	Temperatura mínima	15
101392	7	Sololá	701	Sololá	4	Finca Santa Victoria	4	Abril	2023-04-15T00:00:00	2024-11-08T19:00:00	5	Humedad	96
101393	7	Sololá	701	Sololá	4	Finca Santa Victoria	4	Abril	2023-04-15T00:00:00	2024-11-08T19:00:00	6	Velocidad del viento	1.6
101394	7	Sololá	701	Sololá	4	Finca Santa Victoria	4	Abril	2023-04-15T00:00:00	2024-11-08T19:00:00	7	Dirección del viento	1.61
101395	7	Sololá	701	Sololá	4	Finca Santa Victoria	4	Abril	2023-04-15T00:00:00	2024-11-08T19:00:00	1	Precipitación	0
101396	7	Sololá	701	Sololá	4	Finca Santa Victoria	4	Abril	2023-04-15T00:00:00	2024-11-08T19:00:00	8	Radiación solar	0
101397	7	Sololá	701	Sololá	4	Finca Santa Victoria	4	Abril	2023-04-15T00:00:00	2024-11-08T20:00:00	2	Temperatura media	14.7
101398	7	Sololá	701	Sololá	4	Finca Santa Victoria	4	Abril	2023-04-15T00:00:00	2024-11-08T20:00:00	4	Temperatura máxima	15.2
101399	7	Sololá	701	Sololá	4	Finca Santa Victoria	4	Abril	2023-04-15T00:00:00	2024-11-08T20:00:00	3	Temperatura mínima	14.7
101400	7	Sololá	701	Sololá	4	Finca Santa Victoria	4	Abril	2023-04-15T00:00:00	2024-11-08T20:00:00	5	Humedad	96
101401	7	Sololá	701	Sololá	4	Finca Santa Victoria	4	Abril	2023-04-15T00:00:00	2024-11-08T20:00:00	6	Velocidad del viento	0
101402	7	Sololá	701	Sololá	4	Finca Santa Victoria	4	Abril	2023-04-15T00:00:00	2024-11-08T20:00:00	7	Dirección del viento	0
101403	7	Sololá	701	Sololá	4	Finca Santa Victoria	4	Abril	2023-04-15T00:00:00	2024-11-08T20:00:00	1	Precipitación	0
101404	7	Sololá	701	Sololá	4	Finca Santa Victoria	4	Abril	2023-04-15T00:00:00	2024-11-08T20:00:00	8	Radiación solar	0
101405	7	Sololá	701	Sololá	4	Finca Santa Victoria	4	Abril	2023-04-15T00:00:00	2024-11-08T21:00:00	2	Temperatura media	14.8
101406	7	Sololá	701	Sololá	4	Finca Santa Victoria	4	Abril	2023-04-15T00:00:00	2024-11-08T21:00:00	4	Temperatura máxima	14.9
101407	7	Sololá	701	Sololá	4	Finca Santa Victoria	4	Abril	2023-04-15T00:00:00	2024-11-08T21:00:00	3	Temperatura mínima	14.7
101408	7	Sololá	701	Sololá	4	Finca Santa Victoria	4	Abril	2023-04-15T00:00:00	2024-11-08T21:00:00	5	Humedad	96
101409	7	Sololá	701	Sololá	4	Finca Santa Victoria	4	Abril	2023-04-15T00:00:00	2024-11-08T21:00:00	6	Velocidad del viento	0
101410	7	Sololá	701	Sololá	4	Finca Santa Victoria	4	Abril	2023-04-15T00:00:00	2024-11-08T21:00:00	7	Dirección del viento	0
101411	7	Sololá	701	Sololá	4	Finca Santa Victoria	4	Abril	2023-04-15T00:00:00	2024-11-08T21:00:00	1	Precipitación	0
101412	7	Sololá	701	Sololá	4	Finca Santa Victoria	4	Abril	2023-04-15T00:00:00	2024-11-08T21:00:00	8	Radiación solar	0
101413	7	Sololá	701	Sololá	4	Finca Santa Victoria	4	Abril	2023-04-15T00:00:00	2024-11-08T22:00:00	2	Temperatura media	14.6
101414	7	Sololá	701	Sololá	4	Finca Santa Victoria	4	Abril	2023-04-15T00:00:00	2024-11-08T22:00:00	4	Temperatura máxima	14.8
101415	7	Sololá	701	Sololá	4	Finca Santa Victoria	4	Abril	2023-04-15T00:00:00	2024-11-08T22:00:00	3	Temperatura mínima	14.6
101416	7	Sololá	701	Sololá	4	Finca Santa Victoria	4	Abril	2023-04-15T00:00:00	2024-11-08T22:00:00	5	Humedad	97
101417	7	Sololá	701	Sololá	4	Finca Santa Victoria	4	Abril	2023-04-15T00:00:00	2024-11-08T22:00:00	6	Velocidad del viento	0
101418	7	Sololá	701	Sololá	4	Finca Santa Victoria	4	Abril	2023-04-15T00:00:00	2024-11-08T22:00:00	7	Dirección del viento	0
101419	7	Sololá	701	Sololá	4	Finca Santa Victoria	4	Abril	2023-04-15T00:00:00	2024-11-08T22:00:00	1	Precipitación	0
101420	7	Sololá	701	Sololá	4	Finca Santa Victoria	4	Abril	2023-04-15T00:00:00	2024-11-08T22:00:00	8	Radiación solar	0
101421	7	Sololá	701	Sololá	4	Finca Santa Victoria	4	Abril	2023-04-15T00:00:00	2024-11-08T23:00:00	2	Temperatura media	13.9
101422	7	Sololá	701	Sololá	4	Finca Santa Victoria	4	Abril	2023-04-15T00:00:00	2024-11-08T23:00:00	4	Temperatura máxima	14.6
101423	7	Sololá	701	Sololá	4	Finca Santa Victoria	4	Abril	2023-04-15T00:00:00	2024-11-08T23:00:00	3	Temperatura mínima	13.9
101424	7	Sololá	701	Sololá	4	Finca Santa Victoria	4	Abril	2023-04-15T00:00:00	2024-11-08T23:00:00	5	Humedad	96
101425	7	Sololá	701	Sololá	4	Finca Santa Victoria	4	Abril	2023-04-15T00:00:00	2024-11-08T23:00:00	6	Velocidad del viento	0
101426	7	Sololá	701	Sololá	4	Finca Santa Victoria	4	Abril	2023-04-15T00:00:00	2024-11-08T23:00:00	7	Dirección del viento	0
101427	7	Sololá	701	Sololá	4	Finca Santa Victoria	4	Abril	2023-04-15T00:00:00	2024-11-08T23:00:00	1	Precipitación	0
101428	7	Sololá	701	Sololá	4	Finca Santa Victoria	4	Abril	2023-04-15T00:00:00	2024-11-08T23:00:00	8	Radiación solar	0
101429	7	Sololá	701	Sololá	4	Finca Santa Victoria	4	Abril	2023-04-16T00:00:00	2024-11-08T00:00:00	2	Temperatura media	14.4
101430	7	Sololá	701	Sololá	4	Finca Santa Victoria	4	Abril	2023-04-16T00:00:00	2024-11-08T00:00:00	4	Temperatura máxima	14.4
101431	7	Sololá	701	Sololá	4	Finca Santa Victoria	4	Abril	2023-04-16T00:00:00	2024-11-08T00:00:00	3	Temperatura mínima	13.9
101432	7	Sololá	701	Sololá	4	Finca Santa Victoria	4	Abril	2023-04-16T00:00:00	2024-11-08T00:00:00	5	Humedad	93
101433	7	Sololá	701	Sololá	4	Finca Santa Victoria	4	Abril	2023-04-16T00:00:00	2024-11-08T00:00:00	6	Velocidad del viento	0
101434	7	Sololá	701	Sololá	4	Finca Santa Victoria	4	Abril	2023-04-16T00:00:00	2024-11-08T00:00:00	7	Dirección del viento	0
101435	7	Sololá	701	Sololá	4	Finca Santa Victoria	4	Abril	2023-04-16T00:00:00	2024-11-08T00:00:00	1	Precipitación	0
101436	7	Sololá	701	Sololá	4	Finca Santa Victoria	4	Abril	2023-04-16T00:00:00	2024-11-08T00:00:00	8	Radiación solar	0
101437	7	Sololá	701	Sololá	4	Finca Santa Victoria	4	Abril	2023-04-16T00:00:00	2024-11-08T01:00:00	2	Temperatura media	14
101438	7	Sololá	701	Sololá	4	Finca Santa Victoria	4	Abril	2023-04-16T00:00:00	2024-11-08T01:00:00	4	Temperatura máxima	14.6
101439	7	Sololá	701	Sololá	4	Finca Santa Victoria	4	Abril	2023-04-16T00:00:00	2024-11-08T01:00:00	3	Temperatura mínima	14
101440	7	Sololá	701	Sololá	4	Finca Santa Victoria	4	Abril	2023-04-16T00:00:00	2024-11-08T01:00:00	5	Humedad	86
101441	7	Sololá	701	Sololá	4	Finca Santa Victoria	4	Abril	2023-04-16T00:00:00	2024-11-08T01:00:00	6	Velocidad del viento	1.6
101442	7	Sololá	701	Sololá	4	Finca Santa Victoria	4	Abril	2023-04-16T00:00:00	2024-11-08T01:00:00	7	Dirección del viento	1.61
101443	7	Sololá	701	Sololá	4	Finca Santa Victoria	4	Abril	2023-04-16T00:00:00	2024-11-08T01:00:00	1	Precipitación	0
101444	7	Sololá	701	Sololá	4	Finca Santa Victoria	4	Abril	2023-04-16T00:00:00	2024-11-08T01:00:00	8	Radiación solar	0
101445	7	Sololá	701	Sololá	4	Finca Santa Victoria	4	Abril	2023-04-16T00:00:00	2024-11-08T02:00:00	2	Temperatura media	13.6
101446	7	Sololá	701	Sololá	4	Finca Santa Victoria	4	Abril	2023-04-16T00:00:00	2024-11-08T02:00:00	4	Temperatura máxima	14
101447	7	Sololá	701	Sololá	4	Finca Santa Victoria	4	Abril	2023-04-16T00:00:00	2024-11-08T02:00:00	3	Temperatura mínima	13.3
101448	7	Sololá	701	Sololá	4	Finca Santa Victoria	4	Abril	2023-04-16T00:00:00	2024-11-08T02:00:00	5	Humedad	87
101449	7	Sololá	701	Sololá	4	Finca Santa Victoria	4	Abril	2023-04-16T00:00:00	2024-11-08T02:00:00	6	Velocidad del viento	1.6
101450	7	Sololá	701	Sololá	4	Finca Santa Victoria	4	Abril	2023-04-16T00:00:00	2024-11-08T02:00:00	7	Dirección del viento	1.61
101451	7	Sololá	701	Sololá	4	Finca Santa Victoria	4	Abril	2023-04-16T00:00:00	2024-11-08T02:00:00	1	Precipitación	0
101452	7	Sololá	701	Sololá	4	Finca Santa Victoria	4	Abril	2023-04-16T00:00:00	2024-11-08T02:00:00	8	Radiación solar	0
101453	7	Sololá	701	Sololá	4	Finca Santa Victoria	4	Abril	2023-04-16T00:00:00	2024-11-08T03:00:00	2	Temperatura media	13.3
101454	7	Sololá	701	Sololá	4	Finca Santa Victoria	4	Abril	2023-04-16T00:00:00	2024-11-08T03:00:00	4	Temperatura máxima	13.6
101455	7	Sololá	701	Sololá	4	Finca Santa Victoria	4	Abril	2023-04-16T00:00:00	2024-11-08T03:00:00	3	Temperatura mínima	13.2
101456	7	Sololá	701	Sololá	4	Finca Santa Victoria	4	Abril	2023-04-16T00:00:00	2024-11-08T03:00:00	5	Humedad	92
101457	7	Sololá	701	Sololá	4	Finca Santa Victoria	4	Abril	2023-04-16T00:00:00	2024-11-08T03:00:00	6	Velocidad del viento	1.6
101458	7	Sololá	701	Sololá	4	Finca Santa Victoria	4	Abril	2023-04-16T00:00:00	2024-11-08T03:00:00	7	Dirección del viento	1.61
101459	7	Sololá	701	Sololá	4	Finca Santa Victoria	4	Abril	2023-04-16T00:00:00	2024-11-08T03:00:00	1	Precipitación	0
101460	7	Sololá	701	Sololá	4	Finca Santa Victoria	4	Abril	2023-04-16T00:00:00	2024-11-08T03:00:00	8	Radiación solar	0
101461	7	Sololá	701	Sololá	4	Finca Santa Victoria	4	Abril	2023-04-16T00:00:00	2024-11-08T04:00:00	2	Temperatura media	12.9
101462	7	Sololá	701	Sololá	4	Finca Santa Victoria	4	Abril	2023-04-16T00:00:00	2024-11-08T04:00:00	4	Temperatura máxima	13.3
101463	7	Sololá	701	Sololá	4	Finca Santa Victoria	4	Abril	2023-04-16T00:00:00	2024-11-08T04:00:00	3	Temperatura mínima	12.7
101464	7	Sololá	701	Sololá	4	Finca Santa Victoria	4	Abril	2023-04-16T00:00:00	2024-11-08T04:00:00	5	Humedad	94
101465	7	Sololá	701	Sololá	4	Finca Santa Victoria	4	Abril	2023-04-16T00:00:00	2024-11-08T04:00:00	6	Velocidad del viento	1.6
101466	7	Sololá	701	Sololá	4	Finca Santa Victoria	4	Abril	2023-04-16T00:00:00	2024-11-08T04:00:00	7	Dirección del viento	1.61
101467	7	Sololá	701	Sololá	4	Finca Santa Victoria	4	Abril	2023-04-16T00:00:00	2024-11-08T04:00:00	1	Precipitación	0
101468	7	Sololá	701	Sololá	4	Finca Santa Victoria	4	Abril	2023-04-16T00:00:00	2024-11-08T04:00:00	8	Radiación solar	0
101469	7	Sololá	701	Sololá	4	Finca Santa Victoria	4	Abril	2023-04-16T00:00:00	2024-11-08T05:00:00	2	Temperatura media	12.7
101470	7	Sololá	701	Sololá	4	Finca Santa Victoria	4	Abril	2023-04-16T00:00:00	2024-11-08T05:00:00	4	Temperatura máxima	12.9
101471	7	Sololá	701	Sololá	4	Finca Santa Victoria	4	Abril	2023-04-16T00:00:00	2024-11-08T05:00:00	3	Temperatura mínima	12.6
101472	7	Sololá	701	Sololá	4	Finca Santa Victoria	4	Abril	2023-04-16T00:00:00	2024-11-08T05:00:00	5	Humedad	94
101473	7	Sololá	701	Sololá	4	Finca Santa Victoria	4	Abril	2023-04-16T00:00:00	2024-11-08T05:00:00	6	Velocidad del viento	1.6
101474	7	Sololá	701	Sololá	4	Finca Santa Victoria	4	Abril	2023-04-16T00:00:00	2024-11-08T05:00:00	7	Dirección del viento	1.61
101475	7	Sololá	701	Sololá	4	Finca Santa Victoria	4	Abril	2023-04-16T00:00:00	2024-11-08T05:00:00	1	Precipitación	0
101476	7	Sololá	701	Sololá	4	Finca Santa Victoria	4	Abril	2023-04-16T00:00:00	2024-11-08T05:00:00	8	Radiación solar	0
101477	7	Sololá	701	Sololá	4	Finca Santa Victoria	4	Abril	2023-04-16T00:00:00	2024-11-08T06:00:00	2	Temperatura media	12.8
101478	7	Sololá	701	Sololá	4	Finca Santa Victoria	4	Abril	2023-04-16T00:00:00	2024-11-08T06:00:00	4	Temperatura máxima	12.8
101479	7	Sololá	701	Sololá	4	Finca Santa Victoria	4	Abril	2023-04-16T00:00:00	2024-11-08T06:00:00	3	Temperatura mínima	12.4
101480	7	Sololá	701	Sololá	4	Finca Santa Victoria	4	Abril	2023-04-16T00:00:00	2024-11-08T06:00:00	5	Humedad	91
101481	7	Sololá	701	Sololá	4	Finca Santa Victoria	4	Abril	2023-04-16T00:00:00	2024-11-08T06:00:00	6	Velocidad del viento	1.6
101482	7	Sololá	701	Sololá	4	Finca Santa Victoria	4	Abril	2023-04-16T00:00:00	2024-11-08T06:00:00	7	Dirección del viento	1.61
101483	7	Sololá	701	Sololá	4	Finca Santa Victoria	4	Abril	2023-04-16T00:00:00	2024-11-08T06:00:00	1	Precipitación	0
101484	7	Sololá	701	Sololá	4	Finca Santa Victoria	4	Abril	2023-04-16T00:00:00	2024-11-08T06:00:00	8	Radiación solar	0
101485	7	Sololá	701	Sololá	4	Finca Santa Victoria	4	Abril	2023-04-16T00:00:00	2024-11-08T07:00:00	2	Temperatura media	13.7
101486	7	Sololá	701	Sololá	4	Finca Santa Victoria	4	Abril	2023-04-16T00:00:00	2024-11-08T07:00:00	4	Temperatura máxima	13.7
101487	7	Sololá	701	Sololá	4	Finca Santa Victoria	4	Abril	2023-04-16T00:00:00	2024-11-08T07:00:00	3	Temperatura mínima	12.8
101488	7	Sololá	701	Sololá	4	Finca Santa Victoria	4	Abril	2023-04-16T00:00:00	2024-11-08T07:00:00	5	Humedad	91
101489	7	Sololá	701	Sololá	4	Finca Santa Victoria	4	Abril	2023-04-16T00:00:00	2024-11-08T07:00:00	6	Velocidad del viento	0
101490	7	Sololá	701	Sololá	4	Finca Santa Victoria	4	Abril	2023-04-16T00:00:00	2024-11-08T07:00:00	7	Dirección del viento	0
101491	7	Sololá	701	Sololá	4	Finca Santa Victoria	4	Abril	2023-04-16T00:00:00	2024-11-08T07:00:00	1	Precipitación	0
101492	7	Sololá	701	Sololá	4	Finca Santa Victoria	4	Abril	2023-04-16T00:00:00	2024-11-08T07:00:00	8	Radiación solar	25
101493	7	Sololá	701	Sololá	4	Finca Santa Victoria	4	Abril	2023-04-16T00:00:00	2024-11-08T08:00:00	2	Temperatura media	16.1
101494	7	Sololá	701	Sololá	4	Finca Santa Victoria	4	Abril	2023-04-16T00:00:00	2024-11-08T08:00:00	4	Temperatura máxima	16.1
101495	7	Sololá	701	Sololá	4	Finca Santa Victoria	4	Abril	2023-04-16T00:00:00	2024-11-08T08:00:00	3	Temperatura mínima	13.7
101496	7	Sololá	701	Sololá	4	Finca Santa Victoria	4	Abril	2023-04-16T00:00:00	2024-11-08T08:00:00	5	Humedad	82
101497	7	Sololá	701	Sololá	4	Finca Santa Victoria	4	Abril	2023-04-16T00:00:00	2024-11-08T08:00:00	6	Velocidad del viento	1.6
101498	7	Sololá	701	Sololá	4	Finca Santa Victoria	4	Abril	2023-04-16T00:00:00	2024-11-08T08:00:00	7	Dirección del viento	1.61
101499	7	Sololá	701	Sololá	4	Finca Santa Victoria	4	Abril	2023-04-16T00:00:00	2024-11-08T08:00:00	1	Precipitación	0
101500	7	Sololá	701	Sololá	4	Finca Santa Victoria	4	Abril	2023-04-16T00:00:00	2024-11-08T08:00:00	8	Radiación solar	229
101501	7	Sololá	701	Sololá	4	Finca Santa Victoria	4	Abril	2023-04-16T00:00:00	2024-11-08T09:00:00	2	Temperatura media	18.1
101502	7	Sololá	701	Sololá	4	Finca Santa Victoria	4	Abril	2023-04-16T00:00:00	2024-11-08T09:00:00	4	Temperatura máxima	18.1
101503	7	Sololá	701	Sololá	4	Finca Santa Victoria	4	Abril	2023-04-16T00:00:00	2024-11-08T09:00:00	3	Temperatura mínima	16.1
101504	7	Sololá	701	Sololá	4	Finca Santa Victoria	4	Abril	2023-04-16T00:00:00	2024-11-08T09:00:00	5	Humedad	74
101505	7	Sololá	701	Sololá	4	Finca Santa Victoria	4	Abril	2023-04-16T00:00:00	2024-11-08T09:00:00	6	Velocidad del viento	3.2
101506	7	Sololá	701	Sololá	4	Finca Santa Victoria	4	Abril	2023-04-16T00:00:00	2024-11-08T09:00:00	7	Dirección del viento	3.22
101507	7	Sololá	701	Sololá	4	Finca Santa Victoria	4	Abril	2023-04-16T00:00:00	2024-11-08T09:00:00	1	Precipitación	0
101508	7	Sololá	701	Sololá	4	Finca Santa Victoria	4	Abril	2023-04-16T00:00:00	2024-11-08T09:00:00	8	Radiación solar	482
101509	7	Sololá	701	Sololá	4	Finca Santa Victoria	4	Abril	2023-04-16T00:00:00	2024-11-08T10:00:00	2	Temperatura media	19.6
101510	7	Sololá	701	Sololá	4	Finca Santa Victoria	4	Abril	2023-04-16T00:00:00	2024-11-08T10:00:00	4	Temperatura máxima	19.9
101511	7	Sololá	701	Sololá	4	Finca Santa Victoria	4	Abril	2023-04-16T00:00:00	2024-11-08T10:00:00	3	Temperatura mínima	18.1
101512	7	Sololá	701	Sololá	4	Finca Santa Victoria	4	Abril	2023-04-16T00:00:00	2024-11-08T10:00:00	5	Humedad	74
101513	7	Sololá	701	Sololá	4	Finca Santa Victoria	4	Abril	2023-04-16T00:00:00	2024-11-08T10:00:00	6	Velocidad del viento	3.2
101514	7	Sololá	701	Sololá	4	Finca Santa Victoria	4	Abril	2023-04-16T00:00:00	2024-11-08T10:00:00	7	Dirección del viento	3.22
101515	7	Sololá	701	Sololá	4	Finca Santa Victoria	4	Abril	2023-04-16T00:00:00	2024-11-08T10:00:00	1	Precipitación	0
101516	7	Sololá	701	Sololá	4	Finca Santa Victoria	4	Abril	2023-04-16T00:00:00	2024-11-08T10:00:00	8	Radiación solar	424
101517	7	Sololá	701	Sololá	4	Finca Santa Victoria	4	Abril	2023-04-16T00:00:00	2024-11-08T11:00:00	2	Temperatura media	20.2
101518	7	Sololá	701	Sololá	4	Finca Santa Victoria	4	Abril	2023-04-16T00:00:00	2024-11-08T11:00:00	4	Temperatura máxima	20.2
101519	7	Sololá	701	Sololá	4	Finca Santa Victoria	4	Abril	2023-04-16T00:00:00	2024-11-08T11:00:00	3	Temperatura mínima	19.2
101520	7	Sololá	701	Sololá	4	Finca Santa Victoria	4	Abril	2023-04-16T00:00:00	2024-11-08T11:00:00	5	Humedad	74
101521	7	Sololá	701	Sololá	4	Finca Santa Victoria	4	Abril	2023-04-16T00:00:00	2024-11-08T11:00:00	6	Velocidad del viento	4.8
101522	7	Sololá	701	Sololá	4	Finca Santa Victoria	4	Abril	2023-04-16T00:00:00	2024-11-08T11:00:00	7	Dirección del viento	4.83
101523	7	Sololá	701	Sololá	4	Finca Santa Victoria	4	Abril	2023-04-16T00:00:00	2024-11-08T11:00:00	1	Precipitación	0
101524	7	Sololá	701	Sololá	4	Finca Santa Victoria	4	Abril	2023-04-16T00:00:00	2024-11-08T11:00:00	8	Radiación solar	897
101525	7	Sololá	701	Sololá	4	Finca Santa Victoria	4	Abril	2023-04-16T00:00:00	2024-11-08T12:00:00	2	Temperatura media	19.9
101526	7	Sololá	701	Sololá	4	Finca Santa Victoria	4	Abril	2023-04-16T00:00:00	2024-11-08T12:00:00	4	Temperatura máxima	20.8
101527	7	Sololá	701	Sololá	4	Finca Santa Victoria	4	Abril	2023-04-16T00:00:00	2024-11-08T12:00:00	3	Temperatura mínima	19.5
101528	7	Sololá	701	Sololá	4	Finca Santa Victoria	4	Abril	2023-04-16T00:00:00	2024-11-08T12:00:00	5	Humedad	76
101529	7	Sololá	701	Sololá	4	Finca Santa Victoria	4	Abril	2023-04-16T00:00:00	2024-11-08T12:00:00	6	Velocidad del viento	4.8
101530	7	Sololá	701	Sololá	4	Finca Santa Victoria	4	Abril	2023-04-16T00:00:00	2024-11-08T12:00:00	7	Dirección del viento	4.83
101531	7	Sololá	701	Sololá	4	Finca Santa Victoria	4	Abril	2023-04-16T00:00:00	2024-11-08T12:00:00	1	Precipitación	0
101532	7	Sololá	701	Sololá	4	Finca Santa Victoria	4	Abril	2023-04-16T00:00:00	2024-11-08T12:00:00	8	Radiación solar	710
101533	7	Sololá	701	Sololá	4	Finca Santa Victoria	4	Abril	2023-04-16T00:00:00	2024-11-08T13:00:00	2	Temperatura media	20.4
101534	7	Sololá	701	Sololá	4	Finca Santa Victoria	4	Abril	2023-04-16T00:00:00	2024-11-08T13:00:00	4	Temperatura máxima	20.4
101535	7	Sololá	701	Sololá	4	Finca Santa Victoria	4	Abril	2023-04-16T00:00:00	2024-11-08T13:00:00	3	Temperatura mínima	19.3
101536	7	Sololá	701	Sololá	4	Finca Santa Victoria	4	Abril	2023-04-16T00:00:00	2024-11-08T13:00:00	5	Humedad	76
101537	7	Sololá	701	Sololá	4	Finca Santa Victoria	4	Abril	2023-04-16T00:00:00	2024-11-08T13:00:00	6	Velocidad del viento	4.8
101538	7	Sololá	701	Sololá	4	Finca Santa Victoria	4	Abril	2023-04-16T00:00:00	2024-11-08T13:00:00	7	Dirección del viento	4.83
101539	7	Sololá	701	Sololá	4	Finca Santa Victoria	4	Abril	2023-04-16T00:00:00	2024-11-08T13:00:00	1	Precipitación	0
101540	7	Sololá	701	Sololá	4	Finca Santa Victoria	4	Abril	2023-04-16T00:00:00	2024-11-08T13:00:00	8	Radiación solar	659
101541	7	Sololá	701	Sololá	4	Finca Santa Victoria	4	Abril	2023-04-16T00:00:00	2024-11-08T14:00:00	2	Temperatura media	19.4
101542	7	Sololá	701	Sololá	4	Finca Santa Victoria	4	Abril	2023-04-16T00:00:00	2024-11-08T14:00:00	4	Temperatura máxima	20.8
101543	7	Sololá	701	Sololá	4	Finca Santa Victoria	4	Abril	2023-04-16T00:00:00	2024-11-08T14:00:00	3	Temperatura mínima	19.3
101544	7	Sololá	701	Sololá	4	Finca Santa Victoria	4	Abril	2023-04-16T00:00:00	2024-11-08T14:00:00	5	Humedad	79
101545	7	Sololá	701	Sololá	4	Finca Santa Victoria	4	Abril	2023-04-16T00:00:00	2024-11-08T14:00:00	6	Velocidad del viento	6.4
101546	7	Sololá	701	Sololá	4	Finca Santa Victoria	4	Abril	2023-04-16T00:00:00	2024-11-08T14:00:00	7	Dirección del viento	6.44
101547	7	Sololá	701	Sololá	4	Finca Santa Victoria	4	Abril	2023-04-16T00:00:00	2024-11-08T14:00:00	1	Precipitación	0
101548	7	Sololá	701	Sololá	4	Finca Santa Victoria	4	Abril	2023-04-16T00:00:00	2024-11-08T14:00:00	8	Radiación solar	371
101549	7	Sololá	701	Sololá	4	Finca Santa Victoria	4	Abril	2023-04-16T00:00:00	2024-11-08T15:00:00	2	Temperatura media	17.3
101550	7	Sololá	701	Sololá	4	Finca Santa Victoria	4	Abril	2023-04-16T00:00:00	2024-11-08T15:00:00	4	Temperatura máxima	19.4
101551	7	Sololá	701	Sololá	4	Finca Santa Victoria	4	Abril	2023-04-16T00:00:00	2024-11-08T15:00:00	3	Temperatura mínima	17.2
101552	7	Sololá	701	Sololá	4	Finca Santa Victoria	4	Abril	2023-04-16T00:00:00	2024-11-08T15:00:00	5	Humedad	89
101553	7	Sololá	701	Sololá	4	Finca Santa Victoria	4	Abril	2023-04-16T00:00:00	2024-11-08T15:00:00	6	Velocidad del viento	4.8
101554	7	Sololá	701	Sololá	4	Finca Santa Victoria	4	Abril	2023-04-16T00:00:00	2024-11-08T15:00:00	7	Dirección del viento	4.83
101555	7	Sololá	701	Sololá	4	Finca Santa Victoria	4	Abril	2023-04-16T00:00:00	2024-11-08T15:00:00	1	Precipitación	0
101556	7	Sololá	701	Sololá	4	Finca Santa Victoria	4	Abril	2023-04-16T00:00:00	2024-11-08T15:00:00	8	Radiación solar	170
101557	7	Sololá	701	Sololá	4	Finca Santa Victoria	4	Abril	2023-04-16T00:00:00	2024-11-08T16:00:00	2	Temperatura media	16.6
101558	7	Sololá	701	Sololá	4	Finca Santa Victoria	4	Abril	2023-04-16T00:00:00	2024-11-08T16:00:00	4	Temperatura máxima	17.6
101559	7	Sololá	701	Sololá	4	Finca Santa Victoria	4	Abril	2023-04-16T00:00:00	2024-11-08T16:00:00	3	Temperatura mínima	16.6
101560	7	Sololá	701	Sololá	4	Finca Santa Victoria	4	Abril	2023-04-16T00:00:00	2024-11-08T16:00:00	5	Humedad	90
101561	7	Sololá	701	Sololá	4	Finca Santa Victoria	4	Abril	2023-04-16T00:00:00	2024-11-08T16:00:00	6	Velocidad del viento	3.2
101562	7	Sololá	701	Sololá	4	Finca Santa Victoria	4	Abril	2023-04-16T00:00:00	2024-11-08T16:00:00	7	Dirección del viento	3.22
101563	7	Sololá	701	Sololá	4	Finca Santa Victoria	4	Abril	2023-04-16T00:00:00	2024-11-08T16:00:00	1	Precipitación	0
101564	7	Sololá	701	Sololá	4	Finca Santa Victoria	4	Abril	2023-04-16T00:00:00	2024-11-08T16:00:00	8	Radiación solar	95
101565	7	Sololá	701	Sololá	4	Finca Santa Victoria	4	Abril	2023-04-16T00:00:00	2024-11-08T17:00:00	2	Temperatura media	15.9
101566	7	Sololá	701	Sololá	4	Finca Santa Victoria	4	Abril	2023-04-16T00:00:00	2024-11-08T17:00:00	4	Temperatura máxima	16.7
101567	7	Sololá	701	Sololá	4	Finca Santa Victoria	4	Abril	2023-04-16T00:00:00	2024-11-08T17:00:00	3	Temperatura mínima	15.9
101568	7	Sololá	701	Sololá	4	Finca Santa Victoria	4	Abril	2023-04-16T00:00:00	2024-11-08T17:00:00	5	Humedad	93
101569	7	Sololá	701	Sololá	4	Finca Santa Victoria	4	Abril	2023-04-16T00:00:00	2024-11-08T17:00:00	6	Velocidad del viento	1.6
101570	7	Sololá	701	Sololá	4	Finca Santa Victoria	4	Abril	2023-04-16T00:00:00	2024-11-08T17:00:00	7	Dirección del viento	1.61
101571	7	Sololá	701	Sololá	4	Finca Santa Victoria	4	Abril	2023-04-16T00:00:00	2024-11-08T17:00:00	1	Precipitación	0
101572	7	Sololá	701	Sololá	4	Finca Santa Victoria	4	Abril	2023-04-16T00:00:00	2024-11-08T17:00:00	8	Radiación solar	35
101573	7	Sololá	701	Sololá	4	Finca Santa Victoria	4	Abril	2023-04-16T00:00:00	2024-11-08T18:00:00	2	Temperatura media	16.2
101574	7	Sololá	701	Sololá	4	Finca Santa Victoria	4	Abril	2023-04-16T00:00:00	2024-11-08T18:00:00	4	Temperatura máxima	16.3
101575	7	Sololá	701	Sololá	4	Finca Santa Victoria	4	Abril	2023-04-16T00:00:00	2024-11-08T18:00:00	3	Temperatura mínima	15.9
101576	7	Sololá	701	Sololá	4	Finca Santa Victoria	4	Abril	2023-04-16T00:00:00	2024-11-08T18:00:00	5	Humedad	91
101577	7	Sololá	701	Sololá	4	Finca Santa Victoria	4	Abril	2023-04-16T00:00:00	2024-11-08T18:00:00	6	Velocidad del viento	1.6
101578	7	Sololá	701	Sololá	4	Finca Santa Victoria	4	Abril	2023-04-16T00:00:00	2024-11-08T18:00:00	7	Dirección del viento	1.61
101579	7	Sololá	701	Sololá	4	Finca Santa Victoria	4	Abril	2023-04-16T00:00:00	2024-11-08T18:00:00	1	Precipitación	0
101580	7	Sololá	701	Sololá	4	Finca Santa Victoria	4	Abril	2023-04-16T00:00:00	2024-11-08T18:00:00	8	Radiación solar	33
101581	7	Sololá	701	Sololá	4	Finca Santa Victoria	4	Abril	2023-04-16T00:00:00	2024-11-08T19:00:00	2	Temperatura media	15.1
101582	7	Sololá	701	Sololá	4	Finca Santa Victoria	4	Abril	2023-04-16T00:00:00	2024-11-08T19:00:00	4	Temperatura máxima	16.2
101583	7	Sololá	701	Sololá	4	Finca Santa Victoria	4	Abril	2023-04-16T00:00:00	2024-11-08T19:00:00	3	Temperatura mínima	15
101584	7	Sololá	701	Sololá	4	Finca Santa Victoria	4	Abril	2023-04-16T00:00:00	2024-11-08T19:00:00	5	Humedad	88
101585	7	Sololá	701	Sololá	4	Finca Santa Victoria	4	Abril	2023-04-16T00:00:00	2024-11-08T19:00:00	6	Velocidad del viento	1.6
101586	7	Sololá	701	Sololá	4	Finca Santa Victoria	4	Abril	2023-04-16T00:00:00	2024-11-08T19:00:00	7	Dirección del viento	1.61
101587	7	Sololá	701	Sololá	4	Finca Santa Victoria	4	Abril	2023-04-16T00:00:00	2024-11-08T19:00:00	1	Precipitación	0
101588	7	Sololá	701	Sololá	4	Finca Santa Victoria	4	Abril	2023-04-16T00:00:00	2024-11-08T19:00:00	8	Radiación solar	0
101589	7	Sololá	701	Sololá	4	Finca Santa Victoria	4	Abril	2023-04-16T00:00:00	2024-11-08T20:00:00	2	Temperatura media	15.8
101590	7	Sololá	701	Sololá	4	Finca Santa Victoria	4	Abril	2023-04-16T00:00:00	2024-11-08T20:00:00	4	Temperatura máxima	16.1
101591	7	Sololá	701	Sololá	4	Finca Santa Victoria	4	Abril	2023-04-16T00:00:00	2024-11-08T20:00:00	3	Temperatura mínima	15.1
101592	7	Sololá	701	Sololá	4	Finca Santa Victoria	4	Abril	2023-04-16T00:00:00	2024-11-08T20:00:00	5	Humedad	75
101593	7	Sololá	701	Sololá	4	Finca Santa Victoria	4	Abril	2023-04-16T00:00:00	2024-11-08T20:00:00	6	Velocidad del viento	1.6
101594	7	Sololá	701	Sololá	4	Finca Santa Victoria	4	Abril	2023-04-16T00:00:00	2024-11-08T20:00:00	7	Dirección del viento	1.61
101595	7	Sololá	701	Sololá	4	Finca Santa Victoria	4	Abril	2023-04-16T00:00:00	2024-11-08T20:00:00	1	Precipitación	0
101596	7	Sololá	701	Sololá	4	Finca Santa Victoria	4	Abril	2023-04-16T00:00:00	2024-11-08T20:00:00	8	Radiación solar	0
101597	7	Sololá	701	Sololá	4	Finca Santa Victoria	4	Abril	2023-04-16T00:00:00	2024-11-08T21:00:00	2	Temperatura media	14.9
101598	7	Sololá	701	Sololá	4	Finca Santa Victoria	4	Abril	2023-04-16T00:00:00	2024-11-08T21:00:00	4	Temperatura máxima	15.8
101599	7	Sololá	701	Sololá	4	Finca Santa Victoria	4	Abril	2023-04-16T00:00:00	2024-11-08T21:00:00	3	Temperatura mínima	14.9
101600	7	Sololá	701	Sololá	4	Finca Santa Victoria	4	Abril	2023-04-16T00:00:00	2024-11-08T21:00:00	5	Humedad	74
101601	7	Sololá	701	Sololá	4	Finca Santa Victoria	4	Abril	2023-04-16T00:00:00	2024-11-08T21:00:00	6	Velocidad del viento	1.6
101602	7	Sololá	701	Sololá	4	Finca Santa Victoria	4	Abril	2023-04-16T00:00:00	2024-11-08T21:00:00	7	Dirección del viento	1.61
101603	7	Sololá	701	Sololá	4	Finca Santa Victoria	4	Abril	2023-04-16T00:00:00	2024-11-08T21:00:00	1	Precipitación	0
101604	7	Sololá	701	Sololá	4	Finca Santa Victoria	4	Abril	2023-04-16T00:00:00	2024-11-08T21:00:00	8	Radiación solar	0
101605	7	Sololá	701	Sololá	4	Finca Santa Victoria	4	Abril	2023-04-16T00:00:00	2024-11-08T22:00:00	2	Temperatura media	14
101606	7	Sololá	701	Sololá	4	Finca Santa Victoria	4	Abril	2023-04-16T00:00:00	2024-11-08T22:00:00	4	Temperatura máxima	15.1
101607	7	Sololá	701	Sololá	4	Finca Santa Victoria	4	Abril	2023-04-16T00:00:00	2024-11-08T22:00:00	3	Temperatura mínima	14
101608	7	Sololá	701	Sololá	4	Finca Santa Victoria	4	Abril	2023-04-16T00:00:00	2024-11-08T22:00:00	5	Humedad	74
101609	7	Sololá	701	Sololá	4	Finca Santa Victoria	4	Abril	2023-04-16T00:00:00	2024-11-08T22:00:00	6	Velocidad del viento	0
101610	7	Sololá	701	Sololá	4	Finca Santa Victoria	4	Abril	2023-04-16T00:00:00	2024-11-08T22:00:00	7	Dirección del viento	0
101611	7	Sololá	701	Sololá	4	Finca Santa Victoria	4	Abril	2023-04-16T00:00:00	2024-11-08T22:00:00	1	Precipitación	0
101612	7	Sololá	701	Sololá	4	Finca Santa Victoria	4	Abril	2023-04-16T00:00:00	2024-11-08T22:00:00	8	Radiación solar	0
101613	7	Sololá	701	Sololá	4	Finca Santa Victoria	4	Abril	2023-04-16T00:00:00	2024-11-08T23:00:00	2	Temperatura media	13.4
101614	7	Sololá	701	Sololá	4	Finca Santa Victoria	4	Abril	2023-04-16T00:00:00	2024-11-08T23:00:00	4	Temperatura máxima	14
101615	7	Sololá	701	Sololá	4	Finca Santa Victoria	4	Abril	2023-04-16T00:00:00	2024-11-08T23:00:00	3	Temperatura mínima	13.3
101616	7	Sololá	701	Sololá	4	Finca Santa Victoria	4	Abril	2023-04-16T00:00:00	2024-11-08T23:00:00	5	Humedad	77
101617	7	Sololá	701	Sololá	4	Finca Santa Victoria	4	Abril	2023-04-16T00:00:00	2024-11-08T23:00:00	6	Velocidad del viento	0
101618	7	Sololá	701	Sololá	4	Finca Santa Victoria	4	Abril	2023-04-16T00:00:00	2024-11-08T23:00:00	7	Dirección del viento	0
101619	7	Sololá	701	Sololá	4	Finca Santa Victoria	4	Abril	2023-04-16T00:00:00	2024-11-08T23:00:00	1	Precipitación	0
101620	7	Sololá	701	Sololá	4	Finca Santa Victoria	4	Abril	2023-04-16T00:00:00	2024-11-08T23:00:00	8	Radiación solar	0
101621	7	Sololá	701	Sololá	4	Finca Santa Victoria	4	Abril	2023-04-17T00:00:00	2024-11-08T00:00:00	2	Temperatura media	13.6
101622	7	Sololá	701	Sololá	4	Finca Santa Victoria	4	Abril	2023-04-17T00:00:00	2024-11-08T00:00:00	4	Temperatura máxima	13.7
101623	7	Sololá	701	Sololá	4	Finca Santa Victoria	4	Abril	2023-04-17T00:00:00	2024-11-08T00:00:00	3	Temperatura mínima	13.2
101624	7	Sololá	701	Sololá	4	Finca Santa Victoria	4	Abril	2023-04-17T00:00:00	2024-11-08T00:00:00	5	Humedad	81
101625	7	Sololá	701	Sololá	4	Finca Santa Victoria	4	Abril	2023-04-17T00:00:00	2024-11-08T00:00:00	6	Velocidad del viento	1.6
101626	7	Sololá	701	Sololá	4	Finca Santa Victoria	4	Abril	2023-04-17T00:00:00	2024-11-08T00:00:00	7	Dirección del viento	1.61
101627	7	Sololá	701	Sololá	4	Finca Santa Victoria	4	Abril	2023-04-17T00:00:00	2024-11-08T00:00:00	1	Precipitación	0
101628	7	Sololá	701	Sololá	4	Finca Santa Victoria	4	Abril	2023-04-17T00:00:00	2024-11-08T00:00:00	8	Radiación solar	0
101629	7	Sololá	701	Sololá	4	Finca Santa Victoria	4	Abril	2023-04-17T00:00:00	2024-11-08T01:00:00	2	Temperatura media	13.3
101630	7	Sololá	701	Sololá	4	Finca Santa Victoria	4	Abril	2023-04-17T00:00:00	2024-11-08T01:00:00	4	Temperatura máxima	13.9
101631	7	Sololá	701	Sololá	4	Finca Santa Victoria	4	Abril	2023-04-17T00:00:00	2024-11-08T01:00:00	3	Temperatura mínima	13.3
101632	7	Sololá	701	Sololá	4	Finca Santa Victoria	4	Abril	2023-04-17T00:00:00	2024-11-08T01:00:00	5	Humedad	83
101633	7	Sololá	701	Sololá	4	Finca Santa Victoria	4	Abril	2023-04-17T00:00:00	2024-11-08T01:00:00	6	Velocidad del viento	1.6
101634	7	Sololá	701	Sololá	4	Finca Santa Victoria	4	Abril	2023-04-17T00:00:00	2024-11-08T01:00:00	7	Dirección del viento	1.61
101635	7	Sololá	701	Sololá	4	Finca Santa Victoria	4	Abril	2023-04-17T00:00:00	2024-11-08T01:00:00	1	Precipitación	0
101636	7	Sololá	701	Sololá	4	Finca Santa Victoria	4	Abril	2023-04-17T00:00:00	2024-11-08T01:00:00	8	Radiación solar	0
101637	7	Sololá	701	Sololá	4	Finca Santa Victoria	4	Abril	2023-04-17T00:00:00	2024-11-08T02:00:00	2	Temperatura media	13.2
101638	7	Sololá	701	Sololá	4	Finca Santa Victoria	4	Abril	2023-04-17T00:00:00	2024-11-08T02:00:00	4	Temperatura máxima	13.5
101639	7	Sololá	701	Sololá	4	Finca Santa Victoria	4	Abril	2023-04-17T00:00:00	2024-11-08T02:00:00	3	Temperatura mínima	13.2
101640	7	Sololá	701	Sololá	4	Finca Santa Victoria	4	Abril	2023-04-17T00:00:00	2024-11-08T02:00:00	5	Humedad	83
101641	7	Sololá	701	Sololá	4	Finca Santa Victoria	4	Abril	2023-04-17T00:00:00	2024-11-08T02:00:00	6	Velocidad del viento	1.6
101642	7	Sololá	701	Sololá	4	Finca Santa Victoria	4	Abril	2023-04-17T00:00:00	2024-11-08T02:00:00	7	Dirección del viento	1.61
101643	7	Sololá	701	Sololá	4	Finca Santa Victoria	4	Abril	2023-04-17T00:00:00	2024-11-08T02:00:00	1	Precipitación	0
101644	7	Sololá	701	Sololá	4	Finca Santa Victoria	4	Abril	2023-04-17T00:00:00	2024-11-08T02:00:00	8	Radiación solar	0
101645	7	Sololá	701	Sololá	4	Finca Santa Victoria	4	Abril	2023-04-17T00:00:00	2024-11-08T03:00:00	2	Temperatura media	13.2
101646	7	Sololá	701	Sololá	4	Finca Santa Victoria	4	Abril	2023-04-17T00:00:00	2024-11-08T03:00:00	4	Temperatura máxima	13.3
101647	7	Sololá	701	Sololá	4	Finca Santa Victoria	4	Abril	2023-04-17T00:00:00	2024-11-08T03:00:00	3	Temperatura mínima	13.1
101648	7	Sololá	701	Sololá	4	Finca Santa Victoria	4	Abril	2023-04-17T00:00:00	2024-11-08T03:00:00	5	Humedad	86
101649	7	Sololá	701	Sololá	4	Finca Santa Victoria	4	Abril	2023-04-17T00:00:00	2024-11-08T03:00:00	6	Velocidad del viento	1.6
101650	7	Sololá	701	Sololá	4	Finca Santa Victoria	4	Abril	2023-04-17T00:00:00	2024-11-08T03:00:00	7	Dirección del viento	1.61
101651	7	Sololá	701	Sololá	4	Finca Santa Victoria	4	Abril	2023-04-17T00:00:00	2024-11-08T03:00:00	1	Precipitación	0
101652	7	Sololá	701	Sololá	4	Finca Santa Victoria	4	Abril	2023-04-17T00:00:00	2024-11-08T03:00:00	8	Radiación solar	0
101653	7	Sololá	701	Sololá	4	Finca Santa Victoria	4	Abril	2023-04-17T00:00:00	2024-11-08T04:00:00	2	Temperatura media	12.7
101654	7	Sololá	701	Sololá	4	Finca Santa Victoria	4	Abril	2023-04-17T00:00:00	2024-11-08T04:00:00	4	Temperatura máxima	13.2
101655	7	Sololá	701	Sololá	4	Finca Santa Victoria	4	Abril	2023-04-17T00:00:00	2024-11-08T04:00:00	3	Temperatura mínima	12.6
101656	7	Sololá	701	Sololá	4	Finca Santa Victoria	4	Abril	2023-04-17T00:00:00	2024-11-08T04:00:00	5	Humedad	87
101657	7	Sololá	701	Sololá	4	Finca Santa Victoria	4	Abril	2023-04-17T00:00:00	2024-11-08T04:00:00	6	Velocidad del viento	1.6
101658	7	Sololá	701	Sololá	4	Finca Santa Victoria	4	Abril	2023-04-17T00:00:00	2024-11-08T04:00:00	7	Dirección del viento	1.61
101659	7	Sololá	701	Sololá	4	Finca Santa Victoria	4	Abril	2023-04-17T00:00:00	2024-11-08T04:00:00	1	Precipitación	0
101660	7	Sololá	701	Sololá	4	Finca Santa Victoria	4	Abril	2023-04-17T00:00:00	2024-11-08T04:00:00	8	Radiación solar	0
101661	7	Sololá	701	Sololá	4	Finca Santa Victoria	4	Abril	2023-04-17T00:00:00	2024-11-08T05:00:00	2	Temperatura media	12.8
101662	7	Sololá	701	Sololá	4	Finca Santa Victoria	4	Abril	2023-04-17T00:00:00	2024-11-08T05:00:00	4	Temperatura máxima	12.8
101663	7	Sololá	701	Sololá	4	Finca Santa Victoria	4	Abril	2023-04-17T00:00:00	2024-11-08T05:00:00	3	Temperatura mínima	12.6
101664	7	Sololá	701	Sololá	4	Finca Santa Victoria	4	Abril	2023-04-17T00:00:00	2024-11-08T05:00:00	5	Humedad	86
101665	7	Sololá	701	Sololá	4	Finca Santa Victoria	4	Abril	2023-04-17T00:00:00	2024-11-08T05:00:00	6	Velocidad del viento	3.2
101666	7	Sololá	701	Sololá	4	Finca Santa Victoria	4	Abril	2023-04-17T00:00:00	2024-11-08T05:00:00	7	Dirección del viento	3.22
101667	7	Sololá	701	Sololá	4	Finca Santa Victoria	4	Abril	2023-04-17T00:00:00	2024-11-08T05:00:00	1	Precipitación	0
101668	7	Sololá	701	Sololá	4	Finca Santa Victoria	4	Abril	2023-04-17T00:00:00	2024-11-08T05:00:00	8	Radiación solar	0
101669	7	Sololá	701	Sololá	4	Finca Santa Victoria	4	Abril	2023-04-17T00:00:00	2024-11-08T06:00:00	2	Temperatura media	12.8
101670	7	Sololá	701	Sololá	4	Finca Santa Victoria	4	Abril	2023-04-17T00:00:00	2024-11-08T06:00:00	4	Temperatura máxima	13
101671	7	Sololá	701	Sololá	4	Finca Santa Victoria	4	Abril	2023-04-17T00:00:00	2024-11-08T06:00:00	3	Temperatura mínima	12.7
101672	7	Sololá	701	Sololá	4	Finca Santa Victoria	4	Abril	2023-04-17T00:00:00	2024-11-08T06:00:00	5	Humedad	87
101673	7	Sololá	701	Sololá	4	Finca Santa Victoria	4	Abril	2023-04-17T00:00:00	2024-11-08T06:00:00	6	Velocidad del viento	3.2
101674	7	Sololá	701	Sololá	4	Finca Santa Victoria	4	Abril	2023-04-17T00:00:00	2024-11-08T06:00:00	7	Dirección del viento	3.22
101675	7	Sololá	701	Sololá	4	Finca Santa Victoria	4	Abril	2023-04-17T00:00:00	2024-11-08T06:00:00	1	Precipitación	0
101676	7	Sololá	701	Sololá	4	Finca Santa Victoria	4	Abril	2023-04-17T00:00:00	2024-11-08T06:00:00	8	Radiación solar	0
101677	7	Sololá	701	Sololá	4	Finca Santa Victoria	4	Abril	2023-04-17T00:00:00	2024-11-08T07:00:00	2	Temperatura media	12.7
101678	7	Sololá	701	Sololá	4	Finca Santa Victoria	4	Abril	2023-04-17T00:00:00	2024-11-08T07:00:00	4	Temperatura máxima	13
101679	7	Sololá	701	Sololá	4	Finca Santa Victoria	4	Abril	2023-04-17T00:00:00	2024-11-08T07:00:00	3	Temperatura mínima	12.6
101680	7	Sololá	701	Sololá	4	Finca Santa Victoria	4	Abril	2023-04-17T00:00:00	2024-11-08T07:00:00	5	Humedad	89
101681	7	Sololá	701	Sololá	4	Finca Santa Victoria	4	Abril	2023-04-17T00:00:00	2024-11-08T07:00:00	6	Velocidad del viento	4.8
101682	7	Sololá	701	Sololá	4	Finca Santa Victoria	4	Abril	2023-04-17T00:00:00	2024-11-08T07:00:00	7	Dirección del viento	4.83
101683	7	Sololá	701	Sololá	4	Finca Santa Victoria	4	Abril	2023-04-17T00:00:00	2024-11-08T07:00:00	1	Precipitación	0
101684	7	Sololá	701	Sololá	4	Finca Santa Victoria	4	Abril	2023-04-17T00:00:00	2024-11-08T07:00:00	8	Radiación solar	29
101685	7	Sololá	701	Sololá	4	Finca Santa Victoria	4	Abril	2023-04-17T00:00:00	2024-11-08T08:00:00	2	Temperatura media	14.2
101686	7	Sololá	701	Sololá	4	Finca Santa Victoria	4	Abril	2023-04-17T00:00:00	2024-11-08T08:00:00	4	Temperatura máxima	14.8
101687	7	Sololá	701	Sololá	4	Finca Santa Victoria	4	Abril	2023-04-17T00:00:00	2024-11-08T08:00:00	3	Temperatura mínima	12.7
101688	7	Sololá	701	Sololá	4	Finca Santa Victoria	4	Abril	2023-04-17T00:00:00	2024-11-08T08:00:00	5	Humedad	82
101689	7	Sololá	701	Sololá	4	Finca Santa Victoria	4	Abril	2023-04-17T00:00:00	2024-11-08T08:00:00	6	Velocidad del viento	4.8
101690	7	Sololá	701	Sololá	4	Finca Santa Victoria	4	Abril	2023-04-17T00:00:00	2024-11-08T08:00:00	7	Dirección del viento	4.83
101691	7	Sololá	701	Sololá	4	Finca Santa Victoria	4	Abril	2023-04-17T00:00:00	2024-11-08T08:00:00	1	Precipitación	0
101692	7	Sololá	701	Sololá	4	Finca Santa Victoria	4	Abril	2023-04-17T00:00:00	2024-11-08T08:00:00	8	Radiación solar	198
101693	7	Sololá	701	Sololá	4	Finca Santa Victoria	4	Abril	2023-04-17T00:00:00	2024-11-08T09:00:00	2	Temperatura media	17.3
101694	7	Sololá	701	Sololá	4	Finca Santa Victoria	4	Abril	2023-04-17T00:00:00	2024-11-08T09:00:00	4	Temperatura máxima	17.3
101695	7	Sololá	701	Sololá	4	Finca Santa Victoria	4	Abril	2023-04-17T00:00:00	2024-11-08T09:00:00	3	Temperatura mínima	14.2
101696	7	Sololá	701	Sololá	4	Finca Santa Victoria	4	Abril	2023-04-17T00:00:00	2024-11-08T09:00:00	5	Humedad	69
101697	7	Sololá	701	Sololá	4	Finca Santa Victoria	4	Abril	2023-04-17T00:00:00	2024-11-08T09:00:00	6	Velocidad del viento	4.8
101698	7	Sololá	701	Sololá	4	Finca Santa Victoria	4	Abril	2023-04-17T00:00:00	2024-11-08T09:00:00	7	Dirección del viento	4.83
101699	7	Sololá	701	Sololá	4	Finca Santa Victoria	4	Abril	2023-04-17T00:00:00	2024-11-08T09:00:00	1	Precipitación	0
101700	7	Sololá	701	Sololá	4	Finca Santa Victoria	4	Abril	2023-04-17T00:00:00	2024-11-08T09:00:00	8	Radiación solar	479
101701	7	Sololá	701	Sololá	4	Finca Santa Victoria	4	Abril	2023-04-17T00:00:00	2024-11-08T10:00:00	2	Temperatura media	19.4
101702	7	Sololá	701	Sololá	4	Finca Santa Victoria	4	Abril	2023-04-17T00:00:00	2024-11-08T10:00:00	4	Temperatura máxima	19.6
101703	7	Sololá	701	Sololá	4	Finca Santa Victoria	4	Abril	2023-04-17T00:00:00	2024-11-08T10:00:00	3	Temperatura mínima	17.3
101704	7	Sololá	701	Sololá	4	Finca Santa Victoria	4	Abril	2023-04-17T00:00:00	2024-11-08T10:00:00	5	Humedad	61
101705	7	Sololá	701	Sololá	4	Finca Santa Victoria	4	Abril	2023-04-17T00:00:00	2024-11-08T10:00:00	6	Velocidad del viento	4.8
101706	7	Sololá	701	Sololá	4	Finca Santa Victoria	4	Abril	2023-04-17T00:00:00	2024-11-08T10:00:00	7	Dirección del viento	4.83
101707	7	Sololá	701	Sololá	4	Finca Santa Victoria	4	Abril	2023-04-17T00:00:00	2024-11-08T10:00:00	1	Precipitación	0
101708	7	Sololá	701	Sololá	4	Finca Santa Victoria	4	Abril	2023-04-17T00:00:00	2024-11-08T10:00:00	8	Radiación solar	372
101709	7	Sololá	701	Sololá	4	Finca Santa Victoria	4	Abril	2023-04-17T00:00:00	2024-11-08T11:00:00	2	Temperatura media	21.4
101710	7	Sololá	701	Sololá	4	Finca Santa Victoria	4	Abril	2023-04-17T00:00:00	2024-11-08T11:00:00	4	Temperatura máxima	21.7
101711	7	Sololá	701	Sololá	4	Finca Santa Victoria	4	Abril	2023-04-17T00:00:00	2024-11-08T11:00:00	3	Temperatura mínima	19.2
101712	7	Sololá	701	Sololá	4	Finca Santa Victoria	4	Abril	2023-04-17T00:00:00	2024-11-08T11:00:00	5	Humedad	52
101713	7	Sololá	701	Sololá	4	Finca Santa Victoria	4	Abril	2023-04-17T00:00:00	2024-11-08T11:00:00	6	Velocidad del viento	4.8
101714	7	Sololá	701	Sololá	4	Finca Santa Victoria	4	Abril	2023-04-17T00:00:00	2024-11-08T11:00:00	7	Dirección del viento	4.83
101715	7	Sololá	701	Sololá	4	Finca Santa Victoria	4	Abril	2023-04-17T00:00:00	2024-11-08T11:00:00	1	Precipitación	0
101716	7	Sololá	701	Sololá	4	Finca Santa Victoria	4	Abril	2023-04-17T00:00:00	2024-11-08T11:00:00	8	Radiación solar	908
101717	7	Sololá	701	Sololá	4	Finca Santa Victoria	4	Abril	2023-04-17T00:00:00	2024-11-08T12:00:00	2	Temperatura media	23
101718	7	Sololá	701	Sololá	4	Finca Santa Victoria	4	Abril	2023-04-17T00:00:00	2024-11-08T12:00:00	4	Temperatura máxima	23.2
101719	7	Sololá	701	Sololá	4	Finca Santa Victoria	4	Abril	2023-04-17T00:00:00	2024-11-08T12:00:00	3	Temperatura mínima	21.4
101720	7	Sololá	701	Sololá	4	Finca Santa Victoria	4	Abril	2023-04-17T00:00:00	2024-11-08T12:00:00	5	Humedad	45
101721	7	Sololá	701	Sololá	4	Finca Santa Victoria	4	Abril	2023-04-17T00:00:00	2024-11-08T12:00:00	6	Velocidad del viento	4.8
101722	7	Sololá	701	Sololá	4	Finca Santa Victoria	4	Abril	2023-04-17T00:00:00	2024-11-08T12:00:00	7	Dirección del viento	4.83
101723	7	Sololá	701	Sololá	4	Finca Santa Victoria	4	Abril	2023-04-17T00:00:00	2024-11-08T12:00:00	1	Precipitación	0
101724	7	Sololá	701	Sololá	4	Finca Santa Victoria	4	Abril	2023-04-17T00:00:00	2024-11-08T12:00:00	8	Radiación solar	1010
101725	7	Sololá	701	Sololá	4	Finca Santa Victoria	4	Abril	2023-04-17T00:00:00	2024-11-08T13:00:00	2	Temperatura media	24.2
101726	7	Sololá	701	Sololá	4	Finca Santa Victoria	4	Abril	2023-04-17T00:00:00	2024-11-08T13:00:00	4	Temperatura máxima	24.6
101727	7	Sololá	701	Sololá	4	Finca Santa Victoria	4	Abril	2023-04-17T00:00:00	2024-11-08T13:00:00	3	Temperatura mínima	23
101728	7	Sololá	701	Sololá	4	Finca Santa Victoria	4	Abril	2023-04-17T00:00:00	2024-11-08T13:00:00	5	Humedad	55
101729	7	Sololá	701	Sololá	4	Finca Santa Victoria	4	Abril	2023-04-17T00:00:00	2024-11-08T13:00:00	6	Velocidad del viento	4.8
101730	7	Sololá	701	Sololá	4	Finca Santa Victoria	4	Abril	2023-04-17T00:00:00	2024-11-08T13:00:00	7	Dirección del viento	4.83
101731	7	Sololá	701	Sololá	4	Finca Santa Victoria	4	Abril	2023-04-17T00:00:00	2024-11-08T13:00:00	1	Precipitación	0
101732	7	Sololá	701	Sololá	4	Finca Santa Victoria	4	Abril	2023-04-17T00:00:00	2024-11-08T13:00:00	8	Radiación solar	959
101733	7	Sololá	701	Sololá	4	Finca Santa Victoria	4	Abril	2023-04-17T00:00:00	2024-11-08T14:00:00	2	Temperatura media	17.7
101734	7	Sololá	701	Sololá	4	Finca Santa Victoria	4	Abril	2023-04-17T00:00:00	2024-11-08T14:00:00	4	Temperatura máxima	24.2
101735	7	Sololá	701	Sololá	4	Finca Santa Victoria	4	Abril	2023-04-17T00:00:00	2024-11-08T14:00:00	3	Temperatura mínima	17.7
101736	7	Sololá	701	Sololá	4	Finca Santa Victoria	4	Abril	2023-04-17T00:00:00	2024-11-08T14:00:00	5	Humedad	83
101737	7	Sololá	701	Sololá	4	Finca Santa Victoria	4	Abril	2023-04-17T00:00:00	2024-11-08T14:00:00	6	Velocidad del viento	4.8
101738	7	Sololá	701	Sololá	4	Finca Santa Victoria	4	Abril	2023-04-17T00:00:00	2024-11-08T14:00:00	7	Dirección del viento	4.83
101739	7	Sololá	701	Sololá	4	Finca Santa Victoria	4	Abril	2023-04-17T00:00:00	2024-11-08T14:00:00	1	Precipitación	0
101740	7	Sololá	701	Sololá	4	Finca Santa Victoria	4	Abril	2023-04-17T00:00:00	2024-11-08T14:00:00	8	Radiación solar	293
101741	7	Sololá	701	Sololá	4	Finca Santa Victoria	4	Abril	2023-04-17T00:00:00	2024-11-08T15:00:00	2	Temperatura media	15.7
101742	7	Sololá	701	Sololá	4	Finca Santa Victoria	4	Abril	2023-04-17T00:00:00	2024-11-08T15:00:00	4	Temperatura máxima	17.7
101743	7	Sololá	701	Sololá	4	Finca Santa Victoria	4	Abril	2023-04-17T00:00:00	2024-11-08T15:00:00	3	Temperatura mínima	15.7
101744	7	Sololá	701	Sololá	4	Finca Santa Victoria	4	Abril	2023-04-17T00:00:00	2024-11-08T15:00:00	5	Humedad	91
101745	7	Sololá	701	Sololá	4	Finca Santa Victoria	4	Abril	2023-04-17T00:00:00	2024-11-08T15:00:00	6	Velocidad del viento	3.2
101746	7	Sololá	701	Sololá	4	Finca Santa Victoria	4	Abril	2023-04-17T00:00:00	2024-11-08T15:00:00	7	Dirección del viento	3.22
101747	7	Sololá	701	Sololá	4	Finca Santa Victoria	4	Abril	2023-04-17T00:00:00	2024-11-08T15:00:00	1	Precipitación	0
101748	7	Sololá	701	Sololá	4	Finca Santa Victoria	4	Abril	2023-04-17T00:00:00	2024-11-08T15:00:00	8	Radiación solar	94
101749	7	Sololá	701	Sololá	4	Finca Santa Victoria	4	Abril	2023-04-17T00:00:00	2024-11-08T16:00:00	2	Temperatura media	14.7
101750	7	Sololá	701	Sololá	4	Finca Santa Victoria	4	Abril	2023-04-17T00:00:00	2024-11-08T16:00:00	4	Temperatura máxima	15.7
101751	7	Sololá	701	Sololá	4	Finca Santa Victoria	4	Abril	2023-04-17T00:00:00	2024-11-08T16:00:00	3	Temperatura mínima	14.7
101752	7	Sololá	701	Sololá	4	Finca Santa Victoria	4	Abril	2023-04-17T00:00:00	2024-11-08T16:00:00	5	Humedad	91
101753	7	Sololá	701	Sololá	4	Finca Santa Victoria	4	Abril	2023-04-17T00:00:00	2024-11-08T16:00:00	6	Velocidad del viento	3.2
101754	7	Sololá	701	Sololá	4	Finca Santa Victoria	4	Abril	2023-04-17T00:00:00	2024-11-08T16:00:00	7	Dirección del viento	3.22
101755	7	Sololá	701	Sololá	4	Finca Santa Victoria	4	Abril	2023-04-17T00:00:00	2024-11-08T16:00:00	1	Precipitación	0
101756	7	Sololá	701	Sololá	4	Finca Santa Victoria	4	Abril	2023-04-17T00:00:00	2024-11-08T16:00:00	8	Radiación solar	29
101757	7	Sololá	701	Sololá	4	Finca Santa Victoria	4	Abril	2023-04-17T00:00:00	2024-11-08T17:00:00	2	Temperatura media	13.9
101758	7	Sololá	701	Sololá	4	Finca Santa Victoria	4	Abril	2023-04-17T00:00:00	2024-11-08T17:00:00	4	Temperatura máxima	14.7
101759	7	Sololá	701	Sololá	4	Finca Santa Victoria	4	Abril	2023-04-17T00:00:00	2024-11-08T17:00:00	3	Temperatura mínima	13.8
101760	7	Sololá	701	Sololá	4	Finca Santa Victoria	4	Abril	2023-04-17T00:00:00	2024-11-08T17:00:00	5	Humedad	92
101761	7	Sololá	701	Sololá	4	Finca Santa Victoria	4	Abril	2023-04-17T00:00:00	2024-11-08T17:00:00	6	Velocidad del viento	1.6
101762	7	Sololá	701	Sololá	4	Finca Santa Victoria	4	Abril	2023-04-17T00:00:00	2024-11-08T17:00:00	7	Dirección del viento	1.61
101763	7	Sololá	701	Sololá	4	Finca Santa Victoria	4	Abril	2023-04-17T00:00:00	2024-11-08T17:00:00	1	Precipitación	0
101764	7	Sololá	701	Sololá	4	Finca Santa Victoria	4	Abril	2023-04-17T00:00:00	2024-11-08T17:00:00	8	Radiación solar	34
101765	7	Sololá	701	Sololá	4	Finca Santa Victoria	4	Abril	2023-04-17T00:00:00	2024-11-08T18:00:00	2	Temperatura media	15.7
101766	7	Sololá	701	Sololá	4	Finca Santa Victoria	4	Abril	2023-04-17T00:00:00	2024-11-08T18:00:00	4	Temperatura máxima	15.7
101767	7	Sololá	701	Sololá	4	Finca Santa Victoria	4	Abril	2023-04-17T00:00:00	2024-11-08T18:00:00	3	Temperatura mínima	13.9
101768	7	Sololá	701	Sololá	4	Finca Santa Victoria	4	Abril	2023-04-17T00:00:00	2024-11-08T18:00:00	5	Humedad	76
101769	7	Sololá	701	Sololá	4	Finca Santa Victoria	4	Abril	2023-04-17T00:00:00	2024-11-08T18:00:00	6	Velocidad del viento	1.6
101770	7	Sololá	701	Sololá	4	Finca Santa Victoria	4	Abril	2023-04-17T00:00:00	2024-11-08T18:00:00	7	Dirección del viento	1.61
101771	7	Sololá	701	Sololá	4	Finca Santa Victoria	4	Abril	2023-04-17T00:00:00	2024-11-08T18:00:00	1	Precipitación	0
101772	7	Sololá	701	Sololá	4	Finca Santa Victoria	4	Abril	2023-04-17T00:00:00	2024-11-08T18:00:00	8	Radiación solar	43
101773	7	Sololá	701	Sololá	4	Finca Santa Victoria	4	Abril	2023-04-17T00:00:00	2024-11-08T19:00:00	2	Temperatura media	14.9
101774	7	Sololá	701	Sololá	4	Finca Santa Victoria	4	Abril	2023-04-17T00:00:00	2024-11-08T19:00:00	4	Temperatura máxima	15.7
101775	7	Sololá	701	Sololá	4	Finca Santa Victoria	4	Abril	2023-04-17T00:00:00	2024-11-08T19:00:00	3	Temperatura mínima	14.8
101776	7	Sololá	701	Sololá	4	Finca Santa Victoria	4	Abril	2023-04-17T00:00:00	2024-11-08T19:00:00	5	Humedad	74
101777	7	Sololá	701	Sololá	4	Finca Santa Victoria	4	Abril	2023-04-17T00:00:00	2024-11-08T19:00:00	6	Velocidad del viento	1.6
101778	7	Sololá	701	Sololá	4	Finca Santa Victoria	4	Abril	2023-04-17T00:00:00	2024-11-08T19:00:00	7	Dirección del viento	1.61
101779	7	Sololá	701	Sololá	4	Finca Santa Victoria	4	Abril	2023-04-17T00:00:00	2024-11-08T19:00:00	1	Precipitación	0
101780	7	Sololá	701	Sololá	4	Finca Santa Victoria	4	Abril	2023-04-17T00:00:00	2024-11-08T19:00:00	8	Radiación solar	0
101781	7	Sololá	701	Sololá	4	Finca Santa Victoria	4	Abril	2023-04-17T00:00:00	2024-11-08T20:00:00	2	Temperatura media	14.2
101782	7	Sololá	701	Sololá	4	Finca Santa Victoria	4	Abril	2023-04-17T00:00:00	2024-11-08T20:00:00	4	Temperatura máxima	14.9
101783	7	Sololá	701	Sololá	4	Finca Santa Victoria	4	Abril	2023-04-17T00:00:00	2024-11-08T20:00:00	3	Temperatura mínima	14.2
101784	7	Sololá	701	Sololá	4	Finca Santa Victoria	4	Abril	2023-04-17T00:00:00	2024-11-08T20:00:00	5	Humedad	80
101785	7	Sololá	701	Sololá	4	Finca Santa Victoria	4	Abril	2023-04-17T00:00:00	2024-11-08T20:00:00	6	Velocidad del viento	3.2
101786	7	Sololá	701	Sololá	4	Finca Santa Victoria	4	Abril	2023-04-17T00:00:00	2024-11-08T20:00:00	7	Dirección del viento	3.22
101787	7	Sololá	701	Sololá	4	Finca Santa Victoria	4	Abril	2023-04-17T00:00:00	2024-11-08T20:00:00	1	Precipitación	0
101788	7	Sololá	701	Sololá	4	Finca Santa Victoria	4	Abril	2023-04-17T00:00:00	2024-11-08T20:00:00	8	Radiación solar	0
101789	7	Sololá	701	Sololá	4	Finca Santa Victoria	4	Abril	2023-04-17T00:00:00	2024-11-08T21:00:00	2	Temperatura media	13.2
101790	7	Sololá	701	Sololá	4	Finca Santa Victoria	4	Abril	2023-04-17T00:00:00	2024-11-08T21:00:00	4	Temperatura máxima	14.2
101791	7	Sololá	701	Sololá	4	Finca Santa Victoria	4	Abril	2023-04-17T00:00:00	2024-11-08T21:00:00	3	Temperatura mínima	13.2
101792	7	Sololá	701	Sololá	4	Finca Santa Victoria	4	Abril	2023-04-17T00:00:00	2024-11-08T21:00:00	5	Humedad	83
101793	7	Sololá	701	Sololá	4	Finca Santa Victoria	4	Abril	2023-04-17T00:00:00	2024-11-08T21:00:00	6	Velocidad del viento	3.2
101794	7	Sololá	701	Sololá	4	Finca Santa Victoria	4	Abril	2023-04-17T00:00:00	2024-11-08T21:00:00	7	Dirección del viento	3.22
101795	7	Sololá	701	Sololá	4	Finca Santa Victoria	4	Abril	2023-04-17T00:00:00	2024-11-08T21:00:00	1	Precipitación	0
101796	7	Sololá	701	Sololá	4	Finca Santa Victoria	4	Abril	2023-04-17T00:00:00	2024-11-08T21:00:00	8	Radiación solar	0
101797	7	Sololá	701	Sololá	4	Finca Santa Victoria	4	Abril	2023-04-17T00:00:00	2024-11-08T22:00:00	2	Temperatura media	13.2
101798	7	Sololá	701	Sololá	4	Finca Santa Victoria	4	Abril	2023-04-17T00:00:00	2024-11-08T22:00:00	4	Temperatura máxima	13.3
101799	7	Sololá	701	Sololá	4	Finca Santa Victoria	4	Abril	2023-04-17T00:00:00	2024-11-08T22:00:00	3	Temperatura mínima	13.2
101800	7	Sololá	701	Sololá	4	Finca Santa Victoria	4	Abril	2023-04-17T00:00:00	2024-11-08T22:00:00	5	Humedad	82
101801	7	Sololá	701	Sololá	4	Finca Santa Victoria	4	Abril	2023-04-17T00:00:00	2024-11-08T22:00:00	6	Velocidad del viento	3.2
101802	7	Sololá	701	Sololá	4	Finca Santa Victoria	4	Abril	2023-04-17T00:00:00	2024-11-08T22:00:00	7	Dirección del viento	3.22
101803	7	Sololá	701	Sololá	4	Finca Santa Victoria	4	Abril	2023-04-17T00:00:00	2024-11-08T22:00:00	1	Precipitación	0
101804	7	Sololá	701	Sololá	4	Finca Santa Victoria	4	Abril	2023-04-17T00:00:00	2024-11-08T22:00:00	8	Radiación solar	0
101805	7	Sololá	701	Sololá	4	Finca Santa Victoria	4	Abril	2023-04-17T00:00:00	2024-11-08T23:00:00	2	Temperatura media	13.3
101806	7	Sololá	701	Sololá	4	Finca Santa Victoria	4	Abril	2023-04-17T00:00:00	2024-11-08T23:00:00	4	Temperatura máxima	13.4
101807	7	Sololá	701	Sololá	4	Finca Santa Victoria	4	Abril	2023-04-17T00:00:00	2024-11-08T23:00:00	3	Temperatura mínima	13.2
101808	7	Sololá	701	Sololá	4	Finca Santa Victoria	4	Abril	2023-04-17T00:00:00	2024-11-08T23:00:00	5	Humedad	85
101809	7	Sololá	701	Sololá	4	Finca Santa Victoria	4	Abril	2023-04-17T00:00:00	2024-11-08T23:00:00	6	Velocidad del viento	3.2
101810	7	Sololá	701	Sololá	4	Finca Santa Victoria	4	Abril	2023-04-17T00:00:00	2024-11-08T23:00:00	7	Dirección del viento	3.22
101811	7	Sololá	701	Sololá	4	Finca Santa Victoria	4	Abril	2023-04-17T00:00:00	2024-11-08T23:00:00	1	Precipitación	0
101812	7	Sololá	701	Sololá	4	Finca Santa Victoria	4	Abril	2023-04-17T00:00:00	2024-11-08T23:00:00	8	Radiación solar	0
101813	7	Sololá	701	Sololá	4	Finca Santa Victoria	4	Abril	2023-04-18T00:00:00	2024-11-08T00:00:00	2	Temperatura media	12.9
101814	7	Sololá	701	Sololá	4	Finca Santa Victoria	4	Abril	2023-04-18T00:00:00	2024-11-08T00:00:00	4	Temperatura máxima	13.3
101815	7	Sololá	701	Sololá	4	Finca Santa Victoria	4	Abril	2023-04-18T00:00:00	2024-11-08T00:00:00	3	Temperatura mínima	12.9
101816	7	Sololá	701	Sololá	4	Finca Santa Victoria	4	Abril	2023-04-18T00:00:00	2024-11-08T00:00:00	5	Humedad	88
101817	7	Sololá	701	Sololá	4	Finca Santa Victoria	4	Abril	2023-04-18T00:00:00	2024-11-08T00:00:00	6	Velocidad del viento	3.2
101818	7	Sololá	701	Sololá	4	Finca Santa Victoria	4	Abril	2023-04-18T00:00:00	2024-11-08T00:00:00	7	Dirección del viento	3.22
101819	7	Sololá	701	Sololá	4	Finca Santa Victoria	4	Abril	2023-04-18T00:00:00	2024-11-08T00:00:00	1	Precipitación	0
101820	7	Sololá	701	Sololá	4	Finca Santa Victoria	4	Abril	2023-04-18T00:00:00	2024-11-08T00:00:00	8	Radiación solar	0
101821	7	Sololá	701	Sololá	4	Finca Santa Victoria	4	Abril	2023-04-18T00:00:00	2024-11-08T01:00:00	2	Temperatura media	13
101822	7	Sololá	701	Sololá	4	Finca Santa Victoria	4	Abril	2023-04-18T00:00:00	2024-11-08T01:00:00	4	Temperatura máxima	13
101823	7	Sololá	701	Sololá	4	Finca Santa Victoria	4	Abril	2023-04-18T00:00:00	2024-11-08T01:00:00	3	Temperatura mínima	12.8
101824	7	Sololá	701	Sololá	4	Finca Santa Victoria	4	Abril	2023-04-18T00:00:00	2024-11-08T01:00:00	5	Humedad	87
101825	7	Sololá	701	Sololá	4	Finca Santa Victoria	4	Abril	2023-04-18T00:00:00	2024-11-08T01:00:00	6	Velocidad del viento	1.6
101826	7	Sololá	701	Sololá	4	Finca Santa Victoria	4	Abril	2023-04-18T00:00:00	2024-11-08T01:00:00	7	Dirección del viento	1.61
101827	7	Sololá	701	Sololá	4	Finca Santa Victoria	4	Abril	2023-04-18T00:00:00	2024-11-08T01:00:00	1	Precipitación	0
101828	7	Sololá	701	Sololá	4	Finca Santa Victoria	4	Abril	2023-04-18T00:00:00	2024-11-08T01:00:00	8	Radiación solar	0
101829	7	Sololá	701	Sololá	4	Finca Santa Victoria	4	Abril	2023-04-18T00:00:00	2024-11-08T02:00:00	2	Temperatura media	12.9
101830	7	Sololá	701	Sololá	4	Finca Santa Victoria	4	Abril	2023-04-18T00:00:00	2024-11-08T02:00:00	4	Temperatura máxima	13.1
101831	7	Sololá	701	Sololá	4	Finca Santa Victoria	4	Abril	2023-04-18T00:00:00	2024-11-08T02:00:00	3	Temperatura mínima	12.8
101832	7	Sololá	701	Sololá	4	Finca Santa Victoria	4	Abril	2023-04-18T00:00:00	2024-11-08T02:00:00	5	Humedad	86
101833	7	Sololá	701	Sololá	4	Finca Santa Victoria	4	Abril	2023-04-18T00:00:00	2024-11-08T02:00:00	6	Velocidad del viento	3.2
101834	7	Sololá	701	Sololá	4	Finca Santa Victoria	4	Abril	2023-04-18T00:00:00	2024-11-08T02:00:00	7	Dirección del viento	3.22
101835	7	Sololá	701	Sololá	4	Finca Santa Victoria	4	Abril	2023-04-18T00:00:00	2024-11-08T02:00:00	1	Precipitación	0
101836	7	Sololá	701	Sololá	4	Finca Santa Victoria	4	Abril	2023-04-18T00:00:00	2024-11-08T02:00:00	8	Radiación solar	0
101837	7	Sololá	701	Sololá	4	Finca Santa Victoria	4	Abril	2023-04-18T00:00:00	2024-11-08T03:00:00	2	Temperatura media	12.4
101838	7	Sololá	701	Sololá	4	Finca Santa Victoria	4	Abril	2023-04-18T00:00:00	2024-11-08T03:00:00	4	Temperatura máxima	12.9
101839	7	Sololá	701	Sololá	4	Finca Santa Victoria	4	Abril	2023-04-18T00:00:00	2024-11-08T03:00:00	3	Temperatura mínima	12.3
101840	7	Sololá	701	Sololá	4	Finca Santa Victoria	4	Abril	2023-04-18T00:00:00	2024-11-08T03:00:00	5	Humedad	84
101841	7	Sololá	701	Sololá	4	Finca Santa Victoria	4	Abril	2023-04-18T00:00:00	2024-11-08T03:00:00	6	Velocidad del viento	1.6
101842	7	Sololá	701	Sololá	4	Finca Santa Victoria	4	Abril	2023-04-18T00:00:00	2024-11-08T03:00:00	7	Dirección del viento	1.61
101843	7	Sololá	701	Sololá	4	Finca Santa Victoria	4	Abril	2023-04-18T00:00:00	2024-11-08T03:00:00	1	Precipitación	0
101844	7	Sololá	701	Sololá	4	Finca Santa Victoria	4	Abril	2023-04-18T00:00:00	2024-11-08T03:00:00	8	Radiación solar	0
101845	7	Sololá	701	Sololá	4	Finca Santa Victoria	4	Abril	2023-04-18T00:00:00	2024-11-08T04:00:00	2	Temperatura media	12.1
101846	7	Sololá	701	Sololá	4	Finca Santa Victoria	4	Abril	2023-04-18T00:00:00	2024-11-08T04:00:00	4	Temperatura máxima	12.6
101847	7	Sololá	701	Sololá	4	Finca Santa Victoria	4	Abril	2023-04-18T00:00:00	2024-11-08T04:00:00	3	Temperatura mínima	12.1
101848	7	Sololá	701	Sololá	4	Finca Santa Victoria	4	Abril	2023-04-18T00:00:00	2024-11-08T04:00:00	5	Humedad	83
101849	7	Sololá	701	Sololá	4	Finca Santa Victoria	4	Abril	2023-04-18T00:00:00	2024-11-08T04:00:00	6	Velocidad del viento	1.6
101850	7	Sololá	701	Sololá	4	Finca Santa Victoria	4	Abril	2023-04-18T00:00:00	2024-11-08T04:00:00	7	Dirección del viento	1.61
101851	7	Sololá	701	Sololá	4	Finca Santa Victoria	4	Abril	2023-04-18T00:00:00	2024-11-08T04:00:00	1	Precipitación	0
101852	7	Sololá	701	Sololá	4	Finca Santa Victoria	4	Abril	2023-04-18T00:00:00	2024-11-08T04:00:00	8	Radiación solar	0
101853	7	Sololá	701	Sololá	4	Finca Santa Victoria	4	Abril	2023-04-18T00:00:00	2024-11-08T05:00:00	2	Temperatura media	11.3
101854	7	Sololá	701	Sololá	4	Finca Santa Victoria	4	Abril	2023-04-18T00:00:00	2024-11-08T05:00:00	4	Temperatura máxima	12.1
101855	7	Sololá	701	Sololá	4	Finca Santa Victoria	4	Abril	2023-04-18T00:00:00	2024-11-08T05:00:00	3	Temperatura mínima	11.3
101856	7	Sololá	701	Sololá	4	Finca Santa Victoria	4	Abril	2023-04-18T00:00:00	2024-11-08T05:00:00	5	Humedad	86
101857	7	Sololá	701	Sololá	4	Finca Santa Victoria	4	Abril	2023-04-18T00:00:00	2024-11-08T05:00:00	6	Velocidad del viento	1.6
101858	7	Sololá	701	Sololá	4	Finca Santa Victoria	4	Abril	2023-04-18T00:00:00	2024-11-08T05:00:00	7	Dirección del viento	1.61
101859	7	Sololá	701	Sololá	4	Finca Santa Victoria	4	Abril	2023-04-18T00:00:00	2024-11-08T05:00:00	1	Precipitación	0
101860	7	Sololá	701	Sololá	4	Finca Santa Victoria	4	Abril	2023-04-18T00:00:00	2024-11-08T05:00:00	8	Radiación solar	0
101861	7	Sololá	701	Sololá	4	Finca Santa Victoria	4	Abril	2023-04-18T00:00:00	2024-11-08T06:00:00	2	Temperatura media	10.7
101862	7	Sololá	701	Sololá	4	Finca Santa Victoria	4	Abril	2023-04-18T00:00:00	2024-11-08T06:00:00	4	Temperatura máxima	11.3
101863	7	Sololá	701	Sololá	4	Finca Santa Victoria	4	Abril	2023-04-18T00:00:00	2024-11-08T06:00:00	3	Temperatura mínima	10.6
101864	7	Sololá	701	Sololá	4	Finca Santa Victoria	4	Abril	2023-04-18T00:00:00	2024-11-08T06:00:00	5	Humedad	92
101865	7	Sololá	701	Sololá	4	Finca Santa Victoria	4	Abril	2023-04-18T00:00:00	2024-11-08T06:00:00	6	Velocidad del viento	1.6
101866	7	Sololá	701	Sololá	4	Finca Santa Victoria	4	Abril	2023-04-18T00:00:00	2024-11-08T06:00:00	7	Dirección del viento	1.61
101867	7	Sololá	701	Sololá	4	Finca Santa Victoria	4	Abril	2023-04-18T00:00:00	2024-11-08T06:00:00	1	Precipitación	0
101868	7	Sololá	701	Sololá	4	Finca Santa Victoria	4	Abril	2023-04-18T00:00:00	2024-11-08T06:00:00	8	Radiación solar	0
101869	7	Sololá	701	Sololá	4	Finca Santa Victoria	4	Abril	2023-04-18T00:00:00	2024-11-08T07:00:00	2	Temperatura media	10.8
101870	7	Sololá	701	Sololá	4	Finca Santa Victoria	4	Abril	2023-04-18T00:00:00	2024-11-08T07:00:00	4	Temperatura máxima	10.8
101871	7	Sololá	701	Sololá	4	Finca Santa Victoria	4	Abril	2023-04-18T00:00:00	2024-11-08T07:00:00	3	Temperatura mínima	10.4
101872	7	Sololá	701	Sololá	4	Finca Santa Victoria	4	Abril	2023-04-18T00:00:00	2024-11-08T07:00:00	5	Humedad	91
101873	7	Sololá	701	Sololá	4	Finca Santa Victoria	4	Abril	2023-04-18T00:00:00	2024-11-08T07:00:00	6	Velocidad del viento	1.6
101874	7	Sololá	701	Sololá	4	Finca Santa Victoria	4	Abril	2023-04-18T00:00:00	2024-11-08T07:00:00	7	Dirección del viento	1.61
101875	7	Sololá	701	Sololá	4	Finca Santa Victoria	4	Abril	2023-04-18T00:00:00	2024-11-08T07:00:00	1	Precipitación	0
101876	7	Sololá	701	Sololá	4	Finca Santa Victoria	4	Abril	2023-04-18T00:00:00	2024-11-08T07:00:00	8	Radiación solar	16
101877	7	Sololá	701	Sololá	4	Finca Santa Victoria	4	Abril	2023-04-18T00:00:00	2024-11-08T08:00:00	2	Temperatura media	14.8
101878	7	Sololá	701	Sololá	4	Finca Santa Victoria	4	Abril	2023-04-18T00:00:00	2024-11-08T08:00:00	4	Temperatura máxima	15.6
101879	7	Sololá	701	Sololá	4	Finca Santa Victoria	4	Abril	2023-04-18T00:00:00	2024-11-08T08:00:00	3	Temperatura mínima	10.8
101880	7	Sololá	701	Sololá	4	Finca Santa Victoria	4	Abril	2023-04-18T00:00:00	2024-11-08T08:00:00	5	Humedad	77
101881	7	Sololá	701	Sololá	4	Finca Santa Victoria	4	Abril	2023-04-18T00:00:00	2024-11-08T08:00:00	6	Velocidad del viento	1.6
101882	7	Sololá	701	Sololá	4	Finca Santa Victoria	4	Abril	2023-04-18T00:00:00	2024-11-08T08:00:00	7	Dirección del viento	1.61
101883	7	Sololá	701	Sololá	4	Finca Santa Victoria	4	Abril	2023-04-18T00:00:00	2024-11-08T08:00:00	1	Precipitación	0
101884	7	Sololá	701	Sololá	4	Finca Santa Victoria	4	Abril	2023-04-18T00:00:00	2024-11-08T08:00:00	8	Radiación solar	265
101885	7	Sololá	701	Sololá	4	Finca Santa Victoria	4	Abril	2023-04-18T00:00:00	2024-11-08T09:00:00	2	Temperatura media	17.5
101886	7	Sololá	701	Sololá	4	Finca Santa Victoria	4	Abril	2023-04-18T00:00:00	2024-11-08T09:00:00	4	Temperatura máxima	17.6
101887	7	Sololá	701	Sololá	4	Finca Santa Victoria	4	Abril	2023-04-18T00:00:00	2024-11-08T09:00:00	3	Temperatura mínima	14.7
101888	7	Sololá	701	Sololá	4	Finca Santa Victoria	4	Abril	2023-04-18T00:00:00	2024-11-08T09:00:00	5	Humedad	66
101889	7	Sololá	701	Sololá	4	Finca Santa Victoria	4	Abril	2023-04-18T00:00:00	2024-11-08T09:00:00	6	Velocidad del viento	3.2
101890	7	Sololá	701	Sololá	4	Finca Santa Victoria	4	Abril	2023-04-18T00:00:00	2024-11-08T09:00:00	7	Dirección del viento	3.22
101891	7	Sololá	701	Sololá	4	Finca Santa Victoria	4	Abril	2023-04-18T00:00:00	2024-11-08T09:00:00	1	Precipitación	0
101892	7	Sololá	701	Sololá	4	Finca Santa Victoria	4	Abril	2023-04-18T00:00:00	2024-11-08T09:00:00	8	Radiación solar	485
101893	7	Sololá	701	Sololá	4	Finca Santa Victoria	4	Abril	2023-04-18T00:00:00	2024-11-08T10:00:00	2	Temperatura media	18.4
101894	7	Sololá	701	Sololá	4	Finca Santa Victoria	4	Abril	2023-04-18T00:00:00	2024-11-08T10:00:00	4	Temperatura máxima	18.4
101895	7	Sololá	701	Sololá	4	Finca Santa Victoria	4	Abril	2023-04-18T00:00:00	2024-11-08T10:00:00	3	Temperatura mínima	17.4
101896	7	Sololá	701	Sololá	4	Finca Santa Victoria	4	Abril	2023-04-18T00:00:00	2024-11-08T10:00:00	5	Humedad	63
101897	7	Sololá	701	Sololá	4	Finca Santa Victoria	4	Abril	2023-04-18T00:00:00	2024-11-08T10:00:00	6	Velocidad del viento	3.2
101898	7	Sololá	701	Sololá	4	Finca Santa Victoria	4	Abril	2023-04-18T00:00:00	2024-11-08T10:00:00	7	Dirección del viento	3.22
101899	7	Sololá	701	Sololá	4	Finca Santa Victoria	4	Abril	2023-04-18T00:00:00	2024-11-08T10:00:00	1	Precipitación	0
101900	7	Sololá	701	Sololá	4	Finca Santa Victoria	4	Abril	2023-04-18T00:00:00	2024-11-08T10:00:00	8	Radiación solar	383
101901	7	Sololá	701	Sololá	4	Finca Santa Victoria	4	Abril	2023-04-18T00:00:00	2024-11-08T11:00:00	2	Temperatura media	19.1
101902	7	Sololá	701	Sololá	4	Finca Santa Victoria	4	Abril	2023-04-18T00:00:00	2024-11-08T11:00:00	4	Temperatura máxima	19.6
101903	7	Sololá	701	Sololá	4	Finca Santa Victoria	4	Abril	2023-04-18T00:00:00	2024-11-08T11:00:00	3	Temperatura mínima	18.4
101904	7	Sololá	701	Sololá	4	Finca Santa Victoria	4	Abril	2023-04-18T00:00:00	2024-11-08T11:00:00	5	Humedad	64
101905	7	Sololá	701	Sololá	4	Finca Santa Victoria	4	Abril	2023-04-18T00:00:00	2024-11-08T11:00:00	6	Velocidad del viento	4.8
101906	7	Sololá	701	Sololá	4	Finca Santa Victoria	4	Abril	2023-04-18T00:00:00	2024-11-08T11:00:00	7	Dirección del viento	4.83
101907	7	Sololá	701	Sololá	4	Finca Santa Victoria	4	Abril	2023-04-18T00:00:00	2024-11-08T11:00:00	1	Precipitación	0
101908	7	Sololá	701	Sololá	4	Finca Santa Victoria	4	Abril	2023-04-18T00:00:00	2024-11-08T11:00:00	8	Radiación solar	926
101909	7	Sololá	701	Sololá	4	Finca Santa Victoria	4	Abril	2023-04-18T00:00:00	2024-11-08T12:00:00	2	Temperatura media	18.8
101910	7	Sololá	701	Sololá	4	Finca Santa Victoria	4	Abril	2023-04-18T00:00:00	2024-11-08T12:00:00	4	Temperatura máxima	19.1
101911	7	Sololá	701	Sololá	4	Finca Santa Victoria	4	Abril	2023-04-18T00:00:00	2024-11-08T12:00:00	3	Temperatura mínima	18.4
101912	7	Sololá	701	Sololá	4	Finca Santa Victoria	4	Abril	2023-04-18T00:00:00	2024-11-08T12:00:00	5	Humedad	68
101913	7	Sololá	701	Sololá	4	Finca Santa Victoria	4	Abril	2023-04-18T00:00:00	2024-11-08T12:00:00	6	Velocidad del viento	6.4
101914	7	Sololá	701	Sololá	4	Finca Santa Victoria	4	Abril	2023-04-18T00:00:00	2024-11-08T12:00:00	7	Dirección del viento	6.44
101915	7	Sololá	701	Sololá	4	Finca Santa Victoria	4	Abril	2023-04-18T00:00:00	2024-11-08T12:00:00	1	Precipitación	0
101916	7	Sololá	701	Sololá	4	Finca Santa Victoria	4	Abril	2023-04-18T00:00:00	2024-11-08T12:00:00	8	Radiación solar	983
101917	7	Sololá	701	Sololá	4	Finca Santa Victoria	4	Abril	2023-04-18T00:00:00	2024-11-08T13:00:00	2	Temperatura media	17.6
101918	7	Sololá	701	Sololá	4	Finca Santa Victoria	4	Abril	2023-04-18T00:00:00	2024-11-08T13:00:00	4	Temperatura máxima	19.5
101919	7	Sololá	701	Sololá	4	Finca Santa Victoria	4	Abril	2023-04-18T00:00:00	2024-11-08T13:00:00	3	Temperatura mínima	17.5
101920	7	Sololá	701	Sololá	4	Finca Santa Victoria	4	Abril	2023-04-18T00:00:00	2024-11-08T13:00:00	5	Humedad	77
101921	7	Sololá	701	Sololá	4	Finca Santa Victoria	4	Abril	2023-04-18T00:00:00	2024-11-08T13:00:00	6	Velocidad del viento	4.8
101922	7	Sololá	701	Sololá	4	Finca Santa Victoria	4	Abril	2023-04-18T00:00:00	2024-11-08T13:00:00	7	Dirección del viento	4.83
101923	7	Sololá	701	Sololá	4	Finca Santa Victoria	4	Abril	2023-04-18T00:00:00	2024-11-08T13:00:00	1	Precipitación	0
101924	7	Sololá	701	Sololá	4	Finca Santa Victoria	4	Abril	2023-04-18T00:00:00	2024-11-08T13:00:00	8	Radiación solar	506
101925	7	Sololá	701	Sololá	4	Finca Santa Victoria	4	Abril	2023-04-18T00:00:00	2024-11-08T14:00:00	2	Temperatura media	17.1
101926	7	Sololá	701	Sololá	4	Finca Santa Victoria	4	Abril	2023-04-18T00:00:00	2024-11-08T14:00:00	4	Temperatura máxima	18.7
101927	7	Sololá	701	Sololá	4	Finca Santa Victoria	4	Abril	2023-04-18T00:00:00	2024-11-08T14:00:00	3	Temperatura mínima	17.1
101928	7	Sololá	701	Sololá	4	Finca Santa Victoria	4	Abril	2023-04-18T00:00:00	2024-11-08T14:00:00	5	Humedad	80
101929	7	Sololá	701	Sololá	4	Finca Santa Victoria	4	Abril	2023-04-18T00:00:00	2024-11-08T14:00:00	6	Velocidad del viento	6.4
101930	7	Sololá	701	Sololá	4	Finca Santa Victoria	4	Abril	2023-04-18T00:00:00	2024-11-08T14:00:00	7	Dirección del viento	6.44
101931	7	Sololá	701	Sololá	4	Finca Santa Victoria	4	Abril	2023-04-18T00:00:00	2024-11-08T14:00:00	1	Precipitación	0
101932	7	Sololá	701	Sololá	4	Finca Santa Victoria	4	Abril	2023-04-18T00:00:00	2024-11-08T14:00:00	8	Radiación solar	306
101933	7	Sololá	701	Sololá	4	Finca Santa Victoria	4	Abril	2023-04-18T00:00:00	2024-11-08T15:00:00	2	Temperatura media	16.2
101934	7	Sololá	701	Sololá	4	Finca Santa Victoria	4	Abril	2023-04-18T00:00:00	2024-11-08T15:00:00	4	Temperatura máxima	17.1
101935	7	Sololá	701	Sololá	4	Finca Santa Victoria	4	Abril	2023-04-18T00:00:00	2024-11-08T15:00:00	3	Temperatura mínima	16.2
101936	7	Sololá	701	Sololá	4	Finca Santa Victoria	4	Abril	2023-04-18T00:00:00	2024-11-08T15:00:00	5	Humedad	84
101937	7	Sololá	701	Sololá	4	Finca Santa Victoria	4	Abril	2023-04-18T00:00:00	2024-11-08T15:00:00	6	Velocidad del viento	4.8
101938	7	Sololá	701	Sololá	4	Finca Santa Victoria	4	Abril	2023-04-18T00:00:00	2024-11-08T15:00:00	7	Dirección del viento	4.83
101939	7	Sololá	701	Sololá	4	Finca Santa Victoria	4	Abril	2023-04-18T00:00:00	2024-11-08T15:00:00	1	Precipitación	0
101940	7	Sololá	701	Sololá	4	Finca Santa Victoria	4	Abril	2023-04-18T00:00:00	2024-11-08T15:00:00	8	Radiación solar	206
101941	7	Sololá	701	Sololá	4	Finca Santa Victoria	4	Abril	2023-04-18T00:00:00	2024-11-08T16:00:00	2	Temperatura media	16.2
101942	7	Sololá	701	Sololá	4	Finca Santa Victoria	4	Abril	2023-04-18T00:00:00	2024-11-08T16:00:00	4	Temperatura máxima	16.6
101943	7	Sololá	701	Sololá	4	Finca Santa Victoria	4	Abril	2023-04-18T00:00:00	2024-11-08T16:00:00	3	Temperatura mínima	15.9
101944	7	Sololá	701	Sololá	4	Finca Santa Victoria	4	Abril	2023-04-18T00:00:00	2024-11-08T16:00:00	5	Humedad	85
101945	7	Sololá	701	Sololá	4	Finca Santa Victoria	4	Abril	2023-04-18T00:00:00	2024-11-08T16:00:00	6	Velocidad del viento	3.2
101946	7	Sololá	701	Sololá	4	Finca Santa Victoria	4	Abril	2023-04-18T00:00:00	2024-11-08T16:00:00	7	Dirección del viento	3.22
101947	7	Sololá	701	Sololá	4	Finca Santa Victoria	4	Abril	2023-04-18T00:00:00	2024-11-08T16:00:00	1	Precipitación	0
101948	7	Sololá	701	Sololá	4	Finca Santa Victoria	4	Abril	2023-04-18T00:00:00	2024-11-08T16:00:00	8	Radiación solar	150
101949	7	Sololá	701	Sololá	4	Finca Santa Victoria	4	Abril	2023-04-18T00:00:00	2024-11-08T17:00:00	2	Temperatura media	15.3
101950	7	Sololá	701	Sololá	4	Finca Santa Victoria	4	Abril	2023-04-18T00:00:00	2024-11-08T17:00:00	4	Temperatura máxima	16.4
101951	7	Sololá	701	Sololá	4	Finca Santa Victoria	4	Abril	2023-04-18T00:00:00	2024-11-08T17:00:00	3	Temperatura mínima	15.3
101952	7	Sololá	701	Sololá	4	Finca Santa Victoria	4	Abril	2023-04-18T00:00:00	2024-11-08T17:00:00	5	Humedad	90
101953	7	Sololá	701	Sololá	4	Finca Santa Victoria	4	Abril	2023-04-18T00:00:00	2024-11-08T17:00:00	6	Velocidad del viento	3.2
101954	7	Sololá	701	Sololá	4	Finca Santa Victoria	4	Abril	2023-04-18T00:00:00	2024-11-08T17:00:00	7	Dirección del viento	3.22
101955	7	Sololá	701	Sololá	4	Finca Santa Victoria	4	Abril	2023-04-18T00:00:00	2024-11-08T17:00:00	1	Precipitación	0
101956	7	Sololá	701	Sololá	4	Finca Santa Victoria	4	Abril	2023-04-18T00:00:00	2024-11-08T17:00:00	8	Radiación solar	81
101957	7	Sololá	701	Sololá	4	Finca Santa Victoria	4	Abril	2023-04-18T00:00:00	2024-11-08T18:00:00	2	Temperatura media	14.6
101958	7	Sololá	701	Sololá	4	Finca Santa Victoria	4	Abril	2023-04-18T00:00:00	2024-11-08T18:00:00	4	Temperatura máxima	15.3
101959	7	Sololá	701	Sololá	4	Finca Santa Victoria	4	Abril	2023-04-18T00:00:00	2024-11-08T18:00:00	3	Temperatura mínima	14.6
101960	7	Sololá	701	Sololá	4	Finca Santa Victoria	4	Abril	2023-04-18T00:00:00	2024-11-08T18:00:00	5	Humedad	93
101961	7	Sololá	701	Sololá	4	Finca Santa Victoria	4	Abril	2023-04-18T00:00:00	2024-11-08T18:00:00	6	Velocidad del viento	1.6
101962	7	Sololá	701	Sololá	4	Finca Santa Victoria	4	Abril	2023-04-18T00:00:00	2024-11-08T18:00:00	7	Dirección del viento	1.61
101963	7	Sololá	701	Sololá	4	Finca Santa Victoria	4	Abril	2023-04-18T00:00:00	2024-11-08T18:00:00	1	Precipitación	0
101964	7	Sololá	701	Sololá	4	Finca Santa Victoria	4	Abril	2023-04-18T00:00:00	2024-11-08T18:00:00	8	Radiación solar	19
101965	7	Sololá	701	Sololá	4	Finca Santa Victoria	4	Abril	2023-04-18T00:00:00	2024-11-08T19:00:00	2	Temperatura media	14.2
101966	7	Sololá	701	Sololá	4	Finca Santa Victoria	4	Abril	2023-04-18T00:00:00	2024-11-08T19:00:00	4	Temperatura máxima	14.6
101967	7	Sololá	701	Sololá	4	Finca Santa Victoria	4	Abril	2023-04-18T00:00:00	2024-11-08T19:00:00	3	Temperatura mínima	14.1
101968	7	Sololá	701	Sololá	4	Finca Santa Victoria	4	Abril	2023-04-18T00:00:00	2024-11-08T19:00:00	5	Humedad	95
101969	7	Sololá	701	Sololá	4	Finca Santa Victoria	4	Abril	2023-04-18T00:00:00	2024-11-08T19:00:00	6	Velocidad del viento	0
101970	7	Sololá	701	Sololá	4	Finca Santa Victoria	4	Abril	2023-04-18T00:00:00	2024-11-08T19:00:00	7	Dirección del viento	0
101971	7	Sololá	701	Sololá	4	Finca Santa Victoria	4	Abril	2023-04-18T00:00:00	2024-11-08T19:00:00	1	Precipitación	0
101972	7	Sololá	701	Sololá	4	Finca Santa Victoria	4	Abril	2023-04-18T00:00:00	2024-11-08T19:00:00	8	Radiación solar	0
101973	7	Sololá	701	Sololá	4	Finca Santa Victoria	4	Abril	2023-04-18T00:00:00	2024-11-08T20:00:00	2	Temperatura media	14.2
101974	7	Sololá	701	Sololá	4	Finca Santa Victoria	4	Abril	2023-04-18T00:00:00	2024-11-08T20:00:00	4	Temperatura máxima	14.2
101975	7	Sololá	701	Sololá	4	Finca Santa Victoria	4	Abril	2023-04-18T00:00:00	2024-11-08T20:00:00	3	Temperatura mínima	14
101976	7	Sololá	701	Sololá	4	Finca Santa Victoria	4	Abril	2023-04-18T00:00:00	2024-11-08T20:00:00	5	Humedad	92
101977	7	Sololá	701	Sololá	4	Finca Santa Victoria	4	Abril	2023-04-18T00:00:00	2024-11-08T20:00:00	6	Velocidad del viento	0
101978	7	Sololá	701	Sololá	4	Finca Santa Victoria	4	Abril	2023-04-18T00:00:00	2024-11-08T20:00:00	7	Dirección del viento	0
101979	7	Sololá	701	Sololá	4	Finca Santa Victoria	4	Abril	2023-04-18T00:00:00	2024-11-08T20:00:00	1	Precipitación	0
101980	7	Sololá	701	Sololá	4	Finca Santa Victoria	4	Abril	2023-04-18T00:00:00	2024-11-08T20:00:00	8	Radiación solar	0
101981	7	Sololá	701	Sololá	4	Finca Santa Victoria	4	Abril	2023-04-18T00:00:00	2024-11-08T21:00:00	2	Temperatura media	13.9
101982	7	Sololá	701	Sololá	4	Finca Santa Victoria	4	Abril	2023-04-18T00:00:00	2024-11-08T21:00:00	4	Temperatura máxima	14.4
101983	7	Sololá	701	Sololá	4	Finca Santa Victoria	4	Abril	2023-04-18T00:00:00	2024-11-08T21:00:00	3	Temperatura mínima	13.8
101984	7	Sololá	701	Sololá	4	Finca Santa Victoria	4	Abril	2023-04-18T00:00:00	2024-11-08T21:00:00	5	Humedad	91
101985	7	Sololá	701	Sololá	4	Finca Santa Victoria	4	Abril	2023-04-18T00:00:00	2024-11-08T21:00:00	6	Velocidad del viento	0
101986	7	Sololá	701	Sololá	4	Finca Santa Victoria	4	Abril	2023-04-18T00:00:00	2024-11-08T21:00:00	7	Dirección del viento	0
101987	7	Sololá	701	Sololá	4	Finca Santa Victoria	4	Abril	2023-04-18T00:00:00	2024-11-08T21:00:00	1	Precipitación	0
101988	7	Sololá	701	Sololá	4	Finca Santa Victoria	4	Abril	2023-04-18T00:00:00	2024-11-08T21:00:00	8	Radiación solar	0
101989	7	Sololá	701	Sololá	4	Finca Santa Victoria	4	Abril	2023-04-18T00:00:00	2024-11-08T22:00:00	2	Temperatura media	13.7
101990	7	Sololá	701	Sololá	4	Finca Santa Victoria	4	Abril	2023-04-18T00:00:00	2024-11-08T22:00:00	4	Temperatura máxima	14
101991	7	Sololá	701	Sololá	4	Finca Santa Victoria	4	Abril	2023-04-18T00:00:00	2024-11-08T22:00:00	3	Temperatura mínima	13.7
101992	7	Sololá	701	Sololá	4	Finca Santa Victoria	4	Abril	2023-04-18T00:00:00	2024-11-08T22:00:00	5	Humedad	85
101993	7	Sololá	701	Sololá	4	Finca Santa Victoria	4	Abril	2023-04-18T00:00:00	2024-11-08T22:00:00	6	Velocidad del viento	1.6
101994	7	Sololá	701	Sololá	4	Finca Santa Victoria	4	Abril	2023-04-18T00:00:00	2024-11-08T22:00:00	7	Dirección del viento	1.61
101995	7	Sololá	701	Sololá	4	Finca Santa Victoria	4	Abril	2023-04-18T00:00:00	2024-11-08T22:00:00	1	Precipitación	0
101996	7	Sololá	701	Sololá	4	Finca Santa Victoria	4	Abril	2023-04-18T00:00:00	2024-11-08T22:00:00	8	Radiación solar	0
101997	7	Sololá	701	Sololá	4	Finca Santa Victoria	4	Abril	2023-04-18T00:00:00	2024-11-08T23:00:00	2	Temperatura media	13.4
101998	7	Sololá	701	Sololá	4	Finca Santa Victoria	4	Abril	2023-04-18T00:00:00	2024-11-08T23:00:00	4	Temperatura máxima	13.8
101999	7	Sololá	701	Sololá	4	Finca Santa Victoria	4	Abril	2023-04-18T00:00:00	2024-11-08T23:00:00	3	Temperatura mínima	13.4
102000	7	Sololá	701	Sololá	4	Finca Santa Victoria	4	Abril	2023-04-18T00:00:00	2024-11-08T23:00:00	5	Humedad	84
102001	7	Sololá	701	Sololá	4	Finca Santa Victoria	4	Abril	2023-04-18T00:00:00	2024-11-08T23:00:00	6	Velocidad del viento	1.6
102002	7	Sololá	701	Sololá	4	Finca Santa Victoria	4	Abril	2023-04-18T00:00:00	2024-11-08T23:00:00	7	Dirección del viento	1.61
102003	7	Sololá	701	Sololá	4	Finca Santa Victoria	4	Abril	2023-04-18T00:00:00	2024-11-08T23:00:00	1	Precipitación	0
102004	7	Sololá	701	Sololá	4	Finca Santa Victoria	4	Abril	2023-04-18T00:00:00	2024-11-08T23:00:00	8	Radiación solar	0
102005	7	Sololá	701	Sololá	4	Finca Santa Victoria	4	Abril	2023-04-19T00:00:00	2024-11-08T00:00:00	2	Temperatura media	12.7
102006	7	Sololá	701	Sololá	4	Finca Santa Victoria	4	Abril	2023-04-19T00:00:00	2024-11-08T00:00:00	4	Temperatura máxima	13.4
102007	7	Sololá	701	Sololá	4	Finca Santa Victoria	4	Abril	2023-04-19T00:00:00	2024-11-08T00:00:00	3	Temperatura mínima	12.7
102008	7	Sololá	701	Sololá	4	Finca Santa Victoria	4	Abril	2023-04-19T00:00:00	2024-11-08T00:00:00	5	Humedad	85
102009	7	Sololá	701	Sololá	4	Finca Santa Victoria	4	Abril	2023-04-19T00:00:00	2024-11-08T00:00:00	6	Velocidad del viento	1.6
102010	7	Sololá	701	Sololá	4	Finca Santa Victoria	4	Abril	2023-04-19T00:00:00	2024-11-08T00:00:00	7	Dirección del viento	1.61
102011	7	Sololá	701	Sololá	4	Finca Santa Victoria	4	Abril	2023-04-19T00:00:00	2024-11-08T00:00:00	1	Precipitación	0
102012	7	Sololá	701	Sololá	4	Finca Santa Victoria	4	Abril	2023-04-19T00:00:00	2024-11-08T00:00:00	8	Radiación solar	0
102013	7	Sololá	701	Sololá	4	Finca Santa Victoria	4	Abril	2023-04-19T00:00:00	2024-11-08T01:00:00	2	Temperatura media	12.3
102014	7	Sololá	701	Sololá	4	Finca Santa Victoria	4	Abril	2023-04-19T00:00:00	2024-11-08T01:00:00	4	Temperatura máxima	12.7
102015	7	Sololá	701	Sololá	4	Finca Santa Victoria	4	Abril	2023-04-19T00:00:00	2024-11-08T01:00:00	3	Temperatura mínima	12.3
102016	7	Sololá	701	Sololá	4	Finca Santa Victoria	4	Abril	2023-04-19T00:00:00	2024-11-08T01:00:00	5	Humedad	82
102017	7	Sololá	701	Sololá	4	Finca Santa Victoria	4	Abril	2023-04-19T00:00:00	2024-11-08T01:00:00	6	Velocidad del viento	1.6
102018	7	Sololá	701	Sololá	4	Finca Santa Victoria	4	Abril	2023-04-19T00:00:00	2024-11-08T01:00:00	7	Dirección del viento	1.61
102019	7	Sololá	701	Sololá	4	Finca Santa Victoria	4	Abril	2023-04-19T00:00:00	2024-11-08T01:00:00	1	Precipitación	0
102020	7	Sololá	701	Sololá	4	Finca Santa Victoria	4	Abril	2023-04-19T00:00:00	2024-11-08T01:00:00	8	Radiación solar	0
102021	7	Sololá	701	Sololá	4	Finca Santa Victoria	4	Abril	2023-04-19T00:00:00	2024-11-08T02:00:00	2	Temperatura media	11.8
102022	7	Sololá	701	Sololá	4	Finca Santa Victoria	4	Abril	2023-04-19T00:00:00	2024-11-08T02:00:00	4	Temperatura máxima	12.4
102023	7	Sololá	701	Sololá	4	Finca Santa Victoria	4	Abril	2023-04-19T00:00:00	2024-11-08T02:00:00	3	Temperatura mínima	11.7
102024	7	Sololá	701	Sololá	4	Finca Santa Victoria	4	Abril	2023-04-19T00:00:00	2024-11-08T02:00:00	5	Humedad	88
102025	7	Sololá	701	Sololá	4	Finca Santa Victoria	4	Abril	2023-04-19T00:00:00	2024-11-08T02:00:00	6	Velocidad del viento	1.6
102026	7	Sololá	701	Sololá	4	Finca Santa Victoria	4	Abril	2023-04-19T00:00:00	2024-11-08T02:00:00	7	Dirección del viento	1.61
102027	7	Sololá	701	Sololá	4	Finca Santa Victoria	4	Abril	2023-04-19T00:00:00	2024-11-08T02:00:00	1	Precipitación	0
102028	7	Sololá	701	Sololá	4	Finca Santa Victoria	4	Abril	2023-04-19T00:00:00	2024-11-08T02:00:00	8	Radiación solar	0
102029	7	Sololá	701	Sololá	4	Finca Santa Victoria	4	Abril	2023-04-19T00:00:00	2024-11-08T03:00:00	2	Temperatura media	11.3
102030	7	Sololá	701	Sololá	4	Finca Santa Victoria	4	Abril	2023-04-19T00:00:00	2024-11-08T03:00:00	4	Temperatura máxima	11.9
102031	7	Sololá	701	Sololá	4	Finca Santa Victoria	4	Abril	2023-04-19T00:00:00	2024-11-08T03:00:00	3	Temperatura mínima	11.3
102032	7	Sololá	701	Sololá	4	Finca Santa Victoria	4	Abril	2023-04-19T00:00:00	2024-11-08T03:00:00	5	Humedad	86
102033	7	Sololá	701	Sololá	4	Finca Santa Victoria	4	Abril	2023-04-19T00:00:00	2024-11-08T03:00:00	6	Velocidad del viento	1.6
102034	7	Sololá	701	Sololá	4	Finca Santa Victoria	4	Abril	2023-04-19T00:00:00	2024-11-08T03:00:00	7	Dirección del viento	1.61
102035	7	Sololá	701	Sololá	4	Finca Santa Victoria	4	Abril	2023-04-19T00:00:00	2024-11-08T03:00:00	1	Precipitación	0
102036	7	Sololá	701	Sololá	4	Finca Santa Victoria	4	Abril	2023-04-19T00:00:00	2024-11-08T03:00:00	8	Radiación solar	0
102037	7	Sololá	701	Sololá	4	Finca Santa Victoria	4	Abril	2023-04-19T00:00:00	2024-11-08T04:00:00	2	Temperatura media	10.9
102038	7	Sololá	701	Sololá	4	Finca Santa Victoria	4	Abril	2023-04-19T00:00:00	2024-11-08T04:00:00	4	Temperatura máxima	11.7
102039	7	Sololá	701	Sololá	4	Finca Santa Victoria	4	Abril	2023-04-19T00:00:00	2024-11-08T04:00:00	3	Temperatura mínima	10.9
102040	7	Sololá	701	Sololá	4	Finca Santa Victoria	4	Abril	2023-04-19T00:00:00	2024-11-08T04:00:00	5	Humedad	83
102041	7	Sololá	701	Sololá	4	Finca Santa Victoria	4	Abril	2023-04-19T00:00:00	2024-11-08T04:00:00	6	Velocidad del viento	1.6
102042	7	Sololá	701	Sololá	4	Finca Santa Victoria	4	Abril	2023-04-19T00:00:00	2024-11-08T04:00:00	7	Dirección del viento	1.61
102043	7	Sololá	701	Sololá	4	Finca Santa Victoria	4	Abril	2023-04-19T00:00:00	2024-11-08T04:00:00	1	Precipitación	0
102044	7	Sololá	701	Sololá	4	Finca Santa Victoria	4	Abril	2023-04-19T00:00:00	2024-11-08T04:00:00	8	Radiación solar	0
102045	7	Sololá	701	Sololá	4	Finca Santa Victoria	4	Abril	2023-04-19T00:00:00	2024-11-08T05:00:00	2	Temperatura media	10.4
102046	7	Sololá	701	Sololá	4	Finca Santa Victoria	4	Abril	2023-04-19T00:00:00	2024-11-08T05:00:00	4	Temperatura máxima	10.9
102047	7	Sololá	701	Sololá	4	Finca Santa Victoria	4	Abril	2023-04-19T00:00:00	2024-11-08T05:00:00	3	Temperatura mínima	10.2
102048	7	Sololá	701	Sololá	4	Finca Santa Victoria	4	Abril	2023-04-19T00:00:00	2024-11-08T05:00:00	5	Humedad	85
102049	7	Sololá	701	Sololá	4	Finca Santa Victoria	4	Abril	2023-04-19T00:00:00	2024-11-08T05:00:00	6	Velocidad del viento	1.6
102050	7	Sololá	701	Sololá	4	Finca Santa Victoria	4	Abril	2023-04-19T00:00:00	2024-11-08T05:00:00	7	Dirección del viento	1.61
102051	7	Sololá	701	Sololá	4	Finca Santa Victoria	4	Abril	2023-04-19T00:00:00	2024-11-08T05:00:00	1	Precipitación	0
102052	7	Sololá	701	Sololá	4	Finca Santa Victoria	4	Abril	2023-04-19T00:00:00	2024-11-08T05:00:00	8	Radiación solar	0
102053	7	Sololá	701	Sololá	4	Finca Santa Victoria	4	Abril	2023-04-19T00:00:00	2024-11-08T06:00:00	2	Temperatura media	11.8
102054	7	Sololá	701	Sololá	4	Finca Santa Victoria	4	Abril	2023-04-19T00:00:00	2024-11-08T06:00:00	4	Temperatura máxima	11.8
102055	7	Sololá	701	Sololá	4	Finca Santa Victoria	4	Abril	2023-04-19T00:00:00	2024-11-08T06:00:00	3	Temperatura mínima	10.3
102056	7	Sololá	701	Sololá	4	Finca Santa Victoria	4	Abril	2023-04-19T00:00:00	2024-11-08T06:00:00	5	Humedad	70
102057	7	Sololá	701	Sololá	4	Finca Santa Victoria	4	Abril	2023-04-19T00:00:00	2024-11-08T06:00:00	6	Velocidad del viento	1.6
102058	7	Sololá	701	Sololá	4	Finca Santa Victoria	4	Abril	2023-04-19T00:00:00	2024-11-08T06:00:00	7	Dirección del viento	1.61
102059	7	Sololá	701	Sololá	4	Finca Santa Victoria	4	Abril	2023-04-19T00:00:00	2024-11-08T06:00:00	1	Precipitación	0
102060	7	Sololá	701	Sololá	4	Finca Santa Victoria	4	Abril	2023-04-19T00:00:00	2024-11-08T06:00:00	8	Radiación solar	1
102061	7	Sololá	701	Sololá	4	Finca Santa Victoria	4	Abril	2023-04-19T00:00:00	2024-11-08T07:00:00	2	Temperatura media	12.6
102062	7	Sololá	701	Sololá	4	Finca Santa Victoria	4	Abril	2023-04-19T00:00:00	2024-11-08T07:00:00	4	Temperatura máxima	12.6
102063	7	Sololá	701	Sololá	4	Finca Santa Victoria	4	Abril	2023-04-19T00:00:00	2024-11-08T07:00:00	3	Temperatura mínima	11.8
102064	7	Sololá	701	Sololá	4	Finca Santa Victoria	4	Abril	2023-04-19T00:00:00	2024-11-08T07:00:00	5	Humedad	72
102065	7	Sololá	701	Sololá	4	Finca Santa Victoria	4	Abril	2023-04-19T00:00:00	2024-11-08T07:00:00	6	Velocidad del viento	1.6
102066	7	Sololá	701	Sololá	4	Finca Santa Victoria	4	Abril	2023-04-19T00:00:00	2024-11-08T07:00:00	7	Dirección del viento	1.61
102067	7	Sololá	701	Sololá	4	Finca Santa Victoria	4	Abril	2023-04-19T00:00:00	2024-11-08T07:00:00	1	Precipitación	0
102068	7	Sololá	701	Sololá	4	Finca Santa Victoria	4	Abril	2023-04-19T00:00:00	2024-11-08T07:00:00	8	Radiación solar	17
102069	7	Sololá	701	Sololá	4	Finca Santa Victoria	4	Abril	2023-04-19T00:00:00	2024-11-08T08:00:00	2	Temperatura media	18.6
102070	7	Sololá	701	Sololá	4	Finca Santa Victoria	4	Abril	2023-04-19T00:00:00	2024-11-08T08:00:00	4	Temperatura máxima	18.6
102071	7	Sololá	701	Sololá	4	Finca Santa Victoria	4	Abril	2023-04-19T00:00:00	2024-11-08T08:00:00	3	Temperatura mínima	12.6
102072	7	Sololá	701	Sololá	4	Finca Santa Victoria	4	Abril	2023-04-19T00:00:00	2024-11-08T08:00:00	5	Humedad	48
102073	7	Sololá	701	Sololá	4	Finca Santa Victoria	4	Abril	2023-04-19T00:00:00	2024-11-08T08:00:00	6	Velocidad del viento	0
102074	7	Sololá	701	Sololá	4	Finca Santa Victoria	4	Abril	2023-04-19T00:00:00	2024-11-08T08:00:00	7	Dirección del viento	0
102075	7	Sololá	701	Sololá	4	Finca Santa Victoria	4	Abril	2023-04-19T00:00:00	2024-11-08T08:00:00	1	Precipitación	0
102076	7	Sololá	701	Sololá	4	Finca Santa Victoria	4	Abril	2023-04-19T00:00:00	2024-11-08T08:00:00	8	Radiación solar	275
102077	7	Sololá	701	Sololá	4	Finca Santa Victoria	4	Abril	2023-04-19T00:00:00	2024-11-08T09:00:00	2	Temperatura media	18.9
102078	7	Sololá	701	Sololá	4	Finca Santa Victoria	4	Abril	2023-04-19T00:00:00	2024-11-08T09:00:00	4	Temperatura máxima	19
102079	7	Sololá	701	Sololá	4	Finca Santa Victoria	4	Abril	2023-04-19T00:00:00	2024-11-08T09:00:00	3	Temperatura mínima	18.6
102080	7	Sololá	701	Sololá	4	Finca Santa Victoria	4	Abril	2023-04-19T00:00:00	2024-11-08T09:00:00	5	Humedad	54
102081	7	Sololá	701	Sololá	4	Finca Santa Victoria	4	Abril	2023-04-19T00:00:00	2024-11-08T09:00:00	6	Velocidad del viento	1.6
102082	7	Sololá	701	Sololá	4	Finca Santa Victoria	4	Abril	2023-04-19T00:00:00	2024-11-08T09:00:00	7	Dirección del viento	1.61
102083	7	Sololá	701	Sololá	4	Finca Santa Victoria	4	Abril	2023-04-19T00:00:00	2024-11-08T09:00:00	1	Precipitación	0
102084	7	Sololá	701	Sololá	4	Finca Santa Victoria	4	Abril	2023-04-19T00:00:00	2024-11-08T09:00:00	8	Radiación solar	479
102085	7	Sololá	701	Sololá	4	Finca Santa Victoria	4	Abril	2023-04-19T00:00:00	2024-11-08T10:00:00	2	Temperatura media	19.4
102086	7	Sololá	701	Sololá	4	Finca Santa Victoria	4	Abril	2023-04-19T00:00:00	2024-11-08T10:00:00	4	Temperatura máxima	19.4
102087	7	Sololá	701	Sololá	4	Finca Santa Victoria	4	Abril	2023-04-19T00:00:00	2024-11-08T10:00:00	3	Temperatura mínima	18.6
102088	7	Sololá	701	Sololá	4	Finca Santa Victoria	4	Abril	2023-04-19T00:00:00	2024-11-08T10:00:00	5	Humedad	53
102089	7	Sololá	701	Sololá	4	Finca Santa Victoria	4	Abril	2023-04-19T00:00:00	2024-11-08T10:00:00	6	Velocidad del viento	3.2
102090	7	Sololá	701	Sololá	4	Finca Santa Victoria	4	Abril	2023-04-19T00:00:00	2024-11-08T10:00:00	7	Dirección del viento	3.22
102091	7	Sololá	701	Sololá	4	Finca Santa Victoria	4	Abril	2023-04-19T00:00:00	2024-11-08T10:00:00	1	Precipitación	0
102092	7	Sololá	701	Sololá	4	Finca Santa Victoria	4	Abril	2023-04-19T00:00:00	2024-11-08T10:00:00	8	Radiación solar	324
102093	7	Sololá	701	Sololá	4	Finca Santa Victoria	4	Abril	2023-04-19T00:00:00	2024-11-08T11:00:00	2	Temperatura media	21.2
102094	7	Sololá	701	Sololá	4	Finca Santa Victoria	4	Abril	2023-04-19T00:00:00	2024-11-08T11:00:00	4	Temperatura máxima	21.2
102095	7	Sololá	701	Sololá	4	Finca Santa Victoria	4	Abril	2023-04-19T00:00:00	2024-11-08T11:00:00	3	Temperatura mínima	19.3
102096	7	Sololá	701	Sololá	4	Finca Santa Victoria	4	Abril	2023-04-19T00:00:00	2024-11-08T11:00:00	5	Humedad	56
102097	7	Sololá	701	Sololá	4	Finca Santa Victoria	4	Abril	2023-04-19T00:00:00	2024-11-08T11:00:00	6	Velocidad del viento	4.8
102098	7	Sololá	701	Sololá	4	Finca Santa Victoria	4	Abril	2023-04-19T00:00:00	2024-11-08T11:00:00	7	Dirección del viento	4.83
102099	7	Sololá	701	Sololá	4	Finca Santa Victoria	4	Abril	2023-04-19T00:00:00	2024-11-08T11:00:00	1	Precipitación	0
102100	7	Sololá	701	Sololá	4	Finca Santa Victoria	4	Abril	2023-04-19T00:00:00	2024-11-08T11:00:00	8	Radiación solar	952
102101	7	Sololá	701	Sololá	4	Finca Santa Victoria	4	Abril	2023-04-19T00:00:00	2024-11-08T12:00:00	2	Temperatura media	20.3
102102	7	Sololá	701	Sololá	4	Finca Santa Victoria	4	Abril	2023-04-19T00:00:00	2024-11-08T12:00:00	4	Temperatura máxima	21.2
102103	7	Sololá	701	Sololá	4	Finca Santa Victoria	4	Abril	2023-04-19T00:00:00	2024-11-08T12:00:00	3	Temperatura mínima	19.9
102104	7	Sololá	701	Sololá	4	Finca Santa Victoria	4	Abril	2023-04-19T00:00:00	2024-11-08T12:00:00	5	Humedad	68
102105	7	Sololá	701	Sololá	4	Finca Santa Victoria	4	Abril	2023-04-19T00:00:00	2024-11-08T12:00:00	6	Velocidad del viento	4.8
102106	7	Sololá	701	Sololá	4	Finca Santa Victoria	4	Abril	2023-04-19T00:00:00	2024-11-08T12:00:00	7	Dirección del viento	4.83
102107	7	Sololá	701	Sololá	4	Finca Santa Victoria	4	Abril	2023-04-19T00:00:00	2024-11-08T12:00:00	1	Precipitación	0
102108	7	Sololá	701	Sololá	4	Finca Santa Victoria	4	Abril	2023-04-19T00:00:00	2024-11-08T12:00:00	8	Radiación solar	1014
102109	7	Sololá	701	Sololá	4	Finca Santa Victoria	4	Abril	2023-04-19T00:00:00	2024-11-08T13:00:00	2	Temperatura media	20.1
102110	7	Sololá	701	Sololá	4	Finca Santa Victoria	4	Abril	2023-04-19T00:00:00	2024-11-08T13:00:00	4	Temperatura máxima	20.6
102111	7	Sololá	701	Sololá	4	Finca Santa Victoria	4	Abril	2023-04-19T00:00:00	2024-11-08T13:00:00	3	Temperatura mínima	19.8
102112	7	Sololá	701	Sololá	4	Finca Santa Victoria	4	Abril	2023-04-19T00:00:00	2024-11-08T13:00:00	5	Humedad	75
102113	7	Sololá	701	Sololá	4	Finca Santa Victoria	4	Abril	2023-04-19T00:00:00	2024-11-08T13:00:00	6	Velocidad del viento	4.8
102114	7	Sololá	701	Sololá	4	Finca Santa Victoria	4	Abril	2023-04-19T00:00:00	2024-11-08T13:00:00	7	Dirección del viento	4.83
102115	7	Sololá	701	Sololá	4	Finca Santa Victoria	4	Abril	2023-04-19T00:00:00	2024-11-08T13:00:00	1	Precipitación	0
102116	7	Sololá	701	Sololá	4	Finca Santa Victoria	4	Abril	2023-04-19T00:00:00	2024-11-08T13:00:00	8	Radiación solar	906
102117	7	Sololá	701	Sololá	4	Finca Santa Victoria	4	Abril	2023-04-19T00:00:00	2024-11-08T14:00:00	2	Temperatura media	18.4
102118	7	Sololá	701	Sololá	4	Finca Santa Victoria	4	Abril	2023-04-19T00:00:00	2024-11-08T14:00:00	4	Temperatura máxima	20.5
102119	7	Sololá	701	Sololá	4	Finca Santa Victoria	4	Abril	2023-04-19T00:00:00	2024-11-08T14:00:00	3	Temperatura mínima	18.3
102120	7	Sololá	701	Sololá	4	Finca Santa Victoria	4	Abril	2023-04-19T00:00:00	2024-11-08T14:00:00	5	Humedad	81
102121	7	Sololá	701	Sololá	4	Finca Santa Victoria	4	Abril	2023-04-19T00:00:00	2024-11-08T14:00:00	6	Velocidad del viento	4.8
102122	7	Sololá	701	Sololá	4	Finca Santa Victoria	4	Abril	2023-04-19T00:00:00	2024-11-08T14:00:00	7	Dirección del viento	4.83
102123	7	Sololá	701	Sololá	4	Finca Santa Victoria	4	Abril	2023-04-19T00:00:00	2024-11-08T14:00:00	1	Precipitación	0
102124	7	Sololá	701	Sololá	4	Finca Santa Victoria	4	Abril	2023-04-19T00:00:00	2024-11-08T14:00:00	8	Radiación solar	272
102125	7	Sololá	701	Sololá	4	Finca Santa Victoria	4	Abril	2023-04-19T00:00:00	2024-11-08T15:00:00	2	Temperatura media	17.3
102126	7	Sololá	701	Sololá	4	Finca Santa Victoria	4	Abril	2023-04-19T00:00:00	2024-11-08T15:00:00	4	Temperatura máxima	18.4
102127	7	Sololá	701	Sololá	4	Finca Santa Victoria	4	Abril	2023-04-19T00:00:00	2024-11-08T15:00:00	3	Temperatura mínima	17.1
102128	7	Sololá	701	Sololá	4	Finca Santa Victoria	4	Abril	2023-04-19T00:00:00	2024-11-08T15:00:00	5	Humedad	85
102129	7	Sololá	701	Sololá	4	Finca Santa Victoria	4	Abril	2023-04-19T00:00:00	2024-11-08T15:00:00	6	Velocidad del viento	4.8
102130	7	Sololá	701	Sololá	4	Finca Santa Victoria	4	Abril	2023-04-19T00:00:00	2024-11-08T15:00:00	7	Dirección del viento	4.83
102131	7	Sololá	701	Sololá	4	Finca Santa Victoria	4	Abril	2023-04-19T00:00:00	2024-11-08T15:00:00	1	Precipitación	0
102132	7	Sololá	701	Sololá	4	Finca Santa Victoria	4	Abril	2023-04-19T00:00:00	2024-11-08T15:00:00	8	Radiación solar	148
102133	7	Sololá	701	Sololá	4	Finca Santa Victoria	4	Abril	2023-04-19T00:00:00	2024-11-08T16:00:00	2	Temperatura media	17.7
102134	7	Sololá	701	Sololá	4	Finca Santa Victoria	4	Abril	2023-04-19T00:00:00	2024-11-08T16:00:00	4	Temperatura máxima	17.7
102135	7	Sololá	701	Sololá	4	Finca Santa Victoria	4	Abril	2023-04-19T00:00:00	2024-11-08T16:00:00	3	Temperatura mínima	17.1
102136	7	Sololá	701	Sololá	4	Finca Santa Victoria	4	Abril	2023-04-19T00:00:00	2024-11-08T16:00:00	5	Humedad	85
102137	7	Sololá	701	Sololá	4	Finca Santa Victoria	4	Abril	2023-04-19T00:00:00	2024-11-08T16:00:00	6	Velocidad del viento	4.8
102138	7	Sololá	701	Sololá	4	Finca Santa Victoria	4	Abril	2023-04-19T00:00:00	2024-11-08T16:00:00	7	Dirección del viento	4.83
102139	7	Sololá	701	Sololá	4	Finca Santa Victoria	4	Abril	2023-04-19T00:00:00	2024-11-08T16:00:00	1	Precipitación	0
102140	7	Sololá	701	Sololá	4	Finca Santa Victoria	4	Abril	2023-04-19T00:00:00	2024-11-08T16:00:00	8	Radiación solar	173
102141	7	Sololá	701	Sololá	4	Finca Santa Victoria	4	Abril	2023-04-19T00:00:00	2024-11-08T17:00:00	2	Temperatura media	16.1
102142	7	Sololá	701	Sololá	4	Finca Santa Victoria	4	Abril	2023-04-19T00:00:00	2024-11-08T17:00:00	4	Temperatura máxima	17.8
102143	7	Sololá	701	Sololá	4	Finca Santa Victoria	4	Abril	2023-04-19T00:00:00	2024-11-08T17:00:00	3	Temperatura mínima	16.1
102144	7	Sololá	701	Sololá	4	Finca Santa Victoria	4	Abril	2023-04-19T00:00:00	2024-11-08T17:00:00	5	Humedad	89
102145	7	Sololá	701	Sololá	4	Finca Santa Victoria	4	Abril	2023-04-19T00:00:00	2024-11-08T17:00:00	6	Velocidad del viento	3.2
102146	7	Sololá	701	Sololá	4	Finca Santa Victoria	4	Abril	2023-04-19T00:00:00	2024-11-08T17:00:00	7	Dirección del viento	3.22
102147	7	Sololá	701	Sololá	4	Finca Santa Victoria	4	Abril	2023-04-19T00:00:00	2024-11-08T17:00:00	1	Precipitación	0
102148	7	Sololá	701	Sololá	4	Finca Santa Victoria	4	Abril	2023-04-19T00:00:00	2024-11-08T17:00:00	8	Radiación solar	58
102149	7	Sololá	701	Sololá	4	Finca Santa Victoria	4	Abril	2023-04-19T00:00:00	2024-11-08T18:00:00	2	Temperatura media	15.7
102150	7	Sololá	701	Sololá	4	Finca Santa Victoria	4	Abril	2023-04-19T00:00:00	2024-11-08T18:00:00	4	Temperatura máxima	16.2
102151	7	Sololá	701	Sololá	4	Finca Santa Victoria	4	Abril	2023-04-19T00:00:00	2024-11-08T18:00:00	3	Temperatura mínima	15.7
102152	7	Sololá	701	Sololá	4	Finca Santa Victoria	4	Abril	2023-04-19T00:00:00	2024-11-08T18:00:00	5	Humedad	92
102153	7	Sololá	701	Sololá	4	Finca Santa Victoria	4	Abril	2023-04-19T00:00:00	2024-11-08T18:00:00	6	Velocidad del viento	1.6
102154	7	Sololá	701	Sololá	4	Finca Santa Victoria	4	Abril	2023-04-19T00:00:00	2024-11-08T18:00:00	7	Dirección del viento	1.61
102155	7	Sololá	701	Sololá	4	Finca Santa Victoria	4	Abril	2023-04-19T00:00:00	2024-11-08T18:00:00	1	Precipitación	0
102156	7	Sololá	701	Sololá	4	Finca Santa Victoria	4	Abril	2023-04-19T00:00:00	2024-11-08T18:00:00	8	Radiación solar	33
102157	7	Sololá	701	Sololá	4	Finca Santa Victoria	4	Abril	2023-04-19T00:00:00	2024-11-08T19:00:00	2	Temperatura media	15.3
102158	7	Sololá	701	Sololá	4	Finca Santa Victoria	4	Abril	2023-04-19T00:00:00	2024-11-08T19:00:00	4	Temperatura máxima	15.8
102159	7	Sololá	701	Sololá	4	Finca Santa Victoria	4	Abril	2023-04-19T00:00:00	2024-11-08T19:00:00	3	Temperatura mínima	15.3
102160	7	Sololá	701	Sololá	4	Finca Santa Victoria	4	Abril	2023-04-19T00:00:00	2024-11-08T19:00:00	5	Humedad	94
102161	7	Sololá	701	Sololá	4	Finca Santa Victoria	4	Abril	2023-04-19T00:00:00	2024-11-08T19:00:00	6	Velocidad del viento	0
102162	7	Sololá	701	Sololá	4	Finca Santa Victoria	4	Abril	2023-04-19T00:00:00	2024-11-08T19:00:00	7	Dirección del viento	0
102163	7	Sololá	701	Sololá	4	Finca Santa Victoria	4	Abril	2023-04-19T00:00:00	2024-11-08T19:00:00	1	Precipitación	0
102164	7	Sololá	701	Sololá	4	Finca Santa Victoria	4	Abril	2023-04-19T00:00:00	2024-11-08T19:00:00	8	Radiación solar	0
102165	7	Sololá	701	Sololá	4	Finca Santa Victoria	4	Abril	2023-04-19T00:00:00	2024-11-08T20:00:00	2	Temperatura media	14.6
102166	7	Sololá	701	Sololá	4	Finca Santa Victoria	4	Abril	2023-04-19T00:00:00	2024-11-08T20:00:00	4	Temperatura máxima	15.3
102167	7	Sololá	701	Sololá	4	Finca Santa Victoria	4	Abril	2023-04-19T00:00:00	2024-11-08T20:00:00	3	Temperatura mínima	14.6
102168	7	Sololá	701	Sololá	4	Finca Santa Victoria	4	Abril	2023-04-19T00:00:00	2024-11-08T20:00:00	5	Humedad	94
102169	7	Sololá	701	Sololá	4	Finca Santa Victoria	4	Abril	2023-04-19T00:00:00	2024-11-08T20:00:00	6	Velocidad del viento	0
102170	7	Sololá	701	Sololá	4	Finca Santa Victoria	4	Abril	2023-04-19T00:00:00	2024-11-08T20:00:00	7	Dirección del viento	0
102171	7	Sololá	701	Sololá	4	Finca Santa Victoria	4	Abril	2023-04-19T00:00:00	2024-11-08T20:00:00	1	Precipitación	0
102172	7	Sololá	701	Sololá	4	Finca Santa Victoria	4	Abril	2023-04-19T00:00:00	2024-11-08T20:00:00	8	Radiación solar	0
102173	7	Sololá	701	Sololá	4	Finca Santa Victoria	4	Abril	2023-04-19T00:00:00	2024-11-08T21:00:00	2	Temperatura media	14.1
102174	7	Sololá	701	Sololá	4	Finca Santa Victoria	4	Abril	2023-04-19T00:00:00	2024-11-08T21:00:00	4	Temperatura máxima	14.6
102175	7	Sololá	701	Sololá	4	Finca Santa Victoria	4	Abril	2023-04-19T00:00:00	2024-11-08T21:00:00	3	Temperatura mínima	14
102176	7	Sololá	701	Sololá	4	Finca Santa Victoria	4	Abril	2023-04-19T00:00:00	2024-11-08T21:00:00	5	Humedad	93
102177	7	Sololá	701	Sololá	4	Finca Santa Victoria	4	Abril	2023-04-19T00:00:00	2024-11-08T21:00:00	6	Velocidad del viento	0
102178	7	Sololá	701	Sololá	4	Finca Santa Victoria	4	Abril	2023-04-19T00:00:00	2024-11-08T21:00:00	7	Dirección del viento	0
102179	7	Sololá	701	Sololá	4	Finca Santa Victoria	4	Abril	2023-04-19T00:00:00	2024-11-08T21:00:00	1	Precipitación	0
102180	7	Sololá	701	Sololá	4	Finca Santa Victoria	4	Abril	2023-04-19T00:00:00	2024-11-08T21:00:00	8	Radiación solar	0
102181	7	Sololá	701	Sololá	4	Finca Santa Victoria	4	Abril	2023-04-19T00:00:00	2024-11-08T22:00:00	2	Temperatura media	14.3
102182	7	Sololá	701	Sololá	4	Finca Santa Victoria	4	Abril	2023-04-19T00:00:00	2024-11-08T22:00:00	4	Temperatura máxima	14.4
102183	7	Sololá	701	Sololá	4	Finca Santa Victoria	4	Abril	2023-04-19T00:00:00	2024-11-08T22:00:00	3	Temperatura mínima	14
102184	7	Sololá	701	Sololá	4	Finca Santa Victoria	4	Abril	2023-04-19T00:00:00	2024-11-08T22:00:00	5	Humedad	86
102185	7	Sololá	701	Sololá	4	Finca Santa Victoria	4	Abril	2023-04-19T00:00:00	2024-11-08T22:00:00	6	Velocidad del viento	1.6
102186	7	Sololá	701	Sololá	4	Finca Santa Victoria	4	Abril	2023-04-19T00:00:00	2024-11-08T22:00:00	7	Dirección del viento	1.61
102187	7	Sololá	701	Sololá	4	Finca Santa Victoria	4	Abril	2023-04-19T00:00:00	2024-11-08T22:00:00	1	Precipitación	0
102188	7	Sololá	701	Sololá	4	Finca Santa Victoria	4	Abril	2023-04-19T00:00:00	2024-11-08T22:00:00	8	Radiación solar	0
102189	7	Sololá	701	Sololá	4	Finca Santa Victoria	4	Abril	2023-04-19T00:00:00	2024-11-08T23:00:00	2	Temperatura media	13.6
102190	7	Sololá	701	Sololá	4	Finca Santa Victoria	4	Abril	2023-04-19T00:00:00	2024-11-08T23:00:00	4	Temperatura máxima	14.3
102191	7	Sololá	701	Sololá	4	Finca Santa Victoria	4	Abril	2023-04-19T00:00:00	2024-11-08T23:00:00	3	Temperatura mínima	13.6
102192	7	Sololá	701	Sololá	4	Finca Santa Victoria	4	Abril	2023-04-19T00:00:00	2024-11-08T23:00:00	5	Humedad	89
102193	7	Sololá	701	Sololá	4	Finca Santa Victoria	4	Abril	2023-04-19T00:00:00	2024-11-08T23:00:00	6	Velocidad del viento	0
102194	7	Sololá	701	Sololá	4	Finca Santa Victoria	4	Abril	2023-04-19T00:00:00	2024-11-08T23:00:00	7	Dirección del viento	0
102195	7	Sololá	701	Sololá	4	Finca Santa Victoria	4	Abril	2023-04-19T00:00:00	2024-11-08T23:00:00	1	Precipitación	0
102196	7	Sololá	701	Sololá	4	Finca Santa Victoria	4	Abril	2023-04-19T00:00:00	2024-11-08T23:00:00	8	Radiación solar	0
102197	7	Sololá	701	Sololá	4	Finca Santa Victoria	4	Abril	2023-04-20T00:00:00	2024-11-08T00:00:00	2	Temperatura media	13.2
102198	7	Sololá	701	Sololá	4	Finca Santa Victoria	4	Abril	2023-04-20T00:00:00	2024-11-08T00:00:00	4	Temperatura máxima	13.6
102199	7	Sololá	701	Sololá	4	Finca Santa Victoria	4	Abril	2023-04-20T00:00:00	2024-11-08T00:00:00	3	Temperatura mínima	13.1
102200	7	Sololá	701	Sololá	4	Finca Santa Victoria	4	Abril	2023-04-20T00:00:00	2024-11-08T00:00:00	5	Humedad	89
102201	7	Sololá	701	Sololá	4	Finca Santa Victoria	4	Abril	2023-04-20T00:00:00	2024-11-08T00:00:00	6	Velocidad del viento	0
102202	7	Sololá	701	Sololá	4	Finca Santa Victoria	4	Abril	2023-04-20T00:00:00	2024-11-08T00:00:00	7	Dirección del viento	0
102203	7	Sololá	701	Sololá	4	Finca Santa Victoria	4	Abril	2023-04-20T00:00:00	2024-11-08T00:00:00	1	Precipitación	0
102204	7	Sololá	701	Sololá	4	Finca Santa Victoria	4	Abril	2023-04-20T00:00:00	2024-11-08T00:00:00	8	Radiación solar	0
102205	7	Sololá	701	Sololá	4	Finca Santa Victoria	4	Abril	2023-04-20T00:00:00	2024-11-08T01:00:00	2	Temperatura media	13.2
102206	7	Sololá	701	Sololá	4	Finca Santa Victoria	4	Abril	2023-04-20T00:00:00	2024-11-08T01:00:00	4	Temperatura máxima	13.3
102207	7	Sololá	701	Sololá	4	Finca Santa Victoria	4	Abril	2023-04-20T00:00:00	2024-11-08T01:00:00	3	Temperatura mínima	13.1
102208	7	Sololá	701	Sololá	4	Finca Santa Victoria	4	Abril	2023-04-20T00:00:00	2024-11-08T01:00:00	5	Humedad	87
102209	7	Sololá	701	Sololá	4	Finca Santa Victoria	4	Abril	2023-04-20T00:00:00	2024-11-08T01:00:00	6	Velocidad del viento	1.6
102210	7	Sololá	701	Sololá	4	Finca Santa Victoria	4	Abril	2023-04-20T00:00:00	2024-11-08T01:00:00	7	Dirección del viento	1.61
102211	7	Sololá	701	Sololá	4	Finca Santa Victoria	4	Abril	2023-04-20T00:00:00	2024-11-08T01:00:00	1	Precipitación	0
102212	7	Sololá	701	Sololá	4	Finca Santa Victoria	4	Abril	2023-04-20T00:00:00	2024-11-08T01:00:00	8	Radiación solar	0
102213	7	Sololá	701	Sololá	4	Finca Santa Victoria	4	Abril	2023-04-20T00:00:00	2024-11-08T02:00:00	2	Temperatura media	12.2
102214	7	Sololá	701	Sololá	4	Finca Santa Victoria	4	Abril	2023-04-20T00:00:00	2024-11-08T02:00:00	4	Temperatura máxima	13.3
102215	7	Sololá	701	Sololá	4	Finca Santa Victoria	4	Abril	2023-04-20T00:00:00	2024-11-08T02:00:00	3	Temperatura mínima	12.2
102216	7	Sololá	701	Sololá	4	Finca Santa Victoria	4	Abril	2023-04-20T00:00:00	2024-11-08T02:00:00	5	Humedad	87
102217	7	Sololá	701	Sololá	4	Finca Santa Victoria	4	Abril	2023-04-20T00:00:00	2024-11-08T02:00:00	6	Velocidad del viento	1.6
102218	7	Sololá	701	Sololá	4	Finca Santa Victoria	4	Abril	2023-04-20T00:00:00	2024-11-08T02:00:00	7	Dirección del viento	1.61
102219	7	Sololá	701	Sololá	4	Finca Santa Victoria	4	Abril	2023-04-20T00:00:00	2024-11-08T02:00:00	1	Precipitación	0
102220	7	Sololá	701	Sololá	4	Finca Santa Victoria	4	Abril	2023-04-20T00:00:00	2024-11-08T02:00:00	8	Radiación solar	0
102221	7	Sololá	701	Sololá	4	Finca Santa Victoria	4	Abril	2023-04-20T00:00:00	2024-11-08T03:00:00	2	Temperatura media	11.4
102222	7	Sololá	701	Sololá	4	Finca Santa Victoria	4	Abril	2023-04-20T00:00:00	2024-11-08T03:00:00	4	Temperatura máxima	12.2
102223	7	Sololá	701	Sololá	4	Finca Santa Victoria	4	Abril	2023-04-20T00:00:00	2024-11-08T03:00:00	3	Temperatura mínima	11.3
102224	7	Sololá	701	Sololá	4	Finca Santa Victoria	4	Abril	2023-04-20T00:00:00	2024-11-08T03:00:00	5	Humedad	92
102225	7	Sololá	701	Sololá	4	Finca Santa Victoria	4	Abril	2023-04-20T00:00:00	2024-11-08T03:00:00	6	Velocidad del viento	1.6
102226	7	Sololá	701	Sololá	4	Finca Santa Victoria	4	Abril	2023-04-20T00:00:00	2024-11-08T03:00:00	7	Dirección del viento	1.61
102227	7	Sololá	701	Sololá	4	Finca Santa Victoria	4	Abril	2023-04-20T00:00:00	2024-11-08T03:00:00	1	Precipitación	0
102228	7	Sololá	701	Sololá	4	Finca Santa Victoria	4	Abril	2023-04-20T00:00:00	2024-11-08T03:00:00	8	Radiación solar	0
102229	7	Sololá	701	Sololá	4	Finca Santa Victoria	4	Abril	2023-04-20T00:00:00	2024-11-08T04:00:00	2	Temperatura media	10.7
102230	7	Sololá	701	Sololá	4	Finca Santa Victoria	4	Abril	2023-04-20T00:00:00	2024-11-08T04:00:00	4	Temperatura máxima	11.7
102231	7	Sololá	701	Sololá	4	Finca Santa Victoria	4	Abril	2023-04-20T00:00:00	2024-11-08T04:00:00	3	Temperatura mínima	10.7
102232	7	Sololá	701	Sololá	4	Finca Santa Victoria	4	Abril	2023-04-20T00:00:00	2024-11-08T04:00:00	5	Humedad	95
102233	7	Sololá	701	Sololá	4	Finca Santa Victoria	4	Abril	2023-04-20T00:00:00	2024-11-08T04:00:00	6	Velocidad del viento	1.6
102234	7	Sololá	701	Sololá	4	Finca Santa Victoria	4	Abril	2023-04-20T00:00:00	2024-11-08T04:00:00	7	Dirección del viento	1.61
102235	7	Sololá	701	Sololá	4	Finca Santa Victoria	4	Abril	2023-04-20T00:00:00	2024-11-08T04:00:00	1	Precipitación	0
102236	7	Sololá	701	Sololá	4	Finca Santa Victoria	4	Abril	2023-04-20T00:00:00	2024-11-08T04:00:00	8	Radiación solar	0
102237	7	Sololá	701	Sololá	4	Finca Santa Victoria	4	Abril	2023-04-20T00:00:00	2024-11-08T05:00:00	2	Temperatura media	10.7
102238	7	Sololá	701	Sololá	4	Finca Santa Victoria	4	Abril	2023-04-20T00:00:00	2024-11-08T05:00:00	4	Temperatura máxima	10.9
102239	7	Sololá	701	Sololá	4	Finca Santa Victoria	4	Abril	2023-04-20T00:00:00	2024-11-08T05:00:00	3	Temperatura mínima	10.3
102240	7	Sololá	701	Sololá	4	Finca Santa Victoria	4	Abril	2023-04-20T00:00:00	2024-11-08T05:00:00	5	Humedad	94
102241	7	Sololá	701	Sololá	4	Finca Santa Victoria	4	Abril	2023-04-20T00:00:00	2024-11-08T05:00:00	6	Velocidad del viento	1.6
102242	7	Sololá	701	Sololá	4	Finca Santa Victoria	4	Abril	2023-04-20T00:00:00	2024-11-08T05:00:00	7	Dirección del viento	1.61
102243	7	Sololá	701	Sololá	4	Finca Santa Victoria	4	Abril	2023-04-20T00:00:00	2024-11-08T05:00:00	1	Precipitación	0
102244	7	Sololá	701	Sololá	4	Finca Santa Victoria	4	Abril	2023-04-20T00:00:00	2024-11-08T05:00:00	8	Radiación solar	0
102245	7	Sololá	701	Sololá	4	Finca Santa Victoria	4	Abril	2023-04-20T00:00:00	2024-11-08T06:00:00	2	Temperatura media	10.1
102246	7	Sololá	701	Sololá	4	Finca Santa Victoria	4	Abril	2023-04-20T00:00:00	2024-11-08T06:00:00	4	Temperatura máxima	10.7
102247	7	Sololá	701	Sololá	4	Finca Santa Victoria	4	Abril	2023-04-20T00:00:00	2024-11-08T06:00:00	3	Temperatura mínima	9.8
102248	7	Sololá	701	Sololá	4	Finca Santa Victoria	4	Abril	2023-04-20T00:00:00	2024-11-08T06:00:00	5	Humedad	85
102249	7	Sololá	701	Sololá	4	Finca Santa Victoria	4	Abril	2023-04-20T00:00:00	2024-11-08T06:00:00	6	Velocidad del viento	1.6
102250	7	Sololá	701	Sololá	4	Finca Santa Victoria	4	Abril	2023-04-20T00:00:00	2024-11-08T06:00:00	7	Dirección del viento	1.61
102251	7	Sololá	701	Sololá	4	Finca Santa Victoria	4	Abril	2023-04-20T00:00:00	2024-11-08T06:00:00	1	Precipitación	0
102252	7	Sololá	701	Sololá	4	Finca Santa Victoria	4	Abril	2023-04-20T00:00:00	2024-11-08T06:00:00	8	Radiación solar	0
102253	7	Sololá	701	Sololá	4	Finca Santa Victoria	4	Abril	2023-04-20T00:00:00	2024-11-08T07:00:00	2	Temperatura media	11.1
102254	7	Sololá	701	Sololá	4	Finca Santa Victoria	4	Abril	2023-04-20T00:00:00	2024-11-08T07:00:00	4	Temperatura máxima	11.1
102255	7	Sololá	701	Sololá	4	Finca Santa Victoria	4	Abril	2023-04-20T00:00:00	2024-11-08T07:00:00	3	Temperatura mínima	10.1
102256	7	Sololá	701	Sololá	4	Finca Santa Victoria	4	Abril	2023-04-20T00:00:00	2024-11-08T07:00:00	5	Humedad	74
102257	7	Sololá	701	Sololá	4	Finca Santa Victoria	4	Abril	2023-04-20T00:00:00	2024-11-08T07:00:00	6	Velocidad del viento	1.6
102258	7	Sololá	701	Sololá	4	Finca Santa Victoria	4	Abril	2023-04-20T00:00:00	2024-11-08T07:00:00	7	Dirección del viento	1.61
102259	7	Sololá	701	Sololá	4	Finca Santa Victoria	4	Abril	2023-04-20T00:00:00	2024-11-08T07:00:00	1	Precipitación	0
102260	7	Sololá	701	Sololá	4	Finca Santa Victoria	4	Abril	2023-04-20T00:00:00	2024-11-08T07:00:00	8	Radiación solar	38
102261	7	Sololá	701	Sololá	4	Finca Santa Victoria	4	Abril	2023-04-20T00:00:00	2024-11-08T08:00:00	2	Temperatura media	14.1
102262	7	Sololá	701	Sololá	4	Finca Santa Victoria	4	Abril	2023-04-20T00:00:00	2024-11-08T08:00:00	4	Temperatura máxima	14.1
102263	7	Sololá	701	Sololá	4	Finca Santa Victoria	4	Abril	2023-04-20T00:00:00	2024-11-08T08:00:00	3	Temperatura mínima	11.1
102264	7	Sololá	701	Sololá	4	Finca Santa Victoria	4	Abril	2023-04-20T00:00:00	2024-11-08T08:00:00	5	Humedad	63
102265	7	Sololá	701	Sololá	4	Finca Santa Victoria	4	Abril	2023-04-20T00:00:00	2024-11-08T08:00:00	6	Velocidad del viento	0
102266	7	Sololá	701	Sololá	4	Finca Santa Victoria	4	Abril	2023-04-20T00:00:00	2024-11-08T08:00:00	7	Dirección del viento	0
102267	7	Sololá	701	Sololá	4	Finca Santa Victoria	4	Abril	2023-04-20T00:00:00	2024-11-08T08:00:00	1	Precipitación	0
102268	7	Sololá	701	Sololá	4	Finca Santa Victoria	4	Abril	2023-04-20T00:00:00	2024-11-08T08:00:00	8	Radiación solar	168
102269	7	Sololá	701	Sololá	4	Finca Santa Victoria	4	Abril	2023-04-20T00:00:00	2024-11-08T09:00:00	2	Temperatura media	15.6
102270	7	Sololá	701	Sololá	4	Finca Santa Victoria	4	Abril	2023-04-20T00:00:00	2024-11-08T09:00:00	4	Temperatura máxima	15.6
102271	7	Sololá	701	Sololá	4	Finca Santa Victoria	4	Abril	2023-04-20T00:00:00	2024-11-08T09:00:00	3	Temperatura mínima	14.1
102272	7	Sololá	701	Sololá	4	Finca Santa Victoria	4	Abril	2023-04-20T00:00:00	2024-11-08T09:00:00	5	Humedad	73
102273	7	Sololá	701	Sololá	4	Finca Santa Victoria	4	Abril	2023-04-20T00:00:00	2024-11-08T09:00:00	6	Velocidad del viento	1.6
102274	7	Sololá	701	Sololá	4	Finca Santa Victoria	4	Abril	2023-04-20T00:00:00	2024-11-08T09:00:00	7	Dirección del viento	1.61
102275	7	Sololá	701	Sololá	4	Finca Santa Victoria	4	Abril	2023-04-20T00:00:00	2024-11-08T09:00:00	1	Precipitación	0
102276	7	Sololá	701	Sololá	4	Finca Santa Victoria	4	Abril	2023-04-20T00:00:00	2024-11-08T09:00:00	8	Radiación solar	318
102277	7	Sololá	701	Sololá	4	Finca Santa Victoria	4	Abril	2023-04-20T00:00:00	2024-11-08T10:00:00	2	Temperatura media	16.7
102278	7	Sololá	701	Sololá	4	Finca Santa Victoria	4	Abril	2023-04-20T00:00:00	2024-11-08T10:00:00	4	Temperatura máxima	16.7
102279	7	Sololá	701	Sololá	4	Finca Santa Victoria	4	Abril	2023-04-20T00:00:00	2024-11-08T10:00:00	3	Temperatura mínima	15.5
102280	7	Sololá	701	Sololá	4	Finca Santa Victoria	4	Abril	2023-04-20T00:00:00	2024-11-08T10:00:00	5	Humedad	73
102281	7	Sololá	701	Sololá	4	Finca Santa Victoria	4	Abril	2023-04-20T00:00:00	2024-11-08T10:00:00	6	Velocidad del viento	3.2
102282	7	Sololá	701	Sololá	4	Finca Santa Victoria	4	Abril	2023-04-20T00:00:00	2024-11-08T10:00:00	7	Dirección del viento	3.22
102283	7	Sololá	701	Sololá	4	Finca Santa Victoria	4	Abril	2023-04-20T00:00:00	2024-11-08T10:00:00	1	Precipitación	0
102284	7	Sololá	701	Sololá	4	Finca Santa Victoria	4	Abril	2023-04-20T00:00:00	2024-11-08T10:00:00	8	Radiación solar	352
102285	7	Sololá	701	Sololá	4	Finca Santa Victoria	4	Abril	2023-04-20T00:00:00	2024-11-08T11:00:00	2	Temperatura media	17.4
102286	7	Sololá	701	Sololá	4	Finca Santa Victoria	4	Abril	2023-04-20T00:00:00	2024-11-08T11:00:00	4	Temperatura máxima	17.8
102287	7	Sololá	701	Sololá	4	Finca Santa Victoria	4	Abril	2023-04-20T00:00:00	2024-11-08T11:00:00	3	Temperatura mínima	16.7
102288	7	Sololá	701	Sololá	4	Finca Santa Victoria	4	Abril	2023-04-20T00:00:00	2024-11-08T11:00:00	5	Humedad	67
102289	7	Sololá	701	Sololá	4	Finca Santa Victoria	4	Abril	2023-04-20T00:00:00	2024-11-08T11:00:00	6	Velocidad del viento	3.2
102290	7	Sololá	701	Sololá	4	Finca Santa Victoria	4	Abril	2023-04-20T00:00:00	2024-11-08T11:00:00	7	Dirección del viento	3.22
102291	7	Sololá	701	Sololá	4	Finca Santa Victoria	4	Abril	2023-04-20T00:00:00	2024-11-08T11:00:00	1	Precipitación	0
102292	7	Sololá	701	Sololá	4	Finca Santa Victoria	4	Abril	2023-04-20T00:00:00	2024-11-08T11:00:00	8	Radiación solar	564
102293	7	Sololá	701	Sololá	4	Finca Santa Victoria	4	Abril	2023-04-20T00:00:00	2024-11-08T12:00:00	2	Temperatura media	17.4
102294	7	Sololá	701	Sololá	4	Finca Santa Victoria	4	Abril	2023-04-20T00:00:00	2024-11-08T12:00:00	4	Temperatura máxima	18.1
102295	7	Sololá	701	Sololá	4	Finca Santa Victoria	4	Abril	2023-04-20T00:00:00	2024-11-08T12:00:00	3	Temperatura mínima	17.3
102296	7	Sololá	701	Sololá	4	Finca Santa Victoria	4	Abril	2023-04-20T00:00:00	2024-11-08T12:00:00	5	Humedad	71
102297	7	Sololá	701	Sololá	4	Finca Santa Victoria	4	Abril	2023-04-20T00:00:00	2024-11-08T12:00:00	6	Velocidad del viento	3.2
102298	7	Sololá	701	Sololá	4	Finca Santa Victoria	4	Abril	2023-04-20T00:00:00	2024-11-08T12:00:00	7	Dirección del viento	3.22
102299	7	Sololá	701	Sololá	4	Finca Santa Victoria	4	Abril	2023-04-20T00:00:00	2024-11-08T12:00:00	1	Precipitación	0
102300	7	Sololá	701	Sololá	4	Finca Santa Victoria	4	Abril	2023-04-20T00:00:00	2024-11-08T12:00:00	8	Radiación solar	518
102301	7	Sololá	701	Sololá	4	Finca Santa Victoria	4	Abril	2023-04-20T00:00:00	2024-11-08T13:00:00	2	Temperatura media	18.4
102302	7	Sololá	701	Sololá	4	Finca Santa Victoria	4	Abril	2023-04-20T00:00:00	2024-11-08T13:00:00	4	Temperatura máxima	18.5
102303	7	Sololá	701	Sololá	4	Finca Santa Victoria	4	Abril	2023-04-20T00:00:00	2024-11-08T13:00:00	3	Temperatura mínima	17.2
102304	7	Sololá	701	Sololá	4	Finca Santa Victoria	4	Abril	2023-04-20T00:00:00	2024-11-08T13:00:00	5	Humedad	72
102305	7	Sololá	701	Sololá	4	Finca Santa Victoria	4	Abril	2023-04-20T00:00:00	2024-11-08T13:00:00	6	Velocidad del viento	3.2
102306	7	Sololá	701	Sololá	4	Finca Santa Victoria	4	Abril	2023-04-20T00:00:00	2024-11-08T13:00:00	7	Dirección del viento	3.22
102307	7	Sololá	701	Sololá	4	Finca Santa Victoria	4	Abril	2023-04-20T00:00:00	2024-11-08T13:00:00	1	Precipitación	0
102308	7	Sololá	701	Sololá	4	Finca Santa Victoria	4	Abril	2023-04-20T00:00:00	2024-11-08T13:00:00	8	Radiación solar	522
102309	7	Sololá	701	Sololá	4	Finca Santa Victoria	4	Abril	2023-04-20T00:00:00	2024-11-08T14:00:00	2	Temperatura media	19.1
102310	7	Sololá	701	Sololá	4	Finca Santa Victoria	4	Abril	2023-04-20T00:00:00	2024-11-08T14:00:00	4	Temperatura máxima	19.3
102311	7	Sololá	701	Sololá	4	Finca Santa Victoria	4	Abril	2023-04-20T00:00:00	2024-11-08T14:00:00	3	Temperatura mínima	18.4
102312	7	Sololá	701	Sololá	4	Finca Santa Victoria	4	Abril	2023-04-20T00:00:00	2024-11-08T14:00:00	5	Humedad	72
102313	7	Sololá	701	Sololá	4	Finca Santa Victoria	4	Abril	2023-04-20T00:00:00	2024-11-08T14:00:00	6	Velocidad del viento	4.8
102314	7	Sololá	701	Sololá	4	Finca Santa Victoria	4	Abril	2023-04-20T00:00:00	2024-11-08T14:00:00	7	Dirección del viento	4.83
102315	7	Sololá	701	Sololá	4	Finca Santa Victoria	4	Abril	2023-04-20T00:00:00	2024-11-08T14:00:00	1	Precipitación	0
102316	7	Sololá	701	Sololá	4	Finca Santa Victoria	4	Abril	2023-04-20T00:00:00	2024-11-08T14:00:00	8	Radiación solar	386
102317	7	Sololá	701	Sololá	4	Finca Santa Victoria	4	Abril	2023-04-20T00:00:00	2024-11-08T15:00:00	2	Temperatura media	18.4
102318	7	Sololá	701	Sololá	4	Finca Santa Victoria	4	Abril	2023-04-20T00:00:00	2024-11-08T15:00:00	4	Temperatura máxima	19.5
102319	7	Sololá	701	Sololá	4	Finca Santa Victoria	4	Abril	2023-04-20T00:00:00	2024-11-08T15:00:00	3	Temperatura mínima	18.3
102320	7	Sololá	701	Sololá	4	Finca Santa Victoria	4	Abril	2023-04-20T00:00:00	2024-11-08T15:00:00	5	Humedad	79
102321	7	Sololá	701	Sololá	4	Finca Santa Victoria	4	Abril	2023-04-20T00:00:00	2024-11-08T15:00:00	6	Velocidad del viento	6.4
102322	7	Sololá	701	Sololá	4	Finca Santa Victoria	4	Abril	2023-04-20T00:00:00	2024-11-08T15:00:00	7	Dirección del viento	6.44
102323	7	Sololá	701	Sololá	4	Finca Santa Victoria	4	Abril	2023-04-20T00:00:00	2024-11-08T15:00:00	1	Precipitación	0
102324	7	Sololá	701	Sololá	4	Finca Santa Victoria	4	Abril	2023-04-20T00:00:00	2024-11-08T15:00:00	8	Radiación solar	329
102325	7	Sololá	701	Sololá	4	Finca Santa Victoria	4	Abril	2023-04-20T00:00:00	2024-11-08T16:00:00	2	Temperatura media	16.7
102326	7	Sololá	701	Sololá	4	Finca Santa Victoria	4	Abril	2023-04-20T00:00:00	2024-11-08T16:00:00	4	Temperatura máxima	18.4
102327	7	Sololá	701	Sololá	4	Finca Santa Victoria	4	Abril	2023-04-20T00:00:00	2024-11-08T16:00:00	3	Temperatura mínima	16.7
102328	7	Sololá	701	Sololá	4	Finca Santa Victoria	4	Abril	2023-04-20T00:00:00	2024-11-08T16:00:00	5	Humedad	88
102329	7	Sololá	701	Sololá	4	Finca Santa Victoria	4	Abril	2023-04-20T00:00:00	2024-11-08T16:00:00	6	Velocidad del viento	4.8
102330	7	Sololá	701	Sololá	4	Finca Santa Victoria	4	Abril	2023-04-20T00:00:00	2024-11-08T16:00:00	7	Dirección del viento	4.83
102331	7	Sololá	701	Sololá	4	Finca Santa Victoria	4	Abril	2023-04-20T00:00:00	2024-11-08T16:00:00	1	Precipitación	0
102332	7	Sololá	701	Sololá	4	Finca Santa Victoria	4	Abril	2023-04-20T00:00:00	2024-11-08T16:00:00	8	Radiación solar	160
102333	7	Sololá	701	Sololá	4	Finca Santa Victoria	4	Abril	2023-04-20T00:00:00	2024-11-08T17:00:00	2	Temperatura media	16.1
102334	7	Sololá	701	Sololá	4	Finca Santa Victoria	4	Abril	2023-04-20T00:00:00	2024-11-08T17:00:00	4	Temperatura máxima	16.7
102335	7	Sololá	701	Sololá	4	Finca Santa Victoria	4	Abril	2023-04-20T00:00:00	2024-11-08T17:00:00	3	Temperatura mínima	15.9
102336	7	Sololá	701	Sololá	4	Finca Santa Victoria	4	Abril	2023-04-20T00:00:00	2024-11-08T17:00:00	5	Humedad	91
102337	7	Sololá	701	Sololá	4	Finca Santa Victoria	4	Abril	2023-04-20T00:00:00	2024-11-08T17:00:00	6	Velocidad del viento	3.2
102338	7	Sololá	701	Sololá	4	Finca Santa Victoria	4	Abril	2023-04-20T00:00:00	2024-11-08T17:00:00	7	Dirección del viento	3.22
102339	7	Sololá	701	Sololá	4	Finca Santa Victoria	4	Abril	2023-04-20T00:00:00	2024-11-08T17:00:00	1	Precipitación	0
102340	7	Sololá	701	Sololá	4	Finca Santa Victoria	4	Abril	2023-04-20T00:00:00	2024-11-08T17:00:00	8	Radiación solar	52
102341	7	Sololá	701	Sololá	4	Finca Santa Victoria	4	Abril	2023-04-20T00:00:00	2024-11-08T18:00:00	2	Temperatura media	15.4
102342	7	Sololá	701	Sololá	4	Finca Santa Victoria	4	Abril	2023-04-20T00:00:00	2024-11-08T18:00:00	4	Temperatura máxima	16.1
102343	7	Sololá	701	Sololá	4	Finca Santa Victoria	4	Abril	2023-04-20T00:00:00	2024-11-08T18:00:00	3	Temperatura mínima	15.4
102344	7	Sololá	701	Sololá	4	Finca Santa Victoria	4	Abril	2023-04-20T00:00:00	2024-11-08T18:00:00	5	Humedad	93
102345	7	Sololá	701	Sololá	4	Finca Santa Victoria	4	Abril	2023-04-20T00:00:00	2024-11-08T18:00:00	6	Velocidad del viento	1.6
102346	7	Sololá	701	Sololá	4	Finca Santa Victoria	4	Abril	2023-04-20T00:00:00	2024-11-08T18:00:00	7	Dirección del viento	1.61
102347	7	Sololá	701	Sololá	4	Finca Santa Victoria	4	Abril	2023-04-20T00:00:00	2024-11-08T18:00:00	1	Precipitación	0
102348	7	Sololá	701	Sololá	4	Finca Santa Victoria	4	Abril	2023-04-20T00:00:00	2024-11-08T18:00:00	8	Radiación solar	30
102349	7	Sololá	701	Sololá	4	Finca Santa Victoria	4	Abril	2023-04-20T00:00:00	2024-11-08T19:00:00	2	Temperatura media	15
102350	7	Sololá	701	Sololá	4	Finca Santa Victoria	4	Abril	2023-04-20T00:00:00	2024-11-08T19:00:00	4	Temperatura máxima	15.4
102351	7	Sololá	701	Sololá	4	Finca Santa Victoria	4	Abril	2023-04-20T00:00:00	2024-11-08T19:00:00	3	Temperatura mínima	14.9
102352	7	Sololá	701	Sololá	4	Finca Santa Victoria	4	Abril	2023-04-20T00:00:00	2024-11-08T19:00:00	5	Humedad	95
102353	7	Sololá	701	Sololá	4	Finca Santa Victoria	4	Abril	2023-04-20T00:00:00	2024-11-08T19:00:00	6	Velocidad del viento	0
102354	7	Sololá	701	Sololá	4	Finca Santa Victoria	4	Abril	2023-04-20T00:00:00	2024-11-08T19:00:00	7	Dirección del viento	0
102355	7	Sololá	701	Sololá	4	Finca Santa Victoria	4	Abril	2023-04-20T00:00:00	2024-11-08T19:00:00	1	Precipitación	0
102356	7	Sololá	701	Sololá	4	Finca Santa Victoria	4	Abril	2023-04-20T00:00:00	2024-11-08T19:00:00	8	Radiación solar	0
102357	7	Sololá	701	Sololá	4	Finca Santa Victoria	4	Abril	2023-04-20T00:00:00	2024-11-08T20:00:00	2	Temperatura media	14.5
102358	7	Sololá	701	Sololá	4	Finca Santa Victoria	4	Abril	2023-04-20T00:00:00	2024-11-08T20:00:00	4	Temperatura máxima	15
102359	7	Sololá	701	Sololá	4	Finca Santa Victoria	4	Abril	2023-04-20T00:00:00	2024-11-08T20:00:00	3	Temperatura mínima	14.5
102360	7	Sololá	701	Sololá	4	Finca Santa Victoria	4	Abril	2023-04-20T00:00:00	2024-11-08T20:00:00	5	Humedad	96
102361	7	Sololá	701	Sololá	4	Finca Santa Victoria	4	Abril	2023-04-20T00:00:00	2024-11-08T20:00:00	6	Velocidad del viento	0
102362	7	Sololá	701	Sololá	4	Finca Santa Victoria	4	Abril	2023-04-20T00:00:00	2024-11-08T20:00:00	7	Dirección del viento	0
102363	7	Sololá	701	Sololá	4	Finca Santa Victoria	4	Abril	2023-04-20T00:00:00	2024-11-08T20:00:00	1	Precipitación	0
102364	7	Sololá	701	Sololá	4	Finca Santa Victoria	4	Abril	2023-04-20T00:00:00	2024-11-08T20:00:00	8	Radiación solar	0
102365	7	Sololá	701	Sololá	4	Finca Santa Victoria	4	Abril	2023-04-20T00:00:00	2024-11-08T21:00:00	2	Temperatura media	13.8
102366	7	Sololá	701	Sololá	4	Finca Santa Victoria	4	Abril	2023-04-20T00:00:00	2024-11-08T21:00:00	4	Temperatura máxima	14.5
102367	7	Sololá	701	Sololá	4	Finca Santa Victoria	4	Abril	2023-04-20T00:00:00	2024-11-08T21:00:00	3	Temperatura mínima	13.7
102368	7	Sololá	701	Sololá	4	Finca Santa Victoria	4	Abril	2023-04-20T00:00:00	2024-11-08T21:00:00	5	Humedad	97
102369	7	Sololá	701	Sololá	4	Finca Santa Victoria	4	Abril	2023-04-20T00:00:00	2024-11-08T21:00:00	6	Velocidad del viento	0
102370	7	Sololá	701	Sololá	4	Finca Santa Victoria	4	Abril	2023-04-20T00:00:00	2024-11-08T21:00:00	7	Dirección del viento	0
102371	7	Sololá	701	Sololá	4	Finca Santa Victoria	4	Abril	2023-04-20T00:00:00	2024-11-08T21:00:00	1	Precipitación	0
102372	7	Sololá	701	Sololá	4	Finca Santa Victoria	4	Abril	2023-04-20T00:00:00	2024-11-08T21:00:00	8	Radiación solar	0
102373	7	Sololá	701	Sololá	4	Finca Santa Victoria	4	Abril	2023-04-20T00:00:00	2024-11-08T22:00:00	2	Temperatura media	13.5
102374	7	Sololá	701	Sololá	4	Finca Santa Victoria	4	Abril	2023-04-20T00:00:00	2024-11-08T22:00:00	4	Temperatura máxima	13.8
102375	7	Sololá	701	Sololá	4	Finca Santa Victoria	4	Abril	2023-04-20T00:00:00	2024-11-08T22:00:00	3	Temperatura mínima	13.4
102376	7	Sololá	701	Sololá	4	Finca Santa Victoria	4	Abril	2023-04-20T00:00:00	2024-11-08T22:00:00	5	Humedad	97
102377	7	Sololá	701	Sololá	4	Finca Santa Victoria	4	Abril	2023-04-20T00:00:00	2024-11-08T22:00:00	6	Velocidad del viento	1.6
102378	7	Sololá	701	Sololá	4	Finca Santa Victoria	4	Abril	2023-04-20T00:00:00	2024-11-08T22:00:00	7	Dirección del viento	1.61
102379	7	Sololá	701	Sololá	4	Finca Santa Victoria	4	Abril	2023-04-20T00:00:00	2024-11-08T22:00:00	1	Precipitación	0
102380	7	Sololá	701	Sololá	4	Finca Santa Victoria	4	Abril	2023-04-20T00:00:00	2024-11-08T22:00:00	8	Radiación solar	0
102381	7	Sololá	701	Sololá	4	Finca Santa Victoria	4	Abril	2023-04-20T00:00:00	2024-11-08T23:00:00	2	Temperatura media	13.3
102382	7	Sololá	701	Sololá	4	Finca Santa Victoria	4	Abril	2023-04-20T00:00:00	2024-11-08T23:00:00	4	Temperatura máxima	13.6
102383	7	Sololá	701	Sololá	4	Finca Santa Victoria	4	Abril	2023-04-20T00:00:00	2024-11-08T23:00:00	3	Temperatura mínima	13.3
102384	7	Sololá	701	Sololá	4	Finca Santa Victoria	4	Abril	2023-04-20T00:00:00	2024-11-08T23:00:00	5	Humedad	97
102385	7	Sololá	701	Sololá	4	Finca Santa Victoria	4	Abril	2023-04-20T00:00:00	2024-11-08T23:00:00	6	Velocidad del viento	0
102386	7	Sololá	701	Sololá	4	Finca Santa Victoria	4	Abril	2023-04-20T00:00:00	2024-11-08T23:00:00	7	Dirección del viento	0
102387	7	Sololá	701	Sololá	4	Finca Santa Victoria	4	Abril	2023-04-20T00:00:00	2024-11-08T23:00:00	1	Precipitación	0
102388	7	Sololá	701	Sololá	4	Finca Santa Victoria	4	Abril	2023-04-20T00:00:00	2024-11-08T23:00:00	8	Radiación solar	0
102389	7	Sololá	701	Sololá	4	Finca Santa Victoria	4	Abril	2023-04-21T00:00:00	2024-11-08T00:00:00	2	Temperatura media	12.9
102390	7	Sololá	701	Sololá	4	Finca Santa Victoria	4	Abril	2023-04-21T00:00:00	2024-11-08T00:00:00	4	Temperatura máxima	13.3
102391	7	Sololá	701	Sololá	4	Finca Santa Victoria	4	Abril	2023-04-21T00:00:00	2024-11-08T00:00:00	3	Temperatura mínima	12.9
102392	7	Sololá	701	Sololá	4	Finca Santa Victoria	4	Abril	2023-04-21T00:00:00	2024-11-08T00:00:00	5	Humedad	97
102393	7	Sololá	701	Sololá	4	Finca Santa Victoria	4	Abril	2023-04-21T00:00:00	2024-11-08T00:00:00	6	Velocidad del viento	0
102394	7	Sololá	701	Sololá	4	Finca Santa Victoria	4	Abril	2023-04-21T00:00:00	2024-11-08T00:00:00	7	Dirección del viento	0
102395	7	Sololá	701	Sololá	4	Finca Santa Victoria	4	Abril	2023-04-21T00:00:00	2024-11-08T00:00:00	1	Precipitación	0
102396	7	Sololá	701	Sololá	4	Finca Santa Victoria	4	Abril	2023-04-21T00:00:00	2024-11-08T00:00:00	8	Radiación solar	0
102397	7	Sololá	701	Sololá	4	Finca Santa Victoria	4	Abril	2023-04-21T00:00:00	2024-11-08T01:00:00	2	Temperatura media	12.4
102398	7	Sololá	701	Sololá	4	Finca Santa Victoria	4	Abril	2023-04-21T00:00:00	2024-11-08T01:00:00	4	Temperatura máxima	12.9
102399	7	Sololá	701	Sololá	4	Finca Santa Victoria	4	Abril	2023-04-21T00:00:00	2024-11-08T01:00:00	3	Temperatura mínima	12.4
102400	7	Sololá	701	Sololá	4	Finca Santa Victoria	4	Abril	2023-04-21T00:00:00	2024-11-08T01:00:00	5	Humedad	96
102401	7	Sololá	701	Sololá	4	Finca Santa Victoria	4	Abril	2023-04-21T00:00:00	2024-11-08T01:00:00	6	Velocidad del viento	1.6
102402	7	Sololá	701	Sololá	4	Finca Santa Victoria	4	Abril	2023-04-21T00:00:00	2024-11-08T01:00:00	7	Dirección del viento	1.61
102403	7	Sololá	701	Sololá	4	Finca Santa Victoria	4	Abril	2023-04-21T00:00:00	2024-11-08T01:00:00	1	Precipitación	0
102404	7	Sololá	701	Sololá	4	Finca Santa Victoria	4	Abril	2023-04-21T00:00:00	2024-11-08T01:00:00	8	Radiación solar	0
102405	7	Sololá	701	Sololá	4	Finca Santa Victoria	4	Abril	2023-04-21T00:00:00	2024-11-08T02:00:00	2	Temperatura media	12.4
102406	7	Sololá	701	Sololá	4	Finca Santa Victoria	4	Abril	2023-04-21T00:00:00	2024-11-08T02:00:00	4	Temperatura máxima	12.5
102407	7	Sololá	701	Sololá	4	Finca Santa Victoria	4	Abril	2023-04-21T00:00:00	2024-11-08T02:00:00	3	Temperatura mínima	12.1
102408	7	Sololá	701	Sololá	4	Finca Santa Victoria	4	Abril	2023-04-21T00:00:00	2024-11-08T02:00:00	5	Humedad	92
102409	7	Sololá	701	Sololá	4	Finca Santa Victoria	4	Abril	2023-04-21T00:00:00	2024-11-08T02:00:00	6	Velocidad del viento	1.6
102410	7	Sololá	701	Sololá	4	Finca Santa Victoria	4	Abril	2023-04-21T00:00:00	2024-11-08T02:00:00	7	Dirección del viento	1.61
102411	7	Sololá	701	Sololá	4	Finca Santa Victoria	4	Abril	2023-04-21T00:00:00	2024-11-08T02:00:00	1	Precipitación	0
102412	7	Sololá	701	Sololá	4	Finca Santa Victoria	4	Abril	2023-04-21T00:00:00	2024-11-08T02:00:00	8	Radiación solar	0
102413	7	Sololá	701	Sololá	4	Finca Santa Victoria	4	Abril	2023-04-21T00:00:00	2024-11-08T03:00:00	2	Temperatura media	12.6
102414	7	Sololá	701	Sololá	4	Finca Santa Victoria	4	Abril	2023-04-21T00:00:00	2024-11-08T03:00:00	4	Temperatura máxima	12.9
102415	7	Sololá	701	Sololá	4	Finca Santa Victoria	4	Abril	2023-04-21T00:00:00	2024-11-08T03:00:00	3	Temperatura mínima	12.4
102416	7	Sololá	701	Sololá	4	Finca Santa Victoria	4	Abril	2023-04-21T00:00:00	2024-11-08T03:00:00	5	Humedad	84
102417	7	Sololá	701	Sololá	4	Finca Santa Victoria	4	Abril	2023-04-21T00:00:00	2024-11-08T03:00:00	6	Velocidad del viento	1.6
102418	7	Sololá	701	Sololá	4	Finca Santa Victoria	4	Abril	2023-04-21T00:00:00	2024-11-08T03:00:00	7	Dirección del viento	1.61
102419	7	Sololá	701	Sololá	4	Finca Santa Victoria	4	Abril	2023-04-21T00:00:00	2024-11-08T03:00:00	1	Precipitación	0
102420	7	Sololá	701	Sololá	4	Finca Santa Victoria	4	Abril	2023-04-21T00:00:00	2024-11-08T03:00:00	8	Radiación solar	0
102421	7	Sololá	701	Sololá	4	Finca Santa Victoria	4	Abril	2023-04-21T00:00:00	2024-11-08T04:00:00	2	Temperatura media	12.1
102422	7	Sololá	701	Sololá	4	Finca Santa Victoria	4	Abril	2023-04-21T00:00:00	2024-11-08T04:00:00	4	Temperatura máxima	12.6
102423	7	Sololá	701	Sololá	4	Finca Santa Victoria	4	Abril	2023-04-21T00:00:00	2024-11-08T04:00:00	3	Temperatura mínima	11.8
102424	7	Sololá	701	Sololá	4	Finca Santa Victoria	4	Abril	2023-04-21T00:00:00	2024-11-08T04:00:00	5	Humedad	93
102425	7	Sololá	701	Sololá	4	Finca Santa Victoria	4	Abril	2023-04-21T00:00:00	2024-11-08T04:00:00	6	Velocidad del viento	1.6
102426	7	Sololá	701	Sololá	4	Finca Santa Victoria	4	Abril	2023-04-21T00:00:00	2024-11-08T04:00:00	7	Dirección del viento	1.61
102427	7	Sololá	701	Sololá	4	Finca Santa Victoria	4	Abril	2023-04-21T00:00:00	2024-11-08T04:00:00	1	Precipitación	0
102428	7	Sololá	701	Sololá	4	Finca Santa Victoria	4	Abril	2023-04-21T00:00:00	2024-11-08T04:00:00	8	Radiación solar	0
102429	7	Sololá	701	Sololá	4	Finca Santa Victoria	4	Abril	2023-04-21T00:00:00	2024-11-08T05:00:00	2	Temperatura media	11.3
102430	7	Sololá	701	Sololá	4	Finca Santa Victoria	4	Abril	2023-04-21T00:00:00	2024-11-08T05:00:00	4	Temperatura máxima	12.1
102431	7	Sololá	701	Sololá	4	Finca Santa Victoria	4	Abril	2023-04-21T00:00:00	2024-11-08T05:00:00	3	Temperatura mínima	11.3
102432	7	Sololá	701	Sololá	4	Finca Santa Victoria	4	Abril	2023-04-21T00:00:00	2024-11-08T05:00:00	5	Humedad	93
102433	7	Sololá	701	Sololá	4	Finca Santa Victoria	4	Abril	2023-04-21T00:00:00	2024-11-08T05:00:00	6	Velocidad del viento	0
102434	7	Sololá	701	Sololá	4	Finca Santa Victoria	4	Abril	2023-04-21T00:00:00	2024-11-08T05:00:00	7	Dirección del viento	0
102435	7	Sololá	701	Sololá	4	Finca Santa Victoria	4	Abril	2023-04-21T00:00:00	2024-11-08T05:00:00	1	Precipitación	0
102436	7	Sololá	701	Sololá	4	Finca Santa Victoria	4	Abril	2023-04-21T00:00:00	2024-11-08T05:00:00	8	Radiación solar	0
102437	7	Sololá	701	Sololá	4	Finca Santa Victoria	4	Abril	2023-04-21T00:00:00	2024-11-08T06:00:00	2	Temperatura media	12.2
102438	7	Sololá	701	Sololá	4	Finca Santa Victoria	4	Abril	2023-04-21T00:00:00	2024-11-08T06:00:00	4	Temperatura máxima	12.3
102439	7	Sololá	701	Sololá	4	Finca Santa Victoria	4	Abril	2023-04-21T00:00:00	2024-11-08T06:00:00	3	Temperatura mínima	11.2
102440	7	Sololá	701	Sololá	4	Finca Santa Victoria	4	Abril	2023-04-21T00:00:00	2024-11-08T06:00:00	5	Humedad	87
102441	7	Sololá	701	Sololá	4	Finca Santa Victoria	4	Abril	2023-04-21T00:00:00	2024-11-08T06:00:00	6	Velocidad del viento	1.6
102442	7	Sololá	701	Sololá	4	Finca Santa Victoria	4	Abril	2023-04-21T00:00:00	2024-11-08T06:00:00	7	Dirección del viento	1.61
102443	7	Sololá	701	Sololá	4	Finca Santa Victoria	4	Abril	2023-04-21T00:00:00	2024-11-08T06:00:00	1	Precipitación	0
102444	7	Sololá	701	Sololá	4	Finca Santa Victoria	4	Abril	2023-04-21T00:00:00	2024-11-08T06:00:00	8	Radiación solar	1
102445	7	Sololá	701	Sololá	4	Finca Santa Victoria	4	Abril	2023-04-21T00:00:00	2024-11-08T07:00:00	2	Temperatura media	13.5
102446	7	Sololá	701	Sololá	4	Finca Santa Victoria	4	Abril	2023-04-21T00:00:00	2024-11-08T07:00:00	4	Temperatura máxima	13.5
102447	7	Sololá	701	Sololá	4	Finca Santa Victoria	4	Abril	2023-04-21T00:00:00	2024-11-08T07:00:00	3	Temperatura mínima	12.2
102448	7	Sololá	701	Sololá	4	Finca Santa Victoria	4	Abril	2023-04-21T00:00:00	2024-11-08T07:00:00	5	Humedad	86
102449	7	Sololá	701	Sololá	4	Finca Santa Victoria	4	Abril	2023-04-21T00:00:00	2024-11-08T07:00:00	6	Velocidad del viento	1.6
102450	7	Sololá	701	Sololá	4	Finca Santa Victoria	4	Abril	2023-04-21T00:00:00	2024-11-08T07:00:00	7	Dirección del viento	1.61
102451	7	Sololá	701	Sololá	4	Finca Santa Victoria	4	Abril	2023-04-21T00:00:00	2024-11-08T07:00:00	1	Precipitación	0
102452	7	Sololá	701	Sololá	4	Finca Santa Victoria	4	Abril	2023-04-21T00:00:00	2024-11-08T07:00:00	8	Radiación solar	24
102453	7	Sololá	701	Sololá	4	Finca Santa Victoria	4	Abril	2023-04-21T00:00:00	2024-11-08T08:00:00	2	Temperatura media	16.6
102454	7	Sololá	701	Sololá	4	Finca Santa Victoria	4	Abril	2023-04-21T00:00:00	2024-11-08T08:00:00	4	Temperatura máxima	16.6
102455	7	Sololá	701	Sololá	4	Finca Santa Victoria	4	Abril	2023-04-21T00:00:00	2024-11-08T08:00:00	3	Temperatura mínima	13.5
102456	7	Sololá	701	Sololá	4	Finca Santa Victoria	4	Abril	2023-04-21T00:00:00	2024-11-08T08:00:00	5	Humedad	77
102457	7	Sololá	701	Sololá	4	Finca Santa Victoria	4	Abril	2023-04-21T00:00:00	2024-11-08T08:00:00	6	Velocidad del viento	1.6
102458	7	Sololá	701	Sololá	4	Finca Santa Victoria	4	Abril	2023-04-21T00:00:00	2024-11-08T08:00:00	7	Dirección del viento	1.61
102459	7	Sololá	701	Sololá	4	Finca Santa Victoria	4	Abril	2023-04-21T00:00:00	2024-11-08T08:00:00	1	Precipitación	0
102460	7	Sololá	701	Sololá	4	Finca Santa Victoria	4	Abril	2023-04-21T00:00:00	2024-11-08T08:00:00	8	Radiación solar	237
102461	7	Sololá	701	Sololá	4	Finca Santa Victoria	4	Abril	2023-04-21T00:00:00	2024-11-08T09:00:00	2	Temperatura media	17.2
102462	7	Sololá	701	Sololá	4	Finca Santa Victoria	4	Abril	2023-04-21T00:00:00	2024-11-08T09:00:00	4	Temperatura máxima	17.5
102463	7	Sololá	701	Sololá	4	Finca Santa Victoria	4	Abril	2023-04-21T00:00:00	2024-11-08T09:00:00	3	Temperatura mínima	16.6
102464	7	Sololá	701	Sololá	4	Finca Santa Victoria	4	Abril	2023-04-21T00:00:00	2024-11-08T09:00:00	5	Humedad	72
102465	7	Sololá	701	Sololá	4	Finca Santa Victoria	4	Abril	2023-04-21T00:00:00	2024-11-08T09:00:00	6	Velocidad del viento	3.2
102466	7	Sololá	701	Sololá	4	Finca Santa Victoria	4	Abril	2023-04-21T00:00:00	2024-11-08T09:00:00	7	Dirección del viento	3.22
102467	7	Sololá	701	Sololá	4	Finca Santa Victoria	4	Abril	2023-04-21T00:00:00	2024-11-08T09:00:00	1	Precipitación	0
102468	7	Sololá	701	Sololá	4	Finca Santa Victoria	4	Abril	2023-04-21T00:00:00	2024-11-08T09:00:00	8	Radiación solar	443
102469	7	Sololá	701	Sololá	4	Finca Santa Victoria	4	Abril	2023-04-21T00:00:00	2024-11-08T10:00:00	2	Temperatura media	19.2
102470	7	Sololá	701	Sololá	4	Finca Santa Victoria	4	Abril	2023-04-21T00:00:00	2024-11-08T10:00:00	4	Temperatura máxima	19.2
102471	7	Sololá	701	Sololá	4	Finca Santa Victoria	4	Abril	2023-04-21T00:00:00	2024-11-08T10:00:00	3	Temperatura mínima	17.1
102472	7	Sololá	701	Sololá	4	Finca Santa Victoria	4	Abril	2023-04-21T00:00:00	2024-11-08T10:00:00	5	Humedad	67
102473	7	Sololá	701	Sololá	4	Finca Santa Victoria	4	Abril	2023-04-21T00:00:00	2024-11-08T10:00:00	6	Velocidad del viento	3.2
102474	7	Sololá	701	Sololá	4	Finca Santa Victoria	4	Abril	2023-04-21T00:00:00	2024-11-08T10:00:00	7	Dirección del viento	3.22
102475	7	Sololá	701	Sololá	4	Finca Santa Victoria	4	Abril	2023-04-21T00:00:00	2024-11-08T10:00:00	1	Precipitación	0
102476	7	Sololá	701	Sololá	4	Finca Santa Victoria	4	Abril	2023-04-21T00:00:00	2024-11-08T10:00:00	8	Radiación solar	293
102477	7	Sololá	701	Sololá	4	Finca Santa Victoria	4	Abril	2023-04-21T00:00:00	2024-11-08T11:00:00	2	Temperatura media	19.6
102478	7	Sololá	701	Sololá	4	Finca Santa Victoria	4	Abril	2023-04-21T00:00:00	2024-11-08T11:00:00	4	Temperatura máxima	20.2
102479	7	Sololá	701	Sololá	4	Finca Santa Victoria	4	Abril	2023-04-21T00:00:00	2024-11-08T11:00:00	3	Temperatura mínima	19.2
102480	7	Sololá	701	Sololá	4	Finca Santa Victoria	4	Abril	2023-04-21T00:00:00	2024-11-08T11:00:00	5	Humedad	69
102481	7	Sololá	701	Sololá	4	Finca Santa Victoria	4	Abril	2023-04-21T00:00:00	2024-11-08T11:00:00	6	Velocidad del viento	4.8
102482	7	Sololá	701	Sololá	4	Finca Santa Victoria	4	Abril	2023-04-21T00:00:00	2024-11-08T11:00:00	7	Dirección del viento	4.83
102483	7	Sololá	701	Sololá	4	Finca Santa Victoria	4	Abril	2023-04-21T00:00:00	2024-11-08T11:00:00	1	Precipitación	0
102484	7	Sololá	701	Sololá	4	Finca Santa Victoria	4	Abril	2023-04-21T00:00:00	2024-11-08T11:00:00	8	Radiación solar	908
102485	7	Sololá	701	Sololá	4	Finca Santa Victoria	4	Abril	2023-04-21T00:00:00	2024-11-08T12:00:00	2	Temperatura media	18.8
102486	7	Sololá	701	Sololá	4	Finca Santa Victoria	4	Abril	2023-04-21T00:00:00	2024-11-08T12:00:00	4	Temperatura máxima	19.9
102487	7	Sololá	701	Sololá	4	Finca Santa Victoria	4	Abril	2023-04-21T00:00:00	2024-11-08T12:00:00	3	Temperatura mínima	17.9
102488	7	Sololá	701	Sololá	4	Finca Santa Victoria	4	Abril	2023-04-21T00:00:00	2024-11-08T12:00:00	5	Humedad	80
102489	7	Sololá	701	Sololá	4	Finca Santa Victoria	4	Abril	2023-04-21T00:00:00	2024-11-08T12:00:00	6	Velocidad del viento	6.4
102490	7	Sololá	701	Sololá	4	Finca Santa Victoria	4	Abril	2023-04-21T00:00:00	2024-11-08T12:00:00	7	Dirección del viento	6.44
102491	7	Sololá	701	Sololá	4	Finca Santa Victoria	4	Abril	2023-04-21T00:00:00	2024-11-08T12:00:00	1	Precipitación	0
102492	7	Sololá	701	Sololá	4	Finca Santa Victoria	4	Abril	2023-04-21T00:00:00	2024-11-08T12:00:00	8	Radiación solar	665
102493	7	Sololá	701	Sololá	4	Finca Santa Victoria	4	Abril	2023-04-21T00:00:00	2024-11-08T13:00:00	2	Temperatura media	18
102494	7	Sololá	701	Sololá	4	Finca Santa Victoria	4	Abril	2023-04-21T00:00:00	2024-11-08T13:00:00	4	Temperatura máxima	19.1
102495	7	Sololá	701	Sololá	4	Finca Santa Victoria	4	Abril	2023-04-21T00:00:00	2024-11-08T13:00:00	3	Temperatura mínima	17.7
102496	7	Sololá	701	Sololá	4	Finca Santa Victoria	4	Abril	2023-04-21T00:00:00	2024-11-08T13:00:00	5	Humedad	82
102497	7	Sololá	701	Sololá	4	Finca Santa Victoria	4	Abril	2023-04-21T00:00:00	2024-11-08T13:00:00	6	Velocidad del viento	4.8
102498	7	Sololá	701	Sololá	4	Finca Santa Victoria	4	Abril	2023-04-21T00:00:00	2024-11-08T13:00:00	7	Dirección del viento	4.83
102499	7	Sololá	701	Sololá	4	Finca Santa Victoria	4	Abril	2023-04-21T00:00:00	2024-11-08T13:00:00	1	Precipitación	0
102500	7	Sololá	701	Sololá	4	Finca Santa Victoria	4	Abril	2023-04-21T00:00:00	2024-11-08T13:00:00	8	Radiación solar	345
102501	7	Sololá	701	Sololá	4	Finca Santa Victoria	4	Abril	2023-04-21T00:00:00	2024-11-08T14:00:00	2	Temperatura media	17.9
102502	7	Sololá	701	Sololá	4	Finca Santa Victoria	4	Abril	2023-04-21T00:00:00	2024-11-08T14:00:00	4	Temperatura máxima	18.6
102503	7	Sololá	701	Sololá	4	Finca Santa Victoria	4	Abril	2023-04-21T00:00:00	2024-11-08T14:00:00	3	Temperatura mínima	17.3
102504	7	Sololá	701	Sololá	4	Finca Santa Victoria	4	Abril	2023-04-21T00:00:00	2024-11-08T14:00:00	5	Humedad	82
102505	7	Sololá	701	Sololá	4	Finca Santa Victoria	4	Abril	2023-04-21T00:00:00	2024-11-08T14:00:00	6	Velocidad del viento	4.8
102506	7	Sololá	701	Sololá	4	Finca Santa Victoria	4	Abril	2023-04-21T00:00:00	2024-11-08T14:00:00	7	Dirección del viento	4.83
102507	7	Sololá	701	Sololá	4	Finca Santa Victoria	4	Abril	2023-04-21T00:00:00	2024-11-08T14:00:00	1	Precipitación	0
102508	7	Sololá	701	Sololá	4	Finca Santa Victoria	4	Abril	2023-04-21T00:00:00	2024-11-08T14:00:00	8	Radiación solar	297
102509	7	Sololá	701	Sololá	4	Finca Santa Victoria	4	Abril	2023-04-21T00:00:00	2024-11-08T15:00:00	2	Temperatura media	16.5
102510	7	Sololá	701	Sololá	4	Finca Santa Victoria	4	Abril	2023-04-21T00:00:00	2024-11-08T15:00:00	4	Temperatura máxima	18.7
102511	7	Sololá	701	Sololá	4	Finca Santa Victoria	4	Abril	2023-04-21T00:00:00	2024-11-08T15:00:00	3	Temperatura mínima	16.5
102512	7	Sololá	701	Sololá	4	Finca Santa Victoria	4	Abril	2023-04-21T00:00:00	2024-11-08T15:00:00	5	Humedad	89
102513	7	Sololá	701	Sololá	4	Finca Santa Victoria	4	Abril	2023-04-21T00:00:00	2024-11-08T15:00:00	6	Velocidad del viento	4.8
102514	7	Sololá	701	Sololá	4	Finca Santa Victoria	4	Abril	2023-04-21T00:00:00	2024-11-08T15:00:00	7	Dirección del viento	4.83
102515	7	Sololá	701	Sololá	4	Finca Santa Victoria	4	Abril	2023-04-21T00:00:00	2024-11-08T15:00:00	1	Precipitación	0
102516	7	Sololá	701	Sololá	4	Finca Santa Victoria	4	Abril	2023-04-21T00:00:00	2024-11-08T15:00:00	8	Radiación solar	229
102517	7	Sololá	701	Sololá	4	Finca Santa Victoria	4	Abril	2023-04-21T00:00:00	2024-11-08T16:00:00	2	Temperatura media	15.9
102518	7	Sololá	701	Sololá	4	Finca Santa Victoria	4	Abril	2023-04-21T00:00:00	2024-11-08T16:00:00	4	Temperatura máxima	16.5
102519	7	Sololá	701	Sololá	4	Finca Santa Victoria	4	Abril	2023-04-21T00:00:00	2024-11-08T16:00:00	3	Temperatura mínima	15.9
102520	7	Sololá	701	Sololá	4	Finca Santa Victoria	4	Abril	2023-04-21T00:00:00	2024-11-08T16:00:00	5	Humedad	91
102521	7	Sololá	701	Sololá	4	Finca Santa Victoria	4	Abril	2023-04-21T00:00:00	2024-11-08T16:00:00	6	Velocidad del viento	3.2
102522	7	Sololá	701	Sololá	4	Finca Santa Victoria	4	Abril	2023-04-21T00:00:00	2024-11-08T16:00:00	7	Dirección del viento	3.22
102523	7	Sololá	701	Sololá	4	Finca Santa Victoria	4	Abril	2023-04-21T00:00:00	2024-11-08T16:00:00	1	Precipitación	0
102524	7	Sololá	701	Sololá	4	Finca Santa Victoria	4	Abril	2023-04-21T00:00:00	2024-11-08T16:00:00	8	Radiación solar	80
102525	7	Sololá	701	Sololá	4	Finca Santa Victoria	4	Abril	2023-04-21T00:00:00	2024-11-08T17:00:00	2	Temperatura media	15.8
102526	7	Sololá	701	Sololá	4	Finca Santa Victoria	4	Abril	2023-04-21T00:00:00	2024-11-08T17:00:00	4	Temperatura máxima	16.1
102527	7	Sololá	701	Sololá	4	Finca Santa Victoria	4	Abril	2023-04-21T00:00:00	2024-11-08T17:00:00	3	Temperatura mínima	15.8
102528	7	Sololá	701	Sololá	4	Finca Santa Victoria	4	Abril	2023-04-21T00:00:00	2024-11-08T17:00:00	5	Humedad	92
102529	7	Sololá	701	Sololá	4	Finca Santa Victoria	4	Abril	2023-04-21T00:00:00	2024-11-08T17:00:00	6	Velocidad del viento	1.6
102530	7	Sololá	701	Sololá	4	Finca Santa Victoria	4	Abril	2023-04-21T00:00:00	2024-11-08T17:00:00	7	Dirección del viento	1.61
102531	7	Sololá	701	Sololá	4	Finca Santa Victoria	4	Abril	2023-04-21T00:00:00	2024-11-08T17:00:00	1	Precipitación	0
102532	7	Sololá	701	Sololá	4	Finca Santa Victoria	4	Abril	2023-04-21T00:00:00	2024-11-08T17:00:00	8	Radiación solar	60
102533	7	Sololá	701	Sololá	4	Finca Santa Victoria	4	Abril	2023-04-21T00:00:00	2024-11-08T18:00:00	2	Temperatura media	15.7
102534	7	Sololá	701	Sololá	4	Finca Santa Victoria	4	Abril	2023-04-21T00:00:00	2024-11-08T18:00:00	4	Temperatura máxima	15.9
102535	7	Sololá	701	Sololá	4	Finca Santa Victoria	4	Abril	2023-04-21T00:00:00	2024-11-08T18:00:00	3	Temperatura mínima	15.7
102536	7	Sololá	701	Sololá	4	Finca Santa Victoria	4	Abril	2023-04-21T00:00:00	2024-11-08T18:00:00	5	Humedad	90
102537	7	Sololá	701	Sololá	4	Finca Santa Victoria	4	Abril	2023-04-21T00:00:00	2024-11-08T18:00:00	6	Velocidad del viento	0
102538	7	Sololá	701	Sololá	4	Finca Santa Victoria	4	Abril	2023-04-21T00:00:00	2024-11-08T18:00:00	7	Dirección del viento	0
102539	7	Sololá	701	Sololá	4	Finca Santa Victoria	4	Abril	2023-04-21T00:00:00	2024-11-08T18:00:00	1	Precipitación	0
102540	7	Sololá	701	Sololá	4	Finca Santa Victoria	4	Abril	2023-04-21T00:00:00	2024-11-08T18:00:00	8	Radiación solar	44
102541	7	Sololá	701	Sololá	4	Finca Santa Victoria	4	Abril	2023-04-21T00:00:00	2024-11-08T19:00:00	2	Temperatura media	14.7
102542	7	Sololá	701	Sololá	4	Finca Santa Victoria	4	Abril	2023-04-21T00:00:00	2024-11-08T19:00:00	4	Temperatura máxima	15.7
102543	7	Sololá	701	Sololá	4	Finca Santa Victoria	4	Abril	2023-04-21T00:00:00	2024-11-08T19:00:00	3	Temperatura mínima	14.7
102544	7	Sololá	701	Sololá	4	Finca Santa Victoria	4	Abril	2023-04-21T00:00:00	2024-11-08T19:00:00	5	Humedad	95
102545	7	Sololá	701	Sololá	4	Finca Santa Victoria	4	Abril	2023-04-21T00:00:00	2024-11-08T19:00:00	6	Velocidad del viento	0
102546	7	Sololá	701	Sololá	4	Finca Santa Victoria	4	Abril	2023-04-21T00:00:00	2024-11-08T19:00:00	7	Dirección del viento	0
102547	7	Sololá	701	Sololá	4	Finca Santa Victoria	4	Abril	2023-04-21T00:00:00	2024-11-08T19:00:00	1	Precipitación	0
102548	7	Sololá	701	Sololá	4	Finca Santa Victoria	4	Abril	2023-04-21T00:00:00	2024-11-08T19:00:00	8	Radiación solar	0
102549	7	Sololá	701	Sololá	4	Finca Santa Victoria	4	Abril	2023-04-21T00:00:00	2024-11-08T20:00:00	2	Temperatura media	14.1
102550	7	Sololá	701	Sololá	4	Finca Santa Victoria	4	Abril	2023-04-21T00:00:00	2024-11-08T20:00:00	4	Temperatura máxima	14.8
102551	7	Sololá	701	Sololá	4	Finca Santa Victoria	4	Abril	2023-04-21T00:00:00	2024-11-08T20:00:00	3	Temperatura mínima	14
102552	7	Sololá	701	Sololá	4	Finca Santa Victoria	4	Abril	2023-04-21T00:00:00	2024-11-08T20:00:00	5	Humedad	96
102553	7	Sololá	701	Sololá	4	Finca Santa Victoria	4	Abril	2023-04-21T00:00:00	2024-11-08T20:00:00	6	Velocidad del viento	0
102554	7	Sololá	701	Sololá	4	Finca Santa Victoria	4	Abril	2023-04-21T00:00:00	2024-11-08T20:00:00	7	Dirección del viento	0
102555	7	Sololá	701	Sololá	4	Finca Santa Victoria	4	Abril	2023-04-21T00:00:00	2024-11-08T20:00:00	1	Precipitación	0
102556	7	Sololá	701	Sololá	4	Finca Santa Victoria	4	Abril	2023-04-21T00:00:00	2024-11-08T20:00:00	8	Radiación solar	0
102557	7	Sololá	701	Sololá	4	Finca Santa Victoria	4	Abril	2023-04-21T00:00:00	2024-11-08T21:00:00	2	Temperatura media	14.1
102558	7	Sololá	701	Sololá	4	Finca Santa Victoria	4	Abril	2023-04-21T00:00:00	2024-11-08T21:00:00	4	Temperatura máxima	14.2
102559	7	Sololá	701	Sololá	4	Finca Santa Victoria	4	Abril	2023-04-21T00:00:00	2024-11-08T21:00:00	3	Temperatura mínima	13.9
102560	7	Sololá	701	Sololá	4	Finca Santa Victoria	4	Abril	2023-04-21T00:00:00	2024-11-08T21:00:00	5	Humedad	97
102561	7	Sololá	701	Sololá	4	Finca Santa Victoria	4	Abril	2023-04-21T00:00:00	2024-11-08T21:00:00	6	Velocidad del viento	0
102562	7	Sololá	701	Sololá	4	Finca Santa Victoria	4	Abril	2023-04-21T00:00:00	2024-11-08T21:00:00	7	Dirección del viento	0
102563	7	Sololá	701	Sololá	4	Finca Santa Victoria	4	Abril	2023-04-21T00:00:00	2024-11-08T21:00:00	1	Precipitación	0
102564	7	Sololá	701	Sololá	4	Finca Santa Victoria	4	Abril	2023-04-21T00:00:00	2024-11-08T21:00:00	8	Radiación solar	0
102565	7	Sololá	701	Sololá	4	Finca Santa Victoria	4	Abril	2023-04-21T00:00:00	2024-11-08T22:00:00	2	Temperatura media	14
102566	7	Sololá	701	Sololá	4	Finca Santa Victoria	4	Abril	2023-04-21T00:00:00	2024-11-08T22:00:00	4	Temperatura máxima	14.2
102567	7	Sololá	701	Sololá	4	Finca Santa Victoria	4	Abril	2023-04-21T00:00:00	2024-11-08T22:00:00	3	Temperatura mínima	13.8
102568	7	Sololá	701	Sololá	4	Finca Santa Victoria	4	Abril	2023-04-21T00:00:00	2024-11-08T22:00:00	5	Humedad	96
102569	7	Sololá	701	Sololá	4	Finca Santa Victoria	4	Abril	2023-04-21T00:00:00	2024-11-08T22:00:00	6	Velocidad del viento	1.6
102570	7	Sololá	701	Sololá	4	Finca Santa Victoria	4	Abril	2023-04-21T00:00:00	2024-11-08T22:00:00	7	Dirección del viento	1.61
102571	7	Sololá	701	Sololá	4	Finca Santa Victoria	4	Abril	2023-04-21T00:00:00	2024-11-08T22:00:00	1	Precipitación	0
102572	7	Sololá	701	Sololá	4	Finca Santa Victoria	4	Abril	2023-04-21T00:00:00	2024-11-08T22:00:00	8	Radiación solar	0
102573	7	Sololá	701	Sololá	4	Finca Santa Victoria	4	Abril	2023-04-21T00:00:00	2024-11-08T23:00:00	2	Temperatura media	14.2
102574	7	Sololá	701	Sololá	4	Finca Santa Victoria	4	Abril	2023-04-21T00:00:00	2024-11-08T23:00:00	4	Temperatura máxima	14.3
102575	7	Sololá	701	Sololá	4	Finca Santa Victoria	4	Abril	2023-04-21T00:00:00	2024-11-08T23:00:00	3	Temperatura mínima	13.8
102576	7	Sololá	701	Sololá	4	Finca Santa Victoria	4	Abril	2023-04-21T00:00:00	2024-11-08T23:00:00	5	Humedad	87
102577	7	Sololá	701	Sololá	4	Finca Santa Victoria	4	Abril	2023-04-21T00:00:00	2024-11-08T23:00:00	6	Velocidad del viento	1.6
102578	7	Sololá	701	Sololá	4	Finca Santa Victoria	4	Abril	2023-04-21T00:00:00	2024-11-08T23:00:00	7	Dirección del viento	1.61
102579	7	Sololá	701	Sololá	4	Finca Santa Victoria	4	Abril	2023-04-21T00:00:00	2024-11-08T23:00:00	1	Precipitación	0
102580	7	Sololá	701	Sololá	4	Finca Santa Victoria	4	Abril	2023-04-21T00:00:00	2024-11-08T23:00:00	8	Radiación solar	0
102581	7	Sololá	701	Sololá	4	Finca Santa Victoria	4	Abril	2023-04-22T00:00:00	2024-11-08T00:00:00	2	Temperatura media	14.2
102582	7	Sololá	701	Sololá	4	Finca Santa Victoria	4	Abril	2023-04-22T00:00:00	2024-11-08T00:00:00	4	Temperatura máxima	14.3
102583	7	Sololá	701	Sololá	4	Finca Santa Victoria	4	Abril	2023-04-22T00:00:00	2024-11-08T00:00:00	3	Temperatura mínima	13.9
102584	7	Sololá	701	Sololá	4	Finca Santa Victoria	4	Abril	2023-04-22T00:00:00	2024-11-08T00:00:00	5	Humedad	85
102585	7	Sololá	701	Sololá	4	Finca Santa Victoria	4	Abril	2023-04-22T00:00:00	2024-11-08T00:00:00	6	Velocidad del viento	1.6
102586	7	Sololá	701	Sololá	4	Finca Santa Victoria	4	Abril	2023-04-22T00:00:00	2024-11-08T00:00:00	7	Dirección del viento	1.61
102587	7	Sololá	701	Sololá	4	Finca Santa Victoria	4	Abril	2023-04-22T00:00:00	2024-11-08T00:00:00	1	Precipitación	0
102588	7	Sololá	701	Sololá	4	Finca Santa Victoria	4	Abril	2023-04-22T00:00:00	2024-11-08T00:00:00	8	Radiación solar	0
102589	7	Sololá	701	Sololá	4	Finca Santa Victoria	4	Abril	2023-04-22T00:00:00	2024-11-08T01:00:00	2	Temperatura media	13.8
102590	7	Sololá	701	Sololá	4	Finca Santa Victoria	4	Abril	2023-04-22T00:00:00	2024-11-08T01:00:00	4	Temperatura máxima	14.2
102591	7	Sololá	701	Sololá	4	Finca Santa Victoria	4	Abril	2023-04-22T00:00:00	2024-11-08T01:00:00	3	Temperatura mínima	13.7
102592	7	Sololá	701	Sololá	4	Finca Santa Victoria	4	Abril	2023-04-22T00:00:00	2024-11-08T01:00:00	5	Humedad	82
102593	7	Sololá	701	Sololá	4	Finca Santa Victoria	4	Abril	2023-04-22T00:00:00	2024-11-08T01:00:00	6	Velocidad del viento	1.6
102594	7	Sololá	701	Sololá	4	Finca Santa Victoria	4	Abril	2023-04-22T00:00:00	2024-11-08T01:00:00	7	Dirección del viento	1.61
102595	7	Sololá	701	Sololá	4	Finca Santa Victoria	4	Abril	2023-04-22T00:00:00	2024-11-08T01:00:00	1	Precipitación	0
102596	7	Sololá	701	Sololá	4	Finca Santa Victoria	4	Abril	2023-04-22T00:00:00	2024-11-08T01:00:00	8	Radiación solar	0
102597	7	Sololá	701	Sololá	4	Finca Santa Victoria	4	Abril	2023-04-22T00:00:00	2024-11-08T02:00:00	2	Temperatura media	13.4
102598	7	Sololá	701	Sololá	4	Finca Santa Victoria	4	Abril	2023-04-22T00:00:00	2024-11-08T02:00:00	4	Temperatura máxima	14.1
102599	7	Sololá	701	Sololá	4	Finca Santa Victoria	4	Abril	2023-04-22T00:00:00	2024-11-08T02:00:00	3	Temperatura mínima	13.4
102600	7	Sololá	701	Sololá	4	Finca Santa Victoria	4	Abril	2023-04-22T00:00:00	2024-11-08T02:00:00	5	Humedad	83
102601	7	Sololá	701	Sololá	4	Finca Santa Victoria	4	Abril	2023-04-22T00:00:00	2024-11-08T02:00:00	6	Velocidad del viento	1.6
102602	7	Sololá	701	Sololá	4	Finca Santa Victoria	4	Abril	2023-04-22T00:00:00	2024-11-08T02:00:00	7	Dirección del viento	1.61
102603	7	Sololá	701	Sololá	4	Finca Santa Victoria	4	Abril	2023-04-22T00:00:00	2024-11-08T02:00:00	1	Precipitación	0
102604	7	Sololá	701	Sololá	4	Finca Santa Victoria	4	Abril	2023-04-22T00:00:00	2024-11-08T02:00:00	8	Radiación solar	0
102605	7	Sololá	701	Sololá	4	Finca Santa Victoria	4	Abril	2023-04-22T00:00:00	2024-11-08T03:00:00	2	Temperatura media	13.1
102606	7	Sololá	701	Sololá	4	Finca Santa Victoria	4	Abril	2023-04-22T00:00:00	2024-11-08T03:00:00	4	Temperatura máxima	13.6
102607	7	Sololá	701	Sololá	4	Finca Santa Victoria	4	Abril	2023-04-22T00:00:00	2024-11-08T03:00:00	3	Temperatura mínima	13
102608	7	Sololá	701	Sololá	4	Finca Santa Victoria	4	Abril	2023-04-22T00:00:00	2024-11-08T03:00:00	5	Humedad	84
102609	7	Sololá	701	Sololá	4	Finca Santa Victoria	4	Abril	2023-04-22T00:00:00	2024-11-08T03:00:00	6	Velocidad del viento	0
102610	7	Sololá	701	Sololá	4	Finca Santa Victoria	4	Abril	2023-04-22T00:00:00	2024-11-08T03:00:00	7	Dirección del viento	0
102611	7	Sololá	701	Sololá	4	Finca Santa Victoria	4	Abril	2023-04-22T00:00:00	2024-11-08T03:00:00	1	Precipitación	0
102612	7	Sololá	701	Sololá	4	Finca Santa Victoria	4	Abril	2023-04-22T00:00:00	2024-11-08T03:00:00	8	Radiación solar	0
102613	7	Sololá	701	Sololá	4	Finca Santa Victoria	4	Abril	2023-04-22T00:00:00	2024-11-08T04:00:00	2	Temperatura media	12.9
102614	7	Sololá	701	Sololá	4	Finca Santa Victoria	4	Abril	2023-04-22T00:00:00	2024-11-08T04:00:00	4	Temperatura máxima	13.1
102615	7	Sololá	701	Sololá	4	Finca Santa Victoria	4	Abril	2023-04-22T00:00:00	2024-11-08T04:00:00	3	Temperatura mínima	12.9
102616	7	Sololá	701	Sololá	4	Finca Santa Victoria	4	Abril	2023-04-22T00:00:00	2024-11-08T04:00:00	5	Humedad	84
102617	7	Sololá	701	Sololá	4	Finca Santa Victoria	4	Abril	2023-04-22T00:00:00	2024-11-08T04:00:00	6	Velocidad del viento	0
102618	7	Sololá	701	Sololá	4	Finca Santa Victoria	4	Abril	2023-04-22T00:00:00	2024-11-08T04:00:00	7	Dirección del viento	0
102619	7	Sololá	701	Sololá	4	Finca Santa Victoria	4	Abril	2023-04-22T00:00:00	2024-11-08T04:00:00	1	Precipitación	0
102620	7	Sololá	701	Sololá	4	Finca Santa Victoria	4	Abril	2023-04-22T00:00:00	2024-11-08T04:00:00	8	Radiación solar	0
102621	7	Sololá	701	Sololá	4	Finca Santa Victoria	4	Abril	2023-04-22T00:00:00	2024-11-08T05:00:00	2	Temperatura media	12.9
102622	7	Sololá	701	Sololá	4	Finca Santa Victoria	4	Abril	2023-04-22T00:00:00	2024-11-08T05:00:00	4	Temperatura máxima	13
102623	7	Sololá	701	Sololá	4	Finca Santa Victoria	4	Abril	2023-04-22T00:00:00	2024-11-08T05:00:00	3	Temperatura mínima	12.6
102624	7	Sololá	701	Sololá	4	Finca Santa Victoria	4	Abril	2023-04-22T00:00:00	2024-11-08T05:00:00	5	Humedad	82
102625	7	Sololá	701	Sololá	4	Finca Santa Victoria	4	Abril	2023-04-22T00:00:00	2024-11-08T05:00:00	6	Velocidad del viento	0
102626	7	Sololá	701	Sololá	4	Finca Santa Victoria	4	Abril	2023-04-22T00:00:00	2024-11-08T05:00:00	7	Dirección del viento	0
102627	7	Sololá	701	Sololá	4	Finca Santa Victoria	4	Abril	2023-04-22T00:00:00	2024-11-08T05:00:00	1	Precipitación	0
102628	7	Sololá	701	Sololá	4	Finca Santa Victoria	4	Abril	2023-04-22T00:00:00	2024-11-08T05:00:00	8	Radiación solar	0
102629	7	Sololá	701	Sololá	4	Finca Santa Victoria	4	Abril	2023-04-22T00:00:00	2024-11-08T06:00:00	2	Temperatura media	13.1
102630	7	Sololá	701	Sololá	4	Finca Santa Victoria	4	Abril	2023-04-22T00:00:00	2024-11-08T06:00:00	4	Temperatura máxima	13.1
102631	7	Sololá	701	Sololá	4	Finca Santa Victoria	4	Abril	2023-04-22T00:00:00	2024-11-08T06:00:00	3	Temperatura mínima	12.8
102632	7	Sololá	701	Sololá	4	Finca Santa Victoria	4	Abril	2023-04-22T00:00:00	2024-11-08T06:00:00	5	Humedad	81
102633	7	Sololá	701	Sololá	4	Finca Santa Victoria	4	Abril	2023-04-22T00:00:00	2024-11-08T06:00:00	6	Velocidad del viento	1.6
102634	7	Sololá	701	Sololá	4	Finca Santa Victoria	4	Abril	2023-04-22T00:00:00	2024-11-08T06:00:00	7	Dirección del viento	1.61
102635	7	Sololá	701	Sololá	4	Finca Santa Victoria	4	Abril	2023-04-22T00:00:00	2024-11-08T06:00:00	1	Precipitación	0
102636	7	Sololá	701	Sololá	4	Finca Santa Victoria	4	Abril	2023-04-22T00:00:00	2024-11-08T06:00:00	8	Radiación solar	1
102637	7	Sololá	701	Sololá	4	Finca Santa Victoria	4	Abril	2023-04-22T00:00:00	2024-11-08T07:00:00	2	Temperatura media	14.2
102638	7	Sololá	701	Sololá	4	Finca Santa Victoria	4	Abril	2023-04-22T00:00:00	2024-11-08T07:00:00	4	Temperatura máxima	14.3
102639	7	Sololá	701	Sololá	4	Finca Santa Victoria	4	Abril	2023-04-22T00:00:00	2024-11-08T07:00:00	3	Temperatura mínima	13.1
102640	7	Sololá	701	Sololá	4	Finca Santa Victoria	4	Abril	2023-04-22T00:00:00	2024-11-08T07:00:00	5	Humedad	76
102641	7	Sololá	701	Sololá	4	Finca Santa Victoria	4	Abril	2023-04-22T00:00:00	2024-11-08T07:00:00	6	Velocidad del viento	1.6
102642	7	Sololá	701	Sololá	4	Finca Santa Victoria	4	Abril	2023-04-22T00:00:00	2024-11-08T07:00:00	7	Dirección del viento	1.61
102643	7	Sololá	701	Sololá	4	Finca Santa Victoria	4	Abril	2023-04-22T00:00:00	2024-11-08T07:00:00	1	Precipitación	0
102644	7	Sololá	701	Sololá	4	Finca Santa Victoria	4	Abril	2023-04-22T00:00:00	2024-11-08T07:00:00	8	Radiación solar	22
102645	7	Sololá	701	Sololá	4	Finca Santa Victoria	4	Abril	2023-04-22T00:00:00	2024-11-08T08:00:00	2	Temperatura media	18.7
102646	7	Sololá	701	Sololá	4	Finca Santa Victoria	4	Abril	2023-04-22T00:00:00	2024-11-08T08:00:00	4	Temperatura máxima	18.7
102647	7	Sololá	701	Sololá	4	Finca Santa Victoria	4	Abril	2023-04-22T00:00:00	2024-11-08T08:00:00	3	Temperatura mínima	14.2
102648	7	Sololá	701	Sololá	4	Finca Santa Victoria	4	Abril	2023-04-22T00:00:00	2024-11-08T08:00:00	5	Humedad	60
102649	7	Sololá	701	Sololá	4	Finca Santa Victoria	4	Abril	2023-04-22T00:00:00	2024-11-08T08:00:00	6	Velocidad del viento	1.6
102650	7	Sololá	701	Sololá	4	Finca Santa Victoria	4	Abril	2023-04-22T00:00:00	2024-11-08T08:00:00	7	Dirección del viento	1.61
102651	7	Sololá	701	Sololá	4	Finca Santa Victoria	4	Abril	2023-04-22T00:00:00	2024-11-08T08:00:00	1	Precipitación	0
102652	7	Sololá	701	Sololá	4	Finca Santa Victoria	4	Abril	2023-04-22T00:00:00	2024-11-08T08:00:00	8	Radiación solar	260
102653	7	Sololá	701	Sololá	4	Finca Santa Victoria	4	Abril	2023-04-22T00:00:00	2024-11-08T09:00:00	2	Temperatura media	20.4
102654	7	Sololá	701	Sololá	4	Finca Santa Victoria	4	Abril	2023-04-22T00:00:00	2024-11-08T09:00:00	4	Temperatura máxima	20.4
102655	7	Sololá	701	Sololá	4	Finca Santa Victoria	4	Abril	2023-04-22T00:00:00	2024-11-08T09:00:00	3	Temperatura mínima	18.7
102656	7	Sololá	701	Sololá	4	Finca Santa Victoria	4	Abril	2023-04-22T00:00:00	2024-11-08T09:00:00	5	Humedad	49
102657	7	Sololá	701	Sololá	4	Finca Santa Victoria	4	Abril	2023-04-22T00:00:00	2024-11-08T09:00:00	6	Velocidad del viento	3.2
102658	7	Sololá	701	Sololá	4	Finca Santa Victoria	4	Abril	2023-04-22T00:00:00	2024-11-08T09:00:00	7	Dirección del viento	3.22
102659	7	Sololá	701	Sololá	4	Finca Santa Victoria	4	Abril	2023-04-22T00:00:00	2024-11-08T09:00:00	1	Precipitación	0
102660	7	Sololá	701	Sololá	4	Finca Santa Victoria	4	Abril	2023-04-22T00:00:00	2024-11-08T09:00:00	8	Radiación solar	492
102661	7	Sololá	701	Sololá	4	Finca Santa Victoria	4	Abril	2023-04-22T00:00:00	2024-11-08T10:00:00	2	Temperatura media	22.2
102662	7	Sololá	701	Sololá	4	Finca Santa Victoria	4	Abril	2023-04-22T00:00:00	2024-11-08T10:00:00	4	Temperatura máxima	22.2
102663	7	Sololá	701	Sololá	4	Finca Santa Victoria	4	Abril	2023-04-22T00:00:00	2024-11-08T10:00:00	3	Temperatura mínima	20.4
102664	7	Sololá	701	Sololá	4	Finca Santa Victoria	4	Abril	2023-04-22T00:00:00	2024-11-08T10:00:00	5	Humedad	39
102665	7	Sololá	701	Sololá	4	Finca Santa Victoria	4	Abril	2023-04-22T00:00:00	2024-11-08T10:00:00	6	Velocidad del viento	3.2
102666	7	Sololá	701	Sololá	4	Finca Santa Victoria	4	Abril	2023-04-22T00:00:00	2024-11-08T10:00:00	7	Dirección del viento	3.22
102667	7	Sololá	701	Sololá	4	Finca Santa Victoria	4	Abril	2023-04-22T00:00:00	2024-11-08T10:00:00	1	Precipitación	0
102668	7	Sololá	701	Sololá	4	Finca Santa Victoria	4	Abril	2023-04-22T00:00:00	2024-11-08T10:00:00	8	Radiación solar	249
102669	7	Sololá	701	Sololá	4	Finca Santa Victoria	4	Abril	2023-04-22T00:00:00	2024-11-08T11:00:00	2	Temperatura media	24.1
102670	7	Sololá	701	Sololá	4	Finca Santa Victoria	4	Abril	2023-04-22T00:00:00	2024-11-08T11:00:00	4	Temperatura máxima	24.1
102671	7	Sololá	701	Sololá	4	Finca Santa Victoria	4	Abril	2023-04-22T00:00:00	2024-11-08T11:00:00	3	Temperatura mínima	22.2
102672	7	Sololá	701	Sololá	4	Finca Santa Victoria	4	Abril	2023-04-22T00:00:00	2024-11-08T11:00:00	5	Humedad	35
102673	7	Sololá	701	Sololá	4	Finca Santa Victoria	4	Abril	2023-04-22T00:00:00	2024-11-08T11:00:00	6	Velocidad del viento	3.2
102674	7	Sololá	701	Sololá	4	Finca Santa Victoria	4	Abril	2023-04-22T00:00:00	2024-11-08T11:00:00	7	Dirección del viento	3.22
102675	7	Sololá	701	Sololá	4	Finca Santa Victoria	4	Abril	2023-04-22T00:00:00	2024-11-08T11:00:00	1	Precipitación	0
102676	7	Sololá	701	Sololá	4	Finca Santa Victoria	4	Abril	2023-04-22T00:00:00	2024-11-08T11:00:00	8	Radiación solar	927
102677	7	Sololá	701	Sololá	4	Finca Santa Victoria	4	Abril	2023-04-22T00:00:00	2024-11-08T12:00:00	2	Temperatura media	22.7
102678	7	Sololá	701	Sololá	4	Finca Santa Victoria	4	Abril	2023-04-22T00:00:00	2024-11-08T12:00:00	4	Temperatura máxima	24.7
102679	7	Sololá	701	Sololá	4	Finca Santa Victoria	4	Abril	2023-04-22T00:00:00	2024-11-08T12:00:00	3	Temperatura mínima	22.4
102680	7	Sololá	701	Sololá	4	Finca Santa Victoria	4	Abril	2023-04-22T00:00:00	2024-11-08T12:00:00	5	Humedad	61
102681	7	Sololá	701	Sololá	4	Finca Santa Victoria	4	Abril	2023-04-22T00:00:00	2024-11-08T12:00:00	6	Velocidad del viento	3.2
102682	7	Sololá	701	Sololá	4	Finca Santa Victoria	4	Abril	2023-04-22T00:00:00	2024-11-08T12:00:00	7	Dirección del viento	3.22
102683	7	Sololá	701	Sololá	4	Finca Santa Victoria	4	Abril	2023-04-22T00:00:00	2024-11-08T12:00:00	1	Precipitación	0
102684	7	Sololá	701	Sololá	4	Finca Santa Victoria	4	Abril	2023-04-22T00:00:00	2024-11-08T12:00:00	8	Radiación solar	980
102685	7	Sololá	701	Sololá	4	Finca Santa Victoria	4	Abril	2023-04-22T00:00:00	2024-11-08T13:00:00	2	Temperatura media	21.4
102686	7	Sololá	701	Sololá	4	Finca Santa Victoria	4	Abril	2023-04-22T00:00:00	2024-11-08T13:00:00	4	Temperatura máxima	22.7
102687	7	Sololá	701	Sololá	4	Finca Santa Victoria	4	Abril	2023-04-22T00:00:00	2024-11-08T13:00:00	3	Temperatura mínima	21.4
102688	7	Sololá	701	Sololá	4	Finca Santa Victoria	4	Abril	2023-04-22T00:00:00	2024-11-08T13:00:00	5	Humedad	70
102689	7	Sololá	701	Sololá	4	Finca Santa Victoria	4	Abril	2023-04-22T00:00:00	2024-11-08T13:00:00	6	Velocidad del viento	4.8
102690	7	Sololá	701	Sololá	4	Finca Santa Victoria	4	Abril	2023-04-22T00:00:00	2024-11-08T13:00:00	7	Dirección del viento	4.83
102691	7	Sololá	701	Sololá	4	Finca Santa Victoria	4	Abril	2023-04-22T00:00:00	2024-11-08T13:00:00	1	Precipitación	0
102692	7	Sololá	701	Sololá	4	Finca Santa Victoria	4	Abril	2023-04-22T00:00:00	2024-11-08T13:00:00	8	Radiación solar	882
102693	7	Sololá	701	Sololá	4	Finca Santa Victoria	4	Abril	2023-04-22T00:00:00	2024-11-08T14:00:00	2	Temperatura media	20.3
102694	7	Sololá	701	Sololá	4	Finca Santa Victoria	4	Abril	2023-04-22T00:00:00	2024-11-08T14:00:00	4	Temperatura máxima	21.3
102695	7	Sololá	701	Sololá	4	Finca Santa Victoria	4	Abril	2023-04-22T00:00:00	2024-11-08T14:00:00	3	Temperatura mínima	20.3
102696	7	Sololá	701	Sololá	4	Finca Santa Victoria	4	Abril	2023-04-22T00:00:00	2024-11-08T14:00:00	5	Humedad	76
102697	7	Sololá	701	Sololá	4	Finca Santa Victoria	4	Abril	2023-04-22T00:00:00	2024-11-08T14:00:00	6	Velocidad del viento	6.4
102698	7	Sololá	701	Sololá	4	Finca Santa Victoria	4	Abril	2023-04-22T00:00:00	2024-11-08T14:00:00	7	Dirección del viento	6.44
102699	7	Sololá	701	Sololá	4	Finca Santa Victoria	4	Abril	2023-04-22T00:00:00	2024-11-08T14:00:00	1	Precipitación	0
102700	7	Sololá	701	Sololá	4	Finca Santa Victoria	4	Abril	2023-04-22T00:00:00	2024-11-08T14:00:00	8	Radiación solar	294
102701	7	Sololá	701	Sololá	4	Finca Santa Victoria	4	Abril	2023-04-22T00:00:00	2024-11-08T15:00:00	2	Temperatura media	18.2
102702	7	Sololá	701	Sololá	4	Finca Santa Victoria	4	Abril	2023-04-22T00:00:00	2024-11-08T15:00:00	4	Temperatura máxima	20.3
102703	7	Sololá	701	Sololá	4	Finca Santa Victoria	4	Abril	2023-04-22T00:00:00	2024-11-08T15:00:00	3	Temperatura mínima	18.2
102704	7	Sololá	701	Sololá	4	Finca Santa Victoria	4	Abril	2023-04-22T00:00:00	2024-11-08T15:00:00	5	Humedad	87
102705	7	Sololá	701	Sololá	4	Finca Santa Victoria	4	Abril	2023-04-22T00:00:00	2024-11-08T15:00:00	6	Velocidad del viento	4.8
102706	7	Sololá	701	Sololá	4	Finca Santa Victoria	4	Abril	2023-04-22T00:00:00	2024-11-08T15:00:00	7	Dirección del viento	4.83
102707	7	Sololá	701	Sololá	4	Finca Santa Victoria	4	Abril	2023-04-22T00:00:00	2024-11-08T15:00:00	1	Precipitación	0
102708	7	Sololá	701	Sololá	4	Finca Santa Victoria	4	Abril	2023-04-22T00:00:00	2024-11-08T15:00:00	8	Radiación solar	195
102709	7	Sololá	701	Sololá	4	Finca Santa Victoria	4	Abril	2023-04-22T00:00:00	2024-11-08T16:00:00	2	Temperatura media	17.3
102710	7	Sololá	701	Sololá	4	Finca Santa Victoria	4	Abril	2023-04-22T00:00:00	2024-11-08T16:00:00	4	Temperatura máxima	18.2
102711	7	Sololá	701	Sololá	4	Finca Santa Victoria	4	Abril	2023-04-22T00:00:00	2024-11-08T16:00:00	3	Temperatura mínima	17.2
102712	7	Sololá	701	Sololá	4	Finca Santa Victoria	4	Abril	2023-04-22T00:00:00	2024-11-08T16:00:00	5	Humedad	91
102713	7	Sololá	701	Sololá	4	Finca Santa Victoria	4	Abril	2023-04-22T00:00:00	2024-11-08T16:00:00	6	Velocidad del viento	4.8
102714	7	Sololá	701	Sololá	4	Finca Santa Victoria	4	Abril	2023-04-22T00:00:00	2024-11-08T16:00:00	7	Dirección del viento	4.83
102715	7	Sololá	701	Sololá	4	Finca Santa Victoria	4	Abril	2023-04-22T00:00:00	2024-11-08T16:00:00	1	Precipitación	0
102716	7	Sololá	701	Sololá	4	Finca Santa Victoria	4	Abril	2023-04-22T00:00:00	2024-11-08T16:00:00	8	Radiación solar	107
102717	7	Sololá	701	Sololá	4	Finca Santa Victoria	4	Abril	2023-04-22T00:00:00	2024-11-08T17:00:00	2	Temperatura media	16.5
102718	7	Sololá	701	Sololá	4	Finca Santa Victoria	4	Abril	2023-04-22T00:00:00	2024-11-08T17:00:00	4	Temperatura máxima	17.6
102719	7	Sololá	701	Sololá	4	Finca Santa Victoria	4	Abril	2023-04-22T00:00:00	2024-11-08T17:00:00	3	Temperatura mínima	16.5
102720	7	Sololá	701	Sololá	4	Finca Santa Victoria	4	Abril	2023-04-22T00:00:00	2024-11-08T17:00:00	5	Humedad	95
102721	7	Sololá	701	Sololá	4	Finca Santa Victoria	4	Abril	2023-04-22T00:00:00	2024-11-08T17:00:00	6	Velocidad del viento	3.2
102722	7	Sololá	701	Sololá	4	Finca Santa Victoria	4	Abril	2023-04-22T00:00:00	2024-11-08T17:00:00	7	Dirección del viento	3.22
102723	7	Sololá	701	Sololá	4	Finca Santa Victoria	4	Abril	2023-04-22T00:00:00	2024-11-08T17:00:00	1	Precipitación	0
102724	7	Sololá	701	Sololá	4	Finca Santa Victoria	4	Abril	2023-04-22T00:00:00	2024-11-08T17:00:00	8	Radiación solar	43
102725	7	Sololá	701	Sololá	4	Finca Santa Victoria	4	Abril	2023-04-22T00:00:00	2024-11-08T18:00:00	2	Temperatura media	16.2
102726	7	Sololá	701	Sololá	4	Finca Santa Victoria	4	Abril	2023-04-22T00:00:00	2024-11-08T18:00:00	4	Temperatura máxima	16.5
102727	7	Sololá	701	Sololá	4	Finca Santa Victoria	4	Abril	2023-04-22T00:00:00	2024-11-08T18:00:00	3	Temperatura mínima	16.2
102728	7	Sololá	701	Sololá	4	Finca Santa Victoria	4	Abril	2023-04-22T00:00:00	2024-11-08T18:00:00	5	Humedad	95
102729	7	Sololá	701	Sololá	4	Finca Santa Victoria	4	Abril	2023-04-22T00:00:00	2024-11-08T18:00:00	6	Velocidad del viento	1.6
102730	7	Sololá	701	Sololá	4	Finca Santa Victoria	4	Abril	2023-04-22T00:00:00	2024-11-08T18:00:00	7	Dirección del viento	1.61
102731	7	Sololá	701	Sololá	4	Finca Santa Victoria	4	Abril	2023-04-22T00:00:00	2024-11-08T18:00:00	1	Precipitación	0
102732	7	Sololá	701	Sololá	4	Finca Santa Victoria	4	Abril	2023-04-22T00:00:00	2024-11-08T18:00:00	8	Radiación solar	17
102733	7	Sololá	701	Sololá	4	Finca Santa Victoria	4	Abril	2023-04-22T00:00:00	2024-11-08T19:00:00	2	Temperatura media	15.9
102734	7	Sololá	701	Sololá	4	Finca Santa Victoria	4	Abril	2023-04-22T00:00:00	2024-11-08T19:00:00	4	Temperatura máxima	16.2
102735	7	Sololá	701	Sololá	4	Finca Santa Victoria	4	Abril	2023-04-22T00:00:00	2024-11-08T19:00:00	3	Temperatura mínima	15.8
102736	7	Sololá	701	Sololá	4	Finca Santa Victoria	4	Abril	2023-04-22T00:00:00	2024-11-08T19:00:00	5	Humedad	91
102737	7	Sololá	701	Sololá	4	Finca Santa Victoria	4	Abril	2023-04-22T00:00:00	2024-11-08T19:00:00	6	Velocidad del viento	0
102738	7	Sololá	701	Sololá	4	Finca Santa Victoria	4	Abril	2023-04-22T00:00:00	2024-11-08T19:00:00	7	Dirección del viento	0
102739	7	Sololá	701	Sololá	4	Finca Santa Victoria	4	Abril	2023-04-22T00:00:00	2024-11-08T19:00:00	1	Precipitación	0
102740	7	Sololá	701	Sololá	4	Finca Santa Victoria	4	Abril	2023-04-22T00:00:00	2024-11-08T19:00:00	8	Radiación solar	0
102741	7	Sololá	701	Sololá	4	Finca Santa Victoria	4	Abril	2023-04-22T00:00:00	2024-11-08T20:00:00	2	Temperatura media	15.3
102742	7	Sololá	701	Sololá	4	Finca Santa Victoria	4	Abril	2023-04-22T00:00:00	2024-11-08T20:00:00	4	Temperatura máxima	15.9
102743	7	Sololá	701	Sololá	4	Finca Santa Victoria	4	Abril	2023-04-22T00:00:00	2024-11-08T20:00:00	3	Temperatura mínima	15.1
102744	7	Sololá	701	Sololá	4	Finca Santa Victoria	4	Abril	2023-04-22T00:00:00	2024-11-08T20:00:00	5	Humedad	96
102745	7	Sololá	701	Sololá	4	Finca Santa Victoria	4	Abril	2023-04-22T00:00:00	2024-11-08T20:00:00	6	Velocidad del viento	0
102746	7	Sololá	701	Sololá	4	Finca Santa Victoria	4	Abril	2023-04-22T00:00:00	2024-11-08T20:00:00	7	Dirección del viento	0
102747	7	Sololá	701	Sololá	4	Finca Santa Victoria	4	Abril	2023-04-22T00:00:00	2024-11-08T20:00:00	1	Precipitación	0
102748	7	Sololá	701	Sololá	4	Finca Santa Victoria	4	Abril	2023-04-22T00:00:00	2024-11-08T20:00:00	8	Radiación solar	0
102749	7	Sololá	701	Sololá	4	Finca Santa Victoria	4	Abril	2023-04-22T00:00:00	2024-11-08T21:00:00	2	Temperatura media	15.3
102750	7	Sololá	701	Sololá	4	Finca Santa Victoria	4	Abril	2023-04-22T00:00:00	2024-11-08T21:00:00	4	Temperatura máxima	15.3
102751	7	Sololá	701	Sololá	4	Finca Santa Victoria	4	Abril	2023-04-22T00:00:00	2024-11-08T21:00:00	3	Temperatura mínima	14.8
102752	7	Sololá	701	Sololá	4	Finca Santa Victoria	4	Abril	2023-04-22T00:00:00	2024-11-08T21:00:00	5	Humedad	91
102753	7	Sololá	701	Sololá	4	Finca Santa Victoria	4	Abril	2023-04-22T00:00:00	2024-11-08T21:00:00	6	Velocidad del viento	0
102754	7	Sololá	701	Sololá	4	Finca Santa Victoria	4	Abril	2023-04-22T00:00:00	2024-11-08T21:00:00	7	Dirección del viento	0
102755	7	Sololá	701	Sololá	4	Finca Santa Victoria	4	Abril	2023-04-22T00:00:00	2024-11-08T21:00:00	1	Precipitación	0
102756	7	Sololá	701	Sololá	4	Finca Santa Victoria	4	Abril	2023-04-22T00:00:00	2024-11-08T21:00:00	8	Radiación solar	0
102757	7	Sololá	701	Sololá	4	Finca Santa Victoria	4	Abril	2023-04-22T00:00:00	2024-11-08T22:00:00	2	Temperatura media	14.7
102758	7	Sololá	701	Sololá	4	Finca Santa Victoria	4	Abril	2023-04-22T00:00:00	2024-11-08T22:00:00	4	Temperatura máxima	15.3
102759	7	Sololá	701	Sololá	4	Finca Santa Victoria	4	Abril	2023-04-22T00:00:00	2024-11-08T22:00:00	3	Temperatura mínima	14.7
102760	7	Sololá	701	Sololá	4	Finca Santa Victoria	4	Abril	2023-04-22T00:00:00	2024-11-08T22:00:00	5	Humedad	95
102761	7	Sololá	701	Sololá	4	Finca Santa Victoria	4	Abril	2023-04-22T00:00:00	2024-11-08T22:00:00	6	Velocidad del viento	0
102762	7	Sololá	701	Sololá	4	Finca Santa Victoria	4	Abril	2023-04-22T00:00:00	2024-11-08T22:00:00	7	Dirección del viento	0
102763	7	Sololá	701	Sololá	4	Finca Santa Victoria	4	Abril	2023-04-22T00:00:00	2024-11-08T22:00:00	1	Precipitación	0
102764	7	Sololá	701	Sololá	4	Finca Santa Victoria	4	Abril	2023-04-22T00:00:00	2024-11-08T22:00:00	8	Radiación solar	0
102765	7	Sololá	701	Sololá	4	Finca Santa Victoria	4	Abril	2023-04-22T00:00:00	2024-11-08T23:00:00	2	Temperatura media	14.2
102766	7	Sololá	701	Sololá	4	Finca Santa Victoria	4	Abril	2023-04-22T00:00:00	2024-11-08T23:00:00	4	Temperatura máxima	14.7
102767	7	Sololá	701	Sololá	4	Finca Santa Victoria	4	Abril	2023-04-22T00:00:00	2024-11-08T23:00:00	3	Temperatura mínima	14.2
102768	7	Sololá	701	Sololá	4	Finca Santa Victoria	4	Abril	2023-04-22T00:00:00	2024-11-08T23:00:00	5	Humedad	94
102769	7	Sololá	701	Sololá	4	Finca Santa Victoria	4	Abril	2023-04-22T00:00:00	2024-11-08T23:00:00	6	Velocidad del viento	0
102770	7	Sololá	701	Sololá	4	Finca Santa Victoria	4	Abril	2023-04-22T00:00:00	2024-11-08T23:00:00	7	Dirección del viento	0
102771	7	Sololá	701	Sololá	4	Finca Santa Victoria	4	Abril	2023-04-22T00:00:00	2024-11-08T23:00:00	1	Precipitación	0
102772	7	Sololá	701	Sololá	4	Finca Santa Victoria	4	Abril	2023-04-22T00:00:00	2024-11-08T23:00:00	8	Radiación solar	0
102773	7	Sololá	701	Sololá	4	Finca Santa Victoria	4	Abril	2023-04-23T00:00:00	2024-11-08T00:00:00	2	Temperatura media	13.6
102774	7	Sololá	701	Sololá	4	Finca Santa Victoria	4	Abril	2023-04-23T00:00:00	2024-11-08T00:00:00	4	Temperatura máxima	14.2
102775	7	Sololá	701	Sololá	4	Finca Santa Victoria	4	Abril	2023-04-23T00:00:00	2024-11-08T00:00:00	3	Temperatura mínima	13.6
102776	7	Sololá	701	Sololá	4	Finca Santa Victoria	4	Abril	2023-04-23T00:00:00	2024-11-08T00:00:00	5	Humedad	92
102777	7	Sololá	701	Sololá	4	Finca Santa Victoria	4	Abril	2023-04-23T00:00:00	2024-11-08T00:00:00	6	Velocidad del viento	1.6
102778	7	Sololá	701	Sololá	4	Finca Santa Victoria	4	Abril	2023-04-23T00:00:00	2024-11-08T00:00:00	7	Dirección del viento	1.61
102779	7	Sololá	701	Sololá	4	Finca Santa Victoria	4	Abril	2023-04-23T00:00:00	2024-11-08T00:00:00	1	Precipitación	0
102780	7	Sololá	701	Sololá	4	Finca Santa Victoria	4	Abril	2023-04-23T00:00:00	2024-11-08T00:00:00	8	Radiación solar	0
102781	7	Sololá	701	Sololá	4	Finca Santa Victoria	4	Abril	2023-04-23T00:00:00	2024-11-08T01:00:00	2	Temperatura media	13.7
102782	7	Sololá	701	Sololá	4	Finca Santa Victoria	4	Abril	2023-04-23T00:00:00	2024-11-08T01:00:00	4	Temperatura máxima	13.8
102783	7	Sololá	701	Sololá	4	Finca Santa Victoria	4	Abril	2023-04-23T00:00:00	2024-11-08T01:00:00	3	Temperatura mínima	13.6
102784	7	Sololá	701	Sololá	4	Finca Santa Victoria	4	Abril	2023-04-23T00:00:00	2024-11-08T01:00:00	5	Humedad	89
102785	7	Sololá	701	Sololá	4	Finca Santa Victoria	4	Abril	2023-04-23T00:00:00	2024-11-08T01:00:00	6	Velocidad del viento	0
102786	7	Sololá	701	Sololá	4	Finca Santa Victoria	4	Abril	2023-04-23T00:00:00	2024-11-08T01:00:00	7	Dirección del viento	0
102787	7	Sololá	701	Sololá	4	Finca Santa Victoria	4	Abril	2023-04-23T00:00:00	2024-11-08T01:00:00	1	Precipitación	0
102788	7	Sololá	701	Sololá	4	Finca Santa Victoria	4	Abril	2023-04-23T00:00:00	2024-11-08T01:00:00	8	Radiación solar	0
102789	7	Sololá	701	Sololá	4	Finca Santa Victoria	4	Abril	2023-04-23T00:00:00	2024-11-08T02:00:00	2	Temperatura media	13.5
102790	7	Sololá	701	Sololá	4	Finca Santa Victoria	4	Abril	2023-04-23T00:00:00	2024-11-08T02:00:00	4	Temperatura máxima	13.7
102791	7	Sololá	701	Sololá	4	Finca Santa Victoria	4	Abril	2023-04-23T00:00:00	2024-11-08T02:00:00	3	Temperatura mínima	13.3
102792	7	Sololá	701	Sololá	4	Finca Santa Victoria	4	Abril	2023-04-23T00:00:00	2024-11-08T02:00:00	5	Humedad	87
102793	7	Sololá	701	Sololá	4	Finca Santa Victoria	4	Abril	2023-04-23T00:00:00	2024-11-08T02:00:00	6	Velocidad del viento	1.6
102794	7	Sololá	701	Sololá	4	Finca Santa Victoria	4	Abril	2023-04-23T00:00:00	2024-11-08T02:00:00	7	Dirección del viento	1.61
102795	7	Sololá	701	Sololá	4	Finca Santa Victoria	4	Abril	2023-04-23T00:00:00	2024-11-08T02:00:00	1	Precipitación	0
102796	7	Sololá	701	Sololá	4	Finca Santa Victoria	4	Abril	2023-04-23T00:00:00	2024-11-08T02:00:00	8	Radiación solar	0
102797	7	Sololá	701	Sololá	4	Finca Santa Victoria	4	Abril	2023-04-23T00:00:00	2024-11-08T03:00:00	2	Temperatura media	13.2
102798	7	Sololá	701	Sololá	4	Finca Santa Victoria	4	Abril	2023-04-23T00:00:00	2024-11-08T03:00:00	4	Temperatura máxima	13.5
102799	7	Sololá	701	Sololá	4	Finca Santa Victoria	4	Abril	2023-04-23T00:00:00	2024-11-08T03:00:00	3	Temperatura mínima	13.2
102800	7	Sololá	701	Sololá	4	Finca Santa Victoria	4	Abril	2023-04-23T00:00:00	2024-11-08T03:00:00	5	Humedad	86
102801	7	Sololá	701	Sololá	4	Finca Santa Victoria	4	Abril	2023-04-23T00:00:00	2024-11-08T03:00:00	6	Velocidad del viento	1.6
102802	7	Sololá	701	Sololá	4	Finca Santa Victoria	4	Abril	2023-04-23T00:00:00	2024-11-08T03:00:00	7	Dirección del viento	1.61
102803	7	Sololá	701	Sololá	4	Finca Santa Victoria	4	Abril	2023-04-23T00:00:00	2024-11-08T03:00:00	1	Precipitación	0
102804	7	Sololá	701	Sololá	4	Finca Santa Victoria	4	Abril	2023-04-23T00:00:00	2024-11-08T03:00:00	8	Radiación solar	0
102805	7	Sololá	701	Sololá	4	Finca Santa Victoria	4	Abril	2023-04-23T00:00:00	2024-11-08T04:00:00	2	Temperatura media	12.1
102806	7	Sololá	701	Sololá	4	Finca Santa Victoria	4	Abril	2023-04-23T00:00:00	2024-11-08T04:00:00	4	Temperatura máxima	13.3
102807	7	Sololá	701	Sololá	4	Finca Santa Victoria	4	Abril	2023-04-23T00:00:00	2024-11-08T04:00:00	3	Temperatura mínima	12.1
102808	7	Sololá	701	Sololá	4	Finca Santa Victoria	4	Abril	2023-04-23T00:00:00	2024-11-08T04:00:00	5	Humedad	90
102809	7	Sololá	701	Sololá	4	Finca Santa Victoria	4	Abril	2023-04-23T00:00:00	2024-11-08T04:00:00	6	Velocidad del viento	1.6
102810	7	Sololá	701	Sololá	4	Finca Santa Victoria	4	Abril	2023-04-23T00:00:00	2024-11-08T04:00:00	7	Dirección del viento	1.61
102811	7	Sololá	701	Sololá	4	Finca Santa Victoria	4	Abril	2023-04-23T00:00:00	2024-11-08T04:00:00	1	Precipitación	0
102812	7	Sololá	701	Sololá	4	Finca Santa Victoria	4	Abril	2023-04-23T00:00:00	2024-11-08T04:00:00	8	Radiación solar	0
102813	7	Sololá	701	Sololá	4	Finca Santa Victoria	4	Abril	2023-04-23T00:00:00	2024-11-08T05:00:00	2	Temperatura media	12.6
102814	7	Sololá	701	Sololá	4	Finca Santa Victoria	4	Abril	2023-04-23T00:00:00	2024-11-08T05:00:00	4	Temperatura máxima	12.6
102815	7	Sololá	701	Sololá	4	Finca Santa Victoria	4	Abril	2023-04-23T00:00:00	2024-11-08T05:00:00	3	Temperatura mínima	11.6
102816	7	Sololá	701	Sololá	4	Finca Santa Victoria	4	Abril	2023-04-23T00:00:00	2024-11-08T05:00:00	5	Humedad	92
102817	7	Sololá	701	Sololá	4	Finca Santa Victoria	4	Abril	2023-04-23T00:00:00	2024-11-08T05:00:00	6	Velocidad del viento	1.6
102818	7	Sololá	701	Sololá	4	Finca Santa Victoria	4	Abril	2023-04-23T00:00:00	2024-11-08T05:00:00	7	Dirección del viento	1.61
102819	7	Sololá	701	Sololá	4	Finca Santa Victoria	4	Abril	2023-04-23T00:00:00	2024-11-08T05:00:00	1	Precipitación	0
102820	7	Sololá	701	Sololá	4	Finca Santa Victoria	4	Abril	2023-04-23T00:00:00	2024-11-08T05:00:00	8	Radiación solar	0
102821	7	Sololá	701	Sololá	4	Finca Santa Victoria	4	Abril	2023-04-23T00:00:00	2024-11-08T06:00:00	2	Temperatura media	12.3
102822	7	Sololá	701	Sololá	4	Finca Santa Victoria	4	Abril	2023-04-23T00:00:00	2024-11-08T06:00:00	4	Temperatura máxima	12.9
102823	7	Sololá	701	Sololá	4	Finca Santa Victoria	4	Abril	2023-04-23T00:00:00	2024-11-08T06:00:00	3	Temperatura mínima	12.3
102824	7	Sololá	701	Sololá	4	Finca Santa Victoria	4	Abril	2023-04-23T00:00:00	2024-11-08T06:00:00	5	Humedad	91
102825	7	Sololá	701	Sololá	4	Finca Santa Victoria	4	Abril	2023-04-23T00:00:00	2024-11-08T06:00:00	6	Velocidad del viento	1.6
102826	7	Sololá	701	Sololá	4	Finca Santa Victoria	4	Abril	2023-04-23T00:00:00	2024-11-08T06:00:00	7	Dirección del viento	1.61
102827	7	Sololá	701	Sololá	4	Finca Santa Victoria	4	Abril	2023-04-23T00:00:00	2024-11-08T06:00:00	1	Precipitación	0
102828	7	Sololá	701	Sololá	4	Finca Santa Victoria	4	Abril	2023-04-23T00:00:00	2024-11-08T06:00:00	8	Radiación solar	1
102829	7	Sololá	701	Sololá	4	Finca Santa Victoria	4	Abril	2023-04-23T00:00:00	2024-11-08T07:00:00	2	Temperatura media	13.1
102830	7	Sololá	701	Sololá	4	Finca Santa Victoria	4	Abril	2023-04-23T00:00:00	2024-11-08T07:00:00	4	Temperatura máxima	13.1
102831	7	Sololá	701	Sololá	4	Finca Santa Victoria	4	Abril	2023-04-23T00:00:00	2024-11-08T07:00:00	3	Temperatura mínima	12.3
102832	7	Sololá	701	Sololá	4	Finca Santa Victoria	4	Abril	2023-04-23T00:00:00	2024-11-08T07:00:00	5	Humedad	87
102833	7	Sololá	701	Sololá	4	Finca Santa Victoria	4	Abril	2023-04-23T00:00:00	2024-11-08T07:00:00	6	Velocidad del viento	1.6
102834	7	Sololá	701	Sololá	4	Finca Santa Victoria	4	Abril	2023-04-23T00:00:00	2024-11-08T07:00:00	7	Dirección del viento	1.61
102835	7	Sololá	701	Sololá	4	Finca Santa Victoria	4	Abril	2023-04-23T00:00:00	2024-11-08T07:00:00	1	Precipitación	0
102836	7	Sololá	701	Sololá	4	Finca Santa Victoria	4	Abril	2023-04-23T00:00:00	2024-11-08T07:00:00	8	Radiación solar	32
102837	7	Sololá	701	Sololá	4	Finca Santa Victoria	4	Abril	2023-04-23T00:00:00	2024-11-08T08:00:00	2	Temperatura media	16.8
102838	7	Sololá	701	Sololá	4	Finca Santa Victoria	4	Abril	2023-04-23T00:00:00	2024-11-08T08:00:00	4	Temperatura máxima	16.8
102839	7	Sololá	701	Sololá	4	Finca Santa Victoria	4	Abril	2023-04-23T00:00:00	2024-11-08T08:00:00	3	Temperatura mínima	13.1
102840	7	Sololá	701	Sololá	4	Finca Santa Victoria	4	Abril	2023-04-23T00:00:00	2024-11-08T08:00:00	5	Humedad	73
102841	7	Sololá	701	Sololá	4	Finca Santa Victoria	4	Abril	2023-04-23T00:00:00	2024-11-08T08:00:00	6	Velocidad del viento	1.6
102842	7	Sololá	701	Sololá	4	Finca Santa Victoria	4	Abril	2023-04-23T00:00:00	2024-11-08T08:00:00	7	Dirección del viento	1.61
102843	7	Sololá	701	Sololá	4	Finca Santa Victoria	4	Abril	2023-04-23T00:00:00	2024-11-08T08:00:00	1	Precipitación	0
102844	7	Sololá	701	Sololá	4	Finca Santa Victoria	4	Abril	2023-04-23T00:00:00	2024-11-08T08:00:00	8	Radiación solar	235
102845	7	Sololá	701	Sololá	4	Finca Santa Victoria	4	Abril	2023-04-23T00:00:00	2024-11-08T09:00:00	2	Temperatura media	17.7
102846	7	Sololá	701	Sololá	4	Finca Santa Victoria	4	Abril	2023-04-23T00:00:00	2024-11-08T09:00:00	4	Temperatura máxima	17.9
102847	7	Sololá	701	Sololá	4	Finca Santa Victoria	4	Abril	2023-04-23T00:00:00	2024-11-08T09:00:00	3	Temperatura mínima	16.8
102848	7	Sololá	701	Sololá	4	Finca Santa Victoria	4	Abril	2023-04-23T00:00:00	2024-11-08T09:00:00	5	Humedad	76
102849	7	Sololá	701	Sololá	4	Finca Santa Victoria	4	Abril	2023-04-23T00:00:00	2024-11-08T09:00:00	6	Velocidad del viento	1.6
102850	7	Sololá	701	Sololá	4	Finca Santa Victoria	4	Abril	2023-04-23T00:00:00	2024-11-08T09:00:00	7	Dirección del viento	1.61
102851	7	Sololá	701	Sololá	4	Finca Santa Victoria	4	Abril	2023-04-23T00:00:00	2024-11-08T09:00:00	1	Precipitación	0
102852	7	Sololá	701	Sololá	4	Finca Santa Victoria	4	Abril	2023-04-23T00:00:00	2024-11-08T09:00:00	8	Radiación solar	446
102853	7	Sololá	701	Sololá	4	Finca Santa Victoria	4	Abril	2023-04-23T00:00:00	2024-11-08T10:00:00	2	Temperatura media	18.9
102854	7	Sololá	701	Sololá	4	Finca Santa Victoria	4	Abril	2023-04-23T00:00:00	2024-11-08T10:00:00	4	Temperatura máxima	18.9
102855	7	Sololá	701	Sololá	4	Finca Santa Victoria	4	Abril	2023-04-23T00:00:00	2024-11-08T10:00:00	3	Temperatura mínima	17.4
102856	7	Sololá	701	Sololá	4	Finca Santa Victoria	4	Abril	2023-04-23T00:00:00	2024-11-08T10:00:00	5	Humedad	70
102857	7	Sololá	701	Sololá	4	Finca Santa Victoria	4	Abril	2023-04-23T00:00:00	2024-11-08T10:00:00	6	Velocidad del viento	3.2
102858	7	Sololá	701	Sololá	4	Finca Santa Victoria	4	Abril	2023-04-23T00:00:00	2024-11-08T10:00:00	7	Dirección del viento	3.22
102859	7	Sololá	701	Sololá	4	Finca Santa Victoria	4	Abril	2023-04-23T00:00:00	2024-11-08T10:00:00	1	Precipitación	0
102860	7	Sololá	701	Sololá	4	Finca Santa Victoria	4	Abril	2023-04-23T00:00:00	2024-11-08T10:00:00	8	Radiación solar	284
102861	7	Sololá	701	Sololá	4	Finca Santa Victoria	4	Abril	2023-04-23T00:00:00	2024-11-08T11:00:00	2	Temperatura media	19.4
102862	7	Sololá	701	Sololá	4	Finca Santa Victoria	4	Abril	2023-04-23T00:00:00	2024-11-08T11:00:00	4	Temperatura máxima	19.9
102863	7	Sololá	701	Sololá	4	Finca Santa Victoria	4	Abril	2023-04-23T00:00:00	2024-11-08T11:00:00	3	Temperatura mínima	18.9
102864	7	Sololá	701	Sololá	4	Finca Santa Victoria	4	Abril	2023-04-23T00:00:00	2024-11-08T11:00:00	5	Humedad	70
102865	7	Sololá	701	Sololá	4	Finca Santa Victoria	4	Abril	2023-04-23T00:00:00	2024-11-08T11:00:00	6	Velocidad del viento	4.8
102866	7	Sololá	701	Sololá	4	Finca Santa Victoria	4	Abril	2023-04-23T00:00:00	2024-11-08T11:00:00	7	Dirección del viento	4.83
102867	7	Sololá	701	Sololá	4	Finca Santa Victoria	4	Abril	2023-04-23T00:00:00	2024-11-08T11:00:00	1	Precipitación	0
102868	7	Sololá	701	Sololá	4	Finca Santa Victoria	4	Abril	2023-04-23T00:00:00	2024-11-08T11:00:00	8	Radiación solar	854
102869	7	Sololá	701	Sololá	4	Finca Santa Victoria	4	Abril	2023-04-23T00:00:00	2024-11-08T12:00:00	2	Temperatura media	19.9
102870	7	Sololá	701	Sololá	4	Finca Santa Victoria	4	Abril	2023-04-23T00:00:00	2024-11-08T12:00:00	4	Temperatura máxima	20.3
102871	7	Sololá	701	Sololá	4	Finca Santa Victoria	4	Abril	2023-04-23T00:00:00	2024-11-08T12:00:00	3	Temperatura mínima	19.3
102872	7	Sololá	701	Sololá	4	Finca Santa Victoria	4	Abril	2023-04-23T00:00:00	2024-11-08T12:00:00	5	Humedad	72
102873	7	Sololá	701	Sololá	4	Finca Santa Victoria	4	Abril	2023-04-23T00:00:00	2024-11-08T12:00:00	6	Velocidad del viento	6.4
102874	7	Sololá	701	Sololá	4	Finca Santa Victoria	4	Abril	2023-04-23T00:00:00	2024-11-08T12:00:00	7	Dirección del viento	6.44
102875	7	Sololá	701	Sololá	4	Finca Santa Victoria	4	Abril	2023-04-23T00:00:00	2024-11-08T12:00:00	1	Precipitación	0
102876	7	Sololá	701	Sololá	4	Finca Santa Victoria	4	Abril	2023-04-23T00:00:00	2024-11-08T12:00:00	8	Radiación solar	898
102877	7	Sololá	701	Sololá	4	Finca Santa Victoria	4	Abril	2023-04-23T00:00:00	2024-11-08T13:00:00	2	Temperatura media	20.1
102878	7	Sololá	701	Sololá	4	Finca Santa Victoria	4	Abril	2023-04-23T00:00:00	2024-11-08T13:00:00	4	Temperatura máxima	20.7
102879	7	Sololá	701	Sololá	4	Finca Santa Victoria	4	Abril	2023-04-23T00:00:00	2024-11-08T13:00:00	3	Temperatura mínima	19.7
102880	7	Sololá	701	Sololá	4	Finca Santa Victoria	4	Abril	2023-04-23T00:00:00	2024-11-08T13:00:00	5	Humedad	76
102881	7	Sololá	701	Sololá	4	Finca Santa Victoria	4	Abril	2023-04-23T00:00:00	2024-11-08T13:00:00	6	Velocidad del viento	6.4
102882	7	Sololá	701	Sololá	4	Finca Santa Victoria	4	Abril	2023-04-23T00:00:00	2024-11-08T13:00:00	7	Dirección del viento	6.44
102883	7	Sololá	701	Sololá	4	Finca Santa Victoria	4	Abril	2023-04-23T00:00:00	2024-11-08T13:00:00	1	Precipitación	0
102884	7	Sololá	701	Sololá	4	Finca Santa Victoria	4	Abril	2023-04-23T00:00:00	2024-11-08T13:00:00	8	Radiación solar	769
102885	7	Sololá	701	Sololá	4	Finca Santa Victoria	4	Abril	2023-04-23T00:00:00	2024-11-08T14:00:00	2	Temperatura media	19.2
102886	7	Sololá	701	Sololá	4	Finca Santa Victoria	4	Abril	2023-04-23T00:00:00	2024-11-08T14:00:00	4	Temperatura máxima	20.3
102887	7	Sololá	701	Sololá	4	Finca Santa Victoria	4	Abril	2023-04-23T00:00:00	2024-11-08T14:00:00	3	Temperatura mínima	18.8
102888	7	Sololá	701	Sololá	4	Finca Santa Victoria	4	Abril	2023-04-23T00:00:00	2024-11-08T14:00:00	5	Humedad	81
102889	7	Sololá	701	Sololá	4	Finca Santa Victoria	4	Abril	2023-04-23T00:00:00	2024-11-08T14:00:00	6	Velocidad del viento	4.8
102890	7	Sololá	701	Sololá	4	Finca Santa Victoria	4	Abril	2023-04-23T00:00:00	2024-11-08T14:00:00	7	Dirección del viento	4.83
102891	7	Sololá	701	Sololá	4	Finca Santa Victoria	4	Abril	2023-04-23T00:00:00	2024-11-08T14:00:00	1	Precipitación	0
102892	7	Sololá	701	Sololá	4	Finca Santa Victoria	4	Abril	2023-04-23T00:00:00	2024-11-08T14:00:00	8	Radiación solar	322
102893	7	Sololá	701	Sololá	4	Finca Santa Victoria	4	Abril	2023-04-23T00:00:00	2024-11-08T15:00:00	2	Temperatura media	16.5
102894	7	Sololá	701	Sololá	4	Finca Santa Victoria	4	Abril	2023-04-23T00:00:00	2024-11-08T15:00:00	4	Temperatura máxima	19.1
102895	7	Sololá	701	Sololá	4	Finca Santa Victoria	4	Abril	2023-04-23T00:00:00	2024-11-08T15:00:00	3	Temperatura mínima	16.2
102896	7	Sololá	701	Sololá	4	Finca Santa Victoria	4	Abril	2023-04-23T00:00:00	2024-11-08T15:00:00	5	Humedad	92
102897	7	Sololá	701	Sololá	4	Finca Santa Victoria	4	Abril	2023-04-23T00:00:00	2024-11-08T15:00:00	6	Velocidad del viento	4.8
102898	7	Sololá	701	Sololá	4	Finca Santa Victoria	4	Abril	2023-04-23T00:00:00	2024-11-08T15:00:00	7	Dirección del viento	4.83
102899	7	Sololá	701	Sololá	4	Finca Santa Victoria	4	Abril	2023-04-23T00:00:00	2024-11-08T15:00:00	1	Precipitación	0
102900	7	Sololá	701	Sololá	4	Finca Santa Victoria	4	Abril	2023-04-23T00:00:00	2024-11-08T15:00:00	8	Radiación solar	115
102901	7	Sololá	701	Sololá	4	Finca Santa Victoria	4	Abril	2023-04-23T00:00:00	2024-11-08T16:00:00	2	Temperatura media	16.6
102902	7	Sololá	701	Sololá	4	Finca Santa Victoria	4	Abril	2023-04-23T00:00:00	2024-11-08T16:00:00	4	Temperatura máxima	16.8
102903	7	Sololá	701	Sololá	4	Finca Santa Victoria	4	Abril	2023-04-23T00:00:00	2024-11-08T16:00:00	3	Temperatura mínima	15.9
102904	7	Sololá	701	Sololá	4	Finca Santa Victoria	4	Abril	2023-04-23T00:00:00	2024-11-08T16:00:00	5	Humedad	91
102905	7	Sololá	701	Sololá	4	Finca Santa Victoria	4	Abril	2023-04-23T00:00:00	2024-11-08T16:00:00	6	Velocidad del viento	3.2
102906	7	Sololá	701	Sololá	4	Finca Santa Victoria	4	Abril	2023-04-23T00:00:00	2024-11-08T16:00:00	7	Dirección del viento	3.22
102907	7	Sololá	701	Sololá	4	Finca Santa Victoria	4	Abril	2023-04-23T00:00:00	2024-11-08T16:00:00	1	Precipitación	0
102908	7	Sololá	701	Sololá	4	Finca Santa Victoria	4	Abril	2023-04-23T00:00:00	2024-11-08T16:00:00	8	Radiación solar	91
102909	7	Sololá	701	Sololá	4	Finca Santa Victoria	4	Abril	2023-04-23T00:00:00	2024-11-08T17:00:00	2	Temperatura media	15.5
102910	7	Sololá	701	Sololá	4	Finca Santa Victoria	4	Abril	2023-04-23T00:00:00	2024-11-08T17:00:00	4	Temperatura máxima	16.6
102911	7	Sololá	701	Sololá	4	Finca Santa Victoria	4	Abril	2023-04-23T00:00:00	2024-11-08T17:00:00	3	Temperatura mínima	15.5
102912	7	Sololá	701	Sololá	4	Finca Santa Victoria	4	Abril	2023-04-23T00:00:00	2024-11-08T17:00:00	5	Humedad	94
102913	7	Sololá	701	Sololá	4	Finca Santa Victoria	4	Abril	2023-04-23T00:00:00	2024-11-08T17:00:00	6	Velocidad del viento	3.2
102914	7	Sololá	701	Sololá	4	Finca Santa Victoria	4	Abril	2023-04-23T00:00:00	2024-11-08T17:00:00	7	Dirección del viento	3.22
102915	7	Sololá	701	Sololá	4	Finca Santa Victoria	4	Abril	2023-04-23T00:00:00	2024-11-08T17:00:00	1	Precipitación	0
102916	7	Sololá	701	Sololá	4	Finca Santa Victoria	4	Abril	2023-04-23T00:00:00	2024-11-08T17:00:00	8	Radiación solar	76
102917	7	Sololá	701	Sololá	4	Finca Santa Victoria	4	Abril	2023-04-23T00:00:00	2024-11-08T18:00:00	2	Temperatura media	15.1
102918	7	Sololá	701	Sololá	4	Finca Santa Victoria	4	Abril	2023-04-23T00:00:00	2024-11-08T18:00:00	4	Temperatura máxima	15.6
102919	7	Sololá	701	Sololá	4	Finca Santa Victoria	4	Abril	2023-04-23T00:00:00	2024-11-08T18:00:00	3	Temperatura mínima	15
102920	7	Sololá	701	Sololá	4	Finca Santa Victoria	4	Abril	2023-04-23T00:00:00	2024-11-08T18:00:00	5	Humedad	95
102921	7	Sololá	701	Sololá	4	Finca Santa Victoria	4	Abril	2023-04-23T00:00:00	2024-11-08T18:00:00	6	Velocidad del viento	1.6
102922	7	Sololá	701	Sololá	4	Finca Santa Victoria	4	Abril	2023-04-23T00:00:00	2024-11-08T18:00:00	7	Dirección del viento	1.61
102923	7	Sololá	701	Sololá	4	Finca Santa Victoria	4	Abril	2023-04-23T00:00:00	2024-11-08T18:00:00	1	Precipitación	0
102924	7	Sololá	701	Sololá	4	Finca Santa Victoria	4	Abril	2023-04-23T00:00:00	2024-11-08T18:00:00	8	Radiación solar	3
102925	7	Sololá	701	Sololá	4	Finca Santa Victoria	4	Abril	2023-04-23T00:00:00	2024-11-08T19:00:00	2	Temperatura media	14.7
102926	7	Sololá	701	Sololá	4	Finca Santa Victoria	4	Abril	2023-04-23T00:00:00	2024-11-08T19:00:00	4	Temperatura máxima	15.1
102927	7	Sololá	701	Sololá	4	Finca Santa Victoria	4	Abril	2023-04-23T00:00:00	2024-11-08T19:00:00	3	Temperatura mínima	14.6
102928	7	Sololá	701	Sololá	4	Finca Santa Victoria	4	Abril	2023-04-23T00:00:00	2024-11-08T19:00:00	5	Humedad	96
102929	7	Sololá	701	Sololá	4	Finca Santa Victoria	4	Abril	2023-04-23T00:00:00	2024-11-08T19:00:00	6	Velocidad del viento	1.6
102930	7	Sololá	701	Sololá	4	Finca Santa Victoria	4	Abril	2023-04-23T00:00:00	2024-11-08T19:00:00	7	Dirección del viento	1.61
102931	7	Sololá	701	Sololá	4	Finca Santa Victoria	4	Abril	2023-04-23T00:00:00	2024-11-08T19:00:00	1	Precipitación	0
102932	7	Sololá	701	Sololá	4	Finca Santa Victoria	4	Abril	2023-04-23T00:00:00	2024-11-08T19:00:00	8	Radiación solar	0
102933	7	Sololá	701	Sololá	4	Finca Santa Victoria	4	Abril	2023-04-23T00:00:00	2024-11-08T20:00:00	2	Temperatura media	14.4
102934	7	Sololá	701	Sololá	4	Finca Santa Victoria	4	Abril	2023-04-23T00:00:00	2024-11-08T20:00:00	4	Temperatura máxima	14.7
102935	7	Sololá	701	Sololá	4	Finca Santa Victoria	4	Abril	2023-04-23T00:00:00	2024-11-08T20:00:00	3	Temperatura mínima	14.4
102936	7	Sololá	701	Sololá	4	Finca Santa Victoria	4	Abril	2023-04-23T00:00:00	2024-11-08T20:00:00	5	Humedad	96
102937	7	Sololá	701	Sololá	4	Finca Santa Victoria	4	Abril	2023-04-23T00:00:00	2024-11-08T20:00:00	6	Velocidad del viento	0
102938	7	Sololá	701	Sololá	4	Finca Santa Victoria	4	Abril	2023-04-23T00:00:00	2024-11-08T20:00:00	7	Dirección del viento	0
102939	7	Sololá	701	Sololá	4	Finca Santa Victoria	4	Abril	2023-04-23T00:00:00	2024-11-08T20:00:00	1	Precipitación	0
102940	7	Sololá	701	Sololá	4	Finca Santa Victoria	4	Abril	2023-04-23T00:00:00	2024-11-08T20:00:00	8	Radiación solar	0
102941	7	Sololá	701	Sololá	4	Finca Santa Victoria	4	Abril	2023-04-23T00:00:00	2024-11-08T21:00:00	2	Temperatura media	14.3
102942	7	Sololá	701	Sololá	4	Finca Santa Victoria	4	Abril	2023-04-23T00:00:00	2024-11-08T21:00:00	4	Temperatura máxima	14.5
102943	7	Sololá	701	Sololá	4	Finca Santa Victoria	4	Abril	2023-04-23T00:00:00	2024-11-08T21:00:00	3	Temperatura mínima	14
102944	7	Sololá	701	Sololá	4	Finca Santa Victoria	4	Abril	2023-04-23T00:00:00	2024-11-08T21:00:00	5	Humedad	97
102945	7	Sololá	701	Sololá	4	Finca Santa Victoria	4	Abril	2023-04-23T00:00:00	2024-11-08T21:00:00	6	Velocidad del viento	0
102946	7	Sololá	701	Sololá	4	Finca Santa Victoria	4	Abril	2023-04-23T00:00:00	2024-11-08T21:00:00	7	Dirección del viento	0
102947	7	Sololá	701	Sololá	4	Finca Santa Victoria	4	Abril	2023-04-23T00:00:00	2024-11-08T21:00:00	1	Precipitación	0
102948	7	Sololá	701	Sololá	4	Finca Santa Victoria	4	Abril	2023-04-23T00:00:00	2024-11-08T21:00:00	8	Radiación solar	0
102949	7	Sololá	701	Sololá	4	Finca Santa Victoria	4	Abril	2023-04-23T00:00:00	2024-11-08T22:00:00	2	Temperatura media	14.2
102950	7	Sololá	701	Sololá	4	Finca Santa Victoria	4	Abril	2023-04-23T00:00:00	2024-11-08T22:00:00	4	Temperatura máxima	14.4
102951	7	Sololá	701	Sololá	4	Finca Santa Victoria	4	Abril	2023-04-23T00:00:00	2024-11-08T22:00:00	3	Temperatura mínima	14.2
102952	7	Sololá	701	Sololá	4	Finca Santa Victoria	4	Abril	2023-04-23T00:00:00	2024-11-08T22:00:00	5	Humedad	97
102953	7	Sololá	701	Sololá	4	Finca Santa Victoria	4	Abril	2023-04-23T00:00:00	2024-11-08T22:00:00	6	Velocidad del viento	0
102954	7	Sololá	701	Sololá	4	Finca Santa Victoria	4	Abril	2023-04-23T00:00:00	2024-11-08T22:00:00	7	Dirección del viento	0
102955	7	Sololá	701	Sololá	4	Finca Santa Victoria	4	Abril	2023-04-23T00:00:00	2024-11-08T22:00:00	1	Precipitación	0
102956	7	Sololá	701	Sololá	4	Finca Santa Victoria	4	Abril	2023-04-23T00:00:00	2024-11-08T22:00:00	8	Radiación solar	0
102957	7	Sololá	701	Sololá	4	Finca Santa Victoria	4	Abril	2023-04-23T00:00:00	2024-11-08T23:00:00	2	Temperatura media	14.1
102958	7	Sololá	701	Sololá	4	Finca Santa Victoria	4	Abril	2023-04-23T00:00:00	2024-11-08T23:00:00	4	Temperatura máxima	14.3
102959	7	Sololá	701	Sololá	4	Finca Santa Victoria	4	Abril	2023-04-23T00:00:00	2024-11-08T23:00:00	3	Temperatura mínima	14.1
102960	7	Sololá	701	Sololá	4	Finca Santa Victoria	4	Abril	2023-04-23T00:00:00	2024-11-08T23:00:00	5	Humedad	97
102961	7	Sololá	701	Sololá	4	Finca Santa Victoria	4	Abril	2023-04-23T00:00:00	2024-11-08T23:00:00	6	Velocidad del viento	0
102962	7	Sololá	701	Sololá	4	Finca Santa Victoria	4	Abril	2023-04-23T00:00:00	2024-11-08T23:00:00	7	Dirección del viento	0
102963	7	Sololá	701	Sololá	4	Finca Santa Victoria	4	Abril	2023-04-23T00:00:00	2024-11-08T23:00:00	1	Precipitación	0
102964	7	Sololá	701	Sololá	4	Finca Santa Victoria	4	Abril	2023-04-23T00:00:00	2024-11-08T23:00:00	8	Radiación solar	0
102965	7	Sololá	701	Sololá	4	Finca Santa Victoria	4	Abril	2023-04-24T00:00:00	2024-11-08T00:00:00	2	Temperatura media	13.7
102966	7	Sololá	701	Sololá	4	Finca Santa Victoria	4	Abril	2023-04-24T00:00:00	2024-11-08T00:00:00	4	Temperatura máxima	14.1
102967	7	Sololá	701	Sololá	4	Finca Santa Victoria	4	Abril	2023-04-24T00:00:00	2024-11-08T00:00:00	3	Temperatura mínima	13.6
102968	7	Sololá	701	Sololá	4	Finca Santa Victoria	4	Abril	2023-04-24T00:00:00	2024-11-08T00:00:00	5	Humedad	97
102969	7	Sololá	701	Sololá	4	Finca Santa Victoria	4	Abril	2023-04-24T00:00:00	2024-11-08T00:00:00	6	Velocidad del viento	0
102970	7	Sololá	701	Sololá	4	Finca Santa Victoria	4	Abril	2023-04-24T00:00:00	2024-11-08T00:00:00	7	Dirección del viento	0
102971	7	Sololá	701	Sololá	4	Finca Santa Victoria	4	Abril	2023-04-24T00:00:00	2024-11-08T00:00:00	1	Precipitación	0
102972	7	Sololá	701	Sololá	4	Finca Santa Victoria	4	Abril	2023-04-24T00:00:00	2024-11-08T00:00:00	8	Radiación solar	0
102973	7	Sololá	701	Sololá	4	Finca Santa Victoria	4	Abril	2023-04-24T00:00:00	2024-11-08T01:00:00	2	Temperatura media	13.4
102974	7	Sololá	701	Sololá	4	Finca Santa Victoria	4	Abril	2023-04-24T00:00:00	2024-11-08T01:00:00	4	Temperatura máxima	13.7
102975	7	Sololá	701	Sololá	4	Finca Santa Victoria	4	Abril	2023-04-24T00:00:00	2024-11-08T01:00:00	3	Temperatura mínima	13.4
102976	7	Sololá	701	Sololá	4	Finca Santa Victoria	4	Abril	2023-04-24T00:00:00	2024-11-08T01:00:00	5	Humedad	97
102977	7	Sololá	701	Sololá	4	Finca Santa Victoria	4	Abril	2023-04-24T00:00:00	2024-11-08T01:00:00	6	Velocidad del viento	0
102978	7	Sololá	701	Sololá	4	Finca Santa Victoria	4	Abril	2023-04-24T00:00:00	2024-11-08T01:00:00	7	Dirección del viento	0
102979	7	Sololá	701	Sololá	4	Finca Santa Victoria	4	Abril	2023-04-24T00:00:00	2024-11-08T01:00:00	1	Precipitación	0
102980	7	Sololá	701	Sololá	4	Finca Santa Victoria	4	Abril	2023-04-24T00:00:00	2024-11-08T01:00:00	8	Radiación solar	0
102981	7	Sololá	701	Sololá	4	Finca Santa Victoria	4	Abril	2023-04-24T00:00:00	2024-11-08T02:00:00	2	Temperatura media	13.2
102982	7	Sololá	701	Sololá	4	Finca Santa Victoria	4	Abril	2023-04-24T00:00:00	2024-11-08T02:00:00	4	Temperatura máxima	13.4
102983	7	Sololá	701	Sololá	4	Finca Santa Victoria	4	Abril	2023-04-24T00:00:00	2024-11-08T02:00:00	3	Temperatura mínima	13.1
102984	7	Sololá	701	Sololá	4	Finca Santa Victoria	4	Abril	2023-04-24T00:00:00	2024-11-08T02:00:00	5	Humedad	97
102985	7	Sololá	701	Sololá	4	Finca Santa Victoria	4	Abril	2023-04-24T00:00:00	2024-11-08T02:00:00	6	Velocidad del viento	0
102986	7	Sololá	701	Sololá	4	Finca Santa Victoria	4	Abril	2023-04-24T00:00:00	2024-11-08T02:00:00	7	Dirección del viento	0
102987	7	Sololá	701	Sololá	4	Finca Santa Victoria	4	Abril	2023-04-24T00:00:00	2024-11-08T02:00:00	1	Precipitación	0
102988	7	Sololá	701	Sololá	4	Finca Santa Victoria	4	Abril	2023-04-24T00:00:00	2024-11-08T02:00:00	8	Radiación solar	0
102989	7	Sololá	701	Sololá	4	Finca Santa Victoria	4	Abril	2023-04-24T00:00:00	2024-11-08T03:00:00	2	Temperatura media	13.3
102990	7	Sololá	701	Sololá	4	Finca Santa Victoria	4	Abril	2023-04-24T00:00:00	2024-11-08T03:00:00	4	Temperatura máxima	13.3
102991	7	Sololá	701	Sololá	4	Finca Santa Victoria	4	Abril	2023-04-24T00:00:00	2024-11-08T03:00:00	3	Temperatura mínima	12.9
102992	7	Sololá	701	Sololá	4	Finca Santa Victoria	4	Abril	2023-04-24T00:00:00	2024-11-08T03:00:00	5	Humedad	98
102993	7	Sololá	701	Sololá	4	Finca Santa Victoria	4	Abril	2023-04-24T00:00:00	2024-11-08T03:00:00	6	Velocidad del viento	0
102994	7	Sololá	701	Sololá	4	Finca Santa Victoria	4	Abril	2023-04-24T00:00:00	2024-11-08T03:00:00	7	Dirección del viento	0
102995	7	Sololá	701	Sololá	4	Finca Santa Victoria	4	Abril	2023-04-24T00:00:00	2024-11-08T03:00:00	1	Precipitación	0
102996	7	Sololá	701	Sololá	4	Finca Santa Victoria	4	Abril	2023-04-24T00:00:00	2024-11-08T03:00:00	8	Radiación solar	0
102997	7	Sololá	701	Sololá	4	Finca Santa Victoria	4	Abril	2023-04-24T00:00:00	2024-11-08T04:00:00	2	Temperatura media	12.7
102998	7	Sololá	701	Sololá	4	Finca Santa Victoria	4	Abril	2023-04-24T00:00:00	2024-11-08T04:00:00	4	Temperatura máxima	13.4
102999	7	Sololá	701	Sololá	4	Finca Santa Victoria	4	Abril	2023-04-24T00:00:00	2024-11-08T04:00:00	3	Temperatura mínima	12.7
103000	7	Sololá	701	Sololá	4	Finca Santa Victoria	4	Abril	2023-04-24T00:00:00	2024-11-08T04:00:00	5	Humedad	98
103001	7	Sololá	701	Sololá	4	Finca Santa Victoria	4	Abril	2023-04-24T00:00:00	2024-11-08T04:00:00	6	Velocidad del viento	0
103002	7	Sololá	701	Sololá	4	Finca Santa Victoria	4	Abril	2023-04-24T00:00:00	2024-11-08T04:00:00	7	Dirección del viento	0
103003	7	Sololá	701	Sololá	4	Finca Santa Victoria	4	Abril	2023-04-24T00:00:00	2024-11-08T04:00:00	1	Precipitación	0
103004	7	Sololá	701	Sololá	4	Finca Santa Victoria	4	Abril	2023-04-24T00:00:00	2024-11-08T04:00:00	8	Radiación solar	0
103005	7	Sololá	701	Sololá	4	Finca Santa Victoria	4	Abril	2023-04-24T00:00:00	2024-11-08T05:00:00	2	Temperatura media	12.7
103006	7	Sololá	701	Sololá	4	Finca Santa Victoria	4	Abril	2023-04-24T00:00:00	2024-11-08T05:00:00	4	Temperatura máxima	12.8
103007	7	Sololá	701	Sololá	4	Finca Santa Victoria	4	Abril	2023-04-24T00:00:00	2024-11-08T05:00:00	3	Temperatura mínima	12.4
103008	7	Sololá	701	Sololá	4	Finca Santa Victoria	4	Abril	2023-04-24T00:00:00	2024-11-08T05:00:00	5	Humedad	98
103009	7	Sololá	701	Sololá	4	Finca Santa Victoria	4	Abril	2023-04-24T00:00:00	2024-11-08T05:00:00	6	Velocidad del viento	0
103010	7	Sololá	701	Sololá	4	Finca Santa Victoria	4	Abril	2023-04-24T00:00:00	2024-11-08T05:00:00	7	Dirección del viento	0
103011	7	Sololá	701	Sololá	4	Finca Santa Victoria	4	Abril	2023-04-24T00:00:00	2024-11-08T05:00:00	1	Precipitación	0
103012	7	Sololá	701	Sololá	4	Finca Santa Victoria	4	Abril	2023-04-24T00:00:00	2024-11-08T05:00:00	8	Radiación solar	0
103013	7	Sololá	701	Sololá	4	Finca Santa Victoria	4	Abril	2023-04-24T00:00:00	2024-11-08T06:00:00	2	Temperatura media	12.8
103014	7	Sololá	701	Sololá	4	Finca Santa Victoria	4	Abril	2023-04-24T00:00:00	2024-11-08T06:00:00	4	Temperatura máxima	12.8
103015	7	Sololá	701	Sololá	4	Finca Santa Victoria	4	Abril	2023-04-24T00:00:00	2024-11-08T06:00:00	3	Temperatura mínima	12.6
103016	7	Sololá	701	Sololá	4	Finca Santa Victoria	4	Abril	2023-04-24T00:00:00	2024-11-08T06:00:00	5	Humedad	98
103017	7	Sololá	701	Sololá	4	Finca Santa Victoria	4	Abril	2023-04-24T00:00:00	2024-11-08T06:00:00	6	Velocidad del viento	0
103018	7	Sololá	701	Sololá	4	Finca Santa Victoria	4	Abril	2023-04-24T00:00:00	2024-11-08T06:00:00	7	Dirección del viento	0
103019	7	Sololá	701	Sololá	4	Finca Santa Victoria	4	Abril	2023-04-24T00:00:00	2024-11-08T06:00:00	1	Precipitación	0
103020	7	Sololá	701	Sololá	4	Finca Santa Victoria	4	Abril	2023-04-24T00:00:00	2024-11-08T06:00:00	8	Radiación solar	0
103021	7	Sololá	701	Sololá	4	Finca Santa Victoria	4	Abril	2023-04-24T00:00:00	2024-11-08T07:00:00	2	Temperatura media	12.9
103022	7	Sololá	701	Sololá	4	Finca Santa Victoria	4	Abril	2023-04-24T00:00:00	2024-11-08T07:00:00	4	Temperatura máxima	12.9
103023	7	Sololá	701	Sololá	4	Finca Santa Victoria	4	Abril	2023-04-24T00:00:00	2024-11-08T07:00:00	3	Temperatura mínima	12.8
103024	7	Sololá	701	Sololá	4	Finca Santa Victoria	4	Abril	2023-04-24T00:00:00	2024-11-08T07:00:00	5	Humedad	97
103025	7	Sololá	701	Sololá	4	Finca Santa Victoria	4	Abril	2023-04-24T00:00:00	2024-11-08T07:00:00	6	Velocidad del viento	0
103026	7	Sololá	701	Sololá	4	Finca Santa Victoria	4	Abril	2023-04-24T00:00:00	2024-11-08T07:00:00	7	Dirección del viento	0
103027	7	Sololá	701	Sololá	4	Finca Santa Victoria	4	Abril	2023-04-24T00:00:00	2024-11-08T07:00:00	1	Precipitación	0
103028	7	Sololá	701	Sololá	4	Finca Santa Victoria	4	Abril	2023-04-24T00:00:00	2024-11-08T07:00:00	8	Radiación solar	33
103029	7	Sololá	701	Sololá	4	Finca Santa Victoria	4	Abril	2023-04-24T00:00:00	2024-11-08T08:00:00	2	Temperatura media	15.3
103030	7	Sololá	701	Sololá	4	Finca Santa Victoria	4	Abril	2023-04-24T00:00:00	2024-11-08T08:00:00	4	Temperatura máxima	15.3
103031	7	Sololá	701	Sololá	4	Finca Santa Victoria	4	Abril	2023-04-24T00:00:00	2024-11-08T08:00:00	3	Temperatura mínima	12.9
103032	7	Sololá	701	Sololá	4	Finca Santa Victoria	4	Abril	2023-04-24T00:00:00	2024-11-08T08:00:00	5	Humedad	89
103033	7	Sololá	701	Sololá	4	Finca Santa Victoria	4	Abril	2023-04-24T00:00:00	2024-11-08T08:00:00	6	Velocidad del viento	1.6
103034	7	Sololá	701	Sololá	4	Finca Santa Victoria	4	Abril	2023-04-24T00:00:00	2024-11-08T08:00:00	7	Dirección del viento	1.61
103035	7	Sololá	701	Sololá	4	Finca Santa Victoria	4	Abril	2023-04-24T00:00:00	2024-11-08T08:00:00	1	Precipitación	0
103036	7	Sololá	701	Sololá	4	Finca Santa Victoria	4	Abril	2023-04-24T00:00:00	2024-11-08T08:00:00	8	Radiación solar	195
103037	7	Sololá	701	Sololá	4	Finca Santa Victoria	4	Abril	2023-04-24T00:00:00	2024-11-08T09:00:00	2	Temperatura media	15.7
103038	7	Sololá	701	Sololá	4	Finca Santa Victoria	4	Abril	2023-04-24T00:00:00	2024-11-08T09:00:00	4	Temperatura máxima	15.7
103039	7	Sololá	701	Sololá	4	Finca Santa Victoria	4	Abril	2023-04-24T00:00:00	2024-11-08T09:00:00	3	Temperatura mínima	15.3
103040	7	Sololá	701	Sololá	4	Finca Santa Victoria	4	Abril	2023-04-24T00:00:00	2024-11-08T09:00:00	5	Humedad	86
103041	7	Sololá	701	Sololá	4	Finca Santa Victoria	4	Abril	2023-04-24T00:00:00	2024-11-08T09:00:00	6	Velocidad del viento	3.2
103042	7	Sololá	701	Sololá	4	Finca Santa Victoria	4	Abril	2023-04-24T00:00:00	2024-11-08T09:00:00	7	Dirección del viento	3.22
103043	7	Sololá	701	Sololá	4	Finca Santa Victoria	4	Abril	2023-04-24T00:00:00	2024-11-08T09:00:00	1	Precipitación	0
103044	7	Sololá	701	Sololá	4	Finca Santa Victoria	4	Abril	2023-04-24T00:00:00	2024-11-08T09:00:00	8	Radiación solar	281
103045	7	Sololá	701	Sololá	4	Finca Santa Victoria	4	Abril	2023-04-24T00:00:00	2024-11-08T10:00:00	2	Temperatura media	16.9
103046	7	Sololá	701	Sololá	4	Finca Santa Victoria	4	Abril	2023-04-24T00:00:00	2024-11-08T10:00:00	4	Temperatura máxima	16.9
103047	7	Sololá	701	Sololá	4	Finca Santa Victoria	4	Abril	2023-04-24T00:00:00	2024-11-08T10:00:00	3	Temperatura mínima	15.7
103048	7	Sololá	701	Sololá	4	Finca Santa Victoria	4	Abril	2023-04-24T00:00:00	2024-11-08T10:00:00	5	Humedad	81
103049	7	Sololá	701	Sololá	4	Finca Santa Victoria	4	Abril	2023-04-24T00:00:00	2024-11-08T10:00:00	6	Velocidad del viento	3.2
103050	7	Sololá	701	Sololá	4	Finca Santa Victoria	4	Abril	2023-04-24T00:00:00	2024-11-08T10:00:00	7	Dirección del viento	3.22
103051	7	Sololá	701	Sololá	4	Finca Santa Victoria	4	Abril	2023-04-24T00:00:00	2024-11-08T10:00:00	1	Precipitación	0
103052	7	Sololá	701	Sololá	4	Finca Santa Victoria	4	Abril	2023-04-24T00:00:00	2024-11-08T10:00:00	8	Radiación solar	285
103053	7	Sololá	701	Sololá	4	Finca Santa Victoria	4	Abril	2023-04-24T00:00:00	2024-11-08T11:00:00	2	Temperatura media	18.3
103054	7	Sololá	701	Sololá	4	Finca Santa Victoria	4	Abril	2023-04-24T00:00:00	2024-11-08T11:00:00	4	Temperatura máxima	18.3
103055	7	Sololá	701	Sololá	4	Finca Santa Victoria	4	Abril	2023-04-24T00:00:00	2024-11-08T11:00:00	3	Temperatura mínima	16.8
103056	7	Sololá	701	Sololá	4	Finca Santa Victoria	4	Abril	2023-04-24T00:00:00	2024-11-08T11:00:00	5	Humedad	78
103057	7	Sololá	701	Sololá	4	Finca Santa Victoria	4	Abril	2023-04-24T00:00:00	2024-11-08T11:00:00	6	Velocidad del viento	4.8
103058	7	Sololá	701	Sololá	4	Finca Santa Victoria	4	Abril	2023-04-24T00:00:00	2024-11-08T11:00:00	7	Dirección del viento	4.83
103059	7	Sololá	701	Sololá	4	Finca Santa Victoria	4	Abril	2023-04-24T00:00:00	2024-11-08T11:00:00	1	Precipitación	0
103060	7	Sololá	701	Sololá	4	Finca Santa Victoria	4	Abril	2023-04-24T00:00:00	2024-11-08T11:00:00	8	Radiación solar	444
103061	7	Sololá	701	Sololá	4	Finca Santa Victoria	4	Abril	2023-04-24T00:00:00	2024-11-08T12:00:00	2	Temperatura media	17.6
103062	7	Sololá	701	Sololá	4	Finca Santa Victoria	4	Abril	2023-04-24T00:00:00	2024-11-08T12:00:00	4	Temperatura máxima	18.7
103063	7	Sololá	701	Sololá	4	Finca Santa Victoria	4	Abril	2023-04-24T00:00:00	2024-11-08T12:00:00	3	Temperatura mínima	17.6
103064	7	Sololá	701	Sololá	4	Finca Santa Victoria	4	Abril	2023-04-24T00:00:00	2024-11-08T12:00:00	5	Humedad	80
103065	7	Sololá	701	Sololá	4	Finca Santa Victoria	4	Abril	2023-04-24T00:00:00	2024-11-08T12:00:00	6	Velocidad del viento	4.8
103066	7	Sololá	701	Sololá	4	Finca Santa Victoria	4	Abril	2023-04-24T00:00:00	2024-11-08T12:00:00	7	Dirección del viento	4.83
103067	7	Sololá	701	Sololá	4	Finca Santa Victoria	4	Abril	2023-04-24T00:00:00	2024-11-08T12:00:00	1	Precipitación	0
103068	7	Sololá	701	Sololá	4	Finca Santa Victoria	4	Abril	2023-04-24T00:00:00	2024-11-08T12:00:00	8	Radiación solar	471
103069	7	Sololá	701	Sololá	4	Finca Santa Victoria	4	Abril	2023-04-24T00:00:00	2024-11-08T13:00:00	2	Temperatura media	17.4
103070	7	Sololá	701	Sololá	4	Finca Santa Victoria	4	Abril	2023-04-24T00:00:00	2024-11-08T13:00:00	4	Temperatura máxima	18.6
103071	7	Sololá	701	Sololá	4	Finca Santa Victoria	4	Abril	2023-04-24T00:00:00	2024-11-08T13:00:00	3	Temperatura mínima	17.3
103072	7	Sololá	701	Sololá	4	Finca Santa Victoria	4	Abril	2023-04-24T00:00:00	2024-11-08T13:00:00	5	Humedad	83
103073	7	Sololá	701	Sololá	4	Finca Santa Victoria	4	Abril	2023-04-24T00:00:00	2024-11-08T13:00:00	6	Velocidad del viento	4.8
103074	7	Sololá	701	Sololá	4	Finca Santa Victoria	4	Abril	2023-04-24T00:00:00	2024-11-08T13:00:00	7	Dirección del viento	4.83
103075	7	Sololá	701	Sololá	4	Finca Santa Victoria	4	Abril	2023-04-24T00:00:00	2024-11-08T13:00:00	1	Precipitación	0
103076	7	Sololá	701	Sololá	4	Finca Santa Victoria	4	Abril	2023-04-24T00:00:00	2024-11-08T13:00:00	8	Radiación solar	287
103077	7	Sololá	701	Sololá	4	Finca Santa Victoria	4	Abril	2023-04-24T00:00:00	2024-11-08T14:00:00	2	Temperatura media	16.4
103078	7	Sololá	701	Sololá	4	Finca Santa Victoria	4	Abril	2023-04-24T00:00:00	2024-11-08T14:00:00	4	Temperatura máxima	17.9
103079	7	Sololá	701	Sololá	4	Finca Santa Victoria	4	Abril	2023-04-24T00:00:00	2024-11-08T14:00:00	3	Temperatura mínima	16.4
103080	7	Sololá	701	Sololá	4	Finca Santa Victoria	4	Abril	2023-04-24T00:00:00	2024-11-08T14:00:00	5	Humedad	89
103081	7	Sololá	701	Sololá	4	Finca Santa Victoria	4	Abril	2023-04-24T00:00:00	2024-11-08T14:00:00	6	Velocidad del viento	4.8
103082	7	Sololá	701	Sololá	4	Finca Santa Victoria	4	Abril	2023-04-24T00:00:00	2024-11-08T14:00:00	7	Dirección del viento	4.83
103083	7	Sololá	701	Sololá	4	Finca Santa Victoria	4	Abril	2023-04-24T00:00:00	2024-11-08T14:00:00	1	Precipitación	0
103084	7	Sololá	701	Sololá	4	Finca Santa Victoria	4	Abril	2023-04-24T00:00:00	2024-11-08T14:00:00	8	Radiación solar	111
103085	7	Sololá	701	Sololá	4	Finca Santa Victoria	4	Abril	2023-04-24T00:00:00	2024-11-08T15:00:00	2	Temperatura media	15.6
103086	7	Sololá	701	Sololá	4	Finca Santa Victoria	4	Abril	2023-04-24T00:00:00	2024-11-08T15:00:00	4	Temperatura máxima	16.8
103087	7	Sololá	701	Sololá	4	Finca Santa Victoria	4	Abril	2023-04-24T00:00:00	2024-11-08T15:00:00	3	Temperatura mínima	15.5
103088	7	Sololá	701	Sololá	4	Finca Santa Victoria	4	Abril	2023-04-24T00:00:00	2024-11-08T15:00:00	5	Humedad	90
103089	7	Sololá	701	Sololá	4	Finca Santa Victoria	4	Abril	2023-04-24T00:00:00	2024-11-08T15:00:00	6	Velocidad del viento	4.8
103090	7	Sololá	701	Sololá	4	Finca Santa Victoria	4	Abril	2023-04-24T00:00:00	2024-11-08T15:00:00	7	Dirección del viento	4.83
103091	7	Sololá	701	Sololá	4	Finca Santa Victoria	4	Abril	2023-04-24T00:00:00	2024-11-08T15:00:00	1	Precipitación	0
103092	7	Sololá	701	Sololá	4	Finca Santa Victoria	4	Abril	2023-04-24T00:00:00	2024-11-08T15:00:00	8	Radiación solar	96
103093	7	Sololá	701	Sololá	4	Finca Santa Victoria	4	Abril	2023-04-24T00:00:00	2024-11-08T16:00:00	2	Temperatura media	13.5
103094	7	Sololá	701	Sololá	4	Finca Santa Victoria	4	Abril	2023-04-24T00:00:00	2024-11-08T16:00:00	4	Temperatura máxima	15.6
103095	7	Sololá	701	Sololá	4	Finca Santa Victoria	4	Abril	2023-04-24T00:00:00	2024-11-08T16:00:00	3	Temperatura mínima	13.5
103096	7	Sololá	701	Sololá	4	Finca Santa Victoria	4	Abril	2023-04-24T00:00:00	2024-11-08T16:00:00	5	Humedad	95
103097	7	Sololá	701	Sololá	4	Finca Santa Victoria	4	Abril	2023-04-24T00:00:00	2024-11-08T16:00:00	6	Velocidad del viento	1.6
103098	7	Sololá	701	Sololá	4	Finca Santa Victoria	4	Abril	2023-04-24T00:00:00	2024-11-08T16:00:00	7	Dirección del viento	1.61
103099	7	Sololá	701	Sololá	4	Finca Santa Victoria	4	Abril	2023-04-24T00:00:00	2024-11-08T16:00:00	1	Precipitación	6.8
103100	7	Sololá	701	Sololá	4	Finca Santa Victoria	4	Abril	2023-04-24T00:00:00	2024-11-08T16:00:00	8	Radiación solar	4
103101	7	Sololá	701	Sololá	4	Finca Santa Victoria	4	Abril	2023-04-24T00:00:00	2024-11-08T17:00:00	2	Temperatura media	13.2
103102	7	Sololá	701	Sololá	4	Finca Santa Victoria	4	Abril	2023-04-24T00:00:00	2024-11-08T17:00:00	4	Temperatura máxima	13.6
103103	7	Sololá	701	Sololá	4	Finca Santa Victoria	4	Abril	2023-04-24T00:00:00	2024-11-08T17:00:00	3	Temperatura mínima	13
103104	7	Sololá	701	Sololá	4	Finca Santa Victoria	4	Abril	2023-04-24T00:00:00	2024-11-08T17:00:00	5	Humedad	97
103105	7	Sololá	701	Sololá	4	Finca Santa Victoria	4	Abril	2023-04-24T00:00:00	2024-11-08T17:00:00	6	Velocidad del viento	1.6
103106	7	Sololá	701	Sololá	4	Finca Santa Victoria	4	Abril	2023-04-24T00:00:00	2024-11-08T17:00:00	7	Dirección del viento	1.61
103107	7	Sololá	701	Sololá	4	Finca Santa Victoria	4	Abril	2023-04-24T00:00:00	2024-11-08T17:00:00	1	Precipitación	21.6
103108	7	Sololá	701	Sololá	4	Finca Santa Victoria	4	Abril	2023-04-24T00:00:00	2024-11-08T17:00:00	8	Radiación solar	15
103109	7	Sololá	701	Sololá	4	Finca Santa Victoria	4	Abril	2023-04-24T00:00:00	2024-11-08T18:00:00	2	Temperatura media	12.8
103110	7	Sololá	701	Sololá	4	Finca Santa Victoria	4	Abril	2023-04-24T00:00:00	2024-11-08T18:00:00	4	Temperatura máxima	13.2
103111	7	Sololá	701	Sololá	4	Finca Santa Victoria	4	Abril	2023-04-24T00:00:00	2024-11-08T18:00:00	3	Temperatura mínima	12.7
103112	7	Sololá	701	Sololá	4	Finca Santa Victoria	4	Abril	2023-04-24T00:00:00	2024-11-08T18:00:00	5	Humedad	97
103113	7	Sololá	701	Sololá	4	Finca Santa Victoria	4	Abril	2023-04-24T00:00:00	2024-11-08T18:00:00	6	Velocidad del viento	0
103114	7	Sololá	701	Sololá	4	Finca Santa Victoria	4	Abril	2023-04-24T00:00:00	2024-11-08T18:00:00	7	Dirección del viento	0
103115	7	Sololá	701	Sololá	4	Finca Santa Victoria	4	Abril	2023-04-24T00:00:00	2024-11-08T18:00:00	1	Precipitación	0.6
103116	7	Sololá	701	Sololá	4	Finca Santa Victoria	4	Abril	2023-04-24T00:00:00	2024-11-08T18:00:00	8	Radiación solar	9
103117	7	Sololá	701	Sololá	4	Finca Santa Victoria	4	Abril	2023-04-24T00:00:00	2024-11-08T19:00:00	2	Temperatura media	12.7
103118	7	Sololá	701	Sololá	4	Finca Santa Victoria	4	Abril	2023-04-24T00:00:00	2024-11-08T19:00:00	4	Temperatura máxima	12.8
103119	7	Sololá	701	Sololá	4	Finca Santa Victoria	4	Abril	2023-04-24T00:00:00	2024-11-08T19:00:00	3	Temperatura mínima	12.7
103120	7	Sololá	701	Sololá	4	Finca Santa Victoria	4	Abril	2023-04-24T00:00:00	2024-11-08T19:00:00	5	Humedad	97
103121	7	Sololá	701	Sololá	4	Finca Santa Victoria	4	Abril	2023-04-24T00:00:00	2024-11-08T19:00:00	6	Velocidad del viento	0
103122	7	Sololá	701	Sololá	4	Finca Santa Victoria	4	Abril	2023-04-24T00:00:00	2024-11-08T19:00:00	7	Dirección del viento	0
103123	7	Sololá	701	Sololá	4	Finca Santa Victoria	4	Abril	2023-04-24T00:00:00	2024-11-08T19:00:00	1	Precipitación	0
103124	7	Sololá	701	Sololá	4	Finca Santa Victoria	4	Abril	2023-04-24T00:00:00	2024-11-08T19:00:00	8	Radiación solar	0
103125	7	Sololá	701	Sololá	4	Finca Santa Victoria	4	Abril	2023-04-24T00:00:00	2024-11-08T20:00:00	2	Temperatura media	12.5
103126	7	Sololá	701	Sololá	4	Finca Santa Victoria	4	Abril	2023-04-24T00:00:00	2024-11-08T20:00:00	4	Temperatura máxima	12.8
103127	7	Sololá	701	Sololá	4	Finca Santa Victoria	4	Abril	2023-04-24T00:00:00	2024-11-08T20:00:00	3	Temperatura mínima	12.5
103128	7	Sololá	701	Sololá	4	Finca Santa Victoria	4	Abril	2023-04-24T00:00:00	2024-11-08T20:00:00	5	Humedad	97
103129	7	Sololá	701	Sololá	4	Finca Santa Victoria	4	Abril	2023-04-24T00:00:00	2024-11-08T20:00:00	6	Velocidad del viento	0
103130	7	Sololá	701	Sololá	4	Finca Santa Victoria	4	Abril	2023-04-24T00:00:00	2024-11-08T20:00:00	7	Dirección del viento	0
103131	7	Sololá	701	Sololá	4	Finca Santa Victoria	4	Abril	2023-04-24T00:00:00	2024-11-08T20:00:00	1	Precipitación	0
103132	7	Sololá	701	Sololá	4	Finca Santa Victoria	4	Abril	2023-04-24T00:00:00	2024-11-08T20:00:00	8	Radiación solar	0
103133	7	Sololá	701	Sololá	4	Finca Santa Victoria	4	Abril	2023-04-24T00:00:00	2024-11-08T21:00:00	2	Temperatura media	12.9
103134	7	Sololá	701	Sololá	4	Finca Santa Victoria	4	Abril	2023-04-24T00:00:00	2024-11-08T21:00:00	4	Temperatura máxima	12.9
103135	7	Sololá	701	Sololá	4	Finca Santa Victoria	4	Abril	2023-04-24T00:00:00	2024-11-08T21:00:00	3	Temperatura mínima	12.4
103136	7	Sololá	701	Sololá	4	Finca Santa Victoria	4	Abril	2023-04-24T00:00:00	2024-11-08T21:00:00	5	Humedad	98
103137	7	Sololá	701	Sololá	4	Finca Santa Victoria	4	Abril	2023-04-24T00:00:00	2024-11-08T21:00:00	6	Velocidad del viento	0
103138	7	Sololá	701	Sololá	4	Finca Santa Victoria	4	Abril	2023-04-24T00:00:00	2024-11-08T21:00:00	7	Dirección del viento	0
103139	7	Sololá	701	Sololá	4	Finca Santa Victoria	4	Abril	2023-04-24T00:00:00	2024-11-08T21:00:00	1	Precipitación	0
103140	7	Sololá	701	Sololá	4	Finca Santa Victoria	4	Abril	2023-04-24T00:00:00	2024-11-08T21:00:00	8	Radiación solar	0
103141	7	Sololá	701	Sololá	4	Finca Santa Victoria	4	Abril	2023-04-24T00:00:00	2024-11-08T22:00:00	2	Temperatura media	12.9
103142	7	Sololá	701	Sololá	4	Finca Santa Victoria	4	Abril	2023-04-24T00:00:00	2024-11-08T22:00:00	4	Temperatura máxima	13
103143	7	Sololá	701	Sololá	4	Finca Santa Victoria	4	Abril	2023-04-24T00:00:00	2024-11-08T22:00:00	3	Temperatura mínima	12.6
103144	7	Sololá	701	Sololá	4	Finca Santa Victoria	4	Abril	2023-04-24T00:00:00	2024-11-08T22:00:00	5	Humedad	98
103145	7	Sololá	701	Sololá	4	Finca Santa Victoria	4	Abril	2023-04-24T00:00:00	2024-11-08T22:00:00	6	Velocidad del viento	1.6
103146	7	Sololá	701	Sololá	4	Finca Santa Victoria	4	Abril	2023-04-24T00:00:00	2024-11-08T22:00:00	7	Dirección del viento	1.61
103147	7	Sololá	701	Sololá	4	Finca Santa Victoria	4	Abril	2023-04-24T00:00:00	2024-11-08T22:00:00	1	Precipitación	0
103148	7	Sololá	701	Sololá	4	Finca Santa Victoria	4	Abril	2023-04-24T00:00:00	2024-11-08T22:00:00	8	Radiación solar	0
103149	7	Sololá	701	Sololá	4	Finca Santa Victoria	4	Abril	2023-04-24T00:00:00	2024-11-08T23:00:00	2	Temperatura media	12.7
103150	7	Sololá	701	Sololá	4	Finca Santa Victoria	4	Abril	2023-04-24T00:00:00	2024-11-08T23:00:00	4	Temperatura máxima	12.9
103151	7	Sololá	701	Sololá	4	Finca Santa Victoria	4	Abril	2023-04-24T00:00:00	2024-11-08T23:00:00	3	Temperatura mínima	12.6
103152	7	Sololá	701	Sololá	4	Finca Santa Victoria	4	Abril	2023-04-24T00:00:00	2024-11-08T23:00:00	5	Humedad	98
103153	7	Sololá	701	Sololá	4	Finca Santa Victoria	4	Abril	2023-04-24T00:00:00	2024-11-08T23:00:00	6	Velocidad del viento	1.6
103154	7	Sololá	701	Sololá	4	Finca Santa Victoria	4	Abril	2023-04-24T00:00:00	2024-11-08T23:00:00	7	Dirección del viento	1.61
103155	7	Sololá	701	Sololá	4	Finca Santa Victoria	4	Abril	2023-04-24T00:00:00	2024-11-08T23:00:00	1	Precipitación	0
103156	7	Sololá	701	Sololá	4	Finca Santa Victoria	4	Abril	2023-04-24T00:00:00	2024-11-08T23:00:00	8	Radiación solar	0
103157	7	Sololá	701	Sololá	4	Finca Santa Victoria	4	Abril	2023-04-25T00:00:00	2024-11-08T00:00:00	2	Temperatura media	12.7
103158	7	Sololá	701	Sololá	4	Finca Santa Victoria	4	Abril	2023-04-25T00:00:00	2024-11-08T00:00:00	4	Temperatura máxima	12.8
103159	7	Sololá	701	Sololá	4	Finca Santa Victoria	4	Abril	2023-04-25T00:00:00	2024-11-08T00:00:00	3	Temperatura mínima	12.7
103160	7	Sololá	701	Sololá	4	Finca Santa Victoria	4	Abril	2023-04-25T00:00:00	2024-11-08T00:00:00	5	Humedad	96
103161	7	Sololá	701	Sololá	4	Finca Santa Victoria	4	Abril	2023-04-25T00:00:00	2024-11-08T00:00:00	6	Velocidad del viento	1.6
103162	7	Sololá	701	Sololá	4	Finca Santa Victoria	4	Abril	2023-04-25T00:00:00	2024-11-08T00:00:00	7	Dirección del viento	1.61
103163	7	Sololá	701	Sololá	4	Finca Santa Victoria	4	Abril	2023-04-25T00:00:00	2024-11-08T00:00:00	1	Precipitación	0
103164	7	Sololá	701	Sololá	4	Finca Santa Victoria	4	Abril	2023-04-25T00:00:00	2024-11-08T00:00:00	8	Radiación solar	0
103165	7	Sololá	701	Sololá	4	Finca Santa Victoria	4	Abril	2023-04-25T00:00:00	2024-11-08T01:00:00	2	Temperatura media	12.5
103166	7	Sololá	701	Sololá	4	Finca Santa Victoria	4	Abril	2023-04-25T00:00:00	2024-11-08T01:00:00	4	Temperatura máxima	12.7
103167	7	Sololá	701	Sololá	4	Finca Santa Victoria	4	Abril	2023-04-25T00:00:00	2024-11-08T01:00:00	3	Temperatura mínima	12.4
103168	7	Sololá	701	Sololá	4	Finca Santa Victoria	4	Abril	2023-04-25T00:00:00	2024-11-08T01:00:00	5	Humedad	96
103169	7	Sololá	701	Sololá	4	Finca Santa Victoria	4	Abril	2023-04-25T00:00:00	2024-11-08T01:00:00	6	Velocidad del viento	1.6
103170	7	Sololá	701	Sololá	4	Finca Santa Victoria	4	Abril	2023-04-25T00:00:00	2024-11-08T01:00:00	7	Dirección del viento	1.61
103171	7	Sololá	701	Sololá	4	Finca Santa Victoria	4	Abril	2023-04-25T00:00:00	2024-11-08T01:00:00	1	Precipitación	0
103172	7	Sololá	701	Sololá	4	Finca Santa Victoria	4	Abril	2023-04-25T00:00:00	2024-11-08T01:00:00	8	Radiación solar	0
103173	7	Sololá	701	Sololá	4	Finca Santa Victoria	4	Abril	2023-04-25T00:00:00	2024-11-08T02:00:00	2	Temperatura media	12
103174	7	Sololá	701	Sololá	4	Finca Santa Victoria	4	Abril	2023-04-25T00:00:00	2024-11-08T02:00:00	4	Temperatura máxima	12.6
103175	7	Sololá	701	Sololá	4	Finca Santa Victoria	4	Abril	2023-04-25T00:00:00	2024-11-08T02:00:00	3	Temperatura mínima	11.9
103176	7	Sololá	701	Sololá	4	Finca Santa Victoria	4	Abril	2023-04-25T00:00:00	2024-11-08T02:00:00	5	Humedad	94
103177	7	Sololá	701	Sololá	4	Finca Santa Victoria	4	Abril	2023-04-25T00:00:00	2024-11-08T02:00:00	6	Velocidad del viento	1.6
103178	7	Sololá	701	Sololá	4	Finca Santa Victoria	4	Abril	2023-04-25T00:00:00	2024-11-08T02:00:00	7	Dirección del viento	1.61
103179	7	Sololá	701	Sololá	4	Finca Santa Victoria	4	Abril	2023-04-25T00:00:00	2024-11-08T02:00:00	1	Precipitación	0
103180	7	Sololá	701	Sololá	4	Finca Santa Victoria	4	Abril	2023-04-25T00:00:00	2024-11-08T02:00:00	8	Radiación solar	0
103181	7	Sololá	701	Sololá	4	Finca Santa Victoria	4	Abril	2023-04-25T00:00:00	2024-11-08T03:00:00	2	Temperatura media	12.6
103182	7	Sololá	701	Sololá	4	Finca Santa Victoria	4	Abril	2023-04-25T00:00:00	2024-11-08T03:00:00	4	Temperatura máxima	12.6
103183	7	Sololá	701	Sololá	4	Finca Santa Victoria	4	Abril	2023-04-25T00:00:00	2024-11-08T03:00:00	3	Temperatura mínima	11.9
103184	7	Sololá	701	Sololá	4	Finca Santa Victoria	4	Abril	2023-04-25T00:00:00	2024-11-08T03:00:00	5	Humedad	92
103185	7	Sololá	701	Sololá	4	Finca Santa Victoria	4	Abril	2023-04-25T00:00:00	2024-11-08T03:00:00	6	Velocidad del viento	1.6
103186	7	Sololá	701	Sololá	4	Finca Santa Victoria	4	Abril	2023-04-25T00:00:00	2024-11-08T03:00:00	7	Dirección del viento	1.61
103187	7	Sololá	701	Sololá	4	Finca Santa Victoria	4	Abril	2023-04-25T00:00:00	2024-11-08T03:00:00	1	Precipitación	0
103188	7	Sololá	701	Sololá	4	Finca Santa Victoria	4	Abril	2023-04-25T00:00:00	2024-11-08T03:00:00	8	Radiación solar	0
103189	7	Sololá	701	Sololá	4	Finca Santa Victoria	4	Abril	2023-04-25T00:00:00	2024-11-08T04:00:00	2	Temperatura media	12.7
103190	7	Sololá	701	Sololá	4	Finca Santa Victoria	4	Abril	2023-04-25T00:00:00	2024-11-08T04:00:00	4	Temperatura máxima	12.7
103191	7	Sololá	701	Sololá	4	Finca Santa Victoria	4	Abril	2023-04-25T00:00:00	2024-11-08T04:00:00	3	Temperatura mínima	12.4
103192	7	Sololá	701	Sololá	4	Finca Santa Victoria	4	Abril	2023-04-25T00:00:00	2024-11-08T04:00:00	5	Humedad	90
103193	7	Sololá	701	Sololá	4	Finca Santa Victoria	4	Abril	2023-04-25T00:00:00	2024-11-08T04:00:00	6	Velocidad del viento	1.6
103194	7	Sololá	701	Sololá	4	Finca Santa Victoria	4	Abril	2023-04-25T00:00:00	2024-11-08T04:00:00	7	Dirección del viento	1.61
103195	7	Sololá	701	Sololá	4	Finca Santa Victoria	4	Abril	2023-04-25T00:00:00	2024-11-08T04:00:00	1	Precipitación	0
103196	7	Sololá	701	Sololá	4	Finca Santa Victoria	4	Abril	2023-04-25T00:00:00	2024-11-08T04:00:00	8	Radiación solar	0
103197	7	Sololá	701	Sololá	4	Finca Santa Victoria	4	Abril	2023-04-25T00:00:00	2024-11-08T05:00:00	2	Temperatura media	12.6
103198	7	Sololá	701	Sololá	4	Finca Santa Victoria	4	Abril	2023-04-25T00:00:00	2024-11-08T05:00:00	4	Temperatura máxima	12.7
103199	7	Sololá	701	Sololá	4	Finca Santa Victoria	4	Abril	2023-04-25T00:00:00	2024-11-08T05:00:00	3	Temperatura mínima	12.4
103200	7	Sololá	701	Sololá	4	Finca Santa Victoria	4	Abril	2023-04-25T00:00:00	2024-11-08T05:00:00	5	Humedad	89
103201	7	Sololá	701	Sololá	4	Finca Santa Victoria	4	Abril	2023-04-25T00:00:00	2024-11-08T05:00:00	6	Velocidad del viento	1.6
103202	7	Sololá	701	Sololá	4	Finca Santa Victoria	4	Abril	2023-04-25T00:00:00	2024-11-08T05:00:00	7	Dirección del viento	1.61
103203	7	Sololá	701	Sololá	4	Finca Santa Victoria	4	Abril	2023-04-25T00:00:00	2024-11-08T05:00:00	1	Precipitación	0
103204	7	Sololá	701	Sololá	4	Finca Santa Victoria	4	Abril	2023-04-25T00:00:00	2024-11-08T05:00:00	8	Radiación solar	0
103205	7	Sololá	701	Sololá	4	Finca Santa Victoria	4	Abril	2023-04-25T00:00:00	2024-11-08T06:00:00	2	Temperatura media	12.8
103206	7	Sololá	701	Sololá	4	Finca Santa Victoria	4	Abril	2023-04-25T00:00:00	2024-11-08T06:00:00	4	Temperatura máxima	12.8
103207	7	Sololá	701	Sololá	4	Finca Santa Victoria	4	Abril	2023-04-25T00:00:00	2024-11-08T06:00:00	3	Temperatura mínima	12.6
103208	7	Sololá	701	Sololá	4	Finca Santa Victoria	4	Abril	2023-04-25T00:00:00	2024-11-08T06:00:00	5	Humedad	86
103209	7	Sololá	701	Sololá	4	Finca Santa Victoria	4	Abril	2023-04-25T00:00:00	2024-11-08T06:00:00	6	Velocidad del viento	1.6
103210	7	Sololá	701	Sololá	4	Finca Santa Victoria	4	Abril	2023-04-25T00:00:00	2024-11-08T06:00:00	7	Dirección del viento	1.61
103211	7	Sololá	701	Sololá	4	Finca Santa Victoria	4	Abril	2023-04-25T00:00:00	2024-11-08T06:00:00	1	Precipitación	0
103212	7	Sololá	701	Sololá	4	Finca Santa Victoria	4	Abril	2023-04-25T00:00:00	2024-11-08T06:00:00	8	Radiación solar	1
103213	7	Sololá	701	Sololá	4	Finca Santa Victoria	4	Abril	2023-04-25T00:00:00	2024-11-08T07:00:00	2	Temperatura media	13.2
103214	7	Sololá	701	Sololá	4	Finca Santa Victoria	4	Abril	2023-04-25T00:00:00	2024-11-08T07:00:00	4	Temperatura máxima	13.2
103215	7	Sololá	701	Sololá	4	Finca Santa Victoria	4	Abril	2023-04-25T00:00:00	2024-11-08T07:00:00	3	Temperatura mínima	12.8
103216	7	Sololá	701	Sololá	4	Finca Santa Victoria	4	Abril	2023-04-25T00:00:00	2024-11-08T07:00:00	5	Humedad	87
103217	7	Sololá	701	Sololá	4	Finca Santa Victoria	4	Abril	2023-04-25T00:00:00	2024-11-08T07:00:00	6	Velocidad del viento	0
103218	7	Sololá	701	Sololá	4	Finca Santa Victoria	4	Abril	2023-04-25T00:00:00	2024-11-08T07:00:00	7	Dirección del viento	0
103219	7	Sololá	701	Sololá	4	Finca Santa Victoria	4	Abril	2023-04-25T00:00:00	2024-11-08T07:00:00	1	Precipitación	0
103220	7	Sololá	701	Sololá	4	Finca Santa Victoria	4	Abril	2023-04-25T00:00:00	2024-11-08T07:00:00	8	Radiación solar	30
103221	7	Sololá	701	Sololá	4	Finca Santa Victoria	4	Abril	2023-04-25T00:00:00	2024-11-08T08:00:00	2	Temperatura media	16.4
103222	7	Sololá	701	Sololá	4	Finca Santa Victoria	4	Abril	2023-04-25T00:00:00	2024-11-08T08:00:00	4	Temperatura máxima	16.4
103223	7	Sololá	701	Sololá	4	Finca Santa Victoria	4	Abril	2023-04-25T00:00:00	2024-11-08T08:00:00	3	Temperatura mínima	13.2
103224	7	Sololá	701	Sololá	4	Finca Santa Victoria	4	Abril	2023-04-25T00:00:00	2024-11-08T08:00:00	5	Humedad	80
103225	7	Sololá	701	Sololá	4	Finca Santa Victoria	4	Abril	2023-04-25T00:00:00	2024-11-08T08:00:00	6	Velocidad del viento	0
103226	7	Sololá	701	Sololá	4	Finca Santa Victoria	4	Abril	2023-04-25T00:00:00	2024-11-08T08:00:00	7	Dirección del viento	0
103227	7	Sololá	701	Sololá	4	Finca Santa Victoria	4	Abril	2023-04-25T00:00:00	2024-11-08T08:00:00	1	Precipitación	0
103228	7	Sololá	701	Sololá	4	Finca Santa Victoria	4	Abril	2023-04-25T00:00:00	2024-11-08T08:00:00	8	Radiación solar	216
103229	7	Sololá	701	Sololá	4	Finca Santa Victoria	4	Abril	2023-04-25T00:00:00	2024-11-08T09:00:00	2	Temperatura media	18.2
103230	7	Sololá	701	Sololá	4	Finca Santa Victoria	4	Abril	2023-04-25T00:00:00	2024-11-08T09:00:00	4	Temperatura máxima	18.2
103231	7	Sololá	701	Sololá	4	Finca Santa Victoria	4	Abril	2023-04-25T00:00:00	2024-11-08T09:00:00	3	Temperatura mínima	16.4
103232	7	Sololá	701	Sololá	4	Finca Santa Victoria	4	Abril	2023-04-25T00:00:00	2024-11-08T09:00:00	5	Humedad	73
103233	7	Sololá	701	Sololá	4	Finca Santa Victoria	4	Abril	2023-04-25T00:00:00	2024-11-08T09:00:00	6	Velocidad del viento	1.6
103234	7	Sololá	701	Sololá	4	Finca Santa Victoria	4	Abril	2023-04-25T00:00:00	2024-11-08T09:00:00	7	Dirección del viento	1.61
103235	7	Sololá	701	Sololá	4	Finca Santa Victoria	4	Abril	2023-04-25T00:00:00	2024-11-08T09:00:00	1	Precipitación	0
103236	7	Sololá	701	Sololá	4	Finca Santa Victoria	4	Abril	2023-04-25T00:00:00	2024-11-08T09:00:00	8	Radiación solar	442
103237	7	Sololá	701	Sololá	4	Finca Santa Victoria	4	Abril	2023-04-25T00:00:00	2024-11-08T10:00:00	2	Temperatura media	19.3
103238	7	Sololá	701	Sololá	4	Finca Santa Victoria	4	Abril	2023-04-25T00:00:00	2024-11-08T10:00:00	4	Temperatura máxima	19.3
103239	7	Sololá	701	Sololá	4	Finca Santa Victoria	4	Abril	2023-04-25T00:00:00	2024-11-08T10:00:00	3	Temperatura mínima	18.2
103240	7	Sololá	701	Sololá	4	Finca Santa Victoria	4	Abril	2023-04-25T00:00:00	2024-11-08T10:00:00	5	Humedad	72
103241	7	Sololá	701	Sololá	4	Finca Santa Victoria	4	Abril	2023-04-25T00:00:00	2024-11-08T10:00:00	6	Velocidad del viento	3.2
103242	7	Sololá	701	Sololá	4	Finca Santa Victoria	4	Abril	2023-04-25T00:00:00	2024-11-08T10:00:00	7	Dirección del viento	3.22
103243	7	Sololá	701	Sololá	4	Finca Santa Victoria	4	Abril	2023-04-25T00:00:00	2024-11-08T10:00:00	1	Precipitación	0
103244	7	Sololá	701	Sololá	4	Finca Santa Victoria	4	Abril	2023-04-25T00:00:00	2024-11-08T10:00:00	8	Radiación solar	249
103245	7	Sololá	701	Sololá	4	Finca Santa Victoria	4	Abril	2023-04-25T00:00:00	2024-11-08T11:00:00	2	Temperatura media	20.1
103246	7	Sololá	701	Sololá	4	Finca Santa Victoria	4	Abril	2023-04-25T00:00:00	2024-11-08T11:00:00	4	Temperatura máxima	20.1
103247	7	Sololá	701	Sololá	4	Finca Santa Victoria	4	Abril	2023-04-25T00:00:00	2024-11-08T11:00:00	3	Temperatura mínima	19.2
103248	7	Sololá	701	Sololá	4	Finca Santa Victoria	4	Abril	2023-04-25T00:00:00	2024-11-08T11:00:00	5	Humedad	70
103249	7	Sololá	701	Sololá	4	Finca Santa Victoria	4	Abril	2023-04-25T00:00:00	2024-11-08T11:00:00	6	Velocidad del viento	3.2
103250	7	Sololá	701	Sololá	4	Finca Santa Victoria	4	Abril	2023-04-25T00:00:00	2024-11-08T11:00:00	7	Dirección del viento	3.22
103251	7	Sololá	701	Sololá	4	Finca Santa Victoria	4	Abril	2023-04-25T00:00:00	2024-11-08T11:00:00	1	Precipitación	0
103252	7	Sololá	701	Sololá	4	Finca Santa Victoria	4	Abril	2023-04-25T00:00:00	2024-11-08T11:00:00	8	Radiación solar	879
103253	7	Sololá	701	Sololá	4	Finca Santa Victoria	4	Abril	2023-04-25T00:00:00	2024-11-08T12:00:00	2	Temperatura media	19.6
103254	7	Sololá	701	Sololá	4	Finca Santa Victoria	4	Abril	2023-04-25T00:00:00	2024-11-08T12:00:00	4	Temperatura máxima	20.2
103255	7	Sololá	701	Sololá	4	Finca Santa Victoria	4	Abril	2023-04-25T00:00:00	2024-11-08T12:00:00	3	Temperatura mínima	19.2
103256	7	Sololá	701	Sololá	4	Finca Santa Victoria	4	Abril	2023-04-25T00:00:00	2024-11-08T12:00:00	5	Humedad	76
103257	7	Sololá	701	Sololá	4	Finca Santa Victoria	4	Abril	2023-04-25T00:00:00	2024-11-08T12:00:00	6	Velocidad del viento	4.8
103258	7	Sololá	701	Sololá	4	Finca Santa Victoria	4	Abril	2023-04-25T00:00:00	2024-11-08T12:00:00	7	Dirección del viento	4.83
103259	7	Sololá	701	Sololá	4	Finca Santa Victoria	4	Abril	2023-04-25T00:00:00	2024-11-08T12:00:00	1	Precipitación	0
103260	7	Sololá	701	Sololá	4	Finca Santa Victoria	4	Abril	2023-04-25T00:00:00	2024-11-08T12:00:00	8	Radiación solar	951
103261	7	Sololá	701	Sololá	4	Finca Santa Victoria	4	Abril	2023-04-25T00:00:00	2024-11-08T13:00:00	2	Temperatura media	18.8
103262	7	Sololá	701	Sololá	4	Finca Santa Victoria	4	Abril	2023-04-25T00:00:00	2024-11-08T13:00:00	4	Temperatura máxima	19.8
103263	7	Sololá	701	Sololá	4	Finca Santa Victoria	4	Abril	2023-04-25T00:00:00	2024-11-08T13:00:00	3	Temperatura mínima	18.8
103264	7	Sololá	701	Sololá	4	Finca Santa Victoria	4	Abril	2023-04-25T00:00:00	2024-11-08T13:00:00	5	Humedad	79
103265	7	Sololá	701	Sololá	4	Finca Santa Victoria	4	Abril	2023-04-25T00:00:00	2024-11-08T13:00:00	6	Velocidad del viento	4.8
103266	7	Sololá	701	Sololá	4	Finca Santa Victoria	4	Abril	2023-04-25T00:00:00	2024-11-08T13:00:00	7	Dirección del viento	4.83
103267	7	Sololá	701	Sololá	4	Finca Santa Victoria	4	Abril	2023-04-25T00:00:00	2024-11-08T13:00:00	1	Precipitación	0
103268	7	Sololá	701	Sololá	4	Finca Santa Victoria	4	Abril	2023-04-25T00:00:00	2024-11-08T13:00:00	8	Radiación solar	568
103269	7	Sololá	701	Sololá	4	Finca Santa Victoria	4	Abril	2023-04-25T00:00:00	2024-11-08T14:00:00	2	Temperatura media	18.3
103270	7	Sololá	701	Sololá	4	Finca Santa Victoria	4	Abril	2023-04-25T00:00:00	2024-11-08T14:00:00	4	Temperatura máxima	19.2
103271	7	Sololá	701	Sololá	4	Finca Santa Victoria	4	Abril	2023-04-25T00:00:00	2024-11-08T14:00:00	3	Temperatura mínima	18.2
103272	7	Sololá	701	Sololá	4	Finca Santa Victoria	4	Abril	2023-04-25T00:00:00	2024-11-08T14:00:00	5	Humedad	83
103273	7	Sololá	701	Sololá	4	Finca Santa Victoria	4	Abril	2023-04-25T00:00:00	2024-11-08T14:00:00	6	Velocidad del viento	4.8
103274	7	Sololá	701	Sololá	4	Finca Santa Victoria	4	Abril	2023-04-25T00:00:00	2024-11-08T14:00:00	7	Dirección del viento	4.83
103275	7	Sololá	701	Sololá	4	Finca Santa Victoria	4	Abril	2023-04-25T00:00:00	2024-11-08T14:00:00	1	Precipitación	0
103276	7	Sololá	701	Sololá	4	Finca Santa Victoria	4	Abril	2023-04-25T00:00:00	2024-11-08T14:00:00	8	Radiación solar	254
103277	7	Sololá	701	Sololá	4	Finca Santa Victoria	4	Abril	2023-04-25T00:00:00	2024-11-08T15:00:00	2	Temperatura media	16.7
103278	7	Sololá	701	Sololá	4	Finca Santa Victoria	4	Abril	2023-04-25T00:00:00	2024-11-08T15:00:00	4	Temperatura máxima	18.3
103279	7	Sololá	701	Sololá	4	Finca Santa Victoria	4	Abril	2023-04-25T00:00:00	2024-11-08T15:00:00	3	Temperatura mínima	16.7
103280	7	Sololá	701	Sololá	4	Finca Santa Victoria	4	Abril	2023-04-25T00:00:00	2024-11-08T15:00:00	5	Humedad	88
103281	7	Sololá	701	Sololá	4	Finca Santa Victoria	4	Abril	2023-04-25T00:00:00	2024-11-08T15:00:00	6	Velocidad del viento	3.2
103282	7	Sololá	701	Sololá	4	Finca Santa Victoria	4	Abril	2023-04-25T00:00:00	2024-11-08T15:00:00	7	Dirección del viento	3.22
103283	7	Sololá	701	Sololá	4	Finca Santa Victoria	4	Abril	2023-04-25T00:00:00	2024-11-08T15:00:00	1	Precipitación	0
103284	7	Sololá	701	Sololá	4	Finca Santa Victoria	4	Abril	2023-04-25T00:00:00	2024-11-08T15:00:00	8	Radiación solar	106
103285	7	Sololá	701	Sololá	4	Finca Santa Victoria	4	Abril	2023-04-25T00:00:00	2024-11-08T16:00:00	2	Temperatura media	16.4
103286	7	Sololá	701	Sololá	4	Finca Santa Victoria	4	Abril	2023-04-25T00:00:00	2024-11-08T16:00:00	4	Temperatura máxima	16.8
103287	7	Sololá	701	Sololá	4	Finca Santa Victoria	4	Abril	2023-04-25T00:00:00	2024-11-08T16:00:00	3	Temperatura mínima	16.3
103288	7	Sololá	701	Sololá	4	Finca Santa Victoria	4	Abril	2023-04-25T00:00:00	2024-11-08T16:00:00	5	Humedad	92
103289	7	Sololá	701	Sololá	4	Finca Santa Victoria	4	Abril	2023-04-25T00:00:00	2024-11-08T16:00:00	6	Velocidad del viento	3.2
103290	7	Sololá	701	Sololá	4	Finca Santa Victoria	4	Abril	2023-04-25T00:00:00	2024-11-08T16:00:00	7	Dirección del viento	3.22
103291	7	Sololá	701	Sololá	4	Finca Santa Victoria	4	Abril	2023-04-25T00:00:00	2024-11-08T16:00:00	1	Precipitación	0
103292	7	Sololá	701	Sololá	4	Finca Santa Victoria	4	Abril	2023-04-25T00:00:00	2024-11-08T16:00:00	8	Radiación solar	116
103293	7	Sololá	701	Sololá	4	Finca Santa Victoria	4	Abril	2023-04-25T00:00:00	2024-11-08T17:00:00	2	Temperatura media	15.8
103294	7	Sololá	701	Sololá	4	Finca Santa Victoria	4	Abril	2023-04-25T00:00:00	2024-11-08T17:00:00	4	Temperatura máxima	16.6
103295	7	Sololá	701	Sololá	4	Finca Santa Victoria	4	Abril	2023-04-25T00:00:00	2024-11-08T17:00:00	3	Temperatura mínima	15.8
103296	7	Sololá	701	Sololá	4	Finca Santa Victoria	4	Abril	2023-04-25T00:00:00	2024-11-08T17:00:00	5	Humedad	94
103297	7	Sololá	701	Sololá	4	Finca Santa Victoria	4	Abril	2023-04-25T00:00:00	2024-11-08T17:00:00	6	Velocidad del viento	1.6
103298	7	Sololá	701	Sololá	4	Finca Santa Victoria	4	Abril	2023-04-25T00:00:00	2024-11-08T17:00:00	7	Dirección del viento	1.61
103299	7	Sololá	701	Sololá	4	Finca Santa Victoria	4	Abril	2023-04-25T00:00:00	2024-11-08T17:00:00	1	Precipitación	0
103300	7	Sololá	701	Sololá	4	Finca Santa Victoria	4	Abril	2023-04-25T00:00:00	2024-11-08T17:00:00	8	Radiación solar	48
103301	7	Sololá	701	Sololá	4	Finca Santa Victoria	4	Abril	2023-04-25T00:00:00	2024-11-08T18:00:00	2	Temperatura media	15.6
103302	7	Sololá	701	Sololá	4	Finca Santa Victoria	4	Abril	2023-04-25T00:00:00	2024-11-08T18:00:00	4	Temperatura máxima	15.9
103303	7	Sololá	701	Sololá	4	Finca Santa Victoria	4	Abril	2023-04-25T00:00:00	2024-11-08T18:00:00	3	Temperatura mínima	15.6
103304	7	Sololá	701	Sololá	4	Finca Santa Victoria	4	Abril	2023-04-25T00:00:00	2024-11-08T18:00:00	5	Humedad	96
103305	7	Sololá	701	Sololá	4	Finca Santa Victoria	4	Abril	2023-04-25T00:00:00	2024-11-08T18:00:00	6	Velocidad del viento	1.6
103306	7	Sololá	701	Sololá	4	Finca Santa Victoria	4	Abril	2023-04-25T00:00:00	2024-11-08T18:00:00	7	Dirección del viento	1.61
103307	7	Sololá	701	Sololá	4	Finca Santa Victoria	4	Abril	2023-04-25T00:00:00	2024-11-08T18:00:00	1	Precipitación	0.2
103308	7	Sololá	701	Sololá	4	Finca Santa Victoria	4	Abril	2023-04-25T00:00:00	2024-11-08T18:00:00	8	Radiación solar	26
103309	7	Sololá	701	Sololá	4	Finca Santa Victoria	4	Abril	2023-04-25T00:00:00	2024-11-08T19:00:00	2	Temperatura media	15.3
103310	7	Sololá	701	Sololá	4	Finca Santa Victoria	4	Abril	2023-04-25T00:00:00	2024-11-08T19:00:00	4	Temperatura máxima	15.6
103311	7	Sololá	701	Sololá	4	Finca Santa Victoria	4	Abril	2023-04-25T00:00:00	2024-11-08T19:00:00	3	Temperatura mínima	15.2
103312	7	Sololá	701	Sololá	4	Finca Santa Victoria	4	Abril	2023-04-25T00:00:00	2024-11-08T19:00:00	5	Humedad	97
103313	7	Sololá	701	Sololá	4	Finca Santa Victoria	4	Abril	2023-04-25T00:00:00	2024-11-08T19:00:00	6	Velocidad del viento	0
103314	7	Sololá	701	Sololá	4	Finca Santa Victoria	4	Abril	2023-04-25T00:00:00	2024-11-08T19:00:00	7	Dirección del viento	0
103315	7	Sololá	701	Sololá	4	Finca Santa Victoria	4	Abril	2023-04-25T00:00:00	2024-11-08T19:00:00	1	Precipitación	0
103316	7	Sololá	701	Sololá	4	Finca Santa Victoria	4	Abril	2023-04-25T00:00:00	2024-11-08T19:00:00	8	Radiación solar	0
103317	7	Sololá	701	Sololá	4	Finca Santa Victoria	4	Abril	2023-04-25T00:00:00	2024-11-08T20:00:00	2	Temperatura media	15
103318	7	Sololá	701	Sololá	4	Finca Santa Victoria	4	Abril	2023-04-25T00:00:00	2024-11-08T20:00:00	4	Temperatura máxima	15.3
103319	7	Sololá	701	Sololá	4	Finca Santa Victoria	4	Abril	2023-04-25T00:00:00	2024-11-08T20:00:00	3	Temperatura mínima	15
103320	7	Sololá	701	Sololá	4	Finca Santa Victoria	4	Abril	2023-04-25T00:00:00	2024-11-08T20:00:00	5	Humedad	97
103321	7	Sololá	701	Sololá	4	Finca Santa Victoria	4	Abril	2023-04-25T00:00:00	2024-11-08T20:00:00	6	Velocidad del viento	0
103322	7	Sololá	701	Sololá	4	Finca Santa Victoria	4	Abril	2023-04-25T00:00:00	2024-11-08T20:00:00	7	Dirección del viento	0
103323	7	Sololá	701	Sololá	4	Finca Santa Victoria	4	Abril	2023-04-25T00:00:00	2024-11-08T20:00:00	1	Precipitación	0
103324	7	Sololá	701	Sololá	4	Finca Santa Victoria	4	Abril	2023-04-25T00:00:00	2024-11-08T20:00:00	8	Radiación solar	0
103325	7	Sololá	701	Sololá	4	Finca Santa Victoria	4	Abril	2023-04-25T00:00:00	2024-11-08T21:00:00	2	Temperatura media	14.5
103326	7	Sololá	701	Sololá	4	Finca Santa Victoria	4	Abril	2023-04-25T00:00:00	2024-11-08T21:00:00	4	Temperatura máxima	15
103327	7	Sololá	701	Sololá	4	Finca Santa Victoria	4	Abril	2023-04-25T00:00:00	2024-11-08T21:00:00	3	Temperatura mínima	14.5
103328	7	Sololá	701	Sololá	4	Finca Santa Victoria	4	Abril	2023-04-25T00:00:00	2024-11-08T21:00:00	5	Humedad	97
103329	7	Sololá	701	Sololá	4	Finca Santa Victoria	4	Abril	2023-04-25T00:00:00	2024-11-08T21:00:00	6	Velocidad del viento	0
103330	7	Sololá	701	Sololá	4	Finca Santa Victoria	4	Abril	2023-04-25T00:00:00	2024-11-08T21:00:00	7	Dirección del viento	0
103331	7	Sololá	701	Sololá	4	Finca Santa Victoria	4	Abril	2023-04-25T00:00:00	2024-11-08T21:00:00	1	Precipitación	0
103332	7	Sololá	701	Sololá	4	Finca Santa Victoria	4	Abril	2023-04-25T00:00:00	2024-11-08T21:00:00	8	Radiación solar	0
103333	7	Sololá	701	Sololá	4	Finca Santa Victoria	4	Abril	2023-04-25T00:00:00	2024-11-08T22:00:00	2	Temperatura media	14.3
103334	7	Sololá	701	Sololá	4	Finca Santa Victoria	4	Abril	2023-04-25T00:00:00	2024-11-08T22:00:00	4	Temperatura máxima	14.5
103335	7	Sololá	701	Sololá	4	Finca Santa Victoria	4	Abril	2023-04-25T00:00:00	2024-11-08T22:00:00	3	Temperatura mínima	14.2
103336	7	Sololá	701	Sololá	4	Finca Santa Victoria	4	Abril	2023-04-25T00:00:00	2024-11-08T22:00:00	5	Humedad	97
103337	7	Sololá	701	Sololá	4	Finca Santa Victoria	4	Abril	2023-04-25T00:00:00	2024-11-08T22:00:00	6	Velocidad del viento	1.6
103338	7	Sololá	701	Sololá	4	Finca Santa Victoria	4	Abril	2023-04-25T00:00:00	2024-11-08T22:00:00	7	Dirección del viento	1.61
103339	7	Sololá	701	Sololá	4	Finca Santa Victoria	4	Abril	2023-04-25T00:00:00	2024-11-08T22:00:00	1	Precipitación	0
103340	7	Sololá	701	Sololá	4	Finca Santa Victoria	4	Abril	2023-04-25T00:00:00	2024-11-08T22:00:00	8	Radiación solar	0
103341	7	Sololá	701	Sololá	4	Finca Santa Victoria	4	Abril	2023-04-25T00:00:00	2024-11-08T23:00:00	2	Temperatura media	14.2
103342	7	Sololá	701	Sololá	4	Finca Santa Victoria	4	Abril	2023-04-25T00:00:00	2024-11-08T23:00:00	4	Temperatura máxima	14.4
103343	7	Sololá	701	Sololá	4	Finca Santa Victoria	4	Abril	2023-04-25T00:00:00	2024-11-08T23:00:00	3	Temperatura mínima	14.1
103344	7	Sololá	701	Sololá	4	Finca Santa Victoria	4	Abril	2023-04-25T00:00:00	2024-11-08T23:00:00	5	Humedad	97
103345	7	Sololá	701	Sololá	4	Finca Santa Victoria	4	Abril	2023-04-25T00:00:00	2024-11-08T23:00:00	6	Velocidad del viento	0
103346	7	Sololá	701	Sololá	4	Finca Santa Victoria	4	Abril	2023-04-25T00:00:00	2024-11-08T23:00:00	7	Dirección del viento	0
103347	7	Sololá	701	Sololá	4	Finca Santa Victoria	4	Abril	2023-04-25T00:00:00	2024-11-08T23:00:00	1	Precipitación	0
103348	7	Sololá	701	Sololá	4	Finca Santa Victoria	4	Abril	2023-04-25T00:00:00	2024-11-08T23:00:00	8	Radiación solar	0
103349	7	Sololá	701	Sololá	4	Finca Santa Victoria	4	Abril	2023-04-26T00:00:00	2024-11-08T00:00:00	2	Temperatura media	14.3
103350	7	Sololá	701	Sololá	4	Finca Santa Victoria	4	Abril	2023-04-26T00:00:00	2024-11-08T00:00:00	4	Temperatura máxima	14.3
103351	7	Sololá	701	Sololá	4	Finca Santa Victoria	4	Abril	2023-04-26T00:00:00	2024-11-08T00:00:00	3	Temperatura mínima	14.1
103352	7	Sololá	701	Sololá	4	Finca Santa Victoria	4	Abril	2023-04-26T00:00:00	2024-11-08T00:00:00	5	Humedad	98
103353	7	Sololá	701	Sololá	4	Finca Santa Victoria	4	Abril	2023-04-26T00:00:00	2024-11-08T00:00:00	6	Velocidad del viento	0
103354	7	Sololá	701	Sololá	4	Finca Santa Victoria	4	Abril	2023-04-26T00:00:00	2024-11-08T00:00:00	7	Dirección del viento	0
103355	7	Sololá	701	Sololá	4	Finca Santa Victoria	4	Abril	2023-04-26T00:00:00	2024-11-08T00:00:00	1	Precipitación	0
103356	7	Sololá	701	Sololá	4	Finca Santa Victoria	4	Abril	2023-04-26T00:00:00	2024-11-08T00:00:00	8	Radiación solar	0
103357	7	Sololá	701	Sololá	4	Finca Santa Victoria	4	Abril	2023-04-26T00:00:00	2024-11-08T01:00:00	2	Temperatura media	14.3
103358	7	Sololá	701	Sololá	4	Finca Santa Victoria	4	Abril	2023-04-26T00:00:00	2024-11-08T01:00:00	4	Temperatura máxima	14.4
103359	7	Sololá	701	Sololá	4	Finca Santa Victoria	4	Abril	2023-04-26T00:00:00	2024-11-08T01:00:00	3	Temperatura mínima	14.3
103360	7	Sololá	701	Sololá	4	Finca Santa Victoria	4	Abril	2023-04-26T00:00:00	2024-11-08T01:00:00	5	Humedad	98
103361	7	Sololá	701	Sololá	4	Finca Santa Victoria	4	Abril	2023-04-26T00:00:00	2024-11-08T01:00:00	6	Velocidad del viento	0
103362	7	Sololá	701	Sololá	4	Finca Santa Victoria	4	Abril	2023-04-26T00:00:00	2024-11-08T01:00:00	7	Dirección del viento	0
103363	7	Sololá	701	Sololá	4	Finca Santa Victoria	4	Abril	2023-04-26T00:00:00	2024-11-08T01:00:00	1	Precipitación	0
103364	7	Sololá	701	Sololá	4	Finca Santa Victoria	4	Abril	2023-04-26T00:00:00	2024-11-08T01:00:00	8	Radiación solar	0
103365	7	Sololá	701	Sololá	4	Finca Santa Victoria	4	Abril	2023-04-26T00:00:00	2024-11-08T02:00:00	2	Temperatura media	14.1
103366	7	Sololá	701	Sololá	4	Finca Santa Victoria	4	Abril	2023-04-26T00:00:00	2024-11-08T02:00:00	4	Temperatura máxima	14.4
103367	7	Sololá	701	Sololá	4	Finca Santa Victoria	4	Abril	2023-04-26T00:00:00	2024-11-08T02:00:00	3	Temperatura mínima	14.1
103368	7	Sololá	701	Sololá	4	Finca Santa Victoria	4	Abril	2023-04-26T00:00:00	2024-11-08T02:00:00	5	Humedad	97
103369	7	Sololá	701	Sololá	4	Finca Santa Victoria	4	Abril	2023-04-26T00:00:00	2024-11-08T02:00:00	6	Velocidad del viento	0
103370	7	Sololá	701	Sololá	4	Finca Santa Victoria	4	Abril	2023-04-26T00:00:00	2024-11-08T02:00:00	7	Dirección del viento	0
103371	7	Sololá	701	Sololá	4	Finca Santa Victoria	4	Abril	2023-04-26T00:00:00	2024-11-08T02:00:00	1	Precipitación	0
103372	7	Sololá	701	Sololá	4	Finca Santa Victoria	4	Abril	2023-04-26T00:00:00	2024-11-08T02:00:00	8	Radiación solar	0
103373	7	Sololá	701	Sololá	4	Finca Santa Victoria	4	Abril	2023-04-26T00:00:00	2024-11-08T03:00:00	2	Temperatura media	13.7
103374	7	Sololá	701	Sololá	4	Finca Santa Victoria	4	Abril	2023-04-26T00:00:00	2024-11-08T03:00:00	4	Temperatura máxima	14.1
103375	7	Sololá	701	Sololá	4	Finca Santa Victoria	4	Abril	2023-04-26T00:00:00	2024-11-08T03:00:00	3	Temperatura mínima	13.7
103376	7	Sololá	701	Sololá	4	Finca Santa Victoria	4	Abril	2023-04-26T00:00:00	2024-11-08T03:00:00	5	Humedad	96
103377	7	Sololá	701	Sololá	4	Finca Santa Victoria	4	Abril	2023-04-26T00:00:00	2024-11-08T03:00:00	6	Velocidad del viento	0
103378	7	Sololá	701	Sololá	4	Finca Santa Victoria	4	Abril	2023-04-26T00:00:00	2024-11-08T03:00:00	7	Dirección del viento	0
103379	7	Sololá	701	Sololá	4	Finca Santa Victoria	4	Abril	2023-04-26T00:00:00	2024-11-08T03:00:00	1	Precipitación	0
103380	7	Sololá	701	Sololá	4	Finca Santa Victoria	4	Abril	2023-04-26T00:00:00	2024-11-08T03:00:00	8	Radiación solar	0
103381	7	Sololá	701	Sololá	4	Finca Santa Victoria	4	Abril	2023-04-26T00:00:00	2024-11-08T04:00:00	2	Temperatura media	13.7
103382	7	Sololá	701	Sololá	4	Finca Santa Victoria	4	Abril	2023-04-26T00:00:00	2024-11-08T04:00:00	4	Temperatura máxima	13.7
103383	7	Sololá	701	Sololá	4	Finca Santa Victoria	4	Abril	2023-04-26T00:00:00	2024-11-08T04:00:00	3	Temperatura mínima	13.5
103384	7	Sololá	701	Sololá	4	Finca Santa Victoria	4	Abril	2023-04-26T00:00:00	2024-11-08T04:00:00	5	Humedad	93
103385	7	Sololá	701	Sololá	4	Finca Santa Victoria	4	Abril	2023-04-26T00:00:00	2024-11-08T04:00:00	6	Velocidad del viento	0
103386	7	Sololá	701	Sololá	4	Finca Santa Victoria	4	Abril	2023-04-26T00:00:00	2024-11-08T04:00:00	7	Dirección del viento	0
103387	7	Sololá	701	Sololá	4	Finca Santa Victoria	4	Abril	2023-04-26T00:00:00	2024-11-08T04:00:00	1	Precipitación	0
103388	7	Sololá	701	Sololá	4	Finca Santa Victoria	4	Abril	2023-04-26T00:00:00	2024-11-08T04:00:00	8	Radiación solar	0
103389	7	Sololá	701	Sololá	4	Finca Santa Victoria	4	Abril	2023-04-26T00:00:00	2024-11-08T05:00:00	2	Temperatura media	13.4
103390	7	Sololá	701	Sololá	4	Finca Santa Victoria	4	Abril	2023-04-26T00:00:00	2024-11-08T05:00:00	4	Temperatura máxima	13.7
103391	7	Sololá	701	Sololá	4	Finca Santa Victoria	4	Abril	2023-04-26T00:00:00	2024-11-08T05:00:00	3	Temperatura mínima	13.4
103392	7	Sololá	701	Sololá	4	Finca Santa Victoria	4	Abril	2023-04-26T00:00:00	2024-11-08T05:00:00	5	Humedad	95
103393	7	Sololá	701	Sololá	4	Finca Santa Victoria	4	Abril	2023-04-26T00:00:00	2024-11-08T05:00:00	6	Velocidad del viento	0
103394	7	Sololá	701	Sololá	4	Finca Santa Victoria	4	Abril	2023-04-26T00:00:00	2024-11-08T05:00:00	7	Dirección del viento	0
103395	7	Sololá	701	Sololá	4	Finca Santa Victoria	4	Abril	2023-04-26T00:00:00	2024-11-08T05:00:00	1	Precipitación	0
103396	7	Sololá	701	Sololá	4	Finca Santa Victoria	4	Abril	2023-04-26T00:00:00	2024-11-08T05:00:00	8	Radiación solar	0
103397	7	Sololá	701	Sololá	4	Finca Santa Victoria	4	Abril	2023-04-26T00:00:00	2024-11-08T06:00:00	2	Temperatura media	13.2
103398	7	Sololá	701	Sololá	4	Finca Santa Victoria	4	Abril	2023-04-26T00:00:00	2024-11-08T06:00:00	4	Temperatura máxima	13.4
103399	7	Sololá	701	Sololá	4	Finca Santa Victoria	4	Abril	2023-04-26T00:00:00	2024-11-08T06:00:00	3	Temperatura mínima	13.1
103400	7	Sololá	701	Sololá	4	Finca Santa Victoria	4	Abril	2023-04-26T00:00:00	2024-11-08T06:00:00	5	Humedad	95
103401	7	Sololá	701	Sololá	4	Finca Santa Victoria	4	Abril	2023-04-26T00:00:00	2024-11-08T06:00:00	6	Velocidad del viento	1.6
103402	7	Sololá	701	Sololá	4	Finca Santa Victoria	4	Abril	2023-04-26T00:00:00	2024-11-08T06:00:00	7	Dirección del viento	1.61
103403	7	Sololá	701	Sololá	4	Finca Santa Victoria	4	Abril	2023-04-26T00:00:00	2024-11-08T06:00:00	1	Precipitación	0
103404	7	Sololá	701	Sololá	4	Finca Santa Victoria	4	Abril	2023-04-26T00:00:00	2024-11-08T06:00:00	8	Radiación solar	1
103405	7	Sololá	701	Sololá	4	Finca Santa Victoria	4	Abril	2023-04-26T00:00:00	2024-11-08T07:00:00	2	Temperatura media	13.8
103406	7	Sololá	701	Sololá	4	Finca Santa Victoria	4	Abril	2023-04-26T00:00:00	2024-11-08T07:00:00	4	Temperatura máxima	13.8
103407	7	Sololá	701	Sololá	4	Finca Santa Victoria	4	Abril	2023-04-26T00:00:00	2024-11-08T07:00:00	3	Temperatura mínima	13.1
103408	7	Sololá	701	Sololá	4	Finca Santa Victoria	4	Abril	2023-04-26T00:00:00	2024-11-08T07:00:00	5	Humedad	93
103409	7	Sololá	701	Sololá	4	Finca Santa Victoria	4	Abril	2023-04-26T00:00:00	2024-11-08T07:00:00	6	Velocidad del viento	0
103410	7	Sololá	701	Sololá	4	Finca Santa Victoria	4	Abril	2023-04-26T00:00:00	2024-11-08T07:00:00	7	Dirección del viento	0
103411	7	Sololá	701	Sololá	4	Finca Santa Victoria	4	Abril	2023-04-26T00:00:00	2024-11-08T07:00:00	1	Precipitación	0
103412	7	Sololá	701	Sololá	4	Finca Santa Victoria	4	Abril	2023-04-26T00:00:00	2024-11-08T07:00:00	8	Radiación solar	39
103413	7	Sololá	701	Sololá	4	Finca Santa Victoria	4	Abril	2023-04-26T00:00:00	2024-11-08T08:00:00	2	Temperatura media	16.6
103414	7	Sololá	701	Sololá	4	Finca Santa Victoria	4	Abril	2023-04-26T00:00:00	2024-11-08T08:00:00	4	Temperatura máxima	16.6
103415	7	Sololá	701	Sololá	4	Finca Santa Victoria	4	Abril	2023-04-26T00:00:00	2024-11-08T08:00:00	3	Temperatura mínima	13.8
103416	7	Sololá	701	Sololá	4	Finca Santa Victoria	4	Abril	2023-04-26T00:00:00	2024-11-08T08:00:00	5	Humedad	84
103417	7	Sololá	701	Sololá	4	Finca Santa Victoria	4	Abril	2023-04-26T00:00:00	2024-11-08T08:00:00	6	Velocidad del viento	0
103418	7	Sololá	701	Sololá	4	Finca Santa Victoria	4	Abril	2023-04-26T00:00:00	2024-11-08T08:00:00	7	Dirección del viento	0
103419	7	Sololá	701	Sololá	4	Finca Santa Victoria	4	Abril	2023-04-26T00:00:00	2024-11-08T08:00:00	1	Precipitación	0
103420	7	Sololá	701	Sololá	4	Finca Santa Victoria	4	Abril	2023-04-26T00:00:00	2024-11-08T08:00:00	8	Radiación solar	199
103421	7	Sololá	701	Sololá	4	Finca Santa Victoria	4	Abril	2023-04-26T00:00:00	2024-11-08T09:00:00	2	Temperatura media	17.4
103422	7	Sololá	701	Sololá	4	Finca Santa Victoria	4	Abril	2023-04-26T00:00:00	2024-11-08T09:00:00	4	Temperatura máxima	17.4
103423	7	Sololá	701	Sololá	4	Finca Santa Victoria	4	Abril	2023-04-26T00:00:00	2024-11-08T09:00:00	3	Temperatura mínima	16.6
103424	7	Sololá	701	Sololá	4	Finca Santa Victoria	4	Abril	2023-04-26T00:00:00	2024-11-08T09:00:00	5	Humedad	77
103425	7	Sololá	701	Sololá	4	Finca Santa Victoria	4	Abril	2023-04-26T00:00:00	2024-11-08T09:00:00	6	Velocidad del viento	1.6
103426	7	Sololá	701	Sololá	4	Finca Santa Victoria	4	Abril	2023-04-26T00:00:00	2024-11-08T09:00:00	7	Dirección del viento	1.61
103427	7	Sololá	701	Sololá	4	Finca Santa Victoria	4	Abril	2023-04-26T00:00:00	2024-11-08T09:00:00	1	Precipitación	0
103428	7	Sololá	701	Sololá	4	Finca Santa Victoria	4	Abril	2023-04-26T00:00:00	2024-11-08T09:00:00	8	Radiación solar	410
103429	7	Sololá	701	Sololá	4	Finca Santa Victoria	4	Abril	2023-04-26T00:00:00	2024-11-08T10:00:00	2	Temperatura media	18.4
103430	7	Sololá	701	Sololá	4	Finca Santa Victoria	4	Abril	2023-04-26T00:00:00	2024-11-08T10:00:00	4	Temperatura máxima	18.8
103431	7	Sololá	701	Sololá	4	Finca Santa Victoria	4	Abril	2023-04-26T00:00:00	2024-11-08T10:00:00	3	Temperatura mínima	17.4
103432	7	Sololá	701	Sololá	4	Finca Santa Victoria	4	Abril	2023-04-26T00:00:00	2024-11-08T10:00:00	5	Humedad	75
103433	7	Sololá	701	Sololá	4	Finca Santa Victoria	4	Abril	2023-04-26T00:00:00	2024-11-08T10:00:00	6	Velocidad del viento	3.2
103434	7	Sololá	701	Sololá	4	Finca Santa Victoria	4	Abril	2023-04-26T00:00:00	2024-11-08T10:00:00	7	Dirección del viento	3.22
103435	7	Sololá	701	Sololá	4	Finca Santa Victoria	4	Abril	2023-04-26T00:00:00	2024-11-08T10:00:00	1	Precipitación	0
103436	7	Sololá	701	Sololá	4	Finca Santa Victoria	4	Abril	2023-04-26T00:00:00	2024-11-08T10:00:00	8	Radiación solar	255
103437	7	Sololá	701	Sololá	4	Finca Santa Victoria	4	Abril	2023-04-26T00:00:00	2024-11-08T11:00:00	2	Temperatura media	19.6
103438	7	Sololá	701	Sololá	4	Finca Santa Victoria	4	Abril	2023-04-26T00:00:00	2024-11-08T11:00:00	4	Temperatura máxima	19.6
103439	7	Sololá	701	Sololá	4	Finca Santa Victoria	4	Abril	2023-04-26T00:00:00	2024-11-08T11:00:00	3	Temperatura mínima	18.2
103440	7	Sololá	701	Sololá	4	Finca Santa Victoria	4	Abril	2023-04-26T00:00:00	2024-11-08T11:00:00	5	Humedad	71
103441	7	Sololá	701	Sololá	4	Finca Santa Victoria	4	Abril	2023-04-26T00:00:00	2024-11-08T11:00:00	6	Velocidad del viento	4.8
103442	7	Sololá	701	Sololá	4	Finca Santa Victoria	4	Abril	2023-04-26T00:00:00	2024-11-08T11:00:00	7	Dirección del viento	4.83
103443	7	Sololá	701	Sololá	4	Finca Santa Victoria	4	Abril	2023-04-26T00:00:00	2024-11-08T11:00:00	1	Precipitación	0
103444	7	Sololá	701	Sololá	4	Finca Santa Victoria	4	Abril	2023-04-26T00:00:00	2024-11-08T11:00:00	8	Radiación solar	882
103445	7	Sololá	701	Sololá	4	Finca Santa Victoria	4	Abril	2023-04-26T00:00:00	2024-11-08T12:00:00	2	Temperatura media	19.3
103446	7	Sololá	701	Sololá	4	Finca Santa Victoria	4	Abril	2023-04-26T00:00:00	2024-11-08T12:00:00	4	Temperatura máxima	20
103447	7	Sololá	701	Sololá	4	Finca Santa Victoria	4	Abril	2023-04-26T00:00:00	2024-11-08T12:00:00	3	Temperatura mínima	19.3
103448	7	Sololá	701	Sololá	4	Finca Santa Victoria	4	Abril	2023-04-26T00:00:00	2024-11-08T12:00:00	5	Humedad	79
103449	7	Sololá	701	Sololá	4	Finca Santa Victoria	4	Abril	2023-04-26T00:00:00	2024-11-08T12:00:00	6	Velocidad del viento	4.8
103450	7	Sololá	701	Sololá	4	Finca Santa Victoria	4	Abril	2023-04-26T00:00:00	2024-11-08T12:00:00	7	Dirección del viento	4.83
103451	7	Sololá	701	Sololá	4	Finca Santa Victoria	4	Abril	2023-04-26T00:00:00	2024-11-08T12:00:00	1	Precipitación	0
103452	7	Sololá	701	Sololá	4	Finca Santa Victoria	4	Abril	2023-04-26T00:00:00	2024-11-08T12:00:00	8	Radiación solar	816
103453	7	Sololá	701	Sololá	4	Finca Santa Victoria	4	Abril	2023-04-26T00:00:00	2024-11-08T13:00:00	2	Temperatura media	18.1
103454	7	Sololá	701	Sololá	4	Finca Santa Victoria	4	Abril	2023-04-26T00:00:00	2024-11-08T13:00:00	4	Temperatura máxima	19.3
103455	7	Sololá	701	Sololá	4	Finca Santa Victoria	4	Abril	2023-04-26T00:00:00	2024-11-08T13:00:00	3	Temperatura mínima	18
103456	7	Sololá	701	Sololá	4	Finca Santa Victoria	4	Abril	2023-04-26T00:00:00	2024-11-08T13:00:00	5	Humedad	84
103457	7	Sololá	701	Sololá	4	Finca Santa Victoria	4	Abril	2023-04-26T00:00:00	2024-11-08T13:00:00	6	Velocidad del viento	4.8
103458	7	Sololá	701	Sololá	4	Finca Santa Victoria	4	Abril	2023-04-26T00:00:00	2024-11-08T13:00:00	7	Dirección del viento	4.83
103459	7	Sololá	701	Sololá	4	Finca Santa Victoria	4	Abril	2023-04-26T00:00:00	2024-11-08T13:00:00	1	Precipitación	0
103460	7	Sololá	701	Sololá	4	Finca Santa Victoria	4	Abril	2023-04-26T00:00:00	2024-11-08T13:00:00	8	Radiación solar	260
103461	7	Sololá	701	Sololá	4	Finca Santa Victoria	4	Abril	2023-04-26T00:00:00	2024-11-08T14:00:00	2	Temperatura media	17.3
103462	7	Sololá	701	Sololá	4	Finca Santa Victoria	4	Abril	2023-04-26T00:00:00	2024-11-08T14:00:00	4	Temperatura máxima	18.2
103463	7	Sololá	701	Sololá	4	Finca Santa Victoria	4	Abril	2023-04-26T00:00:00	2024-11-08T14:00:00	3	Temperatura mínima	17.3
103464	7	Sololá	701	Sololá	4	Finca Santa Victoria	4	Abril	2023-04-26T00:00:00	2024-11-08T14:00:00	5	Humedad	87
103465	7	Sololá	701	Sololá	4	Finca Santa Victoria	4	Abril	2023-04-26T00:00:00	2024-11-08T14:00:00	6	Velocidad del viento	1.6
103466	7	Sololá	701	Sololá	4	Finca Santa Victoria	4	Abril	2023-04-26T00:00:00	2024-11-08T14:00:00	7	Dirección del viento	1.61
103467	7	Sololá	701	Sololá	4	Finca Santa Victoria	4	Abril	2023-04-26T00:00:00	2024-11-08T14:00:00	1	Precipitación	0
103468	7	Sololá	701	Sololá	4	Finca Santa Victoria	4	Abril	2023-04-26T00:00:00	2024-11-08T14:00:00	8	Radiación solar	101
103469	7	Sololá	701	Sololá	4	Finca Santa Victoria	4	Abril	2023-04-26T00:00:00	2024-11-08T15:00:00	2	Temperatura media	15.9
103470	7	Sololá	701	Sololá	4	Finca Santa Victoria	4	Abril	2023-04-26T00:00:00	2024-11-08T15:00:00	4	Temperatura máxima	17.4
103471	7	Sololá	701	Sololá	4	Finca Santa Victoria	4	Abril	2023-04-26T00:00:00	2024-11-08T15:00:00	3	Temperatura mínima	15.9
103472	7	Sololá	701	Sololá	4	Finca Santa Victoria	4	Abril	2023-04-26T00:00:00	2024-11-08T15:00:00	5	Humedad	94
103473	7	Sololá	701	Sololá	4	Finca Santa Victoria	4	Abril	2023-04-26T00:00:00	2024-11-08T15:00:00	6	Velocidad del viento	1.6
103474	7	Sololá	701	Sololá	4	Finca Santa Victoria	4	Abril	2023-04-26T00:00:00	2024-11-08T15:00:00	7	Dirección del viento	1.61
103475	7	Sololá	701	Sololá	4	Finca Santa Victoria	4	Abril	2023-04-26T00:00:00	2024-11-08T15:00:00	1	Precipitación	0
103476	7	Sololá	701	Sololá	4	Finca Santa Victoria	4	Abril	2023-04-26T00:00:00	2024-11-08T15:00:00	8	Radiación solar	35
103477	7	Sololá	701	Sololá	4	Finca Santa Victoria	4	Abril	2023-04-26T00:00:00	2024-11-08T16:00:00	2	Temperatura media	16
103478	7	Sololá	701	Sololá	4	Finca Santa Victoria	4	Abril	2023-04-26T00:00:00	2024-11-08T16:00:00	4	Temperatura máxima	16
103479	7	Sololá	701	Sololá	4	Finca Santa Victoria	4	Abril	2023-04-26T00:00:00	2024-11-08T16:00:00	3	Temperatura mínima	15.6
103480	7	Sololá	701	Sololá	4	Finca Santa Victoria	4	Abril	2023-04-26T00:00:00	2024-11-08T16:00:00	5	Humedad	93
103481	7	Sololá	701	Sololá	4	Finca Santa Victoria	4	Abril	2023-04-26T00:00:00	2024-11-08T16:00:00	6	Velocidad del viento	1.6
103482	7	Sololá	701	Sololá	4	Finca Santa Victoria	4	Abril	2023-04-26T00:00:00	2024-11-08T16:00:00	7	Dirección del viento	1.61
103483	7	Sololá	701	Sololá	4	Finca Santa Victoria	4	Abril	2023-04-26T00:00:00	2024-11-08T16:00:00	1	Precipitación	0
103484	7	Sololá	701	Sololá	4	Finca Santa Victoria	4	Abril	2023-04-26T00:00:00	2024-11-08T16:00:00	8	Radiación solar	78
103485	7	Sololá	701	Sololá	4	Finca Santa Victoria	4	Abril	2023-04-26T00:00:00	2024-11-08T17:00:00	2	Temperatura media	16.1
103486	7	Sololá	701	Sololá	4	Finca Santa Victoria	4	Abril	2023-04-26T00:00:00	2024-11-08T17:00:00	4	Temperatura máxima	16.9
103487	7	Sololá	701	Sololá	4	Finca Santa Victoria	4	Abril	2023-04-26T00:00:00	2024-11-08T17:00:00	3	Temperatura mínima	16
103488	7	Sololá	701	Sololá	4	Finca Santa Victoria	4	Abril	2023-04-26T00:00:00	2024-11-08T17:00:00	5	Humedad	93
103489	7	Sololá	701	Sololá	4	Finca Santa Victoria	4	Abril	2023-04-26T00:00:00	2024-11-08T17:00:00	6	Velocidad del viento	1.6
103490	7	Sololá	701	Sololá	4	Finca Santa Victoria	4	Abril	2023-04-26T00:00:00	2024-11-08T17:00:00	7	Dirección del viento	1.61
103491	7	Sololá	701	Sololá	4	Finca Santa Victoria	4	Abril	2023-04-26T00:00:00	2024-11-08T17:00:00	1	Precipitación	0
103492	7	Sololá	701	Sololá	4	Finca Santa Victoria	4	Abril	2023-04-26T00:00:00	2024-11-08T17:00:00	8	Radiación solar	93
103493	7	Sololá	701	Sololá	4	Finca Santa Victoria	4	Abril	2023-04-26T00:00:00	2024-11-08T18:00:00	2	Temperatura media	15.3
103494	7	Sololá	701	Sololá	4	Finca Santa Victoria	4	Abril	2023-04-26T00:00:00	2024-11-08T18:00:00	4	Temperatura máxima	16.1
103495	7	Sololá	701	Sololá	4	Finca Santa Victoria	4	Abril	2023-04-26T00:00:00	2024-11-08T18:00:00	3	Temperatura mínima	15.3
103496	7	Sololá	701	Sololá	4	Finca Santa Victoria	4	Abril	2023-04-26T00:00:00	2024-11-08T18:00:00	5	Humedad	96
103497	7	Sololá	701	Sololá	4	Finca Santa Victoria	4	Abril	2023-04-26T00:00:00	2024-11-08T18:00:00	6	Velocidad del viento	1.6
103498	7	Sololá	701	Sololá	4	Finca Santa Victoria	4	Abril	2023-04-26T00:00:00	2024-11-08T18:00:00	7	Dirección del viento	1.61
103499	7	Sololá	701	Sololá	4	Finca Santa Victoria	4	Abril	2023-04-26T00:00:00	2024-11-08T18:00:00	1	Precipitación	0
103500	7	Sololá	701	Sololá	4	Finca Santa Victoria	4	Abril	2023-04-26T00:00:00	2024-11-08T18:00:00	8	Radiación solar	17
103501	7	Sololá	701	Sololá	4	Finca Santa Victoria	4	Abril	2023-04-26T00:00:00	2024-11-08T19:00:00	2	Temperatura media	14.4
103502	7	Sololá	701	Sololá	4	Finca Santa Victoria	4	Abril	2023-04-26T00:00:00	2024-11-08T19:00:00	4	Temperatura máxima	15.3
103503	7	Sololá	701	Sololá	4	Finca Santa Victoria	4	Abril	2023-04-26T00:00:00	2024-11-08T19:00:00	3	Temperatura mínima	14.4
103504	7	Sololá	701	Sololá	4	Finca Santa Victoria	4	Abril	2023-04-26T00:00:00	2024-11-08T19:00:00	5	Humedad	96
103505	7	Sololá	701	Sololá	4	Finca Santa Victoria	4	Abril	2023-04-26T00:00:00	2024-11-08T19:00:00	6	Velocidad del viento	0
103506	7	Sololá	701	Sololá	4	Finca Santa Victoria	4	Abril	2023-04-26T00:00:00	2024-11-08T19:00:00	7	Dirección del viento	0
103507	7	Sololá	701	Sololá	4	Finca Santa Victoria	4	Abril	2023-04-26T00:00:00	2024-11-08T19:00:00	1	Precipitación	0
103508	7	Sololá	701	Sololá	4	Finca Santa Victoria	4	Abril	2023-04-26T00:00:00	2024-11-08T19:00:00	8	Radiación solar	0
103509	7	Sololá	701	Sololá	4	Finca Santa Victoria	4	Abril	2023-04-26T00:00:00	2024-11-08T20:00:00	2	Temperatura media	13.8
103510	7	Sololá	701	Sololá	4	Finca Santa Victoria	4	Abril	2023-04-26T00:00:00	2024-11-08T20:00:00	4	Temperatura máxima	14.4
103511	7	Sololá	701	Sololá	4	Finca Santa Victoria	4	Abril	2023-04-26T00:00:00	2024-11-08T20:00:00	3	Temperatura mínima	13.8
103512	7	Sololá	701	Sololá	4	Finca Santa Victoria	4	Abril	2023-04-26T00:00:00	2024-11-08T20:00:00	5	Humedad	97
103513	7	Sololá	701	Sololá	4	Finca Santa Victoria	4	Abril	2023-04-26T00:00:00	2024-11-08T20:00:00	6	Velocidad del viento	0
103514	7	Sololá	701	Sololá	4	Finca Santa Victoria	4	Abril	2023-04-26T00:00:00	2024-11-08T20:00:00	7	Dirección del viento	0
103515	7	Sololá	701	Sololá	4	Finca Santa Victoria	4	Abril	2023-04-26T00:00:00	2024-11-08T20:00:00	1	Precipitación	0
103516	7	Sololá	701	Sololá	4	Finca Santa Victoria	4	Abril	2023-04-26T00:00:00	2024-11-08T20:00:00	8	Radiación solar	0
103517	7	Sololá	701	Sololá	4	Finca Santa Victoria	4	Abril	2023-04-26T00:00:00	2024-11-08T21:00:00	2	Temperatura media	13.8
103518	7	Sololá	701	Sololá	4	Finca Santa Victoria	4	Abril	2023-04-26T00:00:00	2024-11-08T21:00:00	4	Temperatura máxima	13.9
103519	7	Sololá	701	Sololá	4	Finca Santa Victoria	4	Abril	2023-04-26T00:00:00	2024-11-08T21:00:00	3	Temperatura mínima	13.8
103520	7	Sololá	701	Sololá	4	Finca Santa Victoria	4	Abril	2023-04-26T00:00:00	2024-11-08T21:00:00	5	Humedad	93
103521	7	Sololá	701	Sololá	4	Finca Santa Victoria	4	Abril	2023-04-26T00:00:00	2024-11-08T21:00:00	6	Velocidad del viento	1.6
103522	7	Sololá	701	Sololá	4	Finca Santa Victoria	4	Abril	2023-04-26T00:00:00	2024-11-08T21:00:00	7	Dirección del viento	1.61
103523	7	Sololá	701	Sololá	4	Finca Santa Victoria	4	Abril	2023-04-26T00:00:00	2024-11-08T21:00:00	1	Precipitación	0
103524	7	Sololá	701	Sololá	4	Finca Santa Victoria	4	Abril	2023-04-26T00:00:00	2024-11-08T21:00:00	8	Radiación solar	0
103525	7	Sololá	701	Sololá	4	Finca Santa Victoria	4	Abril	2023-04-26T00:00:00	2024-11-08T22:00:00	2	Temperatura media	14.3
103526	7	Sololá	701	Sololá	4	Finca Santa Victoria	4	Abril	2023-04-26T00:00:00	2024-11-08T22:00:00	4	Temperatura máxima	14.3
103527	7	Sololá	701	Sololá	4	Finca Santa Victoria	4	Abril	2023-04-26T00:00:00	2024-11-08T22:00:00	3	Temperatura mínima	13.8
103528	7	Sololá	701	Sololá	4	Finca Santa Victoria	4	Abril	2023-04-26T00:00:00	2024-11-08T22:00:00	5	Humedad	89
103529	7	Sololá	701	Sololá	4	Finca Santa Victoria	4	Abril	2023-04-26T00:00:00	2024-11-08T22:00:00	6	Velocidad del viento	1.6
103530	7	Sololá	701	Sololá	4	Finca Santa Victoria	4	Abril	2023-04-26T00:00:00	2024-11-08T22:00:00	7	Dirección del viento	1.61
103531	7	Sololá	701	Sololá	4	Finca Santa Victoria	4	Abril	2023-04-26T00:00:00	2024-11-08T22:00:00	1	Precipitación	0
103532	7	Sololá	701	Sololá	4	Finca Santa Victoria	4	Abril	2023-04-26T00:00:00	2024-11-08T22:00:00	8	Radiación solar	0
103533	7	Sololá	701	Sololá	4	Finca Santa Victoria	4	Abril	2023-04-26T00:00:00	2024-11-08T23:00:00	2	Temperatura media	13.8
103534	7	Sololá	701	Sololá	4	Finca Santa Victoria	4	Abril	2023-04-26T00:00:00	2024-11-08T23:00:00	4	Temperatura máxima	14.4
103535	7	Sololá	701	Sololá	4	Finca Santa Victoria	4	Abril	2023-04-26T00:00:00	2024-11-08T23:00:00	3	Temperatura mínima	13.8
103536	7	Sololá	701	Sololá	4	Finca Santa Victoria	4	Abril	2023-04-26T00:00:00	2024-11-08T23:00:00	5	Humedad	89
103537	7	Sololá	701	Sololá	4	Finca Santa Victoria	4	Abril	2023-04-26T00:00:00	2024-11-08T23:00:00	6	Velocidad del viento	1.6
103538	7	Sololá	701	Sololá	4	Finca Santa Victoria	4	Abril	2023-04-26T00:00:00	2024-11-08T23:00:00	7	Dirección del viento	1.61
103539	7	Sololá	701	Sololá	4	Finca Santa Victoria	4	Abril	2023-04-26T00:00:00	2024-11-08T23:00:00	1	Precipitación	0
103540	7	Sololá	701	Sololá	4	Finca Santa Victoria	4	Abril	2023-04-26T00:00:00	2024-11-08T23:00:00	8	Radiación solar	0
103541	7	Sololá	701	Sololá	4	Finca Santa Victoria	4	Abril	2023-04-27T00:00:00	2024-11-08T00:00:00	2	Temperatura media	13.6
103542	7	Sololá	701	Sololá	4	Finca Santa Victoria	4	Abril	2023-04-27T00:00:00	2024-11-08T00:00:00	4	Temperatura máxima	13.8
103543	7	Sololá	701	Sololá	4	Finca Santa Victoria	4	Abril	2023-04-27T00:00:00	2024-11-08T00:00:00	3	Temperatura mínima	13.5
103544	7	Sololá	701	Sololá	4	Finca Santa Victoria	4	Abril	2023-04-27T00:00:00	2024-11-08T00:00:00	5	Humedad	91
103545	7	Sololá	701	Sololá	4	Finca Santa Victoria	4	Abril	2023-04-27T00:00:00	2024-11-08T00:00:00	6	Velocidad del viento	0
103546	7	Sololá	701	Sololá	4	Finca Santa Victoria	4	Abril	2023-04-27T00:00:00	2024-11-08T00:00:00	7	Dirección del viento	0
103547	7	Sololá	701	Sololá	4	Finca Santa Victoria	4	Abril	2023-04-27T00:00:00	2024-11-08T00:00:00	1	Precipitación	0
103548	7	Sololá	701	Sololá	4	Finca Santa Victoria	4	Abril	2023-04-27T00:00:00	2024-11-08T00:00:00	8	Radiación solar	0
103549	7	Sololá	701	Sololá	4	Finca Santa Victoria	4	Abril	2023-04-27T00:00:00	2024-11-08T01:00:00	2	Temperatura media	13.6
103550	7	Sololá	701	Sololá	4	Finca Santa Victoria	4	Abril	2023-04-27T00:00:00	2024-11-08T01:00:00	4	Temperatura máxima	13.6
103551	7	Sololá	701	Sololá	4	Finca Santa Victoria	4	Abril	2023-04-27T00:00:00	2024-11-08T01:00:00	3	Temperatura mínima	13.4
103552	7	Sololá	701	Sololá	4	Finca Santa Victoria	4	Abril	2023-04-27T00:00:00	2024-11-08T01:00:00	5	Humedad	97
103553	7	Sololá	701	Sololá	4	Finca Santa Victoria	4	Abril	2023-04-27T00:00:00	2024-11-08T01:00:00	6	Velocidad del viento	0
103554	7	Sololá	701	Sololá	4	Finca Santa Victoria	4	Abril	2023-04-27T00:00:00	2024-11-08T01:00:00	7	Dirección del viento	0
103555	7	Sololá	701	Sololá	4	Finca Santa Victoria	4	Abril	2023-04-27T00:00:00	2024-11-08T01:00:00	1	Precipitación	0
103556	7	Sololá	701	Sololá	4	Finca Santa Victoria	4	Abril	2023-04-27T00:00:00	2024-11-08T01:00:00	8	Radiación solar	0
103557	7	Sololá	701	Sololá	4	Finca Santa Victoria	4	Abril	2023-04-27T00:00:00	2024-11-08T02:00:00	2	Temperatura media	13
103558	7	Sololá	701	Sololá	4	Finca Santa Victoria	4	Abril	2023-04-27T00:00:00	2024-11-08T02:00:00	4	Temperatura máxima	13.6
103559	7	Sololá	701	Sololá	4	Finca Santa Victoria	4	Abril	2023-04-27T00:00:00	2024-11-08T02:00:00	3	Temperatura mínima	12.9
103560	7	Sololá	701	Sololá	4	Finca Santa Victoria	4	Abril	2023-04-27T00:00:00	2024-11-08T02:00:00	5	Humedad	97
103561	7	Sololá	701	Sololá	4	Finca Santa Victoria	4	Abril	2023-04-27T00:00:00	2024-11-08T02:00:00	6	Velocidad del viento	0
103562	7	Sololá	701	Sololá	4	Finca Santa Victoria	4	Abril	2023-04-27T00:00:00	2024-11-08T02:00:00	7	Dirección del viento	0
103563	7	Sololá	701	Sololá	4	Finca Santa Victoria	4	Abril	2023-04-27T00:00:00	2024-11-08T02:00:00	1	Precipitación	0
103564	7	Sololá	701	Sololá	4	Finca Santa Victoria	4	Abril	2023-04-27T00:00:00	2024-11-08T02:00:00	8	Radiación solar	0
103565	7	Sololá	701	Sololá	4	Finca Santa Victoria	4	Abril	2023-04-27T00:00:00	2024-11-08T03:00:00	2	Temperatura media	12.7
103566	7	Sololá	701	Sololá	4	Finca Santa Victoria	4	Abril	2023-04-27T00:00:00	2024-11-08T03:00:00	4	Temperatura máxima	13.1
103567	7	Sololá	701	Sololá	4	Finca Santa Victoria	4	Abril	2023-04-27T00:00:00	2024-11-08T03:00:00	3	Temperatura mínima	12.7
103568	7	Sololá	701	Sololá	4	Finca Santa Victoria	4	Abril	2023-04-27T00:00:00	2024-11-08T03:00:00	5	Humedad	97
103569	7	Sololá	701	Sololá	4	Finca Santa Victoria	4	Abril	2023-04-27T00:00:00	2024-11-08T03:00:00	6	Velocidad del viento	0
103570	7	Sololá	701	Sololá	4	Finca Santa Victoria	4	Abril	2023-04-27T00:00:00	2024-11-08T03:00:00	7	Dirección del viento	0
103571	7	Sololá	701	Sololá	4	Finca Santa Victoria	4	Abril	2023-04-27T00:00:00	2024-11-08T03:00:00	1	Precipitación	0
103572	7	Sololá	701	Sololá	4	Finca Santa Victoria	4	Abril	2023-04-27T00:00:00	2024-11-08T03:00:00	8	Radiación solar	0
103573	7	Sololá	701	Sololá	4	Finca Santa Victoria	4	Abril	2023-04-27T00:00:00	2024-11-08T04:00:00	2	Temperatura media	13
103574	7	Sololá	701	Sololá	4	Finca Santa Victoria	4	Abril	2023-04-27T00:00:00	2024-11-08T04:00:00	4	Temperatura máxima	13
103575	7	Sololá	701	Sololá	4	Finca Santa Victoria	4	Abril	2023-04-27T00:00:00	2024-11-08T04:00:00	3	Temperatura mínima	12.1
103576	7	Sololá	701	Sololá	4	Finca Santa Victoria	4	Abril	2023-04-27T00:00:00	2024-11-08T04:00:00	5	Humedad	97
103577	7	Sololá	701	Sololá	4	Finca Santa Victoria	4	Abril	2023-04-27T00:00:00	2024-11-08T04:00:00	6	Velocidad del viento	1.6
103578	7	Sololá	701	Sololá	4	Finca Santa Victoria	4	Abril	2023-04-27T00:00:00	2024-11-08T04:00:00	7	Dirección del viento	1.61
103579	7	Sololá	701	Sololá	4	Finca Santa Victoria	4	Abril	2023-04-27T00:00:00	2024-11-08T04:00:00	1	Precipitación	0
103580	7	Sololá	701	Sololá	4	Finca Santa Victoria	4	Abril	2023-04-27T00:00:00	2024-11-08T04:00:00	8	Radiación solar	0
103581	7	Sololá	701	Sololá	4	Finca Santa Victoria	4	Abril	2023-04-27T00:00:00	2024-11-08T05:00:00	2	Temperatura media	13
103582	7	Sololá	701	Sololá	4	Finca Santa Victoria	4	Abril	2023-04-27T00:00:00	2024-11-08T05:00:00	4	Temperatura máxima	13.1
103583	7	Sololá	701	Sololá	4	Finca Santa Victoria	4	Abril	2023-04-27T00:00:00	2024-11-08T05:00:00	3	Temperatura mínima	12.8
103584	7	Sololá	701	Sololá	4	Finca Santa Victoria	4	Abril	2023-04-27T00:00:00	2024-11-08T05:00:00	5	Humedad	94
103585	7	Sololá	701	Sololá	4	Finca Santa Victoria	4	Abril	2023-04-27T00:00:00	2024-11-08T05:00:00	6	Velocidad del viento	1.6
103586	7	Sololá	701	Sololá	4	Finca Santa Victoria	4	Abril	2023-04-27T00:00:00	2024-11-08T05:00:00	7	Dirección del viento	1.61
103587	7	Sololá	701	Sololá	4	Finca Santa Victoria	4	Abril	2023-04-27T00:00:00	2024-11-08T05:00:00	1	Precipitación	0
103588	7	Sololá	701	Sololá	4	Finca Santa Victoria	4	Abril	2023-04-27T00:00:00	2024-11-08T05:00:00	8	Radiación solar	0
103589	7	Sololá	701	Sololá	4	Finca Santa Victoria	4	Abril	2023-04-27T00:00:00	2024-11-08T06:00:00	2	Temperatura media	12.8
103590	7	Sololá	701	Sololá	4	Finca Santa Victoria	4	Abril	2023-04-27T00:00:00	2024-11-08T06:00:00	4	Temperatura máxima	13.2
103591	7	Sololá	701	Sololá	4	Finca Santa Victoria	4	Abril	2023-04-27T00:00:00	2024-11-08T06:00:00	3	Temperatura mínima	12.8
103592	7	Sololá	701	Sololá	4	Finca Santa Victoria	4	Abril	2023-04-27T00:00:00	2024-11-08T06:00:00	5	Humedad	94
103593	7	Sololá	701	Sololá	4	Finca Santa Victoria	4	Abril	2023-04-27T00:00:00	2024-11-08T06:00:00	6	Velocidad del viento	1.6
103594	7	Sololá	701	Sololá	4	Finca Santa Victoria	4	Abril	2023-04-27T00:00:00	2024-11-08T06:00:00	7	Dirección del viento	1.61
103595	7	Sololá	701	Sololá	4	Finca Santa Victoria	4	Abril	2023-04-27T00:00:00	2024-11-08T06:00:00	1	Precipitación	0
103596	7	Sololá	701	Sololá	4	Finca Santa Victoria	4	Abril	2023-04-27T00:00:00	2024-11-08T06:00:00	8	Radiación solar	1
103597	7	Sololá	701	Sololá	4	Finca Santa Victoria	4	Abril	2023-04-27T00:00:00	2024-11-08T07:00:00	2	Temperatura media	13.7
103598	7	Sololá	701	Sololá	4	Finca Santa Victoria	4	Abril	2023-04-27T00:00:00	2024-11-08T07:00:00	4	Temperatura máxima	13.7
103599	7	Sololá	701	Sololá	4	Finca Santa Victoria	4	Abril	2023-04-27T00:00:00	2024-11-08T07:00:00	3	Temperatura mínima	12.8
103600	7	Sololá	701	Sololá	4	Finca Santa Victoria	4	Abril	2023-04-27T00:00:00	2024-11-08T07:00:00	5	Humedad	89
103601	7	Sololá	701	Sololá	4	Finca Santa Victoria	4	Abril	2023-04-27T00:00:00	2024-11-08T07:00:00	6	Velocidad del viento	1.6
103602	7	Sololá	701	Sololá	4	Finca Santa Victoria	4	Abril	2023-04-27T00:00:00	2024-11-08T07:00:00	7	Dirección del viento	1.61
103603	7	Sololá	701	Sololá	4	Finca Santa Victoria	4	Abril	2023-04-27T00:00:00	2024-11-08T07:00:00	1	Precipitación	0
103604	7	Sololá	701	Sololá	4	Finca Santa Victoria	4	Abril	2023-04-27T00:00:00	2024-11-08T07:00:00	8	Radiación solar	31
103605	7	Sololá	701	Sololá	4	Finca Santa Victoria	4	Abril	2023-04-27T00:00:00	2024-11-08T08:00:00	2	Temperatura media	17.4
103606	7	Sololá	701	Sololá	4	Finca Santa Victoria	4	Abril	2023-04-27T00:00:00	2024-11-08T08:00:00	4	Temperatura máxima	17.4
103607	7	Sololá	701	Sololá	4	Finca Santa Victoria	4	Abril	2023-04-27T00:00:00	2024-11-08T08:00:00	3	Temperatura mínima	13.7
103608	7	Sololá	701	Sololá	4	Finca Santa Victoria	4	Abril	2023-04-27T00:00:00	2024-11-08T08:00:00	5	Humedad	80
103609	7	Sololá	701	Sololá	4	Finca Santa Victoria	4	Abril	2023-04-27T00:00:00	2024-11-08T08:00:00	6	Velocidad del viento	0
103610	7	Sololá	701	Sololá	4	Finca Santa Victoria	4	Abril	2023-04-27T00:00:00	2024-11-08T08:00:00	7	Dirección del viento	0
103611	7	Sololá	701	Sololá	4	Finca Santa Victoria	4	Abril	2023-04-27T00:00:00	2024-11-08T08:00:00	1	Precipitación	0
103612	7	Sololá	701	Sololá	4	Finca Santa Victoria	4	Abril	2023-04-27T00:00:00	2024-11-08T08:00:00	8	Radiación solar	201
103613	7	Sololá	701	Sololá	4	Finca Santa Victoria	4	Abril	2023-04-27T00:00:00	2024-11-08T09:00:00	2	Temperatura media	18
103614	7	Sololá	701	Sololá	4	Finca Santa Victoria	4	Abril	2023-04-27T00:00:00	2024-11-08T09:00:00	4	Temperatura máxima	18.1
103615	7	Sololá	701	Sololá	4	Finca Santa Victoria	4	Abril	2023-04-27T00:00:00	2024-11-08T09:00:00	3	Temperatura mínima	17.4
103616	7	Sololá	701	Sololá	4	Finca Santa Victoria	4	Abril	2023-04-27T00:00:00	2024-11-08T09:00:00	5	Humedad	74
103617	7	Sololá	701	Sololá	4	Finca Santa Victoria	4	Abril	2023-04-27T00:00:00	2024-11-08T09:00:00	6	Velocidad del viento	1.6
103618	7	Sololá	701	Sololá	4	Finca Santa Victoria	4	Abril	2023-04-27T00:00:00	2024-11-08T09:00:00	7	Dirección del viento	1.61
103619	7	Sololá	701	Sololá	4	Finca Santa Victoria	4	Abril	2023-04-27T00:00:00	2024-11-08T09:00:00	1	Precipitación	0
103620	7	Sololá	701	Sololá	4	Finca Santa Victoria	4	Abril	2023-04-27T00:00:00	2024-11-08T09:00:00	8	Radiación solar	409
103621	7	Sololá	701	Sololá	4	Finca Santa Victoria	4	Abril	2023-04-27T00:00:00	2024-11-08T10:00:00	2	Temperatura media	18.6
103622	7	Sololá	701	Sololá	4	Finca Santa Victoria	4	Abril	2023-04-27T00:00:00	2024-11-08T10:00:00	4	Temperatura máxima	18.7
103623	7	Sololá	701	Sololá	4	Finca Santa Victoria	4	Abril	2023-04-27T00:00:00	2024-11-08T10:00:00	3	Temperatura mínima	17.9
103624	7	Sololá	701	Sololá	4	Finca Santa Victoria	4	Abril	2023-04-27T00:00:00	2024-11-08T10:00:00	5	Humedad	74
103625	7	Sololá	701	Sololá	4	Finca Santa Victoria	4	Abril	2023-04-27T00:00:00	2024-11-08T10:00:00	6	Velocidad del viento	3.2
103626	7	Sololá	701	Sololá	4	Finca Santa Victoria	4	Abril	2023-04-27T00:00:00	2024-11-08T10:00:00	7	Dirección del viento	3.22
103627	7	Sololá	701	Sololá	4	Finca Santa Victoria	4	Abril	2023-04-27T00:00:00	2024-11-08T10:00:00	1	Precipitación	0
103628	7	Sololá	701	Sololá	4	Finca Santa Victoria	4	Abril	2023-04-27T00:00:00	2024-11-08T10:00:00	8	Radiación solar	191
103629	7	Sololá	701	Sololá	4	Finca Santa Victoria	4	Abril	2023-04-27T00:00:00	2024-11-08T11:00:00	2	Temperatura media	19.3
103630	7	Sololá	701	Sololá	4	Finca Santa Victoria	4	Abril	2023-04-27T00:00:00	2024-11-08T11:00:00	4	Temperatura máxima	19.6
103631	7	Sololá	701	Sololá	4	Finca Santa Victoria	4	Abril	2023-04-27T00:00:00	2024-11-08T11:00:00	3	Temperatura mínima	18.6
103632	7	Sololá	701	Sololá	4	Finca Santa Victoria	4	Abril	2023-04-27T00:00:00	2024-11-08T11:00:00	5	Humedad	69
103633	7	Sololá	701	Sololá	4	Finca Santa Victoria	4	Abril	2023-04-27T00:00:00	2024-11-08T11:00:00	6	Velocidad del viento	4.8
103634	7	Sololá	701	Sololá	4	Finca Santa Victoria	4	Abril	2023-04-27T00:00:00	2024-11-08T11:00:00	7	Dirección del viento	4.83
103635	7	Sololá	701	Sololá	4	Finca Santa Victoria	4	Abril	2023-04-27T00:00:00	2024-11-08T11:00:00	1	Precipitación	0
103636	7	Sololá	701	Sololá	4	Finca Santa Victoria	4	Abril	2023-04-27T00:00:00	2024-11-08T11:00:00	8	Radiación solar	872
103637	7	Sololá	701	Sololá	4	Finca Santa Victoria	4	Abril	2023-04-27T00:00:00	2024-11-08T12:00:00	2	Temperatura media	19.3
103638	7	Sololá	701	Sololá	4	Finca Santa Victoria	4	Abril	2023-04-27T00:00:00	2024-11-08T12:00:00	4	Temperatura máxima	19.7
103639	7	Sololá	701	Sololá	4	Finca Santa Victoria	4	Abril	2023-04-27T00:00:00	2024-11-08T12:00:00	3	Temperatura mínima	19.2
103640	7	Sololá	701	Sololá	4	Finca Santa Victoria	4	Abril	2023-04-27T00:00:00	2024-11-08T12:00:00	5	Humedad	78
103641	7	Sololá	701	Sololá	4	Finca Santa Victoria	4	Abril	2023-04-27T00:00:00	2024-11-08T12:00:00	6	Velocidad del viento	6.4
103642	7	Sololá	701	Sololá	4	Finca Santa Victoria	4	Abril	2023-04-27T00:00:00	2024-11-08T12:00:00	7	Dirección del viento	6.44
103643	7	Sololá	701	Sololá	4	Finca Santa Victoria	4	Abril	2023-04-27T00:00:00	2024-11-08T12:00:00	1	Precipitación	0
103644	7	Sololá	701	Sololá	4	Finca Santa Victoria	4	Abril	2023-04-27T00:00:00	2024-11-08T12:00:00	8	Radiación solar	955
103645	7	Sololá	701	Sololá	4	Finca Santa Victoria	4	Abril	2023-04-27T00:00:00	2024-11-08T13:00:00	2	Temperatura media	19.6
103646	7	Sololá	701	Sololá	4	Finca Santa Victoria	4	Abril	2023-04-27T00:00:00	2024-11-08T13:00:00	4	Temperatura máxima	19.9
103647	7	Sololá	701	Sololá	4	Finca Santa Victoria	4	Abril	2023-04-27T00:00:00	2024-11-08T13:00:00	3	Temperatura mínima	18.7
103648	7	Sololá	701	Sololá	4	Finca Santa Victoria	4	Abril	2023-04-27T00:00:00	2024-11-08T13:00:00	5	Humedad	80
103649	7	Sololá	701	Sololá	4	Finca Santa Victoria	4	Abril	2023-04-27T00:00:00	2024-11-08T13:00:00	6	Velocidad del viento	4.8
103650	7	Sololá	701	Sololá	4	Finca Santa Victoria	4	Abril	2023-04-27T00:00:00	2024-11-08T13:00:00	7	Dirección del viento	4.83
103651	7	Sololá	701	Sololá	4	Finca Santa Victoria	4	Abril	2023-04-27T00:00:00	2024-11-08T13:00:00	1	Precipitación	0
103652	7	Sololá	701	Sololá	4	Finca Santa Victoria	4	Abril	2023-04-27T00:00:00	2024-11-08T13:00:00	8	Radiación solar	539
103653	7	Sololá	701	Sololá	4	Finca Santa Victoria	4	Abril	2023-04-27T00:00:00	2024-11-08T14:00:00	2	Temperatura media	17.9
103654	7	Sololá	701	Sololá	4	Finca Santa Victoria	4	Abril	2023-04-27T00:00:00	2024-11-08T14:00:00	4	Temperatura máxima	20.1
103655	7	Sololá	701	Sololá	4	Finca Santa Victoria	4	Abril	2023-04-27T00:00:00	2024-11-08T14:00:00	3	Temperatura mínima	17.9
103656	7	Sololá	701	Sololá	4	Finca Santa Victoria	4	Abril	2023-04-27T00:00:00	2024-11-08T14:00:00	5	Humedad	85
103657	7	Sololá	701	Sololá	4	Finca Santa Victoria	4	Abril	2023-04-27T00:00:00	2024-11-08T14:00:00	6	Velocidad del viento	4.8
103658	7	Sololá	701	Sololá	4	Finca Santa Victoria	4	Abril	2023-04-27T00:00:00	2024-11-08T14:00:00	7	Dirección del viento	4.83
103659	7	Sololá	701	Sololá	4	Finca Santa Victoria	4	Abril	2023-04-27T00:00:00	2024-11-08T14:00:00	1	Precipitación	0
103660	7	Sololá	701	Sololá	4	Finca Santa Victoria	4	Abril	2023-04-27T00:00:00	2024-11-08T14:00:00	8	Radiación solar	258
103661	7	Sololá	701	Sololá	4	Finca Santa Victoria	4	Abril	2023-04-27T00:00:00	2024-11-08T15:00:00	2	Temperatura media	18.5
103662	7	Sololá	701	Sololá	4	Finca Santa Victoria	4	Abril	2023-04-27T00:00:00	2024-11-08T15:00:00	4	Temperatura máxima	18.9
103663	7	Sololá	701	Sololá	4	Finca Santa Victoria	4	Abril	2023-04-27T00:00:00	2024-11-08T15:00:00	3	Temperatura mínima	17.9
103664	7	Sololá	701	Sololá	4	Finca Santa Victoria	4	Abril	2023-04-27T00:00:00	2024-11-08T15:00:00	5	Humedad	85
103665	7	Sololá	701	Sololá	4	Finca Santa Victoria	4	Abril	2023-04-27T00:00:00	2024-11-08T15:00:00	6	Velocidad del viento	4.8
103666	7	Sololá	701	Sololá	4	Finca Santa Victoria	4	Abril	2023-04-27T00:00:00	2024-11-08T15:00:00	7	Dirección del viento	4.83
103667	7	Sololá	701	Sololá	4	Finca Santa Victoria	4	Abril	2023-04-27T00:00:00	2024-11-08T15:00:00	1	Precipitación	0
103668	7	Sololá	701	Sololá	4	Finca Santa Victoria	4	Abril	2023-04-27T00:00:00	2024-11-08T15:00:00	8	Radiación solar	215
103669	7	Sololá	701	Sololá	4	Finca Santa Victoria	4	Abril	2023-04-27T00:00:00	2024-11-08T16:00:00	2	Temperatura media	17
103670	7	Sololá	701	Sololá	4	Finca Santa Victoria	4	Abril	2023-04-27T00:00:00	2024-11-08T16:00:00	4	Temperatura máxima	18.4
103671	7	Sololá	701	Sololá	4	Finca Santa Victoria	4	Abril	2023-04-27T00:00:00	2024-11-08T16:00:00	3	Temperatura mínima	17
103672	7	Sololá	701	Sololá	4	Finca Santa Victoria	4	Abril	2023-04-27T00:00:00	2024-11-08T16:00:00	5	Humedad	88
103673	7	Sololá	701	Sololá	4	Finca Santa Victoria	4	Abril	2023-04-27T00:00:00	2024-11-08T16:00:00	6	Velocidad del viento	3.2
103674	7	Sololá	701	Sololá	4	Finca Santa Victoria	4	Abril	2023-04-27T00:00:00	2024-11-08T16:00:00	7	Dirección del viento	3.22
103675	7	Sololá	701	Sololá	4	Finca Santa Victoria	4	Abril	2023-04-27T00:00:00	2024-11-08T16:00:00	1	Precipitación	0
103676	7	Sololá	701	Sololá	4	Finca Santa Victoria	4	Abril	2023-04-27T00:00:00	2024-11-08T16:00:00	8	Radiación solar	170
103677	7	Sololá	701	Sololá	4	Finca Santa Victoria	4	Abril	2023-04-27T00:00:00	2024-11-08T17:00:00	2	Temperatura media	16
103678	7	Sololá	701	Sololá	4	Finca Santa Victoria	4	Abril	2023-04-27T00:00:00	2024-11-08T17:00:00	4	Temperatura máxima	17
103679	7	Sololá	701	Sololá	4	Finca Santa Victoria	4	Abril	2023-04-27T00:00:00	2024-11-08T17:00:00	3	Temperatura mínima	15.9
103680	7	Sololá	701	Sololá	4	Finca Santa Victoria	4	Abril	2023-04-27T00:00:00	2024-11-08T17:00:00	5	Humedad	94
103681	7	Sololá	701	Sololá	4	Finca Santa Victoria	4	Abril	2023-04-27T00:00:00	2024-11-08T17:00:00	6	Velocidad del viento	1.6
103682	7	Sololá	701	Sololá	4	Finca Santa Victoria	4	Abril	2023-04-27T00:00:00	2024-11-08T17:00:00	7	Dirección del viento	1.61
103683	7	Sololá	701	Sololá	4	Finca Santa Victoria	4	Abril	2023-04-27T00:00:00	2024-11-08T17:00:00	1	Precipitación	0
103684	7	Sololá	701	Sololá	4	Finca Santa Victoria	4	Abril	2023-04-27T00:00:00	2024-11-08T17:00:00	8	Radiación solar	42
103685	7	Sololá	701	Sololá	4	Finca Santa Victoria	4	Abril	2023-04-27T00:00:00	2024-11-08T18:00:00	2	Temperatura media	15.4
103686	7	Sololá	701	Sololá	4	Finca Santa Victoria	4	Abril	2023-04-27T00:00:00	2024-11-08T18:00:00	4	Temperatura máxima	16.1
103687	7	Sololá	701	Sololá	4	Finca Santa Victoria	4	Abril	2023-04-27T00:00:00	2024-11-08T18:00:00	3	Temperatura mínima	15.4
103688	7	Sololá	701	Sololá	4	Finca Santa Victoria	4	Abril	2023-04-27T00:00:00	2024-11-08T18:00:00	5	Humedad	95
103689	7	Sololá	701	Sololá	4	Finca Santa Victoria	4	Abril	2023-04-27T00:00:00	2024-11-08T18:00:00	6	Velocidad del viento	1.6
103690	7	Sololá	701	Sololá	4	Finca Santa Victoria	4	Abril	2023-04-27T00:00:00	2024-11-08T18:00:00	7	Dirección del viento	1.61
103691	7	Sololá	701	Sololá	4	Finca Santa Victoria	4	Abril	2023-04-27T00:00:00	2024-11-08T18:00:00	1	Precipitación	0
103692	7	Sololá	701	Sololá	4	Finca Santa Victoria	4	Abril	2023-04-27T00:00:00	2024-11-08T18:00:00	8	Radiación solar	5
103693	7	Sololá	701	Sololá	4	Finca Santa Victoria	4	Abril	2023-04-27T00:00:00	2024-11-08T19:00:00	2	Temperatura media	15.1
103694	7	Sololá	701	Sololá	4	Finca Santa Victoria	4	Abril	2023-04-27T00:00:00	2024-11-08T19:00:00	4	Temperatura máxima	15.4
103695	7	Sololá	701	Sololá	4	Finca Santa Victoria	4	Abril	2023-04-27T00:00:00	2024-11-08T19:00:00	3	Temperatura mínima	15.1
103696	7	Sololá	701	Sololá	4	Finca Santa Victoria	4	Abril	2023-04-27T00:00:00	2024-11-08T19:00:00	5	Humedad	95
103697	7	Sololá	701	Sololá	4	Finca Santa Victoria	4	Abril	2023-04-27T00:00:00	2024-11-08T19:00:00	6	Velocidad del viento	0
103698	7	Sololá	701	Sololá	4	Finca Santa Victoria	4	Abril	2023-04-27T00:00:00	2024-11-08T19:00:00	7	Dirección del viento	0
103699	7	Sololá	701	Sololá	4	Finca Santa Victoria	4	Abril	2023-04-27T00:00:00	2024-11-08T19:00:00	1	Precipitación	0
103700	7	Sololá	701	Sololá	4	Finca Santa Victoria	4	Abril	2023-04-27T00:00:00	2024-11-08T19:00:00	8	Radiación solar	0
103701	7	Sololá	701	Sololá	4	Finca Santa Victoria	4	Abril	2023-04-27T00:00:00	2024-11-08T20:00:00	2	Temperatura media	14.8
103702	7	Sololá	701	Sololá	4	Finca Santa Victoria	4	Abril	2023-04-27T00:00:00	2024-11-08T20:00:00	4	Temperatura máxima	15.1
103703	7	Sololá	701	Sololá	4	Finca Santa Victoria	4	Abril	2023-04-27T00:00:00	2024-11-08T20:00:00	3	Temperatura mínima	14.8
103704	7	Sololá	701	Sololá	4	Finca Santa Victoria	4	Abril	2023-04-27T00:00:00	2024-11-08T20:00:00	5	Humedad	96
103705	7	Sololá	701	Sololá	4	Finca Santa Victoria	4	Abril	2023-04-27T00:00:00	2024-11-08T20:00:00	6	Velocidad del viento	1.6
103706	7	Sololá	701	Sololá	4	Finca Santa Victoria	4	Abril	2023-04-27T00:00:00	2024-11-08T20:00:00	7	Dirección del viento	1.61
103707	7	Sololá	701	Sololá	4	Finca Santa Victoria	4	Abril	2023-04-27T00:00:00	2024-11-08T20:00:00	1	Precipitación	0
103708	7	Sololá	701	Sololá	4	Finca Santa Victoria	4	Abril	2023-04-27T00:00:00	2024-11-08T20:00:00	8	Radiación solar	0
103709	7	Sololá	701	Sololá	4	Finca Santa Victoria	4	Abril	2023-04-27T00:00:00	2024-11-08T21:00:00	2	Temperatura media	14.9
103710	7	Sololá	701	Sololá	4	Finca Santa Victoria	4	Abril	2023-04-27T00:00:00	2024-11-08T21:00:00	4	Temperatura máxima	15.1
103711	7	Sololá	701	Sololá	4	Finca Santa Victoria	4	Abril	2023-04-27T00:00:00	2024-11-08T21:00:00	3	Temperatura mínima	14.8
103712	7	Sololá	701	Sololá	4	Finca Santa Victoria	4	Abril	2023-04-27T00:00:00	2024-11-08T21:00:00	5	Humedad	97
103713	7	Sololá	701	Sololá	4	Finca Santa Victoria	4	Abril	2023-04-27T00:00:00	2024-11-08T21:00:00	6	Velocidad del viento	0
103714	7	Sololá	701	Sololá	4	Finca Santa Victoria	4	Abril	2023-04-27T00:00:00	2024-11-08T21:00:00	7	Dirección del viento	0
103715	7	Sololá	701	Sololá	4	Finca Santa Victoria	4	Abril	2023-04-27T00:00:00	2024-11-08T21:00:00	1	Precipitación	0
103716	7	Sololá	701	Sololá	4	Finca Santa Victoria	4	Abril	2023-04-27T00:00:00	2024-11-08T21:00:00	8	Radiación solar	0
103717	7	Sololá	701	Sololá	4	Finca Santa Victoria	4	Abril	2023-04-27T00:00:00	2024-11-08T22:00:00	2	Temperatura media	14.6
103718	7	Sololá	701	Sololá	4	Finca Santa Victoria	4	Abril	2023-04-27T00:00:00	2024-11-08T22:00:00	4	Temperatura máxima	14.9
103719	7	Sololá	701	Sololá	4	Finca Santa Victoria	4	Abril	2023-04-27T00:00:00	2024-11-08T22:00:00	3	Temperatura mínima	14.6
103720	7	Sololá	701	Sololá	4	Finca Santa Victoria	4	Abril	2023-04-27T00:00:00	2024-11-08T22:00:00	5	Humedad	97
103721	7	Sololá	701	Sololá	4	Finca Santa Victoria	4	Abril	2023-04-27T00:00:00	2024-11-08T22:00:00	6	Velocidad del viento	0
103722	7	Sololá	701	Sololá	4	Finca Santa Victoria	4	Abril	2023-04-27T00:00:00	2024-11-08T22:00:00	7	Dirección del viento	0
103723	7	Sololá	701	Sololá	4	Finca Santa Victoria	4	Abril	2023-04-27T00:00:00	2024-11-08T22:00:00	1	Precipitación	0
103724	7	Sololá	701	Sololá	4	Finca Santa Victoria	4	Abril	2023-04-27T00:00:00	2024-11-08T22:00:00	8	Radiación solar	0
103725	7	Sololá	701	Sololá	4	Finca Santa Victoria	4	Abril	2023-04-27T00:00:00	2024-11-08T23:00:00	2	Temperatura media	14.3
103726	7	Sololá	701	Sololá	4	Finca Santa Victoria	4	Abril	2023-04-27T00:00:00	2024-11-08T23:00:00	4	Temperatura máxima	14.6
103727	7	Sololá	701	Sololá	4	Finca Santa Victoria	4	Abril	2023-04-27T00:00:00	2024-11-08T23:00:00	3	Temperatura mínima	14.1
103728	7	Sololá	701	Sololá	4	Finca Santa Victoria	4	Abril	2023-04-27T00:00:00	2024-11-08T23:00:00	5	Humedad	98
103729	7	Sololá	701	Sololá	4	Finca Santa Victoria	4	Abril	2023-04-27T00:00:00	2024-11-08T23:00:00	6	Velocidad del viento	0
103730	7	Sololá	701	Sololá	4	Finca Santa Victoria	4	Abril	2023-04-27T00:00:00	2024-11-08T23:00:00	7	Dirección del viento	0
103731	7	Sololá	701	Sololá	4	Finca Santa Victoria	4	Abril	2023-04-27T00:00:00	2024-11-08T23:00:00	1	Precipitación	0
103732	7	Sololá	701	Sololá	4	Finca Santa Victoria	4	Abril	2023-04-27T00:00:00	2024-11-08T23:00:00	8	Radiación solar	0
103733	7	Sololá	701	Sololá	4	Finca Santa Victoria	4	Abril	2023-04-28T00:00:00	2024-11-08T00:00:00	2	Temperatura media	14.2
103734	7	Sololá	701	Sololá	4	Finca Santa Victoria	4	Abril	2023-04-28T00:00:00	2024-11-08T00:00:00	4	Temperatura máxima	14.3
103735	7	Sololá	701	Sololá	4	Finca Santa Victoria	4	Abril	2023-04-28T00:00:00	2024-11-08T00:00:00	3	Temperatura mínima	14.1
103736	7	Sololá	701	Sololá	4	Finca Santa Victoria	4	Abril	2023-04-28T00:00:00	2024-11-08T00:00:00	5	Humedad	97
103737	7	Sololá	701	Sololá	4	Finca Santa Victoria	4	Abril	2023-04-28T00:00:00	2024-11-08T00:00:00	6	Velocidad del viento	0
103738	7	Sololá	701	Sololá	4	Finca Santa Victoria	4	Abril	2023-04-28T00:00:00	2024-11-08T00:00:00	7	Dirección del viento	0
103739	7	Sololá	701	Sololá	4	Finca Santa Victoria	4	Abril	2023-04-28T00:00:00	2024-11-08T00:00:00	1	Precipitación	0
103740	7	Sololá	701	Sololá	4	Finca Santa Victoria	4	Abril	2023-04-28T00:00:00	2024-11-08T00:00:00	8	Radiación solar	0
103741	7	Sololá	701	Sololá	4	Finca Santa Victoria	4	Abril	2023-04-28T00:00:00	2024-11-08T01:00:00	2	Temperatura media	13.8
103742	7	Sololá	701	Sololá	4	Finca Santa Victoria	4	Abril	2023-04-28T00:00:00	2024-11-08T01:00:00	4	Temperatura máxima	14.2
103743	7	Sololá	701	Sololá	4	Finca Santa Victoria	4	Abril	2023-04-28T00:00:00	2024-11-08T01:00:00	3	Temperatura mínima	13.7
103744	7	Sololá	701	Sololá	4	Finca Santa Victoria	4	Abril	2023-04-28T00:00:00	2024-11-08T01:00:00	5	Humedad	97
103745	7	Sololá	701	Sololá	4	Finca Santa Victoria	4	Abril	2023-04-28T00:00:00	2024-11-08T01:00:00	6	Velocidad del viento	0
103746	7	Sololá	701	Sololá	4	Finca Santa Victoria	4	Abril	2023-04-28T00:00:00	2024-11-08T01:00:00	7	Dirección del viento	0
103747	7	Sololá	701	Sololá	4	Finca Santa Victoria	4	Abril	2023-04-28T00:00:00	2024-11-08T01:00:00	1	Precipitación	0
103748	7	Sololá	701	Sololá	4	Finca Santa Victoria	4	Abril	2023-04-28T00:00:00	2024-11-08T01:00:00	8	Radiación solar	0
103749	7	Sololá	701	Sololá	4	Finca Santa Victoria	4	Abril	2023-04-28T00:00:00	2024-11-08T02:00:00	2	Temperatura media	13.3
103750	7	Sololá	701	Sololá	4	Finca Santa Victoria	4	Abril	2023-04-28T00:00:00	2024-11-08T02:00:00	4	Temperatura máxima	13.8
103751	7	Sololá	701	Sololá	4	Finca Santa Victoria	4	Abril	2023-04-28T00:00:00	2024-11-08T02:00:00	3	Temperatura mínima	13.2
103752	7	Sololá	701	Sololá	4	Finca Santa Victoria	4	Abril	2023-04-28T00:00:00	2024-11-08T02:00:00	5	Humedad	98
103753	7	Sololá	701	Sololá	4	Finca Santa Victoria	4	Abril	2023-04-28T00:00:00	2024-11-08T02:00:00	6	Velocidad del viento	0
103754	7	Sololá	701	Sololá	4	Finca Santa Victoria	4	Abril	2023-04-28T00:00:00	2024-11-08T02:00:00	7	Dirección del viento	0
103755	7	Sololá	701	Sololá	4	Finca Santa Victoria	4	Abril	2023-04-28T00:00:00	2024-11-08T02:00:00	1	Precipitación	0
103756	7	Sololá	701	Sololá	4	Finca Santa Victoria	4	Abril	2023-04-28T00:00:00	2024-11-08T02:00:00	8	Radiación solar	0
103757	7	Sololá	701	Sololá	4	Finca Santa Victoria	4	Abril	2023-04-28T00:00:00	2024-11-08T03:00:00	2	Temperatura media	13.2
103758	7	Sololá	701	Sololá	4	Finca Santa Victoria	4	Abril	2023-04-28T00:00:00	2024-11-08T03:00:00	4	Temperatura máxima	13.5
103759	7	Sololá	701	Sololá	4	Finca Santa Victoria	4	Abril	2023-04-28T00:00:00	2024-11-08T03:00:00	3	Temperatura mínima	13.2
103760	7	Sololá	701	Sololá	4	Finca Santa Victoria	4	Abril	2023-04-28T00:00:00	2024-11-08T03:00:00	5	Humedad	97
103761	7	Sololá	701	Sololá	4	Finca Santa Victoria	4	Abril	2023-04-28T00:00:00	2024-11-08T03:00:00	6	Velocidad del viento	0
103762	7	Sololá	701	Sololá	4	Finca Santa Victoria	4	Abril	2023-04-28T00:00:00	2024-11-08T03:00:00	7	Dirección del viento	0
103763	7	Sololá	701	Sololá	4	Finca Santa Victoria	4	Abril	2023-04-28T00:00:00	2024-11-08T03:00:00	1	Precipitación	0
103764	7	Sololá	701	Sololá	4	Finca Santa Victoria	4	Abril	2023-04-28T00:00:00	2024-11-08T03:00:00	8	Radiación solar	0
103765	7	Sololá	701	Sololá	4	Finca Santa Victoria	4	Abril	2023-04-28T00:00:00	2024-11-08T04:00:00	2	Temperatura media	13.1
103766	7	Sololá	701	Sololá	4	Finca Santa Victoria	4	Abril	2023-04-28T00:00:00	2024-11-08T04:00:00	4	Temperatura máxima	13.3
103767	7	Sololá	701	Sololá	4	Finca Santa Victoria	4	Abril	2023-04-28T00:00:00	2024-11-08T04:00:00	3	Temperatura mínima	13
103768	7	Sololá	701	Sololá	4	Finca Santa Victoria	4	Abril	2023-04-28T00:00:00	2024-11-08T04:00:00	5	Humedad	98
103769	7	Sololá	701	Sololá	4	Finca Santa Victoria	4	Abril	2023-04-28T00:00:00	2024-11-08T04:00:00	6	Velocidad del viento	0
103770	7	Sololá	701	Sololá	4	Finca Santa Victoria	4	Abril	2023-04-28T00:00:00	2024-11-08T04:00:00	7	Dirección del viento	0
103771	7	Sololá	701	Sololá	4	Finca Santa Victoria	4	Abril	2023-04-28T00:00:00	2024-11-08T04:00:00	1	Precipitación	0
103772	7	Sololá	701	Sololá	4	Finca Santa Victoria	4	Abril	2023-04-28T00:00:00	2024-11-08T04:00:00	8	Radiación solar	0
103773	7	Sololá	701	Sololá	4	Finca Santa Victoria	4	Abril	2023-04-28T00:00:00	2024-11-08T05:00:00	2	Temperatura media	13.4
103774	7	Sololá	701	Sololá	4	Finca Santa Victoria	4	Abril	2023-04-28T00:00:00	2024-11-08T05:00:00	4	Temperatura máxima	13.4
103775	7	Sololá	701	Sololá	4	Finca Santa Victoria	4	Abril	2023-04-28T00:00:00	2024-11-08T05:00:00	3	Temperatura mínima	12.9
103776	7	Sololá	701	Sololá	4	Finca Santa Victoria	4	Abril	2023-04-28T00:00:00	2024-11-08T05:00:00	5	Humedad	98
103777	7	Sololá	701	Sololá	4	Finca Santa Victoria	4	Abril	2023-04-28T00:00:00	2024-11-08T05:00:00	6	Velocidad del viento	0
103778	7	Sololá	701	Sololá	4	Finca Santa Victoria	4	Abril	2023-04-28T00:00:00	2024-11-08T05:00:00	7	Dirección del viento	0
103779	7	Sololá	701	Sololá	4	Finca Santa Victoria	4	Abril	2023-04-28T00:00:00	2024-11-08T05:00:00	1	Precipitación	0
103780	7	Sololá	701	Sololá	4	Finca Santa Victoria	4	Abril	2023-04-28T00:00:00	2024-11-08T05:00:00	8	Radiación solar	0
103781	7	Sololá	701	Sololá	4	Finca Santa Victoria	4	Abril	2023-04-28T00:00:00	2024-11-08T06:00:00	2	Temperatura media	13.1
103782	7	Sololá	701	Sololá	4	Finca Santa Victoria	4	Abril	2023-04-28T00:00:00	2024-11-08T06:00:00	4	Temperatura máxima	13.4
103783	7	Sololá	701	Sololá	4	Finca Santa Victoria	4	Abril	2023-04-28T00:00:00	2024-11-08T06:00:00	3	Temperatura mínima	13.1
103784	7	Sololá	701	Sololá	4	Finca Santa Victoria	4	Abril	2023-04-28T00:00:00	2024-11-08T06:00:00	5	Humedad	98
103785	7	Sololá	701	Sololá	4	Finca Santa Victoria	4	Abril	2023-04-28T00:00:00	2024-11-08T06:00:00	6	Velocidad del viento	0
103786	7	Sololá	701	Sololá	4	Finca Santa Victoria	4	Abril	2023-04-28T00:00:00	2024-11-08T06:00:00	7	Dirección del viento	0
103787	7	Sololá	701	Sololá	4	Finca Santa Victoria	4	Abril	2023-04-28T00:00:00	2024-11-08T06:00:00	1	Precipitación	0
103788	7	Sololá	701	Sololá	4	Finca Santa Victoria	4	Abril	2023-04-28T00:00:00	2024-11-08T06:00:00	8	Radiación solar	1
103789	7	Sololá	701	Sololá	4	Finca Santa Victoria	4	Abril	2023-04-28T00:00:00	2024-11-08T07:00:00	2	Temperatura media	13.2
103790	7	Sololá	701	Sololá	4	Finca Santa Victoria	4	Abril	2023-04-28T00:00:00	2024-11-08T07:00:00	4	Temperatura máxima	13.2
103791	7	Sololá	701	Sololá	4	Finca Santa Victoria	4	Abril	2023-04-28T00:00:00	2024-11-08T07:00:00	3	Temperatura mínima	12.8
103792	7	Sololá	701	Sololá	4	Finca Santa Victoria	4	Abril	2023-04-28T00:00:00	2024-11-08T07:00:00	5	Humedad	98
103793	7	Sololá	701	Sololá	4	Finca Santa Victoria	4	Abril	2023-04-28T00:00:00	2024-11-08T07:00:00	6	Velocidad del viento	0
103794	7	Sololá	701	Sololá	4	Finca Santa Victoria	4	Abril	2023-04-28T00:00:00	2024-11-08T07:00:00	7	Dirección del viento	0
103795	7	Sololá	701	Sololá	4	Finca Santa Victoria	4	Abril	2023-04-28T00:00:00	2024-11-08T07:00:00	1	Precipitación	0
103796	7	Sololá	701	Sololá	4	Finca Santa Victoria	4	Abril	2023-04-28T00:00:00	2024-11-08T07:00:00	8	Radiación solar	35
103797	7	Sololá	701	Sololá	4	Finca Santa Victoria	4	Abril	2023-04-28T00:00:00	2024-11-08T08:00:00	2	Temperatura media	16.4
103798	7	Sololá	701	Sololá	4	Finca Santa Victoria	4	Abril	2023-04-28T00:00:00	2024-11-08T08:00:00	4	Temperatura máxima	16.4
103799	7	Sololá	701	Sololá	4	Finca Santa Victoria	4	Abril	2023-04-28T00:00:00	2024-11-08T08:00:00	3	Temperatura mínima	13.2
103800	7	Sololá	701	Sololá	4	Finca Santa Victoria	4	Abril	2023-04-28T00:00:00	2024-11-08T08:00:00	5	Humedad	88
103801	7	Sololá	701	Sololá	4	Finca Santa Victoria	4	Abril	2023-04-28T00:00:00	2024-11-08T08:00:00	6	Velocidad del viento	0
103802	7	Sololá	701	Sololá	4	Finca Santa Victoria	4	Abril	2023-04-28T00:00:00	2024-11-08T08:00:00	7	Dirección del viento	0
103803	7	Sololá	701	Sololá	4	Finca Santa Victoria	4	Abril	2023-04-28T00:00:00	2024-11-08T08:00:00	1	Precipitación	0
103804	7	Sololá	701	Sololá	4	Finca Santa Victoria	4	Abril	2023-04-28T00:00:00	2024-11-08T08:00:00	8	Radiación solar	184
103805	7	Sololá	701	Sololá	4	Finca Santa Victoria	4	Abril	2023-04-28T00:00:00	2024-11-08T09:00:00	2	Temperatura media	18.3
103806	7	Sololá	701	Sololá	4	Finca Santa Victoria	4	Abril	2023-04-28T00:00:00	2024-11-08T09:00:00	4	Temperatura máxima	18.3
103807	7	Sololá	701	Sololá	4	Finca Santa Victoria	4	Abril	2023-04-28T00:00:00	2024-11-08T09:00:00	3	Temperatura mínima	16.4
103808	7	Sololá	701	Sololá	4	Finca Santa Victoria	4	Abril	2023-04-28T00:00:00	2024-11-08T09:00:00	5	Humedad	84
103809	7	Sololá	701	Sololá	4	Finca Santa Victoria	4	Abril	2023-04-28T00:00:00	2024-11-08T09:00:00	6	Velocidad del viento	1.6
103810	7	Sololá	701	Sololá	4	Finca Santa Victoria	4	Abril	2023-04-28T00:00:00	2024-11-08T09:00:00	7	Dirección del viento	1.61
103811	7	Sololá	701	Sololá	4	Finca Santa Victoria	4	Abril	2023-04-28T00:00:00	2024-11-08T09:00:00	1	Precipitación	0
103812	7	Sololá	701	Sololá	4	Finca Santa Victoria	4	Abril	2023-04-28T00:00:00	2024-11-08T09:00:00	8	Radiación solar	393
103813	7	Sololá	701	Sololá	4	Finca Santa Victoria	4	Abril	2023-04-28T00:00:00	2024-11-08T10:00:00	2	Temperatura media	18.9
103814	7	Sololá	701	Sololá	4	Finca Santa Victoria	4	Abril	2023-04-28T00:00:00	2024-11-08T10:00:00	4	Temperatura máxima	18.9
103815	7	Sololá	701	Sololá	4	Finca Santa Victoria	4	Abril	2023-04-28T00:00:00	2024-11-08T10:00:00	3	Temperatura mínima	18.3
103816	7	Sololá	701	Sololá	4	Finca Santa Victoria	4	Abril	2023-04-28T00:00:00	2024-11-08T10:00:00	5	Humedad	80
103817	7	Sololá	701	Sololá	4	Finca Santa Victoria	4	Abril	2023-04-28T00:00:00	2024-11-08T10:00:00	6	Velocidad del viento	3.2
103818	7	Sololá	701	Sololá	4	Finca Santa Victoria	4	Abril	2023-04-28T00:00:00	2024-11-08T10:00:00	7	Dirección del viento	3.22
103819	7	Sololá	701	Sololá	4	Finca Santa Victoria	4	Abril	2023-04-28T00:00:00	2024-11-08T10:00:00	1	Precipitación	0
103820	7	Sololá	701	Sololá	4	Finca Santa Victoria	4	Abril	2023-04-28T00:00:00	2024-11-08T10:00:00	8	Radiación solar	243
103821	7	Sololá	701	Sololá	4	Finca Santa Victoria	4	Abril	2023-04-28T00:00:00	2024-11-08T11:00:00	2	Temperatura media	18.9
103822	7	Sololá	701	Sololá	4	Finca Santa Victoria	4	Abril	2023-04-28T00:00:00	2024-11-08T11:00:00	4	Temperatura máxima	19.6
103823	7	Sololá	701	Sololá	4	Finca Santa Victoria	4	Abril	2023-04-28T00:00:00	2024-11-08T11:00:00	3	Temperatura mínima	18.8
103824	7	Sololá	701	Sololá	4	Finca Santa Victoria	4	Abril	2023-04-28T00:00:00	2024-11-08T11:00:00	5	Humedad	75
103825	7	Sololá	701	Sololá	4	Finca Santa Victoria	4	Abril	2023-04-28T00:00:00	2024-11-08T11:00:00	6	Velocidad del viento	4.8
103826	7	Sololá	701	Sololá	4	Finca Santa Victoria	4	Abril	2023-04-28T00:00:00	2024-11-08T11:00:00	7	Dirección del viento	4.83
103827	7	Sololá	701	Sololá	4	Finca Santa Victoria	4	Abril	2023-04-28T00:00:00	2024-11-08T11:00:00	1	Precipitación	0
103828	7	Sololá	701	Sololá	4	Finca Santa Victoria	4	Abril	2023-04-28T00:00:00	2024-11-08T11:00:00	8	Radiación solar	555
103829	7	Sololá	701	Sololá	4	Finca Santa Victoria	4	Abril	2023-04-28T00:00:00	2024-11-08T12:00:00	2	Temperatura media	19.8
103830	7	Sololá	701	Sololá	4	Finca Santa Victoria	4	Abril	2023-04-28T00:00:00	2024-11-08T12:00:00	4	Temperatura máxima	20.1
103831	7	Sololá	701	Sololá	4	Finca Santa Victoria	4	Abril	2023-04-28T00:00:00	2024-11-08T12:00:00	3	Temperatura mínima	18.4
103832	7	Sololá	701	Sololá	4	Finca Santa Victoria	4	Abril	2023-04-28T00:00:00	2024-11-08T12:00:00	5	Humedad	79
103833	7	Sololá	701	Sololá	4	Finca Santa Victoria	4	Abril	2023-04-28T00:00:00	2024-11-08T12:00:00	6	Velocidad del viento	4.8
103834	7	Sololá	701	Sololá	4	Finca Santa Victoria	4	Abril	2023-04-28T00:00:00	2024-11-08T12:00:00	7	Dirección del viento	4.83
103835	7	Sololá	701	Sololá	4	Finca Santa Victoria	4	Abril	2023-04-28T00:00:00	2024-11-08T12:00:00	1	Precipitación	0
103836	7	Sololá	701	Sololá	4	Finca Santa Victoria	4	Abril	2023-04-28T00:00:00	2024-11-08T12:00:00	8	Radiación solar	674
103837	7	Sololá	701	Sololá	4	Finca Santa Victoria	4	Abril	2023-04-28T00:00:00	2024-11-08T13:00:00	2	Temperatura media	18.7
103838	7	Sololá	701	Sololá	4	Finca Santa Victoria	4	Abril	2023-04-28T00:00:00	2024-11-08T13:00:00	4	Temperatura máxima	20.2
103839	7	Sololá	701	Sololá	4	Finca Santa Victoria	4	Abril	2023-04-28T00:00:00	2024-11-08T13:00:00	3	Temperatura mínima	18.7
103840	7	Sololá	701	Sololá	4	Finca Santa Victoria	4	Abril	2023-04-28T00:00:00	2024-11-08T13:00:00	5	Humedad	86
103841	7	Sololá	701	Sololá	4	Finca Santa Victoria	4	Abril	2023-04-28T00:00:00	2024-11-08T13:00:00	6	Velocidad del viento	4.8
103842	7	Sololá	701	Sololá	4	Finca Santa Victoria	4	Abril	2023-04-28T00:00:00	2024-11-08T13:00:00	7	Dirección del viento	4.83
103843	7	Sololá	701	Sololá	4	Finca Santa Victoria	4	Abril	2023-04-28T00:00:00	2024-11-08T13:00:00	1	Precipitación	0
103844	7	Sololá	701	Sololá	4	Finca Santa Victoria	4	Abril	2023-04-28T00:00:00	2024-11-08T13:00:00	8	Radiación solar	652
103845	7	Sololá	701	Sololá	4	Finca Santa Victoria	4	Abril	2023-04-28T00:00:00	2024-11-08T14:00:00	2	Temperatura media	17.5
103846	7	Sololá	701	Sololá	4	Finca Santa Victoria	4	Abril	2023-04-28T00:00:00	2024-11-08T14:00:00	4	Temperatura máxima	18.7
103847	7	Sololá	701	Sololá	4	Finca Santa Victoria	4	Abril	2023-04-28T00:00:00	2024-11-08T14:00:00	3	Temperatura mínima	16.9
103848	7	Sololá	701	Sololá	4	Finca Santa Victoria	4	Abril	2023-04-28T00:00:00	2024-11-08T14:00:00	5	Humedad	89
103849	7	Sololá	701	Sololá	4	Finca Santa Victoria	4	Abril	2023-04-28T00:00:00	2024-11-08T14:00:00	6	Velocidad del viento	3.2
103850	7	Sololá	701	Sololá	4	Finca Santa Victoria	4	Abril	2023-04-28T00:00:00	2024-11-08T14:00:00	7	Dirección del viento	3.22
103851	7	Sololá	701	Sololá	4	Finca Santa Victoria	4	Abril	2023-04-28T00:00:00	2024-11-08T14:00:00	1	Precipitación	0
103852	7	Sololá	701	Sololá	4	Finca Santa Victoria	4	Abril	2023-04-28T00:00:00	2024-11-08T14:00:00	8	Radiación solar	163
103853	7	Sololá	701	Sololá	4	Finca Santa Victoria	4	Abril	2023-04-28T00:00:00	2024-11-08T15:00:00	2	Temperatura media	17.6
103854	7	Sololá	701	Sololá	4	Finca Santa Victoria	4	Abril	2023-04-28T00:00:00	2024-11-08T15:00:00	4	Temperatura máxima	17.9
103855	7	Sololá	701	Sololá	4	Finca Santa Victoria	4	Abril	2023-04-28T00:00:00	2024-11-08T15:00:00	3	Temperatura mínima	17.5
103856	7	Sololá	701	Sololá	4	Finca Santa Victoria	4	Abril	2023-04-28T00:00:00	2024-11-08T15:00:00	5	Humedad	89
103857	7	Sololá	701	Sololá	4	Finca Santa Victoria	4	Abril	2023-04-28T00:00:00	2024-11-08T15:00:00	6	Velocidad del viento	3.2
103858	7	Sololá	701	Sololá	4	Finca Santa Victoria	4	Abril	2023-04-28T00:00:00	2024-11-08T15:00:00	7	Dirección del viento	3.22
103859	7	Sololá	701	Sololá	4	Finca Santa Victoria	4	Abril	2023-04-28T00:00:00	2024-11-08T15:00:00	1	Precipitación	0
103860	7	Sololá	701	Sololá	4	Finca Santa Victoria	4	Abril	2023-04-28T00:00:00	2024-11-08T15:00:00	8	Radiación solar	205
103861	7	Sololá	701	Sololá	4	Finca Santa Victoria	4	Abril	2023-04-28T00:00:00	2024-11-08T16:00:00	2	Temperatura media	17.1
103862	7	Sololá	701	Sololá	4	Finca Santa Victoria	4	Abril	2023-04-28T00:00:00	2024-11-08T16:00:00	4	Temperatura máxima	18.6
103863	7	Sololá	701	Sololá	4	Finca Santa Victoria	4	Abril	2023-04-28T00:00:00	2024-11-08T16:00:00	3	Temperatura mínima	17.1
103864	7	Sololá	701	Sololá	4	Finca Santa Victoria	4	Abril	2023-04-28T00:00:00	2024-11-08T16:00:00	5	Humedad	90
103865	7	Sololá	701	Sololá	4	Finca Santa Victoria	4	Abril	2023-04-28T00:00:00	2024-11-08T16:00:00	6	Velocidad del viento	3.2
103866	7	Sololá	701	Sololá	4	Finca Santa Victoria	4	Abril	2023-04-28T00:00:00	2024-11-08T16:00:00	7	Dirección del viento	3.22
103867	7	Sololá	701	Sololá	4	Finca Santa Victoria	4	Abril	2023-04-28T00:00:00	2024-11-08T16:00:00	1	Precipitación	0
103868	7	Sololá	701	Sololá	4	Finca Santa Victoria	4	Abril	2023-04-28T00:00:00	2024-11-08T16:00:00	8	Radiación solar	193
103869	7	Sololá	701	Sololá	4	Finca Santa Victoria	4	Abril	2023-04-28T00:00:00	2024-11-08T17:00:00	2	Temperatura media	15.6
103870	7	Sololá	701	Sololá	4	Finca Santa Victoria	4	Abril	2023-04-28T00:00:00	2024-11-08T17:00:00	4	Temperatura máxima	17.1
103871	7	Sololá	701	Sololá	4	Finca Santa Victoria	4	Abril	2023-04-28T00:00:00	2024-11-08T17:00:00	3	Temperatura mínima	15.5
103872	7	Sololá	701	Sololá	4	Finca Santa Victoria	4	Abril	2023-04-28T00:00:00	2024-11-08T17:00:00	5	Humedad	96
103873	7	Sololá	701	Sololá	4	Finca Santa Victoria	4	Abril	2023-04-28T00:00:00	2024-11-08T17:00:00	6	Velocidad del viento	1.6
103874	7	Sololá	701	Sololá	4	Finca Santa Victoria	4	Abril	2023-04-28T00:00:00	2024-11-08T17:00:00	7	Dirección del viento	1.61
103875	7	Sololá	701	Sololá	4	Finca Santa Victoria	4	Abril	2023-04-28T00:00:00	2024-11-08T17:00:00	1	Precipitación	0
103876	7	Sololá	701	Sololá	4	Finca Santa Victoria	4	Abril	2023-04-28T00:00:00	2024-11-08T17:00:00	8	Radiación solar	25
103877	7	Sololá	701	Sololá	4	Finca Santa Victoria	4	Abril	2023-04-28T00:00:00	2024-11-08T18:00:00	2	Temperatura media	15.4
103878	7	Sololá	701	Sololá	4	Finca Santa Victoria	4	Abril	2023-04-28T00:00:00	2024-11-08T18:00:00	4	Temperatura máxima	15.6
103879	7	Sololá	701	Sololá	4	Finca Santa Victoria	4	Abril	2023-04-28T00:00:00	2024-11-08T18:00:00	3	Temperatura mínima	15.3
103880	7	Sololá	701	Sololá	4	Finca Santa Victoria	4	Abril	2023-04-28T00:00:00	2024-11-08T18:00:00	5	Humedad	96
103881	7	Sololá	701	Sololá	4	Finca Santa Victoria	4	Abril	2023-04-28T00:00:00	2024-11-08T18:00:00	6	Velocidad del viento	1.6
103882	7	Sololá	701	Sololá	4	Finca Santa Victoria	4	Abril	2023-04-28T00:00:00	2024-11-08T18:00:00	7	Dirección del viento	1.61
103883	7	Sololá	701	Sololá	4	Finca Santa Victoria	4	Abril	2023-04-28T00:00:00	2024-11-08T18:00:00	1	Precipitación	0
103884	7	Sololá	701	Sololá	4	Finca Santa Victoria	4	Abril	2023-04-28T00:00:00	2024-11-08T18:00:00	8	Radiación solar	17
103885	7	Sololá	701	Sololá	4	Finca Santa Victoria	4	Abril	2023-04-28T00:00:00	2024-11-08T19:00:00	2	Temperatura media	15.3
103886	7	Sololá	701	Sololá	4	Finca Santa Victoria	4	Abril	2023-04-28T00:00:00	2024-11-08T19:00:00	4	Temperatura máxima	15.4
103887	7	Sololá	701	Sololá	4	Finca Santa Victoria	4	Abril	2023-04-28T00:00:00	2024-11-08T19:00:00	3	Temperatura mínima	15.3
103888	7	Sololá	701	Sololá	4	Finca Santa Victoria	4	Abril	2023-04-28T00:00:00	2024-11-08T19:00:00	5	Humedad	96
103889	7	Sololá	701	Sololá	4	Finca Santa Victoria	4	Abril	2023-04-28T00:00:00	2024-11-08T19:00:00	6	Velocidad del viento	1.6
103890	7	Sololá	701	Sololá	4	Finca Santa Victoria	4	Abril	2023-04-28T00:00:00	2024-11-08T19:00:00	7	Dirección del viento	1.61
103891	7	Sololá	701	Sololá	4	Finca Santa Victoria	4	Abril	2023-04-28T00:00:00	2024-11-08T19:00:00	1	Precipitación	0
103892	7	Sololá	701	Sololá	4	Finca Santa Victoria	4	Abril	2023-04-28T00:00:00	2024-11-08T19:00:00	8	Radiación solar	0
103893	7	Sololá	701	Sololá	4	Finca Santa Victoria	4	Abril	2023-04-28T00:00:00	2024-11-08T20:00:00	2	Temperatura media	15.2
103894	7	Sololá	701	Sololá	4	Finca Santa Victoria	4	Abril	2023-04-28T00:00:00	2024-11-08T20:00:00	4	Temperatura máxima	15.4
103895	7	Sololá	701	Sololá	4	Finca Santa Victoria	4	Abril	2023-04-28T00:00:00	2024-11-08T20:00:00	3	Temperatura mínima	15.2
103896	7	Sololá	701	Sololá	4	Finca Santa Victoria	4	Abril	2023-04-28T00:00:00	2024-11-08T20:00:00	5	Humedad	97
103897	7	Sololá	701	Sololá	4	Finca Santa Victoria	4	Abril	2023-04-28T00:00:00	2024-11-08T20:00:00	6	Velocidad del viento	0
103898	7	Sololá	701	Sololá	4	Finca Santa Victoria	4	Abril	2023-04-28T00:00:00	2024-11-08T20:00:00	7	Dirección del viento	0
103899	7	Sololá	701	Sololá	4	Finca Santa Victoria	4	Abril	2023-04-28T00:00:00	2024-11-08T20:00:00	1	Precipitación	0
103900	7	Sololá	701	Sololá	4	Finca Santa Victoria	4	Abril	2023-04-28T00:00:00	2024-11-08T20:00:00	8	Radiación solar	0
103901	7	Sololá	701	Sololá	4	Finca Santa Victoria	4	Abril	2023-04-28T00:00:00	2024-11-08T21:00:00	2	Temperatura media	14.7
103902	7	Sololá	701	Sololá	4	Finca Santa Victoria	4	Abril	2023-04-28T00:00:00	2024-11-08T21:00:00	4	Temperatura máxima	15.2
103903	7	Sololá	701	Sololá	4	Finca Santa Victoria	4	Abril	2023-04-28T00:00:00	2024-11-08T21:00:00	3	Temperatura mínima	14.7
103904	7	Sololá	701	Sololá	4	Finca Santa Victoria	4	Abril	2023-04-28T00:00:00	2024-11-08T21:00:00	5	Humedad	97
103905	7	Sololá	701	Sololá	4	Finca Santa Victoria	4	Abril	2023-04-28T00:00:00	2024-11-08T21:00:00	6	Velocidad del viento	1.6
103906	7	Sololá	701	Sololá	4	Finca Santa Victoria	4	Abril	2023-04-28T00:00:00	2024-11-08T21:00:00	7	Dirección del viento	1.61
103907	7	Sololá	701	Sololá	4	Finca Santa Victoria	4	Abril	2023-04-28T00:00:00	2024-11-08T21:00:00	1	Precipitación	0
103908	7	Sololá	701	Sololá	4	Finca Santa Victoria	4	Abril	2023-04-28T00:00:00	2024-11-08T21:00:00	8	Radiación solar	0
103909	7	Sololá	701	Sololá	4	Finca Santa Victoria	4	Abril	2023-04-28T00:00:00	2024-11-08T22:00:00	2	Temperatura media	14.6
103910	7	Sololá	701	Sololá	4	Finca Santa Victoria	4	Abril	2023-04-28T00:00:00	2024-11-08T22:00:00	4	Temperatura máxima	14.7
103911	7	Sololá	701	Sololá	4	Finca Santa Victoria	4	Abril	2023-04-28T00:00:00	2024-11-08T22:00:00	3	Temperatura mínima	14.4
103912	7	Sololá	701	Sololá	4	Finca Santa Victoria	4	Abril	2023-04-28T00:00:00	2024-11-08T22:00:00	5	Humedad	98
103913	7	Sololá	701	Sololá	4	Finca Santa Victoria	4	Abril	2023-04-28T00:00:00	2024-11-08T22:00:00	6	Velocidad del viento	0
103914	7	Sololá	701	Sololá	4	Finca Santa Victoria	4	Abril	2023-04-28T00:00:00	2024-11-08T22:00:00	7	Dirección del viento	0
103915	7	Sololá	701	Sololá	4	Finca Santa Victoria	4	Abril	2023-04-28T00:00:00	2024-11-08T22:00:00	1	Precipitación	0
103916	7	Sololá	701	Sololá	4	Finca Santa Victoria	4	Abril	2023-04-28T00:00:00	2024-11-08T22:00:00	8	Radiación solar	0
103917	7	Sololá	701	Sololá	4	Finca Santa Victoria	4	Abril	2023-04-28T00:00:00	2024-11-08T23:00:00	2	Temperatura media	14.3
103918	7	Sololá	701	Sololá	4	Finca Santa Victoria	4	Abril	2023-04-28T00:00:00	2024-11-08T23:00:00	4	Temperatura máxima	14.6
103919	7	Sololá	701	Sololá	4	Finca Santa Victoria	4	Abril	2023-04-28T00:00:00	2024-11-08T23:00:00	3	Temperatura mínima	14.3
103920	7	Sololá	701	Sololá	4	Finca Santa Victoria	4	Abril	2023-04-28T00:00:00	2024-11-08T23:00:00	5	Humedad	98
103921	7	Sololá	701	Sololá	4	Finca Santa Victoria	4	Abril	2023-04-28T00:00:00	2024-11-08T23:00:00	6	Velocidad del viento	0
103922	7	Sololá	701	Sololá	4	Finca Santa Victoria	4	Abril	2023-04-28T00:00:00	2024-11-08T23:00:00	7	Dirección del viento	0
103923	7	Sololá	701	Sololá	4	Finca Santa Victoria	4	Abril	2023-04-28T00:00:00	2024-11-08T23:00:00	1	Precipitación	0
103924	7	Sololá	701	Sololá	4	Finca Santa Victoria	4	Abril	2023-04-28T00:00:00	2024-11-08T23:00:00	8	Radiación solar	0
103925	7	Sololá	701	Sololá	4	Finca Santa Victoria	4	Abril	2023-04-29T00:00:00	2024-11-08T00:00:00	2	Temperatura media	12.5
103926	7	Sololá	701	Sololá	4	Finca Santa Victoria	4	Abril	2023-04-29T00:00:00	2024-11-08T00:00:00	4	Temperatura máxima	14.3
103927	7	Sololá	701	Sololá	4	Finca Santa Victoria	4	Abril	2023-04-29T00:00:00	2024-11-08T00:00:00	3	Temperatura mínima	12.4
103928	7	Sololá	701	Sololá	4	Finca Santa Victoria	4	Abril	2023-04-29T00:00:00	2024-11-08T00:00:00	5	Humedad	93
103929	7	Sololá	701	Sololá	4	Finca Santa Victoria	4	Abril	2023-04-29T00:00:00	2024-11-08T00:00:00	6	Velocidad del viento	1.6
103930	7	Sololá	701	Sololá	4	Finca Santa Victoria	4	Abril	2023-04-29T00:00:00	2024-11-08T00:00:00	7	Dirección del viento	1.61
103931	7	Sololá	701	Sololá	4	Finca Santa Victoria	4	Abril	2023-04-29T00:00:00	2024-11-08T00:00:00	1	Precipitación	1.2
103932	7	Sololá	701	Sololá	4	Finca Santa Victoria	4	Abril	2023-04-29T00:00:00	2024-11-08T00:00:00	8	Radiación solar	0
103933	7	Sololá	701	Sololá	4	Finca Santa Victoria	4	Abril	2023-04-29T00:00:00	2024-11-08T01:00:00	2	Temperatura media	12.4
103934	7	Sololá	701	Sololá	4	Finca Santa Victoria	4	Abril	2023-04-29T00:00:00	2024-11-08T01:00:00	4	Temperatura máxima	12.4
103935	7	Sololá	701	Sololá	4	Finca Santa Victoria	4	Abril	2023-04-29T00:00:00	2024-11-08T01:00:00	3	Temperatura mínima	12
103936	7	Sololá	701	Sololá	4	Finca Santa Victoria	4	Abril	2023-04-29T00:00:00	2024-11-08T01:00:00	5	Humedad	90
103937	7	Sololá	701	Sololá	4	Finca Santa Victoria	4	Abril	2023-04-29T00:00:00	2024-11-08T01:00:00	6	Velocidad del viento	1.6
103938	7	Sololá	701	Sololá	4	Finca Santa Victoria	4	Abril	2023-04-29T00:00:00	2024-11-08T01:00:00	7	Dirección del viento	1.61
103939	7	Sololá	701	Sololá	4	Finca Santa Victoria	4	Abril	2023-04-29T00:00:00	2024-11-08T01:00:00	1	Precipitación	0.2
103940	7	Sololá	701	Sololá	4	Finca Santa Victoria	4	Abril	2023-04-29T00:00:00	2024-11-08T01:00:00	8	Radiación solar	0
103941	7	Sololá	701	Sololá	4	Finca Santa Victoria	4	Abril	2023-04-29T00:00:00	2024-11-08T02:00:00	2	Temperatura media	13.3
103942	7	Sololá	701	Sololá	4	Finca Santa Victoria	4	Abril	2023-04-29T00:00:00	2024-11-08T02:00:00	4	Temperatura máxima	13.3
103943	7	Sololá	701	Sololá	4	Finca Santa Victoria	4	Abril	2023-04-29T00:00:00	2024-11-08T02:00:00	3	Temperatura mínima	12.4
103944	7	Sololá	701	Sololá	4	Finca Santa Victoria	4	Abril	2023-04-29T00:00:00	2024-11-08T02:00:00	5	Humedad	85
103945	7	Sololá	701	Sololá	4	Finca Santa Victoria	4	Abril	2023-04-29T00:00:00	2024-11-08T02:00:00	6	Velocidad del viento	1.6
103946	7	Sololá	701	Sololá	4	Finca Santa Victoria	4	Abril	2023-04-29T00:00:00	2024-11-08T02:00:00	7	Dirección del viento	1.61
103947	7	Sololá	701	Sololá	4	Finca Santa Victoria	4	Abril	2023-04-29T00:00:00	2024-11-08T02:00:00	1	Precipitación	0
103948	7	Sololá	701	Sololá	4	Finca Santa Victoria	4	Abril	2023-04-29T00:00:00	2024-11-08T02:00:00	8	Radiación solar	0
103949	7	Sololá	701	Sololá	4	Finca Santa Victoria	4	Abril	2023-04-29T00:00:00	2024-11-08T03:00:00	2	Temperatura media	12.7
103950	7	Sololá	701	Sololá	4	Finca Santa Victoria	4	Abril	2023-04-29T00:00:00	2024-11-08T03:00:00	4	Temperatura máxima	13.4
103951	7	Sololá	701	Sololá	4	Finca Santa Victoria	4	Abril	2023-04-29T00:00:00	2024-11-08T03:00:00	3	Temperatura mínima	12.7
103952	7	Sololá	701	Sololá	4	Finca Santa Victoria	4	Abril	2023-04-29T00:00:00	2024-11-08T03:00:00	5	Humedad	88
103953	7	Sololá	701	Sololá	4	Finca Santa Victoria	4	Abril	2023-04-29T00:00:00	2024-11-08T03:00:00	6	Velocidad del viento	1.6
103954	7	Sololá	701	Sololá	4	Finca Santa Victoria	4	Abril	2023-04-29T00:00:00	2024-11-08T03:00:00	7	Dirección del viento	1.61
103955	7	Sololá	701	Sololá	4	Finca Santa Victoria	4	Abril	2023-04-29T00:00:00	2024-11-08T03:00:00	1	Precipitación	0
103956	7	Sololá	701	Sololá	4	Finca Santa Victoria	4	Abril	2023-04-29T00:00:00	2024-11-08T03:00:00	8	Radiación solar	0
103957	7	Sololá	701	Sololá	4	Finca Santa Victoria	4	Abril	2023-04-29T00:00:00	2024-11-08T04:00:00	2	Temperatura media	12.7
103958	7	Sololá	701	Sololá	4	Finca Santa Victoria	4	Abril	2023-04-29T00:00:00	2024-11-08T04:00:00	4	Temperatura máxima	12.8
103959	7	Sololá	701	Sololá	4	Finca Santa Victoria	4	Abril	2023-04-29T00:00:00	2024-11-08T04:00:00	3	Temperatura mínima	12.3
103960	7	Sololá	701	Sololá	4	Finca Santa Victoria	4	Abril	2023-04-29T00:00:00	2024-11-08T04:00:00	5	Humedad	96
103961	7	Sololá	701	Sololá	4	Finca Santa Victoria	4	Abril	2023-04-29T00:00:00	2024-11-08T04:00:00	6	Velocidad del viento	0
103962	7	Sololá	701	Sololá	4	Finca Santa Victoria	4	Abril	2023-04-29T00:00:00	2024-11-08T04:00:00	7	Dirección del viento	0
103963	7	Sololá	701	Sololá	4	Finca Santa Victoria	4	Abril	2023-04-29T00:00:00	2024-11-08T04:00:00	1	Precipitación	0
103964	7	Sololá	701	Sololá	4	Finca Santa Victoria	4	Abril	2023-04-29T00:00:00	2024-11-08T04:00:00	8	Radiación solar	0
103965	7	Sololá	701	Sololá	4	Finca Santa Victoria	4	Abril	2023-04-29T00:00:00	2024-11-08T05:00:00	2	Temperatura media	12.7
103966	7	Sololá	701	Sololá	4	Finca Santa Victoria	4	Abril	2023-04-29T00:00:00	2024-11-08T05:00:00	4	Temperatura máxima	12.7
103967	7	Sololá	701	Sololá	4	Finca Santa Victoria	4	Abril	2023-04-29T00:00:00	2024-11-08T05:00:00	3	Temperatura mínima	12.4
103968	7	Sololá	701	Sololá	4	Finca Santa Victoria	4	Abril	2023-04-29T00:00:00	2024-11-08T05:00:00	5	Humedad	97
103969	7	Sololá	701	Sololá	4	Finca Santa Victoria	4	Abril	2023-04-29T00:00:00	2024-11-08T05:00:00	6	Velocidad del viento	0
103970	7	Sololá	701	Sololá	4	Finca Santa Victoria	4	Abril	2023-04-29T00:00:00	2024-11-08T05:00:00	7	Dirección del viento	0
103971	7	Sololá	701	Sololá	4	Finca Santa Victoria	4	Abril	2023-04-29T00:00:00	2024-11-08T05:00:00	1	Precipitación	0
103972	7	Sololá	701	Sololá	4	Finca Santa Victoria	4	Abril	2023-04-29T00:00:00	2024-11-08T05:00:00	8	Radiación solar	0
103973	7	Sololá	701	Sololá	4	Finca Santa Victoria	4	Abril	2023-04-29T00:00:00	2024-11-08T06:00:00	2	Temperatura media	12.7
103974	7	Sololá	701	Sololá	4	Finca Santa Victoria	4	Abril	2023-04-29T00:00:00	2024-11-08T06:00:00	4	Temperatura máxima	12.9
103975	7	Sololá	701	Sololá	4	Finca Santa Victoria	4	Abril	2023-04-29T00:00:00	2024-11-08T06:00:00	3	Temperatura mínima	12.7
103976	7	Sololá	701	Sololá	4	Finca Santa Victoria	4	Abril	2023-04-29T00:00:00	2024-11-08T06:00:00	5	Humedad	96
103977	7	Sololá	701	Sololá	4	Finca Santa Victoria	4	Abril	2023-04-29T00:00:00	2024-11-08T06:00:00	6	Velocidad del viento	0
103978	7	Sololá	701	Sololá	4	Finca Santa Victoria	4	Abril	2023-04-29T00:00:00	2024-11-08T06:00:00	7	Dirección del viento	0
103979	7	Sololá	701	Sololá	4	Finca Santa Victoria	4	Abril	2023-04-29T00:00:00	2024-11-08T06:00:00	1	Precipitación	0
103980	7	Sololá	701	Sololá	4	Finca Santa Victoria	4	Abril	2023-04-29T00:00:00	2024-11-08T06:00:00	8	Radiación solar	1
103981	7	Sololá	701	Sololá	4	Finca Santa Victoria	4	Abril	2023-04-29T00:00:00	2024-11-08T07:00:00	2	Temperatura media	12.7
103982	7	Sololá	701	Sololá	4	Finca Santa Victoria	4	Abril	2023-04-29T00:00:00	2024-11-08T07:00:00	4	Temperatura máxima	12.7
103983	7	Sololá	701	Sololá	4	Finca Santa Victoria	4	Abril	2023-04-29T00:00:00	2024-11-08T07:00:00	3	Temperatura mínima	12.3
103984	7	Sololá	701	Sololá	4	Finca Santa Victoria	4	Abril	2023-04-29T00:00:00	2024-11-08T07:00:00	5	Humedad	97
103985	7	Sololá	701	Sololá	4	Finca Santa Victoria	4	Abril	2023-04-29T00:00:00	2024-11-08T07:00:00	6	Velocidad del viento	0
103986	7	Sololá	701	Sololá	4	Finca Santa Victoria	4	Abril	2023-04-29T00:00:00	2024-11-08T07:00:00	7	Dirección del viento	0
103987	7	Sololá	701	Sololá	4	Finca Santa Victoria	4	Abril	2023-04-29T00:00:00	2024-11-08T07:00:00	1	Precipitación	0
103988	7	Sololá	701	Sololá	4	Finca Santa Victoria	4	Abril	2023-04-29T00:00:00	2024-11-08T07:00:00	8	Radiación solar	43
103989	7	Sololá	701	Sololá	4	Finca Santa Victoria	4	Abril	2023-04-29T00:00:00	2024-11-08T08:00:00	2	Temperatura media	16.6
103990	7	Sololá	701	Sololá	4	Finca Santa Victoria	4	Abril	2023-04-29T00:00:00	2024-11-08T08:00:00	4	Temperatura máxima	16.6
103991	7	Sololá	701	Sololá	4	Finca Santa Victoria	4	Abril	2023-04-29T00:00:00	2024-11-08T08:00:00	3	Temperatura mínima	12.7
103992	7	Sololá	701	Sololá	4	Finca Santa Victoria	4	Abril	2023-04-29T00:00:00	2024-11-08T08:00:00	5	Humedad	80
103993	7	Sololá	701	Sololá	4	Finca Santa Victoria	4	Abril	2023-04-29T00:00:00	2024-11-08T08:00:00	6	Velocidad del viento	0
103994	7	Sololá	701	Sololá	4	Finca Santa Victoria	4	Abril	2023-04-29T00:00:00	2024-11-08T08:00:00	7	Dirección del viento	0
103995	7	Sololá	701	Sololá	4	Finca Santa Victoria	4	Abril	2023-04-29T00:00:00	2024-11-08T08:00:00	1	Precipitación	0
103996	7	Sololá	701	Sololá	4	Finca Santa Victoria	4	Abril	2023-04-29T00:00:00	2024-11-08T08:00:00	8	Radiación solar	201
103997	7	Sololá	701	Sololá	4	Finca Santa Victoria	4	Abril	2023-04-29T00:00:00	2024-11-08T09:00:00	2	Temperatura media	18.3
103998	7	Sololá	701	Sololá	4	Finca Santa Victoria	4	Abril	2023-04-29T00:00:00	2024-11-08T09:00:00	4	Temperatura máxima	18.3
103999	7	Sololá	701	Sololá	4	Finca Santa Victoria	4	Abril	2023-04-29T00:00:00	2024-11-08T09:00:00	3	Temperatura mínima	16.6
104000	7	Sololá	701	Sololá	4	Finca Santa Victoria	4	Abril	2023-04-29T00:00:00	2024-11-08T09:00:00	5	Humedad	73
104001	7	Sololá	701	Sololá	4	Finca Santa Victoria	4	Abril	2023-04-29T00:00:00	2024-11-08T09:00:00	6	Velocidad del viento	1.6
104002	7	Sololá	701	Sololá	4	Finca Santa Victoria	4	Abril	2023-04-29T00:00:00	2024-11-08T09:00:00	7	Dirección del viento	1.61
104003	7	Sololá	701	Sololá	4	Finca Santa Victoria	4	Abril	2023-04-29T00:00:00	2024-11-08T09:00:00	1	Precipitación	0
104004	7	Sololá	701	Sololá	4	Finca Santa Victoria	4	Abril	2023-04-29T00:00:00	2024-11-08T09:00:00	8	Radiación solar	405
104005	7	Sololá	701	Sololá	4	Finca Santa Victoria	4	Abril	2023-04-29T00:00:00	2024-11-08T10:00:00	2	Temperatura media	17.8
104006	7	Sololá	701	Sololá	4	Finca Santa Victoria	4	Abril	2023-04-29T00:00:00	2024-11-08T10:00:00	4	Temperatura máxima	18.3
104007	7	Sololá	701	Sololá	4	Finca Santa Victoria	4	Abril	2023-04-29T00:00:00	2024-11-08T10:00:00	3	Temperatura mínima	17.8
104008	7	Sololá	701	Sololá	4	Finca Santa Victoria	4	Abril	2023-04-29T00:00:00	2024-11-08T10:00:00	5	Humedad	77
104009	7	Sololá	701	Sololá	4	Finca Santa Victoria	4	Abril	2023-04-29T00:00:00	2024-11-08T10:00:00	6	Velocidad del viento	3.2
104010	7	Sololá	701	Sololá	4	Finca Santa Victoria	4	Abril	2023-04-29T00:00:00	2024-11-08T10:00:00	7	Dirección del viento	3.22
104011	7	Sololá	701	Sololá	4	Finca Santa Victoria	4	Abril	2023-04-29T00:00:00	2024-11-08T10:00:00	1	Precipitación	0
104012	7	Sololá	701	Sololá	4	Finca Santa Victoria	4	Abril	2023-04-29T00:00:00	2024-11-08T10:00:00	8	Radiación solar	277
104013	7	Sololá	701	Sololá	4	Finca Santa Victoria	4	Abril	2023-04-29T00:00:00	2024-11-08T11:00:00	2	Temperatura media	18.6
104014	7	Sololá	701	Sololá	4	Finca Santa Victoria	4	Abril	2023-04-29T00:00:00	2024-11-08T11:00:00	4	Temperatura máxima	18.7
104015	7	Sololá	701	Sololá	4	Finca Santa Victoria	4	Abril	2023-04-29T00:00:00	2024-11-08T11:00:00	3	Temperatura mínima	17.6
104016	7	Sololá	701	Sololá	4	Finca Santa Victoria	4	Abril	2023-04-29T00:00:00	2024-11-08T11:00:00	5	Humedad	77
104017	7	Sololá	701	Sololá	4	Finca Santa Victoria	4	Abril	2023-04-29T00:00:00	2024-11-08T11:00:00	6	Velocidad del viento	4.8
104018	7	Sololá	701	Sololá	4	Finca Santa Victoria	4	Abril	2023-04-29T00:00:00	2024-11-08T11:00:00	7	Dirección del viento	4.83
104019	7	Sololá	701	Sololá	4	Finca Santa Victoria	4	Abril	2023-04-29T00:00:00	2024-11-08T11:00:00	1	Precipitación	0
104020	7	Sololá	701	Sololá	4	Finca Santa Victoria	4	Abril	2023-04-29T00:00:00	2024-11-08T11:00:00	8	Radiación solar	809
104021	7	Sololá	701	Sololá	4	Finca Santa Victoria	4	Abril	2023-04-29T00:00:00	2024-11-08T12:00:00	2	Temperatura media	19.7
104022	7	Sololá	701	Sololá	4	Finca Santa Victoria	4	Abril	2023-04-29T00:00:00	2024-11-08T12:00:00	4	Temperatura máxima	19.8
104023	7	Sololá	701	Sololá	4	Finca Santa Victoria	4	Abril	2023-04-29T00:00:00	2024-11-08T12:00:00	3	Temperatura mínima	18.6
104024	7	Sololá	701	Sololá	4	Finca Santa Victoria	4	Abril	2023-04-29T00:00:00	2024-11-08T12:00:00	5	Humedad	73
104025	7	Sololá	701	Sololá	4	Finca Santa Victoria	4	Abril	2023-04-29T00:00:00	2024-11-08T12:00:00	6	Velocidad del viento	4.8
104026	7	Sololá	701	Sololá	4	Finca Santa Victoria	4	Abril	2023-04-29T00:00:00	2024-11-08T12:00:00	7	Dirección del viento	4.83
104027	7	Sololá	701	Sololá	4	Finca Santa Victoria	4	Abril	2023-04-29T00:00:00	2024-11-08T12:00:00	1	Precipitación	0
104028	7	Sololá	701	Sololá	4	Finca Santa Victoria	4	Abril	2023-04-29T00:00:00	2024-11-08T12:00:00	8	Radiación solar	922
104029	7	Sololá	701	Sololá	4	Finca Santa Victoria	4	Abril	2023-04-29T00:00:00	2024-11-08T13:00:00	2	Temperatura media	19.4
104030	7	Sololá	701	Sololá	4	Finca Santa Victoria	4	Abril	2023-04-29T00:00:00	2024-11-08T13:00:00	4	Temperatura máxima	19.9
104031	7	Sololá	701	Sololá	4	Finca Santa Victoria	4	Abril	2023-04-29T00:00:00	2024-11-08T13:00:00	3	Temperatura mínima	19.3
104032	7	Sololá	701	Sololá	4	Finca Santa Victoria	4	Abril	2023-04-29T00:00:00	2024-11-08T13:00:00	5	Humedad	74
104033	7	Sololá	701	Sololá	4	Finca Santa Victoria	4	Abril	2023-04-29T00:00:00	2024-11-08T13:00:00	6	Velocidad del viento	6.4
104034	7	Sololá	701	Sololá	4	Finca Santa Victoria	4	Abril	2023-04-29T00:00:00	2024-11-08T13:00:00	7	Dirección del viento	6.44
104035	7	Sololá	701	Sololá	4	Finca Santa Victoria	4	Abril	2023-04-29T00:00:00	2024-11-08T13:00:00	1	Precipitación	0
104036	7	Sololá	701	Sololá	4	Finca Santa Victoria	4	Abril	2023-04-29T00:00:00	2024-11-08T13:00:00	8	Radiación solar	918
104037	7	Sololá	701	Sololá	4	Finca Santa Victoria	4	Abril	2023-04-29T00:00:00	2024-11-08T14:00:00	2	Temperatura media	18.6
104038	7	Sololá	701	Sololá	4	Finca Santa Victoria	4	Abril	2023-04-29T00:00:00	2024-11-08T14:00:00	4	Temperatura máxima	19.5
104039	7	Sololá	701	Sololá	4	Finca Santa Victoria	4	Abril	2023-04-29T00:00:00	2024-11-08T14:00:00	3	Temperatura mínima	18.4
104040	7	Sololá	701	Sololá	4	Finca Santa Victoria	4	Abril	2023-04-29T00:00:00	2024-11-08T14:00:00	5	Humedad	81
104041	7	Sololá	701	Sololá	4	Finca Santa Victoria	4	Abril	2023-04-29T00:00:00	2024-11-08T14:00:00	6	Velocidad del viento	6.4
104042	7	Sololá	701	Sololá	4	Finca Santa Victoria	4	Abril	2023-04-29T00:00:00	2024-11-08T14:00:00	7	Dirección del viento	6.44
104043	7	Sololá	701	Sololá	4	Finca Santa Victoria	4	Abril	2023-04-29T00:00:00	2024-11-08T14:00:00	1	Precipitación	0
104044	7	Sololá	701	Sololá	4	Finca Santa Victoria	4	Abril	2023-04-29T00:00:00	2024-11-08T14:00:00	8	Radiación solar	355
104045	7	Sololá	701	Sololá	4	Finca Santa Victoria	4	Abril	2023-04-29T00:00:00	2024-11-08T15:00:00	2	Temperatura media	17.1
104046	7	Sololá	701	Sololá	4	Finca Santa Victoria	4	Abril	2023-04-29T00:00:00	2024-11-08T15:00:00	4	Temperatura máxima	18.6
104047	7	Sololá	701	Sololá	4	Finca Santa Victoria	4	Abril	2023-04-29T00:00:00	2024-11-08T15:00:00	3	Temperatura mínima	17.1
104048	7	Sololá	701	Sololá	4	Finca Santa Victoria	4	Abril	2023-04-29T00:00:00	2024-11-08T15:00:00	5	Humedad	89
104049	7	Sololá	701	Sololá	4	Finca Santa Victoria	4	Abril	2023-04-29T00:00:00	2024-11-08T15:00:00	6	Velocidad del viento	4.8
104050	7	Sololá	701	Sololá	4	Finca Santa Victoria	4	Abril	2023-04-29T00:00:00	2024-11-08T15:00:00	7	Dirección del viento	4.83
104051	7	Sololá	701	Sololá	4	Finca Santa Victoria	4	Abril	2023-04-29T00:00:00	2024-11-08T15:00:00	1	Precipitación	0
104052	7	Sololá	701	Sololá	4	Finca Santa Victoria	4	Abril	2023-04-29T00:00:00	2024-11-08T15:00:00	8	Radiación solar	238
104053	7	Sololá	701	Sololá	4	Finca Santa Victoria	4	Abril	2023-04-29T00:00:00	2024-11-08T16:00:00	2	Temperatura media	15.8
104054	7	Sololá	701	Sololá	4	Finca Santa Victoria	4	Abril	2023-04-29T00:00:00	2024-11-08T16:00:00	4	Temperatura máxima	17.2
104055	7	Sololá	701	Sololá	4	Finca Santa Victoria	4	Abril	2023-04-29T00:00:00	2024-11-08T16:00:00	3	Temperatura mínima	15.8
104056	7	Sololá	701	Sololá	4	Finca Santa Victoria	4	Abril	2023-04-29T00:00:00	2024-11-08T16:00:00	5	Humedad	94
104057	7	Sololá	701	Sololá	4	Finca Santa Victoria	4	Abril	2023-04-29T00:00:00	2024-11-08T16:00:00	6	Velocidad del viento	3.2
104058	7	Sololá	701	Sololá	4	Finca Santa Victoria	4	Abril	2023-04-29T00:00:00	2024-11-08T16:00:00	7	Dirección del viento	3.22
104059	7	Sololá	701	Sololá	4	Finca Santa Victoria	4	Abril	2023-04-29T00:00:00	2024-11-08T16:00:00	1	Precipitación	0
104060	7	Sololá	701	Sololá	4	Finca Santa Victoria	4	Abril	2023-04-29T00:00:00	2024-11-08T16:00:00	8	Radiación solar	96
104061	7	Sololá	701	Sololá	4	Finca Santa Victoria	4	Abril	2023-04-29T00:00:00	2024-11-08T17:00:00	2	Temperatura media	16.2
104062	7	Sololá	701	Sololá	4	Finca Santa Victoria	4	Abril	2023-04-29T00:00:00	2024-11-08T17:00:00	4	Temperatura máxima	16.2
104063	7	Sololá	701	Sololá	4	Finca Santa Victoria	4	Abril	2023-04-29T00:00:00	2024-11-08T17:00:00	3	Temperatura mínima	15.5
104064	7	Sololá	701	Sololá	4	Finca Santa Victoria	4	Abril	2023-04-29T00:00:00	2024-11-08T17:00:00	5	Humedad	92
104065	7	Sololá	701	Sololá	4	Finca Santa Victoria	4	Abril	2023-04-29T00:00:00	2024-11-08T17:00:00	6	Velocidad del viento	1.6
104066	7	Sololá	701	Sololá	4	Finca Santa Victoria	4	Abril	2023-04-29T00:00:00	2024-11-08T17:00:00	7	Dirección del viento	1.61
104067	7	Sololá	701	Sololá	4	Finca Santa Victoria	4	Abril	2023-04-29T00:00:00	2024-11-08T17:00:00	1	Precipitación	0
104068	7	Sololá	701	Sololá	4	Finca Santa Victoria	4	Abril	2023-04-29T00:00:00	2024-11-08T17:00:00	8	Radiación solar	63
104069	7	Sololá	701	Sololá	4	Finca Santa Victoria	4	Abril	2023-04-29T00:00:00	2024-11-08T18:00:00	2	Temperatura media	15.1
104070	7	Sololá	701	Sololá	4	Finca Santa Victoria	4	Abril	2023-04-29T00:00:00	2024-11-08T18:00:00	4	Temperatura máxima	16.1
104071	7	Sololá	701	Sololá	4	Finca Santa Victoria	4	Abril	2023-04-29T00:00:00	2024-11-08T18:00:00	3	Temperatura mínima	15.1
104072	7	Sololá	701	Sololá	4	Finca Santa Victoria	4	Abril	2023-04-29T00:00:00	2024-11-08T18:00:00	5	Humedad	95
104073	7	Sololá	701	Sololá	4	Finca Santa Victoria	4	Abril	2023-04-29T00:00:00	2024-11-08T18:00:00	6	Velocidad del viento	1.6
104074	7	Sololá	701	Sololá	4	Finca Santa Victoria	4	Abril	2023-04-29T00:00:00	2024-11-08T18:00:00	7	Dirección del viento	1.61
104075	7	Sololá	701	Sololá	4	Finca Santa Victoria	4	Abril	2023-04-29T00:00:00	2024-11-08T18:00:00	1	Precipitación	0
104076	7	Sololá	701	Sololá	4	Finca Santa Victoria	4	Abril	2023-04-29T00:00:00	2024-11-08T18:00:00	8	Radiación solar	36
104077	7	Sololá	701	Sololá	4	Finca Santa Victoria	4	Abril	2023-04-29T00:00:00	2024-11-08T19:00:00	2	Temperatura media	14.8
104078	7	Sololá	701	Sololá	4	Finca Santa Victoria	4	Abril	2023-04-29T00:00:00	2024-11-08T19:00:00	4	Temperatura máxima	15.1
104079	7	Sololá	701	Sololá	4	Finca Santa Victoria	4	Abril	2023-04-29T00:00:00	2024-11-08T19:00:00	3	Temperatura mínima	14.7
104080	7	Sololá	701	Sololá	4	Finca Santa Victoria	4	Abril	2023-04-29T00:00:00	2024-11-08T19:00:00	5	Humedad	96
104081	7	Sololá	701	Sololá	4	Finca Santa Victoria	4	Abril	2023-04-29T00:00:00	2024-11-08T19:00:00	6	Velocidad del viento	1.6
104082	7	Sololá	701	Sololá	4	Finca Santa Victoria	4	Abril	2023-04-29T00:00:00	2024-11-08T19:00:00	7	Dirección del viento	1.61
104083	7	Sololá	701	Sololá	4	Finca Santa Victoria	4	Abril	2023-04-29T00:00:00	2024-11-08T19:00:00	1	Precipitación	0
104084	7	Sololá	701	Sololá	4	Finca Santa Victoria	4	Abril	2023-04-29T00:00:00	2024-11-08T19:00:00	8	Radiación solar	0
104085	7	Sololá	701	Sololá	4	Finca Santa Victoria	4	Abril	2023-04-29T00:00:00	2024-11-08T20:00:00	2	Temperatura media	14.2
104086	7	Sololá	701	Sololá	4	Finca Santa Victoria	4	Abril	2023-04-29T00:00:00	2024-11-08T20:00:00	4	Temperatura máxima	14.8
104087	7	Sololá	701	Sololá	4	Finca Santa Victoria	4	Abril	2023-04-29T00:00:00	2024-11-08T20:00:00	3	Temperatura mínima	14.2
104088	7	Sololá	701	Sololá	4	Finca Santa Victoria	4	Abril	2023-04-29T00:00:00	2024-11-08T20:00:00	5	Humedad	97
104089	7	Sololá	701	Sololá	4	Finca Santa Victoria	4	Abril	2023-04-29T00:00:00	2024-11-08T20:00:00	6	Velocidad del viento	0
104090	7	Sololá	701	Sololá	4	Finca Santa Victoria	4	Abril	2023-04-29T00:00:00	2024-11-08T20:00:00	7	Dirección del viento	0
104091	7	Sololá	701	Sololá	4	Finca Santa Victoria	4	Abril	2023-04-29T00:00:00	2024-11-08T20:00:00	1	Precipitación	0
104092	7	Sololá	701	Sololá	4	Finca Santa Victoria	4	Abril	2023-04-29T00:00:00	2024-11-08T20:00:00	8	Radiación solar	0
104093	7	Sololá	701	Sololá	4	Finca Santa Victoria	4	Abril	2023-04-29T00:00:00	2024-11-08T21:00:00	2	Temperatura media	13.7
104094	7	Sololá	701	Sololá	4	Finca Santa Victoria	4	Abril	2023-04-29T00:00:00	2024-11-08T21:00:00	4	Temperatura máxima	14.2
104095	7	Sololá	701	Sololá	4	Finca Santa Victoria	4	Abril	2023-04-29T00:00:00	2024-11-08T21:00:00	3	Temperatura mínima	13.7
104096	7	Sololá	701	Sololá	4	Finca Santa Victoria	4	Abril	2023-04-29T00:00:00	2024-11-08T21:00:00	5	Humedad	96
104097	7	Sololá	701	Sololá	4	Finca Santa Victoria	4	Abril	2023-04-29T00:00:00	2024-11-08T21:00:00	6	Velocidad del viento	0
104098	7	Sololá	701	Sololá	4	Finca Santa Victoria	4	Abril	2023-04-29T00:00:00	2024-11-08T21:00:00	7	Dirección del viento	0
104099	7	Sololá	701	Sololá	4	Finca Santa Victoria	4	Abril	2023-04-29T00:00:00	2024-11-08T21:00:00	1	Precipitación	0
104100	7	Sololá	701	Sololá	4	Finca Santa Victoria	4	Abril	2023-04-29T00:00:00	2024-11-08T21:00:00	8	Radiación solar	0
104101	7	Sololá	701	Sololá	4	Finca Santa Victoria	4	Abril	2023-04-29T00:00:00	2024-11-08T22:00:00	2	Temperatura media	13.8
104102	7	Sololá	701	Sololá	4	Finca Santa Victoria	4	Abril	2023-04-29T00:00:00	2024-11-08T22:00:00	4	Temperatura máxima	13.9
104103	7	Sololá	701	Sololá	4	Finca Santa Victoria	4	Abril	2023-04-29T00:00:00	2024-11-08T22:00:00	3	Temperatura mínima	13.4
104104	7	Sololá	701	Sololá	4	Finca Santa Victoria	4	Abril	2023-04-29T00:00:00	2024-11-08T22:00:00	5	Humedad	87
104105	7	Sololá	701	Sololá	4	Finca Santa Victoria	4	Abril	2023-04-29T00:00:00	2024-11-08T22:00:00	6	Velocidad del viento	0
104106	7	Sololá	701	Sololá	4	Finca Santa Victoria	4	Abril	2023-04-29T00:00:00	2024-11-08T22:00:00	7	Dirección del viento	0
104107	7	Sololá	701	Sololá	4	Finca Santa Victoria	4	Abril	2023-04-29T00:00:00	2024-11-08T22:00:00	1	Precipitación	0
104108	7	Sololá	701	Sololá	4	Finca Santa Victoria	4	Abril	2023-04-29T00:00:00	2024-11-08T22:00:00	8	Radiación solar	0
104109	7	Sololá	701	Sololá	4	Finca Santa Victoria	4	Abril	2023-04-29T00:00:00	2024-11-08T23:00:00	2	Temperatura media	14.8
104110	7	Sololá	701	Sololá	4	Finca Santa Victoria	4	Abril	2023-04-29T00:00:00	2024-11-08T23:00:00	4	Temperatura máxima	14.9
104111	7	Sololá	701	Sololá	4	Finca Santa Victoria	4	Abril	2023-04-29T00:00:00	2024-11-08T23:00:00	3	Temperatura mínima	13.7
104112	7	Sololá	701	Sololá	4	Finca Santa Victoria	4	Abril	2023-04-29T00:00:00	2024-11-08T23:00:00	5	Humedad	84
104113	7	Sololá	701	Sololá	4	Finca Santa Victoria	4	Abril	2023-04-29T00:00:00	2024-11-08T23:00:00	6	Velocidad del viento	1.6
104114	7	Sololá	701	Sololá	4	Finca Santa Victoria	4	Abril	2023-04-29T00:00:00	2024-11-08T23:00:00	7	Dirección del viento	1.61
104115	7	Sololá	701	Sololá	4	Finca Santa Victoria	4	Abril	2023-04-29T00:00:00	2024-11-08T23:00:00	1	Precipitación	0
104116	7	Sololá	701	Sololá	4	Finca Santa Victoria	4	Abril	2023-04-29T00:00:00	2024-11-08T23:00:00	8	Radiación solar	0
104117	7	Sololá	701	Sololá	4	Finca Santa Victoria	4	Abril	2023-04-30T00:00:00	2024-11-08T00:00:00	2	Temperatura media	14.6
104118	7	Sololá	701	Sololá	4	Finca Santa Victoria	4	Abril	2023-04-30T00:00:00	2024-11-08T00:00:00	4	Temperatura máxima	14.8
104119	7	Sololá	701	Sololá	4	Finca Santa Victoria	4	Abril	2023-04-30T00:00:00	2024-11-08T00:00:00	3	Temperatura mínima	14.3
104120	7	Sololá	701	Sololá	4	Finca Santa Victoria	4	Abril	2023-04-30T00:00:00	2024-11-08T00:00:00	5	Humedad	84
104121	7	Sololá	701	Sololá	4	Finca Santa Victoria	4	Abril	2023-04-30T00:00:00	2024-11-08T00:00:00	6	Velocidad del viento	3.2
104122	7	Sololá	701	Sololá	4	Finca Santa Victoria	4	Abril	2023-04-30T00:00:00	2024-11-08T00:00:00	7	Dirección del viento	3.22
104123	7	Sololá	701	Sololá	4	Finca Santa Victoria	4	Abril	2023-04-30T00:00:00	2024-11-08T00:00:00	1	Precipitación	0
104124	7	Sololá	701	Sololá	4	Finca Santa Victoria	4	Abril	2023-04-30T00:00:00	2024-11-08T00:00:00	8	Radiación solar	0
104125	7	Sololá	701	Sololá	4	Finca Santa Victoria	4	Abril	2023-04-30T00:00:00	2024-11-08T01:00:00	2	Temperatura media	13.7
104126	7	Sololá	701	Sololá	4	Finca Santa Victoria	4	Abril	2023-04-30T00:00:00	2024-11-08T01:00:00	4	Temperatura máxima	14.6
104127	7	Sololá	701	Sololá	4	Finca Santa Victoria	4	Abril	2023-04-30T00:00:00	2024-11-08T01:00:00	3	Temperatura mínima	13.7
104128	7	Sololá	701	Sololá	4	Finca Santa Victoria	4	Abril	2023-04-30T00:00:00	2024-11-08T01:00:00	5	Humedad	86
104129	7	Sololá	701	Sololá	4	Finca Santa Victoria	4	Abril	2023-04-30T00:00:00	2024-11-08T01:00:00	6	Velocidad del viento	1.6
104130	7	Sololá	701	Sololá	4	Finca Santa Victoria	4	Abril	2023-04-30T00:00:00	2024-11-08T01:00:00	7	Dirección del viento	1.61
104131	7	Sololá	701	Sololá	4	Finca Santa Victoria	4	Abril	2023-04-30T00:00:00	2024-11-08T01:00:00	1	Precipitación	0
104132	7	Sololá	701	Sololá	4	Finca Santa Victoria	4	Abril	2023-04-30T00:00:00	2024-11-08T01:00:00	8	Radiación solar	0
104133	7	Sololá	701	Sololá	4	Finca Santa Victoria	4	Abril	2023-04-30T00:00:00	2024-11-08T02:00:00	2	Temperatura media	13.3
104134	7	Sololá	701	Sololá	4	Finca Santa Victoria	4	Abril	2023-04-30T00:00:00	2024-11-08T02:00:00	4	Temperatura máxima	13.7
104135	7	Sololá	701	Sololá	4	Finca Santa Victoria	4	Abril	2023-04-30T00:00:00	2024-11-08T02:00:00	3	Temperatura mínima	13.2
104136	7	Sololá	701	Sololá	4	Finca Santa Victoria	4	Abril	2023-04-30T00:00:00	2024-11-08T02:00:00	5	Humedad	87
104137	7	Sololá	701	Sololá	4	Finca Santa Victoria	4	Abril	2023-04-30T00:00:00	2024-11-08T02:00:00	6	Velocidad del viento	1.6
104138	7	Sololá	701	Sololá	4	Finca Santa Victoria	4	Abril	2023-04-30T00:00:00	2024-11-08T02:00:00	7	Dirección del viento	1.61
104139	7	Sololá	701	Sololá	4	Finca Santa Victoria	4	Abril	2023-04-30T00:00:00	2024-11-08T02:00:00	1	Precipitación	0
104140	7	Sololá	701	Sololá	4	Finca Santa Victoria	4	Abril	2023-04-30T00:00:00	2024-11-08T02:00:00	8	Radiación solar	0
104141	7	Sololá	701	Sololá	4	Finca Santa Victoria	4	Abril	2023-04-30T00:00:00	2024-11-08T03:00:00	2	Temperatura media	13.5
104142	7	Sololá	701	Sololá	4	Finca Santa Victoria	4	Abril	2023-04-30T00:00:00	2024-11-08T03:00:00	4	Temperatura máxima	13.8
104143	7	Sololá	701	Sololá	4	Finca Santa Victoria	4	Abril	2023-04-30T00:00:00	2024-11-08T03:00:00	3	Temperatura mínima	13.3
104144	7	Sololá	701	Sololá	4	Finca Santa Victoria	4	Abril	2023-04-30T00:00:00	2024-11-08T03:00:00	5	Humedad	88
104145	7	Sololá	701	Sololá	4	Finca Santa Victoria	4	Abril	2023-04-30T00:00:00	2024-11-08T03:00:00	6	Velocidad del viento	3.2
104146	7	Sololá	701	Sololá	4	Finca Santa Victoria	4	Abril	2023-04-30T00:00:00	2024-11-08T03:00:00	7	Dirección del viento	3.22
104147	7	Sololá	701	Sololá	4	Finca Santa Victoria	4	Abril	2023-04-30T00:00:00	2024-11-08T03:00:00	1	Precipitación	0
104148	7	Sololá	701	Sololá	4	Finca Santa Victoria	4	Abril	2023-04-30T00:00:00	2024-11-08T03:00:00	8	Radiación solar	0
104149	7	Sololá	701	Sololá	4	Finca Santa Victoria	4	Abril	2023-04-30T00:00:00	2024-11-08T04:00:00	2	Temperatura media	13.2
104150	7	Sololá	701	Sololá	4	Finca Santa Victoria	4	Abril	2023-04-30T00:00:00	2024-11-08T04:00:00	4	Temperatura máxima	13.6
104151	7	Sololá	701	Sololá	4	Finca Santa Victoria	4	Abril	2023-04-30T00:00:00	2024-11-08T04:00:00	3	Temperatura mínima	13.2
104152	7	Sololá	701	Sololá	4	Finca Santa Victoria	4	Abril	2023-04-30T00:00:00	2024-11-08T04:00:00	5	Humedad	92
104153	7	Sololá	701	Sololá	4	Finca Santa Victoria	4	Abril	2023-04-30T00:00:00	2024-11-08T04:00:00	6	Velocidad del viento	4.8
104154	7	Sololá	701	Sololá	4	Finca Santa Victoria	4	Abril	2023-04-30T00:00:00	2024-11-08T04:00:00	7	Dirección del viento	4.83
104155	7	Sololá	701	Sololá	4	Finca Santa Victoria	4	Abril	2023-04-30T00:00:00	2024-11-08T04:00:00	1	Precipitación	0
104156	7	Sololá	701	Sololá	4	Finca Santa Victoria	4	Abril	2023-04-30T00:00:00	2024-11-08T04:00:00	8	Radiación solar	0
104157	7	Sololá	701	Sololá	4	Finca Santa Victoria	4	Abril	2023-04-30T00:00:00	2024-11-08T05:00:00	2	Temperatura media	12.9
104158	7	Sololá	701	Sololá	4	Finca Santa Victoria	4	Abril	2023-04-30T00:00:00	2024-11-08T05:00:00	4	Temperatura máxima	13.2
104159	7	Sololá	701	Sololá	4	Finca Santa Victoria	4	Abril	2023-04-30T00:00:00	2024-11-08T05:00:00	3	Temperatura mínima	12.9
104160	7	Sololá	701	Sololá	4	Finca Santa Victoria	4	Abril	2023-04-30T00:00:00	2024-11-08T05:00:00	5	Humedad	93
104161	7	Sololá	701	Sololá	4	Finca Santa Victoria	4	Abril	2023-04-30T00:00:00	2024-11-08T05:00:00	6	Velocidad del viento	6.4
104162	7	Sololá	701	Sololá	4	Finca Santa Victoria	4	Abril	2023-04-30T00:00:00	2024-11-08T05:00:00	7	Dirección del viento	6.44
104163	7	Sololá	701	Sololá	4	Finca Santa Victoria	4	Abril	2023-04-30T00:00:00	2024-11-08T05:00:00	1	Precipitación	0
104164	7	Sololá	701	Sololá	4	Finca Santa Victoria	4	Abril	2023-04-30T00:00:00	2024-11-08T05:00:00	8	Radiación solar	0
104165	7	Sololá	701	Sololá	4	Finca Santa Victoria	4	Abril	2023-04-30T00:00:00	2024-11-08T06:00:00	2	Temperatura media	13.1
104166	7	Sololá	701	Sololá	4	Finca Santa Victoria	4	Abril	2023-04-30T00:00:00	2024-11-08T06:00:00	4	Temperatura máxima	13.1
104167	7	Sololá	701	Sololá	4	Finca Santa Victoria	4	Abril	2023-04-30T00:00:00	2024-11-08T06:00:00	3	Temperatura mínima	12.8
104168	7	Sololá	701	Sololá	4	Finca Santa Victoria	4	Abril	2023-04-30T00:00:00	2024-11-08T06:00:00	5	Humedad	90
104169	7	Sololá	701	Sololá	4	Finca Santa Victoria	4	Abril	2023-04-30T00:00:00	2024-11-08T06:00:00	6	Velocidad del viento	4.8
104170	7	Sololá	701	Sololá	4	Finca Santa Victoria	4	Abril	2023-04-30T00:00:00	2024-11-08T06:00:00	7	Dirección del viento	4.83
104171	7	Sololá	701	Sololá	4	Finca Santa Victoria	4	Abril	2023-04-30T00:00:00	2024-11-08T06:00:00	1	Precipitación	0
104172	7	Sololá	701	Sololá	4	Finca Santa Victoria	4	Abril	2023-04-30T00:00:00	2024-11-08T06:00:00	8	Radiación solar	1
104173	7	Sololá	701	Sololá	4	Finca Santa Victoria	4	Abril	2023-04-30T00:00:00	2024-11-08T07:00:00	2	Temperatura media	13.7
104174	7	Sololá	701	Sololá	4	Finca Santa Victoria	4	Abril	2023-04-30T00:00:00	2024-11-08T07:00:00	4	Temperatura máxima	13.7
104175	7	Sololá	701	Sololá	4	Finca Santa Victoria	4	Abril	2023-04-30T00:00:00	2024-11-08T07:00:00	3	Temperatura mínima	13.1
104176	7	Sololá	701	Sololá	4	Finca Santa Victoria	4	Abril	2023-04-30T00:00:00	2024-11-08T07:00:00	5	Humedad	89
104177	7	Sololá	701	Sololá	4	Finca Santa Victoria	4	Abril	2023-04-30T00:00:00	2024-11-08T07:00:00	6	Velocidad del viento	4.8
104178	7	Sololá	701	Sololá	4	Finca Santa Victoria	4	Abril	2023-04-30T00:00:00	2024-11-08T07:00:00	7	Dirección del viento	4.83
104179	7	Sololá	701	Sololá	4	Finca Santa Victoria	4	Abril	2023-04-30T00:00:00	2024-11-08T07:00:00	1	Precipitación	0
104180	7	Sololá	701	Sololá	4	Finca Santa Victoria	4	Abril	2023-04-30T00:00:00	2024-11-08T07:00:00	8	Radiación solar	36
104181	7	Sololá	701	Sololá	4	Finca Santa Victoria	4	Abril	2023-04-30T00:00:00	2024-11-08T08:00:00	2	Temperatura media	16.2
104182	7	Sololá	701	Sololá	4	Finca Santa Victoria	4	Abril	2023-04-30T00:00:00	2024-11-08T08:00:00	4	Temperatura máxima	16.2
104183	7	Sololá	701	Sololá	4	Finca Santa Victoria	4	Abril	2023-04-30T00:00:00	2024-11-08T08:00:00	3	Temperatura mínima	13.7
104184	7	Sololá	701	Sololá	4	Finca Santa Victoria	4	Abril	2023-04-30T00:00:00	2024-11-08T08:00:00	5	Humedad	78
104185	7	Sololá	701	Sololá	4	Finca Santa Victoria	4	Abril	2023-04-30T00:00:00	2024-11-08T08:00:00	6	Velocidad del viento	4.8
104186	7	Sololá	701	Sololá	4	Finca Santa Victoria	4	Abril	2023-04-30T00:00:00	2024-11-08T08:00:00	7	Dirección del viento	4.83
104187	7	Sololá	701	Sololá	4	Finca Santa Victoria	4	Abril	2023-04-30T00:00:00	2024-11-08T08:00:00	1	Precipitación	0
104188	7	Sololá	701	Sololá	4	Finca Santa Victoria	4	Abril	2023-04-30T00:00:00	2024-11-08T08:00:00	8	Radiación solar	235
104189	7	Sololá	701	Sololá	4	Finca Santa Victoria	4	Abril	2023-04-30T00:00:00	2024-11-08T09:00:00	2	Temperatura media	18.1
104190	7	Sololá	701	Sololá	4	Finca Santa Victoria	4	Abril	2023-04-30T00:00:00	2024-11-08T09:00:00	4	Temperatura máxima	18.1
104191	7	Sololá	701	Sololá	4	Finca Santa Victoria	4	Abril	2023-04-30T00:00:00	2024-11-08T09:00:00	3	Temperatura mínima	16.2
104192	7	Sololá	701	Sololá	4	Finca Santa Victoria	4	Abril	2023-04-30T00:00:00	2024-11-08T09:00:00	5	Humedad	72
104193	7	Sololá	701	Sololá	4	Finca Santa Victoria	4	Abril	2023-04-30T00:00:00	2024-11-08T09:00:00	6	Velocidad del viento	4.8
104194	7	Sololá	701	Sololá	4	Finca Santa Victoria	4	Abril	2023-04-30T00:00:00	2024-11-08T09:00:00	7	Dirección del viento	4.83
104195	7	Sololá	701	Sololá	4	Finca Santa Victoria	4	Abril	2023-04-30T00:00:00	2024-11-08T09:00:00	1	Precipitación	0
104196	7	Sololá	701	Sololá	4	Finca Santa Victoria	4	Abril	2023-04-30T00:00:00	2024-11-08T09:00:00	8	Radiación solar	458
104197	7	Sololá	701	Sololá	4	Finca Santa Victoria	4	Abril	2023-04-30T00:00:00	2024-11-08T10:00:00	2	Temperatura media	20.7
104198	7	Sololá	701	Sololá	4	Finca Santa Victoria	4	Abril	2023-04-30T00:00:00	2024-11-08T10:00:00	4	Temperatura máxima	20.7
104199	7	Sololá	701	Sololá	4	Finca Santa Victoria	4	Abril	2023-04-30T00:00:00	2024-11-08T10:00:00	3	Temperatura mínima	18.1
104200	7	Sololá	701	Sololá	4	Finca Santa Victoria	4	Abril	2023-04-30T00:00:00	2024-11-08T10:00:00	5	Humedad	63
104201	7	Sololá	701	Sololá	4	Finca Santa Victoria	4	Abril	2023-04-30T00:00:00	2024-11-08T10:00:00	6	Velocidad del viento	3.2
104202	7	Sololá	701	Sololá	4	Finca Santa Victoria	4	Abril	2023-04-30T00:00:00	2024-11-08T10:00:00	7	Dirección del viento	3.22
104203	7	Sololá	701	Sololá	4	Finca Santa Victoria	4	Abril	2023-04-30T00:00:00	2024-11-08T10:00:00	1	Precipitación	0
104204	7	Sololá	701	Sololá	4	Finca Santa Victoria	4	Abril	2023-04-30T00:00:00	2024-11-08T10:00:00	8	Radiación solar	246
104205	7	Sololá	701	Sololá	4	Finca Santa Victoria	4	Abril	2023-04-30T00:00:00	2024-11-08T11:00:00	2	Temperatura media	23.3
104206	7	Sololá	701	Sololá	4	Finca Santa Victoria	4	Abril	2023-04-30T00:00:00	2024-11-08T11:00:00	4	Temperatura máxima	23.3
104207	7	Sololá	701	Sololá	4	Finca Santa Victoria	4	Abril	2023-04-30T00:00:00	2024-11-08T11:00:00	3	Temperatura mínima	20.6
104208	7	Sololá	701	Sololá	4	Finca Santa Victoria	4	Abril	2023-04-30T00:00:00	2024-11-08T11:00:00	5	Humedad	59
104209	7	Sololá	701	Sololá	4	Finca Santa Victoria	4	Abril	2023-04-30T00:00:00	2024-11-08T11:00:00	6	Velocidad del viento	3.2
104210	7	Sololá	701	Sololá	4	Finca Santa Victoria	4	Abril	2023-04-30T00:00:00	2024-11-08T11:00:00	7	Dirección del viento	3.22
104211	7	Sololá	701	Sololá	4	Finca Santa Victoria	4	Abril	2023-04-30T00:00:00	2024-11-08T11:00:00	1	Precipitación	0
104212	7	Sololá	701	Sololá	4	Finca Santa Victoria	4	Abril	2023-04-30T00:00:00	2024-11-08T11:00:00	8	Radiación solar	828
104213	7	Sololá	701	Sololá	4	Finca Santa Victoria	4	Abril	2023-04-30T00:00:00	2024-11-08T12:00:00	2	Temperatura media	23.7
104214	7	Sololá	701	Sololá	4	Finca Santa Victoria	4	Abril	2023-04-30T00:00:00	2024-11-08T12:00:00	4	Temperatura máxima	24.2
104215	7	Sololá	701	Sololá	4	Finca Santa Victoria	4	Abril	2023-04-30T00:00:00	2024-11-08T12:00:00	3	Temperatura mínima	22.6
104216	7	Sololá	701	Sololá	4	Finca Santa Victoria	4	Abril	2023-04-30T00:00:00	2024-11-08T12:00:00	5	Humedad	59
104217	7	Sololá	701	Sololá	4	Finca Santa Victoria	4	Abril	2023-04-30T00:00:00	2024-11-08T12:00:00	6	Velocidad del viento	4.8
104218	7	Sololá	701	Sololá	4	Finca Santa Victoria	4	Abril	2023-04-30T00:00:00	2024-11-08T12:00:00	7	Dirección del viento	4.83
104219	7	Sololá	701	Sololá	4	Finca Santa Victoria	4	Abril	2023-04-30T00:00:00	2024-11-08T12:00:00	1	Precipitación	0
104220	7	Sololá	701	Sololá	4	Finca Santa Victoria	4	Abril	2023-04-30T00:00:00	2024-11-08T12:00:00	8	Radiación solar	974
104221	7	Sololá	701	Sololá	4	Finca Santa Victoria	4	Abril	2023-04-30T00:00:00	2024-11-08T13:00:00	2	Temperatura media	21.3
104222	7	Sololá	701	Sololá	4	Finca Santa Victoria	4	Abril	2023-04-30T00:00:00	2024-11-08T13:00:00	4	Temperatura máxima	23.7
104223	7	Sololá	701	Sololá	4	Finca Santa Victoria	4	Abril	2023-04-30T00:00:00	2024-11-08T13:00:00	3	Temperatura mínima	21.2
104224	7	Sololá	701	Sololá	4	Finca Santa Victoria	4	Abril	2023-04-30T00:00:00	2024-11-08T13:00:00	5	Humedad	80
104225	7	Sololá	701	Sololá	4	Finca Santa Victoria	4	Abril	2023-04-30T00:00:00	2024-11-08T13:00:00	6	Velocidad del viento	4.8
104226	7	Sololá	701	Sololá	4	Finca Santa Victoria	4	Abril	2023-04-30T00:00:00	2024-11-08T13:00:00	7	Dirección del viento	4.83
104227	7	Sololá	701	Sololá	4	Finca Santa Victoria	4	Abril	2023-04-30T00:00:00	2024-11-08T13:00:00	1	Precipitación	0
104228	7	Sololá	701	Sololá	4	Finca Santa Victoria	4	Abril	2023-04-30T00:00:00	2024-11-08T13:00:00	8	Radiación solar	926
104229	7	Sololá	701	Sololá	4	Finca Santa Victoria	4	Abril	2023-04-30T00:00:00	2024-11-08T14:00:00	2	Temperatura media	19.9
104230	7	Sololá	701	Sololá	4	Finca Santa Victoria	4	Abril	2023-04-30T00:00:00	2024-11-08T14:00:00	4	Temperatura máxima	21.6
104231	7	Sololá	701	Sololá	4	Finca Santa Victoria	4	Abril	2023-04-30T00:00:00	2024-11-08T14:00:00	3	Temperatura mínima	19.4
104232	7	Sololá	701	Sololá	4	Finca Santa Victoria	4	Abril	2023-04-30T00:00:00	2024-11-08T14:00:00	5	Humedad	84
104233	7	Sololá	701	Sololá	4	Finca Santa Victoria	4	Abril	2023-04-30T00:00:00	2024-11-08T14:00:00	6	Velocidad del viento	4.8
104234	7	Sololá	701	Sololá	4	Finca Santa Victoria	4	Abril	2023-04-30T00:00:00	2024-11-08T14:00:00	7	Dirección del viento	4.83
104235	7	Sololá	701	Sololá	4	Finca Santa Victoria	4	Abril	2023-04-30T00:00:00	2024-11-08T14:00:00	1	Precipitación	0
104236	7	Sololá	701	Sololá	4	Finca Santa Victoria	4	Abril	2023-04-30T00:00:00	2024-11-08T14:00:00	8	Radiación solar	337
104237	7	Sololá	701	Sololá	4	Finca Santa Victoria	4	Abril	2023-04-30T00:00:00	2024-11-08T15:00:00	2	Temperatura media	18.7
104238	7	Sololá	701	Sololá	4	Finca Santa Victoria	4	Abril	2023-04-30T00:00:00	2024-11-08T15:00:00	4	Temperatura máxima	20.3
104239	7	Sololá	701	Sololá	4	Finca Santa Victoria	4	Abril	2023-04-30T00:00:00	2024-11-08T15:00:00	3	Temperatura mínima	18.7
104240	7	Sololá	701	Sololá	4	Finca Santa Victoria	4	Abril	2023-04-30T00:00:00	2024-11-08T15:00:00	5	Humedad	87
104241	7	Sololá	701	Sololá	4	Finca Santa Victoria	4	Abril	2023-04-30T00:00:00	2024-11-08T15:00:00	6	Velocidad del viento	4.8
104242	7	Sololá	701	Sololá	4	Finca Santa Victoria	4	Abril	2023-04-30T00:00:00	2024-11-08T15:00:00	7	Dirección del viento	4.83
104243	7	Sololá	701	Sololá	4	Finca Santa Victoria	4	Abril	2023-04-30T00:00:00	2024-11-08T15:00:00	1	Precipitación	0
104244	7	Sololá	701	Sololá	4	Finca Santa Victoria	4	Abril	2023-04-30T00:00:00	2024-11-08T15:00:00	8	Radiación solar	311
104245	7	Sololá	701	Sololá	4	Finca Santa Victoria	4	Abril	2023-04-30T00:00:00	2024-11-08T16:00:00	2	Temperatura media	17.3
104246	7	Sololá	701	Sololá	4	Finca Santa Victoria	4	Abril	2023-04-30T00:00:00	2024-11-08T16:00:00	4	Temperatura máxima	18.7
104247	7	Sololá	701	Sololá	4	Finca Santa Victoria	4	Abril	2023-04-30T00:00:00	2024-11-08T16:00:00	3	Temperatura mínima	17.2
104248	7	Sololá	701	Sololá	4	Finca Santa Victoria	4	Abril	2023-04-30T00:00:00	2024-11-08T16:00:00	5	Humedad	93
104249	7	Sololá	701	Sololá	4	Finca Santa Victoria	4	Abril	2023-04-30T00:00:00	2024-11-08T16:00:00	6	Velocidad del viento	3.2
104250	7	Sololá	701	Sololá	4	Finca Santa Victoria	4	Abril	2023-04-30T00:00:00	2024-11-08T16:00:00	7	Dirección del viento	3.22
104251	7	Sololá	701	Sololá	4	Finca Santa Victoria	4	Abril	2023-04-30T00:00:00	2024-11-08T16:00:00	1	Precipitación	0
104252	7	Sololá	701	Sololá	4	Finca Santa Victoria	4	Abril	2023-04-30T00:00:00	2024-11-08T16:00:00	8	Radiación solar	102
104253	7	Sololá	701	Sololá	4	Finca Santa Victoria	4	Abril	2023-04-30T00:00:00	2024-11-08T17:00:00	2	Temperatura media	17.5
104254	7	Sololá	701	Sololá	4	Finca Santa Victoria	4	Abril	2023-04-30T00:00:00	2024-11-08T17:00:00	4	Temperatura máxima	17.7
104255	7	Sololá	701	Sololá	4	Finca Santa Victoria	4	Abril	2023-04-30T00:00:00	2024-11-08T17:00:00	3	Temperatura mínima	17.3
104256	7	Sololá	701	Sololá	4	Finca Santa Victoria	4	Abril	2023-04-30T00:00:00	2024-11-08T17:00:00	5	Humedad	91
104257	7	Sololá	701	Sololá	4	Finca Santa Victoria	4	Abril	2023-04-30T00:00:00	2024-11-08T17:00:00	6	Velocidad del viento	1.6
104258	7	Sololá	701	Sololá	4	Finca Santa Victoria	4	Abril	2023-04-30T00:00:00	2024-11-08T17:00:00	7	Dirección del viento	1.61
104259	7	Sololá	701	Sololá	4	Finca Santa Victoria	4	Abril	2023-04-30T00:00:00	2024-11-08T17:00:00	1	Precipitación	0
104260	7	Sololá	701	Sololá	4	Finca Santa Victoria	4	Abril	2023-04-30T00:00:00	2024-11-08T17:00:00	8	Radiación solar	127
104261	7	Sololá	701	Sololá	4	Finca Santa Victoria	4	Abril	2023-04-30T00:00:00	2024-11-08T18:00:00	2	Temperatura media	16.5
104262	7	Sololá	701	Sololá	4	Finca Santa Victoria	4	Abril	2023-04-30T00:00:00	2024-11-08T18:00:00	4	Temperatura máxima	17.4
104263	7	Sololá	701	Sololá	4	Finca Santa Victoria	4	Abril	2023-04-30T00:00:00	2024-11-08T18:00:00	3	Temperatura mínima	16.5
104264	7	Sololá	701	Sololá	4	Finca Santa Victoria	4	Abril	2023-04-30T00:00:00	2024-11-08T18:00:00	5	Humedad	84
104265	7	Sololá	701	Sololá	4	Finca Santa Victoria	4	Abril	2023-04-30T00:00:00	2024-11-08T18:00:00	6	Velocidad del viento	1.6
104266	7	Sololá	701	Sololá	4	Finca Santa Victoria	4	Abril	2023-04-30T00:00:00	2024-11-08T18:00:00	7	Dirección del viento	1.61
104267	7	Sololá	701	Sololá	4	Finca Santa Victoria	4	Abril	2023-04-30T00:00:00	2024-11-08T18:00:00	1	Precipitación	0
104268	7	Sololá	701	Sololá	4	Finca Santa Victoria	4	Abril	2023-04-30T00:00:00	2024-11-08T18:00:00	8	Radiación solar	17
104269	7	Sololá	701	Sololá	4	Finca Santa Victoria	4	Abril	2023-04-30T00:00:00	2024-11-08T19:00:00	2	Temperatura media	15.2
104270	7	Sololá	701	Sololá	4	Finca Santa Victoria	4	Abril	2023-04-30T00:00:00	2024-11-08T19:00:00	4	Temperatura máxima	16.5
104271	7	Sololá	701	Sololá	4	Finca Santa Victoria	4	Abril	2023-04-30T00:00:00	2024-11-08T19:00:00	3	Temperatura mínima	15.2
104272	7	Sololá	701	Sololá	4	Finca Santa Victoria	4	Abril	2023-04-30T00:00:00	2024-11-08T19:00:00	5	Humedad	86
104273	7	Sololá	701	Sololá	4	Finca Santa Victoria	4	Abril	2023-04-30T00:00:00	2024-11-08T19:00:00	6	Velocidad del viento	1.6
104274	7	Sololá	701	Sololá	4	Finca Santa Victoria	4	Abril	2023-04-30T00:00:00	2024-11-08T19:00:00	7	Dirección del viento	1.61
104275	7	Sololá	701	Sololá	4	Finca Santa Victoria	4	Abril	2023-04-30T00:00:00	2024-11-08T19:00:00	1	Precipitación	0
104276	7	Sololá	701	Sololá	4	Finca Santa Victoria	4	Abril	2023-04-30T00:00:00	2024-11-08T19:00:00	8	Radiación solar	0
104277	7	Sololá	701	Sololá	4	Finca Santa Victoria	4	Abril	2023-04-30T00:00:00	2024-11-08T20:00:00	2	Temperatura media	14.8
104278	7	Sololá	701	Sololá	4	Finca Santa Victoria	4	Abril	2023-04-30T00:00:00	2024-11-08T20:00:00	4	Temperatura máxima	15.2
104279	7	Sololá	701	Sololá	4	Finca Santa Victoria	4	Abril	2023-04-30T00:00:00	2024-11-08T20:00:00	3	Temperatura mínima	14.8
104280	7	Sololá	701	Sololá	4	Finca Santa Victoria	4	Abril	2023-04-30T00:00:00	2024-11-08T20:00:00	5	Humedad	86
104281	7	Sololá	701	Sololá	4	Finca Santa Victoria	4	Abril	2023-04-30T00:00:00	2024-11-08T20:00:00	6	Velocidad del viento	1.6
104282	7	Sololá	701	Sololá	4	Finca Santa Victoria	4	Abril	2023-04-30T00:00:00	2024-11-08T20:00:00	7	Dirección del viento	1.61
104283	7	Sololá	701	Sololá	4	Finca Santa Victoria	4	Abril	2023-04-30T00:00:00	2024-11-08T20:00:00	1	Precipitación	0
104284	7	Sololá	701	Sololá	4	Finca Santa Victoria	4	Abril	2023-04-30T00:00:00	2024-11-08T20:00:00	8	Radiación solar	0
104285	7	Sololá	701	Sololá	4	Finca Santa Victoria	4	Abril	2023-04-30T00:00:00	2024-11-08T21:00:00	2	Temperatura media	14.2
104286	7	Sololá	701	Sololá	4	Finca Santa Victoria	4	Abril	2023-04-30T00:00:00	2024-11-08T21:00:00	4	Temperatura máxima	14.9
104287	7	Sololá	701	Sololá	4	Finca Santa Victoria	4	Abril	2023-04-30T00:00:00	2024-11-08T21:00:00	3	Temperatura mínima	14.2
104288	7	Sololá	701	Sololá	4	Finca Santa Victoria	4	Abril	2023-04-30T00:00:00	2024-11-08T21:00:00	5	Humedad	87
104289	7	Sololá	701	Sololá	4	Finca Santa Victoria	4	Abril	2023-04-30T00:00:00	2024-11-08T21:00:00	6	Velocidad del viento	1.6
104290	7	Sololá	701	Sololá	4	Finca Santa Victoria	4	Abril	2023-04-30T00:00:00	2024-11-08T21:00:00	7	Dirección del viento	1.61
104291	7	Sololá	701	Sololá	4	Finca Santa Victoria	4	Abril	2023-04-30T00:00:00	2024-11-08T21:00:00	1	Precipitación	0
104292	7	Sololá	701	Sololá	4	Finca Santa Victoria	4	Abril	2023-04-30T00:00:00	2024-11-08T21:00:00	8	Radiación solar	0
104293	7	Sololá	701	Sololá	4	Finca Santa Victoria	4	Abril	2023-04-30T00:00:00	2024-11-08T22:00:00	2	Temperatura media	13.8
104294	7	Sololá	701	Sololá	4	Finca Santa Victoria	4	Abril	2023-04-30T00:00:00	2024-11-08T22:00:00	4	Temperatura máxima	14.4
104295	7	Sololá	701	Sololá	4	Finca Santa Victoria	4	Abril	2023-04-30T00:00:00	2024-11-08T22:00:00	3	Temperatura mínima	13.8
104296	7	Sololá	701	Sololá	4	Finca Santa Victoria	4	Abril	2023-04-30T00:00:00	2024-11-08T22:00:00	5	Humedad	87
104297	7	Sololá	701	Sololá	4	Finca Santa Victoria	4	Abril	2023-04-30T00:00:00	2024-11-08T22:00:00	6	Velocidad del viento	1.6
104298	7	Sololá	701	Sololá	4	Finca Santa Victoria	4	Abril	2023-04-30T00:00:00	2024-11-08T22:00:00	7	Dirección del viento	1.61
104299	7	Sololá	701	Sololá	4	Finca Santa Victoria	4	Abril	2023-04-30T00:00:00	2024-11-08T22:00:00	1	Precipitación	0
104300	7	Sololá	701	Sololá	4	Finca Santa Victoria	4	Abril	2023-04-30T00:00:00	2024-11-08T22:00:00	8	Radiación solar	0
104301	7	Sololá	701	Sololá	4	Finca Santa Victoria	4	Abril	2023-04-30T00:00:00	2024-11-08T23:00:00	2	Temperatura media	14.1
104302	7	Sololá	701	Sololá	4	Finca Santa Victoria	4	Abril	2023-04-30T00:00:00	2024-11-08T23:00:00	4	Temperatura máxima	14.3
104303	7	Sololá	701	Sololá	4	Finca Santa Victoria	4	Abril	2023-04-30T00:00:00	2024-11-08T23:00:00	3	Temperatura mínima	13.8
104304	7	Sololá	701	Sololá	4	Finca Santa Victoria	4	Abril	2023-04-30T00:00:00	2024-11-08T23:00:00	5	Humedad	84
104305	7	Sololá	701	Sololá	4	Finca Santa Victoria	4	Abril	2023-04-30T00:00:00	2024-11-08T23:00:00	6	Velocidad del viento	1.6
104306	7	Sololá	701	Sololá	4	Finca Santa Victoria	4	Abril	2023-04-30T00:00:00	2024-11-08T23:00:00	7	Dirección del viento	1.61
104307	7	Sololá	701	Sololá	4	Finca Santa Victoria	4	Abril	2023-04-30T00:00:00	2024-11-08T23:00:00	1	Precipitación	0
104308	7	Sololá	701	Sololá	4	Finca Santa Victoria	4	Abril	2023-04-30T00:00:00	2024-11-08T23:00:00	8	Radiación solar	0
104309	7	Sololá	701	Sololá	4	Finca Santa Victoria	5	Mayo	2023-01-05T00:00:00	2024-11-08T00:00:00	2	Temperatura media	12.9
104310	7	Sololá	701	Sololá	4	Finca Santa Victoria	5	Mayo	2023-01-05T00:00:00	2024-11-08T00:00:00	4	Temperatura máxima	14.2
104311	7	Sololá	701	Sololá	4	Finca Santa Victoria	5	Mayo	2023-01-05T00:00:00	2024-11-08T00:00:00	3	Temperatura mínima	12.9
104312	7	Sololá	701	Sololá	4	Finca Santa Victoria	5	Mayo	2023-01-05T00:00:00	2024-11-08T00:00:00	5	Humedad	89
104313	7	Sololá	701	Sololá	4	Finca Santa Victoria	5	Mayo	2023-01-05T00:00:00	2024-11-08T00:00:00	6	Velocidad del viento	1.6
104314	7	Sololá	701	Sololá	4	Finca Santa Victoria	5	Mayo	2023-01-05T00:00:00	2024-11-08T00:00:00	7	Dirección del viento	1.61
104315	7	Sololá	701	Sololá	4	Finca Santa Victoria	5	Mayo	2023-01-05T00:00:00	2024-11-08T00:00:00	1	Precipitación	0
104316	7	Sololá	701	Sololá	4	Finca Santa Victoria	5	Mayo	2023-01-05T00:00:00	2024-11-08T00:00:00	8	Radiación solar	0
104317	7	Sololá	701	Sololá	4	Finca Santa Victoria	5	Mayo	2023-01-05T00:00:00	2024-11-08T01:00:00	2	Temperatura media	11.9
104318	7	Sololá	701	Sololá	4	Finca Santa Victoria	5	Mayo	2023-01-05T00:00:00	2024-11-08T01:00:00	4	Temperatura máxima	12.9
104319	7	Sololá	701	Sololá	4	Finca Santa Victoria	5	Mayo	2023-01-05T00:00:00	2024-11-08T01:00:00	3	Temperatura mínima	11.9
104320	7	Sololá	701	Sololá	4	Finca Santa Victoria	5	Mayo	2023-01-05T00:00:00	2024-11-08T01:00:00	5	Humedad	95
104321	7	Sololá	701	Sololá	4	Finca Santa Victoria	5	Mayo	2023-01-05T00:00:00	2024-11-08T01:00:00	6	Velocidad del viento	3.2
104322	7	Sololá	701	Sololá	4	Finca Santa Victoria	5	Mayo	2023-01-05T00:00:00	2024-11-08T01:00:00	7	Dirección del viento	3.22
104323	7	Sololá	701	Sololá	4	Finca Santa Victoria	5	Mayo	2023-01-05T00:00:00	2024-11-08T01:00:00	1	Precipitación	0
104324	7	Sololá	701	Sololá	4	Finca Santa Victoria	5	Mayo	2023-01-05T00:00:00	2024-11-08T01:00:00	8	Radiación solar	0
104325	7	Sololá	701	Sololá	4	Finca Santa Victoria	5	Mayo	2023-01-05T00:00:00	2024-11-08T02:00:00	2	Temperatura media	11.7
104326	7	Sololá	701	Sololá	4	Finca Santa Victoria	5	Mayo	2023-01-05T00:00:00	2024-11-08T02:00:00	4	Temperatura máxima	11.9
104327	7	Sololá	701	Sololá	4	Finca Santa Victoria	5	Mayo	2023-01-05T00:00:00	2024-11-08T02:00:00	3	Temperatura mínima	11.7
104328	7	Sololá	701	Sololá	4	Finca Santa Victoria	5	Mayo	2023-01-05T00:00:00	2024-11-08T02:00:00	5	Humedad	96
104329	7	Sololá	701	Sololá	4	Finca Santa Victoria	5	Mayo	2023-01-05T00:00:00	2024-11-08T02:00:00	6	Velocidad del viento	1.6
104330	7	Sololá	701	Sololá	4	Finca Santa Victoria	5	Mayo	2023-01-05T00:00:00	2024-11-08T02:00:00	7	Dirección del viento	1.61
104331	7	Sololá	701	Sololá	4	Finca Santa Victoria	5	Mayo	2023-01-05T00:00:00	2024-11-08T02:00:00	1	Precipitación	0
104332	7	Sololá	701	Sololá	4	Finca Santa Victoria	5	Mayo	2023-01-05T00:00:00	2024-11-08T02:00:00	8	Radiación solar	0
104333	7	Sololá	701	Sololá	4	Finca Santa Victoria	5	Mayo	2023-01-05T00:00:00	2024-11-08T03:00:00	2	Temperatura media	11.2
104334	7	Sololá	701	Sololá	4	Finca Santa Victoria	5	Mayo	2023-01-05T00:00:00	2024-11-08T03:00:00	4	Temperatura máxima	11.7
104335	7	Sololá	701	Sololá	4	Finca Santa Victoria	5	Mayo	2023-01-05T00:00:00	2024-11-08T03:00:00	3	Temperatura mínima	11.2
104336	7	Sololá	701	Sololá	4	Finca Santa Victoria	5	Mayo	2023-01-05T00:00:00	2024-11-08T03:00:00	5	Humedad	96
104337	7	Sololá	701	Sololá	4	Finca Santa Victoria	5	Mayo	2023-01-05T00:00:00	2024-11-08T03:00:00	6	Velocidad del viento	1.6
104338	7	Sololá	701	Sololá	4	Finca Santa Victoria	5	Mayo	2023-01-05T00:00:00	2024-11-08T03:00:00	7	Dirección del viento	1.61
104339	7	Sololá	701	Sololá	4	Finca Santa Victoria	5	Mayo	2023-01-05T00:00:00	2024-11-08T03:00:00	1	Precipitación	0
104340	7	Sololá	701	Sololá	4	Finca Santa Victoria	5	Mayo	2023-01-05T00:00:00	2024-11-08T03:00:00	8	Radiación solar	0
104341	7	Sololá	701	Sololá	4	Finca Santa Victoria	5	Mayo	2023-01-05T00:00:00	2024-11-08T04:00:00	2	Temperatura media	11.2
104342	7	Sololá	701	Sololá	4	Finca Santa Victoria	5	Mayo	2023-01-05T00:00:00	2024-11-08T04:00:00	4	Temperatura máxima	11.3
104343	7	Sololá	701	Sololá	4	Finca Santa Victoria	5	Mayo	2023-01-05T00:00:00	2024-11-08T04:00:00	3	Temperatura mínima	10.7
104344	7	Sololá	701	Sololá	4	Finca Santa Victoria	5	Mayo	2023-01-05T00:00:00	2024-11-08T04:00:00	5	Humedad	96
104345	7	Sololá	701	Sololá	4	Finca Santa Victoria	5	Mayo	2023-01-05T00:00:00	2024-11-08T04:00:00	6	Velocidad del viento	1.6
104346	7	Sololá	701	Sololá	4	Finca Santa Victoria	5	Mayo	2023-01-05T00:00:00	2024-11-08T04:00:00	7	Dirección del viento	1.61
104347	7	Sololá	701	Sololá	4	Finca Santa Victoria	5	Mayo	2023-01-05T00:00:00	2024-11-08T04:00:00	1	Precipitación	0
104348	7	Sololá	701	Sololá	4	Finca Santa Victoria	5	Mayo	2023-01-05T00:00:00	2024-11-08T04:00:00	8	Radiación solar	0
104349	7	Sololá	701	Sololá	4	Finca Santa Victoria	5	Mayo	2023-01-05T00:00:00	2024-11-08T05:00:00	2	Temperatura media	12.3
104350	7	Sololá	701	Sololá	4	Finca Santa Victoria	5	Mayo	2023-01-05T00:00:00	2024-11-08T05:00:00	4	Temperatura máxima	12.3
104351	7	Sololá	701	Sololá	4	Finca Santa Victoria	5	Mayo	2023-01-05T00:00:00	2024-11-08T05:00:00	3	Temperatura mínima	11
104352	7	Sololá	701	Sololá	4	Finca Santa Victoria	5	Mayo	2023-01-05T00:00:00	2024-11-08T05:00:00	5	Humedad	86
104353	7	Sololá	701	Sololá	4	Finca Santa Victoria	5	Mayo	2023-01-05T00:00:00	2024-11-08T05:00:00	6	Velocidad del viento	3.2
104354	7	Sololá	701	Sololá	4	Finca Santa Victoria	5	Mayo	2023-01-05T00:00:00	2024-11-08T05:00:00	7	Dirección del viento	3.22
104355	7	Sololá	701	Sololá	4	Finca Santa Victoria	5	Mayo	2023-01-05T00:00:00	2024-11-08T05:00:00	1	Precipitación	0
104356	7	Sololá	701	Sololá	4	Finca Santa Victoria	5	Mayo	2023-01-05T00:00:00	2024-11-08T05:00:00	8	Radiación solar	0
104357	7	Sololá	701	Sololá	4	Finca Santa Victoria	5	Mayo	2023-01-05T00:00:00	2024-11-08T06:00:00	2	Temperatura media	13.3
104358	7	Sololá	701	Sololá	4	Finca Santa Victoria	5	Mayo	2023-01-05T00:00:00	2024-11-08T06:00:00	4	Temperatura máxima	13.3
104359	7	Sololá	701	Sololá	4	Finca Santa Victoria	5	Mayo	2023-01-05T00:00:00	2024-11-08T06:00:00	3	Temperatura mínima	12.3
104360	7	Sololá	701	Sololá	4	Finca Santa Victoria	5	Mayo	2023-01-05T00:00:00	2024-11-08T06:00:00	5	Humedad	81
104361	7	Sololá	701	Sololá	4	Finca Santa Victoria	5	Mayo	2023-01-05T00:00:00	2024-11-08T06:00:00	6	Velocidad del viento	1.6
104362	7	Sololá	701	Sololá	4	Finca Santa Victoria	5	Mayo	2023-01-05T00:00:00	2024-11-08T06:00:00	7	Dirección del viento	1.61
104363	7	Sololá	701	Sololá	4	Finca Santa Victoria	5	Mayo	2023-01-05T00:00:00	2024-11-08T06:00:00	1	Precipitación	0
104364	7	Sololá	701	Sololá	4	Finca Santa Victoria	5	Mayo	2023-01-05T00:00:00	2024-11-08T06:00:00	8	Radiación solar	1
104365	7	Sololá	701	Sololá	4	Finca Santa Victoria	5	Mayo	2023-01-05T00:00:00	2024-11-08T07:00:00	2	Temperatura media	14.1
104366	7	Sololá	701	Sololá	4	Finca Santa Victoria	5	Mayo	2023-01-05T00:00:00	2024-11-08T07:00:00	4	Temperatura máxima	14.1
104367	7	Sololá	701	Sololá	4	Finca Santa Victoria	5	Mayo	2023-01-05T00:00:00	2024-11-08T07:00:00	3	Temperatura mínima	13.3
104368	7	Sololá	701	Sololá	4	Finca Santa Victoria	5	Mayo	2023-01-05T00:00:00	2024-11-08T07:00:00	5	Humedad	83
104369	7	Sololá	701	Sololá	4	Finca Santa Victoria	5	Mayo	2023-01-05T00:00:00	2024-11-08T07:00:00	6	Velocidad del viento	1.6
104370	7	Sololá	701	Sololá	4	Finca Santa Victoria	5	Mayo	2023-01-05T00:00:00	2024-11-08T07:00:00	7	Dirección del viento	1.61
104371	7	Sololá	701	Sololá	4	Finca Santa Victoria	5	Mayo	2023-01-05T00:00:00	2024-11-08T07:00:00	1	Precipitación	0
104372	7	Sololá	701	Sololá	4	Finca Santa Victoria	5	Mayo	2023-01-05T00:00:00	2024-11-08T07:00:00	8	Radiación solar	32
104373	7	Sololá	701	Sololá	4	Finca Santa Victoria	5	Mayo	2023-01-05T00:00:00	2024-11-08T08:00:00	2	Temperatura media	17.7
104374	7	Sololá	701	Sololá	4	Finca Santa Victoria	5	Mayo	2023-01-05T00:00:00	2024-11-08T08:00:00	4	Temperatura máxima	17.7
104375	7	Sololá	701	Sololá	4	Finca Santa Victoria	5	Mayo	2023-01-05T00:00:00	2024-11-08T08:00:00	3	Temperatura mínima	14.1
104376	7	Sololá	701	Sololá	4	Finca Santa Victoria	5	Mayo	2023-01-05T00:00:00	2024-11-08T08:00:00	5	Humedad	74
104377	7	Sololá	701	Sololá	4	Finca Santa Victoria	5	Mayo	2023-01-05T00:00:00	2024-11-08T08:00:00	6	Velocidad del viento	0
104378	7	Sololá	701	Sololá	4	Finca Santa Victoria	5	Mayo	2023-01-05T00:00:00	2024-11-08T08:00:00	7	Dirección del viento	0
104379	7	Sololá	701	Sololá	4	Finca Santa Victoria	5	Mayo	2023-01-05T00:00:00	2024-11-08T08:00:00	1	Precipitación	0
104380	7	Sololá	701	Sololá	4	Finca Santa Victoria	5	Mayo	2023-01-05T00:00:00	2024-11-08T08:00:00	8	Radiación solar	236
104381	7	Sololá	701	Sololá	4	Finca Santa Victoria	5	Mayo	2023-01-05T00:00:00	2024-11-08T09:00:00	2	Temperatura media	17.8
104382	7	Sololá	701	Sololá	4	Finca Santa Victoria	5	Mayo	2023-01-05T00:00:00	2024-11-08T09:00:00	4	Temperatura máxima	18.6
104383	7	Sololá	701	Sololá	4	Finca Santa Victoria	5	Mayo	2023-01-05T00:00:00	2024-11-08T09:00:00	3	Temperatura mínima	17.7
104384	7	Sololá	701	Sololá	4	Finca Santa Victoria	5	Mayo	2023-01-05T00:00:00	2024-11-08T09:00:00	5	Humedad	73
104385	7	Sololá	701	Sololá	4	Finca Santa Victoria	5	Mayo	2023-01-05T00:00:00	2024-11-08T09:00:00	6	Velocidad del viento	1.6
104386	7	Sololá	701	Sololá	4	Finca Santa Victoria	5	Mayo	2023-01-05T00:00:00	2024-11-08T09:00:00	7	Dirección del viento	1.61
104387	7	Sololá	701	Sololá	4	Finca Santa Victoria	5	Mayo	2023-01-05T00:00:00	2024-11-08T09:00:00	1	Precipitación	0
104388	7	Sololá	701	Sololá	4	Finca Santa Victoria	5	Mayo	2023-01-05T00:00:00	2024-11-08T09:00:00	8	Radiación solar	374
104389	7	Sololá	701	Sololá	4	Finca Santa Victoria	5	Mayo	2023-01-05T00:00:00	2024-11-08T10:00:00	2	Temperatura media	18.9
104390	7	Sololá	701	Sololá	4	Finca Santa Victoria	5	Mayo	2023-01-05T00:00:00	2024-11-08T10:00:00	4	Temperatura máxima	18.9
104391	7	Sololá	701	Sololá	4	Finca Santa Victoria	5	Mayo	2023-01-05T00:00:00	2024-11-08T10:00:00	3	Temperatura mínima	17.7
104392	7	Sololá	701	Sololá	4	Finca Santa Victoria	5	Mayo	2023-01-05T00:00:00	2024-11-08T10:00:00	5	Humedad	69
104393	7	Sololá	701	Sololá	4	Finca Santa Victoria	5	Mayo	2023-01-05T00:00:00	2024-11-08T10:00:00	6	Velocidad del viento	3.2
104394	7	Sololá	701	Sololá	4	Finca Santa Victoria	5	Mayo	2023-01-05T00:00:00	2024-11-08T10:00:00	7	Dirección del viento	3.22
104395	7	Sololá	701	Sololá	4	Finca Santa Victoria	5	Mayo	2023-01-05T00:00:00	2024-11-08T10:00:00	1	Precipitación	0
104396	7	Sololá	701	Sololá	4	Finca Santa Victoria	5	Mayo	2023-01-05T00:00:00	2024-11-08T10:00:00	8	Radiación solar	229
104397	7	Sololá	701	Sololá	4	Finca Santa Victoria	5	Mayo	2023-01-05T00:00:00	2024-11-08T11:00:00	2	Temperatura media	20.3
104398	7	Sololá	701	Sololá	4	Finca Santa Victoria	5	Mayo	2023-01-05T00:00:00	2024-11-08T11:00:00	4	Temperatura máxima	20.6
104399	7	Sololá	701	Sololá	4	Finca Santa Victoria	5	Mayo	2023-01-05T00:00:00	2024-11-08T11:00:00	3	Temperatura mínima	18.9
104400	7	Sololá	701	Sololá	4	Finca Santa Victoria	5	Mayo	2023-01-05T00:00:00	2024-11-08T11:00:00	5	Humedad	66
104401	7	Sololá	701	Sololá	4	Finca Santa Victoria	5	Mayo	2023-01-05T00:00:00	2024-11-08T11:00:00	6	Velocidad del viento	4.8
104402	7	Sololá	701	Sololá	4	Finca Santa Victoria	5	Mayo	2023-01-05T00:00:00	2024-11-08T11:00:00	7	Dirección del viento	4.83
104403	7	Sololá	701	Sololá	4	Finca Santa Victoria	5	Mayo	2023-01-05T00:00:00	2024-11-08T11:00:00	1	Precipitación	0
104404	7	Sololá	701	Sololá	4	Finca Santa Victoria	5	Mayo	2023-01-05T00:00:00	2024-11-08T11:00:00	8	Radiación solar	783
104405	7	Sololá	701	Sololá	4	Finca Santa Victoria	5	Mayo	2023-01-05T00:00:00	2024-11-08T12:00:00	2	Temperatura media	20.5
104406	7	Sololá	701	Sololá	4	Finca Santa Victoria	5	Mayo	2023-01-05T00:00:00	2024-11-08T12:00:00	4	Temperatura máxima	21.2
104407	7	Sololá	701	Sololá	4	Finca Santa Victoria	5	Mayo	2023-01-05T00:00:00	2024-11-08T12:00:00	3	Temperatura mínima	20.3
104408	7	Sololá	701	Sololá	4	Finca Santa Victoria	5	Mayo	2023-01-05T00:00:00	2024-11-08T12:00:00	5	Humedad	68
104409	7	Sololá	701	Sololá	4	Finca Santa Victoria	5	Mayo	2023-01-05T00:00:00	2024-11-08T12:00:00	6	Velocidad del viento	4.8
104410	7	Sololá	701	Sololá	4	Finca Santa Victoria	5	Mayo	2023-01-05T00:00:00	2024-11-08T12:00:00	7	Dirección del viento	4.83
104411	7	Sololá	701	Sololá	4	Finca Santa Victoria	5	Mayo	2023-01-05T00:00:00	2024-11-08T12:00:00	1	Precipitación	0
104412	7	Sololá	701	Sololá	4	Finca Santa Victoria	5	Mayo	2023-01-05T00:00:00	2024-11-08T12:00:00	8	Radiación solar	959
104413	7	Sololá	701	Sololá	4	Finca Santa Victoria	5	Mayo	2023-01-05T00:00:00	2024-11-08T13:00:00	2	Temperatura media	20.6
104414	7	Sololá	701	Sololá	4	Finca Santa Victoria	5	Mayo	2023-01-05T00:00:00	2024-11-08T13:00:00	4	Temperatura máxima	21.1
104415	7	Sololá	701	Sololá	4	Finca Santa Victoria	5	Mayo	2023-01-05T00:00:00	2024-11-08T13:00:00	3	Temperatura mínima	20.1
104416	7	Sololá	701	Sololá	4	Finca Santa Victoria	5	Mayo	2023-01-05T00:00:00	2024-11-08T13:00:00	5	Humedad	76
104417	7	Sololá	701	Sololá	4	Finca Santa Victoria	5	Mayo	2023-01-05T00:00:00	2024-11-08T13:00:00	6	Velocidad del viento	4.8
104418	7	Sololá	701	Sololá	4	Finca Santa Victoria	5	Mayo	2023-01-05T00:00:00	2024-11-08T13:00:00	7	Dirección del viento	4.83
104419	7	Sololá	701	Sololá	4	Finca Santa Victoria	5	Mayo	2023-01-05T00:00:00	2024-11-08T13:00:00	1	Precipitación	0
104420	7	Sololá	701	Sololá	4	Finca Santa Victoria	5	Mayo	2023-01-05T00:00:00	2024-11-08T13:00:00	8	Radiación solar	906
104421	7	Sololá	701	Sololá	4	Finca Santa Victoria	5	Mayo	2023-01-05T00:00:00	2024-11-08T14:00:00	2	Temperatura media	20.1
104422	7	Sololá	701	Sololá	4	Finca Santa Victoria	5	Mayo	2023-01-05T00:00:00	2024-11-08T14:00:00	4	Temperatura máxima	20.6
104423	7	Sololá	701	Sololá	4	Finca Santa Victoria	5	Mayo	2023-01-05T00:00:00	2024-11-08T14:00:00	3	Temperatura mínima	20.1
104424	7	Sololá	701	Sololá	4	Finca Santa Victoria	5	Mayo	2023-01-05T00:00:00	2024-11-08T14:00:00	5	Humedad	78
104425	7	Sololá	701	Sololá	4	Finca Santa Victoria	5	Mayo	2023-01-05T00:00:00	2024-11-08T14:00:00	6	Velocidad del viento	4.8
104426	7	Sololá	701	Sololá	4	Finca Santa Victoria	5	Mayo	2023-01-05T00:00:00	2024-11-08T14:00:00	7	Dirección del viento	4.83
104427	7	Sololá	701	Sololá	4	Finca Santa Victoria	5	Mayo	2023-01-05T00:00:00	2024-11-08T14:00:00	1	Precipitación	0
104428	7	Sololá	701	Sololá	4	Finca Santa Victoria	5	Mayo	2023-01-05T00:00:00	2024-11-08T14:00:00	8	Radiación solar	337
104429	7	Sololá	701	Sololá	4	Finca Santa Victoria	5	Mayo	2023-01-05T00:00:00	2024-11-08T15:00:00	2	Temperatura media	18.4
104430	7	Sololá	701	Sololá	4	Finca Santa Victoria	5	Mayo	2023-01-05T00:00:00	2024-11-08T15:00:00	4	Temperatura máxima	20.1
104431	7	Sololá	701	Sololá	4	Finca Santa Victoria	5	Mayo	2023-01-05T00:00:00	2024-11-08T15:00:00	3	Temperatura mínima	18.4
104432	7	Sololá	701	Sololá	4	Finca Santa Victoria	5	Mayo	2023-01-05T00:00:00	2024-11-08T15:00:00	5	Humedad	85
104433	7	Sololá	701	Sololá	4	Finca Santa Victoria	5	Mayo	2023-01-05T00:00:00	2024-11-08T15:00:00	6	Velocidad del viento	4.8
104434	7	Sololá	701	Sololá	4	Finca Santa Victoria	5	Mayo	2023-01-05T00:00:00	2024-11-08T15:00:00	7	Dirección del viento	4.83
104435	7	Sololá	701	Sololá	4	Finca Santa Victoria	5	Mayo	2023-01-05T00:00:00	2024-11-08T15:00:00	1	Precipitación	0
104436	7	Sololá	701	Sololá	4	Finca Santa Victoria	5	Mayo	2023-01-05T00:00:00	2024-11-08T15:00:00	8	Radiación solar	298
104437	7	Sololá	701	Sololá	4	Finca Santa Victoria	5	Mayo	2023-01-05T00:00:00	2024-11-08T16:00:00	2	Temperatura media	16.8
104438	7	Sololá	701	Sololá	4	Finca Santa Victoria	5	Mayo	2023-01-05T00:00:00	2024-11-08T16:00:00	4	Temperatura máxima	18.4
104439	7	Sololá	701	Sololá	4	Finca Santa Victoria	5	Mayo	2023-01-05T00:00:00	2024-11-08T16:00:00	3	Temperatura mínima	16.7
104440	7	Sololá	701	Sololá	4	Finca Santa Victoria	5	Mayo	2023-01-05T00:00:00	2024-11-08T16:00:00	5	Humedad	94
104441	7	Sololá	701	Sololá	4	Finca Santa Victoria	5	Mayo	2023-01-05T00:00:00	2024-11-08T16:00:00	6	Velocidad del viento	3.2
104442	7	Sololá	701	Sololá	4	Finca Santa Victoria	5	Mayo	2023-01-05T00:00:00	2024-11-08T16:00:00	7	Dirección del viento	3.22
104443	7	Sololá	701	Sololá	4	Finca Santa Victoria	5	Mayo	2023-01-05T00:00:00	2024-11-08T16:00:00	1	Precipitación	0
104444	7	Sololá	701	Sololá	4	Finca Santa Victoria	5	Mayo	2023-01-05T00:00:00	2024-11-08T16:00:00	8	Radiación solar	105
104445	7	Sololá	701	Sololá	4	Finca Santa Victoria	5	Mayo	2023-01-05T00:00:00	2024-11-08T17:00:00	2	Temperatura media	16.3
104446	7	Sololá	701	Sololá	4	Finca Santa Victoria	5	Mayo	2023-01-05T00:00:00	2024-11-08T17:00:00	4	Temperatura máxima	16.9
104447	7	Sololá	701	Sololá	4	Finca Santa Victoria	5	Mayo	2023-01-05T00:00:00	2024-11-08T17:00:00	3	Temperatura mínima	16.3
104448	7	Sololá	701	Sololá	4	Finca Santa Victoria	5	Mayo	2023-01-05T00:00:00	2024-11-08T17:00:00	5	Humedad	95
104449	7	Sololá	701	Sololá	4	Finca Santa Victoria	5	Mayo	2023-01-05T00:00:00	2024-11-08T17:00:00	6	Velocidad del viento	1.6
104450	7	Sololá	701	Sololá	4	Finca Santa Victoria	5	Mayo	2023-01-05T00:00:00	2024-11-08T17:00:00	7	Dirección del viento	1.61
104451	7	Sololá	701	Sololá	4	Finca Santa Victoria	5	Mayo	2023-01-05T00:00:00	2024-11-08T17:00:00	1	Precipitación	0
104452	7	Sololá	701	Sololá	4	Finca Santa Victoria	5	Mayo	2023-01-05T00:00:00	2024-11-08T17:00:00	8	Radiación solar	65
104453	7	Sololá	701	Sololá	4	Finca Santa Victoria	5	Mayo	2023-01-05T00:00:00	2024-11-08T18:00:00	2	Temperatura media	16
104454	7	Sololá	701	Sololá	4	Finca Santa Victoria	5	Mayo	2023-01-05T00:00:00	2024-11-08T18:00:00	4	Temperatura máxima	16.4
104455	7	Sololá	701	Sololá	4	Finca Santa Victoria	5	Mayo	2023-01-05T00:00:00	2024-11-08T18:00:00	3	Temperatura mínima	15.9
104456	7	Sololá	701	Sololá	4	Finca Santa Victoria	5	Mayo	2023-01-05T00:00:00	2024-11-08T18:00:00	5	Humedad	96
104457	7	Sololá	701	Sololá	4	Finca Santa Victoria	5	Mayo	2023-01-05T00:00:00	2024-11-08T18:00:00	6	Velocidad del viento	1.6
104458	7	Sololá	701	Sololá	4	Finca Santa Victoria	5	Mayo	2023-01-05T00:00:00	2024-11-08T18:00:00	7	Dirección del viento	1.61
104459	7	Sololá	701	Sololá	4	Finca Santa Victoria	5	Mayo	2023-01-05T00:00:00	2024-11-08T18:00:00	1	Precipitación	0
104460	7	Sololá	701	Sololá	4	Finca Santa Victoria	5	Mayo	2023-01-05T00:00:00	2024-11-08T18:00:00	8	Radiación solar	18
104461	7	Sololá	701	Sololá	4	Finca Santa Victoria	5	Mayo	2023-01-05T00:00:00	2024-11-08T19:00:00	2	Temperatura media	15.7
104462	7	Sololá	701	Sololá	4	Finca Santa Victoria	5	Mayo	2023-01-05T00:00:00	2024-11-08T19:00:00	4	Temperatura máxima	16
104463	7	Sololá	701	Sololá	4	Finca Santa Victoria	5	Mayo	2023-01-05T00:00:00	2024-11-08T19:00:00	3	Temperatura mínima	15.7
104464	7	Sololá	701	Sololá	4	Finca Santa Victoria	5	Mayo	2023-01-05T00:00:00	2024-11-08T19:00:00	5	Humedad	97
104465	7	Sololá	701	Sololá	4	Finca Santa Victoria	5	Mayo	2023-01-05T00:00:00	2024-11-08T19:00:00	6	Velocidad del viento	1.6
104466	7	Sololá	701	Sololá	4	Finca Santa Victoria	5	Mayo	2023-01-05T00:00:00	2024-11-08T19:00:00	7	Dirección del viento	1.61
104467	7	Sololá	701	Sololá	4	Finca Santa Victoria	5	Mayo	2023-01-05T00:00:00	2024-11-08T19:00:00	1	Precipitación	0
104468	7	Sololá	701	Sololá	4	Finca Santa Victoria	5	Mayo	2023-01-05T00:00:00	2024-11-08T19:00:00	8	Radiación solar	0
104469	7	Sololá	701	Sololá	4	Finca Santa Victoria	5	Mayo	2023-01-05T00:00:00	2024-11-08T20:00:00	2	Temperatura media	15.5
104470	7	Sololá	701	Sololá	4	Finca Santa Victoria	5	Mayo	2023-01-05T00:00:00	2024-11-08T20:00:00	4	Temperatura máxima	15.8
104471	7	Sololá	701	Sololá	4	Finca Santa Victoria	5	Mayo	2023-01-05T00:00:00	2024-11-08T20:00:00	3	Temperatura mínima	15.5
104472	7	Sololá	701	Sololá	4	Finca Santa Victoria	5	Mayo	2023-01-05T00:00:00	2024-11-08T20:00:00	5	Humedad	97
104473	7	Sololá	701	Sololá	4	Finca Santa Victoria	5	Mayo	2023-01-05T00:00:00	2024-11-08T20:00:00	6	Velocidad del viento	0
104474	7	Sololá	701	Sololá	4	Finca Santa Victoria	5	Mayo	2023-01-05T00:00:00	2024-11-08T20:00:00	7	Dirección del viento	0
104475	7	Sololá	701	Sololá	4	Finca Santa Victoria	5	Mayo	2023-01-05T00:00:00	2024-11-08T20:00:00	1	Precipitación	0
104476	7	Sololá	701	Sololá	4	Finca Santa Victoria	5	Mayo	2023-01-05T00:00:00	2024-11-08T20:00:00	8	Radiación solar	0
104477	7	Sololá	701	Sololá	4	Finca Santa Victoria	5	Mayo	2023-01-05T00:00:00	2024-11-08T21:00:00	2	Temperatura media	15.1
104478	7	Sololá	701	Sololá	4	Finca Santa Victoria	5	Mayo	2023-01-05T00:00:00	2024-11-08T21:00:00	4	Temperatura máxima	15.5
104479	7	Sololá	701	Sololá	4	Finca Santa Victoria	5	Mayo	2023-01-05T00:00:00	2024-11-08T21:00:00	3	Temperatura mínima	15.1
104480	7	Sololá	701	Sololá	4	Finca Santa Victoria	5	Mayo	2023-01-05T00:00:00	2024-11-08T21:00:00	5	Humedad	87
104481	7	Sololá	701	Sololá	4	Finca Santa Victoria	5	Mayo	2023-01-05T00:00:00	2024-11-08T21:00:00	6	Velocidad del viento	0
104482	7	Sololá	701	Sololá	4	Finca Santa Victoria	5	Mayo	2023-01-05T00:00:00	2024-11-08T21:00:00	7	Dirección del viento	0
104483	7	Sololá	701	Sololá	4	Finca Santa Victoria	5	Mayo	2023-01-05T00:00:00	2024-11-08T21:00:00	1	Precipitación	0
104484	7	Sololá	701	Sololá	4	Finca Santa Victoria	5	Mayo	2023-01-05T00:00:00	2024-11-08T21:00:00	8	Radiación solar	0
104485	7	Sololá	701	Sololá	4	Finca Santa Victoria	5	Mayo	2023-01-05T00:00:00	2024-11-08T22:00:00	2	Temperatura media	14.4
104486	7	Sololá	701	Sololá	4	Finca Santa Victoria	5	Mayo	2023-01-05T00:00:00	2024-11-08T22:00:00	4	Temperatura máxima	15.1
104487	7	Sololá	701	Sololá	4	Finca Santa Victoria	5	Mayo	2023-01-05T00:00:00	2024-11-08T22:00:00	3	Temperatura mínima	14.3
104488	7	Sololá	701	Sololá	4	Finca Santa Victoria	5	Mayo	2023-01-05T00:00:00	2024-11-08T22:00:00	5	Humedad	95
104489	7	Sololá	701	Sololá	4	Finca Santa Victoria	5	Mayo	2023-01-05T00:00:00	2024-11-08T22:00:00	6	Velocidad del viento	0
104490	7	Sololá	701	Sololá	4	Finca Santa Victoria	5	Mayo	2023-01-05T00:00:00	2024-11-08T22:00:00	7	Dirección del viento	0
104491	7	Sololá	701	Sololá	4	Finca Santa Victoria	5	Mayo	2023-01-05T00:00:00	2024-11-08T22:00:00	1	Precipitación	0
104492	7	Sololá	701	Sololá	4	Finca Santa Victoria	5	Mayo	2023-01-05T00:00:00	2024-11-08T22:00:00	8	Radiación solar	0
104493	7	Sololá	701	Sololá	4	Finca Santa Victoria	5	Mayo	2023-01-05T00:00:00	2024-11-08T23:00:00	2	Temperatura media	14
104494	7	Sololá	701	Sololá	4	Finca Santa Victoria	5	Mayo	2023-01-05T00:00:00	2024-11-08T23:00:00	4	Temperatura máxima	14.4
104495	7	Sololá	701	Sololá	4	Finca Santa Victoria	5	Mayo	2023-01-05T00:00:00	2024-11-08T23:00:00	3	Temperatura mínima	14
104496	7	Sololá	701	Sololá	4	Finca Santa Victoria	5	Mayo	2023-01-05T00:00:00	2024-11-08T23:00:00	5	Humedad	96
104497	7	Sololá	701	Sololá	4	Finca Santa Victoria	5	Mayo	2023-01-05T00:00:00	2024-11-08T23:00:00	6	Velocidad del viento	0
104498	7	Sololá	701	Sololá	4	Finca Santa Victoria	5	Mayo	2023-01-05T00:00:00	2024-11-08T23:00:00	7	Dirección del viento	0
104499	7	Sololá	701	Sololá	4	Finca Santa Victoria	5	Mayo	2023-01-05T00:00:00	2024-11-08T23:00:00	1	Precipitación	0
104500	7	Sololá	701	Sololá	4	Finca Santa Victoria	5	Mayo	2023-01-05T00:00:00	2024-11-08T23:00:00	8	Radiación solar	0
104501	7	Sololá	701	Sololá	4	Finca Santa Victoria	5	Mayo	2023-02-05T00:00:00	2024-11-08T00:00:00	2	Temperatura media	13.4
104502	7	Sololá	701	Sololá	4	Finca Santa Victoria	5	Mayo	2023-02-05T00:00:00	2024-11-08T00:00:00	4	Temperatura máxima	14
104503	7	Sololá	701	Sololá	4	Finca Santa Victoria	5	Mayo	2023-02-05T00:00:00	2024-11-08T00:00:00	3	Temperatura mínima	13.4
104504	7	Sololá	701	Sololá	4	Finca Santa Victoria	5	Mayo	2023-02-05T00:00:00	2024-11-08T00:00:00	5	Humedad	96
104505	7	Sololá	701	Sololá	4	Finca Santa Victoria	5	Mayo	2023-02-05T00:00:00	2024-11-08T00:00:00	6	Velocidad del viento	1.6
104506	7	Sololá	701	Sololá	4	Finca Santa Victoria	5	Mayo	2023-02-05T00:00:00	2024-11-08T00:00:00	7	Dirección del viento	1.61
104507	7	Sololá	701	Sololá	4	Finca Santa Victoria	5	Mayo	2023-02-05T00:00:00	2024-11-08T00:00:00	1	Precipitación	0.2
104508	7	Sololá	701	Sololá	4	Finca Santa Victoria	5	Mayo	2023-02-05T00:00:00	2024-11-08T00:00:00	8	Radiación solar	0
104509	7	Sololá	701	Sololá	4	Finca Santa Victoria	5	Mayo	2023-02-05T00:00:00	2024-11-08T01:00:00	2	Temperatura media	13.4
104510	7	Sololá	701	Sololá	4	Finca Santa Victoria	5	Mayo	2023-02-05T00:00:00	2024-11-08T01:00:00	4	Temperatura máxima	13.5
104511	7	Sololá	701	Sololá	4	Finca Santa Victoria	5	Mayo	2023-02-05T00:00:00	2024-11-08T01:00:00	3	Temperatura mínima	13.3
104512	7	Sololá	701	Sololá	4	Finca Santa Victoria	5	Mayo	2023-02-05T00:00:00	2024-11-08T01:00:00	5	Humedad	95
104513	7	Sololá	701	Sololá	4	Finca Santa Victoria	5	Mayo	2023-02-05T00:00:00	2024-11-08T01:00:00	6	Velocidad del viento	1.6
104514	7	Sololá	701	Sololá	4	Finca Santa Victoria	5	Mayo	2023-02-05T00:00:00	2024-11-08T01:00:00	7	Dirección del viento	1.61
104515	7	Sololá	701	Sololá	4	Finca Santa Victoria	5	Mayo	2023-02-05T00:00:00	2024-11-08T01:00:00	1	Precipitación	0
104516	7	Sololá	701	Sololá	4	Finca Santa Victoria	5	Mayo	2023-02-05T00:00:00	2024-11-08T01:00:00	8	Radiación solar	0
104517	7	Sololá	701	Sololá	4	Finca Santa Victoria	5	Mayo	2023-02-05T00:00:00	2024-11-08T02:00:00	2	Temperatura media	13.6
104518	7	Sololá	701	Sololá	4	Finca Santa Victoria	5	Mayo	2023-02-05T00:00:00	2024-11-08T02:00:00	4	Temperatura máxima	13.7
104519	7	Sololá	701	Sololá	4	Finca Santa Victoria	5	Mayo	2023-02-05T00:00:00	2024-11-08T02:00:00	3	Temperatura mínima	13.4
104520	7	Sololá	701	Sololá	4	Finca Santa Victoria	5	Mayo	2023-02-05T00:00:00	2024-11-08T02:00:00	5	Humedad	96
104521	7	Sololá	701	Sololá	4	Finca Santa Victoria	5	Mayo	2023-02-05T00:00:00	2024-11-08T02:00:00	6	Velocidad del viento	0
104522	7	Sololá	701	Sololá	4	Finca Santa Victoria	5	Mayo	2023-02-05T00:00:00	2024-11-08T02:00:00	7	Dirección del viento	0
104523	7	Sololá	701	Sololá	4	Finca Santa Victoria	5	Mayo	2023-02-05T00:00:00	2024-11-08T02:00:00	1	Precipitación	0
104524	7	Sololá	701	Sololá	4	Finca Santa Victoria	5	Mayo	2023-02-05T00:00:00	2024-11-08T02:00:00	8	Radiación solar	0
104525	7	Sololá	701	Sololá	4	Finca Santa Victoria	5	Mayo	2023-02-05T00:00:00	2024-11-08T03:00:00	2	Temperatura media	13.4
104526	7	Sololá	701	Sololá	4	Finca Santa Victoria	5	Mayo	2023-02-05T00:00:00	2024-11-08T03:00:00	4	Temperatura máxima	13.6
104527	7	Sololá	701	Sololá	4	Finca Santa Victoria	5	Mayo	2023-02-05T00:00:00	2024-11-08T03:00:00	3	Temperatura mínima	13.4
104528	7	Sololá	701	Sololá	4	Finca Santa Victoria	5	Mayo	2023-02-05T00:00:00	2024-11-08T03:00:00	5	Humedad	97
104529	7	Sololá	701	Sololá	4	Finca Santa Victoria	5	Mayo	2023-02-05T00:00:00	2024-11-08T03:00:00	6	Velocidad del viento	0
104530	7	Sololá	701	Sololá	4	Finca Santa Victoria	5	Mayo	2023-02-05T00:00:00	2024-11-08T03:00:00	7	Dirección del viento	0
104531	7	Sololá	701	Sololá	4	Finca Santa Victoria	5	Mayo	2023-02-05T00:00:00	2024-11-08T03:00:00	1	Precipitación	0
104532	7	Sololá	701	Sololá	4	Finca Santa Victoria	5	Mayo	2023-02-05T00:00:00	2024-11-08T03:00:00	8	Radiación solar	0
104533	7	Sololá	701	Sololá	4	Finca Santa Victoria	5	Mayo	2023-02-05T00:00:00	2024-11-08T04:00:00	2	Temperatura media	13.2
104534	7	Sololá	701	Sololá	4	Finca Santa Victoria	5	Mayo	2023-02-05T00:00:00	2024-11-08T04:00:00	4	Temperatura máxima	13.5
104535	7	Sololá	701	Sololá	4	Finca Santa Victoria	5	Mayo	2023-02-05T00:00:00	2024-11-08T04:00:00	3	Temperatura mínima	13.1
104536	7	Sololá	701	Sololá	4	Finca Santa Victoria	5	Mayo	2023-02-05T00:00:00	2024-11-08T04:00:00	5	Humedad	96
104537	7	Sololá	701	Sololá	4	Finca Santa Victoria	5	Mayo	2023-02-05T00:00:00	2024-11-08T04:00:00	6	Velocidad del viento	1.6
104538	7	Sololá	701	Sololá	4	Finca Santa Victoria	5	Mayo	2023-02-05T00:00:00	2024-11-08T04:00:00	7	Dirección del viento	1.61
104539	7	Sololá	701	Sololá	4	Finca Santa Victoria	5	Mayo	2023-02-05T00:00:00	2024-11-08T04:00:00	1	Precipitación	0
104540	7	Sololá	701	Sololá	4	Finca Santa Victoria	5	Mayo	2023-02-05T00:00:00	2024-11-08T04:00:00	8	Radiación solar	0
104541	7	Sololá	701	Sololá	4	Finca Santa Victoria	5	Mayo	2023-02-05T00:00:00	2024-11-08T05:00:00	2	Temperatura media	13.2
104542	7	Sololá	701	Sololá	4	Finca Santa Victoria	5	Mayo	2023-02-05T00:00:00	2024-11-08T05:00:00	4	Temperatura máxima	13.4
104543	7	Sololá	701	Sololá	4	Finca Santa Victoria	5	Mayo	2023-02-05T00:00:00	2024-11-08T05:00:00	3	Temperatura mínima	13.2
104544	7	Sololá	701	Sololá	4	Finca Santa Victoria	5	Mayo	2023-02-05T00:00:00	2024-11-08T05:00:00	5	Humedad	97
104545	7	Sololá	701	Sololá	4	Finca Santa Victoria	5	Mayo	2023-02-05T00:00:00	2024-11-08T05:00:00	6	Velocidad del viento	0
104546	7	Sololá	701	Sololá	4	Finca Santa Victoria	5	Mayo	2023-02-05T00:00:00	2024-11-08T05:00:00	7	Dirección del viento	0
104547	7	Sololá	701	Sololá	4	Finca Santa Victoria	5	Mayo	2023-02-05T00:00:00	2024-11-08T05:00:00	1	Precipitación	0
104548	7	Sololá	701	Sololá	4	Finca Santa Victoria	5	Mayo	2023-02-05T00:00:00	2024-11-08T05:00:00	8	Radiación solar	0
104549	7	Sololá	701	Sololá	4	Finca Santa Victoria	5	Mayo	2023-02-05T00:00:00	2024-11-08T06:00:00	2	Temperatura media	12.9
104550	7	Sololá	701	Sololá	4	Finca Santa Victoria	5	Mayo	2023-02-05T00:00:00	2024-11-08T06:00:00	4	Temperatura máxima	13.2
104551	7	Sololá	701	Sololá	4	Finca Santa Victoria	5	Mayo	2023-02-05T00:00:00	2024-11-08T06:00:00	3	Temperatura mínima	12.9
104552	7	Sololá	701	Sololá	4	Finca Santa Victoria	5	Mayo	2023-02-05T00:00:00	2024-11-08T06:00:00	5	Humedad	96
104553	7	Sololá	701	Sololá	4	Finca Santa Victoria	5	Mayo	2023-02-05T00:00:00	2024-11-08T06:00:00	6	Velocidad del viento	1.6
104554	7	Sololá	701	Sololá	4	Finca Santa Victoria	5	Mayo	2023-02-05T00:00:00	2024-11-08T06:00:00	7	Dirección del viento	1.61
104555	7	Sololá	701	Sololá	4	Finca Santa Victoria	5	Mayo	2023-02-05T00:00:00	2024-11-08T06:00:00	1	Precipitación	0
104556	7	Sololá	701	Sololá	4	Finca Santa Victoria	5	Mayo	2023-02-05T00:00:00	2024-11-08T06:00:00	8	Radiación solar	2
104557	7	Sololá	701	Sololá	4	Finca Santa Victoria	5	Mayo	2023-02-05T00:00:00	2024-11-08T07:00:00	2	Temperatura media	13.7
104558	7	Sololá	701	Sololá	4	Finca Santa Victoria	5	Mayo	2023-02-05T00:00:00	2024-11-08T07:00:00	4	Temperatura máxima	13.7
104559	7	Sololá	701	Sololá	4	Finca Santa Victoria	5	Mayo	2023-02-05T00:00:00	2024-11-08T07:00:00	3	Temperatura mínima	12.9
104560	7	Sololá	701	Sololá	4	Finca Santa Victoria	5	Mayo	2023-02-05T00:00:00	2024-11-08T07:00:00	5	Humedad	92
104561	7	Sololá	701	Sololá	4	Finca Santa Victoria	5	Mayo	2023-02-05T00:00:00	2024-11-08T07:00:00	6	Velocidad del viento	1.6
104562	7	Sololá	701	Sololá	4	Finca Santa Victoria	5	Mayo	2023-02-05T00:00:00	2024-11-08T07:00:00	7	Dirección del viento	1.61
104563	7	Sololá	701	Sololá	4	Finca Santa Victoria	5	Mayo	2023-02-05T00:00:00	2024-11-08T07:00:00	1	Precipitación	0
104564	7	Sololá	701	Sololá	4	Finca Santa Victoria	5	Mayo	2023-02-05T00:00:00	2024-11-08T07:00:00	8	Radiación solar	47
104565	7	Sololá	701	Sololá	4	Finca Santa Victoria	5	Mayo	2023-02-05T00:00:00	2024-11-08T08:00:00	2	Temperatura media	16.3
104566	7	Sololá	701	Sololá	4	Finca Santa Victoria	5	Mayo	2023-02-05T00:00:00	2024-11-08T08:00:00	4	Temperatura máxima	16.3
104567	7	Sololá	701	Sololá	4	Finca Santa Victoria	5	Mayo	2023-02-05T00:00:00	2024-11-08T08:00:00	3	Temperatura mínima	13.7
104568	7	Sololá	701	Sololá	4	Finca Santa Victoria	5	Mayo	2023-02-05T00:00:00	2024-11-08T08:00:00	5	Humedad	86
104569	7	Sololá	701	Sololá	4	Finca Santa Victoria	5	Mayo	2023-02-05T00:00:00	2024-11-08T08:00:00	6	Velocidad del viento	1.6
104570	7	Sololá	701	Sololá	4	Finca Santa Victoria	5	Mayo	2023-02-05T00:00:00	2024-11-08T08:00:00	7	Dirección del viento	1.61
104571	7	Sololá	701	Sololá	4	Finca Santa Victoria	5	Mayo	2023-02-05T00:00:00	2024-11-08T08:00:00	1	Precipitación	0
104572	7	Sololá	701	Sololá	4	Finca Santa Victoria	5	Mayo	2023-02-05T00:00:00	2024-11-08T08:00:00	8	Radiación solar	235
104573	7	Sololá	701	Sololá	4	Finca Santa Victoria	5	Mayo	2023-02-05T00:00:00	2024-11-08T09:00:00	2	Temperatura media	17.2
104574	7	Sololá	701	Sololá	4	Finca Santa Victoria	5	Mayo	2023-02-05T00:00:00	2024-11-08T09:00:00	4	Temperatura máxima	17.3
104575	7	Sololá	701	Sololá	4	Finca Santa Victoria	5	Mayo	2023-02-05T00:00:00	2024-11-08T09:00:00	3	Temperatura mínima	16.4
104576	7	Sololá	701	Sololá	4	Finca Santa Victoria	5	Mayo	2023-02-05T00:00:00	2024-11-08T09:00:00	5	Humedad	83
104577	7	Sololá	701	Sololá	4	Finca Santa Victoria	5	Mayo	2023-02-05T00:00:00	2024-11-08T09:00:00	6	Velocidad del viento	1.6
104578	7	Sololá	701	Sololá	4	Finca Santa Victoria	5	Mayo	2023-02-05T00:00:00	2024-11-08T09:00:00	7	Dirección del viento	1.61
104579	7	Sololá	701	Sololá	4	Finca Santa Victoria	5	Mayo	2023-02-05T00:00:00	2024-11-08T09:00:00	1	Precipitación	0
104580	7	Sololá	701	Sololá	4	Finca Santa Victoria	5	Mayo	2023-02-05T00:00:00	2024-11-08T09:00:00	8	Radiación solar	348
104581	7	Sololá	701	Sololá	4	Finca Santa Victoria	5	Mayo	2023-02-05T00:00:00	2024-11-08T10:00:00	2	Temperatura media	18.6
104582	7	Sololá	701	Sololá	4	Finca Santa Victoria	5	Mayo	2023-02-05T00:00:00	2024-11-08T10:00:00	4	Temperatura máxima	18.6
104583	7	Sololá	701	Sololá	4	Finca Santa Victoria	5	Mayo	2023-02-05T00:00:00	2024-11-08T10:00:00	3	Temperatura mínima	17.2
104584	7	Sololá	701	Sololá	4	Finca Santa Victoria	5	Mayo	2023-02-05T00:00:00	2024-11-08T10:00:00	5	Humedad	80
104585	7	Sololá	701	Sololá	4	Finca Santa Victoria	5	Mayo	2023-02-05T00:00:00	2024-11-08T10:00:00	6	Velocidad del viento	3.2
104586	7	Sololá	701	Sololá	4	Finca Santa Victoria	5	Mayo	2023-02-05T00:00:00	2024-11-08T10:00:00	7	Dirección del viento	3.22
104587	7	Sololá	701	Sololá	4	Finca Santa Victoria	5	Mayo	2023-02-05T00:00:00	2024-11-08T10:00:00	1	Precipitación	0
104588	7	Sololá	701	Sololá	4	Finca Santa Victoria	5	Mayo	2023-02-05T00:00:00	2024-11-08T10:00:00	8	Radiación solar	273
104589	7	Sololá	701	Sololá	4	Finca Santa Victoria	5	Mayo	2023-02-05T00:00:00	2024-11-08T11:00:00	2	Temperatura media	19.1
104590	7	Sololá	701	Sololá	4	Finca Santa Victoria	5	Mayo	2023-02-05T00:00:00	2024-11-08T11:00:00	4	Temperatura máxima	19.2
104591	7	Sololá	701	Sololá	4	Finca Santa Victoria	5	Mayo	2023-02-05T00:00:00	2024-11-08T11:00:00	3	Temperatura mínima	18.6
104592	7	Sololá	701	Sololá	4	Finca Santa Victoria	5	Mayo	2023-02-05T00:00:00	2024-11-08T11:00:00	5	Humedad	78
104593	7	Sololá	701	Sololá	4	Finca Santa Victoria	5	Mayo	2023-02-05T00:00:00	2024-11-08T11:00:00	6	Velocidad del viento	4.8
104594	7	Sololá	701	Sololá	4	Finca Santa Victoria	5	Mayo	2023-02-05T00:00:00	2024-11-08T11:00:00	7	Dirección del viento	4.83
104595	7	Sololá	701	Sololá	4	Finca Santa Victoria	5	Mayo	2023-02-05T00:00:00	2024-11-08T11:00:00	1	Precipitación	0
104596	7	Sololá	701	Sololá	4	Finca Santa Victoria	5	Mayo	2023-02-05T00:00:00	2024-11-08T11:00:00	8	Radiación solar	660
104597	7	Sololá	701	Sololá	4	Finca Santa Victoria	5	Mayo	2023-02-05T00:00:00	2024-11-08T12:00:00	2	Temperatura media	16.8
104598	7	Sololá	701	Sololá	4	Finca Santa Victoria	5	Mayo	2023-02-05T00:00:00	2024-11-08T12:00:00	4	Temperatura máxima	19.2
104599	7	Sololá	701	Sololá	4	Finca Santa Victoria	5	Mayo	2023-02-05T00:00:00	2024-11-08T12:00:00	3	Temperatura mínima	16.8
104600	7	Sololá	701	Sololá	4	Finca Santa Victoria	5	Mayo	2023-02-05T00:00:00	2024-11-08T12:00:00	5	Humedad	90
104601	7	Sololá	701	Sololá	4	Finca Santa Victoria	5	Mayo	2023-02-05T00:00:00	2024-11-08T12:00:00	6	Velocidad del viento	3.2
104602	7	Sololá	701	Sololá	4	Finca Santa Victoria	5	Mayo	2023-02-05T00:00:00	2024-11-08T12:00:00	7	Dirección del viento	3.22
104603	7	Sololá	701	Sololá	4	Finca Santa Victoria	5	Mayo	2023-02-05T00:00:00	2024-11-08T12:00:00	1	Precipitación	0
104604	7	Sololá	701	Sololá	4	Finca Santa Victoria	5	Mayo	2023-02-05T00:00:00	2024-11-08T12:00:00	8	Radiación solar	163
104605	7	Sololá	701	Sololá	4	Finca Santa Victoria	5	Mayo	2023-02-05T00:00:00	2024-11-08T13:00:00	2	Temperatura media	18.8
104606	7	Sololá	701	Sololá	4	Finca Santa Victoria	5	Mayo	2023-02-05T00:00:00	2024-11-08T13:00:00	4	Temperatura máxima	18.8
104607	7	Sololá	701	Sololá	4	Finca Santa Victoria	5	Mayo	2023-02-05T00:00:00	2024-11-08T13:00:00	3	Temperatura mínima	16.8
104608	7	Sololá	701	Sololá	4	Finca Santa Victoria	5	Mayo	2023-02-05T00:00:00	2024-11-08T13:00:00	5	Humedad	84
104609	7	Sololá	701	Sololá	4	Finca Santa Victoria	5	Mayo	2023-02-05T00:00:00	2024-11-08T13:00:00	6	Velocidad del viento	3.2
104610	7	Sololá	701	Sololá	4	Finca Santa Victoria	5	Mayo	2023-02-05T00:00:00	2024-11-08T13:00:00	7	Dirección del viento	3.22
104611	7	Sololá	701	Sololá	4	Finca Santa Victoria	5	Mayo	2023-02-05T00:00:00	2024-11-08T13:00:00	1	Precipitación	0
104612	7	Sololá	701	Sololá	4	Finca Santa Victoria	5	Mayo	2023-02-05T00:00:00	2024-11-08T13:00:00	8	Radiación solar	254
104613	7	Sololá	701	Sololá	4	Finca Santa Victoria	5	Mayo	2023-02-05T00:00:00	2024-11-08T14:00:00	2	Temperatura media	19.7
104614	7	Sololá	701	Sololá	4	Finca Santa Victoria	5	Mayo	2023-02-05T00:00:00	2024-11-08T14:00:00	4	Temperatura máxima	20
104615	7	Sololá	701	Sololá	4	Finca Santa Victoria	5	Mayo	2023-02-05T00:00:00	2024-11-08T14:00:00	3	Temperatura mínima	18.8
104616	7	Sololá	701	Sololá	4	Finca Santa Victoria	5	Mayo	2023-02-05T00:00:00	2024-11-08T14:00:00	5	Humedad	81
104617	7	Sololá	701	Sololá	4	Finca Santa Victoria	5	Mayo	2023-02-05T00:00:00	2024-11-08T14:00:00	6	Velocidad del viento	4.8
104618	7	Sololá	701	Sololá	4	Finca Santa Victoria	5	Mayo	2023-02-05T00:00:00	2024-11-08T14:00:00	7	Dirección del viento	4.83
104619	7	Sololá	701	Sololá	4	Finca Santa Victoria	5	Mayo	2023-02-05T00:00:00	2024-11-08T14:00:00	1	Precipitación	0
104620	7	Sololá	701	Sololá	4	Finca Santa Victoria	5	Mayo	2023-02-05T00:00:00	2024-11-08T14:00:00	8	Radiación solar	401
104621	7	Sololá	701	Sololá	4	Finca Santa Victoria	5	Mayo	2023-02-05T00:00:00	2024-11-08T15:00:00	2	Temperatura media	15.7
104622	7	Sololá	701	Sololá	4	Finca Santa Victoria	5	Mayo	2023-02-05T00:00:00	2024-11-08T15:00:00	4	Temperatura máxima	19.7
104623	7	Sololá	701	Sololá	4	Finca Santa Victoria	5	Mayo	2023-02-05T00:00:00	2024-11-08T15:00:00	3	Temperatura mínima	15.7
104624	7	Sololá	701	Sololá	4	Finca Santa Victoria	5	Mayo	2023-02-05T00:00:00	2024-11-08T15:00:00	5	Humedad	85
104625	7	Sololá	701	Sololá	4	Finca Santa Victoria	5	Mayo	2023-02-05T00:00:00	2024-11-08T15:00:00	6	Velocidad del viento	3.2
104626	7	Sololá	701	Sololá	4	Finca Santa Victoria	5	Mayo	2023-02-05T00:00:00	2024-11-08T15:00:00	7	Dirección del viento	3.22
104627	7	Sololá	701	Sololá	4	Finca Santa Victoria	5	Mayo	2023-02-05T00:00:00	2024-11-08T15:00:00	1	Precipitación	0.4
104628	7	Sololá	701	Sololá	4	Finca Santa Victoria	5	Mayo	2023-02-05T00:00:00	2024-11-08T15:00:00	8	Radiación solar	91
104629	7	Sololá	701	Sololá	4	Finca Santa Victoria	5	Mayo	2023-02-05T00:00:00	2024-11-08T16:00:00	2	Temperatura media	14.8
104630	7	Sololá	701	Sololá	4	Finca Santa Victoria	5	Mayo	2023-02-05T00:00:00	2024-11-08T16:00:00	4	Temperatura máxima	15.7
104631	7	Sololá	701	Sololá	4	Finca Santa Victoria	5	Mayo	2023-02-05T00:00:00	2024-11-08T16:00:00	3	Temperatura mínima	14.3
104632	7	Sololá	701	Sololá	4	Finca Santa Victoria	5	Mayo	2023-02-05T00:00:00	2024-11-08T16:00:00	5	Humedad	93
104633	7	Sololá	701	Sololá	4	Finca Santa Victoria	5	Mayo	2023-02-05T00:00:00	2024-11-08T16:00:00	6	Velocidad del viento	1.6
104634	7	Sololá	701	Sololá	4	Finca Santa Victoria	5	Mayo	2023-02-05T00:00:00	2024-11-08T16:00:00	7	Dirección del viento	1.61
104635	7	Sololá	701	Sololá	4	Finca Santa Victoria	5	Mayo	2023-02-05T00:00:00	2024-11-08T16:00:00	1	Precipitación	0.2
104636	7	Sololá	701	Sololá	4	Finca Santa Victoria	5	Mayo	2023-02-05T00:00:00	2024-11-08T16:00:00	8	Radiación solar	66
104637	7	Sololá	701	Sololá	4	Finca Santa Victoria	5	Mayo	2023-02-05T00:00:00	2024-11-08T17:00:00	2	Temperatura media	13.3
104638	7	Sololá	701	Sololá	4	Finca Santa Victoria	5	Mayo	2023-02-05T00:00:00	2024-11-08T17:00:00	4	Temperatura máxima	14.8
104639	7	Sololá	701	Sololá	4	Finca Santa Victoria	5	Mayo	2023-02-05T00:00:00	2024-11-08T17:00:00	3	Temperatura mínima	13.3
104640	7	Sololá	701	Sololá	4	Finca Santa Victoria	5	Mayo	2023-02-05T00:00:00	2024-11-08T17:00:00	5	Humedad	95
104641	7	Sololá	701	Sololá	4	Finca Santa Victoria	5	Mayo	2023-02-05T00:00:00	2024-11-08T17:00:00	6	Velocidad del viento	1.6
104642	7	Sololá	701	Sololá	4	Finca Santa Victoria	5	Mayo	2023-02-05T00:00:00	2024-11-08T17:00:00	7	Dirección del viento	1.61
104643	7	Sololá	701	Sololá	4	Finca Santa Victoria	5	Mayo	2023-02-05T00:00:00	2024-11-08T17:00:00	1	Precipitación	3.6
104644	7	Sololá	701	Sololá	4	Finca Santa Victoria	5	Mayo	2023-02-05T00:00:00	2024-11-08T17:00:00	8	Radiación solar	0
104645	7	Sololá	701	Sololá	4	Finca Santa Victoria	5	Mayo	2023-02-05T00:00:00	2024-11-08T18:00:00	2	Temperatura media	13.3
104646	7	Sololá	701	Sololá	4	Finca Santa Victoria	5	Mayo	2023-02-05T00:00:00	2024-11-08T18:00:00	4	Temperatura máxima	13.3
104647	7	Sololá	701	Sololá	4	Finca Santa Victoria	5	Mayo	2023-02-05T00:00:00	2024-11-08T18:00:00	3	Temperatura mínima	13.2
104648	7	Sololá	701	Sololá	4	Finca Santa Victoria	5	Mayo	2023-02-05T00:00:00	2024-11-08T18:00:00	5	Humedad	97
104649	7	Sololá	701	Sololá	4	Finca Santa Victoria	5	Mayo	2023-02-05T00:00:00	2024-11-08T18:00:00	6	Velocidad del viento	1.6
104650	7	Sololá	701	Sololá	4	Finca Santa Victoria	5	Mayo	2023-02-05T00:00:00	2024-11-08T18:00:00	7	Dirección del viento	1.61
104651	7	Sololá	701	Sololá	4	Finca Santa Victoria	5	Mayo	2023-02-05T00:00:00	2024-11-08T18:00:00	1	Precipitación	2.6
104652	7	Sololá	701	Sololá	4	Finca Santa Victoria	5	Mayo	2023-02-05T00:00:00	2024-11-08T18:00:00	8	Radiación solar	0
104653	7	Sololá	701	Sololá	4	Finca Santa Victoria	5	Mayo	2023-02-05T00:00:00	2024-11-08T19:00:00	2	Temperatura media	12.3
104654	7	Sololá	701	Sololá	4	Finca Santa Victoria	5	Mayo	2023-02-05T00:00:00	2024-11-08T19:00:00	4	Temperatura máxima	13.3
104655	7	Sololá	701	Sololá	4	Finca Santa Victoria	5	Mayo	2023-02-05T00:00:00	2024-11-08T19:00:00	3	Temperatura mínima	12.3
104656	7	Sololá	701	Sololá	4	Finca Santa Victoria	5	Mayo	2023-02-05T00:00:00	2024-11-08T19:00:00	5	Humedad	90
104657	7	Sololá	701	Sololá	4	Finca Santa Victoria	5	Mayo	2023-02-05T00:00:00	2024-11-08T19:00:00	6	Velocidad del viento	3.2
104658	7	Sololá	701	Sololá	4	Finca Santa Victoria	5	Mayo	2023-02-05T00:00:00	2024-11-08T19:00:00	7	Dirección del viento	3.22
104659	7	Sololá	701	Sololá	4	Finca Santa Victoria	5	Mayo	2023-02-05T00:00:00	2024-11-08T19:00:00	1	Precipitación	3.4
104660	7	Sololá	701	Sololá	4	Finca Santa Victoria	5	Mayo	2023-02-05T00:00:00	2024-11-08T19:00:00	8	Radiación solar	0
104661	7	Sololá	701	Sololá	4	Finca Santa Victoria	5	Mayo	2023-02-05T00:00:00	2024-11-08T20:00:00	2	Temperatura media	12.4
104662	7	Sololá	701	Sololá	4	Finca Santa Victoria	5	Mayo	2023-02-05T00:00:00	2024-11-08T20:00:00	4	Temperatura máxima	12.7
104663	7	Sololá	701	Sololá	4	Finca Santa Victoria	5	Mayo	2023-02-05T00:00:00	2024-11-08T20:00:00	3	Temperatura mínima	12.2
104664	7	Sololá	701	Sololá	4	Finca Santa Victoria	5	Mayo	2023-02-05T00:00:00	2024-11-08T20:00:00	5	Humedad	90
104665	7	Sololá	701	Sololá	4	Finca Santa Victoria	5	Mayo	2023-02-05T00:00:00	2024-11-08T20:00:00	6	Velocidad del viento	1.6
104666	7	Sololá	701	Sololá	4	Finca Santa Victoria	5	Mayo	2023-02-05T00:00:00	2024-11-08T20:00:00	7	Dirección del viento	1.61
104667	7	Sololá	701	Sololá	4	Finca Santa Victoria	5	Mayo	2023-02-05T00:00:00	2024-11-08T20:00:00	1	Precipitación	0.2
104668	7	Sololá	701	Sololá	4	Finca Santa Victoria	5	Mayo	2023-02-05T00:00:00	2024-11-08T20:00:00	8	Radiación solar	0
104669	7	Sololá	701	Sololá	4	Finca Santa Victoria	5	Mayo	2023-02-05T00:00:00	2024-11-08T21:00:00	2	Temperatura media	13.7
104670	7	Sololá	701	Sololá	4	Finca Santa Victoria	5	Mayo	2023-02-05T00:00:00	2024-11-08T21:00:00	4	Temperatura máxima	13.8
104671	7	Sololá	701	Sololá	4	Finca Santa Victoria	5	Mayo	2023-02-05T00:00:00	2024-11-08T21:00:00	3	Temperatura mínima	12.3
104672	7	Sololá	701	Sololá	4	Finca Santa Victoria	5	Mayo	2023-02-05T00:00:00	2024-11-08T21:00:00	5	Humedad	75
104673	7	Sololá	701	Sololá	4	Finca Santa Victoria	5	Mayo	2023-02-05T00:00:00	2024-11-08T21:00:00	6	Velocidad del viento	1.6
104674	7	Sololá	701	Sololá	4	Finca Santa Victoria	5	Mayo	2023-02-05T00:00:00	2024-11-08T21:00:00	7	Dirección del viento	1.61
104675	7	Sololá	701	Sololá	4	Finca Santa Victoria	5	Mayo	2023-02-05T00:00:00	2024-11-08T21:00:00	1	Precipitación	0
104676	7	Sololá	701	Sololá	4	Finca Santa Victoria	5	Mayo	2023-02-05T00:00:00	2024-11-08T21:00:00	8	Radiación solar	0
104677	7	Sololá	701	Sololá	4	Finca Santa Victoria	5	Mayo	2023-02-05T00:00:00	2024-11-08T22:00:00	2	Temperatura media	15.7
104678	7	Sololá	701	Sololá	4	Finca Santa Victoria	5	Mayo	2023-02-05T00:00:00	2024-11-08T22:00:00	4	Temperatura máxima	15.7
104679	7	Sololá	701	Sololá	4	Finca Santa Victoria	5	Mayo	2023-02-05T00:00:00	2024-11-08T22:00:00	3	Temperatura mínima	13.5
104680	7	Sololá	701	Sololá	4	Finca Santa Victoria	5	Mayo	2023-02-05T00:00:00	2024-11-08T22:00:00	5	Humedad	59
104681	7	Sololá	701	Sololá	4	Finca Santa Victoria	5	Mayo	2023-02-05T00:00:00	2024-11-08T22:00:00	6	Velocidad del viento	1.6
104682	7	Sololá	701	Sololá	4	Finca Santa Victoria	5	Mayo	2023-02-05T00:00:00	2024-11-08T22:00:00	7	Dirección del viento	1.61
104683	7	Sololá	701	Sololá	4	Finca Santa Victoria	5	Mayo	2023-02-05T00:00:00	2024-11-08T22:00:00	1	Precipitación	0
104684	7	Sololá	701	Sololá	4	Finca Santa Victoria	5	Mayo	2023-02-05T00:00:00	2024-11-08T22:00:00	8	Radiación solar	0
104685	7	Sololá	701	Sololá	4	Finca Santa Victoria	5	Mayo	2023-02-05T00:00:00	2024-11-08T23:00:00	2	Temperatura media	15.1
104686	7	Sololá	701	Sololá	4	Finca Santa Victoria	5	Mayo	2023-02-05T00:00:00	2024-11-08T23:00:00	4	Temperatura máxima	16.4
104687	7	Sololá	701	Sololá	4	Finca Santa Victoria	5	Mayo	2023-02-05T00:00:00	2024-11-08T23:00:00	3	Temperatura mínima	15.1
104688	7	Sololá	701	Sololá	4	Finca Santa Victoria	5	Mayo	2023-02-05T00:00:00	2024-11-08T23:00:00	5	Humedad	65
104689	7	Sololá	701	Sololá	4	Finca Santa Victoria	5	Mayo	2023-02-05T00:00:00	2024-11-08T23:00:00	6	Velocidad del viento	1.6
104690	7	Sololá	701	Sololá	4	Finca Santa Victoria	5	Mayo	2023-02-05T00:00:00	2024-11-08T23:00:00	7	Dirección del viento	1.61
104691	7	Sololá	701	Sololá	4	Finca Santa Victoria	5	Mayo	2023-02-05T00:00:00	2024-11-08T23:00:00	1	Precipitación	0
104692	7	Sololá	701	Sololá	4	Finca Santa Victoria	5	Mayo	2023-02-05T00:00:00	2024-11-08T23:00:00	8	Radiación solar	0
104693	7	Sololá	701	Sololá	4	Finca Santa Victoria	5	Mayo	2023-03-05T00:00:00	2024-11-08T00:00:00	2	Temperatura media	15.2
104694	7	Sololá	701	Sololá	4	Finca Santa Victoria	5	Mayo	2023-03-05T00:00:00	2024-11-08T00:00:00	4	Temperatura máxima	15.6
104695	7	Sololá	701	Sololá	4	Finca Santa Victoria	5	Mayo	2023-03-05T00:00:00	2024-11-08T00:00:00	3	Temperatura mínima	15.1
104696	7	Sololá	701	Sololá	4	Finca Santa Victoria	5	Mayo	2023-03-05T00:00:00	2024-11-08T00:00:00	5	Humedad	73
104697	7	Sololá	701	Sololá	4	Finca Santa Victoria	5	Mayo	2023-03-05T00:00:00	2024-11-08T00:00:00	6	Velocidad del viento	3.2
104698	7	Sololá	701	Sololá	4	Finca Santa Victoria	5	Mayo	2023-03-05T00:00:00	2024-11-08T00:00:00	7	Dirección del viento	3.22
104699	7	Sololá	701	Sololá	4	Finca Santa Victoria	5	Mayo	2023-03-05T00:00:00	2024-11-08T00:00:00	1	Precipitación	0
104700	7	Sololá	701	Sololá	4	Finca Santa Victoria	5	Mayo	2023-03-05T00:00:00	2024-11-08T00:00:00	8	Radiación solar	0
104701	7	Sololá	701	Sololá	4	Finca Santa Victoria	5	Mayo	2023-03-05T00:00:00	2024-11-08T01:00:00	2	Temperatura media	15.2
104702	7	Sololá	701	Sololá	4	Finca Santa Victoria	5	Mayo	2023-03-05T00:00:00	2024-11-08T01:00:00	4	Temperatura máxima	15.5
104703	7	Sololá	701	Sololá	4	Finca Santa Victoria	5	Mayo	2023-03-05T00:00:00	2024-11-08T01:00:00	3	Temperatura mínima	15.2
104704	7	Sololá	701	Sololá	4	Finca Santa Victoria	5	Mayo	2023-03-05T00:00:00	2024-11-08T01:00:00	5	Humedad	79
104705	7	Sololá	701	Sololá	4	Finca Santa Victoria	5	Mayo	2023-03-05T00:00:00	2024-11-08T01:00:00	6	Velocidad del viento	1.6
104706	7	Sololá	701	Sololá	4	Finca Santa Victoria	5	Mayo	2023-03-05T00:00:00	2024-11-08T01:00:00	7	Dirección del viento	1.61
104707	7	Sololá	701	Sololá	4	Finca Santa Victoria	5	Mayo	2023-03-05T00:00:00	2024-11-08T01:00:00	1	Precipitación	0
104708	7	Sololá	701	Sololá	4	Finca Santa Victoria	5	Mayo	2023-03-05T00:00:00	2024-11-08T01:00:00	8	Radiación solar	0
104709	7	Sololá	701	Sololá	4	Finca Santa Victoria	5	Mayo	2023-03-05T00:00:00	2024-11-08T02:00:00	2	Temperatura media	15.4
104710	7	Sololá	701	Sololá	4	Finca Santa Victoria	5	Mayo	2023-03-05T00:00:00	2024-11-08T02:00:00	4	Temperatura máxima	15.5
104711	7	Sololá	701	Sololá	4	Finca Santa Victoria	5	Mayo	2023-03-05T00:00:00	2024-11-08T02:00:00	3	Temperatura mínima	15.2
104712	7	Sololá	701	Sololá	4	Finca Santa Victoria	5	Mayo	2023-03-05T00:00:00	2024-11-08T02:00:00	5	Humedad	75
104713	7	Sololá	701	Sololá	4	Finca Santa Victoria	5	Mayo	2023-03-05T00:00:00	2024-11-08T02:00:00	6	Velocidad del viento	1.6
104714	7	Sololá	701	Sololá	4	Finca Santa Victoria	5	Mayo	2023-03-05T00:00:00	2024-11-08T02:00:00	7	Dirección del viento	1.61
104715	7	Sololá	701	Sololá	4	Finca Santa Victoria	5	Mayo	2023-03-05T00:00:00	2024-11-08T02:00:00	1	Precipitación	0
104716	7	Sololá	701	Sololá	4	Finca Santa Victoria	5	Mayo	2023-03-05T00:00:00	2024-11-08T02:00:00	8	Radiación solar	0
104717	7	Sololá	701	Sololá	4	Finca Santa Victoria	5	Mayo	2023-03-05T00:00:00	2024-11-08T03:00:00	2	Temperatura media	14.4
104718	7	Sololá	701	Sololá	4	Finca Santa Victoria	5	Mayo	2023-03-05T00:00:00	2024-11-08T03:00:00	4	Temperatura máxima	15.9
104719	7	Sololá	701	Sololá	4	Finca Santa Victoria	5	Mayo	2023-03-05T00:00:00	2024-11-08T03:00:00	3	Temperatura mínima	14.4
104720	7	Sololá	701	Sololá	4	Finca Santa Victoria	5	Mayo	2023-03-05T00:00:00	2024-11-08T03:00:00	5	Humedad	81
104721	7	Sololá	701	Sololá	4	Finca Santa Victoria	5	Mayo	2023-03-05T00:00:00	2024-11-08T03:00:00	6	Velocidad del viento	1.6
104722	7	Sololá	701	Sololá	4	Finca Santa Victoria	5	Mayo	2023-03-05T00:00:00	2024-11-08T03:00:00	7	Dirección del viento	1.61
104723	7	Sololá	701	Sololá	4	Finca Santa Victoria	5	Mayo	2023-03-05T00:00:00	2024-11-08T03:00:00	1	Precipitación	0
104724	7	Sololá	701	Sololá	4	Finca Santa Victoria	5	Mayo	2023-03-05T00:00:00	2024-11-08T03:00:00	8	Radiación solar	0
104725	7	Sololá	701	Sololá	4	Finca Santa Victoria	5	Mayo	2023-03-05T00:00:00	2024-11-08T04:00:00	2	Temperatura media	13.5
104726	7	Sololá	701	Sololá	4	Finca Santa Victoria	5	Mayo	2023-03-05T00:00:00	2024-11-08T04:00:00	4	Temperatura máxima	14.5
104727	7	Sololá	701	Sololá	4	Finca Santa Victoria	5	Mayo	2023-03-05T00:00:00	2024-11-08T04:00:00	3	Temperatura mínima	13.4
104728	7	Sololá	701	Sololá	4	Finca Santa Victoria	5	Mayo	2023-03-05T00:00:00	2024-11-08T04:00:00	5	Humedad	90
104729	7	Sololá	701	Sololá	4	Finca Santa Victoria	5	Mayo	2023-03-05T00:00:00	2024-11-08T04:00:00	6	Velocidad del viento	1.6
104730	7	Sololá	701	Sololá	4	Finca Santa Victoria	5	Mayo	2023-03-05T00:00:00	2024-11-08T04:00:00	7	Dirección del viento	1.61
104731	7	Sololá	701	Sololá	4	Finca Santa Victoria	5	Mayo	2023-03-05T00:00:00	2024-11-08T04:00:00	1	Precipitación	0
104732	7	Sololá	701	Sololá	4	Finca Santa Victoria	5	Mayo	2023-03-05T00:00:00	2024-11-08T04:00:00	8	Radiación solar	0
104733	7	Sololá	701	Sololá	4	Finca Santa Victoria	5	Mayo	2023-03-05T00:00:00	2024-11-08T05:00:00	2	Temperatura media	13.1
104734	7	Sololá	701	Sololá	4	Finca Santa Victoria	5	Mayo	2023-03-05T00:00:00	2024-11-08T05:00:00	4	Temperatura máxima	13.5
104735	7	Sololá	701	Sololá	4	Finca Santa Victoria	5	Mayo	2023-03-05T00:00:00	2024-11-08T05:00:00	3	Temperatura mínima	12.9
104736	7	Sololá	701	Sololá	4	Finca Santa Victoria	5	Mayo	2023-03-05T00:00:00	2024-11-08T05:00:00	5	Humedad	92
104737	7	Sololá	701	Sololá	4	Finca Santa Victoria	5	Mayo	2023-03-05T00:00:00	2024-11-08T05:00:00	6	Velocidad del viento	1.6
104738	7	Sololá	701	Sololá	4	Finca Santa Victoria	5	Mayo	2023-03-05T00:00:00	2024-11-08T05:00:00	7	Dirección del viento	1.61
104739	7	Sololá	701	Sololá	4	Finca Santa Victoria	5	Mayo	2023-03-05T00:00:00	2024-11-08T05:00:00	1	Precipitación	0
104740	7	Sololá	701	Sololá	4	Finca Santa Victoria	5	Mayo	2023-03-05T00:00:00	2024-11-08T05:00:00	8	Radiación solar	0
104741	7	Sololá	701	Sololá	4	Finca Santa Victoria	5	Mayo	2023-03-05T00:00:00	2024-11-08T06:00:00	2	Temperatura media	13.4
104742	7	Sololá	701	Sololá	4	Finca Santa Victoria	5	Mayo	2023-03-05T00:00:00	2024-11-08T06:00:00	4	Temperatura máxima	13.6
104743	7	Sololá	701	Sololá	4	Finca Santa Victoria	5	Mayo	2023-03-05T00:00:00	2024-11-08T06:00:00	3	Temperatura mínima	13.2
104744	7	Sololá	701	Sololá	4	Finca Santa Victoria	5	Mayo	2023-03-05T00:00:00	2024-11-08T06:00:00	5	Humedad	80
104745	7	Sololá	701	Sololá	4	Finca Santa Victoria	5	Mayo	2023-03-05T00:00:00	2024-11-08T06:00:00	6	Velocidad del viento	1.6
104746	7	Sololá	701	Sololá	4	Finca Santa Victoria	5	Mayo	2023-03-05T00:00:00	2024-11-08T06:00:00	7	Dirección del viento	1.61
104747	7	Sololá	701	Sololá	4	Finca Santa Victoria	5	Mayo	2023-03-05T00:00:00	2024-11-08T06:00:00	1	Precipitación	0
104748	7	Sololá	701	Sololá	4	Finca Santa Victoria	5	Mayo	2023-03-05T00:00:00	2024-11-08T06:00:00	8	Radiación solar	1
104749	7	Sololá	701	Sololá	4	Finca Santa Victoria	5	Mayo	2023-03-05T00:00:00	2024-11-08T07:00:00	2	Temperatura media	14.2
104750	7	Sololá	701	Sololá	4	Finca Santa Victoria	5	Mayo	2023-03-05T00:00:00	2024-11-08T07:00:00	4	Temperatura máxima	14.2
104751	7	Sololá	701	Sololá	4	Finca Santa Victoria	5	Mayo	2023-03-05T00:00:00	2024-11-08T07:00:00	3	Temperatura mínima	13.4
104752	7	Sololá	701	Sololá	4	Finca Santa Victoria	5	Mayo	2023-03-05T00:00:00	2024-11-08T07:00:00	5	Humedad	75
104753	7	Sololá	701	Sololá	4	Finca Santa Victoria	5	Mayo	2023-03-05T00:00:00	2024-11-08T07:00:00	6	Velocidad del viento	1.6
104754	7	Sololá	701	Sololá	4	Finca Santa Victoria	5	Mayo	2023-03-05T00:00:00	2024-11-08T07:00:00	7	Dirección del viento	1.61
104755	7	Sololá	701	Sololá	4	Finca Santa Victoria	5	Mayo	2023-03-05T00:00:00	2024-11-08T07:00:00	1	Precipitación	0
104756	7	Sololá	701	Sololá	4	Finca Santa Victoria	5	Mayo	2023-03-05T00:00:00	2024-11-08T07:00:00	8	Radiación solar	35
104757	7	Sololá	701	Sololá	4	Finca Santa Victoria	5	Mayo	2023-03-05T00:00:00	2024-11-08T08:00:00	2	Temperatura media	18
104758	7	Sololá	701	Sololá	4	Finca Santa Victoria	5	Mayo	2023-03-05T00:00:00	2024-11-08T08:00:00	4	Temperatura máxima	18
104759	7	Sololá	701	Sololá	4	Finca Santa Victoria	5	Mayo	2023-03-05T00:00:00	2024-11-08T08:00:00	3	Temperatura mínima	14.2
104760	7	Sololá	701	Sololá	4	Finca Santa Victoria	5	Mayo	2023-03-05T00:00:00	2024-11-08T08:00:00	5	Humedad	62
104761	7	Sololá	701	Sololá	4	Finca Santa Victoria	5	Mayo	2023-03-05T00:00:00	2024-11-08T08:00:00	6	Velocidad del viento	1.6
104762	7	Sololá	701	Sololá	4	Finca Santa Victoria	5	Mayo	2023-03-05T00:00:00	2024-11-08T08:00:00	7	Dirección del viento	1.61
104763	7	Sololá	701	Sololá	4	Finca Santa Victoria	5	Mayo	2023-03-05T00:00:00	2024-11-08T08:00:00	1	Precipitación	0
104764	7	Sololá	701	Sololá	4	Finca Santa Victoria	5	Mayo	2023-03-05T00:00:00	2024-11-08T08:00:00	8	Radiación solar	267
104765	7	Sololá	701	Sololá	4	Finca Santa Victoria	5	Mayo	2023-03-05T00:00:00	2024-11-08T09:00:00	2	Temperatura media	18.2
104766	7	Sololá	701	Sololá	4	Finca Santa Victoria	5	Mayo	2023-03-05T00:00:00	2024-11-08T09:00:00	4	Temperatura máxima	18.7
104767	7	Sololá	701	Sololá	4	Finca Santa Victoria	5	Mayo	2023-03-05T00:00:00	2024-11-08T09:00:00	3	Temperatura mínima	18
104768	7	Sololá	701	Sololá	4	Finca Santa Victoria	5	Mayo	2023-03-05T00:00:00	2024-11-08T09:00:00	5	Humedad	65
104769	7	Sololá	701	Sololá	4	Finca Santa Victoria	5	Mayo	2023-03-05T00:00:00	2024-11-08T09:00:00	6	Velocidad del viento	1.6
104770	7	Sololá	701	Sololá	4	Finca Santa Victoria	5	Mayo	2023-03-05T00:00:00	2024-11-08T09:00:00	7	Dirección del viento	1.61
104771	7	Sololá	701	Sololá	4	Finca Santa Victoria	5	Mayo	2023-03-05T00:00:00	2024-11-08T09:00:00	1	Precipitación	0
104772	7	Sololá	701	Sololá	4	Finca Santa Victoria	5	Mayo	2023-03-05T00:00:00	2024-11-08T09:00:00	8	Radiación solar	415
104773	7	Sololá	701	Sololá	4	Finca Santa Victoria	5	Mayo	2023-03-05T00:00:00	2024-11-08T10:00:00	2	Temperatura media	20.1
104774	7	Sololá	701	Sololá	4	Finca Santa Victoria	5	Mayo	2023-03-05T00:00:00	2024-11-08T10:00:00	4	Temperatura máxima	20.2
104775	7	Sololá	701	Sololá	4	Finca Santa Victoria	5	Mayo	2023-03-05T00:00:00	2024-11-08T10:00:00	3	Temperatura mínima	18.2
104776	7	Sololá	701	Sololá	4	Finca Santa Victoria	5	Mayo	2023-03-05T00:00:00	2024-11-08T10:00:00	5	Humedad	67
104777	7	Sololá	701	Sololá	4	Finca Santa Victoria	5	Mayo	2023-03-05T00:00:00	2024-11-08T10:00:00	6	Velocidad del viento	3.2
104778	7	Sololá	701	Sololá	4	Finca Santa Victoria	5	Mayo	2023-03-05T00:00:00	2024-11-08T10:00:00	7	Dirección del viento	3.22
104779	7	Sololá	701	Sololá	4	Finca Santa Victoria	5	Mayo	2023-03-05T00:00:00	2024-11-08T10:00:00	1	Precipitación	0
104780	7	Sololá	701	Sololá	4	Finca Santa Victoria	5	Mayo	2023-03-05T00:00:00	2024-11-08T10:00:00	8	Radiación solar	215
104781	7	Sololá	701	Sololá	4	Finca Santa Victoria	5	Mayo	2023-03-05T00:00:00	2024-11-08T11:00:00	2	Temperatura media	22.9
104782	7	Sololá	701	Sololá	4	Finca Santa Victoria	5	Mayo	2023-03-05T00:00:00	2024-11-08T11:00:00	4	Temperatura máxima	22.9
104783	7	Sololá	701	Sololá	4	Finca Santa Victoria	5	Mayo	2023-03-05T00:00:00	2024-11-08T11:00:00	3	Temperatura mínima	20.1
104784	7	Sololá	701	Sololá	4	Finca Santa Victoria	5	Mayo	2023-03-05T00:00:00	2024-11-08T11:00:00	5	Humedad	57
104785	7	Sololá	701	Sololá	4	Finca Santa Victoria	5	Mayo	2023-03-05T00:00:00	2024-11-08T11:00:00	6	Velocidad del viento	3.2
104786	7	Sololá	701	Sololá	4	Finca Santa Victoria	5	Mayo	2023-03-05T00:00:00	2024-11-08T11:00:00	7	Dirección del viento	3.22
104787	7	Sololá	701	Sololá	4	Finca Santa Victoria	5	Mayo	2023-03-05T00:00:00	2024-11-08T11:00:00	1	Precipitación	0
104788	7	Sololá	701	Sololá	4	Finca Santa Victoria	5	Mayo	2023-03-05T00:00:00	2024-11-08T11:00:00	8	Radiación solar	805
104789	7	Sololá	701	Sololá	4	Finca Santa Victoria	5	Mayo	2023-03-05T00:00:00	2024-11-08T12:00:00	2	Temperatura media	20.6
104790	7	Sololá	701	Sololá	4	Finca Santa Victoria	5	Mayo	2023-03-05T00:00:00	2024-11-08T12:00:00	4	Temperatura máxima	23.3
104791	7	Sololá	701	Sololá	4	Finca Santa Victoria	5	Mayo	2023-03-05T00:00:00	2024-11-08T12:00:00	3	Temperatura mínima	20.6
104792	7	Sololá	701	Sololá	4	Finca Santa Victoria	5	Mayo	2023-03-05T00:00:00	2024-11-08T12:00:00	5	Humedad	76
104793	7	Sololá	701	Sololá	4	Finca Santa Victoria	5	Mayo	2023-03-05T00:00:00	2024-11-08T12:00:00	6	Velocidad del viento	3.2
104794	7	Sololá	701	Sololá	4	Finca Santa Victoria	5	Mayo	2023-03-05T00:00:00	2024-11-08T12:00:00	7	Dirección del viento	3.22
104795	7	Sololá	701	Sololá	4	Finca Santa Victoria	5	Mayo	2023-03-05T00:00:00	2024-11-08T12:00:00	1	Precipitación	0
104796	7	Sololá	701	Sololá	4	Finca Santa Victoria	5	Mayo	2023-03-05T00:00:00	2024-11-08T12:00:00	8	Radiación solar	964
104797	7	Sololá	701	Sololá	4	Finca Santa Victoria	5	Mayo	2023-03-05T00:00:00	2024-11-08T13:00:00	2	Temperatura media	20.8
104798	7	Sololá	701	Sololá	4	Finca Santa Victoria	5	Mayo	2023-03-05T00:00:00	2024-11-08T13:00:00	4	Temperatura máxima	21.3
104799	7	Sololá	701	Sololá	4	Finca Santa Victoria	5	Mayo	2023-03-05T00:00:00	2024-11-08T13:00:00	3	Temperatura mínima	20.1
104800	7	Sololá	701	Sololá	4	Finca Santa Victoria	5	Mayo	2023-03-05T00:00:00	2024-11-08T13:00:00	5	Humedad	78
104801	7	Sololá	701	Sololá	4	Finca Santa Victoria	5	Mayo	2023-03-05T00:00:00	2024-11-08T13:00:00	6	Velocidad del viento	4.8
104802	7	Sololá	701	Sololá	4	Finca Santa Victoria	5	Mayo	2023-03-05T00:00:00	2024-11-08T13:00:00	7	Dirección del viento	4.83
104803	7	Sololá	701	Sololá	4	Finca Santa Victoria	5	Mayo	2023-03-05T00:00:00	2024-11-08T13:00:00	1	Precipitación	0
104804	7	Sololá	701	Sololá	4	Finca Santa Victoria	5	Mayo	2023-03-05T00:00:00	2024-11-08T13:00:00	8	Radiación solar	970
104805	7	Sololá	701	Sololá	4	Finca Santa Victoria	5	Mayo	2023-03-05T00:00:00	2024-11-08T14:00:00	2	Temperatura media	20.9
104806	7	Sololá	701	Sololá	4	Finca Santa Victoria	5	Mayo	2023-03-05T00:00:00	2024-11-08T14:00:00	4	Temperatura máxima	21
104807	7	Sololá	701	Sololá	4	Finca Santa Victoria	5	Mayo	2023-03-05T00:00:00	2024-11-08T14:00:00	3	Temperatura mínima	19.8
104808	7	Sololá	701	Sololá	4	Finca Santa Victoria	5	Mayo	2023-03-05T00:00:00	2024-11-08T14:00:00	5	Humedad	78
104809	7	Sololá	701	Sololá	4	Finca Santa Victoria	5	Mayo	2023-03-05T00:00:00	2024-11-08T14:00:00	6	Velocidad del viento	4.8
104810	7	Sololá	701	Sololá	4	Finca Santa Victoria	5	Mayo	2023-03-05T00:00:00	2024-11-08T14:00:00	7	Dirección del viento	4.83
104811	7	Sololá	701	Sololá	4	Finca Santa Victoria	5	Mayo	2023-03-05T00:00:00	2024-11-08T14:00:00	1	Precipitación	0
104812	7	Sololá	701	Sololá	4	Finca Santa Victoria	5	Mayo	2023-03-05T00:00:00	2024-11-08T14:00:00	8	Radiación solar	278
104813	7	Sololá	701	Sololá	4	Finca Santa Victoria	5	Mayo	2023-03-05T00:00:00	2024-11-08T15:00:00	2	Temperatura media	19.3
104814	7	Sololá	701	Sololá	4	Finca Santa Victoria	5	Mayo	2023-03-05T00:00:00	2024-11-08T15:00:00	4	Temperatura máxima	20.9
104815	7	Sololá	701	Sololá	4	Finca Santa Victoria	5	Mayo	2023-03-05T00:00:00	2024-11-08T15:00:00	3	Temperatura mínima	19.3
104816	7	Sololá	701	Sololá	4	Finca Santa Victoria	5	Mayo	2023-03-05T00:00:00	2024-11-08T15:00:00	5	Humedad	84
104817	7	Sololá	701	Sololá	4	Finca Santa Victoria	5	Mayo	2023-03-05T00:00:00	2024-11-08T15:00:00	6	Velocidad del viento	4.8
104818	7	Sololá	701	Sololá	4	Finca Santa Victoria	5	Mayo	2023-03-05T00:00:00	2024-11-08T15:00:00	7	Dirección del viento	4.83
104819	7	Sololá	701	Sololá	4	Finca Santa Victoria	5	Mayo	2023-03-05T00:00:00	2024-11-08T15:00:00	1	Precipitación	0
104820	7	Sololá	701	Sololá	4	Finca Santa Victoria	5	Mayo	2023-03-05T00:00:00	2024-11-08T15:00:00	8	Radiación solar	282
104821	7	Sololá	701	Sololá	4	Finca Santa Victoria	5	Mayo	2023-03-05T00:00:00	2024-11-08T16:00:00	2	Temperatura media	17.5
104822	7	Sololá	701	Sololá	4	Finca Santa Victoria	5	Mayo	2023-03-05T00:00:00	2024-11-08T16:00:00	4	Temperatura máxima	19.3
104823	7	Sololá	701	Sololá	4	Finca Santa Victoria	5	Mayo	2023-03-05T00:00:00	2024-11-08T16:00:00	3	Temperatura mínima	17.4
104824	7	Sololá	701	Sololá	4	Finca Santa Victoria	5	Mayo	2023-03-05T00:00:00	2024-11-08T16:00:00	5	Humedad	94
104825	7	Sololá	701	Sololá	4	Finca Santa Victoria	5	Mayo	2023-03-05T00:00:00	2024-11-08T16:00:00	6	Velocidad del viento	1.6
104826	7	Sololá	701	Sololá	4	Finca Santa Victoria	5	Mayo	2023-03-05T00:00:00	2024-11-08T16:00:00	7	Dirección del viento	1.61
104827	7	Sololá	701	Sololá	4	Finca Santa Victoria	5	Mayo	2023-03-05T00:00:00	2024-11-08T16:00:00	1	Precipitación	0
104828	7	Sololá	701	Sololá	4	Finca Santa Victoria	5	Mayo	2023-03-05T00:00:00	2024-11-08T16:00:00	8	Radiación solar	75
104829	7	Sololá	701	Sololá	4	Finca Santa Victoria	5	Mayo	2023-03-05T00:00:00	2024-11-08T17:00:00	2	Temperatura media	19.7
104830	7	Sololá	701	Sololá	4	Finca Santa Victoria	5	Mayo	2023-03-05T00:00:00	2024-11-08T17:00:00	4	Temperatura máxima	19.7
104831	7	Sololá	701	Sololá	4	Finca Santa Victoria	5	Mayo	2023-03-05T00:00:00	2024-11-08T17:00:00	3	Temperatura mínima	17.5
104832	7	Sololá	701	Sololá	4	Finca Santa Victoria	5	Mayo	2023-03-05T00:00:00	2024-11-08T17:00:00	5	Humedad	68
104833	7	Sololá	701	Sololá	4	Finca Santa Victoria	5	Mayo	2023-03-05T00:00:00	2024-11-08T17:00:00	6	Velocidad del viento	1.6
104834	7	Sololá	701	Sololá	4	Finca Santa Victoria	5	Mayo	2023-03-05T00:00:00	2024-11-08T17:00:00	7	Dirección del viento	1.61
104835	7	Sololá	701	Sololá	4	Finca Santa Victoria	5	Mayo	2023-03-05T00:00:00	2024-11-08T17:00:00	1	Precipitación	0
104836	7	Sololá	701	Sololá	4	Finca Santa Victoria	5	Mayo	2023-03-05T00:00:00	2024-11-08T17:00:00	8	Radiación solar	105
104837	7	Sololá	701	Sololá	4	Finca Santa Victoria	5	Mayo	2023-03-05T00:00:00	2024-11-08T18:00:00	2	Temperatura media	17.8
104838	7	Sololá	701	Sololá	4	Finca Santa Victoria	5	Mayo	2023-03-05T00:00:00	2024-11-08T18:00:00	4	Temperatura máxima	19.7
104839	7	Sololá	701	Sololá	4	Finca Santa Victoria	5	Mayo	2023-03-05T00:00:00	2024-11-08T18:00:00	3	Temperatura mínima	17.8
104840	7	Sololá	701	Sololá	4	Finca Santa Victoria	5	Mayo	2023-03-05T00:00:00	2024-11-08T18:00:00	5	Humedad	74
104841	7	Sololá	701	Sololá	4	Finca Santa Victoria	5	Mayo	2023-03-05T00:00:00	2024-11-08T18:00:00	6	Velocidad del viento	3.2
104842	7	Sololá	701	Sololá	4	Finca Santa Victoria	5	Mayo	2023-03-05T00:00:00	2024-11-08T18:00:00	7	Dirección del viento	3.22
104843	7	Sololá	701	Sololá	4	Finca Santa Victoria	5	Mayo	2023-03-05T00:00:00	2024-11-08T18:00:00	1	Precipitación	0
104844	7	Sololá	701	Sololá	4	Finca Santa Victoria	5	Mayo	2023-03-05T00:00:00	2024-11-08T18:00:00	8	Radiación solar	40
104845	7	Sololá	701	Sololá	4	Finca Santa Victoria	5	Mayo	2023-03-05T00:00:00	2024-11-08T19:00:00	2	Temperatura media	17.3
104846	7	Sololá	701	Sololá	4	Finca Santa Victoria	5	Mayo	2023-03-05T00:00:00	2024-11-08T19:00:00	4	Temperatura máxima	17.8
104847	7	Sololá	701	Sololá	4	Finca Santa Victoria	5	Mayo	2023-03-05T00:00:00	2024-11-08T19:00:00	3	Temperatura mínima	17.1
104848	7	Sololá	701	Sololá	4	Finca Santa Victoria	5	Mayo	2023-03-05T00:00:00	2024-11-08T19:00:00	5	Humedad	74
104849	7	Sololá	701	Sololá	4	Finca Santa Victoria	5	Mayo	2023-03-05T00:00:00	2024-11-08T19:00:00	6	Velocidad del viento	1.6
104850	7	Sololá	701	Sololá	4	Finca Santa Victoria	5	Mayo	2023-03-05T00:00:00	2024-11-08T19:00:00	7	Dirección del viento	1.61
104851	7	Sololá	701	Sololá	4	Finca Santa Victoria	5	Mayo	2023-03-05T00:00:00	2024-11-08T19:00:00	1	Precipitación	0
104852	7	Sololá	701	Sololá	4	Finca Santa Victoria	5	Mayo	2023-03-05T00:00:00	2024-11-08T19:00:00	8	Radiación solar	0
104853	7	Sololá	701	Sololá	4	Finca Santa Victoria	5	Mayo	2023-03-05T00:00:00	2024-11-08T20:00:00	2	Temperatura media	16.7
104854	7	Sololá	701	Sololá	4	Finca Santa Victoria	5	Mayo	2023-03-05T00:00:00	2024-11-08T20:00:00	4	Temperatura máxima	17.3
104855	7	Sololá	701	Sololá	4	Finca Santa Victoria	5	Mayo	2023-03-05T00:00:00	2024-11-08T20:00:00	3	Temperatura mínima	16.7
104856	7	Sololá	701	Sololá	4	Finca Santa Victoria	5	Mayo	2023-03-05T00:00:00	2024-11-08T20:00:00	5	Humedad	79
104857	7	Sololá	701	Sololá	4	Finca Santa Victoria	5	Mayo	2023-03-05T00:00:00	2024-11-08T20:00:00	6	Velocidad del viento	3.2
104858	7	Sololá	701	Sololá	4	Finca Santa Victoria	5	Mayo	2023-03-05T00:00:00	2024-11-08T20:00:00	7	Dirección del viento	3.22
104859	7	Sololá	701	Sololá	4	Finca Santa Victoria	5	Mayo	2023-03-05T00:00:00	2024-11-08T20:00:00	1	Precipitación	0
104860	7	Sololá	701	Sololá	4	Finca Santa Victoria	5	Mayo	2023-03-05T00:00:00	2024-11-08T20:00:00	8	Radiación solar	0
104861	7	Sololá	701	Sololá	4	Finca Santa Victoria	5	Mayo	2023-03-05T00:00:00	2024-11-08T21:00:00	2	Temperatura media	15.9
104862	7	Sololá	701	Sololá	4	Finca Santa Victoria	5	Mayo	2023-03-05T00:00:00	2024-11-08T21:00:00	4	Temperatura máxima	16.7
104863	7	Sololá	701	Sololá	4	Finca Santa Victoria	5	Mayo	2023-03-05T00:00:00	2024-11-08T21:00:00	3	Temperatura mínima	15.9
104864	7	Sololá	701	Sololá	4	Finca Santa Victoria	5	Mayo	2023-03-05T00:00:00	2024-11-08T21:00:00	5	Humedad	82
104865	7	Sololá	701	Sololá	4	Finca Santa Victoria	5	Mayo	2023-03-05T00:00:00	2024-11-08T21:00:00	6	Velocidad del viento	1.6
104866	7	Sololá	701	Sololá	4	Finca Santa Victoria	5	Mayo	2023-03-05T00:00:00	2024-11-08T21:00:00	7	Dirección del viento	1.61
104867	7	Sololá	701	Sololá	4	Finca Santa Victoria	5	Mayo	2023-03-05T00:00:00	2024-11-08T21:00:00	1	Precipitación	0
104868	7	Sololá	701	Sololá	4	Finca Santa Victoria	5	Mayo	2023-03-05T00:00:00	2024-11-08T21:00:00	8	Radiación solar	0
104869	7	Sololá	701	Sololá	4	Finca Santa Victoria	5	Mayo	2023-03-05T00:00:00	2024-11-08T22:00:00	2	Temperatura media	14.9
104870	7	Sololá	701	Sololá	4	Finca Santa Victoria	5	Mayo	2023-03-05T00:00:00	2024-11-08T22:00:00	4	Temperatura máxima	15.9
104871	7	Sololá	701	Sololá	4	Finca Santa Victoria	5	Mayo	2023-03-05T00:00:00	2024-11-08T22:00:00	3	Temperatura mínima	14.9
104872	7	Sololá	701	Sololá	4	Finca Santa Victoria	5	Mayo	2023-03-05T00:00:00	2024-11-08T22:00:00	5	Humedad	84
104873	7	Sololá	701	Sololá	4	Finca Santa Victoria	5	Mayo	2023-03-05T00:00:00	2024-11-08T22:00:00	6	Velocidad del viento	1.6
104874	7	Sololá	701	Sololá	4	Finca Santa Victoria	5	Mayo	2023-03-05T00:00:00	2024-11-08T22:00:00	7	Dirección del viento	1.61
104875	7	Sololá	701	Sololá	4	Finca Santa Victoria	5	Mayo	2023-03-05T00:00:00	2024-11-08T22:00:00	1	Precipitación	0
104876	7	Sololá	701	Sololá	4	Finca Santa Victoria	5	Mayo	2023-03-05T00:00:00	2024-11-08T22:00:00	8	Radiación solar	0
104877	7	Sololá	701	Sololá	4	Finca Santa Victoria	5	Mayo	2023-03-05T00:00:00	2024-11-08T23:00:00	2	Temperatura media	14.8
104878	7	Sololá	701	Sololá	4	Finca Santa Victoria	5	Mayo	2023-03-05T00:00:00	2024-11-08T23:00:00	4	Temperatura máxima	15.2
104879	7	Sololá	701	Sololá	4	Finca Santa Victoria	5	Mayo	2023-03-05T00:00:00	2024-11-08T23:00:00	3	Temperatura mínima	14.8
104880	7	Sololá	701	Sololá	4	Finca Santa Victoria	5	Mayo	2023-03-05T00:00:00	2024-11-08T23:00:00	5	Humedad	85
104881	7	Sololá	701	Sololá	4	Finca Santa Victoria	5	Mayo	2023-03-05T00:00:00	2024-11-08T23:00:00	6	Velocidad del viento	1.6
104882	7	Sololá	701	Sololá	4	Finca Santa Victoria	5	Mayo	2023-03-05T00:00:00	2024-11-08T23:00:00	7	Dirección del viento	1.61
104883	7	Sololá	701	Sololá	4	Finca Santa Victoria	5	Mayo	2023-03-05T00:00:00	2024-11-08T23:00:00	1	Precipitación	0
104884	7	Sololá	701	Sololá	4	Finca Santa Victoria	5	Mayo	2023-03-05T00:00:00	2024-11-08T23:00:00	8	Radiación solar	0
104885	7	Sololá	701	Sololá	4	Finca Santa Victoria	5	Mayo	2023-04-05T00:00:00	2024-11-08T00:00:00	2	Temperatura media	14.5
104886	7	Sololá	701	Sololá	4	Finca Santa Victoria	5	Mayo	2023-04-05T00:00:00	2024-11-08T00:00:00	4	Temperatura máxima	14.8
104887	7	Sololá	701	Sololá	4	Finca Santa Victoria	5	Mayo	2023-04-05T00:00:00	2024-11-08T00:00:00	3	Temperatura mínima	14.3
104888	7	Sololá	701	Sololá	4	Finca Santa Victoria	5	Mayo	2023-04-05T00:00:00	2024-11-08T00:00:00	5	Humedad	85
104889	7	Sololá	701	Sololá	4	Finca Santa Victoria	5	Mayo	2023-04-05T00:00:00	2024-11-08T00:00:00	6	Velocidad del viento	0
104890	7	Sololá	701	Sololá	4	Finca Santa Victoria	5	Mayo	2023-04-05T00:00:00	2024-11-08T00:00:00	7	Dirección del viento	0
104891	7	Sololá	701	Sololá	4	Finca Santa Victoria	5	Mayo	2023-04-05T00:00:00	2024-11-08T00:00:00	1	Precipitación	0
104892	7	Sololá	701	Sololá	4	Finca Santa Victoria	5	Mayo	2023-04-05T00:00:00	2024-11-08T00:00:00	8	Radiación solar	0
104893	7	Sololá	701	Sololá	4	Finca Santa Victoria	5	Mayo	2023-04-05T00:00:00	2024-11-08T01:00:00	2	Temperatura media	14.6
104894	7	Sololá	701	Sololá	4	Finca Santa Victoria	5	Mayo	2023-04-05T00:00:00	2024-11-08T01:00:00	4	Temperatura máxima	14.6
104895	7	Sololá	701	Sololá	4	Finca Santa Victoria	5	Mayo	2023-04-05T00:00:00	2024-11-08T01:00:00	3	Temperatura mínima	14.2
104896	7	Sololá	701	Sololá	4	Finca Santa Victoria	5	Mayo	2023-04-05T00:00:00	2024-11-08T01:00:00	5	Humedad	85
104897	7	Sololá	701	Sololá	4	Finca Santa Victoria	5	Mayo	2023-04-05T00:00:00	2024-11-08T01:00:00	6	Velocidad del viento	1.6
104898	7	Sololá	701	Sololá	4	Finca Santa Victoria	5	Mayo	2023-04-05T00:00:00	2024-11-08T01:00:00	7	Dirección del viento	1.61
104899	7	Sololá	701	Sololá	4	Finca Santa Victoria	5	Mayo	2023-04-05T00:00:00	2024-11-08T01:00:00	1	Precipitación	0
104900	7	Sololá	701	Sololá	4	Finca Santa Victoria	5	Mayo	2023-04-05T00:00:00	2024-11-08T01:00:00	8	Radiación solar	0
104901	7	Sololá	701	Sololá	4	Finca Santa Victoria	5	Mayo	2023-04-05T00:00:00	2024-11-08T02:00:00	2	Temperatura media	14.6
104902	7	Sololá	701	Sololá	4	Finca Santa Victoria	5	Mayo	2023-04-05T00:00:00	2024-11-08T02:00:00	4	Temperatura máxima	14.8
104903	7	Sololá	701	Sololá	4	Finca Santa Victoria	5	Mayo	2023-04-05T00:00:00	2024-11-08T02:00:00	3	Temperatura mínima	14.3
104904	7	Sololá	701	Sololá	4	Finca Santa Victoria	5	Mayo	2023-04-05T00:00:00	2024-11-08T02:00:00	5	Humedad	84
104905	7	Sololá	701	Sololá	4	Finca Santa Victoria	5	Mayo	2023-04-05T00:00:00	2024-11-08T02:00:00	6	Velocidad del viento	1.6
104906	7	Sololá	701	Sololá	4	Finca Santa Victoria	5	Mayo	2023-04-05T00:00:00	2024-11-08T02:00:00	7	Dirección del viento	1.61
104907	7	Sololá	701	Sololá	4	Finca Santa Victoria	5	Mayo	2023-04-05T00:00:00	2024-11-08T02:00:00	1	Precipitación	0
104908	7	Sololá	701	Sololá	4	Finca Santa Victoria	5	Mayo	2023-04-05T00:00:00	2024-11-08T02:00:00	8	Radiación solar	0
104909	7	Sololá	701	Sololá	4	Finca Santa Victoria	5	Mayo	2023-04-05T00:00:00	2024-11-08T03:00:00	2	Temperatura media	14.2
104910	7	Sololá	701	Sololá	4	Finca Santa Victoria	5	Mayo	2023-04-05T00:00:00	2024-11-08T03:00:00	4	Temperatura máxima	14.6
104911	7	Sololá	701	Sololá	4	Finca Santa Victoria	5	Mayo	2023-04-05T00:00:00	2024-11-08T03:00:00	3	Temperatura mínima	14.2
104912	7	Sololá	701	Sololá	4	Finca Santa Victoria	5	Mayo	2023-04-05T00:00:00	2024-11-08T03:00:00	5	Humedad	85
104913	7	Sololá	701	Sololá	4	Finca Santa Victoria	5	Mayo	2023-04-05T00:00:00	2024-11-08T03:00:00	6	Velocidad del viento	1.6
104914	7	Sololá	701	Sololá	4	Finca Santa Victoria	5	Mayo	2023-04-05T00:00:00	2024-11-08T03:00:00	7	Dirección del viento	1.61
104915	7	Sololá	701	Sololá	4	Finca Santa Victoria	5	Mayo	2023-04-05T00:00:00	2024-11-08T03:00:00	1	Precipitación	0
104916	7	Sololá	701	Sololá	4	Finca Santa Victoria	5	Mayo	2023-04-05T00:00:00	2024-11-08T03:00:00	8	Radiación solar	0
104917	7	Sololá	701	Sololá	4	Finca Santa Victoria	5	Mayo	2023-04-05T00:00:00	2024-11-08T04:00:00	2	Temperatura media	14.3
104918	7	Sololá	701	Sololá	4	Finca Santa Victoria	5	Mayo	2023-04-05T00:00:00	2024-11-08T04:00:00	4	Temperatura máxima	14.3
104919	7	Sololá	701	Sololá	4	Finca Santa Victoria	5	Mayo	2023-04-05T00:00:00	2024-11-08T04:00:00	3	Temperatura mínima	13.8
104920	7	Sololá	701	Sololá	4	Finca Santa Victoria	5	Mayo	2023-04-05T00:00:00	2024-11-08T04:00:00	5	Humedad	77
104921	7	Sololá	701	Sololá	4	Finca Santa Victoria	5	Mayo	2023-04-05T00:00:00	2024-11-08T04:00:00	6	Velocidad del viento	1.6
104922	7	Sololá	701	Sololá	4	Finca Santa Victoria	5	Mayo	2023-04-05T00:00:00	2024-11-08T04:00:00	7	Dirección del viento	1.61
104923	7	Sololá	701	Sololá	4	Finca Santa Victoria	5	Mayo	2023-04-05T00:00:00	2024-11-08T04:00:00	1	Precipitación	0
104924	7	Sololá	701	Sololá	4	Finca Santa Victoria	5	Mayo	2023-04-05T00:00:00	2024-11-08T04:00:00	8	Radiación solar	0
104925	7	Sololá	701	Sololá	4	Finca Santa Victoria	5	Mayo	2023-04-05T00:00:00	2024-11-08T05:00:00	2	Temperatura media	14.4
104926	7	Sololá	701	Sololá	4	Finca Santa Victoria	5	Mayo	2023-04-05T00:00:00	2024-11-08T05:00:00	4	Temperatura máxima	14.9
104927	7	Sololá	701	Sololá	4	Finca Santa Victoria	5	Mayo	2023-04-05T00:00:00	2024-11-08T05:00:00	3	Temperatura mínima	14.3
104928	7	Sololá	701	Sololá	4	Finca Santa Victoria	5	Mayo	2023-04-05T00:00:00	2024-11-08T05:00:00	5	Humedad	80
104929	7	Sololá	701	Sololá	4	Finca Santa Victoria	5	Mayo	2023-04-05T00:00:00	2024-11-08T05:00:00	6	Velocidad del viento	1.6
104930	7	Sololá	701	Sololá	4	Finca Santa Victoria	5	Mayo	2023-04-05T00:00:00	2024-11-08T05:00:00	7	Dirección del viento	1.61
104931	7	Sololá	701	Sololá	4	Finca Santa Victoria	5	Mayo	2023-04-05T00:00:00	2024-11-08T05:00:00	1	Precipitación	0
104932	7	Sololá	701	Sololá	4	Finca Santa Victoria	5	Mayo	2023-04-05T00:00:00	2024-11-08T05:00:00	8	Radiación solar	0
104933	7	Sololá	701	Sololá	4	Finca Santa Victoria	5	Mayo	2023-04-05T00:00:00	2024-11-08T06:00:00	2	Temperatura media	14.1
104934	7	Sololá	701	Sololá	4	Finca Santa Victoria	5	Mayo	2023-04-05T00:00:00	2024-11-08T06:00:00	4	Temperatura máxima	14.3
104935	7	Sololá	701	Sololá	4	Finca Santa Victoria	5	Mayo	2023-04-05T00:00:00	2024-11-08T06:00:00	3	Temperatura mínima	13.6
104936	7	Sololá	701	Sololá	4	Finca Santa Victoria	5	Mayo	2023-04-05T00:00:00	2024-11-08T06:00:00	5	Humedad	80
104937	7	Sololá	701	Sololá	4	Finca Santa Victoria	5	Mayo	2023-04-05T00:00:00	2024-11-08T06:00:00	6	Velocidad del viento	0
104938	7	Sololá	701	Sololá	4	Finca Santa Victoria	5	Mayo	2023-04-05T00:00:00	2024-11-08T06:00:00	7	Dirección del viento	0
104939	7	Sololá	701	Sololá	4	Finca Santa Victoria	5	Mayo	2023-04-05T00:00:00	2024-11-08T06:00:00	1	Precipitación	0
104940	7	Sololá	701	Sololá	4	Finca Santa Victoria	5	Mayo	2023-04-05T00:00:00	2024-11-08T06:00:00	8	Radiación solar	3
104941	7	Sololá	701	Sololá	4	Finca Santa Victoria	5	Mayo	2023-04-05T00:00:00	2024-11-08T07:00:00	2	Temperatura media	14.7
104942	7	Sololá	701	Sololá	4	Finca Santa Victoria	5	Mayo	2023-04-05T00:00:00	2024-11-08T07:00:00	4	Temperatura máxima	14.8
104943	7	Sololá	701	Sololá	4	Finca Santa Victoria	5	Mayo	2023-04-05T00:00:00	2024-11-08T07:00:00	3	Temperatura mínima	14.1
104944	7	Sololá	701	Sololá	4	Finca Santa Victoria	5	Mayo	2023-04-05T00:00:00	2024-11-08T07:00:00	5	Humedad	79
104945	7	Sololá	701	Sololá	4	Finca Santa Victoria	5	Mayo	2023-04-05T00:00:00	2024-11-08T07:00:00	6	Velocidad del viento	1.6
104946	7	Sololá	701	Sololá	4	Finca Santa Victoria	5	Mayo	2023-04-05T00:00:00	2024-11-08T07:00:00	7	Dirección del viento	1.61
104947	7	Sololá	701	Sololá	4	Finca Santa Victoria	5	Mayo	2023-04-05T00:00:00	2024-11-08T07:00:00	1	Precipitación	0
104948	7	Sololá	701	Sololá	4	Finca Santa Victoria	5	Mayo	2023-04-05T00:00:00	2024-11-08T07:00:00	8	Radiación solar	37
104949	7	Sololá	701	Sololá	4	Finca Santa Victoria	5	Mayo	2023-04-05T00:00:00	2024-11-08T08:00:00	2	Temperatura media	18.3
104950	7	Sololá	701	Sololá	4	Finca Santa Victoria	5	Mayo	2023-04-05T00:00:00	2024-11-08T08:00:00	4	Temperatura máxima	18.3
104951	7	Sololá	701	Sololá	4	Finca Santa Victoria	5	Mayo	2023-04-05T00:00:00	2024-11-08T08:00:00	3	Temperatura mínima	14.7
104952	7	Sololá	701	Sololá	4	Finca Santa Victoria	5	Mayo	2023-04-05T00:00:00	2024-11-08T08:00:00	5	Humedad	71
104953	7	Sololá	701	Sololá	4	Finca Santa Victoria	5	Mayo	2023-04-05T00:00:00	2024-11-08T08:00:00	6	Velocidad del viento	1.6
104954	7	Sololá	701	Sololá	4	Finca Santa Victoria	5	Mayo	2023-04-05T00:00:00	2024-11-08T08:00:00	7	Dirección del viento	1.61
104955	7	Sololá	701	Sololá	4	Finca Santa Victoria	5	Mayo	2023-04-05T00:00:00	2024-11-08T08:00:00	1	Precipitación	0
104956	7	Sololá	701	Sololá	4	Finca Santa Victoria	5	Mayo	2023-04-05T00:00:00	2024-11-08T08:00:00	8	Radiación solar	261
104957	7	Sololá	701	Sololá	4	Finca Santa Victoria	5	Mayo	2023-04-05T00:00:00	2024-11-08T09:00:00	2	Temperatura media	19.9
104958	7	Sololá	701	Sololá	4	Finca Santa Victoria	5	Mayo	2023-04-05T00:00:00	2024-11-08T09:00:00	4	Temperatura máxima	19.9
104959	7	Sololá	701	Sololá	4	Finca Santa Victoria	5	Mayo	2023-04-05T00:00:00	2024-11-08T09:00:00	3	Temperatura mínima	18.3
104960	7	Sololá	701	Sololá	4	Finca Santa Victoria	5	Mayo	2023-04-05T00:00:00	2024-11-08T09:00:00	5	Humedad	67
104961	7	Sololá	701	Sololá	4	Finca Santa Victoria	5	Mayo	2023-04-05T00:00:00	2024-11-08T09:00:00	6	Velocidad del viento	1.6
104962	7	Sololá	701	Sololá	4	Finca Santa Victoria	5	Mayo	2023-04-05T00:00:00	2024-11-08T09:00:00	7	Dirección del viento	1.61
104963	7	Sololá	701	Sololá	4	Finca Santa Victoria	5	Mayo	2023-04-05T00:00:00	2024-11-08T09:00:00	1	Precipitación	0
104964	7	Sololá	701	Sololá	4	Finca Santa Victoria	5	Mayo	2023-04-05T00:00:00	2024-11-08T09:00:00	8	Radiación solar	393
104965	7	Sololá	701	Sololá	4	Finca Santa Victoria	5	Mayo	2023-04-05T00:00:00	2024-11-08T10:00:00	2	Temperatura media	21.6
104966	7	Sololá	701	Sololá	4	Finca Santa Victoria	5	Mayo	2023-04-05T00:00:00	2024-11-08T10:00:00	4	Temperatura máxima	21.6
104967	7	Sololá	701	Sololá	4	Finca Santa Victoria	5	Mayo	2023-04-05T00:00:00	2024-11-08T10:00:00	3	Temperatura mínima	19.9
104968	7	Sololá	701	Sololá	4	Finca Santa Victoria	5	Mayo	2023-04-05T00:00:00	2024-11-08T10:00:00	5	Humedad	64
104969	7	Sololá	701	Sololá	4	Finca Santa Victoria	5	Mayo	2023-04-05T00:00:00	2024-11-08T10:00:00	6	Velocidad del viento	3.2
104970	7	Sololá	701	Sololá	4	Finca Santa Victoria	5	Mayo	2023-04-05T00:00:00	2024-11-08T10:00:00	7	Dirección del viento	3.22
104971	7	Sololá	701	Sololá	4	Finca Santa Victoria	5	Mayo	2023-04-05T00:00:00	2024-11-08T10:00:00	1	Precipitación	0
104972	7	Sololá	701	Sololá	4	Finca Santa Victoria	5	Mayo	2023-04-05T00:00:00	2024-11-08T10:00:00	8	Radiación solar	270
104973	7	Sololá	701	Sololá	4	Finca Santa Victoria	5	Mayo	2023-04-05T00:00:00	2024-11-08T11:00:00	2	Temperatura media	20.9
104974	7	Sololá	701	Sololá	4	Finca Santa Victoria	5	Mayo	2023-04-05T00:00:00	2024-11-08T11:00:00	4	Temperatura máxima	21.6
104975	7	Sololá	701	Sololá	4	Finca Santa Victoria	5	Mayo	2023-04-05T00:00:00	2024-11-08T11:00:00	3	Temperatura mínima	20.2
104976	7	Sololá	701	Sololá	4	Finca Santa Victoria	5	Mayo	2023-04-05T00:00:00	2024-11-08T11:00:00	5	Humedad	66
104977	7	Sololá	701	Sololá	4	Finca Santa Victoria	5	Mayo	2023-04-05T00:00:00	2024-11-08T11:00:00	6	Velocidad del viento	3.2
104978	7	Sololá	701	Sololá	4	Finca Santa Victoria	5	Mayo	2023-04-05T00:00:00	2024-11-08T11:00:00	7	Dirección del viento	3.22
104979	7	Sololá	701	Sololá	4	Finca Santa Victoria	5	Mayo	2023-04-05T00:00:00	2024-11-08T11:00:00	1	Precipitación	0
104980	7	Sololá	701	Sololá	4	Finca Santa Victoria	5	Mayo	2023-04-05T00:00:00	2024-11-08T11:00:00	8	Radiación solar	486
104981	7	Sololá	701	Sololá	4	Finca Santa Victoria	5	Mayo	2023-04-05T00:00:00	2024-11-08T12:00:00	2	Temperatura media	22.4
104982	7	Sololá	701	Sololá	4	Finca Santa Victoria	5	Mayo	2023-04-05T00:00:00	2024-11-08T12:00:00	4	Temperatura máxima	22.8
104983	7	Sololá	701	Sololá	4	Finca Santa Victoria	5	Mayo	2023-04-05T00:00:00	2024-11-08T12:00:00	3	Temperatura mínima	20.9
104984	7	Sololá	701	Sololá	4	Finca Santa Victoria	5	Mayo	2023-04-05T00:00:00	2024-11-08T12:00:00	5	Humedad	55
104985	7	Sololá	701	Sololá	4	Finca Santa Victoria	5	Mayo	2023-04-05T00:00:00	2024-11-08T12:00:00	6	Velocidad del viento	3.2
104986	7	Sololá	701	Sololá	4	Finca Santa Victoria	5	Mayo	2023-04-05T00:00:00	2024-11-08T12:00:00	7	Dirección del viento	3.22
104987	7	Sololá	701	Sololá	4	Finca Santa Victoria	5	Mayo	2023-04-05T00:00:00	2024-11-08T12:00:00	1	Precipitación	0
104988	7	Sololá	701	Sololá	4	Finca Santa Victoria	5	Mayo	2023-04-05T00:00:00	2024-11-08T12:00:00	8	Radiación solar	747
104989	7	Sololá	701	Sololá	4	Finca Santa Victoria	5	Mayo	2023-04-05T00:00:00	2024-11-08T13:00:00	2	Temperatura media	22.9
104990	7	Sololá	701	Sololá	4	Finca Santa Victoria	5	Mayo	2023-04-05T00:00:00	2024-11-08T13:00:00	4	Temperatura máxima	23.2
104991	7	Sololá	701	Sololá	4	Finca Santa Victoria	5	Mayo	2023-04-05T00:00:00	2024-11-08T13:00:00	3	Temperatura mínima	21.7
104992	7	Sololá	701	Sololá	4	Finca Santa Victoria	5	Mayo	2023-04-05T00:00:00	2024-11-08T13:00:00	5	Humedad	55
104993	7	Sololá	701	Sololá	4	Finca Santa Victoria	5	Mayo	2023-04-05T00:00:00	2024-11-08T13:00:00	6	Velocidad del viento	4.8
104994	7	Sololá	701	Sololá	4	Finca Santa Victoria	5	Mayo	2023-04-05T00:00:00	2024-11-08T13:00:00	7	Dirección del viento	4.83
104995	7	Sololá	701	Sololá	4	Finca Santa Victoria	5	Mayo	2023-04-05T00:00:00	2024-11-08T13:00:00	1	Precipitación	0
104996	7	Sololá	701	Sololá	4	Finca Santa Victoria	5	Mayo	2023-04-05T00:00:00	2024-11-08T13:00:00	8	Radiación solar	573
104997	7	Sololá	701	Sololá	4	Finca Santa Victoria	5	Mayo	2023-04-05T00:00:00	2024-11-08T14:00:00	2	Temperatura media	22.7
104998	7	Sololá	701	Sololá	4	Finca Santa Victoria	5	Mayo	2023-04-05T00:00:00	2024-11-08T14:00:00	4	Temperatura máxima	24
104999	7	Sololá	701	Sololá	4	Finca Santa Victoria	5	Mayo	2023-04-05T00:00:00	2024-11-08T14:00:00	3	Temperatura mínima	22.1
105000	7	Sololá	701	Sololá	4	Finca Santa Victoria	5	Mayo	2023-04-05T00:00:00	2024-11-08T14:00:00	5	Humedad	55
105001	7	Sololá	701	Sololá	4	Finca Santa Victoria	5	Mayo	2023-04-05T00:00:00	2024-11-08T14:00:00	6	Velocidad del viento	4.8
105002	7	Sololá	701	Sololá	4	Finca Santa Victoria	5	Mayo	2023-04-05T00:00:00	2024-11-08T14:00:00	7	Dirección del viento	4.83
105003	7	Sololá	701	Sololá	4	Finca Santa Victoria	5	Mayo	2023-04-05T00:00:00	2024-11-08T14:00:00	1	Precipitación	0
105004	7	Sololá	701	Sololá	4	Finca Santa Victoria	5	Mayo	2023-04-05T00:00:00	2024-11-08T14:00:00	8	Radiación solar	249
105005	7	Sololá	701	Sololá	4	Finca Santa Victoria	5	Mayo	2023-04-05T00:00:00	2024-11-08T15:00:00	2	Temperatura media	23.3
105006	7	Sololá	701	Sololá	4	Finca Santa Victoria	5	Mayo	2023-04-05T00:00:00	2024-11-08T15:00:00	4	Temperatura máxima	23.9
105007	7	Sololá	701	Sololá	4	Finca Santa Victoria	5	Mayo	2023-04-05T00:00:00	2024-11-08T15:00:00	3	Temperatura mínima	22.7
105008	7	Sololá	701	Sololá	4	Finca Santa Victoria	5	Mayo	2023-04-05T00:00:00	2024-11-08T15:00:00	5	Humedad	55
105009	7	Sololá	701	Sololá	4	Finca Santa Victoria	5	Mayo	2023-04-05T00:00:00	2024-11-08T15:00:00	6	Velocidad del viento	4.8
105010	7	Sololá	701	Sololá	4	Finca Santa Victoria	5	Mayo	2023-04-05T00:00:00	2024-11-08T15:00:00	7	Dirección del viento	4.83
105011	7	Sololá	701	Sololá	4	Finca Santa Victoria	5	Mayo	2023-04-05T00:00:00	2024-11-08T15:00:00	1	Precipitación	0
105012	7	Sololá	701	Sololá	4	Finca Santa Victoria	5	Mayo	2023-04-05T00:00:00	2024-11-08T15:00:00	8	Radiación solar	316
105013	7	Sololá	701	Sololá	4	Finca Santa Victoria	5	Mayo	2023-04-05T00:00:00	2024-11-08T16:00:00	2	Temperatura media	20.8
105014	7	Sololá	701	Sololá	4	Finca Santa Victoria	5	Mayo	2023-04-05T00:00:00	2024-11-08T16:00:00	4	Temperatura máxima	23.7
105015	7	Sololá	701	Sololá	4	Finca Santa Victoria	5	Mayo	2023-04-05T00:00:00	2024-11-08T16:00:00	3	Temperatura mínima	20.8
105016	7	Sololá	701	Sololá	4	Finca Santa Victoria	5	Mayo	2023-04-05T00:00:00	2024-11-08T16:00:00	5	Humedad	78
105017	7	Sololá	701	Sololá	4	Finca Santa Victoria	5	Mayo	2023-04-05T00:00:00	2024-11-08T16:00:00	6	Velocidad del viento	4.8
105018	7	Sololá	701	Sololá	4	Finca Santa Victoria	5	Mayo	2023-04-05T00:00:00	2024-11-08T16:00:00	7	Dirección del viento	4.83
105019	7	Sololá	701	Sololá	4	Finca Santa Victoria	5	Mayo	2023-04-05T00:00:00	2024-11-08T16:00:00	1	Precipitación	0
105020	7	Sololá	701	Sololá	4	Finca Santa Victoria	5	Mayo	2023-04-05T00:00:00	2024-11-08T16:00:00	8	Radiación solar	178
105021	7	Sololá	701	Sololá	4	Finca Santa Victoria	5	Mayo	2023-04-05T00:00:00	2024-11-08T17:00:00	2	Temperatura media	17.9
105022	7	Sololá	701	Sololá	4	Finca Santa Victoria	5	Mayo	2023-04-05T00:00:00	2024-11-08T17:00:00	4	Temperatura máxima	20.8
105023	7	Sololá	701	Sololá	4	Finca Santa Victoria	5	Mayo	2023-04-05T00:00:00	2024-11-08T17:00:00	3	Temperatura mínima	17.9
105024	7	Sololá	701	Sololá	4	Finca Santa Victoria	5	Mayo	2023-04-05T00:00:00	2024-11-08T17:00:00	5	Humedad	91
105025	7	Sololá	701	Sololá	4	Finca Santa Victoria	5	Mayo	2023-04-05T00:00:00	2024-11-08T17:00:00	6	Velocidad del viento	3.2
105026	7	Sololá	701	Sololá	4	Finca Santa Victoria	5	Mayo	2023-04-05T00:00:00	2024-11-08T17:00:00	7	Dirección del viento	3.22
105027	7	Sololá	701	Sololá	4	Finca Santa Victoria	5	Mayo	2023-04-05T00:00:00	2024-11-08T17:00:00	1	Precipitación	0
105028	7	Sololá	701	Sololá	4	Finca Santa Victoria	5	Mayo	2023-04-05T00:00:00	2024-11-08T17:00:00	8	Radiación solar	112
105029	7	Sololá	701	Sololá	4	Finca Santa Victoria	5	Mayo	2023-04-05T00:00:00	2024-11-08T18:00:00	2	Temperatura media	17.5
105030	7	Sololá	701	Sololá	4	Finca Santa Victoria	5	Mayo	2023-04-05T00:00:00	2024-11-08T18:00:00	4	Temperatura máxima	17.9
105031	7	Sololá	701	Sololá	4	Finca Santa Victoria	5	Mayo	2023-04-05T00:00:00	2024-11-08T18:00:00	3	Temperatura mínima	17.2
105032	7	Sololá	701	Sololá	4	Finca Santa Victoria	5	Mayo	2023-04-05T00:00:00	2024-11-08T18:00:00	5	Humedad	90
105033	7	Sololá	701	Sololá	4	Finca Santa Victoria	5	Mayo	2023-04-05T00:00:00	2024-11-08T18:00:00	6	Velocidad del viento	1.6
105034	7	Sololá	701	Sololá	4	Finca Santa Victoria	5	Mayo	2023-04-05T00:00:00	2024-11-08T18:00:00	7	Dirección del viento	1.61
105035	7	Sololá	701	Sololá	4	Finca Santa Victoria	5	Mayo	2023-04-05T00:00:00	2024-11-08T18:00:00	1	Precipitación	0
105036	7	Sololá	701	Sololá	4	Finca Santa Victoria	5	Mayo	2023-04-05T00:00:00	2024-11-08T18:00:00	8	Radiación solar	25
105037	7	Sololá	701	Sololá	4	Finca Santa Victoria	5	Mayo	2023-04-05T00:00:00	2024-11-08T19:00:00	2	Temperatura media	17
105038	7	Sololá	701	Sololá	4	Finca Santa Victoria	5	Mayo	2023-04-05T00:00:00	2024-11-08T19:00:00	4	Temperatura máxima	17.4
105039	7	Sololá	701	Sololá	4	Finca Santa Victoria	5	Mayo	2023-04-05T00:00:00	2024-11-08T19:00:00	3	Temperatura mínima	16.6
105040	7	Sololá	701	Sololá	4	Finca Santa Victoria	5	Mayo	2023-04-05T00:00:00	2024-11-08T19:00:00	5	Humedad	81
105041	7	Sololá	701	Sololá	4	Finca Santa Victoria	5	Mayo	2023-04-05T00:00:00	2024-11-08T19:00:00	6	Velocidad del viento	1.6
105042	7	Sololá	701	Sololá	4	Finca Santa Victoria	5	Mayo	2023-04-05T00:00:00	2024-11-08T19:00:00	7	Dirección del viento	1.61
105043	7	Sololá	701	Sololá	4	Finca Santa Victoria	5	Mayo	2023-04-05T00:00:00	2024-11-08T19:00:00	1	Precipitación	0
105044	7	Sololá	701	Sololá	4	Finca Santa Victoria	5	Mayo	2023-04-05T00:00:00	2024-11-08T19:00:00	8	Radiación solar	0
105045	7	Sololá	701	Sololá	4	Finca Santa Victoria	5	Mayo	2023-04-05T00:00:00	2024-11-08T20:00:00	2	Temperatura media	16.5
105046	7	Sololá	701	Sololá	4	Finca Santa Victoria	5	Mayo	2023-04-05T00:00:00	2024-11-08T20:00:00	4	Temperatura máxima	17.1
105047	7	Sololá	701	Sololá	4	Finca Santa Victoria	5	Mayo	2023-04-05T00:00:00	2024-11-08T20:00:00	3	Temperatura mínima	16.5
105048	7	Sololá	701	Sololá	4	Finca Santa Victoria	5	Mayo	2023-04-05T00:00:00	2024-11-08T20:00:00	5	Humedad	86
105049	7	Sololá	701	Sololá	4	Finca Santa Victoria	5	Mayo	2023-04-05T00:00:00	2024-11-08T20:00:00	6	Velocidad del viento	1.6
105050	7	Sololá	701	Sololá	4	Finca Santa Victoria	5	Mayo	2023-04-05T00:00:00	2024-11-08T20:00:00	7	Dirección del viento	1.61
105051	7	Sololá	701	Sololá	4	Finca Santa Victoria	5	Mayo	2023-04-05T00:00:00	2024-11-08T20:00:00	1	Precipitación	0
105052	7	Sololá	701	Sololá	4	Finca Santa Victoria	5	Mayo	2023-04-05T00:00:00	2024-11-08T20:00:00	8	Radiación solar	0
105053	7	Sololá	701	Sololá	4	Finca Santa Victoria	5	Mayo	2023-04-05T00:00:00	2024-11-08T21:00:00	2	Temperatura media	15.9
105054	7	Sololá	701	Sololá	4	Finca Santa Victoria	5	Mayo	2023-04-05T00:00:00	2024-11-08T21:00:00	4	Temperatura máxima	16.5
105055	7	Sololá	701	Sololá	4	Finca Santa Victoria	5	Mayo	2023-04-05T00:00:00	2024-11-08T21:00:00	3	Temperatura mínima	15.8
105056	7	Sololá	701	Sololá	4	Finca Santa Victoria	5	Mayo	2023-04-05T00:00:00	2024-11-08T21:00:00	5	Humedad	83
105057	7	Sololá	701	Sololá	4	Finca Santa Victoria	5	Mayo	2023-04-05T00:00:00	2024-11-08T21:00:00	6	Velocidad del viento	1.6
105058	7	Sololá	701	Sololá	4	Finca Santa Victoria	5	Mayo	2023-04-05T00:00:00	2024-11-08T21:00:00	7	Dirección del viento	1.61
105059	7	Sololá	701	Sololá	4	Finca Santa Victoria	5	Mayo	2023-04-05T00:00:00	2024-11-08T21:00:00	1	Precipitación	0
105060	7	Sololá	701	Sololá	4	Finca Santa Victoria	5	Mayo	2023-04-05T00:00:00	2024-11-08T21:00:00	8	Radiación solar	0
105061	7	Sololá	701	Sololá	4	Finca Santa Victoria	5	Mayo	2023-04-05T00:00:00	2024-11-08T22:00:00	2	Temperatura media	15.1
105062	7	Sololá	701	Sololá	4	Finca Santa Victoria	5	Mayo	2023-04-05T00:00:00	2024-11-08T22:00:00	4	Temperatura máxima	15.9
105063	7	Sololá	701	Sololá	4	Finca Santa Victoria	5	Mayo	2023-04-05T00:00:00	2024-11-08T22:00:00	3	Temperatura mínima	15.1
105064	7	Sololá	701	Sololá	4	Finca Santa Victoria	5	Mayo	2023-04-05T00:00:00	2024-11-08T22:00:00	5	Humedad	86
105065	7	Sololá	701	Sololá	4	Finca Santa Victoria	5	Mayo	2023-04-05T00:00:00	2024-11-08T22:00:00	6	Velocidad del viento	1.6
105066	7	Sololá	701	Sololá	4	Finca Santa Victoria	5	Mayo	2023-04-05T00:00:00	2024-11-08T22:00:00	7	Dirección del viento	1.61
105067	7	Sololá	701	Sololá	4	Finca Santa Victoria	5	Mayo	2023-04-05T00:00:00	2024-11-08T22:00:00	1	Precipitación	0
105068	7	Sololá	701	Sololá	4	Finca Santa Victoria	5	Mayo	2023-04-05T00:00:00	2024-11-08T22:00:00	8	Radiación solar	0
105069	7	Sololá	701	Sololá	4	Finca Santa Victoria	5	Mayo	2023-04-05T00:00:00	2024-11-08T23:00:00	2	Temperatura media	15.4
105070	7	Sololá	701	Sololá	4	Finca Santa Victoria	5	Mayo	2023-04-05T00:00:00	2024-11-08T23:00:00	4	Temperatura máxima	15.4
105071	7	Sololá	701	Sololá	4	Finca Santa Victoria	5	Mayo	2023-04-05T00:00:00	2024-11-08T23:00:00	3	Temperatura mínima	15.1
105072	7	Sololá	701	Sololá	4	Finca Santa Victoria	5	Mayo	2023-04-05T00:00:00	2024-11-08T23:00:00	5	Humedad	85
105073	7	Sololá	701	Sololá	4	Finca Santa Victoria	5	Mayo	2023-04-05T00:00:00	2024-11-08T23:00:00	6	Velocidad del viento	3.2
105074	7	Sololá	701	Sololá	4	Finca Santa Victoria	5	Mayo	2023-04-05T00:00:00	2024-11-08T23:00:00	7	Dirección del viento	3.22
105075	7	Sololá	701	Sololá	4	Finca Santa Victoria	5	Mayo	2023-04-05T00:00:00	2024-11-08T23:00:00	1	Precipitación	0
105076	7	Sololá	701	Sololá	4	Finca Santa Victoria	5	Mayo	2023-04-05T00:00:00	2024-11-08T23:00:00	8	Radiación solar	0
105077	7	Sololá	701	Sololá	4	Finca Santa Victoria	5	Mayo	2023-05-05T00:00:00	2024-11-08T00:00:00	2	Temperatura media	14.9
105078	7	Sololá	701	Sololá	4	Finca Santa Victoria	5	Mayo	2023-05-05T00:00:00	2024-11-08T00:00:00	4	Temperatura máxima	15.4
105079	7	Sololá	701	Sololá	4	Finca Santa Victoria	5	Mayo	2023-05-05T00:00:00	2024-11-08T00:00:00	3	Temperatura mínima	14.7
105080	7	Sololá	701	Sololá	4	Finca Santa Victoria	5	Mayo	2023-05-05T00:00:00	2024-11-08T00:00:00	5	Humedad	80
105081	7	Sololá	701	Sololá	4	Finca Santa Victoria	5	Mayo	2023-05-05T00:00:00	2024-11-08T00:00:00	6	Velocidad del viento	1.6
105082	7	Sololá	701	Sololá	4	Finca Santa Victoria	5	Mayo	2023-05-05T00:00:00	2024-11-08T00:00:00	7	Dirección del viento	1.61
105083	7	Sololá	701	Sololá	4	Finca Santa Victoria	5	Mayo	2023-05-05T00:00:00	2024-11-08T00:00:00	1	Precipitación	0
105084	7	Sololá	701	Sololá	4	Finca Santa Victoria	5	Mayo	2023-05-05T00:00:00	2024-11-08T00:00:00	8	Radiación solar	0
105085	7	Sololá	701	Sololá	4	Finca Santa Victoria	5	Mayo	2023-05-05T00:00:00	2024-11-08T01:00:00	2	Temperatura media	14.6
105086	7	Sololá	701	Sololá	4	Finca Santa Victoria	5	Mayo	2023-05-05T00:00:00	2024-11-08T01:00:00	4	Temperatura máxima	14.9
105087	7	Sololá	701	Sololá	4	Finca Santa Victoria	5	Mayo	2023-05-05T00:00:00	2024-11-08T01:00:00	3	Temperatura mínima	14.5
105088	7	Sololá	701	Sololá	4	Finca Santa Victoria	5	Mayo	2023-05-05T00:00:00	2024-11-08T01:00:00	5	Humedad	81
105089	7	Sololá	701	Sololá	4	Finca Santa Victoria	5	Mayo	2023-05-05T00:00:00	2024-11-08T01:00:00	6	Velocidad del viento	1.6
105090	7	Sololá	701	Sololá	4	Finca Santa Victoria	5	Mayo	2023-05-05T00:00:00	2024-11-08T01:00:00	7	Dirección del viento	1.61
105091	7	Sololá	701	Sololá	4	Finca Santa Victoria	5	Mayo	2023-05-05T00:00:00	2024-11-08T01:00:00	1	Precipitación	0
105092	7	Sololá	701	Sololá	4	Finca Santa Victoria	5	Mayo	2023-05-05T00:00:00	2024-11-08T01:00:00	8	Radiación solar	0
105093	7	Sololá	701	Sololá	4	Finca Santa Victoria	5	Mayo	2023-05-05T00:00:00	2024-11-08T02:00:00	2	Temperatura media	14.5
105094	7	Sololá	701	Sololá	4	Finca Santa Victoria	5	Mayo	2023-05-05T00:00:00	2024-11-08T02:00:00	4	Temperatura máxima	14.6
105095	7	Sololá	701	Sololá	4	Finca Santa Victoria	5	Mayo	2023-05-05T00:00:00	2024-11-08T02:00:00	3	Temperatura mínima	14.3
105096	7	Sololá	701	Sololá	4	Finca Santa Victoria	5	Mayo	2023-05-05T00:00:00	2024-11-08T02:00:00	5	Humedad	85
105097	7	Sololá	701	Sololá	4	Finca Santa Victoria	5	Mayo	2023-05-05T00:00:00	2024-11-08T02:00:00	6	Velocidad del viento	1.6
105098	7	Sololá	701	Sololá	4	Finca Santa Victoria	5	Mayo	2023-05-05T00:00:00	2024-11-08T02:00:00	7	Dirección del viento	1.61
105099	7	Sololá	701	Sololá	4	Finca Santa Victoria	5	Mayo	2023-05-05T00:00:00	2024-11-08T02:00:00	1	Precipitación	0
105100	7	Sololá	701	Sololá	4	Finca Santa Victoria	5	Mayo	2023-05-05T00:00:00	2024-11-08T02:00:00	8	Radiación solar	0
105101	7	Sololá	701	Sololá	4	Finca Santa Victoria	5	Mayo	2023-05-05T00:00:00	2024-11-08T03:00:00	2	Temperatura media	14.3
105102	7	Sololá	701	Sololá	4	Finca Santa Victoria	5	Mayo	2023-05-05T00:00:00	2024-11-08T03:00:00	4	Temperatura máxima	14.7
105103	7	Sololá	701	Sololá	4	Finca Santa Victoria	5	Mayo	2023-05-05T00:00:00	2024-11-08T03:00:00	3	Temperatura mínima	14.3
105104	7	Sololá	701	Sololá	4	Finca Santa Victoria	5	Mayo	2023-05-05T00:00:00	2024-11-08T03:00:00	5	Humedad	84
105105	7	Sololá	701	Sololá	4	Finca Santa Victoria	5	Mayo	2023-05-05T00:00:00	2024-11-08T03:00:00	6	Velocidad del viento	3.2
105106	7	Sololá	701	Sololá	4	Finca Santa Victoria	5	Mayo	2023-05-05T00:00:00	2024-11-08T03:00:00	7	Dirección del viento	3.22
105107	7	Sololá	701	Sololá	4	Finca Santa Victoria	5	Mayo	2023-05-05T00:00:00	2024-11-08T03:00:00	1	Precipitación	0
105108	7	Sololá	701	Sololá	4	Finca Santa Victoria	5	Mayo	2023-05-05T00:00:00	2024-11-08T03:00:00	8	Radiación solar	0
105109	7	Sololá	701	Sololá	4	Finca Santa Victoria	5	Mayo	2023-05-05T00:00:00	2024-11-08T04:00:00	2	Temperatura media	14.2
105110	7	Sololá	701	Sololá	4	Finca Santa Victoria	5	Mayo	2023-05-05T00:00:00	2024-11-08T04:00:00	4	Temperatura máxima	14.3
105111	7	Sololá	701	Sololá	4	Finca Santa Victoria	5	Mayo	2023-05-05T00:00:00	2024-11-08T04:00:00	3	Temperatura mínima	13.8
105112	7	Sololá	701	Sololá	4	Finca Santa Victoria	5	Mayo	2023-05-05T00:00:00	2024-11-08T04:00:00	5	Humedad	80
105113	7	Sololá	701	Sololá	4	Finca Santa Victoria	5	Mayo	2023-05-05T00:00:00	2024-11-08T04:00:00	6	Velocidad del viento	3.2
105114	7	Sololá	701	Sololá	4	Finca Santa Victoria	5	Mayo	2023-05-05T00:00:00	2024-11-08T04:00:00	7	Dirección del viento	3.22
105115	7	Sololá	701	Sololá	4	Finca Santa Victoria	5	Mayo	2023-05-05T00:00:00	2024-11-08T04:00:00	1	Precipitación	0
105116	7	Sololá	701	Sololá	4	Finca Santa Victoria	5	Mayo	2023-05-05T00:00:00	2024-11-08T04:00:00	8	Radiación solar	0
105117	7	Sololá	701	Sololá	4	Finca Santa Victoria	5	Mayo	2023-05-05T00:00:00	2024-11-08T05:00:00	2	Temperatura media	14.4
105118	7	Sololá	701	Sololá	4	Finca Santa Victoria	5	Mayo	2023-05-05T00:00:00	2024-11-08T05:00:00	4	Temperatura máxima	14.4
105119	7	Sololá	701	Sololá	4	Finca Santa Victoria	5	Mayo	2023-05-05T00:00:00	2024-11-08T05:00:00	3	Temperatura mínima	14.1
105120	7	Sololá	701	Sololá	4	Finca Santa Victoria	5	Mayo	2023-05-05T00:00:00	2024-11-08T05:00:00	5	Humedad	72
105121	7	Sololá	701	Sololá	4	Finca Santa Victoria	5	Mayo	2023-05-05T00:00:00	2024-11-08T05:00:00	6	Velocidad del viento	1.6
105122	7	Sololá	701	Sololá	4	Finca Santa Victoria	5	Mayo	2023-05-05T00:00:00	2024-11-08T05:00:00	7	Dirección del viento	1.61
105123	7	Sololá	701	Sololá	4	Finca Santa Victoria	5	Mayo	2023-05-05T00:00:00	2024-11-08T05:00:00	1	Precipitación	0
105124	7	Sololá	701	Sololá	4	Finca Santa Victoria	5	Mayo	2023-05-05T00:00:00	2024-11-08T05:00:00	8	Radiación solar	0
105125	7	Sololá	701	Sololá	4	Finca Santa Victoria	5	Mayo	2023-05-05T00:00:00	2024-11-08T06:00:00	2	Temperatura media	14.2
105126	7	Sololá	701	Sololá	4	Finca Santa Victoria	5	Mayo	2023-05-05T00:00:00	2024-11-08T06:00:00	4	Temperatura máxima	14.4
105127	7	Sololá	701	Sololá	4	Finca Santa Victoria	5	Mayo	2023-05-05T00:00:00	2024-11-08T06:00:00	3	Temperatura mínima	14.1
105128	7	Sololá	701	Sololá	4	Finca Santa Victoria	5	Mayo	2023-05-05T00:00:00	2024-11-08T06:00:00	5	Humedad	69
105129	7	Sololá	701	Sololá	4	Finca Santa Victoria	5	Mayo	2023-05-05T00:00:00	2024-11-08T06:00:00	6	Velocidad del viento	3.2
105130	7	Sololá	701	Sololá	4	Finca Santa Victoria	5	Mayo	2023-05-05T00:00:00	2024-11-08T06:00:00	7	Dirección del viento	3.22
105131	7	Sololá	701	Sololá	4	Finca Santa Victoria	5	Mayo	2023-05-05T00:00:00	2024-11-08T06:00:00	1	Precipitación	0
105132	7	Sololá	701	Sololá	4	Finca Santa Victoria	5	Mayo	2023-05-05T00:00:00	2024-11-08T06:00:00	8	Radiación solar	2
105133	7	Sololá	701	Sololá	4	Finca Santa Victoria	5	Mayo	2023-05-05T00:00:00	2024-11-08T07:00:00	2	Temperatura media	15.7
105134	7	Sololá	701	Sololá	4	Finca Santa Victoria	5	Mayo	2023-05-05T00:00:00	2024-11-08T07:00:00	4	Temperatura máxima	15.7
105135	7	Sololá	701	Sololá	4	Finca Santa Victoria	5	Mayo	2023-05-05T00:00:00	2024-11-08T07:00:00	3	Temperatura mínima	14.2
105136	7	Sololá	701	Sololá	4	Finca Santa Victoria	5	Mayo	2023-05-05T00:00:00	2024-11-08T07:00:00	5	Humedad	66
105137	7	Sololá	701	Sololá	4	Finca Santa Victoria	5	Mayo	2023-05-05T00:00:00	2024-11-08T07:00:00	6	Velocidad del viento	3.2
105138	7	Sololá	701	Sololá	4	Finca Santa Victoria	5	Mayo	2023-05-05T00:00:00	2024-11-08T07:00:00	7	Dirección del viento	3.22
105139	7	Sololá	701	Sololá	4	Finca Santa Victoria	5	Mayo	2023-05-05T00:00:00	2024-11-08T07:00:00	1	Precipitación	0
105140	7	Sololá	701	Sololá	4	Finca Santa Victoria	5	Mayo	2023-05-05T00:00:00	2024-11-08T07:00:00	8	Radiación solar	34
105141	7	Sololá	701	Sololá	4	Finca Santa Victoria	5	Mayo	2023-05-05T00:00:00	2024-11-08T08:00:00	2	Temperatura media	19.6
105142	7	Sololá	701	Sololá	4	Finca Santa Victoria	5	Mayo	2023-05-05T00:00:00	2024-11-08T08:00:00	4	Temperatura máxima	19.6
105143	7	Sololá	701	Sololá	4	Finca Santa Victoria	5	Mayo	2023-05-05T00:00:00	2024-11-08T08:00:00	3	Temperatura mínima	15.7
105144	7	Sololá	701	Sololá	4	Finca Santa Victoria	5	Mayo	2023-05-05T00:00:00	2024-11-08T08:00:00	5	Humedad	50
105145	7	Sololá	701	Sololá	4	Finca Santa Victoria	5	Mayo	2023-05-05T00:00:00	2024-11-08T08:00:00	6	Velocidad del viento	3.2
105146	7	Sololá	701	Sololá	4	Finca Santa Victoria	5	Mayo	2023-05-05T00:00:00	2024-11-08T08:00:00	7	Dirección del viento	3.22
105147	7	Sololá	701	Sololá	4	Finca Santa Victoria	5	Mayo	2023-05-05T00:00:00	2024-11-08T08:00:00	1	Precipitación	0
105148	7	Sololá	701	Sololá	4	Finca Santa Victoria	5	Mayo	2023-05-05T00:00:00	2024-11-08T08:00:00	8	Radiación solar	264
105149	7	Sololá	701	Sololá	4	Finca Santa Victoria	5	Mayo	2023-05-05T00:00:00	2024-11-08T09:00:00	2	Temperatura media	20.7
105150	7	Sololá	701	Sololá	4	Finca Santa Victoria	5	Mayo	2023-05-05T00:00:00	2024-11-08T09:00:00	4	Temperatura máxima	20.7
105151	7	Sololá	701	Sololá	4	Finca Santa Victoria	5	Mayo	2023-05-05T00:00:00	2024-11-08T09:00:00	3	Temperatura mínima	19.6
105152	7	Sololá	701	Sololá	4	Finca Santa Victoria	5	Mayo	2023-05-05T00:00:00	2024-11-08T09:00:00	5	Humedad	47
105153	7	Sololá	701	Sololá	4	Finca Santa Victoria	5	Mayo	2023-05-05T00:00:00	2024-11-08T09:00:00	6	Velocidad del viento	4.8
105154	7	Sololá	701	Sololá	4	Finca Santa Victoria	5	Mayo	2023-05-05T00:00:00	2024-11-08T09:00:00	7	Dirección del viento	4.83
105155	7	Sololá	701	Sololá	4	Finca Santa Victoria	5	Mayo	2023-05-05T00:00:00	2024-11-08T09:00:00	1	Precipitación	0
105156	7	Sololá	701	Sololá	4	Finca Santa Victoria	5	Mayo	2023-05-05T00:00:00	2024-11-08T09:00:00	8	Radiación solar	415
105157	7	Sololá	701	Sololá	4	Finca Santa Victoria	5	Mayo	2023-05-05T00:00:00	2024-11-08T10:00:00	2	Temperatura media	22.2
105158	7	Sololá	701	Sololá	4	Finca Santa Victoria	5	Mayo	2023-05-05T00:00:00	2024-11-08T10:00:00	4	Temperatura máxima	22.3
105159	7	Sololá	701	Sololá	4	Finca Santa Victoria	5	Mayo	2023-05-05T00:00:00	2024-11-08T10:00:00	3	Temperatura mínima	20.7
105160	7	Sololá	701	Sololá	4	Finca Santa Victoria	5	Mayo	2023-05-05T00:00:00	2024-11-08T10:00:00	5	Humedad	42
105161	7	Sololá	701	Sololá	4	Finca Santa Victoria	5	Mayo	2023-05-05T00:00:00	2024-11-08T10:00:00	6	Velocidad del viento	6.4
105162	7	Sololá	701	Sololá	4	Finca Santa Victoria	5	Mayo	2023-05-05T00:00:00	2024-11-08T10:00:00	7	Dirección del viento	6.44
105163	7	Sololá	701	Sololá	4	Finca Santa Victoria	5	Mayo	2023-05-05T00:00:00	2024-11-08T10:00:00	1	Precipitación	0
105164	7	Sololá	701	Sololá	4	Finca Santa Victoria	5	Mayo	2023-05-05T00:00:00	2024-11-08T10:00:00	8	Radiación solar	238
105165	7	Sololá	701	Sololá	4	Finca Santa Victoria	5	Mayo	2023-05-05T00:00:00	2024-11-08T11:00:00	2	Temperatura media	24.2
105166	7	Sololá	701	Sololá	4	Finca Santa Victoria	5	Mayo	2023-05-05T00:00:00	2024-11-08T11:00:00	4	Temperatura máxima	24.2
105167	7	Sololá	701	Sololá	4	Finca Santa Victoria	5	Mayo	2023-05-05T00:00:00	2024-11-08T11:00:00	3	Temperatura mínima	22.1
105168	7	Sololá	701	Sololá	4	Finca Santa Victoria	5	Mayo	2023-05-05T00:00:00	2024-11-08T11:00:00	5	Humedad	44
105169	7	Sololá	701	Sololá	4	Finca Santa Victoria	5	Mayo	2023-05-05T00:00:00	2024-11-08T11:00:00	6	Velocidad del viento	4.8
105170	7	Sololá	701	Sololá	4	Finca Santa Victoria	5	Mayo	2023-05-05T00:00:00	2024-11-08T11:00:00	7	Dirección del viento	4.83
105171	7	Sololá	701	Sololá	4	Finca Santa Victoria	5	Mayo	2023-05-05T00:00:00	2024-11-08T11:00:00	1	Precipitación	0
105172	7	Sololá	701	Sololá	4	Finca Santa Victoria	5	Mayo	2023-05-05T00:00:00	2024-11-08T11:00:00	8	Radiación solar	798
105173	7	Sololá	701	Sololá	4	Finca Santa Victoria	5	Mayo	2023-05-05T00:00:00	2024-11-08T12:00:00	2	Temperatura media	23.7
105174	7	Sololá	701	Sololá	4	Finca Santa Victoria	5	Mayo	2023-05-05T00:00:00	2024-11-08T12:00:00	4	Temperatura máxima	24.3
105175	7	Sololá	701	Sololá	4	Finca Santa Victoria	5	Mayo	2023-05-05T00:00:00	2024-11-08T12:00:00	3	Temperatura mínima	23.4
105176	7	Sololá	701	Sololá	4	Finca Santa Victoria	5	Mayo	2023-05-05T00:00:00	2024-11-08T12:00:00	5	Humedad	33
105177	7	Sololá	701	Sololá	4	Finca Santa Victoria	5	Mayo	2023-05-05T00:00:00	2024-11-08T12:00:00	6	Velocidad del viento	6.4
105178	7	Sololá	701	Sololá	4	Finca Santa Victoria	5	Mayo	2023-05-05T00:00:00	2024-11-08T12:00:00	7	Dirección del viento	6.44
105179	7	Sololá	701	Sololá	4	Finca Santa Victoria	5	Mayo	2023-05-05T00:00:00	2024-11-08T12:00:00	1	Precipitación	0
105180	7	Sololá	701	Sololá	4	Finca Santa Victoria	5	Mayo	2023-05-05T00:00:00	2024-11-08T12:00:00	8	Radiación solar	989
105181	7	Sololá	701	Sololá	4	Finca Santa Victoria	5	Mayo	2023-05-05T00:00:00	2024-11-08T13:00:00	2	Temperatura media	24.3
105182	7	Sololá	701	Sololá	4	Finca Santa Victoria	5	Mayo	2023-05-05T00:00:00	2024-11-08T13:00:00	4	Temperatura máxima	24.7
105183	7	Sololá	701	Sololá	4	Finca Santa Victoria	5	Mayo	2023-05-05T00:00:00	2024-11-08T13:00:00	3	Temperatura mínima	23.7
105184	7	Sololá	701	Sololá	4	Finca Santa Victoria	5	Mayo	2023-05-05T00:00:00	2024-11-08T13:00:00	5	Humedad	33
105185	7	Sololá	701	Sololá	4	Finca Santa Victoria	5	Mayo	2023-05-05T00:00:00	2024-11-08T13:00:00	6	Velocidad del viento	6.4
105186	7	Sololá	701	Sololá	4	Finca Santa Victoria	5	Mayo	2023-05-05T00:00:00	2024-11-08T13:00:00	7	Dirección del viento	6.44
105187	7	Sololá	701	Sololá	4	Finca Santa Victoria	5	Mayo	2023-05-05T00:00:00	2024-11-08T13:00:00	1	Precipitación	0
105188	7	Sololá	701	Sololá	4	Finca Santa Victoria	5	Mayo	2023-05-05T00:00:00	2024-11-08T13:00:00	8	Radiación solar	995
105189	7	Sololá	701	Sololá	4	Finca Santa Victoria	5	Mayo	2023-05-05T00:00:00	2024-11-08T14:00:00	2	Temperatura media	24.7
105190	7	Sololá	701	Sololá	4	Finca Santa Victoria	5	Mayo	2023-05-05T00:00:00	2024-11-08T14:00:00	4	Temperatura máxima	25.3
105191	7	Sololá	701	Sololá	4	Finca Santa Victoria	5	Mayo	2023-05-05T00:00:00	2024-11-08T14:00:00	3	Temperatura mínima	24.3
105192	7	Sololá	701	Sololá	4	Finca Santa Victoria	5	Mayo	2023-05-05T00:00:00	2024-11-08T14:00:00	5	Humedad	30
105193	7	Sololá	701	Sololá	4	Finca Santa Victoria	5	Mayo	2023-05-05T00:00:00	2024-11-08T14:00:00	6	Velocidad del viento	6.4
105194	7	Sololá	701	Sololá	4	Finca Santa Victoria	5	Mayo	2023-05-05T00:00:00	2024-11-08T14:00:00	7	Dirección del viento	6.44
105195	7	Sololá	701	Sololá	4	Finca Santa Victoria	5	Mayo	2023-05-05T00:00:00	2024-11-08T14:00:00	1	Precipitación	0
105196	7	Sololá	701	Sololá	4	Finca Santa Victoria	5	Mayo	2023-05-05T00:00:00	2024-11-08T14:00:00	8	Radiación solar	307
105197	7	Sololá	701	Sololá	4	Finca Santa Victoria	5	Mayo	2023-05-05T00:00:00	2024-11-08T15:00:00	2	Temperatura media	24.9
105198	7	Sololá	701	Sololá	4	Finca Santa Victoria	5	Mayo	2023-05-05T00:00:00	2024-11-08T15:00:00	4	Temperatura máxima	24.9
105199	7	Sololá	701	Sololá	4	Finca Santa Victoria	5	Mayo	2023-05-05T00:00:00	2024-11-08T15:00:00	3	Temperatura mínima	24.1
105200	7	Sololá	701	Sololá	4	Finca Santa Victoria	5	Mayo	2023-05-05T00:00:00	2024-11-08T15:00:00	5	Humedad	34
105201	7	Sololá	701	Sololá	4	Finca Santa Victoria	5	Mayo	2023-05-05T00:00:00	2024-11-08T15:00:00	6	Velocidad del viento	8
105202	7	Sololá	701	Sololá	4	Finca Santa Victoria	5	Mayo	2023-05-05T00:00:00	2024-11-08T15:00:00	7	Dirección del viento	8.05
105203	7	Sololá	701	Sololá	4	Finca Santa Victoria	5	Mayo	2023-05-05T00:00:00	2024-11-08T15:00:00	1	Precipitación	0
105204	7	Sololá	701	Sololá	4	Finca Santa Victoria	5	Mayo	2023-05-05T00:00:00	2024-11-08T15:00:00	8	Radiación solar	358
105205	7	Sololá	701	Sololá	4	Finca Santa Victoria	5	Mayo	2023-05-05T00:00:00	2024-11-08T16:00:00	2	Temperatura media	24.2
105206	7	Sololá	701	Sololá	4	Finca Santa Victoria	5	Mayo	2023-05-05T00:00:00	2024-11-08T16:00:00	4	Temperatura máxima	24.9
105207	7	Sololá	701	Sololá	4	Finca Santa Victoria	5	Mayo	2023-05-05T00:00:00	2024-11-08T16:00:00	3	Temperatura mínima	24.2
105208	7	Sololá	701	Sololá	4	Finca Santa Victoria	5	Mayo	2023-05-05T00:00:00	2024-11-08T16:00:00	5	Humedad	42
105209	7	Sololá	701	Sololá	4	Finca Santa Victoria	5	Mayo	2023-05-05T00:00:00	2024-11-08T16:00:00	6	Velocidad del viento	4.8
105210	7	Sololá	701	Sololá	4	Finca Santa Victoria	5	Mayo	2023-05-05T00:00:00	2024-11-08T16:00:00	7	Dirección del viento	4.83
105211	7	Sololá	701	Sololá	4	Finca Santa Victoria	5	Mayo	2023-05-05T00:00:00	2024-11-08T16:00:00	1	Precipitación	0
105212	7	Sololá	701	Sololá	4	Finca Santa Victoria	5	Mayo	2023-05-05T00:00:00	2024-11-08T16:00:00	8	Radiación solar	223
105213	7	Sololá	701	Sololá	4	Finca Santa Victoria	5	Mayo	2023-05-05T00:00:00	2024-11-08T17:00:00	2	Temperatura media	20.3
105214	7	Sololá	701	Sololá	4	Finca Santa Victoria	5	Mayo	2023-05-05T00:00:00	2024-11-08T17:00:00	4	Temperatura máxima	24.2
105215	7	Sololá	701	Sololá	4	Finca Santa Victoria	5	Mayo	2023-05-05T00:00:00	2024-11-08T17:00:00	3	Temperatura mínima	20.3
105216	7	Sololá	701	Sololá	4	Finca Santa Victoria	5	Mayo	2023-05-05T00:00:00	2024-11-08T17:00:00	5	Humedad	81
105217	7	Sololá	701	Sololá	4	Finca Santa Victoria	5	Mayo	2023-05-05T00:00:00	2024-11-08T17:00:00	6	Velocidad del viento	3.2
105218	7	Sololá	701	Sololá	4	Finca Santa Victoria	5	Mayo	2023-05-05T00:00:00	2024-11-08T17:00:00	7	Dirección del viento	3.22
105219	7	Sololá	701	Sololá	4	Finca Santa Victoria	5	Mayo	2023-05-05T00:00:00	2024-11-08T17:00:00	1	Precipitación	0
105220	7	Sololá	701	Sololá	4	Finca Santa Victoria	5	Mayo	2023-05-05T00:00:00	2024-11-08T17:00:00	8	Radiación solar	144
105221	7	Sololá	701	Sololá	4	Finca Santa Victoria	5	Mayo	2023-05-05T00:00:00	2024-11-08T18:00:00	2	Temperatura media	18.4
105222	7	Sololá	701	Sololá	4	Finca Santa Victoria	5	Mayo	2023-05-05T00:00:00	2024-11-08T18:00:00	4	Temperatura máxima	20.3
105223	7	Sololá	701	Sololá	4	Finca Santa Victoria	5	Mayo	2023-05-05T00:00:00	2024-11-08T18:00:00	3	Temperatura mínima	18.4
105224	7	Sololá	701	Sololá	4	Finca Santa Victoria	5	Mayo	2023-05-05T00:00:00	2024-11-08T18:00:00	5	Humedad	86
105225	7	Sololá	701	Sololá	4	Finca Santa Victoria	5	Mayo	2023-05-05T00:00:00	2024-11-08T18:00:00	6	Velocidad del viento	3.2
105226	7	Sololá	701	Sololá	4	Finca Santa Victoria	5	Mayo	2023-05-05T00:00:00	2024-11-08T18:00:00	7	Dirección del viento	3.22
105227	7	Sololá	701	Sololá	4	Finca Santa Victoria	5	Mayo	2023-05-05T00:00:00	2024-11-08T18:00:00	1	Precipitación	0
105228	7	Sololá	701	Sololá	4	Finca Santa Victoria	5	Mayo	2023-05-05T00:00:00	2024-11-08T18:00:00	8	Radiación solar	53
105229	7	Sololá	701	Sololá	4	Finca Santa Victoria	5	Mayo	2023-05-05T00:00:00	2024-11-08T19:00:00	2	Temperatura media	17.5
105230	7	Sololá	701	Sololá	4	Finca Santa Victoria	5	Mayo	2023-05-05T00:00:00	2024-11-08T19:00:00	4	Temperatura máxima	18.4
105231	7	Sololá	701	Sololá	4	Finca Santa Victoria	5	Mayo	2023-05-05T00:00:00	2024-11-08T19:00:00	3	Temperatura mínima	16.9
105232	7	Sololá	701	Sololá	4	Finca Santa Victoria	5	Mayo	2023-05-05T00:00:00	2024-11-08T19:00:00	5	Humedad	72
105233	7	Sololá	701	Sololá	4	Finca Santa Victoria	5	Mayo	2023-05-05T00:00:00	2024-11-08T19:00:00	6	Velocidad del viento	1.6
105234	7	Sololá	701	Sololá	4	Finca Santa Victoria	5	Mayo	2023-05-05T00:00:00	2024-11-08T19:00:00	7	Dirección del viento	1.61
105235	7	Sololá	701	Sololá	4	Finca Santa Victoria	5	Mayo	2023-05-05T00:00:00	2024-11-08T19:00:00	1	Precipitación	0
105236	7	Sololá	701	Sololá	4	Finca Santa Victoria	5	Mayo	2023-05-05T00:00:00	2024-11-08T19:00:00	8	Radiación solar	0
105237	7	Sololá	701	Sololá	4	Finca Santa Victoria	5	Mayo	2023-05-05T00:00:00	2024-11-08T20:00:00	2	Temperatura media	17.3
105238	7	Sololá	701	Sololá	4	Finca Santa Victoria	5	Mayo	2023-05-05T00:00:00	2024-11-08T20:00:00	4	Temperatura máxima	18
105239	7	Sololá	701	Sololá	4	Finca Santa Victoria	5	Mayo	2023-05-05T00:00:00	2024-11-08T20:00:00	3	Temperatura mínima	17.3
105240	7	Sololá	701	Sololá	4	Finca Santa Victoria	5	Mayo	2023-05-05T00:00:00	2024-11-08T20:00:00	5	Humedad	73
105241	7	Sololá	701	Sololá	4	Finca Santa Victoria	5	Mayo	2023-05-05T00:00:00	2024-11-08T20:00:00	6	Velocidad del viento	1.6
105242	7	Sololá	701	Sololá	4	Finca Santa Victoria	5	Mayo	2023-05-05T00:00:00	2024-11-08T20:00:00	7	Dirección del viento	1.61
105243	7	Sololá	701	Sololá	4	Finca Santa Victoria	5	Mayo	2023-05-05T00:00:00	2024-11-08T20:00:00	1	Precipitación	0
105244	7	Sololá	701	Sololá	4	Finca Santa Victoria	5	Mayo	2023-05-05T00:00:00	2024-11-08T20:00:00	8	Radiación solar	0
105245	7	Sololá	701	Sololá	4	Finca Santa Victoria	5	Mayo	2023-05-05T00:00:00	2024-11-08T21:00:00	2	Temperatura media	16.2
105246	7	Sololá	701	Sololá	4	Finca Santa Victoria	5	Mayo	2023-05-05T00:00:00	2024-11-08T21:00:00	4	Temperatura máxima	17.3
105247	7	Sololá	701	Sololá	4	Finca Santa Victoria	5	Mayo	2023-05-05T00:00:00	2024-11-08T21:00:00	3	Temperatura mínima	16.2
105248	7	Sololá	701	Sololá	4	Finca Santa Victoria	5	Mayo	2023-05-05T00:00:00	2024-11-08T21:00:00	5	Humedad	77
105249	7	Sololá	701	Sololá	4	Finca Santa Victoria	5	Mayo	2023-05-05T00:00:00	2024-11-08T21:00:00	6	Velocidad del viento	1.6
105250	7	Sololá	701	Sololá	4	Finca Santa Victoria	5	Mayo	2023-05-05T00:00:00	2024-11-08T21:00:00	7	Dirección del viento	1.61
105251	7	Sololá	701	Sololá	4	Finca Santa Victoria	5	Mayo	2023-05-05T00:00:00	2024-11-08T21:00:00	1	Precipitación	0
105252	7	Sololá	701	Sololá	4	Finca Santa Victoria	5	Mayo	2023-05-05T00:00:00	2024-11-08T21:00:00	8	Radiación solar	0
105253	7	Sololá	701	Sololá	4	Finca Santa Victoria	5	Mayo	2023-05-05T00:00:00	2024-11-08T22:00:00	2	Temperatura media	15.4
105254	7	Sololá	701	Sololá	4	Finca Santa Victoria	5	Mayo	2023-05-05T00:00:00	2024-11-08T22:00:00	4	Temperatura máxima	16.2
105255	7	Sololá	701	Sololá	4	Finca Santa Victoria	5	Mayo	2023-05-05T00:00:00	2024-11-08T22:00:00	3	Temperatura mínima	15.4
105256	7	Sololá	701	Sololá	4	Finca Santa Victoria	5	Mayo	2023-05-05T00:00:00	2024-11-08T22:00:00	5	Humedad	84
105257	7	Sololá	701	Sololá	4	Finca Santa Victoria	5	Mayo	2023-05-05T00:00:00	2024-11-08T22:00:00	6	Velocidad del viento	1.6
105258	7	Sololá	701	Sololá	4	Finca Santa Victoria	5	Mayo	2023-05-05T00:00:00	2024-11-08T22:00:00	7	Dirección del viento	1.61
105259	7	Sololá	701	Sololá	4	Finca Santa Victoria	5	Mayo	2023-05-05T00:00:00	2024-11-08T22:00:00	1	Precipitación	0
105260	7	Sololá	701	Sololá	4	Finca Santa Victoria	5	Mayo	2023-05-05T00:00:00	2024-11-08T22:00:00	8	Radiación solar	0
105261	7	Sololá	701	Sololá	4	Finca Santa Victoria	5	Mayo	2023-05-05T00:00:00	2024-11-08T23:00:00	2	Temperatura media	15.1
105262	7	Sololá	701	Sololá	4	Finca Santa Victoria	5	Mayo	2023-05-05T00:00:00	2024-11-08T23:00:00	4	Temperatura máxima	15.4
105263	7	Sololá	701	Sololá	4	Finca Santa Victoria	5	Mayo	2023-05-05T00:00:00	2024-11-08T23:00:00	3	Temperatura mínima	14.8
105264	7	Sololá	701	Sololá	4	Finca Santa Victoria	5	Mayo	2023-05-05T00:00:00	2024-11-08T23:00:00	5	Humedad	84
105265	7	Sololá	701	Sololá	4	Finca Santa Victoria	5	Mayo	2023-05-05T00:00:00	2024-11-08T23:00:00	6	Velocidad del viento	1.6
105266	7	Sololá	701	Sololá	4	Finca Santa Victoria	5	Mayo	2023-05-05T00:00:00	2024-11-08T23:00:00	7	Dirección del viento	1.61
105267	7	Sololá	701	Sololá	4	Finca Santa Victoria	5	Mayo	2023-05-05T00:00:00	2024-11-08T23:00:00	1	Precipitación	0
105268	7	Sololá	701	Sololá	4	Finca Santa Victoria	5	Mayo	2023-05-05T00:00:00	2024-11-08T23:00:00	8	Radiación solar	0
105269	7	Sololá	701	Sololá	4	Finca Santa Victoria	5	Mayo	2023-06-05T00:00:00	2024-11-08T00:00:00	2	Temperatura media	14.4
105270	7	Sololá	701	Sololá	4	Finca Santa Victoria	5	Mayo	2023-06-05T00:00:00	2024-11-08T00:00:00	4	Temperatura máxima	15.1
105271	7	Sololá	701	Sololá	4	Finca Santa Victoria	5	Mayo	2023-06-05T00:00:00	2024-11-08T00:00:00	3	Temperatura mínima	14.4
105272	7	Sololá	701	Sololá	4	Finca Santa Victoria	5	Mayo	2023-06-05T00:00:00	2024-11-08T00:00:00	5	Humedad	83
105273	7	Sololá	701	Sololá	4	Finca Santa Victoria	5	Mayo	2023-06-05T00:00:00	2024-11-08T00:00:00	6	Velocidad del viento	3.2
105274	7	Sololá	701	Sololá	4	Finca Santa Victoria	5	Mayo	2023-06-05T00:00:00	2024-11-08T00:00:00	7	Dirección del viento	3.22
105275	7	Sololá	701	Sololá	4	Finca Santa Victoria	5	Mayo	2023-06-05T00:00:00	2024-11-08T00:00:00	1	Precipitación	0
105276	7	Sololá	701	Sololá	4	Finca Santa Victoria	5	Mayo	2023-06-05T00:00:00	2024-11-08T00:00:00	8	Radiación solar	0
105277	7	Sololá	701	Sololá	4	Finca Santa Victoria	5	Mayo	2023-06-05T00:00:00	2024-11-08T01:00:00	2	Temperatura media	13.4
105278	7	Sololá	701	Sololá	4	Finca Santa Victoria	5	Mayo	2023-06-05T00:00:00	2024-11-08T01:00:00	4	Temperatura máxima	14.4
105279	7	Sololá	701	Sololá	4	Finca Santa Victoria	5	Mayo	2023-06-05T00:00:00	2024-11-08T01:00:00	3	Temperatura mínima	13.2
105280	7	Sololá	701	Sololá	4	Finca Santa Victoria	5	Mayo	2023-06-05T00:00:00	2024-11-08T01:00:00	5	Humedad	88
105281	7	Sololá	701	Sololá	4	Finca Santa Victoria	5	Mayo	2023-06-05T00:00:00	2024-11-08T01:00:00	6	Velocidad del viento	0
105282	7	Sololá	701	Sololá	4	Finca Santa Victoria	5	Mayo	2023-06-05T00:00:00	2024-11-08T01:00:00	7	Dirección del viento	0
105283	7	Sololá	701	Sololá	4	Finca Santa Victoria	5	Mayo	2023-06-05T00:00:00	2024-11-08T01:00:00	1	Precipitación	0
105284	7	Sololá	701	Sololá	4	Finca Santa Victoria	5	Mayo	2023-06-05T00:00:00	2024-11-08T01:00:00	8	Radiación solar	0
105285	7	Sololá	701	Sololá	4	Finca Santa Victoria	5	Mayo	2023-06-05T00:00:00	2024-11-08T02:00:00	2	Temperatura media	13.1
105286	7	Sololá	701	Sololá	4	Finca Santa Victoria	5	Mayo	2023-06-05T00:00:00	2024-11-08T02:00:00	4	Temperatura máxima	13.4
105287	7	Sololá	701	Sololá	4	Finca Santa Victoria	5	Mayo	2023-06-05T00:00:00	2024-11-08T02:00:00	3	Temperatura mínima	12.9
105288	7	Sololá	701	Sololá	4	Finca Santa Victoria	5	Mayo	2023-06-05T00:00:00	2024-11-08T02:00:00	5	Humedad	88
105289	7	Sololá	701	Sololá	4	Finca Santa Victoria	5	Mayo	2023-06-05T00:00:00	2024-11-08T02:00:00	6	Velocidad del viento	1.6
105290	7	Sololá	701	Sololá	4	Finca Santa Victoria	5	Mayo	2023-06-05T00:00:00	2024-11-08T02:00:00	7	Dirección del viento	1.61
105291	7	Sololá	701	Sololá	4	Finca Santa Victoria	5	Mayo	2023-06-05T00:00:00	2024-11-08T02:00:00	1	Precipitación	0
105292	7	Sololá	701	Sololá	4	Finca Santa Victoria	5	Mayo	2023-06-05T00:00:00	2024-11-08T02:00:00	8	Radiación solar	0
105293	7	Sololá	701	Sololá	4	Finca Santa Victoria	5	Mayo	2023-06-05T00:00:00	2024-11-08T03:00:00	2	Temperatura media	12.6
105294	7	Sololá	701	Sololá	4	Finca Santa Victoria	5	Mayo	2023-06-05T00:00:00	2024-11-08T03:00:00	4	Temperatura máxima	13.1
105295	7	Sololá	701	Sololá	4	Finca Santa Victoria	5	Mayo	2023-06-05T00:00:00	2024-11-08T03:00:00	3	Temperatura mínima	12.6
105296	7	Sololá	701	Sololá	4	Finca Santa Victoria	5	Mayo	2023-06-05T00:00:00	2024-11-08T03:00:00	5	Humedad	90
105297	7	Sololá	701	Sololá	4	Finca Santa Victoria	5	Mayo	2023-06-05T00:00:00	2024-11-08T03:00:00	6	Velocidad del viento	1.6
105298	7	Sololá	701	Sololá	4	Finca Santa Victoria	5	Mayo	2023-06-05T00:00:00	2024-11-08T03:00:00	7	Dirección del viento	1.61
105299	7	Sololá	701	Sololá	4	Finca Santa Victoria	5	Mayo	2023-06-05T00:00:00	2024-11-08T03:00:00	1	Precipitación	0
105300	7	Sololá	701	Sololá	4	Finca Santa Victoria	5	Mayo	2023-06-05T00:00:00	2024-11-08T03:00:00	8	Radiación solar	0
105301	7	Sololá	701	Sololá	4	Finca Santa Victoria	5	Mayo	2023-06-05T00:00:00	2024-11-08T04:00:00	2	Temperatura media	12.2
105302	7	Sololá	701	Sololá	4	Finca Santa Victoria	5	Mayo	2023-06-05T00:00:00	2024-11-08T04:00:00	4	Temperatura máxima	12.6
105303	7	Sololá	701	Sololá	4	Finca Santa Victoria	5	Mayo	2023-06-05T00:00:00	2024-11-08T04:00:00	3	Temperatura mínima	12.2
105304	7	Sololá	701	Sololá	4	Finca Santa Victoria	5	Mayo	2023-06-05T00:00:00	2024-11-08T04:00:00	5	Humedad	93
105305	7	Sololá	701	Sololá	4	Finca Santa Victoria	5	Mayo	2023-06-05T00:00:00	2024-11-08T04:00:00	6	Velocidad del viento	3.2
105306	7	Sololá	701	Sololá	4	Finca Santa Victoria	5	Mayo	2023-06-05T00:00:00	2024-11-08T04:00:00	7	Dirección del viento	3.22
105307	7	Sololá	701	Sololá	4	Finca Santa Victoria	5	Mayo	2023-06-05T00:00:00	2024-11-08T04:00:00	1	Precipitación	0
105308	7	Sololá	701	Sololá	4	Finca Santa Victoria	5	Mayo	2023-06-05T00:00:00	2024-11-08T04:00:00	8	Radiación solar	0
105309	7	Sololá	701	Sololá	4	Finca Santa Victoria	5	Mayo	2023-06-05T00:00:00	2024-11-08T05:00:00	2	Temperatura media	11.9
105310	7	Sololá	701	Sololá	4	Finca Santa Victoria	5	Mayo	2023-06-05T00:00:00	2024-11-08T05:00:00	4	Temperatura máxima	12.2
105311	7	Sololá	701	Sololá	4	Finca Santa Victoria	5	Mayo	2023-06-05T00:00:00	2024-11-08T05:00:00	3	Temperatura mínima	11.8
105312	7	Sololá	701	Sololá	4	Finca Santa Victoria	5	Mayo	2023-06-05T00:00:00	2024-11-08T05:00:00	5	Humedad	90
105313	7	Sololá	701	Sololá	4	Finca Santa Victoria	5	Mayo	2023-06-05T00:00:00	2024-11-08T05:00:00	6	Velocidad del viento	1.6
105314	7	Sololá	701	Sololá	4	Finca Santa Victoria	5	Mayo	2023-06-05T00:00:00	2024-11-08T05:00:00	7	Dirección del viento	1.61
105315	7	Sololá	701	Sololá	4	Finca Santa Victoria	5	Mayo	2023-06-05T00:00:00	2024-11-08T05:00:00	1	Precipitación	0
105316	7	Sololá	701	Sololá	4	Finca Santa Victoria	5	Mayo	2023-06-05T00:00:00	2024-11-08T05:00:00	8	Radiación solar	0
105317	7	Sololá	701	Sololá	4	Finca Santa Victoria	5	Mayo	2023-06-05T00:00:00	2024-11-08T06:00:00	2	Temperatura media	11.2
105318	7	Sololá	701	Sololá	4	Finca Santa Victoria	5	Mayo	2023-06-05T00:00:00	2024-11-08T06:00:00	4	Temperatura máxima	11.9
105319	7	Sololá	701	Sololá	4	Finca Santa Victoria	5	Mayo	2023-06-05T00:00:00	2024-11-08T06:00:00	3	Temperatura mínima	10.9
105320	7	Sololá	701	Sololá	4	Finca Santa Victoria	5	Mayo	2023-06-05T00:00:00	2024-11-08T06:00:00	5	Humedad	94
105321	7	Sololá	701	Sololá	4	Finca Santa Victoria	5	Mayo	2023-06-05T00:00:00	2024-11-08T06:00:00	6	Velocidad del viento	3.2
105322	7	Sololá	701	Sololá	4	Finca Santa Victoria	5	Mayo	2023-06-05T00:00:00	2024-11-08T06:00:00	7	Dirección del viento	3.22
105323	7	Sololá	701	Sololá	4	Finca Santa Victoria	5	Mayo	2023-06-05T00:00:00	2024-11-08T06:00:00	1	Precipitación	0
105324	7	Sololá	701	Sololá	4	Finca Santa Victoria	5	Mayo	2023-06-05T00:00:00	2024-11-08T06:00:00	8	Radiación solar	1
105325	7	Sololá	701	Sololá	4	Finca Santa Victoria	5	Mayo	2023-06-05T00:00:00	2024-11-08T07:00:00	2	Temperatura media	12.1
105326	7	Sololá	701	Sololá	4	Finca Santa Victoria	5	Mayo	2023-06-05T00:00:00	2024-11-08T07:00:00	4	Temperatura máxima	12.1
105327	7	Sololá	701	Sololá	4	Finca Santa Victoria	5	Mayo	2023-06-05T00:00:00	2024-11-08T07:00:00	3	Temperatura mínima	11.2
105328	7	Sololá	701	Sololá	4	Finca Santa Victoria	5	Mayo	2023-06-05T00:00:00	2024-11-08T07:00:00	5	Humedad	91
105329	7	Sololá	701	Sololá	4	Finca Santa Victoria	5	Mayo	2023-06-05T00:00:00	2024-11-08T07:00:00	6	Velocidad del viento	1.6
105330	7	Sololá	701	Sololá	4	Finca Santa Victoria	5	Mayo	2023-06-05T00:00:00	2024-11-08T07:00:00	7	Dirección del viento	1.61
105331	7	Sololá	701	Sololá	4	Finca Santa Victoria	5	Mayo	2023-06-05T00:00:00	2024-11-08T07:00:00	1	Precipitación	0
105332	7	Sololá	701	Sololá	4	Finca Santa Victoria	5	Mayo	2023-06-05T00:00:00	2024-11-08T07:00:00	8	Radiación solar	25
105333	7	Sololá	701	Sololá	4	Finca Santa Victoria	5	Mayo	2023-06-05T00:00:00	2024-11-08T08:00:00	2	Temperatura media	17.1
105334	7	Sololá	701	Sololá	4	Finca Santa Victoria	5	Mayo	2023-06-05T00:00:00	2024-11-08T08:00:00	4	Temperatura máxima	17.1
105335	7	Sololá	701	Sololá	4	Finca Santa Victoria	5	Mayo	2023-06-05T00:00:00	2024-11-08T08:00:00	3	Temperatura mínima	12.1
105336	7	Sololá	701	Sololá	4	Finca Santa Victoria	5	Mayo	2023-06-05T00:00:00	2024-11-08T08:00:00	5	Humedad	71
105337	7	Sololá	701	Sololá	4	Finca Santa Victoria	5	Mayo	2023-06-05T00:00:00	2024-11-08T08:00:00	6	Velocidad del viento	1.6
105338	7	Sololá	701	Sololá	4	Finca Santa Victoria	5	Mayo	2023-06-05T00:00:00	2024-11-08T08:00:00	7	Dirección del viento	1.61
105339	7	Sololá	701	Sololá	4	Finca Santa Victoria	5	Mayo	2023-06-05T00:00:00	2024-11-08T08:00:00	1	Precipitación	0
105340	7	Sololá	701	Sololá	4	Finca Santa Victoria	5	Mayo	2023-06-05T00:00:00	2024-11-08T08:00:00	8	Radiación solar	272
105341	7	Sololá	701	Sololá	4	Finca Santa Victoria	5	Mayo	2023-06-05T00:00:00	2024-11-08T09:00:00	2	Temperatura media	19.8
105342	7	Sololá	701	Sololá	4	Finca Santa Victoria	5	Mayo	2023-06-05T00:00:00	2024-11-08T09:00:00	4	Temperatura máxima	19.8
105343	7	Sololá	701	Sololá	4	Finca Santa Victoria	5	Mayo	2023-06-05T00:00:00	2024-11-08T09:00:00	3	Temperatura mínima	17.1
105344	7	Sololá	701	Sololá	4	Finca Santa Victoria	5	Mayo	2023-06-05T00:00:00	2024-11-08T09:00:00	5	Humedad	59
105345	7	Sololá	701	Sololá	4	Finca Santa Victoria	5	Mayo	2023-06-05T00:00:00	2024-11-08T09:00:00	6	Velocidad del viento	4.8
105346	7	Sololá	701	Sololá	4	Finca Santa Victoria	5	Mayo	2023-06-05T00:00:00	2024-11-08T09:00:00	7	Dirección del viento	4.83
105347	7	Sololá	701	Sololá	4	Finca Santa Victoria	5	Mayo	2023-06-05T00:00:00	2024-11-08T09:00:00	1	Precipitación	0
105348	7	Sololá	701	Sololá	4	Finca Santa Victoria	5	Mayo	2023-06-05T00:00:00	2024-11-08T09:00:00	8	Radiación solar	374
105349	7	Sololá	701	Sololá	4	Finca Santa Victoria	5	Mayo	2023-06-05T00:00:00	2024-11-08T10:00:00	2	Temperatura media	21.3
105350	7	Sololá	701	Sololá	4	Finca Santa Victoria	5	Mayo	2023-06-05T00:00:00	2024-11-08T10:00:00	4	Temperatura máxima	21.4
105351	7	Sololá	701	Sololá	4	Finca Santa Victoria	5	Mayo	2023-06-05T00:00:00	2024-11-08T10:00:00	3	Temperatura mínima	19.8
105352	7	Sololá	701	Sololá	4	Finca Santa Victoria	5	Mayo	2023-06-05T00:00:00	2024-11-08T10:00:00	5	Humedad	54
105353	7	Sololá	701	Sololá	4	Finca Santa Victoria	5	Mayo	2023-06-05T00:00:00	2024-11-08T10:00:00	6	Velocidad del viento	3.2
105354	7	Sololá	701	Sololá	4	Finca Santa Victoria	5	Mayo	2023-06-05T00:00:00	2024-11-08T10:00:00	7	Dirección del viento	3.22
105355	7	Sololá	701	Sololá	4	Finca Santa Victoria	5	Mayo	2023-06-05T00:00:00	2024-11-08T10:00:00	1	Precipitación	0
105356	7	Sololá	701	Sololá	4	Finca Santa Victoria	5	Mayo	2023-06-05T00:00:00	2024-11-08T10:00:00	8	Radiación solar	283
105357	7	Sololá	701	Sololá	4	Finca Santa Victoria	5	Mayo	2023-06-05T00:00:00	2024-11-08T11:00:00	2	Temperatura media	22.9
105358	7	Sololá	701	Sololá	4	Finca Santa Victoria	5	Mayo	2023-06-05T00:00:00	2024-11-08T11:00:00	4	Temperatura máxima	23
105359	7	Sololá	701	Sololá	4	Finca Santa Victoria	5	Mayo	2023-06-05T00:00:00	2024-11-08T11:00:00	3	Temperatura mínima	21.3
105360	7	Sololá	701	Sololá	4	Finca Santa Victoria	5	Mayo	2023-06-05T00:00:00	2024-11-08T11:00:00	5	Humedad	45
105361	7	Sololá	701	Sololá	4	Finca Santa Victoria	5	Mayo	2023-06-05T00:00:00	2024-11-08T11:00:00	6	Velocidad del viento	4.8
105362	7	Sololá	701	Sololá	4	Finca Santa Victoria	5	Mayo	2023-06-05T00:00:00	2024-11-08T11:00:00	7	Dirección del viento	4.83
105363	7	Sololá	701	Sololá	4	Finca Santa Victoria	5	Mayo	2023-06-05T00:00:00	2024-11-08T11:00:00	1	Precipitación	0
105364	7	Sololá	701	Sololá	4	Finca Santa Victoria	5	Mayo	2023-06-05T00:00:00	2024-11-08T11:00:00	8	Radiación solar	748
105365	7	Sololá	701	Sololá	4	Finca Santa Victoria	5	Mayo	2023-06-05T00:00:00	2024-11-08T12:00:00	2	Temperatura media	24.7
105366	7	Sololá	701	Sololá	4	Finca Santa Victoria	5	Mayo	2023-06-05T00:00:00	2024-11-08T12:00:00	4	Temperatura máxima	24.7
105367	7	Sololá	701	Sololá	4	Finca Santa Victoria	5	Mayo	2023-06-05T00:00:00	2024-11-08T12:00:00	3	Temperatura mínima	22.8
105368	7	Sololá	701	Sololá	4	Finca Santa Victoria	5	Mayo	2023-06-05T00:00:00	2024-11-08T12:00:00	5	Humedad	37
105369	7	Sololá	701	Sololá	4	Finca Santa Victoria	5	Mayo	2023-06-05T00:00:00	2024-11-08T12:00:00	6	Velocidad del viento	3.2
105370	7	Sololá	701	Sololá	4	Finca Santa Victoria	5	Mayo	2023-06-05T00:00:00	2024-11-08T12:00:00	7	Dirección del viento	3.22
105371	7	Sololá	701	Sololá	4	Finca Santa Victoria	5	Mayo	2023-06-05T00:00:00	2024-11-08T12:00:00	1	Precipitación	0
105372	7	Sololá	701	Sololá	4	Finca Santa Victoria	5	Mayo	2023-06-05T00:00:00	2024-11-08T12:00:00	8	Radiación solar	969
105373	7	Sololá	701	Sololá	4	Finca Santa Victoria	5	Mayo	2023-06-05T00:00:00	2024-11-08T13:00:00	2	Temperatura media	24.8
105374	7	Sololá	701	Sololá	4	Finca Santa Victoria	5	Mayo	2023-06-05T00:00:00	2024-11-08T13:00:00	4	Temperatura máxima	25.2
105375	7	Sololá	701	Sololá	4	Finca Santa Victoria	5	Mayo	2023-06-05T00:00:00	2024-11-08T13:00:00	3	Temperatura mínima	24.5
105376	7	Sololá	701	Sololá	4	Finca Santa Victoria	5	Mayo	2023-06-05T00:00:00	2024-11-08T13:00:00	5	Humedad	31
105377	7	Sololá	701	Sololá	4	Finca Santa Victoria	5	Mayo	2023-06-05T00:00:00	2024-11-08T13:00:00	6	Velocidad del viento	4.8
105378	7	Sololá	701	Sololá	4	Finca Santa Victoria	5	Mayo	2023-06-05T00:00:00	2024-11-08T13:00:00	7	Dirección del viento	4.83
105379	7	Sololá	701	Sololá	4	Finca Santa Victoria	5	Mayo	2023-06-05T00:00:00	2024-11-08T13:00:00	1	Precipitación	0
105380	7	Sololá	701	Sololá	4	Finca Santa Victoria	5	Mayo	2023-06-05T00:00:00	2024-11-08T13:00:00	8	Radiación solar	960
105381	7	Sololá	701	Sololá	4	Finca Santa Victoria	5	Mayo	2023-06-05T00:00:00	2024-11-08T14:00:00	2	Temperatura media	24.6
105382	7	Sololá	701	Sololá	4	Finca Santa Victoria	5	Mayo	2023-06-05T00:00:00	2024-11-08T14:00:00	4	Temperatura máxima	25.4
105383	7	Sololá	701	Sololá	4	Finca Santa Victoria	5	Mayo	2023-06-05T00:00:00	2024-11-08T14:00:00	3	Temperatura mínima	24.6
105384	7	Sololá	701	Sololá	4	Finca Santa Victoria	5	Mayo	2023-06-05T00:00:00	2024-11-08T14:00:00	5	Humedad	26
105385	7	Sololá	701	Sololá	4	Finca Santa Victoria	5	Mayo	2023-06-05T00:00:00	2024-11-08T14:00:00	6	Velocidad del viento	4.8
105386	7	Sololá	701	Sololá	4	Finca Santa Victoria	5	Mayo	2023-06-05T00:00:00	2024-11-08T14:00:00	7	Dirección del viento	4.83
105387	7	Sololá	701	Sololá	4	Finca Santa Victoria	5	Mayo	2023-06-05T00:00:00	2024-11-08T14:00:00	1	Precipitación	0
105388	7	Sololá	701	Sololá	4	Finca Santa Victoria	5	Mayo	2023-06-05T00:00:00	2024-11-08T14:00:00	8	Radiación solar	546
105389	7	Sololá	701	Sololá	4	Finca Santa Victoria	5	Mayo	2023-06-05T00:00:00	2024-11-08T15:00:00	2	Temperatura media	23.7
105390	7	Sololá	701	Sololá	4	Finca Santa Victoria	5	Mayo	2023-06-05T00:00:00	2024-11-08T15:00:00	4	Temperatura máxima	24.8
105391	7	Sololá	701	Sololá	4	Finca Santa Victoria	5	Mayo	2023-06-05T00:00:00	2024-11-08T15:00:00	3	Temperatura mínima	23.5
105392	7	Sololá	701	Sololá	4	Finca Santa Victoria	5	Mayo	2023-06-05T00:00:00	2024-11-08T15:00:00	5	Humedad	25
105393	7	Sololá	701	Sololá	4	Finca Santa Victoria	5	Mayo	2023-06-05T00:00:00	2024-11-08T15:00:00	6	Velocidad del viento	4.8
105394	7	Sololá	701	Sololá	4	Finca Santa Victoria	5	Mayo	2023-06-05T00:00:00	2024-11-08T15:00:00	7	Dirección del viento	4.83
105395	7	Sololá	701	Sololá	4	Finca Santa Victoria	5	Mayo	2023-06-05T00:00:00	2024-11-08T15:00:00	1	Precipitación	0
105396	7	Sololá	701	Sololá	4	Finca Santa Victoria	5	Mayo	2023-06-05T00:00:00	2024-11-08T15:00:00	8	Radiación solar	419
105397	7	Sololá	701	Sololá	4	Finca Santa Victoria	5	Mayo	2023-06-05T00:00:00	2024-11-08T16:00:00	2	Temperatura media	23
105398	7	Sololá	701	Sololá	4	Finca Santa Victoria	5	Mayo	2023-06-05T00:00:00	2024-11-08T16:00:00	4	Temperatura máxima	23.8
105399	7	Sololá	701	Sololá	4	Finca Santa Victoria	5	Mayo	2023-06-05T00:00:00	2024-11-08T16:00:00	3	Temperatura mínima	22.6
105400	7	Sololá	701	Sololá	4	Finca Santa Victoria	5	Mayo	2023-06-05T00:00:00	2024-11-08T16:00:00	5	Humedad	39
105401	7	Sololá	701	Sololá	4	Finca Santa Victoria	5	Mayo	2023-06-05T00:00:00	2024-11-08T16:00:00	6	Velocidad del viento	3.2
105402	7	Sololá	701	Sololá	4	Finca Santa Victoria	5	Mayo	2023-06-05T00:00:00	2024-11-08T16:00:00	7	Dirección del viento	3.22
105403	7	Sololá	701	Sololá	4	Finca Santa Victoria	5	Mayo	2023-06-05T00:00:00	2024-11-08T16:00:00	1	Precipitación	0
105404	7	Sololá	701	Sololá	4	Finca Santa Victoria	5	Mayo	2023-06-05T00:00:00	2024-11-08T16:00:00	8	Radiación solar	195
105405	7	Sololá	701	Sololá	4	Finca Santa Victoria	5	Mayo	2023-06-05T00:00:00	2024-11-08T17:00:00	2	Temperatura media	21.7
105406	7	Sololá	701	Sololá	4	Finca Santa Victoria	5	Mayo	2023-06-05T00:00:00	2024-11-08T17:00:00	4	Temperatura máxima	23.1
105407	7	Sololá	701	Sololá	4	Finca Santa Victoria	5	Mayo	2023-06-05T00:00:00	2024-11-08T17:00:00	3	Temperatura mínima	21.7
105408	7	Sololá	701	Sololá	4	Finca Santa Victoria	5	Mayo	2023-06-05T00:00:00	2024-11-08T17:00:00	5	Humedad	47
105409	7	Sololá	701	Sololá	4	Finca Santa Victoria	5	Mayo	2023-06-05T00:00:00	2024-11-08T17:00:00	6	Velocidad del viento	3.2
105410	7	Sololá	701	Sololá	4	Finca Santa Victoria	5	Mayo	2023-06-05T00:00:00	2024-11-08T17:00:00	7	Dirección del viento	3.22
105411	7	Sololá	701	Sololá	4	Finca Santa Victoria	5	Mayo	2023-06-05T00:00:00	2024-11-08T17:00:00	1	Precipitación	0
105412	7	Sololá	701	Sololá	4	Finca Santa Victoria	5	Mayo	2023-06-05T00:00:00	2024-11-08T17:00:00	8	Radiación solar	164
105413	7	Sololá	701	Sololá	4	Finca Santa Victoria	5	Mayo	2023-06-05T00:00:00	2024-11-08T18:00:00	2	Temperatura media	19.7
105414	7	Sololá	701	Sololá	4	Finca Santa Victoria	5	Mayo	2023-06-05T00:00:00	2024-11-08T18:00:00	4	Temperatura máxima	21.7
105415	7	Sololá	701	Sololá	4	Finca Santa Victoria	5	Mayo	2023-06-05T00:00:00	2024-11-08T18:00:00	3	Temperatura mínima	19.7
105416	7	Sololá	701	Sololá	4	Finca Santa Victoria	5	Mayo	2023-06-05T00:00:00	2024-11-08T18:00:00	5	Humedad	53
105417	7	Sololá	701	Sololá	4	Finca Santa Victoria	5	Mayo	2023-06-05T00:00:00	2024-11-08T18:00:00	6	Velocidad del viento	3.2
105418	7	Sololá	701	Sololá	4	Finca Santa Victoria	5	Mayo	2023-06-05T00:00:00	2024-11-08T18:00:00	7	Dirección del viento	3.22
105419	7	Sololá	701	Sololá	4	Finca Santa Victoria	5	Mayo	2023-06-05T00:00:00	2024-11-08T18:00:00	1	Precipitación	0
105420	7	Sololá	701	Sololá	4	Finca Santa Victoria	5	Mayo	2023-06-05T00:00:00	2024-11-08T18:00:00	8	Radiación solar	56
105421	7	Sololá	701	Sololá	4	Finca Santa Victoria	5	Mayo	2023-06-05T00:00:00	2024-11-08T19:00:00	2	Temperatura media	17.9
105422	7	Sololá	701	Sololá	4	Finca Santa Victoria	5	Mayo	2023-06-05T00:00:00	2024-11-08T19:00:00	4	Temperatura máxima	19.7
105423	7	Sololá	701	Sololá	4	Finca Santa Victoria	5	Mayo	2023-06-05T00:00:00	2024-11-08T19:00:00	3	Temperatura mínima	17.9
105424	7	Sololá	701	Sololá	4	Finca Santa Victoria	5	Mayo	2023-06-05T00:00:00	2024-11-08T19:00:00	5	Humedad	59
105425	7	Sololá	701	Sololá	4	Finca Santa Victoria	5	Mayo	2023-06-05T00:00:00	2024-11-08T19:00:00	6	Velocidad del viento	3.2
105426	7	Sololá	701	Sololá	4	Finca Santa Victoria	5	Mayo	2023-06-05T00:00:00	2024-11-08T19:00:00	7	Dirección del viento	3.22
105427	7	Sololá	701	Sololá	4	Finca Santa Victoria	5	Mayo	2023-06-05T00:00:00	2024-11-08T19:00:00	1	Precipitación	0
105428	7	Sololá	701	Sololá	4	Finca Santa Victoria	5	Mayo	2023-06-05T00:00:00	2024-11-08T19:00:00	8	Radiación solar	0
105429	7	Sololá	701	Sololá	4	Finca Santa Victoria	5	Mayo	2023-06-05T00:00:00	2024-11-08T20:00:00	2	Temperatura media	16.1
105430	7	Sololá	701	Sololá	4	Finca Santa Victoria	5	Mayo	2023-06-05T00:00:00	2024-11-08T20:00:00	4	Temperatura máxima	17.9
105431	7	Sololá	701	Sololá	4	Finca Santa Victoria	5	Mayo	2023-06-05T00:00:00	2024-11-08T20:00:00	3	Temperatura mínima	16.1
105432	7	Sololá	701	Sololá	4	Finca Santa Victoria	5	Mayo	2023-06-05T00:00:00	2024-11-08T20:00:00	5	Humedad	60
105433	7	Sololá	701	Sololá	4	Finca Santa Victoria	5	Mayo	2023-06-05T00:00:00	2024-11-08T20:00:00	6	Velocidad del viento	1.6
105434	7	Sololá	701	Sololá	4	Finca Santa Victoria	5	Mayo	2023-06-05T00:00:00	2024-11-08T20:00:00	7	Dirección del viento	1.61
105435	7	Sololá	701	Sololá	4	Finca Santa Victoria	5	Mayo	2023-06-05T00:00:00	2024-11-08T20:00:00	1	Precipitación	0
105436	7	Sololá	701	Sololá	4	Finca Santa Victoria	5	Mayo	2023-06-05T00:00:00	2024-11-08T20:00:00	8	Radiación solar	0
105437	7	Sololá	701	Sololá	4	Finca Santa Victoria	5	Mayo	2023-06-05T00:00:00	2024-11-08T21:00:00	2	Temperatura media	15.6
105438	7	Sololá	701	Sololá	4	Finca Santa Victoria	5	Mayo	2023-06-05T00:00:00	2024-11-08T21:00:00	4	Temperatura máxima	16.1
105439	7	Sololá	701	Sololá	4	Finca Santa Victoria	5	Mayo	2023-06-05T00:00:00	2024-11-08T21:00:00	3	Temperatura mínima	15.6
105440	7	Sololá	701	Sololá	4	Finca Santa Victoria	5	Mayo	2023-06-05T00:00:00	2024-11-08T21:00:00	5	Humedad	66
105441	7	Sololá	701	Sololá	4	Finca Santa Victoria	5	Mayo	2023-06-05T00:00:00	2024-11-08T21:00:00	6	Velocidad del viento	1.6
105442	7	Sololá	701	Sololá	4	Finca Santa Victoria	5	Mayo	2023-06-05T00:00:00	2024-11-08T21:00:00	7	Dirección del viento	1.61
105443	7	Sololá	701	Sololá	4	Finca Santa Victoria	5	Mayo	2023-06-05T00:00:00	2024-11-08T21:00:00	1	Precipitación	0
105444	7	Sololá	701	Sololá	4	Finca Santa Victoria	5	Mayo	2023-06-05T00:00:00	2024-11-08T21:00:00	8	Radiación solar	0
105445	7	Sololá	701	Sololá	4	Finca Santa Victoria	5	Mayo	2023-06-05T00:00:00	2024-11-08T22:00:00	2	Temperatura media	15.1
105446	7	Sololá	701	Sololá	4	Finca Santa Victoria	5	Mayo	2023-06-05T00:00:00	2024-11-08T22:00:00	4	Temperatura máxima	15.7
105447	7	Sololá	701	Sololá	4	Finca Santa Victoria	5	Mayo	2023-06-05T00:00:00	2024-11-08T22:00:00	3	Temperatura mínima	14.9
105448	7	Sololá	701	Sololá	4	Finca Santa Victoria	5	Mayo	2023-06-05T00:00:00	2024-11-08T22:00:00	5	Humedad	70
105449	7	Sololá	701	Sololá	4	Finca Santa Victoria	5	Mayo	2023-06-05T00:00:00	2024-11-08T22:00:00	6	Velocidad del viento	1.6
105450	7	Sololá	701	Sololá	4	Finca Santa Victoria	5	Mayo	2023-06-05T00:00:00	2024-11-08T22:00:00	7	Dirección del viento	1.61
105451	7	Sololá	701	Sololá	4	Finca Santa Victoria	5	Mayo	2023-06-05T00:00:00	2024-11-08T22:00:00	1	Precipitación	0
105452	7	Sololá	701	Sololá	4	Finca Santa Victoria	5	Mayo	2023-06-05T00:00:00	2024-11-08T22:00:00	8	Radiación solar	0
105453	7	Sololá	701	Sololá	4	Finca Santa Victoria	5	Mayo	2023-06-05T00:00:00	2024-11-08T23:00:00	2	Temperatura media	15.1
105454	7	Sololá	701	Sololá	4	Finca Santa Victoria	5	Mayo	2023-06-05T00:00:00	2024-11-08T23:00:00	4	Temperatura máxima	15.4
105455	7	Sololá	701	Sololá	4	Finca Santa Victoria	5	Mayo	2023-06-05T00:00:00	2024-11-08T23:00:00	3	Temperatura mínima	15.1
105456	7	Sololá	701	Sololá	4	Finca Santa Victoria	5	Mayo	2023-06-05T00:00:00	2024-11-08T23:00:00	5	Humedad	72
105457	7	Sololá	701	Sololá	4	Finca Santa Victoria	5	Mayo	2023-06-05T00:00:00	2024-11-08T23:00:00	6	Velocidad del viento	3.2
105458	7	Sololá	701	Sololá	4	Finca Santa Victoria	5	Mayo	2023-06-05T00:00:00	2024-11-08T23:00:00	7	Dirección del viento	3.22
105459	7	Sololá	701	Sololá	4	Finca Santa Victoria	5	Mayo	2023-06-05T00:00:00	2024-11-08T23:00:00	1	Precipitación	0
105460	7	Sololá	701	Sololá	4	Finca Santa Victoria	5	Mayo	2023-06-05T00:00:00	2024-11-08T23:00:00	8	Radiación solar	0
105461	7	Sololá	701	Sololá	4	Finca Santa Victoria	5	Mayo	2023-07-05T00:00:00	2024-11-08T00:00:00	2	Temperatura media	14.7
105462	7	Sololá	701	Sololá	4	Finca Santa Victoria	5	Mayo	2023-07-05T00:00:00	2024-11-08T00:00:00	4	Temperatura máxima	15.2
105463	7	Sololá	701	Sololá	4	Finca Santa Victoria	5	Mayo	2023-07-05T00:00:00	2024-11-08T00:00:00	3	Temperatura mínima	14.6
105464	7	Sololá	701	Sololá	4	Finca Santa Victoria	5	Mayo	2023-07-05T00:00:00	2024-11-08T00:00:00	5	Humedad	68
105465	7	Sololá	701	Sololá	4	Finca Santa Victoria	5	Mayo	2023-07-05T00:00:00	2024-11-08T00:00:00	6	Velocidad del viento	3.2
105466	7	Sololá	701	Sololá	4	Finca Santa Victoria	5	Mayo	2023-07-05T00:00:00	2024-11-08T00:00:00	7	Dirección del viento	3.22
105467	7	Sololá	701	Sololá	4	Finca Santa Victoria	5	Mayo	2023-07-05T00:00:00	2024-11-08T00:00:00	1	Precipitación	0
105468	7	Sololá	701	Sololá	4	Finca Santa Victoria	5	Mayo	2023-07-05T00:00:00	2024-11-08T00:00:00	8	Radiación solar	0
105469	7	Sololá	701	Sololá	4	Finca Santa Victoria	5	Mayo	2023-07-05T00:00:00	2024-11-08T01:00:00	2	Temperatura media	14.3
105470	7	Sololá	701	Sololá	4	Finca Santa Victoria	5	Mayo	2023-07-05T00:00:00	2024-11-08T01:00:00	4	Temperatura máxima	14.8
105471	7	Sololá	701	Sololá	4	Finca Santa Victoria	5	Mayo	2023-07-05T00:00:00	2024-11-08T01:00:00	3	Temperatura mínima	14.2
105472	7	Sololá	701	Sololá	4	Finca Santa Victoria	5	Mayo	2023-07-05T00:00:00	2024-11-08T01:00:00	5	Humedad	73
105473	7	Sololá	701	Sololá	4	Finca Santa Victoria	5	Mayo	2023-07-05T00:00:00	2024-11-08T01:00:00	6	Velocidad del viento	3.2
105474	7	Sololá	701	Sololá	4	Finca Santa Victoria	5	Mayo	2023-07-05T00:00:00	2024-11-08T01:00:00	7	Dirección del viento	3.22
105475	7	Sololá	701	Sololá	4	Finca Santa Victoria	5	Mayo	2023-07-05T00:00:00	2024-11-08T01:00:00	1	Precipitación	0
105476	7	Sololá	701	Sololá	4	Finca Santa Victoria	5	Mayo	2023-07-05T00:00:00	2024-11-08T01:00:00	8	Radiación solar	0
105477	7	Sololá	701	Sololá	4	Finca Santa Victoria	5	Mayo	2023-07-05T00:00:00	2024-11-08T02:00:00	2	Temperatura media	14.3
105478	7	Sololá	701	Sololá	4	Finca Santa Victoria	5	Mayo	2023-07-05T00:00:00	2024-11-08T02:00:00	4	Temperatura máxima	14.4
105479	7	Sololá	701	Sololá	4	Finca Santa Victoria	5	Mayo	2023-07-05T00:00:00	2024-11-08T02:00:00	3	Temperatura mínima	13.4
105480	7	Sololá	701	Sololá	4	Finca Santa Victoria	5	Mayo	2023-07-05T00:00:00	2024-11-08T02:00:00	5	Humedad	56
105481	7	Sololá	701	Sololá	4	Finca Santa Victoria	5	Mayo	2023-07-05T00:00:00	2024-11-08T02:00:00	6	Velocidad del viento	1.6
105482	7	Sololá	701	Sololá	4	Finca Santa Victoria	5	Mayo	2023-07-05T00:00:00	2024-11-08T02:00:00	7	Dirección del viento	1.61
105483	7	Sololá	701	Sololá	4	Finca Santa Victoria	5	Mayo	2023-07-05T00:00:00	2024-11-08T02:00:00	1	Precipitación	0
105484	7	Sololá	701	Sololá	4	Finca Santa Victoria	5	Mayo	2023-07-05T00:00:00	2024-11-08T02:00:00	8	Radiación solar	0
105485	7	Sololá	701	Sololá	4	Finca Santa Victoria	5	Mayo	2023-07-05T00:00:00	2024-11-08T03:00:00	2	Temperatura media	13.7
105486	7	Sololá	701	Sololá	4	Finca Santa Victoria	5	Mayo	2023-07-05T00:00:00	2024-11-08T03:00:00	4	Temperatura máxima	14.3
105487	7	Sololá	701	Sololá	4	Finca Santa Victoria	5	Mayo	2023-07-05T00:00:00	2024-11-08T03:00:00	3	Temperatura mínima	13.4
105488	7	Sololá	701	Sololá	4	Finca Santa Victoria	5	Mayo	2023-07-05T00:00:00	2024-11-08T03:00:00	5	Humedad	55
105489	7	Sololá	701	Sololá	4	Finca Santa Victoria	5	Mayo	2023-07-05T00:00:00	2024-11-08T03:00:00	6	Velocidad del viento	0
105490	7	Sololá	701	Sololá	4	Finca Santa Victoria	5	Mayo	2023-07-05T00:00:00	2024-11-08T03:00:00	7	Dirección del viento	0
105491	7	Sololá	701	Sololá	4	Finca Santa Victoria	5	Mayo	2023-07-05T00:00:00	2024-11-08T03:00:00	1	Precipitación	0
105492	7	Sololá	701	Sololá	4	Finca Santa Victoria	5	Mayo	2023-07-05T00:00:00	2024-11-08T03:00:00	8	Radiación solar	0
105493	7	Sololá	701	Sololá	4	Finca Santa Victoria	5	Mayo	2023-07-05T00:00:00	2024-11-08T04:00:00	2	Temperatura media	13.3
105494	7	Sololá	701	Sololá	4	Finca Santa Victoria	5	Mayo	2023-07-05T00:00:00	2024-11-08T04:00:00	4	Temperatura máxima	13.7
105495	7	Sololá	701	Sololá	4	Finca Santa Victoria	5	Mayo	2023-07-05T00:00:00	2024-11-08T04:00:00	3	Temperatura mínima	13.3
105496	7	Sololá	701	Sololá	4	Finca Santa Victoria	5	Mayo	2023-07-05T00:00:00	2024-11-08T04:00:00	5	Humedad	60
105497	7	Sololá	701	Sololá	4	Finca Santa Victoria	5	Mayo	2023-07-05T00:00:00	2024-11-08T04:00:00	6	Velocidad del viento	0
105498	7	Sololá	701	Sololá	4	Finca Santa Victoria	5	Mayo	2023-07-05T00:00:00	2024-11-08T04:00:00	7	Dirección del viento	0
105499	7	Sololá	701	Sololá	4	Finca Santa Victoria	5	Mayo	2023-07-05T00:00:00	2024-11-08T04:00:00	1	Precipitación	0
105500	7	Sololá	701	Sololá	4	Finca Santa Victoria	5	Mayo	2023-07-05T00:00:00	2024-11-08T04:00:00	8	Radiación solar	0
105501	7	Sololá	701	Sololá	4	Finca Santa Victoria	5	Mayo	2023-07-05T00:00:00	2024-11-08T05:00:00	2	Temperatura media	14.2
105502	7	Sololá	701	Sololá	4	Finca Santa Victoria	5	Mayo	2023-07-05T00:00:00	2024-11-08T05:00:00	4	Temperatura máxima	14.2
105503	7	Sololá	701	Sololá	4	Finca Santa Victoria	5	Mayo	2023-07-05T00:00:00	2024-11-08T05:00:00	3	Temperatura mínima	13.1
105504	7	Sololá	701	Sololá	4	Finca Santa Victoria	5	Mayo	2023-07-05T00:00:00	2024-11-08T05:00:00	5	Humedad	51
105505	7	Sololá	701	Sololá	4	Finca Santa Victoria	5	Mayo	2023-07-05T00:00:00	2024-11-08T05:00:00	6	Velocidad del viento	1.6
105506	7	Sololá	701	Sololá	4	Finca Santa Victoria	5	Mayo	2023-07-05T00:00:00	2024-11-08T05:00:00	7	Dirección del viento	1.61
105507	7	Sololá	701	Sololá	4	Finca Santa Victoria	5	Mayo	2023-07-05T00:00:00	2024-11-08T05:00:00	1	Precipitación	0
105508	7	Sololá	701	Sololá	4	Finca Santa Victoria	5	Mayo	2023-07-05T00:00:00	2024-11-08T05:00:00	8	Radiación solar	0
105509	7	Sololá	701	Sololá	4	Finca Santa Victoria	5	Mayo	2023-07-05T00:00:00	2024-11-08T06:00:00	2	Temperatura media	14.2
105510	7	Sololá	701	Sololá	4	Finca Santa Victoria	5	Mayo	2023-07-05T00:00:00	2024-11-08T06:00:00	4	Temperatura máxima	14.7
105511	7	Sololá	701	Sololá	4	Finca Santa Victoria	5	Mayo	2023-07-05T00:00:00	2024-11-08T06:00:00	3	Temperatura mínima	14.2
105512	7	Sololá	701	Sololá	4	Finca Santa Victoria	5	Mayo	2023-07-05T00:00:00	2024-11-08T06:00:00	5	Humedad	47
105513	7	Sololá	701	Sololá	4	Finca Santa Victoria	5	Mayo	2023-07-05T00:00:00	2024-11-08T06:00:00	6	Velocidad del viento	1.6
105514	7	Sololá	701	Sololá	4	Finca Santa Victoria	5	Mayo	2023-07-05T00:00:00	2024-11-08T06:00:00	7	Dirección del viento	1.61
105515	7	Sololá	701	Sololá	4	Finca Santa Victoria	5	Mayo	2023-07-05T00:00:00	2024-11-08T06:00:00	1	Precipitación	0
105516	7	Sololá	701	Sololá	4	Finca Santa Victoria	5	Mayo	2023-07-05T00:00:00	2024-11-08T06:00:00	8	Radiación solar	2
105517	7	Sololá	701	Sololá	4	Finca Santa Victoria	5	Mayo	2023-07-05T00:00:00	2024-11-08T07:00:00	2	Temperatura media	14.8
105518	7	Sololá	701	Sololá	4	Finca Santa Victoria	5	Mayo	2023-07-05T00:00:00	2024-11-08T07:00:00	4	Temperatura máxima	14.8
105519	7	Sololá	701	Sololá	4	Finca Santa Victoria	5	Mayo	2023-07-05T00:00:00	2024-11-08T07:00:00	3	Temperatura mínima	14.1
105520	7	Sololá	701	Sololá	4	Finca Santa Victoria	5	Mayo	2023-07-05T00:00:00	2024-11-08T07:00:00	5	Humedad	54
105521	7	Sololá	701	Sololá	4	Finca Santa Victoria	5	Mayo	2023-07-05T00:00:00	2024-11-08T07:00:00	6	Velocidad del viento	1.6
105522	7	Sololá	701	Sololá	4	Finca Santa Victoria	5	Mayo	2023-07-05T00:00:00	2024-11-08T07:00:00	7	Dirección del viento	1.61
105523	7	Sololá	701	Sololá	4	Finca Santa Victoria	5	Mayo	2023-07-05T00:00:00	2024-11-08T07:00:00	1	Precipitación	0
105524	7	Sololá	701	Sololá	4	Finca Santa Victoria	5	Mayo	2023-07-05T00:00:00	2024-11-08T07:00:00	8	Radiación solar	43
105525	7	Sololá	701	Sololá	4	Finca Santa Victoria	5	Mayo	2023-07-05T00:00:00	2024-11-08T08:00:00	2	Temperatura media	17.4
105526	7	Sololá	701	Sololá	4	Finca Santa Victoria	5	Mayo	2023-07-05T00:00:00	2024-11-08T08:00:00	4	Temperatura máxima	17.4
105527	7	Sololá	701	Sololá	4	Finca Santa Victoria	5	Mayo	2023-07-05T00:00:00	2024-11-08T08:00:00	3	Temperatura mínima	14.8
105528	7	Sololá	701	Sololá	4	Finca Santa Victoria	5	Mayo	2023-07-05T00:00:00	2024-11-08T08:00:00	5	Humedad	52
105529	7	Sololá	701	Sololá	4	Finca Santa Victoria	5	Mayo	2023-07-05T00:00:00	2024-11-08T08:00:00	6	Velocidad del viento	1.6
105530	7	Sololá	701	Sololá	4	Finca Santa Victoria	5	Mayo	2023-07-05T00:00:00	2024-11-08T08:00:00	7	Dirección del viento	1.61
105531	7	Sololá	701	Sololá	4	Finca Santa Victoria	5	Mayo	2023-07-05T00:00:00	2024-11-08T08:00:00	1	Precipitación	0
105532	7	Sololá	701	Sololá	4	Finca Santa Victoria	5	Mayo	2023-07-05T00:00:00	2024-11-08T08:00:00	8	Radiación solar	200
105533	7	Sololá	701	Sololá	4	Finca Santa Victoria	5	Mayo	2023-07-05T00:00:00	2024-11-08T09:00:00	2	Temperatura media	20.7
105534	7	Sololá	701	Sololá	4	Finca Santa Victoria	5	Mayo	2023-07-05T00:00:00	2024-11-08T09:00:00	4	Temperatura máxima	20.7
105535	7	Sololá	701	Sololá	4	Finca Santa Victoria	5	Mayo	2023-07-05T00:00:00	2024-11-08T09:00:00	3	Temperatura mínima	17.4
105536	7	Sololá	701	Sololá	4	Finca Santa Victoria	5	Mayo	2023-07-05T00:00:00	2024-11-08T09:00:00	5	Humedad	40
105537	7	Sololá	701	Sololá	4	Finca Santa Victoria	5	Mayo	2023-07-05T00:00:00	2024-11-08T09:00:00	6	Velocidad del viento	3.2
105538	7	Sololá	701	Sololá	4	Finca Santa Victoria	5	Mayo	2023-07-05T00:00:00	2024-11-08T09:00:00	7	Dirección del viento	3.22
105539	7	Sololá	701	Sololá	4	Finca Santa Victoria	5	Mayo	2023-07-05T00:00:00	2024-11-08T09:00:00	1	Precipitación	0
105540	7	Sololá	701	Sololá	4	Finca Santa Victoria	5	Mayo	2023-07-05T00:00:00	2024-11-08T09:00:00	8	Radiación solar	372
105541	7	Sololá	701	Sololá	4	Finca Santa Victoria	5	Mayo	2023-07-05T00:00:00	2024-11-08T10:00:00	2	Temperatura media	22
105542	7	Sololá	701	Sololá	4	Finca Santa Victoria	5	Mayo	2023-07-05T00:00:00	2024-11-08T10:00:00	4	Temperatura máxima	22.1
105543	7	Sololá	701	Sololá	4	Finca Santa Victoria	5	Mayo	2023-07-05T00:00:00	2024-11-08T10:00:00	3	Temperatura mínima	20.7
105544	7	Sololá	701	Sololá	4	Finca Santa Victoria	5	Mayo	2023-07-05T00:00:00	2024-11-08T10:00:00	5	Humedad	37
105545	7	Sololá	701	Sololá	4	Finca Santa Victoria	5	Mayo	2023-07-05T00:00:00	2024-11-08T10:00:00	6	Velocidad del viento	3.2
105546	7	Sololá	701	Sololá	4	Finca Santa Victoria	5	Mayo	2023-07-05T00:00:00	2024-11-08T10:00:00	7	Dirección del viento	3.22
105547	7	Sololá	701	Sololá	4	Finca Santa Victoria	5	Mayo	2023-07-05T00:00:00	2024-11-08T10:00:00	1	Precipitación	0
105548	7	Sololá	701	Sololá	4	Finca Santa Victoria	5	Mayo	2023-07-05T00:00:00	2024-11-08T10:00:00	8	Radiación solar	289
105549	7	Sololá	701	Sololá	4	Finca Santa Victoria	5	Mayo	2023-07-05T00:00:00	2024-11-08T11:00:00	2	Temperatura media	23.3
105550	7	Sololá	701	Sololá	4	Finca Santa Victoria	5	Mayo	2023-07-05T00:00:00	2024-11-08T11:00:00	4	Temperatura máxima	23.4
105551	7	Sololá	701	Sololá	4	Finca Santa Victoria	5	Mayo	2023-07-05T00:00:00	2024-11-08T11:00:00	3	Temperatura mínima	21.9
105552	7	Sololá	701	Sololá	4	Finca Santa Victoria	5	Mayo	2023-07-05T00:00:00	2024-11-08T11:00:00	5	Humedad	29
105553	7	Sololá	701	Sololá	4	Finca Santa Victoria	5	Mayo	2023-07-05T00:00:00	2024-11-08T11:00:00	6	Velocidad del viento	4.8
105554	7	Sololá	701	Sololá	4	Finca Santa Victoria	5	Mayo	2023-07-05T00:00:00	2024-11-08T11:00:00	7	Dirección del viento	4.83
105555	7	Sololá	701	Sololá	4	Finca Santa Victoria	5	Mayo	2023-07-05T00:00:00	2024-11-08T11:00:00	1	Precipitación	0
105556	7	Sololá	701	Sololá	4	Finca Santa Victoria	5	Mayo	2023-07-05T00:00:00	2024-11-08T11:00:00	8	Radiación solar	738
105557	7	Sololá	701	Sololá	4	Finca Santa Victoria	5	Mayo	2023-07-05T00:00:00	2024-11-08T12:00:00	2	Temperatura media	24.6
105558	7	Sololá	701	Sololá	4	Finca Santa Victoria	5	Mayo	2023-07-05T00:00:00	2024-11-08T12:00:00	4	Temperatura máxima	24.6
105559	7	Sololá	701	Sololá	4	Finca Santa Victoria	5	Mayo	2023-07-05T00:00:00	2024-11-08T12:00:00	3	Temperatura mínima	23.3
105560	7	Sololá	701	Sololá	4	Finca Santa Victoria	5	Mayo	2023-07-05T00:00:00	2024-11-08T12:00:00	5	Humedad	37
105561	7	Sololá	701	Sololá	4	Finca Santa Victoria	5	Mayo	2023-07-05T00:00:00	2024-11-08T12:00:00	6	Velocidad del viento	3.2
105562	7	Sololá	701	Sololá	4	Finca Santa Victoria	5	Mayo	2023-07-05T00:00:00	2024-11-08T12:00:00	7	Dirección del viento	3.22
105563	7	Sololá	701	Sololá	4	Finca Santa Victoria	5	Mayo	2023-07-05T00:00:00	2024-11-08T12:00:00	1	Precipitación	0
105564	7	Sololá	701	Sololá	4	Finca Santa Victoria	5	Mayo	2023-07-05T00:00:00	2024-11-08T12:00:00	8	Radiación solar	983
105565	7	Sololá	701	Sololá	4	Finca Santa Victoria	5	Mayo	2023-07-05T00:00:00	2024-11-08T13:00:00	2	Temperatura media	24.9
105566	7	Sololá	701	Sololá	4	Finca Santa Victoria	5	Mayo	2023-07-05T00:00:00	2024-11-08T13:00:00	4	Temperatura máxima	25.2
105567	7	Sololá	701	Sololá	4	Finca Santa Victoria	5	Mayo	2023-07-05T00:00:00	2024-11-08T13:00:00	3	Temperatura mínima	24.3
105568	7	Sololá	701	Sololá	4	Finca Santa Victoria	5	Mayo	2023-07-05T00:00:00	2024-11-08T13:00:00	5	Humedad	29
105569	7	Sololá	701	Sololá	4	Finca Santa Victoria	5	Mayo	2023-07-05T00:00:00	2024-11-08T13:00:00	6	Velocidad del viento	4.8
105570	7	Sololá	701	Sololá	4	Finca Santa Victoria	5	Mayo	2023-07-05T00:00:00	2024-11-08T13:00:00	7	Dirección del viento	4.83
105571	7	Sololá	701	Sololá	4	Finca Santa Victoria	5	Mayo	2023-07-05T00:00:00	2024-11-08T13:00:00	1	Precipitación	0
105572	7	Sololá	701	Sololá	4	Finca Santa Victoria	5	Mayo	2023-07-05T00:00:00	2024-11-08T13:00:00	8	Radiación solar	987
105573	7	Sololá	701	Sololá	4	Finca Santa Victoria	5	Mayo	2023-07-05T00:00:00	2024-11-08T14:00:00	2	Temperatura media	25.5
105574	7	Sololá	701	Sololá	4	Finca Santa Victoria	5	Mayo	2023-07-05T00:00:00	2024-11-08T14:00:00	4	Temperatura máxima	25.8
105575	7	Sololá	701	Sololá	4	Finca Santa Victoria	5	Mayo	2023-07-05T00:00:00	2024-11-08T14:00:00	3	Temperatura mínima	24.9
105576	7	Sololá	701	Sololá	4	Finca Santa Victoria	5	Mayo	2023-07-05T00:00:00	2024-11-08T14:00:00	5	Humedad	21
105577	7	Sololá	701	Sololá	4	Finca Santa Victoria	5	Mayo	2023-07-05T00:00:00	2024-11-08T14:00:00	6	Velocidad del viento	4.8
105578	7	Sololá	701	Sololá	4	Finca Santa Victoria	5	Mayo	2023-07-05T00:00:00	2024-11-08T14:00:00	7	Dirección del viento	4.83
105579	7	Sololá	701	Sololá	4	Finca Santa Victoria	5	Mayo	2023-07-05T00:00:00	2024-11-08T14:00:00	1	Precipitación	0
105580	7	Sololá	701	Sololá	4	Finca Santa Victoria	5	Mayo	2023-07-05T00:00:00	2024-11-08T14:00:00	8	Radiación solar	517
105581	7	Sololá	701	Sololá	4	Finca Santa Victoria	5	Mayo	2023-07-05T00:00:00	2024-11-08T15:00:00	2	Temperatura media	24.8
105582	7	Sololá	701	Sololá	4	Finca Santa Victoria	5	Mayo	2023-07-05T00:00:00	2024-11-08T15:00:00	4	Temperatura máxima	25.8
105583	7	Sololá	701	Sololá	4	Finca Santa Victoria	5	Mayo	2023-07-05T00:00:00	2024-11-08T15:00:00	3	Temperatura mínima	24.7
105584	7	Sololá	701	Sololá	4	Finca Santa Victoria	5	Mayo	2023-07-05T00:00:00	2024-11-08T15:00:00	5	Humedad	24
105585	7	Sololá	701	Sololá	4	Finca Santa Victoria	5	Mayo	2023-07-05T00:00:00	2024-11-08T15:00:00	6	Velocidad del viento	4.8
105586	7	Sololá	701	Sololá	4	Finca Santa Victoria	5	Mayo	2023-07-05T00:00:00	2024-11-08T15:00:00	7	Dirección del viento	4.83
105587	7	Sololá	701	Sololá	4	Finca Santa Victoria	5	Mayo	2023-07-05T00:00:00	2024-11-08T15:00:00	1	Precipitación	0
105588	7	Sololá	701	Sololá	4	Finca Santa Victoria	5	Mayo	2023-07-05T00:00:00	2024-11-08T15:00:00	8	Radiación solar	409
105589	7	Sololá	701	Sololá	4	Finca Santa Victoria	5	Mayo	2023-07-05T00:00:00	2024-11-08T16:00:00	2	Temperatura media	24.3
105590	7	Sololá	701	Sololá	4	Finca Santa Victoria	5	Mayo	2023-07-05T00:00:00	2024-11-08T16:00:00	4	Temperatura máxima	24.9
105591	7	Sololá	701	Sololá	4	Finca Santa Victoria	5	Mayo	2023-07-05T00:00:00	2024-11-08T16:00:00	3	Temperatura mínima	24.3
105592	7	Sololá	701	Sololá	4	Finca Santa Victoria	5	Mayo	2023-07-05T00:00:00	2024-11-08T16:00:00	5	Humedad	34
105593	7	Sololá	701	Sololá	4	Finca Santa Victoria	5	Mayo	2023-07-05T00:00:00	2024-11-08T16:00:00	6	Velocidad del viento	4.8
105594	7	Sololá	701	Sololá	4	Finca Santa Victoria	5	Mayo	2023-07-05T00:00:00	2024-11-08T16:00:00	7	Dirección del viento	4.83
105595	7	Sololá	701	Sololá	4	Finca Santa Victoria	5	Mayo	2023-07-05T00:00:00	2024-11-08T16:00:00	1	Precipitación	0
105596	7	Sololá	701	Sololá	4	Finca Santa Victoria	5	Mayo	2023-07-05T00:00:00	2024-11-08T16:00:00	8	Radiación solar	220
105597	7	Sololá	701	Sololá	4	Finca Santa Victoria	5	Mayo	2023-07-05T00:00:00	2024-11-08T17:00:00	2	Temperatura media	22.8
105598	7	Sololá	701	Sololá	4	Finca Santa Victoria	5	Mayo	2023-07-05T00:00:00	2024-11-08T17:00:00	4	Temperatura máxima	24.3
105599	7	Sololá	701	Sololá	4	Finca Santa Victoria	5	Mayo	2023-07-05T00:00:00	2024-11-08T17:00:00	3	Temperatura mínima	22.8
105600	7	Sololá	701	Sololá	4	Finca Santa Victoria	5	Mayo	2023-07-05T00:00:00	2024-11-08T17:00:00	5	Humedad	47
105601	7	Sololá	701	Sololá	4	Finca Santa Victoria	5	Mayo	2023-07-05T00:00:00	2024-11-08T17:00:00	6	Velocidad del viento	3.2
105602	7	Sololá	701	Sololá	4	Finca Santa Victoria	5	Mayo	2023-07-05T00:00:00	2024-11-08T17:00:00	7	Dirección del viento	3.22
105603	7	Sololá	701	Sololá	4	Finca Santa Victoria	5	Mayo	2023-07-05T00:00:00	2024-11-08T17:00:00	1	Precipitación	0
105604	7	Sololá	701	Sololá	4	Finca Santa Victoria	5	Mayo	2023-07-05T00:00:00	2024-11-08T17:00:00	8	Radiación solar	139
105605	7	Sololá	701	Sololá	4	Finca Santa Victoria	5	Mayo	2023-07-05T00:00:00	2024-11-08T18:00:00	2	Temperatura media	20.7
105606	7	Sololá	701	Sololá	4	Finca Santa Victoria	5	Mayo	2023-07-05T00:00:00	2024-11-08T18:00:00	4	Temperatura máxima	22.8
105607	7	Sololá	701	Sololá	4	Finca Santa Victoria	5	Mayo	2023-07-05T00:00:00	2024-11-08T18:00:00	3	Temperatura mínima	20.7
105608	7	Sololá	701	Sololá	4	Finca Santa Victoria	5	Mayo	2023-07-05T00:00:00	2024-11-08T18:00:00	5	Humedad	53
105609	7	Sololá	701	Sololá	4	Finca Santa Victoria	5	Mayo	2023-07-05T00:00:00	2024-11-08T18:00:00	6	Velocidad del viento	3.2
105610	7	Sololá	701	Sololá	4	Finca Santa Victoria	5	Mayo	2023-07-05T00:00:00	2024-11-08T18:00:00	7	Dirección del viento	3.22
105611	7	Sololá	701	Sololá	4	Finca Santa Victoria	5	Mayo	2023-07-05T00:00:00	2024-11-08T18:00:00	1	Precipitación	0
105612	7	Sololá	701	Sololá	4	Finca Santa Victoria	5	Mayo	2023-07-05T00:00:00	2024-11-08T18:00:00	8	Radiación solar	49
105613	7	Sololá	701	Sololá	4	Finca Santa Victoria	5	Mayo	2023-07-05T00:00:00	2024-11-08T19:00:00	2	Temperatura media	18.6
105614	7	Sololá	701	Sololá	4	Finca Santa Victoria	5	Mayo	2023-07-05T00:00:00	2024-11-08T19:00:00	4	Temperatura máxima	20.7
105615	7	Sololá	701	Sololá	4	Finca Santa Victoria	5	Mayo	2023-07-05T00:00:00	2024-11-08T19:00:00	3	Temperatura mínima	18.6
105616	7	Sololá	701	Sololá	4	Finca Santa Victoria	5	Mayo	2023-07-05T00:00:00	2024-11-08T19:00:00	5	Humedad	65
105617	7	Sololá	701	Sololá	4	Finca Santa Victoria	5	Mayo	2023-07-05T00:00:00	2024-11-08T19:00:00	6	Velocidad del viento	3.2
105618	7	Sololá	701	Sololá	4	Finca Santa Victoria	5	Mayo	2023-07-05T00:00:00	2024-11-08T19:00:00	7	Dirección del viento	3.22
105619	7	Sololá	701	Sololá	4	Finca Santa Victoria	5	Mayo	2023-07-05T00:00:00	2024-11-08T19:00:00	1	Precipitación	0
105620	7	Sololá	701	Sololá	4	Finca Santa Victoria	5	Mayo	2023-07-05T00:00:00	2024-11-08T19:00:00	8	Radiación solar	0
105621	7	Sololá	701	Sololá	4	Finca Santa Victoria	5	Mayo	2023-07-05T00:00:00	2024-11-08T20:00:00	2	Temperatura media	17
105622	7	Sololá	701	Sololá	4	Finca Santa Victoria	5	Mayo	2023-07-05T00:00:00	2024-11-08T20:00:00	4	Temperatura máxima	18.6
105623	7	Sololá	701	Sololá	4	Finca Santa Victoria	5	Mayo	2023-07-05T00:00:00	2024-11-08T20:00:00	3	Temperatura mínima	17
105624	7	Sololá	701	Sololá	4	Finca Santa Victoria	5	Mayo	2023-07-05T00:00:00	2024-11-08T20:00:00	5	Humedad	73
105625	7	Sololá	701	Sololá	4	Finca Santa Victoria	5	Mayo	2023-07-05T00:00:00	2024-11-08T20:00:00	6	Velocidad del viento	1.6
105626	7	Sololá	701	Sololá	4	Finca Santa Victoria	5	Mayo	2023-07-05T00:00:00	2024-11-08T20:00:00	7	Dirección del viento	1.61
105627	7	Sololá	701	Sololá	4	Finca Santa Victoria	5	Mayo	2023-07-05T00:00:00	2024-11-08T20:00:00	1	Precipitación	0
105628	7	Sololá	701	Sololá	4	Finca Santa Victoria	5	Mayo	2023-07-05T00:00:00	2024-11-08T20:00:00	8	Radiación solar	0
105629	7	Sololá	701	Sololá	4	Finca Santa Victoria	5	Mayo	2023-07-05T00:00:00	2024-11-08T21:00:00	2	Temperatura media	15.9
105630	7	Sololá	701	Sololá	4	Finca Santa Victoria	5	Mayo	2023-07-05T00:00:00	2024-11-08T21:00:00	4	Temperatura máxima	17
105631	7	Sololá	701	Sololá	4	Finca Santa Victoria	5	Mayo	2023-07-05T00:00:00	2024-11-08T21:00:00	3	Temperatura mínima	15.9
105632	7	Sololá	701	Sololá	4	Finca Santa Victoria	5	Mayo	2023-07-05T00:00:00	2024-11-08T21:00:00	5	Humedad	79
105633	7	Sololá	701	Sololá	4	Finca Santa Victoria	5	Mayo	2023-07-05T00:00:00	2024-11-08T21:00:00	6	Velocidad del viento	3.2
105634	7	Sololá	701	Sololá	4	Finca Santa Victoria	5	Mayo	2023-07-05T00:00:00	2024-11-08T21:00:00	7	Dirección del viento	3.22
105635	7	Sololá	701	Sololá	4	Finca Santa Victoria	5	Mayo	2023-07-05T00:00:00	2024-11-08T21:00:00	1	Precipitación	0
105636	7	Sololá	701	Sololá	4	Finca Santa Victoria	5	Mayo	2023-07-05T00:00:00	2024-11-08T21:00:00	8	Radiación solar	0
105637	7	Sololá	701	Sololá	4	Finca Santa Victoria	5	Mayo	2023-07-05T00:00:00	2024-11-08T22:00:00	2	Temperatura media	15.1
105638	7	Sololá	701	Sololá	4	Finca Santa Victoria	5	Mayo	2023-07-05T00:00:00	2024-11-08T22:00:00	4	Temperatura máxima	15.9
105639	7	Sololá	701	Sololá	4	Finca Santa Victoria	5	Mayo	2023-07-05T00:00:00	2024-11-08T22:00:00	3	Temperatura mínima	15
105640	7	Sololá	701	Sololá	4	Finca Santa Victoria	5	Mayo	2023-07-05T00:00:00	2024-11-08T22:00:00	5	Humedad	84
105641	7	Sololá	701	Sololá	4	Finca Santa Victoria	5	Mayo	2023-07-05T00:00:00	2024-11-08T22:00:00	6	Velocidad del viento	1.6
105642	7	Sololá	701	Sololá	4	Finca Santa Victoria	5	Mayo	2023-07-05T00:00:00	2024-11-08T22:00:00	7	Dirección del viento	1.61
105643	7	Sololá	701	Sololá	4	Finca Santa Victoria	5	Mayo	2023-07-05T00:00:00	2024-11-08T22:00:00	1	Precipitación	0
105644	7	Sololá	701	Sololá	4	Finca Santa Victoria	5	Mayo	2023-07-05T00:00:00	2024-11-08T22:00:00	8	Radiación solar	0
105645	7	Sololá	701	Sololá	4	Finca Santa Victoria	5	Mayo	2023-07-05T00:00:00	2024-11-08T23:00:00	2	Temperatura media	14.7
105646	7	Sololá	701	Sololá	4	Finca Santa Victoria	5	Mayo	2023-07-05T00:00:00	2024-11-08T23:00:00	4	Temperatura máxima	15.1
105647	7	Sololá	701	Sololá	4	Finca Santa Victoria	5	Mayo	2023-07-05T00:00:00	2024-11-08T23:00:00	3	Temperatura mínima	14.7
105648	7	Sololá	701	Sololá	4	Finca Santa Victoria	5	Mayo	2023-07-05T00:00:00	2024-11-08T23:00:00	5	Humedad	82
105649	7	Sololá	701	Sololá	4	Finca Santa Victoria	5	Mayo	2023-07-05T00:00:00	2024-11-08T23:00:00	6	Velocidad del viento	3.2
105650	7	Sololá	701	Sololá	4	Finca Santa Victoria	5	Mayo	2023-07-05T00:00:00	2024-11-08T23:00:00	7	Dirección del viento	3.22
105651	7	Sololá	701	Sololá	4	Finca Santa Victoria	5	Mayo	2023-07-05T00:00:00	2024-11-08T23:00:00	1	Precipitación	0
105652	7	Sololá	701	Sololá	4	Finca Santa Victoria	5	Mayo	2023-07-05T00:00:00	2024-11-08T23:00:00	8	Radiación solar	0
105653	7	Sololá	701	Sololá	4	Finca Santa Victoria	5	Mayo	2023-08-05T00:00:00	2024-11-08T00:00:00	2	Temperatura media	13.9
105654	7	Sololá	701	Sololá	4	Finca Santa Victoria	5	Mayo	2023-08-05T00:00:00	2024-11-08T00:00:00	4	Temperatura máxima	14.7
105655	7	Sololá	701	Sololá	4	Finca Santa Victoria	5	Mayo	2023-08-05T00:00:00	2024-11-08T00:00:00	3	Temperatura mínima	13.9
105656	7	Sololá	701	Sololá	4	Finca Santa Victoria	5	Mayo	2023-08-05T00:00:00	2024-11-08T00:00:00	5	Humedad	83
105657	7	Sololá	701	Sololá	4	Finca Santa Victoria	5	Mayo	2023-08-05T00:00:00	2024-11-08T00:00:00	6	Velocidad del viento	1.6
105658	7	Sololá	701	Sololá	4	Finca Santa Victoria	5	Mayo	2023-08-05T00:00:00	2024-11-08T00:00:00	7	Dirección del viento	1.61
105659	7	Sololá	701	Sololá	4	Finca Santa Victoria	5	Mayo	2023-08-05T00:00:00	2024-11-08T00:00:00	1	Precipitación	0
105660	7	Sololá	701	Sololá	4	Finca Santa Victoria	5	Mayo	2023-08-05T00:00:00	2024-11-08T00:00:00	8	Radiación solar	0
105661	7	Sololá	701	Sololá	4	Finca Santa Victoria	5	Mayo	2023-08-05T00:00:00	2024-11-08T01:00:00	2	Temperatura media	13.2
105662	7	Sololá	701	Sololá	4	Finca Santa Victoria	5	Mayo	2023-08-05T00:00:00	2024-11-08T01:00:00	4	Temperatura máxima	13.9
105663	7	Sololá	701	Sololá	4	Finca Santa Victoria	5	Mayo	2023-08-05T00:00:00	2024-11-08T01:00:00	3	Temperatura mínima	13.2
105664	7	Sololá	701	Sololá	4	Finca Santa Victoria	5	Mayo	2023-08-05T00:00:00	2024-11-08T01:00:00	5	Humedad	87
105665	7	Sololá	701	Sololá	4	Finca Santa Victoria	5	Mayo	2023-08-05T00:00:00	2024-11-08T01:00:00	6	Velocidad del viento	0
105666	7	Sololá	701	Sololá	4	Finca Santa Victoria	5	Mayo	2023-08-05T00:00:00	2024-11-08T01:00:00	7	Dirección del viento	0
105667	7	Sololá	701	Sololá	4	Finca Santa Victoria	5	Mayo	2023-08-05T00:00:00	2024-11-08T01:00:00	1	Precipitación	0
105668	7	Sololá	701	Sololá	4	Finca Santa Victoria	5	Mayo	2023-08-05T00:00:00	2024-11-08T01:00:00	8	Radiación solar	0
105669	7	Sololá	701	Sololá	4	Finca Santa Victoria	5	Mayo	2023-08-05T00:00:00	2024-11-08T02:00:00	2	Temperatura media	12.4
105670	7	Sololá	701	Sololá	4	Finca Santa Victoria	5	Mayo	2023-08-05T00:00:00	2024-11-08T02:00:00	4	Temperatura máxima	13.2
105671	7	Sololá	701	Sololá	4	Finca Santa Victoria	5	Mayo	2023-08-05T00:00:00	2024-11-08T02:00:00	3	Temperatura mínima	12.4
105672	7	Sololá	701	Sololá	4	Finca Santa Victoria	5	Mayo	2023-08-05T00:00:00	2024-11-08T02:00:00	5	Humedad	91
105673	7	Sololá	701	Sololá	4	Finca Santa Victoria	5	Mayo	2023-08-05T00:00:00	2024-11-08T02:00:00	6	Velocidad del viento	1.6
105674	7	Sololá	701	Sololá	4	Finca Santa Victoria	5	Mayo	2023-08-05T00:00:00	2024-11-08T02:00:00	7	Dirección del viento	1.61
105675	7	Sololá	701	Sololá	4	Finca Santa Victoria	5	Mayo	2023-08-05T00:00:00	2024-11-08T02:00:00	1	Precipitación	0
105676	7	Sololá	701	Sololá	4	Finca Santa Victoria	5	Mayo	2023-08-05T00:00:00	2024-11-08T02:00:00	8	Radiación solar	0
105677	7	Sololá	701	Sololá	4	Finca Santa Victoria	5	Mayo	2023-08-05T00:00:00	2024-11-08T03:00:00	2	Temperatura media	12.2
105678	7	Sololá	701	Sololá	4	Finca Santa Victoria	5	Mayo	2023-08-05T00:00:00	2024-11-08T03:00:00	4	Temperatura máxima	12.6
105679	7	Sololá	701	Sololá	4	Finca Santa Victoria	5	Mayo	2023-08-05T00:00:00	2024-11-08T03:00:00	3	Temperatura mínima	12.2
105680	7	Sololá	701	Sololá	4	Finca Santa Victoria	5	Mayo	2023-08-05T00:00:00	2024-11-08T03:00:00	5	Humedad	87
105681	7	Sololá	701	Sololá	4	Finca Santa Victoria	5	Mayo	2023-08-05T00:00:00	2024-11-08T03:00:00	6	Velocidad del viento	1.6
105682	7	Sololá	701	Sololá	4	Finca Santa Victoria	5	Mayo	2023-08-05T00:00:00	2024-11-08T03:00:00	7	Dirección del viento	1.61
105683	7	Sololá	701	Sololá	4	Finca Santa Victoria	5	Mayo	2023-08-05T00:00:00	2024-11-08T03:00:00	1	Precipitación	0
105684	7	Sololá	701	Sololá	4	Finca Santa Victoria	5	Mayo	2023-08-05T00:00:00	2024-11-08T03:00:00	8	Radiación solar	0
105685	7	Sololá	701	Sololá	4	Finca Santa Victoria	5	Mayo	2023-08-05T00:00:00	2024-11-08T04:00:00	2	Temperatura media	12.2
105686	7	Sololá	701	Sololá	4	Finca Santa Victoria	5	Mayo	2023-08-05T00:00:00	2024-11-08T04:00:00	4	Temperatura máxima	12.3
105687	7	Sololá	701	Sololá	4	Finca Santa Victoria	5	Mayo	2023-08-05T00:00:00	2024-11-08T04:00:00	3	Temperatura mínima	11.9
105688	7	Sololá	701	Sololá	4	Finca Santa Victoria	5	Mayo	2023-08-05T00:00:00	2024-11-08T04:00:00	5	Humedad	74
105689	7	Sololá	701	Sololá	4	Finca Santa Victoria	5	Mayo	2023-08-05T00:00:00	2024-11-08T04:00:00	6	Velocidad del viento	1.6
105690	7	Sololá	701	Sololá	4	Finca Santa Victoria	5	Mayo	2023-08-05T00:00:00	2024-11-08T04:00:00	7	Dirección del viento	1.61
105691	7	Sololá	701	Sololá	4	Finca Santa Victoria	5	Mayo	2023-08-05T00:00:00	2024-11-08T04:00:00	1	Precipitación	0
105692	7	Sololá	701	Sololá	4	Finca Santa Victoria	5	Mayo	2023-08-05T00:00:00	2024-11-08T04:00:00	8	Radiación solar	0
105693	7	Sololá	701	Sololá	4	Finca Santa Victoria	5	Mayo	2023-08-05T00:00:00	2024-11-08T05:00:00	2	Temperatura media	12.4
105694	7	Sololá	701	Sololá	4	Finca Santa Victoria	5	Mayo	2023-08-05T00:00:00	2024-11-08T05:00:00	4	Temperatura máxima	12.7
105695	7	Sololá	701	Sololá	4	Finca Santa Victoria	5	Mayo	2023-08-05T00:00:00	2024-11-08T05:00:00	3	Temperatura mínima	12
105696	7	Sololá	701	Sololá	4	Finca Santa Victoria	5	Mayo	2023-08-05T00:00:00	2024-11-08T05:00:00	5	Humedad	65
105697	7	Sololá	701	Sololá	4	Finca Santa Victoria	5	Mayo	2023-08-05T00:00:00	2024-11-08T05:00:00	6	Velocidad del viento	1.6
105698	7	Sololá	701	Sololá	4	Finca Santa Victoria	5	Mayo	2023-08-05T00:00:00	2024-11-08T05:00:00	7	Dirección del viento	1.61
105699	7	Sololá	701	Sololá	4	Finca Santa Victoria	5	Mayo	2023-08-05T00:00:00	2024-11-08T05:00:00	1	Precipitación	0
105700	7	Sololá	701	Sololá	4	Finca Santa Victoria	5	Mayo	2023-08-05T00:00:00	2024-11-08T05:00:00	8	Radiación solar	0
105701	7	Sololá	701	Sololá	4	Finca Santa Victoria	5	Mayo	2023-08-05T00:00:00	2024-11-08T06:00:00	2	Temperatura media	12.4
105702	7	Sololá	701	Sololá	4	Finca Santa Victoria	5	Mayo	2023-08-05T00:00:00	2024-11-08T06:00:00	4	Temperatura máxima	12.4
105703	7	Sololá	701	Sololá	4	Finca Santa Victoria	5	Mayo	2023-08-05T00:00:00	2024-11-08T06:00:00	3	Temperatura mínima	12.1
105704	7	Sololá	701	Sololá	4	Finca Santa Victoria	5	Mayo	2023-08-05T00:00:00	2024-11-08T06:00:00	5	Humedad	65
105705	7	Sololá	701	Sololá	4	Finca Santa Victoria	5	Mayo	2023-08-05T00:00:00	2024-11-08T06:00:00	6	Velocidad del viento	1.6
105706	7	Sololá	701	Sololá	4	Finca Santa Victoria	5	Mayo	2023-08-05T00:00:00	2024-11-08T06:00:00	7	Dirección del viento	1.61
105707	7	Sololá	701	Sololá	4	Finca Santa Victoria	5	Mayo	2023-08-05T00:00:00	2024-11-08T06:00:00	1	Precipitación	0
105708	7	Sololá	701	Sololá	4	Finca Santa Victoria	5	Mayo	2023-08-05T00:00:00	2024-11-08T06:00:00	8	Radiación solar	4
105709	7	Sololá	701	Sololá	4	Finca Santa Victoria	5	Mayo	2023-08-05T00:00:00	2024-11-08T07:00:00	2	Temperatura media	14.2
105710	7	Sololá	701	Sololá	4	Finca Santa Victoria	5	Mayo	2023-08-05T00:00:00	2024-11-08T07:00:00	4	Temperatura máxima	14.2
105711	7	Sololá	701	Sololá	4	Finca Santa Victoria	5	Mayo	2023-08-05T00:00:00	2024-11-08T07:00:00	3	Temperatura mínima	12.4
105712	7	Sololá	701	Sololá	4	Finca Santa Victoria	5	Mayo	2023-08-05T00:00:00	2024-11-08T07:00:00	5	Humedad	63
105713	7	Sololá	701	Sololá	4	Finca Santa Victoria	5	Mayo	2023-08-05T00:00:00	2024-11-08T07:00:00	6	Velocidad del viento	1.6
105714	7	Sololá	701	Sololá	4	Finca Santa Victoria	5	Mayo	2023-08-05T00:00:00	2024-11-08T07:00:00	7	Dirección del viento	1.61
105715	7	Sololá	701	Sololá	4	Finca Santa Victoria	5	Mayo	2023-08-05T00:00:00	2024-11-08T07:00:00	1	Precipitación	0
105716	7	Sololá	701	Sololá	4	Finca Santa Victoria	5	Mayo	2023-08-05T00:00:00	2024-11-08T07:00:00	8	Radiación solar	34
105717	7	Sololá	701	Sololá	4	Finca Santa Victoria	5	Mayo	2023-08-05T00:00:00	2024-11-08T08:00:00	2	Temperatura media	18.8
105718	7	Sololá	701	Sololá	4	Finca Santa Victoria	5	Mayo	2023-08-05T00:00:00	2024-11-08T08:00:00	4	Temperatura máxima	18.8
105719	7	Sololá	701	Sololá	4	Finca Santa Victoria	5	Mayo	2023-08-05T00:00:00	2024-11-08T08:00:00	3	Temperatura mínima	14.2
105720	7	Sololá	701	Sololá	4	Finca Santa Victoria	5	Mayo	2023-08-05T00:00:00	2024-11-08T08:00:00	5	Humedad	49
105721	7	Sololá	701	Sololá	4	Finca Santa Victoria	5	Mayo	2023-08-05T00:00:00	2024-11-08T08:00:00	6	Velocidad del viento	1.6
105722	7	Sololá	701	Sololá	4	Finca Santa Victoria	5	Mayo	2023-08-05T00:00:00	2024-11-08T08:00:00	7	Dirección del viento	1.61
105723	7	Sololá	701	Sololá	4	Finca Santa Victoria	5	Mayo	2023-08-05T00:00:00	2024-11-08T08:00:00	1	Precipitación	0
105724	7	Sololá	701	Sololá	4	Finca Santa Victoria	5	Mayo	2023-08-05T00:00:00	2024-11-08T08:00:00	8	Radiación solar	274
105725	7	Sololá	701	Sololá	4	Finca Santa Victoria	5	Mayo	2023-08-05T00:00:00	2024-11-08T09:00:00	2	Temperatura media	20.3
105726	7	Sololá	701	Sololá	4	Finca Santa Victoria	5	Mayo	2023-08-05T00:00:00	2024-11-08T09:00:00	4	Temperatura máxima	20.3
105727	7	Sololá	701	Sololá	4	Finca Santa Victoria	5	Mayo	2023-08-05T00:00:00	2024-11-08T09:00:00	3	Temperatura mínima	18.8
105728	7	Sololá	701	Sololá	4	Finca Santa Victoria	5	Mayo	2023-08-05T00:00:00	2024-11-08T09:00:00	5	Humedad	46
105729	7	Sololá	701	Sololá	4	Finca Santa Victoria	5	Mayo	2023-08-05T00:00:00	2024-11-08T09:00:00	6	Velocidad del viento	3.2
105730	7	Sololá	701	Sololá	4	Finca Santa Victoria	5	Mayo	2023-08-05T00:00:00	2024-11-08T09:00:00	7	Dirección del viento	3.22
105731	7	Sololá	701	Sololá	4	Finca Santa Victoria	5	Mayo	2023-08-05T00:00:00	2024-11-08T09:00:00	1	Precipitación	0
105732	7	Sololá	701	Sololá	4	Finca Santa Victoria	5	Mayo	2023-08-05T00:00:00	2024-11-08T09:00:00	8	Radiación solar	382
105733	7	Sololá	701	Sololá	4	Finca Santa Victoria	5	Mayo	2023-08-05T00:00:00	2024-11-08T10:00:00	2	Temperatura media	21.6
105734	7	Sololá	701	Sololá	4	Finca Santa Victoria	5	Mayo	2023-08-05T00:00:00	2024-11-08T10:00:00	4	Temperatura máxima	21.6
105735	7	Sololá	701	Sololá	4	Finca Santa Victoria	5	Mayo	2023-08-05T00:00:00	2024-11-08T10:00:00	3	Temperatura mínima	20.3
105736	7	Sololá	701	Sololá	4	Finca Santa Victoria	5	Mayo	2023-08-05T00:00:00	2024-11-08T10:00:00	5	Humedad	45
105737	7	Sololá	701	Sololá	4	Finca Santa Victoria	5	Mayo	2023-08-05T00:00:00	2024-11-08T10:00:00	6	Velocidad del viento	3.2
105738	7	Sololá	701	Sololá	4	Finca Santa Victoria	5	Mayo	2023-08-05T00:00:00	2024-11-08T10:00:00	7	Dirección del viento	3.22
105739	7	Sololá	701	Sololá	4	Finca Santa Victoria	5	Mayo	2023-08-05T00:00:00	2024-11-08T10:00:00	1	Precipitación	0
105740	7	Sololá	701	Sololá	4	Finca Santa Victoria	5	Mayo	2023-08-05T00:00:00	2024-11-08T10:00:00	8	Radiación solar	254
105741	7	Sololá	701	Sololá	4	Finca Santa Victoria	5	Mayo	2023-08-05T00:00:00	2024-11-08T11:00:00	2	Temperatura media	22.1
105742	7	Sololá	701	Sololá	4	Finca Santa Victoria	5	Mayo	2023-08-05T00:00:00	2024-11-08T11:00:00	4	Temperatura máxima	22.1
105743	7	Sololá	701	Sololá	4	Finca Santa Victoria	5	Mayo	2023-08-05T00:00:00	2024-11-08T11:00:00	3	Temperatura mínima	21.4
105744	7	Sololá	701	Sololá	4	Finca Santa Victoria	5	Mayo	2023-08-05T00:00:00	2024-11-08T11:00:00	5	Humedad	49
105745	7	Sololá	701	Sololá	4	Finca Santa Victoria	5	Mayo	2023-08-05T00:00:00	2024-11-08T11:00:00	6	Velocidad del viento	3.2
105746	7	Sololá	701	Sololá	4	Finca Santa Victoria	5	Mayo	2023-08-05T00:00:00	2024-11-08T11:00:00	7	Dirección del viento	3.22
105747	7	Sololá	701	Sololá	4	Finca Santa Victoria	5	Mayo	2023-08-05T00:00:00	2024-11-08T11:00:00	1	Precipitación	0
105748	7	Sololá	701	Sololá	4	Finca Santa Victoria	5	Mayo	2023-08-05T00:00:00	2024-11-08T11:00:00	8	Radiación solar	632
105749	7	Sololá	701	Sololá	4	Finca Santa Victoria	5	Mayo	2023-08-05T00:00:00	2024-11-08T12:00:00	2	Temperatura media	23
105750	7	Sololá	701	Sololá	4	Finca Santa Victoria	5	Mayo	2023-08-05T00:00:00	2024-11-08T12:00:00	4	Temperatura máxima	23.3
105751	7	Sololá	701	Sololá	4	Finca Santa Victoria	5	Mayo	2023-08-05T00:00:00	2024-11-08T12:00:00	3	Temperatura mínima	21.9
105752	7	Sololá	701	Sololá	4	Finca Santa Victoria	5	Mayo	2023-08-05T00:00:00	2024-11-08T12:00:00	5	Humedad	51
105753	7	Sololá	701	Sololá	4	Finca Santa Victoria	5	Mayo	2023-08-05T00:00:00	2024-11-08T12:00:00	6	Velocidad del viento	3.2
105754	7	Sololá	701	Sololá	4	Finca Santa Victoria	5	Mayo	2023-08-05T00:00:00	2024-11-08T12:00:00	7	Dirección del viento	3.22
105755	7	Sololá	701	Sololá	4	Finca Santa Victoria	5	Mayo	2023-08-05T00:00:00	2024-11-08T12:00:00	1	Precipitación	0
105756	7	Sololá	701	Sololá	4	Finca Santa Victoria	5	Mayo	2023-08-05T00:00:00	2024-11-08T12:00:00	8	Radiación solar	956
105757	7	Sololá	701	Sololá	4	Finca Santa Victoria	5	Mayo	2023-08-05T00:00:00	2024-11-08T13:00:00	2	Temperatura media	22.6
105758	7	Sololá	701	Sololá	4	Finca Santa Victoria	5	Mayo	2023-08-05T00:00:00	2024-11-08T13:00:00	4	Temperatura máxima	23.1
105759	7	Sololá	701	Sololá	4	Finca Santa Victoria	5	Mayo	2023-08-05T00:00:00	2024-11-08T13:00:00	3	Temperatura mínima	22.3
105760	7	Sololá	701	Sololá	4	Finca Santa Victoria	5	Mayo	2023-08-05T00:00:00	2024-11-08T13:00:00	5	Humedad	62
105761	7	Sololá	701	Sololá	4	Finca Santa Victoria	5	Mayo	2023-08-05T00:00:00	2024-11-08T13:00:00	6	Velocidad del viento	3.2
105762	7	Sololá	701	Sololá	4	Finca Santa Victoria	5	Mayo	2023-08-05T00:00:00	2024-11-08T13:00:00	7	Dirección del viento	3.22
105763	7	Sololá	701	Sololá	4	Finca Santa Victoria	5	Mayo	2023-08-05T00:00:00	2024-11-08T13:00:00	1	Precipitación	0
105764	7	Sololá	701	Sololá	4	Finca Santa Victoria	5	Mayo	2023-08-05T00:00:00	2024-11-08T13:00:00	8	Radiación solar	926
105765	7	Sololá	701	Sololá	4	Finca Santa Victoria	5	Mayo	2023-08-05T00:00:00	2024-11-08T14:00:00	2	Temperatura media	24.2
105766	7	Sololá	701	Sololá	4	Finca Santa Victoria	5	Mayo	2023-08-05T00:00:00	2024-11-08T14:00:00	4	Temperatura máxima	24.3
105767	7	Sololá	701	Sololá	4	Finca Santa Victoria	5	Mayo	2023-08-05T00:00:00	2024-11-08T14:00:00	3	Temperatura mínima	22.1
105768	7	Sololá	701	Sololá	4	Finca Santa Victoria	5	Mayo	2023-08-05T00:00:00	2024-11-08T14:00:00	5	Humedad	51
105769	7	Sololá	701	Sololá	4	Finca Santa Victoria	5	Mayo	2023-08-05T00:00:00	2024-11-08T14:00:00	6	Velocidad del viento	3.2
105770	7	Sololá	701	Sololá	4	Finca Santa Victoria	5	Mayo	2023-08-05T00:00:00	2024-11-08T14:00:00	7	Dirección del viento	3.22
105771	7	Sololá	701	Sololá	4	Finca Santa Victoria	5	Mayo	2023-08-05T00:00:00	2024-11-08T14:00:00	1	Precipitación	0
105772	7	Sololá	701	Sololá	4	Finca Santa Victoria	5	Mayo	2023-08-05T00:00:00	2024-11-08T14:00:00	8	Radiación solar	477
105773	7	Sololá	701	Sololá	4	Finca Santa Victoria	5	Mayo	2023-08-05T00:00:00	2024-11-08T15:00:00	2	Temperatura media	21.2
105774	7	Sololá	701	Sololá	4	Finca Santa Victoria	5	Mayo	2023-08-05T00:00:00	2024-11-08T15:00:00	4	Temperatura máxima	24.3
105775	7	Sololá	701	Sololá	4	Finca Santa Victoria	5	Mayo	2023-08-05T00:00:00	2024-11-08T15:00:00	3	Temperatura mínima	21
105776	7	Sololá	701	Sololá	4	Finca Santa Victoria	5	Mayo	2023-08-05T00:00:00	2024-11-08T15:00:00	5	Humedad	74
105777	7	Sololá	701	Sololá	4	Finca Santa Victoria	5	Mayo	2023-08-05T00:00:00	2024-11-08T15:00:00	6	Velocidad del viento	3.2
105778	7	Sololá	701	Sololá	4	Finca Santa Victoria	5	Mayo	2023-08-05T00:00:00	2024-11-08T15:00:00	7	Dirección del viento	3.22
105779	7	Sololá	701	Sololá	4	Finca Santa Victoria	5	Mayo	2023-08-05T00:00:00	2024-11-08T15:00:00	1	Precipitación	0
105780	7	Sololá	701	Sololá	4	Finca Santa Victoria	5	Mayo	2023-08-05T00:00:00	2024-11-08T15:00:00	8	Radiación solar	269
105781	7	Sololá	701	Sololá	4	Finca Santa Victoria	5	Mayo	2023-08-05T00:00:00	2024-11-08T16:00:00	2	Temperatura media	19.1
105782	7	Sololá	701	Sololá	4	Finca Santa Victoria	5	Mayo	2023-08-05T00:00:00	2024-11-08T16:00:00	4	Temperatura máxima	21.4
105783	7	Sololá	701	Sololá	4	Finca Santa Victoria	5	Mayo	2023-08-05T00:00:00	2024-11-08T16:00:00	3	Temperatura mínima	19.1
105784	7	Sololá	701	Sololá	4	Finca Santa Victoria	5	Mayo	2023-08-05T00:00:00	2024-11-08T16:00:00	5	Humedad	85
105785	7	Sololá	701	Sololá	4	Finca Santa Victoria	5	Mayo	2023-08-05T00:00:00	2024-11-08T16:00:00	6	Velocidad del viento	4.8
105786	7	Sololá	701	Sololá	4	Finca Santa Victoria	5	Mayo	2023-08-05T00:00:00	2024-11-08T16:00:00	7	Dirección del viento	4.83
105787	7	Sololá	701	Sololá	4	Finca Santa Victoria	5	Mayo	2023-08-05T00:00:00	2024-11-08T16:00:00	1	Precipitación	0
105788	7	Sololá	701	Sololá	4	Finca Santa Victoria	5	Mayo	2023-08-05T00:00:00	2024-11-08T16:00:00	8	Radiación solar	159
105789	7	Sololá	701	Sololá	4	Finca Santa Victoria	5	Mayo	2023-08-05T00:00:00	2024-11-08T17:00:00	2	Temperatura media	17.7
105790	7	Sololá	701	Sololá	4	Finca Santa Victoria	5	Mayo	2023-08-05T00:00:00	2024-11-08T17:00:00	4	Temperatura máxima	19.1
105791	7	Sololá	701	Sololá	4	Finca Santa Victoria	5	Mayo	2023-08-05T00:00:00	2024-11-08T17:00:00	3	Temperatura mínima	17.7
105792	7	Sololá	701	Sololá	4	Finca Santa Victoria	5	Mayo	2023-08-05T00:00:00	2024-11-08T17:00:00	5	Humedad	90
105793	7	Sololá	701	Sololá	4	Finca Santa Victoria	5	Mayo	2023-08-05T00:00:00	2024-11-08T17:00:00	6	Velocidad del viento	3.2
105794	7	Sololá	701	Sololá	4	Finca Santa Victoria	5	Mayo	2023-08-05T00:00:00	2024-11-08T17:00:00	7	Dirección del viento	3.22
105795	7	Sololá	701	Sololá	4	Finca Santa Victoria	5	Mayo	2023-08-05T00:00:00	2024-11-08T17:00:00	1	Precipitación	0
105796	7	Sololá	701	Sololá	4	Finca Santa Victoria	5	Mayo	2023-08-05T00:00:00	2024-11-08T17:00:00	8	Radiación solar	100
105797	7	Sololá	701	Sololá	4	Finca Santa Victoria	5	Mayo	2023-08-05T00:00:00	2024-11-08T18:00:00	2	Temperatura media	16.8
105798	7	Sololá	701	Sololá	4	Finca Santa Victoria	5	Mayo	2023-08-05T00:00:00	2024-11-08T18:00:00	4	Temperatura máxima	17.7
105799	7	Sololá	701	Sololá	4	Finca Santa Victoria	5	Mayo	2023-08-05T00:00:00	2024-11-08T18:00:00	3	Temperatura mínima	16.8
105800	7	Sololá	701	Sololá	4	Finca Santa Victoria	5	Mayo	2023-08-05T00:00:00	2024-11-08T18:00:00	5	Humedad	93
105801	7	Sololá	701	Sololá	4	Finca Santa Victoria	5	Mayo	2023-08-05T00:00:00	2024-11-08T18:00:00	6	Velocidad del viento	1.6
105802	7	Sololá	701	Sololá	4	Finca Santa Victoria	5	Mayo	2023-08-05T00:00:00	2024-11-08T18:00:00	7	Dirección del viento	1.61
105803	7	Sololá	701	Sololá	4	Finca Santa Victoria	5	Mayo	2023-08-05T00:00:00	2024-11-08T18:00:00	1	Precipitación	0
105804	7	Sololá	701	Sololá	4	Finca Santa Victoria	5	Mayo	2023-08-05T00:00:00	2024-11-08T18:00:00	8	Radiación solar	22
105805	7	Sololá	701	Sololá	4	Finca Santa Victoria	5	Mayo	2023-08-05T00:00:00	2024-11-08T19:00:00	2	Temperatura media	17.2
105806	7	Sololá	701	Sololá	4	Finca Santa Victoria	5	Mayo	2023-08-05T00:00:00	2024-11-08T19:00:00	4	Temperatura máxima	17.3
105807	7	Sololá	701	Sololá	4	Finca Santa Victoria	5	Mayo	2023-08-05T00:00:00	2024-11-08T19:00:00	3	Temperatura mínima	16.3
105808	7	Sololá	701	Sololá	4	Finca Santa Victoria	5	Mayo	2023-08-05T00:00:00	2024-11-08T19:00:00	5	Humedad	79
105809	7	Sololá	701	Sololá	4	Finca Santa Victoria	5	Mayo	2023-08-05T00:00:00	2024-11-08T19:00:00	6	Velocidad del viento	1.6
105810	7	Sololá	701	Sololá	4	Finca Santa Victoria	5	Mayo	2023-08-05T00:00:00	2024-11-08T19:00:00	7	Dirección del viento	1.61
105811	7	Sololá	701	Sololá	4	Finca Santa Victoria	5	Mayo	2023-08-05T00:00:00	2024-11-08T19:00:00	1	Precipitación	0
105812	7	Sololá	701	Sololá	4	Finca Santa Victoria	5	Mayo	2023-08-05T00:00:00	2024-11-08T19:00:00	8	Radiación solar	0
105813	7	Sololá	701	Sololá	4	Finca Santa Victoria	5	Mayo	2023-08-05T00:00:00	2024-11-08T20:00:00	2	Temperatura media	16.7
105814	7	Sololá	701	Sololá	4	Finca Santa Victoria	5	Mayo	2023-08-05T00:00:00	2024-11-08T20:00:00	4	Temperatura máxima	17.3
105815	7	Sololá	701	Sololá	4	Finca Santa Victoria	5	Mayo	2023-08-05T00:00:00	2024-11-08T20:00:00	3	Temperatura mínima	16.7
105816	7	Sololá	701	Sololá	4	Finca Santa Victoria	5	Mayo	2023-08-05T00:00:00	2024-11-08T20:00:00	5	Humedad	80
105817	7	Sololá	701	Sololá	4	Finca Santa Victoria	5	Mayo	2023-08-05T00:00:00	2024-11-08T20:00:00	6	Velocidad del viento	1.6
105818	7	Sololá	701	Sololá	4	Finca Santa Victoria	5	Mayo	2023-08-05T00:00:00	2024-11-08T20:00:00	7	Dirección del viento	1.61
105819	7	Sololá	701	Sololá	4	Finca Santa Victoria	5	Mayo	2023-08-05T00:00:00	2024-11-08T20:00:00	1	Precipitación	0
105820	7	Sololá	701	Sololá	4	Finca Santa Victoria	5	Mayo	2023-08-05T00:00:00	2024-11-08T20:00:00	8	Radiación solar	0
105821	7	Sololá	701	Sololá	4	Finca Santa Victoria	5	Mayo	2023-08-05T00:00:00	2024-11-08T21:00:00	2	Temperatura media	16.1
105822	7	Sololá	701	Sololá	4	Finca Santa Victoria	5	Mayo	2023-08-05T00:00:00	2024-11-08T21:00:00	4	Temperatura máxima	16.7
105823	7	Sololá	701	Sololá	4	Finca Santa Victoria	5	Mayo	2023-08-05T00:00:00	2024-11-08T21:00:00	3	Temperatura mínima	16.1
105824	7	Sololá	701	Sololá	4	Finca Santa Victoria	5	Mayo	2023-08-05T00:00:00	2024-11-08T21:00:00	5	Humedad	82
105825	7	Sololá	701	Sololá	4	Finca Santa Victoria	5	Mayo	2023-08-05T00:00:00	2024-11-08T21:00:00	6	Velocidad del viento	1.6
105826	7	Sololá	701	Sololá	4	Finca Santa Victoria	5	Mayo	2023-08-05T00:00:00	2024-11-08T21:00:00	7	Dirección del viento	1.61
105827	7	Sololá	701	Sololá	4	Finca Santa Victoria	5	Mayo	2023-08-05T00:00:00	2024-11-08T21:00:00	1	Precipitación	0
105828	7	Sololá	701	Sololá	4	Finca Santa Victoria	5	Mayo	2023-08-05T00:00:00	2024-11-08T21:00:00	8	Radiación solar	0
105829	7	Sololá	701	Sololá	4	Finca Santa Victoria	5	Mayo	2023-08-05T00:00:00	2024-11-08T22:00:00	2	Temperatura media	15.1
105830	7	Sololá	701	Sololá	4	Finca Santa Victoria	5	Mayo	2023-08-05T00:00:00	2024-11-08T22:00:00	4	Temperatura máxima	16.1
105831	7	Sololá	701	Sololá	4	Finca Santa Victoria	5	Mayo	2023-08-05T00:00:00	2024-11-08T22:00:00	3	Temperatura mínima	15.1
105832	7	Sololá	701	Sololá	4	Finca Santa Victoria	5	Mayo	2023-08-05T00:00:00	2024-11-08T22:00:00	5	Humedad	87
105833	7	Sololá	701	Sololá	4	Finca Santa Victoria	5	Mayo	2023-08-05T00:00:00	2024-11-08T22:00:00	6	Velocidad del viento	1.6
105834	7	Sololá	701	Sololá	4	Finca Santa Victoria	5	Mayo	2023-08-05T00:00:00	2024-11-08T22:00:00	7	Dirección del viento	1.61
105835	7	Sololá	701	Sololá	4	Finca Santa Victoria	5	Mayo	2023-08-05T00:00:00	2024-11-08T22:00:00	1	Precipitación	0
105836	7	Sololá	701	Sololá	4	Finca Santa Victoria	5	Mayo	2023-08-05T00:00:00	2024-11-08T22:00:00	8	Radiación solar	0
105837	7	Sololá	701	Sololá	4	Finca Santa Victoria	5	Mayo	2023-08-05T00:00:00	2024-11-08T23:00:00	2	Temperatura media	15
105838	7	Sololá	701	Sololá	4	Finca Santa Victoria	5	Mayo	2023-08-05T00:00:00	2024-11-08T23:00:00	4	Temperatura máxima	15.1
105839	7	Sololá	701	Sololá	4	Finca Santa Victoria	5	Mayo	2023-08-05T00:00:00	2024-11-08T23:00:00	3	Temperatura mínima	14.7
105840	7	Sololá	701	Sololá	4	Finca Santa Victoria	5	Mayo	2023-08-05T00:00:00	2024-11-08T23:00:00	5	Humedad	84
105841	7	Sololá	701	Sololá	4	Finca Santa Victoria	5	Mayo	2023-08-05T00:00:00	2024-11-08T23:00:00	6	Velocidad del viento	1.6
105842	7	Sololá	701	Sololá	4	Finca Santa Victoria	5	Mayo	2023-08-05T00:00:00	2024-11-08T23:00:00	7	Dirección del viento	1.61
105843	7	Sololá	701	Sololá	4	Finca Santa Victoria	5	Mayo	2023-08-05T00:00:00	2024-11-08T23:00:00	1	Precipitación	0
105844	7	Sololá	701	Sololá	4	Finca Santa Victoria	5	Mayo	2023-08-05T00:00:00	2024-11-08T23:00:00	8	Radiación solar	0
105845	7	Sololá	701	Sololá	4	Finca Santa Victoria	5	Mayo	2023-09-05T00:00:00	2024-11-08T00:00:00	2	Temperatura media	14.6
105846	7	Sololá	701	Sololá	4	Finca Santa Victoria	5	Mayo	2023-09-05T00:00:00	2024-11-08T00:00:00	4	Temperatura máxima	15.1
105847	7	Sololá	701	Sololá	4	Finca Santa Victoria	5	Mayo	2023-09-05T00:00:00	2024-11-08T00:00:00	3	Temperatura mínima	14.6
105848	7	Sololá	701	Sololá	4	Finca Santa Victoria	5	Mayo	2023-09-05T00:00:00	2024-11-08T00:00:00	5	Humedad	82
105849	7	Sololá	701	Sololá	4	Finca Santa Victoria	5	Mayo	2023-09-05T00:00:00	2024-11-08T00:00:00	6	Velocidad del viento	3.2
105850	7	Sololá	701	Sololá	4	Finca Santa Victoria	5	Mayo	2023-09-05T00:00:00	2024-11-08T00:00:00	7	Dirección del viento	3.22
105851	7	Sololá	701	Sololá	4	Finca Santa Victoria	5	Mayo	2023-09-05T00:00:00	2024-11-08T00:00:00	1	Precipitación	0
105852	7	Sololá	701	Sololá	4	Finca Santa Victoria	5	Mayo	2023-09-05T00:00:00	2024-11-08T00:00:00	8	Radiación solar	0
105853	7	Sololá	701	Sololá	4	Finca Santa Victoria	5	Mayo	2023-09-05T00:00:00	2024-11-08T01:00:00	2	Temperatura media	14.1
105854	7	Sololá	701	Sololá	4	Finca Santa Victoria	5	Mayo	2023-09-05T00:00:00	2024-11-08T01:00:00	4	Temperatura máxima	14.6
105855	7	Sololá	701	Sololá	4	Finca Santa Victoria	5	Mayo	2023-09-05T00:00:00	2024-11-08T01:00:00	3	Temperatura mínima	14.1
105856	7	Sololá	701	Sololá	4	Finca Santa Victoria	5	Mayo	2023-09-05T00:00:00	2024-11-08T01:00:00	5	Humedad	80
105857	7	Sololá	701	Sololá	4	Finca Santa Victoria	5	Mayo	2023-09-05T00:00:00	2024-11-08T01:00:00	6	Velocidad del viento	3.2
105858	7	Sololá	701	Sololá	4	Finca Santa Victoria	5	Mayo	2023-09-05T00:00:00	2024-11-08T01:00:00	7	Dirección del viento	3.22
105859	7	Sololá	701	Sololá	4	Finca Santa Victoria	5	Mayo	2023-09-05T00:00:00	2024-11-08T01:00:00	1	Precipitación	0
105860	7	Sololá	701	Sololá	4	Finca Santa Victoria	5	Mayo	2023-09-05T00:00:00	2024-11-08T01:00:00	8	Radiación solar	0
105861	7	Sololá	701	Sololá	4	Finca Santa Victoria	5	Mayo	2023-09-05T00:00:00	2024-11-08T02:00:00	2	Temperatura media	13
105862	7	Sololá	701	Sololá	4	Finca Santa Victoria	5	Mayo	2023-09-05T00:00:00	2024-11-08T02:00:00	4	Temperatura máxima	14.1
105863	7	Sololá	701	Sololá	4	Finca Santa Victoria	5	Mayo	2023-09-05T00:00:00	2024-11-08T02:00:00	3	Temperatura mínima	13
105864	7	Sololá	701	Sololá	4	Finca Santa Victoria	5	Mayo	2023-09-05T00:00:00	2024-11-08T02:00:00	5	Humedad	81
105865	7	Sololá	701	Sololá	4	Finca Santa Victoria	5	Mayo	2023-09-05T00:00:00	2024-11-08T02:00:00	6	Velocidad del viento	1.6
105866	7	Sololá	701	Sololá	4	Finca Santa Victoria	5	Mayo	2023-09-05T00:00:00	2024-11-08T02:00:00	7	Dirección del viento	1.61
105867	7	Sololá	701	Sololá	4	Finca Santa Victoria	5	Mayo	2023-09-05T00:00:00	2024-11-08T02:00:00	1	Precipitación	0
105868	7	Sololá	701	Sololá	4	Finca Santa Victoria	5	Mayo	2023-09-05T00:00:00	2024-11-08T02:00:00	8	Radiación solar	0
105869	7	Sololá	701	Sololá	4	Finca Santa Victoria	5	Mayo	2023-09-05T00:00:00	2024-11-08T03:00:00	2	Temperatura media	12.9
105870	7	Sololá	701	Sololá	4	Finca Santa Victoria	5	Mayo	2023-09-05T00:00:00	2024-11-08T03:00:00	4	Temperatura máxima	13.2
105871	7	Sololá	701	Sololá	4	Finca Santa Victoria	5	Mayo	2023-09-05T00:00:00	2024-11-08T03:00:00	3	Temperatura mínima	12.8
105872	7	Sololá	701	Sololá	4	Finca Santa Victoria	5	Mayo	2023-09-05T00:00:00	2024-11-08T03:00:00	5	Humedad	74
105873	7	Sololá	701	Sololá	4	Finca Santa Victoria	5	Mayo	2023-09-05T00:00:00	2024-11-08T03:00:00	6	Velocidad del viento	0
105874	7	Sololá	701	Sololá	4	Finca Santa Victoria	5	Mayo	2023-09-05T00:00:00	2024-11-08T03:00:00	7	Dirección del viento	0
105875	7	Sololá	701	Sololá	4	Finca Santa Victoria	5	Mayo	2023-09-05T00:00:00	2024-11-08T03:00:00	1	Precipitación	0
105876	7	Sololá	701	Sololá	4	Finca Santa Victoria	5	Mayo	2023-09-05T00:00:00	2024-11-08T03:00:00	8	Radiación solar	0
105877	7	Sololá	701	Sololá	4	Finca Santa Victoria	5	Mayo	2023-09-05T00:00:00	2024-11-08T04:00:00	2	Temperatura media	13.2
105878	7	Sololá	701	Sololá	4	Finca Santa Victoria	5	Mayo	2023-09-05T00:00:00	2024-11-08T04:00:00	4	Temperatura máxima	13.5
105879	7	Sololá	701	Sololá	4	Finca Santa Victoria	5	Mayo	2023-09-05T00:00:00	2024-11-08T04:00:00	3	Temperatura mínima	12.9
105880	7	Sololá	701	Sololá	4	Finca Santa Victoria	5	Mayo	2023-09-05T00:00:00	2024-11-08T04:00:00	5	Humedad	66
105881	7	Sololá	701	Sololá	4	Finca Santa Victoria	5	Mayo	2023-09-05T00:00:00	2024-11-08T04:00:00	6	Velocidad del viento	1.6
105882	7	Sololá	701	Sololá	4	Finca Santa Victoria	5	Mayo	2023-09-05T00:00:00	2024-11-08T04:00:00	7	Dirección del viento	1.61
105883	7	Sololá	701	Sololá	4	Finca Santa Victoria	5	Mayo	2023-09-05T00:00:00	2024-11-08T04:00:00	1	Precipitación	0
105884	7	Sololá	701	Sololá	4	Finca Santa Victoria	5	Mayo	2023-09-05T00:00:00	2024-11-08T04:00:00	8	Radiación solar	0
105885	7	Sololá	701	Sololá	4	Finca Santa Victoria	5	Mayo	2023-09-05T00:00:00	2024-11-08T05:00:00	2	Temperatura media	12.9
105886	7	Sololá	701	Sololá	4	Finca Santa Victoria	5	Mayo	2023-09-05T00:00:00	2024-11-08T05:00:00	4	Temperatura máxima	13.2
105887	7	Sololá	701	Sololá	4	Finca Santa Victoria	5	Mayo	2023-09-05T00:00:00	2024-11-08T05:00:00	3	Temperatura mínima	12.7
105888	7	Sololá	701	Sololá	4	Finca Santa Victoria	5	Mayo	2023-09-05T00:00:00	2024-11-08T05:00:00	5	Humedad	61
105889	7	Sololá	701	Sololá	4	Finca Santa Victoria	5	Mayo	2023-09-05T00:00:00	2024-11-08T05:00:00	6	Velocidad del viento	1.6
105890	7	Sololá	701	Sololá	4	Finca Santa Victoria	5	Mayo	2023-09-05T00:00:00	2024-11-08T05:00:00	7	Dirección del viento	1.61
105891	7	Sololá	701	Sololá	4	Finca Santa Victoria	5	Mayo	2023-09-05T00:00:00	2024-11-08T05:00:00	1	Precipitación	0
105892	7	Sololá	701	Sololá	4	Finca Santa Victoria	5	Mayo	2023-09-05T00:00:00	2024-11-08T05:00:00	8	Radiación solar	0
105893	7	Sololá	701	Sololá	4	Finca Santa Victoria	5	Mayo	2023-09-05T00:00:00	2024-11-08T06:00:00	2	Temperatura media	13.9
105894	7	Sololá	701	Sololá	4	Finca Santa Victoria	5	Mayo	2023-09-05T00:00:00	2024-11-08T06:00:00	4	Temperatura máxima	13.9
105895	7	Sololá	701	Sololá	4	Finca Santa Victoria	5	Mayo	2023-09-05T00:00:00	2024-11-08T06:00:00	3	Temperatura mínima	12.9
105896	7	Sololá	701	Sololá	4	Finca Santa Victoria	5	Mayo	2023-09-05T00:00:00	2024-11-08T06:00:00	5	Humedad	55
105897	7	Sololá	701	Sololá	4	Finca Santa Victoria	5	Mayo	2023-09-05T00:00:00	2024-11-08T06:00:00	6	Velocidad del viento	1.6
105898	7	Sololá	701	Sololá	4	Finca Santa Victoria	5	Mayo	2023-09-05T00:00:00	2024-11-08T06:00:00	7	Dirección del viento	1.61
105899	7	Sololá	701	Sololá	4	Finca Santa Victoria	5	Mayo	2023-09-05T00:00:00	2024-11-08T06:00:00	1	Precipitación	0
105900	7	Sololá	701	Sololá	4	Finca Santa Victoria	5	Mayo	2023-09-05T00:00:00	2024-11-08T06:00:00	8	Radiación solar	3
105901	7	Sololá	701	Sololá	4	Finca Santa Victoria	5	Mayo	2023-09-05T00:00:00	2024-11-08T07:00:00	2	Temperatura media	14.7
105902	7	Sololá	701	Sololá	4	Finca Santa Victoria	5	Mayo	2023-09-05T00:00:00	2024-11-08T07:00:00	4	Temperatura máxima	14.8
105903	7	Sololá	701	Sololá	4	Finca Santa Victoria	5	Mayo	2023-09-05T00:00:00	2024-11-08T07:00:00	3	Temperatura mínima	13.8
105904	7	Sololá	701	Sololá	4	Finca Santa Victoria	5	Mayo	2023-09-05T00:00:00	2024-11-08T07:00:00	5	Humedad	61
105905	7	Sololá	701	Sololá	4	Finca Santa Victoria	5	Mayo	2023-09-05T00:00:00	2024-11-08T07:00:00	6	Velocidad del viento	0
105906	7	Sololá	701	Sololá	4	Finca Santa Victoria	5	Mayo	2023-09-05T00:00:00	2024-11-08T07:00:00	7	Dirección del viento	0
105907	7	Sololá	701	Sololá	4	Finca Santa Victoria	5	Mayo	2023-09-05T00:00:00	2024-11-08T07:00:00	1	Precipitación	0
105908	7	Sololá	701	Sololá	4	Finca Santa Victoria	5	Mayo	2023-09-05T00:00:00	2024-11-08T07:00:00	8	Radiación solar	59
105909	7	Sololá	701	Sololá	4	Finca Santa Victoria	5	Mayo	2023-09-05T00:00:00	2024-11-08T08:00:00	2	Temperatura media	17.9
105910	7	Sololá	701	Sololá	4	Finca Santa Victoria	5	Mayo	2023-09-05T00:00:00	2024-11-08T08:00:00	4	Temperatura máxima	17.9
105911	7	Sololá	701	Sololá	4	Finca Santa Victoria	5	Mayo	2023-09-05T00:00:00	2024-11-08T08:00:00	3	Temperatura mínima	14.8
105912	7	Sololá	701	Sololá	4	Finca Santa Victoria	5	Mayo	2023-09-05T00:00:00	2024-11-08T08:00:00	5	Humedad	60
105913	7	Sololá	701	Sololá	4	Finca Santa Victoria	5	Mayo	2023-09-05T00:00:00	2024-11-08T08:00:00	6	Velocidad del viento	1.6
105914	7	Sololá	701	Sololá	4	Finca Santa Victoria	5	Mayo	2023-09-05T00:00:00	2024-11-08T08:00:00	7	Dirección del viento	1.61
105915	7	Sololá	701	Sololá	4	Finca Santa Victoria	5	Mayo	2023-09-05T00:00:00	2024-11-08T08:00:00	1	Precipitación	0
105916	7	Sololá	701	Sololá	4	Finca Santa Victoria	5	Mayo	2023-09-05T00:00:00	2024-11-08T08:00:00	8	Radiación solar	245
105917	7	Sololá	701	Sololá	4	Finca Santa Victoria	5	Mayo	2023-09-05T00:00:00	2024-11-08T09:00:00	2	Temperatura media	18.6
105918	7	Sololá	701	Sololá	4	Finca Santa Victoria	5	Mayo	2023-09-05T00:00:00	2024-11-08T09:00:00	4	Temperatura máxima	18.8
105919	7	Sololá	701	Sololá	4	Finca Santa Victoria	5	Mayo	2023-09-05T00:00:00	2024-11-08T09:00:00	3	Temperatura mínima	17.9
105920	7	Sololá	701	Sololá	4	Finca Santa Victoria	5	Mayo	2023-09-05T00:00:00	2024-11-08T09:00:00	5	Humedad	61
105921	7	Sololá	701	Sololá	4	Finca Santa Victoria	5	Mayo	2023-09-05T00:00:00	2024-11-08T09:00:00	6	Velocidad del viento	3.2
105922	7	Sololá	701	Sololá	4	Finca Santa Victoria	5	Mayo	2023-09-05T00:00:00	2024-11-08T09:00:00	7	Dirección del viento	3.22
105923	7	Sololá	701	Sololá	4	Finca Santa Victoria	5	Mayo	2023-09-05T00:00:00	2024-11-08T09:00:00	1	Precipitación	0
105924	7	Sololá	701	Sololá	4	Finca Santa Victoria	5	Mayo	2023-09-05T00:00:00	2024-11-08T09:00:00	8	Radiación solar	375
105925	7	Sololá	701	Sololá	4	Finca Santa Victoria	5	Mayo	2023-09-05T00:00:00	2024-11-08T10:00:00	2	Temperatura media	19.4
105926	7	Sololá	701	Sololá	4	Finca Santa Victoria	5	Mayo	2023-09-05T00:00:00	2024-11-08T10:00:00	4	Temperatura máxima	19.4
105927	7	Sololá	701	Sololá	4	Finca Santa Victoria	5	Mayo	2023-09-05T00:00:00	2024-11-08T10:00:00	3	Temperatura mínima	18.5
105928	7	Sololá	701	Sololá	4	Finca Santa Victoria	5	Mayo	2023-09-05T00:00:00	2024-11-08T10:00:00	5	Humedad	59
105929	7	Sololá	701	Sololá	4	Finca Santa Victoria	5	Mayo	2023-09-05T00:00:00	2024-11-08T10:00:00	6	Velocidad del viento	3.2
105930	7	Sololá	701	Sololá	4	Finca Santa Victoria	5	Mayo	2023-09-05T00:00:00	2024-11-08T10:00:00	7	Dirección del viento	3.22
105931	7	Sololá	701	Sololá	4	Finca Santa Victoria	5	Mayo	2023-09-05T00:00:00	2024-11-08T10:00:00	1	Precipitación	0
105932	7	Sololá	701	Sololá	4	Finca Santa Victoria	5	Mayo	2023-09-05T00:00:00	2024-11-08T10:00:00	8	Radiación solar	265
105933	7	Sololá	701	Sololá	4	Finca Santa Victoria	5	Mayo	2023-09-05T00:00:00	2024-11-08T11:00:00	2	Temperatura media	21
105934	7	Sololá	701	Sololá	4	Finca Santa Victoria	5	Mayo	2023-09-05T00:00:00	2024-11-08T11:00:00	4	Temperatura máxima	21.1
105935	7	Sololá	701	Sololá	4	Finca Santa Victoria	5	Mayo	2023-09-05T00:00:00	2024-11-08T11:00:00	3	Temperatura mínima	19.3
105936	7	Sololá	701	Sololá	4	Finca Santa Victoria	5	Mayo	2023-09-05T00:00:00	2024-11-08T11:00:00	5	Humedad	58
105937	7	Sololá	701	Sololá	4	Finca Santa Victoria	5	Mayo	2023-09-05T00:00:00	2024-11-08T11:00:00	6	Velocidad del viento	4.8
105938	7	Sololá	701	Sololá	4	Finca Santa Victoria	5	Mayo	2023-09-05T00:00:00	2024-11-08T11:00:00	7	Dirección del viento	4.83
105939	7	Sololá	701	Sololá	4	Finca Santa Victoria	5	Mayo	2023-09-05T00:00:00	2024-11-08T11:00:00	1	Precipitación	0
105940	7	Sololá	701	Sololá	4	Finca Santa Victoria	5	Mayo	2023-09-05T00:00:00	2024-11-08T11:00:00	8	Radiación solar	699
105941	7	Sololá	701	Sololá	4	Finca Santa Victoria	5	Mayo	2023-09-05T00:00:00	2024-11-08T12:00:00	2	Temperatura media	21.1
105942	7	Sololá	701	Sololá	4	Finca Santa Victoria	5	Mayo	2023-09-05T00:00:00	2024-11-08T12:00:00	4	Temperatura máxima	21.3
105943	7	Sololá	701	Sololá	4	Finca Santa Victoria	5	Mayo	2023-09-05T00:00:00	2024-11-08T12:00:00	3	Temperatura mínima	20.6
105944	7	Sololá	701	Sololá	4	Finca Santa Victoria	5	Mayo	2023-09-05T00:00:00	2024-11-08T12:00:00	5	Humedad	58
105945	7	Sololá	701	Sololá	4	Finca Santa Victoria	5	Mayo	2023-09-05T00:00:00	2024-11-08T12:00:00	6	Velocidad del viento	6.4
105946	7	Sololá	701	Sololá	4	Finca Santa Victoria	5	Mayo	2023-09-05T00:00:00	2024-11-08T12:00:00	7	Dirección del viento	6.44
105947	7	Sololá	701	Sololá	4	Finca Santa Victoria	5	Mayo	2023-09-05T00:00:00	2024-11-08T12:00:00	1	Precipitación	0
105948	7	Sololá	701	Sololá	4	Finca Santa Victoria	5	Mayo	2023-09-05T00:00:00	2024-11-08T12:00:00	8	Radiación solar	981
105949	7	Sololá	701	Sololá	4	Finca Santa Victoria	5	Mayo	2023-09-05T00:00:00	2024-11-08T13:00:00	2	Temperatura media	19.7
105950	7	Sololá	701	Sololá	4	Finca Santa Victoria	5	Mayo	2023-09-05T00:00:00	2024-11-08T13:00:00	4	Temperatura máxima	21.3
105951	7	Sololá	701	Sololá	4	Finca Santa Victoria	5	Mayo	2023-09-05T00:00:00	2024-11-08T13:00:00	3	Temperatura mínima	19.7
105952	7	Sololá	701	Sololá	4	Finca Santa Victoria	5	Mayo	2023-09-05T00:00:00	2024-11-08T13:00:00	5	Humedad	78
105953	7	Sololá	701	Sololá	4	Finca Santa Victoria	5	Mayo	2023-09-05T00:00:00	2024-11-08T13:00:00	6	Velocidad del viento	6.4
105954	7	Sololá	701	Sololá	4	Finca Santa Victoria	5	Mayo	2023-09-05T00:00:00	2024-11-08T13:00:00	7	Dirección del viento	6.44
105955	7	Sololá	701	Sololá	4	Finca Santa Victoria	5	Mayo	2023-09-05T00:00:00	2024-11-08T13:00:00	1	Precipitación	0
105956	7	Sololá	701	Sololá	4	Finca Santa Victoria	5	Mayo	2023-09-05T00:00:00	2024-11-08T13:00:00	8	Radiación solar	902
105957	7	Sololá	701	Sololá	4	Finca Santa Victoria	5	Mayo	2023-09-05T00:00:00	2024-11-08T14:00:00	2	Temperatura media	19.5
105958	7	Sololá	701	Sololá	4	Finca Santa Victoria	5	Mayo	2023-09-05T00:00:00	2024-11-08T14:00:00	4	Temperatura máxima	20.3
105959	7	Sololá	701	Sololá	4	Finca Santa Victoria	5	Mayo	2023-09-05T00:00:00	2024-11-08T14:00:00	3	Temperatura mínima	19.5
105960	7	Sololá	701	Sololá	4	Finca Santa Victoria	5	Mayo	2023-09-05T00:00:00	2024-11-08T14:00:00	5	Humedad	80
105961	7	Sololá	701	Sololá	4	Finca Santa Victoria	5	Mayo	2023-09-05T00:00:00	2024-11-08T14:00:00	6	Velocidad del viento	6.4
105962	7	Sololá	701	Sololá	4	Finca Santa Victoria	5	Mayo	2023-09-05T00:00:00	2024-11-08T14:00:00	7	Dirección del viento	6.44
105963	7	Sololá	701	Sololá	4	Finca Santa Victoria	5	Mayo	2023-09-05T00:00:00	2024-11-08T14:00:00	1	Precipitación	0
105964	7	Sololá	701	Sololá	4	Finca Santa Victoria	5	Mayo	2023-09-05T00:00:00	2024-11-08T14:00:00	8	Radiación solar	356
105965	7	Sololá	701	Sololá	4	Finca Santa Victoria	5	Mayo	2023-09-05T00:00:00	2024-11-08T15:00:00	2	Temperatura media	18.6
105966	7	Sololá	701	Sololá	4	Finca Santa Victoria	5	Mayo	2023-09-05T00:00:00	2024-11-08T15:00:00	4	Temperatura máxima	19.9
105967	7	Sololá	701	Sololá	4	Finca Santa Victoria	5	Mayo	2023-09-05T00:00:00	2024-11-08T15:00:00	3	Temperatura mínima	18.6
105968	7	Sololá	701	Sololá	4	Finca Santa Victoria	5	Mayo	2023-09-05T00:00:00	2024-11-08T15:00:00	5	Humedad	83
105969	7	Sololá	701	Sololá	4	Finca Santa Victoria	5	Mayo	2023-09-05T00:00:00	2024-11-08T15:00:00	6	Velocidad del viento	4.8
105970	7	Sololá	701	Sololá	4	Finca Santa Victoria	5	Mayo	2023-09-05T00:00:00	2024-11-08T15:00:00	7	Dirección del viento	4.83
105971	7	Sololá	701	Sololá	4	Finca Santa Victoria	5	Mayo	2023-09-05T00:00:00	2024-11-08T15:00:00	1	Precipitación	0
105972	7	Sololá	701	Sololá	4	Finca Santa Victoria	5	Mayo	2023-09-05T00:00:00	2024-11-08T15:00:00	8	Radiación solar	257
105973	7	Sololá	701	Sololá	4	Finca Santa Victoria	5	Mayo	2023-09-05T00:00:00	2024-11-08T16:00:00	2	Temperatura media	19.2
105974	7	Sololá	701	Sololá	4	Finca Santa Victoria	5	Mayo	2023-09-05T00:00:00	2024-11-08T16:00:00	4	Temperatura máxima	19.2
105975	7	Sololá	701	Sololá	4	Finca Santa Victoria	5	Mayo	2023-09-05T00:00:00	2024-11-08T16:00:00	3	Temperatura mínima	18
105976	7	Sololá	701	Sololá	4	Finca Santa Victoria	5	Mayo	2023-09-05T00:00:00	2024-11-08T16:00:00	5	Humedad	83
105977	7	Sololá	701	Sololá	4	Finca Santa Victoria	5	Mayo	2023-09-05T00:00:00	2024-11-08T16:00:00	6	Velocidad del viento	3.2
105978	7	Sololá	701	Sololá	4	Finca Santa Victoria	5	Mayo	2023-09-05T00:00:00	2024-11-08T16:00:00	7	Dirección del viento	3.22
105979	7	Sololá	701	Sololá	4	Finca Santa Victoria	5	Mayo	2023-09-05T00:00:00	2024-11-08T16:00:00	1	Precipitación	0
105980	7	Sololá	701	Sololá	4	Finca Santa Victoria	5	Mayo	2023-09-05T00:00:00	2024-11-08T16:00:00	8	Radiación solar	185
105981	7	Sololá	701	Sololá	4	Finca Santa Victoria	5	Mayo	2023-09-05T00:00:00	2024-11-08T17:00:00	2	Temperatura media	17.2
105982	7	Sololá	701	Sololá	4	Finca Santa Victoria	5	Mayo	2023-09-05T00:00:00	2024-11-08T17:00:00	4	Temperatura máxima	19.2
105983	7	Sololá	701	Sololá	4	Finca Santa Victoria	5	Mayo	2023-09-05T00:00:00	2024-11-08T17:00:00	3	Temperatura mínima	17.2
105984	7	Sololá	701	Sololá	4	Finca Santa Victoria	5	Mayo	2023-09-05T00:00:00	2024-11-08T17:00:00	5	Humedad	93
105985	7	Sololá	701	Sololá	4	Finca Santa Victoria	5	Mayo	2023-09-05T00:00:00	2024-11-08T17:00:00	6	Velocidad del viento	3.2
105986	7	Sololá	701	Sololá	4	Finca Santa Victoria	5	Mayo	2023-09-05T00:00:00	2024-11-08T17:00:00	7	Dirección del viento	3.22
105987	7	Sololá	701	Sololá	4	Finca Santa Victoria	5	Mayo	2023-09-05T00:00:00	2024-11-08T17:00:00	1	Precipitación	0
105988	7	Sololá	701	Sololá	4	Finca Santa Victoria	5	Mayo	2023-09-05T00:00:00	2024-11-08T17:00:00	8	Radiación solar	59
105989	7	Sololá	701	Sololá	4	Finca Santa Victoria	5	Mayo	2023-09-05T00:00:00	2024-11-08T18:00:00	2	Temperatura media	16.2
105990	7	Sololá	701	Sololá	4	Finca Santa Victoria	5	Mayo	2023-09-05T00:00:00	2024-11-08T18:00:00	4	Temperatura máxima	17.2
105991	7	Sololá	701	Sololá	4	Finca Santa Victoria	5	Mayo	2023-09-05T00:00:00	2024-11-08T18:00:00	3	Temperatura mínima	16.2
105992	7	Sololá	701	Sololá	4	Finca Santa Victoria	5	Mayo	2023-09-05T00:00:00	2024-11-08T18:00:00	5	Humedad	95
105993	7	Sololá	701	Sololá	4	Finca Santa Victoria	5	Mayo	2023-09-05T00:00:00	2024-11-08T18:00:00	6	Velocidad del viento	1.6
105994	7	Sololá	701	Sololá	4	Finca Santa Victoria	5	Mayo	2023-09-05T00:00:00	2024-11-08T18:00:00	7	Dirección del viento	1.61
105995	7	Sololá	701	Sololá	4	Finca Santa Victoria	5	Mayo	2023-09-05T00:00:00	2024-11-08T18:00:00	1	Precipitación	0
105996	7	Sololá	701	Sololá	4	Finca Santa Victoria	5	Mayo	2023-09-05T00:00:00	2024-11-08T18:00:00	8	Radiación solar	6
105997	7	Sololá	701	Sololá	4	Finca Santa Victoria	5	Mayo	2023-09-05T00:00:00	2024-11-08T19:00:00	2	Temperatura media	15.9
105998	7	Sololá	701	Sololá	4	Finca Santa Victoria	5	Mayo	2023-09-05T00:00:00	2024-11-08T19:00:00	4	Temperatura máxima	16.2
105999	7	Sololá	701	Sololá	4	Finca Santa Victoria	5	Mayo	2023-09-05T00:00:00	2024-11-08T19:00:00	3	Temperatura mínima	15.9
106000	7	Sololá	701	Sololá	4	Finca Santa Victoria	5	Mayo	2023-09-05T00:00:00	2024-11-08T19:00:00	5	Humedad	96
106001	7	Sololá	701	Sololá	4	Finca Santa Victoria	5	Mayo	2023-09-05T00:00:00	2024-11-08T19:00:00	6	Velocidad del viento	0
106002	7	Sololá	701	Sololá	4	Finca Santa Victoria	5	Mayo	2023-09-05T00:00:00	2024-11-08T19:00:00	7	Dirección del viento	0
106003	7	Sololá	701	Sololá	4	Finca Santa Victoria	5	Mayo	2023-09-05T00:00:00	2024-11-08T19:00:00	1	Precipitación	0
106004	7	Sololá	701	Sololá	4	Finca Santa Victoria	5	Mayo	2023-09-05T00:00:00	2024-11-08T19:00:00	8	Radiación solar	0
106005	7	Sololá	701	Sololá	4	Finca Santa Victoria	5	Mayo	2023-09-05T00:00:00	2024-11-08T20:00:00	2	Temperatura media	15.7
106006	7	Sololá	701	Sololá	4	Finca Santa Victoria	5	Mayo	2023-09-05T00:00:00	2024-11-08T20:00:00	4	Temperatura máxima	16
106007	7	Sololá	701	Sololá	4	Finca Santa Victoria	5	Mayo	2023-09-05T00:00:00	2024-11-08T20:00:00	3	Temperatura mínima	15.7
106008	7	Sololá	701	Sololá	4	Finca Santa Victoria	5	Mayo	2023-09-05T00:00:00	2024-11-08T20:00:00	5	Humedad	96
106009	7	Sololá	701	Sololá	4	Finca Santa Victoria	5	Mayo	2023-09-05T00:00:00	2024-11-08T20:00:00	6	Velocidad del viento	1.6
106010	7	Sololá	701	Sololá	4	Finca Santa Victoria	5	Mayo	2023-09-05T00:00:00	2024-11-08T20:00:00	7	Dirección del viento	1.61
106011	7	Sololá	701	Sololá	4	Finca Santa Victoria	5	Mayo	2023-09-05T00:00:00	2024-11-08T20:00:00	1	Precipitación	0
106012	7	Sololá	701	Sololá	4	Finca Santa Victoria	5	Mayo	2023-09-05T00:00:00	2024-11-08T20:00:00	8	Radiación solar	0
106013	7	Sololá	701	Sololá	4	Finca Santa Victoria	5	Mayo	2023-09-05T00:00:00	2024-11-08T21:00:00	2	Temperatura media	15.6
106014	7	Sololá	701	Sololá	4	Finca Santa Victoria	5	Mayo	2023-09-05T00:00:00	2024-11-08T21:00:00	4	Temperatura máxima	15.7
106015	7	Sololá	701	Sololá	4	Finca Santa Victoria	5	Mayo	2023-09-05T00:00:00	2024-11-08T21:00:00	3	Temperatura mínima	15.6
106016	7	Sololá	701	Sololá	4	Finca Santa Victoria	5	Mayo	2023-09-05T00:00:00	2024-11-08T21:00:00	5	Humedad	97
106017	7	Sololá	701	Sololá	4	Finca Santa Victoria	5	Mayo	2023-09-05T00:00:00	2024-11-08T21:00:00	6	Velocidad del viento	0
106018	7	Sololá	701	Sololá	4	Finca Santa Victoria	5	Mayo	2023-09-05T00:00:00	2024-11-08T21:00:00	7	Dirección del viento	0
106019	7	Sololá	701	Sololá	4	Finca Santa Victoria	5	Mayo	2023-09-05T00:00:00	2024-11-08T21:00:00	1	Precipitación	0
106020	7	Sololá	701	Sololá	4	Finca Santa Victoria	5	Mayo	2023-09-05T00:00:00	2024-11-08T21:00:00	8	Radiación solar	0
106021	7	Sololá	701	Sololá	4	Finca Santa Victoria	5	Mayo	2023-09-05T00:00:00	2024-11-08T22:00:00	2	Temperatura media	15.3
106022	7	Sololá	701	Sololá	4	Finca Santa Victoria	5	Mayo	2023-09-05T00:00:00	2024-11-08T22:00:00	4	Temperatura máxima	15.7
106023	7	Sololá	701	Sololá	4	Finca Santa Victoria	5	Mayo	2023-09-05T00:00:00	2024-11-08T22:00:00	3	Temperatura mínima	15.3
106024	7	Sololá	701	Sololá	4	Finca Santa Victoria	5	Mayo	2023-09-05T00:00:00	2024-11-08T22:00:00	5	Humedad	96
106025	7	Sololá	701	Sololá	4	Finca Santa Victoria	5	Mayo	2023-09-05T00:00:00	2024-11-08T22:00:00	6	Velocidad del viento	0
106026	7	Sololá	701	Sololá	4	Finca Santa Victoria	5	Mayo	2023-09-05T00:00:00	2024-11-08T22:00:00	7	Dirección del viento	0
106027	7	Sololá	701	Sololá	4	Finca Santa Victoria	5	Mayo	2023-09-05T00:00:00	2024-11-08T22:00:00	1	Precipitación	0
106028	7	Sololá	701	Sololá	4	Finca Santa Victoria	5	Mayo	2023-09-05T00:00:00	2024-11-08T22:00:00	8	Radiación solar	0
106029	7	Sololá	701	Sololá	4	Finca Santa Victoria	5	Mayo	2023-09-05T00:00:00	2024-11-08T23:00:00	2	Temperatura media	14.9
106030	7	Sololá	701	Sololá	4	Finca Santa Victoria	5	Mayo	2023-09-05T00:00:00	2024-11-08T23:00:00	4	Temperatura máxima	15.4
106031	7	Sololá	701	Sololá	4	Finca Santa Victoria	5	Mayo	2023-09-05T00:00:00	2024-11-08T23:00:00	3	Temperatura mínima	14.9
106032	7	Sololá	701	Sololá	4	Finca Santa Victoria	5	Mayo	2023-09-05T00:00:00	2024-11-08T23:00:00	5	Humedad	97
106033	7	Sololá	701	Sololá	4	Finca Santa Victoria	5	Mayo	2023-09-05T00:00:00	2024-11-08T23:00:00	6	Velocidad del viento	0
106034	7	Sololá	701	Sololá	4	Finca Santa Victoria	5	Mayo	2023-09-05T00:00:00	2024-11-08T23:00:00	7	Dirección del viento	0
106035	7	Sololá	701	Sololá	4	Finca Santa Victoria	5	Mayo	2023-09-05T00:00:00	2024-11-08T23:00:00	1	Precipitación	0
106036	7	Sololá	701	Sololá	4	Finca Santa Victoria	5	Mayo	2023-09-05T00:00:00	2024-11-08T23:00:00	8	Radiación solar	0
106037	7	Sololá	701	Sololá	4	Finca Santa Victoria	5	Mayo	2023-10-05T00:00:00	2024-11-08T00:00:00	2	Temperatura media	15
106038	7	Sololá	701	Sololá	4	Finca Santa Victoria	5	Mayo	2023-10-05T00:00:00	2024-11-08T00:00:00	4	Temperatura máxima	15.2
106039	7	Sololá	701	Sololá	4	Finca Santa Victoria	5	Mayo	2023-10-05T00:00:00	2024-11-08T00:00:00	3	Temperatura mínima	14.9
106040	7	Sololá	701	Sololá	4	Finca Santa Victoria	5	Mayo	2023-10-05T00:00:00	2024-11-08T00:00:00	5	Humedad	97
106041	7	Sololá	701	Sololá	4	Finca Santa Victoria	5	Mayo	2023-10-05T00:00:00	2024-11-08T00:00:00	6	Velocidad del viento	0
106042	7	Sololá	701	Sololá	4	Finca Santa Victoria	5	Mayo	2023-10-05T00:00:00	2024-11-08T00:00:00	7	Dirección del viento	0
106043	7	Sololá	701	Sololá	4	Finca Santa Victoria	5	Mayo	2023-10-05T00:00:00	2024-11-08T00:00:00	1	Precipitación	0
106044	7	Sololá	701	Sololá	4	Finca Santa Victoria	5	Mayo	2023-10-05T00:00:00	2024-11-08T00:00:00	8	Radiación solar	0
106045	7	Sololá	701	Sololá	4	Finca Santa Victoria	5	Mayo	2023-10-05T00:00:00	2024-11-08T01:00:00	2	Temperatura media	14.8
106046	7	Sololá	701	Sololá	4	Finca Santa Victoria	5	Mayo	2023-10-05T00:00:00	2024-11-08T01:00:00	4	Temperatura máxima	15
106047	7	Sololá	701	Sololá	4	Finca Santa Victoria	5	Mayo	2023-10-05T00:00:00	2024-11-08T01:00:00	3	Temperatura mínima	14.7
106048	7	Sololá	701	Sololá	4	Finca Santa Victoria	5	Mayo	2023-10-05T00:00:00	2024-11-08T01:00:00	5	Humedad	97
106049	7	Sololá	701	Sololá	4	Finca Santa Victoria	5	Mayo	2023-10-05T00:00:00	2024-11-08T01:00:00	6	Velocidad del viento	0
106050	7	Sololá	701	Sololá	4	Finca Santa Victoria	5	Mayo	2023-10-05T00:00:00	2024-11-08T01:00:00	7	Dirección del viento	0
106051	7	Sololá	701	Sololá	4	Finca Santa Victoria	5	Mayo	2023-10-05T00:00:00	2024-11-08T01:00:00	1	Precipitación	0
106052	7	Sololá	701	Sololá	4	Finca Santa Victoria	5	Mayo	2023-10-05T00:00:00	2024-11-08T01:00:00	8	Radiación solar	0
106053	7	Sololá	701	Sololá	4	Finca Santa Victoria	5	Mayo	2023-10-05T00:00:00	2024-11-08T02:00:00	2	Temperatura media	14.3
106054	7	Sololá	701	Sololá	4	Finca Santa Victoria	5	Mayo	2023-10-05T00:00:00	2024-11-08T02:00:00	4	Temperatura máxima	14.7
106055	7	Sololá	701	Sololá	4	Finca Santa Victoria	5	Mayo	2023-10-05T00:00:00	2024-11-08T02:00:00	3	Temperatura mínima	14.3
106056	7	Sololá	701	Sololá	4	Finca Santa Victoria	5	Mayo	2023-10-05T00:00:00	2024-11-08T02:00:00	5	Humedad	98
106057	7	Sololá	701	Sololá	4	Finca Santa Victoria	5	Mayo	2023-10-05T00:00:00	2024-11-08T02:00:00	6	Velocidad del viento	0
106058	7	Sololá	701	Sololá	4	Finca Santa Victoria	5	Mayo	2023-10-05T00:00:00	2024-11-08T02:00:00	7	Dirección del viento	0
106059	7	Sololá	701	Sololá	4	Finca Santa Victoria	5	Mayo	2023-10-05T00:00:00	2024-11-08T02:00:00	1	Precipitación	0
106060	7	Sololá	701	Sololá	4	Finca Santa Victoria	5	Mayo	2023-10-05T00:00:00	2024-11-08T02:00:00	8	Radiación solar	0
106061	7	Sololá	701	Sololá	4	Finca Santa Victoria	5	Mayo	2023-10-05T00:00:00	2024-11-08T03:00:00	2	Temperatura media	13.6
106062	7	Sololá	701	Sololá	4	Finca Santa Victoria	5	Mayo	2023-10-05T00:00:00	2024-11-08T03:00:00	4	Temperatura máxima	14.3
106063	7	Sololá	701	Sololá	4	Finca Santa Victoria	5	Mayo	2023-10-05T00:00:00	2024-11-08T03:00:00	3	Temperatura mínima	13.6
106064	7	Sololá	701	Sololá	4	Finca Santa Victoria	5	Mayo	2023-10-05T00:00:00	2024-11-08T03:00:00	5	Humedad	98
106065	7	Sololá	701	Sololá	4	Finca Santa Victoria	5	Mayo	2023-10-05T00:00:00	2024-11-08T03:00:00	6	Velocidad del viento	0
106066	7	Sololá	701	Sololá	4	Finca Santa Victoria	5	Mayo	2023-10-05T00:00:00	2024-11-08T03:00:00	7	Dirección del viento	0
106067	7	Sololá	701	Sololá	4	Finca Santa Victoria	5	Mayo	2023-10-05T00:00:00	2024-11-08T03:00:00	1	Precipitación	0
106068	7	Sololá	701	Sololá	4	Finca Santa Victoria	5	Mayo	2023-10-05T00:00:00	2024-11-08T03:00:00	8	Radiación solar	0
106069	7	Sololá	701	Sololá	4	Finca Santa Victoria	5	Mayo	2023-10-05T00:00:00	2024-11-08T04:00:00	2	Temperatura media	13.4
106070	7	Sololá	701	Sololá	4	Finca Santa Victoria	5	Mayo	2023-10-05T00:00:00	2024-11-08T04:00:00	4	Temperatura máxima	13.7
106071	7	Sololá	701	Sololá	4	Finca Santa Victoria	5	Mayo	2023-10-05T00:00:00	2024-11-08T04:00:00	3	Temperatura mínima	13.3
106072	7	Sololá	701	Sololá	4	Finca Santa Victoria	5	Mayo	2023-10-05T00:00:00	2024-11-08T04:00:00	5	Humedad	98
106073	7	Sololá	701	Sololá	4	Finca Santa Victoria	5	Mayo	2023-10-05T00:00:00	2024-11-08T04:00:00	6	Velocidad del viento	0
106074	7	Sololá	701	Sololá	4	Finca Santa Victoria	5	Mayo	2023-10-05T00:00:00	2024-11-08T04:00:00	7	Dirección del viento	0
106075	7	Sololá	701	Sololá	4	Finca Santa Victoria	5	Mayo	2023-10-05T00:00:00	2024-11-08T04:00:00	1	Precipitación	0
106076	7	Sololá	701	Sololá	4	Finca Santa Victoria	5	Mayo	2023-10-05T00:00:00	2024-11-08T04:00:00	8	Radiación solar	0
106077	7	Sololá	701	Sololá	4	Finca Santa Victoria	5	Mayo	2023-10-05T00:00:00	2024-11-08T05:00:00	2	Temperatura media	12.9
106078	7	Sololá	701	Sololá	4	Finca Santa Victoria	5	Mayo	2023-10-05T00:00:00	2024-11-08T05:00:00	4	Temperatura máxima	13.4
106079	7	Sololá	701	Sololá	4	Finca Santa Victoria	5	Mayo	2023-10-05T00:00:00	2024-11-08T05:00:00	3	Temperatura mínima	12.9
106080	7	Sololá	701	Sololá	4	Finca Santa Victoria	5	Mayo	2023-10-05T00:00:00	2024-11-08T05:00:00	5	Humedad	98
106081	7	Sololá	701	Sololá	4	Finca Santa Victoria	5	Mayo	2023-10-05T00:00:00	2024-11-08T05:00:00	6	Velocidad del viento	1.6
106082	7	Sololá	701	Sololá	4	Finca Santa Victoria	5	Mayo	2023-10-05T00:00:00	2024-11-08T05:00:00	7	Dirección del viento	1.61
106083	7	Sololá	701	Sololá	4	Finca Santa Victoria	5	Mayo	2023-10-05T00:00:00	2024-11-08T05:00:00	1	Precipitación	0
106084	7	Sololá	701	Sololá	4	Finca Santa Victoria	5	Mayo	2023-10-05T00:00:00	2024-11-08T05:00:00	8	Radiación solar	0
106085	7	Sololá	701	Sololá	4	Finca Santa Victoria	5	Mayo	2023-10-05T00:00:00	2024-11-08T06:00:00	2	Temperatura media	13.3
106086	7	Sololá	701	Sololá	4	Finca Santa Victoria	5	Mayo	2023-10-05T00:00:00	2024-11-08T06:00:00	4	Temperatura máxima	13.3
106087	7	Sololá	701	Sololá	4	Finca Santa Victoria	5	Mayo	2023-10-05T00:00:00	2024-11-08T06:00:00	3	Temperatura mínima	12.9
106088	7	Sololá	701	Sololá	4	Finca Santa Victoria	5	Mayo	2023-10-05T00:00:00	2024-11-08T06:00:00	5	Humedad	97
106089	7	Sololá	701	Sololá	4	Finca Santa Victoria	5	Mayo	2023-10-05T00:00:00	2024-11-08T06:00:00	6	Velocidad del viento	1.6
106090	7	Sololá	701	Sololá	4	Finca Santa Victoria	5	Mayo	2023-10-05T00:00:00	2024-11-08T06:00:00	7	Dirección del viento	1.61
106091	7	Sololá	701	Sololá	4	Finca Santa Victoria	5	Mayo	2023-10-05T00:00:00	2024-11-08T06:00:00	1	Precipitación	0
106092	7	Sololá	701	Sololá	4	Finca Santa Victoria	5	Mayo	2023-10-05T00:00:00	2024-11-08T06:00:00	8	Radiación solar	2
106093	7	Sololá	701	Sololá	4	Finca Santa Victoria	5	Mayo	2023-10-05T00:00:00	2024-11-08T07:00:00	2	Temperatura media	14.1
106094	7	Sololá	701	Sololá	4	Finca Santa Victoria	5	Mayo	2023-10-05T00:00:00	2024-11-08T07:00:00	4	Temperatura máxima	14.1
106095	7	Sololá	701	Sololá	4	Finca Santa Victoria	5	Mayo	2023-10-05T00:00:00	2024-11-08T07:00:00	3	Temperatura mínima	13.3
106096	7	Sololá	701	Sololá	4	Finca Santa Victoria	5	Mayo	2023-10-05T00:00:00	2024-11-08T07:00:00	5	Humedad	97
106097	7	Sololá	701	Sololá	4	Finca Santa Victoria	5	Mayo	2023-10-05T00:00:00	2024-11-08T07:00:00	6	Velocidad del viento	0
106098	7	Sololá	701	Sololá	4	Finca Santa Victoria	5	Mayo	2023-10-05T00:00:00	2024-11-08T07:00:00	7	Dirección del viento	0
106099	7	Sololá	701	Sololá	4	Finca Santa Victoria	5	Mayo	2023-10-05T00:00:00	2024-11-08T07:00:00	1	Precipitación	0
106100	7	Sololá	701	Sololá	4	Finca Santa Victoria	5	Mayo	2023-10-05T00:00:00	2024-11-08T07:00:00	8	Radiación solar	43
106101	7	Sololá	701	Sololá	4	Finca Santa Victoria	5	Mayo	2023-10-05T00:00:00	2024-11-08T08:00:00	2	Temperatura media	15.6
106102	7	Sololá	701	Sololá	4	Finca Santa Victoria	5	Mayo	2023-10-05T00:00:00	2024-11-08T08:00:00	4	Temperatura máxima	15.6
106103	7	Sololá	701	Sololá	4	Finca Santa Victoria	5	Mayo	2023-10-05T00:00:00	2024-11-08T08:00:00	3	Temperatura mínima	14.1
106104	7	Sololá	701	Sololá	4	Finca Santa Victoria	5	Mayo	2023-10-05T00:00:00	2024-11-08T08:00:00	5	Humedad	91
106105	7	Sololá	701	Sololá	4	Finca Santa Victoria	5	Mayo	2023-10-05T00:00:00	2024-11-08T08:00:00	6	Velocidad del viento	0
106106	7	Sololá	701	Sololá	4	Finca Santa Victoria	5	Mayo	2023-10-05T00:00:00	2024-11-08T08:00:00	7	Dirección del viento	0
106107	7	Sololá	701	Sololá	4	Finca Santa Victoria	5	Mayo	2023-10-05T00:00:00	2024-11-08T08:00:00	1	Precipitación	0
106108	7	Sololá	701	Sololá	4	Finca Santa Victoria	5	Mayo	2023-10-05T00:00:00	2024-11-08T08:00:00	8	Radiación solar	103
106109	7	Sololá	701	Sololá	4	Finca Santa Victoria	5	Mayo	2023-10-05T00:00:00	2024-11-08T09:00:00	2	Temperatura media	17.2
106110	7	Sololá	701	Sololá	4	Finca Santa Victoria	5	Mayo	2023-10-05T00:00:00	2024-11-08T09:00:00	4	Temperatura máxima	17.2
106111	7	Sololá	701	Sololá	4	Finca Santa Victoria	5	Mayo	2023-10-05T00:00:00	2024-11-08T09:00:00	3	Temperatura mínima	15.5
106112	7	Sololá	701	Sololá	4	Finca Santa Victoria	5	Mayo	2023-10-05T00:00:00	2024-11-08T09:00:00	5	Humedad	84
106113	7	Sololá	701	Sololá	4	Finca Santa Victoria	5	Mayo	2023-10-05T00:00:00	2024-11-08T09:00:00	6	Velocidad del viento	1.6
106114	7	Sololá	701	Sololá	4	Finca Santa Victoria	5	Mayo	2023-10-05T00:00:00	2024-11-08T09:00:00	7	Dirección del viento	1.61
106115	7	Sololá	701	Sololá	4	Finca Santa Victoria	5	Mayo	2023-10-05T00:00:00	2024-11-08T09:00:00	1	Precipitación	0
106116	7	Sololá	701	Sololá	4	Finca Santa Victoria	5	Mayo	2023-10-05T00:00:00	2024-11-08T09:00:00	8	Radiación solar	235
106117	7	Sololá	701	Sololá	4	Finca Santa Victoria	5	Mayo	2023-10-05T00:00:00	2024-11-08T10:00:00	2	Temperatura media	18.9
106118	7	Sololá	701	Sololá	4	Finca Santa Victoria	5	Mayo	2023-10-05T00:00:00	2024-11-08T10:00:00	4	Temperatura máxima	18.9
106119	7	Sololá	701	Sololá	4	Finca Santa Victoria	5	Mayo	2023-10-05T00:00:00	2024-11-08T10:00:00	3	Temperatura mínima	17.3
106120	7	Sololá	701	Sololá	4	Finca Santa Victoria	5	Mayo	2023-10-05T00:00:00	2024-11-08T10:00:00	5	Humedad	74
106121	7	Sololá	701	Sololá	4	Finca Santa Victoria	5	Mayo	2023-10-05T00:00:00	2024-11-08T10:00:00	6	Velocidad del viento	3.2
106122	7	Sololá	701	Sololá	4	Finca Santa Victoria	5	Mayo	2023-10-05T00:00:00	2024-11-08T10:00:00	7	Dirección del viento	3.22
106123	7	Sololá	701	Sololá	4	Finca Santa Victoria	5	Mayo	2023-10-05T00:00:00	2024-11-08T10:00:00	1	Precipitación	0
106124	7	Sololá	701	Sololá	4	Finca Santa Victoria	5	Mayo	2023-10-05T00:00:00	2024-11-08T10:00:00	8	Radiación solar	251
106125	7	Sololá	701	Sololá	4	Finca Santa Victoria	5	Mayo	2023-10-05T00:00:00	2024-11-08T11:00:00	2	Temperatura media	19.7
106126	7	Sololá	701	Sololá	4	Finca Santa Victoria	5	Mayo	2023-10-05T00:00:00	2024-11-08T11:00:00	4	Temperatura máxima	20.2
106127	7	Sololá	701	Sololá	4	Finca Santa Victoria	5	Mayo	2023-10-05T00:00:00	2024-11-08T11:00:00	3	Temperatura mínima	18.9
106128	7	Sololá	701	Sololá	4	Finca Santa Victoria	5	Mayo	2023-10-05T00:00:00	2024-11-08T11:00:00	5	Humedad	73
106129	7	Sololá	701	Sololá	4	Finca Santa Victoria	5	Mayo	2023-10-05T00:00:00	2024-11-08T11:00:00	6	Velocidad del viento	4.8
106130	7	Sololá	701	Sololá	4	Finca Santa Victoria	5	Mayo	2023-10-05T00:00:00	2024-11-08T11:00:00	7	Dirección del viento	4.83
106131	7	Sololá	701	Sololá	4	Finca Santa Victoria	5	Mayo	2023-10-05T00:00:00	2024-11-08T11:00:00	1	Precipitación	0
106132	7	Sololá	701	Sololá	4	Finca Santa Victoria	5	Mayo	2023-10-05T00:00:00	2024-11-08T11:00:00	8	Radiación solar	616
106133	7	Sololá	701	Sololá	4	Finca Santa Victoria	5	Mayo	2023-10-05T00:00:00	2024-11-08T12:00:00	2	Temperatura media	19.1
106134	7	Sololá	701	Sololá	4	Finca Santa Victoria	5	Mayo	2023-10-05T00:00:00	2024-11-08T12:00:00	4	Temperatura máxima	19.9
106135	7	Sololá	701	Sololá	4	Finca Santa Victoria	5	Mayo	2023-10-05T00:00:00	2024-11-08T12:00:00	3	Temperatura mínima	19
106136	7	Sololá	701	Sololá	4	Finca Santa Victoria	5	Mayo	2023-10-05T00:00:00	2024-11-08T12:00:00	5	Humedad	80
106137	7	Sololá	701	Sololá	4	Finca Santa Victoria	5	Mayo	2023-10-05T00:00:00	2024-11-08T12:00:00	6	Velocidad del viento	6.4
106138	7	Sololá	701	Sololá	4	Finca Santa Victoria	5	Mayo	2023-10-05T00:00:00	2024-11-08T12:00:00	7	Dirección del viento	6.44
106139	7	Sololá	701	Sololá	4	Finca Santa Victoria	5	Mayo	2023-10-05T00:00:00	2024-11-08T12:00:00	1	Precipitación	0
106140	7	Sololá	701	Sololá	4	Finca Santa Victoria	5	Mayo	2023-10-05T00:00:00	2024-11-08T12:00:00	8	Radiación solar	750
106141	7	Sololá	701	Sololá	4	Finca Santa Victoria	5	Mayo	2023-10-05T00:00:00	2024-11-08T13:00:00	2	Temperatura media	18.3
106142	7	Sololá	701	Sololá	4	Finca Santa Victoria	5	Mayo	2023-10-05T00:00:00	2024-11-08T13:00:00	4	Temperatura máxima	19.1
106143	7	Sololá	701	Sololá	4	Finca Santa Victoria	5	Mayo	2023-10-05T00:00:00	2024-11-08T13:00:00	3	Temperatura mínima	18.1
106144	7	Sololá	701	Sololá	4	Finca Santa Victoria	5	Mayo	2023-10-05T00:00:00	2024-11-08T13:00:00	5	Humedad	84
106145	7	Sololá	701	Sololá	4	Finca Santa Victoria	5	Mayo	2023-10-05T00:00:00	2024-11-08T13:00:00	6	Velocidad del viento	4.8
106146	7	Sololá	701	Sololá	4	Finca Santa Victoria	5	Mayo	2023-10-05T00:00:00	2024-11-08T13:00:00	7	Dirección del viento	4.83
106147	7	Sololá	701	Sololá	4	Finca Santa Victoria	5	Mayo	2023-10-05T00:00:00	2024-11-08T13:00:00	1	Precipitación	0
106148	7	Sololá	701	Sololá	4	Finca Santa Victoria	5	Mayo	2023-10-05T00:00:00	2024-11-08T13:00:00	8	Radiación solar	276
106149	7	Sololá	701	Sololá	4	Finca Santa Victoria	5	Mayo	2023-10-05T00:00:00	2024-11-08T14:00:00	2	Temperatura media	17.3
106150	7	Sololá	701	Sololá	4	Finca Santa Victoria	5	Mayo	2023-10-05T00:00:00	2024-11-08T14:00:00	4	Temperatura máxima	18.2
106151	7	Sololá	701	Sololá	4	Finca Santa Victoria	5	Mayo	2023-10-05T00:00:00	2024-11-08T14:00:00	3	Temperatura mínima	17.2
106152	7	Sololá	701	Sololá	4	Finca Santa Victoria	5	Mayo	2023-10-05T00:00:00	2024-11-08T14:00:00	5	Humedad	89
106153	7	Sololá	701	Sololá	4	Finca Santa Victoria	5	Mayo	2023-10-05T00:00:00	2024-11-08T14:00:00	6	Velocidad del viento	4.8
106154	7	Sololá	701	Sololá	4	Finca Santa Victoria	5	Mayo	2023-10-05T00:00:00	2024-11-08T14:00:00	7	Dirección del viento	4.83
106155	7	Sololá	701	Sololá	4	Finca Santa Victoria	5	Mayo	2023-10-05T00:00:00	2024-11-08T14:00:00	1	Precipitación	0
106156	7	Sololá	701	Sololá	4	Finca Santa Victoria	5	Mayo	2023-10-05T00:00:00	2024-11-08T14:00:00	8	Radiación solar	123
106157	7	Sololá	701	Sololá	4	Finca Santa Victoria	5	Mayo	2023-10-05T00:00:00	2024-11-08T15:00:00	2	Temperatura media	16.6
106158	7	Sololá	701	Sololá	4	Finca Santa Victoria	5	Mayo	2023-10-05T00:00:00	2024-11-08T15:00:00	4	Temperatura máxima	17.3
106159	7	Sololá	701	Sololá	4	Finca Santa Victoria	5	Mayo	2023-10-05T00:00:00	2024-11-08T15:00:00	3	Temperatura mínima	16.6
106160	7	Sololá	701	Sololá	4	Finca Santa Victoria	5	Mayo	2023-10-05T00:00:00	2024-11-08T15:00:00	5	Humedad	92
106161	7	Sololá	701	Sololá	4	Finca Santa Victoria	5	Mayo	2023-10-05T00:00:00	2024-11-08T15:00:00	6	Velocidad del viento	1.6
106162	7	Sololá	701	Sololá	4	Finca Santa Victoria	5	Mayo	2023-10-05T00:00:00	2024-11-08T15:00:00	7	Dirección del viento	1.61
106163	7	Sololá	701	Sololá	4	Finca Santa Victoria	5	Mayo	2023-10-05T00:00:00	2024-11-08T15:00:00	1	Precipitación	0
106164	7	Sololá	701	Sololá	4	Finca Santa Victoria	5	Mayo	2023-10-05T00:00:00	2024-11-08T15:00:00	8	Radiación solar	69
106165	7	Sololá	701	Sololá	4	Finca Santa Victoria	5	Mayo	2023-10-05T00:00:00	2024-11-08T16:00:00	2	Temperatura media	15.9
106166	7	Sololá	701	Sololá	4	Finca Santa Victoria	5	Mayo	2023-10-05T00:00:00	2024-11-08T16:00:00	4	Temperatura máxima	16.6
106167	7	Sololá	701	Sololá	4	Finca Santa Victoria	5	Mayo	2023-10-05T00:00:00	2024-11-08T16:00:00	3	Temperatura mínima	15.8
106168	7	Sololá	701	Sololá	4	Finca Santa Victoria	5	Mayo	2023-10-05T00:00:00	2024-11-08T16:00:00	5	Humedad	95
106169	7	Sololá	701	Sololá	4	Finca Santa Victoria	5	Mayo	2023-10-05T00:00:00	2024-11-08T16:00:00	6	Velocidad del viento	1.6
106170	7	Sololá	701	Sololá	4	Finca Santa Victoria	5	Mayo	2023-10-05T00:00:00	2024-11-08T16:00:00	7	Dirección del viento	1.61
106171	7	Sololá	701	Sololá	4	Finca Santa Victoria	5	Mayo	2023-10-05T00:00:00	2024-11-08T16:00:00	1	Precipitación	0
106172	7	Sololá	701	Sololá	4	Finca Santa Victoria	5	Mayo	2023-10-05T00:00:00	2024-11-08T16:00:00	8	Radiación solar	27
106173	7	Sololá	701	Sololá	4	Finca Santa Victoria	5	Mayo	2023-10-05T00:00:00	2024-11-08T17:00:00	2	Temperatura media	15.6
106174	7	Sololá	701	Sololá	4	Finca Santa Victoria	5	Mayo	2023-10-05T00:00:00	2024-11-08T17:00:00	4	Temperatura máxima	16
106175	7	Sololá	701	Sololá	4	Finca Santa Victoria	5	Mayo	2023-10-05T00:00:00	2024-11-08T17:00:00	3	Temperatura mínima	15.6
106176	7	Sololá	701	Sololá	4	Finca Santa Victoria	5	Mayo	2023-10-05T00:00:00	2024-11-08T17:00:00	5	Humedad	97
106177	7	Sololá	701	Sololá	4	Finca Santa Victoria	5	Mayo	2023-10-05T00:00:00	2024-11-08T17:00:00	6	Velocidad del viento	1.6
106178	7	Sololá	701	Sololá	4	Finca Santa Victoria	5	Mayo	2023-10-05T00:00:00	2024-11-08T17:00:00	7	Dirección del viento	1.61
106179	7	Sololá	701	Sololá	4	Finca Santa Victoria	5	Mayo	2023-10-05T00:00:00	2024-11-08T17:00:00	1	Precipitación	0
106180	7	Sololá	701	Sololá	4	Finca Santa Victoria	5	Mayo	2023-10-05T00:00:00	2024-11-08T17:00:00	8	Radiación solar	21
106181	7	Sololá	701	Sololá	4	Finca Santa Victoria	5	Mayo	2023-10-05T00:00:00	2024-11-08T18:00:00	2	Temperatura media	15.4
106182	7	Sololá	701	Sololá	4	Finca Santa Victoria	5	Mayo	2023-10-05T00:00:00	2024-11-08T18:00:00	4	Temperatura máxima	15.7
106183	7	Sololá	701	Sololá	4	Finca Santa Victoria	5	Mayo	2023-10-05T00:00:00	2024-11-08T18:00:00	3	Temperatura mínima	15.4
106184	7	Sololá	701	Sololá	4	Finca Santa Victoria	5	Mayo	2023-10-05T00:00:00	2024-11-08T18:00:00	5	Humedad	97
106185	7	Sololá	701	Sololá	4	Finca Santa Victoria	5	Mayo	2023-10-05T00:00:00	2024-11-08T18:00:00	6	Velocidad del viento	1.6
106186	7	Sololá	701	Sololá	4	Finca Santa Victoria	5	Mayo	2023-10-05T00:00:00	2024-11-08T18:00:00	7	Dirección del viento	1.61
106187	7	Sololá	701	Sololá	4	Finca Santa Victoria	5	Mayo	2023-10-05T00:00:00	2024-11-08T18:00:00	1	Precipitación	0.4
106188	7	Sololá	701	Sololá	4	Finca Santa Victoria	5	Mayo	2023-10-05T00:00:00	2024-11-08T18:00:00	8	Radiación solar	9
106189	7	Sololá	701	Sololá	4	Finca Santa Victoria	5	Mayo	2023-10-05T00:00:00	2024-11-08T19:00:00	2	Temperatura media	14.3
106190	7	Sololá	701	Sololá	4	Finca Santa Victoria	5	Mayo	2023-10-05T00:00:00	2024-11-08T19:00:00	4	Temperatura máxima	15.5
106191	7	Sololá	701	Sololá	4	Finca Santa Victoria	5	Mayo	2023-10-05T00:00:00	2024-11-08T19:00:00	3	Temperatura mínima	14.3
106192	7	Sololá	701	Sololá	4	Finca Santa Victoria	5	Mayo	2023-10-05T00:00:00	2024-11-08T19:00:00	5	Humedad	92
106193	7	Sololá	701	Sololá	4	Finca Santa Victoria	5	Mayo	2023-10-05T00:00:00	2024-11-08T19:00:00	6	Velocidad del viento	1.6
106194	7	Sololá	701	Sololá	4	Finca Santa Victoria	5	Mayo	2023-10-05T00:00:00	2024-11-08T19:00:00	7	Dirección del viento	1.61
106195	7	Sololá	701	Sololá	4	Finca Santa Victoria	5	Mayo	2023-10-05T00:00:00	2024-11-08T19:00:00	1	Precipitación	4.2
106196	7	Sololá	701	Sololá	4	Finca Santa Victoria	5	Mayo	2023-10-05T00:00:00	2024-11-08T19:00:00	8	Radiación solar	0
106197	7	Sololá	701	Sololá	4	Finca Santa Victoria	5	Mayo	2023-10-05T00:00:00	2024-11-08T20:00:00	2	Temperatura media	11.6
106198	7	Sololá	701	Sololá	4	Finca Santa Victoria	5	Mayo	2023-10-05T00:00:00	2024-11-08T20:00:00	4	Temperatura máxima	14.3
106199	7	Sololá	701	Sololá	4	Finca Santa Victoria	5	Mayo	2023-10-05T00:00:00	2024-11-08T20:00:00	3	Temperatura mínima	11.6
106200	7	Sololá	701	Sololá	4	Finca Santa Victoria	5	Mayo	2023-10-05T00:00:00	2024-11-08T20:00:00	5	Humedad	90
106201	7	Sololá	701	Sololá	4	Finca Santa Victoria	5	Mayo	2023-10-05T00:00:00	2024-11-08T20:00:00	6	Velocidad del viento	3.2
106202	7	Sololá	701	Sololá	4	Finca Santa Victoria	5	Mayo	2023-10-05T00:00:00	2024-11-08T20:00:00	7	Dirección del viento	3.22
106203	7	Sololá	701	Sololá	4	Finca Santa Victoria	5	Mayo	2023-10-05T00:00:00	2024-11-08T20:00:00	1	Precipitación	3.2
106204	7	Sololá	701	Sololá	4	Finca Santa Victoria	5	Mayo	2023-10-05T00:00:00	2024-11-08T20:00:00	8	Radiación solar	0
106205	7	Sololá	701	Sololá	4	Finca Santa Victoria	5	Mayo	2023-10-05T00:00:00	2024-11-08T21:00:00	2	Temperatura media	11.8
106206	7	Sololá	701	Sololá	4	Finca Santa Victoria	5	Mayo	2023-10-05T00:00:00	2024-11-08T21:00:00	4	Temperatura máxima	11.9
106207	7	Sololá	701	Sololá	4	Finca Santa Victoria	5	Mayo	2023-10-05T00:00:00	2024-11-08T21:00:00	3	Temperatura mínima	11.1
106208	7	Sololá	701	Sololá	4	Finca Santa Victoria	5	Mayo	2023-10-05T00:00:00	2024-11-08T21:00:00	5	Humedad	97
106209	7	Sololá	701	Sololá	4	Finca Santa Victoria	5	Mayo	2023-10-05T00:00:00	2024-11-08T21:00:00	6	Velocidad del viento	1.6
106210	7	Sololá	701	Sololá	4	Finca Santa Victoria	5	Mayo	2023-10-05T00:00:00	2024-11-08T21:00:00	7	Dirección del viento	1.61
106211	7	Sololá	701	Sololá	4	Finca Santa Victoria	5	Mayo	2023-10-05T00:00:00	2024-11-08T21:00:00	1	Precipitación	3
106212	7	Sololá	701	Sololá	4	Finca Santa Victoria	5	Mayo	2023-10-05T00:00:00	2024-11-08T21:00:00	8	Radiación solar	0
106213	7	Sololá	701	Sololá	4	Finca Santa Victoria	5	Mayo	2023-10-05T00:00:00	2024-11-08T22:00:00	2	Temperatura media	11.1
106214	7	Sololá	701	Sololá	4	Finca Santa Victoria	5	Mayo	2023-10-05T00:00:00	2024-11-08T22:00:00	4	Temperatura máxima	11.8
106215	7	Sololá	701	Sololá	4	Finca Santa Victoria	5	Mayo	2023-10-05T00:00:00	2024-11-08T22:00:00	3	Temperatura mínima	10.9
106216	7	Sololá	701	Sololá	4	Finca Santa Victoria	5	Mayo	2023-10-05T00:00:00	2024-11-08T22:00:00	5	Humedad	92
106217	7	Sololá	701	Sololá	4	Finca Santa Victoria	5	Mayo	2023-10-05T00:00:00	2024-11-08T22:00:00	6	Velocidad del viento	1.6
106218	7	Sololá	701	Sololá	4	Finca Santa Victoria	5	Mayo	2023-10-05T00:00:00	2024-11-08T22:00:00	7	Dirección del viento	1.61
106219	7	Sololá	701	Sololá	4	Finca Santa Victoria	5	Mayo	2023-10-05T00:00:00	2024-11-08T22:00:00	1	Precipitación	0.2
106220	7	Sololá	701	Sololá	4	Finca Santa Victoria	5	Mayo	2023-10-05T00:00:00	2024-11-08T22:00:00	8	Radiación solar	0
106221	7	Sololá	701	Sololá	4	Finca Santa Victoria	5	Mayo	2023-10-05T00:00:00	2024-11-08T23:00:00	2	Temperatura media	12.3
106222	7	Sololá	701	Sololá	4	Finca Santa Victoria	5	Mayo	2023-10-05T00:00:00	2024-11-08T23:00:00	4	Temperatura máxima	12.4
106223	7	Sololá	701	Sololá	4	Finca Santa Victoria	5	Mayo	2023-10-05T00:00:00	2024-11-08T23:00:00	3	Temperatura mínima	11.1
106224	7	Sololá	701	Sololá	4	Finca Santa Victoria	5	Mayo	2023-10-05T00:00:00	2024-11-08T23:00:00	5	Humedad	82
106225	7	Sololá	701	Sololá	4	Finca Santa Victoria	5	Mayo	2023-10-05T00:00:00	2024-11-08T23:00:00	6	Velocidad del viento	1.6
106226	7	Sololá	701	Sololá	4	Finca Santa Victoria	5	Mayo	2023-10-05T00:00:00	2024-11-08T23:00:00	7	Dirección del viento	1.61
106227	7	Sololá	701	Sololá	4	Finca Santa Victoria	5	Mayo	2023-10-05T00:00:00	2024-11-08T23:00:00	1	Precipitación	0
106228	7	Sololá	701	Sololá	4	Finca Santa Victoria	5	Mayo	2023-10-05T00:00:00	2024-11-08T23:00:00	8	Radiación solar	0
106229	7	Sololá	701	Sololá	4	Finca Santa Victoria	5	Mayo	2023-11-05T00:00:00	2024-11-08T00:00:00	2	Temperatura media	10.8
106230	7	Sololá	701	Sololá	4	Finca Santa Victoria	5	Mayo	2023-11-05T00:00:00	2024-11-08T00:00:00	4	Temperatura máxima	12.7
106231	7	Sololá	701	Sololá	4	Finca Santa Victoria	5	Mayo	2023-11-05T00:00:00	2024-11-08T00:00:00	3	Temperatura mínima	10.8
106232	7	Sololá	701	Sololá	4	Finca Santa Victoria	5	Mayo	2023-11-05T00:00:00	2024-11-08T00:00:00	5	Humedad	93
106233	7	Sololá	701	Sololá	4	Finca Santa Victoria	5	Mayo	2023-11-05T00:00:00	2024-11-08T00:00:00	6	Velocidad del viento	1.6
106234	7	Sololá	701	Sololá	4	Finca Santa Victoria	5	Mayo	2023-11-05T00:00:00	2024-11-08T00:00:00	7	Dirección del viento	1.61
106235	7	Sololá	701	Sololá	4	Finca Santa Victoria	5	Mayo	2023-11-05T00:00:00	2024-11-08T00:00:00	1	Precipitación	0
106236	7	Sololá	701	Sololá	4	Finca Santa Victoria	5	Mayo	2023-11-05T00:00:00	2024-11-08T00:00:00	8	Radiación solar	0
106237	7	Sololá	701	Sololá	4	Finca Santa Victoria	5	Mayo	2023-11-05T00:00:00	2024-11-08T01:00:00	2	Temperatura media	11.3
106238	7	Sololá	701	Sololá	4	Finca Santa Victoria	5	Mayo	2023-11-05T00:00:00	2024-11-08T01:00:00	4	Temperatura máxima	11.3
106239	7	Sololá	701	Sololá	4	Finca Santa Victoria	5	Mayo	2023-11-05T00:00:00	2024-11-08T01:00:00	3	Temperatura mínima	10.8
106240	7	Sololá	701	Sololá	4	Finca Santa Victoria	5	Mayo	2023-11-05T00:00:00	2024-11-08T01:00:00	5	Humedad	91
106241	7	Sololá	701	Sololá	4	Finca Santa Victoria	5	Mayo	2023-11-05T00:00:00	2024-11-08T01:00:00	6	Velocidad del viento	1.6
106242	7	Sololá	701	Sololá	4	Finca Santa Victoria	5	Mayo	2023-11-05T00:00:00	2024-11-08T01:00:00	7	Dirección del viento	1.61
106243	7	Sololá	701	Sololá	4	Finca Santa Victoria	5	Mayo	2023-11-05T00:00:00	2024-11-08T01:00:00	1	Precipitación	0
106244	7	Sololá	701	Sololá	4	Finca Santa Victoria	5	Mayo	2023-11-05T00:00:00	2024-11-08T01:00:00	8	Radiación solar	0
106245	7	Sololá	701	Sololá	4	Finca Santa Victoria	5	Mayo	2023-11-05T00:00:00	2024-11-08T02:00:00	2	Temperatura media	11.6
106246	7	Sololá	701	Sololá	4	Finca Santa Victoria	5	Mayo	2023-11-05T00:00:00	2024-11-08T02:00:00	4	Temperatura máxima	11.6
106247	7	Sololá	701	Sololá	4	Finca Santa Victoria	5	Mayo	2023-11-05T00:00:00	2024-11-08T02:00:00	3	Temperatura mínima	11.3
106248	7	Sololá	701	Sololá	4	Finca Santa Victoria	5	Mayo	2023-11-05T00:00:00	2024-11-08T02:00:00	5	Humedad	92
106249	7	Sololá	701	Sololá	4	Finca Santa Victoria	5	Mayo	2023-11-05T00:00:00	2024-11-08T02:00:00	6	Velocidad del viento	1.6
106250	7	Sololá	701	Sololá	4	Finca Santa Victoria	5	Mayo	2023-11-05T00:00:00	2024-11-08T02:00:00	7	Dirección del viento	1.61
106251	7	Sololá	701	Sololá	4	Finca Santa Victoria	5	Mayo	2023-11-05T00:00:00	2024-11-08T02:00:00	1	Precipitación	0
106252	7	Sololá	701	Sololá	4	Finca Santa Victoria	5	Mayo	2023-11-05T00:00:00	2024-11-08T02:00:00	8	Radiación solar	0
106253	7	Sololá	701	Sololá	4	Finca Santa Victoria	5	Mayo	2023-11-05T00:00:00	2024-11-08T03:00:00	2	Temperatura media	11.9
106254	7	Sololá	701	Sololá	4	Finca Santa Victoria	5	Mayo	2023-11-05T00:00:00	2024-11-08T03:00:00	4	Temperatura máxima	11.9
106255	7	Sololá	701	Sololá	4	Finca Santa Victoria	5	Mayo	2023-11-05T00:00:00	2024-11-08T03:00:00	3	Temperatura mínima	11.6
106256	7	Sololá	701	Sololá	4	Finca Santa Victoria	5	Mayo	2023-11-05T00:00:00	2024-11-08T03:00:00	5	Humedad	92
106257	7	Sololá	701	Sololá	4	Finca Santa Victoria	5	Mayo	2023-11-05T00:00:00	2024-11-08T03:00:00	6	Velocidad del viento	0
106258	7	Sololá	701	Sololá	4	Finca Santa Victoria	5	Mayo	2023-11-05T00:00:00	2024-11-08T03:00:00	7	Dirección del viento	0
106259	7	Sololá	701	Sololá	4	Finca Santa Victoria	5	Mayo	2023-11-05T00:00:00	2024-11-08T03:00:00	1	Precipitación	0
106260	7	Sololá	701	Sololá	4	Finca Santa Victoria	5	Mayo	2023-11-05T00:00:00	2024-11-08T03:00:00	8	Radiación solar	0
106261	7	Sololá	701	Sololá	4	Finca Santa Victoria	5	Mayo	2023-11-05T00:00:00	2024-11-08T04:00:00	2	Temperatura media	12.4
106262	7	Sololá	701	Sololá	4	Finca Santa Victoria	5	Mayo	2023-11-05T00:00:00	2024-11-08T04:00:00	4	Temperatura máxima	12.6
106263	7	Sololá	701	Sololá	4	Finca Santa Victoria	5	Mayo	2023-11-05T00:00:00	2024-11-08T04:00:00	3	Temperatura mínima	11.9
106264	7	Sololá	701	Sololá	4	Finca Santa Victoria	5	Mayo	2023-11-05T00:00:00	2024-11-08T04:00:00	5	Humedad	88
106265	7	Sololá	701	Sololá	4	Finca Santa Victoria	5	Mayo	2023-11-05T00:00:00	2024-11-08T04:00:00	6	Velocidad del viento	1.6
106266	7	Sololá	701	Sololá	4	Finca Santa Victoria	5	Mayo	2023-11-05T00:00:00	2024-11-08T04:00:00	7	Dirección del viento	1.61
106267	7	Sololá	701	Sololá	4	Finca Santa Victoria	5	Mayo	2023-11-05T00:00:00	2024-11-08T04:00:00	1	Precipitación	0
106268	7	Sololá	701	Sololá	4	Finca Santa Victoria	5	Mayo	2023-11-05T00:00:00	2024-11-08T04:00:00	8	Radiación solar	0
106269	7	Sololá	701	Sololá	4	Finca Santa Victoria	5	Mayo	2023-11-05T00:00:00	2024-11-08T05:00:00	2	Temperatura media	12.3
106270	7	Sololá	701	Sololá	4	Finca Santa Victoria	5	Mayo	2023-11-05T00:00:00	2024-11-08T05:00:00	4	Temperatura máxima	12.6
106271	7	Sololá	701	Sololá	4	Finca Santa Victoria	5	Mayo	2023-11-05T00:00:00	2024-11-08T05:00:00	3	Temperatura mínima	12.3
106272	7	Sololá	701	Sololá	4	Finca Santa Victoria	5	Mayo	2023-11-05T00:00:00	2024-11-08T05:00:00	5	Humedad	89
106273	7	Sololá	701	Sololá	4	Finca Santa Victoria	5	Mayo	2023-11-05T00:00:00	2024-11-08T05:00:00	6	Velocidad del viento	1.6
106274	7	Sololá	701	Sololá	4	Finca Santa Victoria	5	Mayo	2023-11-05T00:00:00	2024-11-08T05:00:00	7	Dirección del viento	1.61
106275	7	Sololá	701	Sololá	4	Finca Santa Victoria	5	Mayo	2023-11-05T00:00:00	2024-11-08T05:00:00	1	Precipitación	0
106276	7	Sololá	701	Sololá	4	Finca Santa Victoria	5	Mayo	2023-11-05T00:00:00	2024-11-08T05:00:00	8	Radiación solar	0
106277	7	Sololá	701	Sololá	4	Finca Santa Victoria	5	Mayo	2023-11-05T00:00:00	2024-11-08T06:00:00	2	Temperatura media	12.7
106278	7	Sololá	701	Sololá	4	Finca Santa Victoria	5	Mayo	2023-11-05T00:00:00	2024-11-08T06:00:00	4	Temperatura máxima	12.7
106279	7	Sololá	701	Sololá	4	Finca Santa Victoria	5	Mayo	2023-11-05T00:00:00	2024-11-08T06:00:00	3	Temperatura mínima	12.3
106280	7	Sololá	701	Sololá	4	Finca Santa Victoria	5	Mayo	2023-11-05T00:00:00	2024-11-08T06:00:00	5	Humedad	85
106281	7	Sololá	701	Sololá	4	Finca Santa Victoria	5	Mayo	2023-11-05T00:00:00	2024-11-08T06:00:00	6	Velocidad del viento	1.6
106282	7	Sololá	701	Sololá	4	Finca Santa Victoria	5	Mayo	2023-11-05T00:00:00	2024-11-08T06:00:00	7	Dirección del viento	1.61
106283	7	Sololá	701	Sololá	4	Finca Santa Victoria	5	Mayo	2023-11-05T00:00:00	2024-11-08T06:00:00	1	Precipitación	0
106284	7	Sololá	701	Sololá	4	Finca Santa Victoria	5	Mayo	2023-11-05T00:00:00	2024-11-08T06:00:00	8	Radiación solar	2
106285	7	Sololá	701	Sololá	4	Finca Santa Victoria	5	Mayo	2023-11-05T00:00:00	2024-11-08T07:00:00	2	Temperatura media	13.4
106286	7	Sololá	701	Sololá	4	Finca Santa Victoria	5	Mayo	2023-11-05T00:00:00	2024-11-08T07:00:00	4	Temperatura máxima	13.4
106287	7	Sololá	701	Sololá	4	Finca Santa Victoria	5	Mayo	2023-11-05T00:00:00	2024-11-08T07:00:00	3	Temperatura mínima	12.7
106288	7	Sololá	701	Sololá	4	Finca Santa Victoria	5	Mayo	2023-11-05T00:00:00	2024-11-08T07:00:00	5	Humedad	77
106289	7	Sololá	701	Sololá	4	Finca Santa Victoria	5	Mayo	2023-11-05T00:00:00	2024-11-08T07:00:00	6	Velocidad del viento	1.6
106290	7	Sololá	701	Sololá	4	Finca Santa Victoria	5	Mayo	2023-11-05T00:00:00	2024-11-08T07:00:00	7	Dirección del viento	1.61
106291	7	Sololá	701	Sololá	4	Finca Santa Victoria	5	Mayo	2023-11-05T00:00:00	2024-11-08T07:00:00	1	Precipitación	0
106292	7	Sololá	701	Sololá	4	Finca Santa Victoria	5	Mayo	2023-11-05T00:00:00	2024-11-08T07:00:00	8	Radiación solar	32
106293	7	Sololá	701	Sololá	4	Finca Santa Victoria	5	Mayo	2023-11-05T00:00:00	2024-11-08T08:00:00	2	Temperatura media	16.6
106294	7	Sololá	701	Sololá	4	Finca Santa Victoria	5	Mayo	2023-11-05T00:00:00	2024-11-08T08:00:00	4	Temperatura máxima	16.6
106295	7	Sololá	701	Sololá	4	Finca Santa Victoria	5	Mayo	2023-11-05T00:00:00	2024-11-08T08:00:00	3	Temperatura mínima	13.4
106296	7	Sololá	701	Sololá	4	Finca Santa Victoria	5	Mayo	2023-11-05T00:00:00	2024-11-08T08:00:00	5	Humedad	70
106297	7	Sololá	701	Sololá	4	Finca Santa Victoria	5	Mayo	2023-11-05T00:00:00	2024-11-08T08:00:00	6	Velocidad del viento	0
106298	7	Sololá	701	Sololá	4	Finca Santa Victoria	5	Mayo	2023-11-05T00:00:00	2024-11-08T08:00:00	7	Dirección del viento	0
106299	7	Sololá	701	Sololá	4	Finca Santa Victoria	5	Mayo	2023-11-05T00:00:00	2024-11-08T08:00:00	1	Precipitación	0
106300	7	Sololá	701	Sololá	4	Finca Santa Victoria	5	Mayo	2023-11-05T00:00:00	2024-11-08T08:00:00	8	Radiación solar	214
106301	7	Sololá	701	Sololá	4	Finca Santa Victoria	5	Mayo	2023-11-05T00:00:00	2024-11-08T09:00:00	2	Temperatura media	17.2
106302	7	Sololá	701	Sololá	4	Finca Santa Victoria	5	Mayo	2023-11-05T00:00:00	2024-11-08T09:00:00	4	Temperatura máxima	17.7
106303	7	Sololá	701	Sololá	4	Finca Santa Victoria	5	Mayo	2023-11-05T00:00:00	2024-11-08T09:00:00	3	Temperatura mínima	16.6
106304	7	Sololá	701	Sololá	4	Finca Santa Victoria	5	Mayo	2023-11-05T00:00:00	2024-11-08T09:00:00	5	Humedad	76
106305	7	Sololá	701	Sololá	4	Finca Santa Victoria	5	Mayo	2023-11-05T00:00:00	2024-11-08T09:00:00	6	Velocidad del viento	1.6
106306	7	Sololá	701	Sololá	4	Finca Santa Victoria	5	Mayo	2023-11-05T00:00:00	2024-11-08T09:00:00	7	Dirección del viento	1.61
106307	7	Sololá	701	Sololá	4	Finca Santa Victoria	5	Mayo	2023-11-05T00:00:00	2024-11-08T09:00:00	1	Precipitación	0
106308	7	Sololá	701	Sololá	4	Finca Santa Victoria	5	Mayo	2023-11-05T00:00:00	2024-11-08T09:00:00	8	Radiación solar	383
106309	7	Sololá	701	Sololá	4	Finca Santa Victoria	5	Mayo	2023-11-05T00:00:00	2024-11-08T10:00:00	2	Temperatura media	17.6
106310	7	Sololá	701	Sololá	4	Finca Santa Victoria	5	Mayo	2023-11-05T00:00:00	2024-11-08T10:00:00	4	Temperatura máxima	17.6
106311	7	Sololá	701	Sololá	4	Finca Santa Victoria	5	Mayo	2023-11-05T00:00:00	2024-11-08T10:00:00	3	Temperatura mínima	16.8
106312	7	Sololá	701	Sololá	4	Finca Santa Victoria	5	Mayo	2023-11-05T00:00:00	2024-11-08T10:00:00	5	Humedad	78
106313	7	Sololá	701	Sololá	4	Finca Santa Victoria	5	Mayo	2023-11-05T00:00:00	2024-11-08T10:00:00	6	Velocidad del viento	3.2
106314	7	Sololá	701	Sololá	4	Finca Santa Victoria	5	Mayo	2023-11-05T00:00:00	2024-11-08T10:00:00	7	Dirección del viento	3.22
106315	7	Sololá	701	Sololá	4	Finca Santa Victoria	5	Mayo	2023-11-05T00:00:00	2024-11-08T10:00:00	1	Precipitación	0
106316	7	Sololá	701	Sololá	4	Finca Santa Victoria	5	Mayo	2023-11-05T00:00:00	2024-11-08T10:00:00	8	Radiación solar	215
106317	7	Sololá	701	Sololá	4	Finca Santa Victoria	5	Mayo	2023-11-05T00:00:00	2024-11-08T11:00:00	2	Temperatura media	18.4
106318	7	Sololá	701	Sololá	4	Finca Santa Victoria	5	Mayo	2023-11-05T00:00:00	2024-11-08T11:00:00	4	Temperatura máxima	18.6
106319	7	Sololá	701	Sololá	4	Finca Santa Victoria	5	Mayo	2023-11-05T00:00:00	2024-11-08T11:00:00	3	Temperatura mínima	17.6
106320	7	Sololá	701	Sololá	4	Finca Santa Victoria	5	Mayo	2023-11-05T00:00:00	2024-11-08T11:00:00	5	Humedad	76
106321	7	Sololá	701	Sololá	4	Finca Santa Victoria	5	Mayo	2023-11-05T00:00:00	2024-11-08T11:00:00	6	Velocidad del viento	3.2
106322	7	Sololá	701	Sololá	4	Finca Santa Victoria	5	Mayo	2023-11-05T00:00:00	2024-11-08T11:00:00	7	Dirección del viento	3.22
106323	7	Sololá	701	Sololá	4	Finca Santa Victoria	5	Mayo	2023-11-05T00:00:00	2024-11-08T11:00:00	1	Precipitación	0
106324	7	Sololá	701	Sololá	4	Finca Santa Victoria	5	Mayo	2023-11-05T00:00:00	2024-11-08T11:00:00	8	Radiación solar	440
106325	7	Sololá	701	Sololá	4	Finca Santa Victoria	5	Mayo	2023-11-05T00:00:00	2024-11-08T12:00:00	2	Temperatura media	19.2
106326	7	Sololá	701	Sololá	4	Finca Santa Victoria	5	Mayo	2023-11-05T00:00:00	2024-11-08T12:00:00	4	Temperatura máxima	19.2
106327	7	Sololá	701	Sololá	4	Finca Santa Victoria	5	Mayo	2023-11-05T00:00:00	2024-11-08T12:00:00	3	Temperatura mínima	18.1
106328	7	Sololá	701	Sololá	4	Finca Santa Victoria	5	Mayo	2023-11-05T00:00:00	2024-11-08T12:00:00	5	Humedad	74
106329	7	Sololá	701	Sololá	4	Finca Santa Victoria	5	Mayo	2023-11-05T00:00:00	2024-11-08T12:00:00	6	Velocidad del viento	4.8
106330	7	Sololá	701	Sololá	4	Finca Santa Victoria	5	Mayo	2023-11-05T00:00:00	2024-11-08T12:00:00	7	Dirección del viento	4.83
106331	7	Sololá	701	Sololá	4	Finca Santa Victoria	5	Mayo	2023-11-05T00:00:00	2024-11-08T12:00:00	1	Precipitación	0
106332	7	Sololá	701	Sololá	4	Finca Santa Victoria	5	Mayo	2023-11-05T00:00:00	2024-11-08T12:00:00	8	Radiación solar	784
106333	7	Sololá	701	Sololá	4	Finca Santa Victoria	5	Mayo	2023-11-05T00:00:00	2024-11-08T13:00:00	2	Temperatura media	17.9
106334	7	Sololá	701	Sololá	4	Finca Santa Victoria	5	Mayo	2023-11-05T00:00:00	2024-11-08T13:00:00	4	Temperatura máxima	19.4
106335	7	Sololá	701	Sololá	4	Finca Santa Victoria	5	Mayo	2023-11-05T00:00:00	2024-11-08T13:00:00	3	Temperatura mínima	17.7
106336	7	Sololá	701	Sololá	4	Finca Santa Victoria	5	Mayo	2023-11-05T00:00:00	2024-11-08T13:00:00	5	Humedad	83
106337	7	Sololá	701	Sololá	4	Finca Santa Victoria	5	Mayo	2023-11-05T00:00:00	2024-11-08T13:00:00	6	Velocidad del viento	6.4
106338	7	Sololá	701	Sololá	4	Finca Santa Victoria	5	Mayo	2023-11-05T00:00:00	2024-11-08T13:00:00	7	Dirección del viento	6.44
106339	7	Sololá	701	Sololá	4	Finca Santa Victoria	5	Mayo	2023-11-05T00:00:00	2024-11-08T13:00:00	1	Precipitación	0
106340	7	Sololá	701	Sololá	4	Finca Santa Victoria	5	Mayo	2023-11-05T00:00:00	2024-11-08T13:00:00	8	Radiación solar	541
106341	7	Sololá	701	Sololá	4	Finca Santa Victoria	5	Mayo	2023-11-05T00:00:00	2024-11-08T14:00:00	2	Temperatura media	18.2
106342	7	Sololá	701	Sololá	4	Finca Santa Victoria	5	Mayo	2023-11-05T00:00:00	2024-11-08T14:00:00	4	Temperatura máxima	18.6
106343	7	Sololá	701	Sololá	4	Finca Santa Victoria	5	Mayo	2023-11-05T00:00:00	2024-11-08T14:00:00	3	Temperatura mínima	17.9
106344	7	Sololá	701	Sololá	4	Finca Santa Victoria	5	Mayo	2023-11-05T00:00:00	2024-11-08T14:00:00	5	Humedad	83
106345	7	Sololá	701	Sololá	4	Finca Santa Victoria	5	Mayo	2023-11-05T00:00:00	2024-11-08T14:00:00	6	Velocidad del viento	3.2
106346	7	Sololá	701	Sololá	4	Finca Santa Victoria	5	Mayo	2023-11-05T00:00:00	2024-11-08T14:00:00	7	Dirección del viento	3.22
106347	7	Sololá	701	Sololá	4	Finca Santa Victoria	5	Mayo	2023-11-05T00:00:00	2024-11-08T14:00:00	1	Precipitación	0
106348	7	Sololá	701	Sololá	4	Finca Santa Victoria	5	Mayo	2023-11-05T00:00:00	2024-11-08T14:00:00	8	Radiación solar	274
106349	7	Sololá	701	Sololá	4	Finca Santa Victoria	5	Mayo	2023-11-05T00:00:00	2024-11-08T15:00:00	2	Temperatura media	18.1
106350	7	Sololá	701	Sololá	4	Finca Santa Victoria	5	Mayo	2023-11-05T00:00:00	2024-11-08T15:00:00	4	Temperatura máxima	18.4
106351	7	Sololá	701	Sololá	4	Finca Santa Victoria	5	Mayo	2023-11-05T00:00:00	2024-11-08T15:00:00	3	Temperatura mínima	17.7
106352	7	Sololá	701	Sololá	4	Finca Santa Victoria	5	Mayo	2023-11-05T00:00:00	2024-11-08T15:00:00	5	Humedad	84
106353	7	Sololá	701	Sololá	4	Finca Santa Victoria	5	Mayo	2023-11-05T00:00:00	2024-11-08T15:00:00	6	Velocidad del viento	4.8
106354	7	Sololá	701	Sololá	4	Finca Santa Victoria	5	Mayo	2023-11-05T00:00:00	2024-11-08T15:00:00	7	Dirección del viento	4.83
106355	7	Sololá	701	Sololá	4	Finca Santa Victoria	5	Mayo	2023-11-05T00:00:00	2024-11-08T15:00:00	1	Precipitación	0
106356	7	Sololá	701	Sololá	4	Finca Santa Victoria	5	Mayo	2023-11-05T00:00:00	2024-11-08T15:00:00	8	Radiación solar	248
106357	7	Sololá	701	Sololá	4	Finca Santa Victoria	5	Mayo	2023-11-05T00:00:00	2024-11-08T16:00:00	2	Temperatura media	16.6
106358	7	Sololá	701	Sololá	4	Finca Santa Victoria	5	Mayo	2023-11-05T00:00:00	2024-11-08T16:00:00	4	Temperatura máxima	18.1
106359	7	Sololá	701	Sololá	4	Finca Santa Victoria	5	Mayo	2023-11-05T00:00:00	2024-11-08T16:00:00	3	Temperatura mínima	16.6
106360	7	Sololá	701	Sololá	4	Finca Santa Victoria	5	Mayo	2023-11-05T00:00:00	2024-11-08T16:00:00	5	Humedad	88
106361	7	Sololá	701	Sololá	4	Finca Santa Victoria	5	Mayo	2023-11-05T00:00:00	2024-11-08T16:00:00	6	Velocidad del viento	3.2
106362	7	Sololá	701	Sololá	4	Finca Santa Victoria	5	Mayo	2023-11-05T00:00:00	2024-11-08T16:00:00	7	Dirección del viento	3.22
106363	7	Sololá	701	Sololá	4	Finca Santa Victoria	5	Mayo	2023-11-05T00:00:00	2024-11-08T16:00:00	1	Precipitación	0
106364	7	Sololá	701	Sololá	4	Finca Santa Victoria	5	Mayo	2023-11-05T00:00:00	2024-11-08T16:00:00	8	Radiación solar	124
106365	7	Sololá	701	Sololá	4	Finca Santa Victoria	5	Mayo	2023-11-05T00:00:00	2024-11-08T17:00:00	2	Temperatura media	15.9
106366	7	Sololá	701	Sololá	4	Finca Santa Victoria	5	Mayo	2023-11-05T00:00:00	2024-11-08T17:00:00	4	Temperatura máxima	16.6
106367	7	Sololá	701	Sololá	4	Finca Santa Victoria	5	Mayo	2023-11-05T00:00:00	2024-11-08T17:00:00	3	Temperatura mínima	15.9
106368	7	Sololá	701	Sololá	4	Finca Santa Victoria	5	Mayo	2023-11-05T00:00:00	2024-11-08T17:00:00	5	Humedad	92
106369	7	Sololá	701	Sololá	4	Finca Santa Victoria	5	Mayo	2023-11-05T00:00:00	2024-11-08T17:00:00	6	Velocidad del viento	1.6
106370	7	Sololá	701	Sololá	4	Finca Santa Victoria	5	Mayo	2023-11-05T00:00:00	2024-11-08T17:00:00	7	Dirección del viento	1.61
106371	7	Sololá	701	Sololá	4	Finca Santa Victoria	5	Mayo	2023-11-05T00:00:00	2024-11-08T17:00:00	1	Precipitación	0
106372	7	Sololá	701	Sololá	4	Finca Santa Victoria	5	Mayo	2023-11-05T00:00:00	2024-11-08T17:00:00	8	Radiación solar	41
106373	7	Sololá	701	Sololá	4	Finca Santa Victoria	5	Mayo	2023-11-05T00:00:00	2024-11-08T18:00:00	2	Temperatura media	15.7
106374	7	Sololá	701	Sololá	4	Finca Santa Victoria	5	Mayo	2023-11-05T00:00:00	2024-11-08T18:00:00	4	Temperatura máxima	15.9
106375	7	Sololá	701	Sololá	4	Finca Santa Victoria	5	Mayo	2023-11-05T00:00:00	2024-11-08T18:00:00	3	Temperatura mínima	15.6
106376	7	Sololá	701	Sololá	4	Finca Santa Victoria	5	Mayo	2023-11-05T00:00:00	2024-11-08T18:00:00	5	Humedad	94
106377	7	Sololá	701	Sololá	4	Finca Santa Victoria	5	Mayo	2023-11-05T00:00:00	2024-11-08T18:00:00	6	Velocidad del viento	0
106378	7	Sololá	701	Sololá	4	Finca Santa Victoria	5	Mayo	2023-11-05T00:00:00	2024-11-08T18:00:00	7	Dirección del viento	0
106379	7	Sololá	701	Sololá	4	Finca Santa Victoria	5	Mayo	2023-11-05T00:00:00	2024-11-08T18:00:00	1	Precipitación	0
106380	7	Sololá	701	Sololá	4	Finca Santa Victoria	5	Mayo	2023-11-05T00:00:00	2024-11-08T18:00:00	8	Radiación solar	31
106381	7	Sololá	701	Sololá	4	Finca Santa Victoria	5	Mayo	2023-11-05T00:00:00	2024-11-08T19:00:00	2	Temperatura media	15
106382	7	Sololá	701	Sololá	4	Finca Santa Victoria	5	Mayo	2023-11-05T00:00:00	2024-11-08T19:00:00	4	Temperatura máxima	15.7
106383	7	Sololá	701	Sololá	4	Finca Santa Victoria	5	Mayo	2023-11-05T00:00:00	2024-11-08T19:00:00	3	Temperatura mínima	15
106384	7	Sololá	701	Sololá	4	Finca Santa Victoria	5	Mayo	2023-11-05T00:00:00	2024-11-08T19:00:00	5	Humedad	95
106385	7	Sololá	701	Sololá	4	Finca Santa Victoria	5	Mayo	2023-11-05T00:00:00	2024-11-08T19:00:00	6	Velocidad del viento	0
106386	7	Sololá	701	Sololá	4	Finca Santa Victoria	5	Mayo	2023-11-05T00:00:00	2024-11-08T19:00:00	7	Dirección del viento	0
106387	7	Sololá	701	Sololá	4	Finca Santa Victoria	5	Mayo	2023-11-05T00:00:00	2024-11-08T19:00:00	1	Precipitación	0
106388	7	Sololá	701	Sololá	4	Finca Santa Victoria	5	Mayo	2023-11-05T00:00:00	2024-11-08T19:00:00	8	Radiación solar	0
106389	7	Sololá	701	Sololá	4	Finca Santa Victoria	5	Mayo	2023-11-05T00:00:00	2024-11-08T20:00:00	2	Temperatura media	14.7
106390	7	Sololá	701	Sololá	4	Finca Santa Victoria	5	Mayo	2023-11-05T00:00:00	2024-11-08T20:00:00	4	Temperatura máxima	15
106391	7	Sololá	701	Sololá	4	Finca Santa Victoria	5	Mayo	2023-11-05T00:00:00	2024-11-08T20:00:00	3	Temperatura mínima	14.7
106392	7	Sololá	701	Sololá	4	Finca Santa Victoria	5	Mayo	2023-11-05T00:00:00	2024-11-08T20:00:00	5	Humedad	96
106393	7	Sololá	701	Sololá	4	Finca Santa Victoria	5	Mayo	2023-11-05T00:00:00	2024-11-08T20:00:00	6	Velocidad del viento	0
106394	7	Sololá	701	Sololá	4	Finca Santa Victoria	5	Mayo	2023-11-05T00:00:00	2024-11-08T20:00:00	7	Dirección del viento	0
106395	7	Sololá	701	Sololá	4	Finca Santa Victoria	5	Mayo	2023-11-05T00:00:00	2024-11-08T20:00:00	1	Precipitación	0
106396	7	Sololá	701	Sololá	4	Finca Santa Victoria	5	Mayo	2023-11-05T00:00:00	2024-11-08T20:00:00	8	Radiación solar	0
106397	7	Sololá	701	Sololá	4	Finca Santa Victoria	5	Mayo	2023-11-05T00:00:00	2024-11-08T21:00:00	2	Temperatura media	14.8
106398	7	Sololá	701	Sololá	4	Finca Santa Victoria	5	Mayo	2023-11-05T00:00:00	2024-11-08T21:00:00	4	Temperatura máxima	14.9
106399	7	Sololá	701	Sololá	4	Finca Santa Victoria	5	Mayo	2023-11-05T00:00:00	2024-11-08T21:00:00	3	Temperatura mínima	14.7
106400	7	Sololá	701	Sololá	4	Finca Santa Victoria	5	Mayo	2023-11-05T00:00:00	2024-11-08T21:00:00	5	Humedad	97
106401	7	Sololá	701	Sololá	4	Finca Santa Victoria	5	Mayo	2023-11-05T00:00:00	2024-11-08T21:00:00	6	Velocidad del viento	0
106402	7	Sololá	701	Sololá	4	Finca Santa Victoria	5	Mayo	2023-11-05T00:00:00	2024-11-08T21:00:00	7	Dirección del viento	0
106403	7	Sololá	701	Sololá	4	Finca Santa Victoria	5	Mayo	2023-11-05T00:00:00	2024-11-08T21:00:00	1	Precipitación	0
106404	7	Sololá	701	Sololá	4	Finca Santa Victoria	5	Mayo	2023-11-05T00:00:00	2024-11-08T21:00:00	8	Radiación solar	0
106405	7	Sololá	701	Sololá	4	Finca Santa Victoria	5	Mayo	2023-11-05T00:00:00	2024-11-08T22:00:00	2	Temperatura media	14.8
106406	7	Sololá	701	Sololá	4	Finca Santa Victoria	5	Mayo	2023-11-05T00:00:00	2024-11-08T22:00:00	4	Temperatura máxima	14.8
106407	7	Sololá	701	Sololá	4	Finca Santa Victoria	5	Mayo	2023-11-05T00:00:00	2024-11-08T22:00:00	3	Temperatura mínima	14.7
106408	7	Sololá	701	Sololá	4	Finca Santa Victoria	5	Mayo	2023-11-05T00:00:00	2024-11-08T22:00:00	5	Humedad	97
106409	7	Sololá	701	Sololá	4	Finca Santa Victoria	5	Mayo	2023-11-05T00:00:00	2024-11-08T22:00:00	6	Velocidad del viento	0
106410	7	Sololá	701	Sololá	4	Finca Santa Victoria	5	Mayo	2023-11-05T00:00:00	2024-11-08T22:00:00	7	Dirección del viento	0
106411	7	Sololá	701	Sololá	4	Finca Santa Victoria	5	Mayo	2023-11-05T00:00:00	2024-11-08T22:00:00	1	Precipitación	0
106412	7	Sololá	701	Sololá	4	Finca Santa Victoria	5	Mayo	2023-11-05T00:00:00	2024-11-08T22:00:00	8	Radiación solar	0
106413	7	Sololá	701	Sololá	4	Finca Santa Victoria	5	Mayo	2023-11-05T00:00:00	2024-11-08T23:00:00	2	Temperatura media	14.5
106414	7	Sololá	701	Sololá	4	Finca Santa Victoria	5	Mayo	2023-11-05T00:00:00	2024-11-08T23:00:00	4	Temperatura máxima	14.8
106415	7	Sololá	701	Sololá	4	Finca Santa Victoria	5	Mayo	2023-11-05T00:00:00	2024-11-08T23:00:00	3	Temperatura mínima	14.4
106416	7	Sololá	701	Sololá	4	Finca Santa Victoria	5	Mayo	2023-11-05T00:00:00	2024-11-08T23:00:00	5	Humedad	98
106417	7	Sololá	701	Sololá	4	Finca Santa Victoria	5	Mayo	2023-11-05T00:00:00	2024-11-08T23:00:00	6	Velocidad del viento	0
106418	7	Sololá	701	Sololá	4	Finca Santa Victoria	5	Mayo	2023-11-05T00:00:00	2024-11-08T23:00:00	7	Dirección del viento	0
106419	7	Sololá	701	Sololá	4	Finca Santa Victoria	5	Mayo	2023-11-05T00:00:00	2024-11-08T23:00:00	1	Precipitación	0.2
106420	7	Sololá	701	Sololá	4	Finca Santa Victoria	5	Mayo	2023-11-05T00:00:00	2024-11-08T23:00:00	8	Radiación solar	0
106421	7	Sololá	701	Sololá	4	Finca Santa Victoria	5	Mayo	2023-12-05T00:00:00	2024-11-08T00:00:00	2	Temperatura media	14.2
106422	7	Sololá	701	Sololá	4	Finca Santa Victoria	5	Mayo	2023-12-05T00:00:00	2024-11-08T00:00:00	4	Temperatura máxima	14.6
106423	7	Sololá	701	Sololá	4	Finca Santa Victoria	5	Mayo	2023-12-05T00:00:00	2024-11-08T00:00:00	3	Temperatura mínima	14.2
106424	7	Sololá	701	Sololá	4	Finca Santa Victoria	5	Mayo	2023-12-05T00:00:00	2024-11-08T00:00:00	5	Humedad	98
106425	7	Sololá	701	Sololá	4	Finca Santa Victoria	5	Mayo	2023-12-05T00:00:00	2024-11-08T00:00:00	6	Velocidad del viento	0
106426	7	Sololá	701	Sololá	4	Finca Santa Victoria	5	Mayo	2023-12-05T00:00:00	2024-11-08T00:00:00	7	Dirección del viento	0
106427	7	Sololá	701	Sololá	4	Finca Santa Victoria	5	Mayo	2023-12-05T00:00:00	2024-11-08T00:00:00	1	Precipitación	0
106428	7	Sololá	701	Sololá	4	Finca Santa Victoria	5	Mayo	2023-12-05T00:00:00	2024-11-08T00:00:00	8	Radiación solar	0
106429	7	Sololá	701	Sololá	4	Finca Santa Victoria	5	Mayo	2023-12-05T00:00:00	2024-11-08T01:00:00	2	Temperatura media	14.2
106430	7	Sololá	701	Sololá	4	Finca Santa Victoria	5	Mayo	2023-12-05T00:00:00	2024-11-08T01:00:00	4	Temperatura máxima	14.2
106431	7	Sololá	701	Sololá	4	Finca Santa Victoria	5	Mayo	2023-12-05T00:00:00	2024-11-08T01:00:00	3	Temperatura mínima	14
106432	7	Sololá	701	Sololá	4	Finca Santa Victoria	5	Mayo	2023-12-05T00:00:00	2024-11-08T01:00:00	5	Humedad	98
106433	7	Sololá	701	Sololá	4	Finca Santa Victoria	5	Mayo	2023-12-05T00:00:00	2024-11-08T01:00:00	6	Velocidad del viento	0
106434	7	Sololá	701	Sololá	4	Finca Santa Victoria	5	Mayo	2023-12-05T00:00:00	2024-11-08T01:00:00	7	Dirección del viento	0
106435	7	Sololá	701	Sololá	4	Finca Santa Victoria	5	Mayo	2023-12-05T00:00:00	2024-11-08T01:00:00	1	Precipitación	0
106436	7	Sololá	701	Sololá	4	Finca Santa Victoria	5	Mayo	2023-12-05T00:00:00	2024-11-08T01:00:00	8	Radiación solar	0
106437	7	Sololá	701	Sololá	4	Finca Santa Victoria	5	Mayo	2023-12-05T00:00:00	2024-11-08T02:00:00	2	Temperatura media	13.9
106438	7	Sololá	701	Sololá	4	Finca Santa Victoria	5	Mayo	2023-12-05T00:00:00	2024-11-08T02:00:00	4	Temperatura máxima	14.2
106439	7	Sololá	701	Sololá	4	Finca Santa Victoria	5	Mayo	2023-12-05T00:00:00	2024-11-08T02:00:00	3	Temperatura mínima	13.9
106440	7	Sololá	701	Sololá	4	Finca Santa Victoria	5	Mayo	2023-12-05T00:00:00	2024-11-08T02:00:00	5	Humedad	98
106441	7	Sololá	701	Sololá	4	Finca Santa Victoria	5	Mayo	2023-12-05T00:00:00	2024-11-08T02:00:00	6	Velocidad del viento	0
106442	7	Sololá	701	Sololá	4	Finca Santa Victoria	5	Mayo	2023-12-05T00:00:00	2024-11-08T02:00:00	7	Dirección del viento	0
106443	7	Sololá	701	Sololá	4	Finca Santa Victoria	5	Mayo	2023-12-05T00:00:00	2024-11-08T02:00:00	1	Precipitación	0
106444	7	Sololá	701	Sololá	4	Finca Santa Victoria	5	Mayo	2023-12-05T00:00:00	2024-11-08T02:00:00	8	Radiación solar	0
106445	7	Sololá	701	Sololá	4	Finca Santa Victoria	5	Mayo	2023-12-05T00:00:00	2024-11-08T03:00:00	2	Temperatura media	13.4
106446	7	Sololá	701	Sololá	4	Finca Santa Victoria	5	Mayo	2023-12-05T00:00:00	2024-11-08T03:00:00	4	Temperatura máxima	14
106447	7	Sololá	701	Sololá	4	Finca Santa Victoria	5	Mayo	2023-12-05T00:00:00	2024-11-08T03:00:00	3	Temperatura mínima	13.4
106448	7	Sololá	701	Sololá	4	Finca Santa Victoria	5	Mayo	2023-12-05T00:00:00	2024-11-08T03:00:00	5	Humedad	98
106449	7	Sololá	701	Sololá	4	Finca Santa Victoria	5	Mayo	2023-12-05T00:00:00	2024-11-08T03:00:00	6	Velocidad del viento	0
106450	7	Sololá	701	Sololá	4	Finca Santa Victoria	5	Mayo	2023-12-05T00:00:00	2024-11-08T03:00:00	7	Dirección del viento	0
106451	7	Sololá	701	Sololá	4	Finca Santa Victoria	5	Mayo	2023-12-05T00:00:00	2024-11-08T03:00:00	1	Precipitación	0
106452	7	Sololá	701	Sololá	4	Finca Santa Victoria	5	Mayo	2023-12-05T00:00:00	2024-11-08T03:00:00	8	Radiación solar	0
106453	7	Sololá	701	Sololá	4	Finca Santa Victoria	5	Mayo	2023-12-05T00:00:00	2024-11-08T04:00:00	2	Temperatura media	12.8
106454	7	Sololá	701	Sololá	4	Finca Santa Victoria	5	Mayo	2023-12-05T00:00:00	2024-11-08T04:00:00	4	Temperatura máxima	13.4
106455	7	Sololá	701	Sololá	4	Finca Santa Victoria	5	Mayo	2023-12-05T00:00:00	2024-11-08T04:00:00	3	Temperatura mínima	12.8
106456	7	Sololá	701	Sololá	4	Finca Santa Victoria	5	Mayo	2023-12-05T00:00:00	2024-11-08T04:00:00	5	Humedad	98
106457	7	Sololá	701	Sololá	4	Finca Santa Victoria	5	Mayo	2023-12-05T00:00:00	2024-11-08T04:00:00	6	Velocidad del viento	0
106458	7	Sololá	701	Sololá	4	Finca Santa Victoria	5	Mayo	2023-12-05T00:00:00	2024-11-08T04:00:00	7	Dirección del viento	0
106459	7	Sololá	701	Sololá	4	Finca Santa Victoria	5	Mayo	2023-12-05T00:00:00	2024-11-08T04:00:00	1	Precipitación	0
106460	7	Sololá	701	Sololá	4	Finca Santa Victoria	5	Mayo	2023-12-05T00:00:00	2024-11-08T04:00:00	8	Radiación solar	0
106461	7	Sololá	701	Sololá	4	Finca Santa Victoria	5	Mayo	2023-12-05T00:00:00	2024-11-08T05:00:00	2	Temperatura media	12.2
106462	7	Sololá	701	Sololá	4	Finca Santa Victoria	5	Mayo	2023-12-05T00:00:00	2024-11-08T05:00:00	4	Temperatura máxima	12.8
106463	7	Sololá	701	Sololá	4	Finca Santa Victoria	5	Mayo	2023-12-05T00:00:00	2024-11-08T05:00:00	3	Temperatura mínima	12.2
106464	7	Sololá	701	Sololá	4	Finca Santa Victoria	5	Mayo	2023-12-05T00:00:00	2024-11-08T05:00:00	5	Humedad	98
106465	7	Sololá	701	Sololá	4	Finca Santa Victoria	5	Mayo	2023-12-05T00:00:00	2024-11-08T05:00:00	6	Velocidad del viento	1.6
106466	7	Sololá	701	Sololá	4	Finca Santa Victoria	5	Mayo	2023-12-05T00:00:00	2024-11-08T05:00:00	7	Dirección del viento	1.61
106467	7	Sololá	701	Sololá	4	Finca Santa Victoria	5	Mayo	2023-12-05T00:00:00	2024-11-08T05:00:00	1	Precipitación	0
106468	7	Sololá	701	Sololá	4	Finca Santa Victoria	5	Mayo	2023-12-05T00:00:00	2024-11-08T05:00:00	8	Radiación solar	0
106469	7	Sololá	701	Sololá	4	Finca Santa Victoria	5	Mayo	2023-12-05T00:00:00	2024-11-08T06:00:00	2	Temperatura media	12.5
106470	7	Sololá	701	Sololá	4	Finca Santa Victoria	5	Mayo	2023-12-05T00:00:00	2024-11-08T06:00:00	4	Temperatura máxima	12.6
106471	7	Sololá	701	Sololá	4	Finca Santa Victoria	5	Mayo	2023-12-05T00:00:00	2024-11-08T06:00:00	3	Temperatura mínima	12
106472	7	Sololá	701	Sololá	4	Finca Santa Victoria	5	Mayo	2023-12-05T00:00:00	2024-11-08T06:00:00	5	Humedad	98
106473	7	Sololá	701	Sololá	4	Finca Santa Victoria	5	Mayo	2023-12-05T00:00:00	2024-11-08T06:00:00	6	Velocidad del viento	1.6
106474	7	Sololá	701	Sololá	4	Finca Santa Victoria	5	Mayo	2023-12-05T00:00:00	2024-11-08T06:00:00	7	Dirección del viento	1.61
106475	7	Sololá	701	Sololá	4	Finca Santa Victoria	5	Mayo	2023-12-05T00:00:00	2024-11-08T06:00:00	1	Precipitación	0
106476	7	Sololá	701	Sololá	4	Finca Santa Victoria	5	Mayo	2023-12-05T00:00:00	2024-11-08T06:00:00	8	Radiación solar	4
106477	7	Sololá	701	Sololá	4	Finca Santa Victoria	5	Mayo	2023-12-05T00:00:00	2024-11-08T07:00:00	2	Temperatura media	13.1
106478	7	Sololá	701	Sololá	4	Finca Santa Victoria	5	Mayo	2023-12-05T00:00:00	2024-11-08T07:00:00	4	Temperatura máxima	13.1
106479	7	Sololá	701	Sololá	4	Finca Santa Victoria	5	Mayo	2023-12-05T00:00:00	2024-11-08T07:00:00	3	Temperatura mínima	12.5
106480	7	Sololá	701	Sololá	4	Finca Santa Victoria	5	Mayo	2023-12-05T00:00:00	2024-11-08T07:00:00	5	Humedad	98
106481	7	Sololá	701	Sololá	4	Finca Santa Victoria	5	Mayo	2023-12-05T00:00:00	2024-11-08T07:00:00	6	Velocidad del viento	0
106482	7	Sololá	701	Sololá	4	Finca Santa Victoria	5	Mayo	2023-12-05T00:00:00	2024-11-08T07:00:00	7	Dirección del viento	0
106483	7	Sololá	701	Sololá	4	Finca Santa Victoria	5	Mayo	2023-12-05T00:00:00	2024-11-08T07:00:00	1	Precipitación	0
106484	7	Sololá	701	Sololá	4	Finca Santa Victoria	5	Mayo	2023-12-05T00:00:00	2024-11-08T07:00:00	8	Radiación solar	55
106485	7	Sololá	701	Sololá	4	Finca Santa Victoria	5	Mayo	2023-12-05T00:00:00	2024-11-08T08:00:00	2	Temperatura media	15.6
106486	7	Sololá	701	Sololá	4	Finca Santa Victoria	5	Mayo	2023-12-05T00:00:00	2024-11-08T08:00:00	4	Temperatura máxima	15.6
106487	7	Sololá	701	Sololá	4	Finca Santa Victoria	5	Mayo	2023-12-05T00:00:00	2024-11-08T08:00:00	3	Temperatura mínima	13.1
106488	7	Sololá	701	Sololá	4	Finca Santa Victoria	5	Mayo	2023-12-05T00:00:00	2024-11-08T08:00:00	5	Humedad	90
106489	7	Sololá	701	Sololá	4	Finca Santa Victoria	5	Mayo	2023-12-05T00:00:00	2024-11-08T08:00:00	6	Velocidad del viento	1.6
106490	7	Sololá	701	Sololá	4	Finca Santa Victoria	5	Mayo	2023-12-05T00:00:00	2024-11-08T08:00:00	7	Dirección del viento	1.61
106491	7	Sololá	701	Sololá	4	Finca Santa Victoria	5	Mayo	2023-12-05T00:00:00	2024-11-08T08:00:00	1	Precipitación	0
106492	7	Sololá	701	Sololá	4	Finca Santa Victoria	5	Mayo	2023-12-05T00:00:00	2024-11-08T08:00:00	8	Radiación solar	215
106493	7	Sololá	701	Sololá	4	Finca Santa Victoria	5	Mayo	2023-12-05T00:00:00	2024-11-08T09:00:00	2	Temperatura media	16.9
106494	7	Sololá	701	Sololá	4	Finca Santa Victoria	5	Mayo	2023-12-05T00:00:00	2024-11-08T09:00:00	4	Temperatura máxima	16.9
106495	7	Sololá	701	Sololá	4	Finca Santa Victoria	5	Mayo	2023-12-05T00:00:00	2024-11-08T09:00:00	3	Temperatura mínima	15.6
106496	7	Sololá	701	Sololá	4	Finca Santa Victoria	5	Mayo	2023-12-05T00:00:00	2024-11-08T09:00:00	5	Humedad	82
106497	7	Sololá	701	Sololá	4	Finca Santa Victoria	5	Mayo	2023-12-05T00:00:00	2024-11-08T09:00:00	6	Velocidad del viento	1.6
106498	7	Sololá	701	Sololá	4	Finca Santa Victoria	5	Mayo	2023-12-05T00:00:00	2024-11-08T09:00:00	7	Dirección del viento	1.61
106499	7	Sololá	701	Sololá	4	Finca Santa Victoria	5	Mayo	2023-12-05T00:00:00	2024-11-08T09:00:00	1	Precipitación	0
106500	7	Sololá	701	Sololá	4	Finca Santa Victoria	5	Mayo	2023-12-05T00:00:00	2024-11-08T09:00:00	8	Radiación solar	287
106501	7	Sololá	701	Sololá	4	Finca Santa Victoria	5	Mayo	2023-12-05T00:00:00	2024-11-08T10:00:00	2	Temperatura media	18.3
106502	7	Sololá	701	Sololá	4	Finca Santa Victoria	5	Mayo	2023-12-05T00:00:00	2024-11-08T10:00:00	4	Temperatura máxima	18.4
106503	7	Sololá	701	Sololá	4	Finca Santa Victoria	5	Mayo	2023-12-05T00:00:00	2024-11-08T10:00:00	3	Temperatura mínima	16.8
106504	7	Sololá	701	Sololá	4	Finca Santa Victoria	5	Mayo	2023-12-05T00:00:00	2024-11-08T10:00:00	5	Humedad	80
106505	7	Sololá	701	Sololá	4	Finca Santa Victoria	5	Mayo	2023-12-05T00:00:00	2024-11-08T10:00:00	6	Velocidad del viento	3.2
106506	7	Sololá	701	Sololá	4	Finca Santa Victoria	5	Mayo	2023-12-05T00:00:00	2024-11-08T10:00:00	7	Dirección del viento	3.22
106507	7	Sololá	701	Sololá	4	Finca Santa Victoria	5	Mayo	2023-12-05T00:00:00	2024-11-08T10:00:00	1	Precipitación	0
106508	7	Sololá	701	Sololá	4	Finca Santa Victoria	5	Mayo	2023-12-05T00:00:00	2024-11-08T10:00:00	8	Radiación solar	318
106509	7	Sololá	701	Sololá	4	Finca Santa Victoria	5	Mayo	2023-12-05T00:00:00	2024-11-08T11:00:00	2	Temperatura media	19.5
106510	7	Sololá	701	Sololá	4	Finca Santa Victoria	5	Mayo	2023-12-05T00:00:00	2024-11-08T11:00:00	4	Temperatura máxima	19.5
106511	7	Sololá	701	Sololá	4	Finca Santa Victoria	5	Mayo	2023-12-05T00:00:00	2024-11-08T11:00:00	3	Temperatura mínima	18.3
106512	7	Sololá	701	Sololá	4	Finca Santa Victoria	5	Mayo	2023-12-05T00:00:00	2024-11-08T11:00:00	5	Humedad	72
106513	7	Sololá	701	Sololá	4	Finca Santa Victoria	5	Mayo	2023-12-05T00:00:00	2024-11-08T11:00:00	6	Velocidad del viento	4.8
106514	7	Sololá	701	Sololá	4	Finca Santa Victoria	5	Mayo	2023-12-05T00:00:00	2024-11-08T11:00:00	7	Dirección del viento	4.83
106515	7	Sololá	701	Sololá	4	Finca Santa Victoria	5	Mayo	2023-12-05T00:00:00	2024-11-08T11:00:00	1	Precipitación	0
106516	7	Sololá	701	Sololá	4	Finca Santa Victoria	5	Mayo	2023-12-05T00:00:00	2024-11-08T11:00:00	8	Radiación solar	531
106517	7	Sololá	701	Sololá	4	Finca Santa Victoria	5	Mayo	2023-12-05T00:00:00	2024-11-08T12:00:00	2	Temperatura media	19.2
106518	7	Sololá	701	Sololá	4	Finca Santa Victoria	5	Mayo	2023-12-05T00:00:00	2024-11-08T12:00:00	4	Temperatura máxima	20
106519	7	Sololá	701	Sololá	4	Finca Santa Victoria	5	Mayo	2023-12-05T00:00:00	2024-11-08T12:00:00	3	Temperatura mínima	19.2
106520	7	Sololá	701	Sololá	4	Finca Santa Victoria	5	Mayo	2023-12-05T00:00:00	2024-11-08T12:00:00	5	Humedad	77
106521	7	Sololá	701	Sololá	4	Finca Santa Victoria	5	Mayo	2023-12-05T00:00:00	2024-11-08T12:00:00	6	Velocidad del viento	4.8
106522	7	Sololá	701	Sololá	4	Finca Santa Victoria	5	Mayo	2023-12-05T00:00:00	2024-11-08T12:00:00	7	Dirección del viento	4.83
106523	7	Sololá	701	Sololá	4	Finca Santa Victoria	5	Mayo	2023-12-05T00:00:00	2024-11-08T12:00:00	1	Precipitación	0
106524	7	Sololá	701	Sololá	4	Finca Santa Victoria	5	Mayo	2023-12-05T00:00:00	2024-11-08T12:00:00	8	Radiación solar	838
106525	7	Sololá	701	Sololá	4	Finca Santa Victoria	5	Mayo	2023-12-05T00:00:00	2024-11-08T13:00:00	2	Temperatura media	19.7
106526	7	Sololá	701	Sololá	4	Finca Santa Victoria	5	Mayo	2023-12-05T00:00:00	2024-11-08T13:00:00	4	Temperatura máxima	19.7
106527	7	Sololá	701	Sololá	4	Finca Santa Victoria	5	Mayo	2023-12-05T00:00:00	2024-11-08T13:00:00	3	Temperatura mínima	18.9
106528	7	Sololá	701	Sololá	4	Finca Santa Victoria	5	Mayo	2023-12-05T00:00:00	2024-11-08T13:00:00	5	Humedad	79
106529	7	Sololá	701	Sololá	4	Finca Santa Victoria	5	Mayo	2023-12-05T00:00:00	2024-11-08T13:00:00	6	Velocidad del viento	4.8
106530	7	Sololá	701	Sololá	4	Finca Santa Victoria	5	Mayo	2023-12-05T00:00:00	2024-11-08T13:00:00	7	Dirección del viento	4.83
106531	7	Sololá	701	Sololá	4	Finca Santa Victoria	5	Mayo	2023-12-05T00:00:00	2024-11-08T13:00:00	1	Precipitación	0
106532	7	Sololá	701	Sololá	4	Finca Santa Victoria	5	Mayo	2023-12-05T00:00:00	2024-11-08T13:00:00	8	Radiación solar	459
106533	7	Sololá	701	Sololá	4	Finca Santa Victoria	5	Mayo	2023-12-05T00:00:00	2024-11-08T14:00:00	2	Temperatura media	17.9
106534	7	Sololá	701	Sololá	4	Finca Santa Victoria	5	Mayo	2023-12-05T00:00:00	2024-11-08T14:00:00	4	Temperatura máxima	19.7
106535	7	Sololá	701	Sololá	4	Finca Santa Victoria	5	Mayo	2023-12-05T00:00:00	2024-11-08T14:00:00	3	Temperatura mínima	17.7
106536	7	Sololá	701	Sololá	4	Finca Santa Victoria	5	Mayo	2023-12-05T00:00:00	2024-11-08T14:00:00	5	Humedad	87
106537	7	Sololá	701	Sololá	4	Finca Santa Victoria	5	Mayo	2023-12-05T00:00:00	2024-11-08T14:00:00	6	Velocidad del viento	3.2
106538	7	Sololá	701	Sololá	4	Finca Santa Victoria	5	Mayo	2023-12-05T00:00:00	2024-11-08T14:00:00	7	Dirección del viento	3.22
106539	7	Sololá	701	Sololá	4	Finca Santa Victoria	5	Mayo	2023-12-05T00:00:00	2024-11-08T14:00:00	1	Precipitación	0
106540	7	Sololá	701	Sololá	4	Finca Santa Victoria	5	Mayo	2023-12-05T00:00:00	2024-11-08T14:00:00	8	Radiación solar	95
106541	7	Sololá	701	Sololá	4	Finca Santa Victoria	5	Mayo	2023-12-05T00:00:00	2024-11-08T15:00:00	2	Temperatura media	17.1
106542	7	Sololá	701	Sololá	4	Finca Santa Victoria	5	Mayo	2023-12-05T00:00:00	2024-11-08T15:00:00	4	Temperatura máxima	18.6
106543	7	Sololá	701	Sololá	4	Finca Santa Victoria	5	Mayo	2023-12-05T00:00:00	2024-11-08T15:00:00	3	Temperatura mínima	17.1
106544	7	Sololá	701	Sololá	4	Finca Santa Victoria	5	Mayo	2023-12-05T00:00:00	2024-11-08T15:00:00	5	Humedad	92
106545	7	Sololá	701	Sololá	4	Finca Santa Victoria	5	Mayo	2023-12-05T00:00:00	2024-11-08T15:00:00	6	Velocidad del viento	3.2
106546	7	Sololá	701	Sololá	4	Finca Santa Victoria	5	Mayo	2023-12-05T00:00:00	2024-11-08T15:00:00	7	Dirección del viento	3.22
106547	7	Sololá	701	Sololá	4	Finca Santa Victoria	5	Mayo	2023-12-05T00:00:00	2024-11-08T15:00:00	1	Precipitación	0
106548	7	Sololá	701	Sololá	4	Finca Santa Victoria	5	Mayo	2023-12-05T00:00:00	2024-11-08T15:00:00	8	Radiación solar	190
106549	7	Sololá	701	Sololá	4	Finca Santa Victoria	5	Mayo	2023-12-05T00:00:00	2024-11-08T16:00:00	2	Temperatura media	16.2
106550	7	Sololá	701	Sololá	4	Finca Santa Victoria	5	Mayo	2023-12-05T00:00:00	2024-11-08T16:00:00	4	Temperatura máxima	17.1
106551	7	Sololá	701	Sololá	4	Finca Santa Victoria	5	Mayo	2023-12-05T00:00:00	2024-11-08T16:00:00	3	Temperatura mínima	16.2
106552	7	Sololá	701	Sololá	4	Finca Santa Victoria	5	Mayo	2023-12-05T00:00:00	2024-11-08T16:00:00	5	Humedad	96
106553	7	Sololá	701	Sololá	4	Finca Santa Victoria	5	Mayo	2023-12-05T00:00:00	2024-11-08T16:00:00	6	Velocidad del viento	3.2
106554	7	Sololá	701	Sololá	4	Finca Santa Victoria	5	Mayo	2023-12-05T00:00:00	2024-11-08T16:00:00	7	Dirección del viento	3.22
106555	7	Sololá	701	Sololá	4	Finca Santa Victoria	5	Mayo	2023-12-05T00:00:00	2024-11-08T16:00:00	1	Precipitación	0
106556	7	Sololá	701	Sololá	4	Finca Santa Victoria	5	Mayo	2023-12-05T00:00:00	2024-11-08T16:00:00	8	Radiación solar	34
106557	7	Sololá	701	Sololá	4	Finca Santa Victoria	5	Mayo	2023-12-05T00:00:00	2024-11-08T17:00:00	2	Temperatura media	16.1
106558	7	Sololá	701	Sololá	4	Finca Santa Victoria	5	Mayo	2023-12-05T00:00:00	2024-11-08T17:00:00	4	Temperatura máxima	16.2
106559	7	Sololá	701	Sololá	4	Finca Santa Victoria	5	Mayo	2023-12-05T00:00:00	2024-11-08T17:00:00	3	Temperatura mínima	15.9
106560	7	Sololá	701	Sololá	4	Finca Santa Victoria	5	Mayo	2023-12-05T00:00:00	2024-11-08T17:00:00	5	Humedad	95
106561	7	Sololá	701	Sololá	4	Finca Santa Victoria	5	Mayo	2023-12-05T00:00:00	2024-11-08T17:00:00	6	Velocidad del viento	1.6
106562	7	Sololá	701	Sololá	4	Finca Santa Victoria	5	Mayo	2023-12-05T00:00:00	2024-11-08T17:00:00	7	Dirección del viento	1.61
106563	7	Sololá	701	Sololá	4	Finca Santa Victoria	5	Mayo	2023-12-05T00:00:00	2024-11-08T17:00:00	1	Precipitación	0
106564	7	Sololá	701	Sololá	4	Finca Santa Victoria	5	Mayo	2023-12-05T00:00:00	2024-11-08T17:00:00	8	Radiación solar	31
106565	7	Sololá	701	Sololá	4	Finca Santa Victoria	5	Mayo	2023-12-05T00:00:00	2024-11-08T18:00:00	2	Temperatura media	15.6
106566	7	Sololá	701	Sololá	4	Finca Santa Victoria	5	Mayo	2023-12-05T00:00:00	2024-11-08T18:00:00	4	Temperatura máxima	16.2
106567	7	Sololá	701	Sololá	4	Finca Santa Victoria	5	Mayo	2023-12-05T00:00:00	2024-11-08T18:00:00	3	Temperatura mínima	15.6
106568	7	Sololá	701	Sololá	4	Finca Santa Victoria	5	Mayo	2023-12-05T00:00:00	2024-11-08T18:00:00	5	Humedad	96
106569	7	Sololá	701	Sololá	4	Finca Santa Victoria	5	Mayo	2023-12-05T00:00:00	2024-11-08T18:00:00	6	Velocidad del viento	1.6
106570	7	Sololá	701	Sololá	4	Finca Santa Victoria	5	Mayo	2023-12-05T00:00:00	2024-11-08T18:00:00	7	Dirección del viento	1.61
106571	7	Sololá	701	Sololá	4	Finca Santa Victoria	5	Mayo	2023-12-05T00:00:00	2024-11-08T18:00:00	1	Precipitación	0
106572	7	Sololá	701	Sololá	4	Finca Santa Victoria	5	Mayo	2023-12-05T00:00:00	2024-11-08T18:00:00	8	Radiación solar	3
106573	7	Sololá	701	Sololá	4	Finca Santa Victoria	5	Mayo	2023-12-05T00:00:00	2024-11-08T19:00:00	2	Temperatura media	15.3
106574	7	Sololá	701	Sololá	4	Finca Santa Victoria	5	Mayo	2023-12-05T00:00:00	2024-11-08T19:00:00	4	Temperatura máxima	15.6
106575	7	Sololá	701	Sololá	4	Finca Santa Victoria	5	Mayo	2023-12-05T00:00:00	2024-11-08T19:00:00	3	Temperatura mínima	15.3
106576	7	Sololá	701	Sololá	4	Finca Santa Victoria	5	Mayo	2023-12-05T00:00:00	2024-11-08T19:00:00	5	Humedad	97
106577	7	Sololá	701	Sololá	4	Finca Santa Victoria	5	Mayo	2023-12-05T00:00:00	2024-11-08T19:00:00	6	Velocidad del viento	0
106578	7	Sololá	701	Sololá	4	Finca Santa Victoria	5	Mayo	2023-12-05T00:00:00	2024-11-08T19:00:00	7	Dirección del viento	0
106579	7	Sololá	701	Sololá	4	Finca Santa Victoria	5	Mayo	2023-12-05T00:00:00	2024-11-08T19:00:00	1	Precipitación	0
106580	7	Sololá	701	Sololá	4	Finca Santa Victoria	5	Mayo	2023-12-05T00:00:00	2024-11-08T19:00:00	8	Radiación solar	0
106581	7	Sololá	701	Sololá	4	Finca Santa Victoria	5	Mayo	2023-12-05T00:00:00	2024-11-08T20:00:00	2	Temperatura media	15.1
106582	7	Sololá	701	Sololá	4	Finca Santa Victoria	5	Mayo	2023-12-05T00:00:00	2024-11-08T20:00:00	4	Temperatura máxima	15.3
106583	7	Sololá	701	Sololá	4	Finca Santa Victoria	5	Mayo	2023-12-05T00:00:00	2024-11-08T20:00:00	3	Temperatura mínima	15.1
106584	7	Sololá	701	Sololá	4	Finca Santa Victoria	5	Mayo	2023-12-05T00:00:00	2024-11-08T20:00:00	5	Humedad	98
106585	7	Sololá	701	Sololá	4	Finca Santa Victoria	5	Mayo	2023-12-05T00:00:00	2024-11-08T20:00:00	6	Velocidad del viento	1.6
106586	7	Sololá	701	Sololá	4	Finca Santa Victoria	5	Mayo	2023-12-05T00:00:00	2024-11-08T20:00:00	7	Dirección del viento	1.61
106587	7	Sololá	701	Sololá	4	Finca Santa Victoria	5	Mayo	2023-12-05T00:00:00	2024-11-08T20:00:00	1	Precipitación	0
106588	7	Sololá	701	Sololá	4	Finca Santa Victoria	5	Mayo	2023-12-05T00:00:00	2024-11-08T20:00:00	8	Radiación solar	0
106589	7	Sololá	701	Sololá	4	Finca Santa Victoria	5	Mayo	2023-12-05T00:00:00	2024-11-08T21:00:00	2	Temperatura media	14.7
106590	7	Sololá	701	Sololá	4	Finca Santa Victoria	5	Mayo	2023-12-05T00:00:00	2024-11-08T21:00:00	4	Temperatura máxima	15.1
106591	7	Sololá	701	Sololá	4	Finca Santa Victoria	5	Mayo	2023-12-05T00:00:00	2024-11-08T21:00:00	3	Temperatura mínima	14.7
106592	7	Sololá	701	Sololá	4	Finca Santa Victoria	5	Mayo	2023-12-05T00:00:00	2024-11-08T21:00:00	5	Humedad	98
106593	7	Sololá	701	Sololá	4	Finca Santa Victoria	5	Mayo	2023-12-05T00:00:00	2024-11-08T21:00:00	6	Velocidad del viento	0
106594	7	Sololá	701	Sololá	4	Finca Santa Victoria	5	Mayo	2023-12-05T00:00:00	2024-11-08T21:00:00	7	Dirección del viento	0
106595	7	Sololá	701	Sololá	4	Finca Santa Victoria	5	Mayo	2023-12-05T00:00:00	2024-11-08T21:00:00	1	Precipitación	0
106596	7	Sololá	701	Sololá	4	Finca Santa Victoria	5	Mayo	2023-12-05T00:00:00	2024-11-08T21:00:00	8	Radiación solar	0
106597	7	Sololá	701	Sololá	4	Finca Santa Victoria	5	Mayo	2023-12-05T00:00:00	2024-11-08T22:00:00	2	Temperatura media	14
106598	7	Sololá	701	Sololá	4	Finca Santa Victoria	5	Mayo	2023-12-05T00:00:00	2024-11-08T22:00:00	4	Temperatura máxima	14.7
106599	7	Sololá	701	Sololá	4	Finca Santa Victoria	5	Mayo	2023-12-05T00:00:00	2024-11-08T22:00:00	3	Temperatura mínima	13.9
106600	7	Sololá	701	Sololá	4	Finca Santa Victoria	5	Mayo	2023-12-05T00:00:00	2024-11-08T22:00:00	5	Humedad	96
106601	7	Sololá	701	Sololá	4	Finca Santa Victoria	5	Mayo	2023-12-05T00:00:00	2024-11-08T22:00:00	6	Velocidad del viento	1.6
106602	7	Sololá	701	Sololá	4	Finca Santa Victoria	5	Mayo	2023-12-05T00:00:00	2024-11-08T22:00:00	7	Dirección del viento	1.61
106603	7	Sololá	701	Sololá	4	Finca Santa Victoria	5	Mayo	2023-12-05T00:00:00	2024-11-08T22:00:00	1	Precipitación	0
106604	7	Sololá	701	Sololá	4	Finca Santa Victoria	5	Mayo	2023-12-05T00:00:00	2024-11-08T22:00:00	8	Radiación solar	0
106605	7	Sololá	701	Sololá	4	Finca Santa Victoria	5	Mayo	2023-12-05T00:00:00	2024-11-08T23:00:00	2	Temperatura media	14
106606	7	Sololá	701	Sololá	4	Finca Santa Victoria	5	Mayo	2023-12-05T00:00:00	2024-11-08T23:00:00	4	Temperatura máxima	14.1
106607	7	Sololá	701	Sololá	4	Finca Santa Victoria	5	Mayo	2023-12-05T00:00:00	2024-11-08T23:00:00	3	Temperatura mínima	13.9
106608	7	Sololá	701	Sololá	4	Finca Santa Victoria	5	Mayo	2023-12-05T00:00:00	2024-11-08T23:00:00	5	Humedad	98
106609	7	Sololá	701	Sololá	4	Finca Santa Victoria	5	Mayo	2023-12-05T00:00:00	2024-11-08T23:00:00	6	Velocidad del viento	0
106610	7	Sololá	701	Sololá	4	Finca Santa Victoria	5	Mayo	2023-12-05T00:00:00	2024-11-08T23:00:00	7	Dirección del viento	0
106611	7	Sololá	701	Sololá	4	Finca Santa Victoria	5	Mayo	2023-12-05T00:00:00	2024-11-08T23:00:00	1	Precipitación	0
106612	7	Sololá	701	Sololá	4	Finca Santa Victoria	5	Mayo	2023-12-05T00:00:00	2024-11-08T23:00:00	8	Radiación solar	0
106613	7	Sololá	701	Sololá	4	Finca Santa Victoria	5	Mayo	2023-05-13T00:00:00	2024-11-08T00:00:00	2	Temperatura media	13.9
106614	7	Sololá	701	Sololá	4	Finca Santa Victoria	5	Mayo	2023-05-13T00:00:00	2024-11-08T00:00:00	4	Temperatura máxima	14.1
106615	7	Sololá	701	Sololá	4	Finca Santa Victoria	5	Mayo	2023-05-13T00:00:00	2024-11-08T00:00:00	3	Temperatura mínima	13.8
106616	7	Sololá	701	Sololá	4	Finca Santa Victoria	5	Mayo	2023-05-13T00:00:00	2024-11-08T00:00:00	5	Humedad	97
106617	7	Sololá	701	Sololá	4	Finca Santa Victoria	5	Mayo	2023-05-13T00:00:00	2024-11-08T00:00:00	6	Velocidad del viento	0
106618	7	Sololá	701	Sololá	4	Finca Santa Victoria	5	Mayo	2023-05-13T00:00:00	2024-11-08T00:00:00	7	Dirección del viento	0
106619	7	Sololá	701	Sololá	4	Finca Santa Victoria	5	Mayo	2023-05-13T00:00:00	2024-11-08T00:00:00	1	Precipitación	0
106620	7	Sololá	701	Sololá	4	Finca Santa Victoria	5	Mayo	2023-05-13T00:00:00	2024-11-08T00:00:00	8	Radiación solar	0
106621	7	Sololá	701	Sololá	4	Finca Santa Victoria	5	Mayo	2023-05-13T00:00:00	2024-11-08T01:00:00	2	Temperatura media	13.9
106622	7	Sololá	701	Sololá	4	Finca Santa Victoria	5	Mayo	2023-05-13T00:00:00	2024-11-08T01:00:00	4	Temperatura máxima	14.1
106623	7	Sololá	701	Sololá	4	Finca Santa Victoria	5	Mayo	2023-05-13T00:00:00	2024-11-08T01:00:00	3	Temperatura mínima	13.9
106624	7	Sololá	701	Sololá	4	Finca Santa Victoria	5	Mayo	2023-05-13T00:00:00	2024-11-08T01:00:00	5	Humedad	98
106625	7	Sololá	701	Sololá	4	Finca Santa Victoria	5	Mayo	2023-05-13T00:00:00	2024-11-08T01:00:00	6	Velocidad del viento	0
106626	7	Sololá	701	Sololá	4	Finca Santa Victoria	5	Mayo	2023-05-13T00:00:00	2024-11-08T01:00:00	7	Dirección del viento	0
106627	7	Sololá	701	Sololá	4	Finca Santa Victoria	5	Mayo	2023-05-13T00:00:00	2024-11-08T01:00:00	1	Precipitación	0
106628	7	Sololá	701	Sololá	4	Finca Santa Victoria	5	Mayo	2023-05-13T00:00:00	2024-11-08T01:00:00	8	Radiación solar	0
106629	7	Sololá	701	Sololá	4	Finca Santa Victoria	5	Mayo	2023-05-13T00:00:00	2024-11-08T02:00:00	2	Temperatura media	13.8
106630	7	Sololá	701	Sololá	4	Finca Santa Victoria	5	Mayo	2023-05-13T00:00:00	2024-11-08T02:00:00	4	Temperatura máxima	14
106631	7	Sololá	701	Sololá	4	Finca Santa Victoria	5	Mayo	2023-05-13T00:00:00	2024-11-08T02:00:00	3	Temperatura mínima	13.8
106632	7	Sololá	701	Sololá	4	Finca Santa Victoria	5	Mayo	2023-05-13T00:00:00	2024-11-08T02:00:00	5	Humedad	98
106633	7	Sololá	701	Sololá	4	Finca Santa Victoria	5	Mayo	2023-05-13T00:00:00	2024-11-08T02:00:00	6	Velocidad del viento	0
106634	7	Sololá	701	Sololá	4	Finca Santa Victoria	5	Mayo	2023-05-13T00:00:00	2024-11-08T02:00:00	7	Dirección del viento	0
106635	7	Sololá	701	Sololá	4	Finca Santa Victoria	5	Mayo	2023-05-13T00:00:00	2024-11-08T02:00:00	1	Precipitación	0
106636	7	Sololá	701	Sololá	4	Finca Santa Victoria	5	Mayo	2023-05-13T00:00:00	2024-11-08T02:00:00	8	Radiación solar	0
106637	7	Sololá	701	Sololá	4	Finca Santa Victoria	5	Mayo	2023-05-13T00:00:00	2024-11-08T03:00:00	2	Temperatura media	13.2
106638	7	Sololá	701	Sololá	4	Finca Santa Victoria	5	Mayo	2023-05-13T00:00:00	2024-11-08T03:00:00	4	Temperatura máxima	13.8
106639	7	Sololá	701	Sololá	4	Finca Santa Victoria	5	Mayo	2023-05-13T00:00:00	2024-11-08T03:00:00	3	Temperatura mínima	13.2
106640	7	Sololá	701	Sololá	4	Finca Santa Victoria	5	Mayo	2023-05-13T00:00:00	2024-11-08T03:00:00	5	Humedad	97
106641	7	Sololá	701	Sololá	4	Finca Santa Victoria	5	Mayo	2023-05-13T00:00:00	2024-11-08T03:00:00	6	Velocidad del viento	0
106642	7	Sololá	701	Sololá	4	Finca Santa Victoria	5	Mayo	2023-05-13T00:00:00	2024-11-08T03:00:00	7	Dirección del viento	0
106643	7	Sololá	701	Sololá	4	Finca Santa Victoria	5	Mayo	2023-05-13T00:00:00	2024-11-08T03:00:00	1	Precipitación	0
106644	7	Sololá	701	Sololá	4	Finca Santa Victoria	5	Mayo	2023-05-13T00:00:00	2024-11-08T03:00:00	8	Radiación solar	0
106645	7	Sololá	701	Sololá	4	Finca Santa Victoria	5	Mayo	2023-05-13T00:00:00	2024-11-08T04:00:00	2	Temperatura media	13.1
106646	7	Sololá	701	Sololá	4	Finca Santa Victoria	5	Mayo	2023-05-13T00:00:00	2024-11-08T04:00:00	4	Temperatura máxima	13.2
106647	7	Sololá	701	Sololá	4	Finca Santa Victoria	5	Mayo	2023-05-13T00:00:00	2024-11-08T04:00:00	3	Temperatura mínima	13
106648	7	Sololá	701	Sololá	4	Finca Santa Victoria	5	Mayo	2023-05-13T00:00:00	2024-11-08T04:00:00	5	Humedad	97
106649	7	Sololá	701	Sololá	4	Finca Santa Victoria	5	Mayo	2023-05-13T00:00:00	2024-11-08T04:00:00	6	Velocidad del viento	1.6
106650	7	Sololá	701	Sololá	4	Finca Santa Victoria	5	Mayo	2023-05-13T00:00:00	2024-11-08T04:00:00	7	Dirección del viento	1.61
106651	7	Sololá	701	Sololá	4	Finca Santa Victoria	5	Mayo	2023-05-13T00:00:00	2024-11-08T04:00:00	1	Precipitación	0
106652	7	Sololá	701	Sololá	4	Finca Santa Victoria	5	Mayo	2023-05-13T00:00:00	2024-11-08T04:00:00	8	Radiación solar	0
106653	7	Sololá	701	Sololá	4	Finca Santa Victoria	5	Mayo	2023-05-13T00:00:00	2024-11-08T05:00:00	2	Temperatura media	12.7
106654	7	Sololá	701	Sololá	4	Finca Santa Victoria	5	Mayo	2023-05-13T00:00:00	2024-11-08T05:00:00	4	Temperatura máxima	13.1
106655	7	Sololá	701	Sololá	4	Finca Santa Victoria	5	Mayo	2023-05-13T00:00:00	2024-11-08T05:00:00	3	Temperatura mínima	12.5
106656	7	Sololá	701	Sololá	4	Finca Santa Victoria	5	Mayo	2023-05-13T00:00:00	2024-11-08T05:00:00	5	Humedad	98
106657	7	Sololá	701	Sololá	4	Finca Santa Victoria	5	Mayo	2023-05-13T00:00:00	2024-11-08T05:00:00	6	Velocidad del viento	1.6
106658	7	Sololá	701	Sololá	4	Finca Santa Victoria	5	Mayo	2023-05-13T00:00:00	2024-11-08T05:00:00	7	Dirección del viento	1.61
106659	7	Sololá	701	Sololá	4	Finca Santa Victoria	5	Mayo	2023-05-13T00:00:00	2024-11-08T05:00:00	1	Precipitación	0
106660	7	Sololá	701	Sololá	4	Finca Santa Victoria	5	Mayo	2023-05-13T00:00:00	2024-11-08T05:00:00	8	Radiación solar	0
106661	7	Sololá	701	Sololá	4	Finca Santa Victoria	5	Mayo	2023-05-13T00:00:00	2024-11-08T06:00:00	2	Temperatura media	12.4
106662	7	Sololá	701	Sololá	4	Finca Santa Victoria	5	Mayo	2023-05-13T00:00:00	2024-11-08T06:00:00	4	Temperatura máxima	12.7
106663	7	Sololá	701	Sololá	4	Finca Santa Victoria	5	Mayo	2023-05-13T00:00:00	2024-11-08T06:00:00	3	Temperatura mínima	12.3
106664	7	Sololá	701	Sololá	4	Finca Santa Victoria	5	Mayo	2023-05-13T00:00:00	2024-11-08T06:00:00	5	Humedad	98
106665	7	Sololá	701	Sololá	4	Finca Santa Victoria	5	Mayo	2023-05-13T00:00:00	2024-11-08T06:00:00	6	Velocidad del viento	1.6
106666	7	Sololá	701	Sololá	4	Finca Santa Victoria	5	Mayo	2023-05-13T00:00:00	2024-11-08T06:00:00	7	Dirección del viento	1.61
106667	7	Sololá	701	Sololá	4	Finca Santa Victoria	5	Mayo	2023-05-13T00:00:00	2024-11-08T06:00:00	1	Precipitación	0
106668	7	Sololá	701	Sololá	4	Finca Santa Victoria	5	Mayo	2023-05-13T00:00:00	2024-11-08T06:00:00	8	Radiación solar	2
106669	7	Sololá	701	Sololá	4	Finca Santa Victoria	5	Mayo	2023-05-13T00:00:00	2024-11-08T07:00:00	2	Temperatura media	12.9
106670	7	Sololá	701	Sololá	4	Finca Santa Victoria	5	Mayo	2023-05-13T00:00:00	2024-11-08T07:00:00	4	Temperatura máxima	12.9
106671	7	Sololá	701	Sololá	4	Finca Santa Victoria	5	Mayo	2023-05-13T00:00:00	2024-11-08T07:00:00	3	Temperatura mínima	12.2
106672	7	Sololá	701	Sololá	4	Finca Santa Victoria	5	Mayo	2023-05-13T00:00:00	2024-11-08T07:00:00	5	Humedad	99
106673	7	Sololá	701	Sololá	4	Finca Santa Victoria	5	Mayo	2023-05-13T00:00:00	2024-11-08T07:00:00	6	Velocidad del viento	1.6
106674	7	Sololá	701	Sololá	4	Finca Santa Victoria	5	Mayo	2023-05-13T00:00:00	2024-11-08T07:00:00	7	Dirección del viento	1.61
106675	7	Sololá	701	Sololá	4	Finca Santa Victoria	5	Mayo	2023-05-13T00:00:00	2024-11-08T07:00:00	1	Precipitación	0
106676	7	Sololá	701	Sololá	4	Finca Santa Victoria	5	Mayo	2023-05-13T00:00:00	2024-11-08T07:00:00	8	Radiación solar	33
106677	7	Sololá	701	Sololá	4	Finca Santa Victoria	5	Mayo	2023-05-13T00:00:00	2024-11-08T08:00:00	2	Temperatura media	15.7
106678	7	Sololá	701	Sololá	4	Finca Santa Victoria	5	Mayo	2023-05-13T00:00:00	2024-11-08T08:00:00	4	Temperatura máxima	15.7
106679	7	Sololá	701	Sololá	4	Finca Santa Victoria	5	Mayo	2023-05-13T00:00:00	2024-11-08T08:00:00	3	Temperatura mínima	12.9
106680	7	Sololá	701	Sololá	4	Finca Santa Victoria	5	Mayo	2023-05-13T00:00:00	2024-11-08T08:00:00	5	Humedad	88
106681	7	Sololá	701	Sololá	4	Finca Santa Victoria	5	Mayo	2023-05-13T00:00:00	2024-11-08T08:00:00	6	Velocidad del viento	0
106682	7	Sololá	701	Sololá	4	Finca Santa Victoria	5	Mayo	2023-05-13T00:00:00	2024-11-08T08:00:00	7	Dirección del viento	0
106683	7	Sololá	701	Sololá	4	Finca Santa Victoria	5	Mayo	2023-05-13T00:00:00	2024-11-08T08:00:00	1	Precipitación	0
106684	7	Sololá	701	Sololá	4	Finca Santa Victoria	5	Mayo	2023-05-13T00:00:00	2024-11-08T08:00:00	8	Radiación solar	233
106685	7	Sololá	701	Sololá	4	Finca Santa Victoria	5	Mayo	2023-05-13T00:00:00	2024-11-08T09:00:00	2	Temperatura media	17.2
106686	7	Sololá	701	Sololá	4	Finca Santa Victoria	5	Mayo	2023-05-13T00:00:00	2024-11-08T09:00:00	4	Temperatura máxima	17.4
106687	7	Sololá	701	Sololá	4	Finca Santa Victoria	5	Mayo	2023-05-13T00:00:00	2024-11-08T09:00:00	3	Temperatura mínima	15.7
106688	7	Sololá	701	Sololá	4	Finca Santa Victoria	5	Mayo	2023-05-13T00:00:00	2024-11-08T09:00:00	5	Humedad	85
106689	7	Sololá	701	Sololá	4	Finca Santa Victoria	5	Mayo	2023-05-13T00:00:00	2024-11-08T09:00:00	6	Velocidad del viento	1.6
106690	7	Sololá	701	Sololá	4	Finca Santa Victoria	5	Mayo	2023-05-13T00:00:00	2024-11-08T09:00:00	7	Dirección del viento	1.61
106691	7	Sololá	701	Sololá	4	Finca Santa Victoria	5	Mayo	2023-05-13T00:00:00	2024-11-08T09:00:00	1	Precipitación	0
106692	7	Sololá	701	Sololá	4	Finca Santa Victoria	5	Mayo	2023-05-13T00:00:00	2024-11-08T09:00:00	8	Radiación solar	380
106693	7	Sololá	701	Sololá	4	Finca Santa Victoria	5	Mayo	2023-05-13T00:00:00	2024-11-08T10:00:00	2	Temperatura media	17.9
106694	7	Sololá	701	Sololá	4	Finca Santa Victoria	5	Mayo	2023-05-13T00:00:00	2024-11-08T10:00:00	4	Temperatura máxima	17.9
106695	7	Sololá	701	Sololá	4	Finca Santa Victoria	5	Mayo	2023-05-13T00:00:00	2024-11-08T10:00:00	3	Temperatura mínima	16.6
106696	7	Sololá	701	Sololá	4	Finca Santa Victoria	5	Mayo	2023-05-13T00:00:00	2024-11-08T10:00:00	5	Humedad	79
106697	7	Sololá	701	Sololá	4	Finca Santa Victoria	5	Mayo	2023-05-13T00:00:00	2024-11-08T10:00:00	6	Velocidad del viento	3.2
106698	7	Sololá	701	Sololá	4	Finca Santa Victoria	5	Mayo	2023-05-13T00:00:00	2024-11-08T10:00:00	7	Dirección del viento	3.22
106699	7	Sololá	701	Sololá	4	Finca Santa Victoria	5	Mayo	2023-05-13T00:00:00	2024-11-08T10:00:00	1	Precipitación	0
106700	7	Sololá	701	Sololá	4	Finca Santa Victoria	5	Mayo	2023-05-13T00:00:00	2024-11-08T10:00:00	8	Radiación solar	179
106701	7	Sololá	701	Sololá	4	Finca Santa Victoria	5	Mayo	2023-05-13T00:00:00	2024-11-08T11:00:00	2	Temperatura media	17.6
106702	7	Sololá	701	Sololá	4	Finca Santa Victoria	5	Mayo	2023-05-13T00:00:00	2024-11-08T11:00:00	4	Temperatura máxima	18.3
106703	7	Sololá	701	Sololá	4	Finca Santa Victoria	5	Mayo	2023-05-13T00:00:00	2024-11-08T11:00:00	3	Temperatura mínima	17.6
106704	7	Sololá	701	Sololá	4	Finca Santa Victoria	5	Mayo	2023-05-13T00:00:00	2024-11-08T11:00:00	5	Humedad	84
106705	7	Sololá	701	Sololá	4	Finca Santa Victoria	5	Mayo	2023-05-13T00:00:00	2024-11-08T11:00:00	6	Velocidad del viento	3.2
106706	7	Sololá	701	Sololá	4	Finca Santa Victoria	5	Mayo	2023-05-13T00:00:00	2024-11-08T11:00:00	7	Dirección del viento	3.22
106707	7	Sololá	701	Sololá	4	Finca Santa Victoria	5	Mayo	2023-05-13T00:00:00	2024-11-08T11:00:00	1	Precipitación	0
106708	7	Sololá	701	Sololá	4	Finca Santa Victoria	5	Mayo	2023-05-13T00:00:00	2024-11-08T11:00:00	8	Radiación solar	282
106709	7	Sololá	701	Sololá	4	Finca Santa Victoria	5	Mayo	2023-05-13T00:00:00	2024-11-08T12:00:00	2	Temperatura media	18.3
106710	7	Sololá	701	Sololá	4	Finca Santa Victoria	5	Mayo	2023-05-13T00:00:00	2024-11-08T12:00:00	4	Temperatura máxima	18.3
106711	7	Sololá	701	Sololá	4	Finca Santa Victoria	5	Mayo	2023-05-13T00:00:00	2024-11-08T12:00:00	3	Temperatura mínima	17.4
106712	7	Sololá	701	Sololá	4	Finca Santa Victoria	5	Mayo	2023-05-13T00:00:00	2024-11-08T12:00:00	5	Humedad	81
106713	7	Sololá	701	Sololá	4	Finca Santa Victoria	5	Mayo	2023-05-13T00:00:00	2024-11-08T12:00:00	6	Velocidad del viento	4.8
106714	7	Sololá	701	Sololá	4	Finca Santa Victoria	5	Mayo	2023-05-13T00:00:00	2024-11-08T12:00:00	7	Dirección del viento	4.83
106715	7	Sololá	701	Sololá	4	Finca Santa Victoria	5	Mayo	2023-05-13T00:00:00	2024-11-08T12:00:00	1	Precipitación	0
106716	7	Sololá	701	Sololá	4	Finca Santa Victoria	5	Mayo	2023-05-13T00:00:00	2024-11-08T12:00:00	8	Radiación solar	506
106717	7	Sololá	701	Sololá	4	Finca Santa Victoria	5	Mayo	2023-05-13T00:00:00	2024-11-08T13:00:00	2	Temperatura media	17.9
106718	7	Sololá	701	Sololá	4	Finca Santa Victoria	5	Mayo	2023-05-13T00:00:00	2024-11-08T13:00:00	4	Temperatura máxima	18.8
106719	7	Sololá	701	Sololá	4	Finca Santa Victoria	5	Mayo	2023-05-13T00:00:00	2024-11-08T13:00:00	3	Temperatura mínima	17.8
106720	7	Sololá	701	Sololá	4	Finca Santa Victoria	5	Mayo	2023-05-13T00:00:00	2024-11-08T13:00:00	5	Humedad	85
106721	7	Sololá	701	Sololá	4	Finca Santa Victoria	5	Mayo	2023-05-13T00:00:00	2024-11-08T13:00:00	6	Velocidad del viento	4.8
106722	7	Sololá	701	Sololá	4	Finca Santa Victoria	5	Mayo	2023-05-13T00:00:00	2024-11-08T13:00:00	7	Dirección del viento	4.83
106723	7	Sololá	701	Sololá	4	Finca Santa Victoria	5	Mayo	2023-05-13T00:00:00	2024-11-08T13:00:00	1	Precipitación	0
106724	7	Sololá	701	Sololá	4	Finca Santa Victoria	5	Mayo	2023-05-13T00:00:00	2024-11-08T13:00:00	8	Radiación solar	307
106725	7	Sololá	701	Sololá	4	Finca Santa Victoria	5	Mayo	2023-05-13T00:00:00	2024-11-08T14:00:00	2	Temperatura media	16.4
106726	7	Sololá	701	Sololá	4	Finca Santa Victoria	5	Mayo	2023-05-13T00:00:00	2024-11-08T14:00:00	4	Temperatura máxima	18
106727	7	Sololá	701	Sololá	4	Finca Santa Victoria	5	Mayo	2023-05-13T00:00:00	2024-11-08T14:00:00	3	Temperatura mínima	16.4
106728	7	Sololá	701	Sololá	4	Finca Santa Victoria	5	Mayo	2023-05-13T00:00:00	2024-11-08T14:00:00	5	Humedad	90
106729	7	Sololá	701	Sololá	4	Finca Santa Victoria	5	Mayo	2023-05-13T00:00:00	2024-11-08T14:00:00	6	Velocidad del viento	3.2
106730	7	Sololá	701	Sololá	4	Finca Santa Victoria	5	Mayo	2023-05-13T00:00:00	2024-11-08T14:00:00	7	Dirección del viento	3.22
106731	7	Sololá	701	Sololá	4	Finca Santa Victoria	5	Mayo	2023-05-13T00:00:00	2024-11-08T14:00:00	1	Precipitación	0
106732	7	Sololá	701	Sololá	4	Finca Santa Victoria	5	Mayo	2023-05-13T00:00:00	2024-11-08T14:00:00	8	Radiación solar	138
106733	7	Sololá	701	Sololá	4	Finca Santa Victoria	5	Mayo	2023-05-13T00:00:00	2024-11-08T15:00:00	2	Temperatura media	15.4
106734	7	Sololá	701	Sololá	4	Finca Santa Victoria	5	Mayo	2023-05-13T00:00:00	2024-11-08T15:00:00	4	Temperatura máxima	16.4
106735	7	Sololá	701	Sololá	4	Finca Santa Victoria	5	Mayo	2023-05-13T00:00:00	2024-11-08T15:00:00	3	Temperatura mínima	15.4
106736	7	Sololá	701	Sololá	4	Finca Santa Victoria	5	Mayo	2023-05-13T00:00:00	2024-11-08T15:00:00	5	Humedad	95
106737	7	Sololá	701	Sololá	4	Finca Santa Victoria	5	Mayo	2023-05-13T00:00:00	2024-11-08T15:00:00	6	Velocidad del viento	3.2
106738	7	Sololá	701	Sololá	4	Finca Santa Victoria	5	Mayo	2023-05-13T00:00:00	2024-11-08T15:00:00	7	Dirección del viento	3.22
106739	7	Sololá	701	Sololá	4	Finca Santa Victoria	5	Mayo	2023-05-13T00:00:00	2024-11-08T15:00:00	1	Precipitación	0
106740	7	Sololá	701	Sololá	4	Finca Santa Victoria	5	Mayo	2023-05-13T00:00:00	2024-11-08T15:00:00	8	Radiación solar	90
106741	7	Sololá	701	Sololá	4	Finca Santa Victoria	5	Mayo	2023-05-13T00:00:00	2024-11-08T16:00:00	2	Temperatura media	15.2
106742	7	Sololá	701	Sololá	4	Finca Santa Victoria	5	Mayo	2023-05-13T00:00:00	2024-11-08T16:00:00	4	Temperatura máxima	15.5
106743	7	Sololá	701	Sololá	4	Finca Santa Victoria	5	Mayo	2023-05-13T00:00:00	2024-11-08T16:00:00	3	Temperatura mínima	15.2
106744	7	Sololá	701	Sololá	4	Finca Santa Victoria	5	Mayo	2023-05-13T00:00:00	2024-11-08T16:00:00	5	Humedad	96
106745	7	Sololá	701	Sololá	4	Finca Santa Victoria	5	Mayo	2023-05-13T00:00:00	2024-11-08T16:00:00	6	Velocidad del viento	1.6
106746	7	Sololá	701	Sololá	4	Finca Santa Victoria	5	Mayo	2023-05-13T00:00:00	2024-11-08T16:00:00	7	Dirección del viento	1.61
106747	7	Sololá	701	Sololá	4	Finca Santa Victoria	5	Mayo	2023-05-13T00:00:00	2024-11-08T16:00:00	1	Precipitación	0
106748	7	Sololá	701	Sololá	4	Finca Santa Victoria	5	Mayo	2023-05-13T00:00:00	2024-11-08T16:00:00	8	Radiación solar	29
106749	7	Sololá	701	Sololá	4	Finca Santa Victoria	5	Mayo	2023-05-13T00:00:00	2024-11-08T17:00:00	2	Temperatura media	14.9
106750	7	Sololá	701	Sololá	4	Finca Santa Victoria	5	Mayo	2023-05-13T00:00:00	2024-11-08T17:00:00	4	Temperatura máxima	15.2
106751	7	Sololá	701	Sololá	4	Finca Santa Victoria	5	Mayo	2023-05-13T00:00:00	2024-11-08T17:00:00	3	Temperatura mínima	14.8
106752	7	Sololá	701	Sololá	4	Finca Santa Victoria	5	Mayo	2023-05-13T00:00:00	2024-11-08T17:00:00	5	Humedad	97
106753	7	Sololá	701	Sololá	4	Finca Santa Victoria	5	Mayo	2023-05-13T00:00:00	2024-11-08T17:00:00	6	Velocidad del viento	1.6
106754	7	Sololá	701	Sololá	4	Finca Santa Victoria	5	Mayo	2023-05-13T00:00:00	2024-11-08T17:00:00	7	Dirección del viento	1.61
106755	7	Sololá	701	Sololá	4	Finca Santa Victoria	5	Mayo	2023-05-13T00:00:00	2024-11-08T17:00:00	1	Precipitación	2.8
106756	7	Sololá	701	Sololá	4	Finca Santa Victoria	5	Mayo	2023-05-13T00:00:00	2024-11-08T17:00:00	8	Radiación solar	25
106757	7	Sololá	701	Sololá	4	Finca Santa Victoria	5	Mayo	2023-05-13T00:00:00	2024-11-08T18:00:00	2	Temperatura media	14.5
106758	7	Sololá	701	Sololá	4	Finca Santa Victoria	5	Mayo	2023-05-13T00:00:00	2024-11-08T18:00:00	4	Temperatura máxima	15.1
106759	7	Sololá	701	Sololá	4	Finca Santa Victoria	5	Mayo	2023-05-13T00:00:00	2024-11-08T18:00:00	3	Temperatura mínima	14.4
106760	7	Sololá	701	Sololá	4	Finca Santa Victoria	5	Mayo	2023-05-13T00:00:00	2024-11-08T18:00:00	5	Humedad	97
106761	7	Sololá	701	Sololá	4	Finca Santa Victoria	5	Mayo	2023-05-13T00:00:00	2024-11-08T18:00:00	6	Velocidad del viento	0
106762	7	Sololá	701	Sololá	4	Finca Santa Victoria	5	Mayo	2023-05-13T00:00:00	2024-11-08T18:00:00	7	Dirección del viento	0
106763	7	Sololá	701	Sololá	4	Finca Santa Victoria	5	Mayo	2023-05-13T00:00:00	2024-11-08T18:00:00	1	Precipitación	0
106764	7	Sololá	701	Sololá	4	Finca Santa Victoria	5	Mayo	2023-05-13T00:00:00	2024-11-08T18:00:00	8	Radiación solar	13
106765	7	Sololá	701	Sololá	4	Finca Santa Victoria	5	Mayo	2023-05-13T00:00:00	2024-11-08T19:00:00	2	Temperatura media	14
106766	7	Sololá	701	Sololá	4	Finca Santa Victoria	5	Mayo	2023-05-13T00:00:00	2024-11-08T19:00:00	4	Temperatura máxima	14.5
106767	7	Sololá	701	Sololá	4	Finca Santa Victoria	5	Mayo	2023-05-13T00:00:00	2024-11-08T19:00:00	3	Temperatura mínima	13.8
106768	7	Sololá	701	Sololá	4	Finca Santa Victoria	5	Mayo	2023-05-13T00:00:00	2024-11-08T19:00:00	5	Humedad	97
106769	7	Sololá	701	Sololá	4	Finca Santa Victoria	5	Mayo	2023-05-13T00:00:00	2024-11-08T19:00:00	6	Velocidad del viento	1.6
106770	7	Sololá	701	Sololá	4	Finca Santa Victoria	5	Mayo	2023-05-13T00:00:00	2024-11-08T19:00:00	7	Dirección del viento	1.61
106771	7	Sololá	701	Sololá	4	Finca Santa Victoria	5	Mayo	2023-05-13T00:00:00	2024-11-08T19:00:00	1	Precipitación	0.2
106772	7	Sololá	701	Sololá	4	Finca Santa Victoria	5	Mayo	2023-05-13T00:00:00	2024-11-08T19:00:00	8	Radiación solar	0
106773	7	Sololá	701	Sololá	4	Finca Santa Victoria	5	Mayo	2023-05-13T00:00:00	2024-11-08T20:00:00	2	Temperatura media	14.2
106774	7	Sololá	701	Sololá	4	Finca Santa Victoria	5	Mayo	2023-05-13T00:00:00	2024-11-08T20:00:00	4	Temperatura máxima	14.2
106775	7	Sololá	701	Sololá	4	Finca Santa Victoria	5	Mayo	2023-05-13T00:00:00	2024-11-08T20:00:00	3	Temperatura mínima	13.7
106776	7	Sololá	701	Sololá	4	Finca Santa Victoria	5	Mayo	2023-05-13T00:00:00	2024-11-08T20:00:00	5	Humedad	93
106777	7	Sololá	701	Sololá	4	Finca Santa Victoria	5	Mayo	2023-05-13T00:00:00	2024-11-08T20:00:00	6	Velocidad del viento	1.6
106778	7	Sololá	701	Sololá	4	Finca Santa Victoria	5	Mayo	2023-05-13T00:00:00	2024-11-08T20:00:00	7	Dirección del viento	1.61
106779	7	Sololá	701	Sololá	4	Finca Santa Victoria	5	Mayo	2023-05-13T00:00:00	2024-11-08T20:00:00	1	Precipitación	0.2
106780	7	Sololá	701	Sololá	4	Finca Santa Victoria	5	Mayo	2023-05-13T00:00:00	2024-11-08T20:00:00	8	Radiación solar	0
106781	7	Sololá	701	Sololá	4	Finca Santa Victoria	5	Mayo	2023-05-13T00:00:00	2024-11-08T21:00:00	2	Temperatura media	13.6
106782	7	Sololá	701	Sololá	4	Finca Santa Victoria	5	Mayo	2023-05-13T00:00:00	2024-11-08T21:00:00	4	Temperatura máxima	14.6
106783	7	Sololá	701	Sololá	4	Finca Santa Victoria	5	Mayo	2023-05-13T00:00:00	2024-11-08T21:00:00	3	Temperatura mínima	13.6
106784	7	Sololá	701	Sololá	4	Finca Santa Victoria	5	Mayo	2023-05-13T00:00:00	2024-11-08T21:00:00	5	Humedad	93
106785	7	Sololá	701	Sololá	4	Finca Santa Victoria	5	Mayo	2023-05-13T00:00:00	2024-11-08T21:00:00	6	Velocidad del viento	1.6
106786	7	Sololá	701	Sololá	4	Finca Santa Victoria	5	Mayo	2023-05-13T00:00:00	2024-11-08T21:00:00	7	Dirección del viento	1.61
106787	7	Sololá	701	Sololá	4	Finca Santa Victoria	5	Mayo	2023-05-13T00:00:00	2024-11-08T21:00:00	1	Precipitación	0
106788	7	Sololá	701	Sololá	4	Finca Santa Victoria	5	Mayo	2023-05-13T00:00:00	2024-11-08T21:00:00	8	Radiación solar	0
106789	7	Sololá	701	Sololá	4	Finca Santa Victoria	5	Mayo	2023-05-13T00:00:00	2024-11-08T22:00:00	2	Temperatura media	13.8
106790	7	Sololá	701	Sololá	4	Finca Santa Victoria	5	Mayo	2023-05-13T00:00:00	2024-11-08T22:00:00	4	Temperatura máxima	13.8
106791	7	Sololá	701	Sololá	4	Finca Santa Victoria	5	Mayo	2023-05-13T00:00:00	2024-11-08T22:00:00	3	Temperatura mínima	13.3
106792	7	Sololá	701	Sololá	4	Finca Santa Victoria	5	Mayo	2023-05-13T00:00:00	2024-11-08T22:00:00	5	Humedad	98
106793	7	Sololá	701	Sololá	4	Finca Santa Victoria	5	Mayo	2023-05-13T00:00:00	2024-11-08T22:00:00	6	Velocidad del viento	0
106794	7	Sololá	701	Sololá	4	Finca Santa Victoria	5	Mayo	2023-05-13T00:00:00	2024-11-08T22:00:00	7	Dirección del viento	0
106795	7	Sololá	701	Sololá	4	Finca Santa Victoria	5	Mayo	2023-05-13T00:00:00	2024-11-08T22:00:00	1	Precipitación	0
106796	7	Sololá	701	Sololá	4	Finca Santa Victoria	5	Mayo	2023-05-13T00:00:00	2024-11-08T22:00:00	8	Radiación solar	0
106797	7	Sololá	701	Sololá	4	Finca Santa Victoria	5	Mayo	2023-05-13T00:00:00	2024-11-08T23:00:00	2	Temperatura media	13.7
106798	7	Sololá	701	Sololá	4	Finca Santa Victoria	5	Mayo	2023-05-13T00:00:00	2024-11-08T23:00:00	4	Temperatura máxima	13.9
106799	7	Sololá	701	Sololá	4	Finca Santa Victoria	5	Mayo	2023-05-13T00:00:00	2024-11-08T23:00:00	3	Temperatura mínima	13.6
106800	7	Sololá	701	Sololá	4	Finca Santa Victoria	5	Mayo	2023-05-13T00:00:00	2024-11-08T23:00:00	5	Humedad	97
106801	7	Sololá	701	Sololá	4	Finca Santa Victoria	5	Mayo	2023-05-13T00:00:00	2024-11-08T23:00:00	6	Velocidad del viento	0
106802	7	Sololá	701	Sololá	4	Finca Santa Victoria	5	Mayo	2023-05-13T00:00:00	2024-11-08T23:00:00	7	Dirección del viento	0
106803	7	Sololá	701	Sololá	4	Finca Santa Victoria	5	Mayo	2023-05-13T00:00:00	2024-11-08T23:00:00	1	Precipitación	0
106804	7	Sololá	701	Sololá	4	Finca Santa Victoria	5	Mayo	2023-05-13T00:00:00	2024-11-08T23:00:00	8	Radiación solar	0
106805	7	Sololá	701	Sololá	4	Finca Santa Victoria	5	Mayo	2023-05-14T00:00:00	2024-11-08T00:00:00	2	Temperatura media	13.2
106806	7	Sololá	701	Sololá	4	Finca Santa Victoria	5	Mayo	2023-05-14T00:00:00	2024-11-08T00:00:00	4	Temperatura máxima	13.7
106807	7	Sololá	701	Sololá	4	Finca Santa Victoria	5	Mayo	2023-05-14T00:00:00	2024-11-08T00:00:00	3	Temperatura mínima	13.2
106808	7	Sololá	701	Sololá	4	Finca Santa Victoria	5	Mayo	2023-05-14T00:00:00	2024-11-08T00:00:00	5	Humedad	97
106809	7	Sololá	701	Sololá	4	Finca Santa Victoria	5	Mayo	2023-05-14T00:00:00	2024-11-08T00:00:00	6	Velocidad del viento	0
106810	7	Sololá	701	Sololá	4	Finca Santa Victoria	5	Mayo	2023-05-14T00:00:00	2024-11-08T00:00:00	7	Dirección del viento	0
106811	7	Sololá	701	Sololá	4	Finca Santa Victoria	5	Mayo	2023-05-14T00:00:00	2024-11-08T00:00:00	1	Precipitación	0
106812	7	Sololá	701	Sololá	4	Finca Santa Victoria	5	Mayo	2023-05-14T00:00:00	2024-11-08T00:00:00	8	Radiación solar	0
106813	7	Sololá	701	Sololá	4	Finca Santa Victoria	5	Mayo	2023-05-14T00:00:00	2024-11-08T01:00:00	2	Temperatura media	13.1
106814	7	Sololá	701	Sololá	4	Finca Santa Victoria	5	Mayo	2023-05-14T00:00:00	2024-11-08T01:00:00	4	Temperatura máxima	13.3
106815	7	Sololá	701	Sololá	4	Finca Santa Victoria	5	Mayo	2023-05-14T00:00:00	2024-11-08T01:00:00	3	Temperatura mínima	13
106816	7	Sololá	701	Sololá	4	Finca Santa Victoria	5	Mayo	2023-05-14T00:00:00	2024-11-08T01:00:00	5	Humedad	96
106817	7	Sololá	701	Sololá	4	Finca Santa Victoria	5	Mayo	2023-05-14T00:00:00	2024-11-08T01:00:00	6	Velocidad del viento	0
106818	7	Sololá	701	Sololá	4	Finca Santa Victoria	5	Mayo	2023-05-14T00:00:00	2024-11-08T01:00:00	7	Dirección del viento	0
106819	7	Sololá	701	Sololá	4	Finca Santa Victoria	5	Mayo	2023-05-14T00:00:00	2024-11-08T01:00:00	1	Precipitación	0
106820	7	Sololá	701	Sololá	4	Finca Santa Victoria	5	Mayo	2023-05-14T00:00:00	2024-11-08T01:00:00	8	Radiación solar	0
106821	7	Sololá	701	Sololá	4	Finca Santa Victoria	5	Mayo	2023-05-14T00:00:00	2024-11-08T02:00:00	2	Temperatura media	13.1
106822	7	Sololá	701	Sololá	4	Finca Santa Victoria	5	Mayo	2023-05-14T00:00:00	2024-11-08T02:00:00	4	Temperatura máxima	13.1
106823	7	Sololá	701	Sololá	4	Finca Santa Victoria	5	Mayo	2023-05-14T00:00:00	2024-11-08T02:00:00	3	Temperatura mínima	12.8
106824	7	Sololá	701	Sololá	4	Finca Santa Victoria	5	Mayo	2023-05-14T00:00:00	2024-11-08T02:00:00	5	Humedad	97
106825	7	Sololá	701	Sololá	4	Finca Santa Victoria	5	Mayo	2023-05-14T00:00:00	2024-11-08T02:00:00	6	Velocidad del viento	0
106826	7	Sololá	701	Sololá	4	Finca Santa Victoria	5	Mayo	2023-05-14T00:00:00	2024-11-08T02:00:00	7	Dirección del viento	0
106827	7	Sololá	701	Sololá	4	Finca Santa Victoria	5	Mayo	2023-05-14T00:00:00	2024-11-08T02:00:00	1	Precipitación	0
106828	7	Sololá	701	Sololá	4	Finca Santa Victoria	5	Mayo	2023-05-14T00:00:00	2024-11-08T02:00:00	8	Radiación solar	0
106829	7	Sololá	701	Sololá	4	Finca Santa Victoria	5	Mayo	2023-05-14T00:00:00	2024-11-08T03:00:00	2	Temperatura media	13.1
106830	7	Sololá	701	Sololá	4	Finca Santa Victoria	5	Mayo	2023-05-14T00:00:00	2024-11-08T03:00:00	4	Temperatura máxima	13.2
106831	7	Sololá	701	Sololá	4	Finca Santa Victoria	5	Mayo	2023-05-14T00:00:00	2024-11-08T03:00:00	3	Temperatura mínima	13
106832	7	Sololá	701	Sololá	4	Finca Santa Victoria	5	Mayo	2023-05-14T00:00:00	2024-11-08T03:00:00	5	Humedad	96
106833	7	Sololá	701	Sololá	4	Finca Santa Victoria	5	Mayo	2023-05-14T00:00:00	2024-11-08T03:00:00	6	Velocidad del viento	1.6
106834	7	Sololá	701	Sololá	4	Finca Santa Victoria	5	Mayo	2023-05-14T00:00:00	2024-11-08T03:00:00	7	Dirección del viento	1.61
106835	7	Sololá	701	Sololá	4	Finca Santa Victoria	5	Mayo	2023-05-14T00:00:00	2024-11-08T03:00:00	1	Precipitación	0
106836	7	Sololá	701	Sololá	4	Finca Santa Victoria	5	Mayo	2023-05-14T00:00:00	2024-11-08T03:00:00	8	Radiación solar	0
106837	7	Sololá	701	Sololá	4	Finca Santa Victoria	5	Mayo	2023-05-14T00:00:00	2024-11-08T04:00:00	2	Temperatura media	11.9
106838	7	Sololá	701	Sololá	4	Finca Santa Victoria	5	Mayo	2023-05-14T00:00:00	2024-11-08T04:00:00	4	Temperatura máxima	13.3
106839	7	Sololá	701	Sololá	4	Finca Santa Victoria	5	Mayo	2023-05-14T00:00:00	2024-11-08T04:00:00	3	Temperatura mínima	11.9
106840	7	Sololá	701	Sololá	4	Finca Santa Victoria	5	Mayo	2023-05-14T00:00:00	2024-11-08T04:00:00	5	Humedad	97
106841	7	Sololá	701	Sololá	4	Finca Santa Victoria	5	Mayo	2023-05-14T00:00:00	2024-11-08T04:00:00	6	Velocidad del viento	3.2
106842	7	Sololá	701	Sololá	4	Finca Santa Victoria	5	Mayo	2023-05-14T00:00:00	2024-11-08T04:00:00	7	Dirección del viento	3.22
106843	7	Sololá	701	Sololá	4	Finca Santa Victoria	5	Mayo	2023-05-14T00:00:00	2024-11-08T04:00:00	1	Precipitación	0.8
106844	7	Sololá	701	Sololá	4	Finca Santa Victoria	5	Mayo	2023-05-14T00:00:00	2024-11-08T04:00:00	8	Radiación solar	0
106845	7	Sololá	701	Sololá	4	Finca Santa Victoria	5	Mayo	2023-05-14T00:00:00	2024-11-08T05:00:00	2	Temperatura media	12.1
106846	7	Sololá	701	Sololá	4	Finca Santa Victoria	5	Mayo	2023-05-14T00:00:00	2024-11-08T05:00:00	4	Temperatura máxima	12.3
106847	7	Sololá	701	Sololá	4	Finca Santa Victoria	5	Mayo	2023-05-14T00:00:00	2024-11-08T05:00:00	3	Temperatura mínima	11.8
106848	7	Sololá	701	Sololá	4	Finca Santa Victoria	5	Mayo	2023-05-14T00:00:00	2024-11-08T05:00:00	5	Humedad	88
106849	7	Sololá	701	Sololá	4	Finca Santa Victoria	5	Mayo	2023-05-14T00:00:00	2024-11-08T05:00:00	6	Velocidad del viento	4.8
106850	7	Sololá	701	Sololá	4	Finca Santa Victoria	5	Mayo	2023-05-14T00:00:00	2024-11-08T05:00:00	7	Dirección del viento	4.83
106851	7	Sololá	701	Sololá	4	Finca Santa Victoria	5	Mayo	2023-05-14T00:00:00	2024-11-08T05:00:00	1	Precipitación	0
106852	7	Sololá	701	Sololá	4	Finca Santa Victoria	5	Mayo	2023-05-14T00:00:00	2024-11-08T05:00:00	8	Radiación solar	0
106853	7	Sololá	701	Sololá	4	Finca Santa Victoria	5	Mayo	2023-05-14T00:00:00	2024-11-08T06:00:00	2	Temperatura media	12.4
106854	7	Sololá	701	Sololá	4	Finca Santa Victoria	5	Mayo	2023-05-14T00:00:00	2024-11-08T06:00:00	4	Temperatura máxima	12.6
106855	7	Sololá	701	Sololá	4	Finca Santa Victoria	5	Mayo	2023-05-14T00:00:00	2024-11-08T06:00:00	3	Temperatura mínima	11.8
106856	7	Sololá	701	Sololá	4	Finca Santa Victoria	5	Mayo	2023-05-14T00:00:00	2024-11-08T06:00:00	5	Humedad	84
106857	7	Sololá	701	Sololá	4	Finca Santa Victoria	5	Mayo	2023-05-14T00:00:00	2024-11-08T06:00:00	6	Velocidad del viento	1.6
106858	7	Sololá	701	Sololá	4	Finca Santa Victoria	5	Mayo	2023-05-14T00:00:00	2024-11-08T06:00:00	7	Dirección del viento	1.61
106859	7	Sololá	701	Sololá	4	Finca Santa Victoria	5	Mayo	2023-05-14T00:00:00	2024-11-08T06:00:00	1	Precipitación	0
106860	7	Sololá	701	Sololá	4	Finca Santa Victoria	5	Mayo	2023-05-14T00:00:00	2024-11-08T06:00:00	8	Radiación solar	0
106861	7	Sololá	701	Sololá	4	Finca Santa Victoria	5	Mayo	2023-05-14T00:00:00	2024-11-08T07:00:00	2	Temperatura media	13
106862	7	Sololá	701	Sololá	4	Finca Santa Victoria	5	Mayo	2023-05-14T00:00:00	2024-11-08T07:00:00	4	Temperatura máxima	13.4
106863	7	Sololá	701	Sololá	4	Finca Santa Victoria	5	Mayo	2023-05-14T00:00:00	2024-11-08T07:00:00	3	Temperatura mínima	12.4
106864	7	Sololá	701	Sololá	4	Finca Santa Victoria	5	Mayo	2023-05-14T00:00:00	2024-11-08T07:00:00	5	Humedad	84
106865	7	Sololá	701	Sololá	4	Finca Santa Victoria	5	Mayo	2023-05-14T00:00:00	2024-11-08T07:00:00	6	Velocidad del viento	1.6
106866	7	Sololá	701	Sololá	4	Finca Santa Victoria	5	Mayo	2023-05-14T00:00:00	2024-11-08T07:00:00	7	Dirección del viento	1.61
106867	7	Sololá	701	Sololá	4	Finca Santa Victoria	5	Mayo	2023-05-14T00:00:00	2024-11-08T07:00:00	1	Precipitación	0
106868	7	Sololá	701	Sololá	4	Finca Santa Victoria	5	Mayo	2023-05-14T00:00:00	2024-11-08T07:00:00	8	Radiación solar	16
106869	7	Sololá	701	Sololá	4	Finca Santa Victoria	5	Mayo	2023-05-14T00:00:00	2024-11-08T08:00:00	2	Temperatura media	14
106870	7	Sololá	701	Sololá	4	Finca Santa Victoria	5	Mayo	2023-05-14T00:00:00	2024-11-08T08:00:00	4	Temperatura máxima	14
106871	7	Sololá	701	Sololá	4	Finca Santa Victoria	5	Mayo	2023-05-14T00:00:00	2024-11-08T08:00:00	3	Temperatura mínima	12.9
106872	7	Sololá	701	Sololá	4	Finca Santa Victoria	5	Mayo	2023-05-14T00:00:00	2024-11-08T08:00:00	5	Humedad	85
106873	7	Sololá	701	Sololá	4	Finca Santa Victoria	5	Mayo	2023-05-14T00:00:00	2024-11-08T08:00:00	6	Velocidad del viento	0
106874	7	Sololá	701	Sololá	4	Finca Santa Victoria	5	Mayo	2023-05-14T00:00:00	2024-11-08T08:00:00	7	Dirección del viento	0
106875	7	Sololá	701	Sololá	4	Finca Santa Victoria	5	Mayo	2023-05-14T00:00:00	2024-11-08T08:00:00	1	Precipitación	0
106876	7	Sololá	701	Sololá	4	Finca Santa Victoria	5	Mayo	2023-05-14T00:00:00	2024-11-08T08:00:00	8	Radiación solar	82
106877	7	Sololá	701	Sololá	4	Finca Santa Victoria	5	Mayo	2023-05-14T00:00:00	2024-11-08T09:00:00	2	Temperatura media	19.1
106878	7	Sololá	701	Sololá	4	Finca Santa Victoria	5	Mayo	2023-05-14T00:00:00	2024-11-08T09:00:00	4	Temperatura máxima	19.1
106879	7	Sololá	701	Sololá	4	Finca Santa Victoria	5	Mayo	2023-05-14T00:00:00	2024-11-08T09:00:00	3	Temperatura mínima	14
106880	7	Sololá	701	Sololá	4	Finca Santa Victoria	5	Mayo	2023-05-14T00:00:00	2024-11-08T09:00:00	5	Humedad	66
106881	7	Sololá	701	Sololá	4	Finca Santa Victoria	5	Mayo	2023-05-14T00:00:00	2024-11-08T09:00:00	6	Velocidad del viento	1.6
106882	7	Sololá	701	Sololá	4	Finca Santa Victoria	5	Mayo	2023-05-14T00:00:00	2024-11-08T09:00:00	7	Dirección del viento	1.61
106883	7	Sololá	701	Sololá	4	Finca Santa Victoria	5	Mayo	2023-05-14T00:00:00	2024-11-08T09:00:00	1	Precipitación	0
106884	7	Sololá	701	Sololá	4	Finca Santa Victoria	5	Mayo	2023-05-14T00:00:00	2024-11-08T09:00:00	8	Radiación solar	320
106885	7	Sololá	701	Sololá	4	Finca Santa Victoria	5	Mayo	2023-05-14T00:00:00	2024-11-08T10:00:00	2	Temperatura media	18.4
106886	7	Sololá	701	Sololá	4	Finca Santa Victoria	5	Mayo	2023-05-14T00:00:00	2024-11-08T10:00:00	4	Temperatura máxima	19.8
106887	7	Sololá	701	Sololá	4	Finca Santa Victoria	5	Mayo	2023-05-14T00:00:00	2024-11-08T10:00:00	3	Temperatura mínima	18.4
106888	7	Sololá	701	Sololá	4	Finca Santa Victoria	5	Mayo	2023-05-14T00:00:00	2024-11-08T10:00:00	5	Humedad	65
106889	7	Sololá	701	Sololá	4	Finca Santa Victoria	5	Mayo	2023-05-14T00:00:00	2024-11-08T10:00:00	6	Velocidad del viento	3.2
106890	7	Sololá	701	Sololá	4	Finca Santa Victoria	5	Mayo	2023-05-14T00:00:00	2024-11-08T10:00:00	7	Dirección del viento	3.22
106891	7	Sololá	701	Sololá	4	Finca Santa Victoria	5	Mayo	2023-05-14T00:00:00	2024-11-08T10:00:00	1	Precipitación	0
106892	7	Sololá	701	Sololá	4	Finca Santa Victoria	5	Mayo	2023-05-14T00:00:00	2024-11-08T10:00:00	8	Radiación solar	340
106893	7	Sololá	701	Sololá	4	Finca Santa Victoria	5	Mayo	2023-05-14T00:00:00	2024-11-08T11:00:00	2	Temperatura media	18.3
106894	7	Sololá	701	Sololá	4	Finca Santa Victoria	5	Mayo	2023-05-14T00:00:00	2024-11-08T11:00:00	4	Temperatura máxima	18.4
106895	7	Sololá	701	Sololá	4	Finca Santa Victoria	5	Mayo	2023-05-14T00:00:00	2024-11-08T11:00:00	3	Temperatura mínima	17.8
106896	7	Sololá	701	Sololá	4	Finca Santa Victoria	5	Mayo	2023-05-14T00:00:00	2024-11-08T11:00:00	5	Humedad	73
106897	7	Sololá	701	Sololá	4	Finca Santa Victoria	5	Mayo	2023-05-14T00:00:00	2024-11-08T11:00:00	6	Velocidad del viento	3.2
106898	7	Sololá	701	Sololá	4	Finca Santa Victoria	5	Mayo	2023-05-14T00:00:00	2024-11-08T11:00:00	7	Dirección del viento	3.22
106899	7	Sololá	701	Sololá	4	Finca Santa Victoria	5	Mayo	2023-05-14T00:00:00	2024-11-08T11:00:00	1	Precipitación	0
106900	7	Sololá	701	Sololá	4	Finca Santa Victoria	5	Mayo	2023-05-14T00:00:00	2024-11-08T11:00:00	8	Radiación solar	415
106901	7	Sololá	701	Sololá	4	Finca Santa Victoria	5	Mayo	2023-05-14T00:00:00	2024-11-08T12:00:00	2	Temperatura media	18.4
106902	7	Sololá	701	Sololá	4	Finca Santa Victoria	5	Mayo	2023-05-14T00:00:00	2024-11-08T12:00:00	4	Temperatura máxima	18.8
106903	7	Sololá	701	Sololá	4	Finca Santa Victoria	5	Mayo	2023-05-14T00:00:00	2024-11-08T12:00:00	3	Temperatura mínima	17.4
106904	7	Sololá	701	Sololá	4	Finca Santa Victoria	5	Mayo	2023-05-14T00:00:00	2024-11-08T12:00:00	5	Humedad	66
106905	7	Sololá	701	Sololá	4	Finca Santa Victoria	5	Mayo	2023-05-14T00:00:00	2024-11-08T12:00:00	6	Velocidad del viento	3.2
106906	7	Sololá	701	Sololá	4	Finca Santa Victoria	5	Mayo	2023-05-14T00:00:00	2024-11-08T12:00:00	7	Dirección del viento	3.22
106907	7	Sololá	701	Sololá	4	Finca Santa Victoria	5	Mayo	2023-05-14T00:00:00	2024-11-08T12:00:00	1	Precipitación	0
106908	7	Sololá	701	Sololá	4	Finca Santa Victoria	5	Mayo	2023-05-14T00:00:00	2024-11-08T12:00:00	8	Radiación solar	570
106909	7	Sololá	701	Sololá	4	Finca Santa Victoria	5	Mayo	2023-05-14T00:00:00	2024-11-08T13:00:00	2	Temperatura media	18.7
106910	7	Sololá	701	Sololá	4	Finca Santa Victoria	5	Mayo	2023-05-14T00:00:00	2024-11-08T13:00:00	4	Temperatura máxima	19.1
106911	7	Sololá	701	Sololá	4	Finca Santa Victoria	5	Mayo	2023-05-14T00:00:00	2024-11-08T13:00:00	3	Temperatura mínima	18.3
106912	7	Sololá	701	Sololá	4	Finca Santa Victoria	5	Mayo	2023-05-14T00:00:00	2024-11-08T13:00:00	5	Humedad	65
106913	7	Sololá	701	Sololá	4	Finca Santa Victoria	5	Mayo	2023-05-14T00:00:00	2024-11-08T13:00:00	6	Velocidad del viento	4.8
106914	7	Sololá	701	Sololá	4	Finca Santa Victoria	5	Mayo	2023-05-14T00:00:00	2024-11-08T13:00:00	7	Dirección del viento	4.83
106915	7	Sololá	701	Sololá	4	Finca Santa Victoria	5	Mayo	2023-05-14T00:00:00	2024-11-08T13:00:00	1	Precipitación	0
106916	7	Sololá	701	Sololá	4	Finca Santa Victoria	5	Mayo	2023-05-14T00:00:00	2024-11-08T13:00:00	8	Radiación solar	845
106917	7	Sololá	701	Sololá	4	Finca Santa Victoria	5	Mayo	2023-05-14T00:00:00	2024-11-08T14:00:00	2	Temperatura media	19.4
106918	7	Sololá	701	Sololá	4	Finca Santa Victoria	5	Mayo	2023-05-14T00:00:00	2024-11-08T14:00:00	4	Temperatura máxima	19.6
106919	7	Sololá	701	Sololá	4	Finca Santa Victoria	5	Mayo	2023-05-14T00:00:00	2024-11-08T14:00:00	3	Temperatura mínima	18.7
106920	7	Sololá	701	Sololá	4	Finca Santa Victoria	5	Mayo	2023-05-14T00:00:00	2024-11-08T14:00:00	5	Humedad	66
106921	7	Sololá	701	Sololá	4	Finca Santa Victoria	5	Mayo	2023-05-14T00:00:00	2024-11-08T14:00:00	6	Velocidad del viento	3.2
106922	7	Sololá	701	Sololá	4	Finca Santa Victoria	5	Mayo	2023-05-14T00:00:00	2024-11-08T14:00:00	7	Dirección del viento	3.22
106923	7	Sololá	701	Sololá	4	Finca Santa Victoria	5	Mayo	2023-05-14T00:00:00	2024-11-08T14:00:00	1	Precipitación	0
106924	7	Sololá	701	Sololá	4	Finca Santa Victoria	5	Mayo	2023-05-14T00:00:00	2024-11-08T14:00:00	8	Radiación solar	530
106925	7	Sololá	701	Sololá	4	Finca Santa Victoria	5	Mayo	2023-05-14T00:00:00	2024-11-08T15:00:00	2	Temperatura media	19.6
106926	7	Sololá	701	Sololá	4	Finca Santa Victoria	5	Mayo	2023-05-14T00:00:00	2024-11-08T15:00:00	4	Temperatura máxima	20.2
106927	7	Sololá	701	Sololá	4	Finca Santa Victoria	5	Mayo	2023-05-14T00:00:00	2024-11-08T15:00:00	3	Temperatura mínima	19.4
106928	7	Sololá	701	Sololá	4	Finca Santa Victoria	5	Mayo	2023-05-14T00:00:00	2024-11-08T15:00:00	5	Humedad	70
106929	7	Sololá	701	Sololá	4	Finca Santa Victoria	5	Mayo	2023-05-14T00:00:00	2024-11-08T15:00:00	6	Velocidad del viento	4.8
106930	7	Sololá	701	Sololá	4	Finca Santa Victoria	5	Mayo	2023-05-14T00:00:00	2024-11-08T15:00:00	7	Dirección del viento	4.83
106931	7	Sololá	701	Sololá	4	Finca Santa Victoria	5	Mayo	2023-05-14T00:00:00	2024-11-08T15:00:00	1	Precipitación	0
106932	7	Sololá	701	Sololá	4	Finca Santa Victoria	5	Mayo	2023-05-14T00:00:00	2024-11-08T15:00:00	8	Radiación solar	348
106933	7	Sololá	701	Sololá	4	Finca Santa Victoria	5	Mayo	2023-05-14T00:00:00	2024-11-08T16:00:00	2	Temperatura media	19.5
106934	7	Sololá	701	Sololá	4	Finca Santa Victoria	5	Mayo	2023-05-14T00:00:00	2024-11-08T16:00:00	4	Temperatura máxima	19.7
106935	7	Sololá	701	Sololá	4	Finca Santa Victoria	5	Mayo	2023-05-14T00:00:00	2024-11-08T16:00:00	3	Temperatura mínima	18.9
106936	7	Sololá	701	Sololá	4	Finca Santa Victoria	5	Mayo	2023-05-14T00:00:00	2024-11-08T16:00:00	5	Humedad	74
106937	7	Sololá	701	Sololá	4	Finca Santa Victoria	5	Mayo	2023-05-14T00:00:00	2024-11-08T16:00:00	6	Velocidad del viento	4.8
106938	7	Sololá	701	Sololá	4	Finca Santa Victoria	5	Mayo	2023-05-14T00:00:00	2024-11-08T16:00:00	7	Dirección del viento	4.83
106939	7	Sololá	701	Sololá	4	Finca Santa Victoria	5	Mayo	2023-05-14T00:00:00	2024-11-08T16:00:00	1	Precipitación	0
106940	7	Sololá	701	Sololá	4	Finca Santa Victoria	5	Mayo	2023-05-14T00:00:00	2024-11-08T16:00:00	8	Radiación solar	306
106941	7	Sololá	701	Sololá	4	Finca Santa Victoria	5	Mayo	2023-05-14T00:00:00	2024-11-08T17:00:00	2	Temperatura media	18.9
106942	7	Sololá	701	Sololá	4	Finca Santa Victoria	5	Mayo	2023-05-14T00:00:00	2024-11-08T17:00:00	4	Temperatura máxima	19.8
106943	7	Sololá	701	Sololá	4	Finca Santa Victoria	5	Mayo	2023-05-14T00:00:00	2024-11-08T17:00:00	3	Temperatura mínima	18.6
106944	7	Sololá	701	Sololá	4	Finca Santa Victoria	5	Mayo	2023-05-14T00:00:00	2024-11-08T17:00:00	5	Humedad	68
106945	7	Sololá	701	Sololá	4	Finca Santa Victoria	5	Mayo	2023-05-14T00:00:00	2024-11-08T17:00:00	6	Velocidad del viento	3.2
106946	7	Sololá	701	Sololá	4	Finca Santa Victoria	5	Mayo	2023-05-14T00:00:00	2024-11-08T17:00:00	7	Dirección del viento	3.22
106947	7	Sololá	701	Sololá	4	Finca Santa Victoria	5	Mayo	2023-05-14T00:00:00	2024-11-08T17:00:00	1	Precipitación	0
106948	7	Sololá	701	Sololá	4	Finca Santa Victoria	5	Mayo	2023-05-14T00:00:00	2024-11-08T17:00:00	8	Radiación solar	126
106949	7	Sololá	701	Sololá	4	Finca Santa Victoria	5	Mayo	2023-05-14T00:00:00	2024-11-08T18:00:00	2	Temperatura media	17.4
106950	7	Sololá	701	Sololá	4	Finca Santa Victoria	5	Mayo	2023-05-14T00:00:00	2024-11-08T18:00:00	4	Temperatura máxima	18.9
106951	7	Sololá	701	Sololá	4	Finca Santa Victoria	5	Mayo	2023-05-14T00:00:00	2024-11-08T18:00:00	3	Temperatura mínima	17.4
106952	7	Sololá	701	Sololá	4	Finca Santa Victoria	5	Mayo	2023-05-14T00:00:00	2024-11-08T18:00:00	5	Humedad	81
106953	7	Sololá	701	Sololá	4	Finca Santa Victoria	5	Mayo	2023-05-14T00:00:00	2024-11-08T18:00:00	6	Velocidad del viento	1.6
106954	7	Sololá	701	Sololá	4	Finca Santa Victoria	5	Mayo	2023-05-14T00:00:00	2024-11-08T18:00:00	7	Dirección del viento	1.61
106955	7	Sololá	701	Sololá	4	Finca Santa Victoria	5	Mayo	2023-05-14T00:00:00	2024-11-08T18:00:00	1	Precipitación	0
106956	7	Sololá	701	Sololá	4	Finca Santa Victoria	5	Mayo	2023-05-14T00:00:00	2024-11-08T18:00:00	8	Radiación solar	26
106957	7	Sololá	701	Sololá	4	Finca Santa Victoria	5	Mayo	2023-05-14T00:00:00	2024-11-08T19:00:00	2	Temperatura media	16.3
106958	7	Sololá	701	Sololá	4	Finca Santa Victoria	5	Mayo	2023-05-14T00:00:00	2024-11-08T19:00:00	4	Temperatura máxima	17.4
106959	7	Sololá	701	Sololá	4	Finca Santa Victoria	5	Mayo	2023-05-14T00:00:00	2024-11-08T19:00:00	3	Temperatura mínima	16.3
106960	7	Sololá	701	Sololá	4	Finca Santa Victoria	5	Mayo	2023-05-14T00:00:00	2024-11-08T19:00:00	5	Humedad	88
106961	7	Sololá	701	Sololá	4	Finca Santa Victoria	5	Mayo	2023-05-14T00:00:00	2024-11-08T19:00:00	6	Velocidad del viento	1.6
106962	7	Sololá	701	Sololá	4	Finca Santa Victoria	5	Mayo	2023-05-14T00:00:00	2024-11-08T19:00:00	7	Dirección del viento	1.61
106963	7	Sololá	701	Sololá	4	Finca Santa Victoria	5	Mayo	2023-05-14T00:00:00	2024-11-08T19:00:00	1	Precipitación	0
106964	7	Sololá	701	Sololá	4	Finca Santa Victoria	5	Mayo	2023-05-14T00:00:00	2024-11-08T19:00:00	8	Radiación solar	0
106965	7	Sololá	701	Sololá	4	Finca Santa Victoria	5	Mayo	2023-05-14T00:00:00	2024-11-08T20:00:00	2	Temperatura media	15.8
106966	7	Sololá	701	Sololá	4	Finca Santa Victoria	5	Mayo	2023-05-14T00:00:00	2024-11-08T20:00:00	4	Temperatura máxima	16.3
106967	7	Sololá	701	Sololá	4	Finca Santa Victoria	5	Mayo	2023-05-14T00:00:00	2024-11-08T20:00:00	3	Temperatura mínima	15.8
106968	7	Sololá	701	Sololá	4	Finca Santa Victoria	5	Mayo	2023-05-14T00:00:00	2024-11-08T20:00:00	5	Humedad	95
106969	7	Sololá	701	Sololá	4	Finca Santa Victoria	5	Mayo	2023-05-14T00:00:00	2024-11-08T20:00:00	6	Velocidad del viento	1.6
106970	7	Sololá	701	Sololá	4	Finca Santa Victoria	5	Mayo	2023-05-14T00:00:00	2024-11-08T20:00:00	7	Dirección del viento	1.61
106971	7	Sololá	701	Sololá	4	Finca Santa Victoria	5	Mayo	2023-05-14T00:00:00	2024-11-08T20:00:00	1	Precipitación	0
106972	7	Sololá	701	Sololá	4	Finca Santa Victoria	5	Mayo	2023-05-14T00:00:00	2024-11-08T20:00:00	8	Radiación solar	0
106973	7	Sololá	701	Sololá	4	Finca Santa Victoria	5	Mayo	2023-05-14T00:00:00	2024-11-08T21:00:00	2	Temperatura media	15.1
106974	7	Sololá	701	Sololá	4	Finca Santa Victoria	5	Mayo	2023-05-14T00:00:00	2024-11-08T21:00:00	4	Temperatura máxima	15.8
106975	7	Sololá	701	Sololá	4	Finca Santa Victoria	5	Mayo	2023-05-14T00:00:00	2024-11-08T21:00:00	3	Temperatura mínima	15.1
106976	7	Sololá	701	Sololá	4	Finca Santa Victoria	5	Mayo	2023-05-14T00:00:00	2024-11-08T21:00:00	5	Humedad	95
106977	7	Sololá	701	Sololá	4	Finca Santa Victoria	5	Mayo	2023-05-14T00:00:00	2024-11-08T21:00:00	6	Velocidad del viento	0
106978	7	Sololá	701	Sololá	4	Finca Santa Victoria	5	Mayo	2023-05-14T00:00:00	2024-11-08T21:00:00	7	Dirección del viento	0
106979	7	Sololá	701	Sololá	4	Finca Santa Victoria	5	Mayo	2023-05-14T00:00:00	2024-11-08T21:00:00	1	Precipitación	0
106980	7	Sololá	701	Sololá	4	Finca Santa Victoria	5	Mayo	2023-05-14T00:00:00	2024-11-08T21:00:00	8	Radiación solar	0
106981	7	Sololá	701	Sololá	4	Finca Santa Victoria	5	Mayo	2023-05-14T00:00:00	2024-11-08T22:00:00	2	Temperatura media	14.8
106982	7	Sololá	701	Sololá	4	Finca Santa Victoria	5	Mayo	2023-05-14T00:00:00	2024-11-08T22:00:00	4	Temperatura máxima	15.1
106983	7	Sololá	701	Sololá	4	Finca Santa Victoria	5	Mayo	2023-05-14T00:00:00	2024-11-08T22:00:00	3	Temperatura mínima	14.5
106984	7	Sololá	701	Sololá	4	Finca Santa Victoria	5	Mayo	2023-05-14T00:00:00	2024-11-08T22:00:00	5	Humedad	89
106985	7	Sololá	701	Sololá	4	Finca Santa Victoria	5	Mayo	2023-05-14T00:00:00	2024-11-08T22:00:00	6	Velocidad del viento	1.6
106986	7	Sololá	701	Sololá	4	Finca Santa Victoria	5	Mayo	2023-05-14T00:00:00	2024-11-08T22:00:00	7	Dirección del viento	1.61
106987	7	Sololá	701	Sololá	4	Finca Santa Victoria	5	Mayo	2023-05-14T00:00:00	2024-11-08T22:00:00	1	Precipitación	0
106988	7	Sololá	701	Sololá	4	Finca Santa Victoria	5	Mayo	2023-05-14T00:00:00	2024-11-08T22:00:00	8	Radiación solar	0
106989	7	Sololá	701	Sololá	4	Finca Santa Victoria	5	Mayo	2023-05-14T00:00:00	2024-11-08T23:00:00	2	Temperatura media	13.9
106990	7	Sololá	701	Sololá	4	Finca Santa Victoria	5	Mayo	2023-05-14T00:00:00	2024-11-08T23:00:00	4	Temperatura máxima	14.8
106991	7	Sololá	701	Sololá	4	Finca Santa Victoria	5	Mayo	2023-05-14T00:00:00	2024-11-08T23:00:00	3	Temperatura mínima	13.9
106992	7	Sololá	701	Sololá	4	Finca Santa Victoria	5	Mayo	2023-05-14T00:00:00	2024-11-08T23:00:00	5	Humedad	93
106993	7	Sololá	701	Sololá	4	Finca Santa Victoria	5	Mayo	2023-05-14T00:00:00	2024-11-08T23:00:00	6	Velocidad del viento	1.6
106994	7	Sololá	701	Sololá	4	Finca Santa Victoria	5	Mayo	2023-05-14T00:00:00	2024-11-08T23:00:00	7	Dirección del viento	1.61
106995	7	Sololá	701	Sololá	4	Finca Santa Victoria	5	Mayo	2023-05-14T00:00:00	2024-11-08T23:00:00	1	Precipitación	0
106996	7	Sololá	701	Sololá	4	Finca Santa Victoria	5	Mayo	2023-05-14T00:00:00	2024-11-08T23:00:00	8	Radiación solar	0
106997	7	Sololá	701	Sololá	4	Finca Santa Victoria	5	Mayo	2023-05-15T00:00:00	2024-11-08T00:00:00	2	Temperatura media	13.4
106998	7	Sololá	701	Sololá	4	Finca Santa Victoria	5	Mayo	2023-05-15T00:00:00	2024-11-08T00:00:00	4	Temperatura máxima	13.9
106999	7	Sololá	701	Sololá	4	Finca Santa Victoria	5	Mayo	2023-05-15T00:00:00	2024-11-08T00:00:00	3	Temperatura mínima	13.3
107000	7	Sololá	701	Sololá	4	Finca Santa Victoria	5	Mayo	2023-05-15T00:00:00	2024-11-08T00:00:00	5	Humedad	95
107001	7	Sololá	701	Sololá	4	Finca Santa Victoria	5	Mayo	2023-05-15T00:00:00	2024-11-08T00:00:00	6	Velocidad del viento	1.6
107002	7	Sololá	701	Sololá	4	Finca Santa Victoria	5	Mayo	2023-05-15T00:00:00	2024-11-08T00:00:00	7	Dirección del viento	1.61
107003	7	Sololá	701	Sololá	4	Finca Santa Victoria	5	Mayo	2023-05-15T00:00:00	2024-11-08T00:00:00	1	Precipitación	0
107004	7	Sololá	701	Sololá	4	Finca Santa Victoria	5	Mayo	2023-05-15T00:00:00	2024-11-08T00:00:00	8	Radiación solar	0
107005	7	Sololá	701	Sololá	4	Finca Santa Victoria	5	Mayo	2023-05-15T00:00:00	2024-11-08T01:00:00	2	Temperatura media	13.9
107006	7	Sololá	701	Sololá	4	Finca Santa Victoria	5	Mayo	2023-05-15T00:00:00	2024-11-08T01:00:00	4	Temperatura máxima	13.9
107007	7	Sololá	701	Sololá	4	Finca Santa Victoria	5	Mayo	2023-05-15T00:00:00	2024-11-08T01:00:00	3	Temperatura mínima	13.3
107008	7	Sololá	701	Sololá	4	Finca Santa Victoria	5	Mayo	2023-05-15T00:00:00	2024-11-08T01:00:00	5	Humedad	89
107009	7	Sololá	701	Sololá	4	Finca Santa Victoria	5	Mayo	2023-05-15T00:00:00	2024-11-08T01:00:00	6	Velocidad del viento	1.6
107010	7	Sololá	701	Sololá	4	Finca Santa Victoria	5	Mayo	2023-05-15T00:00:00	2024-11-08T01:00:00	7	Dirección del viento	1.61
107011	7	Sololá	701	Sololá	4	Finca Santa Victoria	5	Mayo	2023-05-15T00:00:00	2024-11-08T01:00:00	1	Precipitación	0
107012	7	Sololá	701	Sololá	4	Finca Santa Victoria	5	Mayo	2023-05-15T00:00:00	2024-11-08T01:00:00	8	Radiación solar	0
107013	7	Sololá	701	Sololá	4	Finca Santa Victoria	5	Mayo	2023-05-15T00:00:00	2024-11-08T02:00:00	2	Temperatura media	13.4
107014	7	Sololá	701	Sololá	4	Finca Santa Victoria	5	Mayo	2023-05-15T00:00:00	2024-11-08T02:00:00	4	Temperatura máxima	13.9
107015	7	Sololá	701	Sololá	4	Finca Santa Victoria	5	Mayo	2023-05-15T00:00:00	2024-11-08T02:00:00	3	Temperatura mínima	13.4
107016	7	Sololá	701	Sololá	4	Finca Santa Victoria	5	Mayo	2023-05-15T00:00:00	2024-11-08T02:00:00	5	Humedad	90
107017	7	Sololá	701	Sololá	4	Finca Santa Victoria	5	Mayo	2023-05-15T00:00:00	2024-11-08T02:00:00	6	Velocidad del viento	1.6
107018	7	Sololá	701	Sololá	4	Finca Santa Victoria	5	Mayo	2023-05-15T00:00:00	2024-11-08T02:00:00	7	Dirección del viento	1.61
107019	7	Sololá	701	Sololá	4	Finca Santa Victoria	5	Mayo	2023-05-15T00:00:00	2024-11-08T02:00:00	1	Precipitación	0
107020	7	Sololá	701	Sololá	4	Finca Santa Victoria	5	Mayo	2023-05-15T00:00:00	2024-11-08T02:00:00	8	Radiación solar	0
107021	7	Sololá	701	Sololá	4	Finca Santa Victoria	5	Mayo	2023-05-15T00:00:00	2024-11-08T03:00:00	2	Temperatura media	12.7
107022	7	Sololá	701	Sololá	4	Finca Santa Victoria	5	Mayo	2023-05-15T00:00:00	2024-11-08T03:00:00	4	Temperatura máxima	13.4
107023	7	Sololá	701	Sololá	4	Finca Santa Victoria	5	Mayo	2023-05-15T00:00:00	2024-11-08T03:00:00	3	Temperatura mínima	12.7
107024	7	Sololá	701	Sololá	4	Finca Santa Victoria	5	Mayo	2023-05-15T00:00:00	2024-11-08T03:00:00	5	Humedad	95
107025	7	Sololá	701	Sololá	4	Finca Santa Victoria	5	Mayo	2023-05-15T00:00:00	2024-11-08T03:00:00	6	Velocidad del viento	1.6
107026	7	Sololá	701	Sololá	4	Finca Santa Victoria	5	Mayo	2023-05-15T00:00:00	2024-11-08T03:00:00	7	Dirección del viento	1.61
107027	7	Sololá	701	Sololá	4	Finca Santa Victoria	5	Mayo	2023-05-15T00:00:00	2024-11-08T03:00:00	1	Precipitación	0
107028	7	Sololá	701	Sololá	4	Finca Santa Victoria	5	Mayo	2023-05-15T00:00:00	2024-11-08T03:00:00	8	Radiación solar	0
107029	7	Sololá	701	Sololá	4	Finca Santa Victoria	5	Mayo	2023-05-15T00:00:00	2024-11-08T04:00:00	2	Temperatura media	12.3
107030	7	Sololá	701	Sololá	4	Finca Santa Victoria	5	Mayo	2023-05-15T00:00:00	2024-11-08T04:00:00	4	Temperatura máxima	12.7
107031	7	Sololá	701	Sololá	4	Finca Santa Victoria	5	Mayo	2023-05-15T00:00:00	2024-11-08T04:00:00	3	Temperatura mínima	12.3
107032	7	Sololá	701	Sololá	4	Finca Santa Victoria	5	Mayo	2023-05-15T00:00:00	2024-11-08T04:00:00	5	Humedad	97
107033	7	Sololá	701	Sololá	4	Finca Santa Victoria	5	Mayo	2023-05-15T00:00:00	2024-11-08T04:00:00	6	Velocidad del viento	1.6
107034	7	Sololá	701	Sololá	4	Finca Santa Victoria	5	Mayo	2023-05-15T00:00:00	2024-11-08T04:00:00	7	Dirección del viento	1.61
107035	7	Sololá	701	Sololá	4	Finca Santa Victoria	5	Mayo	2023-05-15T00:00:00	2024-11-08T04:00:00	1	Precipitación	0
107036	7	Sololá	701	Sololá	4	Finca Santa Victoria	5	Mayo	2023-05-15T00:00:00	2024-11-08T04:00:00	8	Radiación solar	0
107037	7	Sololá	701	Sololá	4	Finca Santa Victoria	5	Mayo	2023-05-15T00:00:00	2024-11-08T05:00:00	2	Temperatura media	12.1
107038	7	Sololá	701	Sololá	4	Finca Santa Victoria	5	Mayo	2023-05-15T00:00:00	2024-11-08T05:00:00	4	Temperatura máxima	12.4
107039	7	Sololá	701	Sololá	4	Finca Santa Victoria	5	Mayo	2023-05-15T00:00:00	2024-11-08T05:00:00	3	Temperatura mínima	12.1
107040	7	Sololá	701	Sololá	4	Finca Santa Victoria	5	Mayo	2023-05-15T00:00:00	2024-11-08T05:00:00	5	Humedad	97
107041	7	Sololá	701	Sololá	4	Finca Santa Victoria	5	Mayo	2023-05-15T00:00:00	2024-11-08T05:00:00	6	Velocidad del viento	1.6
107042	7	Sololá	701	Sololá	4	Finca Santa Victoria	5	Mayo	2023-05-15T00:00:00	2024-11-08T05:00:00	7	Dirección del viento	1.61
107043	7	Sololá	701	Sololá	4	Finca Santa Victoria	5	Mayo	2023-05-15T00:00:00	2024-11-08T05:00:00	1	Precipitación	0
107044	7	Sololá	701	Sololá	4	Finca Santa Victoria	5	Mayo	2023-05-15T00:00:00	2024-11-08T05:00:00	8	Radiación solar	0
107045	7	Sololá	701	Sololá	4	Finca Santa Victoria	5	Mayo	2023-05-15T00:00:00	2024-11-08T06:00:00	2	Temperatura media	12.2
107046	7	Sololá	701	Sololá	4	Finca Santa Victoria	5	Mayo	2023-05-15T00:00:00	2024-11-08T06:00:00	4	Temperatura máxima	12.3
107047	7	Sololá	701	Sololá	4	Finca Santa Victoria	5	Mayo	2023-05-15T00:00:00	2024-11-08T06:00:00	3	Temperatura mínima	12
107048	7	Sololá	701	Sololá	4	Finca Santa Victoria	5	Mayo	2023-05-15T00:00:00	2024-11-08T06:00:00	5	Humedad	97
107049	7	Sololá	701	Sololá	4	Finca Santa Victoria	5	Mayo	2023-05-15T00:00:00	2024-11-08T06:00:00	6	Velocidad del viento	1.6
107050	7	Sololá	701	Sololá	4	Finca Santa Victoria	5	Mayo	2023-05-15T00:00:00	2024-11-08T06:00:00	7	Dirección del viento	1.61
107051	7	Sololá	701	Sololá	4	Finca Santa Victoria	5	Mayo	2023-05-15T00:00:00	2024-11-08T06:00:00	1	Precipitación	0
107052	7	Sololá	701	Sololá	4	Finca Santa Victoria	5	Mayo	2023-05-15T00:00:00	2024-11-08T06:00:00	8	Radiación solar	3
107053	7	Sololá	701	Sololá	4	Finca Santa Victoria	5	Mayo	2023-05-15T00:00:00	2024-11-08T07:00:00	2	Temperatura media	12.7
107054	7	Sololá	701	Sololá	4	Finca Santa Victoria	5	Mayo	2023-05-15T00:00:00	2024-11-08T07:00:00	4	Temperatura máxima	12.7
107055	7	Sololá	701	Sololá	4	Finca Santa Victoria	5	Mayo	2023-05-15T00:00:00	2024-11-08T07:00:00	3	Temperatura mínima	12.1
107056	7	Sololá	701	Sololá	4	Finca Santa Victoria	5	Mayo	2023-05-15T00:00:00	2024-11-08T07:00:00	5	Humedad	98
107057	7	Sololá	701	Sololá	4	Finca Santa Victoria	5	Mayo	2023-05-15T00:00:00	2024-11-08T07:00:00	6	Velocidad del viento	1.6
107058	7	Sololá	701	Sololá	4	Finca Santa Victoria	5	Mayo	2023-05-15T00:00:00	2024-11-08T07:00:00	7	Dirección del viento	1.61
107059	7	Sololá	701	Sololá	4	Finca Santa Victoria	5	Mayo	2023-05-15T00:00:00	2024-11-08T07:00:00	1	Precipitación	0
107060	7	Sololá	701	Sololá	4	Finca Santa Victoria	5	Mayo	2023-05-15T00:00:00	2024-11-08T07:00:00	8	Radiación solar	56
107061	7	Sololá	701	Sololá	4	Finca Santa Victoria	5	Mayo	2023-05-15T00:00:00	2024-11-08T08:00:00	2	Temperatura media	15.7
107062	7	Sololá	701	Sololá	4	Finca Santa Victoria	5	Mayo	2023-05-15T00:00:00	2024-11-08T08:00:00	4	Temperatura máxima	15.7
107063	7	Sololá	701	Sololá	4	Finca Santa Victoria	5	Mayo	2023-05-15T00:00:00	2024-11-08T08:00:00	3	Temperatura mínima	12.6
107064	7	Sololá	701	Sololá	4	Finca Santa Victoria	5	Mayo	2023-05-15T00:00:00	2024-11-08T08:00:00	5	Humedad	86
107065	7	Sololá	701	Sololá	4	Finca Santa Victoria	5	Mayo	2023-05-15T00:00:00	2024-11-08T08:00:00	6	Velocidad del viento	1.6
107066	7	Sololá	701	Sololá	4	Finca Santa Victoria	5	Mayo	2023-05-15T00:00:00	2024-11-08T08:00:00	7	Dirección del viento	1.61
107067	7	Sololá	701	Sololá	4	Finca Santa Victoria	5	Mayo	2023-05-15T00:00:00	2024-11-08T08:00:00	1	Precipitación	0
107068	7	Sololá	701	Sololá	4	Finca Santa Victoria	5	Mayo	2023-05-15T00:00:00	2024-11-08T08:00:00	8	Radiación solar	212
107069	7	Sololá	701	Sololá	4	Finca Santa Victoria	5	Mayo	2023-05-15T00:00:00	2024-11-08T09:00:00	2	Temperatura media	16.5
107070	7	Sololá	701	Sololá	4	Finca Santa Victoria	5	Mayo	2023-05-15T00:00:00	2024-11-08T09:00:00	4	Temperatura máxima	16.8
107071	7	Sololá	701	Sololá	4	Finca Santa Victoria	5	Mayo	2023-05-15T00:00:00	2024-11-08T09:00:00	3	Temperatura mínima	15.7
107072	7	Sololá	701	Sololá	4	Finca Santa Victoria	5	Mayo	2023-05-15T00:00:00	2024-11-08T09:00:00	5	Humedad	80
107073	7	Sololá	701	Sololá	4	Finca Santa Victoria	5	Mayo	2023-05-15T00:00:00	2024-11-08T09:00:00	6	Velocidad del viento	1.6
107074	7	Sololá	701	Sololá	4	Finca Santa Victoria	5	Mayo	2023-05-15T00:00:00	2024-11-08T09:00:00	7	Dirección del viento	1.61
107075	7	Sololá	701	Sololá	4	Finca Santa Victoria	5	Mayo	2023-05-15T00:00:00	2024-11-08T09:00:00	1	Precipitación	0
107076	7	Sololá	701	Sololá	4	Finca Santa Victoria	5	Mayo	2023-05-15T00:00:00	2024-11-08T09:00:00	8	Radiación solar	217
107077	7	Sololá	701	Sololá	4	Finca Santa Victoria	5	Mayo	2023-05-15T00:00:00	2024-11-08T10:00:00	2	Temperatura media	16.6
107078	7	Sololá	701	Sololá	4	Finca Santa Victoria	5	Mayo	2023-05-15T00:00:00	2024-11-08T10:00:00	4	Temperatura máxima	16.7
107079	7	Sololá	701	Sololá	4	Finca Santa Victoria	5	Mayo	2023-05-15T00:00:00	2024-11-08T10:00:00	3	Temperatura mínima	16.2
107080	7	Sololá	701	Sololá	4	Finca Santa Victoria	5	Mayo	2023-05-15T00:00:00	2024-11-08T10:00:00	5	Humedad	82
107081	7	Sololá	701	Sololá	4	Finca Santa Victoria	5	Mayo	2023-05-15T00:00:00	2024-11-08T10:00:00	6	Velocidad del viento	3.2
107082	7	Sololá	701	Sololá	4	Finca Santa Victoria	5	Mayo	2023-05-15T00:00:00	2024-11-08T10:00:00	7	Dirección del viento	3.22
107083	7	Sololá	701	Sololá	4	Finca Santa Victoria	5	Mayo	2023-05-15T00:00:00	2024-11-08T10:00:00	1	Precipitación	0
107084	7	Sololá	701	Sololá	4	Finca Santa Victoria	5	Mayo	2023-05-15T00:00:00	2024-11-08T10:00:00	8	Radiación solar	173
107085	7	Sololá	701	Sololá	4	Finca Santa Victoria	5	Mayo	2023-05-15T00:00:00	2024-11-08T11:00:00	2	Temperatura media	18.6
107086	7	Sololá	701	Sololá	4	Finca Santa Victoria	5	Mayo	2023-05-15T00:00:00	2024-11-08T11:00:00	4	Temperatura máxima	18.6
107087	7	Sololá	701	Sololá	4	Finca Santa Victoria	5	Mayo	2023-05-15T00:00:00	2024-11-08T11:00:00	3	Temperatura mínima	16.4
107088	7	Sololá	701	Sololá	4	Finca Santa Victoria	5	Mayo	2023-05-15T00:00:00	2024-11-08T11:00:00	5	Humedad	75
107089	7	Sololá	701	Sololá	4	Finca Santa Victoria	5	Mayo	2023-05-15T00:00:00	2024-11-08T11:00:00	6	Velocidad del viento	3.2
107090	7	Sololá	701	Sololá	4	Finca Santa Victoria	5	Mayo	2023-05-15T00:00:00	2024-11-08T11:00:00	7	Dirección del viento	3.22
107091	7	Sololá	701	Sololá	4	Finca Santa Victoria	5	Mayo	2023-05-15T00:00:00	2024-11-08T11:00:00	1	Precipitación	0
107092	7	Sololá	701	Sololá	4	Finca Santa Victoria	5	Mayo	2023-05-15T00:00:00	2024-11-08T11:00:00	8	Radiación solar	446
107093	7	Sololá	701	Sololá	4	Finca Santa Victoria	5	Mayo	2023-05-15T00:00:00	2024-11-08T12:00:00	2	Temperatura media	18.4
107094	7	Sololá	701	Sololá	4	Finca Santa Victoria	5	Mayo	2023-05-15T00:00:00	2024-11-08T12:00:00	4	Temperatura máxima	18.9
107095	7	Sololá	701	Sololá	4	Finca Santa Victoria	5	Mayo	2023-05-15T00:00:00	2024-11-08T12:00:00	3	Temperatura mínima	18.2
107096	7	Sololá	701	Sololá	4	Finca Santa Victoria	5	Mayo	2023-05-15T00:00:00	2024-11-08T12:00:00	5	Humedad	76
107097	7	Sololá	701	Sololá	4	Finca Santa Victoria	5	Mayo	2023-05-15T00:00:00	2024-11-08T12:00:00	6	Velocidad del viento	4.8
107098	7	Sololá	701	Sololá	4	Finca Santa Victoria	5	Mayo	2023-05-15T00:00:00	2024-11-08T12:00:00	7	Dirección del viento	4.83
107099	7	Sololá	701	Sololá	4	Finca Santa Victoria	5	Mayo	2023-05-15T00:00:00	2024-11-08T12:00:00	1	Precipitación	0
107100	7	Sololá	701	Sololá	4	Finca Santa Victoria	5	Mayo	2023-05-15T00:00:00	2024-11-08T12:00:00	8	Radiación solar	643
107101	7	Sololá	701	Sololá	4	Finca Santa Victoria	5	Mayo	2023-05-15T00:00:00	2024-11-08T13:00:00	2	Temperatura media	18.4
107102	7	Sololá	701	Sololá	4	Finca Santa Victoria	5	Mayo	2023-05-15T00:00:00	2024-11-08T13:00:00	4	Temperatura máxima	19.2
107103	7	Sololá	701	Sololá	4	Finca Santa Victoria	5	Mayo	2023-05-15T00:00:00	2024-11-08T13:00:00	3	Temperatura mínima	18.4
107104	7	Sololá	701	Sololá	4	Finca Santa Victoria	5	Mayo	2023-05-15T00:00:00	2024-11-08T13:00:00	5	Humedad	82
107105	7	Sololá	701	Sololá	4	Finca Santa Victoria	5	Mayo	2023-05-15T00:00:00	2024-11-08T13:00:00	6	Velocidad del viento	4.8
107106	7	Sololá	701	Sololá	4	Finca Santa Victoria	5	Mayo	2023-05-15T00:00:00	2024-11-08T13:00:00	7	Dirección del viento	4.83
107107	7	Sololá	701	Sololá	4	Finca Santa Victoria	5	Mayo	2023-05-15T00:00:00	2024-11-08T13:00:00	1	Precipitación	0
107108	7	Sololá	701	Sololá	4	Finca Santa Victoria	5	Mayo	2023-05-15T00:00:00	2024-11-08T13:00:00	8	Radiación solar	642
107109	7	Sololá	701	Sololá	4	Finca Santa Victoria	5	Mayo	2023-05-15T00:00:00	2024-11-08T14:00:00	2	Temperatura media	19.1
107110	7	Sololá	701	Sololá	4	Finca Santa Victoria	5	Mayo	2023-05-15T00:00:00	2024-11-08T14:00:00	4	Temperatura máxima	19.1
107111	7	Sololá	701	Sololá	4	Finca Santa Victoria	5	Mayo	2023-05-15T00:00:00	2024-11-08T14:00:00	3	Temperatura mínima	17.9
107112	7	Sololá	701	Sololá	4	Finca Santa Victoria	5	Mayo	2023-05-15T00:00:00	2024-11-08T14:00:00	5	Humedad	75
107113	7	Sololá	701	Sololá	4	Finca Santa Victoria	5	Mayo	2023-05-15T00:00:00	2024-11-08T14:00:00	6	Velocidad del viento	4.8
107114	7	Sololá	701	Sololá	4	Finca Santa Victoria	5	Mayo	2023-05-15T00:00:00	2024-11-08T14:00:00	7	Dirección del viento	4.83
107115	7	Sololá	701	Sololá	4	Finca Santa Victoria	5	Mayo	2023-05-15T00:00:00	2024-11-08T14:00:00	1	Precipitación	0
107116	7	Sololá	701	Sololá	4	Finca Santa Victoria	5	Mayo	2023-05-15T00:00:00	2024-11-08T14:00:00	8	Radiación solar	364
107117	7	Sololá	701	Sololá	4	Finca Santa Victoria	5	Mayo	2023-05-15T00:00:00	2024-11-08T15:00:00	2	Temperatura media	16.9
107118	7	Sololá	701	Sololá	4	Finca Santa Victoria	5	Mayo	2023-05-15T00:00:00	2024-11-08T15:00:00	4	Temperatura máxima	19.2
107119	7	Sololá	701	Sololá	4	Finca Santa Victoria	5	Mayo	2023-05-15T00:00:00	2024-11-08T15:00:00	3	Temperatura mínima	16.9
107120	7	Sololá	701	Sololá	4	Finca Santa Victoria	5	Mayo	2023-05-15T00:00:00	2024-11-08T15:00:00	5	Humedad	89
107121	7	Sololá	701	Sololá	4	Finca Santa Victoria	5	Mayo	2023-05-15T00:00:00	2024-11-08T15:00:00	6	Velocidad del viento	4.8
107122	7	Sololá	701	Sololá	4	Finca Santa Victoria	5	Mayo	2023-05-15T00:00:00	2024-11-08T15:00:00	7	Dirección del viento	4.83
107123	7	Sololá	701	Sololá	4	Finca Santa Victoria	5	Mayo	2023-05-15T00:00:00	2024-11-08T15:00:00	1	Precipitación	0
107124	7	Sololá	701	Sololá	4	Finca Santa Victoria	5	Mayo	2023-05-15T00:00:00	2024-11-08T15:00:00	8	Radiación solar	169
107125	7	Sololá	701	Sololá	4	Finca Santa Victoria	5	Mayo	2023-05-15T00:00:00	2024-11-08T16:00:00	2	Temperatura media	17.2
107126	7	Sololá	701	Sololá	4	Finca Santa Victoria	5	Mayo	2023-05-15T00:00:00	2024-11-08T16:00:00	4	Temperatura máxima	17.6
107127	7	Sololá	701	Sololá	4	Finca Santa Victoria	5	Mayo	2023-05-15T00:00:00	2024-11-08T16:00:00	3	Temperatura mínima	16.8
107128	7	Sololá	701	Sololá	4	Finca Santa Victoria	5	Mayo	2023-05-15T00:00:00	2024-11-08T16:00:00	5	Humedad	88
107129	7	Sololá	701	Sololá	4	Finca Santa Victoria	5	Mayo	2023-05-15T00:00:00	2024-11-08T16:00:00	6	Velocidad del viento	3.2
107130	7	Sololá	701	Sololá	4	Finca Santa Victoria	5	Mayo	2023-05-15T00:00:00	2024-11-08T16:00:00	7	Dirección del viento	3.22
107131	7	Sololá	701	Sololá	4	Finca Santa Victoria	5	Mayo	2023-05-15T00:00:00	2024-11-08T16:00:00	1	Precipitación	0
107132	7	Sololá	701	Sololá	4	Finca Santa Victoria	5	Mayo	2023-05-15T00:00:00	2024-11-08T16:00:00	8	Radiación solar	162
107133	7	Sololá	701	Sololá	4	Finca Santa Victoria	5	Mayo	2023-05-15T00:00:00	2024-11-08T17:00:00	2	Temperatura media	15.8
107134	7	Sololá	701	Sololá	4	Finca Santa Victoria	5	Mayo	2023-05-15T00:00:00	2024-11-08T17:00:00	4	Temperatura máxima	17.2
107135	7	Sololá	701	Sololá	4	Finca Santa Victoria	5	Mayo	2023-05-15T00:00:00	2024-11-08T17:00:00	3	Temperatura mínima	15.8
107136	7	Sololá	701	Sololá	4	Finca Santa Victoria	5	Mayo	2023-05-15T00:00:00	2024-11-08T17:00:00	5	Humedad	96
107137	7	Sololá	701	Sololá	4	Finca Santa Victoria	5	Mayo	2023-05-15T00:00:00	2024-11-08T17:00:00	6	Velocidad del viento	1.6
107138	7	Sololá	701	Sololá	4	Finca Santa Victoria	5	Mayo	2023-05-15T00:00:00	2024-11-08T17:00:00	7	Dirección del viento	1.61
107139	7	Sololá	701	Sololá	4	Finca Santa Victoria	5	Mayo	2023-05-15T00:00:00	2024-11-08T17:00:00	1	Precipitación	0.4
107140	7	Sololá	701	Sololá	4	Finca Santa Victoria	5	Mayo	2023-05-15T00:00:00	2024-11-08T17:00:00	8	Radiación solar	22
107141	7	Sololá	701	Sololá	4	Finca Santa Victoria	5	Mayo	2023-05-15T00:00:00	2024-11-08T18:00:00	2	Temperatura media	12.4
107142	7	Sololá	701	Sololá	4	Finca Santa Victoria	5	Mayo	2023-05-15T00:00:00	2024-11-08T18:00:00	4	Temperatura máxima	15.8
107143	7	Sololá	701	Sololá	4	Finca Santa Victoria	5	Mayo	2023-05-15T00:00:00	2024-11-08T18:00:00	3	Temperatura mínima	12.4
107144	7	Sololá	701	Sololá	4	Finca Santa Victoria	5	Mayo	2023-05-15T00:00:00	2024-11-08T18:00:00	5	Humedad	94
107145	7	Sololá	701	Sololá	4	Finca Santa Victoria	5	Mayo	2023-05-15T00:00:00	2024-11-08T18:00:00	6	Velocidad del viento	3.2
107146	7	Sololá	701	Sololá	4	Finca Santa Victoria	5	Mayo	2023-05-15T00:00:00	2024-11-08T18:00:00	7	Dirección del viento	3.22
107147	7	Sololá	701	Sololá	4	Finca Santa Victoria	5	Mayo	2023-05-15T00:00:00	2024-11-08T18:00:00	1	Precipitación	16.4
107148	7	Sololá	701	Sololá	4	Finca Santa Victoria	5	Mayo	2023-05-15T00:00:00	2024-11-08T18:00:00	8	Radiación solar	0
107149	7	Sololá	701	Sololá	4	Finca Santa Victoria	5	Mayo	2023-05-15T00:00:00	2024-11-08T19:00:00	2	Temperatura media	12.5
107150	7	Sololá	701	Sololá	4	Finca Santa Victoria	5	Mayo	2023-05-15T00:00:00	2024-11-08T19:00:00	4	Temperatura máxima	12.5
107151	7	Sololá	701	Sololá	4	Finca Santa Victoria	5	Mayo	2023-05-15T00:00:00	2024-11-08T19:00:00	3	Temperatura mínima	11.9
107152	7	Sololá	701	Sololá	4	Finca Santa Victoria	5	Mayo	2023-05-15T00:00:00	2024-11-08T19:00:00	5	Humedad	97
107153	7	Sololá	701	Sololá	4	Finca Santa Victoria	5	Mayo	2023-05-15T00:00:00	2024-11-08T19:00:00	6	Velocidad del viento	3.2
107154	7	Sololá	701	Sololá	4	Finca Santa Victoria	5	Mayo	2023-05-15T00:00:00	2024-11-08T19:00:00	7	Dirección del viento	3.22
107155	7	Sololá	701	Sololá	4	Finca Santa Victoria	5	Mayo	2023-05-15T00:00:00	2024-11-08T19:00:00	1	Precipitación	11.8
107156	7	Sololá	701	Sololá	4	Finca Santa Victoria	5	Mayo	2023-05-15T00:00:00	2024-11-08T19:00:00	8	Radiación solar	0
107157	7	Sololá	701	Sololá	4	Finca Santa Victoria	5	Mayo	2023-05-15T00:00:00	2024-11-08T20:00:00	2	Temperatura media	11.9
107158	7	Sololá	701	Sololá	4	Finca Santa Victoria	5	Mayo	2023-05-15T00:00:00	2024-11-08T20:00:00	4	Temperatura máxima	12.7
107159	7	Sololá	701	Sololá	4	Finca Santa Victoria	5	Mayo	2023-05-15T00:00:00	2024-11-08T20:00:00	3	Temperatura mínima	11.9
107160	7	Sololá	701	Sololá	4	Finca Santa Victoria	5	Mayo	2023-05-15T00:00:00	2024-11-08T20:00:00	5	Humedad	93
107161	7	Sololá	701	Sololá	4	Finca Santa Victoria	5	Mayo	2023-05-15T00:00:00	2024-11-08T20:00:00	6	Velocidad del viento	1.6
107162	7	Sololá	701	Sololá	4	Finca Santa Victoria	5	Mayo	2023-05-15T00:00:00	2024-11-08T20:00:00	7	Dirección del viento	1.61
107163	7	Sololá	701	Sololá	4	Finca Santa Victoria	5	Mayo	2023-05-15T00:00:00	2024-11-08T20:00:00	1	Precipitación	0
107164	7	Sololá	701	Sololá	4	Finca Santa Victoria	5	Mayo	2023-05-15T00:00:00	2024-11-08T20:00:00	8	Radiación solar	0
107165	7	Sololá	701	Sololá	4	Finca Santa Victoria	5	Mayo	2023-05-15T00:00:00	2024-11-08T21:00:00	2	Temperatura media	11.6
107166	7	Sololá	701	Sololá	4	Finca Santa Victoria	5	Mayo	2023-05-15T00:00:00	2024-11-08T21:00:00	4	Temperatura máxima	11.9
107167	7	Sololá	701	Sololá	4	Finca Santa Victoria	5	Mayo	2023-05-15T00:00:00	2024-11-08T21:00:00	3	Temperatura mínima	11.6
107168	7	Sololá	701	Sololá	4	Finca Santa Victoria	5	Mayo	2023-05-15T00:00:00	2024-11-08T21:00:00	5	Humedad	94
107169	7	Sololá	701	Sololá	4	Finca Santa Victoria	5	Mayo	2023-05-15T00:00:00	2024-11-08T21:00:00	6	Velocidad del viento	1.6
107170	7	Sololá	701	Sololá	4	Finca Santa Victoria	5	Mayo	2023-05-15T00:00:00	2024-11-08T21:00:00	7	Dirección del viento	1.61
107171	7	Sololá	701	Sololá	4	Finca Santa Victoria	5	Mayo	2023-05-15T00:00:00	2024-11-08T21:00:00	1	Precipitación	0
107172	7	Sololá	701	Sololá	4	Finca Santa Victoria	5	Mayo	2023-05-15T00:00:00	2024-11-08T21:00:00	8	Radiación solar	0
107173	7	Sololá	701	Sololá	4	Finca Santa Victoria	5	Mayo	2023-05-15T00:00:00	2024-11-08T22:00:00	2	Temperatura media	11.2
107174	7	Sololá	701	Sololá	4	Finca Santa Victoria	5	Mayo	2023-05-15T00:00:00	2024-11-08T22:00:00	4	Temperatura máxima	11.6
107175	7	Sololá	701	Sololá	4	Finca Santa Victoria	5	Mayo	2023-05-15T00:00:00	2024-11-08T22:00:00	3	Temperatura mínima	11.1
107176	7	Sololá	701	Sololá	4	Finca Santa Victoria	5	Mayo	2023-05-15T00:00:00	2024-11-08T22:00:00	5	Humedad	93
107177	7	Sololá	701	Sololá	4	Finca Santa Victoria	5	Mayo	2023-05-15T00:00:00	2024-11-08T22:00:00	6	Velocidad del viento	1.6
107178	7	Sololá	701	Sololá	4	Finca Santa Victoria	5	Mayo	2023-05-15T00:00:00	2024-11-08T22:00:00	7	Dirección del viento	1.61
107179	7	Sololá	701	Sololá	4	Finca Santa Victoria	5	Mayo	2023-05-15T00:00:00	2024-11-08T22:00:00	1	Precipitación	0
107180	7	Sololá	701	Sololá	4	Finca Santa Victoria	5	Mayo	2023-05-15T00:00:00	2024-11-08T22:00:00	8	Radiación solar	0
107181	7	Sololá	701	Sololá	4	Finca Santa Victoria	5	Mayo	2023-05-15T00:00:00	2024-11-08T23:00:00	2	Temperatura media	11.2
107182	7	Sololá	701	Sololá	4	Finca Santa Victoria	5	Mayo	2023-05-15T00:00:00	2024-11-08T23:00:00	4	Temperatura máxima	11.6
107183	7	Sololá	701	Sololá	4	Finca Santa Victoria	5	Mayo	2023-05-15T00:00:00	2024-11-08T23:00:00	3	Temperatura mínima	11
107184	7	Sololá	701	Sololá	4	Finca Santa Victoria	5	Mayo	2023-05-15T00:00:00	2024-11-08T23:00:00	5	Humedad	93
107185	7	Sololá	701	Sololá	4	Finca Santa Victoria	5	Mayo	2023-05-15T00:00:00	2024-11-08T23:00:00	6	Velocidad del viento	1.6
107186	7	Sololá	701	Sololá	4	Finca Santa Victoria	5	Mayo	2023-05-15T00:00:00	2024-11-08T23:00:00	7	Dirección del viento	1.61
107187	7	Sololá	701	Sololá	4	Finca Santa Victoria	5	Mayo	2023-05-15T00:00:00	2024-11-08T23:00:00	1	Precipitación	0
107188	7	Sololá	701	Sololá	4	Finca Santa Victoria	5	Mayo	2023-05-15T00:00:00	2024-11-08T23:00:00	8	Radiación solar	0
107189	7	Sololá	701	Sololá	4	Finca Santa Victoria	5	Mayo	2023-05-16T00:00:00	2024-11-08T00:00:00	2	Temperatura media	11.8
107190	7	Sololá	701	Sololá	4	Finca Santa Victoria	5	Mayo	2023-05-16T00:00:00	2024-11-08T00:00:00	4	Temperatura máxima	11.9
107191	7	Sololá	701	Sololá	4	Finca Santa Victoria	5	Mayo	2023-05-16T00:00:00	2024-11-08T00:00:00	3	Temperatura mínima	11.1
107192	7	Sololá	701	Sololá	4	Finca Santa Victoria	5	Mayo	2023-05-16T00:00:00	2024-11-08T00:00:00	5	Humedad	83
107193	7	Sololá	701	Sololá	4	Finca Santa Victoria	5	Mayo	2023-05-16T00:00:00	2024-11-08T00:00:00	6	Velocidad del viento	3.2
107194	7	Sololá	701	Sololá	4	Finca Santa Victoria	5	Mayo	2023-05-16T00:00:00	2024-11-08T00:00:00	7	Dirección del viento	3.22
107195	7	Sololá	701	Sololá	4	Finca Santa Victoria	5	Mayo	2023-05-16T00:00:00	2024-11-08T00:00:00	1	Precipitación	0
107196	7	Sololá	701	Sololá	4	Finca Santa Victoria	5	Mayo	2023-05-16T00:00:00	2024-11-08T00:00:00	8	Radiación solar	0
107197	7	Sololá	701	Sololá	4	Finca Santa Victoria	5	Mayo	2023-05-16T00:00:00	2024-11-08T01:00:00	2	Temperatura media	11.9
107198	7	Sololá	701	Sololá	4	Finca Santa Victoria	5	Mayo	2023-05-16T00:00:00	2024-11-08T01:00:00	4	Temperatura máxima	12.6
107199	7	Sololá	701	Sololá	4	Finca Santa Victoria	5	Mayo	2023-05-16T00:00:00	2024-11-08T01:00:00	3	Temperatura mínima	11.9
107200	7	Sololá	701	Sololá	4	Finca Santa Victoria	5	Mayo	2023-05-16T00:00:00	2024-11-08T01:00:00	5	Humedad	81
107201	7	Sololá	701	Sololá	4	Finca Santa Victoria	5	Mayo	2023-05-16T00:00:00	2024-11-08T01:00:00	6	Velocidad del viento	3.2
107202	7	Sololá	701	Sololá	4	Finca Santa Victoria	5	Mayo	2023-05-16T00:00:00	2024-11-08T01:00:00	7	Dirección del viento	3.22
107203	7	Sololá	701	Sololá	4	Finca Santa Victoria	5	Mayo	2023-05-16T00:00:00	2024-11-08T01:00:00	1	Precipitación	0
107204	7	Sololá	701	Sololá	4	Finca Santa Victoria	5	Mayo	2023-05-16T00:00:00	2024-11-08T01:00:00	8	Radiación solar	0
107205	7	Sololá	701	Sololá	4	Finca Santa Victoria	5	Mayo	2023-05-16T00:00:00	2024-11-08T02:00:00	2	Temperatura media	12.4
107206	7	Sololá	701	Sololá	4	Finca Santa Victoria	5	Mayo	2023-05-16T00:00:00	2024-11-08T02:00:00	4	Temperatura máxima	12.4
107207	7	Sololá	701	Sololá	4	Finca Santa Victoria	5	Mayo	2023-05-16T00:00:00	2024-11-08T02:00:00	3	Temperatura mínima	11.8
107208	7	Sololá	701	Sololá	4	Finca Santa Victoria	5	Mayo	2023-05-16T00:00:00	2024-11-08T02:00:00	5	Humedad	78
107209	7	Sololá	701	Sololá	4	Finca Santa Victoria	5	Mayo	2023-05-16T00:00:00	2024-11-08T02:00:00	6	Velocidad del viento	1.6
107210	7	Sololá	701	Sololá	4	Finca Santa Victoria	5	Mayo	2023-05-16T00:00:00	2024-11-08T02:00:00	7	Dirección del viento	1.61
107211	7	Sololá	701	Sololá	4	Finca Santa Victoria	5	Mayo	2023-05-16T00:00:00	2024-11-08T02:00:00	1	Precipitación	0
107212	7	Sololá	701	Sololá	4	Finca Santa Victoria	5	Mayo	2023-05-16T00:00:00	2024-11-08T02:00:00	8	Radiación solar	0
107213	7	Sololá	701	Sololá	4	Finca Santa Victoria	5	Mayo	2023-05-16T00:00:00	2024-11-08T03:00:00	2	Temperatura media	11.4
107214	7	Sololá	701	Sololá	4	Finca Santa Victoria	5	Mayo	2023-05-16T00:00:00	2024-11-08T03:00:00	4	Temperatura máxima	12.4
107215	7	Sololá	701	Sololá	4	Finca Santa Victoria	5	Mayo	2023-05-16T00:00:00	2024-11-08T03:00:00	3	Temperatura mínima	11.3
107216	7	Sololá	701	Sololá	4	Finca Santa Victoria	5	Mayo	2023-05-16T00:00:00	2024-11-08T03:00:00	5	Humedad	88
107217	7	Sololá	701	Sololá	4	Finca Santa Victoria	5	Mayo	2023-05-16T00:00:00	2024-11-08T03:00:00	6	Velocidad del viento	1.6
107218	7	Sololá	701	Sololá	4	Finca Santa Victoria	5	Mayo	2023-05-16T00:00:00	2024-11-08T03:00:00	7	Dirección del viento	1.61
107219	7	Sololá	701	Sololá	4	Finca Santa Victoria	5	Mayo	2023-05-16T00:00:00	2024-11-08T03:00:00	1	Precipitación	0
107220	7	Sololá	701	Sololá	4	Finca Santa Victoria	5	Mayo	2023-05-16T00:00:00	2024-11-08T03:00:00	8	Radiación solar	0
107221	7	Sololá	701	Sololá	4	Finca Santa Victoria	5	Mayo	2023-05-16T00:00:00	2024-11-08T04:00:00	2	Temperatura media	10.6
107222	7	Sololá	701	Sololá	4	Finca Santa Victoria	5	Mayo	2023-05-16T00:00:00	2024-11-08T04:00:00	4	Temperatura máxima	11.5
107223	7	Sololá	701	Sololá	4	Finca Santa Victoria	5	Mayo	2023-05-16T00:00:00	2024-11-08T04:00:00	3	Temperatura mínima	10.5
107224	7	Sololá	701	Sololá	4	Finca Santa Victoria	5	Mayo	2023-05-16T00:00:00	2024-11-08T04:00:00	5	Humedad	89
107225	7	Sololá	701	Sololá	4	Finca Santa Victoria	5	Mayo	2023-05-16T00:00:00	2024-11-08T04:00:00	6	Velocidad del viento	1.6
107226	7	Sololá	701	Sololá	4	Finca Santa Victoria	5	Mayo	2023-05-16T00:00:00	2024-11-08T04:00:00	7	Dirección del viento	1.61
107227	7	Sololá	701	Sololá	4	Finca Santa Victoria	5	Mayo	2023-05-16T00:00:00	2024-11-08T04:00:00	1	Precipitación	0
107228	7	Sololá	701	Sololá	4	Finca Santa Victoria	5	Mayo	2023-05-16T00:00:00	2024-11-08T04:00:00	8	Radiación solar	0
107229	7	Sololá	701	Sololá	4	Finca Santa Victoria	5	Mayo	2023-05-16T00:00:00	2024-11-08T05:00:00	2	Temperatura media	11.4
107230	7	Sololá	701	Sololá	4	Finca Santa Victoria	5	Mayo	2023-05-16T00:00:00	2024-11-08T05:00:00	4	Temperatura máxima	11.7
107231	7	Sololá	701	Sololá	4	Finca Santa Victoria	5	Mayo	2023-05-16T00:00:00	2024-11-08T05:00:00	3	Temperatura mínima	10.5
107232	7	Sololá	701	Sololá	4	Finca Santa Victoria	5	Mayo	2023-05-16T00:00:00	2024-11-08T05:00:00	5	Humedad	84
107233	7	Sololá	701	Sololá	4	Finca Santa Victoria	5	Mayo	2023-05-16T00:00:00	2024-11-08T05:00:00	6	Velocidad del viento	1.6
107234	7	Sololá	701	Sololá	4	Finca Santa Victoria	5	Mayo	2023-05-16T00:00:00	2024-11-08T05:00:00	7	Dirección del viento	1.61
107235	7	Sololá	701	Sololá	4	Finca Santa Victoria	5	Mayo	2023-05-16T00:00:00	2024-11-08T05:00:00	1	Precipitación	0
107236	7	Sololá	701	Sololá	4	Finca Santa Victoria	5	Mayo	2023-05-16T00:00:00	2024-11-08T05:00:00	8	Radiación solar	0
107237	7	Sololá	701	Sololá	4	Finca Santa Victoria	5	Mayo	2023-05-16T00:00:00	2024-11-08T06:00:00	2	Temperatura media	12.2
107238	7	Sololá	701	Sololá	4	Finca Santa Victoria	5	Mayo	2023-05-16T00:00:00	2024-11-08T06:00:00	4	Temperatura máxima	12.2
107239	7	Sololá	701	Sololá	4	Finca Santa Victoria	5	Mayo	2023-05-16T00:00:00	2024-11-08T06:00:00	3	Temperatura mínima	11.3
107240	7	Sololá	701	Sololá	4	Finca Santa Victoria	5	Mayo	2023-05-16T00:00:00	2024-11-08T06:00:00	5	Humedad	81
107241	7	Sololá	701	Sololá	4	Finca Santa Victoria	5	Mayo	2023-05-16T00:00:00	2024-11-08T06:00:00	6	Velocidad del viento	3.2
107242	7	Sololá	701	Sololá	4	Finca Santa Victoria	5	Mayo	2023-05-16T00:00:00	2024-11-08T06:00:00	7	Dirección del viento	3.22
107243	7	Sololá	701	Sololá	4	Finca Santa Victoria	5	Mayo	2023-05-16T00:00:00	2024-11-08T06:00:00	1	Precipitación	0
107244	7	Sololá	701	Sololá	4	Finca Santa Victoria	5	Mayo	2023-05-16T00:00:00	2024-11-08T06:00:00	8	Radiación solar	3
107245	7	Sololá	701	Sololá	4	Finca Santa Victoria	5	Mayo	2023-05-16T00:00:00	2024-11-08T07:00:00	2	Temperatura media	13.6
107246	7	Sololá	701	Sololá	4	Finca Santa Victoria	5	Mayo	2023-05-16T00:00:00	2024-11-08T07:00:00	4	Temperatura máxima	13.6
107247	7	Sololá	701	Sololá	4	Finca Santa Victoria	5	Mayo	2023-05-16T00:00:00	2024-11-08T07:00:00	3	Temperatura mínima	12.2
107248	7	Sololá	701	Sololá	4	Finca Santa Victoria	5	Mayo	2023-05-16T00:00:00	2024-11-08T07:00:00	5	Humedad	79
107249	7	Sololá	701	Sololá	4	Finca Santa Victoria	5	Mayo	2023-05-16T00:00:00	2024-11-08T07:00:00	6	Velocidad del viento	3.2
107250	7	Sololá	701	Sololá	4	Finca Santa Victoria	5	Mayo	2023-05-16T00:00:00	2024-11-08T07:00:00	7	Dirección del viento	3.22
107251	7	Sololá	701	Sololá	4	Finca Santa Victoria	5	Mayo	2023-05-16T00:00:00	2024-11-08T07:00:00	1	Precipitación	0
107252	7	Sololá	701	Sololá	4	Finca Santa Victoria	5	Mayo	2023-05-16T00:00:00	2024-11-08T07:00:00	8	Radiación solar	30
107253	7	Sololá	701	Sololá	4	Finca Santa Victoria	5	Mayo	2023-05-16T00:00:00	2024-11-08T08:00:00	2	Temperatura media	17.7
107254	7	Sololá	701	Sololá	4	Finca Santa Victoria	5	Mayo	2023-05-16T00:00:00	2024-11-08T08:00:00	4	Temperatura máxima	17.7
107255	7	Sololá	701	Sololá	4	Finca Santa Victoria	5	Mayo	2023-05-16T00:00:00	2024-11-08T08:00:00	3	Temperatura mínima	13.6
107256	7	Sololá	701	Sololá	4	Finca Santa Victoria	5	Mayo	2023-05-16T00:00:00	2024-11-08T08:00:00	5	Humedad	69
107257	7	Sololá	701	Sololá	4	Finca Santa Victoria	5	Mayo	2023-05-16T00:00:00	2024-11-08T08:00:00	6	Velocidad del viento	1.6
107258	7	Sololá	701	Sololá	4	Finca Santa Victoria	5	Mayo	2023-05-16T00:00:00	2024-11-08T08:00:00	7	Dirección del viento	1.61
107259	7	Sololá	701	Sololá	4	Finca Santa Victoria	5	Mayo	2023-05-16T00:00:00	2024-11-08T08:00:00	1	Precipitación	0
107260	7	Sololá	701	Sololá	4	Finca Santa Victoria	5	Mayo	2023-05-16T00:00:00	2024-11-08T08:00:00	8	Radiación solar	268
107261	7	Sololá	701	Sololá	4	Finca Santa Victoria	5	Mayo	2023-05-16T00:00:00	2024-11-08T09:00:00	2	Temperatura media	17.6
107262	7	Sololá	701	Sololá	4	Finca Santa Victoria	5	Mayo	2023-05-16T00:00:00	2024-11-08T09:00:00	4	Temperatura máxima	17.8
107263	7	Sololá	701	Sololá	4	Finca Santa Victoria	5	Mayo	2023-05-16T00:00:00	2024-11-08T09:00:00	3	Temperatura mínima	17.2
107264	7	Sololá	701	Sololá	4	Finca Santa Victoria	5	Mayo	2023-05-16T00:00:00	2024-11-08T09:00:00	5	Humedad	75
107265	7	Sololá	701	Sololá	4	Finca Santa Victoria	5	Mayo	2023-05-16T00:00:00	2024-11-08T09:00:00	6	Velocidad del viento	1.6
107266	7	Sololá	701	Sololá	4	Finca Santa Victoria	5	Mayo	2023-05-16T00:00:00	2024-11-08T09:00:00	7	Dirección del viento	1.61
107267	7	Sololá	701	Sololá	4	Finca Santa Victoria	5	Mayo	2023-05-16T00:00:00	2024-11-08T09:00:00	1	Precipitación	0
107268	7	Sololá	701	Sololá	4	Finca Santa Victoria	5	Mayo	2023-05-16T00:00:00	2024-11-08T09:00:00	8	Radiación solar	384
107269	7	Sololá	701	Sololá	4	Finca Santa Victoria	5	Mayo	2023-05-16T00:00:00	2024-11-08T10:00:00	2	Temperatura media	17.7
107270	7	Sololá	701	Sololá	4	Finca Santa Victoria	5	Mayo	2023-05-16T00:00:00	2024-11-08T10:00:00	4	Temperatura máxima	17.7
107271	7	Sololá	701	Sololá	4	Finca Santa Victoria	5	Mayo	2023-05-16T00:00:00	2024-11-08T10:00:00	3	Temperatura mínima	16.6
107272	7	Sololá	701	Sololá	4	Finca Santa Victoria	5	Mayo	2023-05-16T00:00:00	2024-11-08T10:00:00	5	Humedad	78
107273	7	Sololá	701	Sololá	4	Finca Santa Victoria	5	Mayo	2023-05-16T00:00:00	2024-11-08T10:00:00	6	Velocidad del viento	3.2
107274	7	Sololá	701	Sololá	4	Finca Santa Victoria	5	Mayo	2023-05-16T00:00:00	2024-11-08T10:00:00	7	Dirección del viento	3.22
107275	7	Sololá	701	Sololá	4	Finca Santa Victoria	5	Mayo	2023-05-16T00:00:00	2024-11-08T10:00:00	1	Precipitación	0
107276	7	Sololá	701	Sololá	4	Finca Santa Victoria	5	Mayo	2023-05-16T00:00:00	2024-11-08T10:00:00	8	Radiación solar	198
107277	7	Sololá	701	Sololá	4	Finca Santa Victoria	5	Mayo	2023-05-16T00:00:00	2024-11-08T11:00:00	2	Temperatura media	18.8
107278	7	Sololá	701	Sololá	4	Finca Santa Victoria	5	Mayo	2023-05-16T00:00:00	2024-11-08T11:00:00	4	Temperatura máxima	18.9
107279	7	Sololá	701	Sololá	4	Finca Santa Victoria	5	Mayo	2023-05-16T00:00:00	2024-11-08T11:00:00	3	Temperatura mínima	16.8
107280	7	Sololá	701	Sololá	4	Finca Santa Victoria	5	Mayo	2023-05-16T00:00:00	2024-11-08T11:00:00	5	Humedad	72
107281	7	Sololá	701	Sololá	4	Finca Santa Victoria	5	Mayo	2023-05-16T00:00:00	2024-11-08T11:00:00	6	Velocidad del viento	3.2
107282	7	Sololá	701	Sololá	4	Finca Santa Victoria	5	Mayo	2023-05-16T00:00:00	2024-11-08T11:00:00	7	Dirección del viento	3.22
107283	7	Sololá	701	Sololá	4	Finca Santa Victoria	5	Mayo	2023-05-16T00:00:00	2024-11-08T11:00:00	1	Precipitación	0
107284	7	Sololá	701	Sololá	4	Finca Santa Victoria	5	Mayo	2023-05-16T00:00:00	2024-11-08T11:00:00	8	Radiación solar	415
107285	7	Sololá	701	Sololá	4	Finca Santa Victoria	5	Mayo	2023-05-16T00:00:00	2024-11-08T12:00:00	2	Temperatura media	19.3
107286	7	Sololá	701	Sololá	4	Finca Santa Victoria	5	Mayo	2023-05-16T00:00:00	2024-11-08T12:00:00	4	Temperatura máxima	19.5
107287	7	Sololá	701	Sololá	4	Finca Santa Victoria	5	Mayo	2023-05-16T00:00:00	2024-11-08T12:00:00	3	Temperatura mínima	18.6
107288	7	Sololá	701	Sololá	4	Finca Santa Victoria	5	Mayo	2023-05-16T00:00:00	2024-11-08T12:00:00	5	Humedad	66
107289	7	Sololá	701	Sololá	4	Finca Santa Victoria	5	Mayo	2023-05-16T00:00:00	2024-11-08T12:00:00	6	Velocidad del viento	4.8
107290	7	Sololá	701	Sololá	4	Finca Santa Victoria	5	Mayo	2023-05-16T00:00:00	2024-11-08T12:00:00	7	Dirección del viento	4.83
107291	7	Sololá	701	Sololá	4	Finca Santa Victoria	5	Mayo	2023-05-16T00:00:00	2024-11-08T12:00:00	1	Precipitación	0
107292	7	Sololá	701	Sololá	4	Finca Santa Victoria	5	Mayo	2023-05-16T00:00:00	2024-11-08T12:00:00	8	Radiación solar	979
107293	7	Sololá	701	Sololá	4	Finca Santa Victoria	5	Mayo	2023-05-16T00:00:00	2024-11-08T13:00:00	2	Temperatura media	20
107294	7	Sololá	701	Sololá	4	Finca Santa Victoria	5	Mayo	2023-05-16T00:00:00	2024-11-08T13:00:00	4	Temperatura máxima	20.2
107295	7	Sololá	701	Sololá	4	Finca Santa Victoria	5	Mayo	2023-05-16T00:00:00	2024-11-08T13:00:00	3	Temperatura mínima	19.2
107296	7	Sololá	701	Sololá	4	Finca Santa Victoria	5	Mayo	2023-05-16T00:00:00	2024-11-08T13:00:00	5	Humedad	70
107297	7	Sololá	701	Sololá	4	Finca Santa Victoria	5	Mayo	2023-05-16T00:00:00	2024-11-08T13:00:00	6	Velocidad del viento	4.8
107298	7	Sololá	701	Sololá	4	Finca Santa Victoria	5	Mayo	2023-05-16T00:00:00	2024-11-08T13:00:00	7	Dirección del viento	4.83
107299	7	Sololá	701	Sololá	4	Finca Santa Victoria	5	Mayo	2023-05-16T00:00:00	2024-11-08T13:00:00	1	Precipitación	0
107300	7	Sololá	701	Sololá	4	Finca Santa Victoria	5	Mayo	2023-05-16T00:00:00	2024-11-08T13:00:00	8	Radiación solar	964
107301	7	Sololá	701	Sololá	4	Finca Santa Victoria	5	Mayo	2023-05-16T00:00:00	2024-11-08T14:00:00	2	Temperatura media	18.9
107302	7	Sololá	701	Sololá	4	Finca Santa Victoria	5	Mayo	2023-05-16T00:00:00	2024-11-08T14:00:00	4	Temperatura máxima	20.2
107303	7	Sololá	701	Sololá	4	Finca Santa Victoria	5	Mayo	2023-05-16T00:00:00	2024-11-08T14:00:00	3	Temperatura mínima	18.8
107304	7	Sololá	701	Sololá	4	Finca Santa Victoria	5	Mayo	2023-05-16T00:00:00	2024-11-08T14:00:00	5	Humedad	77
107305	7	Sololá	701	Sololá	4	Finca Santa Victoria	5	Mayo	2023-05-16T00:00:00	2024-11-08T14:00:00	6	Velocidad del viento	6.4
107306	7	Sololá	701	Sololá	4	Finca Santa Victoria	5	Mayo	2023-05-16T00:00:00	2024-11-08T14:00:00	7	Dirección del viento	6.44
107307	7	Sololá	701	Sololá	4	Finca Santa Victoria	5	Mayo	2023-05-16T00:00:00	2024-11-08T14:00:00	1	Precipitación	0
107308	7	Sololá	701	Sololá	4	Finca Santa Victoria	5	Mayo	2023-05-16T00:00:00	2024-11-08T14:00:00	8	Radiación solar	645
107309	7	Sololá	701	Sololá	4	Finca Santa Victoria	5	Mayo	2023-05-16T00:00:00	2024-11-08T15:00:00	2	Temperatura media	17.1
107310	7	Sololá	701	Sololá	4	Finca Santa Victoria	5	Mayo	2023-05-16T00:00:00	2024-11-08T15:00:00	4	Temperatura máxima	19.1
107311	7	Sololá	701	Sololá	4	Finca Santa Victoria	5	Mayo	2023-05-16T00:00:00	2024-11-08T15:00:00	3	Temperatura mínima	17.1
107312	7	Sololá	701	Sololá	4	Finca Santa Victoria	5	Mayo	2023-05-16T00:00:00	2024-11-08T15:00:00	5	Humedad	86
107313	7	Sololá	701	Sololá	4	Finca Santa Victoria	5	Mayo	2023-05-16T00:00:00	2024-11-08T15:00:00	6	Velocidad del viento	4.8
107314	7	Sololá	701	Sololá	4	Finca Santa Victoria	5	Mayo	2023-05-16T00:00:00	2024-11-08T15:00:00	7	Dirección del viento	4.83
107315	7	Sololá	701	Sololá	4	Finca Santa Victoria	5	Mayo	2023-05-16T00:00:00	2024-11-08T15:00:00	1	Precipitación	0
107316	7	Sololá	701	Sololá	4	Finca Santa Victoria	5	Mayo	2023-05-16T00:00:00	2024-11-08T15:00:00	8	Radiación solar	216
107317	7	Sololá	701	Sololá	4	Finca Santa Victoria	5	Mayo	2023-05-16T00:00:00	2024-11-08T16:00:00	2	Temperatura media	16.3
107318	7	Sololá	701	Sololá	4	Finca Santa Victoria	5	Mayo	2023-05-16T00:00:00	2024-11-08T16:00:00	4	Temperatura máxima	17.1
107319	7	Sololá	701	Sololá	4	Finca Santa Victoria	5	Mayo	2023-05-16T00:00:00	2024-11-08T16:00:00	3	Temperatura mínima	16.2
107320	7	Sololá	701	Sololá	4	Finca Santa Victoria	5	Mayo	2023-05-16T00:00:00	2024-11-08T16:00:00	5	Humedad	88
107321	7	Sololá	701	Sololá	4	Finca Santa Victoria	5	Mayo	2023-05-16T00:00:00	2024-11-08T16:00:00	6	Velocidad del viento	3.2
107322	7	Sololá	701	Sololá	4	Finca Santa Victoria	5	Mayo	2023-05-16T00:00:00	2024-11-08T16:00:00	7	Dirección del viento	3.22
107323	7	Sololá	701	Sololá	4	Finca Santa Victoria	5	Mayo	2023-05-16T00:00:00	2024-11-08T16:00:00	1	Precipitación	0
107324	7	Sololá	701	Sololá	4	Finca Santa Victoria	5	Mayo	2023-05-16T00:00:00	2024-11-08T16:00:00	8	Radiación solar	59
107325	7	Sololá	701	Sololá	4	Finca Santa Victoria	5	Mayo	2023-05-16T00:00:00	2024-11-08T17:00:00	2	Temperatura media	15.1
107326	7	Sololá	701	Sololá	4	Finca Santa Victoria	5	Mayo	2023-05-16T00:00:00	2024-11-08T17:00:00	4	Temperatura máxima	16.3
107327	7	Sololá	701	Sololá	4	Finca Santa Victoria	5	Mayo	2023-05-16T00:00:00	2024-11-08T17:00:00	3	Temperatura mínima	15
107328	7	Sololá	701	Sololá	4	Finca Santa Victoria	5	Mayo	2023-05-16T00:00:00	2024-11-08T17:00:00	5	Humedad	95
107329	7	Sololá	701	Sololá	4	Finca Santa Victoria	5	Mayo	2023-05-16T00:00:00	2024-11-08T17:00:00	6	Velocidad del viento	1.6
107330	7	Sololá	701	Sololá	4	Finca Santa Victoria	5	Mayo	2023-05-16T00:00:00	2024-11-08T17:00:00	7	Dirección del viento	1.61
107331	7	Sololá	701	Sololá	4	Finca Santa Victoria	5	Mayo	2023-05-16T00:00:00	2024-11-08T17:00:00	1	Precipitación	4.8
107332	7	Sololá	701	Sololá	4	Finca Santa Victoria	5	Mayo	2023-05-16T00:00:00	2024-11-08T17:00:00	8	Radiación solar	32
107333	7	Sololá	701	Sololá	4	Finca Santa Victoria	5	Mayo	2023-05-16T00:00:00	2024-11-08T18:00:00	2	Temperatura media	14.7
107334	7	Sololá	701	Sololá	4	Finca Santa Victoria	5	Mayo	2023-05-16T00:00:00	2024-11-08T18:00:00	4	Temperatura máxima	15.1
107335	7	Sololá	701	Sololá	4	Finca Santa Victoria	5	Mayo	2023-05-16T00:00:00	2024-11-08T18:00:00	3	Temperatura mínima	14.7
107336	7	Sololá	701	Sololá	4	Finca Santa Victoria	5	Mayo	2023-05-16T00:00:00	2024-11-08T18:00:00	5	Humedad	96
107337	7	Sololá	701	Sololá	4	Finca Santa Victoria	5	Mayo	2023-05-16T00:00:00	2024-11-08T18:00:00	6	Velocidad del viento	1.6
107338	7	Sololá	701	Sololá	4	Finca Santa Victoria	5	Mayo	2023-05-16T00:00:00	2024-11-08T18:00:00	7	Dirección del viento	1.61
107339	7	Sololá	701	Sololá	4	Finca Santa Victoria	5	Mayo	2023-05-16T00:00:00	2024-11-08T18:00:00	1	Precipitación	0
107340	7	Sololá	701	Sololá	4	Finca Santa Victoria	5	Mayo	2023-05-16T00:00:00	2024-11-08T18:00:00	8	Radiación solar	16
107341	7	Sololá	701	Sololá	4	Finca Santa Victoria	5	Mayo	2023-05-16T00:00:00	2024-11-08T19:00:00	2	Temperatura media	14.7
107342	7	Sololá	701	Sololá	4	Finca Santa Victoria	5	Mayo	2023-05-16T00:00:00	2024-11-08T19:00:00	4	Temperatura máxima	14.8
107343	7	Sololá	701	Sololá	4	Finca Santa Victoria	5	Mayo	2023-05-16T00:00:00	2024-11-08T19:00:00	3	Temperatura mínima	14.6
107344	7	Sololá	701	Sololá	4	Finca Santa Victoria	5	Mayo	2023-05-16T00:00:00	2024-11-08T19:00:00	5	Humedad	97
107345	7	Sololá	701	Sololá	4	Finca Santa Victoria	5	Mayo	2023-05-16T00:00:00	2024-11-08T19:00:00	6	Velocidad del viento	0
107346	7	Sololá	701	Sololá	4	Finca Santa Victoria	5	Mayo	2023-05-16T00:00:00	2024-11-08T19:00:00	7	Dirección del viento	0
107347	7	Sololá	701	Sololá	4	Finca Santa Victoria	5	Mayo	2023-05-16T00:00:00	2024-11-08T19:00:00	1	Precipitación	0.2
107348	7	Sololá	701	Sololá	4	Finca Santa Victoria	5	Mayo	2023-05-16T00:00:00	2024-11-08T19:00:00	8	Radiación solar	0
107349	7	Sololá	701	Sololá	4	Finca Santa Victoria	5	Mayo	2023-05-16T00:00:00	2024-11-08T20:00:00	2	Temperatura media	13.7
107350	7	Sololá	701	Sololá	4	Finca Santa Victoria	5	Mayo	2023-05-16T00:00:00	2024-11-08T20:00:00	4	Temperatura máxima	14.7
107351	7	Sololá	701	Sololá	4	Finca Santa Victoria	5	Mayo	2023-05-16T00:00:00	2024-11-08T20:00:00	3	Temperatura mínima	13.7
107352	7	Sololá	701	Sololá	4	Finca Santa Victoria	5	Mayo	2023-05-16T00:00:00	2024-11-08T20:00:00	5	Humedad	96
107353	7	Sololá	701	Sololá	4	Finca Santa Victoria	5	Mayo	2023-05-16T00:00:00	2024-11-08T20:00:00	6	Velocidad del viento	1.6
107354	7	Sololá	701	Sololá	4	Finca Santa Victoria	5	Mayo	2023-05-16T00:00:00	2024-11-08T20:00:00	7	Dirección del viento	1.61
107355	7	Sololá	701	Sololá	4	Finca Santa Victoria	5	Mayo	2023-05-16T00:00:00	2024-11-08T20:00:00	1	Precipitación	0
107356	7	Sololá	701	Sololá	4	Finca Santa Victoria	5	Mayo	2023-05-16T00:00:00	2024-11-08T20:00:00	8	Radiación solar	0
107357	7	Sololá	701	Sololá	4	Finca Santa Victoria	5	Mayo	2023-05-16T00:00:00	2024-11-08T21:00:00	2	Temperatura media	13.3
107358	7	Sololá	701	Sololá	4	Finca Santa Victoria	5	Mayo	2023-05-16T00:00:00	2024-11-08T21:00:00	4	Temperatura máxima	13.7
107359	7	Sololá	701	Sololá	4	Finca Santa Victoria	5	Mayo	2023-05-16T00:00:00	2024-11-08T21:00:00	3	Temperatura mínima	13.3
107360	7	Sololá	701	Sololá	4	Finca Santa Victoria	5	Mayo	2023-05-16T00:00:00	2024-11-08T21:00:00	5	Humedad	96
107361	7	Sololá	701	Sololá	4	Finca Santa Victoria	5	Mayo	2023-05-16T00:00:00	2024-11-08T21:00:00	6	Velocidad del viento	1.6
107362	7	Sololá	701	Sololá	4	Finca Santa Victoria	5	Mayo	2023-05-16T00:00:00	2024-11-08T21:00:00	7	Dirección del viento	1.61
107363	7	Sololá	701	Sololá	4	Finca Santa Victoria	5	Mayo	2023-05-16T00:00:00	2024-11-08T21:00:00	1	Precipitación	0.2
107364	7	Sololá	701	Sololá	4	Finca Santa Victoria	5	Mayo	2023-05-16T00:00:00	2024-11-08T21:00:00	8	Radiación solar	0
107365	7	Sololá	701	Sololá	4	Finca Santa Victoria	5	Mayo	2023-05-16T00:00:00	2024-11-08T22:00:00	2	Temperatura media	13.3
107366	7	Sololá	701	Sololá	4	Finca Santa Victoria	5	Mayo	2023-05-16T00:00:00	2024-11-08T22:00:00	4	Temperatura máxima	13.3
107367	7	Sololá	701	Sololá	4	Finca Santa Victoria	5	Mayo	2023-05-16T00:00:00	2024-11-08T22:00:00	3	Temperatura mínima	13.1
107368	7	Sololá	701	Sololá	4	Finca Santa Victoria	5	Mayo	2023-05-16T00:00:00	2024-11-08T22:00:00	5	Humedad	98
107369	7	Sololá	701	Sololá	4	Finca Santa Victoria	5	Mayo	2023-05-16T00:00:00	2024-11-08T22:00:00	6	Velocidad del viento	0
107370	7	Sololá	701	Sololá	4	Finca Santa Victoria	5	Mayo	2023-05-16T00:00:00	2024-11-08T22:00:00	7	Dirección del viento	0
107371	7	Sololá	701	Sololá	4	Finca Santa Victoria	5	Mayo	2023-05-16T00:00:00	2024-11-08T22:00:00	1	Precipitación	0
107372	7	Sololá	701	Sololá	4	Finca Santa Victoria	5	Mayo	2023-05-16T00:00:00	2024-11-08T22:00:00	8	Radiación solar	0
107373	7	Sololá	701	Sololá	4	Finca Santa Victoria	5	Mayo	2023-05-16T00:00:00	2024-11-08T23:00:00	2	Temperatura media	13.2
107374	7	Sololá	701	Sololá	4	Finca Santa Victoria	5	Mayo	2023-05-16T00:00:00	2024-11-08T23:00:00	4	Temperatura máxima	13.4
107375	7	Sololá	701	Sololá	4	Finca Santa Victoria	5	Mayo	2023-05-16T00:00:00	2024-11-08T23:00:00	3	Temperatura mínima	13.2
107376	7	Sololá	701	Sololá	4	Finca Santa Victoria	5	Mayo	2023-05-16T00:00:00	2024-11-08T23:00:00	5	Humedad	98
107377	7	Sololá	701	Sololá	4	Finca Santa Victoria	5	Mayo	2023-05-16T00:00:00	2024-11-08T23:00:00	6	Velocidad del viento	1.6
107378	7	Sololá	701	Sololá	4	Finca Santa Victoria	5	Mayo	2023-05-16T00:00:00	2024-11-08T23:00:00	7	Dirección del viento	1.61
107379	7	Sololá	701	Sololá	4	Finca Santa Victoria	5	Mayo	2023-05-16T00:00:00	2024-11-08T23:00:00	1	Precipitación	0
107380	7	Sololá	701	Sololá	4	Finca Santa Victoria	5	Mayo	2023-05-16T00:00:00	2024-11-08T23:00:00	8	Radiación solar	0
107381	7	Sololá	701	Sololá	4	Finca Santa Victoria	5	Mayo	2023-05-17T00:00:00	2024-11-08T00:00:00	2	Temperatura media	12.5
107382	7	Sololá	701	Sololá	4	Finca Santa Victoria	5	Mayo	2023-05-17T00:00:00	2024-11-08T00:00:00	4	Temperatura máxima	13.2
107383	7	Sololá	701	Sololá	4	Finca Santa Victoria	5	Mayo	2023-05-17T00:00:00	2024-11-08T00:00:00	3	Temperatura mínima	12.5
107384	7	Sololá	701	Sololá	4	Finca Santa Victoria	5	Mayo	2023-05-17T00:00:00	2024-11-08T00:00:00	5	Humedad	98
107385	7	Sololá	701	Sololá	4	Finca Santa Victoria	5	Mayo	2023-05-17T00:00:00	2024-11-08T00:00:00	6	Velocidad del viento	0
107386	7	Sololá	701	Sololá	4	Finca Santa Victoria	5	Mayo	2023-05-17T00:00:00	2024-11-08T00:00:00	7	Dirección del viento	0
107387	7	Sololá	701	Sololá	4	Finca Santa Victoria	5	Mayo	2023-05-17T00:00:00	2024-11-08T00:00:00	1	Precipitación	0
107388	7	Sololá	701	Sololá	4	Finca Santa Victoria	5	Mayo	2023-05-17T00:00:00	2024-11-08T00:00:00	8	Radiación solar	0
107389	7	Sololá	701	Sololá	4	Finca Santa Victoria	5	Mayo	2023-05-17T00:00:00	2024-11-08T01:00:00	2	Temperatura media	12.1
107390	7	Sololá	701	Sololá	4	Finca Santa Victoria	5	Mayo	2023-05-17T00:00:00	2024-11-08T01:00:00	4	Temperatura máxima	12.5
107391	7	Sololá	701	Sololá	4	Finca Santa Victoria	5	Mayo	2023-05-17T00:00:00	2024-11-08T01:00:00	3	Temperatura mínima	12.1
107392	7	Sololá	701	Sololá	4	Finca Santa Victoria	5	Mayo	2023-05-17T00:00:00	2024-11-08T01:00:00	5	Humedad	97
107393	7	Sololá	701	Sololá	4	Finca Santa Victoria	5	Mayo	2023-05-17T00:00:00	2024-11-08T01:00:00	6	Velocidad del viento	1.6
107394	7	Sololá	701	Sololá	4	Finca Santa Victoria	5	Mayo	2023-05-17T00:00:00	2024-11-08T01:00:00	7	Dirección del viento	1.61
107395	7	Sololá	701	Sololá	4	Finca Santa Victoria	5	Mayo	2023-05-17T00:00:00	2024-11-08T01:00:00	1	Precipitación	0
107396	7	Sololá	701	Sololá	4	Finca Santa Victoria	5	Mayo	2023-05-17T00:00:00	2024-11-08T01:00:00	8	Radiación solar	0
107397	7	Sololá	701	Sololá	4	Finca Santa Victoria	5	Mayo	2023-05-17T00:00:00	2024-11-08T02:00:00	2	Temperatura media	11.7
107398	7	Sololá	701	Sololá	4	Finca Santa Victoria	5	Mayo	2023-05-17T00:00:00	2024-11-08T02:00:00	4	Temperatura máxima	12.1
107399	7	Sololá	701	Sololá	4	Finca Santa Victoria	5	Mayo	2023-05-17T00:00:00	2024-11-08T02:00:00	3	Temperatura mínima	11.7
107400	7	Sololá	701	Sololá	4	Finca Santa Victoria	5	Mayo	2023-05-17T00:00:00	2024-11-08T02:00:00	5	Humedad	95
107401	7	Sololá	701	Sololá	4	Finca Santa Victoria	5	Mayo	2023-05-17T00:00:00	2024-11-08T02:00:00	6	Velocidad del viento	1.6
107402	7	Sololá	701	Sololá	4	Finca Santa Victoria	5	Mayo	2023-05-17T00:00:00	2024-11-08T02:00:00	7	Dirección del viento	1.61
107403	7	Sololá	701	Sololá	4	Finca Santa Victoria	5	Mayo	2023-05-17T00:00:00	2024-11-08T02:00:00	1	Precipitación	0
107404	7	Sololá	701	Sololá	4	Finca Santa Victoria	5	Mayo	2023-05-17T00:00:00	2024-11-08T02:00:00	8	Radiación solar	0
107405	7	Sololá	701	Sololá	4	Finca Santa Victoria	5	Mayo	2023-05-17T00:00:00	2024-11-08T03:00:00	2	Temperatura media	11.8
107406	7	Sololá	701	Sololá	4	Finca Santa Victoria	5	Mayo	2023-05-17T00:00:00	2024-11-08T03:00:00	4	Temperatura máxima	11.8
107407	7	Sololá	701	Sololá	4	Finca Santa Victoria	5	Mayo	2023-05-17T00:00:00	2024-11-08T03:00:00	3	Temperatura mínima	11.6
107408	7	Sololá	701	Sololá	4	Finca Santa Victoria	5	Mayo	2023-05-17T00:00:00	2024-11-08T03:00:00	5	Humedad	95
107409	7	Sololá	701	Sololá	4	Finca Santa Victoria	5	Mayo	2023-05-17T00:00:00	2024-11-08T03:00:00	6	Velocidad del viento	1.6
107410	7	Sololá	701	Sololá	4	Finca Santa Victoria	5	Mayo	2023-05-17T00:00:00	2024-11-08T03:00:00	7	Dirección del viento	1.61
107411	7	Sololá	701	Sololá	4	Finca Santa Victoria	5	Mayo	2023-05-17T00:00:00	2024-11-08T03:00:00	1	Precipitación	0
107412	7	Sololá	701	Sololá	4	Finca Santa Victoria	5	Mayo	2023-05-17T00:00:00	2024-11-08T03:00:00	8	Radiación solar	0
107413	7	Sololá	701	Sololá	4	Finca Santa Victoria	5	Mayo	2023-05-17T00:00:00	2024-11-08T04:00:00	2	Temperatura media	12.8
107414	7	Sololá	701	Sololá	4	Finca Santa Victoria	5	Mayo	2023-05-17T00:00:00	2024-11-08T04:00:00	4	Temperatura máxima	12.8
107415	7	Sololá	701	Sololá	4	Finca Santa Victoria	5	Mayo	2023-05-17T00:00:00	2024-11-08T04:00:00	3	Temperatura mínima	11.8
107416	7	Sololá	701	Sololá	4	Finca Santa Victoria	5	Mayo	2023-05-17T00:00:00	2024-11-08T04:00:00	5	Humedad	91
107417	7	Sololá	701	Sololá	4	Finca Santa Victoria	5	Mayo	2023-05-17T00:00:00	2024-11-08T04:00:00	6	Velocidad del viento	1.6
107418	7	Sololá	701	Sololá	4	Finca Santa Victoria	5	Mayo	2023-05-17T00:00:00	2024-11-08T04:00:00	7	Dirección del viento	1.61
107419	7	Sololá	701	Sololá	4	Finca Santa Victoria	5	Mayo	2023-05-17T00:00:00	2024-11-08T04:00:00	1	Precipitación	0
107420	7	Sololá	701	Sololá	4	Finca Santa Victoria	5	Mayo	2023-05-17T00:00:00	2024-11-08T04:00:00	8	Radiación solar	0
107421	7	Sololá	701	Sololá	4	Finca Santa Victoria	5	Mayo	2023-05-17T00:00:00	2024-11-08T05:00:00	2	Temperatura media	11.8
107422	7	Sololá	701	Sololá	4	Finca Santa Victoria	5	Mayo	2023-05-17T00:00:00	2024-11-08T05:00:00	4	Temperatura máxima	12.8
107423	7	Sololá	701	Sololá	4	Finca Santa Victoria	5	Mayo	2023-05-17T00:00:00	2024-11-08T05:00:00	3	Temperatura mínima	11.7
107424	7	Sololá	701	Sololá	4	Finca Santa Victoria	5	Mayo	2023-05-17T00:00:00	2024-11-08T05:00:00	5	Humedad	92
107425	7	Sololá	701	Sololá	4	Finca Santa Victoria	5	Mayo	2023-05-17T00:00:00	2024-11-08T05:00:00	6	Velocidad del viento	1.6
107426	7	Sololá	701	Sololá	4	Finca Santa Victoria	5	Mayo	2023-05-17T00:00:00	2024-11-08T05:00:00	7	Dirección del viento	1.61
107427	7	Sololá	701	Sololá	4	Finca Santa Victoria	5	Mayo	2023-05-17T00:00:00	2024-11-08T05:00:00	1	Precipitación	0
107428	7	Sololá	701	Sololá	4	Finca Santa Victoria	5	Mayo	2023-05-17T00:00:00	2024-11-08T05:00:00	8	Radiación solar	0
107429	7	Sololá	701	Sololá	4	Finca Santa Victoria	5	Mayo	2023-05-17T00:00:00	2024-11-08T06:00:00	2	Temperatura media	12.5
107430	7	Sololá	701	Sololá	4	Finca Santa Victoria	5	Mayo	2023-05-17T00:00:00	2024-11-08T06:00:00	4	Temperatura máxima	12.5
107431	7	Sololá	701	Sololá	4	Finca Santa Victoria	5	Mayo	2023-05-17T00:00:00	2024-11-08T06:00:00	3	Temperatura mínima	11.8
107432	7	Sololá	701	Sololá	4	Finca Santa Victoria	5	Mayo	2023-05-17T00:00:00	2024-11-08T06:00:00	5	Humedad	89
107433	7	Sololá	701	Sololá	4	Finca Santa Victoria	5	Mayo	2023-05-17T00:00:00	2024-11-08T06:00:00	6	Velocidad del viento	1.6
107434	7	Sololá	701	Sololá	4	Finca Santa Victoria	5	Mayo	2023-05-17T00:00:00	2024-11-08T06:00:00	7	Dirección del viento	1.61
107435	7	Sololá	701	Sololá	4	Finca Santa Victoria	5	Mayo	2023-05-17T00:00:00	2024-11-08T06:00:00	1	Precipitación	0
107436	7	Sololá	701	Sololá	4	Finca Santa Victoria	5	Mayo	2023-05-17T00:00:00	2024-11-08T06:00:00	8	Radiación solar	2
107437	7	Sololá	701	Sololá	4	Finca Santa Victoria	5	Mayo	2023-05-17T00:00:00	2024-11-08T07:00:00	2	Temperatura media	13.6
107438	7	Sololá	701	Sololá	4	Finca Santa Victoria	5	Mayo	2023-05-17T00:00:00	2024-11-08T07:00:00	4	Temperatura máxima	13.6
107439	7	Sololá	701	Sololá	4	Finca Santa Victoria	5	Mayo	2023-05-17T00:00:00	2024-11-08T07:00:00	3	Temperatura mínima	12.5
107440	7	Sololá	701	Sololá	4	Finca Santa Victoria	5	Mayo	2023-05-17T00:00:00	2024-11-08T07:00:00	5	Humedad	87
107441	7	Sololá	701	Sololá	4	Finca Santa Victoria	5	Mayo	2023-05-17T00:00:00	2024-11-08T07:00:00	6	Velocidad del viento	1.6
107442	7	Sololá	701	Sololá	4	Finca Santa Victoria	5	Mayo	2023-05-17T00:00:00	2024-11-08T07:00:00	7	Dirección del viento	1.61
107443	7	Sololá	701	Sololá	4	Finca Santa Victoria	5	Mayo	2023-05-17T00:00:00	2024-11-08T07:00:00	1	Precipitación	0
107444	7	Sololá	701	Sololá	4	Finca Santa Victoria	5	Mayo	2023-05-17T00:00:00	2024-11-08T07:00:00	8	Radiación solar	23
107445	7	Sololá	701	Sololá	4	Finca Santa Victoria	5	Mayo	2023-05-17T00:00:00	2024-11-08T08:00:00	2	Temperatura media	17.1
107446	7	Sololá	701	Sololá	4	Finca Santa Victoria	5	Mayo	2023-05-17T00:00:00	2024-11-08T08:00:00	4	Temperatura máxima	17.1
107447	7	Sololá	701	Sololá	4	Finca Santa Victoria	5	Mayo	2023-05-17T00:00:00	2024-11-08T08:00:00	3	Temperatura mínima	13.6
107448	7	Sololá	701	Sololá	4	Finca Santa Victoria	5	Mayo	2023-05-17T00:00:00	2024-11-08T08:00:00	5	Humedad	77
107449	7	Sololá	701	Sololá	4	Finca Santa Victoria	5	Mayo	2023-05-17T00:00:00	2024-11-08T08:00:00	6	Velocidad del viento	1.6
107450	7	Sololá	701	Sololá	4	Finca Santa Victoria	5	Mayo	2023-05-17T00:00:00	2024-11-08T08:00:00	7	Dirección del viento	1.61
107451	7	Sololá	701	Sololá	4	Finca Santa Victoria	5	Mayo	2023-05-17T00:00:00	2024-11-08T08:00:00	1	Precipitación	0
107452	7	Sololá	701	Sololá	4	Finca Santa Victoria	5	Mayo	2023-05-17T00:00:00	2024-11-08T08:00:00	8	Radiación solar	284
107453	7	Sololá	701	Sololá	4	Finca Santa Victoria	5	Mayo	2023-05-17T00:00:00	2024-11-08T09:00:00	2	Temperatura media	18.3
107454	7	Sololá	701	Sololá	4	Finca Santa Victoria	5	Mayo	2023-05-17T00:00:00	2024-11-08T09:00:00	4	Temperatura máxima	18.3
107455	7	Sololá	701	Sololá	4	Finca Santa Victoria	5	Mayo	2023-05-17T00:00:00	2024-11-08T09:00:00	3	Temperatura mínima	17.1
107456	7	Sololá	701	Sololá	4	Finca Santa Victoria	5	Mayo	2023-05-17T00:00:00	2024-11-08T09:00:00	5	Humedad	75
107457	7	Sololá	701	Sololá	4	Finca Santa Victoria	5	Mayo	2023-05-17T00:00:00	2024-11-08T09:00:00	6	Velocidad del viento	1.6
107458	7	Sololá	701	Sololá	4	Finca Santa Victoria	5	Mayo	2023-05-17T00:00:00	2024-11-08T09:00:00	7	Dirección del viento	1.61
107459	7	Sololá	701	Sololá	4	Finca Santa Victoria	5	Mayo	2023-05-17T00:00:00	2024-11-08T09:00:00	1	Precipitación	0
107460	7	Sololá	701	Sololá	4	Finca Santa Victoria	5	Mayo	2023-05-17T00:00:00	2024-11-08T09:00:00	8	Radiación solar	365
107461	7	Sololá	701	Sololá	4	Finca Santa Victoria	5	Mayo	2023-05-17T00:00:00	2024-11-08T10:00:00	2	Temperatura media	19.2
107462	7	Sololá	701	Sololá	4	Finca Santa Victoria	5	Mayo	2023-05-17T00:00:00	2024-11-08T10:00:00	4	Temperatura máxima	19.2
107463	7	Sololá	701	Sololá	4	Finca Santa Victoria	5	Mayo	2023-05-17T00:00:00	2024-11-08T10:00:00	3	Temperatura mínima	18.2
107464	7	Sololá	701	Sololá	4	Finca Santa Victoria	5	Mayo	2023-05-17T00:00:00	2024-11-08T10:00:00	5	Humedad	72
107465	7	Sololá	701	Sololá	4	Finca Santa Victoria	5	Mayo	2023-05-17T00:00:00	2024-11-08T10:00:00	6	Velocidad del viento	3.2
107466	7	Sololá	701	Sololá	4	Finca Santa Victoria	5	Mayo	2023-05-17T00:00:00	2024-11-08T10:00:00	7	Dirección del viento	3.22
107467	7	Sololá	701	Sololá	4	Finca Santa Victoria	5	Mayo	2023-05-17T00:00:00	2024-11-08T10:00:00	1	Precipitación	0
107468	7	Sololá	701	Sololá	4	Finca Santa Victoria	5	Mayo	2023-05-17T00:00:00	2024-11-08T10:00:00	8	Radiación solar	205
107469	7	Sololá	701	Sololá	4	Finca Santa Victoria	5	Mayo	2023-05-17T00:00:00	2024-11-08T11:00:00	2	Temperatura media	19.8
107470	7	Sololá	701	Sololá	4	Finca Santa Victoria	5	Mayo	2023-05-17T00:00:00	2024-11-08T11:00:00	4	Temperatura máxima	19.9
107471	7	Sololá	701	Sololá	4	Finca Santa Victoria	5	Mayo	2023-05-17T00:00:00	2024-11-08T11:00:00	3	Temperatura mínima	19.1
107472	7	Sololá	701	Sololá	4	Finca Santa Victoria	5	Mayo	2023-05-17T00:00:00	2024-11-08T11:00:00	5	Humedad	62
107473	7	Sololá	701	Sololá	4	Finca Santa Victoria	5	Mayo	2023-05-17T00:00:00	2024-11-08T11:00:00	6	Velocidad del viento	3.2
107474	7	Sololá	701	Sololá	4	Finca Santa Victoria	5	Mayo	2023-05-17T00:00:00	2024-11-08T11:00:00	7	Dirección del viento	3.22
107475	7	Sololá	701	Sololá	4	Finca Santa Victoria	5	Mayo	2023-05-17T00:00:00	2024-11-08T11:00:00	1	Precipitación	0
107476	7	Sololá	701	Sololá	4	Finca Santa Victoria	5	Mayo	2023-05-17T00:00:00	2024-11-08T11:00:00	8	Radiación solar	574
107477	7	Sololá	701	Sololá	4	Finca Santa Victoria	5	Mayo	2023-05-17T00:00:00	2024-11-08T12:00:00	2	Temperatura media	19.8
107478	7	Sololá	701	Sololá	4	Finca Santa Victoria	5	Mayo	2023-05-17T00:00:00	2024-11-08T12:00:00	4	Temperatura máxima	20.3
107479	7	Sololá	701	Sololá	4	Finca Santa Victoria	5	Mayo	2023-05-17T00:00:00	2024-11-08T12:00:00	3	Temperatura mínima	19.5
107480	7	Sololá	701	Sololá	4	Finca Santa Victoria	5	Mayo	2023-05-17T00:00:00	2024-11-08T12:00:00	5	Humedad	65
107481	7	Sololá	701	Sololá	4	Finca Santa Victoria	5	Mayo	2023-05-17T00:00:00	2024-11-08T12:00:00	6	Velocidad del viento	4.8
107482	7	Sololá	701	Sololá	4	Finca Santa Victoria	5	Mayo	2023-05-17T00:00:00	2024-11-08T12:00:00	7	Dirección del viento	4.83
107483	7	Sololá	701	Sololá	4	Finca Santa Victoria	5	Mayo	2023-05-17T00:00:00	2024-11-08T12:00:00	1	Precipitación	0
107484	7	Sololá	701	Sololá	4	Finca Santa Victoria	5	Mayo	2023-05-17T00:00:00	2024-11-08T12:00:00	8	Radiación solar	973
107485	7	Sololá	701	Sololá	4	Finca Santa Victoria	5	Mayo	2023-05-17T00:00:00	2024-11-08T13:00:00	2	Temperatura media	20.2
107486	7	Sololá	701	Sololá	4	Finca Santa Victoria	5	Mayo	2023-05-17T00:00:00	2024-11-08T13:00:00	4	Temperatura máxima	20.6
107487	7	Sololá	701	Sololá	4	Finca Santa Victoria	5	Mayo	2023-05-17T00:00:00	2024-11-08T13:00:00	3	Temperatura mínima	19.8
107488	7	Sololá	701	Sololá	4	Finca Santa Victoria	5	Mayo	2023-05-17T00:00:00	2024-11-08T13:00:00	5	Humedad	66
107489	7	Sololá	701	Sololá	4	Finca Santa Victoria	5	Mayo	2023-05-17T00:00:00	2024-11-08T13:00:00	6	Velocidad del viento	4.8
107490	7	Sololá	701	Sololá	4	Finca Santa Victoria	5	Mayo	2023-05-17T00:00:00	2024-11-08T13:00:00	7	Dirección del viento	4.83
107491	7	Sololá	701	Sololá	4	Finca Santa Victoria	5	Mayo	2023-05-17T00:00:00	2024-11-08T13:00:00	1	Precipitación	0
107492	7	Sololá	701	Sololá	4	Finca Santa Victoria	5	Mayo	2023-05-17T00:00:00	2024-11-08T13:00:00	8	Radiación solar	957
107493	7	Sololá	701	Sololá	4	Finca Santa Victoria	5	Mayo	2023-05-17T00:00:00	2024-11-08T14:00:00	2	Temperatura media	19.4
107494	7	Sololá	701	Sololá	4	Finca Santa Victoria	5	Mayo	2023-05-17T00:00:00	2024-11-08T14:00:00	4	Temperatura máxima	20.5
107495	7	Sololá	701	Sololá	4	Finca Santa Victoria	5	Mayo	2023-05-17T00:00:00	2024-11-08T14:00:00	3	Temperatura mínima	19.3
107496	7	Sololá	701	Sololá	4	Finca Santa Victoria	5	Mayo	2023-05-17T00:00:00	2024-11-08T14:00:00	5	Humedad	81
107497	7	Sololá	701	Sololá	4	Finca Santa Victoria	5	Mayo	2023-05-17T00:00:00	2024-11-08T14:00:00	6	Velocidad del viento	4.8
107498	7	Sololá	701	Sololá	4	Finca Santa Victoria	5	Mayo	2023-05-17T00:00:00	2024-11-08T14:00:00	7	Dirección del viento	4.83
107499	7	Sololá	701	Sololá	4	Finca Santa Victoria	5	Mayo	2023-05-17T00:00:00	2024-11-08T14:00:00	1	Precipitación	0
107500	7	Sololá	701	Sololá	4	Finca Santa Victoria	5	Mayo	2023-05-17T00:00:00	2024-11-08T14:00:00	8	Radiación solar	596
107501	7	Sololá	701	Sololá	4	Finca Santa Victoria	5	Mayo	2023-05-17T00:00:00	2024-11-08T15:00:00	2	Temperatura media	17.9
107502	7	Sololá	701	Sololá	4	Finca Santa Victoria	5	Mayo	2023-05-17T00:00:00	2024-11-08T15:00:00	4	Temperatura máxima	19.4
107503	7	Sololá	701	Sololá	4	Finca Santa Victoria	5	Mayo	2023-05-17T00:00:00	2024-11-08T15:00:00	3	Temperatura mínima	17.7
107504	7	Sololá	701	Sololá	4	Finca Santa Victoria	5	Mayo	2023-05-17T00:00:00	2024-11-08T15:00:00	5	Humedad	88
107505	7	Sololá	701	Sololá	4	Finca Santa Victoria	5	Mayo	2023-05-17T00:00:00	2024-11-08T15:00:00	6	Velocidad del viento	4.8
107506	7	Sololá	701	Sololá	4	Finca Santa Victoria	5	Mayo	2023-05-17T00:00:00	2024-11-08T15:00:00	7	Dirección del viento	4.83
107507	7	Sololá	701	Sololá	4	Finca Santa Victoria	5	Mayo	2023-05-17T00:00:00	2024-11-08T15:00:00	1	Precipitación	0
107508	7	Sololá	701	Sololá	4	Finca Santa Victoria	5	Mayo	2023-05-17T00:00:00	2024-11-08T15:00:00	8	Radiación solar	216
107509	7	Sololá	701	Sololá	4	Finca Santa Victoria	5	Mayo	2023-05-17T00:00:00	2024-11-08T16:00:00	2	Temperatura media	17.4
107510	7	Sololá	701	Sololá	4	Finca Santa Victoria	5	Mayo	2023-05-17T00:00:00	2024-11-08T16:00:00	4	Temperatura máxima	17.9
107511	7	Sololá	701	Sololá	4	Finca Santa Victoria	5	Mayo	2023-05-17T00:00:00	2024-11-08T16:00:00	3	Temperatura mínima	17.3
107512	7	Sololá	701	Sololá	4	Finca Santa Victoria	5	Mayo	2023-05-17T00:00:00	2024-11-08T16:00:00	5	Humedad	89
107513	7	Sololá	701	Sololá	4	Finca Santa Victoria	5	Mayo	2023-05-17T00:00:00	2024-11-08T16:00:00	6	Velocidad del viento	3.2
107514	7	Sololá	701	Sololá	4	Finca Santa Victoria	5	Mayo	2023-05-17T00:00:00	2024-11-08T16:00:00	7	Dirección del viento	3.22
107515	7	Sololá	701	Sololá	4	Finca Santa Victoria	5	Mayo	2023-05-17T00:00:00	2024-11-08T16:00:00	1	Precipitación	0
107516	7	Sololá	701	Sololá	4	Finca Santa Victoria	5	Mayo	2023-05-17T00:00:00	2024-11-08T16:00:00	8	Radiación solar	155
107517	7	Sololá	701	Sololá	4	Finca Santa Victoria	5	Mayo	2023-05-17T00:00:00	2024-11-08T17:00:00	2	Temperatura media	16.4
107518	7	Sololá	701	Sololá	4	Finca Santa Victoria	5	Mayo	2023-05-17T00:00:00	2024-11-08T17:00:00	4	Temperatura máxima	17.4
107519	7	Sololá	701	Sololá	4	Finca Santa Victoria	5	Mayo	2023-05-17T00:00:00	2024-11-08T17:00:00	3	Temperatura mínima	16.4
107520	7	Sololá	701	Sololá	4	Finca Santa Victoria	5	Mayo	2023-05-17T00:00:00	2024-11-08T17:00:00	5	Humedad	94
107521	7	Sololá	701	Sololá	4	Finca Santa Victoria	5	Mayo	2023-05-17T00:00:00	2024-11-08T17:00:00	6	Velocidad del viento	1.6
107522	7	Sololá	701	Sololá	4	Finca Santa Victoria	5	Mayo	2023-05-17T00:00:00	2024-11-08T17:00:00	7	Dirección del viento	1.61
107523	7	Sololá	701	Sololá	4	Finca Santa Victoria	5	Mayo	2023-05-17T00:00:00	2024-11-08T17:00:00	1	Precipitación	0
107524	7	Sololá	701	Sololá	4	Finca Santa Victoria	5	Mayo	2023-05-17T00:00:00	2024-11-08T17:00:00	8	Radiación solar	39
107525	7	Sololá	701	Sololá	4	Finca Santa Victoria	5	Mayo	2023-05-17T00:00:00	2024-11-08T18:00:00	2	Temperatura media	16.1
107526	7	Sololá	701	Sololá	4	Finca Santa Victoria	5	Mayo	2023-05-17T00:00:00	2024-11-08T18:00:00	4	Temperatura máxima	16.4
107527	7	Sololá	701	Sololá	4	Finca Santa Victoria	5	Mayo	2023-05-17T00:00:00	2024-11-08T18:00:00	3	Temperatura mínima	16.1
107528	7	Sololá	701	Sololá	4	Finca Santa Victoria	5	Mayo	2023-05-17T00:00:00	2024-11-08T18:00:00	5	Humedad	96
107529	7	Sololá	701	Sololá	4	Finca Santa Victoria	5	Mayo	2023-05-17T00:00:00	2024-11-08T18:00:00	6	Velocidad del viento	1.6
107530	7	Sololá	701	Sololá	4	Finca Santa Victoria	5	Mayo	2023-05-17T00:00:00	2024-11-08T18:00:00	7	Dirección del viento	1.61
107531	7	Sololá	701	Sololá	4	Finca Santa Victoria	5	Mayo	2023-05-17T00:00:00	2024-11-08T18:00:00	1	Precipitación	0
107532	7	Sololá	701	Sololá	4	Finca Santa Victoria	5	Mayo	2023-05-17T00:00:00	2024-11-08T18:00:00	8	Radiación solar	14
107533	7	Sololá	701	Sololá	4	Finca Santa Victoria	5	Mayo	2023-05-17T00:00:00	2024-11-08T19:00:00	2	Temperatura media	15.2
107534	7	Sololá	701	Sololá	4	Finca Santa Victoria	5	Mayo	2023-05-17T00:00:00	2024-11-08T19:00:00	4	Temperatura máxima	16.1
107535	7	Sololá	701	Sololá	4	Finca Santa Victoria	5	Mayo	2023-05-17T00:00:00	2024-11-08T19:00:00	3	Temperatura mínima	15.2
107536	7	Sololá	701	Sololá	4	Finca Santa Victoria	5	Mayo	2023-05-17T00:00:00	2024-11-08T19:00:00	5	Humedad	97
107537	7	Sololá	701	Sololá	4	Finca Santa Victoria	5	Mayo	2023-05-17T00:00:00	2024-11-08T19:00:00	6	Velocidad del viento	1.6
107538	7	Sololá	701	Sololá	4	Finca Santa Victoria	5	Mayo	2023-05-17T00:00:00	2024-11-08T19:00:00	7	Dirección del viento	1.61
107539	7	Sololá	701	Sololá	4	Finca Santa Victoria	5	Mayo	2023-05-17T00:00:00	2024-11-08T19:00:00	1	Precipitación	2.4
107540	7	Sololá	701	Sololá	4	Finca Santa Victoria	5	Mayo	2023-05-17T00:00:00	2024-11-08T19:00:00	8	Radiación solar	0
107541	7	Sololá	701	Sololá	4	Finca Santa Victoria	5	Mayo	2023-05-17T00:00:00	2024-11-08T20:00:00	2	Temperatura media	14.6
107542	7	Sololá	701	Sololá	4	Finca Santa Victoria	5	Mayo	2023-05-17T00:00:00	2024-11-08T20:00:00	4	Temperatura máxima	15.3
107543	7	Sololá	701	Sololá	4	Finca Santa Victoria	5	Mayo	2023-05-17T00:00:00	2024-11-08T20:00:00	3	Temperatura mínima	14.5
107544	7	Sololá	701	Sololá	4	Finca Santa Victoria	5	Mayo	2023-05-17T00:00:00	2024-11-08T20:00:00	5	Humedad	98
107545	7	Sololá	701	Sololá	4	Finca Santa Victoria	5	Mayo	2023-05-17T00:00:00	2024-11-08T20:00:00	6	Velocidad del viento	0
107546	7	Sololá	701	Sololá	4	Finca Santa Victoria	5	Mayo	2023-05-17T00:00:00	2024-11-08T20:00:00	7	Dirección del viento	0
107547	7	Sololá	701	Sololá	4	Finca Santa Victoria	5	Mayo	2023-05-17T00:00:00	2024-11-08T20:00:00	1	Precipitación	0
107548	7	Sololá	701	Sololá	4	Finca Santa Victoria	5	Mayo	2023-05-17T00:00:00	2024-11-08T20:00:00	8	Radiación solar	0
107549	7	Sololá	701	Sololá	4	Finca Santa Victoria	5	Mayo	2023-05-17T00:00:00	2024-11-08T21:00:00	2	Temperatura media	14.1
107550	7	Sololá	701	Sololá	4	Finca Santa Victoria	5	Mayo	2023-05-17T00:00:00	2024-11-08T21:00:00	4	Temperatura máxima	14.6
107551	7	Sololá	701	Sololá	4	Finca Santa Victoria	5	Mayo	2023-05-17T00:00:00	2024-11-08T21:00:00	3	Temperatura mínima	14.1
107552	7	Sololá	701	Sololá	4	Finca Santa Victoria	5	Mayo	2023-05-17T00:00:00	2024-11-08T21:00:00	5	Humedad	97
107553	7	Sololá	701	Sololá	4	Finca Santa Victoria	5	Mayo	2023-05-17T00:00:00	2024-11-08T21:00:00	6	Velocidad del viento	0
107554	7	Sololá	701	Sololá	4	Finca Santa Victoria	5	Mayo	2023-05-17T00:00:00	2024-11-08T21:00:00	7	Dirección del viento	0
107555	7	Sololá	701	Sololá	4	Finca Santa Victoria	5	Mayo	2023-05-17T00:00:00	2024-11-08T21:00:00	1	Precipitación	0
107556	7	Sololá	701	Sololá	4	Finca Santa Victoria	5	Mayo	2023-05-17T00:00:00	2024-11-08T21:00:00	8	Radiación solar	0
107557	7	Sololá	701	Sololá	4	Finca Santa Victoria	5	Mayo	2023-05-17T00:00:00	2024-11-08T22:00:00	2	Temperatura media	14.1
107558	7	Sololá	701	Sololá	4	Finca Santa Victoria	5	Mayo	2023-05-17T00:00:00	2024-11-08T22:00:00	4	Temperatura máxima	14.1
107559	7	Sololá	701	Sololá	4	Finca Santa Victoria	5	Mayo	2023-05-17T00:00:00	2024-11-08T22:00:00	3	Temperatura mínima	13.8
107560	7	Sololá	701	Sololá	4	Finca Santa Victoria	5	Mayo	2023-05-17T00:00:00	2024-11-08T22:00:00	5	Humedad	98
107561	7	Sololá	701	Sololá	4	Finca Santa Victoria	5	Mayo	2023-05-17T00:00:00	2024-11-08T22:00:00	6	Velocidad del viento	0
107562	7	Sololá	701	Sololá	4	Finca Santa Victoria	5	Mayo	2023-05-17T00:00:00	2024-11-08T22:00:00	7	Dirección del viento	0
107563	7	Sololá	701	Sololá	4	Finca Santa Victoria	5	Mayo	2023-05-17T00:00:00	2024-11-08T22:00:00	1	Precipitación	0
107564	7	Sololá	701	Sololá	4	Finca Santa Victoria	5	Mayo	2023-05-17T00:00:00	2024-11-08T22:00:00	8	Radiación solar	0
107565	7	Sololá	701	Sololá	4	Finca Santa Victoria	5	Mayo	2023-05-17T00:00:00	2024-11-08T23:00:00	2	Temperatura media	13.9
107566	7	Sololá	701	Sololá	4	Finca Santa Victoria	5	Mayo	2023-05-17T00:00:00	2024-11-08T23:00:00	4	Temperatura máxima	14.1
107567	7	Sololá	701	Sololá	4	Finca Santa Victoria	5	Mayo	2023-05-17T00:00:00	2024-11-08T23:00:00	3	Temperatura mínima	13.9
107568	7	Sololá	701	Sololá	4	Finca Santa Victoria	5	Mayo	2023-05-17T00:00:00	2024-11-08T23:00:00	5	Humedad	98
107569	7	Sololá	701	Sololá	4	Finca Santa Victoria	5	Mayo	2023-05-17T00:00:00	2024-11-08T23:00:00	6	Velocidad del viento	0
107570	7	Sololá	701	Sololá	4	Finca Santa Victoria	5	Mayo	2023-05-17T00:00:00	2024-11-08T23:00:00	7	Dirección del viento	0
107571	7	Sololá	701	Sololá	4	Finca Santa Victoria	5	Mayo	2023-05-17T00:00:00	2024-11-08T23:00:00	1	Precipitación	0
107572	7	Sololá	701	Sololá	4	Finca Santa Victoria	5	Mayo	2023-05-17T00:00:00	2024-11-08T23:00:00	8	Radiación solar	0
107573	7	Sololá	701	Sololá	4	Finca Santa Victoria	5	Mayo	2023-05-18T00:00:00	2024-11-08T00:00:00	2	Temperatura media	13.7
107574	7	Sololá	701	Sololá	4	Finca Santa Victoria	5	Mayo	2023-05-18T00:00:00	2024-11-08T00:00:00	4	Temperatura máxima	14.1
107575	7	Sololá	701	Sololá	4	Finca Santa Victoria	5	Mayo	2023-05-18T00:00:00	2024-11-08T00:00:00	3	Temperatura mínima	13.7
107576	7	Sololá	701	Sololá	4	Finca Santa Victoria	5	Mayo	2023-05-18T00:00:00	2024-11-08T00:00:00	5	Humedad	97
107577	7	Sololá	701	Sololá	4	Finca Santa Victoria	5	Mayo	2023-05-18T00:00:00	2024-11-08T00:00:00	6	Velocidad del viento	0
107578	7	Sololá	701	Sololá	4	Finca Santa Victoria	5	Mayo	2023-05-18T00:00:00	2024-11-08T00:00:00	7	Dirección del viento	0
107579	7	Sololá	701	Sololá	4	Finca Santa Victoria	5	Mayo	2023-05-18T00:00:00	2024-11-08T00:00:00	1	Precipitación	0
107580	7	Sololá	701	Sololá	4	Finca Santa Victoria	5	Mayo	2023-05-18T00:00:00	2024-11-08T00:00:00	8	Radiación solar	0
107581	7	Sololá	701	Sololá	4	Finca Santa Victoria	5	Mayo	2023-05-18T00:00:00	2024-11-08T01:00:00	2	Temperatura media	13.3
107582	7	Sololá	701	Sololá	4	Finca Santa Victoria	5	Mayo	2023-05-18T00:00:00	2024-11-08T01:00:00	4	Temperatura máxima	13.8
107583	7	Sololá	701	Sololá	4	Finca Santa Victoria	5	Mayo	2023-05-18T00:00:00	2024-11-08T01:00:00	3	Temperatura mínima	13.2
107584	7	Sololá	701	Sololá	4	Finca Santa Victoria	5	Mayo	2023-05-18T00:00:00	2024-11-08T01:00:00	5	Humedad	97
107585	7	Sololá	701	Sololá	4	Finca Santa Victoria	5	Mayo	2023-05-18T00:00:00	2024-11-08T01:00:00	6	Velocidad del viento	0
107586	7	Sololá	701	Sololá	4	Finca Santa Victoria	5	Mayo	2023-05-18T00:00:00	2024-11-08T01:00:00	7	Dirección del viento	0
107587	7	Sololá	701	Sololá	4	Finca Santa Victoria	5	Mayo	2023-05-18T00:00:00	2024-11-08T01:00:00	1	Precipitación	0
107588	7	Sololá	701	Sololá	4	Finca Santa Victoria	5	Mayo	2023-05-18T00:00:00	2024-11-08T01:00:00	8	Radiación solar	0
107589	7	Sololá	701	Sololá	4	Finca Santa Victoria	5	Mayo	2023-05-18T00:00:00	2024-11-08T02:00:00	2	Temperatura media	12.9
107590	7	Sololá	701	Sololá	4	Finca Santa Victoria	5	Mayo	2023-05-18T00:00:00	2024-11-08T02:00:00	4	Temperatura máxima	13.3
107591	7	Sololá	701	Sololá	4	Finca Santa Victoria	5	Mayo	2023-05-18T00:00:00	2024-11-08T02:00:00	3	Temperatura mínima	12.9
107592	7	Sololá	701	Sololá	4	Finca Santa Victoria	5	Mayo	2023-05-18T00:00:00	2024-11-08T02:00:00	5	Humedad	96
107593	7	Sololá	701	Sololá	4	Finca Santa Victoria	5	Mayo	2023-05-18T00:00:00	2024-11-08T02:00:00	6	Velocidad del viento	0
107594	7	Sololá	701	Sololá	4	Finca Santa Victoria	5	Mayo	2023-05-18T00:00:00	2024-11-08T02:00:00	7	Dirección del viento	0
107595	7	Sololá	701	Sololá	4	Finca Santa Victoria	5	Mayo	2023-05-18T00:00:00	2024-11-08T02:00:00	1	Precipitación	0.2
107596	7	Sololá	701	Sololá	4	Finca Santa Victoria	5	Mayo	2023-05-18T00:00:00	2024-11-08T02:00:00	8	Radiación solar	0
107597	7	Sololá	701	Sololá	4	Finca Santa Victoria	5	Mayo	2023-05-18T00:00:00	2024-11-08T03:00:00	2	Temperatura media	12.8
107598	7	Sololá	701	Sololá	4	Finca Santa Victoria	5	Mayo	2023-05-18T00:00:00	2024-11-08T03:00:00	4	Temperatura máxima	12.9
107599	7	Sololá	701	Sololá	4	Finca Santa Victoria	5	Mayo	2023-05-18T00:00:00	2024-11-08T03:00:00	3	Temperatura mínima	12.7
107600	7	Sololá	701	Sololá	4	Finca Santa Victoria	5	Mayo	2023-05-18T00:00:00	2024-11-08T03:00:00	5	Humedad	97
107601	7	Sololá	701	Sololá	4	Finca Santa Victoria	5	Mayo	2023-05-18T00:00:00	2024-11-08T03:00:00	6	Velocidad del viento	1.6
107602	7	Sololá	701	Sololá	4	Finca Santa Victoria	5	Mayo	2023-05-18T00:00:00	2024-11-08T03:00:00	7	Dirección del viento	1.61
107603	7	Sololá	701	Sololá	4	Finca Santa Victoria	5	Mayo	2023-05-18T00:00:00	2024-11-08T03:00:00	1	Precipitación	0
107604	7	Sololá	701	Sololá	4	Finca Santa Victoria	5	Mayo	2023-05-18T00:00:00	2024-11-08T03:00:00	8	Radiación solar	0
107605	7	Sololá	701	Sololá	4	Finca Santa Victoria	5	Mayo	2023-05-18T00:00:00	2024-11-08T04:00:00	2	Temperatura media	12.8
107606	7	Sololá	701	Sololá	4	Finca Santa Victoria	5	Mayo	2023-05-18T00:00:00	2024-11-08T04:00:00	4	Temperatura máxima	13.1
107607	7	Sololá	701	Sololá	4	Finca Santa Victoria	5	Mayo	2023-05-18T00:00:00	2024-11-08T04:00:00	3	Temperatura mínima	12.8
107608	7	Sololá	701	Sololá	4	Finca Santa Victoria	5	Mayo	2023-05-18T00:00:00	2024-11-08T04:00:00	5	Humedad	96
107609	7	Sololá	701	Sololá	4	Finca Santa Victoria	5	Mayo	2023-05-18T00:00:00	2024-11-08T04:00:00	6	Velocidad del viento	1.6
107610	7	Sololá	701	Sololá	4	Finca Santa Victoria	5	Mayo	2023-05-18T00:00:00	2024-11-08T04:00:00	7	Dirección del viento	1.61
107611	7	Sololá	701	Sololá	4	Finca Santa Victoria	5	Mayo	2023-05-18T00:00:00	2024-11-08T04:00:00	1	Precipitación	0
107612	7	Sololá	701	Sololá	4	Finca Santa Victoria	5	Mayo	2023-05-18T00:00:00	2024-11-08T04:00:00	8	Radiación solar	0
107613	7	Sololá	701	Sololá	4	Finca Santa Victoria	5	Mayo	2023-05-18T00:00:00	2024-11-08T05:00:00	2	Temperatura media	12.4
107614	7	Sololá	701	Sololá	4	Finca Santa Victoria	5	Mayo	2023-05-18T00:00:00	2024-11-08T05:00:00	4	Temperatura máxima	12.9
107615	7	Sololá	701	Sololá	4	Finca Santa Victoria	5	Mayo	2023-05-18T00:00:00	2024-11-08T05:00:00	3	Temperatura mínima	12.4
107616	7	Sololá	701	Sololá	4	Finca Santa Victoria	5	Mayo	2023-05-18T00:00:00	2024-11-08T05:00:00	5	Humedad	96
107617	7	Sololá	701	Sololá	4	Finca Santa Victoria	5	Mayo	2023-05-18T00:00:00	2024-11-08T05:00:00	6	Velocidad del viento	0
107618	7	Sololá	701	Sololá	4	Finca Santa Victoria	5	Mayo	2023-05-18T00:00:00	2024-11-08T05:00:00	7	Dirección del viento	0
107619	7	Sololá	701	Sololá	4	Finca Santa Victoria	5	Mayo	2023-05-18T00:00:00	2024-11-08T05:00:00	1	Precipitación	0
107620	7	Sololá	701	Sololá	4	Finca Santa Victoria	5	Mayo	2023-05-18T00:00:00	2024-11-08T05:00:00	8	Radiación solar	0
107621	7	Sololá	701	Sololá	4	Finca Santa Victoria	5	Mayo	2023-05-18T00:00:00	2024-11-08T06:00:00	2	Temperatura media	12.3
107622	7	Sololá	701	Sololá	4	Finca Santa Victoria	5	Mayo	2023-05-18T00:00:00	2024-11-08T06:00:00	4	Temperatura máxima	12.4
107623	7	Sololá	701	Sololá	4	Finca Santa Victoria	5	Mayo	2023-05-18T00:00:00	2024-11-08T06:00:00	3	Temperatura mínima	12.2
107624	7	Sololá	701	Sololá	4	Finca Santa Victoria	5	Mayo	2023-05-18T00:00:00	2024-11-08T06:00:00	5	Humedad	96
107625	7	Sololá	701	Sololá	4	Finca Santa Victoria	5	Mayo	2023-05-18T00:00:00	2024-11-08T06:00:00	6	Velocidad del viento	0
107626	7	Sololá	701	Sololá	4	Finca Santa Victoria	5	Mayo	2023-05-18T00:00:00	2024-11-08T06:00:00	7	Dirección del viento	0
107627	7	Sololá	701	Sololá	4	Finca Santa Victoria	5	Mayo	2023-05-18T00:00:00	2024-11-08T06:00:00	1	Precipitación	0
107628	7	Sololá	701	Sololá	4	Finca Santa Victoria	5	Mayo	2023-05-18T00:00:00	2024-11-08T06:00:00	8	Radiación solar	3
107629	7	Sololá	701	Sololá	4	Finca Santa Victoria	5	Mayo	2023-05-18T00:00:00	2024-11-08T07:00:00	2	Temperatura media	13.1
107630	7	Sololá	701	Sololá	4	Finca Santa Victoria	5	Mayo	2023-05-18T00:00:00	2024-11-08T07:00:00	4	Temperatura máxima	13.2
107631	7	Sololá	701	Sololá	4	Finca Santa Victoria	5	Mayo	2023-05-18T00:00:00	2024-11-08T07:00:00	3	Temperatura mínima	12.3
107632	7	Sololá	701	Sololá	4	Finca Santa Victoria	5	Mayo	2023-05-18T00:00:00	2024-11-08T07:00:00	5	Humedad	96
107633	7	Sololá	701	Sololá	4	Finca Santa Victoria	5	Mayo	2023-05-18T00:00:00	2024-11-08T07:00:00	6	Velocidad del viento	0
107634	7	Sololá	701	Sololá	4	Finca Santa Victoria	5	Mayo	2023-05-18T00:00:00	2024-11-08T07:00:00	7	Dirección del viento	0
107635	7	Sololá	701	Sololá	4	Finca Santa Victoria	5	Mayo	2023-05-18T00:00:00	2024-11-08T07:00:00	1	Precipitación	0
107636	7	Sololá	701	Sololá	4	Finca Santa Victoria	5	Mayo	2023-05-18T00:00:00	2024-11-08T07:00:00	8	Radiación solar	42
107637	7	Sololá	701	Sololá	4	Finca Santa Victoria	5	Mayo	2023-05-18T00:00:00	2024-11-08T08:00:00	2	Temperatura media	15.1
107638	7	Sololá	701	Sololá	4	Finca Santa Victoria	5	Mayo	2023-05-18T00:00:00	2024-11-08T08:00:00	4	Temperatura máxima	15.1
107639	7	Sololá	701	Sololá	4	Finca Santa Victoria	5	Mayo	2023-05-18T00:00:00	2024-11-08T08:00:00	3	Temperatura mínima	13.2
107640	7	Sololá	701	Sololá	4	Finca Santa Victoria	5	Mayo	2023-05-18T00:00:00	2024-11-08T08:00:00	5	Humedad	92
107641	7	Sololá	701	Sololá	4	Finca Santa Victoria	5	Mayo	2023-05-18T00:00:00	2024-11-08T08:00:00	6	Velocidad del viento	1.6
107642	7	Sololá	701	Sololá	4	Finca Santa Victoria	5	Mayo	2023-05-18T00:00:00	2024-11-08T08:00:00	7	Dirección del viento	1.61
107643	7	Sololá	701	Sololá	4	Finca Santa Victoria	5	Mayo	2023-05-18T00:00:00	2024-11-08T08:00:00	1	Precipitación	0
107644	7	Sololá	701	Sololá	4	Finca Santa Victoria	5	Mayo	2023-05-18T00:00:00	2024-11-08T08:00:00	8	Radiación solar	198
107645	7	Sololá	701	Sololá	4	Finca Santa Victoria	5	Mayo	2023-05-18T00:00:00	2024-11-08T09:00:00	2	Temperatura media	17.6
107646	7	Sololá	701	Sololá	4	Finca Santa Victoria	5	Mayo	2023-05-18T00:00:00	2024-11-08T09:00:00	4	Temperatura máxima	17.6
107647	7	Sololá	701	Sololá	4	Finca Santa Victoria	5	Mayo	2023-05-18T00:00:00	2024-11-08T09:00:00	3	Temperatura mínima	15.1
107648	7	Sololá	701	Sololá	4	Finca Santa Victoria	5	Mayo	2023-05-18T00:00:00	2024-11-08T09:00:00	5	Humedad	75
107649	7	Sololá	701	Sololá	4	Finca Santa Victoria	5	Mayo	2023-05-18T00:00:00	2024-11-08T09:00:00	6	Velocidad del viento	1.6
107650	7	Sololá	701	Sololá	4	Finca Santa Victoria	5	Mayo	2023-05-18T00:00:00	2024-11-08T09:00:00	7	Dirección del viento	1.61
107651	7	Sololá	701	Sololá	4	Finca Santa Victoria	5	Mayo	2023-05-18T00:00:00	2024-11-08T09:00:00	1	Precipitación	0
107652	7	Sololá	701	Sololá	4	Finca Santa Victoria	5	Mayo	2023-05-18T00:00:00	2024-11-08T09:00:00	8	Radiación solar	306
107653	7	Sololá	701	Sololá	4	Finca Santa Victoria	5	Mayo	2023-05-18T00:00:00	2024-11-08T10:00:00	2	Temperatura media	19.1
107654	7	Sololá	701	Sololá	4	Finca Santa Victoria	5	Mayo	2023-05-18T00:00:00	2024-11-08T10:00:00	4	Temperatura máxima	19.2
107655	7	Sololá	701	Sololá	4	Finca Santa Victoria	5	Mayo	2023-05-18T00:00:00	2024-11-08T10:00:00	3	Temperatura mínima	17.6
107656	7	Sololá	701	Sololá	4	Finca Santa Victoria	5	Mayo	2023-05-18T00:00:00	2024-11-08T10:00:00	5	Humedad	75
107657	7	Sololá	701	Sololá	4	Finca Santa Victoria	5	Mayo	2023-05-18T00:00:00	2024-11-08T10:00:00	6	Velocidad del viento	1.6
107658	7	Sololá	701	Sololá	4	Finca Santa Victoria	5	Mayo	2023-05-18T00:00:00	2024-11-08T10:00:00	7	Dirección del viento	1.61
107659	7	Sololá	701	Sololá	4	Finca Santa Victoria	5	Mayo	2023-05-18T00:00:00	2024-11-08T10:00:00	1	Precipitación	0
107660	7	Sololá	701	Sololá	4	Finca Santa Victoria	5	Mayo	2023-05-18T00:00:00	2024-11-08T10:00:00	8	Radiación solar	271
107661	7	Sololá	701	Sololá	4	Finca Santa Victoria	5	Mayo	2023-05-18T00:00:00	2024-11-08T11:00:00	2	Temperatura media	19.1
107662	7	Sololá	701	Sololá	4	Finca Santa Victoria	5	Mayo	2023-05-18T00:00:00	2024-11-08T11:00:00	4	Temperatura máxima	19.8
107663	7	Sololá	701	Sololá	4	Finca Santa Victoria	5	Mayo	2023-05-18T00:00:00	2024-11-08T11:00:00	3	Temperatura mínima	18.6
107664	7	Sololá	701	Sololá	4	Finca Santa Victoria	5	Mayo	2023-05-18T00:00:00	2024-11-08T11:00:00	5	Humedad	81
107665	7	Sololá	701	Sololá	4	Finca Santa Victoria	5	Mayo	2023-05-18T00:00:00	2024-11-08T11:00:00	6	Velocidad del viento	1.6
107666	7	Sololá	701	Sololá	4	Finca Santa Victoria	5	Mayo	2023-05-18T00:00:00	2024-11-08T11:00:00	7	Dirección del viento	1.61
107667	7	Sololá	701	Sololá	4	Finca Santa Victoria	5	Mayo	2023-05-18T00:00:00	2024-11-08T11:00:00	1	Precipitación	0
107668	7	Sololá	701	Sololá	4	Finca Santa Victoria	5	Mayo	2023-05-18T00:00:00	2024-11-08T11:00:00	8	Radiación solar	290
107669	7	Sololá	701	Sololá	4	Finca Santa Victoria	5	Mayo	2023-05-18T00:00:00	2024-11-08T12:00:00	2	Temperatura media	20.3
107670	7	Sololá	701	Sololá	4	Finca Santa Victoria	5	Mayo	2023-05-18T00:00:00	2024-11-08T12:00:00	4	Temperatura máxima	20.4
107671	7	Sololá	701	Sololá	4	Finca Santa Victoria	5	Mayo	2023-05-18T00:00:00	2024-11-08T12:00:00	3	Temperatura mínima	19.1
107672	7	Sololá	701	Sololá	4	Finca Santa Victoria	5	Mayo	2023-05-18T00:00:00	2024-11-08T12:00:00	5	Humedad	79
107673	7	Sololá	701	Sololá	4	Finca Santa Victoria	5	Mayo	2023-05-18T00:00:00	2024-11-08T12:00:00	6	Velocidad del viento	4.8
107674	7	Sololá	701	Sololá	4	Finca Santa Victoria	5	Mayo	2023-05-18T00:00:00	2024-11-08T12:00:00	7	Dirección del viento	4.83
107675	7	Sololá	701	Sololá	4	Finca Santa Victoria	5	Mayo	2023-05-18T00:00:00	2024-11-08T12:00:00	1	Precipitación	0
107676	7	Sololá	701	Sololá	4	Finca Santa Victoria	5	Mayo	2023-05-18T00:00:00	2024-11-08T12:00:00	8	Radiación solar	837
107677	7	Sololá	701	Sololá	4	Finca Santa Victoria	5	Mayo	2023-05-18T00:00:00	2024-11-08T13:00:00	2	Temperatura media	20.3
107678	7	Sololá	701	Sololá	4	Finca Santa Victoria	5	Mayo	2023-05-18T00:00:00	2024-11-08T13:00:00	4	Temperatura máxima	20.7
107679	7	Sololá	701	Sololá	4	Finca Santa Victoria	5	Mayo	2023-05-18T00:00:00	2024-11-08T13:00:00	3	Temperatura mínima	19.3
107680	7	Sololá	701	Sololá	4	Finca Santa Victoria	5	Mayo	2023-05-18T00:00:00	2024-11-08T13:00:00	5	Humedad	80
107681	7	Sololá	701	Sololá	4	Finca Santa Victoria	5	Mayo	2023-05-18T00:00:00	2024-11-08T13:00:00	6	Velocidad del viento	4.8
107682	7	Sololá	701	Sololá	4	Finca Santa Victoria	5	Mayo	2023-05-18T00:00:00	2024-11-08T13:00:00	7	Dirección del viento	4.83
107683	7	Sololá	701	Sololá	4	Finca Santa Victoria	5	Mayo	2023-05-18T00:00:00	2024-11-08T13:00:00	1	Precipitación	0
107684	7	Sololá	701	Sololá	4	Finca Santa Victoria	5	Mayo	2023-05-18T00:00:00	2024-11-08T13:00:00	8	Radiación solar	852
107685	7	Sololá	701	Sololá	4	Finca Santa Victoria	5	Mayo	2023-05-18T00:00:00	2024-11-08T14:00:00	2	Temperatura media	19.3
107686	7	Sololá	701	Sololá	4	Finca Santa Victoria	5	Mayo	2023-05-18T00:00:00	2024-11-08T14:00:00	4	Temperatura máxima	20.8
107687	7	Sololá	701	Sololá	4	Finca Santa Victoria	5	Mayo	2023-05-18T00:00:00	2024-11-08T14:00:00	3	Temperatura mínima	19.3
107688	7	Sololá	701	Sololá	4	Finca Santa Victoria	5	Mayo	2023-05-18T00:00:00	2024-11-08T14:00:00	5	Humedad	83
107689	7	Sololá	701	Sololá	4	Finca Santa Victoria	5	Mayo	2023-05-18T00:00:00	2024-11-08T14:00:00	6	Velocidad del viento	4.8
107690	7	Sololá	701	Sololá	4	Finca Santa Victoria	5	Mayo	2023-05-18T00:00:00	2024-11-08T14:00:00	7	Dirección del viento	4.83
107691	7	Sololá	701	Sololá	4	Finca Santa Victoria	5	Mayo	2023-05-18T00:00:00	2024-11-08T14:00:00	1	Precipitación	0
107692	7	Sololá	701	Sololá	4	Finca Santa Victoria	5	Mayo	2023-05-18T00:00:00	2024-11-08T14:00:00	8	Radiación solar	528
107693	7	Sololá	701	Sololá	4	Finca Santa Victoria	5	Mayo	2023-05-18T00:00:00	2024-11-08T15:00:00	2	Temperatura media	19.3
107694	7	Sololá	701	Sololá	4	Finca Santa Victoria	5	Mayo	2023-05-18T00:00:00	2024-11-08T15:00:00	4	Temperatura máxima	20
107695	7	Sololá	701	Sololá	4	Finca Santa Victoria	5	Mayo	2023-05-18T00:00:00	2024-11-08T15:00:00	3	Temperatura mínima	19.1
107696	7	Sololá	701	Sololá	4	Finca Santa Victoria	5	Mayo	2023-05-18T00:00:00	2024-11-08T15:00:00	5	Humedad	85
107697	7	Sololá	701	Sololá	4	Finca Santa Victoria	5	Mayo	2023-05-18T00:00:00	2024-11-08T15:00:00	6	Velocidad del viento	4.8
107698	7	Sololá	701	Sololá	4	Finca Santa Victoria	5	Mayo	2023-05-18T00:00:00	2024-11-08T15:00:00	7	Dirección del viento	4.83
107699	7	Sololá	701	Sololá	4	Finca Santa Victoria	5	Mayo	2023-05-18T00:00:00	2024-11-08T15:00:00	1	Precipitación	0
107700	7	Sololá	701	Sololá	4	Finca Santa Victoria	5	Mayo	2023-05-18T00:00:00	2024-11-08T15:00:00	8	Radiación solar	257
107701	7	Sololá	701	Sololá	4	Finca Santa Victoria	5	Mayo	2023-05-18T00:00:00	2024-11-08T16:00:00	2	Temperatura media	19.3
107702	7	Sololá	701	Sololá	4	Finca Santa Victoria	5	Mayo	2023-05-18T00:00:00	2024-11-08T16:00:00	4	Temperatura máxima	19.5
107703	7	Sololá	701	Sololá	4	Finca Santa Victoria	5	Mayo	2023-05-18T00:00:00	2024-11-08T16:00:00	3	Temperatura mínima	19.2
107704	7	Sololá	701	Sololá	4	Finca Santa Victoria	5	Mayo	2023-05-18T00:00:00	2024-11-08T16:00:00	5	Humedad	86
107705	7	Sololá	701	Sololá	4	Finca Santa Victoria	5	Mayo	2023-05-18T00:00:00	2024-11-08T16:00:00	6	Velocidad del viento	3.2
107706	7	Sololá	701	Sololá	4	Finca Santa Victoria	5	Mayo	2023-05-18T00:00:00	2024-11-08T16:00:00	7	Dirección del viento	3.22
107707	7	Sololá	701	Sololá	4	Finca Santa Victoria	5	Mayo	2023-05-18T00:00:00	2024-11-08T16:00:00	1	Precipitación	0
107708	7	Sololá	701	Sololá	4	Finca Santa Victoria	5	Mayo	2023-05-18T00:00:00	2024-11-08T16:00:00	8	Radiación solar	218
107709	7	Sololá	701	Sololá	4	Finca Santa Victoria	5	Mayo	2023-05-18T00:00:00	2024-11-08T17:00:00	2	Temperatura media	17.3
107710	7	Sololá	701	Sololá	4	Finca Santa Victoria	5	Mayo	2023-05-18T00:00:00	2024-11-08T17:00:00	4	Temperatura máxima	19.3
107711	7	Sololá	701	Sololá	4	Finca Santa Victoria	5	Mayo	2023-05-18T00:00:00	2024-11-08T17:00:00	3	Temperatura mínima	17.2
107712	7	Sololá	701	Sololá	4	Finca Santa Victoria	5	Mayo	2023-05-18T00:00:00	2024-11-08T17:00:00	5	Humedad	95
107713	7	Sololá	701	Sololá	4	Finca Santa Victoria	5	Mayo	2023-05-18T00:00:00	2024-11-08T17:00:00	6	Velocidad del viento	3.2
107714	7	Sololá	701	Sololá	4	Finca Santa Victoria	5	Mayo	2023-05-18T00:00:00	2024-11-08T17:00:00	7	Dirección del viento	3.22
107715	7	Sololá	701	Sololá	4	Finca Santa Victoria	5	Mayo	2023-05-18T00:00:00	2024-11-08T17:00:00	1	Precipitación	0
107716	7	Sololá	701	Sololá	4	Finca Santa Victoria	5	Mayo	2023-05-18T00:00:00	2024-11-08T17:00:00	8	Radiación solar	71
107717	7	Sololá	701	Sololá	4	Finca Santa Victoria	5	Mayo	2023-05-18T00:00:00	2024-11-08T18:00:00	2	Temperatura media	17
107718	7	Sololá	701	Sololá	4	Finca Santa Victoria	5	Mayo	2023-05-18T00:00:00	2024-11-08T18:00:00	4	Temperatura máxima	17.3
107719	7	Sololá	701	Sololá	4	Finca Santa Victoria	5	Mayo	2023-05-18T00:00:00	2024-11-08T18:00:00	3	Temperatura mínima	17
107720	7	Sololá	701	Sololá	4	Finca Santa Victoria	5	Mayo	2023-05-18T00:00:00	2024-11-08T18:00:00	5	Humedad	95
107721	7	Sololá	701	Sololá	4	Finca Santa Victoria	5	Mayo	2023-05-18T00:00:00	2024-11-08T18:00:00	6	Velocidad del viento	1.6
107722	7	Sololá	701	Sololá	4	Finca Santa Victoria	5	Mayo	2023-05-18T00:00:00	2024-11-08T18:00:00	7	Dirección del viento	1.61
107723	7	Sololá	701	Sololá	4	Finca Santa Victoria	5	Mayo	2023-05-18T00:00:00	2024-11-08T18:00:00	1	Precipitación	0
107724	7	Sololá	701	Sololá	4	Finca Santa Victoria	5	Mayo	2023-05-18T00:00:00	2024-11-08T18:00:00	8	Radiación solar	11
107725	7	Sololá	701	Sololá	4	Finca Santa Victoria	5	Mayo	2023-05-18T00:00:00	2024-11-08T19:00:00	2	Temperatura media	16.9
107726	7	Sololá	701	Sololá	4	Finca Santa Victoria	5	Mayo	2023-05-18T00:00:00	2024-11-08T19:00:00	4	Temperatura máxima	17
107727	7	Sololá	701	Sololá	4	Finca Santa Victoria	5	Mayo	2023-05-18T00:00:00	2024-11-08T19:00:00	3	Temperatura mínima	16.7
107728	7	Sololá	701	Sololá	4	Finca Santa Victoria	5	Mayo	2023-05-18T00:00:00	2024-11-08T19:00:00	5	Humedad	80
107729	7	Sololá	701	Sololá	4	Finca Santa Victoria	5	Mayo	2023-05-18T00:00:00	2024-11-08T19:00:00	6	Velocidad del viento	1.6
107730	7	Sololá	701	Sololá	4	Finca Santa Victoria	5	Mayo	2023-05-18T00:00:00	2024-11-08T19:00:00	7	Dirección del viento	1.61
107731	7	Sololá	701	Sololá	4	Finca Santa Victoria	5	Mayo	2023-05-18T00:00:00	2024-11-08T19:00:00	1	Precipitación	0
107732	7	Sololá	701	Sololá	4	Finca Santa Victoria	5	Mayo	2023-05-18T00:00:00	2024-11-08T19:00:00	8	Radiación solar	0
107733	7	Sololá	701	Sololá	4	Finca Santa Victoria	5	Mayo	2023-05-18T00:00:00	2024-11-08T20:00:00	2	Temperatura media	16.2
107734	7	Sololá	701	Sololá	4	Finca Santa Victoria	5	Mayo	2023-05-18T00:00:00	2024-11-08T20:00:00	4	Temperatura máxima	17
107735	7	Sololá	701	Sololá	4	Finca Santa Victoria	5	Mayo	2023-05-18T00:00:00	2024-11-08T20:00:00	3	Temperatura mínima	15.7
107736	7	Sololá	701	Sololá	4	Finca Santa Victoria	5	Mayo	2023-05-18T00:00:00	2024-11-08T20:00:00	5	Humedad	87
107737	7	Sololá	701	Sololá	4	Finca Santa Victoria	5	Mayo	2023-05-18T00:00:00	2024-11-08T20:00:00	6	Velocidad del viento	1.6
107738	7	Sololá	701	Sololá	4	Finca Santa Victoria	5	Mayo	2023-05-18T00:00:00	2024-11-08T20:00:00	7	Dirección del viento	1.61
107739	7	Sololá	701	Sololá	4	Finca Santa Victoria	5	Mayo	2023-05-18T00:00:00	2024-11-08T20:00:00	1	Precipitación	0
107740	7	Sololá	701	Sololá	4	Finca Santa Victoria	5	Mayo	2023-05-18T00:00:00	2024-11-08T20:00:00	8	Radiación solar	0
107741	7	Sololá	701	Sololá	4	Finca Santa Victoria	5	Mayo	2023-05-18T00:00:00	2024-11-08T21:00:00	2	Temperatura media	15.6
107742	7	Sololá	701	Sololá	4	Finca Santa Victoria	5	Mayo	2023-05-18T00:00:00	2024-11-08T21:00:00	4	Temperatura máxima	16.4
107743	7	Sololá	701	Sololá	4	Finca Santa Victoria	5	Mayo	2023-05-18T00:00:00	2024-11-08T21:00:00	3	Temperatura mínima	15.4
107744	7	Sololá	701	Sololá	4	Finca Santa Victoria	5	Mayo	2023-05-18T00:00:00	2024-11-08T21:00:00	5	Humedad	87
107745	7	Sololá	701	Sololá	4	Finca Santa Victoria	5	Mayo	2023-05-18T00:00:00	2024-11-08T21:00:00	6	Velocidad del viento	1.6
107746	7	Sololá	701	Sololá	4	Finca Santa Victoria	5	Mayo	2023-05-18T00:00:00	2024-11-08T21:00:00	7	Dirección del viento	1.61
107747	7	Sololá	701	Sololá	4	Finca Santa Victoria	5	Mayo	2023-05-18T00:00:00	2024-11-08T21:00:00	1	Precipitación	0
107748	7	Sololá	701	Sololá	4	Finca Santa Victoria	5	Mayo	2023-05-18T00:00:00	2024-11-08T21:00:00	8	Radiación solar	0
107749	7	Sololá	701	Sololá	4	Finca Santa Victoria	5	Mayo	2023-05-18T00:00:00	2024-11-08T22:00:00	2	Temperatura media	15.2
107750	7	Sololá	701	Sololá	4	Finca Santa Victoria	5	Mayo	2023-05-18T00:00:00	2024-11-08T22:00:00	4	Temperatura máxima	15.7
107751	7	Sololá	701	Sololá	4	Finca Santa Victoria	5	Mayo	2023-05-18T00:00:00	2024-11-08T22:00:00	3	Temperatura mínima	15.2
107752	7	Sololá	701	Sololá	4	Finca Santa Victoria	5	Mayo	2023-05-18T00:00:00	2024-11-08T22:00:00	5	Humedad	89
107753	7	Sololá	701	Sololá	4	Finca Santa Victoria	5	Mayo	2023-05-18T00:00:00	2024-11-08T22:00:00	6	Velocidad del viento	0
107754	7	Sololá	701	Sololá	4	Finca Santa Victoria	5	Mayo	2023-05-18T00:00:00	2024-11-08T22:00:00	7	Dirección del viento	0
107755	7	Sololá	701	Sololá	4	Finca Santa Victoria	5	Mayo	2023-05-18T00:00:00	2024-11-08T22:00:00	1	Precipitación	0
107756	7	Sololá	701	Sololá	4	Finca Santa Victoria	5	Mayo	2023-05-18T00:00:00	2024-11-08T22:00:00	8	Radiación solar	0
107757	7	Sololá	701	Sololá	4	Finca Santa Victoria	5	Mayo	2023-05-18T00:00:00	2024-11-08T23:00:00	2	Temperatura media	15.1
107758	7	Sololá	701	Sololá	4	Finca Santa Victoria	5	Mayo	2023-05-18T00:00:00	2024-11-08T23:00:00	4	Temperatura máxima	15.3
107759	7	Sololá	701	Sololá	4	Finca Santa Victoria	5	Mayo	2023-05-18T00:00:00	2024-11-08T23:00:00	3	Temperatura mínima	14.9
107760	7	Sololá	701	Sololá	4	Finca Santa Victoria	5	Mayo	2023-05-18T00:00:00	2024-11-08T23:00:00	5	Humedad	88
107761	7	Sololá	701	Sololá	4	Finca Santa Victoria	5	Mayo	2023-05-18T00:00:00	2024-11-08T23:00:00	6	Velocidad del viento	1.6
107762	7	Sololá	701	Sololá	4	Finca Santa Victoria	5	Mayo	2023-05-18T00:00:00	2024-11-08T23:00:00	7	Dirección del viento	1.61
107763	7	Sololá	701	Sololá	4	Finca Santa Victoria	5	Mayo	2023-05-18T00:00:00	2024-11-08T23:00:00	1	Precipitación	0
107764	7	Sololá	701	Sololá	4	Finca Santa Victoria	5	Mayo	2023-05-18T00:00:00	2024-11-08T23:00:00	8	Radiación solar	0
107765	7	Sololá	701	Sololá	4	Finca Santa Victoria	5	Mayo	2023-05-19T00:00:00	2024-11-08T00:00:00	2	Temperatura media	15.2
107766	7	Sololá	701	Sololá	4	Finca Santa Victoria	5	Mayo	2023-05-19T00:00:00	2024-11-08T00:00:00	4	Temperatura máxima	15.2
107767	7	Sololá	701	Sololá	4	Finca Santa Victoria	5	Mayo	2023-05-19T00:00:00	2024-11-08T00:00:00	3	Temperatura mínima	14.8
107768	7	Sololá	701	Sololá	4	Finca Santa Victoria	5	Mayo	2023-05-19T00:00:00	2024-11-08T00:00:00	5	Humedad	87
107769	7	Sololá	701	Sololá	4	Finca Santa Victoria	5	Mayo	2023-05-19T00:00:00	2024-11-08T00:00:00	6	Velocidad del viento	1.6
107770	7	Sololá	701	Sololá	4	Finca Santa Victoria	5	Mayo	2023-05-19T00:00:00	2024-11-08T00:00:00	7	Dirección del viento	1.61
107771	7	Sololá	701	Sololá	4	Finca Santa Victoria	5	Mayo	2023-05-19T00:00:00	2024-11-08T00:00:00	1	Precipitación	0
107772	7	Sololá	701	Sololá	4	Finca Santa Victoria	5	Mayo	2023-05-19T00:00:00	2024-11-08T00:00:00	8	Radiación solar	0
107773	7	Sololá	701	Sololá	4	Finca Santa Victoria	5	Mayo	2023-05-19T00:00:00	2024-11-08T01:00:00	2	Temperatura media	15.3
107774	7	Sololá	701	Sololá	4	Finca Santa Victoria	5	Mayo	2023-05-19T00:00:00	2024-11-08T01:00:00	4	Temperatura máxima	15.4
107775	7	Sololá	701	Sololá	4	Finca Santa Victoria	5	Mayo	2023-05-19T00:00:00	2024-11-08T01:00:00	3	Temperatura mínima	15.2
107776	7	Sololá	701	Sololá	4	Finca Santa Victoria	5	Mayo	2023-05-19T00:00:00	2024-11-08T01:00:00	5	Humedad	88
107777	7	Sololá	701	Sololá	4	Finca Santa Victoria	5	Mayo	2023-05-19T00:00:00	2024-11-08T01:00:00	6	Velocidad del viento	1.6
107778	7	Sololá	701	Sololá	4	Finca Santa Victoria	5	Mayo	2023-05-19T00:00:00	2024-11-08T01:00:00	7	Dirección del viento	1.61
107779	7	Sololá	701	Sololá	4	Finca Santa Victoria	5	Mayo	2023-05-19T00:00:00	2024-11-08T01:00:00	1	Precipitación	0
107780	7	Sololá	701	Sololá	4	Finca Santa Victoria	5	Mayo	2023-05-19T00:00:00	2024-11-08T01:00:00	8	Radiación solar	0
107781	7	Sololá	701	Sololá	4	Finca Santa Victoria	5	Mayo	2023-05-19T00:00:00	2024-11-08T02:00:00	2	Temperatura media	15.3
107782	7	Sololá	701	Sololá	4	Finca Santa Victoria	5	Mayo	2023-05-19T00:00:00	2024-11-08T02:00:00	4	Temperatura máxima	15.3
107783	7	Sololá	701	Sololá	4	Finca Santa Victoria	5	Mayo	2023-05-19T00:00:00	2024-11-08T02:00:00	3	Temperatura mínima	14.9
107784	7	Sololá	701	Sololá	4	Finca Santa Victoria	5	Mayo	2023-05-19T00:00:00	2024-11-08T02:00:00	5	Humedad	88
107785	7	Sololá	701	Sololá	4	Finca Santa Victoria	5	Mayo	2023-05-19T00:00:00	2024-11-08T02:00:00	6	Velocidad del viento	1.6
107786	7	Sololá	701	Sololá	4	Finca Santa Victoria	5	Mayo	2023-05-19T00:00:00	2024-11-08T02:00:00	7	Dirección del viento	1.61
107787	7	Sololá	701	Sololá	4	Finca Santa Victoria	5	Mayo	2023-05-19T00:00:00	2024-11-08T02:00:00	1	Precipitación	0
107788	7	Sololá	701	Sololá	4	Finca Santa Victoria	5	Mayo	2023-05-19T00:00:00	2024-11-08T02:00:00	8	Radiación solar	0
107789	7	Sololá	701	Sololá	4	Finca Santa Victoria	5	Mayo	2023-05-19T00:00:00	2024-11-08T03:00:00	2	Temperatura media	15.2
107790	7	Sololá	701	Sololá	4	Finca Santa Victoria	5	Mayo	2023-05-19T00:00:00	2024-11-08T03:00:00	4	Temperatura máxima	15.3
107791	7	Sololá	701	Sololá	4	Finca Santa Victoria	5	Mayo	2023-05-19T00:00:00	2024-11-08T03:00:00	3	Temperatura mínima	15.1
107792	7	Sololá	701	Sololá	4	Finca Santa Victoria	5	Mayo	2023-05-19T00:00:00	2024-11-08T03:00:00	5	Humedad	88
107793	7	Sololá	701	Sololá	4	Finca Santa Victoria	5	Mayo	2023-05-19T00:00:00	2024-11-08T03:00:00	6	Velocidad del viento	1.6
107794	7	Sololá	701	Sololá	4	Finca Santa Victoria	5	Mayo	2023-05-19T00:00:00	2024-11-08T03:00:00	7	Dirección del viento	1.61
107795	7	Sololá	701	Sololá	4	Finca Santa Victoria	5	Mayo	2023-05-19T00:00:00	2024-11-08T03:00:00	1	Precipitación	0
107796	7	Sololá	701	Sololá	4	Finca Santa Victoria	5	Mayo	2023-05-19T00:00:00	2024-11-08T03:00:00	8	Radiación solar	0
107797	7	Sololá	701	Sololá	4	Finca Santa Victoria	5	Mayo	2023-05-19T00:00:00	2024-11-08T04:00:00	2	Temperatura media	14.7
107798	7	Sololá	701	Sololá	4	Finca Santa Victoria	5	Mayo	2023-05-19T00:00:00	2024-11-08T04:00:00	4	Temperatura máxima	15.2
107799	7	Sololá	701	Sololá	4	Finca Santa Victoria	5	Mayo	2023-05-19T00:00:00	2024-11-08T04:00:00	3	Temperatura mínima	14.7
107800	7	Sololá	701	Sololá	4	Finca Santa Victoria	5	Mayo	2023-05-19T00:00:00	2024-11-08T04:00:00	5	Humedad	88
107801	7	Sololá	701	Sololá	4	Finca Santa Victoria	5	Mayo	2023-05-19T00:00:00	2024-11-08T04:00:00	6	Velocidad del viento	1.6
107802	7	Sololá	701	Sololá	4	Finca Santa Victoria	5	Mayo	2023-05-19T00:00:00	2024-11-08T04:00:00	7	Dirección del viento	1.61
107803	7	Sololá	701	Sololá	4	Finca Santa Victoria	5	Mayo	2023-05-19T00:00:00	2024-11-08T04:00:00	1	Precipitación	0
107804	7	Sololá	701	Sololá	4	Finca Santa Victoria	5	Mayo	2023-05-19T00:00:00	2024-11-08T04:00:00	8	Radiación solar	0
107805	7	Sololá	701	Sololá	4	Finca Santa Victoria	5	Mayo	2023-05-19T00:00:00	2024-11-08T05:00:00	2	Temperatura media	14.6
107806	7	Sololá	701	Sololá	4	Finca Santa Victoria	5	Mayo	2023-05-19T00:00:00	2024-11-08T05:00:00	4	Temperatura máxima	14.8
107807	7	Sololá	701	Sololá	4	Finca Santa Victoria	5	Mayo	2023-05-19T00:00:00	2024-11-08T05:00:00	3	Temperatura mínima	14.5
107808	7	Sololá	701	Sololá	4	Finca Santa Victoria	5	Mayo	2023-05-19T00:00:00	2024-11-08T05:00:00	5	Humedad	88
107809	7	Sololá	701	Sololá	4	Finca Santa Victoria	5	Mayo	2023-05-19T00:00:00	2024-11-08T05:00:00	6	Velocidad del viento	1.6
107810	7	Sololá	701	Sololá	4	Finca Santa Victoria	5	Mayo	2023-05-19T00:00:00	2024-11-08T05:00:00	7	Dirección del viento	1.61
107811	7	Sololá	701	Sololá	4	Finca Santa Victoria	5	Mayo	2023-05-19T00:00:00	2024-11-08T05:00:00	1	Precipitación	0
107812	7	Sololá	701	Sololá	4	Finca Santa Victoria	5	Mayo	2023-05-19T00:00:00	2024-11-08T05:00:00	8	Radiación solar	0
107813	7	Sololá	701	Sololá	4	Finca Santa Victoria	5	Mayo	2023-05-19T00:00:00	2024-11-08T06:00:00	2	Temperatura media	14.6
107814	7	Sololá	701	Sololá	4	Finca Santa Victoria	5	Mayo	2023-05-19T00:00:00	2024-11-08T06:00:00	4	Temperatura máxima	14.8
107815	7	Sololá	701	Sololá	4	Finca Santa Victoria	5	Mayo	2023-05-19T00:00:00	2024-11-08T06:00:00	3	Temperatura mínima	14.5
107816	7	Sololá	701	Sololá	4	Finca Santa Victoria	5	Mayo	2023-05-19T00:00:00	2024-11-08T06:00:00	5	Humedad	88
107817	7	Sololá	701	Sololá	4	Finca Santa Victoria	5	Mayo	2023-05-19T00:00:00	2024-11-08T06:00:00	6	Velocidad del viento	3.2
107818	7	Sololá	701	Sololá	4	Finca Santa Victoria	5	Mayo	2023-05-19T00:00:00	2024-11-08T06:00:00	7	Dirección del viento	3.22
107819	7	Sololá	701	Sololá	4	Finca Santa Victoria	5	Mayo	2023-05-19T00:00:00	2024-11-08T06:00:00	1	Precipitación	0
107820	7	Sololá	701	Sololá	4	Finca Santa Victoria	5	Mayo	2023-05-19T00:00:00	2024-11-08T06:00:00	8	Radiación solar	1
107821	7	Sololá	701	Sololá	4	Finca Santa Victoria	5	Mayo	2023-05-19T00:00:00	2024-11-08T07:00:00	2	Temperatura media	15.3
107822	7	Sololá	701	Sololá	4	Finca Santa Victoria	5	Mayo	2023-05-19T00:00:00	2024-11-08T07:00:00	4	Temperatura máxima	15.3
107823	7	Sololá	701	Sololá	4	Finca Santa Victoria	5	Mayo	2023-05-19T00:00:00	2024-11-08T07:00:00	3	Temperatura mínima	14.4
107824	7	Sololá	701	Sololá	4	Finca Santa Victoria	5	Mayo	2023-05-19T00:00:00	2024-11-08T07:00:00	5	Humedad	85
107825	7	Sololá	701	Sololá	4	Finca Santa Victoria	5	Mayo	2023-05-19T00:00:00	2024-11-08T07:00:00	6	Velocidad del viento	3.2
107826	7	Sololá	701	Sololá	4	Finca Santa Victoria	5	Mayo	2023-05-19T00:00:00	2024-11-08T07:00:00	7	Dirección del viento	3.22
107827	7	Sololá	701	Sololá	4	Finca Santa Victoria	5	Mayo	2023-05-19T00:00:00	2024-11-08T07:00:00	1	Precipitación	0
107828	7	Sololá	701	Sololá	4	Finca Santa Victoria	5	Mayo	2023-05-19T00:00:00	2024-11-08T07:00:00	8	Radiación solar	28
107829	7	Sololá	701	Sololá	4	Finca Santa Victoria	5	Mayo	2023-05-19T00:00:00	2024-11-08T08:00:00	2	Temperatura media	17.8
107830	7	Sololá	701	Sololá	4	Finca Santa Victoria	5	Mayo	2023-05-19T00:00:00	2024-11-08T08:00:00	4	Temperatura máxima	17.8
107831	7	Sololá	701	Sololá	4	Finca Santa Victoria	5	Mayo	2023-05-19T00:00:00	2024-11-08T08:00:00	3	Temperatura mínima	15.3
107832	7	Sololá	701	Sololá	4	Finca Santa Victoria	5	Mayo	2023-05-19T00:00:00	2024-11-08T08:00:00	5	Humedad	69
107833	7	Sololá	701	Sololá	4	Finca Santa Victoria	5	Mayo	2023-05-19T00:00:00	2024-11-08T08:00:00	6	Velocidad del viento	3.2
107834	7	Sololá	701	Sololá	4	Finca Santa Victoria	5	Mayo	2023-05-19T00:00:00	2024-11-08T08:00:00	7	Dirección del viento	3.22
107835	7	Sololá	701	Sololá	4	Finca Santa Victoria	5	Mayo	2023-05-19T00:00:00	2024-11-08T08:00:00	1	Precipitación	0
107836	7	Sololá	701	Sololá	4	Finca Santa Victoria	5	Mayo	2023-05-19T00:00:00	2024-11-08T08:00:00	8	Radiación solar	258
107837	7	Sololá	701	Sololá	4	Finca Santa Victoria	5	Mayo	2023-05-19T00:00:00	2024-11-08T09:00:00	2	Temperatura media	19.3
107838	7	Sololá	701	Sololá	4	Finca Santa Victoria	5	Mayo	2023-05-19T00:00:00	2024-11-08T09:00:00	4	Temperatura máxima	19.3
107839	7	Sololá	701	Sololá	4	Finca Santa Victoria	5	Mayo	2023-05-19T00:00:00	2024-11-08T09:00:00	3	Temperatura mínima	17.7
107840	7	Sololá	701	Sololá	4	Finca Santa Victoria	5	Mayo	2023-05-19T00:00:00	2024-11-08T09:00:00	5	Humedad	66
107841	7	Sololá	701	Sololá	4	Finca Santa Victoria	5	Mayo	2023-05-19T00:00:00	2024-11-08T09:00:00	6	Velocidad del viento	3.2
107842	7	Sololá	701	Sololá	4	Finca Santa Victoria	5	Mayo	2023-05-19T00:00:00	2024-11-08T09:00:00	7	Dirección del viento	3.22
107843	7	Sololá	701	Sololá	4	Finca Santa Victoria	5	Mayo	2023-05-19T00:00:00	2024-11-08T09:00:00	1	Precipitación	0
107844	7	Sololá	701	Sololá	4	Finca Santa Victoria	5	Mayo	2023-05-19T00:00:00	2024-11-08T09:00:00	8	Radiación solar	374
107845	7	Sololá	701	Sololá	4	Finca Santa Victoria	5	Mayo	2023-05-19T00:00:00	2024-11-08T10:00:00	2	Temperatura media	20.7
107846	7	Sololá	701	Sololá	4	Finca Santa Victoria	5	Mayo	2023-05-19T00:00:00	2024-11-08T10:00:00	4	Temperatura máxima	20.8
107847	7	Sololá	701	Sololá	4	Finca Santa Victoria	5	Mayo	2023-05-19T00:00:00	2024-11-08T10:00:00	3	Temperatura mínima	19.3
107848	7	Sololá	701	Sololá	4	Finca Santa Victoria	5	Mayo	2023-05-19T00:00:00	2024-11-08T10:00:00	5	Humedad	57
107849	7	Sololá	701	Sololá	4	Finca Santa Victoria	5	Mayo	2023-05-19T00:00:00	2024-11-08T10:00:00	6	Velocidad del viento	3.2
107850	7	Sololá	701	Sololá	4	Finca Santa Victoria	5	Mayo	2023-05-19T00:00:00	2024-11-08T10:00:00	7	Dirección del viento	3.22
107851	7	Sololá	701	Sololá	4	Finca Santa Victoria	5	Mayo	2023-05-19T00:00:00	2024-11-08T10:00:00	1	Precipitación	0
107852	7	Sololá	701	Sololá	4	Finca Santa Victoria	5	Mayo	2023-05-19T00:00:00	2024-11-08T10:00:00	8	Radiación solar	169
107853	7	Sololá	701	Sololá	4	Finca Santa Victoria	5	Mayo	2023-05-19T00:00:00	2024-11-08T11:00:00	2	Temperatura media	21.9
107854	7	Sololá	701	Sololá	4	Finca Santa Victoria	5	Mayo	2023-05-19T00:00:00	2024-11-08T11:00:00	4	Temperatura máxima	22
107855	7	Sololá	701	Sololá	4	Finca Santa Victoria	5	Mayo	2023-05-19T00:00:00	2024-11-08T11:00:00	3	Temperatura mínima	20.7
107856	7	Sololá	701	Sololá	4	Finca Santa Victoria	5	Mayo	2023-05-19T00:00:00	2024-11-08T11:00:00	5	Humedad	54
107857	7	Sololá	701	Sololá	4	Finca Santa Victoria	5	Mayo	2023-05-19T00:00:00	2024-11-08T11:00:00	6	Velocidad del viento	4.8
107858	7	Sololá	701	Sololá	4	Finca Santa Victoria	5	Mayo	2023-05-19T00:00:00	2024-11-08T11:00:00	7	Dirección del viento	4.83
107859	7	Sololá	701	Sololá	4	Finca Santa Victoria	5	Mayo	2023-05-19T00:00:00	2024-11-08T11:00:00	1	Precipitación	0
107860	7	Sololá	701	Sololá	4	Finca Santa Victoria	5	Mayo	2023-05-19T00:00:00	2024-11-08T11:00:00	8	Radiación solar	520
107861	7	Sololá	701	Sololá	4	Finca Santa Victoria	5	Mayo	2023-05-19T00:00:00	2024-11-08T12:00:00	2	Temperatura media	23.2
107862	7	Sololá	701	Sololá	4	Finca Santa Victoria	5	Mayo	2023-05-19T00:00:00	2024-11-08T12:00:00	4	Temperatura máxima	23.2
107863	7	Sololá	701	Sololá	4	Finca Santa Victoria	5	Mayo	2023-05-19T00:00:00	2024-11-08T12:00:00	3	Temperatura mínima	21.8
107864	7	Sololá	701	Sololá	4	Finca Santa Victoria	5	Mayo	2023-05-19T00:00:00	2024-11-08T12:00:00	5	Humedad	52
107865	7	Sololá	701	Sololá	4	Finca Santa Victoria	5	Mayo	2023-05-19T00:00:00	2024-11-08T12:00:00	6	Velocidad del viento	3.2
107866	7	Sololá	701	Sololá	4	Finca Santa Victoria	5	Mayo	2023-05-19T00:00:00	2024-11-08T12:00:00	7	Dirección del viento	3.22
107867	7	Sololá	701	Sololá	4	Finca Santa Victoria	5	Mayo	2023-05-19T00:00:00	2024-11-08T12:00:00	1	Precipitación	0
107868	7	Sololá	701	Sololá	4	Finca Santa Victoria	5	Mayo	2023-05-19T00:00:00	2024-11-08T12:00:00	8	Radiación solar	989
107869	7	Sololá	701	Sololá	4	Finca Santa Victoria	5	Mayo	2023-05-19T00:00:00	2024-11-08T13:00:00	2	Temperatura media	23.1
107870	7	Sololá	701	Sololá	4	Finca Santa Victoria	5	Mayo	2023-05-19T00:00:00	2024-11-08T13:00:00	4	Temperatura máxima	23.7
107871	7	Sololá	701	Sololá	4	Finca Santa Victoria	5	Mayo	2023-05-19T00:00:00	2024-11-08T13:00:00	3	Temperatura mínima	22.9
107872	7	Sololá	701	Sololá	4	Finca Santa Victoria	5	Mayo	2023-05-19T00:00:00	2024-11-08T13:00:00	5	Humedad	51
107873	7	Sololá	701	Sololá	4	Finca Santa Victoria	5	Mayo	2023-05-19T00:00:00	2024-11-08T13:00:00	6	Velocidad del viento	3.2
107874	7	Sololá	701	Sololá	4	Finca Santa Victoria	5	Mayo	2023-05-19T00:00:00	2024-11-08T13:00:00	7	Dirección del viento	3.22
107875	7	Sololá	701	Sololá	4	Finca Santa Victoria	5	Mayo	2023-05-19T00:00:00	2024-11-08T13:00:00	1	Precipitación	0
107876	7	Sololá	701	Sololá	4	Finca Santa Victoria	5	Mayo	2023-05-19T00:00:00	2024-11-08T13:00:00	8	Radiación solar	983
107877	7	Sololá	701	Sololá	4	Finca Santa Victoria	5	Mayo	2023-05-19T00:00:00	2024-11-08T14:00:00	2	Temperatura media	22.2
107878	7	Sololá	701	Sololá	4	Finca Santa Victoria	5	Mayo	2023-05-19T00:00:00	2024-11-08T14:00:00	4	Temperatura máxima	23.2
107879	7	Sololá	701	Sololá	4	Finca Santa Victoria	5	Mayo	2023-05-19T00:00:00	2024-11-08T14:00:00	3	Temperatura mínima	22.1
107880	7	Sololá	701	Sololá	4	Finca Santa Victoria	5	Mayo	2023-05-19T00:00:00	2024-11-08T14:00:00	5	Humedad	56
107881	7	Sololá	701	Sololá	4	Finca Santa Victoria	5	Mayo	2023-05-19T00:00:00	2024-11-08T14:00:00	6	Velocidad del viento	4.8
107882	7	Sololá	701	Sololá	4	Finca Santa Victoria	5	Mayo	2023-05-19T00:00:00	2024-11-08T14:00:00	7	Dirección del viento	4.83
107883	7	Sololá	701	Sololá	4	Finca Santa Victoria	5	Mayo	2023-05-19T00:00:00	2024-11-08T14:00:00	1	Precipitación	0
107884	7	Sololá	701	Sololá	4	Finca Santa Victoria	5	Mayo	2023-05-19T00:00:00	2024-11-08T14:00:00	8	Radiación solar	431
107885	7	Sololá	701	Sololá	4	Finca Santa Victoria	5	Mayo	2023-05-19T00:00:00	2024-11-08T15:00:00	2	Temperatura media	23.3
107886	7	Sololá	701	Sololá	4	Finca Santa Victoria	5	Mayo	2023-05-19T00:00:00	2024-11-08T15:00:00	4	Temperatura máxima	23.7
107887	7	Sololá	701	Sololá	4	Finca Santa Victoria	5	Mayo	2023-05-19T00:00:00	2024-11-08T15:00:00	3	Temperatura mínima	22.2
107888	7	Sololá	701	Sololá	4	Finca Santa Victoria	5	Mayo	2023-05-19T00:00:00	2024-11-08T15:00:00	5	Humedad	53
107889	7	Sololá	701	Sololá	4	Finca Santa Victoria	5	Mayo	2023-05-19T00:00:00	2024-11-08T15:00:00	6	Velocidad del viento	3.2
107890	7	Sololá	701	Sololá	4	Finca Santa Victoria	5	Mayo	2023-05-19T00:00:00	2024-11-08T15:00:00	7	Dirección del viento	3.22
107891	7	Sololá	701	Sololá	4	Finca Santa Victoria	5	Mayo	2023-05-19T00:00:00	2024-11-08T15:00:00	1	Precipitación	0
107892	7	Sololá	701	Sololá	4	Finca Santa Victoria	5	Mayo	2023-05-19T00:00:00	2024-11-08T15:00:00	8	Radiación solar	308
107893	7	Sololá	701	Sololá	4	Finca Santa Victoria	5	Mayo	2023-05-19T00:00:00	2024-11-08T16:00:00	2	Temperatura media	22.3
107894	7	Sololá	701	Sololá	4	Finca Santa Victoria	5	Mayo	2023-05-19T00:00:00	2024-11-08T16:00:00	4	Temperatura máxima	23.3
107895	7	Sololá	701	Sololá	4	Finca Santa Victoria	5	Mayo	2023-05-19T00:00:00	2024-11-08T16:00:00	3	Temperatura mínima	21.8
107896	7	Sololá	701	Sololá	4	Finca Santa Victoria	5	Mayo	2023-05-19T00:00:00	2024-11-08T16:00:00	5	Humedad	59
107897	7	Sololá	701	Sololá	4	Finca Santa Victoria	5	Mayo	2023-05-19T00:00:00	2024-11-08T16:00:00	6	Velocidad del viento	4.8
107898	7	Sololá	701	Sololá	4	Finca Santa Victoria	5	Mayo	2023-05-19T00:00:00	2024-11-08T16:00:00	7	Dirección del viento	4.83
107899	7	Sololá	701	Sololá	4	Finca Santa Victoria	5	Mayo	2023-05-19T00:00:00	2024-11-08T16:00:00	1	Precipitación	0
107900	7	Sololá	701	Sololá	4	Finca Santa Victoria	5	Mayo	2023-05-19T00:00:00	2024-11-08T16:00:00	8	Radiación solar	177
107901	7	Sololá	701	Sololá	4	Finca Santa Victoria	5	Mayo	2023-05-19T00:00:00	2024-11-08T17:00:00	2	Temperatura media	19.5
107902	7	Sololá	701	Sololá	4	Finca Santa Victoria	5	Mayo	2023-05-19T00:00:00	2024-11-08T17:00:00	4	Temperatura máxima	22.7
107903	7	Sololá	701	Sololá	4	Finca Santa Victoria	5	Mayo	2023-05-19T00:00:00	2024-11-08T17:00:00	3	Temperatura mínima	19.5
107904	7	Sololá	701	Sololá	4	Finca Santa Victoria	5	Mayo	2023-05-19T00:00:00	2024-11-08T17:00:00	5	Humedad	70
107905	7	Sololá	701	Sololá	4	Finca Santa Victoria	5	Mayo	2023-05-19T00:00:00	2024-11-08T17:00:00	6	Velocidad del viento	3.2
107906	7	Sololá	701	Sololá	4	Finca Santa Victoria	5	Mayo	2023-05-19T00:00:00	2024-11-08T17:00:00	7	Dirección del viento	3.22
107907	7	Sololá	701	Sololá	4	Finca Santa Victoria	5	Mayo	2023-05-19T00:00:00	2024-11-08T17:00:00	1	Precipitación	0
107908	7	Sololá	701	Sololá	4	Finca Santa Victoria	5	Mayo	2023-05-19T00:00:00	2024-11-08T17:00:00	8	Radiación solar	88
107909	7	Sololá	701	Sololá	4	Finca Santa Victoria	5	Mayo	2023-05-19T00:00:00	2024-11-08T18:00:00	2	Temperatura media	18.7
107910	7	Sololá	701	Sololá	4	Finca Santa Victoria	5	Mayo	2023-05-19T00:00:00	2024-11-08T18:00:00	4	Temperatura máxima	19.6
107911	7	Sololá	701	Sololá	4	Finca Santa Victoria	5	Mayo	2023-05-19T00:00:00	2024-11-08T18:00:00	3	Temperatura mínima	18.7
107912	7	Sololá	701	Sololá	4	Finca Santa Victoria	5	Mayo	2023-05-19T00:00:00	2024-11-08T18:00:00	5	Humedad	73
107913	7	Sololá	701	Sololá	4	Finca Santa Victoria	5	Mayo	2023-05-19T00:00:00	2024-11-08T18:00:00	6	Velocidad del viento	3.2
107914	7	Sololá	701	Sololá	4	Finca Santa Victoria	5	Mayo	2023-05-19T00:00:00	2024-11-08T18:00:00	7	Dirección del viento	3.22
107915	7	Sololá	701	Sololá	4	Finca Santa Victoria	5	Mayo	2023-05-19T00:00:00	2024-11-08T18:00:00	1	Precipitación	0
107916	7	Sololá	701	Sololá	4	Finca Santa Victoria	5	Mayo	2023-05-19T00:00:00	2024-11-08T18:00:00	8	Radiación solar	37
107917	7	Sololá	701	Sololá	4	Finca Santa Victoria	5	Mayo	2023-05-19T00:00:00	2024-11-08T19:00:00	2	Temperatura media	17.5
107918	7	Sololá	701	Sololá	4	Finca Santa Victoria	5	Mayo	2023-05-19T00:00:00	2024-11-08T19:00:00	4	Temperatura máxima	18.7
107919	7	Sololá	701	Sololá	4	Finca Santa Victoria	5	Mayo	2023-05-19T00:00:00	2024-11-08T19:00:00	3	Temperatura mínima	17.5
107920	7	Sololá	701	Sololá	4	Finca Santa Victoria	5	Mayo	2023-05-19T00:00:00	2024-11-08T19:00:00	5	Humedad	75
107921	7	Sololá	701	Sololá	4	Finca Santa Victoria	5	Mayo	2023-05-19T00:00:00	2024-11-08T19:00:00	6	Velocidad del viento	1.6
107922	7	Sololá	701	Sololá	4	Finca Santa Victoria	5	Mayo	2023-05-19T00:00:00	2024-11-08T19:00:00	7	Dirección del viento	1.61
107923	7	Sololá	701	Sololá	4	Finca Santa Victoria	5	Mayo	2023-05-19T00:00:00	2024-11-08T19:00:00	1	Precipitación	0
107924	7	Sololá	701	Sololá	4	Finca Santa Victoria	5	Mayo	2023-05-19T00:00:00	2024-11-08T19:00:00	8	Radiación solar	0
107925	7	Sololá	701	Sololá	4	Finca Santa Victoria	5	Mayo	2023-05-19T00:00:00	2024-11-08T20:00:00	2	Temperatura media	16.8
107926	7	Sololá	701	Sololá	4	Finca Santa Victoria	5	Mayo	2023-05-19T00:00:00	2024-11-08T20:00:00	4	Temperatura máxima	17.5
107927	7	Sololá	701	Sololá	4	Finca Santa Victoria	5	Mayo	2023-05-19T00:00:00	2024-11-08T20:00:00	3	Temperatura mínima	16.8
107928	7	Sololá	701	Sololá	4	Finca Santa Victoria	5	Mayo	2023-05-19T00:00:00	2024-11-08T20:00:00	5	Humedad	76
107929	7	Sololá	701	Sololá	4	Finca Santa Victoria	5	Mayo	2023-05-19T00:00:00	2024-11-08T20:00:00	6	Velocidad del viento	3.2
107930	7	Sololá	701	Sololá	4	Finca Santa Victoria	5	Mayo	2023-05-19T00:00:00	2024-11-08T20:00:00	7	Dirección del viento	3.22
107931	7	Sololá	701	Sololá	4	Finca Santa Victoria	5	Mayo	2023-05-19T00:00:00	2024-11-08T20:00:00	1	Precipitación	0
107932	7	Sololá	701	Sololá	4	Finca Santa Victoria	5	Mayo	2023-05-19T00:00:00	2024-11-08T20:00:00	8	Radiación solar	0
107933	7	Sololá	701	Sololá	4	Finca Santa Victoria	5	Mayo	2023-05-19T00:00:00	2024-11-08T21:00:00	2	Temperatura media	16.1
107934	7	Sololá	701	Sololá	4	Finca Santa Victoria	5	Mayo	2023-05-19T00:00:00	2024-11-08T21:00:00	4	Temperatura máxima	16.9
107935	7	Sololá	701	Sololá	4	Finca Santa Victoria	5	Mayo	2023-05-19T00:00:00	2024-11-08T21:00:00	3	Temperatura mínima	16.1
107936	7	Sololá	701	Sololá	4	Finca Santa Victoria	5	Mayo	2023-05-19T00:00:00	2024-11-08T21:00:00	5	Humedad	78
107937	7	Sololá	701	Sololá	4	Finca Santa Victoria	5	Mayo	2023-05-19T00:00:00	2024-11-08T21:00:00	6	Velocidad del viento	1.6
107938	7	Sololá	701	Sololá	4	Finca Santa Victoria	5	Mayo	2023-05-19T00:00:00	2024-11-08T21:00:00	7	Dirección del viento	1.61
107939	7	Sololá	701	Sololá	4	Finca Santa Victoria	5	Mayo	2023-05-19T00:00:00	2024-11-08T21:00:00	1	Precipitación	0
107940	7	Sololá	701	Sololá	4	Finca Santa Victoria	5	Mayo	2023-05-19T00:00:00	2024-11-08T21:00:00	8	Radiación solar	0
107941	7	Sololá	701	Sololá	4	Finca Santa Victoria	5	Mayo	2023-05-19T00:00:00	2024-11-08T22:00:00	2	Temperatura media	15.6
107942	7	Sololá	701	Sololá	4	Finca Santa Victoria	5	Mayo	2023-05-19T00:00:00	2024-11-08T22:00:00	4	Temperatura máxima	16.1
107943	7	Sololá	701	Sololá	4	Finca Santa Victoria	5	Mayo	2023-05-19T00:00:00	2024-11-08T22:00:00	3	Temperatura mínima	15.6
107944	7	Sololá	701	Sololá	4	Finca Santa Victoria	5	Mayo	2023-05-19T00:00:00	2024-11-08T22:00:00	5	Humedad	81
107945	7	Sololá	701	Sololá	4	Finca Santa Victoria	5	Mayo	2023-05-19T00:00:00	2024-11-08T22:00:00	6	Velocidad del viento	1.6
107946	7	Sololá	701	Sololá	4	Finca Santa Victoria	5	Mayo	2023-05-19T00:00:00	2024-11-08T22:00:00	7	Dirección del viento	1.61
107947	7	Sololá	701	Sololá	4	Finca Santa Victoria	5	Mayo	2023-05-19T00:00:00	2024-11-08T22:00:00	1	Precipitación	0
107948	7	Sololá	701	Sololá	4	Finca Santa Victoria	5	Mayo	2023-05-19T00:00:00	2024-11-08T22:00:00	8	Radiación solar	0
107949	7	Sololá	701	Sololá	4	Finca Santa Victoria	5	Mayo	2023-05-19T00:00:00	2024-11-08T23:00:00	2	Temperatura media	14.8
107950	7	Sololá	701	Sololá	4	Finca Santa Victoria	5	Mayo	2023-05-19T00:00:00	2024-11-08T23:00:00	4	Temperatura máxima	15.6
107951	7	Sololá	701	Sololá	4	Finca Santa Victoria	5	Mayo	2023-05-19T00:00:00	2024-11-08T23:00:00	3	Temperatura mínima	14.7
107952	7	Sololá	701	Sololá	4	Finca Santa Victoria	5	Mayo	2023-05-19T00:00:00	2024-11-08T23:00:00	5	Humedad	84
107953	7	Sololá	701	Sololá	4	Finca Santa Victoria	5	Mayo	2023-05-19T00:00:00	2024-11-08T23:00:00	6	Velocidad del viento	1.6
107954	7	Sololá	701	Sololá	4	Finca Santa Victoria	5	Mayo	2023-05-19T00:00:00	2024-11-08T23:00:00	7	Dirección del viento	1.61
107955	7	Sololá	701	Sololá	4	Finca Santa Victoria	5	Mayo	2023-05-19T00:00:00	2024-11-08T23:00:00	1	Precipitación	0
107956	7	Sololá	701	Sololá	4	Finca Santa Victoria	5	Mayo	2023-05-19T00:00:00	2024-11-08T23:00:00	8	Radiación solar	0
107957	7	Sololá	701	Sololá	4	Finca Santa Victoria	5	Mayo	2023-05-20T00:00:00	2024-11-08T00:00:00	2	Temperatura media	14.7
107958	7	Sololá	701	Sololá	4	Finca Santa Victoria	5	Mayo	2023-05-20T00:00:00	2024-11-08T00:00:00	4	Temperatura máxima	14.8
107959	7	Sololá	701	Sololá	4	Finca Santa Victoria	5	Mayo	2023-05-20T00:00:00	2024-11-08T00:00:00	3	Temperatura mínima	14.6
107960	7	Sololá	701	Sololá	4	Finca Santa Victoria	5	Mayo	2023-05-20T00:00:00	2024-11-08T00:00:00	5	Humedad	82
107961	7	Sololá	701	Sololá	4	Finca Santa Victoria	5	Mayo	2023-05-20T00:00:00	2024-11-08T00:00:00	6	Velocidad del viento	1.6
107962	7	Sololá	701	Sololá	4	Finca Santa Victoria	5	Mayo	2023-05-20T00:00:00	2024-11-08T00:00:00	7	Dirección del viento	1.61
107963	7	Sololá	701	Sololá	4	Finca Santa Victoria	5	Mayo	2023-05-20T00:00:00	2024-11-08T00:00:00	1	Precipitación	0
107964	7	Sololá	701	Sololá	4	Finca Santa Victoria	5	Mayo	2023-05-20T00:00:00	2024-11-08T00:00:00	8	Radiación solar	0
107965	7	Sololá	701	Sololá	4	Finca Santa Victoria	5	Mayo	2023-05-20T00:00:00	2024-11-08T01:00:00	2	Temperatura media	14.3
107966	7	Sololá	701	Sololá	4	Finca Santa Victoria	5	Mayo	2023-05-20T00:00:00	2024-11-08T01:00:00	4	Temperatura máxima	14.7
107967	7	Sololá	701	Sololá	4	Finca Santa Victoria	5	Mayo	2023-05-20T00:00:00	2024-11-08T01:00:00	3	Temperatura mínima	14.3
107968	7	Sololá	701	Sololá	4	Finca Santa Victoria	5	Mayo	2023-05-20T00:00:00	2024-11-08T01:00:00	5	Humedad	82
107969	7	Sololá	701	Sololá	4	Finca Santa Victoria	5	Mayo	2023-05-20T00:00:00	2024-11-08T01:00:00	6	Velocidad del viento	1.6
107970	7	Sololá	701	Sololá	4	Finca Santa Victoria	5	Mayo	2023-05-20T00:00:00	2024-11-08T01:00:00	7	Dirección del viento	1.61
107971	7	Sololá	701	Sololá	4	Finca Santa Victoria	5	Mayo	2023-05-20T00:00:00	2024-11-08T01:00:00	1	Precipitación	0
107972	7	Sololá	701	Sololá	4	Finca Santa Victoria	5	Mayo	2023-05-20T00:00:00	2024-11-08T01:00:00	8	Radiación solar	0
107973	7	Sololá	701	Sololá	4	Finca Santa Victoria	5	Mayo	2023-05-20T00:00:00	2024-11-08T02:00:00	2	Temperatura media	14.2
107974	7	Sololá	701	Sololá	4	Finca Santa Victoria	5	Mayo	2023-05-20T00:00:00	2024-11-08T02:00:00	4	Temperatura máxima	14.3
107975	7	Sololá	701	Sololá	4	Finca Santa Victoria	5	Mayo	2023-05-20T00:00:00	2024-11-08T02:00:00	3	Temperatura mínima	14.1
107976	7	Sololá	701	Sololá	4	Finca Santa Victoria	5	Mayo	2023-05-20T00:00:00	2024-11-08T02:00:00	5	Humedad	84
107977	7	Sololá	701	Sololá	4	Finca Santa Victoria	5	Mayo	2023-05-20T00:00:00	2024-11-08T02:00:00	6	Velocidad del viento	1.6
107978	7	Sololá	701	Sololá	4	Finca Santa Victoria	5	Mayo	2023-05-20T00:00:00	2024-11-08T02:00:00	7	Dirección del viento	1.61
107979	7	Sololá	701	Sololá	4	Finca Santa Victoria	5	Mayo	2023-05-20T00:00:00	2024-11-08T02:00:00	1	Precipitación	0
107980	7	Sololá	701	Sololá	4	Finca Santa Victoria	5	Mayo	2023-05-20T00:00:00	2024-11-08T02:00:00	8	Radiación solar	0
107981	7	Sololá	701	Sololá	4	Finca Santa Victoria	5	Mayo	2023-05-20T00:00:00	2024-11-08T03:00:00	2	Temperatura media	14.3
107982	7	Sololá	701	Sololá	4	Finca Santa Victoria	5	Mayo	2023-05-20T00:00:00	2024-11-08T03:00:00	4	Temperatura máxima	14.4
107983	7	Sololá	701	Sololá	4	Finca Santa Victoria	5	Mayo	2023-05-20T00:00:00	2024-11-08T03:00:00	3	Temperatura mínima	14.1
107984	7	Sololá	701	Sololá	4	Finca Santa Victoria	5	Mayo	2023-05-20T00:00:00	2024-11-08T03:00:00	5	Humedad	79
107985	7	Sololá	701	Sololá	4	Finca Santa Victoria	5	Mayo	2023-05-20T00:00:00	2024-11-08T03:00:00	6	Velocidad del viento	1.6
107986	7	Sololá	701	Sololá	4	Finca Santa Victoria	5	Mayo	2023-05-20T00:00:00	2024-11-08T03:00:00	7	Dirección del viento	1.61
107987	7	Sololá	701	Sololá	4	Finca Santa Victoria	5	Mayo	2023-05-20T00:00:00	2024-11-08T03:00:00	1	Precipitación	0
107988	7	Sololá	701	Sololá	4	Finca Santa Victoria	5	Mayo	2023-05-20T00:00:00	2024-11-08T03:00:00	8	Radiación solar	0
107989	7	Sololá	701	Sololá	4	Finca Santa Victoria	5	Mayo	2023-05-20T00:00:00	2024-11-08T04:00:00	2	Temperatura media	14.3
107990	7	Sololá	701	Sololá	4	Finca Santa Victoria	5	Mayo	2023-05-20T00:00:00	2024-11-08T04:00:00	4	Temperatura máxima	14.5
107991	7	Sololá	701	Sololá	4	Finca Santa Victoria	5	Mayo	2023-05-20T00:00:00	2024-11-08T04:00:00	3	Temperatura mínima	14.2
107992	7	Sololá	701	Sololá	4	Finca Santa Victoria	5	Mayo	2023-05-20T00:00:00	2024-11-08T04:00:00	5	Humedad	82
107993	7	Sololá	701	Sololá	4	Finca Santa Victoria	5	Mayo	2023-05-20T00:00:00	2024-11-08T04:00:00	6	Velocidad del viento	1.6
107994	7	Sololá	701	Sololá	4	Finca Santa Victoria	5	Mayo	2023-05-20T00:00:00	2024-11-08T04:00:00	7	Dirección del viento	1.61
107995	7	Sololá	701	Sololá	4	Finca Santa Victoria	5	Mayo	2023-05-20T00:00:00	2024-11-08T04:00:00	1	Precipitación	0
107996	7	Sololá	701	Sololá	4	Finca Santa Victoria	5	Mayo	2023-05-20T00:00:00	2024-11-08T04:00:00	8	Radiación solar	0
107997	7	Sololá	701	Sololá	4	Finca Santa Victoria	5	Mayo	2023-05-20T00:00:00	2024-11-08T05:00:00	2	Temperatura media	14.5
107998	7	Sololá	701	Sololá	4	Finca Santa Victoria	5	Mayo	2023-05-20T00:00:00	2024-11-08T05:00:00	4	Temperatura máxima	14.6
107999	7	Sololá	701	Sololá	4	Finca Santa Victoria	5	Mayo	2023-05-20T00:00:00	2024-11-08T05:00:00	3	Temperatura mínima	14.1
108000	7	Sololá	701	Sololá	4	Finca Santa Victoria	5	Mayo	2023-05-20T00:00:00	2024-11-08T05:00:00	5	Humedad	70
108001	7	Sololá	701	Sololá	4	Finca Santa Victoria	5	Mayo	2023-05-20T00:00:00	2024-11-08T05:00:00	6	Velocidad del viento	3.2
108002	7	Sololá	701	Sololá	4	Finca Santa Victoria	5	Mayo	2023-05-20T00:00:00	2024-11-08T05:00:00	7	Dirección del viento	3.22
108003	7	Sololá	701	Sololá	4	Finca Santa Victoria	5	Mayo	2023-05-20T00:00:00	2024-11-08T05:00:00	1	Precipitación	0
108004	7	Sololá	701	Sololá	4	Finca Santa Victoria	5	Mayo	2023-05-20T00:00:00	2024-11-08T05:00:00	8	Radiación solar	0
108005	7	Sololá	701	Sololá	4	Finca Santa Victoria	5	Mayo	2023-05-20T00:00:00	2024-11-08T06:00:00	2	Temperatura media	14.3
108006	7	Sololá	701	Sololá	4	Finca Santa Victoria	5	Mayo	2023-05-20T00:00:00	2024-11-08T06:00:00	4	Temperatura máxima	14.7
108007	7	Sololá	701	Sololá	4	Finca Santa Victoria	5	Mayo	2023-05-20T00:00:00	2024-11-08T06:00:00	3	Temperatura mínima	14.3
108008	7	Sololá	701	Sololá	4	Finca Santa Victoria	5	Mayo	2023-05-20T00:00:00	2024-11-08T06:00:00	5	Humedad	72
108009	7	Sololá	701	Sololá	4	Finca Santa Victoria	5	Mayo	2023-05-20T00:00:00	2024-11-08T06:00:00	6	Velocidad del viento	1.6
108010	7	Sololá	701	Sololá	4	Finca Santa Victoria	5	Mayo	2023-05-20T00:00:00	2024-11-08T06:00:00	7	Dirección del viento	1.61
108011	7	Sololá	701	Sololá	4	Finca Santa Victoria	5	Mayo	2023-05-20T00:00:00	2024-11-08T06:00:00	1	Precipitación	0
108012	7	Sololá	701	Sololá	4	Finca Santa Victoria	5	Mayo	2023-05-20T00:00:00	2024-11-08T06:00:00	8	Radiación solar	4
108013	7	Sololá	701	Sololá	4	Finca Santa Victoria	5	Mayo	2023-05-20T00:00:00	2024-11-08T07:00:00	2	Temperatura media	15.3
108014	7	Sololá	701	Sololá	4	Finca Santa Victoria	5	Mayo	2023-05-20T00:00:00	2024-11-08T07:00:00	4	Temperatura máxima	15.3
108015	7	Sololá	701	Sololá	4	Finca Santa Victoria	5	Mayo	2023-05-20T00:00:00	2024-11-08T07:00:00	3	Temperatura mínima	14.1
108016	7	Sololá	701	Sololá	4	Finca Santa Victoria	5	Mayo	2023-05-20T00:00:00	2024-11-08T07:00:00	5	Humedad	70
108017	7	Sololá	701	Sololá	4	Finca Santa Victoria	5	Mayo	2023-05-20T00:00:00	2024-11-08T07:00:00	6	Velocidad del viento	1.6
108018	7	Sololá	701	Sololá	4	Finca Santa Victoria	5	Mayo	2023-05-20T00:00:00	2024-11-08T07:00:00	7	Dirección del viento	1.61
108019	7	Sololá	701	Sololá	4	Finca Santa Victoria	5	Mayo	2023-05-20T00:00:00	2024-11-08T07:00:00	1	Precipitación	0
108020	7	Sololá	701	Sololá	4	Finca Santa Victoria	5	Mayo	2023-05-20T00:00:00	2024-11-08T07:00:00	8	Radiación solar	58
108021	7	Sololá	701	Sololá	4	Finca Santa Victoria	5	Mayo	2023-05-20T00:00:00	2024-11-08T08:00:00	2	Temperatura media	18.6
108022	7	Sololá	701	Sololá	4	Finca Santa Victoria	5	Mayo	2023-05-20T00:00:00	2024-11-08T08:00:00	4	Temperatura máxima	18.6
108023	7	Sololá	701	Sololá	4	Finca Santa Victoria	5	Mayo	2023-05-20T00:00:00	2024-11-08T08:00:00	3	Temperatura mínima	15.3
108024	7	Sololá	701	Sololá	4	Finca Santa Victoria	5	Mayo	2023-05-20T00:00:00	2024-11-08T08:00:00	5	Humedad	56
108025	7	Sololá	701	Sololá	4	Finca Santa Victoria	5	Mayo	2023-05-20T00:00:00	2024-11-08T08:00:00	6	Velocidad del viento	1.6
108026	7	Sololá	701	Sololá	4	Finca Santa Victoria	5	Mayo	2023-05-20T00:00:00	2024-11-08T08:00:00	7	Dirección del viento	1.61
108027	7	Sololá	701	Sololá	4	Finca Santa Victoria	5	Mayo	2023-05-20T00:00:00	2024-11-08T08:00:00	1	Precipitación	0
108028	7	Sololá	701	Sololá	4	Finca Santa Victoria	5	Mayo	2023-05-20T00:00:00	2024-11-08T08:00:00	8	Radiación solar	270
108029	7	Sololá	701	Sololá	4	Finca Santa Victoria	5	Mayo	2023-05-20T00:00:00	2024-11-08T09:00:00	2	Temperatura media	19.6
108030	7	Sololá	701	Sololá	4	Finca Santa Victoria	5	Mayo	2023-05-20T00:00:00	2024-11-08T09:00:00	4	Temperatura máxima	19.8
108031	7	Sololá	701	Sololá	4	Finca Santa Victoria	5	Mayo	2023-05-20T00:00:00	2024-11-08T09:00:00	3	Temperatura mínima	18.6
108032	7	Sololá	701	Sololá	4	Finca Santa Victoria	5	Mayo	2023-05-20T00:00:00	2024-11-08T09:00:00	5	Humedad	63
108033	7	Sololá	701	Sololá	4	Finca Santa Victoria	5	Mayo	2023-05-20T00:00:00	2024-11-08T09:00:00	6	Velocidad del viento	3.2
108034	7	Sololá	701	Sololá	4	Finca Santa Victoria	5	Mayo	2023-05-20T00:00:00	2024-11-08T09:00:00	7	Dirección del viento	3.22
108035	7	Sololá	701	Sololá	4	Finca Santa Victoria	5	Mayo	2023-05-20T00:00:00	2024-11-08T09:00:00	1	Precipitación	0
108036	7	Sololá	701	Sololá	4	Finca Santa Victoria	5	Mayo	2023-05-20T00:00:00	2024-11-08T09:00:00	8	Radiación solar	374
108037	7	Sololá	701	Sololá	4	Finca Santa Victoria	5	Mayo	2023-05-20T00:00:00	2024-11-08T10:00:00	2	Temperatura media	20.1
108038	7	Sololá	701	Sololá	4	Finca Santa Victoria	5	Mayo	2023-05-20T00:00:00	2024-11-08T10:00:00	4	Temperatura máxima	20.1
108039	7	Sololá	701	Sololá	4	Finca Santa Victoria	5	Mayo	2023-05-20T00:00:00	2024-11-08T10:00:00	3	Temperatura mínima	19.4
108040	7	Sololá	701	Sololá	4	Finca Santa Victoria	5	Mayo	2023-05-20T00:00:00	2024-11-08T10:00:00	5	Humedad	61
108041	7	Sololá	701	Sololá	4	Finca Santa Victoria	5	Mayo	2023-05-20T00:00:00	2024-11-08T10:00:00	6	Velocidad del viento	3.2
108042	7	Sololá	701	Sololá	4	Finca Santa Victoria	5	Mayo	2023-05-20T00:00:00	2024-11-08T10:00:00	7	Dirección del viento	3.22
108043	7	Sololá	701	Sololá	4	Finca Santa Victoria	5	Mayo	2023-05-20T00:00:00	2024-11-08T10:00:00	1	Precipitación	0
108044	7	Sololá	701	Sololá	4	Finca Santa Victoria	5	Mayo	2023-05-20T00:00:00	2024-11-08T10:00:00	8	Radiación solar	230
108045	7	Sololá	701	Sololá	4	Finca Santa Victoria	5	Mayo	2023-05-20T00:00:00	2024-11-08T11:00:00	2	Temperatura media	21.3
108046	7	Sololá	701	Sololá	4	Finca Santa Victoria	5	Mayo	2023-05-20T00:00:00	2024-11-08T11:00:00	4	Temperatura máxima	21.3
108047	7	Sololá	701	Sololá	4	Finca Santa Victoria	5	Mayo	2023-05-20T00:00:00	2024-11-08T11:00:00	3	Temperatura mínima	20.1
108048	7	Sololá	701	Sololá	4	Finca Santa Victoria	5	Mayo	2023-05-20T00:00:00	2024-11-08T11:00:00	5	Humedad	56
108049	7	Sololá	701	Sololá	4	Finca Santa Victoria	5	Mayo	2023-05-20T00:00:00	2024-11-08T11:00:00	6	Velocidad del viento	4.8
108050	7	Sololá	701	Sololá	4	Finca Santa Victoria	5	Mayo	2023-05-20T00:00:00	2024-11-08T11:00:00	7	Dirección del viento	4.83
108051	7	Sololá	701	Sololá	4	Finca Santa Victoria	5	Mayo	2023-05-20T00:00:00	2024-11-08T11:00:00	1	Precipitación	0
108052	7	Sololá	701	Sololá	4	Finca Santa Victoria	5	Mayo	2023-05-20T00:00:00	2024-11-08T11:00:00	8	Radiación solar	531
108053	7	Sololá	701	Sololá	4	Finca Santa Victoria	5	Mayo	2023-05-20T00:00:00	2024-11-08T12:00:00	2	Temperatura media	22.6
108054	7	Sololá	701	Sololá	4	Finca Santa Victoria	5	Mayo	2023-05-20T00:00:00	2024-11-08T12:00:00	4	Temperatura máxima	22.6
108055	7	Sololá	701	Sololá	4	Finca Santa Victoria	5	Mayo	2023-05-20T00:00:00	2024-11-08T12:00:00	3	Temperatura mínima	21.3
108056	7	Sololá	701	Sololá	4	Finca Santa Victoria	5	Mayo	2023-05-20T00:00:00	2024-11-08T12:00:00	5	Humedad	55
108057	7	Sololá	701	Sololá	4	Finca Santa Victoria	5	Mayo	2023-05-20T00:00:00	2024-11-08T12:00:00	6	Velocidad del viento	3.2
108058	7	Sololá	701	Sololá	4	Finca Santa Victoria	5	Mayo	2023-05-20T00:00:00	2024-11-08T12:00:00	7	Dirección del viento	3.22
108059	7	Sololá	701	Sololá	4	Finca Santa Victoria	5	Mayo	2023-05-20T00:00:00	2024-11-08T12:00:00	1	Precipitación	0
108060	7	Sololá	701	Sololá	4	Finca Santa Victoria	5	Mayo	2023-05-20T00:00:00	2024-11-08T12:00:00	8	Radiación solar	904
108061	7	Sololá	701	Sololá	4	Finca Santa Victoria	5	Mayo	2023-05-20T00:00:00	2024-11-08T13:00:00	2	Temperatura media	23.2
108062	7	Sololá	701	Sololá	4	Finca Santa Victoria	5	Mayo	2023-05-20T00:00:00	2024-11-08T13:00:00	4	Temperatura máxima	23.2
108063	7	Sololá	701	Sololá	4	Finca Santa Victoria	5	Mayo	2023-05-20T00:00:00	2024-11-08T13:00:00	3	Temperatura mínima	22.7
108064	7	Sololá	701	Sololá	4	Finca Santa Victoria	5	Mayo	2023-05-20T00:00:00	2024-11-08T13:00:00	5	Humedad	48
108065	7	Sololá	701	Sololá	4	Finca Santa Victoria	5	Mayo	2023-05-20T00:00:00	2024-11-08T13:00:00	6	Velocidad del viento	3.2
108066	7	Sololá	701	Sololá	4	Finca Santa Victoria	5	Mayo	2023-05-20T00:00:00	2024-11-08T13:00:00	7	Dirección del viento	3.22
108067	7	Sololá	701	Sololá	4	Finca Santa Victoria	5	Mayo	2023-05-20T00:00:00	2024-11-08T13:00:00	1	Precipitación	0
108068	7	Sololá	701	Sololá	4	Finca Santa Victoria	5	Mayo	2023-05-20T00:00:00	2024-11-08T13:00:00	8	Radiación solar	940
108069	7	Sololá	701	Sololá	4	Finca Santa Victoria	5	Mayo	2023-05-20T00:00:00	2024-11-08T14:00:00	2	Temperatura media	23.3
108070	7	Sololá	701	Sololá	4	Finca Santa Victoria	5	Mayo	2023-05-20T00:00:00	2024-11-08T14:00:00	4	Temperatura máxima	23.4
108071	7	Sololá	701	Sololá	4	Finca Santa Victoria	5	Mayo	2023-05-20T00:00:00	2024-11-08T14:00:00	3	Temperatura mínima	22.8
108072	7	Sololá	701	Sololá	4	Finca Santa Victoria	5	Mayo	2023-05-20T00:00:00	2024-11-08T14:00:00	5	Humedad	47
108073	7	Sololá	701	Sololá	4	Finca Santa Victoria	5	Mayo	2023-05-20T00:00:00	2024-11-08T14:00:00	6	Velocidad del viento	4.8
108074	7	Sololá	701	Sololá	4	Finca Santa Victoria	5	Mayo	2023-05-20T00:00:00	2024-11-08T14:00:00	7	Dirección del viento	4.83
108075	7	Sololá	701	Sololá	4	Finca Santa Victoria	5	Mayo	2023-05-20T00:00:00	2024-11-08T14:00:00	1	Precipitación	0
108076	7	Sololá	701	Sololá	4	Finca Santa Victoria	5	Mayo	2023-05-20T00:00:00	2024-11-08T14:00:00	8	Radiación solar	832
108077	7	Sololá	701	Sololá	4	Finca Santa Victoria	5	Mayo	2023-05-20T00:00:00	2024-11-08T15:00:00	2	Temperatura media	23.2
108078	7	Sololá	701	Sololá	4	Finca Santa Victoria	5	Mayo	2023-05-20T00:00:00	2024-11-08T15:00:00	4	Temperatura máxima	23.8
108079	7	Sololá	701	Sololá	4	Finca Santa Victoria	5	Mayo	2023-05-20T00:00:00	2024-11-08T15:00:00	3	Temperatura mínima	23
108080	7	Sololá	701	Sololá	4	Finca Santa Victoria	5	Mayo	2023-05-20T00:00:00	2024-11-08T15:00:00	5	Humedad	52
108081	7	Sololá	701	Sololá	4	Finca Santa Victoria	5	Mayo	2023-05-20T00:00:00	2024-11-08T15:00:00	6	Velocidad del viento	4.8
108082	7	Sololá	701	Sololá	4	Finca Santa Victoria	5	Mayo	2023-05-20T00:00:00	2024-11-08T15:00:00	7	Dirección del viento	4.83
108083	7	Sololá	701	Sololá	4	Finca Santa Victoria	5	Mayo	2023-05-20T00:00:00	2024-11-08T15:00:00	1	Precipitación	0
108084	7	Sololá	701	Sololá	4	Finca Santa Victoria	5	Mayo	2023-05-20T00:00:00	2024-11-08T15:00:00	8	Radiación solar	382
108085	7	Sololá	701	Sololá	4	Finca Santa Victoria	5	Mayo	2023-05-20T00:00:00	2024-11-08T16:00:00	2	Temperatura media	21.6
108086	7	Sololá	701	Sololá	4	Finca Santa Victoria	5	Mayo	2023-05-20T00:00:00	2024-11-08T16:00:00	4	Temperatura máxima	23.2
108087	7	Sololá	701	Sololá	4	Finca Santa Victoria	5	Mayo	2023-05-20T00:00:00	2024-11-08T16:00:00	3	Temperatura mínima	21.3
108088	7	Sololá	701	Sololá	4	Finca Santa Victoria	5	Mayo	2023-05-20T00:00:00	2024-11-08T16:00:00	5	Humedad	53
108089	7	Sololá	701	Sololá	4	Finca Santa Victoria	5	Mayo	2023-05-20T00:00:00	2024-11-08T16:00:00	6	Velocidad del viento	4.8
108090	7	Sololá	701	Sololá	4	Finca Santa Victoria	5	Mayo	2023-05-20T00:00:00	2024-11-08T16:00:00	7	Dirección del viento	4.83
108091	7	Sololá	701	Sololá	4	Finca Santa Victoria	5	Mayo	2023-05-20T00:00:00	2024-11-08T16:00:00	1	Precipitación	0
108092	7	Sololá	701	Sololá	4	Finca Santa Victoria	5	Mayo	2023-05-20T00:00:00	2024-11-08T16:00:00	8	Radiación solar	162
108093	7	Sololá	701	Sololá	4	Finca Santa Victoria	5	Mayo	2023-05-20T00:00:00	2024-11-08T17:00:00	2	Temperatura media	20.9
108094	7	Sololá	701	Sololá	4	Finca Santa Victoria	5	Mayo	2023-05-20T00:00:00	2024-11-08T17:00:00	4	Temperatura máxima	21.6
108095	7	Sololá	701	Sololá	4	Finca Santa Victoria	5	Mayo	2023-05-20T00:00:00	2024-11-08T17:00:00	3	Temperatura mínima	20.9
108096	7	Sololá	701	Sololá	4	Finca Santa Victoria	5	Mayo	2023-05-20T00:00:00	2024-11-08T17:00:00	5	Humedad	56
108097	7	Sololá	701	Sololá	4	Finca Santa Victoria	5	Mayo	2023-05-20T00:00:00	2024-11-08T17:00:00	6	Velocidad del viento	3.2
108098	7	Sololá	701	Sololá	4	Finca Santa Victoria	5	Mayo	2023-05-20T00:00:00	2024-11-08T17:00:00	7	Dirección del viento	3.22
108099	7	Sololá	701	Sololá	4	Finca Santa Victoria	5	Mayo	2023-05-20T00:00:00	2024-11-08T17:00:00	1	Precipitación	0
108100	7	Sololá	701	Sololá	4	Finca Santa Victoria	5	Mayo	2023-05-20T00:00:00	2024-11-08T17:00:00	8	Radiación solar	124
108101	7	Sololá	701	Sololá	4	Finca Santa Victoria	5	Mayo	2023-05-20T00:00:00	2024-11-08T18:00:00	2	Temperatura media	18.8
108102	7	Sololá	701	Sololá	4	Finca Santa Victoria	5	Mayo	2023-05-20T00:00:00	2024-11-08T18:00:00	4	Temperatura máxima	20.9
108103	7	Sololá	701	Sololá	4	Finca Santa Victoria	5	Mayo	2023-05-20T00:00:00	2024-11-08T18:00:00	3	Temperatura mínima	18.8
108104	7	Sololá	701	Sololá	4	Finca Santa Victoria	5	Mayo	2023-05-20T00:00:00	2024-11-08T18:00:00	5	Humedad	63
108105	7	Sololá	701	Sololá	4	Finca Santa Victoria	5	Mayo	2023-05-20T00:00:00	2024-11-08T18:00:00	6	Velocidad del viento	3.2
108106	7	Sololá	701	Sololá	4	Finca Santa Victoria	5	Mayo	2023-05-20T00:00:00	2024-11-08T18:00:00	7	Dirección del viento	3.22
108107	7	Sololá	701	Sololá	4	Finca Santa Victoria	5	Mayo	2023-05-20T00:00:00	2024-11-08T18:00:00	1	Precipitación	0
108108	7	Sololá	701	Sololá	4	Finca Santa Victoria	5	Mayo	2023-05-20T00:00:00	2024-11-08T18:00:00	8	Radiación solar	87
108109	7	Sololá	701	Sololá	4	Finca Santa Victoria	5	Mayo	2023-05-20T00:00:00	2024-11-08T19:00:00	2	Temperatura media	16.7
108110	7	Sololá	701	Sololá	4	Finca Santa Victoria	5	Mayo	2023-05-20T00:00:00	2024-11-08T19:00:00	4	Temperatura máxima	18.8
108111	7	Sololá	701	Sololá	4	Finca Santa Victoria	5	Mayo	2023-05-20T00:00:00	2024-11-08T19:00:00	3	Temperatura mínima	16.7
108112	7	Sololá	701	Sololá	4	Finca Santa Victoria	5	Mayo	2023-05-20T00:00:00	2024-11-08T19:00:00	5	Humedad	73
108113	7	Sololá	701	Sololá	4	Finca Santa Victoria	5	Mayo	2023-05-20T00:00:00	2024-11-08T19:00:00	6	Velocidad del viento	1.6
108114	7	Sololá	701	Sololá	4	Finca Santa Victoria	5	Mayo	2023-05-20T00:00:00	2024-11-08T19:00:00	7	Dirección del viento	1.61
108115	7	Sololá	701	Sololá	4	Finca Santa Victoria	5	Mayo	2023-05-20T00:00:00	2024-11-08T19:00:00	1	Precipitación	0
108116	7	Sololá	701	Sololá	4	Finca Santa Victoria	5	Mayo	2023-05-20T00:00:00	2024-11-08T19:00:00	8	Radiación solar	0
108117	7	Sololá	701	Sololá	4	Finca Santa Victoria	5	Mayo	2023-05-20T00:00:00	2024-11-08T20:00:00	2	Temperatura media	15.9
108118	7	Sololá	701	Sololá	4	Finca Santa Victoria	5	Mayo	2023-05-20T00:00:00	2024-11-08T20:00:00	4	Temperatura máxima	16.7
108119	7	Sololá	701	Sololá	4	Finca Santa Victoria	5	Mayo	2023-05-20T00:00:00	2024-11-08T20:00:00	3	Temperatura mínima	15.9
108120	7	Sololá	701	Sololá	4	Finca Santa Victoria	5	Mayo	2023-05-20T00:00:00	2024-11-08T20:00:00	5	Humedad	79
108121	7	Sololá	701	Sololá	4	Finca Santa Victoria	5	Mayo	2023-05-20T00:00:00	2024-11-08T20:00:00	6	Velocidad del viento	3.2
108122	7	Sololá	701	Sololá	4	Finca Santa Victoria	5	Mayo	2023-05-20T00:00:00	2024-11-08T20:00:00	7	Dirección del viento	3.22
108123	7	Sololá	701	Sololá	4	Finca Santa Victoria	5	Mayo	2023-05-20T00:00:00	2024-11-08T20:00:00	1	Precipitación	0
108124	7	Sololá	701	Sololá	4	Finca Santa Victoria	5	Mayo	2023-05-20T00:00:00	2024-11-08T20:00:00	8	Radiación solar	0
108125	7	Sololá	701	Sololá	4	Finca Santa Victoria	5	Mayo	2023-05-20T00:00:00	2024-11-08T21:00:00	2	Temperatura media	15.4
108126	7	Sololá	701	Sololá	4	Finca Santa Victoria	5	Mayo	2023-05-20T00:00:00	2024-11-08T21:00:00	4	Temperatura máxima	15.9
108127	7	Sololá	701	Sololá	4	Finca Santa Victoria	5	Mayo	2023-05-20T00:00:00	2024-11-08T21:00:00	3	Temperatura mínima	15.4
108128	7	Sololá	701	Sololá	4	Finca Santa Victoria	5	Mayo	2023-05-20T00:00:00	2024-11-08T21:00:00	5	Humedad	79
108129	7	Sololá	701	Sololá	4	Finca Santa Victoria	5	Mayo	2023-05-20T00:00:00	2024-11-08T21:00:00	6	Velocidad del viento	3.2
108130	7	Sololá	701	Sololá	4	Finca Santa Victoria	5	Mayo	2023-05-20T00:00:00	2024-11-08T21:00:00	7	Dirección del viento	3.22
108131	7	Sololá	701	Sololá	4	Finca Santa Victoria	5	Mayo	2023-05-20T00:00:00	2024-11-08T21:00:00	1	Precipitación	0
108132	7	Sololá	701	Sololá	4	Finca Santa Victoria	5	Mayo	2023-05-20T00:00:00	2024-11-08T21:00:00	8	Radiación solar	0
108133	7	Sololá	701	Sololá	4	Finca Santa Victoria	5	Mayo	2023-05-20T00:00:00	2024-11-08T22:00:00	2	Temperatura media	14.9
108134	7	Sololá	701	Sololá	4	Finca Santa Victoria	5	Mayo	2023-05-20T00:00:00	2024-11-08T22:00:00	4	Temperatura máxima	15.4
108135	7	Sololá	701	Sololá	4	Finca Santa Victoria	5	Mayo	2023-05-20T00:00:00	2024-11-08T22:00:00	3	Temperatura mínima	14.9
108136	7	Sololá	701	Sololá	4	Finca Santa Victoria	5	Mayo	2023-05-20T00:00:00	2024-11-08T22:00:00	5	Humedad	81
108137	7	Sololá	701	Sololá	4	Finca Santa Victoria	5	Mayo	2023-05-20T00:00:00	2024-11-08T22:00:00	6	Velocidad del viento	3.2
108138	7	Sololá	701	Sololá	4	Finca Santa Victoria	5	Mayo	2023-05-20T00:00:00	2024-11-08T22:00:00	7	Dirección del viento	3.22
108139	7	Sololá	701	Sololá	4	Finca Santa Victoria	5	Mayo	2023-05-20T00:00:00	2024-11-08T22:00:00	1	Precipitación	0
108140	7	Sololá	701	Sololá	4	Finca Santa Victoria	5	Mayo	2023-05-20T00:00:00	2024-11-08T22:00:00	8	Radiación solar	0
108141	7	Sololá	701	Sololá	4	Finca Santa Victoria	5	Mayo	2023-05-20T00:00:00	2024-11-08T23:00:00	2	Temperatura media	14.6
108142	7	Sololá	701	Sololá	4	Finca Santa Victoria	5	Mayo	2023-05-20T00:00:00	2024-11-08T23:00:00	4	Temperatura máxima	14.9
108143	7	Sololá	701	Sololá	4	Finca Santa Victoria	5	Mayo	2023-05-20T00:00:00	2024-11-08T23:00:00	3	Temperatura mínima	14.5
108144	7	Sololá	701	Sololá	4	Finca Santa Victoria	5	Mayo	2023-05-20T00:00:00	2024-11-08T23:00:00	5	Humedad	80
108145	7	Sololá	701	Sololá	4	Finca Santa Victoria	5	Mayo	2023-05-20T00:00:00	2024-11-08T23:00:00	6	Velocidad del viento	1.6
108146	7	Sololá	701	Sololá	4	Finca Santa Victoria	5	Mayo	2023-05-20T00:00:00	2024-11-08T23:00:00	7	Dirección del viento	1.61
108147	7	Sololá	701	Sololá	4	Finca Santa Victoria	5	Mayo	2023-05-20T00:00:00	2024-11-08T23:00:00	1	Precipitación	0
108148	7	Sololá	701	Sololá	4	Finca Santa Victoria	5	Mayo	2023-05-20T00:00:00	2024-11-08T23:00:00	8	Radiación solar	0
108149	7	Sololá	701	Sololá	4	Finca Santa Victoria	5	Mayo	2023-05-21T00:00:00	2024-11-08T00:00:00	2	Temperatura media	14.1
108150	7	Sololá	701	Sololá	4	Finca Santa Victoria	5	Mayo	2023-05-21T00:00:00	2024-11-08T00:00:00	4	Temperatura máxima	14.6
108151	7	Sololá	701	Sololá	4	Finca Santa Victoria	5	Mayo	2023-05-21T00:00:00	2024-11-08T00:00:00	3	Temperatura mínima	14.1
108152	7	Sololá	701	Sololá	4	Finca Santa Victoria	5	Mayo	2023-05-21T00:00:00	2024-11-08T00:00:00	5	Humedad	82
108153	7	Sololá	701	Sololá	4	Finca Santa Victoria	5	Mayo	2023-05-21T00:00:00	2024-11-08T00:00:00	6	Velocidad del viento	1.6
108154	7	Sololá	701	Sololá	4	Finca Santa Victoria	5	Mayo	2023-05-21T00:00:00	2024-11-08T00:00:00	7	Dirección del viento	1.61
108155	7	Sololá	701	Sololá	4	Finca Santa Victoria	5	Mayo	2023-05-21T00:00:00	2024-11-08T00:00:00	1	Precipitación	0
108156	7	Sololá	701	Sololá	4	Finca Santa Victoria	5	Mayo	2023-05-21T00:00:00	2024-11-08T00:00:00	8	Radiación solar	0
108157	7	Sololá	701	Sololá	4	Finca Santa Victoria	5	Mayo	2023-05-21T00:00:00	2024-11-08T01:00:00	2	Temperatura media	14.2
108158	7	Sololá	701	Sololá	4	Finca Santa Victoria	5	Mayo	2023-05-21T00:00:00	2024-11-08T01:00:00	4	Temperatura máxima	14.5
108159	7	Sololá	701	Sololá	4	Finca Santa Victoria	5	Mayo	2023-05-21T00:00:00	2024-11-08T01:00:00	3	Temperatura mínima	13.9
108160	7	Sololá	701	Sololá	4	Finca Santa Victoria	5	Mayo	2023-05-21T00:00:00	2024-11-08T01:00:00	5	Humedad	80
108161	7	Sololá	701	Sololá	4	Finca Santa Victoria	5	Mayo	2023-05-21T00:00:00	2024-11-08T01:00:00	6	Velocidad del viento	1.6
108162	7	Sololá	701	Sololá	4	Finca Santa Victoria	5	Mayo	2023-05-21T00:00:00	2024-11-08T01:00:00	7	Dirección del viento	1.61
108163	7	Sololá	701	Sololá	4	Finca Santa Victoria	5	Mayo	2023-05-21T00:00:00	2024-11-08T01:00:00	1	Precipitación	0
108164	7	Sololá	701	Sololá	4	Finca Santa Victoria	5	Mayo	2023-05-21T00:00:00	2024-11-08T01:00:00	8	Radiación solar	0
108165	7	Sololá	701	Sololá	4	Finca Santa Victoria	5	Mayo	2023-05-21T00:00:00	2024-11-08T02:00:00	2	Temperatura media	14.1
108166	7	Sololá	701	Sololá	4	Finca Santa Victoria	5	Mayo	2023-05-21T00:00:00	2024-11-08T02:00:00	4	Temperatura máxima	14.4
108167	7	Sololá	701	Sololá	4	Finca Santa Victoria	5	Mayo	2023-05-21T00:00:00	2024-11-08T02:00:00	3	Temperatura mínima	14.1
108168	7	Sololá	701	Sololá	4	Finca Santa Victoria	5	Mayo	2023-05-21T00:00:00	2024-11-08T02:00:00	5	Humedad	82
108169	7	Sololá	701	Sololá	4	Finca Santa Victoria	5	Mayo	2023-05-21T00:00:00	2024-11-08T02:00:00	6	Velocidad del viento	1.6
108170	7	Sololá	701	Sololá	4	Finca Santa Victoria	5	Mayo	2023-05-21T00:00:00	2024-11-08T02:00:00	7	Dirección del viento	1.61
108171	7	Sololá	701	Sololá	4	Finca Santa Victoria	5	Mayo	2023-05-21T00:00:00	2024-11-08T02:00:00	1	Precipitación	0
108172	7	Sololá	701	Sololá	4	Finca Santa Victoria	5	Mayo	2023-05-21T00:00:00	2024-11-08T02:00:00	8	Radiación solar	0
108173	7	Sololá	701	Sololá	4	Finca Santa Victoria	5	Mayo	2023-05-21T00:00:00	2024-11-08T03:00:00	2	Temperatura media	13.9
108174	7	Sololá	701	Sololá	4	Finca Santa Victoria	5	Mayo	2023-05-21T00:00:00	2024-11-08T03:00:00	4	Temperatura máxima	14.1
108175	7	Sololá	701	Sololá	4	Finca Santa Victoria	5	Mayo	2023-05-21T00:00:00	2024-11-08T03:00:00	3	Temperatura mínima	13.4
108176	7	Sololá	701	Sololá	4	Finca Santa Victoria	5	Mayo	2023-05-21T00:00:00	2024-11-08T03:00:00	5	Humedad	83
108177	7	Sololá	701	Sololá	4	Finca Santa Victoria	5	Mayo	2023-05-21T00:00:00	2024-11-08T03:00:00	6	Velocidad del viento	1.6
108178	7	Sololá	701	Sololá	4	Finca Santa Victoria	5	Mayo	2023-05-21T00:00:00	2024-11-08T03:00:00	7	Dirección del viento	1.61
108179	7	Sololá	701	Sololá	4	Finca Santa Victoria	5	Mayo	2023-05-21T00:00:00	2024-11-08T03:00:00	1	Precipitación	0
108180	7	Sololá	701	Sololá	4	Finca Santa Victoria	5	Mayo	2023-05-21T00:00:00	2024-11-08T03:00:00	8	Radiación solar	0
108181	7	Sololá	701	Sololá	4	Finca Santa Victoria	5	Mayo	2023-05-21T00:00:00	2024-11-08T04:00:00	2	Temperatura media	13.7
108182	7	Sololá	701	Sololá	4	Finca Santa Victoria	5	Mayo	2023-05-21T00:00:00	2024-11-08T04:00:00	4	Temperatura máxima	14.1
108183	7	Sololá	701	Sololá	4	Finca Santa Victoria	5	Mayo	2023-05-21T00:00:00	2024-11-08T04:00:00	3	Temperatura mínima	13.7
108184	7	Sololá	701	Sololá	4	Finca Santa Victoria	5	Mayo	2023-05-21T00:00:00	2024-11-08T04:00:00	5	Humedad	83
108185	7	Sololá	701	Sololá	4	Finca Santa Victoria	5	Mayo	2023-05-21T00:00:00	2024-11-08T04:00:00	6	Velocidad del viento	1.6
108186	7	Sololá	701	Sololá	4	Finca Santa Victoria	5	Mayo	2023-05-21T00:00:00	2024-11-08T04:00:00	7	Dirección del viento	1.61
108187	7	Sololá	701	Sololá	4	Finca Santa Victoria	5	Mayo	2023-05-21T00:00:00	2024-11-08T04:00:00	1	Precipitación	0
108188	7	Sololá	701	Sololá	4	Finca Santa Victoria	5	Mayo	2023-05-21T00:00:00	2024-11-08T04:00:00	8	Radiación solar	0
108189	7	Sololá	701	Sololá	4	Finca Santa Victoria	5	Mayo	2023-05-21T00:00:00	2024-11-08T05:00:00	2	Temperatura media	13
108190	7	Sololá	701	Sololá	4	Finca Santa Victoria	5	Mayo	2023-05-21T00:00:00	2024-11-08T05:00:00	4	Temperatura máxima	13.8
108191	7	Sololá	701	Sololá	4	Finca Santa Victoria	5	Mayo	2023-05-21T00:00:00	2024-11-08T05:00:00	3	Temperatura mínima	13
108192	7	Sololá	701	Sololá	4	Finca Santa Victoria	5	Mayo	2023-05-21T00:00:00	2024-11-08T05:00:00	5	Humedad	86
108193	7	Sololá	701	Sololá	4	Finca Santa Victoria	5	Mayo	2023-05-21T00:00:00	2024-11-08T05:00:00	6	Velocidad del viento	1.6
108194	7	Sololá	701	Sololá	4	Finca Santa Victoria	5	Mayo	2023-05-21T00:00:00	2024-11-08T05:00:00	7	Dirección del viento	1.61
108195	7	Sololá	701	Sololá	4	Finca Santa Victoria	5	Mayo	2023-05-21T00:00:00	2024-11-08T05:00:00	1	Precipitación	0
108196	7	Sololá	701	Sololá	4	Finca Santa Victoria	5	Mayo	2023-05-21T00:00:00	2024-11-08T05:00:00	8	Radiación solar	0
108197	7	Sololá	701	Sololá	4	Finca Santa Victoria	5	Mayo	2023-05-21T00:00:00	2024-11-08T06:00:00	2	Temperatura media	13.9
108198	7	Sololá	701	Sololá	4	Finca Santa Victoria	5	Mayo	2023-05-21T00:00:00	2024-11-08T06:00:00	4	Temperatura máxima	13.9
108199	7	Sololá	701	Sololá	4	Finca Santa Victoria	5	Mayo	2023-05-21T00:00:00	2024-11-08T06:00:00	3	Temperatura mínima	12.9
108200	7	Sololá	701	Sololá	4	Finca Santa Victoria	5	Mayo	2023-05-21T00:00:00	2024-11-08T06:00:00	5	Humedad	85
108201	7	Sololá	701	Sololá	4	Finca Santa Victoria	5	Mayo	2023-05-21T00:00:00	2024-11-08T06:00:00	6	Velocidad del viento	0
108202	7	Sololá	701	Sololá	4	Finca Santa Victoria	5	Mayo	2023-05-21T00:00:00	2024-11-08T06:00:00	7	Dirección del viento	0
108203	7	Sololá	701	Sololá	4	Finca Santa Victoria	5	Mayo	2023-05-21T00:00:00	2024-11-08T06:00:00	1	Precipitación	0
108204	7	Sololá	701	Sololá	4	Finca Santa Victoria	5	Mayo	2023-05-21T00:00:00	2024-11-08T06:00:00	8	Radiación solar	0
108205	7	Sololá	701	Sololá	4	Finca Santa Victoria	5	Mayo	2023-05-21T00:00:00	2024-11-08T07:00:00	2	Temperatura media	14.3
108206	7	Sololá	701	Sololá	4	Finca Santa Victoria	5	Mayo	2023-05-21T00:00:00	2024-11-08T07:00:00	4	Temperatura máxima	14.4
108207	7	Sololá	701	Sololá	4	Finca Santa Victoria	5	Mayo	2023-05-21T00:00:00	2024-11-08T07:00:00	3	Temperatura mínima	13.9
108208	7	Sololá	701	Sololá	4	Finca Santa Victoria	5	Mayo	2023-05-21T00:00:00	2024-11-08T07:00:00	5	Humedad	86
108209	7	Sololá	701	Sololá	4	Finca Santa Victoria	5	Mayo	2023-05-21T00:00:00	2024-11-08T07:00:00	6	Velocidad del viento	1.6
108210	7	Sololá	701	Sololá	4	Finca Santa Victoria	5	Mayo	2023-05-21T00:00:00	2024-11-08T07:00:00	7	Dirección del viento	1.61
108211	7	Sololá	701	Sololá	4	Finca Santa Victoria	5	Mayo	2023-05-21T00:00:00	2024-11-08T07:00:00	1	Precipitación	0
108212	7	Sololá	701	Sololá	4	Finca Santa Victoria	5	Mayo	2023-05-21T00:00:00	2024-11-08T07:00:00	8	Radiación solar	28
108213	7	Sololá	701	Sololá	4	Finca Santa Victoria	5	Mayo	2023-05-21T00:00:00	2024-11-08T08:00:00	2	Temperatura media	17.3
108214	7	Sololá	701	Sololá	4	Finca Santa Victoria	5	Mayo	2023-05-21T00:00:00	2024-11-08T08:00:00	4	Temperatura máxima	17.3
108215	7	Sololá	701	Sololá	4	Finca Santa Victoria	5	Mayo	2023-05-21T00:00:00	2024-11-08T08:00:00	3	Temperatura mínima	14.3
108216	7	Sololá	701	Sololá	4	Finca Santa Victoria	5	Mayo	2023-05-21T00:00:00	2024-11-08T08:00:00	5	Humedad	77
108217	7	Sololá	701	Sololá	4	Finca Santa Victoria	5	Mayo	2023-05-21T00:00:00	2024-11-08T08:00:00	6	Velocidad del viento	1.6
108218	7	Sololá	701	Sololá	4	Finca Santa Victoria	5	Mayo	2023-05-21T00:00:00	2024-11-08T08:00:00	7	Dirección del viento	1.61
108219	7	Sololá	701	Sololá	4	Finca Santa Victoria	5	Mayo	2023-05-21T00:00:00	2024-11-08T08:00:00	1	Precipitación	0
108220	7	Sololá	701	Sololá	4	Finca Santa Victoria	5	Mayo	2023-05-21T00:00:00	2024-11-08T08:00:00	8	Radiación solar	226
108221	7	Sololá	701	Sololá	4	Finca Santa Victoria	5	Mayo	2023-05-21T00:00:00	2024-11-08T09:00:00	2	Temperatura media	16.8
108222	7	Sololá	701	Sololá	4	Finca Santa Victoria	5	Mayo	2023-05-21T00:00:00	2024-11-08T09:00:00	4	Temperatura máxima	17.4
108223	7	Sololá	701	Sololá	4	Finca Santa Victoria	5	Mayo	2023-05-21T00:00:00	2024-11-08T09:00:00	3	Temperatura mínima	16.6
108224	7	Sololá	701	Sololá	4	Finca Santa Victoria	5	Mayo	2023-05-21T00:00:00	2024-11-08T09:00:00	5	Humedad	77
108225	7	Sololá	701	Sololá	4	Finca Santa Victoria	5	Mayo	2023-05-21T00:00:00	2024-11-08T09:00:00	6	Velocidad del viento	1.6
108226	7	Sololá	701	Sololá	4	Finca Santa Victoria	5	Mayo	2023-05-21T00:00:00	2024-11-08T09:00:00	7	Dirección del viento	1.61
108227	7	Sololá	701	Sololá	4	Finca Santa Victoria	5	Mayo	2023-05-21T00:00:00	2024-11-08T09:00:00	1	Precipitación	0
108228	7	Sololá	701	Sololá	4	Finca Santa Victoria	5	Mayo	2023-05-21T00:00:00	2024-11-08T09:00:00	8	Radiación solar	171
108229	7	Sololá	701	Sololá	4	Finca Santa Victoria	5	Mayo	2023-05-21T00:00:00	2024-11-08T10:00:00	2	Temperatura media	19.3
108230	7	Sololá	701	Sololá	4	Finca Santa Victoria	5	Mayo	2023-05-21T00:00:00	2024-11-08T10:00:00	4	Temperatura máxima	19.3
108231	7	Sololá	701	Sololá	4	Finca Santa Victoria	5	Mayo	2023-05-21T00:00:00	2024-11-08T10:00:00	3	Temperatura mínima	16.8
108232	7	Sololá	701	Sololá	4	Finca Santa Victoria	5	Mayo	2023-05-21T00:00:00	2024-11-08T10:00:00	5	Humedad	69
108233	7	Sololá	701	Sololá	4	Finca Santa Victoria	5	Mayo	2023-05-21T00:00:00	2024-11-08T10:00:00	6	Velocidad del viento	1.6
108234	7	Sololá	701	Sololá	4	Finca Santa Victoria	5	Mayo	2023-05-21T00:00:00	2024-11-08T10:00:00	7	Dirección del viento	1.61
108235	7	Sololá	701	Sololá	4	Finca Santa Victoria	5	Mayo	2023-05-21T00:00:00	2024-11-08T10:00:00	1	Precipitación	0
108236	7	Sololá	701	Sololá	4	Finca Santa Victoria	5	Mayo	2023-05-21T00:00:00	2024-11-08T10:00:00	8	Radiación solar	322
108237	7	Sololá	701	Sololá	4	Finca Santa Victoria	5	Mayo	2023-05-21T00:00:00	2024-11-08T11:00:00	2	Temperatura media	18.5
108238	7	Sololá	701	Sololá	4	Finca Santa Victoria	5	Mayo	2023-05-21T00:00:00	2024-11-08T11:00:00	4	Temperatura máxima	19.8
108239	7	Sololá	701	Sololá	4	Finca Santa Victoria	5	Mayo	2023-05-21T00:00:00	2024-11-08T11:00:00	3	Temperatura mínima	18.4
108240	7	Sololá	701	Sololá	4	Finca Santa Victoria	5	Mayo	2023-05-21T00:00:00	2024-11-08T11:00:00	5	Humedad	73
108241	7	Sololá	701	Sololá	4	Finca Santa Victoria	5	Mayo	2023-05-21T00:00:00	2024-11-08T11:00:00	6	Velocidad del viento	3.2
108242	7	Sololá	701	Sololá	4	Finca Santa Victoria	5	Mayo	2023-05-21T00:00:00	2024-11-08T11:00:00	7	Dirección del viento	3.22
108243	7	Sololá	701	Sololá	4	Finca Santa Victoria	5	Mayo	2023-05-21T00:00:00	2024-11-08T11:00:00	1	Precipitación	0
108244	7	Sololá	701	Sololá	4	Finca Santa Victoria	5	Mayo	2023-05-21T00:00:00	2024-11-08T11:00:00	8	Radiación solar	273
108245	7	Sololá	701	Sololá	4	Finca Santa Victoria	5	Mayo	2023-05-21T00:00:00	2024-11-08T12:00:00	2	Temperatura media	18.7
108246	7	Sololá	701	Sololá	4	Finca Santa Victoria	5	Mayo	2023-05-21T00:00:00	2024-11-08T12:00:00	4	Temperatura máxima	19.4
108247	7	Sololá	701	Sololá	4	Finca Santa Victoria	5	Mayo	2023-05-21T00:00:00	2024-11-08T12:00:00	3	Temperatura mínima	18.1
108248	7	Sololá	701	Sololá	4	Finca Santa Victoria	5	Mayo	2023-05-21T00:00:00	2024-11-08T12:00:00	5	Humedad	73
108249	7	Sololá	701	Sololá	4	Finca Santa Victoria	5	Mayo	2023-05-21T00:00:00	2024-11-08T12:00:00	6	Velocidad del viento	3.2
108250	7	Sololá	701	Sololá	4	Finca Santa Victoria	5	Mayo	2023-05-21T00:00:00	2024-11-08T12:00:00	7	Dirección del viento	3.22
108251	7	Sololá	701	Sololá	4	Finca Santa Victoria	5	Mayo	2023-05-21T00:00:00	2024-11-08T12:00:00	1	Precipitación	0
108252	7	Sololá	701	Sololá	4	Finca Santa Victoria	5	Mayo	2023-05-21T00:00:00	2024-11-08T12:00:00	8	Radiación solar	248
108253	7	Sololá	701	Sololá	4	Finca Santa Victoria	5	Mayo	2023-05-21T00:00:00	2024-11-08T13:00:00	2	Temperatura media	17.3
108254	7	Sololá	701	Sololá	4	Finca Santa Victoria	5	Mayo	2023-05-21T00:00:00	2024-11-08T13:00:00	4	Temperatura máxima	18.7
108255	7	Sololá	701	Sololá	4	Finca Santa Victoria	5	Mayo	2023-05-21T00:00:00	2024-11-08T13:00:00	3	Temperatura mínima	17.3
108256	7	Sololá	701	Sololá	4	Finca Santa Victoria	5	Mayo	2023-05-21T00:00:00	2024-11-08T13:00:00	5	Humedad	82
108257	7	Sololá	701	Sololá	4	Finca Santa Victoria	5	Mayo	2023-05-21T00:00:00	2024-11-08T13:00:00	6	Velocidad del viento	3.2
108258	7	Sololá	701	Sololá	4	Finca Santa Victoria	5	Mayo	2023-05-21T00:00:00	2024-11-08T13:00:00	7	Dirección del viento	3.22
108259	7	Sololá	701	Sololá	4	Finca Santa Victoria	5	Mayo	2023-05-21T00:00:00	2024-11-08T13:00:00	1	Precipitación	0
108260	7	Sololá	701	Sololá	4	Finca Santa Victoria	5	Mayo	2023-05-21T00:00:00	2024-11-08T13:00:00	8	Radiación solar	179
108261	7	Sololá	701	Sololá	4	Finca Santa Victoria	5	Mayo	2023-05-21T00:00:00	2024-11-08T14:00:00	2	Temperatura media	17.5
108262	7	Sololá	701	Sololá	4	Finca Santa Victoria	5	Mayo	2023-05-21T00:00:00	2024-11-08T14:00:00	4	Temperatura máxima	17.6
108263	7	Sololá	701	Sololá	4	Finca Santa Victoria	5	Mayo	2023-05-21T00:00:00	2024-11-08T14:00:00	3	Temperatura mínima	16.9
108264	7	Sololá	701	Sololá	4	Finca Santa Victoria	5	Mayo	2023-05-21T00:00:00	2024-11-08T14:00:00	5	Humedad	78
108265	7	Sololá	701	Sololá	4	Finca Santa Victoria	5	Mayo	2023-05-21T00:00:00	2024-11-08T14:00:00	6	Velocidad del viento	3.2
108266	7	Sololá	701	Sololá	4	Finca Santa Victoria	5	Mayo	2023-05-21T00:00:00	2024-11-08T14:00:00	7	Dirección del viento	3.22
108267	7	Sololá	701	Sololá	4	Finca Santa Victoria	5	Mayo	2023-05-21T00:00:00	2024-11-08T14:00:00	1	Precipitación	0
108268	7	Sololá	701	Sololá	4	Finca Santa Victoria	5	Mayo	2023-05-21T00:00:00	2024-11-08T14:00:00	8	Radiación solar	168
108269	7	Sololá	701	Sololá	4	Finca Santa Victoria	5	Mayo	2023-05-21T00:00:00	2024-11-08T15:00:00	2	Temperatura media	18.8
108270	7	Sololá	701	Sololá	4	Finca Santa Victoria	5	Mayo	2023-05-21T00:00:00	2024-11-08T15:00:00	4	Temperatura máxima	19
108271	7	Sololá	701	Sololá	4	Finca Santa Victoria	5	Mayo	2023-05-21T00:00:00	2024-11-08T15:00:00	3	Temperatura mínima	17.5
108272	7	Sololá	701	Sololá	4	Finca Santa Victoria	5	Mayo	2023-05-21T00:00:00	2024-11-08T15:00:00	5	Humedad	75
108273	7	Sololá	701	Sololá	4	Finca Santa Victoria	5	Mayo	2023-05-21T00:00:00	2024-11-08T15:00:00	6	Velocidad del viento	3.2
108274	7	Sololá	701	Sololá	4	Finca Santa Victoria	5	Mayo	2023-05-21T00:00:00	2024-11-08T15:00:00	7	Dirección del viento	3.22
108275	7	Sololá	701	Sololá	4	Finca Santa Victoria	5	Mayo	2023-05-21T00:00:00	2024-11-08T15:00:00	1	Precipitación	0
108276	7	Sololá	701	Sololá	4	Finca Santa Victoria	5	Mayo	2023-05-21T00:00:00	2024-11-08T15:00:00	8	Radiación solar	208
108277	7	Sololá	701	Sololá	4	Finca Santa Victoria	5	Mayo	2023-05-21T00:00:00	2024-11-08T16:00:00	2	Temperatura media	18
108278	7	Sololá	701	Sololá	4	Finca Santa Victoria	5	Mayo	2023-05-21T00:00:00	2024-11-08T16:00:00	4	Temperatura máxima	18.8
108279	7	Sololá	701	Sololá	4	Finca Santa Victoria	5	Mayo	2023-05-21T00:00:00	2024-11-08T16:00:00	3	Temperatura mínima	17.7
108280	7	Sololá	701	Sololá	4	Finca Santa Victoria	5	Mayo	2023-05-21T00:00:00	2024-11-08T16:00:00	5	Humedad	76
108281	7	Sololá	701	Sololá	4	Finca Santa Victoria	5	Mayo	2023-05-21T00:00:00	2024-11-08T16:00:00	6	Velocidad del viento	1.6
108282	7	Sololá	701	Sololá	4	Finca Santa Victoria	5	Mayo	2023-05-21T00:00:00	2024-11-08T16:00:00	7	Dirección del viento	1.61
108283	7	Sololá	701	Sololá	4	Finca Santa Victoria	5	Mayo	2023-05-21T00:00:00	2024-11-08T16:00:00	1	Precipitación	0
108284	7	Sololá	701	Sololá	4	Finca Santa Victoria	5	Mayo	2023-05-21T00:00:00	2024-11-08T16:00:00	8	Radiación solar	111
108285	7	Sololá	701	Sololá	4	Finca Santa Victoria	5	Mayo	2023-05-21T00:00:00	2024-11-08T17:00:00	2	Temperatura media	17.7
108286	7	Sololá	701	Sololá	4	Finca Santa Victoria	5	Mayo	2023-05-21T00:00:00	2024-11-08T17:00:00	4	Temperatura máxima	19.1
108287	7	Sololá	701	Sololá	4	Finca Santa Victoria	5	Mayo	2023-05-21T00:00:00	2024-11-08T17:00:00	3	Temperatura mínima	17.7
108288	7	Sololá	701	Sololá	4	Finca Santa Victoria	5	Mayo	2023-05-21T00:00:00	2024-11-08T17:00:00	5	Humedad	77
108289	7	Sololá	701	Sololá	4	Finca Santa Victoria	5	Mayo	2023-05-21T00:00:00	2024-11-08T17:00:00	6	Velocidad del viento	1.6
108290	7	Sololá	701	Sololá	4	Finca Santa Victoria	5	Mayo	2023-05-21T00:00:00	2024-11-08T17:00:00	7	Dirección del viento	1.61
108291	7	Sololá	701	Sololá	4	Finca Santa Victoria	5	Mayo	2023-05-21T00:00:00	2024-11-08T17:00:00	1	Precipitación	0
108292	7	Sololá	701	Sololá	4	Finca Santa Victoria	5	Mayo	2023-05-21T00:00:00	2024-11-08T17:00:00	8	Radiación solar	98
108293	7	Sololá	701	Sololá	4	Finca Santa Victoria	5	Mayo	2023-05-21T00:00:00	2024-11-08T18:00:00	2	Temperatura media	16.3
108294	7	Sololá	701	Sololá	4	Finca Santa Victoria	5	Mayo	2023-05-21T00:00:00	2024-11-08T18:00:00	4	Temperatura máxima	17.7
108295	7	Sololá	701	Sololá	4	Finca Santa Victoria	5	Mayo	2023-05-21T00:00:00	2024-11-08T18:00:00	3	Temperatura mínima	16.3
108296	7	Sololá	701	Sololá	4	Finca Santa Victoria	5	Mayo	2023-05-21T00:00:00	2024-11-08T18:00:00	5	Humedad	90
108297	7	Sololá	701	Sololá	4	Finca Santa Victoria	5	Mayo	2023-05-21T00:00:00	2024-11-08T18:00:00	6	Velocidad del viento	1.6
108298	7	Sololá	701	Sololá	4	Finca Santa Victoria	5	Mayo	2023-05-21T00:00:00	2024-11-08T18:00:00	7	Dirección del viento	1.61
108299	7	Sololá	701	Sololá	4	Finca Santa Victoria	5	Mayo	2023-05-21T00:00:00	2024-11-08T18:00:00	1	Precipitación	0
108300	7	Sololá	701	Sololá	4	Finca Santa Victoria	5	Mayo	2023-05-21T00:00:00	2024-11-08T18:00:00	8	Radiación solar	30
108301	7	Sololá	701	Sololá	4	Finca Santa Victoria	5	Mayo	2023-05-21T00:00:00	2024-11-08T19:00:00	2	Temperatura media	15.8
108302	7	Sololá	701	Sololá	4	Finca Santa Victoria	5	Mayo	2023-05-21T00:00:00	2024-11-08T19:00:00	4	Temperatura máxima	16.4
108303	7	Sololá	701	Sololá	4	Finca Santa Victoria	5	Mayo	2023-05-21T00:00:00	2024-11-08T19:00:00	3	Temperatura mínima	15.7
108304	7	Sololá	701	Sololá	4	Finca Santa Victoria	5	Mayo	2023-05-21T00:00:00	2024-11-08T19:00:00	5	Humedad	87
108305	7	Sololá	701	Sololá	4	Finca Santa Victoria	5	Mayo	2023-05-21T00:00:00	2024-11-08T19:00:00	6	Velocidad del viento	0
108306	7	Sololá	701	Sololá	4	Finca Santa Victoria	5	Mayo	2023-05-21T00:00:00	2024-11-08T19:00:00	7	Dirección del viento	0
108307	7	Sololá	701	Sololá	4	Finca Santa Victoria	5	Mayo	2023-05-21T00:00:00	2024-11-08T19:00:00	1	Precipitación	0
108308	7	Sololá	701	Sololá	4	Finca Santa Victoria	5	Mayo	2023-05-21T00:00:00	2024-11-08T19:00:00	8	Radiación solar	0
108309	7	Sololá	701	Sololá	4	Finca Santa Victoria	5	Mayo	2023-05-21T00:00:00	2024-11-08T20:00:00	2	Temperatura media	15.8
108310	7	Sololá	701	Sololá	4	Finca Santa Victoria	5	Mayo	2023-05-21T00:00:00	2024-11-08T20:00:00	4	Temperatura máxima	16.1
108311	7	Sololá	701	Sololá	4	Finca Santa Victoria	5	Mayo	2023-05-21T00:00:00	2024-11-08T20:00:00	3	Temperatura mínima	15.7
108312	7	Sololá	701	Sololá	4	Finca Santa Victoria	5	Mayo	2023-05-21T00:00:00	2024-11-08T20:00:00	5	Humedad	84
108313	7	Sololá	701	Sololá	4	Finca Santa Victoria	5	Mayo	2023-05-21T00:00:00	2024-11-08T20:00:00	6	Velocidad del viento	1.6
108314	7	Sololá	701	Sololá	4	Finca Santa Victoria	5	Mayo	2023-05-21T00:00:00	2024-11-08T20:00:00	7	Dirección del viento	1.61
108315	7	Sololá	701	Sololá	4	Finca Santa Victoria	5	Mayo	2023-05-21T00:00:00	2024-11-08T20:00:00	1	Precipitación	0
108316	7	Sololá	701	Sololá	4	Finca Santa Victoria	5	Mayo	2023-05-21T00:00:00	2024-11-08T20:00:00	8	Radiación solar	0
108317	7	Sololá	701	Sololá	4	Finca Santa Victoria	5	Mayo	2023-05-21T00:00:00	2024-11-08T21:00:00	2	Temperatura media	14.8
108318	7	Sololá	701	Sololá	4	Finca Santa Victoria	5	Mayo	2023-05-21T00:00:00	2024-11-08T21:00:00	4	Temperatura máxima	15.9
108319	7	Sololá	701	Sololá	4	Finca Santa Victoria	5	Mayo	2023-05-21T00:00:00	2024-11-08T21:00:00	3	Temperatura mínima	14.8
108320	7	Sololá	701	Sololá	4	Finca Santa Victoria	5	Mayo	2023-05-21T00:00:00	2024-11-08T21:00:00	5	Humedad	91
108321	7	Sololá	701	Sololá	4	Finca Santa Victoria	5	Mayo	2023-05-21T00:00:00	2024-11-08T21:00:00	6	Velocidad del viento	1.6
108322	7	Sololá	701	Sololá	4	Finca Santa Victoria	5	Mayo	2023-05-21T00:00:00	2024-11-08T21:00:00	7	Dirección del viento	1.61
108323	7	Sololá	701	Sololá	4	Finca Santa Victoria	5	Mayo	2023-05-21T00:00:00	2024-11-08T21:00:00	1	Precipitación	0
108324	7	Sololá	701	Sololá	4	Finca Santa Victoria	5	Mayo	2023-05-21T00:00:00	2024-11-08T21:00:00	8	Radiación solar	0
108325	7	Sololá	701	Sololá	4	Finca Santa Victoria	5	Mayo	2023-05-21T00:00:00	2024-11-08T22:00:00	2	Temperatura media	14.8
108326	7	Sololá	701	Sololá	4	Finca Santa Victoria	5	Mayo	2023-05-21T00:00:00	2024-11-08T22:00:00	4	Temperatura máxima	15
108327	7	Sololá	701	Sololá	4	Finca Santa Victoria	5	Mayo	2023-05-21T00:00:00	2024-11-08T22:00:00	3	Temperatura mínima	14.7
108328	7	Sololá	701	Sololá	4	Finca Santa Victoria	5	Mayo	2023-05-21T00:00:00	2024-11-08T22:00:00	5	Humedad	89
108329	7	Sololá	701	Sololá	4	Finca Santa Victoria	5	Mayo	2023-05-21T00:00:00	2024-11-08T22:00:00	6	Velocidad del viento	1.6
108330	7	Sololá	701	Sololá	4	Finca Santa Victoria	5	Mayo	2023-05-21T00:00:00	2024-11-08T22:00:00	7	Dirección del viento	1.61
108331	7	Sololá	701	Sololá	4	Finca Santa Victoria	5	Mayo	2023-05-21T00:00:00	2024-11-08T22:00:00	1	Precipitación	0
108332	7	Sololá	701	Sololá	4	Finca Santa Victoria	5	Mayo	2023-05-21T00:00:00	2024-11-08T22:00:00	8	Radiación solar	0
108333	7	Sololá	701	Sololá	4	Finca Santa Victoria	5	Mayo	2023-05-21T00:00:00	2024-11-08T23:00:00	2	Temperatura media	14.4
108334	7	Sololá	701	Sololá	4	Finca Santa Victoria	5	Mayo	2023-05-21T00:00:00	2024-11-08T23:00:00	4	Temperatura máxima	14.8
108335	7	Sololá	701	Sololá	4	Finca Santa Victoria	5	Mayo	2023-05-21T00:00:00	2024-11-08T23:00:00	3	Temperatura mínima	14.1
108336	7	Sololá	701	Sololá	4	Finca Santa Victoria	5	Mayo	2023-05-21T00:00:00	2024-11-08T23:00:00	5	Humedad	90
108337	7	Sololá	701	Sololá	4	Finca Santa Victoria	5	Mayo	2023-05-21T00:00:00	2024-11-08T23:00:00	6	Velocidad del viento	0
108338	7	Sololá	701	Sololá	4	Finca Santa Victoria	5	Mayo	2023-05-21T00:00:00	2024-11-08T23:00:00	7	Dirección del viento	0
108339	7	Sololá	701	Sololá	4	Finca Santa Victoria	5	Mayo	2023-05-21T00:00:00	2024-11-08T23:00:00	1	Precipitación	0
108340	7	Sololá	701	Sololá	4	Finca Santa Victoria	5	Mayo	2023-05-21T00:00:00	2024-11-08T23:00:00	8	Radiación solar	0
108341	7	Sololá	701	Sololá	4	Finca Santa Victoria	5	Mayo	2023-05-22T00:00:00	2024-11-08T00:00:00	2	Temperatura media	13.9
108342	7	Sololá	701	Sololá	4	Finca Santa Victoria	5	Mayo	2023-05-22T00:00:00	2024-11-08T00:00:00	4	Temperatura máxima	14.5
108343	7	Sololá	701	Sololá	4	Finca Santa Victoria	5	Mayo	2023-05-22T00:00:00	2024-11-08T00:00:00	3	Temperatura mínima	13.9
108344	7	Sololá	701	Sololá	4	Finca Santa Victoria	5	Mayo	2023-05-22T00:00:00	2024-11-08T00:00:00	5	Humedad	90
108345	7	Sololá	701	Sololá	4	Finca Santa Victoria	5	Mayo	2023-05-22T00:00:00	2024-11-08T00:00:00	6	Velocidad del viento	0
108346	7	Sololá	701	Sololá	4	Finca Santa Victoria	5	Mayo	2023-05-22T00:00:00	2024-11-08T00:00:00	7	Dirección del viento	0
108347	7	Sololá	701	Sololá	4	Finca Santa Victoria	5	Mayo	2023-05-22T00:00:00	2024-11-08T00:00:00	1	Precipitación	0
108348	7	Sololá	701	Sololá	4	Finca Santa Victoria	5	Mayo	2023-05-22T00:00:00	2024-11-08T00:00:00	8	Radiación solar	0
108349	7	Sololá	701	Sololá	4	Finca Santa Victoria	5	Mayo	2023-05-22T00:00:00	2024-11-08T01:00:00	2	Temperatura media	13.4
108350	7	Sololá	701	Sololá	4	Finca Santa Victoria	5	Mayo	2023-05-22T00:00:00	2024-11-08T01:00:00	4	Temperatura máxima	13.9
108351	7	Sololá	701	Sololá	4	Finca Santa Victoria	5	Mayo	2023-05-22T00:00:00	2024-11-08T01:00:00	3	Temperatura mínima	13.3
108352	7	Sololá	701	Sololá	4	Finca Santa Victoria	5	Mayo	2023-05-22T00:00:00	2024-11-08T01:00:00	5	Humedad	94
108353	7	Sololá	701	Sololá	4	Finca Santa Victoria	5	Mayo	2023-05-22T00:00:00	2024-11-08T01:00:00	6	Velocidad del viento	0
108354	7	Sololá	701	Sololá	4	Finca Santa Victoria	5	Mayo	2023-05-22T00:00:00	2024-11-08T01:00:00	7	Dirección del viento	0
108355	7	Sololá	701	Sololá	4	Finca Santa Victoria	5	Mayo	2023-05-22T00:00:00	2024-11-08T01:00:00	1	Precipitación	0
108356	7	Sololá	701	Sololá	4	Finca Santa Victoria	5	Mayo	2023-05-22T00:00:00	2024-11-08T01:00:00	8	Radiación solar	0
108357	7	Sololá	701	Sololá	4	Finca Santa Victoria	5	Mayo	2023-05-22T00:00:00	2024-11-08T02:00:00	2	Temperatura media	14
108358	7	Sololá	701	Sololá	4	Finca Santa Victoria	5	Mayo	2023-05-22T00:00:00	2024-11-08T02:00:00	4	Temperatura máxima	14
108359	7	Sololá	701	Sololá	4	Finca Santa Victoria	5	Mayo	2023-05-22T00:00:00	2024-11-08T02:00:00	3	Temperatura mínima	13.4
108360	7	Sololá	701	Sololá	4	Finca Santa Victoria	5	Mayo	2023-05-22T00:00:00	2024-11-08T02:00:00	5	Humedad	92
108361	7	Sololá	701	Sololá	4	Finca Santa Victoria	5	Mayo	2023-05-22T00:00:00	2024-11-08T02:00:00	6	Velocidad del viento	1.6
108362	7	Sololá	701	Sololá	4	Finca Santa Victoria	5	Mayo	2023-05-22T00:00:00	2024-11-08T02:00:00	7	Dirección del viento	1.61
108363	7	Sololá	701	Sololá	4	Finca Santa Victoria	5	Mayo	2023-05-22T00:00:00	2024-11-08T02:00:00	1	Precipitación	0
108364	7	Sololá	701	Sololá	4	Finca Santa Victoria	5	Mayo	2023-05-22T00:00:00	2024-11-08T02:00:00	8	Radiación solar	0
108365	7	Sololá	701	Sololá	4	Finca Santa Victoria	5	Mayo	2023-05-22T00:00:00	2024-11-08T03:00:00	2	Temperatura media	13.6
108366	7	Sololá	701	Sololá	4	Finca Santa Victoria	5	Mayo	2023-05-22T00:00:00	2024-11-08T03:00:00	4	Temperatura máxima	14.2
108367	7	Sololá	701	Sololá	4	Finca Santa Victoria	5	Mayo	2023-05-22T00:00:00	2024-11-08T03:00:00	3	Temperatura mínima	13.6
108368	7	Sololá	701	Sololá	4	Finca Santa Victoria	5	Mayo	2023-05-22T00:00:00	2024-11-08T03:00:00	5	Humedad	94
108369	7	Sololá	701	Sololá	4	Finca Santa Victoria	5	Mayo	2023-05-22T00:00:00	2024-11-08T03:00:00	6	Velocidad del viento	1.6
108370	7	Sololá	701	Sololá	4	Finca Santa Victoria	5	Mayo	2023-05-22T00:00:00	2024-11-08T03:00:00	7	Dirección del viento	1.61
108371	7	Sololá	701	Sololá	4	Finca Santa Victoria	5	Mayo	2023-05-22T00:00:00	2024-11-08T03:00:00	1	Precipitación	0
108372	7	Sololá	701	Sololá	4	Finca Santa Victoria	5	Mayo	2023-05-22T00:00:00	2024-11-08T03:00:00	8	Radiación solar	0
108373	7	Sololá	701	Sololá	4	Finca Santa Victoria	5	Mayo	2023-05-22T00:00:00	2024-11-08T04:00:00	2	Temperatura media	13.4
108374	7	Sololá	701	Sololá	4	Finca Santa Victoria	5	Mayo	2023-05-22T00:00:00	2024-11-08T04:00:00	4	Temperatura máxima	13.7
108375	7	Sololá	701	Sololá	4	Finca Santa Victoria	5	Mayo	2023-05-22T00:00:00	2024-11-08T04:00:00	3	Temperatura mínima	13.4
108376	7	Sololá	701	Sololá	4	Finca Santa Victoria	5	Mayo	2023-05-22T00:00:00	2024-11-08T04:00:00	5	Humedad	96
108377	7	Sololá	701	Sololá	4	Finca Santa Victoria	5	Mayo	2023-05-22T00:00:00	2024-11-08T04:00:00	6	Velocidad del viento	1.6
108378	7	Sololá	701	Sololá	4	Finca Santa Victoria	5	Mayo	2023-05-22T00:00:00	2024-11-08T04:00:00	7	Dirección del viento	1.61
108379	7	Sololá	701	Sololá	4	Finca Santa Victoria	5	Mayo	2023-05-22T00:00:00	2024-11-08T04:00:00	1	Precipitación	0.4
108380	7	Sololá	701	Sololá	4	Finca Santa Victoria	5	Mayo	2023-05-22T00:00:00	2024-11-08T04:00:00	8	Radiación solar	0
108381	7	Sololá	701	Sololá	4	Finca Santa Victoria	5	Mayo	2023-05-22T00:00:00	2024-11-08T05:00:00	2	Temperatura media	13.4
108382	7	Sololá	701	Sololá	4	Finca Santa Victoria	5	Mayo	2023-05-22T00:00:00	2024-11-08T05:00:00	4	Temperatura máxima	13.5
108383	7	Sololá	701	Sololá	4	Finca Santa Victoria	5	Mayo	2023-05-22T00:00:00	2024-11-08T05:00:00	3	Temperatura mínima	13.4
108384	7	Sololá	701	Sololá	4	Finca Santa Victoria	5	Mayo	2023-05-22T00:00:00	2024-11-08T05:00:00	5	Humedad	97
108385	7	Sololá	701	Sololá	4	Finca Santa Victoria	5	Mayo	2023-05-22T00:00:00	2024-11-08T05:00:00	6	Velocidad del viento	0
108386	7	Sololá	701	Sololá	4	Finca Santa Victoria	5	Mayo	2023-05-22T00:00:00	2024-11-08T05:00:00	7	Dirección del viento	0
108387	7	Sololá	701	Sololá	4	Finca Santa Victoria	5	Mayo	2023-05-22T00:00:00	2024-11-08T05:00:00	1	Precipitación	0.8
108388	7	Sololá	701	Sololá	4	Finca Santa Victoria	5	Mayo	2023-05-22T00:00:00	2024-11-08T05:00:00	8	Radiación solar	0
108389	7	Sololá	701	Sololá	4	Finca Santa Victoria	5	Mayo	2023-05-22T00:00:00	2024-11-08T06:00:00	2	Temperatura media	13.3
108390	7	Sololá	701	Sololá	4	Finca Santa Victoria	5	Mayo	2023-05-22T00:00:00	2024-11-08T06:00:00	4	Temperatura máxima	13.4
108391	7	Sololá	701	Sololá	4	Finca Santa Victoria	5	Mayo	2023-05-22T00:00:00	2024-11-08T06:00:00	3	Temperatura mínima	13.2
108392	7	Sololá	701	Sololá	4	Finca Santa Victoria	5	Mayo	2023-05-22T00:00:00	2024-11-08T06:00:00	5	Humedad	98
108393	7	Sololá	701	Sololá	4	Finca Santa Victoria	5	Mayo	2023-05-22T00:00:00	2024-11-08T06:00:00	6	Velocidad del viento	1.6
108394	7	Sololá	701	Sololá	4	Finca Santa Victoria	5	Mayo	2023-05-22T00:00:00	2024-11-08T06:00:00	7	Dirección del viento	1.61
108395	7	Sololá	701	Sololá	4	Finca Santa Victoria	5	Mayo	2023-05-22T00:00:00	2024-11-08T06:00:00	1	Precipitación	0.4
108396	7	Sololá	701	Sololá	4	Finca Santa Victoria	5	Mayo	2023-05-22T00:00:00	2024-11-08T06:00:00	8	Radiación solar	1
108397	7	Sololá	701	Sololá	4	Finca Santa Victoria	5	Mayo	2023-05-22T00:00:00	2024-11-08T07:00:00	2	Temperatura media	13.3
108398	7	Sololá	701	Sololá	4	Finca Santa Victoria	5	Mayo	2023-05-22T00:00:00	2024-11-08T07:00:00	4	Temperatura máxima	13.3
108399	7	Sololá	701	Sololá	4	Finca Santa Victoria	5	Mayo	2023-05-22T00:00:00	2024-11-08T07:00:00	3	Temperatura mínima	13.2
108400	7	Sololá	701	Sololá	4	Finca Santa Victoria	5	Mayo	2023-05-22T00:00:00	2024-11-08T07:00:00	5	Humedad	98
108401	7	Sololá	701	Sololá	4	Finca Santa Victoria	5	Mayo	2023-05-22T00:00:00	2024-11-08T07:00:00	6	Velocidad del viento	1.6
108402	7	Sololá	701	Sololá	4	Finca Santa Victoria	5	Mayo	2023-05-22T00:00:00	2024-11-08T07:00:00	7	Dirección del viento	1.61
108403	7	Sololá	701	Sololá	4	Finca Santa Victoria	5	Mayo	2023-05-22T00:00:00	2024-11-08T07:00:00	1	Precipitación	0
108404	7	Sololá	701	Sololá	4	Finca Santa Victoria	5	Mayo	2023-05-22T00:00:00	2024-11-08T07:00:00	8	Radiación solar	37
108405	7	Sololá	701	Sololá	4	Finca Santa Victoria	5	Mayo	2023-05-22T00:00:00	2024-11-08T08:00:00	2	Temperatura media	14.4
108406	7	Sololá	701	Sololá	4	Finca Santa Victoria	5	Mayo	2023-05-22T00:00:00	2024-11-08T08:00:00	4	Temperatura máxima	14.4
108407	7	Sololá	701	Sololá	4	Finca Santa Victoria	5	Mayo	2023-05-22T00:00:00	2024-11-08T08:00:00	3	Temperatura mínima	13.3
108408	7	Sololá	701	Sololá	4	Finca Santa Victoria	5	Mayo	2023-05-22T00:00:00	2024-11-08T08:00:00	5	Humedad	97
108409	7	Sololá	701	Sololá	4	Finca Santa Victoria	5	Mayo	2023-05-22T00:00:00	2024-11-08T08:00:00	6	Velocidad del viento	0
108410	7	Sololá	701	Sololá	4	Finca Santa Victoria	5	Mayo	2023-05-22T00:00:00	2024-11-08T08:00:00	7	Dirección del viento	0
108411	7	Sololá	701	Sololá	4	Finca Santa Victoria	5	Mayo	2023-05-22T00:00:00	2024-11-08T08:00:00	1	Precipitación	0
108412	7	Sololá	701	Sololá	4	Finca Santa Victoria	5	Mayo	2023-05-22T00:00:00	2024-11-08T08:00:00	8	Radiación solar	98
108413	7	Sololá	701	Sololá	4	Finca Santa Victoria	5	Mayo	2023-05-22T00:00:00	2024-11-08T09:00:00	2	Temperatura media	16.5
108414	7	Sololá	701	Sololá	4	Finca Santa Victoria	5	Mayo	2023-05-22T00:00:00	2024-11-08T09:00:00	4	Temperatura máxima	16.5
108415	7	Sololá	701	Sololá	4	Finca Santa Victoria	5	Mayo	2023-05-22T00:00:00	2024-11-08T09:00:00	3	Temperatura mínima	14.4
108416	7	Sololá	701	Sololá	4	Finca Santa Victoria	5	Mayo	2023-05-22T00:00:00	2024-11-08T09:00:00	5	Humedad	89
108417	7	Sololá	701	Sololá	4	Finca Santa Victoria	5	Mayo	2023-05-22T00:00:00	2024-11-08T09:00:00	6	Velocidad del viento	1.6
108418	7	Sololá	701	Sololá	4	Finca Santa Victoria	5	Mayo	2023-05-22T00:00:00	2024-11-08T09:00:00	7	Dirección del viento	1.61
108419	7	Sololá	701	Sololá	4	Finca Santa Victoria	5	Mayo	2023-05-22T00:00:00	2024-11-08T09:00:00	1	Precipitación	0
108420	7	Sololá	701	Sololá	4	Finca Santa Victoria	5	Mayo	2023-05-22T00:00:00	2024-11-08T09:00:00	8	Radiación solar	196
108421	7	Sololá	701	Sololá	4	Finca Santa Victoria	5	Mayo	2023-05-22T00:00:00	2024-11-08T10:00:00	2	Temperatura media	18.8
108422	7	Sololá	701	Sololá	4	Finca Santa Victoria	5	Mayo	2023-05-22T00:00:00	2024-11-08T10:00:00	4	Temperatura máxima	18.9
108423	7	Sololá	701	Sololá	4	Finca Santa Victoria	5	Mayo	2023-05-22T00:00:00	2024-11-08T10:00:00	3	Temperatura mínima	16.4
108424	7	Sololá	701	Sololá	4	Finca Santa Victoria	5	Mayo	2023-05-22T00:00:00	2024-11-08T10:00:00	5	Humedad	81
108425	7	Sololá	701	Sololá	4	Finca Santa Victoria	5	Mayo	2023-05-22T00:00:00	2024-11-08T10:00:00	6	Velocidad del viento	1.6
108426	7	Sololá	701	Sololá	4	Finca Santa Victoria	5	Mayo	2023-05-22T00:00:00	2024-11-08T10:00:00	7	Dirección del viento	1.61
108427	7	Sololá	701	Sololá	4	Finca Santa Victoria	5	Mayo	2023-05-22T00:00:00	2024-11-08T10:00:00	1	Precipitación	0
108428	7	Sololá	701	Sololá	4	Finca Santa Victoria	5	Mayo	2023-05-22T00:00:00	2024-11-08T10:00:00	8	Radiación solar	300
108429	7	Sololá	701	Sololá	4	Finca Santa Victoria	5	Mayo	2023-05-22T00:00:00	2024-11-08T11:00:00	2	Temperatura media	20.7
108430	7	Sololá	701	Sololá	4	Finca Santa Victoria	5	Mayo	2023-05-22T00:00:00	2024-11-08T11:00:00	4	Temperatura máxima	20.8
108431	7	Sololá	701	Sololá	4	Finca Santa Victoria	5	Mayo	2023-05-22T00:00:00	2024-11-08T11:00:00	3	Temperatura mínima	18.7
108432	7	Sololá	701	Sololá	4	Finca Santa Victoria	5	Mayo	2023-05-22T00:00:00	2024-11-08T11:00:00	5	Humedad	72
108433	7	Sololá	701	Sololá	4	Finca Santa Victoria	5	Mayo	2023-05-22T00:00:00	2024-11-08T11:00:00	6	Velocidad del viento	3.2
108434	7	Sololá	701	Sololá	4	Finca Santa Victoria	5	Mayo	2023-05-22T00:00:00	2024-11-08T11:00:00	7	Dirección del viento	3.22
108435	7	Sololá	701	Sololá	4	Finca Santa Victoria	5	Mayo	2023-05-22T00:00:00	2024-11-08T11:00:00	1	Precipitación	0
108436	7	Sololá	701	Sololá	4	Finca Santa Victoria	5	Mayo	2023-05-22T00:00:00	2024-11-08T11:00:00	8	Radiación solar	402
108437	7	Sololá	701	Sololá	4	Finca Santa Victoria	5	Mayo	2023-05-22T00:00:00	2024-11-08T12:00:00	2	Temperatura media	19.1
108438	7	Sololá	701	Sololá	4	Finca Santa Victoria	5	Mayo	2023-05-22T00:00:00	2024-11-08T12:00:00	4	Temperatura máxima	20.7
108439	7	Sololá	701	Sololá	4	Finca Santa Victoria	5	Mayo	2023-05-22T00:00:00	2024-11-08T12:00:00	3	Temperatura mínima	19.1
108440	7	Sololá	701	Sololá	4	Finca Santa Victoria	5	Mayo	2023-05-22T00:00:00	2024-11-08T12:00:00	5	Humedad	75
108441	7	Sololá	701	Sololá	4	Finca Santa Victoria	5	Mayo	2023-05-22T00:00:00	2024-11-08T12:00:00	6	Velocidad del viento	3.2
108442	7	Sololá	701	Sololá	4	Finca Santa Victoria	5	Mayo	2023-05-22T00:00:00	2024-11-08T12:00:00	7	Dirección del viento	3.22
108443	7	Sololá	701	Sololá	4	Finca Santa Victoria	5	Mayo	2023-05-22T00:00:00	2024-11-08T12:00:00	1	Precipitación	0
108444	7	Sololá	701	Sololá	4	Finca Santa Victoria	5	Mayo	2023-05-22T00:00:00	2024-11-08T12:00:00	8	Radiación solar	280
108445	7	Sololá	701	Sololá	4	Finca Santa Victoria	5	Mayo	2023-05-22T00:00:00	2024-11-08T13:00:00	2	Temperatura media	17.7
108446	7	Sololá	701	Sololá	4	Finca Santa Victoria	5	Mayo	2023-05-22T00:00:00	2024-11-08T13:00:00	4	Temperatura máxima	19.1
108447	7	Sololá	701	Sololá	4	Finca Santa Victoria	5	Mayo	2023-05-22T00:00:00	2024-11-08T13:00:00	3	Temperatura mínima	17.7
108448	7	Sololá	701	Sololá	4	Finca Santa Victoria	5	Mayo	2023-05-22T00:00:00	2024-11-08T13:00:00	5	Humedad	90
108449	7	Sololá	701	Sololá	4	Finca Santa Victoria	5	Mayo	2023-05-22T00:00:00	2024-11-08T13:00:00	6	Velocidad del viento	1.6
108450	7	Sololá	701	Sololá	4	Finca Santa Victoria	5	Mayo	2023-05-22T00:00:00	2024-11-08T13:00:00	7	Dirección del viento	1.61
108451	7	Sololá	701	Sololá	4	Finca Santa Victoria	5	Mayo	2023-05-22T00:00:00	2024-11-08T13:00:00	1	Precipitación	0
108452	7	Sololá	701	Sololá	4	Finca Santa Victoria	5	Mayo	2023-05-22T00:00:00	2024-11-08T13:00:00	8	Radiación solar	237
108453	7	Sololá	701	Sololá	4	Finca Santa Victoria	5	Mayo	2023-05-22T00:00:00	2024-11-08T14:00:00	2	Temperatura media	18.6
108454	7	Sololá	701	Sololá	4	Finca Santa Victoria	5	Mayo	2023-05-22T00:00:00	2024-11-08T14:00:00	4	Temperatura máxima	18.7
108455	7	Sololá	701	Sololá	4	Finca Santa Victoria	5	Mayo	2023-05-22T00:00:00	2024-11-08T14:00:00	3	Temperatura mínima	17.7
108456	7	Sololá	701	Sololá	4	Finca Santa Victoria	5	Mayo	2023-05-22T00:00:00	2024-11-08T14:00:00	5	Humedad	86
108457	7	Sololá	701	Sololá	4	Finca Santa Victoria	5	Mayo	2023-05-22T00:00:00	2024-11-08T14:00:00	6	Velocidad del viento	3.2
108458	7	Sololá	701	Sololá	4	Finca Santa Victoria	5	Mayo	2023-05-22T00:00:00	2024-11-08T14:00:00	7	Dirección del viento	3.22
108459	7	Sololá	701	Sololá	4	Finca Santa Victoria	5	Mayo	2023-05-22T00:00:00	2024-11-08T14:00:00	1	Precipitación	0
108460	7	Sololá	701	Sololá	4	Finca Santa Victoria	5	Mayo	2023-05-22T00:00:00	2024-11-08T14:00:00	8	Radiación solar	257
108461	7	Sololá	701	Sololá	4	Finca Santa Victoria	5	Mayo	2023-05-22T00:00:00	2024-11-08T15:00:00	2	Temperatura media	17.4
108462	7	Sololá	701	Sololá	4	Finca Santa Victoria	5	Mayo	2023-05-22T00:00:00	2024-11-08T15:00:00	4	Temperatura máxima	18.7
108463	7	Sololá	701	Sololá	4	Finca Santa Victoria	5	Mayo	2023-05-22T00:00:00	2024-11-08T15:00:00	3	Temperatura mínima	17.3
108464	7	Sololá	701	Sololá	4	Finca Santa Victoria	5	Mayo	2023-05-22T00:00:00	2024-11-08T15:00:00	5	Humedad	91
108465	7	Sololá	701	Sololá	4	Finca Santa Victoria	5	Mayo	2023-05-22T00:00:00	2024-11-08T15:00:00	6	Velocidad del viento	3.2
108466	7	Sololá	701	Sololá	4	Finca Santa Victoria	5	Mayo	2023-05-22T00:00:00	2024-11-08T15:00:00	7	Dirección del viento	3.22
108467	7	Sololá	701	Sololá	4	Finca Santa Victoria	5	Mayo	2023-05-22T00:00:00	2024-11-08T15:00:00	1	Precipitación	0
108468	7	Sololá	701	Sololá	4	Finca Santa Victoria	5	Mayo	2023-05-22T00:00:00	2024-11-08T15:00:00	8	Radiación solar	170
108469	7	Sololá	701	Sololá	4	Finca Santa Victoria	5	Mayo	2023-05-22T00:00:00	2024-11-08T16:00:00	2	Temperatura media	18.6
108470	7	Sololá	701	Sololá	4	Finca Santa Victoria	5	Mayo	2023-05-22T00:00:00	2024-11-08T16:00:00	4	Temperatura máxima	18.8
108471	7	Sololá	701	Sololá	4	Finca Santa Victoria	5	Mayo	2023-05-22T00:00:00	2024-11-08T16:00:00	3	Temperatura mínima	16.7
108472	7	Sololá	701	Sololá	4	Finca Santa Victoria	5	Mayo	2023-05-22T00:00:00	2024-11-08T16:00:00	5	Humedad	86
108473	7	Sololá	701	Sololá	4	Finca Santa Victoria	5	Mayo	2023-05-22T00:00:00	2024-11-08T16:00:00	6	Velocidad del viento	3.2
108474	7	Sololá	701	Sololá	4	Finca Santa Victoria	5	Mayo	2023-05-22T00:00:00	2024-11-08T16:00:00	7	Dirección del viento	3.22
108475	7	Sololá	701	Sololá	4	Finca Santa Victoria	5	Mayo	2023-05-22T00:00:00	2024-11-08T16:00:00	1	Precipitación	0
108476	7	Sololá	701	Sololá	4	Finca Santa Victoria	5	Mayo	2023-05-22T00:00:00	2024-11-08T16:00:00	8	Radiación solar	162
108477	7	Sololá	701	Sololá	4	Finca Santa Victoria	5	Mayo	2023-05-22T00:00:00	2024-11-08T17:00:00	2	Temperatura media	17.7
108478	7	Sololá	701	Sololá	4	Finca Santa Victoria	5	Mayo	2023-05-22T00:00:00	2024-11-08T17:00:00	4	Temperatura máxima	18.6
108479	7	Sololá	701	Sololá	4	Finca Santa Victoria	5	Mayo	2023-05-22T00:00:00	2024-11-08T17:00:00	3	Temperatura mínima	17.7
108480	7	Sololá	701	Sololá	4	Finca Santa Victoria	5	Mayo	2023-05-22T00:00:00	2024-11-08T17:00:00	5	Humedad	90
108481	7	Sololá	701	Sololá	4	Finca Santa Victoria	5	Mayo	2023-05-22T00:00:00	2024-11-08T17:00:00	6	Velocidad del viento	1.6
108482	7	Sololá	701	Sololá	4	Finca Santa Victoria	5	Mayo	2023-05-22T00:00:00	2024-11-08T17:00:00	7	Dirección del viento	1.61
108483	7	Sololá	701	Sololá	4	Finca Santa Victoria	5	Mayo	2023-05-22T00:00:00	2024-11-08T17:00:00	1	Precipitación	0
108484	7	Sololá	701	Sololá	4	Finca Santa Victoria	5	Mayo	2023-05-22T00:00:00	2024-11-08T17:00:00	8	Radiación solar	95
108485	7	Sololá	701	Sololá	4	Finca Santa Victoria	5	Mayo	2023-05-22T00:00:00	2024-11-08T18:00:00	2	Temperatura media	16.9
108486	7	Sololá	701	Sololá	4	Finca Santa Victoria	5	Mayo	2023-05-22T00:00:00	2024-11-08T18:00:00	4	Temperatura máxima	17.7
108487	7	Sololá	701	Sololá	4	Finca Santa Victoria	5	Mayo	2023-05-22T00:00:00	2024-11-08T18:00:00	3	Temperatura mínima	16.9
108488	7	Sololá	701	Sololá	4	Finca Santa Victoria	5	Mayo	2023-05-22T00:00:00	2024-11-08T18:00:00	5	Humedad	87
108489	7	Sololá	701	Sololá	4	Finca Santa Victoria	5	Mayo	2023-05-22T00:00:00	2024-11-08T18:00:00	6	Velocidad del viento	1.6
108490	7	Sololá	701	Sololá	4	Finca Santa Victoria	5	Mayo	2023-05-22T00:00:00	2024-11-08T18:00:00	7	Dirección del viento	1.61
108491	7	Sololá	701	Sololá	4	Finca Santa Victoria	5	Mayo	2023-05-22T00:00:00	2024-11-08T18:00:00	1	Precipitación	0
108492	7	Sololá	701	Sololá	4	Finca Santa Victoria	5	Mayo	2023-05-22T00:00:00	2024-11-08T18:00:00	8	Radiación solar	50
108493	7	Sololá	701	Sololá	4	Finca Santa Victoria	5	Mayo	2023-05-22T00:00:00	2024-11-08T19:00:00	2	Temperatura media	15.9
108494	7	Sololá	701	Sololá	4	Finca Santa Victoria	5	Mayo	2023-05-22T00:00:00	2024-11-08T19:00:00	4	Temperatura máxima	16.9
108495	7	Sololá	701	Sololá	4	Finca Santa Victoria	5	Mayo	2023-05-22T00:00:00	2024-11-08T19:00:00	3	Temperatura mínima	15.9
108496	7	Sololá	701	Sololá	4	Finca Santa Victoria	5	Mayo	2023-05-22T00:00:00	2024-11-08T19:00:00	5	Humedad	90
108497	7	Sololá	701	Sololá	4	Finca Santa Victoria	5	Mayo	2023-05-22T00:00:00	2024-11-08T19:00:00	6	Velocidad del viento	0
108498	7	Sololá	701	Sololá	4	Finca Santa Victoria	5	Mayo	2023-05-22T00:00:00	2024-11-08T19:00:00	7	Dirección del viento	0
108499	7	Sololá	701	Sololá	4	Finca Santa Victoria	5	Mayo	2023-05-22T00:00:00	2024-11-08T19:00:00	1	Precipitación	0
108500	7	Sololá	701	Sololá	4	Finca Santa Victoria	5	Mayo	2023-05-22T00:00:00	2024-11-08T19:00:00	8	Radiación solar	0
108501	7	Sololá	701	Sololá	4	Finca Santa Victoria	5	Mayo	2023-05-22T00:00:00	2024-11-08T20:00:00	2	Temperatura media	15.9
108502	7	Sololá	701	Sololá	4	Finca Santa Victoria	5	Mayo	2023-05-22T00:00:00	2024-11-08T20:00:00	4	Temperatura máxima	15.9
108503	7	Sololá	701	Sololá	4	Finca Santa Victoria	5	Mayo	2023-05-22T00:00:00	2024-11-08T20:00:00	3	Temperatura mínima	15.8
108504	7	Sololá	701	Sololá	4	Finca Santa Victoria	5	Mayo	2023-05-22T00:00:00	2024-11-08T20:00:00	5	Humedad	91
108505	7	Sololá	701	Sololá	4	Finca Santa Victoria	5	Mayo	2023-05-22T00:00:00	2024-11-08T20:00:00	6	Velocidad del viento	0
108506	7	Sololá	701	Sololá	4	Finca Santa Victoria	5	Mayo	2023-05-22T00:00:00	2024-11-08T20:00:00	7	Dirección del viento	0
108507	7	Sololá	701	Sololá	4	Finca Santa Victoria	5	Mayo	2023-05-22T00:00:00	2024-11-08T20:00:00	1	Precipitación	0
108508	7	Sololá	701	Sololá	4	Finca Santa Victoria	5	Mayo	2023-05-22T00:00:00	2024-11-08T20:00:00	8	Radiación solar	0
108509	7	Sololá	701	Sololá	4	Finca Santa Victoria	5	Mayo	2023-05-22T00:00:00	2024-11-08T21:00:00	2	Temperatura media	15.6
108510	7	Sololá	701	Sololá	4	Finca Santa Victoria	5	Mayo	2023-05-22T00:00:00	2024-11-08T21:00:00	4	Temperatura máxima	15.9
108511	7	Sololá	701	Sololá	4	Finca Santa Victoria	5	Mayo	2023-05-22T00:00:00	2024-11-08T21:00:00	3	Temperatura mínima	15.6
108512	7	Sololá	701	Sololá	4	Finca Santa Victoria	5	Mayo	2023-05-22T00:00:00	2024-11-08T21:00:00	5	Humedad	88
108513	7	Sololá	701	Sololá	4	Finca Santa Victoria	5	Mayo	2023-05-22T00:00:00	2024-11-08T21:00:00	6	Velocidad del viento	1.6
108514	7	Sololá	701	Sololá	4	Finca Santa Victoria	5	Mayo	2023-05-22T00:00:00	2024-11-08T21:00:00	7	Dirección del viento	1.61
108515	7	Sololá	701	Sololá	4	Finca Santa Victoria	5	Mayo	2023-05-22T00:00:00	2024-11-08T21:00:00	1	Precipitación	0
108516	7	Sololá	701	Sololá	4	Finca Santa Victoria	5	Mayo	2023-05-22T00:00:00	2024-11-08T21:00:00	8	Radiación solar	0
108517	7	Sololá	701	Sololá	4	Finca Santa Victoria	5	Mayo	2023-05-22T00:00:00	2024-11-08T22:00:00	2	Temperatura media	15.2
108518	7	Sololá	701	Sololá	4	Finca Santa Victoria	5	Mayo	2023-05-22T00:00:00	2024-11-08T22:00:00	4	Temperatura máxima	15.6
108519	7	Sololá	701	Sololá	4	Finca Santa Victoria	5	Mayo	2023-05-22T00:00:00	2024-11-08T22:00:00	3	Temperatura mínima	15.1
108520	7	Sololá	701	Sololá	4	Finca Santa Victoria	5	Mayo	2023-05-22T00:00:00	2024-11-08T22:00:00	5	Humedad	87
108521	7	Sololá	701	Sololá	4	Finca Santa Victoria	5	Mayo	2023-05-22T00:00:00	2024-11-08T22:00:00	6	Velocidad del viento	1.6
108522	7	Sololá	701	Sololá	4	Finca Santa Victoria	5	Mayo	2023-05-22T00:00:00	2024-11-08T22:00:00	7	Dirección del viento	1.61
108523	7	Sololá	701	Sololá	4	Finca Santa Victoria	5	Mayo	2023-05-22T00:00:00	2024-11-08T22:00:00	1	Precipitación	0
108524	7	Sololá	701	Sololá	4	Finca Santa Victoria	5	Mayo	2023-05-22T00:00:00	2024-11-08T22:00:00	8	Radiación solar	0
108525	7	Sololá	701	Sololá	4	Finca Santa Victoria	5	Mayo	2023-05-22T00:00:00	2024-11-08T23:00:00	2	Temperatura media	15.4
108526	7	Sololá	701	Sololá	4	Finca Santa Victoria	5	Mayo	2023-05-22T00:00:00	2024-11-08T23:00:00	4	Temperatura máxima	15.4
108527	7	Sololá	701	Sololá	4	Finca Santa Victoria	5	Mayo	2023-05-22T00:00:00	2024-11-08T23:00:00	3	Temperatura mínima	14.8
108528	7	Sololá	701	Sololá	4	Finca Santa Victoria	5	Mayo	2023-05-22T00:00:00	2024-11-08T23:00:00	5	Humedad	84
108529	7	Sololá	701	Sololá	4	Finca Santa Victoria	5	Mayo	2023-05-22T00:00:00	2024-11-08T23:00:00	6	Velocidad del viento	3.2
108530	7	Sololá	701	Sololá	4	Finca Santa Victoria	5	Mayo	2023-05-22T00:00:00	2024-11-08T23:00:00	7	Dirección del viento	3.22
108531	7	Sololá	701	Sololá	4	Finca Santa Victoria	5	Mayo	2023-05-22T00:00:00	2024-11-08T23:00:00	1	Precipitación	0
108532	7	Sololá	701	Sololá	4	Finca Santa Victoria	5	Mayo	2023-05-22T00:00:00	2024-11-08T23:00:00	8	Radiación solar	0
108533	7	Sololá	701	Sololá	4	Finca Santa Victoria	5	Mayo	2023-05-23T00:00:00	2024-11-08T00:00:00	2	Temperatura media	15.1
108534	7	Sololá	701	Sololá	4	Finca Santa Victoria	5	Mayo	2023-05-23T00:00:00	2024-11-08T00:00:00	4	Temperatura máxima	15.5
108535	7	Sololá	701	Sololá	4	Finca Santa Victoria	5	Mayo	2023-05-23T00:00:00	2024-11-08T00:00:00	3	Temperatura mínima	15.1
108536	7	Sololá	701	Sololá	4	Finca Santa Victoria	5	Mayo	2023-05-23T00:00:00	2024-11-08T00:00:00	5	Humedad	86
108537	7	Sololá	701	Sololá	4	Finca Santa Victoria	5	Mayo	2023-05-23T00:00:00	2024-11-08T00:00:00	6	Velocidad del viento	1.6
108538	7	Sololá	701	Sololá	4	Finca Santa Victoria	5	Mayo	2023-05-23T00:00:00	2024-11-08T00:00:00	7	Dirección del viento	1.61
108539	7	Sololá	701	Sololá	4	Finca Santa Victoria	5	Mayo	2023-05-23T00:00:00	2024-11-08T00:00:00	1	Precipitación	0
108540	7	Sololá	701	Sololá	4	Finca Santa Victoria	5	Mayo	2023-05-23T00:00:00	2024-11-08T00:00:00	8	Radiación solar	0
108541	7	Sololá	701	Sololá	4	Finca Santa Victoria	5	Mayo	2023-05-23T00:00:00	2024-11-08T01:00:00	2	Temperatura media	14.3
108542	7	Sololá	701	Sololá	4	Finca Santa Victoria	5	Mayo	2023-05-23T00:00:00	2024-11-08T01:00:00	4	Temperatura máxima	15.1
108543	7	Sololá	701	Sololá	4	Finca Santa Victoria	5	Mayo	2023-05-23T00:00:00	2024-11-08T01:00:00	3	Temperatura mínima	14.3
108544	7	Sololá	701	Sololá	4	Finca Santa Victoria	5	Mayo	2023-05-23T00:00:00	2024-11-08T01:00:00	5	Humedad	91
108545	7	Sololá	701	Sololá	4	Finca Santa Victoria	5	Mayo	2023-05-23T00:00:00	2024-11-08T01:00:00	6	Velocidad del viento	1.6
108546	7	Sololá	701	Sololá	4	Finca Santa Victoria	5	Mayo	2023-05-23T00:00:00	2024-11-08T01:00:00	7	Dirección del viento	1.61
108547	7	Sololá	701	Sololá	4	Finca Santa Victoria	5	Mayo	2023-05-23T00:00:00	2024-11-08T01:00:00	1	Precipitación	0
108548	7	Sololá	701	Sololá	4	Finca Santa Victoria	5	Mayo	2023-05-23T00:00:00	2024-11-08T01:00:00	8	Radiación solar	0
108549	7	Sololá	701	Sololá	4	Finca Santa Victoria	5	Mayo	2023-05-23T00:00:00	2024-11-08T02:00:00	2	Temperatura media	13.7
108550	7	Sololá	701	Sololá	4	Finca Santa Victoria	5	Mayo	2023-05-23T00:00:00	2024-11-08T02:00:00	4	Temperatura máxima	14.3
108551	7	Sololá	701	Sololá	4	Finca Santa Victoria	5	Mayo	2023-05-23T00:00:00	2024-11-08T02:00:00	3	Temperatura mínima	13.7
108552	7	Sololá	701	Sololá	4	Finca Santa Victoria	5	Mayo	2023-05-23T00:00:00	2024-11-08T02:00:00	5	Humedad	91
108553	7	Sololá	701	Sololá	4	Finca Santa Victoria	5	Mayo	2023-05-23T00:00:00	2024-11-08T02:00:00	6	Velocidad del viento	0
108554	7	Sololá	701	Sololá	4	Finca Santa Victoria	5	Mayo	2023-05-23T00:00:00	2024-11-08T02:00:00	7	Dirección del viento	0
108555	7	Sololá	701	Sololá	4	Finca Santa Victoria	5	Mayo	2023-05-23T00:00:00	2024-11-08T02:00:00	1	Precipitación	0
108556	7	Sololá	701	Sololá	4	Finca Santa Victoria	5	Mayo	2023-05-23T00:00:00	2024-11-08T02:00:00	8	Radiación solar	0
108557	7	Sololá	701	Sololá	4	Finca Santa Victoria	5	Mayo	2023-05-23T00:00:00	2024-11-08T03:00:00	2	Temperatura media	13.2
108558	7	Sololá	701	Sololá	4	Finca Santa Victoria	5	Mayo	2023-05-23T00:00:00	2024-11-08T03:00:00	4	Temperatura máxima	13.7
108559	7	Sololá	701	Sololá	4	Finca Santa Victoria	5	Mayo	2023-05-23T00:00:00	2024-11-08T03:00:00	3	Temperatura mínima	13.1
108560	7	Sololá	701	Sololá	4	Finca Santa Victoria	5	Mayo	2023-05-23T00:00:00	2024-11-08T03:00:00	5	Humedad	91
108561	7	Sololá	701	Sololá	4	Finca Santa Victoria	5	Mayo	2023-05-23T00:00:00	2024-11-08T03:00:00	6	Velocidad del viento	0
108562	7	Sololá	701	Sololá	4	Finca Santa Victoria	5	Mayo	2023-05-23T00:00:00	2024-11-08T03:00:00	7	Dirección del viento	0
108563	7	Sololá	701	Sololá	4	Finca Santa Victoria	5	Mayo	2023-05-23T00:00:00	2024-11-08T03:00:00	1	Precipitación	0
108564	7	Sololá	701	Sololá	4	Finca Santa Victoria	5	Mayo	2023-05-23T00:00:00	2024-11-08T03:00:00	8	Radiación solar	0
108565	7	Sololá	701	Sololá	4	Finca Santa Victoria	5	Mayo	2023-05-23T00:00:00	2024-11-08T04:00:00	2	Temperatura media	13
108566	7	Sololá	701	Sololá	4	Finca Santa Victoria	5	Mayo	2023-05-23T00:00:00	2024-11-08T04:00:00	4	Temperatura máxima	13.3
108567	7	Sololá	701	Sololá	4	Finca Santa Victoria	5	Mayo	2023-05-23T00:00:00	2024-11-08T04:00:00	3	Temperatura mínima	13
108568	7	Sololá	701	Sololá	4	Finca Santa Victoria	5	Mayo	2023-05-23T00:00:00	2024-11-08T04:00:00	5	Humedad	92
108569	7	Sololá	701	Sololá	4	Finca Santa Victoria	5	Mayo	2023-05-23T00:00:00	2024-11-08T04:00:00	6	Velocidad del viento	0
108570	7	Sololá	701	Sololá	4	Finca Santa Victoria	5	Mayo	2023-05-23T00:00:00	2024-11-08T04:00:00	7	Dirección del viento	0
108571	7	Sololá	701	Sololá	4	Finca Santa Victoria	5	Mayo	2023-05-23T00:00:00	2024-11-08T04:00:00	1	Precipitación	0
108572	7	Sololá	701	Sololá	4	Finca Santa Victoria	5	Mayo	2023-05-23T00:00:00	2024-11-08T04:00:00	8	Radiación solar	0
108573	7	Sololá	701	Sololá	4	Finca Santa Victoria	5	Mayo	2023-05-23T00:00:00	2024-11-08T05:00:00	2	Temperatura media	12.4
108574	7	Sololá	701	Sololá	4	Finca Santa Victoria	5	Mayo	2023-05-23T00:00:00	2024-11-08T05:00:00	4	Temperatura máxima	13
108575	7	Sololá	701	Sololá	4	Finca Santa Victoria	5	Mayo	2023-05-23T00:00:00	2024-11-08T05:00:00	3	Temperatura mínima	12.4
108576	7	Sololá	701	Sololá	4	Finca Santa Victoria	5	Mayo	2023-05-23T00:00:00	2024-11-08T05:00:00	5	Humedad	95
108577	7	Sololá	701	Sololá	4	Finca Santa Victoria	5	Mayo	2023-05-23T00:00:00	2024-11-08T05:00:00	6	Velocidad del viento	0
108578	7	Sololá	701	Sololá	4	Finca Santa Victoria	5	Mayo	2023-05-23T00:00:00	2024-11-08T05:00:00	7	Dirección del viento	0
108579	7	Sololá	701	Sololá	4	Finca Santa Victoria	5	Mayo	2023-05-23T00:00:00	2024-11-08T05:00:00	1	Precipitación	0
108580	7	Sololá	701	Sololá	4	Finca Santa Victoria	5	Mayo	2023-05-23T00:00:00	2024-11-08T05:00:00	8	Radiación solar	0
108581	7	Sololá	701	Sololá	4	Finca Santa Victoria	5	Mayo	2023-05-23T00:00:00	2024-11-08T06:00:00	2	Temperatura media	12.3
108582	7	Sololá	701	Sololá	4	Finca Santa Victoria	5	Mayo	2023-05-23T00:00:00	2024-11-08T06:00:00	4	Temperatura máxima	12.5
108583	7	Sololá	701	Sololá	4	Finca Santa Victoria	5	Mayo	2023-05-23T00:00:00	2024-11-08T06:00:00	3	Temperatura mínima	12.3
108584	7	Sololá	701	Sololá	4	Finca Santa Victoria	5	Mayo	2023-05-23T00:00:00	2024-11-08T06:00:00	5	Humedad	96
108585	7	Sololá	701	Sololá	4	Finca Santa Victoria	5	Mayo	2023-05-23T00:00:00	2024-11-08T06:00:00	6	Velocidad del viento	1.6
108586	7	Sololá	701	Sololá	4	Finca Santa Victoria	5	Mayo	2023-05-23T00:00:00	2024-11-08T06:00:00	7	Dirección del viento	1.61
108587	7	Sololá	701	Sololá	4	Finca Santa Victoria	5	Mayo	2023-05-23T00:00:00	2024-11-08T06:00:00	1	Precipitación	0
108588	7	Sololá	701	Sololá	4	Finca Santa Victoria	5	Mayo	2023-05-23T00:00:00	2024-11-08T06:00:00	8	Radiación solar	5
108589	7	Sololá	701	Sololá	4	Finca Santa Victoria	5	Mayo	2023-05-23T00:00:00	2024-11-08T07:00:00	2	Temperatura media	13.4
108590	7	Sololá	701	Sololá	4	Finca Santa Victoria	5	Mayo	2023-05-23T00:00:00	2024-11-08T07:00:00	4	Temperatura máxima	13.4
108591	7	Sololá	701	Sololá	4	Finca Santa Victoria	5	Mayo	2023-05-23T00:00:00	2024-11-08T07:00:00	3	Temperatura mínima	12.3
108592	7	Sololá	701	Sololá	4	Finca Santa Victoria	5	Mayo	2023-05-23T00:00:00	2024-11-08T07:00:00	5	Humedad	92
108593	7	Sololá	701	Sololá	4	Finca Santa Victoria	5	Mayo	2023-05-23T00:00:00	2024-11-08T07:00:00	6	Velocidad del viento	0
108594	7	Sololá	701	Sololá	4	Finca Santa Victoria	5	Mayo	2023-05-23T00:00:00	2024-11-08T07:00:00	7	Dirección del viento	0
108595	7	Sololá	701	Sololá	4	Finca Santa Victoria	5	Mayo	2023-05-23T00:00:00	2024-11-08T07:00:00	1	Precipitación	0
108596	7	Sololá	701	Sololá	4	Finca Santa Victoria	5	Mayo	2023-05-23T00:00:00	2024-11-08T07:00:00	8	Radiación solar	55
108597	7	Sololá	701	Sololá	4	Finca Santa Victoria	5	Mayo	2023-05-23T00:00:00	2024-11-08T08:00:00	2	Temperatura media	17.8
108598	7	Sololá	701	Sololá	4	Finca Santa Victoria	5	Mayo	2023-05-23T00:00:00	2024-11-08T08:00:00	4	Temperatura máxima	17.8
108599	7	Sololá	701	Sololá	4	Finca Santa Victoria	5	Mayo	2023-05-23T00:00:00	2024-11-08T08:00:00	3	Temperatura mínima	13.4
108600	7	Sololá	701	Sololá	4	Finca Santa Victoria	5	Mayo	2023-05-23T00:00:00	2024-11-08T08:00:00	5	Humedad	71
108601	7	Sololá	701	Sololá	4	Finca Santa Victoria	5	Mayo	2023-05-23T00:00:00	2024-11-08T08:00:00	6	Velocidad del viento	1.6
108602	7	Sololá	701	Sololá	4	Finca Santa Victoria	5	Mayo	2023-05-23T00:00:00	2024-11-08T08:00:00	7	Dirección del viento	1.61
108603	7	Sololá	701	Sololá	4	Finca Santa Victoria	5	Mayo	2023-05-23T00:00:00	2024-11-08T08:00:00	1	Precipitación	0
108604	7	Sololá	701	Sololá	4	Finca Santa Victoria	5	Mayo	2023-05-23T00:00:00	2024-11-08T08:00:00	8	Radiación solar	271
108605	7	Sololá	701	Sololá	4	Finca Santa Victoria	5	Mayo	2023-05-23T00:00:00	2024-11-08T09:00:00	2	Temperatura media	19.3
108606	7	Sololá	701	Sololá	4	Finca Santa Victoria	5	Mayo	2023-05-23T00:00:00	2024-11-08T09:00:00	4	Temperatura máxima	19.3
108607	7	Sololá	701	Sololá	4	Finca Santa Victoria	5	Mayo	2023-05-23T00:00:00	2024-11-08T09:00:00	3	Temperatura mínima	17.8
108608	7	Sololá	701	Sololá	4	Finca Santa Victoria	5	Mayo	2023-05-23T00:00:00	2024-11-08T09:00:00	5	Humedad	69
108609	7	Sololá	701	Sololá	4	Finca Santa Victoria	5	Mayo	2023-05-23T00:00:00	2024-11-08T09:00:00	6	Velocidad del viento	1.6
108610	7	Sololá	701	Sololá	4	Finca Santa Victoria	5	Mayo	2023-05-23T00:00:00	2024-11-08T09:00:00	7	Dirección del viento	1.61
108611	7	Sololá	701	Sololá	4	Finca Santa Victoria	5	Mayo	2023-05-23T00:00:00	2024-11-08T09:00:00	1	Precipitación	0
108612	7	Sololá	701	Sololá	4	Finca Santa Victoria	5	Mayo	2023-05-23T00:00:00	2024-11-08T09:00:00	8	Radiación solar	385
108613	7	Sololá	701	Sololá	4	Finca Santa Victoria	5	Mayo	2023-05-23T00:00:00	2024-11-08T10:00:00	2	Temperatura media	19.3
108614	7	Sololá	701	Sololá	4	Finca Santa Victoria	5	Mayo	2023-05-23T00:00:00	2024-11-08T10:00:00	4	Temperatura máxima	20.1
108615	7	Sololá	701	Sololá	4	Finca Santa Victoria	5	Mayo	2023-05-23T00:00:00	2024-11-08T10:00:00	3	Temperatura mínima	19.2
108616	7	Sololá	701	Sololá	4	Finca Santa Victoria	5	Mayo	2023-05-23T00:00:00	2024-11-08T10:00:00	5	Humedad	71
108617	7	Sololá	701	Sololá	4	Finca Santa Victoria	5	Mayo	2023-05-23T00:00:00	2024-11-08T10:00:00	6	Velocidad del viento	3.2
108618	7	Sololá	701	Sololá	4	Finca Santa Victoria	5	Mayo	2023-05-23T00:00:00	2024-11-08T10:00:00	7	Dirección del viento	3.22
108619	7	Sololá	701	Sololá	4	Finca Santa Victoria	5	Mayo	2023-05-23T00:00:00	2024-11-08T10:00:00	1	Precipitación	0
108620	7	Sololá	701	Sololá	4	Finca Santa Victoria	5	Mayo	2023-05-23T00:00:00	2024-11-08T10:00:00	8	Radiación solar	265
108621	7	Sololá	701	Sololá	4	Finca Santa Victoria	5	Mayo	2023-05-23T00:00:00	2024-11-08T11:00:00	2	Temperatura media	19.3
108622	7	Sololá	701	Sololá	4	Finca Santa Victoria	5	Mayo	2023-05-23T00:00:00	2024-11-08T11:00:00	4	Temperatura máxima	19.8
108623	7	Sololá	701	Sololá	4	Finca Santa Victoria	5	Mayo	2023-05-23T00:00:00	2024-11-08T11:00:00	3	Temperatura mínima	18.8
108624	7	Sololá	701	Sololá	4	Finca Santa Victoria	5	Mayo	2023-05-23T00:00:00	2024-11-08T11:00:00	5	Humedad	78
108625	7	Sololá	701	Sololá	4	Finca Santa Victoria	5	Mayo	2023-05-23T00:00:00	2024-11-08T11:00:00	6	Velocidad del viento	3.2
108626	7	Sololá	701	Sololá	4	Finca Santa Victoria	5	Mayo	2023-05-23T00:00:00	2024-11-08T11:00:00	7	Dirección del viento	3.22
108627	7	Sololá	701	Sololá	4	Finca Santa Victoria	5	Mayo	2023-05-23T00:00:00	2024-11-08T11:00:00	1	Precipitación	0
108628	7	Sololá	701	Sololá	4	Finca Santa Victoria	5	Mayo	2023-05-23T00:00:00	2024-11-08T11:00:00	8	Radiación solar	250
108629	7	Sololá	701	Sololá	4	Finca Santa Victoria	5	Mayo	2023-05-23T00:00:00	2024-11-08T12:00:00	2	Temperatura media	18.7
108630	7	Sololá	701	Sololá	4	Finca Santa Victoria	5	Mayo	2023-05-23T00:00:00	2024-11-08T12:00:00	4	Temperatura máxima	19.8
108631	7	Sololá	701	Sololá	4	Finca Santa Victoria	5	Mayo	2023-05-23T00:00:00	2024-11-08T12:00:00	3	Temperatura mínima	18.7
108632	7	Sololá	701	Sololá	4	Finca Santa Victoria	5	Mayo	2023-05-23T00:00:00	2024-11-08T12:00:00	5	Humedad	82
108633	7	Sololá	701	Sololá	4	Finca Santa Victoria	5	Mayo	2023-05-23T00:00:00	2024-11-08T12:00:00	6	Velocidad del viento	4.8
108634	7	Sololá	701	Sololá	4	Finca Santa Victoria	5	Mayo	2023-05-23T00:00:00	2024-11-08T12:00:00	7	Dirección del viento	4.83
108635	7	Sololá	701	Sololá	4	Finca Santa Victoria	5	Mayo	2023-05-23T00:00:00	2024-11-08T12:00:00	1	Precipitación	0
108636	7	Sololá	701	Sololá	4	Finca Santa Victoria	5	Mayo	2023-05-23T00:00:00	2024-11-08T12:00:00	8	Radiación solar	684
108637	7	Sololá	701	Sololá	4	Finca Santa Victoria	5	Mayo	2023-05-23T00:00:00	2024-11-08T13:00:00	2	Temperatura media	18.8
108638	7	Sololá	701	Sololá	4	Finca Santa Victoria	5	Mayo	2023-05-23T00:00:00	2024-11-08T13:00:00	4	Temperatura máxima	19.1
108639	7	Sololá	701	Sololá	4	Finca Santa Victoria	5	Mayo	2023-05-23T00:00:00	2024-11-08T13:00:00	3	Temperatura mínima	17.9
108640	7	Sololá	701	Sololá	4	Finca Santa Victoria	5	Mayo	2023-05-23T00:00:00	2024-11-08T13:00:00	5	Humedad	85
108641	7	Sololá	701	Sololá	4	Finca Santa Victoria	5	Mayo	2023-05-23T00:00:00	2024-11-08T13:00:00	6	Velocidad del viento	3.2
108642	7	Sololá	701	Sololá	4	Finca Santa Victoria	5	Mayo	2023-05-23T00:00:00	2024-11-08T13:00:00	7	Dirección del viento	3.22
108643	7	Sololá	701	Sololá	4	Finca Santa Victoria	5	Mayo	2023-05-23T00:00:00	2024-11-08T13:00:00	1	Precipitación	0
108644	7	Sololá	701	Sololá	4	Finca Santa Victoria	5	Mayo	2023-05-23T00:00:00	2024-11-08T13:00:00	8	Radiación solar	300
108645	7	Sololá	701	Sololá	4	Finca Santa Victoria	5	Mayo	2023-05-23T00:00:00	2024-11-08T14:00:00	2	Temperatura media	18.1
108646	7	Sololá	701	Sololá	4	Finca Santa Victoria	5	Mayo	2023-05-23T00:00:00	2024-11-08T14:00:00	4	Temperatura máxima	19.2
108647	7	Sololá	701	Sololá	4	Finca Santa Victoria	5	Mayo	2023-05-23T00:00:00	2024-11-08T14:00:00	3	Temperatura mínima	18.1
108648	7	Sololá	701	Sololá	4	Finca Santa Victoria	5	Mayo	2023-05-23T00:00:00	2024-11-08T14:00:00	5	Humedad	84
108649	7	Sololá	701	Sololá	4	Finca Santa Victoria	5	Mayo	2023-05-23T00:00:00	2024-11-08T14:00:00	6	Velocidad del viento	4.8
108650	7	Sololá	701	Sololá	4	Finca Santa Victoria	5	Mayo	2023-05-23T00:00:00	2024-11-08T14:00:00	7	Dirección del viento	4.83
108651	7	Sololá	701	Sololá	4	Finca Santa Victoria	5	Mayo	2023-05-23T00:00:00	2024-11-08T14:00:00	1	Precipitación	0
108652	7	Sololá	701	Sololá	4	Finca Santa Victoria	5	Mayo	2023-05-23T00:00:00	2024-11-08T14:00:00	8	Radiación solar	358
108653	7	Sololá	701	Sololá	4	Finca Santa Victoria	5	Mayo	2023-05-23T00:00:00	2024-11-08T15:00:00	2	Temperatura media	18
108654	7	Sololá	701	Sololá	4	Finca Santa Victoria	5	Mayo	2023-05-23T00:00:00	2024-11-08T15:00:00	4	Temperatura máxima	18.2
108655	7	Sololá	701	Sololá	4	Finca Santa Victoria	5	Mayo	2023-05-23T00:00:00	2024-11-08T15:00:00	3	Temperatura mínima	17.6
108656	7	Sololá	701	Sololá	4	Finca Santa Victoria	5	Mayo	2023-05-23T00:00:00	2024-11-08T15:00:00	5	Humedad	88
108657	7	Sololá	701	Sololá	4	Finca Santa Victoria	5	Mayo	2023-05-23T00:00:00	2024-11-08T15:00:00	6	Velocidad del viento	3.2
108658	7	Sololá	701	Sololá	4	Finca Santa Victoria	5	Mayo	2023-05-23T00:00:00	2024-11-08T15:00:00	7	Dirección del viento	3.22
108659	7	Sololá	701	Sololá	4	Finca Santa Victoria	5	Mayo	2023-05-23T00:00:00	2024-11-08T15:00:00	1	Precipitación	0
108660	7	Sololá	701	Sololá	4	Finca Santa Victoria	5	Mayo	2023-05-23T00:00:00	2024-11-08T15:00:00	8	Radiación solar	209
108661	7	Sololá	701	Sololá	4	Finca Santa Victoria	5	Mayo	2023-05-23T00:00:00	2024-11-08T16:00:00	2	Temperatura media	16.7
108662	7	Sololá	701	Sololá	4	Finca Santa Victoria	5	Mayo	2023-05-23T00:00:00	2024-11-08T16:00:00	4	Temperatura máxima	18
108663	7	Sololá	701	Sololá	4	Finca Santa Victoria	5	Mayo	2023-05-23T00:00:00	2024-11-08T16:00:00	3	Temperatura mínima	16.7
108664	7	Sololá	701	Sololá	4	Finca Santa Victoria	5	Mayo	2023-05-23T00:00:00	2024-11-08T16:00:00	5	Humedad	92
108665	7	Sololá	701	Sololá	4	Finca Santa Victoria	5	Mayo	2023-05-23T00:00:00	2024-11-08T16:00:00	6	Velocidad del viento	3.2
108666	7	Sololá	701	Sololá	4	Finca Santa Victoria	5	Mayo	2023-05-23T00:00:00	2024-11-08T16:00:00	7	Dirección del viento	3.22
108667	7	Sololá	701	Sololá	4	Finca Santa Victoria	5	Mayo	2023-05-23T00:00:00	2024-11-08T16:00:00	1	Precipitación	0
108668	7	Sololá	701	Sololá	4	Finca Santa Victoria	5	Mayo	2023-05-23T00:00:00	2024-11-08T16:00:00	8	Radiación solar	115
108669	7	Sololá	701	Sololá	4	Finca Santa Victoria	5	Mayo	2023-05-23T00:00:00	2024-11-08T17:00:00	2	Temperatura media	16.9
108670	7	Sololá	701	Sololá	4	Finca Santa Victoria	5	Mayo	2023-05-23T00:00:00	2024-11-08T17:00:00	4	Temperatura máxima	17.1
108671	7	Sololá	701	Sololá	4	Finca Santa Victoria	5	Mayo	2023-05-23T00:00:00	2024-11-08T17:00:00	3	Temperatura mínima	16.7
108672	7	Sololá	701	Sololá	4	Finca Santa Victoria	5	Mayo	2023-05-23T00:00:00	2024-11-08T17:00:00	5	Humedad	93
108673	7	Sololá	701	Sololá	4	Finca Santa Victoria	5	Mayo	2023-05-23T00:00:00	2024-11-08T17:00:00	6	Velocidad del viento	1.6
108674	7	Sololá	701	Sololá	4	Finca Santa Victoria	5	Mayo	2023-05-23T00:00:00	2024-11-08T17:00:00	7	Dirección del viento	1.61
108675	7	Sololá	701	Sololá	4	Finca Santa Victoria	5	Mayo	2023-05-23T00:00:00	2024-11-08T17:00:00	1	Precipitación	0
108676	7	Sololá	701	Sololá	4	Finca Santa Victoria	5	Mayo	2023-05-23T00:00:00	2024-11-08T17:00:00	8	Radiación solar	73
108677	7	Sololá	701	Sololá	4	Finca Santa Victoria	5	Mayo	2023-05-23T00:00:00	2024-11-08T18:00:00	2	Temperatura media	16.3
108678	7	Sololá	701	Sololá	4	Finca Santa Victoria	5	Mayo	2023-05-23T00:00:00	2024-11-08T18:00:00	4	Temperatura máxima	16.9
108679	7	Sololá	701	Sololá	4	Finca Santa Victoria	5	Mayo	2023-05-23T00:00:00	2024-11-08T18:00:00	3	Temperatura mínima	16.3
108680	7	Sololá	701	Sololá	4	Finca Santa Victoria	5	Mayo	2023-05-23T00:00:00	2024-11-08T18:00:00	5	Humedad	96
108681	7	Sololá	701	Sololá	4	Finca Santa Victoria	5	Mayo	2023-05-23T00:00:00	2024-11-08T18:00:00	6	Velocidad del viento	1.6
108682	7	Sololá	701	Sololá	4	Finca Santa Victoria	5	Mayo	2023-05-23T00:00:00	2024-11-08T18:00:00	7	Dirección del viento	1.61
108683	7	Sololá	701	Sololá	4	Finca Santa Victoria	5	Mayo	2023-05-23T00:00:00	2024-11-08T18:00:00	1	Precipitación	0
108684	7	Sololá	701	Sololá	4	Finca Santa Victoria	5	Mayo	2023-05-23T00:00:00	2024-11-08T18:00:00	8	Radiación solar	11
108685	7	Sololá	701	Sololá	4	Finca Santa Victoria	5	Mayo	2023-05-23T00:00:00	2024-11-08T19:00:00	2	Temperatura media	15.9
108686	7	Sololá	701	Sololá	4	Finca Santa Victoria	5	Mayo	2023-05-23T00:00:00	2024-11-08T19:00:00	4	Temperatura máxima	16.3
108687	7	Sololá	701	Sololá	4	Finca Santa Victoria	5	Mayo	2023-05-23T00:00:00	2024-11-08T19:00:00	3	Temperatura mínima	15.8
108688	7	Sololá	701	Sololá	4	Finca Santa Victoria	5	Mayo	2023-05-23T00:00:00	2024-11-08T19:00:00	5	Humedad	97
108689	7	Sololá	701	Sololá	4	Finca Santa Victoria	5	Mayo	2023-05-23T00:00:00	2024-11-08T19:00:00	6	Velocidad del viento	0
108690	7	Sololá	701	Sololá	4	Finca Santa Victoria	5	Mayo	2023-05-23T00:00:00	2024-11-08T19:00:00	7	Dirección del viento	0
108691	7	Sololá	701	Sololá	4	Finca Santa Victoria	5	Mayo	2023-05-23T00:00:00	2024-11-08T19:00:00	1	Precipitación	0
108692	7	Sololá	701	Sololá	4	Finca Santa Victoria	5	Mayo	2023-05-23T00:00:00	2024-11-08T19:00:00	8	Radiación solar	0
108693	7	Sololá	701	Sololá	4	Finca Santa Victoria	5	Mayo	2023-05-23T00:00:00	2024-11-08T20:00:00	2	Temperatura media	15.6
108694	7	Sololá	701	Sololá	4	Finca Santa Victoria	5	Mayo	2023-05-23T00:00:00	2024-11-08T20:00:00	4	Temperatura máxima	15.9
108695	7	Sololá	701	Sololá	4	Finca Santa Victoria	5	Mayo	2023-05-23T00:00:00	2024-11-08T20:00:00	3	Temperatura mínima	15.5
108696	7	Sololá	701	Sololá	4	Finca Santa Victoria	5	Mayo	2023-05-23T00:00:00	2024-11-08T20:00:00	5	Humedad	96
108697	7	Sololá	701	Sololá	4	Finca Santa Victoria	5	Mayo	2023-05-23T00:00:00	2024-11-08T20:00:00	6	Velocidad del viento	0
108698	7	Sololá	701	Sololá	4	Finca Santa Victoria	5	Mayo	2023-05-23T00:00:00	2024-11-08T20:00:00	7	Dirección del viento	0
108699	7	Sololá	701	Sololá	4	Finca Santa Victoria	5	Mayo	2023-05-23T00:00:00	2024-11-08T20:00:00	1	Precipitación	0
108700	7	Sololá	701	Sololá	4	Finca Santa Victoria	5	Mayo	2023-05-23T00:00:00	2024-11-08T20:00:00	8	Radiación solar	0
108701	7	Sololá	701	Sololá	4	Finca Santa Victoria	5	Mayo	2023-05-23T00:00:00	2024-11-08T21:00:00	2	Temperatura media	15.8
108702	7	Sololá	701	Sololá	4	Finca Santa Victoria	5	Mayo	2023-05-23T00:00:00	2024-11-08T21:00:00	4	Temperatura máxima	15.8
108703	7	Sololá	701	Sololá	4	Finca Santa Victoria	5	Mayo	2023-05-23T00:00:00	2024-11-08T21:00:00	3	Temperatura mínima	15.6
108704	7	Sololá	701	Sololá	4	Finca Santa Victoria	5	Mayo	2023-05-23T00:00:00	2024-11-08T21:00:00	5	Humedad	85
108705	7	Sololá	701	Sololá	4	Finca Santa Victoria	5	Mayo	2023-05-23T00:00:00	2024-11-08T21:00:00	6	Velocidad del viento	1.6
108706	7	Sololá	701	Sololá	4	Finca Santa Victoria	5	Mayo	2023-05-23T00:00:00	2024-11-08T21:00:00	7	Dirección del viento	1.61
108707	7	Sololá	701	Sololá	4	Finca Santa Victoria	5	Mayo	2023-05-23T00:00:00	2024-11-08T21:00:00	1	Precipitación	0
108708	7	Sololá	701	Sololá	4	Finca Santa Victoria	5	Mayo	2023-05-23T00:00:00	2024-11-08T21:00:00	8	Radiación solar	0
108709	7	Sololá	701	Sololá	4	Finca Santa Victoria	5	Mayo	2023-05-23T00:00:00	2024-11-08T22:00:00	2	Temperatura media	14.6
108710	7	Sololá	701	Sololá	4	Finca Santa Victoria	5	Mayo	2023-05-23T00:00:00	2024-11-08T22:00:00	4	Temperatura máxima	15.8
108711	7	Sololá	701	Sololá	4	Finca Santa Victoria	5	Mayo	2023-05-23T00:00:00	2024-11-08T22:00:00	3	Temperatura mínima	14.6
108712	7	Sololá	701	Sololá	4	Finca Santa Victoria	5	Mayo	2023-05-23T00:00:00	2024-11-08T22:00:00	5	Humedad	88
108713	7	Sololá	701	Sololá	4	Finca Santa Victoria	5	Mayo	2023-05-23T00:00:00	2024-11-08T22:00:00	6	Velocidad del viento	0
108714	7	Sololá	701	Sololá	4	Finca Santa Victoria	5	Mayo	2023-05-23T00:00:00	2024-11-08T22:00:00	7	Dirección del viento	0
108715	7	Sololá	701	Sololá	4	Finca Santa Victoria	5	Mayo	2023-05-23T00:00:00	2024-11-08T22:00:00	1	Precipitación	0
108716	7	Sololá	701	Sololá	4	Finca Santa Victoria	5	Mayo	2023-05-23T00:00:00	2024-11-08T22:00:00	8	Radiación solar	0
108717	7	Sololá	701	Sololá	4	Finca Santa Victoria	5	Mayo	2023-05-23T00:00:00	2024-11-08T23:00:00	2	Temperatura media	14.1
108718	7	Sololá	701	Sololá	4	Finca Santa Victoria	5	Mayo	2023-05-23T00:00:00	2024-11-08T23:00:00	4	Temperatura máxima	14.6
108719	7	Sololá	701	Sololá	4	Finca Santa Victoria	5	Mayo	2023-05-23T00:00:00	2024-11-08T23:00:00	3	Temperatura mínima	14
108720	7	Sololá	701	Sololá	4	Finca Santa Victoria	5	Mayo	2023-05-23T00:00:00	2024-11-08T23:00:00	5	Humedad	90
108721	7	Sololá	701	Sololá	4	Finca Santa Victoria	5	Mayo	2023-05-23T00:00:00	2024-11-08T23:00:00	6	Velocidad del viento	0
108722	7	Sololá	701	Sololá	4	Finca Santa Victoria	5	Mayo	2023-05-23T00:00:00	2024-11-08T23:00:00	7	Dirección del viento	0
108723	7	Sololá	701	Sololá	4	Finca Santa Victoria	5	Mayo	2023-05-23T00:00:00	2024-11-08T23:00:00	1	Precipitación	0
108724	7	Sololá	701	Sololá	4	Finca Santa Victoria	5	Mayo	2023-05-23T00:00:00	2024-11-08T23:00:00	8	Radiación solar	0
108725	7	Sololá	701	Sololá	4	Finca Santa Victoria	5	Mayo	2023-05-24T00:00:00	2024-11-08T00:00:00	2	Temperatura media	13.7
108726	7	Sololá	701	Sololá	4	Finca Santa Victoria	5	Mayo	2023-05-24T00:00:00	2024-11-08T00:00:00	4	Temperatura máxima	14.1
108727	7	Sololá	701	Sololá	4	Finca Santa Victoria	5	Mayo	2023-05-24T00:00:00	2024-11-08T00:00:00	3	Temperatura mínima	13.6
108728	7	Sololá	701	Sololá	4	Finca Santa Victoria	5	Mayo	2023-05-24T00:00:00	2024-11-08T00:00:00	5	Humedad	90
108729	7	Sololá	701	Sololá	4	Finca Santa Victoria	5	Mayo	2023-05-24T00:00:00	2024-11-08T00:00:00	6	Velocidad del viento	0
108730	7	Sololá	701	Sololá	4	Finca Santa Victoria	5	Mayo	2023-05-24T00:00:00	2024-11-08T00:00:00	7	Dirección del viento	0
108731	7	Sololá	701	Sololá	4	Finca Santa Victoria	5	Mayo	2023-05-24T00:00:00	2024-11-08T00:00:00	1	Precipitación	0
108732	7	Sololá	701	Sololá	4	Finca Santa Victoria	5	Mayo	2023-05-24T00:00:00	2024-11-08T00:00:00	8	Radiación solar	0
108733	7	Sololá	701	Sololá	4	Finca Santa Victoria	5	Mayo	2023-05-24T00:00:00	2024-11-08T01:00:00	2	Temperatura media	13.2
108734	7	Sololá	701	Sololá	4	Finca Santa Victoria	5	Mayo	2023-05-24T00:00:00	2024-11-08T01:00:00	4	Temperatura máxima	13.7
108735	7	Sololá	701	Sololá	4	Finca Santa Victoria	5	Mayo	2023-05-24T00:00:00	2024-11-08T01:00:00	3	Temperatura mínima	13.1
108736	7	Sololá	701	Sololá	4	Finca Santa Victoria	5	Mayo	2023-05-24T00:00:00	2024-11-08T01:00:00	5	Humedad	91
108737	7	Sololá	701	Sololá	4	Finca Santa Victoria	5	Mayo	2023-05-24T00:00:00	2024-11-08T01:00:00	6	Velocidad del viento	0
108738	7	Sololá	701	Sololá	4	Finca Santa Victoria	5	Mayo	2023-05-24T00:00:00	2024-11-08T01:00:00	7	Dirección del viento	0
108739	7	Sololá	701	Sololá	4	Finca Santa Victoria	5	Mayo	2023-05-24T00:00:00	2024-11-08T01:00:00	1	Precipitación	0
108740	7	Sololá	701	Sololá	4	Finca Santa Victoria	5	Mayo	2023-05-24T00:00:00	2024-11-08T01:00:00	8	Radiación solar	0
108741	7	Sololá	701	Sololá	4	Finca Santa Victoria	5	Mayo	2023-05-24T00:00:00	2024-11-08T02:00:00	2	Temperatura media	13.1
108742	7	Sololá	701	Sololá	4	Finca Santa Victoria	5	Mayo	2023-05-24T00:00:00	2024-11-08T02:00:00	4	Temperatura máxima	13.4
108743	7	Sololá	701	Sololá	4	Finca Santa Victoria	5	Mayo	2023-05-24T00:00:00	2024-11-08T02:00:00	3	Temperatura mínima	13.1
108744	7	Sololá	701	Sololá	4	Finca Santa Victoria	5	Mayo	2023-05-24T00:00:00	2024-11-08T02:00:00	5	Humedad	91
108745	7	Sololá	701	Sololá	4	Finca Santa Victoria	5	Mayo	2023-05-24T00:00:00	2024-11-08T02:00:00	6	Velocidad del viento	0
108746	7	Sololá	701	Sololá	4	Finca Santa Victoria	5	Mayo	2023-05-24T00:00:00	2024-11-08T02:00:00	7	Dirección del viento	0
108747	7	Sololá	701	Sololá	4	Finca Santa Victoria	5	Mayo	2023-05-24T00:00:00	2024-11-08T02:00:00	1	Precipitación	0
108748	7	Sololá	701	Sololá	4	Finca Santa Victoria	5	Mayo	2023-05-24T00:00:00	2024-11-08T02:00:00	8	Radiación solar	0
108749	7	Sololá	701	Sololá	4	Finca Santa Victoria	5	Mayo	2023-05-24T00:00:00	2024-11-08T03:00:00	2	Temperatura media	13.4
108750	7	Sololá	701	Sololá	4	Finca Santa Victoria	5	Mayo	2023-05-24T00:00:00	2024-11-08T03:00:00	4	Temperatura máxima	13.4
108751	7	Sololá	701	Sololá	4	Finca Santa Victoria	5	Mayo	2023-05-24T00:00:00	2024-11-08T03:00:00	3	Temperatura mínima	12.9
108752	7	Sololá	701	Sololá	4	Finca Santa Victoria	5	Mayo	2023-05-24T00:00:00	2024-11-08T03:00:00	5	Humedad	87
108753	7	Sololá	701	Sololá	4	Finca Santa Victoria	5	Mayo	2023-05-24T00:00:00	2024-11-08T03:00:00	6	Velocidad del viento	0
108754	7	Sololá	701	Sololá	4	Finca Santa Victoria	5	Mayo	2023-05-24T00:00:00	2024-11-08T03:00:00	7	Dirección del viento	0
108755	7	Sololá	701	Sololá	4	Finca Santa Victoria	5	Mayo	2023-05-24T00:00:00	2024-11-08T03:00:00	1	Precipitación	0
108756	7	Sololá	701	Sololá	4	Finca Santa Victoria	5	Mayo	2023-05-24T00:00:00	2024-11-08T03:00:00	8	Radiación solar	0
108757	7	Sololá	701	Sololá	4	Finca Santa Victoria	5	Mayo	2023-05-24T00:00:00	2024-11-08T04:00:00	2	Temperatura media	13.1
108758	7	Sololá	701	Sololá	4	Finca Santa Victoria	5	Mayo	2023-05-24T00:00:00	2024-11-08T04:00:00	4	Temperatura máxima	13.7
108759	7	Sololá	701	Sololá	4	Finca Santa Victoria	5	Mayo	2023-05-24T00:00:00	2024-11-08T04:00:00	3	Temperatura mínima	13
108760	7	Sololá	701	Sololá	4	Finca Santa Victoria	5	Mayo	2023-05-24T00:00:00	2024-11-08T04:00:00	5	Humedad	87
108761	7	Sololá	701	Sololá	4	Finca Santa Victoria	5	Mayo	2023-05-24T00:00:00	2024-11-08T04:00:00	6	Velocidad del viento	0
108762	7	Sololá	701	Sololá	4	Finca Santa Victoria	5	Mayo	2023-05-24T00:00:00	2024-11-08T04:00:00	7	Dirección del viento	0
108763	7	Sololá	701	Sololá	4	Finca Santa Victoria	5	Mayo	2023-05-24T00:00:00	2024-11-08T04:00:00	1	Precipitación	0
108764	7	Sololá	701	Sololá	4	Finca Santa Victoria	5	Mayo	2023-05-24T00:00:00	2024-11-08T04:00:00	8	Radiación solar	0
108765	7	Sololá	701	Sololá	4	Finca Santa Victoria	5	Mayo	2023-05-24T00:00:00	2024-11-08T05:00:00	2	Temperatura media	12.4
108766	7	Sololá	701	Sololá	4	Finca Santa Victoria	5	Mayo	2023-05-24T00:00:00	2024-11-08T05:00:00	4	Temperatura máxima	13.1
108767	7	Sololá	701	Sololá	4	Finca Santa Victoria	5	Mayo	2023-05-24T00:00:00	2024-11-08T05:00:00	3	Temperatura mínima	12.4
108768	7	Sololá	701	Sololá	4	Finca Santa Victoria	5	Mayo	2023-05-24T00:00:00	2024-11-08T05:00:00	5	Humedad	89
108769	7	Sololá	701	Sololá	4	Finca Santa Victoria	5	Mayo	2023-05-24T00:00:00	2024-11-08T05:00:00	6	Velocidad del viento	0
108770	7	Sololá	701	Sololá	4	Finca Santa Victoria	5	Mayo	2023-05-24T00:00:00	2024-11-08T05:00:00	7	Dirección del viento	0
108771	7	Sololá	701	Sololá	4	Finca Santa Victoria	5	Mayo	2023-05-24T00:00:00	2024-11-08T05:00:00	1	Precipitación	0
108772	7	Sololá	701	Sololá	4	Finca Santa Victoria	5	Mayo	2023-05-24T00:00:00	2024-11-08T05:00:00	8	Radiación solar	0
108773	7	Sololá	701	Sololá	4	Finca Santa Victoria	5	Mayo	2023-05-24T00:00:00	2024-11-08T06:00:00	2	Temperatura media	11.8
108774	7	Sololá	701	Sololá	4	Finca Santa Victoria	5	Mayo	2023-05-24T00:00:00	2024-11-08T06:00:00	4	Temperatura máxima	12.4
108775	7	Sololá	701	Sololá	4	Finca Santa Victoria	5	Mayo	2023-05-24T00:00:00	2024-11-08T06:00:00	3	Temperatura mínima	11.8
108776	7	Sololá	701	Sololá	4	Finca Santa Victoria	5	Mayo	2023-05-24T00:00:00	2024-11-08T06:00:00	5	Humedad	92
108777	7	Sololá	701	Sololá	4	Finca Santa Victoria	5	Mayo	2023-05-24T00:00:00	2024-11-08T06:00:00	6	Velocidad del viento	0
108778	7	Sololá	701	Sololá	4	Finca Santa Victoria	5	Mayo	2023-05-24T00:00:00	2024-11-08T06:00:00	7	Dirección del viento	0
108779	7	Sololá	701	Sololá	4	Finca Santa Victoria	5	Mayo	2023-05-24T00:00:00	2024-11-08T06:00:00	1	Precipitación	0
108780	7	Sololá	701	Sololá	4	Finca Santa Victoria	5	Mayo	2023-05-24T00:00:00	2024-11-08T06:00:00	8	Radiación solar	3
108781	7	Sololá	701	Sololá	4	Finca Santa Victoria	5	Mayo	2023-05-24T00:00:00	2024-11-08T07:00:00	2	Temperatura media	13.1
108782	7	Sololá	701	Sololá	4	Finca Santa Victoria	5	Mayo	2023-05-24T00:00:00	2024-11-08T07:00:00	4	Temperatura máxima	13.2
108783	7	Sololá	701	Sololá	4	Finca Santa Victoria	5	Mayo	2023-05-24T00:00:00	2024-11-08T07:00:00	3	Temperatura mínima	11.8
108784	7	Sololá	701	Sololá	4	Finca Santa Victoria	5	Mayo	2023-05-24T00:00:00	2024-11-08T07:00:00	5	Humedad	90
108785	7	Sololá	701	Sololá	4	Finca Santa Victoria	5	Mayo	2023-05-24T00:00:00	2024-11-08T07:00:00	6	Velocidad del viento	0
108786	7	Sololá	701	Sololá	4	Finca Santa Victoria	5	Mayo	2023-05-24T00:00:00	2024-11-08T07:00:00	7	Dirección del viento	0
108787	7	Sololá	701	Sololá	4	Finca Santa Victoria	5	Mayo	2023-05-24T00:00:00	2024-11-08T07:00:00	1	Precipitación	0
108788	7	Sololá	701	Sololá	4	Finca Santa Victoria	5	Mayo	2023-05-24T00:00:00	2024-11-08T07:00:00	8	Radiación solar	39
108789	7	Sololá	701	Sololá	4	Finca Santa Victoria	5	Mayo	2023-05-24T00:00:00	2024-11-08T08:00:00	2	Temperatura media	17.4
108790	7	Sololá	701	Sololá	4	Finca Santa Victoria	5	Mayo	2023-05-24T00:00:00	2024-11-08T08:00:00	4	Temperatura máxima	17.4
108791	7	Sololá	701	Sololá	4	Finca Santa Victoria	5	Mayo	2023-05-24T00:00:00	2024-11-08T08:00:00	3	Temperatura mínima	13.1
108792	7	Sololá	701	Sololá	4	Finca Santa Victoria	5	Mayo	2023-05-24T00:00:00	2024-11-08T08:00:00	5	Humedad	74
108793	7	Sololá	701	Sololá	4	Finca Santa Victoria	5	Mayo	2023-05-24T00:00:00	2024-11-08T08:00:00	6	Velocidad del viento	1.6
108794	7	Sololá	701	Sololá	4	Finca Santa Victoria	5	Mayo	2023-05-24T00:00:00	2024-11-08T08:00:00	7	Dirección del viento	1.61
108795	7	Sololá	701	Sololá	4	Finca Santa Victoria	5	Mayo	2023-05-24T00:00:00	2024-11-08T08:00:00	1	Precipitación	0
108796	7	Sololá	701	Sololá	4	Finca Santa Victoria	5	Mayo	2023-05-24T00:00:00	2024-11-08T08:00:00	8	Radiación solar	286
108797	7	Sololá	701	Sololá	4	Finca Santa Victoria	5	Mayo	2023-05-24T00:00:00	2024-11-08T09:00:00	2	Temperatura media	17.7
108798	7	Sololá	701	Sololá	4	Finca Santa Victoria	5	Mayo	2023-05-24T00:00:00	2024-11-08T09:00:00	4	Temperatura máxima	17.8
108799	7	Sololá	701	Sololá	4	Finca Santa Victoria	5	Mayo	2023-05-24T00:00:00	2024-11-08T09:00:00	3	Temperatura mínima	17.4
108800	7	Sololá	701	Sololá	4	Finca Santa Victoria	5	Mayo	2023-05-24T00:00:00	2024-11-08T09:00:00	5	Humedad	76
108801	7	Sololá	701	Sololá	4	Finca Santa Victoria	5	Mayo	2023-05-24T00:00:00	2024-11-08T09:00:00	6	Velocidad del viento	3.2
108802	7	Sololá	701	Sololá	4	Finca Santa Victoria	5	Mayo	2023-05-24T00:00:00	2024-11-08T09:00:00	7	Dirección del viento	3.22
108803	7	Sololá	701	Sololá	4	Finca Santa Victoria	5	Mayo	2023-05-24T00:00:00	2024-11-08T09:00:00	1	Precipitación	0
108804	7	Sololá	701	Sololá	4	Finca Santa Victoria	5	Mayo	2023-05-24T00:00:00	2024-11-08T09:00:00	8	Radiación solar	428
108805	7	Sololá	701	Sololá	4	Finca Santa Victoria	5	Mayo	2023-05-24T00:00:00	2024-11-08T10:00:00	2	Temperatura media	18.3
108806	7	Sololá	701	Sololá	4	Finca Santa Victoria	5	Mayo	2023-05-24T00:00:00	2024-11-08T10:00:00	4	Temperatura máxima	18.3
108807	7	Sololá	701	Sololá	4	Finca Santa Victoria	5	Mayo	2023-05-24T00:00:00	2024-11-08T10:00:00	3	Temperatura mínima	17.7
108808	7	Sololá	701	Sololá	4	Finca Santa Victoria	5	Mayo	2023-05-24T00:00:00	2024-11-08T10:00:00	5	Humedad	73
108809	7	Sololá	701	Sololá	4	Finca Santa Victoria	5	Mayo	2023-05-24T00:00:00	2024-11-08T10:00:00	6	Velocidad del viento	3.2
108810	7	Sololá	701	Sololá	4	Finca Santa Victoria	5	Mayo	2023-05-24T00:00:00	2024-11-08T10:00:00	7	Dirección del viento	3.22
108811	7	Sololá	701	Sololá	4	Finca Santa Victoria	5	Mayo	2023-05-24T00:00:00	2024-11-08T10:00:00	1	Precipitación	0
108812	7	Sololá	701	Sololá	4	Finca Santa Victoria	5	Mayo	2023-05-24T00:00:00	2024-11-08T10:00:00	8	Radiación solar	243
108813	7	Sololá	701	Sololá	4	Finca Santa Victoria	5	Mayo	2023-05-24T00:00:00	2024-11-08T11:00:00	2	Temperatura media	19.8
108814	7	Sololá	701	Sololá	4	Finca Santa Victoria	5	Mayo	2023-05-24T00:00:00	2024-11-08T11:00:00	4	Temperatura máxima	19.8
108815	7	Sololá	701	Sololá	4	Finca Santa Victoria	5	Mayo	2023-05-24T00:00:00	2024-11-08T11:00:00	3	Temperatura mínima	18.3
108816	7	Sololá	701	Sololá	4	Finca Santa Victoria	5	Mayo	2023-05-24T00:00:00	2024-11-08T11:00:00	5	Humedad	62
108817	7	Sololá	701	Sololá	4	Finca Santa Victoria	5	Mayo	2023-05-24T00:00:00	2024-11-08T11:00:00	6	Velocidad del viento	3.2
108818	7	Sololá	701	Sololá	4	Finca Santa Victoria	5	Mayo	2023-05-24T00:00:00	2024-11-08T11:00:00	7	Dirección del viento	3.22
108819	7	Sololá	701	Sololá	4	Finca Santa Victoria	5	Mayo	2023-05-24T00:00:00	2024-11-08T11:00:00	1	Precipitación	0
108820	7	Sololá	701	Sololá	4	Finca Santa Victoria	5	Mayo	2023-05-24T00:00:00	2024-11-08T11:00:00	8	Radiación solar	520
108821	7	Sololá	701	Sololá	4	Finca Santa Victoria	5	Mayo	2023-05-24T00:00:00	2024-11-08T12:00:00	2	Temperatura media	20.1
108822	7	Sololá	701	Sololá	4	Finca Santa Victoria	5	Mayo	2023-05-24T00:00:00	2024-11-08T12:00:00	4	Temperatura máxima	20.6
108823	7	Sololá	701	Sololá	4	Finca Santa Victoria	5	Mayo	2023-05-24T00:00:00	2024-11-08T12:00:00	3	Temperatura mínima	19.8
108824	7	Sololá	701	Sololá	4	Finca Santa Victoria	5	Mayo	2023-05-24T00:00:00	2024-11-08T12:00:00	5	Humedad	71
108825	7	Sololá	701	Sololá	4	Finca Santa Victoria	5	Mayo	2023-05-24T00:00:00	2024-11-08T12:00:00	6	Velocidad del viento	4.8
108826	7	Sololá	701	Sololá	4	Finca Santa Victoria	5	Mayo	2023-05-24T00:00:00	2024-11-08T12:00:00	7	Dirección del viento	4.83
108827	7	Sololá	701	Sololá	4	Finca Santa Victoria	5	Mayo	2023-05-24T00:00:00	2024-11-08T12:00:00	1	Precipitación	0
108828	7	Sololá	701	Sololá	4	Finca Santa Victoria	5	Mayo	2023-05-24T00:00:00	2024-11-08T12:00:00	8	Radiación solar	975
108829	7	Sololá	701	Sololá	4	Finca Santa Victoria	5	Mayo	2023-05-24T00:00:00	2024-11-08T13:00:00	2	Temperatura media	20.4
108830	7	Sololá	701	Sololá	4	Finca Santa Victoria	5	Mayo	2023-05-24T00:00:00	2024-11-08T13:00:00	4	Temperatura máxima	20.4
108831	7	Sololá	701	Sololá	4	Finca Santa Victoria	5	Mayo	2023-05-24T00:00:00	2024-11-08T13:00:00	3	Temperatura mínima	20.1
108832	7	Sololá	701	Sololá	4	Finca Santa Victoria	5	Mayo	2023-05-24T00:00:00	2024-11-08T13:00:00	5	Humedad	68
108833	7	Sololá	701	Sololá	4	Finca Santa Victoria	5	Mayo	2023-05-24T00:00:00	2024-11-08T13:00:00	6	Velocidad del viento	4.8
108834	7	Sololá	701	Sololá	4	Finca Santa Victoria	5	Mayo	2023-05-24T00:00:00	2024-11-08T13:00:00	7	Dirección del viento	4.83
108835	7	Sololá	701	Sololá	4	Finca Santa Victoria	5	Mayo	2023-05-24T00:00:00	2024-11-08T13:00:00	1	Precipitación	0
108836	7	Sololá	701	Sololá	4	Finca Santa Victoria	5	Mayo	2023-05-24T00:00:00	2024-11-08T13:00:00	8	Radiación solar	964
108837	7	Sololá	701	Sololá	4	Finca Santa Victoria	5	Mayo	2023-05-24T00:00:00	2024-11-08T14:00:00	2	Temperatura media	20.3
108838	7	Sololá	701	Sololá	4	Finca Santa Victoria	5	Mayo	2023-05-24T00:00:00	2024-11-08T14:00:00	4	Temperatura máxima	20.8
108839	7	Sololá	701	Sololá	4	Finca Santa Victoria	5	Mayo	2023-05-24T00:00:00	2024-11-08T14:00:00	3	Temperatura mínima	20.2
108840	7	Sololá	701	Sololá	4	Finca Santa Victoria	5	Mayo	2023-05-24T00:00:00	2024-11-08T14:00:00	5	Humedad	75
108841	7	Sololá	701	Sololá	4	Finca Santa Victoria	5	Mayo	2023-05-24T00:00:00	2024-11-08T14:00:00	6	Velocidad del viento	6.4
108842	7	Sololá	701	Sololá	4	Finca Santa Victoria	5	Mayo	2023-05-24T00:00:00	2024-11-08T14:00:00	7	Dirección del viento	6.44
108843	7	Sololá	701	Sololá	4	Finca Santa Victoria	5	Mayo	2023-05-24T00:00:00	2024-11-08T14:00:00	1	Precipitación	0
108844	7	Sololá	701	Sololá	4	Finca Santa Victoria	5	Mayo	2023-05-24T00:00:00	2024-11-08T14:00:00	8	Radiación solar	899
108845	7	Sololá	701	Sololá	4	Finca Santa Victoria	5	Mayo	2023-05-24T00:00:00	2024-11-08T15:00:00	2	Temperatura media	19.4
108846	7	Sololá	701	Sololá	4	Finca Santa Victoria	5	Mayo	2023-05-24T00:00:00	2024-11-08T15:00:00	4	Temperatura máxima	20.4
108847	7	Sololá	701	Sololá	4	Finca Santa Victoria	5	Mayo	2023-05-24T00:00:00	2024-11-08T15:00:00	3	Temperatura mínima	19.4
108848	7	Sololá	701	Sololá	4	Finca Santa Victoria	5	Mayo	2023-05-24T00:00:00	2024-11-08T15:00:00	5	Humedad	81
108849	7	Sololá	701	Sololá	4	Finca Santa Victoria	5	Mayo	2023-05-24T00:00:00	2024-11-08T15:00:00	6	Velocidad del viento	6.4
108850	7	Sololá	701	Sololá	4	Finca Santa Victoria	5	Mayo	2023-05-24T00:00:00	2024-11-08T15:00:00	7	Dirección del viento	6.44
108851	7	Sololá	701	Sololá	4	Finca Santa Victoria	5	Mayo	2023-05-24T00:00:00	2024-11-08T15:00:00	1	Precipitación	0
108852	7	Sololá	701	Sololá	4	Finca Santa Victoria	5	Mayo	2023-05-24T00:00:00	2024-11-08T15:00:00	8	Radiación solar	358
108853	7	Sololá	701	Sololá	4	Finca Santa Victoria	5	Mayo	2023-05-24T00:00:00	2024-11-08T16:00:00	2	Temperatura media	18.1
108854	7	Sololá	701	Sololá	4	Finca Santa Victoria	5	Mayo	2023-05-24T00:00:00	2024-11-08T16:00:00	4	Temperatura máxima	19.4
108855	7	Sololá	701	Sololá	4	Finca Santa Victoria	5	Mayo	2023-05-24T00:00:00	2024-11-08T16:00:00	3	Temperatura mínima	18.1
108856	7	Sololá	701	Sololá	4	Finca Santa Victoria	5	Mayo	2023-05-24T00:00:00	2024-11-08T16:00:00	5	Humedad	89
108857	7	Sololá	701	Sololá	4	Finca Santa Victoria	5	Mayo	2023-05-24T00:00:00	2024-11-08T16:00:00	6	Velocidad del viento	4.8
108858	7	Sololá	701	Sololá	4	Finca Santa Victoria	5	Mayo	2023-05-24T00:00:00	2024-11-08T16:00:00	7	Dirección del viento	4.83
108859	7	Sololá	701	Sololá	4	Finca Santa Victoria	5	Mayo	2023-05-24T00:00:00	2024-11-08T16:00:00	1	Precipitación	0
108860	7	Sololá	701	Sololá	4	Finca Santa Victoria	5	Mayo	2023-05-24T00:00:00	2024-11-08T16:00:00	8	Radiación solar	159
108861	7	Sololá	701	Sololá	4	Finca Santa Victoria	5	Mayo	2023-05-24T00:00:00	2024-11-08T17:00:00	2	Temperatura media	17.5
108862	7	Sololá	701	Sololá	4	Finca Santa Victoria	5	Mayo	2023-05-24T00:00:00	2024-11-08T17:00:00	4	Temperatura máxima	18.1
108863	7	Sololá	701	Sololá	4	Finca Santa Victoria	5	Mayo	2023-05-24T00:00:00	2024-11-08T17:00:00	3	Temperatura mínima	17.4
108864	7	Sololá	701	Sololá	4	Finca Santa Victoria	5	Mayo	2023-05-24T00:00:00	2024-11-08T17:00:00	5	Humedad	92
108865	7	Sololá	701	Sololá	4	Finca Santa Victoria	5	Mayo	2023-05-24T00:00:00	2024-11-08T17:00:00	6	Velocidad del viento	3.2
108866	7	Sololá	701	Sololá	4	Finca Santa Victoria	5	Mayo	2023-05-24T00:00:00	2024-11-08T17:00:00	7	Dirección del viento	3.22
108867	7	Sololá	701	Sololá	4	Finca Santa Victoria	5	Mayo	2023-05-24T00:00:00	2024-11-08T17:00:00	1	Precipitación	0
108868	7	Sololá	701	Sololá	4	Finca Santa Victoria	5	Mayo	2023-05-24T00:00:00	2024-11-08T17:00:00	8	Radiación solar	68
108869	7	Sololá	701	Sololá	4	Finca Santa Victoria	5	Mayo	2023-05-24T00:00:00	2024-11-08T18:00:00	2	Temperatura media	17.1
108870	7	Sololá	701	Sololá	4	Finca Santa Victoria	5	Mayo	2023-05-24T00:00:00	2024-11-08T18:00:00	4	Temperatura máxima	17.6
108871	7	Sololá	701	Sololá	4	Finca Santa Victoria	5	Mayo	2023-05-24T00:00:00	2024-11-08T18:00:00	3	Temperatura mínima	17.1
108872	7	Sololá	701	Sololá	4	Finca Santa Victoria	5	Mayo	2023-05-24T00:00:00	2024-11-08T18:00:00	5	Humedad	94
108873	7	Sololá	701	Sololá	4	Finca Santa Victoria	5	Mayo	2023-05-24T00:00:00	2024-11-08T18:00:00	6	Velocidad del viento	1.6
108874	7	Sololá	701	Sololá	4	Finca Santa Victoria	5	Mayo	2023-05-24T00:00:00	2024-11-08T18:00:00	7	Dirección del viento	1.61
108875	7	Sololá	701	Sololá	4	Finca Santa Victoria	5	Mayo	2023-05-24T00:00:00	2024-11-08T18:00:00	1	Precipitación	0
108876	7	Sololá	701	Sololá	4	Finca Santa Victoria	5	Mayo	2023-05-24T00:00:00	2024-11-08T18:00:00	8	Radiación solar	42
108877	7	Sololá	701	Sololá	4	Finca Santa Victoria	5	Mayo	2023-05-24T00:00:00	2024-11-08T19:00:00	2	Temperatura media	16.6
108878	7	Sololá	701	Sololá	4	Finca Santa Victoria	5	Mayo	2023-05-24T00:00:00	2024-11-08T19:00:00	4	Temperatura máxima	17.1
108879	7	Sololá	701	Sololá	4	Finca Santa Victoria	5	Mayo	2023-05-24T00:00:00	2024-11-08T19:00:00	3	Temperatura mínima	16.5
108880	7	Sololá	701	Sololá	4	Finca Santa Victoria	5	Mayo	2023-05-24T00:00:00	2024-11-08T19:00:00	5	Humedad	96
108881	7	Sololá	701	Sololá	4	Finca Santa Victoria	5	Mayo	2023-05-24T00:00:00	2024-11-08T19:00:00	6	Velocidad del viento	0
108882	7	Sololá	701	Sololá	4	Finca Santa Victoria	5	Mayo	2023-05-24T00:00:00	2024-11-08T19:00:00	7	Dirección del viento	0
108883	7	Sololá	701	Sololá	4	Finca Santa Victoria	5	Mayo	2023-05-24T00:00:00	2024-11-08T19:00:00	1	Precipitación	0
108884	7	Sololá	701	Sololá	4	Finca Santa Victoria	5	Mayo	2023-05-24T00:00:00	2024-11-08T19:00:00	8	Radiación solar	0
108885	7	Sololá	701	Sololá	4	Finca Santa Victoria	5	Mayo	2023-05-24T00:00:00	2024-11-08T20:00:00	2	Temperatura media	16.3
108886	7	Sololá	701	Sololá	4	Finca Santa Victoria	5	Mayo	2023-05-24T00:00:00	2024-11-08T20:00:00	4	Temperatura máxima	16.6
108887	7	Sololá	701	Sololá	4	Finca Santa Victoria	5	Mayo	2023-05-24T00:00:00	2024-11-08T20:00:00	3	Temperatura mínima	16.2
108888	7	Sololá	701	Sololá	4	Finca Santa Victoria	5	Mayo	2023-05-24T00:00:00	2024-11-08T20:00:00	5	Humedad	97
108889	7	Sololá	701	Sololá	4	Finca Santa Victoria	5	Mayo	2023-05-24T00:00:00	2024-11-08T20:00:00	6	Velocidad del viento	0
108890	7	Sololá	701	Sololá	4	Finca Santa Victoria	5	Mayo	2023-05-24T00:00:00	2024-11-08T20:00:00	7	Dirección del viento	0
108891	7	Sololá	701	Sololá	4	Finca Santa Victoria	5	Mayo	2023-05-24T00:00:00	2024-11-08T20:00:00	1	Precipitación	0
108892	7	Sololá	701	Sololá	4	Finca Santa Victoria	5	Mayo	2023-05-24T00:00:00	2024-11-08T20:00:00	8	Radiación solar	0
108893	7	Sololá	701	Sololá	4	Finca Santa Victoria	5	Mayo	2023-05-24T00:00:00	2024-11-08T21:00:00	2	Temperatura media	15.7
108894	7	Sololá	701	Sololá	4	Finca Santa Victoria	5	Mayo	2023-05-24T00:00:00	2024-11-08T21:00:00	4	Temperatura máxima	16.3
108895	7	Sololá	701	Sololá	4	Finca Santa Victoria	5	Mayo	2023-05-24T00:00:00	2024-11-08T21:00:00	3	Temperatura mínima	15.7
108896	7	Sololá	701	Sololá	4	Finca Santa Victoria	5	Mayo	2023-05-24T00:00:00	2024-11-08T21:00:00	5	Humedad	97
108897	7	Sololá	701	Sololá	4	Finca Santa Victoria	5	Mayo	2023-05-24T00:00:00	2024-11-08T21:00:00	6	Velocidad del viento	0
108898	7	Sololá	701	Sololá	4	Finca Santa Victoria	5	Mayo	2023-05-24T00:00:00	2024-11-08T21:00:00	7	Dirección del viento	0
108899	7	Sololá	701	Sololá	4	Finca Santa Victoria	5	Mayo	2023-05-24T00:00:00	2024-11-08T21:00:00	1	Precipitación	0
108900	7	Sololá	701	Sololá	4	Finca Santa Victoria	5	Mayo	2023-05-24T00:00:00	2024-11-08T21:00:00	8	Radiación solar	0
108901	7	Sololá	701	Sololá	4	Finca Santa Victoria	5	Mayo	2023-05-24T00:00:00	2024-11-08T22:00:00	2	Temperatura media	15.4
108902	7	Sololá	701	Sololá	4	Finca Santa Victoria	5	Mayo	2023-05-24T00:00:00	2024-11-08T22:00:00	4	Temperatura máxima	15.7
108903	7	Sololá	701	Sololá	4	Finca Santa Victoria	5	Mayo	2023-05-24T00:00:00	2024-11-08T22:00:00	3	Temperatura mínima	15.3
108904	7	Sololá	701	Sololá	4	Finca Santa Victoria	5	Mayo	2023-05-24T00:00:00	2024-11-08T22:00:00	5	Humedad	97
108905	7	Sololá	701	Sololá	4	Finca Santa Victoria	5	Mayo	2023-05-24T00:00:00	2024-11-08T22:00:00	6	Velocidad del viento	0
108906	7	Sololá	701	Sololá	4	Finca Santa Victoria	5	Mayo	2023-05-24T00:00:00	2024-11-08T22:00:00	7	Dirección del viento	0
108907	7	Sololá	701	Sololá	4	Finca Santa Victoria	5	Mayo	2023-05-24T00:00:00	2024-11-08T22:00:00	1	Precipitación	0
108908	7	Sololá	701	Sololá	4	Finca Santa Victoria	5	Mayo	2023-05-24T00:00:00	2024-11-08T22:00:00	8	Radiación solar	0
108909	7	Sololá	701	Sololá	4	Finca Santa Victoria	5	Mayo	2023-05-24T00:00:00	2024-11-08T23:00:00	2	Temperatura media	15
108910	7	Sololá	701	Sololá	4	Finca Santa Victoria	5	Mayo	2023-05-24T00:00:00	2024-11-08T23:00:00	4	Temperatura máxima	15.5
108911	7	Sololá	701	Sololá	4	Finca Santa Victoria	5	Mayo	2023-05-24T00:00:00	2024-11-08T23:00:00	3	Temperatura mínima	15
108912	7	Sololá	701	Sololá	4	Finca Santa Victoria	5	Mayo	2023-05-24T00:00:00	2024-11-08T23:00:00	5	Humedad	97
108913	7	Sololá	701	Sololá	4	Finca Santa Victoria	5	Mayo	2023-05-24T00:00:00	2024-11-08T23:00:00	6	Velocidad del viento	0
108914	7	Sololá	701	Sololá	4	Finca Santa Victoria	5	Mayo	2023-05-24T00:00:00	2024-11-08T23:00:00	7	Dirección del viento	0
108915	7	Sololá	701	Sololá	4	Finca Santa Victoria	5	Mayo	2023-05-24T00:00:00	2024-11-08T23:00:00	1	Precipitación	0
108916	7	Sololá	701	Sololá	4	Finca Santa Victoria	5	Mayo	2023-05-24T00:00:00	2024-11-08T23:00:00	8	Radiación solar	0
108917	7	Sololá	701	Sololá	4	Finca Santa Victoria	5	Mayo	2023-05-25T00:00:00	2024-11-08T00:00:00	2	Temperatura media	14.8
108918	7	Sololá	701	Sololá	4	Finca Santa Victoria	5	Mayo	2023-05-25T00:00:00	2024-11-08T00:00:00	4	Temperatura máxima	15.2
108919	7	Sololá	701	Sololá	4	Finca Santa Victoria	5	Mayo	2023-05-25T00:00:00	2024-11-08T00:00:00	3	Temperatura mínima	14.8
108920	7	Sololá	701	Sololá	4	Finca Santa Victoria	5	Mayo	2023-05-25T00:00:00	2024-11-08T00:00:00	5	Humedad	97
108921	7	Sololá	701	Sololá	4	Finca Santa Victoria	5	Mayo	2023-05-25T00:00:00	2024-11-08T00:00:00	6	Velocidad del viento	0
108922	7	Sololá	701	Sololá	4	Finca Santa Victoria	5	Mayo	2023-05-25T00:00:00	2024-11-08T00:00:00	7	Dirección del viento	0
108923	7	Sololá	701	Sololá	4	Finca Santa Victoria	5	Mayo	2023-05-25T00:00:00	2024-11-08T00:00:00	1	Precipitación	0
108924	7	Sololá	701	Sololá	4	Finca Santa Victoria	5	Mayo	2023-05-25T00:00:00	2024-11-08T00:00:00	8	Radiación solar	0
108925	7	Sololá	701	Sololá	4	Finca Santa Victoria	5	Mayo	2023-05-25T00:00:00	2024-11-08T01:00:00	2	Temperatura media	13.5
108926	7	Sololá	701	Sololá	4	Finca Santa Victoria	5	Mayo	2023-05-25T00:00:00	2024-11-08T01:00:00	4	Temperatura máxima	14.8
108927	7	Sololá	701	Sololá	4	Finca Santa Victoria	5	Mayo	2023-05-25T00:00:00	2024-11-08T01:00:00	3	Temperatura mínima	13.5
108928	7	Sololá	701	Sololá	4	Finca Santa Victoria	5	Mayo	2023-05-25T00:00:00	2024-11-08T01:00:00	5	Humedad	92
108929	7	Sololá	701	Sololá	4	Finca Santa Victoria	5	Mayo	2023-05-25T00:00:00	2024-11-08T01:00:00	6	Velocidad del viento	0
108930	7	Sololá	701	Sololá	4	Finca Santa Victoria	5	Mayo	2023-05-25T00:00:00	2024-11-08T01:00:00	7	Dirección del viento	0
108931	7	Sololá	701	Sololá	4	Finca Santa Victoria	5	Mayo	2023-05-25T00:00:00	2024-11-08T01:00:00	1	Precipitación	0
108932	7	Sololá	701	Sololá	4	Finca Santa Victoria	5	Mayo	2023-05-25T00:00:00	2024-11-08T01:00:00	8	Radiación solar	0
108933	7	Sololá	701	Sololá	4	Finca Santa Victoria	5	Mayo	2023-05-25T00:00:00	2024-11-08T02:00:00	2	Temperatura media	13.6
108934	7	Sololá	701	Sololá	4	Finca Santa Victoria	5	Mayo	2023-05-25T00:00:00	2024-11-08T02:00:00	4	Temperatura máxima	13.8
108935	7	Sololá	701	Sololá	4	Finca Santa Victoria	5	Mayo	2023-05-25T00:00:00	2024-11-08T02:00:00	3	Temperatura mínima	13.4
108936	7	Sololá	701	Sololá	4	Finca Santa Victoria	5	Mayo	2023-05-25T00:00:00	2024-11-08T02:00:00	5	Humedad	92
108937	7	Sololá	701	Sololá	4	Finca Santa Victoria	5	Mayo	2023-05-25T00:00:00	2024-11-08T02:00:00	6	Velocidad del viento	0
108938	7	Sololá	701	Sololá	4	Finca Santa Victoria	5	Mayo	2023-05-25T00:00:00	2024-11-08T02:00:00	7	Dirección del viento	0
108939	7	Sololá	701	Sololá	4	Finca Santa Victoria	5	Mayo	2023-05-25T00:00:00	2024-11-08T02:00:00	1	Precipitación	0
108940	7	Sololá	701	Sololá	4	Finca Santa Victoria	5	Mayo	2023-05-25T00:00:00	2024-11-08T02:00:00	8	Radiación solar	0
108941	7	Sololá	701	Sololá	4	Finca Santa Victoria	5	Mayo	2023-05-25T00:00:00	2024-11-08T03:00:00	2	Temperatura media	13.2
108942	7	Sololá	701	Sololá	4	Finca Santa Victoria	5	Mayo	2023-05-25T00:00:00	2024-11-08T03:00:00	4	Temperatura máxima	13.6
108943	7	Sololá	701	Sololá	4	Finca Santa Victoria	5	Mayo	2023-05-25T00:00:00	2024-11-08T03:00:00	3	Temperatura mínima	13.2
108944	7	Sololá	701	Sololá	4	Finca Santa Victoria	5	Mayo	2023-05-25T00:00:00	2024-11-08T03:00:00	5	Humedad	91
108945	7	Sololá	701	Sololá	4	Finca Santa Victoria	5	Mayo	2023-05-25T00:00:00	2024-11-08T03:00:00	6	Velocidad del viento	0
108946	7	Sololá	701	Sololá	4	Finca Santa Victoria	5	Mayo	2023-05-25T00:00:00	2024-11-08T03:00:00	7	Dirección del viento	0
108947	7	Sololá	701	Sololá	4	Finca Santa Victoria	5	Mayo	2023-05-25T00:00:00	2024-11-08T03:00:00	1	Precipitación	0
108948	7	Sololá	701	Sololá	4	Finca Santa Victoria	5	Mayo	2023-05-25T00:00:00	2024-11-08T03:00:00	8	Radiación solar	0
108949	7	Sololá	701	Sololá	4	Finca Santa Victoria	5	Mayo	2023-05-25T00:00:00	2024-11-08T04:00:00	2	Temperatura media	12.8
108950	7	Sololá	701	Sololá	4	Finca Santa Victoria	5	Mayo	2023-05-25T00:00:00	2024-11-08T04:00:00	4	Temperatura máxima	13.2
108951	7	Sololá	701	Sololá	4	Finca Santa Victoria	5	Mayo	2023-05-25T00:00:00	2024-11-08T04:00:00	3	Temperatura mínima	12.6
108952	7	Sololá	701	Sololá	4	Finca Santa Victoria	5	Mayo	2023-05-25T00:00:00	2024-11-08T04:00:00	5	Humedad	88
108953	7	Sololá	701	Sololá	4	Finca Santa Victoria	5	Mayo	2023-05-25T00:00:00	2024-11-08T04:00:00	6	Velocidad del viento	1.6
108954	7	Sololá	701	Sololá	4	Finca Santa Victoria	5	Mayo	2023-05-25T00:00:00	2024-11-08T04:00:00	7	Dirección del viento	1.61
108955	7	Sololá	701	Sololá	4	Finca Santa Victoria	5	Mayo	2023-05-25T00:00:00	2024-11-08T04:00:00	1	Precipitación	0
108956	7	Sololá	701	Sololá	4	Finca Santa Victoria	5	Mayo	2023-05-25T00:00:00	2024-11-08T04:00:00	8	Radiación solar	0
108957	7	Sololá	701	Sololá	4	Finca Santa Victoria	5	Mayo	2023-05-25T00:00:00	2024-11-08T05:00:00	2	Temperatura media	12.8
108958	7	Sololá	701	Sololá	4	Finca Santa Victoria	5	Mayo	2023-05-25T00:00:00	2024-11-08T05:00:00	4	Temperatura máxima	12.9
108959	7	Sololá	701	Sololá	4	Finca Santa Victoria	5	Mayo	2023-05-25T00:00:00	2024-11-08T05:00:00	3	Temperatura mínima	12.7
108960	7	Sololá	701	Sololá	4	Finca Santa Victoria	5	Mayo	2023-05-25T00:00:00	2024-11-08T05:00:00	5	Humedad	85
108961	7	Sololá	701	Sololá	4	Finca Santa Victoria	5	Mayo	2023-05-25T00:00:00	2024-11-08T05:00:00	6	Velocidad del viento	1.6
108962	7	Sololá	701	Sololá	4	Finca Santa Victoria	5	Mayo	2023-05-25T00:00:00	2024-11-08T05:00:00	7	Dirección del viento	1.61
108963	7	Sololá	701	Sololá	4	Finca Santa Victoria	5	Mayo	2023-05-25T00:00:00	2024-11-08T05:00:00	1	Precipitación	0
108964	7	Sololá	701	Sololá	4	Finca Santa Victoria	5	Mayo	2023-05-25T00:00:00	2024-11-08T05:00:00	8	Radiación solar	0
108965	7	Sololá	701	Sololá	4	Finca Santa Victoria	5	Mayo	2023-05-25T00:00:00	2024-11-08T06:00:00	2	Temperatura media	12.8
108966	7	Sololá	701	Sololá	4	Finca Santa Victoria	5	Mayo	2023-05-25T00:00:00	2024-11-08T06:00:00	4	Temperatura máxima	12.8
108967	7	Sololá	701	Sololá	4	Finca Santa Victoria	5	Mayo	2023-05-25T00:00:00	2024-11-08T06:00:00	3	Temperatura mínima	12.6
108968	7	Sololá	701	Sololá	4	Finca Santa Victoria	5	Mayo	2023-05-25T00:00:00	2024-11-08T06:00:00	5	Humedad	82
108969	7	Sololá	701	Sololá	4	Finca Santa Victoria	5	Mayo	2023-05-25T00:00:00	2024-11-08T06:00:00	6	Velocidad del viento	1.6
108970	7	Sololá	701	Sololá	4	Finca Santa Victoria	5	Mayo	2023-05-25T00:00:00	2024-11-08T06:00:00	7	Dirección del viento	1.61
108971	7	Sololá	701	Sololá	4	Finca Santa Victoria	5	Mayo	2023-05-25T00:00:00	2024-11-08T06:00:00	1	Precipitación	0
108972	7	Sololá	701	Sololá	4	Finca Santa Victoria	5	Mayo	2023-05-25T00:00:00	2024-11-08T06:00:00	8	Radiación solar	7
108973	7	Sololá	701	Sololá	4	Finca Santa Victoria	5	Mayo	2023-05-25T00:00:00	2024-11-08T07:00:00	2	Temperatura media	13.9
108974	7	Sololá	701	Sololá	4	Finca Santa Victoria	5	Mayo	2023-05-25T00:00:00	2024-11-08T07:00:00	4	Temperatura máxima	13.9
108975	7	Sololá	701	Sololá	4	Finca Santa Victoria	5	Mayo	2023-05-25T00:00:00	2024-11-08T07:00:00	3	Temperatura mínima	12.8
108976	7	Sololá	701	Sololá	4	Finca Santa Victoria	5	Mayo	2023-05-25T00:00:00	2024-11-08T07:00:00	5	Humedad	88
108977	7	Sololá	701	Sololá	4	Finca Santa Victoria	5	Mayo	2023-05-25T00:00:00	2024-11-08T07:00:00	6	Velocidad del viento	1.6
108978	7	Sololá	701	Sololá	4	Finca Santa Victoria	5	Mayo	2023-05-25T00:00:00	2024-11-08T07:00:00	7	Dirección del viento	1.61
108979	7	Sololá	701	Sololá	4	Finca Santa Victoria	5	Mayo	2023-05-25T00:00:00	2024-11-08T07:00:00	1	Precipitación	0
108980	7	Sololá	701	Sololá	4	Finca Santa Victoria	5	Mayo	2023-05-25T00:00:00	2024-11-08T07:00:00	8	Radiación solar	61
108981	7	Sololá	701	Sololá	4	Finca Santa Victoria	5	Mayo	2023-05-25T00:00:00	2024-11-08T08:00:00	2	Temperatura media	16.9
108982	7	Sololá	701	Sololá	4	Finca Santa Victoria	5	Mayo	2023-05-25T00:00:00	2024-11-08T08:00:00	4	Temperatura máxima	16.9
108983	7	Sololá	701	Sololá	4	Finca Santa Victoria	5	Mayo	2023-05-25T00:00:00	2024-11-08T08:00:00	3	Temperatura mínima	13.9
108984	7	Sololá	701	Sololá	4	Finca Santa Victoria	5	Mayo	2023-05-25T00:00:00	2024-11-08T08:00:00	5	Humedad	76
108985	7	Sololá	701	Sololá	4	Finca Santa Victoria	5	Mayo	2023-05-25T00:00:00	2024-11-08T08:00:00	6	Velocidad del viento	1.6
108986	7	Sololá	701	Sololá	4	Finca Santa Victoria	5	Mayo	2023-05-25T00:00:00	2024-11-08T08:00:00	7	Dirección del viento	1.61
108987	7	Sololá	701	Sololá	4	Finca Santa Victoria	5	Mayo	2023-05-25T00:00:00	2024-11-08T08:00:00	1	Precipitación	0
108988	7	Sololá	701	Sololá	4	Finca Santa Victoria	5	Mayo	2023-05-25T00:00:00	2024-11-08T08:00:00	8	Radiación solar	256
108989	7	Sololá	701	Sololá	4	Finca Santa Victoria	5	Mayo	2023-05-25T00:00:00	2024-11-08T09:00:00	2	Temperatura media	18.6
108990	7	Sololá	701	Sololá	4	Finca Santa Victoria	5	Mayo	2023-05-25T00:00:00	2024-11-08T09:00:00	4	Temperatura máxima	18.6
108991	7	Sololá	701	Sololá	4	Finca Santa Victoria	5	Mayo	2023-05-25T00:00:00	2024-11-08T09:00:00	3	Temperatura mínima	16.9
108992	7	Sololá	701	Sololá	4	Finca Santa Victoria	5	Mayo	2023-05-25T00:00:00	2024-11-08T09:00:00	5	Humedad	69
108993	7	Sololá	701	Sololá	4	Finca Santa Victoria	5	Mayo	2023-05-25T00:00:00	2024-11-08T09:00:00	6	Velocidad del viento	3.2
108994	7	Sololá	701	Sololá	4	Finca Santa Victoria	5	Mayo	2023-05-25T00:00:00	2024-11-08T09:00:00	7	Dirección del viento	3.22
108995	7	Sololá	701	Sololá	4	Finca Santa Victoria	5	Mayo	2023-05-25T00:00:00	2024-11-08T09:00:00	1	Precipitación	0
108996	7	Sololá	701	Sololá	4	Finca Santa Victoria	5	Mayo	2023-05-25T00:00:00	2024-11-08T09:00:00	8	Radiación solar	394
108997	7	Sololá	701	Sololá	4	Finca Santa Victoria	5	Mayo	2023-05-25T00:00:00	2024-11-08T10:00:00	2	Temperatura media	19.5
108998	7	Sololá	701	Sololá	4	Finca Santa Victoria	5	Mayo	2023-05-25T00:00:00	2024-11-08T10:00:00	4	Temperatura máxima	19.5
108999	7	Sololá	701	Sololá	4	Finca Santa Victoria	5	Mayo	2023-05-25T00:00:00	2024-11-08T10:00:00	3	Temperatura mínima	18.6
109000	7	Sololá	701	Sololá	4	Finca Santa Victoria	5	Mayo	2023-05-25T00:00:00	2024-11-08T10:00:00	5	Humedad	69
109001	7	Sololá	701	Sololá	4	Finca Santa Victoria	5	Mayo	2023-05-25T00:00:00	2024-11-08T10:00:00	6	Velocidad del viento	3.2
109002	7	Sololá	701	Sololá	4	Finca Santa Victoria	5	Mayo	2023-05-25T00:00:00	2024-11-08T10:00:00	7	Dirección del viento	3.22
109003	7	Sololá	701	Sololá	4	Finca Santa Victoria	5	Mayo	2023-05-25T00:00:00	2024-11-08T10:00:00	1	Precipitación	0
109004	7	Sololá	701	Sololá	4	Finca Santa Victoria	5	Mayo	2023-05-25T00:00:00	2024-11-08T10:00:00	8	Radiación solar	248
109005	7	Sololá	701	Sololá	4	Finca Santa Victoria	5	Mayo	2023-05-25T00:00:00	2024-11-08T11:00:00	2	Temperatura media	19.9
109006	7	Sololá	701	Sololá	4	Finca Santa Victoria	5	Mayo	2023-05-25T00:00:00	2024-11-08T11:00:00	4	Temperatura máxima	20.2
109007	7	Sololá	701	Sololá	4	Finca Santa Victoria	5	Mayo	2023-05-25T00:00:00	2024-11-08T11:00:00	3	Temperatura mínima	19.4
109008	7	Sololá	701	Sololá	4	Finca Santa Victoria	5	Mayo	2023-05-25T00:00:00	2024-11-08T11:00:00	5	Humedad	73
109009	7	Sololá	701	Sololá	4	Finca Santa Victoria	5	Mayo	2023-05-25T00:00:00	2024-11-08T11:00:00	6	Velocidad del viento	4.8
109010	7	Sololá	701	Sololá	4	Finca Santa Victoria	5	Mayo	2023-05-25T00:00:00	2024-11-08T11:00:00	7	Dirección del viento	4.83
109011	7	Sololá	701	Sololá	4	Finca Santa Victoria	5	Mayo	2023-05-25T00:00:00	2024-11-08T11:00:00	1	Precipitación	0
109012	7	Sololá	701	Sololá	4	Finca Santa Victoria	5	Mayo	2023-05-25T00:00:00	2024-11-08T11:00:00	8	Radiación solar	598
109013	7	Sololá	701	Sololá	4	Finca Santa Victoria	5	Mayo	2023-05-25T00:00:00	2024-11-08T12:00:00	2	Temperatura media	20
109014	7	Sololá	701	Sololá	4	Finca Santa Victoria	5	Mayo	2023-05-25T00:00:00	2024-11-08T12:00:00	4	Temperatura máxima	20.6
109015	7	Sololá	701	Sololá	4	Finca Santa Victoria	5	Mayo	2023-05-25T00:00:00	2024-11-08T12:00:00	3	Temperatura mínima	19.8
109016	7	Sololá	701	Sololá	4	Finca Santa Victoria	5	Mayo	2023-05-25T00:00:00	2024-11-08T12:00:00	5	Humedad	73
109017	7	Sololá	701	Sololá	4	Finca Santa Victoria	5	Mayo	2023-05-25T00:00:00	2024-11-08T12:00:00	6	Velocidad del viento	4.8
109018	7	Sololá	701	Sololá	4	Finca Santa Victoria	5	Mayo	2023-05-25T00:00:00	2024-11-08T12:00:00	7	Dirección del viento	4.83
109019	7	Sololá	701	Sololá	4	Finca Santa Victoria	5	Mayo	2023-05-25T00:00:00	2024-11-08T12:00:00	1	Precipitación	0
109020	7	Sololá	701	Sololá	4	Finca Santa Victoria	5	Mayo	2023-05-25T00:00:00	2024-11-08T12:00:00	8	Radiación solar	915
109021	7	Sololá	701	Sololá	4	Finca Santa Victoria	5	Mayo	2023-05-25T00:00:00	2024-11-08T13:00:00	2	Temperatura media	20.5
109022	7	Sololá	701	Sololá	4	Finca Santa Victoria	5	Mayo	2023-05-25T00:00:00	2024-11-08T13:00:00	4	Temperatura máxima	20.7
109023	7	Sololá	701	Sololá	4	Finca Santa Victoria	5	Mayo	2023-05-25T00:00:00	2024-11-08T13:00:00	3	Temperatura mínima	19.9
109024	7	Sololá	701	Sololá	4	Finca Santa Victoria	5	Mayo	2023-05-25T00:00:00	2024-11-08T13:00:00	5	Humedad	76
109025	7	Sololá	701	Sololá	4	Finca Santa Victoria	5	Mayo	2023-05-25T00:00:00	2024-11-08T13:00:00	6	Velocidad del viento	4.8
109026	7	Sololá	701	Sololá	4	Finca Santa Victoria	5	Mayo	2023-05-25T00:00:00	2024-11-08T13:00:00	7	Dirección del viento	4.83
109027	7	Sololá	701	Sololá	4	Finca Santa Victoria	5	Mayo	2023-05-25T00:00:00	2024-11-08T13:00:00	1	Precipitación	0
109028	7	Sololá	701	Sololá	4	Finca Santa Victoria	5	Mayo	2023-05-25T00:00:00	2024-11-08T13:00:00	8	Radiación solar	953
109029	7	Sololá	701	Sololá	4	Finca Santa Victoria	5	Mayo	2023-05-25T00:00:00	2024-11-08T14:00:00	2	Temperatura media	18.6
109030	7	Sololá	701	Sololá	4	Finca Santa Victoria	5	Mayo	2023-05-25T00:00:00	2024-11-08T14:00:00	4	Temperatura máxima	20.5
109031	7	Sololá	701	Sololá	4	Finca Santa Victoria	5	Mayo	2023-05-25T00:00:00	2024-11-08T14:00:00	3	Temperatura mínima	18.4
109032	7	Sololá	701	Sololá	4	Finca Santa Victoria	5	Mayo	2023-05-25T00:00:00	2024-11-08T14:00:00	5	Humedad	86
109033	7	Sololá	701	Sololá	4	Finca Santa Victoria	5	Mayo	2023-05-25T00:00:00	2024-11-08T14:00:00	6	Velocidad del viento	4.8
109034	7	Sololá	701	Sololá	4	Finca Santa Victoria	5	Mayo	2023-05-25T00:00:00	2024-11-08T14:00:00	7	Dirección del viento	4.83
109035	7	Sololá	701	Sololá	4	Finca Santa Victoria	5	Mayo	2023-05-25T00:00:00	2024-11-08T14:00:00	1	Precipitación	0
109036	7	Sololá	701	Sololá	4	Finca Santa Victoria	5	Mayo	2023-05-25T00:00:00	2024-11-08T14:00:00	8	Radiación solar	214
109037	7	Sololá	701	Sololá	4	Finca Santa Victoria	5	Mayo	2023-05-25T00:00:00	2024-11-08T15:00:00	2	Temperatura media	17.8
109038	7	Sololá	701	Sololá	4	Finca Santa Victoria	5	Mayo	2023-05-25T00:00:00	2024-11-08T15:00:00	4	Temperatura máxima	18.6
109039	7	Sololá	701	Sololá	4	Finca Santa Victoria	5	Mayo	2023-05-25T00:00:00	2024-11-08T15:00:00	3	Temperatura mínima	17.3
109040	7	Sololá	701	Sololá	4	Finca Santa Victoria	5	Mayo	2023-05-25T00:00:00	2024-11-08T15:00:00	5	Humedad	90
109041	7	Sololá	701	Sololá	4	Finca Santa Victoria	5	Mayo	2023-05-25T00:00:00	2024-11-08T15:00:00	6	Velocidad del viento	3.2
109042	7	Sololá	701	Sololá	4	Finca Santa Victoria	5	Mayo	2023-05-25T00:00:00	2024-11-08T15:00:00	7	Dirección del viento	3.22
109043	7	Sololá	701	Sololá	4	Finca Santa Victoria	5	Mayo	2023-05-25T00:00:00	2024-11-08T15:00:00	1	Precipitación	0
109044	7	Sololá	701	Sololá	4	Finca Santa Victoria	5	Mayo	2023-05-25T00:00:00	2024-11-08T15:00:00	8	Radiación solar	89
109045	7	Sololá	701	Sololá	4	Finca Santa Victoria	5	Mayo	2023-05-25T00:00:00	2024-11-08T16:00:00	2	Temperatura media	17.3
109046	7	Sololá	701	Sololá	4	Finca Santa Victoria	5	Mayo	2023-05-25T00:00:00	2024-11-08T16:00:00	4	Temperatura máxima	17.9
109047	7	Sololá	701	Sololá	4	Finca Santa Victoria	5	Mayo	2023-05-25T00:00:00	2024-11-08T16:00:00	3	Temperatura mínima	17.3
109048	7	Sololá	701	Sololá	4	Finca Santa Victoria	5	Mayo	2023-05-25T00:00:00	2024-11-08T16:00:00	5	Humedad	92
109049	7	Sololá	701	Sololá	4	Finca Santa Victoria	5	Mayo	2023-05-25T00:00:00	2024-11-08T16:00:00	6	Velocidad del viento	1.6
109050	7	Sololá	701	Sololá	4	Finca Santa Victoria	5	Mayo	2023-05-25T00:00:00	2024-11-08T16:00:00	7	Dirección del viento	1.61
109051	7	Sololá	701	Sololá	4	Finca Santa Victoria	5	Mayo	2023-05-25T00:00:00	2024-11-08T16:00:00	1	Precipitación	0
109052	7	Sololá	701	Sololá	4	Finca Santa Victoria	5	Mayo	2023-05-25T00:00:00	2024-11-08T16:00:00	8	Radiación solar	79
109053	7	Sololá	701	Sololá	4	Finca Santa Victoria	5	Mayo	2023-05-25T00:00:00	2024-11-08T17:00:00	2	Temperatura media	16.1
109054	7	Sololá	701	Sololá	4	Finca Santa Victoria	5	Mayo	2023-05-25T00:00:00	2024-11-08T17:00:00	4	Temperatura máxima	17.3
109055	7	Sololá	701	Sololá	4	Finca Santa Victoria	5	Mayo	2023-05-25T00:00:00	2024-11-08T17:00:00	3	Temperatura mínima	16.1
109056	7	Sololá	701	Sololá	4	Finca Santa Victoria	5	Mayo	2023-05-25T00:00:00	2024-11-08T17:00:00	5	Humedad	90
109057	7	Sololá	701	Sololá	4	Finca Santa Victoria	5	Mayo	2023-05-25T00:00:00	2024-11-08T17:00:00	6	Velocidad del viento	1.6
109058	7	Sololá	701	Sololá	4	Finca Santa Victoria	5	Mayo	2023-05-25T00:00:00	2024-11-08T17:00:00	7	Dirección del viento	1.61
109059	7	Sololá	701	Sololá	4	Finca Santa Victoria	5	Mayo	2023-05-25T00:00:00	2024-11-08T17:00:00	1	Precipitación	0
109060	7	Sololá	701	Sololá	4	Finca Santa Victoria	5	Mayo	2023-05-25T00:00:00	2024-11-08T17:00:00	8	Radiación solar	26
109061	7	Sololá	701	Sololá	4	Finca Santa Victoria	5	Mayo	2023-05-25T00:00:00	2024-11-08T18:00:00	2	Temperatura media	15.7
109062	7	Sololá	701	Sololá	4	Finca Santa Victoria	5	Mayo	2023-05-25T00:00:00	2024-11-08T18:00:00	4	Temperatura máxima	16.1
109063	7	Sololá	701	Sololá	4	Finca Santa Victoria	5	Mayo	2023-05-25T00:00:00	2024-11-08T18:00:00	3	Temperatura mínima	15.7
109064	7	Sololá	701	Sololá	4	Finca Santa Victoria	5	Mayo	2023-05-25T00:00:00	2024-11-08T18:00:00	5	Humedad	96
109065	7	Sololá	701	Sololá	4	Finca Santa Victoria	5	Mayo	2023-05-25T00:00:00	2024-11-08T18:00:00	6	Velocidad del viento	0
109066	7	Sololá	701	Sololá	4	Finca Santa Victoria	5	Mayo	2023-05-25T00:00:00	2024-11-08T18:00:00	7	Dirección del viento	0
109067	7	Sololá	701	Sololá	4	Finca Santa Victoria	5	Mayo	2023-05-25T00:00:00	2024-11-08T18:00:00	1	Precipitación	0.6
109068	7	Sololá	701	Sololá	4	Finca Santa Victoria	5	Mayo	2023-05-25T00:00:00	2024-11-08T18:00:00	8	Radiación solar	1
109069	7	Sololá	701	Sololá	4	Finca Santa Victoria	5	Mayo	2023-05-25T00:00:00	2024-11-08T19:00:00	2	Temperatura media	15.2
109070	7	Sololá	701	Sololá	4	Finca Santa Victoria	5	Mayo	2023-05-25T00:00:00	2024-11-08T19:00:00	4	Temperatura máxima	15.7
109071	7	Sololá	701	Sololá	4	Finca Santa Victoria	5	Mayo	2023-05-25T00:00:00	2024-11-08T19:00:00	3	Temperatura mínima	15.2
109072	7	Sololá	701	Sololá	4	Finca Santa Victoria	5	Mayo	2023-05-25T00:00:00	2024-11-08T19:00:00	5	Humedad	97
109073	7	Sololá	701	Sololá	4	Finca Santa Victoria	5	Mayo	2023-05-25T00:00:00	2024-11-08T19:00:00	6	Velocidad del viento	1.6
109074	7	Sololá	701	Sololá	4	Finca Santa Victoria	5	Mayo	2023-05-25T00:00:00	2024-11-08T19:00:00	7	Dirección del viento	1.61
109075	7	Sololá	701	Sololá	4	Finca Santa Victoria	5	Mayo	2023-05-25T00:00:00	2024-11-08T19:00:00	1	Precipitación	0
109076	7	Sololá	701	Sololá	4	Finca Santa Victoria	5	Mayo	2023-05-25T00:00:00	2024-11-08T19:00:00	8	Radiación solar	0
109077	7	Sololá	701	Sololá	4	Finca Santa Victoria	5	Mayo	2023-05-25T00:00:00	2024-11-08T20:00:00	2	Temperatura media	14.9
109078	7	Sololá	701	Sololá	4	Finca Santa Victoria	5	Mayo	2023-05-25T00:00:00	2024-11-08T20:00:00	4	Temperatura máxima	15.2
109079	7	Sololá	701	Sololá	4	Finca Santa Victoria	5	Mayo	2023-05-25T00:00:00	2024-11-08T20:00:00	3	Temperatura mínima	14.9
109080	7	Sololá	701	Sololá	4	Finca Santa Victoria	5	Mayo	2023-05-25T00:00:00	2024-11-08T20:00:00	5	Humedad	97
109081	7	Sololá	701	Sololá	4	Finca Santa Victoria	5	Mayo	2023-05-25T00:00:00	2024-11-08T20:00:00	6	Velocidad del viento	1.6
109082	7	Sololá	701	Sololá	4	Finca Santa Victoria	5	Mayo	2023-05-25T00:00:00	2024-11-08T20:00:00	7	Dirección del viento	1.61
109083	7	Sololá	701	Sololá	4	Finca Santa Victoria	5	Mayo	2023-05-25T00:00:00	2024-11-08T20:00:00	1	Precipitación	0
109084	7	Sololá	701	Sololá	4	Finca Santa Victoria	5	Mayo	2023-05-25T00:00:00	2024-11-08T20:00:00	8	Radiación solar	0
109085	7	Sololá	701	Sololá	4	Finca Santa Victoria	5	Mayo	2023-05-25T00:00:00	2024-11-08T21:00:00	2	Temperatura media	14.7
109086	7	Sololá	701	Sololá	4	Finca Santa Victoria	5	Mayo	2023-05-25T00:00:00	2024-11-08T21:00:00	4	Temperatura máxima	14.9
109087	7	Sololá	701	Sololá	4	Finca Santa Victoria	5	Mayo	2023-05-25T00:00:00	2024-11-08T21:00:00	3	Temperatura mínima	14.7
109088	7	Sololá	701	Sololá	4	Finca Santa Victoria	5	Mayo	2023-05-25T00:00:00	2024-11-08T21:00:00	5	Humedad	97
109089	7	Sololá	701	Sololá	4	Finca Santa Victoria	5	Mayo	2023-05-25T00:00:00	2024-11-08T21:00:00	6	Velocidad del viento	0
109090	7	Sololá	701	Sololá	4	Finca Santa Victoria	5	Mayo	2023-05-25T00:00:00	2024-11-08T21:00:00	7	Dirección del viento	0
109091	7	Sololá	701	Sololá	4	Finca Santa Victoria	5	Mayo	2023-05-25T00:00:00	2024-11-08T21:00:00	1	Precipitación	0
109092	7	Sololá	701	Sololá	4	Finca Santa Victoria	5	Mayo	2023-05-25T00:00:00	2024-11-08T21:00:00	8	Radiación solar	0
109093	7	Sololá	701	Sololá	4	Finca Santa Victoria	5	Mayo	2023-05-25T00:00:00	2024-11-08T22:00:00	2	Temperatura media	14.2
109094	7	Sololá	701	Sololá	4	Finca Santa Victoria	5	Mayo	2023-05-25T00:00:00	2024-11-08T22:00:00	4	Temperatura máxima	14.7
109095	7	Sololá	701	Sololá	4	Finca Santa Victoria	5	Mayo	2023-05-25T00:00:00	2024-11-08T22:00:00	3	Temperatura mínima	14.2
109096	7	Sololá	701	Sololá	4	Finca Santa Victoria	5	Mayo	2023-05-25T00:00:00	2024-11-08T22:00:00	5	Humedad	97
109097	7	Sololá	701	Sololá	4	Finca Santa Victoria	5	Mayo	2023-05-25T00:00:00	2024-11-08T22:00:00	6	Velocidad del viento	0
109098	7	Sololá	701	Sololá	4	Finca Santa Victoria	5	Mayo	2023-05-25T00:00:00	2024-11-08T22:00:00	7	Dirección del viento	0
109099	7	Sololá	701	Sololá	4	Finca Santa Victoria	5	Mayo	2023-05-25T00:00:00	2024-11-08T22:00:00	1	Precipitación	0
109100	7	Sololá	701	Sololá	4	Finca Santa Victoria	5	Mayo	2023-05-25T00:00:00	2024-11-08T22:00:00	8	Radiación solar	0
109101	7	Sololá	701	Sololá	4	Finca Santa Victoria	5	Mayo	2023-05-25T00:00:00	2024-11-08T23:00:00	2	Temperatura media	12.8
109102	7	Sololá	701	Sololá	4	Finca Santa Victoria	5	Mayo	2023-05-25T00:00:00	2024-11-08T23:00:00	4	Temperatura máxima	14.2
109103	7	Sololá	701	Sololá	4	Finca Santa Victoria	5	Mayo	2023-05-25T00:00:00	2024-11-08T23:00:00	3	Temperatura mínima	12.8
109104	7	Sololá	701	Sololá	4	Finca Santa Victoria	5	Mayo	2023-05-25T00:00:00	2024-11-08T23:00:00	5	Humedad	95
109105	7	Sololá	701	Sololá	4	Finca Santa Victoria	5	Mayo	2023-05-25T00:00:00	2024-11-08T23:00:00	6	Velocidad del viento	0
109106	7	Sololá	701	Sololá	4	Finca Santa Victoria	5	Mayo	2023-05-25T00:00:00	2024-11-08T23:00:00	7	Dirección del viento	0
109107	7	Sololá	701	Sololá	4	Finca Santa Victoria	5	Mayo	2023-05-25T00:00:00	2024-11-08T23:00:00	1	Precipitación	0
109108	7	Sololá	701	Sololá	4	Finca Santa Victoria	5	Mayo	2023-05-25T00:00:00	2024-11-08T23:00:00	8	Radiación solar	0
109109	7	Sololá	701	Sololá	4	Finca Santa Victoria	5	Mayo	2023-05-26T00:00:00	2024-11-08T00:00:00	2	Temperatura media	13.5
109110	7	Sololá	701	Sololá	4	Finca Santa Victoria	5	Mayo	2023-05-26T00:00:00	2024-11-08T00:00:00	4	Temperatura máxima	13.5
109111	7	Sololá	701	Sololá	4	Finca Santa Victoria	5	Mayo	2023-05-26T00:00:00	2024-11-08T00:00:00	3	Temperatura mínima	12.8
109112	7	Sololá	701	Sololá	4	Finca Santa Victoria	5	Mayo	2023-05-26T00:00:00	2024-11-08T00:00:00	5	Humedad	90
109113	7	Sololá	701	Sololá	4	Finca Santa Victoria	5	Mayo	2023-05-26T00:00:00	2024-11-08T00:00:00	6	Velocidad del viento	0
109114	7	Sololá	701	Sololá	4	Finca Santa Victoria	5	Mayo	2023-05-26T00:00:00	2024-11-08T00:00:00	7	Dirección del viento	0
109115	7	Sololá	701	Sololá	4	Finca Santa Victoria	5	Mayo	2023-05-26T00:00:00	2024-11-08T00:00:00	1	Precipitación	0
109116	7	Sololá	701	Sololá	4	Finca Santa Victoria	5	Mayo	2023-05-26T00:00:00	2024-11-08T00:00:00	8	Radiación solar	0
109117	7	Sololá	701	Sololá	4	Finca Santa Victoria	5	Mayo	2023-05-26T00:00:00	2024-11-08T01:00:00	2	Temperatura media	13.1
109118	7	Sololá	701	Sololá	4	Finca Santa Victoria	5	Mayo	2023-05-26T00:00:00	2024-11-08T01:00:00	4	Temperatura máxima	13.6
109119	7	Sololá	701	Sololá	4	Finca Santa Victoria	5	Mayo	2023-05-26T00:00:00	2024-11-08T01:00:00	3	Temperatura mínima	13.1
109120	7	Sololá	701	Sololá	4	Finca Santa Victoria	5	Mayo	2023-05-26T00:00:00	2024-11-08T01:00:00	5	Humedad	92
109121	7	Sololá	701	Sololá	4	Finca Santa Victoria	5	Mayo	2023-05-26T00:00:00	2024-11-08T01:00:00	6	Velocidad del viento	0
109122	7	Sololá	701	Sololá	4	Finca Santa Victoria	5	Mayo	2023-05-26T00:00:00	2024-11-08T01:00:00	7	Dirección del viento	0
109123	7	Sololá	701	Sololá	4	Finca Santa Victoria	5	Mayo	2023-05-26T00:00:00	2024-11-08T01:00:00	1	Precipitación	0
109124	7	Sololá	701	Sololá	4	Finca Santa Victoria	5	Mayo	2023-05-26T00:00:00	2024-11-08T01:00:00	8	Radiación solar	0
109125	7	Sololá	701	Sololá	4	Finca Santa Victoria	5	Mayo	2023-05-26T00:00:00	2024-11-08T02:00:00	2	Temperatura media	12.6
109126	7	Sololá	701	Sololá	4	Finca Santa Victoria	5	Mayo	2023-05-26T00:00:00	2024-11-08T02:00:00	4	Temperatura máxima	13.3
109127	7	Sololá	701	Sololá	4	Finca Santa Victoria	5	Mayo	2023-05-26T00:00:00	2024-11-08T02:00:00	3	Temperatura mínima	12.6
109128	7	Sololá	701	Sololá	4	Finca Santa Victoria	5	Mayo	2023-05-26T00:00:00	2024-11-08T02:00:00	5	Humedad	93
109129	7	Sololá	701	Sololá	4	Finca Santa Victoria	5	Mayo	2023-05-26T00:00:00	2024-11-08T02:00:00	6	Velocidad del viento	1.6
109130	7	Sololá	701	Sololá	4	Finca Santa Victoria	5	Mayo	2023-05-26T00:00:00	2024-11-08T02:00:00	7	Dirección del viento	1.61
109131	7	Sololá	701	Sololá	4	Finca Santa Victoria	5	Mayo	2023-05-26T00:00:00	2024-11-08T02:00:00	1	Precipitación	0
109132	7	Sololá	701	Sololá	4	Finca Santa Victoria	5	Mayo	2023-05-26T00:00:00	2024-11-08T02:00:00	8	Radiación solar	0
109133	7	Sololá	701	Sololá	4	Finca Santa Victoria	5	Mayo	2023-05-26T00:00:00	2024-11-08T03:00:00	2	Temperatura media	12.4
109134	7	Sololá	701	Sololá	4	Finca Santa Victoria	5	Mayo	2023-05-26T00:00:00	2024-11-08T03:00:00	4	Temperatura máxima	12.8
109135	7	Sololá	701	Sololá	4	Finca Santa Victoria	5	Mayo	2023-05-26T00:00:00	2024-11-08T03:00:00	3	Temperatura mínima	12.4
109136	7	Sololá	701	Sololá	4	Finca Santa Victoria	5	Mayo	2023-05-26T00:00:00	2024-11-08T03:00:00	5	Humedad	92
109137	7	Sololá	701	Sololá	4	Finca Santa Victoria	5	Mayo	2023-05-26T00:00:00	2024-11-08T03:00:00	6	Velocidad del viento	0
109138	7	Sololá	701	Sololá	4	Finca Santa Victoria	5	Mayo	2023-05-26T00:00:00	2024-11-08T03:00:00	7	Dirección del viento	0
109139	7	Sololá	701	Sololá	4	Finca Santa Victoria	5	Mayo	2023-05-26T00:00:00	2024-11-08T03:00:00	1	Precipitación	0
109140	7	Sololá	701	Sololá	4	Finca Santa Victoria	5	Mayo	2023-05-26T00:00:00	2024-11-08T03:00:00	8	Radiación solar	0
109141	7	Sololá	701	Sololá	4	Finca Santa Victoria	5	Mayo	2023-05-26T00:00:00	2024-11-08T04:00:00	2	Temperatura media	12.3
109142	7	Sololá	701	Sololá	4	Finca Santa Victoria	5	Mayo	2023-05-26T00:00:00	2024-11-08T04:00:00	4	Temperatura máxima	12.4
109143	7	Sololá	701	Sololá	4	Finca Santa Victoria	5	Mayo	2023-05-26T00:00:00	2024-11-08T04:00:00	3	Temperatura mínima	12.2
109144	7	Sololá	701	Sololá	4	Finca Santa Victoria	5	Mayo	2023-05-26T00:00:00	2024-11-08T04:00:00	5	Humedad	87
109145	7	Sololá	701	Sololá	4	Finca Santa Victoria	5	Mayo	2023-05-26T00:00:00	2024-11-08T04:00:00	6	Velocidad del viento	0
109146	7	Sololá	701	Sololá	4	Finca Santa Victoria	5	Mayo	2023-05-26T00:00:00	2024-11-08T04:00:00	7	Dirección del viento	0
109147	7	Sololá	701	Sololá	4	Finca Santa Victoria	5	Mayo	2023-05-26T00:00:00	2024-11-08T04:00:00	1	Precipitación	0
109148	7	Sololá	701	Sololá	4	Finca Santa Victoria	5	Mayo	2023-05-26T00:00:00	2024-11-08T04:00:00	8	Radiación solar	0
109149	7	Sololá	701	Sololá	4	Finca Santa Victoria	5	Mayo	2023-05-26T00:00:00	2024-11-08T05:00:00	2	Temperatura media	12.3
109150	7	Sololá	701	Sololá	4	Finca Santa Victoria	5	Mayo	2023-05-26T00:00:00	2024-11-08T05:00:00	4	Temperatura máxima	12.5
109151	7	Sololá	701	Sololá	4	Finca Santa Victoria	5	Mayo	2023-05-26T00:00:00	2024-11-08T05:00:00	3	Temperatura mínima	12.3
109152	7	Sololá	701	Sololá	4	Finca Santa Victoria	5	Mayo	2023-05-26T00:00:00	2024-11-08T05:00:00	5	Humedad	87
109153	7	Sololá	701	Sololá	4	Finca Santa Victoria	5	Mayo	2023-05-26T00:00:00	2024-11-08T05:00:00	6	Velocidad del viento	1.6
109154	7	Sololá	701	Sololá	4	Finca Santa Victoria	5	Mayo	2023-05-26T00:00:00	2024-11-08T05:00:00	7	Dirección del viento	1.61
109155	7	Sololá	701	Sololá	4	Finca Santa Victoria	5	Mayo	2023-05-26T00:00:00	2024-11-08T05:00:00	1	Precipitación	0
109156	7	Sololá	701	Sololá	4	Finca Santa Victoria	5	Mayo	2023-05-26T00:00:00	2024-11-08T05:00:00	8	Radiación solar	0
109157	7	Sololá	701	Sololá	4	Finca Santa Victoria	5	Mayo	2023-05-26T00:00:00	2024-11-08T06:00:00	2	Temperatura media	11.5
109158	7	Sololá	701	Sololá	4	Finca Santa Victoria	5	Mayo	2023-05-26T00:00:00	2024-11-08T06:00:00	4	Temperatura máxima	12.3
109159	7	Sololá	701	Sololá	4	Finca Santa Victoria	5	Mayo	2023-05-26T00:00:00	2024-11-08T06:00:00	3	Temperatura mínima	11.4
109160	7	Sololá	701	Sololá	4	Finca Santa Victoria	5	Mayo	2023-05-26T00:00:00	2024-11-08T06:00:00	5	Humedad	92
109161	7	Sololá	701	Sololá	4	Finca Santa Victoria	5	Mayo	2023-05-26T00:00:00	2024-11-08T06:00:00	6	Velocidad del viento	0
109162	7	Sololá	701	Sololá	4	Finca Santa Victoria	5	Mayo	2023-05-26T00:00:00	2024-11-08T06:00:00	7	Dirección del viento	0
109163	7	Sololá	701	Sololá	4	Finca Santa Victoria	5	Mayo	2023-05-26T00:00:00	2024-11-08T06:00:00	1	Precipitación	0
109164	7	Sololá	701	Sololá	4	Finca Santa Victoria	5	Mayo	2023-05-26T00:00:00	2024-11-08T06:00:00	8	Radiación solar	3
109165	7	Sololá	701	Sololá	4	Finca Santa Victoria	5	Mayo	2023-05-26T00:00:00	2024-11-08T07:00:00	2	Temperatura media	13.1
109166	7	Sololá	701	Sololá	4	Finca Santa Victoria	5	Mayo	2023-05-26T00:00:00	2024-11-08T07:00:00	4	Temperatura máxima	13.1
109167	7	Sololá	701	Sololá	4	Finca Santa Victoria	5	Mayo	2023-05-26T00:00:00	2024-11-08T07:00:00	3	Temperatura mínima	11.5
109168	7	Sololá	701	Sololá	4	Finca Santa Victoria	5	Mayo	2023-05-26T00:00:00	2024-11-08T07:00:00	5	Humedad	90
109169	7	Sololá	701	Sololá	4	Finca Santa Victoria	5	Mayo	2023-05-26T00:00:00	2024-11-08T07:00:00	6	Velocidad del viento	0
109170	7	Sololá	701	Sololá	4	Finca Santa Victoria	5	Mayo	2023-05-26T00:00:00	2024-11-08T07:00:00	7	Dirección del viento	0
109171	7	Sololá	701	Sololá	4	Finca Santa Victoria	5	Mayo	2023-05-26T00:00:00	2024-11-08T07:00:00	1	Precipitación	0
109172	7	Sololá	701	Sololá	4	Finca Santa Victoria	5	Mayo	2023-05-26T00:00:00	2024-11-08T07:00:00	8	Radiación solar	60
109173	7	Sololá	701	Sololá	4	Finca Santa Victoria	5	Mayo	2023-05-26T00:00:00	2024-11-08T08:00:00	2	Temperatura media	13.3
109174	7	Sololá	701	Sololá	4	Finca Santa Victoria	5	Mayo	2023-05-26T00:00:00	2024-11-08T08:00:00	4	Temperatura máxima	13.3
109175	7	Sololá	701	Sololá	4	Finca Santa Victoria	5	Mayo	2023-05-26T00:00:00	2024-11-08T08:00:00	3	Temperatura mínima	12.9
109176	7	Sololá	701	Sololá	4	Finca Santa Victoria	5	Mayo	2023-05-26T00:00:00	2024-11-08T08:00:00	5	Humedad	89
109177	7	Sololá	701	Sololá	4	Finca Santa Victoria	5	Mayo	2023-05-26T00:00:00	2024-11-08T08:00:00	6	Velocidad del viento	3.2
109178	7	Sololá	701	Sololá	4	Finca Santa Victoria	5	Mayo	2023-05-26T00:00:00	2024-11-08T08:00:00	7	Dirección del viento	3.22
109179	7	Sololá	701	Sololá	4	Finca Santa Victoria	5	Mayo	2023-05-26T00:00:00	2024-11-08T08:00:00	1	Precipitación	0
109180	7	Sololá	701	Sololá	4	Finca Santa Victoria	5	Mayo	2023-05-26T00:00:00	2024-11-08T08:00:00	8	Radiación solar	143
109181	7	Sololá	701	Sololá	4	Finca Santa Victoria	5	Mayo	2023-05-26T00:00:00	2024-11-08T09:00:00	2	Temperatura media	16.2
109182	7	Sololá	701	Sololá	4	Finca Santa Victoria	5	Mayo	2023-05-26T00:00:00	2024-11-08T09:00:00	4	Temperatura máxima	16.2
109183	7	Sololá	701	Sololá	4	Finca Santa Victoria	5	Mayo	2023-05-26T00:00:00	2024-11-08T09:00:00	3	Temperatura mínima	13.3
109184	7	Sololá	701	Sololá	4	Finca Santa Victoria	5	Mayo	2023-05-26T00:00:00	2024-11-08T09:00:00	5	Humedad	85
109185	7	Sololá	701	Sololá	4	Finca Santa Victoria	5	Mayo	2023-05-26T00:00:00	2024-11-08T09:00:00	6	Velocidad del viento	3.2
109186	7	Sololá	701	Sololá	4	Finca Santa Victoria	5	Mayo	2023-05-26T00:00:00	2024-11-08T09:00:00	7	Dirección del viento	3.22
109187	7	Sololá	701	Sololá	4	Finca Santa Victoria	5	Mayo	2023-05-26T00:00:00	2024-11-08T09:00:00	1	Precipitación	0
109188	7	Sololá	701	Sololá	4	Finca Santa Victoria	5	Mayo	2023-05-26T00:00:00	2024-11-08T09:00:00	8	Radiación solar	309
109189	7	Sololá	701	Sololá	4	Finca Santa Victoria	5	Mayo	2023-05-26T00:00:00	2024-11-08T10:00:00	2	Temperatura media	16.6
109190	7	Sololá	701	Sololá	4	Finca Santa Victoria	5	Mayo	2023-05-26T00:00:00	2024-11-08T10:00:00	4	Temperatura máxima	17.3
109191	7	Sololá	701	Sololá	4	Finca Santa Victoria	5	Mayo	2023-05-26T00:00:00	2024-11-08T10:00:00	3	Temperatura mínima	16.2
109192	7	Sololá	701	Sololá	4	Finca Santa Victoria	5	Mayo	2023-05-26T00:00:00	2024-11-08T10:00:00	5	Humedad	86
109193	7	Sololá	701	Sololá	4	Finca Santa Victoria	5	Mayo	2023-05-26T00:00:00	2024-11-08T10:00:00	6	Velocidad del viento	3.2
109194	7	Sololá	701	Sololá	4	Finca Santa Victoria	5	Mayo	2023-05-26T00:00:00	2024-11-08T10:00:00	7	Dirección del viento	3.22
109195	7	Sololá	701	Sololá	4	Finca Santa Victoria	5	Mayo	2023-05-26T00:00:00	2024-11-08T10:00:00	1	Precipitación	0
109196	7	Sololá	701	Sololá	4	Finca Santa Victoria	5	Mayo	2023-05-26T00:00:00	2024-11-08T10:00:00	8	Radiación solar	323
109197	7	Sololá	701	Sololá	4	Finca Santa Victoria	5	Mayo	2023-05-26T00:00:00	2024-11-08T11:00:00	2	Temperatura media	17.6
109198	7	Sololá	701	Sololá	4	Finca Santa Victoria	5	Mayo	2023-05-26T00:00:00	2024-11-08T11:00:00	4	Temperatura máxima	17.6
109199	7	Sololá	701	Sololá	4	Finca Santa Victoria	5	Mayo	2023-05-26T00:00:00	2024-11-08T11:00:00	3	Temperatura mínima	16.3
109200	7	Sololá	701	Sololá	4	Finca Santa Victoria	5	Mayo	2023-05-26T00:00:00	2024-11-08T11:00:00	5	Humedad	84
109201	7	Sololá	701	Sololá	4	Finca Santa Victoria	5	Mayo	2023-05-26T00:00:00	2024-11-08T11:00:00	6	Velocidad del viento	3.2
109202	7	Sololá	701	Sololá	4	Finca Santa Victoria	5	Mayo	2023-05-26T00:00:00	2024-11-08T11:00:00	7	Dirección del viento	3.22
109203	7	Sololá	701	Sololá	4	Finca Santa Victoria	5	Mayo	2023-05-26T00:00:00	2024-11-08T11:00:00	1	Precipitación	0
109204	7	Sololá	701	Sololá	4	Finca Santa Victoria	5	Mayo	2023-05-26T00:00:00	2024-11-08T11:00:00	8	Radiación solar	385
109205	7	Sololá	701	Sololá	4	Finca Santa Victoria	5	Mayo	2023-05-26T00:00:00	2024-11-08T12:00:00	2	Temperatura media	18.6
109206	7	Sololá	701	Sololá	4	Finca Santa Victoria	5	Mayo	2023-05-26T00:00:00	2024-11-08T12:00:00	4	Temperatura máxima	18.8
109207	7	Sololá	701	Sololá	4	Finca Santa Victoria	5	Mayo	2023-05-26T00:00:00	2024-11-08T12:00:00	3	Temperatura mínima	17.5
109208	7	Sololá	701	Sololá	4	Finca Santa Victoria	5	Mayo	2023-05-26T00:00:00	2024-11-08T12:00:00	5	Humedad	79
109209	7	Sololá	701	Sololá	4	Finca Santa Victoria	5	Mayo	2023-05-26T00:00:00	2024-11-08T12:00:00	6	Velocidad del viento	3.2
109210	7	Sololá	701	Sololá	4	Finca Santa Victoria	5	Mayo	2023-05-26T00:00:00	2024-11-08T12:00:00	7	Dirección del viento	3.22
109211	7	Sololá	701	Sololá	4	Finca Santa Victoria	5	Mayo	2023-05-26T00:00:00	2024-11-08T12:00:00	1	Precipitación	0
109212	7	Sololá	701	Sololá	4	Finca Santa Victoria	5	Mayo	2023-05-26T00:00:00	2024-11-08T12:00:00	8	Radiación solar	601
109213	7	Sololá	701	Sololá	4	Finca Santa Victoria	5	Mayo	2023-05-26T00:00:00	2024-11-08T13:00:00	2	Temperatura media	19.5
109214	7	Sololá	701	Sololá	4	Finca Santa Victoria	5	Mayo	2023-05-26T00:00:00	2024-11-08T13:00:00	4	Temperatura máxima	19.5
109215	7	Sololá	701	Sololá	4	Finca Santa Victoria	5	Mayo	2023-05-26T00:00:00	2024-11-08T13:00:00	3	Temperatura mínima	18.5
109216	7	Sololá	701	Sololá	4	Finca Santa Victoria	5	Mayo	2023-05-26T00:00:00	2024-11-08T13:00:00	5	Humedad	81
109217	7	Sololá	701	Sololá	4	Finca Santa Victoria	5	Mayo	2023-05-26T00:00:00	2024-11-08T13:00:00	6	Velocidad del viento	4.8
109218	7	Sololá	701	Sololá	4	Finca Santa Victoria	5	Mayo	2023-05-26T00:00:00	2024-11-08T13:00:00	7	Dirección del viento	4.83
109219	7	Sololá	701	Sololá	4	Finca Santa Victoria	5	Mayo	2023-05-26T00:00:00	2024-11-08T13:00:00	1	Precipitación	0
109220	7	Sololá	701	Sololá	4	Finca Santa Victoria	5	Mayo	2023-05-26T00:00:00	2024-11-08T13:00:00	8	Radiación solar	759
109221	7	Sololá	701	Sololá	4	Finca Santa Victoria	5	Mayo	2023-05-26T00:00:00	2024-11-08T14:00:00	2	Temperatura media	19
109222	7	Sololá	701	Sololá	4	Finca Santa Victoria	5	Mayo	2023-05-26T00:00:00	2024-11-08T14:00:00	4	Temperatura máxima	19.7
109223	7	Sololá	701	Sololá	4	Finca Santa Victoria	5	Mayo	2023-05-26T00:00:00	2024-11-08T14:00:00	3	Temperatura mínima	18.9
109224	7	Sololá	701	Sololá	4	Finca Santa Victoria	5	Mayo	2023-05-26T00:00:00	2024-11-08T14:00:00	5	Humedad	80
109225	7	Sololá	701	Sololá	4	Finca Santa Victoria	5	Mayo	2023-05-26T00:00:00	2024-11-08T14:00:00	6	Velocidad del viento	4.8
109226	7	Sololá	701	Sololá	4	Finca Santa Victoria	5	Mayo	2023-05-26T00:00:00	2024-11-08T14:00:00	7	Dirección del viento	4.83
109227	7	Sololá	701	Sololá	4	Finca Santa Victoria	5	Mayo	2023-05-26T00:00:00	2024-11-08T14:00:00	1	Precipitación	0
109228	7	Sololá	701	Sololá	4	Finca Santa Victoria	5	Mayo	2023-05-26T00:00:00	2024-11-08T14:00:00	8	Radiación solar	707
109229	7	Sololá	701	Sololá	4	Finca Santa Victoria	5	Mayo	2023-05-26T00:00:00	2024-11-08T15:00:00	2	Temperatura media	19.2
109230	7	Sololá	701	Sololá	4	Finca Santa Victoria	5	Mayo	2023-05-26T00:00:00	2024-11-08T15:00:00	4	Temperatura máxima	19.3
109231	7	Sololá	701	Sololá	4	Finca Santa Victoria	5	Mayo	2023-05-26T00:00:00	2024-11-08T15:00:00	3	Temperatura mínima	18.2
109232	7	Sololá	701	Sololá	4	Finca Santa Victoria	5	Mayo	2023-05-26T00:00:00	2024-11-08T15:00:00	5	Humedad	80
109233	7	Sololá	701	Sololá	4	Finca Santa Victoria	5	Mayo	2023-05-26T00:00:00	2024-11-08T15:00:00	6	Velocidad del viento	4.8
109234	7	Sololá	701	Sololá	4	Finca Santa Victoria	5	Mayo	2023-05-26T00:00:00	2024-11-08T15:00:00	7	Dirección del viento	4.83
109235	7	Sololá	701	Sololá	4	Finca Santa Victoria	5	Mayo	2023-05-26T00:00:00	2024-11-08T15:00:00	1	Precipitación	0
109236	7	Sololá	701	Sololá	4	Finca Santa Victoria	5	Mayo	2023-05-26T00:00:00	2024-11-08T15:00:00	8	Radiación solar	336
109237	7	Sololá	701	Sololá	4	Finca Santa Victoria	5	Mayo	2023-05-26T00:00:00	2024-11-08T16:00:00	2	Temperatura media	18.6
109238	7	Sololá	701	Sololá	4	Finca Santa Victoria	5	Mayo	2023-05-26T00:00:00	2024-11-08T16:00:00	4	Temperatura máxima	19.6
109239	7	Sololá	701	Sololá	4	Finca Santa Victoria	5	Mayo	2023-05-26T00:00:00	2024-11-08T16:00:00	3	Temperatura mínima	18.6
109240	7	Sololá	701	Sololá	4	Finca Santa Victoria	5	Mayo	2023-05-26T00:00:00	2024-11-08T16:00:00	5	Humedad	80
109241	7	Sololá	701	Sololá	4	Finca Santa Victoria	5	Mayo	2023-05-26T00:00:00	2024-11-08T16:00:00	6	Velocidad del viento	4.8
109242	7	Sololá	701	Sololá	4	Finca Santa Victoria	5	Mayo	2023-05-26T00:00:00	2024-11-08T16:00:00	7	Dirección del viento	4.83
109243	7	Sololá	701	Sololá	4	Finca Santa Victoria	5	Mayo	2023-05-26T00:00:00	2024-11-08T16:00:00	1	Precipitación	0
109244	7	Sololá	701	Sololá	4	Finca Santa Victoria	5	Mayo	2023-05-26T00:00:00	2024-11-08T16:00:00	8	Radiación solar	240
109245	7	Sololá	701	Sololá	4	Finca Santa Victoria	5	Mayo	2023-05-26T00:00:00	2024-11-08T17:00:00	2	Temperatura media	16.3
109246	7	Sololá	701	Sololá	4	Finca Santa Victoria	5	Mayo	2023-05-26T00:00:00	2024-11-08T17:00:00	4	Temperatura máxima	18.6
109247	7	Sololá	701	Sololá	4	Finca Santa Victoria	5	Mayo	2023-05-26T00:00:00	2024-11-08T17:00:00	3	Temperatura mínima	16.2
109248	7	Sololá	701	Sololá	4	Finca Santa Victoria	5	Mayo	2023-05-26T00:00:00	2024-11-08T17:00:00	5	Humedad	92
109249	7	Sololá	701	Sololá	4	Finca Santa Victoria	5	Mayo	2023-05-26T00:00:00	2024-11-08T17:00:00	6	Velocidad del viento	3.2
109250	7	Sololá	701	Sololá	4	Finca Santa Victoria	5	Mayo	2023-05-26T00:00:00	2024-11-08T17:00:00	7	Dirección del viento	3.22
109251	7	Sololá	701	Sololá	4	Finca Santa Victoria	5	Mayo	2023-05-26T00:00:00	2024-11-08T17:00:00	1	Precipitación	0
109252	7	Sololá	701	Sololá	4	Finca Santa Victoria	5	Mayo	2023-05-26T00:00:00	2024-11-08T17:00:00	8	Radiación solar	61
109253	7	Sololá	701	Sololá	4	Finca Santa Victoria	5	Mayo	2023-05-26T00:00:00	2024-11-08T18:00:00	2	Temperatura media	16.1
109254	7	Sololá	701	Sololá	4	Finca Santa Victoria	5	Mayo	2023-05-26T00:00:00	2024-11-08T18:00:00	4	Temperatura máxima	16.4
109255	7	Sololá	701	Sololá	4	Finca Santa Victoria	5	Mayo	2023-05-26T00:00:00	2024-11-08T18:00:00	3	Temperatura mínima	15.9
109256	7	Sololá	701	Sololá	4	Finca Santa Victoria	5	Mayo	2023-05-26T00:00:00	2024-11-08T18:00:00	5	Humedad	94
109257	7	Sololá	701	Sololá	4	Finca Santa Victoria	5	Mayo	2023-05-26T00:00:00	2024-11-08T18:00:00	6	Velocidad del viento	1.6
109258	7	Sololá	701	Sololá	4	Finca Santa Victoria	5	Mayo	2023-05-26T00:00:00	2024-11-08T18:00:00	7	Dirección del viento	1.61
109259	7	Sololá	701	Sololá	4	Finca Santa Victoria	5	Mayo	2023-05-26T00:00:00	2024-11-08T18:00:00	1	Precipitación	0
109260	7	Sololá	701	Sololá	4	Finca Santa Victoria	5	Mayo	2023-05-26T00:00:00	2024-11-08T18:00:00	8	Radiación solar	17
109261	7	Sololá	701	Sololá	4	Finca Santa Victoria	5	Mayo	2023-05-26T00:00:00	2024-11-08T19:00:00	2	Temperatura media	15.6
109262	7	Sololá	701	Sololá	4	Finca Santa Victoria	5	Mayo	2023-05-26T00:00:00	2024-11-08T19:00:00	4	Temperatura máxima	16.1
109263	7	Sololá	701	Sololá	4	Finca Santa Victoria	5	Mayo	2023-05-26T00:00:00	2024-11-08T19:00:00	3	Temperatura mínima	15.6
109264	7	Sololá	701	Sololá	4	Finca Santa Victoria	5	Mayo	2023-05-26T00:00:00	2024-11-08T19:00:00	5	Humedad	95
109265	7	Sololá	701	Sololá	4	Finca Santa Victoria	5	Mayo	2023-05-26T00:00:00	2024-11-08T19:00:00	6	Velocidad del viento	0
109266	7	Sololá	701	Sololá	4	Finca Santa Victoria	5	Mayo	2023-05-26T00:00:00	2024-11-08T19:00:00	7	Dirección del viento	0
109267	7	Sololá	701	Sololá	4	Finca Santa Victoria	5	Mayo	2023-05-26T00:00:00	2024-11-08T19:00:00	1	Precipitación	0
109268	7	Sololá	701	Sololá	4	Finca Santa Victoria	5	Mayo	2023-05-26T00:00:00	2024-11-08T19:00:00	8	Radiación solar	0
109269	7	Sololá	701	Sololá	4	Finca Santa Victoria	5	Mayo	2023-05-26T00:00:00	2024-11-08T20:00:00	2	Temperatura media	15.3
109270	7	Sololá	701	Sololá	4	Finca Santa Victoria	5	Mayo	2023-05-26T00:00:00	2024-11-08T20:00:00	4	Temperatura máxima	15.6
109271	7	Sololá	701	Sololá	4	Finca Santa Victoria	5	Mayo	2023-05-26T00:00:00	2024-11-08T20:00:00	3	Temperatura mínima	15.3
109272	7	Sololá	701	Sololá	4	Finca Santa Victoria	5	Mayo	2023-05-26T00:00:00	2024-11-08T20:00:00	5	Humedad	96
109273	7	Sololá	701	Sololá	4	Finca Santa Victoria	5	Mayo	2023-05-26T00:00:00	2024-11-08T20:00:00	6	Velocidad del viento	0
109274	7	Sololá	701	Sololá	4	Finca Santa Victoria	5	Mayo	2023-05-26T00:00:00	2024-11-08T20:00:00	7	Dirección del viento	0
109275	7	Sololá	701	Sololá	4	Finca Santa Victoria	5	Mayo	2023-05-26T00:00:00	2024-11-08T20:00:00	1	Precipitación	0
109276	7	Sololá	701	Sololá	4	Finca Santa Victoria	5	Mayo	2023-05-26T00:00:00	2024-11-08T20:00:00	8	Radiación solar	0
109277	7	Sololá	701	Sololá	4	Finca Santa Victoria	5	Mayo	2023-05-26T00:00:00	2024-11-08T21:00:00	2	Temperatura media	15
109278	7	Sololá	701	Sololá	4	Finca Santa Victoria	5	Mayo	2023-05-26T00:00:00	2024-11-08T21:00:00	4	Temperatura máxima	15.3
109279	7	Sololá	701	Sololá	4	Finca Santa Victoria	5	Mayo	2023-05-26T00:00:00	2024-11-08T21:00:00	3	Temperatura mínima	14.7
109280	7	Sololá	701	Sololá	4	Finca Santa Victoria	5	Mayo	2023-05-26T00:00:00	2024-11-08T21:00:00	5	Humedad	95
109281	7	Sololá	701	Sololá	4	Finca Santa Victoria	5	Mayo	2023-05-26T00:00:00	2024-11-08T21:00:00	6	Velocidad del viento	0
109282	7	Sololá	701	Sololá	4	Finca Santa Victoria	5	Mayo	2023-05-26T00:00:00	2024-11-08T21:00:00	7	Dirección del viento	0
109283	7	Sololá	701	Sololá	4	Finca Santa Victoria	5	Mayo	2023-05-26T00:00:00	2024-11-08T21:00:00	1	Precipitación	0
109284	7	Sololá	701	Sololá	4	Finca Santa Victoria	5	Mayo	2023-05-26T00:00:00	2024-11-08T21:00:00	8	Radiación solar	0
109285	7	Sololá	701	Sololá	4	Finca Santa Victoria	5	Mayo	2023-05-26T00:00:00	2024-11-08T22:00:00	2	Temperatura media	14.8
109286	7	Sololá	701	Sololá	4	Finca Santa Victoria	5	Mayo	2023-05-26T00:00:00	2024-11-08T22:00:00	4	Temperatura máxima	15.1
109287	7	Sololá	701	Sololá	4	Finca Santa Victoria	5	Mayo	2023-05-26T00:00:00	2024-11-08T22:00:00	3	Temperatura mínima	14.7
109288	7	Sololá	701	Sololá	4	Finca Santa Victoria	5	Mayo	2023-05-26T00:00:00	2024-11-08T22:00:00	5	Humedad	88
109289	7	Sololá	701	Sololá	4	Finca Santa Victoria	5	Mayo	2023-05-26T00:00:00	2024-11-08T22:00:00	6	Velocidad del viento	0
109290	7	Sololá	701	Sololá	4	Finca Santa Victoria	5	Mayo	2023-05-26T00:00:00	2024-11-08T22:00:00	7	Dirección del viento	0
109291	7	Sololá	701	Sololá	4	Finca Santa Victoria	5	Mayo	2023-05-26T00:00:00	2024-11-08T22:00:00	1	Precipitación	0
109292	7	Sololá	701	Sololá	4	Finca Santa Victoria	5	Mayo	2023-05-26T00:00:00	2024-11-08T22:00:00	8	Radiación solar	0
109293	7	Sololá	701	Sololá	4	Finca Santa Victoria	5	Mayo	2023-05-26T00:00:00	2024-11-08T23:00:00	2	Temperatura media	13.9
109294	7	Sololá	701	Sololá	4	Finca Santa Victoria	5	Mayo	2023-05-26T00:00:00	2024-11-08T23:00:00	4	Temperatura máxima	14.8
109295	7	Sololá	701	Sololá	4	Finca Santa Victoria	5	Mayo	2023-05-26T00:00:00	2024-11-08T23:00:00	3	Temperatura mínima	13.9
109296	7	Sololá	701	Sololá	4	Finca Santa Victoria	5	Mayo	2023-05-26T00:00:00	2024-11-08T23:00:00	5	Humedad	94
109297	7	Sololá	701	Sololá	4	Finca Santa Victoria	5	Mayo	2023-05-26T00:00:00	2024-11-08T23:00:00	6	Velocidad del viento	1.6
109298	7	Sololá	701	Sololá	4	Finca Santa Victoria	5	Mayo	2023-05-26T00:00:00	2024-11-08T23:00:00	7	Dirección del viento	1.61
109299	7	Sololá	701	Sololá	4	Finca Santa Victoria	5	Mayo	2023-05-26T00:00:00	2024-11-08T23:00:00	1	Precipitación	0
109300	7	Sololá	701	Sololá	4	Finca Santa Victoria	5	Mayo	2023-05-26T00:00:00	2024-11-08T23:00:00	8	Radiación solar	0
109301	7	Sololá	701	Sololá	4	Finca Santa Victoria	5	Mayo	2023-05-27T00:00:00	2024-11-08T00:00:00	2	Temperatura media	13.2
109302	7	Sololá	701	Sololá	4	Finca Santa Victoria	5	Mayo	2023-05-27T00:00:00	2024-11-08T00:00:00	4	Temperatura máxima	13.9
109303	7	Sololá	701	Sololá	4	Finca Santa Victoria	5	Mayo	2023-05-27T00:00:00	2024-11-08T00:00:00	3	Temperatura mínima	13.2
109304	7	Sololá	701	Sololá	4	Finca Santa Victoria	5	Mayo	2023-05-27T00:00:00	2024-11-08T00:00:00	5	Humedad	94
109305	7	Sololá	701	Sololá	4	Finca Santa Victoria	5	Mayo	2023-05-27T00:00:00	2024-11-08T00:00:00	6	Velocidad del viento	1.6
109306	7	Sololá	701	Sololá	4	Finca Santa Victoria	5	Mayo	2023-05-27T00:00:00	2024-11-08T00:00:00	7	Dirección del viento	1.61
109307	7	Sololá	701	Sololá	4	Finca Santa Victoria	5	Mayo	2023-05-27T00:00:00	2024-11-08T00:00:00	1	Precipitación	0
109308	7	Sololá	701	Sololá	4	Finca Santa Victoria	5	Mayo	2023-05-27T00:00:00	2024-11-08T00:00:00	8	Radiación solar	0
109309	7	Sololá	701	Sololá	4	Finca Santa Victoria	5	Mayo	2023-05-27T00:00:00	2024-11-08T01:00:00	2	Temperatura media	12.4
109310	7	Sololá	701	Sololá	4	Finca Santa Victoria	5	Mayo	2023-05-27T00:00:00	2024-11-08T01:00:00	4	Temperatura máxima	13.2
109311	7	Sololá	701	Sololá	4	Finca Santa Victoria	5	Mayo	2023-05-27T00:00:00	2024-11-08T01:00:00	3	Temperatura mínima	12.4
109312	7	Sololá	701	Sololá	4	Finca Santa Victoria	5	Mayo	2023-05-27T00:00:00	2024-11-08T01:00:00	5	Humedad	95
109313	7	Sololá	701	Sololá	4	Finca Santa Victoria	5	Mayo	2023-05-27T00:00:00	2024-11-08T01:00:00	6	Velocidad del viento	0
109314	7	Sololá	701	Sololá	4	Finca Santa Victoria	5	Mayo	2023-05-27T00:00:00	2024-11-08T01:00:00	7	Dirección del viento	0
109315	7	Sololá	701	Sololá	4	Finca Santa Victoria	5	Mayo	2023-05-27T00:00:00	2024-11-08T01:00:00	1	Precipitación	0
109316	7	Sololá	701	Sololá	4	Finca Santa Victoria	5	Mayo	2023-05-27T00:00:00	2024-11-08T01:00:00	8	Radiación solar	0
109317	7	Sololá	701	Sololá	4	Finca Santa Victoria	5	Mayo	2023-05-27T00:00:00	2024-11-08T02:00:00	2	Temperatura media	11.9
109318	7	Sololá	701	Sololá	4	Finca Santa Victoria	5	Mayo	2023-05-27T00:00:00	2024-11-08T02:00:00	4	Temperatura máxima	12.4
109319	7	Sololá	701	Sololá	4	Finca Santa Victoria	5	Mayo	2023-05-27T00:00:00	2024-11-08T02:00:00	3	Temperatura mínima	11.9
109320	7	Sololá	701	Sololá	4	Finca Santa Victoria	5	Mayo	2023-05-27T00:00:00	2024-11-08T02:00:00	5	Humedad	92
109321	7	Sololá	701	Sololá	4	Finca Santa Victoria	5	Mayo	2023-05-27T00:00:00	2024-11-08T02:00:00	6	Velocidad del viento	1.6
109322	7	Sololá	701	Sololá	4	Finca Santa Victoria	5	Mayo	2023-05-27T00:00:00	2024-11-08T02:00:00	7	Dirección del viento	1.61
109323	7	Sololá	701	Sololá	4	Finca Santa Victoria	5	Mayo	2023-05-27T00:00:00	2024-11-08T02:00:00	1	Precipitación	0
109324	7	Sololá	701	Sololá	4	Finca Santa Victoria	5	Mayo	2023-05-27T00:00:00	2024-11-08T02:00:00	8	Radiación solar	0
109325	7	Sololá	701	Sololá	4	Finca Santa Victoria	5	Mayo	2023-05-27T00:00:00	2024-11-08T03:00:00	2	Temperatura media	11.6
109326	7	Sololá	701	Sololá	4	Finca Santa Victoria	5	Mayo	2023-05-27T00:00:00	2024-11-08T03:00:00	4	Temperatura máxima	11.9
109327	7	Sololá	701	Sololá	4	Finca Santa Victoria	5	Mayo	2023-05-27T00:00:00	2024-11-08T03:00:00	3	Temperatura mínima	11.3
109328	7	Sololá	701	Sololá	4	Finca Santa Victoria	5	Mayo	2023-05-27T00:00:00	2024-11-08T03:00:00	5	Humedad	88
109329	7	Sololá	701	Sololá	4	Finca Santa Victoria	5	Mayo	2023-05-27T00:00:00	2024-11-08T03:00:00	6	Velocidad del viento	0
109330	7	Sololá	701	Sololá	4	Finca Santa Victoria	5	Mayo	2023-05-27T00:00:00	2024-11-08T03:00:00	7	Dirección del viento	0
109331	7	Sololá	701	Sololá	4	Finca Santa Victoria	5	Mayo	2023-05-27T00:00:00	2024-11-08T03:00:00	1	Precipitación	0
109332	7	Sololá	701	Sololá	4	Finca Santa Victoria	5	Mayo	2023-05-27T00:00:00	2024-11-08T03:00:00	8	Radiación solar	0
109333	7	Sololá	701	Sololá	4	Finca Santa Victoria	5	Mayo	2023-05-27T00:00:00	2024-11-08T04:00:00	2	Temperatura media	11.7
109334	7	Sololá	701	Sololá	4	Finca Santa Victoria	5	Mayo	2023-05-27T00:00:00	2024-11-08T04:00:00	4	Temperatura máxima	12.1
109335	7	Sololá	701	Sololá	4	Finca Santa Victoria	5	Mayo	2023-05-27T00:00:00	2024-11-08T04:00:00	3	Temperatura mínima	11.5
109336	7	Sololá	701	Sololá	4	Finca Santa Victoria	5	Mayo	2023-05-27T00:00:00	2024-11-08T04:00:00	5	Humedad	86
109337	7	Sololá	701	Sololá	4	Finca Santa Victoria	5	Mayo	2023-05-27T00:00:00	2024-11-08T04:00:00	6	Velocidad del viento	1.6
109338	7	Sololá	701	Sololá	4	Finca Santa Victoria	5	Mayo	2023-05-27T00:00:00	2024-11-08T04:00:00	7	Dirección del viento	1.61
109339	7	Sololá	701	Sololá	4	Finca Santa Victoria	5	Mayo	2023-05-27T00:00:00	2024-11-08T04:00:00	1	Precipitación	0
109340	7	Sololá	701	Sololá	4	Finca Santa Victoria	5	Mayo	2023-05-27T00:00:00	2024-11-08T04:00:00	8	Radiación solar	0
109341	7	Sololá	701	Sololá	4	Finca Santa Victoria	5	Mayo	2023-05-27T00:00:00	2024-11-08T05:00:00	2	Temperatura media	11.6
109342	7	Sololá	701	Sololá	4	Finca Santa Victoria	5	Mayo	2023-05-27T00:00:00	2024-11-08T05:00:00	4	Temperatura máxima	11.8
109343	7	Sololá	701	Sololá	4	Finca Santa Victoria	5	Mayo	2023-05-27T00:00:00	2024-11-08T05:00:00	3	Temperatura mínima	11.5
109344	7	Sololá	701	Sololá	4	Finca Santa Victoria	5	Mayo	2023-05-27T00:00:00	2024-11-08T05:00:00	5	Humedad	89
109345	7	Sololá	701	Sololá	4	Finca Santa Victoria	5	Mayo	2023-05-27T00:00:00	2024-11-08T05:00:00	6	Velocidad del viento	3.2
109346	7	Sololá	701	Sololá	4	Finca Santa Victoria	5	Mayo	2023-05-27T00:00:00	2024-11-08T05:00:00	7	Dirección del viento	3.22
109347	7	Sololá	701	Sololá	4	Finca Santa Victoria	5	Mayo	2023-05-27T00:00:00	2024-11-08T05:00:00	1	Precipitación	0
109348	7	Sololá	701	Sololá	4	Finca Santa Victoria	5	Mayo	2023-05-27T00:00:00	2024-11-08T05:00:00	8	Radiación solar	0
109349	7	Sololá	701	Sololá	4	Finca Santa Victoria	5	Mayo	2023-05-27T00:00:00	2024-11-08T06:00:00	2	Temperatura media	11.7
109350	7	Sololá	701	Sololá	4	Finca Santa Victoria	5	Mayo	2023-05-27T00:00:00	2024-11-08T06:00:00	4	Temperatura máxima	11.7
109351	7	Sololá	701	Sololá	4	Finca Santa Victoria	5	Mayo	2023-05-27T00:00:00	2024-11-08T06:00:00	3	Temperatura mínima	11.6
109352	7	Sololá	701	Sololá	4	Finca Santa Victoria	5	Mayo	2023-05-27T00:00:00	2024-11-08T06:00:00	5	Humedad	88
109353	7	Sololá	701	Sololá	4	Finca Santa Victoria	5	Mayo	2023-05-27T00:00:00	2024-11-08T06:00:00	6	Velocidad del viento	0
109354	7	Sololá	701	Sololá	4	Finca Santa Victoria	5	Mayo	2023-05-27T00:00:00	2024-11-08T06:00:00	7	Dirección del viento	0
109355	7	Sololá	701	Sololá	4	Finca Santa Victoria	5	Mayo	2023-05-27T00:00:00	2024-11-08T06:00:00	1	Precipitación	0
109356	7	Sololá	701	Sololá	4	Finca Santa Victoria	5	Mayo	2023-05-27T00:00:00	2024-11-08T06:00:00	8	Radiación solar	4
109357	7	Sololá	701	Sololá	4	Finca Santa Victoria	5	Mayo	2023-05-27T00:00:00	2024-11-08T07:00:00	2	Temperatura media	12.2
109358	7	Sololá	701	Sololá	4	Finca Santa Victoria	5	Mayo	2023-05-27T00:00:00	2024-11-08T07:00:00	4	Temperatura máxima	12.2
109359	7	Sololá	701	Sololá	4	Finca Santa Victoria	5	Mayo	2023-05-27T00:00:00	2024-11-08T07:00:00	3	Temperatura mínima	11.4
109360	7	Sololá	701	Sololá	4	Finca Santa Victoria	5	Mayo	2023-05-27T00:00:00	2024-11-08T07:00:00	5	Humedad	88
109361	7	Sololá	701	Sololá	4	Finca Santa Victoria	5	Mayo	2023-05-27T00:00:00	2024-11-08T07:00:00	6	Velocidad del viento	1.6
109362	7	Sololá	701	Sololá	4	Finca Santa Victoria	5	Mayo	2023-05-27T00:00:00	2024-11-08T07:00:00	7	Dirección del viento	1.61
109363	7	Sololá	701	Sololá	4	Finca Santa Victoria	5	Mayo	2023-05-27T00:00:00	2024-11-08T07:00:00	1	Precipitación	0
109364	7	Sololá	701	Sololá	4	Finca Santa Victoria	5	Mayo	2023-05-27T00:00:00	2024-11-08T07:00:00	8	Radiación solar	55
109365	7	Sololá	701	Sololá	4	Finca Santa Victoria	5	Mayo	2023-05-27T00:00:00	2024-11-08T08:00:00	2	Temperatura media	14.4
109366	7	Sololá	701	Sololá	4	Finca Santa Victoria	5	Mayo	2023-05-27T00:00:00	2024-11-08T08:00:00	4	Temperatura máxima	14.4
109367	7	Sololá	701	Sololá	4	Finca Santa Victoria	5	Mayo	2023-05-27T00:00:00	2024-11-08T08:00:00	3	Temperatura mínima	12.1
109368	7	Sololá	701	Sololá	4	Finca Santa Victoria	5	Mayo	2023-05-27T00:00:00	2024-11-08T08:00:00	5	Humedad	84
109369	7	Sololá	701	Sololá	4	Finca Santa Victoria	5	Mayo	2023-05-27T00:00:00	2024-11-08T08:00:00	6	Velocidad del viento	0
109370	7	Sololá	701	Sololá	4	Finca Santa Victoria	5	Mayo	2023-05-27T00:00:00	2024-11-08T08:00:00	7	Dirección del viento	0
109371	7	Sololá	701	Sololá	4	Finca Santa Victoria	5	Mayo	2023-05-27T00:00:00	2024-11-08T08:00:00	1	Precipitación	0
109372	7	Sololá	701	Sololá	4	Finca Santa Victoria	5	Mayo	2023-05-27T00:00:00	2024-11-08T08:00:00	8	Radiación solar	189
109373	7	Sololá	701	Sololá	4	Finca Santa Victoria	5	Mayo	2023-05-27T00:00:00	2024-11-08T09:00:00	2	Temperatura media	16.2
109374	7	Sololá	701	Sololá	4	Finca Santa Victoria	5	Mayo	2023-05-27T00:00:00	2024-11-08T09:00:00	4	Temperatura máxima	16.2
109375	7	Sololá	701	Sololá	4	Finca Santa Victoria	5	Mayo	2023-05-27T00:00:00	2024-11-08T09:00:00	3	Temperatura mínima	14.4
109376	7	Sololá	701	Sololá	4	Finca Santa Victoria	5	Mayo	2023-05-27T00:00:00	2024-11-08T09:00:00	5	Humedad	69
109377	7	Sololá	701	Sololá	4	Finca Santa Victoria	5	Mayo	2023-05-27T00:00:00	2024-11-08T09:00:00	6	Velocidad del viento	1.6
109378	7	Sololá	701	Sololá	4	Finca Santa Victoria	5	Mayo	2023-05-27T00:00:00	2024-11-08T09:00:00	7	Dirección del viento	1.61
109379	7	Sololá	701	Sololá	4	Finca Santa Victoria	5	Mayo	2023-05-27T00:00:00	2024-11-08T09:00:00	1	Precipitación	0
109380	7	Sololá	701	Sololá	4	Finca Santa Victoria	5	Mayo	2023-05-27T00:00:00	2024-11-08T09:00:00	8	Radiación solar	220
109381	7	Sololá	701	Sololá	4	Finca Santa Victoria	5	Mayo	2023-05-27T00:00:00	2024-11-08T10:00:00	2	Temperatura media	16.7
109382	7	Sololá	701	Sololá	4	Finca Santa Victoria	5	Mayo	2023-05-27T00:00:00	2024-11-08T10:00:00	4	Temperatura máxima	17.1
109383	7	Sololá	701	Sololá	4	Finca Santa Victoria	5	Mayo	2023-05-27T00:00:00	2024-11-08T10:00:00	3	Temperatura mínima	16.1
109384	7	Sololá	701	Sololá	4	Finca Santa Victoria	5	Mayo	2023-05-27T00:00:00	2024-11-08T10:00:00	5	Humedad	71
109385	7	Sololá	701	Sololá	4	Finca Santa Victoria	5	Mayo	2023-05-27T00:00:00	2024-11-08T10:00:00	6	Velocidad del viento	1.6
109386	7	Sololá	701	Sololá	4	Finca Santa Victoria	5	Mayo	2023-05-27T00:00:00	2024-11-08T10:00:00	7	Dirección del viento	1.61
109387	7	Sololá	701	Sololá	4	Finca Santa Victoria	5	Mayo	2023-05-27T00:00:00	2024-11-08T10:00:00	1	Precipitación	0
109388	7	Sololá	701	Sololá	4	Finca Santa Victoria	5	Mayo	2023-05-27T00:00:00	2024-11-08T10:00:00	8	Radiación solar	273
109389	7	Sololá	701	Sololá	4	Finca Santa Victoria	5	Mayo	2023-05-27T00:00:00	2024-11-08T11:00:00	2	Temperatura media	18.3
109390	7	Sololá	701	Sololá	4	Finca Santa Victoria	5	Mayo	2023-05-27T00:00:00	2024-11-08T11:00:00	4	Temperatura máxima	18.4
109391	7	Sololá	701	Sololá	4	Finca Santa Victoria	5	Mayo	2023-05-27T00:00:00	2024-11-08T11:00:00	3	Temperatura mínima	16.7
109392	7	Sololá	701	Sololá	4	Finca Santa Victoria	5	Mayo	2023-05-27T00:00:00	2024-11-08T11:00:00	5	Humedad	66
109393	7	Sololá	701	Sololá	4	Finca Santa Victoria	5	Mayo	2023-05-27T00:00:00	2024-11-08T11:00:00	6	Velocidad del viento	3.2
109394	7	Sololá	701	Sololá	4	Finca Santa Victoria	5	Mayo	2023-05-27T00:00:00	2024-11-08T11:00:00	7	Dirección del viento	3.22
109395	7	Sololá	701	Sololá	4	Finca Santa Victoria	5	Mayo	2023-05-27T00:00:00	2024-11-08T11:00:00	1	Precipitación	0
109396	7	Sololá	701	Sololá	4	Finca Santa Victoria	5	Mayo	2023-05-27T00:00:00	2024-11-08T11:00:00	8	Radiación solar	449
109397	7	Sololá	701	Sololá	4	Finca Santa Victoria	5	Mayo	2023-05-27T00:00:00	2024-11-08T12:00:00	2	Temperatura media	20
109398	7	Sololá	701	Sololá	4	Finca Santa Victoria	5	Mayo	2023-05-27T00:00:00	2024-11-08T12:00:00	4	Temperatura máxima	20.1
109399	7	Sololá	701	Sololá	4	Finca Santa Victoria	5	Mayo	2023-05-27T00:00:00	2024-11-08T12:00:00	3	Temperatura mínima	18.1
109400	7	Sololá	701	Sololá	4	Finca Santa Victoria	5	Mayo	2023-05-27T00:00:00	2024-11-08T12:00:00	5	Humedad	59
109401	7	Sololá	701	Sololá	4	Finca Santa Victoria	5	Mayo	2023-05-27T00:00:00	2024-11-08T12:00:00	6	Velocidad del viento	4.8
109402	7	Sololá	701	Sololá	4	Finca Santa Victoria	5	Mayo	2023-05-27T00:00:00	2024-11-08T12:00:00	7	Dirección del viento	4.83
109403	7	Sololá	701	Sololá	4	Finca Santa Victoria	5	Mayo	2023-05-27T00:00:00	2024-11-08T12:00:00	1	Precipitación	0
109404	7	Sololá	701	Sololá	4	Finca Santa Victoria	5	Mayo	2023-05-27T00:00:00	2024-11-08T12:00:00	8	Radiación solar	877
109405	7	Sololá	701	Sololá	4	Finca Santa Victoria	5	Mayo	2023-05-27T00:00:00	2024-11-08T13:00:00	2	Temperatura media	18.9
109406	7	Sololá	701	Sololá	4	Finca Santa Victoria	5	Mayo	2023-05-27T00:00:00	2024-11-08T13:00:00	4	Temperatura máxima	20.2
109407	7	Sololá	701	Sololá	4	Finca Santa Victoria	5	Mayo	2023-05-27T00:00:00	2024-11-08T13:00:00	3	Temperatura mínima	18.9
109408	7	Sololá	701	Sololá	4	Finca Santa Victoria	5	Mayo	2023-05-27T00:00:00	2024-11-08T13:00:00	5	Humedad	70
109409	7	Sololá	701	Sololá	4	Finca Santa Victoria	5	Mayo	2023-05-27T00:00:00	2024-11-08T13:00:00	6	Velocidad del viento	4.8
109410	7	Sololá	701	Sololá	4	Finca Santa Victoria	5	Mayo	2023-05-27T00:00:00	2024-11-08T13:00:00	7	Dirección del viento	4.83
109411	7	Sololá	701	Sololá	4	Finca Santa Victoria	5	Mayo	2023-05-27T00:00:00	2024-11-08T13:00:00	1	Precipitación	0
109412	7	Sololá	701	Sololá	4	Finca Santa Victoria	5	Mayo	2023-05-27T00:00:00	2024-11-08T13:00:00	8	Radiación solar	851
109413	7	Sololá	701	Sololá	4	Finca Santa Victoria	5	Mayo	2023-05-27T00:00:00	2024-11-08T14:00:00	2	Temperatura media	19
109414	7	Sololá	701	Sololá	4	Finca Santa Victoria	5	Mayo	2023-05-27T00:00:00	2024-11-08T14:00:00	4	Temperatura máxima	19.3
109415	7	Sololá	701	Sololá	4	Finca Santa Victoria	5	Mayo	2023-05-27T00:00:00	2024-11-08T14:00:00	3	Temperatura mínima	18.4
109416	7	Sololá	701	Sololá	4	Finca Santa Victoria	5	Mayo	2023-05-27T00:00:00	2024-11-08T14:00:00	5	Humedad	72
109417	7	Sololá	701	Sololá	4	Finca Santa Victoria	5	Mayo	2023-05-27T00:00:00	2024-11-08T14:00:00	6	Velocidad del viento	4.8
109418	7	Sololá	701	Sololá	4	Finca Santa Victoria	5	Mayo	2023-05-27T00:00:00	2024-11-08T14:00:00	7	Dirección del viento	4.83
109419	7	Sololá	701	Sololá	4	Finca Santa Victoria	5	Mayo	2023-05-27T00:00:00	2024-11-08T14:00:00	1	Precipitación	0
109420	7	Sololá	701	Sololá	4	Finca Santa Victoria	5	Mayo	2023-05-27T00:00:00	2024-11-08T14:00:00	8	Radiación solar	378
109421	7	Sololá	701	Sololá	4	Finca Santa Victoria	5	Mayo	2023-05-27T00:00:00	2024-11-08T15:00:00	2	Temperatura media	18.4
109422	7	Sololá	701	Sololá	4	Finca Santa Victoria	5	Mayo	2023-05-27T00:00:00	2024-11-08T15:00:00	4	Temperatura máxima	19
109423	7	Sololá	701	Sololá	4	Finca Santa Victoria	5	Mayo	2023-05-27T00:00:00	2024-11-08T15:00:00	3	Temperatura mínima	18.4
109424	7	Sololá	701	Sololá	4	Finca Santa Victoria	5	Mayo	2023-05-27T00:00:00	2024-11-08T15:00:00	5	Humedad	79
109425	7	Sololá	701	Sololá	4	Finca Santa Victoria	5	Mayo	2023-05-27T00:00:00	2024-11-08T15:00:00	6	Velocidad del viento	3.2
109426	7	Sololá	701	Sololá	4	Finca Santa Victoria	5	Mayo	2023-05-27T00:00:00	2024-11-08T15:00:00	7	Dirección del viento	3.22
109427	7	Sololá	701	Sololá	4	Finca Santa Victoria	5	Mayo	2023-05-27T00:00:00	2024-11-08T15:00:00	1	Precipitación	0
109428	7	Sololá	701	Sololá	4	Finca Santa Victoria	5	Mayo	2023-05-27T00:00:00	2024-11-08T15:00:00	8	Radiación solar	235
109429	7	Sololá	701	Sololá	4	Finca Santa Victoria	5	Mayo	2023-05-27T00:00:00	2024-11-08T16:00:00	2	Temperatura media	17.8
109430	7	Sololá	701	Sololá	4	Finca Santa Victoria	5	Mayo	2023-05-27T00:00:00	2024-11-08T16:00:00	4	Temperatura máxima	18.4
109431	7	Sololá	701	Sololá	4	Finca Santa Victoria	5	Mayo	2023-05-27T00:00:00	2024-11-08T16:00:00	3	Temperatura mínima	17.8
109432	7	Sololá	701	Sololá	4	Finca Santa Victoria	5	Mayo	2023-05-27T00:00:00	2024-11-08T16:00:00	5	Humedad	85
109433	7	Sololá	701	Sololá	4	Finca Santa Victoria	5	Mayo	2023-05-27T00:00:00	2024-11-08T16:00:00	6	Velocidad del viento	3.2
109434	7	Sololá	701	Sololá	4	Finca Santa Victoria	5	Mayo	2023-05-27T00:00:00	2024-11-08T16:00:00	7	Dirección del viento	3.22
109435	7	Sololá	701	Sololá	4	Finca Santa Victoria	5	Mayo	2023-05-27T00:00:00	2024-11-08T16:00:00	1	Precipitación	0
109436	7	Sololá	701	Sololá	4	Finca Santa Victoria	5	Mayo	2023-05-27T00:00:00	2024-11-08T16:00:00	8	Radiación solar	164
109437	7	Sololá	701	Sololá	4	Finca Santa Victoria	5	Mayo	2023-05-27T00:00:00	2024-11-08T17:00:00	2	Temperatura media	16.5
109438	7	Sololá	701	Sololá	4	Finca Santa Victoria	5	Mayo	2023-05-27T00:00:00	2024-11-08T17:00:00	4	Temperatura máxima	17.8
109439	7	Sololá	701	Sololá	4	Finca Santa Victoria	5	Mayo	2023-05-27T00:00:00	2024-11-08T17:00:00	3	Temperatura mínima	16.5
109440	7	Sololá	701	Sololá	4	Finca Santa Victoria	5	Mayo	2023-05-27T00:00:00	2024-11-08T17:00:00	5	Humedad	92
109441	7	Sololá	701	Sololá	4	Finca Santa Victoria	5	Mayo	2023-05-27T00:00:00	2024-11-08T17:00:00	6	Velocidad del viento	1.6
109442	7	Sololá	701	Sololá	4	Finca Santa Victoria	5	Mayo	2023-05-27T00:00:00	2024-11-08T17:00:00	7	Dirección del viento	1.61
109443	7	Sololá	701	Sololá	4	Finca Santa Victoria	5	Mayo	2023-05-27T00:00:00	2024-11-08T17:00:00	1	Precipitación	0
109444	7	Sololá	701	Sololá	4	Finca Santa Victoria	5	Mayo	2023-05-27T00:00:00	2024-11-08T17:00:00	8	Radiación solar	54
109445	7	Sololá	701	Sololá	4	Finca Santa Victoria	5	Mayo	2023-05-27T00:00:00	2024-11-08T18:00:00	2	Temperatura media	16.2
109446	7	Sololá	701	Sololá	4	Finca Santa Victoria	5	Mayo	2023-05-27T00:00:00	2024-11-08T18:00:00	4	Temperatura máxima	16.9
109447	7	Sololá	701	Sololá	4	Finca Santa Victoria	5	Mayo	2023-05-27T00:00:00	2024-11-08T18:00:00	3	Temperatura mínima	16.2
109448	7	Sololá	701	Sololá	4	Finca Santa Victoria	5	Mayo	2023-05-27T00:00:00	2024-11-08T18:00:00	5	Humedad	94
109449	7	Sololá	701	Sololá	4	Finca Santa Victoria	5	Mayo	2023-05-27T00:00:00	2024-11-08T18:00:00	6	Velocidad del viento	1.6
109450	7	Sololá	701	Sololá	4	Finca Santa Victoria	5	Mayo	2023-05-27T00:00:00	2024-11-08T18:00:00	7	Dirección del viento	1.61
109451	7	Sololá	701	Sololá	4	Finca Santa Victoria	5	Mayo	2023-05-27T00:00:00	2024-11-08T18:00:00	1	Precipitación	0
109452	7	Sololá	701	Sololá	4	Finca Santa Victoria	5	Mayo	2023-05-27T00:00:00	2024-11-08T18:00:00	8	Radiación solar	47
109453	7	Sololá	701	Sololá	4	Finca Santa Victoria	5	Mayo	2023-05-27T00:00:00	2024-11-08T19:00:00	2	Temperatura media	15.6
109454	7	Sololá	701	Sololá	4	Finca Santa Victoria	5	Mayo	2023-05-27T00:00:00	2024-11-08T19:00:00	4	Temperatura máxima	16.2
109455	7	Sololá	701	Sololá	4	Finca Santa Victoria	5	Mayo	2023-05-27T00:00:00	2024-11-08T19:00:00	3	Temperatura mínima	15.6
109456	7	Sololá	701	Sololá	4	Finca Santa Victoria	5	Mayo	2023-05-27T00:00:00	2024-11-08T19:00:00	5	Humedad	96
109457	7	Sololá	701	Sololá	4	Finca Santa Victoria	5	Mayo	2023-05-27T00:00:00	2024-11-08T19:00:00	6	Velocidad del viento	0
109458	7	Sololá	701	Sololá	4	Finca Santa Victoria	5	Mayo	2023-05-27T00:00:00	2024-11-08T19:00:00	7	Dirección del viento	0
109459	7	Sololá	701	Sololá	4	Finca Santa Victoria	5	Mayo	2023-05-27T00:00:00	2024-11-08T19:00:00	1	Precipitación	0
109460	7	Sololá	701	Sololá	4	Finca Santa Victoria	5	Mayo	2023-05-27T00:00:00	2024-11-08T19:00:00	8	Radiación solar	0
109461	7	Sololá	701	Sololá	4	Finca Santa Victoria	5	Mayo	2023-05-27T00:00:00	2024-11-08T20:00:00	2	Temperatura media	15.3
109462	7	Sololá	701	Sololá	4	Finca Santa Victoria	5	Mayo	2023-05-27T00:00:00	2024-11-08T20:00:00	4	Temperatura máxima	15.6
109463	7	Sololá	701	Sololá	4	Finca Santa Victoria	5	Mayo	2023-05-27T00:00:00	2024-11-08T20:00:00	3	Temperatura mínima	15.3
109464	7	Sololá	701	Sololá	4	Finca Santa Victoria	5	Mayo	2023-05-27T00:00:00	2024-11-08T20:00:00	5	Humedad	97
109465	7	Sololá	701	Sololá	4	Finca Santa Victoria	5	Mayo	2023-05-27T00:00:00	2024-11-08T20:00:00	6	Velocidad del viento	0
109466	7	Sololá	701	Sololá	4	Finca Santa Victoria	5	Mayo	2023-05-27T00:00:00	2024-11-08T20:00:00	7	Dirección del viento	0
109467	7	Sololá	701	Sololá	4	Finca Santa Victoria	5	Mayo	2023-05-27T00:00:00	2024-11-08T20:00:00	1	Precipitación	0
109468	7	Sololá	701	Sololá	4	Finca Santa Victoria	5	Mayo	2023-05-27T00:00:00	2024-11-08T20:00:00	8	Radiación solar	0
109469	7	Sololá	701	Sololá	4	Finca Santa Victoria	5	Mayo	2023-05-27T00:00:00	2024-11-08T21:00:00	2	Temperatura media	14.9
109470	7	Sololá	701	Sololá	4	Finca Santa Victoria	5	Mayo	2023-05-27T00:00:00	2024-11-08T21:00:00	4	Temperatura máxima	15.4
109471	7	Sololá	701	Sololá	4	Finca Santa Victoria	5	Mayo	2023-05-27T00:00:00	2024-11-08T21:00:00	3	Temperatura mínima	14.9
109472	7	Sololá	701	Sololá	4	Finca Santa Victoria	5	Mayo	2023-05-27T00:00:00	2024-11-08T21:00:00	5	Humedad	96
109473	7	Sololá	701	Sololá	4	Finca Santa Victoria	5	Mayo	2023-05-27T00:00:00	2024-11-08T21:00:00	6	Velocidad del viento	0
109474	7	Sololá	701	Sololá	4	Finca Santa Victoria	5	Mayo	2023-05-27T00:00:00	2024-11-08T21:00:00	7	Dirección del viento	0
109475	7	Sololá	701	Sololá	4	Finca Santa Victoria	5	Mayo	2023-05-27T00:00:00	2024-11-08T21:00:00	1	Precipitación	0
109476	7	Sololá	701	Sololá	4	Finca Santa Victoria	5	Mayo	2023-05-27T00:00:00	2024-11-08T21:00:00	8	Radiación solar	0
109477	7	Sololá	701	Sololá	4	Finca Santa Victoria	5	Mayo	2023-05-27T00:00:00	2024-11-08T22:00:00	2	Temperatura media	14.8
109478	7	Sololá	701	Sololá	4	Finca Santa Victoria	5	Mayo	2023-05-27T00:00:00	2024-11-08T22:00:00	4	Temperatura máxima	15
109479	7	Sololá	701	Sololá	4	Finca Santa Victoria	5	Mayo	2023-05-27T00:00:00	2024-11-08T22:00:00	3	Temperatura mínima	14.7
109480	7	Sololá	701	Sololá	4	Finca Santa Victoria	5	Mayo	2023-05-27T00:00:00	2024-11-08T22:00:00	5	Humedad	92
109481	7	Sololá	701	Sololá	4	Finca Santa Victoria	5	Mayo	2023-05-27T00:00:00	2024-11-08T22:00:00	6	Velocidad del viento	1.6
109482	7	Sololá	701	Sololá	4	Finca Santa Victoria	5	Mayo	2023-05-27T00:00:00	2024-11-08T22:00:00	7	Dirección del viento	1.61
109483	7	Sololá	701	Sololá	4	Finca Santa Victoria	5	Mayo	2023-05-27T00:00:00	2024-11-08T22:00:00	1	Precipitación	0
109484	7	Sololá	701	Sololá	4	Finca Santa Victoria	5	Mayo	2023-05-27T00:00:00	2024-11-08T22:00:00	8	Radiación solar	0
109485	7	Sololá	701	Sololá	4	Finca Santa Victoria	5	Mayo	2023-05-27T00:00:00	2024-11-08T23:00:00	2	Temperatura media	14.6
109486	7	Sololá	701	Sololá	4	Finca Santa Victoria	5	Mayo	2023-05-27T00:00:00	2024-11-08T23:00:00	4	Temperatura máxima	14.8
109487	7	Sololá	701	Sololá	4	Finca Santa Victoria	5	Mayo	2023-05-27T00:00:00	2024-11-08T23:00:00	3	Temperatura mínima	14.5
109488	7	Sololá	701	Sololá	4	Finca Santa Victoria	5	Mayo	2023-05-27T00:00:00	2024-11-08T23:00:00	5	Humedad	93
109489	7	Sololá	701	Sololá	4	Finca Santa Victoria	5	Mayo	2023-05-27T00:00:00	2024-11-08T23:00:00	6	Velocidad del viento	0
109490	7	Sololá	701	Sololá	4	Finca Santa Victoria	5	Mayo	2023-05-27T00:00:00	2024-11-08T23:00:00	7	Dirección del viento	0
109491	7	Sololá	701	Sololá	4	Finca Santa Victoria	5	Mayo	2023-05-27T00:00:00	2024-11-08T23:00:00	1	Precipitación	0
109492	7	Sololá	701	Sololá	4	Finca Santa Victoria	5	Mayo	2023-05-27T00:00:00	2024-11-08T23:00:00	8	Radiación solar	0
109493	7	Sololá	701	Sololá	4	Finca Santa Victoria	5	Mayo	2023-05-28T00:00:00	2024-11-08T00:00:00	2	Temperatura media	14.2
109494	7	Sololá	701	Sololá	4	Finca Santa Victoria	5	Mayo	2023-05-28T00:00:00	2024-11-08T00:00:00	4	Temperatura máxima	14.6
109495	7	Sololá	701	Sololá	4	Finca Santa Victoria	5	Mayo	2023-05-28T00:00:00	2024-11-08T00:00:00	3	Temperatura mínima	14.2
109496	7	Sololá	701	Sololá	4	Finca Santa Victoria	5	Mayo	2023-05-28T00:00:00	2024-11-08T00:00:00	5	Humedad	96
109497	7	Sololá	701	Sololá	4	Finca Santa Victoria	5	Mayo	2023-05-28T00:00:00	2024-11-08T00:00:00	6	Velocidad del viento	0
109498	7	Sololá	701	Sololá	4	Finca Santa Victoria	5	Mayo	2023-05-28T00:00:00	2024-11-08T00:00:00	7	Dirección del viento	0
109499	7	Sololá	701	Sololá	4	Finca Santa Victoria	5	Mayo	2023-05-28T00:00:00	2024-11-08T00:00:00	1	Precipitación	0
109500	7	Sololá	701	Sololá	4	Finca Santa Victoria	5	Mayo	2023-05-28T00:00:00	2024-11-08T00:00:00	8	Radiación solar	0
109501	7	Sololá	701	Sololá	4	Finca Santa Victoria	5	Mayo	2023-05-28T00:00:00	2024-11-08T01:00:00	2	Temperatura media	13.7
109502	7	Sololá	701	Sololá	4	Finca Santa Victoria	5	Mayo	2023-05-28T00:00:00	2024-11-08T01:00:00	4	Temperatura máxima	14.2
109503	7	Sololá	701	Sololá	4	Finca Santa Victoria	5	Mayo	2023-05-28T00:00:00	2024-11-08T01:00:00	3	Temperatura mínima	13.6
109504	7	Sololá	701	Sololá	4	Finca Santa Victoria	5	Mayo	2023-05-28T00:00:00	2024-11-08T01:00:00	5	Humedad	95
109505	7	Sololá	701	Sololá	4	Finca Santa Victoria	5	Mayo	2023-05-28T00:00:00	2024-11-08T01:00:00	6	Velocidad del viento	0
109506	7	Sololá	701	Sololá	4	Finca Santa Victoria	5	Mayo	2023-05-28T00:00:00	2024-11-08T01:00:00	7	Dirección del viento	0
109507	7	Sololá	701	Sololá	4	Finca Santa Victoria	5	Mayo	2023-05-28T00:00:00	2024-11-08T01:00:00	1	Precipitación	0
109508	7	Sololá	701	Sololá	4	Finca Santa Victoria	5	Mayo	2023-05-28T00:00:00	2024-11-08T01:00:00	8	Radiación solar	0
109509	7	Sololá	701	Sololá	4	Finca Santa Victoria	5	Mayo	2023-05-28T00:00:00	2024-11-08T02:00:00	2	Temperatura media	13.3
109510	7	Sololá	701	Sololá	4	Finca Santa Victoria	5	Mayo	2023-05-28T00:00:00	2024-11-08T02:00:00	4	Temperatura máxima	13.7
109511	7	Sololá	701	Sololá	4	Finca Santa Victoria	5	Mayo	2023-05-28T00:00:00	2024-11-08T02:00:00	3	Temperatura mínima	13.3
109512	7	Sololá	701	Sololá	4	Finca Santa Victoria	5	Mayo	2023-05-28T00:00:00	2024-11-08T02:00:00	5	Humedad	91
109513	7	Sololá	701	Sololá	4	Finca Santa Victoria	5	Mayo	2023-05-28T00:00:00	2024-11-08T02:00:00	6	Velocidad del viento	0
109514	7	Sololá	701	Sololá	4	Finca Santa Victoria	5	Mayo	2023-05-28T00:00:00	2024-11-08T02:00:00	7	Dirección del viento	0
109515	7	Sololá	701	Sololá	4	Finca Santa Victoria	5	Mayo	2023-05-28T00:00:00	2024-11-08T02:00:00	1	Precipitación	0
109516	7	Sololá	701	Sololá	4	Finca Santa Victoria	5	Mayo	2023-05-28T00:00:00	2024-11-08T02:00:00	8	Radiación solar	0
109517	7	Sololá	701	Sololá	4	Finca Santa Victoria	5	Mayo	2023-05-28T00:00:00	2024-11-08T03:00:00	2	Temperatura media	13.1
109518	7	Sololá	701	Sololá	4	Finca Santa Victoria	5	Mayo	2023-05-28T00:00:00	2024-11-08T03:00:00	4	Temperatura máxima	13.3
109519	7	Sololá	701	Sololá	4	Finca Santa Victoria	5	Mayo	2023-05-28T00:00:00	2024-11-08T03:00:00	3	Temperatura mínima	13
109520	7	Sololá	701	Sololá	4	Finca Santa Victoria	5	Mayo	2023-05-28T00:00:00	2024-11-08T03:00:00	5	Humedad	94
109521	7	Sololá	701	Sololá	4	Finca Santa Victoria	5	Mayo	2023-05-28T00:00:00	2024-11-08T03:00:00	6	Velocidad del viento	0
109522	7	Sololá	701	Sololá	4	Finca Santa Victoria	5	Mayo	2023-05-28T00:00:00	2024-11-08T03:00:00	7	Dirección del viento	0
109523	7	Sololá	701	Sololá	4	Finca Santa Victoria	5	Mayo	2023-05-28T00:00:00	2024-11-08T03:00:00	1	Precipitación	0
109524	7	Sololá	701	Sololá	4	Finca Santa Victoria	5	Mayo	2023-05-28T00:00:00	2024-11-08T03:00:00	8	Radiación solar	0
109525	7	Sololá	701	Sololá	4	Finca Santa Victoria	5	Mayo	2023-05-28T00:00:00	2024-11-08T04:00:00	2	Temperatura media	13.1
109526	7	Sololá	701	Sololá	4	Finca Santa Victoria	5	Mayo	2023-05-28T00:00:00	2024-11-08T04:00:00	4	Temperatura máxima	13.1
109527	7	Sololá	701	Sololá	4	Finca Santa Victoria	5	Mayo	2023-05-28T00:00:00	2024-11-08T04:00:00	3	Temperatura mínima	13
109528	7	Sololá	701	Sololá	4	Finca Santa Victoria	5	Mayo	2023-05-28T00:00:00	2024-11-08T04:00:00	5	Humedad	90
109529	7	Sololá	701	Sololá	4	Finca Santa Victoria	5	Mayo	2023-05-28T00:00:00	2024-11-08T04:00:00	6	Velocidad del viento	0
109530	7	Sololá	701	Sololá	4	Finca Santa Victoria	5	Mayo	2023-05-28T00:00:00	2024-11-08T04:00:00	7	Dirección del viento	0
109531	7	Sololá	701	Sololá	4	Finca Santa Victoria	5	Mayo	2023-05-28T00:00:00	2024-11-08T04:00:00	1	Precipitación	0
109532	7	Sololá	701	Sololá	4	Finca Santa Victoria	5	Mayo	2023-05-28T00:00:00	2024-11-08T04:00:00	8	Radiación solar	0
109533	7	Sololá	701	Sololá	4	Finca Santa Victoria	5	Mayo	2023-05-28T00:00:00	2024-11-08T05:00:00	2	Temperatura media	13.2
109534	7	Sololá	701	Sololá	4	Finca Santa Victoria	5	Mayo	2023-05-28T00:00:00	2024-11-08T05:00:00	4	Temperatura máxima	13.2
109535	7	Sololá	701	Sololá	4	Finca Santa Victoria	5	Mayo	2023-05-28T00:00:00	2024-11-08T05:00:00	3	Temperatura mínima	13.1
109536	7	Sololá	701	Sololá	4	Finca Santa Victoria	5	Mayo	2023-05-28T00:00:00	2024-11-08T05:00:00	5	Humedad	93
109537	7	Sololá	701	Sololá	4	Finca Santa Victoria	5	Mayo	2023-05-28T00:00:00	2024-11-08T05:00:00	6	Velocidad del viento	0
109538	7	Sololá	701	Sololá	4	Finca Santa Victoria	5	Mayo	2023-05-28T00:00:00	2024-11-08T05:00:00	7	Dirección del viento	0
109539	7	Sololá	701	Sololá	4	Finca Santa Victoria	5	Mayo	2023-05-28T00:00:00	2024-11-08T05:00:00	1	Precipitación	0
109540	7	Sololá	701	Sololá	4	Finca Santa Victoria	5	Mayo	2023-05-28T00:00:00	2024-11-08T05:00:00	8	Radiación solar	0
109541	7	Sololá	701	Sololá	4	Finca Santa Victoria	5	Mayo	2023-05-28T00:00:00	2024-11-08T06:00:00	2	Temperatura media	13.1
109542	7	Sololá	701	Sololá	4	Finca Santa Victoria	5	Mayo	2023-05-28T00:00:00	2024-11-08T06:00:00	4	Temperatura máxima	13.2
109543	7	Sololá	701	Sololá	4	Finca Santa Victoria	5	Mayo	2023-05-28T00:00:00	2024-11-08T06:00:00	3	Temperatura mínima	13.1
109544	7	Sololá	701	Sololá	4	Finca Santa Victoria	5	Mayo	2023-05-28T00:00:00	2024-11-08T06:00:00	5	Humedad	97
109545	7	Sololá	701	Sololá	4	Finca Santa Victoria	5	Mayo	2023-05-28T00:00:00	2024-11-08T06:00:00	6	Velocidad del viento	0
109546	7	Sololá	701	Sololá	4	Finca Santa Victoria	5	Mayo	2023-05-28T00:00:00	2024-11-08T06:00:00	7	Dirección del viento	0
109547	7	Sololá	701	Sololá	4	Finca Santa Victoria	5	Mayo	2023-05-28T00:00:00	2024-11-08T06:00:00	1	Precipitación	0
109548	7	Sololá	701	Sololá	4	Finca Santa Victoria	5	Mayo	2023-05-28T00:00:00	2024-11-08T06:00:00	8	Radiación solar	1
109549	7	Sololá	701	Sololá	4	Finca Santa Victoria	5	Mayo	2023-05-28T00:00:00	2024-11-08T07:00:00	2	Temperatura media	13.5
109550	7	Sololá	701	Sololá	4	Finca Santa Victoria	5	Mayo	2023-05-28T00:00:00	2024-11-08T07:00:00	4	Temperatura máxima	13.5
109551	7	Sololá	701	Sololá	4	Finca Santa Victoria	5	Mayo	2023-05-28T00:00:00	2024-11-08T07:00:00	3	Temperatura mínima	13.1
109552	7	Sololá	701	Sololá	4	Finca Santa Victoria	5	Mayo	2023-05-28T00:00:00	2024-11-08T07:00:00	5	Humedad	94
109553	7	Sololá	701	Sololá	4	Finca Santa Victoria	5	Mayo	2023-05-28T00:00:00	2024-11-08T07:00:00	6	Velocidad del viento	0
109554	7	Sololá	701	Sololá	4	Finca Santa Victoria	5	Mayo	2023-05-28T00:00:00	2024-11-08T07:00:00	7	Dirección del viento	0
109555	7	Sololá	701	Sololá	4	Finca Santa Victoria	5	Mayo	2023-05-28T00:00:00	2024-11-08T07:00:00	1	Precipitación	0
109556	7	Sololá	701	Sololá	4	Finca Santa Victoria	5	Mayo	2023-05-28T00:00:00	2024-11-08T07:00:00	8	Radiación solar	33
109557	7	Sololá	701	Sololá	4	Finca Santa Victoria	5	Mayo	2023-05-28T00:00:00	2024-11-08T08:00:00	2	Temperatura media	15.8
109558	7	Sololá	701	Sololá	4	Finca Santa Victoria	5	Mayo	2023-05-28T00:00:00	2024-11-08T08:00:00	4	Temperatura máxima	15.8
109559	7	Sololá	701	Sololá	4	Finca Santa Victoria	5	Mayo	2023-05-28T00:00:00	2024-11-08T08:00:00	3	Temperatura mínima	13.4
109560	7	Sololá	701	Sololá	4	Finca Santa Victoria	5	Mayo	2023-05-28T00:00:00	2024-11-08T08:00:00	5	Humedad	85
109561	7	Sololá	701	Sololá	4	Finca Santa Victoria	5	Mayo	2023-05-28T00:00:00	2024-11-08T08:00:00	6	Velocidad del viento	0
109562	7	Sololá	701	Sololá	4	Finca Santa Victoria	5	Mayo	2023-05-28T00:00:00	2024-11-08T08:00:00	7	Dirección del viento	0
109563	7	Sololá	701	Sololá	4	Finca Santa Victoria	5	Mayo	2023-05-28T00:00:00	2024-11-08T08:00:00	1	Precipitación	0
109564	7	Sololá	701	Sololá	4	Finca Santa Victoria	5	Mayo	2023-05-28T00:00:00	2024-11-08T08:00:00	8	Radiación solar	147
109565	7	Sololá	701	Sololá	4	Finca Santa Victoria	5	Mayo	2023-05-28T00:00:00	2024-11-08T09:00:00	2	Temperatura media	16.3
109566	7	Sololá	701	Sololá	4	Finca Santa Victoria	5	Mayo	2023-05-28T00:00:00	2024-11-08T09:00:00	4	Temperatura máxima	16.7
109567	7	Sololá	701	Sololá	4	Finca Santa Victoria	5	Mayo	2023-05-28T00:00:00	2024-11-08T09:00:00	3	Temperatura mínima	15.8
109568	7	Sololá	701	Sololá	4	Finca Santa Victoria	5	Mayo	2023-05-28T00:00:00	2024-11-08T09:00:00	5	Humedad	88
109569	7	Sololá	701	Sololá	4	Finca Santa Victoria	5	Mayo	2023-05-28T00:00:00	2024-11-08T09:00:00	6	Velocidad del viento	3.2
109570	7	Sololá	701	Sololá	4	Finca Santa Victoria	5	Mayo	2023-05-28T00:00:00	2024-11-08T09:00:00	7	Dirección del viento	3.22
109571	7	Sololá	701	Sololá	4	Finca Santa Victoria	5	Mayo	2023-05-28T00:00:00	2024-11-08T09:00:00	1	Precipitación	0
109572	7	Sololá	701	Sololá	4	Finca Santa Victoria	5	Mayo	2023-05-28T00:00:00	2024-11-08T09:00:00	8	Radiación solar	296
109573	7	Sololá	701	Sololá	4	Finca Santa Victoria	5	Mayo	2023-05-28T00:00:00	2024-11-08T10:00:00	2	Temperatura media	16.7
109574	7	Sololá	701	Sololá	4	Finca Santa Victoria	5	Mayo	2023-05-28T00:00:00	2024-11-08T10:00:00	4	Temperatura máxima	16.7
109575	7	Sololá	701	Sololá	4	Finca Santa Victoria	5	Mayo	2023-05-28T00:00:00	2024-11-08T10:00:00	3	Temperatura mínima	15.4
109576	7	Sololá	701	Sololá	4	Finca Santa Victoria	5	Mayo	2023-05-28T00:00:00	2024-11-08T10:00:00	5	Humedad	86
109577	7	Sololá	701	Sololá	4	Finca Santa Victoria	5	Mayo	2023-05-28T00:00:00	2024-11-08T10:00:00	6	Velocidad del viento	3.2
109578	7	Sololá	701	Sololá	4	Finca Santa Victoria	5	Mayo	2023-05-28T00:00:00	2024-11-08T10:00:00	7	Dirección del viento	3.22
109579	7	Sololá	701	Sololá	4	Finca Santa Victoria	5	Mayo	2023-05-28T00:00:00	2024-11-08T10:00:00	1	Precipitación	0
109580	7	Sololá	701	Sololá	4	Finca Santa Victoria	5	Mayo	2023-05-28T00:00:00	2024-11-08T10:00:00	8	Radiación solar	215
109581	7	Sololá	701	Sololá	4	Finca Santa Victoria	5	Mayo	2023-05-28T00:00:00	2024-11-08T11:00:00	2	Temperatura media	18
109582	7	Sololá	701	Sololá	4	Finca Santa Victoria	5	Mayo	2023-05-28T00:00:00	2024-11-08T11:00:00	4	Temperatura máxima	18
109583	7	Sololá	701	Sololá	4	Finca Santa Victoria	5	Mayo	2023-05-28T00:00:00	2024-11-08T11:00:00	3	Temperatura mínima	16.4
109584	7	Sololá	701	Sololá	4	Finca Santa Victoria	5	Mayo	2023-05-28T00:00:00	2024-11-08T11:00:00	5	Humedad	81
109585	7	Sololá	701	Sololá	4	Finca Santa Victoria	5	Mayo	2023-05-28T00:00:00	2024-11-08T11:00:00	6	Velocidad del viento	4.8
109586	7	Sololá	701	Sololá	4	Finca Santa Victoria	5	Mayo	2023-05-28T00:00:00	2024-11-08T11:00:00	7	Dirección del viento	4.83
109587	7	Sololá	701	Sololá	4	Finca Santa Victoria	5	Mayo	2023-05-28T00:00:00	2024-11-08T11:00:00	1	Precipitación	0
109588	7	Sololá	701	Sololá	4	Finca Santa Victoria	5	Mayo	2023-05-28T00:00:00	2024-11-08T11:00:00	8	Radiación solar	464
109589	7	Sololá	701	Sololá	4	Finca Santa Victoria	5	Mayo	2023-05-28T00:00:00	2024-11-08T12:00:00	2	Temperatura media	18.8
109590	7	Sololá	701	Sololá	4	Finca Santa Victoria	5	Mayo	2023-05-28T00:00:00	2024-11-08T12:00:00	4	Temperatura máxima	19
109591	7	Sololá	701	Sololá	4	Finca Santa Victoria	5	Mayo	2023-05-28T00:00:00	2024-11-08T12:00:00	3	Temperatura mínima	17.9
109592	7	Sololá	701	Sololá	4	Finca Santa Victoria	5	Mayo	2023-05-28T00:00:00	2024-11-08T12:00:00	5	Humedad	78
109593	7	Sololá	701	Sololá	4	Finca Santa Victoria	5	Mayo	2023-05-28T00:00:00	2024-11-08T12:00:00	6	Velocidad del viento	4.8
109594	7	Sololá	701	Sololá	4	Finca Santa Victoria	5	Mayo	2023-05-28T00:00:00	2024-11-08T12:00:00	7	Dirección del viento	4.83
109595	7	Sololá	701	Sololá	4	Finca Santa Victoria	5	Mayo	2023-05-28T00:00:00	2024-11-08T12:00:00	1	Precipitación	0
109596	7	Sololá	701	Sololá	4	Finca Santa Victoria	5	Mayo	2023-05-28T00:00:00	2024-11-08T12:00:00	8	Radiación solar	897
109597	7	Sololá	701	Sololá	4	Finca Santa Victoria	5	Mayo	2023-05-28T00:00:00	2024-11-08T13:00:00	2	Temperatura media	17.4
109598	7	Sololá	701	Sololá	4	Finca Santa Victoria	5	Mayo	2023-05-28T00:00:00	2024-11-08T13:00:00	4	Temperatura máxima	18.8
109599	7	Sololá	701	Sololá	4	Finca Santa Victoria	5	Mayo	2023-05-28T00:00:00	2024-11-08T13:00:00	3	Temperatura mínima	17.4
109600	7	Sololá	701	Sololá	4	Finca Santa Victoria	5	Mayo	2023-05-28T00:00:00	2024-11-08T13:00:00	5	Humedad	86
109601	7	Sololá	701	Sololá	4	Finca Santa Victoria	5	Mayo	2023-05-28T00:00:00	2024-11-08T13:00:00	6	Velocidad del viento	6.4
109602	7	Sololá	701	Sololá	4	Finca Santa Victoria	5	Mayo	2023-05-28T00:00:00	2024-11-08T13:00:00	7	Dirección del viento	6.44
109603	7	Sololá	701	Sololá	4	Finca Santa Victoria	5	Mayo	2023-05-28T00:00:00	2024-11-08T13:00:00	1	Precipitación	0
109604	7	Sololá	701	Sololá	4	Finca Santa Victoria	5	Mayo	2023-05-28T00:00:00	2024-11-08T13:00:00	8	Radiación solar	364
109605	7	Sololá	701	Sololá	4	Finca Santa Victoria	5	Mayo	2023-05-28T00:00:00	2024-11-08T14:00:00	2	Temperatura media	17.8
109606	7	Sololá	701	Sololá	4	Finca Santa Victoria	5	Mayo	2023-05-28T00:00:00	2024-11-08T14:00:00	4	Temperatura máxima	18.9
109607	7	Sololá	701	Sololá	4	Finca Santa Victoria	5	Mayo	2023-05-28T00:00:00	2024-11-08T14:00:00	3	Temperatura mínima	17.4
109608	7	Sololá	701	Sololá	4	Finca Santa Victoria	5	Mayo	2023-05-28T00:00:00	2024-11-08T14:00:00	5	Humedad	84
109609	7	Sololá	701	Sololá	4	Finca Santa Victoria	5	Mayo	2023-05-28T00:00:00	2024-11-08T14:00:00	6	Velocidad del viento	4.8
109610	7	Sololá	701	Sololá	4	Finca Santa Victoria	5	Mayo	2023-05-28T00:00:00	2024-11-08T14:00:00	7	Dirección del viento	4.83
109611	7	Sololá	701	Sololá	4	Finca Santa Victoria	5	Mayo	2023-05-28T00:00:00	2024-11-08T14:00:00	1	Precipitación	0
109612	7	Sololá	701	Sololá	4	Finca Santa Victoria	5	Mayo	2023-05-28T00:00:00	2024-11-08T14:00:00	8	Radiación solar	382
109613	7	Sololá	701	Sololá	4	Finca Santa Victoria	5	Mayo	2023-05-28T00:00:00	2024-11-08T15:00:00	2	Temperatura media	17.3
109614	7	Sololá	701	Sololá	4	Finca Santa Victoria	5	Mayo	2023-05-28T00:00:00	2024-11-08T15:00:00	4	Temperatura máxima	17.9
109615	7	Sololá	701	Sololá	4	Finca Santa Victoria	5	Mayo	2023-05-28T00:00:00	2024-11-08T15:00:00	3	Temperatura mínima	17.2
109616	7	Sololá	701	Sololá	4	Finca Santa Victoria	5	Mayo	2023-05-28T00:00:00	2024-11-08T15:00:00	5	Humedad	86
109617	7	Sololá	701	Sololá	4	Finca Santa Victoria	5	Mayo	2023-05-28T00:00:00	2024-11-08T15:00:00	6	Velocidad del viento	4.8
109618	7	Sololá	701	Sololá	4	Finca Santa Victoria	5	Mayo	2023-05-28T00:00:00	2024-11-08T15:00:00	7	Dirección del viento	4.83
109619	7	Sololá	701	Sololá	4	Finca Santa Victoria	5	Mayo	2023-05-28T00:00:00	2024-11-08T15:00:00	1	Precipitación	0
109620	7	Sololá	701	Sololá	4	Finca Santa Victoria	5	Mayo	2023-05-28T00:00:00	2024-11-08T15:00:00	8	Radiación solar	229
109621	7	Sololá	701	Sololá	4	Finca Santa Victoria	5	Mayo	2023-05-28T00:00:00	2024-11-08T16:00:00	2	Temperatura media	16.3
109622	7	Sololá	701	Sololá	4	Finca Santa Victoria	5	Mayo	2023-05-28T00:00:00	2024-11-08T16:00:00	4	Temperatura máxima	17.3
109623	7	Sololá	701	Sololá	4	Finca Santa Victoria	5	Mayo	2023-05-28T00:00:00	2024-11-08T16:00:00	3	Temperatura mínima	16.3
109624	7	Sololá	701	Sololá	4	Finca Santa Victoria	5	Mayo	2023-05-28T00:00:00	2024-11-08T16:00:00	5	Humedad	91
109625	7	Sololá	701	Sololá	4	Finca Santa Victoria	5	Mayo	2023-05-28T00:00:00	2024-11-08T16:00:00	6	Velocidad del viento	3.2
109626	7	Sololá	701	Sololá	4	Finca Santa Victoria	5	Mayo	2023-05-28T00:00:00	2024-11-08T16:00:00	7	Dirección del viento	3.22
109627	7	Sololá	701	Sololá	4	Finca Santa Victoria	5	Mayo	2023-05-28T00:00:00	2024-11-08T16:00:00	1	Precipitación	0
109628	7	Sololá	701	Sololá	4	Finca Santa Victoria	5	Mayo	2023-05-28T00:00:00	2024-11-08T16:00:00	8	Radiación solar	167
109629	7	Sololá	701	Sololá	4	Finca Santa Victoria	5	Mayo	2023-05-28T00:00:00	2024-11-08T17:00:00	2	Temperatura media	15.4
109630	7	Sololá	701	Sololá	4	Finca Santa Victoria	5	Mayo	2023-05-28T00:00:00	2024-11-08T17:00:00	4	Temperatura máxima	16.3
109631	7	Sololá	701	Sololá	4	Finca Santa Victoria	5	Mayo	2023-05-28T00:00:00	2024-11-08T17:00:00	3	Temperatura mínima	15.4
109632	7	Sololá	701	Sololá	4	Finca Santa Victoria	5	Mayo	2023-05-28T00:00:00	2024-11-08T17:00:00	5	Humedad	95
109633	7	Sololá	701	Sololá	4	Finca Santa Victoria	5	Mayo	2023-05-28T00:00:00	2024-11-08T17:00:00	6	Velocidad del viento	1.6
109634	7	Sololá	701	Sololá	4	Finca Santa Victoria	5	Mayo	2023-05-28T00:00:00	2024-11-08T17:00:00	7	Dirección del viento	1.61
109635	7	Sololá	701	Sololá	4	Finca Santa Victoria	5	Mayo	2023-05-28T00:00:00	2024-11-08T17:00:00	1	Precipitación	0
109636	7	Sololá	701	Sololá	4	Finca Santa Victoria	5	Mayo	2023-05-28T00:00:00	2024-11-08T17:00:00	8	Radiación solar	31
109637	7	Sololá	701	Sololá	4	Finca Santa Victoria	5	Mayo	2023-05-28T00:00:00	2024-11-08T18:00:00	2	Temperatura media	15.2
109638	7	Sololá	701	Sololá	4	Finca Santa Victoria	5	Mayo	2023-05-28T00:00:00	2024-11-08T18:00:00	4	Temperatura máxima	15.4
109639	7	Sololá	701	Sololá	4	Finca Santa Victoria	5	Mayo	2023-05-28T00:00:00	2024-11-08T18:00:00	3	Temperatura mínima	15.1
109640	7	Sololá	701	Sololá	4	Finca Santa Victoria	5	Mayo	2023-05-28T00:00:00	2024-11-08T18:00:00	5	Humedad	95
109641	7	Sololá	701	Sololá	4	Finca Santa Victoria	5	Mayo	2023-05-28T00:00:00	2024-11-08T18:00:00	6	Velocidad del viento	1.6
109642	7	Sololá	701	Sololá	4	Finca Santa Victoria	5	Mayo	2023-05-28T00:00:00	2024-11-08T18:00:00	7	Dirección del viento	1.61
109643	7	Sololá	701	Sololá	4	Finca Santa Victoria	5	Mayo	2023-05-28T00:00:00	2024-11-08T18:00:00	1	Precipitación	0
109644	7	Sololá	701	Sololá	4	Finca Santa Victoria	5	Mayo	2023-05-28T00:00:00	2024-11-08T18:00:00	8	Radiación solar	11
109645	7	Sololá	701	Sololá	4	Finca Santa Victoria	5	Mayo	2023-05-28T00:00:00	2024-11-08T19:00:00	2	Temperatura media	14.9
109646	7	Sololá	701	Sololá	4	Finca Santa Victoria	5	Mayo	2023-05-28T00:00:00	2024-11-08T19:00:00	4	Temperatura máxima	15.3
109647	7	Sololá	701	Sololá	4	Finca Santa Victoria	5	Mayo	2023-05-28T00:00:00	2024-11-08T19:00:00	3	Temperatura mínima	14.9
109648	7	Sololá	701	Sololá	4	Finca Santa Victoria	5	Mayo	2023-05-28T00:00:00	2024-11-08T19:00:00	5	Humedad	96
109649	7	Sololá	701	Sololá	4	Finca Santa Victoria	5	Mayo	2023-05-28T00:00:00	2024-11-08T19:00:00	6	Velocidad del viento	0
109650	7	Sololá	701	Sololá	4	Finca Santa Victoria	5	Mayo	2023-05-28T00:00:00	2024-11-08T19:00:00	7	Dirección del viento	0
109651	7	Sololá	701	Sololá	4	Finca Santa Victoria	5	Mayo	2023-05-28T00:00:00	2024-11-08T19:00:00	1	Precipitación	0
109652	7	Sololá	701	Sololá	4	Finca Santa Victoria	5	Mayo	2023-05-28T00:00:00	2024-11-08T19:00:00	8	Radiación solar	0
109653	7	Sololá	701	Sololá	4	Finca Santa Victoria	5	Mayo	2023-05-28T00:00:00	2024-11-08T20:00:00	2	Temperatura media	14.7
109654	7	Sololá	701	Sololá	4	Finca Santa Victoria	5	Mayo	2023-05-28T00:00:00	2024-11-08T20:00:00	4	Temperatura máxima	14.9
109655	7	Sololá	701	Sololá	4	Finca Santa Victoria	5	Mayo	2023-05-28T00:00:00	2024-11-08T20:00:00	3	Temperatura mínima	14.7
109656	7	Sololá	701	Sololá	4	Finca Santa Victoria	5	Mayo	2023-05-28T00:00:00	2024-11-08T20:00:00	5	Humedad	96
109657	7	Sololá	701	Sololá	4	Finca Santa Victoria	5	Mayo	2023-05-28T00:00:00	2024-11-08T20:00:00	6	Velocidad del viento	0
109658	7	Sololá	701	Sololá	4	Finca Santa Victoria	5	Mayo	2023-05-28T00:00:00	2024-11-08T20:00:00	7	Dirección del viento	0
109659	7	Sololá	701	Sololá	4	Finca Santa Victoria	5	Mayo	2023-05-28T00:00:00	2024-11-08T20:00:00	1	Precipitación	0
109660	7	Sololá	701	Sololá	4	Finca Santa Victoria	5	Mayo	2023-05-28T00:00:00	2024-11-08T20:00:00	8	Radiación solar	0
109661	7	Sololá	701	Sololá	4	Finca Santa Victoria	5	Mayo	2023-05-28T00:00:00	2024-11-08T21:00:00	2	Temperatura media	14.6
109662	7	Sololá	701	Sololá	4	Finca Santa Victoria	5	Mayo	2023-05-28T00:00:00	2024-11-08T21:00:00	4	Temperatura máxima	14.7
109663	7	Sololá	701	Sololá	4	Finca Santa Victoria	5	Mayo	2023-05-28T00:00:00	2024-11-08T21:00:00	3	Temperatura mínima	14.5
109664	7	Sololá	701	Sololá	4	Finca Santa Victoria	5	Mayo	2023-05-28T00:00:00	2024-11-08T21:00:00	5	Humedad	97
109665	7	Sololá	701	Sololá	4	Finca Santa Victoria	5	Mayo	2023-05-28T00:00:00	2024-11-08T21:00:00	6	Velocidad del viento	0
109666	7	Sololá	701	Sololá	4	Finca Santa Victoria	5	Mayo	2023-05-28T00:00:00	2024-11-08T21:00:00	7	Dirección del viento	0
109667	7	Sololá	701	Sololá	4	Finca Santa Victoria	5	Mayo	2023-05-28T00:00:00	2024-11-08T21:00:00	1	Precipitación	0
109668	7	Sololá	701	Sololá	4	Finca Santa Victoria	5	Mayo	2023-05-28T00:00:00	2024-11-08T21:00:00	8	Radiación solar	0
109669	7	Sololá	701	Sololá	4	Finca Santa Victoria	5	Mayo	2023-05-28T00:00:00	2024-11-08T22:00:00	2	Temperatura media	14.8
109670	7	Sololá	701	Sololá	4	Finca Santa Victoria	5	Mayo	2023-05-28T00:00:00	2024-11-08T22:00:00	4	Temperatura máxima	14.8
109671	7	Sololá	701	Sololá	4	Finca Santa Victoria	5	Mayo	2023-05-28T00:00:00	2024-11-08T22:00:00	3	Temperatura mínima	14.6
109672	7	Sololá	701	Sololá	4	Finca Santa Victoria	5	Mayo	2023-05-28T00:00:00	2024-11-08T22:00:00	5	Humedad	95
109673	7	Sololá	701	Sololá	4	Finca Santa Victoria	5	Mayo	2023-05-28T00:00:00	2024-11-08T22:00:00	6	Velocidad del viento	0
109674	7	Sololá	701	Sololá	4	Finca Santa Victoria	5	Mayo	2023-05-28T00:00:00	2024-11-08T22:00:00	7	Dirección del viento	0
109675	7	Sololá	701	Sololá	4	Finca Santa Victoria	5	Mayo	2023-05-28T00:00:00	2024-11-08T22:00:00	1	Precipitación	0
109676	7	Sololá	701	Sololá	4	Finca Santa Victoria	5	Mayo	2023-05-28T00:00:00	2024-11-08T22:00:00	8	Radiación solar	0
109677	7	Sololá	701	Sololá	4	Finca Santa Victoria	5	Mayo	2023-05-28T00:00:00	2024-11-08T23:00:00	2	Temperatura media	14.7
109678	7	Sololá	701	Sololá	4	Finca Santa Victoria	5	Mayo	2023-05-28T00:00:00	2024-11-08T23:00:00	4	Temperatura máxima	14.8
109679	7	Sololá	701	Sololá	4	Finca Santa Victoria	5	Mayo	2023-05-28T00:00:00	2024-11-08T23:00:00	3	Temperatura mínima	14.6
109680	7	Sololá	701	Sololá	4	Finca Santa Victoria	5	Mayo	2023-05-28T00:00:00	2024-11-08T23:00:00	5	Humedad	97
109681	7	Sololá	701	Sololá	4	Finca Santa Victoria	5	Mayo	2023-05-28T00:00:00	2024-11-08T23:00:00	6	Velocidad del viento	0
109682	7	Sololá	701	Sololá	4	Finca Santa Victoria	5	Mayo	2023-05-28T00:00:00	2024-11-08T23:00:00	7	Dirección del viento	0
109683	7	Sololá	701	Sololá	4	Finca Santa Victoria	5	Mayo	2023-05-28T00:00:00	2024-11-08T23:00:00	1	Precipitación	0
109684	7	Sololá	701	Sololá	4	Finca Santa Victoria	5	Mayo	2023-05-28T00:00:00	2024-11-08T23:00:00	8	Radiación solar	0
109685	7	Sololá	701	Sololá	4	Finca Santa Victoria	5	Mayo	2023-05-29T00:00:00	2024-11-08T00:00:00	2	Temperatura media	13.9
109686	7	Sololá	701	Sololá	4	Finca Santa Victoria	5	Mayo	2023-05-29T00:00:00	2024-11-08T00:00:00	4	Temperatura máxima	14.7
109687	7	Sololá	701	Sololá	4	Finca Santa Victoria	5	Mayo	2023-05-29T00:00:00	2024-11-08T00:00:00	3	Temperatura mínima	13.9
109688	7	Sololá	701	Sololá	4	Finca Santa Victoria	5	Mayo	2023-05-29T00:00:00	2024-11-08T00:00:00	5	Humedad	93
109689	7	Sololá	701	Sololá	4	Finca Santa Victoria	5	Mayo	2023-05-29T00:00:00	2024-11-08T00:00:00	6	Velocidad del viento	0
109690	7	Sololá	701	Sololá	4	Finca Santa Victoria	5	Mayo	2023-05-29T00:00:00	2024-11-08T00:00:00	7	Dirección del viento	0
109691	7	Sololá	701	Sololá	4	Finca Santa Victoria	5	Mayo	2023-05-29T00:00:00	2024-11-08T00:00:00	1	Precipitación	0
109692	7	Sololá	701	Sololá	4	Finca Santa Victoria	5	Mayo	2023-05-29T00:00:00	2024-11-08T00:00:00	8	Radiación solar	0
109693	7	Sololá	701	Sololá	4	Finca Santa Victoria	5	Mayo	2023-05-29T00:00:00	2024-11-08T01:00:00	2	Temperatura media	13.4
109694	7	Sololá	701	Sololá	4	Finca Santa Victoria	5	Mayo	2023-05-29T00:00:00	2024-11-08T01:00:00	4	Temperatura máxima	13.9
109695	7	Sololá	701	Sololá	4	Finca Santa Victoria	5	Mayo	2023-05-29T00:00:00	2024-11-08T01:00:00	3	Temperatura mínima	13.3
109696	7	Sololá	701	Sololá	4	Finca Santa Victoria	5	Mayo	2023-05-29T00:00:00	2024-11-08T01:00:00	5	Humedad	94
109697	7	Sololá	701	Sololá	4	Finca Santa Victoria	5	Mayo	2023-05-29T00:00:00	2024-11-08T01:00:00	6	Velocidad del viento	1.6
109698	7	Sololá	701	Sololá	4	Finca Santa Victoria	5	Mayo	2023-05-29T00:00:00	2024-11-08T01:00:00	7	Dirección del viento	1.61
109699	7	Sololá	701	Sololá	4	Finca Santa Victoria	5	Mayo	2023-05-29T00:00:00	2024-11-08T01:00:00	1	Precipitación	0.4
109700	7	Sololá	701	Sololá	4	Finca Santa Victoria	5	Mayo	2023-05-29T00:00:00	2024-11-08T01:00:00	8	Radiación solar	0
109701	7	Sololá	701	Sololá	4	Finca Santa Victoria	5	Mayo	2023-05-29T00:00:00	2024-11-08T02:00:00	2	Temperatura media	12.8
109702	7	Sololá	701	Sololá	4	Finca Santa Victoria	5	Mayo	2023-05-29T00:00:00	2024-11-08T02:00:00	4	Temperatura máxima	13.4
109703	7	Sololá	701	Sololá	4	Finca Santa Victoria	5	Mayo	2023-05-29T00:00:00	2024-11-08T02:00:00	3	Temperatura mínima	12.7
109704	7	Sololá	701	Sololá	4	Finca Santa Victoria	5	Mayo	2023-05-29T00:00:00	2024-11-08T02:00:00	5	Humedad	97
109705	7	Sololá	701	Sololá	4	Finca Santa Victoria	5	Mayo	2023-05-29T00:00:00	2024-11-08T02:00:00	6	Velocidad del viento	0
109706	7	Sololá	701	Sololá	4	Finca Santa Victoria	5	Mayo	2023-05-29T00:00:00	2024-11-08T02:00:00	7	Dirección del viento	0
109707	7	Sololá	701	Sololá	4	Finca Santa Victoria	5	Mayo	2023-05-29T00:00:00	2024-11-08T02:00:00	1	Precipitación	1.8
109708	7	Sololá	701	Sololá	4	Finca Santa Victoria	5	Mayo	2023-05-29T00:00:00	2024-11-08T02:00:00	8	Radiación solar	0
109709	7	Sololá	701	Sololá	4	Finca Santa Victoria	5	Mayo	2023-05-29T00:00:00	2024-11-08T03:00:00	2	Temperatura media	12.7
109710	7	Sololá	701	Sololá	4	Finca Santa Victoria	5	Mayo	2023-05-29T00:00:00	2024-11-08T03:00:00	4	Temperatura máxima	12.8
109711	7	Sololá	701	Sololá	4	Finca Santa Victoria	5	Mayo	2023-05-29T00:00:00	2024-11-08T03:00:00	3	Temperatura mínima	12.7
109712	7	Sololá	701	Sololá	4	Finca Santa Victoria	5	Mayo	2023-05-29T00:00:00	2024-11-08T03:00:00	5	Humedad	97
109713	7	Sololá	701	Sololá	4	Finca Santa Victoria	5	Mayo	2023-05-29T00:00:00	2024-11-08T03:00:00	6	Velocidad del viento	0
109714	7	Sololá	701	Sololá	4	Finca Santa Victoria	5	Mayo	2023-05-29T00:00:00	2024-11-08T03:00:00	7	Dirección del viento	0
109715	7	Sololá	701	Sololá	4	Finca Santa Victoria	5	Mayo	2023-05-29T00:00:00	2024-11-08T03:00:00	1	Precipitación	3.4
109716	7	Sololá	701	Sololá	4	Finca Santa Victoria	5	Mayo	2023-05-29T00:00:00	2024-11-08T03:00:00	8	Radiación solar	0
109717	7	Sololá	701	Sololá	4	Finca Santa Victoria	5	Mayo	2023-05-29T00:00:00	2024-11-08T04:00:00	2	Temperatura media	12.9
109718	7	Sololá	701	Sololá	4	Finca Santa Victoria	5	Mayo	2023-05-29T00:00:00	2024-11-08T04:00:00	4	Temperatura máxima	12.9
109719	7	Sololá	701	Sololá	4	Finca Santa Victoria	5	Mayo	2023-05-29T00:00:00	2024-11-08T04:00:00	3	Temperatura mínima	12.5
109720	7	Sololá	701	Sololá	4	Finca Santa Victoria	5	Mayo	2023-05-29T00:00:00	2024-11-08T04:00:00	5	Humedad	98
109721	7	Sololá	701	Sololá	4	Finca Santa Victoria	5	Mayo	2023-05-29T00:00:00	2024-11-08T04:00:00	6	Velocidad del viento	0
109722	7	Sololá	701	Sololá	4	Finca Santa Victoria	5	Mayo	2023-05-29T00:00:00	2024-11-08T04:00:00	7	Dirección del viento	0
109723	7	Sololá	701	Sololá	4	Finca Santa Victoria	5	Mayo	2023-05-29T00:00:00	2024-11-08T04:00:00	1	Precipitación	0.8
109724	7	Sololá	701	Sololá	4	Finca Santa Victoria	5	Mayo	2023-05-29T00:00:00	2024-11-08T04:00:00	8	Radiación solar	0
109725	7	Sololá	701	Sololá	4	Finca Santa Victoria	5	Mayo	2023-05-29T00:00:00	2024-11-08T05:00:00	2	Temperatura media	12.9
109726	7	Sololá	701	Sololá	4	Finca Santa Victoria	5	Mayo	2023-05-29T00:00:00	2024-11-08T05:00:00	4	Temperatura máxima	13
109727	7	Sololá	701	Sololá	4	Finca Santa Victoria	5	Mayo	2023-05-29T00:00:00	2024-11-08T05:00:00	3	Temperatura mínima	12.9
109728	7	Sololá	701	Sololá	4	Finca Santa Victoria	5	Mayo	2023-05-29T00:00:00	2024-11-08T05:00:00	5	Humedad	98
109729	7	Sololá	701	Sololá	4	Finca Santa Victoria	5	Mayo	2023-05-29T00:00:00	2024-11-08T05:00:00	6	Velocidad del viento	0
109730	7	Sololá	701	Sololá	4	Finca Santa Victoria	5	Mayo	2023-05-29T00:00:00	2024-11-08T05:00:00	7	Dirección del viento	0
109731	7	Sololá	701	Sololá	4	Finca Santa Victoria	5	Mayo	2023-05-29T00:00:00	2024-11-08T05:00:00	1	Precipitación	0.2
109732	7	Sololá	701	Sololá	4	Finca Santa Victoria	5	Mayo	2023-05-29T00:00:00	2024-11-08T05:00:00	8	Radiación solar	0
109733	7	Sololá	701	Sololá	4	Finca Santa Victoria	5	Mayo	2023-05-29T00:00:00	2024-11-08T06:00:00	2	Temperatura media	12.9
109734	7	Sololá	701	Sololá	4	Finca Santa Victoria	5	Mayo	2023-05-29T00:00:00	2024-11-08T06:00:00	4	Temperatura máxima	12.9
109735	7	Sololá	701	Sololá	4	Finca Santa Victoria	5	Mayo	2023-05-29T00:00:00	2024-11-08T06:00:00	3	Temperatura mínima	12.8
109736	7	Sololá	701	Sololá	4	Finca Santa Victoria	5	Mayo	2023-05-29T00:00:00	2024-11-08T06:00:00	5	Humedad	98
109737	7	Sololá	701	Sololá	4	Finca Santa Victoria	5	Mayo	2023-05-29T00:00:00	2024-11-08T06:00:00	6	Velocidad del viento	0
109738	7	Sololá	701	Sololá	4	Finca Santa Victoria	5	Mayo	2023-05-29T00:00:00	2024-11-08T06:00:00	7	Dirección del viento	0
109739	7	Sololá	701	Sololá	4	Finca Santa Victoria	5	Mayo	2023-05-29T00:00:00	2024-11-08T06:00:00	1	Precipitación	0.2
109740	7	Sololá	701	Sololá	4	Finca Santa Victoria	5	Mayo	2023-05-29T00:00:00	2024-11-08T06:00:00	8	Radiación solar	2
109741	7	Sololá	701	Sololá	4	Finca Santa Victoria	5	Mayo	2023-05-29T00:00:00	2024-11-08T07:00:00	2	Temperatura media	12.8
109742	7	Sololá	701	Sololá	4	Finca Santa Victoria	5	Mayo	2023-05-29T00:00:00	2024-11-08T07:00:00	4	Temperatura máxima	13
109743	7	Sololá	701	Sololá	4	Finca Santa Victoria	5	Mayo	2023-05-29T00:00:00	2024-11-08T07:00:00	3	Temperatura mínima	12.8
109744	7	Sololá	701	Sololá	4	Finca Santa Victoria	5	Mayo	2023-05-29T00:00:00	2024-11-08T07:00:00	5	Humedad	98
109745	7	Sololá	701	Sololá	4	Finca Santa Victoria	5	Mayo	2023-05-29T00:00:00	2024-11-08T07:00:00	6	Velocidad del viento	1.6
109746	7	Sololá	701	Sololá	4	Finca Santa Victoria	5	Mayo	2023-05-29T00:00:00	2024-11-08T07:00:00	7	Dirección del viento	1.61
109747	7	Sololá	701	Sololá	4	Finca Santa Victoria	5	Mayo	2023-05-29T00:00:00	2024-11-08T07:00:00	1	Precipitación	0.2
109748	7	Sololá	701	Sololá	4	Finca Santa Victoria	5	Mayo	2023-05-29T00:00:00	2024-11-08T07:00:00	8	Radiación solar	15
109749	7	Sololá	701	Sololá	4	Finca Santa Victoria	5	Mayo	2023-05-29T00:00:00	2024-11-08T08:00:00	2	Temperatura media	13.7
109750	7	Sololá	701	Sololá	4	Finca Santa Victoria	5	Mayo	2023-05-29T00:00:00	2024-11-08T08:00:00	4	Temperatura máxima	13.7
109751	7	Sololá	701	Sololá	4	Finca Santa Victoria	5	Mayo	2023-05-29T00:00:00	2024-11-08T08:00:00	3	Temperatura mínima	12.8
109752	7	Sololá	701	Sololá	4	Finca Santa Victoria	5	Mayo	2023-05-29T00:00:00	2024-11-08T08:00:00	5	Humedad	98
109753	7	Sololá	701	Sololá	4	Finca Santa Victoria	5	Mayo	2023-05-29T00:00:00	2024-11-08T08:00:00	6	Velocidad del viento	1.6
109754	7	Sololá	701	Sololá	4	Finca Santa Victoria	5	Mayo	2023-05-29T00:00:00	2024-11-08T08:00:00	7	Dirección del viento	1.61
109755	7	Sololá	701	Sololá	4	Finca Santa Victoria	5	Mayo	2023-05-29T00:00:00	2024-11-08T08:00:00	1	Precipitación	0
109756	7	Sololá	701	Sololá	4	Finca Santa Victoria	5	Mayo	2023-05-29T00:00:00	2024-11-08T08:00:00	8	Radiación solar	58
109757	7	Sololá	701	Sololá	4	Finca Santa Victoria	5	Mayo	2023-05-29T00:00:00	2024-11-08T09:00:00	2	Temperatura media	14.3
109758	7	Sololá	701	Sololá	4	Finca Santa Victoria	5	Mayo	2023-05-29T00:00:00	2024-11-08T09:00:00	4	Temperatura máxima	14.6
109759	7	Sololá	701	Sololá	4	Finca Santa Victoria	5	Mayo	2023-05-29T00:00:00	2024-11-08T09:00:00	3	Temperatura mínima	13.7
109760	7	Sololá	701	Sololá	4	Finca Santa Victoria	5	Mayo	2023-05-29T00:00:00	2024-11-08T09:00:00	5	Humedad	95
109761	7	Sololá	701	Sololá	4	Finca Santa Victoria	5	Mayo	2023-05-29T00:00:00	2024-11-08T09:00:00	6	Velocidad del viento	0
109762	7	Sololá	701	Sololá	4	Finca Santa Victoria	5	Mayo	2023-05-29T00:00:00	2024-11-08T09:00:00	7	Dirección del viento	0
109763	7	Sololá	701	Sololá	4	Finca Santa Victoria	5	Mayo	2023-05-29T00:00:00	2024-11-08T09:00:00	1	Precipitación	0
109764	7	Sololá	701	Sololá	4	Finca Santa Victoria	5	Mayo	2023-05-29T00:00:00	2024-11-08T09:00:00	8	Radiación solar	101
109765	7	Sololá	701	Sololá	4	Finca Santa Victoria	5	Mayo	2023-05-29T00:00:00	2024-11-08T10:00:00	2	Temperatura media	16
109766	7	Sololá	701	Sololá	4	Finca Santa Victoria	5	Mayo	2023-05-29T00:00:00	2024-11-08T10:00:00	4	Temperatura máxima	16
109767	7	Sololá	701	Sololá	4	Finca Santa Victoria	5	Mayo	2023-05-29T00:00:00	2024-11-08T10:00:00	3	Temperatura mínima	14.3
109768	7	Sololá	701	Sololá	4	Finca Santa Victoria	5	Mayo	2023-05-29T00:00:00	2024-11-08T10:00:00	5	Humedad	89
109769	7	Sololá	701	Sololá	4	Finca Santa Victoria	5	Mayo	2023-05-29T00:00:00	2024-11-08T10:00:00	6	Velocidad del viento	0
109770	7	Sololá	701	Sololá	4	Finca Santa Victoria	5	Mayo	2023-05-29T00:00:00	2024-11-08T10:00:00	7	Dirección del viento	0
109771	7	Sololá	701	Sololá	4	Finca Santa Victoria	5	Mayo	2023-05-29T00:00:00	2024-11-08T10:00:00	1	Precipitación	0
109772	7	Sololá	701	Sololá	4	Finca Santa Victoria	5	Mayo	2023-05-29T00:00:00	2024-11-08T10:00:00	8	Radiación solar	201
109773	7	Sololá	701	Sololá	4	Finca Santa Victoria	5	Mayo	2023-05-29T00:00:00	2024-11-08T11:00:00	2	Temperatura media	18.7
109774	7	Sololá	701	Sololá	4	Finca Santa Victoria	5	Mayo	2023-05-29T00:00:00	2024-11-08T11:00:00	4	Temperatura máxima	18.8
109775	7	Sololá	701	Sololá	4	Finca Santa Victoria	5	Mayo	2023-05-29T00:00:00	2024-11-08T11:00:00	3	Temperatura mínima	16.1
109776	7	Sololá	701	Sololá	4	Finca Santa Victoria	5	Mayo	2023-05-29T00:00:00	2024-11-08T11:00:00	5	Humedad	78
109777	7	Sololá	701	Sololá	4	Finca Santa Victoria	5	Mayo	2023-05-29T00:00:00	2024-11-08T11:00:00	6	Velocidad del viento	3.2
109778	7	Sololá	701	Sololá	4	Finca Santa Victoria	5	Mayo	2023-05-29T00:00:00	2024-11-08T11:00:00	7	Dirección del viento	3.22
109779	7	Sololá	701	Sololá	4	Finca Santa Victoria	5	Mayo	2023-05-29T00:00:00	2024-11-08T11:00:00	1	Precipitación	0
109780	7	Sololá	701	Sololá	4	Finca Santa Victoria	5	Mayo	2023-05-29T00:00:00	2024-11-08T11:00:00	8	Radiación solar	504
109781	7	Sololá	701	Sololá	4	Finca Santa Victoria	5	Mayo	2023-05-29T00:00:00	2024-11-08T12:00:00	2	Temperatura media	19.7
109782	7	Sololá	701	Sololá	4	Finca Santa Victoria	5	Mayo	2023-05-29T00:00:00	2024-11-08T12:00:00	4	Temperatura máxima	19.8
109783	7	Sololá	701	Sololá	4	Finca Santa Victoria	5	Mayo	2023-05-29T00:00:00	2024-11-08T12:00:00	3	Temperatura mínima	18.8
109784	7	Sololá	701	Sololá	4	Finca Santa Victoria	5	Mayo	2023-05-29T00:00:00	2024-11-08T12:00:00	5	Humedad	72
109785	7	Sololá	701	Sololá	4	Finca Santa Victoria	5	Mayo	2023-05-29T00:00:00	2024-11-08T12:00:00	6	Velocidad del viento	3.2
109786	7	Sololá	701	Sololá	4	Finca Santa Victoria	5	Mayo	2023-05-29T00:00:00	2024-11-08T12:00:00	7	Dirección del viento	3.22
109787	7	Sololá	701	Sololá	4	Finca Santa Victoria	5	Mayo	2023-05-29T00:00:00	2024-11-08T12:00:00	1	Precipitación	0
109788	7	Sololá	701	Sololá	4	Finca Santa Victoria	5	Mayo	2023-05-29T00:00:00	2024-11-08T12:00:00	8	Radiación solar	705
109789	7	Sololá	701	Sololá	4	Finca Santa Victoria	5	Mayo	2023-05-29T00:00:00	2024-11-08T13:00:00	2	Temperatura media	19.8
109790	7	Sololá	701	Sololá	4	Finca Santa Victoria	5	Mayo	2023-05-29T00:00:00	2024-11-08T13:00:00	4	Temperatura máxima	20.2
109791	7	Sololá	701	Sololá	4	Finca Santa Victoria	5	Mayo	2023-05-29T00:00:00	2024-11-08T13:00:00	3	Temperatura mínima	19.5
109792	7	Sololá	701	Sololá	4	Finca Santa Victoria	5	Mayo	2023-05-29T00:00:00	2024-11-08T13:00:00	5	Humedad	73
109793	7	Sololá	701	Sololá	4	Finca Santa Victoria	5	Mayo	2023-05-29T00:00:00	2024-11-08T13:00:00	6	Velocidad del viento	3.2
109794	7	Sololá	701	Sololá	4	Finca Santa Victoria	5	Mayo	2023-05-29T00:00:00	2024-11-08T13:00:00	7	Dirección del viento	3.22
109795	7	Sololá	701	Sololá	4	Finca Santa Victoria	5	Mayo	2023-05-29T00:00:00	2024-11-08T13:00:00	1	Precipitación	0
109796	7	Sololá	701	Sololá	4	Finca Santa Victoria	5	Mayo	2023-05-29T00:00:00	2024-11-08T13:00:00	8	Radiación solar	626
109797	7	Sololá	701	Sololá	4	Finca Santa Victoria	5	Mayo	2023-05-29T00:00:00	2024-11-08T14:00:00	2	Temperatura media	19.3
109798	7	Sololá	701	Sololá	4	Finca Santa Victoria	5	Mayo	2023-05-29T00:00:00	2024-11-08T14:00:00	4	Temperatura máxima	19.8
109799	7	Sololá	701	Sololá	4	Finca Santa Victoria	5	Mayo	2023-05-29T00:00:00	2024-11-08T14:00:00	3	Temperatura mínima	19.3
109800	7	Sololá	701	Sololá	4	Finca Santa Victoria	5	Mayo	2023-05-29T00:00:00	2024-11-08T14:00:00	5	Humedad	76
109801	7	Sololá	701	Sololá	4	Finca Santa Victoria	5	Mayo	2023-05-29T00:00:00	2024-11-08T14:00:00	6	Velocidad del viento	4.8
109802	7	Sololá	701	Sololá	4	Finca Santa Victoria	5	Mayo	2023-05-29T00:00:00	2024-11-08T14:00:00	7	Dirección del viento	4.83
109803	7	Sololá	701	Sololá	4	Finca Santa Victoria	5	Mayo	2023-05-29T00:00:00	2024-11-08T14:00:00	1	Precipitación	0
109804	7	Sololá	701	Sololá	4	Finca Santa Victoria	5	Mayo	2023-05-29T00:00:00	2024-11-08T14:00:00	8	Radiación solar	620
109805	7	Sololá	701	Sololá	4	Finca Santa Victoria	5	Mayo	2023-05-29T00:00:00	2024-11-08T15:00:00	2	Temperatura media	18.3
109806	7	Sololá	701	Sololá	4	Finca Santa Victoria	5	Mayo	2023-05-29T00:00:00	2024-11-08T15:00:00	4	Temperatura máxima	19.3
109807	7	Sololá	701	Sololá	4	Finca Santa Victoria	5	Mayo	2023-05-29T00:00:00	2024-11-08T15:00:00	3	Temperatura mínima	18.3
109808	7	Sololá	701	Sololá	4	Finca Santa Victoria	5	Mayo	2023-05-29T00:00:00	2024-11-08T15:00:00	5	Humedad	84
109809	7	Sololá	701	Sololá	4	Finca Santa Victoria	5	Mayo	2023-05-29T00:00:00	2024-11-08T15:00:00	6	Velocidad del viento	3.2
109810	7	Sololá	701	Sololá	4	Finca Santa Victoria	5	Mayo	2023-05-29T00:00:00	2024-11-08T15:00:00	7	Dirección del viento	3.22
109811	7	Sololá	701	Sololá	4	Finca Santa Victoria	5	Mayo	2023-05-29T00:00:00	2024-11-08T15:00:00	1	Precipitación	0
109812	7	Sololá	701	Sololá	4	Finca Santa Victoria	5	Mayo	2023-05-29T00:00:00	2024-11-08T15:00:00	8	Radiación solar	275
109813	7	Sololá	701	Sololá	4	Finca Santa Victoria	5	Mayo	2023-05-29T00:00:00	2024-11-08T16:00:00	2	Temperatura media	16.9
109814	7	Sololá	701	Sololá	4	Finca Santa Victoria	5	Mayo	2023-05-29T00:00:00	2024-11-08T16:00:00	4	Temperatura máxima	18.6
109815	7	Sololá	701	Sololá	4	Finca Santa Victoria	5	Mayo	2023-05-29T00:00:00	2024-11-08T16:00:00	3	Temperatura mínima	16.9
109816	7	Sololá	701	Sololá	4	Finca Santa Victoria	5	Mayo	2023-05-29T00:00:00	2024-11-08T16:00:00	5	Humedad	93
109817	7	Sololá	701	Sololá	4	Finca Santa Victoria	5	Mayo	2023-05-29T00:00:00	2024-11-08T16:00:00	6	Velocidad del viento	3.2
109818	7	Sololá	701	Sololá	4	Finca Santa Victoria	5	Mayo	2023-05-29T00:00:00	2024-11-08T16:00:00	7	Dirección del viento	3.22
109819	7	Sololá	701	Sololá	4	Finca Santa Victoria	5	Mayo	2023-05-29T00:00:00	2024-11-08T16:00:00	1	Precipitación	0
109820	7	Sololá	701	Sololá	4	Finca Santa Victoria	5	Mayo	2023-05-29T00:00:00	2024-11-08T16:00:00	8	Radiación solar	115
109821	7	Sololá	701	Sololá	4	Finca Santa Victoria	5	Mayo	2023-05-29T00:00:00	2024-11-08T17:00:00	2	Temperatura media	15.1
109822	7	Sololá	701	Sololá	4	Finca Santa Victoria	5	Mayo	2023-05-29T00:00:00	2024-11-08T17:00:00	4	Temperatura máxima	16.9
109823	7	Sololá	701	Sololá	4	Finca Santa Victoria	5	Mayo	2023-05-29T00:00:00	2024-11-08T17:00:00	3	Temperatura mínima	15.1
109824	7	Sololá	701	Sololá	4	Finca Santa Victoria	5	Mayo	2023-05-29T00:00:00	2024-11-08T17:00:00	5	Humedad	88
109825	7	Sololá	701	Sololá	4	Finca Santa Victoria	5	Mayo	2023-05-29T00:00:00	2024-11-08T17:00:00	6	Velocidad del viento	1.6
109826	7	Sololá	701	Sololá	4	Finca Santa Victoria	5	Mayo	2023-05-29T00:00:00	2024-11-08T17:00:00	7	Dirección del viento	1.61
109827	7	Sololá	701	Sololá	4	Finca Santa Victoria	5	Mayo	2023-05-29T00:00:00	2024-11-08T17:00:00	1	Precipitación	0.4
109828	7	Sololá	701	Sololá	4	Finca Santa Victoria	5	Mayo	2023-05-29T00:00:00	2024-11-08T17:00:00	8	Radiación solar	10
109829	7	Sololá	701	Sololá	4	Finca Santa Victoria	5	Mayo	2023-05-29T00:00:00	2024-11-08T18:00:00	2	Temperatura media	12.5
109830	7	Sololá	701	Sololá	4	Finca Santa Victoria	5	Mayo	2023-05-29T00:00:00	2024-11-08T18:00:00	4	Temperatura máxima	15.1
109831	7	Sololá	701	Sololá	4	Finca Santa Victoria	5	Mayo	2023-05-29T00:00:00	2024-11-08T18:00:00	3	Temperatura mínima	12.4
109832	7	Sololá	701	Sololá	4	Finca Santa Victoria	5	Mayo	2023-05-29T00:00:00	2024-11-08T18:00:00	5	Humedad	94
109833	7	Sololá	701	Sololá	4	Finca Santa Victoria	5	Mayo	2023-05-29T00:00:00	2024-11-08T18:00:00	6	Velocidad del viento	1.6
109834	7	Sololá	701	Sololá	4	Finca Santa Victoria	5	Mayo	2023-05-29T00:00:00	2024-11-08T18:00:00	7	Dirección del viento	1.61
109835	7	Sololá	701	Sololá	4	Finca Santa Victoria	5	Mayo	2023-05-29T00:00:00	2024-11-08T18:00:00	1	Precipitación	9.2
109836	7	Sololá	701	Sololá	4	Finca Santa Victoria	5	Mayo	2023-05-29T00:00:00	2024-11-08T18:00:00	8	Radiación solar	13
109837	7	Sololá	701	Sololá	4	Finca Santa Victoria	5	Mayo	2023-05-29T00:00:00	2024-11-08T19:00:00	2	Temperatura media	12.6
109838	7	Sololá	701	Sololá	4	Finca Santa Victoria	5	Mayo	2023-05-29T00:00:00	2024-11-08T19:00:00	4	Temperatura máxima	12.6
109839	7	Sololá	701	Sololá	4	Finca Santa Victoria	5	Mayo	2023-05-29T00:00:00	2024-11-08T19:00:00	3	Temperatura mínima	12.4
109840	7	Sololá	701	Sololá	4	Finca Santa Victoria	5	Mayo	2023-05-29T00:00:00	2024-11-08T19:00:00	5	Humedad	94
109841	7	Sololá	701	Sololá	4	Finca Santa Victoria	5	Mayo	2023-05-29T00:00:00	2024-11-08T19:00:00	6	Velocidad del viento	1.6
109842	7	Sololá	701	Sololá	4	Finca Santa Victoria	5	Mayo	2023-05-29T00:00:00	2024-11-08T19:00:00	7	Dirección del viento	1.61
109843	7	Sololá	701	Sololá	4	Finca Santa Victoria	5	Mayo	2023-05-29T00:00:00	2024-11-08T19:00:00	1	Precipitación	0
109844	7	Sololá	701	Sololá	4	Finca Santa Victoria	5	Mayo	2023-05-29T00:00:00	2024-11-08T19:00:00	8	Radiación solar	0
109845	7	Sololá	701	Sololá	4	Finca Santa Victoria	5	Mayo	2023-05-29T00:00:00	2024-11-08T20:00:00	2	Temperatura media	13.6
109846	7	Sololá	701	Sololá	4	Finca Santa Victoria	5	Mayo	2023-05-29T00:00:00	2024-11-08T20:00:00	4	Temperatura máxima	13.6
109847	7	Sololá	701	Sololá	4	Finca Santa Victoria	5	Mayo	2023-05-29T00:00:00	2024-11-08T20:00:00	3	Temperatura mínima	12.4
109848	7	Sololá	701	Sololá	4	Finca Santa Victoria	5	Mayo	2023-05-29T00:00:00	2024-11-08T20:00:00	5	Humedad	93
109849	7	Sololá	701	Sololá	4	Finca Santa Victoria	5	Mayo	2023-05-29T00:00:00	2024-11-08T20:00:00	6	Velocidad del viento	1.6
109850	7	Sololá	701	Sololá	4	Finca Santa Victoria	5	Mayo	2023-05-29T00:00:00	2024-11-08T20:00:00	7	Dirección del viento	1.61
109851	7	Sololá	701	Sololá	4	Finca Santa Victoria	5	Mayo	2023-05-29T00:00:00	2024-11-08T20:00:00	1	Precipitación	0
109852	7	Sololá	701	Sololá	4	Finca Santa Victoria	5	Mayo	2023-05-29T00:00:00	2024-11-08T20:00:00	8	Radiación solar	0
109853	7	Sololá	701	Sololá	4	Finca Santa Victoria	5	Mayo	2023-05-29T00:00:00	2024-11-08T21:00:00	2	Temperatura media	13
109854	7	Sololá	701	Sololá	4	Finca Santa Victoria	5	Mayo	2023-05-29T00:00:00	2024-11-08T21:00:00	4	Temperatura máxima	13.7
109855	7	Sololá	701	Sololá	4	Finca Santa Victoria	5	Mayo	2023-05-29T00:00:00	2024-11-08T21:00:00	3	Temperatura mínima	12.9
109856	7	Sololá	701	Sololá	4	Finca Santa Victoria	5	Mayo	2023-05-29T00:00:00	2024-11-08T21:00:00	5	Humedad	94
109857	7	Sololá	701	Sololá	4	Finca Santa Victoria	5	Mayo	2023-05-29T00:00:00	2024-11-08T21:00:00	6	Velocidad del viento	1.6
109858	7	Sololá	701	Sololá	4	Finca Santa Victoria	5	Mayo	2023-05-29T00:00:00	2024-11-08T21:00:00	7	Dirección del viento	1.61
109859	7	Sololá	701	Sololá	4	Finca Santa Victoria	5	Mayo	2023-05-29T00:00:00	2024-11-08T21:00:00	1	Precipitación	0
109860	7	Sololá	701	Sololá	4	Finca Santa Victoria	5	Mayo	2023-05-29T00:00:00	2024-11-08T21:00:00	8	Radiación solar	0
109861	7	Sololá	701	Sololá	4	Finca Santa Victoria	5	Mayo	2023-05-29T00:00:00	2024-11-08T22:00:00	2	Temperatura media	12.6
109862	7	Sololá	701	Sololá	4	Finca Santa Victoria	5	Mayo	2023-05-29T00:00:00	2024-11-08T22:00:00	4	Temperatura máxima	13
109863	7	Sololá	701	Sololá	4	Finca Santa Victoria	5	Mayo	2023-05-29T00:00:00	2024-11-08T22:00:00	3	Temperatura mínima	12.6
109864	7	Sololá	701	Sololá	4	Finca Santa Victoria	5	Mayo	2023-05-29T00:00:00	2024-11-08T22:00:00	5	Humedad	96
109865	7	Sololá	701	Sololá	4	Finca Santa Victoria	5	Mayo	2023-05-29T00:00:00	2024-11-08T22:00:00	6	Velocidad del viento	1.6
109866	7	Sololá	701	Sololá	4	Finca Santa Victoria	5	Mayo	2023-05-29T00:00:00	2024-11-08T22:00:00	7	Dirección del viento	1.61
109867	7	Sololá	701	Sololá	4	Finca Santa Victoria	5	Mayo	2023-05-29T00:00:00	2024-11-08T22:00:00	1	Precipitación	0
109868	7	Sololá	701	Sololá	4	Finca Santa Victoria	5	Mayo	2023-05-29T00:00:00	2024-11-08T22:00:00	8	Radiación solar	0
109869	7	Sololá	701	Sololá	4	Finca Santa Victoria	5	Mayo	2023-05-29T00:00:00	2024-11-08T23:00:00	2	Temperatura media	12.8
109870	7	Sololá	701	Sololá	4	Finca Santa Victoria	5	Mayo	2023-05-29T00:00:00	2024-11-08T23:00:00	4	Temperatura máxima	12.9
109871	7	Sololá	701	Sololá	4	Finca Santa Victoria	5	Mayo	2023-05-29T00:00:00	2024-11-08T23:00:00	3	Temperatura mínima	12.6
109872	7	Sololá	701	Sololá	4	Finca Santa Victoria	5	Mayo	2023-05-29T00:00:00	2024-11-08T23:00:00	5	Humedad	97
109873	7	Sololá	701	Sololá	4	Finca Santa Victoria	5	Mayo	2023-05-29T00:00:00	2024-11-08T23:00:00	6	Velocidad del viento	1.6
109874	7	Sololá	701	Sololá	4	Finca Santa Victoria	5	Mayo	2023-05-29T00:00:00	2024-11-08T23:00:00	7	Dirección del viento	1.61
109875	7	Sololá	701	Sololá	4	Finca Santa Victoria	5	Mayo	2023-05-29T00:00:00	2024-11-08T23:00:00	1	Precipitación	0
109876	7	Sololá	701	Sololá	4	Finca Santa Victoria	5	Mayo	2023-05-29T00:00:00	2024-11-08T23:00:00	8	Radiación solar	0
109877	7	Sololá	701	Sololá	4	Finca Santa Victoria	5	Mayo	2023-05-30T00:00:00	2024-11-08T00:00:00	2	Temperatura media	12.7
109878	7	Sololá	701	Sololá	4	Finca Santa Victoria	5	Mayo	2023-05-30T00:00:00	2024-11-08T00:00:00	4	Temperatura máxima	12.8
109879	7	Sololá	701	Sololá	4	Finca Santa Victoria	5	Mayo	2023-05-30T00:00:00	2024-11-08T00:00:00	3	Temperatura mínima	12.7
109880	7	Sololá	701	Sololá	4	Finca Santa Victoria	5	Mayo	2023-05-30T00:00:00	2024-11-08T00:00:00	5	Humedad	97
109881	7	Sololá	701	Sololá	4	Finca Santa Victoria	5	Mayo	2023-05-30T00:00:00	2024-11-08T00:00:00	6	Velocidad del viento	1.6
109882	7	Sololá	701	Sololá	4	Finca Santa Victoria	5	Mayo	2023-05-30T00:00:00	2024-11-08T00:00:00	7	Dirección del viento	1.61
109883	7	Sololá	701	Sololá	4	Finca Santa Victoria	5	Mayo	2023-05-30T00:00:00	2024-11-08T00:00:00	1	Precipitación	0
109884	7	Sololá	701	Sololá	4	Finca Santa Victoria	5	Mayo	2023-05-30T00:00:00	2024-11-08T00:00:00	8	Radiación solar	0
109885	7	Sololá	701	Sololá	4	Finca Santa Victoria	5	Mayo	2023-05-30T00:00:00	2024-11-08T01:00:00	2	Temperatura media	12.9
109886	7	Sololá	701	Sololá	4	Finca Santa Victoria	5	Mayo	2023-05-30T00:00:00	2024-11-08T01:00:00	4	Temperatura máxima	12.9
109887	7	Sololá	701	Sololá	4	Finca Santa Victoria	5	Mayo	2023-05-30T00:00:00	2024-11-08T01:00:00	3	Temperatura mínima	12.6
109888	7	Sololá	701	Sololá	4	Finca Santa Victoria	5	Mayo	2023-05-30T00:00:00	2024-11-08T01:00:00	5	Humedad	94
109889	7	Sololá	701	Sololá	4	Finca Santa Victoria	5	Mayo	2023-05-30T00:00:00	2024-11-08T01:00:00	6	Velocidad del viento	1.6
109890	7	Sololá	701	Sololá	4	Finca Santa Victoria	5	Mayo	2023-05-30T00:00:00	2024-11-08T01:00:00	7	Dirección del viento	1.61
109891	7	Sololá	701	Sololá	4	Finca Santa Victoria	5	Mayo	2023-05-30T00:00:00	2024-11-08T01:00:00	1	Precipitación	0
109892	7	Sololá	701	Sololá	4	Finca Santa Victoria	5	Mayo	2023-05-30T00:00:00	2024-11-08T01:00:00	8	Radiación solar	0
109893	7	Sololá	701	Sololá	4	Finca Santa Victoria	5	Mayo	2023-05-30T00:00:00	2024-11-08T02:00:00	2	Temperatura media	13.3
109894	7	Sololá	701	Sololá	4	Finca Santa Victoria	5	Mayo	2023-05-30T00:00:00	2024-11-08T02:00:00	4	Temperatura máxima	13.3
109895	7	Sololá	701	Sololá	4	Finca Santa Victoria	5	Mayo	2023-05-30T00:00:00	2024-11-08T02:00:00	3	Temperatura mínima	12.9
109896	7	Sololá	701	Sololá	4	Finca Santa Victoria	5	Mayo	2023-05-30T00:00:00	2024-11-08T02:00:00	5	Humedad	92
109897	7	Sololá	701	Sololá	4	Finca Santa Victoria	5	Mayo	2023-05-30T00:00:00	2024-11-08T02:00:00	6	Velocidad del viento	0
109898	7	Sololá	701	Sololá	4	Finca Santa Victoria	5	Mayo	2023-05-30T00:00:00	2024-11-08T02:00:00	7	Dirección del viento	0
109899	7	Sololá	701	Sololá	4	Finca Santa Victoria	5	Mayo	2023-05-30T00:00:00	2024-11-08T02:00:00	1	Precipitación	0
109900	7	Sololá	701	Sololá	4	Finca Santa Victoria	5	Mayo	2023-05-30T00:00:00	2024-11-08T02:00:00	8	Radiación solar	0
109901	7	Sololá	701	Sololá	4	Finca Santa Victoria	5	Mayo	2023-05-30T00:00:00	2024-11-08T03:00:00	2	Temperatura media	13.1
109902	7	Sololá	701	Sololá	4	Finca Santa Victoria	5	Mayo	2023-05-30T00:00:00	2024-11-08T03:00:00	4	Temperatura máxima	13.3
109903	7	Sololá	701	Sololá	4	Finca Santa Victoria	5	Mayo	2023-05-30T00:00:00	2024-11-08T03:00:00	3	Temperatura mínima	13.1
109904	7	Sololá	701	Sololá	4	Finca Santa Victoria	5	Mayo	2023-05-30T00:00:00	2024-11-08T03:00:00	5	Humedad	93
109905	7	Sololá	701	Sololá	4	Finca Santa Victoria	5	Mayo	2023-05-30T00:00:00	2024-11-08T03:00:00	6	Velocidad del viento	1.6
109906	7	Sololá	701	Sololá	4	Finca Santa Victoria	5	Mayo	2023-05-30T00:00:00	2024-11-08T03:00:00	7	Dirección del viento	1.61
109907	7	Sololá	701	Sololá	4	Finca Santa Victoria	5	Mayo	2023-05-30T00:00:00	2024-11-08T03:00:00	1	Precipitación	0
109908	7	Sololá	701	Sololá	4	Finca Santa Victoria	5	Mayo	2023-05-30T00:00:00	2024-11-08T03:00:00	8	Radiación solar	0
109909	7	Sololá	701	Sololá	4	Finca Santa Victoria	5	Mayo	2023-05-30T00:00:00	2024-11-08T04:00:00	2	Temperatura media	12.8
109910	7	Sololá	701	Sololá	4	Finca Santa Victoria	5	Mayo	2023-05-30T00:00:00	2024-11-08T04:00:00	4	Temperatura máxima	13.1
109911	7	Sololá	701	Sololá	4	Finca Santa Victoria	5	Mayo	2023-05-30T00:00:00	2024-11-08T04:00:00	3	Temperatura mínima	12.6
109912	7	Sololá	701	Sololá	4	Finca Santa Victoria	5	Mayo	2023-05-30T00:00:00	2024-11-08T04:00:00	5	Humedad	92
109913	7	Sololá	701	Sololá	4	Finca Santa Victoria	5	Mayo	2023-05-30T00:00:00	2024-11-08T04:00:00	6	Velocidad del viento	1.6
109914	7	Sololá	701	Sololá	4	Finca Santa Victoria	5	Mayo	2023-05-30T00:00:00	2024-11-08T04:00:00	7	Dirección del viento	1.61
109915	7	Sololá	701	Sololá	4	Finca Santa Victoria	5	Mayo	2023-05-30T00:00:00	2024-11-08T04:00:00	1	Precipitación	0
109916	7	Sololá	701	Sololá	4	Finca Santa Victoria	5	Mayo	2023-05-30T00:00:00	2024-11-08T04:00:00	8	Radiación solar	0
109917	7	Sololá	701	Sololá	4	Finca Santa Victoria	5	Mayo	2023-05-30T00:00:00	2024-11-08T05:00:00	2	Temperatura media	13.1
109918	7	Sololá	701	Sololá	4	Finca Santa Victoria	5	Mayo	2023-05-30T00:00:00	2024-11-08T05:00:00	4	Temperatura máxima	13.1
109919	7	Sololá	701	Sololá	4	Finca Santa Victoria	5	Mayo	2023-05-30T00:00:00	2024-11-08T05:00:00	3	Temperatura mínima	12.8
109920	7	Sololá	701	Sololá	4	Finca Santa Victoria	5	Mayo	2023-05-30T00:00:00	2024-11-08T05:00:00	5	Humedad	90
109921	7	Sololá	701	Sololá	4	Finca Santa Victoria	5	Mayo	2023-05-30T00:00:00	2024-11-08T05:00:00	6	Velocidad del viento	0
109922	7	Sololá	701	Sololá	4	Finca Santa Victoria	5	Mayo	2023-05-30T00:00:00	2024-11-08T05:00:00	7	Dirección del viento	0
109923	7	Sololá	701	Sololá	4	Finca Santa Victoria	5	Mayo	2023-05-30T00:00:00	2024-11-08T05:00:00	1	Precipitación	0
109924	7	Sololá	701	Sololá	4	Finca Santa Victoria	5	Mayo	2023-05-30T00:00:00	2024-11-08T05:00:00	8	Radiación solar	0
109925	7	Sololá	701	Sololá	4	Finca Santa Victoria	5	Mayo	2023-05-30T00:00:00	2024-11-08T06:00:00	2	Temperatura media	12.7
109926	7	Sololá	701	Sololá	4	Finca Santa Victoria	5	Mayo	2023-05-30T00:00:00	2024-11-08T06:00:00	4	Temperatura máxima	13.1
109927	7	Sololá	701	Sololá	4	Finca Santa Victoria	5	Mayo	2023-05-30T00:00:00	2024-11-08T06:00:00	3	Temperatura mínima	12.7
109928	7	Sololá	701	Sololá	4	Finca Santa Victoria	5	Mayo	2023-05-30T00:00:00	2024-11-08T06:00:00	5	Humedad	91
109929	7	Sololá	701	Sololá	4	Finca Santa Victoria	5	Mayo	2023-05-30T00:00:00	2024-11-08T06:00:00	6	Velocidad del viento	0
109930	7	Sololá	701	Sololá	4	Finca Santa Victoria	5	Mayo	2023-05-30T00:00:00	2024-11-08T06:00:00	7	Dirección del viento	0
109931	7	Sololá	701	Sololá	4	Finca Santa Victoria	5	Mayo	2023-05-30T00:00:00	2024-11-08T06:00:00	1	Precipitación	0
109932	7	Sololá	701	Sololá	4	Finca Santa Victoria	5	Mayo	2023-05-30T00:00:00	2024-11-08T06:00:00	8	Radiación solar	3
109933	7	Sololá	701	Sololá	4	Finca Santa Victoria	5	Mayo	2023-05-30T00:00:00	2024-11-08T07:00:00	2	Temperatura media	13.9
109934	7	Sololá	701	Sololá	4	Finca Santa Victoria	5	Mayo	2023-05-30T00:00:00	2024-11-08T07:00:00	4	Temperatura máxima	13.9
109935	7	Sololá	701	Sololá	4	Finca Santa Victoria	5	Mayo	2023-05-30T00:00:00	2024-11-08T07:00:00	3	Temperatura mínima	12.7
109936	7	Sololá	701	Sololá	4	Finca Santa Victoria	5	Mayo	2023-05-30T00:00:00	2024-11-08T07:00:00	5	Humedad	91
109937	7	Sololá	701	Sololá	4	Finca Santa Victoria	5	Mayo	2023-05-30T00:00:00	2024-11-08T07:00:00	6	Velocidad del viento	0
109938	7	Sololá	701	Sololá	4	Finca Santa Victoria	5	Mayo	2023-05-30T00:00:00	2024-11-08T07:00:00	7	Dirección del viento	0
109939	7	Sololá	701	Sololá	4	Finca Santa Victoria	5	Mayo	2023-05-30T00:00:00	2024-11-08T07:00:00	1	Precipitación	0
109940	7	Sololá	701	Sololá	4	Finca Santa Victoria	5	Mayo	2023-05-30T00:00:00	2024-11-08T07:00:00	8	Radiación solar	57
109941	7	Sololá	701	Sololá	4	Finca Santa Victoria	5	Mayo	2023-05-30T00:00:00	2024-11-08T08:00:00	2	Temperatura media	15.5
109942	7	Sololá	701	Sololá	4	Finca Santa Victoria	5	Mayo	2023-05-30T00:00:00	2024-11-08T08:00:00	4	Temperatura máxima	15.5
109943	7	Sololá	701	Sololá	4	Finca Santa Victoria	5	Mayo	2023-05-30T00:00:00	2024-11-08T08:00:00	3	Temperatura mínima	13.9
109944	7	Sololá	701	Sololá	4	Finca Santa Victoria	5	Mayo	2023-05-30T00:00:00	2024-11-08T08:00:00	5	Humedad	86
109945	7	Sololá	701	Sololá	4	Finca Santa Victoria	5	Mayo	2023-05-30T00:00:00	2024-11-08T08:00:00	6	Velocidad del viento	1.6
109946	7	Sololá	701	Sololá	4	Finca Santa Victoria	5	Mayo	2023-05-30T00:00:00	2024-11-08T08:00:00	7	Dirección del viento	1.61
109947	7	Sololá	701	Sololá	4	Finca Santa Victoria	5	Mayo	2023-05-30T00:00:00	2024-11-08T08:00:00	1	Precipitación	0
109948	7	Sololá	701	Sololá	4	Finca Santa Victoria	5	Mayo	2023-05-30T00:00:00	2024-11-08T08:00:00	8	Radiación solar	234
109949	7	Sololá	701	Sololá	4	Finca Santa Victoria	5	Mayo	2023-05-30T00:00:00	2024-11-08T09:00:00	2	Temperatura media	16.8
109950	7	Sololá	701	Sololá	4	Finca Santa Victoria	5	Mayo	2023-05-30T00:00:00	2024-11-08T09:00:00	4	Temperatura máxima	17.3
109951	7	Sololá	701	Sololá	4	Finca Santa Victoria	5	Mayo	2023-05-30T00:00:00	2024-11-08T09:00:00	3	Temperatura mínima	15.6
109952	7	Sololá	701	Sololá	4	Finca Santa Victoria	5	Mayo	2023-05-30T00:00:00	2024-11-08T09:00:00	5	Humedad	81
109953	7	Sololá	701	Sololá	4	Finca Santa Victoria	5	Mayo	2023-05-30T00:00:00	2024-11-08T09:00:00	6	Velocidad del viento	1.6
109954	7	Sololá	701	Sololá	4	Finca Santa Victoria	5	Mayo	2023-05-30T00:00:00	2024-11-08T09:00:00	7	Dirección del viento	1.61
109955	7	Sololá	701	Sololá	4	Finca Santa Victoria	5	Mayo	2023-05-30T00:00:00	2024-11-08T09:00:00	1	Precipitación	0
109956	7	Sololá	701	Sololá	4	Finca Santa Victoria	5	Mayo	2023-05-30T00:00:00	2024-11-08T09:00:00	8	Radiación solar	335
109957	7	Sololá	701	Sololá	4	Finca Santa Victoria	5	Mayo	2023-05-30T00:00:00	2024-11-08T10:00:00	2	Temperatura media	16.7
109958	7	Sololá	701	Sololá	4	Finca Santa Victoria	5	Mayo	2023-05-30T00:00:00	2024-11-08T10:00:00	4	Temperatura máxima	17.7
109959	7	Sololá	701	Sololá	4	Finca Santa Victoria	5	Mayo	2023-05-30T00:00:00	2024-11-08T10:00:00	3	Temperatura mínima	16.7
109960	7	Sololá	701	Sololá	4	Finca Santa Victoria	5	Mayo	2023-05-30T00:00:00	2024-11-08T10:00:00	5	Humedad	89
109961	7	Sololá	701	Sololá	4	Finca Santa Victoria	5	Mayo	2023-05-30T00:00:00	2024-11-08T10:00:00	6	Velocidad del viento	3.2
109962	7	Sololá	701	Sololá	4	Finca Santa Victoria	5	Mayo	2023-05-30T00:00:00	2024-11-08T10:00:00	7	Dirección del viento	3.22
109963	7	Sololá	701	Sololá	4	Finca Santa Victoria	5	Mayo	2023-05-30T00:00:00	2024-11-08T10:00:00	1	Precipitación	0
109964	7	Sololá	701	Sololá	4	Finca Santa Victoria	5	Mayo	2023-05-30T00:00:00	2024-11-08T10:00:00	8	Radiación solar	259
109965	7	Sololá	701	Sololá	4	Finca Santa Victoria	5	Mayo	2023-05-30T00:00:00	2024-11-08T11:00:00	2	Temperatura media	18.1
109966	7	Sololá	701	Sololá	4	Finca Santa Victoria	5	Mayo	2023-05-30T00:00:00	2024-11-08T11:00:00	4	Temperatura máxima	18.4
109967	7	Sololá	701	Sololá	4	Finca Santa Victoria	5	Mayo	2023-05-30T00:00:00	2024-11-08T11:00:00	3	Temperatura mínima	16.7
109968	7	Sololá	701	Sololá	4	Finca Santa Victoria	5	Mayo	2023-05-30T00:00:00	2024-11-08T11:00:00	5	Humedad	83
109969	7	Sololá	701	Sololá	4	Finca Santa Victoria	5	Mayo	2023-05-30T00:00:00	2024-11-08T11:00:00	6	Velocidad del viento	3.2
109970	7	Sololá	701	Sololá	4	Finca Santa Victoria	5	Mayo	2023-05-30T00:00:00	2024-11-08T11:00:00	7	Dirección del viento	3.22
109971	7	Sololá	701	Sololá	4	Finca Santa Victoria	5	Mayo	2023-05-30T00:00:00	2024-11-08T11:00:00	1	Precipitación	0
109972	7	Sololá	701	Sololá	4	Finca Santa Victoria	5	Mayo	2023-05-30T00:00:00	2024-11-08T11:00:00	8	Radiación solar	320
109973	7	Sololá	701	Sololá	4	Finca Santa Victoria	5	Mayo	2023-05-30T00:00:00	2024-11-08T12:00:00	2	Temperatura media	17.1
109974	7	Sololá	701	Sololá	4	Finca Santa Victoria	5	Mayo	2023-05-30T00:00:00	2024-11-08T12:00:00	4	Temperatura máxima	18.6
109975	7	Sololá	701	Sololá	4	Finca Santa Victoria	5	Mayo	2023-05-30T00:00:00	2024-11-08T12:00:00	3	Temperatura mínima	17.1
109976	7	Sololá	701	Sololá	4	Finca Santa Victoria	5	Mayo	2023-05-30T00:00:00	2024-11-08T12:00:00	5	Humedad	88
109977	7	Sololá	701	Sololá	4	Finca Santa Victoria	5	Mayo	2023-05-30T00:00:00	2024-11-08T12:00:00	6	Velocidad del viento	3.2
109978	7	Sololá	701	Sololá	4	Finca Santa Victoria	5	Mayo	2023-05-30T00:00:00	2024-11-08T12:00:00	7	Dirección del viento	3.22
109979	7	Sololá	701	Sololá	4	Finca Santa Victoria	5	Mayo	2023-05-30T00:00:00	2024-11-08T12:00:00	1	Precipitación	0
109980	7	Sololá	701	Sololá	4	Finca Santa Victoria	5	Mayo	2023-05-30T00:00:00	2024-11-08T12:00:00	8	Radiación solar	317
109981	7	Sololá	701	Sololá	4	Finca Santa Victoria	5	Mayo	2023-05-30T00:00:00	2024-11-08T13:00:00	2	Temperatura media	16.3
109982	7	Sololá	701	Sololá	4	Finca Santa Victoria	5	Mayo	2023-05-30T00:00:00	2024-11-08T13:00:00	4	Temperatura máxima	17.1
109983	7	Sololá	701	Sololá	4	Finca Santa Victoria	5	Mayo	2023-05-30T00:00:00	2024-11-08T13:00:00	3	Temperatura mínima	16.3
109984	7	Sololá	701	Sololá	4	Finca Santa Victoria	5	Mayo	2023-05-30T00:00:00	2024-11-08T13:00:00	5	Humedad	94
109985	7	Sololá	701	Sololá	4	Finca Santa Victoria	5	Mayo	2023-05-30T00:00:00	2024-11-08T13:00:00	6	Velocidad del viento	3.2
109986	7	Sololá	701	Sololá	4	Finca Santa Victoria	5	Mayo	2023-05-30T00:00:00	2024-11-08T13:00:00	7	Dirección del viento	3.22
109987	7	Sololá	701	Sololá	4	Finca Santa Victoria	5	Mayo	2023-05-30T00:00:00	2024-11-08T13:00:00	1	Precipitación	0
109988	7	Sololá	701	Sololá	4	Finca Santa Victoria	5	Mayo	2023-05-30T00:00:00	2024-11-08T13:00:00	8	Radiación solar	161
109989	7	Sololá	701	Sololá	4	Finca Santa Victoria	5	Mayo	2023-05-30T00:00:00	2024-11-08T14:00:00	2	Temperatura media	15.7
109990	7	Sololá	701	Sololá	4	Finca Santa Victoria	5	Mayo	2023-05-30T00:00:00	2024-11-08T14:00:00	4	Temperatura máxima	16.4
109991	7	Sololá	701	Sololá	4	Finca Santa Victoria	5	Mayo	2023-05-30T00:00:00	2024-11-08T14:00:00	3	Temperatura mínima	15.7
109992	7	Sololá	701	Sololá	4	Finca Santa Victoria	5	Mayo	2023-05-30T00:00:00	2024-11-08T14:00:00	5	Humedad	95
109993	7	Sololá	701	Sololá	4	Finca Santa Victoria	5	Mayo	2023-05-30T00:00:00	2024-11-08T14:00:00	6	Velocidad del viento	3.2
109994	7	Sololá	701	Sololá	4	Finca Santa Victoria	5	Mayo	2023-05-30T00:00:00	2024-11-08T14:00:00	7	Dirección del viento	3.22
109995	7	Sololá	701	Sololá	4	Finca Santa Victoria	5	Mayo	2023-05-30T00:00:00	2024-11-08T14:00:00	1	Precipitación	0
109996	7	Sololá	701	Sololá	4	Finca Santa Victoria	5	Mayo	2023-05-30T00:00:00	2024-11-08T14:00:00	8	Radiación solar	59
109997	7	Sololá	701	Sololá	4	Finca Santa Victoria	5	Mayo	2023-05-30T00:00:00	2024-11-08T15:00:00	2	Temperatura media	14.7
109998	7	Sololá	701	Sololá	4	Finca Santa Victoria	5	Mayo	2023-05-30T00:00:00	2024-11-08T15:00:00	4	Temperatura máxima	15.7
109999	7	Sololá	701	Sololá	4	Finca Santa Victoria	5	Mayo	2023-05-30T00:00:00	2024-11-08T15:00:00	3	Temperatura mínima	14.5
110000	7	Sololá	701	Sololá	4	Finca Santa Victoria	5	Mayo	2023-05-30T00:00:00	2024-11-08T15:00:00	5	Humedad	97
110001	7	Sololá	701	Sololá	4	Finca Santa Victoria	5	Mayo	2023-05-30T00:00:00	2024-11-08T15:00:00	6	Velocidad del viento	1.6
110002	7	Sololá	701	Sololá	4	Finca Santa Victoria	5	Mayo	2023-05-30T00:00:00	2024-11-08T15:00:00	7	Dirección del viento	1.61
110003	7	Sololá	701	Sololá	4	Finca Santa Victoria	5	Mayo	2023-05-30T00:00:00	2024-11-08T15:00:00	1	Precipitación	0.2
110004	7	Sololá	701	Sololá	4	Finca Santa Victoria	5	Mayo	2023-05-30T00:00:00	2024-11-08T15:00:00	8	Radiación solar	33
110005	7	Sololá	701	Sololá	4	Finca Santa Victoria	5	Mayo	2023-05-30T00:00:00	2024-11-08T16:00:00	2	Temperatura media	15.1
110006	7	Sololá	701	Sololá	4	Finca Santa Victoria	5	Mayo	2023-05-30T00:00:00	2024-11-08T16:00:00	4	Temperatura máxima	15.2
110007	7	Sololá	701	Sololá	4	Finca Santa Victoria	5	Mayo	2023-05-30T00:00:00	2024-11-08T16:00:00	3	Temperatura mínima	14.6
110008	7	Sololá	701	Sololá	4	Finca Santa Victoria	5	Mayo	2023-05-30T00:00:00	2024-11-08T16:00:00	5	Humedad	96
110009	7	Sololá	701	Sololá	4	Finca Santa Victoria	5	Mayo	2023-05-30T00:00:00	2024-11-08T16:00:00	6	Velocidad del viento	1.6
110010	7	Sololá	701	Sololá	4	Finca Santa Victoria	5	Mayo	2023-05-30T00:00:00	2024-11-08T16:00:00	7	Dirección del viento	1.61
110011	7	Sololá	701	Sololá	4	Finca Santa Victoria	5	Mayo	2023-05-30T00:00:00	2024-11-08T16:00:00	1	Precipitación	0
110012	7	Sololá	701	Sololá	4	Finca Santa Victoria	5	Mayo	2023-05-30T00:00:00	2024-11-08T16:00:00	8	Radiación solar	85
110013	7	Sololá	701	Sololá	4	Finca Santa Victoria	5	Mayo	2023-05-30T00:00:00	2024-11-08T17:00:00	2	Temperatura media	14.6
110014	7	Sololá	701	Sololá	4	Finca Santa Victoria	5	Mayo	2023-05-30T00:00:00	2024-11-08T17:00:00	4	Temperatura máxima	15.1
110015	7	Sololá	701	Sololá	4	Finca Santa Victoria	5	Mayo	2023-05-30T00:00:00	2024-11-08T17:00:00	3	Temperatura mínima	14.4
110016	7	Sololá	701	Sololá	4	Finca Santa Victoria	5	Mayo	2023-05-30T00:00:00	2024-11-08T17:00:00	5	Humedad	97
110017	7	Sololá	701	Sololá	4	Finca Santa Victoria	5	Mayo	2023-05-30T00:00:00	2024-11-08T17:00:00	6	Velocidad del viento	0
110018	7	Sololá	701	Sololá	4	Finca Santa Victoria	5	Mayo	2023-05-30T00:00:00	2024-11-08T17:00:00	7	Dirección del viento	0
110019	7	Sololá	701	Sololá	4	Finca Santa Victoria	5	Mayo	2023-05-30T00:00:00	2024-11-08T17:00:00	1	Precipitación	0
110020	7	Sololá	701	Sololá	4	Finca Santa Victoria	5	Mayo	2023-05-30T00:00:00	2024-11-08T17:00:00	8	Radiación solar	12
110021	7	Sololá	701	Sololá	4	Finca Santa Victoria	5	Mayo	2023-05-30T00:00:00	2024-11-08T18:00:00	2	Temperatura media	13.7
110022	7	Sololá	701	Sololá	4	Finca Santa Victoria	5	Mayo	2023-05-30T00:00:00	2024-11-08T18:00:00	4	Temperatura máxima	14.6
110023	7	Sololá	701	Sololá	4	Finca Santa Victoria	5	Mayo	2023-05-30T00:00:00	2024-11-08T18:00:00	3	Temperatura mínima	13.7
110024	7	Sololá	701	Sololá	4	Finca Santa Victoria	5	Mayo	2023-05-30T00:00:00	2024-11-08T18:00:00	5	Humedad	95
110025	7	Sololá	701	Sololá	4	Finca Santa Victoria	5	Mayo	2023-05-30T00:00:00	2024-11-08T18:00:00	6	Velocidad del viento	0
110026	7	Sololá	701	Sololá	4	Finca Santa Victoria	5	Mayo	2023-05-30T00:00:00	2024-11-08T18:00:00	7	Dirección del viento	0
110027	7	Sololá	701	Sololá	4	Finca Santa Victoria	5	Mayo	2023-05-30T00:00:00	2024-11-08T18:00:00	1	Precipitación	1.2
110028	7	Sololá	701	Sololá	4	Finca Santa Victoria	5	Mayo	2023-05-30T00:00:00	2024-11-08T18:00:00	8	Radiación solar	6
110029	7	Sololá	701	Sololá	4	Finca Santa Victoria	5	Mayo	2023-05-30T00:00:00	2024-11-08T19:00:00	2	Temperatura media	13.6
110030	7	Sololá	701	Sololá	4	Finca Santa Victoria	5	Mayo	2023-05-30T00:00:00	2024-11-08T19:00:00	4	Temperatura máxima	13.7
110031	7	Sololá	701	Sololá	4	Finca Santa Victoria	5	Mayo	2023-05-30T00:00:00	2024-11-08T19:00:00	3	Temperatura mínima	13.3
110032	7	Sololá	701	Sololá	4	Finca Santa Victoria	5	Mayo	2023-05-30T00:00:00	2024-11-08T19:00:00	5	Humedad	90
110033	7	Sololá	701	Sololá	4	Finca Santa Victoria	5	Mayo	2023-05-30T00:00:00	2024-11-08T19:00:00	6	Velocidad del viento	3.2
110034	7	Sololá	701	Sololá	4	Finca Santa Victoria	5	Mayo	2023-05-30T00:00:00	2024-11-08T19:00:00	7	Dirección del viento	3.22
110035	7	Sololá	701	Sololá	4	Finca Santa Victoria	5	Mayo	2023-05-30T00:00:00	2024-11-08T19:00:00	1	Precipitación	0.2
110036	7	Sololá	701	Sololá	4	Finca Santa Victoria	5	Mayo	2023-05-30T00:00:00	2024-11-08T19:00:00	8	Radiación solar	0
110037	7	Sololá	701	Sololá	4	Finca Santa Victoria	5	Mayo	2023-05-30T00:00:00	2024-11-08T20:00:00	2	Temperatura media	13.4
110038	7	Sololá	701	Sololá	4	Finca Santa Victoria	5	Mayo	2023-05-30T00:00:00	2024-11-08T20:00:00	4	Temperatura máxima	13.6
110039	7	Sololá	701	Sololá	4	Finca Santa Victoria	5	Mayo	2023-05-30T00:00:00	2024-11-08T20:00:00	3	Temperatura mínima	13.2
110040	7	Sololá	701	Sololá	4	Finca Santa Victoria	5	Mayo	2023-05-30T00:00:00	2024-11-08T20:00:00	5	Humedad	91
110041	7	Sololá	701	Sololá	4	Finca Santa Victoria	5	Mayo	2023-05-30T00:00:00	2024-11-08T20:00:00	6	Velocidad del viento	1.6
110042	7	Sololá	701	Sololá	4	Finca Santa Victoria	5	Mayo	2023-05-30T00:00:00	2024-11-08T20:00:00	7	Dirección del viento	1.61
110043	7	Sololá	701	Sololá	4	Finca Santa Victoria	5	Mayo	2023-05-30T00:00:00	2024-11-08T20:00:00	1	Precipitación	0
110044	7	Sololá	701	Sololá	4	Finca Santa Victoria	5	Mayo	2023-05-30T00:00:00	2024-11-08T20:00:00	8	Radiación solar	0
110045	7	Sololá	701	Sololá	4	Finca Santa Victoria	5	Mayo	2023-05-30T00:00:00	2024-11-08T21:00:00	2	Temperatura media	13.6
110046	7	Sololá	701	Sololá	4	Finca Santa Victoria	5	Mayo	2023-05-30T00:00:00	2024-11-08T21:00:00	4	Temperatura máxima	13.6
110047	7	Sololá	701	Sololá	4	Finca Santa Victoria	5	Mayo	2023-05-30T00:00:00	2024-11-08T21:00:00	3	Temperatura mínima	13.3
110048	7	Sololá	701	Sololá	4	Finca Santa Victoria	5	Mayo	2023-05-30T00:00:00	2024-11-08T21:00:00	5	Humedad	90
110049	7	Sololá	701	Sololá	4	Finca Santa Victoria	5	Mayo	2023-05-30T00:00:00	2024-11-08T21:00:00	6	Velocidad del viento	1.6
110050	7	Sololá	701	Sololá	4	Finca Santa Victoria	5	Mayo	2023-05-30T00:00:00	2024-11-08T21:00:00	7	Dirección del viento	1.61
110051	7	Sololá	701	Sololá	4	Finca Santa Victoria	5	Mayo	2023-05-30T00:00:00	2024-11-08T21:00:00	1	Precipitación	0
110052	7	Sololá	701	Sololá	4	Finca Santa Victoria	5	Mayo	2023-05-30T00:00:00	2024-11-08T21:00:00	8	Radiación solar	0
110053	7	Sololá	701	Sololá	4	Finca Santa Victoria	5	Mayo	2023-05-30T00:00:00	2024-11-08T22:00:00	2	Temperatura media	13.5
110054	7	Sololá	701	Sololá	4	Finca Santa Victoria	5	Mayo	2023-05-30T00:00:00	2024-11-08T22:00:00	4	Temperatura máxima	13.8
110055	7	Sololá	701	Sololá	4	Finca Santa Victoria	5	Mayo	2023-05-30T00:00:00	2024-11-08T22:00:00	3	Temperatura mínima	13.4
110056	7	Sololá	701	Sololá	4	Finca Santa Victoria	5	Mayo	2023-05-30T00:00:00	2024-11-08T22:00:00	5	Humedad	89
110057	7	Sololá	701	Sololá	4	Finca Santa Victoria	5	Mayo	2023-05-30T00:00:00	2024-11-08T22:00:00	6	Velocidad del viento	0
110058	7	Sololá	701	Sololá	4	Finca Santa Victoria	5	Mayo	2023-05-30T00:00:00	2024-11-08T22:00:00	7	Dirección del viento	0
110059	7	Sololá	701	Sololá	4	Finca Santa Victoria	5	Mayo	2023-05-30T00:00:00	2024-11-08T22:00:00	1	Precipitación	0
110060	7	Sololá	701	Sololá	4	Finca Santa Victoria	5	Mayo	2023-05-30T00:00:00	2024-11-08T22:00:00	8	Radiación solar	0
110061	7	Sololá	701	Sololá	4	Finca Santa Victoria	5	Mayo	2023-05-30T00:00:00	2024-11-08T23:00:00	2	Temperatura media	14.3
110062	7	Sololá	701	Sololá	4	Finca Santa Victoria	5	Mayo	2023-05-30T00:00:00	2024-11-08T23:00:00	4	Temperatura máxima	14.3
110063	7	Sololá	701	Sololá	4	Finca Santa Victoria	5	Mayo	2023-05-30T00:00:00	2024-11-08T23:00:00	3	Temperatura mínima	13.6
110064	7	Sololá	701	Sololá	4	Finca Santa Victoria	5	Mayo	2023-05-30T00:00:00	2024-11-08T23:00:00	5	Humedad	83
110065	7	Sololá	701	Sololá	4	Finca Santa Victoria	5	Mayo	2023-05-30T00:00:00	2024-11-08T23:00:00	6	Velocidad del viento	1.6
110066	7	Sololá	701	Sololá	4	Finca Santa Victoria	5	Mayo	2023-05-30T00:00:00	2024-11-08T23:00:00	7	Dirección del viento	1.61
110067	7	Sololá	701	Sololá	4	Finca Santa Victoria	5	Mayo	2023-05-30T00:00:00	2024-11-08T23:00:00	1	Precipitación	0
110068	7	Sololá	701	Sololá	4	Finca Santa Victoria	5	Mayo	2023-05-30T00:00:00	2024-11-08T23:00:00	8	Radiación solar	0
110069	7	Sololá	701	Sololá	4	Finca Santa Victoria	5	Mayo	2023-05-31T00:00:00	2024-11-08T00:00:00	2	Temperatura media	14
110070	7	Sololá	701	Sololá	4	Finca Santa Victoria	5	Mayo	2023-05-31T00:00:00	2024-11-08T00:00:00	4	Temperatura máxima	14.4
110071	7	Sololá	701	Sololá	4	Finca Santa Victoria	5	Mayo	2023-05-31T00:00:00	2024-11-08T00:00:00	3	Temperatura mínima	14
110072	7	Sololá	701	Sololá	4	Finca Santa Victoria	5	Mayo	2023-05-31T00:00:00	2024-11-08T00:00:00	5	Humedad	86
110073	7	Sololá	701	Sololá	4	Finca Santa Victoria	5	Mayo	2023-05-31T00:00:00	2024-11-08T00:00:00	6	Velocidad del viento	0
110074	7	Sololá	701	Sololá	4	Finca Santa Victoria	5	Mayo	2023-05-31T00:00:00	2024-11-08T00:00:00	7	Dirección del viento	0
110075	7	Sololá	701	Sololá	4	Finca Santa Victoria	5	Mayo	2023-05-31T00:00:00	2024-11-08T00:00:00	1	Precipitación	0
110076	7	Sololá	701	Sololá	4	Finca Santa Victoria	5	Mayo	2023-05-31T00:00:00	2024-11-08T00:00:00	8	Radiación solar	0
110077	7	Sololá	701	Sololá	4	Finca Santa Victoria	5	Mayo	2023-05-31T00:00:00	2024-11-08T01:00:00	2	Temperatura media	13.9
110078	7	Sololá	701	Sololá	4	Finca Santa Victoria	5	Mayo	2023-05-31T00:00:00	2024-11-08T01:00:00	4	Temperatura máxima	14.1
110079	7	Sololá	701	Sololá	4	Finca Santa Victoria	5	Mayo	2023-05-31T00:00:00	2024-11-08T01:00:00	3	Temperatura mínima	13.8
110080	7	Sololá	701	Sololá	4	Finca Santa Victoria	5	Mayo	2023-05-31T00:00:00	2024-11-08T01:00:00	5	Humedad	86
110081	7	Sololá	701	Sololá	4	Finca Santa Victoria	5	Mayo	2023-05-31T00:00:00	2024-11-08T01:00:00	6	Velocidad del viento	0
110082	7	Sololá	701	Sololá	4	Finca Santa Victoria	5	Mayo	2023-05-31T00:00:00	2024-11-08T01:00:00	7	Dirección del viento	0
110083	7	Sololá	701	Sololá	4	Finca Santa Victoria	5	Mayo	2023-05-31T00:00:00	2024-11-08T01:00:00	1	Precipitación	0
110084	7	Sololá	701	Sololá	4	Finca Santa Victoria	5	Mayo	2023-05-31T00:00:00	2024-11-08T01:00:00	8	Radiación solar	0
110085	7	Sololá	701	Sololá	4	Finca Santa Victoria	5	Mayo	2023-05-31T00:00:00	2024-11-08T02:00:00	2	Temperatura media	13.7
110086	7	Sololá	701	Sololá	4	Finca Santa Victoria	5	Mayo	2023-05-31T00:00:00	2024-11-08T02:00:00	4	Temperatura máxima	13.9
110087	7	Sololá	701	Sololá	4	Finca Santa Victoria	5	Mayo	2023-05-31T00:00:00	2024-11-08T02:00:00	3	Temperatura mínima	13.7
110088	7	Sololá	701	Sololá	4	Finca Santa Victoria	5	Mayo	2023-05-31T00:00:00	2024-11-08T02:00:00	5	Humedad	88
110089	7	Sololá	701	Sololá	4	Finca Santa Victoria	5	Mayo	2023-05-31T00:00:00	2024-11-08T02:00:00	6	Velocidad del viento	0
110090	7	Sololá	701	Sololá	4	Finca Santa Victoria	5	Mayo	2023-05-31T00:00:00	2024-11-08T02:00:00	7	Dirección del viento	0
110091	7	Sololá	701	Sololá	4	Finca Santa Victoria	5	Mayo	2023-05-31T00:00:00	2024-11-08T02:00:00	1	Precipitación	0
110092	7	Sololá	701	Sololá	4	Finca Santa Victoria	5	Mayo	2023-05-31T00:00:00	2024-11-08T02:00:00	8	Radiación solar	0
110093	7	Sololá	701	Sololá	4	Finca Santa Victoria	5	Mayo	2023-05-31T00:00:00	2024-11-08T03:00:00	2	Temperatura media	13.5
110094	7	Sololá	701	Sololá	4	Finca Santa Victoria	5	Mayo	2023-05-31T00:00:00	2024-11-08T03:00:00	4	Temperatura máxima	13.7
110095	7	Sololá	701	Sololá	4	Finca Santa Victoria	5	Mayo	2023-05-31T00:00:00	2024-11-08T03:00:00	3	Temperatura mínima	13.4
110096	7	Sololá	701	Sololá	4	Finca Santa Victoria	5	Mayo	2023-05-31T00:00:00	2024-11-08T03:00:00	5	Humedad	86
110097	7	Sololá	701	Sololá	4	Finca Santa Victoria	5	Mayo	2023-05-31T00:00:00	2024-11-08T03:00:00	6	Velocidad del viento	0
110098	7	Sololá	701	Sololá	4	Finca Santa Victoria	5	Mayo	2023-05-31T00:00:00	2024-11-08T03:00:00	7	Dirección del viento	0
110099	7	Sololá	701	Sololá	4	Finca Santa Victoria	5	Mayo	2023-05-31T00:00:00	2024-11-08T03:00:00	1	Precipitación	0
110100	7	Sololá	701	Sololá	4	Finca Santa Victoria	5	Mayo	2023-05-31T00:00:00	2024-11-08T03:00:00	8	Radiación solar	0
110101	7	Sololá	701	Sololá	4	Finca Santa Victoria	5	Mayo	2023-05-31T00:00:00	2024-11-08T04:00:00	2	Temperatura media	13.3
110102	7	Sololá	701	Sololá	4	Finca Santa Victoria	5	Mayo	2023-05-31T00:00:00	2024-11-08T04:00:00	4	Temperatura máxima	13.6
110103	7	Sololá	701	Sololá	4	Finca Santa Victoria	5	Mayo	2023-05-31T00:00:00	2024-11-08T04:00:00	3	Temperatura mínima	13.3
110104	7	Sololá	701	Sololá	4	Finca Santa Victoria	5	Mayo	2023-05-31T00:00:00	2024-11-08T04:00:00	5	Humedad	87
110105	7	Sololá	701	Sololá	4	Finca Santa Victoria	5	Mayo	2023-05-31T00:00:00	2024-11-08T04:00:00	6	Velocidad del viento	0
110106	7	Sololá	701	Sololá	4	Finca Santa Victoria	5	Mayo	2023-05-31T00:00:00	2024-11-08T04:00:00	7	Dirección del viento	0
110107	7	Sololá	701	Sololá	4	Finca Santa Victoria	5	Mayo	2023-05-31T00:00:00	2024-11-08T04:00:00	1	Precipitación	0
110108	7	Sololá	701	Sololá	4	Finca Santa Victoria	5	Mayo	2023-05-31T00:00:00	2024-11-08T04:00:00	8	Radiación solar	0
110109	7	Sololá	701	Sololá	4	Finca Santa Victoria	5	Mayo	2023-05-31T00:00:00	2024-11-08T05:00:00	2	Temperatura media	12.8
110110	7	Sololá	701	Sololá	4	Finca Santa Victoria	5	Mayo	2023-05-31T00:00:00	2024-11-08T05:00:00	4	Temperatura máxima	13.3
110111	7	Sololá	701	Sololá	4	Finca Santa Victoria	5	Mayo	2023-05-31T00:00:00	2024-11-08T05:00:00	3	Temperatura mínima	12.8
110112	7	Sololá	701	Sololá	4	Finca Santa Victoria	5	Mayo	2023-05-31T00:00:00	2024-11-08T05:00:00	5	Humedad	87
110113	7	Sololá	701	Sololá	4	Finca Santa Victoria	5	Mayo	2023-05-31T00:00:00	2024-11-08T05:00:00	6	Velocidad del viento	1.6
110114	7	Sololá	701	Sololá	4	Finca Santa Victoria	5	Mayo	2023-05-31T00:00:00	2024-11-08T05:00:00	7	Dirección del viento	1.61
110115	7	Sololá	701	Sololá	4	Finca Santa Victoria	5	Mayo	2023-05-31T00:00:00	2024-11-08T05:00:00	1	Precipitación	0
110116	7	Sololá	701	Sololá	4	Finca Santa Victoria	5	Mayo	2023-05-31T00:00:00	2024-11-08T05:00:00	8	Radiación solar	0
110117	7	Sololá	701	Sololá	4	Finca Santa Victoria	5	Mayo	2023-05-31T00:00:00	2024-11-08T06:00:00	2	Temperatura media	12.6
110118	7	Sololá	701	Sololá	4	Finca Santa Victoria	5	Mayo	2023-05-31T00:00:00	2024-11-08T06:00:00	4	Temperatura máxima	12.9
110119	7	Sololá	701	Sololá	4	Finca Santa Victoria	5	Mayo	2023-05-31T00:00:00	2024-11-08T06:00:00	3	Temperatura mínima	12.6
110120	7	Sololá	701	Sololá	4	Finca Santa Victoria	5	Mayo	2023-05-31T00:00:00	2024-11-08T06:00:00	5	Humedad	89
110121	7	Sololá	701	Sololá	4	Finca Santa Victoria	5	Mayo	2023-05-31T00:00:00	2024-11-08T06:00:00	6	Velocidad del viento	1.6
110122	7	Sololá	701	Sololá	4	Finca Santa Victoria	5	Mayo	2023-05-31T00:00:00	2024-11-08T06:00:00	7	Dirección del viento	1.61
110123	7	Sololá	701	Sololá	4	Finca Santa Victoria	5	Mayo	2023-05-31T00:00:00	2024-11-08T06:00:00	1	Precipitación	0
110124	7	Sololá	701	Sololá	4	Finca Santa Victoria	5	Mayo	2023-05-31T00:00:00	2024-11-08T06:00:00	8	Radiación solar	4
110125	7	Sololá	701	Sololá	4	Finca Santa Victoria	5	Mayo	2023-05-31T00:00:00	2024-11-08T07:00:00	2	Temperatura media	13.1
110126	7	Sololá	701	Sololá	4	Finca Santa Victoria	5	Mayo	2023-05-31T00:00:00	2024-11-08T07:00:00	4	Temperatura máxima	13.2
110127	7	Sololá	701	Sololá	4	Finca Santa Victoria	5	Mayo	2023-05-31T00:00:00	2024-11-08T07:00:00	3	Temperatura mínima	12.5
110128	7	Sololá	701	Sololá	4	Finca Santa Victoria	5	Mayo	2023-05-31T00:00:00	2024-11-08T07:00:00	5	Humedad	91
110129	7	Sololá	701	Sololá	4	Finca Santa Victoria	5	Mayo	2023-05-31T00:00:00	2024-11-08T07:00:00	6	Velocidad del viento	0
110130	7	Sololá	701	Sololá	4	Finca Santa Victoria	5	Mayo	2023-05-31T00:00:00	2024-11-08T07:00:00	7	Dirección del viento	0
110131	7	Sololá	701	Sololá	4	Finca Santa Victoria	5	Mayo	2023-05-31T00:00:00	2024-11-08T07:00:00	1	Precipitación	0
110132	7	Sololá	701	Sololá	4	Finca Santa Victoria	5	Mayo	2023-05-31T00:00:00	2024-11-08T07:00:00	8	Radiación solar	40
110133	7	Sololá	701	Sololá	4	Finca Santa Victoria	5	Mayo	2023-05-31T00:00:00	2024-11-08T08:00:00	2	Temperatura media	14
110134	7	Sololá	701	Sololá	4	Finca Santa Victoria	5	Mayo	2023-05-31T00:00:00	2024-11-08T08:00:00	4	Temperatura máxima	14
110135	7	Sololá	701	Sololá	4	Finca Santa Victoria	5	Mayo	2023-05-31T00:00:00	2024-11-08T08:00:00	3	Temperatura mínima	13.1
110136	7	Sololá	701	Sololá	4	Finca Santa Victoria	5	Mayo	2023-05-31T00:00:00	2024-11-08T08:00:00	5	Humedad	91
110137	7	Sololá	701	Sololá	4	Finca Santa Victoria	5	Mayo	2023-05-31T00:00:00	2024-11-08T08:00:00	6	Velocidad del viento	1.6
110138	7	Sololá	701	Sololá	4	Finca Santa Victoria	5	Mayo	2023-05-31T00:00:00	2024-11-08T08:00:00	7	Dirección del viento	1.61
110139	7	Sololá	701	Sololá	4	Finca Santa Victoria	5	Mayo	2023-05-31T00:00:00	2024-11-08T08:00:00	1	Precipitación	0
110140	7	Sololá	701	Sololá	4	Finca Santa Victoria	5	Mayo	2023-05-31T00:00:00	2024-11-08T08:00:00	8	Radiación solar	111
110141	7	Sololá	701	Sololá	4	Finca Santa Victoria	5	Mayo	2023-05-31T00:00:00	2024-11-08T09:00:00	2	Temperatura media	16.8
110142	7	Sololá	701	Sololá	4	Finca Santa Victoria	5	Mayo	2023-05-31T00:00:00	2024-11-08T09:00:00	4	Temperatura máxima	16.8
110143	7	Sololá	701	Sololá	4	Finca Santa Victoria	5	Mayo	2023-05-31T00:00:00	2024-11-08T09:00:00	3	Temperatura mínima	14
110144	7	Sololá	701	Sololá	4	Finca Santa Victoria	5	Mayo	2023-05-31T00:00:00	2024-11-08T09:00:00	5	Humedad	85
110145	7	Sololá	701	Sololá	4	Finca Santa Victoria	5	Mayo	2023-05-31T00:00:00	2024-11-08T09:00:00	6	Velocidad del viento	1.6
110146	7	Sololá	701	Sololá	4	Finca Santa Victoria	5	Mayo	2023-05-31T00:00:00	2024-11-08T09:00:00	7	Dirección del viento	1.61
110147	7	Sololá	701	Sololá	4	Finca Santa Victoria	5	Mayo	2023-05-31T00:00:00	2024-11-08T09:00:00	1	Precipitación	0
110148	7	Sololá	701	Sololá	4	Finca Santa Victoria	5	Mayo	2023-05-31T00:00:00	2024-11-08T09:00:00	8	Radiación solar	346
110149	7	Sololá	701	Sololá	4	Finca Santa Victoria	5	Mayo	2023-05-31T00:00:00	2024-11-08T10:00:00	2	Temperatura media	17.4
110150	7	Sololá	701	Sololá	4	Finca Santa Victoria	5	Mayo	2023-05-31T00:00:00	2024-11-08T10:00:00	4	Temperatura máxima	17.4
110151	7	Sololá	701	Sololá	4	Finca Santa Victoria	5	Mayo	2023-05-31T00:00:00	2024-11-08T10:00:00	3	Temperatura mínima	16.7
110152	7	Sololá	701	Sololá	4	Finca Santa Victoria	5	Mayo	2023-05-31T00:00:00	2024-11-08T10:00:00	5	Humedad	84
110153	7	Sololá	701	Sololá	4	Finca Santa Victoria	5	Mayo	2023-05-31T00:00:00	2024-11-08T10:00:00	6	Velocidad del viento	3.2
110154	7	Sololá	701	Sololá	4	Finca Santa Victoria	5	Mayo	2023-05-31T00:00:00	2024-11-08T10:00:00	7	Dirección del viento	3.22
110155	7	Sololá	701	Sololá	4	Finca Santa Victoria	5	Mayo	2023-05-31T00:00:00	2024-11-08T10:00:00	1	Precipitación	0
110156	7	Sololá	701	Sololá	4	Finca Santa Victoria	5	Mayo	2023-05-31T00:00:00	2024-11-08T10:00:00	8	Radiación solar	339
110157	7	Sololá	701	Sololá	4	Finca Santa Victoria	5	Mayo	2023-05-31T00:00:00	2024-11-08T11:00:00	2	Temperatura media	16.5
110158	7	Sololá	701	Sololá	4	Finca Santa Victoria	5	Mayo	2023-05-31T00:00:00	2024-11-08T11:00:00	4	Temperatura máxima	17.4
110159	7	Sololá	701	Sololá	4	Finca Santa Victoria	5	Mayo	2023-05-31T00:00:00	2024-11-08T11:00:00	3	Temperatura mínima	16.5
110160	7	Sololá	701	Sololá	4	Finca Santa Victoria	5	Mayo	2023-05-31T00:00:00	2024-11-08T11:00:00	5	Humedad	90
110161	7	Sololá	701	Sololá	4	Finca Santa Victoria	5	Mayo	2023-05-31T00:00:00	2024-11-08T11:00:00	6	Velocidad del viento	3.2
110162	7	Sololá	701	Sololá	4	Finca Santa Victoria	5	Mayo	2023-05-31T00:00:00	2024-11-08T11:00:00	7	Dirección del viento	3.22
110163	7	Sololá	701	Sololá	4	Finca Santa Victoria	5	Mayo	2023-05-31T00:00:00	2024-11-08T11:00:00	1	Precipitación	0
110164	7	Sololá	701	Sololá	4	Finca Santa Victoria	5	Mayo	2023-05-31T00:00:00	2024-11-08T11:00:00	8	Radiación solar	276
110165	7	Sololá	701	Sololá	4	Finca Santa Victoria	5	Mayo	2023-05-31T00:00:00	2024-11-08T12:00:00	2	Temperatura media	16.3
110166	7	Sololá	701	Sololá	4	Finca Santa Victoria	5	Mayo	2023-05-31T00:00:00	2024-11-08T12:00:00	4	Temperatura máxima	16.5
110167	7	Sololá	701	Sololá	4	Finca Santa Victoria	5	Mayo	2023-05-31T00:00:00	2024-11-08T12:00:00	3	Temperatura mínima	16.1
110168	7	Sololá	701	Sololá	4	Finca Santa Victoria	5	Mayo	2023-05-31T00:00:00	2024-11-08T12:00:00	5	Humedad	90
110169	7	Sololá	701	Sololá	4	Finca Santa Victoria	5	Mayo	2023-05-31T00:00:00	2024-11-08T12:00:00	6	Velocidad del viento	3.2
110170	7	Sololá	701	Sololá	4	Finca Santa Victoria	5	Mayo	2023-05-31T00:00:00	2024-11-08T12:00:00	7	Dirección del viento	3.22
110171	7	Sololá	701	Sololá	4	Finca Santa Victoria	5	Mayo	2023-05-31T00:00:00	2024-11-08T12:00:00	1	Precipitación	0
110172	7	Sololá	701	Sololá	4	Finca Santa Victoria	5	Mayo	2023-05-31T00:00:00	2024-11-08T12:00:00	8	Radiación solar	254
110173	7	Sololá	701	Sololá	4	Finca Santa Victoria	5	Mayo	2023-05-31T00:00:00	2024-11-08T13:00:00	2	Temperatura media	17.1
110174	7	Sololá	701	Sololá	4	Finca Santa Victoria	5	Mayo	2023-05-31T00:00:00	2024-11-08T13:00:00	4	Temperatura máxima	17.6
110175	7	Sololá	701	Sololá	4	Finca Santa Victoria	5	Mayo	2023-05-31T00:00:00	2024-11-08T13:00:00	3	Temperatura mínima	15.9
110176	7	Sololá	701	Sololá	4	Finca Santa Victoria	5	Mayo	2023-05-31T00:00:00	2024-11-08T13:00:00	5	Humedad	88
110177	7	Sololá	701	Sololá	4	Finca Santa Victoria	5	Mayo	2023-05-31T00:00:00	2024-11-08T13:00:00	6	Velocidad del viento	3.2
110178	7	Sololá	701	Sololá	4	Finca Santa Victoria	5	Mayo	2023-05-31T00:00:00	2024-11-08T13:00:00	7	Dirección del viento	3.22
110179	7	Sololá	701	Sololá	4	Finca Santa Victoria	5	Mayo	2023-05-31T00:00:00	2024-11-08T13:00:00	1	Precipitación	0
110180	7	Sololá	701	Sololá	4	Finca Santa Victoria	5	Mayo	2023-05-31T00:00:00	2024-11-08T13:00:00	8	Radiación solar	266
110181	7	Sololá	701	Sololá	4	Finca Santa Victoria	5	Mayo	2023-05-31T00:00:00	2024-11-08T14:00:00	2	Temperatura media	18.6
110182	7	Sololá	701	Sololá	4	Finca Santa Victoria	5	Mayo	2023-05-31T00:00:00	2024-11-08T14:00:00	4	Temperatura máxima	18.6
110183	7	Sololá	701	Sololá	4	Finca Santa Victoria	5	Mayo	2023-05-31T00:00:00	2024-11-08T14:00:00	3	Temperatura mínima	17.1
110184	7	Sololá	701	Sololá	4	Finca Santa Victoria	5	Mayo	2023-05-31T00:00:00	2024-11-08T14:00:00	5	Humedad	83
110185	7	Sololá	701	Sololá	4	Finca Santa Victoria	5	Mayo	2023-05-31T00:00:00	2024-11-08T14:00:00	6	Velocidad del viento	3.2
110186	7	Sololá	701	Sololá	4	Finca Santa Victoria	5	Mayo	2023-05-31T00:00:00	2024-11-08T14:00:00	7	Dirección del viento	3.22
110187	7	Sololá	701	Sololá	4	Finca Santa Victoria	5	Mayo	2023-05-31T00:00:00	2024-11-08T14:00:00	1	Precipitación	0
110188	7	Sololá	701	Sololá	4	Finca Santa Victoria	5	Mayo	2023-05-31T00:00:00	2024-11-08T14:00:00	8	Radiación solar	415
110189	7	Sololá	701	Sololá	4	Finca Santa Victoria	5	Mayo	2023-05-31T00:00:00	2024-11-08T15:00:00	2	Temperatura media	17.1
110190	7	Sololá	701	Sololá	4	Finca Santa Victoria	5	Mayo	2023-05-31T00:00:00	2024-11-08T15:00:00	4	Temperatura máxima	18.6
110191	7	Sololá	701	Sololá	4	Finca Santa Victoria	5	Mayo	2023-05-31T00:00:00	2024-11-08T15:00:00	3	Temperatura mínima	17.1
110192	7	Sololá	701	Sololá	4	Finca Santa Victoria	5	Mayo	2023-05-31T00:00:00	2024-11-08T15:00:00	5	Humedad	87
110193	7	Sololá	701	Sololá	4	Finca Santa Victoria	5	Mayo	2023-05-31T00:00:00	2024-11-08T15:00:00	6	Velocidad del viento	3.2
110194	7	Sololá	701	Sololá	4	Finca Santa Victoria	5	Mayo	2023-05-31T00:00:00	2024-11-08T15:00:00	7	Dirección del viento	3.22
110195	7	Sololá	701	Sololá	4	Finca Santa Victoria	5	Mayo	2023-05-31T00:00:00	2024-11-08T15:00:00	1	Precipitación	0
110196	7	Sololá	701	Sololá	4	Finca Santa Victoria	5	Mayo	2023-05-31T00:00:00	2024-11-08T15:00:00	8	Radiación solar	237
110197	7	Sololá	701	Sololá	4	Finca Santa Victoria	5	Mayo	2023-05-31T00:00:00	2024-11-08T16:00:00	2	Temperatura media	15.8
110198	7	Sololá	701	Sololá	4	Finca Santa Victoria	5	Mayo	2023-05-31T00:00:00	2024-11-08T16:00:00	4	Temperatura máxima	17.3
110199	7	Sololá	701	Sololá	4	Finca Santa Victoria	5	Mayo	2023-05-31T00:00:00	2024-11-08T16:00:00	3	Temperatura mínima	15.8
110200	7	Sololá	701	Sololá	4	Finca Santa Victoria	5	Mayo	2023-05-31T00:00:00	2024-11-08T16:00:00	5	Humedad	95
110201	7	Sololá	701	Sololá	4	Finca Santa Victoria	5	Mayo	2023-05-31T00:00:00	2024-11-08T16:00:00	6	Velocidad del viento	3.2
110202	7	Sololá	701	Sololá	4	Finca Santa Victoria	5	Mayo	2023-05-31T00:00:00	2024-11-08T16:00:00	7	Dirección del viento	3.22
110203	7	Sololá	701	Sololá	4	Finca Santa Victoria	5	Mayo	2023-05-31T00:00:00	2024-11-08T16:00:00	1	Precipitación	0
110204	7	Sololá	701	Sololá	4	Finca Santa Victoria	5	Mayo	2023-05-31T00:00:00	2024-11-08T16:00:00	8	Radiación solar	49
110205	7	Sololá	701	Sololá	4	Finca Santa Victoria	5	Mayo	2023-05-31T00:00:00	2024-11-08T17:00:00	2	Temperatura media	15.3
110206	7	Sololá	701	Sololá	4	Finca Santa Victoria	5	Mayo	2023-05-31T00:00:00	2024-11-08T17:00:00	4	Temperatura máxima	15.8
110207	7	Sololá	701	Sololá	4	Finca Santa Victoria	5	Mayo	2023-05-31T00:00:00	2024-11-08T17:00:00	3	Temperatura mínima	15.3
110208	7	Sololá	701	Sololá	4	Finca Santa Victoria	5	Mayo	2023-05-31T00:00:00	2024-11-08T17:00:00	5	Humedad	97
110209	7	Sololá	701	Sololá	4	Finca Santa Victoria	5	Mayo	2023-05-31T00:00:00	2024-11-08T17:00:00	6	Velocidad del viento	1.6
110210	7	Sololá	701	Sololá	4	Finca Santa Victoria	5	Mayo	2023-05-31T00:00:00	2024-11-08T17:00:00	7	Dirección del viento	1.61
110211	7	Sololá	701	Sololá	4	Finca Santa Victoria	5	Mayo	2023-05-31T00:00:00	2024-11-08T17:00:00	1	Precipitación	0
110212	7	Sololá	701	Sololá	4	Finca Santa Victoria	5	Mayo	2023-05-31T00:00:00	2024-11-08T17:00:00	8	Radiación solar	10
110213	7	Sololá	701	Sololá	4	Finca Santa Victoria	5	Mayo	2023-05-31T00:00:00	2024-11-08T18:00:00	2	Temperatura media	14.9
110214	7	Sololá	701	Sololá	4	Finca Santa Victoria	5	Mayo	2023-05-31T00:00:00	2024-11-08T18:00:00	4	Temperatura máxima	15.3
110215	7	Sololá	701	Sololá	4	Finca Santa Victoria	5	Mayo	2023-05-31T00:00:00	2024-11-08T18:00:00	3	Temperatura mínima	14.9
110216	7	Sololá	701	Sololá	4	Finca Santa Victoria	5	Mayo	2023-05-31T00:00:00	2024-11-08T18:00:00	5	Humedad	97
110217	7	Sololá	701	Sololá	4	Finca Santa Victoria	5	Mayo	2023-05-31T00:00:00	2024-11-08T18:00:00	6	Velocidad del viento	1.6
110218	7	Sololá	701	Sololá	4	Finca Santa Victoria	5	Mayo	2023-05-31T00:00:00	2024-11-08T18:00:00	7	Dirección del viento	1.61
110219	7	Sololá	701	Sololá	4	Finca Santa Victoria	5	Mayo	2023-05-31T00:00:00	2024-11-08T18:00:00	1	Precipitación	5.4
110220	7	Sololá	701	Sololá	4	Finca Santa Victoria	5	Mayo	2023-05-31T00:00:00	2024-11-08T18:00:00	8	Radiación solar	3
110221	7	Sololá	701	Sololá	4	Finca Santa Victoria	5	Mayo	2023-05-31T00:00:00	2024-11-08T19:00:00	2	Temperatura media	14.8
110222	7	Sololá	701	Sololá	4	Finca Santa Victoria	5	Mayo	2023-05-31T00:00:00	2024-11-08T19:00:00	4	Temperatura máxima	14.9
110223	7	Sololá	701	Sololá	4	Finca Santa Victoria	5	Mayo	2023-05-31T00:00:00	2024-11-08T19:00:00	3	Temperatura mínima	14.7
110224	7	Sololá	701	Sololá	4	Finca Santa Victoria	5	Mayo	2023-05-31T00:00:00	2024-11-08T19:00:00	5	Humedad	98
110225	7	Sololá	701	Sololá	4	Finca Santa Victoria	5	Mayo	2023-05-31T00:00:00	2024-11-08T19:00:00	6	Velocidad del viento	0
110226	7	Sololá	701	Sololá	4	Finca Santa Victoria	5	Mayo	2023-05-31T00:00:00	2024-11-08T19:00:00	7	Dirección del viento	0
110227	7	Sololá	701	Sololá	4	Finca Santa Victoria	5	Mayo	2023-05-31T00:00:00	2024-11-08T19:00:00	1	Precipitación	1.4
110228	7	Sololá	701	Sololá	4	Finca Santa Victoria	5	Mayo	2023-05-31T00:00:00	2024-11-08T19:00:00	8	Radiación solar	0
110229	7	Sololá	701	Sololá	4	Finca Santa Victoria	5	Mayo	2023-05-31T00:00:00	2024-11-08T20:00:00	2	Temperatura media	14.2
110230	7	Sololá	701	Sololá	4	Finca Santa Victoria	5	Mayo	2023-05-31T00:00:00	2024-11-08T20:00:00	4	Temperatura máxima	14.9
110231	7	Sololá	701	Sololá	4	Finca Santa Victoria	5	Mayo	2023-05-31T00:00:00	2024-11-08T20:00:00	3	Temperatura mínima	14.2
110232	7	Sololá	701	Sololá	4	Finca Santa Victoria	5	Mayo	2023-05-31T00:00:00	2024-11-08T20:00:00	5	Humedad	97
110233	7	Sololá	701	Sololá	4	Finca Santa Victoria	5	Mayo	2023-05-31T00:00:00	2024-11-08T20:00:00	6	Velocidad del viento	0
110234	7	Sololá	701	Sololá	4	Finca Santa Victoria	5	Mayo	2023-05-31T00:00:00	2024-11-08T20:00:00	7	Dirección del viento	0
110235	7	Sololá	701	Sololá	4	Finca Santa Victoria	5	Mayo	2023-05-31T00:00:00	2024-11-08T20:00:00	1	Precipitación	0
110236	7	Sololá	701	Sololá	4	Finca Santa Victoria	5	Mayo	2023-05-31T00:00:00	2024-11-08T20:00:00	8	Radiación solar	0
110237	7	Sololá	701	Sololá	4	Finca Santa Victoria	5	Mayo	2023-05-31T00:00:00	2024-11-08T21:00:00	2	Temperatura media	14.2
110238	7	Sololá	701	Sololá	4	Finca Santa Victoria	5	Mayo	2023-05-31T00:00:00	2024-11-08T21:00:00	4	Temperatura máxima	14.2
110239	7	Sololá	701	Sololá	4	Finca Santa Victoria	5	Mayo	2023-05-31T00:00:00	2024-11-08T21:00:00	3	Temperatura mínima	14.1
110240	7	Sololá	701	Sololá	4	Finca Santa Victoria	5	Mayo	2023-05-31T00:00:00	2024-11-08T21:00:00	5	Humedad	98
110241	7	Sololá	701	Sololá	4	Finca Santa Victoria	5	Mayo	2023-05-31T00:00:00	2024-11-08T21:00:00	6	Velocidad del viento	0
110242	7	Sololá	701	Sololá	4	Finca Santa Victoria	5	Mayo	2023-05-31T00:00:00	2024-11-08T21:00:00	7	Dirección del viento	0
110243	7	Sololá	701	Sololá	4	Finca Santa Victoria	5	Mayo	2023-05-31T00:00:00	2024-11-08T21:00:00	1	Precipitación	0
110244	7	Sololá	701	Sololá	4	Finca Santa Victoria	5	Mayo	2023-05-31T00:00:00	2024-11-08T21:00:00	8	Radiación solar	0
110245	7	Sololá	701	Sololá	4	Finca Santa Victoria	5	Mayo	2023-05-31T00:00:00	2024-11-08T22:00:00	2	Temperatura media	14.3
110246	7	Sololá	701	Sololá	4	Finca Santa Victoria	5	Mayo	2023-05-31T00:00:00	2024-11-08T22:00:00	4	Temperatura máxima	14.3
110247	7	Sololá	701	Sololá	4	Finca Santa Victoria	5	Mayo	2023-05-31T00:00:00	2024-11-08T22:00:00	3	Temperatura mínima	14.1
110248	7	Sololá	701	Sololá	4	Finca Santa Victoria	5	Mayo	2023-05-31T00:00:00	2024-11-08T22:00:00	5	Humedad	98
110249	7	Sololá	701	Sololá	4	Finca Santa Victoria	5	Mayo	2023-05-31T00:00:00	2024-11-08T22:00:00	6	Velocidad del viento	0
110250	7	Sololá	701	Sololá	4	Finca Santa Victoria	5	Mayo	2023-05-31T00:00:00	2024-11-08T22:00:00	7	Dirección del viento	0
110251	7	Sololá	701	Sololá	4	Finca Santa Victoria	5	Mayo	2023-05-31T00:00:00	2024-11-08T22:00:00	1	Precipitación	0
110252	7	Sololá	701	Sololá	4	Finca Santa Victoria	5	Mayo	2023-05-31T00:00:00	2024-11-08T22:00:00	8	Radiación solar	0
110253	7	Sololá	701	Sololá	4	Finca Santa Victoria	5	Mayo	2023-05-31T00:00:00	2024-11-08T23:00:00	2	Temperatura media	14.3
110254	7	Sololá	701	Sololá	4	Finca Santa Victoria	5	Mayo	2023-05-31T00:00:00	2024-11-08T23:00:00	4	Temperatura máxima	14.3
110255	7	Sololá	701	Sololá	4	Finca Santa Victoria	5	Mayo	2023-05-31T00:00:00	2024-11-08T23:00:00	3	Temperatura mínima	14.2
110256	7	Sololá	701	Sololá	4	Finca Santa Victoria	5	Mayo	2023-05-31T00:00:00	2024-11-08T23:00:00	5	Humedad	98
110257	7	Sololá	701	Sololá	4	Finca Santa Victoria	5	Mayo	2023-05-31T00:00:00	2024-11-08T23:00:00	6	Velocidad del viento	0
110258	7	Sololá	701	Sololá	4	Finca Santa Victoria	5	Mayo	2023-05-31T00:00:00	2024-11-08T23:00:00	7	Dirección del viento	0
110259	7	Sololá	701	Sololá	4	Finca Santa Victoria	5	Mayo	2023-05-31T00:00:00	2024-11-08T23:00:00	1	Precipitación	0
110260	7	Sololá	701	Sololá	4	Finca Santa Victoria	5	Mayo	2023-05-31T00:00:00	2024-11-08T23:00:00	8	Radiación solar	0
110261	7	Sololá	701	Sololá	4	Finca Santa Victoria	6	Junio	2023-01-06T00:00:00	2024-11-08T00:00:00	2	Temperatura media	14.3
110262	7	Sololá	701	Sololá	4	Finca Santa Victoria	6	Junio	2023-01-06T00:00:00	2024-11-08T00:00:00	4	Temperatura máxima	14.3
110263	7	Sololá	701	Sololá	4	Finca Santa Victoria	6	Junio	2023-01-06T00:00:00	2024-11-08T00:00:00	3	Temperatura mínima	14.2
110264	7	Sololá	701	Sololá	4	Finca Santa Victoria	6	Junio	2023-01-06T00:00:00	2024-11-08T00:00:00	5	Humedad	98
110265	7	Sololá	701	Sololá	4	Finca Santa Victoria	6	Junio	2023-01-06T00:00:00	2024-11-08T00:00:00	6	Velocidad del viento	0
110266	7	Sololá	701	Sololá	4	Finca Santa Victoria	6	Junio	2023-01-06T00:00:00	2024-11-08T00:00:00	7	Dirección del viento	0
110267	7	Sololá	701	Sololá	4	Finca Santa Victoria	6	Junio	2023-01-06T00:00:00	2024-11-08T00:00:00	1	Precipitación	0
110268	7	Sololá	701	Sololá	4	Finca Santa Victoria	6	Junio	2023-01-06T00:00:00	2024-11-08T00:00:00	8	Radiación solar	0
110269	7	Sololá	701	Sololá	4	Finca Santa Victoria	6	Junio	2023-01-06T00:00:00	2024-11-08T01:00:00	2	Temperatura media	14.2
110270	7	Sololá	701	Sololá	4	Finca Santa Victoria	6	Junio	2023-01-06T00:00:00	2024-11-08T01:00:00	4	Temperatura máxima	14.5
110271	7	Sololá	701	Sololá	4	Finca Santa Victoria	6	Junio	2023-01-06T00:00:00	2024-11-08T01:00:00	3	Temperatura mínima	14.2
110272	7	Sololá	701	Sololá	4	Finca Santa Victoria	6	Junio	2023-01-06T00:00:00	2024-11-08T01:00:00	5	Humedad	98
110273	7	Sololá	701	Sololá	4	Finca Santa Victoria	6	Junio	2023-01-06T00:00:00	2024-11-08T01:00:00	6	Velocidad del viento	0
110274	7	Sololá	701	Sololá	4	Finca Santa Victoria	6	Junio	2023-01-06T00:00:00	2024-11-08T01:00:00	7	Dirección del viento	0
110275	7	Sololá	701	Sololá	4	Finca Santa Victoria	6	Junio	2023-01-06T00:00:00	2024-11-08T01:00:00	1	Precipitación	0
110276	7	Sololá	701	Sololá	4	Finca Santa Victoria	6	Junio	2023-01-06T00:00:00	2024-11-08T01:00:00	8	Radiación solar	0
110277	7	Sololá	701	Sololá	4	Finca Santa Victoria	6	Junio	2023-01-06T00:00:00	2024-11-08T02:00:00	2	Temperatura media	13.9
110278	7	Sololá	701	Sololá	4	Finca Santa Victoria	6	Junio	2023-01-06T00:00:00	2024-11-08T02:00:00	4	Temperatura máxima	14.2
110279	7	Sololá	701	Sololá	4	Finca Santa Victoria	6	Junio	2023-01-06T00:00:00	2024-11-08T02:00:00	3	Temperatura mínima	13.9
110280	7	Sololá	701	Sololá	4	Finca Santa Victoria	6	Junio	2023-01-06T00:00:00	2024-11-08T02:00:00	5	Humedad	98
110281	7	Sololá	701	Sololá	4	Finca Santa Victoria	6	Junio	2023-01-06T00:00:00	2024-11-08T02:00:00	6	Velocidad del viento	0
110282	7	Sololá	701	Sololá	4	Finca Santa Victoria	6	Junio	2023-01-06T00:00:00	2024-11-08T02:00:00	7	Dirección del viento	0
110283	7	Sololá	701	Sololá	4	Finca Santa Victoria	6	Junio	2023-01-06T00:00:00	2024-11-08T02:00:00	1	Precipitación	0
110284	7	Sololá	701	Sololá	4	Finca Santa Victoria	6	Junio	2023-01-06T00:00:00	2024-11-08T02:00:00	8	Radiación solar	0
110285	7	Sololá	701	Sololá	4	Finca Santa Victoria	6	Junio	2023-01-06T00:00:00	2024-11-08T03:00:00	2	Temperatura media	13.7
110286	7	Sololá	701	Sololá	4	Finca Santa Victoria	6	Junio	2023-01-06T00:00:00	2024-11-08T03:00:00	4	Temperatura máxima	13.9
110287	7	Sololá	701	Sololá	4	Finca Santa Victoria	6	Junio	2023-01-06T00:00:00	2024-11-08T03:00:00	3	Temperatura mínima	13.6
110288	7	Sololá	701	Sololá	4	Finca Santa Victoria	6	Junio	2023-01-06T00:00:00	2024-11-08T03:00:00	5	Humedad	98
110289	7	Sololá	701	Sololá	4	Finca Santa Victoria	6	Junio	2023-01-06T00:00:00	2024-11-08T03:00:00	6	Velocidad del viento	0
110290	7	Sololá	701	Sololá	4	Finca Santa Victoria	6	Junio	2023-01-06T00:00:00	2024-11-08T03:00:00	7	Dirección del viento	0
110291	7	Sololá	701	Sololá	4	Finca Santa Victoria	6	Junio	2023-01-06T00:00:00	2024-11-08T03:00:00	1	Precipitación	0
110292	7	Sololá	701	Sololá	4	Finca Santa Victoria	6	Junio	2023-01-06T00:00:00	2024-11-08T03:00:00	8	Radiación solar	0
110293	7	Sololá	701	Sololá	4	Finca Santa Victoria	6	Junio	2023-01-06T00:00:00	2024-11-08T04:00:00	2	Temperatura media	13.4
110294	7	Sololá	701	Sololá	4	Finca Santa Victoria	6	Junio	2023-01-06T00:00:00	2024-11-08T04:00:00	4	Temperatura máxima	13.8
110295	7	Sololá	701	Sololá	4	Finca Santa Victoria	6	Junio	2023-01-06T00:00:00	2024-11-08T04:00:00	3	Temperatura mínima	13.4
110296	7	Sololá	701	Sololá	4	Finca Santa Victoria	6	Junio	2023-01-06T00:00:00	2024-11-08T04:00:00	5	Humedad	98
110297	7	Sololá	701	Sololá	4	Finca Santa Victoria	6	Junio	2023-01-06T00:00:00	2024-11-08T04:00:00	6	Velocidad del viento	0
110298	7	Sololá	701	Sololá	4	Finca Santa Victoria	6	Junio	2023-01-06T00:00:00	2024-11-08T04:00:00	7	Dirección del viento	0
110299	7	Sololá	701	Sololá	4	Finca Santa Victoria	6	Junio	2023-01-06T00:00:00	2024-11-08T04:00:00	1	Precipitación	0
110300	7	Sololá	701	Sololá	4	Finca Santa Victoria	6	Junio	2023-01-06T00:00:00	2024-11-08T04:00:00	8	Radiación solar	0
110301	7	Sololá	701	Sololá	4	Finca Santa Victoria	6	Junio	2023-01-06T00:00:00	2024-11-08T05:00:00	2	Temperatura media	12.9
110302	7	Sololá	701	Sololá	4	Finca Santa Victoria	6	Junio	2023-01-06T00:00:00	2024-11-08T05:00:00	4	Temperatura máxima	13.6
110303	7	Sololá	701	Sololá	4	Finca Santa Victoria	6	Junio	2023-01-06T00:00:00	2024-11-08T05:00:00	3	Temperatura mínima	12.9
110304	7	Sololá	701	Sololá	4	Finca Santa Victoria	6	Junio	2023-01-06T00:00:00	2024-11-08T05:00:00	5	Humedad	98
110305	7	Sololá	701	Sololá	4	Finca Santa Victoria	6	Junio	2023-01-06T00:00:00	2024-11-08T05:00:00	6	Velocidad del viento	0
110306	7	Sololá	701	Sololá	4	Finca Santa Victoria	6	Junio	2023-01-06T00:00:00	2024-11-08T05:00:00	7	Dirección del viento	0
110307	7	Sololá	701	Sololá	4	Finca Santa Victoria	6	Junio	2023-01-06T00:00:00	2024-11-08T05:00:00	1	Precipitación	0
110308	7	Sololá	701	Sololá	4	Finca Santa Victoria	6	Junio	2023-01-06T00:00:00	2024-11-08T05:00:00	8	Radiación solar	0
110309	7	Sololá	701	Sololá	4	Finca Santa Victoria	6	Junio	2023-01-06T00:00:00	2024-11-08T06:00:00	2	Temperatura media	12.7
110310	7	Sololá	701	Sololá	4	Finca Santa Victoria	6	Junio	2023-01-06T00:00:00	2024-11-08T06:00:00	4	Temperatura máxima	12.9
110311	7	Sololá	701	Sololá	4	Finca Santa Victoria	6	Junio	2023-01-06T00:00:00	2024-11-08T06:00:00	3	Temperatura mínima	12.6
110312	7	Sololá	701	Sololá	4	Finca Santa Victoria	6	Junio	2023-01-06T00:00:00	2024-11-08T06:00:00	5	Humedad	98
110313	7	Sololá	701	Sololá	4	Finca Santa Victoria	6	Junio	2023-01-06T00:00:00	2024-11-08T06:00:00	6	Velocidad del viento	0
110314	7	Sololá	701	Sololá	4	Finca Santa Victoria	6	Junio	2023-01-06T00:00:00	2024-11-08T06:00:00	7	Dirección del viento	0
110315	7	Sololá	701	Sololá	4	Finca Santa Victoria	6	Junio	2023-01-06T00:00:00	2024-11-08T06:00:00	1	Precipitación	0
110316	7	Sololá	701	Sololá	4	Finca Santa Victoria	6	Junio	2023-01-06T00:00:00	2024-11-08T06:00:00	8	Radiación solar	5
110317	7	Sololá	701	Sololá	4	Finca Santa Victoria	6	Junio	2023-01-06T00:00:00	2024-11-08T07:00:00	2	Temperatura media	13.1
110318	7	Sololá	701	Sololá	4	Finca Santa Victoria	6	Junio	2023-01-06T00:00:00	2024-11-08T07:00:00	4	Temperatura máxima	13.2
110319	7	Sololá	701	Sololá	4	Finca Santa Victoria	6	Junio	2023-01-06T00:00:00	2024-11-08T07:00:00	3	Temperatura mínima	12.5
110320	7	Sololá	701	Sololá	4	Finca Santa Victoria	6	Junio	2023-01-06T00:00:00	2024-11-08T07:00:00	5	Humedad	99
110321	7	Sololá	701	Sololá	4	Finca Santa Victoria	6	Junio	2023-01-06T00:00:00	2024-11-08T07:00:00	6	Velocidad del viento	1.6
110322	7	Sololá	701	Sololá	4	Finca Santa Victoria	6	Junio	2023-01-06T00:00:00	2024-11-08T07:00:00	7	Dirección del viento	1.61
110323	7	Sololá	701	Sololá	4	Finca Santa Victoria	6	Junio	2023-01-06T00:00:00	2024-11-08T07:00:00	1	Precipitación	0
110324	7	Sololá	701	Sololá	4	Finca Santa Victoria	6	Junio	2023-01-06T00:00:00	2024-11-08T07:00:00	8	Radiación solar	43
110325	7	Sololá	701	Sololá	4	Finca Santa Victoria	6	Junio	2023-01-06T00:00:00	2024-11-08T08:00:00	2	Temperatura media	15.1
110326	7	Sololá	701	Sololá	4	Finca Santa Victoria	6	Junio	2023-01-06T00:00:00	2024-11-08T08:00:00	4	Temperatura máxima	15.1
110327	7	Sololá	701	Sololá	4	Finca Santa Victoria	6	Junio	2023-01-06T00:00:00	2024-11-08T08:00:00	3	Temperatura mínima	13.2
110328	7	Sololá	701	Sololá	4	Finca Santa Victoria	6	Junio	2023-01-06T00:00:00	2024-11-08T08:00:00	5	Humedad	93
110329	7	Sololá	701	Sololá	4	Finca Santa Victoria	6	Junio	2023-01-06T00:00:00	2024-11-08T08:00:00	6	Velocidad del viento	1.6
110330	7	Sololá	701	Sololá	4	Finca Santa Victoria	6	Junio	2023-01-06T00:00:00	2024-11-08T08:00:00	7	Dirección del viento	1.61
110331	7	Sololá	701	Sololá	4	Finca Santa Victoria	6	Junio	2023-01-06T00:00:00	2024-11-08T08:00:00	1	Precipitación	0
110332	7	Sololá	701	Sololá	4	Finca Santa Victoria	6	Junio	2023-01-06T00:00:00	2024-11-08T08:00:00	8	Radiación solar	231
110333	7	Sololá	701	Sololá	4	Finca Santa Victoria	6	Junio	2023-01-06T00:00:00	2024-11-08T09:00:00	2	Temperatura media	16.6
110334	7	Sololá	701	Sololá	4	Finca Santa Victoria	6	Junio	2023-01-06T00:00:00	2024-11-08T09:00:00	4	Temperatura máxima	16.6
110335	7	Sololá	701	Sololá	4	Finca Santa Victoria	6	Junio	2023-01-06T00:00:00	2024-11-08T09:00:00	3	Temperatura mínima	15.1
110336	7	Sololá	701	Sololá	4	Finca Santa Victoria	6	Junio	2023-01-06T00:00:00	2024-11-08T09:00:00	5	Humedad	90
110337	7	Sololá	701	Sololá	4	Finca Santa Victoria	6	Junio	2023-01-06T00:00:00	2024-11-08T09:00:00	6	Velocidad del viento	1.6
110338	7	Sololá	701	Sololá	4	Finca Santa Victoria	6	Junio	2023-01-06T00:00:00	2024-11-08T09:00:00	7	Dirección del viento	1.61
110339	7	Sololá	701	Sololá	4	Finca Santa Victoria	6	Junio	2023-01-06T00:00:00	2024-11-08T09:00:00	1	Precipitación	0
110340	7	Sololá	701	Sololá	4	Finca Santa Victoria	6	Junio	2023-01-06T00:00:00	2024-11-08T09:00:00	8	Radiación solar	304
110341	7	Sololá	701	Sololá	4	Finca Santa Victoria	6	Junio	2023-01-06T00:00:00	2024-11-08T10:00:00	2	Temperatura media	17.1
110342	7	Sololá	701	Sololá	4	Finca Santa Victoria	6	Junio	2023-01-06T00:00:00	2024-11-08T10:00:00	4	Temperatura máxima	17.1
110343	7	Sololá	701	Sololá	4	Finca Santa Victoria	6	Junio	2023-01-06T00:00:00	2024-11-08T10:00:00	3	Temperatura mínima	16.3
110344	7	Sololá	701	Sololá	4	Finca Santa Victoria	6	Junio	2023-01-06T00:00:00	2024-11-08T10:00:00	5	Humedad	88
110345	7	Sololá	701	Sololá	4	Finca Santa Victoria	6	Junio	2023-01-06T00:00:00	2024-11-08T10:00:00	6	Velocidad del viento	3.2
110346	7	Sololá	701	Sololá	4	Finca Santa Victoria	6	Junio	2023-01-06T00:00:00	2024-11-08T10:00:00	7	Dirección del viento	3.22
110347	7	Sololá	701	Sololá	4	Finca Santa Victoria	6	Junio	2023-01-06T00:00:00	2024-11-08T10:00:00	1	Precipitación	0
110348	7	Sololá	701	Sololá	4	Finca Santa Victoria	6	Junio	2023-01-06T00:00:00	2024-11-08T10:00:00	8	Radiación solar	184
110349	7	Sololá	701	Sololá	4	Finca Santa Victoria	6	Junio	2023-01-06T00:00:00	2024-11-08T11:00:00	2	Temperatura media	19.3
110350	7	Sololá	701	Sololá	4	Finca Santa Victoria	6	Junio	2023-01-06T00:00:00	2024-11-08T11:00:00	4	Temperatura máxima	19.3
110351	7	Sololá	701	Sololá	4	Finca Santa Victoria	6	Junio	2023-01-06T00:00:00	2024-11-08T11:00:00	3	Temperatura mínima	17.1
110352	7	Sololá	701	Sololá	4	Finca Santa Victoria	6	Junio	2023-01-06T00:00:00	2024-11-08T11:00:00	5	Humedad	77
110353	7	Sololá	701	Sololá	4	Finca Santa Victoria	6	Junio	2023-01-06T00:00:00	2024-11-08T11:00:00	6	Velocidad del viento	3.2
110354	7	Sololá	701	Sololá	4	Finca Santa Victoria	6	Junio	2023-01-06T00:00:00	2024-11-08T11:00:00	7	Dirección del viento	3.22
110355	7	Sololá	701	Sololá	4	Finca Santa Victoria	6	Junio	2023-01-06T00:00:00	2024-11-08T11:00:00	1	Precipitación	0
110356	7	Sololá	701	Sololá	4	Finca Santa Victoria	6	Junio	2023-01-06T00:00:00	2024-11-08T11:00:00	8	Radiación solar	431
110357	7	Sololá	701	Sololá	4	Finca Santa Victoria	6	Junio	2023-01-06T00:00:00	2024-11-08T12:00:00	2	Temperatura media	18.4
110358	7	Sololá	701	Sololá	4	Finca Santa Victoria	6	Junio	2023-01-06T00:00:00	2024-11-08T12:00:00	4	Temperatura máxima	19.5
110359	7	Sololá	701	Sololá	4	Finca Santa Victoria	6	Junio	2023-01-06T00:00:00	2024-11-08T12:00:00	3	Temperatura mínima	18.4
110360	7	Sololá	701	Sololá	4	Finca Santa Victoria	6	Junio	2023-01-06T00:00:00	2024-11-08T12:00:00	5	Humedad	81
110361	7	Sololá	701	Sololá	4	Finca Santa Victoria	6	Junio	2023-01-06T00:00:00	2024-11-08T12:00:00	6	Velocidad del viento	4.8
110362	7	Sololá	701	Sololá	4	Finca Santa Victoria	6	Junio	2023-01-06T00:00:00	2024-11-08T12:00:00	7	Dirección del viento	4.83
110363	7	Sololá	701	Sololá	4	Finca Santa Victoria	6	Junio	2023-01-06T00:00:00	2024-11-08T12:00:00	1	Precipitación	0
110364	7	Sololá	701	Sololá	4	Finca Santa Victoria	6	Junio	2023-01-06T00:00:00	2024-11-08T12:00:00	8	Radiación solar	921
110365	7	Sololá	701	Sololá	4	Finca Santa Victoria	6	Junio	2023-01-06T00:00:00	2024-11-08T13:00:00	2	Temperatura media	17.7
110366	7	Sololá	701	Sololá	4	Finca Santa Victoria	6	Junio	2023-01-06T00:00:00	2024-11-08T13:00:00	4	Temperatura máxima	19
110367	7	Sololá	701	Sololá	4	Finca Santa Victoria	6	Junio	2023-01-06T00:00:00	2024-11-08T13:00:00	3	Temperatura mínima	17.5
110368	7	Sololá	701	Sololá	4	Finca Santa Victoria	6	Junio	2023-01-06T00:00:00	2024-11-08T13:00:00	5	Humedad	89
110369	7	Sololá	701	Sololá	4	Finca Santa Victoria	6	Junio	2023-01-06T00:00:00	2024-11-08T13:00:00	6	Velocidad del viento	4.8
110370	7	Sololá	701	Sololá	4	Finca Santa Victoria	6	Junio	2023-01-06T00:00:00	2024-11-08T13:00:00	7	Dirección del viento	4.83
110371	7	Sololá	701	Sololá	4	Finca Santa Victoria	6	Junio	2023-01-06T00:00:00	2024-11-08T13:00:00	1	Precipitación	0
110372	7	Sololá	701	Sololá	4	Finca Santa Victoria	6	Junio	2023-01-06T00:00:00	2024-11-08T13:00:00	8	Radiación solar	374
110373	7	Sololá	701	Sololá	4	Finca Santa Victoria	6	Junio	2023-01-06T00:00:00	2024-11-08T14:00:00	2	Temperatura media	17.9
110374	7	Sololá	701	Sololá	4	Finca Santa Victoria	6	Junio	2023-01-06T00:00:00	2024-11-08T14:00:00	4	Temperatura máxima	18.6
110375	7	Sololá	701	Sololá	4	Finca Santa Victoria	6	Junio	2023-01-06T00:00:00	2024-11-08T14:00:00	3	Temperatura mínima	17.5
110376	7	Sololá	701	Sololá	4	Finca Santa Victoria	6	Junio	2023-01-06T00:00:00	2024-11-08T14:00:00	5	Humedad	87
110377	7	Sololá	701	Sololá	4	Finca Santa Victoria	6	Junio	2023-01-06T00:00:00	2024-11-08T14:00:00	6	Velocidad del viento	4.8
110378	7	Sololá	701	Sololá	4	Finca Santa Victoria	6	Junio	2023-01-06T00:00:00	2024-11-08T14:00:00	7	Dirección del viento	4.83
110379	7	Sololá	701	Sololá	4	Finca Santa Victoria	6	Junio	2023-01-06T00:00:00	2024-11-08T14:00:00	1	Precipitación	0
110380	7	Sololá	701	Sololá	4	Finca Santa Victoria	6	Junio	2023-01-06T00:00:00	2024-11-08T14:00:00	8	Radiación solar	303
110381	7	Sololá	701	Sololá	4	Finca Santa Victoria	6	Junio	2023-01-06T00:00:00	2024-11-08T15:00:00	2	Temperatura media	17.5
110382	7	Sololá	701	Sololá	4	Finca Santa Victoria	6	Junio	2023-01-06T00:00:00	2024-11-08T15:00:00	4	Temperatura máxima	18.5
110383	7	Sololá	701	Sololá	4	Finca Santa Victoria	6	Junio	2023-01-06T00:00:00	2024-11-08T15:00:00	3	Temperatura mínima	17.5
110384	7	Sololá	701	Sololá	4	Finca Santa Victoria	6	Junio	2023-01-06T00:00:00	2024-11-08T15:00:00	5	Humedad	89
110385	7	Sololá	701	Sololá	4	Finca Santa Victoria	6	Junio	2023-01-06T00:00:00	2024-11-08T15:00:00	6	Velocidad del viento	4.8
110386	7	Sololá	701	Sololá	4	Finca Santa Victoria	6	Junio	2023-01-06T00:00:00	2024-11-08T15:00:00	7	Dirección del viento	4.83
110387	7	Sololá	701	Sololá	4	Finca Santa Victoria	6	Junio	2023-01-06T00:00:00	2024-11-08T15:00:00	1	Precipitación	0
110388	7	Sololá	701	Sololá	4	Finca Santa Victoria	6	Junio	2023-01-06T00:00:00	2024-11-08T15:00:00	8	Radiación solar	224
110389	7	Sololá	701	Sololá	4	Finca Santa Victoria	6	Junio	2023-01-06T00:00:00	2024-11-08T16:00:00	2	Temperatura media	17.3
110390	7	Sololá	701	Sololá	4	Finca Santa Victoria	6	Junio	2023-01-06T00:00:00	2024-11-08T16:00:00	4	Temperatura máxima	17.8
110391	7	Sololá	701	Sololá	4	Finca Santa Victoria	6	Junio	2023-01-06T00:00:00	2024-11-08T16:00:00	3	Temperatura mínima	17.2
110392	7	Sololá	701	Sololá	4	Finca Santa Victoria	6	Junio	2023-01-06T00:00:00	2024-11-08T16:00:00	5	Humedad	91
110393	7	Sololá	701	Sololá	4	Finca Santa Victoria	6	Junio	2023-01-06T00:00:00	2024-11-08T16:00:00	6	Velocidad del viento	3.2
110394	7	Sololá	701	Sololá	4	Finca Santa Victoria	6	Junio	2023-01-06T00:00:00	2024-11-08T16:00:00	7	Dirección del viento	3.22
110395	7	Sololá	701	Sololá	4	Finca Santa Victoria	6	Junio	2023-01-06T00:00:00	2024-11-08T16:00:00	1	Precipitación	0
110396	7	Sololá	701	Sololá	4	Finca Santa Victoria	6	Junio	2023-01-06T00:00:00	2024-11-08T16:00:00	8	Radiación solar	136
110397	7	Sololá	701	Sololá	4	Finca Santa Victoria	6	Junio	2023-01-06T00:00:00	2024-11-08T17:00:00	2	Temperatura media	16.9
110398	7	Sololá	701	Sololá	4	Finca Santa Victoria	6	Junio	2023-01-06T00:00:00	2024-11-08T17:00:00	4	Temperatura máxima	17.3
110399	7	Sololá	701	Sololá	4	Finca Santa Victoria	6	Junio	2023-01-06T00:00:00	2024-11-08T17:00:00	3	Temperatura mínima	16.9
110400	7	Sololá	701	Sololá	4	Finca Santa Victoria	6	Junio	2023-01-06T00:00:00	2024-11-08T17:00:00	5	Humedad	93
110401	7	Sololá	701	Sololá	4	Finca Santa Victoria	6	Junio	2023-01-06T00:00:00	2024-11-08T17:00:00	6	Velocidad del viento	3.2
110402	7	Sololá	701	Sololá	4	Finca Santa Victoria	6	Junio	2023-01-06T00:00:00	2024-11-08T17:00:00	7	Dirección del viento	3.22
110403	7	Sololá	701	Sololá	4	Finca Santa Victoria	6	Junio	2023-01-06T00:00:00	2024-11-08T17:00:00	1	Precipitación	0
110404	7	Sololá	701	Sololá	4	Finca Santa Victoria	6	Junio	2023-01-06T00:00:00	2024-11-08T17:00:00	8	Radiación solar	96
110405	7	Sololá	701	Sololá	4	Finca Santa Victoria	6	Junio	2023-01-06T00:00:00	2024-11-08T18:00:00	2	Temperatura media	16.4
110406	7	Sololá	701	Sololá	4	Finca Santa Victoria	6	Junio	2023-01-06T00:00:00	2024-11-08T18:00:00	4	Temperatura máxima	16.9
110407	7	Sololá	701	Sololá	4	Finca Santa Victoria	6	Junio	2023-01-06T00:00:00	2024-11-08T18:00:00	3	Temperatura mínima	16.4
110408	7	Sololá	701	Sololá	4	Finca Santa Victoria	6	Junio	2023-01-06T00:00:00	2024-11-08T18:00:00	5	Humedad	95
110409	7	Sololá	701	Sololá	4	Finca Santa Victoria	6	Junio	2023-01-06T00:00:00	2024-11-08T18:00:00	6	Velocidad del viento	1.6
110410	7	Sololá	701	Sololá	4	Finca Santa Victoria	6	Junio	2023-01-06T00:00:00	2024-11-08T18:00:00	7	Dirección del viento	1.61
110411	7	Sololá	701	Sololá	4	Finca Santa Victoria	6	Junio	2023-01-06T00:00:00	2024-11-08T18:00:00	1	Precipitación	0
110412	7	Sololá	701	Sololá	4	Finca Santa Victoria	6	Junio	2023-01-06T00:00:00	2024-11-08T18:00:00	8	Radiación solar	42
110413	7	Sololá	701	Sololá	4	Finca Santa Victoria	6	Junio	2023-01-06T00:00:00	2024-11-08T19:00:00	2	Temperatura media	16.1
110414	7	Sololá	701	Sololá	4	Finca Santa Victoria	6	Junio	2023-01-06T00:00:00	2024-11-08T19:00:00	4	Temperatura máxima	16.4
110415	7	Sololá	701	Sololá	4	Finca Santa Victoria	6	Junio	2023-01-06T00:00:00	2024-11-08T19:00:00	3	Temperatura mínima	16.1
110416	7	Sololá	701	Sololá	4	Finca Santa Victoria	6	Junio	2023-01-06T00:00:00	2024-11-08T19:00:00	5	Humedad	95
110417	7	Sololá	701	Sololá	4	Finca Santa Victoria	6	Junio	2023-01-06T00:00:00	2024-11-08T19:00:00	6	Velocidad del viento	0
110418	7	Sololá	701	Sololá	4	Finca Santa Victoria	6	Junio	2023-01-06T00:00:00	2024-11-08T19:00:00	7	Dirección del viento	0
110419	7	Sololá	701	Sololá	4	Finca Santa Victoria	6	Junio	2023-01-06T00:00:00	2024-11-08T19:00:00	1	Precipitación	0
110420	7	Sololá	701	Sololá	4	Finca Santa Victoria	6	Junio	2023-01-06T00:00:00	2024-11-08T19:00:00	8	Radiación solar	0
110421	7	Sololá	701	Sololá	4	Finca Santa Victoria	6	Junio	2023-01-06T00:00:00	2024-11-08T20:00:00	2	Temperatura media	15.8
110422	7	Sololá	701	Sololá	4	Finca Santa Victoria	6	Junio	2023-01-06T00:00:00	2024-11-08T20:00:00	4	Temperatura máxima	16.1
110423	7	Sololá	701	Sololá	4	Finca Santa Victoria	6	Junio	2023-01-06T00:00:00	2024-11-08T20:00:00	3	Temperatura mínima	15.7
110424	7	Sololá	701	Sololá	4	Finca Santa Victoria	6	Junio	2023-01-06T00:00:00	2024-11-08T20:00:00	5	Humedad	98
110425	7	Sololá	701	Sololá	4	Finca Santa Victoria	6	Junio	2023-01-06T00:00:00	2024-11-08T20:00:00	6	Velocidad del viento	0
110426	7	Sololá	701	Sololá	4	Finca Santa Victoria	6	Junio	2023-01-06T00:00:00	2024-11-08T20:00:00	7	Dirección del viento	0
110427	7	Sololá	701	Sololá	4	Finca Santa Victoria	6	Junio	2023-01-06T00:00:00	2024-11-08T20:00:00	1	Precipitación	0
110428	7	Sololá	701	Sololá	4	Finca Santa Victoria	6	Junio	2023-01-06T00:00:00	2024-11-08T20:00:00	8	Radiación solar	0
110429	7	Sololá	701	Sololá	4	Finca Santa Victoria	6	Junio	2023-01-06T00:00:00	2024-11-08T21:00:00	2	Temperatura media	15.3
110430	7	Sololá	701	Sololá	4	Finca Santa Victoria	6	Junio	2023-01-06T00:00:00	2024-11-08T21:00:00	4	Temperatura máxima	15.8
110431	7	Sololá	701	Sololá	4	Finca Santa Victoria	6	Junio	2023-01-06T00:00:00	2024-11-08T21:00:00	3	Temperatura mínima	15.3
110432	7	Sololá	701	Sololá	4	Finca Santa Victoria	6	Junio	2023-01-06T00:00:00	2024-11-08T21:00:00	5	Humedad	97
110433	7	Sololá	701	Sololá	4	Finca Santa Victoria	6	Junio	2023-01-06T00:00:00	2024-11-08T21:00:00	6	Velocidad del viento	0
110434	7	Sololá	701	Sololá	4	Finca Santa Victoria	6	Junio	2023-01-06T00:00:00	2024-11-08T21:00:00	7	Dirección del viento	0
110435	7	Sololá	701	Sololá	4	Finca Santa Victoria	6	Junio	2023-01-06T00:00:00	2024-11-08T21:00:00	1	Precipitación	0
110436	7	Sololá	701	Sololá	4	Finca Santa Victoria	6	Junio	2023-01-06T00:00:00	2024-11-08T21:00:00	8	Radiación solar	0
110437	7	Sololá	701	Sololá	4	Finca Santa Victoria	6	Junio	2023-01-06T00:00:00	2024-11-08T22:00:00	2	Temperatura media	15.1
110438	7	Sololá	701	Sololá	4	Finca Santa Victoria	6	Junio	2023-01-06T00:00:00	2024-11-08T22:00:00	4	Temperatura máxima	15.4
110439	7	Sololá	701	Sololá	4	Finca Santa Victoria	6	Junio	2023-01-06T00:00:00	2024-11-08T22:00:00	3	Temperatura mínima	15.1
110440	7	Sololá	701	Sololá	4	Finca Santa Victoria	6	Junio	2023-01-06T00:00:00	2024-11-08T22:00:00	5	Humedad	98
110441	7	Sololá	701	Sololá	4	Finca Santa Victoria	6	Junio	2023-01-06T00:00:00	2024-11-08T22:00:00	6	Velocidad del viento	0
110442	7	Sololá	701	Sololá	4	Finca Santa Victoria	6	Junio	2023-01-06T00:00:00	2024-11-08T22:00:00	7	Dirección del viento	0
110443	7	Sololá	701	Sololá	4	Finca Santa Victoria	6	Junio	2023-01-06T00:00:00	2024-11-08T22:00:00	1	Precipitación	0
110444	7	Sololá	701	Sololá	4	Finca Santa Victoria	6	Junio	2023-01-06T00:00:00	2024-11-08T22:00:00	8	Radiación solar	0
110445	7	Sololá	701	Sololá	4	Finca Santa Victoria	6	Junio	2023-01-06T00:00:00	2024-11-08T23:00:00	2	Temperatura media	15.4
110446	7	Sololá	701	Sololá	4	Finca Santa Victoria	6	Junio	2023-01-06T00:00:00	2024-11-08T23:00:00	4	Temperatura máxima	15.4
110447	7	Sololá	701	Sololá	4	Finca Santa Victoria	6	Junio	2023-01-06T00:00:00	2024-11-08T23:00:00	3	Temperatura mínima	14.9
110448	7	Sololá	701	Sololá	4	Finca Santa Victoria	6	Junio	2023-01-06T00:00:00	2024-11-08T23:00:00	5	Humedad	98
110449	7	Sololá	701	Sololá	4	Finca Santa Victoria	6	Junio	2023-01-06T00:00:00	2024-11-08T23:00:00	6	Velocidad del viento	0
110450	7	Sololá	701	Sololá	4	Finca Santa Victoria	6	Junio	2023-01-06T00:00:00	2024-11-08T23:00:00	7	Dirección del viento	0
110451	7	Sololá	701	Sololá	4	Finca Santa Victoria	6	Junio	2023-01-06T00:00:00	2024-11-08T23:00:00	1	Precipitación	0
110452	7	Sololá	701	Sololá	4	Finca Santa Victoria	6	Junio	2023-01-06T00:00:00	2024-11-08T23:00:00	8	Radiación solar	0
110453	7	Sololá	701	Sololá	4	Finca Santa Victoria	6	Junio	2023-02-06T00:00:00	2024-11-08T00:00:00	2	Temperatura media	14.9
110454	7	Sololá	701	Sololá	4	Finca Santa Victoria	6	Junio	2023-02-06T00:00:00	2024-11-08T00:00:00	4	Temperatura máxima	15.4
110455	7	Sololá	701	Sololá	4	Finca Santa Victoria	6	Junio	2023-02-06T00:00:00	2024-11-08T00:00:00	3	Temperatura mínima	14.9
110456	7	Sololá	701	Sololá	4	Finca Santa Victoria	6	Junio	2023-02-06T00:00:00	2024-11-08T00:00:00	5	Humedad	98
110457	7	Sololá	701	Sololá	4	Finca Santa Victoria	6	Junio	2023-02-06T00:00:00	2024-11-08T00:00:00	6	Velocidad del viento	0
110458	7	Sololá	701	Sololá	4	Finca Santa Victoria	6	Junio	2023-02-06T00:00:00	2024-11-08T00:00:00	7	Dirección del viento	0
110459	7	Sololá	701	Sololá	4	Finca Santa Victoria	6	Junio	2023-02-06T00:00:00	2024-11-08T00:00:00	1	Precipitación	0
110460	7	Sololá	701	Sololá	4	Finca Santa Victoria	6	Junio	2023-02-06T00:00:00	2024-11-08T00:00:00	8	Radiación solar	0
110461	7	Sololá	701	Sololá	4	Finca Santa Victoria	6	Junio	2023-02-06T00:00:00	2024-11-08T01:00:00	2	Temperatura media	14
110462	7	Sololá	701	Sololá	4	Finca Santa Victoria	6	Junio	2023-02-06T00:00:00	2024-11-08T01:00:00	4	Temperatura máxima	15
110463	7	Sololá	701	Sololá	4	Finca Santa Victoria	6	Junio	2023-02-06T00:00:00	2024-11-08T01:00:00	3	Temperatura mínima	14
110464	7	Sololá	701	Sololá	4	Finca Santa Victoria	6	Junio	2023-02-06T00:00:00	2024-11-08T01:00:00	5	Humedad	97
110465	7	Sololá	701	Sololá	4	Finca Santa Victoria	6	Junio	2023-02-06T00:00:00	2024-11-08T01:00:00	6	Velocidad del viento	1.6
110466	7	Sololá	701	Sololá	4	Finca Santa Victoria	6	Junio	2023-02-06T00:00:00	2024-11-08T01:00:00	7	Dirección del viento	1.61
110467	7	Sololá	701	Sololá	4	Finca Santa Victoria	6	Junio	2023-02-06T00:00:00	2024-11-08T01:00:00	1	Precipitación	0
110468	7	Sololá	701	Sololá	4	Finca Santa Victoria	6	Junio	2023-02-06T00:00:00	2024-11-08T01:00:00	8	Radiación solar	0
110469	7	Sololá	701	Sololá	4	Finca Santa Victoria	6	Junio	2023-02-06T00:00:00	2024-11-08T02:00:00	2	Temperatura media	13.9
110470	7	Sololá	701	Sololá	4	Finca Santa Victoria	6	Junio	2023-02-06T00:00:00	2024-11-08T02:00:00	4	Temperatura máxima	14.1
110471	7	Sololá	701	Sololá	4	Finca Santa Victoria	6	Junio	2023-02-06T00:00:00	2024-11-08T02:00:00	3	Temperatura mínima	13.9
110472	7	Sololá	701	Sololá	4	Finca Santa Victoria	6	Junio	2023-02-06T00:00:00	2024-11-08T02:00:00	5	Humedad	98
110473	7	Sololá	701	Sololá	4	Finca Santa Victoria	6	Junio	2023-02-06T00:00:00	2024-11-08T02:00:00	6	Velocidad del viento	0
110474	7	Sololá	701	Sololá	4	Finca Santa Victoria	6	Junio	2023-02-06T00:00:00	2024-11-08T02:00:00	7	Dirección del viento	0
110475	7	Sololá	701	Sololá	4	Finca Santa Victoria	6	Junio	2023-02-06T00:00:00	2024-11-08T02:00:00	1	Precipitación	0
110476	7	Sololá	701	Sololá	4	Finca Santa Victoria	6	Junio	2023-02-06T00:00:00	2024-11-08T02:00:00	8	Radiación solar	0
110477	7	Sololá	701	Sololá	4	Finca Santa Victoria	6	Junio	2023-02-06T00:00:00	2024-11-08T03:00:00	2	Temperatura media	12.9
110478	7	Sololá	701	Sololá	4	Finca Santa Victoria	6	Junio	2023-02-06T00:00:00	2024-11-08T03:00:00	4	Temperatura máxima	14
110479	7	Sololá	701	Sololá	4	Finca Santa Victoria	6	Junio	2023-02-06T00:00:00	2024-11-08T03:00:00	3	Temperatura mínima	12.8
110480	7	Sololá	701	Sololá	4	Finca Santa Victoria	6	Junio	2023-02-06T00:00:00	2024-11-08T03:00:00	5	Humedad	95
110481	7	Sololá	701	Sololá	4	Finca Santa Victoria	6	Junio	2023-02-06T00:00:00	2024-11-08T03:00:00	6	Velocidad del viento	1.6
110482	7	Sololá	701	Sololá	4	Finca Santa Victoria	6	Junio	2023-02-06T00:00:00	2024-11-08T03:00:00	7	Dirección del viento	1.61
110483	7	Sololá	701	Sololá	4	Finca Santa Victoria	6	Junio	2023-02-06T00:00:00	2024-11-08T03:00:00	1	Precipitación	0
110484	7	Sololá	701	Sololá	4	Finca Santa Victoria	6	Junio	2023-02-06T00:00:00	2024-11-08T03:00:00	8	Radiación solar	0
110485	7	Sololá	701	Sololá	4	Finca Santa Victoria	6	Junio	2023-02-06T00:00:00	2024-11-08T04:00:00	2	Temperatura media	13.3
110486	7	Sololá	701	Sololá	4	Finca Santa Victoria	6	Junio	2023-02-06T00:00:00	2024-11-08T04:00:00	4	Temperatura máxima	13.6
110487	7	Sololá	701	Sololá	4	Finca Santa Victoria	6	Junio	2023-02-06T00:00:00	2024-11-08T04:00:00	3	Temperatura mínima	12.9
110488	7	Sololá	701	Sololá	4	Finca Santa Victoria	6	Junio	2023-02-06T00:00:00	2024-11-08T04:00:00	5	Humedad	93
110489	7	Sololá	701	Sololá	4	Finca Santa Victoria	6	Junio	2023-02-06T00:00:00	2024-11-08T04:00:00	6	Velocidad del viento	1.6
110490	7	Sololá	701	Sololá	4	Finca Santa Victoria	6	Junio	2023-02-06T00:00:00	2024-11-08T04:00:00	7	Dirección del viento	1.61
110491	7	Sololá	701	Sololá	4	Finca Santa Victoria	6	Junio	2023-02-06T00:00:00	2024-11-08T04:00:00	1	Precipitación	0
110492	7	Sololá	701	Sololá	4	Finca Santa Victoria	6	Junio	2023-02-06T00:00:00	2024-11-08T04:00:00	8	Radiación solar	0
110493	7	Sololá	701	Sololá	4	Finca Santa Victoria	6	Junio	2023-02-06T00:00:00	2024-11-08T05:00:00	2	Temperatura media	12.9
110494	7	Sololá	701	Sololá	4	Finca Santa Victoria	6	Junio	2023-02-06T00:00:00	2024-11-08T05:00:00	4	Temperatura máxima	13.3
110495	7	Sololá	701	Sololá	4	Finca Santa Victoria	6	Junio	2023-02-06T00:00:00	2024-11-08T05:00:00	3	Temperatura mínima	12.8
110496	7	Sololá	701	Sololá	4	Finca Santa Victoria	6	Junio	2023-02-06T00:00:00	2024-11-08T05:00:00	5	Humedad	91
110497	7	Sololá	701	Sololá	4	Finca Santa Victoria	6	Junio	2023-02-06T00:00:00	2024-11-08T05:00:00	6	Velocidad del viento	1.6
110498	7	Sololá	701	Sololá	4	Finca Santa Victoria	6	Junio	2023-02-06T00:00:00	2024-11-08T05:00:00	7	Dirección del viento	1.61
110499	7	Sololá	701	Sololá	4	Finca Santa Victoria	6	Junio	2023-02-06T00:00:00	2024-11-08T05:00:00	1	Precipitación	0
110500	7	Sololá	701	Sololá	4	Finca Santa Victoria	6	Junio	2023-02-06T00:00:00	2024-11-08T05:00:00	8	Radiación solar	0
110501	7	Sololá	701	Sololá	4	Finca Santa Victoria	6	Junio	2023-02-06T00:00:00	2024-11-08T06:00:00	2	Temperatura media	13.3
110502	7	Sololá	701	Sololá	4	Finca Santa Victoria	6	Junio	2023-02-06T00:00:00	2024-11-08T06:00:00	4	Temperatura máxima	13.3
110503	7	Sololá	701	Sololá	4	Finca Santa Victoria	6	Junio	2023-02-06T00:00:00	2024-11-08T06:00:00	3	Temperatura mínima	12.9
110504	7	Sololá	701	Sololá	4	Finca Santa Victoria	6	Junio	2023-02-06T00:00:00	2024-11-08T06:00:00	5	Humedad	91
110505	7	Sololá	701	Sololá	4	Finca Santa Victoria	6	Junio	2023-02-06T00:00:00	2024-11-08T06:00:00	6	Velocidad del viento	1.6
110506	7	Sololá	701	Sololá	4	Finca Santa Victoria	6	Junio	2023-02-06T00:00:00	2024-11-08T06:00:00	7	Dirección del viento	1.61
110507	7	Sololá	701	Sololá	4	Finca Santa Victoria	6	Junio	2023-02-06T00:00:00	2024-11-08T06:00:00	1	Precipitación	0
110508	7	Sololá	701	Sololá	4	Finca Santa Victoria	6	Junio	2023-02-06T00:00:00	2024-11-08T06:00:00	8	Radiación solar	2
110509	7	Sololá	701	Sololá	4	Finca Santa Victoria	6	Junio	2023-02-06T00:00:00	2024-11-08T07:00:00	2	Temperatura media	14.1
110510	7	Sololá	701	Sololá	4	Finca Santa Victoria	6	Junio	2023-02-06T00:00:00	2024-11-08T07:00:00	4	Temperatura máxima	14.1
110511	7	Sololá	701	Sololá	4	Finca Santa Victoria	6	Junio	2023-02-06T00:00:00	2024-11-08T07:00:00	3	Temperatura mínima	13.3
110512	7	Sololá	701	Sololá	4	Finca Santa Victoria	6	Junio	2023-02-06T00:00:00	2024-11-08T07:00:00	5	Humedad	93
110513	7	Sololá	701	Sololá	4	Finca Santa Victoria	6	Junio	2023-02-06T00:00:00	2024-11-08T07:00:00	6	Velocidad del viento	0
110514	7	Sololá	701	Sololá	4	Finca Santa Victoria	6	Junio	2023-02-06T00:00:00	2024-11-08T07:00:00	7	Dirección del viento	0
110515	7	Sololá	701	Sololá	4	Finca Santa Victoria	6	Junio	2023-02-06T00:00:00	2024-11-08T07:00:00	1	Precipitación	0
110516	7	Sololá	701	Sololá	4	Finca Santa Victoria	6	Junio	2023-02-06T00:00:00	2024-11-08T07:00:00	8	Radiación solar	28
110517	7	Sololá	701	Sololá	4	Finca Santa Victoria	6	Junio	2023-02-06T00:00:00	2024-11-08T08:00:00	2	Temperatura media	17.4
110518	7	Sololá	701	Sololá	4	Finca Santa Victoria	6	Junio	2023-02-06T00:00:00	2024-11-08T08:00:00	4	Temperatura máxima	17.4
110519	7	Sololá	701	Sololá	4	Finca Santa Victoria	6	Junio	2023-02-06T00:00:00	2024-11-08T08:00:00	3	Temperatura mínima	14.1
110520	7	Sololá	701	Sololá	4	Finca Santa Victoria	6	Junio	2023-02-06T00:00:00	2024-11-08T08:00:00	5	Humedad	82
110521	7	Sololá	701	Sololá	4	Finca Santa Victoria	6	Junio	2023-02-06T00:00:00	2024-11-08T08:00:00	6	Velocidad del viento	0
110522	7	Sololá	701	Sololá	4	Finca Santa Victoria	6	Junio	2023-02-06T00:00:00	2024-11-08T08:00:00	7	Dirección del viento	0
110523	7	Sololá	701	Sololá	4	Finca Santa Victoria	6	Junio	2023-02-06T00:00:00	2024-11-08T08:00:00	1	Precipitación	0
110524	7	Sololá	701	Sololá	4	Finca Santa Victoria	6	Junio	2023-02-06T00:00:00	2024-11-08T08:00:00	8	Radiación solar	254
110525	7	Sololá	701	Sololá	4	Finca Santa Victoria	6	Junio	2023-02-06T00:00:00	2024-11-08T09:00:00	2	Temperatura media	18.2
110526	7	Sololá	701	Sololá	4	Finca Santa Victoria	6	Junio	2023-02-06T00:00:00	2024-11-08T09:00:00	4	Temperatura máxima	18.3
110527	7	Sololá	701	Sololá	4	Finca Santa Victoria	6	Junio	2023-02-06T00:00:00	2024-11-08T09:00:00	3	Temperatura mínima	17.4
110528	7	Sololá	701	Sololá	4	Finca Santa Victoria	6	Junio	2023-02-06T00:00:00	2024-11-08T09:00:00	5	Humedad	81
110529	7	Sololá	701	Sololá	4	Finca Santa Victoria	6	Junio	2023-02-06T00:00:00	2024-11-08T09:00:00	6	Velocidad del viento	1.6
110530	7	Sololá	701	Sololá	4	Finca Santa Victoria	6	Junio	2023-02-06T00:00:00	2024-11-08T09:00:00	7	Dirección del viento	1.61
110531	7	Sololá	701	Sololá	4	Finca Santa Victoria	6	Junio	2023-02-06T00:00:00	2024-11-08T09:00:00	1	Precipitación	0
110532	7	Sololá	701	Sololá	4	Finca Santa Victoria	6	Junio	2023-02-06T00:00:00	2024-11-08T09:00:00	8	Radiación solar	453
110533	7	Sololá	701	Sololá	4	Finca Santa Victoria	6	Junio	2023-02-06T00:00:00	2024-11-08T10:00:00	2	Temperatura media	18.7
110534	7	Sololá	701	Sololá	4	Finca Santa Victoria	6	Junio	2023-02-06T00:00:00	2024-11-08T10:00:00	4	Temperatura máxima	18.8
110535	7	Sololá	701	Sololá	4	Finca Santa Victoria	6	Junio	2023-02-06T00:00:00	2024-11-08T10:00:00	3	Temperatura mínima	17.9
110536	7	Sololá	701	Sololá	4	Finca Santa Victoria	6	Junio	2023-02-06T00:00:00	2024-11-08T10:00:00	5	Humedad	78
110537	7	Sololá	701	Sololá	4	Finca Santa Victoria	6	Junio	2023-02-06T00:00:00	2024-11-08T10:00:00	6	Velocidad del viento	3.2
110538	7	Sololá	701	Sololá	4	Finca Santa Victoria	6	Junio	2023-02-06T00:00:00	2024-11-08T10:00:00	7	Dirección del viento	3.22
110539	7	Sololá	701	Sololá	4	Finca Santa Victoria	6	Junio	2023-02-06T00:00:00	2024-11-08T10:00:00	1	Precipitación	0
110540	7	Sololá	701	Sololá	4	Finca Santa Victoria	6	Junio	2023-02-06T00:00:00	2024-11-08T10:00:00	8	Radiación solar	227
110541	7	Sololá	701	Sololá	4	Finca Santa Victoria	6	Junio	2023-02-06T00:00:00	2024-11-08T11:00:00	2	Temperatura media	19.3
110542	7	Sololá	701	Sololá	4	Finca Santa Victoria	6	Junio	2023-02-06T00:00:00	2024-11-08T11:00:00	4	Temperatura máxima	19.3
110543	7	Sololá	701	Sololá	4	Finca Santa Victoria	6	Junio	2023-02-06T00:00:00	2024-11-08T11:00:00	3	Temperatura mínima	18.6
110544	7	Sololá	701	Sololá	4	Finca Santa Victoria	6	Junio	2023-02-06T00:00:00	2024-11-08T11:00:00	5	Humedad	78
110545	7	Sololá	701	Sololá	4	Finca Santa Victoria	6	Junio	2023-02-06T00:00:00	2024-11-08T11:00:00	6	Velocidad del viento	4.8
110546	7	Sololá	701	Sololá	4	Finca Santa Victoria	6	Junio	2023-02-06T00:00:00	2024-11-08T11:00:00	7	Dirección del viento	4.83
110547	7	Sololá	701	Sololá	4	Finca Santa Victoria	6	Junio	2023-02-06T00:00:00	2024-11-08T11:00:00	1	Precipitación	0
110548	7	Sololá	701	Sololá	4	Finca Santa Victoria	6	Junio	2023-02-06T00:00:00	2024-11-08T11:00:00	8	Radiación solar	448
110549	7	Sololá	701	Sololá	4	Finca Santa Victoria	6	Junio	2023-02-06T00:00:00	2024-11-08T12:00:00	2	Temperatura media	19.4
110550	7	Sololá	701	Sololá	4	Finca Santa Victoria	6	Junio	2023-02-06T00:00:00	2024-11-08T12:00:00	4	Temperatura máxima	19.4
110551	7	Sololá	701	Sololá	4	Finca Santa Victoria	6	Junio	2023-02-06T00:00:00	2024-11-08T12:00:00	3	Temperatura mínima	18.3
110552	7	Sololá	701	Sololá	4	Finca Santa Victoria	6	Junio	2023-02-06T00:00:00	2024-11-08T12:00:00	5	Humedad	85
110553	7	Sololá	701	Sololá	4	Finca Santa Victoria	6	Junio	2023-02-06T00:00:00	2024-11-08T12:00:00	6	Velocidad del viento	4.8
110554	7	Sololá	701	Sololá	4	Finca Santa Victoria	6	Junio	2023-02-06T00:00:00	2024-11-08T12:00:00	7	Dirección del viento	4.83
110555	7	Sololá	701	Sololá	4	Finca Santa Victoria	6	Junio	2023-02-06T00:00:00	2024-11-08T12:00:00	1	Precipitación	0
110556	7	Sololá	701	Sololá	4	Finca Santa Victoria	6	Junio	2023-02-06T00:00:00	2024-11-08T12:00:00	8	Radiación solar	510
110557	7	Sololá	701	Sololá	4	Finca Santa Victoria	6	Junio	2023-02-06T00:00:00	2024-11-08T13:00:00	2	Temperatura media	19.6
110558	7	Sololá	701	Sololá	4	Finca Santa Victoria	6	Junio	2023-02-06T00:00:00	2024-11-08T13:00:00	4	Temperatura máxima	19.6
110559	7	Sololá	701	Sololá	4	Finca Santa Victoria	6	Junio	2023-02-06T00:00:00	2024-11-08T13:00:00	3	Temperatura mínima	18.2
110560	7	Sololá	701	Sololá	4	Finca Santa Victoria	6	Junio	2023-02-06T00:00:00	2024-11-08T13:00:00	5	Humedad	82
110561	7	Sololá	701	Sololá	4	Finca Santa Victoria	6	Junio	2023-02-06T00:00:00	2024-11-08T13:00:00	6	Velocidad del viento	4.8
110562	7	Sololá	701	Sololá	4	Finca Santa Victoria	6	Junio	2023-02-06T00:00:00	2024-11-08T13:00:00	7	Dirección del viento	4.83
110563	7	Sololá	701	Sololá	4	Finca Santa Victoria	6	Junio	2023-02-06T00:00:00	2024-11-08T13:00:00	1	Precipitación	0
110564	7	Sololá	701	Sololá	4	Finca Santa Victoria	6	Junio	2023-02-06T00:00:00	2024-11-08T13:00:00	8	Radiación solar	457
110565	7	Sololá	701	Sololá	4	Finca Santa Victoria	6	Junio	2023-02-06T00:00:00	2024-11-08T14:00:00	2	Temperatura media	18.7
110566	7	Sololá	701	Sololá	4	Finca Santa Victoria	6	Junio	2023-02-06T00:00:00	2024-11-08T14:00:00	4	Temperatura máxima	19.6
110567	7	Sololá	701	Sololá	4	Finca Santa Victoria	6	Junio	2023-02-06T00:00:00	2024-11-08T14:00:00	3	Temperatura mínima	18.4
110568	7	Sololá	701	Sololá	4	Finca Santa Victoria	6	Junio	2023-02-06T00:00:00	2024-11-08T14:00:00	5	Humedad	86
110569	7	Sololá	701	Sololá	4	Finca Santa Victoria	6	Junio	2023-02-06T00:00:00	2024-11-08T14:00:00	6	Velocidad del viento	4.8
110570	7	Sololá	701	Sololá	4	Finca Santa Victoria	6	Junio	2023-02-06T00:00:00	2024-11-08T14:00:00	7	Dirección del viento	4.83
110571	7	Sololá	701	Sololá	4	Finca Santa Victoria	6	Junio	2023-02-06T00:00:00	2024-11-08T14:00:00	1	Precipitación	0
110572	7	Sololá	701	Sololá	4	Finca Santa Victoria	6	Junio	2023-02-06T00:00:00	2024-11-08T14:00:00	8	Radiación solar	231
110573	7	Sololá	701	Sololá	4	Finca Santa Victoria	6	Junio	2023-02-06T00:00:00	2024-11-08T15:00:00	2	Temperatura media	18.1
110574	7	Sololá	701	Sololá	4	Finca Santa Victoria	6	Junio	2023-02-06T00:00:00	2024-11-08T15:00:00	4	Temperatura máxima	19.3
110575	7	Sololá	701	Sololá	4	Finca Santa Victoria	6	Junio	2023-02-06T00:00:00	2024-11-08T15:00:00	3	Temperatura mínima	18.1
110576	7	Sololá	701	Sololá	4	Finca Santa Victoria	6	Junio	2023-02-06T00:00:00	2024-11-08T15:00:00	5	Humedad	90
110577	7	Sololá	701	Sololá	4	Finca Santa Victoria	6	Junio	2023-02-06T00:00:00	2024-11-08T15:00:00	6	Velocidad del viento	4.8
110578	7	Sololá	701	Sololá	4	Finca Santa Victoria	6	Junio	2023-02-06T00:00:00	2024-11-08T15:00:00	7	Dirección del viento	4.83
110579	7	Sololá	701	Sololá	4	Finca Santa Victoria	6	Junio	2023-02-06T00:00:00	2024-11-08T15:00:00	1	Precipitación	0
110580	7	Sololá	701	Sololá	4	Finca Santa Victoria	6	Junio	2023-02-06T00:00:00	2024-11-08T15:00:00	8	Radiación solar	255
110581	7	Sololá	701	Sololá	4	Finca Santa Victoria	6	Junio	2023-02-06T00:00:00	2024-11-08T16:00:00	2	Temperatura media	17.8
110582	7	Sololá	701	Sololá	4	Finca Santa Victoria	6	Junio	2023-02-06T00:00:00	2024-11-08T16:00:00	4	Temperatura máxima	18.1
110583	7	Sololá	701	Sololá	4	Finca Santa Victoria	6	Junio	2023-02-06T00:00:00	2024-11-08T16:00:00	3	Temperatura mínima	17.2
110584	7	Sololá	701	Sololá	4	Finca Santa Victoria	6	Junio	2023-02-06T00:00:00	2024-11-08T16:00:00	5	Humedad	89
110585	7	Sololá	701	Sololá	4	Finca Santa Victoria	6	Junio	2023-02-06T00:00:00	2024-11-08T16:00:00	6	Velocidad del viento	3.2
110586	7	Sololá	701	Sololá	4	Finca Santa Victoria	6	Junio	2023-02-06T00:00:00	2024-11-08T16:00:00	7	Dirección del viento	3.22
110587	7	Sololá	701	Sololá	4	Finca Santa Victoria	6	Junio	2023-02-06T00:00:00	2024-11-08T16:00:00	1	Precipitación	0
110588	7	Sololá	701	Sololá	4	Finca Santa Victoria	6	Junio	2023-02-06T00:00:00	2024-11-08T16:00:00	8	Radiación solar	133
110589	7	Sololá	701	Sololá	4	Finca Santa Victoria	6	Junio	2023-02-06T00:00:00	2024-11-08T17:00:00	2	Temperatura media	17.6
110590	7	Sololá	701	Sololá	4	Finca Santa Victoria	6	Junio	2023-02-06T00:00:00	2024-11-08T17:00:00	4	Temperatura máxima	17.9
110591	7	Sololá	701	Sololá	4	Finca Santa Victoria	6	Junio	2023-02-06T00:00:00	2024-11-08T17:00:00	3	Temperatura mínima	17.6
110592	7	Sololá	701	Sololá	4	Finca Santa Victoria	6	Junio	2023-02-06T00:00:00	2024-11-08T17:00:00	5	Humedad	93
110593	7	Sololá	701	Sololá	4	Finca Santa Victoria	6	Junio	2023-02-06T00:00:00	2024-11-08T17:00:00	6	Velocidad del viento	1.6
110594	7	Sololá	701	Sololá	4	Finca Santa Victoria	6	Junio	2023-02-06T00:00:00	2024-11-08T17:00:00	7	Dirección del viento	1.61
110595	7	Sololá	701	Sololá	4	Finca Santa Victoria	6	Junio	2023-02-06T00:00:00	2024-11-08T17:00:00	1	Precipitación	0
110596	7	Sololá	701	Sololá	4	Finca Santa Victoria	6	Junio	2023-02-06T00:00:00	2024-11-08T17:00:00	8	Radiación solar	97
110597	7	Sololá	701	Sololá	4	Finca Santa Victoria	6	Junio	2023-02-06T00:00:00	2024-11-08T18:00:00	2	Temperatura media	17.1
110598	7	Sololá	701	Sololá	4	Finca Santa Victoria	6	Junio	2023-02-06T00:00:00	2024-11-08T18:00:00	4	Temperatura máxima	17.6
110599	7	Sololá	701	Sololá	4	Finca Santa Victoria	6	Junio	2023-02-06T00:00:00	2024-11-08T18:00:00	3	Temperatura mínima	17.1
110600	7	Sololá	701	Sololá	4	Finca Santa Victoria	6	Junio	2023-02-06T00:00:00	2024-11-08T18:00:00	5	Humedad	94
110601	7	Sololá	701	Sololá	4	Finca Santa Victoria	6	Junio	2023-02-06T00:00:00	2024-11-08T18:00:00	6	Velocidad del viento	1.6
110602	7	Sololá	701	Sololá	4	Finca Santa Victoria	6	Junio	2023-02-06T00:00:00	2024-11-08T18:00:00	7	Dirección del viento	1.61
110603	7	Sololá	701	Sololá	4	Finca Santa Victoria	6	Junio	2023-02-06T00:00:00	2024-11-08T18:00:00	1	Precipitación	0
110604	7	Sololá	701	Sololá	4	Finca Santa Victoria	6	Junio	2023-02-06T00:00:00	2024-11-08T18:00:00	8	Radiación solar	37
110605	7	Sololá	701	Sololá	4	Finca Santa Victoria	6	Junio	2023-02-06T00:00:00	2024-11-08T19:00:00	2	Temperatura media	15.9
110606	7	Sololá	701	Sololá	4	Finca Santa Victoria	6	Junio	2023-02-06T00:00:00	2024-11-08T19:00:00	4	Temperatura máxima	17.1
110607	7	Sololá	701	Sololá	4	Finca Santa Victoria	6	Junio	2023-02-06T00:00:00	2024-11-08T19:00:00	3	Temperatura mínima	15.9
110608	7	Sololá	701	Sololá	4	Finca Santa Victoria	6	Junio	2023-02-06T00:00:00	2024-11-08T19:00:00	5	Humedad	96
110609	7	Sololá	701	Sololá	4	Finca Santa Victoria	6	Junio	2023-02-06T00:00:00	2024-11-08T19:00:00	6	Velocidad del viento	0
110610	7	Sololá	701	Sololá	4	Finca Santa Victoria	6	Junio	2023-02-06T00:00:00	2024-11-08T19:00:00	7	Dirección del viento	0
110611	7	Sololá	701	Sololá	4	Finca Santa Victoria	6	Junio	2023-02-06T00:00:00	2024-11-08T19:00:00	1	Precipitación	0
110612	7	Sololá	701	Sololá	4	Finca Santa Victoria	6	Junio	2023-02-06T00:00:00	2024-11-08T19:00:00	8	Radiación solar	0
110613	7	Sololá	701	Sololá	4	Finca Santa Victoria	6	Junio	2023-02-06T00:00:00	2024-11-08T20:00:00	2	Temperatura media	15.6
110614	7	Sololá	701	Sololá	4	Finca Santa Victoria	6	Junio	2023-02-06T00:00:00	2024-11-08T20:00:00	4	Temperatura máxima	15.9
110615	7	Sololá	701	Sololá	4	Finca Santa Victoria	6	Junio	2023-02-06T00:00:00	2024-11-08T20:00:00	3	Temperatura mínima	15.4
110616	7	Sololá	701	Sololá	4	Finca Santa Victoria	6	Junio	2023-02-06T00:00:00	2024-11-08T20:00:00	5	Humedad	94
110617	7	Sololá	701	Sololá	4	Finca Santa Victoria	6	Junio	2023-02-06T00:00:00	2024-11-08T20:00:00	6	Velocidad del viento	0
110618	7	Sololá	701	Sololá	4	Finca Santa Victoria	6	Junio	2023-02-06T00:00:00	2024-11-08T20:00:00	7	Dirección del viento	0
110619	7	Sololá	701	Sololá	4	Finca Santa Victoria	6	Junio	2023-02-06T00:00:00	2024-11-08T20:00:00	1	Precipitación	0
110620	7	Sololá	701	Sololá	4	Finca Santa Victoria	6	Junio	2023-02-06T00:00:00	2024-11-08T20:00:00	8	Radiación solar	0
110621	7	Sololá	701	Sololá	4	Finca Santa Victoria	6	Junio	2023-02-06T00:00:00	2024-11-08T21:00:00	2	Temperatura media	15.4
110622	7	Sololá	701	Sololá	4	Finca Santa Victoria	6	Junio	2023-02-06T00:00:00	2024-11-08T21:00:00	4	Temperatura máxima	15.6
110623	7	Sololá	701	Sololá	4	Finca Santa Victoria	6	Junio	2023-02-06T00:00:00	2024-11-08T21:00:00	3	Temperatura mínima	15.4
110624	7	Sololá	701	Sololá	4	Finca Santa Victoria	6	Junio	2023-02-06T00:00:00	2024-11-08T21:00:00	5	Humedad	97
110625	7	Sololá	701	Sololá	4	Finca Santa Victoria	6	Junio	2023-02-06T00:00:00	2024-11-08T21:00:00	6	Velocidad del viento	0
110626	7	Sololá	701	Sololá	4	Finca Santa Victoria	6	Junio	2023-02-06T00:00:00	2024-11-08T21:00:00	7	Dirección del viento	0
110627	7	Sololá	701	Sololá	4	Finca Santa Victoria	6	Junio	2023-02-06T00:00:00	2024-11-08T21:00:00	1	Precipitación	0
110628	7	Sololá	701	Sololá	4	Finca Santa Victoria	6	Junio	2023-02-06T00:00:00	2024-11-08T21:00:00	8	Radiación solar	0
110629	7	Sololá	701	Sololá	4	Finca Santa Victoria	6	Junio	2023-02-06T00:00:00	2024-11-08T22:00:00	2	Temperatura media	15.3
110630	7	Sololá	701	Sololá	4	Finca Santa Victoria	6	Junio	2023-02-06T00:00:00	2024-11-08T22:00:00	4	Temperatura máxima	15.7
110631	7	Sololá	701	Sololá	4	Finca Santa Victoria	6	Junio	2023-02-06T00:00:00	2024-11-08T22:00:00	3	Temperatura mínima	15.3
110632	7	Sololá	701	Sololá	4	Finca Santa Victoria	6	Junio	2023-02-06T00:00:00	2024-11-08T22:00:00	5	Humedad	98
110633	7	Sololá	701	Sololá	4	Finca Santa Victoria	6	Junio	2023-02-06T00:00:00	2024-11-08T22:00:00	6	Velocidad del viento	0
110634	7	Sololá	701	Sololá	4	Finca Santa Victoria	6	Junio	2023-02-06T00:00:00	2024-11-08T22:00:00	7	Dirección del viento	0
110635	7	Sololá	701	Sololá	4	Finca Santa Victoria	6	Junio	2023-02-06T00:00:00	2024-11-08T22:00:00	1	Precipitación	0
110636	7	Sololá	701	Sololá	4	Finca Santa Victoria	6	Junio	2023-02-06T00:00:00	2024-11-08T22:00:00	8	Radiación solar	0
110637	7	Sololá	701	Sololá	4	Finca Santa Victoria	6	Junio	2023-02-06T00:00:00	2024-11-08T23:00:00	2	Temperatura media	15.2
110638	7	Sololá	701	Sololá	4	Finca Santa Victoria	6	Junio	2023-02-06T00:00:00	2024-11-08T23:00:00	4	Temperatura máxima	15.4
110639	7	Sololá	701	Sololá	4	Finca Santa Victoria	6	Junio	2023-02-06T00:00:00	2024-11-08T23:00:00	3	Temperatura mínima	15.2
110640	7	Sololá	701	Sololá	4	Finca Santa Victoria	6	Junio	2023-02-06T00:00:00	2024-11-08T23:00:00	5	Humedad	97
110641	7	Sololá	701	Sololá	4	Finca Santa Victoria	6	Junio	2023-02-06T00:00:00	2024-11-08T23:00:00	6	Velocidad del viento	0
110642	7	Sololá	701	Sololá	4	Finca Santa Victoria	6	Junio	2023-02-06T00:00:00	2024-11-08T23:00:00	7	Dirección del viento	0
110643	7	Sololá	701	Sololá	4	Finca Santa Victoria	6	Junio	2023-02-06T00:00:00	2024-11-08T23:00:00	1	Precipitación	0
110644	7	Sololá	701	Sololá	4	Finca Santa Victoria	6	Junio	2023-02-06T00:00:00	2024-11-08T23:00:00	8	Radiación solar	0
110645	7	Sololá	701	Sololá	4	Finca Santa Victoria	6	Junio	2023-03-06T00:00:00	2024-11-08T00:00:00	2	Temperatura media	15.2
110646	7	Sololá	701	Sololá	4	Finca Santa Victoria	6	Junio	2023-03-06T00:00:00	2024-11-08T00:00:00	4	Temperatura máxima	15.2
110647	7	Sololá	701	Sololá	4	Finca Santa Victoria	6	Junio	2023-03-06T00:00:00	2024-11-08T00:00:00	3	Temperatura mínima	15.1
110648	7	Sololá	701	Sololá	4	Finca Santa Victoria	6	Junio	2023-03-06T00:00:00	2024-11-08T00:00:00	5	Humedad	97
110649	7	Sololá	701	Sololá	4	Finca Santa Victoria	6	Junio	2023-03-06T00:00:00	2024-11-08T00:00:00	6	Velocidad del viento	0
110650	7	Sololá	701	Sololá	4	Finca Santa Victoria	6	Junio	2023-03-06T00:00:00	2024-11-08T00:00:00	7	Dirección del viento	0
110651	7	Sololá	701	Sololá	4	Finca Santa Victoria	6	Junio	2023-03-06T00:00:00	2024-11-08T00:00:00	1	Precipitación	0
110652	7	Sololá	701	Sololá	4	Finca Santa Victoria	6	Junio	2023-03-06T00:00:00	2024-11-08T00:00:00	8	Radiación solar	0
110653	7	Sololá	701	Sololá	4	Finca Santa Victoria	6	Junio	2023-03-06T00:00:00	2024-11-08T01:00:00	2	Temperatura media	14.8
110654	7	Sololá	701	Sololá	4	Finca Santa Victoria	6	Junio	2023-03-06T00:00:00	2024-11-08T01:00:00	4	Temperatura máxima	15.2
110655	7	Sololá	701	Sololá	4	Finca Santa Victoria	6	Junio	2023-03-06T00:00:00	2024-11-08T01:00:00	3	Temperatura mínima	14.8
110656	7	Sololá	701	Sololá	4	Finca Santa Victoria	6	Junio	2023-03-06T00:00:00	2024-11-08T01:00:00	5	Humedad	97
110657	7	Sololá	701	Sololá	4	Finca Santa Victoria	6	Junio	2023-03-06T00:00:00	2024-11-08T01:00:00	6	Velocidad del viento	0
110658	7	Sololá	701	Sololá	4	Finca Santa Victoria	6	Junio	2023-03-06T00:00:00	2024-11-08T01:00:00	7	Dirección del viento	0
110659	7	Sololá	701	Sololá	4	Finca Santa Victoria	6	Junio	2023-03-06T00:00:00	2024-11-08T01:00:00	1	Precipitación	0
110660	7	Sololá	701	Sololá	4	Finca Santa Victoria	6	Junio	2023-03-06T00:00:00	2024-11-08T01:00:00	8	Radiación solar	0
110661	7	Sololá	701	Sololá	4	Finca Santa Victoria	6	Junio	2023-03-06T00:00:00	2024-11-08T02:00:00	2	Temperatura media	14.6
110662	7	Sololá	701	Sololá	4	Finca Santa Victoria	6	Junio	2023-03-06T00:00:00	2024-11-08T02:00:00	4	Temperatura máxima	14.8
110663	7	Sololá	701	Sololá	4	Finca Santa Victoria	6	Junio	2023-03-06T00:00:00	2024-11-08T02:00:00	3	Temperatura mínima	14.6
110664	7	Sololá	701	Sololá	4	Finca Santa Victoria	6	Junio	2023-03-06T00:00:00	2024-11-08T02:00:00	5	Humedad	98
110665	7	Sololá	701	Sololá	4	Finca Santa Victoria	6	Junio	2023-03-06T00:00:00	2024-11-08T02:00:00	6	Velocidad del viento	0
110666	7	Sololá	701	Sololá	4	Finca Santa Victoria	6	Junio	2023-03-06T00:00:00	2024-11-08T02:00:00	7	Dirección del viento	0
110667	7	Sololá	701	Sololá	4	Finca Santa Victoria	6	Junio	2023-03-06T00:00:00	2024-11-08T02:00:00	1	Precipitación	0
110668	7	Sololá	701	Sololá	4	Finca Santa Victoria	6	Junio	2023-03-06T00:00:00	2024-11-08T02:00:00	8	Radiación solar	0
110669	7	Sololá	701	Sololá	4	Finca Santa Victoria	6	Junio	2023-03-06T00:00:00	2024-11-08T03:00:00	2	Temperatura media	13.7
110670	7	Sololá	701	Sololá	4	Finca Santa Victoria	6	Junio	2023-03-06T00:00:00	2024-11-08T03:00:00	4	Temperatura máxima	14.6
110671	7	Sololá	701	Sololá	4	Finca Santa Victoria	6	Junio	2023-03-06T00:00:00	2024-11-08T03:00:00	3	Temperatura mínima	13.7
110672	7	Sololá	701	Sololá	4	Finca Santa Victoria	6	Junio	2023-03-06T00:00:00	2024-11-08T03:00:00	5	Humedad	97
110673	7	Sololá	701	Sololá	4	Finca Santa Victoria	6	Junio	2023-03-06T00:00:00	2024-11-08T03:00:00	6	Velocidad del viento	1.6
110674	7	Sololá	701	Sololá	4	Finca Santa Victoria	6	Junio	2023-03-06T00:00:00	2024-11-08T03:00:00	7	Dirección del viento	1.61
110675	7	Sololá	701	Sololá	4	Finca Santa Victoria	6	Junio	2023-03-06T00:00:00	2024-11-08T03:00:00	1	Precipitación	0
110676	7	Sololá	701	Sololá	4	Finca Santa Victoria	6	Junio	2023-03-06T00:00:00	2024-11-08T03:00:00	8	Radiación solar	0
110677	7	Sololá	701	Sololá	4	Finca Santa Victoria	6	Junio	2023-03-06T00:00:00	2024-11-08T04:00:00	2	Temperatura media	14
110678	7	Sololá	701	Sololá	4	Finca Santa Victoria	6	Junio	2023-03-06T00:00:00	2024-11-08T04:00:00	4	Temperatura máxima	14
110679	7	Sololá	701	Sololá	4	Finca Santa Victoria	6	Junio	2023-03-06T00:00:00	2024-11-08T04:00:00	3	Temperatura mínima	13.6
110680	7	Sololá	701	Sololá	4	Finca Santa Victoria	6	Junio	2023-03-06T00:00:00	2024-11-08T04:00:00	5	Humedad	98
110681	7	Sololá	701	Sololá	4	Finca Santa Victoria	6	Junio	2023-03-06T00:00:00	2024-11-08T04:00:00	6	Velocidad del viento	0
110682	7	Sololá	701	Sololá	4	Finca Santa Victoria	6	Junio	2023-03-06T00:00:00	2024-11-08T04:00:00	7	Dirección del viento	0
110683	7	Sololá	701	Sololá	4	Finca Santa Victoria	6	Junio	2023-03-06T00:00:00	2024-11-08T04:00:00	1	Precipitación	0
110684	7	Sololá	701	Sololá	4	Finca Santa Victoria	6	Junio	2023-03-06T00:00:00	2024-11-08T04:00:00	8	Radiación solar	0
110685	7	Sololá	701	Sololá	4	Finca Santa Victoria	6	Junio	2023-03-06T00:00:00	2024-11-08T05:00:00	2	Temperatura media	13.6
110686	7	Sololá	701	Sololá	4	Finca Santa Victoria	6	Junio	2023-03-06T00:00:00	2024-11-08T05:00:00	4	Temperatura máxima	14
110687	7	Sololá	701	Sololá	4	Finca Santa Victoria	6	Junio	2023-03-06T00:00:00	2024-11-08T05:00:00	3	Temperatura mínima	13.6
110688	7	Sololá	701	Sololá	4	Finca Santa Victoria	6	Junio	2023-03-06T00:00:00	2024-11-08T05:00:00	5	Humedad	98
110689	7	Sololá	701	Sololá	4	Finca Santa Victoria	6	Junio	2023-03-06T00:00:00	2024-11-08T05:00:00	6	Velocidad del viento	1.6
110690	7	Sololá	701	Sololá	4	Finca Santa Victoria	6	Junio	2023-03-06T00:00:00	2024-11-08T05:00:00	7	Dirección del viento	1.61
110691	7	Sololá	701	Sololá	4	Finca Santa Victoria	6	Junio	2023-03-06T00:00:00	2024-11-08T05:00:00	1	Precipitación	0
110692	7	Sololá	701	Sololá	4	Finca Santa Victoria	6	Junio	2023-03-06T00:00:00	2024-11-08T05:00:00	8	Radiación solar	0
110693	7	Sololá	701	Sololá	4	Finca Santa Victoria	6	Junio	2023-03-06T00:00:00	2024-11-08T06:00:00	2	Temperatura media	13.3
110694	7	Sololá	701	Sololá	4	Finca Santa Victoria	6	Junio	2023-03-06T00:00:00	2024-11-08T06:00:00	4	Temperatura máxima	13.7
110695	7	Sololá	701	Sololá	4	Finca Santa Victoria	6	Junio	2023-03-06T00:00:00	2024-11-08T06:00:00	3	Temperatura mínima	13.2
110696	7	Sololá	701	Sololá	4	Finca Santa Victoria	6	Junio	2023-03-06T00:00:00	2024-11-08T06:00:00	5	Humedad	96
110697	7	Sololá	701	Sololá	4	Finca Santa Victoria	6	Junio	2023-03-06T00:00:00	2024-11-08T06:00:00	6	Velocidad del viento	1.6
110698	7	Sololá	701	Sololá	4	Finca Santa Victoria	6	Junio	2023-03-06T00:00:00	2024-11-08T06:00:00	7	Dirección del viento	1.61
110699	7	Sololá	701	Sololá	4	Finca Santa Victoria	6	Junio	2023-03-06T00:00:00	2024-11-08T06:00:00	1	Precipitación	0
110700	7	Sololá	701	Sololá	4	Finca Santa Victoria	6	Junio	2023-03-06T00:00:00	2024-11-08T06:00:00	8	Radiación solar	5
110701	7	Sololá	701	Sololá	4	Finca Santa Victoria	6	Junio	2023-03-06T00:00:00	2024-11-08T07:00:00	2	Temperatura media	14.4
110702	7	Sololá	701	Sololá	4	Finca Santa Victoria	6	Junio	2023-03-06T00:00:00	2024-11-08T07:00:00	4	Temperatura máxima	14.4
110703	7	Sololá	701	Sololá	4	Finca Santa Victoria	6	Junio	2023-03-06T00:00:00	2024-11-08T07:00:00	3	Temperatura mínima	13.3
110704	7	Sololá	701	Sololá	4	Finca Santa Victoria	6	Junio	2023-03-06T00:00:00	2024-11-08T07:00:00	5	Humedad	94
110705	7	Sololá	701	Sololá	4	Finca Santa Victoria	6	Junio	2023-03-06T00:00:00	2024-11-08T07:00:00	6	Velocidad del viento	1.6
110706	7	Sololá	701	Sololá	4	Finca Santa Victoria	6	Junio	2023-03-06T00:00:00	2024-11-08T07:00:00	7	Dirección del viento	1.61
110707	7	Sololá	701	Sololá	4	Finca Santa Victoria	6	Junio	2023-03-06T00:00:00	2024-11-08T07:00:00	1	Precipitación	0
110708	7	Sololá	701	Sololá	4	Finca Santa Victoria	6	Junio	2023-03-06T00:00:00	2024-11-08T07:00:00	8	Radiación solar	51
110709	7	Sololá	701	Sololá	4	Finca Santa Victoria	6	Junio	2023-03-06T00:00:00	2024-11-08T08:00:00	2	Temperatura media	17.8
110710	7	Sololá	701	Sololá	4	Finca Santa Victoria	6	Junio	2023-03-06T00:00:00	2024-11-08T08:00:00	4	Temperatura máxima	17.8
110711	7	Sololá	701	Sololá	4	Finca Santa Victoria	6	Junio	2023-03-06T00:00:00	2024-11-08T08:00:00	3	Temperatura mínima	14.4
110712	7	Sololá	701	Sololá	4	Finca Santa Victoria	6	Junio	2023-03-06T00:00:00	2024-11-08T08:00:00	5	Humedad	84
110713	7	Sololá	701	Sololá	4	Finca Santa Victoria	6	Junio	2023-03-06T00:00:00	2024-11-08T08:00:00	6	Velocidad del viento	0
110714	7	Sololá	701	Sololá	4	Finca Santa Victoria	6	Junio	2023-03-06T00:00:00	2024-11-08T08:00:00	7	Dirección del viento	0
110715	7	Sololá	701	Sololá	4	Finca Santa Victoria	6	Junio	2023-03-06T00:00:00	2024-11-08T08:00:00	1	Precipitación	0
110716	7	Sololá	701	Sololá	4	Finca Santa Victoria	6	Junio	2023-03-06T00:00:00	2024-11-08T08:00:00	8	Radiación solar	232
110717	7	Sololá	701	Sololá	4	Finca Santa Victoria	6	Junio	2023-03-06T00:00:00	2024-11-08T09:00:00	2	Temperatura media	18.5
110718	7	Sololá	701	Sololá	4	Finca Santa Victoria	6	Junio	2023-03-06T00:00:00	2024-11-08T09:00:00	4	Temperatura máxima	18.6
110719	7	Sololá	701	Sololá	4	Finca Santa Victoria	6	Junio	2023-03-06T00:00:00	2024-11-08T09:00:00	3	Temperatura mínima	17.8
110720	7	Sololá	701	Sololá	4	Finca Santa Victoria	6	Junio	2023-03-06T00:00:00	2024-11-08T09:00:00	5	Humedad	79
110721	7	Sololá	701	Sololá	4	Finca Santa Victoria	6	Junio	2023-03-06T00:00:00	2024-11-08T09:00:00	6	Velocidad del viento	1.6
110722	7	Sololá	701	Sololá	4	Finca Santa Victoria	6	Junio	2023-03-06T00:00:00	2024-11-08T09:00:00	7	Dirección del viento	1.61
110723	7	Sololá	701	Sololá	4	Finca Santa Victoria	6	Junio	2023-03-06T00:00:00	2024-11-08T09:00:00	1	Precipitación	0
110724	7	Sololá	701	Sololá	4	Finca Santa Victoria	6	Junio	2023-03-06T00:00:00	2024-11-08T09:00:00	8	Radiación solar	359
110725	7	Sololá	701	Sololá	4	Finca Santa Victoria	6	Junio	2023-03-06T00:00:00	2024-11-08T10:00:00	2	Temperatura media	19.5
110726	7	Sololá	701	Sololá	4	Finca Santa Victoria	6	Junio	2023-03-06T00:00:00	2024-11-08T10:00:00	4	Temperatura máxima	19.6
110727	7	Sololá	701	Sololá	4	Finca Santa Victoria	6	Junio	2023-03-06T00:00:00	2024-11-08T10:00:00	3	Temperatura mínima	18.4
110728	7	Sololá	701	Sololá	4	Finca Santa Victoria	6	Junio	2023-03-06T00:00:00	2024-11-08T10:00:00	5	Humedad	78
110729	7	Sololá	701	Sololá	4	Finca Santa Victoria	6	Junio	2023-03-06T00:00:00	2024-11-08T10:00:00	6	Velocidad del viento	3.2
110730	7	Sololá	701	Sololá	4	Finca Santa Victoria	6	Junio	2023-03-06T00:00:00	2024-11-08T10:00:00	7	Dirección del viento	3.22
110731	7	Sololá	701	Sololá	4	Finca Santa Victoria	6	Junio	2023-03-06T00:00:00	2024-11-08T10:00:00	1	Precipitación	0
110732	7	Sololá	701	Sololá	4	Finca Santa Victoria	6	Junio	2023-03-06T00:00:00	2024-11-08T10:00:00	8	Radiación solar	251
110733	7	Sololá	701	Sololá	4	Finca Santa Victoria	6	Junio	2023-03-06T00:00:00	2024-11-08T11:00:00	2	Temperatura media	20.1
110734	7	Sololá	701	Sololá	4	Finca Santa Victoria	6	Junio	2023-03-06T00:00:00	2024-11-08T11:00:00	4	Temperatura máxima	20.3
110735	7	Sololá	701	Sololá	4	Finca Santa Victoria	6	Junio	2023-03-06T00:00:00	2024-11-08T11:00:00	3	Temperatura mínima	19.4
110736	7	Sololá	701	Sololá	4	Finca Santa Victoria	6	Junio	2023-03-06T00:00:00	2024-11-08T11:00:00	5	Humedad	78
110737	7	Sololá	701	Sololá	4	Finca Santa Victoria	6	Junio	2023-03-06T00:00:00	2024-11-08T11:00:00	6	Velocidad del viento	3.2
110738	7	Sololá	701	Sololá	4	Finca Santa Victoria	6	Junio	2023-03-06T00:00:00	2024-11-08T11:00:00	7	Dirección del viento	3.22
110739	7	Sololá	701	Sololá	4	Finca Santa Victoria	6	Junio	2023-03-06T00:00:00	2024-11-08T11:00:00	1	Precipitación	0
110740	7	Sololá	701	Sololá	4	Finca Santa Victoria	6	Junio	2023-03-06T00:00:00	2024-11-08T11:00:00	8	Radiación solar	478
110741	7	Sololá	701	Sololá	4	Finca Santa Victoria	6	Junio	2023-03-06T00:00:00	2024-11-08T12:00:00	2	Temperatura media	19.3
110742	7	Sololá	701	Sololá	4	Finca Santa Victoria	6	Junio	2023-03-06T00:00:00	2024-11-08T12:00:00	4	Temperatura máxima	20.5
110743	7	Sololá	701	Sololá	4	Finca Santa Victoria	6	Junio	2023-03-06T00:00:00	2024-11-08T12:00:00	3	Temperatura mínima	19.3
110744	7	Sololá	701	Sololá	4	Finca Santa Victoria	6	Junio	2023-03-06T00:00:00	2024-11-08T12:00:00	5	Humedad	85
110745	7	Sololá	701	Sololá	4	Finca Santa Victoria	6	Junio	2023-03-06T00:00:00	2024-11-08T12:00:00	6	Velocidad del viento	4.8
110746	7	Sololá	701	Sololá	4	Finca Santa Victoria	6	Junio	2023-03-06T00:00:00	2024-11-08T12:00:00	7	Dirección del viento	4.83
110747	7	Sololá	701	Sololá	4	Finca Santa Victoria	6	Junio	2023-03-06T00:00:00	2024-11-08T12:00:00	1	Precipitación	0
110748	7	Sololá	701	Sololá	4	Finca Santa Victoria	6	Junio	2023-03-06T00:00:00	2024-11-08T12:00:00	8	Radiación solar	739
110749	7	Sololá	701	Sololá	4	Finca Santa Victoria	6	Junio	2023-03-06T00:00:00	2024-11-08T13:00:00	2	Temperatura media	18.4
110750	7	Sololá	701	Sololá	4	Finca Santa Victoria	6	Junio	2023-03-06T00:00:00	2024-11-08T13:00:00	4	Temperatura máxima	19.3
110751	7	Sololá	701	Sololá	4	Finca Santa Victoria	6	Junio	2023-03-06T00:00:00	2024-11-08T13:00:00	3	Temperatura mínima	18.4
110752	7	Sololá	701	Sololá	4	Finca Santa Victoria	6	Junio	2023-03-06T00:00:00	2024-11-08T13:00:00	5	Humedad	91
110753	7	Sololá	701	Sololá	4	Finca Santa Victoria	6	Junio	2023-03-06T00:00:00	2024-11-08T13:00:00	6	Velocidad del viento	4.8
110754	7	Sololá	701	Sololá	4	Finca Santa Victoria	6	Junio	2023-03-06T00:00:00	2024-11-08T13:00:00	7	Dirección del viento	4.83
110755	7	Sololá	701	Sololá	4	Finca Santa Victoria	6	Junio	2023-03-06T00:00:00	2024-11-08T13:00:00	1	Precipitación	0
110756	7	Sololá	701	Sololá	4	Finca Santa Victoria	6	Junio	2023-03-06T00:00:00	2024-11-08T13:00:00	8	Radiación solar	219
110757	7	Sololá	701	Sololá	4	Finca Santa Victoria	6	Junio	2023-03-06T00:00:00	2024-11-08T14:00:00	2	Temperatura media	17.9
110758	7	Sololá	701	Sololá	4	Finca Santa Victoria	6	Junio	2023-03-06T00:00:00	2024-11-08T14:00:00	4	Temperatura máxima	18.6
110759	7	Sololá	701	Sololá	4	Finca Santa Victoria	6	Junio	2023-03-06T00:00:00	2024-11-08T14:00:00	3	Temperatura mínima	17.7
110760	7	Sololá	701	Sololá	4	Finca Santa Victoria	6	Junio	2023-03-06T00:00:00	2024-11-08T14:00:00	5	Humedad	93
110761	7	Sololá	701	Sololá	4	Finca Santa Victoria	6	Junio	2023-03-06T00:00:00	2024-11-08T14:00:00	6	Velocidad del viento	3.2
110762	7	Sololá	701	Sololá	4	Finca Santa Victoria	6	Junio	2023-03-06T00:00:00	2024-11-08T14:00:00	7	Dirección del viento	3.22
110763	7	Sololá	701	Sololá	4	Finca Santa Victoria	6	Junio	2023-03-06T00:00:00	2024-11-08T14:00:00	1	Precipitación	0
110764	7	Sololá	701	Sololá	4	Finca Santa Victoria	6	Junio	2023-03-06T00:00:00	2024-11-08T14:00:00	8	Radiación solar	107
110765	7	Sololá	701	Sololá	4	Finca Santa Victoria	6	Junio	2023-03-06T00:00:00	2024-11-08T15:00:00	2	Temperatura media	18.2
110766	7	Sololá	701	Sololá	4	Finca Santa Victoria	6	Junio	2023-03-06T00:00:00	2024-11-08T15:00:00	4	Temperatura máxima	18.3
110767	7	Sololá	701	Sololá	4	Finca Santa Victoria	6	Junio	2023-03-06T00:00:00	2024-11-08T15:00:00	3	Temperatura mínima	17.9
110768	7	Sololá	701	Sololá	4	Finca Santa Victoria	6	Junio	2023-03-06T00:00:00	2024-11-08T15:00:00	5	Humedad	92
110769	7	Sololá	701	Sololá	4	Finca Santa Victoria	6	Junio	2023-03-06T00:00:00	2024-11-08T15:00:00	6	Velocidad del viento	3.2
110770	7	Sololá	701	Sololá	4	Finca Santa Victoria	6	Junio	2023-03-06T00:00:00	2024-11-08T15:00:00	7	Dirección del viento	3.22
110771	7	Sololá	701	Sololá	4	Finca Santa Victoria	6	Junio	2023-03-06T00:00:00	2024-11-08T15:00:00	1	Precipitación	0
110772	7	Sololá	701	Sololá	4	Finca Santa Victoria	6	Junio	2023-03-06T00:00:00	2024-11-08T15:00:00	8	Radiación solar	142
110773	7	Sololá	701	Sololá	4	Finca Santa Victoria	6	Junio	2023-03-06T00:00:00	2024-11-08T16:00:00	2	Temperatura media	18.2
110774	7	Sololá	701	Sololá	4	Finca Santa Victoria	6	Junio	2023-03-06T00:00:00	2024-11-08T16:00:00	4	Temperatura máxima	18.3
110775	7	Sololá	701	Sololá	4	Finca Santa Victoria	6	Junio	2023-03-06T00:00:00	2024-11-08T16:00:00	3	Temperatura mínima	17.8
110776	7	Sololá	701	Sololá	4	Finca Santa Victoria	6	Junio	2023-03-06T00:00:00	2024-11-08T16:00:00	5	Humedad	93
110777	7	Sololá	701	Sololá	4	Finca Santa Victoria	6	Junio	2023-03-06T00:00:00	2024-11-08T16:00:00	6	Velocidad del viento	3.2
110778	7	Sololá	701	Sololá	4	Finca Santa Victoria	6	Junio	2023-03-06T00:00:00	2024-11-08T16:00:00	7	Dirección del viento	3.22
110779	7	Sololá	701	Sololá	4	Finca Santa Victoria	6	Junio	2023-03-06T00:00:00	2024-11-08T16:00:00	1	Precipitación	0
110780	7	Sololá	701	Sololá	4	Finca Santa Victoria	6	Junio	2023-03-06T00:00:00	2024-11-08T16:00:00	8	Radiación solar	114
110781	7	Sololá	701	Sololá	4	Finca Santa Victoria	6	Junio	2023-03-06T00:00:00	2024-11-08T17:00:00	2	Temperatura media	17.3
110782	7	Sololá	701	Sololá	4	Finca Santa Victoria	6	Junio	2023-03-06T00:00:00	2024-11-08T17:00:00	4	Temperatura máxima	18.3
110783	7	Sololá	701	Sololá	4	Finca Santa Victoria	6	Junio	2023-03-06T00:00:00	2024-11-08T17:00:00	3	Temperatura mínima	17.2
110784	7	Sololá	701	Sololá	4	Finca Santa Victoria	6	Junio	2023-03-06T00:00:00	2024-11-08T17:00:00	5	Humedad	95
110785	7	Sololá	701	Sololá	4	Finca Santa Victoria	6	Junio	2023-03-06T00:00:00	2024-11-08T17:00:00	6	Velocidad del viento	3.2
110786	7	Sololá	701	Sololá	4	Finca Santa Victoria	6	Junio	2023-03-06T00:00:00	2024-11-08T17:00:00	7	Dirección del viento	3.22
110787	7	Sololá	701	Sololá	4	Finca Santa Victoria	6	Junio	2023-03-06T00:00:00	2024-11-08T17:00:00	1	Precipitación	0
110788	7	Sololá	701	Sololá	4	Finca Santa Victoria	6	Junio	2023-03-06T00:00:00	2024-11-08T17:00:00	8	Radiación solar	63
110789	7	Sololá	701	Sololá	4	Finca Santa Victoria	6	Junio	2023-03-06T00:00:00	2024-11-08T18:00:00	2	Temperatura media	17
110790	7	Sololá	701	Sololá	4	Finca Santa Victoria	6	Junio	2023-03-06T00:00:00	2024-11-08T18:00:00	4	Temperatura máxima	17.3
110791	7	Sololá	701	Sololá	4	Finca Santa Victoria	6	Junio	2023-03-06T00:00:00	2024-11-08T18:00:00	3	Temperatura mínima	16.9
110792	7	Sololá	701	Sololá	4	Finca Santa Victoria	6	Junio	2023-03-06T00:00:00	2024-11-08T18:00:00	5	Humedad	95
110793	7	Sololá	701	Sololá	4	Finca Santa Victoria	6	Junio	2023-03-06T00:00:00	2024-11-08T18:00:00	6	Velocidad del viento	1.6
110794	7	Sololá	701	Sololá	4	Finca Santa Victoria	6	Junio	2023-03-06T00:00:00	2024-11-08T18:00:00	7	Dirección del viento	1.61
110795	7	Sololá	701	Sololá	4	Finca Santa Victoria	6	Junio	2023-03-06T00:00:00	2024-11-08T18:00:00	1	Precipitación	0
110796	7	Sololá	701	Sololá	4	Finca Santa Victoria	6	Junio	2023-03-06T00:00:00	2024-11-08T18:00:00	8	Radiación solar	17
110797	7	Sololá	701	Sololá	4	Finca Santa Victoria	6	Junio	2023-03-06T00:00:00	2024-11-08T19:00:00	2	Temperatura media	16.6
110798	7	Sololá	701	Sololá	4	Finca Santa Victoria	6	Junio	2023-03-06T00:00:00	2024-11-08T19:00:00	4	Temperatura máxima	17
110799	7	Sololá	701	Sololá	4	Finca Santa Victoria	6	Junio	2023-03-06T00:00:00	2024-11-08T19:00:00	3	Temperatura mínima	16.6
110800	7	Sololá	701	Sololá	4	Finca Santa Victoria	6	Junio	2023-03-06T00:00:00	2024-11-08T19:00:00	5	Humedad	96
110801	7	Sololá	701	Sololá	4	Finca Santa Victoria	6	Junio	2023-03-06T00:00:00	2024-11-08T19:00:00	6	Velocidad del viento	1.6
110802	7	Sololá	701	Sololá	4	Finca Santa Victoria	6	Junio	2023-03-06T00:00:00	2024-11-08T19:00:00	7	Dirección del viento	1.61
110803	7	Sololá	701	Sololá	4	Finca Santa Victoria	6	Junio	2023-03-06T00:00:00	2024-11-08T19:00:00	1	Precipitación	0
110804	7	Sololá	701	Sololá	4	Finca Santa Victoria	6	Junio	2023-03-06T00:00:00	2024-11-08T19:00:00	8	Radiación solar	0
110805	7	Sololá	701	Sololá	4	Finca Santa Victoria	6	Junio	2023-03-06T00:00:00	2024-11-08T20:00:00	2	Temperatura media	16.6
110806	7	Sololá	701	Sololá	4	Finca Santa Victoria	6	Junio	2023-03-06T00:00:00	2024-11-08T20:00:00	4	Temperatura máxima	16.7
110807	7	Sololá	701	Sololá	4	Finca Santa Victoria	6	Junio	2023-03-06T00:00:00	2024-11-08T20:00:00	3	Temperatura mínima	16.5
110808	7	Sololá	701	Sololá	4	Finca Santa Victoria	6	Junio	2023-03-06T00:00:00	2024-11-08T20:00:00	5	Humedad	98
110809	7	Sololá	701	Sololá	4	Finca Santa Victoria	6	Junio	2023-03-06T00:00:00	2024-11-08T20:00:00	6	Velocidad del viento	0
110810	7	Sololá	701	Sololá	4	Finca Santa Victoria	6	Junio	2023-03-06T00:00:00	2024-11-08T20:00:00	7	Dirección del viento	0
110811	7	Sololá	701	Sololá	4	Finca Santa Victoria	6	Junio	2023-03-06T00:00:00	2024-11-08T20:00:00	1	Precipitación	0
110812	7	Sololá	701	Sololá	4	Finca Santa Victoria	6	Junio	2023-03-06T00:00:00	2024-11-08T20:00:00	8	Radiación solar	0
110813	7	Sololá	701	Sololá	4	Finca Santa Victoria	6	Junio	2023-03-06T00:00:00	2024-11-08T21:00:00	2	Temperatura media	16.4
110814	7	Sololá	701	Sololá	4	Finca Santa Victoria	6	Junio	2023-03-06T00:00:00	2024-11-08T21:00:00	4	Temperatura máxima	16.6
110815	7	Sololá	701	Sololá	4	Finca Santa Victoria	6	Junio	2023-03-06T00:00:00	2024-11-08T21:00:00	3	Temperatura mínima	16.4
110816	7	Sololá	701	Sololá	4	Finca Santa Victoria	6	Junio	2023-03-06T00:00:00	2024-11-08T21:00:00	5	Humedad	98
110817	7	Sololá	701	Sololá	4	Finca Santa Victoria	6	Junio	2023-03-06T00:00:00	2024-11-08T21:00:00	6	Velocidad del viento	1.6
110818	7	Sololá	701	Sololá	4	Finca Santa Victoria	6	Junio	2023-03-06T00:00:00	2024-11-08T21:00:00	7	Dirección del viento	1.61
110819	7	Sololá	701	Sololá	4	Finca Santa Victoria	6	Junio	2023-03-06T00:00:00	2024-11-08T21:00:00	1	Precipitación	0
110820	7	Sololá	701	Sololá	4	Finca Santa Victoria	6	Junio	2023-03-06T00:00:00	2024-11-08T21:00:00	8	Radiación solar	0
110821	7	Sololá	701	Sololá	4	Finca Santa Victoria	6	Junio	2023-03-06T00:00:00	2024-11-08T22:00:00	2	Temperatura media	15.6
110822	7	Sololá	701	Sololá	4	Finca Santa Victoria	6	Junio	2023-03-06T00:00:00	2024-11-08T22:00:00	4	Temperatura máxima	16.5
110823	7	Sololá	701	Sololá	4	Finca Santa Victoria	6	Junio	2023-03-06T00:00:00	2024-11-08T22:00:00	3	Temperatura mínima	15.5
110824	7	Sololá	701	Sololá	4	Finca Santa Victoria	6	Junio	2023-03-06T00:00:00	2024-11-08T22:00:00	5	Humedad	98
110825	7	Sololá	701	Sololá	4	Finca Santa Victoria	6	Junio	2023-03-06T00:00:00	2024-11-08T22:00:00	6	Velocidad del viento	1.6
110826	7	Sololá	701	Sololá	4	Finca Santa Victoria	6	Junio	2023-03-06T00:00:00	2024-11-08T22:00:00	7	Dirección del viento	1.61
110827	7	Sololá	701	Sololá	4	Finca Santa Victoria	6	Junio	2023-03-06T00:00:00	2024-11-08T22:00:00	1	Precipitación	0.4
110828	7	Sololá	701	Sololá	4	Finca Santa Victoria	6	Junio	2023-03-06T00:00:00	2024-11-08T22:00:00	8	Radiación solar	0
110829	7	Sololá	701	Sololá	4	Finca Santa Victoria	6	Junio	2023-03-06T00:00:00	2024-11-08T23:00:00	2	Temperatura media	15.2
110830	7	Sololá	701	Sololá	4	Finca Santa Victoria	6	Junio	2023-03-06T00:00:00	2024-11-08T23:00:00	4	Temperatura máxima	15.6
110831	7	Sololá	701	Sololá	4	Finca Santa Victoria	6	Junio	2023-03-06T00:00:00	2024-11-08T23:00:00	3	Temperatura mínima	15.2
110832	7	Sololá	701	Sololá	4	Finca Santa Victoria	6	Junio	2023-03-06T00:00:00	2024-11-08T23:00:00	5	Humedad	98
110833	7	Sololá	701	Sololá	4	Finca Santa Victoria	6	Junio	2023-03-06T00:00:00	2024-11-08T23:00:00	6	Velocidad del viento	1.6
110834	7	Sololá	701	Sololá	4	Finca Santa Victoria	6	Junio	2023-03-06T00:00:00	2024-11-08T23:00:00	7	Dirección del viento	1.61
110835	7	Sololá	701	Sololá	4	Finca Santa Victoria	6	Junio	2023-03-06T00:00:00	2024-11-08T23:00:00	1	Precipitación	0
110836	7	Sololá	701	Sololá	4	Finca Santa Victoria	6	Junio	2023-03-06T00:00:00	2024-11-08T23:00:00	8	Radiación solar	0
110837	7	Sololá	701	Sololá	4	Finca Santa Victoria	6	Junio	2023-04-06T00:00:00	2024-11-08T00:00:00	2	Temperatura media	15.2
110838	7	Sololá	701	Sololá	4	Finca Santa Victoria	6	Junio	2023-04-06T00:00:00	2024-11-08T00:00:00	4	Temperatura máxima	15.3
110839	7	Sololá	701	Sololá	4	Finca Santa Victoria	6	Junio	2023-04-06T00:00:00	2024-11-08T00:00:00	3	Temperatura mínima	15.2
110840	7	Sololá	701	Sololá	4	Finca Santa Victoria	6	Junio	2023-04-06T00:00:00	2024-11-08T00:00:00	5	Humedad	98
110841	7	Sololá	701	Sololá	4	Finca Santa Victoria	6	Junio	2023-04-06T00:00:00	2024-11-08T00:00:00	6	Velocidad del viento	0
110842	7	Sololá	701	Sololá	4	Finca Santa Victoria	6	Junio	2023-04-06T00:00:00	2024-11-08T00:00:00	7	Dirección del viento	0
110843	7	Sololá	701	Sololá	4	Finca Santa Victoria	6	Junio	2023-04-06T00:00:00	2024-11-08T00:00:00	1	Precipitación	0
110844	7	Sololá	701	Sololá	4	Finca Santa Victoria	6	Junio	2023-04-06T00:00:00	2024-11-08T00:00:00	8	Radiación solar	0
110845	7	Sololá	701	Sololá	4	Finca Santa Victoria	6	Junio	2023-04-06T00:00:00	2024-11-08T01:00:00	2	Temperatura media	15.3
110846	7	Sololá	701	Sololá	4	Finca Santa Victoria	6	Junio	2023-04-06T00:00:00	2024-11-08T01:00:00	4	Temperatura máxima	15.3
110847	7	Sololá	701	Sololá	4	Finca Santa Victoria	6	Junio	2023-04-06T00:00:00	2024-11-08T01:00:00	3	Temperatura mínima	15.2
110848	7	Sololá	701	Sololá	4	Finca Santa Victoria	6	Junio	2023-04-06T00:00:00	2024-11-08T01:00:00	5	Humedad	98
110849	7	Sololá	701	Sololá	4	Finca Santa Victoria	6	Junio	2023-04-06T00:00:00	2024-11-08T01:00:00	6	Velocidad del viento	0
110850	7	Sololá	701	Sololá	4	Finca Santa Victoria	6	Junio	2023-04-06T00:00:00	2024-11-08T01:00:00	7	Dirección del viento	0
110851	7	Sololá	701	Sololá	4	Finca Santa Victoria	6	Junio	2023-04-06T00:00:00	2024-11-08T01:00:00	1	Precipitación	0
110852	7	Sololá	701	Sololá	4	Finca Santa Victoria	6	Junio	2023-04-06T00:00:00	2024-11-08T01:00:00	8	Radiación solar	0
110853	7	Sololá	701	Sololá	4	Finca Santa Victoria	6	Junio	2023-04-06T00:00:00	2024-11-08T02:00:00	2	Temperatura media	14.8
110854	7	Sololá	701	Sololá	4	Finca Santa Victoria	6	Junio	2023-04-06T00:00:00	2024-11-08T02:00:00	4	Temperatura máxima	15.3
110855	7	Sololá	701	Sololá	4	Finca Santa Victoria	6	Junio	2023-04-06T00:00:00	2024-11-08T02:00:00	3	Temperatura mínima	14.7
110856	7	Sololá	701	Sololá	4	Finca Santa Victoria	6	Junio	2023-04-06T00:00:00	2024-11-08T02:00:00	5	Humedad	98
110857	7	Sololá	701	Sololá	4	Finca Santa Victoria	6	Junio	2023-04-06T00:00:00	2024-11-08T02:00:00	6	Velocidad del viento	0
110858	7	Sololá	701	Sololá	4	Finca Santa Victoria	6	Junio	2023-04-06T00:00:00	2024-11-08T02:00:00	7	Dirección del viento	0
110859	7	Sololá	701	Sololá	4	Finca Santa Victoria	6	Junio	2023-04-06T00:00:00	2024-11-08T02:00:00	1	Precipitación	0
110860	7	Sololá	701	Sololá	4	Finca Santa Victoria	6	Junio	2023-04-06T00:00:00	2024-11-08T02:00:00	8	Radiación solar	0
110861	7	Sololá	701	Sololá	4	Finca Santa Victoria	6	Junio	2023-04-06T00:00:00	2024-11-08T03:00:00	2	Temperatura media	14.8
110862	7	Sololá	701	Sololá	4	Finca Santa Victoria	6	Junio	2023-04-06T00:00:00	2024-11-08T03:00:00	4	Temperatura máxima	15
110863	7	Sololá	701	Sololá	4	Finca Santa Victoria	6	Junio	2023-04-06T00:00:00	2024-11-08T03:00:00	3	Temperatura mínima	14.7
110864	7	Sololá	701	Sololá	4	Finca Santa Victoria	6	Junio	2023-04-06T00:00:00	2024-11-08T03:00:00	5	Humedad	98
110865	7	Sololá	701	Sololá	4	Finca Santa Victoria	6	Junio	2023-04-06T00:00:00	2024-11-08T03:00:00	6	Velocidad del viento	0
110866	7	Sololá	701	Sololá	4	Finca Santa Victoria	6	Junio	2023-04-06T00:00:00	2024-11-08T03:00:00	7	Dirección del viento	0
110867	7	Sololá	701	Sololá	4	Finca Santa Victoria	6	Junio	2023-04-06T00:00:00	2024-11-08T03:00:00	1	Precipitación	0
110868	7	Sololá	701	Sololá	4	Finca Santa Victoria	6	Junio	2023-04-06T00:00:00	2024-11-08T03:00:00	8	Radiación solar	0
110869	7	Sololá	701	Sololá	4	Finca Santa Victoria	6	Junio	2023-04-06T00:00:00	2024-11-08T04:00:00	2	Temperatura media	14.7
110870	7	Sololá	701	Sololá	4	Finca Santa Victoria	6	Junio	2023-04-06T00:00:00	2024-11-08T04:00:00	4	Temperatura máxima	14.8
110871	7	Sololá	701	Sololá	4	Finca Santa Victoria	6	Junio	2023-04-06T00:00:00	2024-11-08T04:00:00	3	Temperatura mínima	14.6
110872	7	Sololá	701	Sololá	4	Finca Santa Victoria	6	Junio	2023-04-06T00:00:00	2024-11-08T04:00:00	5	Humedad	99
110873	7	Sololá	701	Sololá	4	Finca Santa Victoria	6	Junio	2023-04-06T00:00:00	2024-11-08T04:00:00	6	Velocidad del viento	0
110874	7	Sololá	701	Sololá	4	Finca Santa Victoria	6	Junio	2023-04-06T00:00:00	2024-11-08T04:00:00	7	Dirección del viento	0
110875	7	Sololá	701	Sololá	4	Finca Santa Victoria	6	Junio	2023-04-06T00:00:00	2024-11-08T04:00:00	1	Precipitación	0
110876	7	Sololá	701	Sololá	4	Finca Santa Victoria	6	Junio	2023-04-06T00:00:00	2024-11-08T04:00:00	8	Radiación solar	0
110877	7	Sololá	701	Sololá	4	Finca Santa Victoria	6	Junio	2023-04-06T00:00:00	2024-11-08T05:00:00	2	Temperatura media	14.5
110878	7	Sololá	701	Sololá	4	Finca Santa Victoria	6	Junio	2023-04-06T00:00:00	2024-11-08T05:00:00	4	Temperatura máxima	14.8
110879	7	Sololá	701	Sololá	4	Finca Santa Victoria	6	Junio	2023-04-06T00:00:00	2024-11-08T05:00:00	3	Temperatura mínima	14.4
110880	7	Sololá	701	Sololá	4	Finca Santa Victoria	6	Junio	2023-04-06T00:00:00	2024-11-08T05:00:00	5	Humedad	99
110881	7	Sololá	701	Sololá	4	Finca Santa Victoria	6	Junio	2023-04-06T00:00:00	2024-11-08T05:00:00	6	Velocidad del viento	1.6
110882	7	Sololá	701	Sololá	4	Finca Santa Victoria	6	Junio	2023-04-06T00:00:00	2024-11-08T05:00:00	7	Dirección del viento	1.61
110883	7	Sololá	701	Sololá	4	Finca Santa Victoria	6	Junio	2023-04-06T00:00:00	2024-11-08T05:00:00	1	Precipitación	0
110884	7	Sololá	701	Sololá	4	Finca Santa Victoria	6	Junio	2023-04-06T00:00:00	2024-11-08T05:00:00	8	Radiación solar	0
110885	7	Sololá	701	Sololá	4	Finca Santa Victoria	6	Junio	2023-04-06T00:00:00	2024-11-08T06:00:00	2	Temperatura media	13.9
110886	7	Sololá	701	Sololá	4	Finca Santa Victoria	6	Junio	2023-04-06T00:00:00	2024-11-08T06:00:00	4	Temperatura máxima	14.5
110887	7	Sololá	701	Sololá	4	Finca Santa Victoria	6	Junio	2023-04-06T00:00:00	2024-11-08T06:00:00	3	Temperatura mínima	13.9
110888	7	Sololá	701	Sololá	4	Finca Santa Victoria	6	Junio	2023-04-06T00:00:00	2024-11-08T06:00:00	5	Humedad	98
110889	7	Sololá	701	Sololá	4	Finca Santa Victoria	6	Junio	2023-04-06T00:00:00	2024-11-08T06:00:00	6	Velocidad del viento	1.6
110890	7	Sololá	701	Sololá	4	Finca Santa Victoria	6	Junio	2023-04-06T00:00:00	2024-11-08T06:00:00	7	Dirección del viento	1.61
110891	7	Sololá	701	Sololá	4	Finca Santa Victoria	6	Junio	2023-04-06T00:00:00	2024-11-08T06:00:00	1	Precipitación	0
110892	7	Sololá	701	Sololá	4	Finca Santa Victoria	6	Junio	2023-04-06T00:00:00	2024-11-08T06:00:00	8	Radiación solar	3
110893	7	Sololá	701	Sololá	4	Finca Santa Victoria	6	Junio	2023-04-06T00:00:00	2024-11-08T07:00:00	2	Temperatura media	14.7
110894	7	Sololá	701	Sololá	4	Finca Santa Victoria	6	Junio	2023-04-06T00:00:00	2024-11-08T07:00:00	4	Temperatura máxima	14.7
110895	7	Sololá	701	Sololá	4	Finca Santa Victoria	6	Junio	2023-04-06T00:00:00	2024-11-08T07:00:00	3	Temperatura mínima	13.9
110896	7	Sololá	701	Sololá	4	Finca Santa Victoria	6	Junio	2023-04-06T00:00:00	2024-11-08T07:00:00	5	Humedad	98
110897	7	Sololá	701	Sololá	4	Finca Santa Victoria	6	Junio	2023-04-06T00:00:00	2024-11-08T07:00:00	6	Velocidad del viento	1.6
110898	7	Sololá	701	Sololá	4	Finca Santa Victoria	6	Junio	2023-04-06T00:00:00	2024-11-08T07:00:00	7	Dirección del viento	1.61
110899	7	Sololá	701	Sololá	4	Finca Santa Victoria	6	Junio	2023-04-06T00:00:00	2024-11-08T07:00:00	1	Precipitación	0
110900	7	Sololá	701	Sololá	4	Finca Santa Victoria	6	Junio	2023-04-06T00:00:00	2024-11-08T07:00:00	8	Radiación solar	55
110901	7	Sololá	701	Sololá	4	Finca Santa Victoria	6	Junio	2023-04-06T00:00:00	2024-11-08T08:00:00	2	Temperatura media	16.4
110902	7	Sololá	701	Sololá	4	Finca Santa Victoria	6	Junio	2023-04-06T00:00:00	2024-11-08T08:00:00	4	Temperatura máxima	16.6
110903	7	Sololá	701	Sololá	4	Finca Santa Victoria	6	Junio	2023-04-06T00:00:00	2024-11-08T08:00:00	3	Temperatura mínima	14.7
110904	7	Sololá	701	Sololá	4	Finca Santa Victoria	6	Junio	2023-04-06T00:00:00	2024-11-08T08:00:00	5	Humedad	94
110905	7	Sololá	701	Sololá	4	Finca Santa Victoria	6	Junio	2023-04-06T00:00:00	2024-11-08T08:00:00	6	Velocidad del viento	0
110906	7	Sololá	701	Sololá	4	Finca Santa Victoria	6	Junio	2023-04-06T00:00:00	2024-11-08T08:00:00	7	Dirección del viento	0
110907	7	Sololá	701	Sololá	4	Finca Santa Victoria	6	Junio	2023-04-06T00:00:00	2024-11-08T08:00:00	1	Precipitación	0
110908	7	Sololá	701	Sololá	4	Finca Santa Victoria	6	Junio	2023-04-06T00:00:00	2024-11-08T08:00:00	8	Radiación solar	193
110909	7	Sololá	701	Sololá	4	Finca Santa Victoria	6	Junio	2023-04-06T00:00:00	2024-11-08T09:00:00	2	Temperatura media	19.2
110910	7	Sololá	701	Sololá	4	Finca Santa Victoria	6	Junio	2023-04-06T00:00:00	2024-11-08T09:00:00	4	Temperatura máxima	19.2
110911	7	Sololá	701	Sololá	4	Finca Santa Victoria	6	Junio	2023-04-06T00:00:00	2024-11-08T09:00:00	3	Temperatura mínima	16.3
110912	7	Sololá	701	Sololá	4	Finca Santa Victoria	6	Junio	2023-04-06T00:00:00	2024-11-08T09:00:00	5	Humedad	82
110913	7	Sololá	701	Sololá	4	Finca Santa Victoria	6	Junio	2023-04-06T00:00:00	2024-11-08T09:00:00	6	Velocidad del viento	1.6
110914	7	Sololá	701	Sololá	4	Finca Santa Victoria	6	Junio	2023-04-06T00:00:00	2024-11-08T09:00:00	7	Dirección del viento	1.61
110915	7	Sololá	701	Sololá	4	Finca Santa Victoria	6	Junio	2023-04-06T00:00:00	2024-11-08T09:00:00	1	Precipitación	0
110916	7	Sololá	701	Sololá	4	Finca Santa Victoria	6	Junio	2023-04-06T00:00:00	2024-11-08T09:00:00	8	Radiación solar	413
110917	7	Sololá	701	Sololá	4	Finca Santa Victoria	6	Junio	2023-04-06T00:00:00	2024-11-08T10:00:00	2	Temperatura media	20
110918	7	Sololá	701	Sololá	4	Finca Santa Victoria	6	Junio	2023-04-06T00:00:00	2024-11-08T10:00:00	4	Temperatura máxima	20.5
110919	7	Sololá	701	Sololá	4	Finca Santa Victoria	6	Junio	2023-04-06T00:00:00	2024-11-08T10:00:00	3	Temperatura mínima	19.2
110920	7	Sololá	701	Sololá	4	Finca Santa Victoria	6	Junio	2023-04-06T00:00:00	2024-11-08T10:00:00	5	Humedad	84
110921	7	Sololá	701	Sololá	4	Finca Santa Victoria	6	Junio	2023-04-06T00:00:00	2024-11-08T10:00:00	6	Velocidad del viento	1.6
110922	7	Sololá	701	Sololá	4	Finca Santa Victoria	6	Junio	2023-04-06T00:00:00	2024-11-08T10:00:00	7	Dirección del viento	1.61
110923	7	Sololá	701	Sololá	4	Finca Santa Victoria	6	Junio	2023-04-06T00:00:00	2024-11-08T10:00:00	1	Precipitación	0
110924	7	Sololá	701	Sololá	4	Finca Santa Victoria	6	Junio	2023-04-06T00:00:00	2024-11-08T10:00:00	8	Radiación solar	220
110925	7	Sololá	701	Sololá	4	Finca Santa Victoria	6	Junio	2023-04-06T00:00:00	2024-11-08T11:00:00	2	Temperatura media	20.4
110926	7	Sololá	701	Sololá	4	Finca Santa Victoria	6	Junio	2023-04-06T00:00:00	2024-11-08T11:00:00	4	Temperatura máxima	20.9
110927	7	Sololá	701	Sololá	4	Finca Santa Victoria	6	Junio	2023-04-06T00:00:00	2024-11-08T11:00:00	3	Temperatura mínima	19.6
110928	7	Sololá	701	Sololá	4	Finca Santa Victoria	6	Junio	2023-04-06T00:00:00	2024-11-08T11:00:00	5	Humedad	79
110929	7	Sololá	701	Sololá	4	Finca Santa Victoria	6	Junio	2023-04-06T00:00:00	2024-11-08T11:00:00	6	Velocidad del viento	3.2
110930	7	Sololá	701	Sololá	4	Finca Santa Victoria	6	Junio	2023-04-06T00:00:00	2024-11-08T11:00:00	7	Dirección del viento	3.22
110931	7	Sololá	701	Sololá	4	Finca Santa Victoria	6	Junio	2023-04-06T00:00:00	2024-11-08T11:00:00	1	Precipitación	0
110932	7	Sololá	701	Sololá	4	Finca Santa Victoria	6	Junio	2023-04-06T00:00:00	2024-11-08T11:00:00	8	Radiación solar	441
110933	7	Sololá	701	Sololá	4	Finca Santa Victoria	6	Junio	2023-04-06T00:00:00	2024-11-08T12:00:00	2	Temperatura media	20.4
110934	7	Sololá	701	Sololá	4	Finca Santa Victoria	6	Junio	2023-04-06T00:00:00	2024-11-08T12:00:00	4	Temperatura máxima	20.8
110935	7	Sololá	701	Sololá	4	Finca Santa Victoria	6	Junio	2023-04-06T00:00:00	2024-11-08T12:00:00	3	Temperatura mínima	20
110936	7	Sololá	701	Sololá	4	Finca Santa Victoria	6	Junio	2023-04-06T00:00:00	2024-11-08T12:00:00	5	Humedad	81
110937	7	Sololá	701	Sololá	4	Finca Santa Victoria	6	Junio	2023-04-06T00:00:00	2024-11-08T12:00:00	6	Velocidad del viento	4.8
110938	7	Sololá	701	Sololá	4	Finca Santa Victoria	6	Junio	2023-04-06T00:00:00	2024-11-08T12:00:00	7	Dirección del viento	4.83
110939	7	Sololá	701	Sololá	4	Finca Santa Victoria	6	Junio	2023-04-06T00:00:00	2024-11-08T12:00:00	1	Precipitación	0
110940	7	Sololá	701	Sololá	4	Finca Santa Victoria	6	Junio	2023-04-06T00:00:00	2024-11-08T12:00:00	8	Radiación solar	857
110941	7	Sololá	701	Sololá	4	Finca Santa Victoria	6	Junio	2023-04-06T00:00:00	2024-11-08T13:00:00	2	Temperatura media	20.4
110942	7	Sololá	701	Sololá	4	Finca Santa Victoria	6	Junio	2023-04-06T00:00:00	2024-11-08T13:00:00	4	Temperatura máxima	20.9
110943	7	Sololá	701	Sololá	4	Finca Santa Victoria	6	Junio	2023-04-06T00:00:00	2024-11-08T13:00:00	3	Temperatura mínima	19.6
110944	7	Sololá	701	Sololá	4	Finca Santa Victoria	6	Junio	2023-04-06T00:00:00	2024-11-08T13:00:00	5	Humedad	82
110945	7	Sololá	701	Sololá	4	Finca Santa Victoria	6	Junio	2023-04-06T00:00:00	2024-11-08T13:00:00	6	Velocidad del viento	4.8
110946	7	Sololá	701	Sololá	4	Finca Santa Victoria	6	Junio	2023-04-06T00:00:00	2024-11-08T13:00:00	7	Dirección del viento	4.83
110947	7	Sololá	701	Sololá	4	Finca Santa Victoria	6	Junio	2023-04-06T00:00:00	2024-11-08T13:00:00	1	Precipitación	0
110948	7	Sololá	701	Sololá	4	Finca Santa Victoria	6	Junio	2023-04-06T00:00:00	2024-11-08T13:00:00	8	Radiación solar	414
110949	7	Sololá	701	Sololá	4	Finca Santa Victoria	6	Junio	2023-04-06T00:00:00	2024-11-08T14:00:00	2	Temperatura media	19.1
110950	7	Sololá	701	Sololá	4	Finca Santa Victoria	6	Junio	2023-04-06T00:00:00	2024-11-08T14:00:00	4	Temperatura máxima	20.4
110951	7	Sololá	701	Sololá	4	Finca Santa Victoria	6	Junio	2023-04-06T00:00:00	2024-11-08T14:00:00	3	Temperatura mínima	19.1
110952	7	Sololá	701	Sololá	4	Finca Santa Victoria	6	Junio	2023-04-06T00:00:00	2024-11-08T14:00:00	5	Humedad	86
110953	7	Sololá	701	Sololá	4	Finca Santa Victoria	6	Junio	2023-04-06T00:00:00	2024-11-08T14:00:00	6	Velocidad del viento	4.8
110954	7	Sololá	701	Sololá	4	Finca Santa Victoria	6	Junio	2023-04-06T00:00:00	2024-11-08T14:00:00	7	Dirección del viento	4.83
110955	7	Sololá	701	Sololá	4	Finca Santa Victoria	6	Junio	2023-04-06T00:00:00	2024-11-08T14:00:00	1	Precipitación	0
110956	7	Sololá	701	Sololá	4	Finca Santa Victoria	6	Junio	2023-04-06T00:00:00	2024-11-08T14:00:00	8	Radiación solar	264
110957	7	Sololá	701	Sololá	4	Finca Santa Victoria	6	Junio	2023-04-06T00:00:00	2024-11-08T15:00:00	2	Temperatura media	17.7
110958	7	Sololá	701	Sololá	4	Finca Santa Victoria	6	Junio	2023-04-06T00:00:00	2024-11-08T15:00:00	4	Temperatura máxima	19.1
110959	7	Sololá	701	Sololá	4	Finca Santa Victoria	6	Junio	2023-04-06T00:00:00	2024-11-08T15:00:00	3	Temperatura mínima	17.7
110960	7	Sololá	701	Sololá	4	Finca Santa Victoria	6	Junio	2023-04-06T00:00:00	2024-11-08T15:00:00	5	Humedad	93
110961	7	Sololá	701	Sololá	4	Finca Santa Victoria	6	Junio	2023-04-06T00:00:00	2024-11-08T15:00:00	6	Velocidad del viento	3.2
110962	7	Sololá	701	Sololá	4	Finca Santa Victoria	6	Junio	2023-04-06T00:00:00	2024-11-08T15:00:00	7	Dirección del viento	3.22
110963	7	Sololá	701	Sololá	4	Finca Santa Victoria	6	Junio	2023-04-06T00:00:00	2024-11-08T15:00:00	1	Precipitación	0
110964	7	Sololá	701	Sololá	4	Finca Santa Victoria	6	Junio	2023-04-06T00:00:00	2024-11-08T15:00:00	8	Radiación solar	98
110965	7	Sololá	701	Sololá	4	Finca Santa Victoria	6	Junio	2023-04-06T00:00:00	2024-11-08T16:00:00	2	Temperatura media	16.9
110966	7	Sololá	701	Sololá	4	Finca Santa Victoria	6	Junio	2023-04-06T00:00:00	2024-11-08T16:00:00	4	Temperatura máxima	17.6
110967	7	Sololá	701	Sololá	4	Finca Santa Victoria	6	Junio	2023-04-06T00:00:00	2024-11-08T16:00:00	3	Temperatura mínima	16.8
110968	7	Sololá	701	Sololá	4	Finca Santa Victoria	6	Junio	2023-04-06T00:00:00	2024-11-08T16:00:00	5	Humedad	94
110969	7	Sololá	701	Sololá	4	Finca Santa Victoria	6	Junio	2023-04-06T00:00:00	2024-11-08T16:00:00	6	Velocidad del viento	1.6
110970	7	Sololá	701	Sololá	4	Finca Santa Victoria	6	Junio	2023-04-06T00:00:00	2024-11-08T16:00:00	7	Dirección del viento	1.61
110971	7	Sololá	701	Sololá	4	Finca Santa Victoria	6	Junio	2023-04-06T00:00:00	2024-11-08T16:00:00	1	Precipitación	0
110972	7	Sololá	701	Sololá	4	Finca Santa Victoria	6	Junio	2023-04-06T00:00:00	2024-11-08T16:00:00	8	Radiación solar	13
110973	7	Sololá	701	Sololá	4	Finca Santa Victoria	6	Junio	2023-04-06T00:00:00	2024-11-08T17:00:00	2	Temperatura media	16.2
110974	7	Sololá	701	Sololá	4	Finca Santa Victoria	6	Junio	2023-04-06T00:00:00	2024-11-08T17:00:00	4	Temperatura máxima	16.9
110975	7	Sololá	701	Sololá	4	Finca Santa Victoria	6	Junio	2023-04-06T00:00:00	2024-11-08T17:00:00	3	Temperatura mínima	16.2
110976	7	Sololá	701	Sololá	4	Finca Santa Victoria	6	Junio	2023-04-06T00:00:00	2024-11-08T17:00:00	5	Humedad	96
110977	7	Sololá	701	Sololá	4	Finca Santa Victoria	6	Junio	2023-04-06T00:00:00	2024-11-08T17:00:00	6	Velocidad del viento	1.6
110978	7	Sololá	701	Sololá	4	Finca Santa Victoria	6	Junio	2023-04-06T00:00:00	2024-11-08T17:00:00	7	Dirección del viento	1.61
110979	7	Sololá	701	Sololá	4	Finca Santa Victoria	6	Junio	2023-04-06T00:00:00	2024-11-08T17:00:00	1	Precipitación	0
110980	7	Sololá	701	Sololá	4	Finca Santa Victoria	6	Junio	2023-04-06T00:00:00	2024-11-08T17:00:00	8	Radiación solar	4
110981	7	Sololá	701	Sololá	4	Finca Santa Victoria	6	Junio	2023-04-06T00:00:00	2024-11-08T18:00:00	2	Temperatura media	16.1
110982	7	Sololá	701	Sololá	4	Finca Santa Victoria	6	Junio	2023-04-06T00:00:00	2024-11-08T18:00:00	4	Temperatura máxima	16.3
110983	7	Sololá	701	Sololá	4	Finca Santa Victoria	6	Junio	2023-04-06T00:00:00	2024-11-08T18:00:00	3	Temperatura mínima	16.1
110984	7	Sololá	701	Sololá	4	Finca Santa Victoria	6	Junio	2023-04-06T00:00:00	2024-11-08T18:00:00	5	Humedad	95
110985	7	Sololá	701	Sololá	4	Finca Santa Victoria	6	Junio	2023-04-06T00:00:00	2024-11-08T18:00:00	6	Velocidad del viento	1.6
110986	7	Sololá	701	Sololá	4	Finca Santa Victoria	6	Junio	2023-04-06T00:00:00	2024-11-08T18:00:00	7	Dirección del viento	1.61
110987	7	Sololá	701	Sololá	4	Finca Santa Victoria	6	Junio	2023-04-06T00:00:00	2024-11-08T18:00:00	1	Precipitación	0
110988	7	Sololá	701	Sololá	4	Finca Santa Victoria	6	Junio	2023-04-06T00:00:00	2024-11-08T18:00:00	8	Radiación solar	5
110989	7	Sololá	701	Sololá	4	Finca Santa Victoria	6	Junio	2023-04-06T00:00:00	2024-11-08T19:00:00	2	Temperatura media	16.4
110990	7	Sololá	701	Sololá	4	Finca Santa Victoria	6	Junio	2023-04-06T00:00:00	2024-11-08T19:00:00	4	Temperatura máxima	16.4
110991	7	Sololá	701	Sololá	4	Finca Santa Victoria	6	Junio	2023-04-06T00:00:00	2024-11-08T19:00:00	3	Temperatura mínima	15.8
110992	7	Sololá	701	Sololá	4	Finca Santa Victoria	6	Junio	2023-04-06T00:00:00	2024-11-08T19:00:00	5	Humedad	87
110993	7	Sololá	701	Sololá	4	Finca Santa Victoria	6	Junio	2023-04-06T00:00:00	2024-11-08T19:00:00	6	Velocidad del viento	1.6
110994	7	Sololá	701	Sololá	4	Finca Santa Victoria	6	Junio	2023-04-06T00:00:00	2024-11-08T19:00:00	7	Dirección del viento	1.61
110995	7	Sololá	701	Sololá	4	Finca Santa Victoria	6	Junio	2023-04-06T00:00:00	2024-11-08T19:00:00	1	Precipitación	0
110996	7	Sololá	701	Sololá	4	Finca Santa Victoria	6	Junio	2023-04-06T00:00:00	2024-11-08T19:00:00	8	Radiación solar	0
110997	7	Sololá	701	Sololá	4	Finca Santa Victoria	6	Junio	2023-04-06T00:00:00	2024-11-08T20:00:00	2	Temperatura media	15.7
110998	7	Sololá	701	Sololá	4	Finca Santa Victoria	6	Junio	2023-04-06T00:00:00	2024-11-08T20:00:00	4	Temperatura máxima	16.4
110999	7	Sololá	701	Sololá	4	Finca Santa Victoria	6	Junio	2023-04-06T00:00:00	2024-11-08T20:00:00	3	Temperatura mínima	15.7
111000	7	Sololá	701	Sololá	4	Finca Santa Victoria	6	Junio	2023-04-06T00:00:00	2024-11-08T20:00:00	5	Humedad	90
111001	7	Sololá	701	Sololá	4	Finca Santa Victoria	6	Junio	2023-04-06T00:00:00	2024-11-08T20:00:00	6	Velocidad del viento	1.6
111002	7	Sololá	701	Sololá	4	Finca Santa Victoria	6	Junio	2023-04-06T00:00:00	2024-11-08T20:00:00	7	Dirección del viento	1.61
111003	7	Sololá	701	Sololá	4	Finca Santa Victoria	6	Junio	2023-04-06T00:00:00	2024-11-08T20:00:00	1	Precipitación	0
111004	7	Sololá	701	Sololá	4	Finca Santa Victoria	6	Junio	2023-04-06T00:00:00	2024-11-08T20:00:00	8	Radiación solar	0
111005	7	Sololá	701	Sololá	4	Finca Santa Victoria	6	Junio	2023-04-06T00:00:00	2024-11-08T21:00:00	2	Temperatura media	14.8
111006	7	Sololá	701	Sololá	4	Finca Santa Victoria	6	Junio	2023-04-06T00:00:00	2024-11-08T21:00:00	4	Temperatura máxima	15.7
111007	7	Sololá	701	Sololá	4	Finca Santa Victoria	6	Junio	2023-04-06T00:00:00	2024-11-08T21:00:00	3	Temperatura mínima	14.7
111008	7	Sololá	701	Sololá	4	Finca Santa Victoria	6	Junio	2023-04-06T00:00:00	2024-11-08T21:00:00	5	Humedad	95
111009	7	Sololá	701	Sololá	4	Finca Santa Victoria	6	Junio	2023-04-06T00:00:00	2024-11-08T21:00:00	6	Velocidad del viento	0
111010	7	Sololá	701	Sololá	4	Finca Santa Victoria	6	Junio	2023-04-06T00:00:00	2024-11-08T21:00:00	7	Dirección del viento	0
111011	7	Sololá	701	Sololá	4	Finca Santa Victoria	6	Junio	2023-04-06T00:00:00	2024-11-08T21:00:00	1	Precipitación	0
111012	7	Sololá	701	Sololá	4	Finca Santa Victoria	6	Junio	2023-04-06T00:00:00	2024-11-08T21:00:00	8	Radiación solar	0
111013	7	Sololá	701	Sololá	4	Finca Santa Victoria	6	Junio	2023-04-06T00:00:00	2024-11-08T22:00:00	2	Temperatura media	14.1
111014	7	Sololá	701	Sololá	4	Finca Santa Victoria	6	Junio	2023-04-06T00:00:00	2024-11-08T22:00:00	4	Temperatura máxima	14.8
111015	7	Sololá	701	Sololá	4	Finca Santa Victoria	6	Junio	2023-04-06T00:00:00	2024-11-08T22:00:00	3	Temperatura mínima	14.1
111016	7	Sololá	701	Sololá	4	Finca Santa Victoria	6	Junio	2023-04-06T00:00:00	2024-11-08T22:00:00	5	Humedad	96
111017	7	Sololá	701	Sololá	4	Finca Santa Victoria	6	Junio	2023-04-06T00:00:00	2024-11-08T22:00:00	6	Velocidad del viento	0
111018	7	Sololá	701	Sololá	4	Finca Santa Victoria	6	Junio	2023-04-06T00:00:00	2024-11-08T22:00:00	7	Dirección del viento	0
111019	7	Sololá	701	Sololá	4	Finca Santa Victoria	6	Junio	2023-04-06T00:00:00	2024-11-08T22:00:00	1	Precipitación	0
111020	7	Sololá	701	Sololá	4	Finca Santa Victoria	6	Junio	2023-04-06T00:00:00	2024-11-08T22:00:00	8	Radiación solar	0
111021	7	Sololá	701	Sololá	4	Finca Santa Victoria	6	Junio	2023-04-06T00:00:00	2024-11-08T23:00:00	2	Temperatura media	14.3
111022	7	Sololá	701	Sololá	4	Finca Santa Victoria	6	Junio	2023-04-06T00:00:00	2024-11-08T23:00:00	4	Temperatura máxima	14.3
111023	7	Sololá	701	Sololá	4	Finca Santa Victoria	6	Junio	2023-04-06T00:00:00	2024-11-08T23:00:00	3	Temperatura mínima	13.8
111024	7	Sololá	701	Sololá	4	Finca Santa Victoria	6	Junio	2023-04-06T00:00:00	2024-11-08T23:00:00	5	Humedad	86
111025	7	Sololá	701	Sololá	4	Finca Santa Victoria	6	Junio	2023-04-06T00:00:00	2024-11-08T23:00:00	6	Velocidad del viento	0
111026	7	Sololá	701	Sololá	4	Finca Santa Victoria	6	Junio	2023-04-06T00:00:00	2024-11-08T23:00:00	7	Dirección del viento	0
111027	7	Sololá	701	Sololá	4	Finca Santa Victoria	6	Junio	2023-04-06T00:00:00	2024-11-08T23:00:00	1	Precipitación	0
111028	7	Sololá	701	Sololá	4	Finca Santa Victoria	6	Junio	2023-04-06T00:00:00	2024-11-08T23:00:00	8	Radiación solar	0
111029	7	Sololá	701	Sololá	4	Finca Santa Victoria	6	Junio	2023-05-06T00:00:00	2024-11-08T00:00:00	2	Temperatura media	14.3
111030	7	Sololá	701	Sololá	4	Finca Santa Victoria	6	Junio	2023-05-06T00:00:00	2024-11-08T00:00:00	4	Temperatura máxima	14.4
111031	7	Sololá	701	Sololá	4	Finca Santa Victoria	6	Junio	2023-05-06T00:00:00	2024-11-08T00:00:00	3	Temperatura mínima	14.2
111032	7	Sololá	701	Sololá	4	Finca Santa Victoria	6	Junio	2023-05-06T00:00:00	2024-11-08T00:00:00	5	Humedad	79
111033	7	Sololá	701	Sololá	4	Finca Santa Victoria	6	Junio	2023-05-06T00:00:00	2024-11-08T00:00:00	6	Velocidad del viento	1.6
111034	7	Sololá	701	Sololá	4	Finca Santa Victoria	6	Junio	2023-05-06T00:00:00	2024-11-08T00:00:00	7	Dirección del viento	1.61
111035	7	Sololá	701	Sololá	4	Finca Santa Victoria	6	Junio	2023-05-06T00:00:00	2024-11-08T00:00:00	1	Precipitación	0
111036	7	Sololá	701	Sololá	4	Finca Santa Victoria	6	Junio	2023-05-06T00:00:00	2024-11-08T00:00:00	8	Radiación solar	0
111037	7	Sololá	701	Sololá	4	Finca Santa Victoria	6	Junio	2023-05-06T00:00:00	2024-11-08T01:00:00	2	Temperatura media	13.9
111038	7	Sololá	701	Sololá	4	Finca Santa Victoria	6	Junio	2023-05-06T00:00:00	2024-11-08T01:00:00	4	Temperatura máxima	14.3
111039	7	Sololá	701	Sololá	4	Finca Santa Victoria	6	Junio	2023-05-06T00:00:00	2024-11-08T01:00:00	3	Temperatura mínima	13.8
111040	7	Sololá	701	Sololá	4	Finca Santa Victoria	6	Junio	2023-05-06T00:00:00	2024-11-08T01:00:00	5	Humedad	84
111041	7	Sololá	701	Sololá	4	Finca Santa Victoria	6	Junio	2023-05-06T00:00:00	2024-11-08T01:00:00	6	Velocidad del viento	1.6
111042	7	Sololá	701	Sololá	4	Finca Santa Victoria	6	Junio	2023-05-06T00:00:00	2024-11-08T01:00:00	7	Dirección del viento	1.61
111043	7	Sololá	701	Sololá	4	Finca Santa Victoria	6	Junio	2023-05-06T00:00:00	2024-11-08T01:00:00	1	Precipitación	0
111044	7	Sololá	701	Sololá	4	Finca Santa Victoria	6	Junio	2023-05-06T00:00:00	2024-11-08T01:00:00	8	Radiación solar	0
111045	7	Sololá	701	Sololá	4	Finca Santa Victoria	6	Junio	2023-05-06T00:00:00	2024-11-08T02:00:00	2	Temperatura media	13.3
111046	7	Sololá	701	Sololá	4	Finca Santa Victoria	6	Junio	2023-05-06T00:00:00	2024-11-08T02:00:00	4	Temperatura máxima	13.9
111047	7	Sololá	701	Sololá	4	Finca Santa Victoria	6	Junio	2023-05-06T00:00:00	2024-11-08T02:00:00	3	Temperatura mínima	13.3
111048	7	Sololá	701	Sololá	4	Finca Santa Victoria	6	Junio	2023-05-06T00:00:00	2024-11-08T02:00:00	5	Humedad	85
111049	7	Sololá	701	Sololá	4	Finca Santa Victoria	6	Junio	2023-05-06T00:00:00	2024-11-08T02:00:00	6	Velocidad del viento	1.6
111050	7	Sololá	701	Sololá	4	Finca Santa Victoria	6	Junio	2023-05-06T00:00:00	2024-11-08T02:00:00	7	Dirección del viento	1.61
111051	7	Sololá	701	Sololá	4	Finca Santa Victoria	6	Junio	2023-05-06T00:00:00	2024-11-08T02:00:00	1	Precipitación	0
111052	7	Sololá	701	Sololá	4	Finca Santa Victoria	6	Junio	2023-05-06T00:00:00	2024-11-08T02:00:00	8	Radiación solar	0
111053	7	Sololá	701	Sololá	4	Finca Santa Victoria	6	Junio	2023-05-06T00:00:00	2024-11-08T03:00:00	2	Temperatura media	12.9
111054	7	Sololá	701	Sololá	4	Finca Santa Victoria	6	Junio	2023-05-06T00:00:00	2024-11-08T03:00:00	4	Temperatura máxima	13.3
111055	7	Sololá	701	Sololá	4	Finca Santa Victoria	6	Junio	2023-05-06T00:00:00	2024-11-08T03:00:00	3	Temperatura mínima	12.8
111056	7	Sololá	701	Sololá	4	Finca Santa Victoria	6	Junio	2023-05-06T00:00:00	2024-11-08T03:00:00	5	Humedad	82
111057	7	Sololá	701	Sololá	4	Finca Santa Victoria	6	Junio	2023-05-06T00:00:00	2024-11-08T03:00:00	6	Velocidad del viento	1.6
111058	7	Sololá	701	Sololá	4	Finca Santa Victoria	6	Junio	2023-05-06T00:00:00	2024-11-08T03:00:00	7	Dirección del viento	1.61
111059	7	Sololá	701	Sololá	4	Finca Santa Victoria	6	Junio	2023-05-06T00:00:00	2024-11-08T03:00:00	1	Precipitación	0
111060	7	Sololá	701	Sololá	4	Finca Santa Victoria	6	Junio	2023-05-06T00:00:00	2024-11-08T03:00:00	8	Radiación solar	0
111061	7	Sololá	701	Sololá	4	Finca Santa Victoria	6	Junio	2023-05-06T00:00:00	2024-11-08T04:00:00	2	Temperatura media	13.3
111062	7	Sololá	701	Sololá	4	Finca Santa Victoria	6	Junio	2023-05-06T00:00:00	2024-11-08T04:00:00	4	Temperatura máxima	13.4
111063	7	Sololá	701	Sololá	4	Finca Santa Victoria	6	Junio	2023-05-06T00:00:00	2024-11-08T04:00:00	3	Temperatura mínima	12.9
111064	7	Sololá	701	Sololá	4	Finca Santa Victoria	6	Junio	2023-05-06T00:00:00	2024-11-08T04:00:00	5	Humedad	82
111065	7	Sololá	701	Sololá	4	Finca Santa Victoria	6	Junio	2023-05-06T00:00:00	2024-11-08T04:00:00	6	Velocidad del viento	1.6
111066	7	Sololá	701	Sololá	4	Finca Santa Victoria	6	Junio	2023-05-06T00:00:00	2024-11-08T04:00:00	7	Dirección del viento	1.61
111067	7	Sololá	701	Sololá	4	Finca Santa Victoria	6	Junio	2023-05-06T00:00:00	2024-11-08T04:00:00	1	Precipitación	0
111068	7	Sololá	701	Sololá	4	Finca Santa Victoria	6	Junio	2023-05-06T00:00:00	2024-11-08T04:00:00	8	Radiación solar	0
111069	7	Sololá	701	Sololá	4	Finca Santa Victoria	6	Junio	2023-05-06T00:00:00	2024-11-08T05:00:00	2	Temperatura media	13.4
111070	7	Sololá	701	Sololá	4	Finca Santa Victoria	6	Junio	2023-05-06T00:00:00	2024-11-08T05:00:00	4	Temperatura máxima	13.4
111071	7	Sololá	701	Sololá	4	Finca Santa Victoria	6	Junio	2023-05-06T00:00:00	2024-11-08T05:00:00	3	Temperatura mínima	13
111072	7	Sololá	701	Sololá	4	Finca Santa Victoria	6	Junio	2023-05-06T00:00:00	2024-11-08T05:00:00	5	Humedad	84
111073	7	Sololá	701	Sololá	4	Finca Santa Victoria	6	Junio	2023-05-06T00:00:00	2024-11-08T05:00:00	6	Velocidad del viento	1.6
111074	7	Sololá	701	Sololá	4	Finca Santa Victoria	6	Junio	2023-05-06T00:00:00	2024-11-08T05:00:00	7	Dirección del viento	1.61
111075	7	Sololá	701	Sololá	4	Finca Santa Victoria	6	Junio	2023-05-06T00:00:00	2024-11-08T05:00:00	1	Precipitación	0
111076	7	Sololá	701	Sololá	4	Finca Santa Victoria	6	Junio	2023-05-06T00:00:00	2024-11-08T05:00:00	8	Radiación solar	0
111077	7	Sololá	701	Sololá	4	Finca Santa Victoria	6	Junio	2023-05-06T00:00:00	2024-11-08T06:00:00	2	Temperatura media	12.7
111078	7	Sololá	701	Sololá	4	Finca Santa Victoria	6	Junio	2023-05-06T00:00:00	2024-11-08T06:00:00	4	Temperatura máxima	13.4
111079	7	Sololá	701	Sololá	4	Finca Santa Victoria	6	Junio	2023-05-06T00:00:00	2024-11-08T06:00:00	3	Temperatura mínima	12.7
111080	7	Sololá	701	Sololá	4	Finca Santa Victoria	6	Junio	2023-05-06T00:00:00	2024-11-08T06:00:00	5	Humedad	84
111081	7	Sololá	701	Sololá	4	Finca Santa Victoria	6	Junio	2023-05-06T00:00:00	2024-11-08T06:00:00	6	Velocidad del viento	1.6
111082	7	Sololá	701	Sololá	4	Finca Santa Victoria	6	Junio	2023-05-06T00:00:00	2024-11-08T06:00:00	7	Dirección del viento	1.61
111083	7	Sololá	701	Sololá	4	Finca Santa Victoria	6	Junio	2023-05-06T00:00:00	2024-11-08T06:00:00	1	Precipitación	0
111084	7	Sololá	701	Sololá	4	Finca Santa Victoria	6	Junio	2023-05-06T00:00:00	2024-11-08T06:00:00	8	Radiación solar	2
111085	7	Sololá	701	Sololá	4	Finca Santa Victoria	6	Junio	2023-05-06T00:00:00	2024-11-08T07:00:00	2	Temperatura media	13.6
111086	7	Sololá	701	Sololá	4	Finca Santa Victoria	6	Junio	2023-05-06T00:00:00	2024-11-08T07:00:00	4	Temperatura máxima	13.6
111087	7	Sololá	701	Sololá	4	Finca Santa Victoria	6	Junio	2023-05-06T00:00:00	2024-11-08T07:00:00	3	Temperatura mínima	12.6
111088	7	Sololá	701	Sololá	4	Finca Santa Victoria	6	Junio	2023-05-06T00:00:00	2024-11-08T07:00:00	5	Humedad	84
111089	7	Sololá	701	Sololá	4	Finca Santa Victoria	6	Junio	2023-05-06T00:00:00	2024-11-08T07:00:00	6	Velocidad del viento	0
111090	7	Sololá	701	Sololá	4	Finca Santa Victoria	6	Junio	2023-05-06T00:00:00	2024-11-08T07:00:00	7	Dirección del viento	0
111091	7	Sololá	701	Sololá	4	Finca Santa Victoria	6	Junio	2023-05-06T00:00:00	2024-11-08T07:00:00	1	Precipitación	0
111092	7	Sololá	701	Sololá	4	Finca Santa Victoria	6	Junio	2023-05-06T00:00:00	2024-11-08T07:00:00	8	Radiación solar	30
111093	7	Sololá	701	Sololá	4	Finca Santa Victoria	6	Junio	2023-05-06T00:00:00	2024-11-08T08:00:00	2	Temperatura media	16.3
111094	7	Sololá	701	Sololá	4	Finca Santa Victoria	6	Junio	2023-05-06T00:00:00	2024-11-08T08:00:00	4	Temperatura máxima	16.3
111095	7	Sololá	701	Sololá	4	Finca Santa Victoria	6	Junio	2023-05-06T00:00:00	2024-11-08T08:00:00	3	Temperatura mínima	13.6
111096	7	Sololá	701	Sololá	4	Finca Santa Victoria	6	Junio	2023-05-06T00:00:00	2024-11-08T08:00:00	5	Humedad	79
111097	7	Sololá	701	Sololá	4	Finca Santa Victoria	6	Junio	2023-05-06T00:00:00	2024-11-08T08:00:00	6	Velocidad del viento	1.6
111098	7	Sololá	701	Sololá	4	Finca Santa Victoria	6	Junio	2023-05-06T00:00:00	2024-11-08T08:00:00	7	Dirección del viento	1.61
111099	7	Sololá	701	Sololá	4	Finca Santa Victoria	6	Junio	2023-05-06T00:00:00	2024-11-08T08:00:00	1	Precipitación	0
111100	7	Sololá	701	Sololá	4	Finca Santa Victoria	6	Junio	2023-05-06T00:00:00	2024-11-08T08:00:00	8	Radiación solar	255
111101	7	Sololá	701	Sololá	4	Finca Santa Victoria	6	Junio	2023-05-06T00:00:00	2024-11-08T09:00:00	2	Temperatura media	17.6
111102	7	Sololá	701	Sololá	4	Finca Santa Victoria	6	Junio	2023-05-06T00:00:00	2024-11-08T09:00:00	4	Temperatura máxima	17.7
111103	7	Sololá	701	Sololá	4	Finca Santa Victoria	6	Junio	2023-05-06T00:00:00	2024-11-08T09:00:00	3	Temperatura mínima	16.3
111104	7	Sololá	701	Sololá	4	Finca Santa Victoria	6	Junio	2023-05-06T00:00:00	2024-11-08T09:00:00	5	Humedad	71
111105	7	Sololá	701	Sololá	4	Finca Santa Victoria	6	Junio	2023-05-06T00:00:00	2024-11-08T09:00:00	6	Velocidad del viento	3.2
111106	7	Sololá	701	Sololá	4	Finca Santa Victoria	6	Junio	2023-05-06T00:00:00	2024-11-08T09:00:00	7	Dirección del viento	3.22
111107	7	Sololá	701	Sololá	4	Finca Santa Victoria	6	Junio	2023-05-06T00:00:00	2024-11-08T09:00:00	1	Precipitación	0
111108	7	Sololá	701	Sololá	4	Finca Santa Victoria	6	Junio	2023-05-06T00:00:00	2024-11-08T09:00:00	8	Radiación solar	359
111109	7	Sololá	701	Sololá	4	Finca Santa Victoria	6	Junio	2023-05-06T00:00:00	2024-11-08T10:00:00	2	Temperatura media	17.8
111110	7	Sololá	701	Sololá	4	Finca Santa Victoria	6	Junio	2023-05-06T00:00:00	2024-11-08T10:00:00	4	Temperatura máxima	17.9
111111	7	Sololá	701	Sololá	4	Finca Santa Victoria	6	Junio	2023-05-06T00:00:00	2024-11-08T10:00:00	3	Temperatura mínima	17.5
111112	7	Sololá	701	Sololá	4	Finca Santa Victoria	6	Junio	2023-05-06T00:00:00	2024-11-08T10:00:00	5	Humedad	77
111113	7	Sololá	701	Sololá	4	Finca Santa Victoria	6	Junio	2023-05-06T00:00:00	2024-11-08T10:00:00	6	Velocidad del viento	3.2
111114	7	Sololá	701	Sololá	4	Finca Santa Victoria	6	Junio	2023-05-06T00:00:00	2024-11-08T10:00:00	7	Dirección del viento	3.22
111115	7	Sololá	701	Sololá	4	Finca Santa Victoria	6	Junio	2023-05-06T00:00:00	2024-11-08T10:00:00	1	Precipitación	0
111116	7	Sololá	701	Sololá	4	Finca Santa Victoria	6	Junio	2023-05-06T00:00:00	2024-11-08T10:00:00	8	Radiación solar	306
111117	7	Sololá	701	Sololá	4	Finca Santa Victoria	6	Junio	2023-05-06T00:00:00	2024-11-08T11:00:00	2	Temperatura media	17.8
111118	7	Sololá	701	Sololá	4	Finca Santa Victoria	6	Junio	2023-05-06T00:00:00	2024-11-08T11:00:00	4	Temperatura máxima	18.3
111119	7	Sololá	701	Sololá	4	Finca Santa Victoria	6	Junio	2023-05-06T00:00:00	2024-11-08T11:00:00	3	Temperatura mínima	17.2
111120	7	Sololá	701	Sololá	4	Finca Santa Victoria	6	Junio	2023-05-06T00:00:00	2024-11-08T11:00:00	5	Humedad	77
111121	7	Sololá	701	Sololá	4	Finca Santa Victoria	6	Junio	2023-05-06T00:00:00	2024-11-08T11:00:00	6	Velocidad del viento	4.8
111122	7	Sololá	701	Sololá	4	Finca Santa Victoria	6	Junio	2023-05-06T00:00:00	2024-11-08T11:00:00	7	Dirección del viento	4.83
111123	7	Sololá	701	Sololá	4	Finca Santa Victoria	6	Junio	2023-05-06T00:00:00	2024-11-08T11:00:00	1	Precipitación	0
111124	7	Sololá	701	Sololá	4	Finca Santa Victoria	6	Junio	2023-05-06T00:00:00	2024-11-08T11:00:00	8	Radiación solar	396
111125	7	Sololá	701	Sololá	4	Finca Santa Victoria	6	Junio	2023-05-06T00:00:00	2024-11-08T12:00:00	2	Temperatura media	18.2
111126	7	Sololá	701	Sololá	4	Finca Santa Victoria	6	Junio	2023-05-06T00:00:00	2024-11-08T12:00:00	4	Temperatura máxima	18.3
111127	7	Sololá	701	Sololá	4	Finca Santa Victoria	6	Junio	2023-05-06T00:00:00	2024-11-08T12:00:00	3	Temperatura mínima	17.3
111128	7	Sololá	701	Sololá	4	Finca Santa Victoria	6	Junio	2023-05-06T00:00:00	2024-11-08T12:00:00	5	Humedad	78
111129	7	Sololá	701	Sololá	4	Finca Santa Victoria	6	Junio	2023-05-06T00:00:00	2024-11-08T12:00:00	6	Velocidad del viento	4.8
111130	7	Sololá	701	Sololá	4	Finca Santa Victoria	6	Junio	2023-05-06T00:00:00	2024-11-08T12:00:00	7	Dirección del viento	4.83
111131	7	Sololá	701	Sololá	4	Finca Santa Victoria	6	Junio	2023-05-06T00:00:00	2024-11-08T12:00:00	1	Precipitación	0
111132	7	Sololá	701	Sololá	4	Finca Santa Victoria	6	Junio	2023-05-06T00:00:00	2024-11-08T12:00:00	8	Radiación solar	556
111133	7	Sololá	701	Sololá	4	Finca Santa Victoria	6	Junio	2023-05-06T00:00:00	2024-11-08T13:00:00	2	Temperatura media	18.8
111134	7	Sololá	701	Sololá	4	Finca Santa Victoria	6	Junio	2023-05-06T00:00:00	2024-11-08T13:00:00	4	Temperatura máxima	19.1
111135	7	Sololá	701	Sololá	4	Finca Santa Victoria	6	Junio	2023-05-06T00:00:00	2024-11-08T13:00:00	3	Temperatura mínima	18.3
111136	7	Sololá	701	Sololá	4	Finca Santa Victoria	6	Junio	2023-05-06T00:00:00	2024-11-08T13:00:00	5	Humedad	78
111137	7	Sololá	701	Sololá	4	Finca Santa Victoria	6	Junio	2023-05-06T00:00:00	2024-11-08T13:00:00	6	Velocidad del viento	4.8
111138	7	Sololá	701	Sololá	4	Finca Santa Victoria	6	Junio	2023-05-06T00:00:00	2024-11-08T13:00:00	7	Dirección del viento	4.83
111139	7	Sololá	701	Sololá	4	Finca Santa Victoria	6	Junio	2023-05-06T00:00:00	2024-11-08T13:00:00	1	Precipitación	0
111140	7	Sololá	701	Sololá	4	Finca Santa Victoria	6	Junio	2023-05-06T00:00:00	2024-11-08T13:00:00	8	Radiación solar	804
111141	7	Sololá	701	Sololá	4	Finca Santa Victoria	6	Junio	2023-05-06T00:00:00	2024-11-08T14:00:00	2	Temperatura media	18.7
111142	7	Sololá	701	Sololá	4	Finca Santa Victoria	6	Junio	2023-05-06T00:00:00	2024-11-08T14:00:00	4	Temperatura máxima	19.3
111143	7	Sololá	701	Sololá	4	Finca Santa Victoria	6	Junio	2023-05-06T00:00:00	2024-11-08T14:00:00	3	Temperatura mínima	18.7
111144	7	Sololá	701	Sololá	4	Finca Santa Victoria	6	Junio	2023-05-06T00:00:00	2024-11-08T14:00:00	5	Humedad	77
111145	7	Sololá	701	Sololá	4	Finca Santa Victoria	6	Junio	2023-05-06T00:00:00	2024-11-08T14:00:00	6	Velocidad del viento	4.8
111146	7	Sololá	701	Sololá	4	Finca Santa Victoria	6	Junio	2023-05-06T00:00:00	2024-11-08T14:00:00	7	Dirección del viento	4.83
111147	7	Sololá	701	Sololá	4	Finca Santa Victoria	6	Junio	2023-05-06T00:00:00	2024-11-08T14:00:00	1	Precipitación	0
111148	7	Sololá	701	Sololá	4	Finca Santa Victoria	6	Junio	2023-05-06T00:00:00	2024-11-08T14:00:00	8	Radiación solar	597
111149	7	Sololá	701	Sololá	4	Finca Santa Victoria	6	Junio	2023-05-06T00:00:00	2024-11-08T15:00:00	2	Temperatura media	18.7
111150	7	Sololá	701	Sololá	4	Finca Santa Victoria	6	Junio	2023-05-06T00:00:00	2024-11-08T15:00:00	4	Temperatura máxima	18.7
111151	7	Sololá	701	Sololá	4	Finca Santa Victoria	6	Junio	2023-05-06T00:00:00	2024-11-08T15:00:00	3	Temperatura mínima	18.3
111152	7	Sololá	701	Sololá	4	Finca Santa Victoria	6	Junio	2023-05-06T00:00:00	2024-11-08T15:00:00	5	Humedad	77
111153	7	Sololá	701	Sololá	4	Finca Santa Victoria	6	Junio	2023-05-06T00:00:00	2024-11-08T15:00:00	6	Velocidad del viento	4.8
111154	7	Sololá	701	Sololá	4	Finca Santa Victoria	6	Junio	2023-05-06T00:00:00	2024-11-08T15:00:00	7	Dirección del viento	4.83
111155	7	Sololá	701	Sololá	4	Finca Santa Victoria	6	Junio	2023-05-06T00:00:00	2024-11-08T15:00:00	1	Precipitación	0
111156	7	Sololá	701	Sololá	4	Finca Santa Victoria	6	Junio	2023-05-06T00:00:00	2024-11-08T15:00:00	8	Radiación solar	270
111157	7	Sololá	701	Sololá	4	Finca Santa Victoria	6	Junio	2023-05-06T00:00:00	2024-11-08T16:00:00	2	Temperatura media	17.6
111158	7	Sololá	701	Sololá	4	Finca Santa Victoria	6	Junio	2023-05-06T00:00:00	2024-11-08T16:00:00	4	Temperatura máxima	18.7
111159	7	Sololá	701	Sololá	4	Finca Santa Victoria	6	Junio	2023-05-06T00:00:00	2024-11-08T16:00:00	3	Temperatura mínima	17.3
111160	7	Sololá	701	Sololá	4	Finca Santa Victoria	6	Junio	2023-05-06T00:00:00	2024-11-08T16:00:00	5	Humedad	85
111161	7	Sololá	701	Sololá	4	Finca Santa Victoria	6	Junio	2023-05-06T00:00:00	2024-11-08T16:00:00	6	Velocidad del viento	3.2
111162	7	Sololá	701	Sololá	4	Finca Santa Victoria	6	Junio	2023-05-06T00:00:00	2024-11-08T16:00:00	7	Dirección del viento	3.22
111163	7	Sololá	701	Sololá	4	Finca Santa Victoria	6	Junio	2023-05-06T00:00:00	2024-11-08T16:00:00	1	Precipitación	0
111164	7	Sololá	701	Sololá	4	Finca Santa Victoria	6	Junio	2023-05-06T00:00:00	2024-11-08T16:00:00	8	Radiación solar	196
111165	7	Sololá	701	Sololá	4	Finca Santa Victoria	6	Junio	2023-05-06T00:00:00	2024-11-08T17:00:00	2	Temperatura media	16.4
111166	7	Sololá	701	Sololá	4	Finca Santa Victoria	6	Junio	2023-05-06T00:00:00	2024-11-08T17:00:00	4	Temperatura máxima	17.6
111167	7	Sololá	701	Sololá	4	Finca Santa Victoria	6	Junio	2023-05-06T00:00:00	2024-11-08T17:00:00	3	Temperatura mínima	16.3
111168	7	Sololá	701	Sololá	4	Finca Santa Victoria	6	Junio	2023-05-06T00:00:00	2024-11-08T17:00:00	5	Humedad	92
111169	7	Sololá	701	Sololá	4	Finca Santa Victoria	6	Junio	2023-05-06T00:00:00	2024-11-08T17:00:00	6	Velocidad del viento	1.6
111170	7	Sololá	701	Sololá	4	Finca Santa Victoria	6	Junio	2023-05-06T00:00:00	2024-11-08T17:00:00	7	Dirección del viento	1.61
111171	7	Sololá	701	Sololá	4	Finca Santa Victoria	6	Junio	2023-05-06T00:00:00	2024-11-08T17:00:00	1	Precipitación	0
111172	7	Sololá	701	Sololá	4	Finca Santa Victoria	6	Junio	2023-05-06T00:00:00	2024-11-08T17:00:00	8	Radiación solar	91
111173	7	Sololá	701	Sololá	4	Finca Santa Victoria	6	Junio	2023-05-06T00:00:00	2024-11-08T18:00:00	2	Temperatura media	16.2
111174	7	Sololá	701	Sololá	4	Finca Santa Victoria	6	Junio	2023-05-06T00:00:00	2024-11-08T18:00:00	4	Temperatura máxima	16.4
111175	7	Sololá	701	Sololá	4	Finca Santa Victoria	6	Junio	2023-05-06T00:00:00	2024-11-08T18:00:00	3	Temperatura mínima	16.1
111176	7	Sololá	701	Sololá	4	Finca Santa Victoria	6	Junio	2023-05-06T00:00:00	2024-11-08T18:00:00	5	Humedad	92
111177	7	Sololá	701	Sololá	4	Finca Santa Victoria	6	Junio	2023-05-06T00:00:00	2024-11-08T18:00:00	6	Velocidad del viento	1.6
111178	7	Sololá	701	Sololá	4	Finca Santa Victoria	6	Junio	2023-05-06T00:00:00	2024-11-08T18:00:00	7	Dirección del viento	1.61
111179	7	Sololá	701	Sololá	4	Finca Santa Victoria	6	Junio	2023-05-06T00:00:00	2024-11-08T18:00:00	1	Precipitación	0
111180	7	Sololá	701	Sololá	4	Finca Santa Victoria	6	Junio	2023-05-06T00:00:00	2024-11-08T18:00:00	8	Radiación solar	50
111181	7	Sololá	701	Sololá	4	Finca Santa Victoria	6	Junio	2023-05-06T00:00:00	2024-11-08T19:00:00	2	Temperatura media	15.3
111182	7	Sololá	701	Sololá	4	Finca Santa Victoria	6	Junio	2023-05-06T00:00:00	2024-11-08T19:00:00	4	Temperatura máxima	16.2
111183	7	Sololá	701	Sololá	4	Finca Santa Victoria	6	Junio	2023-05-06T00:00:00	2024-11-08T19:00:00	3	Temperatura mínima	15.3
111184	7	Sololá	701	Sololá	4	Finca Santa Victoria	6	Junio	2023-05-06T00:00:00	2024-11-08T19:00:00	5	Humedad	96
111185	7	Sololá	701	Sololá	4	Finca Santa Victoria	6	Junio	2023-05-06T00:00:00	2024-11-08T19:00:00	6	Velocidad del viento	1.6
111186	7	Sololá	701	Sololá	4	Finca Santa Victoria	6	Junio	2023-05-06T00:00:00	2024-11-08T19:00:00	7	Dirección del viento	1.61
111187	7	Sololá	701	Sololá	4	Finca Santa Victoria	6	Junio	2023-05-06T00:00:00	2024-11-08T19:00:00	1	Precipitación	0
111188	7	Sololá	701	Sololá	4	Finca Santa Victoria	6	Junio	2023-05-06T00:00:00	2024-11-08T19:00:00	8	Radiación solar	0
111189	7	Sololá	701	Sololá	4	Finca Santa Victoria	6	Junio	2023-05-06T00:00:00	2024-11-08T20:00:00	2	Temperatura media	15.1
111190	7	Sololá	701	Sololá	4	Finca Santa Victoria	6	Junio	2023-05-06T00:00:00	2024-11-08T20:00:00	4	Temperatura máxima	15.3
111191	7	Sololá	701	Sololá	4	Finca Santa Victoria	6	Junio	2023-05-06T00:00:00	2024-11-08T20:00:00	3	Temperatura mínima	15.1
111192	7	Sololá	701	Sololá	4	Finca Santa Victoria	6	Junio	2023-05-06T00:00:00	2024-11-08T20:00:00	5	Humedad	96
111193	7	Sololá	701	Sololá	4	Finca Santa Victoria	6	Junio	2023-05-06T00:00:00	2024-11-08T20:00:00	6	Velocidad del viento	0
111194	7	Sololá	701	Sololá	4	Finca Santa Victoria	6	Junio	2023-05-06T00:00:00	2024-11-08T20:00:00	7	Dirección del viento	0
111195	7	Sololá	701	Sololá	4	Finca Santa Victoria	6	Junio	2023-05-06T00:00:00	2024-11-08T20:00:00	1	Precipitación	0
111196	7	Sololá	701	Sololá	4	Finca Santa Victoria	6	Junio	2023-05-06T00:00:00	2024-11-08T20:00:00	8	Radiación solar	0
111197	7	Sololá	701	Sololá	4	Finca Santa Victoria	6	Junio	2023-05-06T00:00:00	2024-11-08T21:00:00	2	Temperatura media	14.8
111198	7	Sololá	701	Sololá	4	Finca Santa Victoria	6	Junio	2023-05-06T00:00:00	2024-11-08T21:00:00	4	Temperatura máxima	15.1
111199	7	Sololá	701	Sololá	4	Finca Santa Victoria	6	Junio	2023-05-06T00:00:00	2024-11-08T21:00:00	3	Temperatura mínima	14.8
111200	7	Sololá	701	Sololá	4	Finca Santa Victoria	6	Junio	2023-05-06T00:00:00	2024-11-08T21:00:00	5	Humedad	96
111201	7	Sololá	701	Sololá	4	Finca Santa Victoria	6	Junio	2023-05-06T00:00:00	2024-11-08T21:00:00	6	Velocidad del viento	0
111202	7	Sololá	701	Sololá	4	Finca Santa Victoria	6	Junio	2023-05-06T00:00:00	2024-11-08T21:00:00	7	Dirección del viento	0
111203	7	Sololá	701	Sololá	4	Finca Santa Victoria	6	Junio	2023-05-06T00:00:00	2024-11-08T21:00:00	1	Precipitación	0
111204	7	Sololá	701	Sololá	4	Finca Santa Victoria	6	Junio	2023-05-06T00:00:00	2024-11-08T21:00:00	8	Radiación solar	0
111205	7	Sololá	701	Sololá	4	Finca Santa Victoria	6	Junio	2023-05-06T00:00:00	2024-11-08T22:00:00	2	Temperatura media	14.7
111206	7	Sololá	701	Sololá	4	Finca Santa Victoria	6	Junio	2023-05-06T00:00:00	2024-11-08T22:00:00	4	Temperatura máxima	14.8
111207	7	Sololá	701	Sololá	4	Finca Santa Victoria	6	Junio	2023-05-06T00:00:00	2024-11-08T22:00:00	3	Temperatura mínima	14.6
111208	7	Sololá	701	Sololá	4	Finca Santa Victoria	6	Junio	2023-05-06T00:00:00	2024-11-08T22:00:00	5	Humedad	98
111209	7	Sololá	701	Sololá	4	Finca Santa Victoria	6	Junio	2023-05-06T00:00:00	2024-11-08T22:00:00	6	Velocidad del viento	0
111210	7	Sololá	701	Sololá	4	Finca Santa Victoria	6	Junio	2023-05-06T00:00:00	2024-11-08T22:00:00	7	Dirección del viento	0
111211	7	Sololá	701	Sololá	4	Finca Santa Victoria	6	Junio	2023-05-06T00:00:00	2024-11-08T22:00:00	1	Precipitación	0
111212	7	Sololá	701	Sololá	4	Finca Santa Victoria	6	Junio	2023-05-06T00:00:00	2024-11-08T22:00:00	8	Radiación solar	0
111213	7	Sololá	701	Sololá	4	Finca Santa Victoria	6	Junio	2023-05-06T00:00:00	2024-11-08T23:00:00	2	Temperatura media	14.4
111214	7	Sololá	701	Sololá	4	Finca Santa Victoria	6	Junio	2023-05-06T00:00:00	2024-11-08T23:00:00	4	Temperatura máxima	14.8
111215	7	Sololá	701	Sololá	4	Finca Santa Victoria	6	Junio	2023-05-06T00:00:00	2024-11-08T23:00:00	3	Temperatura mínima	14.4
111216	7	Sololá	701	Sololá	4	Finca Santa Victoria	6	Junio	2023-05-06T00:00:00	2024-11-08T23:00:00	5	Humedad	97
111217	7	Sololá	701	Sololá	4	Finca Santa Victoria	6	Junio	2023-05-06T00:00:00	2024-11-08T23:00:00	6	Velocidad del viento	0
111218	7	Sololá	701	Sololá	4	Finca Santa Victoria	6	Junio	2023-05-06T00:00:00	2024-11-08T23:00:00	7	Dirección del viento	0
111219	7	Sololá	701	Sololá	4	Finca Santa Victoria	6	Junio	2023-05-06T00:00:00	2024-11-08T23:00:00	1	Precipitación	0
111220	7	Sololá	701	Sololá	4	Finca Santa Victoria	6	Junio	2023-05-06T00:00:00	2024-11-08T23:00:00	8	Radiación solar	0
111221	7	Sololá	701	Sololá	4	Finca Santa Victoria	6	Junio	2023-06-06T00:00:00	2024-11-08T00:00:00	2	Temperatura media	14
111222	7	Sololá	701	Sololá	4	Finca Santa Victoria	6	Junio	2023-06-06T00:00:00	2024-11-08T00:00:00	4	Temperatura máxima	14.5
111223	7	Sololá	701	Sololá	4	Finca Santa Victoria	6	Junio	2023-06-06T00:00:00	2024-11-08T00:00:00	3	Temperatura mínima	13.9
111224	7	Sololá	701	Sololá	4	Finca Santa Victoria	6	Junio	2023-06-06T00:00:00	2024-11-08T00:00:00	5	Humedad	91
111225	7	Sololá	701	Sololá	4	Finca Santa Victoria	6	Junio	2023-06-06T00:00:00	2024-11-08T00:00:00	6	Velocidad del viento	0
111226	7	Sololá	701	Sololá	4	Finca Santa Victoria	6	Junio	2023-06-06T00:00:00	2024-11-08T00:00:00	7	Dirección del viento	0
111227	7	Sololá	701	Sololá	4	Finca Santa Victoria	6	Junio	2023-06-06T00:00:00	2024-11-08T00:00:00	1	Precipitación	0
111228	7	Sololá	701	Sololá	4	Finca Santa Victoria	6	Junio	2023-06-06T00:00:00	2024-11-08T00:00:00	8	Radiación solar	0
111229	7	Sololá	701	Sololá	4	Finca Santa Victoria	6	Junio	2023-06-06T00:00:00	2024-11-08T01:00:00	2	Temperatura media	14.2
111230	7	Sololá	701	Sololá	4	Finca Santa Victoria	6	Junio	2023-06-06T00:00:00	2024-11-08T01:00:00	4	Temperatura máxima	14.3
111231	7	Sololá	701	Sololá	4	Finca Santa Victoria	6	Junio	2023-06-06T00:00:00	2024-11-08T01:00:00	3	Temperatura mínima	13.9
111232	7	Sololá	701	Sololá	4	Finca Santa Victoria	6	Junio	2023-06-06T00:00:00	2024-11-08T01:00:00	5	Humedad	82
111233	7	Sololá	701	Sololá	4	Finca Santa Victoria	6	Junio	2023-06-06T00:00:00	2024-11-08T01:00:00	6	Velocidad del viento	0
111234	7	Sololá	701	Sololá	4	Finca Santa Victoria	6	Junio	2023-06-06T00:00:00	2024-11-08T01:00:00	7	Dirección del viento	0
111235	7	Sololá	701	Sololá	4	Finca Santa Victoria	6	Junio	2023-06-06T00:00:00	2024-11-08T01:00:00	1	Precipitación	0
111236	7	Sololá	701	Sololá	4	Finca Santa Victoria	6	Junio	2023-06-06T00:00:00	2024-11-08T01:00:00	8	Radiación solar	0
111237	7	Sololá	701	Sololá	4	Finca Santa Victoria	6	Junio	2023-06-06T00:00:00	2024-11-08T02:00:00	2	Temperatura media	13.4
111238	7	Sololá	701	Sololá	4	Finca Santa Victoria	6	Junio	2023-06-06T00:00:00	2024-11-08T02:00:00	4	Temperatura máxima	14.3
111239	7	Sololá	701	Sololá	4	Finca Santa Victoria	6	Junio	2023-06-06T00:00:00	2024-11-08T02:00:00	3	Temperatura mínima	13.4
111240	7	Sololá	701	Sololá	4	Finca Santa Victoria	6	Junio	2023-06-06T00:00:00	2024-11-08T02:00:00	5	Humedad	80
111241	7	Sololá	701	Sololá	4	Finca Santa Victoria	6	Junio	2023-06-06T00:00:00	2024-11-08T02:00:00	6	Velocidad del viento	0
111242	7	Sololá	701	Sololá	4	Finca Santa Victoria	6	Junio	2023-06-06T00:00:00	2024-11-08T02:00:00	7	Dirección del viento	0
111243	7	Sololá	701	Sololá	4	Finca Santa Victoria	6	Junio	2023-06-06T00:00:00	2024-11-08T02:00:00	1	Precipitación	0
111244	7	Sololá	701	Sololá	4	Finca Santa Victoria	6	Junio	2023-06-06T00:00:00	2024-11-08T02:00:00	8	Radiación solar	0
111245	7	Sololá	701	Sololá	4	Finca Santa Victoria	6	Junio	2023-06-06T00:00:00	2024-11-08T03:00:00	2	Temperatura media	13.3
111246	7	Sololá	701	Sololá	4	Finca Santa Victoria	6	Junio	2023-06-06T00:00:00	2024-11-08T03:00:00	4	Temperatura máxima	13.7
111247	7	Sololá	701	Sololá	4	Finca Santa Victoria	6	Junio	2023-06-06T00:00:00	2024-11-08T03:00:00	3	Temperatura mínima	13.3
111248	7	Sololá	701	Sololá	4	Finca Santa Victoria	6	Junio	2023-06-06T00:00:00	2024-11-08T03:00:00	5	Humedad	83
111249	7	Sololá	701	Sololá	4	Finca Santa Victoria	6	Junio	2023-06-06T00:00:00	2024-11-08T03:00:00	6	Velocidad del viento	1.6
111250	7	Sololá	701	Sololá	4	Finca Santa Victoria	6	Junio	2023-06-06T00:00:00	2024-11-08T03:00:00	7	Dirección del viento	1.61
111251	7	Sololá	701	Sololá	4	Finca Santa Victoria	6	Junio	2023-06-06T00:00:00	2024-11-08T03:00:00	1	Precipitación	0
111252	7	Sololá	701	Sololá	4	Finca Santa Victoria	6	Junio	2023-06-06T00:00:00	2024-11-08T03:00:00	8	Radiación solar	0
111253	7	Sololá	701	Sololá	4	Finca Santa Victoria	6	Junio	2023-06-06T00:00:00	2024-11-08T04:00:00	2	Temperatura media	13.5
111254	7	Sololá	701	Sololá	4	Finca Santa Victoria	6	Junio	2023-06-06T00:00:00	2024-11-08T04:00:00	4	Temperatura máxima	13.7
111255	7	Sololá	701	Sololá	4	Finca Santa Victoria	6	Junio	2023-06-06T00:00:00	2024-11-08T04:00:00	3	Temperatura mínima	13.3
111256	7	Sololá	701	Sololá	4	Finca Santa Victoria	6	Junio	2023-06-06T00:00:00	2024-11-08T04:00:00	5	Humedad	82
111257	7	Sololá	701	Sololá	4	Finca Santa Victoria	6	Junio	2023-06-06T00:00:00	2024-11-08T04:00:00	6	Velocidad del viento	1.6
111258	7	Sololá	701	Sololá	4	Finca Santa Victoria	6	Junio	2023-06-06T00:00:00	2024-11-08T04:00:00	7	Dirección del viento	1.61
111259	7	Sololá	701	Sololá	4	Finca Santa Victoria	6	Junio	2023-06-06T00:00:00	2024-11-08T04:00:00	1	Precipitación	0
111260	7	Sololá	701	Sololá	4	Finca Santa Victoria	6	Junio	2023-06-06T00:00:00	2024-11-08T04:00:00	8	Radiación solar	0
111261	7	Sololá	701	Sololá	4	Finca Santa Victoria	6	Junio	2023-06-06T00:00:00	2024-11-08T05:00:00	2	Temperatura media	13.1
111262	7	Sololá	701	Sololá	4	Finca Santa Victoria	6	Junio	2023-06-06T00:00:00	2024-11-08T05:00:00	4	Temperatura máxima	13.5
111263	7	Sololá	701	Sololá	4	Finca Santa Victoria	6	Junio	2023-06-06T00:00:00	2024-11-08T05:00:00	3	Temperatura mínima	13.1
111264	7	Sololá	701	Sololá	4	Finca Santa Victoria	6	Junio	2023-06-06T00:00:00	2024-11-08T05:00:00	5	Humedad	82
111265	7	Sololá	701	Sololá	4	Finca Santa Victoria	6	Junio	2023-06-06T00:00:00	2024-11-08T05:00:00	6	Velocidad del viento	0
111266	7	Sololá	701	Sololá	4	Finca Santa Victoria	6	Junio	2023-06-06T00:00:00	2024-11-08T05:00:00	7	Dirección del viento	0
111267	7	Sololá	701	Sololá	4	Finca Santa Victoria	6	Junio	2023-06-06T00:00:00	2024-11-08T05:00:00	1	Precipitación	0
111268	7	Sololá	701	Sololá	4	Finca Santa Victoria	6	Junio	2023-06-06T00:00:00	2024-11-08T05:00:00	8	Radiación solar	0
111269	7	Sololá	701	Sololá	4	Finca Santa Victoria	6	Junio	2023-06-06T00:00:00	2024-11-08T06:00:00	2	Temperatura media	12.7
111270	7	Sololá	701	Sololá	4	Finca Santa Victoria	6	Junio	2023-06-06T00:00:00	2024-11-08T06:00:00	4	Temperatura máxima	13.2
111271	7	Sololá	701	Sololá	4	Finca Santa Victoria	6	Junio	2023-06-06T00:00:00	2024-11-08T06:00:00	3	Temperatura mínima	12.6
111272	7	Sololá	701	Sololá	4	Finca Santa Victoria	6	Junio	2023-06-06T00:00:00	2024-11-08T06:00:00	5	Humedad	85
111273	7	Sololá	701	Sololá	4	Finca Santa Victoria	6	Junio	2023-06-06T00:00:00	2024-11-08T06:00:00	6	Velocidad del viento	0
111274	7	Sololá	701	Sololá	4	Finca Santa Victoria	6	Junio	2023-06-06T00:00:00	2024-11-08T06:00:00	7	Dirección del viento	0
111275	7	Sololá	701	Sololá	4	Finca Santa Victoria	6	Junio	2023-06-06T00:00:00	2024-11-08T06:00:00	1	Precipitación	0
111276	7	Sololá	701	Sololá	4	Finca Santa Victoria	6	Junio	2023-06-06T00:00:00	2024-11-08T06:00:00	8	Radiación solar	3
111277	7	Sololá	701	Sololá	4	Finca Santa Victoria	6	Junio	2023-06-06T00:00:00	2024-11-08T07:00:00	2	Temperatura media	13.7
111278	7	Sololá	701	Sololá	4	Finca Santa Victoria	6	Junio	2023-06-06T00:00:00	2024-11-08T07:00:00	4	Temperatura máxima	13.7
111279	7	Sololá	701	Sololá	4	Finca Santa Victoria	6	Junio	2023-06-06T00:00:00	2024-11-08T07:00:00	3	Temperatura mínima	12.7
111280	7	Sololá	701	Sololá	4	Finca Santa Victoria	6	Junio	2023-06-06T00:00:00	2024-11-08T07:00:00	5	Humedad	90
111281	7	Sololá	701	Sololá	4	Finca Santa Victoria	6	Junio	2023-06-06T00:00:00	2024-11-08T07:00:00	6	Velocidad del viento	0
111282	7	Sololá	701	Sololá	4	Finca Santa Victoria	6	Junio	2023-06-06T00:00:00	2024-11-08T07:00:00	7	Dirección del viento	0
111283	7	Sololá	701	Sololá	4	Finca Santa Victoria	6	Junio	2023-06-06T00:00:00	2024-11-08T07:00:00	1	Precipitación	0
111284	7	Sololá	701	Sololá	4	Finca Santa Victoria	6	Junio	2023-06-06T00:00:00	2024-11-08T07:00:00	8	Radiación solar	55
111285	7	Sololá	701	Sololá	4	Finca Santa Victoria	6	Junio	2023-06-06T00:00:00	2024-11-08T08:00:00	2	Temperatura media	16.1
111286	7	Sololá	701	Sololá	4	Finca Santa Victoria	6	Junio	2023-06-06T00:00:00	2024-11-08T08:00:00	4	Temperatura máxima	16.1
111287	7	Sololá	701	Sololá	4	Finca Santa Victoria	6	Junio	2023-06-06T00:00:00	2024-11-08T08:00:00	3	Temperatura mínima	13.7
111288	7	Sololá	701	Sololá	4	Finca Santa Victoria	6	Junio	2023-06-06T00:00:00	2024-11-08T08:00:00	5	Humedad	77
111289	7	Sololá	701	Sololá	4	Finca Santa Victoria	6	Junio	2023-06-06T00:00:00	2024-11-08T08:00:00	6	Velocidad del viento	0
111290	7	Sololá	701	Sololá	4	Finca Santa Victoria	6	Junio	2023-06-06T00:00:00	2024-11-08T08:00:00	7	Dirección del viento	0
111291	7	Sololá	701	Sololá	4	Finca Santa Victoria	6	Junio	2023-06-06T00:00:00	2024-11-08T08:00:00	1	Precipitación	0
111292	7	Sololá	701	Sololá	4	Finca Santa Victoria	6	Junio	2023-06-06T00:00:00	2024-11-08T08:00:00	8	Radiación solar	189
111293	7	Sololá	701	Sololá	4	Finca Santa Victoria	6	Junio	2023-06-06T00:00:00	2024-11-08T09:00:00	2	Temperatura media	17.5
111294	7	Sololá	701	Sololá	4	Finca Santa Victoria	6	Junio	2023-06-06T00:00:00	2024-11-08T09:00:00	4	Temperatura máxima	17.8
111295	7	Sololá	701	Sololá	4	Finca Santa Victoria	6	Junio	2023-06-06T00:00:00	2024-11-08T09:00:00	3	Temperatura mínima	16.1
111296	7	Sololá	701	Sololá	4	Finca Santa Victoria	6	Junio	2023-06-06T00:00:00	2024-11-08T09:00:00	5	Humedad	71
111297	7	Sololá	701	Sololá	4	Finca Santa Victoria	6	Junio	2023-06-06T00:00:00	2024-11-08T09:00:00	6	Velocidad del viento	1.6
111298	7	Sololá	701	Sololá	4	Finca Santa Victoria	6	Junio	2023-06-06T00:00:00	2024-11-08T09:00:00	7	Dirección del viento	1.61
111299	7	Sololá	701	Sololá	4	Finca Santa Victoria	6	Junio	2023-06-06T00:00:00	2024-11-08T09:00:00	1	Precipitación	0
111300	7	Sololá	701	Sololá	4	Finca Santa Victoria	6	Junio	2023-06-06T00:00:00	2024-11-08T09:00:00	8	Radiación solar	377
111301	7	Sololá	701	Sololá	4	Finca Santa Victoria	6	Junio	2023-06-06T00:00:00	2024-11-08T10:00:00	2	Temperatura media	18.6
111302	7	Sololá	701	Sololá	4	Finca Santa Victoria	6	Junio	2023-06-06T00:00:00	2024-11-08T10:00:00	4	Temperatura máxima	18.6
111303	7	Sololá	701	Sololá	4	Finca Santa Victoria	6	Junio	2023-06-06T00:00:00	2024-11-08T10:00:00	3	Temperatura mínima	17.5
111304	7	Sololá	701	Sololá	4	Finca Santa Victoria	6	Junio	2023-06-06T00:00:00	2024-11-08T10:00:00	5	Humedad	70
111305	7	Sololá	701	Sololá	4	Finca Santa Victoria	6	Junio	2023-06-06T00:00:00	2024-11-08T10:00:00	6	Velocidad del viento	3.2
111306	7	Sololá	701	Sololá	4	Finca Santa Victoria	6	Junio	2023-06-06T00:00:00	2024-11-08T10:00:00	7	Dirección del viento	3.22
111307	7	Sololá	701	Sololá	4	Finca Santa Victoria	6	Junio	2023-06-06T00:00:00	2024-11-08T10:00:00	1	Precipitación	0
111308	7	Sololá	701	Sololá	4	Finca Santa Victoria	6	Junio	2023-06-06T00:00:00	2024-11-08T10:00:00	8	Radiación solar	308
111309	7	Sololá	701	Sololá	4	Finca Santa Victoria	6	Junio	2023-06-06T00:00:00	2024-11-08T11:00:00	2	Temperatura media	17.6
111310	7	Sololá	701	Sololá	4	Finca Santa Victoria	6	Junio	2023-06-06T00:00:00	2024-11-08T11:00:00	4	Temperatura máxima	18.9
111311	7	Sololá	701	Sololá	4	Finca Santa Victoria	6	Junio	2023-06-06T00:00:00	2024-11-08T11:00:00	3	Temperatura mínima	17.6
111312	7	Sololá	701	Sololá	4	Finca Santa Victoria	6	Junio	2023-06-06T00:00:00	2024-11-08T11:00:00	5	Humedad	77
111313	7	Sololá	701	Sololá	4	Finca Santa Victoria	6	Junio	2023-06-06T00:00:00	2024-11-08T11:00:00	6	Velocidad del viento	3.2
111314	7	Sololá	701	Sololá	4	Finca Santa Victoria	6	Junio	2023-06-06T00:00:00	2024-11-08T11:00:00	7	Dirección del viento	3.22
111315	7	Sololá	701	Sololá	4	Finca Santa Victoria	6	Junio	2023-06-06T00:00:00	2024-11-08T11:00:00	1	Precipitación	0
111316	7	Sololá	701	Sololá	4	Finca Santa Victoria	6	Junio	2023-06-06T00:00:00	2024-11-08T11:00:00	8	Radiación solar	364
111317	7	Sololá	701	Sololá	4	Finca Santa Victoria	6	Junio	2023-06-06T00:00:00	2024-11-08T12:00:00	2	Temperatura media	17.1
111318	7	Sololá	701	Sololá	4	Finca Santa Victoria	6	Junio	2023-06-06T00:00:00	2024-11-08T12:00:00	4	Temperatura máxima	18.6
111319	7	Sololá	701	Sololá	4	Finca Santa Victoria	6	Junio	2023-06-06T00:00:00	2024-11-08T12:00:00	3	Temperatura mínima	17.1
111320	7	Sololá	701	Sololá	4	Finca Santa Victoria	6	Junio	2023-06-06T00:00:00	2024-11-08T12:00:00	5	Humedad	80
111321	7	Sololá	701	Sololá	4	Finca Santa Victoria	6	Junio	2023-06-06T00:00:00	2024-11-08T12:00:00	6	Velocidad del viento	3.2
111322	7	Sololá	701	Sololá	4	Finca Santa Victoria	6	Junio	2023-06-06T00:00:00	2024-11-08T12:00:00	7	Dirección del viento	3.22
111323	7	Sololá	701	Sololá	4	Finca Santa Victoria	6	Junio	2023-06-06T00:00:00	2024-11-08T12:00:00	1	Precipitación	0
111324	7	Sololá	701	Sololá	4	Finca Santa Victoria	6	Junio	2023-06-06T00:00:00	2024-11-08T12:00:00	8	Radiación solar	280
111325	7	Sololá	701	Sololá	4	Finca Santa Victoria	6	Junio	2023-06-06T00:00:00	2024-11-08T13:00:00	2	Temperatura media	15.2
111326	7	Sololá	701	Sololá	4	Finca Santa Victoria	6	Junio	2023-06-06T00:00:00	2024-11-08T13:00:00	4	Temperatura máxima	17.1
111327	7	Sololá	701	Sololá	4	Finca Santa Victoria	6	Junio	2023-06-06T00:00:00	2024-11-08T13:00:00	3	Temperatura mínima	15.1
111328	7	Sololá	701	Sololá	4	Finca Santa Victoria	6	Junio	2023-06-06T00:00:00	2024-11-08T13:00:00	5	Humedad	95
111329	7	Sololá	701	Sololá	4	Finca Santa Victoria	6	Junio	2023-06-06T00:00:00	2024-11-08T13:00:00	6	Velocidad del viento	1.6
111330	7	Sololá	701	Sololá	4	Finca Santa Victoria	6	Junio	2023-06-06T00:00:00	2024-11-08T13:00:00	7	Dirección del viento	1.61
111331	7	Sololá	701	Sololá	4	Finca Santa Victoria	6	Junio	2023-06-06T00:00:00	2024-11-08T13:00:00	1	Precipitación	5.4
111332	7	Sololá	701	Sololá	4	Finca Santa Victoria	6	Junio	2023-06-06T00:00:00	2024-11-08T13:00:00	8	Radiación solar	63
111333	7	Sololá	701	Sololá	4	Finca Santa Victoria	6	Junio	2023-06-06T00:00:00	2024-11-08T14:00:00	2	Temperatura media	14.8
111334	7	Sololá	701	Sololá	4	Finca Santa Victoria	6	Junio	2023-06-06T00:00:00	2024-11-08T14:00:00	4	Temperatura máxima	15.3
111335	7	Sololá	701	Sololá	4	Finca Santa Victoria	6	Junio	2023-06-06T00:00:00	2024-11-08T14:00:00	3	Temperatura mínima	14.8
111336	7	Sololá	701	Sololá	4	Finca Santa Victoria	6	Junio	2023-06-06T00:00:00	2024-11-08T14:00:00	5	Humedad	92
111337	7	Sololá	701	Sololá	4	Finca Santa Victoria	6	Junio	2023-06-06T00:00:00	2024-11-08T14:00:00	6	Velocidad del viento	1.6
111338	7	Sololá	701	Sololá	4	Finca Santa Victoria	6	Junio	2023-06-06T00:00:00	2024-11-08T14:00:00	7	Dirección del viento	1.61
111339	7	Sololá	701	Sololá	4	Finca Santa Victoria	6	Junio	2023-06-06T00:00:00	2024-11-08T14:00:00	1	Precipitación	1.2
111340	7	Sololá	701	Sololá	4	Finca Santa Victoria	6	Junio	2023-06-06T00:00:00	2024-11-08T14:00:00	8	Radiación solar	94
111341	7	Sololá	701	Sololá	4	Finca Santa Victoria	6	Junio	2023-06-06T00:00:00	2024-11-08T15:00:00	2	Temperatura media	15.6
111342	7	Sololá	701	Sololá	4	Finca Santa Victoria	6	Junio	2023-06-06T00:00:00	2024-11-08T15:00:00	4	Temperatura máxima	15.6
111343	7	Sololá	701	Sololá	4	Finca Santa Victoria	6	Junio	2023-06-06T00:00:00	2024-11-08T15:00:00	3	Temperatura mínima	14.8
111344	7	Sololá	701	Sololá	4	Finca Santa Victoria	6	Junio	2023-06-06T00:00:00	2024-11-08T15:00:00	5	Humedad	95
111345	7	Sololá	701	Sololá	4	Finca Santa Victoria	6	Junio	2023-06-06T00:00:00	2024-11-08T15:00:00	6	Velocidad del viento	1.6
111346	7	Sololá	701	Sololá	4	Finca Santa Victoria	6	Junio	2023-06-06T00:00:00	2024-11-08T15:00:00	7	Dirección del viento	1.61
111347	7	Sololá	701	Sololá	4	Finca Santa Victoria	6	Junio	2023-06-06T00:00:00	2024-11-08T15:00:00	1	Precipitación	0.2
111348	7	Sololá	701	Sololá	4	Finca Santa Victoria	6	Junio	2023-06-06T00:00:00	2024-11-08T15:00:00	8	Radiación solar	127
111349	7	Sololá	701	Sololá	4	Finca Santa Victoria	6	Junio	2023-06-06T00:00:00	2024-11-08T16:00:00	2	Temperatura media	15.6
111350	7	Sololá	701	Sololá	4	Finca Santa Victoria	6	Junio	2023-06-06T00:00:00	2024-11-08T16:00:00	4	Temperatura máxima	15.7
111351	7	Sololá	701	Sololá	4	Finca Santa Victoria	6	Junio	2023-06-06T00:00:00	2024-11-08T16:00:00	3	Temperatura mínima	15.6
111352	7	Sololá	701	Sololá	4	Finca Santa Victoria	6	Junio	2023-06-06T00:00:00	2024-11-08T16:00:00	5	Humedad	95
111353	7	Sololá	701	Sololá	4	Finca Santa Victoria	6	Junio	2023-06-06T00:00:00	2024-11-08T16:00:00	6	Velocidad del viento	0
111354	7	Sololá	701	Sololá	4	Finca Santa Victoria	6	Junio	2023-06-06T00:00:00	2024-11-08T16:00:00	7	Dirección del viento	0
111355	7	Sololá	701	Sololá	4	Finca Santa Victoria	6	Junio	2023-06-06T00:00:00	2024-11-08T16:00:00	1	Precipitación	0
111356	7	Sololá	701	Sololá	4	Finca Santa Victoria	6	Junio	2023-06-06T00:00:00	2024-11-08T16:00:00	8	Radiación solar	92
111357	7	Sololá	701	Sololá	4	Finca Santa Victoria	6	Junio	2023-06-06T00:00:00	2024-11-08T17:00:00	2	Temperatura media	16.2
111358	7	Sololá	701	Sololá	4	Finca Santa Victoria	6	Junio	2023-06-06T00:00:00	2024-11-08T17:00:00	4	Temperatura máxima	16.2
111359	7	Sololá	701	Sololá	4	Finca Santa Victoria	6	Junio	2023-06-06T00:00:00	2024-11-08T17:00:00	3	Temperatura mínima	15.6
111360	7	Sololá	701	Sololá	4	Finca Santa Victoria	6	Junio	2023-06-06T00:00:00	2024-11-08T17:00:00	5	Humedad	92
111361	7	Sololá	701	Sololá	4	Finca Santa Victoria	6	Junio	2023-06-06T00:00:00	2024-11-08T17:00:00	6	Velocidad del viento	0
111362	7	Sololá	701	Sololá	4	Finca Santa Victoria	6	Junio	2023-06-06T00:00:00	2024-11-08T17:00:00	7	Dirección del viento	0
111363	7	Sololá	701	Sololá	4	Finca Santa Victoria	6	Junio	2023-06-06T00:00:00	2024-11-08T17:00:00	1	Precipitación	0
111364	7	Sololá	701	Sololá	4	Finca Santa Victoria	6	Junio	2023-06-06T00:00:00	2024-11-08T17:00:00	8	Radiación solar	103
111365	7	Sololá	701	Sololá	4	Finca Santa Victoria	6	Junio	2023-06-06T00:00:00	2024-11-08T18:00:00	2	Temperatura media	15.5
111366	7	Sololá	701	Sololá	4	Finca Santa Victoria	6	Junio	2023-06-06T00:00:00	2024-11-08T18:00:00	4	Temperatura máxima	16.4
111367	7	Sololá	701	Sololá	4	Finca Santa Victoria	6	Junio	2023-06-06T00:00:00	2024-11-08T18:00:00	3	Temperatura mínima	15.4
111368	7	Sololá	701	Sololá	4	Finca Santa Victoria	6	Junio	2023-06-06T00:00:00	2024-11-08T18:00:00	5	Humedad	92
111369	7	Sololá	701	Sololá	4	Finca Santa Victoria	6	Junio	2023-06-06T00:00:00	2024-11-08T18:00:00	6	Velocidad del viento	0
111370	7	Sololá	701	Sololá	4	Finca Santa Victoria	6	Junio	2023-06-06T00:00:00	2024-11-08T18:00:00	7	Dirección del viento	0
111371	7	Sololá	701	Sololá	4	Finca Santa Victoria	6	Junio	2023-06-06T00:00:00	2024-11-08T18:00:00	1	Precipitación	0
111372	7	Sololá	701	Sololá	4	Finca Santa Victoria	6	Junio	2023-06-06T00:00:00	2024-11-08T18:00:00	8	Radiación solar	57
111373	7	Sololá	701	Sololá	4	Finca Santa Victoria	6	Junio	2023-06-06T00:00:00	2024-11-08T19:00:00	2	Temperatura media	14.1
111374	7	Sololá	701	Sololá	4	Finca Santa Victoria	6	Junio	2023-06-06T00:00:00	2024-11-08T19:00:00	4	Temperatura máxima	15.4
111375	7	Sololá	701	Sololá	4	Finca Santa Victoria	6	Junio	2023-06-06T00:00:00	2024-11-08T19:00:00	3	Temperatura mínima	14.1
111376	7	Sololá	701	Sololá	4	Finca Santa Victoria	6	Junio	2023-06-06T00:00:00	2024-11-08T19:00:00	5	Humedad	88
111377	7	Sololá	701	Sololá	4	Finca Santa Victoria	6	Junio	2023-06-06T00:00:00	2024-11-08T19:00:00	6	Velocidad del viento	1.6
111378	7	Sololá	701	Sololá	4	Finca Santa Victoria	6	Junio	2023-06-06T00:00:00	2024-11-08T19:00:00	7	Dirección del viento	1.61
111379	7	Sololá	701	Sololá	4	Finca Santa Victoria	6	Junio	2023-06-06T00:00:00	2024-11-08T19:00:00	1	Precipitación	0
111380	7	Sololá	701	Sololá	4	Finca Santa Victoria	6	Junio	2023-06-06T00:00:00	2024-11-08T19:00:00	8	Radiación solar	0
111381	7	Sololá	701	Sololá	4	Finca Santa Victoria	6	Junio	2023-06-06T00:00:00	2024-11-08T20:00:00	2	Temperatura media	14.5
111382	7	Sololá	701	Sololá	4	Finca Santa Victoria	6	Junio	2023-06-06T00:00:00	2024-11-08T20:00:00	4	Temperatura máxima	14.5
111383	7	Sololá	701	Sololá	4	Finca Santa Victoria	6	Junio	2023-06-06T00:00:00	2024-11-08T20:00:00	3	Temperatura mínima	14.1
111384	7	Sololá	701	Sololá	4	Finca Santa Victoria	6	Junio	2023-06-06T00:00:00	2024-11-08T20:00:00	5	Humedad	86
111385	7	Sololá	701	Sololá	4	Finca Santa Victoria	6	Junio	2023-06-06T00:00:00	2024-11-08T20:00:00	6	Velocidad del viento	3.2
111386	7	Sololá	701	Sololá	4	Finca Santa Victoria	6	Junio	2023-06-06T00:00:00	2024-11-08T20:00:00	7	Dirección del viento	3.22
111387	7	Sololá	701	Sololá	4	Finca Santa Victoria	6	Junio	2023-06-06T00:00:00	2024-11-08T20:00:00	1	Precipitación	0
111388	7	Sololá	701	Sololá	4	Finca Santa Victoria	6	Junio	2023-06-06T00:00:00	2024-11-08T20:00:00	8	Radiación solar	0
111389	7	Sololá	701	Sololá	4	Finca Santa Victoria	6	Junio	2023-06-06T00:00:00	2024-11-08T21:00:00	2	Temperatura media	14.4
111390	7	Sololá	701	Sololá	4	Finca Santa Victoria	6	Junio	2023-06-06T00:00:00	2024-11-08T21:00:00	4	Temperatura máxima	14.8
111391	7	Sololá	701	Sololá	4	Finca Santa Victoria	6	Junio	2023-06-06T00:00:00	2024-11-08T21:00:00	3	Temperatura mínima	14.2
111392	7	Sololá	701	Sololá	4	Finca Santa Victoria	6	Junio	2023-06-06T00:00:00	2024-11-08T21:00:00	5	Humedad	88
111393	7	Sololá	701	Sololá	4	Finca Santa Victoria	6	Junio	2023-06-06T00:00:00	2024-11-08T21:00:00	6	Velocidad del viento	0
111394	7	Sololá	701	Sololá	4	Finca Santa Victoria	6	Junio	2023-06-06T00:00:00	2024-11-08T21:00:00	7	Dirección del viento	0
111395	7	Sololá	701	Sololá	4	Finca Santa Victoria	6	Junio	2023-06-06T00:00:00	2024-11-08T21:00:00	1	Precipitación	0
111396	7	Sololá	701	Sololá	4	Finca Santa Victoria	6	Junio	2023-06-06T00:00:00	2024-11-08T21:00:00	8	Radiación solar	0
111397	7	Sololá	701	Sololá	4	Finca Santa Victoria	6	Junio	2023-06-06T00:00:00	2024-11-08T22:00:00	2	Temperatura media	13.8
111398	7	Sololá	701	Sololá	4	Finca Santa Victoria	6	Junio	2023-06-06T00:00:00	2024-11-08T22:00:00	4	Temperatura máxima	14.4
111399	7	Sololá	701	Sololá	4	Finca Santa Victoria	6	Junio	2023-06-06T00:00:00	2024-11-08T22:00:00	3	Temperatura mínima	13.8
111400	7	Sololá	701	Sololá	4	Finca Santa Victoria	6	Junio	2023-06-06T00:00:00	2024-11-08T22:00:00	5	Humedad	91
111401	7	Sololá	701	Sololá	4	Finca Santa Victoria	6	Junio	2023-06-06T00:00:00	2024-11-08T22:00:00	6	Velocidad del viento	0
111402	7	Sololá	701	Sololá	4	Finca Santa Victoria	6	Junio	2023-06-06T00:00:00	2024-11-08T22:00:00	7	Dirección del viento	0
111403	7	Sololá	701	Sololá	4	Finca Santa Victoria	6	Junio	2023-06-06T00:00:00	2024-11-08T22:00:00	1	Precipitación	0
111404	7	Sololá	701	Sololá	4	Finca Santa Victoria	6	Junio	2023-06-06T00:00:00	2024-11-08T22:00:00	8	Radiación solar	0
111405	7	Sololá	701	Sololá	4	Finca Santa Victoria	6	Junio	2023-06-06T00:00:00	2024-11-08T23:00:00	2	Temperatura media	13.5
111406	7	Sololá	701	Sololá	4	Finca Santa Victoria	6	Junio	2023-06-06T00:00:00	2024-11-08T23:00:00	4	Temperatura máxima	13.8
111407	7	Sololá	701	Sololá	4	Finca Santa Victoria	6	Junio	2023-06-06T00:00:00	2024-11-08T23:00:00	3	Temperatura mínima	13.4
111408	7	Sololá	701	Sololá	4	Finca Santa Victoria	6	Junio	2023-06-06T00:00:00	2024-11-08T23:00:00	5	Humedad	93
111409	7	Sololá	701	Sololá	4	Finca Santa Victoria	6	Junio	2023-06-06T00:00:00	2024-11-08T23:00:00	6	Velocidad del viento	1.6
111410	7	Sololá	701	Sololá	4	Finca Santa Victoria	6	Junio	2023-06-06T00:00:00	2024-11-08T23:00:00	7	Dirección del viento	1.61
111411	7	Sololá	701	Sololá	4	Finca Santa Victoria	6	Junio	2023-06-06T00:00:00	2024-11-08T23:00:00	1	Precipitación	0
111412	7	Sololá	701	Sololá	4	Finca Santa Victoria	6	Junio	2023-06-06T00:00:00	2024-11-08T23:00:00	8	Radiación solar	0
111413	7	Sololá	701	Sololá	4	Finca Santa Victoria	6	Junio	2023-07-06T00:00:00	2024-11-08T00:00:00	2	Temperatura media	13.6
111414	7	Sololá	701	Sololá	4	Finca Santa Victoria	6	Junio	2023-07-06T00:00:00	2024-11-08T00:00:00	4	Temperatura máxima	13.7
111415	7	Sololá	701	Sololá	4	Finca Santa Victoria	6	Junio	2023-07-06T00:00:00	2024-11-08T00:00:00	3	Temperatura mínima	13.5
111416	7	Sololá	701	Sololá	4	Finca Santa Victoria	6	Junio	2023-07-06T00:00:00	2024-11-08T00:00:00	5	Humedad	89
111417	7	Sololá	701	Sololá	4	Finca Santa Victoria	6	Junio	2023-07-06T00:00:00	2024-11-08T00:00:00	6	Velocidad del viento	1.6
111418	7	Sololá	701	Sololá	4	Finca Santa Victoria	6	Junio	2023-07-06T00:00:00	2024-11-08T00:00:00	7	Dirección del viento	1.61
111419	7	Sololá	701	Sololá	4	Finca Santa Victoria	6	Junio	2023-07-06T00:00:00	2024-11-08T00:00:00	1	Precipitación	0
111420	7	Sololá	701	Sololá	4	Finca Santa Victoria	6	Junio	2023-07-06T00:00:00	2024-11-08T00:00:00	8	Radiación solar	0
111421	7	Sololá	701	Sololá	4	Finca Santa Victoria	6	Junio	2023-07-06T00:00:00	2024-11-08T01:00:00	2	Temperatura media	13.9
111422	7	Sololá	701	Sololá	4	Finca Santa Victoria	6	Junio	2023-07-06T00:00:00	2024-11-08T01:00:00	4	Temperatura máxima	14
111423	7	Sololá	701	Sololá	4	Finca Santa Victoria	6	Junio	2023-07-06T00:00:00	2024-11-08T01:00:00	3	Temperatura mínima	13.6
111424	7	Sololá	701	Sololá	4	Finca Santa Victoria	6	Junio	2023-07-06T00:00:00	2024-11-08T01:00:00	5	Humedad	90
111425	7	Sololá	701	Sololá	4	Finca Santa Victoria	6	Junio	2023-07-06T00:00:00	2024-11-08T01:00:00	6	Velocidad del viento	0
111426	7	Sololá	701	Sololá	4	Finca Santa Victoria	6	Junio	2023-07-06T00:00:00	2024-11-08T01:00:00	7	Dirección del viento	0
111427	7	Sololá	701	Sololá	4	Finca Santa Victoria	6	Junio	2023-07-06T00:00:00	2024-11-08T01:00:00	1	Precipitación	0
111428	7	Sololá	701	Sololá	4	Finca Santa Victoria	6	Junio	2023-07-06T00:00:00	2024-11-08T01:00:00	8	Radiación solar	0
111429	7	Sololá	701	Sololá	4	Finca Santa Victoria	6	Junio	2023-07-06T00:00:00	2024-11-08T02:00:00	2	Temperatura media	13.4
111430	7	Sololá	701	Sololá	4	Finca Santa Victoria	6	Junio	2023-07-06T00:00:00	2024-11-08T02:00:00	4	Temperatura máxima	13.9
111431	7	Sololá	701	Sololá	4	Finca Santa Victoria	6	Junio	2023-07-06T00:00:00	2024-11-08T02:00:00	3	Temperatura mínima	13.4
111432	7	Sololá	701	Sololá	4	Finca Santa Victoria	6	Junio	2023-07-06T00:00:00	2024-11-08T02:00:00	5	Humedad	90
111433	7	Sololá	701	Sololá	4	Finca Santa Victoria	6	Junio	2023-07-06T00:00:00	2024-11-08T02:00:00	6	Velocidad del viento	1.6
111434	7	Sololá	701	Sololá	4	Finca Santa Victoria	6	Junio	2023-07-06T00:00:00	2024-11-08T02:00:00	7	Dirección del viento	1.61
111435	7	Sololá	701	Sololá	4	Finca Santa Victoria	6	Junio	2023-07-06T00:00:00	2024-11-08T02:00:00	1	Precipitación	0
111436	7	Sololá	701	Sololá	4	Finca Santa Victoria	6	Junio	2023-07-06T00:00:00	2024-11-08T02:00:00	8	Radiación solar	0
111437	7	Sololá	701	Sololá	4	Finca Santa Victoria	6	Junio	2023-07-06T00:00:00	2024-11-08T03:00:00	2	Temperatura media	12.2
111438	7	Sololá	701	Sololá	4	Finca Santa Victoria	6	Junio	2023-07-06T00:00:00	2024-11-08T03:00:00	4	Temperatura máxima	13.4
111439	7	Sololá	701	Sololá	4	Finca Santa Victoria	6	Junio	2023-07-06T00:00:00	2024-11-08T03:00:00	3	Temperatura mínima	12.2
111440	7	Sololá	701	Sololá	4	Finca Santa Victoria	6	Junio	2023-07-06T00:00:00	2024-11-08T03:00:00	5	Humedad	94
111441	7	Sololá	701	Sololá	4	Finca Santa Victoria	6	Junio	2023-07-06T00:00:00	2024-11-08T03:00:00	6	Velocidad del viento	0
111442	7	Sololá	701	Sololá	4	Finca Santa Victoria	6	Junio	2023-07-06T00:00:00	2024-11-08T03:00:00	7	Dirección del viento	0
111443	7	Sololá	701	Sololá	4	Finca Santa Victoria	6	Junio	2023-07-06T00:00:00	2024-11-08T03:00:00	1	Precipitación	0
111444	7	Sololá	701	Sololá	4	Finca Santa Victoria	6	Junio	2023-07-06T00:00:00	2024-11-08T03:00:00	8	Radiación solar	0
111445	7	Sololá	701	Sololá	4	Finca Santa Victoria	6	Junio	2023-07-06T00:00:00	2024-11-08T04:00:00	2	Temperatura media	12.3
111446	7	Sololá	701	Sololá	4	Finca Santa Victoria	6	Junio	2023-07-06T00:00:00	2024-11-08T04:00:00	4	Temperatura máxima	12.6
111447	7	Sololá	701	Sololá	4	Finca Santa Victoria	6	Junio	2023-07-06T00:00:00	2024-11-08T04:00:00	3	Temperatura mínima	12.1
111448	7	Sololá	701	Sololá	4	Finca Santa Victoria	6	Junio	2023-07-06T00:00:00	2024-11-08T04:00:00	5	Humedad	95
111449	7	Sololá	701	Sololá	4	Finca Santa Victoria	6	Junio	2023-07-06T00:00:00	2024-11-08T04:00:00	6	Velocidad del viento	0
111450	7	Sololá	701	Sololá	4	Finca Santa Victoria	6	Junio	2023-07-06T00:00:00	2024-11-08T04:00:00	7	Dirección del viento	0
111451	7	Sololá	701	Sololá	4	Finca Santa Victoria	6	Junio	2023-07-06T00:00:00	2024-11-08T04:00:00	1	Precipitación	0
111452	7	Sololá	701	Sololá	4	Finca Santa Victoria	6	Junio	2023-07-06T00:00:00	2024-11-08T04:00:00	8	Radiación solar	0
111453	7	Sololá	701	Sololá	4	Finca Santa Victoria	6	Junio	2023-07-06T00:00:00	2024-11-08T05:00:00	2	Temperatura media	12.4
111454	7	Sololá	701	Sololá	4	Finca Santa Victoria	6	Junio	2023-07-06T00:00:00	2024-11-08T05:00:00	4	Temperatura máxima	12.5
111455	7	Sololá	701	Sololá	4	Finca Santa Victoria	6	Junio	2023-07-06T00:00:00	2024-11-08T05:00:00	3	Temperatura mínima	12.2
111456	7	Sololá	701	Sololá	4	Finca Santa Victoria	6	Junio	2023-07-06T00:00:00	2024-11-08T05:00:00	5	Humedad	94
111457	7	Sololá	701	Sololá	4	Finca Santa Victoria	6	Junio	2023-07-06T00:00:00	2024-11-08T05:00:00	6	Velocidad del viento	1.6
111458	7	Sololá	701	Sololá	4	Finca Santa Victoria	6	Junio	2023-07-06T00:00:00	2024-11-08T05:00:00	7	Dirección del viento	1.61
111459	7	Sololá	701	Sololá	4	Finca Santa Victoria	6	Junio	2023-07-06T00:00:00	2024-11-08T05:00:00	1	Precipitación	0
111460	7	Sololá	701	Sololá	4	Finca Santa Victoria	6	Junio	2023-07-06T00:00:00	2024-11-08T05:00:00	8	Radiación solar	0
111461	7	Sololá	701	Sololá	4	Finca Santa Victoria	6	Junio	2023-07-06T00:00:00	2024-11-08T06:00:00	2	Temperatura media	12.6
111462	7	Sololá	701	Sololá	4	Finca Santa Victoria	6	Junio	2023-07-06T00:00:00	2024-11-08T06:00:00	4	Temperatura máxima	12.6
111463	7	Sololá	701	Sololá	4	Finca Santa Victoria	6	Junio	2023-07-06T00:00:00	2024-11-08T06:00:00	3	Temperatura mínima	12.1
111464	7	Sololá	701	Sololá	4	Finca Santa Victoria	6	Junio	2023-07-06T00:00:00	2024-11-08T06:00:00	5	Humedad	93
111465	7	Sololá	701	Sololá	4	Finca Santa Victoria	6	Junio	2023-07-06T00:00:00	2024-11-08T06:00:00	6	Velocidad del viento	0
111466	7	Sololá	701	Sololá	4	Finca Santa Victoria	6	Junio	2023-07-06T00:00:00	2024-11-08T06:00:00	7	Dirección del viento	0
111467	7	Sololá	701	Sololá	4	Finca Santa Victoria	6	Junio	2023-07-06T00:00:00	2024-11-08T06:00:00	1	Precipitación	0
111468	7	Sololá	701	Sololá	4	Finca Santa Victoria	6	Junio	2023-07-06T00:00:00	2024-11-08T06:00:00	8	Radiación solar	3
111469	7	Sololá	701	Sololá	4	Finca Santa Victoria	6	Junio	2023-07-06T00:00:00	2024-11-08T07:00:00	2	Temperatura media	13.8
111470	7	Sololá	701	Sololá	4	Finca Santa Victoria	6	Junio	2023-07-06T00:00:00	2024-11-08T07:00:00	4	Temperatura máxima	13.8
111471	7	Sololá	701	Sololá	4	Finca Santa Victoria	6	Junio	2023-07-06T00:00:00	2024-11-08T07:00:00	3	Temperatura mínima	12.6
111472	7	Sololá	701	Sololá	4	Finca Santa Victoria	6	Junio	2023-07-06T00:00:00	2024-11-08T07:00:00	5	Humedad	92
111473	7	Sololá	701	Sololá	4	Finca Santa Victoria	6	Junio	2023-07-06T00:00:00	2024-11-08T07:00:00	6	Velocidad del viento	0
111474	7	Sololá	701	Sololá	4	Finca Santa Victoria	6	Junio	2023-07-06T00:00:00	2024-11-08T07:00:00	7	Dirección del viento	0
111475	7	Sololá	701	Sololá	4	Finca Santa Victoria	6	Junio	2023-07-06T00:00:00	2024-11-08T07:00:00	1	Precipitación	0
111476	7	Sololá	701	Sololá	4	Finca Santa Victoria	6	Junio	2023-07-06T00:00:00	2024-11-08T07:00:00	8	Radiación solar	57
111477	7	Sololá	701	Sololá	4	Finca Santa Victoria	6	Junio	2023-07-06T00:00:00	2024-11-08T08:00:00	2	Temperatura media	14.8
111478	7	Sololá	701	Sololá	4	Finca Santa Victoria	6	Junio	2023-07-06T00:00:00	2024-11-08T08:00:00	4	Temperatura máxima	14.9
111479	7	Sololá	701	Sololá	4	Finca Santa Victoria	6	Junio	2023-07-06T00:00:00	2024-11-08T08:00:00	3	Temperatura mínima	13.8
111480	7	Sololá	701	Sololá	4	Finca Santa Victoria	6	Junio	2023-07-06T00:00:00	2024-11-08T08:00:00	5	Humedad	90
111481	7	Sololá	701	Sololá	4	Finca Santa Victoria	6	Junio	2023-07-06T00:00:00	2024-11-08T08:00:00	6	Velocidad del viento	0
111482	7	Sololá	701	Sololá	4	Finca Santa Victoria	6	Junio	2023-07-06T00:00:00	2024-11-08T08:00:00	7	Dirección del viento	0
111483	7	Sololá	701	Sololá	4	Finca Santa Victoria	6	Junio	2023-07-06T00:00:00	2024-11-08T08:00:00	1	Precipitación	0
111484	7	Sololá	701	Sololá	4	Finca Santa Victoria	6	Junio	2023-07-06T00:00:00	2024-11-08T08:00:00	8	Radiación solar	138
111485	7	Sololá	701	Sololá	4	Finca Santa Victoria	6	Junio	2023-07-06T00:00:00	2024-11-08T09:00:00	2	Temperatura media	16.4
111486	7	Sololá	701	Sololá	4	Finca Santa Victoria	6	Junio	2023-07-06T00:00:00	2024-11-08T09:00:00	4	Temperatura máxima	16.8
111487	7	Sololá	701	Sololá	4	Finca Santa Victoria	6	Junio	2023-07-06T00:00:00	2024-11-08T09:00:00	3	Temperatura mínima	14.8
111488	7	Sololá	701	Sololá	4	Finca Santa Victoria	6	Junio	2023-07-06T00:00:00	2024-11-08T09:00:00	5	Humedad	89
111489	7	Sololá	701	Sololá	4	Finca Santa Victoria	6	Junio	2023-07-06T00:00:00	2024-11-08T09:00:00	6	Velocidad del viento	1.6
111490	7	Sololá	701	Sololá	4	Finca Santa Victoria	6	Junio	2023-07-06T00:00:00	2024-11-08T09:00:00	7	Dirección del viento	1.61
111491	7	Sololá	701	Sololá	4	Finca Santa Victoria	6	Junio	2023-07-06T00:00:00	2024-11-08T09:00:00	1	Precipitación	0
111492	7	Sololá	701	Sololá	4	Finca Santa Victoria	6	Junio	2023-07-06T00:00:00	2024-11-08T09:00:00	8	Radiación solar	384
111493	7	Sololá	701	Sololá	4	Finca Santa Victoria	6	Junio	2023-07-06T00:00:00	2024-11-08T10:00:00	2	Temperatura media	18.3
111494	7	Sololá	701	Sololá	4	Finca Santa Victoria	6	Junio	2023-07-06T00:00:00	2024-11-08T10:00:00	4	Temperatura máxima	18.3
111495	7	Sololá	701	Sololá	4	Finca Santa Victoria	6	Junio	2023-07-06T00:00:00	2024-11-08T10:00:00	3	Temperatura mínima	16.3
111496	7	Sololá	701	Sololá	4	Finca Santa Victoria	6	Junio	2023-07-06T00:00:00	2024-11-08T10:00:00	5	Humedad	83
111497	7	Sololá	701	Sololá	4	Finca Santa Victoria	6	Junio	2023-07-06T00:00:00	2024-11-08T10:00:00	6	Velocidad del viento	1.6
111498	7	Sololá	701	Sololá	4	Finca Santa Victoria	6	Junio	2023-07-06T00:00:00	2024-11-08T10:00:00	7	Dirección del viento	1.61
111499	7	Sololá	701	Sololá	4	Finca Santa Victoria	6	Junio	2023-07-06T00:00:00	2024-11-08T10:00:00	1	Precipitación	0
111500	7	Sololá	701	Sololá	4	Finca Santa Victoria	6	Junio	2023-07-06T00:00:00	2024-11-08T10:00:00	8	Radiación solar	293
111501	7	Sololá	701	Sololá	4	Finca Santa Victoria	6	Junio	2023-07-06T00:00:00	2024-11-08T11:00:00	2	Temperatura media	19.6
111502	7	Sololá	701	Sololá	4	Finca Santa Victoria	6	Junio	2023-07-06T00:00:00	2024-11-08T11:00:00	4	Temperatura máxima	19.6
111503	7	Sololá	701	Sololá	4	Finca Santa Victoria	6	Junio	2023-07-06T00:00:00	2024-11-08T11:00:00	3	Temperatura mínima	17.7
111504	7	Sololá	701	Sololá	4	Finca Santa Victoria	6	Junio	2023-07-06T00:00:00	2024-11-08T11:00:00	5	Humedad	77
111505	7	Sololá	701	Sololá	4	Finca Santa Victoria	6	Junio	2023-07-06T00:00:00	2024-11-08T11:00:00	6	Velocidad del viento	3.2
111506	7	Sololá	701	Sololá	4	Finca Santa Victoria	6	Junio	2023-07-06T00:00:00	2024-11-08T11:00:00	7	Dirección del viento	3.22
111507	7	Sololá	701	Sololá	4	Finca Santa Victoria	6	Junio	2023-07-06T00:00:00	2024-11-08T11:00:00	1	Precipitación	0
111508	7	Sololá	701	Sololá	4	Finca Santa Victoria	6	Junio	2023-07-06T00:00:00	2024-11-08T11:00:00	8	Radiación solar	369
111509	7	Sololá	701	Sololá	4	Finca Santa Victoria	6	Junio	2023-07-06T00:00:00	2024-11-08T12:00:00	2	Temperatura media	18
111510	7	Sololá	701	Sololá	4	Finca Santa Victoria	6	Junio	2023-07-06T00:00:00	2024-11-08T12:00:00	4	Temperatura máxima	19.6
111511	7	Sololá	701	Sololá	4	Finca Santa Victoria	6	Junio	2023-07-06T00:00:00	2024-11-08T12:00:00	3	Temperatura mínima	17.9
111512	7	Sololá	701	Sololá	4	Finca Santa Victoria	6	Junio	2023-07-06T00:00:00	2024-11-08T12:00:00	5	Humedad	90
111513	7	Sololá	701	Sololá	4	Finca Santa Victoria	6	Junio	2023-07-06T00:00:00	2024-11-08T12:00:00	6	Velocidad del viento	3.2
111514	7	Sololá	701	Sololá	4	Finca Santa Victoria	6	Junio	2023-07-06T00:00:00	2024-11-08T12:00:00	7	Dirección del viento	3.22
111515	7	Sololá	701	Sololá	4	Finca Santa Victoria	6	Junio	2023-07-06T00:00:00	2024-11-08T12:00:00	1	Precipitación	0
111516	7	Sololá	701	Sololá	4	Finca Santa Victoria	6	Junio	2023-07-06T00:00:00	2024-11-08T12:00:00	8	Radiación solar	351
111517	7	Sololá	701	Sololá	4	Finca Santa Victoria	6	Junio	2023-07-06T00:00:00	2024-11-08T13:00:00	2	Temperatura media	17.7
111518	7	Sololá	701	Sololá	4	Finca Santa Victoria	6	Junio	2023-07-06T00:00:00	2024-11-08T13:00:00	4	Temperatura máxima	20.1
111519	7	Sololá	701	Sololá	4	Finca Santa Victoria	6	Junio	2023-07-06T00:00:00	2024-11-08T13:00:00	3	Temperatura mínima	17.7
111520	7	Sololá	701	Sololá	4	Finca Santa Victoria	6	Junio	2023-07-06T00:00:00	2024-11-08T13:00:00	5	Humedad	89
111521	7	Sololá	701	Sololá	4	Finca Santa Victoria	6	Junio	2023-07-06T00:00:00	2024-11-08T13:00:00	6	Velocidad del viento	3.2
111522	7	Sololá	701	Sololá	4	Finca Santa Victoria	6	Junio	2023-07-06T00:00:00	2024-11-08T13:00:00	7	Dirección del viento	3.22
111523	7	Sololá	701	Sololá	4	Finca Santa Victoria	6	Junio	2023-07-06T00:00:00	2024-11-08T13:00:00	1	Precipitación	0
111524	7	Sololá	701	Sololá	4	Finca Santa Victoria	6	Junio	2023-07-06T00:00:00	2024-11-08T13:00:00	8	Radiación solar	172
111525	7	Sololá	701	Sololá	4	Finca Santa Victoria	6	Junio	2023-07-06T00:00:00	2024-11-08T14:00:00	2	Temperatura media	16.3
111526	7	Sololá	701	Sololá	4	Finca Santa Victoria	6	Junio	2023-07-06T00:00:00	2024-11-08T14:00:00	4	Temperatura máxima	17.7
111527	7	Sololá	701	Sololá	4	Finca Santa Victoria	6	Junio	2023-07-06T00:00:00	2024-11-08T14:00:00	3	Temperatura mínima	16.2
111528	7	Sololá	701	Sololá	4	Finca Santa Victoria	6	Junio	2023-07-06T00:00:00	2024-11-08T14:00:00	5	Humedad	95
111529	7	Sololá	701	Sololá	4	Finca Santa Victoria	6	Junio	2023-07-06T00:00:00	2024-11-08T14:00:00	6	Velocidad del viento	3.2
111530	7	Sololá	701	Sololá	4	Finca Santa Victoria	6	Junio	2023-07-06T00:00:00	2024-11-08T14:00:00	7	Dirección del viento	3.22
111531	7	Sololá	701	Sololá	4	Finca Santa Victoria	6	Junio	2023-07-06T00:00:00	2024-11-08T14:00:00	1	Precipitación	0
111532	7	Sololá	701	Sololá	4	Finca Santa Victoria	6	Junio	2023-07-06T00:00:00	2024-11-08T14:00:00	8	Radiación solar	138
111533	7	Sololá	701	Sololá	4	Finca Santa Victoria	6	Junio	2023-07-06T00:00:00	2024-11-08T15:00:00	2	Temperatura media	16.4
111534	7	Sololá	701	Sololá	4	Finca Santa Victoria	6	Junio	2023-07-06T00:00:00	2024-11-08T15:00:00	4	Temperatura máxima	16.7
111535	7	Sololá	701	Sololá	4	Finca Santa Victoria	6	Junio	2023-07-06T00:00:00	2024-11-08T15:00:00	3	Temperatura mínima	15.9
111536	7	Sololá	701	Sololá	4	Finca Santa Victoria	6	Junio	2023-07-06T00:00:00	2024-11-08T15:00:00	5	Humedad	95
111537	7	Sololá	701	Sololá	4	Finca Santa Victoria	6	Junio	2023-07-06T00:00:00	2024-11-08T15:00:00	6	Velocidad del viento	3.2
111538	7	Sololá	701	Sololá	4	Finca Santa Victoria	6	Junio	2023-07-06T00:00:00	2024-11-08T15:00:00	7	Dirección del viento	3.22
111539	7	Sololá	701	Sololá	4	Finca Santa Victoria	6	Junio	2023-07-06T00:00:00	2024-11-08T15:00:00	1	Precipitación	0
111540	7	Sololá	701	Sololá	4	Finca Santa Victoria	6	Junio	2023-07-06T00:00:00	2024-11-08T15:00:00	8	Radiación solar	105
111541	7	Sololá	701	Sololá	4	Finca Santa Victoria	6	Junio	2023-07-06T00:00:00	2024-11-08T16:00:00	2	Temperatura media	16.2
111542	7	Sololá	701	Sololá	4	Finca Santa Victoria	6	Junio	2023-07-06T00:00:00	2024-11-08T16:00:00	4	Temperatura máxima	16.4
111543	7	Sololá	701	Sololá	4	Finca Santa Victoria	6	Junio	2023-07-06T00:00:00	2024-11-08T16:00:00	3	Temperatura mínima	16.1
111544	7	Sololá	701	Sololá	4	Finca Santa Victoria	6	Junio	2023-07-06T00:00:00	2024-11-08T16:00:00	5	Humedad	96
111545	7	Sololá	701	Sololá	4	Finca Santa Victoria	6	Junio	2023-07-06T00:00:00	2024-11-08T16:00:00	6	Velocidad del viento	1.6
111546	7	Sololá	701	Sololá	4	Finca Santa Victoria	6	Junio	2023-07-06T00:00:00	2024-11-08T16:00:00	7	Dirección del viento	1.61
111547	7	Sololá	701	Sololá	4	Finca Santa Victoria	6	Junio	2023-07-06T00:00:00	2024-11-08T16:00:00	1	Precipitación	0
111548	7	Sololá	701	Sololá	4	Finca Santa Victoria	6	Junio	2023-07-06T00:00:00	2024-11-08T16:00:00	8	Radiación solar	87
111549	7	Sololá	701	Sololá	4	Finca Santa Victoria	6	Junio	2023-07-06T00:00:00	2024-11-08T17:00:00	2	Temperatura media	16.3
111550	7	Sololá	701	Sololá	4	Finca Santa Victoria	6	Junio	2023-07-06T00:00:00	2024-11-08T17:00:00	4	Temperatura máxima	16.4
111551	7	Sololá	701	Sololá	4	Finca Santa Victoria	6	Junio	2023-07-06T00:00:00	2024-11-08T17:00:00	3	Temperatura mínima	16
111552	7	Sololá	701	Sololá	4	Finca Santa Victoria	6	Junio	2023-07-06T00:00:00	2024-11-08T17:00:00	5	Humedad	95
111553	7	Sololá	701	Sololá	4	Finca Santa Victoria	6	Junio	2023-07-06T00:00:00	2024-11-08T17:00:00	6	Velocidad del viento	1.6
111554	7	Sololá	701	Sololá	4	Finca Santa Victoria	6	Junio	2023-07-06T00:00:00	2024-11-08T17:00:00	7	Dirección del viento	1.61
111555	7	Sololá	701	Sololá	4	Finca Santa Victoria	6	Junio	2023-07-06T00:00:00	2024-11-08T17:00:00	1	Precipitación	0
111556	7	Sololá	701	Sololá	4	Finca Santa Victoria	6	Junio	2023-07-06T00:00:00	2024-11-08T17:00:00	8	Radiación solar	77
111557	7	Sololá	701	Sololá	4	Finca Santa Victoria	6	Junio	2023-07-06T00:00:00	2024-11-08T18:00:00	2	Temperatura media	15.4
111558	7	Sololá	701	Sololá	4	Finca Santa Victoria	6	Junio	2023-07-06T00:00:00	2024-11-08T18:00:00	4	Temperatura máxima	16.3
111559	7	Sololá	701	Sololá	4	Finca Santa Victoria	6	Junio	2023-07-06T00:00:00	2024-11-08T18:00:00	3	Temperatura mínima	15.4
111560	7	Sololá	701	Sololá	4	Finca Santa Victoria	6	Junio	2023-07-06T00:00:00	2024-11-08T18:00:00	5	Humedad	97
111561	7	Sololá	701	Sololá	4	Finca Santa Victoria	6	Junio	2023-07-06T00:00:00	2024-11-08T18:00:00	6	Velocidad del viento	1.6
111562	7	Sololá	701	Sololá	4	Finca Santa Victoria	6	Junio	2023-07-06T00:00:00	2024-11-08T18:00:00	7	Dirección del viento	1.61
111563	7	Sololá	701	Sololá	4	Finca Santa Victoria	6	Junio	2023-07-06T00:00:00	2024-11-08T18:00:00	1	Precipitación	0
111564	7	Sololá	701	Sololá	4	Finca Santa Victoria	6	Junio	2023-07-06T00:00:00	2024-11-08T18:00:00	8	Radiación solar	9
111565	7	Sololá	701	Sololá	4	Finca Santa Victoria	6	Junio	2023-07-06T00:00:00	2024-11-08T19:00:00	2	Temperatura media	15.1
111566	7	Sololá	701	Sololá	4	Finca Santa Victoria	6	Junio	2023-07-06T00:00:00	2024-11-08T19:00:00	4	Temperatura máxima	15.5
111567	7	Sololá	701	Sololá	4	Finca Santa Victoria	6	Junio	2023-07-06T00:00:00	2024-11-08T19:00:00	3	Temperatura mínima	15.1
111568	7	Sololá	701	Sololá	4	Finca Santa Victoria	6	Junio	2023-07-06T00:00:00	2024-11-08T19:00:00	5	Humedad	97
111569	7	Sololá	701	Sololá	4	Finca Santa Victoria	6	Junio	2023-07-06T00:00:00	2024-11-08T19:00:00	6	Velocidad del viento	0
111570	7	Sololá	701	Sololá	4	Finca Santa Victoria	6	Junio	2023-07-06T00:00:00	2024-11-08T19:00:00	7	Dirección del viento	0
111571	7	Sololá	701	Sololá	4	Finca Santa Victoria	6	Junio	2023-07-06T00:00:00	2024-11-08T19:00:00	1	Precipitación	0
111572	7	Sololá	701	Sololá	4	Finca Santa Victoria	6	Junio	2023-07-06T00:00:00	2024-11-08T19:00:00	8	Radiación solar	0
111573	7	Sololá	701	Sololá	4	Finca Santa Victoria	6	Junio	2023-07-06T00:00:00	2024-11-08T20:00:00	2	Temperatura media	15.2
111574	7	Sololá	701	Sololá	4	Finca Santa Victoria	6	Junio	2023-07-06T00:00:00	2024-11-08T20:00:00	4	Temperatura máxima	15.3
111575	7	Sololá	701	Sololá	4	Finca Santa Victoria	6	Junio	2023-07-06T00:00:00	2024-11-08T20:00:00	3	Temperatura mínima	15.1
111576	7	Sololá	701	Sololá	4	Finca Santa Victoria	6	Junio	2023-07-06T00:00:00	2024-11-08T20:00:00	5	Humedad	98
111577	7	Sololá	701	Sololá	4	Finca Santa Victoria	6	Junio	2023-07-06T00:00:00	2024-11-08T20:00:00	6	Velocidad del viento	0
111578	7	Sololá	701	Sololá	4	Finca Santa Victoria	6	Junio	2023-07-06T00:00:00	2024-11-08T20:00:00	7	Dirección del viento	0
111579	7	Sololá	701	Sololá	4	Finca Santa Victoria	6	Junio	2023-07-06T00:00:00	2024-11-08T20:00:00	1	Precipitación	0
111580	7	Sololá	701	Sololá	4	Finca Santa Victoria	6	Junio	2023-07-06T00:00:00	2024-11-08T20:00:00	8	Radiación solar	0
111581	7	Sololá	701	Sololá	4	Finca Santa Victoria	6	Junio	2023-07-06T00:00:00	2024-11-08T21:00:00	2	Temperatura media	15.1
111582	7	Sololá	701	Sololá	4	Finca Santa Victoria	6	Junio	2023-07-06T00:00:00	2024-11-08T21:00:00	4	Temperatura máxima	15.2
111583	7	Sololá	701	Sololá	4	Finca Santa Victoria	6	Junio	2023-07-06T00:00:00	2024-11-08T21:00:00	3	Temperatura mínima	15.1
111584	7	Sololá	701	Sololá	4	Finca Santa Victoria	6	Junio	2023-07-06T00:00:00	2024-11-08T21:00:00	5	Humedad	98
111585	7	Sololá	701	Sololá	4	Finca Santa Victoria	6	Junio	2023-07-06T00:00:00	2024-11-08T21:00:00	6	Velocidad del viento	0
111586	7	Sololá	701	Sololá	4	Finca Santa Victoria	6	Junio	2023-07-06T00:00:00	2024-11-08T21:00:00	7	Dirección del viento	0
111587	7	Sololá	701	Sololá	4	Finca Santa Victoria	6	Junio	2023-07-06T00:00:00	2024-11-08T21:00:00	1	Precipitación	0
111588	7	Sololá	701	Sololá	4	Finca Santa Victoria	6	Junio	2023-07-06T00:00:00	2024-11-08T21:00:00	8	Radiación solar	0
111589	7	Sololá	701	Sololá	4	Finca Santa Victoria	6	Junio	2023-07-06T00:00:00	2024-11-08T22:00:00	2	Temperatura media	14.9
111590	7	Sololá	701	Sololá	4	Finca Santa Victoria	6	Junio	2023-07-06T00:00:00	2024-11-08T22:00:00	4	Temperatura máxima	15.1
111591	7	Sololá	701	Sololá	4	Finca Santa Victoria	6	Junio	2023-07-06T00:00:00	2024-11-08T22:00:00	3	Temperatura mínima	14.9
111592	7	Sololá	701	Sololá	4	Finca Santa Victoria	6	Junio	2023-07-06T00:00:00	2024-11-08T22:00:00	5	Humedad	98
111593	7	Sololá	701	Sololá	4	Finca Santa Victoria	6	Junio	2023-07-06T00:00:00	2024-11-08T22:00:00	6	Velocidad del viento	0
111594	7	Sololá	701	Sololá	4	Finca Santa Victoria	6	Junio	2023-07-06T00:00:00	2024-11-08T22:00:00	7	Dirección del viento	0
111595	7	Sololá	701	Sololá	4	Finca Santa Victoria	6	Junio	2023-07-06T00:00:00	2024-11-08T22:00:00	1	Precipitación	0
111596	7	Sololá	701	Sololá	4	Finca Santa Victoria	6	Junio	2023-07-06T00:00:00	2024-11-08T22:00:00	8	Radiación solar	0
111597	7	Sololá	701	Sololá	4	Finca Santa Victoria	6	Junio	2023-07-06T00:00:00	2024-11-08T23:00:00	2	Temperatura media	14.8
111598	7	Sololá	701	Sololá	4	Finca Santa Victoria	6	Junio	2023-07-06T00:00:00	2024-11-08T23:00:00	4	Temperatura máxima	14.9
111599	7	Sololá	701	Sololá	4	Finca Santa Victoria	6	Junio	2023-07-06T00:00:00	2024-11-08T23:00:00	3	Temperatura mínima	14.8
111600	7	Sololá	701	Sololá	4	Finca Santa Victoria	6	Junio	2023-07-06T00:00:00	2024-11-08T23:00:00	5	Humedad	98
111601	7	Sololá	701	Sololá	4	Finca Santa Victoria	6	Junio	2023-07-06T00:00:00	2024-11-08T23:00:00	6	Velocidad del viento	0
111602	7	Sololá	701	Sololá	4	Finca Santa Victoria	6	Junio	2023-07-06T00:00:00	2024-11-08T23:00:00	7	Dirección del viento	0
111603	7	Sololá	701	Sololá	4	Finca Santa Victoria	6	Junio	2023-07-06T00:00:00	2024-11-08T23:00:00	1	Precipitación	0
111604	7	Sololá	701	Sololá	4	Finca Santa Victoria	6	Junio	2023-07-06T00:00:00	2024-11-08T23:00:00	8	Radiación solar	0
111605	7	Sololá	701	Sololá	4	Finca Santa Victoria	6	Junio	2023-08-06T00:00:00	2024-11-08T00:00:00	2	Temperatura media	14.8
111606	7	Sololá	701	Sololá	4	Finca Santa Victoria	6	Junio	2023-08-06T00:00:00	2024-11-08T00:00:00	4	Temperatura máxima	14.9
111607	7	Sololá	701	Sololá	4	Finca Santa Victoria	6	Junio	2023-08-06T00:00:00	2024-11-08T00:00:00	3	Temperatura mínima	14.7
111608	7	Sololá	701	Sololá	4	Finca Santa Victoria	6	Junio	2023-08-06T00:00:00	2024-11-08T00:00:00	5	Humedad	98
111609	7	Sololá	701	Sololá	4	Finca Santa Victoria	6	Junio	2023-08-06T00:00:00	2024-11-08T00:00:00	6	Velocidad del viento	0
111610	7	Sololá	701	Sololá	4	Finca Santa Victoria	6	Junio	2023-08-06T00:00:00	2024-11-08T00:00:00	7	Dirección del viento	0
111611	7	Sololá	701	Sololá	4	Finca Santa Victoria	6	Junio	2023-08-06T00:00:00	2024-11-08T00:00:00	1	Precipitación	0
111612	7	Sololá	701	Sololá	4	Finca Santa Victoria	6	Junio	2023-08-06T00:00:00	2024-11-08T00:00:00	8	Radiación solar	0
111613	7	Sololá	701	Sololá	4	Finca Santa Victoria	6	Junio	2023-08-06T00:00:00	2024-11-08T01:00:00	2	Temperatura media	14.5
111614	7	Sololá	701	Sololá	4	Finca Santa Victoria	6	Junio	2023-08-06T00:00:00	2024-11-08T01:00:00	4	Temperatura máxima	14.8
111615	7	Sololá	701	Sololá	4	Finca Santa Victoria	6	Junio	2023-08-06T00:00:00	2024-11-08T01:00:00	3	Temperatura mínima	14.4
111616	7	Sololá	701	Sololá	4	Finca Santa Victoria	6	Junio	2023-08-06T00:00:00	2024-11-08T01:00:00	5	Humedad	98
111617	7	Sololá	701	Sololá	4	Finca Santa Victoria	6	Junio	2023-08-06T00:00:00	2024-11-08T01:00:00	6	Velocidad del viento	0
111618	7	Sololá	701	Sololá	4	Finca Santa Victoria	6	Junio	2023-08-06T00:00:00	2024-11-08T01:00:00	7	Dirección del viento	0
111619	7	Sololá	701	Sololá	4	Finca Santa Victoria	6	Junio	2023-08-06T00:00:00	2024-11-08T01:00:00	1	Precipitación	0
111620	7	Sololá	701	Sololá	4	Finca Santa Victoria	6	Junio	2023-08-06T00:00:00	2024-11-08T01:00:00	8	Radiación solar	0
111621	7	Sololá	701	Sololá	4	Finca Santa Victoria	6	Junio	2023-08-06T00:00:00	2024-11-08T02:00:00	2	Temperatura media	13.8
111622	7	Sololá	701	Sololá	4	Finca Santa Victoria	6	Junio	2023-08-06T00:00:00	2024-11-08T02:00:00	4	Temperatura máxima	14.5
111623	7	Sololá	701	Sololá	4	Finca Santa Victoria	6	Junio	2023-08-06T00:00:00	2024-11-08T02:00:00	3	Temperatura mínima	13.8
111624	7	Sololá	701	Sololá	4	Finca Santa Victoria	6	Junio	2023-08-06T00:00:00	2024-11-08T02:00:00	5	Humedad	98
111625	7	Sololá	701	Sololá	4	Finca Santa Victoria	6	Junio	2023-08-06T00:00:00	2024-11-08T02:00:00	6	Velocidad del viento	0
111626	7	Sololá	701	Sololá	4	Finca Santa Victoria	6	Junio	2023-08-06T00:00:00	2024-11-08T02:00:00	7	Dirección del viento	0
111627	7	Sololá	701	Sololá	4	Finca Santa Victoria	6	Junio	2023-08-06T00:00:00	2024-11-08T02:00:00	1	Precipitación	0
111628	7	Sololá	701	Sololá	4	Finca Santa Victoria	6	Junio	2023-08-06T00:00:00	2024-11-08T02:00:00	8	Radiación solar	0
111629	7	Sololá	701	Sololá	4	Finca Santa Victoria	6	Junio	2023-08-06T00:00:00	2024-11-08T03:00:00	2	Temperatura media	13.7
111630	7	Sololá	701	Sololá	4	Finca Santa Victoria	6	Junio	2023-08-06T00:00:00	2024-11-08T03:00:00	4	Temperatura máxima	13.8
111631	7	Sololá	701	Sololá	4	Finca Santa Victoria	6	Junio	2023-08-06T00:00:00	2024-11-08T03:00:00	3	Temperatura mínima	13.6
111632	7	Sololá	701	Sololá	4	Finca Santa Victoria	6	Junio	2023-08-06T00:00:00	2024-11-08T03:00:00	5	Humedad	98
111633	7	Sololá	701	Sololá	4	Finca Santa Victoria	6	Junio	2023-08-06T00:00:00	2024-11-08T03:00:00	6	Velocidad del viento	0
111634	7	Sololá	701	Sololá	4	Finca Santa Victoria	6	Junio	2023-08-06T00:00:00	2024-11-08T03:00:00	7	Dirección del viento	0
111635	7	Sololá	701	Sololá	4	Finca Santa Victoria	6	Junio	2023-08-06T00:00:00	2024-11-08T03:00:00	1	Precipitación	0
111636	7	Sololá	701	Sololá	4	Finca Santa Victoria	6	Junio	2023-08-06T00:00:00	2024-11-08T03:00:00	8	Radiación solar	0
111637	7	Sololá	701	Sololá	4	Finca Santa Victoria	6	Junio	2023-08-06T00:00:00	2024-11-08T04:00:00	2	Temperatura media	13.1
111638	7	Sololá	701	Sololá	4	Finca Santa Victoria	6	Junio	2023-08-06T00:00:00	2024-11-08T04:00:00	4	Temperatura máxima	13.7
111639	7	Sololá	701	Sololá	4	Finca Santa Victoria	6	Junio	2023-08-06T00:00:00	2024-11-08T04:00:00	3	Temperatura mínima	13
111640	7	Sololá	701	Sololá	4	Finca Santa Victoria	6	Junio	2023-08-06T00:00:00	2024-11-08T04:00:00	5	Humedad	98
111641	7	Sololá	701	Sololá	4	Finca Santa Victoria	6	Junio	2023-08-06T00:00:00	2024-11-08T04:00:00	6	Velocidad del viento	0
111642	7	Sololá	701	Sololá	4	Finca Santa Victoria	6	Junio	2023-08-06T00:00:00	2024-11-08T04:00:00	7	Dirección del viento	0
111643	7	Sololá	701	Sololá	4	Finca Santa Victoria	6	Junio	2023-08-06T00:00:00	2024-11-08T04:00:00	1	Precipitación	0
111644	7	Sololá	701	Sololá	4	Finca Santa Victoria	6	Junio	2023-08-06T00:00:00	2024-11-08T04:00:00	8	Radiación solar	0
111645	7	Sololá	701	Sololá	4	Finca Santa Victoria	6	Junio	2023-08-06T00:00:00	2024-11-08T05:00:00	2	Temperatura media	12.6
111646	7	Sololá	701	Sololá	4	Finca Santa Victoria	6	Junio	2023-08-06T00:00:00	2024-11-08T05:00:00	4	Temperatura máxima	13
111647	7	Sololá	701	Sololá	4	Finca Santa Victoria	6	Junio	2023-08-06T00:00:00	2024-11-08T05:00:00	3	Temperatura mínima	12.6
111648	7	Sololá	701	Sololá	4	Finca Santa Victoria	6	Junio	2023-08-06T00:00:00	2024-11-08T05:00:00	5	Humedad	98
111649	7	Sololá	701	Sololá	4	Finca Santa Victoria	6	Junio	2023-08-06T00:00:00	2024-11-08T05:00:00	6	Velocidad del viento	1.6
111650	7	Sololá	701	Sololá	4	Finca Santa Victoria	6	Junio	2023-08-06T00:00:00	2024-11-08T05:00:00	7	Dirección del viento	1.61
111651	7	Sololá	701	Sololá	4	Finca Santa Victoria	6	Junio	2023-08-06T00:00:00	2024-11-08T05:00:00	1	Precipitación	0
111652	7	Sololá	701	Sololá	4	Finca Santa Victoria	6	Junio	2023-08-06T00:00:00	2024-11-08T05:00:00	8	Radiación solar	0
111653	7	Sololá	701	Sololá	4	Finca Santa Victoria	6	Junio	2023-08-06T00:00:00	2024-11-08T06:00:00	2	Temperatura media	12.6
111654	7	Sololá	701	Sololá	4	Finca Santa Victoria	6	Junio	2023-08-06T00:00:00	2024-11-08T06:00:00	4	Temperatura máxima	12.7
111655	7	Sololá	701	Sololá	4	Finca Santa Victoria	6	Junio	2023-08-06T00:00:00	2024-11-08T06:00:00	3	Temperatura mínima	12.4
111656	7	Sololá	701	Sololá	4	Finca Santa Victoria	6	Junio	2023-08-06T00:00:00	2024-11-08T06:00:00	5	Humedad	98
111657	7	Sololá	701	Sololá	4	Finca Santa Victoria	6	Junio	2023-08-06T00:00:00	2024-11-08T06:00:00	6	Velocidad del viento	1.6
111658	7	Sololá	701	Sololá	4	Finca Santa Victoria	6	Junio	2023-08-06T00:00:00	2024-11-08T06:00:00	7	Dirección del viento	1.61
111659	7	Sololá	701	Sololá	4	Finca Santa Victoria	6	Junio	2023-08-06T00:00:00	2024-11-08T06:00:00	1	Precipitación	0
111660	7	Sololá	701	Sololá	4	Finca Santa Victoria	6	Junio	2023-08-06T00:00:00	2024-11-08T06:00:00	8	Radiación solar	3
111661	7	Sololá	701	Sololá	4	Finca Santa Victoria	6	Junio	2023-08-06T00:00:00	2024-11-08T07:00:00	2	Temperatura media	13.1
111662	7	Sololá	701	Sololá	4	Finca Santa Victoria	6	Junio	2023-08-06T00:00:00	2024-11-08T07:00:00	4	Temperatura máxima	13.1
111663	7	Sololá	701	Sololá	4	Finca Santa Victoria	6	Junio	2023-08-06T00:00:00	2024-11-08T07:00:00	3	Temperatura mínima	12.5
111664	7	Sololá	701	Sololá	4	Finca Santa Victoria	6	Junio	2023-08-06T00:00:00	2024-11-08T07:00:00	5	Humedad	96
111665	7	Sololá	701	Sololá	4	Finca Santa Victoria	6	Junio	2023-08-06T00:00:00	2024-11-08T07:00:00	6	Velocidad del viento	1.6
111666	7	Sololá	701	Sololá	4	Finca Santa Victoria	6	Junio	2023-08-06T00:00:00	2024-11-08T07:00:00	7	Dirección del viento	1.61
111667	7	Sololá	701	Sololá	4	Finca Santa Victoria	6	Junio	2023-08-06T00:00:00	2024-11-08T07:00:00	1	Precipitación	0
111668	7	Sololá	701	Sololá	4	Finca Santa Victoria	6	Junio	2023-08-06T00:00:00	2024-11-08T07:00:00	8	Radiación solar	46
111669	7	Sololá	701	Sololá	4	Finca Santa Victoria	6	Junio	2023-08-06T00:00:00	2024-11-08T08:00:00	2	Temperatura media	16.7
111670	7	Sololá	701	Sololá	4	Finca Santa Victoria	6	Junio	2023-08-06T00:00:00	2024-11-08T08:00:00	4	Temperatura máxima	16.7
111671	7	Sololá	701	Sololá	4	Finca Santa Victoria	6	Junio	2023-08-06T00:00:00	2024-11-08T08:00:00	3	Temperatura mínima	13.1
111672	7	Sololá	701	Sololá	4	Finca Santa Victoria	6	Junio	2023-08-06T00:00:00	2024-11-08T08:00:00	5	Humedad	83
111673	7	Sololá	701	Sololá	4	Finca Santa Victoria	6	Junio	2023-08-06T00:00:00	2024-11-08T08:00:00	6	Velocidad del viento	0
111674	7	Sololá	701	Sololá	4	Finca Santa Victoria	6	Junio	2023-08-06T00:00:00	2024-11-08T08:00:00	7	Dirección del viento	0
111675	7	Sololá	701	Sololá	4	Finca Santa Victoria	6	Junio	2023-08-06T00:00:00	2024-11-08T08:00:00	1	Precipitación	0
111676	7	Sololá	701	Sololá	4	Finca Santa Victoria	6	Junio	2023-08-06T00:00:00	2024-11-08T08:00:00	8	Radiación solar	214
111677	7	Sololá	701	Sololá	4	Finca Santa Victoria	6	Junio	2023-08-06T00:00:00	2024-11-08T09:00:00	2	Temperatura media	18
111678	7	Sololá	701	Sololá	4	Finca Santa Victoria	6	Junio	2023-08-06T00:00:00	2024-11-08T09:00:00	4	Temperatura máxima	18
111679	7	Sololá	701	Sololá	4	Finca Santa Victoria	6	Junio	2023-08-06T00:00:00	2024-11-08T09:00:00	3	Temperatura mínima	16.7
111680	7	Sololá	701	Sololá	4	Finca Santa Victoria	6	Junio	2023-08-06T00:00:00	2024-11-08T09:00:00	5	Humedad	84
111681	7	Sololá	701	Sololá	4	Finca Santa Victoria	6	Junio	2023-08-06T00:00:00	2024-11-08T09:00:00	6	Velocidad del viento	1.6
111682	7	Sololá	701	Sololá	4	Finca Santa Victoria	6	Junio	2023-08-06T00:00:00	2024-11-08T09:00:00	7	Dirección del viento	1.61
111683	7	Sololá	701	Sololá	4	Finca Santa Victoria	6	Junio	2023-08-06T00:00:00	2024-11-08T09:00:00	1	Precipitación	0
111684	7	Sololá	701	Sololá	4	Finca Santa Victoria	6	Junio	2023-08-06T00:00:00	2024-11-08T09:00:00	8	Radiación solar	395
111685	7	Sololá	701	Sololá	4	Finca Santa Victoria	6	Junio	2023-08-06T00:00:00	2024-11-08T10:00:00	2	Temperatura media	19.6
111686	7	Sololá	701	Sololá	4	Finca Santa Victoria	6	Junio	2023-08-06T00:00:00	2024-11-08T10:00:00	4	Temperatura máxima	19.6
111687	7	Sololá	701	Sololá	4	Finca Santa Victoria	6	Junio	2023-08-06T00:00:00	2024-11-08T10:00:00	3	Temperatura mínima	18
111688	7	Sololá	701	Sololá	4	Finca Santa Victoria	6	Junio	2023-08-06T00:00:00	2024-11-08T10:00:00	5	Humedad	80
111689	7	Sololá	701	Sololá	4	Finca Santa Victoria	6	Junio	2023-08-06T00:00:00	2024-11-08T10:00:00	6	Velocidad del viento	3.2
111690	7	Sololá	701	Sololá	4	Finca Santa Victoria	6	Junio	2023-08-06T00:00:00	2024-11-08T10:00:00	7	Dirección del viento	3.22
111691	7	Sololá	701	Sololá	4	Finca Santa Victoria	6	Junio	2023-08-06T00:00:00	2024-11-08T10:00:00	1	Precipitación	0
111692	7	Sololá	701	Sololá	4	Finca Santa Victoria	6	Junio	2023-08-06T00:00:00	2024-11-08T10:00:00	8	Radiación solar	277
111693	7	Sololá	701	Sololá	4	Finca Santa Victoria	6	Junio	2023-08-06T00:00:00	2024-11-08T11:00:00	2	Temperatura media	19.6
111694	7	Sololá	701	Sololá	4	Finca Santa Victoria	6	Junio	2023-08-06T00:00:00	2024-11-08T11:00:00	4	Temperatura máxima	19.7
111695	7	Sololá	701	Sololá	4	Finca Santa Victoria	6	Junio	2023-08-06T00:00:00	2024-11-08T11:00:00	3	Temperatura mínima	19.3
111696	7	Sololá	701	Sololá	4	Finca Santa Victoria	6	Junio	2023-08-06T00:00:00	2024-11-08T11:00:00	5	Humedad	73
111697	7	Sololá	701	Sololá	4	Finca Santa Victoria	6	Junio	2023-08-06T00:00:00	2024-11-08T11:00:00	6	Velocidad del viento	4.8
111698	7	Sololá	701	Sololá	4	Finca Santa Victoria	6	Junio	2023-08-06T00:00:00	2024-11-08T11:00:00	7	Dirección del viento	4.83
111699	7	Sololá	701	Sololá	4	Finca Santa Victoria	6	Junio	2023-08-06T00:00:00	2024-11-08T11:00:00	1	Precipitación	0
111700	7	Sololá	701	Sololá	4	Finca Santa Victoria	6	Junio	2023-08-06T00:00:00	2024-11-08T11:00:00	8	Radiación solar	471
111701	7	Sololá	701	Sololá	4	Finca Santa Victoria	6	Junio	2023-08-06T00:00:00	2024-11-08T12:00:00	2	Temperatura media	19.9
111702	7	Sololá	701	Sololá	4	Finca Santa Victoria	6	Junio	2023-08-06T00:00:00	2024-11-08T12:00:00	4	Temperatura máxima	19.9
111703	7	Sololá	701	Sololá	4	Finca Santa Victoria	6	Junio	2023-08-06T00:00:00	2024-11-08T12:00:00	3	Temperatura mínima	19.3
111704	7	Sololá	701	Sololá	4	Finca Santa Victoria	6	Junio	2023-08-06T00:00:00	2024-11-08T12:00:00	5	Humedad	77
111705	7	Sololá	701	Sololá	4	Finca Santa Victoria	6	Junio	2023-08-06T00:00:00	2024-11-08T12:00:00	6	Velocidad del viento	4.8
111706	7	Sololá	701	Sololá	4	Finca Santa Victoria	6	Junio	2023-08-06T00:00:00	2024-11-08T12:00:00	7	Dirección del viento	4.83
111707	7	Sololá	701	Sololá	4	Finca Santa Victoria	6	Junio	2023-08-06T00:00:00	2024-11-08T12:00:00	1	Precipitación	0
111708	7	Sololá	701	Sololá	4	Finca Santa Victoria	6	Junio	2023-08-06T00:00:00	2024-11-08T12:00:00	8	Radiación solar	874
111709	7	Sololá	701	Sololá	4	Finca Santa Victoria	6	Junio	2023-08-06T00:00:00	2024-11-08T13:00:00	2	Temperatura media	20.2
111710	7	Sololá	701	Sololá	4	Finca Santa Victoria	6	Junio	2023-08-06T00:00:00	2024-11-08T13:00:00	4	Temperatura máxima	20.4
111711	7	Sololá	701	Sololá	4	Finca Santa Victoria	6	Junio	2023-08-06T00:00:00	2024-11-08T13:00:00	3	Temperatura mínima	19.6
111712	7	Sololá	701	Sololá	4	Finca Santa Victoria	6	Junio	2023-08-06T00:00:00	2024-11-08T13:00:00	5	Humedad	80
111713	7	Sololá	701	Sololá	4	Finca Santa Victoria	6	Junio	2023-08-06T00:00:00	2024-11-08T13:00:00	6	Velocidad del viento	4.8
111714	7	Sololá	701	Sololá	4	Finca Santa Victoria	6	Junio	2023-08-06T00:00:00	2024-11-08T13:00:00	7	Dirección del viento	4.83
111715	7	Sololá	701	Sololá	4	Finca Santa Victoria	6	Junio	2023-08-06T00:00:00	2024-11-08T13:00:00	1	Precipitación	0
111716	7	Sololá	701	Sololá	4	Finca Santa Victoria	6	Junio	2023-08-06T00:00:00	2024-11-08T13:00:00	8	Radiación solar	911
111717	7	Sololá	701	Sololá	4	Finca Santa Victoria	6	Junio	2023-08-06T00:00:00	2024-11-08T14:00:00	2	Temperatura media	17.9
111718	7	Sololá	701	Sololá	4	Finca Santa Victoria	6	Junio	2023-08-06T00:00:00	2024-11-08T14:00:00	4	Temperatura máxima	20.2
111719	7	Sololá	701	Sololá	4	Finca Santa Victoria	6	Junio	2023-08-06T00:00:00	2024-11-08T14:00:00	3	Temperatura mínima	17.9
111720	7	Sololá	701	Sololá	4	Finca Santa Victoria	6	Junio	2023-08-06T00:00:00	2024-11-08T14:00:00	5	Humedad	90
111721	7	Sololá	701	Sololá	4	Finca Santa Victoria	6	Junio	2023-08-06T00:00:00	2024-11-08T14:00:00	6	Velocidad del viento	4.8
111722	7	Sololá	701	Sololá	4	Finca Santa Victoria	6	Junio	2023-08-06T00:00:00	2024-11-08T14:00:00	7	Dirección del viento	4.83
111723	7	Sololá	701	Sololá	4	Finca Santa Victoria	6	Junio	2023-08-06T00:00:00	2024-11-08T14:00:00	1	Precipitación	0
111724	7	Sololá	701	Sololá	4	Finca Santa Victoria	6	Junio	2023-08-06T00:00:00	2024-11-08T14:00:00	8	Radiación solar	291
111725	7	Sololá	701	Sololá	4	Finca Santa Victoria	6	Junio	2023-08-06T00:00:00	2024-11-08T15:00:00	2	Temperatura media	17.7
111726	7	Sololá	701	Sololá	4	Finca Santa Victoria	6	Junio	2023-08-06T00:00:00	2024-11-08T15:00:00	4	Temperatura máxima	18
111727	7	Sololá	701	Sololá	4	Finca Santa Victoria	6	Junio	2023-08-06T00:00:00	2024-11-08T15:00:00	3	Temperatura mínima	17.4
111728	7	Sololá	701	Sololá	4	Finca Santa Victoria	6	Junio	2023-08-06T00:00:00	2024-11-08T15:00:00	5	Humedad	92
111729	7	Sololá	701	Sololá	4	Finca Santa Victoria	6	Junio	2023-08-06T00:00:00	2024-11-08T15:00:00	6	Velocidad del viento	3.2
111730	7	Sololá	701	Sololá	4	Finca Santa Victoria	6	Junio	2023-08-06T00:00:00	2024-11-08T15:00:00	7	Dirección del viento	3.22
111731	7	Sololá	701	Sololá	4	Finca Santa Victoria	6	Junio	2023-08-06T00:00:00	2024-11-08T15:00:00	1	Precipitación	0
111732	7	Sololá	701	Sololá	4	Finca Santa Victoria	6	Junio	2023-08-06T00:00:00	2024-11-08T15:00:00	8	Radiación solar	156
111733	7	Sololá	701	Sololá	4	Finca Santa Victoria	6	Junio	2023-08-06T00:00:00	2024-11-08T16:00:00	2	Temperatura media	17.1
111734	7	Sololá	701	Sololá	4	Finca Santa Victoria	6	Junio	2023-08-06T00:00:00	2024-11-08T16:00:00	4	Temperatura máxima	17.7
111735	7	Sololá	701	Sololá	4	Finca Santa Victoria	6	Junio	2023-08-06T00:00:00	2024-11-08T16:00:00	3	Temperatura mínima	16.7
111736	7	Sololá	701	Sololá	4	Finca Santa Victoria	6	Junio	2023-08-06T00:00:00	2024-11-08T16:00:00	5	Humedad	95
111737	7	Sololá	701	Sololá	4	Finca Santa Victoria	6	Junio	2023-08-06T00:00:00	2024-11-08T16:00:00	6	Velocidad del viento	3.2
111738	7	Sololá	701	Sololá	4	Finca Santa Victoria	6	Junio	2023-08-06T00:00:00	2024-11-08T16:00:00	7	Dirección del viento	3.22
111739	7	Sololá	701	Sololá	4	Finca Santa Victoria	6	Junio	2023-08-06T00:00:00	2024-11-08T16:00:00	1	Precipitación	0
111740	7	Sololá	701	Sololá	4	Finca Santa Victoria	6	Junio	2023-08-06T00:00:00	2024-11-08T16:00:00	8	Radiación solar	79
111741	7	Sololá	701	Sololá	4	Finca Santa Victoria	6	Junio	2023-08-06T00:00:00	2024-11-08T17:00:00	2	Temperatura media	17
111742	7	Sololá	701	Sololá	4	Finca Santa Victoria	6	Junio	2023-08-06T00:00:00	2024-11-08T17:00:00	4	Temperatura máxima	17.2
111743	7	Sololá	701	Sololá	4	Finca Santa Victoria	6	Junio	2023-08-06T00:00:00	2024-11-08T17:00:00	3	Temperatura mínima	16.8
111744	7	Sololá	701	Sololá	4	Finca Santa Victoria	6	Junio	2023-08-06T00:00:00	2024-11-08T17:00:00	5	Humedad	94
111745	7	Sololá	701	Sololá	4	Finca Santa Victoria	6	Junio	2023-08-06T00:00:00	2024-11-08T17:00:00	6	Velocidad del viento	1.6
111746	7	Sololá	701	Sololá	4	Finca Santa Victoria	6	Junio	2023-08-06T00:00:00	2024-11-08T17:00:00	7	Dirección del viento	1.61
111747	7	Sololá	701	Sololá	4	Finca Santa Victoria	6	Junio	2023-08-06T00:00:00	2024-11-08T17:00:00	1	Precipitación	0
111748	7	Sololá	701	Sololá	4	Finca Santa Victoria	6	Junio	2023-08-06T00:00:00	2024-11-08T17:00:00	8	Radiación solar	64
111749	7	Sololá	701	Sololá	4	Finca Santa Victoria	6	Junio	2023-08-06T00:00:00	2024-11-08T18:00:00	2	Temperatura media	16.4
111750	7	Sololá	701	Sololá	4	Finca Santa Victoria	6	Junio	2023-08-06T00:00:00	2024-11-08T18:00:00	4	Temperatura máxima	17.3
111751	7	Sololá	701	Sololá	4	Finca Santa Victoria	6	Junio	2023-08-06T00:00:00	2024-11-08T18:00:00	3	Temperatura mínima	16.4
111752	7	Sololá	701	Sololá	4	Finca Santa Victoria	6	Junio	2023-08-06T00:00:00	2024-11-08T18:00:00	5	Humedad	96
111753	7	Sololá	701	Sololá	4	Finca Santa Victoria	6	Junio	2023-08-06T00:00:00	2024-11-08T18:00:00	6	Velocidad del viento	1.6
111754	7	Sololá	701	Sololá	4	Finca Santa Victoria	6	Junio	2023-08-06T00:00:00	2024-11-08T18:00:00	7	Dirección del viento	1.61
111755	7	Sololá	701	Sololá	4	Finca Santa Victoria	6	Junio	2023-08-06T00:00:00	2024-11-08T18:00:00	1	Precipitación	0
111756	7	Sololá	701	Sololá	4	Finca Santa Victoria	6	Junio	2023-08-06T00:00:00	2024-11-08T18:00:00	8	Radiación solar	41
111757	7	Sololá	701	Sololá	4	Finca Santa Victoria	6	Junio	2023-08-06T00:00:00	2024-11-08T19:00:00	2	Temperatura media	15.8
111758	7	Sololá	701	Sololá	4	Finca Santa Victoria	6	Junio	2023-08-06T00:00:00	2024-11-08T19:00:00	4	Temperatura máxima	16.4
111759	7	Sololá	701	Sololá	4	Finca Santa Victoria	6	Junio	2023-08-06T00:00:00	2024-11-08T19:00:00	3	Temperatura mínima	15.8
111760	7	Sololá	701	Sololá	4	Finca Santa Victoria	6	Junio	2023-08-06T00:00:00	2024-11-08T19:00:00	5	Humedad	96
111761	7	Sololá	701	Sololá	4	Finca Santa Victoria	6	Junio	2023-08-06T00:00:00	2024-11-08T19:00:00	6	Velocidad del viento	1.6
111762	7	Sololá	701	Sololá	4	Finca Santa Victoria	6	Junio	2023-08-06T00:00:00	2024-11-08T19:00:00	7	Dirección del viento	1.61
111763	7	Sololá	701	Sololá	4	Finca Santa Victoria	6	Junio	2023-08-06T00:00:00	2024-11-08T19:00:00	1	Precipitación	7.4
111764	7	Sololá	701	Sololá	4	Finca Santa Victoria	6	Junio	2023-08-06T00:00:00	2024-11-08T19:00:00	8	Radiación solar	0
111765	7	Sololá	701	Sololá	4	Finca Santa Victoria	6	Junio	2023-08-06T00:00:00	2024-11-08T20:00:00	2	Temperatura media	15.4
111766	7	Sololá	701	Sololá	4	Finca Santa Victoria	6	Junio	2023-08-06T00:00:00	2024-11-08T20:00:00	4	Temperatura máxima	15.8
111767	7	Sololá	701	Sololá	4	Finca Santa Victoria	6	Junio	2023-08-06T00:00:00	2024-11-08T20:00:00	3	Temperatura mínima	15.2
111768	7	Sololá	701	Sololá	4	Finca Santa Victoria	6	Junio	2023-08-06T00:00:00	2024-11-08T20:00:00	5	Humedad	98
111769	7	Sololá	701	Sololá	4	Finca Santa Victoria	6	Junio	2023-08-06T00:00:00	2024-11-08T20:00:00	6	Velocidad del viento	0
111770	7	Sololá	701	Sololá	4	Finca Santa Victoria	6	Junio	2023-08-06T00:00:00	2024-11-08T20:00:00	7	Dirección del viento	0
111771	7	Sololá	701	Sololá	4	Finca Santa Victoria	6	Junio	2023-08-06T00:00:00	2024-11-08T20:00:00	1	Precipitación	0.2
111772	7	Sololá	701	Sololá	4	Finca Santa Victoria	6	Junio	2023-08-06T00:00:00	2024-11-08T20:00:00	8	Radiación solar	0
111773	7	Sololá	701	Sololá	4	Finca Santa Victoria	6	Junio	2023-08-06T00:00:00	2024-11-08T21:00:00	2	Temperatura media	15.3
111774	7	Sololá	701	Sololá	4	Finca Santa Victoria	6	Junio	2023-08-06T00:00:00	2024-11-08T21:00:00	4	Temperatura máxima	15.5
111775	7	Sololá	701	Sololá	4	Finca Santa Victoria	6	Junio	2023-08-06T00:00:00	2024-11-08T21:00:00	3	Temperatura mínima	15.2
111776	7	Sololá	701	Sololá	4	Finca Santa Victoria	6	Junio	2023-08-06T00:00:00	2024-11-08T21:00:00	5	Humedad	98
111777	7	Sololá	701	Sololá	4	Finca Santa Victoria	6	Junio	2023-08-06T00:00:00	2024-11-08T21:00:00	6	Velocidad del viento	0
111778	7	Sololá	701	Sololá	4	Finca Santa Victoria	6	Junio	2023-08-06T00:00:00	2024-11-08T21:00:00	7	Dirección del viento	0
111779	7	Sololá	701	Sololá	4	Finca Santa Victoria	6	Junio	2023-08-06T00:00:00	2024-11-08T21:00:00	1	Precipitación	0
111780	7	Sololá	701	Sololá	4	Finca Santa Victoria	6	Junio	2023-08-06T00:00:00	2024-11-08T21:00:00	8	Radiación solar	0
111781	7	Sololá	701	Sololá	4	Finca Santa Victoria	6	Junio	2023-08-06T00:00:00	2024-11-08T22:00:00	2	Temperatura media	15.3
111782	7	Sololá	701	Sololá	4	Finca Santa Victoria	6	Junio	2023-08-06T00:00:00	2024-11-08T22:00:00	4	Temperatura máxima	15.5
111783	7	Sololá	701	Sololá	4	Finca Santa Victoria	6	Junio	2023-08-06T00:00:00	2024-11-08T22:00:00	3	Temperatura mínima	15.3
111784	7	Sololá	701	Sololá	4	Finca Santa Victoria	6	Junio	2023-08-06T00:00:00	2024-11-08T22:00:00	5	Humedad	98
111785	7	Sololá	701	Sololá	4	Finca Santa Victoria	6	Junio	2023-08-06T00:00:00	2024-11-08T22:00:00	6	Velocidad del viento	1.6
111786	7	Sololá	701	Sololá	4	Finca Santa Victoria	6	Junio	2023-08-06T00:00:00	2024-11-08T22:00:00	7	Dirección del viento	1.61
111787	7	Sololá	701	Sololá	4	Finca Santa Victoria	6	Junio	2023-08-06T00:00:00	2024-11-08T22:00:00	1	Precipitación	0
111788	7	Sololá	701	Sololá	4	Finca Santa Victoria	6	Junio	2023-08-06T00:00:00	2024-11-08T22:00:00	8	Radiación solar	0
111789	7	Sololá	701	Sololá	4	Finca Santa Victoria	6	Junio	2023-08-06T00:00:00	2024-11-08T23:00:00	2	Temperatura media	14.3
111790	7	Sololá	701	Sololá	4	Finca Santa Victoria	6	Junio	2023-08-06T00:00:00	2024-11-08T23:00:00	4	Temperatura máxima	15.3
111791	7	Sololá	701	Sololá	4	Finca Santa Victoria	6	Junio	2023-08-06T00:00:00	2024-11-08T23:00:00	3	Temperatura mínima	14.3
111792	7	Sololá	701	Sololá	4	Finca Santa Victoria	6	Junio	2023-08-06T00:00:00	2024-11-08T23:00:00	5	Humedad	97
111793	7	Sololá	701	Sololá	4	Finca Santa Victoria	6	Junio	2023-08-06T00:00:00	2024-11-08T23:00:00	6	Velocidad del viento	0
111794	7	Sololá	701	Sololá	4	Finca Santa Victoria	6	Junio	2023-08-06T00:00:00	2024-11-08T23:00:00	7	Dirección del viento	0
111795	7	Sololá	701	Sololá	4	Finca Santa Victoria	6	Junio	2023-08-06T00:00:00	2024-11-08T23:00:00	1	Precipitación	0
111796	7	Sololá	701	Sololá	4	Finca Santa Victoria	6	Junio	2023-08-06T00:00:00	2024-11-08T23:00:00	8	Radiación solar	0
111797	7	Sololá	701	Sololá	4	Finca Santa Victoria	6	Junio	2023-09-06T00:00:00	2024-11-08T00:00:00	2	Temperatura media	14.1
111798	7	Sololá	701	Sololá	4	Finca Santa Victoria	6	Junio	2023-09-06T00:00:00	2024-11-08T00:00:00	4	Temperatura máxima	14.3
111799	7	Sololá	701	Sololá	4	Finca Santa Victoria	6	Junio	2023-09-06T00:00:00	2024-11-08T00:00:00	3	Temperatura mínima	14.1
111800	7	Sololá	701	Sololá	4	Finca Santa Victoria	6	Junio	2023-09-06T00:00:00	2024-11-08T00:00:00	5	Humedad	97
111801	7	Sololá	701	Sololá	4	Finca Santa Victoria	6	Junio	2023-09-06T00:00:00	2024-11-08T00:00:00	6	Velocidad del viento	1.6
111802	7	Sololá	701	Sololá	4	Finca Santa Victoria	6	Junio	2023-09-06T00:00:00	2024-11-08T00:00:00	7	Dirección del viento	1.61
111803	7	Sololá	701	Sololá	4	Finca Santa Victoria	6	Junio	2023-09-06T00:00:00	2024-11-08T00:00:00	1	Precipitación	0
111804	7	Sololá	701	Sololá	4	Finca Santa Victoria	6	Junio	2023-09-06T00:00:00	2024-11-08T00:00:00	8	Radiación solar	0
111805	7	Sololá	701	Sololá	4	Finca Santa Victoria	6	Junio	2023-09-06T00:00:00	2024-11-08T01:00:00	2	Temperatura media	14
111806	7	Sololá	701	Sololá	4	Finca Santa Victoria	6	Junio	2023-09-06T00:00:00	2024-11-08T01:00:00	4	Temperatura máxima	14.1
111807	7	Sololá	701	Sololá	4	Finca Santa Victoria	6	Junio	2023-09-06T00:00:00	2024-11-08T01:00:00	3	Temperatura mínima	13.9
111808	7	Sololá	701	Sololá	4	Finca Santa Victoria	6	Junio	2023-09-06T00:00:00	2024-11-08T01:00:00	5	Humedad	96
111809	7	Sololá	701	Sololá	4	Finca Santa Victoria	6	Junio	2023-09-06T00:00:00	2024-11-08T01:00:00	6	Velocidad del viento	0
111810	7	Sololá	701	Sololá	4	Finca Santa Victoria	6	Junio	2023-09-06T00:00:00	2024-11-08T01:00:00	7	Dirección del viento	0
111811	7	Sololá	701	Sololá	4	Finca Santa Victoria	6	Junio	2023-09-06T00:00:00	2024-11-08T01:00:00	1	Precipitación	0
111812	7	Sololá	701	Sololá	4	Finca Santa Victoria	6	Junio	2023-09-06T00:00:00	2024-11-08T01:00:00	8	Radiación solar	0
111813	7	Sololá	701	Sololá	4	Finca Santa Victoria	6	Junio	2023-09-06T00:00:00	2024-11-08T02:00:00	2	Temperatura media	13.7
111814	7	Sololá	701	Sololá	4	Finca Santa Victoria	6	Junio	2023-09-06T00:00:00	2024-11-08T02:00:00	4	Temperatura máxima	14.2
111815	7	Sololá	701	Sololá	4	Finca Santa Victoria	6	Junio	2023-09-06T00:00:00	2024-11-08T02:00:00	3	Temperatura mínima	13.7
111816	7	Sololá	701	Sololá	4	Finca Santa Victoria	6	Junio	2023-09-06T00:00:00	2024-11-08T02:00:00	5	Humedad	96
111817	7	Sololá	701	Sololá	4	Finca Santa Victoria	6	Junio	2023-09-06T00:00:00	2024-11-08T02:00:00	6	Velocidad del viento	0
111818	7	Sololá	701	Sololá	4	Finca Santa Victoria	6	Junio	2023-09-06T00:00:00	2024-11-08T02:00:00	7	Dirección del viento	0
111819	7	Sololá	701	Sololá	4	Finca Santa Victoria	6	Junio	2023-09-06T00:00:00	2024-11-08T02:00:00	1	Precipitación	0
111820	7	Sololá	701	Sololá	4	Finca Santa Victoria	6	Junio	2023-09-06T00:00:00	2024-11-08T02:00:00	8	Radiación solar	0
111821	7	Sololá	701	Sololá	4	Finca Santa Victoria	6	Junio	2023-09-06T00:00:00	2024-11-08T03:00:00	2	Temperatura media	13.5
111822	7	Sololá	701	Sololá	4	Finca Santa Victoria	6	Junio	2023-09-06T00:00:00	2024-11-08T03:00:00	4	Temperatura máxima	13.9
111823	7	Sololá	701	Sololá	4	Finca Santa Victoria	6	Junio	2023-09-06T00:00:00	2024-11-08T03:00:00	3	Temperatura mínima	13.5
111824	7	Sololá	701	Sololá	4	Finca Santa Victoria	6	Junio	2023-09-06T00:00:00	2024-11-08T03:00:00	5	Humedad	96
111825	7	Sololá	701	Sololá	4	Finca Santa Victoria	6	Junio	2023-09-06T00:00:00	2024-11-08T03:00:00	6	Velocidad del viento	1.6
111826	7	Sololá	701	Sololá	4	Finca Santa Victoria	6	Junio	2023-09-06T00:00:00	2024-11-08T03:00:00	7	Dirección del viento	1.61
111827	7	Sololá	701	Sololá	4	Finca Santa Victoria	6	Junio	2023-09-06T00:00:00	2024-11-08T03:00:00	1	Precipitación	0
111828	7	Sololá	701	Sololá	4	Finca Santa Victoria	6	Junio	2023-09-06T00:00:00	2024-11-08T03:00:00	8	Radiación solar	0
111829	7	Sololá	701	Sololá	4	Finca Santa Victoria	6	Junio	2023-09-06T00:00:00	2024-11-08T04:00:00	2	Temperatura media	13.6
111830	7	Sololá	701	Sololá	4	Finca Santa Victoria	6	Junio	2023-09-06T00:00:00	2024-11-08T04:00:00	4	Temperatura máxima	13.6
111831	7	Sololá	701	Sololá	4	Finca Santa Victoria	6	Junio	2023-09-06T00:00:00	2024-11-08T04:00:00	3	Temperatura mínima	13.2
111832	7	Sololá	701	Sololá	4	Finca Santa Victoria	6	Junio	2023-09-06T00:00:00	2024-11-08T04:00:00	5	Humedad	93
111833	7	Sololá	701	Sololá	4	Finca Santa Victoria	6	Junio	2023-09-06T00:00:00	2024-11-08T04:00:00	6	Velocidad del viento	1.6
111834	7	Sololá	701	Sololá	4	Finca Santa Victoria	6	Junio	2023-09-06T00:00:00	2024-11-08T04:00:00	7	Dirección del viento	1.61
111835	7	Sololá	701	Sololá	4	Finca Santa Victoria	6	Junio	2023-09-06T00:00:00	2024-11-08T04:00:00	1	Precipitación	0
111836	7	Sololá	701	Sololá	4	Finca Santa Victoria	6	Junio	2023-09-06T00:00:00	2024-11-08T04:00:00	8	Radiación solar	0
111837	7	Sololá	701	Sololá	4	Finca Santa Victoria	6	Junio	2023-09-06T00:00:00	2024-11-08T05:00:00	2	Temperatura media	13.4
111838	7	Sololá	701	Sololá	4	Finca Santa Victoria	6	Junio	2023-09-06T00:00:00	2024-11-08T05:00:00	4	Temperatura máxima	13.5
111839	7	Sololá	701	Sololá	4	Finca Santa Victoria	6	Junio	2023-09-06T00:00:00	2024-11-08T05:00:00	3	Temperatura mínima	13.3
111840	7	Sololá	701	Sololá	4	Finca Santa Victoria	6	Junio	2023-09-06T00:00:00	2024-11-08T05:00:00	5	Humedad	93
111841	7	Sololá	701	Sololá	4	Finca Santa Victoria	6	Junio	2023-09-06T00:00:00	2024-11-08T05:00:00	6	Velocidad del viento	1.6
111842	7	Sololá	701	Sololá	4	Finca Santa Victoria	6	Junio	2023-09-06T00:00:00	2024-11-08T05:00:00	7	Dirección del viento	1.61
111843	7	Sololá	701	Sololá	4	Finca Santa Victoria	6	Junio	2023-09-06T00:00:00	2024-11-08T05:00:00	1	Precipitación	0
111844	7	Sololá	701	Sololá	4	Finca Santa Victoria	6	Junio	2023-09-06T00:00:00	2024-11-08T05:00:00	8	Radiación solar	0
111845	7	Sololá	701	Sololá	4	Finca Santa Victoria	6	Junio	2023-09-06T00:00:00	2024-11-08T06:00:00	2	Temperatura media	13.3
111846	7	Sololá	701	Sololá	4	Finca Santa Victoria	6	Junio	2023-09-06T00:00:00	2024-11-08T06:00:00	4	Temperatura máxima	13.6
111847	7	Sololá	701	Sololá	4	Finca Santa Victoria	6	Junio	2023-09-06T00:00:00	2024-11-08T06:00:00	3	Temperatura mínima	13.2
111848	7	Sololá	701	Sololá	4	Finca Santa Victoria	6	Junio	2023-09-06T00:00:00	2024-11-08T06:00:00	5	Humedad	92
111849	7	Sololá	701	Sololá	4	Finca Santa Victoria	6	Junio	2023-09-06T00:00:00	2024-11-08T06:00:00	6	Velocidad del viento	1.6
111850	7	Sololá	701	Sololá	4	Finca Santa Victoria	6	Junio	2023-09-06T00:00:00	2024-11-08T06:00:00	7	Dirección del viento	1.61
111851	7	Sololá	701	Sololá	4	Finca Santa Victoria	6	Junio	2023-09-06T00:00:00	2024-11-08T06:00:00	1	Precipitación	0.2
111852	7	Sololá	701	Sololá	4	Finca Santa Victoria	6	Junio	2023-09-06T00:00:00	2024-11-08T06:00:00	8	Radiación solar	3
111853	7	Sololá	701	Sololá	4	Finca Santa Victoria	6	Junio	2023-09-06T00:00:00	2024-11-08T07:00:00	2	Temperatura media	14.2
111854	7	Sololá	701	Sololá	4	Finca Santa Victoria	6	Junio	2023-09-06T00:00:00	2024-11-08T07:00:00	4	Temperatura máxima	14.2
111855	7	Sololá	701	Sololá	4	Finca Santa Victoria	6	Junio	2023-09-06T00:00:00	2024-11-08T07:00:00	3	Temperatura mínima	13.3
111856	7	Sololá	701	Sololá	4	Finca Santa Victoria	6	Junio	2023-09-06T00:00:00	2024-11-08T07:00:00	5	Humedad	92
111857	7	Sololá	701	Sololá	4	Finca Santa Victoria	6	Junio	2023-09-06T00:00:00	2024-11-08T07:00:00	6	Velocidad del viento	0
111858	7	Sololá	701	Sololá	4	Finca Santa Victoria	6	Junio	2023-09-06T00:00:00	2024-11-08T07:00:00	7	Dirección del viento	0
111859	7	Sololá	701	Sololá	4	Finca Santa Victoria	6	Junio	2023-09-06T00:00:00	2024-11-08T07:00:00	1	Precipitación	0
111860	7	Sololá	701	Sololá	4	Finca Santa Victoria	6	Junio	2023-09-06T00:00:00	2024-11-08T07:00:00	8	Radiación solar	34
111861	7	Sololá	701	Sololá	4	Finca Santa Victoria	6	Junio	2023-09-06T00:00:00	2024-11-08T08:00:00	2	Temperatura media	16
111862	7	Sololá	701	Sololá	4	Finca Santa Victoria	6	Junio	2023-09-06T00:00:00	2024-11-08T08:00:00	4	Temperatura máxima	16
111863	7	Sololá	701	Sololá	4	Finca Santa Victoria	6	Junio	2023-09-06T00:00:00	2024-11-08T08:00:00	3	Temperatura mínima	14.2
111864	7	Sololá	701	Sololá	4	Finca Santa Victoria	6	Junio	2023-09-06T00:00:00	2024-11-08T08:00:00	5	Humedad	87
111865	7	Sololá	701	Sololá	4	Finca Santa Victoria	6	Junio	2023-09-06T00:00:00	2024-11-08T08:00:00	6	Velocidad del viento	1.6
111866	7	Sololá	701	Sololá	4	Finca Santa Victoria	6	Junio	2023-09-06T00:00:00	2024-11-08T08:00:00	7	Dirección del viento	1.61
111867	7	Sololá	701	Sololá	4	Finca Santa Victoria	6	Junio	2023-09-06T00:00:00	2024-11-08T08:00:00	1	Precipitación	0
111868	7	Sololá	701	Sololá	4	Finca Santa Victoria	6	Junio	2023-09-06T00:00:00	2024-11-08T08:00:00	8	Radiación solar	127
111869	7	Sololá	701	Sololá	4	Finca Santa Victoria	6	Junio	2023-09-06T00:00:00	2024-11-08T09:00:00	2	Temperatura media	20.2
111870	7	Sololá	701	Sololá	4	Finca Santa Victoria	6	Junio	2023-09-06T00:00:00	2024-11-08T09:00:00	4	Temperatura máxima	20.2
111871	7	Sololá	701	Sololá	4	Finca Santa Victoria	6	Junio	2023-09-06T00:00:00	2024-11-08T09:00:00	3	Temperatura mínima	16.1
111872	7	Sololá	701	Sololá	4	Finca Santa Victoria	6	Junio	2023-09-06T00:00:00	2024-11-08T09:00:00	5	Humedad	74
111873	7	Sololá	701	Sololá	4	Finca Santa Victoria	6	Junio	2023-09-06T00:00:00	2024-11-08T09:00:00	6	Velocidad del viento	1.6
111874	7	Sololá	701	Sololá	4	Finca Santa Victoria	6	Junio	2023-09-06T00:00:00	2024-11-08T09:00:00	7	Dirección del viento	1.61
111875	7	Sololá	701	Sololá	4	Finca Santa Victoria	6	Junio	2023-09-06T00:00:00	2024-11-08T09:00:00	1	Precipitación	0
111876	7	Sololá	701	Sololá	4	Finca Santa Victoria	6	Junio	2023-09-06T00:00:00	2024-11-08T09:00:00	8	Radiación solar	395
111877	7	Sololá	701	Sololá	4	Finca Santa Victoria	6	Junio	2023-09-06T00:00:00	2024-11-08T10:00:00	2	Temperatura media	19.7
111878	7	Sololá	701	Sololá	4	Finca Santa Victoria	6	Junio	2023-09-06T00:00:00	2024-11-08T10:00:00	4	Temperatura máxima	21.2
111879	7	Sololá	701	Sololá	4	Finca Santa Victoria	6	Junio	2023-09-06T00:00:00	2024-11-08T10:00:00	3	Temperatura mínima	19.7
111880	7	Sololá	701	Sololá	4	Finca Santa Victoria	6	Junio	2023-09-06T00:00:00	2024-11-08T10:00:00	5	Humedad	78
111881	7	Sololá	701	Sololá	4	Finca Santa Victoria	6	Junio	2023-09-06T00:00:00	2024-11-08T10:00:00	6	Velocidad del viento	3.2
111882	7	Sololá	701	Sololá	4	Finca Santa Victoria	6	Junio	2023-09-06T00:00:00	2024-11-08T10:00:00	7	Dirección del viento	3.22
111883	7	Sololá	701	Sololá	4	Finca Santa Victoria	6	Junio	2023-09-06T00:00:00	2024-11-08T10:00:00	1	Precipitación	0
111884	7	Sololá	701	Sololá	4	Finca Santa Victoria	6	Junio	2023-09-06T00:00:00	2024-11-08T10:00:00	8	Radiación solar	290
111885	7	Sololá	701	Sololá	4	Finca Santa Victoria	6	Junio	2023-09-06T00:00:00	2024-11-08T11:00:00	2	Temperatura media	19.1
111886	7	Sololá	701	Sololá	4	Finca Santa Victoria	6	Junio	2023-09-06T00:00:00	2024-11-08T11:00:00	4	Temperatura máxima	19.7
111887	7	Sololá	701	Sololá	4	Finca Santa Victoria	6	Junio	2023-09-06T00:00:00	2024-11-08T11:00:00	3	Temperatura mínima	19.1
111888	7	Sololá	701	Sololá	4	Finca Santa Victoria	6	Junio	2023-09-06T00:00:00	2024-11-08T11:00:00	5	Humedad	83
111889	7	Sololá	701	Sololá	4	Finca Santa Victoria	6	Junio	2023-09-06T00:00:00	2024-11-08T11:00:00	6	Velocidad del viento	4.8
111890	7	Sololá	701	Sololá	4	Finca Santa Victoria	6	Junio	2023-09-06T00:00:00	2024-11-08T11:00:00	7	Dirección del viento	4.83
111891	7	Sololá	701	Sololá	4	Finca Santa Victoria	6	Junio	2023-09-06T00:00:00	2024-11-08T11:00:00	1	Precipitación	0
111892	7	Sololá	701	Sololá	4	Finca Santa Victoria	6	Junio	2023-09-06T00:00:00	2024-11-08T11:00:00	8	Radiación solar	258
111893	7	Sololá	701	Sololá	4	Finca Santa Victoria	6	Junio	2023-09-06T00:00:00	2024-11-08T12:00:00	2	Temperatura media	19.6
111894	7	Sololá	701	Sololá	4	Finca Santa Victoria	6	Junio	2023-09-06T00:00:00	2024-11-08T12:00:00	4	Temperatura máxima	20.2
111895	7	Sololá	701	Sololá	4	Finca Santa Victoria	6	Junio	2023-09-06T00:00:00	2024-11-08T12:00:00	3	Temperatura mínima	18.9
111896	7	Sololá	701	Sololá	4	Finca Santa Victoria	6	Junio	2023-09-06T00:00:00	2024-11-08T12:00:00	5	Humedad	84
111897	7	Sololá	701	Sololá	4	Finca Santa Victoria	6	Junio	2023-09-06T00:00:00	2024-11-08T12:00:00	6	Velocidad del viento	3.2
111898	7	Sololá	701	Sololá	4	Finca Santa Victoria	6	Junio	2023-09-06T00:00:00	2024-11-08T12:00:00	7	Dirección del viento	3.22
111899	7	Sololá	701	Sololá	4	Finca Santa Victoria	6	Junio	2023-09-06T00:00:00	2024-11-08T12:00:00	1	Precipitación	0
111900	7	Sololá	701	Sololá	4	Finca Santa Victoria	6	Junio	2023-09-06T00:00:00	2024-11-08T12:00:00	8	Radiación solar	878
111901	7	Sololá	701	Sololá	4	Finca Santa Victoria	6	Junio	2023-09-06T00:00:00	2024-11-08T13:00:00	2	Temperatura media	19.6
111902	7	Sololá	701	Sololá	4	Finca Santa Victoria	6	Junio	2023-09-06T00:00:00	2024-11-08T13:00:00	4	Temperatura máxima	19.8
111903	7	Sololá	701	Sololá	4	Finca Santa Victoria	6	Junio	2023-09-06T00:00:00	2024-11-08T13:00:00	3	Temperatura mínima	18.9
111904	7	Sololá	701	Sololá	4	Finca Santa Victoria	6	Junio	2023-09-06T00:00:00	2024-11-08T13:00:00	5	Humedad	85
111905	7	Sololá	701	Sololá	4	Finca Santa Victoria	6	Junio	2023-09-06T00:00:00	2024-11-08T13:00:00	6	Velocidad del viento	4.8
111906	7	Sololá	701	Sololá	4	Finca Santa Victoria	6	Junio	2023-09-06T00:00:00	2024-11-08T13:00:00	7	Dirección del viento	4.83
111907	7	Sololá	701	Sololá	4	Finca Santa Victoria	6	Junio	2023-09-06T00:00:00	2024-11-08T13:00:00	1	Precipitación	0
111908	7	Sololá	701	Sololá	4	Finca Santa Victoria	6	Junio	2023-09-06T00:00:00	2024-11-08T13:00:00	8	Radiación solar	645
111909	7	Sololá	701	Sololá	4	Finca Santa Victoria	6	Junio	2023-09-06T00:00:00	2024-11-08T14:00:00	2	Temperatura media	18.7
111910	7	Sololá	701	Sololá	4	Finca Santa Victoria	6	Junio	2023-09-06T00:00:00	2024-11-08T14:00:00	4	Temperatura máxima	19.8
111911	7	Sololá	701	Sololá	4	Finca Santa Victoria	6	Junio	2023-09-06T00:00:00	2024-11-08T14:00:00	3	Temperatura mínima	18.7
111912	7	Sololá	701	Sololá	4	Finca Santa Victoria	6	Junio	2023-09-06T00:00:00	2024-11-08T14:00:00	5	Humedad	91
111913	7	Sololá	701	Sololá	4	Finca Santa Victoria	6	Junio	2023-09-06T00:00:00	2024-11-08T14:00:00	6	Velocidad del viento	4.8
111914	7	Sololá	701	Sololá	4	Finca Santa Victoria	6	Junio	2023-09-06T00:00:00	2024-11-08T14:00:00	7	Dirección del viento	4.83
111915	7	Sololá	701	Sololá	4	Finca Santa Victoria	6	Junio	2023-09-06T00:00:00	2024-11-08T14:00:00	1	Precipitación	0
111916	7	Sololá	701	Sololá	4	Finca Santa Victoria	6	Junio	2023-09-06T00:00:00	2024-11-08T14:00:00	8	Radiación solar	291
111917	7	Sololá	701	Sololá	4	Finca Santa Victoria	6	Junio	2023-09-06T00:00:00	2024-11-08T15:00:00	2	Temperatura media	17.9
111918	7	Sololá	701	Sololá	4	Finca Santa Victoria	6	Junio	2023-09-06T00:00:00	2024-11-08T15:00:00	4	Temperatura máxima	19.1
111919	7	Sololá	701	Sololá	4	Finca Santa Victoria	6	Junio	2023-09-06T00:00:00	2024-11-08T15:00:00	3	Temperatura mínima	17.9
111920	7	Sololá	701	Sololá	4	Finca Santa Victoria	6	Junio	2023-09-06T00:00:00	2024-11-08T15:00:00	5	Humedad	93
111921	7	Sololá	701	Sololá	4	Finca Santa Victoria	6	Junio	2023-09-06T00:00:00	2024-11-08T15:00:00	6	Velocidad del viento	3.2
111922	7	Sololá	701	Sololá	4	Finca Santa Victoria	6	Junio	2023-09-06T00:00:00	2024-11-08T15:00:00	7	Dirección del viento	3.22
111923	7	Sololá	701	Sololá	4	Finca Santa Victoria	6	Junio	2023-09-06T00:00:00	2024-11-08T15:00:00	1	Precipitación	0
111924	7	Sololá	701	Sololá	4	Finca Santa Victoria	6	Junio	2023-09-06T00:00:00	2024-11-08T15:00:00	8	Radiación solar	174
111925	7	Sololá	701	Sololá	4	Finca Santa Victoria	6	Junio	2023-09-06T00:00:00	2024-11-08T16:00:00	2	Temperatura media	17.7
111926	7	Sololá	701	Sololá	4	Finca Santa Victoria	6	Junio	2023-09-06T00:00:00	2024-11-08T16:00:00	4	Temperatura máxima	18.2
111927	7	Sololá	701	Sololá	4	Finca Santa Victoria	6	Junio	2023-09-06T00:00:00	2024-11-08T16:00:00	3	Temperatura mínima	17.7
111928	7	Sololá	701	Sololá	4	Finca Santa Victoria	6	Junio	2023-09-06T00:00:00	2024-11-08T16:00:00	5	Humedad	93
111929	7	Sololá	701	Sololá	4	Finca Santa Victoria	6	Junio	2023-09-06T00:00:00	2024-11-08T16:00:00	6	Velocidad del viento	3.2
111930	7	Sololá	701	Sololá	4	Finca Santa Victoria	6	Junio	2023-09-06T00:00:00	2024-11-08T16:00:00	7	Dirección del viento	3.22
111931	7	Sololá	701	Sololá	4	Finca Santa Victoria	6	Junio	2023-09-06T00:00:00	2024-11-08T16:00:00	1	Precipitación	0
111932	7	Sololá	701	Sololá	4	Finca Santa Victoria	6	Junio	2023-09-06T00:00:00	2024-11-08T16:00:00	8	Radiación solar	118
111933	7	Sololá	701	Sololá	4	Finca Santa Victoria	6	Junio	2023-09-06T00:00:00	2024-11-08T17:00:00	2	Temperatura media	17.2
111934	7	Sololá	701	Sololá	4	Finca Santa Victoria	6	Junio	2023-09-06T00:00:00	2024-11-08T17:00:00	4	Temperatura máxima	17.8
111935	7	Sololá	701	Sololá	4	Finca Santa Victoria	6	Junio	2023-09-06T00:00:00	2024-11-08T17:00:00	3	Temperatura mínima	17.2
111936	7	Sololá	701	Sololá	4	Finca Santa Victoria	6	Junio	2023-09-06T00:00:00	2024-11-08T17:00:00	5	Humedad	95
111937	7	Sololá	701	Sololá	4	Finca Santa Victoria	6	Junio	2023-09-06T00:00:00	2024-11-08T17:00:00	6	Velocidad del viento	3.2
111938	7	Sololá	701	Sololá	4	Finca Santa Victoria	6	Junio	2023-09-06T00:00:00	2024-11-08T17:00:00	7	Dirección del viento	3.22
111939	7	Sololá	701	Sololá	4	Finca Santa Victoria	6	Junio	2023-09-06T00:00:00	2024-11-08T17:00:00	1	Precipitación	0
111940	7	Sololá	701	Sololá	4	Finca Santa Victoria	6	Junio	2023-09-06T00:00:00	2024-11-08T17:00:00	8	Radiación solar	63
111941	7	Sololá	701	Sololá	4	Finca Santa Victoria	6	Junio	2023-09-06T00:00:00	2024-11-08T18:00:00	2	Temperatura media	16.8
111942	7	Sololá	701	Sololá	4	Finca Santa Victoria	6	Junio	2023-09-06T00:00:00	2024-11-08T18:00:00	4	Temperatura máxima	17.5
111943	7	Sololá	701	Sololá	4	Finca Santa Victoria	6	Junio	2023-09-06T00:00:00	2024-11-08T18:00:00	3	Temperatura mínima	16.8
111944	7	Sololá	701	Sololá	4	Finca Santa Victoria	6	Junio	2023-09-06T00:00:00	2024-11-08T18:00:00	5	Humedad	96
111945	7	Sololá	701	Sololá	4	Finca Santa Victoria	6	Junio	2023-09-06T00:00:00	2024-11-08T18:00:00	6	Velocidad del viento	1.6
111946	7	Sololá	701	Sololá	4	Finca Santa Victoria	6	Junio	2023-09-06T00:00:00	2024-11-08T18:00:00	7	Dirección del viento	1.61
111947	7	Sololá	701	Sololá	4	Finca Santa Victoria	6	Junio	2023-09-06T00:00:00	2024-11-08T18:00:00	1	Precipitación	0
111948	7	Sololá	701	Sololá	4	Finca Santa Victoria	6	Junio	2023-09-06T00:00:00	2024-11-08T18:00:00	8	Radiación solar	44
111949	7	Sololá	701	Sololá	4	Finca Santa Victoria	6	Junio	2023-09-06T00:00:00	2024-11-08T19:00:00	2	Temperatura media	16.5
111950	7	Sololá	701	Sololá	4	Finca Santa Victoria	6	Junio	2023-09-06T00:00:00	2024-11-08T19:00:00	4	Temperatura máxima	16.8
111951	7	Sololá	701	Sololá	4	Finca Santa Victoria	6	Junio	2023-09-06T00:00:00	2024-11-08T19:00:00	3	Temperatura mínima	16.5
111952	7	Sololá	701	Sololá	4	Finca Santa Victoria	6	Junio	2023-09-06T00:00:00	2024-11-08T19:00:00	5	Humedad	97
111953	7	Sololá	701	Sololá	4	Finca Santa Victoria	6	Junio	2023-09-06T00:00:00	2024-11-08T19:00:00	6	Velocidad del viento	0
111954	7	Sololá	701	Sololá	4	Finca Santa Victoria	6	Junio	2023-09-06T00:00:00	2024-11-08T19:00:00	7	Dirección del viento	0
111955	7	Sololá	701	Sololá	4	Finca Santa Victoria	6	Junio	2023-09-06T00:00:00	2024-11-08T19:00:00	1	Precipitación	0
111956	7	Sololá	701	Sololá	4	Finca Santa Victoria	6	Junio	2023-09-06T00:00:00	2024-11-08T19:00:00	8	Radiación solar	0
111957	7	Sololá	701	Sololá	4	Finca Santa Victoria	6	Junio	2023-09-06T00:00:00	2024-11-08T20:00:00	2	Temperatura media	15.8
111958	7	Sololá	701	Sololá	4	Finca Santa Victoria	6	Junio	2023-09-06T00:00:00	2024-11-08T20:00:00	4	Temperatura máxima	16.5
111959	7	Sololá	701	Sololá	4	Finca Santa Victoria	6	Junio	2023-09-06T00:00:00	2024-11-08T20:00:00	3	Temperatura mínima	15.8
111960	7	Sololá	701	Sololá	4	Finca Santa Victoria	6	Junio	2023-09-06T00:00:00	2024-11-08T20:00:00	5	Humedad	96
111961	7	Sololá	701	Sololá	4	Finca Santa Victoria	6	Junio	2023-09-06T00:00:00	2024-11-08T20:00:00	6	Velocidad del viento	0
111962	7	Sololá	701	Sololá	4	Finca Santa Victoria	6	Junio	2023-09-06T00:00:00	2024-11-08T20:00:00	7	Dirección del viento	0
111963	7	Sololá	701	Sololá	4	Finca Santa Victoria	6	Junio	2023-09-06T00:00:00	2024-11-08T20:00:00	1	Precipitación	0
111964	7	Sololá	701	Sololá	4	Finca Santa Victoria	6	Junio	2023-09-06T00:00:00	2024-11-08T20:00:00	8	Radiación solar	0
111965	7	Sololá	701	Sololá	4	Finca Santa Victoria	6	Junio	2023-09-06T00:00:00	2024-11-08T21:00:00	2	Temperatura media	15.8
111966	7	Sololá	701	Sololá	4	Finca Santa Victoria	6	Junio	2023-09-06T00:00:00	2024-11-08T21:00:00	4	Temperatura máxima	15.8
111967	7	Sololá	701	Sololá	4	Finca Santa Victoria	6	Junio	2023-09-06T00:00:00	2024-11-08T21:00:00	3	Temperatura mínima	15.6
111968	7	Sololá	701	Sololá	4	Finca Santa Victoria	6	Junio	2023-09-06T00:00:00	2024-11-08T21:00:00	5	Humedad	98
111969	7	Sololá	701	Sololá	4	Finca Santa Victoria	6	Junio	2023-09-06T00:00:00	2024-11-08T21:00:00	6	Velocidad del viento	0
111970	7	Sololá	701	Sololá	4	Finca Santa Victoria	6	Junio	2023-09-06T00:00:00	2024-11-08T21:00:00	7	Dirección del viento	0
111971	7	Sololá	701	Sololá	4	Finca Santa Victoria	6	Junio	2023-09-06T00:00:00	2024-11-08T21:00:00	1	Precipitación	0
111972	7	Sololá	701	Sololá	4	Finca Santa Victoria	6	Junio	2023-09-06T00:00:00	2024-11-08T21:00:00	8	Radiación solar	0
111973	7	Sololá	701	Sololá	4	Finca Santa Victoria	6	Junio	2023-09-06T00:00:00	2024-11-08T22:00:00	2	Temperatura media	15.8
111974	7	Sololá	701	Sololá	4	Finca Santa Victoria	6	Junio	2023-09-06T00:00:00	2024-11-08T22:00:00	4	Temperatura máxima	16
111975	7	Sololá	701	Sololá	4	Finca Santa Victoria	6	Junio	2023-09-06T00:00:00	2024-11-08T22:00:00	3	Temperatura mínima	15.8
111976	7	Sololá	701	Sololá	4	Finca Santa Victoria	6	Junio	2023-09-06T00:00:00	2024-11-08T22:00:00	5	Humedad	98
111977	7	Sololá	701	Sololá	4	Finca Santa Victoria	6	Junio	2023-09-06T00:00:00	2024-11-08T22:00:00	6	Velocidad del viento	0
111978	7	Sololá	701	Sololá	4	Finca Santa Victoria	6	Junio	2023-09-06T00:00:00	2024-11-08T22:00:00	7	Dirección del viento	0
111979	7	Sololá	701	Sololá	4	Finca Santa Victoria	6	Junio	2023-09-06T00:00:00	2024-11-08T22:00:00	1	Precipitación	0
111980	7	Sololá	701	Sololá	4	Finca Santa Victoria	6	Junio	2023-09-06T00:00:00	2024-11-08T22:00:00	8	Radiación solar	0
111981	7	Sololá	701	Sololá	4	Finca Santa Victoria	6	Junio	2023-09-06T00:00:00	2024-11-08T23:00:00	2	Temperatura media	15.3
111982	7	Sololá	701	Sololá	4	Finca Santa Victoria	6	Junio	2023-09-06T00:00:00	2024-11-08T23:00:00	4	Temperatura máxima	15.8
111983	7	Sololá	701	Sololá	4	Finca Santa Victoria	6	Junio	2023-09-06T00:00:00	2024-11-08T23:00:00	3	Temperatura mínima	15.3
111984	7	Sololá	701	Sololá	4	Finca Santa Victoria	6	Junio	2023-09-06T00:00:00	2024-11-08T23:00:00	5	Humedad	98
111985	7	Sololá	701	Sololá	4	Finca Santa Victoria	6	Junio	2023-09-06T00:00:00	2024-11-08T23:00:00	6	Velocidad del viento	0
111986	7	Sololá	701	Sololá	4	Finca Santa Victoria	6	Junio	2023-09-06T00:00:00	2024-11-08T23:00:00	7	Dirección del viento	0
111987	7	Sololá	701	Sololá	4	Finca Santa Victoria	6	Junio	2023-09-06T00:00:00	2024-11-08T23:00:00	1	Precipitación	0
111988	7	Sololá	701	Sololá	4	Finca Santa Victoria	6	Junio	2023-09-06T00:00:00	2024-11-08T23:00:00	8	Radiación solar	0
111989	7	Sololá	701	Sololá	4	Finca Santa Victoria	6	Junio	2023-10-06T00:00:00	2024-11-08T00:00:00	2	Temperatura media	15.3
111990	7	Sololá	701	Sololá	4	Finca Santa Victoria	6	Junio	2023-10-06T00:00:00	2024-11-08T00:00:00	4	Temperatura máxima	15.5
111991	7	Sololá	701	Sololá	4	Finca Santa Victoria	6	Junio	2023-10-06T00:00:00	2024-11-08T00:00:00	3	Temperatura mínima	15.2
111992	7	Sololá	701	Sololá	4	Finca Santa Victoria	6	Junio	2023-10-06T00:00:00	2024-11-08T00:00:00	5	Humedad	98
111993	7	Sololá	701	Sololá	4	Finca Santa Victoria	6	Junio	2023-10-06T00:00:00	2024-11-08T00:00:00	6	Velocidad del viento	1.6
111994	7	Sololá	701	Sololá	4	Finca Santa Victoria	6	Junio	2023-10-06T00:00:00	2024-11-08T00:00:00	7	Dirección del viento	1.61
111995	7	Sololá	701	Sololá	4	Finca Santa Victoria	6	Junio	2023-10-06T00:00:00	2024-11-08T00:00:00	1	Precipitación	0
111996	7	Sololá	701	Sololá	4	Finca Santa Victoria	6	Junio	2023-10-06T00:00:00	2024-11-08T00:00:00	8	Radiación solar	0
111997	7	Sololá	701	Sololá	4	Finca Santa Victoria	6	Junio	2023-10-06T00:00:00	2024-11-08T01:00:00	2	Temperatura media	14.9
111998	7	Sololá	701	Sololá	4	Finca Santa Victoria	6	Junio	2023-10-06T00:00:00	2024-11-08T01:00:00	4	Temperatura máxima	15.4
111999	7	Sololá	701	Sololá	4	Finca Santa Victoria	6	Junio	2023-10-06T00:00:00	2024-11-08T01:00:00	3	Temperatura mínima	14.9
112000	7	Sololá	701	Sololá	4	Finca Santa Victoria	6	Junio	2023-10-06T00:00:00	2024-11-08T01:00:00	5	Humedad	98
112001	7	Sololá	701	Sololá	4	Finca Santa Victoria	6	Junio	2023-10-06T00:00:00	2024-11-08T01:00:00	6	Velocidad del viento	0
112002	7	Sololá	701	Sololá	4	Finca Santa Victoria	6	Junio	2023-10-06T00:00:00	2024-11-08T01:00:00	7	Dirección del viento	0
112003	7	Sololá	701	Sololá	4	Finca Santa Victoria	6	Junio	2023-10-06T00:00:00	2024-11-08T01:00:00	1	Precipitación	0
112004	7	Sololá	701	Sololá	4	Finca Santa Victoria	6	Junio	2023-10-06T00:00:00	2024-11-08T01:00:00	8	Radiación solar	0
112005	7	Sololá	701	Sololá	4	Finca Santa Victoria	6	Junio	2023-10-06T00:00:00	2024-11-08T02:00:00	2	Temperatura media	14.2
112006	7	Sololá	701	Sololá	4	Finca Santa Victoria	6	Junio	2023-10-06T00:00:00	2024-11-08T02:00:00	4	Temperatura máxima	14.9
112007	7	Sololá	701	Sololá	4	Finca Santa Victoria	6	Junio	2023-10-06T00:00:00	2024-11-08T02:00:00	3	Temperatura mínima	14.2
112008	7	Sololá	701	Sololá	4	Finca Santa Victoria	6	Junio	2023-10-06T00:00:00	2024-11-08T02:00:00	5	Humedad	98
112009	7	Sololá	701	Sololá	4	Finca Santa Victoria	6	Junio	2023-10-06T00:00:00	2024-11-08T02:00:00	6	Velocidad del viento	0
112010	7	Sololá	701	Sololá	4	Finca Santa Victoria	6	Junio	2023-10-06T00:00:00	2024-11-08T02:00:00	7	Dirección del viento	0
112011	7	Sololá	701	Sololá	4	Finca Santa Victoria	6	Junio	2023-10-06T00:00:00	2024-11-08T02:00:00	1	Precipitación	0
112012	7	Sololá	701	Sololá	4	Finca Santa Victoria	6	Junio	2023-10-06T00:00:00	2024-11-08T02:00:00	8	Radiación solar	0
112013	7	Sololá	701	Sololá	4	Finca Santa Victoria	6	Junio	2023-10-06T00:00:00	2024-11-08T03:00:00	2	Temperatura media	14.1
112014	7	Sololá	701	Sololá	4	Finca Santa Victoria	6	Junio	2023-10-06T00:00:00	2024-11-08T03:00:00	4	Temperatura máxima	14.4
112015	7	Sololá	701	Sololá	4	Finca Santa Victoria	6	Junio	2023-10-06T00:00:00	2024-11-08T03:00:00	3	Temperatura mínima	14.1
112016	7	Sololá	701	Sololá	4	Finca Santa Victoria	6	Junio	2023-10-06T00:00:00	2024-11-08T03:00:00	5	Humedad	98
112017	7	Sololá	701	Sololá	4	Finca Santa Victoria	6	Junio	2023-10-06T00:00:00	2024-11-08T03:00:00	6	Velocidad del viento	0
112018	7	Sololá	701	Sololá	4	Finca Santa Victoria	6	Junio	2023-10-06T00:00:00	2024-11-08T03:00:00	7	Dirección del viento	0
112019	7	Sololá	701	Sololá	4	Finca Santa Victoria	6	Junio	2023-10-06T00:00:00	2024-11-08T03:00:00	1	Precipitación	0
112020	7	Sololá	701	Sololá	4	Finca Santa Victoria	6	Junio	2023-10-06T00:00:00	2024-11-08T03:00:00	8	Radiación solar	0
112021	7	Sololá	701	Sololá	4	Finca Santa Victoria	6	Junio	2023-10-06T00:00:00	2024-11-08T04:00:00	2	Temperatura media	13.3
112022	7	Sololá	701	Sololá	4	Finca Santa Victoria	6	Junio	2023-10-06T00:00:00	2024-11-08T04:00:00	4	Temperatura máxima	14.1
112023	7	Sololá	701	Sololá	4	Finca Santa Victoria	6	Junio	2023-10-06T00:00:00	2024-11-08T04:00:00	3	Temperatura mínima	13.3
112024	7	Sololá	701	Sololá	4	Finca Santa Victoria	6	Junio	2023-10-06T00:00:00	2024-11-08T04:00:00	5	Humedad	98
112025	7	Sololá	701	Sololá	4	Finca Santa Victoria	6	Junio	2023-10-06T00:00:00	2024-11-08T04:00:00	6	Velocidad del viento	0
112026	7	Sololá	701	Sololá	4	Finca Santa Victoria	6	Junio	2023-10-06T00:00:00	2024-11-08T04:00:00	7	Dirección del viento	0
112027	7	Sololá	701	Sololá	4	Finca Santa Victoria	6	Junio	2023-10-06T00:00:00	2024-11-08T04:00:00	1	Precipitación	0
112028	7	Sololá	701	Sololá	4	Finca Santa Victoria	6	Junio	2023-10-06T00:00:00	2024-11-08T04:00:00	8	Radiación solar	0
112029	7	Sololá	701	Sololá	4	Finca Santa Victoria	6	Junio	2023-10-06T00:00:00	2024-11-08T05:00:00	2	Temperatura media	13.4
112030	7	Sololá	701	Sololá	4	Finca Santa Victoria	6	Junio	2023-10-06T00:00:00	2024-11-08T05:00:00	4	Temperatura máxima	13.4
112031	7	Sololá	701	Sololá	4	Finca Santa Victoria	6	Junio	2023-10-06T00:00:00	2024-11-08T05:00:00	3	Temperatura mínima	13.2
112032	7	Sololá	701	Sololá	4	Finca Santa Victoria	6	Junio	2023-10-06T00:00:00	2024-11-08T05:00:00	5	Humedad	95
112033	7	Sololá	701	Sololá	4	Finca Santa Victoria	6	Junio	2023-10-06T00:00:00	2024-11-08T05:00:00	6	Velocidad del viento	1.6
112034	7	Sololá	701	Sololá	4	Finca Santa Victoria	6	Junio	2023-10-06T00:00:00	2024-11-08T05:00:00	7	Dirección del viento	1.61
112035	7	Sololá	701	Sololá	4	Finca Santa Victoria	6	Junio	2023-10-06T00:00:00	2024-11-08T05:00:00	1	Precipitación	0
112036	7	Sololá	701	Sololá	4	Finca Santa Victoria	6	Junio	2023-10-06T00:00:00	2024-11-08T05:00:00	8	Radiación solar	0
112037	7	Sololá	701	Sololá	4	Finca Santa Victoria	6	Junio	2023-10-06T00:00:00	2024-11-08T06:00:00	2	Temperatura media	13.2
112038	7	Sololá	701	Sololá	4	Finca Santa Victoria	6	Junio	2023-10-06T00:00:00	2024-11-08T06:00:00	4	Temperatura máxima	13.4
112039	7	Sololá	701	Sololá	4	Finca Santa Victoria	6	Junio	2023-10-06T00:00:00	2024-11-08T06:00:00	3	Temperatura mínima	13.2
112040	7	Sololá	701	Sololá	4	Finca Santa Victoria	6	Junio	2023-10-06T00:00:00	2024-11-08T06:00:00	5	Humedad	95
112041	7	Sololá	701	Sololá	4	Finca Santa Victoria	6	Junio	2023-10-06T00:00:00	2024-11-08T06:00:00	6	Velocidad del viento	0
112042	7	Sololá	701	Sololá	4	Finca Santa Victoria	6	Junio	2023-10-06T00:00:00	2024-11-08T06:00:00	7	Dirección del viento	0
112043	7	Sololá	701	Sololá	4	Finca Santa Victoria	6	Junio	2023-10-06T00:00:00	2024-11-08T06:00:00	1	Precipitación	0
112044	7	Sololá	701	Sololá	4	Finca Santa Victoria	6	Junio	2023-10-06T00:00:00	2024-11-08T06:00:00	8	Radiación solar	5
112045	7	Sololá	701	Sololá	4	Finca Santa Victoria	6	Junio	2023-10-06T00:00:00	2024-11-08T07:00:00	2	Temperatura media	14.3
112046	7	Sololá	701	Sololá	4	Finca Santa Victoria	6	Junio	2023-10-06T00:00:00	2024-11-08T07:00:00	4	Temperatura máxima	14.3
112047	7	Sololá	701	Sololá	4	Finca Santa Victoria	6	Junio	2023-10-06T00:00:00	2024-11-08T07:00:00	3	Temperatura mínima	13.2
112048	7	Sololá	701	Sololá	4	Finca Santa Victoria	6	Junio	2023-10-06T00:00:00	2024-11-08T07:00:00	5	Humedad	89
112049	7	Sololá	701	Sololá	4	Finca Santa Victoria	6	Junio	2023-10-06T00:00:00	2024-11-08T07:00:00	6	Velocidad del viento	0
112050	7	Sololá	701	Sololá	4	Finca Santa Victoria	6	Junio	2023-10-06T00:00:00	2024-11-08T07:00:00	7	Dirección del viento	0
112051	7	Sololá	701	Sololá	4	Finca Santa Victoria	6	Junio	2023-10-06T00:00:00	2024-11-08T07:00:00	1	Precipitación	0
112052	7	Sololá	701	Sololá	4	Finca Santa Victoria	6	Junio	2023-10-06T00:00:00	2024-11-08T07:00:00	8	Radiación solar	58
112053	7	Sololá	701	Sololá	4	Finca Santa Victoria	6	Junio	2023-10-06T00:00:00	2024-11-08T08:00:00	2	Temperatura media	17.8
112054	7	Sololá	701	Sololá	4	Finca Santa Victoria	6	Junio	2023-10-06T00:00:00	2024-11-08T08:00:00	4	Temperatura máxima	17.9
112055	7	Sololá	701	Sololá	4	Finca Santa Victoria	6	Junio	2023-10-06T00:00:00	2024-11-08T08:00:00	3	Temperatura mínima	14.3
112056	7	Sololá	701	Sololá	4	Finca Santa Victoria	6	Junio	2023-10-06T00:00:00	2024-11-08T08:00:00	5	Humedad	78
112057	7	Sololá	701	Sololá	4	Finca Santa Victoria	6	Junio	2023-10-06T00:00:00	2024-11-08T08:00:00	6	Velocidad del viento	0
112058	7	Sololá	701	Sololá	4	Finca Santa Victoria	6	Junio	2023-10-06T00:00:00	2024-11-08T08:00:00	7	Dirección del viento	0
112059	7	Sololá	701	Sololá	4	Finca Santa Victoria	6	Junio	2023-10-06T00:00:00	2024-11-08T08:00:00	1	Precipitación	0
112060	7	Sololá	701	Sololá	4	Finca Santa Victoria	6	Junio	2023-10-06T00:00:00	2024-11-08T08:00:00	8	Radiación solar	228
112061	7	Sololá	701	Sololá	4	Finca Santa Victoria	6	Junio	2023-10-06T00:00:00	2024-11-08T09:00:00	2	Temperatura media	19.3
112062	7	Sololá	701	Sololá	4	Finca Santa Victoria	6	Junio	2023-10-06T00:00:00	2024-11-08T09:00:00	4	Temperatura máxima	19.4
112063	7	Sololá	701	Sololá	4	Finca Santa Victoria	6	Junio	2023-10-06T00:00:00	2024-11-08T09:00:00	3	Temperatura mínima	17.8
112064	7	Sololá	701	Sololá	4	Finca Santa Victoria	6	Junio	2023-10-06T00:00:00	2024-11-08T09:00:00	5	Humedad	74
112065	7	Sololá	701	Sololá	4	Finca Santa Victoria	6	Junio	2023-10-06T00:00:00	2024-11-08T09:00:00	6	Velocidad del viento	1.6
112066	7	Sololá	701	Sololá	4	Finca Santa Victoria	6	Junio	2023-10-06T00:00:00	2024-11-08T09:00:00	7	Dirección del viento	1.61
112067	7	Sololá	701	Sololá	4	Finca Santa Victoria	6	Junio	2023-10-06T00:00:00	2024-11-08T09:00:00	1	Precipitación	0
112068	7	Sololá	701	Sololá	4	Finca Santa Victoria	6	Junio	2023-10-06T00:00:00	2024-11-08T09:00:00	8	Radiación solar	390
112069	7	Sololá	701	Sololá	4	Finca Santa Victoria	6	Junio	2023-10-06T00:00:00	2024-11-08T10:00:00	2	Temperatura media	19.7
112070	7	Sololá	701	Sololá	4	Finca Santa Victoria	6	Junio	2023-10-06T00:00:00	2024-11-08T10:00:00	4	Temperatura máxima	20.1
112071	7	Sololá	701	Sololá	4	Finca Santa Victoria	6	Junio	2023-10-06T00:00:00	2024-11-08T10:00:00	3	Temperatura mínima	19.3
112072	7	Sololá	701	Sololá	4	Finca Santa Victoria	6	Junio	2023-10-06T00:00:00	2024-11-08T10:00:00	5	Humedad	73
112073	7	Sololá	701	Sololá	4	Finca Santa Victoria	6	Junio	2023-10-06T00:00:00	2024-11-08T10:00:00	6	Velocidad del viento	3.2
112074	7	Sololá	701	Sololá	4	Finca Santa Victoria	6	Junio	2023-10-06T00:00:00	2024-11-08T10:00:00	7	Dirección del viento	3.22
112075	7	Sololá	701	Sololá	4	Finca Santa Victoria	6	Junio	2023-10-06T00:00:00	2024-11-08T10:00:00	1	Precipitación	0
112076	7	Sololá	701	Sololá	4	Finca Santa Victoria	6	Junio	2023-10-06T00:00:00	2024-11-08T10:00:00	8	Radiación solar	289
112077	7	Sololá	701	Sololá	4	Finca Santa Victoria	6	Junio	2023-10-06T00:00:00	2024-11-08T11:00:00	2	Temperatura media	18
112078	7	Sololá	701	Sololá	4	Finca Santa Victoria	6	Junio	2023-10-06T00:00:00	2024-11-08T11:00:00	4	Temperatura máxima	19.8
112079	7	Sololá	701	Sololá	4	Finca Santa Victoria	6	Junio	2023-10-06T00:00:00	2024-11-08T11:00:00	3	Temperatura mínima	18
112080	7	Sololá	701	Sololá	4	Finca Santa Victoria	6	Junio	2023-10-06T00:00:00	2024-11-08T11:00:00	5	Humedad	85
112081	7	Sololá	701	Sololá	4	Finca Santa Victoria	6	Junio	2023-10-06T00:00:00	2024-11-08T11:00:00	6	Velocidad del viento	3.2
112082	7	Sololá	701	Sololá	4	Finca Santa Victoria	6	Junio	2023-10-06T00:00:00	2024-11-08T11:00:00	7	Dirección del viento	3.22
112083	7	Sololá	701	Sololá	4	Finca Santa Victoria	6	Junio	2023-10-06T00:00:00	2024-11-08T11:00:00	1	Precipitación	0
112084	7	Sololá	701	Sololá	4	Finca Santa Victoria	6	Junio	2023-10-06T00:00:00	2024-11-08T11:00:00	8	Radiación solar	244
112085	7	Sololá	701	Sololá	4	Finca Santa Victoria	6	Junio	2023-10-06T00:00:00	2024-11-08T12:00:00	2	Temperatura media	16.9
112086	7	Sololá	701	Sololá	4	Finca Santa Victoria	6	Junio	2023-10-06T00:00:00	2024-11-08T12:00:00	4	Temperatura máxima	18
112087	7	Sololá	701	Sololá	4	Finca Santa Victoria	6	Junio	2023-10-06T00:00:00	2024-11-08T12:00:00	3	Temperatura mínima	16.7
112088	7	Sololá	701	Sololá	4	Finca Santa Victoria	6	Junio	2023-10-06T00:00:00	2024-11-08T12:00:00	5	Humedad	92
112089	7	Sololá	701	Sololá	4	Finca Santa Victoria	6	Junio	2023-10-06T00:00:00	2024-11-08T12:00:00	6	Velocidad del viento	3.2
112090	7	Sololá	701	Sololá	4	Finca Santa Victoria	6	Junio	2023-10-06T00:00:00	2024-11-08T12:00:00	7	Dirección del viento	3.22
112091	7	Sololá	701	Sololá	4	Finca Santa Victoria	6	Junio	2023-10-06T00:00:00	2024-11-08T12:00:00	1	Precipitación	0
112092	7	Sololá	701	Sololá	4	Finca Santa Victoria	6	Junio	2023-10-06T00:00:00	2024-11-08T12:00:00	8	Radiación solar	122
112093	7	Sololá	701	Sololá	4	Finca Santa Victoria	6	Junio	2023-10-06T00:00:00	2024-11-08T13:00:00	2	Temperatura media	17.4
112094	7	Sololá	701	Sololá	4	Finca Santa Victoria	6	Junio	2023-10-06T00:00:00	2024-11-08T13:00:00	4	Temperatura máxima	17.7
112095	7	Sololá	701	Sololá	4	Finca Santa Victoria	6	Junio	2023-10-06T00:00:00	2024-11-08T13:00:00	3	Temperatura mínima	16.9
112096	7	Sololá	701	Sololá	4	Finca Santa Victoria	6	Junio	2023-10-06T00:00:00	2024-11-08T13:00:00	5	Humedad	88
112097	7	Sololá	701	Sololá	4	Finca Santa Victoria	6	Junio	2023-10-06T00:00:00	2024-11-08T13:00:00	6	Velocidad del viento	3.2
112098	7	Sololá	701	Sololá	4	Finca Santa Victoria	6	Junio	2023-10-06T00:00:00	2024-11-08T13:00:00	7	Dirección del viento	3.22
112099	7	Sololá	701	Sololá	4	Finca Santa Victoria	6	Junio	2023-10-06T00:00:00	2024-11-08T13:00:00	1	Precipitación	0
112100	7	Sololá	701	Sololá	4	Finca Santa Victoria	6	Junio	2023-10-06T00:00:00	2024-11-08T13:00:00	8	Radiación solar	220
112101	7	Sololá	701	Sololá	4	Finca Santa Victoria	6	Junio	2023-10-06T00:00:00	2024-11-08T14:00:00	2	Temperatura media	18.6
112102	7	Sololá	701	Sololá	4	Finca Santa Victoria	6	Junio	2023-10-06T00:00:00	2024-11-08T14:00:00	4	Temperatura máxima	18.9
112103	7	Sololá	701	Sololá	4	Finca Santa Victoria	6	Junio	2023-10-06T00:00:00	2024-11-08T14:00:00	3	Temperatura mínima	17.3
112104	7	Sololá	701	Sololá	4	Finca Santa Victoria	6	Junio	2023-10-06T00:00:00	2024-11-08T14:00:00	5	Humedad	83
112105	7	Sololá	701	Sololá	4	Finca Santa Victoria	6	Junio	2023-10-06T00:00:00	2024-11-08T14:00:00	6	Velocidad del viento	3.2
112106	7	Sololá	701	Sololá	4	Finca Santa Victoria	6	Junio	2023-10-06T00:00:00	2024-11-08T14:00:00	7	Dirección del viento	3.22
112107	7	Sololá	701	Sololá	4	Finca Santa Victoria	6	Junio	2023-10-06T00:00:00	2024-11-08T14:00:00	1	Precipitación	0
112108	7	Sololá	701	Sololá	4	Finca Santa Victoria	6	Junio	2023-10-06T00:00:00	2024-11-08T14:00:00	8	Radiación solar	256
112109	7	Sololá	701	Sololá	4	Finca Santa Victoria	6	Junio	2023-10-06T00:00:00	2024-11-08T15:00:00	2	Temperatura media	17.3
112110	7	Sololá	701	Sololá	4	Finca Santa Victoria	6	Junio	2023-10-06T00:00:00	2024-11-08T15:00:00	4	Temperatura máxima	18.6
112111	7	Sololá	701	Sololá	4	Finca Santa Victoria	6	Junio	2023-10-06T00:00:00	2024-11-08T15:00:00	3	Temperatura mínima	16.9
112112	7	Sololá	701	Sololá	4	Finca Santa Victoria	6	Junio	2023-10-06T00:00:00	2024-11-08T15:00:00	5	Humedad	92
112113	7	Sololá	701	Sololá	4	Finca Santa Victoria	6	Junio	2023-10-06T00:00:00	2024-11-08T15:00:00	6	Velocidad del viento	3.2
112114	7	Sololá	701	Sololá	4	Finca Santa Victoria	6	Junio	2023-10-06T00:00:00	2024-11-08T15:00:00	7	Dirección del viento	3.22
112115	7	Sololá	701	Sololá	4	Finca Santa Victoria	6	Junio	2023-10-06T00:00:00	2024-11-08T15:00:00	1	Precipitación	0
112116	7	Sololá	701	Sololá	4	Finca Santa Victoria	6	Junio	2023-10-06T00:00:00	2024-11-08T15:00:00	8	Radiación solar	127
112117	7	Sololá	701	Sololá	4	Finca Santa Victoria	6	Junio	2023-10-06T00:00:00	2024-11-08T16:00:00	2	Temperatura media	15.6
112118	7	Sololá	701	Sololá	4	Finca Santa Victoria	6	Junio	2023-10-06T00:00:00	2024-11-08T16:00:00	4	Temperatura máxima	17.3
112119	7	Sololá	701	Sololá	4	Finca Santa Victoria	6	Junio	2023-10-06T00:00:00	2024-11-08T16:00:00	3	Temperatura mínima	15.6
112120	7	Sololá	701	Sololá	4	Finca Santa Victoria	6	Junio	2023-10-06T00:00:00	2024-11-08T16:00:00	5	Humedad	96
112121	7	Sololá	701	Sololá	4	Finca Santa Victoria	6	Junio	2023-10-06T00:00:00	2024-11-08T16:00:00	6	Velocidad del viento	3.2
112122	7	Sololá	701	Sololá	4	Finca Santa Victoria	6	Junio	2023-10-06T00:00:00	2024-11-08T16:00:00	7	Dirección del viento	3.22
112123	7	Sololá	701	Sololá	4	Finca Santa Victoria	6	Junio	2023-10-06T00:00:00	2024-11-08T16:00:00	1	Precipitación	0
112124	7	Sololá	701	Sololá	4	Finca Santa Victoria	6	Junio	2023-10-06T00:00:00	2024-11-08T16:00:00	8	Radiación solar	36
112125	7	Sololá	701	Sololá	4	Finca Santa Victoria	6	Junio	2023-10-06T00:00:00	2024-11-08T17:00:00	2	Temperatura media	15.6
112126	7	Sololá	701	Sololá	4	Finca Santa Victoria	6	Junio	2023-10-06T00:00:00	2024-11-08T17:00:00	4	Temperatura máxima	15.6
112127	7	Sololá	701	Sololá	4	Finca Santa Victoria	6	Junio	2023-10-06T00:00:00	2024-11-08T17:00:00	3	Temperatura mínima	15.3
112128	7	Sololá	701	Sololá	4	Finca Santa Victoria	6	Junio	2023-10-06T00:00:00	2024-11-08T17:00:00	5	Humedad	95
112129	7	Sololá	701	Sololá	4	Finca Santa Victoria	6	Junio	2023-10-06T00:00:00	2024-11-08T17:00:00	6	Velocidad del viento	1.6
112130	7	Sololá	701	Sololá	4	Finca Santa Victoria	6	Junio	2023-10-06T00:00:00	2024-11-08T17:00:00	7	Dirección del viento	1.61
112131	7	Sololá	701	Sololá	4	Finca Santa Victoria	6	Junio	2023-10-06T00:00:00	2024-11-08T17:00:00	1	Precipitación	0
112132	7	Sololá	701	Sololá	4	Finca Santa Victoria	6	Junio	2023-10-06T00:00:00	2024-11-08T17:00:00	8	Radiación solar	24
112133	7	Sololá	701	Sololá	4	Finca Santa Victoria	6	Junio	2023-10-06T00:00:00	2024-11-08T18:00:00	2	Temperatura media	15.8
112134	7	Sololá	701	Sololá	4	Finca Santa Victoria	6	Junio	2023-10-06T00:00:00	2024-11-08T18:00:00	4	Temperatura máxima	15.9
112135	7	Sololá	701	Sololá	4	Finca Santa Victoria	6	Junio	2023-10-06T00:00:00	2024-11-08T18:00:00	3	Temperatura mínima	15.5
112136	7	Sololá	701	Sololá	4	Finca Santa Victoria	6	Junio	2023-10-06T00:00:00	2024-11-08T18:00:00	5	Humedad	94
112137	7	Sololá	701	Sololá	4	Finca Santa Victoria	6	Junio	2023-10-06T00:00:00	2024-11-08T18:00:00	6	Velocidad del viento	0
112138	7	Sololá	701	Sololá	4	Finca Santa Victoria	6	Junio	2023-10-06T00:00:00	2024-11-08T18:00:00	7	Dirección del viento	0
112139	7	Sololá	701	Sololá	4	Finca Santa Victoria	6	Junio	2023-10-06T00:00:00	2024-11-08T18:00:00	1	Precipitación	0
112140	7	Sololá	701	Sololá	4	Finca Santa Victoria	6	Junio	2023-10-06T00:00:00	2024-11-08T18:00:00	8	Radiación solar	40
112141	7	Sololá	701	Sololá	4	Finca Santa Victoria	6	Junio	2023-10-06T00:00:00	2024-11-08T19:00:00	2	Temperatura media	15.1
112142	7	Sololá	701	Sololá	4	Finca Santa Victoria	6	Junio	2023-10-06T00:00:00	2024-11-08T19:00:00	4	Temperatura máxima	15.8
112143	7	Sololá	701	Sololá	4	Finca Santa Victoria	6	Junio	2023-10-06T00:00:00	2024-11-08T19:00:00	3	Temperatura mínima	15.1
112144	7	Sololá	701	Sololá	4	Finca Santa Victoria	6	Junio	2023-10-06T00:00:00	2024-11-08T19:00:00	5	Humedad	91
112145	7	Sololá	701	Sololá	4	Finca Santa Victoria	6	Junio	2023-10-06T00:00:00	2024-11-08T19:00:00	6	Velocidad del viento	0
112146	7	Sololá	701	Sololá	4	Finca Santa Victoria	6	Junio	2023-10-06T00:00:00	2024-11-08T19:00:00	7	Dirección del viento	0
112147	7	Sololá	701	Sololá	4	Finca Santa Victoria	6	Junio	2023-10-06T00:00:00	2024-11-08T19:00:00	1	Precipitación	0
112148	7	Sololá	701	Sololá	4	Finca Santa Victoria	6	Junio	2023-10-06T00:00:00	2024-11-08T19:00:00	8	Radiación solar	0
112149	7	Sololá	701	Sololá	4	Finca Santa Victoria	6	Junio	2023-10-06T00:00:00	2024-11-08T20:00:00	2	Temperatura media	15.2
112150	7	Sololá	701	Sololá	4	Finca Santa Victoria	6	Junio	2023-10-06T00:00:00	2024-11-08T20:00:00	4	Temperatura máxima	15.5
112151	7	Sololá	701	Sololá	4	Finca Santa Victoria	6	Junio	2023-10-06T00:00:00	2024-11-08T20:00:00	3	Temperatura mínima	15.1
112152	7	Sololá	701	Sololá	4	Finca Santa Victoria	6	Junio	2023-10-06T00:00:00	2024-11-08T20:00:00	5	Humedad	87
112153	7	Sololá	701	Sololá	4	Finca Santa Victoria	6	Junio	2023-10-06T00:00:00	2024-11-08T20:00:00	6	Velocidad del viento	0
112154	7	Sololá	701	Sololá	4	Finca Santa Victoria	6	Junio	2023-10-06T00:00:00	2024-11-08T20:00:00	7	Dirección del viento	0
112155	7	Sololá	701	Sololá	4	Finca Santa Victoria	6	Junio	2023-10-06T00:00:00	2024-11-08T20:00:00	1	Precipitación	0
112156	7	Sololá	701	Sololá	4	Finca Santa Victoria	6	Junio	2023-10-06T00:00:00	2024-11-08T20:00:00	8	Radiación solar	0
112157	7	Sololá	701	Sololá	4	Finca Santa Victoria	6	Junio	2023-10-06T00:00:00	2024-11-08T21:00:00	2	Temperatura media	15.7
112158	7	Sololá	701	Sololá	4	Finca Santa Victoria	6	Junio	2023-10-06T00:00:00	2024-11-08T21:00:00	4	Temperatura máxima	15.7
112159	7	Sololá	701	Sololá	4	Finca Santa Victoria	6	Junio	2023-10-06T00:00:00	2024-11-08T21:00:00	3	Temperatura mínima	15
112160	7	Sololá	701	Sololá	4	Finca Santa Victoria	6	Junio	2023-10-06T00:00:00	2024-11-08T21:00:00	5	Humedad	87
112161	7	Sololá	701	Sololá	4	Finca Santa Victoria	6	Junio	2023-10-06T00:00:00	2024-11-08T21:00:00	6	Velocidad del viento	1.6
112162	7	Sololá	701	Sololá	4	Finca Santa Victoria	6	Junio	2023-10-06T00:00:00	2024-11-08T21:00:00	7	Dirección del viento	1.61
112163	7	Sololá	701	Sololá	4	Finca Santa Victoria	6	Junio	2023-10-06T00:00:00	2024-11-08T21:00:00	1	Precipitación	0
112164	7	Sololá	701	Sololá	4	Finca Santa Victoria	6	Junio	2023-10-06T00:00:00	2024-11-08T21:00:00	8	Radiación solar	0
112165	7	Sololá	701	Sololá	4	Finca Santa Victoria	6	Junio	2023-10-06T00:00:00	2024-11-08T22:00:00	2	Temperatura media	14.9
112166	7	Sololá	701	Sololá	4	Finca Santa Victoria	6	Junio	2023-10-06T00:00:00	2024-11-08T22:00:00	4	Temperatura máxima	15.7
112167	7	Sololá	701	Sololá	4	Finca Santa Victoria	6	Junio	2023-10-06T00:00:00	2024-11-08T22:00:00	3	Temperatura mínima	14.9
112168	7	Sololá	701	Sololá	4	Finca Santa Victoria	6	Junio	2023-10-06T00:00:00	2024-11-08T22:00:00	5	Humedad	90
112169	7	Sololá	701	Sololá	4	Finca Santa Victoria	6	Junio	2023-10-06T00:00:00	2024-11-08T22:00:00	6	Velocidad del viento	0
112170	7	Sololá	701	Sololá	4	Finca Santa Victoria	6	Junio	2023-10-06T00:00:00	2024-11-08T22:00:00	7	Dirección del viento	0
112171	7	Sololá	701	Sololá	4	Finca Santa Victoria	6	Junio	2023-10-06T00:00:00	2024-11-08T22:00:00	1	Precipitación	0
112172	7	Sololá	701	Sololá	4	Finca Santa Victoria	6	Junio	2023-10-06T00:00:00	2024-11-08T22:00:00	8	Radiación solar	0
112173	7	Sololá	701	Sololá	4	Finca Santa Victoria	6	Junio	2023-10-06T00:00:00	2024-11-08T23:00:00	2	Temperatura media	14.8
112174	7	Sololá	701	Sololá	4	Finca Santa Victoria	6	Junio	2023-10-06T00:00:00	2024-11-08T23:00:00	4	Temperatura máxima	15
112175	7	Sololá	701	Sololá	4	Finca Santa Victoria	6	Junio	2023-10-06T00:00:00	2024-11-08T23:00:00	3	Temperatura mínima	14.7
112176	7	Sololá	701	Sololá	4	Finca Santa Victoria	6	Junio	2023-10-06T00:00:00	2024-11-08T23:00:00	5	Humedad	90
112177	7	Sololá	701	Sololá	4	Finca Santa Victoria	6	Junio	2023-10-06T00:00:00	2024-11-08T23:00:00	6	Velocidad del viento	0
112178	7	Sololá	701	Sololá	4	Finca Santa Victoria	6	Junio	2023-10-06T00:00:00	2024-11-08T23:00:00	7	Dirección del viento	0
112179	7	Sololá	701	Sololá	4	Finca Santa Victoria	6	Junio	2023-10-06T00:00:00	2024-11-08T23:00:00	1	Precipitación	0
112180	7	Sololá	701	Sololá	4	Finca Santa Victoria	6	Junio	2023-10-06T00:00:00	2024-11-08T23:00:00	8	Radiación solar	0
112181	7	Sololá	701	Sololá	4	Finca Santa Victoria	6	Junio	2023-11-06T00:00:00	2024-11-08T00:00:00	2	Temperatura media	14.8
112182	7	Sololá	701	Sololá	4	Finca Santa Victoria	6	Junio	2023-11-06T00:00:00	2024-11-08T00:00:00	4	Temperatura máxima	14.9
112183	7	Sololá	701	Sololá	4	Finca Santa Victoria	6	Junio	2023-11-06T00:00:00	2024-11-08T00:00:00	3	Temperatura mínima	14.6
112184	7	Sololá	701	Sololá	4	Finca Santa Victoria	6	Junio	2023-11-06T00:00:00	2024-11-08T00:00:00	5	Humedad	89
112185	7	Sololá	701	Sololá	4	Finca Santa Victoria	6	Junio	2023-11-06T00:00:00	2024-11-08T00:00:00	6	Velocidad del viento	1.6
112186	7	Sololá	701	Sololá	4	Finca Santa Victoria	6	Junio	2023-11-06T00:00:00	2024-11-08T00:00:00	7	Dirección del viento	1.61
112187	7	Sololá	701	Sololá	4	Finca Santa Victoria	6	Junio	2023-11-06T00:00:00	2024-11-08T00:00:00	1	Precipitación	0
112188	7	Sololá	701	Sololá	4	Finca Santa Victoria	6	Junio	2023-11-06T00:00:00	2024-11-08T00:00:00	8	Radiación solar	0
112189	7	Sololá	701	Sololá	4	Finca Santa Victoria	6	Junio	2023-11-06T00:00:00	2024-11-08T01:00:00	2	Temperatura media	14.9
112190	7	Sololá	701	Sololá	4	Finca Santa Victoria	6	Junio	2023-11-06T00:00:00	2024-11-08T01:00:00	4	Temperatura máxima	14.9
112191	7	Sololá	701	Sololá	4	Finca Santa Victoria	6	Junio	2023-11-06T00:00:00	2024-11-08T01:00:00	3	Temperatura mínima	14.6
112192	7	Sololá	701	Sololá	4	Finca Santa Victoria	6	Junio	2023-11-06T00:00:00	2024-11-08T01:00:00	5	Humedad	86
112193	7	Sololá	701	Sololá	4	Finca Santa Victoria	6	Junio	2023-11-06T00:00:00	2024-11-08T01:00:00	6	Velocidad del viento	1.6
112194	7	Sololá	701	Sololá	4	Finca Santa Victoria	6	Junio	2023-11-06T00:00:00	2024-11-08T01:00:00	7	Dirección del viento	1.61
112195	7	Sololá	701	Sololá	4	Finca Santa Victoria	6	Junio	2023-11-06T00:00:00	2024-11-08T01:00:00	1	Precipitación	0
112196	7	Sololá	701	Sololá	4	Finca Santa Victoria	6	Junio	2023-11-06T00:00:00	2024-11-08T01:00:00	8	Radiación solar	0
112197	7	Sololá	701	Sololá	4	Finca Santa Victoria	6	Junio	2023-11-06T00:00:00	2024-11-08T02:00:00	2	Temperatura media	14.8
112198	7	Sololá	701	Sololá	4	Finca Santa Victoria	6	Junio	2023-11-06T00:00:00	2024-11-08T02:00:00	4	Temperatura máxima	14.9
112199	7	Sololá	701	Sololá	4	Finca Santa Victoria	6	Junio	2023-11-06T00:00:00	2024-11-08T02:00:00	3	Temperatura mínima	14.4
112200	7	Sololá	701	Sololá	4	Finca Santa Victoria	6	Junio	2023-11-06T00:00:00	2024-11-08T02:00:00	5	Humedad	84
112201	7	Sololá	701	Sololá	4	Finca Santa Victoria	6	Junio	2023-11-06T00:00:00	2024-11-08T02:00:00	6	Velocidad del viento	1.6
112202	7	Sololá	701	Sololá	4	Finca Santa Victoria	6	Junio	2023-11-06T00:00:00	2024-11-08T02:00:00	7	Dirección del viento	1.61
112203	7	Sololá	701	Sololá	4	Finca Santa Victoria	6	Junio	2023-11-06T00:00:00	2024-11-08T02:00:00	1	Precipitación	0
112204	7	Sololá	701	Sololá	4	Finca Santa Victoria	6	Junio	2023-11-06T00:00:00	2024-11-08T02:00:00	8	Radiación solar	0
112205	7	Sololá	701	Sololá	4	Finca Santa Victoria	6	Junio	2023-11-06T00:00:00	2024-11-08T03:00:00	2	Temperatura media	13.4
112206	7	Sololá	701	Sololá	4	Finca Santa Victoria	6	Junio	2023-11-06T00:00:00	2024-11-08T03:00:00	4	Temperatura máxima	14.8
112207	7	Sololá	701	Sololá	4	Finca Santa Victoria	6	Junio	2023-11-06T00:00:00	2024-11-08T03:00:00	3	Temperatura mínima	13.4
112208	7	Sololá	701	Sololá	4	Finca Santa Victoria	6	Junio	2023-11-06T00:00:00	2024-11-08T03:00:00	5	Humedad	91
112209	7	Sololá	701	Sololá	4	Finca Santa Victoria	6	Junio	2023-11-06T00:00:00	2024-11-08T03:00:00	6	Velocidad del viento	1.6
112210	7	Sololá	701	Sololá	4	Finca Santa Victoria	6	Junio	2023-11-06T00:00:00	2024-11-08T03:00:00	7	Dirección del viento	1.61
112211	7	Sololá	701	Sololá	4	Finca Santa Victoria	6	Junio	2023-11-06T00:00:00	2024-11-08T03:00:00	1	Precipitación	0
112212	7	Sololá	701	Sololá	4	Finca Santa Victoria	6	Junio	2023-11-06T00:00:00	2024-11-08T03:00:00	8	Radiación solar	0
112213	7	Sololá	701	Sololá	4	Finca Santa Victoria	6	Junio	2023-11-06T00:00:00	2024-11-08T04:00:00	2	Temperatura media	13.6
112214	7	Sololá	701	Sololá	4	Finca Santa Victoria	6	Junio	2023-11-06T00:00:00	2024-11-08T04:00:00	4	Temperatura máxima	13.7
112215	7	Sololá	701	Sololá	4	Finca Santa Victoria	6	Junio	2023-11-06T00:00:00	2024-11-08T04:00:00	3	Temperatura mínima	13.4
112216	7	Sololá	701	Sololá	4	Finca Santa Victoria	6	Junio	2023-11-06T00:00:00	2024-11-08T04:00:00	5	Humedad	84
112217	7	Sololá	701	Sololá	4	Finca Santa Victoria	6	Junio	2023-11-06T00:00:00	2024-11-08T04:00:00	6	Velocidad del viento	1.6
112218	7	Sololá	701	Sololá	4	Finca Santa Victoria	6	Junio	2023-11-06T00:00:00	2024-11-08T04:00:00	7	Dirección del viento	1.61
112219	7	Sololá	701	Sololá	4	Finca Santa Victoria	6	Junio	2023-11-06T00:00:00	2024-11-08T04:00:00	1	Precipitación	0
112220	7	Sololá	701	Sololá	4	Finca Santa Victoria	6	Junio	2023-11-06T00:00:00	2024-11-08T04:00:00	8	Radiación solar	0
112221	7	Sololá	701	Sololá	4	Finca Santa Victoria	6	Junio	2023-11-06T00:00:00	2024-11-08T05:00:00	2	Temperatura media	13.6
112222	7	Sololá	701	Sololá	4	Finca Santa Victoria	6	Junio	2023-11-06T00:00:00	2024-11-08T05:00:00	4	Temperatura máxima	13.6
112223	7	Sololá	701	Sololá	4	Finca Santa Victoria	6	Junio	2023-11-06T00:00:00	2024-11-08T05:00:00	3	Temperatura mínima	13.3
112224	7	Sololá	701	Sololá	4	Finca Santa Victoria	6	Junio	2023-11-06T00:00:00	2024-11-08T05:00:00	5	Humedad	85
112225	7	Sololá	701	Sololá	4	Finca Santa Victoria	6	Junio	2023-11-06T00:00:00	2024-11-08T05:00:00	6	Velocidad del viento	1.6
112226	7	Sololá	701	Sololá	4	Finca Santa Victoria	6	Junio	2023-11-06T00:00:00	2024-11-08T05:00:00	7	Dirección del viento	1.61
112227	7	Sololá	701	Sololá	4	Finca Santa Victoria	6	Junio	2023-11-06T00:00:00	2024-11-08T05:00:00	1	Precipitación	0
112228	7	Sololá	701	Sololá	4	Finca Santa Victoria	6	Junio	2023-11-06T00:00:00	2024-11-08T05:00:00	8	Radiación solar	0
112229	7	Sololá	701	Sololá	4	Finca Santa Victoria	6	Junio	2023-11-06T00:00:00	2024-11-08T06:00:00	2	Temperatura media	14
112230	7	Sololá	701	Sololá	4	Finca Santa Victoria	6	Junio	2023-11-06T00:00:00	2024-11-08T06:00:00	4	Temperatura máxima	14
112231	7	Sololá	701	Sololá	4	Finca Santa Victoria	6	Junio	2023-11-06T00:00:00	2024-11-08T06:00:00	3	Temperatura mínima	13.4
112232	7	Sololá	701	Sololá	4	Finca Santa Victoria	6	Junio	2023-11-06T00:00:00	2024-11-08T06:00:00	5	Humedad	65
112233	7	Sololá	701	Sololá	4	Finca Santa Victoria	6	Junio	2023-11-06T00:00:00	2024-11-08T06:00:00	6	Velocidad del viento	1.6
112234	7	Sololá	701	Sololá	4	Finca Santa Victoria	6	Junio	2023-11-06T00:00:00	2024-11-08T06:00:00	7	Dirección del viento	1.61
112235	7	Sololá	701	Sololá	4	Finca Santa Victoria	6	Junio	2023-11-06T00:00:00	2024-11-08T06:00:00	1	Precipitación	0
112236	7	Sololá	701	Sololá	4	Finca Santa Victoria	6	Junio	2023-11-06T00:00:00	2024-11-08T06:00:00	8	Radiación solar	4
112237	7	Sololá	701	Sololá	4	Finca Santa Victoria	6	Junio	2023-11-06T00:00:00	2024-11-08T07:00:00	2	Temperatura media	14.3
112238	7	Sololá	701	Sololá	4	Finca Santa Victoria	6	Junio	2023-11-06T00:00:00	2024-11-08T07:00:00	4	Temperatura máxima	14.3
112239	7	Sololá	701	Sololá	4	Finca Santa Victoria	6	Junio	2023-11-06T00:00:00	2024-11-08T07:00:00	3	Temperatura mínima	14
112240	7	Sololá	701	Sololá	4	Finca Santa Victoria	6	Junio	2023-11-06T00:00:00	2024-11-08T07:00:00	5	Humedad	73
112241	7	Sololá	701	Sololá	4	Finca Santa Victoria	6	Junio	2023-11-06T00:00:00	2024-11-08T07:00:00	6	Velocidad del viento	1.6
112242	7	Sololá	701	Sololá	4	Finca Santa Victoria	6	Junio	2023-11-06T00:00:00	2024-11-08T07:00:00	7	Dirección del viento	1.61
112243	7	Sololá	701	Sololá	4	Finca Santa Victoria	6	Junio	2023-11-06T00:00:00	2024-11-08T07:00:00	1	Precipitación	0
112244	7	Sololá	701	Sololá	4	Finca Santa Victoria	6	Junio	2023-11-06T00:00:00	2024-11-08T07:00:00	8	Radiación solar	48
112245	7	Sololá	701	Sololá	4	Finca Santa Victoria	6	Junio	2023-11-06T00:00:00	2024-11-08T08:00:00	2	Temperatura media	18.4
112246	7	Sololá	701	Sololá	4	Finca Santa Victoria	6	Junio	2023-11-06T00:00:00	2024-11-08T08:00:00	4	Temperatura máxima	18.4
112247	7	Sololá	701	Sololá	4	Finca Santa Victoria	6	Junio	2023-11-06T00:00:00	2024-11-08T08:00:00	3	Temperatura mínima	14.3
112248	7	Sololá	701	Sololá	4	Finca Santa Victoria	6	Junio	2023-11-06T00:00:00	2024-11-08T08:00:00	5	Humedad	61
112249	7	Sololá	701	Sololá	4	Finca Santa Victoria	6	Junio	2023-11-06T00:00:00	2024-11-08T08:00:00	6	Velocidad del viento	0
112250	7	Sololá	701	Sololá	4	Finca Santa Victoria	6	Junio	2023-11-06T00:00:00	2024-11-08T08:00:00	7	Dirección del viento	0
112251	7	Sololá	701	Sololá	4	Finca Santa Victoria	6	Junio	2023-11-06T00:00:00	2024-11-08T08:00:00	1	Precipitación	0
112252	7	Sololá	701	Sololá	4	Finca Santa Victoria	6	Junio	2023-11-06T00:00:00	2024-11-08T08:00:00	8	Radiación solar	252
112253	7	Sololá	701	Sololá	4	Finca Santa Victoria	6	Junio	2023-11-06T00:00:00	2024-11-08T09:00:00	2	Temperatura media	18.9
112254	7	Sololá	701	Sololá	4	Finca Santa Victoria	6	Junio	2023-11-06T00:00:00	2024-11-08T09:00:00	4	Temperatura máxima	18.9
112255	7	Sololá	701	Sololá	4	Finca Santa Victoria	6	Junio	2023-11-06T00:00:00	2024-11-08T09:00:00	3	Temperatura mínima	18.3
112256	7	Sololá	701	Sololá	4	Finca Santa Victoria	6	Junio	2023-11-06T00:00:00	2024-11-08T09:00:00	5	Humedad	65
112257	7	Sololá	701	Sololá	4	Finca Santa Victoria	6	Junio	2023-11-06T00:00:00	2024-11-08T09:00:00	6	Velocidad del viento	1.6
112258	7	Sololá	701	Sololá	4	Finca Santa Victoria	6	Junio	2023-11-06T00:00:00	2024-11-08T09:00:00	7	Dirección del viento	1.61
112259	7	Sololá	701	Sololá	4	Finca Santa Victoria	6	Junio	2023-11-06T00:00:00	2024-11-08T09:00:00	1	Precipitación	0
112260	7	Sololá	701	Sololá	4	Finca Santa Victoria	6	Junio	2023-11-06T00:00:00	2024-11-08T09:00:00	8	Radiación solar	323
112261	7	Sololá	701	Sololá	4	Finca Santa Victoria	6	Junio	2023-11-06T00:00:00	2024-11-08T10:00:00	2	Temperatura media	19.7
112262	7	Sololá	701	Sololá	4	Finca Santa Victoria	6	Junio	2023-11-06T00:00:00	2024-11-08T10:00:00	4	Temperatura máxima	19.9
112263	7	Sololá	701	Sololá	4	Finca Santa Victoria	6	Junio	2023-11-06T00:00:00	2024-11-08T10:00:00	3	Temperatura mínima	18.9
112264	7	Sololá	701	Sololá	4	Finca Santa Victoria	6	Junio	2023-11-06T00:00:00	2024-11-08T10:00:00	5	Humedad	75
112265	7	Sololá	701	Sololá	4	Finca Santa Victoria	6	Junio	2023-11-06T00:00:00	2024-11-08T10:00:00	6	Velocidad del viento	3.2
112266	7	Sololá	701	Sololá	4	Finca Santa Victoria	6	Junio	2023-11-06T00:00:00	2024-11-08T10:00:00	7	Dirección del viento	3.22
112267	7	Sololá	701	Sololá	4	Finca Santa Victoria	6	Junio	2023-11-06T00:00:00	2024-11-08T10:00:00	1	Precipitación	0
112268	7	Sololá	701	Sololá	4	Finca Santa Victoria	6	Junio	2023-11-06T00:00:00	2024-11-08T10:00:00	8	Radiación solar	279
112269	7	Sololá	701	Sololá	4	Finca Santa Victoria	6	Junio	2023-11-06T00:00:00	2024-11-08T11:00:00	2	Temperatura media	19.6
112270	7	Sololá	701	Sololá	4	Finca Santa Victoria	6	Junio	2023-11-06T00:00:00	2024-11-08T11:00:00	4	Temperatura máxima	20.1
112271	7	Sololá	701	Sololá	4	Finca Santa Victoria	6	Junio	2023-11-06T00:00:00	2024-11-08T11:00:00	3	Temperatura mínima	19.5
112272	7	Sololá	701	Sololá	4	Finca Santa Victoria	6	Junio	2023-11-06T00:00:00	2024-11-08T11:00:00	5	Humedad	79
112273	7	Sololá	701	Sololá	4	Finca Santa Victoria	6	Junio	2023-11-06T00:00:00	2024-11-08T11:00:00	6	Velocidad del viento	3.2
112274	7	Sololá	701	Sololá	4	Finca Santa Victoria	6	Junio	2023-11-06T00:00:00	2024-11-08T11:00:00	7	Dirección del viento	3.22
112275	7	Sololá	701	Sololá	4	Finca Santa Victoria	6	Junio	2023-11-06T00:00:00	2024-11-08T11:00:00	1	Precipitación	0
112276	7	Sololá	701	Sololá	4	Finca Santa Victoria	6	Junio	2023-11-06T00:00:00	2024-11-08T11:00:00	8	Radiación solar	327
112277	7	Sololá	701	Sololá	4	Finca Santa Victoria	6	Junio	2023-11-06T00:00:00	2024-11-08T12:00:00	2	Temperatura media	18.8
112278	7	Sololá	701	Sololá	4	Finca Santa Victoria	6	Junio	2023-11-06T00:00:00	2024-11-08T12:00:00	4	Temperatura máxima	20.1
112279	7	Sololá	701	Sololá	4	Finca Santa Victoria	6	Junio	2023-11-06T00:00:00	2024-11-08T12:00:00	3	Temperatura mínima	18.6
112280	7	Sololá	701	Sololá	4	Finca Santa Victoria	6	Junio	2023-11-06T00:00:00	2024-11-08T12:00:00	5	Humedad	87
112281	7	Sololá	701	Sololá	4	Finca Santa Victoria	6	Junio	2023-11-06T00:00:00	2024-11-08T12:00:00	6	Velocidad del viento	4.8
112282	7	Sololá	701	Sololá	4	Finca Santa Victoria	6	Junio	2023-11-06T00:00:00	2024-11-08T12:00:00	7	Dirección del viento	4.83
112283	7	Sololá	701	Sololá	4	Finca Santa Victoria	6	Junio	2023-11-06T00:00:00	2024-11-08T12:00:00	1	Precipitación	0
112284	7	Sololá	701	Sololá	4	Finca Santa Victoria	6	Junio	2023-11-06T00:00:00	2024-11-08T12:00:00	8	Radiación solar	664
112285	7	Sololá	701	Sololá	4	Finca Santa Victoria	6	Junio	2023-11-06T00:00:00	2024-11-08T13:00:00	2	Temperatura media	19.4
112286	7	Sololá	701	Sololá	4	Finca Santa Victoria	6	Junio	2023-11-06T00:00:00	2024-11-08T13:00:00	4	Temperatura máxima	19.4
112287	7	Sololá	701	Sololá	4	Finca Santa Victoria	6	Junio	2023-11-06T00:00:00	2024-11-08T13:00:00	3	Temperatura mínima	18.4
112288	7	Sololá	701	Sololá	4	Finca Santa Victoria	6	Junio	2023-11-06T00:00:00	2024-11-08T13:00:00	5	Humedad	87
112289	7	Sololá	701	Sololá	4	Finca Santa Victoria	6	Junio	2023-11-06T00:00:00	2024-11-08T13:00:00	6	Velocidad del viento	3.2
112290	7	Sololá	701	Sololá	4	Finca Santa Victoria	6	Junio	2023-11-06T00:00:00	2024-11-08T13:00:00	7	Dirección del viento	3.22
112291	7	Sololá	701	Sololá	4	Finca Santa Victoria	6	Junio	2023-11-06T00:00:00	2024-11-08T13:00:00	1	Precipitación	0
112292	7	Sololá	701	Sololá	4	Finca Santa Victoria	6	Junio	2023-11-06T00:00:00	2024-11-08T13:00:00	8	Radiación solar	596
112293	7	Sololá	701	Sololá	4	Finca Santa Victoria	6	Junio	2023-11-06T00:00:00	2024-11-08T14:00:00	2	Temperatura media	19.5
112294	7	Sololá	701	Sololá	4	Finca Santa Victoria	6	Junio	2023-11-06T00:00:00	2024-11-08T14:00:00	4	Temperatura máxima	19.7
112295	7	Sololá	701	Sololá	4	Finca Santa Victoria	6	Junio	2023-11-06T00:00:00	2024-11-08T14:00:00	3	Temperatura mínima	18.9
112296	7	Sololá	701	Sololá	4	Finca Santa Victoria	6	Junio	2023-11-06T00:00:00	2024-11-08T14:00:00	5	Humedad	85
112297	7	Sololá	701	Sololá	4	Finca Santa Victoria	6	Junio	2023-11-06T00:00:00	2024-11-08T14:00:00	6	Velocidad del viento	4.8
112298	7	Sololá	701	Sololá	4	Finca Santa Victoria	6	Junio	2023-11-06T00:00:00	2024-11-08T14:00:00	7	Dirección del viento	4.83
112299	7	Sololá	701	Sololá	4	Finca Santa Victoria	6	Junio	2023-11-06T00:00:00	2024-11-08T14:00:00	1	Precipitación	0
112300	7	Sololá	701	Sololá	4	Finca Santa Victoria	6	Junio	2023-11-06T00:00:00	2024-11-08T14:00:00	8	Radiación solar	444
112301	7	Sololá	701	Sololá	4	Finca Santa Victoria	6	Junio	2023-11-06T00:00:00	2024-11-08T15:00:00	2	Temperatura media	19.7
112302	7	Sololá	701	Sololá	4	Finca Santa Victoria	6	Junio	2023-11-06T00:00:00	2024-11-08T15:00:00	4	Temperatura máxima	19.7
112303	7	Sololá	701	Sololá	4	Finca Santa Victoria	6	Junio	2023-11-06T00:00:00	2024-11-08T15:00:00	3	Temperatura mínima	19.1
112304	7	Sololá	701	Sololá	4	Finca Santa Victoria	6	Junio	2023-11-06T00:00:00	2024-11-08T15:00:00	5	Humedad	85
112305	7	Sololá	701	Sololá	4	Finca Santa Victoria	6	Junio	2023-11-06T00:00:00	2024-11-08T15:00:00	6	Velocidad del viento	4.8
112306	7	Sololá	701	Sololá	4	Finca Santa Victoria	6	Junio	2023-11-06T00:00:00	2024-11-08T15:00:00	7	Dirección del viento	4.83
112307	7	Sololá	701	Sololá	4	Finca Santa Victoria	6	Junio	2023-11-06T00:00:00	2024-11-08T15:00:00	1	Precipitación	0
112308	7	Sololá	701	Sololá	4	Finca Santa Victoria	6	Junio	2023-11-06T00:00:00	2024-11-08T15:00:00	8	Radiación solar	220
112309	7	Sololá	701	Sololá	4	Finca Santa Victoria	6	Junio	2023-11-06T00:00:00	2024-11-08T16:00:00	2	Temperatura media	18.1
112310	7	Sololá	701	Sololá	4	Finca Santa Victoria	6	Junio	2023-11-06T00:00:00	2024-11-08T16:00:00	4	Temperatura máxima	19.8
112311	7	Sololá	701	Sololá	4	Finca Santa Victoria	6	Junio	2023-11-06T00:00:00	2024-11-08T16:00:00	3	Temperatura mínima	18.1
112312	7	Sololá	701	Sololá	4	Finca Santa Victoria	6	Junio	2023-11-06T00:00:00	2024-11-08T16:00:00	5	Humedad	93
112313	7	Sololá	701	Sololá	4	Finca Santa Victoria	6	Junio	2023-11-06T00:00:00	2024-11-08T16:00:00	6	Velocidad del viento	3.2
112314	7	Sololá	701	Sololá	4	Finca Santa Victoria	6	Junio	2023-11-06T00:00:00	2024-11-08T16:00:00	7	Dirección del viento	3.22
112315	7	Sololá	701	Sololá	4	Finca Santa Victoria	6	Junio	2023-11-06T00:00:00	2024-11-08T16:00:00	1	Precipitación	0
112316	7	Sololá	701	Sololá	4	Finca Santa Victoria	6	Junio	2023-11-06T00:00:00	2024-11-08T16:00:00	8	Radiación solar	126
112317	7	Sololá	701	Sololá	4	Finca Santa Victoria	6	Junio	2023-11-06T00:00:00	2024-11-08T17:00:00	2	Temperatura media	17.8
112318	7	Sololá	701	Sololá	4	Finca Santa Victoria	6	Junio	2023-11-06T00:00:00	2024-11-08T17:00:00	4	Temperatura máxima	18.2
112319	7	Sololá	701	Sololá	4	Finca Santa Victoria	6	Junio	2023-11-06T00:00:00	2024-11-08T17:00:00	3	Temperatura mínima	17.8
112320	7	Sololá	701	Sololá	4	Finca Santa Victoria	6	Junio	2023-11-06T00:00:00	2024-11-08T17:00:00	5	Humedad	93
112321	7	Sololá	701	Sololá	4	Finca Santa Victoria	6	Junio	2023-11-06T00:00:00	2024-11-08T17:00:00	6	Velocidad del viento	3.2
112322	7	Sololá	701	Sololá	4	Finca Santa Victoria	6	Junio	2023-11-06T00:00:00	2024-11-08T17:00:00	7	Dirección del viento	3.22
112323	7	Sololá	701	Sololá	4	Finca Santa Victoria	6	Junio	2023-11-06T00:00:00	2024-11-08T17:00:00	1	Precipitación	0
112324	7	Sololá	701	Sololá	4	Finca Santa Victoria	6	Junio	2023-11-06T00:00:00	2024-11-08T17:00:00	8	Radiación solar	97
112325	7	Sololá	701	Sololá	4	Finca Santa Victoria	6	Junio	2023-11-06T00:00:00	2024-11-08T18:00:00	2	Temperatura media	17.3
112326	7	Sololá	701	Sololá	4	Finca Santa Victoria	6	Junio	2023-11-06T00:00:00	2024-11-08T18:00:00	4	Temperatura máxima	17.8
112327	7	Sololá	701	Sololá	4	Finca Santa Victoria	6	Junio	2023-11-06T00:00:00	2024-11-08T18:00:00	3	Temperatura mínima	17.3
112328	7	Sololá	701	Sololá	4	Finca Santa Victoria	6	Junio	2023-11-06T00:00:00	2024-11-08T18:00:00	5	Humedad	96
112329	7	Sololá	701	Sololá	4	Finca Santa Victoria	6	Junio	2023-11-06T00:00:00	2024-11-08T18:00:00	6	Velocidad del viento	1.6
112330	7	Sololá	701	Sololá	4	Finca Santa Victoria	6	Junio	2023-11-06T00:00:00	2024-11-08T18:00:00	7	Dirección del viento	1.61
112331	7	Sololá	701	Sololá	4	Finca Santa Victoria	6	Junio	2023-11-06T00:00:00	2024-11-08T18:00:00	1	Precipitación	0
112332	7	Sololá	701	Sololá	4	Finca Santa Victoria	6	Junio	2023-11-06T00:00:00	2024-11-08T18:00:00	8	Radiación solar	45
112333	7	Sololá	701	Sololá	4	Finca Santa Victoria	6	Junio	2023-11-06T00:00:00	2024-11-08T19:00:00	2	Temperatura media	16.8
112334	7	Sololá	701	Sololá	4	Finca Santa Victoria	6	Junio	2023-11-06T00:00:00	2024-11-08T19:00:00	4	Temperatura máxima	17.3
112335	7	Sololá	701	Sololá	4	Finca Santa Victoria	6	Junio	2023-11-06T00:00:00	2024-11-08T19:00:00	3	Temperatura mínima	16.7
112336	7	Sololá	701	Sololá	4	Finca Santa Victoria	6	Junio	2023-11-06T00:00:00	2024-11-08T19:00:00	5	Humedad	97
112337	7	Sololá	701	Sololá	4	Finca Santa Victoria	6	Junio	2023-11-06T00:00:00	2024-11-08T19:00:00	6	Velocidad del viento	0
112338	7	Sololá	701	Sololá	4	Finca Santa Victoria	6	Junio	2023-11-06T00:00:00	2024-11-08T19:00:00	7	Dirección del viento	0
112339	7	Sololá	701	Sololá	4	Finca Santa Victoria	6	Junio	2023-11-06T00:00:00	2024-11-08T19:00:00	1	Precipitación	0
112340	7	Sololá	701	Sololá	4	Finca Santa Victoria	6	Junio	2023-11-06T00:00:00	2024-11-08T19:00:00	8	Radiación solar	0
112341	7	Sololá	701	Sololá	4	Finca Santa Victoria	6	Junio	2023-11-06T00:00:00	2024-11-08T20:00:00	2	Temperatura media	16.1
112342	7	Sololá	701	Sololá	4	Finca Santa Victoria	6	Junio	2023-11-06T00:00:00	2024-11-08T20:00:00	4	Temperatura máxima	16.8
112343	7	Sololá	701	Sololá	4	Finca Santa Victoria	6	Junio	2023-11-06T00:00:00	2024-11-08T20:00:00	3	Temperatura mínima	16
112344	7	Sololá	701	Sololá	4	Finca Santa Victoria	6	Junio	2023-11-06T00:00:00	2024-11-08T20:00:00	5	Humedad	97
112345	7	Sololá	701	Sololá	4	Finca Santa Victoria	6	Junio	2023-11-06T00:00:00	2024-11-08T20:00:00	6	Velocidad del viento	0
112346	7	Sololá	701	Sololá	4	Finca Santa Victoria	6	Junio	2023-11-06T00:00:00	2024-11-08T20:00:00	7	Dirección del viento	0
112347	7	Sololá	701	Sololá	4	Finca Santa Victoria	6	Junio	2023-11-06T00:00:00	2024-11-08T20:00:00	1	Precipitación	0
112348	7	Sololá	701	Sololá	4	Finca Santa Victoria	6	Junio	2023-11-06T00:00:00	2024-11-08T20:00:00	8	Radiación solar	0
112349	7	Sololá	701	Sololá	4	Finca Santa Victoria	6	Junio	2023-11-06T00:00:00	2024-11-08T21:00:00	2	Temperatura media	15.5
112350	7	Sololá	701	Sololá	4	Finca Santa Victoria	6	Junio	2023-11-06T00:00:00	2024-11-08T21:00:00	4	Temperatura máxima	16.1
112351	7	Sololá	701	Sololá	4	Finca Santa Victoria	6	Junio	2023-11-06T00:00:00	2024-11-08T21:00:00	3	Temperatura mínima	15.5
112352	7	Sololá	701	Sololá	4	Finca Santa Victoria	6	Junio	2023-11-06T00:00:00	2024-11-08T21:00:00	5	Humedad	97
112353	7	Sololá	701	Sololá	4	Finca Santa Victoria	6	Junio	2023-11-06T00:00:00	2024-11-08T21:00:00	6	Velocidad del viento	0
112354	7	Sololá	701	Sololá	4	Finca Santa Victoria	6	Junio	2023-11-06T00:00:00	2024-11-08T21:00:00	7	Dirección del viento	0
112355	7	Sololá	701	Sololá	4	Finca Santa Victoria	6	Junio	2023-11-06T00:00:00	2024-11-08T21:00:00	1	Precipitación	0
112356	7	Sololá	701	Sololá	4	Finca Santa Victoria	6	Junio	2023-11-06T00:00:00	2024-11-08T21:00:00	8	Radiación solar	0
112357	7	Sololá	701	Sololá	4	Finca Santa Victoria	6	Junio	2023-11-06T00:00:00	2024-11-08T22:00:00	2	Temperatura media	15.1
112358	7	Sololá	701	Sololá	4	Finca Santa Victoria	6	Junio	2023-11-06T00:00:00	2024-11-08T22:00:00	4	Temperatura máxima	15.6
112359	7	Sololá	701	Sololá	4	Finca Santa Victoria	6	Junio	2023-11-06T00:00:00	2024-11-08T22:00:00	3	Temperatura mínima	15.1
112360	7	Sololá	701	Sololá	4	Finca Santa Victoria	6	Junio	2023-11-06T00:00:00	2024-11-08T22:00:00	5	Humedad	97
112361	7	Sololá	701	Sololá	4	Finca Santa Victoria	6	Junio	2023-11-06T00:00:00	2024-11-08T22:00:00	6	Velocidad del viento	0
112362	7	Sololá	701	Sololá	4	Finca Santa Victoria	6	Junio	2023-11-06T00:00:00	2024-11-08T22:00:00	7	Dirección del viento	0
112363	7	Sololá	701	Sololá	4	Finca Santa Victoria	6	Junio	2023-11-06T00:00:00	2024-11-08T22:00:00	1	Precipitación	0
112364	7	Sololá	701	Sololá	4	Finca Santa Victoria	6	Junio	2023-11-06T00:00:00	2024-11-08T22:00:00	8	Radiación solar	0
112365	7	Sololá	701	Sololá	4	Finca Santa Victoria	6	Junio	2023-11-06T00:00:00	2024-11-08T23:00:00	2	Temperatura media	14.6
112366	7	Sololá	701	Sololá	4	Finca Santa Victoria	6	Junio	2023-11-06T00:00:00	2024-11-08T23:00:00	4	Temperatura máxima	15.1
112367	7	Sololá	701	Sololá	4	Finca Santa Victoria	6	Junio	2023-11-06T00:00:00	2024-11-08T23:00:00	3	Temperatura mínima	14.5
112368	7	Sololá	701	Sololá	4	Finca Santa Victoria	6	Junio	2023-11-06T00:00:00	2024-11-08T23:00:00	5	Humedad	92
112369	7	Sololá	701	Sololá	4	Finca Santa Victoria	6	Junio	2023-11-06T00:00:00	2024-11-08T23:00:00	6	Velocidad del viento	0
112370	7	Sololá	701	Sololá	4	Finca Santa Victoria	6	Junio	2023-11-06T00:00:00	2024-11-08T23:00:00	7	Dirección del viento	0
112371	7	Sololá	701	Sololá	4	Finca Santa Victoria	6	Junio	2023-11-06T00:00:00	2024-11-08T23:00:00	1	Precipitación	0
112372	7	Sololá	701	Sololá	4	Finca Santa Victoria	6	Junio	2023-11-06T00:00:00	2024-11-08T23:00:00	8	Radiación solar	0
112373	7	Sololá	701	Sololá	4	Finca Santa Victoria	6	Junio	2023-12-06T00:00:00	2024-11-08T00:00:00	2	Temperatura media	15.5
112374	7	Sololá	701	Sololá	4	Finca Santa Victoria	6	Junio	2023-12-06T00:00:00	2024-11-08T00:00:00	4	Temperatura máxima	15.5
112375	7	Sololá	701	Sololá	4	Finca Santa Victoria	6	Junio	2023-12-06T00:00:00	2024-11-08T00:00:00	3	Temperatura mínima	14.4
112376	7	Sololá	701	Sololá	4	Finca Santa Victoria	6	Junio	2023-12-06T00:00:00	2024-11-08T00:00:00	5	Humedad	87
112377	7	Sololá	701	Sololá	4	Finca Santa Victoria	6	Junio	2023-12-06T00:00:00	2024-11-08T00:00:00	6	Velocidad del viento	1.6
112378	7	Sololá	701	Sololá	4	Finca Santa Victoria	6	Junio	2023-12-06T00:00:00	2024-11-08T00:00:00	7	Dirección del viento	1.61
112379	7	Sololá	701	Sololá	4	Finca Santa Victoria	6	Junio	2023-12-06T00:00:00	2024-11-08T00:00:00	1	Precipitación	0
112380	7	Sololá	701	Sololá	4	Finca Santa Victoria	6	Junio	2023-12-06T00:00:00	2024-11-08T00:00:00	8	Radiación solar	0
112381	7	Sololá	701	Sololá	4	Finca Santa Victoria	6	Junio	2023-12-06T00:00:00	2024-11-08T01:00:00	2	Temperatura media	15
112382	7	Sololá	701	Sololá	4	Finca Santa Victoria	6	Junio	2023-12-06T00:00:00	2024-11-08T01:00:00	4	Temperatura máxima	15.8
112383	7	Sololá	701	Sololá	4	Finca Santa Victoria	6	Junio	2023-12-06T00:00:00	2024-11-08T01:00:00	3	Temperatura mínima	14.9
112384	7	Sololá	701	Sololá	4	Finca Santa Victoria	6	Junio	2023-12-06T00:00:00	2024-11-08T01:00:00	5	Humedad	87
112385	7	Sololá	701	Sololá	4	Finca Santa Victoria	6	Junio	2023-12-06T00:00:00	2024-11-08T01:00:00	6	Velocidad del viento	1.6
112386	7	Sololá	701	Sololá	4	Finca Santa Victoria	6	Junio	2023-12-06T00:00:00	2024-11-08T01:00:00	7	Dirección del viento	1.61
112387	7	Sololá	701	Sololá	4	Finca Santa Victoria	6	Junio	2023-12-06T00:00:00	2024-11-08T01:00:00	1	Precipitación	0
112388	7	Sololá	701	Sololá	4	Finca Santa Victoria	6	Junio	2023-12-06T00:00:00	2024-11-08T01:00:00	8	Radiación solar	0
112389	7	Sololá	701	Sololá	4	Finca Santa Victoria	6	Junio	2023-12-06T00:00:00	2024-11-08T02:00:00	2	Temperatura media	14.3
112390	7	Sololá	701	Sololá	4	Finca Santa Victoria	6	Junio	2023-12-06T00:00:00	2024-11-08T02:00:00	4	Temperatura máxima	14.9
112391	7	Sololá	701	Sololá	4	Finca Santa Victoria	6	Junio	2023-12-06T00:00:00	2024-11-08T02:00:00	3	Temperatura mínima	14.2
112392	7	Sololá	701	Sololá	4	Finca Santa Victoria	6	Junio	2023-12-06T00:00:00	2024-11-08T02:00:00	5	Humedad	88
112393	7	Sololá	701	Sololá	4	Finca Santa Victoria	6	Junio	2023-12-06T00:00:00	2024-11-08T02:00:00	6	Velocidad del viento	0
112394	7	Sololá	701	Sololá	4	Finca Santa Victoria	6	Junio	2023-12-06T00:00:00	2024-11-08T02:00:00	7	Dirección del viento	0
112395	7	Sololá	701	Sololá	4	Finca Santa Victoria	6	Junio	2023-12-06T00:00:00	2024-11-08T02:00:00	1	Precipitación	0
112396	7	Sololá	701	Sololá	4	Finca Santa Victoria	6	Junio	2023-12-06T00:00:00	2024-11-08T02:00:00	8	Radiación solar	0
112397	7	Sololá	701	Sololá	4	Finca Santa Victoria	6	Junio	2023-12-06T00:00:00	2024-11-08T03:00:00	2	Temperatura media	14.4
112398	7	Sololá	701	Sololá	4	Finca Santa Victoria	6	Junio	2023-12-06T00:00:00	2024-11-08T03:00:00	4	Temperatura máxima	14.5
112399	7	Sololá	701	Sololá	4	Finca Santa Victoria	6	Junio	2023-12-06T00:00:00	2024-11-08T03:00:00	3	Temperatura mínima	14.2
112400	7	Sololá	701	Sololá	4	Finca Santa Victoria	6	Junio	2023-12-06T00:00:00	2024-11-08T03:00:00	5	Humedad	86
112401	7	Sololá	701	Sololá	4	Finca Santa Victoria	6	Junio	2023-12-06T00:00:00	2024-11-08T03:00:00	6	Velocidad del viento	1.6
112402	7	Sololá	701	Sololá	4	Finca Santa Victoria	6	Junio	2023-12-06T00:00:00	2024-11-08T03:00:00	7	Dirección del viento	1.61
112403	7	Sololá	701	Sololá	4	Finca Santa Victoria	6	Junio	2023-12-06T00:00:00	2024-11-08T03:00:00	1	Precipitación	0
112404	7	Sololá	701	Sololá	4	Finca Santa Victoria	6	Junio	2023-12-06T00:00:00	2024-11-08T03:00:00	8	Radiación solar	0
112405	7	Sololá	701	Sololá	4	Finca Santa Victoria	6	Junio	2023-12-06T00:00:00	2024-11-08T04:00:00	2	Temperatura media	14.6
112406	7	Sololá	701	Sololá	4	Finca Santa Victoria	6	Junio	2023-12-06T00:00:00	2024-11-08T04:00:00	4	Temperatura máxima	15.1
112407	7	Sololá	701	Sololá	4	Finca Santa Victoria	6	Junio	2023-12-06T00:00:00	2024-11-08T04:00:00	3	Temperatura mínima	14.4
112408	7	Sololá	701	Sololá	4	Finca Santa Victoria	6	Junio	2023-12-06T00:00:00	2024-11-08T04:00:00	5	Humedad	84
112409	7	Sololá	701	Sololá	4	Finca Santa Victoria	6	Junio	2023-12-06T00:00:00	2024-11-08T04:00:00	6	Velocidad del viento	1.6
112410	7	Sololá	701	Sololá	4	Finca Santa Victoria	6	Junio	2023-12-06T00:00:00	2024-11-08T04:00:00	7	Dirección del viento	1.61
112411	7	Sololá	701	Sololá	4	Finca Santa Victoria	6	Junio	2023-12-06T00:00:00	2024-11-08T04:00:00	1	Precipitación	0
112412	7	Sololá	701	Sololá	4	Finca Santa Victoria	6	Junio	2023-12-06T00:00:00	2024-11-08T04:00:00	8	Radiación solar	0
112413	7	Sololá	701	Sololá	4	Finca Santa Victoria	6	Junio	2023-12-06T00:00:00	2024-11-08T05:00:00	2	Temperatura media	14.3
112414	7	Sololá	701	Sololá	4	Finca Santa Victoria	6	Junio	2023-12-06T00:00:00	2024-11-08T05:00:00	4	Temperatura máxima	14.7
112415	7	Sololá	701	Sololá	4	Finca Santa Victoria	6	Junio	2023-12-06T00:00:00	2024-11-08T05:00:00	3	Temperatura mínima	14.2
112416	7	Sololá	701	Sololá	4	Finca Santa Victoria	6	Junio	2023-12-06T00:00:00	2024-11-08T05:00:00	5	Humedad	84
112417	7	Sololá	701	Sololá	4	Finca Santa Victoria	6	Junio	2023-12-06T00:00:00	2024-11-08T05:00:00	6	Velocidad del viento	1.6
112418	7	Sololá	701	Sololá	4	Finca Santa Victoria	6	Junio	2023-12-06T00:00:00	2024-11-08T05:00:00	7	Dirección del viento	1.61
112419	7	Sololá	701	Sololá	4	Finca Santa Victoria	6	Junio	2023-12-06T00:00:00	2024-11-08T05:00:00	1	Precipitación	0
112420	7	Sololá	701	Sololá	4	Finca Santa Victoria	6	Junio	2023-12-06T00:00:00	2024-11-08T05:00:00	8	Radiación solar	0
112421	7	Sololá	701	Sololá	4	Finca Santa Victoria	6	Junio	2023-12-06T00:00:00	2024-11-08T06:00:00	2	Temperatura media	14.2
112422	7	Sololá	701	Sololá	4	Finca Santa Victoria	6	Junio	2023-12-06T00:00:00	2024-11-08T06:00:00	4	Temperatura máxima	14.3
112423	7	Sololá	701	Sololá	4	Finca Santa Victoria	6	Junio	2023-12-06T00:00:00	2024-11-08T06:00:00	3	Temperatura mínima	13.9
112424	7	Sololá	701	Sololá	4	Finca Santa Victoria	6	Junio	2023-12-06T00:00:00	2024-11-08T06:00:00	5	Humedad	86
112425	7	Sololá	701	Sololá	4	Finca Santa Victoria	6	Junio	2023-12-06T00:00:00	2024-11-08T06:00:00	6	Velocidad del viento	0
112426	7	Sololá	701	Sololá	4	Finca Santa Victoria	6	Junio	2023-12-06T00:00:00	2024-11-08T06:00:00	7	Dirección del viento	0
112427	7	Sololá	701	Sololá	4	Finca Santa Victoria	6	Junio	2023-12-06T00:00:00	2024-11-08T06:00:00	1	Precipitación	0
112428	7	Sololá	701	Sololá	4	Finca Santa Victoria	6	Junio	2023-12-06T00:00:00	2024-11-08T06:00:00	8	Radiación solar	5
112429	7	Sololá	701	Sololá	4	Finca Santa Victoria	6	Junio	2023-12-06T00:00:00	2024-11-08T07:00:00	2	Temperatura media	15.8
112430	7	Sololá	701	Sololá	4	Finca Santa Victoria	6	Junio	2023-12-06T00:00:00	2024-11-08T07:00:00	4	Temperatura máxima	15.8
112431	7	Sololá	701	Sololá	4	Finca Santa Victoria	6	Junio	2023-12-06T00:00:00	2024-11-08T07:00:00	3	Temperatura mínima	14.1
112432	7	Sololá	701	Sololá	4	Finca Santa Victoria	6	Junio	2023-12-06T00:00:00	2024-11-08T07:00:00	5	Humedad	80
112433	7	Sololá	701	Sololá	4	Finca Santa Victoria	6	Junio	2023-12-06T00:00:00	2024-11-08T07:00:00	6	Velocidad del viento	1.6
112434	7	Sololá	701	Sololá	4	Finca Santa Victoria	6	Junio	2023-12-06T00:00:00	2024-11-08T07:00:00	7	Dirección del viento	1.61
112435	7	Sololá	701	Sololá	4	Finca Santa Victoria	6	Junio	2023-12-06T00:00:00	2024-11-08T07:00:00	1	Precipitación	0
112436	7	Sololá	701	Sololá	4	Finca Santa Victoria	6	Junio	2023-12-06T00:00:00	2024-11-08T07:00:00	8	Radiación solar	43
112437	7	Sololá	701	Sololá	4	Finca Santa Victoria	6	Junio	2023-12-06T00:00:00	2024-11-08T08:00:00	2	Temperatura media	18.8
112438	7	Sololá	701	Sololá	4	Finca Santa Victoria	6	Junio	2023-12-06T00:00:00	2024-11-08T08:00:00	4	Temperatura máxima	18.8
112439	7	Sololá	701	Sololá	4	Finca Santa Victoria	6	Junio	2023-12-06T00:00:00	2024-11-08T08:00:00	3	Temperatura mínima	15.8
112440	7	Sololá	701	Sololá	4	Finca Santa Victoria	6	Junio	2023-12-06T00:00:00	2024-11-08T08:00:00	5	Humedad	68
112441	7	Sololá	701	Sololá	4	Finca Santa Victoria	6	Junio	2023-12-06T00:00:00	2024-11-08T08:00:00	6	Velocidad del viento	3.2
112442	7	Sololá	701	Sololá	4	Finca Santa Victoria	6	Junio	2023-12-06T00:00:00	2024-11-08T08:00:00	7	Dirección del viento	3.22
112443	7	Sololá	701	Sololá	4	Finca Santa Victoria	6	Junio	2023-12-06T00:00:00	2024-11-08T08:00:00	1	Precipitación	0
112444	7	Sololá	701	Sololá	4	Finca Santa Victoria	6	Junio	2023-12-06T00:00:00	2024-11-08T08:00:00	8	Radiación solar	244
112445	7	Sololá	701	Sololá	4	Finca Santa Victoria	6	Junio	2023-12-06T00:00:00	2024-11-08T09:00:00	2	Temperatura media	20.2
112446	7	Sololá	701	Sololá	4	Finca Santa Victoria	6	Junio	2023-12-06T00:00:00	2024-11-08T09:00:00	4	Temperatura máxima	20.3
112447	7	Sololá	701	Sololá	4	Finca Santa Victoria	6	Junio	2023-12-06T00:00:00	2024-11-08T09:00:00	3	Temperatura mínima	18.8
112448	7	Sololá	701	Sololá	4	Finca Santa Victoria	6	Junio	2023-12-06T00:00:00	2024-11-08T09:00:00	5	Humedad	66
112449	7	Sololá	701	Sololá	4	Finca Santa Victoria	6	Junio	2023-12-06T00:00:00	2024-11-08T09:00:00	6	Velocidad del viento	3.2
112450	7	Sololá	701	Sololá	4	Finca Santa Victoria	6	Junio	2023-12-06T00:00:00	2024-11-08T09:00:00	7	Dirección del viento	3.22
112451	7	Sololá	701	Sololá	4	Finca Santa Victoria	6	Junio	2023-12-06T00:00:00	2024-11-08T09:00:00	1	Precipitación	0
112452	7	Sololá	701	Sololá	4	Finca Santa Victoria	6	Junio	2023-12-06T00:00:00	2024-11-08T09:00:00	8	Radiación solar	406
112453	7	Sololá	701	Sololá	4	Finca Santa Victoria	6	Junio	2023-12-06T00:00:00	2024-11-08T10:00:00	2	Temperatura media	21.5
112454	7	Sololá	701	Sololá	4	Finca Santa Victoria	6	Junio	2023-12-06T00:00:00	2024-11-08T10:00:00	4	Temperatura máxima	21.6
112455	7	Sololá	701	Sololá	4	Finca Santa Victoria	6	Junio	2023-12-06T00:00:00	2024-11-08T10:00:00	3	Temperatura mínima	20.2
112456	7	Sololá	701	Sololá	4	Finca Santa Victoria	6	Junio	2023-12-06T00:00:00	2024-11-08T10:00:00	5	Humedad	56
112457	7	Sololá	701	Sololá	4	Finca Santa Victoria	6	Junio	2023-12-06T00:00:00	2024-11-08T10:00:00	6	Velocidad del viento	4.8
112458	7	Sololá	701	Sololá	4	Finca Santa Victoria	6	Junio	2023-12-06T00:00:00	2024-11-08T10:00:00	7	Dirección del viento	4.83
112459	7	Sololá	701	Sololá	4	Finca Santa Victoria	6	Junio	2023-12-06T00:00:00	2024-11-08T10:00:00	1	Precipitación	0
112460	7	Sololá	701	Sololá	4	Finca Santa Victoria	6	Junio	2023-12-06T00:00:00	2024-11-08T10:00:00	8	Radiación solar	258
112461	7	Sololá	701	Sololá	4	Finca Santa Victoria	6	Junio	2023-12-06T00:00:00	2024-11-08T11:00:00	2	Temperatura media	23.2
112462	7	Sololá	701	Sololá	4	Finca Santa Victoria	6	Junio	2023-12-06T00:00:00	2024-11-08T11:00:00	4	Temperatura máxima	23.3
112463	7	Sololá	701	Sololá	4	Finca Santa Victoria	6	Junio	2023-12-06T00:00:00	2024-11-08T11:00:00	3	Temperatura mínima	21.4
112464	7	Sololá	701	Sololá	4	Finca Santa Victoria	6	Junio	2023-12-06T00:00:00	2024-11-08T11:00:00	5	Humedad	56
112465	7	Sololá	701	Sololá	4	Finca Santa Victoria	6	Junio	2023-12-06T00:00:00	2024-11-08T11:00:00	6	Velocidad del viento	3.2
112466	7	Sololá	701	Sololá	4	Finca Santa Victoria	6	Junio	2023-12-06T00:00:00	2024-11-08T11:00:00	7	Dirección del viento	3.22
112467	7	Sololá	701	Sololá	4	Finca Santa Victoria	6	Junio	2023-12-06T00:00:00	2024-11-08T11:00:00	1	Precipitación	0
112468	7	Sololá	701	Sololá	4	Finca Santa Victoria	6	Junio	2023-12-06T00:00:00	2024-11-08T11:00:00	8	Radiación solar	401
112469	7	Sololá	701	Sololá	4	Finca Santa Victoria	6	Junio	2023-12-06T00:00:00	2024-11-08T12:00:00	2	Temperatura media	24.3
112470	7	Sololá	701	Sololá	4	Finca Santa Victoria	6	Junio	2023-12-06T00:00:00	2024-11-08T12:00:00	4	Temperatura máxima	24.6
112471	7	Sololá	701	Sololá	4	Finca Santa Victoria	6	Junio	2023-12-06T00:00:00	2024-11-08T12:00:00	3	Temperatura mínima	23.2
112472	7	Sololá	701	Sololá	4	Finca Santa Victoria	6	Junio	2023-12-06T00:00:00	2024-11-08T12:00:00	5	Humedad	51
112473	7	Sololá	701	Sololá	4	Finca Santa Victoria	6	Junio	2023-12-06T00:00:00	2024-11-08T12:00:00	6	Velocidad del viento	3.2
112474	7	Sololá	701	Sololá	4	Finca Santa Victoria	6	Junio	2023-12-06T00:00:00	2024-11-08T12:00:00	7	Dirección del viento	3.22
112475	7	Sololá	701	Sololá	4	Finca Santa Victoria	6	Junio	2023-12-06T00:00:00	2024-11-08T12:00:00	1	Precipitación	0
112476	7	Sololá	701	Sololá	4	Finca Santa Victoria	6	Junio	2023-12-06T00:00:00	2024-11-08T12:00:00	8	Radiación solar	960
112477	7	Sololá	701	Sololá	4	Finca Santa Victoria	6	Junio	2023-12-06T00:00:00	2024-11-08T13:00:00	2	Temperatura media	23.6
112478	7	Sololá	701	Sololá	4	Finca Santa Victoria	6	Junio	2023-12-06T00:00:00	2024-11-08T13:00:00	4	Temperatura máxima	24.6
112479	7	Sololá	701	Sololá	4	Finca Santa Victoria	6	Junio	2023-12-06T00:00:00	2024-11-08T13:00:00	3	Temperatura mínima	23.2
112480	7	Sololá	701	Sololá	4	Finca Santa Victoria	6	Junio	2023-12-06T00:00:00	2024-11-08T13:00:00	5	Humedad	62
112481	7	Sololá	701	Sololá	4	Finca Santa Victoria	6	Junio	2023-12-06T00:00:00	2024-11-08T13:00:00	6	Velocidad del viento	3.2
112482	7	Sololá	701	Sololá	4	Finca Santa Victoria	6	Junio	2023-12-06T00:00:00	2024-11-08T13:00:00	7	Dirección del viento	3.22
112483	7	Sololá	701	Sololá	4	Finca Santa Victoria	6	Junio	2023-12-06T00:00:00	2024-11-08T13:00:00	1	Precipitación	0
112484	7	Sololá	701	Sololá	4	Finca Santa Victoria	6	Junio	2023-12-06T00:00:00	2024-11-08T13:00:00	8	Radiación solar	689
112485	7	Sololá	701	Sololá	4	Finca Santa Victoria	6	Junio	2023-12-06T00:00:00	2024-11-08T14:00:00	2	Temperatura media	21.3
112486	7	Sololá	701	Sololá	4	Finca Santa Victoria	6	Junio	2023-12-06T00:00:00	2024-11-08T14:00:00	4	Temperatura máxima	25
112487	7	Sololá	701	Sololá	4	Finca Santa Victoria	6	Junio	2023-12-06T00:00:00	2024-11-08T14:00:00	3	Temperatura mínima	21.3
112488	7	Sololá	701	Sololá	4	Finca Santa Victoria	6	Junio	2023-12-06T00:00:00	2024-11-08T14:00:00	5	Humedad	80
112489	7	Sololá	701	Sololá	4	Finca Santa Victoria	6	Junio	2023-12-06T00:00:00	2024-11-08T14:00:00	6	Velocidad del viento	3.2
112490	7	Sololá	701	Sololá	4	Finca Santa Victoria	6	Junio	2023-12-06T00:00:00	2024-11-08T14:00:00	7	Dirección del viento	3.22
112491	7	Sololá	701	Sololá	4	Finca Santa Victoria	6	Junio	2023-12-06T00:00:00	2024-11-08T14:00:00	1	Precipitación	0
112492	7	Sololá	701	Sololá	4	Finca Santa Victoria	6	Junio	2023-12-06T00:00:00	2024-11-08T14:00:00	8	Radiación solar	653
112493	7	Sololá	701	Sololá	4	Finca Santa Victoria	6	Junio	2023-12-06T00:00:00	2024-11-08T15:00:00	2	Temperatura media	20.6
112494	7	Sololá	701	Sololá	4	Finca Santa Victoria	6	Junio	2023-12-06T00:00:00	2024-11-08T15:00:00	4	Temperatura máxima	21.4
112495	7	Sololá	701	Sololá	4	Finca Santa Victoria	6	Junio	2023-12-06T00:00:00	2024-11-08T15:00:00	3	Temperatura mínima	19.8
112496	7	Sololá	701	Sololá	4	Finca Santa Victoria	6	Junio	2023-12-06T00:00:00	2024-11-08T15:00:00	5	Humedad	85
112497	7	Sololá	701	Sololá	4	Finca Santa Victoria	6	Junio	2023-12-06T00:00:00	2024-11-08T15:00:00	6	Velocidad del viento	3.2
112498	7	Sololá	701	Sololá	4	Finca Santa Victoria	6	Junio	2023-12-06T00:00:00	2024-11-08T15:00:00	7	Dirección del viento	3.22
112499	7	Sololá	701	Sololá	4	Finca Santa Victoria	6	Junio	2023-12-06T00:00:00	2024-11-08T15:00:00	1	Precipitación	0
112500	7	Sololá	701	Sololá	4	Finca Santa Victoria	6	Junio	2023-12-06T00:00:00	2024-11-08T15:00:00	8	Radiación solar	214
112501	7	Sololá	701	Sololá	4	Finca Santa Victoria	6	Junio	2023-12-06T00:00:00	2024-11-08T16:00:00	2	Temperatura media	19.1
112502	7	Sololá	701	Sololá	4	Finca Santa Victoria	6	Junio	2023-12-06T00:00:00	2024-11-08T16:00:00	4	Temperatura máxima	20.9
112503	7	Sololá	701	Sololá	4	Finca Santa Victoria	6	Junio	2023-12-06T00:00:00	2024-11-08T16:00:00	3	Temperatura mínima	19.1
112504	7	Sololá	701	Sololá	4	Finca Santa Victoria	6	Junio	2023-12-06T00:00:00	2024-11-08T16:00:00	5	Humedad	90
112505	7	Sololá	701	Sololá	4	Finca Santa Victoria	6	Junio	2023-12-06T00:00:00	2024-11-08T16:00:00	6	Velocidad del viento	4.8
112506	7	Sololá	701	Sololá	4	Finca Santa Victoria	6	Junio	2023-12-06T00:00:00	2024-11-08T16:00:00	7	Dirección del viento	4.83
112507	7	Sololá	701	Sololá	4	Finca Santa Victoria	6	Junio	2023-12-06T00:00:00	2024-11-08T16:00:00	1	Precipitación	0
112508	7	Sololá	701	Sololá	4	Finca Santa Victoria	6	Junio	2023-12-06T00:00:00	2024-11-08T16:00:00	8	Radiación solar	167
112509	7	Sololá	701	Sololá	4	Finca Santa Victoria	6	Junio	2023-12-06T00:00:00	2024-11-08T17:00:00	2	Temperatura media	17.8
112510	7	Sololá	701	Sololá	4	Finca Santa Victoria	6	Junio	2023-12-06T00:00:00	2024-11-08T17:00:00	4	Temperatura máxima	19.4
112511	7	Sololá	701	Sololá	4	Finca Santa Victoria	6	Junio	2023-12-06T00:00:00	2024-11-08T17:00:00	3	Temperatura mínima	17.8
112512	7	Sololá	701	Sololá	4	Finca Santa Victoria	6	Junio	2023-12-06T00:00:00	2024-11-08T17:00:00	5	Humedad	94
112513	7	Sololá	701	Sololá	4	Finca Santa Victoria	6	Junio	2023-12-06T00:00:00	2024-11-08T17:00:00	6	Velocidad del viento	3.2
112514	7	Sololá	701	Sololá	4	Finca Santa Victoria	6	Junio	2023-12-06T00:00:00	2024-11-08T17:00:00	7	Dirección del viento	3.22
112515	7	Sololá	701	Sololá	4	Finca Santa Victoria	6	Junio	2023-12-06T00:00:00	2024-11-08T17:00:00	1	Precipitación	0
112516	7	Sololá	701	Sololá	4	Finca Santa Victoria	6	Junio	2023-12-06T00:00:00	2024-11-08T17:00:00	8	Radiación solar	70
112517	7	Sololá	701	Sololá	4	Finca Santa Victoria	6	Junio	2023-12-06T00:00:00	2024-11-08T18:00:00	2	Temperatura media	17.4
112518	7	Sololá	701	Sololá	4	Finca Santa Victoria	6	Junio	2023-12-06T00:00:00	2024-11-08T18:00:00	4	Temperatura máxima	17.9
112519	7	Sololá	701	Sololá	4	Finca Santa Victoria	6	Junio	2023-12-06T00:00:00	2024-11-08T18:00:00	3	Temperatura mínima	17.4
112520	7	Sololá	701	Sololá	4	Finca Santa Victoria	6	Junio	2023-12-06T00:00:00	2024-11-08T18:00:00	5	Humedad	96
112521	7	Sololá	701	Sololá	4	Finca Santa Victoria	6	Junio	2023-12-06T00:00:00	2024-11-08T18:00:00	6	Velocidad del viento	1.6
112522	7	Sololá	701	Sololá	4	Finca Santa Victoria	6	Junio	2023-12-06T00:00:00	2024-11-08T18:00:00	7	Dirección del viento	1.61
112523	7	Sololá	701	Sololá	4	Finca Santa Victoria	6	Junio	2023-12-06T00:00:00	2024-11-08T18:00:00	1	Precipitación	0
112524	7	Sololá	701	Sololá	4	Finca Santa Victoria	6	Junio	2023-12-06T00:00:00	2024-11-08T18:00:00	8	Radiación solar	19
112525	7	Sololá	701	Sololá	4	Finca Santa Victoria	6	Junio	2023-12-06T00:00:00	2024-11-08T19:00:00	2	Temperatura media	16.6
112526	7	Sololá	701	Sololá	4	Finca Santa Victoria	6	Junio	2023-12-06T00:00:00	2024-11-08T19:00:00	4	Temperatura máxima	17.4
112527	7	Sololá	701	Sololá	4	Finca Santa Victoria	6	Junio	2023-12-06T00:00:00	2024-11-08T19:00:00	3	Temperatura mínima	16.6
112528	7	Sololá	701	Sololá	4	Finca Santa Victoria	6	Junio	2023-12-06T00:00:00	2024-11-08T19:00:00	5	Humedad	95
112529	7	Sololá	701	Sololá	4	Finca Santa Victoria	6	Junio	2023-12-06T00:00:00	2024-11-08T19:00:00	6	Velocidad del viento	1.6
112530	7	Sololá	701	Sololá	4	Finca Santa Victoria	6	Junio	2023-12-06T00:00:00	2024-11-08T19:00:00	7	Dirección del viento	1.61
112531	7	Sololá	701	Sololá	4	Finca Santa Victoria	6	Junio	2023-12-06T00:00:00	2024-11-08T19:00:00	1	Precipitación	4.2
112532	7	Sololá	701	Sololá	4	Finca Santa Victoria	6	Junio	2023-12-06T00:00:00	2024-11-08T19:00:00	8	Radiación solar	0
112533	7	Sololá	701	Sololá	4	Finca Santa Victoria	6	Junio	2023-12-06T00:00:00	2024-11-08T20:00:00	2	Temperatura media	15.4
112534	7	Sololá	701	Sololá	4	Finca Santa Victoria	6	Junio	2023-12-06T00:00:00	2024-11-08T20:00:00	4	Temperatura máxima	16.6
112535	7	Sololá	701	Sololá	4	Finca Santa Victoria	6	Junio	2023-12-06T00:00:00	2024-11-08T20:00:00	3	Temperatura mínima	15.4
112536	7	Sololá	701	Sololá	4	Finca Santa Victoria	6	Junio	2023-12-06T00:00:00	2024-11-08T20:00:00	5	Humedad	96
112537	7	Sololá	701	Sololá	4	Finca Santa Victoria	6	Junio	2023-12-06T00:00:00	2024-11-08T20:00:00	6	Velocidad del viento	0
112538	7	Sololá	701	Sololá	4	Finca Santa Victoria	6	Junio	2023-12-06T00:00:00	2024-11-08T20:00:00	7	Dirección del viento	0
112539	7	Sololá	701	Sololá	4	Finca Santa Victoria	6	Junio	2023-12-06T00:00:00	2024-11-08T20:00:00	1	Precipitación	0.4
112540	7	Sololá	701	Sololá	4	Finca Santa Victoria	6	Junio	2023-12-06T00:00:00	2024-11-08T20:00:00	8	Radiación solar	0
112541	7	Sololá	701	Sololá	4	Finca Santa Victoria	6	Junio	2023-12-06T00:00:00	2024-11-08T21:00:00	2	Temperatura media	15.5
112542	7	Sololá	701	Sololá	4	Finca Santa Victoria	6	Junio	2023-12-06T00:00:00	2024-11-08T21:00:00	4	Temperatura máxima	15.7
112543	7	Sololá	701	Sololá	4	Finca Santa Victoria	6	Junio	2023-12-06T00:00:00	2024-11-08T21:00:00	3	Temperatura mínima	15.3
112544	7	Sololá	701	Sololá	4	Finca Santa Victoria	6	Junio	2023-12-06T00:00:00	2024-11-08T21:00:00	5	Humedad	90
112545	7	Sololá	701	Sololá	4	Finca Santa Victoria	6	Junio	2023-12-06T00:00:00	2024-11-08T21:00:00	6	Velocidad del viento	1.6
112546	7	Sololá	701	Sololá	4	Finca Santa Victoria	6	Junio	2023-12-06T00:00:00	2024-11-08T21:00:00	7	Dirección del viento	1.61
112547	7	Sololá	701	Sololá	4	Finca Santa Victoria	6	Junio	2023-12-06T00:00:00	2024-11-08T21:00:00	1	Precipitación	0
112548	7	Sololá	701	Sololá	4	Finca Santa Victoria	6	Junio	2023-12-06T00:00:00	2024-11-08T21:00:00	8	Radiación solar	0
112549	7	Sololá	701	Sololá	4	Finca Santa Victoria	6	Junio	2023-12-06T00:00:00	2024-11-08T22:00:00	2	Temperatura media	15.8
112550	7	Sololá	701	Sololá	4	Finca Santa Victoria	6	Junio	2023-12-06T00:00:00	2024-11-08T22:00:00	4	Temperatura máxima	15.8
112551	7	Sololá	701	Sololá	4	Finca Santa Victoria	6	Junio	2023-12-06T00:00:00	2024-11-08T22:00:00	3	Temperatura mínima	15.2
112552	7	Sololá	701	Sololá	4	Finca Santa Victoria	6	Junio	2023-12-06T00:00:00	2024-11-08T22:00:00	5	Humedad	89
112553	7	Sololá	701	Sololá	4	Finca Santa Victoria	6	Junio	2023-12-06T00:00:00	2024-11-08T22:00:00	6	Velocidad del viento	1.6
112554	7	Sololá	701	Sololá	4	Finca Santa Victoria	6	Junio	2023-12-06T00:00:00	2024-11-08T22:00:00	7	Dirección del viento	1.61
112555	7	Sololá	701	Sololá	4	Finca Santa Victoria	6	Junio	2023-12-06T00:00:00	2024-11-08T22:00:00	1	Precipitación	0
112556	7	Sololá	701	Sololá	4	Finca Santa Victoria	6	Junio	2023-12-06T00:00:00	2024-11-08T22:00:00	8	Radiación solar	0
112557	7	Sololá	701	Sololá	4	Finca Santa Victoria	6	Junio	2023-12-06T00:00:00	2024-11-08T23:00:00	2	Temperatura media	15.2
112558	7	Sololá	701	Sololá	4	Finca Santa Victoria	6	Junio	2023-12-06T00:00:00	2024-11-08T23:00:00	4	Temperatura máxima	15.9
112559	7	Sololá	701	Sololá	4	Finca Santa Victoria	6	Junio	2023-12-06T00:00:00	2024-11-08T23:00:00	3	Temperatura mínima	15.2
112560	7	Sololá	701	Sololá	4	Finca Santa Victoria	6	Junio	2023-12-06T00:00:00	2024-11-08T23:00:00	5	Humedad	91
112561	7	Sololá	701	Sololá	4	Finca Santa Victoria	6	Junio	2023-12-06T00:00:00	2024-11-08T23:00:00	6	Velocidad del viento	1.6
112562	7	Sololá	701	Sololá	4	Finca Santa Victoria	6	Junio	2023-12-06T00:00:00	2024-11-08T23:00:00	7	Dirección del viento	1.61
112563	7	Sololá	701	Sololá	4	Finca Santa Victoria	6	Junio	2023-12-06T00:00:00	2024-11-08T23:00:00	1	Precipitación	0
112564	7	Sololá	701	Sololá	4	Finca Santa Victoria	6	Junio	2023-12-06T00:00:00	2024-11-08T23:00:00	8	Radiación solar	0
112565	7	Sololá	701	Sololá	4	Finca Santa Victoria	6	Junio	2023-06-13T00:00:00	2024-11-08T00:00:00	2	Temperatura media	14.8
112566	7	Sololá	701	Sololá	4	Finca Santa Victoria	6	Junio	2023-06-13T00:00:00	2024-11-08T00:00:00	4	Temperatura máxima	15.2
112567	7	Sololá	701	Sololá	4	Finca Santa Victoria	6	Junio	2023-06-13T00:00:00	2024-11-08T00:00:00	3	Temperatura mínima	14.7
112568	7	Sololá	701	Sololá	4	Finca Santa Victoria	6	Junio	2023-06-13T00:00:00	2024-11-08T00:00:00	5	Humedad	90
112569	7	Sololá	701	Sololá	4	Finca Santa Victoria	6	Junio	2023-06-13T00:00:00	2024-11-08T00:00:00	6	Velocidad del viento	1.6
112570	7	Sololá	701	Sololá	4	Finca Santa Victoria	6	Junio	2023-06-13T00:00:00	2024-11-08T00:00:00	7	Dirección del viento	1.61
112571	7	Sololá	701	Sololá	4	Finca Santa Victoria	6	Junio	2023-06-13T00:00:00	2024-11-08T00:00:00	1	Precipitación	0
112572	7	Sololá	701	Sololá	4	Finca Santa Victoria	6	Junio	2023-06-13T00:00:00	2024-11-08T00:00:00	8	Radiación solar	0
112573	7	Sololá	701	Sololá	4	Finca Santa Victoria	6	Junio	2023-06-13T00:00:00	2024-11-08T01:00:00	2	Temperatura media	14.5
112574	7	Sololá	701	Sololá	4	Finca Santa Victoria	6	Junio	2023-06-13T00:00:00	2024-11-08T01:00:00	4	Temperatura máxima	14.8
112575	7	Sololá	701	Sololá	4	Finca Santa Victoria	6	Junio	2023-06-13T00:00:00	2024-11-08T01:00:00	3	Temperatura mínima	14.4
112576	7	Sololá	701	Sololá	4	Finca Santa Victoria	6	Junio	2023-06-13T00:00:00	2024-11-08T01:00:00	5	Humedad	90
112577	7	Sololá	701	Sololá	4	Finca Santa Victoria	6	Junio	2023-06-13T00:00:00	2024-11-08T01:00:00	6	Velocidad del viento	0
112578	7	Sololá	701	Sololá	4	Finca Santa Victoria	6	Junio	2023-06-13T00:00:00	2024-11-08T01:00:00	7	Dirección del viento	0
112579	7	Sololá	701	Sololá	4	Finca Santa Victoria	6	Junio	2023-06-13T00:00:00	2024-11-08T01:00:00	1	Precipitación	0
112580	7	Sololá	701	Sololá	4	Finca Santa Victoria	6	Junio	2023-06-13T00:00:00	2024-11-08T01:00:00	8	Radiación solar	0
112581	7	Sololá	701	Sololá	4	Finca Santa Victoria	6	Junio	2023-06-13T00:00:00	2024-11-08T02:00:00	2	Temperatura media	14.6
112582	7	Sololá	701	Sololá	4	Finca Santa Victoria	6	Junio	2023-06-13T00:00:00	2024-11-08T02:00:00	4	Temperatura máxima	14.7
112583	7	Sololá	701	Sololá	4	Finca Santa Victoria	6	Junio	2023-06-13T00:00:00	2024-11-08T02:00:00	3	Temperatura mínima	14.3
112584	7	Sololá	701	Sololá	4	Finca Santa Victoria	6	Junio	2023-06-13T00:00:00	2024-11-08T02:00:00	5	Humedad	88
112585	7	Sololá	701	Sololá	4	Finca Santa Victoria	6	Junio	2023-06-13T00:00:00	2024-11-08T02:00:00	6	Velocidad del viento	1.6
112586	7	Sololá	701	Sololá	4	Finca Santa Victoria	6	Junio	2023-06-13T00:00:00	2024-11-08T02:00:00	7	Dirección del viento	1.61
112587	7	Sololá	701	Sololá	4	Finca Santa Victoria	6	Junio	2023-06-13T00:00:00	2024-11-08T02:00:00	1	Precipitación	0
112588	7	Sololá	701	Sololá	4	Finca Santa Victoria	6	Junio	2023-06-13T00:00:00	2024-11-08T02:00:00	8	Radiación solar	0
112589	7	Sololá	701	Sololá	4	Finca Santa Victoria	6	Junio	2023-06-13T00:00:00	2024-11-08T03:00:00	2	Temperatura media	15.1
112590	7	Sololá	701	Sololá	4	Finca Santa Victoria	6	Junio	2023-06-13T00:00:00	2024-11-08T03:00:00	4	Temperatura máxima	15.2
112591	7	Sololá	701	Sololá	4	Finca Santa Victoria	6	Junio	2023-06-13T00:00:00	2024-11-08T03:00:00	3	Temperatura mínima	14.2
112592	7	Sololá	701	Sololá	4	Finca Santa Victoria	6	Junio	2023-06-13T00:00:00	2024-11-08T03:00:00	5	Humedad	86
112593	7	Sololá	701	Sololá	4	Finca Santa Victoria	6	Junio	2023-06-13T00:00:00	2024-11-08T03:00:00	6	Velocidad del viento	1.6
112594	7	Sololá	701	Sololá	4	Finca Santa Victoria	6	Junio	2023-06-13T00:00:00	2024-11-08T03:00:00	7	Dirección del viento	1.61
112595	7	Sololá	701	Sololá	4	Finca Santa Victoria	6	Junio	2023-06-13T00:00:00	2024-11-08T03:00:00	1	Precipitación	0
112596	7	Sololá	701	Sololá	4	Finca Santa Victoria	6	Junio	2023-06-13T00:00:00	2024-11-08T03:00:00	8	Radiación solar	0
112597	7	Sololá	701	Sololá	4	Finca Santa Victoria	6	Junio	2023-06-13T00:00:00	2024-11-08T04:00:00	2	Temperatura media	15.1
112598	7	Sololá	701	Sololá	4	Finca Santa Victoria	6	Junio	2023-06-13T00:00:00	2024-11-08T04:00:00	4	Temperatura máxima	15.3
112599	7	Sololá	701	Sololá	4	Finca Santa Victoria	6	Junio	2023-06-13T00:00:00	2024-11-08T04:00:00	3	Temperatura mínima	14.9
112600	7	Sololá	701	Sololá	4	Finca Santa Victoria	6	Junio	2023-06-13T00:00:00	2024-11-08T04:00:00	5	Humedad	85
112601	7	Sololá	701	Sololá	4	Finca Santa Victoria	6	Junio	2023-06-13T00:00:00	2024-11-08T04:00:00	6	Velocidad del viento	1.6
112602	7	Sololá	701	Sololá	4	Finca Santa Victoria	6	Junio	2023-06-13T00:00:00	2024-11-08T04:00:00	7	Dirección del viento	1.61
112603	7	Sololá	701	Sololá	4	Finca Santa Victoria	6	Junio	2023-06-13T00:00:00	2024-11-08T04:00:00	1	Precipitación	0
112604	7	Sololá	701	Sololá	4	Finca Santa Victoria	6	Junio	2023-06-13T00:00:00	2024-11-08T04:00:00	8	Radiación solar	0
112605	7	Sololá	701	Sololá	4	Finca Santa Victoria	6	Junio	2023-06-13T00:00:00	2024-11-08T05:00:00	2	Temperatura media	14.9
112606	7	Sololá	701	Sololá	4	Finca Santa Victoria	6	Junio	2023-06-13T00:00:00	2024-11-08T05:00:00	4	Temperatura máxima	15.3
112607	7	Sololá	701	Sololá	4	Finca Santa Victoria	6	Junio	2023-06-13T00:00:00	2024-11-08T05:00:00	3	Temperatura mínima	14.9
112608	7	Sololá	701	Sololá	4	Finca Santa Victoria	6	Junio	2023-06-13T00:00:00	2024-11-08T05:00:00	5	Humedad	85
112609	7	Sololá	701	Sololá	4	Finca Santa Victoria	6	Junio	2023-06-13T00:00:00	2024-11-08T05:00:00	6	Velocidad del viento	3.2
112610	7	Sololá	701	Sololá	4	Finca Santa Victoria	6	Junio	2023-06-13T00:00:00	2024-11-08T05:00:00	7	Dirección del viento	3.22
112611	7	Sololá	701	Sololá	4	Finca Santa Victoria	6	Junio	2023-06-13T00:00:00	2024-11-08T05:00:00	1	Precipitación	0
112612	7	Sololá	701	Sololá	4	Finca Santa Victoria	6	Junio	2023-06-13T00:00:00	2024-11-08T05:00:00	8	Radiación solar	0
112613	7	Sololá	701	Sololá	4	Finca Santa Victoria	6	Junio	2023-06-13T00:00:00	2024-11-08T06:00:00	2	Temperatura media	15.1
112614	7	Sololá	701	Sololá	4	Finca Santa Victoria	6	Junio	2023-06-13T00:00:00	2024-11-08T06:00:00	4	Temperatura máxima	15.1
112615	7	Sololá	701	Sololá	4	Finca Santa Victoria	6	Junio	2023-06-13T00:00:00	2024-11-08T06:00:00	3	Temperatura mínima	14.8
112616	7	Sololá	701	Sololá	4	Finca Santa Victoria	6	Junio	2023-06-13T00:00:00	2024-11-08T06:00:00	5	Humedad	86
112617	7	Sololá	701	Sololá	4	Finca Santa Victoria	6	Junio	2023-06-13T00:00:00	2024-11-08T06:00:00	6	Velocidad del viento	1.6
112618	7	Sololá	701	Sololá	4	Finca Santa Victoria	6	Junio	2023-06-13T00:00:00	2024-11-08T06:00:00	7	Dirección del viento	1.61
112619	7	Sololá	701	Sololá	4	Finca Santa Victoria	6	Junio	2023-06-13T00:00:00	2024-11-08T06:00:00	1	Precipitación	0
112620	7	Sololá	701	Sololá	4	Finca Santa Victoria	6	Junio	2023-06-13T00:00:00	2024-11-08T06:00:00	8	Radiación solar	4
112621	7	Sololá	701	Sololá	4	Finca Santa Victoria	6	Junio	2023-06-13T00:00:00	2024-11-08T07:00:00	2	Temperatura media	15.8
112622	7	Sololá	701	Sololá	4	Finca Santa Victoria	6	Junio	2023-06-13T00:00:00	2024-11-08T07:00:00	4	Temperatura máxima	15.8
112623	7	Sololá	701	Sololá	4	Finca Santa Victoria	6	Junio	2023-06-13T00:00:00	2024-11-08T07:00:00	3	Temperatura mínima	15.1
112624	7	Sololá	701	Sololá	4	Finca Santa Victoria	6	Junio	2023-06-13T00:00:00	2024-11-08T07:00:00	5	Humedad	84
112625	7	Sololá	701	Sololá	4	Finca Santa Victoria	6	Junio	2023-06-13T00:00:00	2024-11-08T07:00:00	6	Velocidad del viento	1.6
112626	7	Sololá	701	Sololá	4	Finca Santa Victoria	6	Junio	2023-06-13T00:00:00	2024-11-08T07:00:00	7	Dirección del viento	1.61
112627	7	Sololá	701	Sololá	4	Finca Santa Victoria	6	Junio	2023-06-13T00:00:00	2024-11-08T07:00:00	1	Precipitación	0
112628	7	Sololá	701	Sololá	4	Finca Santa Victoria	6	Junio	2023-06-13T00:00:00	2024-11-08T07:00:00	8	Radiación solar	55
112629	7	Sololá	701	Sololá	4	Finca Santa Victoria	6	Junio	2023-06-13T00:00:00	2024-11-08T08:00:00	2	Temperatura media	16.9
112630	7	Sololá	701	Sololá	4	Finca Santa Victoria	6	Junio	2023-06-13T00:00:00	2024-11-08T08:00:00	4	Temperatura máxima	16.9
112631	7	Sololá	701	Sololá	4	Finca Santa Victoria	6	Junio	2023-06-13T00:00:00	2024-11-08T08:00:00	3	Temperatura mínima	15.7
112632	7	Sololá	701	Sololá	4	Finca Santa Victoria	6	Junio	2023-06-13T00:00:00	2024-11-08T08:00:00	5	Humedad	80
112633	7	Sololá	701	Sololá	4	Finca Santa Victoria	6	Junio	2023-06-13T00:00:00	2024-11-08T08:00:00	6	Velocidad del viento	3.2
112634	7	Sololá	701	Sololá	4	Finca Santa Victoria	6	Junio	2023-06-13T00:00:00	2024-11-08T08:00:00	7	Dirección del viento	3.22
112635	7	Sololá	701	Sololá	4	Finca Santa Victoria	6	Junio	2023-06-13T00:00:00	2024-11-08T08:00:00	1	Precipitación	0
112636	7	Sololá	701	Sololá	4	Finca Santa Victoria	6	Junio	2023-06-13T00:00:00	2024-11-08T08:00:00	8	Radiación solar	178
112637	7	Sololá	701	Sololá	4	Finca Santa Victoria	6	Junio	2023-06-13T00:00:00	2024-11-08T09:00:00	2	Temperatura media	19.8
112638	7	Sololá	701	Sololá	4	Finca Santa Victoria	6	Junio	2023-06-13T00:00:00	2024-11-08T09:00:00	4	Temperatura máxima	19.8
112639	7	Sololá	701	Sololá	4	Finca Santa Victoria	6	Junio	2023-06-13T00:00:00	2024-11-08T09:00:00	3	Temperatura mínima	16.9
112640	7	Sololá	701	Sololá	4	Finca Santa Victoria	6	Junio	2023-06-13T00:00:00	2024-11-08T09:00:00	5	Humedad	64
112641	7	Sololá	701	Sololá	4	Finca Santa Victoria	6	Junio	2023-06-13T00:00:00	2024-11-08T09:00:00	6	Velocidad del viento	3.2
112642	7	Sololá	701	Sololá	4	Finca Santa Victoria	6	Junio	2023-06-13T00:00:00	2024-11-08T09:00:00	7	Dirección del viento	3.22
112643	7	Sololá	701	Sololá	4	Finca Santa Victoria	6	Junio	2023-06-13T00:00:00	2024-11-08T09:00:00	1	Precipitación	0
112644	7	Sololá	701	Sololá	4	Finca Santa Victoria	6	Junio	2023-06-13T00:00:00	2024-11-08T09:00:00	8	Radiación solar	377
112645	7	Sololá	701	Sololá	4	Finca Santa Victoria	6	Junio	2023-06-13T00:00:00	2024-11-08T10:00:00	2	Temperatura media	20.9
112646	7	Sololá	701	Sololá	4	Finca Santa Victoria	6	Junio	2023-06-13T00:00:00	2024-11-08T10:00:00	4	Temperatura máxima	21
112647	7	Sololá	701	Sololá	4	Finca Santa Victoria	6	Junio	2023-06-13T00:00:00	2024-11-08T10:00:00	3	Temperatura mínima	19.9
112648	7	Sololá	701	Sololá	4	Finca Santa Victoria	6	Junio	2023-06-13T00:00:00	2024-11-08T10:00:00	5	Humedad	62
112649	7	Sololá	701	Sololá	4	Finca Santa Victoria	6	Junio	2023-06-13T00:00:00	2024-11-08T10:00:00	6	Velocidad del viento	3.2
112650	7	Sololá	701	Sololá	4	Finca Santa Victoria	6	Junio	2023-06-13T00:00:00	2024-11-08T10:00:00	7	Dirección del viento	3.22
112651	7	Sololá	701	Sololá	4	Finca Santa Victoria	6	Junio	2023-06-13T00:00:00	2024-11-08T10:00:00	1	Precipitación	0
112652	7	Sololá	701	Sololá	4	Finca Santa Victoria	6	Junio	2023-06-13T00:00:00	2024-11-08T10:00:00	8	Radiación solar	299
112653	7	Sololá	701	Sololá	4	Finca Santa Victoria	6	Junio	2023-06-13T00:00:00	2024-11-08T11:00:00	2	Temperatura media	22.2
112654	7	Sololá	701	Sololá	4	Finca Santa Victoria	6	Junio	2023-06-13T00:00:00	2024-11-08T11:00:00	4	Temperatura máxima	22.2
112655	7	Sololá	701	Sololá	4	Finca Santa Victoria	6	Junio	2023-06-13T00:00:00	2024-11-08T11:00:00	3	Temperatura mínima	20.9
112656	7	Sololá	701	Sololá	4	Finca Santa Victoria	6	Junio	2023-06-13T00:00:00	2024-11-08T11:00:00	5	Humedad	60
112657	7	Sololá	701	Sololá	4	Finca Santa Victoria	6	Junio	2023-06-13T00:00:00	2024-11-08T11:00:00	6	Velocidad del viento	3.2
112658	7	Sololá	701	Sololá	4	Finca Santa Victoria	6	Junio	2023-06-13T00:00:00	2024-11-08T11:00:00	7	Dirección del viento	3.22
112659	7	Sololá	701	Sololá	4	Finca Santa Victoria	6	Junio	2023-06-13T00:00:00	2024-11-08T11:00:00	1	Precipitación	0
112660	7	Sololá	701	Sololá	4	Finca Santa Victoria	6	Junio	2023-06-13T00:00:00	2024-11-08T11:00:00	8	Radiación solar	335
112661	7	Sololá	701	Sololá	4	Finca Santa Victoria	6	Junio	2023-06-13T00:00:00	2024-11-08T12:00:00	2	Temperatura media	24.1
112662	7	Sololá	701	Sololá	4	Finca Santa Victoria	6	Junio	2023-06-13T00:00:00	2024-11-08T12:00:00	4	Temperatura máxima	24.1
112663	7	Sololá	701	Sololá	4	Finca Santa Victoria	6	Junio	2023-06-13T00:00:00	2024-11-08T12:00:00	3	Temperatura mínima	22.2
112664	7	Sololá	701	Sololá	4	Finca Santa Victoria	6	Junio	2023-06-13T00:00:00	2024-11-08T12:00:00	5	Humedad	49
112665	7	Sololá	701	Sololá	4	Finca Santa Victoria	6	Junio	2023-06-13T00:00:00	2024-11-08T12:00:00	6	Velocidad del viento	3.2
112666	7	Sololá	701	Sololá	4	Finca Santa Victoria	6	Junio	2023-06-13T00:00:00	2024-11-08T12:00:00	7	Dirección del viento	3.22
112667	7	Sololá	701	Sololá	4	Finca Santa Victoria	6	Junio	2023-06-13T00:00:00	2024-11-08T12:00:00	1	Precipitación	0
112668	7	Sololá	701	Sololá	4	Finca Santa Victoria	6	Junio	2023-06-13T00:00:00	2024-11-08T12:00:00	8	Radiación solar	937
112669	7	Sololá	701	Sololá	4	Finca Santa Victoria	6	Junio	2023-06-13T00:00:00	2024-11-08T13:00:00	2	Temperatura media	21.9
112670	7	Sololá	701	Sololá	4	Finca Santa Victoria	6	Junio	2023-06-13T00:00:00	2024-11-08T13:00:00	4	Temperatura máxima	24.5
112671	7	Sololá	701	Sololá	4	Finca Santa Victoria	6	Junio	2023-06-13T00:00:00	2024-11-08T13:00:00	3	Temperatura mínima	21.9
112672	7	Sololá	701	Sololá	4	Finca Santa Victoria	6	Junio	2023-06-13T00:00:00	2024-11-08T13:00:00	5	Humedad	73
112673	7	Sololá	701	Sololá	4	Finca Santa Victoria	6	Junio	2023-06-13T00:00:00	2024-11-08T13:00:00	6	Velocidad del viento	3.2
112674	7	Sololá	701	Sololá	4	Finca Santa Victoria	6	Junio	2023-06-13T00:00:00	2024-11-08T13:00:00	7	Dirección del viento	3.22
112675	7	Sololá	701	Sololá	4	Finca Santa Victoria	6	Junio	2023-06-13T00:00:00	2024-11-08T13:00:00	1	Precipitación	0
112676	7	Sololá	701	Sololá	4	Finca Santa Victoria	6	Junio	2023-06-13T00:00:00	2024-11-08T13:00:00	8	Radiación solar	925
112677	7	Sololá	701	Sololá	4	Finca Santa Victoria	6	Junio	2023-06-13T00:00:00	2024-11-08T14:00:00	2	Temperatura media	19.7
112678	7	Sololá	701	Sololá	4	Finca Santa Victoria	6	Junio	2023-06-13T00:00:00	2024-11-08T14:00:00	4	Temperatura máxima	22.1
112679	7	Sololá	701	Sololá	4	Finca Santa Victoria	6	Junio	2023-06-13T00:00:00	2024-11-08T14:00:00	3	Temperatura mínima	19.7
112680	7	Sololá	701	Sololá	4	Finca Santa Victoria	6	Junio	2023-06-13T00:00:00	2024-11-08T14:00:00	5	Humedad	85
112681	7	Sololá	701	Sololá	4	Finca Santa Victoria	6	Junio	2023-06-13T00:00:00	2024-11-08T14:00:00	6	Velocidad del viento	4.8
112682	7	Sololá	701	Sololá	4	Finca Santa Victoria	6	Junio	2023-06-13T00:00:00	2024-11-08T14:00:00	7	Dirección del viento	4.83
112683	7	Sololá	701	Sololá	4	Finca Santa Victoria	6	Junio	2023-06-13T00:00:00	2024-11-08T14:00:00	1	Precipitación	0
112684	7	Sololá	701	Sololá	4	Finca Santa Victoria	6	Junio	2023-06-13T00:00:00	2024-11-08T14:00:00	8	Radiación solar	390
112685	7	Sololá	701	Sololá	4	Finca Santa Victoria	6	Junio	2023-06-13T00:00:00	2024-11-08T15:00:00	2	Temperatura media	19.1
112686	7	Sololá	701	Sololá	4	Finca Santa Victoria	6	Junio	2023-06-13T00:00:00	2024-11-08T15:00:00	4	Temperatura máxima	20.2
112687	7	Sololá	701	Sololá	4	Finca Santa Victoria	6	Junio	2023-06-13T00:00:00	2024-11-08T15:00:00	3	Temperatura mínima	19.1
112688	7	Sololá	701	Sololá	4	Finca Santa Victoria	6	Junio	2023-06-13T00:00:00	2024-11-08T15:00:00	5	Humedad	88
112689	7	Sololá	701	Sololá	4	Finca Santa Victoria	6	Junio	2023-06-13T00:00:00	2024-11-08T15:00:00	6	Velocidad del viento	4.8
112690	7	Sololá	701	Sololá	4	Finca Santa Victoria	6	Junio	2023-06-13T00:00:00	2024-11-08T15:00:00	7	Dirección del viento	4.83
112691	7	Sololá	701	Sololá	4	Finca Santa Victoria	6	Junio	2023-06-13T00:00:00	2024-11-08T15:00:00	1	Precipitación	0
112692	7	Sololá	701	Sololá	4	Finca Santa Victoria	6	Junio	2023-06-13T00:00:00	2024-11-08T15:00:00	8	Radiación solar	287
112693	7	Sololá	701	Sololá	4	Finca Santa Victoria	6	Junio	2023-06-13T00:00:00	2024-11-08T16:00:00	2	Temperatura media	18.9
112694	7	Sololá	701	Sololá	4	Finca Santa Victoria	6	Junio	2023-06-13T00:00:00	2024-11-08T16:00:00	4	Temperatura máxima	19.2
112695	7	Sololá	701	Sololá	4	Finca Santa Victoria	6	Junio	2023-06-13T00:00:00	2024-11-08T16:00:00	3	Temperatura mínima	18.8
112696	7	Sololá	701	Sololá	4	Finca Santa Victoria	6	Junio	2023-06-13T00:00:00	2024-11-08T16:00:00	5	Humedad	88
112697	7	Sololá	701	Sololá	4	Finca Santa Victoria	6	Junio	2023-06-13T00:00:00	2024-11-08T16:00:00	6	Velocidad del viento	3.2
112698	7	Sololá	701	Sololá	4	Finca Santa Victoria	6	Junio	2023-06-13T00:00:00	2024-11-08T16:00:00	7	Dirección del viento	3.22
112699	7	Sololá	701	Sololá	4	Finca Santa Victoria	6	Junio	2023-06-13T00:00:00	2024-11-08T16:00:00	1	Precipitación	0
112700	7	Sololá	701	Sololá	4	Finca Santa Victoria	6	Junio	2023-06-13T00:00:00	2024-11-08T16:00:00	8	Radiación solar	193
112701	7	Sololá	701	Sololá	4	Finca Santa Victoria	6	Junio	2023-06-13T00:00:00	2024-11-08T17:00:00	2	Temperatura media	17.8
112702	7	Sololá	701	Sololá	4	Finca Santa Victoria	6	Junio	2023-06-13T00:00:00	2024-11-08T17:00:00	4	Temperatura máxima	18.9
112703	7	Sololá	701	Sololá	4	Finca Santa Victoria	6	Junio	2023-06-13T00:00:00	2024-11-08T17:00:00	3	Temperatura mínima	17.8
112704	7	Sololá	701	Sololá	4	Finca Santa Victoria	6	Junio	2023-06-13T00:00:00	2024-11-08T17:00:00	5	Humedad	93
112705	7	Sololá	701	Sololá	4	Finca Santa Victoria	6	Junio	2023-06-13T00:00:00	2024-11-08T17:00:00	6	Velocidad del viento	3.2
112706	7	Sololá	701	Sololá	4	Finca Santa Victoria	6	Junio	2023-06-13T00:00:00	2024-11-08T17:00:00	7	Dirección del viento	3.22
112707	7	Sololá	701	Sololá	4	Finca Santa Victoria	6	Junio	2023-06-13T00:00:00	2024-11-08T17:00:00	1	Precipitación	0
112708	7	Sololá	701	Sololá	4	Finca Santa Victoria	6	Junio	2023-06-13T00:00:00	2024-11-08T17:00:00	8	Radiación solar	90
112709	7	Sololá	701	Sololá	4	Finca Santa Victoria	6	Junio	2023-06-13T00:00:00	2024-11-08T18:00:00	2	Temperatura media	17.1
112710	7	Sololá	701	Sololá	4	Finca Santa Victoria	6	Junio	2023-06-13T00:00:00	2024-11-08T18:00:00	4	Temperatura máxima	17.9
112711	7	Sololá	701	Sololá	4	Finca Santa Victoria	6	Junio	2023-06-13T00:00:00	2024-11-08T18:00:00	3	Temperatura mínima	17.1
112712	7	Sololá	701	Sololá	4	Finca Santa Victoria	6	Junio	2023-06-13T00:00:00	2024-11-08T18:00:00	5	Humedad	94
112713	7	Sololá	701	Sololá	4	Finca Santa Victoria	6	Junio	2023-06-13T00:00:00	2024-11-08T18:00:00	6	Velocidad del viento	1.6
112714	7	Sololá	701	Sololá	4	Finca Santa Victoria	6	Junio	2023-06-13T00:00:00	2024-11-08T18:00:00	7	Dirección del viento	1.61
112715	7	Sololá	701	Sololá	4	Finca Santa Victoria	6	Junio	2023-06-13T00:00:00	2024-11-08T18:00:00	1	Precipitación	0
112716	7	Sololá	701	Sololá	4	Finca Santa Victoria	6	Junio	2023-06-13T00:00:00	2024-11-08T18:00:00	8	Radiación solar	47
112717	7	Sololá	701	Sololá	4	Finca Santa Victoria	6	Junio	2023-06-13T00:00:00	2024-11-08T19:00:00	2	Temperatura media	16.3
112718	7	Sololá	701	Sololá	4	Finca Santa Victoria	6	Junio	2023-06-13T00:00:00	2024-11-08T19:00:00	4	Temperatura máxima	17.1
112719	7	Sololá	701	Sololá	4	Finca Santa Victoria	6	Junio	2023-06-13T00:00:00	2024-11-08T19:00:00	3	Temperatura mínima	16.3
112720	7	Sololá	701	Sololá	4	Finca Santa Victoria	6	Junio	2023-06-13T00:00:00	2024-11-08T19:00:00	5	Humedad	95
112721	7	Sololá	701	Sololá	4	Finca Santa Victoria	6	Junio	2023-06-13T00:00:00	2024-11-08T19:00:00	6	Velocidad del viento	0
112722	7	Sololá	701	Sololá	4	Finca Santa Victoria	6	Junio	2023-06-13T00:00:00	2024-11-08T19:00:00	7	Dirección del viento	0
112723	7	Sololá	701	Sololá	4	Finca Santa Victoria	6	Junio	2023-06-13T00:00:00	2024-11-08T19:00:00	1	Precipitación	0
112724	7	Sololá	701	Sololá	4	Finca Santa Victoria	6	Junio	2023-06-13T00:00:00	2024-11-08T19:00:00	8	Radiación solar	0
112725	7	Sololá	701	Sololá	4	Finca Santa Victoria	6	Junio	2023-06-13T00:00:00	2024-11-08T20:00:00	2	Temperatura media	15.7
112726	7	Sololá	701	Sololá	4	Finca Santa Victoria	6	Junio	2023-06-13T00:00:00	2024-11-08T20:00:00	4	Temperatura máxima	16.3
112727	7	Sololá	701	Sololá	4	Finca Santa Victoria	6	Junio	2023-06-13T00:00:00	2024-11-08T20:00:00	3	Temperatura mínima	15.7
112728	7	Sololá	701	Sololá	4	Finca Santa Victoria	6	Junio	2023-06-13T00:00:00	2024-11-08T20:00:00	5	Humedad	95
112729	7	Sololá	701	Sololá	4	Finca Santa Victoria	6	Junio	2023-06-13T00:00:00	2024-11-08T20:00:00	6	Velocidad del viento	0
112730	7	Sololá	701	Sololá	4	Finca Santa Victoria	6	Junio	2023-06-13T00:00:00	2024-11-08T20:00:00	7	Dirección del viento	0
112731	7	Sololá	701	Sololá	4	Finca Santa Victoria	6	Junio	2023-06-13T00:00:00	2024-11-08T20:00:00	1	Precipitación	0
112732	7	Sololá	701	Sololá	4	Finca Santa Victoria	6	Junio	2023-06-13T00:00:00	2024-11-08T20:00:00	8	Radiación solar	0
112733	7	Sololá	701	Sololá	4	Finca Santa Victoria	6	Junio	2023-06-13T00:00:00	2024-11-08T21:00:00	2	Temperatura media	16.1
112734	7	Sololá	701	Sololá	4	Finca Santa Victoria	6	Junio	2023-06-13T00:00:00	2024-11-08T21:00:00	4	Temperatura máxima	16.2
112735	7	Sololá	701	Sololá	4	Finca Santa Victoria	6	Junio	2023-06-13T00:00:00	2024-11-08T21:00:00	3	Temperatura mínima	15.3
112736	7	Sololá	701	Sololá	4	Finca Santa Victoria	6	Junio	2023-06-13T00:00:00	2024-11-08T21:00:00	5	Humedad	85
112737	7	Sololá	701	Sololá	4	Finca Santa Victoria	6	Junio	2023-06-13T00:00:00	2024-11-08T21:00:00	6	Velocidad del viento	0
112738	7	Sololá	701	Sololá	4	Finca Santa Victoria	6	Junio	2023-06-13T00:00:00	2024-11-08T21:00:00	7	Dirección del viento	0
112739	7	Sololá	701	Sololá	4	Finca Santa Victoria	6	Junio	2023-06-13T00:00:00	2024-11-08T21:00:00	1	Precipitación	0
112740	7	Sololá	701	Sololá	4	Finca Santa Victoria	6	Junio	2023-06-13T00:00:00	2024-11-08T21:00:00	8	Radiación solar	0
112741	7	Sololá	701	Sololá	4	Finca Santa Victoria	6	Junio	2023-06-13T00:00:00	2024-11-08T22:00:00	2	Temperatura media	15.8
112742	7	Sololá	701	Sololá	4	Finca Santa Victoria	6	Junio	2023-06-13T00:00:00	2024-11-08T22:00:00	4	Temperatura máxima	16.2
112743	7	Sololá	701	Sololá	4	Finca Santa Victoria	6	Junio	2023-06-13T00:00:00	2024-11-08T22:00:00	3	Temperatura mínima	15.8
112744	7	Sololá	701	Sololá	4	Finca Santa Victoria	6	Junio	2023-06-13T00:00:00	2024-11-08T22:00:00	5	Humedad	90
112745	7	Sololá	701	Sololá	4	Finca Santa Victoria	6	Junio	2023-06-13T00:00:00	2024-11-08T22:00:00	6	Velocidad del viento	0
112746	7	Sololá	701	Sololá	4	Finca Santa Victoria	6	Junio	2023-06-13T00:00:00	2024-11-08T22:00:00	7	Dirección del viento	0
112747	7	Sololá	701	Sololá	4	Finca Santa Victoria	6	Junio	2023-06-13T00:00:00	2024-11-08T22:00:00	1	Precipitación	0
112748	7	Sololá	701	Sololá	4	Finca Santa Victoria	6	Junio	2023-06-13T00:00:00	2024-11-08T22:00:00	8	Radiación solar	0
112749	7	Sololá	701	Sololá	4	Finca Santa Victoria	6	Junio	2023-06-13T00:00:00	2024-11-08T23:00:00	2	Temperatura media	15.3
112750	7	Sololá	701	Sololá	4	Finca Santa Victoria	6	Junio	2023-06-13T00:00:00	2024-11-08T23:00:00	4	Temperatura máxima	15.8
112751	7	Sololá	701	Sololá	4	Finca Santa Victoria	6	Junio	2023-06-13T00:00:00	2024-11-08T23:00:00	3	Temperatura mínima	15.2
112752	7	Sololá	701	Sololá	4	Finca Santa Victoria	6	Junio	2023-06-13T00:00:00	2024-11-08T23:00:00	5	Humedad	91
112753	7	Sololá	701	Sololá	4	Finca Santa Victoria	6	Junio	2023-06-13T00:00:00	2024-11-08T23:00:00	6	Velocidad del viento	0
112754	7	Sololá	701	Sololá	4	Finca Santa Victoria	6	Junio	2023-06-13T00:00:00	2024-11-08T23:00:00	7	Dirección del viento	0
112755	7	Sololá	701	Sololá	4	Finca Santa Victoria	6	Junio	2023-06-13T00:00:00	2024-11-08T23:00:00	1	Precipitación	0
112756	7	Sololá	701	Sololá	4	Finca Santa Victoria	6	Junio	2023-06-13T00:00:00	2024-11-08T23:00:00	8	Radiación solar	0
112757	7	Sololá	701	Sololá	4	Finca Santa Victoria	6	Junio	2023-06-14T00:00:00	2024-11-08T00:00:00	2	Temperatura media	15.7
112758	7	Sololá	701	Sololá	4	Finca Santa Victoria	6	Junio	2023-06-14T00:00:00	2024-11-08T00:00:00	4	Temperatura máxima	15.8
112759	7	Sololá	701	Sololá	4	Finca Santa Victoria	6	Junio	2023-06-14T00:00:00	2024-11-08T00:00:00	3	Temperatura mínima	15.2
112760	7	Sololá	701	Sololá	4	Finca Santa Victoria	6	Junio	2023-06-14T00:00:00	2024-11-08T00:00:00	5	Humedad	86
112761	7	Sololá	701	Sololá	4	Finca Santa Victoria	6	Junio	2023-06-14T00:00:00	2024-11-08T00:00:00	6	Velocidad del viento	1.6
112762	7	Sololá	701	Sololá	4	Finca Santa Victoria	6	Junio	2023-06-14T00:00:00	2024-11-08T00:00:00	7	Dirección del viento	1.61
112763	7	Sololá	701	Sololá	4	Finca Santa Victoria	6	Junio	2023-06-14T00:00:00	2024-11-08T00:00:00	1	Precipitación	0
112764	7	Sololá	701	Sololá	4	Finca Santa Victoria	6	Junio	2023-06-14T00:00:00	2024-11-08T00:00:00	8	Radiación solar	0
112765	7	Sololá	701	Sololá	4	Finca Santa Victoria	6	Junio	2023-06-14T00:00:00	2024-11-08T01:00:00	2	Temperatura media	15.6
112766	7	Sololá	701	Sololá	4	Finca Santa Victoria	6	Junio	2023-06-14T00:00:00	2024-11-08T01:00:00	4	Temperatura máxima	15.8
112767	7	Sololá	701	Sololá	4	Finca Santa Victoria	6	Junio	2023-06-14T00:00:00	2024-11-08T01:00:00	3	Temperatura mínima	15.3
112768	7	Sololá	701	Sololá	4	Finca Santa Victoria	6	Junio	2023-06-14T00:00:00	2024-11-08T01:00:00	5	Humedad	87
112769	7	Sololá	701	Sololá	4	Finca Santa Victoria	6	Junio	2023-06-14T00:00:00	2024-11-08T01:00:00	6	Velocidad del viento	1.6
112770	7	Sololá	701	Sololá	4	Finca Santa Victoria	6	Junio	2023-06-14T00:00:00	2024-11-08T01:00:00	7	Dirección del viento	1.61
112771	7	Sololá	701	Sololá	4	Finca Santa Victoria	6	Junio	2023-06-14T00:00:00	2024-11-08T01:00:00	1	Precipitación	0
112772	7	Sololá	701	Sololá	4	Finca Santa Victoria	6	Junio	2023-06-14T00:00:00	2024-11-08T01:00:00	8	Radiación solar	0
112773	7	Sololá	701	Sololá	4	Finca Santa Victoria	6	Junio	2023-06-14T00:00:00	2024-11-08T02:00:00	2	Temperatura media	15.4
112774	7	Sololá	701	Sololá	4	Finca Santa Victoria	6	Junio	2023-06-14T00:00:00	2024-11-08T02:00:00	4	Temperatura máxima	15.7
112775	7	Sololá	701	Sololá	4	Finca Santa Victoria	6	Junio	2023-06-14T00:00:00	2024-11-08T02:00:00	3	Temperatura mínima	15.4
112776	7	Sololá	701	Sololá	4	Finca Santa Victoria	6	Junio	2023-06-14T00:00:00	2024-11-08T02:00:00	5	Humedad	85
112777	7	Sololá	701	Sololá	4	Finca Santa Victoria	6	Junio	2023-06-14T00:00:00	2024-11-08T02:00:00	6	Velocidad del viento	3.2
112778	7	Sololá	701	Sololá	4	Finca Santa Victoria	6	Junio	2023-06-14T00:00:00	2024-11-08T02:00:00	7	Dirección del viento	3.22
112779	7	Sololá	701	Sololá	4	Finca Santa Victoria	6	Junio	2023-06-14T00:00:00	2024-11-08T02:00:00	1	Precipitación	0
112780	7	Sololá	701	Sololá	4	Finca Santa Victoria	6	Junio	2023-06-14T00:00:00	2024-11-08T02:00:00	8	Radiación solar	0
112781	7	Sololá	701	Sololá	4	Finca Santa Victoria	6	Junio	2023-06-14T00:00:00	2024-11-08T03:00:00	2	Temperatura media	14.9
112782	7	Sololá	701	Sololá	4	Finca Santa Victoria	6	Junio	2023-06-14T00:00:00	2024-11-08T03:00:00	4	Temperatura máxima	15.4
112783	7	Sololá	701	Sololá	4	Finca Santa Victoria	6	Junio	2023-06-14T00:00:00	2024-11-08T03:00:00	3	Temperatura mínima	14.8
112784	7	Sololá	701	Sololá	4	Finca Santa Victoria	6	Junio	2023-06-14T00:00:00	2024-11-08T03:00:00	5	Humedad	85
112785	7	Sololá	701	Sololá	4	Finca Santa Victoria	6	Junio	2023-06-14T00:00:00	2024-11-08T03:00:00	6	Velocidad del viento	1.6
112786	7	Sololá	701	Sololá	4	Finca Santa Victoria	6	Junio	2023-06-14T00:00:00	2024-11-08T03:00:00	7	Dirección del viento	1.61
112787	7	Sololá	701	Sololá	4	Finca Santa Victoria	6	Junio	2023-06-14T00:00:00	2024-11-08T03:00:00	1	Precipitación	0
112788	7	Sololá	701	Sololá	4	Finca Santa Victoria	6	Junio	2023-06-14T00:00:00	2024-11-08T03:00:00	8	Radiación solar	0
112789	7	Sololá	701	Sololá	4	Finca Santa Victoria	6	Junio	2023-06-14T00:00:00	2024-11-08T04:00:00	2	Temperatura media	14.5
112790	7	Sololá	701	Sololá	4	Finca Santa Victoria	6	Junio	2023-06-14T00:00:00	2024-11-08T04:00:00	4	Temperatura máxima	15.1
112791	7	Sololá	701	Sololá	4	Finca Santa Victoria	6	Junio	2023-06-14T00:00:00	2024-11-08T04:00:00	3	Temperatura mínima	14.5
112792	7	Sololá	701	Sololá	4	Finca Santa Victoria	6	Junio	2023-06-14T00:00:00	2024-11-08T04:00:00	5	Humedad	86
112793	7	Sololá	701	Sololá	4	Finca Santa Victoria	6	Junio	2023-06-14T00:00:00	2024-11-08T04:00:00	6	Velocidad del viento	1.6
112794	7	Sololá	701	Sololá	4	Finca Santa Victoria	6	Junio	2023-06-14T00:00:00	2024-11-08T04:00:00	7	Dirección del viento	1.61
112795	7	Sololá	701	Sololá	4	Finca Santa Victoria	6	Junio	2023-06-14T00:00:00	2024-11-08T04:00:00	1	Precipitación	0
112796	7	Sololá	701	Sololá	4	Finca Santa Victoria	6	Junio	2023-06-14T00:00:00	2024-11-08T04:00:00	8	Radiación solar	0
112797	7	Sololá	701	Sololá	4	Finca Santa Victoria	6	Junio	2023-06-14T00:00:00	2024-11-08T05:00:00	2	Temperatura media	14
112798	7	Sololá	701	Sololá	4	Finca Santa Victoria	6	Junio	2023-06-14T00:00:00	2024-11-08T05:00:00	4	Temperatura máxima	14.6
112799	7	Sololá	701	Sololá	4	Finca Santa Victoria	6	Junio	2023-06-14T00:00:00	2024-11-08T05:00:00	3	Temperatura mínima	14
112800	7	Sololá	701	Sololá	4	Finca Santa Victoria	6	Junio	2023-06-14T00:00:00	2024-11-08T05:00:00	5	Humedad	87
112801	7	Sololá	701	Sololá	4	Finca Santa Victoria	6	Junio	2023-06-14T00:00:00	2024-11-08T05:00:00	6	Velocidad del viento	0
112802	7	Sololá	701	Sololá	4	Finca Santa Victoria	6	Junio	2023-06-14T00:00:00	2024-11-08T05:00:00	7	Dirección del viento	0
112803	7	Sololá	701	Sololá	4	Finca Santa Victoria	6	Junio	2023-06-14T00:00:00	2024-11-08T05:00:00	1	Precipitación	0
112804	7	Sololá	701	Sololá	4	Finca Santa Victoria	6	Junio	2023-06-14T00:00:00	2024-11-08T05:00:00	8	Radiación solar	0
112805	7	Sololá	701	Sololá	4	Finca Santa Victoria	6	Junio	2023-06-14T00:00:00	2024-11-08T06:00:00	2	Temperatura media	14.1
112806	7	Sololá	701	Sololá	4	Finca Santa Victoria	6	Junio	2023-06-14T00:00:00	2024-11-08T06:00:00	4	Temperatura máxima	14.2
112807	7	Sololá	701	Sololá	4	Finca Santa Victoria	6	Junio	2023-06-14T00:00:00	2024-11-08T06:00:00	3	Temperatura mínima	13.9
112808	7	Sololá	701	Sololá	4	Finca Santa Victoria	6	Junio	2023-06-14T00:00:00	2024-11-08T06:00:00	5	Humedad	87
112809	7	Sololá	701	Sololá	4	Finca Santa Victoria	6	Junio	2023-06-14T00:00:00	2024-11-08T06:00:00	6	Velocidad del viento	1.6
112810	7	Sololá	701	Sololá	4	Finca Santa Victoria	6	Junio	2023-06-14T00:00:00	2024-11-08T06:00:00	7	Dirección del viento	1.61
112811	7	Sololá	701	Sololá	4	Finca Santa Victoria	6	Junio	2023-06-14T00:00:00	2024-11-08T06:00:00	1	Precipitación	0
112812	7	Sololá	701	Sololá	4	Finca Santa Victoria	6	Junio	2023-06-14T00:00:00	2024-11-08T06:00:00	8	Radiación solar	4
112813	7	Sololá	701	Sololá	4	Finca Santa Victoria	6	Junio	2023-06-14T00:00:00	2024-11-08T07:00:00	2	Temperatura media	15.7
112814	7	Sololá	701	Sololá	4	Finca Santa Victoria	6	Junio	2023-06-14T00:00:00	2024-11-08T07:00:00	4	Temperatura máxima	15.7
112815	7	Sololá	701	Sololá	4	Finca Santa Victoria	6	Junio	2023-06-14T00:00:00	2024-11-08T07:00:00	3	Temperatura mínima	14.1
112816	7	Sololá	701	Sololá	4	Finca Santa Victoria	6	Junio	2023-06-14T00:00:00	2024-11-08T07:00:00	5	Humedad	80
112817	7	Sololá	701	Sololá	4	Finca Santa Victoria	6	Junio	2023-06-14T00:00:00	2024-11-08T07:00:00	6	Velocidad del viento	1.6
112818	7	Sololá	701	Sololá	4	Finca Santa Victoria	6	Junio	2023-06-14T00:00:00	2024-11-08T07:00:00	7	Dirección del viento	1.61
112819	7	Sololá	701	Sololá	4	Finca Santa Victoria	6	Junio	2023-06-14T00:00:00	2024-11-08T07:00:00	1	Precipitación	0
112820	7	Sololá	701	Sololá	4	Finca Santa Victoria	6	Junio	2023-06-14T00:00:00	2024-11-08T07:00:00	8	Radiación solar	37
112821	7	Sololá	701	Sololá	4	Finca Santa Victoria	6	Junio	2023-06-14T00:00:00	2024-11-08T08:00:00	2	Temperatura media	17.9
112822	7	Sololá	701	Sololá	4	Finca Santa Victoria	6	Junio	2023-06-14T00:00:00	2024-11-08T08:00:00	4	Temperatura máxima	17.9
112823	7	Sololá	701	Sololá	4	Finca Santa Victoria	6	Junio	2023-06-14T00:00:00	2024-11-08T08:00:00	3	Temperatura mínima	15.7
112824	7	Sololá	701	Sololá	4	Finca Santa Victoria	6	Junio	2023-06-14T00:00:00	2024-11-08T08:00:00	5	Humedad	74
112825	7	Sololá	701	Sololá	4	Finca Santa Victoria	6	Junio	2023-06-14T00:00:00	2024-11-08T08:00:00	6	Velocidad del viento	1.6
112826	7	Sololá	701	Sololá	4	Finca Santa Victoria	6	Junio	2023-06-14T00:00:00	2024-11-08T08:00:00	7	Dirección del viento	1.61
112827	7	Sololá	701	Sololá	4	Finca Santa Victoria	6	Junio	2023-06-14T00:00:00	2024-11-08T08:00:00	1	Precipitación	0
112828	7	Sololá	701	Sololá	4	Finca Santa Victoria	6	Junio	2023-06-14T00:00:00	2024-11-08T08:00:00	8	Radiación solar	197
112829	7	Sololá	701	Sololá	4	Finca Santa Victoria	6	Junio	2023-06-14T00:00:00	2024-11-08T09:00:00	2	Temperatura media	20.3
112830	7	Sololá	701	Sololá	4	Finca Santa Victoria	6	Junio	2023-06-14T00:00:00	2024-11-08T09:00:00	4	Temperatura máxima	20.3
112831	7	Sololá	701	Sololá	4	Finca Santa Victoria	6	Junio	2023-06-14T00:00:00	2024-11-08T09:00:00	3	Temperatura mínima	17.9
112832	7	Sololá	701	Sololá	4	Finca Santa Victoria	6	Junio	2023-06-14T00:00:00	2024-11-08T09:00:00	5	Humedad	67
112833	7	Sololá	701	Sololá	4	Finca Santa Victoria	6	Junio	2023-06-14T00:00:00	2024-11-08T09:00:00	6	Velocidad del viento	1.6
112834	7	Sololá	701	Sololá	4	Finca Santa Victoria	6	Junio	2023-06-14T00:00:00	2024-11-08T09:00:00	7	Dirección del viento	1.61
112835	7	Sololá	701	Sololá	4	Finca Santa Victoria	6	Junio	2023-06-14T00:00:00	2024-11-08T09:00:00	1	Precipitación	0
112836	7	Sololá	701	Sololá	4	Finca Santa Victoria	6	Junio	2023-06-14T00:00:00	2024-11-08T09:00:00	8	Radiación solar	367
112837	7	Sololá	701	Sololá	4	Finca Santa Victoria	6	Junio	2023-06-14T00:00:00	2024-11-08T10:00:00	2	Temperatura media	20.1
112838	7	Sololá	701	Sololá	4	Finca Santa Victoria	6	Junio	2023-06-14T00:00:00	2024-11-08T10:00:00	4	Temperatura máxima	21.2
112839	7	Sololá	701	Sololá	4	Finca Santa Victoria	6	Junio	2023-06-14T00:00:00	2024-11-08T10:00:00	3	Temperatura mínima	20.1
112840	7	Sololá	701	Sololá	4	Finca Santa Victoria	6	Junio	2023-06-14T00:00:00	2024-11-08T10:00:00	5	Humedad	71
112841	7	Sololá	701	Sololá	4	Finca Santa Victoria	6	Junio	2023-06-14T00:00:00	2024-11-08T10:00:00	6	Velocidad del viento	3.2
112842	7	Sololá	701	Sololá	4	Finca Santa Victoria	6	Junio	2023-06-14T00:00:00	2024-11-08T10:00:00	7	Dirección del viento	3.22
112843	7	Sololá	701	Sololá	4	Finca Santa Victoria	6	Junio	2023-06-14T00:00:00	2024-11-08T10:00:00	1	Precipitación	0
112844	7	Sololá	701	Sololá	4	Finca Santa Victoria	6	Junio	2023-06-14T00:00:00	2024-11-08T10:00:00	8	Radiación solar	211
112845	7	Sololá	701	Sololá	4	Finca Santa Victoria	6	Junio	2023-06-14T00:00:00	2024-11-08T11:00:00	2	Temperatura media	18.7
112846	7	Sololá	701	Sololá	4	Finca Santa Victoria	6	Junio	2023-06-14T00:00:00	2024-11-08T11:00:00	4	Temperatura máxima	20.1
112847	7	Sololá	701	Sololá	4	Finca Santa Victoria	6	Junio	2023-06-14T00:00:00	2024-11-08T11:00:00	3	Temperatura mínima	18.5
112848	7	Sololá	701	Sololá	4	Finca Santa Victoria	6	Junio	2023-06-14T00:00:00	2024-11-08T11:00:00	5	Humedad	85
112849	7	Sololá	701	Sololá	4	Finca Santa Victoria	6	Junio	2023-06-14T00:00:00	2024-11-08T11:00:00	6	Velocidad del viento	3.2
112850	7	Sololá	701	Sololá	4	Finca Santa Victoria	6	Junio	2023-06-14T00:00:00	2024-11-08T11:00:00	7	Dirección del viento	3.22
112851	7	Sololá	701	Sololá	4	Finca Santa Victoria	6	Junio	2023-06-14T00:00:00	2024-11-08T11:00:00	1	Precipitación	0
112852	7	Sololá	701	Sololá	4	Finca Santa Victoria	6	Junio	2023-06-14T00:00:00	2024-11-08T11:00:00	8	Radiación solar	206
112853	7	Sololá	701	Sololá	4	Finca Santa Victoria	6	Junio	2023-06-14T00:00:00	2024-11-08T12:00:00	2	Temperatura media	17.9
112854	7	Sololá	701	Sololá	4	Finca Santa Victoria	6	Junio	2023-06-14T00:00:00	2024-11-08T12:00:00	4	Temperatura máxima	18.7
112855	7	Sololá	701	Sololá	4	Finca Santa Victoria	6	Junio	2023-06-14T00:00:00	2024-11-08T12:00:00	3	Temperatura mínima	17.7
112856	7	Sololá	701	Sololá	4	Finca Santa Victoria	6	Junio	2023-06-14T00:00:00	2024-11-08T12:00:00	5	Humedad	89
112857	7	Sololá	701	Sololá	4	Finca Santa Victoria	6	Junio	2023-06-14T00:00:00	2024-11-08T12:00:00	6	Velocidad del viento	3.2
112858	7	Sololá	701	Sololá	4	Finca Santa Victoria	6	Junio	2023-06-14T00:00:00	2024-11-08T12:00:00	7	Dirección del viento	3.22
112859	7	Sololá	701	Sololá	4	Finca Santa Victoria	6	Junio	2023-06-14T00:00:00	2024-11-08T12:00:00	1	Precipitación	0
112860	7	Sololá	701	Sololá	4	Finca Santa Victoria	6	Junio	2023-06-14T00:00:00	2024-11-08T12:00:00	8	Radiación solar	175
112861	7	Sololá	701	Sololá	4	Finca Santa Victoria	6	Junio	2023-06-14T00:00:00	2024-11-08T13:00:00	2	Temperatura media	19
112862	7	Sololá	701	Sololá	4	Finca Santa Victoria	6	Junio	2023-06-14T00:00:00	2024-11-08T13:00:00	4	Temperatura máxima	20.2
112863	7	Sololá	701	Sololá	4	Finca Santa Victoria	6	Junio	2023-06-14T00:00:00	2024-11-08T13:00:00	3	Temperatura mínima	17.9
112864	7	Sololá	701	Sololá	4	Finca Santa Victoria	6	Junio	2023-06-14T00:00:00	2024-11-08T13:00:00	5	Humedad	86
112865	7	Sololá	701	Sololá	4	Finca Santa Victoria	6	Junio	2023-06-14T00:00:00	2024-11-08T13:00:00	6	Velocidad del viento	4.8
112866	7	Sololá	701	Sololá	4	Finca Santa Victoria	6	Junio	2023-06-14T00:00:00	2024-11-08T13:00:00	7	Dirección del viento	4.83
112867	7	Sololá	701	Sololá	4	Finca Santa Victoria	6	Junio	2023-06-14T00:00:00	2024-11-08T13:00:00	1	Precipitación	0
112868	7	Sololá	701	Sololá	4	Finca Santa Victoria	6	Junio	2023-06-14T00:00:00	2024-11-08T13:00:00	8	Radiación solar	549
112869	7	Sololá	701	Sololá	4	Finca Santa Victoria	6	Junio	2023-06-14T00:00:00	2024-11-08T14:00:00	2	Temperatura media	20
112870	7	Sololá	701	Sololá	4	Finca Santa Victoria	6	Junio	2023-06-14T00:00:00	2024-11-08T14:00:00	4	Temperatura máxima	20.4
112871	7	Sololá	701	Sololá	4	Finca Santa Victoria	6	Junio	2023-06-14T00:00:00	2024-11-08T14:00:00	3	Temperatura mínima	18.7
112872	7	Sololá	701	Sololá	4	Finca Santa Victoria	6	Junio	2023-06-14T00:00:00	2024-11-08T14:00:00	5	Humedad	83
112873	7	Sololá	701	Sololá	4	Finca Santa Victoria	6	Junio	2023-06-14T00:00:00	2024-11-08T14:00:00	6	Velocidad del viento	4.8
112874	7	Sololá	701	Sololá	4	Finca Santa Victoria	6	Junio	2023-06-14T00:00:00	2024-11-08T14:00:00	7	Dirección del viento	4.83
112875	7	Sololá	701	Sololá	4	Finca Santa Victoria	6	Junio	2023-06-14T00:00:00	2024-11-08T14:00:00	1	Precipitación	0
112876	7	Sololá	701	Sololá	4	Finca Santa Victoria	6	Junio	2023-06-14T00:00:00	2024-11-08T14:00:00	8	Radiación solar	654
112877	7	Sololá	701	Sololá	4	Finca Santa Victoria	6	Junio	2023-06-14T00:00:00	2024-11-08T15:00:00	2	Temperatura media	18.6
112878	7	Sololá	701	Sololá	4	Finca Santa Victoria	6	Junio	2023-06-14T00:00:00	2024-11-08T15:00:00	4	Temperatura máxima	20
112879	7	Sololá	701	Sololá	4	Finca Santa Victoria	6	Junio	2023-06-14T00:00:00	2024-11-08T15:00:00	3	Temperatura mínima	18.5
112880	7	Sololá	701	Sololá	4	Finca Santa Victoria	6	Junio	2023-06-14T00:00:00	2024-11-08T15:00:00	5	Humedad	90
112881	7	Sololá	701	Sololá	4	Finca Santa Victoria	6	Junio	2023-06-14T00:00:00	2024-11-08T15:00:00	6	Velocidad del viento	4.8
112882	7	Sololá	701	Sololá	4	Finca Santa Victoria	6	Junio	2023-06-14T00:00:00	2024-11-08T15:00:00	7	Dirección del viento	4.83
112883	7	Sololá	701	Sololá	4	Finca Santa Victoria	6	Junio	2023-06-14T00:00:00	2024-11-08T15:00:00	1	Precipitación	0
112884	7	Sololá	701	Sololá	4	Finca Santa Victoria	6	Junio	2023-06-14T00:00:00	2024-11-08T15:00:00	8	Radiación solar	232
112885	7	Sololá	701	Sololá	4	Finca Santa Victoria	6	Junio	2023-06-14T00:00:00	2024-11-08T16:00:00	2	Temperatura media	18
112886	7	Sololá	701	Sololá	4	Finca Santa Victoria	6	Junio	2023-06-14T00:00:00	2024-11-08T16:00:00	4	Temperatura máxima	18.6
112887	7	Sololá	701	Sololá	4	Finca Santa Victoria	6	Junio	2023-06-14T00:00:00	2024-11-08T16:00:00	3	Temperatura mínima	17.9
112888	7	Sololá	701	Sololá	4	Finca Santa Victoria	6	Junio	2023-06-14T00:00:00	2024-11-08T16:00:00	5	Humedad	91
112889	7	Sololá	701	Sololá	4	Finca Santa Victoria	6	Junio	2023-06-14T00:00:00	2024-11-08T16:00:00	6	Velocidad del viento	3.2
112890	7	Sololá	701	Sololá	4	Finca Santa Victoria	6	Junio	2023-06-14T00:00:00	2024-11-08T16:00:00	7	Dirección del viento	3.22
112891	7	Sololá	701	Sololá	4	Finca Santa Victoria	6	Junio	2023-06-14T00:00:00	2024-11-08T16:00:00	1	Precipitación	0
112892	7	Sololá	701	Sololá	4	Finca Santa Victoria	6	Junio	2023-06-14T00:00:00	2024-11-08T16:00:00	8	Radiación solar	132
112893	7	Sololá	701	Sololá	4	Finca Santa Victoria	6	Junio	2023-06-14T00:00:00	2024-11-08T17:00:00	2	Temperatura media	16.5
112894	7	Sololá	701	Sololá	4	Finca Santa Victoria	6	Junio	2023-06-14T00:00:00	2024-11-08T17:00:00	4	Temperatura máxima	18
112895	7	Sololá	701	Sololá	4	Finca Santa Victoria	6	Junio	2023-06-14T00:00:00	2024-11-08T17:00:00	3	Temperatura mínima	16.5
112896	7	Sololá	701	Sololá	4	Finca Santa Victoria	6	Junio	2023-06-14T00:00:00	2024-11-08T17:00:00	5	Humedad	97
112897	7	Sololá	701	Sololá	4	Finca Santa Victoria	6	Junio	2023-06-14T00:00:00	2024-11-08T17:00:00	6	Velocidad del viento	3.2
112898	7	Sololá	701	Sololá	4	Finca Santa Victoria	6	Junio	2023-06-14T00:00:00	2024-11-08T17:00:00	7	Dirección del viento	3.22
112899	7	Sololá	701	Sololá	4	Finca Santa Victoria	6	Junio	2023-06-14T00:00:00	2024-11-08T17:00:00	1	Precipitación	0
112900	7	Sololá	701	Sololá	4	Finca Santa Victoria	6	Junio	2023-06-14T00:00:00	2024-11-08T17:00:00	8	Radiación solar	28
112901	7	Sololá	701	Sololá	4	Finca Santa Victoria	6	Junio	2023-06-14T00:00:00	2024-11-08T18:00:00	2	Temperatura media	16.2
112902	7	Sololá	701	Sololá	4	Finca Santa Victoria	6	Junio	2023-06-14T00:00:00	2024-11-08T18:00:00	4	Temperatura máxima	16.5
112903	7	Sololá	701	Sololá	4	Finca Santa Victoria	6	Junio	2023-06-14T00:00:00	2024-11-08T18:00:00	3	Temperatura mínima	16.1
112904	7	Sololá	701	Sololá	4	Finca Santa Victoria	6	Junio	2023-06-14T00:00:00	2024-11-08T18:00:00	5	Humedad	98
112905	7	Sololá	701	Sololá	4	Finca Santa Victoria	6	Junio	2023-06-14T00:00:00	2024-11-08T18:00:00	6	Velocidad del viento	1.6
112906	7	Sololá	701	Sololá	4	Finca Santa Victoria	6	Junio	2023-06-14T00:00:00	2024-11-08T18:00:00	7	Dirección del viento	1.61
112907	7	Sololá	701	Sololá	4	Finca Santa Victoria	6	Junio	2023-06-14T00:00:00	2024-11-08T18:00:00	1	Precipitación	0
112908	7	Sololá	701	Sololá	4	Finca Santa Victoria	6	Junio	2023-06-14T00:00:00	2024-11-08T18:00:00	8	Radiación solar	26
112909	7	Sololá	701	Sololá	4	Finca Santa Victoria	6	Junio	2023-06-14T00:00:00	2024-11-08T19:00:00	2	Temperatura media	15.8
112910	7	Sololá	701	Sololá	4	Finca Santa Victoria	6	Junio	2023-06-14T00:00:00	2024-11-08T19:00:00	4	Temperatura máxima	16.2
112911	7	Sololá	701	Sololá	4	Finca Santa Victoria	6	Junio	2023-06-14T00:00:00	2024-11-08T19:00:00	3	Temperatura mínima	15.8
112912	7	Sololá	701	Sololá	4	Finca Santa Victoria	6	Junio	2023-06-14T00:00:00	2024-11-08T19:00:00	5	Humedad	97
112913	7	Sololá	701	Sololá	4	Finca Santa Victoria	6	Junio	2023-06-14T00:00:00	2024-11-08T19:00:00	6	Velocidad del viento	1.6
112914	7	Sololá	701	Sololá	4	Finca Santa Victoria	6	Junio	2023-06-14T00:00:00	2024-11-08T19:00:00	7	Dirección del viento	1.61
112915	7	Sololá	701	Sololá	4	Finca Santa Victoria	6	Junio	2023-06-14T00:00:00	2024-11-08T19:00:00	1	Precipitación	0
112916	7	Sololá	701	Sololá	4	Finca Santa Victoria	6	Junio	2023-06-14T00:00:00	2024-11-08T19:00:00	8	Radiación solar	0
112917	7	Sololá	701	Sololá	4	Finca Santa Victoria	6	Junio	2023-06-14T00:00:00	2024-11-08T20:00:00	2	Temperatura media	15
112918	7	Sololá	701	Sololá	4	Finca Santa Victoria	6	Junio	2023-06-14T00:00:00	2024-11-08T20:00:00	4	Temperatura máxima	15.8
112919	7	Sololá	701	Sololá	4	Finca Santa Victoria	6	Junio	2023-06-14T00:00:00	2024-11-08T20:00:00	3	Temperatura mínima	14.9
112920	7	Sololá	701	Sololá	4	Finca Santa Victoria	6	Junio	2023-06-14T00:00:00	2024-11-08T20:00:00	5	Humedad	96
112921	7	Sololá	701	Sololá	4	Finca Santa Victoria	6	Junio	2023-06-14T00:00:00	2024-11-08T20:00:00	6	Velocidad del viento	0
112922	7	Sololá	701	Sololá	4	Finca Santa Victoria	6	Junio	2023-06-14T00:00:00	2024-11-08T20:00:00	7	Dirección del viento	0
112923	7	Sololá	701	Sololá	4	Finca Santa Victoria	6	Junio	2023-06-14T00:00:00	2024-11-08T20:00:00	1	Precipitación	0
112924	7	Sololá	701	Sololá	4	Finca Santa Victoria	6	Junio	2023-06-14T00:00:00	2024-11-08T20:00:00	8	Radiación solar	0
112925	7	Sololá	701	Sololá	4	Finca Santa Victoria	6	Junio	2023-06-14T00:00:00	2024-11-08T21:00:00	2	Temperatura media	15.3
112926	7	Sololá	701	Sololá	4	Finca Santa Victoria	6	Junio	2023-06-14T00:00:00	2024-11-08T21:00:00	4	Temperatura máxima	15.3
112927	7	Sololá	701	Sololá	4	Finca Santa Victoria	6	Junio	2023-06-14T00:00:00	2024-11-08T21:00:00	3	Temperatura mínima	14.8
112928	7	Sololá	701	Sololá	4	Finca Santa Victoria	6	Junio	2023-06-14T00:00:00	2024-11-08T21:00:00	5	Humedad	88
112929	7	Sololá	701	Sololá	4	Finca Santa Victoria	6	Junio	2023-06-14T00:00:00	2024-11-08T21:00:00	6	Velocidad del viento	0
112930	7	Sololá	701	Sololá	4	Finca Santa Victoria	6	Junio	2023-06-14T00:00:00	2024-11-08T21:00:00	7	Dirección del viento	0
112931	7	Sololá	701	Sololá	4	Finca Santa Victoria	6	Junio	2023-06-14T00:00:00	2024-11-08T21:00:00	1	Precipitación	0
112932	7	Sololá	701	Sololá	4	Finca Santa Victoria	6	Junio	2023-06-14T00:00:00	2024-11-08T21:00:00	8	Radiación solar	0
112933	7	Sololá	701	Sololá	4	Finca Santa Victoria	6	Junio	2023-06-14T00:00:00	2024-11-08T22:00:00	2	Temperatura media	14.9
112934	7	Sololá	701	Sololá	4	Finca Santa Victoria	6	Junio	2023-06-14T00:00:00	2024-11-08T22:00:00	4	Temperatura máxima	15.3
112935	7	Sololá	701	Sololá	4	Finca Santa Victoria	6	Junio	2023-06-14T00:00:00	2024-11-08T22:00:00	3	Temperatura mínima	14.9
112936	7	Sololá	701	Sololá	4	Finca Santa Victoria	6	Junio	2023-06-14T00:00:00	2024-11-08T22:00:00	5	Humedad	93
112937	7	Sololá	701	Sololá	4	Finca Santa Victoria	6	Junio	2023-06-14T00:00:00	2024-11-08T22:00:00	6	Velocidad del viento	0
112938	7	Sololá	701	Sololá	4	Finca Santa Victoria	6	Junio	2023-06-14T00:00:00	2024-11-08T22:00:00	7	Dirección del viento	0
112939	7	Sololá	701	Sololá	4	Finca Santa Victoria	6	Junio	2023-06-14T00:00:00	2024-11-08T22:00:00	1	Precipitación	0
112940	7	Sololá	701	Sololá	4	Finca Santa Victoria	6	Junio	2023-06-14T00:00:00	2024-11-08T22:00:00	8	Radiación solar	0
112941	7	Sololá	701	Sololá	4	Finca Santa Victoria	6	Junio	2023-06-14T00:00:00	2024-11-08T23:00:00	2	Temperatura media	14.6
112942	7	Sololá	701	Sololá	4	Finca Santa Victoria	6	Junio	2023-06-14T00:00:00	2024-11-08T23:00:00	4	Temperatura máxima	14.9
112943	7	Sololá	701	Sololá	4	Finca Santa Victoria	6	Junio	2023-06-14T00:00:00	2024-11-08T23:00:00	3	Temperatura mínima	14.5
112944	7	Sololá	701	Sololá	4	Finca Santa Victoria	6	Junio	2023-06-14T00:00:00	2024-11-08T23:00:00	5	Humedad	93
112945	7	Sololá	701	Sololá	4	Finca Santa Victoria	6	Junio	2023-06-14T00:00:00	2024-11-08T23:00:00	6	Velocidad del viento	0
112946	7	Sololá	701	Sololá	4	Finca Santa Victoria	6	Junio	2023-06-14T00:00:00	2024-11-08T23:00:00	7	Dirección del viento	0
112947	7	Sololá	701	Sololá	4	Finca Santa Victoria	6	Junio	2023-06-14T00:00:00	2024-11-08T23:00:00	1	Precipitación	0
112948	7	Sololá	701	Sololá	4	Finca Santa Victoria	6	Junio	2023-06-14T00:00:00	2024-11-08T23:00:00	8	Radiación solar	0
112949	7	Sololá	701	Sololá	4	Finca Santa Victoria	6	Junio	2023-06-15T00:00:00	2024-11-08T00:00:00	2	Temperatura media	14.5
112950	7	Sololá	701	Sololá	4	Finca Santa Victoria	6	Junio	2023-06-15T00:00:00	2024-11-08T00:00:00	4	Temperatura máxima	14.7
112951	7	Sololá	701	Sololá	4	Finca Santa Victoria	6	Junio	2023-06-15T00:00:00	2024-11-08T00:00:00	3	Temperatura mínima	14.4
112952	7	Sololá	701	Sololá	4	Finca Santa Victoria	6	Junio	2023-06-15T00:00:00	2024-11-08T00:00:00	5	Humedad	94
112953	7	Sololá	701	Sololá	4	Finca Santa Victoria	6	Junio	2023-06-15T00:00:00	2024-11-08T00:00:00	6	Velocidad del viento	0
112954	7	Sololá	701	Sololá	4	Finca Santa Victoria	6	Junio	2023-06-15T00:00:00	2024-11-08T00:00:00	7	Dirección del viento	0
112955	7	Sololá	701	Sololá	4	Finca Santa Victoria	6	Junio	2023-06-15T00:00:00	2024-11-08T00:00:00	1	Precipitación	0
112956	7	Sololá	701	Sololá	4	Finca Santa Victoria	6	Junio	2023-06-15T00:00:00	2024-11-08T00:00:00	8	Radiación solar	0
112957	7	Sololá	701	Sololá	4	Finca Santa Victoria	6	Junio	2023-06-15T00:00:00	2024-11-08T01:00:00	2	Temperatura media	14.3
112958	7	Sololá	701	Sololá	4	Finca Santa Victoria	6	Junio	2023-06-15T00:00:00	2024-11-08T01:00:00	4	Temperatura máxima	14.7
112959	7	Sololá	701	Sololá	4	Finca Santa Victoria	6	Junio	2023-06-15T00:00:00	2024-11-08T01:00:00	3	Temperatura mínima	14.3
112960	7	Sololá	701	Sololá	4	Finca Santa Victoria	6	Junio	2023-06-15T00:00:00	2024-11-08T01:00:00	5	Humedad	93
112961	7	Sololá	701	Sololá	4	Finca Santa Victoria	6	Junio	2023-06-15T00:00:00	2024-11-08T01:00:00	6	Velocidad del viento	0
112962	7	Sololá	701	Sololá	4	Finca Santa Victoria	6	Junio	2023-06-15T00:00:00	2024-11-08T01:00:00	7	Dirección del viento	0
112963	7	Sololá	701	Sololá	4	Finca Santa Victoria	6	Junio	2023-06-15T00:00:00	2024-11-08T01:00:00	1	Precipitación	0
112964	7	Sololá	701	Sololá	4	Finca Santa Victoria	6	Junio	2023-06-15T00:00:00	2024-11-08T01:00:00	8	Radiación solar	0
112965	7	Sololá	701	Sololá	4	Finca Santa Victoria	6	Junio	2023-06-15T00:00:00	2024-11-08T02:00:00	2	Temperatura media	13.8
112966	7	Sololá	701	Sololá	4	Finca Santa Victoria	6	Junio	2023-06-15T00:00:00	2024-11-08T02:00:00	4	Temperatura máxima	14.3
112967	7	Sololá	701	Sololá	4	Finca Santa Victoria	6	Junio	2023-06-15T00:00:00	2024-11-08T02:00:00	3	Temperatura mínima	13.8
112968	7	Sololá	701	Sololá	4	Finca Santa Victoria	6	Junio	2023-06-15T00:00:00	2024-11-08T02:00:00	5	Humedad	93
112969	7	Sololá	701	Sololá	4	Finca Santa Victoria	6	Junio	2023-06-15T00:00:00	2024-11-08T02:00:00	6	Velocidad del viento	0
112970	7	Sololá	701	Sololá	4	Finca Santa Victoria	6	Junio	2023-06-15T00:00:00	2024-11-08T02:00:00	7	Dirección del viento	0
112971	7	Sololá	701	Sololá	4	Finca Santa Victoria	6	Junio	2023-06-15T00:00:00	2024-11-08T02:00:00	1	Precipitación	0
112972	7	Sololá	701	Sololá	4	Finca Santa Victoria	6	Junio	2023-06-15T00:00:00	2024-11-08T02:00:00	8	Radiación solar	0
112973	7	Sololá	701	Sololá	4	Finca Santa Victoria	6	Junio	2023-06-15T00:00:00	2024-11-08T03:00:00	2	Temperatura media	13.9
112974	7	Sololá	701	Sololá	4	Finca Santa Victoria	6	Junio	2023-06-15T00:00:00	2024-11-08T03:00:00	4	Temperatura máxima	13.9
112975	7	Sololá	701	Sololá	4	Finca Santa Victoria	6	Junio	2023-06-15T00:00:00	2024-11-08T03:00:00	3	Temperatura mínima	13.7
112976	7	Sololá	701	Sololá	4	Finca Santa Victoria	6	Junio	2023-06-15T00:00:00	2024-11-08T03:00:00	5	Humedad	95
112977	7	Sololá	701	Sololá	4	Finca Santa Victoria	6	Junio	2023-06-15T00:00:00	2024-11-08T03:00:00	6	Velocidad del viento	0
112978	7	Sololá	701	Sololá	4	Finca Santa Victoria	6	Junio	2023-06-15T00:00:00	2024-11-08T03:00:00	7	Dirección del viento	0
112979	7	Sololá	701	Sololá	4	Finca Santa Victoria	6	Junio	2023-06-15T00:00:00	2024-11-08T03:00:00	1	Precipitación	0
112980	7	Sololá	701	Sololá	4	Finca Santa Victoria	6	Junio	2023-06-15T00:00:00	2024-11-08T03:00:00	8	Radiación solar	0
112981	7	Sololá	701	Sololá	4	Finca Santa Victoria	6	Junio	2023-06-15T00:00:00	2024-11-08T04:00:00	2	Temperatura media	13.4
112982	7	Sololá	701	Sololá	4	Finca Santa Victoria	6	Junio	2023-06-15T00:00:00	2024-11-08T04:00:00	4	Temperatura máxima	13.9
112983	7	Sololá	701	Sololá	4	Finca Santa Victoria	6	Junio	2023-06-15T00:00:00	2024-11-08T04:00:00	3	Temperatura mínima	13.3
112984	7	Sololá	701	Sololá	4	Finca Santa Victoria	6	Junio	2023-06-15T00:00:00	2024-11-08T04:00:00	5	Humedad	97
112985	7	Sololá	701	Sololá	4	Finca Santa Victoria	6	Junio	2023-06-15T00:00:00	2024-11-08T04:00:00	6	Velocidad del viento	0
112986	7	Sololá	701	Sololá	4	Finca Santa Victoria	6	Junio	2023-06-15T00:00:00	2024-11-08T04:00:00	7	Dirección del viento	0
112987	7	Sololá	701	Sololá	4	Finca Santa Victoria	6	Junio	2023-06-15T00:00:00	2024-11-08T04:00:00	1	Precipitación	0
112988	7	Sololá	701	Sololá	4	Finca Santa Victoria	6	Junio	2023-06-15T00:00:00	2024-11-08T04:00:00	8	Radiación solar	0
112989	7	Sololá	701	Sololá	4	Finca Santa Victoria	6	Junio	2023-06-15T00:00:00	2024-11-08T05:00:00	2	Temperatura media	13.2
112990	7	Sololá	701	Sololá	4	Finca Santa Victoria	6	Junio	2023-06-15T00:00:00	2024-11-08T05:00:00	4	Temperatura máxima	13.4
112991	7	Sololá	701	Sololá	4	Finca Santa Victoria	6	Junio	2023-06-15T00:00:00	2024-11-08T05:00:00	3	Temperatura mínima	13.2
112992	7	Sololá	701	Sololá	4	Finca Santa Victoria	6	Junio	2023-06-15T00:00:00	2024-11-08T05:00:00	5	Humedad	94
112993	7	Sololá	701	Sololá	4	Finca Santa Victoria	6	Junio	2023-06-15T00:00:00	2024-11-08T05:00:00	6	Velocidad del viento	0
112994	7	Sololá	701	Sololá	4	Finca Santa Victoria	6	Junio	2023-06-15T00:00:00	2024-11-08T05:00:00	7	Dirección del viento	0
112995	7	Sololá	701	Sololá	4	Finca Santa Victoria	6	Junio	2023-06-15T00:00:00	2024-11-08T05:00:00	1	Precipitación	0
112996	7	Sololá	701	Sololá	4	Finca Santa Victoria	6	Junio	2023-06-15T00:00:00	2024-11-08T05:00:00	8	Radiación solar	0
112997	7	Sololá	701	Sololá	4	Finca Santa Victoria	6	Junio	2023-06-15T00:00:00	2024-11-08T06:00:00	2	Temperatura media	12.9
112998	7	Sololá	701	Sololá	4	Finca Santa Victoria	6	Junio	2023-06-15T00:00:00	2024-11-08T06:00:00	4	Temperatura máxima	13.2
112999	7	Sololá	701	Sololá	4	Finca Santa Victoria	6	Junio	2023-06-15T00:00:00	2024-11-08T06:00:00	3	Temperatura mínima	12.9
113000	7	Sololá	701	Sololá	4	Finca Santa Victoria	6	Junio	2023-06-15T00:00:00	2024-11-08T06:00:00	5	Humedad	94
113001	7	Sololá	701	Sololá	4	Finca Santa Victoria	6	Junio	2023-06-15T00:00:00	2024-11-08T06:00:00	6	Velocidad del viento	0
113002	7	Sololá	701	Sololá	4	Finca Santa Victoria	6	Junio	2023-06-15T00:00:00	2024-11-08T06:00:00	7	Dirección del viento	0
113003	7	Sololá	701	Sololá	4	Finca Santa Victoria	6	Junio	2023-06-15T00:00:00	2024-11-08T06:00:00	1	Precipitación	0
113004	7	Sololá	701	Sololá	4	Finca Santa Victoria	6	Junio	2023-06-15T00:00:00	2024-11-08T06:00:00	8	Radiación solar	3
113005	7	Sololá	701	Sololá	4	Finca Santa Victoria	6	Junio	2023-06-15T00:00:00	2024-11-08T07:00:00	2	Temperatura media	13.9
113006	7	Sololá	701	Sololá	4	Finca Santa Victoria	6	Junio	2023-06-15T00:00:00	2024-11-08T07:00:00	4	Temperatura máxima	13.9
113007	7	Sololá	701	Sololá	4	Finca Santa Victoria	6	Junio	2023-06-15T00:00:00	2024-11-08T07:00:00	3	Temperatura mínima	12.8
113008	7	Sololá	701	Sololá	4	Finca Santa Victoria	6	Junio	2023-06-15T00:00:00	2024-11-08T07:00:00	5	Humedad	92
113009	7	Sololá	701	Sololá	4	Finca Santa Victoria	6	Junio	2023-06-15T00:00:00	2024-11-08T07:00:00	6	Velocidad del viento	0
113010	7	Sololá	701	Sololá	4	Finca Santa Victoria	6	Junio	2023-06-15T00:00:00	2024-11-08T07:00:00	7	Dirección del viento	0
113011	7	Sololá	701	Sololá	4	Finca Santa Victoria	6	Junio	2023-06-15T00:00:00	2024-11-08T07:00:00	1	Precipitación	0
113012	7	Sololá	701	Sololá	4	Finca Santa Victoria	6	Junio	2023-06-15T00:00:00	2024-11-08T07:00:00	8	Radiación solar	23
113013	7	Sololá	701	Sololá	4	Finca Santa Victoria	6	Junio	2023-06-15T00:00:00	2024-11-08T08:00:00	2	Temperatura media	17.9
113014	7	Sololá	701	Sololá	4	Finca Santa Victoria	6	Junio	2023-06-15T00:00:00	2024-11-08T08:00:00	4	Temperatura máxima	17.9
113015	7	Sololá	701	Sololá	4	Finca Santa Victoria	6	Junio	2023-06-15T00:00:00	2024-11-08T08:00:00	3	Temperatura mínima	13.9
113016	7	Sololá	701	Sololá	4	Finca Santa Victoria	6	Junio	2023-06-15T00:00:00	2024-11-08T08:00:00	5	Humedad	77
113017	7	Sololá	701	Sololá	4	Finca Santa Victoria	6	Junio	2023-06-15T00:00:00	2024-11-08T08:00:00	6	Velocidad del viento	1.6
113018	7	Sololá	701	Sololá	4	Finca Santa Victoria	6	Junio	2023-06-15T00:00:00	2024-11-08T08:00:00	7	Dirección del viento	1.61
113019	7	Sololá	701	Sololá	4	Finca Santa Victoria	6	Junio	2023-06-15T00:00:00	2024-11-08T08:00:00	1	Precipitación	0
113020	7	Sololá	701	Sololá	4	Finca Santa Victoria	6	Junio	2023-06-15T00:00:00	2024-11-08T08:00:00	8	Radiación solar	228
113021	7	Sololá	701	Sololá	4	Finca Santa Victoria	6	Junio	2023-06-15T00:00:00	2024-11-08T09:00:00	2	Temperatura media	18.5
113022	7	Sololá	701	Sololá	4	Finca Santa Victoria	6	Junio	2023-06-15T00:00:00	2024-11-08T09:00:00	4	Temperatura máxima	19.4
113023	7	Sololá	701	Sololá	4	Finca Santa Victoria	6	Junio	2023-06-15T00:00:00	2024-11-08T09:00:00	3	Temperatura mínima	17.9
113024	7	Sololá	701	Sololá	4	Finca Santa Victoria	6	Junio	2023-06-15T00:00:00	2024-11-08T09:00:00	5	Humedad	80
113025	7	Sololá	701	Sololá	4	Finca Santa Victoria	6	Junio	2023-06-15T00:00:00	2024-11-08T09:00:00	6	Velocidad del viento	1.6
113026	7	Sololá	701	Sololá	4	Finca Santa Victoria	6	Junio	2023-06-15T00:00:00	2024-11-08T09:00:00	7	Dirección del viento	1.61
113027	7	Sololá	701	Sololá	4	Finca Santa Victoria	6	Junio	2023-06-15T00:00:00	2024-11-08T09:00:00	1	Precipitación	0
113028	7	Sololá	701	Sololá	4	Finca Santa Victoria	6	Junio	2023-06-15T00:00:00	2024-11-08T09:00:00	8	Radiación solar	374
113029	7	Sololá	701	Sololá	4	Finca Santa Victoria	6	Junio	2023-06-15T00:00:00	2024-11-08T10:00:00	2	Temperatura media	19.3
113030	7	Sololá	701	Sololá	4	Finca Santa Victoria	6	Junio	2023-06-15T00:00:00	2024-11-08T10:00:00	4	Temperatura máxima	19.3
113031	7	Sololá	701	Sololá	4	Finca Santa Victoria	6	Junio	2023-06-15T00:00:00	2024-11-08T10:00:00	3	Temperatura mínima	17.8
113032	7	Sololá	701	Sololá	4	Finca Santa Victoria	6	Junio	2023-06-15T00:00:00	2024-11-08T10:00:00	5	Humedad	80
113033	7	Sololá	701	Sololá	4	Finca Santa Victoria	6	Junio	2023-06-15T00:00:00	2024-11-08T10:00:00	6	Velocidad del viento	1.6
113034	7	Sololá	701	Sololá	4	Finca Santa Victoria	6	Junio	2023-06-15T00:00:00	2024-11-08T10:00:00	7	Dirección del viento	1.61
113035	7	Sololá	701	Sololá	4	Finca Santa Victoria	6	Junio	2023-06-15T00:00:00	2024-11-08T10:00:00	1	Precipitación	0
113036	7	Sololá	701	Sololá	4	Finca Santa Victoria	6	Junio	2023-06-15T00:00:00	2024-11-08T10:00:00	8	Radiación solar	171
113037	7	Sololá	701	Sololá	4	Finca Santa Victoria	6	Junio	2023-06-15T00:00:00	2024-11-08T11:00:00	2	Temperatura media	17.6
113038	7	Sololá	701	Sololá	4	Finca Santa Victoria	6	Junio	2023-06-15T00:00:00	2024-11-08T11:00:00	4	Temperatura máxima	19.6
113039	7	Sololá	701	Sololá	4	Finca Santa Victoria	6	Junio	2023-06-15T00:00:00	2024-11-08T11:00:00	3	Temperatura mínima	17.6
113040	7	Sololá	701	Sololá	4	Finca Santa Victoria	6	Junio	2023-06-15T00:00:00	2024-11-08T11:00:00	5	Humedad	90
113041	7	Sololá	701	Sololá	4	Finca Santa Victoria	6	Junio	2023-06-15T00:00:00	2024-11-08T11:00:00	6	Velocidad del viento	3.2
113042	7	Sololá	701	Sololá	4	Finca Santa Victoria	6	Junio	2023-06-15T00:00:00	2024-11-08T11:00:00	7	Dirección del viento	3.22
113043	7	Sololá	701	Sololá	4	Finca Santa Victoria	6	Junio	2023-06-15T00:00:00	2024-11-08T11:00:00	1	Precipitación	0
113044	7	Sololá	701	Sololá	4	Finca Santa Victoria	6	Junio	2023-06-15T00:00:00	2024-11-08T11:00:00	8	Radiación solar	167
113045	7	Sololá	701	Sololá	4	Finca Santa Victoria	6	Junio	2023-06-15T00:00:00	2024-11-08T12:00:00	2	Temperatura media	17.9
113046	7	Sololá	701	Sololá	4	Finca Santa Victoria	6	Junio	2023-06-15T00:00:00	2024-11-08T12:00:00	4	Temperatura máxima	18
113047	7	Sololá	701	Sololá	4	Finca Santa Victoria	6	Junio	2023-06-15T00:00:00	2024-11-08T12:00:00	3	Temperatura mínima	16.9
113048	7	Sololá	701	Sololá	4	Finca Santa Victoria	6	Junio	2023-06-15T00:00:00	2024-11-08T12:00:00	5	Humedad	90
113049	7	Sololá	701	Sololá	4	Finca Santa Victoria	6	Junio	2023-06-15T00:00:00	2024-11-08T12:00:00	6	Velocidad del viento	3.2
113050	7	Sololá	701	Sololá	4	Finca Santa Victoria	6	Junio	2023-06-15T00:00:00	2024-11-08T12:00:00	7	Dirección del viento	3.22
113051	7	Sololá	701	Sololá	4	Finca Santa Victoria	6	Junio	2023-06-15T00:00:00	2024-11-08T12:00:00	1	Precipitación	0
113052	7	Sololá	701	Sololá	4	Finca Santa Victoria	6	Junio	2023-06-15T00:00:00	2024-11-08T12:00:00	8	Radiación solar	152
113053	7	Sololá	701	Sololá	4	Finca Santa Victoria	6	Junio	2023-06-15T00:00:00	2024-11-08T13:00:00	2	Temperatura media	18.4
113054	7	Sololá	701	Sololá	4	Finca Santa Victoria	6	Junio	2023-06-15T00:00:00	2024-11-08T13:00:00	4	Temperatura máxima	18.4
113055	7	Sololá	701	Sololá	4	Finca Santa Victoria	6	Junio	2023-06-15T00:00:00	2024-11-08T13:00:00	3	Temperatura mínima	17.7
113056	7	Sololá	701	Sololá	4	Finca Santa Victoria	6	Junio	2023-06-15T00:00:00	2024-11-08T13:00:00	5	Humedad	89
113057	7	Sololá	701	Sololá	4	Finca Santa Victoria	6	Junio	2023-06-15T00:00:00	2024-11-08T13:00:00	6	Velocidad del viento	3.2
113058	7	Sololá	701	Sololá	4	Finca Santa Victoria	6	Junio	2023-06-15T00:00:00	2024-11-08T13:00:00	7	Dirección del viento	3.22
113059	7	Sololá	701	Sololá	4	Finca Santa Victoria	6	Junio	2023-06-15T00:00:00	2024-11-08T13:00:00	1	Precipitación	0
113060	7	Sololá	701	Sololá	4	Finca Santa Victoria	6	Junio	2023-06-15T00:00:00	2024-11-08T13:00:00	8	Radiación solar	213
113061	7	Sololá	701	Sololá	4	Finca Santa Victoria	6	Junio	2023-06-15T00:00:00	2024-11-08T14:00:00	2	Temperatura media	17.8
113062	7	Sololá	701	Sololá	4	Finca Santa Victoria	6	Junio	2023-06-15T00:00:00	2024-11-08T14:00:00	4	Temperatura máxima	18.6
113063	7	Sololá	701	Sololá	4	Finca Santa Victoria	6	Junio	2023-06-15T00:00:00	2024-11-08T14:00:00	3	Temperatura mínima	17.7
113064	7	Sololá	701	Sololá	4	Finca Santa Victoria	6	Junio	2023-06-15T00:00:00	2024-11-08T14:00:00	5	Humedad	91
113065	7	Sololá	701	Sololá	4	Finca Santa Victoria	6	Junio	2023-06-15T00:00:00	2024-11-08T14:00:00	6	Velocidad del viento	3.2
113066	7	Sololá	701	Sololá	4	Finca Santa Victoria	6	Junio	2023-06-15T00:00:00	2024-11-08T14:00:00	7	Dirección del viento	3.22
113067	7	Sololá	701	Sololá	4	Finca Santa Victoria	6	Junio	2023-06-15T00:00:00	2024-11-08T14:00:00	1	Precipitación	0
113068	7	Sololá	701	Sololá	4	Finca Santa Victoria	6	Junio	2023-06-15T00:00:00	2024-11-08T14:00:00	8	Radiación solar	179
113069	7	Sololá	701	Sololá	4	Finca Santa Victoria	6	Junio	2023-06-15T00:00:00	2024-11-08T15:00:00	2	Temperatura media	18.3
113070	7	Sololá	701	Sololá	4	Finca Santa Victoria	6	Junio	2023-06-15T00:00:00	2024-11-08T15:00:00	4	Temperatura máxima	18.6
113071	7	Sololá	701	Sololá	4	Finca Santa Victoria	6	Junio	2023-06-15T00:00:00	2024-11-08T15:00:00	3	Temperatura mínima	17.7
113072	7	Sololá	701	Sololá	4	Finca Santa Victoria	6	Junio	2023-06-15T00:00:00	2024-11-08T15:00:00	5	Humedad	91
113073	7	Sololá	701	Sololá	4	Finca Santa Victoria	6	Junio	2023-06-15T00:00:00	2024-11-08T15:00:00	6	Velocidad del viento	3.2
113074	7	Sololá	701	Sololá	4	Finca Santa Victoria	6	Junio	2023-06-15T00:00:00	2024-11-08T15:00:00	7	Dirección del viento	3.22
113075	7	Sololá	701	Sololá	4	Finca Santa Victoria	6	Junio	2023-06-15T00:00:00	2024-11-08T15:00:00	1	Precipitación	0
113076	7	Sololá	701	Sololá	4	Finca Santa Victoria	6	Junio	2023-06-15T00:00:00	2024-11-08T15:00:00	8	Radiación solar	158
113077	7	Sololá	701	Sololá	4	Finca Santa Victoria	6	Junio	2023-06-15T00:00:00	2024-11-08T16:00:00	2	Temperatura media	18.4
113078	7	Sololá	701	Sololá	4	Finca Santa Victoria	6	Junio	2023-06-15T00:00:00	2024-11-08T16:00:00	4	Temperatura máxima	18.4
113079	7	Sololá	701	Sololá	4	Finca Santa Victoria	6	Junio	2023-06-15T00:00:00	2024-11-08T16:00:00	3	Temperatura mínima	17.9
113080	7	Sololá	701	Sololá	4	Finca Santa Victoria	6	Junio	2023-06-15T00:00:00	2024-11-08T16:00:00	5	Humedad	91
113081	7	Sololá	701	Sololá	4	Finca Santa Victoria	6	Junio	2023-06-15T00:00:00	2024-11-08T16:00:00	6	Velocidad del viento	3.2
113082	7	Sololá	701	Sololá	4	Finca Santa Victoria	6	Junio	2023-06-15T00:00:00	2024-11-08T16:00:00	7	Dirección del viento	3.22
113083	7	Sololá	701	Sololá	4	Finca Santa Victoria	6	Junio	2023-06-15T00:00:00	2024-11-08T16:00:00	1	Precipitación	0
113084	7	Sololá	701	Sololá	4	Finca Santa Victoria	6	Junio	2023-06-15T00:00:00	2024-11-08T16:00:00	8	Radiación solar	143
113085	7	Sololá	701	Sololá	4	Finca Santa Victoria	6	Junio	2023-06-15T00:00:00	2024-11-08T17:00:00	2	Temperatura media	17.3
113086	7	Sololá	701	Sololá	4	Finca Santa Victoria	6	Junio	2023-06-15T00:00:00	2024-11-08T17:00:00	4	Temperatura máxima	18.6
113087	7	Sololá	701	Sololá	4	Finca Santa Victoria	6	Junio	2023-06-15T00:00:00	2024-11-08T17:00:00	3	Temperatura mínima	17.3
113088	7	Sololá	701	Sololá	4	Finca Santa Victoria	6	Junio	2023-06-15T00:00:00	2024-11-08T17:00:00	5	Humedad	95
113089	7	Sololá	701	Sololá	4	Finca Santa Victoria	6	Junio	2023-06-15T00:00:00	2024-11-08T17:00:00	6	Velocidad del viento	3.2
113090	7	Sololá	701	Sololá	4	Finca Santa Victoria	6	Junio	2023-06-15T00:00:00	2024-11-08T17:00:00	7	Dirección del viento	3.22
113091	7	Sololá	701	Sololá	4	Finca Santa Victoria	6	Junio	2023-06-15T00:00:00	2024-11-08T17:00:00	1	Precipitación	0
113092	7	Sololá	701	Sololá	4	Finca Santa Victoria	6	Junio	2023-06-15T00:00:00	2024-11-08T17:00:00	8	Radiación solar	95
113093	7	Sololá	701	Sololá	4	Finca Santa Victoria	6	Junio	2023-06-15T00:00:00	2024-11-08T18:00:00	2	Temperatura media	16.9
113094	7	Sololá	701	Sololá	4	Finca Santa Victoria	6	Junio	2023-06-15T00:00:00	2024-11-08T18:00:00	4	Temperatura máxima	17.3
113095	7	Sololá	701	Sololá	4	Finca Santa Victoria	6	Junio	2023-06-15T00:00:00	2024-11-08T18:00:00	3	Temperatura mínima	16.9
113096	7	Sololá	701	Sololá	4	Finca Santa Victoria	6	Junio	2023-06-15T00:00:00	2024-11-08T18:00:00	5	Humedad	95
113097	7	Sololá	701	Sololá	4	Finca Santa Victoria	6	Junio	2023-06-15T00:00:00	2024-11-08T18:00:00	6	Velocidad del viento	1.6
113098	7	Sololá	701	Sololá	4	Finca Santa Victoria	6	Junio	2023-06-15T00:00:00	2024-11-08T18:00:00	7	Dirección del viento	1.61
113099	7	Sololá	701	Sololá	4	Finca Santa Victoria	6	Junio	2023-06-15T00:00:00	2024-11-08T18:00:00	1	Precipitación	0
113100	7	Sololá	701	Sololá	4	Finca Santa Victoria	6	Junio	2023-06-15T00:00:00	2024-11-08T18:00:00	8	Radiación solar	37
113101	7	Sololá	701	Sololá	4	Finca Santa Victoria	6	Junio	2023-06-15T00:00:00	2024-11-08T19:00:00	2	Temperatura media	16.4
113102	7	Sololá	701	Sololá	4	Finca Santa Victoria	6	Junio	2023-06-15T00:00:00	2024-11-08T19:00:00	4	Temperatura máxima	16.9
113103	7	Sololá	701	Sololá	4	Finca Santa Victoria	6	Junio	2023-06-15T00:00:00	2024-11-08T19:00:00	3	Temperatura mínima	16.4
113104	7	Sololá	701	Sololá	4	Finca Santa Victoria	6	Junio	2023-06-15T00:00:00	2024-11-08T19:00:00	5	Humedad	98
113105	7	Sololá	701	Sololá	4	Finca Santa Victoria	6	Junio	2023-06-15T00:00:00	2024-11-08T19:00:00	6	Velocidad del viento	1.6
113106	7	Sololá	701	Sololá	4	Finca Santa Victoria	6	Junio	2023-06-15T00:00:00	2024-11-08T19:00:00	7	Dirección del viento	1.61
113107	7	Sololá	701	Sololá	4	Finca Santa Victoria	6	Junio	2023-06-15T00:00:00	2024-11-08T19:00:00	1	Precipitación	0
113108	7	Sololá	701	Sololá	4	Finca Santa Victoria	6	Junio	2023-06-15T00:00:00	2024-11-08T19:00:00	8	Radiación solar	0
113109	7	Sololá	701	Sololá	4	Finca Santa Victoria	6	Junio	2023-06-15T00:00:00	2024-11-08T20:00:00	2	Temperatura media	16.2
113110	7	Sololá	701	Sololá	4	Finca Santa Victoria	6	Junio	2023-06-15T00:00:00	2024-11-08T20:00:00	4	Temperatura máxima	16.4
113111	7	Sololá	701	Sololá	4	Finca Santa Victoria	6	Junio	2023-06-15T00:00:00	2024-11-08T20:00:00	3	Temperatura mínima	16.2
113112	7	Sololá	701	Sololá	4	Finca Santa Victoria	6	Junio	2023-06-15T00:00:00	2024-11-08T20:00:00	5	Humedad	95
113113	7	Sololá	701	Sololá	4	Finca Santa Victoria	6	Junio	2023-06-15T00:00:00	2024-11-08T20:00:00	6	Velocidad del viento	1.6
113114	7	Sololá	701	Sololá	4	Finca Santa Victoria	6	Junio	2023-06-15T00:00:00	2024-11-08T20:00:00	7	Dirección del viento	1.61
113115	7	Sololá	701	Sololá	4	Finca Santa Victoria	6	Junio	2023-06-15T00:00:00	2024-11-08T20:00:00	1	Precipitación	0
113116	7	Sololá	701	Sololá	4	Finca Santa Victoria	6	Junio	2023-06-15T00:00:00	2024-11-08T20:00:00	8	Radiación solar	0
113117	7	Sololá	701	Sololá	4	Finca Santa Victoria	6	Junio	2023-06-15T00:00:00	2024-11-08T21:00:00	2	Temperatura media	15.2
113118	7	Sololá	701	Sololá	4	Finca Santa Victoria	6	Junio	2023-06-15T00:00:00	2024-11-08T21:00:00	4	Temperatura máxima	16.2
113119	7	Sololá	701	Sololá	4	Finca Santa Victoria	6	Junio	2023-06-15T00:00:00	2024-11-08T21:00:00	3	Temperatura mínima	15.2
113120	7	Sololá	701	Sololá	4	Finca Santa Victoria	6	Junio	2023-06-15T00:00:00	2024-11-08T21:00:00	5	Humedad	95
113121	7	Sololá	701	Sololá	4	Finca Santa Victoria	6	Junio	2023-06-15T00:00:00	2024-11-08T21:00:00	6	Velocidad del viento	1.6
113122	7	Sololá	701	Sololá	4	Finca Santa Victoria	6	Junio	2023-06-15T00:00:00	2024-11-08T21:00:00	7	Dirección del viento	1.61
113123	7	Sololá	701	Sololá	4	Finca Santa Victoria	6	Junio	2023-06-15T00:00:00	2024-11-08T21:00:00	1	Precipitación	4.6
113124	7	Sololá	701	Sololá	4	Finca Santa Victoria	6	Junio	2023-06-15T00:00:00	2024-11-08T21:00:00	8	Radiación solar	0
113125	7	Sololá	701	Sololá	4	Finca Santa Victoria	6	Junio	2023-06-15T00:00:00	2024-11-08T22:00:00	2	Temperatura media	14.9
113126	7	Sololá	701	Sololá	4	Finca Santa Victoria	6	Junio	2023-06-15T00:00:00	2024-11-08T22:00:00	4	Temperatura máxima	15.2
113127	7	Sololá	701	Sololá	4	Finca Santa Victoria	6	Junio	2023-06-15T00:00:00	2024-11-08T22:00:00	3	Temperatura mínima	14.9
113128	7	Sololá	701	Sololá	4	Finca Santa Victoria	6	Junio	2023-06-15T00:00:00	2024-11-08T22:00:00	5	Humedad	98
113129	7	Sololá	701	Sololá	4	Finca Santa Victoria	6	Junio	2023-06-15T00:00:00	2024-11-08T22:00:00	6	Velocidad del viento	0
113130	7	Sololá	701	Sololá	4	Finca Santa Victoria	6	Junio	2023-06-15T00:00:00	2024-11-08T22:00:00	7	Dirección del viento	0
113131	7	Sololá	701	Sololá	4	Finca Santa Victoria	6	Junio	2023-06-15T00:00:00	2024-11-08T22:00:00	1	Precipitación	4.2
113132	7	Sololá	701	Sololá	4	Finca Santa Victoria	6	Junio	2023-06-15T00:00:00	2024-11-08T22:00:00	8	Radiación solar	0
113133	7	Sololá	701	Sololá	4	Finca Santa Victoria	6	Junio	2023-06-15T00:00:00	2024-11-08T23:00:00	2	Temperatura media	14.7
113134	7	Sololá	701	Sololá	4	Finca Santa Victoria	6	Junio	2023-06-15T00:00:00	2024-11-08T23:00:00	4	Temperatura máxima	15
113135	7	Sololá	701	Sololá	4	Finca Santa Victoria	6	Junio	2023-06-15T00:00:00	2024-11-08T23:00:00	3	Temperatura mínima	14.7
113136	7	Sololá	701	Sololá	4	Finca Santa Victoria	6	Junio	2023-06-15T00:00:00	2024-11-08T23:00:00	5	Humedad	97
113137	7	Sololá	701	Sololá	4	Finca Santa Victoria	6	Junio	2023-06-15T00:00:00	2024-11-08T23:00:00	6	Velocidad del viento	1.6
113138	7	Sololá	701	Sololá	4	Finca Santa Victoria	6	Junio	2023-06-15T00:00:00	2024-11-08T23:00:00	7	Dirección del viento	1.61
113139	7	Sololá	701	Sololá	4	Finca Santa Victoria	6	Junio	2023-06-15T00:00:00	2024-11-08T23:00:00	1	Precipitación	0.2
113140	7	Sololá	701	Sololá	4	Finca Santa Victoria	6	Junio	2023-06-15T00:00:00	2024-11-08T23:00:00	8	Radiación solar	0
113141	7	Sololá	701	Sololá	4	Finca Santa Victoria	6	Junio	2023-06-16T00:00:00	2024-11-08T00:00:00	2	Temperatura media	14.5
113142	7	Sololá	701	Sololá	4	Finca Santa Victoria	6	Junio	2023-06-16T00:00:00	2024-11-08T00:00:00	4	Temperatura máxima	14.7
113143	7	Sololá	701	Sololá	4	Finca Santa Victoria	6	Junio	2023-06-16T00:00:00	2024-11-08T00:00:00	3	Temperatura mínima	14.4
113144	7	Sololá	701	Sololá	4	Finca Santa Victoria	6	Junio	2023-06-16T00:00:00	2024-11-08T00:00:00	5	Humedad	97
113145	7	Sololá	701	Sololá	4	Finca Santa Victoria	6	Junio	2023-06-16T00:00:00	2024-11-08T00:00:00	6	Velocidad del viento	0
113146	7	Sololá	701	Sololá	4	Finca Santa Victoria	6	Junio	2023-06-16T00:00:00	2024-11-08T00:00:00	7	Dirección del viento	0
113147	7	Sololá	701	Sololá	4	Finca Santa Victoria	6	Junio	2023-06-16T00:00:00	2024-11-08T00:00:00	1	Precipitación	0
113148	7	Sololá	701	Sololá	4	Finca Santa Victoria	6	Junio	2023-06-16T00:00:00	2024-11-08T00:00:00	8	Radiación solar	0
113149	7	Sololá	701	Sololá	4	Finca Santa Victoria	6	Junio	2023-06-16T00:00:00	2024-11-08T01:00:00	2	Temperatura media	14.5
113150	7	Sololá	701	Sololá	4	Finca Santa Victoria	6	Junio	2023-06-16T00:00:00	2024-11-08T01:00:00	4	Temperatura máxima	14.6
113151	7	Sololá	701	Sololá	4	Finca Santa Victoria	6	Junio	2023-06-16T00:00:00	2024-11-08T01:00:00	3	Temperatura mínima	14.4
113152	7	Sololá	701	Sololá	4	Finca Santa Victoria	6	Junio	2023-06-16T00:00:00	2024-11-08T01:00:00	5	Humedad	98
113153	7	Sololá	701	Sololá	4	Finca Santa Victoria	6	Junio	2023-06-16T00:00:00	2024-11-08T01:00:00	6	Velocidad del viento	0
113154	7	Sololá	701	Sololá	4	Finca Santa Victoria	6	Junio	2023-06-16T00:00:00	2024-11-08T01:00:00	7	Dirección del viento	0
113155	7	Sololá	701	Sololá	4	Finca Santa Victoria	6	Junio	2023-06-16T00:00:00	2024-11-08T01:00:00	1	Precipitación	0
113156	7	Sololá	701	Sololá	4	Finca Santa Victoria	6	Junio	2023-06-16T00:00:00	2024-11-08T01:00:00	8	Radiación solar	0
113157	7	Sololá	701	Sololá	4	Finca Santa Victoria	6	Junio	2023-06-16T00:00:00	2024-11-08T02:00:00	2	Temperatura media	14.3
113158	7	Sololá	701	Sololá	4	Finca Santa Victoria	6	Junio	2023-06-16T00:00:00	2024-11-08T02:00:00	4	Temperatura máxima	14.6
113159	7	Sololá	701	Sololá	4	Finca Santa Victoria	6	Junio	2023-06-16T00:00:00	2024-11-08T02:00:00	3	Temperatura mínima	14.3
113160	7	Sololá	701	Sololá	4	Finca Santa Victoria	6	Junio	2023-06-16T00:00:00	2024-11-08T02:00:00	5	Humedad	98
113161	7	Sololá	701	Sololá	4	Finca Santa Victoria	6	Junio	2023-06-16T00:00:00	2024-11-08T02:00:00	6	Velocidad del viento	0
113162	7	Sololá	701	Sololá	4	Finca Santa Victoria	6	Junio	2023-06-16T00:00:00	2024-11-08T02:00:00	7	Dirección del viento	0
113163	7	Sololá	701	Sololá	4	Finca Santa Victoria	6	Junio	2023-06-16T00:00:00	2024-11-08T02:00:00	1	Precipitación	0
113164	7	Sololá	701	Sololá	4	Finca Santa Victoria	6	Junio	2023-06-16T00:00:00	2024-11-08T02:00:00	8	Radiación solar	0
113165	7	Sololá	701	Sololá	4	Finca Santa Victoria	6	Junio	2023-06-16T00:00:00	2024-11-08T03:00:00	2	Temperatura media	13.9
113166	7	Sololá	701	Sololá	4	Finca Santa Victoria	6	Junio	2023-06-16T00:00:00	2024-11-08T03:00:00	4	Temperatura máxima	14.4
113167	7	Sololá	701	Sololá	4	Finca Santa Victoria	6	Junio	2023-06-16T00:00:00	2024-11-08T03:00:00	3	Temperatura mínima	13.9
113168	7	Sololá	701	Sololá	4	Finca Santa Victoria	6	Junio	2023-06-16T00:00:00	2024-11-08T03:00:00	5	Humedad	98
113169	7	Sololá	701	Sololá	4	Finca Santa Victoria	6	Junio	2023-06-16T00:00:00	2024-11-08T03:00:00	6	Velocidad del viento	0
113170	7	Sololá	701	Sololá	4	Finca Santa Victoria	6	Junio	2023-06-16T00:00:00	2024-11-08T03:00:00	7	Dirección del viento	0
113171	7	Sololá	701	Sololá	4	Finca Santa Victoria	6	Junio	2023-06-16T00:00:00	2024-11-08T03:00:00	1	Precipitación	0
113172	7	Sololá	701	Sololá	4	Finca Santa Victoria	6	Junio	2023-06-16T00:00:00	2024-11-08T03:00:00	8	Radiación solar	0
113173	7	Sololá	701	Sololá	4	Finca Santa Victoria	6	Junio	2023-06-16T00:00:00	2024-11-08T04:00:00	2	Temperatura media	13.4
113174	7	Sololá	701	Sololá	4	Finca Santa Victoria	6	Junio	2023-06-16T00:00:00	2024-11-08T04:00:00	4	Temperatura máxima	14
113175	7	Sololá	701	Sololá	4	Finca Santa Victoria	6	Junio	2023-06-16T00:00:00	2024-11-08T04:00:00	3	Temperatura mínima	13.3
113176	7	Sololá	701	Sololá	4	Finca Santa Victoria	6	Junio	2023-06-16T00:00:00	2024-11-08T04:00:00	5	Humedad	98
113177	7	Sololá	701	Sololá	4	Finca Santa Victoria	6	Junio	2023-06-16T00:00:00	2024-11-08T04:00:00	6	Velocidad del viento	1.6
113178	7	Sololá	701	Sololá	4	Finca Santa Victoria	6	Junio	2023-06-16T00:00:00	2024-11-08T04:00:00	7	Dirección del viento	1.61
113179	7	Sololá	701	Sololá	4	Finca Santa Victoria	6	Junio	2023-06-16T00:00:00	2024-11-08T04:00:00	1	Precipitación	0
113180	7	Sololá	701	Sololá	4	Finca Santa Victoria	6	Junio	2023-06-16T00:00:00	2024-11-08T04:00:00	8	Radiación solar	0
113181	7	Sololá	701	Sololá	4	Finca Santa Victoria	6	Junio	2023-06-16T00:00:00	2024-11-08T05:00:00	2	Temperatura media	12.8
113182	7	Sololá	701	Sololá	4	Finca Santa Victoria	6	Junio	2023-06-16T00:00:00	2024-11-08T05:00:00	4	Temperatura máxima	13.5
113183	7	Sololá	701	Sololá	4	Finca Santa Victoria	6	Junio	2023-06-16T00:00:00	2024-11-08T05:00:00	3	Temperatura mínima	12.8
113184	7	Sololá	701	Sololá	4	Finca Santa Victoria	6	Junio	2023-06-16T00:00:00	2024-11-08T05:00:00	5	Humedad	98
113185	7	Sololá	701	Sololá	4	Finca Santa Victoria	6	Junio	2023-06-16T00:00:00	2024-11-08T05:00:00	6	Velocidad del viento	1.6
113186	7	Sololá	701	Sololá	4	Finca Santa Victoria	6	Junio	2023-06-16T00:00:00	2024-11-08T05:00:00	7	Dirección del viento	1.61
113187	7	Sololá	701	Sololá	4	Finca Santa Victoria	6	Junio	2023-06-16T00:00:00	2024-11-08T05:00:00	1	Precipitación	0
113188	7	Sololá	701	Sololá	4	Finca Santa Victoria	6	Junio	2023-06-16T00:00:00	2024-11-08T05:00:00	8	Radiación solar	0
113189	7	Sololá	701	Sololá	4	Finca Santa Victoria	6	Junio	2023-06-16T00:00:00	2024-11-08T06:00:00	2	Temperatura media	12.4
113190	7	Sololá	701	Sololá	4	Finca Santa Victoria	6	Junio	2023-06-16T00:00:00	2024-11-08T06:00:00	4	Temperatura máxima	12.8
113191	7	Sololá	701	Sololá	4	Finca Santa Victoria	6	Junio	2023-06-16T00:00:00	2024-11-08T06:00:00	3	Temperatura mínima	12.3
113192	7	Sololá	701	Sololá	4	Finca Santa Victoria	6	Junio	2023-06-16T00:00:00	2024-11-08T06:00:00	5	Humedad	99
113193	7	Sololá	701	Sololá	4	Finca Santa Victoria	6	Junio	2023-06-16T00:00:00	2024-11-08T06:00:00	6	Velocidad del viento	0
113194	7	Sololá	701	Sololá	4	Finca Santa Victoria	6	Junio	2023-06-16T00:00:00	2024-11-08T06:00:00	7	Dirección del viento	0
113195	7	Sololá	701	Sololá	4	Finca Santa Victoria	6	Junio	2023-06-16T00:00:00	2024-11-08T06:00:00	1	Precipitación	0
113196	7	Sololá	701	Sololá	4	Finca Santa Victoria	6	Junio	2023-06-16T00:00:00	2024-11-08T06:00:00	8	Radiación solar	2
113197	7	Sololá	701	Sololá	4	Finca Santa Victoria	6	Junio	2023-06-16T00:00:00	2024-11-08T07:00:00	2	Temperatura media	13.2
113198	7	Sololá	701	Sololá	4	Finca Santa Victoria	6	Junio	2023-06-16T00:00:00	2024-11-08T07:00:00	4	Temperatura máxima	13.2
113199	7	Sololá	701	Sololá	4	Finca Santa Victoria	6	Junio	2023-06-16T00:00:00	2024-11-08T07:00:00	3	Temperatura mínima	12.4
113200	7	Sololá	701	Sololá	4	Finca Santa Victoria	6	Junio	2023-06-16T00:00:00	2024-11-08T07:00:00	5	Humedad	99
113201	7	Sololá	701	Sololá	4	Finca Santa Victoria	6	Junio	2023-06-16T00:00:00	2024-11-08T07:00:00	6	Velocidad del viento	1.6
113202	7	Sololá	701	Sololá	4	Finca Santa Victoria	6	Junio	2023-06-16T00:00:00	2024-11-08T07:00:00	7	Dirección del viento	1.61
113203	7	Sololá	701	Sololá	4	Finca Santa Victoria	6	Junio	2023-06-16T00:00:00	2024-11-08T07:00:00	1	Precipitación	0.2
113204	7	Sololá	701	Sololá	4	Finca Santa Victoria	6	Junio	2023-06-16T00:00:00	2024-11-08T07:00:00	8	Radiación solar	18
113205	7	Sololá	701	Sololá	4	Finca Santa Victoria	6	Junio	2023-06-16T00:00:00	2024-11-08T08:00:00	2	Temperatura media	16.5
113206	7	Sololá	701	Sololá	4	Finca Santa Victoria	6	Junio	2023-06-16T00:00:00	2024-11-08T08:00:00	4	Temperatura máxima	16.5
113207	7	Sololá	701	Sololá	4	Finca Santa Victoria	6	Junio	2023-06-16T00:00:00	2024-11-08T08:00:00	3	Temperatura mínima	13.2
113208	7	Sololá	701	Sololá	4	Finca Santa Victoria	6	Junio	2023-06-16T00:00:00	2024-11-08T08:00:00	5	Humedad	89
113209	7	Sololá	701	Sololá	4	Finca Santa Victoria	6	Junio	2023-06-16T00:00:00	2024-11-08T08:00:00	6	Velocidad del viento	1.6
113210	7	Sololá	701	Sololá	4	Finca Santa Victoria	6	Junio	2023-06-16T00:00:00	2024-11-08T08:00:00	7	Dirección del viento	1.61
113211	7	Sololá	701	Sololá	4	Finca Santa Victoria	6	Junio	2023-06-16T00:00:00	2024-11-08T08:00:00	1	Precipitación	0
113212	7	Sololá	701	Sololá	4	Finca Santa Victoria	6	Junio	2023-06-16T00:00:00	2024-11-08T08:00:00	8	Radiación solar	268
113213	7	Sololá	701	Sololá	4	Finca Santa Victoria	6	Junio	2023-06-16T00:00:00	2024-11-08T09:00:00	2	Temperatura media	19.2
113214	7	Sololá	701	Sololá	4	Finca Santa Victoria	6	Junio	2023-06-16T00:00:00	2024-11-08T09:00:00	4	Temperatura máxima	19.4
113215	7	Sololá	701	Sololá	4	Finca Santa Victoria	6	Junio	2023-06-16T00:00:00	2024-11-08T09:00:00	3	Temperatura mínima	16.4
113216	7	Sololá	701	Sololá	4	Finca Santa Victoria	6	Junio	2023-06-16T00:00:00	2024-11-08T09:00:00	5	Humedad	82
113217	7	Sololá	701	Sololá	4	Finca Santa Victoria	6	Junio	2023-06-16T00:00:00	2024-11-08T09:00:00	6	Velocidad del viento	3.2
113218	7	Sololá	701	Sololá	4	Finca Santa Victoria	6	Junio	2023-06-16T00:00:00	2024-11-08T09:00:00	7	Dirección del viento	3.22
113219	7	Sololá	701	Sololá	4	Finca Santa Victoria	6	Junio	2023-06-16T00:00:00	2024-11-08T09:00:00	1	Precipitación	0
113220	7	Sololá	701	Sololá	4	Finca Santa Victoria	6	Junio	2023-06-16T00:00:00	2024-11-08T09:00:00	8	Radiación solar	425
113221	7	Sololá	701	Sololá	4	Finca Santa Victoria	6	Junio	2023-06-16T00:00:00	2024-11-08T10:00:00	2	Temperatura media	21
113222	7	Sololá	701	Sololá	4	Finca Santa Victoria	6	Junio	2023-06-16T00:00:00	2024-11-08T10:00:00	4	Temperatura máxima	21
113223	7	Sololá	701	Sololá	4	Finca Santa Victoria	6	Junio	2023-06-16T00:00:00	2024-11-08T10:00:00	3	Temperatura mínima	19.1
113224	7	Sololá	701	Sololá	4	Finca Santa Victoria	6	Junio	2023-06-16T00:00:00	2024-11-08T10:00:00	5	Humedad	64
113225	7	Sololá	701	Sololá	4	Finca Santa Victoria	6	Junio	2023-06-16T00:00:00	2024-11-08T10:00:00	6	Velocidad del viento	3.2
113226	7	Sololá	701	Sololá	4	Finca Santa Victoria	6	Junio	2023-06-16T00:00:00	2024-11-08T10:00:00	7	Dirección del viento	3.22
113227	7	Sololá	701	Sololá	4	Finca Santa Victoria	6	Junio	2023-06-16T00:00:00	2024-11-08T10:00:00	1	Precipitación	0
113228	7	Sololá	701	Sololá	4	Finca Santa Victoria	6	Junio	2023-06-16T00:00:00	2024-11-08T10:00:00	8	Radiación solar	203
113229	7	Sololá	701	Sololá	4	Finca Santa Victoria	6	Junio	2023-06-16T00:00:00	2024-11-08T11:00:00	2	Temperatura media	21.8
113230	7	Sololá	701	Sololá	4	Finca Santa Victoria	6	Junio	2023-06-16T00:00:00	2024-11-08T11:00:00	4	Temperatura máxima	22.2
113231	7	Sololá	701	Sololá	4	Finca Santa Victoria	6	Junio	2023-06-16T00:00:00	2024-11-08T11:00:00	3	Temperatura mínima	21
113232	7	Sololá	701	Sololá	4	Finca Santa Victoria	6	Junio	2023-06-16T00:00:00	2024-11-08T11:00:00	5	Humedad	59
113233	7	Sololá	701	Sololá	4	Finca Santa Victoria	6	Junio	2023-06-16T00:00:00	2024-11-08T11:00:00	6	Velocidad del viento	3.2
113234	7	Sololá	701	Sololá	4	Finca Santa Victoria	6	Junio	2023-06-16T00:00:00	2024-11-08T11:00:00	7	Dirección del viento	3.22
113235	7	Sololá	701	Sololá	4	Finca Santa Victoria	6	Junio	2023-06-16T00:00:00	2024-11-08T11:00:00	1	Precipitación	0
113236	7	Sololá	701	Sololá	4	Finca Santa Victoria	6	Junio	2023-06-16T00:00:00	2024-11-08T11:00:00	8	Radiación solar	228
113237	7	Sololá	701	Sololá	4	Finca Santa Victoria	6	Junio	2023-06-16T00:00:00	2024-11-08T12:00:00	2	Temperatura media	21.4
113238	7	Sololá	701	Sololá	4	Finca Santa Victoria	6	Junio	2023-06-16T00:00:00	2024-11-08T12:00:00	4	Temperatura máxima	22.4
113239	7	Sololá	701	Sololá	4	Finca Santa Victoria	6	Junio	2023-06-16T00:00:00	2024-11-08T12:00:00	3	Temperatura mínima	20.4
113240	7	Sololá	701	Sololá	4	Finca Santa Victoria	6	Junio	2023-06-16T00:00:00	2024-11-08T12:00:00	5	Humedad	76
113241	7	Sololá	701	Sololá	4	Finca Santa Victoria	6	Junio	2023-06-16T00:00:00	2024-11-08T12:00:00	6	Velocidad del viento	3.2
113242	7	Sololá	701	Sololá	4	Finca Santa Victoria	6	Junio	2023-06-16T00:00:00	2024-11-08T12:00:00	7	Dirección del viento	3.22
113243	7	Sololá	701	Sololá	4	Finca Santa Victoria	6	Junio	2023-06-16T00:00:00	2024-11-08T12:00:00	1	Precipitación	0
113244	7	Sololá	701	Sololá	4	Finca Santa Victoria	6	Junio	2023-06-16T00:00:00	2024-11-08T12:00:00	8	Radiación solar	776
113245	7	Sololá	701	Sololá	4	Finca Santa Victoria	6	Junio	2023-06-16T00:00:00	2024-11-08T13:00:00	2	Temperatura media	19.7
113246	7	Sololá	701	Sololá	4	Finca Santa Victoria	6	Junio	2023-06-16T00:00:00	2024-11-08T13:00:00	4	Temperatura máxima	21.4
113247	7	Sololá	701	Sololá	4	Finca Santa Victoria	6	Junio	2023-06-16T00:00:00	2024-11-08T13:00:00	3	Temperatura mínima	19.1
113248	7	Sololá	701	Sololá	4	Finca Santa Victoria	6	Junio	2023-06-16T00:00:00	2024-11-08T13:00:00	5	Humedad	83
113249	7	Sololá	701	Sololá	4	Finca Santa Victoria	6	Junio	2023-06-16T00:00:00	2024-11-08T13:00:00	6	Velocidad del viento	4.8
113250	7	Sololá	701	Sololá	4	Finca Santa Victoria	6	Junio	2023-06-16T00:00:00	2024-11-08T13:00:00	7	Dirección del viento	4.83
113251	7	Sololá	701	Sololá	4	Finca Santa Victoria	6	Junio	2023-06-16T00:00:00	2024-11-08T13:00:00	1	Precipitación	0
113252	7	Sololá	701	Sololá	4	Finca Santa Victoria	6	Junio	2023-06-16T00:00:00	2024-11-08T13:00:00	8	Radiación solar	625
113253	7	Sololá	701	Sololá	4	Finca Santa Victoria	6	Junio	2023-06-16T00:00:00	2024-11-08T14:00:00	2	Temperatura media	18.4
113254	7	Sololá	701	Sololá	4	Finca Santa Victoria	6	Junio	2023-06-16T00:00:00	2024-11-08T14:00:00	4	Temperatura máxima	20.1
113255	7	Sololá	701	Sololá	4	Finca Santa Victoria	6	Junio	2023-06-16T00:00:00	2024-11-08T14:00:00	3	Temperatura mínima	18.3
113256	7	Sololá	701	Sololá	4	Finca Santa Victoria	6	Junio	2023-06-16T00:00:00	2024-11-08T14:00:00	5	Humedad	88
113257	7	Sololá	701	Sololá	4	Finca Santa Victoria	6	Junio	2023-06-16T00:00:00	2024-11-08T14:00:00	6	Velocidad del viento	4.8
113258	7	Sololá	701	Sololá	4	Finca Santa Victoria	6	Junio	2023-06-16T00:00:00	2024-11-08T14:00:00	7	Dirección del viento	4.83
113259	7	Sololá	701	Sololá	4	Finca Santa Victoria	6	Junio	2023-06-16T00:00:00	2024-11-08T14:00:00	1	Precipitación	0
113260	7	Sololá	701	Sololá	4	Finca Santa Victoria	6	Junio	2023-06-16T00:00:00	2024-11-08T14:00:00	8	Radiación solar	205
113261	7	Sololá	701	Sololá	4	Finca Santa Victoria	6	Junio	2023-06-16T00:00:00	2024-11-08T15:00:00	2	Temperatura media	17.8
113262	7	Sololá	701	Sololá	4	Finca Santa Victoria	6	Junio	2023-06-16T00:00:00	2024-11-08T15:00:00	4	Temperatura máxima	18.4
113263	7	Sololá	701	Sololá	4	Finca Santa Victoria	6	Junio	2023-06-16T00:00:00	2024-11-08T15:00:00	3	Temperatura mínima	17.8
113264	7	Sololá	701	Sololá	4	Finca Santa Victoria	6	Junio	2023-06-16T00:00:00	2024-11-08T15:00:00	5	Humedad	92
113265	7	Sololá	701	Sololá	4	Finca Santa Victoria	6	Junio	2023-06-16T00:00:00	2024-11-08T15:00:00	6	Velocidad del viento	3.2
113266	7	Sololá	701	Sololá	4	Finca Santa Victoria	6	Junio	2023-06-16T00:00:00	2024-11-08T15:00:00	7	Dirección del viento	3.22
113267	7	Sololá	701	Sololá	4	Finca Santa Victoria	6	Junio	2023-06-16T00:00:00	2024-11-08T15:00:00	1	Precipitación	0
113268	7	Sololá	701	Sololá	4	Finca Santa Victoria	6	Junio	2023-06-16T00:00:00	2024-11-08T15:00:00	8	Radiación solar	139
113269	7	Sololá	701	Sololá	4	Finca Santa Victoria	6	Junio	2023-06-16T00:00:00	2024-11-08T16:00:00	2	Temperatura media	17.2
113270	7	Sololá	701	Sololá	4	Finca Santa Victoria	6	Junio	2023-06-16T00:00:00	2024-11-08T16:00:00	4	Temperatura máxima	17.8
113271	7	Sololá	701	Sololá	4	Finca Santa Victoria	6	Junio	2023-06-16T00:00:00	2024-11-08T16:00:00	3	Temperatura mínima	17.2
113272	7	Sololá	701	Sololá	4	Finca Santa Victoria	6	Junio	2023-06-16T00:00:00	2024-11-08T16:00:00	5	Humedad	89
113273	7	Sololá	701	Sololá	4	Finca Santa Victoria	6	Junio	2023-06-16T00:00:00	2024-11-08T16:00:00	6	Velocidad del viento	3.2
113274	7	Sololá	701	Sololá	4	Finca Santa Victoria	6	Junio	2023-06-16T00:00:00	2024-11-08T16:00:00	7	Dirección del viento	3.22
113275	7	Sololá	701	Sololá	4	Finca Santa Victoria	6	Junio	2023-06-16T00:00:00	2024-11-08T16:00:00	1	Precipitación	0
113276	7	Sololá	701	Sololá	4	Finca Santa Victoria	6	Junio	2023-06-16T00:00:00	2024-11-08T16:00:00	8	Radiación solar	109
113277	7	Sololá	701	Sololá	4	Finca Santa Victoria	6	Junio	2023-06-16T00:00:00	2024-11-08T17:00:00	2	Temperatura media	17.6
113278	7	Sololá	701	Sololá	4	Finca Santa Victoria	6	Junio	2023-06-16T00:00:00	2024-11-08T17:00:00	4	Temperatura máxima	18.2
113279	7	Sololá	701	Sololá	4	Finca Santa Victoria	6	Junio	2023-06-16T00:00:00	2024-11-08T17:00:00	3	Temperatura mínima	16.9
113280	7	Sololá	701	Sololá	4	Finca Santa Victoria	6	Junio	2023-06-16T00:00:00	2024-11-08T17:00:00	5	Humedad	89
113281	7	Sololá	701	Sololá	4	Finca Santa Victoria	6	Junio	2023-06-16T00:00:00	2024-11-08T17:00:00	6	Velocidad del viento	1.6
113282	7	Sololá	701	Sololá	4	Finca Santa Victoria	6	Junio	2023-06-16T00:00:00	2024-11-08T17:00:00	7	Dirección del viento	1.61
113283	7	Sololá	701	Sololá	4	Finca Santa Victoria	6	Junio	2023-06-16T00:00:00	2024-11-08T17:00:00	1	Precipitación	0
113284	7	Sololá	701	Sololá	4	Finca Santa Victoria	6	Junio	2023-06-16T00:00:00	2024-11-08T17:00:00	8	Radiación solar	101
113285	7	Sololá	701	Sololá	4	Finca Santa Victoria	6	Junio	2023-06-16T00:00:00	2024-11-08T18:00:00	2	Temperatura media	16.1
113286	7	Sololá	701	Sololá	4	Finca Santa Victoria	6	Junio	2023-06-16T00:00:00	2024-11-08T18:00:00	4	Temperatura máxima	17.6
113287	7	Sololá	701	Sololá	4	Finca Santa Victoria	6	Junio	2023-06-16T00:00:00	2024-11-08T18:00:00	3	Temperatura mínima	16.1
113288	7	Sololá	701	Sololá	4	Finca Santa Victoria	6	Junio	2023-06-16T00:00:00	2024-11-08T18:00:00	5	Humedad	96
113289	7	Sololá	701	Sololá	4	Finca Santa Victoria	6	Junio	2023-06-16T00:00:00	2024-11-08T18:00:00	6	Velocidad del viento	1.6
113290	7	Sololá	701	Sololá	4	Finca Santa Victoria	6	Junio	2023-06-16T00:00:00	2024-11-08T18:00:00	7	Dirección del viento	1.61
113291	7	Sololá	701	Sololá	4	Finca Santa Victoria	6	Junio	2023-06-16T00:00:00	2024-11-08T18:00:00	1	Precipitación	0
113292	7	Sololá	701	Sololá	4	Finca Santa Victoria	6	Junio	2023-06-16T00:00:00	2024-11-08T18:00:00	8	Radiación solar	49
113293	7	Sololá	701	Sololá	4	Finca Santa Victoria	6	Junio	2023-06-16T00:00:00	2024-11-08T19:00:00	2	Temperatura media	15.4
113294	7	Sololá	701	Sololá	4	Finca Santa Victoria	6	Junio	2023-06-16T00:00:00	2024-11-08T19:00:00	4	Temperatura máxima	16.1
113295	7	Sololá	701	Sololá	4	Finca Santa Victoria	6	Junio	2023-06-16T00:00:00	2024-11-08T19:00:00	3	Temperatura mínima	15.4
113296	7	Sololá	701	Sololá	4	Finca Santa Victoria	6	Junio	2023-06-16T00:00:00	2024-11-08T19:00:00	5	Humedad	96
113297	7	Sololá	701	Sololá	4	Finca Santa Victoria	6	Junio	2023-06-16T00:00:00	2024-11-08T19:00:00	6	Velocidad del viento	0
113298	7	Sololá	701	Sololá	4	Finca Santa Victoria	6	Junio	2023-06-16T00:00:00	2024-11-08T19:00:00	7	Dirección del viento	0
113299	7	Sololá	701	Sololá	4	Finca Santa Victoria	6	Junio	2023-06-16T00:00:00	2024-11-08T19:00:00	1	Precipitación	0
113300	7	Sololá	701	Sololá	4	Finca Santa Victoria	6	Junio	2023-06-16T00:00:00	2024-11-08T19:00:00	8	Radiación solar	0
113301	7	Sololá	701	Sololá	4	Finca Santa Victoria	6	Junio	2023-06-16T00:00:00	2024-11-08T20:00:00	2	Temperatura media	14.7
113302	7	Sololá	701	Sololá	4	Finca Santa Victoria	6	Junio	2023-06-16T00:00:00	2024-11-08T20:00:00	4	Temperatura máxima	15.4
113303	7	Sololá	701	Sololá	4	Finca Santa Victoria	6	Junio	2023-06-16T00:00:00	2024-11-08T20:00:00	3	Temperatura mínima	14.6
113304	7	Sololá	701	Sololá	4	Finca Santa Victoria	6	Junio	2023-06-16T00:00:00	2024-11-08T20:00:00	5	Humedad	91
113305	7	Sololá	701	Sololá	4	Finca Santa Victoria	6	Junio	2023-06-16T00:00:00	2024-11-08T20:00:00	6	Velocidad del viento	1.6
113306	7	Sololá	701	Sololá	4	Finca Santa Victoria	6	Junio	2023-06-16T00:00:00	2024-11-08T20:00:00	7	Dirección del viento	1.61
113307	7	Sololá	701	Sololá	4	Finca Santa Victoria	6	Junio	2023-06-16T00:00:00	2024-11-08T20:00:00	1	Precipitación	0
113308	7	Sololá	701	Sololá	4	Finca Santa Victoria	6	Junio	2023-06-16T00:00:00	2024-11-08T20:00:00	8	Radiación solar	0
113309	7	Sololá	701	Sololá	4	Finca Santa Victoria	6	Junio	2023-06-16T00:00:00	2024-11-08T21:00:00	2	Temperatura media	13.9
113310	7	Sololá	701	Sololá	4	Finca Santa Victoria	6	Junio	2023-06-16T00:00:00	2024-11-08T21:00:00	4	Temperatura máxima	15.4
113311	7	Sololá	701	Sololá	4	Finca Santa Victoria	6	Junio	2023-06-16T00:00:00	2024-11-08T21:00:00	3	Temperatura mínima	13.9
113312	7	Sololá	701	Sololá	4	Finca Santa Victoria	6	Junio	2023-06-16T00:00:00	2024-11-08T21:00:00	5	Humedad	93
113313	7	Sololá	701	Sololá	4	Finca Santa Victoria	6	Junio	2023-06-16T00:00:00	2024-11-08T21:00:00	6	Velocidad del viento	1.6
113314	7	Sololá	701	Sololá	4	Finca Santa Victoria	6	Junio	2023-06-16T00:00:00	2024-11-08T21:00:00	7	Dirección del viento	1.61
113315	7	Sololá	701	Sololá	4	Finca Santa Victoria	6	Junio	2023-06-16T00:00:00	2024-11-08T21:00:00	1	Precipitación	1.8
113316	7	Sololá	701	Sololá	4	Finca Santa Victoria	6	Junio	2023-06-16T00:00:00	2024-11-08T21:00:00	8	Radiación solar	0
113317	7	Sololá	701	Sololá	4	Finca Santa Victoria	6	Junio	2023-06-16T00:00:00	2024-11-08T22:00:00	2	Temperatura media	14.6
113318	7	Sololá	701	Sololá	4	Finca Santa Victoria	6	Junio	2023-06-16T00:00:00	2024-11-08T22:00:00	4	Temperatura máxima	14.6
113319	7	Sololá	701	Sololá	4	Finca Santa Victoria	6	Junio	2023-06-16T00:00:00	2024-11-08T22:00:00	3	Temperatura mínima	13.9
113320	7	Sololá	701	Sololá	4	Finca Santa Victoria	6	Junio	2023-06-16T00:00:00	2024-11-08T22:00:00	5	Humedad	95
113321	7	Sololá	701	Sololá	4	Finca Santa Victoria	6	Junio	2023-06-16T00:00:00	2024-11-08T22:00:00	6	Velocidad del viento	1.6
113322	7	Sololá	701	Sololá	4	Finca Santa Victoria	6	Junio	2023-06-16T00:00:00	2024-11-08T22:00:00	7	Dirección del viento	1.61
113323	7	Sololá	701	Sololá	4	Finca Santa Victoria	6	Junio	2023-06-16T00:00:00	2024-11-08T22:00:00	1	Precipitación	0.4
113324	7	Sololá	701	Sololá	4	Finca Santa Victoria	6	Junio	2023-06-16T00:00:00	2024-11-08T22:00:00	8	Radiación solar	0
113325	7	Sololá	701	Sololá	4	Finca Santa Victoria	6	Junio	2023-06-16T00:00:00	2024-11-08T23:00:00	2	Temperatura media	14.1
113326	7	Sololá	701	Sololá	4	Finca Santa Victoria	6	Junio	2023-06-16T00:00:00	2024-11-08T23:00:00	4	Temperatura máxima	14.6
113327	7	Sololá	701	Sololá	4	Finca Santa Victoria	6	Junio	2023-06-16T00:00:00	2024-11-08T23:00:00	3	Temperatura mínima	13.9
113328	7	Sololá	701	Sololá	4	Finca Santa Victoria	6	Junio	2023-06-16T00:00:00	2024-11-08T23:00:00	5	Humedad	91
113329	7	Sololá	701	Sololá	4	Finca Santa Victoria	6	Junio	2023-06-16T00:00:00	2024-11-08T23:00:00	6	Velocidad del viento	3.2
113330	7	Sololá	701	Sololá	4	Finca Santa Victoria	6	Junio	2023-06-16T00:00:00	2024-11-08T23:00:00	7	Dirección del viento	3.22
113331	7	Sololá	701	Sololá	4	Finca Santa Victoria	6	Junio	2023-06-16T00:00:00	2024-11-08T23:00:00	1	Precipitación	0
113332	7	Sololá	701	Sololá	4	Finca Santa Victoria	6	Junio	2023-06-16T00:00:00	2024-11-08T23:00:00	8	Radiación solar	0
113333	7	Sololá	701	Sololá	4	Finca Santa Victoria	6	Junio	2023-06-17T00:00:00	2024-11-08T00:00:00	2	Temperatura media	14.4
113334	7	Sololá	701	Sololá	4	Finca Santa Victoria	6	Junio	2023-06-17T00:00:00	2024-11-08T00:00:00	4	Temperatura máxima	14.5
113335	7	Sololá	701	Sololá	4	Finca Santa Victoria	6	Junio	2023-06-17T00:00:00	2024-11-08T00:00:00	3	Temperatura mínima	13.9
113336	7	Sololá	701	Sololá	4	Finca Santa Victoria	6	Junio	2023-06-17T00:00:00	2024-11-08T00:00:00	5	Humedad	94
113337	7	Sololá	701	Sololá	4	Finca Santa Victoria	6	Junio	2023-06-17T00:00:00	2024-11-08T00:00:00	6	Velocidad del viento	1.6
113338	7	Sololá	701	Sololá	4	Finca Santa Victoria	6	Junio	2023-06-17T00:00:00	2024-11-08T00:00:00	7	Dirección del viento	1.61
113339	7	Sololá	701	Sololá	4	Finca Santa Victoria	6	Junio	2023-06-17T00:00:00	2024-11-08T00:00:00	1	Precipitación	0
113340	7	Sololá	701	Sololá	4	Finca Santa Victoria	6	Junio	2023-06-17T00:00:00	2024-11-08T00:00:00	8	Radiación solar	0
113341	7	Sololá	701	Sololá	4	Finca Santa Victoria	6	Junio	2023-06-17T00:00:00	2024-11-08T01:00:00	2	Temperatura media	14.8
113342	7	Sololá	701	Sololá	4	Finca Santa Victoria	6	Junio	2023-06-17T00:00:00	2024-11-08T01:00:00	4	Temperatura máxima	14.8
113343	7	Sololá	701	Sololá	4	Finca Santa Victoria	6	Junio	2023-06-17T00:00:00	2024-11-08T01:00:00	3	Temperatura mínima	14.4
113344	7	Sololá	701	Sololá	4	Finca Santa Victoria	6	Junio	2023-06-17T00:00:00	2024-11-08T01:00:00	5	Humedad	89
113345	7	Sololá	701	Sololá	4	Finca Santa Victoria	6	Junio	2023-06-17T00:00:00	2024-11-08T01:00:00	6	Velocidad del viento	3.2
113346	7	Sololá	701	Sololá	4	Finca Santa Victoria	6	Junio	2023-06-17T00:00:00	2024-11-08T01:00:00	7	Dirección del viento	3.22
113347	7	Sololá	701	Sololá	4	Finca Santa Victoria	6	Junio	2023-06-17T00:00:00	2024-11-08T01:00:00	1	Precipitación	0
113348	7	Sololá	701	Sololá	4	Finca Santa Victoria	6	Junio	2023-06-17T00:00:00	2024-11-08T01:00:00	8	Radiación solar	0
113349	7	Sololá	701	Sololá	4	Finca Santa Victoria	6	Junio	2023-06-17T00:00:00	2024-11-08T02:00:00	2	Temperatura media	14.5
113350	7	Sololá	701	Sololá	4	Finca Santa Victoria	6	Junio	2023-06-17T00:00:00	2024-11-08T02:00:00	4	Temperatura máxima	14.9
113351	7	Sololá	701	Sololá	4	Finca Santa Victoria	6	Junio	2023-06-17T00:00:00	2024-11-08T02:00:00	3	Temperatura mínima	14.4
113352	7	Sololá	701	Sololá	4	Finca Santa Victoria	6	Junio	2023-06-17T00:00:00	2024-11-08T02:00:00	5	Humedad	91
113353	7	Sololá	701	Sololá	4	Finca Santa Victoria	6	Junio	2023-06-17T00:00:00	2024-11-08T02:00:00	6	Velocidad del viento	3.2
113354	7	Sololá	701	Sololá	4	Finca Santa Victoria	6	Junio	2023-06-17T00:00:00	2024-11-08T02:00:00	7	Dirección del viento	3.22
113355	7	Sololá	701	Sololá	4	Finca Santa Victoria	6	Junio	2023-06-17T00:00:00	2024-11-08T02:00:00	1	Precipitación	0
113356	7	Sololá	701	Sololá	4	Finca Santa Victoria	6	Junio	2023-06-17T00:00:00	2024-11-08T02:00:00	8	Radiación solar	0
113357	7	Sololá	701	Sololá	4	Finca Santa Victoria	6	Junio	2023-06-17T00:00:00	2024-11-08T03:00:00	2	Temperatura media	14.6
113358	7	Sololá	701	Sololá	4	Finca Santa Victoria	6	Junio	2023-06-17T00:00:00	2024-11-08T03:00:00	4	Temperatura máxima	14.6
113359	7	Sololá	701	Sololá	4	Finca Santa Victoria	6	Junio	2023-06-17T00:00:00	2024-11-08T03:00:00	3	Temperatura mínima	14.3
113360	7	Sololá	701	Sololá	4	Finca Santa Victoria	6	Junio	2023-06-17T00:00:00	2024-11-08T03:00:00	5	Humedad	88
113361	7	Sololá	701	Sololá	4	Finca Santa Victoria	6	Junio	2023-06-17T00:00:00	2024-11-08T03:00:00	6	Velocidad del viento	3.2
113362	7	Sololá	701	Sololá	4	Finca Santa Victoria	6	Junio	2023-06-17T00:00:00	2024-11-08T03:00:00	7	Dirección del viento	3.22
113363	7	Sololá	701	Sololá	4	Finca Santa Victoria	6	Junio	2023-06-17T00:00:00	2024-11-08T03:00:00	1	Precipitación	0
113364	7	Sololá	701	Sololá	4	Finca Santa Victoria	6	Junio	2023-06-17T00:00:00	2024-11-08T03:00:00	8	Radiación solar	0
113365	7	Sololá	701	Sololá	4	Finca Santa Victoria	6	Junio	2023-06-17T00:00:00	2024-11-08T04:00:00	2	Temperatura media	13.3
113366	7	Sololá	701	Sololá	4	Finca Santa Victoria	6	Junio	2023-06-17T00:00:00	2024-11-08T04:00:00	4	Temperatura máxima	14.6
113367	7	Sololá	701	Sololá	4	Finca Santa Victoria	6	Junio	2023-06-17T00:00:00	2024-11-08T04:00:00	3	Temperatura mínima	13.3
113368	7	Sololá	701	Sololá	4	Finca Santa Victoria	6	Junio	2023-06-17T00:00:00	2024-11-08T04:00:00	5	Humedad	90
113369	7	Sololá	701	Sololá	4	Finca Santa Victoria	6	Junio	2023-06-17T00:00:00	2024-11-08T04:00:00	6	Velocidad del viento	1.6
113370	7	Sololá	701	Sololá	4	Finca Santa Victoria	6	Junio	2023-06-17T00:00:00	2024-11-08T04:00:00	7	Dirección del viento	1.61
113371	7	Sololá	701	Sololá	4	Finca Santa Victoria	6	Junio	2023-06-17T00:00:00	2024-11-08T04:00:00	1	Precipitación	0
113372	7	Sololá	701	Sololá	4	Finca Santa Victoria	6	Junio	2023-06-17T00:00:00	2024-11-08T04:00:00	8	Radiación solar	0
113373	7	Sololá	701	Sololá	4	Finca Santa Victoria	6	Junio	2023-06-17T00:00:00	2024-11-08T05:00:00	2	Temperatura media	13.3
113374	7	Sololá	701	Sololá	4	Finca Santa Victoria	6	Junio	2023-06-17T00:00:00	2024-11-08T05:00:00	4	Temperatura máxima	13.4
113375	7	Sololá	701	Sololá	4	Finca Santa Victoria	6	Junio	2023-06-17T00:00:00	2024-11-08T05:00:00	3	Temperatura mínima	13.1
113376	7	Sololá	701	Sololá	4	Finca Santa Victoria	6	Junio	2023-06-17T00:00:00	2024-11-08T05:00:00	5	Humedad	89
113377	7	Sololá	701	Sololá	4	Finca Santa Victoria	6	Junio	2023-06-17T00:00:00	2024-11-08T05:00:00	6	Velocidad del viento	1.6
113378	7	Sololá	701	Sololá	4	Finca Santa Victoria	6	Junio	2023-06-17T00:00:00	2024-11-08T05:00:00	7	Dirección del viento	1.61
113379	7	Sololá	701	Sololá	4	Finca Santa Victoria	6	Junio	2023-06-17T00:00:00	2024-11-08T05:00:00	1	Precipitación	0
113380	7	Sololá	701	Sololá	4	Finca Santa Victoria	6	Junio	2023-06-17T00:00:00	2024-11-08T05:00:00	8	Radiación solar	0
113381	7	Sololá	701	Sololá	4	Finca Santa Victoria	6	Junio	2023-06-17T00:00:00	2024-11-08T06:00:00	2	Temperatura media	14.6
113382	7	Sololá	701	Sololá	4	Finca Santa Victoria	6	Junio	2023-06-17T00:00:00	2024-11-08T06:00:00	4	Temperatura máxima	14.7
113383	7	Sololá	701	Sololá	4	Finca Santa Victoria	6	Junio	2023-06-17T00:00:00	2024-11-08T06:00:00	3	Temperatura mínima	13.3
113384	7	Sololá	701	Sololá	4	Finca Santa Victoria	6	Junio	2023-06-17T00:00:00	2024-11-08T06:00:00	5	Humedad	83
113385	7	Sololá	701	Sololá	4	Finca Santa Victoria	6	Junio	2023-06-17T00:00:00	2024-11-08T06:00:00	6	Velocidad del viento	3.2
113386	7	Sololá	701	Sololá	4	Finca Santa Victoria	6	Junio	2023-06-17T00:00:00	2024-11-08T06:00:00	7	Dirección del viento	3.22
113387	7	Sololá	701	Sololá	4	Finca Santa Victoria	6	Junio	2023-06-17T00:00:00	2024-11-08T06:00:00	1	Precipitación	0
113388	7	Sololá	701	Sololá	4	Finca Santa Victoria	6	Junio	2023-06-17T00:00:00	2024-11-08T06:00:00	8	Radiación solar	2
113389	7	Sololá	701	Sololá	4	Finca Santa Victoria	6	Junio	2023-06-17T00:00:00	2024-11-08T07:00:00	2	Temperatura media	15.8
113390	7	Sololá	701	Sololá	4	Finca Santa Victoria	6	Junio	2023-06-17T00:00:00	2024-11-08T07:00:00	4	Temperatura máxima	15.8
113391	7	Sololá	701	Sololá	4	Finca Santa Victoria	6	Junio	2023-06-17T00:00:00	2024-11-08T07:00:00	3	Temperatura mínima	14.6
113392	7	Sololá	701	Sololá	4	Finca Santa Victoria	6	Junio	2023-06-17T00:00:00	2024-11-08T07:00:00	5	Humedad	77
113393	7	Sololá	701	Sololá	4	Finca Santa Victoria	6	Junio	2023-06-17T00:00:00	2024-11-08T07:00:00	6	Velocidad del viento	3.2
113394	7	Sololá	701	Sololá	4	Finca Santa Victoria	6	Junio	2023-06-17T00:00:00	2024-11-08T07:00:00	7	Dirección del viento	3.22
113395	7	Sololá	701	Sololá	4	Finca Santa Victoria	6	Junio	2023-06-17T00:00:00	2024-11-08T07:00:00	1	Precipitación	0
113396	7	Sololá	701	Sololá	4	Finca Santa Victoria	6	Junio	2023-06-17T00:00:00	2024-11-08T07:00:00	8	Radiación solar	17
113397	7	Sololá	701	Sololá	4	Finca Santa Victoria	6	Junio	2023-06-17T00:00:00	2024-11-08T08:00:00	2	Temperatura media	18.8
113398	7	Sololá	701	Sololá	4	Finca Santa Victoria	6	Junio	2023-06-17T00:00:00	2024-11-08T08:00:00	4	Temperatura máxima	18.8
113399	7	Sololá	701	Sololá	4	Finca Santa Victoria	6	Junio	2023-06-17T00:00:00	2024-11-08T08:00:00	3	Temperatura mínima	15.8
113400	7	Sololá	701	Sololá	4	Finca Santa Victoria	6	Junio	2023-06-17T00:00:00	2024-11-08T08:00:00	5	Humedad	68
113401	7	Sololá	701	Sololá	4	Finca Santa Victoria	6	Junio	2023-06-17T00:00:00	2024-11-08T08:00:00	6	Velocidad del viento	3.2
113402	7	Sololá	701	Sololá	4	Finca Santa Victoria	6	Junio	2023-06-17T00:00:00	2024-11-08T08:00:00	7	Dirección del viento	3.22
113403	7	Sololá	701	Sololá	4	Finca Santa Victoria	6	Junio	2023-06-17T00:00:00	2024-11-08T08:00:00	1	Precipitación	0
113404	7	Sololá	701	Sololá	4	Finca Santa Victoria	6	Junio	2023-06-17T00:00:00	2024-11-08T08:00:00	8	Radiación solar	259
113405	7	Sololá	701	Sololá	4	Finca Santa Victoria	6	Junio	2023-06-17T00:00:00	2024-11-08T09:00:00	2	Temperatura media	20.2
113406	7	Sololá	701	Sololá	4	Finca Santa Victoria	6	Junio	2023-06-17T00:00:00	2024-11-08T09:00:00	4	Temperatura máxima	20.2
113407	7	Sololá	701	Sololá	4	Finca Santa Victoria	6	Junio	2023-06-17T00:00:00	2024-11-08T09:00:00	3	Temperatura mínima	18.8
113408	7	Sololá	701	Sololá	4	Finca Santa Victoria	6	Junio	2023-06-17T00:00:00	2024-11-08T09:00:00	5	Humedad	65
113409	7	Sololá	701	Sololá	4	Finca Santa Victoria	6	Junio	2023-06-17T00:00:00	2024-11-08T09:00:00	6	Velocidad del viento	3.2
113410	7	Sololá	701	Sololá	4	Finca Santa Victoria	6	Junio	2023-06-17T00:00:00	2024-11-08T09:00:00	7	Dirección del viento	3.22
113411	7	Sololá	701	Sololá	4	Finca Santa Victoria	6	Junio	2023-06-17T00:00:00	2024-11-08T09:00:00	1	Precipitación	0
113412	7	Sololá	701	Sololá	4	Finca Santa Victoria	6	Junio	2023-06-17T00:00:00	2024-11-08T09:00:00	8	Radiación solar	403
113413	7	Sololá	701	Sololá	4	Finca Santa Victoria	6	Junio	2023-06-17T00:00:00	2024-11-08T10:00:00	2	Temperatura media	21.7
113414	7	Sololá	701	Sololá	4	Finca Santa Victoria	6	Junio	2023-06-17T00:00:00	2024-11-08T10:00:00	4	Temperatura máxima	21.7
113415	7	Sololá	701	Sololá	4	Finca Santa Victoria	6	Junio	2023-06-17T00:00:00	2024-11-08T10:00:00	3	Temperatura mínima	20.1
113416	7	Sololá	701	Sololá	4	Finca Santa Victoria	6	Junio	2023-06-17T00:00:00	2024-11-08T10:00:00	5	Humedad	59
113417	7	Sololá	701	Sololá	4	Finca Santa Victoria	6	Junio	2023-06-17T00:00:00	2024-11-08T10:00:00	6	Velocidad del viento	4.8
113418	7	Sololá	701	Sololá	4	Finca Santa Victoria	6	Junio	2023-06-17T00:00:00	2024-11-08T10:00:00	7	Dirección del viento	4.83
113419	7	Sololá	701	Sololá	4	Finca Santa Victoria	6	Junio	2023-06-17T00:00:00	2024-11-08T10:00:00	1	Precipitación	0
113420	7	Sololá	701	Sololá	4	Finca Santa Victoria	6	Junio	2023-06-17T00:00:00	2024-11-08T10:00:00	8	Radiación solar	166
113421	7	Sololá	701	Sololá	4	Finca Santa Victoria	6	Junio	2023-06-17T00:00:00	2024-11-08T11:00:00	2	Temperatura media	22.8
113422	7	Sololá	701	Sololá	4	Finca Santa Victoria	6	Junio	2023-06-17T00:00:00	2024-11-08T11:00:00	4	Temperatura máxima	22.8
113423	7	Sololá	701	Sololá	4	Finca Santa Victoria	6	Junio	2023-06-17T00:00:00	2024-11-08T11:00:00	3	Temperatura mínima	21.6
113424	7	Sololá	701	Sololá	4	Finca Santa Victoria	6	Junio	2023-06-17T00:00:00	2024-11-08T11:00:00	5	Humedad	60
113425	7	Sololá	701	Sololá	4	Finca Santa Victoria	6	Junio	2023-06-17T00:00:00	2024-11-08T11:00:00	6	Velocidad del viento	4.8
113426	7	Sololá	701	Sololá	4	Finca Santa Victoria	6	Junio	2023-06-17T00:00:00	2024-11-08T11:00:00	7	Dirección del viento	4.83
113427	7	Sololá	701	Sololá	4	Finca Santa Victoria	6	Junio	2023-06-17T00:00:00	2024-11-08T11:00:00	1	Precipitación	0
113428	7	Sololá	701	Sololá	4	Finca Santa Victoria	6	Junio	2023-06-17T00:00:00	2024-11-08T11:00:00	8	Radiación solar	258
113429	7	Sololá	701	Sololá	4	Finca Santa Victoria	6	Junio	2023-06-17T00:00:00	2024-11-08T12:00:00	2	Temperatura media	23.2
113430	7	Sololá	701	Sololá	4	Finca Santa Victoria	6	Junio	2023-06-17T00:00:00	2024-11-08T12:00:00	4	Temperatura máxima	23.2
113431	7	Sololá	701	Sololá	4	Finca Santa Victoria	6	Junio	2023-06-17T00:00:00	2024-11-08T12:00:00	3	Temperatura mínima	22.6
113432	7	Sololá	701	Sololá	4	Finca Santa Victoria	6	Junio	2023-06-17T00:00:00	2024-11-08T12:00:00	5	Humedad	59
113433	7	Sololá	701	Sololá	4	Finca Santa Victoria	6	Junio	2023-06-17T00:00:00	2024-11-08T12:00:00	6	Velocidad del viento	4.8
113434	7	Sololá	701	Sololá	4	Finca Santa Victoria	6	Junio	2023-06-17T00:00:00	2024-11-08T12:00:00	7	Dirección del viento	4.83
113435	7	Sololá	701	Sololá	4	Finca Santa Victoria	6	Junio	2023-06-17T00:00:00	2024-11-08T12:00:00	1	Precipitación	0
113436	7	Sololá	701	Sololá	4	Finca Santa Victoria	6	Junio	2023-06-17T00:00:00	2024-11-08T12:00:00	8	Radiación solar	981
113437	7	Sololá	701	Sololá	4	Finca Santa Victoria	6	Junio	2023-06-17T00:00:00	2024-11-08T13:00:00	2	Temperatura media	23.7
113438	7	Sololá	701	Sololá	4	Finca Santa Victoria	6	Junio	2023-06-17T00:00:00	2024-11-08T13:00:00	4	Temperatura máxima	23.9
113439	7	Sololá	701	Sololá	4	Finca Santa Victoria	6	Junio	2023-06-17T00:00:00	2024-11-08T13:00:00	3	Temperatura mínima	22.9
113440	7	Sololá	701	Sololá	4	Finca Santa Victoria	6	Junio	2023-06-17T00:00:00	2024-11-08T13:00:00	5	Humedad	53
113441	7	Sololá	701	Sololá	4	Finca Santa Victoria	6	Junio	2023-06-17T00:00:00	2024-11-08T13:00:00	6	Velocidad del viento	4.8
113442	7	Sololá	701	Sololá	4	Finca Santa Victoria	6	Junio	2023-06-17T00:00:00	2024-11-08T13:00:00	7	Dirección del viento	4.83
113443	7	Sololá	701	Sololá	4	Finca Santa Victoria	6	Junio	2023-06-17T00:00:00	2024-11-08T13:00:00	1	Precipitación	0
113444	7	Sololá	701	Sololá	4	Finca Santa Victoria	6	Junio	2023-06-17T00:00:00	2024-11-08T13:00:00	8	Radiación solar	952
113445	7	Sololá	701	Sololá	4	Finca Santa Victoria	6	Junio	2023-06-17T00:00:00	2024-11-08T14:00:00	2	Temperatura media	24.3
113446	7	Sololá	701	Sololá	4	Finca Santa Victoria	6	Junio	2023-06-17T00:00:00	2024-11-08T14:00:00	4	Temperatura máxima	24.3
113447	7	Sololá	701	Sololá	4	Finca Santa Victoria	6	Junio	2023-06-17T00:00:00	2024-11-08T14:00:00	3	Temperatura mínima	23.7
113448	7	Sololá	701	Sololá	4	Finca Santa Victoria	6	Junio	2023-06-17T00:00:00	2024-11-08T14:00:00	5	Humedad	52
113449	7	Sololá	701	Sololá	4	Finca Santa Victoria	6	Junio	2023-06-17T00:00:00	2024-11-08T14:00:00	6	Velocidad del viento	3.2
113450	7	Sololá	701	Sololá	4	Finca Santa Victoria	6	Junio	2023-06-17T00:00:00	2024-11-08T14:00:00	7	Dirección del viento	3.22
113451	7	Sololá	701	Sololá	4	Finca Santa Victoria	6	Junio	2023-06-17T00:00:00	2024-11-08T14:00:00	1	Precipitación	0
113452	7	Sololá	701	Sololá	4	Finca Santa Victoria	6	Junio	2023-06-17T00:00:00	2024-11-08T14:00:00	8	Radiación solar	965
113453	7	Sololá	701	Sololá	4	Finca Santa Victoria	6	Junio	2023-06-17T00:00:00	2024-11-08T15:00:00	2	Temperatura media	23.8
113454	7	Sololá	701	Sololá	4	Finca Santa Victoria	6	Junio	2023-06-17T00:00:00	2024-11-08T15:00:00	4	Temperatura máxima	24.8
113455	7	Sololá	701	Sololá	4	Finca Santa Victoria	6	Junio	2023-06-17T00:00:00	2024-11-08T15:00:00	3	Temperatura mínima	23.6
113456	7	Sololá	701	Sololá	4	Finca Santa Victoria	6	Junio	2023-06-17T00:00:00	2024-11-08T15:00:00	5	Humedad	53
113457	7	Sololá	701	Sololá	4	Finca Santa Victoria	6	Junio	2023-06-17T00:00:00	2024-11-08T15:00:00	6	Velocidad del viento	4.8
113458	7	Sololá	701	Sololá	4	Finca Santa Victoria	6	Junio	2023-06-17T00:00:00	2024-11-08T15:00:00	7	Dirección del viento	4.83
113459	7	Sololá	701	Sololá	4	Finca Santa Victoria	6	Junio	2023-06-17T00:00:00	2024-11-08T15:00:00	1	Precipitación	0
113460	7	Sololá	701	Sololá	4	Finca Santa Victoria	6	Junio	2023-06-17T00:00:00	2024-11-08T15:00:00	8	Radiación solar	524
113461	7	Sololá	701	Sololá	4	Finca Santa Victoria	6	Junio	2023-06-17T00:00:00	2024-11-08T16:00:00	2	Temperatura media	21
113462	7	Sololá	701	Sololá	4	Finca Santa Victoria	6	Junio	2023-06-17T00:00:00	2024-11-08T16:00:00	4	Temperatura máxima	24.1
113463	7	Sololá	701	Sololá	4	Finca Santa Victoria	6	Junio	2023-06-17T00:00:00	2024-11-08T16:00:00	3	Temperatura mínima	21
113464	7	Sololá	701	Sololá	4	Finca Santa Victoria	6	Junio	2023-06-17T00:00:00	2024-11-08T16:00:00	5	Humedad	82
113465	7	Sololá	701	Sololá	4	Finca Santa Victoria	6	Junio	2023-06-17T00:00:00	2024-11-08T16:00:00	6	Velocidad del viento	3.2
113466	7	Sololá	701	Sololá	4	Finca Santa Victoria	6	Junio	2023-06-17T00:00:00	2024-11-08T16:00:00	7	Dirección del viento	3.22
113467	7	Sololá	701	Sololá	4	Finca Santa Victoria	6	Junio	2023-06-17T00:00:00	2024-11-08T16:00:00	1	Precipitación	0
113468	7	Sololá	701	Sololá	4	Finca Santa Victoria	6	Junio	2023-06-17T00:00:00	2024-11-08T16:00:00	8	Radiación solar	173
113469	7	Sololá	701	Sololá	4	Finca Santa Victoria	6	Junio	2023-06-17T00:00:00	2024-11-08T17:00:00	2	Temperatura media	18.4
113470	7	Sololá	701	Sololá	4	Finca Santa Victoria	6	Junio	2023-06-17T00:00:00	2024-11-08T17:00:00	4	Temperatura máxima	21
113471	7	Sololá	701	Sololá	4	Finca Santa Victoria	6	Junio	2023-06-17T00:00:00	2024-11-08T17:00:00	3	Temperatura mínima	18.3
113472	7	Sololá	701	Sololá	4	Finca Santa Victoria	6	Junio	2023-06-17T00:00:00	2024-11-08T17:00:00	5	Humedad	92
113473	7	Sololá	701	Sololá	4	Finca Santa Victoria	6	Junio	2023-06-17T00:00:00	2024-11-08T17:00:00	6	Velocidad del viento	3.2
113474	7	Sololá	701	Sololá	4	Finca Santa Victoria	6	Junio	2023-06-17T00:00:00	2024-11-08T17:00:00	7	Dirección del viento	3.22
113475	7	Sololá	701	Sololá	4	Finca Santa Victoria	6	Junio	2023-06-17T00:00:00	2024-11-08T17:00:00	1	Precipitación	0
113476	7	Sololá	701	Sololá	4	Finca Santa Victoria	6	Junio	2023-06-17T00:00:00	2024-11-08T17:00:00	8	Radiación solar	100
113477	7	Sololá	701	Sololá	4	Finca Santa Victoria	6	Junio	2023-06-17T00:00:00	2024-11-08T18:00:00	2	Temperatura media	16.7
113478	7	Sololá	701	Sololá	4	Finca Santa Victoria	6	Junio	2023-06-17T00:00:00	2024-11-08T18:00:00	4	Temperatura máxima	18.3
113479	7	Sololá	701	Sololá	4	Finca Santa Victoria	6	Junio	2023-06-17T00:00:00	2024-11-08T18:00:00	3	Temperatura mínima	16.5
113480	7	Sololá	701	Sololá	4	Finca Santa Victoria	6	Junio	2023-06-17T00:00:00	2024-11-08T18:00:00	5	Humedad	87
113481	7	Sololá	701	Sololá	4	Finca Santa Victoria	6	Junio	2023-06-17T00:00:00	2024-11-08T18:00:00	6	Velocidad del viento	1.6
113482	7	Sololá	701	Sololá	4	Finca Santa Victoria	6	Junio	2023-06-17T00:00:00	2024-11-08T18:00:00	7	Dirección del viento	1.61
113483	7	Sololá	701	Sololá	4	Finca Santa Victoria	6	Junio	2023-06-17T00:00:00	2024-11-08T18:00:00	1	Precipitación	0
113484	7	Sololá	701	Sololá	4	Finca Santa Victoria	6	Junio	2023-06-17T00:00:00	2024-11-08T18:00:00	8	Radiación solar	23
113485	7	Sololá	701	Sololá	4	Finca Santa Victoria	6	Junio	2023-06-17T00:00:00	2024-11-08T19:00:00	2	Temperatura media	16.9
113486	7	Sololá	701	Sololá	4	Finca Santa Victoria	6	Junio	2023-06-17T00:00:00	2024-11-08T19:00:00	4	Temperatura máxima	17.4
113487	7	Sololá	701	Sololá	4	Finca Santa Victoria	6	Junio	2023-06-17T00:00:00	2024-11-08T19:00:00	3	Temperatura mínima	16.5
113488	7	Sololá	701	Sololá	4	Finca Santa Victoria	6	Junio	2023-06-17T00:00:00	2024-11-08T19:00:00	5	Humedad	84
113489	7	Sololá	701	Sololá	4	Finca Santa Victoria	6	Junio	2023-06-17T00:00:00	2024-11-08T19:00:00	6	Velocidad del viento	1.6
113490	7	Sololá	701	Sololá	4	Finca Santa Victoria	6	Junio	2023-06-17T00:00:00	2024-11-08T19:00:00	7	Dirección del viento	1.61
113491	7	Sololá	701	Sololá	4	Finca Santa Victoria	6	Junio	2023-06-17T00:00:00	2024-11-08T19:00:00	1	Precipitación	0
113492	7	Sololá	701	Sololá	4	Finca Santa Victoria	6	Junio	2023-06-17T00:00:00	2024-11-08T19:00:00	8	Radiación solar	0
113493	7	Sololá	701	Sololá	4	Finca Santa Victoria	6	Junio	2023-06-17T00:00:00	2024-11-08T20:00:00	2	Temperatura media	15.8
113494	7	Sololá	701	Sololá	4	Finca Santa Victoria	6	Junio	2023-06-17T00:00:00	2024-11-08T20:00:00	4	Temperatura máxima	16.9
113495	7	Sololá	701	Sololá	4	Finca Santa Victoria	6	Junio	2023-06-17T00:00:00	2024-11-08T20:00:00	3	Temperatura mínima	15.7
113496	7	Sololá	701	Sololá	4	Finca Santa Victoria	6	Junio	2023-06-17T00:00:00	2024-11-08T20:00:00	5	Humedad	88
113497	7	Sololá	701	Sololá	4	Finca Santa Victoria	6	Junio	2023-06-17T00:00:00	2024-11-08T20:00:00	6	Velocidad del viento	3.2
113498	7	Sololá	701	Sololá	4	Finca Santa Victoria	6	Junio	2023-06-17T00:00:00	2024-11-08T20:00:00	7	Dirección del viento	3.22
113499	7	Sololá	701	Sololá	4	Finca Santa Victoria	6	Junio	2023-06-17T00:00:00	2024-11-08T20:00:00	1	Precipitación	0.8
113500	7	Sololá	701	Sololá	4	Finca Santa Victoria	6	Junio	2023-06-17T00:00:00	2024-11-08T20:00:00	8	Radiación solar	0
113501	7	Sololá	701	Sololá	4	Finca Santa Victoria	6	Junio	2023-06-17T00:00:00	2024-11-08T21:00:00	2	Temperatura media	16
113502	7	Sololá	701	Sololá	4	Finca Santa Victoria	6	Junio	2023-06-17T00:00:00	2024-11-08T21:00:00	4	Temperatura máxima	16
113503	7	Sololá	701	Sololá	4	Finca Santa Victoria	6	Junio	2023-06-17T00:00:00	2024-11-08T21:00:00	3	Temperatura mínima	15.7
113504	7	Sololá	701	Sololá	4	Finca Santa Victoria	6	Junio	2023-06-17T00:00:00	2024-11-08T21:00:00	5	Humedad	84
113505	7	Sololá	701	Sololá	4	Finca Santa Victoria	6	Junio	2023-06-17T00:00:00	2024-11-08T21:00:00	6	Velocidad del viento	4.8
113506	7	Sololá	701	Sololá	4	Finca Santa Victoria	6	Junio	2023-06-17T00:00:00	2024-11-08T21:00:00	7	Dirección del viento	4.83
113507	7	Sololá	701	Sololá	4	Finca Santa Victoria	6	Junio	2023-06-17T00:00:00	2024-11-08T21:00:00	1	Precipitación	0
113508	7	Sololá	701	Sololá	4	Finca Santa Victoria	6	Junio	2023-06-17T00:00:00	2024-11-08T21:00:00	8	Radiación solar	0
113509	7	Sololá	701	Sololá	4	Finca Santa Victoria	6	Junio	2023-06-17T00:00:00	2024-11-08T22:00:00	2	Temperatura media	15.8
113510	7	Sololá	701	Sololá	4	Finca Santa Victoria	6	Junio	2023-06-17T00:00:00	2024-11-08T22:00:00	4	Temperatura máxima	16
113511	7	Sololá	701	Sololá	4	Finca Santa Victoria	6	Junio	2023-06-17T00:00:00	2024-11-08T22:00:00	3	Temperatura mínima	15.7
113512	7	Sololá	701	Sololá	4	Finca Santa Victoria	6	Junio	2023-06-17T00:00:00	2024-11-08T22:00:00	5	Humedad	84
113513	7	Sololá	701	Sololá	4	Finca Santa Victoria	6	Junio	2023-06-17T00:00:00	2024-11-08T22:00:00	6	Velocidad del viento	4.8
113514	7	Sololá	701	Sololá	4	Finca Santa Victoria	6	Junio	2023-06-17T00:00:00	2024-11-08T22:00:00	7	Dirección del viento	4.83
113515	7	Sololá	701	Sololá	4	Finca Santa Victoria	6	Junio	2023-06-17T00:00:00	2024-11-08T22:00:00	1	Precipitación	0
113516	7	Sololá	701	Sololá	4	Finca Santa Victoria	6	Junio	2023-06-17T00:00:00	2024-11-08T22:00:00	8	Radiación solar	0
113517	7	Sololá	701	Sololá	4	Finca Santa Victoria	6	Junio	2023-06-17T00:00:00	2024-11-08T23:00:00	2	Temperatura media	15.4
113518	7	Sololá	701	Sololá	4	Finca Santa Victoria	6	Junio	2023-06-17T00:00:00	2024-11-08T23:00:00	4	Temperatura máxima	15.8
113519	7	Sololá	701	Sololá	4	Finca Santa Victoria	6	Junio	2023-06-17T00:00:00	2024-11-08T23:00:00	3	Temperatura mínima	15.4
113520	7	Sololá	701	Sololá	4	Finca Santa Victoria	6	Junio	2023-06-17T00:00:00	2024-11-08T23:00:00	5	Humedad	83
113521	7	Sololá	701	Sololá	4	Finca Santa Victoria	6	Junio	2023-06-17T00:00:00	2024-11-08T23:00:00	6	Velocidad del viento	3.2
113522	7	Sololá	701	Sololá	4	Finca Santa Victoria	6	Junio	2023-06-17T00:00:00	2024-11-08T23:00:00	7	Dirección del viento	3.22
113523	7	Sololá	701	Sololá	4	Finca Santa Victoria	6	Junio	2023-06-17T00:00:00	2024-11-08T23:00:00	1	Precipitación	0
113524	7	Sololá	701	Sololá	4	Finca Santa Victoria	6	Junio	2023-06-17T00:00:00	2024-11-08T23:00:00	8	Radiación solar	0
113525	7	Sololá	701	Sololá	4	Finca Santa Victoria	6	Junio	2023-06-18T00:00:00	2024-11-08T00:00:00	2	Temperatura media	14.7
113526	7	Sololá	701	Sololá	4	Finca Santa Victoria	6	Junio	2023-06-18T00:00:00	2024-11-08T00:00:00	4	Temperatura máxima	15.4
113527	7	Sololá	701	Sololá	4	Finca Santa Victoria	6	Junio	2023-06-18T00:00:00	2024-11-08T00:00:00	3	Temperatura mínima	14.7
113528	7	Sololá	701	Sololá	4	Finca Santa Victoria	6	Junio	2023-06-18T00:00:00	2024-11-08T00:00:00	5	Humedad	83
113529	7	Sololá	701	Sololá	4	Finca Santa Victoria	6	Junio	2023-06-18T00:00:00	2024-11-08T00:00:00	6	Velocidad del viento	1.6
113530	7	Sololá	701	Sololá	4	Finca Santa Victoria	6	Junio	2023-06-18T00:00:00	2024-11-08T00:00:00	7	Dirección del viento	1.61
113531	7	Sololá	701	Sololá	4	Finca Santa Victoria	6	Junio	2023-06-18T00:00:00	2024-11-08T00:00:00	1	Precipitación	0
113532	7	Sololá	701	Sololá	4	Finca Santa Victoria	6	Junio	2023-06-18T00:00:00	2024-11-08T00:00:00	8	Radiación solar	0
113533	7	Sololá	701	Sololá	4	Finca Santa Victoria	6	Junio	2023-06-18T00:00:00	2024-11-08T01:00:00	2	Temperatura media	14
113534	7	Sololá	701	Sololá	4	Finca Santa Victoria	6	Junio	2023-06-18T00:00:00	2024-11-08T01:00:00	4	Temperatura máxima	14.7
113535	7	Sololá	701	Sololá	4	Finca Santa Victoria	6	Junio	2023-06-18T00:00:00	2024-11-08T01:00:00	3	Temperatura mínima	14
113536	7	Sololá	701	Sololá	4	Finca Santa Victoria	6	Junio	2023-06-18T00:00:00	2024-11-08T01:00:00	5	Humedad	84
113537	7	Sololá	701	Sololá	4	Finca Santa Victoria	6	Junio	2023-06-18T00:00:00	2024-11-08T01:00:00	6	Velocidad del viento	3.2
113538	7	Sololá	701	Sololá	4	Finca Santa Victoria	6	Junio	2023-06-18T00:00:00	2024-11-08T01:00:00	7	Dirección del viento	3.22
113539	7	Sololá	701	Sololá	4	Finca Santa Victoria	6	Junio	2023-06-18T00:00:00	2024-11-08T01:00:00	1	Precipitación	0
113540	7	Sololá	701	Sololá	4	Finca Santa Victoria	6	Junio	2023-06-18T00:00:00	2024-11-08T01:00:00	8	Radiación solar	0
113541	7	Sololá	701	Sololá	4	Finca Santa Victoria	6	Junio	2023-06-18T00:00:00	2024-11-08T02:00:00	2	Temperatura media	13.9
113542	7	Sololá	701	Sololá	4	Finca Santa Victoria	6	Junio	2023-06-18T00:00:00	2024-11-08T02:00:00	4	Temperatura máxima	14
113543	7	Sololá	701	Sololá	4	Finca Santa Victoria	6	Junio	2023-06-18T00:00:00	2024-11-08T02:00:00	3	Temperatura mínima	13.6
113544	7	Sololá	701	Sololá	4	Finca Santa Victoria	6	Junio	2023-06-18T00:00:00	2024-11-08T02:00:00	5	Humedad	78
113545	7	Sololá	701	Sololá	4	Finca Santa Victoria	6	Junio	2023-06-18T00:00:00	2024-11-08T02:00:00	6	Velocidad del viento	1.6
113546	7	Sololá	701	Sololá	4	Finca Santa Victoria	6	Junio	2023-06-18T00:00:00	2024-11-08T02:00:00	7	Dirección del viento	1.61
113547	7	Sololá	701	Sololá	4	Finca Santa Victoria	6	Junio	2023-06-18T00:00:00	2024-11-08T02:00:00	1	Precipitación	0
113548	7	Sololá	701	Sololá	4	Finca Santa Victoria	6	Junio	2023-06-18T00:00:00	2024-11-08T02:00:00	8	Radiación solar	0
113549	7	Sololá	701	Sololá	4	Finca Santa Victoria	6	Junio	2023-06-18T00:00:00	2024-11-08T03:00:00	2	Temperatura media	13.9
113550	7	Sololá	701	Sololá	4	Finca Santa Victoria	6	Junio	2023-06-18T00:00:00	2024-11-08T03:00:00	4	Temperatura máxima	14.3
113551	7	Sololá	701	Sololá	4	Finca Santa Victoria	6	Junio	2023-06-18T00:00:00	2024-11-08T03:00:00	3	Temperatura mínima	13.9
113552	7	Sololá	701	Sololá	4	Finca Santa Victoria	6	Junio	2023-06-18T00:00:00	2024-11-08T03:00:00	5	Humedad	77
113553	7	Sololá	701	Sololá	4	Finca Santa Victoria	6	Junio	2023-06-18T00:00:00	2024-11-08T03:00:00	6	Velocidad del viento	3.2
113554	7	Sololá	701	Sololá	4	Finca Santa Victoria	6	Junio	2023-06-18T00:00:00	2024-11-08T03:00:00	7	Dirección del viento	3.22
113555	7	Sololá	701	Sololá	4	Finca Santa Victoria	6	Junio	2023-06-18T00:00:00	2024-11-08T03:00:00	1	Precipitación	0
113556	7	Sololá	701	Sololá	4	Finca Santa Victoria	6	Junio	2023-06-18T00:00:00	2024-11-08T03:00:00	8	Radiación solar	0
113557	7	Sololá	701	Sololá	4	Finca Santa Victoria	6	Junio	2023-06-18T00:00:00	2024-11-08T04:00:00	2	Temperatura media	14
113558	7	Sololá	701	Sololá	4	Finca Santa Victoria	6	Junio	2023-06-18T00:00:00	2024-11-08T04:00:00	4	Temperatura máxima	14
113559	7	Sololá	701	Sololá	4	Finca Santa Victoria	6	Junio	2023-06-18T00:00:00	2024-11-08T04:00:00	3	Temperatura mínima	13.8
113560	7	Sololá	701	Sololá	4	Finca Santa Victoria	6	Junio	2023-06-18T00:00:00	2024-11-08T04:00:00	5	Humedad	79
113561	7	Sololá	701	Sololá	4	Finca Santa Victoria	6	Junio	2023-06-18T00:00:00	2024-11-08T04:00:00	6	Velocidad del viento	1.6
113562	7	Sololá	701	Sololá	4	Finca Santa Victoria	6	Junio	2023-06-18T00:00:00	2024-11-08T04:00:00	7	Dirección del viento	1.61
113563	7	Sololá	701	Sololá	4	Finca Santa Victoria	6	Junio	2023-06-18T00:00:00	2024-11-08T04:00:00	1	Precipitación	0
113564	7	Sololá	701	Sololá	4	Finca Santa Victoria	6	Junio	2023-06-18T00:00:00	2024-11-08T04:00:00	8	Radiación solar	0
113565	7	Sololá	701	Sololá	4	Finca Santa Victoria	6	Junio	2023-06-18T00:00:00	2024-11-08T05:00:00	2	Temperatura media	13.9
113566	7	Sololá	701	Sololá	4	Finca Santa Victoria	6	Junio	2023-06-18T00:00:00	2024-11-08T05:00:00	4	Temperatura máxima	14
113567	7	Sololá	701	Sololá	4	Finca Santa Victoria	6	Junio	2023-06-18T00:00:00	2024-11-08T05:00:00	3	Temperatura mínima	13.4
113568	7	Sololá	701	Sololá	4	Finca Santa Victoria	6	Junio	2023-06-18T00:00:00	2024-11-08T05:00:00	5	Humedad	79
113569	7	Sololá	701	Sololá	4	Finca Santa Victoria	6	Junio	2023-06-18T00:00:00	2024-11-08T05:00:00	6	Velocidad del viento	3.2
113570	7	Sololá	701	Sololá	4	Finca Santa Victoria	6	Junio	2023-06-18T00:00:00	2024-11-08T05:00:00	7	Dirección del viento	3.22
113571	7	Sololá	701	Sololá	4	Finca Santa Victoria	6	Junio	2023-06-18T00:00:00	2024-11-08T05:00:00	1	Precipitación	0
113572	7	Sololá	701	Sololá	4	Finca Santa Victoria	6	Junio	2023-06-18T00:00:00	2024-11-08T05:00:00	8	Radiación solar	0
113573	7	Sololá	701	Sololá	4	Finca Santa Victoria	6	Junio	2023-06-18T00:00:00	2024-11-08T06:00:00	2	Temperatura media	13.9
113574	7	Sololá	701	Sololá	4	Finca Santa Victoria	6	Junio	2023-06-18T00:00:00	2024-11-08T06:00:00	4	Temperatura máxima	13.9
113575	7	Sololá	701	Sololá	4	Finca Santa Victoria	6	Junio	2023-06-18T00:00:00	2024-11-08T06:00:00	3	Temperatura mínima	13.7
113576	7	Sololá	701	Sololá	4	Finca Santa Victoria	6	Junio	2023-06-18T00:00:00	2024-11-08T06:00:00	5	Humedad	79
113577	7	Sololá	701	Sololá	4	Finca Santa Victoria	6	Junio	2023-06-18T00:00:00	2024-11-08T06:00:00	6	Velocidad del viento	4.8
113578	7	Sololá	701	Sololá	4	Finca Santa Victoria	6	Junio	2023-06-18T00:00:00	2024-11-08T06:00:00	7	Dirección del viento	4.83
113579	7	Sololá	701	Sololá	4	Finca Santa Victoria	6	Junio	2023-06-18T00:00:00	2024-11-08T06:00:00	1	Precipitación	0
113580	7	Sololá	701	Sololá	4	Finca Santa Victoria	6	Junio	2023-06-18T00:00:00	2024-11-08T06:00:00	8	Radiación solar	3
113581	7	Sololá	701	Sololá	4	Finca Santa Victoria	6	Junio	2023-06-18T00:00:00	2024-11-08T07:00:00	2	Temperatura media	14.7
113582	7	Sololá	701	Sololá	4	Finca Santa Victoria	6	Junio	2023-06-18T00:00:00	2024-11-08T07:00:00	4	Temperatura máxima	14.7
113583	7	Sololá	701	Sololá	4	Finca Santa Victoria	6	Junio	2023-06-18T00:00:00	2024-11-08T07:00:00	3	Temperatura mínima	13.9
113584	7	Sololá	701	Sololá	4	Finca Santa Victoria	6	Junio	2023-06-18T00:00:00	2024-11-08T07:00:00	5	Humedad	76
113585	7	Sololá	701	Sololá	4	Finca Santa Victoria	6	Junio	2023-06-18T00:00:00	2024-11-08T07:00:00	6	Velocidad del viento	3.2
113586	7	Sololá	701	Sololá	4	Finca Santa Victoria	6	Junio	2023-06-18T00:00:00	2024-11-08T07:00:00	7	Dirección del viento	3.22
113587	7	Sololá	701	Sololá	4	Finca Santa Victoria	6	Junio	2023-06-18T00:00:00	2024-11-08T07:00:00	1	Precipitación	0
113588	7	Sololá	701	Sololá	4	Finca Santa Victoria	6	Junio	2023-06-18T00:00:00	2024-11-08T07:00:00	8	Radiación solar	18
113589	7	Sololá	701	Sololá	4	Finca Santa Victoria	6	Junio	2023-06-18T00:00:00	2024-11-08T08:00:00	2	Temperatura media	17.8
113590	7	Sololá	701	Sololá	4	Finca Santa Victoria	6	Junio	2023-06-18T00:00:00	2024-11-08T08:00:00	4	Temperatura máxima	17.8
113591	7	Sololá	701	Sololá	4	Finca Santa Victoria	6	Junio	2023-06-18T00:00:00	2024-11-08T08:00:00	3	Temperatura mínima	14.7
113592	7	Sololá	701	Sololá	4	Finca Santa Victoria	6	Junio	2023-06-18T00:00:00	2024-11-08T08:00:00	5	Humedad	68
113593	7	Sololá	701	Sololá	4	Finca Santa Victoria	6	Junio	2023-06-18T00:00:00	2024-11-08T08:00:00	6	Velocidad del viento	3.2
113594	7	Sololá	701	Sololá	4	Finca Santa Victoria	6	Junio	2023-06-18T00:00:00	2024-11-08T08:00:00	7	Dirección del viento	3.22
113595	7	Sololá	701	Sololá	4	Finca Santa Victoria	6	Junio	2023-06-18T00:00:00	2024-11-08T08:00:00	1	Precipitación	0
113596	7	Sololá	701	Sololá	4	Finca Santa Victoria	6	Junio	2023-06-18T00:00:00	2024-11-08T08:00:00	8	Radiación solar	260
113597	7	Sololá	701	Sololá	4	Finca Santa Victoria	6	Junio	2023-06-18T00:00:00	2024-11-08T09:00:00	2	Temperatura media	19.6
113598	7	Sololá	701	Sololá	4	Finca Santa Victoria	6	Junio	2023-06-18T00:00:00	2024-11-08T09:00:00	4	Temperatura máxima	19.7
113599	7	Sololá	701	Sololá	4	Finca Santa Victoria	6	Junio	2023-06-18T00:00:00	2024-11-08T09:00:00	3	Temperatura mínima	17.8
113600	7	Sololá	701	Sololá	4	Finca Santa Victoria	6	Junio	2023-06-18T00:00:00	2024-11-08T09:00:00	5	Humedad	63
113601	7	Sololá	701	Sololá	4	Finca Santa Victoria	6	Junio	2023-06-18T00:00:00	2024-11-08T09:00:00	6	Velocidad del viento	3.2
113602	7	Sololá	701	Sololá	4	Finca Santa Victoria	6	Junio	2023-06-18T00:00:00	2024-11-08T09:00:00	7	Dirección del viento	3.22
113603	7	Sololá	701	Sololá	4	Finca Santa Victoria	6	Junio	2023-06-18T00:00:00	2024-11-08T09:00:00	1	Precipitación	0
113604	7	Sololá	701	Sololá	4	Finca Santa Victoria	6	Junio	2023-06-18T00:00:00	2024-11-08T09:00:00	8	Radiación solar	396
113605	7	Sololá	701	Sololá	4	Finca Santa Victoria	6	Junio	2023-06-18T00:00:00	2024-11-08T10:00:00	2	Temperatura media	20.9
113606	7	Sololá	701	Sololá	4	Finca Santa Victoria	6	Junio	2023-06-18T00:00:00	2024-11-08T10:00:00	4	Temperatura máxima	20.9
113607	7	Sololá	701	Sololá	4	Finca Santa Victoria	6	Junio	2023-06-18T00:00:00	2024-11-08T10:00:00	3	Temperatura mínima	19.7
113608	7	Sololá	701	Sololá	4	Finca Santa Victoria	6	Junio	2023-06-18T00:00:00	2024-11-08T10:00:00	5	Humedad	58
113609	7	Sololá	701	Sololá	4	Finca Santa Victoria	6	Junio	2023-06-18T00:00:00	2024-11-08T10:00:00	6	Velocidad del viento	3.2
113610	7	Sololá	701	Sololá	4	Finca Santa Victoria	6	Junio	2023-06-18T00:00:00	2024-11-08T10:00:00	7	Dirección del viento	3.22
113611	7	Sololá	701	Sololá	4	Finca Santa Victoria	6	Junio	2023-06-18T00:00:00	2024-11-08T10:00:00	1	Precipitación	0
113612	7	Sololá	701	Sololá	4	Finca Santa Victoria	6	Junio	2023-06-18T00:00:00	2024-11-08T10:00:00	8	Radiación solar	225
113613	7	Sololá	701	Sololá	4	Finca Santa Victoria	6	Junio	2023-06-18T00:00:00	2024-11-08T11:00:00	2	Temperatura media	22.6
113614	7	Sololá	701	Sololá	4	Finca Santa Victoria	6	Junio	2023-06-18T00:00:00	2024-11-08T11:00:00	4	Temperatura máxima	22.6
113615	7	Sololá	701	Sololá	4	Finca Santa Victoria	6	Junio	2023-06-18T00:00:00	2024-11-08T11:00:00	3	Temperatura mínima	20.8
113616	7	Sololá	701	Sololá	4	Finca Santa Victoria	6	Junio	2023-06-18T00:00:00	2024-11-08T11:00:00	5	Humedad	49
113617	7	Sololá	701	Sololá	4	Finca Santa Victoria	6	Junio	2023-06-18T00:00:00	2024-11-08T11:00:00	6	Velocidad del viento	3.2
113618	7	Sololá	701	Sololá	4	Finca Santa Victoria	6	Junio	2023-06-18T00:00:00	2024-11-08T11:00:00	7	Dirección del viento	3.22
113619	7	Sololá	701	Sololá	4	Finca Santa Victoria	6	Junio	2023-06-18T00:00:00	2024-11-08T11:00:00	1	Precipitación	0
113620	7	Sololá	701	Sololá	4	Finca Santa Victoria	6	Junio	2023-06-18T00:00:00	2024-11-08T11:00:00	8	Radiación solar	252
113621	7	Sololá	701	Sololá	4	Finca Santa Victoria	6	Junio	2023-06-18T00:00:00	2024-11-08T12:00:00	2	Temperatura media	23.9
113622	7	Sololá	701	Sololá	4	Finca Santa Victoria	6	Junio	2023-06-18T00:00:00	2024-11-08T12:00:00	4	Temperatura máxima	24
113623	7	Sololá	701	Sololá	4	Finca Santa Victoria	6	Junio	2023-06-18T00:00:00	2024-11-08T12:00:00	3	Temperatura mínima	22.5
113624	7	Sololá	701	Sololá	4	Finca Santa Victoria	6	Junio	2023-06-18T00:00:00	2024-11-08T12:00:00	5	Humedad	42
113625	7	Sololá	701	Sololá	4	Finca Santa Victoria	6	Junio	2023-06-18T00:00:00	2024-11-08T12:00:00	6	Velocidad del viento	4.8
113626	7	Sololá	701	Sololá	4	Finca Santa Victoria	6	Junio	2023-06-18T00:00:00	2024-11-08T12:00:00	7	Dirección del viento	4.83
113627	7	Sololá	701	Sololá	4	Finca Santa Victoria	6	Junio	2023-06-18T00:00:00	2024-11-08T12:00:00	1	Precipitación	0
113628	7	Sololá	701	Sololá	4	Finca Santa Victoria	6	Junio	2023-06-18T00:00:00	2024-11-08T12:00:00	8	Radiación solar	1014
113629	7	Sololá	701	Sololá	4	Finca Santa Victoria	6	Junio	2023-06-18T00:00:00	2024-11-08T13:00:00	2	Temperatura media	24.3
113630	7	Sololá	701	Sololá	4	Finca Santa Victoria	6	Junio	2023-06-18T00:00:00	2024-11-08T13:00:00	4	Temperatura máxima	24.3
113631	7	Sololá	701	Sololá	4	Finca Santa Victoria	6	Junio	2023-06-18T00:00:00	2024-11-08T13:00:00	3	Temperatura mínima	23.7
113632	7	Sololá	701	Sololá	4	Finca Santa Victoria	6	Junio	2023-06-18T00:00:00	2024-11-08T13:00:00	5	Humedad	41
113633	7	Sololá	701	Sololá	4	Finca Santa Victoria	6	Junio	2023-06-18T00:00:00	2024-11-08T13:00:00	6	Velocidad del viento	3.2
113634	7	Sololá	701	Sololá	4	Finca Santa Victoria	6	Junio	2023-06-18T00:00:00	2024-11-08T13:00:00	7	Dirección del viento	3.22
113635	7	Sololá	701	Sololá	4	Finca Santa Victoria	6	Junio	2023-06-18T00:00:00	2024-11-08T13:00:00	1	Precipitación	0
113636	7	Sololá	701	Sololá	4	Finca Santa Victoria	6	Junio	2023-06-18T00:00:00	2024-11-08T13:00:00	8	Radiación solar	1028
113637	7	Sololá	701	Sololá	4	Finca Santa Victoria	6	Junio	2023-06-18T00:00:00	2024-11-08T14:00:00	2	Temperatura media	23.9
113638	7	Sololá	701	Sololá	4	Finca Santa Victoria	6	Junio	2023-06-18T00:00:00	2024-11-08T14:00:00	4	Temperatura máxima	24.8
113639	7	Sololá	701	Sololá	4	Finca Santa Victoria	6	Junio	2023-06-18T00:00:00	2024-11-08T14:00:00	3	Temperatura mínima	23.6
113640	7	Sololá	701	Sololá	4	Finca Santa Victoria	6	Junio	2023-06-18T00:00:00	2024-11-08T14:00:00	5	Humedad	49
113641	7	Sololá	701	Sololá	4	Finca Santa Victoria	6	Junio	2023-06-18T00:00:00	2024-11-08T14:00:00	6	Velocidad del viento	4.8
113642	7	Sololá	701	Sololá	4	Finca Santa Victoria	6	Junio	2023-06-18T00:00:00	2024-11-08T14:00:00	7	Dirección del viento	4.83
113643	7	Sololá	701	Sololá	4	Finca Santa Victoria	6	Junio	2023-06-18T00:00:00	2024-11-08T14:00:00	1	Precipitación	0
113644	7	Sololá	701	Sololá	4	Finca Santa Victoria	6	Junio	2023-06-18T00:00:00	2024-11-08T14:00:00	8	Radiación solar	929
113645	7	Sololá	701	Sololá	4	Finca Santa Victoria	6	Junio	2023-06-18T00:00:00	2024-11-08T15:00:00	2	Temperatura media	22.6
113646	7	Sololá	701	Sololá	4	Finca Santa Victoria	6	Junio	2023-06-18T00:00:00	2024-11-08T15:00:00	4	Temperatura máxima	23.9
113647	7	Sololá	701	Sololá	4	Finca Santa Victoria	6	Junio	2023-06-18T00:00:00	2024-11-08T15:00:00	3	Temperatura mínima	21.8
113648	7	Sololá	701	Sololá	4	Finca Santa Victoria	6	Junio	2023-06-18T00:00:00	2024-11-08T15:00:00	5	Humedad	57
113649	7	Sololá	701	Sololá	4	Finca Santa Victoria	6	Junio	2023-06-18T00:00:00	2024-11-08T15:00:00	6	Velocidad del viento	3.2
113650	7	Sololá	701	Sololá	4	Finca Santa Victoria	6	Junio	2023-06-18T00:00:00	2024-11-08T15:00:00	7	Dirección del viento	3.22
113651	7	Sololá	701	Sololá	4	Finca Santa Victoria	6	Junio	2023-06-18T00:00:00	2024-11-08T15:00:00	1	Precipitación	0
113652	7	Sololá	701	Sololá	4	Finca Santa Victoria	6	Junio	2023-06-18T00:00:00	2024-11-08T15:00:00	8	Radiación solar	287
113653	7	Sololá	701	Sololá	4	Finca Santa Victoria	6	Junio	2023-06-18T00:00:00	2024-11-08T16:00:00	2	Temperatura media	20.9
113654	7	Sololá	701	Sololá	4	Finca Santa Victoria	6	Junio	2023-06-18T00:00:00	2024-11-08T16:00:00	4	Temperatura máxima	23.6
113655	7	Sololá	701	Sololá	4	Finca Santa Victoria	6	Junio	2023-06-18T00:00:00	2024-11-08T16:00:00	3	Temperatura mínima	20.9
113656	7	Sololá	701	Sololá	4	Finca Santa Victoria	6	Junio	2023-06-18T00:00:00	2024-11-08T16:00:00	5	Humedad	79
113657	7	Sololá	701	Sololá	4	Finca Santa Victoria	6	Junio	2023-06-18T00:00:00	2024-11-08T16:00:00	6	Velocidad del viento	3.2
113658	7	Sololá	701	Sololá	4	Finca Santa Victoria	6	Junio	2023-06-18T00:00:00	2024-11-08T16:00:00	7	Dirección del viento	3.22
113659	7	Sololá	701	Sololá	4	Finca Santa Victoria	6	Junio	2023-06-18T00:00:00	2024-11-08T16:00:00	1	Precipitación	0
113660	7	Sololá	701	Sololá	4	Finca Santa Victoria	6	Junio	2023-06-18T00:00:00	2024-11-08T16:00:00	8	Radiación solar	170
113661	7	Sololá	701	Sololá	4	Finca Santa Victoria	6	Junio	2023-06-18T00:00:00	2024-11-08T17:00:00	2	Temperatura media	20.2
113662	7	Sololá	701	Sololá	4	Finca Santa Victoria	6	Junio	2023-06-18T00:00:00	2024-11-08T17:00:00	4	Temperatura máxima	20.9
113663	7	Sololá	701	Sololá	4	Finca Santa Victoria	6	Junio	2023-06-18T00:00:00	2024-11-08T17:00:00	3	Temperatura mínima	19.6
113664	7	Sololá	701	Sololá	4	Finca Santa Victoria	6	Junio	2023-06-18T00:00:00	2024-11-08T17:00:00	5	Humedad	68
113665	7	Sololá	701	Sololá	4	Finca Santa Victoria	6	Junio	2023-06-18T00:00:00	2024-11-08T17:00:00	6	Velocidad del viento	3.2
113666	7	Sololá	701	Sololá	4	Finca Santa Victoria	6	Junio	2023-06-18T00:00:00	2024-11-08T17:00:00	7	Dirección del viento	3.22
113667	7	Sololá	701	Sololá	4	Finca Santa Victoria	6	Junio	2023-06-18T00:00:00	2024-11-08T17:00:00	1	Precipitación	0
113668	7	Sololá	701	Sololá	4	Finca Santa Victoria	6	Junio	2023-06-18T00:00:00	2024-11-08T17:00:00	8	Radiación solar	133
113669	7	Sololá	701	Sololá	4	Finca Santa Victoria	6	Junio	2023-06-18T00:00:00	2024-11-08T18:00:00	2	Temperatura media	18.4
113670	7	Sololá	701	Sololá	4	Finca Santa Victoria	6	Junio	2023-06-18T00:00:00	2024-11-08T18:00:00	4	Temperatura máxima	20.2
113671	7	Sololá	701	Sololá	4	Finca Santa Victoria	6	Junio	2023-06-18T00:00:00	2024-11-08T18:00:00	3	Temperatura mínima	18.4
113672	7	Sololá	701	Sololá	4	Finca Santa Victoria	6	Junio	2023-06-18T00:00:00	2024-11-08T18:00:00	5	Humedad	74
113673	7	Sololá	701	Sololá	4	Finca Santa Victoria	6	Junio	2023-06-18T00:00:00	2024-11-08T18:00:00	6	Velocidad del viento	1.6
113674	7	Sololá	701	Sololá	4	Finca Santa Victoria	6	Junio	2023-06-18T00:00:00	2024-11-08T18:00:00	7	Dirección del viento	1.61
113675	7	Sololá	701	Sololá	4	Finca Santa Victoria	6	Junio	2023-06-18T00:00:00	2024-11-08T18:00:00	1	Precipitación	0
113676	7	Sololá	701	Sololá	4	Finca Santa Victoria	6	Junio	2023-06-18T00:00:00	2024-11-08T18:00:00	8	Radiación solar	44
113677	7	Sololá	701	Sololá	4	Finca Santa Victoria	6	Junio	2023-06-18T00:00:00	2024-11-08T19:00:00	2	Temperatura media	16.8
113678	7	Sololá	701	Sololá	4	Finca Santa Victoria	6	Junio	2023-06-18T00:00:00	2024-11-08T19:00:00	4	Temperatura máxima	18.4
113679	7	Sololá	701	Sololá	4	Finca Santa Victoria	6	Junio	2023-06-18T00:00:00	2024-11-08T19:00:00	3	Temperatura mínima	16.8
113680	7	Sololá	701	Sololá	4	Finca Santa Victoria	6	Junio	2023-06-18T00:00:00	2024-11-08T19:00:00	5	Humedad	82
113681	7	Sololá	701	Sololá	4	Finca Santa Victoria	6	Junio	2023-06-18T00:00:00	2024-11-08T19:00:00	6	Velocidad del viento	1.6
113682	7	Sololá	701	Sololá	4	Finca Santa Victoria	6	Junio	2023-06-18T00:00:00	2024-11-08T19:00:00	7	Dirección del viento	1.61
113683	7	Sololá	701	Sololá	4	Finca Santa Victoria	6	Junio	2023-06-18T00:00:00	2024-11-08T19:00:00	1	Precipitación	0
113684	7	Sololá	701	Sololá	4	Finca Santa Victoria	6	Junio	2023-06-18T00:00:00	2024-11-08T19:00:00	8	Radiación solar	0
113685	7	Sololá	701	Sololá	4	Finca Santa Victoria	6	Junio	2023-06-18T00:00:00	2024-11-08T20:00:00	2	Temperatura media	16.3
113686	7	Sololá	701	Sololá	4	Finca Santa Victoria	6	Junio	2023-06-18T00:00:00	2024-11-08T20:00:00	4	Temperatura máxima	16.8
113687	7	Sololá	701	Sololá	4	Finca Santa Victoria	6	Junio	2023-06-18T00:00:00	2024-11-08T20:00:00	3	Temperatura mínima	16.3
113688	7	Sololá	701	Sololá	4	Finca Santa Victoria	6	Junio	2023-06-18T00:00:00	2024-11-08T20:00:00	5	Humedad	81
113689	7	Sololá	701	Sololá	4	Finca Santa Victoria	6	Junio	2023-06-18T00:00:00	2024-11-08T20:00:00	6	Velocidad del viento	3.2
113690	7	Sololá	701	Sololá	4	Finca Santa Victoria	6	Junio	2023-06-18T00:00:00	2024-11-08T20:00:00	7	Dirección del viento	3.22
113691	7	Sololá	701	Sololá	4	Finca Santa Victoria	6	Junio	2023-06-18T00:00:00	2024-11-08T20:00:00	1	Precipitación	0
113692	7	Sololá	701	Sololá	4	Finca Santa Victoria	6	Junio	2023-06-18T00:00:00	2024-11-08T20:00:00	8	Radiación solar	0
113693	7	Sololá	701	Sololá	4	Finca Santa Victoria	6	Junio	2023-06-18T00:00:00	2024-11-08T21:00:00	2	Temperatura media	15.4
113694	7	Sololá	701	Sololá	4	Finca Santa Victoria	6	Junio	2023-06-18T00:00:00	2024-11-08T21:00:00	4	Temperatura máxima	16.3
113695	7	Sololá	701	Sololá	4	Finca Santa Victoria	6	Junio	2023-06-18T00:00:00	2024-11-08T21:00:00	3	Temperatura mínima	15.4
113696	7	Sololá	701	Sololá	4	Finca Santa Victoria	6	Junio	2023-06-18T00:00:00	2024-11-08T21:00:00	5	Humedad	83
113697	7	Sololá	701	Sololá	4	Finca Santa Victoria	6	Junio	2023-06-18T00:00:00	2024-11-08T21:00:00	6	Velocidad del viento	3.2
113698	7	Sololá	701	Sololá	4	Finca Santa Victoria	6	Junio	2023-06-18T00:00:00	2024-11-08T21:00:00	7	Dirección del viento	3.22
113699	7	Sololá	701	Sololá	4	Finca Santa Victoria	6	Junio	2023-06-18T00:00:00	2024-11-08T21:00:00	1	Precipitación	0
113700	7	Sololá	701	Sololá	4	Finca Santa Victoria	6	Junio	2023-06-18T00:00:00	2024-11-08T21:00:00	8	Radiación solar	0
113701	7	Sololá	701	Sololá	4	Finca Santa Victoria	6	Junio	2023-06-18T00:00:00	2024-11-08T22:00:00	2	Temperatura media	15.3
113702	7	Sololá	701	Sololá	4	Finca Santa Victoria	6	Junio	2023-06-18T00:00:00	2024-11-08T22:00:00	4	Temperatura máxima	15.4
113703	7	Sololá	701	Sololá	4	Finca Santa Victoria	6	Junio	2023-06-18T00:00:00	2024-11-08T22:00:00	3	Temperatura mínima	15.3
113704	7	Sololá	701	Sololá	4	Finca Santa Victoria	6	Junio	2023-06-18T00:00:00	2024-11-08T22:00:00	5	Humedad	84
113705	7	Sololá	701	Sololá	4	Finca Santa Victoria	6	Junio	2023-06-18T00:00:00	2024-11-08T22:00:00	6	Velocidad del viento	3.2
113706	7	Sololá	701	Sololá	4	Finca Santa Victoria	6	Junio	2023-06-18T00:00:00	2024-11-08T22:00:00	7	Dirección del viento	3.22
113707	7	Sololá	701	Sololá	4	Finca Santa Victoria	6	Junio	2023-06-18T00:00:00	2024-11-08T22:00:00	1	Precipitación	0
113708	7	Sololá	701	Sololá	4	Finca Santa Victoria	6	Junio	2023-06-18T00:00:00	2024-11-08T22:00:00	8	Radiación solar	0
113709	7	Sololá	701	Sololá	4	Finca Santa Victoria	6	Junio	2023-06-18T00:00:00	2024-11-08T23:00:00	2	Temperatura media	15.5
113710	7	Sololá	701	Sololá	4	Finca Santa Victoria	6	Junio	2023-06-18T00:00:00	2024-11-08T23:00:00	4	Temperatura máxima	15.5
113711	7	Sololá	701	Sololá	4	Finca Santa Victoria	6	Junio	2023-06-18T00:00:00	2024-11-08T23:00:00	3	Temperatura mínima	15.3
113712	7	Sololá	701	Sololá	4	Finca Santa Victoria	6	Junio	2023-06-18T00:00:00	2024-11-08T23:00:00	5	Humedad	82
113713	7	Sololá	701	Sololá	4	Finca Santa Victoria	6	Junio	2023-06-18T00:00:00	2024-11-08T23:00:00	6	Velocidad del viento	3.2
113714	7	Sololá	701	Sololá	4	Finca Santa Victoria	6	Junio	2023-06-18T00:00:00	2024-11-08T23:00:00	7	Dirección del viento	3.22
113715	7	Sololá	701	Sololá	4	Finca Santa Victoria	6	Junio	2023-06-18T00:00:00	2024-11-08T23:00:00	1	Precipitación	0
113716	7	Sololá	701	Sololá	4	Finca Santa Victoria	6	Junio	2023-06-18T00:00:00	2024-11-08T23:00:00	8	Radiación solar	0
113717	7	Sololá	701	Sololá	4	Finca Santa Victoria	6	Junio	2023-06-19T00:00:00	2024-11-08T00:00:00	2	Temperatura media	15.3
113718	7	Sololá	701	Sololá	4	Finca Santa Victoria	6	Junio	2023-06-19T00:00:00	2024-11-08T00:00:00	4	Temperatura máxima	15.5
113719	7	Sololá	701	Sololá	4	Finca Santa Victoria	6	Junio	2023-06-19T00:00:00	2024-11-08T00:00:00	3	Temperatura mínima	15.3
113720	7	Sololá	701	Sololá	4	Finca Santa Victoria	6	Junio	2023-06-19T00:00:00	2024-11-08T00:00:00	5	Humedad	83
113721	7	Sololá	701	Sololá	4	Finca Santa Victoria	6	Junio	2023-06-19T00:00:00	2024-11-08T00:00:00	6	Velocidad del viento	3.2
113722	7	Sololá	701	Sololá	4	Finca Santa Victoria	6	Junio	2023-06-19T00:00:00	2024-11-08T00:00:00	7	Dirección del viento	3.22
113723	7	Sololá	701	Sololá	4	Finca Santa Victoria	6	Junio	2023-06-19T00:00:00	2024-11-08T00:00:00	1	Precipitación	0
113724	7	Sololá	701	Sololá	4	Finca Santa Victoria	6	Junio	2023-06-19T00:00:00	2024-11-08T00:00:00	8	Radiación solar	0
113725	7	Sololá	701	Sololá	4	Finca Santa Victoria	6	Junio	2023-06-19T00:00:00	2024-11-08T01:00:00	2	Temperatura media	15.1
113726	7	Sololá	701	Sololá	4	Finca Santa Victoria	6	Junio	2023-06-19T00:00:00	2024-11-08T01:00:00	4	Temperatura máxima	15.4
113727	7	Sololá	701	Sololá	4	Finca Santa Victoria	6	Junio	2023-06-19T00:00:00	2024-11-08T01:00:00	3	Temperatura mínima	15
113728	7	Sololá	701	Sololá	4	Finca Santa Victoria	6	Junio	2023-06-19T00:00:00	2024-11-08T01:00:00	5	Humedad	83
113729	7	Sololá	701	Sololá	4	Finca Santa Victoria	6	Junio	2023-06-19T00:00:00	2024-11-08T01:00:00	6	Velocidad del viento	1.6
113730	7	Sololá	701	Sololá	4	Finca Santa Victoria	6	Junio	2023-06-19T00:00:00	2024-11-08T01:00:00	7	Dirección del viento	1.61
113731	7	Sololá	701	Sololá	4	Finca Santa Victoria	6	Junio	2023-06-19T00:00:00	2024-11-08T01:00:00	1	Precipitación	0
113732	7	Sololá	701	Sololá	4	Finca Santa Victoria	6	Junio	2023-06-19T00:00:00	2024-11-08T01:00:00	8	Radiación solar	0
113733	7	Sololá	701	Sololá	4	Finca Santa Victoria	6	Junio	2023-06-19T00:00:00	2024-11-08T02:00:00	2	Temperatura media	15.1
113734	7	Sololá	701	Sololá	4	Finca Santa Victoria	6	Junio	2023-06-19T00:00:00	2024-11-08T02:00:00	4	Temperatura máxima	15.2
113735	7	Sololá	701	Sololá	4	Finca Santa Victoria	6	Junio	2023-06-19T00:00:00	2024-11-08T02:00:00	3	Temperatura mínima	15
113736	7	Sololá	701	Sololá	4	Finca Santa Victoria	6	Junio	2023-06-19T00:00:00	2024-11-08T02:00:00	5	Humedad	82
113737	7	Sololá	701	Sololá	4	Finca Santa Victoria	6	Junio	2023-06-19T00:00:00	2024-11-08T02:00:00	6	Velocidad del viento	3.2
113738	7	Sololá	701	Sololá	4	Finca Santa Victoria	6	Junio	2023-06-19T00:00:00	2024-11-08T02:00:00	7	Dirección del viento	3.22
113739	7	Sololá	701	Sololá	4	Finca Santa Victoria	6	Junio	2023-06-19T00:00:00	2024-11-08T02:00:00	1	Precipitación	0
113740	7	Sololá	701	Sololá	4	Finca Santa Victoria	6	Junio	2023-06-19T00:00:00	2024-11-08T02:00:00	8	Radiación solar	0
113741	7	Sololá	701	Sololá	4	Finca Santa Victoria	6	Junio	2023-06-19T00:00:00	2024-11-08T03:00:00	2	Temperatura media	15.1
113742	7	Sololá	701	Sololá	4	Finca Santa Victoria	6	Junio	2023-06-19T00:00:00	2024-11-08T03:00:00	4	Temperatura máxima	15.3
113743	7	Sololá	701	Sololá	4	Finca Santa Victoria	6	Junio	2023-06-19T00:00:00	2024-11-08T03:00:00	3	Temperatura mínima	15
113744	7	Sololá	701	Sololá	4	Finca Santa Victoria	6	Junio	2023-06-19T00:00:00	2024-11-08T03:00:00	5	Humedad	84
113745	7	Sololá	701	Sololá	4	Finca Santa Victoria	6	Junio	2023-06-19T00:00:00	2024-11-08T03:00:00	6	Velocidad del viento	3.2
113746	7	Sololá	701	Sololá	4	Finca Santa Victoria	6	Junio	2023-06-19T00:00:00	2024-11-08T03:00:00	7	Dirección del viento	3.22
113747	7	Sololá	701	Sololá	4	Finca Santa Victoria	6	Junio	2023-06-19T00:00:00	2024-11-08T03:00:00	1	Precipitación	0
113748	7	Sololá	701	Sololá	4	Finca Santa Victoria	6	Junio	2023-06-19T00:00:00	2024-11-08T03:00:00	8	Radiación solar	0
113749	7	Sololá	701	Sololá	4	Finca Santa Victoria	6	Junio	2023-06-19T00:00:00	2024-11-08T04:00:00	2	Temperatura media	14.8
113750	7	Sololá	701	Sololá	4	Finca Santa Victoria	6	Junio	2023-06-19T00:00:00	2024-11-08T04:00:00	4	Temperatura máxima	15
113751	7	Sololá	701	Sololá	4	Finca Santa Victoria	6	Junio	2023-06-19T00:00:00	2024-11-08T04:00:00	3	Temperatura mínima	14.6
113752	7	Sololá	701	Sololá	4	Finca Santa Victoria	6	Junio	2023-06-19T00:00:00	2024-11-08T04:00:00	5	Humedad	85
113753	7	Sololá	701	Sololá	4	Finca Santa Victoria	6	Junio	2023-06-19T00:00:00	2024-11-08T04:00:00	6	Velocidad del viento	3.2
113754	7	Sololá	701	Sololá	4	Finca Santa Victoria	6	Junio	2023-06-19T00:00:00	2024-11-08T04:00:00	7	Dirección del viento	3.22
113755	7	Sololá	701	Sololá	4	Finca Santa Victoria	6	Junio	2023-06-19T00:00:00	2024-11-08T04:00:00	1	Precipitación	0
113756	7	Sololá	701	Sololá	4	Finca Santa Victoria	6	Junio	2023-06-19T00:00:00	2024-11-08T04:00:00	8	Radiación solar	0
113757	7	Sololá	701	Sololá	4	Finca Santa Victoria	6	Junio	2023-06-19T00:00:00	2024-11-08T05:00:00	2	Temperatura media	14.7
113758	7	Sololá	701	Sololá	4	Finca Santa Victoria	6	Junio	2023-06-19T00:00:00	2024-11-08T05:00:00	4	Temperatura máxima	14.8
113759	7	Sololá	701	Sololá	4	Finca Santa Victoria	6	Junio	2023-06-19T00:00:00	2024-11-08T05:00:00	3	Temperatura mínima	14.7
113760	7	Sololá	701	Sololá	4	Finca Santa Victoria	6	Junio	2023-06-19T00:00:00	2024-11-08T05:00:00	5	Humedad	84
113761	7	Sololá	701	Sololá	4	Finca Santa Victoria	6	Junio	2023-06-19T00:00:00	2024-11-08T05:00:00	6	Velocidad del viento	3.2
113762	7	Sololá	701	Sololá	4	Finca Santa Victoria	6	Junio	2023-06-19T00:00:00	2024-11-08T05:00:00	7	Dirección del viento	3.22
113763	7	Sololá	701	Sololá	4	Finca Santa Victoria	6	Junio	2023-06-19T00:00:00	2024-11-08T05:00:00	1	Precipitación	0
113764	7	Sololá	701	Sololá	4	Finca Santa Victoria	6	Junio	2023-06-19T00:00:00	2024-11-08T05:00:00	8	Radiación solar	0
113765	7	Sololá	701	Sololá	4	Finca Santa Victoria	6	Junio	2023-06-19T00:00:00	2024-11-08T06:00:00	2	Temperatura media	13.9
113766	7	Sololá	701	Sololá	4	Finca Santa Victoria	6	Junio	2023-06-19T00:00:00	2024-11-08T06:00:00	4	Temperatura máxima	14.7
113767	7	Sololá	701	Sololá	4	Finca Santa Victoria	6	Junio	2023-06-19T00:00:00	2024-11-08T06:00:00	3	Temperatura mínima	13.9
113768	7	Sololá	701	Sololá	4	Finca Santa Victoria	6	Junio	2023-06-19T00:00:00	2024-11-08T06:00:00	5	Humedad	87
113769	7	Sololá	701	Sololá	4	Finca Santa Victoria	6	Junio	2023-06-19T00:00:00	2024-11-08T06:00:00	6	Velocidad del viento	1.6
113770	7	Sololá	701	Sololá	4	Finca Santa Victoria	6	Junio	2023-06-19T00:00:00	2024-11-08T06:00:00	7	Dirección del viento	1.61
113771	7	Sololá	701	Sololá	4	Finca Santa Victoria	6	Junio	2023-06-19T00:00:00	2024-11-08T06:00:00	1	Precipitación	0
113772	7	Sololá	701	Sololá	4	Finca Santa Victoria	6	Junio	2023-06-19T00:00:00	2024-11-08T06:00:00	8	Radiación solar	4
113773	7	Sololá	701	Sololá	4	Finca Santa Victoria	6	Junio	2023-06-19T00:00:00	2024-11-08T07:00:00	2	Temperatura media	15.3
113774	7	Sololá	701	Sololá	4	Finca Santa Victoria	6	Junio	2023-06-19T00:00:00	2024-11-08T07:00:00	4	Temperatura máxima	15.3
113775	7	Sololá	701	Sololá	4	Finca Santa Victoria	6	Junio	2023-06-19T00:00:00	2024-11-08T07:00:00	3	Temperatura mínima	13.9
113776	7	Sololá	701	Sololá	4	Finca Santa Victoria	6	Junio	2023-06-19T00:00:00	2024-11-08T07:00:00	5	Humedad	83
113777	7	Sololá	701	Sololá	4	Finca Santa Victoria	6	Junio	2023-06-19T00:00:00	2024-11-08T07:00:00	6	Velocidad del viento	1.6
113778	7	Sololá	701	Sololá	4	Finca Santa Victoria	6	Junio	2023-06-19T00:00:00	2024-11-08T07:00:00	7	Dirección del viento	1.61
113779	7	Sololá	701	Sololá	4	Finca Santa Victoria	6	Junio	2023-06-19T00:00:00	2024-11-08T07:00:00	1	Precipitación	0
113780	7	Sololá	701	Sololá	4	Finca Santa Victoria	6	Junio	2023-06-19T00:00:00	2024-11-08T07:00:00	8	Radiación solar	47
113781	7	Sololá	701	Sololá	4	Finca Santa Victoria	6	Junio	2023-06-19T00:00:00	2024-11-08T08:00:00	2	Temperatura media	18.1
113782	7	Sololá	701	Sololá	4	Finca Santa Victoria	6	Junio	2023-06-19T00:00:00	2024-11-08T08:00:00	4	Temperatura máxima	18.2
113783	7	Sololá	701	Sololá	4	Finca Santa Victoria	6	Junio	2023-06-19T00:00:00	2024-11-08T08:00:00	3	Temperatura mínima	15.3
113784	7	Sololá	701	Sololá	4	Finca Santa Victoria	6	Junio	2023-06-19T00:00:00	2024-11-08T08:00:00	5	Humedad	74
113785	7	Sololá	701	Sololá	4	Finca Santa Victoria	6	Junio	2023-06-19T00:00:00	2024-11-08T08:00:00	6	Velocidad del viento	1.6
113786	7	Sololá	701	Sololá	4	Finca Santa Victoria	6	Junio	2023-06-19T00:00:00	2024-11-08T08:00:00	7	Dirección del viento	1.61
113787	7	Sololá	701	Sololá	4	Finca Santa Victoria	6	Junio	2023-06-19T00:00:00	2024-11-08T08:00:00	1	Precipitación	0
113788	7	Sololá	701	Sololá	4	Finca Santa Victoria	6	Junio	2023-06-19T00:00:00	2024-11-08T08:00:00	8	Radiación solar	302
113789	7	Sololá	701	Sololá	4	Finca Santa Victoria	6	Junio	2023-06-19T00:00:00	2024-11-08T09:00:00	2	Temperatura media	19.6
113790	7	Sololá	701	Sololá	4	Finca Santa Victoria	6	Junio	2023-06-19T00:00:00	2024-11-08T09:00:00	4	Temperatura máxima	19.7
113791	7	Sololá	701	Sololá	4	Finca Santa Victoria	6	Junio	2023-06-19T00:00:00	2024-11-08T09:00:00	3	Temperatura mínima	17.9
113792	7	Sololá	701	Sololá	4	Finca Santa Victoria	6	Junio	2023-06-19T00:00:00	2024-11-08T09:00:00	5	Humedad	67
113793	7	Sololá	701	Sololá	4	Finca Santa Victoria	6	Junio	2023-06-19T00:00:00	2024-11-08T09:00:00	6	Velocidad del viento	3.2
113794	7	Sololá	701	Sololá	4	Finca Santa Victoria	6	Junio	2023-06-19T00:00:00	2024-11-08T09:00:00	7	Dirección del viento	3.22
113795	7	Sololá	701	Sololá	4	Finca Santa Victoria	6	Junio	2023-06-19T00:00:00	2024-11-08T09:00:00	1	Precipitación	0
113796	7	Sololá	701	Sololá	4	Finca Santa Victoria	6	Junio	2023-06-19T00:00:00	2024-11-08T09:00:00	8	Radiación solar	417
113797	7	Sololá	701	Sololá	4	Finca Santa Victoria	6	Junio	2023-06-19T00:00:00	2024-11-08T10:00:00	2	Temperatura media	20.4
113798	7	Sololá	701	Sololá	4	Finca Santa Victoria	6	Junio	2023-06-19T00:00:00	2024-11-08T10:00:00	4	Temperatura máxima	20.4
113799	7	Sololá	701	Sololá	4	Finca Santa Victoria	6	Junio	2023-06-19T00:00:00	2024-11-08T10:00:00	3	Temperatura mínima	19.5
113800	7	Sololá	701	Sololá	4	Finca Santa Victoria	6	Junio	2023-06-19T00:00:00	2024-11-08T10:00:00	5	Humedad	65
113801	7	Sololá	701	Sololá	4	Finca Santa Victoria	6	Junio	2023-06-19T00:00:00	2024-11-08T10:00:00	6	Velocidad del viento	4.8
113802	7	Sololá	701	Sololá	4	Finca Santa Victoria	6	Junio	2023-06-19T00:00:00	2024-11-08T10:00:00	7	Dirección del viento	4.83
113803	7	Sololá	701	Sololá	4	Finca Santa Victoria	6	Junio	2023-06-19T00:00:00	2024-11-08T10:00:00	1	Precipitación	0
113804	7	Sololá	701	Sololá	4	Finca Santa Victoria	6	Junio	2023-06-19T00:00:00	2024-11-08T10:00:00	8	Radiación solar	208
113805	7	Sololá	701	Sololá	4	Finca Santa Victoria	6	Junio	2023-06-19T00:00:00	2024-11-08T11:00:00	2	Temperatura media	21.3
113806	7	Sololá	701	Sololá	4	Finca Santa Victoria	6	Junio	2023-06-19T00:00:00	2024-11-08T11:00:00	4	Temperatura máxima	21.4
113807	7	Sololá	701	Sololá	4	Finca Santa Victoria	6	Junio	2023-06-19T00:00:00	2024-11-08T11:00:00	3	Temperatura mínima	20.3
113808	7	Sololá	701	Sololá	4	Finca Santa Victoria	6	Junio	2023-06-19T00:00:00	2024-11-08T11:00:00	5	Humedad	63
113809	7	Sololá	701	Sololá	4	Finca Santa Victoria	6	Junio	2023-06-19T00:00:00	2024-11-08T11:00:00	6	Velocidad del viento	3.2
113810	7	Sololá	701	Sololá	4	Finca Santa Victoria	6	Junio	2023-06-19T00:00:00	2024-11-08T11:00:00	7	Dirección del viento	3.22
113811	7	Sololá	701	Sololá	4	Finca Santa Victoria	6	Junio	2023-06-19T00:00:00	2024-11-08T11:00:00	1	Precipitación	0
113812	7	Sololá	701	Sololá	4	Finca Santa Victoria	6	Junio	2023-06-19T00:00:00	2024-11-08T11:00:00	8	Radiación solar	260
113813	7	Sololá	701	Sololá	4	Finca Santa Victoria	6	Junio	2023-06-19T00:00:00	2024-11-08T12:00:00	2	Temperatura media	20.6
113814	7	Sololá	701	Sololá	4	Finca Santa Victoria	6	Junio	2023-06-19T00:00:00	2024-11-08T12:00:00	4	Temperatura máxima	22.4
113815	7	Sololá	701	Sololá	4	Finca Santa Victoria	6	Junio	2023-06-19T00:00:00	2024-11-08T12:00:00	3	Temperatura mínima	20.6
113816	7	Sololá	701	Sololá	4	Finca Santa Victoria	6	Junio	2023-06-19T00:00:00	2024-11-08T12:00:00	5	Humedad	68
113817	7	Sololá	701	Sololá	4	Finca Santa Victoria	6	Junio	2023-06-19T00:00:00	2024-11-08T12:00:00	6	Velocidad del viento	3.2
113818	7	Sololá	701	Sololá	4	Finca Santa Victoria	6	Junio	2023-06-19T00:00:00	2024-11-08T12:00:00	7	Dirección del viento	3.22
113819	7	Sololá	701	Sololá	4	Finca Santa Victoria	6	Junio	2023-06-19T00:00:00	2024-11-08T12:00:00	1	Precipitación	0
113820	7	Sololá	701	Sololá	4	Finca Santa Victoria	6	Junio	2023-06-19T00:00:00	2024-11-08T12:00:00	8	Radiación solar	333
113821	7	Sololá	701	Sololá	4	Finca Santa Victoria	6	Junio	2023-06-19T00:00:00	2024-11-08T13:00:00	2	Temperatura media	19.4
113822	7	Sololá	701	Sololá	4	Finca Santa Victoria	6	Junio	2023-06-19T00:00:00	2024-11-08T13:00:00	4	Temperatura máxima	20.8
113823	7	Sololá	701	Sololá	4	Finca Santa Victoria	6	Junio	2023-06-19T00:00:00	2024-11-08T13:00:00	3	Temperatura mínima	18.2
113824	7	Sololá	701	Sololá	4	Finca Santa Victoria	6	Junio	2023-06-19T00:00:00	2024-11-08T13:00:00	5	Humedad	82
113825	7	Sololá	701	Sololá	4	Finca Santa Victoria	6	Junio	2023-06-19T00:00:00	2024-11-08T13:00:00	6	Velocidad del viento	3.2
113826	7	Sololá	701	Sololá	4	Finca Santa Victoria	6	Junio	2023-06-19T00:00:00	2024-11-08T13:00:00	7	Dirección del viento	3.22
113827	7	Sololá	701	Sololá	4	Finca Santa Victoria	6	Junio	2023-06-19T00:00:00	2024-11-08T13:00:00	1	Precipitación	0
113828	7	Sololá	701	Sololá	4	Finca Santa Victoria	6	Junio	2023-06-19T00:00:00	2024-11-08T13:00:00	8	Radiación solar	318
113829	7	Sololá	701	Sololá	4	Finca Santa Victoria	6	Junio	2023-06-19T00:00:00	2024-11-08T14:00:00	2	Temperatura media	17.3
113830	7	Sololá	701	Sololá	4	Finca Santa Victoria	6	Junio	2023-06-19T00:00:00	2024-11-08T14:00:00	4	Temperatura máxima	19.3
113831	7	Sololá	701	Sololá	4	Finca Santa Victoria	6	Junio	2023-06-19T00:00:00	2024-11-08T14:00:00	3	Temperatura mínima	17.3
113832	7	Sololá	701	Sololá	4	Finca Santa Victoria	6	Junio	2023-06-19T00:00:00	2024-11-08T14:00:00	5	Humedad	92
113833	7	Sololá	701	Sololá	4	Finca Santa Victoria	6	Junio	2023-06-19T00:00:00	2024-11-08T14:00:00	6	Velocidad del viento	3.2
113834	7	Sololá	701	Sololá	4	Finca Santa Victoria	6	Junio	2023-06-19T00:00:00	2024-11-08T14:00:00	7	Dirección del viento	3.22
113835	7	Sololá	701	Sololá	4	Finca Santa Victoria	6	Junio	2023-06-19T00:00:00	2024-11-08T14:00:00	1	Precipitación	0
113836	7	Sololá	701	Sololá	4	Finca Santa Victoria	6	Junio	2023-06-19T00:00:00	2024-11-08T14:00:00	8	Radiación solar	144
113837	7	Sololá	701	Sololá	4	Finca Santa Victoria	6	Junio	2023-06-19T00:00:00	2024-11-08T15:00:00	2	Temperatura media	20.3
113838	7	Sololá	701	Sololá	4	Finca Santa Victoria	6	Junio	2023-06-19T00:00:00	2024-11-08T15:00:00	4	Temperatura máxima	20.3
113839	7	Sololá	701	Sololá	4	Finca Santa Victoria	6	Junio	2023-06-19T00:00:00	2024-11-08T15:00:00	3	Temperatura mínima	17.3
113840	7	Sololá	701	Sololá	4	Finca Santa Victoria	6	Junio	2023-06-19T00:00:00	2024-11-08T15:00:00	5	Humedad	84
113841	7	Sololá	701	Sololá	4	Finca Santa Victoria	6	Junio	2023-06-19T00:00:00	2024-11-08T15:00:00	6	Velocidad del viento	3.2
113842	7	Sololá	701	Sololá	4	Finca Santa Victoria	6	Junio	2023-06-19T00:00:00	2024-11-08T15:00:00	7	Dirección del viento	3.22
113843	7	Sololá	701	Sololá	4	Finca Santa Victoria	6	Junio	2023-06-19T00:00:00	2024-11-08T15:00:00	1	Precipitación	0
113844	7	Sololá	701	Sololá	4	Finca Santa Victoria	6	Junio	2023-06-19T00:00:00	2024-11-08T15:00:00	8	Radiación solar	226
113845	7	Sololá	701	Sololá	4	Finca Santa Victoria	6	Junio	2023-06-19T00:00:00	2024-11-08T16:00:00	2	Temperatura media	18.7
113846	7	Sololá	701	Sololá	4	Finca Santa Victoria	6	Junio	2023-06-19T00:00:00	2024-11-08T16:00:00	4	Temperatura máxima	19.9
113847	7	Sololá	701	Sololá	4	Finca Santa Victoria	6	Junio	2023-06-19T00:00:00	2024-11-08T16:00:00	3	Temperatura mínima	18.7
113848	7	Sololá	701	Sololá	4	Finca Santa Victoria	6	Junio	2023-06-19T00:00:00	2024-11-08T16:00:00	5	Humedad	88
113849	7	Sololá	701	Sololá	4	Finca Santa Victoria	6	Junio	2023-06-19T00:00:00	2024-11-08T16:00:00	6	Velocidad del viento	1.6
113850	7	Sololá	701	Sololá	4	Finca Santa Victoria	6	Junio	2023-06-19T00:00:00	2024-11-08T16:00:00	7	Dirección del viento	1.61
113851	7	Sololá	701	Sololá	4	Finca Santa Victoria	6	Junio	2023-06-19T00:00:00	2024-11-08T16:00:00	1	Precipitación	0
113852	7	Sololá	701	Sololá	4	Finca Santa Victoria	6	Junio	2023-06-19T00:00:00	2024-11-08T16:00:00	8	Radiación solar	103
113853	7	Sololá	701	Sololá	4	Finca Santa Victoria	6	Junio	2023-06-19T00:00:00	2024-11-08T17:00:00	2	Temperatura media	18.1
113854	7	Sololá	701	Sololá	4	Finca Santa Victoria	6	Junio	2023-06-19T00:00:00	2024-11-08T17:00:00	4	Temperatura máxima	18.7
113855	7	Sololá	701	Sololá	4	Finca Santa Victoria	6	Junio	2023-06-19T00:00:00	2024-11-08T17:00:00	3	Temperatura mínima	18.1
113856	7	Sololá	701	Sololá	4	Finca Santa Victoria	6	Junio	2023-06-19T00:00:00	2024-11-08T17:00:00	5	Humedad	78
113857	7	Sololá	701	Sololá	4	Finca Santa Victoria	6	Junio	2023-06-19T00:00:00	2024-11-08T17:00:00	6	Velocidad del viento	1.6
113858	7	Sololá	701	Sololá	4	Finca Santa Victoria	6	Junio	2023-06-19T00:00:00	2024-11-08T17:00:00	7	Dirección del viento	1.61
113859	7	Sololá	701	Sololá	4	Finca Santa Victoria	6	Junio	2023-06-19T00:00:00	2024-11-08T17:00:00	1	Precipitación	0
113860	7	Sololá	701	Sololá	4	Finca Santa Victoria	6	Junio	2023-06-19T00:00:00	2024-11-08T17:00:00	8	Radiación solar	44
113861	7	Sololá	701	Sololá	4	Finca Santa Victoria	6	Junio	2023-06-19T00:00:00	2024-11-08T18:00:00	2	Temperatura media	18
113862	7	Sololá	701	Sololá	4	Finca Santa Victoria	6	Junio	2023-06-19T00:00:00	2024-11-08T18:00:00	4	Temperatura máxima	18.8
113863	7	Sololá	701	Sololá	4	Finca Santa Victoria	6	Junio	2023-06-19T00:00:00	2024-11-08T18:00:00	3	Temperatura mínima	18
113864	7	Sololá	701	Sololá	4	Finca Santa Victoria	6	Junio	2023-06-19T00:00:00	2024-11-08T18:00:00	5	Humedad	84
113865	7	Sololá	701	Sololá	4	Finca Santa Victoria	6	Junio	2023-06-19T00:00:00	2024-11-08T18:00:00	6	Velocidad del viento	0
113866	7	Sololá	701	Sololá	4	Finca Santa Victoria	6	Junio	2023-06-19T00:00:00	2024-11-08T18:00:00	7	Dirección del viento	0
113867	7	Sololá	701	Sololá	4	Finca Santa Victoria	6	Junio	2023-06-19T00:00:00	2024-11-08T18:00:00	1	Precipitación	0
113868	7	Sololá	701	Sololá	4	Finca Santa Victoria	6	Junio	2023-06-19T00:00:00	2024-11-08T18:00:00	8	Radiación solar	34
113869	7	Sololá	701	Sololá	4	Finca Santa Victoria	6	Junio	2023-06-19T00:00:00	2024-11-08T19:00:00	2	Temperatura media	16.8
113870	7	Sololá	701	Sololá	4	Finca Santa Victoria	6	Junio	2023-06-19T00:00:00	2024-11-08T19:00:00	4	Temperatura máxima	18
113871	7	Sololá	701	Sololá	4	Finca Santa Victoria	6	Junio	2023-06-19T00:00:00	2024-11-08T19:00:00	3	Temperatura mínima	16.8
113872	7	Sololá	701	Sololá	4	Finca Santa Victoria	6	Junio	2023-06-19T00:00:00	2024-11-08T19:00:00	5	Humedad	92
113873	7	Sololá	701	Sololá	4	Finca Santa Victoria	6	Junio	2023-06-19T00:00:00	2024-11-08T19:00:00	6	Velocidad del viento	0
113874	7	Sololá	701	Sololá	4	Finca Santa Victoria	6	Junio	2023-06-19T00:00:00	2024-11-08T19:00:00	7	Dirección del viento	0
113875	7	Sololá	701	Sololá	4	Finca Santa Victoria	6	Junio	2023-06-19T00:00:00	2024-11-08T19:00:00	1	Precipitación	0
113876	7	Sololá	701	Sololá	4	Finca Santa Victoria	6	Junio	2023-06-19T00:00:00	2024-11-08T19:00:00	8	Radiación solar	0
113877	7	Sololá	701	Sololá	4	Finca Santa Victoria	6	Junio	2023-06-19T00:00:00	2024-11-08T20:00:00	2	Temperatura media	15.8
113878	7	Sololá	701	Sololá	4	Finca Santa Victoria	6	Junio	2023-06-19T00:00:00	2024-11-08T20:00:00	4	Temperatura máxima	16.8
113879	7	Sololá	701	Sololá	4	Finca Santa Victoria	6	Junio	2023-06-19T00:00:00	2024-11-08T20:00:00	3	Temperatura mínima	15.8
113880	7	Sololá	701	Sololá	4	Finca Santa Victoria	6	Junio	2023-06-19T00:00:00	2024-11-08T20:00:00	5	Humedad	93
113881	7	Sololá	701	Sololá	4	Finca Santa Victoria	6	Junio	2023-06-19T00:00:00	2024-11-08T20:00:00	6	Velocidad del viento	0
113882	7	Sololá	701	Sololá	4	Finca Santa Victoria	6	Junio	2023-06-19T00:00:00	2024-11-08T20:00:00	7	Dirección del viento	0
113883	7	Sololá	701	Sololá	4	Finca Santa Victoria	6	Junio	2023-06-19T00:00:00	2024-11-08T20:00:00	1	Precipitación	0
113884	7	Sololá	701	Sololá	4	Finca Santa Victoria	6	Junio	2023-06-19T00:00:00	2024-11-08T20:00:00	8	Radiación solar	0
113885	7	Sololá	701	Sololá	4	Finca Santa Victoria	6	Junio	2023-06-19T00:00:00	2024-11-08T21:00:00	2	Temperatura media	15.5
113886	7	Sololá	701	Sololá	4	Finca Santa Victoria	6	Junio	2023-06-19T00:00:00	2024-11-08T21:00:00	4	Temperatura máxima	15.8
113887	7	Sololá	701	Sololá	4	Finca Santa Victoria	6	Junio	2023-06-19T00:00:00	2024-11-08T21:00:00	3	Temperatura mínima	15.1
113888	7	Sololá	701	Sololá	4	Finca Santa Victoria	6	Junio	2023-06-19T00:00:00	2024-11-08T21:00:00	5	Humedad	88
113889	7	Sololá	701	Sololá	4	Finca Santa Victoria	6	Junio	2023-06-19T00:00:00	2024-11-08T21:00:00	6	Velocidad del viento	0
113890	7	Sololá	701	Sololá	4	Finca Santa Victoria	6	Junio	2023-06-19T00:00:00	2024-11-08T21:00:00	7	Dirección del viento	0
113891	7	Sololá	701	Sololá	4	Finca Santa Victoria	6	Junio	2023-06-19T00:00:00	2024-11-08T21:00:00	1	Precipitación	0
113892	7	Sololá	701	Sololá	4	Finca Santa Victoria	6	Junio	2023-06-19T00:00:00	2024-11-08T21:00:00	8	Radiación solar	0
113893	7	Sololá	701	Sololá	4	Finca Santa Victoria	6	Junio	2023-06-19T00:00:00	2024-11-08T22:00:00	2	Temperatura media	15.1
113894	7	Sololá	701	Sololá	4	Finca Santa Victoria	6	Junio	2023-06-19T00:00:00	2024-11-08T22:00:00	4	Temperatura máxima	15.6
113895	7	Sololá	701	Sololá	4	Finca Santa Victoria	6	Junio	2023-06-19T00:00:00	2024-11-08T22:00:00	3	Temperatura mínima	15.1
113896	7	Sololá	701	Sololá	4	Finca Santa Victoria	6	Junio	2023-06-19T00:00:00	2024-11-08T22:00:00	5	Humedad	87
113897	7	Sololá	701	Sololá	4	Finca Santa Victoria	6	Junio	2023-06-19T00:00:00	2024-11-08T22:00:00	6	Velocidad del viento	1.6
113898	7	Sololá	701	Sololá	4	Finca Santa Victoria	6	Junio	2023-06-19T00:00:00	2024-11-08T22:00:00	7	Dirección del viento	1.61
113899	7	Sololá	701	Sololá	4	Finca Santa Victoria	6	Junio	2023-06-19T00:00:00	2024-11-08T22:00:00	1	Precipitación	0
113900	7	Sololá	701	Sololá	4	Finca Santa Victoria	6	Junio	2023-06-19T00:00:00	2024-11-08T22:00:00	8	Radiación solar	0
113901	7	Sololá	701	Sololá	4	Finca Santa Victoria	6	Junio	2023-06-19T00:00:00	2024-11-08T23:00:00	2	Temperatura media	14.3
113902	7	Sololá	701	Sololá	4	Finca Santa Victoria	6	Junio	2023-06-19T00:00:00	2024-11-08T23:00:00	4	Temperatura máxima	15.1
113903	7	Sololá	701	Sololá	4	Finca Santa Victoria	6	Junio	2023-06-19T00:00:00	2024-11-08T23:00:00	3	Temperatura mínima	14.3
113904	7	Sololá	701	Sololá	4	Finca Santa Victoria	6	Junio	2023-06-19T00:00:00	2024-11-08T23:00:00	5	Humedad	91
113905	7	Sololá	701	Sololá	4	Finca Santa Victoria	6	Junio	2023-06-19T00:00:00	2024-11-08T23:00:00	6	Velocidad del viento	0
113906	7	Sololá	701	Sololá	4	Finca Santa Victoria	6	Junio	2023-06-19T00:00:00	2024-11-08T23:00:00	7	Dirección del viento	0
113907	7	Sololá	701	Sololá	4	Finca Santa Victoria	6	Junio	2023-06-19T00:00:00	2024-11-08T23:00:00	1	Precipitación	0
113908	7	Sololá	701	Sololá	4	Finca Santa Victoria	6	Junio	2023-06-19T00:00:00	2024-11-08T23:00:00	8	Radiación solar	0
113909	7	Sololá	701	Sololá	4	Finca Santa Victoria	6	Junio	2023-06-20T00:00:00	2024-11-08T00:00:00	2	Temperatura media	13.9
113910	7	Sololá	701	Sololá	4	Finca Santa Victoria	6	Junio	2023-06-20T00:00:00	2024-11-08T00:00:00	4	Temperatura máxima	14.3
113911	7	Sololá	701	Sololá	4	Finca Santa Victoria	6	Junio	2023-06-20T00:00:00	2024-11-08T00:00:00	3	Temperatura mínima	13.8
113912	7	Sololá	701	Sololá	4	Finca Santa Victoria	6	Junio	2023-06-20T00:00:00	2024-11-08T00:00:00	5	Humedad	87
113913	7	Sololá	701	Sololá	4	Finca Santa Victoria	6	Junio	2023-06-20T00:00:00	2024-11-08T00:00:00	6	Velocidad del viento	0
113914	7	Sololá	701	Sololá	4	Finca Santa Victoria	6	Junio	2023-06-20T00:00:00	2024-11-08T00:00:00	7	Dirección del viento	0
113915	7	Sololá	701	Sololá	4	Finca Santa Victoria	6	Junio	2023-06-20T00:00:00	2024-11-08T00:00:00	1	Precipitación	0
113916	7	Sololá	701	Sololá	4	Finca Santa Victoria	6	Junio	2023-06-20T00:00:00	2024-11-08T00:00:00	8	Radiación solar	0
113917	7	Sololá	701	Sololá	4	Finca Santa Victoria	6	Junio	2023-06-20T00:00:00	2024-11-08T01:00:00	2	Temperatura media	13.8
113918	7	Sololá	701	Sololá	4	Finca Santa Victoria	6	Junio	2023-06-20T00:00:00	2024-11-08T01:00:00	4	Temperatura máxima	14
113919	7	Sololá	701	Sololá	4	Finca Santa Victoria	6	Junio	2023-06-20T00:00:00	2024-11-08T01:00:00	3	Temperatura mínima	13.8
113920	7	Sololá	701	Sololá	4	Finca Santa Victoria	6	Junio	2023-06-20T00:00:00	2024-11-08T01:00:00	5	Humedad	86
113921	7	Sololá	701	Sololá	4	Finca Santa Victoria	6	Junio	2023-06-20T00:00:00	2024-11-08T01:00:00	6	Velocidad del viento	1.6
113922	7	Sololá	701	Sololá	4	Finca Santa Victoria	6	Junio	2023-06-20T00:00:00	2024-11-08T01:00:00	7	Dirección del viento	1.61
113923	7	Sololá	701	Sololá	4	Finca Santa Victoria	6	Junio	2023-06-20T00:00:00	2024-11-08T01:00:00	1	Precipitación	0
113924	7	Sololá	701	Sololá	4	Finca Santa Victoria	6	Junio	2023-06-20T00:00:00	2024-11-08T01:00:00	8	Radiación solar	0
113925	7	Sololá	701	Sololá	4	Finca Santa Victoria	6	Junio	2023-06-20T00:00:00	2024-11-08T02:00:00	2	Temperatura media	12.9
113926	7	Sololá	701	Sololá	4	Finca Santa Victoria	6	Junio	2023-06-20T00:00:00	2024-11-08T02:00:00	4	Temperatura máxima	13.9
113927	7	Sololá	701	Sololá	4	Finca Santa Victoria	6	Junio	2023-06-20T00:00:00	2024-11-08T02:00:00	3	Temperatura mínima	12.8
113928	7	Sololá	701	Sololá	4	Finca Santa Victoria	6	Junio	2023-06-20T00:00:00	2024-11-08T02:00:00	5	Humedad	89
113929	7	Sololá	701	Sololá	4	Finca Santa Victoria	6	Junio	2023-06-20T00:00:00	2024-11-08T02:00:00	6	Velocidad del viento	1.6
113930	7	Sololá	701	Sololá	4	Finca Santa Victoria	6	Junio	2023-06-20T00:00:00	2024-11-08T02:00:00	7	Dirección del viento	1.61
113931	7	Sololá	701	Sololá	4	Finca Santa Victoria	6	Junio	2023-06-20T00:00:00	2024-11-08T02:00:00	1	Precipitación	0
113932	7	Sololá	701	Sololá	4	Finca Santa Victoria	6	Junio	2023-06-20T00:00:00	2024-11-08T02:00:00	8	Radiación solar	0
113933	7	Sololá	701	Sololá	4	Finca Santa Victoria	6	Junio	2023-06-20T00:00:00	2024-11-08T03:00:00	2	Temperatura media	12.6
113934	7	Sololá	701	Sololá	4	Finca Santa Victoria	6	Junio	2023-06-20T00:00:00	2024-11-08T03:00:00	4	Temperatura máxima	12.9
113935	7	Sololá	701	Sololá	4	Finca Santa Victoria	6	Junio	2023-06-20T00:00:00	2024-11-08T03:00:00	3	Temperatura mínima	12.4
113936	7	Sololá	701	Sololá	4	Finca Santa Victoria	6	Junio	2023-06-20T00:00:00	2024-11-08T03:00:00	5	Humedad	90
113937	7	Sololá	701	Sololá	4	Finca Santa Victoria	6	Junio	2023-06-20T00:00:00	2024-11-08T03:00:00	6	Velocidad del viento	0
113938	7	Sololá	701	Sololá	4	Finca Santa Victoria	6	Junio	2023-06-20T00:00:00	2024-11-08T03:00:00	7	Dirección del viento	0
113939	7	Sololá	701	Sololá	4	Finca Santa Victoria	6	Junio	2023-06-20T00:00:00	2024-11-08T03:00:00	1	Precipitación	0
113940	7	Sololá	701	Sololá	4	Finca Santa Victoria	6	Junio	2023-06-20T00:00:00	2024-11-08T03:00:00	8	Radiación solar	0
113941	7	Sololá	701	Sololá	4	Finca Santa Victoria	6	Junio	2023-06-20T00:00:00	2024-11-08T04:00:00	2	Temperatura media	12.4
113942	7	Sololá	701	Sololá	4	Finca Santa Victoria	6	Junio	2023-06-20T00:00:00	2024-11-08T04:00:00	4	Temperatura máxima	12.6
113943	7	Sololá	701	Sololá	4	Finca Santa Victoria	6	Junio	2023-06-20T00:00:00	2024-11-08T04:00:00	3	Temperatura mínima	12.3
113944	7	Sololá	701	Sololá	4	Finca Santa Victoria	6	Junio	2023-06-20T00:00:00	2024-11-08T04:00:00	5	Humedad	91
113945	7	Sololá	701	Sololá	4	Finca Santa Victoria	6	Junio	2023-06-20T00:00:00	2024-11-08T04:00:00	6	Velocidad del viento	0
113946	7	Sololá	701	Sololá	4	Finca Santa Victoria	6	Junio	2023-06-20T00:00:00	2024-11-08T04:00:00	7	Dirección del viento	0
113947	7	Sololá	701	Sololá	4	Finca Santa Victoria	6	Junio	2023-06-20T00:00:00	2024-11-08T04:00:00	1	Precipitación	0
113948	7	Sololá	701	Sololá	4	Finca Santa Victoria	6	Junio	2023-06-20T00:00:00	2024-11-08T04:00:00	8	Radiación solar	0
113949	7	Sololá	701	Sololá	4	Finca Santa Victoria	6	Junio	2023-06-20T00:00:00	2024-11-08T05:00:00	2	Temperatura media	11.9
113950	7	Sololá	701	Sololá	4	Finca Santa Victoria	6	Junio	2023-06-20T00:00:00	2024-11-08T05:00:00	4	Temperatura máxima	12.4
113951	7	Sololá	701	Sololá	4	Finca Santa Victoria	6	Junio	2023-06-20T00:00:00	2024-11-08T05:00:00	3	Temperatura mínima	11.9
113952	7	Sololá	701	Sololá	4	Finca Santa Victoria	6	Junio	2023-06-20T00:00:00	2024-11-08T05:00:00	5	Humedad	92
113953	7	Sololá	701	Sololá	4	Finca Santa Victoria	6	Junio	2023-06-20T00:00:00	2024-11-08T05:00:00	6	Velocidad del viento	0
113954	7	Sololá	701	Sololá	4	Finca Santa Victoria	6	Junio	2023-06-20T00:00:00	2024-11-08T05:00:00	7	Dirección del viento	0
113955	7	Sololá	701	Sololá	4	Finca Santa Victoria	6	Junio	2023-06-20T00:00:00	2024-11-08T05:00:00	1	Precipitación	0
113956	7	Sololá	701	Sololá	4	Finca Santa Victoria	6	Junio	2023-06-20T00:00:00	2024-11-08T05:00:00	8	Radiación solar	0
113957	7	Sololá	701	Sololá	4	Finca Santa Victoria	6	Junio	2023-06-20T00:00:00	2024-11-08T06:00:00	2	Temperatura media	13.2
113958	7	Sololá	701	Sololá	4	Finca Santa Victoria	6	Junio	2023-06-20T00:00:00	2024-11-08T06:00:00	4	Temperatura máxima	13.2
113959	7	Sololá	701	Sololá	4	Finca Santa Victoria	6	Junio	2023-06-20T00:00:00	2024-11-08T06:00:00	3	Temperatura mínima	11.9
113960	7	Sololá	701	Sololá	4	Finca Santa Victoria	6	Junio	2023-06-20T00:00:00	2024-11-08T06:00:00	5	Humedad	90
113961	7	Sololá	701	Sololá	4	Finca Santa Victoria	6	Junio	2023-06-20T00:00:00	2024-11-08T06:00:00	6	Velocidad del viento	1.6
113962	7	Sololá	701	Sololá	4	Finca Santa Victoria	6	Junio	2023-06-20T00:00:00	2024-11-08T06:00:00	7	Dirección del viento	1.61
113963	7	Sololá	701	Sololá	4	Finca Santa Victoria	6	Junio	2023-06-20T00:00:00	2024-11-08T06:00:00	1	Precipitación	0
113964	7	Sololá	701	Sololá	4	Finca Santa Victoria	6	Junio	2023-06-20T00:00:00	2024-11-08T06:00:00	8	Radiación solar	3
113965	7	Sololá	701	Sololá	4	Finca Santa Victoria	6	Junio	2023-06-20T00:00:00	2024-11-08T07:00:00	2	Temperatura media	13
113966	7	Sololá	701	Sololá	4	Finca Santa Victoria	6	Junio	2023-06-20T00:00:00	2024-11-08T07:00:00	4	Temperatura máxima	13.2
113967	7	Sololá	701	Sololá	4	Finca Santa Victoria	6	Junio	2023-06-20T00:00:00	2024-11-08T07:00:00	3	Temperatura mínima	13
113968	7	Sololá	701	Sololá	4	Finca Santa Victoria	6	Junio	2023-06-20T00:00:00	2024-11-08T07:00:00	5	Humedad	90
113969	7	Sololá	701	Sololá	4	Finca Santa Victoria	6	Junio	2023-06-20T00:00:00	2024-11-08T07:00:00	6	Velocidad del viento	1.6
113970	7	Sololá	701	Sololá	4	Finca Santa Victoria	6	Junio	2023-06-20T00:00:00	2024-11-08T07:00:00	7	Dirección del viento	1.61
113971	7	Sololá	701	Sololá	4	Finca Santa Victoria	6	Junio	2023-06-20T00:00:00	2024-11-08T07:00:00	1	Precipitación	0
113972	7	Sololá	701	Sololá	4	Finca Santa Victoria	6	Junio	2023-06-20T00:00:00	2024-11-08T07:00:00	8	Radiación solar	23
113973	7	Sololá	701	Sololá	4	Finca Santa Victoria	6	Junio	2023-06-20T00:00:00	2024-11-08T08:00:00	2	Temperatura media	13.6
113974	7	Sololá	701	Sololá	4	Finca Santa Victoria	6	Junio	2023-06-20T00:00:00	2024-11-08T08:00:00	4	Temperatura máxima	13.6
113975	7	Sololá	701	Sololá	4	Finca Santa Victoria	6	Junio	2023-06-20T00:00:00	2024-11-08T08:00:00	3	Temperatura mínima	12.8
113976	7	Sololá	701	Sololá	4	Finca Santa Victoria	6	Junio	2023-06-20T00:00:00	2024-11-08T08:00:00	5	Humedad	87
113977	7	Sololá	701	Sololá	4	Finca Santa Victoria	6	Junio	2023-06-20T00:00:00	2024-11-08T08:00:00	6	Velocidad del viento	0
113978	7	Sololá	701	Sololá	4	Finca Santa Victoria	6	Junio	2023-06-20T00:00:00	2024-11-08T08:00:00	7	Dirección del viento	0
113979	7	Sololá	701	Sololá	4	Finca Santa Victoria	6	Junio	2023-06-20T00:00:00	2024-11-08T08:00:00	1	Precipitación	0
113980	7	Sololá	701	Sololá	4	Finca Santa Victoria	6	Junio	2023-06-20T00:00:00	2024-11-08T08:00:00	8	Radiación solar	148
113981	7	Sololá	701	Sololá	4	Finca Santa Victoria	6	Junio	2023-06-20T00:00:00	2024-11-08T09:00:00	2	Temperatura media	16.6
113982	7	Sololá	701	Sololá	4	Finca Santa Victoria	6	Junio	2023-06-20T00:00:00	2024-11-08T09:00:00	4	Temperatura máxima	16.6
113983	7	Sololá	701	Sololá	4	Finca Santa Victoria	6	Junio	2023-06-20T00:00:00	2024-11-08T09:00:00	3	Temperatura mínima	13.6
113984	7	Sololá	701	Sololá	4	Finca Santa Victoria	6	Junio	2023-06-20T00:00:00	2024-11-08T09:00:00	5	Humedad	84
113985	7	Sololá	701	Sololá	4	Finca Santa Victoria	6	Junio	2023-06-20T00:00:00	2024-11-08T09:00:00	6	Velocidad del viento	0
113986	7	Sololá	701	Sololá	4	Finca Santa Victoria	6	Junio	2023-06-20T00:00:00	2024-11-08T09:00:00	7	Dirección del viento	0
113987	7	Sololá	701	Sololá	4	Finca Santa Victoria	6	Junio	2023-06-20T00:00:00	2024-11-08T09:00:00	1	Precipitación	0
113988	7	Sololá	701	Sololá	4	Finca Santa Victoria	6	Junio	2023-06-20T00:00:00	2024-11-08T09:00:00	8	Radiación solar	208
113989	7	Sololá	701	Sololá	4	Finca Santa Victoria	6	Junio	2023-06-20T00:00:00	2024-11-08T10:00:00	2	Temperatura media	18
113990	7	Sololá	701	Sololá	4	Finca Santa Victoria	6	Junio	2023-06-20T00:00:00	2024-11-08T10:00:00	4	Temperatura máxima	18
113991	7	Sololá	701	Sololá	4	Finca Santa Victoria	6	Junio	2023-06-20T00:00:00	2024-11-08T10:00:00	3	Temperatura mínima	16.6
113992	7	Sololá	701	Sololá	4	Finca Santa Victoria	6	Junio	2023-06-20T00:00:00	2024-11-08T10:00:00	5	Humedad	76
113993	7	Sololá	701	Sololá	4	Finca Santa Victoria	6	Junio	2023-06-20T00:00:00	2024-11-08T10:00:00	6	Velocidad del viento	1.6
113994	7	Sololá	701	Sololá	4	Finca Santa Victoria	6	Junio	2023-06-20T00:00:00	2024-11-08T10:00:00	7	Dirección del viento	1.61
113995	7	Sololá	701	Sololá	4	Finca Santa Victoria	6	Junio	2023-06-20T00:00:00	2024-11-08T10:00:00	1	Precipitación	0
113996	7	Sololá	701	Sololá	4	Finca Santa Victoria	6	Junio	2023-06-20T00:00:00	2024-11-08T10:00:00	8	Radiación solar	619
113997	7	Sololá	701	Sololá	4	Finca Santa Victoria	6	Junio	2023-06-20T00:00:00	2024-11-08T11:00:00	2	Temperatura media	19.7
113998	7	Sololá	701	Sololá	4	Finca Santa Victoria	6	Junio	2023-06-20T00:00:00	2024-11-08T11:00:00	4	Temperatura máxima	19.8
113999	7	Sololá	701	Sololá	4	Finca Santa Victoria	6	Junio	2023-06-20T00:00:00	2024-11-08T11:00:00	3	Temperatura mínima	18
114000	7	Sololá	701	Sololá	4	Finca Santa Victoria	6	Junio	2023-06-20T00:00:00	2024-11-08T11:00:00	5	Humedad	75
114001	7	Sololá	701	Sololá	4	Finca Santa Victoria	6	Junio	2023-06-20T00:00:00	2024-11-08T11:00:00	6	Velocidad del viento	1.6
114002	7	Sololá	701	Sololá	4	Finca Santa Victoria	6	Junio	2023-06-20T00:00:00	2024-11-08T11:00:00	7	Dirección del viento	1.61
114003	7	Sololá	701	Sololá	4	Finca Santa Victoria	6	Junio	2023-06-20T00:00:00	2024-11-08T11:00:00	1	Precipitación	0
114004	7	Sololá	701	Sololá	4	Finca Santa Victoria	6	Junio	2023-06-20T00:00:00	2024-11-08T11:00:00	8	Radiación solar	937
114005	7	Sololá	701	Sololá	4	Finca Santa Victoria	6	Junio	2023-06-20T00:00:00	2024-11-08T12:00:00	2	Temperatura media	20.8
114006	7	Sololá	701	Sololá	4	Finca Santa Victoria	6	Junio	2023-06-20T00:00:00	2024-11-08T12:00:00	4	Temperatura máxima	21.1
114007	7	Sololá	701	Sololá	4	Finca Santa Victoria	6	Junio	2023-06-20T00:00:00	2024-11-08T12:00:00	3	Temperatura mínima	19.7
114008	7	Sololá	701	Sololá	4	Finca Santa Victoria	6	Junio	2023-06-20T00:00:00	2024-11-08T12:00:00	5	Humedad	70
114009	7	Sololá	701	Sololá	4	Finca Santa Victoria	6	Junio	2023-06-20T00:00:00	2024-11-08T12:00:00	6	Velocidad del viento	1.6
114010	7	Sololá	701	Sololá	4	Finca Santa Victoria	6	Junio	2023-06-20T00:00:00	2024-11-08T12:00:00	7	Dirección del viento	1.61
114011	7	Sololá	701	Sololá	4	Finca Santa Victoria	6	Junio	2023-06-20T00:00:00	2024-11-08T12:00:00	1	Precipitación	0
114012	7	Sololá	701	Sololá	4	Finca Santa Victoria	6	Junio	2023-06-20T00:00:00	2024-11-08T12:00:00	8	Radiación solar	838
114013	7	Sololá	701	Sololá	4	Finca Santa Victoria	6	Junio	2023-06-20T00:00:00	2024-11-08T13:00:00	2	Temperatura media	21.7
114014	7	Sololá	701	Sololá	4	Finca Santa Victoria	6	Junio	2023-06-20T00:00:00	2024-11-08T13:00:00	4	Temperatura máxima	21.7
114015	7	Sololá	701	Sololá	4	Finca Santa Victoria	6	Junio	2023-06-20T00:00:00	2024-11-08T13:00:00	3	Temperatura mínima	20.8
114016	7	Sololá	701	Sololá	4	Finca Santa Victoria	6	Junio	2023-06-20T00:00:00	2024-11-08T13:00:00	5	Humedad	74
114017	7	Sololá	701	Sololá	4	Finca Santa Victoria	6	Junio	2023-06-20T00:00:00	2024-11-08T13:00:00	6	Velocidad del viento	3.2
114018	7	Sololá	701	Sololá	4	Finca Santa Victoria	6	Junio	2023-06-20T00:00:00	2024-11-08T13:00:00	7	Dirección del viento	3.22
114019	7	Sololá	701	Sololá	4	Finca Santa Victoria	6	Junio	2023-06-20T00:00:00	2024-11-08T13:00:00	1	Precipitación	0
114020	7	Sololá	701	Sololá	4	Finca Santa Victoria	6	Junio	2023-06-20T00:00:00	2024-11-08T13:00:00	8	Radiación solar	455
114021	7	Sololá	701	Sololá	4	Finca Santa Victoria	6	Junio	2023-06-20T00:00:00	2024-11-08T14:00:00	2	Temperatura media	20.2
114022	7	Sololá	701	Sololá	4	Finca Santa Victoria	6	Junio	2023-06-20T00:00:00	2024-11-08T14:00:00	4	Temperatura máxima	21.8
114023	7	Sololá	701	Sololá	4	Finca Santa Victoria	6	Junio	2023-06-20T00:00:00	2024-11-08T14:00:00	3	Temperatura mínima	20.2
114024	7	Sololá	701	Sololá	4	Finca Santa Victoria	6	Junio	2023-06-20T00:00:00	2024-11-08T14:00:00	5	Humedad	68
114025	7	Sololá	701	Sololá	4	Finca Santa Victoria	6	Junio	2023-06-20T00:00:00	2024-11-08T14:00:00	6	Velocidad del viento	3.2
114026	7	Sololá	701	Sololá	4	Finca Santa Victoria	6	Junio	2023-06-20T00:00:00	2024-11-08T14:00:00	7	Dirección del viento	3.22
114027	7	Sololá	701	Sololá	4	Finca Santa Victoria	6	Junio	2023-06-20T00:00:00	2024-11-08T14:00:00	1	Precipitación	0
114028	7	Sololá	701	Sololá	4	Finca Santa Victoria	6	Junio	2023-06-20T00:00:00	2024-11-08T14:00:00	8	Radiación solar	232
114029	7	Sololá	701	Sololá	4	Finca Santa Victoria	6	Junio	2023-06-20T00:00:00	2024-11-08T15:00:00	2	Temperatura media	21.6
114030	7	Sololá	701	Sololá	4	Finca Santa Victoria	6	Junio	2023-06-20T00:00:00	2024-11-08T15:00:00	4	Temperatura máxima	21.6
114031	7	Sololá	701	Sololá	4	Finca Santa Victoria	6	Junio	2023-06-20T00:00:00	2024-11-08T15:00:00	3	Temperatura mínima	20.2
114032	7	Sololá	701	Sololá	4	Finca Santa Victoria	6	Junio	2023-06-20T00:00:00	2024-11-08T15:00:00	5	Humedad	62
114033	7	Sololá	701	Sololá	4	Finca Santa Victoria	6	Junio	2023-06-20T00:00:00	2024-11-08T15:00:00	6	Velocidad del viento	3.2
114034	7	Sololá	701	Sololá	4	Finca Santa Victoria	6	Junio	2023-06-20T00:00:00	2024-11-08T15:00:00	7	Dirección del viento	3.22
114035	7	Sololá	701	Sololá	4	Finca Santa Victoria	6	Junio	2023-06-20T00:00:00	2024-11-08T15:00:00	1	Precipitación	0
114036	7	Sololá	701	Sololá	4	Finca Santa Victoria	6	Junio	2023-06-20T00:00:00	2024-11-08T15:00:00	8	Radiación solar	105
114037	7	Sololá	701	Sololá	4	Finca Santa Victoria	6	Junio	2023-06-20T00:00:00	2024-11-08T16:00:00	2	Temperatura media	21.6
114038	7	Sololá	701	Sololá	4	Finca Santa Victoria	6	Junio	2023-06-20T00:00:00	2024-11-08T16:00:00	4	Temperatura máxima	21.7
114039	7	Sololá	701	Sololá	4	Finca Santa Victoria	6	Junio	2023-06-20T00:00:00	2024-11-08T16:00:00	3	Temperatura mínima	20.8
114040	7	Sololá	701	Sololá	4	Finca Santa Victoria	6	Junio	2023-06-20T00:00:00	2024-11-08T16:00:00	5	Humedad	62
114041	7	Sololá	701	Sololá	4	Finca Santa Victoria	6	Junio	2023-06-20T00:00:00	2024-11-08T16:00:00	6	Velocidad del viento	3.2
114042	7	Sololá	701	Sololá	4	Finca Santa Victoria	6	Junio	2023-06-20T00:00:00	2024-11-08T16:00:00	7	Dirección del viento	3.22
114043	7	Sololá	701	Sololá	4	Finca Santa Victoria	6	Junio	2023-06-20T00:00:00	2024-11-08T16:00:00	1	Precipitación	0
114044	7	Sololá	701	Sololá	4	Finca Santa Victoria	6	Junio	2023-06-20T00:00:00	2024-11-08T16:00:00	8	Radiación solar	127
114045	7	Sololá	701	Sololá	4	Finca Santa Victoria	6	Junio	2023-06-20T00:00:00	2024-11-08T17:00:00	2	Temperatura media	18.1
114046	7	Sololá	701	Sololá	4	Finca Santa Victoria	6	Junio	2023-06-20T00:00:00	2024-11-08T17:00:00	4	Temperatura máxima	21.6
114047	7	Sololá	701	Sololá	4	Finca Santa Victoria	6	Junio	2023-06-20T00:00:00	2024-11-08T17:00:00	3	Temperatura mínima	18.1
114048	7	Sololá	701	Sololá	4	Finca Santa Victoria	6	Junio	2023-06-20T00:00:00	2024-11-08T17:00:00	5	Humedad	90
114049	7	Sololá	701	Sololá	4	Finca Santa Victoria	6	Junio	2023-06-20T00:00:00	2024-11-08T17:00:00	6	Velocidad del viento	1.6
114050	7	Sololá	701	Sololá	4	Finca Santa Victoria	6	Junio	2023-06-20T00:00:00	2024-11-08T17:00:00	7	Dirección del viento	1.61
114051	7	Sololá	701	Sololá	4	Finca Santa Victoria	6	Junio	2023-06-20T00:00:00	2024-11-08T17:00:00	1	Precipitación	0
114052	7	Sololá	701	Sololá	4	Finca Santa Victoria	6	Junio	2023-06-20T00:00:00	2024-11-08T17:00:00	8	Radiación solar	70
114053	7	Sololá	701	Sololá	4	Finca Santa Victoria	6	Junio	2023-06-20T00:00:00	2024-11-08T18:00:00	2	Temperatura media	17.7
114054	7	Sololá	701	Sololá	4	Finca Santa Victoria	6	Junio	2023-06-20T00:00:00	2024-11-08T18:00:00	4	Temperatura máxima	18.1
114055	7	Sololá	701	Sololá	4	Finca Santa Victoria	6	Junio	2023-06-20T00:00:00	2024-11-08T18:00:00	3	Temperatura mínima	17.6
114056	7	Sololá	701	Sololá	4	Finca Santa Victoria	6	Junio	2023-06-20T00:00:00	2024-11-08T18:00:00	5	Humedad	82
114057	7	Sololá	701	Sololá	4	Finca Santa Victoria	6	Junio	2023-06-20T00:00:00	2024-11-08T18:00:00	6	Velocidad del viento	1.6
114058	7	Sololá	701	Sololá	4	Finca Santa Victoria	6	Junio	2023-06-20T00:00:00	2024-11-08T18:00:00	7	Dirección del viento	1.61
114059	7	Sololá	701	Sololá	4	Finca Santa Victoria	6	Junio	2023-06-20T00:00:00	2024-11-08T18:00:00	1	Precipitación	0
114060	7	Sololá	701	Sololá	4	Finca Santa Victoria	6	Junio	2023-06-20T00:00:00	2024-11-08T18:00:00	8	Radiación solar	57
114061	7	Sololá	701	Sololá	4	Finca Santa Victoria	6	Junio	2023-06-20T00:00:00	2024-11-08T19:00:00	2	Temperatura media	17.1
114062	7	Sololá	701	Sololá	4	Finca Santa Victoria	6	Junio	2023-06-20T00:00:00	2024-11-08T19:00:00	4	Temperatura máxima	18.8
114063	7	Sololá	701	Sololá	4	Finca Santa Victoria	6	Junio	2023-06-20T00:00:00	2024-11-08T19:00:00	3	Temperatura mínima	17.1
114064	7	Sololá	701	Sololá	4	Finca Santa Victoria	6	Junio	2023-06-20T00:00:00	2024-11-08T19:00:00	5	Humedad	89
114065	7	Sololá	701	Sololá	4	Finca Santa Victoria	6	Junio	2023-06-20T00:00:00	2024-11-08T19:00:00	6	Velocidad del viento	1.6
114066	7	Sololá	701	Sololá	4	Finca Santa Victoria	6	Junio	2023-06-20T00:00:00	2024-11-08T19:00:00	7	Dirección del viento	1.61
114067	7	Sololá	701	Sololá	4	Finca Santa Victoria	6	Junio	2023-06-20T00:00:00	2024-11-08T19:00:00	1	Precipitación	0
114068	7	Sololá	701	Sololá	4	Finca Santa Victoria	6	Junio	2023-06-20T00:00:00	2024-11-08T19:00:00	8	Radiación solar	0
114069	7	Sololá	701	Sololá	4	Finca Santa Victoria	6	Junio	2023-06-20T00:00:00	2024-11-08T20:00:00	2	Temperatura media	16.2
114070	7	Sololá	701	Sololá	4	Finca Santa Victoria	6	Junio	2023-06-20T00:00:00	2024-11-08T20:00:00	4	Temperatura máxima	17.1
114071	7	Sololá	701	Sololá	4	Finca Santa Victoria	6	Junio	2023-06-20T00:00:00	2024-11-08T20:00:00	3	Temperatura mínima	16.2
114072	7	Sololá	701	Sololá	4	Finca Santa Victoria	6	Junio	2023-06-20T00:00:00	2024-11-08T20:00:00	5	Humedad	82
114073	7	Sololá	701	Sololá	4	Finca Santa Victoria	6	Junio	2023-06-20T00:00:00	2024-11-08T20:00:00	6	Velocidad del viento	1.6
114074	7	Sololá	701	Sololá	4	Finca Santa Victoria	6	Junio	2023-06-20T00:00:00	2024-11-08T20:00:00	7	Dirección del viento	1.61
114075	7	Sololá	701	Sololá	4	Finca Santa Victoria	6	Junio	2023-06-20T00:00:00	2024-11-08T20:00:00	1	Precipitación	0
114076	7	Sololá	701	Sololá	4	Finca Santa Victoria	6	Junio	2023-06-20T00:00:00	2024-11-08T20:00:00	8	Radiación solar	0
114077	7	Sololá	701	Sololá	4	Finca Santa Victoria	6	Junio	2023-06-20T00:00:00	2024-11-08T21:00:00	2	Temperatura media	14.8
114078	7	Sololá	701	Sololá	4	Finca Santa Victoria	6	Junio	2023-06-20T00:00:00	2024-11-08T21:00:00	4	Temperatura máxima	16.2
114079	7	Sololá	701	Sololá	4	Finca Santa Victoria	6	Junio	2023-06-20T00:00:00	2024-11-08T21:00:00	3	Temperatura mínima	14.8
114080	7	Sololá	701	Sololá	4	Finca Santa Victoria	6	Junio	2023-06-20T00:00:00	2024-11-08T21:00:00	5	Humedad	92
114081	7	Sololá	701	Sololá	4	Finca Santa Victoria	6	Junio	2023-06-20T00:00:00	2024-11-08T21:00:00	6	Velocidad del viento	0
114082	7	Sololá	701	Sololá	4	Finca Santa Victoria	6	Junio	2023-06-20T00:00:00	2024-11-08T21:00:00	7	Dirección del viento	0
114083	7	Sololá	701	Sololá	4	Finca Santa Victoria	6	Junio	2023-06-20T00:00:00	2024-11-08T21:00:00	1	Precipitación	0.2
114084	7	Sololá	701	Sololá	4	Finca Santa Victoria	6	Junio	2023-06-20T00:00:00	2024-11-08T21:00:00	8	Radiación solar	0
114085	7	Sololá	701	Sololá	4	Finca Santa Victoria	6	Junio	2023-06-20T00:00:00	2024-11-08T22:00:00	2	Temperatura media	14.3
114086	7	Sololá	701	Sololá	4	Finca Santa Victoria	6	Junio	2023-06-20T00:00:00	2024-11-08T22:00:00	4	Temperatura máxima	14.8
114087	7	Sololá	701	Sololá	4	Finca Santa Victoria	6	Junio	2023-06-20T00:00:00	2024-11-08T22:00:00	3	Temperatura mínima	14.3
114088	7	Sololá	701	Sololá	4	Finca Santa Victoria	6	Junio	2023-06-20T00:00:00	2024-11-08T22:00:00	5	Humedad	93
114089	7	Sololá	701	Sololá	4	Finca Santa Victoria	6	Junio	2023-06-20T00:00:00	2024-11-08T22:00:00	6	Velocidad del viento	0
114090	7	Sololá	701	Sololá	4	Finca Santa Victoria	6	Junio	2023-06-20T00:00:00	2024-11-08T22:00:00	7	Dirección del viento	0
114091	7	Sololá	701	Sololá	4	Finca Santa Victoria	6	Junio	2023-06-20T00:00:00	2024-11-08T22:00:00	1	Precipitación	0.6
114092	7	Sololá	701	Sololá	4	Finca Santa Victoria	6	Junio	2023-06-20T00:00:00	2024-11-08T22:00:00	8	Radiación solar	0
114093	7	Sololá	701	Sololá	4	Finca Santa Victoria	6	Junio	2023-06-20T00:00:00	2024-11-08T23:00:00	2	Temperatura media	13.9
114094	7	Sololá	701	Sololá	4	Finca Santa Victoria	6	Junio	2023-06-20T00:00:00	2024-11-08T23:00:00	4	Temperatura máxima	14.3
114095	7	Sololá	701	Sololá	4	Finca Santa Victoria	6	Junio	2023-06-20T00:00:00	2024-11-08T23:00:00	3	Temperatura mínima	13.9
114096	7	Sololá	701	Sololá	4	Finca Santa Victoria	6	Junio	2023-06-20T00:00:00	2024-11-08T23:00:00	5	Humedad	93
114097	7	Sololá	701	Sololá	4	Finca Santa Victoria	6	Junio	2023-06-20T00:00:00	2024-11-08T23:00:00	6	Velocidad del viento	0
114098	7	Sololá	701	Sololá	4	Finca Santa Victoria	6	Junio	2023-06-20T00:00:00	2024-11-08T23:00:00	7	Dirección del viento	0
114099	7	Sololá	701	Sololá	4	Finca Santa Victoria	6	Junio	2023-06-20T00:00:00	2024-11-08T23:00:00	1	Precipitación	0
114100	7	Sololá	701	Sololá	4	Finca Santa Victoria	6	Junio	2023-06-20T00:00:00	2024-11-08T23:00:00	8	Radiación solar	0
114101	7	Sololá	701	Sololá	4	Finca Santa Victoria	6	Junio	2023-06-21T00:00:00	2024-11-08T00:00:00	2	Temperatura media	13.6
114102	7	Sololá	701	Sololá	4	Finca Santa Victoria	6	Junio	2023-06-21T00:00:00	2024-11-08T00:00:00	4	Temperatura máxima	13.9
114103	7	Sololá	701	Sololá	4	Finca Santa Victoria	6	Junio	2023-06-21T00:00:00	2024-11-08T00:00:00	3	Temperatura mínima	13.6
114104	7	Sololá	701	Sololá	4	Finca Santa Victoria	6	Junio	2023-06-21T00:00:00	2024-11-08T00:00:00	5	Humedad	93
114105	7	Sololá	701	Sololá	4	Finca Santa Victoria	6	Junio	2023-06-21T00:00:00	2024-11-08T00:00:00	6	Velocidad del viento	1.6
114106	7	Sololá	701	Sololá	4	Finca Santa Victoria	6	Junio	2023-06-21T00:00:00	2024-11-08T00:00:00	7	Dirección del viento	1.61
114107	7	Sololá	701	Sololá	4	Finca Santa Victoria	6	Junio	2023-06-21T00:00:00	2024-11-08T00:00:00	1	Precipitación	0
114108	7	Sololá	701	Sololá	4	Finca Santa Victoria	6	Junio	2023-06-21T00:00:00	2024-11-08T00:00:00	8	Radiación solar	0
114109	7	Sololá	701	Sololá	4	Finca Santa Victoria	6	Junio	2023-06-21T00:00:00	2024-11-08T01:00:00	2	Temperatura media	13.1
114110	7	Sololá	701	Sololá	4	Finca Santa Victoria	6	Junio	2023-06-21T00:00:00	2024-11-08T01:00:00	4	Temperatura máxima	13.6
114111	7	Sololá	701	Sololá	4	Finca Santa Victoria	6	Junio	2023-06-21T00:00:00	2024-11-08T01:00:00	3	Temperatura mínima	13.1
114112	7	Sololá	701	Sololá	4	Finca Santa Victoria	6	Junio	2023-06-21T00:00:00	2024-11-08T01:00:00	5	Humedad	92
114113	7	Sololá	701	Sololá	4	Finca Santa Victoria	6	Junio	2023-06-21T00:00:00	2024-11-08T01:00:00	6	Velocidad del viento	0
114114	7	Sololá	701	Sololá	4	Finca Santa Victoria	6	Junio	2023-06-21T00:00:00	2024-11-08T01:00:00	7	Dirección del viento	0
114115	7	Sololá	701	Sololá	4	Finca Santa Victoria	6	Junio	2023-06-21T00:00:00	2024-11-08T01:00:00	1	Precipitación	0
114116	7	Sololá	701	Sololá	4	Finca Santa Victoria	6	Junio	2023-06-21T00:00:00	2024-11-08T01:00:00	8	Radiación solar	0
114117	7	Sololá	701	Sololá	4	Finca Santa Victoria	6	Junio	2023-06-21T00:00:00	2024-11-08T02:00:00	2	Temperatura media	13.3
114118	7	Sololá	701	Sololá	4	Finca Santa Victoria	6	Junio	2023-06-21T00:00:00	2024-11-08T02:00:00	4	Temperatura máxima	13.3
114119	7	Sololá	701	Sololá	4	Finca Santa Victoria	6	Junio	2023-06-21T00:00:00	2024-11-08T02:00:00	3	Temperatura mínima	13
114120	7	Sololá	701	Sololá	4	Finca Santa Victoria	6	Junio	2023-06-21T00:00:00	2024-11-08T02:00:00	5	Humedad	93
114121	7	Sololá	701	Sololá	4	Finca Santa Victoria	6	Junio	2023-06-21T00:00:00	2024-11-08T02:00:00	6	Velocidad del viento	0
114122	7	Sololá	701	Sololá	4	Finca Santa Victoria	6	Junio	2023-06-21T00:00:00	2024-11-08T02:00:00	7	Dirección del viento	0
114123	7	Sololá	701	Sololá	4	Finca Santa Victoria	6	Junio	2023-06-21T00:00:00	2024-11-08T02:00:00	1	Precipitación	0
114124	7	Sololá	701	Sololá	4	Finca Santa Victoria	6	Junio	2023-06-21T00:00:00	2024-11-08T02:00:00	8	Radiación solar	0
114125	7	Sololá	701	Sololá	4	Finca Santa Victoria	6	Junio	2023-06-21T00:00:00	2024-11-08T03:00:00	2	Temperatura media	13.3
114126	7	Sololá	701	Sololá	4	Finca Santa Victoria	6	Junio	2023-06-21T00:00:00	2024-11-08T03:00:00	4	Temperatura máxima	13.4
114127	7	Sololá	701	Sololá	4	Finca Santa Victoria	6	Junio	2023-06-21T00:00:00	2024-11-08T03:00:00	3	Temperatura mínima	12.9
114128	7	Sololá	701	Sololá	4	Finca Santa Victoria	6	Junio	2023-06-21T00:00:00	2024-11-08T03:00:00	5	Humedad	89
114129	7	Sololá	701	Sololá	4	Finca Santa Victoria	6	Junio	2023-06-21T00:00:00	2024-11-08T03:00:00	6	Velocidad del viento	3.2
114130	7	Sololá	701	Sololá	4	Finca Santa Victoria	6	Junio	2023-06-21T00:00:00	2024-11-08T03:00:00	7	Dirección del viento	3.22
114131	7	Sololá	701	Sololá	4	Finca Santa Victoria	6	Junio	2023-06-21T00:00:00	2024-11-08T03:00:00	1	Precipitación	0
114132	7	Sololá	701	Sololá	4	Finca Santa Victoria	6	Junio	2023-06-21T00:00:00	2024-11-08T03:00:00	8	Radiación solar	0
114133	7	Sololá	701	Sololá	4	Finca Santa Victoria	6	Junio	2023-06-21T00:00:00	2024-11-08T04:00:00	2	Temperatura media	13.3
114134	7	Sololá	701	Sololá	4	Finca Santa Victoria	6	Junio	2023-06-21T00:00:00	2024-11-08T04:00:00	4	Temperatura máxima	13.3
114135	7	Sololá	701	Sololá	4	Finca Santa Victoria	6	Junio	2023-06-21T00:00:00	2024-11-08T04:00:00	3	Temperatura mínima	13.1
114136	7	Sololá	701	Sololá	4	Finca Santa Victoria	6	Junio	2023-06-21T00:00:00	2024-11-08T04:00:00	5	Humedad	87
114137	7	Sololá	701	Sololá	4	Finca Santa Victoria	6	Junio	2023-06-21T00:00:00	2024-11-08T04:00:00	6	Velocidad del viento	3.2
114138	7	Sololá	701	Sololá	4	Finca Santa Victoria	6	Junio	2023-06-21T00:00:00	2024-11-08T04:00:00	7	Dirección del viento	3.22
114139	7	Sololá	701	Sololá	4	Finca Santa Victoria	6	Junio	2023-06-21T00:00:00	2024-11-08T04:00:00	1	Precipitación	0
114140	7	Sololá	701	Sololá	4	Finca Santa Victoria	6	Junio	2023-06-21T00:00:00	2024-11-08T04:00:00	8	Radiación solar	0
114141	7	Sololá	701	Sololá	4	Finca Santa Victoria	6	Junio	2023-06-21T00:00:00	2024-11-08T05:00:00	2	Temperatura media	12.8
114142	7	Sololá	701	Sololá	4	Finca Santa Victoria	6	Junio	2023-06-21T00:00:00	2024-11-08T05:00:00	4	Temperatura máxima	13.3
114143	7	Sololá	701	Sololá	4	Finca Santa Victoria	6	Junio	2023-06-21T00:00:00	2024-11-08T05:00:00	3	Temperatura mínima	12.7
114144	7	Sololá	701	Sololá	4	Finca Santa Victoria	6	Junio	2023-06-21T00:00:00	2024-11-08T05:00:00	5	Humedad	90
114145	7	Sololá	701	Sololá	4	Finca Santa Victoria	6	Junio	2023-06-21T00:00:00	2024-11-08T05:00:00	6	Velocidad del viento	0
114146	7	Sololá	701	Sololá	4	Finca Santa Victoria	6	Junio	2023-06-21T00:00:00	2024-11-08T05:00:00	7	Dirección del viento	0
114147	7	Sololá	701	Sololá	4	Finca Santa Victoria	6	Junio	2023-06-21T00:00:00	2024-11-08T05:00:00	1	Precipitación	0
114148	7	Sololá	701	Sololá	4	Finca Santa Victoria	6	Junio	2023-06-21T00:00:00	2024-11-08T05:00:00	8	Radiación solar	0
114149	7	Sololá	701	Sololá	4	Finca Santa Victoria	6	Junio	2023-06-21T00:00:00	2024-11-08T06:00:00	2	Temperatura media	13.3
114150	7	Sololá	701	Sololá	4	Finca Santa Victoria	6	Junio	2023-06-21T00:00:00	2024-11-08T06:00:00	4	Temperatura máxima	13.4
114151	7	Sololá	701	Sololá	4	Finca Santa Victoria	6	Junio	2023-06-21T00:00:00	2024-11-08T06:00:00	3	Temperatura mínima	12.5
114152	7	Sololá	701	Sololá	4	Finca Santa Victoria	6	Junio	2023-06-21T00:00:00	2024-11-08T06:00:00	5	Humedad	90
114153	7	Sololá	701	Sololá	4	Finca Santa Victoria	6	Junio	2023-06-21T00:00:00	2024-11-08T06:00:00	6	Velocidad del viento	1.6
114154	7	Sololá	701	Sololá	4	Finca Santa Victoria	6	Junio	2023-06-21T00:00:00	2024-11-08T06:00:00	7	Dirección del viento	1.61
114155	7	Sololá	701	Sololá	4	Finca Santa Victoria	6	Junio	2023-06-21T00:00:00	2024-11-08T06:00:00	1	Precipitación	0
114156	7	Sololá	701	Sololá	4	Finca Santa Victoria	6	Junio	2023-06-21T00:00:00	2024-11-08T06:00:00	8	Radiación solar	1
114157	7	Sololá	701	Sololá	4	Finca Santa Victoria	6	Junio	2023-06-21T00:00:00	2024-11-08T07:00:00	2	Temperatura media	13.9
114158	7	Sololá	701	Sololá	4	Finca Santa Victoria	6	Junio	2023-06-21T00:00:00	2024-11-08T07:00:00	4	Temperatura máxima	13.9
114159	7	Sololá	701	Sololá	4	Finca Santa Victoria	6	Junio	2023-06-21T00:00:00	2024-11-08T07:00:00	3	Temperatura mínima	13.3
114160	7	Sololá	701	Sololá	4	Finca Santa Victoria	6	Junio	2023-06-21T00:00:00	2024-11-08T07:00:00	5	Humedad	85
114161	7	Sololá	701	Sololá	4	Finca Santa Victoria	6	Junio	2023-06-21T00:00:00	2024-11-08T07:00:00	6	Velocidad del viento	1.6
114162	7	Sololá	701	Sololá	4	Finca Santa Victoria	6	Junio	2023-06-21T00:00:00	2024-11-08T07:00:00	7	Dirección del viento	1.61
114163	7	Sololá	701	Sololá	4	Finca Santa Victoria	6	Junio	2023-06-21T00:00:00	2024-11-08T07:00:00	1	Precipitación	0
114164	7	Sololá	701	Sololá	4	Finca Santa Victoria	6	Junio	2023-06-21T00:00:00	2024-11-08T07:00:00	8	Radiación solar	42
114165	7	Sololá	701	Sololá	4	Finca Santa Victoria	6	Junio	2023-06-21T00:00:00	2024-11-08T08:00:00	2	Temperatura media	14.7
114166	7	Sololá	701	Sololá	4	Finca Santa Victoria	6	Junio	2023-06-21T00:00:00	2024-11-08T08:00:00	4	Temperatura máxima	14.8
114167	7	Sololá	701	Sololá	4	Finca Santa Victoria	6	Junio	2023-06-21T00:00:00	2024-11-08T08:00:00	3	Temperatura mínima	13.9
114168	7	Sololá	701	Sololá	4	Finca Santa Victoria	6	Junio	2023-06-21T00:00:00	2024-11-08T08:00:00	5	Humedad	86
114169	7	Sololá	701	Sololá	4	Finca Santa Victoria	6	Junio	2023-06-21T00:00:00	2024-11-08T08:00:00	6	Velocidad del viento	3.2
114170	7	Sololá	701	Sololá	4	Finca Santa Victoria	6	Junio	2023-06-21T00:00:00	2024-11-08T08:00:00	7	Dirección del viento	3.22
114171	7	Sololá	701	Sololá	4	Finca Santa Victoria	6	Junio	2023-06-21T00:00:00	2024-11-08T08:00:00	1	Precipitación	0
114172	7	Sololá	701	Sololá	4	Finca Santa Victoria	6	Junio	2023-06-21T00:00:00	2024-11-08T08:00:00	8	Radiación solar	114
114173	7	Sololá	701	Sololá	4	Finca Santa Victoria	6	Junio	2023-06-21T00:00:00	2024-11-08T09:00:00	2	Temperatura media	16
114174	7	Sololá	701	Sololá	4	Finca Santa Victoria	6	Junio	2023-06-21T00:00:00	2024-11-08T09:00:00	4	Temperatura máxima	16
114175	7	Sololá	701	Sololá	4	Finca Santa Victoria	6	Junio	2023-06-21T00:00:00	2024-11-08T09:00:00	3	Temperatura mínima	14.7
114176	7	Sololá	701	Sololá	4	Finca Santa Victoria	6	Junio	2023-06-21T00:00:00	2024-11-08T09:00:00	5	Humedad	80
114177	7	Sololá	701	Sololá	4	Finca Santa Victoria	6	Junio	2023-06-21T00:00:00	2024-11-08T09:00:00	6	Velocidad del viento	3.2
114178	7	Sololá	701	Sololá	4	Finca Santa Victoria	6	Junio	2023-06-21T00:00:00	2024-11-08T09:00:00	7	Dirección del viento	3.22
114179	7	Sololá	701	Sololá	4	Finca Santa Victoria	6	Junio	2023-06-21T00:00:00	2024-11-08T09:00:00	1	Precipitación	0
114180	7	Sololá	701	Sololá	4	Finca Santa Victoria	6	Junio	2023-06-21T00:00:00	2024-11-08T09:00:00	8	Radiación solar	205
114181	7	Sololá	701	Sololá	4	Finca Santa Victoria	6	Junio	2023-06-21T00:00:00	2024-11-08T10:00:00	2	Temperatura media	16.9
114182	7	Sololá	701	Sololá	4	Finca Santa Victoria	6	Junio	2023-06-21T00:00:00	2024-11-08T10:00:00	4	Temperatura máxima	16.9
114183	7	Sololá	701	Sololá	4	Finca Santa Victoria	6	Junio	2023-06-21T00:00:00	2024-11-08T10:00:00	3	Temperatura mínima	16
114184	7	Sololá	701	Sololá	4	Finca Santa Victoria	6	Junio	2023-06-21T00:00:00	2024-11-08T10:00:00	5	Humedad	80
114185	7	Sololá	701	Sololá	4	Finca Santa Victoria	6	Junio	2023-06-21T00:00:00	2024-11-08T10:00:00	6	Velocidad del viento	3.2
114186	7	Sololá	701	Sololá	4	Finca Santa Victoria	6	Junio	2023-06-21T00:00:00	2024-11-08T10:00:00	7	Dirección del viento	3.22
114187	7	Sololá	701	Sololá	4	Finca Santa Victoria	6	Junio	2023-06-21T00:00:00	2024-11-08T10:00:00	1	Precipitación	0
114188	7	Sololá	701	Sololá	4	Finca Santa Victoria	6	Junio	2023-06-21T00:00:00	2024-11-08T10:00:00	8	Radiación solar	499
114189	7	Sololá	701	Sololá	4	Finca Santa Victoria	6	Junio	2023-06-21T00:00:00	2024-11-08T11:00:00	2	Temperatura media	18.8
114190	7	Sololá	701	Sololá	4	Finca Santa Victoria	6	Junio	2023-06-21T00:00:00	2024-11-08T11:00:00	4	Temperatura máxima	18.8
114191	7	Sololá	701	Sololá	4	Finca Santa Victoria	6	Junio	2023-06-21T00:00:00	2024-11-08T11:00:00	3	Temperatura mínima	17
114192	7	Sololá	701	Sololá	4	Finca Santa Victoria	6	Junio	2023-06-21T00:00:00	2024-11-08T11:00:00	5	Humedad	75
114193	7	Sololá	701	Sololá	4	Finca Santa Victoria	6	Junio	2023-06-21T00:00:00	2024-11-08T11:00:00	6	Velocidad del viento	3.2
114194	7	Sololá	701	Sololá	4	Finca Santa Victoria	6	Junio	2023-06-21T00:00:00	2024-11-08T11:00:00	7	Dirección del viento	3.22
114195	7	Sololá	701	Sololá	4	Finca Santa Victoria	6	Junio	2023-06-21T00:00:00	2024-11-08T11:00:00	1	Precipitación	0
114196	7	Sololá	701	Sololá	4	Finca Santa Victoria	6	Junio	2023-06-21T00:00:00	2024-11-08T11:00:00	8	Radiación solar	147
114197	7	Sololá	701	Sololá	4	Finca Santa Victoria	6	Junio	2023-06-21T00:00:00	2024-11-08T12:00:00	2	Temperatura media	15.3
114198	7	Sololá	701	Sololá	4	Finca Santa Victoria	6	Junio	2023-06-21T00:00:00	2024-11-08T12:00:00	4	Temperatura máxima	18.7
114199	7	Sololá	701	Sololá	4	Finca Santa Victoria	6	Junio	2023-06-21T00:00:00	2024-11-08T12:00:00	3	Temperatura mínima	15.2
114200	7	Sololá	701	Sololá	4	Finca Santa Victoria	6	Junio	2023-06-21T00:00:00	2024-11-08T12:00:00	5	Humedad	86
114201	7	Sololá	701	Sololá	4	Finca Santa Victoria	6	Junio	2023-06-21T00:00:00	2024-11-08T12:00:00	6	Velocidad del viento	3.2
114202	7	Sololá	701	Sololá	4	Finca Santa Victoria	6	Junio	2023-06-21T00:00:00	2024-11-08T12:00:00	7	Dirección del viento	3.22
114203	7	Sololá	701	Sololá	4	Finca Santa Victoria	6	Junio	2023-06-21T00:00:00	2024-11-08T12:00:00	1	Precipitación	0
114204	7	Sololá	701	Sololá	4	Finca Santa Victoria	6	Junio	2023-06-21T00:00:00	2024-11-08T12:00:00	8	Radiación solar	195
114205	7	Sololá	701	Sololá	4	Finca Santa Victoria	6	Junio	2023-06-21T00:00:00	2024-11-08T13:00:00	2	Temperatura media	16.9
114206	7	Sololá	701	Sololá	4	Finca Santa Victoria	6	Junio	2023-06-21T00:00:00	2024-11-08T13:00:00	4	Temperatura máxima	17
114207	7	Sololá	701	Sololá	4	Finca Santa Victoria	6	Junio	2023-06-21T00:00:00	2024-11-08T13:00:00	3	Temperatura mínima	15.3
114208	7	Sololá	701	Sololá	4	Finca Santa Victoria	6	Junio	2023-06-21T00:00:00	2024-11-08T13:00:00	5	Humedad	82
114209	7	Sololá	701	Sololá	4	Finca Santa Victoria	6	Junio	2023-06-21T00:00:00	2024-11-08T13:00:00	6	Velocidad del viento	3.2
114210	7	Sololá	701	Sololá	4	Finca Santa Victoria	6	Junio	2023-06-21T00:00:00	2024-11-08T13:00:00	7	Dirección del viento	3.22
114211	7	Sololá	701	Sololá	4	Finca Santa Victoria	6	Junio	2023-06-21T00:00:00	2024-11-08T13:00:00	1	Precipitación	0
114212	7	Sololá	701	Sololá	4	Finca Santa Victoria	6	Junio	2023-06-21T00:00:00	2024-11-08T13:00:00	8	Radiación solar	181
114213	7	Sololá	701	Sololá	4	Finca Santa Victoria	6	Junio	2023-06-21T00:00:00	2024-11-08T14:00:00	2	Temperatura media	16.9
114214	7	Sololá	701	Sololá	4	Finca Santa Victoria	6	Junio	2023-06-21T00:00:00	2024-11-08T14:00:00	4	Temperatura máxima	17.5
114215	7	Sololá	701	Sololá	4	Finca Santa Victoria	6	Junio	2023-06-21T00:00:00	2024-11-08T14:00:00	3	Temperatura mínima	16.9
114216	7	Sololá	701	Sololá	4	Finca Santa Victoria	6	Junio	2023-06-21T00:00:00	2024-11-08T14:00:00	5	Humedad	85
114217	7	Sololá	701	Sololá	4	Finca Santa Victoria	6	Junio	2023-06-21T00:00:00	2024-11-08T14:00:00	6	Velocidad del viento	1.6
114218	7	Sololá	701	Sololá	4	Finca Santa Victoria	6	Junio	2023-06-21T00:00:00	2024-11-08T14:00:00	7	Dirección del viento	1.61
114219	7	Sololá	701	Sololá	4	Finca Santa Victoria	6	Junio	2023-06-21T00:00:00	2024-11-08T14:00:00	1	Precipitación	0
114220	7	Sololá	701	Sololá	4	Finca Santa Victoria	6	Junio	2023-06-21T00:00:00	2024-11-08T14:00:00	8	Radiación solar	102
114221	7	Sololá	701	Sololá	4	Finca Santa Victoria	6	Junio	2023-06-21T00:00:00	2024-11-08T15:00:00	2	Temperatura media	15.6
114222	7	Sololá	701	Sololá	4	Finca Santa Victoria	6	Junio	2023-06-21T00:00:00	2024-11-08T15:00:00	4	Temperatura máxima	16.9
114223	7	Sololá	701	Sololá	4	Finca Santa Victoria	6	Junio	2023-06-21T00:00:00	2024-11-08T15:00:00	3	Temperatura mínima	15.6
114224	7	Sololá	701	Sololá	4	Finca Santa Victoria	6	Junio	2023-06-21T00:00:00	2024-11-08T15:00:00	5	Humedad	87
114225	7	Sololá	701	Sololá	4	Finca Santa Victoria	6	Junio	2023-06-21T00:00:00	2024-11-08T15:00:00	6	Velocidad del viento	1.6
114226	7	Sololá	701	Sololá	4	Finca Santa Victoria	6	Junio	2023-06-21T00:00:00	2024-11-08T15:00:00	7	Dirección del viento	1.61
114227	7	Sololá	701	Sololá	4	Finca Santa Victoria	6	Junio	2023-06-21T00:00:00	2024-11-08T15:00:00	1	Precipitación	0
114228	7	Sololá	701	Sololá	4	Finca Santa Victoria	6	Junio	2023-06-21T00:00:00	2024-11-08T15:00:00	8	Radiación solar	195
114229	7	Sololá	701	Sololá	4	Finca Santa Victoria	6	Junio	2023-06-21T00:00:00	2024-11-08T16:00:00	2	Temperatura media	15.9
114230	7	Sololá	701	Sololá	4	Finca Santa Victoria	6	Junio	2023-06-21T00:00:00	2024-11-08T16:00:00	4	Temperatura máxima	16.1
114231	7	Sololá	701	Sololá	4	Finca Santa Victoria	6	Junio	2023-06-21T00:00:00	2024-11-08T16:00:00	3	Temperatura mínima	15.6
114232	7	Sololá	701	Sololá	4	Finca Santa Victoria	6	Junio	2023-06-21T00:00:00	2024-11-08T16:00:00	5	Humedad	91
114233	7	Sololá	701	Sololá	4	Finca Santa Victoria	6	Junio	2023-06-21T00:00:00	2024-11-08T16:00:00	6	Velocidad del viento	1.6
114234	7	Sololá	701	Sololá	4	Finca Santa Victoria	6	Junio	2023-06-21T00:00:00	2024-11-08T16:00:00	7	Dirección del viento	1.61
114235	7	Sololá	701	Sololá	4	Finca Santa Victoria	6	Junio	2023-06-21T00:00:00	2024-11-08T16:00:00	1	Precipitación	0
114236	7	Sololá	701	Sololá	4	Finca Santa Victoria	6	Junio	2023-06-21T00:00:00	2024-11-08T16:00:00	8	Radiación solar	15
114237	7	Sololá	701	Sololá	4	Finca Santa Victoria	6	Junio	2023-06-21T00:00:00	2024-11-08T17:00:00	2	Temperatura media	15.4
114238	7	Sololá	701	Sololá	4	Finca Santa Victoria	6	Junio	2023-06-21T00:00:00	2024-11-08T17:00:00	4	Temperatura máxima	15.8
114239	7	Sololá	701	Sololá	4	Finca Santa Victoria	6	Junio	2023-06-21T00:00:00	2024-11-08T17:00:00	3	Temperatura mínima	14.8
114240	7	Sololá	701	Sololá	4	Finca Santa Victoria	6	Junio	2023-06-21T00:00:00	2024-11-08T17:00:00	5	Humedad	89
114241	7	Sololá	701	Sololá	4	Finca Santa Victoria	6	Junio	2023-06-21T00:00:00	2024-11-08T17:00:00	6	Velocidad del viento	0
114242	7	Sololá	701	Sololá	4	Finca Santa Victoria	6	Junio	2023-06-21T00:00:00	2024-11-08T17:00:00	7	Dirección del viento	0
114243	7	Sololá	701	Sololá	4	Finca Santa Victoria	6	Junio	2023-06-21T00:00:00	2024-11-08T17:00:00	1	Precipitación	1
114244	7	Sololá	701	Sololá	4	Finca Santa Victoria	6	Junio	2023-06-21T00:00:00	2024-11-08T17:00:00	8	Radiación solar	20
114245	7	Sololá	701	Sololá	4	Finca Santa Victoria	6	Junio	2023-06-21T00:00:00	2024-11-08T18:00:00	2	Temperatura media	13.9
114246	7	Sololá	701	Sololá	4	Finca Santa Victoria	6	Junio	2023-06-21T00:00:00	2024-11-08T18:00:00	4	Temperatura máxima	15.4
114247	7	Sololá	701	Sololá	4	Finca Santa Victoria	6	Junio	2023-06-21T00:00:00	2024-11-08T18:00:00	3	Temperatura mínima	13.9
114248	7	Sololá	701	Sololá	4	Finca Santa Victoria	6	Junio	2023-06-21T00:00:00	2024-11-08T18:00:00	5	Humedad	95
114249	7	Sololá	701	Sololá	4	Finca Santa Victoria	6	Junio	2023-06-21T00:00:00	2024-11-08T18:00:00	6	Velocidad del viento	0
114250	7	Sololá	701	Sololá	4	Finca Santa Victoria	6	Junio	2023-06-21T00:00:00	2024-11-08T18:00:00	7	Dirección del viento	0
114251	7	Sololá	701	Sololá	4	Finca Santa Victoria	6	Junio	2023-06-21T00:00:00	2024-11-08T18:00:00	1	Precipitación	0
114252	7	Sololá	701	Sololá	4	Finca Santa Victoria	6	Junio	2023-06-21T00:00:00	2024-11-08T18:00:00	8	Radiación solar	4
114253	7	Sololá	701	Sololá	4	Finca Santa Victoria	6	Junio	2023-06-21T00:00:00	2024-11-08T19:00:00	2	Temperatura media	13.8
114254	7	Sololá	701	Sololá	4	Finca Santa Victoria	6	Junio	2023-06-21T00:00:00	2024-11-08T19:00:00	4	Temperatura máxima	13.9
114255	7	Sololá	701	Sololá	4	Finca Santa Victoria	6	Junio	2023-06-21T00:00:00	2024-11-08T19:00:00	3	Temperatura mínima	13.6
114256	7	Sololá	701	Sololá	4	Finca Santa Victoria	6	Junio	2023-06-21T00:00:00	2024-11-08T19:00:00	5	Humedad	97
114257	7	Sololá	701	Sololá	4	Finca Santa Victoria	6	Junio	2023-06-21T00:00:00	2024-11-08T19:00:00	6	Velocidad del viento	0
114258	7	Sololá	701	Sololá	4	Finca Santa Victoria	6	Junio	2023-06-21T00:00:00	2024-11-08T19:00:00	7	Dirección del viento	0
114259	7	Sololá	701	Sololá	4	Finca Santa Victoria	6	Junio	2023-06-21T00:00:00	2024-11-08T19:00:00	1	Precipitación	0
114260	7	Sololá	701	Sololá	4	Finca Santa Victoria	6	Junio	2023-06-21T00:00:00	2024-11-08T19:00:00	8	Radiación solar	0
114261	7	Sololá	701	Sololá	4	Finca Santa Victoria	6	Junio	2023-06-21T00:00:00	2024-11-08T20:00:00	2	Temperatura media	13.6
114262	7	Sololá	701	Sololá	4	Finca Santa Victoria	6	Junio	2023-06-21T00:00:00	2024-11-08T20:00:00	4	Temperatura máxima	13.9
114263	7	Sololá	701	Sololá	4	Finca Santa Victoria	6	Junio	2023-06-21T00:00:00	2024-11-08T20:00:00	3	Temperatura mínima	13.6
114264	7	Sololá	701	Sololá	4	Finca Santa Victoria	6	Junio	2023-06-21T00:00:00	2024-11-08T20:00:00	5	Humedad	97
114265	7	Sololá	701	Sololá	4	Finca Santa Victoria	6	Junio	2023-06-21T00:00:00	2024-11-08T20:00:00	6	Velocidad del viento	0
114266	7	Sololá	701	Sololá	4	Finca Santa Victoria	6	Junio	2023-06-21T00:00:00	2024-11-08T20:00:00	7	Dirección del viento	0
114267	7	Sololá	701	Sololá	4	Finca Santa Victoria	6	Junio	2023-06-21T00:00:00	2024-11-08T20:00:00	1	Precipitación	0
114268	7	Sololá	701	Sololá	4	Finca Santa Victoria	6	Junio	2023-06-21T00:00:00	2024-11-08T20:00:00	8	Radiación solar	0
114269	7	Sololá	701	Sololá	4	Finca Santa Victoria	6	Junio	2023-06-21T00:00:00	2024-11-08T21:00:00	2	Temperatura media	13.5
114270	7	Sololá	701	Sololá	4	Finca Santa Victoria	6	Junio	2023-06-21T00:00:00	2024-11-08T21:00:00	4	Temperatura máxima	13.8
114271	7	Sololá	701	Sololá	4	Finca Santa Victoria	6	Junio	2023-06-21T00:00:00	2024-11-08T21:00:00	3	Temperatura mínima	13.5
114272	7	Sololá	701	Sololá	4	Finca Santa Victoria	6	Junio	2023-06-21T00:00:00	2024-11-08T21:00:00	5	Humedad	97
114273	7	Sololá	701	Sololá	4	Finca Santa Victoria	6	Junio	2023-06-21T00:00:00	2024-11-08T21:00:00	6	Velocidad del viento	0
114274	7	Sololá	701	Sololá	4	Finca Santa Victoria	6	Junio	2023-06-21T00:00:00	2024-11-08T21:00:00	7	Dirección del viento	0
114275	7	Sololá	701	Sololá	4	Finca Santa Victoria	6	Junio	2023-06-21T00:00:00	2024-11-08T21:00:00	1	Precipitación	0
114276	7	Sololá	701	Sololá	4	Finca Santa Victoria	6	Junio	2023-06-21T00:00:00	2024-11-08T21:00:00	8	Radiación solar	0
114277	7	Sololá	701	Sololá	4	Finca Santa Victoria	6	Junio	2023-06-21T00:00:00	2024-11-08T22:00:00	2	Temperatura media	13.7
114278	7	Sololá	701	Sololá	4	Finca Santa Victoria	6	Junio	2023-06-21T00:00:00	2024-11-08T22:00:00	4	Temperatura máxima	13.7
114279	7	Sololá	701	Sololá	4	Finca Santa Victoria	6	Junio	2023-06-21T00:00:00	2024-11-08T22:00:00	3	Temperatura mínima	13.4
114280	7	Sololá	701	Sololá	4	Finca Santa Victoria	6	Junio	2023-06-21T00:00:00	2024-11-08T22:00:00	5	Humedad	96
114281	7	Sololá	701	Sololá	4	Finca Santa Victoria	6	Junio	2023-06-21T00:00:00	2024-11-08T22:00:00	6	Velocidad del viento	0
114282	7	Sololá	701	Sololá	4	Finca Santa Victoria	6	Junio	2023-06-21T00:00:00	2024-11-08T22:00:00	7	Dirección del viento	0
114283	7	Sololá	701	Sololá	4	Finca Santa Victoria	6	Junio	2023-06-21T00:00:00	2024-11-08T22:00:00	1	Precipitación	0
114284	7	Sololá	701	Sololá	4	Finca Santa Victoria	6	Junio	2023-06-21T00:00:00	2024-11-08T22:00:00	8	Radiación solar	0
114285	7	Sololá	701	Sololá	4	Finca Santa Victoria	6	Junio	2023-06-21T00:00:00	2024-11-08T23:00:00	2	Temperatura media	13.4
114286	7	Sololá	701	Sololá	4	Finca Santa Victoria	6	Junio	2023-06-21T00:00:00	2024-11-08T23:00:00	4	Temperatura máxima	13.8
114287	7	Sololá	701	Sololá	4	Finca Santa Victoria	6	Junio	2023-06-21T00:00:00	2024-11-08T23:00:00	3	Temperatura mínima	13.4
114288	7	Sololá	701	Sololá	4	Finca Santa Victoria	6	Junio	2023-06-21T00:00:00	2024-11-08T23:00:00	5	Humedad	96
114289	7	Sololá	701	Sololá	4	Finca Santa Victoria	6	Junio	2023-06-21T00:00:00	2024-11-08T23:00:00	6	Velocidad del viento	0
114290	7	Sololá	701	Sololá	4	Finca Santa Victoria	6	Junio	2023-06-21T00:00:00	2024-11-08T23:00:00	7	Dirección del viento	0
114291	7	Sololá	701	Sololá	4	Finca Santa Victoria	6	Junio	2023-06-21T00:00:00	2024-11-08T23:00:00	1	Precipitación	0
114292	7	Sololá	701	Sololá	4	Finca Santa Victoria	6	Junio	2023-06-21T00:00:00	2024-11-08T23:00:00	8	Radiación solar	0
114293	7	Sololá	701	Sololá	4	Finca Santa Victoria	6	Junio	2023-06-22T00:00:00	2024-11-08T00:00:00	2	Temperatura media	13.7
114294	7	Sololá	701	Sololá	4	Finca Santa Victoria	6	Junio	2023-06-22T00:00:00	2024-11-08T00:00:00	4	Temperatura máxima	13.7
114295	7	Sololá	701	Sololá	4	Finca Santa Victoria	6	Junio	2023-06-22T00:00:00	2024-11-08T00:00:00	3	Temperatura mínima	13.3
114296	7	Sololá	701	Sololá	4	Finca Santa Victoria	6	Junio	2023-06-22T00:00:00	2024-11-08T00:00:00	5	Humedad	98
114297	7	Sololá	701	Sololá	4	Finca Santa Victoria	6	Junio	2023-06-22T00:00:00	2024-11-08T00:00:00	6	Velocidad del viento	0
114298	7	Sololá	701	Sololá	4	Finca Santa Victoria	6	Junio	2023-06-22T00:00:00	2024-11-08T00:00:00	7	Dirección del viento	0
114299	7	Sololá	701	Sololá	4	Finca Santa Victoria	6	Junio	2023-06-22T00:00:00	2024-11-08T00:00:00	1	Precipitación	0
114300	7	Sololá	701	Sololá	4	Finca Santa Victoria	6	Junio	2023-06-22T00:00:00	2024-11-08T00:00:00	8	Radiación solar	0
114301	7	Sololá	701	Sololá	4	Finca Santa Victoria	6	Junio	2023-06-22T00:00:00	2024-11-08T01:00:00	2	Temperatura media	12.9
114302	7	Sololá	701	Sololá	4	Finca Santa Victoria	6	Junio	2023-06-22T00:00:00	2024-11-08T01:00:00	4	Temperatura máxima	13.7
114303	7	Sololá	701	Sololá	4	Finca Santa Victoria	6	Junio	2023-06-22T00:00:00	2024-11-08T01:00:00	3	Temperatura mínima	12.8
114304	7	Sololá	701	Sololá	4	Finca Santa Victoria	6	Junio	2023-06-22T00:00:00	2024-11-08T01:00:00	5	Humedad	92
114305	7	Sololá	701	Sololá	4	Finca Santa Victoria	6	Junio	2023-06-22T00:00:00	2024-11-08T01:00:00	6	Velocidad del viento	0
114306	7	Sololá	701	Sololá	4	Finca Santa Victoria	6	Junio	2023-06-22T00:00:00	2024-11-08T01:00:00	7	Dirección del viento	0
114307	7	Sololá	701	Sololá	4	Finca Santa Victoria	6	Junio	2023-06-22T00:00:00	2024-11-08T01:00:00	1	Precipitación	0.2
114308	7	Sololá	701	Sololá	4	Finca Santa Victoria	6	Junio	2023-06-22T00:00:00	2024-11-08T01:00:00	8	Radiación solar	0
114309	7	Sololá	701	Sololá	4	Finca Santa Victoria	6	Junio	2023-06-22T00:00:00	2024-11-08T02:00:00	2	Temperatura media	12.9
114310	7	Sololá	701	Sololá	4	Finca Santa Victoria	6	Junio	2023-06-22T00:00:00	2024-11-08T02:00:00	4	Temperatura máxima	13
114311	7	Sololá	701	Sololá	4	Finca Santa Victoria	6	Junio	2023-06-22T00:00:00	2024-11-08T02:00:00	3	Temperatura mínima	12.7
114312	7	Sololá	701	Sololá	4	Finca Santa Victoria	6	Junio	2023-06-22T00:00:00	2024-11-08T02:00:00	5	Humedad	97
114313	7	Sololá	701	Sololá	4	Finca Santa Victoria	6	Junio	2023-06-22T00:00:00	2024-11-08T02:00:00	6	Velocidad del viento	0
114314	7	Sololá	701	Sololá	4	Finca Santa Victoria	6	Junio	2023-06-22T00:00:00	2024-11-08T02:00:00	7	Dirección del viento	0
114315	7	Sololá	701	Sololá	4	Finca Santa Victoria	6	Junio	2023-06-22T00:00:00	2024-11-08T02:00:00	1	Precipitación	0.2
114316	7	Sololá	701	Sololá	4	Finca Santa Victoria	6	Junio	2023-06-22T00:00:00	2024-11-08T02:00:00	8	Radiación solar	0
114317	7	Sololá	701	Sololá	4	Finca Santa Victoria	6	Junio	2023-06-22T00:00:00	2024-11-08T03:00:00	2	Temperatura media	12.7
114318	7	Sololá	701	Sololá	4	Finca Santa Victoria	6	Junio	2023-06-22T00:00:00	2024-11-08T03:00:00	4	Temperatura máxima	12.9
114319	7	Sololá	701	Sololá	4	Finca Santa Victoria	6	Junio	2023-06-22T00:00:00	2024-11-08T03:00:00	3	Temperatura mínima	12.7
114320	7	Sololá	701	Sololá	4	Finca Santa Victoria	6	Junio	2023-06-22T00:00:00	2024-11-08T03:00:00	5	Humedad	97
114321	7	Sololá	701	Sololá	4	Finca Santa Victoria	6	Junio	2023-06-22T00:00:00	2024-11-08T03:00:00	6	Velocidad del viento	0
114322	7	Sololá	701	Sololá	4	Finca Santa Victoria	6	Junio	2023-06-22T00:00:00	2024-11-08T03:00:00	7	Dirección del viento	0
114323	7	Sololá	701	Sololá	4	Finca Santa Victoria	6	Junio	2023-06-22T00:00:00	2024-11-08T03:00:00	1	Precipitación	0.2
114324	7	Sololá	701	Sololá	4	Finca Santa Victoria	6	Junio	2023-06-22T00:00:00	2024-11-08T03:00:00	8	Radiación solar	0
114325	7	Sololá	701	Sololá	4	Finca Santa Victoria	6	Junio	2023-06-22T00:00:00	2024-11-08T04:00:00	2	Temperatura media	12.3
114326	7	Sololá	701	Sololá	4	Finca Santa Victoria	6	Junio	2023-06-22T00:00:00	2024-11-08T04:00:00	4	Temperatura máxima	12.7
114327	7	Sololá	701	Sololá	4	Finca Santa Victoria	6	Junio	2023-06-22T00:00:00	2024-11-08T04:00:00	3	Temperatura mínima	12.1
114328	7	Sololá	701	Sololá	4	Finca Santa Victoria	6	Junio	2023-06-22T00:00:00	2024-11-08T04:00:00	5	Humedad	97
114329	7	Sololá	701	Sololá	4	Finca Santa Victoria	6	Junio	2023-06-22T00:00:00	2024-11-08T04:00:00	6	Velocidad del viento	0
114330	7	Sololá	701	Sololá	4	Finca Santa Victoria	6	Junio	2023-06-22T00:00:00	2024-11-08T04:00:00	7	Dirección del viento	0
114331	7	Sololá	701	Sololá	4	Finca Santa Victoria	6	Junio	2023-06-22T00:00:00	2024-11-08T04:00:00	1	Precipitación	0
114332	7	Sololá	701	Sololá	4	Finca Santa Victoria	6	Junio	2023-06-22T00:00:00	2024-11-08T04:00:00	8	Radiación solar	0
114333	7	Sololá	701	Sololá	4	Finca Santa Victoria	6	Junio	2023-06-22T00:00:00	2024-11-08T05:00:00	2	Temperatura media	12.3
114334	7	Sololá	701	Sololá	4	Finca Santa Victoria	6	Junio	2023-06-22T00:00:00	2024-11-08T05:00:00	4	Temperatura máxima	12.4
114335	7	Sololá	701	Sololá	4	Finca Santa Victoria	6	Junio	2023-06-22T00:00:00	2024-11-08T05:00:00	3	Temperatura mínima	12.2
114336	7	Sololá	701	Sololá	4	Finca Santa Victoria	6	Junio	2023-06-22T00:00:00	2024-11-08T05:00:00	5	Humedad	96
114337	7	Sololá	701	Sololá	4	Finca Santa Victoria	6	Junio	2023-06-22T00:00:00	2024-11-08T05:00:00	6	Velocidad del viento	0
114338	7	Sololá	701	Sololá	4	Finca Santa Victoria	6	Junio	2023-06-22T00:00:00	2024-11-08T05:00:00	7	Dirección del viento	0
114339	7	Sololá	701	Sololá	4	Finca Santa Victoria	6	Junio	2023-06-22T00:00:00	2024-11-08T05:00:00	1	Precipitación	0
114340	7	Sololá	701	Sololá	4	Finca Santa Victoria	6	Junio	2023-06-22T00:00:00	2024-11-08T05:00:00	8	Radiación solar	0
114341	7	Sololá	701	Sololá	4	Finca Santa Victoria	6	Junio	2023-06-22T00:00:00	2024-11-08T06:00:00	2	Temperatura media	12.3
114342	7	Sololá	701	Sololá	4	Finca Santa Victoria	6	Junio	2023-06-22T00:00:00	2024-11-08T06:00:00	4	Temperatura máxima	12.4
114343	7	Sololá	701	Sololá	4	Finca Santa Victoria	6	Junio	2023-06-22T00:00:00	2024-11-08T06:00:00	3	Temperatura mínima	12.2
114344	7	Sololá	701	Sololá	4	Finca Santa Victoria	6	Junio	2023-06-22T00:00:00	2024-11-08T06:00:00	5	Humedad	93
114345	7	Sololá	701	Sololá	4	Finca Santa Victoria	6	Junio	2023-06-22T00:00:00	2024-11-08T06:00:00	6	Velocidad del viento	0
114346	7	Sololá	701	Sololá	4	Finca Santa Victoria	6	Junio	2023-06-22T00:00:00	2024-11-08T06:00:00	7	Dirección del viento	0
114347	7	Sololá	701	Sololá	4	Finca Santa Victoria	6	Junio	2023-06-22T00:00:00	2024-11-08T06:00:00	1	Precipitación	0
114348	7	Sololá	701	Sololá	4	Finca Santa Victoria	6	Junio	2023-06-22T00:00:00	2024-11-08T06:00:00	8	Radiación solar	1
114349	7	Sololá	701	Sololá	4	Finca Santa Victoria	6	Junio	2023-06-22T00:00:00	2024-11-08T07:00:00	2	Temperatura media	13.4
114350	7	Sololá	701	Sololá	4	Finca Santa Victoria	6	Junio	2023-06-22T00:00:00	2024-11-08T07:00:00	4	Temperatura máxima	13.4
114351	7	Sololá	701	Sololá	4	Finca Santa Victoria	6	Junio	2023-06-22T00:00:00	2024-11-08T07:00:00	3	Temperatura mínima	12.3
114352	7	Sololá	701	Sololá	4	Finca Santa Victoria	6	Junio	2023-06-22T00:00:00	2024-11-08T07:00:00	5	Humedad	94
114353	7	Sololá	701	Sololá	4	Finca Santa Victoria	6	Junio	2023-06-22T00:00:00	2024-11-08T07:00:00	6	Velocidad del viento	0
114354	7	Sololá	701	Sololá	4	Finca Santa Victoria	6	Junio	2023-06-22T00:00:00	2024-11-08T07:00:00	7	Dirección del viento	0
114355	7	Sololá	701	Sololá	4	Finca Santa Victoria	6	Junio	2023-06-22T00:00:00	2024-11-08T07:00:00	1	Precipitación	0
114356	7	Sololá	701	Sololá	4	Finca Santa Victoria	6	Junio	2023-06-22T00:00:00	2024-11-08T07:00:00	8	Radiación solar	35
114357	7	Sololá	701	Sololá	4	Finca Santa Victoria	6	Junio	2023-06-22T00:00:00	2024-11-08T08:00:00	2	Temperatura media	14.8
114358	7	Sololá	701	Sololá	4	Finca Santa Victoria	6	Junio	2023-06-22T00:00:00	2024-11-08T08:00:00	4	Temperatura máxima	14.8
114359	7	Sololá	701	Sololá	4	Finca Santa Victoria	6	Junio	2023-06-22T00:00:00	2024-11-08T08:00:00	3	Temperatura mínima	13.3
114360	7	Sololá	701	Sololá	4	Finca Santa Victoria	6	Junio	2023-06-22T00:00:00	2024-11-08T08:00:00	5	Humedad	91
114361	7	Sololá	701	Sololá	4	Finca Santa Victoria	6	Junio	2023-06-22T00:00:00	2024-11-08T08:00:00	6	Velocidad del viento	0
114362	7	Sololá	701	Sololá	4	Finca Santa Victoria	6	Junio	2023-06-22T00:00:00	2024-11-08T08:00:00	7	Dirección del viento	0
114363	7	Sololá	701	Sololá	4	Finca Santa Victoria	6	Junio	2023-06-22T00:00:00	2024-11-08T08:00:00	1	Precipitación	0
114364	7	Sololá	701	Sololá	4	Finca Santa Victoria	6	Junio	2023-06-22T00:00:00	2024-11-08T08:00:00	8	Radiación solar	135
114365	7	Sololá	701	Sololá	4	Finca Santa Victoria	6	Junio	2023-06-22T00:00:00	2024-11-08T09:00:00	2	Temperatura media	17.1
114366	7	Sololá	701	Sololá	4	Finca Santa Victoria	6	Junio	2023-06-22T00:00:00	2024-11-08T09:00:00	4	Temperatura máxima	17.1
114367	7	Sololá	701	Sololá	4	Finca Santa Victoria	6	Junio	2023-06-22T00:00:00	2024-11-08T09:00:00	3	Temperatura mínima	14.8
114368	7	Sololá	701	Sololá	4	Finca Santa Victoria	6	Junio	2023-06-22T00:00:00	2024-11-08T09:00:00	5	Humedad	84
114369	7	Sololá	701	Sololá	4	Finca Santa Victoria	6	Junio	2023-06-22T00:00:00	2024-11-08T09:00:00	6	Velocidad del viento	1.6
114370	7	Sololá	701	Sololá	4	Finca Santa Victoria	6	Junio	2023-06-22T00:00:00	2024-11-08T09:00:00	7	Dirección del viento	1.61
114371	7	Sololá	701	Sololá	4	Finca Santa Victoria	6	Junio	2023-06-22T00:00:00	2024-11-08T09:00:00	1	Precipitación	0
114372	7	Sololá	701	Sololá	4	Finca Santa Victoria	6	Junio	2023-06-22T00:00:00	2024-11-08T09:00:00	8	Radiación solar	364
114373	7	Sololá	701	Sololá	4	Finca Santa Victoria	6	Junio	2023-06-22T00:00:00	2024-11-08T10:00:00	2	Temperatura media	17.9
114374	7	Sololá	701	Sololá	4	Finca Santa Victoria	6	Junio	2023-06-22T00:00:00	2024-11-08T10:00:00	4	Temperatura máxima	18.3
114375	7	Sololá	701	Sololá	4	Finca Santa Victoria	6	Junio	2023-06-22T00:00:00	2024-11-08T10:00:00	3	Temperatura mínima	17
114376	7	Sololá	701	Sololá	4	Finca Santa Victoria	6	Junio	2023-06-22T00:00:00	2024-11-08T10:00:00	5	Humedad	85
114377	7	Sololá	701	Sololá	4	Finca Santa Victoria	6	Junio	2023-06-22T00:00:00	2024-11-08T10:00:00	6	Velocidad del viento	1.6
114378	7	Sololá	701	Sololá	4	Finca Santa Victoria	6	Junio	2023-06-22T00:00:00	2024-11-08T10:00:00	7	Dirección del viento	1.61
114379	7	Sololá	701	Sololá	4	Finca Santa Victoria	6	Junio	2023-06-22T00:00:00	2024-11-08T10:00:00	1	Precipitación	0
114380	7	Sololá	701	Sololá	4	Finca Santa Victoria	6	Junio	2023-06-22T00:00:00	2024-11-08T10:00:00	8	Radiación solar	272
114381	7	Sololá	701	Sololá	4	Finca Santa Victoria	6	Junio	2023-06-22T00:00:00	2024-11-08T11:00:00	2	Temperatura media	15.9
114382	7	Sololá	701	Sololá	4	Finca Santa Victoria	6	Junio	2023-06-22T00:00:00	2024-11-08T11:00:00	4	Temperatura máxima	17.9
114383	7	Sololá	701	Sololá	4	Finca Santa Victoria	6	Junio	2023-06-22T00:00:00	2024-11-08T11:00:00	3	Temperatura mínima	15.8
114384	7	Sololá	701	Sololá	4	Finca Santa Victoria	6	Junio	2023-06-22T00:00:00	2024-11-08T11:00:00	5	Humedad	92
114385	7	Sololá	701	Sololá	4	Finca Santa Victoria	6	Junio	2023-06-22T00:00:00	2024-11-08T11:00:00	6	Velocidad del viento	3.2
114386	7	Sololá	701	Sololá	4	Finca Santa Victoria	6	Junio	2023-06-22T00:00:00	2024-11-08T11:00:00	7	Dirección del viento	3.22
114387	7	Sololá	701	Sololá	4	Finca Santa Victoria	6	Junio	2023-06-22T00:00:00	2024-11-08T11:00:00	1	Precipitación	0
114388	7	Sololá	701	Sololá	4	Finca Santa Victoria	6	Junio	2023-06-22T00:00:00	2024-11-08T11:00:00	8	Radiación solar	172
114389	7	Sololá	701	Sololá	4	Finca Santa Victoria	6	Junio	2023-06-22T00:00:00	2024-11-08T12:00:00	2	Temperatura media	15.3
114390	7	Sololá	701	Sololá	4	Finca Santa Victoria	6	Junio	2023-06-22T00:00:00	2024-11-08T12:00:00	4	Temperatura máxima	15.9
114391	7	Sololá	701	Sololá	4	Finca Santa Victoria	6	Junio	2023-06-22T00:00:00	2024-11-08T12:00:00	3	Temperatura mínima	15.2
114392	7	Sololá	701	Sololá	4	Finca Santa Victoria	6	Junio	2023-06-22T00:00:00	2024-11-08T12:00:00	5	Humedad	96
114393	7	Sololá	701	Sololá	4	Finca Santa Victoria	6	Junio	2023-06-22T00:00:00	2024-11-08T12:00:00	6	Velocidad del viento	3.2
114394	7	Sololá	701	Sololá	4	Finca Santa Victoria	6	Junio	2023-06-22T00:00:00	2024-11-08T12:00:00	7	Dirección del viento	3.22
114395	7	Sololá	701	Sololá	4	Finca Santa Victoria	6	Junio	2023-06-22T00:00:00	2024-11-08T12:00:00	1	Precipitación	0
114396	7	Sololá	701	Sololá	4	Finca Santa Victoria	6	Junio	2023-06-22T00:00:00	2024-11-08T12:00:00	8	Radiación solar	84
114397	7	Sololá	701	Sololá	4	Finca Santa Victoria	6	Junio	2023-06-22T00:00:00	2024-11-08T13:00:00	2	Temperatura media	15.9
114398	7	Sololá	701	Sololá	4	Finca Santa Victoria	6	Junio	2023-06-22T00:00:00	2024-11-08T13:00:00	4	Temperatura máxima	15.9
114399	7	Sololá	701	Sololá	4	Finca Santa Victoria	6	Junio	2023-06-22T00:00:00	2024-11-08T13:00:00	3	Temperatura mínima	15.3
114400	7	Sololá	701	Sololá	4	Finca Santa Victoria	6	Junio	2023-06-22T00:00:00	2024-11-08T13:00:00	5	Humedad	96
114401	7	Sololá	701	Sololá	4	Finca Santa Victoria	6	Junio	2023-06-22T00:00:00	2024-11-08T13:00:00	6	Velocidad del viento	1.6
114402	7	Sololá	701	Sololá	4	Finca Santa Victoria	6	Junio	2023-06-22T00:00:00	2024-11-08T13:00:00	7	Dirección del viento	1.61
114403	7	Sololá	701	Sololá	4	Finca Santa Victoria	6	Junio	2023-06-22T00:00:00	2024-11-08T13:00:00	1	Precipitación	0
114404	7	Sololá	701	Sololá	4	Finca Santa Victoria	6	Junio	2023-06-22T00:00:00	2024-11-08T13:00:00	8	Radiación solar	111
114405	7	Sololá	701	Sololá	4	Finca Santa Victoria	6	Junio	2023-06-22T00:00:00	2024-11-08T14:00:00	2	Temperatura media	16.3
114406	7	Sololá	701	Sololá	4	Finca Santa Victoria	6	Junio	2023-06-22T00:00:00	2024-11-08T14:00:00	4	Temperatura máxima	16.4
114407	7	Sololá	701	Sololá	4	Finca Santa Victoria	6	Junio	2023-06-22T00:00:00	2024-11-08T14:00:00	3	Temperatura mínima	15.6
114408	7	Sololá	701	Sololá	4	Finca Santa Victoria	6	Junio	2023-06-22T00:00:00	2024-11-08T14:00:00	5	Humedad	94
114409	7	Sololá	701	Sololá	4	Finca Santa Victoria	6	Junio	2023-06-22T00:00:00	2024-11-08T14:00:00	6	Velocidad del viento	1.6
114410	7	Sololá	701	Sololá	4	Finca Santa Victoria	6	Junio	2023-06-22T00:00:00	2024-11-08T14:00:00	7	Dirección del viento	1.61
114411	7	Sololá	701	Sololá	4	Finca Santa Victoria	6	Junio	2023-06-22T00:00:00	2024-11-08T14:00:00	1	Precipitación	0
114412	7	Sololá	701	Sololá	4	Finca Santa Victoria	6	Junio	2023-06-22T00:00:00	2024-11-08T14:00:00	8	Radiación solar	148
114413	7	Sololá	701	Sololá	4	Finca Santa Victoria	6	Junio	2023-06-22T00:00:00	2024-11-08T15:00:00	2	Temperatura media	15.9
114414	7	Sololá	701	Sololá	4	Finca Santa Victoria	6	Junio	2023-06-22T00:00:00	2024-11-08T15:00:00	4	Temperatura máxima	16.4
114415	7	Sololá	701	Sololá	4	Finca Santa Victoria	6	Junio	2023-06-22T00:00:00	2024-11-08T15:00:00	3	Temperatura mínima	15.9
114416	7	Sololá	701	Sololá	4	Finca Santa Victoria	6	Junio	2023-06-22T00:00:00	2024-11-08T15:00:00	5	Humedad	94
114417	7	Sololá	701	Sololá	4	Finca Santa Victoria	6	Junio	2023-06-22T00:00:00	2024-11-08T15:00:00	6	Velocidad del viento	1.6
114418	7	Sololá	701	Sololá	4	Finca Santa Victoria	6	Junio	2023-06-22T00:00:00	2024-11-08T15:00:00	7	Dirección del viento	1.61
114419	7	Sololá	701	Sololá	4	Finca Santa Victoria	6	Junio	2023-06-22T00:00:00	2024-11-08T15:00:00	1	Precipitación	0
114420	7	Sololá	701	Sololá	4	Finca Santa Victoria	6	Junio	2023-06-22T00:00:00	2024-11-08T15:00:00	8	Radiación solar	121
114421	7	Sololá	701	Sololá	4	Finca Santa Victoria	6	Junio	2023-06-22T00:00:00	2024-11-08T16:00:00	2	Temperatura media	15.9
114422	7	Sololá	701	Sololá	4	Finca Santa Victoria	6	Junio	2023-06-22T00:00:00	2024-11-08T16:00:00	4	Temperatura máxima	16.2
114423	7	Sololá	701	Sololá	4	Finca Santa Victoria	6	Junio	2023-06-22T00:00:00	2024-11-08T16:00:00	3	Temperatura mínima	15.8
114424	7	Sololá	701	Sololá	4	Finca Santa Victoria	6	Junio	2023-06-22T00:00:00	2024-11-08T16:00:00	5	Humedad	95
114425	7	Sololá	701	Sololá	4	Finca Santa Victoria	6	Junio	2023-06-22T00:00:00	2024-11-08T16:00:00	6	Velocidad del viento	1.6
114426	7	Sololá	701	Sololá	4	Finca Santa Victoria	6	Junio	2023-06-22T00:00:00	2024-11-08T16:00:00	7	Dirección del viento	1.61
114427	7	Sololá	701	Sololá	4	Finca Santa Victoria	6	Junio	2023-06-22T00:00:00	2024-11-08T16:00:00	1	Precipitación	0
114428	7	Sololá	701	Sololá	4	Finca Santa Victoria	6	Junio	2023-06-22T00:00:00	2024-11-08T16:00:00	8	Radiación solar	77
114429	7	Sololá	701	Sololá	4	Finca Santa Victoria	6	Junio	2023-06-22T00:00:00	2024-11-08T17:00:00	2	Temperatura media	14.6
114430	7	Sololá	701	Sololá	4	Finca Santa Victoria	6	Junio	2023-06-22T00:00:00	2024-11-08T17:00:00	4	Temperatura máxima	15.9
114431	7	Sololá	701	Sololá	4	Finca Santa Victoria	6	Junio	2023-06-22T00:00:00	2024-11-08T17:00:00	3	Temperatura mínima	14.6
114432	7	Sololá	701	Sololá	4	Finca Santa Victoria	6	Junio	2023-06-22T00:00:00	2024-11-08T17:00:00	5	Humedad	97
114433	7	Sololá	701	Sololá	4	Finca Santa Victoria	6	Junio	2023-06-22T00:00:00	2024-11-08T17:00:00	6	Velocidad del viento	0
114434	7	Sololá	701	Sololá	4	Finca Santa Victoria	6	Junio	2023-06-22T00:00:00	2024-11-08T17:00:00	7	Dirección del viento	0
114435	7	Sololá	701	Sololá	4	Finca Santa Victoria	6	Junio	2023-06-22T00:00:00	2024-11-08T17:00:00	1	Precipitación	22
114436	7	Sololá	701	Sololá	4	Finca Santa Victoria	6	Junio	2023-06-22T00:00:00	2024-11-08T17:00:00	8	Radiación solar	15
114437	7	Sololá	701	Sololá	4	Finca Santa Victoria	6	Junio	2023-06-22T00:00:00	2024-11-08T18:00:00	2	Temperatura media	13.6
114438	7	Sololá	701	Sololá	4	Finca Santa Victoria	6	Junio	2023-06-22T00:00:00	2024-11-08T18:00:00	4	Temperatura máxima	14.6
114439	7	Sololá	701	Sololá	4	Finca Santa Victoria	6	Junio	2023-06-22T00:00:00	2024-11-08T18:00:00	3	Temperatura mínima	13.6
114440	7	Sololá	701	Sololá	4	Finca Santa Victoria	6	Junio	2023-06-22T00:00:00	2024-11-08T18:00:00	5	Humedad	97
114441	7	Sololá	701	Sololá	4	Finca Santa Victoria	6	Junio	2023-06-22T00:00:00	2024-11-08T18:00:00	6	Velocidad del viento	0
114442	7	Sololá	701	Sololá	4	Finca Santa Victoria	6	Junio	2023-06-22T00:00:00	2024-11-08T18:00:00	7	Dirección del viento	0
114443	7	Sololá	701	Sololá	4	Finca Santa Victoria	6	Junio	2023-06-22T00:00:00	2024-11-08T18:00:00	1	Precipitación	9
114444	7	Sololá	701	Sololá	4	Finca Santa Victoria	6	Junio	2023-06-22T00:00:00	2024-11-08T18:00:00	8	Radiación solar	3
114445	7	Sololá	701	Sololá	4	Finca Santa Victoria	6	Junio	2023-06-22T00:00:00	2024-11-08T19:00:00	2	Temperatura media	13.7
114446	7	Sololá	701	Sololá	4	Finca Santa Victoria	6	Junio	2023-06-22T00:00:00	2024-11-08T19:00:00	4	Temperatura máxima	13.7
114447	7	Sololá	701	Sololá	4	Finca Santa Victoria	6	Junio	2023-06-22T00:00:00	2024-11-08T19:00:00	3	Temperatura mínima	13.6
114448	7	Sololá	701	Sololá	4	Finca Santa Victoria	6	Junio	2023-06-22T00:00:00	2024-11-08T19:00:00	5	Humedad	98
114449	7	Sololá	701	Sololá	4	Finca Santa Victoria	6	Junio	2023-06-22T00:00:00	2024-11-08T19:00:00	6	Velocidad del viento	0
114450	7	Sololá	701	Sololá	4	Finca Santa Victoria	6	Junio	2023-06-22T00:00:00	2024-11-08T19:00:00	7	Dirección del viento	0
114451	7	Sololá	701	Sololá	4	Finca Santa Victoria	6	Junio	2023-06-22T00:00:00	2024-11-08T19:00:00	1	Precipitación	4.6
114452	7	Sololá	701	Sololá	4	Finca Santa Victoria	6	Junio	2023-06-22T00:00:00	2024-11-08T19:00:00	8	Radiación solar	0
114453	7	Sololá	701	Sololá	4	Finca Santa Victoria	6	Junio	2023-06-22T00:00:00	2024-11-08T20:00:00	2	Temperatura media	13.7
114454	7	Sololá	701	Sololá	4	Finca Santa Victoria	6	Junio	2023-06-22T00:00:00	2024-11-08T20:00:00	4	Temperatura máxima	13.7
114455	7	Sololá	701	Sololá	4	Finca Santa Victoria	6	Junio	2023-06-22T00:00:00	2024-11-08T20:00:00	3	Temperatura mínima	13.6
114456	7	Sololá	701	Sololá	4	Finca Santa Victoria	6	Junio	2023-06-22T00:00:00	2024-11-08T20:00:00	5	Humedad	98
114457	7	Sololá	701	Sololá	4	Finca Santa Victoria	6	Junio	2023-06-22T00:00:00	2024-11-08T20:00:00	6	Velocidad del viento	0
114458	7	Sololá	701	Sololá	4	Finca Santa Victoria	6	Junio	2023-06-22T00:00:00	2024-11-08T20:00:00	7	Dirección del viento	0
114459	7	Sololá	701	Sololá	4	Finca Santa Victoria	6	Junio	2023-06-22T00:00:00	2024-11-08T20:00:00	1	Precipitación	0.4
114460	7	Sololá	701	Sololá	4	Finca Santa Victoria	6	Junio	2023-06-22T00:00:00	2024-11-08T20:00:00	8	Radiación solar	0
114461	7	Sololá	701	Sololá	4	Finca Santa Victoria	6	Junio	2023-06-22T00:00:00	2024-11-08T21:00:00	2	Temperatura media	13.6
114462	7	Sololá	701	Sololá	4	Finca Santa Victoria	6	Junio	2023-06-22T00:00:00	2024-11-08T21:00:00	4	Temperatura máxima	13.7
114463	7	Sololá	701	Sololá	4	Finca Santa Victoria	6	Junio	2023-06-22T00:00:00	2024-11-08T21:00:00	3	Temperatura mínima	13.6
114464	7	Sololá	701	Sololá	4	Finca Santa Victoria	6	Junio	2023-06-22T00:00:00	2024-11-08T21:00:00	5	Humedad	98
114465	7	Sololá	701	Sololá	4	Finca Santa Victoria	6	Junio	2023-06-22T00:00:00	2024-11-08T21:00:00	6	Velocidad del viento	0
114466	7	Sololá	701	Sololá	4	Finca Santa Victoria	6	Junio	2023-06-22T00:00:00	2024-11-08T21:00:00	7	Dirección del viento	0
114467	7	Sololá	701	Sololá	4	Finca Santa Victoria	6	Junio	2023-06-22T00:00:00	2024-11-08T21:00:00	1	Precipitación	0
114468	7	Sololá	701	Sololá	4	Finca Santa Victoria	6	Junio	2023-06-22T00:00:00	2024-11-08T21:00:00	8	Radiación solar	0
114469	7	Sololá	701	Sololá	4	Finca Santa Victoria	6	Junio	2023-06-22T00:00:00	2024-11-08T22:00:00	2	Temperatura media	13.7
114470	7	Sololá	701	Sololá	4	Finca Santa Victoria	6	Junio	2023-06-22T00:00:00	2024-11-08T22:00:00	4	Temperatura máxima	13.7
114471	7	Sololá	701	Sololá	4	Finca Santa Victoria	6	Junio	2023-06-22T00:00:00	2024-11-08T22:00:00	3	Temperatura mínima	13.4
114472	7	Sololá	701	Sololá	4	Finca Santa Victoria	6	Junio	2023-06-22T00:00:00	2024-11-08T22:00:00	5	Humedad	98
114473	7	Sololá	701	Sololá	4	Finca Santa Victoria	6	Junio	2023-06-22T00:00:00	2024-11-08T22:00:00	6	Velocidad del viento	0
114474	7	Sololá	701	Sololá	4	Finca Santa Victoria	6	Junio	2023-06-22T00:00:00	2024-11-08T22:00:00	7	Dirección del viento	0
114475	7	Sololá	701	Sololá	4	Finca Santa Victoria	6	Junio	2023-06-22T00:00:00	2024-11-08T22:00:00	1	Precipitación	0
114476	7	Sololá	701	Sololá	4	Finca Santa Victoria	6	Junio	2023-06-22T00:00:00	2024-11-08T22:00:00	8	Radiación solar	0
114477	7	Sololá	701	Sololá	4	Finca Santa Victoria	6	Junio	2023-06-22T00:00:00	2024-11-08T23:00:00	2	Temperatura media	13.6
114478	7	Sololá	701	Sololá	4	Finca Santa Victoria	6	Junio	2023-06-22T00:00:00	2024-11-08T23:00:00	4	Temperatura máxima	13.8
114479	7	Sololá	701	Sololá	4	Finca Santa Victoria	6	Junio	2023-06-22T00:00:00	2024-11-08T23:00:00	3	Temperatura mínima	13.6
114480	7	Sololá	701	Sololá	4	Finca Santa Victoria	6	Junio	2023-06-22T00:00:00	2024-11-08T23:00:00	5	Humedad	98
114481	7	Sololá	701	Sololá	4	Finca Santa Victoria	6	Junio	2023-06-22T00:00:00	2024-11-08T23:00:00	6	Velocidad del viento	0
114482	7	Sololá	701	Sololá	4	Finca Santa Victoria	6	Junio	2023-06-22T00:00:00	2024-11-08T23:00:00	7	Dirección del viento	0
114483	7	Sololá	701	Sololá	4	Finca Santa Victoria	6	Junio	2023-06-22T00:00:00	2024-11-08T23:00:00	1	Precipitación	0
114484	7	Sololá	701	Sololá	4	Finca Santa Victoria	6	Junio	2023-06-22T00:00:00	2024-11-08T23:00:00	8	Radiación solar	0
114485	7	Sololá	701	Sololá	4	Finca Santa Victoria	6	Junio	2023-06-23T00:00:00	2024-11-08T00:00:00	2	Temperatura media	13.6
114486	7	Sololá	701	Sololá	4	Finca Santa Victoria	6	Junio	2023-06-23T00:00:00	2024-11-08T00:00:00	4	Temperatura máxima	13.7
114487	7	Sololá	701	Sololá	4	Finca Santa Victoria	6	Junio	2023-06-23T00:00:00	2024-11-08T00:00:00	3	Temperatura mínima	13.6
114488	7	Sololá	701	Sololá	4	Finca Santa Victoria	6	Junio	2023-06-23T00:00:00	2024-11-08T00:00:00	5	Humedad	99
114489	7	Sololá	701	Sololá	4	Finca Santa Victoria	6	Junio	2023-06-23T00:00:00	2024-11-08T00:00:00	6	Velocidad del viento	0
114490	7	Sololá	701	Sololá	4	Finca Santa Victoria	6	Junio	2023-06-23T00:00:00	2024-11-08T00:00:00	7	Dirección del viento	0
114491	7	Sololá	701	Sololá	4	Finca Santa Victoria	6	Junio	2023-06-23T00:00:00	2024-11-08T00:00:00	1	Precipitación	0
114492	7	Sololá	701	Sololá	4	Finca Santa Victoria	6	Junio	2023-06-23T00:00:00	2024-11-08T00:00:00	8	Radiación solar	0
114493	7	Sololá	701	Sololá	4	Finca Santa Victoria	6	Junio	2023-06-23T00:00:00	2024-11-08T01:00:00	2	Temperatura media	13.2
114494	7	Sololá	701	Sololá	4	Finca Santa Victoria	6	Junio	2023-06-23T00:00:00	2024-11-08T01:00:00	4	Temperatura máxima	13.6
114495	7	Sololá	701	Sololá	4	Finca Santa Victoria	6	Junio	2023-06-23T00:00:00	2024-11-08T01:00:00	3	Temperatura mínima	13.2
114496	7	Sololá	701	Sololá	4	Finca Santa Victoria	6	Junio	2023-06-23T00:00:00	2024-11-08T01:00:00	5	Humedad	98
114497	7	Sololá	701	Sololá	4	Finca Santa Victoria	6	Junio	2023-06-23T00:00:00	2024-11-08T01:00:00	6	Velocidad del viento	0
114498	7	Sololá	701	Sololá	4	Finca Santa Victoria	6	Junio	2023-06-23T00:00:00	2024-11-08T01:00:00	7	Dirección del viento	0
114499	7	Sololá	701	Sololá	4	Finca Santa Victoria	6	Junio	2023-06-23T00:00:00	2024-11-08T01:00:00	1	Precipitación	0
114500	7	Sololá	701	Sololá	4	Finca Santa Victoria	6	Junio	2023-06-23T00:00:00	2024-11-08T01:00:00	8	Radiación solar	0
114501	7	Sololá	701	Sololá	4	Finca Santa Victoria	6	Junio	2023-06-23T00:00:00	2024-11-08T02:00:00	2	Temperatura media	12.9
114502	7	Sololá	701	Sololá	4	Finca Santa Victoria	6	Junio	2023-06-23T00:00:00	2024-11-08T02:00:00	4	Temperatura máxima	13.2
114503	7	Sololá	701	Sololá	4	Finca Santa Victoria	6	Junio	2023-06-23T00:00:00	2024-11-08T02:00:00	3	Temperatura mínima	12.8
114504	7	Sololá	701	Sololá	4	Finca Santa Victoria	6	Junio	2023-06-23T00:00:00	2024-11-08T02:00:00	5	Humedad	98
114505	7	Sololá	701	Sololá	4	Finca Santa Victoria	6	Junio	2023-06-23T00:00:00	2024-11-08T02:00:00	6	Velocidad del viento	0
114506	7	Sololá	701	Sololá	4	Finca Santa Victoria	6	Junio	2023-06-23T00:00:00	2024-11-08T02:00:00	7	Dirección del viento	0
114507	7	Sololá	701	Sololá	4	Finca Santa Victoria	6	Junio	2023-06-23T00:00:00	2024-11-08T02:00:00	1	Precipitación	0
114508	7	Sololá	701	Sololá	4	Finca Santa Victoria	6	Junio	2023-06-23T00:00:00	2024-11-08T02:00:00	8	Radiación solar	0
114509	7	Sololá	701	Sololá	4	Finca Santa Victoria	6	Junio	2023-06-23T00:00:00	2024-11-08T03:00:00	2	Temperatura media	13
114510	7	Sololá	701	Sololá	4	Finca Santa Victoria	6	Junio	2023-06-23T00:00:00	2024-11-08T03:00:00	4	Temperatura máxima	13.1
114511	7	Sololá	701	Sololá	4	Finca Santa Victoria	6	Junio	2023-06-23T00:00:00	2024-11-08T03:00:00	3	Temperatura mínima	12.8
114512	7	Sololá	701	Sololá	4	Finca Santa Victoria	6	Junio	2023-06-23T00:00:00	2024-11-08T03:00:00	5	Humedad	99
114513	7	Sololá	701	Sololá	4	Finca Santa Victoria	6	Junio	2023-06-23T00:00:00	2024-11-08T03:00:00	6	Velocidad del viento	0
114514	7	Sololá	701	Sololá	4	Finca Santa Victoria	6	Junio	2023-06-23T00:00:00	2024-11-08T03:00:00	7	Dirección del viento	0
114515	7	Sololá	701	Sololá	4	Finca Santa Victoria	6	Junio	2023-06-23T00:00:00	2024-11-08T03:00:00	1	Precipitación	0
114516	7	Sololá	701	Sololá	4	Finca Santa Victoria	6	Junio	2023-06-23T00:00:00	2024-11-08T03:00:00	8	Radiación solar	0
114517	7	Sololá	701	Sololá	4	Finca Santa Victoria	6	Junio	2023-06-23T00:00:00	2024-11-08T04:00:00	2	Temperatura media	12.8
114518	7	Sololá	701	Sololá	4	Finca Santa Victoria	6	Junio	2023-06-23T00:00:00	2024-11-08T04:00:00	4	Temperatura máxima	13
114519	7	Sololá	701	Sololá	4	Finca Santa Victoria	6	Junio	2023-06-23T00:00:00	2024-11-08T04:00:00	3	Temperatura mínima	12.7
114520	7	Sololá	701	Sololá	4	Finca Santa Victoria	6	Junio	2023-06-23T00:00:00	2024-11-08T04:00:00	5	Humedad	99
114521	7	Sololá	701	Sololá	4	Finca Santa Victoria	6	Junio	2023-06-23T00:00:00	2024-11-08T04:00:00	6	Velocidad del viento	0
114522	7	Sololá	701	Sololá	4	Finca Santa Victoria	6	Junio	2023-06-23T00:00:00	2024-11-08T04:00:00	7	Dirección del viento	0
114523	7	Sololá	701	Sololá	4	Finca Santa Victoria	6	Junio	2023-06-23T00:00:00	2024-11-08T04:00:00	1	Precipitación	0
114524	7	Sololá	701	Sololá	4	Finca Santa Victoria	6	Junio	2023-06-23T00:00:00	2024-11-08T04:00:00	8	Radiación solar	0
114525	7	Sololá	701	Sololá	4	Finca Santa Victoria	6	Junio	2023-06-23T00:00:00	2024-11-08T05:00:00	2	Temperatura media	12.5
114526	7	Sololá	701	Sololá	4	Finca Santa Victoria	6	Junio	2023-06-23T00:00:00	2024-11-08T05:00:00	4	Temperatura máxima	12.8
114527	7	Sololá	701	Sololá	4	Finca Santa Victoria	6	Junio	2023-06-23T00:00:00	2024-11-08T05:00:00	3	Temperatura mínima	12.3
114528	7	Sololá	701	Sololá	4	Finca Santa Victoria	6	Junio	2023-06-23T00:00:00	2024-11-08T05:00:00	5	Humedad	99
114529	7	Sololá	701	Sololá	4	Finca Santa Victoria	6	Junio	2023-06-23T00:00:00	2024-11-08T05:00:00	6	Velocidad del viento	0
114530	7	Sololá	701	Sololá	4	Finca Santa Victoria	6	Junio	2023-06-23T00:00:00	2024-11-08T05:00:00	7	Dirección del viento	0
114531	7	Sololá	701	Sololá	4	Finca Santa Victoria	6	Junio	2023-06-23T00:00:00	2024-11-08T05:00:00	1	Precipitación	0
114532	7	Sololá	701	Sololá	4	Finca Santa Victoria	6	Junio	2023-06-23T00:00:00	2024-11-08T05:00:00	8	Radiación solar	0
114533	7	Sololá	701	Sololá	4	Finca Santa Victoria	6	Junio	2023-06-23T00:00:00	2024-11-08T06:00:00	2	Temperatura media	12.3
114534	7	Sololá	701	Sololá	4	Finca Santa Victoria	6	Junio	2023-06-23T00:00:00	2024-11-08T06:00:00	4	Temperatura máxima	12.6
114535	7	Sololá	701	Sololá	4	Finca Santa Victoria	6	Junio	2023-06-23T00:00:00	2024-11-08T06:00:00	3	Temperatura mínima	12.3
114536	7	Sololá	701	Sololá	4	Finca Santa Victoria	6	Junio	2023-06-23T00:00:00	2024-11-08T06:00:00	5	Humedad	98
114537	7	Sololá	701	Sololá	4	Finca Santa Victoria	6	Junio	2023-06-23T00:00:00	2024-11-08T06:00:00	6	Velocidad del viento	0
114538	7	Sololá	701	Sololá	4	Finca Santa Victoria	6	Junio	2023-06-23T00:00:00	2024-11-08T06:00:00	7	Dirección del viento	0
114539	7	Sololá	701	Sololá	4	Finca Santa Victoria	6	Junio	2023-06-23T00:00:00	2024-11-08T06:00:00	1	Precipitación	0
114540	7	Sololá	701	Sololá	4	Finca Santa Victoria	6	Junio	2023-06-23T00:00:00	2024-11-08T06:00:00	8	Radiación solar	1
114541	7	Sololá	701	Sololá	4	Finca Santa Victoria	6	Junio	2023-06-23T00:00:00	2024-11-08T07:00:00	2	Temperatura media	12.5
114542	7	Sololá	701	Sololá	4	Finca Santa Victoria	6	Junio	2023-06-23T00:00:00	2024-11-08T07:00:00	4	Temperatura máxima	12.6
114543	7	Sololá	701	Sololá	4	Finca Santa Victoria	6	Junio	2023-06-23T00:00:00	2024-11-08T07:00:00	3	Temperatura mínima	12.2
114544	7	Sololá	701	Sololá	4	Finca Santa Victoria	6	Junio	2023-06-23T00:00:00	2024-11-08T07:00:00	5	Humedad	99
114545	7	Sololá	701	Sololá	4	Finca Santa Victoria	6	Junio	2023-06-23T00:00:00	2024-11-08T07:00:00	6	Velocidad del viento	0
114546	7	Sololá	701	Sololá	4	Finca Santa Victoria	6	Junio	2023-06-23T00:00:00	2024-11-08T07:00:00	7	Dirección del viento	0
114547	7	Sololá	701	Sololá	4	Finca Santa Victoria	6	Junio	2023-06-23T00:00:00	2024-11-08T07:00:00	1	Precipitación	0
114548	7	Sololá	701	Sololá	4	Finca Santa Victoria	6	Junio	2023-06-23T00:00:00	2024-11-08T07:00:00	8	Radiación solar	21
114549	7	Sololá	701	Sololá	4	Finca Santa Victoria	6	Junio	2023-06-23T00:00:00	2024-11-08T08:00:00	2	Temperatura media	14.1
114550	7	Sololá	701	Sololá	4	Finca Santa Victoria	6	Junio	2023-06-23T00:00:00	2024-11-08T08:00:00	4	Temperatura máxima	14.1
114551	7	Sololá	701	Sololá	4	Finca Santa Victoria	6	Junio	2023-06-23T00:00:00	2024-11-08T08:00:00	3	Temperatura mínima	12.4
114552	7	Sololá	701	Sololá	4	Finca Santa Victoria	6	Junio	2023-06-23T00:00:00	2024-11-08T08:00:00	5	Humedad	96
114553	7	Sololá	701	Sololá	4	Finca Santa Victoria	6	Junio	2023-06-23T00:00:00	2024-11-08T08:00:00	6	Velocidad del viento	1.6
114554	7	Sololá	701	Sololá	4	Finca Santa Victoria	6	Junio	2023-06-23T00:00:00	2024-11-08T08:00:00	7	Dirección del viento	1.61
114555	7	Sololá	701	Sololá	4	Finca Santa Victoria	6	Junio	2023-06-23T00:00:00	2024-11-08T08:00:00	1	Precipitación	0
114556	7	Sololá	701	Sololá	4	Finca Santa Victoria	6	Junio	2023-06-23T00:00:00	2024-11-08T08:00:00	8	Radiación solar	158
114557	7	Sololá	701	Sololá	4	Finca Santa Victoria	6	Junio	2023-06-23T00:00:00	2024-11-08T09:00:00	2	Temperatura media	15.8
114558	7	Sololá	701	Sololá	4	Finca Santa Victoria	6	Junio	2023-06-23T00:00:00	2024-11-08T09:00:00	4	Temperatura máxima	15.9
114559	7	Sololá	701	Sololá	4	Finca Santa Victoria	6	Junio	2023-06-23T00:00:00	2024-11-08T09:00:00	3	Temperatura mínima	14.1
114560	7	Sololá	701	Sololá	4	Finca Santa Victoria	6	Junio	2023-06-23T00:00:00	2024-11-08T09:00:00	5	Humedad	93
114561	7	Sololá	701	Sololá	4	Finca Santa Victoria	6	Junio	2023-06-23T00:00:00	2024-11-08T09:00:00	6	Velocidad del viento	1.6
114562	7	Sololá	701	Sololá	4	Finca Santa Victoria	6	Junio	2023-06-23T00:00:00	2024-11-08T09:00:00	7	Dirección del viento	1.61
114563	7	Sololá	701	Sololá	4	Finca Santa Victoria	6	Junio	2023-06-23T00:00:00	2024-11-08T09:00:00	1	Precipitación	0
114564	7	Sololá	701	Sololá	4	Finca Santa Victoria	6	Junio	2023-06-23T00:00:00	2024-11-08T09:00:00	8	Radiación solar	286
114565	7	Sololá	701	Sololá	4	Finca Santa Victoria	6	Junio	2023-06-23T00:00:00	2024-11-08T10:00:00	2	Temperatura media	17.9
114566	7	Sololá	701	Sololá	4	Finca Santa Victoria	6	Junio	2023-06-23T00:00:00	2024-11-08T10:00:00	4	Temperatura máxima	18
114567	7	Sololá	701	Sololá	4	Finca Santa Victoria	6	Junio	2023-06-23T00:00:00	2024-11-08T10:00:00	3	Temperatura mínima	15.8
114568	7	Sololá	701	Sololá	4	Finca Santa Victoria	6	Junio	2023-06-23T00:00:00	2024-11-08T10:00:00	5	Humedad	82
114569	7	Sololá	701	Sololá	4	Finca Santa Victoria	6	Junio	2023-06-23T00:00:00	2024-11-08T10:00:00	6	Velocidad del viento	3.2
114570	7	Sololá	701	Sololá	4	Finca Santa Victoria	6	Junio	2023-06-23T00:00:00	2024-11-08T10:00:00	7	Dirección del viento	3.22
114571	7	Sololá	701	Sololá	4	Finca Santa Victoria	6	Junio	2023-06-23T00:00:00	2024-11-08T10:00:00	1	Precipitación	0
114572	7	Sololá	701	Sololá	4	Finca Santa Victoria	6	Junio	2023-06-23T00:00:00	2024-11-08T10:00:00	8	Radiación solar	255
114573	7	Sololá	701	Sololá	4	Finca Santa Victoria	6	Junio	2023-06-23T00:00:00	2024-11-08T11:00:00	2	Temperatura media	18
114574	7	Sololá	701	Sololá	4	Finca Santa Victoria	6	Junio	2023-06-23T00:00:00	2024-11-08T11:00:00	4	Temperatura máxima	19.2
114575	7	Sololá	701	Sololá	4	Finca Santa Victoria	6	Junio	2023-06-23T00:00:00	2024-11-08T11:00:00	3	Temperatura mínima	18
114576	7	Sololá	701	Sololá	4	Finca Santa Victoria	6	Junio	2023-06-23T00:00:00	2024-11-08T11:00:00	5	Humedad	86
114577	7	Sololá	701	Sololá	4	Finca Santa Victoria	6	Junio	2023-06-23T00:00:00	2024-11-08T11:00:00	6	Velocidad del viento	1.6
114578	7	Sololá	701	Sololá	4	Finca Santa Victoria	6	Junio	2023-06-23T00:00:00	2024-11-08T11:00:00	7	Dirección del viento	1.61
114579	7	Sololá	701	Sololá	4	Finca Santa Victoria	6	Junio	2023-06-23T00:00:00	2024-11-08T11:00:00	1	Precipitación	0
114580	7	Sololá	701	Sololá	4	Finca Santa Victoria	6	Junio	2023-06-23T00:00:00	2024-11-08T11:00:00	8	Radiación solar	339
114581	7	Sololá	701	Sololá	4	Finca Santa Victoria	6	Junio	2023-06-23T00:00:00	2024-11-08T12:00:00	2	Temperatura media	17.1
114582	7	Sololá	701	Sololá	4	Finca Santa Victoria	6	Junio	2023-06-23T00:00:00	2024-11-08T12:00:00	4	Temperatura máxima	18
114583	7	Sololá	701	Sololá	4	Finca Santa Victoria	6	Junio	2023-06-23T00:00:00	2024-11-08T12:00:00	3	Temperatura mínima	17.1
114584	7	Sololá	701	Sololá	4	Finca Santa Victoria	6	Junio	2023-06-23T00:00:00	2024-11-08T12:00:00	5	Humedad	88
114585	7	Sololá	701	Sololá	4	Finca Santa Victoria	6	Junio	2023-06-23T00:00:00	2024-11-08T12:00:00	6	Velocidad del viento	3.2
114586	7	Sololá	701	Sololá	4	Finca Santa Victoria	6	Junio	2023-06-23T00:00:00	2024-11-08T12:00:00	7	Dirección del viento	3.22
114587	7	Sololá	701	Sololá	4	Finca Santa Victoria	6	Junio	2023-06-23T00:00:00	2024-11-08T12:00:00	1	Precipitación	0
114588	7	Sololá	701	Sololá	4	Finca Santa Victoria	6	Junio	2023-06-23T00:00:00	2024-11-08T12:00:00	8	Radiación solar	314
114589	7	Sololá	701	Sololá	4	Finca Santa Victoria	6	Junio	2023-06-23T00:00:00	2024-11-08T13:00:00	2	Temperatura media	15.8
114590	7	Sololá	701	Sololá	4	Finca Santa Victoria	6	Junio	2023-06-23T00:00:00	2024-11-08T13:00:00	4	Temperatura máxima	17.1
114591	7	Sololá	701	Sololá	4	Finca Santa Victoria	6	Junio	2023-06-23T00:00:00	2024-11-08T13:00:00	3	Temperatura mínima	15.8
114592	7	Sololá	701	Sololá	4	Finca Santa Victoria	6	Junio	2023-06-23T00:00:00	2024-11-08T13:00:00	5	Humedad	94
114593	7	Sololá	701	Sololá	4	Finca Santa Victoria	6	Junio	2023-06-23T00:00:00	2024-11-08T13:00:00	6	Velocidad del viento	1.6
114594	7	Sololá	701	Sololá	4	Finca Santa Victoria	6	Junio	2023-06-23T00:00:00	2024-11-08T13:00:00	7	Dirección del viento	1.61
114595	7	Sololá	701	Sololá	4	Finca Santa Victoria	6	Junio	2023-06-23T00:00:00	2024-11-08T13:00:00	1	Precipitación	4.2
114596	7	Sololá	701	Sololá	4	Finca Santa Victoria	6	Junio	2023-06-23T00:00:00	2024-11-08T13:00:00	8	Radiación solar	100
114597	7	Sololá	701	Sololá	4	Finca Santa Victoria	6	Junio	2023-06-23T00:00:00	2024-11-08T14:00:00	2	Temperatura media	15.9
114598	7	Sololá	701	Sololá	4	Finca Santa Victoria	6	Junio	2023-06-23T00:00:00	2024-11-08T14:00:00	4	Temperatura máxima	16.1
114599	7	Sololá	701	Sololá	4	Finca Santa Victoria	6	Junio	2023-06-23T00:00:00	2024-11-08T14:00:00	3	Temperatura mínima	15.2
114600	7	Sololá	701	Sololá	4	Finca Santa Victoria	6	Junio	2023-06-23T00:00:00	2024-11-08T14:00:00	5	Humedad	94
114601	7	Sololá	701	Sololá	4	Finca Santa Victoria	6	Junio	2023-06-23T00:00:00	2024-11-08T14:00:00	6	Velocidad del viento	0
114602	7	Sololá	701	Sololá	4	Finca Santa Victoria	6	Junio	2023-06-23T00:00:00	2024-11-08T14:00:00	7	Dirección del viento	0
114603	7	Sololá	701	Sololá	4	Finca Santa Victoria	6	Junio	2023-06-23T00:00:00	2024-11-08T14:00:00	1	Precipitación	4
114604	7	Sololá	701	Sololá	4	Finca Santa Victoria	6	Junio	2023-06-23T00:00:00	2024-11-08T14:00:00	8	Radiación solar	115
114605	7	Sololá	701	Sololá	4	Finca Santa Victoria	6	Junio	2023-06-23T00:00:00	2024-11-08T15:00:00	2	Temperatura media	14.9
114606	7	Sololá	701	Sololá	4	Finca Santa Victoria	6	Junio	2023-06-23T00:00:00	2024-11-08T15:00:00	4	Temperatura máxima	15.9
114607	7	Sololá	701	Sololá	4	Finca Santa Victoria	6	Junio	2023-06-23T00:00:00	2024-11-08T15:00:00	3	Temperatura mínima	14.9
114608	7	Sololá	701	Sololá	4	Finca Santa Victoria	6	Junio	2023-06-23T00:00:00	2024-11-08T15:00:00	5	Humedad	96
114609	7	Sololá	701	Sololá	4	Finca Santa Victoria	6	Junio	2023-06-23T00:00:00	2024-11-08T15:00:00	6	Velocidad del viento	0
114610	7	Sololá	701	Sololá	4	Finca Santa Victoria	6	Junio	2023-06-23T00:00:00	2024-11-08T15:00:00	7	Dirección del viento	0
114611	7	Sololá	701	Sololá	4	Finca Santa Victoria	6	Junio	2023-06-23T00:00:00	2024-11-08T15:00:00	1	Precipitación	0.2
114612	7	Sololá	701	Sololá	4	Finca Santa Victoria	6	Junio	2023-06-23T00:00:00	2024-11-08T15:00:00	8	Radiación solar	55
114613	7	Sololá	701	Sololá	4	Finca Santa Victoria	6	Junio	2023-06-23T00:00:00	2024-11-08T16:00:00	2	Temperatura media	14.7
114614	7	Sololá	701	Sololá	4	Finca Santa Victoria	6	Junio	2023-06-23T00:00:00	2024-11-08T16:00:00	4	Temperatura máxima	15
114615	7	Sololá	701	Sololá	4	Finca Santa Victoria	6	Junio	2023-06-23T00:00:00	2024-11-08T16:00:00	3	Temperatura mínima	14.7
114616	7	Sololá	701	Sololá	4	Finca Santa Victoria	6	Junio	2023-06-23T00:00:00	2024-11-08T16:00:00	5	Humedad	96
114617	7	Sololá	701	Sololá	4	Finca Santa Victoria	6	Junio	2023-06-23T00:00:00	2024-11-08T16:00:00	6	Velocidad del viento	0
114618	7	Sololá	701	Sololá	4	Finca Santa Victoria	6	Junio	2023-06-23T00:00:00	2024-11-08T16:00:00	7	Dirección del viento	0
114619	7	Sololá	701	Sololá	4	Finca Santa Victoria	6	Junio	2023-06-23T00:00:00	2024-11-08T16:00:00	1	Precipitación	0.4
114620	7	Sololá	701	Sololá	4	Finca Santa Victoria	6	Junio	2023-06-23T00:00:00	2024-11-08T16:00:00	8	Radiación solar	65
114621	7	Sololá	701	Sololá	4	Finca Santa Victoria	6	Junio	2023-06-23T00:00:00	2024-11-08T17:00:00	2	Temperatura media	14.2
114622	7	Sololá	701	Sololá	4	Finca Santa Victoria	6	Junio	2023-06-23T00:00:00	2024-11-08T17:00:00	4	Temperatura máxima	14.7
114623	7	Sololá	701	Sololá	4	Finca Santa Victoria	6	Junio	2023-06-23T00:00:00	2024-11-08T17:00:00	3	Temperatura mínima	14.2
114624	7	Sololá	701	Sololá	4	Finca Santa Victoria	6	Junio	2023-06-23T00:00:00	2024-11-08T17:00:00	5	Humedad	98
114625	7	Sololá	701	Sololá	4	Finca Santa Victoria	6	Junio	2023-06-23T00:00:00	2024-11-08T17:00:00	6	Velocidad del viento	0
114626	7	Sololá	701	Sololá	4	Finca Santa Victoria	6	Junio	2023-06-23T00:00:00	2024-11-08T17:00:00	7	Dirección del viento	0
114627	7	Sololá	701	Sololá	4	Finca Santa Victoria	6	Junio	2023-06-23T00:00:00	2024-11-08T17:00:00	1	Precipitación	2.6
114628	7	Sololá	701	Sololá	4	Finca Santa Victoria	6	Junio	2023-06-23T00:00:00	2024-11-08T17:00:00	8	Radiación solar	2
114629	7	Sololá	701	Sololá	4	Finca Santa Victoria	6	Junio	2023-06-23T00:00:00	2024-11-08T18:00:00	2	Temperatura media	13.6
114630	7	Sololá	701	Sololá	4	Finca Santa Victoria	6	Junio	2023-06-23T00:00:00	2024-11-08T18:00:00	4	Temperatura máxima	14.2
114631	7	Sololá	701	Sololá	4	Finca Santa Victoria	6	Junio	2023-06-23T00:00:00	2024-11-08T18:00:00	3	Temperatura mínima	13.5
114632	7	Sololá	701	Sololá	4	Finca Santa Victoria	6	Junio	2023-06-23T00:00:00	2024-11-08T18:00:00	5	Humedad	98
114633	7	Sololá	701	Sololá	4	Finca Santa Victoria	6	Junio	2023-06-23T00:00:00	2024-11-08T18:00:00	6	Velocidad del viento	0
114634	7	Sololá	701	Sololá	4	Finca Santa Victoria	6	Junio	2023-06-23T00:00:00	2024-11-08T18:00:00	7	Dirección del viento	0
114635	7	Sololá	701	Sololá	4	Finca Santa Victoria	6	Junio	2023-06-23T00:00:00	2024-11-08T18:00:00	1	Precipitación	4.8
114636	7	Sololá	701	Sololá	4	Finca Santa Victoria	6	Junio	2023-06-23T00:00:00	2024-11-08T18:00:00	8	Radiación solar	0
114637	7	Sololá	701	Sololá	4	Finca Santa Victoria	6	Junio	2023-06-23T00:00:00	2024-11-08T19:00:00	2	Temperatura media	13.1
114638	7	Sololá	701	Sololá	4	Finca Santa Victoria	6	Junio	2023-06-23T00:00:00	2024-11-08T19:00:00	4	Temperatura máxima	13.6
114639	7	Sololá	701	Sololá	4	Finca Santa Victoria	6	Junio	2023-06-23T00:00:00	2024-11-08T19:00:00	3	Temperatura mínima	13.1
114640	7	Sololá	701	Sololá	4	Finca Santa Victoria	6	Junio	2023-06-23T00:00:00	2024-11-08T19:00:00	5	Humedad	98
114641	7	Sololá	701	Sololá	4	Finca Santa Victoria	6	Junio	2023-06-23T00:00:00	2024-11-08T19:00:00	6	Velocidad del viento	0
114642	7	Sololá	701	Sololá	4	Finca Santa Victoria	6	Junio	2023-06-23T00:00:00	2024-11-08T19:00:00	7	Dirección del viento	0
114643	7	Sololá	701	Sololá	4	Finca Santa Victoria	6	Junio	2023-06-23T00:00:00	2024-11-08T19:00:00	1	Precipitación	1
114644	7	Sololá	701	Sololá	4	Finca Santa Victoria	6	Junio	2023-06-23T00:00:00	2024-11-08T19:00:00	8	Radiación solar	0
114645	7	Sololá	701	Sololá	4	Finca Santa Victoria	6	Junio	2023-06-23T00:00:00	2024-11-08T20:00:00	2	Temperatura media	12.9
114646	7	Sololá	701	Sololá	4	Finca Santa Victoria	6	Junio	2023-06-23T00:00:00	2024-11-08T20:00:00	4	Temperatura máxima	13.1
114647	7	Sololá	701	Sololá	4	Finca Santa Victoria	6	Junio	2023-06-23T00:00:00	2024-11-08T20:00:00	3	Temperatura mínima	12.9
114648	7	Sololá	701	Sololá	4	Finca Santa Victoria	6	Junio	2023-06-23T00:00:00	2024-11-08T20:00:00	5	Humedad	98
114649	7	Sololá	701	Sololá	4	Finca Santa Victoria	6	Junio	2023-06-23T00:00:00	2024-11-08T20:00:00	6	Velocidad del viento	0
114650	7	Sololá	701	Sololá	4	Finca Santa Victoria	6	Junio	2023-06-23T00:00:00	2024-11-08T20:00:00	7	Dirección del viento	0
114651	7	Sololá	701	Sololá	4	Finca Santa Victoria	6	Junio	2023-06-23T00:00:00	2024-11-08T20:00:00	1	Precipitación	0.2
114652	7	Sololá	701	Sololá	4	Finca Santa Victoria	6	Junio	2023-06-23T00:00:00	2024-11-08T20:00:00	8	Radiación solar	0
114653	7	Sololá	701	Sololá	4	Finca Santa Victoria	6	Junio	2023-06-23T00:00:00	2024-11-08T21:00:00	2	Temperatura media	12.8
114654	7	Sololá	701	Sololá	4	Finca Santa Victoria	6	Junio	2023-06-23T00:00:00	2024-11-08T21:00:00	4	Temperatura máxima	12.9
114655	7	Sololá	701	Sololá	4	Finca Santa Victoria	6	Junio	2023-06-23T00:00:00	2024-11-08T21:00:00	3	Temperatura mínima	12.8
114656	7	Sololá	701	Sololá	4	Finca Santa Victoria	6	Junio	2023-06-23T00:00:00	2024-11-08T21:00:00	5	Humedad	98
114657	7	Sololá	701	Sololá	4	Finca Santa Victoria	6	Junio	2023-06-23T00:00:00	2024-11-08T21:00:00	6	Velocidad del viento	0
114658	7	Sololá	701	Sololá	4	Finca Santa Victoria	6	Junio	2023-06-23T00:00:00	2024-11-08T21:00:00	7	Dirección del viento	0
114659	7	Sololá	701	Sololá	4	Finca Santa Victoria	6	Junio	2023-06-23T00:00:00	2024-11-08T21:00:00	1	Precipitación	0
114660	7	Sololá	701	Sololá	4	Finca Santa Victoria	6	Junio	2023-06-23T00:00:00	2024-11-08T21:00:00	8	Radiación solar	0
114661	7	Sololá	701	Sololá	4	Finca Santa Victoria	6	Junio	2023-06-23T00:00:00	2024-11-08T22:00:00	2	Temperatura media	13
114662	7	Sololá	701	Sololá	4	Finca Santa Victoria	6	Junio	2023-06-23T00:00:00	2024-11-08T22:00:00	4	Temperatura máxima	13
114663	7	Sololá	701	Sololá	4	Finca Santa Victoria	6	Junio	2023-06-23T00:00:00	2024-11-08T22:00:00	3	Temperatura mínima	12.7
114664	7	Sololá	701	Sololá	4	Finca Santa Victoria	6	Junio	2023-06-23T00:00:00	2024-11-08T22:00:00	5	Humedad	98
114665	7	Sololá	701	Sololá	4	Finca Santa Victoria	6	Junio	2023-06-23T00:00:00	2024-11-08T22:00:00	6	Velocidad del viento	0
114666	7	Sololá	701	Sololá	4	Finca Santa Victoria	6	Junio	2023-06-23T00:00:00	2024-11-08T22:00:00	7	Dirección del viento	0
114667	7	Sololá	701	Sololá	4	Finca Santa Victoria	6	Junio	2023-06-23T00:00:00	2024-11-08T22:00:00	1	Precipitación	0
114668	7	Sololá	701	Sololá	4	Finca Santa Victoria	6	Junio	2023-06-23T00:00:00	2024-11-08T22:00:00	8	Radiación solar	0
114669	7	Sololá	701	Sololá	4	Finca Santa Victoria	6	Junio	2023-06-23T00:00:00	2024-11-08T23:00:00	2	Temperatura media	12.8
114670	7	Sololá	701	Sololá	4	Finca Santa Victoria	6	Junio	2023-06-23T00:00:00	2024-11-08T23:00:00	4	Temperatura máxima	13.2
114671	7	Sololá	701	Sololá	4	Finca Santa Victoria	6	Junio	2023-06-23T00:00:00	2024-11-08T23:00:00	3	Temperatura mínima	12.8
114672	7	Sololá	701	Sololá	4	Finca Santa Victoria	6	Junio	2023-06-23T00:00:00	2024-11-08T23:00:00	5	Humedad	98
114673	7	Sololá	701	Sololá	4	Finca Santa Victoria	6	Junio	2023-06-23T00:00:00	2024-11-08T23:00:00	6	Velocidad del viento	0
114674	7	Sololá	701	Sololá	4	Finca Santa Victoria	6	Junio	2023-06-23T00:00:00	2024-11-08T23:00:00	7	Dirección del viento	0
114675	7	Sololá	701	Sololá	4	Finca Santa Victoria	6	Junio	2023-06-23T00:00:00	2024-11-08T23:00:00	1	Precipitación	0
114676	7	Sololá	701	Sololá	4	Finca Santa Victoria	6	Junio	2023-06-23T00:00:00	2024-11-08T23:00:00	8	Radiación solar	0
114677	7	Sololá	701	Sololá	4	Finca Santa Victoria	6	Junio	2023-06-24T00:00:00	2024-11-08T00:00:00	2	Temperatura media	13.1
114678	7	Sololá	701	Sololá	4	Finca Santa Victoria	6	Junio	2023-06-24T00:00:00	2024-11-08T00:00:00	4	Temperatura máxima	13.1
114679	7	Sololá	701	Sololá	4	Finca Santa Victoria	6	Junio	2023-06-24T00:00:00	2024-11-08T00:00:00	3	Temperatura mínima	12.8
114680	7	Sololá	701	Sololá	4	Finca Santa Victoria	6	Junio	2023-06-24T00:00:00	2024-11-08T00:00:00	5	Humedad	98
114681	7	Sololá	701	Sololá	4	Finca Santa Victoria	6	Junio	2023-06-24T00:00:00	2024-11-08T00:00:00	6	Velocidad del viento	0
114682	7	Sololá	701	Sololá	4	Finca Santa Victoria	6	Junio	2023-06-24T00:00:00	2024-11-08T00:00:00	7	Dirección del viento	0
114683	7	Sololá	701	Sololá	4	Finca Santa Victoria	6	Junio	2023-06-24T00:00:00	2024-11-08T00:00:00	1	Precipitación	0
114684	7	Sololá	701	Sololá	4	Finca Santa Victoria	6	Junio	2023-06-24T00:00:00	2024-11-08T00:00:00	8	Radiación solar	0
114685	7	Sololá	701	Sololá	4	Finca Santa Victoria	6	Junio	2023-06-24T00:00:00	2024-11-08T01:00:00	2	Temperatura media	12.8
114686	7	Sololá	701	Sololá	4	Finca Santa Victoria	6	Junio	2023-06-24T00:00:00	2024-11-08T01:00:00	4	Temperatura máxima	13.2
114687	7	Sololá	701	Sololá	4	Finca Santa Victoria	6	Junio	2023-06-24T00:00:00	2024-11-08T01:00:00	3	Temperatura mínima	12.8
114688	7	Sololá	701	Sololá	4	Finca Santa Victoria	6	Junio	2023-06-24T00:00:00	2024-11-08T01:00:00	5	Humedad	98
114689	7	Sololá	701	Sololá	4	Finca Santa Victoria	6	Junio	2023-06-24T00:00:00	2024-11-08T01:00:00	6	Velocidad del viento	0
114690	7	Sololá	701	Sololá	4	Finca Santa Victoria	6	Junio	2023-06-24T00:00:00	2024-11-08T01:00:00	7	Dirección del viento	0
114691	7	Sololá	701	Sololá	4	Finca Santa Victoria	6	Junio	2023-06-24T00:00:00	2024-11-08T01:00:00	1	Precipitación	0
114692	7	Sololá	701	Sololá	4	Finca Santa Victoria	6	Junio	2023-06-24T00:00:00	2024-11-08T01:00:00	8	Radiación solar	0
114693	7	Sololá	701	Sololá	4	Finca Santa Victoria	6	Junio	2023-06-24T00:00:00	2024-11-08T02:00:00	2	Temperatura media	12.8
114694	7	Sololá	701	Sololá	4	Finca Santa Victoria	6	Junio	2023-06-24T00:00:00	2024-11-08T02:00:00	4	Temperatura máxima	12.9
114695	7	Sololá	701	Sololá	4	Finca Santa Victoria	6	Junio	2023-06-24T00:00:00	2024-11-08T02:00:00	3	Temperatura mínima	12.7
114696	7	Sololá	701	Sololá	4	Finca Santa Victoria	6	Junio	2023-06-24T00:00:00	2024-11-08T02:00:00	5	Humedad	98
114697	7	Sololá	701	Sololá	4	Finca Santa Victoria	6	Junio	2023-06-24T00:00:00	2024-11-08T02:00:00	6	Velocidad del viento	0
114698	7	Sololá	701	Sololá	4	Finca Santa Victoria	6	Junio	2023-06-24T00:00:00	2024-11-08T02:00:00	7	Dirección del viento	0
114699	7	Sololá	701	Sololá	4	Finca Santa Victoria	6	Junio	2023-06-24T00:00:00	2024-11-08T02:00:00	1	Precipitación	0
114700	7	Sololá	701	Sololá	4	Finca Santa Victoria	6	Junio	2023-06-24T00:00:00	2024-11-08T02:00:00	8	Radiación solar	0
114701	7	Sololá	701	Sololá	4	Finca Santa Victoria	6	Junio	2023-06-24T00:00:00	2024-11-08T03:00:00	2	Temperatura media	12.6
114702	7	Sololá	701	Sololá	4	Finca Santa Victoria	6	Junio	2023-06-24T00:00:00	2024-11-08T03:00:00	4	Temperatura máxima	12.8
114703	7	Sololá	701	Sololá	4	Finca Santa Victoria	6	Junio	2023-06-24T00:00:00	2024-11-08T03:00:00	3	Temperatura mínima	12.6
114704	7	Sololá	701	Sololá	4	Finca Santa Victoria	6	Junio	2023-06-24T00:00:00	2024-11-08T03:00:00	5	Humedad	98
114705	7	Sololá	701	Sololá	4	Finca Santa Victoria	6	Junio	2023-06-24T00:00:00	2024-11-08T03:00:00	6	Velocidad del viento	0
114706	7	Sololá	701	Sololá	4	Finca Santa Victoria	6	Junio	2023-06-24T00:00:00	2024-11-08T03:00:00	7	Dirección del viento	0
114707	7	Sololá	701	Sololá	4	Finca Santa Victoria	6	Junio	2023-06-24T00:00:00	2024-11-08T03:00:00	1	Precipitación	0
114708	7	Sololá	701	Sololá	4	Finca Santa Victoria	6	Junio	2023-06-24T00:00:00	2024-11-08T03:00:00	8	Radiación solar	0
114709	7	Sololá	701	Sololá	4	Finca Santa Victoria	6	Junio	2023-06-24T00:00:00	2024-11-08T04:00:00	2	Temperatura media	12.5
114710	7	Sololá	701	Sololá	4	Finca Santa Victoria	6	Junio	2023-06-24T00:00:00	2024-11-08T04:00:00	4	Temperatura máxima	12.7
114711	7	Sololá	701	Sololá	4	Finca Santa Victoria	6	Junio	2023-06-24T00:00:00	2024-11-08T04:00:00	3	Temperatura mínima	12.5
114712	7	Sololá	701	Sololá	4	Finca Santa Victoria	6	Junio	2023-06-24T00:00:00	2024-11-08T04:00:00	5	Humedad	98
114713	7	Sololá	701	Sololá	4	Finca Santa Victoria	6	Junio	2023-06-24T00:00:00	2024-11-08T04:00:00	6	Velocidad del viento	0
114714	7	Sololá	701	Sololá	4	Finca Santa Victoria	6	Junio	2023-06-24T00:00:00	2024-11-08T04:00:00	7	Dirección del viento	0
114715	7	Sololá	701	Sololá	4	Finca Santa Victoria	6	Junio	2023-06-24T00:00:00	2024-11-08T04:00:00	1	Precipitación	0
114716	7	Sololá	701	Sololá	4	Finca Santa Victoria	6	Junio	2023-06-24T00:00:00	2024-11-08T04:00:00	8	Radiación solar	0
114717	7	Sololá	701	Sololá	4	Finca Santa Victoria	6	Junio	2023-06-24T00:00:00	2024-11-08T05:00:00	2	Temperatura media	12.3
114718	7	Sololá	701	Sololá	4	Finca Santa Victoria	6	Junio	2023-06-24T00:00:00	2024-11-08T05:00:00	4	Temperatura máxima	12.6
114719	7	Sololá	701	Sololá	4	Finca Santa Victoria	6	Junio	2023-06-24T00:00:00	2024-11-08T05:00:00	3	Temperatura mínima	12.3
114720	7	Sololá	701	Sololá	4	Finca Santa Victoria	6	Junio	2023-06-24T00:00:00	2024-11-08T05:00:00	5	Humedad	98
114721	7	Sololá	701	Sololá	4	Finca Santa Victoria	6	Junio	2023-06-24T00:00:00	2024-11-08T05:00:00	6	Velocidad del viento	0
114722	7	Sololá	701	Sololá	4	Finca Santa Victoria	6	Junio	2023-06-24T00:00:00	2024-11-08T05:00:00	7	Dirección del viento	0
114723	7	Sololá	701	Sololá	4	Finca Santa Victoria	6	Junio	2023-06-24T00:00:00	2024-11-08T05:00:00	1	Precipitación	0
114724	7	Sololá	701	Sololá	4	Finca Santa Victoria	6	Junio	2023-06-24T00:00:00	2024-11-08T05:00:00	8	Radiación solar	0
114725	7	Sololá	701	Sololá	4	Finca Santa Victoria	6	Junio	2023-06-24T00:00:00	2024-11-08T06:00:00	2	Temperatura media	12.3
114726	7	Sololá	701	Sololá	4	Finca Santa Victoria	6	Junio	2023-06-24T00:00:00	2024-11-08T06:00:00	4	Temperatura máxima	12.4
114727	7	Sololá	701	Sololá	4	Finca Santa Victoria	6	Junio	2023-06-24T00:00:00	2024-11-08T06:00:00	3	Temperatura mínima	12.2
114728	7	Sololá	701	Sololá	4	Finca Santa Victoria	6	Junio	2023-06-24T00:00:00	2024-11-08T06:00:00	5	Humedad	96
114729	7	Sololá	701	Sololá	4	Finca Santa Victoria	6	Junio	2023-06-24T00:00:00	2024-11-08T06:00:00	6	Velocidad del viento	0
114730	7	Sololá	701	Sololá	4	Finca Santa Victoria	6	Junio	2023-06-24T00:00:00	2024-11-08T06:00:00	7	Dirección del viento	0
114731	7	Sololá	701	Sololá	4	Finca Santa Victoria	6	Junio	2023-06-24T00:00:00	2024-11-08T06:00:00	1	Precipitación	0
114732	7	Sololá	701	Sololá	4	Finca Santa Victoria	6	Junio	2023-06-24T00:00:00	2024-11-08T06:00:00	8	Radiación solar	2
114733	7	Sololá	701	Sololá	4	Finca Santa Victoria	6	Junio	2023-06-24T00:00:00	2024-11-08T07:00:00	2	Temperatura media	13.1
114734	7	Sololá	701	Sololá	4	Finca Santa Victoria	6	Junio	2023-06-24T00:00:00	2024-11-08T07:00:00	4	Temperatura máxima	13.1
114735	7	Sololá	701	Sololá	4	Finca Santa Victoria	6	Junio	2023-06-24T00:00:00	2024-11-08T07:00:00	3	Temperatura mínima	12.3
114736	7	Sololá	701	Sololá	4	Finca Santa Victoria	6	Junio	2023-06-24T00:00:00	2024-11-08T07:00:00	5	Humedad	95
114737	7	Sololá	701	Sololá	4	Finca Santa Victoria	6	Junio	2023-06-24T00:00:00	2024-11-08T07:00:00	6	Velocidad del viento	0
114738	7	Sololá	701	Sololá	4	Finca Santa Victoria	6	Junio	2023-06-24T00:00:00	2024-11-08T07:00:00	7	Dirección del viento	0
114739	7	Sololá	701	Sololá	4	Finca Santa Victoria	6	Junio	2023-06-24T00:00:00	2024-11-08T07:00:00	1	Precipitación	0
114740	7	Sololá	701	Sololá	4	Finca Santa Victoria	6	Junio	2023-06-24T00:00:00	2024-11-08T07:00:00	8	Radiación solar	36
114741	7	Sololá	701	Sololá	4	Finca Santa Victoria	6	Junio	2023-06-24T00:00:00	2024-11-08T08:00:00	2	Temperatura media	14.7
114742	7	Sololá	701	Sololá	4	Finca Santa Victoria	6	Junio	2023-06-24T00:00:00	2024-11-08T08:00:00	4	Temperatura máxima	14.7
114743	7	Sololá	701	Sololá	4	Finca Santa Victoria	6	Junio	2023-06-24T00:00:00	2024-11-08T08:00:00	3	Temperatura mínima	13.1
114744	7	Sololá	701	Sololá	4	Finca Santa Victoria	6	Junio	2023-06-24T00:00:00	2024-11-08T08:00:00	5	Humedad	90
114745	7	Sololá	701	Sololá	4	Finca Santa Victoria	6	Junio	2023-06-24T00:00:00	2024-11-08T08:00:00	6	Velocidad del viento	0
114746	7	Sololá	701	Sololá	4	Finca Santa Victoria	6	Junio	2023-06-24T00:00:00	2024-11-08T08:00:00	7	Dirección del viento	0
114747	7	Sololá	701	Sololá	4	Finca Santa Victoria	6	Junio	2023-06-24T00:00:00	2024-11-08T08:00:00	1	Precipitación	0
114748	7	Sololá	701	Sololá	4	Finca Santa Victoria	6	Junio	2023-06-24T00:00:00	2024-11-08T08:00:00	8	Radiación solar	125
114749	7	Sololá	701	Sololá	4	Finca Santa Victoria	6	Junio	2023-06-24T00:00:00	2024-11-08T09:00:00	2	Temperatura media	16.7
114750	7	Sololá	701	Sololá	4	Finca Santa Victoria	6	Junio	2023-06-24T00:00:00	2024-11-08T09:00:00	4	Temperatura máxima	16.7
114751	7	Sololá	701	Sololá	4	Finca Santa Victoria	6	Junio	2023-06-24T00:00:00	2024-11-08T09:00:00	3	Temperatura mínima	14.7
114752	7	Sololá	701	Sololá	4	Finca Santa Victoria	6	Junio	2023-06-24T00:00:00	2024-11-08T09:00:00	5	Humedad	88
114753	7	Sololá	701	Sololá	4	Finca Santa Victoria	6	Junio	2023-06-24T00:00:00	2024-11-08T09:00:00	6	Velocidad del viento	0
114754	7	Sololá	701	Sololá	4	Finca Santa Victoria	6	Junio	2023-06-24T00:00:00	2024-11-08T09:00:00	7	Dirección del viento	0
114755	7	Sololá	701	Sololá	4	Finca Santa Victoria	6	Junio	2023-06-24T00:00:00	2024-11-08T09:00:00	1	Precipitación	0
114756	7	Sololá	701	Sololá	4	Finca Santa Victoria	6	Junio	2023-06-24T00:00:00	2024-11-08T09:00:00	8	Radiación solar	315
114757	7	Sololá	701	Sololá	4	Finca Santa Victoria	6	Junio	2023-06-24T00:00:00	2024-11-08T10:00:00	2	Temperatura media	18.1
114758	7	Sololá	701	Sololá	4	Finca Santa Victoria	6	Junio	2023-06-24T00:00:00	2024-11-08T10:00:00	4	Temperatura máxima	18.1
114759	7	Sololá	701	Sololá	4	Finca Santa Victoria	6	Junio	2023-06-24T00:00:00	2024-11-08T10:00:00	3	Temperatura mínima	16.7
114760	7	Sololá	701	Sololá	4	Finca Santa Victoria	6	Junio	2023-06-24T00:00:00	2024-11-08T10:00:00	5	Humedad	77
114761	7	Sololá	701	Sololá	4	Finca Santa Victoria	6	Junio	2023-06-24T00:00:00	2024-11-08T10:00:00	6	Velocidad del viento	1.6
114762	7	Sololá	701	Sololá	4	Finca Santa Victoria	6	Junio	2023-06-24T00:00:00	2024-11-08T10:00:00	7	Dirección del viento	1.61
114763	7	Sololá	701	Sololá	4	Finca Santa Victoria	6	Junio	2023-06-24T00:00:00	2024-11-08T10:00:00	1	Precipitación	0
114764	7	Sololá	701	Sololá	4	Finca Santa Victoria	6	Junio	2023-06-24T00:00:00	2024-11-08T10:00:00	8	Radiación solar	287
114765	7	Sololá	701	Sololá	4	Finca Santa Victoria	6	Junio	2023-06-24T00:00:00	2024-11-08T11:00:00	2	Temperatura media	15.9
114766	7	Sololá	701	Sololá	4	Finca Santa Victoria	6	Junio	2023-06-24T00:00:00	2024-11-08T11:00:00	4	Temperatura máxima	18.1
114767	7	Sololá	701	Sololá	4	Finca Santa Victoria	6	Junio	2023-06-24T00:00:00	2024-11-08T11:00:00	3	Temperatura mínima	15.9
114768	7	Sololá	701	Sololá	4	Finca Santa Victoria	6	Junio	2023-06-24T00:00:00	2024-11-08T11:00:00	5	Humedad	93
114769	7	Sololá	701	Sololá	4	Finca Santa Victoria	6	Junio	2023-06-24T00:00:00	2024-11-08T11:00:00	6	Velocidad del viento	1.6
114770	7	Sololá	701	Sololá	4	Finca Santa Victoria	6	Junio	2023-06-24T00:00:00	2024-11-08T11:00:00	7	Dirección del viento	1.61
114771	7	Sololá	701	Sololá	4	Finca Santa Victoria	6	Junio	2023-06-24T00:00:00	2024-11-08T11:00:00	1	Precipitación	0
114772	7	Sololá	701	Sololá	4	Finca Santa Victoria	6	Junio	2023-06-24T00:00:00	2024-11-08T11:00:00	8	Radiación solar	174
114773	7	Sololá	701	Sololá	4	Finca Santa Victoria	6	Junio	2023-06-24T00:00:00	2024-11-08T12:00:00	2	Temperatura media	18.2
114774	7	Sololá	701	Sololá	4	Finca Santa Victoria	6	Junio	2023-06-24T00:00:00	2024-11-08T12:00:00	4	Temperatura máxima	18.6
114775	7	Sololá	701	Sololá	4	Finca Santa Victoria	6	Junio	2023-06-24T00:00:00	2024-11-08T12:00:00	3	Temperatura mínima	15.9
114776	7	Sololá	701	Sololá	4	Finca Santa Victoria	6	Junio	2023-06-24T00:00:00	2024-11-08T12:00:00	5	Humedad	85
114777	7	Sololá	701	Sololá	4	Finca Santa Victoria	6	Junio	2023-06-24T00:00:00	2024-11-08T12:00:00	6	Velocidad del viento	1.6
114778	7	Sololá	701	Sololá	4	Finca Santa Victoria	6	Junio	2023-06-24T00:00:00	2024-11-08T12:00:00	7	Dirección del viento	1.61
114779	7	Sololá	701	Sololá	4	Finca Santa Victoria	6	Junio	2023-06-24T00:00:00	2024-11-08T12:00:00	1	Precipitación	0
114780	7	Sololá	701	Sololá	4	Finca Santa Victoria	6	Junio	2023-06-24T00:00:00	2024-11-08T12:00:00	8	Radiación solar	352
114781	7	Sololá	701	Sololá	4	Finca Santa Victoria	6	Junio	2023-06-24T00:00:00	2024-11-08T13:00:00	2	Temperatura media	17.5
114782	7	Sololá	701	Sololá	4	Finca Santa Victoria	6	Junio	2023-06-24T00:00:00	2024-11-08T13:00:00	4	Temperatura máxima	18.2
114783	7	Sololá	701	Sololá	4	Finca Santa Victoria	6	Junio	2023-06-24T00:00:00	2024-11-08T13:00:00	3	Temperatura mínima	17.4
114784	7	Sololá	701	Sololá	4	Finca Santa Victoria	6	Junio	2023-06-24T00:00:00	2024-11-08T13:00:00	5	Humedad	92
114785	7	Sololá	701	Sololá	4	Finca Santa Victoria	6	Junio	2023-06-24T00:00:00	2024-11-08T13:00:00	6	Velocidad del viento	1.6
114786	7	Sololá	701	Sololá	4	Finca Santa Victoria	6	Junio	2023-06-24T00:00:00	2024-11-08T13:00:00	7	Dirección del viento	1.61
114787	7	Sololá	701	Sololá	4	Finca Santa Victoria	6	Junio	2023-06-24T00:00:00	2024-11-08T13:00:00	1	Precipitación	0
114788	7	Sololá	701	Sololá	4	Finca Santa Victoria	6	Junio	2023-06-24T00:00:00	2024-11-08T13:00:00	8	Radiación solar	173
114789	7	Sololá	701	Sololá	4	Finca Santa Victoria	6	Junio	2023-06-24T00:00:00	2024-11-08T14:00:00	2	Temperatura media	17.3
114790	7	Sololá	701	Sololá	4	Finca Santa Victoria	6	Junio	2023-06-24T00:00:00	2024-11-08T14:00:00	4	Temperatura máxima	18.9
114791	7	Sololá	701	Sololá	4	Finca Santa Victoria	6	Junio	2023-06-24T00:00:00	2024-11-08T14:00:00	3	Temperatura mínima	17.3
114792	7	Sololá	701	Sololá	4	Finca Santa Victoria	6	Junio	2023-06-24T00:00:00	2024-11-08T14:00:00	5	Humedad	91
114793	7	Sololá	701	Sololá	4	Finca Santa Victoria	6	Junio	2023-06-24T00:00:00	2024-11-08T14:00:00	6	Velocidad del viento	1.6
114794	7	Sololá	701	Sololá	4	Finca Santa Victoria	6	Junio	2023-06-24T00:00:00	2024-11-08T14:00:00	7	Dirección del viento	1.61
114795	7	Sololá	701	Sololá	4	Finca Santa Victoria	6	Junio	2023-06-24T00:00:00	2024-11-08T14:00:00	1	Precipitación	0
114796	7	Sololá	701	Sololá	4	Finca Santa Victoria	6	Junio	2023-06-24T00:00:00	2024-11-08T14:00:00	8	Radiación solar	223
114797	7	Sololá	701	Sololá	4	Finca Santa Victoria	6	Junio	2023-06-24T00:00:00	2024-11-08T15:00:00	2	Temperatura media	16.4
114798	7	Sololá	701	Sololá	4	Finca Santa Victoria	6	Junio	2023-06-24T00:00:00	2024-11-08T15:00:00	4	Temperatura máxima	17.3
114799	7	Sololá	701	Sololá	4	Finca Santa Victoria	6	Junio	2023-06-24T00:00:00	2024-11-08T15:00:00	3	Temperatura mínima	16.4
114800	7	Sololá	701	Sololá	4	Finca Santa Victoria	6	Junio	2023-06-24T00:00:00	2024-11-08T15:00:00	5	Humedad	95
114801	7	Sololá	701	Sololá	4	Finca Santa Victoria	6	Junio	2023-06-24T00:00:00	2024-11-08T15:00:00	6	Velocidad del viento	1.6
114802	7	Sololá	701	Sololá	4	Finca Santa Victoria	6	Junio	2023-06-24T00:00:00	2024-11-08T15:00:00	7	Dirección del viento	1.61
114803	7	Sololá	701	Sololá	4	Finca Santa Victoria	6	Junio	2023-06-24T00:00:00	2024-11-08T15:00:00	1	Precipitación	0
114804	7	Sololá	701	Sololá	4	Finca Santa Victoria	6	Junio	2023-06-24T00:00:00	2024-11-08T15:00:00	8	Radiación solar	87
114805	7	Sololá	701	Sololá	4	Finca Santa Victoria	6	Junio	2023-06-24T00:00:00	2024-11-08T16:00:00	2	Temperatura media	17.1
114806	7	Sololá	701	Sololá	4	Finca Santa Victoria	6	Junio	2023-06-24T00:00:00	2024-11-08T16:00:00	4	Temperatura máxima	17.3
114807	7	Sololá	701	Sololá	4	Finca Santa Victoria	6	Junio	2023-06-24T00:00:00	2024-11-08T16:00:00	3	Temperatura mínima	16.3
114808	7	Sololá	701	Sololá	4	Finca Santa Victoria	6	Junio	2023-06-24T00:00:00	2024-11-08T16:00:00	5	Humedad	94
114809	7	Sololá	701	Sololá	4	Finca Santa Victoria	6	Junio	2023-06-24T00:00:00	2024-11-08T16:00:00	6	Velocidad del viento	0
114810	7	Sololá	701	Sololá	4	Finca Santa Victoria	6	Junio	2023-06-24T00:00:00	2024-11-08T16:00:00	7	Dirección del viento	0
114811	7	Sololá	701	Sololá	4	Finca Santa Victoria	6	Junio	2023-06-24T00:00:00	2024-11-08T16:00:00	1	Precipitación	0
114812	7	Sololá	701	Sololá	4	Finca Santa Victoria	6	Junio	2023-06-24T00:00:00	2024-11-08T16:00:00	8	Radiación solar	104
114813	7	Sololá	701	Sololá	4	Finca Santa Victoria	6	Junio	2023-06-24T00:00:00	2024-11-08T17:00:00	2	Temperatura media	16.4
114814	7	Sololá	701	Sololá	4	Finca Santa Victoria	6	Junio	2023-06-24T00:00:00	2024-11-08T17:00:00	4	Temperatura máxima	17.1
114815	7	Sololá	701	Sololá	4	Finca Santa Victoria	6	Junio	2023-06-24T00:00:00	2024-11-08T17:00:00	3	Temperatura mínima	16.4
114816	7	Sololá	701	Sololá	4	Finca Santa Victoria	6	Junio	2023-06-24T00:00:00	2024-11-08T17:00:00	5	Humedad	94
114817	7	Sololá	701	Sololá	4	Finca Santa Victoria	6	Junio	2023-06-24T00:00:00	2024-11-08T17:00:00	6	Velocidad del viento	0
114818	7	Sololá	701	Sololá	4	Finca Santa Victoria	6	Junio	2023-06-24T00:00:00	2024-11-08T17:00:00	7	Dirección del viento	0
114819	7	Sololá	701	Sololá	4	Finca Santa Victoria	6	Junio	2023-06-24T00:00:00	2024-11-08T17:00:00	1	Precipitación	0
114820	7	Sololá	701	Sololá	4	Finca Santa Victoria	6	Junio	2023-06-24T00:00:00	2024-11-08T17:00:00	8	Radiación solar	44
114821	7	Sololá	701	Sololá	4	Finca Santa Victoria	6	Junio	2023-06-24T00:00:00	2024-11-08T18:00:00	2	Temperatura media	15.7
114822	7	Sololá	701	Sololá	4	Finca Santa Victoria	6	Junio	2023-06-24T00:00:00	2024-11-08T18:00:00	4	Temperatura máxima	16.4
114823	7	Sololá	701	Sololá	4	Finca Santa Victoria	6	Junio	2023-06-24T00:00:00	2024-11-08T18:00:00	3	Temperatura mínima	15.6
114824	7	Sololá	701	Sololá	4	Finca Santa Victoria	6	Junio	2023-06-24T00:00:00	2024-11-08T18:00:00	5	Humedad	96
114825	7	Sololá	701	Sololá	4	Finca Santa Victoria	6	Junio	2023-06-24T00:00:00	2024-11-08T18:00:00	6	Velocidad del viento	0
114826	7	Sololá	701	Sololá	4	Finca Santa Victoria	6	Junio	2023-06-24T00:00:00	2024-11-08T18:00:00	7	Dirección del viento	0
114827	7	Sololá	701	Sololá	4	Finca Santa Victoria	6	Junio	2023-06-24T00:00:00	2024-11-08T18:00:00	1	Precipitación	0
114828	7	Sololá	701	Sololá	4	Finca Santa Victoria	6	Junio	2023-06-24T00:00:00	2024-11-08T18:00:00	8	Radiación solar	19
114829	7	Sololá	701	Sololá	4	Finca Santa Victoria	6	Junio	2023-06-24T00:00:00	2024-11-08T19:00:00	2	Temperatura media	15.1
114830	7	Sololá	701	Sololá	4	Finca Santa Victoria	6	Junio	2023-06-24T00:00:00	2024-11-08T19:00:00	4	Temperatura máxima	15.8
114831	7	Sololá	701	Sololá	4	Finca Santa Victoria	6	Junio	2023-06-24T00:00:00	2024-11-08T19:00:00	3	Temperatura mínima	15.1
114832	7	Sololá	701	Sololá	4	Finca Santa Victoria	6	Junio	2023-06-24T00:00:00	2024-11-08T19:00:00	5	Humedad	98
114833	7	Sololá	701	Sololá	4	Finca Santa Victoria	6	Junio	2023-06-24T00:00:00	2024-11-08T19:00:00	6	Velocidad del viento	0
114834	7	Sololá	701	Sololá	4	Finca Santa Victoria	6	Junio	2023-06-24T00:00:00	2024-11-08T19:00:00	7	Dirección del viento	0
114835	7	Sololá	701	Sololá	4	Finca Santa Victoria	6	Junio	2023-06-24T00:00:00	2024-11-08T19:00:00	1	Precipitación	0
114836	7	Sololá	701	Sololá	4	Finca Santa Victoria	6	Junio	2023-06-24T00:00:00	2024-11-08T19:00:00	8	Radiación solar	0
114837	7	Sololá	701	Sololá	4	Finca Santa Victoria	6	Junio	2023-06-24T00:00:00	2024-11-08T20:00:00	2	Temperatura media	14.6
114838	7	Sololá	701	Sololá	4	Finca Santa Victoria	6	Junio	2023-06-24T00:00:00	2024-11-08T20:00:00	4	Temperatura máxima	15.1
114839	7	Sololá	701	Sololá	4	Finca Santa Victoria	6	Junio	2023-06-24T00:00:00	2024-11-08T20:00:00	3	Temperatura mínima	14.6
114840	7	Sololá	701	Sololá	4	Finca Santa Victoria	6	Junio	2023-06-24T00:00:00	2024-11-08T20:00:00	5	Humedad	98
114841	7	Sololá	701	Sololá	4	Finca Santa Victoria	6	Junio	2023-06-24T00:00:00	2024-11-08T20:00:00	6	Velocidad del viento	0
114842	7	Sololá	701	Sololá	4	Finca Santa Victoria	6	Junio	2023-06-24T00:00:00	2024-11-08T20:00:00	7	Dirección del viento	0
114843	7	Sololá	701	Sololá	4	Finca Santa Victoria	6	Junio	2023-06-24T00:00:00	2024-11-08T20:00:00	1	Precipitación	0
114844	7	Sololá	701	Sololá	4	Finca Santa Victoria	6	Junio	2023-06-24T00:00:00	2024-11-08T20:00:00	8	Radiación solar	0
114845	7	Sololá	701	Sololá	4	Finca Santa Victoria	6	Junio	2023-06-24T00:00:00	2024-11-08T21:00:00	2	Temperatura media	14.4
114846	7	Sololá	701	Sololá	4	Finca Santa Victoria	6	Junio	2023-06-24T00:00:00	2024-11-08T21:00:00	4	Temperatura máxima	14.6
114847	7	Sololá	701	Sololá	4	Finca Santa Victoria	6	Junio	2023-06-24T00:00:00	2024-11-08T21:00:00	3	Temperatura mínima	14.4
114848	7	Sololá	701	Sololá	4	Finca Santa Victoria	6	Junio	2023-06-24T00:00:00	2024-11-08T21:00:00	5	Humedad	98
114849	7	Sololá	701	Sololá	4	Finca Santa Victoria	6	Junio	2023-06-24T00:00:00	2024-11-08T21:00:00	6	Velocidad del viento	0
114850	7	Sololá	701	Sololá	4	Finca Santa Victoria	6	Junio	2023-06-24T00:00:00	2024-11-08T21:00:00	7	Dirección del viento	0
114851	7	Sololá	701	Sololá	4	Finca Santa Victoria	6	Junio	2023-06-24T00:00:00	2024-11-08T21:00:00	1	Precipitación	0
114852	7	Sololá	701	Sololá	4	Finca Santa Victoria	6	Junio	2023-06-24T00:00:00	2024-11-08T21:00:00	8	Radiación solar	0
114853	7	Sololá	701	Sololá	4	Finca Santa Victoria	6	Junio	2023-06-24T00:00:00	2024-11-08T22:00:00	2	Temperatura media	14.4
114854	7	Sololá	701	Sololá	4	Finca Santa Victoria	6	Junio	2023-06-24T00:00:00	2024-11-08T22:00:00	4	Temperatura máxima	14.5
114855	7	Sololá	701	Sololá	4	Finca Santa Victoria	6	Junio	2023-06-24T00:00:00	2024-11-08T22:00:00	3	Temperatura mínima	14.4
114856	7	Sololá	701	Sololá	4	Finca Santa Victoria	6	Junio	2023-06-24T00:00:00	2024-11-08T22:00:00	5	Humedad	97
114857	7	Sololá	701	Sololá	4	Finca Santa Victoria	6	Junio	2023-06-24T00:00:00	2024-11-08T22:00:00	6	Velocidad del viento	0
114858	7	Sololá	701	Sololá	4	Finca Santa Victoria	6	Junio	2023-06-24T00:00:00	2024-11-08T22:00:00	7	Dirección del viento	0
114859	7	Sololá	701	Sololá	4	Finca Santa Victoria	6	Junio	2023-06-24T00:00:00	2024-11-08T22:00:00	1	Precipitación	0
114860	7	Sololá	701	Sololá	4	Finca Santa Victoria	6	Junio	2023-06-24T00:00:00	2024-11-08T22:00:00	8	Radiación solar	0
114861	7	Sololá	701	Sololá	4	Finca Santa Victoria	6	Junio	2023-06-24T00:00:00	2024-11-08T23:00:00	2	Temperatura media	14.3
114862	7	Sololá	701	Sololá	4	Finca Santa Victoria	6	Junio	2023-06-24T00:00:00	2024-11-08T23:00:00	4	Temperatura máxima	14.6
114863	7	Sololá	701	Sololá	4	Finca Santa Victoria	6	Junio	2023-06-24T00:00:00	2024-11-08T23:00:00	3	Temperatura mínima	14.3
114864	7	Sololá	701	Sololá	4	Finca Santa Victoria	6	Junio	2023-06-24T00:00:00	2024-11-08T23:00:00	5	Humedad	96
114865	7	Sololá	701	Sololá	4	Finca Santa Victoria	6	Junio	2023-06-24T00:00:00	2024-11-08T23:00:00	6	Velocidad del viento	0
114866	7	Sololá	701	Sololá	4	Finca Santa Victoria	6	Junio	2023-06-24T00:00:00	2024-11-08T23:00:00	7	Dirección del viento	0
114867	7	Sololá	701	Sololá	4	Finca Santa Victoria	6	Junio	2023-06-24T00:00:00	2024-11-08T23:00:00	1	Precipitación	0
114868	7	Sololá	701	Sololá	4	Finca Santa Victoria	6	Junio	2023-06-24T00:00:00	2024-11-08T23:00:00	8	Radiación solar	0
114869	7	Sololá	701	Sololá	4	Finca Santa Victoria	6	Junio	2023-06-25T00:00:00	2024-11-08T00:00:00	2	Temperatura media	14.1
114870	7	Sololá	701	Sololá	4	Finca Santa Victoria	6	Junio	2023-06-25T00:00:00	2024-11-08T00:00:00	4	Temperatura máxima	14.3
114871	7	Sololá	701	Sololá	4	Finca Santa Victoria	6	Junio	2023-06-25T00:00:00	2024-11-08T00:00:00	3	Temperatura mínima	14
114872	7	Sololá	701	Sololá	4	Finca Santa Victoria	6	Junio	2023-06-25T00:00:00	2024-11-08T00:00:00	5	Humedad	97
114873	7	Sololá	701	Sololá	4	Finca Santa Victoria	6	Junio	2023-06-25T00:00:00	2024-11-08T00:00:00	6	Velocidad del viento	0
114874	7	Sololá	701	Sololá	4	Finca Santa Victoria	6	Junio	2023-06-25T00:00:00	2024-11-08T00:00:00	7	Dirección del viento	0
114875	7	Sololá	701	Sololá	4	Finca Santa Victoria	6	Junio	2023-06-25T00:00:00	2024-11-08T00:00:00	1	Precipitación	0
114876	7	Sololá	701	Sololá	4	Finca Santa Victoria	6	Junio	2023-06-25T00:00:00	2024-11-08T00:00:00	8	Radiación solar	0
114877	7	Sololá	701	Sololá	4	Finca Santa Victoria	6	Junio	2023-06-25T00:00:00	2024-11-08T01:00:00	2	Temperatura media	13.8
114878	7	Sololá	701	Sololá	4	Finca Santa Victoria	6	Junio	2023-06-25T00:00:00	2024-11-08T01:00:00	4	Temperatura máxima	14.1
114879	7	Sololá	701	Sololá	4	Finca Santa Victoria	6	Junio	2023-06-25T00:00:00	2024-11-08T01:00:00	3	Temperatura mínima	13.6
114880	7	Sololá	701	Sololá	4	Finca Santa Victoria	6	Junio	2023-06-25T00:00:00	2024-11-08T01:00:00	5	Humedad	98
114881	7	Sololá	701	Sololá	4	Finca Santa Victoria	6	Junio	2023-06-25T00:00:00	2024-11-08T01:00:00	6	Velocidad del viento	0
114882	7	Sololá	701	Sololá	4	Finca Santa Victoria	6	Junio	2023-06-25T00:00:00	2024-11-08T01:00:00	7	Dirección del viento	0
114883	7	Sololá	701	Sololá	4	Finca Santa Victoria	6	Junio	2023-06-25T00:00:00	2024-11-08T01:00:00	1	Precipitación	0
114884	7	Sololá	701	Sololá	4	Finca Santa Victoria	6	Junio	2023-06-25T00:00:00	2024-11-08T01:00:00	8	Radiación solar	0
114885	7	Sololá	701	Sololá	4	Finca Santa Victoria	6	Junio	2023-06-25T00:00:00	2024-11-08T02:00:00	2	Temperatura media	12.4
114886	7	Sololá	701	Sololá	4	Finca Santa Victoria	6	Junio	2023-06-25T00:00:00	2024-11-08T02:00:00	4	Temperatura máxima	13.8
114887	7	Sololá	701	Sololá	4	Finca Santa Victoria	6	Junio	2023-06-25T00:00:00	2024-11-08T02:00:00	3	Temperatura mínima	12.4
114888	7	Sololá	701	Sololá	4	Finca Santa Victoria	6	Junio	2023-06-25T00:00:00	2024-11-08T02:00:00	5	Humedad	97
114889	7	Sololá	701	Sololá	4	Finca Santa Victoria	6	Junio	2023-06-25T00:00:00	2024-11-08T02:00:00	6	Velocidad del viento	1.6
114890	7	Sololá	701	Sololá	4	Finca Santa Victoria	6	Junio	2023-06-25T00:00:00	2024-11-08T02:00:00	7	Dirección del viento	1.61
114891	7	Sololá	701	Sololá	4	Finca Santa Victoria	6	Junio	2023-06-25T00:00:00	2024-11-08T02:00:00	1	Precipitación	1.8
114892	7	Sololá	701	Sololá	4	Finca Santa Victoria	6	Junio	2023-06-25T00:00:00	2024-11-08T02:00:00	8	Radiación solar	0
114893	7	Sololá	701	Sololá	4	Finca Santa Victoria	6	Junio	2023-06-25T00:00:00	2024-11-08T03:00:00	2	Temperatura media	11.9
114894	7	Sololá	701	Sololá	4	Finca Santa Victoria	6	Junio	2023-06-25T00:00:00	2024-11-08T03:00:00	4	Temperatura máxima	12.4
114895	7	Sololá	701	Sololá	4	Finca Santa Victoria	6	Junio	2023-06-25T00:00:00	2024-11-08T03:00:00	3	Temperatura mínima	11.9
114896	7	Sololá	701	Sololá	4	Finca Santa Victoria	6	Junio	2023-06-25T00:00:00	2024-11-08T03:00:00	5	Humedad	96
114897	7	Sololá	701	Sololá	4	Finca Santa Victoria	6	Junio	2023-06-25T00:00:00	2024-11-08T03:00:00	6	Velocidad del viento	0
114898	7	Sololá	701	Sololá	4	Finca Santa Victoria	6	Junio	2023-06-25T00:00:00	2024-11-08T03:00:00	7	Dirección del viento	0
114899	7	Sololá	701	Sololá	4	Finca Santa Victoria	6	Junio	2023-06-25T00:00:00	2024-11-08T03:00:00	1	Precipitación	0
114900	7	Sololá	701	Sololá	4	Finca Santa Victoria	6	Junio	2023-06-25T00:00:00	2024-11-08T03:00:00	8	Radiación solar	0
114901	7	Sololá	701	Sololá	4	Finca Santa Victoria	6	Junio	2023-06-25T00:00:00	2024-11-08T04:00:00	2	Temperatura media	11.8
114902	7	Sololá	701	Sololá	4	Finca Santa Victoria	6	Junio	2023-06-25T00:00:00	2024-11-08T04:00:00	4	Temperatura máxima	11.9
114903	7	Sololá	701	Sololá	4	Finca Santa Victoria	6	Junio	2023-06-25T00:00:00	2024-11-08T04:00:00	3	Temperatura mínima	11.7
114904	7	Sololá	701	Sololá	4	Finca Santa Victoria	6	Junio	2023-06-25T00:00:00	2024-11-08T04:00:00	5	Humedad	95
114905	7	Sololá	701	Sololá	4	Finca Santa Victoria	6	Junio	2023-06-25T00:00:00	2024-11-08T04:00:00	6	Velocidad del viento	0
114906	7	Sololá	701	Sololá	4	Finca Santa Victoria	6	Junio	2023-06-25T00:00:00	2024-11-08T04:00:00	7	Dirección del viento	0
114907	7	Sololá	701	Sololá	4	Finca Santa Victoria	6	Junio	2023-06-25T00:00:00	2024-11-08T04:00:00	1	Precipitación	0
114908	7	Sololá	701	Sololá	4	Finca Santa Victoria	6	Junio	2023-06-25T00:00:00	2024-11-08T04:00:00	8	Radiación solar	0
114909	7	Sololá	701	Sololá	4	Finca Santa Victoria	6	Junio	2023-06-25T00:00:00	2024-11-08T05:00:00	2	Temperatura media	11.6
114910	7	Sololá	701	Sololá	4	Finca Santa Victoria	6	Junio	2023-06-25T00:00:00	2024-11-08T05:00:00	4	Temperatura máxima	12.1
114911	7	Sololá	701	Sololá	4	Finca Santa Victoria	6	Junio	2023-06-25T00:00:00	2024-11-08T05:00:00	3	Temperatura mínima	11.6
114912	7	Sololá	701	Sololá	4	Finca Santa Victoria	6	Junio	2023-06-25T00:00:00	2024-11-08T05:00:00	5	Humedad	94
114913	7	Sololá	701	Sololá	4	Finca Santa Victoria	6	Junio	2023-06-25T00:00:00	2024-11-08T05:00:00	6	Velocidad del viento	0
114914	7	Sololá	701	Sololá	4	Finca Santa Victoria	6	Junio	2023-06-25T00:00:00	2024-11-08T05:00:00	7	Dirección del viento	0
114915	7	Sololá	701	Sololá	4	Finca Santa Victoria	6	Junio	2023-06-25T00:00:00	2024-11-08T05:00:00	1	Precipitación	0
114916	7	Sololá	701	Sololá	4	Finca Santa Victoria	6	Junio	2023-06-25T00:00:00	2024-11-08T05:00:00	8	Radiación solar	0
114917	7	Sololá	701	Sololá	4	Finca Santa Victoria	6	Junio	2023-06-25T00:00:00	2024-11-08T06:00:00	2	Temperatura media	11.8
114918	7	Sololá	701	Sololá	4	Finca Santa Victoria	6	Junio	2023-06-25T00:00:00	2024-11-08T06:00:00	4	Temperatura máxima	11.8
114919	7	Sololá	701	Sololá	4	Finca Santa Victoria	6	Junio	2023-06-25T00:00:00	2024-11-08T06:00:00	3	Temperatura mínima	11.5
114920	7	Sololá	701	Sololá	4	Finca Santa Victoria	6	Junio	2023-06-25T00:00:00	2024-11-08T06:00:00	5	Humedad	89
114921	7	Sololá	701	Sololá	4	Finca Santa Victoria	6	Junio	2023-06-25T00:00:00	2024-11-08T06:00:00	6	Velocidad del viento	0
114922	7	Sololá	701	Sololá	4	Finca Santa Victoria	6	Junio	2023-06-25T00:00:00	2024-11-08T06:00:00	7	Dirección del viento	0
114923	7	Sololá	701	Sololá	4	Finca Santa Victoria	6	Junio	2023-06-25T00:00:00	2024-11-08T06:00:00	1	Precipitación	0
114924	7	Sololá	701	Sololá	4	Finca Santa Victoria	6	Junio	2023-06-25T00:00:00	2024-11-08T06:00:00	8	Radiación solar	2
114925	7	Sololá	701	Sololá	4	Finca Santa Victoria	6	Junio	2023-06-25T00:00:00	2024-11-08T07:00:00	2	Temperatura media	13.4
114926	7	Sololá	701	Sololá	4	Finca Santa Victoria	6	Junio	2023-06-25T00:00:00	2024-11-08T07:00:00	4	Temperatura máxima	13.4
114927	7	Sololá	701	Sololá	4	Finca Santa Victoria	6	Junio	2023-06-25T00:00:00	2024-11-08T07:00:00	3	Temperatura mínima	11.8
114928	7	Sololá	701	Sololá	4	Finca Santa Victoria	6	Junio	2023-06-25T00:00:00	2024-11-08T07:00:00	5	Humedad	86
114929	7	Sololá	701	Sololá	4	Finca Santa Victoria	6	Junio	2023-06-25T00:00:00	2024-11-08T07:00:00	6	Velocidad del viento	0
114930	7	Sololá	701	Sololá	4	Finca Santa Victoria	6	Junio	2023-06-25T00:00:00	2024-11-08T07:00:00	7	Dirección del viento	0
114931	7	Sololá	701	Sololá	4	Finca Santa Victoria	6	Junio	2023-06-25T00:00:00	2024-11-08T07:00:00	1	Precipitación	0
114932	7	Sololá	701	Sololá	4	Finca Santa Victoria	6	Junio	2023-06-25T00:00:00	2024-11-08T07:00:00	8	Radiación solar	49
114933	7	Sololá	701	Sololá	4	Finca Santa Victoria	6	Junio	2023-06-25T00:00:00	2024-11-08T08:00:00	2	Temperatura media	16.9
114934	7	Sololá	701	Sololá	4	Finca Santa Victoria	6	Junio	2023-06-25T00:00:00	2024-11-08T08:00:00	4	Temperatura máxima	16.9
114935	7	Sololá	701	Sololá	4	Finca Santa Victoria	6	Junio	2023-06-25T00:00:00	2024-11-08T08:00:00	3	Temperatura mínima	13.4
114936	7	Sololá	701	Sololá	4	Finca Santa Victoria	6	Junio	2023-06-25T00:00:00	2024-11-08T08:00:00	5	Humedad	76
114937	7	Sololá	701	Sololá	4	Finca Santa Victoria	6	Junio	2023-06-25T00:00:00	2024-11-08T08:00:00	6	Velocidad del viento	0
114938	7	Sololá	701	Sololá	4	Finca Santa Victoria	6	Junio	2023-06-25T00:00:00	2024-11-08T08:00:00	7	Dirección del viento	0
114939	7	Sololá	701	Sololá	4	Finca Santa Victoria	6	Junio	2023-06-25T00:00:00	2024-11-08T08:00:00	1	Precipitación	0
114940	7	Sololá	701	Sololá	4	Finca Santa Victoria	6	Junio	2023-06-25T00:00:00	2024-11-08T08:00:00	8	Radiación solar	229
114941	7	Sololá	701	Sololá	4	Finca Santa Victoria	6	Junio	2023-06-25T00:00:00	2024-11-08T09:00:00	2	Temperatura media	18.1
114942	7	Sololá	701	Sololá	4	Finca Santa Victoria	6	Junio	2023-06-25T00:00:00	2024-11-08T09:00:00	4	Temperatura máxima	18.2
114943	7	Sololá	701	Sololá	4	Finca Santa Victoria	6	Junio	2023-06-25T00:00:00	2024-11-08T09:00:00	3	Temperatura mínima	16.9
114944	7	Sololá	701	Sololá	4	Finca Santa Victoria	6	Junio	2023-06-25T00:00:00	2024-11-08T09:00:00	5	Humedad	59
114945	7	Sololá	701	Sololá	4	Finca Santa Victoria	6	Junio	2023-06-25T00:00:00	2024-11-08T09:00:00	6	Velocidad del viento	1.6
114946	7	Sololá	701	Sololá	4	Finca Santa Victoria	6	Junio	2023-06-25T00:00:00	2024-11-08T09:00:00	7	Dirección del viento	1.61
114947	7	Sololá	701	Sololá	4	Finca Santa Victoria	6	Junio	2023-06-25T00:00:00	2024-11-08T09:00:00	1	Precipitación	0
114948	7	Sololá	701	Sololá	4	Finca Santa Victoria	6	Junio	2023-06-25T00:00:00	2024-11-08T09:00:00	8	Radiación solar	391
114949	7	Sololá	701	Sololá	4	Finca Santa Victoria	6	Junio	2023-06-25T00:00:00	2024-11-08T10:00:00	2	Temperatura media	19.4
114950	7	Sololá	701	Sololá	4	Finca Santa Victoria	6	Junio	2023-06-25T00:00:00	2024-11-08T10:00:00	4	Temperatura máxima	19.6
114951	7	Sololá	701	Sololá	4	Finca Santa Victoria	6	Junio	2023-06-25T00:00:00	2024-11-08T10:00:00	3	Temperatura mínima	18.1
114952	7	Sololá	701	Sololá	4	Finca Santa Victoria	6	Junio	2023-06-25T00:00:00	2024-11-08T10:00:00	5	Humedad	68
114953	7	Sololá	701	Sololá	4	Finca Santa Victoria	6	Junio	2023-06-25T00:00:00	2024-11-08T10:00:00	6	Velocidad del viento	1.6
114954	7	Sololá	701	Sololá	4	Finca Santa Victoria	6	Junio	2023-06-25T00:00:00	2024-11-08T10:00:00	7	Dirección del viento	1.61
114955	7	Sololá	701	Sololá	4	Finca Santa Victoria	6	Junio	2023-06-25T00:00:00	2024-11-08T10:00:00	1	Precipitación	0
114956	7	Sololá	701	Sololá	4	Finca Santa Victoria	6	Junio	2023-06-25T00:00:00	2024-11-08T10:00:00	8	Radiación solar	324
114957	7	Sololá	701	Sololá	4	Finca Santa Victoria	6	Junio	2023-06-25T00:00:00	2024-11-08T11:00:00	2	Temperatura media	20.7
114958	7	Sololá	701	Sololá	4	Finca Santa Victoria	6	Junio	2023-06-25T00:00:00	2024-11-08T11:00:00	4	Temperatura máxima	20.7
114959	7	Sololá	701	Sololá	4	Finca Santa Victoria	6	Junio	2023-06-25T00:00:00	2024-11-08T11:00:00	3	Temperatura mínima	18.9
114960	7	Sololá	701	Sololá	4	Finca Santa Victoria	6	Junio	2023-06-25T00:00:00	2024-11-08T11:00:00	5	Humedad	58
114961	7	Sololá	701	Sololá	4	Finca Santa Victoria	6	Junio	2023-06-25T00:00:00	2024-11-08T11:00:00	6	Velocidad del viento	3.2
114962	7	Sololá	701	Sololá	4	Finca Santa Victoria	6	Junio	2023-06-25T00:00:00	2024-11-08T11:00:00	7	Dirección del viento	3.22
114963	7	Sololá	701	Sololá	4	Finca Santa Victoria	6	Junio	2023-06-25T00:00:00	2024-11-08T11:00:00	1	Precipitación	0
114964	7	Sololá	701	Sololá	4	Finca Santa Victoria	6	Junio	2023-06-25T00:00:00	2024-11-08T11:00:00	8	Radiación solar	324
114965	7	Sololá	701	Sololá	4	Finca Santa Victoria	6	Junio	2023-06-25T00:00:00	2024-11-08T12:00:00	2	Temperatura media	21.2
114966	7	Sololá	701	Sololá	4	Finca Santa Victoria	6	Junio	2023-06-25T00:00:00	2024-11-08T12:00:00	4	Temperatura máxima	21.3
114967	7	Sololá	701	Sololá	4	Finca Santa Victoria	6	Junio	2023-06-25T00:00:00	2024-11-08T12:00:00	3	Temperatura mínima	20.6
114968	7	Sololá	701	Sololá	4	Finca Santa Victoria	6	Junio	2023-06-25T00:00:00	2024-11-08T12:00:00	5	Humedad	57
114969	7	Sololá	701	Sololá	4	Finca Santa Victoria	6	Junio	2023-06-25T00:00:00	2024-11-08T12:00:00	6	Velocidad del viento	3.2
114970	7	Sololá	701	Sololá	4	Finca Santa Victoria	6	Junio	2023-06-25T00:00:00	2024-11-08T12:00:00	7	Dirección del viento	3.22
114971	7	Sololá	701	Sololá	4	Finca Santa Victoria	6	Junio	2023-06-25T00:00:00	2024-11-08T12:00:00	1	Precipitación	0
114972	7	Sololá	701	Sololá	4	Finca Santa Victoria	6	Junio	2023-06-25T00:00:00	2024-11-08T12:00:00	8	Radiación solar	887
114973	7	Sololá	701	Sololá	4	Finca Santa Victoria	6	Junio	2023-06-25T00:00:00	2024-11-08T13:00:00	2	Temperatura media	21.9
114974	7	Sololá	701	Sololá	4	Finca Santa Victoria	6	Junio	2023-06-25T00:00:00	2024-11-08T13:00:00	4	Temperatura máxima	22.1
114975	7	Sololá	701	Sololá	4	Finca Santa Victoria	6	Junio	2023-06-25T00:00:00	2024-11-08T13:00:00	3	Temperatura mínima	21.1
114976	7	Sololá	701	Sololá	4	Finca Santa Victoria	6	Junio	2023-06-25T00:00:00	2024-11-08T13:00:00	5	Humedad	51
114977	7	Sololá	701	Sololá	4	Finca Santa Victoria	6	Junio	2023-06-25T00:00:00	2024-11-08T13:00:00	6	Velocidad del viento	4.8
114978	7	Sololá	701	Sololá	4	Finca Santa Victoria	6	Junio	2023-06-25T00:00:00	2024-11-08T13:00:00	7	Dirección del viento	4.83
114979	7	Sololá	701	Sololá	4	Finca Santa Victoria	6	Junio	2023-06-25T00:00:00	2024-11-08T13:00:00	1	Precipitación	0
114980	7	Sololá	701	Sololá	4	Finca Santa Victoria	6	Junio	2023-06-25T00:00:00	2024-11-08T13:00:00	8	Radiación solar	972
114981	7	Sololá	701	Sololá	4	Finca Santa Victoria	6	Junio	2023-06-25T00:00:00	2024-11-08T14:00:00	2	Temperatura media	21.3
114982	7	Sololá	701	Sololá	4	Finca Santa Victoria	6	Junio	2023-06-25T00:00:00	2024-11-08T14:00:00	4	Temperatura máxima	21.9
114983	7	Sololá	701	Sololá	4	Finca Santa Victoria	6	Junio	2023-06-25T00:00:00	2024-11-08T14:00:00	3	Temperatura mínima	21.3
114984	7	Sololá	701	Sololá	4	Finca Santa Victoria	6	Junio	2023-06-25T00:00:00	2024-11-08T14:00:00	5	Humedad	46
114985	7	Sololá	701	Sololá	4	Finca Santa Victoria	6	Junio	2023-06-25T00:00:00	2024-11-08T14:00:00	6	Velocidad del viento	4.8
114986	7	Sololá	701	Sololá	4	Finca Santa Victoria	6	Junio	2023-06-25T00:00:00	2024-11-08T14:00:00	7	Dirección del viento	4.83
114987	7	Sololá	701	Sololá	4	Finca Santa Victoria	6	Junio	2023-06-25T00:00:00	2024-11-08T14:00:00	1	Precipitación	0
114988	7	Sololá	701	Sololá	4	Finca Santa Victoria	6	Junio	2023-06-25T00:00:00	2024-11-08T14:00:00	8	Radiación solar	938
114989	7	Sololá	701	Sololá	4	Finca Santa Victoria	6	Junio	2023-06-25T00:00:00	2024-11-08T15:00:00	2	Temperatura media	21.5
114990	7	Sololá	701	Sololá	4	Finca Santa Victoria	6	Junio	2023-06-25T00:00:00	2024-11-08T15:00:00	4	Temperatura máxima	21.6
114991	7	Sololá	701	Sololá	4	Finca Santa Victoria	6	Junio	2023-06-25T00:00:00	2024-11-08T15:00:00	3	Temperatura mínima	20.2
114992	7	Sololá	701	Sololá	4	Finca Santa Victoria	6	Junio	2023-06-25T00:00:00	2024-11-08T15:00:00	5	Humedad	50
114993	7	Sololá	701	Sololá	4	Finca Santa Victoria	6	Junio	2023-06-25T00:00:00	2024-11-08T15:00:00	6	Velocidad del viento	3.2
114994	7	Sololá	701	Sololá	4	Finca Santa Victoria	6	Junio	2023-06-25T00:00:00	2024-11-08T15:00:00	7	Dirección del viento	3.22
114995	7	Sololá	701	Sololá	4	Finca Santa Victoria	6	Junio	2023-06-25T00:00:00	2024-11-08T15:00:00	1	Precipitación	0
114996	7	Sololá	701	Sololá	4	Finca Santa Victoria	6	Junio	2023-06-25T00:00:00	2024-11-08T15:00:00	8	Radiación solar	299
114997	7	Sololá	701	Sololá	4	Finca Santa Victoria	6	Junio	2023-06-25T00:00:00	2024-11-08T16:00:00	2	Temperatura media	20.4
114998	7	Sololá	701	Sololá	4	Finca Santa Victoria	6	Junio	2023-06-25T00:00:00	2024-11-08T16:00:00	4	Temperatura máxima	21.7
114999	7	Sololá	701	Sololá	4	Finca Santa Victoria	6	Junio	2023-06-25T00:00:00	2024-11-08T16:00:00	3	Temperatura mínima	20.1
115000	7	Sololá	701	Sololá	4	Finca Santa Victoria	6	Junio	2023-06-25T00:00:00	2024-11-08T16:00:00	5	Humedad	57
115001	7	Sololá	701	Sololá	4	Finca Santa Victoria	6	Junio	2023-06-25T00:00:00	2024-11-08T16:00:00	6	Velocidad del viento	3.2
115002	7	Sololá	701	Sololá	4	Finca Santa Victoria	6	Junio	2023-06-25T00:00:00	2024-11-08T16:00:00	7	Dirección del viento	3.22
115003	7	Sololá	701	Sololá	4	Finca Santa Victoria	6	Junio	2023-06-25T00:00:00	2024-11-08T16:00:00	1	Precipitación	0
115004	7	Sololá	701	Sololá	4	Finca Santa Victoria	6	Junio	2023-06-25T00:00:00	2024-11-08T16:00:00	8	Radiación solar	134
115005	7	Sololá	701	Sololá	4	Finca Santa Victoria	6	Junio	2023-06-25T00:00:00	2024-11-08T17:00:00	2	Temperatura media	19.9
115006	7	Sololá	701	Sololá	4	Finca Santa Victoria	6	Junio	2023-06-25T00:00:00	2024-11-08T17:00:00	4	Temperatura máxima	20.4
115007	7	Sololá	701	Sololá	4	Finca Santa Victoria	6	Junio	2023-06-25T00:00:00	2024-11-08T17:00:00	3	Temperatura mínima	19.8
115008	7	Sololá	701	Sololá	4	Finca Santa Victoria	6	Junio	2023-06-25T00:00:00	2024-11-08T17:00:00	5	Humedad	56
115009	7	Sololá	701	Sololá	4	Finca Santa Victoria	6	Junio	2023-06-25T00:00:00	2024-11-08T17:00:00	6	Velocidad del viento	1.6
115010	7	Sololá	701	Sololá	4	Finca Santa Victoria	6	Junio	2023-06-25T00:00:00	2024-11-08T17:00:00	7	Dirección del viento	1.61
115011	7	Sololá	701	Sololá	4	Finca Santa Victoria	6	Junio	2023-06-25T00:00:00	2024-11-08T17:00:00	1	Precipitación	0
115012	7	Sololá	701	Sololá	4	Finca Santa Victoria	6	Junio	2023-06-25T00:00:00	2024-11-08T17:00:00	8	Radiación solar	124
115013	7	Sololá	701	Sololá	4	Finca Santa Victoria	6	Junio	2023-06-25T00:00:00	2024-11-08T18:00:00	2	Temperatura media	17.8
115014	7	Sololá	701	Sololá	4	Finca Santa Victoria	6	Junio	2023-06-25T00:00:00	2024-11-08T18:00:00	4	Temperatura máxima	19.8
115015	7	Sololá	701	Sololá	4	Finca Santa Victoria	6	Junio	2023-06-25T00:00:00	2024-11-08T18:00:00	3	Temperatura mínima	17.8
115016	7	Sololá	701	Sololá	4	Finca Santa Victoria	6	Junio	2023-06-25T00:00:00	2024-11-08T18:00:00	5	Humedad	74
115017	7	Sololá	701	Sololá	4	Finca Santa Victoria	6	Junio	2023-06-25T00:00:00	2024-11-08T18:00:00	6	Velocidad del viento	1.6
115018	7	Sololá	701	Sololá	4	Finca Santa Victoria	6	Junio	2023-06-25T00:00:00	2024-11-08T18:00:00	7	Dirección del viento	1.61
115019	7	Sololá	701	Sololá	4	Finca Santa Victoria	6	Junio	2023-06-25T00:00:00	2024-11-08T18:00:00	1	Precipitación	0
115020	7	Sololá	701	Sololá	4	Finca Santa Victoria	6	Junio	2023-06-25T00:00:00	2024-11-08T18:00:00	8	Radiación solar	63
115021	7	Sololá	701	Sololá	4	Finca Santa Victoria	6	Junio	2023-06-25T00:00:00	2024-11-08T19:00:00	2	Temperatura media	16.2
115022	7	Sololá	701	Sololá	4	Finca Santa Victoria	6	Junio	2023-06-25T00:00:00	2024-11-08T19:00:00	4	Temperatura máxima	17.8
115023	7	Sololá	701	Sololá	4	Finca Santa Victoria	6	Junio	2023-06-25T00:00:00	2024-11-08T19:00:00	3	Temperatura mínima	16.2
115024	7	Sololá	701	Sololá	4	Finca Santa Victoria	6	Junio	2023-06-25T00:00:00	2024-11-08T19:00:00	5	Humedad	78
115025	7	Sololá	701	Sololá	4	Finca Santa Victoria	6	Junio	2023-06-25T00:00:00	2024-11-08T19:00:00	6	Velocidad del viento	3.2
115026	7	Sololá	701	Sololá	4	Finca Santa Victoria	6	Junio	2023-06-25T00:00:00	2024-11-08T19:00:00	7	Dirección del viento	3.22
115027	7	Sololá	701	Sololá	4	Finca Santa Victoria	6	Junio	2023-06-25T00:00:00	2024-11-08T19:00:00	1	Precipitación	0
115028	7	Sololá	701	Sololá	4	Finca Santa Victoria	6	Junio	2023-06-25T00:00:00	2024-11-08T19:00:00	8	Radiación solar	0
115029	7	Sololá	701	Sololá	4	Finca Santa Victoria	6	Junio	2023-06-25T00:00:00	2024-11-08T20:00:00	2	Temperatura media	15.1
115030	7	Sololá	701	Sololá	4	Finca Santa Victoria	6	Junio	2023-06-25T00:00:00	2024-11-08T20:00:00	4	Temperatura máxima	16.2
115031	7	Sololá	701	Sololá	4	Finca Santa Victoria	6	Junio	2023-06-25T00:00:00	2024-11-08T20:00:00	3	Temperatura mínima	15.1
115032	7	Sololá	701	Sololá	4	Finca Santa Victoria	6	Junio	2023-06-25T00:00:00	2024-11-08T20:00:00	5	Humedad	78
115033	7	Sololá	701	Sololá	4	Finca Santa Victoria	6	Junio	2023-06-25T00:00:00	2024-11-08T20:00:00	6	Velocidad del viento	3.2
115034	7	Sololá	701	Sololá	4	Finca Santa Victoria	6	Junio	2023-06-25T00:00:00	2024-11-08T20:00:00	7	Dirección del viento	3.22
115035	7	Sololá	701	Sololá	4	Finca Santa Victoria	6	Junio	2023-06-25T00:00:00	2024-11-08T20:00:00	1	Precipitación	0
115036	7	Sololá	701	Sololá	4	Finca Santa Victoria	6	Junio	2023-06-25T00:00:00	2024-11-08T20:00:00	8	Radiación solar	0
115037	7	Sololá	701	Sololá	4	Finca Santa Victoria	6	Junio	2023-06-25T00:00:00	2024-11-08T21:00:00	2	Temperatura media	14.3
115038	7	Sololá	701	Sololá	4	Finca Santa Victoria	6	Junio	2023-06-25T00:00:00	2024-11-08T21:00:00	4	Temperatura máxima	15.1
115039	7	Sololá	701	Sololá	4	Finca Santa Victoria	6	Junio	2023-06-25T00:00:00	2024-11-08T21:00:00	3	Temperatura mínima	14.3
115040	7	Sololá	701	Sololá	4	Finca Santa Victoria	6	Junio	2023-06-25T00:00:00	2024-11-08T21:00:00	5	Humedad	75
115041	7	Sololá	701	Sololá	4	Finca Santa Victoria	6	Junio	2023-06-25T00:00:00	2024-11-08T21:00:00	6	Velocidad del viento	1.6
115042	7	Sololá	701	Sololá	4	Finca Santa Victoria	6	Junio	2023-06-25T00:00:00	2024-11-08T21:00:00	7	Dirección del viento	1.61
115043	7	Sololá	701	Sololá	4	Finca Santa Victoria	6	Junio	2023-06-25T00:00:00	2024-11-08T21:00:00	1	Precipitación	0
115044	7	Sololá	701	Sololá	4	Finca Santa Victoria	6	Junio	2023-06-25T00:00:00	2024-11-08T21:00:00	8	Radiación solar	0
115045	7	Sololá	701	Sololá	4	Finca Santa Victoria	6	Junio	2023-06-25T00:00:00	2024-11-08T22:00:00	2	Temperatura media	13.8
115046	7	Sololá	701	Sololá	4	Finca Santa Victoria	6	Junio	2023-06-25T00:00:00	2024-11-08T22:00:00	4	Temperatura máxima	14.3
115047	7	Sololá	701	Sololá	4	Finca Santa Victoria	6	Junio	2023-06-25T00:00:00	2024-11-08T22:00:00	3	Temperatura mínima	13.8
115048	7	Sololá	701	Sololá	4	Finca Santa Victoria	6	Junio	2023-06-25T00:00:00	2024-11-08T22:00:00	5	Humedad	73
115049	7	Sololá	701	Sololá	4	Finca Santa Victoria	6	Junio	2023-06-25T00:00:00	2024-11-08T22:00:00	6	Velocidad del viento	3.2
115050	7	Sololá	701	Sololá	4	Finca Santa Victoria	6	Junio	2023-06-25T00:00:00	2024-11-08T22:00:00	7	Dirección del viento	3.22
115051	7	Sololá	701	Sololá	4	Finca Santa Victoria	6	Junio	2023-06-25T00:00:00	2024-11-08T22:00:00	1	Precipitación	0
115052	7	Sololá	701	Sololá	4	Finca Santa Victoria	6	Junio	2023-06-25T00:00:00	2024-11-08T22:00:00	8	Radiación solar	0
115053	7	Sololá	701	Sololá	4	Finca Santa Victoria	6	Junio	2023-06-25T00:00:00	2024-11-08T23:00:00	2	Temperatura media	13.1
115054	7	Sololá	701	Sololá	4	Finca Santa Victoria	6	Junio	2023-06-25T00:00:00	2024-11-08T23:00:00	4	Temperatura máxima	13.8
115055	7	Sololá	701	Sololá	4	Finca Santa Victoria	6	Junio	2023-06-25T00:00:00	2024-11-08T23:00:00	3	Temperatura mínima	13.1
115056	7	Sololá	701	Sololá	4	Finca Santa Victoria	6	Junio	2023-06-25T00:00:00	2024-11-08T23:00:00	5	Humedad	76
115057	7	Sololá	701	Sololá	4	Finca Santa Victoria	6	Junio	2023-06-25T00:00:00	2024-11-08T23:00:00	6	Velocidad del viento	1.6
115058	7	Sololá	701	Sololá	4	Finca Santa Victoria	6	Junio	2023-06-25T00:00:00	2024-11-08T23:00:00	7	Dirección del viento	1.61
115059	7	Sololá	701	Sololá	4	Finca Santa Victoria	6	Junio	2023-06-25T00:00:00	2024-11-08T23:00:00	1	Precipitación	0
115060	7	Sololá	701	Sololá	4	Finca Santa Victoria	6	Junio	2023-06-25T00:00:00	2024-11-08T23:00:00	8	Radiación solar	0
115061	7	Sololá	701	Sololá	4	Finca Santa Victoria	6	Junio	2023-06-26T00:00:00	2024-11-08T00:00:00	2	Temperatura media	12.4
115062	7	Sololá	701	Sololá	4	Finca Santa Victoria	6	Junio	2023-06-26T00:00:00	2024-11-08T00:00:00	4	Temperatura máxima	13.1
115063	7	Sololá	701	Sololá	4	Finca Santa Victoria	6	Junio	2023-06-26T00:00:00	2024-11-08T00:00:00	3	Temperatura mínima	12.4
115064	7	Sololá	701	Sololá	4	Finca Santa Victoria	6	Junio	2023-06-26T00:00:00	2024-11-08T00:00:00	5	Humedad	80
115065	7	Sololá	701	Sololá	4	Finca Santa Victoria	6	Junio	2023-06-26T00:00:00	2024-11-08T00:00:00	6	Velocidad del viento	0
115066	7	Sololá	701	Sololá	4	Finca Santa Victoria	6	Junio	2023-06-26T00:00:00	2024-11-08T00:00:00	7	Dirección del viento	0
115067	7	Sololá	701	Sololá	4	Finca Santa Victoria	6	Junio	2023-06-26T00:00:00	2024-11-08T00:00:00	1	Precipitación	0
115068	7	Sololá	701	Sololá	4	Finca Santa Victoria	6	Junio	2023-06-26T00:00:00	2024-11-08T00:00:00	8	Radiación solar	0
115069	7	Sololá	701	Sololá	4	Finca Santa Victoria	6	Junio	2023-06-26T00:00:00	2024-11-08T01:00:00	2	Temperatura media	12.9
115070	7	Sololá	701	Sololá	4	Finca Santa Victoria	6	Junio	2023-06-26T00:00:00	2024-11-08T01:00:00	4	Temperatura máxima	12.9
115071	7	Sololá	701	Sololá	4	Finca Santa Victoria	6	Junio	2023-06-26T00:00:00	2024-11-08T01:00:00	3	Temperatura mínima	12.4
115072	7	Sololá	701	Sololá	4	Finca Santa Victoria	6	Junio	2023-06-26T00:00:00	2024-11-08T01:00:00	5	Humedad	81
115073	7	Sololá	701	Sololá	4	Finca Santa Victoria	6	Junio	2023-06-26T00:00:00	2024-11-08T01:00:00	6	Velocidad del viento	1.6
115074	7	Sololá	701	Sololá	4	Finca Santa Victoria	6	Junio	2023-06-26T00:00:00	2024-11-08T01:00:00	7	Dirección del viento	1.61
115075	7	Sololá	701	Sololá	4	Finca Santa Victoria	6	Junio	2023-06-26T00:00:00	2024-11-08T01:00:00	1	Precipitación	0
115076	7	Sololá	701	Sololá	4	Finca Santa Victoria	6	Junio	2023-06-26T00:00:00	2024-11-08T01:00:00	8	Radiación solar	0
115077	7	Sololá	701	Sololá	4	Finca Santa Victoria	6	Junio	2023-06-26T00:00:00	2024-11-08T02:00:00	2	Temperatura media	13.1
115078	7	Sololá	701	Sololá	4	Finca Santa Victoria	6	Junio	2023-06-26T00:00:00	2024-11-08T02:00:00	4	Temperatura máxima	13.1
115079	7	Sololá	701	Sololá	4	Finca Santa Victoria	6	Junio	2023-06-26T00:00:00	2024-11-08T02:00:00	3	Temperatura mínima	12.9
115080	7	Sololá	701	Sololá	4	Finca Santa Victoria	6	Junio	2023-06-26T00:00:00	2024-11-08T02:00:00	5	Humedad	82
115081	7	Sololá	701	Sololá	4	Finca Santa Victoria	6	Junio	2023-06-26T00:00:00	2024-11-08T02:00:00	6	Velocidad del viento	1.6
115082	7	Sololá	701	Sololá	4	Finca Santa Victoria	6	Junio	2023-06-26T00:00:00	2024-11-08T02:00:00	7	Dirección del viento	1.61
115083	7	Sololá	701	Sololá	4	Finca Santa Victoria	6	Junio	2023-06-26T00:00:00	2024-11-08T02:00:00	1	Precipitación	0
115084	7	Sololá	701	Sololá	4	Finca Santa Victoria	6	Junio	2023-06-26T00:00:00	2024-11-08T02:00:00	8	Radiación solar	0
115085	7	Sololá	701	Sololá	4	Finca Santa Victoria	6	Junio	2023-06-26T00:00:00	2024-11-08T03:00:00	2	Temperatura media	12.9
115086	7	Sololá	701	Sololá	4	Finca Santa Victoria	6	Junio	2023-06-26T00:00:00	2024-11-08T03:00:00	4	Temperatura máxima	13.2
115087	7	Sololá	701	Sololá	4	Finca Santa Victoria	6	Junio	2023-06-26T00:00:00	2024-11-08T03:00:00	3	Temperatura mínima	12.9
115088	7	Sololá	701	Sololá	4	Finca Santa Victoria	6	Junio	2023-06-26T00:00:00	2024-11-08T03:00:00	5	Humedad	76
115089	7	Sololá	701	Sololá	4	Finca Santa Victoria	6	Junio	2023-06-26T00:00:00	2024-11-08T03:00:00	6	Velocidad del viento	1.6
115090	7	Sololá	701	Sololá	4	Finca Santa Victoria	6	Junio	2023-06-26T00:00:00	2024-11-08T03:00:00	7	Dirección del viento	1.61
115091	7	Sololá	701	Sololá	4	Finca Santa Victoria	6	Junio	2023-06-26T00:00:00	2024-11-08T03:00:00	1	Precipitación	0
115092	7	Sololá	701	Sololá	4	Finca Santa Victoria	6	Junio	2023-06-26T00:00:00	2024-11-08T03:00:00	8	Radiación solar	0
115093	7	Sololá	701	Sololá	4	Finca Santa Victoria	6	Junio	2023-06-26T00:00:00	2024-11-08T04:00:00	2	Temperatura media	12.8
115094	7	Sololá	701	Sololá	4	Finca Santa Victoria	6	Junio	2023-06-26T00:00:00	2024-11-08T04:00:00	4	Temperatura máxima	13.2
115095	7	Sololá	701	Sololá	4	Finca Santa Victoria	6	Junio	2023-06-26T00:00:00	2024-11-08T04:00:00	3	Temperatura mínima	12.8
115096	7	Sololá	701	Sololá	4	Finca Santa Victoria	6	Junio	2023-06-26T00:00:00	2024-11-08T04:00:00	5	Humedad	73
115097	7	Sololá	701	Sololá	4	Finca Santa Victoria	6	Junio	2023-06-26T00:00:00	2024-11-08T04:00:00	6	Velocidad del viento	1.6
115098	7	Sololá	701	Sololá	4	Finca Santa Victoria	6	Junio	2023-06-26T00:00:00	2024-11-08T04:00:00	7	Dirección del viento	1.61
115099	7	Sololá	701	Sololá	4	Finca Santa Victoria	6	Junio	2023-06-26T00:00:00	2024-11-08T04:00:00	1	Precipitación	0
115100	7	Sololá	701	Sololá	4	Finca Santa Victoria	6	Junio	2023-06-26T00:00:00	2024-11-08T04:00:00	8	Radiación solar	0
115101	7	Sololá	701	Sololá	4	Finca Santa Victoria	6	Junio	2023-06-26T00:00:00	2024-11-08T05:00:00	2	Temperatura media	12.7
115102	7	Sololá	701	Sololá	4	Finca Santa Victoria	6	Junio	2023-06-26T00:00:00	2024-11-08T05:00:00	4	Temperatura máxima	12.9
115103	7	Sololá	701	Sololá	4	Finca Santa Victoria	6	Junio	2023-06-26T00:00:00	2024-11-08T05:00:00	3	Temperatura mínima	12.7
115104	7	Sololá	701	Sololá	4	Finca Santa Victoria	6	Junio	2023-06-26T00:00:00	2024-11-08T05:00:00	5	Humedad	67
115105	7	Sololá	701	Sololá	4	Finca Santa Victoria	6	Junio	2023-06-26T00:00:00	2024-11-08T05:00:00	6	Velocidad del viento	1.6
115106	7	Sololá	701	Sololá	4	Finca Santa Victoria	6	Junio	2023-06-26T00:00:00	2024-11-08T05:00:00	7	Dirección del viento	1.61
115107	7	Sololá	701	Sololá	4	Finca Santa Victoria	6	Junio	2023-06-26T00:00:00	2024-11-08T05:00:00	1	Precipitación	0
115108	7	Sololá	701	Sololá	4	Finca Santa Victoria	6	Junio	2023-06-26T00:00:00	2024-11-08T05:00:00	8	Radiación solar	0
115109	7	Sololá	701	Sololá	4	Finca Santa Victoria	6	Junio	2023-06-26T00:00:00	2024-11-08T06:00:00	2	Temperatura media	13.1
115110	7	Sololá	701	Sololá	4	Finca Santa Victoria	6	Junio	2023-06-26T00:00:00	2024-11-08T06:00:00	4	Temperatura máxima	13.1
115111	7	Sololá	701	Sololá	4	Finca Santa Victoria	6	Junio	2023-06-26T00:00:00	2024-11-08T06:00:00	3	Temperatura mínima	12.7
115112	7	Sololá	701	Sololá	4	Finca Santa Victoria	6	Junio	2023-06-26T00:00:00	2024-11-08T06:00:00	5	Humedad	70
115113	7	Sololá	701	Sololá	4	Finca Santa Victoria	6	Junio	2023-06-26T00:00:00	2024-11-08T06:00:00	6	Velocidad del viento	1.6
115114	7	Sololá	701	Sololá	4	Finca Santa Victoria	6	Junio	2023-06-26T00:00:00	2024-11-08T06:00:00	7	Dirección del viento	1.61
115115	7	Sololá	701	Sololá	4	Finca Santa Victoria	6	Junio	2023-06-26T00:00:00	2024-11-08T06:00:00	1	Precipitación	0
115116	7	Sololá	701	Sololá	4	Finca Santa Victoria	6	Junio	2023-06-26T00:00:00	2024-11-08T06:00:00	8	Radiación solar	2
115117	7	Sololá	701	Sololá	4	Finca Santa Victoria	6	Junio	2023-06-26T00:00:00	2024-11-08T07:00:00	2	Temperatura media	13.8
115118	7	Sololá	701	Sololá	4	Finca Santa Victoria	6	Junio	2023-06-26T00:00:00	2024-11-08T07:00:00	4	Temperatura máxima	13.8
115119	7	Sololá	701	Sololá	4	Finca Santa Victoria	6	Junio	2023-06-26T00:00:00	2024-11-08T07:00:00	3	Temperatura mínima	13.1
115120	7	Sololá	701	Sololá	4	Finca Santa Victoria	6	Junio	2023-06-26T00:00:00	2024-11-08T07:00:00	5	Humedad	73
115121	7	Sololá	701	Sololá	4	Finca Santa Victoria	6	Junio	2023-06-26T00:00:00	2024-11-08T07:00:00	6	Velocidad del viento	1.6
115122	7	Sololá	701	Sololá	4	Finca Santa Victoria	6	Junio	2023-06-26T00:00:00	2024-11-08T07:00:00	7	Dirección del viento	1.61
115123	7	Sololá	701	Sololá	4	Finca Santa Victoria	6	Junio	2023-06-26T00:00:00	2024-11-08T07:00:00	1	Precipitación	0
115124	7	Sololá	701	Sololá	4	Finca Santa Victoria	6	Junio	2023-06-26T00:00:00	2024-11-08T07:00:00	8	Radiación solar	33
115125	7	Sololá	701	Sololá	4	Finca Santa Victoria	6	Junio	2023-06-26T00:00:00	2024-11-08T08:00:00	2	Temperatura media	15.3
115126	7	Sololá	701	Sololá	4	Finca Santa Victoria	6	Junio	2023-06-26T00:00:00	2024-11-08T08:00:00	4	Temperatura máxima	15.3
115127	7	Sololá	701	Sololá	4	Finca Santa Victoria	6	Junio	2023-06-26T00:00:00	2024-11-08T08:00:00	3	Temperatura mínima	13.8
115128	7	Sololá	701	Sololá	4	Finca Santa Victoria	6	Junio	2023-06-26T00:00:00	2024-11-08T08:00:00	5	Humedad	73
115129	7	Sololá	701	Sololá	4	Finca Santa Victoria	6	Junio	2023-06-26T00:00:00	2024-11-08T08:00:00	6	Velocidad del viento	1.6
115130	7	Sololá	701	Sololá	4	Finca Santa Victoria	6	Junio	2023-06-26T00:00:00	2024-11-08T08:00:00	7	Dirección del viento	1.61
115131	7	Sololá	701	Sololá	4	Finca Santa Victoria	6	Junio	2023-06-26T00:00:00	2024-11-08T08:00:00	1	Precipitación	0
115132	7	Sololá	701	Sololá	4	Finca Santa Victoria	6	Junio	2023-06-26T00:00:00	2024-11-08T08:00:00	8	Radiación solar	118
115133	7	Sololá	701	Sololá	4	Finca Santa Victoria	6	Junio	2023-06-26T00:00:00	2024-11-08T09:00:00	2	Temperatura media	17.4
115134	7	Sololá	701	Sololá	4	Finca Santa Victoria	6	Junio	2023-06-26T00:00:00	2024-11-08T09:00:00	4	Temperatura máxima	17.4
115135	7	Sololá	701	Sololá	4	Finca Santa Victoria	6	Junio	2023-06-26T00:00:00	2024-11-08T09:00:00	3	Temperatura mínima	15.3
115136	7	Sololá	701	Sololá	4	Finca Santa Victoria	6	Junio	2023-06-26T00:00:00	2024-11-08T09:00:00	5	Humedad	69
115137	7	Sololá	701	Sololá	4	Finca Santa Victoria	6	Junio	2023-06-26T00:00:00	2024-11-08T09:00:00	6	Velocidad del viento	1.6
115138	7	Sololá	701	Sololá	4	Finca Santa Victoria	6	Junio	2023-06-26T00:00:00	2024-11-08T09:00:00	7	Dirección del viento	1.61
115139	7	Sololá	701	Sololá	4	Finca Santa Victoria	6	Junio	2023-06-26T00:00:00	2024-11-08T09:00:00	1	Precipitación	0
115140	7	Sololá	701	Sololá	4	Finca Santa Victoria	6	Junio	2023-06-26T00:00:00	2024-11-08T09:00:00	8	Radiación solar	218
115141	7	Sololá	701	Sololá	4	Finca Santa Victoria	6	Junio	2023-06-26T00:00:00	2024-11-08T10:00:00	2	Temperatura media	19.4
115142	7	Sololá	701	Sololá	4	Finca Santa Victoria	6	Junio	2023-06-26T00:00:00	2024-11-08T10:00:00	4	Temperatura máxima	19.6
115143	7	Sololá	701	Sololá	4	Finca Santa Victoria	6	Junio	2023-06-26T00:00:00	2024-11-08T10:00:00	3	Temperatura mínima	17.4
115144	7	Sololá	701	Sololá	4	Finca Santa Victoria	6	Junio	2023-06-26T00:00:00	2024-11-08T10:00:00	5	Humedad	64
115145	7	Sololá	701	Sololá	4	Finca Santa Victoria	6	Junio	2023-06-26T00:00:00	2024-11-08T10:00:00	6	Velocidad del viento	1.6
115146	7	Sololá	701	Sololá	4	Finca Santa Victoria	6	Junio	2023-06-26T00:00:00	2024-11-08T10:00:00	7	Dirección del viento	1.61
115147	7	Sololá	701	Sololá	4	Finca Santa Victoria	6	Junio	2023-06-26T00:00:00	2024-11-08T10:00:00	1	Precipitación	0
115148	7	Sololá	701	Sololá	4	Finca Santa Victoria	6	Junio	2023-06-26T00:00:00	2024-11-08T10:00:00	8	Radiación solar	338
115149	7	Sololá	701	Sololá	4	Finca Santa Victoria	6	Junio	2023-06-26T00:00:00	2024-11-08T11:00:00	2	Temperatura media	21.2
115150	7	Sololá	701	Sololá	4	Finca Santa Victoria	6	Junio	2023-06-26T00:00:00	2024-11-08T11:00:00	4	Temperatura máxima	21.2
115151	7	Sololá	701	Sololá	4	Finca Santa Victoria	6	Junio	2023-06-26T00:00:00	2024-11-08T11:00:00	3	Temperatura mínima	19.4
115152	7	Sololá	701	Sololá	4	Finca Santa Victoria	6	Junio	2023-06-26T00:00:00	2024-11-08T11:00:00	5	Humedad	62
115153	7	Sololá	701	Sololá	4	Finca Santa Victoria	6	Junio	2023-06-26T00:00:00	2024-11-08T11:00:00	6	Velocidad del viento	3.2
115154	7	Sololá	701	Sololá	4	Finca Santa Victoria	6	Junio	2023-06-26T00:00:00	2024-11-08T11:00:00	7	Dirección del viento	3.22
115155	7	Sololá	701	Sololá	4	Finca Santa Victoria	6	Junio	2023-06-26T00:00:00	2024-11-08T11:00:00	1	Precipitación	0
115156	7	Sololá	701	Sololá	4	Finca Santa Victoria	6	Junio	2023-06-26T00:00:00	2024-11-08T11:00:00	8	Radiación solar	276
115157	7	Sololá	701	Sololá	4	Finca Santa Victoria	6	Junio	2023-06-26T00:00:00	2024-11-08T12:00:00	2	Temperatura media	21.4
115158	7	Sololá	701	Sololá	4	Finca Santa Victoria	6	Junio	2023-06-26T00:00:00	2024-11-08T12:00:00	4	Temperatura máxima	22.2
115159	7	Sololá	701	Sololá	4	Finca Santa Victoria	6	Junio	2023-06-26T00:00:00	2024-11-08T12:00:00	3	Temperatura mínima	21.2
115160	7	Sololá	701	Sololá	4	Finca Santa Victoria	6	Junio	2023-06-26T00:00:00	2024-11-08T12:00:00	5	Humedad	60
115161	7	Sololá	701	Sololá	4	Finca Santa Victoria	6	Junio	2023-06-26T00:00:00	2024-11-08T12:00:00	6	Velocidad del viento	4.8
115162	7	Sololá	701	Sololá	4	Finca Santa Victoria	6	Junio	2023-06-26T00:00:00	2024-11-08T12:00:00	7	Dirección del viento	4.83
115163	7	Sololá	701	Sololá	4	Finca Santa Victoria	6	Junio	2023-06-26T00:00:00	2024-11-08T12:00:00	1	Precipitación	0
115164	7	Sololá	701	Sololá	4	Finca Santa Victoria	6	Junio	2023-06-26T00:00:00	2024-11-08T12:00:00	8	Radiación solar	952
115165	7	Sololá	701	Sololá	4	Finca Santa Victoria	6	Junio	2023-06-26T00:00:00	2024-11-08T13:00:00	2	Temperatura media	21.7
115166	7	Sololá	701	Sololá	4	Finca Santa Victoria	6	Junio	2023-06-26T00:00:00	2024-11-08T13:00:00	4	Temperatura máxima	22.5
115167	7	Sololá	701	Sololá	4	Finca Santa Victoria	6	Junio	2023-06-26T00:00:00	2024-11-08T13:00:00	3	Temperatura mínima	21.4
115168	7	Sololá	701	Sololá	4	Finca Santa Victoria	6	Junio	2023-06-26T00:00:00	2024-11-08T13:00:00	5	Humedad	58
115169	7	Sololá	701	Sololá	4	Finca Santa Victoria	6	Junio	2023-06-26T00:00:00	2024-11-08T13:00:00	6	Velocidad del viento	4.8
115170	7	Sololá	701	Sololá	4	Finca Santa Victoria	6	Junio	2023-06-26T00:00:00	2024-11-08T13:00:00	7	Dirección del viento	4.83
115171	7	Sololá	701	Sololá	4	Finca Santa Victoria	6	Junio	2023-06-26T00:00:00	2024-11-08T13:00:00	1	Precipitación	0
115172	7	Sololá	701	Sololá	4	Finca Santa Victoria	6	Junio	2023-06-26T00:00:00	2024-11-08T13:00:00	8	Radiación solar	1013
115173	7	Sololá	701	Sololá	4	Finca Santa Victoria	6	Junio	2023-06-26T00:00:00	2024-11-08T14:00:00	2	Temperatura media	21.3
115174	7	Sololá	701	Sololá	4	Finca Santa Victoria	6	Junio	2023-06-26T00:00:00	2024-11-08T14:00:00	4	Temperatura máxima	22.1
115175	7	Sololá	701	Sololá	4	Finca Santa Victoria	6	Junio	2023-06-26T00:00:00	2024-11-08T14:00:00	3	Temperatura mínima	21.2
115176	7	Sololá	701	Sololá	4	Finca Santa Victoria	6	Junio	2023-06-26T00:00:00	2024-11-08T14:00:00	5	Humedad	64
115177	7	Sololá	701	Sololá	4	Finca Santa Victoria	6	Junio	2023-06-26T00:00:00	2024-11-08T14:00:00	6	Velocidad del viento	3.2
115178	7	Sololá	701	Sololá	4	Finca Santa Victoria	6	Junio	2023-06-26T00:00:00	2024-11-08T14:00:00	7	Dirección del viento	3.22
115179	7	Sololá	701	Sololá	4	Finca Santa Victoria	6	Junio	2023-06-26T00:00:00	2024-11-08T14:00:00	1	Precipitación	0
115180	7	Sololá	701	Sololá	4	Finca Santa Victoria	6	Junio	2023-06-26T00:00:00	2024-11-08T14:00:00	8	Radiación solar	720
115181	7	Sololá	701	Sololá	4	Finca Santa Victoria	6	Junio	2023-06-26T00:00:00	2024-11-08T15:00:00	2	Temperatura media	21.4
115182	7	Sololá	701	Sololá	4	Finca Santa Victoria	6	Junio	2023-06-26T00:00:00	2024-11-08T15:00:00	4	Temperatura máxima	22.1
115183	7	Sololá	701	Sololá	4	Finca Santa Victoria	6	Junio	2023-06-26T00:00:00	2024-11-08T15:00:00	3	Temperatura mínima	21.1
115184	7	Sololá	701	Sololá	4	Finca Santa Victoria	6	Junio	2023-06-26T00:00:00	2024-11-08T15:00:00	5	Humedad	66
115185	7	Sololá	701	Sololá	4	Finca Santa Victoria	6	Junio	2023-06-26T00:00:00	2024-11-08T15:00:00	6	Velocidad del viento	3.2
115186	7	Sololá	701	Sololá	4	Finca Santa Victoria	6	Junio	2023-06-26T00:00:00	2024-11-08T15:00:00	7	Dirección del viento	3.22
115187	7	Sololá	701	Sololá	4	Finca Santa Victoria	6	Junio	2023-06-26T00:00:00	2024-11-08T15:00:00	1	Precipitación	0
115188	7	Sololá	701	Sololá	4	Finca Santa Victoria	6	Junio	2023-06-26T00:00:00	2024-11-08T15:00:00	8	Radiación solar	330
115189	7	Sololá	701	Sololá	4	Finca Santa Victoria	6	Junio	2023-06-26T00:00:00	2024-11-08T16:00:00	2	Temperatura media	21.4
115190	7	Sololá	701	Sololá	4	Finca Santa Victoria	6	Junio	2023-06-26T00:00:00	2024-11-08T16:00:00	4	Temperatura máxima	21.8
115191	7	Sololá	701	Sololá	4	Finca Santa Victoria	6	Junio	2023-06-26T00:00:00	2024-11-08T16:00:00	3	Temperatura mínima	21.4
115192	7	Sololá	701	Sololá	4	Finca Santa Victoria	6	Junio	2023-06-26T00:00:00	2024-11-08T16:00:00	5	Humedad	59
115193	7	Sololá	701	Sololá	4	Finca Santa Victoria	6	Junio	2023-06-26T00:00:00	2024-11-08T16:00:00	6	Velocidad del viento	3.2
115194	7	Sololá	701	Sololá	4	Finca Santa Victoria	6	Junio	2023-06-26T00:00:00	2024-11-08T16:00:00	7	Dirección del viento	3.22
115195	7	Sololá	701	Sololá	4	Finca Santa Victoria	6	Junio	2023-06-26T00:00:00	2024-11-08T16:00:00	1	Precipitación	0
115196	7	Sololá	701	Sololá	4	Finca Santa Victoria	6	Junio	2023-06-26T00:00:00	2024-11-08T16:00:00	8	Radiación solar	183
115197	7	Sololá	701	Sololá	4	Finca Santa Victoria	6	Junio	2023-06-26T00:00:00	2024-11-08T17:00:00	2	Temperatura media	20.9
115198	7	Sololá	701	Sololá	4	Finca Santa Victoria	6	Junio	2023-06-26T00:00:00	2024-11-08T17:00:00	4	Temperatura máxima	21.7
115199	7	Sololá	701	Sololá	4	Finca Santa Victoria	6	Junio	2023-06-26T00:00:00	2024-11-08T17:00:00	3	Temperatura mínima	20.7
115200	7	Sololá	701	Sololá	4	Finca Santa Victoria	6	Junio	2023-06-26T00:00:00	2024-11-08T17:00:00	5	Humedad	64
115201	7	Sololá	701	Sololá	4	Finca Santa Victoria	6	Junio	2023-06-26T00:00:00	2024-11-08T17:00:00	6	Velocidad del viento	1.6
115202	7	Sololá	701	Sololá	4	Finca Santa Victoria	6	Junio	2023-06-26T00:00:00	2024-11-08T17:00:00	7	Dirección del viento	1.61
115203	7	Sololá	701	Sololá	4	Finca Santa Victoria	6	Junio	2023-06-26T00:00:00	2024-11-08T17:00:00	1	Precipitación	0
115204	7	Sololá	701	Sololá	4	Finca Santa Victoria	6	Junio	2023-06-26T00:00:00	2024-11-08T17:00:00	8	Radiación solar	101
115205	7	Sololá	701	Sololá	4	Finca Santa Victoria	6	Junio	2023-06-26T00:00:00	2024-11-08T18:00:00	2	Temperatura media	18.4
115206	7	Sololá	701	Sololá	4	Finca Santa Victoria	6	Junio	2023-06-26T00:00:00	2024-11-08T18:00:00	4	Temperatura máxima	20.9
115207	7	Sololá	701	Sololá	4	Finca Santa Victoria	6	Junio	2023-06-26T00:00:00	2024-11-08T18:00:00	3	Temperatura mínima	18.4
115208	7	Sololá	701	Sololá	4	Finca Santa Victoria	6	Junio	2023-06-26T00:00:00	2024-11-08T18:00:00	5	Humedad	87
115209	7	Sololá	701	Sololá	4	Finca Santa Victoria	6	Junio	2023-06-26T00:00:00	2024-11-08T18:00:00	6	Velocidad del viento	1.6
115210	7	Sololá	701	Sololá	4	Finca Santa Victoria	6	Junio	2023-06-26T00:00:00	2024-11-08T18:00:00	7	Dirección del viento	1.61
115211	7	Sololá	701	Sololá	4	Finca Santa Victoria	6	Junio	2023-06-26T00:00:00	2024-11-08T18:00:00	1	Precipitación	0
115212	7	Sololá	701	Sololá	4	Finca Santa Victoria	6	Junio	2023-06-26T00:00:00	2024-11-08T18:00:00	8	Radiación solar	82
115213	7	Sololá	701	Sololá	4	Finca Santa Victoria	6	Junio	2023-06-26T00:00:00	2024-11-08T19:00:00	2	Temperatura media	16.8
115214	7	Sololá	701	Sololá	4	Finca Santa Victoria	6	Junio	2023-06-26T00:00:00	2024-11-08T19:00:00	4	Temperatura máxima	18.4
115215	7	Sololá	701	Sololá	4	Finca Santa Victoria	6	Junio	2023-06-26T00:00:00	2024-11-08T19:00:00	3	Temperatura mínima	16.8
115216	7	Sololá	701	Sololá	4	Finca Santa Victoria	6	Junio	2023-06-26T00:00:00	2024-11-08T19:00:00	5	Humedad	82
115217	7	Sololá	701	Sololá	4	Finca Santa Victoria	6	Junio	2023-06-26T00:00:00	2024-11-08T19:00:00	6	Velocidad del viento	1.6
115218	7	Sololá	701	Sololá	4	Finca Santa Victoria	6	Junio	2023-06-26T00:00:00	2024-11-08T19:00:00	7	Dirección del viento	1.61
115219	7	Sololá	701	Sololá	4	Finca Santa Victoria	6	Junio	2023-06-26T00:00:00	2024-11-08T19:00:00	1	Precipitación	0
115220	7	Sololá	701	Sololá	4	Finca Santa Victoria	6	Junio	2023-06-26T00:00:00	2024-11-08T19:00:00	8	Radiación solar	0
115221	7	Sololá	701	Sololá	4	Finca Santa Victoria	6	Junio	2023-06-26T00:00:00	2024-11-08T20:00:00	2	Temperatura media	16.3
115222	7	Sololá	701	Sololá	4	Finca Santa Victoria	6	Junio	2023-06-26T00:00:00	2024-11-08T20:00:00	4	Temperatura máxima	16.8
115223	7	Sololá	701	Sololá	4	Finca Santa Victoria	6	Junio	2023-06-26T00:00:00	2024-11-08T20:00:00	3	Temperatura mínima	16.1
115224	7	Sololá	701	Sololá	4	Finca Santa Victoria	6	Junio	2023-06-26T00:00:00	2024-11-08T20:00:00	5	Humedad	84
115225	7	Sololá	701	Sololá	4	Finca Santa Victoria	6	Junio	2023-06-26T00:00:00	2024-11-08T20:00:00	6	Velocidad del viento	0
115226	7	Sololá	701	Sololá	4	Finca Santa Victoria	6	Junio	2023-06-26T00:00:00	2024-11-08T20:00:00	7	Dirección del viento	0
115227	7	Sololá	701	Sololá	4	Finca Santa Victoria	6	Junio	2023-06-26T00:00:00	2024-11-08T20:00:00	1	Precipitación	0
115228	7	Sololá	701	Sololá	4	Finca Santa Victoria	6	Junio	2023-06-26T00:00:00	2024-11-08T20:00:00	8	Radiación solar	0
115229	7	Sololá	701	Sololá	4	Finca Santa Victoria	6	Junio	2023-06-26T00:00:00	2024-11-08T21:00:00	2	Temperatura media	15.4
115230	7	Sololá	701	Sololá	4	Finca Santa Victoria	6	Junio	2023-06-26T00:00:00	2024-11-08T21:00:00	4	Temperatura máxima	16.3
115231	7	Sololá	701	Sololá	4	Finca Santa Victoria	6	Junio	2023-06-26T00:00:00	2024-11-08T21:00:00	3	Temperatura mínima	15.4
115232	7	Sololá	701	Sololá	4	Finca Santa Victoria	6	Junio	2023-06-26T00:00:00	2024-11-08T21:00:00	5	Humedad	84
115233	7	Sololá	701	Sololá	4	Finca Santa Victoria	6	Junio	2023-06-26T00:00:00	2024-11-08T21:00:00	6	Velocidad del viento	1.6
115234	7	Sololá	701	Sololá	4	Finca Santa Victoria	6	Junio	2023-06-26T00:00:00	2024-11-08T21:00:00	7	Dirección del viento	1.61
115235	7	Sololá	701	Sololá	4	Finca Santa Victoria	6	Junio	2023-06-26T00:00:00	2024-11-08T21:00:00	1	Precipitación	0
115236	7	Sololá	701	Sololá	4	Finca Santa Victoria	6	Junio	2023-06-26T00:00:00	2024-11-08T21:00:00	8	Radiación solar	0
115237	7	Sololá	701	Sololá	4	Finca Santa Victoria	6	Junio	2023-06-26T00:00:00	2024-11-08T22:00:00	2	Temperatura media	14.3
115238	7	Sololá	701	Sololá	4	Finca Santa Victoria	6	Junio	2023-06-26T00:00:00	2024-11-08T22:00:00	4	Temperatura máxima	15.4
115239	7	Sololá	701	Sololá	4	Finca Santa Victoria	6	Junio	2023-06-26T00:00:00	2024-11-08T22:00:00	3	Temperatura mínima	14.2
115240	7	Sololá	701	Sololá	4	Finca Santa Victoria	6	Junio	2023-06-26T00:00:00	2024-11-08T22:00:00	5	Humedad	91
115241	7	Sololá	701	Sololá	4	Finca Santa Victoria	6	Junio	2023-06-26T00:00:00	2024-11-08T22:00:00	6	Velocidad del viento	1.6
115242	7	Sololá	701	Sololá	4	Finca Santa Victoria	6	Junio	2023-06-26T00:00:00	2024-11-08T22:00:00	7	Dirección del viento	1.61
115243	7	Sololá	701	Sololá	4	Finca Santa Victoria	6	Junio	2023-06-26T00:00:00	2024-11-08T22:00:00	1	Precipitación	0.4
115244	7	Sololá	701	Sololá	4	Finca Santa Victoria	6	Junio	2023-06-26T00:00:00	2024-11-08T22:00:00	8	Radiación solar	0
115245	7	Sololá	701	Sololá	4	Finca Santa Victoria	6	Junio	2023-06-26T00:00:00	2024-11-08T23:00:00	2	Temperatura media	14.3
115246	7	Sololá	701	Sololá	4	Finca Santa Victoria	6	Junio	2023-06-26T00:00:00	2024-11-08T23:00:00	4	Temperatura máxima	14.3
115247	7	Sololá	701	Sololá	4	Finca Santa Victoria	6	Junio	2023-06-26T00:00:00	2024-11-08T23:00:00	3	Temperatura mínima	13.8
115248	7	Sololá	701	Sololá	4	Finca Santa Victoria	6	Junio	2023-06-26T00:00:00	2024-11-08T23:00:00	5	Humedad	90
115249	7	Sololá	701	Sololá	4	Finca Santa Victoria	6	Junio	2023-06-26T00:00:00	2024-11-08T23:00:00	6	Velocidad del viento	1.6
115250	7	Sololá	701	Sololá	4	Finca Santa Victoria	6	Junio	2023-06-26T00:00:00	2024-11-08T23:00:00	7	Dirección del viento	1.61
115251	7	Sololá	701	Sololá	4	Finca Santa Victoria	6	Junio	2023-06-26T00:00:00	2024-11-08T23:00:00	1	Precipitación	0.2
115252	7	Sololá	701	Sololá	4	Finca Santa Victoria	6	Junio	2023-06-26T00:00:00	2024-11-08T23:00:00	8	Radiación solar	0
115253	7	Sololá	701	Sololá	4	Finca Santa Victoria	6	Junio	2023-06-27T00:00:00	2024-11-08T00:00:00	2	Temperatura media	14.3
115254	7	Sololá	701	Sololá	4	Finca Santa Victoria	6	Junio	2023-06-27T00:00:00	2024-11-08T00:00:00	4	Temperatura máxima	14.3
115255	7	Sololá	701	Sololá	4	Finca Santa Victoria	6	Junio	2023-06-27T00:00:00	2024-11-08T00:00:00	3	Temperatura mínima	14.3
115256	7	Sololá	701	Sololá	4	Finca Santa Victoria	6	Junio	2023-06-27T00:00:00	2024-11-08T00:00:00	5	Humedad	89
115257	7	Sololá	701	Sololá	4	Finca Santa Victoria	6	Junio	2023-06-27T00:00:00	2024-11-08T00:00:00	6	Velocidad del viento	1.6
115258	7	Sololá	701	Sololá	4	Finca Santa Victoria	6	Junio	2023-06-27T00:00:00	2024-11-08T00:00:00	7	Dirección del viento	1.61
115259	7	Sololá	701	Sololá	4	Finca Santa Victoria	6	Junio	2023-06-27T00:00:00	2024-11-08T00:00:00	1	Precipitación	0
115260	7	Sololá	701	Sololá	4	Finca Santa Victoria	6	Junio	2023-06-27T00:00:00	2024-11-08T00:00:00	8	Radiación solar	0
115261	7	Sololá	701	Sololá	4	Finca Santa Victoria	6	Junio	2023-06-27T00:00:00	2024-11-08T01:00:00	2	Temperatura media	14.3
115262	7	Sololá	701	Sololá	4	Finca Santa Victoria	6	Junio	2023-06-27T00:00:00	2024-11-08T01:00:00	4	Temperatura máxima	14.3
115263	7	Sololá	701	Sololá	4	Finca Santa Victoria	6	Junio	2023-06-27T00:00:00	2024-11-08T01:00:00	3	Temperatura mínima	14.2
115264	7	Sololá	701	Sololá	4	Finca Santa Victoria	6	Junio	2023-06-27T00:00:00	2024-11-08T01:00:00	5	Humedad	88
115265	7	Sololá	701	Sololá	4	Finca Santa Victoria	6	Junio	2023-06-27T00:00:00	2024-11-08T01:00:00	6	Velocidad del viento	1.6
115266	7	Sololá	701	Sololá	4	Finca Santa Victoria	6	Junio	2023-06-27T00:00:00	2024-11-08T01:00:00	7	Dirección del viento	1.61
115267	7	Sololá	701	Sololá	4	Finca Santa Victoria	6	Junio	2023-06-27T00:00:00	2024-11-08T01:00:00	1	Precipitación	0
115268	7	Sololá	701	Sololá	4	Finca Santa Victoria	6	Junio	2023-06-27T00:00:00	2024-11-08T01:00:00	8	Radiación solar	0
115269	7	Sololá	701	Sololá	4	Finca Santa Victoria	6	Junio	2023-06-27T00:00:00	2024-11-08T02:00:00	2	Temperatura media	14
115270	7	Sololá	701	Sololá	4	Finca Santa Victoria	6	Junio	2023-06-27T00:00:00	2024-11-08T02:00:00	4	Temperatura máxima	14.4
115271	7	Sololá	701	Sololá	4	Finca Santa Victoria	6	Junio	2023-06-27T00:00:00	2024-11-08T02:00:00	3	Temperatura mínima	14
115272	7	Sololá	701	Sololá	4	Finca Santa Victoria	6	Junio	2023-06-27T00:00:00	2024-11-08T02:00:00	5	Humedad	89
115273	7	Sololá	701	Sololá	4	Finca Santa Victoria	6	Junio	2023-06-27T00:00:00	2024-11-08T02:00:00	6	Velocidad del viento	1.6
115274	7	Sololá	701	Sololá	4	Finca Santa Victoria	6	Junio	2023-06-27T00:00:00	2024-11-08T02:00:00	7	Dirección del viento	1.61
115275	7	Sololá	701	Sololá	4	Finca Santa Victoria	6	Junio	2023-06-27T00:00:00	2024-11-08T02:00:00	1	Precipitación	0
115276	7	Sololá	701	Sololá	4	Finca Santa Victoria	6	Junio	2023-06-27T00:00:00	2024-11-08T02:00:00	8	Radiación solar	0
115277	7	Sololá	701	Sololá	4	Finca Santa Victoria	6	Junio	2023-06-27T00:00:00	2024-11-08T03:00:00	2	Temperatura media	13.8
115278	7	Sololá	701	Sololá	4	Finca Santa Victoria	6	Junio	2023-06-27T00:00:00	2024-11-08T03:00:00	4	Temperatura máxima	14.1
115279	7	Sololá	701	Sololá	4	Finca Santa Victoria	6	Junio	2023-06-27T00:00:00	2024-11-08T03:00:00	3	Temperatura mínima	13.8
115280	7	Sololá	701	Sololá	4	Finca Santa Victoria	6	Junio	2023-06-27T00:00:00	2024-11-08T03:00:00	5	Humedad	90
115281	7	Sololá	701	Sololá	4	Finca Santa Victoria	6	Junio	2023-06-27T00:00:00	2024-11-08T03:00:00	6	Velocidad del viento	1.6
115282	7	Sololá	701	Sololá	4	Finca Santa Victoria	6	Junio	2023-06-27T00:00:00	2024-11-08T03:00:00	7	Dirección del viento	1.61
115283	7	Sololá	701	Sololá	4	Finca Santa Victoria	6	Junio	2023-06-27T00:00:00	2024-11-08T03:00:00	1	Precipitación	0
115284	7	Sololá	701	Sololá	4	Finca Santa Victoria	6	Junio	2023-06-27T00:00:00	2024-11-08T03:00:00	8	Radiación solar	0
115285	7	Sololá	701	Sololá	4	Finca Santa Victoria	6	Junio	2023-06-27T00:00:00	2024-11-08T04:00:00	2	Temperatura media	13.8
115286	7	Sololá	701	Sololá	4	Finca Santa Victoria	6	Junio	2023-06-27T00:00:00	2024-11-08T04:00:00	4	Temperatura máxima	13.9
115287	7	Sololá	701	Sololá	4	Finca Santa Victoria	6	Junio	2023-06-27T00:00:00	2024-11-08T04:00:00	3	Temperatura mínima	13.7
115288	7	Sololá	701	Sololá	4	Finca Santa Victoria	6	Junio	2023-06-27T00:00:00	2024-11-08T04:00:00	5	Humedad	92
115289	7	Sololá	701	Sololá	4	Finca Santa Victoria	6	Junio	2023-06-27T00:00:00	2024-11-08T04:00:00	6	Velocidad del viento	1.6
115290	7	Sololá	701	Sololá	4	Finca Santa Victoria	6	Junio	2023-06-27T00:00:00	2024-11-08T04:00:00	7	Dirección del viento	1.61
115291	7	Sololá	701	Sololá	4	Finca Santa Victoria	6	Junio	2023-06-27T00:00:00	2024-11-08T04:00:00	1	Precipitación	0
115292	7	Sololá	701	Sololá	4	Finca Santa Victoria	6	Junio	2023-06-27T00:00:00	2024-11-08T04:00:00	8	Radiación solar	0
115293	7	Sololá	701	Sololá	4	Finca Santa Victoria	6	Junio	2023-06-27T00:00:00	2024-11-08T05:00:00	2	Temperatura media	13.7
115294	7	Sololá	701	Sololá	4	Finca Santa Victoria	6	Junio	2023-06-27T00:00:00	2024-11-08T05:00:00	4	Temperatura máxima	13.9
115295	7	Sololá	701	Sololá	4	Finca Santa Victoria	6	Junio	2023-06-27T00:00:00	2024-11-08T05:00:00	3	Temperatura mínima	13.5
115296	7	Sololá	701	Sololá	4	Finca Santa Victoria	6	Junio	2023-06-27T00:00:00	2024-11-08T05:00:00	5	Humedad	90
115297	7	Sololá	701	Sololá	4	Finca Santa Victoria	6	Junio	2023-06-27T00:00:00	2024-11-08T05:00:00	6	Velocidad del viento	1.6
115298	7	Sololá	701	Sololá	4	Finca Santa Victoria	6	Junio	2023-06-27T00:00:00	2024-11-08T05:00:00	7	Dirección del viento	1.61
115299	7	Sololá	701	Sololá	4	Finca Santa Victoria	6	Junio	2023-06-27T00:00:00	2024-11-08T05:00:00	1	Precipitación	0
115300	7	Sololá	701	Sololá	4	Finca Santa Victoria	6	Junio	2023-06-27T00:00:00	2024-11-08T05:00:00	8	Radiación solar	0
115301	7	Sololá	701	Sololá	4	Finca Santa Victoria	6	Junio	2023-06-27T00:00:00	2024-11-08T06:00:00	2	Temperatura media	14.4
115302	7	Sololá	701	Sololá	4	Finca Santa Victoria	6	Junio	2023-06-27T00:00:00	2024-11-08T06:00:00	4	Temperatura máxima	14.4
115303	7	Sololá	701	Sololá	4	Finca Santa Victoria	6	Junio	2023-06-27T00:00:00	2024-11-08T06:00:00	3	Temperatura mínima	13.6
115304	7	Sololá	701	Sololá	4	Finca Santa Victoria	6	Junio	2023-06-27T00:00:00	2024-11-08T06:00:00	5	Humedad	84
115305	7	Sololá	701	Sololá	4	Finca Santa Victoria	6	Junio	2023-06-27T00:00:00	2024-11-08T06:00:00	6	Velocidad del viento	3.2
115306	7	Sololá	701	Sololá	4	Finca Santa Victoria	6	Junio	2023-06-27T00:00:00	2024-11-08T06:00:00	7	Dirección del viento	3.22
115307	7	Sololá	701	Sololá	4	Finca Santa Victoria	6	Junio	2023-06-27T00:00:00	2024-11-08T06:00:00	1	Precipitación	0
115308	7	Sololá	701	Sololá	4	Finca Santa Victoria	6	Junio	2023-06-27T00:00:00	2024-11-08T06:00:00	8	Radiación solar	1
115309	7	Sololá	701	Sololá	4	Finca Santa Victoria	6	Junio	2023-06-27T00:00:00	2024-11-08T07:00:00	2	Temperatura media	14.6
115310	7	Sololá	701	Sololá	4	Finca Santa Victoria	6	Junio	2023-06-27T00:00:00	2024-11-08T07:00:00	4	Temperatura máxima	14.6
115311	7	Sololá	701	Sololá	4	Finca Santa Victoria	6	Junio	2023-06-27T00:00:00	2024-11-08T07:00:00	3	Temperatura mínima	14.3
115312	7	Sololá	701	Sololá	4	Finca Santa Victoria	6	Junio	2023-06-27T00:00:00	2024-11-08T07:00:00	5	Humedad	85
115313	7	Sololá	701	Sololá	4	Finca Santa Victoria	6	Junio	2023-06-27T00:00:00	2024-11-08T07:00:00	6	Velocidad del viento	1.6
115314	7	Sololá	701	Sololá	4	Finca Santa Victoria	6	Junio	2023-06-27T00:00:00	2024-11-08T07:00:00	7	Dirección del viento	1.61
115315	7	Sololá	701	Sololá	4	Finca Santa Victoria	6	Junio	2023-06-27T00:00:00	2024-11-08T07:00:00	1	Precipitación	0
115316	7	Sololá	701	Sololá	4	Finca Santa Victoria	6	Junio	2023-06-27T00:00:00	2024-11-08T07:00:00	8	Radiación solar	47
115317	7	Sololá	701	Sololá	4	Finca Santa Victoria	6	Junio	2023-06-27T00:00:00	2024-11-08T08:00:00	2	Temperatura media	15.5
115318	7	Sololá	701	Sololá	4	Finca Santa Victoria	6	Junio	2023-06-27T00:00:00	2024-11-08T08:00:00	4	Temperatura máxima	15.5
115319	7	Sololá	701	Sololá	4	Finca Santa Victoria	6	Junio	2023-06-27T00:00:00	2024-11-08T08:00:00	3	Temperatura mínima	14.6
115320	7	Sololá	701	Sololá	4	Finca Santa Victoria	6	Junio	2023-06-27T00:00:00	2024-11-08T08:00:00	5	Humedad	83
115321	7	Sololá	701	Sololá	4	Finca Santa Victoria	6	Junio	2023-06-27T00:00:00	2024-11-08T08:00:00	6	Velocidad del viento	1.6
115322	7	Sololá	701	Sololá	4	Finca Santa Victoria	6	Junio	2023-06-27T00:00:00	2024-11-08T08:00:00	7	Dirección del viento	1.61
115323	7	Sololá	701	Sololá	4	Finca Santa Victoria	6	Junio	2023-06-27T00:00:00	2024-11-08T08:00:00	1	Precipitación	0
115324	7	Sololá	701	Sololá	4	Finca Santa Victoria	6	Junio	2023-06-27T00:00:00	2024-11-08T08:00:00	8	Radiación solar	127
115325	7	Sololá	701	Sololá	4	Finca Santa Victoria	6	Junio	2023-06-27T00:00:00	2024-11-08T09:00:00	2	Temperatura media	18.8
115326	7	Sololá	701	Sololá	4	Finca Santa Victoria	6	Junio	2023-06-27T00:00:00	2024-11-08T09:00:00	4	Temperatura máxima	18.9
115327	7	Sololá	701	Sololá	4	Finca Santa Victoria	6	Junio	2023-06-27T00:00:00	2024-11-08T09:00:00	3	Temperatura mínima	15.4
115328	7	Sololá	701	Sololá	4	Finca Santa Victoria	6	Junio	2023-06-27T00:00:00	2024-11-08T09:00:00	5	Humedad	72
115329	7	Sololá	701	Sololá	4	Finca Santa Victoria	6	Junio	2023-06-27T00:00:00	2024-11-08T09:00:00	6	Velocidad del viento	1.6
115330	7	Sololá	701	Sololá	4	Finca Santa Victoria	6	Junio	2023-06-27T00:00:00	2024-11-08T09:00:00	7	Dirección del viento	1.61
115331	7	Sololá	701	Sololá	4	Finca Santa Victoria	6	Junio	2023-06-27T00:00:00	2024-11-08T09:00:00	1	Precipitación	0
115332	7	Sololá	701	Sololá	4	Finca Santa Victoria	6	Junio	2023-06-27T00:00:00	2024-11-08T09:00:00	8	Radiación solar	420
115333	7	Sololá	701	Sololá	4	Finca Santa Victoria	6	Junio	2023-06-27T00:00:00	2024-11-08T10:00:00	2	Temperatura media	18.2
115334	7	Sololá	701	Sololá	4	Finca Santa Victoria	6	Junio	2023-06-27T00:00:00	2024-11-08T10:00:00	4	Temperatura máxima	19.5
115335	7	Sololá	701	Sololá	4	Finca Santa Victoria	6	Junio	2023-06-27T00:00:00	2024-11-08T10:00:00	3	Temperatura mínima	18.1
115336	7	Sololá	701	Sololá	4	Finca Santa Victoria	6	Junio	2023-06-27T00:00:00	2024-11-08T10:00:00	5	Humedad	73
115337	7	Sololá	701	Sololá	4	Finca Santa Victoria	6	Junio	2023-06-27T00:00:00	2024-11-08T10:00:00	6	Velocidad del viento	3.2
115338	7	Sololá	701	Sololá	4	Finca Santa Victoria	6	Junio	2023-06-27T00:00:00	2024-11-08T10:00:00	7	Dirección del viento	3.22
115339	7	Sololá	701	Sololá	4	Finca Santa Victoria	6	Junio	2023-06-27T00:00:00	2024-11-08T10:00:00	1	Precipitación	0
115340	7	Sololá	701	Sololá	4	Finca Santa Victoria	6	Junio	2023-06-27T00:00:00	2024-11-08T10:00:00	8	Radiación solar	255
115341	7	Sololá	701	Sololá	4	Finca Santa Victoria	6	Junio	2023-06-27T00:00:00	2024-11-08T11:00:00	2	Temperatura media	18.2
115342	7	Sololá	701	Sololá	4	Finca Santa Victoria	6	Junio	2023-06-27T00:00:00	2024-11-08T11:00:00	4	Temperatura máxima	18.3
115343	7	Sololá	701	Sololá	4	Finca Santa Victoria	6	Junio	2023-06-27T00:00:00	2024-11-08T11:00:00	3	Temperatura mínima	17.6
115344	7	Sololá	701	Sololá	4	Finca Santa Victoria	6	Junio	2023-06-27T00:00:00	2024-11-08T11:00:00	5	Humedad	73
115345	7	Sololá	701	Sololá	4	Finca Santa Victoria	6	Junio	2023-06-27T00:00:00	2024-11-08T11:00:00	6	Velocidad del viento	1.6
115346	7	Sololá	701	Sololá	4	Finca Santa Victoria	6	Junio	2023-06-27T00:00:00	2024-11-08T11:00:00	7	Dirección del viento	1.61
115347	7	Sololá	701	Sololá	4	Finca Santa Victoria	6	Junio	2023-06-27T00:00:00	2024-11-08T11:00:00	1	Precipitación	0
115348	7	Sololá	701	Sololá	4	Finca Santa Victoria	6	Junio	2023-06-27T00:00:00	2024-11-08T11:00:00	8	Radiación solar	233
115349	7	Sololá	701	Sololá	4	Finca Santa Victoria	6	Junio	2023-06-27T00:00:00	2024-11-08T12:00:00	2	Temperatura media	17.4
115350	7	Sololá	701	Sololá	4	Finca Santa Victoria	6	Junio	2023-06-27T00:00:00	2024-11-08T12:00:00	4	Temperatura máxima	18.3
115351	7	Sololá	701	Sololá	4	Finca Santa Victoria	6	Junio	2023-06-27T00:00:00	2024-11-08T12:00:00	3	Temperatura mínima	16.8
115352	7	Sololá	701	Sololá	4	Finca Santa Victoria	6	Junio	2023-06-27T00:00:00	2024-11-08T12:00:00	5	Humedad	79
115353	7	Sololá	701	Sololá	4	Finca Santa Victoria	6	Junio	2023-06-27T00:00:00	2024-11-08T12:00:00	6	Velocidad del viento	1.6
115354	7	Sololá	701	Sololá	4	Finca Santa Victoria	6	Junio	2023-06-27T00:00:00	2024-11-08T12:00:00	7	Dirección del viento	1.61
115355	7	Sololá	701	Sololá	4	Finca Santa Victoria	6	Junio	2023-06-27T00:00:00	2024-11-08T12:00:00	1	Precipitación	0
115356	7	Sololá	701	Sololá	4	Finca Santa Victoria	6	Junio	2023-06-27T00:00:00	2024-11-08T12:00:00	8	Radiación solar	137
115357	7	Sololá	701	Sololá	4	Finca Santa Victoria	6	Junio	2023-06-27T00:00:00	2024-11-08T13:00:00	2	Temperatura media	18.6
115358	7	Sololá	701	Sololá	4	Finca Santa Victoria	6	Junio	2023-06-27T00:00:00	2024-11-08T13:00:00	4	Temperatura máxima	18.7
115359	7	Sololá	701	Sololá	4	Finca Santa Victoria	6	Junio	2023-06-27T00:00:00	2024-11-08T13:00:00	3	Temperatura mínima	17.4
115360	7	Sololá	701	Sololá	4	Finca Santa Victoria	6	Junio	2023-06-27T00:00:00	2024-11-08T13:00:00	5	Humedad	79
115361	7	Sololá	701	Sololá	4	Finca Santa Victoria	6	Junio	2023-06-27T00:00:00	2024-11-08T13:00:00	6	Velocidad del viento	1.6
115362	7	Sololá	701	Sololá	4	Finca Santa Victoria	6	Junio	2023-06-27T00:00:00	2024-11-08T13:00:00	7	Dirección del viento	1.61
115363	7	Sololá	701	Sololá	4	Finca Santa Victoria	6	Junio	2023-06-27T00:00:00	2024-11-08T13:00:00	1	Precipitación	0
115364	7	Sololá	701	Sololá	4	Finca Santa Victoria	6	Junio	2023-06-27T00:00:00	2024-11-08T13:00:00	8	Radiación solar	233
115365	7	Sololá	701	Sololá	4	Finca Santa Victoria	6	Junio	2023-06-27T00:00:00	2024-11-08T14:00:00	2	Temperatura media	17.7
115366	7	Sololá	701	Sololá	4	Finca Santa Victoria	6	Junio	2023-06-27T00:00:00	2024-11-08T14:00:00	4	Temperatura máxima	18.7
115367	7	Sololá	701	Sololá	4	Finca Santa Victoria	6	Junio	2023-06-27T00:00:00	2024-11-08T14:00:00	3	Temperatura mínima	17.7
115368	7	Sololá	701	Sololá	4	Finca Santa Victoria	6	Junio	2023-06-27T00:00:00	2024-11-08T14:00:00	5	Humedad	88
115369	7	Sololá	701	Sololá	4	Finca Santa Victoria	6	Junio	2023-06-27T00:00:00	2024-11-08T14:00:00	6	Velocidad del viento	0
115370	7	Sololá	701	Sololá	4	Finca Santa Victoria	6	Junio	2023-06-27T00:00:00	2024-11-08T14:00:00	7	Dirección del viento	0
115371	7	Sololá	701	Sololá	4	Finca Santa Victoria	6	Junio	2023-06-27T00:00:00	2024-11-08T14:00:00	1	Precipitación	0
115372	7	Sololá	701	Sololá	4	Finca Santa Victoria	6	Junio	2023-06-27T00:00:00	2024-11-08T14:00:00	8	Radiación solar	124
115373	7	Sololá	701	Sololá	4	Finca Santa Victoria	6	Junio	2023-06-27T00:00:00	2024-11-08T15:00:00	2	Temperatura media	17.4
115374	7	Sololá	701	Sololá	4	Finca Santa Victoria	6	Junio	2023-06-27T00:00:00	2024-11-08T15:00:00	4	Temperatura máxima	18.2
115375	7	Sololá	701	Sololá	4	Finca Santa Victoria	6	Junio	2023-06-27T00:00:00	2024-11-08T15:00:00	3	Temperatura mínima	17.4
115376	7	Sololá	701	Sololá	4	Finca Santa Victoria	6	Junio	2023-06-27T00:00:00	2024-11-08T15:00:00	5	Humedad	91
115377	7	Sololá	701	Sololá	4	Finca Santa Victoria	6	Junio	2023-06-27T00:00:00	2024-11-08T15:00:00	6	Velocidad del viento	1.6
115378	7	Sololá	701	Sololá	4	Finca Santa Victoria	6	Junio	2023-06-27T00:00:00	2024-11-08T15:00:00	7	Dirección del viento	1.61
115379	7	Sololá	701	Sololá	4	Finca Santa Victoria	6	Junio	2023-06-27T00:00:00	2024-11-08T15:00:00	1	Precipitación	0
115380	7	Sololá	701	Sololá	4	Finca Santa Victoria	6	Junio	2023-06-27T00:00:00	2024-11-08T15:00:00	8	Radiación solar	234
115381	7	Sololá	701	Sololá	4	Finca Santa Victoria	6	Junio	2023-06-27T00:00:00	2024-11-08T16:00:00	2	Temperatura media	15.4
115382	7	Sololá	701	Sololá	4	Finca Santa Victoria	6	Junio	2023-06-27T00:00:00	2024-11-08T16:00:00	4	Temperatura máxima	17.4
115383	7	Sololá	701	Sololá	4	Finca Santa Victoria	6	Junio	2023-06-27T00:00:00	2024-11-08T16:00:00	3	Temperatura mínima	15.4
115384	7	Sololá	701	Sololá	4	Finca Santa Victoria	6	Junio	2023-06-27T00:00:00	2024-11-08T16:00:00	5	Humedad	95
115385	7	Sololá	701	Sololá	4	Finca Santa Victoria	6	Junio	2023-06-27T00:00:00	2024-11-08T16:00:00	6	Velocidad del viento	1.6
115386	7	Sololá	701	Sololá	4	Finca Santa Victoria	6	Junio	2023-06-27T00:00:00	2024-11-08T16:00:00	7	Dirección del viento	1.61
115387	7	Sololá	701	Sololá	4	Finca Santa Victoria	6	Junio	2023-06-27T00:00:00	2024-11-08T16:00:00	1	Precipitación	0
115388	7	Sololá	701	Sololá	4	Finca Santa Victoria	6	Junio	2023-06-27T00:00:00	2024-11-08T16:00:00	8	Radiación solar	48
115389	7	Sololá	701	Sololá	4	Finca Santa Victoria	6	Junio	2023-06-27T00:00:00	2024-11-08T17:00:00	2	Temperatura media	15
115390	7	Sololá	701	Sololá	4	Finca Santa Victoria	6	Junio	2023-06-27T00:00:00	2024-11-08T17:00:00	4	Temperatura máxima	15.4
115391	7	Sololá	701	Sololá	4	Finca Santa Victoria	6	Junio	2023-06-27T00:00:00	2024-11-08T17:00:00	3	Temperatura mínima	15
115392	7	Sololá	701	Sololá	4	Finca Santa Victoria	6	Junio	2023-06-27T00:00:00	2024-11-08T17:00:00	5	Humedad	97
115393	7	Sololá	701	Sololá	4	Finca Santa Victoria	6	Junio	2023-06-27T00:00:00	2024-11-08T17:00:00	6	Velocidad del viento	0
115394	7	Sololá	701	Sololá	4	Finca Santa Victoria	6	Junio	2023-06-27T00:00:00	2024-11-08T17:00:00	7	Dirección del viento	0
115395	7	Sololá	701	Sololá	4	Finca Santa Victoria	6	Junio	2023-06-27T00:00:00	2024-11-08T17:00:00	1	Precipitación	3.8
115396	7	Sololá	701	Sololá	4	Finca Santa Victoria	6	Junio	2023-06-27T00:00:00	2024-11-08T17:00:00	8	Radiación solar	12
115397	7	Sololá	701	Sololá	4	Finca Santa Victoria	6	Junio	2023-06-27T00:00:00	2024-11-08T18:00:00	2	Temperatura media	14.4
115398	7	Sololá	701	Sololá	4	Finca Santa Victoria	6	Junio	2023-06-27T00:00:00	2024-11-08T18:00:00	4	Temperatura máxima	15
115399	7	Sololá	701	Sololá	4	Finca Santa Victoria	6	Junio	2023-06-27T00:00:00	2024-11-08T18:00:00	3	Temperatura mínima	14.4
115400	7	Sololá	701	Sololá	4	Finca Santa Victoria	6	Junio	2023-06-27T00:00:00	2024-11-08T18:00:00	5	Humedad	97
115401	7	Sololá	701	Sololá	4	Finca Santa Victoria	6	Junio	2023-06-27T00:00:00	2024-11-08T18:00:00	6	Velocidad del viento	0
115402	7	Sololá	701	Sololá	4	Finca Santa Victoria	6	Junio	2023-06-27T00:00:00	2024-11-08T18:00:00	7	Dirección del viento	0
115403	7	Sololá	701	Sololá	4	Finca Santa Victoria	6	Junio	2023-06-27T00:00:00	2024-11-08T18:00:00	1	Precipitación	14.4
115404	7	Sololá	701	Sololá	4	Finca Santa Victoria	6	Junio	2023-06-27T00:00:00	2024-11-08T18:00:00	8	Radiación solar	3
115405	7	Sololá	701	Sololá	4	Finca Santa Victoria	6	Junio	2023-06-27T00:00:00	2024-11-08T19:00:00	2	Temperatura media	14.4
115406	7	Sololá	701	Sololá	4	Finca Santa Victoria	6	Junio	2023-06-27T00:00:00	2024-11-08T19:00:00	4	Temperatura máxima	14.4
115407	7	Sololá	701	Sololá	4	Finca Santa Victoria	6	Junio	2023-06-27T00:00:00	2024-11-08T19:00:00	3	Temperatura mínima	14.4
115408	7	Sololá	701	Sololá	4	Finca Santa Victoria	6	Junio	2023-06-27T00:00:00	2024-11-08T19:00:00	5	Humedad	98
115409	7	Sololá	701	Sololá	4	Finca Santa Victoria	6	Junio	2023-06-27T00:00:00	2024-11-08T19:00:00	6	Velocidad del viento	0
115410	7	Sololá	701	Sololá	4	Finca Santa Victoria	6	Junio	2023-06-27T00:00:00	2024-11-08T19:00:00	7	Dirección del viento	0
115411	7	Sololá	701	Sololá	4	Finca Santa Victoria	6	Junio	2023-06-27T00:00:00	2024-11-08T19:00:00	1	Precipitación	1
115412	7	Sololá	701	Sololá	4	Finca Santa Victoria	6	Junio	2023-06-27T00:00:00	2024-11-08T19:00:00	8	Radiación solar	0
115413	7	Sololá	701	Sololá	4	Finca Santa Victoria	6	Junio	2023-06-27T00:00:00	2024-11-08T20:00:00	2	Temperatura media	13.8
115414	7	Sololá	701	Sololá	4	Finca Santa Victoria	6	Junio	2023-06-27T00:00:00	2024-11-08T20:00:00	4	Temperatura máxima	14.4
115415	7	Sololá	701	Sololá	4	Finca Santa Victoria	6	Junio	2023-06-27T00:00:00	2024-11-08T20:00:00	3	Temperatura mínima	13.8
115416	7	Sololá	701	Sololá	4	Finca Santa Victoria	6	Junio	2023-06-27T00:00:00	2024-11-08T20:00:00	5	Humedad	98
115417	7	Sololá	701	Sololá	4	Finca Santa Victoria	6	Junio	2023-06-27T00:00:00	2024-11-08T20:00:00	6	Velocidad del viento	0
115418	7	Sololá	701	Sololá	4	Finca Santa Victoria	6	Junio	2023-06-27T00:00:00	2024-11-08T20:00:00	7	Dirección del viento	0
115419	7	Sololá	701	Sololá	4	Finca Santa Victoria	6	Junio	2023-06-27T00:00:00	2024-11-08T20:00:00	1	Precipitación	1.8
115420	7	Sololá	701	Sololá	4	Finca Santa Victoria	6	Junio	2023-06-27T00:00:00	2024-11-08T20:00:00	8	Radiación solar	0
115421	7	Sololá	701	Sololá	4	Finca Santa Victoria	6	Junio	2023-06-27T00:00:00	2024-11-08T21:00:00	2	Temperatura media	13.4
115422	7	Sololá	701	Sololá	4	Finca Santa Victoria	6	Junio	2023-06-27T00:00:00	2024-11-08T21:00:00	4	Temperatura máxima	13.8
115423	7	Sololá	701	Sololá	4	Finca Santa Victoria	6	Junio	2023-06-27T00:00:00	2024-11-08T21:00:00	3	Temperatura mínima	13.3
115424	7	Sololá	701	Sololá	4	Finca Santa Victoria	6	Junio	2023-06-27T00:00:00	2024-11-08T21:00:00	5	Humedad	98
115425	7	Sololá	701	Sololá	4	Finca Santa Victoria	6	Junio	2023-06-27T00:00:00	2024-11-08T21:00:00	6	Velocidad del viento	0
115426	7	Sololá	701	Sololá	4	Finca Santa Victoria	6	Junio	2023-06-27T00:00:00	2024-11-08T21:00:00	7	Dirección del viento	0
115427	7	Sololá	701	Sololá	4	Finca Santa Victoria	6	Junio	2023-06-27T00:00:00	2024-11-08T21:00:00	1	Precipitación	0.2
115428	7	Sololá	701	Sololá	4	Finca Santa Victoria	6	Junio	2023-06-27T00:00:00	2024-11-08T21:00:00	8	Radiación solar	0
115429	7	Sololá	701	Sololá	4	Finca Santa Victoria	6	Junio	2023-06-27T00:00:00	2024-11-08T22:00:00	2	Temperatura media	13.4
115430	7	Sololá	701	Sololá	4	Finca Santa Victoria	6	Junio	2023-06-27T00:00:00	2024-11-08T22:00:00	4	Temperatura máxima	13.4
115431	7	Sololá	701	Sololá	4	Finca Santa Victoria	6	Junio	2023-06-27T00:00:00	2024-11-08T22:00:00	3	Temperatura mínima	13.3
115432	7	Sololá	701	Sololá	4	Finca Santa Victoria	6	Junio	2023-06-27T00:00:00	2024-11-08T22:00:00	5	Humedad	98
115433	7	Sololá	701	Sololá	4	Finca Santa Victoria	6	Junio	2023-06-27T00:00:00	2024-11-08T22:00:00	6	Velocidad del viento	0
115434	7	Sololá	701	Sololá	4	Finca Santa Victoria	6	Junio	2023-06-27T00:00:00	2024-11-08T22:00:00	7	Dirección del viento	0
115435	7	Sololá	701	Sololá	4	Finca Santa Victoria	6	Junio	2023-06-27T00:00:00	2024-11-08T22:00:00	1	Precipitación	0
115436	7	Sololá	701	Sololá	4	Finca Santa Victoria	6	Junio	2023-06-27T00:00:00	2024-11-08T22:00:00	8	Radiación solar	0
115437	7	Sololá	701	Sololá	4	Finca Santa Victoria	6	Junio	2023-06-27T00:00:00	2024-11-08T23:00:00	2	Temperatura media	13.4
115438	7	Sololá	701	Sololá	4	Finca Santa Victoria	6	Junio	2023-06-27T00:00:00	2024-11-08T23:00:00	4	Temperatura máxima	13.5
115439	7	Sololá	701	Sololá	4	Finca Santa Victoria	6	Junio	2023-06-27T00:00:00	2024-11-08T23:00:00	3	Temperatura mínima	13.4
115440	7	Sololá	701	Sololá	4	Finca Santa Victoria	6	Junio	2023-06-27T00:00:00	2024-11-08T23:00:00	5	Humedad	98
115441	7	Sololá	701	Sololá	4	Finca Santa Victoria	6	Junio	2023-06-27T00:00:00	2024-11-08T23:00:00	6	Velocidad del viento	0
115442	7	Sololá	701	Sololá	4	Finca Santa Victoria	6	Junio	2023-06-27T00:00:00	2024-11-08T23:00:00	7	Dirección del viento	0
115443	7	Sololá	701	Sololá	4	Finca Santa Victoria	6	Junio	2023-06-27T00:00:00	2024-11-08T23:00:00	1	Precipitación	0
115444	7	Sololá	701	Sololá	4	Finca Santa Victoria	6	Junio	2023-06-27T00:00:00	2024-11-08T23:00:00	8	Radiación solar	0
115445	7	Sololá	701	Sololá	4	Finca Santa Victoria	6	Junio	2023-06-28T00:00:00	2024-11-08T00:00:00	2	Temperatura media	13.4
115446	7	Sololá	701	Sololá	4	Finca Santa Victoria	6	Junio	2023-06-28T00:00:00	2024-11-08T00:00:00	4	Temperatura máxima	13.4
115447	7	Sololá	701	Sololá	4	Finca Santa Victoria	6	Junio	2023-06-28T00:00:00	2024-11-08T00:00:00	3	Temperatura mínima	13.3
115448	7	Sololá	701	Sololá	4	Finca Santa Victoria	6	Junio	2023-06-28T00:00:00	2024-11-08T00:00:00	5	Humedad	98
115449	7	Sololá	701	Sololá	4	Finca Santa Victoria	6	Junio	2023-06-28T00:00:00	2024-11-08T00:00:00	6	Velocidad del viento	0
115450	7	Sololá	701	Sololá	4	Finca Santa Victoria	6	Junio	2023-06-28T00:00:00	2024-11-08T00:00:00	7	Dirección del viento	0
115451	7	Sololá	701	Sololá	4	Finca Santa Victoria	6	Junio	2023-06-28T00:00:00	2024-11-08T00:00:00	1	Precipitación	0
115452	7	Sololá	701	Sololá	4	Finca Santa Victoria	6	Junio	2023-06-28T00:00:00	2024-11-08T00:00:00	8	Radiación solar	0
115453	7	Sololá	701	Sololá	4	Finca Santa Victoria	6	Junio	2023-06-28T00:00:00	2024-11-08T01:00:00	2	Temperatura media	13.4
115454	7	Sololá	701	Sololá	4	Finca Santa Victoria	6	Junio	2023-06-28T00:00:00	2024-11-08T01:00:00	4	Temperatura máxima	13.4
115455	7	Sololá	701	Sololá	4	Finca Santa Victoria	6	Junio	2023-06-28T00:00:00	2024-11-08T01:00:00	3	Temperatura mínima	13.4
115456	7	Sololá	701	Sololá	4	Finca Santa Victoria	6	Junio	2023-06-28T00:00:00	2024-11-08T01:00:00	5	Humedad	98
115457	7	Sololá	701	Sololá	4	Finca Santa Victoria	6	Junio	2023-06-28T00:00:00	2024-11-08T01:00:00	6	Velocidad del viento	0
115458	7	Sololá	701	Sololá	4	Finca Santa Victoria	6	Junio	2023-06-28T00:00:00	2024-11-08T01:00:00	7	Dirección del viento	0
115459	7	Sololá	701	Sololá	4	Finca Santa Victoria	6	Junio	2023-06-28T00:00:00	2024-11-08T01:00:00	1	Precipitación	0
115460	7	Sololá	701	Sololá	4	Finca Santa Victoria	6	Junio	2023-06-28T00:00:00	2024-11-08T01:00:00	8	Radiación solar	0
115461	7	Sololá	701	Sololá	4	Finca Santa Victoria	6	Junio	2023-06-28T00:00:00	2024-11-08T02:00:00	2	Temperatura media	13.4
115462	7	Sololá	701	Sololá	4	Finca Santa Victoria	6	Junio	2023-06-28T00:00:00	2024-11-08T02:00:00	4	Temperatura máxima	13.4
115463	7	Sololá	701	Sololá	4	Finca Santa Victoria	6	Junio	2023-06-28T00:00:00	2024-11-08T02:00:00	3	Temperatura mínima	13.3
115464	7	Sololá	701	Sololá	4	Finca Santa Victoria	6	Junio	2023-06-28T00:00:00	2024-11-08T02:00:00	5	Humedad	98
115465	7	Sololá	701	Sololá	4	Finca Santa Victoria	6	Junio	2023-06-28T00:00:00	2024-11-08T02:00:00	6	Velocidad del viento	0
115466	7	Sololá	701	Sololá	4	Finca Santa Victoria	6	Junio	2023-06-28T00:00:00	2024-11-08T02:00:00	7	Dirección del viento	0
115467	7	Sololá	701	Sololá	4	Finca Santa Victoria	6	Junio	2023-06-28T00:00:00	2024-11-08T02:00:00	1	Precipitación	0
115468	7	Sololá	701	Sololá	4	Finca Santa Victoria	6	Junio	2023-06-28T00:00:00	2024-11-08T02:00:00	8	Radiación solar	0
115469	7	Sololá	701	Sololá	4	Finca Santa Victoria	6	Junio	2023-06-28T00:00:00	2024-11-08T03:00:00	2	Temperatura media	13.2
115470	7	Sololá	701	Sololá	4	Finca Santa Victoria	6	Junio	2023-06-28T00:00:00	2024-11-08T03:00:00	4	Temperatura máxima	13.4
115471	7	Sololá	701	Sololá	4	Finca Santa Victoria	6	Junio	2023-06-28T00:00:00	2024-11-08T03:00:00	3	Temperatura mínima	13.2
115472	7	Sololá	701	Sololá	4	Finca Santa Victoria	6	Junio	2023-06-28T00:00:00	2024-11-08T03:00:00	5	Humedad	98
115473	7	Sololá	701	Sololá	4	Finca Santa Victoria	6	Junio	2023-06-28T00:00:00	2024-11-08T03:00:00	6	Velocidad del viento	0
115474	7	Sololá	701	Sololá	4	Finca Santa Victoria	6	Junio	2023-06-28T00:00:00	2024-11-08T03:00:00	7	Dirección del viento	0
115475	7	Sololá	701	Sololá	4	Finca Santa Victoria	6	Junio	2023-06-28T00:00:00	2024-11-08T03:00:00	1	Precipitación	0.6
115476	7	Sololá	701	Sololá	4	Finca Santa Victoria	6	Junio	2023-06-28T00:00:00	2024-11-08T03:00:00	8	Radiación solar	0
115477	7	Sololá	701	Sololá	4	Finca Santa Victoria	6	Junio	2023-06-28T00:00:00	2024-11-08T04:00:00	2	Temperatura media	12.9
115478	7	Sololá	701	Sololá	4	Finca Santa Victoria	6	Junio	2023-06-28T00:00:00	2024-11-08T04:00:00	4	Temperatura máxima	13.2
115479	7	Sololá	701	Sololá	4	Finca Santa Victoria	6	Junio	2023-06-28T00:00:00	2024-11-08T04:00:00	3	Temperatura mínima	12.9
115480	7	Sololá	701	Sololá	4	Finca Santa Victoria	6	Junio	2023-06-28T00:00:00	2024-11-08T04:00:00	5	Humedad	98
115481	7	Sololá	701	Sololá	4	Finca Santa Victoria	6	Junio	2023-06-28T00:00:00	2024-11-08T04:00:00	6	Velocidad del viento	0
115482	7	Sololá	701	Sololá	4	Finca Santa Victoria	6	Junio	2023-06-28T00:00:00	2024-11-08T04:00:00	7	Dirección del viento	0
115483	7	Sololá	701	Sololá	4	Finca Santa Victoria	6	Junio	2023-06-28T00:00:00	2024-11-08T04:00:00	1	Precipitación	0
115484	7	Sololá	701	Sololá	4	Finca Santa Victoria	6	Junio	2023-06-28T00:00:00	2024-11-08T04:00:00	8	Radiación solar	0
115485	7	Sololá	701	Sololá	4	Finca Santa Victoria	6	Junio	2023-06-28T00:00:00	2024-11-08T05:00:00	2	Temperatura media	12.8
115486	7	Sololá	701	Sololá	4	Finca Santa Victoria	6	Junio	2023-06-28T00:00:00	2024-11-08T05:00:00	4	Temperatura máxima	13.1
115487	7	Sololá	701	Sololá	4	Finca Santa Victoria	6	Junio	2023-06-28T00:00:00	2024-11-08T05:00:00	3	Temperatura mínima	12.8
115488	7	Sololá	701	Sololá	4	Finca Santa Victoria	6	Junio	2023-06-28T00:00:00	2024-11-08T05:00:00	5	Humedad	97
115489	7	Sololá	701	Sololá	4	Finca Santa Victoria	6	Junio	2023-06-28T00:00:00	2024-11-08T05:00:00	6	Velocidad del viento	0
115490	7	Sololá	701	Sololá	4	Finca Santa Victoria	6	Junio	2023-06-28T00:00:00	2024-11-08T05:00:00	7	Dirección del viento	0
115491	7	Sololá	701	Sololá	4	Finca Santa Victoria	6	Junio	2023-06-28T00:00:00	2024-11-08T05:00:00	1	Precipitación	0.2
115492	7	Sololá	701	Sololá	4	Finca Santa Victoria	6	Junio	2023-06-28T00:00:00	2024-11-08T05:00:00	8	Radiación solar	0
115493	7	Sololá	701	Sololá	4	Finca Santa Victoria	6	Junio	2023-06-28T00:00:00	2024-11-08T06:00:00	2	Temperatura media	12.5
115494	7	Sololá	701	Sololá	4	Finca Santa Victoria	6	Junio	2023-06-28T00:00:00	2024-11-08T06:00:00	4	Temperatura máxima	12.8
115495	7	Sololá	701	Sololá	4	Finca Santa Victoria	6	Junio	2023-06-28T00:00:00	2024-11-08T06:00:00	3	Temperatura mínima	12.4
115496	7	Sololá	701	Sololá	4	Finca Santa Victoria	6	Junio	2023-06-28T00:00:00	2024-11-08T06:00:00	5	Humedad	97
115497	7	Sololá	701	Sololá	4	Finca Santa Victoria	6	Junio	2023-06-28T00:00:00	2024-11-08T06:00:00	6	Velocidad del viento	0
115498	7	Sololá	701	Sololá	4	Finca Santa Victoria	6	Junio	2023-06-28T00:00:00	2024-11-08T06:00:00	7	Dirección del viento	0
115499	7	Sololá	701	Sololá	4	Finca Santa Victoria	6	Junio	2023-06-28T00:00:00	2024-11-08T06:00:00	1	Precipitación	0
115500	7	Sololá	701	Sololá	4	Finca Santa Victoria	6	Junio	2023-06-28T00:00:00	2024-11-08T06:00:00	8	Radiación solar	1
115501	7	Sololá	701	Sololá	4	Finca Santa Victoria	6	Junio	2023-06-28T00:00:00	2024-11-08T07:00:00	2	Temperatura media	13.3
115502	7	Sololá	701	Sololá	4	Finca Santa Victoria	6	Junio	2023-06-28T00:00:00	2024-11-08T07:00:00	4	Temperatura máxima	13.4
115503	7	Sololá	701	Sololá	4	Finca Santa Victoria	6	Junio	2023-06-28T00:00:00	2024-11-08T07:00:00	3	Temperatura mínima	12.4
115504	7	Sololá	701	Sololá	4	Finca Santa Victoria	6	Junio	2023-06-28T00:00:00	2024-11-08T07:00:00	5	Humedad	96
115505	7	Sololá	701	Sololá	4	Finca Santa Victoria	6	Junio	2023-06-28T00:00:00	2024-11-08T07:00:00	6	Velocidad del viento	0
115506	7	Sololá	701	Sololá	4	Finca Santa Victoria	6	Junio	2023-06-28T00:00:00	2024-11-08T07:00:00	7	Dirección del viento	0
115507	7	Sololá	701	Sololá	4	Finca Santa Victoria	6	Junio	2023-06-28T00:00:00	2024-11-08T07:00:00	1	Precipitación	0
115508	7	Sololá	701	Sololá	4	Finca Santa Victoria	6	Junio	2023-06-28T00:00:00	2024-11-08T07:00:00	8	Radiación solar	48
115509	7	Sololá	701	Sololá	4	Finca Santa Victoria	6	Junio	2023-06-28T00:00:00	2024-11-08T08:00:00	2	Temperatura media	13.9
115510	7	Sololá	701	Sololá	4	Finca Santa Victoria	6	Junio	2023-06-28T00:00:00	2024-11-08T08:00:00	4	Temperatura máxima	13.9
115511	7	Sololá	701	Sololá	4	Finca Santa Victoria	6	Junio	2023-06-28T00:00:00	2024-11-08T08:00:00	3	Temperatura mínima	13.3
115512	7	Sololá	701	Sololá	4	Finca Santa Victoria	6	Junio	2023-06-28T00:00:00	2024-11-08T08:00:00	5	Humedad	97
115513	7	Sololá	701	Sololá	4	Finca Santa Victoria	6	Junio	2023-06-28T00:00:00	2024-11-08T08:00:00	6	Velocidad del viento	1.6
115514	7	Sololá	701	Sololá	4	Finca Santa Victoria	6	Junio	2023-06-28T00:00:00	2024-11-08T08:00:00	7	Dirección del viento	1.61
115515	7	Sololá	701	Sololá	4	Finca Santa Victoria	6	Junio	2023-06-28T00:00:00	2024-11-08T08:00:00	1	Precipitación	0
115516	7	Sololá	701	Sololá	4	Finca Santa Victoria	6	Junio	2023-06-28T00:00:00	2024-11-08T08:00:00	8	Radiación solar	130
115517	7	Sololá	701	Sololá	4	Finca Santa Victoria	6	Junio	2023-06-28T00:00:00	2024-11-08T09:00:00	2	Temperatura media	14.8
115518	7	Sololá	701	Sololá	4	Finca Santa Victoria	6	Junio	2023-06-28T00:00:00	2024-11-08T09:00:00	4	Temperatura máxima	14.8
115519	7	Sololá	701	Sololá	4	Finca Santa Victoria	6	Junio	2023-06-28T00:00:00	2024-11-08T09:00:00	3	Temperatura mínima	13.9
115520	7	Sololá	701	Sololá	4	Finca Santa Victoria	6	Junio	2023-06-28T00:00:00	2024-11-08T09:00:00	5	Humedad	95
115521	7	Sololá	701	Sololá	4	Finca Santa Victoria	6	Junio	2023-06-28T00:00:00	2024-11-08T09:00:00	6	Velocidad del viento	1.6
115522	7	Sololá	701	Sololá	4	Finca Santa Victoria	6	Junio	2023-06-28T00:00:00	2024-11-08T09:00:00	7	Dirección del viento	1.61
115523	7	Sololá	701	Sololá	4	Finca Santa Victoria	6	Junio	2023-06-28T00:00:00	2024-11-08T09:00:00	1	Precipitación	0
115524	7	Sololá	701	Sololá	4	Finca Santa Victoria	6	Junio	2023-06-28T00:00:00	2024-11-08T09:00:00	8	Radiación solar	172
115525	7	Sololá	701	Sololá	4	Finca Santa Victoria	6	Junio	2023-06-28T00:00:00	2024-11-08T10:00:00	2	Temperatura media	17.7
115526	7	Sololá	701	Sololá	4	Finca Santa Victoria	6	Junio	2023-06-28T00:00:00	2024-11-08T10:00:00	4	Temperatura máxima	17.8
115527	7	Sololá	701	Sololá	4	Finca Santa Victoria	6	Junio	2023-06-28T00:00:00	2024-11-08T10:00:00	3	Temperatura mínima	14.8
115528	7	Sololá	701	Sololá	4	Finca Santa Victoria	6	Junio	2023-06-28T00:00:00	2024-11-08T10:00:00	5	Humedad	80
115529	7	Sololá	701	Sololá	4	Finca Santa Victoria	6	Junio	2023-06-28T00:00:00	2024-11-08T10:00:00	6	Velocidad del viento	1.6
115530	7	Sololá	701	Sololá	4	Finca Santa Victoria	6	Junio	2023-06-28T00:00:00	2024-11-08T10:00:00	7	Dirección del viento	1.61
115531	7	Sololá	701	Sololá	4	Finca Santa Victoria	6	Junio	2023-06-28T00:00:00	2024-11-08T10:00:00	1	Precipitación	0
115532	7	Sololá	701	Sololá	4	Finca Santa Victoria	6	Junio	2023-06-28T00:00:00	2024-11-08T10:00:00	8	Radiación solar	339
115533	7	Sololá	701	Sololá	4	Finca Santa Victoria	6	Junio	2023-06-28T00:00:00	2024-11-08T11:00:00	2	Temperatura media	17.7
115534	7	Sololá	701	Sololá	4	Finca Santa Victoria	6	Junio	2023-06-28T00:00:00	2024-11-08T11:00:00	4	Temperatura máxima	18.2
115535	7	Sololá	701	Sololá	4	Finca Santa Victoria	6	Junio	2023-06-28T00:00:00	2024-11-08T11:00:00	3	Temperatura mínima	16.9
115536	7	Sololá	701	Sololá	4	Finca Santa Victoria	6	Junio	2023-06-28T00:00:00	2024-11-08T11:00:00	5	Humedad	86
115537	7	Sololá	701	Sololá	4	Finca Santa Victoria	6	Junio	2023-06-28T00:00:00	2024-11-08T11:00:00	6	Velocidad del viento	1.6
115538	7	Sololá	701	Sololá	4	Finca Santa Victoria	6	Junio	2023-06-28T00:00:00	2024-11-08T11:00:00	7	Dirección del viento	1.61
115539	7	Sololá	701	Sololá	4	Finca Santa Victoria	6	Junio	2023-06-28T00:00:00	2024-11-08T11:00:00	1	Precipitación	0
115540	7	Sololá	701	Sololá	4	Finca Santa Victoria	6	Junio	2023-06-28T00:00:00	2024-11-08T11:00:00	8	Radiación solar	235
115541	7	Sololá	701	Sololá	4	Finca Santa Victoria	6	Junio	2023-06-28T00:00:00	2024-11-08T12:00:00	2	Temperatura media	18.6
115542	7	Sololá	701	Sololá	4	Finca Santa Victoria	6	Junio	2023-06-28T00:00:00	2024-11-08T12:00:00	4	Temperatura máxima	18.7
115543	7	Sololá	701	Sololá	4	Finca Santa Victoria	6	Junio	2023-06-28T00:00:00	2024-11-08T12:00:00	3	Temperatura mínima	17.3
115544	7	Sololá	701	Sololá	4	Finca Santa Victoria	6	Junio	2023-06-28T00:00:00	2024-11-08T12:00:00	5	Humedad	79
115545	7	Sololá	701	Sololá	4	Finca Santa Victoria	6	Junio	2023-06-28T00:00:00	2024-11-08T12:00:00	6	Velocidad del viento	3.2
115546	7	Sololá	701	Sololá	4	Finca Santa Victoria	6	Junio	2023-06-28T00:00:00	2024-11-08T12:00:00	7	Dirección del viento	3.22
115547	7	Sololá	701	Sololá	4	Finca Santa Victoria	6	Junio	2023-06-28T00:00:00	2024-11-08T12:00:00	1	Precipitación	0
115548	7	Sololá	701	Sololá	4	Finca Santa Victoria	6	Junio	2023-06-28T00:00:00	2024-11-08T12:00:00	8	Radiación solar	566
115549	7	Sololá	701	Sololá	4	Finca Santa Victoria	6	Junio	2023-06-28T00:00:00	2024-11-08T13:00:00	2	Temperatura media	19.9
115550	7	Sololá	701	Sololá	4	Finca Santa Victoria	6	Junio	2023-06-28T00:00:00	2024-11-08T13:00:00	4	Temperatura máxima	19.9
115551	7	Sololá	701	Sololá	4	Finca Santa Victoria	6	Junio	2023-06-28T00:00:00	2024-11-08T13:00:00	3	Temperatura mínima	18.7
115552	7	Sololá	701	Sololá	4	Finca Santa Victoria	6	Junio	2023-06-28T00:00:00	2024-11-08T13:00:00	5	Humedad	79
115553	7	Sololá	701	Sololá	4	Finca Santa Victoria	6	Junio	2023-06-28T00:00:00	2024-11-08T13:00:00	6	Velocidad del viento	3.2
115554	7	Sololá	701	Sololá	4	Finca Santa Victoria	6	Junio	2023-06-28T00:00:00	2024-11-08T13:00:00	7	Dirección del viento	3.22
115555	7	Sololá	701	Sololá	4	Finca Santa Victoria	6	Junio	2023-06-28T00:00:00	2024-11-08T13:00:00	1	Precipitación	0
115556	7	Sololá	701	Sololá	4	Finca Santa Victoria	6	Junio	2023-06-28T00:00:00	2024-11-08T13:00:00	8	Radiación solar	710
115557	7	Sololá	701	Sololá	4	Finca Santa Victoria	6	Junio	2023-06-28T00:00:00	2024-11-08T14:00:00	2	Temperatura media	18.3
115558	7	Sololá	701	Sololá	4	Finca Santa Victoria	6	Junio	2023-06-28T00:00:00	2024-11-08T14:00:00	4	Temperatura máxima	20.6
115559	7	Sololá	701	Sololá	4	Finca Santa Victoria	6	Junio	2023-06-28T00:00:00	2024-11-08T14:00:00	3	Temperatura mínima	18.3
115560	7	Sololá	701	Sololá	4	Finca Santa Victoria	6	Junio	2023-06-28T00:00:00	2024-11-08T14:00:00	5	Humedad	87
115561	7	Sololá	701	Sololá	4	Finca Santa Victoria	6	Junio	2023-06-28T00:00:00	2024-11-08T14:00:00	6	Velocidad del viento	3.2
115562	7	Sololá	701	Sololá	4	Finca Santa Victoria	6	Junio	2023-06-28T00:00:00	2024-11-08T14:00:00	7	Dirección del viento	3.22
115563	7	Sololá	701	Sololá	4	Finca Santa Victoria	6	Junio	2023-06-28T00:00:00	2024-11-08T14:00:00	1	Precipitación	0
115564	7	Sololá	701	Sololá	4	Finca Santa Victoria	6	Junio	2023-06-28T00:00:00	2024-11-08T14:00:00	8	Radiación solar	494
115565	7	Sololá	701	Sololá	4	Finca Santa Victoria	6	Junio	2023-06-28T00:00:00	2024-11-08T15:00:00	2	Temperatura media	17.3
115566	7	Sololá	701	Sololá	4	Finca Santa Victoria	6	Junio	2023-06-28T00:00:00	2024-11-08T15:00:00	4	Temperatura máxima	18.3
115567	7	Sololá	701	Sololá	4	Finca Santa Victoria	6	Junio	2023-06-28T00:00:00	2024-11-08T15:00:00	3	Temperatura mínima	17.1
115568	7	Sololá	701	Sololá	4	Finca Santa Victoria	6	Junio	2023-06-28T00:00:00	2024-11-08T15:00:00	5	Humedad	94
115569	7	Sololá	701	Sololá	4	Finca Santa Victoria	6	Junio	2023-06-28T00:00:00	2024-11-08T15:00:00	6	Velocidad del viento	1.6
115570	7	Sololá	701	Sololá	4	Finca Santa Victoria	6	Junio	2023-06-28T00:00:00	2024-11-08T15:00:00	7	Dirección del viento	1.61
115571	7	Sololá	701	Sololá	4	Finca Santa Victoria	6	Junio	2023-06-28T00:00:00	2024-11-08T15:00:00	1	Precipitación	0
115572	7	Sololá	701	Sololá	4	Finca Santa Victoria	6	Junio	2023-06-28T00:00:00	2024-11-08T15:00:00	8	Radiación solar	127
115573	7	Sololá	701	Sololá	4	Finca Santa Victoria	6	Junio	2023-06-28T00:00:00	2024-11-08T16:00:00	2	Temperatura media	16.3
115574	7	Sololá	701	Sololá	4	Finca Santa Victoria	6	Junio	2023-06-28T00:00:00	2024-11-08T16:00:00	4	Temperatura máxima	17.5
115575	7	Sololá	701	Sololá	4	Finca Santa Victoria	6	Junio	2023-06-28T00:00:00	2024-11-08T16:00:00	3	Temperatura mínima	16.3
115576	7	Sololá	701	Sololá	4	Finca Santa Victoria	6	Junio	2023-06-28T00:00:00	2024-11-08T16:00:00	5	Humedad	95
115577	7	Sololá	701	Sololá	4	Finca Santa Victoria	6	Junio	2023-06-28T00:00:00	2024-11-08T16:00:00	6	Velocidad del viento	1.6
115578	7	Sololá	701	Sololá	4	Finca Santa Victoria	6	Junio	2023-06-28T00:00:00	2024-11-08T16:00:00	7	Dirección del viento	1.61
115579	7	Sololá	701	Sololá	4	Finca Santa Victoria	6	Junio	2023-06-28T00:00:00	2024-11-08T16:00:00	1	Precipitación	0
115580	7	Sololá	701	Sololá	4	Finca Santa Victoria	6	Junio	2023-06-28T00:00:00	2024-11-08T16:00:00	8	Radiación solar	108
115581	7	Sololá	701	Sololá	4	Finca Santa Victoria	6	Junio	2023-06-28T00:00:00	2024-11-08T17:00:00	2	Temperatura media	15.8
115582	7	Sololá	701	Sololá	4	Finca Santa Victoria	6	Junio	2023-06-28T00:00:00	2024-11-08T17:00:00	4	Temperatura máxima	16.3
115583	7	Sololá	701	Sololá	4	Finca Santa Victoria	6	Junio	2023-06-28T00:00:00	2024-11-08T17:00:00	3	Temperatura mínima	15.8
115584	7	Sololá	701	Sololá	4	Finca Santa Victoria	6	Junio	2023-06-28T00:00:00	2024-11-08T17:00:00	5	Humedad	97
115585	7	Sololá	701	Sololá	4	Finca Santa Victoria	6	Junio	2023-06-28T00:00:00	2024-11-08T17:00:00	6	Velocidad del viento	0
115586	7	Sololá	701	Sololá	4	Finca Santa Victoria	6	Junio	2023-06-28T00:00:00	2024-11-08T17:00:00	7	Dirección del viento	0
115587	7	Sololá	701	Sololá	4	Finca Santa Victoria	6	Junio	2023-06-28T00:00:00	2024-11-08T17:00:00	1	Precipitación	7.8
115588	7	Sololá	701	Sololá	4	Finca Santa Victoria	6	Junio	2023-06-28T00:00:00	2024-11-08T17:00:00	8	Radiación solar	17
115589	7	Sololá	701	Sololá	4	Finca Santa Victoria	6	Junio	2023-06-28T00:00:00	2024-11-08T18:00:00	2	Temperatura media	14.6
115590	7	Sololá	701	Sololá	4	Finca Santa Victoria	6	Junio	2023-06-28T00:00:00	2024-11-08T18:00:00	4	Temperatura máxima	15.8
115591	7	Sololá	701	Sololá	4	Finca Santa Victoria	6	Junio	2023-06-28T00:00:00	2024-11-08T18:00:00	3	Temperatura mínima	14.4
115592	7	Sololá	701	Sololá	4	Finca Santa Victoria	6	Junio	2023-06-28T00:00:00	2024-11-08T18:00:00	5	Humedad	98
115593	7	Sololá	701	Sololá	4	Finca Santa Victoria	6	Junio	2023-06-28T00:00:00	2024-11-08T18:00:00	6	Velocidad del viento	0
115594	7	Sololá	701	Sololá	4	Finca Santa Victoria	6	Junio	2023-06-28T00:00:00	2024-11-08T18:00:00	7	Dirección del viento	0
115595	7	Sololá	701	Sololá	4	Finca Santa Victoria	6	Junio	2023-06-28T00:00:00	2024-11-08T18:00:00	1	Precipitación	7.4
115596	7	Sololá	701	Sololá	4	Finca Santa Victoria	6	Junio	2023-06-28T00:00:00	2024-11-08T18:00:00	8	Radiación solar	3
115597	7	Sololá	701	Sololá	4	Finca Santa Victoria	6	Junio	2023-06-28T00:00:00	2024-11-08T19:00:00	2	Temperatura media	14.7
115598	7	Sololá	701	Sololá	4	Finca Santa Victoria	6	Junio	2023-06-28T00:00:00	2024-11-08T19:00:00	4	Temperatura máxima	14.8
115599	7	Sololá	701	Sololá	4	Finca Santa Victoria	6	Junio	2023-06-28T00:00:00	2024-11-08T19:00:00	3	Temperatura mínima	14.6
115600	7	Sololá	701	Sololá	4	Finca Santa Victoria	6	Junio	2023-06-28T00:00:00	2024-11-08T19:00:00	5	Humedad	98
115601	7	Sololá	701	Sololá	4	Finca Santa Victoria	6	Junio	2023-06-28T00:00:00	2024-11-08T19:00:00	6	Velocidad del viento	0
115602	7	Sololá	701	Sololá	4	Finca Santa Victoria	6	Junio	2023-06-28T00:00:00	2024-11-08T19:00:00	7	Dirección del viento	0
115603	7	Sololá	701	Sololá	4	Finca Santa Victoria	6	Junio	2023-06-28T00:00:00	2024-11-08T19:00:00	1	Precipitación	0.2
115604	7	Sololá	701	Sololá	4	Finca Santa Victoria	6	Junio	2023-06-28T00:00:00	2024-11-08T19:00:00	8	Radiación solar	0
115605	7	Sololá	701	Sololá	4	Finca Santa Victoria	6	Junio	2023-06-28T00:00:00	2024-11-08T20:00:00	2	Temperatura media	14.5
115606	7	Sololá	701	Sololá	4	Finca Santa Victoria	6	Junio	2023-06-28T00:00:00	2024-11-08T20:00:00	4	Temperatura máxima	14.7
115607	7	Sololá	701	Sololá	4	Finca Santa Victoria	6	Junio	2023-06-28T00:00:00	2024-11-08T20:00:00	3	Temperatura mínima	14.5
115608	7	Sololá	701	Sololá	4	Finca Santa Victoria	6	Junio	2023-06-28T00:00:00	2024-11-08T20:00:00	5	Humedad	97
115609	7	Sololá	701	Sololá	4	Finca Santa Victoria	6	Junio	2023-06-28T00:00:00	2024-11-08T20:00:00	6	Velocidad del viento	1.6
115610	7	Sololá	701	Sololá	4	Finca Santa Victoria	6	Junio	2023-06-28T00:00:00	2024-11-08T20:00:00	7	Dirección del viento	1.61
115611	7	Sololá	701	Sololá	4	Finca Santa Victoria	6	Junio	2023-06-28T00:00:00	2024-11-08T20:00:00	1	Precipitación	0
115612	7	Sololá	701	Sololá	4	Finca Santa Victoria	6	Junio	2023-06-28T00:00:00	2024-11-08T20:00:00	8	Radiación solar	0
115613	7	Sololá	701	Sololá	4	Finca Santa Victoria	6	Junio	2023-06-28T00:00:00	2024-11-08T21:00:00	2	Temperatura media	14.4
115614	7	Sololá	701	Sololá	4	Finca Santa Victoria	6	Junio	2023-06-28T00:00:00	2024-11-08T21:00:00	4	Temperatura máxima	14.6
115615	7	Sololá	701	Sololá	4	Finca Santa Victoria	6	Junio	2023-06-28T00:00:00	2024-11-08T21:00:00	3	Temperatura mínima	14.3
115616	7	Sololá	701	Sololá	4	Finca Santa Victoria	6	Junio	2023-06-28T00:00:00	2024-11-08T21:00:00	5	Humedad	97
115617	7	Sololá	701	Sololá	4	Finca Santa Victoria	6	Junio	2023-06-28T00:00:00	2024-11-08T21:00:00	6	Velocidad del viento	0
115618	7	Sololá	701	Sololá	4	Finca Santa Victoria	6	Junio	2023-06-28T00:00:00	2024-11-08T21:00:00	7	Dirección del viento	0
115619	7	Sololá	701	Sololá	4	Finca Santa Victoria	6	Junio	2023-06-28T00:00:00	2024-11-08T21:00:00	1	Precipitación	0
115620	7	Sololá	701	Sololá	4	Finca Santa Victoria	6	Junio	2023-06-28T00:00:00	2024-11-08T21:00:00	8	Radiación solar	0
115621	7	Sololá	701	Sololá	4	Finca Santa Victoria	6	Junio	2023-06-28T00:00:00	2024-11-08T22:00:00	2	Temperatura media	14.4
115622	7	Sololá	701	Sololá	4	Finca Santa Victoria	6	Junio	2023-06-28T00:00:00	2024-11-08T22:00:00	4	Temperatura máxima	14.6
115623	7	Sololá	701	Sololá	4	Finca Santa Victoria	6	Junio	2023-06-28T00:00:00	2024-11-08T22:00:00	3	Temperatura mínima	14.4
115624	7	Sololá	701	Sololá	4	Finca Santa Victoria	6	Junio	2023-06-28T00:00:00	2024-11-08T22:00:00	5	Humedad	98
115625	7	Sololá	701	Sololá	4	Finca Santa Victoria	6	Junio	2023-06-28T00:00:00	2024-11-08T22:00:00	6	Velocidad del viento	0
115626	7	Sololá	701	Sololá	4	Finca Santa Victoria	6	Junio	2023-06-28T00:00:00	2024-11-08T22:00:00	7	Dirección del viento	0
115627	7	Sololá	701	Sololá	4	Finca Santa Victoria	6	Junio	2023-06-28T00:00:00	2024-11-08T22:00:00	1	Precipitación	0
115628	7	Sololá	701	Sololá	4	Finca Santa Victoria	6	Junio	2023-06-28T00:00:00	2024-11-08T22:00:00	8	Radiación solar	0
115629	7	Sololá	701	Sololá	4	Finca Santa Victoria	6	Junio	2023-06-28T00:00:00	2024-11-08T23:00:00	2	Temperatura media	14.3
115630	7	Sololá	701	Sololá	4	Finca Santa Victoria	6	Junio	2023-06-28T00:00:00	2024-11-08T23:00:00	4	Temperatura máxima	14.5
115631	7	Sololá	701	Sololá	4	Finca Santa Victoria	6	Junio	2023-06-28T00:00:00	2024-11-08T23:00:00	3	Temperatura mínima	14.3
115632	7	Sololá	701	Sololá	4	Finca Santa Victoria	6	Junio	2023-06-28T00:00:00	2024-11-08T23:00:00	5	Humedad	98
115633	7	Sololá	701	Sololá	4	Finca Santa Victoria	6	Junio	2023-06-28T00:00:00	2024-11-08T23:00:00	6	Velocidad del viento	0
115634	7	Sololá	701	Sololá	4	Finca Santa Victoria	6	Junio	2023-06-28T00:00:00	2024-11-08T23:00:00	7	Dirección del viento	0
115635	7	Sololá	701	Sololá	4	Finca Santa Victoria	6	Junio	2023-06-28T00:00:00	2024-11-08T23:00:00	1	Precipitación	0
115636	7	Sololá	701	Sololá	4	Finca Santa Victoria	6	Junio	2023-06-28T00:00:00	2024-11-08T23:00:00	8	Radiación solar	0
115637	7	Sololá	701	Sololá	4	Finca Santa Victoria	6	Junio	2023-06-29T00:00:00	2024-11-08T00:00:00	2	Temperatura media	14.2
115638	7	Sololá	701	Sololá	4	Finca Santa Victoria	6	Junio	2023-06-29T00:00:00	2024-11-08T00:00:00	4	Temperatura máxima	14.3
115639	7	Sololá	701	Sololá	4	Finca Santa Victoria	6	Junio	2023-06-29T00:00:00	2024-11-08T00:00:00	3	Temperatura mínima	14.1
115640	7	Sololá	701	Sololá	4	Finca Santa Victoria	6	Junio	2023-06-29T00:00:00	2024-11-08T00:00:00	5	Humedad	98
115641	7	Sololá	701	Sololá	4	Finca Santa Victoria	6	Junio	2023-06-29T00:00:00	2024-11-08T00:00:00	6	Velocidad del viento	0
115642	7	Sololá	701	Sololá	4	Finca Santa Victoria	6	Junio	2023-06-29T00:00:00	2024-11-08T00:00:00	7	Dirección del viento	0
115643	7	Sololá	701	Sololá	4	Finca Santa Victoria	6	Junio	2023-06-29T00:00:00	2024-11-08T00:00:00	1	Precipitación	0
115644	7	Sololá	701	Sololá	4	Finca Santa Victoria	6	Junio	2023-06-29T00:00:00	2024-11-08T00:00:00	8	Radiación solar	0
115645	7	Sololá	701	Sololá	4	Finca Santa Victoria	6	Junio	2023-06-29T00:00:00	2024-11-08T01:00:00	2	Temperatura media	14.1
115646	7	Sololá	701	Sololá	4	Finca Santa Victoria	6	Junio	2023-06-29T00:00:00	2024-11-08T01:00:00	4	Temperatura máxima	14.2
115647	7	Sololá	701	Sololá	4	Finca Santa Victoria	6	Junio	2023-06-29T00:00:00	2024-11-08T01:00:00	3	Temperatura mínima	14.1
115648	7	Sololá	701	Sololá	4	Finca Santa Victoria	6	Junio	2023-06-29T00:00:00	2024-11-08T01:00:00	5	Humedad	98
115649	7	Sololá	701	Sololá	4	Finca Santa Victoria	6	Junio	2023-06-29T00:00:00	2024-11-08T01:00:00	6	Velocidad del viento	0
115650	7	Sololá	701	Sololá	4	Finca Santa Victoria	6	Junio	2023-06-29T00:00:00	2024-11-08T01:00:00	7	Dirección del viento	0
115651	7	Sololá	701	Sololá	4	Finca Santa Victoria	6	Junio	2023-06-29T00:00:00	2024-11-08T01:00:00	1	Precipitación	0
115652	7	Sololá	701	Sololá	4	Finca Santa Victoria	6	Junio	2023-06-29T00:00:00	2024-11-08T01:00:00	8	Radiación solar	0
115653	7	Sololá	701	Sololá	4	Finca Santa Victoria	6	Junio	2023-06-29T00:00:00	2024-11-08T02:00:00	2	Temperatura media	13.8
115654	7	Sololá	701	Sololá	4	Finca Santa Victoria	6	Junio	2023-06-29T00:00:00	2024-11-08T02:00:00	4	Temperatura máxima	14.1
115655	7	Sololá	701	Sololá	4	Finca Santa Victoria	6	Junio	2023-06-29T00:00:00	2024-11-08T02:00:00	3	Temperatura mínima	13.7
115656	7	Sololá	701	Sololá	4	Finca Santa Victoria	6	Junio	2023-06-29T00:00:00	2024-11-08T02:00:00	5	Humedad	98
115657	7	Sololá	701	Sololá	4	Finca Santa Victoria	6	Junio	2023-06-29T00:00:00	2024-11-08T02:00:00	6	Velocidad del viento	0
115658	7	Sololá	701	Sololá	4	Finca Santa Victoria	6	Junio	2023-06-29T00:00:00	2024-11-08T02:00:00	7	Dirección del viento	0
115659	7	Sololá	701	Sololá	4	Finca Santa Victoria	6	Junio	2023-06-29T00:00:00	2024-11-08T02:00:00	1	Precipitación	0
115660	7	Sololá	701	Sololá	4	Finca Santa Victoria	6	Junio	2023-06-29T00:00:00	2024-11-08T02:00:00	8	Radiación solar	0
115661	7	Sololá	701	Sololá	4	Finca Santa Victoria	6	Junio	2023-06-29T00:00:00	2024-11-08T03:00:00	2	Temperatura media	13.7
115662	7	Sololá	701	Sololá	4	Finca Santa Victoria	6	Junio	2023-06-29T00:00:00	2024-11-08T03:00:00	4	Temperatura máxima	13.9
115663	7	Sololá	701	Sololá	4	Finca Santa Victoria	6	Junio	2023-06-29T00:00:00	2024-11-08T03:00:00	3	Temperatura mínima	13.7
115664	7	Sololá	701	Sololá	4	Finca Santa Victoria	6	Junio	2023-06-29T00:00:00	2024-11-08T03:00:00	5	Humedad	97
115665	7	Sololá	701	Sololá	4	Finca Santa Victoria	6	Junio	2023-06-29T00:00:00	2024-11-08T03:00:00	6	Velocidad del viento	0
115666	7	Sololá	701	Sololá	4	Finca Santa Victoria	6	Junio	2023-06-29T00:00:00	2024-11-08T03:00:00	7	Dirección del viento	0
115667	7	Sololá	701	Sololá	4	Finca Santa Victoria	6	Junio	2023-06-29T00:00:00	2024-11-08T03:00:00	1	Precipitación	0
115668	7	Sololá	701	Sololá	4	Finca Santa Victoria	6	Junio	2023-06-29T00:00:00	2024-11-08T03:00:00	8	Radiación solar	0
115669	7	Sololá	701	Sololá	4	Finca Santa Victoria	6	Junio	2023-06-29T00:00:00	2024-11-08T04:00:00	2	Temperatura media	13.9
115670	7	Sololá	701	Sololá	4	Finca Santa Victoria	6	Junio	2023-06-29T00:00:00	2024-11-08T04:00:00	4	Temperatura máxima	13.9
115671	7	Sololá	701	Sololá	4	Finca Santa Victoria	6	Junio	2023-06-29T00:00:00	2024-11-08T04:00:00	3	Temperatura mínima	13.7
115672	7	Sololá	701	Sololá	4	Finca Santa Victoria	6	Junio	2023-06-29T00:00:00	2024-11-08T04:00:00	5	Humedad	96
115673	7	Sololá	701	Sololá	4	Finca Santa Victoria	6	Junio	2023-06-29T00:00:00	2024-11-08T04:00:00	6	Velocidad del viento	0
115674	7	Sololá	701	Sololá	4	Finca Santa Victoria	6	Junio	2023-06-29T00:00:00	2024-11-08T04:00:00	7	Dirección del viento	0
115675	7	Sololá	701	Sololá	4	Finca Santa Victoria	6	Junio	2023-06-29T00:00:00	2024-11-08T04:00:00	1	Precipitación	0
115676	7	Sololá	701	Sololá	4	Finca Santa Victoria	6	Junio	2023-06-29T00:00:00	2024-11-08T04:00:00	8	Radiación solar	0
115677	7	Sololá	701	Sololá	4	Finca Santa Victoria	6	Junio	2023-06-29T00:00:00	2024-11-08T05:00:00	2	Temperatura media	13.6
115678	7	Sololá	701	Sololá	4	Finca Santa Victoria	6	Junio	2023-06-29T00:00:00	2024-11-08T05:00:00	4	Temperatura máxima	13.9
115679	7	Sololá	701	Sololá	4	Finca Santa Victoria	6	Junio	2023-06-29T00:00:00	2024-11-08T05:00:00	3	Temperatura mínima	13.6
115680	7	Sololá	701	Sololá	4	Finca Santa Victoria	6	Junio	2023-06-29T00:00:00	2024-11-08T05:00:00	5	Humedad	97
115681	7	Sololá	701	Sololá	4	Finca Santa Victoria	6	Junio	2023-06-29T00:00:00	2024-11-08T05:00:00	6	Velocidad del viento	0
115682	7	Sololá	701	Sololá	4	Finca Santa Victoria	6	Junio	2023-06-29T00:00:00	2024-11-08T05:00:00	7	Dirección del viento	0
115683	7	Sololá	701	Sololá	4	Finca Santa Victoria	6	Junio	2023-06-29T00:00:00	2024-11-08T05:00:00	1	Precipitación	0
115684	7	Sololá	701	Sololá	4	Finca Santa Victoria	6	Junio	2023-06-29T00:00:00	2024-11-08T05:00:00	8	Radiación solar	0
115685	7	Sololá	701	Sololá	4	Finca Santa Victoria	6	Junio	2023-06-29T00:00:00	2024-11-08T06:00:00	2	Temperatura media	13.7
115686	7	Sololá	701	Sololá	4	Finca Santa Victoria	6	Junio	2023-06-29T00:00:00	2024-11-08T06:00:00	4	Temperatura máxima	13.9
115687	7	Sololá	701	Sololá	4	Finca Santa Victoria	6	Junio	2023-06-29T00:00:00	2024-11-08T06:00:00	3	Temperatura mínima	13.6
115688	7	Sololá	701	Sololá	4	Finca Santa Victoria	6	Junio	2023-06-29T00:00:00	2024-11-08T06:00:00	5	Humedad	96
115689	7	Sololá	701	Sololá	4	Finca Santa Victoria	6	Junio	2023-06-29T00:00:00	2024-11-08T06:00:00	6	Velocidad del viento	0
115690	7	Sololá	701	Sololá	4	Finca Santa Victoria	6	Junio	2023-06-29T00:00:00	2024-11-08T06:00:00	7	Dirección del viento	0
115691	7	Sololá	701	Sololá	4	Finca Santa Victoria	6	Junio	2023-06-29T00:00:00	2024-11-08T06:00:00	1	Precipitación	0
115692	7	Sololá	701	Sololá	4	Finca Santa Victoria	6	Junio	2023-06-29T00:00:00	2024-11-08T06:00:00	8	Radiación solar	0
115693	7	Sololá	701	Sololá	4	Finca Santa Victoria	6	Junio	2023-06-29T00:00:00	2024-11-08T07:00:00	2	Temperatura media	15.4
115694	7	Sololá	701	Sololá	4	Finca Santa Victoria	6	Junio	2023-06-29T00:00:00	2024-11-08T07:00:00	4	Temperatura máxima	15.4
115695	7	Sololá	701	Sololá	4	Finca Santa Victoria	6	Junio	2023-06-29T00:00:00	2024-11-08T07:00:00	3	Temperatura mínima	13.7
115696	7	Sololá	701	Sololá	4	Finca Santa Victoria	6	Junio	2023-06-29T00:00:00	2024-11-08T07:00:00	5	Humedad	91
115697	7	Sololá	701	Sololá	4	Finca Santa Victoria	6	Junio	2023-06-29T00:00:00	2024-11-08T07:00:00	6	Velocidad del viento	1.6
115698	7	Sololá	701	Sololá	4	Finca Santa Victoria	6	Junio	2023-06-29T00:00:00	2024-11-08T07:00:00	7	Dirección del viento	1.61
115699	7	Sololá	701	Sololá	4	Finca Santa Victoria	6	Junio	2023-06-29T00:00:00	2024-11-08T07:00:00	1	Precipitación	0
115700	7	Sololá	701	Sololá	4	Finca Santa Victoria	6	Junio	2023-06-29T00:00:00	2024-11-08T07:00:00	8	Radiación solar	44
115701	7	Sololá	701	Sololá	4	Finca Santa Victoria	6	Junio	2023-06-29T00:00:00	2024-11-08T08:00:00	2	Temperatura media	18.2
115702	7	Sololá	701	Sololá	4	Finca Santa Victoria	6	Junio	2023-06-29T00:00:00	2024-11-08T08:00:00	4	Temperatura máxima	18.2
115703	7	Sololá	701	Sololá	4	Finca Santa Victoria	6	Junio	2023-06-29T00:00:00	2024-11-08T08:00:00	3	Temperatura mínima	15.4
115704	7	Sololá	701	Sololá	4	Finca Santa Victoria	6	Junio	2023-06-29T00:00:00	2024-11-08T08:00:00	5	Humedad	85
115705	7	Sololá	701	Sololá	4	Finca Santa Victoria	6	Junio	2023-06-29T00:00:00	2024-11-08T08:00:00	6	Velocidad del viento	0
115706	7	Sololá	701	Sololá	4	Finca Santa Victoria	6	Junio	2023-06-29T00:00:00	2024-11-08T08:00:00	7	Dirección del viento	0
115707	7	Sololá	701	Sololá	4	Finca Santa Victoria	6	Junio	2023-06-29T00:00:00	2024-11-08T08:00:00	1	Precipitación	0
115708	7	Sololá	701	Sololá	4	Finca Santa Victoria	6	Junio	2023-06-29T00:00:00	2024-11-08T08:00:00	8	Radiación solar	267
115709	7	Sololá	701	Sololá	4	Finca Santa Victoria	6	Junio	2023-06-29T00:00:00	2024-11-08T09:00:00	2	Temperatura media	18.1
115710	7	Sololá	701	Sololá	4	Finca Santa Victoria	6	Junio	2023-06-29T00:00:00	2024-11-08T09:00:00	4	Temperatura máxima	19.1
115711	7	Sololá	701	Sololá	4	Finca Santa Victoria	6	Junio	2023-06-29T00:00:00	2024-11-08T09:00:00	3	Temperatura mínima	18.1
115712	7	Sololá	701	Sololá	4	Finca Santa Victoria	6	Junio	2023-06-29T00:00:00	2024-11-08T09:00:00	5	Humedad	83
115713	7	Sololá	701	Sololá	4	Finca Santa Victoria	6	Junio	2023-06-29T00:00:00	2024-11-08T09:00:00	6	Velocidad del viento	1.6
115714	7	Sololá	701	Sololá	4	Finca Santa Victoria	6	Junio	2023-06-29T00:00:00	2024-11-08T09:00:00	7	Dirección del viento	1.61
115715	7	Sololá	701	Sololá	4	Finca Santa Victoria	6	Junio	2023-06-29T00:00:00	2024-11-08T09:00:00	1	Precipitación	0
115716	7	Sololá	701	Sololá	4	Finca Santa Victoria	6	Junio	2023-06-29T00:00:00	2024-11-08T09:00:00	8	Radiación solar	355
115717	7	Sololá	701	Sololá	4	Finca Santa Victoria	6	Junio	2023-06-29T00:00:00	2024-11-08T10:00:00	2	Temperatura media	19.6
115718	7	Sololá	701	Sololá	4	Finca Santa Victoria	6	Junio	2023-06-29T00:00:00	2024-11-08T10:00:00	4	Temperatura máxima	19.8
115719	7	Sololá	701	Sololá	4	Finca Santa Victoria	6	Junio	2023-06-29T00:00:00	2024-11-08T10:00:00	3	Temperatura mínima	18.1
115720	7	Sololá	701	Sololá	4	Finca Santa Victoria	6	Junio	2023-06-29T00:00:00	2024-11-08T10:00:00	5	Humedad	83
115721	7	Sololá	701	Sololá	4	Finca Santa Victoria	6	Junio	2023-06-29T00:00:00	2024-11-08T10:00:00	6	Velocidad del viento	0
115722	7	Sololá	701	Sololá	4	Finca Santa Victoria	6	Junio	2023-06-29T00:00:00	2024-11-08T10:00:00	7	Dirección del viento	0
115723	7	Sololá	701	Sololá	4	Finca Santa Victoria	6	Junio	2023-06-29T00:00:00	2024-11-08T10:00:00	1	Precipitación	0
115724	7	Sololá	701	Sololá	4	Finca Santa Victoria	6	Junio	2023-06-29T00:00:00	2024-11-08T10:00:00	8	Radiación solar	238
115725	7	Sololá	701	Sololá	4	Finca Santa Victoria	6	Junio	2023-06-29T00:00:00	2024-11-08T11:00:00	2	Temperatura media	20.3
115726	7	Sololá	701	Sololá	4	Finca Santa Victoria	6	Junio	2023-06-29T00:00:00	2024-11-08T11:00:00	4	Temperatura máxima	21.1
115727	7	Sololá	701	Sololá	4	Finca Santa Victoria	6	Junio	2023-06-29T00:00:00	2024-11-08T11:00:00	3	Temperatura mínima	19.5
115728	7	Sololá	701	Sololá	4	Finca Santa Victoria	6	Junio	2023-06-29T00:00:00	2024-11-08T11:00:00	5	Humedad	83
115729	7	Sololá	701	Sololá	4	Finca Santa Victoria	6	Junio	2023-06-29T00:00:00	2024-11-08T11:00:00	6	Velocidad del viento	1.6
115730	7	Sololá	701	Sololá	4	Finca Santa Victoria	6	Junio	2023-06-29T00:00:00	2024-11-08T11:00:00	7	Dirección del viento	1.61
115731	7	Sololá	701	Sololá	4	Finca Santa Victoria	6	Junio	2023-06-29T00:00:00	2024-11-08T11:00:00	1	Precipitación	0
115732	7	Sololá	701	Sololá	4	Finca Santa Victoria	6	Junio	2023-06-29T00:00:00	2024-11-08T11:00:00	8	Radiación solar	303
115733	7	Sololá	701	Sololá	4	Finca Santa Victoria	6	Junio	2023-06-29T00:00:00	2024-11-08T12:00:00	2	Temperatura media	17.5
115734	7	Sololá	701	Sololá	4	Finca Santa Victoria	6	Junio	2023-06-29T00:00:00	2024-11-08T12:00:00	4	Temperatura máxima	20.3
115735	7	Sololá	701	Sololá	4	Finca Santa Victoria	6	Junio	2023-06-29T00:00:00	2024-11-08T12:00:00	3	Temperatura mínima	17.4
115736	7	Sololá	701	Sololá	4	Finca Santa Victoria	6	Junio	2023-06-29T00:00:00	2024-11-08T12:00:00	5	Humedad	93
115737	7	Sololá	701	Sololá	4	Finca Santa Victoria	6	Junio	2023-06-29T00:00:00	2024-11-08T12:00:00	6	Velocidad del viento	1.6
115738	7	Sololá	701	Sololá	4	Finca Santa Victoria	6	Junio	2023-06-29T00:00:00	2024-11-08T12:00:00	7	Dirección del viento	1.61
115739	7	Sololá	701	Sololá	4	Finca Santa Victoria	6	Junio	2023-06-29T00:00:00	2024-11-08T12:00:00	1	Precipitación	0
115740	7	Sololá	701	Sololá	4	Finca Santa Victoria	6	Junio	2023-06-29T00:00:00	2024-11-08T12:00:00	8	Radiación solar	166
115741	7	Sololá	701	Sololá	4	Finca Santa Victoria	6	Junio	2023-06-29T00:00:00	2024-11-08T13:00:00	2	Temperatura media	18.8
115742	7	Sololá	701	Sololá	4	Finca Santa Victoria	6	Junio	2023-06-29T00:00:00	2024-11-08T13:00:00	4	Temperatura máxima	19
115743	7	Sololá	701	Sololá	4	Finca Santa Victoria	6	Junio	2023-06-29T00:00:00	2024-11-08T13:00:00	3	Temperatura mínima	17.3
115744	7	Sololá	701	Sololá	4	Finca Santa Victoria	6	Junio	2023-06-29T00:00:00	2024-11-08T13:00:00	5	Humedad	90
115745	7	Sololá	701	Sololá	4	Finca Santa Victoria	6	Junio	2023-06-29T00:00:00	2024-11-08T13:00:00	6	Velocidad del viento	1.6
115746	7	Sololá	701	Sololá	4	Finca Santa Victoria	6	Junio	2023-06-29T00:00:00	2024-11-08T13:00:00	7	Dirección del viento	1.61
115747	7	Sololá	701	Sololá	4	Finca Santa Victoria	6	Junio	2023-06-29T00:00:00	2024-11-08T13:00:00	1	Precipitación	0
115748	7	Sololá	701	Sololá	4	Finca Santa Victoria	6	Junio	2023-06-29T00:00:00	2024-11-08T13:00:00	8	Radiación solar	238
115749	7	Sololá	701	Sololá	4	Finca Santa Victoria	6	Junio	2023-06-29T00:00:00	2024-11-08T14:00:00	2	Temperatura media	19.2
115750	7	Sololá	701	Sololá	4	Finca Santa Victoria	6	Junio	2023-06-29T00:00:00	2024-11-08T14:00:00	4	Temperatura máxima	19.2
115751	7	Sololá	701	Sololá	4	Finca Santa Victoria	6	Junio	2023-06-29T00:00:00	2024-11-08T14:00:00	3	Temperatura mínima	17.9
115752	7	Sololá	701	Sololá	4	Finca Santa Victoria	6	Junio	2023-06-29T00:00:00	2024-11-08T14:00:00	5	Humedad	87
115753	7	Sololá	701	Sololá	4	Finca Santa Victoria	6	Junio	2023-06-29T00:00:00	2024-11-08T14:00:00	6	Velocidad del viento	1.6
115754	7	Sololá	701	Sololá	4	Finca Santa Victoria	6	Junio	2023-06-29T00:00:00	2024-11-08T14:00:00	7	Dirección del viento	1.61
115755	7	Sololá	701	Sololá	4	Finca Santa Victoria	6	Junio	2023-06-29T00:00:00	2024-11-08T14:00:00	1	Precipitación	0
115756	7	Sololá	701	Sololá	4	Finca Santa Victoria	6	Junio	2023-06-29T00:00:00	2024-11-08T14:00:00	8	Radiación solar	205
115757	7	Sololá	701	Sololá	4	Finca Santa Victoria	6	Junio	2023-06-29T00:00:00	2024-11-08T15:00:00	2	Temperatura media	20.1
115758	7	Sololá	701	Sololá	4	Finca Santa Victoria	6	Junio	2023-06-29T00:00:00	2024-11-08T15:00:00	4	Temperatura máxima	20.6
115759	7	Sololá	701	Sololá	4	Finca Santa Victoria	6	Junio	2023-06-29T00:00:00	2024-11-08T15:00:00	3	Temperatura mínima	18.4
115760	7	Sololá	701	Sololá	4	Finca Santa Victoria	6	Junio	2023-06-29T00:00:00	2024-11-08T15:00:00	5	Humedad	82
115761	7	Sololá	701	Sololá	4	Finca Santa Victoria	6	Junio	2023-06-29T00:00:00	2024-11-08T15:00:00	6	Velocidad del viento	1.6
115762	7	Sololá	701	Sololá	4	Finca Santa Victoria	6	Junio	2023-06-29T00:00:00	2024-11-08T15:00:00	7	Dirección del viento	1.61
115763	7	Sololá	701	Sololá	4	Finca Santa Victoria	6	Junio	2023-06-29T00:00:00	2024-11-08T15:00:00	1	Precipitación	0
115764	7	Sololá	701	Sololá	4	Finca Santa Victoria	6	Junio	2023-06-29T00:00:00	2024-11-08T15:00:00	8	Radiación solar	241
115765	7	Sololá	701	Sololá	4	Finca Santa Victoria	6	Junio	2023-06-29T00:00:00	2024-11-08T16:00:00	2	Temperatura media	17.4
115766	7	Sololá	701	Sololá	4	Finca Santa Victoria	6	Junio	2023-06-29T00:00:00	2024-11-08T16:00:00	4	Temperatura máxima	20.2
115767	7	Sololá	701	Sololá	4	Finca Santa Victoria	6	Junio	2023-06-29T00:00:00	2024-11-08T16:00:00	3	Temperatura mínima	17.4
115768	7	Sololá	701	Sololá	4	Finca Santa Victoria	6	Junio	2023-06-29T00:00:00	2024-11-08T16:00:00	5	Humedad	94
115769	7	Sololá	701	Sololá	4	Finca Santa Victoria	6	Junio	2023-06-29T00:00:00	2024-11-08T16:00:00	6	Velocidad del viento	1.6
115770	7	Sololá	701	Sololá	4	Finca Santa Victoria	6	Junio	2023-06-29T00:00:00	2024-11-08T16:00:00	7	Dirección del viento	1.61
115771	7	Sololá	701	Sololá	4	Finca Santa Victoria	6	Junio	2023-06-29T00:00:00	2024-11-08T16:00:00	1	Precipitación	0
115772	7	Sololá	701	Sololá	4	Finca Santa Victoria	6	Junio	2023-06-29T00:00:00	2024-11-08T16:00:00	8	Radiación solar	77
115773	7	Sololá	701	Sololá	4	Finca Santa Victoria	6	Junio	2023-06-29T00:00:00	2024-11-08T17:00:00	2	Temperatura media	17.2
115774	7	Sololá	701	Sololá	4	Finca Santa Victoria	6	Junio	2023-06-29T00:00:00	2024-11-08T17:00:00	4	Temperatura máxima	18
115775	7	Sololá	701	Sololá	4	Finca Santa Victoria	6	Junio	2023-06-29T00:00:00	2024-11-08T17:00:00	3	Temperatura mínima	17.2
115776	7	Sololá	701	Sololá	4	Finca Santa Victoria	6	Junio	2023-06-29T00:00:00	2024-11-08T17:00:00	5	Humedad	95
115777	7	Sololá	701	Sololá	4	Finca Santa Victoria	6	Junio	2023-06-29T00:00:00	2024-11-08T17:00:00	6	Velocidad del viento	1.6
115778	7	Sololá	701	Sololá	4	Finca Santa Victoria	6	Junio	2023-06-29T00:00:00	2024-11-08T17:00:00	7	Dirección del viento	1.61
115779	7	Sololá	701	Sololá	4	Finca Santa Victoria	6	Junio	2023-06-29T00:00:00	2024-11-08T17:00:00	1	Precipitación	0.2
115780	7	Sololá	701	Sololá	4	Finca Santa Victoria	6	Junio	2023-06-29T00:00:00	2024-11-08T17:00:00	8	Radiación solar	94
115781	7	Sololá	701	Sololá	4	Finca Santa Victoria	6	Junio	2023-06-29T00:00:00	2024-11-08T18:00:00	2	Temperatura media	16.2
115782	7	Sololá	701	Sololá	4	Finca Santa Victoria	6	Junio	2023-06-29T00:00:00	2024-11-08T18:00:00	4	Temperatura máxima	17.3
115783	7	Sololá	701	Sololá	4	Finca Santa Victoria	6	Junio	2023-06-29T00:00:00	2024-11-08T18:00:00	3	Temperatura mínima	16.2
115784	7	Sololá	701	Sololá	4	Finca Santa Victoria	6	Junio	2023-06-29T00:00:00	2024-11-08T18:00:00	5	Humedad	97
115785	7	Sololá	701	Sololá	4	Finca Santa Victoria	6	Junio	2023-06-29T00:00:00	2024-11-08T18:00:00	6	Velocidad del viento	0
115786	7	Sololá	701	Sololá	4	Finca Santa Victoria	6	Junio	2023-06-29T00:00:00	2024-11-08T18:00:00	7	Dirección del viento	0
115787	7	Sololá	701	Sololá	4	Finca Santa Victoria	6	Junio	2023-06-29T00:00:00	2024-11-08T18:00:00	1	Precipitación	0
115788	7	Sololá	701	Sololá	4	Finca Santa Victoria	6	Junio	2023-06-29T00:00:00	2024-11-08T18:00:00	8	Radiación solar	21
115789	7	Sololá	701	Sololá	4	Finca Santa Victoria	6	Junio	2023-06-29T00:00:00	2024-11-08T19:00:00	2	Temperatura media	15.7
115790	7	Sololá	701	Sololá	4	Finca Santa Victoria	6	Junio	2023-06-29T00:00:00	2024-11-08T19:00:00	4	Temperatura máxima	16.2
115791	7	Sololá	701	Sololá	4	Finca Santa Victoria	6	Junio	2023-06-29T00:00:00	2024-11-08T19:00:00	3	Temperatura mínima	15.4
115792	7	Sololá	701	Sololá	4	Finca Santa Victoria	6	Junio	2023-06-29T00:00:00	2024-11-08T19:00:00	5	Humedad	78
115793	7	Sololá	701	Sololá	4	Finca Santa Victoria	6	Junio	2023-06-29T00:00:00	2024-11-08T19:00:00	6	Velocidad del viento	0
115794	7	Sololá	701	Sololá	4	Finca Santa Victoria	6	Junio	2023-06-29T00:00:00	2024-11-08T19:00:00	7	Dirección del viento	0
115795	7	Sololá	701	Sololá	4	Finca Santa Victoria	6	Junio	2023-06-29T00:00:00	2024-11-08T19:00:00	1	Precipitación	0
115796	7	Sololá	701	Sololá	4	Finca Santa Victoria	6	Junio	2023-06-29T00:00:00	2024-11-08T19:00:00	8	Radiación solar	0
115797	7	Sololá	701	Sololá	4	Finca Santa Victoria	6	Junio	2023-06-29T00:00:00	2024-11-08T20:00:00	2	Temperatura media	14.6
115798	7	Sololá	701	Sololá	4	Finca Santa Victoria	6	Junio	2023-06-29T00:00:00	2024-11-08T20:00:00	4	Temperatura máxima	15.8
115799	7	Sololá	701	Sololá	4	Finca Santa Victoria	6	Junio	2023-06-29T00:00:00	2024-11-08T20:00:00	3	Temperatura mínima	14.6
115800	7	Sololá	701	Sololá	4	Finca Santa Victoria	6	Junio	2023-06-29T00:00:00	2024-11-08T20:00:00	5	Humedad	86
115801	7	Sololá	701	Sololá	4	Finca Santa Victoria	6	Junio	2023-06-29T00:00:00	2024-11-08T20:00:00	6	Velocidad del viento	0
115802	7	Sololá	701	Sololá	4	Finca Santa Victoria	6	Junio	2023-06-29T00:00:00	2024-11-08T20:00:00	7	Dirección del viento	0
115803	7	Sololá	701	Sololá	4	Finca Santa Victoria	6	Junio	2023-06-29T00:00:00	2024-11-08T20:00:00	1	Precipitación	0
115804	7	Sololá	701	Sololá	4	Finca Santa Victoria	6	Junio	2023-06-29T00:00:00	2024-11-08T20:00:00	8	Radiación solar	0
115805	7	Sololá	701	Sololá	4	Finca Santa Victoria	6	Junio	2023-06-29T00:00:00	2024-11-08T21:00:00	2	Temperatura media	14.6
115806	7	Sololá	701	Sololá	4	Finca Santa Victoria	6	Junio	2023-06-29T00:00:00	2024-11-08T21:00:00	4	Temperatura máxima	14.6
115807	7	Sololá	701	Sololá	4	Finca Santa Victoria	6	Junio	2023-06-29T00:00:00	2024-11-08T21:00:00	3	Temperatura mínima	14.4
115808	7	Sololá	701	Sololá	4	Finca Santa Victoria	6	Junio	2023-06-29T00:00:00	2024-11-08T21:00:00	5	Humedad	86
115809	7	Sololá	701	Sololá	4	Finca Santa Victoria	6	Junio	2023-06-29T00:00:00	2024-11-08T21:00:00	6	Velocidad del viento	0
115810	7	Sololá	701	Sololá	4	Finca Santa Victoria	6	Junio	2023-06-29T00:00:00	2024-11-08T21:00:00	7	Dirección del viento	0
115811	7	Sololá	701	Sololá	4	Finca Santa Victoria	6	Junio	2023-06-29T00:00:00	2024-11-08T21:00:00	1	Precipitación	0
115812	7	Sololá	701	Sololá	4	Finca Santa Victoria	6	Junio	2023-06-29T00:00:00	2024-11-08T21:00:00	8	Radiación solar	0
115813	7	Sololá	701	Sololá	4	Finca Santa Victoria	6	Junio	2023-06-29T00:00:00	2024-11-08T22:00:00	2	Temperatura media	14.6
115814	7	Sololá	701	Sololá	4	Finca Santa Victoria	6	Junio	2023-06-29T00:00:00	2024-11-08T22:00:00	4	Temperatura máxima	14.9
115815	7	Sololá	701	Sololá	4	Finca Santa Victoria	6	Junio	2023-06-29T00:00:00	2024-11-08T22:00:00	3	Temperatura mínima	14.5
115816	7	Sololá	701	Sololá	4	Finca Santa Victoria	6	Junio	2023-06-29T00:00:00	2024-11-08T22:00:00	5	Humedad	89
115817	7	Sololá	701	Sololá	4	Finca Santa Victoria	6	Junio	2023-06-29T00:00:00	2024-11-08T22:00:00	6	Velocidad del viento	0
115818	7	Sololá	701	Sololá	4	Finca Santa Victoria	6	Junio	2023-06-29T00:00:00	2024-11-08T22:00:00	7	Dirección del viento	0
115819	7	Sololá	701	Sololá	4	Finca Santa Victoria	6	Junio	2023-06-29T00:00:00	2024-11-08T22:00:00	1	Precipitación	0
115820	7	Sololá	701	Sololá	4	Finca Santa Victoria	6	Junio	2023-06-29T00:00:00	2024-11-08T22:00:00	8	Radiación solar	0
115821	7	Sololá	701	Sololá	4	Finca Santa Victoria	6	Junio	2023-06-29T00:00:00	2024-11-08T23:00:00	2	Temperatura media	14.1
115822	7	Sololá	701	Sololá	4	Finca Santa Victoria	6	Junio	2023-06-29T00:00:00	2024-11-08T23:00:00	4	Temperatura máxima	14.6
115823	7	Sololá	701	Sololá	4	Finca Santa Victoria	6	Junio	2023-06-29T00:00:00	2024-11-08T23:00:00	3	Temperatura mínima	14.1
115824	7	Sololá	701	Sololá	4	Finca Santa Victoria	6	Junio	2023-06-29T00:00:00	2024-11-08T23:00:00	5	Humedad	90
115825	7	Sololá	701	Sololá	4	Finca Santa Victoria	6	Junio	2023-06-29T00:00:00	2024-11-08T23:00:00	6	Velocidad del viento	0
115826	7	Sololá	701	Sololá	4	Finca Santa Victoria	6	Junio	2023-06-29T00:00:00	2024-11-08T23:00:00	7	Dirección del viento	0
115827	7	Sololá	701	Sololá	4	Finca Santa Victoria	6	Junio	2023-06-29T00:00:00	2024-11-08T23:00:00	1	Precipitación	0
115828	7	Sololá	701	Sololá	4	Finca Santa Victoria	6	Junio	2023-06-29T00:00:00	2024-11-08T23:00:00	8	Radiación solar	0
115829	7	Sololá	701	Sololá	4	Finca Santa Victoria	6	Junio	2023-06-30T00:00:00	2024-11-08T00:00:00	2	Temperatura media	13.8
115830	7	Sololá	701	Sololá	4	Finca Santa Victoria	6	Junio	2023-06-30T00:00:00	2024-11-08T00:00:00	4	Temperatura máxima	14.2
115831	7	Sololá	701	Sololá	4	Finca Santa Victoria	6	Junio	2023-06-30T00:00:00	2024-11-08T00:00:00	3	Temperatura mínima	13.8
115832	7	Sololá	701	Sololá	4	Finca Santa Victoria	6	Junio	2023-06-30T00:00:00	2024-11-08T00:00:00	5	Humedad	92
115833	7	Sololá	701	Sololá	4	Finca Santa Victoria	6	Junio	2023-06-30T00:00:00	2024-11-08T00:00:00	6	Velocidad del viento	0
115834	7	Sololá	701	Sololá	4	Finca Santa Victoria	6	Junio	2023-06-30T00:00:00	2024-11-08T00:00:00	7	Dirección del viento	0
115835	7	Sololá	701	Sololá	4	Finca Santa Victoria	6	Junio	2023-06-30T00:00:00	2024-11-08T00:00:00	1	Precipitación	0
115836	7	Sololá	701	Sololá	4	Finca Santa Victoria	6	Junio	2023-06-30T00:00:00	2024-11-08T00:00:00	8	Radiación solar	0
115837	7	Sololá	701	Sololá	4	Finca Santa Victoria	6	Junio	2023-06-30T00:00:00	2024-11-08T01:00:00	2	Temperatura media	13.4
115838	7	Sololá	701	Sololá	4	Finca Santa Victoria	6	Junio	2023-06-30T00:00:00	2024-11-08T01:00:00	4	Temperatura máxima	13.9
115839	7	Sololá	701	Sololá	4	Finca Santa Victoria	6	Junio	2023-06-30T00:00:00	2024-11-08T01:00:00	3	Temperatura mínima	13.4
115840	7	Sololá	701	Sololá	4	Finca Santa Victoria	6	Junio	2023-06-30T00:00:00	2024-11-08T01:00:00	5	Humedad	91
115841	7	Sololá	701	Sololá	4	Finca Santa Victoria	6	Junio	2023-06-30T00:00:00	2024-11-08T01:00:00	6	Velocidad del viento	0
115842	7	Sololá	701	Sololá	4	Finca Santa Victoria	6	Junio	2023-06-30T00:00:00	2024-11-08T01:00:00	7	Dirección del viento	0
115843	7	Sololá	701	Sololá	4	Finca Santa Victoria	6	Junio	2023-06-30T00:00:00	2024-11-08T01:00:00	1	Precipitación	0
115844	7	Sololá	701	Sololá	4	Finca Santa Victoria	6	Junio	2023-06-30T00:00:00	2024-11-08T01:00:00	8	Radiación solar	0
115845	7	Sololá	701	Sololá	4	Finca Santa Victoria	6	Junio	2023-06-30T00:00:00	2024-11-08T02:00:00	2	Temperatura media	13.6
115846	7	Sololá	701	Sololá	4	Finca Santa Victoria	6	Junio	2023-06-30T00:00:00	2024-11-08T02:00:00	4	Temperatura máxima	13.6
115847	7	Sololá	701	Sololá	4	Finca Santa Victoria	6	Junio	2023-06-30T00:00:00	2024-11-08T02:00:00	3	Temperatura mínima	13.2
115848	7	Sololá	701	Sololá	4	Finca Santa Victoria	6	Junio	2023-06-30T00:00:00	2024-11-08T02:00:00	5	Humedad	90
115849	7	Sololá	701	Sololá	4	Finca Santa Victoria	6	Junio	2023-06-30T00:00:00	2024-11-08T02:00:00	6	Velocidad del viento	0
115850	7	Sololá	701	Sololá	4	Finca Santa Victoria	6	Junio	2023-06-30T00:00:00	2024-11-08T02:00:00	7	Dirección del viento	0
115851	7	Sololá	701	Sololá	4	Finca Santa Victoria	6	Junio	2023-06-30T00:00:00	2024-11-08T02:00:00	1	Precipitación	0
115852	7	Sololá	701	Sololá	4	Finca Santa Victoria	6	Junio	2023-06-30T00:00:00	2024-11-08T02:00:00	8	Radiación solar	0
115853	7	Sololá	701	Sololá	4	Finca Santa Victoria	6	Junio	2023-06-30T00:00:00	2024-11-08T03:00:00	2	Temperatura media	13.2
115854	7	Sololá	701	Sololá	4	Finca Santa Victoria	6	Junio	2023-06-30T00:00:00	2024-11-08T03:00:00	4	Temperatura máxima	13.6
115855	7	Sololá	701	Sololá	4	Finca Santa Victoria	6	Junio	2023-06-30T00:00:00	2024-11-08T03:00:00	3	Temperatura mínima	13.2
115856	7	Sololá	701	Sololá	4	Finca Santa Victoria	6	Junio	2023-06-30T00:00:00	2024-11-08T03:00:00	5	Humedad	94
115857	7	Sololá	701	Sololá	4	Finca Santa Victoria	6	Junio	2023-06-30T00:00:00	2024-11-08T03:00:00	6	Velocidad del viento	0
115858	7	Sololá	701	Sololá	4	Finca Santa Victoria	6	Junio	2023-06-30T00:00:00	2024-11-08T03:00:00	7	Dirección del viento	0
115859	7	Sololá	701	Sololá	4	Finca Santa Victoria	6	Junio	2023-06-30T00:00:00	2024-11-08T03:00:00	1	Precipitación	0
115860	7	Sololá	701	Sololá	4	Finca Santa Victoria	6	Junio	2023-06-30T00:00:00	2024-11-08T03:00:00	8	Radiación solar	0
115861	7	Sololá	701	Sololá	4	Finca Santa Victoria	6	Junio	2023-06-30T00:00:00	2024-11-08T04:00:00	2	Temperatura media	13.1
115862	7	Sololá	701	Sololá	4	Finca Santa Victoria	6	Junio	2023-06-30T00:00:00	2024-11-08T04:00:00	4	Temperatura máxima	13.2
115863	7	Sololá	701	Sololá	4	Finca Santa Victoria	6	Junio	2023-06-30T00:00:00	2024-11-08T04:00:00	3	Temperatura mínima	12.9
115864	7	Sololá	701	Sololá	4	Finca Santa Victoria	6	Junio	2023-06-30T00:00:00	2024-11-08T04:00:00	5	Humedad	92
115865	7	Sololá	701	Sololá	4	Finca Santa Victoria	6	Junio	2023-06-30T00:00:00	2024-11-08T04:00:00	6	Velocidad del viento	0
115866	7	Sololá	701	Sololá	4	Finca Santa Victoria	6	Junio	2023-06-30T00:00:00	2024-11-08T04:00:00	7	Dirección del viento	0
115867	7	Sololá	701	Sololá	4	Finca Santa Victoria	6	Junio	2023-06-30T00:00:00	2024-11-08T04:00:00	1	Precipitación	0
115868	7	Sololá	701	Sololá	4	Finca Santa Victoria	6	Junio	2023-06-30T00:00:00	2024-11-08T04:00:00	8	Radiación solar	0
115869	7	Sololá	701	Sololá	4	Finca Santa Victoria	6	Junio	2023-06-30T00:00:00	2024-11-08T05:00:00	2	Temperatura media	13.1
115870	7	Sololá	701	Sololá	4	Finca Santa Victoria	6	Junio	2023-06-30T00:00:00	2024-11-08T05:00:00	4	Temperatura máxima	13.1
115871	7	Sololá	701	Sololá	4	Finca Santa Victoria	6	Junio	2023-06-30T00:00:00	2024-11-08T05:00:00	3	Temperatura mínima	12.8
115872	7	Sololá	701	Sololá	4	Finca Santa Victoria	6	Junio	2023-06-30T00:00:00	2024-11-08T05:00:00	5	Humedad	92
115873	7	Sololá	701	Sololá	4	Finca Santa Victoria	6	Junio	2023-06-30T00:00:00	2024-11-08T05:00:00	6	Velocidad del viento	0
115874	7	Sololá	701	Sololá	4	Finca Santa Victoria	6	Junio	2023-06-30T00:00:00	2024-11-08T05:00:00	7	Dirección del viento	0
115875	7	Sololá	701	Sololá	4	Finca Santa Victoria	6	Junio	2023-06-30T00:00:00	2024-11-08T05:00:00	1	Precipitación	0
115876	7	Sololá	701	Sololá	4	Finca Santa Victoria	6	Junio	2023-06-30T00:00:00	2024-11-08T05:00:00	8	Radiación solar	0
115877	7	Sololá	701	Sololá	4	Finca Santa Victoria	6	Junio	2023-06-30T00:00:00	2024-11-08T06:00:00	2	Temperatura media	13.3
115878	7	Sololá	701	Sololá	4	Finca Santa Victoria	6	Junio	2023-06-30T00:00:00	2024-11-08T06:00:00	4	Temperatura máxima	13.5
115879	7	Sololá	701	Sololá	4	Finca Santa Victoria	6	Junio	2023-06-30T00:00:00	2024-11-08T06:00:00	3	Temperatura mínima	13.1
115880	7	Sololá	701	Sololá	4	Finca Santa Victoria	6	Junio	2023-06-30T00:00:00	2024-11-08T06:00:00	5	Humedad	91
115881	7	Sololá	701	Sololá	4	Finca Santa Victoria	6	Junio	2023-06-30T00:00:00	2024-11-08T06:00:00	6	Velocidad del viento	0
115882	7	Sololá	701	Sololá	4	Finca Santa Victoria	6	Junio	2023-06-30T00:00:00	2024-11-08T06:00:00	7	Dirección del viento	0
115883	7	Sololá	701	Sololá	4	Finca Santa Victoria	6	Junio	2023-06-30T00:00:00	2024-11-08T06:00:00	1	Precipitación	0
115884	7	Sololá	701	Sololá	4	Finca Santa Victoria	6	Junio	2023-06-30T00:00:00	2024-11-08T06:00:00	8	Radiación solar	1
115885	7	Sololá	701	Sololá	4	Finca Santa Victoria	6	Junio	2023-06-30T00:00:00	2024-11-08T07:00:00	2	Temperatura media	14.5
115886	7	Sololá	701	Sololá	4	Finca Santa Victoria	6	Junio	2023-06-30T00:00:00	2024-11-08T07:00:00	4	Temperatura máxima	14.5
115887	7	Sololá	701	Sololá	4	Finca Santa Victoria	6	Junio	2023-06-30T00:00:00	2024-11-08T07:00:00	3	Temperatura mínima	13.1
115888	7	Sololá	701	Sololá	4	Finca Santa Victoria	6	Junio	2023-06-30T00:00:00	2024-11-08T07:00:00	5	Humedad	89
115889	7	Sololá	701	Sololá	4	Finca Santa Victoria	6	Junio	2023-06-30T00:00:00	2024-11-08T07:00:00	6	Velocidad del viento	0
115890	7	Sololá	701	Sololá	4	Finca Santa Victoria	6	Junio	2023-06-30T00:00:00	2024-11-08T07:00:00	7	Dirección del viento	0
115891	7	Sololá	701	Sololá	4	Finca Santa Victoria	6	Junio	2023-06-30T00:00:00	2024-11-08T07:00:00	1	Precipitación	0
115892	7	Sololá	701	Sololá	4	Finca Santa Victoria	6	Junio	2023-06-30T00:00:00	2024-11-08T07:00:00	8	Radiación solar	41
115893	7	Sololá	701	Sololá	4	Finca Santa Victoria	6	Junio	2023-06-30T00:00:00	2024-11-08T08:00:00	2	Temperatura media	17.7
115894	7	Sololá	701	Sololá	4	Finca Santa Victoria	6	Junio	2023-06-30T00:00:00	2024-11-08T08:00:00	4	Temperatura máxima	17.7
115895	7	Sololá	701	Sololá	4	Finca Santa Victoria	6	Junio	2023-06-30T00:00:00	2024-11-08T08:00:00	3	Temperatura mínima	14.5
115896	7	Sololá	701	Sololá	4	Finca Santa Victoria	6	Junio	2023-06-30T00:00:00	2024-11-08T08:00:00	5	Humedad	77
115897	7	Sololá	701	Sololá	4	Finca Santa Victoria	6	Junio	2023-06-30T00:00:00	2024-11-08T08:00:00	6	Velocidad del viento	0
115898	7	Sololá	701	Sololá	4	Finca Santa Victoria	6	Junio	2023-06-30T00:00:00	2024-11-08T08:00:00	7	Dirección del viento	0
115899	7	Sololá	701	Sololá	4	Finca Santa Victoria	6	Junio	2023-06-30T00:00:00	2024-11-08T08:00:00	1	Precipitación	0
115900	7	Sololá	701	Sololá	4	Finca Santa Victoria	6	Junio	2023-06-30T00:00:00	2024-11-08T08:00:00	8	Radiación solar	207
115901	7	Sololá	701	Sololá	4	Finca Santa Victoria	6	Junio	2023-06-30T00:00:00	2024-11-08T09:00:00	2	Temperatura media	19.1
115902	7	Sololá	701	Sololá	4	Finca Santa Victoria	6	Junio	2023-06-30T00:00:00	2024-11-08T09:00:00	4	Temperatura máxima	19.2
115903	7	Sololá	701	Sololá	4	Finca Santa Victoria	6	Junio	2023-06-30T00:00:00	2024-11-08T09:00:00	3	Temperatura mínima	17.4
115904	7	Sololá	701	Sololá	4	Finca Santa Victoria	6	Junio	2023-06-30T00:00:00	2024-11-08T09:00:00	5	Humedad	76
115905	7	Sololá	701	Sololá	4	Finca Santa Victoria	6	Junio	2023-06-30T00:00:00	2024-11-08T09:00:00	6	Velocidad del viento	1.6
115906	7	Sololá	701	Sololá	4	Finca Santa Victoria	6	Junio	2023-06-30T00:00:00	2024-11-08T09:00:00	7	Dirección del viento	1.61
115907	7	Sololá	701	Sololá	4	Finca Santa Victoria	6	Junio	2023-06-30T00:00:00	2024-11-08T09:00:00	1	Precipitación	0
115908	7	Sololá	701	Sololá	4	Finca Santa Victoria	6	Junio	2023-06-30T00:00:00	2024-11-08T09:00:00	8	Radiación solar	409
115909	7	Sololá	701	Sololá	4	Finca Santa Victoria	6	Junio	2023-06-30T00:00:00	2024-11-08T10:00:00	2	Temperatura media	20.3
115910	7	Sololá	701	Sololá	4	Finca Santa Victoria	6	Junio	2023-06-30T00:00:00	2024-11-08T10:00:00	4	Temperatura máxima	20.3
115911	7	Sololá	701	Sololá	4	Finca Santa Victoria	6	Junio	2023-06-30T00:00:00	2024-11-08T10:00:00	3	Temperatura mínima	19.1
115912	7	Sololá	701	Sololá	4	Finca Santa Victoria	6	Junio	2023-06-30T00:00:00	2024-11-08T10:00:00	5	Humedad	69
115913	7	Sololá	701	Sololá	4	Finca Santa Victoria	6	Junio	2023-06-30T00:00:00	2024-11-08T10:00:00	6	Velocidad del viento	3.2
115914	7	Sololá	701	Sololá	4	Finca Santa Victoria	6	Junio	2023-06-30T00:00:00	2024-11-08T10:00:00	7	Dirección del viento	3.22
115915	7	Sololá	701	Sololá	4	Finca Santa Victoria	6	Junio	2023-06-30T00:00:00	2024-11-08T10:00:00	1	Precipitación	0
115916	7	Sololá	701	Sololá	4	Finca Santa Victoria	6	Junio	2023-06-30T00:00:00	2024-11-08T10:00:00	8	Radiación solar	211
115917	7	Sololá	701	Sololá	4	Finca Santa Victoria	6	Junio	2023-06-30T00:00:00	2024-11-08T11:00:00	2	Temperatura media	21.6
115918	7	Sololá	701	Sololá	4	Finca Santa Victoria	6	Junio	2023-06-30T00:00:00	2024-11-08T11:00:00	4	Temperatura máxima	21.6
115919	7	Sololá	701	Sololá	4	Finca Santa Victoria	6	Junio	2023-06-30T00:00:00	2024-11-08T11:00:00	3	Temperatura mínima	20.1
115920	7	Sololá	701	Sololá	4	Finca Santa Victoria	6	Junio	2023-06-30T00:00:00	2024-11-08T11:00:00	5	Humedad	67
115921	7	Sololá	701	Sololá	4	Finca Santa Victoria	6	Junio	2023-06-30T00:00:00	2024-11-08T11:00:00	6	Velocidad del viento	1.6
115922	7	Sololá	701	Sololá	4	Finca Santa Victoria	6	Junio	2023-06-30T00:00:00	2024-11-08T11:00:00	7	Dirección del viento	1.61
115923	7	Sololá	701	Sololá	4	Finca Santa Victoria	6	Junio	2023-06-30T00:00:00	2024-11-08T11:00:00	1	Precipitación	0
115924	7	Sololá	701	Sololá	4	Finca Santa Victoria	6	Junio	2023-06-30T00:00:00	2024-11-08T11:00:00	8	Radiación solar	199
115925	7	Sololá	701	Sololá	4	Finca Santa Victoria	6	Junio	2023-06-30T00:00:00	2024-11-08T12:00:00	2	Temperatura media	22.4
115926	7	Sololá	701	Sololá	4	Finca Santa Victoria	6	Junio	2023-06-30T00:00:00	2024-11-08T12:00:00	4	Temperatura máxima	22.4
115927	7	Sololá	701	Sololá	4	Finca Santa Victoria	6	Junio	2023-06-30T00:00:00	2024-11-08T12:00:00	3	Temperatura mínima	21.4
115928	7	Sololá	701	Sololá	4	Finca Santa Victoria	6	Junio	2023-06-30T00:00:00	2024-11-08T12:00:00	5	Humedad	59
115929	7	Sololá	701	Sololá	4	Finca Santa Victoria	6	Junio	2023-06-30T00:00:00	2024-11-08T12:00:00	6	Velocidad del viento	3.2
115930	7	Sololá	701	Sololá	4	Finca Santa Victoria	6	Junio	2023-06-30T00:00:00	2024-11-08T12:00:00	7	Dirección del viento	3.22
115931	7	Sololá	701	Sololá	4	Finca Santa Victoria	6	Junio	2023-06-30T00:00:00	2024-11-08T12:00:00	1	Precipitación	0
115932	7	Sololá	701	Sololá	4	Finca Santa Victoria	6	Junio	2023-06-30T00:00:00	2024-11-08T12:00:00	8	Radiación solar	1045
115933	7	Sololá	701	Sololá	4	Finca Santa Victoria	6	Junio	2023-06-30T00:00:00	2024-11-08T13:00:00	2	Temperatura media	22.9
115934	7	Sololá	701	Sololá	4	Finca Santa Victoria	6	Junio	2023-06-30T00:00:00	2024-11-08T13:00:00	4	Temperatura máxima	22.9
115935	7	Sololá	701	Sololá	4	Finca Santa Victoria	6	Junio	2023-06-30T00:00:00	2024-11-08T13:00:00	3	Temperatura mínima	22.1
115936	7	Sololá	701	Sololá	4	Finca Santa Victoria	6	Junio	2023-06-30T00:00:00	2024-11-08T13:00:00	5	Humedad	59
115937	7	Sololá	701	Sololá	4	Finca Santa Victoria	6	Junio	2023-06-30T00:00:00	2024-11-08T13:00:00	6	Velocidad del viento	3.2
115938	7	Sololá	701	Sololá	4	Finca Santa Victoria	6	Junio	2023-06-30T00:00:00	2024-11-08T13:00:00	7	Dirección del viento	3.22
115939	7	Sololá	701	Sololá	4	Finca Santa Victoria	6	Junio	2023-06-30T00:00:00	2024-11-08T13:00:00	1	Precipitación	0
115940	7	Sololá	701	Sololá	4	Finca Santa Victoria	6	Junio	2023-06-30T00:00:00	2024-11-08T13:00:00	8	Radiación solar	954
115941	7	Sololá	701	Sololá	4	Finca Santa Victoria	6	Junio	2023-06-30T00:00:00	2024-11-08T14:00:00	2	Temperatura media	22
115942	7	Sololá	701	Sololá	4	Finca Santa Victoria	6	Junio	2023-06-30T00:00:00	2024-11-08T14:00:00	4	Temperatura máxima	23.1
115943	7	Sololá	701	Sololá	4	Finca Santa Victoria	6	Junio	2023-06-30T00:00:00	2024-11-08T14:00:00	3	Temperatura mínima	20.9
115944	7	Sololá	701	Sololá	4	Finca Santa Victoria	6	Junio	2023-06-30T00:00:00	2024-11-08T14:00:00	5	Humedad	60
115945	7	Sololá	701	Sololá	4	Finca Santa Victoria	6	Junio	2023-06-30T00:00:00	2024-11-08T14:00:00	6	Velocidad del viento	3.2
115946	7	Sololá	701	Sololá	4	Finca Santa Victoria	6	Junio	2023-06-30T00:00:00	2024-11-08T14:00:00	7	Dirección del viento	3.22
115947	7	Sololá	701	Sololá	4	Finca Santa Victoria	6	Junio	2023-06-30T00:00:00	2024-11-08T14:00:00	1	Precipitación	0
115948	7	Sololá	701	Sololá	4	Finca Santa Victoria	6	Junio	2023-06-30T00:00:00	2024-11-08T14:00:00	8	Radiación solar	422
115949	7	Sololá	701	Sololá	4	Finca Santa Victoria	6	Junio	2023-06-30T00:00:00	2024-11-08T15:00:00	2	Temperatura media	22.6
115950	7	Sololá	701	Sololá	4	Finca Santa Victoria	6	Junio	2023-06-30T00:00:00	2024-11-08T15:00:00	4	Temperatura máxima	22.6
115951	7	Sololá	701	Sololá	4	Finca Santa Victoria	6	Junio	2023-06-30T00:00:00	2024-11-08T15:00:00	3	Temperatura mínima	20.4
115952	7	Sololá	701	Sololá	4	Finca Santa Victoria	6	Junio	2023-06-30T00:00:00	2024-11-08T15:00:00	5	Humedad	55
115953	7	Sololá	701	Sololá	4	Finca Santa Victoria	6	Junio	2023-06-30T00:00:00	2024-11-08T15:00:00	6	Velocidad del viento	3.2
115954	7	Sololá	701	Sololá	4	Finca Santa Victoria	6	Junio	2023-06-30T00:00:00	2024-11-08T15:00:00	7	Dirección del viento	3.22
115955	7	Sololá	701	Sololá	4	Finca Santa Victoria	6	Junio	2023-06-30T00:00:00	2024-11-08T15:00:00	1	Precipitación	0
115956	7	Sololá	701	Sololá	4	Finca Santa Victoria	6	Junio	2023-06-30T00:00:00	2024-11-08T15:00:00	8	Radiación solar	165
115957	7	Sololá	701	Sololá	4	Finca Santa Victoria	6	Junio	2023-06-30T00:00:00	2024-11-08T16:00:00	2	Temperatura media	19.2
115958	7	Sololá	701	Sololá	4	Finca Santa Victoria	6	Junio	2023-06-30T00:00:00	2024-11-08T16:00:00	4	Temperatura máxima	22.6
115959	7	Sololá	701	Sololá	4	Finca Santa Victoria	6	Junio	2023-06-30T00:00:00	2024-11-08T16:00:00	3	Temperatura mínima	19.2
115960	7	Sololá	701	Sololá	4	Finca Santa Victoria	6	Junio	2023-06-30T00:00:00	2024-11-08T16:00:00	5	Humedad	86
115961	7	Sololá	701	Sololá	4	Finca Santa Victoria	6	Junio	2023-06-30T00:00:00	2024-11-08T16:00:00	6	Velocidad del viento	3.2
115962	7	Sololá	701	Sololá	4	Finca Santa Victoria	6	Junio	2023-06-30T00:00:00	2024-11-08T16:00:00	7	Dirección del viento	3.22
115963	7	Sololá	701	Sololá	4	Finca Santa Victoria	6	Junio	2023-06-30T00:00:00	2024-11-08T16:00:00	1	Precipitación	0
115964	7	Sololá	701	Sololá	4	Finca Santa Victoria	6	Junio	2023-06-30T00:00:00	2024-11-08T16:00:00	8	Radiación solar	117
115965	7	Sololá	701	Sololá	4	Finca Santa Victoria	6	Junio	2023-06-30T00:00:00	2024-11-08T17:00:00	2	Temperatura media	17.8
115966	7	Sololá	701	Sololá	4	Finca Santa Victoria	6	Junio	2023-06-30T00:00:00	2024-11-08T17:00:00	4	Temperatura máxima	19.3
115967	7	Sololá	701	Sololá	4	Finca Santa Victoria	6	Junio	2023-06-30T00:00:00	2024-11-08T17:00:00	3	Temperatura mínima	17.8
115968	7	Sololá	701	Sololá	4	Finca Santa Victoria	6	Junio	2023-06-30T00:00:00	2024-11-08T17:00:00	5	Humedad	90
115969	7	Sololá	701	Sololá	4	Finca Santa Victoria	6	Junio	2023-06-30T00:00:00	2024-11-08T17:00:00	6	Velocidad del viento	1.6
115970	7	Sololá	701	Sololá	4	Finca Santa Victoria	6	Junio	2023-06-30T00:00:00	2024-11-08T17:00:00	7	Dirección del viento	1.61
115971	7	Sololá	701	Sololá	4	Finca Santa Victoria	6	Junio	2023-06-30T00:00:00	2024-11-08T17:00:00	1	Precipitación	0
115972	7	Sololá	701	Sololá	4	Finca Santa Victoria	6	Junio	2023-06-30T00:00:00	2024-11-08T17:00:00	8	Radiación solar	89
115973	7	Sololá	701	Sololá	4	Finca Santa Victoria	6	Junio	2023-06-30T00:00:00	2024-11-08T18:00:00	2	Temperatura media	17.9
115974	7	Sololá	701	Sololá	4	Finca Santa Victoria	6	Junio	2023-06-30T00:00:00	2024-11-08T18:00:00	4	Temperatura máxima	18.4
115975	7	Sololá	701	Sololá	4	Finca Santa Victoria	6	Junio	2023-06-30T00:00:00	2024-11-08T18:00:00	3	Temperatura mínima	17.8
115976	7	Sololá	701	Sololá	4	Finca Santa Victoria	6	Junio	2023-06-30T00:00:00	2024-11-08T18:00:00	5	Humedad	82
115977	7	Sololá	701	Sololá	4	Finca Santa Victoria	6	Junio	2023-06-30T00:00:00	2024-11-08T18:00:00	6	Velocidad del viento	0
115978	7	Sololá	701	Sololá	4	Finca Santa Victoria	6	Junio	2023-06-30T00:00:00	2024-11-08T18:00:00	7	Dirección del viento	0
115979	7	Sololá	701	Sololá	4	Finca Santa Victoria	6	Junio	2023-06-30T00:00:00	2024-11-08T18:00:00	1	Precipitación	0
115980	7	Sololá	701	Sololá	4	Finca Santa Victoria	6	Junio	2023-06-30T00:00:00	2024-11-08T18:00:00	8	Radiación solar	60
115981	7	Sololá	701	Sololá	4	Finca Santa Victoria	6	Junio	2023-06-30T00:00:00	2024-11-08T19:00:00	2	Temperatura media	16.6
115982	7	Sololá	701	Sololá	4	Finca Santa Victoria	6	Junio	2023-06-30T00:00:00	2024-11-08T19:00:00	4	Temperatura máxima	18
115983	7	Sololá	701	Sololá	4	Finca Santa Victoria	6	Junio	2023-06-30T00:00:00	2024-11-08T19:00:00	3	Temperatura mínima	16.6
115984	7	Sololá	701	Sololá	4	Finca Santa Victoria	6	Junio	2023-06-30T00:00:00	2024-11-08T19:00:00	5	Humedad	77
115985	7	Sololá	701	Sololá	4	Finca Santa Victoria	6	Junio	2023-06-30T00:00:00	2024-11-08T19:00:00	6	Velocidad del viento	1.6
115986	7	Sololá	701	Sololá	4	Finca Santa Victoria	6	Junio	2023-06-30T00:00:00	2024-11-08T19:00:00	7	Dirección del viento	1.61
115987	7	Sololá	701	Sololá	4	Finca Santa Victoria	6	Junio	2023-06-30T00:00:00	2024-11-08T19:00:00	1	Precipitación	0
115988	7	Sololá	701	Sololá	4	Finca Santa Victoria	6	Junio	2023-06-30T00:00:00	2024-11-08T19:00:00	8	Radiación solar	0
115989	7	Sololá	701	Sololá	4	Finca Santa Victoria	6	Junio	2023-06-30T00:00:00	2024-11-08T20:00:00	2	Temperatura media	15.6
115990	7	Sololá	701	Sololá	4	Finca Santa Victoria	6	Junio	2023-06-30T00:00:00	2024-11-08T20:00:00	4	Temperatura máxima	16.6
115991	7	Sololá	701	Sololá	4	Finca Santa Victoria	6	Junio	2023-06-30T00:00:00	2024-11-08T20:00:00	3	Temperatura mínima	15.6
115992	7	Sololá	701	Sololá	4	Finca Santa Victoria	6	Junio	2023-06-30T00:00:00	2024-11-08T20:00:00	5	Humedad	83
115993	7	Sololá	701	Sololá	4	Finca Santa Victoria	6	Junio	2023-06-30T00:00:00	2024-11-08T20:00:00	6	Velocidad del viento	0
115994	7	Sololá	701	Sololá	4	Finca Santa Victoria	6	Junio	2023-06-30T00:00:00	2024-11-08T20:00:00	7	Dirección del viento	0
115995	7	Sololá	701	Sololá	4	Finca Santa Victoria	6	Junio	2023-06-30T00:00:00	2024-11-08T20:00:00	1	Precipitación	0
115996	7	Sololá	701	Sololá	4	Finca Santa Victoria	6	Junio	2023-06-30T00:00:00	2024-11-08T20:00:00	8	Radiación solar	0
115997	7	Sololá	701	Sololá	4	Finca Santa Victoria	6	Junio	2023-06-30T00:00:00	2024-11-08T21:00:00	2	Temperatura media	14.8
115998	7	Sololá	701	Sololá	4	Finca Santa Victoria	6	Junio	2023-06-30T00:00:00	2024-11-08T21:00:00	4	Temperatura máxima	15.6
115999	7	Sololá	701	Sololá	4	Finca Santa Victoria	6	Junio	2023-06-30T00:00:00	2024-11-08T21:00:00	3	Temperatura mínima	14.7
116000	7	Sololá	701	Sololá	4	Finca Santa Victoria	6	Junio	2023-06-30T00:00:00	2024-11-08T21:00:00	5	Humedad	86
116001	7	Sololá	701	Sololá	4	Finca Santa Victoria	6	Junio	2023-06-30T00:00:00	2024-11-08T21:00:00	6	Velocidad del viento	0
116002	7	Sololá	701	Sololá	4	Finca Santa Victoria	6	Junio	2023-06-30T00:00:00	2024-11-08T21:00:00	7	Dirección del viento	0
116003	7	Sololá	701	Sololá	4	Finca Santa Victoria	6	Junio	2023-06-30T00:00:00	2024-11-08T21:00:00	1	Precipitación	0
116004	7	Sololá	701	Sololá	4	Finca Santa Victoria	6	Junio	2023-06-30T00:00:00	2024-11-08T21:00:00	8	Radiación solar	0
116005	7	Sololá	701	Sololá	4	Finca Santa Victoria	6	Junio	2023-06-30T00:00:00	2024-11-08T22:00:00	2	Temperatura media	14.3
116006	7	Sololá	701	Sololá	4	Finca Santa Victoria	6	Junio	2023-06-30T00:00:00	2024-11-08T22:00:00	4	Temperatura máxima	15
116007	7	Sololá	701	Sololá	4	Finca Santa Victoria	6	Junio	2023-06-30T00:00:00	2024-11-08T22:00:00	3	Temperatura mínima	14.3
116008	7	Sololá	701	Sololá	4	Finca Santa Victoria	6	Junio	2023-06-30T00:00:00	2024-11-08T22:00:00	5	Humedad	91
116009	7	Sololá	701	Sololá	4	Finca Santa Victoria	6	Junio	2023-06-30T00:00:00	2024-11-08T22:00:00	6	Velocidad del viento	0
116010	7	Sololá	701	Sololá	4	Finca Santa Victoria	6	Junio	2023-06-30T00:00:00	2024-11-08T22:00:00	7	Dirección del viento	0
116011	7	Sololá	701	Sololá	4	Finca Santa Victoria	6	Junio	2023-06-30T00:00:00	2024-11-08T22:00:00	1	Precipitación	0
116012	7	Sololá	701	Sololá	4	Finca Santa Victoria	6	Junio	2023-06-30T00:00:00	2024-11-08T22:00:00	8	Radiación solar	0
116013	7	Sololá	701	Sololá	4	Finca Santa Victoria	6	Junio	2023-06-30T00:00:00	2024-11-08T23:00:00	2	Temperatura media	14.8
116014	7	Sololá	701	Sololá	4	Finca Santa Victoria	6	Junio	2023-06-30T00:00:00	2024-11-08T23:00:00	4	Temperatura máxima	14.8
116015	7	Sololá	701	Sololá	4	Finca Santa Victoria	6	Junio	2023-06-30T00:00:00	2024-11-08T23:00:00	3	Temperatura mínima	14.2
116016	7	Sololá	701	Sololá	4	Finca Santa Victoria	6	Junio	2023-06-30T00:00:00	2024-11-08T23:00:00	5	Humedad	86
116017	7	Sololá	701	Sololá	4	Finca Santa Victoria	6	Junio	2023-06-30T00:00:00	2024-11-08T23:00:00	6	Velocidad del viento	0
116018	7	Sololá	701	Sololá	4	Finca Santa Victoria	6	Junio	2023-06-30T00:00:00	2024-11-08T23:00:00	7	Dirección del viento	0
116019	7	Sololá	701	Sololá	4	Finca Santa Victoria	6	Junio	2023-06-30T00:00:00	2024-11-08T23:00:00	1	Precipitación	0
116020	7	Sololá	701	Sololá	4	Finca Santa Victoria	6	Junio	2023-06-30T00:00:00	2024-11-08T23:00:00	8	Radiación solar	0
116021	7	Sololá	701	Sololá	4	Finca Santa Victoria	7	Julio	2023-01-07T00:00:00	2024-11-08T00:00:00	2	Temperatura media	14.4
116022	7	Sololá	701	Sololá	4	Finca Santa Victoria	7	Julio	2023-01-07T00:00:00	2024-11-08T00:00:00	4	Temperatura máxima	15.2
116023	7	Sololá	701	Sololá	4	Finca Santa Victoria	7	Julio	2023-01-07T00:00:00	2024-11-08T00:00:00	3	Temperatura mínima	14.4
116024	7	Sololá	701	Sololá	4	Finca Santa Victoria	7	Julio	2023-01-07T00:00:00	2024-11-08T00:00:00	5	Humedad	88
116025	7	Sololá	701	Sololá	4	Finca Santa Victoria	7	Julio	2023-01-07T00:00:00	2024-11-08T00:00:00	6	Velocidad del viento	0
116026	7	Sololá	701	Sololá	4	Finca Santa Victoria	7	Julio	2023-01-07T00:00:00	2024-11-08T00:00:00	7	Dirección del viento	0
116027	7	Sololá	701	Sololá	4	Finca Santa Victoria	7	Julio	2023-01-07T00:00:00	2024-11-08T00:00:00	1	Precipitación	0
116028	7	Sololá	701	Sololá	4	Finca Santa Victoria	7	Julio	2023-01-07T00:00:00	2024-11-08T00:00:00	8	Radiación solar	0
116029	7	Sololá	701	Sololá	4	Finca Santa Victoria	7	Julio	2023-01-07T00:00:00	2024-11-08T01:00:00	2	Temperatura media	14.8
116030	7	Sololá	701	Sololá	4	Finca Santa Victoria	7	Julio	2023-01-07T00:00:00	2024-11-08T01:00:00	4	Temperatura máxima	14.8
116031	7	Sololá	701	Sololá	4	Finca Santa Victoria	7	Julio	2023-01-07T00:00:00	2024-11-08T01:00:00	3	Temperatura mínima	14.3
116032	7	Sololá	701	Sololá	4	Finca Santa Victoria	7	Julio	2023-01-07T00:00:00	2024-11-08T01:00:00	5	Humedad	87
116033	7	Sololá	701	Sololá	4	Finca Santa Victoria	7	Julio	2023-01-07T00:00:00	2024-11-08T01:00:00	6	Velocidad del viento	1.6
116034	7	Sololá	701	Sololá	4	Finca Santa Victoria	7	Julio	2023-01-07T00:00:00	2024-11-08T01:00:00	7	Dirección del viento	1.61
116035	7	Sololá	701	Sololá	4	Finca Santa Victoria	7	Julio	2023-01-07T00:00:00	2024-11-08T01:00:00	1	Precipitación	0
116036	7	Sololá	701	Sololá	4	Finca Santa Victoria	7	Julio	2023-01-07T00:00:00	2024-11-08T01:00:00	8	Radiación solar	0
116037	7	Sololá	701	Sololá	4	Finca Santa Victoria	7	Julio	2023-01-07T00:00:00	2024-11-08T02:00:00	2	Temperatura media	14.4
116038	7	Sololá	701	Sololá	4	Finca Santa Victoria	7	Julio	2023-01-07T00:00:00	2024-11-08T02:00:00	4	Temperatura máxima	14.8
116039	7	Sololá	701	Sololá	4	Finca Santa Victoria	7	Julio	2023-01-07T00:00:00	2024-11-08T02:00:00	3	Temperatura mínima	14.3
116040	7	Sololá	701	Sololá	4	Finca Santa Victoria	7	Julio	2023-01-07T00:00:00	2024-11-08T02:00:00	5	Humedad	88
116041	7	Sololá	701	Sololá	4	Finca Santa Victoria	7	Julio	2023-01-07T00:00:00	2024-11-08T02:00:00	6	Velocidad del viento	1.6
116042	7	Sololá	701	Sololá	4	Finca Santa Victoria	7	Julio	2023-01-07T00:00:00	2024-11-08T02:00:00	7	Dirección del viento	1.61
116043	7	Sololá	701	Sololá	4	Finca Santa Victoria	7	Julio	2023-01-07T00:00:00	2024-11-08T02:00:00	1	Precipitación	0
116044	7	Sololá	701	Sololá	4	Finca Santa Victoria	7	Julio	2023-01-07T00:00:00	2024-11-08T02:00:00	8	Radiación solar	0
116045	7	Sololá	701	Sololá	4	Finca Santa Victoria	7	Julio	2023-01-07T00:00:00	2024-11-08T03:00:00	2	Temperatura media	13.3
116046	7	Sololá	701	Sololá	4	Finca Santa Victoria	7	Julio	2023-01-07T00:00:00	2024-11-08T03:00:00	4	Temperatura máxima	14.4
116047	7	Sololá	701	Sololá	4	Finca Santa Victoria	7	Julio	2023-01-07T00:00:00	2024-11-08T03:00:00	3	Temperatura mínima	13.3
116048	7	Sololá	701	Sololá	4	Finca Santa Victoria	7	Julio	2023-01-07T00:00:00	2024-11-08T03:00:00	5	Humedad	92
116049	7	Sololá	701	Sololá	4	Finca Santa Victoria	7	Julio	2023-01-07T00:00:00	2024-11-08T03:00:00	6	Velocidad del viento	0
116050	7	Sololá	701	Sololá	4	Finca Santa Victoria	7	Julio	2023-01-07T00:00:00	2024-11-08T03:00:00	7	Dirección del viento	0
116051	7	Sololá	701	Sololá	4	Finca Santa Victoria	7	Julio	2023-01-07T00:00:00	2024-11-08T03:00:00	1	Precipitación	0
116052	7	Sololá	701	Sololá	4	Finca Santa Victoria	7	Julio	2023-01-07T00:00:00	2024-11-08T03:00:00	8	Radiación solar	0
116053	7	Sololá	701	Sololá	4	Finca Santa Victoria	7	Julio	2023-01-07T00:00:00	2024-11-08T04:00:00	2	Temperatura media	13.1
116054	7	Sololá	701	Sololá	4	Finca Santa Victoria	7	Julio	2023-01-07T00:00:00	2024-11-08T04:00:00	4	Temperatura máxima	13.5
116055	7	Sololá	701	Sololá	4	Finca Santa Victoria	7	Julio	2023-01-07T00:00:00	2024-11-08T04:00:00	3	Temperatura mínima	13.1
116056	7	Sololá	701	Sololá	4	Finca Santa Victoria	7	Julio	2023-01-07T00:00:00	2024-11-08T04:00:00	5	Humedad	94
116057	7	Sololá	701	Sololá	4	Finca Santa Victoria	7	Julio	2023-01-07T00:00:00	2024-11-08T04:00:00	6	Velocidad del viento	0
116058	7	Sololá	701	Sololá	4	Finca Santa Victoria	7	Julio	2023-01-07T00:00:00	2024-11-08T04:00:00	7	Dirección del viento	0
116059	7	Sololá	701	Sololá	4	Finca Santa Victoria	7	Julio	2023-01-07T00:00:00	2024-11-08T04:00:00	1	Precipitación	0
116060	7	Sololá	701	Sololá	4	Finca Santa Victoria	7	Julio	2023-01-07T00:00:00	2024-11-08T04:00:00	8	Radiación solar	0
116061	7	Sololá	701	Sololá	4	Finca Santa Victoria	7	Julio	2023-01-07T00:00:00	2024-11-08T05:00:00	2	Temperatura media	13.6
116062	7	Sololá	701	Sololá	4	Finca Santa Victoria	7	Julio	2023-01-07T00:00:00	2024-11-08T05:00:00	4	Temperatura máxima	13.6
116063	7	Sololá	701	Sololá	4	Finca Santa Victoria	7	Julio	2023-01-07T00:00:00	2024-11-08T05:00:00	3	Temperatura mínima	13
116064	7	Sololá	701	Sololá	4	Finca Santa Victoria	7	Julio	2023-01-07T00:00:00	2024-11-08T05:00:00	5	Humedad	83
116065	7	Sololá	701	Sololá	4	Finca Santa Victoria	7	Julio	2023-01-07T00:00:00	2024-11-08T05:00:00	6	Velocidad del viento	0
116066	7	Sololá	701	Sololá	4	Finca Santa Victoria	7	Julio	2023-01-07T00:00:00	2024-11-08T05:00:00	7	Dirección del viento	0
116067	7	Sololá	701	Sololá	4	Finca Santa Victoria	7	Julio	2023-01-07T00:00:00	2024-11-08T05:00:00	1	Precipitación	0
116068	7	Sololá	701	Sololá	4	Finca Santa Victoria	7	Julio	2023-01-07T00:00:00	2024-11-08T05:00:00	8	Radiación solar	0
116069	7	Sololá	701	Sololá	4	Finca Santa Victoria	7	Julio	2023-01-07T00:00:00	2024-11-08T06:00:00	2	Temperatura media	13.8
116070	7	Sololá	701	Sololá	4	Finca Santa Victoria	7	Julio	2023-01-07T00:00:00	2024-11-08T06:00:00	4	Temperatura máxima	13.9
116071	7	Sololá	701	Sololá	4	Finca Santa Victoria	7	Julio	2023-01-07T00:00:00	2024-11-08T06:00:00	3	Temperatura mínima	13.6
116072	7	Sololá	701	Sololá	4	Finca Santa Victoria	7	Julio	2023-01-07T00:00:00	2024-11-08T06:00:00	5	Humedad	83
116073	7	Sololá	701	Sololá	4	Finca Santa Victoria	7	Julio	2023-01-07T00:00:00	2024-11-08T06:00:00	6	Velocidad del viento	0
116074	7	Sololá	701	Sololá	4	Finca Santa Victoria	7	Julio	2023-01-07T00:00:00	2024-11-08T06:00:00	7	Dirección del viento	0
116075	7	Sololá	701	Sololá	4	Finca Santa Victoria	7	Julio	2023-01-07T00:00:00	2024-11-08T06:00:00	1	Precipitación	0
116076	7	Sololá	701	Sololá	4	Finca Santa Victoria	7	Julio	2023-01-07T00:00:00	2024-11-08T06:00:00	8	Radiación solar	1
116077	7	Sololá	701	Sololá	4	Finca Santa Victoria	7	Julio	2023-01-07T00:00:00	2024-11-08T07:00:00	2	Temperatura media	14.1
116078	7	Sololá	701	Sololá	4	Finca Santa Victoria	7	Julio	2023-01-07T00:00:00	2024-11-08T07:00:00	4	Temperatura máxima	14.1
116079	7	Sololá	701	Sololá	4	Finca Santa Victoria	7	Julio	2023-01-07T00:00:00	2024-11-08T07:00:00	3	Temperatura mínima	13.7
116080	7	Sololá	701	Sololá	4	Finca Santa Victoria	7	Julio	2023-01-07T00:00:00	2024-11-08T07:00:00	5	Humedad	86
116081	7	Sololá	701	Sololá	4	Finca Santa Victoria	7	Julio	2023-01-07T00:00:00	2024-11-08T07:00:00	6	Velocidad del viento	0
116082	7	Sololá	701	Sololá	4	Finca Santa Victoria	7	Julio	2023-01-07T00:00:00	2024-11-08T07:00:00	7	Dirección del viento	0
116083	7	Sololá	701	Sololá	4	Finca Santa Victoria	7	Julio	2023-01-07T00:00:00	2024-11-08T07:00:00	1	Precipitación	0
116084	7	Sololá	701	Sololá	4	Finca Santa Victoria	7	Julio	2023-01-07T00:00:00	2024-11-08T07:00:00	8	Radiación solar	26
116085	7	Sololá	701	Sololá	4	Finca Santa Victoria	7	Julio	2023-01-07T00:00:00	2024-11-08T08:00:00	2	Temperatura media	18.2
116086	7	Sololá	701	Sololá	4	Finca Santa Victoria	7	Julio	2023-01-07T00:00:00	2024-11-08T08:00:00	4	Temperatura máxima	18.2
116087	7	Sololá	701	Sololá	4	Finca Santa Victoria	7	Julio	2023-01-07T00:00:00	2024-11-08T08:00:00	3	Temperatura mínima	14
116088	7	Sololá	701	Sololá	4	Finca Santa Victoria	7	Julio	2023-01-07T00:00:00	2024-11-08T08:00:00	5	Humedad	76
116089	7	Sololá	701	Sololá	4	Finca Santa Victoria	7	Julio	2023-01-07T00:00:00	2024-11-08T08:00:00	6	Velocidad del viento	0
116090	7	Sololá	701	Sololá	4	Finca Santa Victoria	7	Julio	2023-01-07T00:00:00	2024-11-08T08:00:00	7	Dirección del viento	0
116091	7	Sololá	701	Sololá	4	Finca Santa Victoria	7	Julio	2023-01-07T00:00:00	2024-11-08T08:00:00	1	Precipitación	0
116092	7	Sololá	701	Sololá	4	Finca Santa Victoria	7	Julio	2023-01-07T00:00:00	2024-11-08T08:00:00	8	Radiación solar	236
116093	7	Sololá	701	Sololá	4	Finca Santa Victoria	7	Julio	2023-01-07T00:00:00	2024-11-08T09:00:00	2	Temperatura media	19.2
116094	7	Sololá	701	Sololá	4	Finca Santa Victoria	7	Julio	2023-01-07T00:00:00	2024-11-08T09:00:00	4	Temperatura máxima	19.2
116095	7	Sololá	701	Sololá	4	Finca Santa Victoria	7	Julio	2023-01-07T00:00:00	2024-11-08T09:00:00	3	Temperatura mínima	18.2
116096	7	Sololá	701	Sololá	4	Finca Santa Victoria	7	Julio	2023-01-07T00:00:00	2024-11-08T09:00:00	5	Humedad	72
116097	7	Sololá	701	Sololá	4	Finca Santa Victoria	7	Julio	2023-01-07T00:00:00	2024-11-08T09:00:00	6	Velocidad del viento	1.6
116098	7	Sololá	701	Sololá	4	Finca Santa Victoria	7	Julio	2023-01-07T00:00:00	2024-11-08T09:00:00	7	Dirección del viento	1.61
116099	7	Sololá	701	Sololá	4	Finca Santa Victoria	7	Julio	2023-01-07T00:00:00	2024-11-08T09:00:00	1	Precipitación	0
116100	7	Sololá	701	Sololá	4	Finca Santa Victoria	7	Julio	2023-01-07T00:00:00	2024-11-08T09:00:00	8	Radiación solar	391
116101	7	Sololá	701	Sololá	4	Finca Santa Victoria	7	Julio	2023-01-07T00:00:00	2024-11-08T10:00:00	2	Temperatura media	18.8
116102	7	Sololá	701	Sololá	4	Finca Santa Victoria	7	Julio	2023-01-07T00:00:00	2024-11-08T10:00:00	4	Temperatura máxima	19.4
116103	7	Sololá	701	Sololá	4	Finca Santa Victoria	7	Julio	2023-01-07T00:00:00	2024-11-08T10:00:00	3	Temperatura mínima	18.7
116104	7	Sololá	701	Sololá	4	Finca Santa Victoria	7	Julio	2023-01-07T00:00:00	2024-11-08T10:00:00	5	Humedad	73
116105	7	Sololá	701	Sololá	4	Finca Santa Victoria	7	Julio	2023-01-07T00:00:00	2024-11-08T10:00:00	6	Velocidad del viento	1.6
116106	7	Sololá	701	Sololá	4	Finca Santa Victoria	7	Julio	2023-01-07T00:00:00	2024-11-08T10:00:00	7	Dirección del viento	1.61
116107	7	Sololá	701	Sololá	4	Finca Santa Victoria	7	Julio	2023-01-07T00:00:00	2024-11-08T10:00:00	1	Precipitación	0
116108	7	Sololá	701	Sololá	4	Finca Santa Victoria	7	Julio	2023-01-07T00:00:00	2024-11-08T10:00:00	8	Radiación solar	203
116109	7	Sololá	701	Sololá	4	Finca Santa Victoria	7	Julio	2023-01-07T00:00:00	2024-11-08T11:00:00	2	Temperatura media	20.6
116110	7	Sololá	701	Sololá	4	Finca Santa Victoria	7	Julio	2023-01-07T00:00:00	2024-11-08T11:00:00	4	Temperatura máxima	21.1
116111	7	Sololá	701	Sololá	4	Finca Santa Victoria	7	Julio	2023-01-07T00:00:00	2024-11-08T11:00:00	3	Temperatura mínima	18.8
116112	7	Sololá	701	Sololá	4	Finca Santa Victoria	7	Julio	2023-01-07T00:00:00	2024-11-08T11:00:00	5	Humedad	69
116113	7	Sololá	701	Sololá	4	Finca Santa Victoria	7	Julio	2023-01-07T00:00:00	2024-11-08T11:00:00	6	Velocidad del viento	1.6
116114	7	Sololá	701	Sololá	4	Finca Santa Victoria	7	Julio	2023-01-07T00:00:00	2024-11-08T11:00:00	7	Dirección del viento	1.61
116115	7	Sololá	701	Sololá	4	Finca Santa Victoria	7	Julio	2023-01-07T00:00:00	2024-11-08T11:00:00	1	Precipitación	0
116116	7	Sololá	701	Sololá	4	Finca Santa Victoria	7	Julio	2023-01-07T00:00:00	2024-11-08T11:00:00	8	Radiación solar	195
116117	7	Sololá	701	Sololá	4	Finca Santa Victoria	7	Julio	2023-01-07T00:00:00	2024-11-08T12:00:00	2	Temperatura media	19.4
116118	7	Sololá	701	Sololá	4	Finca Santa Victoria	7	Julio	2023-01-07T00:00:00	2024-11-08T12:00:00	4	Temperatura máxima	20.6
116119	7	Sololá	701	Sololá	4	Finca Santa Victoria	7	Julio	2023-01-07T00:00:00	2024-11-08T12:00:00	3	Temperatura mínima	19.2
116120	7	Sololá	701	Sololá	4	Finca Santa Victoria	7	Julio	2023-01-07T00:00:00	2024-11-08T12:00:00	5	Humedad	76
116121	7	Sololá	701	Sololá	4	Finca Santa Victoria	7	Julio	2023-01-07T00:00:00	2024-11-08T12:00:00	6	Velocidad del viento	1.6
116122	7	Sololá	701	Sololá	4	Finca Santa Victoria	7	Julio	2023-01-07T00:00:00	2024-11-08T12:00:00	7	Dirección del viento	1.61
116123	7	Sololá	701	Sololá	4	Finca Santa Victoria	7	Julio	2023-01-07T00:00:00	2024-11-08T12:00:00	1	Precipitación	0
116124	7	Sololá	701	Sololá	4	Finca Santa Victoria	7	Julio	2023-01-07T00:00:00	2024-11-08T12:00:00	8	Radiación solar	182
116125	7	Sololá	701	Sololá	4	Finca Santa Victoria	7	Julio	2023-01-07T00:00:00	2024-11-08T13:00:00	2	Temperatura media	18.4
116126	7	Sololá	701	Sololá	4	Finca Santa Victoria	7	Julio	2023-01-07T00:00:00	2024-11-08T13:00:00	4	Temperatura máxima	19.4
116127	7	Sololá	701	Sololá	4	Finca Santa Victoria	7	Julio	2023-01-07T00:00:00	2024-11-08T13:00:00	3	Temperatura mínima	18.4
116128	7	Sololá	701	Sololá	4	Finca Santa Victoria	7	Julio	2023-01-07T00:00:00	2024-11-08T13:00:00	5	Humedad	87
116129	7	Sololá	701	Sololá	4	Finca Santa Victoria	7	Julio	2023-01-07T00:00:00	2024-11-08T13:00:00	6	Velocidad del viento	1.6
116130	7	Sololá	701	Sololá	4	Finca Santa Victoria	7	Julio	2023-01-07T00:00:00	2024-11-08T13:00:00	7	Dirección del viento	1.61
116131	7	Sololá	701	Sololá	4	Finca Santa Victoria	7	Julio	2023-01-07T00:00:00	2024-11-08T13:00:00	1	Precipitación	0
116132	7	Sololá	701	Sololá	4	Finca Santa Victoria	7	Julio	2023-01-07T00:00:00	2024-11-08T13:00:00	8	Radiación solar	176
116133	7	Sololá	701	Sololá	4	Finca Santa Victoria	7	Julio	2023-01-07T00:00:00	2024-11-08T14:00:00	2	Temperatura media	17.9
116134	7	Sololá	701	Sololá	4	Finca Santa Victoria	7	Julio	2023-01-07T00:00:00	2024-11-08T14:00:00	4	Temperatura máxima	18.7
116135	7	Sololá	701	Sololá	4	Finca Santa Victoria	7	Julio	2023-01-07T00:00:00	2024-11-08T14:00:00	3	Temperatura mínima	17.9
116136	7	Sololá	701	Sololá	4	Finca Santa Victoria	7	Julio	2023-01-07T00:00:00	2024-11-08T14:00:00	5	Humedad	90
116137	7	Sololá	701	Sololá	4	Finca Santa Victoria	7	Julio	2023-01-07T00:00:00	2024-11-08T14:00:00	6	Velocidad del viento	1.6
116138	7	Sololá	701	Sololá	4	Finca Santa Victoria	7	Julio	2023-01-07T00:00:00	2024-11-08T14:00:00	7	Dirección del viento	1.61
116139	7	Sololá	701	Sololá	4	Finca Santa Victoria	7	Julio	2023-01-07T00:00:00	2024-11-08T14:00:00	1	Precipitación	0
116140	7	Sololá	701	Sololá	4	Finca Santa Victoria	7	Julio	2023-01-07T00:00:00	2024-11-08T14:00:00	8	Radiación solar	144
116141	7	Sololá	701	Sololá	4	Finca Santa Victoria	7	Julio	2023-01-07T00:00:00	2024-11-08T15:00:00	2	Temperatura media	13.3
116142	7	Sololá	701	Sololá	4	Finca Santa Victoria	7	Julio	2023-01-07T00:00:00	2024-11-08T15:00:00	4	Temperatura máxima	18
116143	7	Sololá	701	Sololá	4	Finca Santa Victoria	7	Julio	2023-01-07T00:00:00	2024-11-08T15:00:00	3	Temperatura mínima	13.2
116144	7	Sololá	701	Sololá	4	Finca Santa Victoria	7	Julio	2023-01-07T00:00:00	2024-11-08T15:00:00	5	Humedad	95
116145	7	Sololá	701	Sololá	4	Finca Santa Victoria	7	Julio	2023-01-07T00:00:00	2024-11-08T15:00:00	6	Velocidad del viento	1.6
116146	7	Sololá	701	Sololá	4	Finca Santa Victoria	7	Julio	2023-01-07T00:00:00	2024-11-08T15:00:00	7	Dirección del viento	1.61
116147	7	Sololá	701	Sololá	4	Finca Santa Victoria	7	Julio	2023-01-07T00:00:00	2024-11-08T15:00:00	1	Precipitación	21
116148	7	Sololá	701	Sololá	4	Finca Santa Victoria	7	Julio	2023-01-07T00:00:00	2024-11-08T15:00:00	8	Radiación solar	39
116149	7	Sololá	701	Sololá	4	Finca Santa Victoria	7	Julio	2023-01-07T00:00:00	2024-11-08T16:00:00	2	Temperatura media	13.3
116150	7	Sololá	701	Sololá	4	Finca Santa Victoria	7	Julio	2023-01-07T00:00:00	2024-11-08T16:00:00	4	Temperatura máxima	13.5
116151	7	Sololá	701	Sololá	4	Finca Santa Victoria	7	Julio	2023-01-07T00:00:00	2024-11-08T16:00:00	3	Temperatura mínima	12.9
116152	7	Sololá	701	Sololá	4	Finca Santa Victoria	7	Julio	2023-01-07T00:00:00	2024-11-08T16:00:00	5	Humedad	97
116153	7	Sololá	701	Sololá	4	Finca Santa Victoria	7	Julio	2023-01-07T00:00:00	2024-11-08T16:00:00	6	Velocidad del viento	0
116154	7	Sololá	701	Sololá	4	Finca Santa Victoria	7	Julio	2023-01-07T00:00:00	2024-11-08T16:00:00	7	Dirección del viento	0
116155	7	Sololá	701	Sololá	4	Finca Santa Victoria	7	Julio	2023-01-07T00:00:00	2024-11-08T16:00:00	1	Precipitación	3.2
116156	7	Sololá	701	Sololá	4	Finca Santa Victoria	7	Julio	2023-01-07T00:00:00	2024-11-08T16:00:00	8	Radiación solar	9
116157	7	Sololá	701	Sololá	4	Finca Santa Victoria	7	Julio	2023-01-07T00:00:00	2024-11-08T17:00:00	2	Temperatura media	13.4
116158	7	Sololá	701	Sololá	4	Finca Santa Victoria	7	Julio	2023-01-07T00:00:00	2024-11-08T17:00:00	4	Temperatura máxima	13.5
116159	7	Sololá	701	Sololá	4	Finca Santa Victoria	7	Julio	2023-01-07T00:00:00	2024-11-08T17:00:00	3	Temperatura mínima	13.2
116160	7	Sololá	701	Sololá	4	Finca Santa Victoria	7	Julio	2023-01-07T00:00:00	2024-11-08T17:00:00	5	Humedad	97
116161	7	Sololá	701	Sololá	4	Finca Santa Victoria	7	Julio	2023-01-07T00:00:00	2024-11-08T17:00:00	6	Velocidad del viento	0
116162	7	Sololá	701	Sololá	4	Finca Santa Victoria	7	Julio	2023-01-07T00:00:00	2024-11-08T17:00:00	7	Dirección del viento	0
116163	7	Sololá	701	Sololá	4	Finca Santa Victoria	7	Julio	2023-01-07T00:00:00	2024-11-08T17:00:00	1	Precipitación	0
116164	7	Sololá	701	Sololá	4	Finca Santa Victoria	7	Julio	2023-01-07T00:00:00	2024-11-08T17:00:00	8	Radiación solar	15
116165	7	Sololá	701	Sololá	4	Finca Santa Victoria	7	Julio	2023-01-07T00:00:00	2024-11-08T18:00:00	2	Temperatura media	13
116166	7	Sololá	701	Sololá	4	Finca Santa Victoria	7	Julio	2023-01-07T00:00:00	2024-11-08T18:00:00	4	Temperatura máxima	13.5
116167	7	Sololá	701	Sololá	4	Finca Santa Victoria	7	Julio	2023-01-07T00:00:00	2024-11-08T18:00:00	3	Temperatura mínima	13
116168	7	Sololá	701	Sololá	4	Finca Santa Victoria	7	Julio	2023-01-07T00:00:00	2024-11-08T18:00:00	5	Humedad	98
116169	7	Sololá	701	Sololá	4	Finca Santa Victoria	7	Julio	2023-01-07T00:00:00	2024-11-08T18:00:00	6	Velocidad del viento	1.6
116170	7	Sololá	701	Sololá	4	Finca Santa Victoria	7	Julio	2023-01-07T00:00:00	2024-11-08T18:00:00	7	Dirección del viento	1.61
116171	7	Sololá	701	Sololá	4	Finca Santa Victoria	7	Julio	2023-01-07T00:00:00	2024-11-08T18:00:00	1	Precipitación	3
116172	7	Sololá	701	Sololá	4	Finca Santa Victoria	7	Julio	2023-01-07T00:00:00	2024-11-08T18:00:00	8	Radiación solar	1
116173	7	Sololá	701	Sololá	4	Finca Santa Victoria	7	Julio	2023-01-07T00:00:00	2024-11-08T19:00:00	2	Temperatura media	12.8
116174	7	Sololá	701	Sololá	4	Finca Santa Victoria	7	Julio	2023-01-07T00:00:00	2024-11-08T19:00:00	4	Temperatura máxima	13.1
116175	7	Sololá	701	Sololá	4	Finca Santa Victoria	7	Julio	2023-01-07T00:00:00	2024-11-08T19:00:00	3	Temperatura mínima	12.7
116176	7	Sololá	701	Sololá	4	Finca Santa Victoria	7	Julio	2023-01-07T00:00:00	2024-11-08T19:00:00	5	Humedad	97
116177	7	Sololá	701	Sololá	4	Finca Santa Victoria	7	Julio	2023-01-07T00:00:00	2024-11-08T19:00:00	6	Velocidad del viento	0
116178	7	Sololá	701	Sololá	4	Finca Santa Victoria	7	Julio	2023-01-07T00:00:00	2024-11-08T19:00:00	7	Dirección del viento	0
116179	7	Sololá	701	Sololá	4	Finca Santa Victoria	7	Julio	2023-01-07T00:00:00	2024-11-08T19:00:00	1	Precipitación	0.4
116180	7	Sololá	701	Sololá	4	Finca Santa Victoria	7	Julio	2023-01-07T00:00:00	2024-11-08T19:00:00	8	Radiación solar	0
116181	7	Sololá	701	Sololá	4	Finca Santa Victoria	7	Julio	2023-01-07T00:00:00	2024-11-08T20:00:00	2	Temperatura media	13.6
116182	7	Sololá	701	Sololá	4	Finca Santa Victoria	7	Julio	2023-01-07T00:00:00	2024-11-08T20:00:00	4	Temperatura máxima	13.6
116183	7	Sololá	701	Sololá	4	Finca Santa Victoria	7	Julio	2023-01-07T00:00:00	2024-11-08T20:00:00	3	Temperatura mínima	12.6
116184	7	Sololá	701	Sololá	4	Finca Santa Victoria	7	Julio	2023-01-07T00:00:00	2024-11-08T20:00:00	5	Humedad	92
116185	7	Sololá	701	Sololá	4	Finca Santa Victoria	7	Julio	2023-01-07T00:00:00	2024-11-08T20:00:00	6	Velocidad del viento	1.6
116186	7	Sololá	701	Sololá	4	Finca Santa Victoria	7	Julio	2023-01-07T00:00:00	2024-11-08T20:00:00	7	Dirección del viento	1.61
116187	7	Sololá	701	Sololá	4	Finca Santa Victoria	7	Julio	2023-01-07T00:00:00	2024-11-08T20:00:00	1	Precipitación	0
116188	7	Sololá	701	Sololá	4	Finca Santa Victoria	7	Julio	2023-01-07T00:00:00	2024-11-08T20:00:00	8	Radiación solar	0
116189	7	Sololá	701	Sololá	4	Finca Santa Victoria	7	Julio	2023-01-07T00:00:00	2024-11-08T21:00:00	2	Temperatura media	13.5
116190	7	Sololá	701	Sololá	4	Finca Santa Victoria	7	Julio	2023-01-07T00:00:00	2024-11-08T21:00:00	4	Temperatura máxima	13.8
116191	7	Sololá	701	Sololá	4	Finca Santa Victoria	7	Julio	2023-01-07T00:00:00	2024-11-08T21:00:00	3	Temperatura mínima	13.3
116192	7	Sololá	701	Sololá	4	Finca Santa Victoria	7	Julio	2023-01-07T00:00:00	2024-11-08T21:00:00	5	Humedad	92
116193	7	Sololá	701	Sololá	4	Finca Santa Victoria	7	Julio	2023-01-07T00:00:00	2024-11-08T21:00:00	6	Velocidad del viento	1.6
116194	7	Sololá	701	Sololá	4	Finca Santa Victoria	7	Julio	2023-01-07T00:00:00	2024-11-08T21:00:00	7	Dirección del viento	1.61
116195	7	Sololá	701	Sololá	4	Finca Santa Victoria	7	Julio	2023-01-07T00:00:00	2024-11-08T21:00:00	1	Precipitación	0
116196	7	Sololá	701	Sololá	4	Finca Santa Victoria	7	Julio	2023-01-07T00:00:00	2024-11-08T21:00:00	8	Radiación solar	0
116197	7	Sololá	701	Sololá	4	Finca Santa Victoria	7	Julio	2023-01-07T00:00:00	2024-11-08T22:00:00	2	Temperatura media	14
116198	7	Sololá	701	Sololá	4	Finca Santa Victoria	7	Julio	2023-01-07T00:00:00	2024-11-08T22:00:00	4	Temperatura máxima	14.3
116199	7	Sololá	701	Sololá	4	Finca Santa Victoria	7	Julio	2023-01-07T00:00:00	2024-11-08T22:00:00	3	Temperatura mínima	13.5
116200	7	Sololá	701	Sololá	4	Finca Santa Victoria	7	Julio	2023-01-07T00:00:00	2024-11-08T22:00:00	5	Humedad	89
116201	7	Sololá	701	Sololá	4	Finca Santa Victoria	7	Julio	2023-01-07T00:00:00	2024-11-08T22:00:00	6	Velocidad del viento	1.6
116202	7	Sololá	701	Sololá	4	Finca Santa Victoria	7	Julio	2023-01-07T00:00:00	2024-11-08T22:00:00	7	Dirección del viento	1.61
116203	7	Sololá	701	Sololá	4	Finca Santa Victoria	7	Julio	2023-01-07T00:00:00	2024-11-08T22:00:00	1	Precipitación	0
116204	7	Sololá	701	Sololá	4	Finca Santa Victoria	7	Julio	2023-01-07T00:00:00	2024-11-08T22:00:00	8	Radiación solar	0
116205	7	Sololá	701	Sololá	4	Finca Santa Victoria	7	Julio	2023-01-07T00:00:00	2024-11-08T23:00:00	2	Temperatura media	13.8
116206	7	Sololá	701	Sololá	4	Finca Santa Victoria	7	Julio	2023-01-07T00:00:00	2024-11-08T23:00:00	4	Temperatura máxima	14.1
116207	7	Sololá	701	Sololá	4	Finca Santa Victoria	7	Julio	2023-01-07T00:00:00	2024-11-08T23:00:00	3	Temperatura mínima	13.8
116208	7	Sololá	701	Sololá	4	Finca Santa Victoria	7	Julio	2023-01-07T00:00:00	2024-11-08T23:00:00	5	Humedad	90
116209	7	Sololá	701	Sololá	4	Finca Santa Victoria	7	Julio	2023-01-07T00:00:00	2024-11-08T23:00:00	6	Velocidad del viento	1.6
116210	7	Sololá	701	Sololá	4	Finca Santa Victoria	7	Julio	2023-01-07T00:00:00	2024-11-08T23:00:00	7	Dirección del viento	1.61
116211	7	Sololá	701	Sololá	4	Finca Santa Victoria	7	Julio	2023-01-07T00:00:00	2024-11-08T23:00:00	1	Precipitación	0
116212	7	Sololá	701	Sololá	4	Finca Santa Victoria	7	Julio	2023-01-07T00:00:00	2024-11-08T23:00:00	8	Radiación solar	0
116213	7	Sololá	701	Sololá	4	Finca Santa Victoria	7	Julio	2023-02-07T00:00:00	2024-11-08T00:00:00	2	Temperatura media	13.1
116214	7	Sololá	701	Sololá	4	Finca Santa Victoria	7	Julio	2023-02-07T00:00:00	2024-11-08T00:00:00	4	Temperatura máxima	13.8
116215	7	Sololá	701	Sololá	4	Finca Santa Victoria	7	Julio	2023-02-07T00:00:00	2024-11-08T00:00:00	3	Temperatura mínima	13.1
116216	7	Sololá	701	Sololá	4	Finca Santa Victoria	7	Julio	2023-02-07T00:00:00	2024-11-08T00:00:00	5	Humedad	93
116217	7	Sololá	701	Sololá	4	Finca Santa Victoria	7	Julio	2023-02-07T00:00:00	2024-11-08T00:00:00	6	Velocidad del viento	0
116218	7	Sololá	701	Sololá	4	Finca Santa Victoria	7	Julio	2023-02-07T00:00:00	2024-11-08T00:00:00	7	Dirección del viento	0
116219	7	Sololá	701	Sololá	4	Finca Santa Victoria	7	Julio	2023-02-07T00:00:00	2024-11-08T00:00:00	1	Precipitación	0
116220	7	Sololá	701	Sololá	4	Finca Santa Victoria	7	Julio	2023-02-07T00:00:00	2024-11-08T00:00:00	8	Radiación solar	0
116221	7	Sololá	701	Sololá	4	Finca Santa Victoria	7	Julio	2023-02-07T00:00:00	2024-11-08T01:00:00	2	Temperatura media	13.1
116222	7	Sololá	701	Sololá	4	Finca Santa Victoria	7	Julio	2023-02-07T00:00:00	2024-11-08T01:00:00	4	Temperatura máxima	13.2
116223	7	Sololá	701	Sololá	4	Finca Santa Victoria	7	Julio	2023-02-07T00:00:00	2024-11-08T01:00:00	3	Temperatura mínima	12.9
116224	7	Sololá	701	Sololá	4	Finca Santa Victoria	7	Julio	2023-02-07T00:00:00	2024-11-08T01:00:00	5	Humedad	93
116225	7	Sololá	701	Sololá	4	Finca Santa Victoria	7	Julio	2023-02-07T00:00:00	2024-11-08T01:00:00	6	Velocidad del viento	0
116226	7	Sololá	701	Sololá	4	Finca Santa Victoria	7	Julio	2023-02-07T00:00:00	2024-11-08T01:00:00	7	Dirección del viento	0
116227	7	Sololá	701	Sololá	4	Finca Santa Victoria	7	Julio	2023-02-07T00:00:00	2024-11-08T01:00:00	1	Precipitación	0
116228	7	Sololá	701	Sololá	4	Finca Santa Victoria	7	Julio	2023-02-07T00:00:00	2024-11-08T01:00:00	8	Radiación solar	0
116229	7	Sololá	701	Sololá	4	Finca Santa Victoria	7	Julio	2023-02-07T00:00:00	2024-11-08T02:00:00	2	Temperatura media	12.9
116230	7	Sololá	701	Sololá	4	Finca Santa Victoria	7	Julio	2023-02-07T00:00:00	2024-11-08T02:00:00	4	Temperatura máxima	13.2
116231	7	Sololá	701	Sololá	4	Finca Santa Victoria	7	Julio	2023-02-07T00:00:00	2024-11-08T02:00:00	3	Temperatura mínima	12.9
116232	7	Sololá	701	Sololá	4	Finca Santa Victoria	7	Julio	2023-02-07T00:00:00	2024-11-08T02:00:00	5	Humedad	94
116233	7	Sololá	701	Sololá	4	Finca Santa Victoria	7	Julio	2023-02-07T00:00:00	2024-11-08T02:00:00	6	Velocidad del viento	0
116234	7	Sololá	701	Sololá	4	Finca Santa Victoria	7	Julio	2023-02-07T00:00:00	2024-11-08T02:00:00	7	Dirección del viento	0
116235	7	Sololá	701	Sololá	4	Finca Santa Victoria	7	Julio	2023-02-07T00:00:00	2024-11-08T02:00:00	1	Precipitación	0
116236	7	Sololá	701	Sololá	4	Finca Santa Victoria	7	Julio	2023-02-07T00:00:00	2024-11-08T02:00:00	8	Radiación solar	0
116237	7	Sololá	701	Sololá	4	Finca Santa Victoria	7	Julio	2023-02-07T00:00:00	2024-11-08T03:00:00	2	Temperatura media	12.3
116238	7	Sololá	701	Sololá	4	Finca Santa Victoria	7	Julio	2023-02-07T00:00:00	2024-11-08T03:00:00	4	Temperatura máxima	12.9
116239	7	Sololá	701	Sololá	4	Finca Santa Victoria	7	Julio	2023-02-07T00:00:00	2024-11-08T03:00:00	3	Temperatura mínima	12.2
116240	7	Sololá	701	Sololá	4	Finca Santa Victoria	7	Julio	2023-02-07T00:00:00	2024-11-08T03:00:00	5	Humedad	94
116241	7	Sololá	701	Sololá	4	Finca Santa Victoria	7	Julio	2023-02-07T00:00:00	2024-11-08T03:00:00	6	Velocidad del viento	0
116242	7	Sololá	701	Sololá	4	Finca Santa Victoria	7	Julio	2023-02-07T00:00:00	2024-11-08T03:00:00	7	Dirección del viento	0
116243	7	Sololá	701	Sololá	4	Finca Santa Victoria	7	Julio	2023-02-07T00:00:00	2024-11-08T03:00:00	1	Precipitación	0
116244	7	Sololá	701	Sololá	4	Finca Santa Victoria	7	Julio	2023-02-07T00:00:00	2024-11-08T03:00:00	8	Radiación solar	0
116245	7	Sololá	701	Sololá	4	Finca Santa Victoria	7	Julio	2023-02-07T00:00:00	2024-11-08T04:00:00	2	Temperatura media	12.5
116246	7	Sololá	701	Sololá	4	Finca Santa Victoria	7	Julio	2023-02-07T00:00:00	2024-11-08T04:00:00	4	Temperatura máxima	12.6
116247	7	Sololá	701	Sololá	4	Finca Santa Victoria	7	Julio	2023-02-07T00:00:00	2024-11-08T04:00:00	3	Temperatura mínima	12.1
116248	7	Sololá	701	Sololá	4	Finca Santa Victoria	7	Julio	2023-02-07T00:00:00	2024-11-08T04:00:00	5	Humedad	91
116249	7	Sololá	701	Sololá	4	Finca Santa Victoria	7	Julio	2023-02-07T00:00:00	2024-11-08T04:00:00	6	Velocidad del viento	0
116250	7	Sololá	701	Sololá	4	Finca Santa Victoria	7	Julio	2023-02-07T00:00:00	2024-11-08T04:00:00	7	Dirección del viento	0
116251	7	Sololá	701	Sololá	4	Finca Santa Victoria	7	Julio	2023-02-07T00:00:00	2024-11-08T04:00:00	1	Precipitación	0
116252	7	Sololá	701	Sololá	4	Finca Santa Victoria	7	Julio	2023-02-07T00:00:00	2024-11-08T04:00:00	8	Radiación solar	0
116253	7	Sololá	701	Sololá	4	Finca Santa Victoria	7	Julio	2023-02-07T00:00:00	2024-11-08T05:00:00	2	Temperatura media	12.1
116254	7	Sololá	701	Sololá	4	Finca Santa Victoria	7	Julio	2023-02-07T00:00:00	2024-11-08T05:00:00	4	Temperatura máxima	12.7
116255	7	Sololá	701	Sololá	4	Finca Santa Victoria	7	Julio	2023-02-07T00:00:00	2024-11-08T05:00:00	3	Temperatura mínima	12
116256	7	Sololá	701	Sololá	4	Finca Santa Victoria	7	Julio	2023-02-07T00:00:00	2024-11-08T05:00:00	5	Humedad	90
116257	7	Sololá	701	Sololá	4	Finca Santa Victoria	7	Julio	2023-02-07T00:00:00	2024-11-08T05:00:00	6	Velocidad del viento	0
116258	7	Sololá	701	Sololá	4	Finca Santa Victoria	7	Julio	2023-02-07T00:00:00	2024-11-08T05:00:00	7	Dirección del viento	0
116259	7	Sololá	701	Sololá	4	Finca Santa Victoria	7	Julio	2023-02-07T00:00:00	2024-11-08T05:00:00	1	Precipitación	0
116260	7	Sololá	701	Sololá	4	Finca Santa Victoria	7	Julio	2023-02-07T00:00:00	2024-11-08T05:00:00	8	Radiación solar	0
116261	7	Sololá	701	Sololá	4	Finca Santa Victoria	7	Julio	2023-02-07T00:00:00	2024-11-08T06:00:00	2	Temperatura media	12.8
116262	7	Sololá	701	Sololá	4	Finca Santa Victoria	7	Julio	2023-02-07T00:00:00	2024-11-08T06:00:00	4	Temperatura máxima	13
116263	7	Sololá	701	Sololá	4	Finca Santa Victoria	7	Julio	2023-02-07T00:00:00	2024-11-08T06:00:00	3	Temperatura mínima	12.1
116264	7	Sololá	701	Sololá	4	Finca Santa Victoria	7	Julio	2023-02-07T00:00:00	2024-11-08T06:00:00	5	Humedad	87
116265	7	Sololá	701	Sololá	4	Finca Santa Victoria	7	Julio	2023-02-07T00:00:00	2024-11-08T06:00:00	6	Velocidad del viento	1.6
116266	7	Sololá	701	Sololá	4	Finca Santa Victoria	7	Julio	2023-02-07T00:00:00	2024-11-08T06:00:00	7	Dirección del viento	1.61
116267	7	Sololá	701	Sololá	4	Finca Santa Victoria	7	Julio	2023-02-07T00:00:00	2024-11-08T06:00:00	1	Precipitación	0
116268	7	Sololá	701	Sololá	4	Finca Santa Victoria	7	Julio	2023-02-07T00:00:00	2024-11-08T06:00:00	8	Radiación solar	4
116269	7	Sololá	701	Sololá	4	Finca Santa Victoria	7	Julio	2023-02-07T00:00:00	2024-11-08T07:00:00	2	Temperatura media	14
116270	7	Sololá	701	Sololá	4	Finca Santa Victoria	7	Julio	2023-02-07T00:00:00	2024-11-08T07:00:00	4	Temperatura máxima	14.1
116271	7	Sololá	701	Sololá	4	Finca Santa Victoria	7	Julio	2023-02-07T00:00:00	2024-11-08T07:00:00	3	Temperatura mínima	12.7
116272	7	Sololá	701	Sololá	4	Finca Santa Victoria	7	Julio	2023-02-07T00:00:00	2024-11-08T07:00:00	5	Humedad	85
116273	7	Sololá	701	Sololá	4	Finca Santa Victoria	7	Julio	2023-02-07T00:00:00	2024-11-08T07:00:00	6	Velocidad del viento	0
116274	7	Sololá	701	Sololá	4	Finca Santa Victoria	7	Julio	2023-02-07T00:00:00	2024-11-08T07:00:00	7	Dirección del viento	0
116275	7	Sololá	701	Sololá	4	Finca Santa Victoria	7	Julio	2023-02-07T00:00:00	2024-11-08T07:00:00	1	Precipitación	0
116276	7	Sololá	701	Sololá	4	Finca Santa Victoria	7	Julio	2023-02-07T00:00:00	2024-11-08T07:00:00	8	Radiación solar	47
116277	7	Sololá	701	Sololá	4	Finca Santa Victoria	7	Julio	2023-02-07T00:00:00	2024-11-08T08:00:00	2	Temperatura media	16.9
116278	7	Sololá	701	Sololá	4	Finca Santa Victoria	7	Julio	2023-02-07T00:00:00	2024-11-08T08:00:00	4	Temperatura máxima	16.9
116279	7	Sololá	701	Sololá	4	Finca Santa Victoria	7	Julio	2023-02-07T00:00:00	2024-11-08T08:00:00	3	Temperatura mínima	13.9
116280	7	Sololá	701	Sololá	4	Finca Santa Victoria	7	Julio	2023-02-07T00:00:00	2024-11-08T08:00:00	5	Humedad	75
116281	7	Sololá	701	Sololá	4	Finca Santa Victoria	7	Julio	2023-02-07T00:00:00	2024-11-08T08:00:00	6	Velocidad del viento	0
116282	7	Sololá	701	Sololá	4	Finca Santa Victoria	7	Julio	2023-02-07T00:00:00	2024-11-08T08:00:00	7	Dirección del viento	0
116283	7	Sololá	701	Sololá	4	Finca Santa Victoria	7	Julio	2023-02-07T00:00:00	2024-11-08T08:00:00	1	Precipitación	0
116284	7	Sololá	701	Sololá	4	Finca Santa Victoria	7	Julio	2023-02-07T00:00:00	2024-11-08T08:00:00	8	Radiación solar	168
116285	7	Sololá	701	Sololá	4	Finca Santa Victoria	7	Julio	2023-02-07T00:00:00	2024-11-08T09:00:00	2	Temperatura media	18.4
116286	7	Sololá	701	Sololá	4	Finca Santa Victoria	7	Julio	2023-02-07T00:00:00	2024-11-08T09:00:00	4	Temperatura máxima	18.4
116287	7	Sololá	701	Sololá	4	Finca Santa Victoria	7	Julio	2023-02-07T00:00:00	2024-11-08T09:00:00	3	Temperatura mínima	16.9
116288	7	Sololá	701	Sololá	4	Finca Santa Victoria	7	Julio	2023-02-07T00:00:00	2024-11-08T09:00:00	5	Humedad	69
116289	7	Sololá	701	Sololá	4	Finca Santa Victoria	7	Julio	2023-02-07T00:00:00	2024-11-08T09:00:00	6	Velocidad del viento	1.6
116290	7	Sololá	701	Sololá	4	Finca Santa Victoria	7	Julio	2023-02-07T00:00:00	2024-11-08T09:00:00	7	Dirección del viento	1.61
116291	7	Sololá	701	Sololá	4	Finca Santa Victoria	7	Julio	2023-02-07T00:00:00	2024-11-08T09:00:00	1	Precipitación	0
116292	7	Sololá	701	Sololá	4	Finca Santa Victoria	7	Julio	2023-02-07T00:00:00	2024-11-08T09:00:00	8	Radiación solar	316
116293	7	Sololá	701	Sololá	4	Finca Santa Victoria	7	Julio	2023-02-07T00:00:00	2024-11-08T10:00:00	2	Temperatura media	17.9
116294	7	Sololá	701	Sololá	4	Finca Santa Victoria	7	Julio	2023-02-07T00:00:00	2024-11-08T10:00:00	4	Temperatura máxima	18.4
116295	7	Sololá	701	Sololá	4	Finca Santa Victoria	7	Julio	2023-02-07T00:00:00	2024-11-08T10:00:00	3	Temperatura mínima	17.7
116296	7	Sololá	701	Sololá	4	Finca Santa Victoria	7	Julio	2023-02-07T00:00:00	2024-11-08T10:00:00	5	Humedad	75
116297	7	Sololá	701	Sololá	4	Finca Santa Victoria	7	Julio	2023-02-07T00:00:00	2024-11-08T10:00:00	6	Velocidad del viento	1.6
116298	7	Sololá	701	Sololá	4	Finca Santa Victoria	7	Julio	2023-02-07T00:00:00	2024-11-08T10:00:00	7	Dirección del viento	1.61
116299	7	Sololá	701	Sololá	4	Finca Santa Victoria	7	Julio	2023-02-07T00:00:00	2024-11-08T10:00:00	1	Precipitación	0
116300	7	Sololá	701	Sololá	4	Finca Santa Victoria	7	Julio	2023-02-07T00:00:00	2024-11-08T10:00:00	8	Radiación solar	226
116301	7	Sololá	701	Sololá	4	Finca Santa Victoria	7	Julio	2023-02-07T00:00:00	2024-11-08T11:00:00	2	Temperatura media	16.7
116302	7	Sololá	701	Sololá	4	Finca Santa Victoria	7	Julio	2023-02-07T00:00:00	2024-11-08T11:00:00	4	Temperatura máxima	18.9
116303	7	Sololá	701	Sololá	4	Finca Santa Victoria	7	Julio	2023-02-07T00:00:00	2024-11-08T11:00:00	3	Temperatura mínima	16.7
116304	7	Sololá	701	Sololá	4	Finca Santa Victoria	7	Julio	2023-02-07T00:00:00	2024-11-08T11:00:00	5	Humedad	87
116305	7	Sololá	701	Sololá	4	Finca Santa Victoria	7	Julio	2023-02-07T00:00:00	2024-11-08T11:00:00	6	Velocidad del viento	1.6
116306	7	Sololá	701	Sololá	4	Finca Santa Victoria	7	Julio	2023-02-07T00:00:00	2024-11-08T11:00:00	7	Dirección del viento	1.61
116307	7	Sololá	701	Sololá	4	Finca Santa Victoria	7	Julio	2023-02-07T00:00:00	2024-11-08T11:00:00	1	Precipitación	0
116308	7	Sololá	701	Sololá	4	Finca Santa Victoria	7	Julio	2023-02-07T00:00:00	2024-11-08T11:00:00	8	Radiación solar	207
116309	7	Sololá	701	Sololá	4	Finca Santa Victoria	7	Julio	2023-02-07T00:00:00	2024-11-08T12:00:00	2	Temperatura media	16.6
116310	7	Sololá	701	Sololá	4	Finca Santa Victoria	7	Julio	2023-02-07T00:00:00	2024-11-08T12:00:00	4	Temperatura máxima	17.2
116311	7	Sololá	701	Sololá	4	Finca Santa Victoria	7	Julio	2023-02-07T00:00:00	2024-11-08T12:00:00	3	Temperatura mínima	16.4
116312	7	Sololá	701	Sololá	4	Finca Santa Victoria	7	Julio	2023-02-07T00:00:00	2024-11-08T12:00:00	5	Humedad	91
116313	7	Sololá	701	Sololá	4	Finca Santa Victoria	7	Julio	2023-02-07T00:00:00	2024-11-08T12:00:00	6	Velocidad del viento	1.6
116314	7	Sololá	701	Sololá	4	Finca Santa Victoria	7	Julio	2023-02-07T00:00:00	2024-11-08T12:00:00	7	Dirección del viento	1.61
116315	7	Sololá	701	Sololá	4	Finca Santa Victoria	7	Julio	2023-02-07T00:00:00	2024-11-08T12:00:00	1	Precipitación	0
116316	7	Sololá	701	Sololá	4	Finca Santa Victoria	7	Julio	2023-02-07T00:00:00	2024-11-08T12:00:00	8	Radiación solar	221
116317	7	Sololá	701	Sololá	4	Finca Santa Victoria	7	Julio	2023-02-07T00:00:00	2024-11-08T13:00:00	2	Temperatura media	15.3
116318	7	Sololá	701	Sololá	4	Finca Santa Victoria	7	Julio	2023-02-07T00:00:00	2024-11-08T13:00:00	4	Temperatura máxima	16.8
116319	7	Sololá	701	Sololá	4	Finca Santa Victoria	7	Julio	2023-02-07T00:00:00	2024-11-08T13:00:00	3	Temperatura mínima	15.3
116320	7	Sololá	701	Sololá	4	Finca Santa Victoria	7	Julio	2023-02-07T00:00:00	2024-11-08T13:00:00	5	Humedad	94
116321	7	Sololá	701	Sololá	4	Finca Santa Victoria	7	Julio	2023-02-07T00:00:00	2024-11-08T13:00:00	6	Velocidad del viento	3.2
116322	7	Sololá	701	Sololá	4	Finca Santa Victoria	7	Julio	2023-02-07T00:00:00	2024-11-08T13:00:00	7	Dirección del viento	3.22
116323	7	Sololá	701	Sololá	4	Finca Santa Victoria	7	Julio	2023-02-07T00:00:00	2024-11-08T13:00:00	1	Precipitación	0
116324	7	Sololá	701	Sololá	4	Finca Santa Victoria	7	Julio	2023-02-07T00:00:00	2024-11-08T13:00:00	8	Radiación solar	142
116325	7	Sololá	701	Sololá	4	Finca Santa Victoria	7	Julio	2023-02-07T00:00:00	2024-11-08T14:00:00	2	Temperatura media	15.1
116326	7	Sololá	701	Sololá	4	Finca Santa Victoria	7	Julio	2023-02-07T00:00:00	2024-11-08T14:00:00	4	Temperatura máxima	15.5
116327	7	Sololá	701	Sololá	4	Finca Santa Victoria	7	Julio	2023-02-07T00:00:00	2024-11-08T14:00:00	3	Temperatura mínima	14.9
116328	7	Sololá	701	Sololá	4	Finca Santa Victoria	7	Julio	2023-02-07T00:00:00	2024-11-08T14:00:00	5	Humedad	95
116329	7	Sololá	701	Sololá	4	Finca Santa Victoria	7	Julio	2023-02-07T00:00:00	2024-11-08T14:00:00	6	Velocidad del viento	1.6
116330	7	Sololá	701	Sololá	4	Finca Santa Victoria	7	Julio	2023-02-07T00:00:00	2024-11-08T14:00:00	7	Dirección del viento	1.61
116331	7	Sololá	701	Sololá	4	Finca Santa Victoria	7	Julio	2023-02-07T00:00:00	2024-11-08T14:00:00	1	Precipitación	0
116332	7	Sololá	701	Sololá	4	Finca Santa Victoria	7	Julio	2023-02-07T00:00:00	2024-11-08T14:00:00	8	Radiación solar	77
116333	7	Sololá	701	Sololá	4	Finca Santa Victoria	7	Julio	2023-02-07T00:00:00	2024-11-08T15:00:00	2	Temperatura media	14.3
116334	7	Sololá	701	Sololá	4	Finca Santa Victoria	7	Julio	2023-02-07T00:00:00	2024-11-08T15:00:00	4	Temperatura máxima	15.1
116335	7	Sololá	701	Sololá	4	Finca Santa Victoria	7	Julio	2023-02-07T00:00:00	2024-11-08T15:00:00	3	Temperatura mínima	14.3
116336	7	Sololá	701	Sololá	4	Finca Santa Victoria	7	Julio	2023-02-07T00:00:00	2024-11-08T15:00:00	5	Humedad	96
116337	7	Sololá	701	Sololá	4	Finca Santa Victoria	7	Julio	2023-02-07T00:00:00	2024-11-08T15:00:00	6	Velocidad del viento	1.6
116338	7	Sololá	701	Sololá	4	Finca Santa Victoria	7	Julio	2023-02-07T00:00:00	2024-11-08T15:00:00	7	Dirección del viento	1.61
116339	7	Sololá	701	Sololá	4	Finca Santa Victoria	7	Julio	2023-02-07T00:00:00	2024-11-08T15:00:00	1	Precipitación	0
116340	7	Sololá	701	Sololá	4	Finca Santa Victoria	7	Julio	2023-02-07T00:00:00	2024-11-08T15:00:00	8	Radiación solar	31
116341	7	Sololá	701	Sololá	4	Finca Santa Victoria	7	Julio	2023-02-07T00:00:00	2024-11-08T16:00:00	2	Temperatura media	15.2
116342	7	Sololá	701	Sololá	4	Finca Santa Victoria	7	Julio	2023-02-07T00:00:00	2024-11-08T16:00:00	4	Temperatura máxima	15.2
116343	7	Sololá	701	Sololá	4	Finca Santa Victoria	7	Julio	2023-02-07T00:00:00	2024-11-08T16:00:00	3	Temperatura mínima	14.3
116344	7	Sololá	701	Sololá	4	Finca Santa Victoria	7	Julio	2023-02-07T00:00:00	2024-11-08T16:00:00	5	Humedad	94
116345	7	Sololá	701	Sololá	4	Finca Santa Victoria	7	Julio	2023-02-07T00:00:00	2024-11-08T16:00:00	6	Velocidad del viento	0
116346	7	Sololá	701	Sololá	4	Finca Santa Victoria	7	Julio	2023-02-07T00:00:00	2024-11-08T16:00:00	7	Dirección del viento	0
116347	7	Sololá	701	Sololá	4	Finca Santa Victoria	7	Julio	2023-02-07T00:00:00	2024-11-08T16:00:00	1	Precipitación	0.2
116348	7	Sololá	701	Sololá	4	Finca Santa Victoria	7	Julio	2023-02-07T00:00:00	2024-11-08T16:00:00	8	Radiación solar	109
116349	7	Sololá	701	Sololá	4	Finca Santa Victoria	7	Julio	2023-02-07T00:00:00	2024-11-08T17:00:00	2	Temperatura media	16.1
116350	7	Sololá	701	Sololá	4	Finca Santa Victoria	7	Julio	2023-02-07T00:00:00	2024-11-08T17:00:00	4	Temperatura máxima	16.2
116351	7	Sololá	701	Sololá	4	Finca Santa Victoria	7	Julio	2023-02-07T00:00:00	2024-11-08T17:00:00	3	Temperatura mínima	15.2
116352	7	Sololá	701	Sololá	4	Finca Santa Victoria	7	Julio	2023-02-07T00:00:00	2024-11-08T17:00:00	5	Humedad	94
116353	7	Sololá	701	Sololá	4	Finca Santa Victoria	7	Julio	2023-02-07T00:00:00	2024-11-08T17:00:00	6	Velocidad del viento	1.6
116354	7	Sololá	701	Sololá	4	Finca Santa Victoria	7	Julio	2023-02-07T00:00:00	2024-11-08T17:00:00	7	Dirección del viento	1.61
116355	7	Sololá	701	Sololá	4	Finca Santa Victoria	7	Julio	2023-02-07T00:00:00	2024-11-08T17:00:00	1	Precipitación	0
116356	7	Sololá	701	Sololá	4	Finca Santa Victoria	7	Julio	2023-02-07T00:00:00	2024-11-08T17:00:00	8	Radiación solar	109
116357	7	Sololá	701	Sololá	4	Finca Santa Victoria	7	Julio	2023-02-07T00:00:00	2024-11-08T18:00:00	2	Temperatura media	14.5
116358	7	Sololá	701	Sololá	4	Finca Santa Victoria	7	Julio	2023-02-07T00:00:00	2024-11-08T18:00:00	4	Temperatura máxima	16.1
116359	7	Sololá	701	Sololá	4	Finca Santa Victoria	7	Julio	2023-02-07T00:00:00	2024-11-08T18:00:00	3	Temperatura mínima	14.5
116360	7	Sololá	701	Sololá	4	Finca Santa Victoria	7	Julio	2023-02-07T00:00:00	2024-11-08T18:00:00	5	Humedad	97
116361	7	Sololá	701	Sololá	4	Finca Santa Victoria	7	Julio	2023-02-07T00:00:00	2024-11-08T18:00:00	6	Velocidad del viento	0
116362	7	Sololá	701	Sololá	4	Finca Santa Victoria	7	Julio	2023-02-07T00:00:00	2024-11-08T18:00:00	7	Dirección del viento	0
116363	7	Sololá	701	Sololá	4	Finca Santa Victoria	7	Julio	2023-02-07T00:00:00	2024-11-08T18:00:00	1	Precipitación	0
116364	7	Sololá	701	Sololá	4	Finca Santa Victoria	7	Julio	2023-02-07T00:00:00	2024-11-08T18:00:00	8	Radiación solar	13
116365	7	Sololá	701	Sololá	4	Finca Santa Victoria	7	Julio	2023-02-07T00:00:00	2024-11-08T19:00:00	2	Temperatura media	14.3
116366	7	Sololá	701	Sololá	4	Finca Santa Victoria	7	Julio	2023-02-07T00:00:00	2024-11-08T19:00:00	4	Temperatura máxima	14.6
116367	7	Sololá	701	Sololá	4	Finca Santa Victoria	7	Julio	2023-02-07T00:00:00	2024-11-08T19:00:00	3	Temperatura mínima	14.2
116368	7	Sololá	701	Sololá	4	Finca Santa Victoria	7	Julio	2023-02-07T00:00:00	2024-11-08T19:00:00	5	Humedad	98
116369	7	Sololá	701	Sololá	4	Finca Santa Victoria	7	Julio	2023-02-07T00:00:00	2024-11-08T19:00:00	6	Velocidad del viento	0
116370	7	Sololá	701	Sololá	4	Finca Santa Victoria	7	Julio	2023-02-07T00:00:00	2024-11-08T19:00:00	7	Dirección del viento	0
116371	7	Sololá	701	Sololá	4	Finca Santa Victoria	7	Julio	2023-02-07T00:00:00	2024-11-08T19:00:00	1	Precipitación	1.6
116372	7	Sololá	701	Sololá	4	Finca Santa Victoria	7	Julio	2023-02-07T00:00:00	2024-11-08T19:00:00	8	Radiación solar	0
116373	7	Sololá	701	Sololá	4	Finca Santa Victoria	7	Julio	2023-02-07T00:00:00	2024-11-08T20:00:00	2	Temperatura media	14.1
116374	7	Sololá	701	Sololá	4	Finca Santa Victoria	7	Julio	2023-02-07T00:00:00	2024-11-08T20:00:00	4	Temperatura máxima	14.3
116375	7	Sololá	701	Sololá	4	Finca Santa Victoria	7	Julio	2023-02-07T00:00:00	2024-11-08T20:00:00	3	Temperatura mínima	14.1
116376	7	Sololá	701	Sololá	4	Finca Santa Victoria	7	Julio	2023-02-07T00:00:00	2024-11-08T20:00:00	5	Humedad	98
116377	7	Sololá	701	Sololá	4	Finca Santa Victoria	7	Julio	2023-02-07T00:00:00	2024-11-08T20:00:00	6	Velocidad del viento	0
116378	7	Sololá	701	Sololá	4	Finca Santa Victoria	7	Julio	2023-02-07T00:00:00	2024-11-08T20:00:00	7	Dirección del viento	0
116379	7	Sololá	701	Sololá	4	Finca Santa Victoria	7	Julio	2023-02-07T00:00:00	2024-11-08T20:00:00	1	Precipitación	0
116380	7	Sololá	701	Sololá	4	Finca Santa Victoria	7	Julio	2023-02-07T00:00:00	2024-11-08T20:00:00	8	Radiación solar	0
116381	7	Sololá	701	Sololá	4	Finca Santa Victoria	7	Julio	2023-02-07T00:00:00	2024-11-08T21:00:00	2	Temperatura media	14.1
116382	7	Sololá	701	Sololá	4	Finca Santa Victoria	7	Julio	2023-02-07T00:00:00	2024-11-08T21:00:00	4	Temperatura máxima	14.2
116383	7	Sololá	701	Sololá	4	Finca Santa Victoria	7	Julio	2023-02-07T00:00:00	2024-11-08T21:00:00	3	Temperatura mínima	14.1
116384	7	Sololá	701	Sololá	4	Finca Santa Victoria	7	Julio	2023-02-07T00:00:00	2024-11-08T21:00:00	5	Humedad	98
116385	7	Sololá	701	Sololá	4	Finca Santa Victoria	7	Julio	2023-02-07T00:00:00	2024-11-08T21:00:00	6	Velocidad del viento	0
116386	7	Sololá	701	Sololá	4	Finca Santa Victoria	7	Julio	2023-02-07T00:00:00	2024-11-08T21:00:00	7	Dirección del viento	0
116387	7	Sololá	701	Sololá	4	Finca Santa Victoria	7	Julio	2023-02-07T00:00:00	2024-11-08T21:00:00	1	Precipitación	0
116388	7	Sololá	701	Sololá	4	Finca Santa Victoria	7	Julio	2023-02-07T00:00:00	2024-11-08T21:00:00	8	Radiación solar	0
116389	7	Sololá	701	Sololá	4	Finca Santa Victoria	7	Julio	2023-02-07T00:00:00	2024-11-08T22:00:00	2	Temperatura media	13.9
116390	7	Sololá	701	Sololá	4	Finca Santa Victoria	7	Julio	2023-02-07T00:00:00	2024-11-08T22:00:00	4	Temperatura máxima	14.1
116391	7	Sololá	701	Sololá	4	Finca Santa Victoria	7	Julio	2023-02-07T00:00:00	2024-11-08T22:00:00	3	Temperatura mínima	13.8
116392	7	Sololá	701	Sololá	4	Finca Santa Victoria	7	Julio	2023-02-07T00:00:00	2024-11-08T22:00:00	5	Humedad	98
116393	7	Sololá	701	Sololá	4	Finca Santa Victoria	7	Julio	2023-02-07T00:00:00	2024-11-08T22:00:00	6	Velocidad del viento	0
116394	7	Sololá	701	Sololá	4	Finca Santa Victoria	7	Julio	2023-02-07T00:00:00	2024-11-08T22:00:00	7	Dirección del viento	0
116395	7	Sololá	701	Sololá	4	Finca Santa Victoria	7	Julio	2023-02-07T00:00:00	2024-11-08T22:00:00	1	Precipitación	0
116396	7	Sololá	701	Sololá	4	Finca Santa Victoria	7	Julio	2023-02-07T00:00:00	2024-11-08T22:00:00	8	Radiación solar	0
116397	7	Sololá	701	Sololá	4	Finca Santa Victoria	7	Julio	2023-02-07T00:00:00	2024-11-08T23:00:00	2	Temperatura media	13.7
116398	7	Sololá	701	Sololá	4	Finca Santa Victoria	7	Julio	2023-02-07T00:00:00	2024-11-08T23:00:00	4	Temperatura máxima	13.9
116399	7	Sololá	701	Sololá	4	Finca Santa Victoria	7	Julio	2023-02-07T00:00:00	2024-11-08T23:00:00	3	Temperatura mínima	13.7
116400	7	Sololá	701	Sololá	4	Finca Santa Victoria	7	Julio	2023-02-07T00:00:00	2024-11-08T23:00:00	5	Humedad	98
116401	7	Sololá	701	Sololá	4	Finca Santa Victoria	7	Julio	2023-02-07T00:00:00	2024-11-08T23:00:00	6	Velocidad del viento	0
116402	7	Sololá	701	Sololá	4	Finca Santa Victoria	7	Julio	2023-02-07T00:00:00	2024-11-08T23:00:00	7	Dirección del viento	0
116403	7	Sololá	701	Sololá	4	Finca Santa Victoria	7	Julio	2023-02-07T00:00:00	2024-11-08T23:00:00	1	Precipitación	0
116404	7	Sololá	701	Sololá	4	Finca Santa Victoria	7	Julio	2023-02-07T00:00:00	2024-11-08T23:00:00	8	Radiación solar	0
116405	7	Sololá	701	Sololá	4	Finca Santa Victoria	7	Julio	2023-03-07T00:00:00	2024-11-08T00:00:00	2	Temperatura media	13.5
116406	7	Sololá	701	Sololá	4	Finca Santa Victoria	7	Julio	2023-03-07T00:00:00	2024-11-08T00:00:00	4	Temperatura máxima	13.7
116407	7	Sololá	701	Sololá	4	Finca Santa Victoria	7	Julio	2023-03-07T00:00:00	2024-11-08T00:00:00	3	Temperatura mínima	13.5
116408	7	Sololá	701	Sololá	4	Finca Santa Victoria	7	Julio	2023-03-07T00:00:00	2024-11-08T00:00:00	5	Humedad	98
116409	7	Sololá	701	Sololá	4	Finca Santa Victoria	7	Julio	2023-03-07T00:00:00	2024-11-08T00:00:00	6	Velocidad del viento	0
116410	7	Sololá	701	Sololá	4	Finca Santa Victoria	7	Julio	2023-03-07T00:00:00	2024-11-08T00:00:00	7	Dirección del viento	0
116411	7	Sololá	701	Sololá	4	Finca Santa Victoria	7	Julio	2023-03-07T00:00:00	2024-11-08T00:00:00	1	Precipitación	0
116412	7	Sololá	701	Sololá	4	Finca Santa Victoria	7	Julio	2023-03-07T00:00:00	2024-11-08T00:00:00	8	Radiación solar	0
116413	7	Sololá	701	Sololá	4	Finca Santa Victoria	7	Julio	2023-03-07T00:00:00	2024-11-08T01:00:00	2	Temperatura media	13.4
116414	7	Sololá	701	Sololá	4	Finca Santa Victoria	7	Julio	2023-03-07T00:00:00	2024-11-08T01:00:00	4	Temperatura máxima	13.6
116415	7	Sololá	701	Sololá	4	Finca Santa Victoria	7	Julio	2023-03-07T00:00:00	2024-11-08T01:00:00	3	Temperatura mínima	13.4
116416	7	Sololá	701	Sololá	4	Finca Santa Victoria	7	Julio	2023-03-07T00:00:00	2024-11-08T01:00:00	5	Humedad	98
116417	7	Sololá	701	Sololá	4	Finca Santa Victoria	7	Julio	2023-03-07T00:00:00	2024-11-08T01:00:00	6	Velocidad del viento	0
116418	7	Sololá	701	Sololá	4	Finca Santa Victoria	7	Julio	2023-03-07T00:00:00	2024-11-08T01:00:00	7	Dirección del viento	0
116419	7	Sololá	701	Sololá	4	Finca Santa Victoria	7	Julio	2023-03-07T00:00:00	2024-11-08T01:00:00	1	Precipitación	0
116420	7	Sololá	701	Sololá	4	Finca Santa Victoria	7	Julio	2023-03-07T00:00:00	2024-11-08T01:00:00	8	Radiación solar	0
116421	7	Sololá	701	Sololá	4	Finca Santa Victoria	7	Julio	2023-03-07T00:00:00	2024-11-08T02:00:00	2	Temperatura media	13.3
116422	7	Sololá	701	Sololá	4	Finca Santa Victoria	7	Julio	2023-03-07T00:00:00	2024-11-08T02:00:00	4	Temperatura máxima	13.4
116423	7	Sololá	701	Sololá	4	Finca Santa Victoria	7	Julio	2023-03-07T00:00:00	2024-11-08T02:00:00	3	Temperatura mínima	13.3
116424	7	Sololá	701	Sololá	4	Finca Santa Victoria	7	Julio	2023-03-07T00:00:00	2024-11-08T02:00:00	5	Humedad	98
116425	7	Sololá	701	Sololá	4	Finca Santa Victoria	7	Julio	2023-03-07T00:00:00	2024-11-08T02:00:00	6	Velocidad del viento	0
116426	7	Sololá	701	Sololá	4	Finca Santa Victoria	7	Julio	2023-03-07T00:00:00	2024-11-08T02:00:00	7	Dirección del viento	0
116427	7	Sololá	701	Sololá	4	Finca Santa Victoria	7	Julio	2023-03-07T00:00:00	2024-11-08T02:00:00	1	Precipitación	0
116428	7	Sololá	701	Sololá	4	Finca Santa Victoria	7	Julio	2023-03-07T00:00:00	2024-11-08T02:00:00	8	Radiación solar	0
116429	7	Sololá	701	Sololá	4	Finca Santa Victoria	7	Julio	2023-03-07T00:00:00	2024-11-08T03:00:00	2	Temperatura media	13.3
116430	7	Sololá	701	Sololá	4	Finca Santa Victoria	7	Julio	2023-03-07T00:00:00	2024-11-08T03:00:00	4	Temperatura máxima	13.4
116431	7	Sololá	701	Sololá	4	Finca Santa Victoria	7	Julio	2023-03-07T00:00:00	2024-11-08T03:00:00	3	Temperatura mínima	13.3
116432	7	Sololá	701	Sololá	4	Finca Santa Victoria	7	Julio	2023-03-07T00:00:00	2024-11-08T03:00:00	5	Humedad	98
116433	7	Sololá	701	Sololá	4	Finca Santa Victoria	7	Julio	2023-03-07T00:00:00	2024-11-08T03:00:00	6	Velocidad del viento	0
116434	7	Sololá	701	Sololá	4	Finca Santa Victoria	7	Julio	2023-03-07T00:00:00	2024-11-08T03:00:00	7	Dirección del viento	0
116435	7	Sololá	701	Sololá	4	Finca Santa Victoria	7	Julio	2023-03-07T00:00:00	2024-11-08T03:00:00	1	Precipitación	0
116436	7	Sololá	701	Sololá	4	Finca Santa Victoria	7	Julio	2023-03-07T00:00:00	2024-11-08T03:00:00	8	Radiación solar	0
116437	7	Sololá	701	Sololá	4	Finca Santa Victoria	7	Julio	2023-03-07T00:00:00	2024-11-08T04:00:00	2	Temperatura media	13.4
116438	7	Sololá	701	Sololá	4	Finca Santa Victoria	7	Julio	2023-03-07T00:00:00	2024-11-08T04:00:00	4	Temperatura máxima	13.4
116439	7	Sololá	701	Sololá	4	Finca Santa Victoria	7	Julio	2023-03-07T00:00:00	2024-11-08T04:00:00	3	Temperatura mínima	13.2
116440	7	Sololá	701	Sololá	4	Finca Santa Victoria	7	Julio	2023-03-07T00:00:00	2024-11-08T04:00:00	5	Humedad	98
116441	7	Sololá	701	Sololá	4	Finca Santa Victoria	7	Julio	2023-03-07T00:00:00	2024-11-08T04:00:00	6	Velocidad del viento	0
116442	7	Sololá	701	Sololá	4	Finca Santa Victoria	7	Julio	2023-03-07T00:00:00	2024-11-08T04:00:00	7	Dirección del viento	0
116443	7	Sololá	701	Sololá	4	Finca Santa Victoria	7	Julio	2023-03-07T00:00:00	2024-11-08T04:00:00	1	Precipitación	0
116444	7	Sololá	701	Sololá	4	Finca Santa Victoria	7	Julio	2023-03-07T00:00:00	2024-11-08T04:00:00	8	Radiación solar	0
116445	7	Sololá	701	Sololá	4	Finca Santa Victoria	7	Julio	2023-03-07T00:00:00	2024-11-08T05:00:00	2	Temperatura media	13.3
116446	7	Sololá	701	Sololá	4	Finca Santa Victoria	7	Julio	2023-03-07T00:00:00	2024-11-08T05:00:00	4	Temperatura máxima	13.4
116447	7	Sololá	701	Sololá	4	Finca Santa Victoria	7	Julio	2023-03-07T00:00:00	2024-11-08T05:00:00	3	Temperatura mínima	13.3
116448	7	Sololá	701	Sololá	4	Finca Santa Victoria	7	Julio	2023-03-07T00:00:00	2024-11-08T05:00:00	5	Humedad	98
116449	7	Sololá	701	Sololá	4	Finca Santa Victoria	7	Julio	2023-03-07T00:00:00	2024-11-08T05:00:00	6	Velocidad del viento	0
116450	7	Sololá	701	Sololá	4	Finca Santa Victoria	7	Julio	2023-03-07T00:00:00	2024-11-08T05:00:00	7	Dirección del viento	0
116451	7	Sololá	701	Sololá	4	Finca Santa Victoria	7	Julio	2023-03-07T00:00:00	2024-11-08T05:00:00	1	Precipitación	0
116452	7	Sololá	701	Sololá	4	Finca Santa Victoria	7	Julio	2023-03-07T00:00:00	2024-11-08T05:00:00	8	Radiación solar	0
116453	7	Sololá	701	Sololá	4	Finca Santa Victoria	7	Julio	2023-03-07T00:00:00	2024-11-08T06:00:00	2	Temperatura media	13.4
116454	7	Sololá	701	Sololá	4	Finca Santa Victoria	7	Julio	2023-03-07T00:00:00	2024-11-08T06:00:00	4	Temperatura máxima	13.4
116455	7	Sololá	701	Sololá	4	Finca Santa Victoria	7	Julio	2023-03-07T00:00:00	2024-11-08T06:00:00	3	Temperatura mínima	13.3
116456	7	Sololá	701	Sololá	4	Finca Santa Victoria	7	Julio	2023-03-07T00:00:00	2024-11-08T06:00:00	5	Humedad	99
116457	7	Sololá	701	Sololá	4	Finca Santa Victoria	7	Julio	2023-03-07T00:00:00	2024-11-08T06:00:00	6	Velocidad del viento	0
116458	7	Sololá	701	Sololá	4	Finca Santa Victoria	7	Julio	2023-03-07T00:00:00	2024-11-08T06:00:00	7	Dirección del viento	0
116459	7	Sololá	701	Sololá	4	Finca Santa Victoria	7	Julio	2023-03-07T00:00:00	2024-11-08T06:00:00	1	Precipitación	0
116460	7	Sololá	701	Sololá	4	Finca Santa Victoria	7	Julio	2023-03-07T00:00:00	2024-11-08T06:00:00	8	Radiación solar	0
116461	7	Sololá	701	Sololá	4	Finca Santa Victoria	7	Julio	2023-03-07T00:00:00	2024-11-08T07:00:00	2	Temperatura media	13.7
116462	7	Sololá	701	Sololá	4	Finca Santa Victoria	7	Julio	2023-03-07T00:00:00	2024-11-08T07:00:00	4	Temperatura máxima	13.7
116463	7	Sololá	701	Sololá	4	Finca Santa Victoria	7	Julio	2023-03-07T00:00:00	2024-11-08T07:00:00	3	Temperatura mínima	13.4
116464	7	Sololá	701	Sololá	4	Finca Santa Victoria	7	Julio	2023-03-07T00:00:00	2024-11-08T07:00:00	5	Humedad	98
116465	7	Sololá	701	Sololá	4	Finca Santa Victoria	7	Julio	2023-03-07T00:00:00	2024-11-08T07:00:00	6	Velocidad del viento	0
116466	7	Sololá	701	Sololá	4	Finca Santa Victoria	7	Julio	2023-03-07T00:00:00	2024-11-08T07:00:00	7	Dirección del viento	0
116467	7	Sololá	701	Sololá	4	Finca Santa Victoria	7	Julio	2023-03-07T00:00:00	2024-11-08T07:00:00	1	Precipitación	0
116468	7	Sololá	701	Sololá	4	Finca Santa Victoria	7	Julio	2023-03-07T00:00:00	2024-11-08T07:00:00	8	Radiación solar	33
116469	7	Sololá	701	Sololá	4	Finca Santa Victoria	7	Julio	2023-03-07T00:00:00	2024-11-08T08:00:00	2	Temperatura media	15.3
116470	7	Sololá	701	Sololá	4	Finca Santa Victoria	7	Julio	2023-03-07T00:00:00	2024-11-08T08:00:00	4	Temperatura máxima	15.3
116471	7	Sololá	701	Sololá	4	Finca Santa Victoria	7	Julio	2023-03-07T00:00:00	2024-11-08T08:00:00	3	Temperatura mínima	13.7
116472	7	Sololá	701	Sololá	4	Finca Santa Victoria	7	Julio	2023-03-07T00:00:00	2024-11-08T08:00:00	5	Humedad	93
116473	7	Sololá	701	Sololá	4	Finca Santa Victoria	7	Julio	2023-03-07T00:00:00	2024-11-08T08:00:00	6	Velocidad del viento	1.6
116474	7	Sololá	701	Sololá	4	Finca Santa Victoria	7	Julio	2023-03-07T00:00:00	2024-11-08T08:00:00	7	Dirección del viento	1.61
116475	7	Sololá	701	Sololá	4	Finca Santa Victoria	7	Julio	2023-03-07T00:00:00	2024-11-08T08:00:00	1	Precipitación	0
116476	7	Sololá	701	Sololá	4	Finca Santa Victoria	7	Julio	2023-03-07T00:00:00	2024-11-08T08:00:00	8	Radiación solar	168
116477	7	Sololá	701	Sololá	4	Finca Santa Victoria	7	Julio	2023-03-07T00:00:00	2024-11-08T09:00:00	2	Temperatura media	15.8
116478	7	Sololá	701	Sololá	4	Finca Santa Victoria	7	Julio	2023-03-07T00:00:00	2024-11-08T09:00:00	4	Temperatura máxima	15.9
116479	7	Sololá	701	Sololá	4	Finca Santa Victoria	7	Julio	2023-03-07T00:00:00	2024-11-08T09:00:00	3	Temperatura mínima	15.3
116480	7	Sololá	701	Sololá	4	Finca Santa Victoria	7	Julio	2023-03-07T00:00:00	2024-11-08T09:00:00	5	Humedad	94
116481	7	Sololá	701	Sololá	4	Finca Santa Victoria	7	Julio	2023-03-07T00:00:00	2024-11-08T09:00:00	6	Velocidad del viento	1.6
116482	7	Sololá	701	Sololá	4	Finca Santa Victoria	7	Julio	2023-03-07T00:00:00	2024-11-08T09:00:00	7	Dirección del viento	1.61
116483	7	Sololá	701	Sololá	4	Finca Santa Victoria	7	Julio	2023-03-07T00:00:00	2024-11-08T09:00:00	1	Precipitación	0
116484	7	Sololá	701	Sololá	4	Finca Santa Victoria	7	Julio	2023-03-07T00:00:00	2024-11-08T09:00:00	8	Radiación solar	225
116485	7	Sololá	701	Sololá	4	Finca Santa Victoria	7	Julio	2023-03-07T00:00:00	2024-11-08T10:00:00	2	Temperatura media	15.8
116486	7	Sololá	701	Sololá	4	Finca Santa Victoria	7	Julio	2023-03-07T00:00:00	2024-11-08T10:00:00	4	Temperatura máxima	15.9
116487	7	Sololá	701	Sololá	4	Finca Santa Victoria	7	Julio	2023-03-07T00:00:00	2024-11-08T10:00:00	3	Temperatura mínima	15.6
116488	7	Sololá	701	Sololá	4	Finca Santa Victoria	7	Julio	2023-03-07T00:00:00	2024-11-08T10:00:00	5	Humedad	94
116489	7	Sololá	701	Sololá	4	Finca Santa Victoria	7	Julio	2023-03-07T00:00:00	2024-11-08T10:00:00	6	Velocidad del viento	1.6
116490	7	Sololá	701	Sololá	4	Finca Santa Victoria	7	Julio	2023-03-07T00:00:00	2024-11-08T10:00:00	7	Dirección del viento	1.61
116491	7	Sololá	701	Sololá	4	Finca Santa Victoria	7	Julio	2023-03-07T00:00:00	2024-11-08T10:00:00	1	Precipitación	0
116492	7	Sololá	701	Sololá	4	Finca Santa Victoria	7	Julio	2023-03-07T00:00:00	2024-11-08T10:00:00	8	Radiación solar	125
116493	7	Sololá	701	Sololá	4	Finca Santa Victoria	7	Julio	2023-03-07T00:00:00	2024-11-08T11:00:00	2	Temperatura media	17.7
116494	7	Sololá	701	Sololá	4	Finca Santa Victoria	7	Julio	2023-03-07T00:00:00	2024-11-08T11:00:00	4	Temperatura máxima	17.7
116495	7	Sololá	701	Sololá	4	Finca Santa Victoria	7	Julio	2023-03-07T00:00:00	2024-11-08T11:00:00	3	Temperatura mínima	15.8
116496	7	Sololá	701	Sololá	4	Finca Santa Victoria	7	Julio	2023-03-07T00:00:00	2024-11-08T11:00:00	5	Humedad	91
116497	7	Sololá	701	Sololá	4	Finca Santa Victoria	7	Julio	2023-03-07T00:00:00	2024-11-08T11:00:00	6	Velocidad del viento	1.6
116498	7	Sololá	701	Sololá	4	Finca Santa Victoria	7	Julio	2023-03-07T00:00:00	2024-11-08T11:00:00	7	Dirección del viento	1.61
116499	7	Sololá	701	Sololá	4	Finca Santa Victoria	7	Julio	2023-03-07T00:00:00	2024-11-08T11:00:00	1	Precipitación	0
116500	7	Sololá	701	Sololá	4	Finca Santa Victoria	7	Julio	2023-03-07T00:00:00	2024-11-08T11:00:00	8	Radiación solar	264
116501	7	Sololá	701	Sololá	4	Finca Santa Victoria	7	Julio	2023-03-07T00:00:00	2024-11-08T12:00:00	2	Temperatura media	16.3
116502	7	Sololá	701	Sololá	4	Finca Santa Victoria	7	Julio	2023-03-07T00:00:00	2024-11-08T12:00:00	4	Temperatura máxima	17.7
116503	7	Sololá	701	Sololá	4	Finca Santa Victoria	7	Julio	2023-03-07T00:00:00	2024-11-08T12:00:00	3	Temperatura mínima	16.3
116504	7	Sololá	701	Sololá	4	Finca Santa Victoria	7	Julio	2023-03-07T00:00:00	2024-11-08T12:00:00	5	Humedad	96
116505	7	Sololá	701	Sololá	4	Finca Santa Victoria	7	Julio	2023-03-07T00:00:00	2024-11-08T12:00:00	6	Velocidad del viento	1.6
116506	7	Sololá	701	Sololá	4	Finca Santa Victoria	7	Julio	2023-03-07T00:00:00	2024-11-08T12:00:00	7	Dirección del viento	1.61
116507	7	Sololá	701	Sololá	4	Finca Santa Victoria	7	Julio	2023-03-07T00:00:00	2024-11-08T12:00:00	1	Precipitación	0
116508	7	Sololá	701	Sololá	4	Finca Santa Victoria	7	Julio	2023-03-07T00:00:00	2024-11-08T12:00:00	8	Radiación solar	164
116509	7	Sololá	701	Sololá	4	Finca Santa Victoria	7	Julio	2023-03-07T00:00:00	2024-11-08T13:00:00	2	Temperatura media	16.5
116510	7	Sololá	701	Sololá	4	Finca Santa Victoria	7	Julio	2023-03-07T00:00:00	2024-11-08T13:00:00	4	Temperatura máxima	17.4
116511	7	Sololá	701	Sololá	4	Finca Santa Victoria	7	Julio	2023-03-07T00:00:00	2024-11-08T13:00:00	3	Temperatura mínima	16.1
116512	7	Sololá	701	Sololá	4	Finca Santa Victoria	7	Julio	2023-03-07T00:00:00	2024-11-08T13:00:00	5	Humedad	95
116513	7	Sololá	701	Sololá	4	Finca Santa Victoria	7	Julio	2023-03-07T00:00:00	2024-11-08T13:00:00	6	Velocidad del viento	1.6
116514	7	Sololá	701	Sololá	4	Finca Santa Victoria	7	Julio	2023-03-07T00:00:00	2024-11-08T13:00:00	7	Dirección del viento	1.61
116515	7	Sololá	701	Sololá	4	Finca Santa Victoria	7	Julio	2023-03-07T00:00:00	2024-11-08T13:00:00	1	Precipitación	0
116516	7	Sololá	701	Sololá	4	Finca Santa Victoria	7	Julio	2023-03-07T00:00:00	2024-11-08T13:00:00	8	Radiación solar	189
116517	7	Sololá	701	Sololá	4	Finca Santa Victoria	7	Julio	2023-03-07T00:00:00	2024-11-08T14:00:00	2	Temperatura media	15.6
116518	7	Sololá	701	Sololá	4	Finca Santa Victoria	7	Julio	2023-03-07T00:00:00	2024-11-08T14:00:00	4	Temperatura máxima	16.4
116519	7	Sololá	701	Sololá	4	Finca Santa Victoria	7	Julio	2023-03-07T00:00:00	2024-11-08T14:00:00	3	Temperatura mínima	15.6
116520	7	Sololá	701	Sololá	4	Finca Santa Victoria	7	Julio	2023-03-07T00:00:00	2024-11-08T14:00:00	5	Humedad	98
116521	7	Sololá	701	Sololá	4	Finca Santa Victoria	7	Julio	2023-03-07T00:00:00	2024-11-08T14:00:00	6	Velocidad del viento	1.6
116522	7	Sololá	701	Sololá	4	Finca Santa Victoria	7	Julio	2023-03-07T00:00:00	2024-11-08T14:00:00	7	Dirección del viento	1.61
116523	7	Sololá	701	Sololá	4	Finca Santa Victoria	7	Julio	2023-03-07T00:00:00	2024-11-08T14:00:00	1	Precipitación	5.2
116524	7	Sololá	701	Sololá	4	Finca Santa Victoria	7	Julio	2023-03-07T00:00:00	2024-11-08T14:00:00	8	Radiación solar	30
116525	7	Sololá	701	Sololá	4	Finca Santa Victoria	7	Julio	2023-03-07T00:00:00	2024-11-08T15:00:00	2	Temperatura media	15.5
116526	7	Sololá	701	Sololá	4	Finca Santa Victoria	7	Julio	2023-03-07T00:00:00	2024-11-08T15:00:00	4	Temperatura máxima	15.6
116527	7	Sololá	701	Sololá	4	Finca Santa Victoria	7	Julio	2023-03-07T00:00:00	2024-11-08T15:00:00	3	Temperatura mínima	15.3
116528	7	Sololá	701	Sololá	4	Finca Santa Victoria	7	Julio	2023-03-07T00:00:00	2024-11-08T15:00:00	5	Humedad	98
116529	7	Sololá	701	Sololá	4	Finca Santa Victoria	7	Julio	2023-03-07T00:00:00	2024-11-08T15:00:00	6	Velocidad del viento	0
116530	7	Sololá	701	Sololá	4	Finca Santa Victoria	7	Julio	2023-03-07T00:00:00	2024-11-08T15:00:00	7	Dirección del viento	0
116531	7	Sololá	701	Sololá	4	Finca Santa Victoria	7	Julio	2023-03-07T00:00:00	2024-11-08T15:00:00	1	Precipitación	15.6
116532	7	Sololá	701	Sololá	4	Finca Santa Victoria	7	Julio	2023-03-07T00:00:00	2024-11-08T15:00:00	8	Radiación solar	41
116533	7	Sololá	701	Sololá	4	Finca Santa Victoria	7	Julio	2023-03-07T00:00:00	2024-11-08T16:00:00	2	Temperatura media	16.6
116534	7	Sololá	701	Sololá	4	Finca Santa Victoria	7	Julio	2023-03-07T00:00:00	2024-11-08T16:00:00	4	Temperatura máxima	16.6
116535	7	Sololá	701	Sololá	4	Finca Santa Victoria	7	Julio	2023-03-07T00:00:00	2024-11-08T16:00:00	3	Temperatura mínima	15.4
116536	7	Sololá	701	Sololá	4	Finca Santa Victoria	7	Julio	2023-03-07T00:00:00	2024-11-08T16:00:00	5	Humedad	96
116537	7	Sololá	701	Sololá	4	Finca Santa Victoria	7	Julio	2023-03-07T00:00:00	2024-11-08T16:00:00	6	Velocidad del viento	1.6
116538	7	Sololá	701	Sololá	4	Finca Santa Victoria	7	Julio	2023-03-07T00:00:00	2024-11-08T16:00:00	7	Dirección del viento	1.61
116539	7	Sololá	701	Sololá	4	Finca Santa Victoria	7	Julio	2023-03-07T00:00:00	2024-11-08T16:00:00	1	Precipitación	0
116540	7	Sololá	701	Sololá	4	Finca Santa Victoria	7	Julio	2023-03-07T00:00:00	2024-11-08T16:00:00	8	Radiación solar	164
116541	7	Sololá	701	Sololá	4	Finca Santa Victoria	7	Julio	2023-03-07T00:00:00	2024-11-08T17:00:00	2	Temperatura media	15.7
116542	7	Sololá	701	Sololá	4	Finca Santa Victoria	7	Julio	2023-03-07T00:00:00	2024-11-08T17:00:00	4	Temperatura máxima	16.8
116543	7	Sololá	701	Sololá	4	Finca Santa Victoria	7	Julio	2023-03-07T00:00:00	2024-11-08T17:00:00	3	Temperatura mínima	15.6
116544	7	Sololá	701	Sololá	4	Finca Santa Victoria	7	Julio	2023-03-07T00:00:00	2024-11-08T17:00:00	5	Humedad	98
116545	7	Sololá	701	Sololá	4	Finca Santa Victoria	7	Julio	2023-03-07T00:00:00	2024-11-08T17:00:00	6	Velocidad del viento	1.6
116546	7	Sololá	701	Sololá	4	Finca Santa Victoria	7	Julio	2023-03-07T00:00:00	2024-11-08T17:00:00	7	Dirección del viento	1.61
116547	7	Sololá	701	Sololá	4	Finca Santa Victoria	7	Julio	2023-03-07T00:00:00	2024-11-08T17:00:00	1	Precipitación	13.6
116548	7	Sololá	701	Sololá	4	Finca Santa Victoria	7	Julio	2023-03-07T00:00:00	2024-11-08T17:00:00	8	Radiación solar	78
116549	7	Sololá	701	Sololá	4	Finca Santa Victoria	7	Julio	2023-03-07T00:00:00	2024-11-08T18:00:00	2	Temperatura media	15.4
116550	7	Sololá	701	Sololá	4	Finca Santa Victoria	7	Julio	2023-03-07T00:00:00	2024-11-08T18:00:00	4	Temperatura máxima	15.6
116551	7	Sololá	701	Sololá	4	Finca Santa Victoria	7	Julio	2023-03-07T00:00:00	2024-11-08T18:00:00	3	Temperatura mínima	15.4
116552	7	Sololá	701	Sololá	4	Finca Santa Victoria	7	Julio	2023-03-07T00:00:00	2024-11-08T18:00:00	5	Humedad	98
116553	7	Sololá	701	Sololá	4	Finca Santa Victoria	7	Julio	2023-03-07T00:00:00	2024-11-08T18:00:00	6	Velocidad del viento	0
116554	7	Sololá	701	Sololá	4	Finca Santa Victoria	7	Julio	2023-03-07T00:00:00	2024-11-08T18:00:00	7	Dirección del viento	0
116555	7	Sololá	701	Sololá	4	Finca Santa Victoria	7	Julio	2023-03-07T00:00:00	2024-11-08T18:00:00	1	Precipitación	0.4
116556	7	Sololá	701	Sololá	4	Finca Santa Victoria	7	Julio	2023-03-07T00:00:00	2024-11-08T18:00:00	8	Radiación solar	6
116557	7	Sololá	701	Sololá	4	Finca Santa Victoria	7	Julio	2023-03-07T00:00:00	2024-11-08T19:00:00	2	Temperatura media	15.1
116558	7	Sololá	701	Sololá	4	Finca Santa Victoria	7	Julio	2023-03-07T00:00:00	2024-11-08T19:00:00	4	Temperatura máxima	15.4
116559	7	Sololá	701	Sololá	4	Finca Santa Victoria	7	Julio	2023-03-07T00:00:00	2024-11-08T19:00:00	3	Temperatura mínima	15.1
116560	7	Sololá	701	Sololá	4	Finca Santa Victoria	7	Julio	2023-03-07T00:00:00	2024-11-08T19:00:00	5	Humedad	98
116561	7	Sololá	701	Sololá	4	Finca Santa Victoria	7	Julio	2023-03-07T00:00:00	2024-11-08T19:00:00	6	Velocidad del viento	0
116562	7	Sololá	701	Sololá	4	Finca Santa Victoria	7	Julio	2023-03-07T00:00:00	2024-11-08T19:00:00	7	Dirección del viento	0
116563	7	Sololá	701	Sololá	4	Finca Santa Victoria	7	Julio	2023-03-07T00:00:00	2024-11-08T19:00:00	1	Precipitación	1.6
116564	7	Sololá	701	Sololá	4	Finca Santa Victoria	7	Julio	2023-03-07T00:00:00	2024-11-08T19:00:00	8	Radiación solar	0
116565	7	Sololá	701	Sololá	4	Finca Santa Victoria	7	Julio	2023-03-07T00:00:00	2024-11-08T20:00:00	2	Temperatura media	14.6
116566	7	Sololá	701	Sololá	4	Finca Santa Victoria	7	Julio	2023-03-07T00:00:00	2024-11-08T20:00:00	4	Temperatura máxima	15.1
116567	7	Sololá	701	Sololá	4	Finca Santa Victoria	7	Julio	2023-03-07T00:00:00	2024-11-08T20:00:00	3	Temperatura mínima	14.6
116568	7	Sololá	701	Sololá	4	Finca Santa Victoria	7	Julio	2023-03-07T00:00:00	2024-11-08T20:00:00	5	Humedad	98
116569	7	Sololá	701	Sololá	4	Finca Santa Victoria	7	Julio	2023-03-07T00:00:00	2024-11-08T20:00:00	6	Velocidad del viento	1.6
116570	7	Sololá	701	Sololá	4	Finca Santa Victoria	7	Julio	2023-03-07T00:00:00	2024-11-08T20:00:00	7	Dirección del viento	1.61
116571	7	Sololá	701	Sololá	4	Finca Santa Victoria	7	Julio	2023-03-07T00:00:00	2024-11-08T20:00:00	1	Precipitación	12
116572	7	Sololá	701	Sololá	4	Finca Santa Victoria	7	Julio	2023-03-07T00:00:00	2024-11-08T20:00:00	8	Radiación solar	0
116573	7	Sololá	701	Sololá	4	Finca Santa Victoria	7	Julio	2023-03-07T00:00:00	2024-11-08T21:00:00	2	Temperatura media	14.1
116574	7	Sololá	701	Sololá	4	Finca Santa Victoria	7	Julio	2023-03-07T00:00:00	2024-11-08T21:00:00	4	Temperatura máxima	14.6
116575	7	Sololá	701	Sololá	4	Finca Santa Victoria	7	Julio	2023-03-07T00:00:00	2024-11-08T21:00:00	3	Temperatura mínima	14.1
116576	7	Sololá	701	Sololá	4	Finca Santa Victoria	7	Julio	2023-03-07T00:00:00	2024-11-08T21:00:00	5	Humedad	98
116577	7	Sololá	701	Sololá	4	Finca Santa Victoria	7	Julio	2023-03-07T00:00:00	2024-11-08T21:00:00	6	Velocidad del viento	0
116578	7	Sololá	701	Sololá	4	Finca Santa Victoria	7	Julio	2023-03-07T00:00:00	2024-11-08T21:00:00	7	Dirección del viento	0
116579	7	Sololá	701	Sololá	4	Finca Santa Victoria	7	Julio	2023-03-07T00:00:00	2024-11-08T21:00:00	1	Precipitación	3.6
116580	7	Sololá	701	Sololá	4	Finca Santa Victoria	7	Julio	2023-03-07T00:00:00	2024-11-08T21:00:00	8	Radiación solar	0
116581	7	Sololá	701	Sololá	4	Finca Santa Victoria	7	Julio	2023-03-07T00:00:00	2024-11-08T22:00:00	2	Temperatura media	13.9
116582	7	Sololá	701	Sololá	4	Finca Santa Victoria	7	Julio	2023-03-07T00:00:00	2024-11-08T22:00:00	4	Temperatura máxima	14.2
116583	7	Sololá	701	Sololá	4	Finca Santa Victoria	7	Julio	2023-03-07T00:00:00	2024-11-08T22:00:00	3	Temperatura mínima	13.8
116584	7	Sololá	701	Sololá	4	Finca Santa Victoria	7	Julio	2023-03-07T00:00:00	2024-11-08T22:00:00	5	Humedad	98
116585	7	Sololá	701	Sololá	4	Finca Santa Victoria	7	Julio	2023-03-07T00:00:00	2024-11-08T22:00:00	6	Velocidad del viento	0
116586	7	Sololá	701	Sololá	4	Finca Santa Victoria	7	Julio	2023-03-07T00:00:00	2024-11-08T22:00:00	7	Dirección del viento	0
116587	7	Sololá	701	Sololá	4	Finca Santa Victoria	7	Julio	2023-03-07T00:00:00	2024-11-08T22:00:00	1	Precipitación	5.6
116588	7	Sololá	701	Sololá	4	Finca Santa Victoria	7	Julio	2023-03-07T00:00:00	2024-11-08T22:00:00	8	Radiación solar	0
116589	7	Sololá	701	Sololá	4	Finca Santa Victoria	7	Julio	2023-03-07T00:00:00	2024-11-08T23:00:00	2	Temperatura media	13.9
116590	7	Sololá	701	Sololá	4	Finca Santa Victoria	7	Julio	2023-03-07T00:00:00	2024-11-08T23:00:00	4	Temperatura máxima	14
116591	7	Sololá	701	Sololá	4	Finca Santa Victoria	7	Julio	2023-03-07T00:00:00	2024-11-08T23:00:00	3	Temperatura mínima	13.9
116592	7	Sololá	701	Sololá	4	Finca Santa Victoria	7	Julio	2023-03-07T00:00:00	2024-11-08T23:00:00	5	Humedad	99
116593	7	Sololá	701	Sololá	4	Finca Santa Victoria	7	Julio	2023-03-07T00:00:00	2024-11-08T23:00:00	6	Velocidad del viento	0
116594	7	Sololá	701	Sololá	4	Finca Santa Victoria	7	Julio	2023-03-07T00:00:00	2024-11-08T23:00:00	7	Dirección del viento	0
116595	7	Sololá	701	Sololá	4	Finca Santa Victoria	7	Julio	2023-03-07T00:00:00	2024-11-08T23:00:00	1	Precipitación	2
116596	7	Sololá	701	Sololá	4	Finca Santa Victoria	7	Julio	2023-03-07T00:00:00	2024-11-08T23:00:00	8	Radiación solar	0
116597	7	Sololá	701	Sololá	4	Finca Santa Victoria	7	Julio	2023-04-07T00:00:00	2024-11-08T00:00:00	2	Temperatura media	13.7
116598	7	Sololá	701	Sololá	4	Finca Santa Victoria	7	Julio	2023-04-07T00:00:00	2024-11-08T00:00:00	4	Temperatura máxima	13.9
116599	7	Sololá	701	Sololá	4	Finca Santa Victoria	7	Julio	2023-04-07T00:00:00	2024-11-08T00:00:00	3	Temperatura mínima	13.7
116600	7	Sololá	701	Sololá	4	Finca Santa Victoria	7	Julio	2023-04-07T00:00:00	2024-11-08T00:00:00	5	Humedad	99
116601	7	Sololá	701	Sololá	4	Finca Santa Victoria	7	Julio	2023-04-07T00:00:00	2024-11-08T00:00:00	6	Velocidad del viento	0
116602	7	Sololá	701	Sololá	4	Finca Santa Victoria	7	Julio	2023-04-07T00:00:00	2024-11-08T00:00:00	7	Dirección del viento	0
116603	7	Sololá	701	Sololá	4	Finca Santa Victoria	7	Julio	2023-04-07T00:00:00	2024-11-08T00:00:00	1	Precipitación	0.2
116604	7	Sololá	701	Sololá	4	Finca Santa Victoria	7	Julio	2023-04-07T00:00:00	2024-11-08T00:00:00	8	Radiación solar	0
116605	7	Sololá	701	Sololá	4	Finca Santa Victoria	7	Julio	2023-04-07T00:00:00	2024-11-08T01:00:00	2	Temperatura media	13.8
116606	7	Sololá	701	Sololá	4	Finca Santa Victoria	7	Julio	2023-04-07T00:00:00	2024-11-08T01:00:00	4	Temperatura máxima	13.9
116607	7	Sololá	701	Sololá	4	Finca Santa Victoria	7	Julio	2023-04-07T00:00:00	2024-11-08T01:00:00	3	Temperatura mínima	13.7
116608	7	Sololá	701	Sololá	4	Finca Santa Victoria	7	Julio	2023-04-07T00:00:00	2024-11-08T01:00:00	5	Humedad	99
116609	7	Sololá	701	Sololá	4	Finca Santa Victoria	7	Julio	2023-04-07T00:00:00	2024-11-08T01:00:00	6	Velocidad del viento	0
116610	7	Sololá	701	Sololá	4	Finca Santa Victoria	7	Julio	2023-04-07T00:00:00	2024-11-08T01:00:00	7	Dirección del viento	0
116611	7	Sololá	701	Sololá	4	Finca Santa Victoria	7	Julio	2023-04-07T00:00:00	2024-11-08T01:00:00	1	Precipitación	0
116612	7	Sololá	701	Sololá	4	Finca Santa Victoria	7	Julio	2023-04-07T00:00:00	2024-11-08T01:00:00	8	Radiación solar	0
116613	7	Sololá	701	Sololá	4	Finca Santa Victoria	7	Julio	2023-04-07T00:00:00	2024-11-08T02:00:00	2	Temperatura media	13.7
116614	7	Sololá	701	Sololá	4	Finca Santa Victoria	7	Julio	2023-04-07T00:00:00	2024-11-08T02:00:00	4	Temperatura máxima	13.8
116615	7	Sololá	701	Sololá	4	Finca Santa Victoria	7	Julio	2023-04-07T00:00:00	2024-11-08T02:00:00	3	Temperatura mínima	13.6
116616	7	Sololá	701	Sololá	4	Finca Santa Victoria	7	Julio	2023-04-07T00:00:00	2024-11-08T02:00:00	5	Humedad	98
116617	7	Sololá	701	Sololá	4	Finca Santa Victoria	7	Julio	2023-04-07T00:00:00	2024-11-08T02:00:00	6	Velocidad del viento	0
116618	7	Sololá	701	Sololá	4	Finca Santa Victoria	7	Julio	2023-04-07T00:00:00	2024-11-08T02:00:00	7	Dirección del viento	0
116619	7	Sololá	701	Sololá	4	Finca Santa Victoria	7	Julio	2023-04-07T00:00:00	2024-11-08T02:00:00	1	Precipitación	0
116620	7	Sololá	701	Sololá	4	Finca Santa Victoria	7	Julio	2023-04-07T00:00:00	2024-11-08T02:00:00	8	Radiación solar	0
116621	7	Sololá	701	Sololá	4	Finca Santa Victoria	7	Julio	2023-04-07T00:00:00	2024-11-08T03:00:00	2	Temperatura media	13.6
116622	7	Sololá	701	Sololá	4	Finca Santa Victoria	7	Julio	2023-04-07T00:00:00	2024-11-08T03:00:00	4	Temperatura máxima	13.7
116623	7	Sololá	701	Sololá	4	Finca Santa Victoria	7	Julio	2023-04-07T00:00:00	2024-11-08T03:00:00	3	Temperatura mínima	13.6
116624	7	Sololá	701	Sololá	4	Finca Santa Victoria	7	Julio	2023-04-07T00:00:00	2024-11-08T03:00:00	5	Humedad	99
116625	7	Sololá	701	Sololá	4	Finca Santa Victoria	7	Julio	2023-04-07T00:00:00	2024-11-08T03:00:00	6	Velocidad del viento	0
116626	7	Sololá	701	Sololá	4	Finca Santa Victoria	7	Julio	2023-04-07T00:00:00	2024-11-08T03:00:00	7	Dirección del viento	0
116627	7	Sololá	701	Sololá	4	Finca Santa Victoria	7	Julio	2023-04-07T00:00:00	2024-11-08T03:00:00	1	Precipitación	0
116628	7	Sololá	701	Sololá	4	Finca Santa Victoria	7	Julio	2023-04-07T00:00:00	2024-11-08T03:00:00	8	Radiación solar	0
116629	7	Sololá	701	Sololá	4	Finca Santa Victoria	7	Julio	2023-04-07T00:00:00	2024-11-08T04:00:00	2	Temperatura media	13.3
116630	7	Sololá	701	Sololá	4	Finca Santa Victoria	7	Julio	2023-04-07T00:00:00	2024-11-08T04:00:00	4	Temperatura máxima	13.6
116631	7	Sololá	701	Sololá	4	Finca Santa Victoria	7	Julio	2023-04-07T00:00:00	2024-11-08T04:00:00	3	Temperatura mínima	13.3
116632	7	Sololá	701	Sololá	4	Finca Santa Victoria	7	Julio	2023-04-07T00:00:00	2024-11-08T04:00:00	5	Humedad	98
116633	7	Sololá	701	Sololá	4	Finca Santa Victoria	7	Julio	2023-04-07T00:00:00	2024-11-08T04:00:00	6	Velocidad del viento	0
116634	7	Sololá	701	Sololá	4	Finca Santa Victoria	7	Julio	2023-04-07T00:00:00	2024-11-08T04:00:00	7	Dirección del viento	0
116635	7	Sololá	701	Sololá	4	Finca Santa Victoria	7	Julio	2023-04-07T00:00:00	2024-11-08T04:00:00	1	Precipitación	0
116636	7	Sololá	701	Sololá	4	Finca Santa Victoria	7	Julio	2023-04-07T00:00:00	2024-11-08T04:00:00	8	Radiación solar	0
116637	7	Sololá	701	Sololá	4	Finca Santa Victoria	7	Julio	2023-04-07T00:00:00	2024-11-08T05:00:00	2	Temperatura media	13.2
116638	7	Sololá	701	Sololá	4	Finca Santa Victoria	7	Julio	2023-04-07T00:00:00	2024-11-08T05:00:00	4	Temperatura máxima	13.4
116639	7	Sololá	701	Sololá	4	Finca Santa Victoria	7	Julio	2023-04-07T00:00:00	2024-11-08T05:00:00	3	Temperatura mínima	13.2
116640	7	Sololá	701	Sololá	4	Finca Santa Victoria	7	Julio	2023-04-07T00:00:00	2024-11-08T05:00:00	5	Humedad	98
116641	7	Sololá	701	Sololá	4	Finca Santa Victoria	7	Julio	2023-04-07T00:00:00	2024-11-08T05:00:00	6	Velocidad del viento	0
116642	7	Sololá	701	Sololá	4	Finca Santa Victoria	7	Julio	2023-04-07T00:00:00	2024-11-08T05:00:00	7	Dirección del viento	0
116643	7	Sololá	701	Sololá	4	Finca Santa Victoria	7	Julio	2023-04-07T00:00:00	2024-11-08T05:00:00	1	Precipitación	0
116644	7	Sololá	701	Sololá	4	Finca Santa Victoria	7	Julio	2023-04-07T00:00:00	2024-11-08T05:00:00	8	Radiación solar	0
116645	7	Sololá	701	Sololá	4	Finca Santa Victoria	7	Julio	2023-04-07T00:00:00	2024-11-08T06:00:00	2	Temperatura media	13.1
116646	7	Sololá	701	Sololá	4	Finca Santa Victoria	7	Julio	2023-04-07T00:00:00	2024-11-08T06:00:00	4	Temperatura máxima	13.2
116647	7	Sololá	701	Sololá	4	Finca Santa Victoria	7	Julio	2023-04-07T00:00:00	2024-11-08T06:00:00	3	Temperatura mínima	13.1
116648	7	Sololá	701	Sololá	4	Finca Santa Victoria	7	Julio	2023-04-07T00:00:00	2024-11-08T06:00:00	5	Humedad	99
116649	7	Sololá	701	Sololá	4	Finca Santa Victoria	7	Julio	2023-04-07T00:00:00	2024-11-08T06:00:00	6	Velocidad del viento	0
116650	7	Sololá	701	Sololá	4	Finca Santa Victoria	7	Julio	2023-04-07T00:00:00	2024-11-08T06:00:00	7	Dirección del viento	0
116651	7	Sololá	701	Sololá	4	Finca Santa Victoria	7	Julio	2023-04-07T00:00:00	2024-11-08T06:00:00	1	Precipitación	0
116652	7	Sololá	701	Sololá	4	Finca Santa Victoria	7	Julio	2023-04-07T00:00:00	2024-11-08T06:00:00	8	Radiación solar	1
116653	7	Sololá	701	Sololá	4	Finca Santa Victoria	7	Julio	2023-04-07T00:00:00	2024-11-08T07:00:00	2	Temperatura media	13.7
116654	7	Sololá	701	Sololá	4	Finca Santa Victoria	7	Julio	2023-04-07T00:00:00	2024-11-08T07:00:00	4	Temperatura máxima	13.7
116655	7	Sololá	701	Sololá	4	Finca Santa Victoria	7	Julio	2023-04-07T00:00:00	2024-11-08T07:00:00	3	Temperatura mínima	13.1
116656	7	Sololá	701	Sololá	4	Finca Santa Victoria	7	Julio	2023-04-07T00:00:00	2024-11-08T07:00:00	5	Humedad	98
116657	7	Sololá	701	Sololá	4	Finca Santa Victoria	7	Julio	2023-04-07T00:00:00	2024-11-08T07:00:00	6	Velocidad del viento	0
116658	7	Sololá	701	Sololá	4	Finca Santa Victoria	7	Julio	2023-04-07T00:00:00	2024-11-08T07:00:00	7	Dirección del viento	0
116659	7	Sololá	701	Sololá	4	Finca Santa Victoria	7	Julio	2023-04-07T00:00:00	2024-11-08T07:00:00	1	Precipitación	0
116660	7	Sololá	701	Sololá	4	Finca Santa Victoria	7	Julio	2023-04-07T00:00:00	2024-11-08T07:00:00	8	Radiación solar	37
116661	7	Sololá	701	Sololá	4	Finca Santa Victoria	7	Julio	2023-04-07T00:00:00	2024-11-08T08:00:00	2	Temperatura media	14.3
116662	7	Sololá	701	Sololá	4	Finca Santa Victoria	7	Julio	2023-04-07T00:00:00	2024-11-08T08:00:00	4	Temperatura máxima	14.3
116663	7	Sololá	701	Sololá	4	Finca Santa Victoria	7	Julio	2023-04-07T00:00:00	2024-11-08T08:00:00	3	Temperatura mínima	13.7
116664	7	Sololá	701	Sololá	4	Finca Santa Victoria	7	Julio	2023-04-07T00:00:00	2024-11-08T08:00:00	5	Humedad	98
116665	7	Sololá	701	Sololá	4	Finca Santa Victoria	7	Julio	2023-04-07T00:00:00	2024-11-08T08:00:00	6	Velocidad del viento	0
116666	7	Sololá	701	Sololá	4	Finca Santa Victoria	7	Julio	2023-04-07T00:00:00	2024-11-08T08:00:00	7	Dirección del viento	0
116667	7	Sololá	701	Sololá	4	Finca Santa Victoria	7	Julio	2023-04-07T00:00:00	2024-11-08T08:00:00	1	Precipitación	0
116668	7	Sololá	701	Sololá	4	Finca Santa Victoria	7	Julio	2023-04-07T00:00:00	2024-11-08T08:00:00	8	Radiación solar	70
116669	7	Sololá	701	Sololá	4	Finca Santa Victoria	7	Julio	2023-04-07T00:00:00	2024-11-08T09:00:00	2	Temperatura media	14.7
116670	7	Sololá	701	Sololá	4	Finca Santa Victoria	7	Julio	2023-04-07T00:00:00	2024-11-08T09:00:00	4	Temperatura máxima	14.9
116671	7	Sololá	701	Sololá	4	Finca Santa Victoria	7	Julio	2023-04-07T00:00:00	2024-11-08T09:00:00	3	Temperatura mínima	14.3
116672	7	Sololá	701	Sololá	4	Finca Santa Victoria	7	Julio	2023-04-07T00:00:00	2024-11-08T09:00:00	5	Humedad	97
116673	7	Sololá	701	Sololá	4	Finca Santa Victoria	7	Julio	2023-04-07T00:00:00	2024-11-08T09:00:00	6	Velocidad del viento	0
116674	7	Sololá	701	Sololá	4	Finca Santa Victoria	7	Julio	2023-04-07T00:00:00	2024-11-08T09:00:00	7	Dirección del viento	0
116675	7	Sololá	701	Sololá	4	Finca Santa Victoria	7	Julio	2023-04-07T00:00:00	2024-11-08T09:00:00	1	Precipitación	0
116676	7	Sololá	701	Sololá	4	Finca Santa Victoria	7	Julio	2023-04-07T00:00:00	2024-11-08T09:00:00	8	Radiación solar	128
116677	7	Sololá	701	Sololá	4	Finca Santa Victoria	7	Julio	2023-04-07T00:00:00	2024-11-08T10:00:00	2	Temperatura media	16.4
116678	7	Sololá	701	Sololá	4	Finca Santa Victoria	7	Julio	2023-04-07T00:00:00	2024-11-08T10:00:00	4	Temperatura máxima	16.6
116679	7	Sololá	701	Sololá	4	Finca Santa Victoria	7	Julio	2023-04-07T00:00:00	2024-11-08T10:00:00	3	Temperatura mínima	14.6
116680	7	Sololá	701	Sololá	4	Finca Santa Victoria	7	Julio	2023-04-07T00:00:00	2024-11-08T10:00:00	5	Humedad	92
116681	7	Sololá	701	Sololá	4	Finca Santa Victoria	7	Julio	2023-04-07T00:00:00	2024-11-08T10:00:00	6	Velocidad del viento	1.6
116682	7	Sololá	701	Sololá	4	Finca Santa Victoria	7	Julio	2023-04-07T00:00:00	2024-11-08T10:00:00	7	Dirección del viento	1.61
116683	7	Sololá	701	Sololá	4	Finca Santa Victoria	7	Julio	2023-04-07T00:00:00	2024-11-08T10:00:00	1	Precipitación	0
116684	7	Sololá	701	Sololá	4	Finca Santa Victoria	7	Julio	2023-04-07T00:00:00	2024-11-08T10:00:00	8	Radiación solar	239
116685	7	Sololá	701	Sololá	4	Finca Santa Victoria	7	Julio	2023-04-07T00:00:00	2024-11-08T11:00:00	2	Temperatura media	16.6
116686	7	Sololá	701	Sololá	4	Finca Santa Victoria	7	Julio	2023-04-07T00:00:00	2024-11-08T11:00:00	4	Temperatura máxima	17.3
116687	7	Sololá	701	Sololá	4	Finca Santa Victoria	7	Julio	2023-04-07T00:00:00	2024-11-08T11:00:00	3	Temperatura mínima	16.3
116688	7	Sololá	701	Sololá	4	Finca Santa Victoria	7	Julio	2023-04-07T00:00:00	2024-11-08T11:00:00	5	Humedad	89
116689	7	Sololá	701	Sololá	4	Finca Santa Victoria	7	Julio	2023-04-07T00:00:00	2024-11-08T11:00:00	6	Velocidad del viento	3.2
116690	7	Sololá	701	Sololá	4	Finca Santa Victoria	7	Julio	2023-04-07T00:00:00	2024-11-08T11:00:00	7	Dirección del viento	3.22
116691	7	Sololá	701	Sololá	4	Finca Santa Victoria	7	Julio	2023-04-07T00:00:00	2024-11-08T11:00:00	1	Precipitación	0
116692	7	Sololá	701	Sololá	4	Finca Santa Victoria	7	Julio	2023-04-07T00:00:00	2024-11-08T11:00:00	8	Radiación solar	267
116693	7	Sololá	701	Sololá	4	Finca Santa Victoria	7	Julio	2023-04-07T00:00:00	2024-11-08T12:00:00	2	Temperatura media	16.3
116694	7	Sololá	701	Sololá	4	Finca Santa Victoria	7	Julio	2023-04-07T00:00:00	2024-11-08T12:00:00	4	Temperatura máxima	16.6
116695	7	Sololá	701	Sololá	4	Finca Santa Victoria	7	Julio	2023-04-07T00:00:00	2024-11-08T12:00:00	3	Temperatura mínima	15.9
116696	7	Sololá	701	Sololá	4	Finca Santa Victoria	7	Julio	2023-04-07T00:00:00	2024-11-08T12:00:00	5	Humedad	92
116697	7	Sololá	701	Sololá	4	Finca Santa Victoria	7	Julio	2023-04-07T00:00:00	2024-11-08T12:00:00	6	Velocidad del viento	1.6
116698	7	Sololá	701	Sololá	4	Finca Santa Victoria	7	Julio	2023-04-07T00:00:00	2024-11-08T12:00:00	7	Dirección del viento	1.61
116699	7	Sololá	701	Sololá	4	Finca Santa Victoria	7	Julio	2023-04-07T00:00:00	2024-11-08T12:00:00	1	Precipitación	0
116700	7	Sololá	701	Sololá	4	Finca Santa Victoria	7	Julio	2023-04-07T00:00:00	2024-11-08T12:00:00	8	Radiación solar	178
116701	7	Sololá	701	Sololá	4	Finca Santa Victoria	7	Julio	2023-04-07T00:00:00	2024-11-08T13:00:00	2	Temperatura media	17.1
116702	7	Sololá	701	Sololá	4	Finca Santa Victoria	7	Julio	2023-04-07T00:00:00	2024-11-08T13:00:00	4	Temperatura máxima	17.4
116703	7	Sololá	701	Sololá	4	Finca Santa Victoria	7	Julio	2023-04-07T00:00:00	2024-11-08T13:00:00	3	Temperatura mínima	16.3
116704	7	Sololá	701	Sololá	4	Finca Santa Victoria	7	Julio	2023-04-07T00:00:00	2024-11-08T13:00:00	5	Humedad	88
116705	7	Sololá	701	Sololá	4	Finca Santa Victoria	7	Julio	2023-04-07T00:00:00	2024-11-08T13:00:00	6	Velocidad del viento	1.6
116706	7	Sololá	701	Sololá	4	Finca Santa Victoria	7	Julio	2023-04-07T00:00:00	2024-11-08T13:00:00	7	Dirección del viento	1.61
116707	7	Sololá	701	Sololá	4	Finca Santa Victoria	7	Julio	2023-04-07T00:00:00	2024-11-08T13:00:00	1	Precipitación	0
116708	7	Sololá	701	Sololá	4	Finca Santa Victoria	7	Julio	2023-04-07T00:00:00	2024-11-08T13:00:00	8	Radiación solar	214
116709	7	Sololá	701	Sololá	4	Finca Santa Victoria	7	Julio	2023-04-07T00:00:00	2024-11-08T14:00:00	2	Temperatura media	17
116710	7	Sololá	701	Sololá	4	Finca Santa Victoria	7	Julio	2023-04-07T00:00:00	2024-11-08T14:00:00	4	Temperatura máxima	17.5
116711	7	Sololá	701	Sololá	4	Finca Santa Victoria	7	Julio	2023-04-07T00:00:00	2024-11-08T14:00:00	3	Temperatura mínima	16.7
116712	7	Sololá	701	Sololá	4	Finca Santa Victoria	7	Julio	2023-04-07T00:00:00	2024-11-08T14:00:00	5	Humedad	94
116713	7	Sololá	701	Sololá	4	Finca Santa Victoria	7	Julio	2023-04-07T00:00:00	2024-11-08T14:00:00	6	Velocidad del viento	1.6
116714	7	Sololá	701	Sololá	4	Finca Santa Victoria	7	Julio	2023-04-07T00:00:00	2024-11-08T14:00:00	7	Dirección del viento	1.61
116715	7	Sololá	701	Sololá	4	Finca Santa Victoria	7	Julio	2023-04-07T00:00:00	2024-11-08T14:00:00	1	Precipitación	0
116716	7	Sololá	701	Sololá	4	Finca Santa Victoria	7	Julio	2023-04-07T00:00:00	2024-11-08T14:00:00	8	Radiación solar	175
116717	7	Sololá	701	Sololá	4	Finca Santa Victoria	7	Julio	2023-04-07T00:00:00	2024-11-08T15:00:00	2	Temperatura media	15.4
116718	7	Sololá	701	Sololá	4	Finca Santa Victoria	7	Julio	2023-04-07T00:00:00	2024-11-08T15:00:00	4	Temperatura máxima	17.1
116719	7	Sololá	701	Sololá	4	Finca Santa Victoria	7	Julio	2023-04-07T00:00:00	2024-11-08T15:00:00	3	Temperatura mínima	15.4
116720	7	Sololá	701	Sololá	4	Finca Santa Victoria	7	Julio	2023-04-07T00:00:00	2024-11-08T15:00:00	5	Humedad	97
116721	7	Sololá	701	Sololá	4	Finca Santa Victoria	7	Julio	2023-04-07T00:00:00	2024-11-08T15:00:00	6	Velocidad del viento	1.6
116722	7	Sololá	701	Sololá	4	Finca Santa Victoria	7	Julio	2023-04-07T00:00:00	2024-11-08T15:00:00	7	Dirección del viento	1.61
116723	7	Sololá	701	Sololá	4	Finca Santa Victoria	7	Julio	2023-04-07T00:00:00	2024-11-08T15:00:00	1	Precipitación	16.8
116724	7	Sololá	701	Sololá	4	Finca Santa Victoria	7	Julio	2023-04-07T00:00:00	2024-11-08T15:00:00	8	Radiación solar	34
116725	7	Sololá	701	Sololá	4	Finca Santa Victoria	7	Julio	2023-04-07T00:00:00	2024-11-08T16:00:00	2	Temperatura media	15.8
116726	7	Sololá	701	Sololá	4	Finca Santa Victoria	7	Julio	2023-04-07T00:00:00	2024-11-08T16:00:00	4	Temperatura máxima	15.8
116727	7	Sololá	701	Sololá	4	Finca Santa Victoria	7	Julio	2023-04-07T00:00:00	2024-11-08T16:00:00	3	Temperatura mínima	15.4
116728	7	Sololá	701	Sololá	4	Finca Santa Victoria	7	Julio	2023-04-07T00:00:00	2024-11-08T16:00:00	5	Humedad	97
116729	7	Sololá	701	Sololá	4	Finca Santa Victoria	7	Julio	2023-04-07T00:00:00	2024-11-08T16:00:00	6	Velocidad del viento	0
116730	7	Sololá	701	Sololá	4	Finca Santa Victoria	7	Julio	2023-04-07T00:00:00	2024-11-08T16:00:00	7	Dirección del viento	0
116731	7	Sololá	701	Sololá	4	Finca Santa Victoria	7	Julio	2023-04-07T00:00:00	2024-11-08T16:00:00	1	Precipitación	0.4
116732	7	Sololá	701	Sololá	4	Finca Santa Victoria	7	Julio	2023-04-07T00:00:00	2024-11-08T16:00:00	8	Radiación solar	86
116733	7	Sololá	701	Sololá	4	Finca Santa Victoria	7	Julio	2023-04-07T00:00:00	2024-11-08T17:00:00	2	Temperatura media	15.9
116734	7	Sololá	701	Sololá	4	Finca Santa Victoria	7	Julio	2023-04-07T00:00:00	2024-11-08T17:00:00	4	Temperatura máxima	16.1
116735	7	Sololá	701	Sololá	4	Finca Santa Victoria	7	Julio	2023-04-07T00:00:00	2024-11-08T17:00:00	3	Temperatura mínima	15.8
116736	7	Sololá	701	Sololá	4	Finca Santa Victoria	7	Julio	2023-04-07T00:00:00	2024-11-08T17:00:00	5	Humedad	97
116737	7	Sololá	701	Sololá	4	Finca Santa Victoria	7	Julio	2023-04-07T00:00:00	2024-11-08T17:00:00	6	Velocidad del viento	0
116738	7	Sololá	701	Sololá	4	Finca Santa Victoria	7	Julio	2023-04-07T00:00:00	2024-11-08T17:00:00	7	Dirección del viento	0
116739	7	Sololá	701	Sololá	4	Finca Santa Victoria	7	Julio	2023-04-07T00:00:00	2024-11-08T17:00:00	1	Precipitación	0
116740	7	Sololá	701	Sololá	4	Finca Santa Victoria	7	Julio	2023-04-07T00:00:00	2024-11-08T17:00:00	8	Radiación solar	70
116741	7	Sololá	701	Sololá	4	Finca Santa Victoria	7	Julio	2023-04-07T00:00:00	2024-11-08T18:00:00	2	Temperatura media	15.2
116742	7	Sololá	701	Sololá	4	Finca Santa Victoria	7	Julio	2023-04-07T00:00:00	2024-11-08T18:00:00	4	Temperatura máxima	16.1
116743	7	Sololá	701	Sololá	4	Finca Santa Victoria	7	Julio	2023-04-07T00:00:00	2024-11-08T18:00:00	3	Temperatura mínima	15.2
116744	7	Sololá	701	Sololá	4	Finca Santa Victoria	7	Julio	2023-04-07T00:00:00	2024-11-08T18:00:00	5	Humedad	97
116745	7	Sololá	701	Sololá	4	Finca Santa Victoria	7	Julio	2023-04-07T00:00:00	2024-11-08T18:00:00	6	Velocidad del viento	1.6
116746	7	Sololá	701	Sololá	4	Finca Santa Victoria	7	Julio	2023-04-07T00:00:00	2024-11-08T18:00:00	7	Dirección del viento	1.61
116747	7	Sololá	701	Sololá	4	Finca Santa Victoria	7	Julio	2023-04-07T00:00:00	2024-11-08T18:00:00	1	Precipitación	1
116748	7	Sololá	701	Sololá	4	Finca Santa Victoria	7	Julio	2023-04-07T00:00:00	2024-11-08T18:00:00	8	Radiación solar	36
116749	7	Sololá	701	Sololá	4	Finca Santa Victoria	7	Julio	2023-04-07T00:00:00	2024-11-08T19:00:00	2	Temperatura media	14.2
116750	7	Sololá	701	Sololá	4	Finca Santa Victoria	7	Julio	2023-04-07T00:00:00	2024-11-08T19:00:00	4	Temperatura máxima	15.2
116751	7	Sololá	701	Sololá	4	Finca Santa Victoria	7	Julio	2023-04-07T00:00:00	2024-11-08T19:00:00	3	Temperatura mínima	14.2
116752	7	Sololá	701	Sololá	4	Finca Santa Victoria	7	Julio	2023-04-07T00:00:00	2024-11-08T19:00:00	5	Humedad	97
116753	7	Sololá	701	Sololá	4	Finca Santa Victoria	7	Julio	2023-04-07T00:00:00	2024-11-08T19:00:00	6	Velocidad del viento	0
116754	7	Sololá	701	Sololá	4	Finca Santa Victoria	7	Julio	2023-04-07T00:00:00	2024-11-08T19:00:00	7	Dirección del viento	0
116755	7	Sololá	701	Sololá	4	Finca Santa Victoria	7	Julio	2023-04-07T00:00:00	2024-11-08T19:00:00	1	Precipitación	2.6
116756	7	Sololá	701	Sololá	4	Finca Santa Victoria	7	Julio	2023-04-07T00:00:00	2024-11-08T19:00:00	8	Radiación solar	0
116757	7	Sololá	701	Sololá	4	Finca Santa Victoria	7	Julio	2023-04-07T00:00:00	2024-11-08T20:00:00	2	Temperatura media	14.2
116758	7	Sololá	701	Sololá	4	Finca Santa Victoria	7	Julio	2023-04-07T00:00:00	2024-11-08T20:00:00	4	Temperatura máxima	14.2
116759	7	Sololá	701	Sololá	4	Finca Santa Victoria	7	Julio	2023-04-07T00:00:00	2024-11-08T20:00:00	3	Temperatura mínima	14.1
116760	7	Sololá	701	Sololá	4	Finca Santa Victoria	7	Julio	2023-04-07T00:00:00	2024-11-08T20:00:00	5	Humedad	98
116761	7	Sololá	701	Sololá	4	Finca Santa Victoria	7	Julio	2023-04-07T00:00:00	2024-11-08T20:00:00	6	Velocidad del viento	0
116762	7	Sololá	701	Sololá	4	Finca Santa Victoria	7	Julio	2023-04-07T00:00:00	2024-11-08T20:00:00	7	Dirección del viento	0
116763	7	Sololá	701	Sololá	4	Finca Santa Victoria	7	Julio	2023-04-07T00:00:00	2024-11-08T20:00:00	1	Precipitación	1.6
116764	7	Sololá	701	Sololá	4	Finca Santa Victoria	7	Julio	2023-04-07T00:00:00	2024-11-08T20:00:00	8	Radiación solar	0
116765	7	Sololá	701	Sololá	4	Finca Santa Victoria	7	Julio	2023-04-07T00:00:00	2024-11-08T21:00:00	2	Temperatura media	14.3
116766	7	Sololá	701	Sololá	4	Finca Santa Victoria	7	Julio	2023-04-07T00:00:00	2024-11-08T21:00:00	4	Temperatura máxima	14.4
116767	7	Sololá	701	Sololá	4	Finca Santa Victoria	7	Julio	2023-04-07T00:00:00	2024-11-08T21:00:00	3	Temperatura mínima	14.1
116768	7	Sololá	701	Sololá	4	Finca Santa Victoria	7	Julio	2023-04-07T00:00:00	2024-11-08T21:00:00	5	Humedad	99
116769	7	Sololá	701	Sololá	4	Finca Santa Victoria	7	Julio	2023-04-07T00:00:00	2024-11-08T21:00:00	6	Velocidad del viento	0
116770	7	Sololá	701	Sololá	4	Finca Santa Victoria	7	Julio	2023-04-07T00:00:00	2024-11-08T21:00:00	7	Dirección del viento	0
116771	7	Sololá	701	Sololá	4	Finca Santa Victoria	7	Julio	2023-04-07T00:00:00	2024-11-08T21:00:00	1	Precipitación	0.8
116772	7	Sololá	701	Sololá	4	Finca Santa Victoria	7	Julio	2023-04-07T00:00:00	2024-11-08T21:00:00	8	Radiación solar	0
116773	7	Sololá	701	Sololá	4	Finca Santa Victoria	7	Julio	2023-04-07T00:00:00	2024-11-08T22:00:00	2	Temperatura media	14.3
116774	7	Sololá	701	Sololá	4	Finca Santa Victoria	7	Julio	2023-04-07T00:00:00	2024-11-08T22:00:00	4	Temperatura máxima	14.5
116775	7	Sololá	701	Sololá	4	Finca Santa Victoria	7	Julio	2023-04-07T00:00:00	2024-11-08T22:00:00	3	Temperatura mínima	14.3
116776	7	Sololá	701	Sololá	4	Finca Santa Victoria	7	Julio	2023-04-07T00:00:00	2024-11-08T22:00:00	5	Humedad	98
116777	7	Sololá	701	Sololá	4	Finca Santa Victoria	7	Julio	2023-04-07T00:00:00	2024-11-08T22:00:00	6	Velocidad del viento	0
116778	7	Sololá	701	Sololá	4	Finca Santa Victoria	7	Julio	2023-04-07T00:00:00	2024-11-08T22:00:00	7	Dirección del viento	0
116779	7	Sololá	701	Sololá	4	Finca Santa Victoria	7	Julio	2023-04-07T00:00:00	2024-11-08T22:00:00	1	Precipitación	3.8
116780	7	Sololá	701	Sololá	4	Finca Santa Victoria	7	Julio	2023-04-07T00:00:00	2024-11-08T22:00:00	8	Radiación solar	0
116781	7	Sololá	701	Sololá	4	Finca Santa Victoria	7	Julio	2023-04-07T00:00:00	2024-11-08T23:00:00	2	Temperatura media	14.2
116782	7	Sololá	701	Sololá	4	Finca Santa Victoria	7	Julio	2023-04-07T00:00:00	2024-11-08T23:00:00	4	Temperatura máxima	14.3
116783	7	Sololá	701	Sololá	4	Finca Santa Victoria	7	Julio	2023-04-07T00:00:00	2024-11-08T23:00:00	3	Temperatura mínima	14.1
116784	7	Sololá	701	Sololá	4	Finca Santa Victoria	7	Julio	2023-04-07T00:00:00	2024-11-08T23:00:00	5	Humedad	99
116785	7	Sololá	701	Sololá	4	Finca Santa Victoria	7	Julio	2023-04-07T00:00:00	2024-11-08T23:00:00	6	Velocidad del viento	0
116786	7	Sololá	701	Sololá	4	Finca Santa Victoria	7	Julio	2023-04-07T00:00:00	2024-11-08T23:00:00	7	Dirección del viento	0
116787	7	Sololá	701	Sololá	4	Finca Santa Victoria	7	Julio	2023-04-07T00:00:00	2024-11-08T23:00:00	1	Precipitación	2.6
116788	7	Sololá	701	Sololá	4	Finca Santa Victoria	7	Julio	2023-04-07T00:00:00	2024-11-08T23:00:00	8	Radiación solar	0
116789	7	Sololá	701	Sololá	4	Finca Santa Victoria	7	Julio	2023-05-07T00:00:00	2024-11-08T00:00:00	2	Temperatura media	13.9
116790	7	Sololá	701	Sololá	4	Finca Santa Victoria	7	Julio	2023-05-07T00:00:00	2024-11-08T00:00:00	4	Temperatura máxima	14.2
116791	7	Sololá	701	Sololá	4	Finca Santa Victoria	7	Julio	2023-05-07T00:00:00	2024-11-08T00:00:00	3	Temperatura mínima	13.9
116792	7	Sololá	701	Sololá	4	Finca Santa Victoria	7	Julio	2023-05-07T00:00:00	2024-11-08T00:00:00	5	Humedad	98
116793	7	Sololá	701	Sololá	4	Finca Santa Victoria	7	Julio	2023-05-07T00:00:00	2024-11-08T00:00:00	6	Velocidad del viento	0
116794	7	Sololá	701	Sololá	4	Finca Santa Victoria	7	Julio	2023-05-07T00:00:00	2024-11-08T00:00:00	7	Dirección del viento	0
116795	7	Sololá	701	Sololá	4	Finca Santa Victoria	7	Julio	2023-05-07T00:00:00	2024-11-08T00:00:00	1	Precipitación	1
116796	7	Sololá	701	Sololá	4	Finca Santa Victoria	7	Julio	2023-05-07T00:00:00	2024-11-08T00:00:00	8	Radiación solar	0
116797	7	Sololá	701	Sololá	4	Finca Santa Victoria	7	Julio	2023-05-07T00:00:00	2024-11-08T01:00:00	2	Temperatura media	13.8
116798	7	Sololá	701	Sololá	4	Finca Santa Victoria	7	Julio	2023-05-07T00:00:00	2024-11-08T01:00:00	4	Temperatura máxima	13.9
116799	7	Sololá	701	Sololá	4	Finca Santa Victoria	7	Julio	2023-05-07T00:00:00	2024-11-08T01:00:00	3	Temperatura mínima	13.8
116800	7	Sololá	701	Sololá	4	Finca Santa Victoria	7	Julio	2023-05-07T00:00:00	2024-11-08T01:00:00	5	Humedad	99
116801	7	Sololá	701	Sololá	4	Finca Santa Victoria	7	Julio	2023-05-07T00:00:00	2024-11-08T01:00:00	6	Velocidad del viento	0
116802	7	Sololá	701	Sololá	4	Finca Santa Victoria	7	Julio	2023-05-07T00:00:00	2024-11-08T01:00:00	7	Dirección del viento	0
116803	7	Sololá	701	Sololá	4	Finca Santa Victoria	7	Julio	2023-05-07T00:00:00	2024-11-08T01:00:00	1	Precipitación	0.4
116804	7	Sololá	701	Sololá	4	Finca Santa Victoria	7	Julio	2023-05-07T00:00:00	2024-11-08T01:00:00	8	Radiación solar	0
116805	7	Sololá	701	Sololá	4	Finca Santa Victoria	7	Julio	2023-05-07T00:00:00	2024-11-08T02:00:00	2	Temperatura media	13.4
116806	7	Sololá	701	Sololá	4	Finca Santa Victoria	7	Julio	2023-05-07T00:00:00	2024-11-08T02:00:00	4	Temperatura máxima	13.8
116807	7	Sololá	701	Sololá	4	Finca Santa Victoria	7	Julio	2023-05-07T00:00:00	2024-11-08T02:00:00	3	Temperatura mínima	13.4
116808	7	Sololá	701	Sololá	4	Finca Santa Victoria	7	Julio	2023-05-07T00:00:00	2024-11-08T02:00:00	5	Humedad	98
116809	7	Sololá	701	Sololá	4	Finca Santa Victoria	7	Julio	2023-05-07T00:00:00	2024-11-08T02:00:00	6	Velocidad del viento	0
116810	7	Sololá	701	Sololá	4	Finca Santa Victoria	7	Julio	2023-05-07T00:00:00	2024-11-08T02:00:00	7	Dirección del viento	0
116811	7	Sololá	701	Sololá	4	Finca Santa Victoria	7	Julio	2023-05-07T00:00:00	2024-11-08T02:00:00	1	Precipitación	0
116812	7	Sololá	701	Sololá	4	Finca Santa Victoria	7	Julio	2023-05-07T00:00:00	2024-11-08T02:00:00	8	Radiación solar	0
116813	7	Sololá	701	Sololá	4	Finca Santa Victoria	7	Julio	2023-05-07T00:00:00	2024-11-08T03:00:00	2	Temperatura media	13.2
116814	7	Sololá	701	Sololá	4	Finca Santa Victoria	7	Julio	2023-05-07T00:00:00	2024-11-08T03:00:00	4	Temperatura máxima	13.4
116815	7	Sololá	701	Sololá	4	Finca Santa Victoria	7	Julio	2023-05-07T00:00:00	2024-11-08T03:00:00	3	Temperatura mínima	13.2
116816	7	Sololá	701	Sololá	4	Finca Santa Victoria	7	Julio	2023-05-07T00:00:00	2024-11-08T03:00:00	5	Humedad	98
116817	7	Sololá	701	Sololá	4	Finca Santa Victoria	7	Julio	2023-05-07T00:00:00	2024-11-08T03:00:00	6	Velocidad del viento	0
116818	7	Sololá	701	Sololá	4	Finca Santa Victoria	7	Julio	2023-05-07T00:00:00	2024-11-08T03:00:00	7	Dirección del viento	0
116819	7	Sololá	701	Sololá	4	Finca Santa Victoria	7	Julio	2023-05-07T00:00:00	2024-11-08T03:00:00	1	Precipitación	0
116820	7	Sololá	701	Sololá	4	Finca Santa Victoria	7	Julio	2023-05-07T00:00:00	2024-11-08T03:00:00	8	Radiación solar	0
116821	7	Sololá	701	Sololá	4	Finca Santa Victoria	7	Julio	2023-05-07T00:00:00	2024-11-08T04:00:00	2	Temperatura media	13.1
116822	7	Sololá	701	Sololá	4	Finca Santa Victoria	7	Julio	2023-05-07T00:00:00	2024-11-08T04:00:00	4	Temperatura máxima	13.2
116823	7	Sololá	701	Sololá	4	Finca Santa Victoria	7	Julio	2023-05-07T00:00:00	2024-11-08T04:00:00	3	Temperatura mínima	13
116824	7	Sololá	701	Sololá	4	Finca Santa Victoria	7	Julio	2023-05-07T00:00:00	2024-11-08T04:00:00	5	Humedad	98
116825	7	Sololá	701	Sololá	4	Finca Santa Victoria	7	Julio	2023-05-07T00:00:00	2024-11-08T04:00:00	6	Velocidad del viento	0
116826	7	Sololá	701	Sololá	4	Finca Santa Victoria	7	Julio	2023-05-07T00:00:00	2024-11-08T04:00:00	7	Dirección del viento	0
116827	7	Sololá	701	Sololá	4	Finca Santa Victoria	7	Julio	2023-05-07T00:00:00	2024-11-08T04:00:00	1	Precipitación	0
116828	7	Sololá	701	Sololá	4	Finca Santa Victoria	7	Julio	2023-05-07T00:00:00	2024-11-08T04:00:00	8	Radiación solar	0
116829	7	Sololá	701	Sololá	4	Finca Santa Victoria	7	Julio	2023-05-07T00:00:00	2024-11-08T05:00:00	2	Temperatura media	12.7
116830	7	Sololá	701	Sololá	4	Finca Santa Victoria	7	Julio	2023-05-07T00:00:00	2024-11-08T05:00:00	4	Temperatura máxima	13.1
116831	7	Sololá	701	Sololá	4	Finca Santa Victoria	7	Julio	2023-05-07T00:00:00	2024-11-08T05:00:00	3	Temperatura mínima	12.7
116832	7	Sololá	701	Sololá	4	Finca Santa Victoria	7	Julio	2023-05-07T00:00:00	2024-11-08T05:00:00	5	Humedad	99
116833	7	Sololá	701	Sololá	4	Finca Santa Victoria	7	Julio	2023-05-07T00:00:00	2024-11-08T05:00:00	6	Velocidad del viento	0
116834	7	Sololá	701	Sololá	4	Finca Santa Victoria	7	Julio	2023-05-07T00:00:00	2024-11-08T05:00:00	7	Dirección del viento	0
116835	7	Sololá	701	Sololá	4	Finca Santa Victoria	7	Julio	2023-05-07T00:00:00	2024-11-08T05:00:00	1	Precipitación	0
116836	7	Sololá	701	Sololá	4	Finca Santa Victoria	7	Julio	2023-05-07T00:00:00	2024-11-08T05:00:00	8	Radiación solar	0
116837	7	Sololá	701	Sololá	4	Finca Santa Victoria	7	Julio	2023-05-07T00:00:00	2024-11-08T06:00:00	2	Temperatura media	12.6
116838	7	Sololá	701	Sololá	4	Finca Santa Victoria	7	Julio	2023-05-07T00:00:00	2024-11-08T06:00:00	4	Temperatura máxima	12.7
116839	7	Sololá	701	Sololá	4	Finca Santa Victoria	7	Julio	2023-05-07T00:00:00	2024-11-08T06:00:00	3	Temperatura mínima	12.4
116840	7	Sololá	701	Sololá	4	Finca Santa Victoria	7	Julio	2023-05-07T00:00:00	2024-11-08T06:00:00	5	Humedad	98
116841	7	Sololá	701	Sololá	4	Finca Santa Victoria	7	Julio	2023-05-07T00:00:00	2024-11-08T06:00:00	6	Velocidad del viento	0
116842	7	Sololá	701	Sololá	4	Finca Santa Victoria	7	Julio	2023-05-07T00:00:00	2024-11-08T06:00:00	7	Dirección del viento	0
116843	7	Sololá	701	Sololá	4	Finca Santa Victoria	7	Julio	2023-05-07T00:00:00	2024-11-08T06:00:00	1	Precipitación	0
116844	7	Sololá	701	Sololá	4	Finca Santa Victoria	7	Julio	2023-05-07T00:00:00	2024-11-08T06:00:00	8	Radiación solar	0
116845	7	Sololá	701	Sololá	4	Finca Santa Victoria	7	Julio	2023-05-07T00:00:00	2024-11-08T07:00:00	2	Temperatura media	12.8
116846	7	Sololá	701	Sololá	4	Finca Santa Victoria	7	Julio	2023-05-07T00:00:00	2024-11-08T07:00:00	4	Temperatura máxima	12.8
116847	7	Sololá	701	Sololá	4	Finca Santa Victoria	7	Julio	2023-05-07T00:00:00	2024-11-08T07:00:00	3	Temperatura mínima	12.3
116848	7	Sololá	701	Sololá	4	Finca Santa Victoria	7	Julio	2023-05-07T00:00:00	2024-11-08T07:00:00	5	Humedad	99
116849	7	Sololá	701	Sololá	4	Finca Santa Victoria	7	Julio	2023-05-07T00:00:00	2024-11-08T07:00:00	6	Velocidad del viento	0
116850	7	Sololá	701	Sololá	4	Finca Santa Victoria	7	Julio	2023-05-07T00:00:00	2024-11-08T07:00:00	7	Dirección del viento	0
116851	7	Sololá	701	Sololá	4	Finca Santa Victoria	7	Julio	2023-05-07T00:00:00	2024-11-08T07:00:00	1	Precipitación	0
116852	7	Sololá	701	Sololá	4	Finca Santa Victoria	7	Julio	2023-05-07T00:00:00	2024-11-08T07:00:00	8	Radiación solar	19
116853	7	Sololá	701	Sololá	4	Finca Santa Victoria	7	Julio	2023-05-07T00:00:00	2024-11-08T08:00:00	2	Temperatura media	15.4
116854	7	Sololá	701	Sololá	4	Finca Santa Victoria	7	Julio	2023-05-07T00:00:00	2024-11-08T08:00:00	4	Temperatura máxima	15.4
116855	7	Sololá	701	Sololá	4	Finca Santa Victoria	7	Julio	2023-05-07T00:00:00	2024-11-08T08:00:00	3	Temperatura mínima	12.8
116856	7	Sololá	701	Sololá	4	Finca Santa Victoria	7	Julio	2023-05-07T00:00:00	2024-11-08T08:00:00	5	Humedad	92
116857	7	Sololá	701	Sololá	4	Finca Santa Victoria	7	Julio	2023-05-07T00:00:00	2024-11-08T08:00:00	6	Velocidad del viento	1.6
116858	7	Sololá	701	Sololá	4	Finca Santa Victoria	7	Julio	2023-05-07T00:00:00	2024-11-08T08:00:00	7	Dirección del viento	1.61
116859	7	Sololá	701	Sololá	4	Finca Santa Victoria	7	Julio	2023-05-07T00:00:00	2024-11-08T08:00:00	1	Precipitación	0
116860	7	Sololá	701	Sololá	4	Finca Santa Victoria	7	Julio	2023-05-07T00:00:00	2024-11-08T08:00:00	8	Radiación solar	180
116861	7	Sololá	701	Sololá	4	Finca Santa Victoria	7	Julio	2023-05-07T00:00:00	2024-11-08T09:00:00	2	Temperatura media	17.3
116862	7	Sololá	701	Sololá	4	Finca Santa Victoria	7	Julio	2023-05-07T00:00:00	2024-11-08T09:00:00	4	Temperatura máxima	17.3
116863	7	Sololá	701	Sololá	4	Finca Santa Victoria	7	Julio	2023-05-07T00:00:00	2024-11-08T09:00:00	3	Temperatura mínima	15.4
116864	7	Sololá	701	Sololá	4	Finca Santa Victoria	7	Julio	2023-05-07T00:00:00	2024-11-08T09:00:00	5	Humedad	85
116865	7	Sololá	701	Sololá	4	Finca Santa Victoria	7	Julio	2023-05-07T00:00:00	2024-11-08T09:00:00	6	Velocidad del viento	1.6
116866	7	Sololá	701	Sololá	4	Finca Santa Victoria	7	Julio	2023-05-07T00:00:00	2024-11-08T09:00:00	7	Dirección del viento	1.61
116867	7	Sololá	701	Sololá	4	Finca Santa Victoria	7	Julio	2023-05-07T00:00:00	2024-11-08T09:00:00	1	Precipitación	0
116868	7	Sololá	701	Sololá	4	Finca Santa Victoria	7	Julio	2023-05-07T00:00:00	2024-11-08T09:00:00	8	Radiación solar	374
116869	7	Sololá	701	Sololá	4	Finca Santa Victoria	7	Julio	2023-05-07T00:00:00	2024-11-08T10:00:00	2	Temperatura media	18.4
116870	7	Sololá	701	Sololá	4	Finca Santa Victoria	7	Julio	2023-05-07T00:00:00	2024-11-08T10:00:00	4	Temperatura máxima	18.4
116871	7	Sololá	701	Sololá	4	Finca Santa Victoria	7	Julio	2023-05-07T00:00:00	2024-11-08T10:00:00	3	Temperatura mínima	17.3
116872	7	Sololá	701	Sololá	4	Finca Santa Victoria	7	Julio	2023-05-07T00:00:00	2024-11-08T10:00:00	5	Humedad	80
116873	7	Sololá	701	Sololá	4	Finca Santa Victoria	7	Julio	2023-05-07T00:00:00	2024-11-08T10:00:00	6	Velocidad del viento	1.6
116874	7	Sololá	701	Sololá	4	Finca Santa Victoria	7	Julio	2023-05-07T00:00:00	2024-11-08T10:00:00	7	Dirección del viento	1.61
116875	7	Sololá	701	Sololá	4	Finca Santa Victoria	7	Julio	2023-05-07T00:00:00	2024-11-08T10:00:00	1	Precipitación	0
116876	7	Sololá	701	Sololá	4	Finca Santa Victoria	7	Julio	2023-05-07T00:00:00	2024-11-08T10:00:00	8	Radiación solar	236
116877	7	Sololá	701	Sololá	4	Finca Santa Victoria	7	Julio	2023-05-07T00:00:00	2024-11-08T11:00:00	2	Temperatura media	19.5
116878	7	Sololá	701	Sololá	4	Finca Santa Victoria	7	Julio	2023-05-07T00:00:00	2024-11-08T11:00:00	4	Temperatura máxima	19.5
116879	7	Sololá	701	Sololá	4	Finca Santa Victoria	7	Julio	2023-05-07T00:00:00	2024-11-08T11:00:00	3	Temperatura mínima	18.4
116880	7	Sololá	701	Sololá	4	Finca Santa Victoria	7	Julio	2023-05-07T00:00:00	2024-11-08T11:00:00	5	Humedad	77
116881	7	Sololá	701	Sololá	4	Finca Santa Victoria	7	Julio	2023-05-07T00:00:00	2024-11-08T11:00:00	6	Velocidad del viento	3.2
116882	7	Sololá	701	Sololá	4	Finca Santa Victoria	7	Julio	2023-05-07T00:00:00	2024-11-08T11:00:00	7	Dirección del viento	3.22
116883	7	Sololá	701	Sololá	4	Finca Santa Victoria	7	Julio	2023-05-07T00:00:00	2024-11-08T11:00:00	1	Precipitación	0
116884	7	Sololá	701	Sololá	4	Finca Santa Victoria	7	Julio	2023-05-07T00:00:00	2024-11-08T11:00:00	8	Radiación solar	194
116885	7	Sololá	701	Sololá	4	Finca Santa Victoria	7	Julio	2023-05-07T00:00:00	2024-11-08T12:00:00	2	Temperatura media	19.4
116886	7	Sololá	701	Sololá	4	Finca Santa Victoria	7	Julio	2023-05-07T00:00:00	2024-11-08T12:00:00	4	Temperatura máxima	20.7
116887	7	Sololá	701	Sololá	4	Finca Santa Victoria	7	Julio	2023-05-07T00:00:00	2024-11-08T12:00:00	3	Temperatura mínima	19.3
116888	7	Sololá	701	Sololá	4	Finca Santa Victoria	7	Julio	2023-05-07T00:00:00	2024-11-08T12:00:00	5	Humedad	79
116889	7	Sololá	701	Sololá	4	Finca Santa Victoria	7	Julio	2023-05-07T00:00:00	2024-11-08T12:00:00	6	Velocidad del viento	3.2
116890	7	Sololá	701	Sololá	4	Finca Santa Victoria	7	Julio	2023-05-07T00:00:00	2024-11-08T12:00:00	7	Dirección del viento	3.22
116891	7	Sololá	701	Sololá	4	Finca Santa Victoria	7	Julio	2023-05-07T00:00:00	2024-11-08T12:00:00	1	Precipitación	0
116892	7	Sololá	701	Sololá	4	Finca Santa Victoria	7	Julio	2023-05-07T00:00:00	2024-11-08T12:00:00	8	Radiación solar	410
116893	7	Sololá	701	Sololá	4	Finca Santa Victoria	7	Julio	2023-05-07T00:00:00	2024-11-08T13:00:00	2	Temperatura media	18.1
116894	7	Sololá	701	Sololá	4	Finca Santa Victoria	7	Julio	2023-05-07T00:00:00	2024-11-08T13:00:00	4	Temperatura máxima	21
116895	7	Sololá	701	Sololá	4	Finca Santa Victoria	7	Julio	2023-05-07T00:00:00	2024-11-08T13:00:00	3	Temperatura mínima	18.1
116896	7	Sololá	701	Sololá	4	Finca Santa Victoria	7	Julio	2023-05-07T00:00:00	2024-11-08T13:00:00	5	Humedad	90
116897	7	Sololá	701	Sololá	4	Finca Santa Victoria	7	Julio	2023-05-07T00:00:00	2024-11-08T13:00:00	6	Velocidad del viento	1.6
116898	7	Sololá	701	Sololá	4	Finca Santa Victoria	7	Julio	2023-05-07T00:00:00	2024-11-08T13:00:00	7	Dirección del viento	1.61
116899	7	Sololá	701	Sololá	4	Finca Santa Victoria	7	Julio	2023-05-07T00:00:00	2024-11-08T13:00:00	1	Precipitación	0
116900	7	Sololá	701	Sololá	4	Finca Santa Victoria	7	Julio	2023-05-07T00:00:00	2024-11-08T13:00:00	8	Radiación solar	462
116901	7	Sololá	701	Sololá	4	Finca Santa Victoria	7	Julio	2023-05-07T00:00:00	2024-11-08T14:00:00	2	Temperatura media	17.4
116902	7	Sololá	701	Sololá	4	Finca Santa Victoria	7	Julio	2023-05-07T00:00:00	2024-11-08T14:00:00	4	Temperatura máxima	18.1
116903	7	Sololá	701	Sololá	4	Finca Santa Victoria	7	Julio	2023-05-07T00:00:00	2024-11-08T14:00:00	3	Temperatura mínima	17.3
116904	7	Sololá	701	Sololá	4	Finca Santa Victoria	7	Julio	2023-05-07T00:00:00	2024-11-08T14:00:00	5	Humedad	94
116905	7	Sololá	701	Sololá	4	Finca Santa Victoria	7	Julio	2023-05-07T00:00:00	2024-11-08T14:00:00	6	Velocidad del viento	1.6
116906	7	Sololá	701	Sololá	4	Finca Santa Victoria	7	Julio	2023-05-07T00:00:00	2024-11-08T14:00:00	7	Dirección del viento	1.61
116907	7	Sololá	701	Sololá	4	Finca Santa Victoria	7	Julio	2023-05-07T00:00:00	2024-11-08T14:00:00	1	Precipitación	0
116908	7	Sololá	701	Sololá	4	Finca Santa Victoria	7	Julio	2023-05-07T00:00:00	2024-11-08T14:00:00	8	Radiación solar	141
116909	7	Sololá	701	Sololá	4	Finca Santa Victoria	7	Julio	2023-05-07T00:00:00	2024-11-08T15:00:00	2	Temperatura media	17.4
116910	7	Sololá	701	Sololá	4	Finca Santa Victoria	7	Julio	2023-05-07T00:00:00	2024-11-08T15:00:00	4	Temperatura máxima	17.9
116911	7	Sololá	701	Sololá	4	Finca Santa Victoria	7	Julio	2023-05-07T00:00:00	2024-11-08T15:00:00	3	Temperatura mínima	17.1
116912	7	Sololá	701	Sololá	4	Finca Santa Victoria	7	Julio	2023-05-07T00:00:00	2024-11-08T15:00:00	5	Humedad	95
116913	7	Sololá	701	Sololá	4	Finca Santa Victoria	7	Julio	2023-05-07T00:00:00	2024-11-08T15:00:00	6	Velocidad del viento	1.6
116914	7	Sololá	701	Sololá	4	Finca Santa Victoria	7	Julio	2023-05-07T00:00:00	2024-11-08T15:00:00	7	Dirección del viento	1.61
116915	7	Sololá	701	Sololá	4	Finca Santa Victoria	7	Julio	2023-05-07T00:00:00	2024-11-08T15:00:00	1	Precipitación	0.2
116916	7	Sololá	701	Sololá	4	Finca Santa Victoria	7	Julio	2023-05-07T00:00:00	2024-11-08T15:00:00	8	Radiación solar	174
116917	7	Sololá	701	Sololá	4	Finca Santa Victoria	7	Julio	2023-05-07T00:00:00	2024-11-08T16:00:00	2	Temperatura media	18.1
116918	7	Sololá	701	Sololá	4	Finca Santa Victoria	7	Julio	2023-05-07T00:00:00	2024-11-08T16:00:00	4	Temperatura máxima	18.7
116919	7	Sololá	701	Sololá	4	Finca Santa Victoria	7	Julio	2023-05-07T00:00:00	2024-11-08T16:00:00	3	Temperatura mínima	17.1
116920	7	Sololá	701	Sololá	4	Finca Santa Victoria	7	Julio	2023-05-07T00:00:00	2024-11-08T16:00:00	5	Humedad	91
116921	7	Sololá	701	Sololá	4	Finca Santa Victoria	7	Julio	2023-05-07T00:00:00	2024-11-08T16:00:00	6	Velocidad del viento	1.6
116922	7	Sololá	701	Sololá	4	Finca Santa Victoria	7	Julio	2023-05-07T00:00:00	2024-11-08T16:00:00	7	Dirección del viento	1.61
116923	7	Sololá	701	Sololá	4	Finca Santa Victoria	7	Julio	2023-05-07T00:00:00	2024-11-08T16:00:00	1	Precipitación	0
116924	7	Sololá	701	Sololá	4	Finca Santa Victoria	7	Julio	2023-05-07T00:00:00	2024-11-08T16:00:00	8	Radiación solar	162
116925	7	Sololá	701	Sololá	4	Finca Santa Victoria	7	Julio	2023-05-07T00:00:00	2024-11-08T17:00:00	2	Temperatura media	17.1
116926	7	Sololá	701	Sololá	4	Finca Santa Victoria	7	Julio	2023-05-07T00:00:00	2024-11-08T17:00:00	4	Temperatura máxima	18.1
116927	7	Sololá	701	Sololá	4	Finca Santa Victoria	7	Julio	2023-05-07T00:00:00	2024-11-08T17:00:00	3	Temperatura mínima	17
116928	7	Sololá	701	Sololá	4	Finca Santa Victoria	7	Julio	2023-05-07T00:00:00	2024-11-08T17:00:00	5	Humedad	95
116929	7	Sololá	701	Sololá	4	Finca Santa Victoria	7	Julio	2023-05-07T00:00:00	2024-11-08T17:00:00	6	Velocidad del viento	0
116930	7	Sololá	701	Sololá	4	Finca Santa Victoria	7	Julio	2023-05-07T00:00:00	2024-11-08T17:00:00	7	Dirección del viento	0
116931	7	Sololá	701	Sololá	4	Finca Santa Victoria	7	Julio	2023-05-07T00:00:00	2024-11-08T17:00:00	1	Precipitación	0
116932	7	Sololá	701	Sololá	4	Finca Santa Victoria	7	Julio	2023-05-07T00:00:00	2024-11-08T17:00:00	8	Radiación solar	91
116933	7	Sololá	701	Sololá	4	Finca Santa Victoria	7	Julio	2023-05-07T00:00:00	2024-11-08T18:00:00	2	Temperatura media	16.4
116934	7	Sololá	701	Sololá	4	Finca Santa Victoria	7	Julio	2023-05-07T00:00:00	2024-11-08T18:00:00	4	Temperatura máxima	17.2
116935	7	Sololá	701	Sololá	4	Finca Santa Victoria	7	Julio	2023-05-07T00:00:00	2024-11-08T18:00:00	3	Temperatura mínima	16.4
116936	7	Sololá	701	Sololá	4	Finca Santa Victoria	7	Julio	2023-05-07T00:00:00	2024-11-08T18:00:00	5	Humedad	92
116937	7	Sololá	701	Sololá	4	Finca Santa Victoria	7	Julio	2023-05-07T00:00:00	2024-11-08T18:00:00	6	Velocidad del viento	0
116938	7	Sololá	701	Sololá	4	Finca Santa Victoria	7	Julio	2023-05-07T00:00:00	2024-11-08T18:00:00	7	Dirección del viento	0
116939	7	Sololá	701	Sololá	4	Finca Santa Victoria	7	Julio	2023-05-07T00:00:00	2024-11-08T18:00:00	1	Precipitación	0
116940	7	Sololá	701	Sololá	4	Finca Santa Victoria	7	Julio	2023-05-07T00:00:00	2024-11-08T18:00:00	8	Radiación solar	74
116941	7	Sololá	701	Sololá	4	Finca Santa Victoria	7	Julio	2023-05-07T00:00:00	2024-11-08T19:00:00	2	Temperatura media	14.1
116942	7	Sololá	701	Sololá	4	Finca Santa Victoria	7	Julio	2023-05-07T00:00:00	2024-11-08T19:00:00	4	Temperatura máxima	16.4
116943	7	Sololá	701	Sololá	4	Finca Santa Victoria	7	Julio	2023-05-07T00:00:00	2024-11-08T19:00:00	3	Temperatura mínima	14.1
116944	7	Sololá	701	Sololá	4	Finca Santa Victoria	7	Julio	2023-05-07T00:00:00	2024-11-08T19:00:00	5	Humedad	83
116945	7	Sololá	701	Sololá	4	Finca Santa Victoria	7	Julio	2023-05-07T00:00:00	2024-11-08T19:00:00	6	Velocidad del viento	0
116946	7	Sololá	701	Sololá	4	Finca Santa Victoria	7	Julio	2023-05-07T00:00:00	2024-11-08T19:00:00	7	Dirección del viento	0
116947	7	Sololá	701	Sololá	4	Finca Santa Victoria	7	Julio	2023-05-07T00:00:00	2024-11-08T19:00:00	1	Precipitación	0
116948	7	Sololá	701	Sololá	4	Finca Santa Victoria	7	Julio	2023-05-07T00:00:00	2024-11-08T19:00:00	8	Radiación solar	0
116949	7	Sololá	701	Sololá	4	Finca Santa Victoria	7	Julio	2023-05-07T00:00:00	2024-11-08T20:00:00	2	Temperatura media	14.2
116950	7	Sololá	701	Sololá	4	Finca Santa Victoria	7	Julio	2023-05-07T00:00:00	2024-11-08T20:00:00	4	Temperatura máxima	14.3
116951	7	Sololá	701	Sololá	4	Finca Santa Victoria	7	Julio	2023-05-07T00:00:00	2024-11-08T20:00:00	3	Temperatura mínima	13.7
116952	7	Sololá	701	Sololá	4	Finca Santa Victoria	7	Julio	2023-05-07T00:00:00	2024-11-08T20:00:00	5	Humedad	82
116953	7	Sololá	701	Sololá	4	Finca Santa Victoria	7	Julio	2023-05-07T00:00:00	2024-11-08T20:00:00	6	Velocidad del viento	0
116954	7	Sololá	701	Sololá	4	Finca Santa Victoria	7	Julio	2023-05-07T00:00:00	2024-11-08T20:00:00	7	Dirección del viento	0
116955	7	Sololá	701	Sololá	4	Finca Santa Victoria	7	Julio	2023-05-07T00:00:00	2024-11-08T20:00:00	1	Precipitación	0
116956	7	Sololá	701	Sololá	4	Finca Santa Victoria	7	Julio	2023-05-07T00:00:00	2024-11-08T20:00:00	8	Radiación solar	0
116957	7	Sololá	701	Sololá	4	Finca Santa Victoria	7	Julio	2023-05-07T00:00:00	2024-11-08T21:00:00	2	Temperatura media	14.3
116958	7	Sololá	701	Sololá	4	Finca Santa Victoria	7	Julio	2023-05-07T00:00:00	2024-11-08T21:00:00	4	Temperatura máxima	14.4
116959	7	Sololá	701	Sololá	4	Finca Santa Victoria	7	Julio	2023-05-07T00:00:00	2024-11-08T21:00:00	3	Temperatura mínima	13.9
116960	7	Sololá	701	Sololá	4	Finca Santa Victoria	7	Julio	2023-05-07T00:00:00	2024-11-08T21:00:00	5	Humedad	88
116961	7	Sololá	701	Sololá	4	Finca Santa Victoria	7	Julio	2023-05-07T00:00:00	2024-11-08T21:00:00	6	Velocidad del viento	0
116962	7	Sololá	701	Sololá	4	Finca Santa Victoria	7	Julio	2023-05-07T00:00:00	2024-11-08T21:00:00	7	Dirección del viento	0
116963	7	Sololá	701	Sololá	4	Finca Santa Victoria	7	Julio	2023-05-07T00:00:00	2024-11-08T21:00:00	1	Precipitación	0
116964	7	Sololá	701	Sololá	4	Finca Santa Victoria	7	Julio	2023-05-07T00:00:00	2024-11-08T21:00:00	8	Radiación solar	0
116965	7	Sololá	701	Sololá	4	Finca Santa Victoria	7	Julio	2023-05-07T00:00:00	2024-11-08T22:00:00	2	Temperatura media	14.4
116966	7	Sololá	701	Sololá	4	Finca Santa Victoria	7	Julio	2023-05-07T00:00:00	2024-11-08T22:00:00	4	Temperatura máxima	14.6
116967	7	Sololá	701	Sololá	4	Finca Santa Victoria	7	Julio	2023-05-07T00:00:00	2024-11-08T22:00:00	3	Temperatura mínima	14.1
116968	7	Sololá	701	Sololá	4	Finca Santa Victoria	7	Julio	2023-05-07T00:00:00	2024-11-08T22:00:00	5	Humedad	88
116969	7	Sololá	701	Sololá	4	Finca Santa Victoria	7	Julio	2023-05-07T00:00:00	2024-11-08T22:00:00	6	Velocidad del viento	0
116970	7	Sololá	701	Sololá	4	Finca Santa Victoria	7	Julio	2023-05-07T00:00:00	2024-11-08T22:00:00	7	Dirección del viento	0
116971	7	Sololá	701	Sololá	4	Finca Santa Victoria	7	Julio	2023-05-07T00:00:00	2024-11-08T22:00:00	1	Precipitación	0
116972	7	Sololá	701	Sololá	4	Finca Santa Victoria	7	Julio	2023-05-07T00:00:00	2024-11-08T22:00:00	8	Radiación solar	0
116973	7	Sololá	701	Sololá	4	Finca Santa Victoria	7	Julio	2023-05-07T00:00:00	2024-11-08T23:00:00	2	Temperatura media	14.3
116974	7	Sololá	701	Sololá	4	Finca Santa Victoria	7	Julio	2023-05-07T00:00:00	2024-11-08T23:00:00	4	Temperatura máxima	14.4
116975	7	Sololá	701	Sololá	4	Finca Santa Victoria	7	Julio	2023-05-07T00:00:00	2024-11-08T23:00:00	3	Temperatura mínima	14
116976	7	Sololá	701	Sololá	4	Finca Santa Victoria	7	Julio	2023-05-07T00:00:00	2024-11-08T23:00:00	5	Humedad	90
116977	7	Sololá	701	Sololá	4	Finca Santa Victoria	7	Julio	2023-05-07T00:00:00	2024-11-08T23:00:00	6	Velocidad del viento	0
116978	7	Sololá	701	Sololá	4	Finca Santa Victoria	7	Julio	2023-05-07T00:00:00	2024-11-08T23:00:00	7	Dirección del viento	0
116979	7	Sololá	701	Sololá	4	Finca Santa Victoria	7	Julio	2023-05-07T00:00:00	2024-11-08T23:00:00	1	Precipitación	0
116980	7	Sololá	701	Sololá	4	Finca Santa Victoria	7	Julio	2023-05-07T00:00:00	2024-11-08T23:00:00	8	Radiación solar	0
116981	7	Sololá	701	Sololá	4	Finca Santa Victoria	7	Julio	2023-06-07T00:00:00	2024-11-08T00:00:00	2	Temperatura media	14.2
116982	7	Sololá	701	Sololá	4	Finca Santa Victoria	7	Julio	2023-06-07T00:00:00	2024-11-08T00:00:00	4	Temperatura máxima	14.8
116983	7	Sololá	701	Sololá	4	Finca Santa Victoria	7	Julio	2023-06-07T00:00:00	2024-11-08T00:00:00	3	Temperatura mínima	14.2
116984	7	Sololá	701	Sololá	4	Finca Santa Victoria	7	Julio	2023-06-07T00:00:00	2024-11-08T00:00:00	5	Humedad	89
116985	7	Sololá	701	Sololá	4	Finca Santa Victoria	7	Julio	2023-06-07T00:00:00	2024-11-08T00:00:00	6	Velocidad del viento	1.6
116986	7	Sololá	701	Sololá	4	Finca Santa Victoria	7	Julio	2023-06-07T00:00:00	2024-11-08T00:00:00	7	Dirección del viento	1.61
116987	7	Sololá	701	Sololá	4	Finca Santa Victoria	7	Julio	2023-06-07T00:00:00	2024-11-08T00:00:00	1	Precipitación	0
116988	7	Sololá	701	Sololá	4	Finca Santa Victoria	7	Julio	2023-06-07T00:00:00	2024-11-08T00:00:00	8	Radiación solar	0
116989	7	Sololá	701	Sololá	4	Finca Santa Victoria	7	Julio	2023-06-07T00:00:00	2024-11-08T01:00:00	2	Temperatura media	13.9
116990	7	Sololá	701	Sololá	4	Finca Santa Victoria	7	Julio	2023-06-07T00:00:00	2024-11-08T01:00:00	4	Temperatura máxima	14.4
116991	7	Sololá	701	Sololá	4	Finca Santa Victoria	7	Julio	2023-06-07T00:00:00	2024-11-08T01:00:00	3	Temperatura mínima	13.9
116992	7	Sololá	701	Sololá	4	Finca Santa Victoria	7	Julio	2023-06-07T00:00:00	2024-11-08T01:00:00	5	Humedad	90
116993	7	Sololá	701	Sololá	4	Finca Santa Victoria	7	Julio	2023-06-07T00:00:00	2024-11-08T01:00:00	6	Velocidad del viento	1.6
116994	7	Sololá	701	Sololá	4	Finca Santa Victoria	7	Julio	2023-06-07T00:00:00	2024-11-08T01:00:00	7	Dirección del viento	1.61
116995	7	Sololá	701	Sololá	4	Finca Santa Victoria	7	Julio	2023-06-07T00:00:00	2024-11-08T01:00:00	1	Precipitación	0
116996	7	Sololá	701	Sololá	4	Finca Santa Victoria	7	Julio	2023-06-07T00:00:00	2024-11-08T01:00:00	8	Radiación solar	0
116997	7	Sololá	701	Sololá	4	Finca Santa Victoria	7	Julio	2023-06-07T00:00:00	2024-11-08T02:00:00	2	Temperatura media	13.5
116998	7	Sololá	701	Sololá	4	Finca Santa Victoria	7	Julio	2023-06-07T00:00:00	2024-11-08T02:00:00	4	Temperatura máxima	13.9
116999	7	Sololá	701	Sololá	4	Finca Santa Victoria	7	Julio	2023-06-07T00:00:00	2024-11-08T02:00:00	3	Temperatura mínima	13.5
117000	7	Sololá	701	Sololá	4	Finca Santa Victoria	7	Julio	2023-06-07T00:00:00	2024-11-08T02:00:00	5	Humedad	91
117001	7	Sololá	701	Sololá	4	Finca Santa Victoria	7	Julio	2023-06-07T00:00:00	2024-11-08T02:00:00	6	Velocidad del viento	1.6
117002	7	Sololá	701	Sololá	4	Finca Santa Victoria	7	Julio	2023-06-07T00:00:00	2024-11-08T02:00:00	7	Dirección del viento	1.61
117003	7	Sololá	701	Sololá	4	Finca Santa Victoria	7	Julio	2023-06-07T00:00:00	2024-11-08T02:00:00	1	Precipitación	0
117004	7	Sololá	701	Sololá	4	Finca Santa Victoria	7	Julio	2023-06-07T00:00:00	2024-11-08T02:00:00	8	Radiación solar	0
117005	7	Sololá	701	Sololá	4	Finca Santa Victoria	7	Julio	2023-06-07T00:00:00	2024-11-08T03:00:00	2	Temperatura media	12.8
117006	7	Sololá	701	Sololá	4	Finca Santa Victoria	7	Julio	2023-06-07T00:00:00	2024-11-08T03:00:00	4	Temperatura máxima	13.5
117007	7	Sololá	701	Sololá	4	Finca Santa Victoria	7	Julio	2023-06-07T00:00:00	2024-11-08T03:00:00	3	Temperatura mínima	12.8
117008	7	Sololá	701	Sololá	4	Finca Santa Victoria	7	Julio	2023-06-07T00:00:00	2024-11-08T03:00:00	5	Humedad	93
117009	7	Sololá	701	Sololá	4	Finca Santa Victoria	7	Julio	2023-06-07T00:00:00	2024-11-08T03:00:00	6	Velocidad del viento	0
117010	7	Sololá	701	Sololá	4	Finca Santa Victoria	7	Julio	2023-06-07T00:00:00	2024-11-08T03:00:00	7	Dirección del viento	0
117011	7	Sololá	701	Sololá	4	Finca Santa Victoria	7	Julio	2023-06-07T00:00:00	2024-11-08T03:00:00	1	Precipitación	0
117012	7	Sololá	701	Sololá	4	Finca Santa Victoria	7	Julio	2023-06-07T00:00:00	2024-11-08T03:00:00	8	Radiación solar	0
117013	7	Sololá	701	Sololá	4	Finca Santa Victoria	7	Julio	2023-06-07T00:00:00	2024-11-08T04:00:00	2	Temperatura media	11.8
117014	7	Sololá	701	Sololá	4	Finca Santa Victoria	7	Julio	2023-06-07T00:00:00	2024-11-08T04:00:00	4	Temperatura máxima	12.8
117015	7	Sololá	701	Sololá	4	Finca Santa Victoria	7	Julio	2023-06-07T00:00:00	2024-11-08T04:00:00	3	Temperatura mínima	11.8
117016	7	Sololá	701	Sololá	4	Finca Santa Victoria	7	Julio	2023-06-07T00:00:00	2024-11-08T04:00:00	5	Humedad	94
117017	7	Sololá	701	Sololá	4	Finca Santa Victoria	7	Julio	2023-06-07T00:00:00	2024-11-08T04:00:00	6	Velocidad del viento	0
117018	7	Sololá	701	Sololá	4	Finca Santa Victoria	7	Julio	2023-06-07T00:00:00	2024-11-08T04:00:00	7	Dirección del viento	0
117019	7	Sololá	701	Sololá	4	Finca Santa Victoria	7	Julio	2023-06-07T00:00:00	2024-11-08T04:00:00	1	Precipitación	0
117020	7	Sololá	701	Sololá	4	Finca Santa Victoria	7	Julio	2023-06-07T00:00:00	2024-11-08T04:00:00	8	Radiación solar	0
117021	7	Sololá	701	Sololá	4	Finca Santa Victoria	7	Julio	2023-06-07T00:00:00	2024-11-08T05:00:00	2	Temperatura media	12.1
117022	7	Sololá	701	Sololá	4	Finca Santa Victoria	7	Julio	2023-06-07T00:00:00	2024-11-08T05:00:00	4	Temperatura máxima	12.1
117023	7	Sololá	701	Sololá	4	Finca Santa Victoria	7	Julio	2023-06-07T00:00:00	2024-11-08T05:00:00	3	Temperatura mínima	11.7
117024	7	Sololá	701	Sololá	4	Finca Santa Victoria	7	Julio	2023-06-07T00:00:00	2024-11-08T05:00:00	5	Humedad	93
117025	7	Sololá	701	Sololá	4	Finca Santa Victoria	7	Julio	2023-06-07T00:00:00	2024-11-08T05:00:00	6	Velocidad del viento	0
117026	7	Sololá	701	Sololá	4	Finca Santa Victoria	7	Julio	2023-06-07T00:00:00	2024-11-08T05:00:00	7	Dirección del viento	0
117027	7	Sololá	701	Sololá	4	Finca Santa Victoria	7	Julio	2023-06-07T00:00:00	2024-11-08T05:00:00	1	Precipitación	0
117028	7	Sololá	701	Sololá	4	Finca Santa Victoria	7	Julio	2023-06-07T00:00:00	2024-11-08T05:00:00	8	Radiación solar	0
117029	7	Sololá	701	Sololá	4	Finca Santa Victoria	7	Julio	2023-06-07T00:00:00	2024-11-08T06:00:00	2	Temperatura media	12
117030	7	Sololá	701	Sololá	4	Finca Santa Victoria	7	Julio	2023-06-07T00:00:00	2024-11-08T06:00:00	4	Temperatura máxima	12.2
117031	7	Sololá	701	Sololá	4	Finca Santa Victoria	7	Julio	2023-06-07T00:00:00	2024-11-08T06:00:00	3	Temperatura mínima	11.9
117032	7	Sololá	701	Sololá	4	Finca Santa Victoria	7	Julio	2023-06-07T00:00:00	2024-11-08T06:00:00	5	Humedad	94
117033	7	Sololá	701	Sololá	4	Finca Santa Victoria	7	Julio	2023-06-07T00:00:00	2024-11-08T06:00:00	6	Velocidad del viento	0
117034	7	Sololá	701	Sololá	4	Finca Santa Victoria	7	Julio	2023-06-07T00:00:00	2024-11-08T06:00:00	7	Dirección del viento	0
117035	7	Sololá	701	Sololá	4	Finca Santa Victoria	7	Julio	2023-06-07T00:00:00	2024-11-08T06:00:00	1	Precipitación	0
117036	7	Sololá	701	Sololá	4	Finca Santa Victoria	7	Julio	2023-06-07T00:00:00	2024-11-08T06:00:00	8	Radiación solar	1
117037	7	Sololá	701	Sololá	4	Finca Santa Victoria	7	Julio	2023-06-07T00:00:00	2024-11-08T07:00:00	2	Temperatura media	13.1
117038	7	Sololá	701	Sololá	4	Finca Santa Victoria	7	Julio	2023-06-07T00:00:00	2024-11-08T07:00:00	4	Temperatura máxima	13.1
117039	7	Sololá	701	Sololá	4	Finca Santa Victoria	7	Julio	2023-06-07T00:00:00	2024-11-08T07:00:00	3	Temperatura mínima	11.9
117040	7	Sololá	701	Sololá	4	Finca Santa Victoria	7	Julio	2023-06-07T00:00:00	2024-11-08T07:00:00	5	Humedad	93
117041	7	Sololá	701	Sololá	4	Finca Santa Victoria	7	Julio	2023-06-07T00:00:00	2024-11-08T07:00:00	6	Velocidad del viento	0
117042	7	Sololá	701	Sololá	4	Finca Santa Victoria	7	Julio	2023-06-07T00:00:00	2024-11-08T07:00:00	7	Dirección del viento	0
117043	7	Sololá	701	Sololá	4	Finca Santa Victoria	7	Julio	2023-06-07T00:00:00	2024-11-08T07:00:00	1	Precipitación	0
117044	7	Sololá	701	Sololá	4	Finca Santa Victoria	7	Julio	2023-06-07T00:00:00	2024-11-08T07:00:00	8	Radiación solar	16
117045	7	Sololá	701	Sololá	4	Finca Santa Victoria	7	Julio	2023-06-07T00:00:00	2024-11-08T08:00:00	2	Temperatura media	17.6
117046	7	Sololá	701	Sololá	4	Finca Santa Victoria	7	Julio	2023-06-07T00:00:00	2024-11-08T08:00:00	4	Temperatura máxima	17.6
117047	7	Sololá	701	Sololá	4	Finca Santa Victoria	7	Julio	2023-06-07T00:00:00	2024-11-08T08:00:00	3	Temperatura mínima	13
117048	7	Sololá	701	Sololá	4	Finca Santa Victoria	7	Julio	2023-06-07T00:00:00	2024-11-08T08:00:00	5	Humedad	79
117049	7	Sololá	701	Sololá	4	Finca Santa Victoria	7	Julio	2023-06-07T00:00:00	2024-11-08T08:00:00	6	Velocidad del viento	0
117050	7	Sololá	701	Sololá	4	Finca Santa Victoria	7	Julio	2023-06-07T00:00:00	2024-11-08T08:00:00	7	Dirección del viento	0
117051	7	Sololá	701	Sololá	4	Finca Santa Victoria	7	Julio	2023-06-07T00:00:00	2024-11-08T08:00:00	1	Precipitación	0
117052	7	Sololá	701	Sololá	4	Finca Santa Victoria	7	Julio	2023-06-07T00:00:00	2024-11-08T08:00:00	8	Radiación solar	205
117053	7	Sololá	701	Sololá	4	Finca Santa Victoria	7	Julio	2023-06-07T00:00:00	2024-11-08T09:00:00	2	Temperatura media	17.8
117054	7	Sololá	701	Sololá	4	Finca Santa Victoria	7	Julio	2023-06-07T00:00:00	2024-11-08T09:00:00	4	Temperatura máxima	18
117055	7	Sololá	701	Sololá	4	Finca Santa Victoria	7	Julio	2023-06-07T00:00:00	2024-11-08T09:00:00	3	Temperatura mínima	17.4
117056	7	Sololá	701	Sololá	4	Finca Santa Victoria	7	Julio	2023-06-07T00:00:00	2024-11-08T09:00:00	5	Humedad	79
117057	7	Sololá	701	Sololá	4	Finca Santa Victoria	7	Julio	2023-06-07T00:00:00	2024-11-08T09:00:00	6	Velocidad del viento	1.6
117058	7	Sololá	701	Sololá	4	Finca Santa Victoria	7	Julio	2023-06-07T00:00:00	2024-11-08T09:00:00	7	Dirección del viento	1.61
117059	7	Sololá	701	Sololá	4	Finca Santa Victoria	7	Julio	2023-06-07T00:00:00	2024-11-08T09:00:00	1	Precipitación	0
117060	7	Sololá	701	Sololá	4	Finca Santa Victoria	7	Julio	2023-06-07T00:00:00	2024-11-08T09:00:00	8	Radiación solar	427
117061	7	Sololá	701	Sololá	4	Finca Santa Victoria	7	Julio	2023-06-07T00:00:00	2024-11-08T10:00:00	2	Temperatura media	18.9
117062	7	Sololá	701	Sololá	4	Finca Santa Victoria	7	Julio	2023-06-07T00:00:00	2024-11-08T10:00:00	4	Temperatura máxima	19.2
117063	7	Sololá	701	Sololá	4	Finca Santa Victoria	7	Julio	2023-06-07T00:00:00	2024-11-08T10:00:00	3	Temperatura mínima	17.7
117064	7	Sololá	701	Sololá	4	Finca Santa Victoria	7	Julio	2023-06-07T00:00:00	2024-11-08T10:00:00	5	Humedad	74
117065	7	Sololá	701	Sololá	4	Finca Santa Victoria	7	Julio	2023-06-07T00:00:00	2024-11-08T10:00:00	6	Velocidad del viento	1.6
117066	7	Sololá	701	Sololá	4	Finca Santa Victoria	7	Julio	2023-06-07T00:00:00	2024-11-08T10:00:00	7	Dirección del viento	1.61
117067	7	Sololá	701	Sololá	4	Finca Santa Victoria	7	Julio	2023-06-07T00:00:00	2024-11-08T10:00:00	1	Precipitación	0
117068	7	Sololá	701	Sololá	4	Finca Santa Victoria	7	Julio	2023-06-07T00:00:00	2024-11-08T10:00:00	8	Radiación solar	206
117069	7	Sololá	701	Sololá	4	Finca Santa Victoria	7	Julio	2023-06-07T00:00:00	2024-11-08T11:00:00	2	Temperatura media	18.6
117070	7	Sololá	701	Sololá	4	Finca Santa Victoria	7	Julio	2023-06-07T00:00:00	2024-11-08T11:00:00	4	Temperatura máxima	18.9
117071	7	Sololá	701	Sololá	4	Finca Santa Victoria	7	Julio	2023-06-07T00:00:00	2024-11-08T11:00:00	3	Temperatura mínima	18.4
117072	7	Sololá	701	Sololá	4	Finca Santa Victoria	7	Julio	2023-06-07T00:00:00	2024-11-08T11:00:00	5	Humedad	80
117073	7	Sololá	701	Sololá	4	Finca Santa Victoria	7	Julio	2023-06-07T00:00:00	2024-11-08T11:00:00	6	Velocidad del viento	1.6
117074	7	Sololá	701	Sololá	4	Finca Santa Victoria	7	Julio	2023-06-07T00:00:00	2024-11-08T11:00:00	7	Dirección del viento	1.61
117075	7	Sololá	701	Sololá	4	Finca Santa Victoria	7	Julio	2023-06-07T00:00:00	2024-11-08T11:00:00	1	Precipitación	0
117076	7	Sololá	701	Sololá	4	Finca Santa Victoria	7	Julio	2023-06-07T00:00:00	2024-11-08T11:00:00	8	Radiación solar	214
117077	7	Sololá	701	Sololá	4	Finca Santa Victoria	7	Julio	2023-06-07T00:00:00	2024-11-08T12:00:00	2	Temperatura media	18.4
117078	7	Sololá	701	Sololá	4	Finca Santa Victoria	7	Julio	2023-06-07T00:00:00	2024-11-08T12:00:00	4	Temperatura máxima	20.7
117079	7	Sololá	701	Sololá	4	Finca Santa Victoria	7	Julio	2023-06-07T00:00:00	2024-11-08T12:00:00	3	Temperatura mínima	18.4
117080	7	Sololá	701	Sololá	4	Finca Santa Victoria	7	Julio	2023-06-07T00:00:00	2024-11-08T12:00:00	5	Humedad	84
117081	7	Sololá	701	Sololá	4	Finca Santa Victoria	7	Julio	2023-06-07T00:00:00	2024-11-08T12:00:00	6	Velocidad del viento	1.6
117082	7	Sololá	701	Sololá	4	Finca Santa Victoria	7	Julio	2023-06-07T00:00:00	2024-11-08T12:00:00	7	Dirección del viento	1.61
117083	7	Sololá	701	Sololá	4	Finca Santa Victoria	7	Julio	2023-06-07T00:00:00	2024-11-08T12:00:00	1	Precipitación	0
117084	7	Sololá	701	Sololá	4	Finca Santa Victoria	7	Julio	2023-06-07T00:00:00	2024-11-08T12:00:00	8	Radiación solar	413
117085	7	Sololá	701	Sololá	4	Finca Santa Victoria	7	Julio	2023-06-07T00:00:00	2024-11-08T13:00:00	2	Temperatura media	19.1
117086	7	Sololá	701	Sololá	4	Finca Santa Victoria	7	Julio	2023-06-07T00:00:00	2024-11-08T13:00:00	4	Temperatura máxima	19.2
117087	7	Sololá	701	Sololá	4	Finca Santa Victoria	7	Julio	2023-06-07T00:00:00	2024-11-08T13:00:00	3	Temperatura mínima	17.7
117088	7	Sololá	701	Sololá	4	Finca Santa Victoria	7	Julio	2023-06-07T00:00:00	2024-11-08T13:00:00	5	Humedad	88
117089	7	Sololá	701	Sololá	4	Finca Santa Victoria	7	Julio	2023-06-07T00:00:00	2024-11-08T13:00:00	6	Velocidad del viento	1.6
117090	7	Sololá	701	Sololá	4	Finca Santa Victoria	7	Julio	2023-06-07T00:00:00	2024-11-08T13:00:00	7	Dirección del viento	1.61
117091	7	Sololá	701	Sololá	4	Finca Santa Victoria	7	Julio	2023-06-07T00:00:00	2024-11-08T13:00:00	1	Precipitación	0
117092	7	Sololá	701	Sololá	4	Finca Santa Victoria	7	Julio	2023-06-07T00:00:00	2024-11-08T13:00:00	8	Radiación solar	269
117093	7	Sololá	701	Sololá	4	Finca Santa Victoria	7	Julio	2023-06-07T00:00:00	2024-11-08T14:00:00	2	Temperatura media	19.3
117094	7	Sololá	701	Sololá	4	Finca Santa Victoria	7	Julio	2023-06-07T00:00:00	2024-11-08T14:00:00	4	Temperatura máxima	19.4
117095	7	Sololá	701	Sololá	4	Finca Santa Victoria	7	Julio	2023-06-07T00:00:00	2024-11-08T14:00:00	3	Temperatura mínima	18.3
117096	7	Sololá	701	Sololá	4	Finca Santa Victoria	7	Julio	2023-06-07T00:00:00	2024-11-08T14:00:00	5	Humedad	87
117097	7	Sololá	701	Sololá	4	Finca Santa Victoria	7	Julio	2023-06-07T00:00:00	2024-11-08T14:00:00	6	Velocidad del viento	1.6
117098	7	Sololá	701	Sololá	4	Finca Santa Victoria	7	Julio	2023-06-07T00:00:00	2024-11-08T14:00:00	7	Dirección del viento	1.61
117099	7	Sololá	701	Sololá	4	Finca Santa Victoria	7	Julio	2023-06-07T00:00:00	2024-11-08T14:00:00	1	Precipitación	0
117100	7	Sololá	701	Sololá	4	Finca Santa Victoria	7	Julio	2023-06-07T00:00:00	2024-11-08T14:00:00	8	Radiación solar	236
117101	7	Sololá	701	Sololá	4	Finca Santa Victoria	7	Julio	2023-06-07T00:00:00	2024-11-08T15:00:00	2	Temperatura media	18.1
117102	7	Sololá	701	Sololá	4	Finca Santa Victoria	7	Julio	2023-06-07T00:00:00	2024-11-08T15:00:00	4	Temperatura máxima	20.3
117103	7	Sololá	701	Sololá	4	Finca Santa Victoria	7	Julio	2023-06-07T00:00:00	2024-11-08T15:00:00	3	Temperatura mínima	18.1
117104	7	Sololá	701	Sololá	4	Finca Santa Victoria	7	Julio	2023-06-07T00:00:00	2024-11-08T15:00:00	5	Humedad	92
117105	7	Sololá	701	Sololá	4	Finca Santa Victoria	7	Julio	2023-06-07T00:00:00	2024-11-08T15:00:00	6	Velocidad del viento	3.2
117106	7	Sololá	701	Sololá	4	Finca Santa Victoria	7	Julio	2023-06-07T00:00:00	2024-11-08T15:00:00	7	Dirección del viento	3.22
117107	7	Sololá	701	Sololá	4	Finca Santa Victoria	7	Julio	2023-06-07T00:00:00	2024-11-08T15:00:00	1	Precipitación	0
117108	7	Sololá	701	Sololá	4	Finca Santa Victoria	7	Julio	2023-06-07T00:00:00	2024-11-08T15:00:00	8	Radiación solar	254
117109	7	Sololá	701	Sololá	4	Finca Santa Victoria	7	Julio	2023-06-07T00:00:00	2024-11-08T16:00:00	2	Temperatura media	17
117110	7	Sololá	701	Sololá	4	Finca Santa Victoria	7	Julio	2023-06-07T00:00:00	2024-11-08T16:00:00	4	Temperatura máxima	18.1
117111	7	Sololá	701	Sololá	4	Finca Santa Victoria	7	Julio	2023-06-07T00:00:00	2024-11-08T16:00:00	3	Temperatura mínima	17
117112	7	Sololá	701	Sololá	4	Finca Santa Victoria	7	Julio	2023-06-07T00:00:00	2024-11-08T16:00:00	5	Humedad	96
117113	7	Sololá	701	Sololá	4	Finca Santa Victoria	7	Julio	2023-06-07T00:00:00	2024-11-08T16:00:00	6	Velocidad del viento	3.2
117114	7	Sololá	701	Sololá	4	Finca Santa Victoria	7	Julio	2023-06-07T00:00:00	2024-11-08T16:00:00	7	Dirección del viento	3.22
117115	7	Sololá	701	Sololá	4	Finca Santa Victoria	7	Julio	2023-06-07T00:00:00	2024-11-08T16:00:00	1	Precipitación	0
117116	7	Sololá	701	Sololá	4	Finca Santa Victoria	7	Julio	2023-06-07T00:00:00	2024-11-08T16:00:00	8	Radiación solar	96
117117	7	Sololá	701	Sololá	4	Finca Santa Victoria	7	Julio	2023-06-07T00:00:00	2024-11-08T17:00:00	2	Temperatura media	17.7
117118	7	Sololá	701	Sololá	4	Finca Santa Victoria	7	Julio	2023-06-07T00:00:00	2024-11-08T17:00:00	4	Temperatura máxima	17.7
117119	7	Sololá	701	Sololá	4	Finca Santa Victoria	7	Julio	2023-06-07T00:00:00	2024-11-08T17:00:00	3	Temperatura mínima	16.7
117120	7	Sololá	701	Sololá	4	Finca Santa Victoria	7	Julio	2023-06-07T00:00:00	2024-11-08T17:00:00	5	Humedad	94
117121	7	Sololá	701	Sololá	4	Finca Santa Victoria	7	Julio	2023-06-07T00:00:00	2024-11-08T17:00:00	6	Velocidad del viento	1.6
117122	7	Sololá	701	Sololá	4	Finca Santa Victoria	7	Julio	2023-06-07T00:00:00	2024-11-08T17:00:00	7	Dirección del viento	1.61
117123	7	Sololá	701	Sololá	4	Finca Santa Victoria	7	Julio	2023-06-07T00:00:00	2024-11-08T17:00:00	1	Precipitación	0
117124	7	Sololá	701	Sololá	4	Finca Santa Victoria	7	Julio	2023-06-07T00:00:00	2024-11-08T17:00:00	8	Radiación solar	103
117125	7	Sololá	701	Sololá	4	Finca Santa Victoria	7	Julio	2023-06-07T00:00:00	2024-11-08T18:00:00	2	Temperatura media	16.5
117126	7	Sololá	701	Sololá	4	Finca Santa Victoria	7	Julio	2023-06-07T00:00:00	2024-11-08T18:00:00	4	Temperatura máxima	17.8
117127	7	Sololá	701	Sololá	4	Finca Santa Victoria	7	Julio	2023-06-07T00:00:00	2024-11-08T18:00:00	3	Temperatura mínima	16.5
117128	7	Sololá	701	Sololá	4	Finca Santa Victoria	7	Julio	2023-06-07T00:00:00	2024-11-08T18:00:00	5	Humedad	94
117129	7	Sololá	701	Sololá	4	Finca Santa Victoria	7	Julio	2023-06-07T00:00:00	2024-11-08T18:00:00	6	Velocidad del viento	0
117130	7	Sololá	701	Sololá	4	Finca Santa Victoria	7	Julio	2023-06-07T00:00:00	2024-11-08T18:00:00	7	Dirección del viento	0
117131	7	Sololá	701	Sololá	4	Finca Santa Victoria	7	Julio	2023-06-07T00:00:00	2024-11-08T18:00:00	1	Precipitación	0
117132	7	Sololá	701	Sololá	4	Finca Santa Victoria	7	Julio	2023-06-07T00:00:00	2024-11-08T18:00:00	8	Radiación solar	65
117133	7	Sololá	701	Sololá	4	Finca Santa Victoria	7	Julio	2023-06-07T00:00:00	2024-11-08T19:00:00	2	Temperatura media	15.4
117134	7	Sololá	701	Sololá	4	Finca Santa Victoria	7	Julio	2023-06-07T00:00:00	2024-11-08T19:00:00	4	Temperatura máxima	16.5
117135	7	Sololá	701	Sololá	4	Finca Santa Victoria	7	Julio	2023-06-07T00:00:00	2024-11-08T19:00:00	3	Temperatura mínima	15.4
117136	7	Sololá	701	Sololá	4	Finca Santa Victoria	7	Julio	2023-06-07T00:00:00	2024-11-08T19:00:00	5	Humedad	94
117137	7	Sololá	701	Sololá	4	Finca Santa Victoria	7	Julio	2023-06-07T00:00:00	2024-11-08T19:00:00	6	Velocidad del viento	0
117138	7	Sololá	701	Sololá	4	Finca Santa Victoria	7	Julio	2023-06-07T00:00:00	2024-11-08T19:00:00	7	Dirección del viento	0
117139	7	Sololá	701	Sololá	4	Finca Santa Victoria	7	Julio	2023-06-07T00:00:00	2024-11-08T19:00:00	1	Precipitación	0
117140	7	Sololá	701	Sololá	4	Finca Santa Victoria	7	Julio	2023-06-07T00:00:00	2024-11-08T19:00:00	8	Radiación solar	0
117141	7	Sololá	701	Sololá	4	Finca Santa Victoria	7	Julio	2023-06-07T00:00:00	2024-11-08T20:00:00	2	Temperatura media	14.3
117142	7	Sololá	701	Sololá	4	Finca Santa Victoria	7	Julio	2023-06-07T00:00:00	2024-11-08T20:00:00	4	Temperatura máxima	15.4
117143	7	Sololá	701	Sololá	4	Finca Santa Victoria	7	Julio	2023-06-07T00:00:00	2024-11-08T20:00:00	3	Temperatura mínima	14.2
117144	7	Sololá	701	Sololá	4	Finca Santa Victoria	7	Julio	2023-06-07T00:00:00	2024-11-08T20:00:00	5	Humedad	81
117145	7	Sololá	701	Sololá	4	Finca Santa Victoria	7	Julio	2023-06-07T00:00:00	2024-11-08T20:00:00	6	Velocidad del viento	0
117146	7	Sololá	701	Sololá	4	Finca Santa Victoria	7	Julio	2023-06-07T00:00:00	2024-11-08T20:00:00	7	Dirección del viento	0
117147	7	Sololá	701	Sololá	4	Finca Santa Victoria	7	Julio	2023-06-07T00:00:00	2024-11-08T20:00:00	1	Precipitación	0
117148	7	Sololá	701	Sololá	4	Finca Santa Victoria	7	Julio	2023-06-07T00:00:00	2024-11-08T20:00:00	8	Radiación solar	0
117149	7	Sololá	701	Sololá	4	Finca Santa Victoria	7	Julio	2023-06-07T00:00:00	2024-11-08T21:00:00	2	Temperatura media	13.8
117150	7	Sololá	701	Sololá	4	Finca Santa Victoria	7	Julio	2023-06-07T00:00:00	2024-11-08T21:00:00	4	Temperatura máxima	14.3
117151	7	Sololá	701	Sololá	4	Finca Santa Victoria	7	Julio	2023-06-07T00:00:00	2024-11-08T21:00:00	3	Temperatura mínima	13.7
117152	7	Sololá	701	Sololá	4	Finca Santa Victoria	7	Julio	2023-06-07T00:00:00	2024-11-08T21:00:00	5	Humedad	88
117153	7	Sololá	701	Sololá	4	Finca Santa Victoria	7	Julio	2023-06-07T00:00:00	2024-11-08T21:00:00	6	Velocidad del viento	0
117154	7	Sololá	701	Sololá	4	Finca Santa Victoria	7	Julio	2023-06-07T00:00:00	2024-11-08T21:00:00	7	Dirección del viento	0
117155	7	Sololá	701	Sololá	4	Finca Santa Victoria	7	Julio	2023-06-07T00:00:00	2024-11-08T21:00:00	1	Precipitación	0
117156	7	Sololá	701	Sololá	4	Finca Santa Victoria	7	Julio	2023-06-07T00:00:00	2024-11-08T21:00:00	8	Radiación solar	0
117157	7	Sololá	701	Sololá	4	Finca Santa Victoria	7	Julio	2023-06-07T00:00:00	2024-11-08T22:00:00	2	Temperatura media	14.1
117158	7	Sololá	701	Sololá	4	Finca Santa Victoria	7	Julio	2023-06-07T00:00:00	2024-11-08T22:00:00	4	Temperatura máxima	14.1
117159	7	Sololá	701	Sololá	4	Finca Santa Victoria	7	Julio	2023-06-07T00:00:00	2024-11-08T22:00:00	3	Temperatura mínima	13.7
117160	7	Sololá	701	Sololá	4	Finca Santa Victoria	7	Julio	2023-06-07T00:00:00	2024-11-08T22:00:00	5	Humedad	90
117161	7	Sololá	701	Sololá	4	Finca Santa Victoria	7	Julio	2023-06-07T00:00:00	2024-11-08T22:00:00	6	Velocidad del viento	0
117162	7	Sololá	701	Sololá	4	Finca Santa Victoria	7	Julio	2023-06-07T00:00:00	2024-11-08T22:00:00	7	Dirección del viento	0
117163	7	Sololá	701	Sololá	4	Finca Santa Victoria	7	Julio	2023-06-07T00:00:00	2024-11-08T22:00:00	1	Precipitación	0
117164	7	Sololá	701	Sololá	4	Finca Santa Victoria	7	Julio	2023-06-07T00:00:00	2024-11-08T22:00:00	8	Radiación solar	0
117165	7	Sololá	701	Sololá	4	Finca Santa Victoria	7	Julio	2023-06-07T00:00:00	2024-11-08T23:00:00	2	Temperatura media	14.6
117166	7	Sololá	701	Sololá	4	Finca Santa Victoria	7	Julio	2023-06-07T00:00:00	2024-11-08T23:00:00	4	Temperatura máxima	14.6
117167	7	Sololá	701	Sololá	4	Finca Santa Victoria	7	Julio	2023-06-07T00:00:00	2024-11-08T23:00:00	3	Temperatura mínima	14.1
117168	7	Sololá	701	Sololá	4	Finca Santa Victoria	7	Julio	2023-06-07T00:00:00	2024-11-08T23:00:00	5	Humedad	89
117169	7	Sololá	701	Sololá	4	Finca Santa Victoria	7	Julio	2023-06-07T00:00:00	2024-11-08T23:00:00	6	Velocidad del viento	0
117170	7	Sololá	701	Sololá	4	Finca Santa Victoria	7	Julio	2023-06-07T00:00:00	2024-11-08T23:00:00	7	Dirección del viento	0
117171	7	Sololá	701	Sololá	4	Finca Santa Victoria	7	Julio	2023-06-07T00:00:00	2024-11-08T23:00:00	1	Precipitación	0
117172	7	Sololá	701	Sololá	4	Finca Santa Victoria	7	Julio	2023-06-07T00:00:00	2024-11-08T23:00:00	8	Radiación solar	0
117173	7	Sololá	701	Sololá	4	Finca Santa Victoria	7	Julio	2023-07-07T00:00:00	2024-11-08T00:00:00	2	Temperatura media	13.4
117174	7	Sololá	701	Sololá	4	Finca Santa Victoria	7	Julio	2023-07-07T00:00:00	2024-11-08T00:00:00	4	Temperatura máxima	14.6
117175	7	Sololá	701	Sololá	4	Finca Santa Victoria	7	Julio	2023-07-07T00:00:00	2024-11-08T00:00:00	3	Temperatura mínima	13.4
117176	7	Sololá	701	Sololá	4	Finca Santa Victoria	7	Julio	2023-07-07T00:00:00	2024-11-08T00:00:00	5	Humedad	90
117177	7	Sololá	701	Sololá	4	Finca Santa Victoria	7	Julio	2023-07-07T00:00:00	2024-11-08T00:00:00	6	Velocidad del viento	0
117178	7	Sololá	701	Sololá	4	Finca Santa Victoria	7	Julio	2023-07-07T00:00:00	2024-11-08T00:00:00	7	Dirección del viento	0
117179	7	Sololá	701	Sololá	4	Finca Santa Victoria	7	Julio	2023-07-07T00:00:00	2024-11-08T00:00:00	1	Precipitación	0
117180	7	Sololá	701	Sololá	4	Finca Santa Victoria	7	Julio	2023-07-07T00:00:00	2024-11-08T00:00:00	8	Radiación solar	0
117181	7	Sololá	701	Sololá	4	Finca Santa Victoria	7	Julio	2023-07-07T00:00:00	2024-11-08T01:00:00	2	Temperatura media	14.1
117182	7	Sololá	701	Sololá	4	Finca Santa Victoria	7	Julio	2023-07-07T00:00:00	2024-11-08T01:00:00	4	Temperatura máxima	14.1
117183	7	Sololá	701	Sololá	4	Finca Santa Victoria	7	Julio	2023-07-07T00:00:00	2024-11-08T01:00:00	3	Temperatura mínima	13.2
117184	7	Sololá	701	Sololá	4	Finca Santa Victoria	7	Julio	2023-07-07T00:00:00	2024-11-08T01:00:00	5	Humedad	86
117185	7	Sololá	701	Sololá	4	Finca Santa Victoria	7	Julio	2023-07-07T00:00:00	2024-11-08T01:00:00	6	Velocidad del viento	0
117186	7	Sololá	701	Sololá	4	Finca Santa Victoria	7	Julio	2023-07-07T00:00:00	2024-11-08T01:00:00	7	Dirección del viento	0
117187	7	Sololá	701	Sololá	4	Finca Santa Victoria	7	Julio	2023-07-07T00:00:00	2024-11-08T01:00:00	1	Precipitación	0
117188	7	Sololá	701	Sololá	4	Finca Santa Victoria	7	Julio	2023-07-07T00:00:00	2024-11-08T01:00:00	8	Radiación solar	0
117189	7	Sololá	701	Sololá	4	Finca Santa Victoria	7	Julio	2023-07-07T00:00:00	2024-11-08T02:00:00	2	Temperatura media	13.3
117190	7	Sololá	701	Sololá	4	Finca Santa Victoria	7	Julio	2023-07-07T00:00:00	2024-11-08T02:00:00	4	Temperatura máxima	14.2
117191	7	Sololá	701	Sololá	4	Finca Santa Victoria	7	Julio	2023-07-07T00:00:00	2024-11-08T02:00:00	3	Temperatura mínima	13.3
117192	7	Sololá	701	Sololá	4	Finca Santa Victoria	7	Julio	2023-07-07T00:00:00	2024-11-08T02:00:00	5	Humedad	89
117193	7	Sololá	701	Sololá	4	Finca Santa Victoria	7	Julio	2023-07-07T00:00:00	2024-11-08T02:00:00	6	Velocidad del viento	0
117194	7	Sololá	701	Sololá	4	Finca Santa Victoria	7	Julio	2023-07-07T00:00:00	2024-11-08T02:00:00	7	Dirección del viento	0
117195	7	Sololá	701	Sololá	4	Finca Santa Victoria	7	Julio	2023-07-07T00:00:00	2024-11-08T02:00:00	1	Precipitación	0
117196	7	Sololá	701	Sololá	4	Finca Santa Victoria	7	Julio	2023-07-07T00:00:00	2024-11-08T02:00:00	8	Radiación solar	0
117197	7	Sololá	701	Sololá	4	Finca Santa Victoria	7	Julio	2023-07-07T00:00:00	2024-11-08T03:00:00	2	Temperatura media	12.9
117198	7	Sololá	701	Sololá	4	Finca Santa Victoria	7	Julio	2023-07-07T00:00:00	2024-11-08T03:00:00	4	Temperatura máxima	13.3
117199	7	Sololá	701	Sololá	4	Finca Santa Victoria	7	Julio	2023-07-07T00:00:00	2024-11-08T03:00:00	3	Temperatura mínima	12.7
117200	7	Sololá	701	Sololá	4	Finca Santa Victoria	7	Julio	2023-07-07T00:00:00	2024-11-08T03:00:00	5	Humedad	92
117201	7	Sololá	701	Sololá	4	Finca Santa Victoria	7	Julio	2023-07-07T00:00:00	2024-11-08T03:00:00	6	Velocidad del viento	0
117202	7	Sololá	701	Sololá	4	Finca Santa Victoria	7	Julio	2023-07-07T00:00:00	2024-11-08T03:00:00	7	Dirección del viento	0
117203	7	Sololá	701	Sololá	4	Finca Santa Victoria	7	Julio	2023-07-07T00:00:00	2024-11-08T03:00:00	1	Precipitación	0
117204	7	Sololá	701	Sololá	4	Finca Santa Victoria	7	Julio	2023-07-07T00:00:00	2024-11-08T03:00:00	8	Radiación solar	0
117205	7	Sololá	701	Sololá	4	Finca Santa Victoria	7	Julio	2023-07-07T00:00:00	2024-11-08T04:00:00	2	Temperatura media	13.3
117206	7	Sololá	701	Sololá	4	Finca Santa Victoria	7	Julio	2023-07-07T00:00:00	2024-11-08T04:00:00	4	Temperatura máxima	13.4
117207	7	Sololá	701	Sololá	4	Finca Santa Victoria	7	Julio	2023-07-07T00:00:00	2024-11-08T04:00:00	3	Temperatura mínima	12.8
117208	7	Sololá	701	Sololá	4	Finca Santa Victoria	7	Julio	2023-07-07T00:00:00	2024-11-08T04:00:00	5	Humedad	91
117209	7	Sololá	701	Sololá	4	Finca Santa Victoria	7	Julio	2023-07-07T00:00:00	2024-11-08T04:00:00	6	Velocidad del viento	0
117210	7	Sololá	701	Sololá	4	Finca Santa Victoria	7	Julio	2023-07-07T00:00:00	2024-11-08T04:00:00	7	Dirección del viento	0
117211	7	Sololá	701	Sololá	4	Finca Santa Victoria	7	Julio	2023-07-07T00:00:00	2024-11-08T04:00:00	1	Precipitación	0
117212	7	Sololá	701	Sololá	4	Finca Santa Victoria	7	Julio	2023-07-07T00:00:00	2024-11-08T04:00:00	8	Radiación solar	0
117213	7	Sololá	701	Sololá	4	Finca Santa Victoria	7	Julio	2023-07-07T00:00:00	2024-11-08T05:00:00	2	Temperatura media	12.5
117214	7	Sololá	701	Sololá	4	Finca Santa Victoria	7	Julio	2023-07-07T00:00:00	2024-11-08T05:00:00	4	Temperatura máxima	13.3
117215	7	Sololá	701	Sololá	4	Finca Santa Victoria	7	Julio	2023-07-07T00:00:00	2024-11-08T05:00:00	3	Temperatura mínima	12.5
117216	7	Sololá	701	Sololá	4	Finca Santa Victoria	7	Julio	2023-07-07T00:00:00	2024-11-08T05:00:00	5	Humedad	94
117217	7	Sololá	701	Sololá	4	Finca Santa Victoria	7	Julio	2023-07-07T00:00:00	2024-11-08T05:00:00	6	Velocidad del viento	1.6
117218	7	Sololá	701	Sololá	4	Finca Santa Victoria	7	Julio	2023-07-07T00:00:00	2024-11-08T05:00:00	7	Dirección del viento	1.61
117219	7	Sololá	701	Sololá	4	Finca Santa Victoria	7	Julio	2023-07-07T00:00:00	2024-11-08T05:00:00	1	Precipitación	0
117220	7	Sololá	701	Sololá	4	Finca Santa Victoria	7	Julio	2023-07-07T00:00:00	2024-11-08T05:00:00	8	Radiación solar	0
117221	7	Sololá	701	Sololá	4	Finca Santa Victoria	7	Julio	2023-07-07T00:00:00	2024-11-08T06:00:00	2	Temperatura media	12.8
117222	7	Sololá	701	Sololá	4	Finca Santa Victoria	7	Julio	2023-07-07T00:00:00	2024-11-08T06:00:00	4	Temperatura máxima	12.8
117223	7	Sololá	701	Sololá	4	Finca Santa Victoria	7	Julio	2023-07-07T00:00:00	2024-11-08T06:00:00	3	Temperatura mínima	12
117224	7	Sololá	701	Sololá	4	Finca Santa Victoria	7	Julio	2023-07-07T00:00:00	2024-11-08T06:00:00	5	Humedad	92
117225	7	Sololá	701	Sololá	4	Finca Santa Victoria	7	Julio	2023-07-07T00:00:00	2024-11-08T06:00:00	6	Velocidad del viento	0
117226	7	Sololá	701	Sololá	4	Finca Santa Victoria	7	Julio	2023-07-07T00:00:00	2024-11-08T06:00:00	7	Dirección del viento	0
117227	7	Sololá	701	Sololá	4	Finca Santa Victoria	7	Julio	2023-07-07T00:00:00	2024-11-08T06:00:00	1	Precipitación	0
117228	7	Sololá	701	Sololá	4	Finca Santa Victoria	7	Julio	2023-07-07T00:00:00	2024-11-08T06:00:00	8	Radiación solar	2
117229	7	Sololá	701	Sololá	4	Finca Santa Victoria	7	Julio	2023-07-07T00:00:00	2024-11-08T07:00:00	2	Temperatura media	14.1
117230	7	Sololá	701	Sololá	4	Finca Santa Victoria	7	Julio	2023-07-07T00:00:00	2024-11-08T07:00:00	4	Temperatura máxima	14.1
117231	7	Sololá	701	Sololá	4	Finca Santa Victoria	7	Julio	2023-07-07T00:00:00	2024-11-08T07:00:00	3	Temperatura mínima	12.8
117232	7	Sololá	701	Sololá	4	Finca Santa Victoria	7	Julio	2023-07-07T00:00:00	2024-11-08T07:00:00	5	Humedad	88
117233	7	Sololá	701	Sololá	4	Finca Santa Victoria	7	Julio	2023-07-07T00:00:00	2024-11-08T07:00:00	6	Velocidad del viento	1.6
117234	7	Sololá	701	Sololá	4	Finca Santa Victoria	7	Julio	2023-07-07T00:00:00	2024-11-08T07:00:00	7	Dirección del viento	1.61
117235	7	Sololá	701	Sololá	4	Finca Santa Victoria	7	Julio	2023-07-07T00:00:00	2024-11-08T07:00:00	1	Precipitación	0
117236	7	Sololá	701	Sololá	4	Finca Santa Victoria	7	Julio	2023-07-07T00:00:00	2024-11-08T07:00:00	8	Radiación solar	41
117237	7	Sololá	701	Sololá	4	Finca Santa Victoria	7	Julio	2023-07-07T00:00:00	2024-11-08T08:00:00	2	Temperatura media	17.9
117238	7	Sololá	701	Sololá	4	Finca Santa Victoria	7	Julio	2023-07-07T00:00:00	2024-11-08T08:00:00	4	Temperatura máxima	17.9
117239	7	Sololá	701	Sololá	4	Finca Santa Victoria	7	Julio	2023-07-07T00:00:00	2024-11-08T08:00:00	3	Temperatura mínima	14.1
117240	7	Sololá	701	Sololá	4	Finca Santa Victoria	7	Julio	2023-07-07T00:00:00	2024-11-08T08:00:00	5	Humedad	75
117241	7	Sololá	701	Sololá	4	Finca Santa Victoria	7	Julio	2023-07-07T00:00:00	2024-11-08T08:00:00	6	Velocidad del viento	1.6
117242	7	Sololá	701	Sololá	4	Finca Santa Victoria	7	Julio	2023-07-07T00:00:00	2024-11-08T08:00:00	7	Dirección del viento	1.61
117243	7	Sololá	701	Sololá	4	Finca Santa Victoria	7	Julio	2023-07-07T00:00:00	2024-11-08T08:00:00	1	Precipitación	0
117244	7	Sololá	701	Sololá	4	Finca Santa Victoria	7	Julio	2023-07-07T00:00:00	2024-11-08T08:00:00	8	Radiación solar	252
117245	7	Sololá	701	Sololá	4	Finca Santa Victoria	7	Julio	2023-07-07T00:00:00	2024-11-08T09:00:00	2	Temperatura media	20.3
117246	7	Sololá	701	Sololá	4	Finca Santa Victoria	7	Julio	2023-07-07T00:00:00	2024-11-08T09:00:00	4	Temperatura máxima	20.3
117247	7	Sololá	701	Sololá	4	Finca Santa Victoria	7	Julio	2023-07-07T00:00:00	2024-11-08T09:00:00	3	Temperatura mínima	18
117248	7	Sololá	701	Sololá	4	Finca Santa Victoria	7	Julio	2023-07-07T00:00:00	2024-11-08T09:00:00	5	Humedad	62
117249	7	Sololá	701	Sololá	4	Finca Santa Victoria	7	Julio	2023-07-07T00:00:00	2024-11-08T09:00:00	6	Velocidad del viento	1.6
117250	7	Sololá	701	Sololá	4	Finca Santa Victoria	7	Julio	2023-07-07T00:00:00	2024-11-08T09:00:00	7	Dirección del viento	1.61
117251	7	Sololá	701	Sololá	4	Finca Santa Victoria	7	Julio	2023-07-07T00:00:00	2024-11-08T09:00:00	1	Precipitación	0
117252	7	Sololá	701	Sololá	4	Finca Santa Victoria	7	Julio	2023-07-07T00:00:00	2024-11-08T09:00:00	8	Radiación solar	453
117253	7	Sololá	701	Sololá	4	Finca Santa Victoria	7	Julio	2023-07-07T00:00:00	2024-11-08T10:00:00	2	Temperatura media	21.8
117254	7	Sololá	701	Sololá	4	Finca Santa Victoria	7	Julio	2023-07-07T00:00:00	2024-11-08T10:00:00	4	Temperatura máxima	21.8
117255	7	Sololá	701	Sololá	4	Finca Santa Victoria	7	Julio	2023-07-07T00:00:00	2024-11-08T10:00:00	3	Temperatura mínima	20.3
117256	7	Sololá	701	Sololá	4	Finca Santa Victoria	7	Julio	2023-07-07T00:00:00	2024-11-08T10:00:00	5	Humedad	64
117257	7	Sololá	701	Sololá	4	Finca Santa Victoria	7	Julio	2023-07-07T00:00:00	2024-11-08T10:00:00	6	Velocidad del viento	1.6
117258	7	Sololá	701	Sololá	4	Finca Santa Victoria	7	Julio	2023-07-07T00:00:00	2024-11-08T10:00:00	7	Dirección del viento	1.61
117259	7	Sololá	701	Sololá	4	Finca Santa Victoria	7	Julio	2023-07-07T00:00:00	2024-11-08T10:00:00	1	Precipitación	0
117260	7	Sololá	701	Sololá	4	Finca Santa Victoria	7	Julio	2023-07-07T00:00:00	2024-11-08T10:00:00	8	Radiación solar	189
117261	7	Sololá	701	Sololá	4	Finca Santa Victoria	7	Julio	2023-07-07T00:00:00	2024-11-08T11:00:00	2	Temperatura media	18.4
117262	7	Sololá	701	Sololá	4	Finca Santa Victoria	7	Julio	2023-07-07T00:00:00	2024-11-08T11:00:00	4	Temperatura máxima	22.3
117263	7	Sololá	701	Sololá	4	Finca Santa Victoria	7	Julio	2023-07-07T00:00:00	2024-11-08T11:00:00	3	Temperatura mínima	18.4
117264	7	Sololá	701	Sololá	4	Finca Santa Victoria	7	Julio	2023-07-07T00:00:00	2024-11-08T11:00:00	5	Humedad	83
117265	7	Sololá	701	Sololá	4	Finca Santa Victoria	7	Julio	2023-07-07T00:00:00	2024-11-08T11:00:00	6	Velocidad del viento	1.6
117266	7	Sololá	701	Sololá	4	Finca Santa Victoria	7	Julio	2023-07-07T00:00:00	2024-11-08T11:00:00	7	Dirección del viento	1.61
117267	7	Sololá	701	Sololá	4	Finca Santa Victoria	7	Julio	2023-07-07T00:00:00	2024-11-08T11:00:00	1	Precipitación	0
117268	7	Sololá	701	Sololá	4	Finca Santa Victoria	7	Julio	2023-07-07T00:00:00	2024-11-08T11:00:00	8	Radiación solar	110
117269	7	Sololá	701	Sololá	4	Finca Santa Victoria	7	Julio	2023-07-07T00:00:00	2024-11-08T12:00:00	2	Temperatura media	16.2
117270	7	Sololá	701	Sololá	4	Finca Santa Victoria	7	Julio	2023-07-07T00:00:00	2024-11-08T12:00:00	4	Temperatura máxima	18.4
117271	7	Sololá	701	Sololá	4	Finca Santa Victoria	7	Julio	2023-07-07T00:00:00	2024-11-08T12:00:00	3	Temperatura mínima	16.1
117272	7	Sololá	701	Sololá	4	Finca Santa Victoria	7	Julio	2023-07-07T00:00:00	2024-11-08T12:00:00	5	Humedad	94
117273	7	Sololá	701	Sololá	4	Finca Santa Victoria	7	Julio	2023-07-07T00:00:00	2024-11-08T12:00:00	6	Velocidad del viento	3.2
117274	7	Sololá	701	Sololá	4	Finca Santa Victoria	7	Julio	2023-07-07T00:00:00	2024-11-08T12:00:00	7	Dirección del viento	3.22
117275	7	Sololá	701	Sololá	4	Finca Santa Victoria	7	Julio	2023-07-07T00:00:00	2024-11-08T12:00:00	1	Precipitación	0
117276	7	Sololá	701	Sololá	4	Finca Santa Victoria	7	Julio	2023-07-07T00:00:00	2024-11-08T12:00:00	8	Radiación solar	90
117277	7	Sololá	701	Sololá	4	Finca Santa Victoria	7	Julio	2023-07-07T00:00:00	2024-11-08T13:00:00	2	Temperatura media	17.4
117278	7	Sololá	701	Sololá	4	Finca Santa Victoria	7	Julio	2023-07-07T00:00:00	2024-11-08T13:00:00	4	Temperatura máxima	17.6
117279	7	Sololá	701	Sololá	4	Finca Santa Victoria	7	Julio	2023-07-07T00:00:00	2024-11-08T13:00:00	3	Temperatura mínima	16.2
117280	7	Sololá	701	Sololá	4	Finca Santa Victoria	7	Julio	2023-07-07T00:00:00	2024-11-08T13:00:00	5	Humedad	90
117281	7	Sololá	701	Sololá	4	Finca Santa Victoria	7	Julio	2023-07-07T00:00:00	2024-11-08T13:00:00	6	Velocidad del viento	3.2
117282	7	Sololá	701	Sololá	4	Finca Santa Victoria	7	Julio	2023-07-07T00:00:00	2024-11-08T13:00:00	7	Dirección del viento	3.22
117283	7	Sololá	701	Sololá	4	Finca Santa Victoria	7	Julio	2023-07-07T00:00:00	2024-11-08T13:00:00	1	Precipitación	0
117284	7	Sololá	701	Sololá	4	Finca Santa Victoria	7	Julio	2023-07-07T00:00:00	2024-11-08T13:00:00	8	Radiación solar	200
117285	7	Sololá	701	Sololá	4	Finca Santa Victoria	7	Julio	2023-07-07T00:00:00	2024-11-08T14:00:00	2	Temperatura media	16.1
117286	7	Sololá	701	Sololá	4	Finca Santa Victoria	7	Julio	2023-07-07T00:00:00	2024-11-08T14:00:00	4	Temperatura máxima	17.4
117287	7	Sololá	701	Sololá	4	Finca Santa Victoria	7	Julio	2023-07-07T00:00:00	2024-11-08T14:00:00	3	Temperatura mínima	16.1
117288	7	Sololá	701	Sololá	4	Finca Santa Victoria	7	Julio	2023-07-07T00:00:00	2024-11-08T14:00:00	5	Humedad	96
117289	7	Sololá	701	Sololá	4	Finca Santa Victoria	7	Julio	2023-07-07T00:00:00	2024-11-08T14:00:00	6	Velocidad del viento	1.6
117290	7	Sololá	701	Sololá	4	Finca Santa Victoria	7	Julio	2023-07-07T00:00:00	2024-11-08T14:00:00	7	Dirección del viento	1.61
117291	7	Sololá	701	Sololá	4	Finca Santa Victoria	7	Julio	2023-07-07T00:00:00	2024-11-08T14:00:00	1	Precipitación	5
117292	7	Sololá	701	Sololá	4	Finca Santa Victoria	7	Julio	2023-07-07T00:00:00	2024-11-08T14:00:00	8	Radiación solar	84
117293	7	Sololá	701	Sololá	4	Finca Santa Victoria	7	Julio	2023-07-07T00:00:00	2024-11-08T15:00:00	2	Temperatura media	15.5
117294	7	Sololá	701	Sololá	4	Finca Santa Victoria	7	Julio	2023-07-07T00:00:00	2024-11-08T15:00:00	4	Temperatura máxima	16.3
117295	7	Sololá	701	Sololá	4	Finca Santa Victoria	7	Julio	2023-07-07T00:00:00	2024-11-08T15:00:00	3	Temperatura mínima	15.5
117296	7	Sololá	701	Sololá	4	Finca Santa Victoria	7	Julio	2023-07-07T00:00:00	2024-11-08T15:00:00	5	Humedad	97
117297	7	Sololá	701	Sololá	4	Finca Santa Victoria	7	Julio	2023-07-07T00:00:00	2024-11-08T15:00:00	6	Velocidad del viento	1.6
117298	7	Sololá	701	Sololá	4	Finca Santa Victoria	7	Julio	2023-07-07T00:00:00	2024-11-08T15:00:00	7	Dirección del viento	1.61
117299	7	Sololá	701	Sololá	4	Finca Santa Victoria	7	Julio	2023-07-07T00:00:00	2024-11-08T15:00:00	1	Precipitación	0.2
117300	7	Sololá	701	Sololá	4	Finca Santa Victoria	7	Julio	2023-07-07T00:00:00	2024-11-08T15:00:00	8	Radiación solar	106
117301	7	Sololá	701	Sololá	4	Finca Santa Victoria	7	Julio	2023-07-07T00:00:00	2024-11-08T16:00:00	2	Temperatura media	14.9
117302	7	Sololá	701	Sololá	4	Finca Santa Victoria	7	Julio	2023-07-07T00:00:00	2024-11-08T16:00:00	4	Temperatura máxima	15.6
117303	7	Sololá	701	Sololá	4	Finca Santa Victoria	7	Julio	2023-07-07T00:00:00	2024-11-08T16:00:00	3	Temperatura mínima	14.9
117304	7	Sololá	701	Sololá	4	Finca Santa Victoria	7	Julio	2023-07-07T00:00:00	2024-11-08T16:00:00	5	Humedad	98
117305	7	Sololá	701	Sololá	4	Finca Santa Victoria	7	Julio	2023-07-07T00:00:00	2024-11-08T16:00:00	6	Velocidad del viento	1.6
117306	7	Sololá	701	Sololá	4	Finca Santa Victoria	7	Julio	2023-07-07T00:00:00	2024-11-08T16:00:00	7	Dirección del viento	1.61
117307	7	Sololá	701	Sololá	4	Finca Santa Victoria	7	Julio	2023-07-07T00:00:00	2024-11-08T16:00:00	1	Precipitación	8.2
117308	7	Sololá	701	Sololá	4	Finca Santa Victoria	7	Julio	2023-07-07T00:00:00	2024-11-08T16:00:00	8	Radiación solar	10
117309	7	Sololá	701	Sololá	4	Finca Santa Victoria	7	Julio	2023-07-07T00:00:00	2024-11-08T17:00:00	2	Temperatura media	14.2
117310	7	Sololá	701	Sololá	4	Finca Santa Victoria	7	Julio	2023-07-07T00:00:00	2024-11-08T17:00:00	4	Temperatura máxima	14.9
117311	7	Sololá	701	Sololá	4	Finca Santa Victoria	7	Julio	2023-07-07T00:00:00	2024-11-08T17:00:00	3	Temperatura mínima	14.2
117312	7	Sololá	701	Sololá	4	Finca Santa Victoria	7	Julio	2023-07-07T00:00:00	2024-11-08T17:00:00	5	Humedad	98
117313	7	Sololá	701	Sololá	4	Finca Santa Victoria	7	Julio	2023-07-07T00:00:00	2024-11-08T17:00:00	6	Velocidad del viento	1.6
117314	7	Sololá	701	Sololá	4	Finca Santa Victoria	7	Julio	2023-07-07T00:00:00	2024-11-08T17:00:00	7	Dirección del viento	1.61
117315	7	Sololá	701	Sololá	4	Finca Santa Victoria	7	Julio	2023-07-07T00:00:00	2024-11-08T17:00:00	1	Precipitación	26.8
117316	7	Sololá	701	Sololá	4	Finca Santa Victoria	7	Julio	2023-07-07T00:00:00	2024-11-08T17:00:00	8	Radiación solar	7
117317	7	Sololá	701	Sololá	4	Finca Santa Victoria	7	Julio	2023-07-07T00:00:00	2024-11-08T18:00:00	2	Temperatura media	13.6
117318	7	Sololá	701	Sololá	4	Finca Santa Victoria	7	Julio	2023-07-07T00:00:00	2024-11-08T18:00:00	4	Temperatura máxima	14.2
117319	7	Sololá	701	Sololá	4	Finca Santa Victoria	7	Julio	2023-07-07T00:00:00	2024-11-08T18:00:00	3	Temperatura mínima	13.6
117320	7	Sololá	701	Sololá	4	Finca Santa Victoria	7	Julio	2023-07-07T00:00:00	2024-11-08T18:00:00	5	Humedad	97
117321	7	Sololá	701	Sololá	4	Finca Santa Victoria	7	Julio	2023-07-07T00:00:00	2024-11-08T18:00:00	6	Velocidad del viento	1.6
117322	7	Sololá	701	Sololá	4	Finca Santa Victoria	7	Julio	2023-07-07T00:00:00	2024-11-08T18:00:00	7	Dirección del viento	1.61
117323	7	Sololá	701	Sololá	4	Finca Santa Victoria	7	Julio	2023-07-07T00:00:00	2024-11-08T18:00:00	1	Precipitación	7
117324	7	Sololá	701	Sololá	4	Finca Santa Victoria	7	Julio	2023-07-07T00:00:00	2024-11-08T18:00:00	8	Radiación solar	6
117325	7	Sololá	701	Sololá	4	Finca Santa Victoria	7	Julio	2023-07-07T00:00:00	2024-11-08T19:00:00	2	Temperatura media	13.2
117326	7	Sololá	701	Sololá	4	Finca Santa Victoria	7	Julio	2023-07-07T00:00:00	2024-11-08T19:00:00	4	Temperatura máxima	13.6
117327	7	Sololá	701	Sololá	4	Finca Santa Victoria	7	Julio	2023-07-07T00:00:00	2024-11-08T19:00:00	3	Temperatura mínima	13.2
117328	7	Sololá	701	Sololá	4	Finca Santa Victoria	7	Julio	2023-07-07T00:00:00	2024-11-08T19:00:00	5	Humedad	98
117329	7	Sololá	701	Sololá	4	Finca Santa Victoria	7	Julio	2023-07-07T00:00:00	2024-11-08T19:00:00	6	Velocidad del viento	0
117330	7	Sololá	701	Sololá	4	Finca Santa Victoria	7	Julio	2023-07-07T00:00:00	2024-11-08T19:00:00	7	Dirección del viento	0
117331	7	Sololá	701	Sololá	4	Finca Santa Victoria	7	Julio	2023-07-07T00:00:00	2024-11-08T19:00:00	1	Precipitación	1.2
117332	7	Sololá	701	Sololá	4	Finca Santa Victoria	7	Julio	2023-07-07T00:00:00	2024-11-08T19:00:00	8	Radiación solar	0
117333	7	Sololá	701	Sololá	4	Finca Santa Victoria	7	Julio	2023-07-07T00:00:00	2024-11-08T20:00:00	2	Temperatura media	13.1
117334	7	Sololá	701	Sololá	4	Finca Santa Victoria	7	Julio	2023-07-07T00:00:00	2024-11-08T20:00:00	4	Temperatura máxima	13.2
117335	7	Sololá	701	Sololá	4	Finca Santa Victoria	7	Julio	2023-07-07T00:00:00	2024-11-08T20:00:00	3	Temperatura mínima	13.1
117336	7	Sololá	701	Sololá	4	Finca Santa Victoria	7	Julio	2023-07-07T00:00:00	2024-11-08T20:00:00	5	Humedad	98
117337	7	Sololá	701	Sololá	4	Finca Santa Victoria	7	Julio	2023-07-07T00:00:00	2024-11-08T20:00:00	6	Velocidad del viento	0
117338	7	Sololá	701	Sololá	4	Finca Santa Victoria	7	Julio	2023-07-07T00:00:00	2024-11-08T20:00:00	7	Dirección del viento	0
117339	7	Sololá	701	Sololá	4	Finca Santa Victoria	7	Julio	2023-07-07T00:00:00	2024-11-08T20:00:00	1	Precipitación	0
117340	7	Sololá	701	Sololá	4	Finca Santa Victoria	7	Julio	2023-07-07T00:00:00	2024-11-08T20:00:00	8	Radiación solar	0
117341	7	Sololá	701	Sololá	4	Finca Santa Victoria	7	Julio	2023-07-07T00:00:00	2024-11-08T21:00:00	2	Temperatura media	12.9
117342	7	Sololá	701	Sololá	4	Finca Santa Victoria	7	Julio	2023-07-07T00:00:00	2024-11-08T21:00:00	4	Temperatura máxima	13.1
117343	7	Sololá	701	Sololá	4	Finca Santa Victoria	7	Julio	2023-07-07T00:00:00	2024-11-08T21:00:00	3	Temperatura mínima	12.8
117344	7	Sololá	701	Sololá	4	Finca Santa Victoria	7	Julio	2023-07-07T00:00:00	2024-11-08T21:00:00	5	Humedad	98
117345	7	Sololá	701	Sololá	4	Finca Santa Victoria	7	Julio	2023-07-07T00:00:00	2024-11-08T21:00:00	6	Velocidad del viento	0
117346	7	Sololá	701	Sololá	4	Finca Santa Victoria	7	Julio	2023-07-07T00:00:00	2024-11-08T21:00:00	7	Dirección del viento	0
117347	7	Sololá	701	Sololá	4	Finca Santa Victoria	7	Julio	2023-07-07T00:00:00	2024-11-08T21:00:00	1	Precipitación	0
117348	7	Sololá	701	Sololá	4	Finca Santa Victoria	7	Julio	2023-07-07T00:00:00	2024-11-08T21:00:00	8	Radiación solar	0
117349	7	Sololá	701	Sololá	4	Finca Santa Victoria	7	Julio	2023-07-07T00:00:00	2024-11-08T22:00:00	2	Temperatura media	13.1
117350	7	Sololá	701	Sololá	4	Finca Santa Victoria	7	Julio	2023-07-07T00:00:00	2024-11-08T22:00:00	4	Temperatura máxima	13.1
117351	7	Sololá	701	Sololá	4	Finca Santa Victoria	7	Julio	2023-07-07T00:00:00	2024-11-08T22:00:00	3	Temperatura mínima	12.8
117352	7	Sololá	701	Sololá	4	Finca Santa Victoria	7	Julio	2023-07-07T00:00:00	2024-11-08T22:00:00	5	Humedad	98
117353	7	Sololá	701	Sololá	4	Finca Santa Victoria	7	Julio	2023-07-07T00:00:00	2024-11-08T22:00:00	6	Velocidad del viento	0
117354	7	Sololá	701	Sololá	4	Finca Santa Victoria	7	Julio	2023-07-07T00:00:00	2024-11-08T22:00:00	7	Dirección del viento	0
117355	7	Sololá	701	Sololá	4	Finca Santa Victoria	7	Julio	2023-07-07T00:00:00	2024-11-08T22:00:00	1	Precipitación	0
117356	7	Sololá	701	Sololá	4	Finca Santa Victoria	7	Julio	2023-07-07T00:00:00	2024-11-08T22:00:00	8	Radiación solar	0
117357	7	Sololá	701	Sololá	4	Finca Santa Victoria	7	Julio	2023-07-07T00:00:00	2024-11-08T23:00:00	2	Temperatura media	12.9
117358	7	Sololá	701	Sololá	4	Finca Santa Victoria	7	Julio	2023-07-07T00:00:00	2024-11-08T23:00:00	4	Temperatura máxima	13.1
117359	7	Sololá	701	Sololá	4	Finca Santa Victoria	7	Julio	2023-07-07T00:00:00	2024-11-08T23:00:00	3	Temperatura mínima	12.8
117360	7	Sololá	701	Sololá	4	Finca Santa Victoria	7	Julio	2023-07-07T00:00:00	2024-11-08T23:00:00	5	Humedad	98
117361	7	Sololá	701	Sololá	4	Finca Santa Victoria	7	Julio	2023-07-07T00:00:00	2024-11-08T23:00:00	6	Velocidad del viento	0
117362	7	Sololá	701	Sololá	4	Finca Santa Victoria	7	Julio	2023-07-07T00:00:00	2024-11-08T23:00:00	7	Dirección del viento	0
117363	7	Sololá	701	Sololá	4	Finca Santa Victoria	7	Julio	2023-07-07T00:00:00	2024-11-08T23:00:00	1	Precipitación	0
117364	7	Sololá	701	Sololá	4	Finca Santa Victoria	7	Julio	2023-07-07T00:00:00	2024-11-08T23:00:00	8	Radiación solar	0
117365	7	Sololá	701	Sololá	4	Finca Santa Victoria	7	Julio	2023-08-07T00:00:00	2024-11-08T00:00:00	2	Temperatura media	12.9
117366	7	Sololá	701	Sololá	4	Finca Santa Victoria	7	Julio	2023-08-07T00:00:00	2024-11-08T00:00:00	4	Temperatura máxima	12.9
117367	7	Sololá	701	Sololá	4	Finca Santa Victoria	7	Julio	2023-08-07T00:00:00	2024-11-08T00:00:00	3	Temperatura mínima	12.9
117368	7	Sololá	701	Sololá	4	Finca Santa Victoria	7	Julio	2023-08-07T00:00:00	2024-11-08T00:00:00	5	Humedad	98
117369	7	Sololá	701	Sololá	4	Finca Santa Victoria	7	Julio	2023-08-07T00:00:00	2024-11-08T00:00:00	6	Velocidad del viento	0
117370	7	Sololá	701	Sololá	4	Finca Santa Victoria	7	Julio	2023-08-07T00:00:00	2024-11-08T00:00:00	7	Dirección del viento	0
117371	7	Sololá	701	Sololá	4	Finca Santa Victoria	7	Julio	2023-08-07T00:00:00	2024-11-08T00:00:00	1	Precipitación	0
117372	7	Sololá	701	Sololá	4	Finca Santa Victoria	7	Julio	2023-08-07T00:00:00	2024-11-08T00:00:00	8	Radiación solar	0
117373	7	Sololá	701	Sololá	4	Finca Santa Victoria	7	Julio	2023-08-07T00:00:00	2024-11-08T01:00:00	2	Temperatura media	13
117374	7	Sololá	701	Sololá	4	Finca Santa Victoria	7	Julio	2023-08-07T00:00:00	2024-11-08T01:00:00	4	Temperatura máxima	13.1
117375	7	Sololá	701	Sololá	4	Finca Santa Victoria	7	Julio	2023-08-07T00:00:00	2024-11-08T01:00:00	3	Temperatura mínima	12.9
117376	7	Sololá	701	Sololá	4	Finca Santa Victoria	7	Julio	2023-08-07T00:00:00	2024-11-08T01:00:00	5	Humedad	98
117377	7	Sololá	701	Sololá	4	Finca Santa Victoria	7	Julio	2023-08-07T00:00:00	2024-11-08T01:00:00	6	Velocidad del viento	0
117378	7	Sololá	701	Sololá	4	Finca Santa Victoria	7	Julio	2023-08-07T00:00:00	2024-11-08T01:00:00	7	Dirección del viento	0
117379	7	Sololá	701	Sololá	4	Finca Santa Victoria	7	Julio	2023-08-07T00:00:00	2024-11-08T01:00:00	1	Precipitación	0
117380	7	Sololá	701	Sololá	4	Finca Santa Victoria	7	Julio	2023-08-07T00:00:00	2024-11-08T01:00:00	8	Radiación solar	0
117381	7	Sololá	701	Sololá	4	Finca Santa Victoria	7	Julio	2023-08-07T00:00:00	2024-11-08T02:00:00	2	Temperatura media	13.2
117382	7	Sololá	701	Sololá	4	Finca Santa Victoria	7	Julio	2023-08-07T00:00:00	2024-11-08T02:00:00	4	Temperatura máxima	13.2
117383	7	Sololá	701	Sololá	4	Finca Santa Victoria	7	Julio	2023-08-07T00:00:00	2024-11-08T02:00:00	3	Temperatura mínima	13
117384	7	Sololá	701	Sololá	4	Finca Santa Victoria	7	Julio	2023-08-07T00:00:00	2024-11-08T02:00:00	5	Humedad	98
117385	7	Sololá	701	Sololá	4	Finca Santa Victoria	7	Julio	2023-08-07T00:00:00	2024-11-08T02:00:00	6	Velocidad del viento	0
117386	7	Sololá	701	Sololá	4	Finca Santa Victoria	7	Julio	2023-08-07T00:00:00	2024-11-08T02:00:00	7	Dirección del viento	0
117387	7	Sololá	701	Sololá	4	Finca Santa Victoria	7	Julio	2023-08-07T00:00:00	2024-11-08T02:00:00	1	Precipitación	0
117388	7	Sololá	701	Sololá	4	Finca Santa Victoria	7	Julio	2023-08-07T00:00:00	2024-11-08T02:00:00	8	Radiación solar	0
117389	7	Sololá	701	Sololá	4	Finca Santa Victoria	7	Julio	2023-08-07T00:00:00	2024-11-08T03:00:00	2	Temperatura media	13.3
117390	7	Sololá	701	Sololá	4	Finca Santa Victoria	7	Julio	2023-08-07T00:00:00	2024-11-08T03:00:00	4	Temperatura máxima	13.3
117391	7	Sololá	701	Sololá	4	Finca Santa Victoria	7	Julio	2023-08-07T00:00:00	2024-11-08T03:00:00	3	Temperatura mínima	13.2
117392	7	Sololá	701	Sololá	4	Finca Santa Victoria	7	Julio	2023-08-07T00:00:00	2024-11-08T03:00:00	5	Humedad	98
117393	7	Sololá	701	Sololá	4	Finca Santa Victoria	7	Julio	2023-08-07T00:00:00	2024-11-08T03:00:00	6	Velocidad del viento	0
117394	7	Sololá	701	Sololá	4	Finca Santa Victoria	7	Julio	2023-08-07T00:00:00	2024-11-08T03:00:00	7	Dirección del viento	0
117395	7	Sololá	701	Sololá	4	Finca Santa Victoria	7	Julio	2023-08-07T00:00:00	2024-11-08T03:00:00	1	Precipitación	0
117396	7	Sololá	701	Sololá	4	Finca Santa Victoria	7	Julio	2023-08-07T00:00:00	2024-11-08T03:00:00	8	Radiación solar	0
117397	7	Sololá	701	Sololá	4	Finca Santa Victoria	7	Julio	2023-08-07T00:00:00	2024-11-08T04:00:00	2	Temperatura media	13.3
117398	7	Sololá	701	Sololá	4	Finca Santa Victoria	7	Julio	2023-08-07T00:00:00	2024-11-08T04:00:00	4	Temperatura máxima	13.4
117399	7	Sololá	701	Sololá	4	Finca Santa Victoria	7	Julio	2023-08-07T00:00:00	2024-11-08T04:00:00	3	Temperatura mínima	13.3
117400	7	Sololá	701	Sololá	4	Finca Santa Victoria	7	Julio	2023-08-07T00:00:00	2024-11-08T04:00:00	5	Humedad	98
117401	7	Sololá	701	Sololá	4	Finca Santa Victoria	7	Julio	2023-08-07T00:00:00	2024-11-08T04:00:00	6	Velocidad del viento	0
117402	7	Sololá	701	Sololá	4	Finca Santa Victoria	7	Julio	2023-08-07T00:00:00	2024-11-08T04:00:00	7	Dirección del viento	0
117403	7	Sololá	701	Sololá	4	Finca Santa Victoria	7	Julio	2023-08-07T00:00:00	2024-11-08T04:00:00	1	Precipitación	0
117404	7	Sololá	701	Sololá	4	Finca Santa Victoria	7	Julio	2023-08-07T00:00:00	2024-11-08T04:00:00	8	Radiación solar	0
117405	7	Sololá	701	Sololá	4	Finca Santa Victoria	7	Julio	2023-08-07T00:00:00	2024-11-08T05:00:00	2	Temperatura media	12.9
117406	7	Sololá	701	Sololá	4	Finca Santa Victoria	7	Julio	2023-08-07T00:00:00	2024-11-08T05:00:00	4	Temperatura máxima	13.3
117407	7	Sololá	701	Sololá	4	Finca Santa Victoria	7	Julio	2023-08-07T00:00:00	2024-11-08T05:00:00	3	Temperatura mínima	12.9
117408	7	Sololá	701	Sololá	4	Finca Santa Victoria	7	Julio	2023-08-07T00:00:00	2024-11-08T05:00:00	5	Humedad	98
117409	7	Sololá	701	Sololá	4	Finca Santa Victoria	7	Julio	2023-08-07T00:00:00	2024-11-08T05:00:00	6	Velocidad del viento	0
117410	7	Sololá	701	Sololá	4	Finca Santa Victoria	7	Julio	2023-08-07T00:00:00	2024-11-08T05:00:00	7	Dirección del viento	0
117411	7	Sololá	701	Sololá	4	Finca Santa Victoria	7	Julio	2023-08-07T00:00:00	2024-11-08T05:00:00	1	Precipitación	0
117412	7	Sololá	701	Sololá	4	Finca Santa Victoria	7	Julio	2023-08-07T00:00:00	2024-11-08T05:00:00	8	Radiación solar	0
117413	7	Sololá	701	Sololá	4	Finca Santa Victoria	7	Julio	2023-08-07T00:00:00	2024-11-08T06:00:00	2	Temperatura media	12.6
117414	7	Sololá	701	Sololá	4	Finca Santa Victoria	7	Julio	2023-08-07T00:00:00	2024-11-08T06:00:00	4	Temperatura máxima	12.9
117415	7	Sololá	701	Sololá	4	Finca Santa Victoria	7	Julio	2023-08-07T00:00:00	2024-11-08T06:00:00	3	Temperatura mínima	12.6
117416	7	Sololá	701	Sololá	4	Finca Santa Victoria	7	Julio	2023-08-07T00:00:00	2024-11-08T06:00:00	5	Humedad	98
117417	7	Sololá	701	Sololá	4	Finca Santa Victoria	7	Julio	2023-08-07T00:00:00	2024-11-08T06:00:00	6	Velocidad del viento	0
117418	7	Sololá	701	Sololá	4	Finca Santa Victoria	7	Julio	2023-08-07T00:00:00	2024-11-08T06:00:00	7	Dirección del viento	0
117419	7	Sololá	701	Sololá	4	Finca Santa Victoria	7	Julio	2023-08-07T00:00:00	2024-11-08T06:00:00	1	Precipitación	0
117420	7	Sololá	701	Sololá	4	Finca Santa Victoria	7	Julio	2023-08-07T00:00:00	2024-11-08T06:00:00	8	Radiación solar	1
117421	7	Sololá	701	Sololá	4	Finca Santa Victoria	7	Julio	2023-08-07T00:00:00	2024-11-08T07:00:00	2	Temperatura media	13.1
117422	7	Sololá	701	Sololá	4	Finca Santa Victoria	7	Julio	2023-08-07T00:00:00	2024-11-08T07:00:00	4	Temperatura máxima	13.1
117423	7	Sololá	701	Sololá	4	Finca Santa Victoria	7	Julio	2023-08-07T00:00:00	2024-11-08T07:00:00	3	Temperatura mínima	12.6
117424	7	Sololá	701	Sololá	4	Finca Santa Victoria	7	Julio	2023-08-07T00:00:00	2024-11-08T07:00:00	5	Humedad	98
117425	7	Sololá	701	Sololá	4	Finca Santa Victoria	7	Julio	2023-08-07T00:00:00	2024-11-08T07:00:00	6	Velocidad del viento	0
117426	7	Sololá	701	Sololá	4	Finca Santa Victoria	7	Julio	2023-08-07T00:00:00	2024-11-08T07:00:00	7	Dirección del viento	0
117427	7	Sololá	701	Sololá	4	Finca Santa Victoria	7	Julio	2023-08-07T00:00:00	2024-11-08T07:00:00	1	Precipitación	0
117428	7	Sololá	701	Sololá	4	Finca Santa Victoria	7	Julio	2023-08-07T00:00:00	2024-11-08T07:00:00	8	Radiación solar	30
117429	7	Sololá	701	Sololá	4	Finca Santa Victoria	7	Julio	2023-08-07T00:00:00	2024-11-08T08:00:00	2	Temperatura media	14
117430	7	Sololá	701	Sololá	4	Finca Santa Victoria	7	Julio	2023-08-07T00:00:00	2024-11-08T08:00:00	4	Temperatura máxima	14
117431	7	Sololá	701	Sololá	4	Finca Santa Victoria	7	Julio	2023-08-07T00:00:00	2024-11-08T08:00:00	3	Temperatura mínima	13.1
117432	7	Sololá	701	Sololá	4	Finca Santa Victoria	7	Julio	2023-08-07T00:00:00	2024-11-08T08:00:00	5	Humedad	98
117433	7	Sololá	701	Sololá	4	Finca Santa Victoria	7	Julio	2023-08-07T00:00:00	2024-11-08T08:00:00	6	Velocidad del viento	0
117434	7	Sololá	701	Sololá	4	Finca Santa Victoria	7	Julio	2023-08-07T00:00:00	2024-11-08T08:00:00	7	Dirección del viento	0
117435	7	Sololá	701	Sololá	4	Finca Santa Victoria	7	Julio	2023-08-07T00:00:00	2024-11-08T08:00:00	1	Precipitación	0
117436	7	Sololá	701	Sololá	4	Finca Santa Victoria	7	Julio	2023-08-07T00:00:00	2024-11-08T08:00:00	8	Radiación solar	86
117437	7	Sololá	701	Sololá	4	Finca Santa Victoria	7	Julio	2023-08-07T00:00:00	2024-11-08T09:00:00	2	Temperatura media	14.8
117438	7	Sololá	701	Sololá	4	Finca Santa Victoria	7	Julio	2023-08-07T00:00:00	2024-11-08T09:00:00	4	Temperatura máxima	14.8
117439	7	Sololá	701	Sololá	4	Finca Santa Victoria	7	Julio	2023-08-07T00:00:00	2024-11-08T09:00:00	3	Temperatura mínima	14
117440	7	Sololá	701	Sololá	4	Finca Santa Victoria	7	Julio	2023-08-07T00:00:00	2024-11-08T09:00:00	5	Humedad	92
117441	7	Sololá	701	Sololá	4	Finca Santa Victoria	7	Julio	2023-08-07T00:00:00	2024-11-08T09:00:00	6	Velocidad del viento	0
117442	7	Sololá	701	Sololá	4	Finca Santa Victoria	7	Julio	2023-08-07T00:00:00	2024-11-08T09:00:00	7	Dirección del viento	0
117443	7	Sololá	701	Sololá	4	Finca Santa Victoria	7	Julio	2023-08-07T00:00:00	2024-11-08T09:00:00	1	Precipitación	0
117444	7	Sololá	701	Sololá	4	Finca Santa Victoria	7	Julio	2023-08-07T00:00:00	2024-11-08T09:00:00	8	Radiación solar	137
117445	7	Sololá	701	Sololá	4	Finca Santa Victoria	7	Julio	2023-08-07T00:00:00	2024-11-08T10:00:00	2	Temperatura media	16.1
117446	7	Sololá	701	Sololá	4	Finca Santa Victoria	7	Julio	2023-08-07T00:00:00	2024-11-08T10:00:00	4	Temperatura máxima	16.1
117447	7	Sololá	701	Sololá	4	Finca Santa Victoria	7	Julio	2023-08-07T00:00:00	2024-11-08T10:00:00	3	Temperatura mínima	14.8
117448	7	Sololá	701	Sololá	4	Finca Santa Victoria	7	Julio	2023-08-07T00:00:00	2024-11-08T10:00:00	5	Humedad	92
117449	7	Sololá	701	Sololá	4	Finca Santa Victoria	7	Julio	2023-08-07T00:00:00	2024-11-08T10:00:00	6	Velocidad del viento	0
117450	7	Sololá	701	Sololá	4	Finca Santa Victoria	7	Julio	2023-08-07T00:00:00	2024-11-08T10:00:00	7	Dirección del viento	0
117451	7	Sololá	701	Sololá	4	Finca Santa Victoria	7	Julio	2023-08-07T00:00:00	2024-11-08T10:00:00	1	Precipitación	0
117452	7	Sololá	701	Sololá	4	Finca Santa Victoria	7	Julio	2023-08-07T00:00:00	2024-11-08T10:00:00	8	Radiación solar	222
117453	7	Sololá	701	Sololá	4	Finca Santa Victoria	7	Julio	2023-08-07T00:00:00	2024-11-08T11:00:00	2	Temperatura media	14.9
117454	7	Sololá	701	Sololá	4	Finca Santa Victoria	7	Julio	2023-08-07T00:00:00	2024-11-08T11:00:00	4	Temperatura máxima	16.1
117455	7	Sololá	701	Sololá	4	Finca Santa Victoria	7	Julio	2023-08-07T00:00:00	2024-11-08T11:00:00	3	Temperatura mínima	14.9
117456	7	Sololá	701	Sololá	4	Finca Santa Victoria	7	Julio	2023-08-07T00:00:00	2024-11-08T11:00:00	5	Humedad	96
117457	7	Sololá	701	Sololá	4	Finca Santa Victoria	7	Julio	2023-08-07T00:00:00	2024-11-08T11:00:00	6	Velocidad del viento	1.6
117458	7	Sololá	701	Sololá	4	Finca Santa Victoria	7	Julio	2023-08-07T00:00:00	2024-11-08T11:00:00	7	Dirección del viento	1.61
117459	7	Sololá	701	Sololá	4	Finca Santa Victoria	7	Julio	2023-08-07T00:00:00	2024-11-08T11:00:00	1	Precipitación	0
117460	7	Sololá	701	Sololá	4	Finca Santa Victoria	7	Julio	2023-08-07T00:00:00	2024-11-08T11:00:00	8	Radiación solar	94
117461	7	Sololá	701	Sololá	4	Finca Santa Victoria	7	Julio	2023-08-07T00:00:00	2024-11-08T12:00:00	2	Temperatura media	15.3
117462	7	Sololá	701	Sololá	4	Finca Santa Victoria	7	Julio	2023-08-07T00:00:00	2024-11-08T12:00:00	4	Temperatura máxima	15.3
117463	7	Sololá	701	Sololá	4	Finca Santa Victoria	7	Julio	2023-08-07T00:00:00	2024-11-08T12:00:00	3	Temperatura mínima	14.7
117464	7	Sololá	701	Sololá	4	Finca Santa Victoria	7	Julio	2023-08-07T00:00:00	2024-11-08T12:00:00	5	Humedad	96
117465	7	Sololá	701	Sololá	4	Finca Santa Victoria	7	Julio	2023-08-07T00:00:00	2024-11-08T12:00:00	6	Velocidad del viento	0
117466	7	Sololá	701	Sololá	4	Finca Santa Victoria	7	Julio	2023-08-07T00:00:00	2024-11-08T12:00:00	7	Dirección del viento	0
117467	7	Sololá	701	Sololá	4	Finca Santa Victoria	7	Julio	2023-08-07T00:00:00	2024-11-08T12:00:00	1	Precipitación	0.6
117468	7	Sololá	701	Sololá	4	Finca Santa Victoria	7	Julio	2023-08-07T00:00:00	2024-11-08T12:00:00	8	Radiación solar	139
117469	7	Sololá	701	Sololá	4	Finca Santa Victoria	7	Julio	2023-08-07T00:00:00	2024-11-08T13:00:00	2	Temperatura media	15.4
117470	7	Sololá	701	Sololá	4	Finca Santa Victoria	7	Julio	2023-08-07T00:00:00	2024-11-08T13:00:00	4	Temperatura máxima	15.9
117471	7	Sololá	701	Sololá	4	Finca Santa Victoria	7	Julio	2023-08-07T00:00:00	2024-11-08T13:00:00	3	Temperatura mínima	15.3
117472	7	Sololá	701	Sololá	4	Finca Santa Victoria	7	Julio	2023-08-07T00:00:00	2024-11-08T13:00:00	5	Humedad	96
117473	7	Sololá	701	Sololá	4	Finca Santa Victoria	7	Julio	2023-08-07T00:00:00	2024-11-08T13:00:00	6	Velocidad del viento	1.6
117474	7	Sololá	701	Sololá	4	Finca Santa Victoria	7	Julio	2023-08-07T00:00:00	2024-11-08T13:00:00	7	Dirección del viento	1.61
117475	7	Sololá	701	Sololá	4	Finca Santa Victoria	7	Julio	2023-08-07T00:00:00	2024-11-08T13:00:00	1	Precipitación	2.4
117476	7	Sololá	701	Sololá	4	Finca Santa Victoria	7	Julio	2023-08-07T00:00:00	2024-11-08T13:00:00	8	Radiación solar	162
117477	7	Sololá	701	Sololá	4	Finca Santa Victoria	7	Julio	2023-08-07T00:00:00	2024-11-08T14:00:00	2	Temperatura media	15.6
117478	7	Sololá	701	Sololá	4	Finca Santa Victoria	7	Julio	2023-08-07T00:00:00	2024-11-08T14:00:00	4	Temperatura máxima	15.6
117479	7	Sololá	701	Sololá	4	Finca Santa Victoria	7	Julio	2023-08-07T00:00:00	2024-11-08T14:00:00	3	Temperatura mínima	15.2
117480	7	Sololá	701	Sololá	4	Finca Santa Victoria	7	Julio	2023-08-07T00:00:00	2024-11-08T14:00:00	5	Humedad	96
117481	7	Sololá	701	Sololá	4	Finca Santa Victoria	7	Julio	2023-08-07T00:00:00	2024-11-08T14:00:00	6	Velocidad del viento	0
117482	7	Sololá	701	Sololá	4	Finca Santa Victoria	7	Julio	2023-08-07T00:00:00	2024-11-08T14:00:00	7	Dirección del viento	0
117483	7	Sololá	701	Sololá	4	Finca Santa Victoria	7	Julio	2023-08-07T00:00:00	2024-11-08T14:00:00	1	Precipitación	2.2
117484	7	Sololá	701	Sololá	4	Finca Santa Victoria	7	Julio	2023-08-07T00:00:00	2024-11-08T14:00:00	8	Radiación solar	106
117485	7	Sololá	701	Sololá	4	Finca Santa Victoria	7	Julio	2023-08-07T00:00:00	2024-11-08T15:00:00	2	Temperatura media	15.4
117486	7	Sololá	701	Sololá	4	Finca Santa Victoria	7	Julio	2023-08-07T00:00:00	2024-11-08T15:00:00	4	Temperatura máxima	16.2
117487	7	Sololá	701	Sololá	4	Finca Santa Victoria	7	Julio	2023-08-07T00:00:00	2024-11-08T15:00:00	3	Temperatura mínima	15.4
117488	7	Sololá	701	Sololá	4	Finca Santa Victoria	7	Julio	2023-08-07T00:00:00	2024-11-08T15:00:00	5	Humedad	96
117489	7	Sololá	701	Sololá	4	Finca Santa Victoria	7	Julio	2023-08-07T00:00:00	2024-11-08T15:00:00	6	Velocidad del viento	1.6
117490	7	Sololá	701	Sololá	4	Finca Santa Victoria	7	Julio	2023-08-07T00:00:00	2024-11-08T15:00:00	7	Dirección del viento	1.61
117491	7	Sololá	701	Sololá	4	Finca Santa Victoria	7	Julio	2023-08-07T00:00:00	2024-11-08T15:00:00	1	Precipitación	0
117492	7	Sololá	701	Sololá	4	Finca Santa Victoria	7	Julio	2023-08-07T00:00:00	2024-11-08T15:00:00	8	Radiación solar	150
117493	7	Sololá	701	Sololá	4	Finca Santa Victoria	7	Julio	2023-08-07T00:00:00	2024-11-08T16:00:00	2	Temperatura media	14.7
117494	7	Sololá	701	Sololá	4	Finca Santa Victoria	7	Julio	2023-08-07T00:00:00	2024-11-08T16:00:00	4	Temperatura máxima	15.4
117495	7	Sololá	701	Sololá	4	Finca Santa Victoria	7	Julio	2023-08-07T00:00:00	2024-11-08T16:00:00	3	Temperatura mínima	14.7
117496	7	Sololá	701	Sololá	4	Finca Santa Victoria	7	Julio	2023-08-07T00:00:00	2024-11-08T16:00:00	5	Humedad	97
117497	7	Sololá	701	Sololá	4	Finca Santa Victoria	7	Julio	2023-08-07T00:00:00	2024-11-08T16:00:00	6	Velocidad del viento	1.6
117498	7	Sololá	701	Sololá	4	Finca Santa Victoria	7	Julio	2023-08-07T00:00:00	2024-11-08T16:00:00	7	Dirección del viento	1.61
117499	7	Sololá	701	Sololá	4	Finca Santa Victoria	7	Julio	2023-08-07T00:00:00	2024-11-08T16:00:00	1	Precipitación	1.2
117500	7	Sololá	701	Sololá	4	Finca Santa Victoria	7	Julio	2023-08-07T00:00:00	2024-11-08T16:00:00	8	Radiación solar	38
117501	7	Sololá	701	Sololá	4	Finca Santa Victoria	7	Julio	2023-08-07T00:00:00	2024-11-08T17:00:00	2	Temperatura media	14.3
117502	7	Sololá	701	Sololá	4	Finca Santa Victoria	7	Julio	2023-08-07T00:00:00	2024-11-08T17:00:00	4	Temperatura máxima	14.7
117503	7	Sololá	701	Sololá	4	Finca Santa Victoria	7	Julio	2023-08-07T00:00:00	2024-11-08T17:00:00	3	Temperatura mínima	14.3
117504	7	Sololá	701	Sololá	4	Finca Santa Victoria	7	Julio	2023-08-07T00:00:00	2024-11-08T17:00:00	5	Humedad	98
117505	7	Sololá	701	Sololá	4	Finca Santa Victoria	7	Julio	2023-08-07T00:00:00	2024-11-08T17:00:00	6	Velocidad del viento	0
117506	7	Sololá	701	Sololá	4	Finca Santa Victoria	7	Julio	2023-08-07T00:00:00	2024-11-08T17:00:00	7	Dirección del viento	0
117507	7	Sololá	701	Sololá	4	Finca Santa Victoria	7	Julio	2023-08-07T00:00:00	2024-11-08T17:00:00	1	Precipitación	0.6
117508	7	Sololá	701	Sololá	4	Finca Santa Victoria	7	Julio	2023-08-07T00:00:00	2024-11-08T17:00:00	8	Radiación solar	24
117509	7	Sololá	701	Sololá	4	Finca Santa Victoria	7	Julio	2023-08-07T00:00:00	2024-11-08T18:00:00	2	Temperatura media	14.3
117510	7	Sololá	701	Sololá	4	Finca Santa Victoria	7	Julio	2023-08-07T00:00:00	2024-11-08T18:00:00	4	Temperatura máxima	14.3
117511	7	Sololá	701	Sololá	4	Finca Santa Victoria	7	Julio	2023-08-07T00:00:00	2024-11-08T18:00:00	3	Temperatura mínima	14.2
117512	7	Sololá	701	Sololá	4	Finca Santa Victoria	7	Julio	2023-08-07T00:00:00	2024-11-08T18:00:00	5	Humedad	98
117513	7	Sololá	701	Sololá	4	Finca Santa Victoria	7	Julio	2023-08-07T00:00:00	2024-11-08T18:00:00	6	Velocidad del viento	0
117514	7	Sololá	701	Sololá	4	Finca Santa Victoria	7	Julio	2023-08-07T00:00:00	2024-11-08T18:00:00	7	Dirección del viento	0
117515	7	Sololá	701	Sololá	4	Finca Santa Victoria	7	Julio	2023-08-07T00:00:00	2024-11-08T18:00:00	1	Precipitación	0.2
117516	7	Sololá	701	Sololá	4	Finca Santa Victoria	7	Julio	2023-08-07T00:00:00	2024-11-08T18:00:00	8	Radiación solar	13
117517	7	Sololá	701	Sololá	4	Finca Santa Victoria	7	Julio	2023-08-07T00:00:00	2024-11-08T19:00:00	2	Temperatura media	13.8
117518	7	Sololá	701	Sololá	4	Finca Santa Victoria	7	Julio	2023-08-07T00:00:00	2024-11-08T19:00:00	4	Temperatura máxima	14.3
117519	7	Sololá	701	Sololá	4	Finca Santa Victoria	7	Julio	2023-08-07T00:00:00	2024-11-08T19:00:00	3	Temperatura mínima	13.8
117520	7	Sololá	701	Sololá	4	Finca Santa Victoria	7	Julio	2023-08-07T00:00:00	2024-11-08T19:00:00	5	Humedad	98
117521	7	Sololá	701	Sololá	4	Finca Santa Victoria	7	Julio	2023-08-07T00:00:00	2024-11-08T19:00:00	6	Velocidad del viento	0
117522	7	Sololá	701	Sololá	4	Finca Santa Victoria	7	Julio	2023-08-07T00:00:00	2024-11-08T19:00:00	7	Dirección del viento	0
117523	7	Sololá	701	Sololá	4	Finca Santa Victoria	7	Julio	2023-08-07T00:00:00	2024-11-08T19:00:00	1	Precipitación	2.6
117524	7	Sololá	701	Sololá	4	Finca Santa Victoria	7	Julio	2023-08-07T00:00:00	2024-11-08T19:00:00	8	Radiación solar	0
117525	7	Sololá	701	Sololá	4	Finca Santa Victoria	7	Julio	2023-08-07T00:00:00	2024-11-08T20:00:00	2	Temperatura media	13.6
117526	7	Sololá	701	Sololá	4	Finca Santa Victoria	7	Julio	2023-08-07T00:00:00	2024-11-08T20:00:00	4	Temperatura máxima	13.8
117527	7	Sololá	701	Sololá	4	Finca Santa Victoria	7	Julio	2023-08-07T00:00:00	2024-11-08T20:00:00	3	Temperatura mínima	13.6
117528	7	Sololá	701	Sololá	4	Finca Santa Victoria	7	Julio	2023-08-07T00:00:00	2024-11-08T20:00:00	5	Humedad	98
117529	7	Sololá	701	Sololá	4	Finca Santa Victoria	7	Julio	2023-08-07T00:00:00	2024-11-08T20:00:00	6	Velocidad del viento	0
117530	7	Sololá	701	Sololá	4	Finca Santa Victoria	7	Julio	2023-08-07T00:00:00	2024-11-08T20:00:00	7	Dirección del viento	0
117531	7	Sololá	701	Sololá	4	Finca Santa Victoria	7	Julio	2023-08-07T00:00:00	2024-11-08T20:00:00	1	Precipitación	0.4
117532	7	Sololá	701	Sololá	4	Finca Santa Victoria	7	Julio	2023-08-07T00:00:00	2024-11-08T20:00:00	8	Radiación solar	0
117533	7	Sololá	701	Sololá	4	Finca Santa Victoria	7	Julio	2023-08-07T00:00:00	2024-11-08T21:00:00	2	Temperatura media	13.6
117534	7	Sololá	701	Sololá	4	Finca Santa Victoria	7	Julio	2023-08-07T00:00:00	2024-11-08T21:00:00	4	Temperatura máxima	13.7
117535	7	Sololá	701	Sololá	4	Finca Santa Victoria	7	Julio	2023-08-07T00:00:00	2024-11-08T21:00:00	3	Temperatura mínima	13.6
117536	7	Sololá	701	Sololá	4	Finca Santa Victoria	7	Julio	2023-08-07T00:00:00	2024-11-08T21:00:00	5	Humedad	98
117537	7	Sololá	701	Sololá	4	Finca Santa Victoria	7	Julio	2023-08-07T00:00:00	2024-11-08T21:00:00	6	Velocidad del viento	0
117538	7	Sololá	701	Sololá	4	Finca Santa Victoria	7	Julio	2023-08-07T00:00:00	2024-11-08T21:00:00	7	Dirección del viento	0
117539	7	Sololá	701	Sololá	4	Finca Santa Victoria	7	Julio	2023-08-07T00:00:00	2024-11-08T21:00:00	1	Precipitación	0
117540	7	Sololá	701	Sololá	4	Finca Santa Victoria	7	Julio	2023-08-07T00:00:00	2024-11-08T21:00:00	8	Radiación solar	0
117541	7	Sololá	701	Sololá	4	Finca Santa Victoria	7	Julio	2023-08-07T00:00:00	2024-11-08T22:00:00	2	Temperatura media	13.2
117542	7	Sololá	701	Sololá	4	Finca Santa Victoria	7	Julio	2023-08-07T00:00:00	2024-11-08T22:00:00	4	Temperatura máxima	13.7
117543	7	Sololá	701	Sololá	4	Finca Santa Victoria	7	Julio	2023-08-07T00:00:00	2024-11-08T22:00:00	3	Temperatura mínima	13.2
117544	7	Sololá	701	Sololá	4	Finca Santa Victoria	7	Julio	2023-08-07T00:00:00	2024-11-08T22:00:00	5	Humedad	98
117545	7	Sololá	701	Sololá	4	Finca Santa Victoria	7	Julio	2023-08-07T00:00:00	2024-11-08T22:00:00	6	Velocidad del viento	1.6
117546	7	Sololá	701	Sololá	4	Finca Santa Victoria	7	Julio	2023-08-07T00:00:00	2024-11-08T22:00:00	7	Dirección del viento	1.61
117547	7	Sololá	701	Sololá	4	Finca Santa Victoria	7	Julio	2023-08-07T00:00:00	2024-11-08T22:00:00	1	Precipitación	0.2
117548	7	Sololá	701	Sololá	4	Finca Santa Victoria	7	Julio	2023-08-07T00:00:00	2024-11-08T22:00:00	8	Radiación solar	0
117549	7	Sololá	701	Sololá	4	Finca Santa Victoria	7	Julio	2023-08-07T00:00:00	2024-11-08T23:00:00	2	Temperatura media	13.1
117550	7	Sololá	701	Sololá	4	Finca Santa Victoria	7	Julio	2023-08-07T00:00:00	2024-11-08T23:00:00	4	Temperatura máxima	13.3
117551	7	Sololá	701	Sololá	4	Finca Santa Victoria	7	Julio	2023-08-07T00:00:00	2024-11-08T23:00:00	3	Temperatura mínima	13
117552	7	Sololá	701	Sololá	4	Finca Santa Victoria	7	Julio	2023-08-07T00:00:00	2024-11-08T23:00:00	5	Humedad	99
117553	7	Sololá	701	Sololá	4	Finca Santa Victoria	7	Julio	2023-08-07T00:00:00	2024-11-08T23:00:00	6	Velocidad del viento	1.6
117554	7	Sololá	701	Sololá	4	Finca Santa Victoria	7	Julio	2023-08-07T00:00:00	2024-11-08T23:00:00	7	Dirección del viento	1.61
117555	7	Sololá	701	Sololá	4	Finca Santa Victoria	7	Julio	2023-08-07T00:00:00	2024-11-08T23:00:00	1	Precipitación	0
117556	7	Sololá	701	Sololá	4	Finca Santa Victoria	7	Julio	2023-08-07T00:00:00	2024-11-08T23:00:00	8	Radiación solar	0
117557	7	Sololá	701	Sololá	4	Finca Santa Victoria	7	Julio	2023-09-07T00:00:00	2024-11-08T00:00:00	2	Temperatura media	13
117558	7	Sololá	701	Sololá	4	Finca Santa Victoria	7	Julio	2023-09-07T00:00:00	2024-11-08T00:00:00	4	Temperatura máxima	13.1
117559	7	Sololá	701	Sololá	4	Finca Santa Victoria	7	Julio	2023-09-07T00:00:00	2024-11-08T00:00:00	3	Temperatura mínima	12.6
117560	7	Sololá	701	Sololá	4	Finca Santa Victoria	7	Julio	2023-09-07T00:00:00	2024-11-08T00:00:00	5	Humedad	98
117561	7	Sololá	701	Sololá	4	Finca Santa Victoria	7	Julio	2023-09-07T00:00:00	2024-11-08T00:00:00	6	Velocidad del viento	1.6
117562	7	Sololá	701	Sololá	4	Finca Santa Victoria	7	Julio	2023-09-07T00:00:00	2024-11-08T00:00:00	7	Dirección del viento	1.61
117563	7	Sololá	701	Sololá	4	Finca Santa Victoria	7	Julio	2023-09-07T00:00:00	2024-11-08T00:00:00	1	Precipitación	0
117564	7	Sololá	701	Sololá	4	Finca Santa Victoria	7	Julio	2023-09-07T00:00:00	2024-11-08T00:00:00	8	Radiación solar	0
117565	7	Sololá	701	Sololá	4	Finca Santa Victoria	7	Julio	2023-09-07T00:00:00	2024-11-08T01:00:00	2	Temperatura media	13.4
117566	7	Sololá	701	Sololá	4	Finca Santa Victoria	7	Julio	2023-09-07T00:00:00	2024-11-08T01:00:00	4	Temperatura máxima	13.4
117567	7	Sololá	701	Sololá	4	Finca Santa Victoria	7	Julio	2023-09-07T00:00:00	2024-11-08T01:00:00	3	Temperatura mínima	12.9
117568	7	Sololá	701	Sololá	4	Finca Santa Victoria	7	Julio	2023-09-07T00:00:00	2024-11-08T01:00:00	5	Humedad	97
117569	7	Sololá	701	Sololá	4	Finca Santa Victoria	7	Julio	2023-09-07T00:00:00	2024-11-08T01:00:00	6	Velocidad del viento	1.6
117570	7	Sololá	701	Sololá	4	Finca Santa Victoria	7	Julio	2023-09-07T00:00:00	2024-11-08T01:00:00	7	Dirección del viento	1.61
117571	7	Sololá	701	Sololá	4	Finca Santa Victoria	7	Julio	2023-09-07T00:00:00	2024-11-08T01:00:00	1	Precipitación	0
117572	7	Sololá	701	Sololá	4	Finca Santa Victoria	7	Julio	2023-09-07T00:00:00	2024-11-08T01:00:00	8	Radiación solar	0
117573	7	Sololá	701	Sololá	4	Finca Santa Victoria	7	Julio	2023-09-07T00:00:00	2024-11-08T02:00:00	2	Temperatura media	13.1
117574	7	Sololá	701	Sololá	4	Finca Santa Victoria	7	Julio	2023-09-07T00:00:00	2024-11-08T02:00:00	4	Temperatura máxima	13.5
117575	7	Sololá	701	Sololá	4	Finca Santa Victoria	7	Julio	2023-09-07T00:00:00	2024-11-08T02:00:00	3	Temperatura mínima	13.1
117576	7	Sololá	701	Sololá	4	Finca Santa Victoria	7	Julio	2023-09-07T00:00:00	2024-11-08T02:00:00	5	Humedad	97
117577	7	Sololá	701	Sololá	4	Finca Santa Victoria	7	Julio	2023-09-07T00:00:00	2024-11-08T02:00:00	6	Velocidad del viento	0
117578	7	Sololá	701	Sololá	4	Finca Santa Victoria	7	Julio	2023-09-07T00:00:00	2024-11-08T02:00:00	7	Dirección del viento	0
117579	7	Sololá	701	Sololá	4	Finca Santa Victoria	7	Julio	2023-09-07T00:00:00	2024-11-08T02:00:00	1	Precipitación	0
117580	7	Sololá	701	Sololá	4	Finca Santa Victoria	7	Julio	2023-09-07T00:00:00	2024-11-08T02:00:00	8	Radiación solar	0
117581	7	Sololá	701	Sololá	4	Finca Santa Victoria	7	Julio	2023-09-07T00:00:00	2024-11-08T03:00:00	2	Temperatura media	13.1
117582	7	Sololá	701	Sololá	4	Finca Santa Victoria	7	Julio	2023-09-07T00:00:00	2024-11-08T03:00:00	4	Temperatura máxima	13.2
117583	7	Sololá	701	Sololá	4	Finca Santa Victoria	7	Julio	2023-09-07T00:00:00	2024-11-08T03:00:00	3	Temperatura mínima	13.1
117584	7	Sololá	701	Sololá	4	Finca Santa Victoria	7	Julio	2023-09-07T00:00:00	2024-11-08T03:00:00	5	Humedad	98
117585	7	Sololá	701	Sololá	4	Finca Santa Victoria	7	Julio	2023-09-07T00:00:00	2024-11-08T03:00:00	6	Velocidad del viento	0
117586	7	Sololá	701	Sololá	4	Finca Santa Victoria	7	Julio	2023-09-07T00:00:00	2024-11-08T03:00:00	7	Dirección del viento	0
117587	7	Sololá	701	Sololá	4	Finca Santa Victoria	7	Julio	2023-09-07T00:00:00	2024-11-08T03:00:00	1	Precipitación	0
117588	7	Sololá	701	Sololá	4	Finca Santa Victoria	7	Julio	2023-09-07T00:00:00	2024-11-08T03:00:00	8	Radiación solar	0
117589	7	Sololá	701	Sololá	4	Finca Santa Victoria	7	Julio	2023-09-07T00:00:00	2024-11-08T04:00:00	2	Temperatura media	12.8
117590	7	Sololá	701	Sololá	4	Finca Santa Victoria	7	Julio	2023-09-07T00:00:00	2024-11-08T04:00:00	4	Temperatura máxima	13.2
117591	7	Sololá	701	Sololá	4	Finca Santa Victoria	7	Julio	2023-09-07T00:00:00	2024-11-08T04:00:00	3	Temperatura mínima	12.8
117592	7	Sololá	701	Sololá	4	Finca Santa Victoria	7	Julio	2023-09-07T00:00:00	2024-11-08T04:00:00	5	Humedad	98
117593	7	Sololá	701	Sololá	4	Finca Santa Victoria	7	Julio	2023-09-07T00:00:00	2024-11-08T04:00:00	6	Velocidad del viento	0
117594	7	Sololá	701	Sololá	4	Finca Santa Victoria	7	Julio	2023-09-07T00:00:00	2024-11-08T04:00:00	7	Dirección del viento	0
117595	7	Sololá	701	Sololá	4	Finca Santa Victoria	7	Julio	2023-09-07T00:00:00	2024-11-08T04:00:00	1	Precipitación	0
117596	7	Sololá	701	Sololá	4	Finca Santa Victoria	7	Julio	2023-09-07T00:00:00	2024-11-08T04:00:00	8	Radiación solar	0
117597	7	Sololá	701	Sololá	4	Finca Santa Victoria	7	Julio	2023-09-07T00:00:00	2024-11-08T05:00:00	2	Temperatura media	12.6
117598	7	Sololá	701	Sololá	4	Finca Santa Victoria	7	Julio	2023-09-07T00:00:00	2024-11-08T05:00:00	4	Temperatura máxima	12.9
117599	7	Sololá	701	Sololá	4	Finca Santa Victoria	7	Julio	2023-09-07T00:00:00	2024-11-08T05:00:00	3	Temperatura mínima	12.6
117600	7	Sololá	701	Sololá	4	Finca Santa Victoria	7	Julio	2023-09-07T00:00:00	2024-11-08T05:00:00	5	Humedad	98
117601	7	Sololá	701	Sololá	4	Finca Santa Victoria	7	Julio	2023-09-07T00:00:00	2024-11-08T05:00:00	6	Velocidad del viento	0
117602	7	Sololá	701	Sololá	4	Finca Santa Victoria	7	Julio	2023-09-07T00:00:00	2024-11-08T05:00:00	7	Dirección del viento	0
117603	7	Sololá	701	Sololá	4	Finca Santa Victoria	7	Julio	2023-09-07T00:00:00	2024-11-08T05:00:00	1	Precipitación	0
117604	7	Sololá	701	Sololá	4	Finca Santa Victoria	7	Julio	2023-09-07T00:00:00	2024-11-08T05:00:00	8	Radiación solar	0
117605	7	Sololá	701	Sololá	4	Finca Santa Victoria	7	Julio	2023-09-07T00:00:00	2024-11-08T06:00:00	2	Temperatura media	12.6
117606	7	Sololá	701	Sololá	4	Finca Santa Victoria	7	Julio	2023-09-07T00:00:00	2024-11-08T06:00:00	4	Temperatura máxima	12.6
117607	7	Sololá	701	Sololá	4	Finca Santa Victoria	7	Julio	2023-09-07T00:00:00	2024-11-08T06:00:00	3	Temperatura mínima	12.4
117608	7	Sololá	701	Sololá	4	Finca Santa Victoria	7	Julio	2023-09-07T00:00:00	2024-11-08T06:00:00	5	Humedad	97
117609	7	Sololá	701	Sololá	4	Finca Santa Victoria	7	Julio	2023-09-07T00:00:00	2024-11-08T06:00:00	6	Velocidad del viento	0
117610	7	Sololá	701	Sololá	4	Finca Santa Victoria	7	Julio	2023-09-07T00:00:00	2024-11-08T06:00:00	7	Dirección del viento	0
117611	7	Sololá	701	Sololá	4	Finca Santa Victoria	7	Julio	2023-09-07T00:00:00	2024-11-08T06:00:00	1	Precipitación	0
117612	7	Sololá	701	Sololá	4	Finca Santa Victoria	7	Julio	2023-09-07T00:00:00	2024-11-08T06:00:00	8	Radiación solar	2
117613	7	Sololá	701	Sololá	4	Finca Santa Victoria	7	Julio	2023-09-07T00:00:00	2024-11-08T07:00:00	2	Temperatura media	13.3
117614	7	Sololá	701	Sololá	4	Finca Santa Victoria	7	Julio	2023-09-07T00:00:00	2024-11-08T07:00:00	4	Temperatura máxima	13.3
117615	7	Sololá	701	Sololá	4	Finca Santa Victoria	7	Julio	2023-09-07T00:00:00	2024-11-08T07:00:00	3	Temperatura mínima	12.6
117616	7	Sololá	701	Sololá	4	Finca Santa Victoria	7	Julio	2023-09-07T00:00:00	2024-11-08T07:00:00	5	Humedad	98
117617	7	Sololá	701	Sololá	4	Finca Santa Victoria	7	Julio	2023-09-07T00:00:00	2024-11-08T07:00:00	6	Velocidad del viento	0
117618	7	Sololá	701	Sololá	4	Finca Santa Victoria	7	Julio	2023-09-07T00:00:00	2024-11-08T07:00:00	7	Dirección del viento	0
117619	7	Sololá	701	Sololá	4	Finca Santa Victoria	7	Julio	2023-09-07T00:00:00	2024-11-08T07:00:00	1	Precipitación	0
117620	7	Sololá	701	Sololá	4	Finca Santa Victoria	7	Julio	2023-09-07T00:00:00	2024-11-08T07:00:00	8	Radiación solar	35
117621	7	Sololá	701	Sololá	4	Finca Santa Victoria	7	Julio	2023-09-07T00:00:00	2024-11-08T08:00:00	2	Temperatura media	15.3
117622	7	Sololá	701	Sololá	4	Finca Santa Victoria	7	Julio	2023-09-07T00:00:00	2024-11-08T08:00:00	4	Temperatura máxima	15.3
117623	7	Sololá	701	Sololá	4	Finca Santa Victoria	7	Julio	2023-09-07T00:00:00	2024-11-08T08:00:00	3	Temperatura mínima	13.3
117624	7	Sololá	701	Sololá	4	Finca Santa Victoria	7	Julio	2023-09-07T00:00:00	2024-11-08T08:00:00	5	Humedad	92
117625	7	Sololá	701	Sololá	4	Finca Santa Victoria	7	Julio	2023-09-07T00:00:00	2024-11-08T08:00:00	6	Velocidad del viento	1.6
117626	7	Sololá	701	Sololá	4	Finca Santa Victoria	7	Julio	2023-09-07T00:00:00	2024-11-08T08:00:00	7	Dirección del viento	1.61
117627	7	Sololá	701	Sololá	4	Finca Santa Victoria	7	Julio	2023-09-07T00:00:00	2024-11-08T08:00:00	1	Precipitación	0
117628	7	Sololá	701	Sololá	4	Finca Santa Victoria	7	Julio	2023-09-07T00:00:00	2024-11-08T08:00:00	8	Radiación solar	129
117629	7	Sololá	701	Sololá	4	Finca Santa Victoria	7	Julio	2023-09-07T00:00:00	2024-11-08T09:00:00	2	Temperatura media	16.8
117630	7	Sololá	701	Sololá	4	Finca Santa Victoria	7	Julio	2023-09-07T00:00:00	2024-11-08T09:00:00	4	Temperatura máxima	16.9
117631	7	Sololá	701	Sololá	4	Finca Santa Victoria	7	Julio	2023-09-07T00:00:00	2024-11-08T09:00:00	3	Temperatura mínima	15.3
117632	7	Sololá	701	Sololá	4	Finca Santa Victoria	7	Julio	2023-09-07T00:00:00	2024-11-08T09:00:00	5	Humedad	90
117633	7	Sololá	701	Sololá	4	Finca Santa Victoria	7	Julio	2023-09-07T00:00:00	2024-11-08T09:00:00	6	Velocidad del viento	1.6
117634	7	Sololá	701	Sololá	4	Finca Santa Victoria	7	Julio	2023-09-07T00:00:00	2024-11-08T09:00:00	7	Dirección del viento	1.61
117635	7	Sololá	701	Sololá	4	Finca Santa Victoria	7	Julio	2023-09-07T00:00:00	2024-11-08T09:00:00	1	Precipitación	0
117636	7	Sololá	701	Sololá	4	Finca Santa Victoria	7	Julio	2023-09-07T00:00:00	2024-11-08T09:00:00	8	Radiación solar	313
117637	7	Sololá	701	Sololá	4	Finca Santa Victoria	7	Julio	2023-09-07T00:00:00	2024-11-08T10:00:00	2	Temperatura media	18.1
117638	7	Sololá	701	Sololá	4	Finca Santa Victoria	7	Julio	2023-09-07T00:00:00	2024-11-08T10:00:00	4	Temperatura máxima	18.8
117639	7	Sololá	701	Sololá	4	Finca Santa Victoria	7	Julio	2023-09-07T00:00:00	2024-11-08T10:00:00	3	Temperatura mínima	16.8
117640	7	Sololá	701	Sololá	4	Finca Santa Victoria	7	Julio	2023-09-07T00:00:00	2024-11-08T10:00:00	5	Humedad	82
117641	7	Sololá	701	Sololá	4	Finca Santa Victoria	7	Julio	2023-09-07T00:00:00	2024-11-08T10:00:00	6	Velocidad del viento	1.6
117642	7	Sololá	701	Sololá	4	Finca Santa Victoria	7	Julio	2023-09-07T00:00:00	2024-11-08T10:00:00	7	Dirección del viento	1.61
117643	7	Sololá	701	Sololá	4	Finca Santa Victoria	7	Julio	2023-09-07T00:00:00	2024-11-08T10:00:00	1	Precipitación	0
117644	7	Sololá	701	Sololá	4	Finca Santa Victoria	7	Julio	2023-09-07T00:00:00	2024-11-08T10:00:00	8	Radiación solar	264
117645	7	Sololá	701	Sololá	4	Finca Santa Victoria	7	Julio	2023-09-07T00:00:00	2024-11-08T11:00:00	2	Temperatura media	17.6
117646	7	Sololá	701	Sololá	4	Finca Santa Victoria	7	Julio	2023-09-07T00:00:00	2024-11-08T11:00:00	4	Temperatura máxima	18.3
117647	7	Sololá	701	Sololá	4	Finca Santa Victoria	7	Julio	2023-09-07T00:00:00	2024-11-08T11:00:00	3	Temperatura mínima	17.4
117648	7	Sololá	701	Sololá	4	Finca Santa Victoria	7	Julio	2023-09-07T00:00:00	2024-11-08T11:00:00	5	Humedad	83
117649	7	Sololá	701	Sololá	4	Finca Santa Victoria	7	Julio	2023-09-07T00:00:00	2024-11-08T11:00:00	6	Velocidad del viento	3.2
117650	7	Sololá	701	Sololá	4	Finca Santa Victoria	7	Julio	2023-09-07T00:00:00	2024-11-08T11:00:00	7	Dirección del viento	3.22
117651	7	Sololá	701	Sololá	4	Finca Santa Victoria	7	Julio	2023-09-07T00:00:00	2024-11-08T11:00:00	1	Precipitación	0
117652	7	Sololá	701	Sololá	4	Finca Santa Victoria	7	Julio	2023-09-07T00:00:00	2024-11-08T11:00:00	8	Radiación solar	197
117653	7	Sololá	701	Sololá	4	Finca Santa Victoria	7	Julio	2023-09-07T00:00:00	2024-11-08T12:00:00	2	Temperatura media	20.3
117654	7	Sololá	701	Sololá	4	Finca Santa Victoria	7	Julio	2023-09-07T00:00:00	2024-11-08T12:00:00	4	Temperatura máxima	20.3
117655	7	Sololá	701	Sololá	4	Finca Santa Victoria	7	Julio	2023-09-07T00:00:00	2024-11-08T12:00:00	3	Temperatura mínima	17.6
117656	7	Sololá	701	Sololá	4	Finca Santa Victoria	7	Julio	2023-09-07T00:00:00	2024-11-08T12:00:00	5	Humedad	76
117657	7	Sololá	701	Sololá	4	Finca Santa Victoria	7	Julio	2023-09-07T00:00:00	2024-11-08T12:00:00	6	Velocidad del viento	3.2
117658	7	Sololá	701	Sololá	4	Finca Santa Victoria	7	Julio	2023-09-07T00:00:00	2024-11-08T12:00:00	7	Dirección del viento	3.22
117659	7	Sololá	701	Sololá	4	Finca Santa Victoria	7	Julio	2023-09-07T00:00:00	2024-11-08T12:00:00	1	Precipitación	0
117660	7	Sololá	701	Sololá	4	Finca Santa Victoria	7	Julio	2023-09-07T00:00:00	2024-11-08T12:00:00	8	Radiación solar	522
117661	7	Sololá	701	Sololá	4	Finca Santa Victoria	7	Julio	2023-09-07T00:00:00	2024-11-08T13:00:00	2	Temperatura media	20.6
117662	7	Sololá	701	Sololá	4	Finca Santa Victoria	7	Julio	2023-09-07T00:00:00	2024-11-08T13:00:00	4	Temperatura máxima	20.7
117663	7	Sololá	701	Sololá	4	Finca Santa Victoria	7	Julio	2023-09-07T00:00:00	2024-11-08T13:00:00	3	Temperatura mínima	20.2
117664	7	Sololá	701	Sololá	4	Finca Santa Victoria	7	Julio	2023-09-07T00:00:00	2024-11-08T13:00:00	5	Humedad	73
117665	7	Sololá	701	Sololá	4	Finca Santa Victoria	7	Julio	2023-09-07T00:00:00	2024-11-08T13:00:00	6	Velocidad del viento	1.6
117666	7	Sololá	701	Sololá	4	Finca Santa Victoria	7	Julio	2023-09-07T00:00:00	2024-11-08T13:00:00	7	Dirección del viento	1.61
117667	7	Sololá	701	Sololá	4	Finca Santa Victoria	7	Julio	2023-09-07T00:00:00	2024-11-08T13:00:00	1	Precipitación	0
117668	7	Sololá	701	Sololá	4	Finca Santa Victoria	7	Julio	2023-09-07T00:00:00	2024-11-08T13:00:00	8	Radiación solar	509
117669	7	Sololá	701	Sololá	4	Finca Santa Victoria	7	Julio	2023-09-07T00:00:00	2024-11-08T14:00:00	2	Temperatura media	19.6
117670	7	Sololá	701	Sololá	4	Finca Santa Victoria	7	Julio	2023-09-07T00:00:00	2024-11-08T14:00:00	4	Temperatura máxima	20.7
117671	7	Sololá	701	Sololá	4	Finca Santa Victoria	7	Julio	2023-09-07T00:00:00	2024-11-08T14:00:00	3	Temperatura mínima	19.6
117672	7	Sololá	701	Sololá	4	Finca Santa Victoria	7	Julio	2023-09-07T00:00:00	2024-11-08T14:00:00	5	Humedad	84
117673	7	Sololá	701	Sololá	4	Finca Santa Victoria	7	Julio	2023-09-07T00:00:00	2024-11-08T14:00:00	6	Velocidad del viento	1.6
117674	7	Sololá	701	Sololá	4	Finca Santa Victoria	7	Julio	2023-09-07T00:00:00	2024-11-08T14:00:00	7	Dirección del viento	1.61
117675	7	Sololá	701	Sololá	4	Finca Santa Victoria	7	Julio	2023-09-07T00:00:00	2024-11-08T14:00:00	1	Precipitación	0
117676	7	Sololá	701	Sololá	4	Finca Santa Victoria	7	Julio	2023-09-07T00:00:00	2024-11-08T14:00:00	8	Radiación solar	283
117677	7	Sololá	701	Sololá	4	Finca Santa Victoria	7	Julio	2023-09-07T00:00:00	2024-11-08T15:00:00	2	Temperatura media	17.2
117678	7	Sololá	701	Sololá	4	Finca Santa Victoria	7	Julio	2023-09-07T00:00:00	2024-11-08T15:00:00	4	Temperatura máxima	19.6
117679	7	Sololá	701	Sololá	4	Finca Santa Victoria	7	Julio	2023-09-07T00:00:00	2024-11-08T15:00:00	3	Temperatura mínima	17.2
117680	7	Sololá	701	Sololá	4	Finca Santa Victoria	7	Julio	2023-09-07T00:00:00	2024-11-08T15:00:00	5	Humedad	93
117681	7	Sololá	701	Sololá	4	Finca Santa Victoria	7	Julio	2023-09-07T00:00:00	2024-11-08T15:00:00	6	Velocidad del viento	1.6
117682	7	Sololá	701	Sololá	4	Finca Santa Victoria	7	Julio	2023-09-07T00:00:00	2024-11-08T15:00:00	7	Dirección del viento	1.61
117683	7	Sololá	701	Sololá	4	Finca Santa Victoria	7	Julio	2023-09-07T00:00:00	2024-11-08T15:00:00	1	Precipitación	0
117684	7	Sololá	701	Sololá	4	Finca Santa Victoria	7	Julio	2023-09-07T00:00:00	2024-11-08T15:00:00	8	Radiación solar	114
117685	7	Sololá	701	Sololá	4	Finca Santa Victoria	7	Julio	2023-09-07T00:00:00	2024-11-08T16:00:00	2	Temperatura media	16.2
117686	7	Sololá	701	Sololá	4	Finca Santa Victoria	7	Julio	2023-09-07T00:00:00	2024-11-08T16:00:00	4	Temperatura máxima	17.2
117687	7	Sololá	701	Sololá	4	Finca Santa Victoria	7	Julio	2023-09-07T00:00:00	2024-11-08T16:00:00	3	Temperatura mínima	16.2
117688	7	Sololá	701	Sololá	4	Finca Santa Victoria	7	Julio	2023-09-07T00:00:00	2024-11-08T16:00:00	5	Humedad	92
117689	7	Sololá	701	Sololá	4	Finca Santa Victoria	7	Julio	2023-09-07T00:00:00	2024-11-08T16:00:00	6	Velocidad del viento	0
117690	7	Sololá	701	Sololá	4	Finca Santa Victoria	7	Julio	2023-09-07T00:00:00	2024-11-08T16:00:00	7	Dirección del viento	0
117691	7	Sololá	701	Sololá	4	Finca Santa Victoria	7	Julio	2023-09-07T00:00:00	2024-11-08T16:00:00	1	Precipitación	0.2
117692	7	Sololá	701	Sololá	4	Finca Santa Victoria	7	Julio	2023-09-07T00:00:00	2024-11-08T16:00:00	8	Radiación solar	52
117693	7	Sololá	701	Sololá	4	Finca Santa Victoria	7	Julio	2023-09-07T00:00:00	2024-11-08T17:00:00	2	Temperatura media	16.4
117694	7	Sololá	701	Sololá	4	Finca Santa Victoria	7	Julio	2023-09-07T00:00:00	2024-11-08T17:00:00	4	Temperatura máxima	16.5
117695	7	Sololá	701	Sololá	4	Finca Santa Victoria	7	Julio	2023-09-07T00:00:00	2024-11-08T17:00:00	3	Temperatura mínima	15.4
117696	7	Sololá	701	Sololá	4	Finca Santa Victoria	7	Julio	2023-09-07T00:00:00	2024-11-08T17:00:00	5	Humedad	85
117697	7	Sololá	701	Sololá	4	Finca Santa Victoria	7	Julio	2023-09-07T00:00:00	2024-11-08T17:00:00	6	Velocidad del viento	0
117698	7	Sololá	701	Sololá	4	Finca Santa Victoria	7	Julio	2023-09-07T00:00:00	2024-11-08T17:00:00	7	Dirección del viento	0
117699	7	Sololá	701	Sololá	4	Finca Santa Victoria	7	Julio	2023-09-07T00:00:00	2024-11-08T17:00:00	1	Precipitación	0.4
117700	7	Sololá	701	Sololá	4	Finca Santa Victoria	7	Julio	2023-09-07T00:00:00	2024-11-08T17:00:00	8	Radiación solar	72
117701	7	Sololá	701	Sololá	4	Finca Santa Victoria	7	Julio	2023-09-07T00:00:00	2024-11-08T18:00:00	2	Temperatura media	16.6
117702	7	Sololá	701	Sololá	4	Finca Santa Victoria	7	Julio	2023-09-07T00:00:00	2024-11-08T18:00:00	4	Temperatura máxima	17.1
117703	7	Sololá	701	Sololá	4	Finca Santa Victoria	7	Julio	2023-09-07T00:00:00	2024-11-08T18:00:00	3	Temperatura mínima	16.5
117704	7	Sololá	701	Sololá	4	Finca Santa Victoria	7	Julio	2023-09-07T00:00:00	2024-11-08T18:00:00	5	Humedad	81
117705	7	Sololá	701	Sololá	4	Finca Santa Victoria	7	Julio	2023-09-07T00:00:00	2024-11-08T18:00:00	6	Velocidad del viento	1.6
117706	7	Sololá	701	Sololá	4	Finca Santa Victoria	7	Julio	2023-09-07T00:00:00	2024-11-08T18:00:00	7	Dirección del viento	1.61
117707	7	Sololá	701	Sololá	4	Finca Santa Victoria	7	Julio	2023-09-07T00:00:00	2024-11-08T18:00:00	1	Precipitación	0
117708	7	Sololá	701	Sololá	4	Finca Santa Victoria	7	Julio	2023-09-07T00:00:00	2024-11-08T18:00:00	8	Radiación solar	59
117709	7	Sololá	701	Sololá	4	Finca Santa Victoria	7	Julio	2023-09-07T00:00:00	2024-11-08T19:00:00	2	Temperatura media	15.3
117710	7	Sololá	701	Sololá	4	Finca Santa Victoria	7	Julio	2023-09-07T00:00:00	2024-11-08T19:00:00	4	Temperatura máxima	16.6
117711	7	Sololá	701	Sololá	4	Finca Santa Victoria	7	Julio	2023-09-07T00:00:00	2024-11-08T19:00:00	3	Temperatura mínima	15.3
117712	7	Sololá	701	Sololá	4	Finca Santa Victoria	7	Julio	2023-09-07T00:00:00	2024-11-08T19:00:00	5	Humedad	88
117713	7	Sololá	701	Sololá	4	Finca Santa Victoria	7	Julio	2023-09-07T00:00:00	2024-11-08T19:00:00	6	Velocidad del viento	1.6
117714	7	Sololá	701	Sololá	4	Finca Santa Victoria	7	Julio	2023-09-07T00:00:00	2024-11-08T19:00:00	7	Dirección del viento	1.61
117715	7	Sololá	701	Sololá	4	Finca Santa Victoria	7	Julio	2023-09-07T00:00:00	2024-11-08T19:00:00	1	Precipitación	0
117716	7	Sololá	701	Sololá	4	Finca Santa Victoria	7	Julio	2023-09-07T00:00:00	2024-11-08T19:00:00	8	Radiación solar	0
117717	7	Sololá	701	Sololá	4	Finca Santa Victoria	7	Julio	2023-09-07T00:00:00	2024-11-08T20:00:00	2	Temperatura media	14.7
117718	7	Sololá	701	Sololá	4	Finca Santa Victoria	7	Julio	2023-09-07T00:00:00	2024-11-08T20:00:00	4	Temperatura máxima	15.3
117719	7	Sololá	701	Sololá	4	Finca Santa Victoria	7	Julio	2023-09-07T00:00:00	2024-11-08T20:00:00	3	Temperatura mínima	14.7
117720	7	Sololá	701	Sololá	4	Finca Santa Victoria	7	Julio	2023-09-07T00:00:00	2024-11-08T20:00:00	5	Humedad	91
117721	7	Sololá	701	Sololá	4	Finca Santa Victoria	7	Julio	2023-09-07T00:00:00	2024-11-08T20:00:00	6	Velocidad del viento	0
117722	7	Sololá	701	Sololá	4	Finca Santa Victoria	7	Julio	2023-09-07T00:00:00	2024-11-08T20:00:00	7	Dirección del viento	0
117723	7	Sololá	701	Sololá	4	Finca Santa Victoria	7	Julio	2023-09-07T00:00:00	2024-11-08T20:00:00	1	Precipitación	0
117724	7	Sololá	701	Sololá	4	Finca Santa Victoria	7	Julio	2023-09-07T00:00:00	2024-11-08T20:00:00	8	Radiación solar	0
117725	7	Sololá	701	Sololá	4	Finca Santa Victoria	7	Julio	2023-09-07T00:00:00	2024-11-08T21:00:00	2	Temperatura media	14.2
117726	7	Sololá	701	Sololá	4	Finca Santa Victoria	7	Julio	2023-09-07T00:00:00	2024-11-08T21:00:00	4	Temperatura máxima	14.8
117727	7	Sololá	701	Sololá	4	Finca Santa Victoria	7	Julio	2023-09-07T00:00:00	2024-11-08T21:00:00	3	Temperatura mínima	14.2
117728	7	Sololá	701	Sololá	4	Finca Santa Victoria	7	Julio	2023-09-07T00:00:00	2024-11-08T21:00:00	5	Humedad	93
117729	7	Sololá	701	Sololá	4	Finca Santa Victoria	7	Julio	2023-09-07T00:00:00	2024-11-08T21:00:00	6	Velocidad del viento	0
117730	7	Sololá	701	Sololá	4	Finca Santa Victoria	7	Julio	2023-09-07T00:00:00	2024-11-08T21:00:00	7	Dirección del viento	0
117731	7	Sololá	701	Sololá	4	Finca Santa Victoria	7	Julio	2023-09-07T00:00:00	2024-11-08T21:00:00	1	Precipitación	0
117732	7	Sololá	701	Sololá	4	Finca Santa Victoria	7	Julio	2023-09-07T00:00:00	2024-11-08T21:00:00	8	Radiación solar	0
117733	7	Sololá	701	Sololá	4	Finca Santa Victoria	7	Julio	2023-09-07T00:00:00	2024-11-08T22:00:00	2	Temperatura media	14.3
117734	7	Sololá	701	Sololá	4	Finca Santa Victoria	7	Julio	2023-09-07T00:00:00	2024-11-08T22:00:00	4	Temperatura máxima	14.4
117735	7	Sololá	701	Sololá	4	Finca Santa Victoria	7	Julio	2023-09-07T00:00:00	2024-11-08T22:00:00	3	Temperatura mínima	14.2
117736	7	Sololá	701	Sololá	4	Finca Santa Victoria	7	Julio	2023-09-07T00:00:00	2024-11-08T22:00:00	5	Humedad	94
117737	7	Sololá	701	Sololá	4	Finca Santa Victoria	7	Julio	2023-09-07T00:00:00	2024-11-08T22:00:00	6	Velocidad del viento	0
117738	7	Sololá	701	Sololá	4	Finca Santa Victoria	7	Julio	2023-09-07T00:00:00	2024-11-08T22:00:00	7	Dirección del viento	0
117739	7	Sololá	701	Sololá	4	Finca Santa Victoria	7	Julio	2023-09-07T00:00:00	2024-11-08T22:00:00	1	Precipitación	0
117740	7	Sololá	701	Sololá	4	Finca Santa Victoria	7	Julio	2023-09-07T00:00:00	2024-11-08T22:00:00	8	Radiación solar	0
117741	7	Sololá	701	Sololá	4	Finca Santa Victoria	7	Julio	2023-09-07T00:00:00	2024-11-08T23:00:00	2	Temperatura media	14.7
117742	7	Sololá	701	Sololá	4	Finca Santa Victoria	7	Julio	2023-09-07T00:00:00	2024-11-08T23:00:00	4	Temperatura máxima	14.7
117743	7	Sololá	701	Sololá	4	Finca Santa Victoria	7	Julio	2023-09-07T00:00:00	2024-11-08T23:00:00	3	Temperatura mínima	14.2
117744	7	Sololá	701	Sololá	4	Finca Santa Victoria	7	Julio	2023-09-07T00:00:00	2024-11-08T23:00:00	5	Humedad	92
117745	7	Sololá	701	Sololá	4	Finca Santa Victoria	7	Julio	2023-09-07T00:00:00	2024-11-08T23:00:00	6	Velocidad del viento	0
117746	7	Sololá	701	Sololá	4	Finca Santa Victoria	7	Julio	2023-09-07T00:00:00	2024-11-08T23:00:00	7	Dirección del viento	0
117747	7	Sololá	701	Sololá	4	Finca Santa Victoria	7	Julio	2023-09-07T00:00:00	2024-11-08T23:00:00	1	Precipitación	0
117748	7	Sololá	701	Sololá	4	Finca Santa Victoria	7	Julio	2023-09-07T00:00:00	2024-11-08T23:00:00	8	Radiación solar	0
117749	7	Sololá	701	Sololá	4	Finca Santa Victoria	7	Julio	2023-10-07T00:00:00	2024-11-08T00:00:00	2	Temperatura media	14.7
117750	7	Sololá	701	Sololá	4	Finca Santa Victoria	7	Julio	2023-10-07T00:00:00	2024-11-08T00:00:00	4	Temperatura máxima	14.9
117751	7	Sololá	701	Sololá	4	Finca Santa Victoria	7	Julio	2023-10-07T00:00:00	2024-11-08T00:00:00	3	Temperatura mínima	14.6
117752	7	Sololá	701	Sololá	4	Finca Santa Victoria	7	Julio	2023-10-07T00:00:00	2024-11-08T00:00:00	5	Humedad	90
117753	7	Sololá	701	Sololá	4	Finca Santa Victoria	7	Julio	2023-10-07T00:00:00	2024-11-08T00:00:00	6	Velocidad del viento	1.6
117754	7	Sololá	701	Sololá	4	Finca Santa Victoria	7	Julio	2023-10-07T00:00:00	2024-11-08T00:00:00	7	Dirección del viento	1.61
117755	7	Sololá	701	Sololá	4	Finca Santa Victoria	7	Julio	2023-10-07T00:00:00	2024-11-08T00:00:00	1	Precipitación	0
117756	7	Sololá	701	Sololá	4	Finca Santa Victoria	7	Julio	2023-10-07T00:00:00	2024-11-08T00:00:00	8	Radiación solar	0
117757	7	Sololá	701	Sololá	4	Finca Santa Victoria	7	Julio	2023-10-07T00:00:00	2024-11-08T01:00:00	2	Temperatura media	14.5
117758	7	Sololá	701	Sololá	4	Finca Santa Victoria	7	Julio	2023-10-07T00:00:00	2024-11-08T01:00:00	4	Temperatura máxima	14.7
117759	7	Sololá	701	Sololá	4	Finca Santa Victoria	7	Julio	2023-10-07T00:00:00	2024-11-08T01:00:00	3	Temperatura mínima	14.3
117760	7	Sololá	701	Sololá	4	Finca Santa Victoria	7	Julio	2023-10-07T00:00:00	2024-11-08T01:00:00	5	Humedad	89
117761	7	Sololá	701	Sololá	4	Finca Santa Victoria	7	Julio	2023-10-07T00:00:00	2024-11-08T01:00:00	6	Velocidad del viento	1.6
117762	7	Sololá	701	Sololá	4	Finca Santa Victoria	7	Julio	2023-10-07T00:00:00	2024-11-08T01:00:00	7	Dirección del viento	1.61
117763	7	Sololá	701	Sololá	4	Finca Santa Victoria	7	Julio	2023-10-07T00:00:00	2024-11-08T01:00:00	1	Precipitación	0
117764	7	Sololá	701	Sololá	4	Finca Santa Victoria	7	Julio	2023-10-07T00:00:00	2024-11-08T01:00:00	8	Radiación solar	0
117765	7	Sololá	701	Sololá	4	Finca Santa Victoria	7	Julio	2023-10-07T00:00:00	2024-11-08T02:00:00	2	Temperatura media	13.6
117766	7	Sololá	701	Sololá	4	Finca Santa Victoria	7	Julio	2023-10-07T00:00:00	2024-11-08T02:00:00	4	Temperatura máxima	14.6
117767	7	Sololá	701	Sololá	4	Finca Santa Victoria	7	Julio	2023-10-07T00:00:00	2024-11-08T02:00:00	3	Temperatura mínima	13.5
117768	7	Sololá	701	Sololá	4	Finca Santa Victoria	7	Julio	2023-10-07T00:00:00	2024-11-08T02:00:00	5	Humedad	95
117769	7	Sololá	701	Sololá	4	Finca Santa Victoria	7	Julio	2023-10-07T00:00:00	2024-11-08T02:00:00	6	Velocidad del viento	0
117770	7	Sololá	701	Sololá	4	Finca Santa Victoria	7	Julio	2023-10-07T00:00:00	2024-11-08T02:00:00	7	Dirección del viento	0
117771	7	Sololá	701	Sololá	4	Finca Santa Victoria	7	Julio	2023-10-07T00:00:00	2024-11-08T02:00:00	1	Precipitación	0
117772	7	Sololá	701	Sololá	4	Finca Santa Victoria	7	Julio	2023-10-07T00:00:00	2024-11-08T02:00:00	8	Radiación solar	0
117773	7	Sololá	701	Sololá	4	Finca Santa Victoria	7	Julio	2023-10-07T00:00:00	2024-11-08T03:00:00	2	Temperatura media	12.9
117774	7	Sololá	701	Sololá	4	Finca Santa Victoria	7	Julio	2023-10-07T00:00:00	2024-11-08T03:00:00	4	Temperatura máxima	13.6
117775	7	Sololá	701	Sololá	4	Finca Santa Victoria	7	Julio	2023-10-07T00:00:00	2024-11-08T03:00:00	3	Temperatura mínima	12.9
117776	7	Sololá	701	Sololá	4	Finca Santa Victoria	7	Julio	2023-10-07T00:00:00	2024-11-08T03:00:00	5	Humedad	97
117777	7	Sololá	701	Sololá	4	Finca Santa Victoria	7	Julio	2023-10-07T00:00:00	2024-11-08T03:00:00	6	Velocidad del viento	0
117778	7	Sololá	701	Sololá	4	Finca Santa Victoria	7	Julio	2023-10-07T00:00:00	2024-11-08T03:00:00	7	Dirección del viento	0
117779	7	Sololá	701	Sololá	4	Finca Santa Victoria	7	Julio	2023-10-07T00:00:00	2024-11-08T03:00:00	1	Precipitación	0
117780	7	Sololá	701	Sololá	4	Finca Santa Victoria	7	Julio	2023-10-07T00:00:00	2024-11-08T03:00:00	8	Radiación solar	0
117781	7	Sololá	701	Sololá	4	Finca Santa Victoria	7	Julio	2023-10-07T00:00:00	2024-11-08T04:00:00	2	Temperatura media	12.8
117782	7	Sololá	701	Sololá	4	Finca Santa Victoria	7	Julio	2023-10-07T00:00:00	2024-11-08T04:00:00	4	Temperatura máxima	13
117783	7	Sololá	701	Sololá	4	Finca Santa Victoria	7	Julio	2023-10-07T00:00:00	2024-11-08T04:00:00	3	Temperatura mínima	12.6
117784	7	Sololá	701	Sololá	4	Finca Santa Victoria	7	Julio	2023-10-07T00:00:00	2024-11-08T04:00:00	5	Humedad	95
117785	7	Sololá	701	Sololá	4	Finca Santa Victoria	7	Julio	2023-10-07T00:00:00	2024-11-08T04:00:00	6	Velocidad del viento	0
117786	7	Sololá	701	Sololá	4	Finca Santa Victoria	7	Julio	2023-10-07T00:00:00	2024-11-08T04:00:00	7	Dirección del viento	0
117787	7	Sololá	701	Sololá	4	Finca Santa Victoria	7	Julio	2023-10-07T00:00:00	2024-11-08T04:00:00	1	Precipitación	0
117788	7	Sololá	701	Sololá	4	Finca Santa Victoria	7	Julio	2023-10-07T00:00:00	2024-11-08T04:00:00	8	Radiación solar	0
117789	7	Sololá	701	Sololá	4	Finca Santa Victoria	7	Julio	2023-10-07T00:00:00	2024-11-08T05:00:00	2	Temperatura media	13.9
117790	7	Sololá	701	Sololá	4	Finca Santa Victoria	7	Julio	2023-10-07T00:00:00	2024-11-08T05:00:00	4	Temperatura máxima	13.9
117791	7	Sololá	701	Sololá	4	Finca Santa Victoria	7	Julio	2023-10-07T00:00:00	2024-11-08T05:00:00	3	Temperatura mínima	12.8
117792	7	Sololá	701	Sololá	4	Finca Santa Victoria	7	Julio	2023-10-07T00:00:00	2024-11-08T05:00:00	5	Humedad	92
117793	7	Sololá	701	Sololá	4	Finca Santa Victoria	7	Julio	2023-10-07T00:00:00	2024-11-08T05:00:00	6	Velocidad del viento	0
117794	7	Sololá	701	Sololá	4	Finca Santa Victoria	7	Julio	2023-10-07T00:00:00	2024-11-08T05:00:00	7	Dirección del viento	0
117795	7	Sololá	701	Sololá	4	Finca Santa Victoria	7	Julio	2023-10-07T00:00:00	2024-11-08T05:00:00	1	Precipitación	0
117796	7	Sololá	701	Sololá	4	Finca Santa Victoria	7	Julio	2023-10-07T00:00:00	2024-11-08T05:00:00	8	Radiación solar	0
117797	7	Sololá	701	Sololá	4	Finca Santa Victoria	7	Julio	2023-10-07T00:00:00	2024-11-08T06:00:00	2	Temperatura media	13.2
117798	7	Sololá	701	Sololá	4	Finca Santa Victoria	7	Julio	2023-10-07T00:00:00	2024-11-08T06:00:00	4	Temperatura máxima	13.9
117799	7	Sololá	701	Sololá	4	Finca Santa Victoria	7	Julio	2023-10-07T00:00:00	2024-11-08T06:00:00	3	Temperatura mínima	13.2
117800	7	Sololá	701	Sololá	4	Finca Santa Victoria	7	Julio	2023-10-07T00:00:00	2024-11-08T06:00:00	5	Humedad	92
117801	7	Sololá	701	Sololá	4	Finca Santa Victoria	7	Julio	2023-10-07T00:00:00	2024-11-08T06:00:00	6	Velocidad del viento	0
117802	7	Sololá	701	Sololá	4	Finca Santa Victoria	7	Julio	2023-10-07T00:00:00	2024-11-08T06:00:00	7	Dirección del viento	0
117803	7	Sololá	701	Sololá	4	Finca Santa Victoria	7	Julio	2023-10-07T00:00:00	2024-11-08T06:00:00	1	Precipitación	0
117804	7	Sololá	701	Sololá	4	Finca Santa Victoria	7	Julio	2023-10-07T00:00:00	2024-11-08T06:00:00	8	Radiación solar	0
117805	7	Sololá	701	Sololá	4	Finca Santa Victoria	7	Julio	2023-10-07T00:00:00	2024-11-08T07:00:00	2	Temperatura media	12.7
117806	7	Sololá	701	Sololá	4	Finca Santa Victoria	7	Julio	2023-10-07T00:00:00	2024-11-08T07:00:00	4	Temperatura máxima	13.2
117807	7	Sololá	701	Sololá	4	Finca Santa Victoria	7	Julio	2023-10-07T00:00:00	2024-11-08T07:00:00	3	Temperatura mínima	12.7
117808	7	Sololá	701	Sololá	4	Finca Santa Victoria	7	Julio	2023-10-07T00:00:00	2024-11-08T07:00:00	5	Humedad	93
117809	7	Sololá	701	Sololá	4	Finca Santa Victoria	7	Julio	2023-10-07T00:00:00	2024-11-08T07:00:00	6	Velocidad del viento	0
117810	7	Sololá	701	Sololá	4	Finca Santa Victoria	7	Julio	2023-10-07T00:00:00	2024-11-08T07:00:00	7	Dirección del viento	0
117811	7	Sololá	701	Sololá	4	Finca Santa Victoria	7	Julio	2023-10-07T00:00:00	2024-11-08T07:00:00	1	Precipitación	0
117812	7	Sololá	701	Sololá	4	Finca Santa Victoria	7	Julio	2023-10-07T00:00:00	2024-11-08T07:00:00	8	Radiación solar	10
117813	7	Sololá	701	Sololá	4	Finca Santa Victoria	7	Julio	2023-10-07T00:00:00	2024-11-08T08:00:00	2	Temperatura media	14.9
117814	7	Sololá	701	Sololá	4	Finca Santa Victoria	7	Julio	2023-10-07T00:00:00	2024-11-08T08:00:00	4	Temperatura máxima	14.9
117815	7	Sololá	701	Sololá	4	Finca Santa Victoria	7	Julio	2023-10-07T00:00:00	2024-11-08T08:00:00	3	Temperatura mínima	12.7
117816	7	Sololá	701	Sololá	4	Finca Santa Victoria	7	Julio	2023-10-07T00:00:00	2024-11-08T08:00:00	5	Humedad	88
117817	7	Sololá	701	Sololá	4	Finca Santa Victoria	7	Julio	2023-10-07T00:00:00	2024-11-08T08:00:00	6	Velocidad del viento	0
117818	7	Sololá	701	Sololá	4	Finca Santa Victoria	7	Julio	2023-10-07T00:00:00	2024-11-08T08:00:00	7	Dirección del viento	0
117819	7	Sololá	701	Sololá	4	Finca Santa Victoria	7	Julio	2023-10-07T00:00:00	2024-11-08T08:00:00	1	Precipitación	0
117820	7	Sololá	701	Sololá	4	Finca Santa Victoria	7	Julio	2023-10-07T00:00:00	2024-11-08T08:00:00	8	Radiación solar	111
117821	7	Sololá	701	Sololá	4	Finca Santa Victoria	7	Julio	2023-10-07T00:00:00	2024-11-08T09:00:00	2	Temperatura media	17.6
117822	7	Sololá	701	Sololá	4	Finca Santa Victoria	7	Julio	2023-10-07T00:00:00	2024-11-08T09:00:00	4	Temperatura máxima	17.8
117823	7	Sololá	701	Sololá	4	Finca Santa Victoria	7	Julio	2023-10-07T00:00:00	2024-11-08T09:00:00	3	Temperatura mínima	14.9
117824	7	Sololá	701	Sololá	4	Finca Santa Victoria	7	Julio	2023-10-07T00:00:00	2024-11-08T09:00:00	5	Humedad	80
117825	7	Sololá	701	Sololá	4	Finca Santa Victoria	7	Julio	2023-10-07T00:00:00	2024-11-08T09:00:00	6	Velocidad del viento	0
117826	7	Sololá	701	Sololá	4	Finca Santa Victoria	7	Julio	2023-10-07T00:00:00	2024-11-08T09:00:00	7	Dirección del viento	0
117827	7	Sololá	701	Sololá	4	Finca Santa Victoria	7	Julio	2023-10-07T00:00:00	2024-11-08T09:00:00	1	Precipitación	0
117828	7	Sololá	701	Sololá	4	Finca Santa Victoria	7	Julio	2023-10-07T00:00:00	2024-11-08T09:00:00	8	Radiación solar	406
117829	7	Sololá	701	Sololá	4	Finca Santa Victoria	7	Julio	2023-10-07T00:00:00	2024-11-08T10:00:00	2	Temperatura media	19.3
117830	7	Sololá	701	Sololá	4	Finca Santa Victoria	7	Julio	2023-10-07T00:00:00	2024-11-08T10:00:00	4	Temperatura máxima	19.3
117831	7	Sololá	701	Sololá	4	Finca Santa Victoria	7	Julio	2023-10-07T00:00:00	2024-11-08T10:00:00	3	Temperatura mínima	17.6
117832	7	Sololá	701	Sololá	4	Finca Santa Victoria	7	Julio	2023-10-07T00:00:00	2024-11-08T10:00:00	5	Humedad	75
117833	7	Sololá	701	Sololá	4	Finca Santa Victoria	7	Julio	2023-10-07T00:00:00	2024-11-08T10:00:00	6	Velocidad del viento	1.6
117834	7	Sololá	701	Sololá	4	Finca Santa Victoria	7	Julio	2023-10-07T00:00:00	2024-11-08T10:00:00	7	Dirección del viento	1.61
117835	7	Sololá	701	Sololá	4	Finca Santa Victoria	7	Julio	2023-10-07T00:00:00	2024-11-08T10:00:00	1	Precipitación	0
117836	7	Sololá	701	Sololá	4	Finca Santa Victoria	7	Julio	2023-10-07T00:00:00	2024-11-08T10:00:00	8	Radiación solar	300
117837	7	Sololá	701	Sololá	4	Finca Santa Victoria	7	Julio	2023-10-07T00:00:00	2024-11-08T11:00:00	2	Temperatura media	20
117838	7	Sololá	701	Sololá	4	Finca Santa Victoria	7	Julio	2023-10-07T00:00:00	2024-11-08T11:00:00	4	Temperatura máxima	20.4
117839	7	Sololá	701	Sololá	4	Finca Santa Victoria	7	Julio	2023-10-07T00:00:00	2024-11-08T11:00:00	3	Temperatura mínima	19.3
117840	7	Sololá	701	Sololá	4	Finca Santa Victoria	7	Julio	2023-10-07T00:00:00	2024-11-08T11:00:00	5	Humedad	72
117841	7	Sololá	701	Sololá	4	Finca Santa Victoria	7	Julio	2023-10-07T00:00:00	2024-11-08T11:00:00	6	Velocidad del viento	3.2
117842	7	Sololá	701	Sololá	4	Finca Santa Victoria	7	Julio	2023-10-07T00:00:00	2024-11-08T11:00:00	7	Dirección del viento	3.22
117843	7	Sololá	701	Sololá	4	Finca Santa Victoria	7	Julio	2023-10-07T00:00:00	2024-11-08T11:00:00	1	Precipitación	0
117844	7	Sololá	701	Sololá	4	Finca Santa Victoria	7	Julio	2023-10-07T00:00:00	2024-11-08T11:00:00	8	Radiación solar	260
117845	7	Sololá	701	Sololá	4	Finca Santa Victoria	7	Julio	2023-10-07T00:00:00	2024-11-08T12:00:00	2	Temperatura media	21.7
117846	7	Sololá	701	Sololá	4	Finca Santa Victoria	7	Julio	2023-10-07T00:00:00	2024-11-08T12:00:00	4	Temperatura máxima	21.7
117847	7	Sololá	701	Sololá	4	Finca Santa Victoria	7	Julio	2023-10-07T00:00:00	2024-11-08T12:00:00	3	Temperatura mínima	19.9
117848	7	Sololá	701	Sololá	4	Finca Santa Victoria	7	Julio	2023-10-07T00:00:00	2024-11-08T12:00:00	5	Humedad	62
117849	7	Sololá	701	Sololá	4	Finca Santa Victoria	7	Julio	2023-10-07T00:00:00	2024-11-08T12:00:00	6	Velocidad del viento	3.2
117850	7	Sololá	701	Sololá	4	Finca Santa Victoria	7	Julio	2023-10-07T00:00:00	2024-11-08T12:00:00	7	Dirección del viento	3.22
117851	7	Sololá	701	Sololá	4	Finca Santa Victoria	7	Julio	2023-10-07T00:00:00	2024-11-08T12:00:00	1	Precipitación	0
117852	7	Sololá	701	Sololá	4	Finca Santa Victoria	7	Julio	2023-10-07T00:00:00	2024-11-08T12:00:00	8	Radiación solar	970
117853	7	Sololá	701	Sololá	4	Finca Santa Victoria	7	Julio	2023-10-07T00:00:00	2024-11-08T13:00:00	2	Temperatura media	21.5
117854	7	Sololá	701	Sololá	4	Finca Santa Victoria	7	Julio	2023-10-07T00:00:00	2024-11-08T13:00:00	4	Temperatura máxima	21.7
117855	7	Sololá	701	Sololá	4	Finca Santa Victoria	7	Julio	2023-10-07T00:00:00	2024-11-08T13:00:00	3	Temperatura mínima	20.6
117856	7	Sololá	701	Sololá	4	Finca Santa Victoria	7	Julio	2023-10-07T00:00:00	2024-11-08T13:00:00	5	Humedad	67
117857	7	Sololá	701	Sololá	4	Finca Santa Victoria	7	Julio	2023-10-07T00:00:00	2024-11-08T13:00:00	6	Velocidad del viento	3.2
117858	7	Sololá	701	Sololá	4	Finca Santa Victoria	7	Julio	2023-10-07T00:00:00	2024-11-08T13:00:00	7	Dirección del viento	3.22
117859	7	Sololá	701	Sololá	4	Finca Santa Victoria	7	Julio	2023-10-07T00:00:00	2024-11-08T13:00:00	1	Precipitación	0
117860	7	Sololá	701	Sololá	4	Finca Santa Victoria	7	Julio	2023-10-07T00:00:00	2024-11-08T13:00:00	8	Radiación solar	764
117861	7	Sololá	701	Sololá	4	Finca Santa Victoria	7	Julio	2023-10-07T00:00:00	2024-11-08T14:00:00	2	Temperatura media	22.1
117862	7	Sololá	701	Sololá	4	Finca Santa Victoria	7	Julio	2023-10-07T00:00:00	2024-11-08T14:00:00	4	Temperatura máxima	22.2
117863	7	Sololá	701	Sololá	4	Finca Santa Victoria	7	Julio	2023-10-07T00:00:00	2024-11-08T14:00:00	3	Temperatura mínima	21.3
117864	7	Sololá	701	Sololá	4	Finca Santa Victoria	7	Julio	2023-10-07T00:00:00	2024-11-08T14:00:00	5	Humedad	63
117865	7	Sololá	701	Sololá	4	Finca Santa Victoria	7	Julio	2023-10-07T00:00:00	2024-11-08T14:00:00	6	Velocidad del viento	3.2
117866	7	Sololá	701	Sololá	4	Finca Santa Victoria	7	Julio	2023-10-07T00:00:00	2024-11-08T14:00:00	7	Dirección del viento	3.22
117867	7	Sololá	701	Sololá	4	Finca Santa Victoria	7	Julio	2023-10-07T00:00:00	2024-11-08T14:00:00	1	Precipitación	0
117868	7	Sololá	701	Sololá	4	Finca Santa Victoria	7	Julio	2023-10-07T00:00:00	2024-11-08T14:00:00	8	Radiación solar	921
117869	7	Sololá	701	Sololá	4	Finca Santa Victoria	7	Julio	2023-10-07T00:00:00	2024-11-08T15:00:00	2	Temperatura media	21.9
117870	7	Sololá	701	Sololá	4	Finca Santa Victoria	7	Julio	2023-10-07T00:00:00	2024-11-08T15:00:00	4	Temperatura máxima	22.1
117871	7	Sololá	701	Sololá	4	Finca Santa Victoria	7	Julio	2023-10-07T00:00:00	2024-11-08T15:00:00	3	Temperatura mínima	21.7
117872	7	Sololá	701	Sololá	4	Finca Santa Victoria	7	Julio	2023-10-07T00:00:00	2024-11-08T15:00:00	5	Humedad	65
117873	7	Sololá	701	Sololá	4	Finca Santa Victoria	7	Julio	2023-10-07T00:00:00	2024-11-08T15:00:00	6	Velocidad del viento	3.2
117874	7	Sololá	701	Sololá	4	Finca Santa Victoria	7	Julio	2023-10-07T00:00:00	2024-11-08T15:00:00	7	Dirección del viento	3.22
117875	7	Sololá	701	Sololá	4	Finca Santa Victoria	7	Julio	2023-10-07T00:00:00	2024-11-08T15:00:00	1	Precipitación	0
117876	7	Sololá	701	Sololá	4	Finca Santa Victoria	7	Julio	2023-10-07T00:00:00	2024-11-08T15:00:00	8	Radiación solar	361
117877	7	Sololá	701	Sololá	4	Finca Santa Victoria	7	Julio	2023-10-07T00:00:00	2024-11-08T16:00:00	2	Temperatura media	18.9
117878	7	Sololá	701	Sololá	4	Finca Santa Victoria	7	Julio	2023-10-07T00:00:00	2024-11-08T16:00:00	4	Temperatura máxima	22.2
117879	7	Sololá	701	Sololá	4	Finca Santa Victoria	7	Julio	2023-10-07T00:00:00	2024-11-08T16:00:00	3	Temperatura mínima	18.9
117880	7	Sololá	701	Sololá	4	Finca Santa Victoria	7	Julio	2023-10-07T00:00:00	2024-11-08T16:00:00	5	Humedad	89
117881	7	Sololá	701	Sololá	4	Finca Santa Victoria	7	Julio	2023-10-07T00:00:00	2024-11-08T16:00:00	6	Velocidad del viento	1.6
117882	7	Sololá	701	Sololá	4	Finca Santa Victoria	7	Julio	2023-10-07T00:00:00	2024-11-08T16:00:00	7	Dirección del viento	1.61
117883	7	Sololá	701	Sololá	4	Finca Santa Victoria	7	Julio	2023-10-07T00:00:00	2024-11-08T16:00:00	1	Precipitación	0
117884	7	Sololá	701	Sololá	4	Finca Santa Victoria	7	Julio	2023-10-07T00:00:00	2024-11-08T16:00:00	8	Radiación solar	114
117885	7	Sololá	701	Sololá	4	Finca Santa Victoria	7	Julio	2023-10-07T00:00:00	2024-11-08T17:00:00	2	Temperatura media	17.1
117886	7	Sololá	701	Sololá	4	Finca Santa Victoria	7	Julio	2023-10-07T00:00:00	2024-11-08T17:00:00	4	Temperatura máxima	18.8
117887	7	Sololá	701	Sololá	4	Finca Santa Victoria	7	Julio	2023-10-07T00:00:00	2024-11-08T17:00:00	3	Temperatura mínima	17.1
117888	7	Sololá	701	Sololá	4	Finca Santa Victoria	7	Julio	2023-10-07T00:00:00	2024-11-08T17:00:00	5	Humedad	95
117889	7	Sololá	701	Sololá	4	Finca Santa Victoria	7	Julio	2023-10-07T00:00:00	2024-11-08T17:00:00	6	Velocidad del viento	1.6
117890	7	Sololá	701	Sololá	4	Finca Santa Victoria	7	Julio	2023-10-07T00:00:00	2024-11-08T17:00:00	7	Dirección del viento	1.61
117891	7	Sololá	701	Sololá	4	Finca Santa Victoria	7	Julio	2023-10-07T00:00:00	2024-11-08T17:00:00	1	Precipitación	0
117892	7	Sololá	701	Sololá	4	Finca Santa Victoria	7	Julio	2023-10-07T00:00:00	2024-11-08T17:00:00	8	Radiación solar	31
117893	7	Sololá	701	Sololá	4	Finca Santa Victoria	7	Julio	2023-10-07T00:00:00	2024-11-08T18:00:00	2	Temperatura media	16.5
117894	7	Sololá	701	Sololá	4	Finca Santa Victoria	7	Julio	2023-10-07T00:00:00	2024-11-08T18:00:00	4	Temperatura máxima	17.1
117895	7	Sololá	701	Sololá	4	Finca Santa Victoria	7	Julio	2023-10-07T00:00:00	2024-11-08T18:00:00	3	Temperatura mínima	16.4
117896	7	Sololá	701	Sololá	4	Finca Santa Victoria	7	Julio	2023-10-07T00:00:00	2024-11-08T18:00:00	5	Humedad	94
117897	7	Sololá	701	Sololá	4	Finca Santa Victoria	7	Julio	2023-10-07T00:00:00	2024-11-08T18:00:00	6	Velocidad del viento	0
117898	7	Sololá	701	Sololá	4	Finca Santa Victoria	7	Julio	2023-10-07T00:00:00	2024-11-08T18:00:00	7	Dirección del viento	0
117899	7	Sololá	701	Sololá	4	Finca Santa Victoria	7	Julio	2023-10-07T00:00:00	2024-11-08T18:00:00	1	Precipitación	0
117900	7	Sololá	701	Sololá	4	Finca Santa Victoria	7	Julio	2023-10-07T00:00:00	2024-11-08T18:00:00	8	Radiación solar	25
117901	7	Sololá	701	Sololá	4	Finca Santa Victoria	7	Julio	2023-10-07T00:00:00	2024-11-08T19:00:00	2	Temperatura media	15.8
117902	7	Sololá	701	Sololá	4	Finca Santa Victoria	7	Julio	2023-10-07T00:00:00	2024-11-08T19:00:00	4	Temperatura máxima	16.8
117903	7	Sololá	701	Sololá	4	Finca Santa Victoria	7	Julio	2023-10-07T00:00:00	2024-11-08T19:00:00	3	Temperatura mínima	15.8
117904	7	Sololá	701	Sololá	4	Finca Santa Victoria	7	Julio	2023-10-07T00:00:00	2024-11-08T19:00:00	5	Humedad	75
117905	7	Sololá	701	Sololá	4	Finca Santa Victoria	7	Julio	2023-10-07T00:00:00	2024-11-08T19:00:00	6	Velocidad del viento	1.6
117906	7	Sololá	701	Sololá	4	Finca Santa Victoria	7	Julio	2023-10-07T00:00:00	2024-11-08T19:00:00	7	Dirección del viento	1.61
117907	7	Sololá	701	Sololá	4	Finca Santa Victoria	7	Julio	2023-10-07T00:00:00	2024-11-08T19:00:00	1	Precipitación	0
117908	7	Sololá	701	Sololá	4	Finca Santa Victoria	7	Julio	2023-10-07T00:00:00	2024-11-08T19:00:00	8	Radiación solar	0
117909	7	Sololá	701	Sololá	4	Finca Santa Victoria	7	Julio	2023-10-07T00:00:00	2024-11-08T20:00:00	2	Temperatura media	13.9
117910	7	Sololá	701	Sololá	4	Finca Santa Victoria	7	Julio	2023-10-07T00:00:00	2024-11-08T20:00:00	4	Temperatura máxima	15.8
117911	7	Sololá	701	Sololá	4	Finca Santa Victoria	7	Julio	2023-10-07T00:00:00	2024-11-08T20:00:00	3	Temperatura mínima	13.8
117912	7	Sololá	701	Sololá	4	Finca Santa Victoria	7	Julio	2023-10-07T00:00:00	2024-11-08T20:00:00	5	Humedad	90
117913	7	Sololá	701	Sololá	4	Finca Santa Victoria	7	Julio	2023-10-07T00:00:00	2024-11-08T20:00:00	6	Velocidad del viento	4.8
117914	7	Sololá	701	Sololá	4	Finca Santa Victoria	7	Julio	2023-10-07T00:00:00	2024-11-08T20:00:00	7	Dirección del viento	4.83
117915	7	Sololá	701	Sololá	4	Finca Santa Victoria	7	Julio	2023-10-07T00:00:00	2024-11-08T20:00:00	1	Precipitación	0.4
117916	7	Sololá	701	Sololá	4	Finca Santa Victoria	7	Julio	2023-10-07T00:00:00	2024-11-08T20:00:00	8	Radiación solar	0
117917	7	Sololá	701	Sololá	4	Finca Santa Victoria	7	Julio	2023-10-07T00:00:00	2024-11-08T21:00:00	2	Temperatura media	14.4
117918	7	Sololá	701	Sololá	4	Finca Santa Victoria	7	Julio	2023-10-07T00:00:00	2024-11-08T21:00:00	4	Temperatura máxima	14.4
117919	7	Sololá	701	Sololá	4	Finca Santa Victoria	7	Julio	2023-10-07T00:00:00	2024-11-08T21:00:00	3	Temperatura mínima	13.9
117920	7	Sololá	701	Sololá	4	Finca Santa Victoria	7	Julio	2023-10-07T00:00:00	2024-11-08T21:00:00	5	Humedad	93
117921	7	Sololá	701	Sololá	4	Finca Santa Victoria	7	Julio	2023-10-07T00:00:00	2024-11-08T21:00:00	6	Velocidad del viento	1.6
117922	7	Sololá	701	Sololá	4	Finca Santa Victoria	7	Julio	2023-10-07T00:00:00	2024-11-08T21:00:00	7	Dirección del viento	1.61
117923	7	Sololá	701	Sololá	4	Finca Santa Victoria	7	Julio	2023-10-07T00:00:00	2024-11-08T21:00:00	1	Precipitación	0.8
117924	7	Sololá	701	Sololá	4	Finca Santa Victoria	7	Julio	2023-10-07T00:00:00	2024-11-08T21:00:00	8	Radiación solar	0
117925	7	Sololá	701	Sololá	4	Finca Santa Victoria	7	Julio	2023-10-07T00:00:00	2024-11-08T22:00:00	2	Temperatura media	14.2
117926	7	Sololá	701	Sololá	4	Finca Santa Victoria	7	Julio	2023-10-07T00:00:00	2024-11-08T22:00:00	4	Temperatura máxima	14.6
117927	7	Sololá	701	Sololá	4	Finca Santa Victoria	7	Julio	2023-10-07T00:00:00	2024-11-08T22:00:00	3	Temperatura mínima	14.1
117928	7	Sololá	701	Sololá	4	Finca Santa Victoria	7	Julio	2023-10-07T00:00:00	2024-11-08T22:00:00	5	Humedad	92
117929	7	Sololá	701	Sololá	4	Finca Santa Victoria	7	Julio	2023-10-07T00:00:00	2024-11-08T22:00:00	6	Velocidad del viento	1.6
117930	7	Sololá	701	Sololá	4	Finca Santa Victoria	7	Julio	2023-10-07T00:00:00	2024-11-08T22:00:00	7	Dirección del viento	1.61
117931	7	Sololá	701	Sololá	4	Finca Santa Victoria	7	Julio	2023-10-07T00:00:00	2024-11-08T22:00:00	1	Precipitación	0.2
117932	7	Sololá	701	Sololá	4	Finca Santa Victoria	7	Julio	2023-10-07T00:00:00	2024-11-08T22:00:00	8	Radiación solar	0
117933	7	Sololá	701	Sololá	4	Finca Santa Victoria	7	Julio	2023-10-07T00:00:00	2024-11-08T23:00:00	2	Temperatura media	13.7
117934	7	Sololá	701	Sololá	4	Finca Santa Victoria	7	Julio	2023-10-07T00:00:00	2024-11-08T23:00:00	4	Temperatura máxima	14.2
117935	7	Sololá	701	Sololá	4	Finca Santa Victoria	7	Julio	2023-10-07T00:00:00	2024-11-08T23:00:00	3	Temperatura mínima	13.6
117936	7	Sololá	701	Sololá	4	Finca Santa Victoria	7	Julio	2023-10-07T00:00:00	2024-11-08T23:00:00	5	Humedad	89
117937	7	Sololá	701	Sololá	4	Finca Santa Victoria	7	Julio	2023-10-07T00:00:00	2024-11-08T23:00:00	6	Velocidad del viento	1.6
117938	7	Sololá	701	Sololá	4	Finca Santa Victoria	7	Julio	2023-10-07T00:00:00	2024-11-08T23:00:00	7	Dirección del viento	1.61
117939	7	Sololá	701	Sololá	4	Finca Santa Victoria	7	Julio	2023-10-07T00:00:00	2024-11-08T23:00:00	1	Precipitación	0
117940	7	Sololá	701	Sololá	4	Finca Santa Victoria	7	Julio	2023-10-07T00:00:00	2024-11-08T23:00:00	8	Radiación solar	0
117941	7	Sololá	701	Sololá	4	Finca Santa Victoria	7	Julio	2023-11-07T00:00:00	2024-11-08T00:00:00	2	Temperatura media	14.3
117942	7	Sololá	701	Sololá	4	Finca Santa Victoria	7	Julio	2023-11-07T00:00:00	2024-11-08T00:00:00	4	Temperatura máxima	14.3
117943	7	Sololá	701	Sololá	4	Finca Santa Victoria	7	Julio	2023-11-07T00:00:00	2024-11-08T00:00:00	3	Temperatura mínima	13.6
117944	7	Sololá	701	Sololá	4	Finca Santa Victoria	7	Julio	2023-11-07T00:00:00	2024-11-08T00:00:00	5	Humedad	83
117945	7	Sololá	701	Sololá	4	Finca Santa Victoria	7	Julio	2023-11-07T00:00:00	2024-11-08T00:00:00	6	Velocidad del viento	1.6
117946	7	Sololá	701	Sololá	4	Finca Santa Victoria	7	Julio	2023-11-07T00:00:00	2024-11-08T00:00:00	7	Dirección del viento	1.61
117947	7	Sololá	701	Sololá	4	Finca Santa Victoria	7	Julio	2023-11-07T00:00:00	2024-11-08T00:00:00	1	Precipitación	0
117948	7	Sololá	701	Sololá	4	Finca Santa Victoria	7	Julio	2023-11-07T00:00:00	2024-11-08T00:00:00	8	Radiación solar	0
117949	7	Sololá	701	Sololá	4	Finca Santa Victoria	7	Julio	2023-11-07T00:00:00	2024-11-08T01:00:00	2	Temperatura media	15.4
117950	7	Sololá	701	Sololá	4	Finca Santa Victoria	7	Julio	2023-11-07T00:00:00	2024-11-08T01:00:00	4	Temperatura máxima	15.5
117951	7	Sololá	701	Sololá	4	Finca Santa Victoria	7	Julio	2023-11-07T00:00:00	2024-11-08T01:00:00	3	Temperatura mínima	14.3
117952	7	Sololá	701	Sololá	4	Finca Santa Victoria	7	Julio	2023-11-07T00:00:00	2024-11-08T01:00:00	5	Humedad	82
117953	7	Sololá	701	Sololá	4	Finca Santa Victoria	7	Julio	2023-11-07T00:00:00	2024-11-08T01:00:00	6	Velocidad del viento	3.2
117954	7	Sololá	701	Sololá	4	Finca Santa Victoria	7	Julio	2023-11-07T00:00:00	2024-11-08T01:00:00	7	Dirección del viento	3.22
117955	7	Sololá	701	Sololá	4	Finca Santa Victoria	7	Julio	2023-11-07T00:00:00	2024-11-08T01:00:00	1	Precipitación	0
117956	7	Sololá	701	Sololá	4	Finca Santa Victoria	7	Julio	2023-11-07T00:00:00	2024-11-08T01:00:00	8	Radiación solar	0
117957	7	Sololá	701	Sololá	4	Finca Santa Victoria	7	Julio	2023-11-07T00:00:00	2024-11-08T02:00:00	2	Temperatura media	15.1
117958	7	Sololá	701	Sololá	4	Finca Santa Victoria	7	Julio	2023-11-07T00:00:00	2024-11-08T02:00:00	4	Temperatura máxima	15.6
117959	7	Sololá	701	Sololá	4	Finca Santa Victoria	7	Julio	2023-11-07T00:00:00	2024-11-08T02:00:00	3	Temperatura mínima	15
117960	7	Sololá	701	Sololá	4	Finca Santa Victoria	7	Julio	2023-11-07T00:00:00	2024-11-08T02:00:00	5	Humedad	84
117961	7	Sololá	701	Sololá	4	Finca Santa Victoria	7	Julio	2023-11-07T00:00:00	2024-11-08T02:00:00	6	Velocidad del viento	3.2
117962	7	Sololá	701	Sololá	4	Finca Santa Victoria	7	Julio	2023-11-07T00:00:00	2024-11-08T02:00:00	7	Dirección del viento	3.22
117963	7	Sololá	701	Sololá	4	Finca Santa Victoria	7	Julio	2023-11-07T00:00:00	2024-11-08T02:00:00	1	Precipitación	0
117964	7	Sololá	701	Sololá	4	Finca Santa Victoria	7	Julio	2023-11-07T00:00:00	2024-11-08T02:00:00	8	Radiación solar	0
117965	7	Sololá	701	Sololá	4	Finca Santa Victoria	7	Julio	2023-11-07T00:00:00	2024-11-08T03:00:00	2	Temperatura media	14.4
117966	7	Sololá	701	Sololá	4	Finca Santa Victoria	7	Julio	2023-11-07T00:00:00	2024-11-08T03:00:00	4	Temperatura máxima	15.1
117967	7	Sololá	701	Sololá	4	Finca Santa Victoria	7	Julio	2023-11-07T00:00:00	2024-11-08T03:00:00	3	Temperatura mínima	14.3
117968	7	Sololá	701	Sololá	4	Finca Santa Victoria	7	Julio	2023-11-07T00:00:00	2024-11-08T03:00:00	5	Humedad	82
117969	7	Sololá	701	Sololá	4	Finca Santa Victoria	7	Julio	2023-11-07T00:00:00	2024-11-08T03:00:00	6	Velocidad del viento	1.6
117970	7	Sololá	701	Sololá	4	Finca Santa Victoria	7	Julio	2023-11-07T00:00:00	2024-11-08T03:00:00	7	Dirección del viento	1.61
117971	7	Sololá	701	Sololá	4	Finca Santa Victoria	7	Julio	2023-11-07T00:00:00	2024-11-08T03:00:00	1	Precipitación	0
117972	7	Sololá	701	Sololá	4	Finca Santa Victoria	7	Julio	2023-11-07T00:00:00	2024-11-08T03:00:00	8	Radiación solar	0
117973	7	Sololá	701	Sololá	4	Finca Santa Victoria	7	Julio	2023-11-07T00:00:00	2024-11-08T04:00:00	2	Temperatura media	14.7
117974	7	Sololá	701	Sololá	4	Finca Santa Victoria	7	Julio	2023-11-07T00:00:00	2024-11-08T04:00:00	4	Temperatura máxima	14.8
117975	7	Sololá	701	Sololá	4	Finca Santa Victoria	7	Julio	2023-11-07T00:00:00	2024-11-08T04:00:00	3	Temperatura mínima	14.3
117976	7	Sololá	701	Sololá	4	Finca Santa Victoria	7	Julio	2023-11-07T00:00:00	2024-11-08T04:00:00	5	Humedad	81
117977	7	Sololá	701	Sololá	4	Finca Santa Victoria	7	Julio	2023-11-07T00:00:00	2024-11-08T04:00:00	6	Velocidad del viento	1.6
117978	7	Sololá	701	Sololá	4	Finca Santa Victoria	7	Julio	2023-11-07T00:00:00	2024-11-08T04:00:00	7	Dirección del viento	1.61
117979	7	Sololá	701	Sololá	4	Finca Santa Victoria	7	Julio	2023-11-07T00:00:00	2024-11-08T04:00:00	1	Precipitación	0
117980	7	Sololá	701	Sololá	4	Finca Santa Victoria	7	Julio	2023-11-07T00:00:00	2024-11-08T04:00:00	8	Radiación solar	0
117981	7	Sololá	701	Sololá	4	Finca Santa Victoria	7	Julio	2023-11-07T00:00:00	2024-11-08T05:00:00	2	Temperatura media	14.8
117982	7	Sololá	701	Sololá	4	Finca Santa Victoria	7	Julio	2023-11-07T00:00:00	2024-11-08T05:00:00	4	Temperatura máxima	15
117983	7	Sololá	701	Sololá	4	Finca Santa Victoria	7	Julio	2023-11-07T00:00:00	2024-11-08T05:00:00	3	Temperatura mínima	14.7
117984	7	Sololá	701	Sololá	4	Finca Santa Victoria	7	Julio	2023-11-07T00:00:00	2024-11-08T05:00:00	5	Humedad	83
117985	7	Sololá	701	Sololá	4	Finca Santa Victoria	7	Julio	2023-11-07T00:00:00	2024-11-08T05:00:00	6	Velocidad del viento	3.2
117986	7	Sololá	701	Sololá	4	Finca Santa Victoria	7	Julio	2023-11-07T00:00:00	2024-11-08T05:00:00	7	Dirección del viento	3.22
117987	7	Sololá	701	Sololá	4	Finca Santa Victoria	7	Julio	2023-11-07T00:00:00	2024-11-08T05:00:00	1	Precipitación	0
117988	7	Sololá	701	Sololá	4	Finca Santa Victoria	7	Julio	2023-11-07T00:00:00	2024-11-08T05:00:00	8	Radiación solar	0
117989	7	Sololá	701	Sololá	4	Finca Santa Victoria	7	Julio	2023-11-07T00:00:00	2024-11-08T06:00:00	2	Temperatura media	14.3
117990	7	Sololá	701	Sololá	4	Finca Santa Victoria	7	Julio	2023-11-07T00:00:00	2024-11-08T06:00:00	4	Temperatura máxima	14.9
117991	7	Sololá	701	Sololá	4	Finca Santa Victoria	7	Julio	2023-11-07T00:00:00	2024-11-08T06:00:00	3	Temperatura mínima	14.2
117992	7	Sololá	701	Sololá	4	Finca Santa Victoria	7	Julio	2023-11-07T00:00:00	2024-11-08T06:00:00	5	Humedad	86
117993	7	Sololá	701	Sololá	4	Finca Santa Victoria	7	Julio	2023-11-07T00:00:00	2024-11-08T06:00:00	6	Velocidad del viento	1.6
117994	7	Sololá	701	Sololá	4	Finca Santa Victoria	7	Julio	2023-11-07T00:00:00	2024-11-08T06:00:00	7	Dirección del viento	1.61
117995	7	Sololá	701	Sololá	4	Finca Santa Victoria	7	Julio	2023-11-07T00:00:00	2024-11-08T06:00:00	1	Precipitación	0
117996	7	Sololá	701	Sololá	4	Finca Santa Victoria	7	Julio	2023-11-07T00:00:00	2024-11-08T06:00:00	8	Radiación solar	1
117997	7	Sololá	701	Sololá	4	Finca Santa Victoria	7	Julio	2023-11-07T00:00:00	2024-11-08T07:00:00	2	Temperatura media	14.8
117998	7	Sololá	701	Sololá	4	Finca Santa Victoria	7	Julio	2023-11-07T00:00:00	2024-11-08T07:00:00	4	Temperatura máxima	14.8
117999	7	Sololá	701	Sololá	4	Finca Santa Victoria	7	Julio	2023-11-07T00:00:00	2024-11-08T07:00:00	3	Temperatura mínima	14.2
118000	7	Sololá	701	Sololá	4	Finca Santa Victoria	7	Julio	2023-11-07T00:00:00	2024-11-08T07:00:00	5	Humedad	84
118001	7	Sololá	701	Sololá	4	Finca Santa Victoria	7	Julio	2023-11-07T00:00:00	2024-11-08T07:00:00	6	Velocidad del viento	1.6
118002	7	Sololá	701	Sololá	4	Finca Santa Victoria	7	Julio	2023-11-07T00:00:00	2024-11-08T07:00:00	7	Dirección del viento	1.61
118003	7	Sololá	701	Sololá	4	Finca Santa Victoria	7	Julio	2023-11-07T00:00:00	2024-11-08T07:00:00	1	Precipitación	0
118004	7	Sololá	701	Sololá	4	Finca Santa Victoria	7	Julio	2023-11-07T00:00:00	2024-11-08T07:00:00	8	Radiación solar	35
118005	7	Sololá	701	Sololá	4	Finca Santa Victoria	7	Julio	2023-11-07T00:00:00	2024-11-08T08:00:00	2	Temperatura media	17.8
118006	7	Sololá	701	Sololá	4	Finca Santa Victoria	7	Julio	2023-11-07T00:00:00	2024-11-08T08:00:00	4	Temperatura máxima	17.8
118007	7	Sololá	701	Sololá	4	Finca Santa Victoria	7	Julio	2023-11-07T00:00:00	2024-11-08T08:00:00	3	Temperatura mínima	14.8
118008	7	Sololá	701	Sololá	4	Finca Santa Victoria	7	Julio	2023-11-07T00:00:00	2024-11-08T08:00:00	5	Humedad	73
118009	7	Sololá	701	Sololá	4	Finca Santa Victoria	7	Julio	2023-11-07T00:00:00	2024-11-08T08:00:00	6	Velocidad del viento	3.2
118010	7	Sololá	701	Sololá	4	Finca Santa Victoria	7	Julio	2023-11-07T00:00:00	2024-11-08T08:00:00	7	Dirección del viento	3.22
118011	7	Sololá	701	Sololá	4	Finca Santa Victoria	7	Julio	2023-11-07T00:00:00	2024-11-08T08:00:00	1	Precipitación	0
118012	7	Sololá	701	Sololá	4	Finca Santa Victoria	7	Julio	2023-11-07T00:00:00	2024-11-08T08:00:00	8	Radiación solar	188
118013	7	Sololá	701	Sololá	4	Finca Santa Victoria	7	Julio	2023-11-07T00:00:00	2024-11-08T09:00:00	2	Temperatura media	19
118014	7	Sololá	701	Sololá	4	Finca Santa Victoria	7	Julio	2023-11-07T00:00:00	2024-11-08T09:00:00	4	Temperatura máxima	19.1
118015	7	Sololá	701	Sololá	4	Finca Santa Victoria	7	Julio	2023-11-07T00:00:00	2024-11-08T09:00:00	3	Temperatura mínima	17.8
118016	7	Sololá	701	Sololá	4	Finca Santa Victoria	7	Julio	2023-11-07T00:00:00	2024-11-08T09:00:00	5	Humedad	70
118017	7	Sololá	701	Sololá	4	Finca Santa Victoria	7	Julio	2023-11-07T00:00:00	2024-11-08T09:00:00	6	Velocidad del viento	3.2
118018	7	Sololá	701	Sololá	4	Finca Santa Victoria	7	Julio	2023-11-07T00:00:00	2024-11-08T09:00:00	7	Dirección del viento	3.22
118019	7	Sololá	701	Sololá	4	Finca Santa Victoria	7	Julio	2023-11-07T00:00:00	2024-11-08T09:00:00	1	Precipitación	0
118020	7	Sololá	701	Sololá	4	Finca Santa Victoria	7	Julio	2023-11-07T00:00:00	2024-11-08T09:00:00	8	Radiación solar	323
118021	7	Sololá	701	Sololá	4	Finca Santa Victoria	7	Julio	2023-11-07T00:00:00	2024-11-08T10:00:00	2	Temperatura media	18.8
118022	7	Sololá	701	Sololá	4	Finca Santa Victoria	7	Julio	2023-11-07T00:00:00	2024-11-08T10:00:00	4	Temperatura máxima	19.3
118023	7	Sololá	701	Sololá	4	Finca Santa Victoria	7	Julio	2023-11-07T00:00:00	2024-11-08T10:00:00	3	Temperatura mínima	18.7
118024	7	Sololá	701	Sololá	4	Finca Santa Victoria	7	Julio	2023-11-07T00:00:00	2024-11-08T10:00:00	5	Humedad	72
118025	7	Sololá	701	Sololá	4	Finca Santa Victoria	7	Julio	2023-11-07T00:00:00	2024-11-08T10:00:00	6	Velocidad del viento	3.2
118026	7	Sololá	701	Sololá	4	Finca Santa Victoria	7	Julio	2023-11-07T00:00:00	2024-11-08T10:00:00	7	Dirección del viento	3.22
118027	7	Sololá	701	Sololá	4	Finca Santa Victoria	7	Julio	2023-11-07T00:00:00	2024-11-08T10:00:00	1	Precipitación	0
118028	7	Sololá	701	Sololá	4	Finca Santa Victoria	7	Julio	2023-11-07T00:00:00	2024-11-08T10:00:00	8	Radiación solar	194
118029	7	Sololá	701	Sololá	4	Finca Santa Victoria	7	Julio	2023-11-07T00:00:00	2024-11-08T11:00:00	2	Temperatura media	21.6
118030	7	Sololá	701	Sololá	4	Finca Santa Victoria	7	Julio	2023-11-07T00:00:00	2024-11-08T11:00:00	4	Temperatura máxima	21.6
118031	7	Sololá	701	Sololá	4	Finca Santa Victoria	7	Julio	2023-11-07T00:00:00	2024-11-08T11:00:00	3	Temperatura mínima	18.8
118032	7	Sololá	701	Sololá	4	Finca Santa Victoria	7	Julio	2023-11-07T00:00:00	2024-11-08T11:00:00	5	Humedad	67
118033	7	Sololá	701	Sololá	4	Finca Santa Victoria	7	Julio	2023-11-07T00:00:00	2024-11-08T11:00:00	6	Velocidad del viento	3.2
118034	7	Sololá	701	Sololá	4	Finca Santa Victoria	7	Julio	2023-11-07T00:00:00	2024-11-08T11:00:00	7	Dirección del viento	3.22
118035	7	Sololá	701	Sololá	4	Finca Santa Victoria	7	Julio	2023-11-07T00:00:00	2024-11-08T11:00:00	1	Precipitación	0
118036	7	Sololá	701	Sololá	4	Finca Santa Victoria	7	Julio	2023-11-07T00:00:00	2024-11-08T11:00:00	8	Radiación solar	348
118037	7	Sololá	701	Sololá	4	Finca Santa Victoria	7	Julio	2023-11-07T00:00:00	2024-11-08T12:00:00	2	Temperatura media	22.2
118038	7	Sololá	701	Sololá	4	Finca Santa Victoria	7	Julio	2023-11-07T00:00:00	2024-11-08T12:00:00	4	Temperatura máxima	22.7
118039	7	Sololá	701	Sololá	4	Finca Santa Victoria	7	Julio	2023-11-07T00:00:00	2024-11-08T12:00:00	3	Temperatura mínima	21.5
118040	7	Sololá	701	Sololá	4	Finca Santa Victoria	7	Julio	2023-11-07T00:00:00	2024-11-08T12:00:00	5	Humedad	64
118041	7	Sololá	701	Sololá	4	Finca Santa Victoria	7	Julio	2023-11-07T00:00:00	2024-11-08T12:00:00	6	Velocidad del viento	3.2
118042	7	Sololá	701	Sololá	4	Finca Santa Victoria	7	Julio	2023-11-07T00:00:00	2024-11-08T12:00:00	7	Dirección del viento	3.22
118043	7	Sololá	701	Sololá	4	Finca Santa Victoria	7	Julio	2023-11-07T00:00:00	2024-11-08T12:00:00	1	Precipitación	0
118044	7	Sololá	701	Sololá	4	Finca Santa Victoria	7	Julio	2023-11-07T00:00:00	2024-11-08T12:00:00	8	Radiación solar	950
118045	7	Sololá	701	Sololá	4	Finca Santa Victoria	7	Julio	2023-11-07T00:00:00	2024-11-08T13:00:00	2	Temperatura media	21.6
118046	7	Sololá	701	Sololá	4	Finca Santa Victoria	7	Julio	2023-11-07T00:00:00	2024-11-08T13:00:00	4	Temperatura máxima	22.2
118047	7	Sololá	701	Sololá	4	Finca Santa Victoria	7	Julio	2023-11-07T00:00:00	2024-11-08T13:00:00	3	Temperatura mínima	21.3
118048	7	Sololá	701	Sololá	4	Finca Santa Victoria	7	Julio	2023-11-07T00:00:00	2024-11-08T13:00:00	5	Humedad	65
118049	7	Sololá	701	Sololá	4	Finca Santa Victoria	7	Julio	2023-11-07T00:00:00	2024-11-08T13:00:00	6	Velocidad del viento	3.2
118050	7	Sololá	701	Sololá	4	Finca Santa Victoria	7	Julio	2023-11-07T00:00:00	2024-11-08T13:00:00	7	Dirección del viento	3.22
118051	7	Sololá	701	Sololá	4	Finca Santa Victoria	7	Julio	2023-11-07T00:00:00	2024-11-08T13:00:00	1	Precipitación	0
118052	7	Sololá	701	Sololá	4	Finca Santa Victoria	7	Julio	2023-11-07T00:00:00	2024-11-08T13:00:00	8	Radiación solar	357
118053	7	Sololá	701	Sololá	4	Finca Santa Victoria	7	Julio	2023-11-07T00:00:00	2024-11-08T14:00:00	2	Temperatura media	21.3
118054	7	Sololá	701	Sololá	4	Finca Santa Victoria	7	Julio	2023-11-07T00:00:00	2024-11-08T14:00:00	4	Temperatura máxima	22.2
118055	7	Sololá	701	Sololá	4	Finca Santa Victoria	7	Julio	2023-11-07T00:00:00	2024-11-08T14:00:00	3	Temperatura mínima	21
118056	7	Sololá	701	Sololá	4	Finca Santa Victoria	7	Julio	2023-11-07T00:00:00	2024-11-08T14:00:00	5	Humedad	61
118057	7	Sololá	701	Sololá	4	Finca Santa Victoria	7	Julio	2023-11-07T00:00:00	2024-11-08T14:00:00	6	Velocidad del viento	4.8
118058	7	Sololá	701	Sololá	4	Finca Santa Victoria	7	Julio	2023-11-07T00:00:00	2024-11-08T14:00:00	7	Dirección del viento	4.83
118059	7	Sololá	701	Sololá	4	Finca Santa Victoria	7	Julio	2023-11-07T00:00:00	2024-11-08T14:00:00	1	Precipitación	0
118060	7	Sololá	701	Sololá	4	Finca Santa Victoria	7	Julio	2023-11-07T00:00:00	2024-11-08T14:00:00	8	Radiación solar	341
118061	7	Sololá	701	Sololá	4	Finca Santa Victoria	7	Julio	2023-11-07T00:00:00	2024-11-08T15:00:00	2	Temperatura media	22.2
118062	7	Sololá	701	Sololá	4	Finca Santa Victoria	7	Julio	2023-11-07T00:00:00	2024-11-08T15:00:00	4	Temperatura máxima	22.6
118063	7	Sololá	701	Sololá	4	Finca Santa Victoria	7	Julio	2023-11-07T00:00:00	2024-11-08T15:00:00	3	Temperatura mínima	20.7
118064	7	Sololá	701	Sololá	4	Finca Santa Victoria	7	Julio	2023-11-07T00:00:00	2024-11-08T15:00:00	5	Humedad	60
118065	7	Sololá	701	Sololá	4	Finca Santa Victoria	7	Julio	2023-11-07T00:00:00	2024-11-08T15:00:00	6	Velocidad del viento	4.8
118066	7	Sololá	701	Sololá	4	Finca Santa Victoria	7	Julio	2023-11-07T00:00:00	2024-11-08T15:00:00	7	Dirección del viento	4.83
118067	7	Sololá	701	Sololá	4	Finca Santa Victoria	7	Julio	2023-11-07T00:00:00	2024-11-08T15:00:00	1	Precipitación	0
118068	7	Sololá	701	Sololá	4	Finca Santa Victoria	7	Julio	2023-11-07T00:00:00	2024-11-08T15:00:00	8	Radiación solar	265
118069	7	Sololá	701	Sololá	4	Finca Santa Victoria	7	Julio	2023-11-07T00:00:00	2024-11-08T16:00:00	2	Temperatura media	21.2
118070	7	Sololá	701	Sololá	4	Finca Santa Victoria	7	Julio	2023-11-07T00:00:00	2024-11-08T16:00:00	4	Temperatura máxima	22.4
118071	7	Sololá	701	Sololá	4	Finca Santa Victoria	7	Julio	2023-11-07T00:00:00	2024-11-08T16:00:00	3	Temperatura mínima	20.8
118072	7	Sololá	701	Sololá	4	Finca Santa Victoria	7	Julio	2023-11-07T00:00:00	2024-11-08T16:00:00	5	Humedad	67
118073	7	Sololá	701	Sololá	4	Finca Santa Victoria	7	Julio	2023-11-07T00:00:00	2024-11-08T16:00:00	6	Velocidad del viento	4.8
118074	7	Sololá	701	Sololá	4	Finca Santa Victoria	7	Julio	2023-11-07T00:00:00	2024-11-08T16:00:00	7	Dirección del viento	4.83
118075	7	Sololá	701	Sololá	4	Finca Santa Victoria	7	Julio	2023-11-07T00:00:00	2024-11-08T16:00:00	1	Precipitación	0
118076	7	Sololá	701	Sololá	4	Finca Santa Victoria	7	Julio	2023-11-07T00:00:00	2024-11-08T16:00:00	8	Radiación solar	181
118077	7	Sololá	701	Sololá	4	Finca Santa Victoria	7	Julio	2023-11-07T00:00:00	2024-11-08T17:00:00	2	Temperatura media	19.6
118078	7	Sololá	701	Sololá	4	Finca Santa Victoria	7	Julio	2023-11-07T00:00:00	2024-11-08T17:00:00	4	Temperatura máxima	21.2
118079	7	Sololá	701	Sololá	4	Finca Santa Victoria	7	Julio	2023-11-07T00:00:00	2024-11-08T17:00:00	3	Temperatura mínima	19.6
118080	7	Sololá	701	Sololá	4	Finca Santa Victoria	7	Julio	2023-11-07T00:00:00	2024-11-08T17:00:00	5	Humedad	70
118081	7	Sololá	701	Sololá	4	Finca Santa Victoria	7	Julio	2023-11-07T00:00:00	2024-11-08T17:00:00	6	Velocidad del viento	3.2
118082	7	Sololá	701	Sololá	4	Finca Santa Victoria	7	Julio	2023-11-07T00:00:00	2024-11-08T17:00:00	7	Dirección del viento	3.22
118083	7	Sololá	701	Sololá	4	Finca Santa Victoria	7	Julio	2023-11-07T00:00:00	2024-11-08T17:00:00	1	Precipitación	0
118084	7	Sololá	701	Sololá	4	Finca Santa Victoria	7	Julio	2023-11-07T00:00:00	2024-11-08T17:00:00	8	Radiación solar	116
118085	7	Sololá	701	Sololá	4	Finca Santa Victoria	7	Julio	2023-11-07T00:00:00	2024-11-08T18:00:00	2	Temperatura media	17.4
118086	7	Sololá	701	Sololá	4	Finca Santa Victoria	7	Julio	2023-11-07T00:00:00	2024-11-08T18:00:00	4	Temperatura máxima	19.6
118087	7	Sololá	701	Sololá	4	Finca Santa Victoria	7	Julio	2023-11-07T00:00:00	2024-11-08T18:00:00	3	Temperatura mínima	17.4
118088	7	Sololá	701	Sololá	4	Finca Santa Victoria	7	Julio	2023-11-07T00:00:00	2024-11-08T18:00:00	5	Humedad	79
118089	7	Sololá	701	Sololá	4	Finca Santa Victoria	7	Julio	2023-11-07T00:00:00	2024-11-08T18:00:00	6	Velocidad del viento	4.8
118090	7	Sololá	701	Sololá	4	Finca Santa Victoria	7	Julio	2023-11-07T00:00:00	2024-11-08T18:00:00	7	Dirección del viento	4.83
118091	7	Sololá	701	Sololá	4	Finca Santa Victoria	7	Julio	2023-11-07T00:00:00	2024-11-08T18:00:00	1	Precipitación	0
118092	7	Sololá	701	Sololá	4	Finca Santa Victoria	7	Julio	2023-11-07T00:00:00	2024-11-08T18:00:00	8	Radiación solar	45
118093	7	Sololá	701	Sololá	4	Finca Santa Victoria	7	Julio	2023-11-07T00:00:00	2024-11-08T19:00:00	2	Temperatura media	16.8
118094	7	Sololá	701	Sololá	4	Finca Santa Victoria	7	Julio	2023-11-07T00:00:00	2024-11-08T19:00:00	4	Temperatura máxima	17.4
118095	7	Sololá	701	Sololá	4	Finca Santa Victoria	7	Julio	2023-11-07T00:00:00	2024-11-08T19:00:00	3	Temperatura mínima	16.8
118096	7	Sololá	701	Sololá	4	Finca Santa Victoria	7	Julio	2023-11-07T00:00:00	2024-11-08T19:00:00	5	Humedad	81
118097	7	Sololá	701	Sololá	4	Finca Santa Victoria	7	Julio	2023-11-07T00:00:00	2024-11-08T19:00:00	6	Velocidad del viento	3.2
118098	7	Sololá	701	Sololá	4	Finca Santa Victoria	7	Julio	2023-11-07T00:00:00	2024-11-08T19:00:00	7	Dirección del viento	3.22
118099	7	Sololá	701	Sololá	4	Finca Santa Victoria	7	Julio	2023-11-07T00:00:00	2024-11-08T19:00:00	1	Precipitación	0
118100	7	Sololá	701	Sololá	4	Finca Santa Victoria	7	Julio	2023-11-07T00:00:00	2024-11-08T19:00:00	8	Radiación solar	0
118101	7	Sololá	701	Sololá	4	Finca Santa Victoria	7	Julio	2023-11-07T00:00:00	2024-11-08T20:00:00	2	Temperatura media	16.2
118102	7	Sololá	701	Sololá	4	Finca Santa Victoria	7	Julio	2023-11-07T00:00:00	2024-11-08T20:00:00	4	Temperatura máxima	16.8
118103	7	Sololá	701	Sololá	4	Finca Santa Victoria	7	Julio	2023-11-07T00:00:00	2024-11-08T20:00:00	3	Temperatura mínima	16.2
118104	7	Sololá	701	Sololá	4	Finca Santa Victoria	7	Julio	2023-11-07T00:00:00	2024-11-08T20:00:00	5	Humedad	83
118105	7	Sololá	701	Sololá	4	Finca Santa Victoria	7	Julio	2023-11-07T00:00:00	2024-11-08T20:00:00	6	Velocidad del viento	3.2
118106	7	Sololá	701	Sololá	4	Finca Santa Victoria	7	Julio	2023-11-07T00:00:00	2024-11-08T20:00:00	7	Dirección del viento	3.22
118107	7	Sololá	701	Sololá	4	Finca Santa Victoria	7	Julio	2023-11-07T00:00:00	2024-11-08T20:00:00	1	Precipitación	0
118108	7	Sololá	701	Sololá	4	Finca Santa Victoria	7	Julio	2023-11-07T00:00:00	2024-11-08T20:00:00	8	Radiación solar	0
118109	7	Sololá	701	Sololá	4	Finca Santa Victoria	7	Julio	2023-11-07T00:00:00	2024-11-08T21:00:00	2	Temperatura media	15.9
118110	7	Sololá	701	Sololá	4	Finca Santa Victoria	7	Julio	2023-11-07T00:00:00	2024-11-08T21:00:00	4	Temperatura máxima	16.2
118111	7	Sololá	701	Sololá	4	Finca Santa Victoria	7	Julio	2023-11-07T00:00:00	2024-11-08T21:00:00	3	Temperatura mínima	15.9
118112	7	Sololá	701	Sololá	4	Finca Santa Victoria	7	Julio	2023-11-07T00:00:00	2024-11-08T21:00:00	5	Humedad	82
118113	7	Sololá	701	Sololá	4	Finca Santa Victoria	7	Julio	2023-11-07T00:00:00	2024-11-08T21:00:00	6	Velocidad del viento	3.2
118114	7	Sololá	701	Sololá	4	Finca Santa Victoria	7	Julio	2023-11-07T00:00:00	2024-11-08T21:00:00	7	Dirección del viento	3.22
118115	7	Sololá	701	Sololá	4	Finca Santa Victoria	7	Julio	2023-11-07T00:00:00	2024-11-08T21:00:00	1	Precipitación	0
118116	7	Sololá	701	Sololá	4	Finca Santa Victoria	7	Julio	2023-11-07T00:00:00	2024-11-08T21:00:00	8	Radiación solar	0
118117	7	Sololá	701	Sololá	4	Finca Santa Victoria	7	Julio	2023-11-07T00:00:00	2024-11-08T22:00:00	2	Temperatura media	15.9
118118	7	Sololá	701	Sololá	4	Finca Santa Victoria	7	Julio	2023-11-07T00:00:00	2024-11-08T22:00:00	4	Temperatura máxima	16.1
118119	7	Sololá	701	Sololá	4	Finca Santa Victoria	7	Julio	2023-11-07T00:00:00	2024-11-08T22:00:00	3	Temperatura mínima	15.9
118120	7	Sololá	701	Sololá	4	Finca Santa Victoria	7	Julio	2023-11-07T00:00:00	2024-11-08T22:00:00	5	Humedad	82
118121	7	Sololá	701	Sololá	4	Finca Santa Victoria	7	Julio	2023-11-07T00:00:00	2024-11-08T22:00:00	6	Velocidad del viento	4.8
118122	7	Sololá	701	Sololá	4	Finca Santa Victoria	7	Julio	2023-11-07T00:00:00	2024-11-08T22:00:00	7	Dirección del viento	4.83
118123	7	Sololá	701	Sololá	4	Finca Santa Victoria	7	Julio	2023-11-07T00:00:00	2024-11-08T22:00:00	1	Precipitación	0
118124	7	Sololá	701	Sololá	4	Finca Santa Victoria	7	Julio	2023-11-07T00:00:00	2024-11-08T22:00:00	8	Radiación solar	0
118125	7	Sololá	701	Sololá	4	Finca Santa Victoria	7	Julio	2023-11-07T00:00:00	2024-11-08T23:00:00	2	Temperatura media	15.8
118126	7	Sololá	701	Sololá	4	Finca Santa Victoria	7	Julio	2023-11-07T00:00:00	2024-11-08T23:00:00	4	Temperatura máxima	15.9
118127	7	Sololá	701	Sololá	4	Finca Santa Victoria	7	Julio	2023-11-07T00:00:00	2024-11-08T23:00:00	3	Temperatura mínima	15.8
118128	7	Sololá	701	Sololá	4	Finca Santa Victoria	7	Julio	2023-11-07T00:00:00	2024-11-08T23:00:00	5	Humedad	83
118129	7	Sololá	701	Sololá	4	Finca Santa Victoria	7	Julio	2023-11-07T00:00:00	2024-11-08T23:00:00	6	Velocidad del viento	4.8
118130	7	Sololá	701	Sololá	4	Finca Santa Victoria	7	Julio	2023-11-07T00:00:00	2024-11-08T23:00:00	7	Dirección del viento	4.83
118131	7	Sololá	701	Sololá	4	Finca Santa Victoria	7	Julio	2023-11-07T00:00:00	2024-11-08T23:00:00	1	Precipitación	0
118132	7	Sololá	701	Sololá	4	Finca Santa Victoria	7	Julio	2023-11-07T00:00:00	2024-11-08T23:00:00	8	Radiación solar	0
118133	7	Sololá	701	Sololá	4	Finca Santa Victoria	7	Julio	2023-12-07T00:00:00	2024-11-08T00:00:00	2	Temperatura media	15.3
118134	7	Sololá	701	Sololá	4	Finca Santa Victoria	7	Julio	2023-12-07T00:00:00	2024-11-08T00:00:00	4	Temperatura máxima	15.8
118135	7	Sololá	701	Sololá	4	Finca Santa Victoria	7	Julio	2023-12-07T00:00:00	2024-11-08T00:00:00	3	Temperatura mínima	15.2
118136	7	Sololá	701	Sololá	4	Finca Santa Victoria	7	Julio	2023-12-07T00:00:00	2024-11-08T00:00:00	5	Humedad	85
118137	7	Sololá	701	Sololá	4	Finca Santa Victoria	7	Julio	2023-12-07T00:00:00	2024-11-08T00:00:00	6	Velocidad del viento	4.8
118138	7	Sololá	701	Sololá	4	Finca Santa Victoria	7	Julio	2023-12-07T00:00:00	2024-11-08T00:00:00	7	Dirección del viento	4.83
118139	7	Sololá	701	Sololá	4	Finca Santa Victoria	7	Julio	2023-12-07T00:00:00	2024-11-08T00:00:00	1	Precipitación	0
118140	7	Sololá	701	Sololá	4	Finca Santa Victoria	7	Julio	2023-12-07T00:00:00	2024-11-08T00:00:00	8	Radiación solar	0
118141	7	Sololá	701	Sololá	4	Finca Santa Victoria	7	Julio	2023-12-07T00:00:00	2024-11-08T01:00:00	2	Temperatura media	14.9
118142	7	Sololá	701	Sololá	4	Finca Santa Victoria	7	Julio	2023-12-07T00:00:00	2024-11-08T01:00:00	4	Temperatura máxima	15.3
118143	7	Sololá	701	Sololá	4	Finca Santa Victoria	7	Julio	2023-12-07T00:00:00	2024-11-08T01:00:00	3	Temperatura mínima	14.9
118144	7	Sololá	701	Sololá	4	Finca Santa Victoria	7	Julio	2023-12-07T00:00:00	2024-11-08T01:00:00	5	Humedad	85
118145	7	Sololá	701	Sololá	4	Finca Santa Victoria	7	Julio	2023-12-07T00:00:00	2024-11-08T01:00:00	6	Velocidad del viento	3.2
118146	7	Sololá	701	Sololá	4	Finca Santa Victoria	7	Julio	2023-12-07T00:00:00	2024-11-08T01:00:00	7	Dirección del viento	3.22
118147	7	Sololá	701	Sololá	4	Finca Santa Victoria	7	Julio	2023-12-07T00:00:00	2024-11-08T01:00:00	1	Precipitación	0
118148	7	Sololá	701	Sololá	4	Finca Santa Victoria	7	Julio	2023-12-07T00:00:00	2024-11-08T01:00:00	8	Radiación solar	0
118149	7	Sololá	701	Sololá	4	Finca Santa Victoria	7	Julio	2023-12-07T00:00:00	2024-11-08T02:00:00	2	Temperatura media	14.8
118150	7	Sololá	701	Sololá	4	Finca Santa Victoria	7	Julio	2023-12-07T00:00:00	2024-11-08T02:00:00	4	Temperatura máxima	14.9
118151	7	Sololá	701	Sololá	4	Finca Santa Victoria	7	Julio	2023-12-07T00:00:00	2024-11-08T02:00:00	3	Temperatura mínima	14.3
118152	7	Sololá	701	Sololá	4	Finca Santa Victoria	7	Julio	2023-12-07T00:00:00	2024-11-08T02:00:00	5	Humedad	85
118153	7	Sololá	701	Sololá	4	Finca Santa Victoria	7	Julio	2023-12-07T00:00:00	2024-11-08T02:00:00	6	Velocidad del viento	1.6
118154	7	Sololá	701	Sololá	4	Finca Santa Victoria	7	Julio	2023-12-07T00:00:00	2024-11-08T02:00:00	7	Dirección del viento	1.61
118155	7	Sololá	701	Sololá	4	Finca Santa Victoria	7	Julio	2023-12-07T00:00:00	2024-11-08T02:00:00	1	Precipitación	0
118156	7	Sololá	701	Sololá	4	Finca Santa Victoria	7	Julio	2023-12-07T00:00:00	2024-11-08T02:00:00	8	Radiación solar	0
118157	7	Sololá	701	Sololá	4	Finca Santa Victoria	7	Julio	2023-12-07T00:00:00	2024-11-08T03:00:00	2	Temperatura media	14.8
118158	7	Sololá	701	Sololá	4	Finca Santa Victoria	7	Julio	2023-12-07T00:00:00	2024-11-08T03:00:00	4	Temperatura máxima	15.1
118159	7	Sololá	701	Sololá	4	Finca Santa Victoria	7	Julio	2023-12-07T00:00:00	2024-11-08T03:00:00	3	Temperatura mínima	14.8
118160	7	Sololá	701	Sololá	4	Finca Santa Victoria	7	Julio	2023-12-07T00:00:00	2024-11-08T03:00:00	5	Humedad	84
118161	7	Sololá	701	Sololá	4	Finca Santa Victoria	7	Julio	2023-12-07T00:00:00	2024-11-08T03:00:00	6	Velocidad del viento	3.2
118162	7	Sololá	701	Sololá	4	Finca Santa Victoria	7	Julio	2023-12-07T00:00:00	2024-11-08T03:00:00	7	Dirección del viento	3.22
118163	7	Sololá	701	Sololá	4	Finca Santa Victoria	7	Julio	2023-12-07T00:00:00	2024-11-08T03:00:00	1	Precipitación	0
118164	7	Sololá	701	Sololá	4	Finca Santa Victoria	7	Julio	2023-12-07T00:00:00	2024-11-08T03:00:00	8	Radiación solar	0
118165	7	Sololá	701	Sololá	4	Finca Santa Victoria	7	Julio	2023-12-07T00:00:00	2024-11-08T04:00:00	2	Temperatura media	14.6
118166	7	Sololá	701	Sololá	4	Finca Santa Victoria	7	Julio	2023-12-07T00:00:00	2024-11-08T04:00:00	4	Temperatura máxima	14.8
118167	7	Sololá	701	Sololá	4	Finca Santa Victoria	7	Julio	2023-12-07T00:00:00	2024-11-08T04:00:00	3	Temperatura mínima	14.5
118168	7	Sololá	701	Sololá	4	Finca Santa Victoria	7	Julio	2023-12-07T00:00:00	2024-11-08T04:00:00	5	Humedad	86
118169	7	Sololá	701	Sololá	4	Finca Santa Victoria	7	Julio	2023-12-07T00:00:00	2024-11-08T04:00:00	6	Velocidad del viento	3.2
118170	7	Sololá	701	Sololá	4	Finca Santa Victoria	7	Julio	2023-12-07T00:00:00	2024-11-08T04:00:00	7	Dirección del viento	3.22
118171	7	Sololá	701	Sololá	4	Finca Santa Victoria	7	Julio	2023-12-07T00:00:00	2024-11-08T04:00:00	1	Precipitación	0
118172	7	Sololá	701	Sololá	4	Finca Santa Victoria	7	Julio	2023-12-07T00:00:00	2024-11-08T04:00:00	8	Radiación solar	0
118173	7	Sololá	701	Sololá	4	Finca Santa Victoria	7	Julio	2023-12-07T00:00:00	2024-11-08T05:00:00	2	Temperatura media	14.5
118174	7	Sololá	701	Sololá	4	Finca Santa Victoria	7	Julio	2023-12-07T00:00:00	2024-11-08T05:00:00	4	Temperatura máxima	14.8
118175	7	Sololá	701	Sololá	4	Finca Santa Victoria	7	Julio	2023-12-07T00:00:00	2024-11-08T05:00:00	3	Temperatura mínima	14.4
118176	7	Sololá	701	Sololá	4	Finca Santa Victoria	7	Julio	2023-12-07T00:00:00	2024-11-08T05:00:00	5	Humedad	89
118177	7	Sololá	701	Sololá	4	Finca Santa Victoria	7	Julio	2023-12-07T00:00:00	2024-11-08T05:00:00	6	Velocidad del viento	3.2
118178	7	Sololá	701	Sololá	4	Finca Santa Victoria	7	Julio	2023-12-07T00:00:00	2024-11-08T05:00:00	7	Dirección del viento	3.22
118179	7	Sololá	701	Sololá	4	Finca Santa Victoria	7	Julio	2023-12-07T00:00:00	2024-11-08T05:00:00	1	Precipitación	0
118180	7	Sololá	701	Sololá	4	Finca Santa Victoria	7	Julio	2023-12-07T00:00:00	2024-11-08T05:00:00	8	Radiación solar	0
118181	7	Sololá	701	Sololá	4	Finca Santa Victoria	7	Julio	2023-12-07T00:00:00	2024-11-08T06:00:00	2	Temperatura media	14
118182	7	Sololá	701	Sololá	4	Finca Santa Victoria	7	Julio	2023-12-07T00:00:00	2024-11-08T06:00:00	4	Temperatura máxima	14.6
118183	7	Sololá	701	Sololá	4	Finca Santa Victoria	7	Julio	2023-12-07T00:00:00	2024-11-08T06:00:00	3	Temperatura mínima	13.9
118184	7	Sololá	701	Sololá	4	Finca Santa Victoria	7	Julio	2023-12-07T00:00:00	2024-11-08T06:00:00	5	Humedad	89
118185	7	Sololá	701	Sololá	4	Finca Santa Victoria	7	Julio	2023-12-07T00:00:00	2024-11-08T06:00:00	6	Velocidad del viento	3.2
118186	7	Sololá	701	Sololá	4	Finca Santa Victoria	7	Julio	2023-12-07T00:00:00	2024-11-08T06:00:00	7	Dirección del viento	3.22
118187	7	Sololá	701	Sololá	4	Finca Santa Victoria	7	Julio	2023-12-07T00:00:00	2024-11-08T06:00:00	1	Precipitación	0
118188	7	Sololá	701	Sololá	4	Finca Santa Victoria	7	Julio	2023-12-07T00:00:00	2024-11-08T06:00:00	8	Radiación solar	1
118189	7	Sololá	701	Sololá	4	Finca Santa Victoria	7	Julio	2023-12-07T00:00:00	2024-11-08T07:00:00	2	Temperatura media	14.9
118190	7	Sololá	701	Sololá	4	Finca Santa Victoria	7	Julio	2023-12-07T00:00:00	2024-11-08T07:00:00	4	Temperatura máxima	14.9
118191	7	Sololá	701	Sololá	4	Finca Santa Victoria	7	Julio	2023-12-07T00:00:00	2024-11-08T07:00:00	3	Temperatura mínima	13.9
118192	7	Sololá	701	Sololá	4	Finca Santa Victoria	7	Julio	2023-12-07T00:00:00	2024-11-08T07:00:00	5	Humedad	82
118193	7	Sololá	701	Sololá	4	Finca Santa Victoria	7	Julio	2023-12-07T00:00:00	2024-11-08T07:00:00	6	Velocidad del viento	3.2
118194	7	Sololá	701	Sololá	4	Finca Santa Victoria	7	Julio	2023-12-07T00:00:00	2024-11-08T07:00:00	7	Dirección del viento	3.22
118195	7	Sololá	701	Sololá	4	Finca Santa Victoria	7	Julio	2023-12-07T00:00:00	2024-11-08T07:00:00	1	Precipitación	0
118196	7	Sololá	701	Sololá	4	Finca Santa Victoria	7	Julio	2023-12-07T00:00:00	2024-11-08T07:00:00	8	Radiación solar	43
118197	7	Sololá	701	Sololá	4	Finca Santa Victoria	7	Julio	2023-12-07T00:00:00	2024-11-08T08:00:00	2	Temperatura media	15.9
118198	7	Sololá	701	Sololá	4	Finca Santa Victoria	7	Julio	2023-12-07T00:00:00	2024-11-08T08:00:00	4	Temperatura máxima	15.9
118199	7	Sololá	701	Sololá	4	Finca Santa Victoria	7	Julio	2023-12-07T00:00:00	2024-11-08T08:00:00	3	Temperatura mínima	14.9
118200	7	Sololá	701	Sololá	4	Finca Santa Victoria	7	Julio	2023-12-07T00:00:00	2024-11-08T08:00:00	5	Humedad	82
118201	7	Sololá	701	Sololá	4	Finca Santa Victoria	7	Julio	2023-12-07T00:00:00	2024-11-08T08:00:00	6	Velocidad del viento	4.8
118202	7	Sololá	701	Sololá	4	Finca Santa Victoria	7	Julio	2023-12-07T00:00:00	2024-11-08T08:00:00	7	Dirección del viento	4.83
118203	7	Sololá	701	Sololá	4	Finca Santa Victoria	7	Julio	2023-12-07T00:00:00	2024-11-08T08:00:00	1	Precipitación	0
118204	7	Sololá	701	Sololá	4	Finca Santa Victoria	7	Julio	2023-12-07T00:00:00	2024-11-08T08:00:00	8	Radiación solar	176
118205	7	Sololá	701	Sololá	4	Finca Santa Victoria	7	Julio	2023-12-07T00:00:00	2024-11-08T09:00:00	2	Temperatura media	17.8
118206	7	Sololá	701	Sololá	4	Finca Santa Victoria	7	Julio	2023-12-07T00:00:00	2024-11-08T09:00:00	4	Temperatura máxima	17.8
118207	7	Sololá	701	Sololá	4	Finca Santa Victoria	7	Julio	2023-12-07T00:00:00	2024-11-08T09:00:00	3	Temperatura mínima	15.7
118208	7	Sololá	701	Sololá	4	Finca Santa Victoria	7	Julio	2023-12-07T00:00:00	2024-11-08T09:00:00	5	Humedad	72
118209	7	Sololá	701	Sololá	4	Finca Santa Victoria	7	Julio	2023-12-07T00:00:00	2024-11-08T09:00:00	6	Velocidad del viento	4.8
118210	7	Sololá	701	Sololá	4	Finca Santa Victoria	7	Julio	2023-12-07T00:00:00	2024-11-08T09:00:00	7	Dirección del viento	4.83
118211	7	Sololá	701	Sololá	4	Finca Santa Victoria	7	Julio	2023-12-07T00:00:00	2024-11-08T09:00:00	1	Precipitación	0
118212	7	Sololá	701	Sololá	4	Finca Santa Victoria	7	Julio	2023-12-07T00:00:00	2024-11-08T09:00:00	8	Radiación solar	303
118213	7	Sololá	701	Sololá	4	Finca Santa Victoria	7	Julio	2023-12-07T00:00:00	2024-11-08T10:00:00	2	Temperatura media	19.7
118214	7	Sololá	701	Sololá	4	Finca Santa Victoria	7	Julio	2023-12-07T00:00:00	2024-11-08T10:00:00	4	Temperatura máxima	19.7
118215	7	Sololá	701	Sololá	4	Finca Santa Victoria	7	Julio	2023-12-07T00:00:00	2024-11-08T10:00:00	3	Temperatura mínima	17.7
118216	7	Sololá	701	Sololá	4	Finca Santa Victoria	7	Julio	2023-12-07T00:00:00	2024-11-08T10:00:00	5	Humedad	68
118217	7	Sololá	701	Sololá	4	Finca Santa Victoria	7	Julio	2023-12-07T00:00:00	2024-11-08T10:00:00	6	Velocidad del viento	4.8
118218	7	Sololá	701	Sololá	4	Finca Santa Victoria	7	Julio	2023-12-07T00:00:00	2024-11-08T10:00:00	7	Dirección del viento	4.83
118219	7	Sololá	701	Sololá	4	Finca Santa Victoria	7	Julio	2023-12-07T00:00:00	2024-11-08T10:00:00	1	Precipitación	0
118220	7	Sololá	701	Sololá	4	Finca Santa Victoria	7	Julio	2023-12-07T00:00:00	2024-11-08T10:00:00	8	Radiación solar	221
118221	7	Sololá	701	Sololá	4	Finca Santa Victoria	7	Julio	2023-12-07T00:00:00	2024-11-08T11:00:00	2	Temperatura media	20.9
118222	7	Sololá	701	Sololá	4	Finca Santa Victoria	7	Julio	2023-12-07T00:00:00	2024-11-08T11:00:00	4	Temperatura máxima	20.9
118223	7	Sololá	701	Sololá	4	Finca Santa Victoria	7	Julio	2023-12-07T00:00:00	2024-11-08T11:00:00	3	Temperatura mínima	19.7
118224	7	Sololá	701	Sololá	4	Finca Santa Victoria	7	Julio	2023-12-07T00:00:00	2024-11-08T11:00:00	5	Humedad	63
118225	7	Sololá	701	Sololá	4	Finca Santa Victoria	7	Julio	2023-12-07T00:00:00	2024-11-08T11:00:00	6	Velocidad del viento	4.8
118226	7	Sololá	701	Sololá	4	Finca Santa Victoria	7	Julio	2023-12-07T00:00:00	2024-11-08T11:00:00	7	Dirección del viento	4.83
118227	7	Sololá	701	Sololá	4	Finca Santa Victoria	7	Julio	2023-12-07T00:00:00	2024-11-08T11:00:00	1	Precipitación	0
118228	7	Sololá	701	Sololá	4	Finca Santa Victoria	7	Julio	2023-12-07T00:00:00	2024-11-08T11:00:00	8	Radiación solar	258
118229	7	Sololá	701	Sololá	4	Finca Santa Victoria	7	Julio	2023-12-07T00:00:00	2024-11-08T12:00:00	2	Temperatura media	21.8
118230	7	Sololá	701	Sololá	4	Finca Santa Victoria	7	Julio	2023-12-07T00:00:00	2024-11-08T12:00:00	4	Temperatura máxima	21.8
118231	7	Sololá	701	Sololá	4	Finca Santa Victoria	7	Julio	2023-12-07T00:00:00	2024-11-08T12:00:00	3	Temperatura mínima	19.9
118232	7	Sololá	701	Sololá	4	Finca Santa Victoria	7	Julio	2023-12-07T00:00:00	2024-11-08T12:00:00	5	Humedad	62
118233	7	Sololá	701	Sololá	4	Finca Santa Victoria	7	Julio	2023-12-07T00:00:00	2024-11-08T12:00:00	6	Velocidad del viento	6.4
118234	7	Sololá	701	Sololá	4	Finca Santa Victoria	7	Julio	2023-12-07T00:00:00	2024-11-08T12:00:00	7	Dirección del viento	6.44
118235	7	Sololá	701	Sololá	4	Finca Santa Victoria	7	Julio	2023-12-07T00:00:00	2024-11-08T12:00:00	1	Precipitación	0
118236	7	Sololá	701	Sololá	4	Finca Santa Victoria	7	Julio	2023-12-07T00:00:00	2024-11-08T12:00:00	8	Radiación solar	782
118237	7	Sololá	701	Sololá	4	Finca Santa Victoria	7	Julio	2023-12-07T00:00:00	2024-11-08T13:00:00	2	Temperatura media	21.1
118238	7	Sololá	701	Sololá	4	Finca Santa Victoria	7	Julio	2023-12-07T00:00:00	2024-11-08T13:00:00	4	Temperatura máxima	22
118239	7	Sololá	701	Sololá	4	Finca Santa Victoria	7	Julio	2023-12-07T00:00:00	2024-11-08T13:00:00	3	Temperatura mínima	20.7
118240	7	Sololá	701	Sololá	4	Finca Santa Victoria	7	Julio	2023-12-07T00:00:00	2024-11-08T13:00:00	5	Humedad	59
118241	7	Sololá	701	Sololá	4	Finca Santa Victoria	7	Julio	2023-12-07T00:00:00	2024-11-08T13:00:00	6	Velocidad del viento	4.8
118242	7	Sololá	701	Sololá	4	Finca Santa Victoria	7	Julio	2023-12-07T00:00:00	2024-11-08T13:00:00	7	Dirección del viento	4.83
118243	7	Sololá	701	Sololá	4	Finca Santa Victoria	7	Julio	2023-12-07T00:00:00	2024-11-08T13:00:00	1	Precipitación	0
118244	7	Sololá	701	Sololá	4	Finca Santa Victoria	7	Julio	2023-12-07T00:00:00	2024-11-08T13:00:00	8	Radiación solar	620
118245	7	Sololá	701	Sololá	4	Finca Santa Victoria	7	Julio	2023-12-07T00:00:00	2024-11-08T14:00:00	2	Temperatura media	21.4
118246	7	Sololá	701	Sololá	4	Finca Santa Victoria	7	Julio	2023-12-07T00:00:00	2024-11-08T14:00:00	4	Temperatura máxima	21.8
118247	7	Sololá	701	Sololá	4	Finca Santa Victoria	7	Julio	2023-12-07T00:00:00	2024-11-08T14:00:00	3	Temperatura mínima	20.8
118248	7	Sololá	701	Sololá	4	Finca Santa Victoria	7	Julio	2023-12-07T00:00:00	2024-11-08T14:00:00	5	Humedad	59
118249	7	Sololá	701	Sololá	4	Finca Santa Victoria	7	Julio	2023-12-07T00:00:00	2024-11-08T14:00:00	6	Velocidad del viento	4.8
118250	7	Sololá	701	Sololá	4	Finca Santa Victoria	7	Julio	2023-12-07T00:00:00	2024-11-08T14:00:00	7	Dirección del viento	4.83
118251	7	Sololá	701	Sololá	4	Finca Santa Victoria	7	Julio	2023-12-07T00:00:00	2024-11-08T14:00:00	1	Precipitación	0
118252	7	Sololá	701	Sololá	4	Finca Santa Victoria	7	Julio	2023-12-07T00:00:00	2024-11-08T14:00:00	8	Radiación solar	519
118253	7	Sololá	701	Sololá	4	Finca Santa Victoria	7	Julio	2023-12-07T00:00:00	2024-11-08T15:00:00	2	Temperatura media	21.7
118254	7	Sololá	701	Sololá	4	Finca Santa Victoria	7	Julio	2023-12-07T00:00:00	2024-11-08T15:00:00	4	Temperatura máxima	21.9
118255	7	Sololá	701	Sololá	4	Finca Santa Victoria	7	Julio	2023-12-07T00:00:00	2024-11-08T15:00:00	3	Temperatura mínima	21.1
118256	7	Sololá	701	Sololá	4	Finca Santa Victoria	7	Julio	2023-12-07T00:00:00	2024-11-08T15:00:00	5	Humedad	59
118257	7	Sololá	701	Sololá	4	Finca Santa Victoria	7	Julio	2023-12-07T00:00:00	2024-11-08T15:00:00	6	Velocidad del viento	3.2
118258	7	Sololá	701	Sololá	4	Finca Santa Victoria	7	Julio	2023-12-07T00:00:00	2024-11-08T15:00:00	7	Dirección del viento	3.22
118259	7	Sololá	701	Sololá	4	Finca Santa Victoria	7	Julio	2023-12-07T00:00:00	2024-11-08T15:00:00	1	Precipitación	0
118260	7	Sololá	701	Sololá	4	Finca Santa Victoria	7	Julio	2023-12-07T00:00:00	2024-11-08T15:00:00	8	Radiación solar	271
118261	7	Sololá	701	Sololá	4	Finca Santa Victoria	7	Julio	2023-12-07T00:00:00	2024-11-08T16:00:00	2	Temperatura media	21.3
118262	7	Sololá	701	Sololá	4	Finca Santa Victoria	7	Julio	2023-12-07T00:00:00	2024-11-08T16:00:00	4	Temperatura máxima	22
118263	7	Sololá	701	Sololá	4	Finca Santa Victoria	7	Julio	2023-12-07T00:00:00	2024-11-08T16:00:00	3	Temperatura mínima	21.3
118264	7	Sololá	701	Sololá	4	Finca Santa Victoria	7	Julio	2023-12-07T00:00:00	2024-11-08T16:00:00	5	Humedad	62
118265	7	Sololá	701	Sololá	4	Finca Santa Victoria	7	Julio	2023-12-07T00:00:00	2024-11-08T16:00:00	6	Velocidad del viento	3.2
118266	7	Sololá	701	Sololá	4	Finca Santa Victoria	7	Julio	2023-12-07T00:00:00	2024-11-08T16:00:00	7	Dirección del viento	3.22
118267	7	Sololá	701	Sololá	4	Finca Santa Victoria	7	Julio	2023-12-07T00:00:00	2024-11-08T16:00:00	1	Precipitación	0
118268	7	Sololá	701	Sololá	4	Finca Santa Victoria	7	Julio	2023-12-07T00:00:00	2024-11-08T16:00:00	8	Radiación solar	149
118269	7	Sololá	701	Sololá	4	Finca Santa Victoria	7	Julio	2023-12-07T00:00:00	2024-11-08T17:00:00	2	Temperatura media	20.6
118270	7	Sololá	701	Sololá	4	Finca Santa Victoria	7	Julio	2023-12-07T00:00:00	2024-11-08T17:00:00	4	Temperatura máxima	21.3
118271	7	Sololá	701	Sololá	4	Finca Santa Victoria	7	Julio	2023-12-07T00:00:00	2024-11-08T17:00:00	3	Temperatura mínima	20.4
118272	7	Sololá	701	Sololá	4	Finca Santa Victoria	7	Julio	2023-12-07T00:00:00	2024-11-08T17:00:00	5	Humedad	62
118273	7	Sololá	701	Sololá	4	Finca Santa Victoria	7	Julio	2023-12-07T00:00:00	2024-11-08T17:00:00	6	Velocidad del viento	3.2
118274	7	Sololá	701	Sololá	4	Finca Santa Victoria	7	Julio	2023-12-07T00:00:00	2024-11-08T17:00:00	7	Dirección del viento	3.22
118275	7	Sololá	701	Sololá	4	Finca Santa Victoria	7	Julio	2023-12-07T00:00:00	2024-11-08T17:00:00	1	Precipitación	0
118276	7	Sololá	701	Sololá	4	Finca Santa Victoria	7	Julio	2023-12-07T00:00:00	2024-11-08T17:00:00	8	Radiación solar	127
118277	7	Sololá	701	Sololá	4	Finca Santa Victoria	7	Julio	2023-12-07T00:00:00	2024-11-08T18:00:00	2	Temperatura media	18.1
118278	7	Sololá	701	Sololá	4	Finca Santa Victoria	7	Julio	2023-12-07T00:00:00	2024-11-08T18:00:00	4	Temperatura máxima	20.6
118279	7	Sololá	701	Sololá	4	Finca Santa Victoria	7	Julio	2023-12-07T00:00:00	2024-11-08T18:00:00	3	Temperatura mínima	18.1
118280	7	Sololá	701	Sololá	4	Finca Santa Victoria	7	Julio	2023-12-07T00:00:00	2024-11-08T18:00:00	5	Humedad	85
118281	7	Sololá	701	Sololá	4	Finca Santa Victoria	7	Julio	2023-12-07T00:00:00	2024-11-08T18:00:00	6	Velocidad del viento	0
118282	7	Sololá	701	Sololá	4	Finca Santa Victoria	7	Julio	2023-12-07T00:00:00	2024-11-08T18:00:00	7	Dirección del viento	0
118283	7	Sololá	701	Sololá	4	Finca Santa Victoria	7	Julio	2023-12-07T00:00:00	2024-11-08T18:00:00	1	Precipitación	0
118284	7	Sololá	701	Sololá	4	Finca Santa Victoria	7	Julio	2023-12-07T00:00:00	2024-11-08T18:00:00	8	Radiación solar	53
118285	7	Sololá	701	Sololá	4	Finca Santa Victoria	7	Julio	2023-12-07T00:00:00	2024-11-08T19:00:00	2	Temperatura media	14.4
118286	7	Sololá	701	Sololá	4	Finca Santa Victoria	7	Julio	2023-12-07T00:00:00	2024-11-08T19:00:00	4	Temperatura máxima	18.1
118287	7	Sololá	701	Sololá	4	Finca Santa Victoria	7	Julio	2023-12-07T00:00:00	2024-11-08T19:00:00	3	Temperatura mínima	14.4
118288	7	Sololá	701	Sololá	4	Finca Santa Victoria	7	Julio	2023-12-07T00:00:00	2024-11-08T19:00:00	5	Humedad	90
118289	7	Sololá	701	Sololá	4	Finca Santa Victoria	7	Julio	2023-12-07T00:00:00	2024-11-08T19:00:00	6	Velocidad del viento	1.6
118290	7	Sololá	701	Sololá	4	Finca Santa Victoria	7	Julio	2023-12-07T00:00:00	2024-11-08T19:00:00	7	Dirección del viento	1.61
118291	7	Sololá	701	Sololá	4	Finca Santa Victoria	7	Julio	2023-12-07T00:00:00	2024-11-08T19:00:00	1	Precipitación	1.6
118292	7	Sololá	701	Sololá	4	Finca Santa Victoria	7	Julio	2023-12-07T00:00:00	2024-11-08T19:00:00	8	Radiación solar	0
118293	7	Sololá	701	Sololá	4	Finca Santa Victoria	7	Julio	2023-12-07T00:00:00	2024-11-08T20:00:00	2	Temperatura media	13.1
118294	7	Sololá	701	Sololá	4	Finca Santa Victoria	7	Julio	2023-12-07T00:00:00	2024-11-08T20:00:00	4	Temperatura máxima	15.2
118295	7	Sololá	701	Sololá	4	Finca Santa Victoria	7	Julio	2023-12-07T00:00:00	2024-11-08T20:00:00	3	Temperatura mínima	13.1
118296	7	Sololá	701	Sololá	4	Finca Santa Victoria	7	Julio	2023-12-07T00:00:00	2024-11-08T20:00:00	5	Humedad	94
118297	7	Sololá	701	Sololá	4	Finca Santa Victoria	7	Julio	2023-12-07T00:00:00	2024-11-08T20:00:00	6	Velocidad del viento	4.8
118298	7	Sololá	701	Sololá	4	Finca Santa Victoria	7	Julio	2023-12-07T00:00:00	2024-11-08T20:00:00	7	Dirección del viento	4.83
118299	7	Sololá	701	Sololá	4	Finca Santa Victoria	7	Julio	2023-12-07T00:00:00	2024-11-08T20:00:00	1	Precipitación	10.2
118300	7	Sololá	701	Sololá	4	Finca Santa Victoria	7	Julio	2023-12-07T00:00:00	2024-11-08T20:00:00	8	Radiación solar	0
118301	7	Sololá	701	Sololá	4	Finca Santa Victoria	7	Julio	2023-12-07T00:00:00	2024-11-08T21:00:00	2	Temperatura media	13.1
118302	7	Sololá	701	Sololá	4	Finca Santa Victoria	7	Julio	2023-12-07T00:00:00	2024-11-08T21:00:00	4	Temperatura máxima	13.1
118303	7	Sololá	701	Sololá	4	Finca Santa Victoria	7	Julio	2023-12-07T00:00:00	2024-11-08T21:00:00	3	Temperatura mínima	12.9
118304	7	Sololá	701	Sololá	4	Finca Santa Victoria	7	Julio	2023-12-07T00:00:00	2024-11-08T21:00:00	5	Humedad	96
118305	7	Sololá	701	Sololá	4	Finca Santa Victoria	7	Julio	2023-12-07T00:00:00	2024-11-08T21:00:00	6	Velocidad del viento	1.6
118306	7	Sololá	701	Sololá	4	Finca Santa Victoria	7	Julio	2023-12-07T00:00:00	2024-11-08T21:00:00	7	Dirección del viento	1.61
118307	7	Sololá	701	Sololá	4	Finca Santa Victoria	7	Julio	2023-12-07T00:00:00	2024-11-08T21:00:00	1	Precipitación	2.4
118308	7	Sololá	701	Sololá	4	Finca Santa Victoria	7	Julio	2023-12-07T00:00:00	2024-11-08T21:00:00	8	Radiación solar	0
118309	7	Sololá	701	Sololá	4	Finca Santa Victoria	7	Julio	2023-12-07T00:00:00	2024-11-08T22:00:00	2	Temperatura media	13.6
118310	7	Sololá	701	Sololá	4	Finca Santa Victoria	7	Julio	2023-12-07T00:00:00	2024-11-08T22:00:00	4	Temperatura máxima	13.6
118311	7	Sololá	701	Sololá	4	Finca Santa Victoria	7	Julio	2023-12-07T00:00:00	2024-11-08T22:00:00	3	Temperatura mínima	13.1
118312	7	Sololá	701	Sololá	4	Finca Santa Victoria	7	Julio	2023-12-07T00:00:00	2024-11-08T22:00:00	5	Humedad	94
118313	7	Sololá	701	Sololá	4	Finca Santa Victoria	7	Julio	2023-12-07T00:00:00	2024-11-08T22:00:00	6	Velocidad del viento	1.6
118314	7	Sololá	701	Sololá	4	Finca Santa Victoria	7	Julio	2023-12-07T00:00:00	2024-11-08T22:00:00	7	Dirección del viento	1.61
118315	7	Sololá	701	Sololá	4	Finca Santa Victoria	7	Julio	2023-12-07T00:00:00	2024-11-08T22:00:00	1	Precipitación	0.2
118316	7	Sololá	701	Sololá	4	Finca Santa Victoria	7	Julio	2023-12-07T00:00:00	2024-11-08T22:00:00	8	Radiación solar	0
118317	7	Sololá	701	Sololá	4	Finca Santa Victoria	7	Julio	2023-12-07T00:00:00	2024-11-08T23:00:00	2	Temperatura media	14.2
118318	7	Sololá	701	Sololá	4	Finca Santa Victoria	7	Julio	2023-12-07T00:00:00	2024-11-08T23:00:00	4	Temperatura máxima	14.3
118319	7	Sololá	701	Sololá	4	Finca Santa Victoria	7	Julio	2023-12-07T00:00:00	2024-11-08T23:00:00	3	Temperatura mínima	13.6
118320	7	Sololá	701	Sololá	4	Finca Santa Victoria	7	Julio	2023-12-07T00:00:00	2024-11-08T23:00:00	5	Humedad	92
118321	7	Sololá	701	Sololá	4	Finca Santa Victoria	7	Julio	2023-12-07T00:00:00	2024-11-08T23:00:00	6	Velocidad del viento	3.2
118322	7	Sololá	701	Sololá	4	Finca Santa Victoria	7	Julio	2023-12-07T00:00:00	2024-11-08T23:00:00	7	Dirección del viento	3.22
118323	7	Sololá	701	Sololá	4	Finca Santa Victoria	7	Julio	2023-12-07T00:00:00	2024-11-08T23:00:00	1	Precipitación	0.2
118324	7	Sololá	701	Sololá	4	Finca Santa Victoria	7	Julio	2023-12-07T00:00:00	2024-11-08T23:00:00	8	Radiación solar	0
118325	7	Sololá	701	Sololá	4	Finca Santa Victoria	7	Julio	2023-07-13T00:00:00	2024-11-08T00:00:00	2	Temperatura media	14.3
118326	7	Sololá	701	Sololá	4	Finca Santa Victoria	7	Julio	2023-07-13T00:00:00	2024-11-08T00:00:00	4	Temperatura máxima	14.3
118327	7	Sololá	701	Sololá	4	Finca Santa Victoria	7	Julio	2023-07-13T00:00:00	2024-11-08T00:00:00	3	Temperatura mínima	14.2
118328	7	Sololá	701	Sololá	4	Finca Santa Victoria	7	Julio	2023-07-13T00:00:00	2024-11-08T00:00:00	5	Humedad	91
118329	7	Sololá	701	Sololá	4	Finca Santa Victoria	7	Julio	2023-07-13T00:00:00	2024-11-08T00:00:00	6	Velocidad del viento	4.8
118330	7	Sololá	701	Sololá	4	Finca Santa Victoria	7	Julio	2023-07-13T00:00:00	2024-11-08T00:00:00	7	Dirección del viento	4.83
118331	7	Sololá	701	Sololá	4	Finca Santa Victoria	7	Julio	2023-07-13T00:00:00	2024-11-08T00:00:00	1	Precipitación	0
118332	7	Sololá	701	Sololá	4	Finca Santa Victoria	7	Julio	2023-07-13T00:00:00	2024-11-08T00:00:00	8	Radiación solar	0
118333	7	Sololá	701	Sololá	4	Finca Santa Victoria	7	Julio	2023-07-13T00:00:00	2024-11-08T01:00:00	2	Temperatura media	14.4
118334	7	Sololá	701	Sololá	4	Finca Santa Victoria	7	Julio	2023-07-13T00:00:00	2024-11-08T01:00:00	4	Temperatura máxima	14.4
118335	7	Sololá	701	Sololá	4	Finca Santa Victoria	7	Julio	2023-07-13T00:00:00	2024-11-08T01:00:00	3	Temperatura mínima	14.3
118336	7	Sololá	701	Sololá	4	Finca Santa Victoria	7	Julio	2023-07-13T00:00:00	2024-11-08T01:00:00	5	Humedad	89
118337	7	Sololá	701	Sololá	4	Finca Santa Victoria	7	Julio	2023-07-13T00:00:00	2024-11-08T01:00:00	6	Velocidad del viento	3.2
118338	7	Sololá	701	Sololá	4	Finca Santa Victoria	7	Julio	2023-07-13T00:00:00	2024-11-08T01:00:00	7	Dirección del viento	3.22
118339	7	Sololá	701	Sololá	4	Finca Santa Victoria	7	Julio	2023-07-13T00:00:00	2024-11-08T01:00:00	1	Precipitación	0
118340	7	Sololá	701	Sololá	4	Finca Santa Victoria	7	Julio	2023-07-13T00:00:00	2024-11-08T01:00:00	8	Radiación solar	0
118341	7	Sololá	701	Sololá	4	Finca Santa Victoria	7	Julio	2023-07-13T00:00:00	2024-11-08T02:00:00	2	Temperatura media	14.2
118342	7	Sololá	701	Sololá	4	Finca Santa Victoria	7	Julio	2023-07-13T00:00:00	2024-11-08T02:00:00	4	Temperatura máxima	14.4
118343	7	Sololá	701	Sololá	4	Finca Santa Victoria	7	Julio	2023-07-13T00:00:00	2024-11-08T02:00:00	3	Temperatura mínima	14.2
118344	7	Sololá	701	Sololá	4	Finca Santa Victoria	7	Julio	2023-07-13T00:00:00	2024-11-08T02:00:00	5	Humedad	84
118345	7	Sololá	701	Sololá	4	Finca Santa Victoria	7	Julio	2023-07-13T00:00:00	2024-11-08T02:00:00	6	Velocidad del viento	3.2
118346	7	Sololá	701	Sololá	4	Finca Santa Victoria	7	Julio	2023-07-13T00:00:00	2024-11-08T02:00:00	7	Dirección del viento	3.22
118347	7	Sololá	701	Sololá	4	Finca Santa Victoria	7	Julio	2023-07-13T00:00:00	2024-11-08T02:00:00	1	Precipitación	0
118348	7	Sololá	701	Sololá	4	Finca Santa Victoria	7	Julio	2023-07-13T00:00:00	2024-11-08T02:00:00	8	Radiación solar	0
118349	7	Sololá	701	Sololá	4	Finca Santa Victoria	7	Julio	2023-07-13T00:00:00	2024-11-08T03:00:00	2	Temperatura media	14
118350	7	Sololá	701	Sololá	4	Finca Santa Victoria	7	Julio	2023-07-13T00:00:00	2024-11-08T03:00:00	4	Temperatura máxima	14.3
118351	7	Sololá	701	Sololá	4	Finca Santa Victoria	7	Julio	2023-07-13T00:00:00	2024-11-08T03:00:00	3	Temperatura mínima	13.9
118352	7	Sololá	701	Sololá	4	Finca Santa Victoria	7	Julio	2023-07-13T00:00:00	2024-11-08T03:00:00	5	Humedad	85
118353	7	Sololá	701	Sololá	4	Finca Santa Victoria	7	Julio	2023-07-13T00:00:00	2024-11-08T03:00:00	6	Velocidad del viento	3.2
118354	7	Sololá	701	Sololá	4	Finca Santa Victoria	7	Julio	2023-07-13T00:00:00	2024-11-08T03:00:00	7	Dirección del viento	3.22
118355	7	Sololá	701	Sololá	4	Finca Santa Victoria	7	Julio	2023-07-13T00:00:00	2024-11-08T03:00:00	1	Precipitación	0
118356	7	Sololá	701	Sololá	4	Finca Santa Victoria	7	Julio	2023-07-13T00:00:00	2024-11-08T03:00:00	8	Radiación solar	0
118357	7	Sololá	701	Sololá	4	Finca Santa Victoria	7	Julio	2023-07-13T00:00:00	2024-11-08T04:00:00	2	Temperatura media	13.8
118358	7	Sololá	701	Sololá	4	Finca Santa Victoria	7	Julio	2023-07-13T00:00:00	2024-11-08T04:00:00	4	Temperatura máxima	14
118359	7	Sololá	701	Sololá	4	Finca Santa Victoria	7	Julio	2023-07-13T00:00:00	2024-11-08T04:00:00	3	Temperatura mínima	13.8
118360	7	Sololá	701	Sololá	4	Finca Santa Victoria	7	Julio	2023-07-13T00:00:00	2024-11-08T04:00:00	5	Humedad	85
118361	7	Sololá	701	Sololá	4	Finca Santa Victoria	7	Julio	2023-07-13T00:00:00	2024-11-08T04:00:00	6	Velocidad del viento	3.2
118362	7	Sololá	701	Sololá	4	Finca Santa Victoria	7	Julio	2023-07-13T00:00:00	2024-11-08T04:00:00	7	Dirección del viento	3.22
118363	7	Sololá	701	Sololá	4	Finca Santa Victoria	7	Julio	2023-07-13T00:00:00	2024-11-08T04:00:00	1	Precipitación	0
118364	7	Sololá	701	Sololá	4	Finca Santa Victoria	7	Julio	2023-07-13T00:00:00	2024-11-08T04:00:00	8	Radiación solar	0
118365	7	Sololá	701	Sololá	4	Finca Santa Victoria	7	Julio	2023-07-13T00:00:00	2024-11-08T05:00:00	2	Temperatura media	13.6
118366	7	Sololá	701	Sololá	4	Finca Santa Victoria	7	Julio	2023-07-13T00:00:00	2024-11-08T05:00:00	4	Temperatura máxima	13.9
118367	7	Sololá	701	Sololá	4	Finca Santa Victoria	7	Julio	2023-07-13T00:00:00	2024-11-08T05:00:00	3	Temperatura mínima	13.6
118368	7	Sololá	701	Sololá	4	Finca Santa Victoria	7	Julio	2023-07-13T00:00:00	2024-11-08T05:00:00	5	Humedad	86
118369	7	Sololá	701	Sololá	4	Finca Santa Victoria	7	Julio	2023-07-13T00:00:00	2024-11-08T05:00:00	6	Velocidad del viento	3.2
118370	7	Sololá	701	Sololá	4	Finca Santa Victoria	7	Julio	2023-07-13T00:00:00	2024-11-08T05:00:00	7	Dirección del viento	3.22
118371	7	Sololá	701	Sololá	4	Finca Santa Victoria	7	Julio	2023-07-13T00:00:00	2024-11-08T05:00:00	1	Precipitación	0
118372	7	Sololá	701	Sololá	4	Finca Santa Victoria	7	Julio	2023-07-13T00:00:00	2024-11-08T05:00:00	8	Radiación solar	0
118373	7	Sololá	701	Sololá	4	Finca Santa Victoria	7	Julio	2023-07-13T00:00:00	2024-11-08T06:00:00	2	Temperatura media	13.7
118374	7	Sololá	701	Sololá	4	Finca Santa Victoria	7	Julio	2023-07-13T00:00:00	2024-11-08T06:00:00	4	Temperatura máxima	13.7
118375	7	Sololá	701	Sololá	4	Finca Santa Victoria	7	Julio	2023-07-13T00:00:00	2024-11-08T06:00:00	3	Temperatura mínima	13.4
118376	7	Sololá	701	Sololá	4	Finca Santa Victoria	7	Julio	2023-07-13T00:00:00	2024-11-08T06:00:00	5	Humedad	87
118377	7	Sololá	701	Sololá	4	Finca Santa Victoria	7	Julio	2023-07-13T00:00:00	2024-11-08T06:00:00	6	Velocidad del viento	4.8
118378	7	Sololá	701	Sololá	4	Finca Santa Victoria	7	Julio	2023-07-13T00:00:00	2024-11-08T06:00:00	7	Dirección del viento	4.83
118379	7	Sololá	701	Sololá	4	Finca Santa Victoria	7	Julio	2023-07-13T00:00:00	2024-11-08T06:00:00	1	Precipitación	0
118380	7	Sololá	701	Sololá	4	Finca Santa Victoria	7	Julio	2023-07-13T00:00:00	2024-11-08T06:00:00	8	Radiación solar	2
118381	7	Sololá	701	Sololá	4	Finca Santa Victoria	7	Julio	2023-07-13T00:00:00	2024-11-08T07:00:00	2	Temperatura media	14.1
118382	7	Sololá	701	Sololá	4	Finca Santa Victoria	7	Julio	2023-07-13T00:00:00	2024-11-08T07:00:00	4	Temperatura máxima	14.1
118383	7	Sololá	701	Sololá	4	Finca Santa Victoria	7	Julio	2023-07-13T00:00:00	2024-11-08T07:00:00	3	Temperatura mínima	13.6
118384	7	Sololá	701	Sololá	4	Finca Santa Victoria	7	Julio	2023-07-13T00:00:00	2024-11-08T07:00:00	5	Humedad	88
118385	7	Sololá	701	Sololá	4	Finca Santa Victoria	7	Julio	2023-07-13T00:00:00	2024-11-08T07:00:00	6	Velocidad del viento	4.8
118386	7	Sololá	701	Sololá	4	Finca Santa Victoria	7	Julio	2023-07-13T00:00:00	2024-11-08T07:00:00	7	Dirección del viento	4.83
118387	7	Sololá	701	Sololá	4	Finca Santa Victoria	7	Julio	2023-07-13T00:00:00	2024-11-08T07:00:00	1	Precipitación	0
118388	7	Sololá	701	Sololá	4	Finca Santa Victoria	7	Julio	2023-07-13T00:00:00	2024-11-08T07:00:00	8	Radiación solar	54
118389	7	Sololá	701	Sololá	4	Finca Santa Victoria	7	Julio	2023-07-13T00:00:00	2024-11-08T08:00:00	2	Temperatura media	15.4
118390	7	Sololá	701	Sololá	4	Finca Santa Victoria	7	Julio	2023-07-13T00:00:00	2024-11-08T08:00:00	4	Temperatura máxima	15.4
118391	7	Sololá	701	Sololá	4	Finca Santa Victoria	7	Julio	2023-07-13T00:00:00	2024-11-08T08:00:00	3	Temperatura mínima	14.1
118392	7	Sololá	701	Sololá	4	Finca Santa Victoria	7	Julio	2023-07-13T00:00:00	2024-11-08T08:00:00	5	Humedad	83
118393	7	Sololá	701	Sololá	4	Finca Santa Victoria	7	Julio	2023-07-13T00:00:00	2024-11-08T08:00:00	6	Velocidad del viento	3.2
118394	7	Sololá	701	Sololá	4	Finca Santa Victoria	7	Julio	2023-07-13T00:00:00	2024-11-08T08:00:00	7	Dirección del viento	3.22
118395	7	Sololá	701	Sololá	4	Finca Santa Victoria	7	Julio	2023-07-13T00:00:00	2024-11-08T08:00:00	1	Precipitación	0
118396	7	Sololá	701	Sololá	4	Finca Santa Victoria	7	Julio	2023-07-13T00:00:00	2024-11-08T08:00:00	8	Radiación solar	143
118397	7	Sololá	701	Sololá	4	Finca Santa Victoria	7	Julio	2023-07-13T00:00:00	2024-11-08T09:00:00	2	Temperatura media	16.9
118398	7	Sololá	701	Sololá	4	Finca Santa Victoria	7	Julio	2023-07-13T00:00:00	2024-11-08T09:00:00	4	Temperatura máxima	16.9
118399	7	Sololá	701	Sololá	4	Finca Santa Victoria	7	Julio	2023-07-13T00:00:00	2024-11-08T09:00:00	3	Temperatura mínima	15.4
118400	7	Sololá	701	Sololá	4	Finca Santa Victoria	7	Julio	2023-07-13T00:00:00	2024-11-08T09:00:00	5	Humedad	77
118401	7	Sololá	701	Sololá	4	Finca Santa Victoria	7	Julio	2023-07-13T00:00:00	2024-11-08T09:00:00	6	Velocidad del viento	3.2
118402	7	Sololá	701	Sololá	4	Finca Santa Victoria	7	Julio	2023-07-13T00:00:00	2024-11-08T09:00:00	7	Dirección del viento	3.22
118403	7	Sololá	701	Sololá	4	Finca Santa Victoria	7	Julio	2023-07-13T00:00:00	2024-11-08T09:00:00	1	Precipitación	0
118404	7	Sololá	701	Sololá	4	Finca Santa Victoria	7	Julio	2023-07-13T00:00:00	2024-11-08T09:00:00	8	Radiación solar	265
118405	7	Sololá	701	Sololá	4	Finca Santa Victoria	7	Julio	2023-07-13T00:00:00	2024-11-08T10:00:00	2	Temperatura media	17.6
118406	7	Sololá	701	Sololá	4	Finca Santa Victoria	7	Julio	2023-07-13T00:00:00	2024-11-08T10:00:00	4	Temperatura máxima	17.8
118407	7	Sololá	701	Sololá	4	Finca Santa Victoria	7	Julio	2023-07-13T00:00:00	2024-11-08T10:00:00	3	Temperatura mínima	16.9
118408	7	Sololá	701	Sololá	4	Finca Santa Victoria	7	Julio	2023-07-13T00:00:00	2024-11-08T10:00:00	5	Humedad	76
118409	7	Sololá	701	Sololá	4	Finca Santa Victoria	7	Julio	2023-07-13T00:00:00	2024-11-08T10:00:00	6	Velocidad del viento	3.2
118410	7	Sololá	701	Sololá	4	Finca Santa Victoria	7	Julio	2023-07-13T00:00:00	2024-11-08T10:00:00	7	Dirección del viento	3.22
118411	7	Sololá	701	Sololá	4	Finca Santa Victoria	7	Julio	2023-07-13T00:00:00	2024-11-08T10:00:00	1	Precipitación	0
118412	7	Sololá	701	Sololá	4	Finca Santa Victoria	7	Julio	2023-07-13T00:00:00	2024-11-08T10:00:00	8	Radiación solar	262
118413	7	Sololá	701	Sololá	4	Finca Santa Victoria	7	Julio	2023-07-13T00:00:00	2024-11-08T11:00:00	2	Temperatura media	19.1
118414	7	Sololá	701	Sololá	4	Finca Santa Victoria	7	Julio	2023-07-13T00:00:00	2024-11-08T11:00:00	4	Temperatura máxima	19.1
118415	7	Sololá	701	Sololá	4	Finca Santa Victoria	7	Julio	2023-07-13T00:00:00	2024-11-08T11:00:00	3	Temperatura mínima	17.1
118416	7	Sololá	701	Sololá	4	Finca Santa Victoria	7	Julio	2023-07-13T00:00:00	2024-11-08T11:00:00	5	Humedad	74
118417	7	Sololá	701	Sololá	4	Finca Santa Victoria	7	Julio	2023-07-13T00:00:00	2024-11-08T11:00:00	6	Velocidad del viento	3.2
118418	7	Sololá	701	Sololá	4	Finca Santa Victoria	7	Julio	2023-07-13T00:00:00	2024-11-08T11:00:00	7	Dirección del viento	3.22
118419	7	Sololá	701	Sololá	4	Finca Santa Victoria	7	Julio	2023-07-13T00:00:00	2024-11-08T11:00:00	1	Precipitación	0
118420	7	Sololá	701	Sololá	4	Finca Santa Victoria	7	Julio	2023-07-13T00:00:00	2024-11-08T11:00:00	8	Radiación solar	215
118421	7	Sololá	701	Sololá	4	Finca Santa Victoria	7	Julio	2023-07-13T00:00:00	2024-11-08T12:00:00	2	Temperatura media	20.2
118422	7	Sololá	701	Sololá	4	Finca Santa Victoria	7	Julio	2023-07-13T00:00:00	2024-11-08T12:00:00	4	Temperatura máxima	20.4
118423	7	Sololá	701	Sololá	4	Finca Santa Victoria	7	Julio	2023-07-13T00:00:00	2024-11-08T12:00:00	3	Temperatura mínima	19.2
118424	7	Sololá	701	Sololá	4	Finca Santa Victoria	7	Julio	2023-07-13T00:00:00	2024-11-08T12:00:00	5	Humedad	62
118425	7	Sololá	701	Sololá	4	Finca Santa Victoria	7	Julio	2023-07-13T00:00:00	2024-11-08T12:00:00	6	Velocidad del viento	4.8
118426	7	Sololá	701	Sololá	4	Finca Santa Victoria	7	Julio	2023-07-13T00:00:00	2024-11-08T12:00:00	7	Dirección del viento	4.83
118427	7	Sololá	701	Sololá	4	Finca Santa Victoria	7	Julio	2023-07-13T00:00:00	2024-11-08T12:00:00	1	Precipitación	0
118428	7	Sololá	701	Sololá	4	Finca Santa Victoria	7	Julio	2023-07-13T00:00:00	2024-11-08T12:00:00	8	Radiación solar	1031
118429	7	Sololá	701	Sololá	4	Finca Santa Victoria	7	Julio	2023-07-13T00:00:00	2024-11-08T13:00:00	2	Temperatura media	21.2
118430	7	Sololá	701	Sololá	4	Finca Santa Victoria	7	Julio	2023-07-13T00:00:00	2024-11-08T13:00:00	4	Temperatura máxima	21.7
118431	7	Sololá	701	Sololá	4	Finca Santa Victoria	7	Julio	2023-07-13T00:00:00	2024-11-08T13:00:00	3	Temperatura mínima	20.2
118432	7	Sololá	701	Sololá	4	Finca Santa Victoria	7	Julio	2023-07-13T00:00:00	2024-11-08T13:00:00	5	Humedad	58
118433	7	Sololá	701	Sololá	4	Finca Santa Victoria	7	Julio	2023-07-13T00:00:00	2024-11-08T13:00:00	6	Velocidad del viento	3.2
118434	7	Sololá	701	Sololá	4	Finca Santa Victoria	7	Julio	2023-07-13T00:00:00	2024-11-08T13:00:00	7	Dirección del viento	3.22
118435	7	Sololá	701	Sololá	4	Finca Santa Victoria	7	Julio	2023-07-13T00:00:00	2024-11-08T13:00:00	1	Precipitación	0
118436	7	Sololá	701	Sololá	4	Finca Santa Victoria	7	Julio	2023-07-13T00:00:00	2024-11-08T13:00:00	8	Radiación solar	1040
118437	7	Sololá	701	Sololá	4	Finca Santa Victoria	7	Julio	2023-07-13T00:00:00	2024-11-08T14:00:00	2	Temperatura media	21.8
118438	7	Sololá	701	Sololá	4	Finca Santa Victoria	7	Julio	2023-07-13T00:00:00	2024-11-08T14:00:00	4	Temperatura máxima	22.6
118439	7	Sololá	701	Sololá	4	Finca Santa Victoria	7	Julio	2023-07-13T00:00:00	2024-11-08T14:00:00	3	Temperatura mínima	21.2
118440	7	Sololá	701	Sololá	4	Finca Santa Victoria	7	Julio	2023-07-13T00:00:00	2024-11-08T14:00:00	5	Humedad	61
118441	7	Sololá	701	Sololá	4	Finca Santa Victoria	7	Julio	2023-07-13T00:00:00	2024-11-08T14:00:00	6	Velocidad del viento	3.2
118442	7	Sololá	701	Sololá	4	Finca Santa Victoria	7	Julio	2023-07-13T00:00:00	2024-11-08T14:00:00	7	Dirección del viento	3.22
118443	7	Sololá	701	Sololá	4	Finca Santa Victoria	7	Julio	2023-07-13T00:00:00	2024-11-08T14:00:00	1	Precipitación	0
118444	7	Sololá	701	Sololá	4	Finca Santa Victoria	7	Julio	2023-07-13T00:00:00	2024-11-08T14:00:00	8	Radiación solar	955
118445	7	Sololá	701	Sololá	4	Finca Santa Victoria	7	Julio	2023-07-13T00:00:00	2024-11-08T15:00:00	2	Temperatura media	20.9
118446	7	Sololá	701	Sololá	4	Finca Santa Victoria	7	Julio	2023-07-13T00:00:00	2024-11-08T15:00:00	4	Temperatura máxima	21.9
118447	7	Sololá	701	Sololá	4	Finca Santa Victoria	7	Julio	2023-07-13T00:00:00	2024-11-08T15:00:00	3	Temperatura mínima	20.9
118448	7	Sololá	701	Sololá	4	Finca Santa Victoria	7	Julio	2023-07-13T00:00:00	2024-11-08T15:00:00	5	Humedad	59
118449	7	Sololá	701	Sololá	4	Finca Santa Victoria	7	Julio	2023-07-13T00:00:00	2024-11-08T15:00:00	6	Velocidad del viento	4.8
118450	7	Sololá	701	Sololá	4	Finca Santa Victoria	7	Julio	2023-07-13T00:00:00	2024-11-08T15:00:00	7	Dirección del viento	4.83
118451	7	Sololá	701	Sololá	4	Finca Santa Victoria	7	Julio	2023-07-13T00:00:00	2024-11-08T15:00:00	1	Precipitación	0
118452	7	Sololá	701	Sololá	4	Finca Santa Victoria	7	Julio	2023-07-13T00:00:00	2024-11-08T15:00:00	8	Radiación solar	347
118453	7	Sololá	701	Sololá	4	Finca Santa Victoria	7	Julio	2023-07-13T00:00:00	2024-11-08T16:00:00	2	Temperatura media	20.6
118454	7	Sololá	701	Sololá	4	Finca Santa Victoria	7	Julio	2023-07-13T00:00:00	2024-11-08T16:00:00	4	Temperatura máxima	20.9
118455	7	Sololá	701	Sololá	4	Finca Santa Victoria	7	Julio	2023-07-13T00:00:00	2024-11-08T16:00:00	3	Temperatura mínima	20.6
118456	7	Sololá	701	Sololá	4	Finca Santa Victoria	7	Julio	2023-07-13T00:00:00	2024-11-08T16:00:00	5	Humedad	62
118457	7	Sololá	701	Sololá	4	Finca Santa Victoria	7	Julio	2023-07-13T00:00:00	2024-11-08T16:00:00	6	Velocidad del viento	3.2
118458	7	Sololá	701	Sololá	4	Finca Santa Victoria	7	Julio	2023-07-13T00:00:00	2024-11-08T16:00:00	7	Dirección del viento	3.22
118459	7	Sololá	701	Sololá	4	Finca Santa Victoria	7	Julio	2023-07-13T00:00:00	2024-11-08T16:00:00	1	Precipitación	0
118460	7	Sololá	701	Sololá	4	Finca Santa Victoria	7	Julio	2023-07-13T00:00:00	2024-11-08T16:00:00	8	Radiación solar	144
118461	7	Sololá	701	Sololá	4	Finca Santa Victoria	7	Julio	2023-07-13T00:00:00	2024-11-08T17:00:00	2	Temperatura media	20.1
118462	7	Sololá	701	Sololá	4	Finca Santa Victoria	7	Julio	2023-07-13T00:00:00	2024-11-08T17:00:00	4	Temperatura máxima	20.8
118463	7	Sololá	701	Sololá	4	Finca Santa Victoria	7	Julio	2023-07-13T00:00:00	2024-11-08T17:00:00	3	Temperatura mínima	20
118464	7	Sololá	701	Sololá	4	Finca Santa Victoria	7	Julio	2023-07-13T00:00:00	2024-11-08T17:00:00	5	Humedad	67
118465	7	Sololá	701	Sololá	4	Finca Santa Victoria	7	Julio	2023-07-13T00:00:00	2024-11-08T17:00:00	6	Velocidad del viento	1.6
118466	7	Sololá	701	Sololá	4	Finca Santa Victoria	7	Julio	2023-07-13T00:00:00	2024-11-08T17:00:00	7	Dirección del viento	1.61
118467	7	Sololá	701	Sololá	4	Finca Santa Victoria	7	Julio	2023-07-13T00:00:00	2024-11-08T17:00:00	1	Precipitación	0
118468	7	Sololá	701	Sololá	4	Finca Santa Victoria	7	Julio	2023-07-13T00:00:00	2024-11-08T17:00:00	8	Radiación solar	135
118469	7	Sololá	701	Sololá	4	Finca Santa Victoria	7	Julio	2023-07-13T00:00:00	2024-11-08T18:00:00	2	Temperatura media	17.9
118470	7	Sololá	701	Sololá	4	Finca Santa Victoria	7	Julio	2023-07-13T00:00:00	2024-11-08T18:00:00	4	Temperatura máxima	20.1
118471	7	Sololá	701	Sololá	4	Finca Santa Victoria	7	Julio	2023-07-13T00:00:00	2024-11-08T18:00:00	3	Temperatura mínima	17.9
118472	7	Sololá	701	Sololá	4	Finca Santa Victoria	7	Julio	2023-07-13T00:00:00	2024-11-08T18:00:00	5	Humedad	75
118473	7	Sololá	701	Sololá	4	Finca Santa Victoria	7	Julio	2023-07-13T00:00:00	2024-11-08T18:00:00	6	Velocidad del viento	1.6
118474	7	Sololá	701	Sololá	4	Finca Santa Victoria	7	Julio	2023-07-13T00:00:00	2024-11-08T18:00:00	7	Dirección del viento	1.61
118475	7	Sololá	701	Sololá	4	Finca Santa Victoria	7	Julio	2023-07-13T00:00:00	2024-11-08T18:00:00	1	Precipitación	0
118476	7	Sololá	701	Sololá	4	Finca Santa Victoria	7	Julio	2023-07-13T00:00:00	2024-11-08T18:00:00	8	Radiación solar	79
118477	7	Sololá	701	Sololá	4	Finca Santa Victoria	7	Julio	2023-07-13T00:00:00	2024-11-08T19:00:00	2	Temperatura media	16.6
118478	7	Sololá	701	Sololá	4	Finca Santa Victoria	7	Julio	2023-07-13T00:00:00	2024-11-08T19:00:00	4	Temperatura máxima	17.9
118479	7	Sololá	701	Sololá	4	Finca Santa Victoria	7	Julio	2023-07-13T00:00:00	2024-11-08T19:00:00	3	Temperatura mínima	16.6
118480	7	Sololá	701	Sololá	4	Finca Santa Victoria	7	Julio	2023-07-13T00:00:00	2024-11-08T19:00:00	5	Humedad	81
118481	7	Sololá	701	Sololá	4	Finca Santa Victoria	7	Julio	2023-07-13T00:00:00	2024-11-08T19:00:00	6	Velocidad del viento	1.6
118482	7	Sololá	701	Sololá	4	Finca Santa Victoria	7	Julio	2023-07-13T00:00:00	2024-11-08T19:00:00	7	Dirección del viento	1.61
118483	7	Sololá	701	Sololá	4	Finca Santa Victoria	7	Julio	2023-07-13T00:00:00	2024-11-08T19:00:00	1	Precipitación	0
118484	7	Sololá	701	Sololá	4	Finca Santa Victoria	7	Julio	2023-07-13T00:00:00	2024-11-08T19:00:00	8	Radiación solar	0
118485	7	Sololá	701	Sololá	4	Finca Santa Victoria	7	Julio	2023-07-13T00:00:00	2024-11-08T20:00:00	2	Temperatura media	16.1
118486	7	Sololá	701	Sololá	4	Finca Santa Victoria	7	Julio	2023-07-13T00:00:00	2024-11-08T20:00:00	4	Temperatura máxima	16.6
118487	7	Sololá	701	Sololá	4	Finca Santa Victoria	7	Julio	2023-07-13T00:00:00	2024-11-08T20:00:00	3	Temperatura mínima	16
118488	7	Sololá	701	Sololá	4	Finca Santa Victoria	7	Julio	2023-07-13T00:00:00	2024-11-08T20:00:00	5	Humedad	82
118489	7	Sololá	701	Sololá	4	Finca Santa Victoria	7	Julio	2023-07-13T00:00:00	2024-11-08T20:00:00	6	Velocidad del viento	1.6
118490	7	Sololá	701	Sololá	4	Finca Santa Victoria	7	Julio	2023-07-13T00:00:00	2024-11-08T20:00:00	7	Dirección del viento	1.61
118491	7	Sololá	701	Sololá	4	Finca Santa Victoria	7	Julio	2023-07-13T00:00:00	2024-11-08T20:00:00	1	Precipitación	0
118492	7	Sololá	701	Sololá	4	Finca Santa Victoria	7	Julio	2023-07-13T00:00:00	2024-11-08T20:00:00	8	Radiación solar	0
118493	7	Sololá	701	Sololá	4	Finca Santa Victoria	7	Julio	2023-07-13T00:00:00	2024-11-08T21:00:00	2	Temperatura media	15.8
118494	7	Sololá	701	Sololá	4	Finca Santa Victoria	7	Julio	2023-07-13T00:00:00	2024-11-08T21:00:00	4	Temperatura máxima	16.1
118495	7	Sololá	701	Sololá	4	Finca Santa Victoria	7	Julio	2023-07-13T00:00:00	2024-11-08T21:00:00	3	Temperatura mínima	15.7
118496	7	Sololá	701	Sololá	4	Finca Santa Victoria	7	Julio	2023-07-13T00:00:00	2024-11-08T21:00:00	5	Humedad	84
118497	7	Sololá	701	Sololá	4	Finca Santa Victoria	7	Julio	2023-07-13T00:00:00	2024-11-08T21:00:00	6	Velocidad del viento	3.2
118498	7	Sololá	701	Sololá	4	Finca Santa Victoria	7	Julio	2023-07-13T00:00:00	2024-11-08T21:00:00	7	Dirección del viento	3.22
118499	7	Sololá	701	Sololá	4	Finca Santa Victoria	7	Julio	2023-07-13T00:00:00	2024-11-08T21:00:00	1	Precipitación	0
118500	7	Sololá	701	Sololá	4	Finca Santa Victoria	7	Julio	2023-07-13T00:00:00	2024-11-08T21:00:00	8	Radiación solar	0
118501	7	Sololá	701	Sololá	4	Finca Santa Victoria	7	Julio	2023-07-13T00:00:00	2024-11-08T22:00:00	2	Temperatura media	15.1
118502	7	Sololá	701	Sololá	4	Finca Santa Victoria	7	Julio	2023-07-13T00:00:00	2024-11-08T22:00:00	4	Temperatura máxima	16
118503	7	Sololá	701	Sololá	4	Finca Santa Victoria	7	Julio	2023-07-13T00:00:00	2024-11-08T22:00:00	3	Temperatura mínima	15.1
118504	7	Sololá	701	Sololá	4	Finca Santa Victoria	7	Julio	2023-07-13T00:00:00	2024-11-08T22:00:00	5	Humedad	91
118505	7	Sololá	701	Sololá	4	Finca Santa Victoria	7	Julio	2023-07-13T00:00:00	2024-11-08T22:00:00	6	Velocidad del viento	1.6
118506	7	Sololá	701	Sololá	4	Finca Santa Victoria	7	Julio	2023-07-13T00:00:00	2024-11-08T22:00:00	7	Dirección del viento	1.61
118507	7	Sololá	701	Sololá	4	Finca Santa Victoria	7	Julio	2023-07-13T00:00:00	2024-11-08T22:00:00	1	Precipitación	1
118508	7	Sololá	701	Sololá	4	Finca Santa Victoria	7	Julio	2023-07-13T00:00:00	2024-11-08T22:00:00	8	Radiación solar	0
118509	7	Sololá	701	Sololá	4	Finca Santa Victoria	7	Julio	2023-07-13T00:00:00	2024-11-08T23:00:00	2	Temperatura media	13.6
118510	7	Sololá	701	Sololá	4	Finca Santa Victoria	7	Julio	2023-07-13T00:00:00	2024-11-08T23:00:00	4	Temperatura máxima	15.1
118511	7	Sololá	701	Sololá	4	Finca Santa Victoria	7	Julio	2023-07-13T00:00:00	2024-11-08T23:00:00	3	Temperatura mínima	13.6
118512	7	Sololá	701	Sololá	4	Finca Santa Victoria	7	Julio	2023-07-13T00:00:00	2024-11-08T23:00:00	5	Humedad	96
118513	7	Sololá	701	Sololá	4	Finca Santa Victoria	7	Julio	2023-07-13T00:00:00	2024-11-08T23:00:00	6	Velocidad del viento	1.6
118514	7	Sololá	701	Sololá	4	Finca Santa Victoria	7	Julio	2023-07-13T00:00:00	2024-11-08T23:00:00	7	Dirección del viento	1.61
118515	7	Sololá	701	Sololá	4	Finca Santa Victoria	7	Julio	2023-07-13T00:00:00	2024-11-08T23:00:00	1	Precipitación	15.2
118516	7	Sololá	701	Sololá	4	Finca Santa Victoria	7	Julio	2023-07-13T00:00:00	2024-11-08T23:00:00	8	Radiación solar	0
118517	7	Sololá	701	Sololá	4	Finca Santa Victoria	7	Julio	2023-07-14T00:00:00	2024-11-08T00:00:00	2	Temperatura media	13.2
118518	7	Sololá	701	Sololá	4	Finca Santa Victoria	7	Julio	2023-07-14T00:00:00	2024-11-08T00:00:00	4	Temperatura máxima	13.6
118519	7	Sololá	701	Sololá	4	Finca Santa Victoria	7	Julio	2023-07-14T00:00:00	2024-11-08T00:00:00	3	Temperatura mínima	12.8
118520	7	Sololá	701	Sololá	4	Finca Santa Victoria	7	Julio	2023-07-14T00:00:00	2024-11-08T00:00:00	5	Humedad	97
118521	7	Sololá	701	Sololá	4	Finca Santa Victoria	7	Julio	2023-07-14T00:00:00	2024-11-08T00:00:00	6	Velocidad del viento	0
118522	7	Sololá	701	Sololá	4	Finca Santa Victoria	7	Julio	2023-07-14T00:00:00	2024-11-08T00:00:00	7	Dirección del viento	0
118523	7	Sololá	701	Sololá	4	Finca Santa Victoria	7	Julio	2023-07-14T00:00:00	2024-11-08T00:00:00	1	Precipitación	6
118524	7	Sololá	701	Sololá	4	Finca Santa Victoria	7	Julio	2023-07-14T00:00:00	2024-11-08T00:00:00	8	Radiación solar	0
118525	7	Sololá	701	Sololá	4	Finca Santa Victoria	7	Julio	2023-07-14T00:00:00	2024-11-08T01:00:00	2	Temperatura media	13.2
118526	7	Sololá	701	Sololá	4	Finca Santa Victoria	7	Julio	2023-07-14T00:00:00	2024-11-08T01:00:00	4	Temperatura máxima	13.3
118527	7	Sololá	701	Sololá	4	Finca Santa Victoria	7	Julio	2023-07-14T00:00:00	2024-11-08T01:00:00	3	Temperatura mínima	13.1
118528	7	Sololá	701	Sololá	4	Finca Santa Victoria	7	Julio	2023-07-14T00:00:00	2024-11-08T01:00:00	5	Humedad	95
118529	7	Sololá	701	Sololá	4	Finca Santa Victoria	7	Julio	2023-07-14T00:00:00	2024-11-08T01:00:00	6	Velocidad del viento	1.6
118530	7	Sololá	701	Sololá	4	Finca Santa Victoria	7	Julio	2023-07-14T00:00:00	2024-11-08T01:00:00	7	Dirección del viento	1.61
118531	7	Sololá	701	Sololá	4	Finca Santa Victoria	7	Julio	2023-07-14T00:00:00	2024-11-08T01:00:00	1	Precipitación	2.4
118532	7	Sololá	701	Sololá	4	Finca Santa Victoria	7	Julio	2023-07-14T00:00:00	2024-11-08T01:00:00	8	Radiación solar	0
118533	7	Sololá	701	Sololá	4	Finca Santa Victoria	7	Julio	2023-07-14T00:00:00	2024-11-08T02:00:00	2	Temperatura media	13.3
118534	7	Sololá	701	Sololá	4	Finca Santa Victoria	7	Julio	2023-07-14T00:00:00	2024-11-08T02:00:00	4	Temperatura máxima	13.4
118535	7	Sololá	701	Sololá	4	Finca Santa Victoria	7	Julio	2023-07-14T00:00:00	2024-11-08T02:00:00	3	Temperatura mínima	12.8
118536	7	Sololá	701	Sololá	4	Finca Santa Victoria	7	Julio	2023-07-14T00:00:00	2024-11-08T02:00:00	5	Humedad	88
118537	7	Sololá	701	Sololá	4	Finca Santa Victoria	7	Julio	2023-07-14T00:00:00	2024-11-08T02:00:00	6	Velocidad del viento	3.2
118538	7	Sololá	701	Sololá	4	Finca Santa Victoria	7	Julio	2023-07-14T00:00:00	2024-11-08T02:00:00	7	Dirección del viento	3.22
118539	7	Sololá	701	Sololá	4	Finca Santa Victoria	7	Julio	2023-07-14T00:00:00	2024-11-08T02:00:00	1	Precipitación	0
118540	7	Sololá	701	Sololá	4	Finca Santa Victoria	7	Julio	2023-07-14T00:00:00	2024-11-08T02:00:00	8	Radiación solar	0
118541	7	Sololá	701	Sololá	4	Finca Santa Victoria	7	Julio	2023-07-14T00:00:00	2024-11-08T03:00:00	2	Temperatura media	13.7
118542	7	Sololá	701	Sololá	4	Finca Santa Victoria	7	Julio	2023-07-14T00:00:00	2024-11-08T03:00:00	4	Temperatura máxima	13.7
118543	7	Sololá	701	Sololá	4	Finca Santa Victoria	7	Julio	2023-07-14T00:00:00	2024-11-08T03:00:00	3	Temperatura mínima	13.3
118544	7	Sololá	701	Sololá	4	Finca Santa Victoria	7	Julio	2023-07-14T00:00:00	2024-11-08T03:00:00	5	Humedad	80
118545	7	Sololá	701	Sololá	4	Finca Santa Victoria	7	Julio	2023-07-14T00:00:00	2024-11-08T03:00:00	6	Velocidad del viento	3.2
118546	7	Sololá	701	Sololá	4	Finca Santa Victoria	7	Julio	2023-07-14T00:00:00	2024-11-08T03:00:00	7	Dirección del viento	3.22
118547	7	Sololá	701	Sololá	4	Finca Santa Victoria	7	Julio	2023-07-14T00:00:00	2024-11-08T03:00:00	1	Precipitación	0
118548	7	Sololá	701	Sololá	4	Finca Santa Victoria	7	Julio	2023-07-14T00:00:00	2024-11-08T03:00:00	8	Radiación solar	0
118549	7	Sololá	701	Sololá	4	Finca Santa Victoria	7	Julio	2023-07-14T00:00:00	2024-11-08T04:00:00	2	Temperatura media	13.6
118550	7	Sololá	701	Sololá	4	Finca Santa Victoria	7	Julio	2023-07-14T00:00:00	2024-11-08T04:00:00	4	Temperatura máxima	13.8
118551	7	Sololá	701	Sololá	4	Finca Santa Victoria	7	Julio	2023-07-14T00:00:00	2024-11-08T04:00:00	3	Temperatura mínima	13.4
118552	7	Sololá	701	Sololá	4	Finca Santa Victoria	7	Julio	2023-07-14T00:00:00	2024-11-08T04:00:00	5	Humedad	83
118553	7	Sololá	701	Sololá	4	Finca Santa Victoria	7	Julio	2023-07-14T00:00:00	2024-11-08T04:00:00	6	Velocidad del viento	3.2
118554	7	Sololá	701	Sololá	4	Finca Santa Victoria	7	Julio	2023-07-14T00:00:00	2024-11-08T04:00:00	7	Dirección del viento	3.22
118555	7	Sololá	701	Sololá	4	Finca Santa Victoria	7	Julio	2023-07-14T00:00:00	2024-11-08T04:00:00	1	Precipitación	0
118556	7	Sololá	701	Sololá	4	Finca Santa Victoria	7	Julio	2023-07-14T00:00:00	2024-11-08T04:00:00	8	Radiación solar	0
118557	7	Sololá	701	Sololá	4	Finca Santa Victoria	7	Julio	2023-07-14T00:00:00	2024-11-08T05:00:00	2	Temperatura media	13.8
118558	7	Sololá	701	Sololá	4	Finca Santa Victoria	7	Julio	2023-07-14T00:00:00	2024-11-08T05:00:00	4	Temperatura máxima	13.9
118559	7	Sololá	701	Sololá	4	Finca Santa Victoria	7	Julio	2023-07-14T00:00:00	2024-11-08T05:00:00	3	Temperatura mínima	13.4
118560	7	Sololá	701	Sololá	4	Finca Santa Victoria	7	Julio	2023-07-14T00:00:00	2024-11-08T05:00:00	5	Humedad	84
118561	7	Sololá	701	Sololá	4	Finca Santa Victoria	7	Julio	2023-07-14T00:00:00	2024-11-08T05:00:00	6	Velocidad del viento	3.2
118562	7	Sololá	701	Sololá	4	Finca Santa Victoria	7	Julio	2023-07-14T00:00:00	2024-11-08T05:00:00	7	Dirección del viento	3.22
118563	7	Sololá	701	Sololá	4	Finca Santa Victoria	7	Julio	2023-07-14T00:00:00	2024-11-08T05:00:00	1	Precipitación	0
118564	7	Sololá	701	Sololá	4	Finca Santa Victoria	7	Julio	2023-07-14T00:00:00	2024-11-08T05:00:00	8	Radiación solar	0
118565	7	Sololá	701	Sololá	4	Finca Santa Victoria	7	Julio	2023-07-14T00:00:00	2024-11-08T06:00:00	2	Temperatura media	13.7
118566	7	Sololá	701	Sololá	4	Finca Santa Victoria	7	Julio	2023-07-14T00:00:00	2024-11-08T06:00:00	4	Temperatura máxima	13.9
118567	7	Sololá	701	Sololá	4	Finca Santa Victoria	7	Julio	2023-07-14T00:00:00	2024-11-08T06:00:00	3	Temperatura mínima	13.7
118568	7	Sololá	701	Sololá	4	Finca Santa Victoria	7	Julio	2023-07-14T00:00:00	2024-11-08T06:00:00	5	Humedad	82
118569	7	Sololá	701	Sololá	4	Finca Santa Victoria	7	Julio	2023-07-14T00:00:00	2024-11-08T06:00:00	6	Velocidad del viento	4.8
118570	7	Sololá	701	Sololá	4	Finca Santa Victoria	7	Julio	2023-07-14T00:00:00	2024-11-08T06:00:00	7	Dirección del viento	4.83
118571	7	Sololá	701	Sololá	4	Finca Santa Victoria	7	Julio	2023-07-14T00:00:00	2024-11-08T06:00:00	1	Precipitación	0
118572	7	Sololá	701	Sololá	4	Finca Santa Victoria	7	Julio	2023-07-14T00:00:00	2024-11-08T06:00:00	8	Radiación solar	2
118573	7	Sololá	701	Sololá	4	Finca Santa Victoria	7	Julio	2023-07-14T00:00:00	2024-11-08T07:00:00	2	Temperatura media	14.2
118574	7	Sololá	701	Sololá	4	Finca Santa Victoria	7	Julio	2023-07-14T00:00:00	2024-11-08T07:00:00	4	Temperatura máxima	14.2
118575	7	Sololá	701	Sololá	4	Finca Santa Victoria	7	Julio	2023-07-14T00:00:00	2024-11-08T07:00:00	3	Temperatura mínima	13.7
118576	7	Sololá	701	Sololá	4	Finca Santa Victoria	7	Julio	2023-07-14T00:00:00	2024-11-08T07:00:00	5	Humedad	80
118577	7	Sololá	701	Sololá	4	Finca Santa Victoria	7	Julio	2023-07-14T00:00:00	2024-11-08T07:00:00	6	Velocidad del viento	3.2
118578	7	Sololá	701	Sololá	4	Finca Santa Victoria	7	Julio	2023-07-14T00:00:00	2024-11-08T07:00:00	7	Dirección del viento	3.22
118579	7	Sololá	701	Sololá	4	Finca Santa Victoria	7	Julio	2023-07-14T00:00:00	2024-11-08T07:00:00	1	Precipitación	0
118580	7	Sololá	701	Sololá	4	Finca Santa Victoria	7	Julio	2023-07-14T00:00:00	2024-11-08T07:00:00	8	Radiación solar	53
118581	7	Sololá	701	Sololá	4	Finca Santa Victoria	7	Julio	2023-07-14T00:00:00	2024-11-08T08:00:00	2	Temperatura media	15.1
118582	7	Sololá	701	Sololá	4	Finca Santa Victoria	7	Julio	2023-07-14T00:00:00	2024-11-08T08:00:00	4	Temperatura máxima	15.1
118583	7	Sololá	701	Sololá	4	Finca Santa Victoria	7	Julio	2023-07-14T00:00:00	2024-11-08T08:00:00	3	Temperatura mínima	14.2
118584	7	Sololá	701	Sololá	4	Finca Santa Victoria	7	Julio	2023-07-14T00:00:00	2024-11-08T08:00:00	5	Humedad	80
118585	7	Sololá	701	Sololá	4	Finca Santa Victoria	7	Julio	2023-07-14T00:00:00	2024-11-08T08:00:00	6	Velocidad del viento	3.2
118586	7	Sololá	701	Sololá	4	Finca Santa Victoria	7	Julio	2023-07-14T00:00:00	2024-11-08T08:00:00	7	Dirección del viento	3.22
118587	7	Sololá	701	Sololá	4	Finca Santa Victoria	7	Julio	2023-07-14T00:00:00	2024-11-08T08:00:00	1	Precipitación	0
118588	7	Sololá	701	Sololá	4	Finca Santa Victoria	7	Julio	2023-07-14T00:00:00	2024-11-08T08:00:00	8	Radiación solar	172
118589	7	Sololá	701	Sololá	4	Finca Santa Victoria	7	Julio	2023-07-14T00:00:00	2024-11-08T09:00:00	2	Temperatura media	15.9
118590	7	Sololá	701	Sololá	4	Finca Santa Victoria	7	Julio	2023-07-14T00:00:00	2024-11-08T09:00:00	4	Temperatura máxima	15.9
118591	7	Sololá	701	Sololá	4	Finca Santa Victoria	7	Julio	2023-07-14T00:00:00	2024-11-08T09:00:00	3	Temperatura mínima	15.1
118592	7	Sololá	701	Sololá	4	Finca Santa Victoria	7	Julio	2023-07-14T00:00:00	2024-11-08T09:00:00	5	Humedad	77
118593	7	Sololá	701	Sololá	4	Finca Santa Victoria	7	Julio	2023-07-14T00:00:00	2024-11-08T09:00:00	6	Velocidad del viento	3.2
118594	7	Sololá	701	Sololá	4	Finca Santa Victoria	7	Julio	2023-07-14T00:00:00	2024-11-08T09:00:00	7	Dirección del viento	3.22
118595	7	Sololá	701	Sololá	4	Finca Santa Victoria	7	Julio	2023-07-14T00:00:00	2024-11-08T09:00:00	1	Precipitación	0
118596	7	Sololá	701	Sololá	4	Finca Santa Victoria	7	Julio	2023-07-14T00:00:00	2024-11-08T09:00:00	8	Radiación solar	254
118597	7	Sololá	701	Sololá	4	Finca Santa Victoria	7	Julio	2023-07-14T00:00:00	2024-11-08T10:00:00	2	Temperatura media	18.4
118598	7	Sololá	701	Sololá	4	Finca Santa Victoria	7	Julio	2023-07-14T00:00:00	2024-11-08T10:00:00	4	Temperatura máxima	18.4
118599	7	Sololá	701	Sololá	4	Finca Santa Victoria	7	Julio	2023-07-14T00:00:00	2024-11-08T10:00:00	3	Temperatura mínima	15.9
118600	7	Sololá	701	Sololá	4	Finca Santa Victoria	7	Julio	2023-07-14T00:00:00	2024-11-08T10:00:00	5	Humedad	69
118601	7	Sololá	701	Sololá	4	Finca Santa Victoria	7	Julio	2023-07-14T00:00:00	2024-11-08T10:00:00	6	Velocidad del viento	4.8
118602	7	Sololá	701	Sololá	4	Finca Santa Victoria	7	Julio	2023-07-14T00:00:00	2024-11-08T10:00:00	7	Dirección del viento	4.83
118603	7	Sololá	701	Sololá	4	Finca Santa Victoria	7	Julio	2023-07-14T00:00:00	2024-11-08T10:00:00	1	Precipitación	0
118604	7	Sololá	701	Sololá	4	Finca Santa Victoria	7	Julio	2023-07-14T00:00:00	2024-11-08T10:00:00	8	Radiación solar	286
118605	7	Sololá	701	Sololá	4	Finca Santa Victoria	7	Julio	2023-07-14T00:00:00	2024-11-08T11:00:00	2	Temperatura media	19.9
118606	7	Sololá	701	Sololá	4	Finca Santa Victoria	7	Julio	2023-07-14T00:00:00	2024-11-08T11:00:00	4	Temperatura máxima	20.2
118607	7	Sololá	701	Sololá	4	Finca Santa Victoria	7	Julio	2023-07-14T00:00:00	2024-11-08T11:00:00	3	Temperatura mínima	18.4
118608	7	Sololá	701	Sololá	4	Finca Santa Victoria	7	Julio	2023-07-14T00:00:00	2024-11-08T11:00:00	5	Humedad	61
118609	7	Sololá	701	Sololá	4	Finca Santa Victoria	7	Julio	2023-07-14T00:00:00	2024-11-08T11:00:00	6	Velocidad del viento	4.8
118610	7	Sololá	701	Sololá	4	Finca Santa Victoria	7	Julio	2023-07-14T00:00:00	2024-11-08T11:00:00	7	Dirección del viento	4.83
118611	7	Sololá	701	Sololá	4	Finca Santa Victoria	7	Julio	2023-07-14T00:00:00	2024-11-08T11:00:00	1	Precipitación	0
118612	7	Sololá	701	Sololá	4	Finca Santa Victoria	7	Julio	2023-07-14T00:00:00	2024-11-08T11:00:00	8	Radiación solar	297
118613	7	Sololá	701	Sololá	4	Finca Santa Victoria	7	Julio	2023-07-14T00:00:00	2024-11-08T12:00:00	2	Temperatura media	21.2
118614	7	Sololá	701	Sololá	4	Finca Santa Victoria	7	Julio	2023-07-14T00:00:00	2024-11-08T12:00:00	4	Temperatura máxima	21.2
118615	7	Sololá	701	Sololá	4	Finca Santa Victoria	7	Julio	2023-07-14T00:00:00	2024-11-08T12:00:00	3	Temperatura mínima	19.9
118616	7	Sololá	701	Sololá	4	Finca Santa Victoria	7	Julio	2023-07-14T00:00:00	2024-11-08T12:00:00	5	Humedad	61
118617	7	Sololá	701	Sololá	4	Finca Santa Victoria	7	Julio	2023-07-14T00:00:00	2024-11-08T12:00:00	6	Velocidad del viento	3.2
118618	7	Sololá	701	Sololá	4	Finca Santa Victoria	7	Julio	2023-07-14T00:00:00	2024-11-08T12:00:00	7	Dirección del viento	3.22
118619	7	Sololá	701	Sololá	4	Finca Santa Victoria	7	Julio	2023-07-14T00:00:00	2024-11-08T12:00:00	1	Precipitación	0
118620	7	Sololá	701	Sololá	4	Finca Santa Victoria	7	Julio	2023-07-14T00:00:00	2024-11-08T12:00:00	8	Radiación solar	865
118621	7	Sololá	701	Sololá	4	Finca Santa Victoria	7	Julio	2023-07-14T00:00:00	2024-11-08T13:00:00	2	Temperatura media	21.6
118622	7	Sololá	701	Sololá	4	Finca Santa Victoria	7	Julio	2023-07-14T00:00:00	2024-11-08T13:00:00	4	Temperatura máxima	21.7
118623	7	Sololá	701	Sololá	4	Finca Santa Victoria	7	Julio	2023-07-14T00:00:00	2024-11-08T13:00:00	3	Temperatura mínima	21.1
118624	7	Sololá	701	Sololá	4	Finca Santa Victoria	7	Julio	2023-07-14T00:00:00	2024-11-08T13:00:00	5	Humedad	62
118625	7	Sololá	701	Sololá	4	Finca Santa Victoria	7	Julio	2023-07-14T00:00:00	2024-11-08T13:00:00	6	Velocidad del viento	3.2
118626	7	Sololá	701	Sololá	4	Finca Santa Victoria	7	Julio	2023-07-14T00:00:00	2024-11-08T13:00:00	7	Dirección del viento	3.22
118627	7	Sololá	701	Sololá	4	Finca Santa Victoria	7	Julio	2023-07-14T00:00:00	2024-11-08T13:00:00	1	Precipitación	0
118628	7	Sololá	701	Sololá	4	Finca Santa Victoria	7	Julio	2023-07-14T00:00:00	2024-11-08T13:00:00	8	Radiación solar	909
118629	7	Sololá	701	Sololá	4	Finca Santa Victoria	7	Julio	2023-07-14T00:00:00	2024-11-08T14:00:00	2	Temperatura media	21.7
118630	7	Sololá	701	Sololá	4	Finca Santa Victoria	7	Julio	2023-07-14T00:00:00	2024-11-08T14:00:00	4	Temperatura máxima	22.1
118631	7	Sololá	701	Sololá	4	Finca Santa Victoria	7	Julio	2023-07-14T00:00:00	2024-11-08T14:00:00	3	Temperatura mínima	21.3
118632	7	Sololá	701	Sololá	4	Finca Santa Victoria	7	Julio	2023-07-14T00:00:00	2024-11-08T14:00:00	5	Humedad	61
118633	7	Sololá	701	Sololá	4	Finca Santa Victoria	7	Julio	2023-07-14T00:00:00	2024-11-08T14:00:00	6	Velocidad del viento	4.8
118634	7	Sololá	701	Sololá	4	Finca Santa Victoria	7	Julio	2023-07-14T00:00:00	2024-11-08T14:00:00	7	Dirección del viento	4.83
118635	7	Sololá	701	Sololá	4	Finca Santa Victoria	7	Julio	2023-07-14T00:00:00	2024-11-08T14:00:00	1	Precipitación	0
118636	7	Sololá	701	Sololá	4	Finca Santa Victoria	7	Julio	2023-07-14T00:00:00	2024-11-08T14:00:00	8	Radiación solar	858
118637	7	Sololá	701	Sololá	4	Finca Santa Victoria	7	Julio	2023-07-14T00:00:00	2024-11-08T15:00:00	2	Temperatura media	20.4
118638	7	Sololá	701	Sololá	4	Finca Santa Victoria	7	Julio	2023-07-14T00:00:00	2024-11-08T15:00:00	4	Temperatura máxima	21.9
118639	7	Sololá	701	Sololá	4	Finca Santa Victoria	7	Julio	2023-07-14T00:00:00	2024-11-08T15:00:00	3	Temperatura mínima	20.4
118640	7	Sololá	701	Sololá	4	Finca Santa Victoria	7	Julio	2023-07-14T00:00:00	2024-11-08T15:00:00	5	Humedad	65
118641	7	Sololá	701	Sololá	4	Finca Santa Victoria	7	Julio	2023-07-14T00:00:00	2024-11-08T15:00:00	6	Velocidad del viento	4.8
118642	7	Sololá	701	Sololá	4	Finca Santa Victoria	7	Julio	2023-07-14T00:00:00	2024-11-08T15:00:00	7	Dirección del viento	4.83
118643	7	Sololá	701	Sololá	4	Finca Santa Victoria	7	Julio	2023-07-14T00:00:00	2024-11-08T15:00:00	1	Precipitación	0
118644	7	Sololá	701	Sololá	4	Finca Santa Victoria	7	Julio	2023-07-14T00:00:00	2024-11-08T15:00:00	8	Radiación solar	341
118645	7	Sololá	701	Sololá	4	Finca Santa Victoria	7	Julio	2023-07-14T00:00:00	2024-11-08T16:00:00	2	Temperatura media	20.3
118646	7	Sololá	701	Sololá	4	Finca Santa Victoria	7	Julio	2023-07-14T00:00:00	2024-11-08T16:00:00	4	Temperatura máxima	21.3
118647	7	Sololá	701	Sololá	4	Finca Santa Victoria	7	Julio	2023-07-14T00:00:00	2024-11-08T16:00:00	3	Temperatura mínima	19.8
118648	7	Sololá	701	Sololá	4	Finca Santa Victoria	7	Julio	2023-07-14T00:00:00	2024-11-08T16:00:00	5	Humedad	66
118649	7	Sololá	701	Sololá	4	Finca Santa Victoria	7	Julio	2023-07-14T00:00:00	2024-11-08T16:00:00	6	Velocidad del viento	4.8
118650	7	Sololá	701	Sololá	4	Finca Santa Victoria	7	Julio	2023-07-14T00:00:00	2024-11-08T16:00:00	7	Dirección del viento	4.83
118651	7	Sololá	701	Sololá	4	Finca Santa Victoria	7	Julio	2023-07-14T00:00:00	2024-11-08T16:00:00	1	Precipitación	0
118652	7	Sololá	701	Sololá	4	Finca Santa Victoria	7	Julio	2023-07-14T00:00:00	2024-11-08T16:00:00	8	Radiación solar	216
118653	7	Sololá	701	Sololá	4	Finca Santa Victoria	7	Julio	2023-07-14T00:00:00	2024-11-08T17:00:00	2	Temperatura media	18.4
118654	7	Sololá	701	Sololá	4	Finca Santa Victoria	7	Julio	2023-07-14T00:00:00	2024-11-08T17:00:00	4	Temperatura máxima	20.4
118655	7	Sololá	701	Sololá	4	Finca Santa Victoria	7	Julio	2023-07-14T00:00:00	2024-11-08T17:00:00	3	Temperatura mínima	18.4
118656	7	Sololá	701	Sololá	4	Finca Santa Victoria	7	Julio	2023-07-14T00:00:00	2024-11-08T17:00:00	5	Humedad	70
118657	7	Sololá	701	Sololá	4	Finca Santa Victoria	7	Julio	2023-07-14T00:00:00	2024-11-08T17:00:00	6	Velocidad del viento	1.6
118658	7	Sololá	701	Sololá	4	Finca Santa Victoria	7	Julio	2023-07-14T00:00:00	2024-11-08T17:00:00	7	Dirección del viento	1.61
118659	7	Sololá	701	Sololá	4	Finca Santa Victoria	7	Julio	2023-07-14T00:00:00	2024-11-08T17:00:00	1	Precipitación	0
118660	7	Sololá	701	Sololá	4	Finca Santa Victoria	7	Julio	2023-07-14T00:00:00	2024-11-08T17:00:00	8	Radiación solar	160
118661	7	Sololá	701	Sololá	4	Finca Santa Victoria	7	Julio	2023-07-14T00:00:00	2024-11-08T18:00:00	2	Temperatura media	17.7
118662	7	Sololá	701	Sololá	4	Finca Santa Victoria	7	Julio	2023-07-14T00:00:00	2024-11-08T18:00:00	4	Temperatura máxima	18.4
118663	7	Sololá	701	Sololá	4	Finca Santa Victoria	7	Julio	2023-07-14T00:00:00	2024-11-08T18:00:00	3	Temperatura mínima	17.6
118664	7	Sololá	701	Sololá	4	Finca Santa Victoria	7	Julio	2023-07-14T00:00:00	2024-11-08T18:00:00	5	Humedad	73
118665	7	Sololá	701	Sololá	4	Finca Santa Victoria	7	Julio	2023-07-14T00:00:00	2024-11-08T18:00:00	6	Velocidad del viento	1.6
118666	7	Sololá	701	Sololá	4	Finca Santa Victoria	7	Julio	2023-07-14T00:00:00	2024-11-08T18:00:00	7	Dirección del viento	1.61
118667	7	Sololá	701	Sololá	4	Finca Santa Victoria	7	Julio	2023-07-14T00:00:00	2024-11-08T18:00:00	1	Precipitación	0
118668	7	Sololá	701	Sololá	4	Finca Santa Victoria	7	Julio	2023-07-14T00:00:00	2024-11-08T18:00:00	8	Radiación solar	66
118669	7	Sololá	701	Sololá	4	Finca Santa Victoria	7	Julio	2023-07-14T00:00:00	2024-11-08T19:00:00	2	Temperatura media	16.3
118670	7	Sololá	701	Sololá	4	Finca Santa Victoria	7	Julio	2023-07-14T00:00:00	2024-11-08T19:00:00	4	Temperatura máxima	17.7
118671	7	Sololá	701	Sololá	4	Finca Santa Victoria	7	Julio	2023-07-14T00:00:00	2024-11-08T19:00:00	3	Temperatura mínima	16.3
118672	7	Sololá	701	Sololá	4	Finca Santa Victoria	7	Julio	2023-07-14T00:00:00	2024-11-08T19:00:00	5	Humedad	80
118673	7	Sololá	701	Sololá	4	Finca Santa Victoria	7	Julio	2023-07-14T00:00:00	2024-11-08T19:00:00	6	Velocidad del viento	1.6
118674	7	Sololá	701	Sololá	4	Finca Santa Victoria	7	Julio	2023-07-14T00:00:00	2024-11-08T19:00:00	7	Dirección del viento	1.61
118675	7	Sololá	701	Sololá	4	Finca Santa Victoria	7	Julio	2023-07-14T00:00:00	2024-11-08T19:00:00	1	Precipitación	0
118676	7	Sololá	701	Sololá	4	Finca Santa Victoria	7	Julio	2023-07-14T00:00:00	2024-11-08T19:00:00	8	Radiación solar	0
118677	7	Sololá	701	Sololá	4	Finca Santa Victoria	7	Julio	2023-07-14T00:00:00	2024-11-08T20:00:00	2	Temperatura media	15.7
118678	7	Sololá	701	Sololá	4	Finca Santa Victoria	7	Julio	2023-07-14T00:00:00	2024-11-08T20:00:00	4	Temperatura máxima	16.3
118679	7	Sololá	701	Sololá	4	Finca Santa Victoria	7	Julio	2023-07-14T00:00:00	2024-11-08T20:00:00	3	Temperatura mínima	15.7
118680	7	Sololá	701	Sololá	4	Finca Santa Victoria	7	Julio	2023-07-14T00:00:00	2024-11-08T20:00:00	5	Humedad	83
118681	7	Sololá	701	Sololá	4	Finca Santa Victoria	7	Julio	2023-07-14T00:00:00	2024-11-08T20:00:00	6	Velocidad del viento	3.2
118682	7	Sololá	701	Sololá	4	Finca Santa Victoria	7	Julio	2023-07-14T00:00:00	2024-11-08T20:00:00	7	Dirección del viento	3.22
118683	7	Sololá	701	Sololá	4	Finca Santa Victoria	7	Julio	2023-07-14T00:00:00	2024-11-08T20:00:00	1	Precipitación	0
118684	7	Sololá	701	Sololá	4	Finca Santa Victoria	7	Julio	2023-07-14T00:00:00	2024-11-08T20:00:00	8	Radiación solar	0
118685	7	Sololá	701	Sololá	4	Finca Santa Victoria	7	Julio	2023-07-14T00:00:00	2024-11-08T21:00:00	2	Temperatura media	15.4
118686	7	Sololá	701	Sololá	4	Finca Santa Victoria	7	Julio	2023-07-14T00:00:00	2024-11-08T21:00:00	4	Temperatura máxima	15.8
118687	7	Sololá	701	Sololá	4	Finca Santa Victoria	7	Julio	2023-07-14T00:00:00	2024-11-08T21:00:00	3	Temperatura mínima	15.4
118688	7	Sololá	701	Sololá	4	Finca Santa Victoria	7	Julio	2023-07-14T00:00:00	2024-11-08T21:00:00	5	Humedad	85
118689	7	Sololá	701	Sololá	4	Finca Santa Victoria	7	Julio	2023-07-14T00:00:00	2024-11-08T21:00:00	6	Velocidad del viento	3.2
118690	7	Sololá	701	Sololá	4	Finca Santa Victoria	7	Julio	2023-07-14T00:00:00	2024-11-08T21:00:00	7	Dirección del viento	3.22
118691	7	Sololá	701	Sololá	4	Finca Santa Victoria	7	Julio	2023-07-14T00:00:00	2024-11-08T21:00:00	1	Precipitación	0
118692	7	Sololá	701	Sololá	4	Finca Santa Victoria	7	Julio	2023-07-14T00:00:00	2024-11-08T21:00:00	8	Radiación solar	0
118693	7	Sololá	701	Sololá	4	Finca Santa Victoria	7	Julio	2023-07-14T00:00:00	2024-11-08T22:00:00	2	Temperatura media	15.3
118694	7	Sololá	701	Sololá	4	Finca Santa Victoria	7	Julio	2023-07-14T00:00:00	2024-11-08T22:00:00	4	Temperatura máxima	15.6
118695	7	Sololá	701	Sololá	4	Finca Santa Victoria	7	Julio	2023-07-14T00:00:00	2024-11-08T22:00:00	3	Temperatura mínima	15.3
118696	7	Sololá	701	Sololá	4	Finca Santa Victoria	7	Julio	2023-07-14T00:00:00	2024-11-08T22:00:00	5	Humedad	81
118697	7	Sololá	701	Sololá	4	Finca Santa Victoria	7	Julio	2023-07-14T00:00:00	2024-11-08T22:00:00	6	Velocidad del viento	3.2
118698	7	Sololá	701	Sololá	4	Finca Santa Victoria	7	Julio	2023-07-14T00:00:00	2024-11-08T22:00:00	7	Dirección del viento	3.22
118699	7	Sololá	701	Sololá	4	Finca Santa Victoria	7	Julio	2023-07-14T00:00:00	2024-11-08T22:00:00	1	Precipitación	0
118700	7	Sololá	701	Sololá	4	Finca Santa Victoria	7	Julio	2023-07-14T00:00:00	2024-11-08T22:00:00	8	Radiación solar	0
118701	7	Sololá	701	Sololá	4	Finca Santa Victoria	7	Julio	2023-07-14T00:00:00	2024-11-08T23:00:00	2	Temperatura media	14.7
118702	7	Sololá	701	Sololá	4	Finca Santa Victoria	7	Julio	2023-07-14T00:00:00	2024-11-08T23:00:00	4	Temperatura máxima	15.3
118703	7	Sololá	701	Sololá	4	Finca Santa Victoria	7	Julio	2023-07-14T00:00:00	2024-11-08T23:00:00	3	Temperatura mínima	14.7
118704	7	Sololá	701	Sololá	4	Finca Santa Victoria	7	Julio	2023-07-14T00:00:00	2024-11-08T23:00:00	5	Humedad	85
118705	7	Sololá	701	Sololá	4	Finca Santa Victoria	7	Julio	2023-07-14T00:00:00	2024-11-08T23:00:00	6	Velocidad del viento	3.2
118706	7	Sololá	701	Sololá	4	Finca Santa Victoria	7	Julio	2023-07-14T00:00:00	2024-11-08T23:00:00	7	Dirección del viento	3.22
118707	7	Sololá	701	Sololá	4	Finca Santa Victoria	7	Julio	2023-07-14T00:00:00	2024-11-08T23:00:00	1	Precipitación	0
118708	7	Sololá	701	Sololá	4	Finca Santa Victoria	7	Julio	2023-07-14T00:00:00	2024-11-08T23:00:00	8	Radiación solar	0
118709	7	Sololá	701	Sololá	4	Finca Santa Victoria	7	Julio	2023-07-15T00:00:00	2024-11-08T00:00:00	2	Temperatura media	14.3
118710	7	Sololá	701	Sololá	4	Finca Santa Victoria	7	Julio	2023-07-15T00:00:00	2024-11-08T00:00:00	4	Temperatura máxima	14.7
118711	7	Sololá	701	Sololá	4	Finca Santa Victoria	7	Julio	2023-07-15T00:00:00	2024-11-08T00:00:00	3	Temperatura mínima	14.3
118712	7	Sololá	701	Sololá	4	Finca Santa Victoria	7	Julio	2023-07-15T00:00:00	2024-11-08T00:00:00	5	Humedad	85
118713	7	Sololá	701	Sololá	4	Finca Santa Victoria	7	Julio	2023-07-15T00:00:00	2024-11-08T00:00:00	6	Velocidad del viento	3.2
118714	7	Sololá	701	Sololá	4	Finca Santa Victoria	7	Julio	2023-07-15T00:00:00	2024-11-08T00:00:00	7	Dirección del viento	3.22
118715	7	Sololá	701	Sololá	4	Finca Santa Victoria	7	Julio	2023-07-15T00:00:00	2024-11-08T00:00:00	1	Precipitación	0
118716	7	Sololá	701	Sololá	4	Finca Santa Victoria	7	Julio	2023-07-15T00:00:00	2024-11-08T00:00:00	8	Radiación solar	0
118717	7	Sololá	701	Sololá	4	Finca Santa Victoria	7	Julio	2023-07-15T00:00:00	2024-11-08T01:00:00	2	Temperatura media	13.8
118718	7	Sololá	701	Sololá	4	Finca Santa Victoria	7	Julio	2023-07-15T00:00:00	2024-11-08T01:00:00	4	Temperatura máxima	14.4
118719	7	Sololá	701	Sololá	4	Finca Santa Victoria	7	Julio	2023-07-15T00:00:00	2024-11-08T01:00:00	3	Temperatura mínima	13.8
118720	7	Sololá	701	Sololá	4	Finca Santa Victoria	7	Julio	2023-07-15T00:00:00	2024-11-08T01:00:00	5	Humedad	87
118721	7	Sololá	701	Sololá	4	Finca Santa Victoria	7	Julio	2023-07-15T00:00:00	2024-11-08T01:00:00	6	Velocidad del viento	1.6
118722	7	Sololá	701	Sololá	4	Finca Santa Victoria	7	Julio	2023-07-15T00:00:00	2024-11-08T01:00:00	7	Dirección del viento	1.61
118723	7	Sololá	701	Sololá	4	Finca Santa Victoria	7	Julio	2023-07-15T00:00:00	2024-11-08T01:00:00	1	Precipitación	0
118724	7	Sololá	701	Sololá	4	Finca Santa Victoria	7	Julio	2023-07-15T00:00:00	2024-11-08T01:00:00	8	Radiación solar	0
118725	7	Sololá	701	Sololá	4	Finca Santa Victoria	7	Julio	2023-07-15T00:00:00	2024-11-08T02:00:00	2	Temperatura media	13.8
118726	7	Sololá	701	Sololá	4	Finca Santa Victoria	7	Julio	2023-07-15T00:00:00	2024-11-08T02:00:00	4	Temperatura máxima	13.9
118727	7	Sololá	701	Sololá	4	Finca Santa Victoria	7	Julio	2023-07-15T00:00:00	2024-11-08T02:00:00	3	Temperatura mínima	13.8
118728	7	Sololá	701	Sololá	4	Finca Santa Victoria	7	Julio	2023-07-15T00:00:00	2024-11-08T02:00:00	5	Humedad	87
118729	7	Sololá	701	Sololá	4	Finca Santa Victoria	7	Julio	2023-07-15T00:00:00	2024-11-08T02:00:00	6	Velocidad del viento	3.2
118730	7	Sololá	701	Sololá	4	Finca Santa Victoria	7	Julio	2023-07-15T00:00:00	2024-11-08T02:00:00	7	Dirección del viento	3.22
118731	7	Sololá	701	Sololá	4	Finca Santa Victoria	7	Julio	2023-07-15T00:00:00	2024-11-08T02:00:00	1	Precipitación	0
118732	7	Sololá	701	Sololá	4	Finca Santa Victoria	7	Julio	2023-07-15T00:00:00	2024-11-08T02:00:00	8	Radiación solar	0
118733	7	Sololá	701	Sololá	4	Finca Santa Victoria	7	Julio	2023-07-15T00:00:00	2024-11-08T03:00:00	2	Temperatura media	13.4
118734	7	Sololá	701	Sololá	4	Finca Santa Victoria	7	Julio	2023-07-15T00:00:00	2024-11-08T03:00:00	4	Temperatura máxima	13.8
118735	7	Sololá	701	Sololá	4	Finca Santa Victoria	7	Julio	2023-07-15T00:00:00	2024-11-08T03:00:00	3	Temperatura mínima	13.4
118736	7	Sololá	701	Sololá	4	Finca Santa Victoria	7	Julio	2023-07-15T00:00:00	2024-11-08T03:00:00	5	Humedad	88
118737	7	Sololá	701	Sololá	4	Finca Santa Victoria	7	Julio	2023-07-15T00:00:00	2024-11-08T03:00:00	6	Velocidad del viento	1.6
118738	7	Sololá	701	Sololá	4	Finca Santa Victoria	7	Julio	2023-07-15T00:00:00	2024-11-08T03:00:00	7	Dirección del viento	1.61
118739	7	Sololá	701	Sololá	4	Finca Santa Victoria	7	Julio	2023-07-15T00:00:00	2024-11-08T03:00:00	1	Precipitación	0
118740	7	Sololá	701	Sololá	4	Finca Santa Victoria	7	Julio	2023-07-15T00:00:00	2024-11-08T03:00:00	8	Radiación solar	0
118741	7	Sololá	701	Sololá	4	Finca Santa Victoria	7	Julio	2023-07-15T00:00:00	2024-11-08T04:00:00	2	Temperatura media	13.7
118742	7	Sololá	701	Sololá	4	Finca Santa Victoria	7	Julio	2023-07-15T00:00:00	2024-11-08T04:00:00	4	Temperatura máxima	13.7
118743	7	Sololá	701	Sololá	4	Finca Santa Victoria	7	Julio	2023-07-15T00:00:00	2024-11-08T04:00:00	3	Temperatura mínima	13.4
118744	7	Sololá	701	Sololá	4	Finca Santa Victoria	7	Julio	2023-07-15T00:00:00	2024-11-08T04:00:00	5	Humedad	88
118745	7	Sololá	701	Sololá	4	Finca Santa Victoria	7	Julio	2023-07-15T00:00:00	2024-11-08T04:00:00	6	Velocidad del viento	1.6
118746	7	Sololá	701	Sololá	4	Finca Santa Victoria	7	Julio	2023-07-15T00:00:00	2024-11-08T04:00:00	7	Dirección del viento	1.61
118747	7	Sololá	701	Sololá	4	Finca Santa Victoria	7	Julio	2023-07-15T00:00:00	2024-11-08T04:00:00	1	Precipitación	0
118748	7	Sololá	701	Sololá	4	Finca Santa Victoria	7	Julio	2023-07-15T00:00:00	2024-11-08T04:00:00	8	Radiación solar	0
118749	7	Sololá	701	Sololá	4	Finca Santa Victoria	7	Julio	2023-07-15T00:00:00	2024-11-08T05:00:00	2	Temperatura media	13.8
118750	7	Sololá	701	Sololá	4	Finca Santa Victoria	7	Julio	2023-07-15T00:00:00	2024-11-08T05:00:00	4	Temperatura máxima	13.9
118751	7	Sololá	701	Sololá	4	Finca Santa Victoria	7	Julio	2023-07-15T00:00:00	2024-11-08T05:00:00	3	Temperatura mínima	13.6
118752	7	Sololá	701	Sololá	4	Finca Santa Victoria	7	Julio	2023-07-15T00:00:00	2024-11-08T05:00:00	5	Humedad	88
118753	7	Sololá	701	Sololá	4	Finca Santa Victoria	7	Julio	2023-07-15T00:00:00	2024-11-08T05:00:00	6	Velocidad del viento	1.6
118754	7	Sololá	701	Sololá	4	Finca Santa Victoria	7	Julio	2023-07-15T00:00:00	2024-11-08T05:00:00	7	Dirección del viento	1.61
118755	7	Sololá	701	Sololá	4	Finca Santa Victoria	7	Julio	2023-07-15T00:00:00	2024-11-08T05:00:00	1	Precipitación	0
118756	7	Sololá	701	Sololá	4	Finca Santa Victoria	7	Julio	2023-07-15T00:00:00	2024-11-08T05:00:00	8	Radiación solar	0
118757	7	Sololá	701	Sololá	4	Finca Santa Victoria	7	Julio	2023-07-15T00:00:00	2024-11-08T06:00:00	2	Temperatura media	13.7
118758	7	Sololá	701	Sololá	4	Finca Santa Victoria	7	Julio	2023-07-15T00:00:00	2024-11-08T06:00:00	4	Temperatura máxima	13.8
118759	7	Sololá	701	Sololá	4	Finca Santa Victoria	7	Julio	2023-07-15T00:00:00	2024-11-08T06:00:00	3	Temperatura mínima	13.7
118760	7	Sololá	701	Sololá	4	Finca Santa Victoria	7	Julio	2023-07-15T00:00:00	2024-11-08T06:00:00	5	Humedad	88
118761	7	Sololá	701	Sololá	4	Finca Santa Victoria	7	Julio	2023-07-15T00:00:00	2024-11-08T06:00:00	6	Velocidad del viento	1.6
118762	7	Sololá	701	Sololá	4	Finca Santa Victoria	7	Julio	2023-07-15T00:00:00	2024-11-08T06:00:00	7	Dirección del viento	1.61
118763	7	Sololá	701	Sololá	4	Finca Santa Victoria	7	Julio	2023-07-15T00:00:00	2024-11-08T06:00:00	1	Precipitación	0
118764	7	Sololá	701	Sololá	4	Finca Santa Victoria	7	Julio	2023-07-15T00:00:00	2024-11-08T06:00:00	8	Radiación solar	0
118765	7	Sololá	701	Sololá	4	Finca Santa Victoria	7	Julio	2023-07-15T00:00:00	2024-11-08T07:00:00	2	Temperatura media	13.8
118766	7	Sololá	701	Sololá	4	Finca Santa Victoria	7	Julio	2023-07-15T00:00:00	2024-11-08T07:00:00	4	Temperatura máxima	13.8
118767	7	Sololá	701	Sololá	4	Finca Santa Victoria	7	Julio	2023-07-15T00:00:00	2024-11-08T07:00:00	3	Temperatura mínima	13.6
118768	7	Sololá	701	Sololá	4	Finca Santa Victoria	7	Julio	2023-07-15T00:00:00	2024-11-08T07:00:00	5	Humedad	90
118769	7	Sololá	701	Sololá	4	Finca Santa Victoria	7	Julio	2023-07-15T00:00:00	2024-11-08T07:00:00	6	Velocidad del viento	1.6
118770	7	Sololá	701	Sololá	4	Finca Santa Victoria	7	Julio	2023-07-15T00:00:00	2024-11-08T07:00:00	7	Dirección del viento	1.61
118771	7	Sololá	701	Sololá	4	Finca Santa Victoria	7	Julio	2023-07-15T00:00:00	2024-11-08T07:00:00	1	Precipitación	0
118772	7	Sololá	701	Sololá	4	Finca Santa Victoria	7	Julio	2023-07-15T00:00:00	2024-11-08T07:00:00	8	Radiación solar	32
118773	7	Sololá	701	Sololá	4	Finca Santa Victoria	7	Julio	2023-07-15T00:00:00	2024-11-08T08:00:00	2	Temperatura media	15.7
118774	7	Sololá	701	Sololá	4	Finca Santa Victoria	7	Julio	2023-07-15T00:00:00	2024-11-08T08:00:00	4	Temperatura máxima	15.7
118775	7	Sololá	701	Sololá	4	Finca Santa Victoria	7	Julio	2023-07-15T00:00:00	2024-11-08T08:00:00	3	Temperatura mínima	13.8
118776	7	Sololá	701	Sololá	4	Finca Santa Victoria	7	Julio	2023-07-15T00:00:00	2024-11-08T08:00:00	5	Humedad	83
118777	7	Sololá	701	Sololá	4	Finca Santa Victoria	7	Julio	2023-07-15T00:00:00	2024-11-08T08:00:00	6	Velocidad del viento	1.6
118778	7	Sololá	701	Sololá	4	Finca Santa Victoria	7	Julio	2023-07-15T00:00:00	2024-11-08T08:00:00	7	Dirección del viento	1.61
118779	7	Sololá	701	Sololá	4	Finca Santa Victoria	7	Julio	2023-07-15T00:00:00	2024-11-08T08:00:00	1	Precipitación	0
118780	7	Sololá	701	Sololá	4	Finca Santa Victoria	7	Julio	2023-07-15T00:00:00	2024-11-08T08:00:00	8	Radiación solar	131
118781	7	Sololá	701	Sololá	4	Finca Santa Victoria	7	Julio	2023-07-15T00:00:00	2024-11-08T09:00:00	2	Temperatura media	17.7
118782	7	Sololá	701	Sololá	4	Finca Santa Victoria	7	Julio	2023-07-15T00:00:00	2024-11-08T09:00:00	4	Temperatura máxima	17.7
118783	7	Sololá	701	Sololá	4	Finca Santa Victoria	7	Julio	2023-07-15T00:00:00	2024-11-08T09:00:00	3	Temperatura mínima	15.7
118784	7	Sololá	701	Sololá	4	Finca Santa Victoria	7	Julio	2023-07-15T00:00:00	2024-11-08T09:00:00	5	Humedad	75
118785	7	Sololá	701	Sololá	4	Finca Santa Victoria	7	Julio	2023-07-15T00:00:00	2024-11-08T09:00:00	6	Velocidad del viento	1.6
118786	7	Sololá	701	Sololá	4	Finca Santa Victoria	7	Julio	2023-07-15T00:00:00	2024-11-08T09:00:00	7	Dirección del viento	1.61
118787	7	Sololá	701	Sololá	4	Finca Santa Victoria	7	Julio	2023-07-15T00:00:00	2024-11-08T09:00:00	1	Precipitación	0
118788	7	Sololá	701	Sololá	4	Finca Santa Victoria	7	Julio	2023-07-15T00:00:00	2024-11-08T09:00:00	8	Radiación solar	248
118789	7	Sololá	701	Sololá	4	Finca Santa Victoria	7	Julio	2023-07-15T00:00:00	2024-11-08T10:00:00	2	Temperatura media	19.3
118790	7	Sololá	701	Sololá	4	Finca Santa Victoria	7	Julio	2023-07-15T00:00:00	2024-11-08T10:00:00	4	Temperatura máxima	19.3
118791	7	Sololá	701	Sololá	4	Finca Santa Victoria	7	Julio	2023-07-15T00:00:00	2024-11-08T10:00:00	3	Temperatura mínima	17.7
118792	7	Sololá	701	Sololá	4	Finca Santa Victoria	7	Julio	2023-07-15T00:00:00	2024-11-08T10:00:00	5	Humedad	71
118793	7	Sololá	701	Sololá	4	Finca Santa Victoria	7	Julio	2023-07-15T00:00:00	2024-11-08T10:00:00	6	Velocidad del viento	1.6
118794	7	Sololá	701	Sololá	4	Finca Santa Victoria	7	Julio	2023-07-15T00:00:00	2024-11-08T10:00:00	7	Dirección del viento	1.61
118795	7	Sololá	701	Sololá	4	Finca Santa Victoria	7	Julio	2023-07-15T00:00:00	2024-11-08T10:00:00	1	Precipitación	0
118796	7	Sololá	701	Sololá	4	Finca Santa Victoria	7	Julio	2023-07-15T00:00:00	2024-11-08T10:00:00	8	Radiación solar	285
118797	7	Sololá	701	Sololá	4	Finca Santa Victoria	7	Julio	2023-07-15T00:00:00	2024-11-08T11:00:00	2	Temperatura media	20.3
118798	7	Sololá	701	Sololá	4	Finca Santa Victoria	7	Julio	2023-07-15T00:00:00	2024-11-08T11:00:00	4	Temperatura máxima	20.3
118799	7	Sololá	701	Sololá	4	Finca Santa Victoria	7	Julio	2023-07-15T00:00:00	2024-11-08T11:00:00	3	Temperatura mínima	19.2
118800	7	Sololá	701	Sololá	4	Finca Santa Victoria	7	Julio	2023-07-15T00:00:00	2024-11-08T11:00:00	5	Humedad	64
118801	7	Sololá	701	Sololá	4	Finca Santa Victoria	7	Julio	2023-07-15T00:00:00	2024-11-08T11:00:00	6	Velocidad del viento	3.2
118802	7	Sololá	701	Sololá	4	Finca Santa Victoria	7	Julio	2023-07-15T00:00:00	2024-11-08T11:00:00	7	Dirección del viento	3.22
118803	7	Sololá	701	Sololá	4	Finca Santa Victoria	7	Julio	2023-07-15T00:00:00	2024-11-08T11:00:00	1	Precipitación	0
118804	7	Sololá	701	Sololá	4	Finca Santa Victoria	7	Julio	2023-07-15T00:00:00	2024-11-08T11:00:00	8	Radiación solar	325
118805	7	Sololá	701	Sololá	4	Finca Santa Victoria	7	Julio	2023-07-15T00:00:00	2024-11-08T12:00:00	2	Temperatura media	20.4
118806	7	Sololá	701	Sololá	4	Finca Santa Victoria	7	Julio	2023-07-15T00:00:00	2024-11-08T12:00:00	4	Temperatura máxima	21
118807	7	Sololá	701	Sololá	4	Finca Santa Victoria	7	Julio	2023-07-15T00:00:00	2024-11-08T12:00:00	3	Temperatura mínima	20
118808	7	Sololá	701	Sololá	4	Finca Santa Victoria	7	Julio	2023-07-15T00:00:00	2024-11-08T12:00:00	5	Humedad	63
118809	7	Sololá	701	Sololá	4	Finca Santa Victoria	7	Julio	2023-07-15T00:00:00	2024-11-08T12:00:00	6	Velocidad del viento	4.8
118810	7	Sololá	701	Sololá	4	Finca Santa Victoria	7	Julio	2023-07-15T00:00:00	2024-11-08T12:00:00	7	Dirección del viento	4.83
118811	7	Sololá	701	Sololá	4	Finca Santa Victoria	7	Julio	2023-07-15T00:00:00	2024-11-08T12:00:00	1	Precipitación	0
118812	7	Sololá	701	Sololá	4	Finca Santa Victoria	7	Julio	2023-07-15T00:00:00	2024-11-08T12:00:00	8	Radiación solar	570
118813	7	Sololá	701	Sololá	4	Finca Santa Victoria	7	Julio	2023-07-15T00:00:00	2024-11-08T13:00:00	2	Temperatura media	21.2
118814	7	Sololá	701	Sololá	4	Finca Santa Victoria	7	Julio	2023-07-15T00:00:00	2024-11-08T13:00:00	4	Temperatura máxima	21.2
118815	7	Sololá	701	Sololá	4	Finca Santa Victoria	7	Julio	2023-07-15T00:00:00	2024-11-08T13:00:00	3	Temperatura mínima	19.6
118816	7	Sololá	701	Sololá	4	Finca Santa Victoria	7	Julio	2023-07-15T00:00:00	2024-11-08T13:00:00	5	Humedad	63
118817	7	Sololá	701	Sololá	4	Finca Santa Victoria	7	Julio	2023-07-15T00:00:00	2024-11-08T13:00:00	6	Velocidad del viento	3.2
118818	7	Sololá	701	Sololá	4	Finca Santa Victoria	7	Julio	2023-07-15T00:00:00	2024-11-08T13:00:00	7	Dirección del viento	3.22
118819	7	Sololá	701	Sololá	4	Finca Santa Victoria	7	Julio	2023-07-15T00:00:00	2024-11-08T13:00:00	1	Precipitación	0
118820	7	Sololá	701	Sololá	4	Finca Santa Victoria	7	Julio	2023-07-15T00:00:00	2024-11-08T13:00:00	8	Radiación solar	374
118821	7	Sololá	701	Sololá	4	Finca Santa Victoria	7	Julio	2023-07-15T00:00:00	2024-11-08T14:00:00	2	Temperatura media	19.9
118822	7	Sololá	701	Sololá	4	Finca Santa Victoria	7	Julio	2023-07-15T00:00:00	2024-11-08T14:00:00	4	Temperatura máxima	21.2
118823	7	Sololá	701	Sololá	4	Finca Santa Victoria	7	Julio	2023-07-15T00:00:00	2024-11-08T14:00:00	3	Temperatura mínima	19.9
118824	7	Sololá	701	Sololá	4	Finca Santa Victoria	7	Julio	2023-07-15T00:00:00	2024-11-08T14:00:00	5	Humedad	70
118825	7	Sololá	701	Sololá	4	Finca Santa Victoria	7	Julio	2023-07-15T00:00:00	2024-11-08T14:00:00	6	Velocidad del viento	1.6
118826	7	Sololá	701	Sololá	4	Finca Santa Victoria	7	Julio	2023-07-15T00:00:00	2024-11-08T14:00:00	7	Dirección del viento	1.61
118827	7	Sololá	701	Sololá	4	Finca Santa Victoria	7	Julio	2023-07-15T00:00:00	2024-11-08T14:00:00	1	Precipitación	0
118828	7	Sololá	701	Sololá	4	Finca Santa Victoria	7	Julio	2023-07-15T00:00:00	2024-11-08T14:00:00	8	Radiación solar	224
118829	7	Sololá	701	Sololá	4	Finca Santa Victoria	7	Julio	2023-07-15T00:00:00	2024-11-08T15:00:00	2	Temperatura media	22.4
118830	7	Sololá	701	Sololá	4	Finca Santa Victoria	7	Julio	2023-07-15T00:00:00	2024-11-08T15:00:00	4	Temperatura máxima	22.5
118831	7	Sololá	701	Sololá	4	Finca Santa Victoria	7	Julio	2023-07-15T00:00:00	2024-11-08T15:00:00	3	Temperatura mínima	19.7
118832	7	Sololá	701	Sololá	4	Finca Santa Victoria	7	Julio	2023-07-15T00:00:00	2024-11-08T15:00:00	5	Humedad	66
118833	7	Sololá	701	Sololá	4	Finca Santa Victoria	7	Julio	2023-07-15T00:00:00	2024-11-08T15:00:00	6	Velocidad del viento	3.2
118834	7	Sololá	701	Sololá	4	Finca Santa Victoria	7	Julio	2023-07-15T00:00:00	2024-11-08T15:00:00	7	Dirección del viento	3.22
118835	7	Sololá	701	Sololá	4	Finca Santa Victoria	7	Julio	2023-07-15T00:00:00	2024-11-08T15:00:00	1	Precipitación	0
118836	7	Sololá	701	Sololá	4	Finca Santa Victoria	7	Julio	2023-07-15T00:00:00	2024-11-08T15:00:00	8	Radiación solar	189
118837	7	Sololá	701	Sololá	4	Finca Santa Victoria	7	Julio	2023-07-15T00:00:00	2024-11-08T16:00:00	2	Temperatura media	18.4
118838	7	Sololá	701	Sololá	4	Finca Santa Victoria	7	Julio	2023-07-15T00:00:00	2024-11-08T16:00:00	4	Temperatura máxima	22.4
118839	7	Sololá	701	Sololá	4	Finca Santa Victoria	7	Julio	2023-07-15T00:00:00	2024-11-08T16:00:00	3	Temperatura mínima	18.4
118840	7	Sololá	701	Sololá	4	Finca Santa Victoria	7	Julio	2023-07-15T00:00:00	2024-11-08T16:00:00	5	Humedad	87
118841	7	Sololá	701	Sololá	4	Finca Santa Victoria	7	Julio	2023-07-15T00:00:00	2024-11-08T16:00:00	6	Velocidad del viento	1.6
118842	7	Sololá	701	Sololá	4	Finca Santa Victoria	7	Julio	2023-07-15T00:00:00	2024-11-08T16:00:00	7	Dirección del viento	1.61
118843	7	Sololá	701	Sololá	4	Finca Santa Victoria	7	Julio	2023-07-15T00:00:00	2024-11-08T16:00:00	1	Precipitación	0
118844	7	Sololá	701	Sololá	4	Finca Santa Victoria	7	Julio	2023-07-15T00:00:00	2024-11-08T16:00:00	8	Radiación solar	154
118845	7	Sololá	701	Sololá	4	Finca Santa Victoria	7	Julio	2023-07-15T00:00:00	2024-11-08T17:00:00	2	Temperatura media	17.4
118846	7	Sololá	701	Sololá	4	Finca Santa Victoria	7	Julio	2023-07-15T00:00:00	2024-11-08T17:00:00	4	Temperatura máxima	19.3
118847	7	Sololá	701	Sololá	4	Finca Santa Victoria	7	Julio	2023-07-15T00:00:00	2024-11-08T17:00:00	3	Temperatura mínima	17.4
118848	7	Sololá	701	Sololá	4	Finca Santa Victoria	7	Julio	2023-07-15T00:00:00	2024-11-08T17:00:00	5	Humedad	91
118849	7	Sololá	701	Sololá	4	Finca Santa Victoria	7	Julio	2023-07-15T00:00:00	2024-11-08T17:00:00	6	Velocidad del viento	1.6
118850	7	Sololá	701	Sololá	4	Finca Santa Victoria	7	Julio	2023-07-15T00:00:00	2024-11-08T17:00:00	7	Dirección del viento	1.61
118851	7	Sololá	701	Sololá	4	Finca Santa Victoria	7	Julio	2023-07-15T00:00:00	2024-11-08T17:00:00	1	Precipitación	0
118852	7	Sololá	701	Sololá	4	Finca Santa Victoria	7	Julio	2023-07-15T00:00:00	2024-11-08T17:00:00	8	Radiación solar	93
118853	7	Sololá	701	Sololá	4	Finca Santa Victoria	7	Julio	2023-07-15T00:00:00	2024-11-08T18:00:00	2	Temperatura media	16.4
118854	7	Sololá	701	Sololá	4	Finca Santa Victoria	7	Julio	2023-07-15T00:00:00	2024-11-08T18:00:00	4	Temperatura máxima	17.4
118855	7	Sololá	701	Sololá	4	Finca Santa Victoria	7	Julio	2023-07-15T00:00:00	2024-11-08T18:00:00	3	Temperatura mínima	16.4
118856	7	Sololá	701	Sololá	4	Finca Santa Victoria	7	Julio	2023-07-15T00:00:00	2024-11-08T18:00:00	5	Humedad	90
118857	7	Sololá	701	Sololá	4	Finca Santa Victoria	7	Julio	2023-07-15T00:00:00	2024-11-08T18:00:00	6	Velocidad del viento	1.6
118858	7	Sololá	701	Sololá	4	Finca Santa Victoria	7	Julio	2023-07-15T00:00:00	2024-11-08T18:00:00	7	Dirección del viento	1.61
118859	7	Sololá	701	Sololá	4	Finca Santa Victoria	7	Julio	2023-07-15T00:00:00	2024-11-08T18:00:00	1	Precipitación	0
118860	7	Sololá	701	Sololá	4	Finca Santa Victoria	7	Julio	2023-07-15T00:00:00	2024-11-08T18:00:00	8	Radiación solar	36
118861	7	Sololá	701	Sololá	4	Finca Santa Victoria	7	Julio	2023-07-15T00:00:00	2024-11-08T19:00:00	2	Temperatura media	15.8
118862	7	Sololá	701	Sololá	4	Finca Santa Victoria	7	Julio	2023-07-15T00:00:00	2024-11-08T19:00:00	4	Temperatura máxima	16.4
118863	7	Sololá	701	Sololá	4	Finca Santa Victoria	7	Julio	2023-07-15T00:00:00	2024-11-08T19:00:00	3	Temperatura mínima	15.8
118864	7	Sololá	701	Sololá	4	Finca Santa Victoria	7	Julio	2023-07-15T00:00:00	2024-11-08T19:00:00	5	Humedad	85
118865	7	Sololá	701	Sololá	4	Finca Santa Victoria	7	Julio	2023-07-15T00:00:00	2024-11-08T19:00:00	6	Velocidad del viento	1.6
118866	7	Sololá	701	Sololá	4	Finca Santa Victoria	7	Julio	2023-07-15T00:00:00	2024-11-08T19:00:00	7	Dirección del viento	1.61
118867	7	Sololá	701	Sololá	4	Finca Santa Victoria	7	Julio	2023-07-15T00:00:00	2024-11-08T19:00:00	1	Precipitación	0
118868	7	Sololá	701	Sololá	4	Finca Santa Victoria	7	Julio	2023-07-15T00:00:00	2024-11-08T19:00:00	8	Radiación solar	0
118869	7	Sololá	701	Sololá	4	Finca Santa Victoria	7	Julio	2023-07-15T00:00:00	2024-11-08T20:00:00	2	Temperatura media	15.4
118870	7	Sololá	701	Sololá	4	Finca Santa Victoria	7	Julio	2023-07-15T00:00:00	2024-11-08T20:00:00	4	Temperatura máxima	15.8
118871	7	Sololá	701	Sololá	4	Finca Santa Victoria	7	Julio	2023-07-15T00:00:00	2024-11-08T20:00:00	3	Temperatura mínima	15.4
118872	7	Sololá	701	Sololá	4	Finca Santa Victoria	7	Julio	2023-07-15T00:00:00	2024-11-08T20:00:00	5	Humedad	88
118873	7	Sololá	701	Sololá	4	Finca Santa Victoria	7	Julio	2023-07-15T00:00:00	2024-11-08T20:00:00	6	Velocidad del viento	1.6
118874	7	Sololá	701	Sololá	4	Finca Santa Victoria	7	Julio	2023-07-15T00:00:00	2024-11-08T20:00:00	7	Dirección del viento	1.61
118875	7	Sololá	701	Sololá	4	Finca Santa Victoria	7	Julio	2023-07-15T00:00:00	2024-11-08T20:00:00	1	Precipitación	0
118876	7	Sololá	701	Sololá	4	Finca Santa Victoria	7	Julio	2023-07-15T00:00:00	2024-11-08T20:00:00	8	Radiación solar	0
118877	7	Sololá	701	Sololá	4	Finca Santa Victoria	7	Julio	2023-07-15T00:00:00	2024-11-08T21:00:00	2	Temperatura media	15.1
118878	7	Sololá	701	Sololá	4	Finca Santa Victoria	7	Julio	2023-07-15T00:00:00	2024-11-08T21:00:00	4	Temperatura máxima	15.4
118879	7	Sololá	701	Sololá	4	Finca Santa Victoria	7	Julio	2023-07-15T00:00:00	2024-11-08T21:00:00	3	Temperatura mínima	15.1
118880	7	Sololá	701	Sololá	4	Finca Santa Victoria	7	Julio	2023-07-15T00:00:00	2024-11-08T21:00:00	5	Humedad	86
118881	7	Sololá	701	Sololá	4	Finca Santa Victoria	7	Julio	2023-07-15T00:00:00	2024-11-08T21:00:00	6	Velocidad del viento	1.6
118882	7	Sololá	701	Sololá	4	Finca Santa Victoria	7	Julio	2023-07-15T00:00:00	2024-11-08T21:00:00	7	Dirección del viento	1.61
118883	7	Sololá	701	Sololá	4	Finca Santa Victoria	7	Julio	2023-07-15T00:00:00	2024-11-08T21:00:00	1	Precipitación	0
118884	7	Sololá	701	Sololá	4	Finca Santa Victoria	7	Julio	2023-07-15T00:00:00	2024-11-08T21:00:00	8	Radiación solar	0
118885	7	Sololá	701	Sololá	4	Finca Santa Victoria	7	Julio	2023-07-15T00:00:00	2024-11-08T22:00:00	2	Temperatura media	14.7
118886	7	Sololá	701	Sololá	4	Finca Santa Victoria	7	Julio	2023-07-15T00:00:00	2024-11-08T22:00:00	4	Temperatura máxima	15.1
118887	7	Sololá	701	Sololá	4	Finca Santa Victoria	7	Julio	2023-07-15T00:00:00	2024-11-08T22:00:00	3	Temperatura mínima	14.6
118888	7	Sololá	701	Sololá	4	Finca Santa Victoria	7	Julio	2023-07-15T00:00:00	2024-11-08T22:00:00	5	Humedad	86
118889	7	Sololá	701	Sololá	4	Finca Santa Victoria	7	Julio	2023-07-15T00:00:00	2024-11-08T22:00:00	6	Velocidad del viento	3.2
118890	7	Sololá	701	Sololá	4	Finca Santa Victoria	7	Julio	2023-07-15T00:00:00	2024-11-08T22:00:00	7	Dirección del viento	3.22
118891	7	Sololá	701	Sololá	4	Finca Santa Victoria	7	Julio	2023-07-15T00:00:00	2024-11-08T22:00:00	1	Precipitación	0
118892	7	Sololá	701	Sololá	4	Finca Santa Victoria	7	Julio	2023-07-15T00:00:00	2024-11-08T22:00:00	8	Radiación solar	0
118893	7	Sololá	701	Sololá	4	Finca Santa Victoria	7	Julio	2023-07-15T00:00:00	2024-11-08T23:00:00	2	Temperatura media	14.5
118894	7	Sololá	701	Sololá	4	Finca Santa Victoria	7	Julio	2023-07-15T00:00:00	2024-11-08T23:00:00	4	Temperatura máxima	14.8
118895	7	Sololá	701	Sololá	4	Finca Santa Victoria	7	Julio	2023-07-15T00:00:00	2024-11-08T23:00:00	3	Temperatura mínima	14.4
118896	7	Sololá	701	Sololá	4	Finca Santa Victoria	7	Julio	2023-07-15T00:00:00	2024-11-08T23:00:00	5	Humedad	86
118897	7	Sololá	701	Sololá	4	Finca Santa Victoria	7	Julio	2023-07-15T00:00:00	2024-11-08T23:00:00	6	Velocidad del viento	3.2
118898	7	Sololá	701	Sololá	4	Finca Santa Victoria	7	Julio	2023-07-15T00:00:00	2024-11-08T23:00:00	7	Dirección del viento	3.22
118899	7	Sololá	701	Sololá	4	Finca Santa Victoria	7	Julio	2023-07-15T00:00:00	2024-11-08T23:00:00	1	Precipitación	0
118900	7	Sololá	701	Sololá	4	Finca Santa Victoria	7	Julio	2023-07-15T00:00:00	2024-11-08T23:00:00	8	Radiación solar	0
118901	7	Sololá	701	Sololá	4	Finca Santa Victoria	7	Julio	2023-07-16T00:00:00	2024-11-08T00:00:00	2	Temperatura media	14.5
118902	7	Sololá	701	Sololá	4	Finca Santa Victoria	7	Julio	2023-07-16T00:00:00	2024-11-08T00:00:00	4	Temperatura máxima	14.7
118903	7	Sololá	701	Sololá	4	Finca Santa Victoria	7	Julio	2023-07-16T00:00:00	2024-11-08T00:00:00	3	Temperatura mínima	14.4
118904	7	Sololá	701	Sololá	4	Finca Santa Victoria	7	Julio	2023-07-16T00:00:00	2024-11-08T00:00:00	5	Humedad	87
118905	7	Sololá	701	Sololá	4	Finca Santa Victoria	7	Julio	2023-07-16T00:00:00	2024-11-08T00:00:00	6	Velocidad del viento	1.6
118906	7	Sololá	701	Sololá	4	Finca Santa Victoria	7	Julio	2023-07-16T00:00:00	2024-11-08T00:00:00	7	Dirección del viento	1.61
118907	7	Sololá	701	Sololá	4	Finca Santa Victoria	7	Julio	2023-07-16T00:00:00	2024-11-08T00:00:00	1	Precipitación	0
118908	7	Sololá	701	Sololá	4	Finca Santa Victoria	7	Julio	2023-07-16T00:00:00	2024-11-08T00:00:00	8	Radiación solar	0
118909	7	Sololá	701	Sololá	4	Finca Santa Victoria	7	Julio	2023-07-16T00:00:00	2024-11-08T01:00:00	2	Temperatura media	14.7
118910	7	Sololá	701	Sololá	4	Finca Santa Victoria	7	Julio	2023-07-16T00:00:00	2024-11-08T01:00:00	4	Temperatura máxima	14.8
118911	7	Sololá	701	Sololá	4	Finca Santa Victoria	7	Julio	2023-07-16T00:00:00	2024-11-08T01:00:00	3	Temperatura mínima	14.4
118912	7	Sololá	701	Sololá	4	Finca Santa Victoria	7	Julio	2023-07-16T00:00:00	2024-11-08T01:00:00	5	Humedad	87
118913	7	Sololá	701	Sololá	4	Finca Santa Victoria	7	Julio	2023-07-16T00:00:00	2024-11-08T01:00:00	6	Velocidad del viento	1.6
118914	7	Sololá	701	Sololá	4	Finca Santa Victoria	7	Julio	2023-07-16T00:00:00	2024-11-08T01:00:00	7	Dirección del viento	1.61
118915	7	Sololá	701	Sololá	4	Finca Santa Victoria	7	Julio	2023-07-16T00:00:00	2024-11-08T01:00:00	1	Precipitación	0
118916	7	Sololá	701	Sololá	4	Finca Santa Victoria	7	Julio	2023-07-16T00:00:00	2024-11-08T01:00:00	8	Radiación solar	0
118917	7	Sololá	701	Sololá	4	Finca Santa Victoria	7	Julio	2023-07-16T00:00:00	2024-11-08T02:00:00	2	Temperatura media	13.7
118918	7	Sololá	701	Sololá	4	Finca Santa Victoria	7	Julio	2023-07-16T00:00:00	2024-11-08T02:00:00	4	Temperatura máxima	14.7
118919	7	Sololá	701	Sololá	4	Finca Santa Victoria	7	Julio	2023-07-16T00:00:00	2024-11-08T02:00:00	3	Temperatura mínima	13.7
118920	7	Sololá	701	Sololá	4	Finca Santa Victoria	7	Julio	2023-07-16T00:00:00	2024-11-08T02:00:00	5	Humedad	94
118921	7	Sololá	701	Sololá	4	Finca Santa Victoria	7	Julio	2023-07-16T00:00:00	2024-11-08T02:00:00	6	Velocidad del viento	1.6
118922	7	Sololá	701	Sololá	4	Finca Santa Victoria	7	Julio	2023-07-16T00:00:00	2024-11-08T02:00:00	7	Dirección del viento	1.61
118923	7	Sololá	701	Sololá	4	Finca Santa Victoria	7	Julio	2023-07-16T00:00:00	2024-11-08T02:00:00	1	Precipitación	1
118924	7	Sololá	701	Sololá	4	Finca Santa Victoria	7	Julio	2023-07-16T00:00:00	2024-11-08T02:00:00	8	Radiación solar	0
118925	7	Sololá	701	Sololá	4	Finca Santa Victoria	7	Julio	2023-07-16T00:00:00	2024-11-08T03:00:00	2	Temperatura media	13.2
118926	7	Sololá	701	Sololá	4	Finca Santa Victoria	7	Julio	2023-07-16T00:00:00	2024-11-08T03:00:00	4	Temperatura máxima	13.7
118927	7	Sololá	701	Sololá	4	Finca Santa Victoria	7	Julio	2023-07-16T00:00:00	2024-11-08T03:00:00	3	Temperatura mínima	13.2
118928	7	Sololá	701	Sololá	4	Finca Santa Victoria	7	Julio	2023-07-16T00:00:00	2024-11-08T03:00:00	5	Humedad	94
118929	7	Sololá	701	Sololá	4	Finca Santa Victoria	7	Julio	2023-07-16T00:00:00	2024-11-08T03:00:00	6	Velocidad del viento	0
118930	7	Sololá	701	Sololá	4	Finca Santa Victoria	7	Julio	2023-07-16T00:00:00	2024-11-08T03:00:00	7	Dirección del viento	0
118931	7	Sololá	701	Sololá	4	Finca Santa Victoria	7	Julio	2023-07-16T00:00:00	2024-11-08T03:00:00	1	Precipitación	0
118932	7	Sololá	701	Sololá	4	Finca Santa Victoria	7	Julio	2023-07-16T00:00:00	2024-11-08T03:00:00	8	Radiación solar	0
118933	7	Sololá	701	Sololá	4	Finca Santa Victoria	7	Julio	2023-07-16T00:00:00	2024-11-08T04:00:00	2	Temperatura media	13.4
118934	7	Sololá	701	Sololá	4	Finca Santa Victoria	7	Julio	2023-07-16T00:00:00	2024-11-08T04:00:00	4	Temperatura máxima	13.5
118935	7	Sololá	701	Sololá	4	Finca Santa Victoria	7	Julio	2023-07-16T00:00:00	2024-11-08T04:00:00	3	Temperatura mínima	13.2
118936	7	Sololá	701	Sololá	4	Finca Santa Victoria	7	Julio	2023-07-16T00:00:00	2024-11-08T04:00:00	5	Humedad	93
118937	7	Sololá	701	Sololá	4	Finca Santa Victoria	7	Julio	2023-07-16T00:00:00	2024-11-08T04:00:00	6	Velocidad del viento	3.2
118938	7	Sololá	701	Sololá	4	Finca Santa Victoria	7	Julio	2023-07-16T00:00:00	2024-11-08T04:00:00	7	Dirección del viento	3.22
118939	7	Sololá	701	Sololá	4	Finca Santa Victoria	7	Julio	2023-07-16T00:00:00	2024-11-08T04:00:00	1	Precipitación	0
118940	7	Sololá	701	Sololá	4	Finca Santa Victoria	7	Julio	2023-07-16T00:00:00	2024-11-08T04:00:00	8	Radiación solar	0
118941	7	Sololá	701	Sololá	4	Finca Santa Victoria	7	Julio	2023-07-16T00:00:00	2024-11-08T05:00:00	2	Temperatura media	13.8
118942	7	Sololá	701	Sololá	4	Finca Santa Victoria	7	Julio	2023-07-16T00:00:00	2024-11-08T05:00:00	4	Temperatura máxima	13.8
118943	7	Sololá	701	Sololá	4	Finca Santa Victoria	7	Julio	2023-07-16T00:00:00	2024-11-08T05:00:00	3	Temperatura mínima	13.4
118944	7	Sololá	701	Sololá	4	Finca Santa Victoria	7	Julio	2023-07-16T00:00:00	2024-11-08T05:00:00	5	Humedad	91
118945	7	Sololá	701	Sololá	4	Finca Santa Victoria	7	Julio	2023-07-16T00:00:00	2024-11-08T05:00:00	6	Velocidad del viento	3.2
118946	7	Sololá	701	Sololá	4	Finca Santa Victoria	7	Julio	2023-07-16T00:00:00	2024-11-08T05:00:00	7	Dirección del viento	3.22
118947	7	Sololá	701	Sololá	4	Finca Santa Victoria	7	Julio	2023-07-16T00:00:00	2024-11-08T05:00:00	1	Precipitación	0
118948	7	Sololá	701	Sololá	4	Finca Santa Victoria	7	Julio	2023-07-16T00:00:00	2024-11-08T05:00:00	8	Radiación solar	0
118949	7	Sololá	701	Sololá	4	Finca Santa Victoria	7	Julio	2023-07-16T00:00:00	2024-11-08T06:00:00	2	Temperatura media	14.1
118950	7	Sololá	701	Sololá	4	Finca Santa Victoria	7	Julio	2023-07-16T00:00:00	2024-11-08T06:00:00	4	Temperatura máxima	14.1
118951	7	Sololá	701	Sololá	4	Finca Santa Victoria	7	Julio	2023-07-16T00:00:00	2024-11-08T06:00:00	3	Temperatura mínima	13.8
118952	7	Sololá	701	Sololá	4	Finca Santa Victoria	7	Julio	2023-07-16T00:00:00	2024-11-08T06:00:00	5	Humedad	90
118953	7	Sololá	701	Sololá	4	Finca Santa Victoria	7	Julio	2023-07-16T00:00:00	2024-11-08T06:00:00	6	Velocidad del viento	3.2
118954	7	Sololá	701	Sololá	4	Finca Santa Victoria	7	Julio	2023-07-16T00:00:00	2024-11-08T06:00:00	7	Dirección del viento	3.22
118955	7	Sololá	701	Sololá	4	Finca Santa Victoria	7	Julio	2023-07-16T00:00:00	2024-11-08T06:00:00	1	Precipitación	0
118956	7	Sololá	701	Sololá	4	Finca Santa Victoria	7	Julio	2023-07-16T00:00:00	2024-11-08T06:00:00	8	Radiación solar	1
118957	7	Sololá	701	Sololá	4	Finca Santa Victoria	7	Julio	2023-07-16T00:00:00	2024-11-08T07:00:00	2	Temperatura media	14.9
118958	7	Sololá	701	Sololá	4	Finca Santa Victoria	7	Julio	2023-07-16T00:00:00	2024-11-08T07:00:00	4	Temperatura máxima	14.9
118959	7	Sololá	701	Sololá	4	Finca Santa Victoria	7	Julio	2023-07-16T00:00:00	2024-11-08T07:00:00	3	Temperatura mínima	14
118960	7	Sololá	701	Sololá	4	Finca Santa Victoria	7	Julio	2023-07-16T00:00:00	2024-11-08T07:00:00	5	Humedad	87
118961	7	Sololá	701	Sololá	4	Finca Santa Victoria	7	Julio	2023-07-16T00:00:00	2024-11-08T07:00:00	6	Velocidad del viento	3.2
118962	7	Sololá	701	Sololá	4	Finca Santa Victoria	7	Julio	2023-07-16T00:00:00	2024-11-08T07:00:00	7	Dirección del viento	3.22
118963	7	Sololá	701	Sololá	4	Finca Santa Victoria	7	Julio	2023-07-16T00:00:00	2024-11-08T07:00:00	1	Precipitación	0
118964	7	Sololá	701	Sololá	4	Finca Santa Victoria	7	Julio	2023-07-16T00:00:00	2024-11-08T07:00:00	8	Radiación solar	54
118965	7	Sololá	701	Sololá	4	Finca Santa Victoria	7	Julio	2023-07-16T00:00:00	2024-11-08T08:00:00	2	Temperatura media	15.6
118966	7	Sololá	701	Sololá	4	Finca Santa Victoria	7	Julio	2023-07-16T00:00:00	2024-11-08T08:00:00	4	Temperatura máxima	15.6
118967	7	Sololá	701	Sololá	4	Finca Santa Victoria	7	Julio	2023-07-16T00:00:00	2024-11-08T08:00:00	3	Temperatura mínima	14.9
118968	7	Sololá	701	Sololá	4	Finca Santa Victoria	7	Julio	2023-07-16T00:00:00	2024-11-08T08:00:00	5	Humedad	85
118969	7	Sololá	701	Sololá	4	Finca Santa Victoria	7	Julio	2023-07-16T00:00:00	2024-11-08T08:00:00	6	Velocidad del viento	3.2
118970	7	Sololá	701	Sololá	4	Finca Santa Victoria	7	Julio	2023-07-16T00:00:00	2024-11-08T08:00:00	7	Dirección del viento	3.22
118971	7	Sololá	701	Sololá	4	Finca Santa Victoria	7	Julio	2023-07-16T00:00:00	2024-11-08T08:00:00	1	Precipitación	0
118972	7	Sololá	701	Sololá	4	Finca Santa Victoria	7	Julio	2023-07-16T00:00:00	2024-11-08T08:00:00	8	Radiación solar	122
118973	7	Sololá	701	Sololá	4	Finca Santa Victoria	7	Julio	2023-07-16T00:00:00	2024-11-08T09:00:00	2	Temperatura media	16.2
118974	7	Sololá	701	Sololá	4	Finca Santa Victoria	7	Julio	2023-07-16T00:00:00	2024-11-08T09:00:00	4	Temperatura máxima	16.3
118975	7	Sololá	701	Sololá	4	Finca Santa Victoria	7	Julio	2023-07-16T00:00:00	2024-11-08T09:00:00	3	Temperatura mínima	15.6
118976	7	Sololá	701	Sololá	4	Finca Santa Victoria	7	Julio	2023-07-16T00:00:00	2024-11-08T09:00:00	5	Humedad	81
118977	7	Sololá	701	Sololá	4	Finca Santa Victoria	7	Julio	2023-07-16T00:00:00	2024-11-08T09:00:00	6	Velocidad del viento	3.2
118978	7	Sololá	701	Sololá	4	Finca Santa Victoria	7	Julio	2023-07-16T00:00:00	2024-11-08T09:00:00	7	Dirección del viento	3.22
118979	7	Sololá	701	Sololá	4	Finca Santa Victoria	7	Julio	2023-07-16T00:00:00	2024-11-08T09:00:00	1	Precipitación	0
118980	7	Sololá	701	Sololá	4	Finca Santa Victoria	7	Julio	2023-07-16T00:00:00	2024-11-08T09:00:00	8	Radiación solar	136
118981	7	Sololá	701	Sololá	4	Finca Santa Victoria	7	Julio	2023-07-16T00:00:00	2024-11-08T10:00:00	2	Temperatura media	18.3
118982	7	Sololá	701	Sololá	4	Finca Santa Victoria	7	Julio	2023-07-16T00:00:00	2024-11-08T10:00:00	4	Temperatura máxima	18.3
118983	7	Sololá	701	Sololá	4	Finca Santa Victoria	7	Julio	2023-07-16T00:00:00	2024-11-08T10:00:00	3	Temperatura mínima	16.2
118984	7	Sololá	701	Sololá	4	Finca Santa Victoria	7	Julio	2023-07-16T00:00:00	2024-11-08T10:00:00	5	Humedad	77
118985	7	Sololá	701	Sololá	4	Finca Santa Victoria	7	Julio	2023-07-16T00:00:00	2024-11-08T10:00:00	6	Velocidad del viento	4.8
118986	7	Sololá	701	Sololá	4	Finca Santa Victoria	7	Julio	2023-07-16T00:00:00	2024-11-08T10:00:00	7	Dirección del viento	4.83
118987	7	Sololá	701	Sololá	4	Finca Santa Victoria	7	Julio	2023-07-16T00:00:00	2024-11-08T10:00:00	1	Precipitación	0
118988	7	Sololá	701	Sololá	4	Finca Santa Victoria	7	Julio	2023-07-16T00:00:00	2024-11-08T10:00:00	8	Radiación solar	211
118989	7	Sololá	701	Sololá	4	Finca Santa Victoria	7	Julio	2023-07-16T00:00:00	2024-11-08T11:00:00	2	Temperatura media	19.2
118990	7	Sololá	701	Sololá	4	Finca Santa Victoria	7	Julio	2023-07-16T00:00:00	2024-11-08T11:00:00	4	Temperatura máxima	19.4
118991	7	Sololá	701	Sololá	4	Finca Santa Victoria	7	Julio	2023-07-16T00:00:00	2024-11-08T11:00:00	3	Temperatura mínima	18.3
118992	7	Sololá	701	Sololá	4	Finca Santa Victoria	7	Julio	2023-07-16T00:00:00	2024-11-08T11:00:00	5	Humedad	74
118993	7	Sololá	701	Sololá	4	Finca Santa Victoria	7	Julio	2023-07-16T00:00:00	2024-11-08T11:00:00	6	Velocidad del viento	4.8
118994	7	Sololá	701	Sololá	4	Finca Santa Victoria	7	Julio	2023-07-16T00:00:00	2024-11-08T11:00:00	7	Dirección del viento	4.83
118995	7	Sololá	701	Sololá	4	Finca Santa Victoria	7	Julio	2023-07-16T00:00:00	2024-11-08T11:00:00	1	Precipitación	0
118996	7	Sololá	701	Sololá	4	Finca Santa Victoria	7	Julio	2023-07-16T00:00:00	2024-11-08T11:00:00	8	Radiación solar	241
118997	7	Sololá	701	Sololá	4	Finca Santa Victoria	7	Julio	2023-07-16T00:00:00	2024-11-08T12:00:00	2	Temperatura media	20.6
118998	7	Sololá	701	Sololá	4	Finca Santa Victoria	7	Julio	2023-07-16T00:00:00	2024-11-08T12:00:00	4	Temperatura máxima	21.4
118999	7	Sololá	701	Sololá	4	Finca Santa Victoria	7	Julio	2023-07-16T00:00:00	2024-11-08T12:00:00	3	Temperatura mínima	18.8
119000	7	Sololá	701	Sololá	4	Finca Santa Victoria	7	Julio	2023-07-16T00:00:00	2024-11-08T12:00:00	5	Humedad	69
119001	7	Sololá	701	Sololá	4	Finca Santa Victoria	7	Julio	2023-07-16T00:00:00	2024-11-08T12:00:00	6	Velocidad del viento	4.8
119002	7	Sololá	701	Sololá	4	Finca Santa Victoria	7	Julio	2023-07-16T00:00:00	2024-11-08T12:00:00	7	Dirección del viento	4.83
119003	7	Sololá	701	Sololá	4	Finca Santa Victoria	7	Julio	2023-07-16T00:00:00	2024-11-08T12:00:00	1	Precipitación	0
119004	7	Sololá	701	Sololá	4	Finca Santa Victoria	7	Julio	2023-07-16T00:00:00	2024-11-08T12:00:00	8	Radiación solar	478
119005	7	Sololá	701	Sololá	4	Finca Santa Victoria	7	Julio	2023-07-16T00:00:00	2024-11-08T13:00:00	2	Temperatura media	19.5
119006	7	Sololá	701	Sololá	4	Finca Santa Victoria	7	Julio	2023-07-16T00:00:00	2024-11-08T13:00:00	4	Temperatura máxima	20.4
119007	7	Sololá	701	Sololá	4	Finca Santa Victoria	7	Julio	2023-07-16T00:00:00	2024-11-08T13:00:00	3	Temperatura mínima	19.2
119008	7	Sololá	701	Sololá	4	Finca Santa Victoria	7	Julio	2023-07-16T00:00:00	2024-11-08T13:00:00	5	Humedad	74
119009	7	Sololá	701	Sololá	4	Finca Santa Victoria	7	Julio	2023-07-16T00:00:00	2024-11-08T13:00:00	6	Velocidad del viento	3.2
119010	7	Sololá	701	Sololá	4	Finca Santa Victoria	7	Julio	2023-07-16T00:00:00	2024-11-08T13:00:00	7	Dirección del viento	3.22
119011	7	Sololá	701	Sololá	4	Finca Santa Victoria	7	Julio	2023-07-16T00:00:00	2024-11-08T13:00:00	1	Precipitación	0
119012	7	Sololá	701	Sololá	4	Finca Santa Victoria	7	Julio	2023-07-16T00:00:00	2024-11-08T13:00:00	8	Radiación solar	293
119013	7	Sololá	701	Sololá	4	Finca Santa Victoria	7	Julio	2023-07-16T00:00:00	2024-11-08T14:00:00	2	Temperatura media	20.8
119014	7	Sololá	701	Sololá	4	Finca Santa Victoria	7	Julio	2023-07-16T00:00:00	2024-11-08T14:00:00	4	Temperatura máxima	20.9
119015	7	Sololá	701	Sololá	4	Finca Santa Victoria	7	Julio	2023-07-16T00:00:00	2024-11-08T14:00:00	3	Temperatura mínima	19.4
119016	7	Sololá	701	Sololá	4	Finca Santa Victoria	7	Julio	2023-07-16T00:00:00	2024-11-08T14:00:00	5	Humedad	68
119017	7	Sololá	701	Sololá	4	Finca Santa Victoria	7	Julio	2023-07-16T00:00:00	2024-11-08T14:00:00	6	Velocidad del viento	3.2
119018	7	Sololá	701	Sololá	4	Finca Santa Victoria	7	Julio	2023-07-16T00:00:00	2024-11-08T14:00:00	7	Dirección del viento	3.22
119019	7	Sololá	701	Sololá	4	Finca Santa Victoria	7	Julio	2023-07-16T00:00:00	2024-11-08T14:00:00	1	Precipitación	0
119020	7	Sololá	701	Sololá	4	Finca Santa Victoria	7	Julio	2023-07-16T00:00:00	2024-11-08T14:00:00	8	Radiación solar	370
119021	7	Sololá	701	Sololá	4	Finca Santa Victoria	7	Julio	2023-07-16T00:00:00	2024-11-08T15:00:00	2	Temperatura media	19.9
119022	7	Sololá	701	Sololá	4	Finca Santa Victoria	7	Julio	2023-07-16T00:00:00	2024-11-08T15:00:00	4	Temperatura máxima	20.8
119023	7	Sololá	701	Sololá	4	Finca Santa Victoria	7	Julio	2023-07-16T00:00:00	2024-11-08T15:00:00	3	Temperatura mínima	19.8
119024	7	Sololá	701	Sololá	4	Finca Santa Victoria	7	Julio	2023-07-16T00:00:00	2024-11-08T15:00:00	5	Humedad	70
119025	7	Sololá	701	Sololá	4	Finca Santa Victoria	7	Julio	2023-07-16T00:00:00	2024-11-08T15:00:00	6	Velocidad del viento	4.8
119026	7	Sololá	701	Sololá	4	Finca Santa Victoria	7	Julio	2023-07-16T00:00:00	2024-11-08T15:00:00	7	Dirección del viento	4.83
119027	7	Sololá	701	Sololá	4	Finca Santa Victoria	7	Julio	2023-07-16T00:00:00	2024-11-08T15:00:00	1	Precipitación	0
119028	7	Sololá	701	Sololá	4	Finca Santa Victoria	7	Julio	2023-07-16T00:00:00	2024-11-08T15:00:00	8	Radiación solar	241
119029	7	Sololá	701	Sololá	4	Finca Santa Victoria	7	Julio	2023-07-16T00:00:00	2024-11-08T16:00:00	2	Temperatura media	17.1
119030	7	Sololá	701	Sololá	4	Finca Santa Victoria	7	Julio	2023-07-16T00:00:00	2024-11-08T16:00:00	4	Temperatura máxima	19.9
119031	7	Sololá	701	Sololá	4	Finca Santa Victoria	7	Julio	2023-07-16T00:00:00	2024-11-08T16:00:00	3	Temperatura mínima	17
119032	7	Sololá	701	Sololá	4	Finca Santa Victoria	7	Julio	2023-07-16T00:00:00	2024-11-08T16:00:00	5	Humedad	80
119033	7	Sololá	701	Sololá	4	Finca Santa Victoria	7	Julio	2023-07-16T00:00:00	2024-11-08T16:00:00	6	Velocidad del viento	3.2
119034	7	Sololá	701	Sololá	4	Finca Santa Victoria	7	Julio	2023-07-16T00:00:00	2024-11-08T16:00:00	7	Dirección del viento	3.22
119035	7	Sololá	701	Sololá	4	Finca Santa Victoria	7	Julio	2023-07-16T00:00:00	2024-11-08T16:00:00	1	Precipitación	0
119036	7	Sololá	701	Sololá	4	Finca Santa Victoria	7	Julio	2023-07-16T00:00:00	2024-11-08T16:00:00	8	Radiación solar	45
119037	7	Sololá	701	Sololá	4	Finca Santa Victoria	7	Julio	2023-07-16T00:00:00	2024-11-08T17:00:00	2	Temperatura media	15.7
119038	7	Sololá	701	Sololá	4	Finca Santa Victoria	7	Julio	2023-07-16T00:00:00	2024-11-08T17:00:00	4	Temperatura máxima	17
119039	7	Sololá	701	Sololá	4	Finca Santa Victoria	7	Julio	2023-07-16T00:00:00	2024-11-08T17:00:00	3	Temperatura mínima	15.6
119040	7	Sololá	701	Sololá	4	Finca Santa Victoria	7	Julio	2023-07-16T00:00:00	2024-11-08T17:00:00	5	Humedad	89
119041	7	Sololá	701	Sololá	4	Finca Santa Victoria	7	Julio	2023-07-16T00:00:00	2024-11-08T17:00:00	6	Velocidad del viento	1.6
119042	7	Sololá	701	Sololá	4	Finca Santa Victoria	7	Julio	2023-07-16T00:00:00	2024-11-08T17:00:00	7	Dirección del viento	1.61
119043	7	Sololá	701	Sololá	4	Finca Santa Victoria	7	Julio	2023-07-16T00:00:00	2024-11-08T17:00:00	1	Precipitación	0
119044	7	Sololá	701	Sololá	4	Finca Santa Victoria	7	Julio	2023-07-16T00:00:00	2024-11-08T17:00:00	8	Radiación solar	4
119045	7	Sololá	701	Sololá	4	Finca Santa Victoria	7	Julio	2023-07-16T00:00:00	2024-11-08T18:00:00	2	Temperatura media	14.3
119046	7	Sololá	701	Sololá	4	Finca Santa Victoria	7	Julio	2023-07-16T00:00:00	2024-11-08T18:00:00	4	Temperatura máxima	15.7
119047	7	Sololá	701	Sololá	4	Finca Santa Victoria	7	Julio	2023-07-16T00:00:00	2024-11-08T18:00:00	3	Temperatura mínima	14.3
119048	7	Sololá	701	Sololá	4	Finca Santa Victoria	7	Julio	2023-07-16T00:00:00	2024-11-08T18:00:00	5	Humedad	91
119049	7	Sololá	701	Sololá	4	Finca Santa Victoria	7	Julio	2023-07-16T00:00:00	2024-11-08T18:00:00	6	Velocidad del viento	1.6
119050	7	Sololá	701	Sololá	4	Finca Santa Victoria	7	Julio	2023-07-16T00:00:00	2024-11-08T18:00:00	7	Dirección del viento	1.61
119051	7	Sololá	701	Sololá	4	Finca Santa Victoria	7	Julio	2023-07-16T00:00:00	2024-11-08T18:00:00	1	Precipitación	1
119052	7	Sololá	701	Sololá	4	Finca Santa Victoria	7	Julio	2023-07-16T00:00:00	2024-11-08T18:00:00	8	Radiación solar	0
119053	7	Sololá	701	Sololá	4	Finca Santa Victoria	7	Julio	2023-07-16T00:00:00	2024-11-08T19:00:00	2	Temperatura media	14.3
119054	7	Sololá	701	Sololá	4	Finca Santa Victoria	7	Julio	2023-07-16T00:00:00	2024-11-08T19:00:00	4	Temperatura máxima	14.4
119055	7	Sololá	701	Sololá	4	Finca Santa Victoria	7	Julio	2023-07-16T00:00:00	2024-11-08T19:00:00	3	Temperatura mínima	14.1
119056	7	Sololá	701	Sololá	4	Finca Santa Victoria	7	Julio	2023-07-16T00:00:00	2024-11-08T19:00:00	5	Humedad	94
119057	7	Sololá	701	Sololá	4	Finca Santa Victoria	7	Julio	2023-07-16T00:00:00	2024-11-08T19:00:00	6	Velocidad del viento	1.6
119058	7	Sololá	701	Sololá	4	Finca Santa Victoria	7	Julio	2023-07-16T00:00:00	2024-11-08T19:00:00	7	Dirección del viento	1.61
119059	7	Sololá	701	Sololá	4	Finca Santa Victoria	7	Julio	2023-07-16T00:00:00	2024-11-08T19:00:00	1	Precipitación	0
119060	7	Sololá	701	Sololá	4	Finca Santa Victoria	7	Julio	2023-07-16T00:00:00	2024-11-08T19:00:00	8	Radiación solar	0
119061	7	Sololá	701	Sololá	4	Finca Santa Victoria	7	Julio	2023-07-16T00:00:00	2024-11-08T20:00:00	2	Temperatura media	14.4
119062	7	Sololá	701	Sololá	4	Finca Santa Victoria	7	Julio	2023-07-16T00:00:00	2024-11-08T20:00:00	4	Temperatura máxima	14.4
119063	7	Sololá	701	Sololá	4	Finca Santa Victoria	7	Julio	2023-07-16T00:00:00	2024-11-08T20:00:00	3	Temperatura mínima	14.2
119064	7	Sololá	701	Sololá	4	Finca Santa Victoria	7	Julio	2023-07-16T00:00:00	2024-11-08T20:00:00	5	Humedad	87
119065	7	Sololá	701	Sololá	4	Finca Santa Victoria	7	Julio	2023-07-16T00:00:00	2024-11-08T20:00:00	6	Velocidad del viento	3.2
119066	7	Sololá	701	Sololá	4	Finca Santa Victoria	7	Julio	2023-07-16T00:00:00	2024-11-08T20:00:00	7	Dirección del viento	3.22
119067	7	Sololá	701	Sololá	4	Finca Santa Victoria	7	Julio	2023-07-16T00:00:00	2024-11-08T20:00:00	1	Precipitación	0
119068	7	Sololá	701	Sololá	4	Finca Santa Victoria	7	Julio	2023-07-16T00:00:00	2024-11-08T20:00:00	8	Radiación solar	0
119069	7	Sololá	701	Sololá	4	Finca Santa Victoria	7	Julio	2023-07-16T00:00:00	2024-11-08T21:00:00	2	Temperatura media	14.2
119070	7	Sololá	701	Sololá	4	Finca Santa Victoria	7	Julio	2023-07-16T00:00:00	2024-11-08T21:00:00	4	Temperatura máxima	14.4
119071	7	Sololá	701	Sololá	4	Finca Santa Victoria	7	Julio	2023-07-16T00:00:00	2024-11-08T21:00:00	3	Temperatura mínima	14.1
119072	7	Sololá	701	Sololá	4	Finca Santa Victoria	7	Julio	2023-07-16T00:00:00	2024-11-08T21:00:00	5	Humedad	84
119073	7	Sololá	701	Sololá	4	Finca Santa Victoria	7	Julio	2023-07-16T00:00:00	2024-11-08T21:00:00	6	Velocidad del viento	4.8
119074	7	Sololá	701	Sololá	4	Finca Santa Victoria	7	Julio	2023-07-16T00:00:00	2024-11-08T21:00:00	7	Dirección del viento	4.83
119075	7	Sololá	701	Sololá	4	Finca Santa Victoria	7	Julio	2023-07-16T00:00:00	2024-11-08T21:00:00	1	Precipitación	0
119076	7	Sololá	701	Sololá	4	Finca Santa Victoria	7	Julio	2023-07-16T00:00:00	2024-11-08T21:00:00	8	Radiación solar	0
119077	7	Sololá	701	Sololá	4	Finca Santa Victoria	7	Julio	2023-07-16T00:00:00	2024-11-08T22:00:00	2	Temperatura media	14.3
119078	7	Sololá	701	Sololá	4	Finca Santa Victoria	7	Julio	2023-07-16T00:00:00	2024-11-08T22:00:00	4	Temperatura máxima	14.4
119079	7	Sololá	701	Sololá	4	Finca Santa Victoria	7	Julio	2023-07-16T00:00:00	2024-11-08T22:00:00	3	Temperatura mínima	14.1
119080	7	Sololá	701	Sololá	4	Finca Santa Victoria	7	Julio	2023-07-16T00:00:00	2024-11-08T22:00:00	5	Humedad	85
119081	7	Sololá	701	Sololá	4	Finca Santa Victoria	7	Julio	2023-07-16T00:00:00	2024-11-08T22:00:00	6	Velocidad del viento	4.8
119082	7	Sololá	701	Sololá	4	Finca Santa Victoria	7	Julio	2023-07-16T00:00:00	2024-11-08T22:00:00	7	Dirección del viento	4.83
119083	7	Sololá	701	Sololá	4	Finca Santa Victoria	7	Julio	2023-07-16T00:00:00	2024-11-08T22:00:00	1	Precipitación	0
119084	7	Sololá	701	Sololá	4	Finca Santa Victoria	7	Julio	2023-07-16T00:00:00	2024-11-08T22:00:00	8	Radiación solar	0
119085	7	Sololá	701	Sololá	4	Finca Santa Victoria	7	Julio	2023-07-16T00:00:00	2024-11-08T23:00:00	2	Temperatura media	14.3
119086	7	Sololá	701	Sololá	4	Finca Santa Victoria	7	Julio	2023-07-16T00:00:00	2024-11-08T23:00:00	4	Temperatura máxima	14.6
119087	7	Sololá	701	Sololá	4	Finca Santa Victoria	7	Julio	2023-07-16T00:00:00	2024-11-08T23:00:00	3	Temperatura mínima	14.2
119088	7	Sololá	701	Sololá	4	Finca Santa Victoria	7	Julio	2023-07-16T00:00:00	2024-11-08T23:00:00	5	Humedad	83
119089	7	Sololá	701	Sololá	4	Finca Santa Victoria	7	Julio	2023-07-16T00:00:00	2024-11-08T23:00:00	6	Velocidad del viento	3.2
119090	7	Sololá	701	Sololá	4	Finca Santa Victoria	7	Julio	2023-07-16T00:00:00	2024-11-08T23:00:00	7	Dirección del viento	3.22
119091	7	Sololá	701	Sololá	4	Finca Santa Victoria	7	Julio	2023-07-16T00:00:00	2024-11-08T23:00:00	1	Precipitación	0
119092	7	Sololá	701	Sololá	4	Finca Santa Victoria	7	Julio	2023-07-16T00:00:00	2024-11-08T23:00:00	8	Radiación solar	0
119093	7	Sololá	701	Sololá	4	Finca Santa Victoria	7	Julio	2023-07-17T00:00:00	2024-11-08T00:00:00	2	Temperatura media	14.1
119094	7	Sololá	701	Sololá	4	Finca Santa Victoria	7	Julio	2023-07-17T00:00:00	2024-11-08T00:00:00	4	Temperatura máxima	14.4
119095	7	Sololá	701	Sololá	4	Finca Santa Victoria	7	Julio	2023-07-17T00:00:00	2024-11-08T00:00:00	3	Temperatura mínima	14.1
119096	7	Sololá	701	Sololá	4	Finca Santa Victoria	7	Julio	2023-07-17T00:00:00	2024-11-08T00:00:00	5	Humedad	82
119097	7	Sololá	701	Sololá	4	Finca Santa Victoria	7	Julio	2023-07-17T00:00:00	2024-11-08T00:00:00	6	Velocidad del viento	3.2
119098	7	Sololá	701	Sololá	4	Finca Santa Victoria	7	Julio	2023-07-17T00:00:00	2024-11-08T00:00:00	7	Dirección del viento	3.22
119099	7	Sololá	701	Sololá	4	Finca Santa Victoria	7	Julio	2023-07-17T00:00:00	2024-11-08T00:00:00	1	Precipitación	0
119100	7	Sololá	701	Sololá	4	Finca Santa Victoria	7	Julio	2023-07-17T00:00:00	2024-11-08T00:00:00	8	Radiación solar	0
119101	7	Sololá	701	Sololá	4	Finca Santa Victoria	7	Julio	2023-07-17T00:00:00	2024-11-08T01:00:00	2	Temperatura media	14.1
119102	7	Sololá	701	Sololá	4	Finca Santa Victoria	7	Julio	2023-07-17T00:00:00	2024-11-08T01:00:00	4	Temperatura máxima	14.2
119103	7	Sololá	701	Sololá	4	Finca Santa Victoria	7	Julio	2023-07-17T00:00:00	2024-11-08T01:00:00	3	Temperatura mínima	14
119104	7	Sololá	701	Sololá	4	Finca Santa Victoria	7	Julio	2023-07-17T00:00:00	2024-11-08T01:00:00	5	Humedad	84
119105	7	Sololá	701	Sololá	4	Finca Santa Victoria	7	Julio	2023-07-17T00:00:00	2024-11-08T01:00:00	6	Velocidad del viento	4.8
119106	7	Sololá	701	Sololá	4	Finca Santa Victoria	7	Julio	2023-07-17T00:00:00	2024-11-08T01:00:00	7	Dirección del viento	4.83
119107	7	Sololá	701	Sololá	4	Finca Santa Victoria	7	Julio	2023-07-17T00:00:00	2024-11-08T01:00:00	1	Precipitación	0
119108	7	Sololá	701	Sololá	4	Finca Santa Victoria	7	Julio	2023-07-17T00:00:00	2024-11-08T01:00:00	8	Radiación solar	0
119109	7	Sololá	701	Sololá	4	Finca Santa Victoria	7	Julio	2023-07-17T00:00:00	2024-11-08T02:00:00	2	Temperatura media	14.2
119110	7	Sololá	701	Sololá	4	Finca Santa Victoria	7	Julio	2023-07-17T00:00:00	2024-11-08T02:00:00	4	Temperatura máxima	14.5
119111	7	Sololá	701	Sololá	4	Finca Santa Victoria	7	Julio	2023-07-17T00:00:00	2024-11-08T02:00:00	3	Temperatura mínima	14
119112	7	Sololá	701	Sololá	4	Finca Santa Victoria	7	Julio	2023-07-17T00:00:00	2024-11-08T02:00:00	5	Humedad	84
119113	7	Sololá	701	Sololá	4	Finca Santa Victoria	7	Julio	2023-07-17T00:00:00	2024-11-08T02:00:00	6	Velocidad del viento	4.8
119114	7	Sololá	701	Sololá	4	Finca Santa Victoria	7	Julio	2023-07-17T00:00:00	2024-11-08T02:00:00	7	Dirección del viento	4.83
119115	7	Sololá	701	Sololá	4	Finca Santa Victoria	7	Julio	2023-07-17T00:00:00	2024-11-08T02:00:00	1	Precipitación	0
119116	7	Sololá	701	Sololá	4	Finca Santa Victoria	7	Julio	2023-07-17T00:00:00	2024-11-08T02:00:00	8	Radiación solar	0
119117	7	Sololá	701	Sololá	4	Finca Santa Victoria	7	Julio	2023-07-17T00:00:00	2024-11-08T03:00:00	2	Temperatura media	14
119118	7	Sololá	701	Sololá	4	Finca Santa Victoria	7	Julio	2023-07-17T00:00:00	2024-11-08T03:00:00	4	Temperatura máxima	14.2
119119	7	Sololá	701	Sololá	4	Finca Santa Victoria	7	Julio	2023-07-17T00:00:00	2024-11-08T03:00:00	3	Temperatura mínima	13.9
119120	7	Sololá	701	Sololá	4	Finca Santa Victoria	7	Julio	2023-07-17T00:00:00	2024-11-08T03:00:00	5	Humedad	86
119121	7	Sololá	701	Sololá	4	Finca Santa Victoria	7	Julio	2023-07-17T00:00:00	2024-11-08T03:00:00	6	Velocidad del viento	1.6
119122	7	Sololá	701	Sololá	4	Finca Santa Victoria	7	Julio	2023-07-17T00:00:00	2024-11-08T03:00:00	7	Dirección del viento	1.61
119123	7	Sololá	701	Sololá	4	Finca Santa Victoria	7	Julio	2023-07-17T00:00:00	2024-11-08T03:00:00	1	Precipitación	0
119124	7	Sololá	701	Sololá	4	Finca Santa Victoria	7	Julio	2023-07-17T00:00:00	2024-11-08T03:00:00	8	Radiación solar	0
119125	7	Sololá	701	Sololá	4	Finca Santa Victoria	7	Julio	2023-07-17T00:00:00	2024-11-08T04:00:00	2	Temperatura media	14.1
119126	7	Sololá	701	Sololá	4	Finca Santa Victoria	7	Julio	2023-07-17T00:00:00	2024-11-08T04:00:00	4	Temperatura máxima	14.1
119127	7	Sololá	701	Sololá	4	Finca Santa Victoria	7	Julio	2023-07-17T00:00:00	2024-11-08T04:00:00	3	Temperatura mínima	13.9
119128	7	Sololá	701	Sololá	4	Finca Santa Victoria	7	Julio	2023-07-17T00:00:00	2024-11-08T04:00:00	5	Humedad	83
119129	7	Sololá	701	Sololá	4	Finca Santa Victoria	7	Julio	2023-07-17T00:00:00	2024-11-08T04:00:00	6	Velocidad del viento	3.2
119130	7	Sololá	701	Sololá	4	Finca Santa Victoria	7	Julio	2023-07-17T00:00:00	2024-11-08T04:00:00	7	Dirección del viento	3.22
119131	7	Sololá	701	Sololá	4	Finca Santa Victoria	7	Julio	2023-07-17T00:00:00	2024-11-08T04:00:00	1	Precipitación	0
119132	7	Sololá	701	Sololá	4	Finca Santa Victoria	7	Julio	2023-07-17T00:00:00	2024-11-08T04:00:00	8	Radiación solar	0
119133	7	Sololá	701	Sololá	4	Finca Santa Victoria	7	Julio	2023-07-17T00:00:00	2024-11-08T05:00:00	2	Temperatura media	13.6
119134	7	Sololá	701	Sololá	4	Finca Santa Victoria	7	Julio	2023-07-17T00:00:00	2024-11-08T05:00:00	4	Temperatura máxima	14.1
119135	7	Sololá	701	Sololá	4	Finca Santa Victoria	7	Julio	2023-07-17T00:00:00	2024-11-08T05:00:00	3	Temperatura mínima	13.6
119136	7	Sololá	701	Sololá	4	Finca Santa Victoria	7	Julio	2023-07-17T00:00:00	2024-11-08T05:00:00	5	Humedad	83
119137	7	Sololá	701	Sololá	4	Finca Santa Victoria	7	Julio	2023-07-17T00:00:00	2024-11-08T05:00:00	6	Velocidad del viento	3.2
119138	7	Sololá	701	Sololá	4	Finca Santa Victoria	7	Julio	2023-07-17T00:00:00	2024-11-08T05:00:00	7	Dirección del viento	3.22
119139	7	Sololá	701	Sololá	4	Finca Santa Victoria	7	Julio	2023-07-17T00:00:00	2024-11-08T05:00:00	1	Precipitación	0
119140	7	Sololá	701	Sololá	4	Finca Santa Victoria	7	Julio	2023-07-17T00:00:00	2024-11-08T05:00:00	8	Radiación solar	0
119141	7	Sololá	701	Sololá	4	Finca Santa Victoria	7	Julio	2023-07-17T00:00:00	2024-11-08T06:00:00	2	Temperatura media	13.4
119142	7	Sololá	701	Sololá	4	Finca Santa Victoria	7	Julio	2023-07-17T00:00:00	2024-11-08T06:00:00	4	Temperatura máxima	13.7
119143	7	Sololá	701	Sololá	4	Finca Santa Victoria	7	Julio	2023-07-17T00:00:00	2024-11-08T06:00:00	3	Temperatura mínima	13.3
119144	7	Sololá	701	Sololá	4	Finca Santa Victoria	7	Julio	2023-07-17T00:00:00	2024-11-08T06:00:00	5	Humedad	82
119145	7	Sololá	701	Sololá	4	Finca Santa Victoria	7	Julio	2023-07-17T00:00:00	2024-11-08T06:00:00	6	Velocidad del viento	4.8
119146	7	Sololá	701	Sololá	4	Finca Santa Victoria	7	Julio	2023-07-17T00:00:00	2024-11-08T06:00:00	7	Dirección del viento	4.83
119147	7	Sololá	701	Sololá	4	Finca Santa Victoria	7	Julio	2023-07-17T00:00:00	2024-11-08T06:00:00	1	Precipitación	0
119148	7	Sololá	701	Sololá	4	Finca Santa Victoria	7	Julio	2023-07-17T00:00:00	2024-11-08T06:00:00	8	Radiación solar	1
119149	7	Sololá	701	Sololá	4	Finca Santa Victoria	7	Julio	2023-07-17T00:00:00	2024-11-08T07:00:00	2	Temperatura media	13.7
119150	7	Sololá	701	Sololá	4	Finca Santa Victoria	7	Julio	2023-07-17T00:00:00	2024-11-08T07:00:00	4	Temperatura máxima	13.7
119151	7	Sololá	701	Sololá	4	Finca Santa Victoria	7	Julio	2023-07-17T00:00:00	2024-11-08T07:00:00	3	Temperatura mínima	13.2
119152	7	Sololá	701	Sololá	4	Finca Santa Victoria	7	Julio	2023-07-17T00:00:00	2024-11-08T07:00:00	5	Humedad	80
119153	7	Sololá	701	Sololá	4	Finca Santa Victoria	7	Julio	2023-07-17T00:00:00	2024-11-08T07:00:00	6	Velocidad del viento	4.8
119154	7	Sololá	701	Sololá	4	Finca Santa Victoria	7	Julio	2023-07-17T00:00:00	2024-11-08T07:00:00	7	Dirección del viento	4.83
119155	7	Sololá	701	Sololá	4	Finca Santa Victoria	7	Julio	2023-07-17T00:00:00	2024-11-08T07:00:00	1	Precipitación	0
119156	7	Sololá	701	Sololá	4	Finca Santa Victoria	7	Julio	2023-07-17T00:00:00	2024-11-08T07:00:00	8	Radiación solar	19
119157	7	Sololá	701	Sololá	4	Finca Santa Victoria	7	Julio	2023-07-17T00:00:00	2024-11-08T08:00:00	2	Temperatura media	15.7
119158	7	Sololá	701	Sololá	4	Finca Santa Victoria	7	Julio	2023-07-17T00:00:00	2024-11-08T08:00:00	4	Temperatura máxima	15.8
119159	7	Sololá	701	Sololá	4	Finca Santa Victoria	7	Julio	2023-07-17T00:00:00	2024-11-08T08:00:00	3	Temperatura mínima	13.7
119160	7	Sololá	701	Sololá	4	Finca Santa Victoria	7	Julio	2023-07-17T00:00:00	2024-11-08T08:00:00	5	Humedad	74
119161	7	Sololá	701	Sololá	4	Finca Santa Victoria	7	Julio	2023-07-17T00:00:00	2024-11-08T08:00:00	6	Velocidad del viento	3.2
119162	7	Sololá	701	Sololá	4	Finca Santa Victoria	7	Julio	2023-07-17T00:00:00	2024-11-08T08:00:00	7	Dirección del viento	3.22
119163	7	Sololá	701	Sololá	4	Finca Santa Victoria	7	Julio	2023-07-17T00:00:00	2024-11-08T08:00:00	1	Precipitación	0
119164	7	Sololá	701	Sololá	4	Finca Santa Victoria	7	Julio	2023-07-17T00:00:00	2024-11-08T08:00:00	8	Radiación solar	228
119165	7	Sololá	701	Sololá	4	Finca Santa Victoria	7	Julio	2023-07-17T00:00:00	2024-11-08T09:00:00	2	Temperatura media	17
119166	7	Sololá	701	Sololá	4	Finca Santa Victoria	7	Julio	2023-07-17T00:00:00	2024-11-08T09:00:00	4	Temperatura máxima	17
119167	7	Sololá	701	Sololá	4	Finca Santa Victoria	7	Julio	2023-07-17T00:00:00	2024-11-08T09:00:00	3	Temperatura mínima	15.4
119168	7	Sololá	701	Sololá	4	Finca Santa Victoria	7	Julio	2023-07-17T00:00:00	2024-11-08T09:00:00	5	Humedad	69
119169	7	Sololá	701	Sololá	4	Finca Santa Victoria	7	Julio	2023-07-17T00:00:00	2024-11-08T09:00:00	6	Velocidad del viento	3.2
119170	7	Sololá	701	Sololá	4	Finca Santa Victoria	7	Julio	2023-07-17T00:00:00	2024-11-08T09:00:00	7	Dirección del viento	3.22
119171	7	Sololá	701	Sololá	4	Finca Santa Victoria	7	Julio	2023-07-17T00:00:00	2024-11-08T09:00:00	1	Precipitación	0
119172	7	Sololá	701	Sololá	4	Finca Santa Victoria	7	Julio	2023-07-17T00:00:00	2024-11-08T09:00:00	8	Radiación solar	357
119173	7	Sololá	701	Sololá	4	Finca Santa Victoria	7	Julio	2023-07-17T00:00:00	2024-11-08T10:00:00	2	Temperatura media	17.6
119174	7	Sololá	701	Sololá	4	Finca Santa Victoria	7	Julio	2023-07-17T00:00:00	2024-11-08T10:00:00	4	Temperatura máxima	17.6
119175	7	Sololá	701	Sololá	4	Finca Santa Victoria	7	Julio	2023-07-17T00:00:00	2024-11-08T10:00:00	3	Temperatura mínima	16.9
119176	7	Sololá	701	Sololá	4	Finca Santa Victoria	7	Julio	2023-07-17T00:00:00	2024-11-08T10:00:00	5	Humedad	70
119177	7	Sololá	701	Sololá	4	Finca Santa Victoria	7	Julio	2023-07-17T00:00:00	2024-11-08T10:00:00	6	Velocidad del viento	6.4
119178	7	Sololá	701	Sololá	4	Finca Santa Victoria	7	Julio	2023-07-17T00:00:00	2024-11-08T10:00:00	7	Dirección del viento	6.44
119179	7	Sololá	701	Sololá	4	Finca Santa Victoria	7	Julio	2023-07-17T00:00:00	2024-11-08T10:00:00	1	Precipitación	0
119180	7	Sololá	701	Sololá	4	Finca Santa Victoria	7	Julio	2023-07-17T00:00:00	2024-11-08T10:00:00	8	Radiación solar	224
119181	7	Sololá	701	Sololá	4	Finca Santa Victoria	7	Julio	2023-07-17T00:00:00	2024-11-08T11:00:00	2	Temperatura media	19.1
119182	7	Sololá	701	Sololá	4	Finca Santa Victoria	7	Julio	2023-07-17T00:00:00	2024-11-08T11:00:00	4	Temperatura máxima	19.1
119183	7	Sololá	701	Sololá	4	Finca Santa Victoria	7	Julio	2023-07-17T00:00:00	2024-11-08T11:00:00	3	Temperatura mínima	17.6
119184	7	Sololá	701	Sololá	4	Finca Santa Victoria	7	Julio	2023-07-17T00:00:00	2024-11-08T11:00:00	5	Humedad	65
119185	7	Sololá	701	Sololá	4	Finca Santa Victoria	7	Julio	2023-07-17T00:00:00	2024-11-08T11:00:00	6	Velocidad del viento	4.8
119186	7	Sololá	701	Sololá	4	Finca Santa Victoria	7	Julio	2023-07-17T00:00:00	2024-11-08T11:00:00	7	Dirección del viento	4.83
119187	7	Sololá	701	Sololá	4	Finca Santa Victoria	7	Julio	2023-07-17T00:00:00	2024-11-08T11:00:00	1	Precipitación	0
119188	7	Sololá	701	Sololá	4	Finca Santa Victoria	7	Julio	2023-07-17T00:00:00	2024-11-08T11:00:00	8	Radiación solar	161
119189	7	Sololá	701	Sololá	4	Finca Santa Victoria	7	Julio	2023-07-17T00:00:00	2024-11-08T12:00:00	2	Temperatura media	20.4
119190	7	Sololá	701	Sololá	4	Finca Santa Victoria	7	Julio	2023-07-17T00:00:00	2024-11-08T12:00:00	4	Temperatura máxima	20.5
119191	7	Sololá	701	Sololá	4	Finca Santa Victoria	7	Julio	2023-07-17T00:00:00	2024-11-08T12:00:00	3	Temperatura mínima	19.1
119192	7	Sololá	701	Sololá	4	Finca Santa Victoria	7	Julio	2023-07-17T00:00:00	2024-11-08T12:00:00	5	Humedad	59
119193	7	Sololá	701	Sololá	4	Finca Santa Victoria	7	Julio	2023-07-17T00:00:00	2024-11-08T12:00:00	6	Velocidad del viento	4.8
119194	7	Sololá	701	Sololá	4	Finca Santa Victoria	7	Julio	2023-07-17T00:00:00	2024-11-08T12:00:00	7	Dirección del viento	4.83
119195	7	Sololá	701	Sololá	4	Finca Santa Victoria	7	Julio	2023-07-17T00:00:00	2024-11-08T12:00:00	1	Precipitación	0
119196	7	Sololá	701	Sololá	4	Finca Santa Victoria	7	Julio	2023-07-17T00:00:00	2024-11-08T12:00:00	8	Radiación solar	1000
119197	7	Sololá	701	Sololá	4	Finca Santa Victoria	7	Julio	2023-07-17T00:00:00	2024-11-08T13:00:00	2	Temperatura media	20.7
119198	7	Sololá	701	Sololá	4	Finca Santa Victoria	7	Julio	2023-07-17T00:00:00	2024-11-08T13:00:00	4	Temperatura máxima	20.7
119199	7	Sololá	701	Sololá	4	Finca Santa Victoria	7	Julio	2023-07-17T00:00:00	2024-11-08T13:00:00	3	Temperatura mínima	20.1
119200	7	Sololá	701	Sololá	4	Finca Santa Victoria	7	Julio	2023-07-17T00:00:00	2024-11-08T13:00:00	5	Humedad	60
119201	7	Sololá	701	Sololá	4	Finca Santa Victoria	7	Julio	2023-07-17T00:00:00	2024-11-08T13:00:00	6	Velocidad del viento	4.8
119202	7	Sololá	701	Sololá	4	Finca Santa Victoria	7	Julio	2023-07-17T00:00:00	2024-11-08T13:00:00	7	Dirección del viento	4.83
119203	7	Sololá	701	Sololá	4	Finca Santa Victoria	7	Julio	2023-07-17T00:00:00	2024-11-08T13:00:00	1	Precipitación	0
119204	7	Sololá	701	Sololá	4	Finca Santa Victoria	7	Julio	2023-07-17T00:00:00	2024-11-08T13:00:00	8	Radiación solar	961
119205	7	Sololá	701	Sololá	4	Finca Santa Victoria	7	Julio	2023-07-17T00:00:00	2024-11-08T14:00:00	2	Temperatura media	21.1
119206	7	Sololá	701	Sololá	4	Finca Santa Victoria	7	Julio	2023-07-17T00:00:00	2024-11-08T14:00:00	4	Temperatura máxima	21.3
119207	7	Sololá	701	Sololá	4	Finca Santa Victoria	7	Julio	2023-07-17T00:00:00	2024-11-08T14:00:00	3	Temperatura mínima	20.6
119208	7	Sololá	701	Sololá	4	Finca Santa Victoria	7	Julio	2023-07-17T00:00:00	2024-11-08T14:00:00	5	Humedad	57
119209	7	Sololá	701	Sololá	4	Finca Santa Victoria	7	Julio	2023-07-17T00:00:00	2024-11-08T14:00:00	6	Velocidad del viento	6.4
119210	7	Sololá	701	Sololá	4	Finca Santa Victoria	7	Julio	2023-07-17T00:00:00	2024-11-08T14:00:00	7	Dirección del viento	6.44
119211	7	Sololá	701	Sololá	4	Finca Santa Victoria	7	Julio	2023-07-17T00:00:00	2024-11-08T14:00:00	1	Precipitación	0
119212	7	Sololá	701	Sololá	4	Finca Santa Victoria	7	Julio	2023-07-17T00:00:00	2024-11-08T14:00:00	8	Radiación solar	896
119213	7	Sololá	701	Sololá	4	Finca Santa Victoria	7	Julio	2023-07-17T00:00:00	2024-11-08T15:00:00	2	Temperatura media	20.8
119214	7	Sololá	701	Sololá	4	Finca Santa Victoria	7	Julio	2023-07-17T00:00:00	2024-11-08T15:00:00	4	Temperatura máxima	21.5
119215	7	Sololá	701	Sololá	4	Finca Santa Victoria	7	Julio	2023-07-17T00:00:00	2024-11-08T15:00:00	3	Temperatura mínima	20.7
119216	7	Sololá	701	Sololá	4	Finca Santa Victoria	7	Julio	2023-07-17T00:00:00	2024-11-08T15:00:00	5	Humedad	58
119217	7	Sololá	701	Sololá	4	Finca Santa Victoria	7	Julio	2023-07-17T00:00:00	2024-11-08T15:00:00	6	Velocidad del viento	4.8
119218	7	Sololá	701	Sololá	4	Finca Santa Victoria	7	Julio	2023-07-17T00:00:00	2024-11-08T15:00:00	7	Dirección del viento	4.83
119219	7	Sololá	701	Sololá	4	Finca Santa Victoria	7	Julio	2023-07-17T00:00:00	2024-11-08T15:00:00	1	Precipitación	0
119220	7	Sololá	701	Sololá	4	Finca Santa Victoria	7	Julio	2023-07-17T00:00:00	2024-11-08T15:00:00	8	Radiación solar	416
119221	7	Sololá	701	Sololá	4	Finca Santa Victoria	7	Julio	2023-07-17T00:00:00	2024-11-08T16:00:00	2	Temperatura media	19.6
119222	7	Sololá	701	Sololá	4	Finca Santa Victoria	7	Julio	2023-07-17T00:00:00	2024-11-08T16:00:00	4	Temperatura máxima	20.8
119223	7	Sololá	701	Sololá	4	Finca Santa Victoria	7	Julio	2023-07-17T00:00:00	2024-11-08T16:00:00	3	Temperatura mínima	19.6
119224	7	Sololá	701	Sololá	4	Finca Santa Victoria	7	Julio	2023-07-17T00:00:00	2024-11-08T16:00:00	5	Humedad	65
119225	7	Sololá	701	Sololá	4	Finca Santa Victoria	7	Julio	2023-07-17T00:00:00	2024-11-08T16:00:00	6	Velocidad del viento	4.8
119226	7	Sololá	701	Sololá	4	Finca Santa Victoria	7	Julio	2023-07-17T00:00:00	2024-11-08T16:00:00	7	Dirección del viento	4.83
119227	7	Sololá	701	Sololá	4	Finca Santa Victoria	7	Julio	2023-07-17T00:00:00	2024-11-08T16:00:00	1	Precipitación	0
119228	7	Sololá	701	Sololá	4	Finca Santa Victoria	7	Julio	2023-07-17T00:00:00	2024-11-08T16:00:00	8	Radiación solar	106
119229	7	Sololá	701	Sololá	4	Finca Santa Victoria	7	Julio	2023-07-17T00:00:00	2024-11-08T17:00:00	2	Temperatura media	18.7
119230	7	Sololá	701	Sololá	4	Finca Santa Victoria	7	Julio	2023-07-17T00:00:00	2024-11-08T17:00:00	4	Temperatura máxima	19.6
119231	7	Sololá	701	Sololá	4	Finca Santa Victoria	7	Julio	2023-07-17T00:00:00	2024-11-08T17:00:00	3	Temperatura mínima	18.7
119232	7	Sololá	701	Sololá	4	Finca Santa Victoria	7	Julio	2023-07-17T00:00:00	2024-11-08T17:00:00	5	Humedad	67
119233	7	Sololá	701	Sololá	4	Finca Santa Victoria	7	Julio	2023-07-17T00:00:00	2024-11-08T17:00:00	6	Velocidad del viento	4.8
119234	7	Sololá	701	Sololá	4	Finca Santa Victoria	7	Julio	2023-07-17T00:00:00	2024-11-08T17:00:00	7	Dirección del viento	4.83
119235	7	Sololá	701	Sololá	4	Finca Santa Victoria	7	Julio	2023-07-17T00:00:00	2024-11-08T17:00:00	1	Precipitación	0
119236	7	Sololá	701	Sololá	4	Finca Santa Victoria	7	Julio	2023-07-17T00:00:00	2024-11-08T17:00:00	8	Radiación solar	84
119237	7	Sololá	701	Sololá	4	Finca Santa Victoria	7	Julio	2023-07-17T00:00:00	2024-11-08T18:00:00	2	Temperatura media	17.6
119238	7	Sololá	701	Sololá	4	Finca Santa Victoria	7	Julio	2023-07-17T00:00:00	2024-11-08T18:00:00	4	Temperatura máxima	18.8
119239	7	Sololá	701	Sololá	4	Finca Santa Victoria	7	Julio	2023-07-17T00:00:00	2024-11-08T18:00:00	3	Temperatura mínima	17.6
119240	7	Sololá	701	Sololá	4	Finca Santa Victoria	7	Julio	2023-07-17T00:00:00	2024-11-08T18:00:00	5	Humedad	69
119241	7	Sololá	701	Sololá	4	Finca Santa Victoria	7	Julio	2023-07-17T00:00:00	2024-11-08T18:00:00	6	Velocidad del viento	3.2
119242	7	Sololá	701	Sololá	4	Finca Santa Victoria	7	Julio	2023-07-17T00:00:00	2024-11-08T18:00:00	7	Dirección del viento	3.22
119243	7	Sololá	701	Sololá	4	Finca Santa Victoria	7	Julio	2023-07-17T00:00:00	2024-11-08T18:00:00	1	Precipitación	0
119244	7	Sololá	701	Sololá	4	Finca Santa Victoria	7	Julio	2023-07-17T00:00:00	2024-11-08T18:00:00	8	Radiación solar	57
119245	7	Sololá	701	Sololá	4	Finca Santa Victoria	7	Julio	2023-07-17T00:00:00	2024-11-08T19:00:00	2	Temperatura media	15.7
119246	7	Sololá	701	Sololá	4	Finca Santa Victoria	7	Julio	2023-07-17T00:00:00	2024-11-08T19:00:00	4	Temperatura máxima	17.6
119247	7	Sololá	701	Sololá	4	Finca Santa Victoria	7	Julio	2023-07-17T00:00:00	2024-11-08T19:00:00	3	Temperatura mínima	15.7
119248	7	Sololá	701	Sololá	4	Finca Santa Victoria	7	Julio	2023-07-17T00:00:00	2024-11-08T19:00:00	5	Humedad	79
119249	7	Sololá	701	Sololá	4	Finca Santa Victoria	7	Julio	2023-07-17T00:00:00	2024-11-08T19:00:00	6	Velocidad del viento	4.8
119250	7	Sololá	701	Sololá	4	Finca Santa Victoria	7	Julio	2023-07-17T00:00:00	2024-11-08T19:00:00	7	Dirección del viento	4.83
119251	7	Sololá	701	Sololá	4	Finca Santa Victoria	7	Julio	2023-07-17T00:00:00	2024-11-08T19:00:00	1	Precipitación	0
119252	7	Sololá	701	Sololá	4	Finca Santa Victoria	7	Julio	2023-07-17T00:00:00	2024-11-08T19:00:00	8	Radiación solar	0
119253	7	Sololá	701	Sololá	4	Finca Santa Victoria	7	Julio	2023-07-17T00:00:00	2024-11-08T20:00:00	2	Temperatura media	15.2
119254	7	Sololá	701	Sololá	4	Finca Santa Victoria	7	Julio	2023-07-17T00:00:00	2024-11-08T20:00:00	4	Temperatura máxima	15.7
119255	7	Sololá	701	Sololá	4	Finca Santa Victoria	7	Julio	2023-07-17T00:00:00	2024-11-08T20:00:00	3	Temperatura mínima	15.2
119256	7	Sololá	701	Sololá	4	Finca Santa Victoria	7	Julio	2023-07-17T00:00:00	2024-11-08T20:00:00	5	Humedad	79
119257	7	Sololá	701	Sololá	4	Finca Santa Victoria	7	Julio	2023-07-17T00:00:00	2024-11-08T20:00:00	6	Velocidad del viento	6.4
119258	7	Sololá	701	Sololá	4	Finca Santa Victoria	7	Julio	2023-07-17T00:00:00	2024-11-08T20:00:00	7	Dirección del viento	6.44
119259	7	Sololá	701	Sololá	4	Finca Santa Victoria	7	Julio	2023-07-17T00:00:00	2024-11-08T20:00:00	1	Precipitación	0
119260	7	Sololá	701	Sololá	4	Finca Santa Victoria	7	Julio	2023-07-17T00:00:00	2024-11-08T20:00:00	8	Radiación solar	0
119261	7	Sololá	701	Sololá	4	Finca Santa Victoria	7	Julio	2023-07-17T00:00:00	2024-11-08T21:00:00	2	Temperatura media	14.7
119262	7	Sololá	701	Sololá	4	Finca Santa Victoria	7	Julio	2023-07-17T00:00:00	2024-11-08T21:00:00	4	Temperatura máxima	15.3
119263	7	Sololá	701	Sololá	4	Finca Santa Victoria	7	Julio	2023-07-17T00:00:00	2024-11-08T21:00:00	3	Temperatura mínima	14.7
119264	7	Sololá	701	Sololá	4	Finca Santa Victoria	7	Julio	2023-07-17T00:00:00	2024-11-08T21:00:00	5	Humedad	81
119265	7	Sololá	701	Sololá	4	Finca Santa Victoria	7	Julio	2023-07-17T00:00:00	2024-11-08T21:00:00	6	Velocidad del viento	4.8
119266	7	Sololá	701	Sololá	4	Finca Santa Victoria	7	Julio	2023-07-17T00:00:00	2024-11-08T21:00:00	7	Dirección del viento	4.83
119267	7	Sololá	701	Sololá	4	Finca Santa Victoria	7	Julio	2023-07-17T00:00:00	2024-11-08T21:00:00	1	Precipitación	0
119268	7	Sololá	701	Sololá	4	Finca Santa Victoria	7	Julio	2023-07-17T00:00:00	2024-11-08T21:00:00	8	Radiación solar	0
119269	7	Sololá	701	Sololá	4	Finca Santa Victoria	7	Julio	2023-07-17T00:00:00	2024-11-08T22:00:00	2	Temperatura media	14.3
119270	7	Sololá	701	Sololá	4	Finca Santa Victoria	7	Julio	2023-07-17T00:00:00	2024-11-08T22:00:00	4	Temperatura máxima	14.7
119271	7	Sololá	701	Sololá	4	Finca Santa Victoria	7	Julio	2023-07-17T00:00:00	2024-11-08T22:00:00	3	Temperatura mínima	14.3
119272	7	Sololá	701	Sololá	4	Finca Santa Victoria	7	Julio	2023-07-17T00:00:00	2024-11-08T22:00:00	5	Humedad	84
119273	7	Sololá	701	Sololá	4	Finca Santa Victoria	7	Julio	2023-07-17T00:00:00	2024-11-08T22:00:00	6	Velocidad del viento	4.8
119274	7	Sololá	701	Sololá	4	Finca Santa Victoria	7	Julio	2023-07-17T00:00:00	2024-11-08T22:00:00	7	Dirección del viento	4.83
119275	7	Sololá	701	Sololá	4	Finca Santa Victoria	7	Julio	2023-07-17T00:00:00	2024-11-08T22:00:00	1	Precipitación	0
119276	7	Sololá	701	Sololá	4	Finca Santa Victoria	7	Julio	2023-07-17T00:00:00	2024-11-08T22:00:00	8	Radiación solar	0
119277	7	Sololá	701	Sololá	4	Finca Santa Victoria	7	Julio	2023-07-17T00:00:00	2024-11-08T23:00:00	2	Temperatura media	13.9
119278	7	Sololá	701	Sololá	4	Finca Santa Victoria	7	Julio	2023-07-17T00:00:00	2024-11-08T23:00:00	4	Temperatura máxima	14.4
119279	7	Sololá	701	Sololá	4	Finca Santa Victoria	7	Julio	2023-07-17T00:00:00	2024-11-08T23:00:00	3	Temperatura mínima	13.9
119280	7	Sololá	701	Sololá	4	Finca Santa Victoria	7	Julio	2023-07-17T00:00:00	2024-11-08T23:00:00	5	Humedad	84
119281	7	Sololá	701	Sololá	4	Finca Santa Victoria	7	Julio	2023-07-17T00:00:00	2024-11-08T23:00:00	6	Velocidad del viento	3.2
119282	7	Sololá	701	Sololá	4	Finca Santa Victoria	7	Julio	2023-07-17T00:00:00	2024-11-08T23:00:00	7	Dirección del viento	3.22
119283	7	Sololá	701	Sololá	4	Finca Santa Victoria	7	Julio	2023-07-17T00:00:00	2024-11-08T23:00:00	1	Precipitación	0
119284	7	Sololá	701	Sololá	4	Finca Santa Victoria	7	Julio	2023-07-17T00:00:00	2024-11-08T23:00:00	8	Radiación solar	0
119285	7	Sololá	701	Sololá	4	Finca Santa Victoria	7	Julio	2023-07-18T00:00:00	2024-11-08T00:00:00	2	Temperatura media	13.3
119286	7	Sololá	701	Sololá	4	Finca Santa Victoria	7	Julio	2023-07-18T00:00:00	2024-11-08T00:00:00	4	Temperatura máxima	14
119287	7	Sololá	701	Sololá	4	Finca Santa Victoria	7	Julio	2023-07-18T00:00:00	2024-11-08T00:00:00	3	Temperatura mínima	13.3
119288	7	Sololá	701	Sololá	4	Finca Santa Victoria	7	Julio	2023-07-18T00:00:00	2024-11-08T00:00:00	5	Humedad	86
119289	7	Sololá	701	Sololá	4	Finca Santa Victoria	7	Julio	2023-07-18T00:00:00	2024-11-08T00:00:00	6	Velocidad del viento	3.2
119290	7	Sololá	701	Sololá	4	Finca Santa Victoria	7	Julio	2023-07-18T00:00:00	2024-11-08T00:00:00	7	Dirección del viento	3.22
119291	7	Sololá	701	Sololá	4	Finca Santa Victoria	7	Julio	2023-07-18T00:00:00	2024-11-08T00:00:00	1	Precipitación	0
119292	7	Sololá	701	Sololá	4	Finca Santa Victoria	7	Julio	2023-07-18T00:00:00	2024-11-08T00:00:00	8	Radiación solar	0
119293	7	Sololá	701	Sololá	4	Finca Santa Victoria	7	Julio	2023-07-18T00:00:00	2024-11-08T01:00:00	2	Temperatura media	13.2
119294	7	Sololá	701	Sololá	4	Finca Santa Victoria	7	Julio	2023-07-18T00:00:00	2024-11-08T01:00:00	4	Temperatura máxima	13.3
119295	7	Sololá	701	Sololá	4	Finca Santa Victoria	7	Julio	2023-07-18T00:00:00	2024-11-08T01:00:00	3	Temperatura mínima	13.1
119296	7	Sololá	701	Sololá	4	Finca Santa Victoria	7	Julio	2023-07-18T00:00:00	2024-11-08T01:00:00	5	Humedad	86
119297	7	Sololá	701	Sololá	4	Finca Santa Victoria	7	Julio	2023-07-18T00:00:00	2024-11-08T01:00:00	6	Velocidad del viento	3.2
119298	7	Sololá	701	Sololá	4	Finca Santa Victoria	7	Julio	2023-07-18T00:00:00	2024-11-08T01:00:00	7	Dirección del viento	3.22
119299	7	Sololá	701	Sololá	4	Finca Santa Victoria	7	Julio	2023-07-18T00:00:00	2024-11-08T01:00:00	1	Precipitación	0
119300	7	Sololá	701	Sololá	4	Finca Santa Victoria	7	Julio	2023-07-18T00:00:00	2024-11-08T01:00:00	8	Radiación solar	0
119301	7	Sololá	701	Sololá	4	Finca Santa Victoria	7	Julio	2023-07-18T00:00:00	2024-11-08T02:00:00	2	Temperatura media	13.3
119302	7	Sololá	701	Sololá	4	Finca Santa Victoria	7	Julio	2023-07-18T00:00:00	2024-11-08T02:00:00	4	Temperatura máxima	13.3
119303	7	Sololá	701	Sololá	4	Finca Santa Victoria	7	Julio	2023-07-18T00:00:00	2024-11-08T02:00:00	3	Temperatura mínima	13.2
119304	7	Sololá	701	Sololá	4	Finca Santa Victoria	7	Julio	2023-07-18T00:00:00	2024-11-08T02:00:00	5	Humedad	87
119305	7	Sololá	701	Sololá	4	Finca Santa Victoria	7	Julio	2023-07-18T00:00:00	2024-11-08T02:00:00	6	Velocidad del viento	3.2
119306	7	Sololá	701	Sololá	4	Finca Santa Victoria	7	Julio	2023-07-18T00:00:00	2024-11-08T02:00:00	7	Dirección del viento	3.22
119307	7	Sololá	701	Sololá	4	Finca Santa Victoria	7	Julio	2023-07-18T00:00:00	2024-11-08T02:00:00	1	Precipitación	0
119308	7	Sololá	701	Sololá	4	Finca Santa Victoria	7	Julio	2023-07-18T00:00:00	2024-11-08T02:00:00	8	Radiación solar	0
119309	7	Sololá	701	Sololá	4	Finca Santa Victoria	7	Julio	2023-07-18T00:00:00	2024-11-08T03:00:00	2	Temperatura media	13.1
119310	7	Sololá	701	Sololá	4	Finca Santa Victoria	7	Julio	2023-07-18T00:00:00	2024-11-08T03:00:00	4	Temperatura máxima	13.3
119311	7	Sololá	701	Sololá	4	Finca Santa Victoria	7	Julio	2023-07-18T00:00:00	2024-11-08T03:00:00	3	Temperatura mínima	13.1
119312	7	Sololá	701	Sololá	4	Finca Santa Victoria	7	Julio	2023-07-18T00:00:00	2024-11-08T03:00:00	5	Humedad	89
119313	7	Sololá	701	Sololá	4	Finca Santa Victoria	7	Julio	2023-07-18T00:00:00	2024-11-08T03:00:00	6	Velocidad del viento	3.2
119314	7	Sololá	701	Sololá	4	Finca Santa Victoria	7	Julio	2023-07-18T00:00:00	2024-11-08T03:00:00	7	Dirección del viento	3.22
119315	7	Sololá	701	Sololá	4	Finca Santa Victoria	7	Julio	2023-07-18T00:00:00	2024-11-08T03:00:00	1	Precipitación	0
119316	7	Sololá	701	Sololá	4	Finca Santa Victoria	7	Julio	2023-07-18T00:00:00	2024-11-08T03:00:00	8	Radiación solar	0
119317	7	Sololá	701	Sololá	4	Finca Santa Victoria	7	Julio	2023-07-18T00:00:00	2024-11-08T04:00:00	2	Temperatura media	13.6
119318	7	Sololá	701	Sololá	4	Finca Santa Victoria	7	Julio	2023-07-18T00:00:00	2024-11-08T04:00:00	4	Temperatura máxima	13.6
119319	7	Sololá	701	Sololá	4	Finca Santa Victoria	7	Julio	2023-07-18T00:00:00	2024-11-08T04:00:00	3	Temperatura mínima	13.1
119320	7	Sololá	701	Sololá	4	Finca Santa Victoria	7	Julio	2023-07-18T00:00:00	2024-11-08T04:00:00	5	Humedad	88
119321	7	Sololá	701	Sololá	4	Finca Santa Victoria	7	Julio	2023-07-18T00:00:00	2024-11-08T04:00:00	6	Velocidad del viento	4.8
119322	7	Sololá	701	Sololá	4	Finca Santa Victoria	7	Julio	2023-07-18T00:00:00	2024-11-08T04:00:00	7	Dirección del viento	4.83
119323	7	Sololá	701	Sololá	4	Finca Santa Victoria	7	Julio	2023-07-18T00:00:00	2024-11-08T04:00:00	1	Precipitación	0
119324	7	Sololá	701	Sololá	4	Finca Santa Victoria	7	Julio	2023-07-18T00:00:00	2024-11-08T04:00:00	8	Radiación solar	0
119325	7	Sololá	701	Sololá	4	Finca Santa Victoria	7	Julio	2023-07-18T00:00:00	2024-11-08T05:00:00	2	Temperatura media	13.8
119326	7	Sololá	701	Sololá	4	Finca Santa Victoria	7	Julio	2023-07-18T00:00:00	2024-11-08T05:00:00	4	Temperatura máxima	13.9
119327	7	Sololá	701	Sololá	4	Finca Santa Victoria	7	Julio	2023-07-18T00:00:00	2024-11-08T05:00:00	3	Temperatura mínima	13.6
119328	7	Sololá	701	Sololá	4	Finca Santa Victoria	7	Julio	2023-07-18T00:00:00	2024-11-08T05:00:00	5	Humedad	86
119329	7	Sololá	701	Sololá	4	Finca Santa Victoria	7	Julio	2023-07-18T00:00:00	2024-11-08T05:00:00	6	Velocidad del viento	3.2
119330	7	Sololá	701	Sololá	4	Finca Santa Victoria	7	Julio	2023-07-18T00:00:00	2024-11-08T05:00:00	7	Dirección del viento	3.22
119331	7	Sololá	701	Sololá	4	Finca Santa Victoria	7	Julio	2023-07-18T00:00:00	2024-11-08T05:00:00	1	Precipitación	0
119332	7	Sololá	701	Sololá	4	Finca Santa Victoria	7	Julio	2023-07-18T00:00:00	2024-11-08T05:00:00	8	Radiación solar	0
119333	7	Sololá	701	Sololá	4	Finca Santa Victoria	7	Julio	2023-07-18T00:00:00	2024-11-08T06:00:00	2	Temperatura media	13.6
119334	7	Sololá	701	Sololá	4	Finca Santa Victoria	7	Julio	2023-07-18T00:00:00	2024-11-08T06:00:00	4	Temperatura máxima	13.9
119335	7	Sololá	701	Sololá	4	Finca Santa Victoria	7	Julio	2023-07-18T00:00:00	2024-11-08T06:00:00	3	Temperatura mínima	13.5
119336	7	Sololá	701	Sololá	4	Finca Santa Victoria	7	Julio	2023-07-18T00:00:00	2024-11-08T06:00:00	5	Humedad	83
119337	7	Sololá	701	Sololá	4	Finca Santa Victoria	7	Julio	2023-07-18T00:00:00	2024-11-08T06:00:00	6	Velocidad del viento	3.2
119338	7	Sololá	701	Sololá	4	Finca Santa Victoria	7	Julio	2023-07-18T00:00:00	2024-11-08T06:00:00	7	Dirección del viento	3.22
119339	7	Sololá	701	Sololá	4	Finca Santa Victoria	7	Julio	2023-07-18T00:00:00	2024-11-08T06:00:00	1	Precipitación	0
119340	7	Sololá	701	Sololá	4	Finca Santa Victoria	7	Julio	2023-07-18T00:00:00	2024-11-08T06:00:00	8	Radiación solar	1
119341	7	Sololá	701	Sololá	4	Finca Santa Victoria	7	Julio	2023-07-18T00:00:00	2024-11-08T07:00:00	2	Temperatura media	14.3
119342	7	Sololá	701	Sololá	4	Finca Santa Victoria	7	Julio	2023-07-18T00:00:00	2024-11-08T07:00:00	4	Temperatura máxima	14.3
119343	7	Sololá	701	Sololá	4	Finca Santa Victoria	7	Julio	2023-07-18T00:00:00	2024-11-08T07:00:00	3	Temperatura mínima	13.6
119344	7	Sololá	701	Sololá	4	Finca Santa Victoria	7	Julio	2023-07-18T00:00:00	2024-11-08T07:00:00	5	Humedad	82
119345	7	Sololá	701	Sololá	4	Finca Santa Victoria	7	Julio	2023-07-18T00:00:00	2024-11-08T07:00:00	6	Velocidad del viento	4.8
119346	7	Sololá	701	Sololá	4	Finca Santa Victoria	7	Julio	2023-07-18T00:00:00	2024-11-08T07:00:00	7	Dirección del viento	4.83
119347	7	Sololá	701	Sololá	4	Finca Santa Victoria	7	Julio	2023-07-18T00:00:00	2024-11-08T07:00:00	1	Precipitación	0
119348	7	Sololá	701	Sololá	4	Finca Santa Victoria	7	Julio	2023-07-18T00:00:00	2024-11-08T07:00:00	8	Radiación solar	20
119349	7	Sololá	701	Sololá	4	Finca Santa Victoria	7	Julio	2023-07-18T00:00:00	2024-11-08T08:00:00	2	Temperatura media	16.2
119350	7	Sololá	701	Sololá	4	Finca Santa Victoria	7	Julio	2023-07-18T00:00:00	2024-11-08T08:00:00	4	Temperatura máxima	16.2
119351	7	Sololá	701	Sololá	4	Finca Santa Victoria	7	Julio	2023-07-18T00:00:00	2024-11-08T08:00:00	3	Temperatura mínima	14.3
119352	7	Sololá	701	Sololá	4	Finca Santa Victoria	7	Julio	2023-07-18T00:00:00	2024-11-08T08:00:00	5	Humedad	75
119353	7	Sololá	701	Sololá	4	Finca Santa Victoria	7	Julio	2023-07-18T00:00:00	2024-11-08T08:00:00	6	Velocidad del viento	6.4
119354	7	Sololá	701	Sololá	4	Finca Santa Victoria	7	Julio	2023-07-18T00:00:00	2024-11-08T08:00:00	7	Dirección del viento	6.44
119355	7	Sololá	701	Sololá	4	Finca Santa Victoria	7	Julio	2023-07-18T00:00:00	2024-11-08T08:00:00	1	Precipitación	0
119356	7	Sololá	701	Sololá	4	Finca Santa Victoria	7	Julio	2023-07-18T00:00:00	2024-11-08T08:00:00	8	Radiación solar	247
119357	7	Sololá	701	Sololá	4	Finca Santa Victoria	7	Julio	2023-07-18T00:00:00	2024-11-08T09:00:00	2	Temperatura media	16.8
119358	7	Sololá	701	Sololá	4	Finca Santa Victoria	7	Julio	2023-07-18T00:00:00	2024-11-08T09:00:00	4	Temperatura máxima	17
119359	7	Sololá	701	Sololá	4	Finca Santa Victoria	7	Julio	2023-07-18T00:00:00	2024-11-08T09:00:00	3	Temperatura mínima	16.2
119360	7	Sololá	701	Sololá	4	Finca Santa Victoria	7	Julio	2023-07-18T00:00:00	2024-11-08T09:00:00	5	Humedad	72
119361	7	Sololá	701	Sololá	4	Finca Santa Victoria	7	Julio	2023-07-18T00:00:00	2024-11-08T09:00:00	6	Velocidad del viento	6.4
119362	7	Sololá	701	Sololá	4	Finca Santa Victoria	7	Julio	2023-07-18T00:00:00	2024-11-08T09:00:00	7	Dirección del viento	6.44
119363	7	Sololá	701	Sololá	4	Finca Santa Victoria	7	Julio	2023-07-18T00:00:00	2024-11-08T09:00:00	1	Precipitación	0
119364	7	Sololá	701	Sololá	4	Finca Santa Victoria	7	Julio	2023-07-18T00:00:00	2024-11-08T09:00:00	8	Radiación solar	345
119365	7	Sololá	701	Sololá	4	Finca Santa Victoria	7	Julio	2023-07-18T00:00:00	2024-11-08T10:00:00	2	Temperatura media	18.2
119366	7	Sololá	701	Sololá	4	Finca Santa Victoria	7	Julio	2023-07-18T00:00:00	2024-11-08T10:00:00	4	Temperatura máxima	18.4
119367	7	Sololá	701	Sololá	4	Finca Santa Victoria	7	Julio	2023-07-18T00:00:00	2024-11-08T10:00:00	3	Temperatura mínima	16.8
119368	7	Sololá	701	Sololá	4	Finca Santa Victoria	7	Julio	2023-07-18T00:00:00	2024-11-08T10:00:00	5	Humedad	69
119369	7	Sololá	701	Sololá	4	Finca Santa Victoria	7	Julio	2023-07-18T00:00:00	2024-11-08T10:00:00	6	Velocidad del viento	6.4
119370	7	Sololá	701	Sololá	4	Finca Santa Victoria	7	Julio	2023-07-18T00:00:00	2024-11-08T10:00:00	7	Dirección del viento	6.44
119371	7	Sololá	701	Sololá	4	Finca Santa Victoria	7	Julio	2023-07-18T00:00:00	2024-11-08T10:00:00	1	Precipitación	0
119372	7	Sololá	701	Sololá	4	Finca Santa Victoria	7	Julio	2023-07-18T00:00:00	2024-11-08T10:00:00	8	Radiación solar	154
119373	7	Sololá	701	Sololá	4	Finca Santa Victoria	7	Julio	2023-07-18T00:00:00	2024-11-08T11:00:00	2	Temperatura media	19.9
119374	7	Sololá	701	Sololá	4	Finca Santa Victoria	7	Julio	2023-07-18T00:00:00	2024-11-08T11:00:00	4	Temperatura máxima	19.9
119375	7	Sololá	701	Sololá	4	Finca Santa Victoria	7	Julio	2023-07-18T00:00:00	2024-11-08T11:00:00	3	Temperatura mínima	18.2
119376	7	Sololá	701	Sololá	4	Finca Santa Victoria	7	Julio	2023-07-18T00:00:00	2024-11-08T11:00:00	5	Humedad	62
119377	7	Sololá	701	Sololá	4	Finca Santa Victoria	7	Julio	2023-07-18T00:00:00	2024-11-08T11:00:00	6	Velocidad del viento	6.4
119378	7	Sololá	701	Sololá	4	Finca Santa Victoria	7	Julio	2023-07-18T00:00:00	2024-11-08T11:00:00	7	Dirección del viento	6.44
119379	7	Sololá	701	Sololá	4	Finca Santa Victoria	7	Julio	2023-07-18T00:00:00	2024-11-08T11:00:00	1	Precipitación	0
119380	7	Sololá	701	Sololá	4	Finca Santa Victoria	7	Julio	2023-07-18T00:00:00	2024-11-08T11:00:00	8	Radiación solar	147
119381	7	Sololá	701	Sololá	4	Finca Santa Victoria	7	Julio	2023-07-18T00:00:00	2024-11-08T12:00:00	2	Temperatura media	20.8
119382	7	Sololá	701	Sololá	4	Finca Santa Victoria	7	Julio	2023-07-18T00:00:00	2024-11-08T12:00:00	4	Temperatura máxima	20.9
119383	7	Sololá	701	Sololá	4	Finca Santa Victoria	7	Julio	2023-07-18T00:00:00	2024-11-08T12:00:00	3	Temperatura mínima	19.9
119384	7	Sololá	701	Sololá	4	Finca Santa Victoria	7	Julio	2023-07-18T00:00:00	2024-11-08T12:00:00	5	Humedad	56
119385	7	Sololá	701	Sololá	4	Finca Santa Victoria	7	Julio	2023-07-18T00:00:00	2024-11-08T12:00:00	6	Velocidad del viento	4.8
119386	7	Sololá	701	Sololá	4	Finca Santa Victoria	7	Julio	2023-07-18T00:00:00	2024-11-08T12:00:00	7	Dirección del viento	4.83
119387	7	Sololá	701	Sololá	4	Finca Santa Victoria	7	Julio	2023-07-18T00:00:00	2024-11-08T12:00:00	1	Precipitación	0
119388	7	Sololá	701	Sololá	4	Finca Santa Victoria	7	Julio	2023-07-18T00:00:00	2024-11-08T12:00:00	8	Radiación solar	1013
119389	7	Sololá	701	Sololá	4	Finca Santa Victoria	7	Julio	2023-07-18T00:00:00	2024-11-08T13:00:00	2	Temperatura media	21.1
119390	7	Sololá	701	Sololá	4	Finca Santa Victoria	7	Julio	2023-07-18T00:00:00	2024-11-08T13:00:00	4	Temperatura máxima	21.2
119391	7	Sololá	701	Sololá	4	Finca Santa Victoria	7	Julio	2023-07-18T00:00:00	2024-11-08T13:00:00	3	Temperatura mínima	20.8
119392	7	Sololá	701	Sololá	4	Finca Santa Victoria	7	Julio	2023-07-18T00:00:00	2024-11-08T13:00:00	5	Humedad	50
119393	7	Sololá	701	Sololá	4	Finca Santa Victoria	7	Julio	2023-07-18T00:00:00	2024-11-08T13:00:00	6	Velocidad del viento	6.4
119394	7	Sololá	701	Sololá	4	Finca Santa Victoria	7	Julio	2023-07-18T00:00:00	2024-11-08T13:00:00	7	Dirección del viento	6.44
119395	7	Sololá	701	Sololá	4	Finca Santa Victoria	7	Julio	2023-07-18T00:00:00	2024-11-08T13:00:00	1	Precipitación	0
119396	7	Sololá	701	Sololá	4	Finca Santa Victoria	7	Julio	2023-07-18T00:00:00	2024-11-08T13:00:00	8	Radiación solar	1039
119397	7	Sololá	701	Sololá	4	Finca Santa Victoria	7	Julio	2023-07-18T00:00:00	2024-11-08T14:00:00	2	Temperatura media	21.4
119398	7	Sololá	701	Sololá	4	Finca Santa Victoria	7	Julio	2023-07-18T00:00:00	2024-11-08T14:00:00	4	Temperatura máxima	21.7
119399	7	Sololá	701	Sololá	4	Finca Santa Victoria	7	Julio	2023-07-18T00:00:00	2024-11-08T14:00:00	3	Temperatura mínima	20.9
119400	7	Sololá	701	Sololá	4	Finca Santa Victoria	7	Julio	2023-07-18T00:00:00	2024-11-08T14:00:00	5	Humedad	46
119401	7	Sololá	701	Sololá	4	Finca Santa Victoria	7	Julio	2023-07-18T00:00:00	2024-11-08T14:00:00	6	Velocidad del viento	6.4
119402	7	Sololá	701	Sololá	4	Finca Santa Victoria	7	Julio	2023-07-18T00:00:00	2024-11-08T14:00:00	7	Dirección del viento	6.44
119403	7	Sololá	701	Sololá	4	Finca Santa Victoria	7	Julio	2023-07-18T00:00:00	2024-11-08T14:00:00	1	Precipitación	0
119404	7	Sololá	701	Sololá	4	Finca Santa Victoria	7	Julio	2023-07-18T00:00:00	2024-11-08T14:00:00	8	Radiación solar	764
119405	7	Sololá	701	Sololá	4	Finca Santa Victoria	7	Julio	2023-07-18T00:00:00	2024-11-08T15:00:00	2	Temperatura media	21.4
119406	7	Sololá	701	Sololá	4	Finca Santa Victoria	7	Julio	2023-07-18T00:00:00	2024-11-08T15:00:00	4	Temperatura máxima	21.9
119407	7	Sololá	701	Sololá	4	Finca Santa Victoria	7	Julio	2023-07-18T00:00:00	2024-11-08T15:00:00	3	Temperatura mínima	21.4
119408	7	Sololá	701	Sololá	4	Finca Santa Victoria	7	Julio	2023-07-18T00:00:00	2024-11-08T15:00:00	5	Humedad	47
119409	7	Sololá	701	Sololá	4	Finca Santa Victoria	7	Julio	2023-07-18T00:00:00	2024-11-08T15:00:00	6	Velocidad del viento	6.4
119410	7	Sololá	701	Sololá	4	Finca Santa Victoria	7	Julio	2023-07-18T00:00:00	2024-11-08T15:00:00	7	Dirección del viento	6.44
119411	7	Sololá	701	Sololá	4	Finca Santa Victoria	7	Julio	2023-07-18T00:00:00	2024-11-08T15:00:00	1	Precipitación	0
119412	7	Sololá	701	Sololá	4	Finca Santa Victoria	7	Julio	2023-07-18T00:00:00	2024-11-08T15:00:00	8	Radiación solar	470
119413	7	Sololá	701	Sololá	4	Finca Santa Victoria	7	Julio	2023-07-18T00:00:00	2024-11-08T16:00:00	2	Temperatura media	18.8
119414	7	Sololá	701	Sololá	4	Finca Santa Victoria	7	Julio	2023-07-18T00:00:00	2024-11-08T16:00:00	4	Temperatura máxima	21.6
119415	7	Sololá	701	Sololá	4	Finca Santa Victoria	7	Julio	2023-07-18T00:00:00	2024-11-08T16:00:00	3	Temperatura mínima	18.8
119416	7	Sololá	701	Sololá	4	Finca Santa Victoria	7	Julio	2023-07-18T00:00:00	2024-11-08T16:00:00	5	Humedad	57
119417	7	Sololá	701	Sololá	4	Finca Santa Victoria	7	Julio	2023-07-18T00:00:00	2024-11-08T16:00:00	6	Velocidad del viento	6.4
119418	7	Sololá	701	Sololá	4	Finca Santa Victoria	7	Julio	2023-07-18T00:00:00	2024-11-08T16:00:00	7	Dirección del viento	6.44
119419	7	Sololá	701	Sololá	4	Finca Santa Victoria	7	Julio	2023-07-18T00:00:00	2024-11-08T16:00:00	1	Precipitación	0
119420	7	Sololá	701	Sololá	4	Finca Santa Victoria	7	Julio	2023-07-18T00:00:00	2024-11-08T16:00:00	8	Radiación solar	198
119421	7	Sololá	701	Sololá	4	Finca Santa Victoria	7	Julio	2023-07-18T00:00:00	2024-11-08T17:00:00	2	Temperatura media	17.9
119422	7	Sololá	701	Sololá	4	Finca Santa Victoria	7	Julio	2023-07-18T00:00:00	2024-11-08T17:00:00	4	Temperatura máxima	18.8
119423	7	Sololá	701	Sololá	4	Finca Santa Victoria	7	Julio	2023-07-18T00:00:00	2024-11-08T17:00:00	3	Temperatura mínima	17.9
119424	7	Sololá	701	Sololá	4	Finca Santa Victoria	7	Julio	2023-07-18T00:00:00	2024-11-08T17:00:00	5	Humedad	59
119425	7	Sololá	701	Sololá	4	Finca Santa Victoria	7	Julio	2023-07-18T00:00:00	2024-11-08T17:00:00	6	Velocidad del viento	4.8
119426	7	Sololá	701	Sololá	4	Finca Santa Victoria	7	Julio	2023-07-18T00:00:00	2024-11-08T17:00:00	7	Dirección del viento	4.83
119427	7	Sololá	701	Sololá	4	Finca Santa Victoria	7	Julio	2023-07-18T00:00:00	2024-11-08T17:00:00	1	Precipitación	0
119428	7	Sololá	701	Sololá	4	Finca Santa Victoria	7	Julio	2023-07-18T00:00:00	2024-11-08T17:00:00	8	Radiación solar	101
119429	7	Sololá	701	Sololá	4	Finca Santa Victoria	7	Julio	2023-07-18T00:00:00	2024-11-08T18:00:00	2	Temperatura media	17.3
119430	7	Sololá	701	Sololá	4	Finca Santa Victoria	7	Julio	2023-07-18T00:00:00	2024-11-08T18:00:00	4	Temperatura máxima	17.9
119431	7	Sololá	701	Sololá	4	Finca Santa Victoria	7	Julio	2023-07-18T00:00:00	2024-11-08T18:00:00	3	Temperatura mínima	17.3
119432	7	Sololá	701	Sololá	4	Finca Santa Victoria	7	Julio	2023-07-18T00:00:00	2024-11-08T18:00:00	5	Humedad	71
119433	7	Sololá	701	Sololá	4	Finca Santa Victoria	7	Julio	2023-07-18T00:00:00	2024-11-08T18:00:00	6	Velocidad del viento	4.8
119434	7	Sololá	701	Sololá	4	Finca Santa Victoria	7	Julio	2023-07-18T00:00:00	2024-11-08T18:00:00	7	Dirección del viento	4.83
119435	7	Sololá	701	Sololá	4	Finca Santa Victoria	7	Julio	2023-07-18T00:00:00	2024-11-08T18:00:00	1	Precipitación	0
119436	7	Sololá	701	Sololá	4	Finca Santa Victoria	7	Julio	2023-07-18T00:00:00	2024-11-08T18:00:00	8	Radiación solar	65
119437	7	Sololá	701	Sololá	4	Finca Santa Victoria	7	Julio	2023-07-18T00:00:00	2024-11-08T19:00:00	2	Temperatura media	15.6
119438	7	Sololá	701	Sololá	4	Finca Santa Victoria	7	Julio	2023-07-18T00:00:00	2024-11-08T19:00:00	4	Temperatura máxima	17.3
119439	7	Sololá	701	Sololá	4	Finca Santa Victoria	7	Julio	2023-07-18T00:00:00	2024-11-08T19:00:00	3	Temperatura mínima	15.6
119440	7	Sololá	701	Sololá	4	Finca Santa Victoria	7	Julio	2023-07-18T00:00:00	2024-11-08T19:00:00	5	Humedad	74
119441	7	Sololá	701	Sololá	4	Finca Santa Victoria	7	Julio	2023-07-18T00:00:00	2024-11-08T19:00:00	6	Velocidad del viento	3.2
119442	7	Sololá	701	Sololá	4	Finca Santa Victoria	7	Julio	2023-07-18T00:00:00	2024-11-08T19:00:00	7	Dirección del viento	3.22
119443	7	Sololá	701	Sololá	4	Finca Santa Victoria	7	Julio	2023-07-18T00:00:00	2024-11-08T19:00:00	1	Precipitación	0
119444	7	Sololá	701	Sololá	4	Finca Santa Victoria	7	Julio	2023-07-18T00:00:00	2024-11-08T19:00:00	8	Radiación solar	0
119445	7	Sololá	701	Sololá	4	Finca Santa Victoria	7	Julio	2023-07-18T00:00:00	2024-11-08T20:00:00	2	Temperatura media	14.6
119446	7	Sololá	701	Sololá	4	Finca Santa Victoria	7	Julio	2023-07-18T00:00:00	2024-11-08T20:00:00	4	Temperatura máxima	15.6
119447	7	Sololá	701	Sololá	4	Finca Santa Victoria	7	Julio	2023-07-18T00:00:00	2024-11-08T20:00:00	3	Temperatura mínima	14.6
119448	7	Sololá	701	Sololá	4	Finca Santa Victoria	7	Julio	2023-07-18T00:00:00	2024-11-08T20:00:00	5	Humedad	78
119449	7	Sololá	701	Sololá	4	Finca Santa Victoria	7	Julio	2023-07-18T00:00:00	2024-11-08T20:00:00	6	Velocidad del viento	1.6
119450	7	Sololá	701	Sololá	4	Finca Santa Victoria	7	Julio	2023-07-18T00:00:00	2024-11-08T20:00:00	7	Dirección del viento	1.61
119451	7	Sololá	701	Sololá	4	Finca Santa Victoria	7	Julio	2023-07-18T00:00:00	2024-11-08T20:00:00	1	Precipitación	0
119452	7	Sololá	701	Sololá	4	Finca Santa Victoria	7	Julio	2023-07-18T00:00:00	2024-11-08T20:00:00	8	Radiación solar	0
119453	7	Sololá	701	Sololá	4	Finca Santa Victoria	7	Julio	2023-07-18T00:00:00	2024-11-08T21:00:00	2	Temperatura media	14.1
119454	7	Sololá	701	Sololá	4	Finca Santa Victoria	7	Julio	2023-07-18T00:00:00	2024-11-08T21:00:00	4	Temperatura máxima	14.6
119455	7	Sololá	701	Sololá	4	Finca Santa Victoria	7	Julio	2023-07-18T00:00:00	2024-11-08T21:00:00	3	Temperatura mínima	14.1
119456	7	Sololá	701	Sololá	4	Finca Santa Victoria	7	Julio	2023-07-18T00:00:00	2024-11-08T21:00:00	5	Humedad	75
119457	7	Sololá	701	Sololá	4	Finca Santa Victoria	7	Julio	2023-07-18T00:00:00	2024-11-08T21:00:00	6	Velocidad del viento	3.2
119458	7	Sololá	701	Sololá	4	Finca Santa Victoria	7	Julio	2023-07-18T00:00:00	2024-11-08T21:00:00	7	Dirección del viento	3.22
119459	7	Sololá	701	Sololá	4	Finca Santa Victoria	7	Julio	2023-07-18T00:00:00	2024-11-08T21:00:00	1	Precipitación	0
119460	7	Sololá	701	Sololá	4	Finca Santa Victoria	7	Julio	2023-07-18T00:00:00	2024-11-08T21:00:00	8	Radiación solar	0
119461	7	Sololá	701	Sololá	4	Finca Santa Victoria	7	Julio	2023-07-18T00:00:00	2024-11-08T22:00:00	2	Temperatura media	13.7
119462	7	Sololá	701	Sololá	4	Finca Santa Victoria	7	Julio	2023-07-18T00:00:00	2024-11-08T22:00:00	4	Temperatura máxima	14.1
119463	7	Sololá	701	Sololá	4	Finca Santa Victoria	7	Julio	2023-07-18T00:00:00	2024-11-08T22:00:00	3	Temperatura mínima	13.7
119464	7	Sololá	701	Sololá	4	Finca Santa Victoria	7	Julio	2023-07-18T00:00:00	2024-11-08T22:00:00	5	Humedad	77
119465	7	Sololá	701	Sololá	4	Finca Santa Victoria	7	Julio	2023-07-18T00:00:00	2024-11-08T22:00:00	6	Velocidad del viento	3.2
119466	7	Sololá	701	Sololá	4	Finca Santa Victoria	7	Julio	2023-07-18T00:00:00	2024-11-08T22:00:00	7	Dirección del viento	3.22
119467	7	Sololá	701	Sololá	4	Finca Santa Victoria	7	Julio	2023-07-18T00:00:00	2024-11-08T22:00:00	1	Precipitación	0
119468	7	Sololá	701	Sololá	4	Finca Santa Victoria	7	Julio	2023-07-18T00:00:00	2024-11-08T22:00:00	8	Radiación solar	0
119469	7	Sololá	701	Sololá	4	Finca Santa Victoria	7	Julio	2023-07-18T00:00:00	2024-11-08T23:00:00	2	Temperatura media	13.7
119470	7	Sololá	701	Sololá	4	Finca Santa Victoria	7	Julio	2023-07-18T00:00:00	2024-11-08T23:00:00	4	Temperatura máxima	13.7
119471	7	Sololá	701	Sololá	4	Finca Santa Victoria	7	Julio	2023-07-18T00:00:00	2024-11-08T23:00:00	3	Temperatura mínima	13.6
119472	7	Sololá	701	Sololá	4	Finca Santa Victoria	7	Julio	2023-07-18T00:00:00	2024-11-08T23:00:00	5	Humedad	81
119473	7	Sololá	701	Sololá	4	Finca Santa Victoria	7	Julio	2023-07-18T00:00:00	2024-11-08T23:00:00	6	Velocidad del viento	6.4
119474	7	Sololá	701	Sololá	4	Finca Santa Victoria	7	Julio	2023-07-18T00:00:00	2024-11-08T23:00:00	7	Dirección del viento	6.44
119475	7	Sololá	701	Sololá	4	Finca Santa Victoria	7	Julio	2023-07-18T00:00:00	2024-11-08T23:00:00	1	Precipitación	0
119476	7	Sololá	701	Sololá	4	Finca Santa Victoria	7	Julio	2023-07-18T00:00:00	2024-11-08T23:00:00	8	Radiación solar	0
119477	7	Sololá	701	Sololá	4	Finca Santa Victoria	7	Julio	2023-07-19T00:00:00	2024-11-08T00:00:00	2	Temperatura media	13.5
119478	7	Sololá	701	Sololá	4	Finca Santa Victoria	7	Julio	2023-07-19T00:00:00	2024-11-08T00:00:00	4	Temperatura máxima	13.7
119479	7	Sololá	701	Sololá	4	Finca Santa Victoria	7	Julio	2023-07-19T00:00:00	2024-11-08T00:00:00	3	Temperatura mínima	13.4
119480	7	Sololá	701	Sololá	4	Finca Santa Victoria	7	Julio	2023-07-19T00:00:00	2024-11-08T00:00:00	5	Humedad	84
119481	7	Sololá	701	Sololá	4	Finca Santa Victoria	7	Julio	2023-07-19T00:00:00	2024-11-08T00:00:00	6	Velocidad del viento	4.8
119482	7	Sololá	701	Sololá	4	Finca Santa Victoria	7	Julio	2023-07-19T00:00:00	2024-11-08T00:00:00	7	Dirección del viento	4.83
119483	7	Sololá	701	Sololá	4	Finca Santa Victoria	7	Julio	2023-07-19T00:00:00	2024-11-08T00:00:00	1	Precipitación	0
119484	7	Sololá	701	Sololá	4	Finca Santa Victoria	7	Julio	2023-07-19T00:00:00	2024-11-08T00:00:00	8	Radiación solar	0
119485	7	Sololá	701	Sololá	4	Finca Santa Victoria	7	Julio	2023-07-19T00:00:00	2024-11-08T01:00:00	2	Temperatura media	13.3
119486	7	Sololá	701	Sololá	4	Finca Santa Victoria	7	Julio	2023-07-19T00:00:00	2024-11-08T01:00:00	4	Temperatura máxima	13.6
119487	7	Sololá	701	Sololá	4	Finca Santa Victoria	7	Julio	2023-07-19T00:00:00	2024-11-08T01:00:00	3	Temperatura mínima	13.3
119488	7	Sololá	701	Sololá	4	Finca Santa Victoria	7	Julio	2023-07-19T00:00:00	2024-11-08T01:00:00	5	Humedad	84
119489	7	Sololá	701	Sololá	4	Finca Santa Victoria	7	Julio	2023-07-19T00:00:00	2024-11-08T01:00:00	6	Velocidad del viento	4.8
119490	7	Sololá	701	Sololá	4	Finca Santa Victoria	7	Julio	2023-07-19T00:00:00	2024-11-08T01:00:00	7	Dirección del viento	4.83
119491	7	Sololá	701	Sololá	4	Finca Santa Victoria	7	Julio	2023-07-19T00:00:00	2024-11-08T01:00:00	1	Precipitación	0
119492	7	Sololá	701	Sololá	4	Finca Santa Victoria	7	Julio	2023-07-19T00:00:00	2024-11-08T01:00:00	8	Radiación solar	0
119493	7	Sololá	701	Sololá	4	Finca Santa Victoria	7	Julio	2023-07-19T00:00:00	2024-11-08T02:00:00	2	Temperatura media	12.9
119494	7	Sololá	701	Sololá	4	Finca Santa Victoria	7	Julio	2023-07-19T00:00:00	2024-11-08T02:00:00	4	Temperatura máxima	13.3
119495	7	Sololá	701	Sololá	4	Finca Santa Victoria	7	Julio	2023-07-19T00:00:00	2024-11-08T02:00:00	3	Temperatura mínima	12.9
119496	7	Sololá	701	Sololá	4	Finca Santa Victoria	7	Julio	2023-07-19T00:00:00	2024-11-08T02:00:00	5	Humedad	79
119497	7	Sololá	701	Sololá	4	Finca Santa Victoria	7	Julio	2023-07-19T00:00:00	2024-11-08T02:00:00	6	Velocidad del viento	6.4
119498	7	Sololá	701	Sololá	4	Finca Santa Victoria	7	Julio	2023-07-19T00:00:00	2024-11-08T02:00:00	7	Dirección del viento	6.44
119499	7	Sololá	701	Sololá	4	Finca Santa Victoria	7	Julio	2023-07-19T00:00:00	2024-11-08T02:00:00	1	Precipitación	0
119500	7	Sololá	701	Sololá	4	Finca Santa Victoria	7	Julio	2023-07-19T00:00:00	2024-11-08T02:00:00	8	Radiación solar	0
119501	7	Sololá	701	Sololá	4	Finca Santa Victoria	7	Julio	2023-07-19T00:00:00	2024-11-08T03:00:00	2	Temperatura media	12.7
119502	7	Sololá	701	Sololá	4	Finca Santa Victoria	7	Julio	2023-07-19T00:00:00	2024-11-08T03:00:00	4	Temperatura máxima	12.9
119503	7	Sololá	701	Sololá	4	Finca Santa Victoria	7	Julio	2023-07-19T00:00:00	2024-11-08T03:00:00	3	Temperatura mínima	12.4
119504	7	Sololá	701	Sololá	4	Finca Santa Victoria	7	Julio	2023-07-19T00:00:00	2024-11-08T03:00:00	5	Humedad	68
119505	7	Sololá	701	Sololá	4	Finca Santa Victoria	7	Julio	2023-07-19T00:00:00	2024-11-08T03:00:00	6	Velocidad del viento	4.8
119506	7	Sololá	701	Sololá	4	Finca Santa Victoria	7	Julio	2023-07-19T00:00:00	2024-11-08T03:00:00	7	Dirección del viento	4.83
119507	7	Sololá	701	Sololá	4	Finca Santa Victoria	7	Julio	2023-07-19T00:00:00	2024-11-08T03:00:00	1	Precipitación	0
119508	7	Sololá	701	Sololá	4	Finca Santa Victoria	7	Julio	2023-07-19T00:00:00	2024-11-08T03:00:00	8	Radiación solar	0
119509	7	Sololá	701	Sololá	4	Finca Santa Victoria	7	Julio	2023-07-19T00:00:00	2024-11-08T04:00:00	2	Temperatura media	12.8
119510	7	Sololá	701	Sololá	4	Finca Santa Victoria	7	Julio	2023-07-19T00:00:00	2024-11-08T04:00:00	4	Temperatura máxima	13
119511	7	Sololá	701	Sololá	4	Finca Santa Victoria	7	Julio	2023-07-19T00:00:00	2024-11-08T04:00:00	3	Temperatura mínima	12.6
119512	7	Sololá	701	Sololá	4	Finca Santa Victoria	7	Julio	2023-07-19T00:00:00	2024-11-08T04:00:00	5	Humedad	65
119513	7	Sololá	701	Sololá	4	Finca Santa Victoria	7	Julio	2023-07-19T00:00:00	2024-11-08T04:00:00	6	Velocidad del viento	4.8
119514	7	Sololá	701	Sololá	4	Finca Santa Victoria	7	Julio	2023-07-19T00:00:00	2024-11-08T04:00:00	7	Dirección del viento	4.83
119515	7	Sololá	701	Sololá	4	Finca Santa Victoria	7	Julio	2023-07-19T00:00:00	2024-11-08T04:00:00	1	Precipitación	0
119516	7	Sololá	701	Sololá	4	Finca Santa Victoria	7	Julio	2023-07-19T00:00:00	2024-11-08T04:00:00	8	Radiación solar	0
119517	7	Sololá	701	Sololá	4	Finca Santa Victoria	7	Julio	2023-07-19T00:00:00	2024-11-08T05:00:00	2	Temperatura media	12.9
119518	7	Sololá	701	Sololá	4	Finca Santa Victoria	7	Julio	2023-07-19T00:00:00	2024-11-08T05:00:00	4	Temperatura máxima	13.2
119519	7	Sololá	701	Sololá	4	Finca Santa Victoria	7	Julio	2023-07-19T00:00:00	2024-11-08T05:00:00	3	Temperatura mínima	12.8
119520	7	Sololá	701	Sololá	4	Finca Santa Victoria	7	Julio	2023-07-19T00:00:00	2024-11-08T05:00:00	5	Humedad	70
119521	7	Sololá	701	Sololá	4	Finca Santa Victoria	7	Julio	2023-07-19T00:00:00	2024-11-08T05:00:00	6	Velocidad del viento	6.4
119522	7	Sololá	701	Sololá	4	Finca Santa Victoria	7	Julio	2023-07-19T00:00:00	2024-11-08T05:00:00	7	Dirección del viento	6.44
119523	7	Sololá	701	Sololá	4	Finca Santa Victoria	7	Julio	2023-07-19T00:00:00	2024-11-08T05:00:00	1	Precipitación	0
119524	7	Sololá	701	Sololá	4	Finca Santa Victoria	7	Julio	2023-07-19T00:00:00	2024-11-08T05:00:00	8	Radiación solar	0
119525	7	Sololá	701	Sololá	4	Finca Santa Victoria	7	Julio	2023-07-19T00:00:00	2024-11-08T06:00:00	2	Temperatura media	12.8
119526	7	Sololá	701	Sololá	4	Finca Santa Victoria	7	Julio	2023-07-19T00:00:00	2024-11-08T06:00:00	4	Temperatura máxima	13
119527	7	Sololá	701	Sololá	4	Finca Santa Victoria	7	Julio	2023-07-19T00:00:00	2024-11-08T06:00:00	3	Temperatura mínima	12.7
119528	7	Sololá	701	Sololá	4	Finca Santa Victoria	7	Julio	2023-07-19T00:00:00	2024-11-08T06:00:00	5	Humedad	79
119529	7	Sololá	701	Sololá	4	Finca Santa Victoria	7	Julio	2023-07-19T00:00:00	2024-11-08T06:00:00	6	Velocidad del viento	6.4
119530	7	Sololá	701	Sololá	4	Finca Santa Victoria	7	Julio	2023-07-19T00:00:00	2024-11-08T06:00:00	7	Dirección del viento	6.44
119531	7	Sololá	701	Sololá	4	Finca Santa Victoria	7	Julio	2023-07-19T00:00:00	2024-11-08T06:00:00	1	Precipitación	0
119532	7	Sololá	701	Sololá	4	Finca Santa Victoria	7	Julio	2023-07-19T00:00:00	2024-11-08T06:00:00	8	Radiación solar	1
119533	7	Sololá	701	Sololá	4	Finca Santa Victoria	7	Julio	2023-07-19T00:00:00	2024-11-08T07:00:00	2	Temperatura media	12.7
119534	7	Sololá	701	Sololá	4	Finca Santa Victoria	7	Julio	2023-07-19T00:00:00	2024-11-08T07:00:00	4	Temperatura máxima	12.8
119535	7	Sololá	701	Sololá	4	Finca Santa Victoria	7	Julio	2023-07-19T00:00:00	2024-11-08T07:00:00	3	Temperatura mínima	12.4
119536	7	Sololá	701	Sololá	4	Finca Santa Victoria	7	Julio	2023-07-19T00:00:00	2024-11-08T07:00:00	5	Humedad	81
119537	7	Sololá	701	Sololá	4	Finca Santa Victoria	7	Julio	2023-07-19T00:00:00	2024-11-08T07:00:00	6	Velocidad del viento	8
119538	7	Sololá	701	Sololá	4	Finca Santa Victoria	7	Julio	2023-07-19T00:00:00	2024-11-08T07:00:00	7	Dirección del viento	8.05
119539	7	Sololá	701	Sololá	4	Finca Santa Victoria	7	Julio	2023-07-19T00:00:00	2024-11-08T07:00:00	1	Precipitación	0
119540	7	Sololá	701	Sololá	4	Finca Santa Victoria	7	Julio	2023-07-19T00:00:00	2024-11-08T07:00:00	8	Radiación solar	51
119541	7	Sololá	701	Sololá	4	Finca Santa Victoria	7	Julio	2023-07-19T00:00:00	2024-11-08T08:00:00	2	Temperatura media	14.3
119542	7	Sololá	701	Sololá	4	Finca Santa Victoria	7	Julio	2023-07-19T00:00:00	2024-11-08T08:00:00	4	Temperatura máxima	14.3
119543	7	Sololá	701	Sololá	4	Finca Santa Victoria	7	Julio	2023-07-19T00:00:00	2024-11-08T08:00:00	3	Temperatura mínima	12.7
119544	7	Sololá	701	Sololá	4	Finca Santa Victoria	7	Julio	2023-07-19T00:00:00	2024-11-08T08:00:00	5	Humedad	81
119545	7	Sololá	701	Sololá	4	Finca Santa Victoria	7	Julio	2023-07-19T00:00:00	2024-11-08T08:00:00	6	Velocidad del viento	6.4
119546	7	Sololá	701	Sololá	4	Finca Santa Victoria	7	Julio	2023-07-19T00:00:00	2024-11-08T08:00:00	7	Dirección del viento	6.44
119547	7	Sololá	701	Sololá	4	Finca Santa Victoria	7	Julio	2023-07-19T00:00:00	2024-11-08T08:00:00	1	Precipitación	0
119548	7	Sololá	701	Sololá	4	Finca Santa Victoria	7	Julio	2023-07-19T00:00:00	2024-11-08T08:00:00	8	Radiación solar	224
119549	7	Sololá	701	Sololá	4	Finca Santa Victoria	7	Julio	2023-07-19T00:00:00	2024-11-08T09:00:00	2	Temperatura media	16.6
119550	7	Sololá	701	Sololá	4	Finca Santa Victoria	7	Julio	2023-07-19T00:00:00	2024-11-08T09:00:00	4	Temperatura máxima	16.6
119551	7	Sololá	701	Sololá	4	Finca Santa Victoria	7	Julio	2023-07-19T00:00:00	2024-11-08T09:00:00	3	Temperatura mínima	14.3
119552	7	Sololá	701	Sololá	4	Finca Santa Victoria	7	Julio	2023-07-19T00:00:00	2024-11-08T09:00:00	5	Humedad	73
119553	7	Sololá	701	Sololá	4	Finca Santa Victoria	7	Julio	2023-07-19T00:00:00	2024-11-08T09:00:00	6	Velocidad del viento	6.4
119554	7	Sololá	701	Sololá	4	Finca Santa Victoria	7	Julio	2023-07-19T00:00:00	2024-11-08T09:00:00	7	Dirección del viento	6.44
119555	7	Sololá	701	Sololá	4	Finca Santa Victoria	7	Julio	2023-07-19T00:00:00	2024-11-08T09:00:00	1	Precipitación	0
119556	7	Sololá	701	Sololá	4	Finca Santa Victoria	7	Julio	2023-07-19T00:00:00	2024-11-08T09:00:00	8	Radiación solar	386
119557	7	Sololá	701	Sololá	4	Finca Santa Victoria	7	Julio	2023-07-19T00:00:00	2024-11-08T10:00:00	2	Temperatura media	17.2
119558	7	Sololá	701	Sololá	4	Finca Santa Victoria	7	Julio	2023-07-19T00:00:00	2024-11-08T10:00:00	4	Temperatura máxima	17.2
119559	7	Sololá	701	Sololá	4	Finca Santa Victoria	7	Julio	2023-07-19T00:00:00	2024-11-08T10:00:00	3	Temperatura mínima	16.4
119560	7	Sololá	701	Sololá	4	Finca Santa Victoria	7	Julio	2023-07-19T00:00:00	2024-11-08T10:00:00	5	Humedad	72
119561	7	Sololá	701	Sololá	4	Finca Santa Victoria	7	Julio	2023-07-19T00:00:00	2024-11-08T10:00:00	6	Velocidad del viento	4.8
119562	7	Sololá	701	Sololá	4	Finca Santa Victoria	7	Julio	2023-07-19T00:00:00	2024-11-08T10:00:00	7	Dirección del viento	4.83
119563	7	Sololá	701	Sololá	4	Finca Santa Victoria	7	Julio	2023-07-19T00:00:00	2024-11-08T10:00:00	1	Precipitación	0
119564	7	Sololá	701	Sololá	4	Finca Santa Victoria	7	Julio	2023-07-19T00:00:00	2024-11-08T10:00:00	8	Radiación solar	204
119565	7	Sololá	701	Sololá	4	Finca Santa Victoria	7	Julio	2023-07-19T00:00:00	2024-11-08T11:00:00	2	Temperatura media	19.3
119566	7	Sololá	701	Sololá	4	Finca Santa Victoria	7	Julio	2023-07-19T00:00:00	2024-11-08T11:00:00	4	Temperatura máxima	19.3
119567	7	Sololá	701	Sololá	4	Finca Santa Victoria	7	Julio	2023-07-19T00:00:00	2024-11-08T11:00:00	3	Temperatura mínima	17.2
119568	7	Sololá	701	Sololá	4	Finca Santa Victoria	7	Julio	2023-07-19T00:00:00	2024-11-08T11:00:00	5	Humedad	66
119569	7	Sololá	701	Sololá	4	Finca Santa Victoria	7	Julio	2023-07-19T00:00:00	2024-11-08T11:00:00	6	Velocidad del viento	4.8
119570	7	Sololá	701	Sololá	4	Finca Santa Victoria	7	Julio	2023-07-19T00:00:00	2024-11-08T11:00:00	7	Dirección del viento	4.83
119571	7	Sololá	701	Sololá	4	Finca Santa Victoria	7	Julio	2023-07-19T00:00:00	2024-11-08T11:00:00	1	Precipitación	0
119572	7	Sololá	701	Sololá	4	Finca Santa Victoria	7	Julio	2023-07-19T00:00:00	2024-11-08T11:00:00	8	Radiación solar	135
119573	7	Sololá	701	Sololá	4	Finca Santa Victoria	7	Julio	2023-07-19T00:00:00	2024-11-08T12:00:00	2	Temperatura media	20.6
119574	7	Sololá	701	Sololá	4	Finca Santa Victoria	7	Julio	2023-07-19T00:00:00	2024-11-08T12:00:00	4	Temperatura máxima	20.6
119575	7	Sololá	701	Sololá	4	Finca Santa Victoria	7	Julio	2023-07-19T00:00:00	2024-11-08T12:00:00	3	Temperatura mínima	19.2
119576	7	Sololá	701	Sololá	4	Finca Santa Victoria	7	Julio	2023-07-19T00:00:00	2024-11-08T12:00:00	5	Humedad	64
119577	7	Sololá	701	Sololá	4	Finca Santa Victoria	7	Julio	2023-07-19T00:00:00	2024-11-08T12:00:00	6	Velocidad del viento	4.8
119578	7	Sololá	701	Sololá	4	Finca Santa Victoria	7	Julio	2023-07-19T00:00:00	2024-11-08T12:00:00	7	Dirección del viento	4.83
119579	7	Sololá	701	Sololá	4	Finca Santa Victoria	7	Julio	2023-07-19T00:00:00	2024-11-08T12:00:00	1	Precipitación	0
119580	7	Sololá	701	Sololá	4	Finca Santa Victoria	7	Julio	2023-07-19T00:00:00	2024-11-08T12:00:00	8	Radiación solar	1005
119581	7	Sololá	701	Sololá	4	Finca Santa Victoria	7	Julio	2023-07-19T00:00:00	2024-11-08T13:00:00	2	Temperatura media	20.9
119582	7	Sololá	701	Sololá	4	Finca Santa Victoria	7	Julio	2023-07-19T00:00:00	2024-11-08T13:00:00	4	Temperatura máxima	21.1
119583	7	Sololá	701	Sololá	4	Finca Santa Victoria	7	Julio	2023-07-19T00:00:00	2024-11-08T13:00:00	3	Temperatura mínima	20.4
119584	7	Sololá	701	Sololá	4	Finca Santa Victoria	7	Julio	2023-07-19T00:00:00	2024-11-08T13:00:00	5	Humedad	61
119585	7	Sololá	701	Sololá	4	Finca Santa Victoria	7	Julio	2023-07-19T00:00:00	2024-11-08T13:00:00	6	Velocidad del viento	4.8
119586	7	Sololá	701	Sololá	4	Finca Santa Victoria	7	Julio	2023-07-19T00:00:00	2024-11-08T13:00:00	7	Dirección del viento	4.83
119587	7	Sololá	701	Sololá	4	Finca Santa Victoria	7	Julio	2023-07-19T00:00:00	2024-11-08T13:00:00	1	Precipitación	0
119588	7	Sololá	701	Sololá	4	Finca Santa Victoria	7	Julio	2023-07-19T00:00:00	2024-11-08T13:00:00	8	Radiación solar	1017
119589	7	Sololá	701	Sololá	4	Finca Santa Victoria	7	Julio	2023-07-19T00:00:00	2024-11-08T14:00:00	2	Temperatura media	21.2
119590	7	Sololá	701	Sololá	4	Finca Santa Victoria	7	Julio	2023-07-19T00:00:00	2024-11-08T14:00:00	4	Temperatura máxima	21.6
119591	7	Sololá	701	Sololá	4	Finca Santa Victoria	7	Julio	2023-07-19T00:00:00	2024-11-08T14:00:00	3	Temperatura mínima	20.9
119592	7	Sololá	701	Sololá	4	Finca Santa Victoria	7	Julio	2023-07-19T00:00:00	2024-11-08T14:00:00	5	Humedad	62
119593	7	Sololá	701	Sololá	4	Finca Santa Victoria	7	Julio	2023-07-19T00:00:00	2024-11-08T14:00:00	6	Velocidad del viento	4.8
119594	7	Sololá	701	Sololá	4	Finca Santa Victoria	7	Julio	2023-07-19T00:00:00	2024-11-08T14:00:00	7	Dirección del viento	4.83
119595	7	Sololá	701	Sololá	4	Finca Santa Victoria	7	Julio	2023-07-19T00:00:00	2024-11-08T14:00:00	1	Precipitación	0
119596	7	Sololá	701	Sololá	4	Finca Santa Victoria	7	Julio	2023-07-19T00:00:00	2024-11-08T14:00:00	8	Radiación solar	847
119597	7	Sololá	701	Sololá	4	Finca Santa Victoria	7	Julio	2023-07-19T00:00:00	2024-11-08T15:00:00	2	Temperatura media	20.7
119598	7	Sololá	701	Sololá	4	Finca Santa Victoria	7	Julio	2023-07-19T00:00:00	2024-11-08T15:00:00	4	Temperatura máxima	21.5
119599	7	Sololá	701	Sololá	4	Finca Santa Victoria	7	Julio	2023-07-19T00:00:00	2024-11-08T15:00:00	3	Temperatura mínima	20.7
119600	7	Sololá	701	Sololá	4	Finca Santa Victoria	7	Julio	2023-07-19T00:00:00	2024-11-08T15:00:00	5	Humedad	63
119601	7	Sololá	701	Sololá	4	Finca Santa Victoria	7	Julio	2023-07-19T00:00:00	2024-11-08T15:00:00	6	Velocidad del viento	4.8
119602	7	Sololá	701	Sololá	4	Finca Santa Victoria	7	Julio	2023-07-19T00:00:00	2024-11-08T15:00:00	7	Dirección del viento	4.83
119603	7	Sololá	701	Sololá	4	Finca Santa Victoria	7	Julio	2023-07-19T00:00:00	2024-11-08T15:00:00	1	Precipitación	0
119604	7	Sololá	701	Sololá	4	Finca Santa Victoria	7	Julio	2023-07-19T00:00:00	2024-11-08T15:00:00	8	Radiación solar	334
119605	7	Sololá	701	Sololá	4	Finca Santa Victoria	7	Julio	2023-07-19T00:00:00	2024-11-08T16:00:00	2	Temperatura media	19.5
119606	7	Sololá	701	Sololá	4	Finca Santa Victoria	7	Julio	2023-07-19T00:00:00	2024-11-08T16:00:00	4	Temperatura máxima	20.9
119607	7	Sololá	701	Sololá	4	Finca Santa Victoria	7	Julio	2023-07-19T00:00:00	2024-11-08T16:00:00	3	Temperatura mínima	19.5
119608	7	Sololá	701	Sololá	4	Finca Santa Victoria	7	Julio	2023-07-19T00:00:00	2024-11-08T16:00:00	5	Humedad	68
119609	7	Sololá	701	Sololá	4	Finca Santa Victoria	7	Julio	2023-07-19T00:00:00	2024-11-08T16:00:00	6	Velocidad del viento	4.8
119610	7	Sololá	701	Sololá	4	Finca Santa Victoria	7	Julio	2023-07-19T00:00:00	2024-11-08T16:00:00	7	Dirección del viento	4.83
119611	7	Sololá	701	Sololá	4	Finca Santa Victoria	7	Julio	2023-07-19T00:00:00	2024-11-08T16:00:00	1	Precipitación	0
119612	7	Sololá	701	Sololá	4	Finca Santa Victoria	7	Julio	2023-07-19T00:00:00	2024-11-08T16:00:00	8	Radiación solar	197
119613	7	Sololá	701	Sololá	4	Finca Santa Victoria	7	Julio	2023-07-19T00:00:00	2024-11-08T17:00:00	2	Temperatura media	19.5
119614	7	Sololá	701	Sololá	4	Finca Santa Victoria	7	Julio	2023-07-19T00:00:00	2024-11-08T17:00:00	4	Temperatura máxima	20.2
119615	7	Sololá	701	Sololá	4	Finca Santa Victoria	7	Julio	2023-07-19T00:00:00	2024-11-08T17:00:00	3	Temperatura mínima	19.2
119616	7	Sololá	701	Sololá	4	Finca Santa Victoria	7	Julio	2023-07-19T00:00:00	2024-11-08T17:00:00	5	Humedad	68
119617	7	Sololá	701	Sololá	4	Finca Santa Victoria	7	Julio	2023-07-19T00:00:00	2024-11-08T17:00:00	6	Velocidad del viento	3.2
119618	7	Sololá	701	Sololá	4	Finca Santa Victoria	7	Julio	2023-07-19T00:00:00	2024-11-08T17:00:00	7	Dirección del viento	3.22
119619	7	Sololá	701	Sololá	4	Finca Santa Victoria	7	Julio	2023-07-19T00:00:00	2024-11-08T17:00:00	1	Precipitación	0
119620	7	Sololá	701	Sololá	4	Finca Santa Victoria	7	Julio	2023-07-19T00:00:00	2024-11-08T17:00:00	8	Radiación solar	124
119621	7	Sololá	701	Sololá	4	Finca Santa Victoria	7	Julio	2023-07-19T00:00:00	2024-11-08T18:00:00	2	Temperatura media	17.1
119622	7	Sololá	701	Sololá	4	Finca Santa Victoria	7	Julio	2023-07-19T00:00:00	2024-11-08T18:00:00	4	Temperatura máxima	19.5
119623	7	Sololá	701	Sololá	4	Finca Santa Victoria	7	Julio	2023-07-19T00:00:00	2024-11-08T18:00:00	3	Temperatura mínima	17.1
119624	7	Sololá	701	Sololá	4	Finca Santa Victoria	7	Julio	2023-07-19T00:00:00	2024-11-08T18:00:00	5	Humedad	75
119625	7	Sololá	701	Sololá	4	Finca Santa Victoria	7	Julio	2023-07-19T00:00:00	2024-11-08T18:00:00	6	Velocidad del viento	3.2
119626	7	Sololá	701	Sololá	4	Finca Santa Victoria	7	Julio	2023-07-19T00:00:00	2024-11-08T18:00:00	7	Dirección del viento	3.22
119627	7	Sololá	701	Sololá	4	Finca Santa Victoria	7	Julio	2023-07-19T00:00:00	2024-11-08T18:00:00	1	Precipitación	0
119628	7	Sololá	701	Sololá	4	Finca Santa Victoria	7	Julio	2023-07-19T00:00:00	2024-11-08T18:00:00	8	Radiación solar	47
119629	7	Sololá	701	Sololá	4	Finca Santa Victoria	7	Julio	2023-07-19T00:00:00	2024-11-08T19:00:00	2	Temperatura media	16.3
119630	7	Sololá	701	Sololá	4	Finca Santa Victoria	7	Julio	2023-07-19T00:00:00	2024-11-08T19:00:00	4	Temperatura máxima	17.1
119631	7	Sololá	701	Sololá	4	Finca Santa Victoria	7	Julio	2023-07-19T00:00:00	2024-11-08T19:00:00	3	Temperatura mínima	16.3
119632	7	Sololá	701	Sololá	4	Finca Santa Victoria	7	Julio	2023-07-19T00:00:00	2024-11-08T19:00:00	5	Humedad	80
119633	7	Sololá	701	Sololá	4	Finca Santa Victoria	7	Julio	2023-07-19T00:00:00	2024-11-08T19:00:00	6	Velocidad del viento	1.6
119634	7	Sololá	701	Sololá	4	Finca Santa Victoria	7	Julio	2023-07-19T00:00:00	2024-11-08T19:00:00	7	Dirección del viento	1.61
119635	7	Sololá	701	Sololá	4	Finca Santa Victoria	7	Julio	2023-07-19T00:00:00	2024-11-08T19:00:00	1	Precipitación	0
119636	7	Sololá	701	Sololá	4	Finca Santa Victoria	7	Julio	2023-07-19T00:00:00	2024-11-08T19:00:00	8	Radiación solar	0
119637	7	Sololá	701	Sololá	4	Finca Santa Victoria	7	Julio	2023-07-19T00:00:00	2024-11-08T20:00:00	2	Temperatura media	16.2
119638	7	Sololá	701	Sololá	4	Finca Santa Victoria	7	Julio	2023-07-19T00:00:00	2024-11-08T20:00:00	4	Temperatura máxima	16.4
119639	7	Sololá	701	Sololá	4	Finca Santa Victoria	7	Julio	2023-07-19T00:00:00	2024-11-08T20:00:00	3	Temperatura mínima	16.1
119640	7	Sololá	701	Sololá	4	Finca Santa Victoria	7	Julio	2023-07-19T00:00:00	2024-11-08T20:00:00	5	Humedad	82
119641	7	Sololá	701	Sololá	4	Finca Santa Victoria	7	Julio	2023-07-19T00:00:00	2024-11-08T20:00:00	6	Velocidad del viento	1.6
119642	7	Sololá	701	Sololá	4	Finca Santa Victoria	7	Julio	2023-07-19T00:00:00	2024-11-08T20:00:00	7	Dirección del viento	1.61
119643	7	Sololá	701	Sololá	4	Finca Santa Victoria	7	Julio	2023-07-19T00:00:00	2024-11-08T20:00:00	1	Precipitación	0
119644	7	Sololá	701	Sololá	4	Finca Santa Victoria	7	Julio	2023-07-19T00:00:00	2024-11-08T20:00:00	8	Radiación solar	0
119645	7	Sololá	701	Sololá	4	Finca Santa Victoria	7	Julio	2023-07-19T00:00:00	2024-11-08T21:00:00	2	Temperatura media	15.8
119646	7	Sololá	701	Sololá	4	Finca Santa Victoria	7	Julio	2023-07-19T00:00:00	2024-11-08T21:00:00	4	Temperatura máxima	16.2
119647	7	Sololá	701	Sololá	4	Finca Santa Victoria	7	Julio	2023-07-19T00:00:00	2024-11-08T21:00:00	3	Temperatura mínima	15.7
119648	7	Sololá	701	Sololá	4	Finca Santa Victoria	7	Julio	2023-07-19T00:00:00	2024-11-08T21:00:00	5	Humedad	84
119649	7	Sololá	701	Sololá	4	Finca Santa Victoria	7	Julio	2023-07-19T00:00:00	2024-11-08T21:00:00	6	Velocidad del viento	3.2
119650	7	Sololá	701	Sololá	4	Finca Santa Victoria	7	Julio	2023-07-19T00:00:00	2024-11-08T21:00:00	7	Dirección del viento	3.22
119651	7	Sololá	701	Sololá	4	Finca Santa Victoria	7	Julio	2023-07-19T00:00:00	2024-11-08T21:00:00	1	Precipitación	0
119652	7	Sololá	701	Sololá	4	Finca Santa Victoria	7	Julio	2023-07-19T00:00:00	2024-11-08T21:00:00	8	Radiación solar	0
119653	7	Sololá	701	Sololá	4	Finca Santa Victoria	7	Julio	2023-07-19T00:00:00	2024-11-08T22:00:00	2	Temperatura media	15.2
119654	7	Sololá	701	Sololá	4	Finca Santa Victoria	7	Julio	2023-07-19T00:00:00	2024-11-08T22:00:00	4	Temperatura máxima	15.8
119655	7	Sololá	701	Sololá	4	Finca Santa Victoria	7	Julio	2023-07-19T00:00:00	2024-11-08T22:00:00	3	Temperatura mínima	15.2
119656	7	Sololá	701	Sololá	4	Finca Santa Victoria	7	Julio	2023-07-19T00:00:00	2024-11-08T22:00:00	5	Humedad	85
119657	7	Sololá	701	Sololá	4	Finca Santa Victoria	7	Julio	2023-07-19T00:00:00	2024-11-08T22:00:00	6	Velocidad del viento	3.2
119658	7	Sololá	701	Sololá	4	Finca Santa Victoria	7	Julio	2023-07-19T00:00:00	2024-11-08T22:00:00	7	Dirección del viento	3.22
119659	7	Sololá	701	Sololá	4	Finca Santa Victoria	7	Julio	2023-07-19T00:00:00	2024-11-08T22:00:00	1	Precipitación	0
119660	7	Sololá	701	Sololá	4	Finca Santa Victoria	7	Julio	2023-07-19T00:00:00	2024-11-08T22:00:00	8	Radiación solar	0
119661	7	Sololá	701	Sololá	4	Finca Santa Victoria	7	Julio	2023-07-19T00:00:00	2024-11-08T23:00:00	2	Temperatura media	14.7
119662	7	Sololá	701	Sololá	4	Finca Santa Victoria	7	Julio	2023-07-19T00:00:00	2024-11-08T23:00:00	4	Temperatura máxima	15.2
119663	7	Sololá	701	Sololá	4	Finca Santa Victoria	7	Julio	2023-07-19T00:00:00	2024-11-08T23:00:00	3	Temperatura mínima	14.7
119664	7	Sololá	701	Sololá	4	Finca Santa Victoria	7	Julio	2023-07-19T00:00:00	2024-11-08T23:00:00	5	Humedad	87
119665	7	Sololá	701	Sololá	4	Finca Santa Victoria	7	Julio	2023-07-19T00:00:00	2024-11-08T23:00:00	6	Velocidad del viento	1.6
119666	7	Sololá	701	Sololá	4	Finca Santa Victoria	7	Julio	2023-07-19T00:00:00	2024-11-08T23:00:00	7	Dirección del viento	1.61
119667	7	Sololá	701	Sololá	4	Finca Santa Victoria	7	Julio	2023-07-19T00:00:00	2024-11-08T23:00:00	1	Precipitación	0
119668	7	Sololá	701	Sololá	4	Finca Santa Victoria	7	Julio	2023-07-19T00:00:00	2024-11-08T23:00:00	8	Radiación solar	0
119669	7	Sololá	701	Sololá	4	Finca Santa Victoria	7	Julio	2023-07-20T00:00:00	2024-11-08T00:00:00	2	Temperatura media	14.7
119670	7	Sololá	701	Sololá	4	Finca Santa Victoria	7	Julio	2023-07-20T00:00:00	2024-11-08T00:00:00	4	Temperatura máxima	14.8
119671	7	Sololá	701	Sololá	4	Finca Santa Victoria	7	Julio	2023-07-20T00:00:00	2024-11-08T00:00:00	3	Temperatura mínima	14.5
119672	7	Sololá	701	Sololá	4	Finca Santa Victoria	7	Julio	2023-07-20T00:00:00	2024-11-08T00:00:00	5	Humedad	87
119673	7	Sololá	701	Sololá	4	Finca Santa Victoria	7	Julio	2023-07-20T00:00:00	2024-11-08T00:00:00	6	Velocidad del viento	3.2
119674	7	Sololá	701	Sololá	4	Finca Santa Victoria	7	Julio	2023-07-20T00:00:00	2024-11-08T00:00:00	7	Dirección del viento	3.22
119675	7	Sololá	701	Sololá	4	Finca Santa Victoria	7	Julio	2023-07-20T00:00:00	2024-11-08T00:00:00	1	Precipitación	0
119676	7	Sololá	701	Sololá	4	Finca Santa Victoria	7	Julio	2023-07-20T00:00:00	2024-11-08T00:00:00	8	Radiación solar	0
119677	7	Sololá	701	Sololá	4	Finca Santa Victoria	7	Julio	2023-07-20T00:00:00	2024-11-08T01:00:00	2	Temperatura media	14.7
119678	7	Sololá	701	Sololá	4	Finca Santa Victoria	7	Julio	2023-07-20T00:00:00	2024-11-08T01:00:00	4	Temperatura máxima	14.8
119679	7	Sololá	701	Sololá	4	Finca Santa Victoria	7	Julio	2023-07-20T00:00:00	2024-11-08T01:00:00	3	Temperatura mínima	14.7
119680	7	Sololá	701	Sololá	4	Finca Santa Victoria	7	Julio	2023-07-20T00:00:00	2024-11-08T01:00:00	5	Humedad	86
119681	7	Sololá	701	Sololá	4	Finca Santa Victoria	7	Julio	2023-07-20T00:00:00	2024-11-08T01:00:00	6	Velocidad del viento	3.2
119682	7	Sololá	701	Sololá	4	Finca Santa Victoria	7	Julio	2023-07-20T00:00:00	2024-11-08T01:00:00	7	Dirección del viento	3.22
119683	7	Sololá	701	Sololá	4	Finca Santa Victoria	7	Julio	2023-07-20T00:00:00	2024-11-08T01:00:00	1	Precipitación	0
119684	7	Sololá	701	Sololá	4	Finca Santa Victoria	7	Julio	2023-07-20T00:00:00	2024-11-08T01:00:00	8	Radiación solar	0
119685	7	Sololá	701	Sololá	4	Finca Santa Victoria	7	Julio	2023-07-20T00:00:00	2024-11-08T02:00:00	2	Temperatura media	14.5
119686	7	Sololá	701	Sololá	4	Finca Santa Victoria	7	Julio	2023-07-20T00:00:00	2024-11-08T02:00:00	4	Temperatura máxima	14.7
119687	7	Sololá	701	Sololá	4	Finca Santa Victoria	7	Julio	2023-07-20T00:00:00	2024-11-08T02:00:00	3	Temperatura mínima	14.4
119688	7	Sololá	701	Sololá	4	Finca Santa Victoria	7	Julio	2023-07-20T00:00:00	2024-11-08T02:00:00	5	Humedad	87
119689	7	Sololá	701	Sololá	4	Finca Santa Victoria	7	Julio	2023-07-20T00:00:00	2024-11-08T02:00:00	6	Velocidad del viento	3.2
119690	7	Sololá	701	Sololá	4	Finca Santa Victoria	7	Julio	2023-07-20T00:00:00	2024-11-08T02:00:00	7	Dirección del viento	3.22
119691	7	Sololá	701	Sololá	4	Finca Santa Victoria	7	Julio	2023-07-20T00:00:00	2024-11-08T02:00:00	1	Precipitación	0
119692	7	Sololá	701	Sololá	4	Finca Santa Victoria	7	Julio	2023-07-20T00:00:00	2024-11-08T02:00:00	8	Radiación solar	0
119693	7	Sololá	701	Sololá	4	Finca Santa Victoria	7	Julio	2023-07-20T00:00:00	2024-11-08T03:00:00	2	Temperatura media	14.5
119694	7	Sololá	701	Sololá	4	Finca Santa Victoria	7	Julio	2023-07-20T00:00:00	2024-11-08T03:00:00	4	Temperatura máxima	14.6
119695	7	Sololá	701	Sololá	4	Finca Santa Victoria	7	Julio	2023-07-20T00:00:00	2024-11-08T03:00:00	3	Temperatura mínima	14.5
119696	7	Sololá	701	Sololá	4	Finca Santa Victoria	7	Julio	2023-07-20T00:00:00	2024-11-08T03:00:00	5	Humedad	87
119697	7	Sololá	701	Sololá	4	Finca Santa Victoria	7	Julio	2023-07-20T00:00:00	2024-11-08T03:00:00	6	Velocidad del viento	3.2
119698	7	Sololá	701	Sololá	4	Finca Santa Victoria	7	Julio	2023-07-20T00:00:00	2024-11-08T03:00:00	7	Dirección del viento	3.22
119699	7	Sololá	701	Sololá	4	Finca Santa Victoria	7	Julio	2023-07-20T00:00:00	2024-11-08T03:00:00	1	Precipitación	0
119700	7	Sololá	701	Sololá	4	Finca Santa Victoria	7	Julio	2023-07-20T00:00:00	2024-11-08T03:00:00	8	Radiación solar	0
119701	7	Sololá	701	Sololá	4	Finca Santa Victoria	7	Julio	2023-07-20T00:00:00	2024-11-08T04:00:00	2	Temperatura media	14.4
119702	7	Sololá	701	Sololá	4	Finca Santa Victoria	7	Julio	2023-07-20T00:00:00	2024-11-08T04:00:00	4	Temperatura máxima	14.6
119703	7	Sololá	701	Sololá	4	Finca Santa Victoria	7	Julio	2023-07-20T00:00:00	2024-11-08T04:00:00	3	Temperatura mínima	14.4
119704	7	Sololá	701	Sololá	4	Finca Santa Victoria	7	Julio	2023-07-20T00:00:00	2024-11-08T04:00:00	5	Humedad	86
119705	7	Sololá	701	Sololá	4	Finca Santa Victoria	7	Julio	2023-07-20T00:00:00	2024-11-08T04:00:00	6	Velocidad del viento	3.2
119706	7	Sololá	701	Sololá	4	Finca Santa Victoria	7	Julio	2023-07-20T00:00:00	2024-11-08T04:00:00	7	Dirección del viento	3.22
119707	7	Sololá	701	Sololá	4	Finca Santa Victoria	7	Julio	2023-07-20T00:00:00	2024-11-08T04:00:00	1	Precipitación	0
119708	7	Sololá	701	Sololá	4	Finca Santa Victoria	7	Julio	2023-07-20T00:00:00	2024-11-08T04:00:00	8	Radiación solar	0
119709	7	Sololá	701	Sololá	4	Finca Santa Victoria	7	Julio	2023-07-20T00:00:00	2024-11-08T05:00:00	2	Temperatura media	14.3
119710	7	Sololá	701	Sololá	4	Finca Santa Victoria	7	Julio	2023-07-20T00:00:00	2024-11-08T05:00:00	4	Temperatura máxima	14.5
119711	7	Sololá	701	Sololá	4	Finca Santa Victoria	7	Julio	2023-07-20T00:00:00	2024-11-08T05:00:00	3	Temperatura mínima	14.3
119712	7	Sololá	701	Sololá	4	Finca Santa Victoria	7	Julio	2023-07-20T00:00:00	2024-11-08T05:00:00	5	Humedad	86
119713	7	Sololá	701	Sololá	4	Finca Santa Victoria	7	Julio	2023-07-20T00:00:00	2024-11-08T05:00:00	6	Velocidad del viento	3.2
119714	7	Sololá	701	Sololá	4	Finca Santa Victoria	7	Julio	2023-07-20T00:00:00	2024-11-08T05:00:00	7	Dirección del viento	3.22
119715	7	Sololá	701	Sololá	4	Finca Santa Victoria	7	Julio	2023-07-20T00:00:00	2024-11-08T05:00:00	1	Precipitación	0
119716	7	Sololá	701	Sololá	4	Finca Santa Victoria	7	Julio	2023-07-20T00:00:00	2024-11-08T05:00:00	8	Radiación solar	0
119717	7	Sololá	701	Sololá	4	Finca Santa Victoria	7	Julio	2023-07-20T00:00:00	2024-11-08T06:00:00	2	Temperatura media	14.2
119718	7	Sololá	701	Sololá	4	Finca Santa Victoria	7	Julio	2023-07-20T00:00:00	2024-11-08T06:00:00	4	Temperatura máxima	14.4
119719	7	Sololá	701	Sololá	4	Finca Santa Victoria	7	Julio	2023-07-20T00:00:00	2024-11-08T06:00:00	3	Temperatura mínima	14.2
119720	7	Sololá	701	Sololá	4	Finca Santa Victoria	7	Julio	2023-07-20T00:00:00	2024-11-08T06:00:00	5	Humedad	88
119721	7	Sololá	701	Sololá	4	Finca Santa Victoria	7	Julio	2023-07-20T00:00:00	2024-11-08T06:00:00	6	Velocidad del viento	4.8
119722	7	Sololá	701	Sololá	4	Finca Santa Victoria	7	Julio	2023-07-20T00:00:00	2024-11-08T06:00:00	7	Dirección del viento	4.83
119723	7	Sololá	701	Sololá	4	Finca Santa Victoria	7	Julio	2023-07-20T00:00:00	2024-11-08T06:00:00	1	Precipitación	0
119724	7	Sololá	701	Sololá	4	Finca Santa Victoria	7	Julio	2023-07-20T00:00:00	2024-11-08T06:00:00	8	Radiación solar	1
119725	7	Sololá	701	Sololá	4	Finca Santa Victoria	7	Julio	2023-07-20T00:00:00	2024-11-08T07:00:00	2	Temperatura media	14.6
119726	7	Sololá	701	Sololá	4	Finca Santa Victoria	7	Julio	2023-07-20T00:00:00	2024-11-08T07:00:00	4	Temperatura máxima	14.6
119727	7	Sololá	701	Sololá	4	Finca Santa Victoria	7	Julio	2023-07-20T00:00:00	2024-11-08T07:00:00	3	Temperatura mínima	14.1
119728	7	Sololá	701	Sololá	4	Finca Santa Victoria	7	Julio	2023-07-20T00:00:00	2024-11-08T07:00:00	5	Humedad	88
119729	7	Sololá	701	Sololá	4	Finca Santa Victoria	7	Julio	2023-07-20T00:00:00	2024-11-08T07:00:00	6	Velocidad del viento	4.8
119730	7	Sololá	701	Sololá	4	Finca Santa Victoria	7	Julio	2023-07-20T00:00:00	2024-11-08T07:00:00	7	Dirección del viento	4.83
119731	7	Sololá	701	Sololá	4	Finca Santa Victoria	7	Julio	2023-07-20T00:00:00	2024-11-08T07:00:00	1	Precipitación	0
119732	7	Sololá	701	Sololá	4	Finca Santa Victoria	7	Julio	2023-07-20T00:00:00	2024-11-08T07:00:00	8	Radiación solar	35
119733	7	Sololá	701	Sololá	4	Finca Santa Victoria	7	Julio	2023-07-20T00:00:00	2024-11-08T08:00:00	2	Temperatura media	16.5
119734	7	Sololá	701	Sololá	4	Finca Santa Victoria	7	Julio	2023-07-20T00:00:00	2024-11-08T08:00:00	4	Temperatura máxima	16.6
119735	7	Sololá	701	Sololá	4	Finca Santa Victoria	7	Julio	2023-07-20T00:00:00	2024-11-08T08:00:00	3	Temperatura mínima	14.6
119736	7	Sololá	701	Sololá	4	Finca Santa Victoria	7	Julio	2023-07-20T00:00:00	2024-11-08T08:00:00	5	Humedad	81
119737	7	Sololá	701	Sololá	4	Finca Santa Victoria	7	Julio	2023-07-20T00:00:00	2024-11-08T08:00:00	6	Velocidad del viento	4.8
119738	7	Sololá	701	Sololá	4	Finca Santa Victoria	7	Julio	2023-07-20T00:00:00	2024-11-08T08:00:00	7	Dirección del viento	4.83
119739	7	Sololá	701	Sololá	4	Finca Santa Victoria	7	Julio	2023-07-20T00:00:00	2024-11-08T08:00:00	1	Precipitación	0
119740	7	Sololá	701	Sololá	4	Finca Santa Victoria	7	Julio	2023-07-20T00:00:00	2024-11-08T08:00:00	8	Radiación solar	233
119741	7	Sololá	701	Sololá	4	Finca Santa Victoria	7	Julio	2023-07-20T00:00:00	2024-11-08T09:00:00	2	Temperatura media	17.4
119742	7	Sololá	701	Sololá	4	Finca Santa Victoria	7	Julio	2023-07-20T00:00:00	2024-11-08T09:00:00	4	Temperatura máxima	17.4
119743	7	Sololá	701	Sololá	4	Finca Santa Victoria	7	Julio	2023-07-20T00:00:00	2024-11-08T09:00:00	3	Temperatura mínima	16.4
119744	7	Sololá	701	Sololá	4	Finca Santa Victoria	7	Julio	2023-07-20T00:00:00	2024-11-08T09:00:00	5	Humedad	79
119745	7	Sololá	701	Sololá	4	Finca Santa Victoria	7	Julio	2023-07-20T00:00:00	2024-11-08T09:00:00	6	Velocidad del viento	4.8
119746	7	Sololá	701	Sololá	4	Finca Santa Victoria	7	Julio	2023-07-20T00:00:00	2024-11-08T09:00:00	7	Dirección del viento	4.83
119747	7	Sololá	701	Sololá	4	Finca Santa Victoria	7	Julio	2023-07-20T00:00:00	2024-11-08T09:00:00	1	Precipitación	0
119748	7	Sololá	701	Sololá	4	Finca Santa Victoria	7	Julio	2023-07-20T00:00:00	2024-11-08T09:00:00	8	Radiación solar	347
119749	7	Sololá	701	Sololá	4	Finca Santa Victoria	7	Julio	2023-07-20T00:00:00	2024-11-08T10:00:00	2	Temperatura media	18.5
119750	7	Sololá	701	Sololá	4	Finca Santa Victoria	7	Julio	2023-07-20T00:00:00	2024-11-08T10:00:00	4	Temperatura máxima	18.7
119751	7	Sololá	701	Sololá	4	Finca Santa Victoria	7	Julio	2023-07-20T00:00:00	2024-11-08T10:00:00	3	Temperatura mínima	17.4
119752	7	Sololá	701	Sololá	4	Finca Santa Victoria	7	Julio	2023-07-20T00:00:00	2024-11-08T10:00:00	5	Humedad	74
119753	7	Sololá	701	Sololá	4	Finca Santa Victoria	7	Julio	2023-07-20T00:00:00	2024-11-08T10:00:00	6	Velocidad del viento	4.8
119754	7	Sololá	701	Sololá	4	Finca Santa Victoria	7	Julio	2023-07-20T00:00:00	2024-11-08T10:00:00	7	Dirección del viento	4.83
119755	7	Sololá	701	Sololá	4	Finca Santa Victoria	7	Julio	2023-07-20T00:00:00	2024-11-08T10:00:00	1	Precipitación	0
119756	7	Sololá	701	Sololá	4	Finca Santa Victoria	7	Julio	2023-07-20T00:00:00	2024-11-08T10:00:00	8	Radiación solar	166
119757	7	Sololá	701	Sololá	4	Finca Santa Victoria	7	Julio	2023-07-20T00:00:00	2024-11-08T11:00:00	2	Temperatura media	20.2
119758	7	Sololá	701	Sololá	4	Finca Santa Victoria	7	Julio	2023-07-20T00:00:00	2024-11-08T11:00:00	4	Temperatura máxima	20.4
119759	7	Sololá	701	Sololá	4	Finca Santa Victoria	7	Julio	2023-07-20T00:00:00	2024-11-08T11:00:00	3	Temperatura mínima	18.4
119760	7	Sololá	701	Sololá	4	Finca Santa Victoria	7	Julio	2023-07-20T00:00:00	2024-11-08T11:00:00	5	Humedad	69
119761	7	Sololá	701	Sololá	4	Finca Santa Victoria	7	Julio	2023-07-20T00:00:00	2024-11-08T11:00:00	6	Velocidad del viento	4.8
119762	7	Sololá	701	Sololá	4	Finca Santa Victoria	7	Julio	2023-07-20T00:00:00	2024-11-08T11:00:00	7	Dirección del viento	4.83
119763	7	Sololá	701	Sololá	4	Finca Santa Victoria	7	Julio	2023-07-20T00:00:00	2024-11-08T11:00:00	1	Precipitación	0
119764	7	Sololá	701	Sololá	4	Finca Santa Victoria	7	Julio	2023-07-20T00:00:00	2024-11-08T11:00:00	8	Radiación solar	165
119765	7	Sololá	701	Sololá	4	Finca Santa Victoria	7	Julio	2023-07-20T00:00:00	2024-11-08T12:00:00	2	Temperatura media	19.8
119766	7	Sololá	701	Sololá	4	Finca Santa Victoria	7	Julio	2023-07-20T00:00:00	2024-11-08T12:00:00	4	Temperatura máxima	20.4
119767	7	Sololá	701	Sololá	4	Finca Santa Victoria	7	Julio	2023-07-20T00:00:00	2024-11-08T12:00:00	3	Temperatura mínima	19.8
119768	7	Sololá	701	Sololá	4	Finca Santa Victoria	7	Julio	2023-07-20T00:00:00	2024-11-08T12:00:00	5	Humedad	71
119769	7	Sololá	701	Sololá	4	Finca Santa Victoria	7	Julio	2023-07-20T00:00:00	2024-11-08T12:00:00	6	Velocidad del viento	4.8
119770	7	Sololá	701	Sololá	4	Finca Santa Victoria	7	Julio	2023-07-20T00:00:00	2024-11-08T12:00:00	7	Dirección del viento	4.83
119771	7	Sololá	701	Sololá	4	Finca Santa Victoria	7	Julio	2023-07-20T00:00:00	2024-11-08T12:00:00	1	Precipitación	0
119772	7	Sololá	701	Sololá	4	Finca Santa Victoria	7	Julio	2023-07-20T00:00:00	2024-11-08T12:00:00	8	Radiación solar	787
119773	7	Sololá	701	Sololá	4	Finca Santa Victoria	7	Julio	2023-07-20T00:00:00	2024-11-08T13:00:00	2	Temperatura media	21.1
119774	7	Sololá	701	Sololá	4	Finca Santa Victoria	7	Julio	2023-07-20T00:00:00	2024-11-08T13:00:00	4	Temperatura máxima	21.2
119775	7	Sololá	701	Sololá	4	Finca Santa Victoria	7	Julio	2023-07-20T00:00:00	2024-11-08T13:00:00	3	Temperatura mínima	19.8
119776	7	Sololá	701	Sololá	4	Finca Santa Victoria	7	Julio	2023-07-20T00:00:00	2024-11-08T13:00:00	5	Humedad	67
119777	7	Sololá	701	Sololá	4	Finca Santa Victoria	7	Julio	2023-07-20T00:00:00	2024-11-08T13:00:00	6	Velocidad del viento	4.8
119778	7	Sololá	701	Sololá	4	Finca Santa Victoria	7	Julio	2023-07-20T00:00:00	2024-11-08T13:00:00	7	Dirección del viento	4.83
119779	7	Sololá	701	Sololá	4	Finca Santa Victoria	7	Julio	2023-07-20T00:00:00	2024-11-08T13:00:00	1	Precipitación	0
119780	7	Sololá	701	Sololá	4	Finca Santa Victoria	7	Julio	2023-07-20T00:00:00	2024-11-08T13:00:00	8	Radiación solar	800
119781	7	Sololá	701	Sololá	4	Finca Santa Victoria	7	Julio	2023-07-20T00:00:00	2024-11-08T14:00:00	2	Temperatura media	21.3
119782	7	Sololá	701	Sololá	4	Finca Santa Victoria	7	Julio	2023-07-20T00:00:00	2024-11-08T14:00:00	4	Temperatura máxima	22.1
119783	7	Sololá	701	Sololá	4	Finca Santa Victoria	7	Julio	2023-07-20T00:00:00	2024-11-08T14:00:00	3	Temperatura mínima	20.9
119784	7	Sololá	701	Sololá	4	Finca Santa Victoria	7	Julio	2023-07-20T00:00:00	2024-11-08T14:00:00	5	Humedad	67
119785	7	Sololá	701	Sololá	4	Finca Santa Victoria	7	Julio	2023-07-20T00:00:00	2024-11-08T14:00:00	6	Velocidad del viento	4.8
119786	7	Sololá	701	Sololá	4	Finca Santa Victoria	7	Julio	2023-07-20T00:00:00	2024-11-08T14:00:00	7	Dirección del viento	4.83
119787	7	Sololá	701	Sololá	4	Finca Santa Victoria	7	Julio	2023-07-20T00:00:00	2024-11-08T14:00:00	1	Precipitación	0
119788	7	Sololá	701	Sololá	4	Finca Santa Victoria	7	Julio	2023-07-20T00:00:00	2024-11-08T14:00:00	8	Radiación solar	678
119789	7	Sololá	701	Sololá	4	Finca Santa Victoria	7	Julio	2023-07-20T00:00:00	2024-11-08T15:00:00	2	Temperatura media	21.3
119790	7	Sololá	701	Sololá	4	Finca Santa Victoria	7	Julio	2023-07-20T00:00:00	2024-11-08T15:00:00	4	Temperatura máxima	21.6
119791	7	Sololá	701	Sololá	4	Finca Santa Victoria	7	Julio	2023-07-20T00:00:00	2024-11-08T15:00:00	3	Temperatura mínima	20.8
119792	7	Sololá	701	Sololá	4	Finca Santa Victoria	7	Julio	2023-07-20T00:00:00	2024-11-08T15:00:00	5	Humedad	66
119793	7	Sololá	701	Sololá	4	Finca Santa Victoria	7	Julio	2023-07-20T00:00:00	2024-11-08T15:00:00	6	Velocidad del viento	4.8
119794	7	Sololá	701	Sololá	4	Finca Santa Victoria	7	Julio	2023-07-20T00:00:00	2024-11-08T15:00:00	7	Dirección del viento	4.83
119795	7	Sololá	701	Sololá	4	Finca Santa Victoria	7	Julio	2023-07-20T00:00:00	2024-11-08T15:00:00	1	Precipitación	0
119796	7	Sololá	701	Sololá	4	Finca Santa Victoria	7	Julio	2023-07-20T00:00:00	2024-11-08T15:00:00	8	Radiación solar	193
119797	7	Sololá	701	Sololá	4	Finca Santa Victoria	7	Julio	2023-07-20T00:00:00	2024-11-08T16:00:00	2	Temperatura media	20.8
119798	7	Sololá	701	Sololá	4	Finca Santa Victoria	7	Julio	2023-07-20T00:00:00	2024-11-08T16:00:00	4	Temperatura máxima	21.3
119799	7	Sololá	701	Sololá	4	Finca Santa Victoria	7	Julio	2023-07-20T00:00:00	2024-11-08T16:00:00	3	Temperatura mínima	20.4
119800	7	Sololá	701	Sololá	4	Finca Santa Victoria	7	Julio	2023-07-20T00:00:00	2024-11-08T16:00:00	5	Humedad	67
119801	7	Sololá	701	Sololá	4	Finca Santa Victoria	7	Julio	2023-07-20T00:00:00	2024-11-08T16:00:00	6	Velocidad del viento	4.8
119802	7	Sololá	701	Sololá	4	Finca Santa Victoria	7	Julio	2023-07-20T00:00:00	2024-11-08T16:00:00	7	Dirección del viento	4.83
119803	7	Sololá	701	Sololá	4	Finca Santa Victoria	7	Julio	2023-07-20T00:00:00	2024-11-08T16:00:00	1	Precipitación	0
119804	7	Sololá	701	Sololá	4	Finca Santa Victoria	7	Julio	2023-07-20T00:00:00	2024-11-08T16:00:00	8	Radiación solar	125
119805	7	Sololá	701	Sololá	4	Finca Santa Victoria	7	Julio	2023-07-20T00:00:00	2024-11-08T17:00:00	2	Temperatura media	19.2
119806	7	Sololá	701	Sololá	4	Finca Santa Victoria	7	Julio	2023-07-20T00:00:00	2024-11-08T17:00:00	4	Temperatura máxima	20.8
119807	7	Sololá	701	Sololá	4	Finca Santa Victoria	7	Julio	2023-07-20T00:00:00	2024-11-08T17:00:00	3	Temperatura mínima	19.1
119808	7	Sololá	701	Sololá	4	Finca Santa Victoria	7	Julio	2023-07-20T00:00:00	2024-11-08T17:00:00	5	Humedad	71
119809	7	Sololá	701	Sololá	4	Finca Santa Victoria	7	Julio	2023-07-20T00:00:00	2024-11-08T17:00:00	6	Velocidad del viento	3.2
119810	7	Sololá	701	Sololá	4	Finca Santa Victoria	7	Julio	2023-07-20T00:00:00	2024-11-08T17:00:00	7	Dirección del viento	3.22
119811	7	Sololá	701	Sololá	4	Finca Santa Victoria	7	Julio	2023-07-20T00:00:00	2024-11-08T17:00:00	1	Precipitación	0
119812	7	Sololá	701	Sololá	4	Finca Santa Victoria	7	Julio	2023-07-20T00:00:00	2024-11-08T17:00:00	8	Radiación solar	81
119813	7	Sololá	701	Sololá	4	Finca Santa Victoria	7	Julio	2023-07-20T00:00:00	2024-11-08T18:00:00	2	Temperatura media	17.9
119814	7	Sololá	701	Sololá	4	Finca Santa Victoria	7	Julio	2023-07-20T00:00:00	2024-11-08T18:00:00	4	Temperatura máxima	19.7
119815	7	Sololá	701	Sololá	4	Finca Santa Victoria	7	Julio	2023-07-20T00:00:00	2024-11-08T18:00:00	3	Temperatura mínima	17.9
119816	7	Sololá	701	Sololá	4	Finca Santa Victoria	7	Julio	2023-07-20T00:00:00	2024-11-08T18:00:00	5	Humedad	77
119817	7	Sololá	701	Sololá	4	Finca Santa Victoria	7	Julio	2023-07-20T00:00:00	2024-11-08T18:00:00	6	Velocidad del viento	3.2
119818	7	Sololá	701	Sololá	4	Finca Santa Victoria	7	Julio	2023-07-20T00:00:00	2024-11-08T18:00:00	7	Dirección del viento	3.22
119819	7	Sololá	701	Sololá	4	Finca Santa Victoria	7	Julio	2023-07-20T00:00:00	2024-11-08T18:00:00	1	Precipitación	0
119820	7	Sololá	701	Sololá	4	Finca Santa Victoria	7	Julio	2023-07-20T00:00:00	2024-11-08T18:00:00	8	Radiación solar	86
119821	7	Sololá	701	Sololá	4	Finca Santa Victoria	7	Julio	2023-07-20T00:00:00	2024-11-08T19:00:00	2	Temperatura media	15.8
119822	7	Sololá	701	Sololá	4	Finca Santa Victoria	7	Julio	2023-07-20T00:00:00	2024-11-08T19:00:00	4	Temperatura máxima	17.9
119823	7	Sololá	701	Sololá	4	Finca Santa Victoria	7	Julio	2023-07-20T00:00:00	2024-11-08T19:00:00	3	Temperatura mínima	15.8
119824	7	Sololá	701	Sololá	4	Finca Santa Victoria	7	Julio	2023-07-20T00:00:00	2024-11-08T19:00:00	5	Humedad	83
119825	7	Sololá	701	Sololá	4	Finca Santa Victoria	7	Julio	2023-07-20T00:00:00	2024-11-08T19:00:00	6	Velocidad del viento	3.2
119826	7	Sololá	701	Sololá	4	Finca Santa Victoria	7	Julio	2023-07-20T00:00:00	2024-11-08T19:00:00	7	Dirección del viento	3.22
119827	7	Sololá	701	Sololá	4	Finca Santa Victoria	7	Julio	2023-07-20T00:00:00	2024-11-08T19:00:00	1	Precipitación	0
119828	7	Sololá	701	Sololá	4	Finca Santa Victoria	7	Julio	2023-07-20T00:00:00	2024-11-08T19:00:00	8	Radiación solar	0
119829	7	Sololá	701	Sololá	4	Finca Santa Victoria	7	Julio	2023-07-20T00:00:00	2024-11-08T20:00:00	2	Temperatura media	15.6
119830	7	Sololá	701	Sololá	4	Finca Santa Victoria	7	Julio	2023-07-20T00:00:00	2024-11-08T20:00:00	4	Temperatura máxima	15.9
119831	7	Sololá	701	Sololá	4	Finca Santa Victoria	7	Julio	2023-07-20T00:00:00	2024-11-08T20:00:00	3	Temperatura mínima	15.5
119832	7	Sololá	701	Sololá	4	Finca Santa Victoria	7	Julio	2023-07-20T00:00:00	2024-11-08T20:00:00	5	Humedad	83
119833	7	Sololá	701	Sololá	4	Finca Santa Victoria	7	Julio	2023-07-20T00:00:00	2024-11-08T20:00:00	6	Velocidad del viento	3.2
119834	7	Sololá	701	Sololá	4	Finca Santa Victoria	7	Julio	2023-07-20T00:00:00	2024-11-08T20:00:00	7	Dirección del viento	3.22
119835	7	Sololá	701	Sololá	4	Finca Santa Victoria	7	Julio	2023-07-20T00:00:00	2024-11-08T20:00:00	1	Precipitación	0
119836	7	Sololá	701	Sololá	4	Finca Santa Victoria	7	Julio	2023-07-20T00:00:00	2024-11-08T20:00:00	8	Radiación solar	0
119837	7	Sololá	701	Sololá	4	Finca Santa Victoria	7	Julio	2023-07-20T00:00:00	2024-11-08T21:00:00	2	Temperatura media	15.6
119838	7	Sololá	701	Sololá	4	Finca Santa Victoria	7	Julio	2023-07-20T00:00:00	2024-11-08T21:00:00	4	Temperatura máxima	15.6
119839	7	Sololá	701	Sololá	4	Finca Santa Victoria	7	Julio	2023-07-20T00:00:00	2024-11-08T21:00:00	3	Temperatura mínima	15.5
119840	7	Sololá	701	Sololá	4	Finca Santa Victoria	7	Julio	2023-07-20T00:00:00	2024-11-08T21:00:00	5	Humedad	82
119841	7	Sololá	701	Sololá	4	Finca Santa Victoria	7	Julio	2023-07-20T00:00:00	2024-11-08T21:00:00	6	Velocidad del viento	3.2
119842	7	Sololá	701	Sololá	4	Finca Santa Victoria	7	Julio	2023-07-20T00:00:00	2024-11-08T21:00:00	7	Dirección del viento	3.22
119843	7	Sololá	701	Sololá	4	Finca Santa Victoria	7	Julio	2023-07-20T00:00:00	2024-11-08T21:00:00	1	Precipitación	0
119844	7	Sololá	701	Sololá	4	Finca Santa Victoria	7	Julio	2023-07-20T00:00:00	2024-11-08T21:00:00	8	Radiación solar	0
119845	7	Sololá	701	Sololá	4	Finca Santa Victoria	7	Julio	2023-07-20T00:00:00	2024-11-08T22:00:00	2	Temperatura media	15.3
119846	7	Sololá	701	Sololá	4	Finca Santa Victoria	7	Julio	2023-07-20T00:00:00	2024-11-08T22:00:00	4	Temperatura máxima	15.6
119847	7	Sololá	701	Sololá	4	Finca Santa Victoria	7	Julio	2023-07-20T00:00:00	2024-11-08T22:00:00	3	Temperatura mínima	15.2
119848	7	Sololá	701	Sololá	4	Finca Santa Victoria	7	Julio	2023-07-20T00:00:00	2024-11-08T22:00:00	5	Humedad	83
119849	7	Sololá	701	Sololá	4	Finca Santa Victoria	7	Julio	2023-07-20T00:00:00	2024-11-08T22:00:00	6	Velocidad del viento	3.2
119850	7	Sololá	701	Sololá	4	Finca Santa Victoria	7	Julio	2023-07-20T00:00:00	2024-11-08T22:00:00	7	Dirección del viento	3.22
119851	7	Sololá	701	Sololá	4	Finca Santa Victoria	7	Julio	2023-07-20T00:00:00	2024-11-08T22:00:00	1	Precipitación	0
119852	7	Sololá	701	Sololá	4	Finca Santa Victoria	7	Julio	2023-07-20T00:00:00	2024-11-08T22:00:00	8	Radiación solar	0
119853	7	Sololá	701	Sololá	4	Finca Santa Victoria	7	Julio	2023-07-20T00:00:00	2024-11-08T23:00:00	2	Temperatura media	15
119854	7	Sololá	701	Sololá	4	Finca Santa Victoria	7	Julio	2023-07-20T00:00:00	2024-11-08T23:00:00	4	Temperatura máxima	15.3
119855	7	Sololá	701	Sololá	4	Finca Santa Victoria	7	Julio	2023-07-20T00:00:00	2024-11-08T23:00:00	3	Temperatura mínima	15
119856	7	Sololá	701	Sololá	4	Finca Santa Victoria	7	Julio	2023-07-20T00:00:00	2024-11-08T23:00:00	5	Humedad	84
119857	7	Sololá	701	Sololá	4	Finca Santa Victoria	7	Julio	2023-07-20T00:00:00	2024-11-08T23:00:00	6	Velocidad del viento	3.2
119858	7	Sololá	701	Sololá	4	Finca Santa Victoria	7	Julio	2023-07-20T00:00:00	2024-11-08T23:00:00	7	Dirección del viento	3.22
119859	7	Sololá	701	Sololá	4	Finca Santa Victoria	7	Julio	2023-07-20T00:00:00	2024-11-08T23:00:00	1	Precipitación	0
119860	7	Sololá	701	Sololá	4	Finca Santa Victoria	7	Julio	2023-07-20T00:00:00	2024-11-08T23:00:00	8	Radiación solar	0
119861	7	Sololá	701	Sololá	4	Finca Santa Victoria	7	Julio	2023-07-21T00:00:00	2024-11-08T00:00:00	2	Temperatura media	14.7
119862	7	Sololá	701	Sololá	4	Finca Santa Victoria	7	Julio	2023-07-21T00:00:00	2024-11-08T00:00:00	4	Temperatura máxima	15.1
119863	7	Sololá	701	Sololá	4	Finca Santa Victoria	7	Julio	2023-07-21T00:00:00	2024-11-08T00:00:00	3	Temperatura mínima	14.7
119864	7	Sololá	701	Sololá	4	Finca Santa Victoria	7	Julio	2023-07-21T00:00:00	2024-11-08T00:00:00	5	Humedad	85
119865	7	Sololá	701	Sololá	4	Finca Santa Victoria	7	Julio	2023-07-21T00:00:00	2024-11-08T00:00:00	6	Velocidad del viento	3.2
119866	7	Sololá	701	Sololá	4	Finca Santa Victoria	7	Julio	2023-07-21T00:00:00	2024-11-08T00:00:00	7	Dirección del viento	3.22
119867	7	Sololá	701	Sololá	4	Finca Santa Victoria	7	Julio	2023-07-21T00:00:00	2024-11-08T00:00:00	1	Precipitación	0
119868	7	Sololá	701	Sololá	4	Finca Santa Victoria	7	Julio	2023-07-21T00:00:00	2024-11-08T00:00:00	8	Radiación solar	0
119869	7	Sololá	701	Sololá	4	Finca Santa Victoria	7	Julio	2023-07-21T00:00:00	2024-11-08T01:00:00	2	Temperatura media	14.3
119870	7	Sololá	701	Sololá	4	Finca Santa Victoria	7	Julio	2023-07-21T00:00:00	2024-11-08T01:00:00	4	Temperatura máxima	14.7
119871	7	Sololá	701	Sololá	4	Finca Santa Victoria	7	Julio	2023-07-21T00:00:00	2024-11-08T01:00:00	3	Temperatura mínima	14.2
119872	7	Sololá	701	Sololá	4	Finca Santa Victoria	7	Julio	2023-07-21T00:00:00	2024-11-08T01:00:00	5	Humedad	87
119873	7	Sololá	701	Sololá	4	Finca Santa Victoria	7	Julio	2023-07-21T00:00:00	2024-11-08T01:00:00	6	Velocidad del viento	3.2
119874	7	Sololá	701	Sololá	4	Finca Santa Victoria	7	Julio	2023-07-21T00:00:00	2024-11-08T01:00:00	7	Dirección del viento	3.22
119875	7	Sololá	701	Sololá	4	Finca Santa Victoria	7	Julio	2023-07-21T00:00:00	2024-11-08T01:00:00	1	Precipitación	0
119876	7	Sololá	701	Sololá	4	Finca Santa Victoria	7	Julio	2023-07-21T00:00:00	2024-11-08T01:00:00	8	Radiación solar	0
119877	7	Sololá	701	Sololá	4	Finca Santa Victoria	7	Julio	2023-07-21T00:00:00	2024-11-08T02:00:00	2	Temperatura media	14.3
119878	7	Sololá	701	Sololá	4	Finca Santa Victoria	7	Julio	2023-07-21T00:00:00	2024-11-08T02:00:00	4	Temperatura máxima	14.3
119879	7	Sololá	701	Sololá	4	Finca Santa Victoria	7	Julio	2023-07-21T00:00:00	2024-11-08T02:00:00	3	Temperatura mínima	14.1
119880	7	Sololá	701	Sololá	4	Finca Santa Victoria	7	Julio	2023-07-21T00:00:00	2024-11-08T02:00:00	5	Humedad	87
119881	7	Sololá	701	Sololá	4	Finca Santa Victoria	7	Julio	2023-07-21T00:00:00	2024-11-08T02:00:00	6	Velocidad del viento	3.2
119882	7	Sololá	701	Sololá	4	Finca Santa Victoria	7	Julio	2023-07-21T00:00:00	2024-11-08T02:00:00	7	Dirección del viento	3.22
119883	7	Sololá	701	Sololá	4	Finca Santa Victoria	7	Julio	2023-07-21T00:00:00	2024-11-08T02:00:00	1	Precipitación	0
119884	7	Sololá	701	Sololá	4	Finca Santa Victoria	7	Julio	2023-07-21T00:00:00	2024-11-08T02:00:00	8	Radiación solar	0
119885	7	Sololá	701	Sololá	4	Finca Santa Victoria	7	Julio	2023-07-21T00:00:00	2024-11-08T03:00:00	2	Temperatura media	14.1
119886	7	Sololá	701	Sololá	4	Finca Santa Victoria	7	Julio	2023-07-21T00:00:00	2024-11-08T03:00:00	4	Temperatura máxima	14.3
119887	7	Sololá	701	Sololá	4	Finca Santa Victoria	7	Julio	2023-07-21T00:00:00	2024-11-08T03:00:00	3	Temperatura mínima	13.9
119888	7	Sololá	701	Sololá	4	Finca Santa Victoria	7	Julio	2023-07-21T00:00:00	2024-11-08T03:00:00	5	Humedad	88
119889	7	Sololá	701	Sololá	4	Finca Santa Victoria	7	Julio	2023-07-21T00:00:00	2024-11-08T03:00:00	6	Velocidad del viento	4.8
119890	7	Sololá	701	Sololá	4	Finca Santa Victoria	7	Julio	2023-07-21T00:00:00	2024-11-08T03:00:00	7	Dirección del viento	4.83
119891	7	Sololá	701	Sololá	4	Finca Santa Victoria	7	Julio	2023-07-21T00:00:00	2024-11-08T03:00:00	1	Precipitación	0
119892	7	Sololá	701	Sololá	4	Finca Santa Victoria	7	Julio	2023-07-21T00:00:00	2024-11-08T03:00:00	8	Radiación solar	0
119893	7	Sololá	701	Sololá	4	Finca Santa Victoria	7	Julio	2023-07-21T00:00:00	2024-11-08T04:00:00	2	Temperatura media	14
119894	7	Sololá	701	Sololá	4	Finca Santa Victoria	7	Julio	2023-07-21T00:00:00	2024-11-08T04:00:00	4	Temperatura máxima	14.1
119895	7	Sololá	701	Sololá	4	Finca Santa Victoria	7	Julio	2023-07-21T00:00:00	2024-11-08T04:00:00	3	Temperatura mínima	13.9
119896	7	Sololá	701	Sololá	4	Finca Santa Victoria	7	Julio	2023-07-21T00:00:00	2024-11-08T04:00:00	5	Humedad	88
119897	7	Sololá	701	Sololá	4	Finca Santa Victoria	7	Julio	2023-07-21T00:00:00	2024-11-08T04:00:00	6	Velocidad del viento	3.2
119898	7	Sololá	701	Sololá	4	Finca Santa Victoria	7	Julio	2023-07-21T00:00:00	2024-11-08T04:00:00	7	Dirección del viento	3.22
119899	7	Sololá	701	Sololá	4	Finca Santa Victoria	7	Julio	2023-07-21T00:00:00	2024-11-08T04:00:00	1	Precipitación	0
119900	7	Sololá	701	Sololá	4	Finca Santa Victoria	7	Julio	2023-07-21T00:00:00	2024-11-08T04:00:00	8	Radiación solar	0
119901	7	Sololá	701	Sololá	4	Finca Santa Victoria	7	Julio	2023-07-21T00:00:00	2024-11-08T05:00:00	2	Temperatura media	14.3
119902	7	Sololá	701	Sololá	4	Finca Santa Victoria	7	Julio	2023-07-21T00:00:00	2024-11-08T05:00:00	4	Temperatura máxima	14.3
119903	7	Sololá	701	Sololá	4	Finca Santa Victoria	7	Julio	2023-07-21T00:00:00	2024-11-08T05:00:00	3	Temperatura mínima	14
119904	7	Sololá	701	Sololá	4	Finca Santa Victoria	7	Julio	2023-07-21T00:00:00	2024-11-08T05:00:00	5	Humedad	86
119905	7	Sololá	701	Sololá	4	Finca Santa Victoria	7	Julio	2023-07-21T00:00:00	2024-11-08T05:00:00	6	Velocidad del viento	3.2
119906	7	Sololá	701	Sololá	4	Finca Santa Victoria	7	Julio	2023-07-21T00:00:00	2024-11-08T05:00:00	7	Dirección del viento	3.22
119907	7	Sololá	701	Sololá	4	Finca Santa Victoria	7	Julio	2023-07-21T00:00:00	2024-11-08T05:00:00	1	Precipitación	0
119908	7	Sololá	701	Sololá	4	Finca Santa Victoria	7	Julio	2023-07-21T00:00:00	2024-11-08T05:00:00	8	Radiación solar	0
119909	7	Sololá	701	Sololá	4	Finca Santa Victoria	7	Julio	2023-07-21T00:00:00	2024-11-08T06:00:00	2	Temperatura media	14.3
119910	7	Sololá	701	Sololá	4	Finca Santa Victoria	7	Julio	2023-07-21T00:00:00	2024-11-08T06:00:00	4	Temperatura máxima	14.9
119911	7	Sololá	701	Sololá	4	Finca Santa Victoria	7	Julio	2023-07-21T00:00:00	2024-11-08T06:00:00	3	Temperatura mínima	14.3
119912	7	Sololá	701	Sololá	4	Finca Santa Victoria	7	Julio	2023-07-21T00:00:00	2024-11-08T06:00:00	5	Humedad	87
119913	7	Sololá	701	Sololá	4	Finca Santa Victoria	7	Julio	2023-07-21T00:00:00	2024-11-08T06:00:00	6	Velocidad del viento	3.2
119914	7	Sololá	701	Sololá	4	Finca Santa Victoria	7	Julio	2023-07-21T00:00:00	2024-11-08T06:00:00	7	Dirección del viento	3.22
119915	7	Sololá	701	Sololá	4	Finca Santa Victoria	7	Julio	2023-07-21T00:00:00	2024-11-08T06:00:00	1	Precipitación	0
119916	7	Sololá	701	Sololá	4	Finca Santa Victoria	7	Julio	2023-07-21T00:00:00	2024-11-08T06:00:00	8	Radiación solar	0
119917	7	Sololá	701	Sololá	4	Finca Santa Victoria	7	Julio	2023-07-21T00:00:00	2024-11-08T07:00:00	2	Temperatura media	14.6
119918	7	Sololá	701	Sololá	4	Finca Santa Victoria	7	Julio	2023-07-21T00:00:00	2024-11-08T07:00:00	4	Temperatura máxima	14.6
119919	7	Sololá	701	Sololá	4	Finca Santa Victoria	7	Julio	2023-07-21T00:00:00	2024-11-08T07:00:00	3	Temperatura mínima	14.1
119920	7	Sololá	701	Sololá	4	Finca Santa Victoria	7	Julio	2023-07-21T00:00:00	2024-11-08T07:00:00	5	Humedad	90
119921	7	Sololá	701	Sololá	4	Finca Santa Victoria	7	Julio	2023-07-21T00:00:00	2024-11-08T07:00:00	6	Velocidad del viento	3.2
119922	7	Sololá	701	Sololá	4	Finca Santa Victoria	7	Julio	2023-07-21T00:00:00	2024-11-08T07:00:00	7	Dirección del viento	3.22
119923	7	Sololá	701	Sololá	4	Finca Santa Victoria	7	Julio	2023-07-21T00:00:00	2024-11-08T07:00:00	1	Precipitación	0
119924	7	Sololá	701	Sololá	4	Finca Santa Victoria	7	Julio	2023-07-21T00:00:00	2024-11-08T07:00:00	8	Radiación solar	32
119925	7	Sololá	701	Sololá	4	Finca Santa Victoria	7	Julio	2023-07-21T00:00:00	2024-11-08T08:00:00	2	Temperatura media	14.8
119926	7	Sololá	701	Sololá	4	Finca Santa Victoria	7	Julio	2023-07-21T00:00:00	2024-11-08T08:00:00	4	Temperatura máxima	14.9
119927	7	Sololá	701	Sololá	4	Finca Santa Victoria	7	Julio	2023-07-21T00:00:00	2024-11-08T08:00:00	3	Temperatura mínima	14.6
119928	7	Sololá	701	Sololá	4	Finca Santa Victoria	7	Julio	2023-07-21T00:00:00	2024-11-08T08:00:00	5	Humedad	91
119929	7	Sololá	701	Sololá	4	Finca Santa Victoria	7	Julio	2023-07-21T00:00:00	2024-11-08T08:00:00	6	Velocidad del viento	4.8
119930	7	Sololá	701	Sololá	4	Finca Santa Victoria	7	Julio	2023-07-21T00:00:00	2024-11-08T08:00:00	7	Dirección del viento	4.83
119931	7	Sololá	701	Sololá	4	Finca Santa Victoria	7	Julio	2023-07-21T00:00:00	2024-11-08T08:00:00	1	Precipitación	0
119932	7	Sololá	701	Sololá	4	Finca Santa Victoria	7	Julio	2023-07-21T00:00:00	2024-11-08T08:00:00	8	Radiación solar	86
119933	7	Sololá	701	Sololá	4	Finca Santa Victoria	7	Julio	2023-07-21T00:00:00	2024-11-08T09:00:00	2	Temperatura media	17.9
119934	7	Sololá	701	Sololá	4	Finca Santa Victoria	7	Julio	2023-07-21T00:00:00	2024-11-08T09:00:00	4	Temperatura máxima	17.9
119935	7	Sololá	701	Sololá	4	Finca Santa Victoria	7	Julio	2023-07-21T00:00:00	2024-11-08T09:00:00	3	Temperatura mínima	14.8
119936	7	Sololá	701	Sololá	4	Finca Santa Victoria	7	Julio	2023-07-21T00:00:00	2024-11-08T09:00:00	5	Humedad	78
119937	7	Sololá	701	Sololá	4	Finca Santa Victoria	7	Julio	2023-07-21T00:00:00	2024-11-08T09:00:00	6	Velocidad del viento	4.8
119938	7	Sololá	701	Sololá	4	Finca Santa Victoria	7	Julio	2023-07-21T00:00:00	2024-11-08T09:00:00	7	Dirección del viento	4.83
119939	7	Sololá	701	Sololá	4	Finca Santa Victoria	7	Julio	2023-07-21T00:00:00	2024-11-08T09:00:00	1	Precipitación	0
119940	7	Sololá	701	Sololá	4	Finca Santa Victoria	7	Julio	2023-07-21T00:00:00	2024-11-08T09:00:00	8	Radiación solar	282
119941	7	Sololá	701	Sololá	4	Finca Santa Victoria	7	Julio	2023-07-21T00:00:00	2024-11-08T10:00:00	2	Temperatura media	19.9
119942	7	Sololá	701	Sololá	4	Finca Santa Victoria	7	Julio	2023-07-21T00:00:00	2024-11-08T10:00:00	4	Temperatura máxima	19.9
119943	7	Sololá	701	Sololá	4	Finca Santa Victoria	7	Julio	2023-07-21T00:00:00	2024-11-08T10:00:00	3	Temperatura mínima	17.8
119944	7	Sololá	701	Sololá	4	Finca Santa Victoria	7	Julio	2023-07-21T00:00:00	2024-11-08T10:00:00	5	Humedad	73
119945	7	Sololá	701	Sololá	4	Finca Santa Victoria	7	Julio	2023-07-21T00:00:00	2024-11-08T10:00:00	6	Velocidad del viento	4.8
119946	7	Sololá	701	Sololá	4	Finca Santa Victoria	7	Julio	2023-07-21T00:00:00	2024-11-08T10:00:00	7	Dirección del viento	4.83
119947	7	Sololá	701	Sololá	4	Finca Santa Victoria	7	Julio	2023-07-21T00:00:00	2024-11-08T10:00:00	1	Precipitación	0
119948	7	Sololá	701	Sololá	4	Finca Santa Victoria	7	Julio	2023-07-21T00:00:00	2024-11-08T10:00:00	8	Radiación solar	149
119949	7	Sololá	701	Sololá	4	Finca Santa Victoria	7	Julio	2023-07-21T00:00:00	2024-11-08T11:00:00	2	Temperatura media	21.1
119950	7	Sololá	701	Sololá	4	Finca Santa Victoria	7	Julio	2023-07-21T00:00:00	2024-11-08T11:00:00	4	Temperatura máxima	21.1
119951	7	Sololá	701	Sololá	4	Finca Santa Victoria	7	Julio	2023-07-21T00:00:00	2024-11-08T11:00:00	3	Temperatura mínima	19.9
119952	7	Sololá	701	Sololá	4	Finca Santa Victoria	7	Julio	2023-07-21T00:00:00	2024-11-08T11:00:00	5	Humedad	65
119953	7	Sololá	701	Sololá	4	Finca Santa Victoria	7	Julio	2023-07-21T00:00:00	2024-11-08T11:00:00	6	Velocidad del viento	4.8
119954	7	Sololá	701	Sololá	4	Finca Santa Victoria	7	Julio	2023-07-21T00:00:00	2024-11-08T11:00:00	7	Dirección del viento	4.83
119955	7	Sololá	701	Sololá	4	Finca Santa Victoria	7	Julio	2023-07-21T00:00:00	2024-11-08T11:00:00	1	Precipitación	0
119956	7	Sololá	701	Sololá	4	Finca Santa Victoria	7	Julio	2023-07-21T00:00:00	2024-11-08T11:00:00	8	Radiación solar	135
119957	7	Sololá	701	Sololá	4	Finca Santa Victoria	7	Julio	2023-07-21T00:00:00	2024-11-08T12:00:00	2	Temperatura media	23.2
119958	7	Sololá	701	Sololá	4	Finca Santa Victoria	7	Julio	2023-07-21T00:00:00	2024-11-08T12:00:00	4	Temperatura máxima	23.2
119959	7	Sololá	701	Sololá	4	Finca Santa Victoria	7	Julio	2023-07-21T00:00:00	2024-11-08T12:00:00	3	Temperatura mínima	21.1
119960	7	Sololá	701	Sololá	4	Finca Santa Victoria	7	Julio	2023-07-21T00:00:00	2024-11-08T12:00:00	5	Humedad	58
119961	7	Sololá	701	Sololá	4	Finca Santa Victoria	7	Julio	2023-07-21T00:00:00	2024-11-08T12:00:00	6	Velocidad del viento	3.2
119962	7	Sololá	701	Sololá	4	Finca Santa Victoria	7	Julio	2023-07-21T00:00:00	2024-11-08T12:00:00	7	Dirección del viento	3.22
119963	7	Sololá	701	Sololá	4	Finca Santa Victoria	7	Julio	2023-07-21T00:00:00	2024-11-08T12:00:00	1	Precipitación	0
119964	7	Sololá	701	Sololá	4	Finca Santa Victoria	7	Julio	2023-07-21T00:00:00	2024-11-08T12:00:00	8	Radiación solar	1051
119965	7	Sololá	701	Sololá	4	Finca Santa Victoria	7	Julio	2023-07-21T00:00:00	2024-11-08T13:00:00	2	Temperatura media	23.4
119966	7	Sololá	701	Sololá	4	Finca Santa Victoria	7	Julio	2023-07-21T00:00:00	2024-11-08T13:00:00	4	Temperatura máxima	23.7
119967	7	Sololá	701	Sololá	4	Finca Santa Victoria	7	Julio	2023-07-21T00:00:00	2024-11-08T13:00:00	3	Temperatura mínima	22.4
119968	7	Sololá	701	Sololá	4	Finca Santa Victoria	7	Julio	2023-07-21T00:00:00	2024-11-08T13:00:00	5	Humedad	56
119969	7	Sololá	701	Sololá	4	Finca Santa Victoria	7	Julio	2023-07-21T00:00:00	2024-11-08T13:00:00	6	Velocidad del viento	3.2
119970	7	Sololá	701	Sololá	4	Finca Santa Victoria	7	Julio	2023-07-21T00:00:00	2024-11-08T13:00:00	7	Dirección del viento	3.22
119971	7	Sololá	701	Sololá	4	Finca Santa Victoria	7	Julio	2023-07-21T00:00:00	2024-11-08T13:00:00	1	Precipitación	0
119972	7	Sololá	701	Sololá	4	Finca Santa Victoria	7	Julio	2023-07-21T00:00:00	2024-11-08T13:00:00	8	Radiación solar	1059
119973	7	Sololá	701	Sololá	4	Finca Santa Victoria	7	Julio	2023-07-21T00:00:00	2024-11-08T14:00:00	2	Temperatura media	23.1
119974	7	Sololá	701	Sololá	4	Finca Santa Victoria	7	Julio	2023-07-21T00:00:00	2024-11-08T14:00:00	4	Temperatura máxima	23.7
119975	7	Sololá	701	Sololá	4	Finca Santa Victoria	7	Julio	2023-07-21T00:00:00	2024-11-08T14:00:00	3	Temperatura mínima	22.7
119976	7	Sololá	701	Sololá	4	Finca Santa Victoria	7	Julio	2023-07-21T00:00:00	2024-11-08T14:00:00	5	Humedad	58
119977	7	Sololá	701	Sololá	4	Finca Santa Victoria	7	Julio	2023-07-21T00:00:00	2024-11-08T14:00:00	6	Velocidad del viento	3.2
119978	7	Sololá	701	Sololá	4	Finca Santa Victoria	7	Julio	2023-07-21T00:00:00	2024-11-08T14:00:00	7	Dirección del viento	3.22
119979	7	Sololá	701	Sololá	4	Finca Santa Victoria	7	Julio	2023-07-21T00:00:00	2024-11-08T14:00:00	1	Precipitación	0
119980	7	Sololá	701	Sololá	4	Finca Santa Victoria	7	Julio	2023-07-21T00:00:00	2024-11-08T14:00:00	8	Radiación solar	760
119981	7	Sololá	701	Sololá	4	Finca Santa Victoria	7	Julio	2023-07-21T00:00:00	2024-11-08T15:00:00	2	Temperatura media	21.4
119982	7	Sololá	701	Sololá	4	Finca Santa Victoria	7	Julio	2023-07-21T00:00:00	2024-11-08T15:00:00	4	Temperatura máxima	23.9
119983	7	Sololá	701	Sololá	4	Finca Santa Victoria	7	Julio	2023-07-21T00:00:00	2024-11-08T15:00:00	3	Temperatura mínima	21.4
119984	7	Sololá	701	Sololá	4	Finca Santa Victoria	7	Julio	2023-07-21T00:00:00	2024-11-08T15:00:00	5	Humedad	72
119985	7	Sololá	701	Sololá	4	Finca Santa Victoria	7	Julio	2023-07-21T00:00:00	2024-11-08T15:00:00	6	Velocidad del viento	3.2
119986	7	Sololá	701	Sololá	4	Finca Santa Victoria	7	Julio	2023-07-21T00:00:00	2024-11-08T15:00:00	7	Dirección del viento	3.22
119987	7	Sololá	701	Sololá	4	Finca Santa Victoria	7	Julio	2023-07-21T00:00:00	2024-11-08T15:00:00	1	Precipitación	0
119988	7	Sololá	701	Sololá	4	Finca Santa Victoria	7	Julio	2023-07-21T00:00:00	2024-11-08T15:00:00	8	Radiación solar	189
119989	7	Sololá	701	Sololá	4	Finca Santa Victoria	7	Julio	2023-07-21T00:00:00	2024-11-08T16:00:00	2	Temperatura media	19.6
119990	7	Sololá	701	Sololá	4	Finca Santa Victoria	7	Julio	2023-07-21T00:00:00	2024-11-08T16:00:00	4	Temperatura máxima	21.4
119991	7	Sololá	701	Sololá	4	Finca Santa Victoria	7	Julio	2023-07-21T00:00:00	2024-11-08T16:00:00	3	Temperatura mínima	19.6
119992	7	Sololá	701	Sololá	4	Finca Santa Victoria	7	Julio	2023-07-21T00:00:00	2024-11-08T16:00:00	5	Humedad	86
119993	7	Sololá	701	Sololá	4	Finca Santa Victoria	7	Julio	2023-07-21T00:00:00	2024-11-08T16:00:00	6	Velocidad del viento	1.6
119994	7	Sololá	701	Sololá	4	Finca Santa Victoria	7	Julio	2023-07-21T00:00:00	2024-11-08T16:00:00	7	Dirección del viento	1.61
119995	7	Sololá	701	Sololá	4	Finca Santa Victoria	7	Julio	2023-07-21T00:00:00	2024-11-08T16:00:00	1	Precipitación	0
119996	7	Sololá	701	Sololá	4	Finca Santa Victoria	7	Julio	2023-07-21T00:00:00	2024-11-08T16:00:00	8	Radiación solar	104
119997	7	Sololá	701	Sololá	4	Finca Santa Victoria	7	Julio	2023-07-21T00:00:00	2024-11-08T17:00:00	2	Temperatura media	20.1
119998	7	Sololá	701	Sololá	4	Finca Santa Victoria	7	Julio	2023-07-21T00:00:00	2024-11-08T17:00:00	4	Temperatura máxima	20.6
119999	7	Sololá	701	Sololá	4	Finca Santa Victoria	7	Julio	2023-07-21T00:00:00	2024-11-08T17:00:00	3	Temperatura mínima	19.6
120000	7	Sololá	701	Sololá	4	Finca Santa Victoria	7	Julio	2023-07-21T00:00:00	2024-11-08T17:00:00	5	Humedad	72
120001	7	Sololá	701	Sololá	4	Finca Santa Victoria	7	Julio	2023-07-21T00:00:00	2024-11-08T17:00:00	6	Velocidad del viento	1.6
120002	7	Sololá	701	Sololá	4	Finca Santa Victoria	7	Julio	2023-07-21T00:00:00	2024-11-08T17:00:00	7	Dirección del viento	1.61
120003	7	Sololá	701	Sololá	4	Finca Santa Victoria	7	Julio	2023-07-21T00:00:00	2024-11-08T17:00:00	1	Precipitación	0
120004	7	Sololá	701	Sololá	4	Finca Santa Victoria	7	Julio	2023-07-21T00:00:00	2024-11-08T17:00:00	8	Radiación solar	103
120005	7	Sololá	701	Sololá	4	Finca Santa Victoria	7	Julio	2023-07-21T00:00:00	2024-11-08T18:00:00	2	Temperatura media	18.5
120006	7	Sololá	701	Sololá	4	Finca Santa Victoria	7	Julio	2023-07-21T00:00:00	2024-11-08T18:00:00	4	Temperatura máxima	20.2
120007	7	Sololá	701	Sololá	4	Finca Santa Victoria	7	Julio	2023-07-21T00:00:00	2024-11-08T18:00:00	3	Temperatura mínima	18.5
120008	7	Sololá	701	Sololá	4	Finca Santa Victoria	7	Julio	2023-07-21T00:00:00	2024-11-08T18:00:00	5	Humedad	91
120009	7	Sololá	701	Sololá	4	Finca Santa Victoria	7	Julio	2023-07-21T00:00:00	2024-11-08T18:00:00	6	Velocidad del viento	1.6
120010	7	Sololá	701	Sololá	4	Finca Santa Victoria	7	Julio	2023-07-21T00:00:00	2024-11-08T18:00:00	7	Dirección del viento	1.61
120011	7	Sololá	701	Sololá	4	Finca Santa Victoria	7	Julio	2023-07-21T00:00:00	2024-11-08T18:00:00	1	Precipitación	0
120012	7	Sololá	701	Sololá	4	Finca Santa Victoria	7	Julio	2023-07-21T00:00:00	2024-11-08T18:00:00	8	Radiación solar	48
120013	7	Sololá	701	Sololá	4	Finca Santa Victoria	7	Julio	2023-07-21T00:00:00	2024-11-08T19:00:00	2	Temperatura media	16.7
120014	7	Sololá	701	Sololá	4	Finca Santa Victoria	7	Julio	2023-07-21T00:00:00	2024-11-08T19:00:00	4	Temperatura máxima	18.5
120015	7	Sololá	701	Sololá	4	Finca Santa Victoria	7	Julio	2023-07-21T00:00:00	2024-11-08T19:00:00	3	Temperatura mínima	16.7
120016	7	Sololá	701	Sololá	4	Finca Santa Victoria	7	Julio	2023-07-21T00:00:00	2024-11-08T19:00:00	5	Humedad	84
120017	7	Sololá	701	Sololá	4	Finca Santa Victoria	7	Julio	2023-07-21T00:00:00	2024-11-08T19:00:00	6	Velocidad del viento	0
120018	7	Sololá	701	Sololá	4	Finca Santa Victoria	7	Julio	2023-07-21T00:00:00	2024-11-08T19:00:00	7	Dirección del viento	0
120019	7	Sololá	701	Sololá	4	Finca Santa Victoria	7	Julio	2023-07-21T00:00:00	2024-11-08T19:00:00	1	Precipitación	0
120020	7	Sololá	701	Sololá	4	Finca Santa Victoria	7	Julio	2023-07-21T00:00:00	2024-11-08T19:00:00	8	Radiación solar	0
120021	7	Sololá	701	Sololá	4	Finca Santa Victoria	7	Julio	2023-07-21T00:00:00	2024-11-08T20:00:00	2	Temperatura media	15.8
120022	7	Sololá	701	Sololá	4	Finca Santa Victoria	7	Julio	2023-07-21T00:00:00	2024-11-08T20:00:00	4	Temperatura máxima	16.7
120023	7	Sololá	701	Sololá	4	Finca Santa Victoria	7	Julio	2023-07-21T00:00:00	2024-11-08T20:00:00	3	Temperatura mínima	15.8
120024	7	Sololá	701	Sololá	4	Finca Santa Victoria	7	Julio	2023-07-21T00:00:00	2024-11-08T20:00:00	5	Humedad	94
120025	7	Sololá	701	Sololá	4	Finca Santa Victoria	7	Julio	2023-07-21T00:00:00	2024-11-08T20:00:00	6	Velocidad del viento	0
120026	7	Sololá	701	Sololá	4	Finca Santa Victoria	7	Julio	2023-07-21T00:00:00	2024-11-08T20:00:00	7	Dirección del viento	0
120027	7	Sololá	701	Sololá	4	Finca Santa Victoria	7	Julio	2023-07-21T00:00:00	2024-11-08T20:00:00	1	Precipitación	0
120028	7	Sololá	701	Sololá	4	Finca Santa Victoria	7	Julio	2023-07-21T00:00:00	2024-11-08T20:00:00	8	Radiación solar	0
120029	7	Sololá	701	Sololá	4	Finca Santa Victoria	7	Julio	2023-07-21T00:00:00	2024-11-08T21:00:00	2	Temperatura media	15.2
120030	7	Sololá	701	Sololá	4	Finca Santa Victoria	7	Julio	2023-07-21T00:00:00	2024-11-08T21:00:00	4	Temperatura máxima	15.8
120031	7	Sololá	701	Sololá	4	Finca Santa Victoria	7	Julio	2023-07-21T00:00:00	2024-11-08T21:00:00	3	Temperatura mínima	15.1
120032	7	Sololá	701	Sololá	4	Finca Santa Victoria	7	Julio	2023-07-21T00:00:00	2024-11-08T21:00:00	5	Humedad	91
120033	7	Sololá	701	Sololá	4	Finca Santa Victoria	7	Julio	2023-07-21T00:00:00	2024-11-08T21:00:00	6	Velocidad del viento	0
120034	7	Sololá	701	Sololá	4	Finca Santa Victoria	7	Julio	2023-07-21T00:00:00	2024-11-08T21:00:00	7	Dirección del viento	0
120035	7	Sololá	701	Sololá	4	Finca Santa Victoria	7	Julio	2023-07-21T00:00:00	2024-11-08T21:00:00	1	Precipitación	0
120036	7	Sololá	701	Sololá	4	Finca Santa Victoria	7	Julio	2023-07-21T00:00:00	2024-11-08T21:00:00	8	Radiación solar	0
120037	7	Sololá	701	Sololá	4	Finca Santa Victoria	7	Julio	2023-07-21T00:00:00	2024-11-08T22:00:00	2	Temperatura media	14.7
120038	7	Sololá	701	Sololá	4	Finca Santa Victoria	7	Julio	2023-07-21T00:00:00	2024-11-08T22:00:00	4	Temperatura máxima	15.2
120039	7	Sololá	701	Sololá	4	Finca Santa Victoria	7	Julio	2023-07-21T00:00:00	2024-11-08T22:00:00	3	Temperatura mínima	14.7
120040	7	Sololá	701	Sololá	4	Finca Santa Victoria	7	Julio	2023-07-21T00:00:00	2024-11-08T22:00:00	5	Humedad	93
120041	7	Sololá	701	Sololá	4	Finca Santa Victoria	7	Julio	2023-07-21T00:00:00	2024-11-08T22:00:00	6	Velocidad del viento	0
120042	7	Sololá	701	Sololá	4	Finca Santa Victoria	7	Julio	2023-07-21T00:00:00	2024-11-08T22:00:00	7	Dirección del viento	0
120043	7	Sololá	701	Sololá	4	Finca Santa Victoria	7	Julio	2023-07-21T00:00:00	2024-11-08T22:00:00	1	Precipitación	0
120044	7	Sololá	701	Sololá	4	Finca Santa Victoria	7	Julio	2023-07-21T00:00:00	2024-11-08T22:00:00	8	Radiación solar	0
120045	7	Sololá	701	Sololá	4	Finca Santa Victoria	7	Julio	2023-07-21T00:00:00	2024-11-08T23:00:00	2	Temperatura media	14.3
120046	7	Sololá	701	Sololá	4	Finca Santa Victoria	7	Julio	2023-07-21T00:00:00	2024-11-08T23:00:00	4	Temperatura máxima	14.7
120047	7	Sololá	701	Sololá	4	Finca Santa Victoria	7	Julio	2023-07-21T00:00:00	2024-11-08T23:00:00	3	Temperatura mínima	14.3
120048	7	Sololá	701	Sololá	4	Finca Santa Victoria	7	Julio	2023-07-21T00:00:00	2024-11-08T23:00:00	5	Humedad	94
120049	7	Sololá	701	Sololá	4	Finca Santa Victoria	7	Julio	2023-07-21T00:00:00	2024-11-08T23:00:00	6	Velocidad del viento	0
120050	7	Sololá	701	Sololá	4	Finca Santa Victoria	7	Julio	2023-07-21T00:00:00	2024-11-08T23:00:00	7	Dirección del viento	0
120051	7	Sololá	701	Sololá	4	Finca Santa Victoria	7	Julio	2023-07-21T00:00:00	2024-11-08T23:00:00	1	Precipitación	0
120052	7	Sololá	701	Sololá	4	Finca Santa Victoria	7	Julio	2023-07-21T00:00:00	2024-11-08T23:00:00	8	Radiación solar	0
120053	7	Sololá	701	Sololá	4	Finca Santa Victoria	7	Julio	2023-07-22T00:00:00	2024-11-08T00:00:00	2	Temperatura media	14.1
120054	7	Sololá	701	Sololá	4	Finca Santa Victoria	7	Julio	2023-07-22T00:00:00	2024-11-08T00:00:00	4	Temperatura máxima	14.3
120055	7	Sololá	701	Sololá	4	Finca Santa Victoria	7	Julio	2023-07-22T00:00:00	2024-11-08T00:00:00	3	Temperatura mínima	14
120056	7	Sololá	701	Sololá	4	Finca Santa Victoria	7	Julio	2023-07-22T00:00:00	2024-11-08T00:00:00	5	Humedad	96
120057	7	Sololá	701	Sololá	4	Finca Santa Victoria	7	Julio	2023-07-22T00:00:00	2024-11-08T00:00:00	6	Velocidad del viento	0
120058	7	Sololá	701	Sololá	4	Finca Santa Victoria	7	Julio	2023-07-22T00:00:00	2024-11-08T00:00:00	7	Dirección del viento	0
120059	7	Sololá	701	Sololá	4	Finca Santa Victoria	7	Julio	2023-07-22T00:00:00	2024-11-08T00:00:00	1	Precipitación	0
120060	7	Sololá	701	Sololá	4	Finca Santa Victoria	7	Julio	2023-07-22T00:00:00	2024-11-08T00:00:00	8	Radiación solar	0
120061	7	Sololá	701	Sololá	4	Finca Santa Victoria	7	Julio	2023-07-22T00:00:00	2024-11-08T01:00:00	2	Temperatura media	13.7
120062	7	Sololá	701	Sololá	4	Finca Santa Victoria	7	Julio	2023-07-22T00:00:00	2024-11-08T01:00:00	4	Temperatura máxima	14.1
120063	7	Sololá	701	Sololá	4	Finca Santa Victoria	7	Julio	2023-07-22T00:00:00	2024-11-08T01:00:00	3	Temperatura mínima	13.7
120064	7	Sololá	701	Sololá	4	Finca Santa Victoria	7	Julio	2023-07-22T00:00:00	2024-11-08T01:00:00	5	Humedad	96
120065	7	Sololá	701	Sololá	4	Finca Santa Victoria	7	Julio	2023-07-22T00:00:00	2024-11-08T01:00:00	6	Velocidad del viento	1.6
120066	7	Sololá	701	Sololá	4	Finca Santa Victoria	7	Julio	2023-07-22T00:00:00	2024-11-08T01:00:00	7	Dirección del viento	1.61
120067	7	Sololá	701	Sololá	4	Finca Santa Victoria	7	Julio	2023-07-22T00:00:00	2024-11-08T01:00:00	1	Precipitación	0
120068	7	Sololá	701	Sololá	4	Finca Santa Victoria	7	Julio	2023-07-22T00:00:00	2024-11-08T01:00:00	8	Radiación solar	0
120069	7	Sololá	701	Sololá	4	Finca Santa Victoria	7	Julio	2023-07-22T00:00:00	2024-11-08T02:00:00	2	Temperatura media	13.1
120070	7	Sololá	701	Sololá	4	Finca Santa Victoria	7	Julio	2023-07-22T00:00:00	2024-11-08T02:00:00	4	Temperatura máxima	13.7
120071	7	Sololá	701	Sololá	4	Finca Santa Victoria	7	Julio	2023-07-22T00:00:00	2024-11-08T02:00:00	3	Temperatura mínima	13.1
120072	7	Sololá	701	Sololá	4	Finca Santa Victoria	7	Julio	2023-07-22T00:00:00	2024-11-08T02:00:00	5	Humedad	96
120073	7	Sololá	701	Sololá	4	Finca Santa Victoria	7	Julio	2023-07-22T00:00:00	2024-11-08T02:00:00	6	Velocidad del viento	0
120074	7	Sololá	701	Sololá	4	Finca Santa Victoria	7	Julio	2023-07-22T00:00:00	2024-11-08T02:00:00	7	Dirección del viento	0
120075	7	Sololá	701	Sololá	4	Finca Santa Victoria	7	Julio	2023-07-22T00:00:00	2024-11-08T02:00:00	1	Precipitación	0
120076	7	Sololá	701	Sololá	4	Finca Santa Victoria	7	Julio	2023-07-22T00:00:00	2024-11-08T02:00:00	8	Radiación solar	0
120077	7	Sololá	701	Sololá	4	Finca Santa Victoria	7	Julio	2023-07-22T00:00:00	2024-11-08T03:00:00	2	Temperatura media	13.2
120078	7	Sololá	701	Sololá	4	Finca Santa Victoria	7	Julio	2023-07-22T00:00:00	2024-11-08T03:00:00	4	Temperatura máxima	13.3
120079	7	Sololá	701	Sololá	4	Finca Santa Victoria	7	Julio	2023-07-22T00:00:00	2024-11-08T03:00:00	3	Temperatura mínima	12.9
120080	7	Sololá	701	Sololá	4	Finca Santa Victoria	7	Julio	2023-07-22T00:00:00	2024-11-08T03:00:00	5	Humedad	96
120081	7	Sololá	701	Sololá	4	Finca Santa Victoria	7	Julio	2023-07-22T00:00:00	2024-11-08T03:00:00	6	Velocidad del viento	1.6
120082	7	Sololá	701	Sololá	4	Finca Santa Victoria	7	Julio	2023-07-22T00:00:00	2024-11-08T03:00:00	7	Dirección del viento	1.61
120083	7	Sololá	701	Sololá	4	Finca Santa Victoria	7	Julio	2023-07-22T00:00:00	2024-11-08T03:00:00	1	Precipitación	0
120084	7	Sololá	701	Sololá	4	Finca Santa Victoria	7	Julio	2023-07-22T00:00:00	2024-11-08T03:00:00	8	Radiación solar	0
120085	7	Sololá	701	Sololá	4	Finca Santa Victoria	7	Julio	2023-07-22T00:00:00	2024-11-08T04:00:00	2	Temperatura media	12.8
120086	7	Sololá	701	Sololá	4	Finca Santa Victoria	7	Julio	2023-07-22T00:00:00	2024-11-08T04:00:00	4	Temperatura máxima	13.3
120087	7	Sololá	701	Sololá	4	Finca Santa Victoria	7	Julio	2023-07-22T00:00:00	2024-11-08T04:00:00	3	Temperatura mínima	12.8
120088	7	Sololá	701	Sololá	4	Finca Santa Victoria	7	Julio	2023-07-22T00:00:00	2024-11-08T04:00:00	5	Humedad	95
120089	7	Sololá	701	Sololá	4	Finca Santa Victoria	7	Julio	2023-07-22T00:00:00	2024-11-08T04:00:00	6	Velocidad del viento	0
120090	7	Sololá	701	Sololá	4	Finca Santa Victoria	7	Julio	2023-07-22T00:00:00	2024-11-08T04:00:00	7	Dirección del viento	0
120091	7	Sololá	701	Sololá	4	Finca Santa Victoria	7	Julio	2023-07-22T00:00:00	2024-11-08T04:00:00	1	Precipitación	0
120092	7	Sololá	701	Sololá	4	Finca Santa Victoria	7	Julio	2023-07-22T00:00:00	2024-11-08T04:00:00	8	Radiación solar	0
120093	7	Sololá	701	Sololá	4	Finca Santa Victoria	7	Julio	2023-07-22T00:00:00	2024-11-08T05:00:00	2	Temperatura media	12.8
120094	7	Sololá	701	Sololá	4	Finca Santa Victoria	7	Julio	2023-07-22T00:00:00	2024-11-08T05:00:00	4	Temperatura máxima	12.9
120095	7	Sololá	701	Sololá	4	Finca Santa Victoria	7	Julio	2023-07-22T00:00:00	2024-11-08T05:00:00	3	Temperatura mínima	12.6
120096	7	Sololá	701	Sololá	4	Finca Santa Victoria	7	Julio	2023-07-22T00:00:00	2024-11-08T05:00:00	5	Humedad	96
120097	7	Sololá	701	Sololá	4	Finca Santa Victoria	7	Julio	2023-07-22T00:00:00	2024-11-08T05:00:00	6	Velocidad del viento	1.6
120098	7	Sololá	701	Sololá	4	Finca Santa Victoria	7	Julio	2023-07-22T00:00:00	2024-11-08T05:00:00	7	Dirección del viento	1.61
120099	7	Sololá	701	Sololá	4	Finca Santa Victoria	7	Julio	2023-07-22T00:00:00	2024-11-08T05:00:00	1	Precipitación	0
120100	7	Sololá	701	Sololá	4	Finca Santa Victoria	7	Julio	2023-07-22T00:00:00	2024-11-08T05:00:00	8	Radiación solar	0
120101	7	Sololá	701	Sololá	4	Finca Santa Victoria	7	Julio	2023-07-22T00:00:00	2024-11-08T06:00:00	2	Temperatura media	12.7
120102	7	Sololá	701	Sololá	4	Finca Santa Victoria	7	Julio	2023-07-22T00:00:00	2024-11-08T06:00:00	4	Temperatura máxima	12.8
120103	7	Sololá	701	Sololá	4	Finca Santa Victoria	7	Julio	2023-07-22T00:00:00	2024-11-08T06:00:00	3	Temperatura mínima	12.6
120104	7	Sololá	701	Sololá	4	Finca Santa Victoria	7	Julio	2023-07-22T00:00:00	2024-11-08T06:00:00	5	Humedad	95
120105	7	Sololá	701	Sololá	4	Finca Santa Victoria	7	Julio	2023-07-22T00:00:00	2024-11-08T06:00:00	6	Velocidad del viento	1.6
120106	7	Sololá	701	Sololá	4	Finca Santa Victoria	7	Julio	2023-07-22T00:00:00	2024-11-08T06:00:00	7	Dirección del viento	1.61
120107	7	Sololá	701	Sololá	4	Finca Santa Victoria	7	Julio	2023-07-22T00:00:00	2024-11-08T06:00:00	1	Precipitación	0
120108	7	Sololá	701	Sololá	4	Finca Santa Victoria	7	Julio	2023-07-22T00:00:00	2024-11-08T06:00:00	8	Radiación solar	0
120109	7	Sololá	701	Sololá	4	Finca Santa Victoria	7	Julio	2023-07-22T00:00:00	2024-11-08T07:00:00	2	Temperatura media	14.4
120110	7	Sololá	701	Sololá	4	Finca Santa Victoria	7	Julio	2023-07-22T00:00:00	2024-11-08T07:00:00	4	Temperatura máxima	14.4
120111	7	Sololá	701	Sololá	4	Finca Santa Victoria	7	Julio	2023-07-22T00:00:00	2024-11-08T07:00:00	3	Temperatura mínima	12.7
120112	7	Sololá	701	Sololá	4	Finca Santa Victoria	7	Julio	2023-07-22T00:00:00	2024-11-08T07:00:00	5	Humedad	91
120113	7	Sololá	701	Sololá	4	Finca Santa Victoria	7	Julio	2023-07-22T00:00:00	2024-11-08T07:00:00	6	Velocidad del viento	1.6
120114	7	Sololá	701	Sololá	4	Finca Santa Victoria	7	Julio	2023-07-22T00:00:00	2024-11-08T07:00:00	7	Dirección del viento	1.61
120115	7	Sololá	701	Sololá	4	Finca Santa Victoria	7	Julio	2023-07-22T00:00:00	2024-11-08T07:00:00	1	Precipitación	0
120116	7	Sololá	701	Sololá	4	Finca Santa Victoria	7	Julio	2023-07-22T00:00:00	2024-11-08T07:00:00	8	Radiación solar	43
120117	7	Sololá	701	Sololá	4	Finca Santa Victoria	7	Julio	2023-07-22T00:00:00	2024-11-08T08:00:00	2	Temperatura media	16.4
120118	7	Sololá	701	Sololá	4	Finca Santa Victoria	7	Julio	2023-07-22T00:00:00	2024-11-08T08:00:00	4	Temperatura máxima	16.4
120119	7	Sololá	701	Sololá	4	Finca Santa Victoria	7	Julio	2023-07-22T00:00:00	2024-11-08T08:00:00	3	Temperatura mínima	14.4
120120	7	Sololá	701	Sololá	4	Finca Santa Victoria	7	Julio	2023-07-22T00:00:00	2024-11-08T08:00:00	5	Humedad	84
120121	7	Sololá	701	Sololá	4	Finca Santa Victoria	7	Julio	2023-07-22T00:00:00	2024-11-08T08:00:00	6	Velocidad del viento	1.6
120122	7	Sololá	701	Sololá	4	Finca Santa Victoria	7	Julio	2023-07-22T00:00:00	2024-11-08T08:00:00	7	Dirección del viento	1.61
120123	7	Sololá	701	Sololá	4	Finca Santa Victoria	7	Julio	2023-07-22T00:00:00	2024-11-08T08:00:00	1	Precipitación	0
120124	7	Sololá	701	Sololá	4	Finca Santa Victoria	7	Julio	2023-07-22T00:00:00	2024-11-08T08:00:00	8	Radiación solar	152
120125	7	Sololá	701	Sololá	4	Finca Santa Victoria	7	Julio	2023-07-22T00:00:00	2024-11-08T09:00:00	2	Temperatura media	18.4
120126	7	Sololá	701	Sololá	4	Finca Santa Victoria	7	Julio	2023-07-22T00:00:00	2024-11-08T09:00:00	4	Temperatura máxima	18.5
120127	7	Sololá	701	Sololá	4	Finca Santa Victoria	7	Julio	2023-07-22T00:00:00	2024-11-08T09:00:00	3	Temperatura mínima	16.3
120128	7	Sololá	701	Sololá	4	Finca Santa Victoria	7	Julio	2023-07-22T00:00:00	2024-11-08T09:00:00	5	Humedad	78
120129	7	Sololá	701	Sololá	4	Finca Santa Victoria	7	Julio	2023-07-22T00:00:00	2024-11-08T09:00:00	6	Velocidad del viento	1.6
120130	7	Sololá	701	Sololá	4	Finca Santa Victoria	7	Julio	2023-07-22T00:00:00	2024-11-08T09:00:00	7	Dirección del viento	1.61
120131	7	Sololá	701	Sololá	4	Finca Santa Victoria	7	Julio	2023-07-22T00:00:00	2024-11-08T09:00:00	1	Precipitación	0
120132	7	Sololá	701	Sololá	4	Finca Santa Victoria	7	Julio	2023-07-22T00:00:00	2024-11-08T09:00:00	8	Radiación solar	280
120133	7	Sololá	701	Sololá	4	Finca Santa Victoria	7	Julio	2023-07-22T00:00:00	2024-11-08T10:00:00	2	Temperatura media	19.1
120134	7	Sololá	701	Sololá	4	Finca Santa Victoria	7	Julio	2023-07-22T00:00:00	2024-11-08T10:00:00	4	Temperatura máxima	19.1
120135	7	Sololá	701	Sololá	4	Finca Santa Victoria	7	Julio	2023-07-22T00:00:00	2024-11-08T10:00:00	3	Temperatura mínima	18.5
120136	7	Sololá	701	Sololá	4	Finca Santa Victoria	7	Julio	2023-07-22T00:00:00	2024-11-08T10:00:00	5	Humedad	81
120137	7	Sololá	701	Sololá	4	Finca Santa Victoria	7	Julio	2023-07-22T00:00:00	2024-11-08T10:00:00	6	Velocidad del viento	1.6
120138	7	Sololá	701	Sololá	4	Finca Santa Victoria	7	Julio	2023-07-22T00:00:00	2024-11-08T10:00:00	7	Dirección del viento	1.61
120139	7	Sololá	701	Sololá	4	Finca Santa Victoria	7	Julio	2023-07-22T00:00:00	2024-11-08T10:00:00	1	Precipitación	0
120140	7	Sololá	701	Sololá	4	Finca Santa Victoria	7	Julio	2023-07-22T00:00:00	2024-11-08T10:00:00	8	Radiación solar	275
120141	7	Sololá	701	Sololá	4	Finca Santa Victoria	7	Julio	2023-07-22T00:00:00	2024-11-08T11:00:00	2	Temperatura media	18.7
120142	7	Sololá	701	Sololá	4	Finca Santa Victoria	7	Julio	2023-07-22T00:00:00	2024-11-08T11:00:00	4	Temperatura máxima	19.2
120143	7	Sololá	701	Sololá	4	Finca Santa Victoria	7	Julio	2023-07-22T00:00:00	2024-11-08T11:00:00	3	Temperatura mínima	18.3
120144	7	Sololá	701	Sololá	4	Finca Santa Victoria	7	Julio	2023-07-22T00:00:00	2024-11-08T11:00:00	5	Humedad	76
120145	7	Sololá	701	Sololá	4	Finca Santa Victoria	7	Julio	2023-07-22T00:00:00	2024-11-08T11:00:00	6	Velocidad del viento	3.2
120146	7	Sololá	701	Sololá	4	Finca Santa Victoria	7	Julio	2023-07-22T00:00:00	2024-11-08T11:00:00	7	Dirección del viento	3.22
120147	7	Sololá	701	Sololá	4	Finca Santa Victoria	7	Julio	2023-07-22T00:00:00	2024-11-08T11:00:00	1	Precipitación	0
120148	7	Sololá	701	Sololá	4	Finca Santa Victoria	7	Julio	2023-07-22T00:00:00	2024-11-08T11:00:00	8	Radiación solar	253
120149	7	Sololá	701	Sololá	4	Finca Santa Victoria	7	Julio	2023-07-22T00:00:00	2024-11-08T12:00:00	2	Temperatura media	17.8
120150	7	Sololá	701	Sololá	4	Finca Santa Victoria	7	Julio	2023-07-22T00:00:00	2024-11-08T12:00:00	4	Temperatura máxima	19.6
120151	7	Sololá	701	Sololá	4	Finca Santa Victoria	7	Julio	2023-07-22T00:00:00	2024-11-08T12:00:00	3	Temperatura mínima	17.8
120152	7	Sololá	701	Sololá	4	Finca Santa Victoria	7	Julio	2023-07-22T00:00:00	2024-11-08T12:00:00	5	Humedad	89
120153	7	Sololá	701	Sololá	4	Finca Santa Victoria	7	Julio	2023-07-22T00:00:00	2024-11-08T12:00:00	6	Velocidad del viento	3.2
120154	7	Sololá	701	Sololá	4	Finca Santa Victoria	7	Julio	2023-07-22T00:00:00	2024-11-08T12:00:00	7	Dirección del viento	3.22
120155	7	Sololá	701	Sololá	4	Finca Santa Victoria	7	Julio	2023-07-22T00:00:00	2024-11-08T12:00:00	1	Precipitación	0
120156	7	Sololá	701	Sololá	4	Finca Santa Victoria	7	Julio	2023-07-22T00:00:00	2024-11-08T12:00:00	8	Radiación solar	251
120157	7	Sololá	701	Sololá	4	Finca Santa Victoria	7	Julio	2023-07-22T00:00:00	2024-11-08T13:00:00	2	Temperatura media	13.9
120158	7	Sololá	701	Sololá	4	Finca Santa Victoria	7	Julio	2023-07-22T00:00:00	2024-11-08T13:00:00	4	Temperatura máxima	17.8
120159	7	Sololá	701	Sololá	4	Finca Santa Victoria	7	Julio	2023-07-22T00:00:00	2024-11-08T13:00:00	3	Temperatura mínima	13.8
120160	7	Sololá	701	Sololá	4	Finca Santa Victoria	7	Julio	2023-07-22T00:00:00	2024-11-08T13:00:00	5	Humedad	93
120161	7	Sololá	701	Sololá	4	Finca Santa Victoria	7	Julio	2023-07-22T00:00:00	2024-11-08T13:00:00	6	Velocidad del viento	1.6
120162	7	Sololá	701	Sololá	4	Finca Santa Victoria	7	Julio	2023-07-22T00:00:00	2024-11-08T13:00:00	7	Dirección del viento	1.61
120163	7	Sololá	701	Sololá	4	Finca Santa Victoria	7	Julio	2023-07-22T00:00:00	2024-11-08T13:00:00	1	Precipitación	3.6
120164	7	Sololá	701	Sololá	4	Finca Santa Victoria	7	Julio	2023-07-22T00:00:00	2024-11-08T13:00:00	8	Radiación solar	30
120165	7	Sololá	701	Sololá	4	Finca Santa Victoria	7	Julio	2023-07-22T00:00:00	2024-11-08T14:00:00	2	Temperatura media	14.2
120166	7	Sololá	701	Sololá	4	Finca Santa Victoria	7	Julio	2023-07-22T00:00:00	2024-11-08T14:00:00	4	Temperatura máxima	14.3
120167	7	Sololá	701	Sololá	4	Finca Santa Victoria	7	Julio	2023-07-22T00:00:00	2024-11-08T14:00:00	3	Temperatura mínima	13.9
120168	7	Sololá	701	Sololá	4	Finca Santa Victoria	7	Julio	2023-07-22T00:00:00	2024-11-08T14:00:00	5	Humedad	94
120169	7	Sololá	701	Sololá	4	Finca Santa Victoria	7	Julio	2023-07-22T00:00:00	2024-11-08T14:00:00	6	Velocidad del viento	1.6
120170	7	Sololá	701	Sololá	4	Finca Santa Victoria	7	Julio	2023-07-22T00:00:00	2024-11-08T14:00:00	7	Dirección del viento	1.61
120171	7	Sololá	701	Sololá	4	Finca Santa Victoria	7	Julio	2023-07-22T00:00:00	2024-11-08T14:00:00	1	Precipitación	1
120172	7	Sololá	701	Sololá	4	Finca Santa Victoria	7	Julio	2023-07-22T00:00:00	2024-11-08T14:00:00	8	Radiación solar	69
120173	7	Sololá	701	Sololá	4	Finca Santa Victoria	7	Julio	2023-07-22T00:00:00	2024-11-08T15:00:00	2	Temperatura media	14.9
120174	7	Sololá	701	Sololá	4	Finca Santa Victoria	7	Julio	2023-07-22T00:00:00	2024-11-08T15:00:00	4	Temperatura máxima	15
120175	7	Sololá	701	Sololá	4	Finca Santa Victoria	7	Julio	2023-07-22T00:00:00	2024-11-08T15:00:00	3	Temperatura mínima	14
120176	7	Sololá	701	Sololá	4	Finca Santa Victoria	7	Julio	2023-07-22T00:00:00	2024-11-08T15:00:00	5	Humedad	94
120177	7	Sololá	701	Sololá	4	Finca Santa Victoria	7	Julio	2023-07-22T00:00:00	2024-11-08T15:00:00	6	Velocidad del viento	1.6
120178	7	Sololá	701	Sololá	4	Finca Santa Victoria	7	Julio	2023-07-22T00:00:00	2024-11-08T15:00:00	7	Dirección del viento	1.61
120179	7	Sololá	701	Sololá	4	Finca Santa Victoria	7	Julio	2023-07-22T00:00:00	2024-11-08T15:00:00	1	Precipitación	0.2
120180	7	Sololá	701	Sololá	4	Finca Santa Victoria	7	Julio	2023-07-22T00:00:00	2024-11-08T15:00:00	8	Radiación solar	114
120181	7	Sololá	701	Sololá	4	Finca Santa Victoria	7	Julio	2023-07-22T00:00:00	2024-11-08T16:00:00	2	Temperatura media	14.8
120182	7	Sololá	701	Sololá	4	Finca Santa Victoria	7	Julio	2023-07-22T00:00:00	2024-11-08T16:00:00	4	Temperatura máxima	15.1
120183	7	Sololá	701	Sololá	4	Finca Santa Victoria	7	Julio	2023-07-22T00:00:00	2024-11-08T16:00:00	3	Temperatura mínima	14.8
120184	7	Sololá	701	Sololá	4	Finca Santa Victoria	7	Julio	2023-07-22T00:00:00	2024-11-08T16:00:00	5	Humedad	96
120185	7	Sololá	701	Sololá	4	Finca Santa Victoria	7	Julio	2023-07-22T00:00:00	2024-11-08T16:00:00	6	Velocidad del viento	0
120186	7	Sololá	701	Sololá	4	Finca Santa Victoria	7	Julio	2023-07-22T00:00:00	2024-11-08T16:00:00	7	Dirección del viento	0
120187	7	Sololá	701	Sololá	4	Finca Santa Victoria	7	Julio	2023-07-22T00:00:00	2024-11-08T16:00:00	1	Precipitación	0
120188	7	Sololá	701	Sololá	4	Finca Santa Victoria	7	Julio	2023-07-22T00:00:00	2024-11-08T16:00:00	8	Radiación solar	42
120189	7	Sololá	701	Sololá	4	Finca Santa Victoria	7	Julio	2023-07-22T00:00:00	2024-11-08T17:00:00	2	Temperatura media	14.8
120190	7	Sololá	701	Sololá	4	Finca Santa Victoria	7	Julio	2023-07-22T00:00:00	2024-11-08T17:00:00	4	Temperatura máxima	14.8
120191	7	Sololá	701	Sololá	4	Finca Santa Victoria	7	Julio	2023-07-22T00:00:00	2024-11-08T17:00:00	3	Temperatura mínima	14.4
120192	7	Sololá	701	Sololá	4	Finca Santa Victoria	7	Julio	2023-07-22T00:00:00	2024-11-08T17:00:00	5	Humedad	96
120193	7	Sololá	701	Sololá	4	Finca Santa Victoria	7	Julio	2023-07-22T00:00:00	2024-11-08T17:00:00	6	Velocidad del viento	0
120194	7	Sololá	701	Sololá	4	Finca Santa Victoria	7	Julio	2023-07-22T00:00:00	2024-11-08T17:00:00	7	Dirección del viento	0
120195	7	Sololá	701	Sololá	4	Finca Santa Victoria	7	Julio	2023-07-22T00:00:00	2024-11-08T17:00:00	1	Precipitación	0
120196	7	Sololá	701	Sololá	4	Finca Santa Victoria	7	Julio	2023-07-22T00:00:00	2024-11-08T17:00:00	8	Radiación solar	38
120197	7	Sololá	701	Sololá	4	Finca Santa Victoria	7	Julio	2023-07-22T00:00:00	2024-11-08T18:00:00	2	Temperatura media	14.6
120198	7	Sololá	701	Sololá	4	Finca Santa Victoria	7	Julio	2023-07-22T00:00:00	2024-11-08T18:00:00	4	Temperatura máxima	14.9
120199	7	Sololá	701	Sololá	4	Finca Santa Victoria	7	Julio	2023-07-22T00:00:00	2024-11-08T18:00:00	3	Temperatura mínima	14.6
120200	7	Sololá	701	Sololá	4	Finca Santa Victoria	7	Julio	2023-07-22T00:00:00	2024-11-08T18:00:00	5	Humedad	94
120201	7	Sololá	701	Sololá	4	Finca Santa Victoria	7	Julio	2023-07-22T00:00:00	2024-11-08T18:00:00	6	Velocidad del viento	0
120202	7	Sololá	701	Sololá	4	Finca Santa Victoria	7	Julio	2023-07-22T00:00:00	2024-11-08T18:00:00	7	Dirección del viento	0
120203	7	Sololá	701	Sololá	4	Finca Santa Victoria	7	Julio	2023-07-22T00:00:00	2024-11-08T18:00:00	1	Precipitación	0
120204	7	Sololá	701	Sololá	4	Finca Santa Victoria	7	Julio	2023-07-22T00:00:00	2024-11-08T18:00:00	8	Radiación solar	39
120205	7	Sololá	701	Sololá	4	Finca Santa Victoria	7	Julio	2023-07-22T00:00:00	2024-11-08T19:00:00	2	Temperatura media	14.6
120206	7	Sololá	701	Sololá	4	Finca Santa Victoria	7	Julio	2023-07-22T00:00:00	2024-11-08T19:00:00	4	Temperatura máxima	14.6
120207	7	Sololá	701	Sololá	4	Finca Santa Victoria	7	Julio	2023-07-22T00:00:00	2024-11-08T19:00:00	3	Temperatura mínima	14.4
120208	7	Sololá	701	Sololá	4	Finca Santa Victoria	7	Julio	2023-07-22T00:00:00	2024-11-08T19:00:00	5	Humedad	95
120209	7	Sololá	701	Sololá	4	Finca Santa Victoria	7	Julio	2023-07-22T00:00:00	2024-11-08T19:00:00	6	Velocidad del viento	1.6
120210	7	Sololá	701	Sololá	4	Finca Santa Victoria	7	Julio	2023-07-22T00:00:00	2024-11-08T19:00:00	7	Dirección del viento	1.61
120211	7	Sololá	701	Sololá	4	Finca Santa Victoria	7	Julio	2023-07-22T00:00:00	2024-11-08T19:00:00	1	Precipitación	0
120212	7	Sololá	701	Sololá	4	Finca Santa Victoria	7	Julio	2023-07-22T00:00:00	2024-11-08T19:00:00	8	Radiación solar	0
120213	7	Sololá	701	Sololá	4	Finca Santa Victoria	7	Julio	2023-07-22T00:00:00	2024-11-08T20:00:00	2	Temperatura media	14.1
120214	7	Sololá	701	Sololá	4	Finca Santa Victoria	7	Julio	2023-07-22T00:00:00	2024-11-08T20:00:00	4	Temperatura máxima	14.6
120215	7	Sololá	701	Sololá	4	Finca Santa Victoria	7	Julio	2023-07-22T00:00:00	2024-11-08T20:00:00	3	Temperatura mínima	14.1
120216	7	Sololá	701	Sololá	4	Finca Santa Victoria	7	Julio	2023-07-22T00:00:00	2024-11-08T20:00:00	5	Humedad	92
120217	7	Sololá	701	Sololá	4	Finca Santa Victoria	7	Julio	2023-07-22T00:00:00	2024-11-08T20:00:00	6	Velocidad del viento	0
120218	7	Sololá	701	Sololá	4	Finca Santa Victoria	7	Julio	2023-07-22T00:00:00	2024-11-08T20:00:00	7	Dirección del viento	0
120219	7	Sololá	701	Sololá	4	Finca Santa Victoria	7	Julio	2023-07-22T00:00:00	2024-11-08T20:00:00	1	Precipitación	0
120220	7	Sololá	701	Sololá	4	Finca Santa Victoria	7	Julio	2023-07-22T00:00:00	2024-11-08T20:00:00	8	Radiación solar	0
120221	7	Sololá	701	Sololá	4	Finca Santa Victoria	7	Julio	2023-07-22T00:00:00	2024-11-08T21:00:00	2	Temperatura media	13.6
120222	7	Sololá	701	Sololá	4	Finca Santa Victoria	7	Julio	2023-07-22T00:00:00	2024-11-08T21:00:00	4	Temperatura máxima	14.1
120223	7	Sololá	701	Sololá	4	Finca Santa Victoria	7	Julio	2023-07-22T00:00:00	2024-11-08T21:00:00	3	Temperatura mínima	13.6
120224	7	Sololá	701	Sololá	4	Finca Santa Victoria	7	Julio	2023-07-22T00:00:00	2024-11-08T21:00:00	5	Humedad	93
120225	7	Sololá	701	Sololá	4	Finca Santa Victoria	7	Julio	2023-07-22T00:00:00	2024-11-08T21:00:00	6	Velocidad del viento	0
120226	7	Sololá	701	Sololá	4	Finca Santa Victoria	7	Julio	2023-07-22T00:00:00	2024-11-08T21:00:00	7	Dirección del viento	0
120227	7	Sololá	701	Sololá	4	Finca Santa Victoria	7	Julio	2023-07-22T00:00:00	2024-11-08T21:00:00	1	Precipitación	0
120228	7	Sololá	701	Sololá	4	Finca Santa Victoria	7	Julio	2023-07-22T00:00:00	2024-11-08T21:00:00	8	Radiación solar	0
120229	7	Sololá	701	Sololá	4	Finca Santa Victoria	7	Julio	2023-07-22T00:00:00	2024-11-08T22:00:00	2	Temperatura media	13.4
120230	7	Sololá	701	Sololá	4	Finca Santa Victoria	7	Julio	2023-07-22T00:00:00	2024-11-08T22:00:00	4	Temperatura máxima	13.7
120231	7	Sololá	701	Sololá	4	Finca Santa Victoria	7	Julio	2023-07-22T00:00:00	2024-11-08T22:00:00	3	Temperatura mínima	13.4
120232	7	Sololá	701	Sololá	4	Finca Santa Victoria	7	Julio	2023-07-22T00:00:00	2024-11-08T22:00:00	5	Humedad	93
120233	7	Sololá	701	Sololá	4	Finca Santa Victoria	7	Julio	2023-07-22T00:00:00	2024-11-08T22:00:00	6	Velocidad del viento	0
120234	7	Sololá	701	Sololá	4	Finca Santa Victoria	7	Julio	2023-07-22T00:00:00	2024-11-08T22:00:00	7	Dirección del viento	0
120235	7	Sololá	701	Sololá	4	Finca Santa Victoria	7	Julio	2023-07-22T00:00:00	2024-11-08T22:00:00	1	Precipitación	0
120236	7	Sololá	701	Sololá	4	Finca Santa Victoria	7	Julio	2023-07-22T00:00:00	2024-11-08T22:00:00	8	Radiación solar	0
120237	7	Sololá	701	Sololá	4	Finca Santa Victoria	7	Julio	2023-07-22T00:00:00	2024-11-08T23:00:00	2	Temperatura media	13.2
120238	7	Sololá	701	Sololá	4	Finca Santa Victoria	7	Julio	2023-07-22T00:00:00	2024-11-08T23:00:00	4	Temperatura máxima	13.4
120239	7	Sololá	701	Sololá	4	Finca Santa Victoria	7	Julio	2023-07-22T00:00:00	2024-11-08T23:00:00	3	Temperatura mínima	13.2
120240	7	Sololá	701	Sololá	4	Finca Santa Victoria	7	Julio	2023-07-22T00:00:00	2024-11-08T23:00:00	5	Humedad	96
120241	7	Sololá	701	Sololá	4	Finca Santa Victoria	7	Julio	2023-07-22T00:00:00	2024-11-08T23:00:00	6	Velocidad del viento	0
120242	7	Sololá	701	Sololá	4	Finca Santa Victoria	7	Julio	2023-07-22T00:00:00	2024-11-08T23:00:00	7	Dirección del viento	0
120243	7	Sololá	701	Sololá	4	Finca Santa Victoria	7	Julio	2023-07-22T00:00:00	2024-11-08T23:00:00	1	Precipitación	0
120244	7	Sololá	701	Sololá	4	Finca Santa Victoria	7	Julio	2023-07-22T00:00:00	2024-11-08T23:00:00	8	Radiación solar	0
120245	7	Sololá	701	Sololá	4	Finca Santa Victoria	7	Julio	2023-07-23T00:00:00	2024-11-08T00:00:00	2	Temperatura media	13.3
120246	7	Sololá	701	Sololá	4	Finca Santa Victoria	7	Julio	2023-07-23T00:00:00	2024-11-08T00:00:00	4	Temperatura máxima	13.3
120247	7	Sololá	701	Sololá	4	Finca Santa Victoria	7	Julio	2023-07-23T00:00:00	2024-11-08T00:00:00	3	Temperatura mínima	13.1
120248	7	Sololá	701	Sololá	4	Finca Santa Victoria	7	Julio	2023-07-23T00:00:00	2024-11-08T00:00:00	5	Humedad	95
120249	7	Sololá	701	Sololá	4	Finca Santa Victoria	7	Julio	2023-07-23T00:00:00	2024-11-08T00:00:00	6	Velocidad del viento	0
120250	7	Sololá	701	Sololá	4	Finca Santa Victoria	7	Julio	2023-07-23T00:00:00	2024-11-08T00:00:00	7	Dirección del viento	0
120251	7	Sololá	701	Sololá	4	Finca Santa Victoria	7	Julio	2023-07-23T00:00:00	2024-11-08T00:00:00	1	Precipitación	0
120252	7	Sololá	701	Sololá	4	Finca Santa Victoria	7	Julio	2023-07-23T00:00:00	2024-11-08T00:00:00	8	Radiación solar	0
120253	7	Sololá	701	Sololá	4	Finca Santa Victoria	7	Julio	2023-07-23T00:00:00	2024-11-08T01:00:00	2	Temperatura media	12.9
120254	7	Sololá	701	Sololá	4	Finca Santa Victoria	7	Julio	2023-07-23T00:00:00	2024-11-08T01:00:00	4	Temperatura máxima	13.3
120255	7	Sololá	701	Sololá	4	Finca Santa Victoria	7	Julio	2023-07-23T00:00:00	2024-11-08T01:00:00	3	Temperatura mínima	12.8
120256	7	Sololá	701	Sololá	4	Finca Santa Victoria	7	Julio	2023-07-23T00:00:00	2024-11-08T01:00:00	5	Humedad	96
120257	7	Sololá	701	Sololá	4	Finca Santa Victoria	7	Julio	2023-07-23T00:00:00	2024-11-08T01:00:00	6	Velocidad del viento	1.6
120258	7	Sololá	701	Sololá	4	Finca Santa Victoria	7	Julio	2023-07-23T00:00:00	2024-11-08T01:00:00	7	Dirección del viento	1.61
120259	7	Sololá	701	Sololá	4	Finca Santa Victoria	7	Julio	2023-07-23T00:00:00	2024-11-08T01:00:00	1	Precipitación	0
120260	7	Sololá	701	Sololá	4	Finca Santa Victoria	7	Julio	2023-07-23T00:00:00	2024-11-08T01:00:00	8	Radiación solar	0
120261	7	Sololá	701	Sololá	4	Finca Santa Victoria	7	Julio	2023-07-23T00:00:00	2024-11-08T02:00:00	2	Temperatura media	12.6
120262	7	Sololá	701	Sololá	4	Finca Santa Victoria	7	Julio	2023-07-23T00:00:00	2024-11-08T02:00:00	4	Temperatura máxima	12.9
120263	7	Sololá	701	Sololá	4	Finca Santa Victoria	7	Julio	2023-07-23T00:00:00	2024-11-08T02:00:00	3	Temperatura mínima	12.6
120264	7	Sololá	701	Sololá	4	Finca Santa Victoria	7	Julio	2023-07-23T00:00:00	2024-11-08T02:00:00	5	Humedad	96
120265	7	Sololá	701	Sololá	4	Finca Santa Victoria	7	Julio	2023-07-23T00:00:00	2024-11-08T02:00:00	6	Velocidad del viento	0
120266	7	Sololá	701	Sololá	4	Finca Santa Victoria	7	Julio	2023-07-23T00:00:00	2024-11-08T02:00:00	7	Dirección del viento	0
120267	7	Sololá	701	Sololá	4	Finca Santa Victoria	7	Julio	2023-07-23T00:00:00	2024-11-08T02:00:00	1	Precipitación	0
120268	7	Sololá	701	Sololá	4	Finca Santa Victoria	7	Julio	2023-07-23T00:00:00	2024-11-08T02:00:00	8	Radiación solar	0
120269	7	Sololá	701	Sololá	4	Finca Santa Victoria	7	Julio	2023-07-23T00:00:00	2024-11-08T03:00:00	2	Temperatura media	13.2
120270	7	Sololá	701	Sololá	4	Finca Santa Victoria	7	Julio	2023-07-23T00:00:00	2024-11-08T03:00:00	4	Temperatura máxima	13.3
120271	7	Sololá	701	Sololá	4	Finca Santa Victoria	7	Julio	2023-07-23T00:00:00	2024-11-08T03:00:00	3	Temperatura mínima	12.6
120272	7	Sololá	701	Sololá	4	Finca Santa Victoria	7	Julio	2023-07-23T00:00:00	2024-11-08T03:00:00	5	Humedad	93
120273	7	Sololá	701	Sololá	4	Finca Santa Victoria	7	Julio	2023-07-23T00:00:00	2024-11-08T03:00:00	6	Velocidad del viento	0
120274	7	Sololá	701	Sololá	4	Finca Santa Victoria	7	Julio	2023-07-23T00:00:00	2024-11-08T03:00:00	7	Dirección del viento	0
120275	7	Sololá	701	Sololá	4	Finca Santa Victoria	7	Julio	2023-07-23T00:00:00	2024-11-08T03:00:00	1	Precipitación	0
120276	7	Sololá	701	Sololá	4	Finca Santa Victoria	7	Julio	2023-07-23T00:00:00	2024-11-08T03:00:00	8	Radiación solar	0
120277	7	Sololá	701	Sololá	4	Finca Santa Victoria	7	Julio	2023-07-23T00:00:00	2024-11-08T04:00:00	2	Temperatura media	12.9
120278	7	Sololá	701	Sololá	4	Finca Santa Victoria	7	Julio	2023-07-23T00:00:00	2024-11-08T04:00:00	4	Temperatura máxima	13.2
120279	7	Sololá	701	Sololá	4	Finca Santa Victoria	7	Julio	2023-07-23T00:00:00	2024-11-08T04:00:00	3	Temperatura mínima	12.8
120280	7	Sololá	701	Sololá	4	Finca Santa Victoria	7	Julio	2023-07-23T00:00:00	2024-11-08T04:00:00	5	Humedad	97
120281	7	Sololá	701	Sololá	4	Finca Santa Victoria	7	Julio	2023-07-23T00:00:00	2024-11-08T04:00:00	6	Velocidad del viento	3.2
120282	7	Sololá	701	Sololá	4	Finca Santa Victoria	7	Julio	2023-07-23T00:00:00	2024-11-08T04:00:00	7	Dirección del viento	3.22
120283	7	Sololá	701	Sololá	4	Finca Santa Victoria	7	Julio	2023-07-23T00:00:00	2024-11-08T04:00:00	1	Precipitación	0
120284	7	Sololá	701	Sololá	4	Finca Santa Victoria	7	Julio	2023-07-23T00:00:00	2024-11-08T04:00:00	8	Radiación solar	0
120285	7	Sololá	701	Sololá	4	Finca Santa Victoria	7	Julio	2023-07-23T00:00:00	2024-11-08T05:00:00	2	Temperatura media	12.7
120286	7	Sololá	701	Sololá	4	Finca Santa Victoria	7	Julio	2023-07-23T00:00:00	2024-11-08T05:00:00	4	Temperatura máxima	12.9
120287	7	Sololá	701	Sololá	4	Finca Santa Victoria	7	Julio	2023-07-23T00:00:00	2024-11-08T05:00:00	3	Temperatura mínima	12.7
120288	7	Sololá	701	Sololá	4	Finca Santa Victoria	7	Julio	2023-07-23T00:00:00	2024-11-08T05:00:00	5	Humedad	97
120289	7	Sololá	701	Sololá	4	Finca Santa Victoria	7	Julio	2023-07-23T00:00:00	2024-11-08T05:00:00	6	Velocidad del viento	0
120290	7	Sololá	701	Sololá	4	Finca Santa Victoria	7	Julio	2023-07-23T00:00:00	2024-11-08T05:00:00	7	Dirección del viento	0
120291	7	Sololá	701	Sololá	4	Finca Santa Victoria	7	Julio	2023-07-23T00:00:00	2024-11-08T05:00:00	1	Precipitación	0
120292	7	Sololá	701	Sololá	4	Finca Santa Victoria	7	Julio	2023-07-23T00:00:00	2024-11-08T05:00:00	8	Radiación solar	0
120293	7	Sololá	701	Sololá	4	Finca Santa Victoria	7	Julio	2023-07-23T00:00:00	2024-11-08T06:00:00	2	Temperatura media	12.6
120294	7	Sololá	701	Sololá	4	Finca Santa Victoria	7	Julio	2023-07-23T00:00:00	2024-11-08T06:00:00	4	Temperatura máxima	12.7
120295	7	Sololá	701	Sololá	4	Finca Santa Victoria	7	Julio	2023-07-23T00:00:00	2024-11-08T06:00:00	3	Temperatura mínima	12.3
120296	7	Sololá	701	Sololá	4	Finca Santa Victoria	7	Julio	2023-07-23T00:00:00	2024-11-08T06:00:00	5	Humedad	96
120297	7	Sololá	701	Sololá	4	Finca Santa Victoria	7	Julio	2023-07-23T00:00:00	2024-11-08T06:00:00	6	Velocidad del viento	0
120298	7	Sololá	701	Sololá	4	Finca Santa Victoria	7	Julio	2023-07-23T00:00:00	2024-11-08T06:00:00	7	Dirección del viento	0
120299	7	Sololá	701	Sololá	4	Finca Santa Victoria	7	Julio	2023-07-23T00:00:00	2024-11-08T06:00:00	1	Precipitación	0
120300	7	Sololá	701	Sololá	4	Finca Santa Victoria	7	Julio	2023-07-23T00:00:00	2024-11-08T06:00:00	8	Radiación solar	0
120301	7	Sololá	701	Sololá	4	Finca Santa Victoria	7	Julio	2023-07-23T00:00:00	2024-11-08T07:00:00	2	Temperatura media	13.6
120302	7	Sololá	701	Sololá	4	Finca Santa Victoria	7	Julio	2023-07-23T00:00:00	2024-11-08T07:00:00	4	Temperatura máxima	13.6
120303	7	Sololá	701	Sololá	4	Finca Santa Victoria	7	Julio	2023-07-23T00:00:00	2024-11-08T07:00:00	3	Temperatura mínima	12.6
120304	7	Sololá	701	Sololá	4	Finca Santa Victoria	7	Julio	2023-07-23T00:00:00	2024-11-08T07:00:00	5	Humedad	94
120305	7	Sololá	701	Sololá	4	Finca Santa Victoria	7	Julio	2023-07-23T00:00:00	2024-11-08T07:00:00	6	Velocidad del viento	0
120306	7	Sololá	701	Sololá	4	Finca Santa Victoria	7	Julio	2023-07-23T00:00:00	2024-11-08T07:00:00	7	Dirección del viento	0
120307	7	Sololá	701	Sololá	4	Finca Santa Victoria	7	Julio	2023-07-23T00:00:00	2024-11-08T07:00:00	1	Precipitación	0
120308	7	Sololá	701	Sololá	4	Finca Santa Victoria	7	Julio	2023-07-23T00:00:00	2024-11-08T07:00:00	8	Radiación solar	25
120309	7	Sololá	701	Sololá	4	Finca Santa Victoria	7	Julio	2023-07-23T00:00:00	2024-11-08T08:00:00	2	Temperatura media	16.6
120310	7	Sololá	701	Sololá	4	Finca Santa Victoria	7	Julio	2023-07-23T00:00:00	2024-11-08T08:00:00	4	Temperatura máxima	16.6
120311	7	Sololá	701	Sololá	4	Finca Santa Victoria	7	Julio	2023-07-23T00:00:00	2024-11-08T08:00:00	3	Temperatura mínima	13.6
120312	7	Sololá	701	Sololá	4	Finca Santa Victoria	7	Julio	2023-07-23T00:00:00	2024-11-08T08:00:00	5	Humedad	85
120313	7	Sololá	701	Sololá	4	Finca Santa Victoria	7	Julio	2023-07-23T00:00:00	2024-11-08T08:00:00	6	Velocidad del viento	1.6
120314	7	Sololá	701	Sololá	4	Finca Santa Victoria	7	Julio	2023-07-23T00:00:00	2024-11-08T08:00:00	7	Dirección del viento	1.61
120315	7	Sololá	701	Sololá	4	Finca Santa Victoria	7	Julio	2023-07-23T00:00:00	2024-11-08T08:00:00	1	Precipitación	0
120316	7	Sololá	701	Sololá	4	Finca Santa Victoria	7	Julio	2023-07-23T00:00:00	2024-11-08T08:00:00	8	Radiación solar	184
120317	7	Sololá	701	Sololá	4	Finca Santa Victoria	7	Julio	2023-07-23T00:00:00	2024-11-08T09:00:00	2	Temperatura media	17.9
120318	7	Sololá	701	Sololá	4	Finca Santa Victoria	7	Julio	2023-07-23T00:00:00	2024-11-08T09:00:00	4	Temperatura máxima	17.9
120319	7	Sololá	701	Sololá	4	Finca Santa Victoria	7	Julio	2023-07-23T00:00:00	2024-11-08T09:00:00	3	Temperatura mínima	16.6
120320	7	Sololá	701	Sololá	4	Finca Santa Victoria	7	Julio	2023-07-23T00:00:00	2024-11-08T09:00:00	5	Humedad	80
120321	7	Sololá	701	Sololá	4	Finca Santa Victoria	7	Julio	2023-07-23T00:00:00	2024-11-08T09:00:00	6	Velocidad del viento	1.6
120322	7	Sololá	701	Sololá	4	Finca Santa Victoria	7	Julio	2023-07-23T00:00:00	2024-11-08T09:00:00	7	Dirección del viento	1.61
120323	7	Sololá	701	Sololá	4	Finca Santa Victoria	7	Julio	2023-07-23T00:00:00	2024-11-08T09:00:00	1	Precipitación	0
120324	7	Sololá	701	Sololá	4	Finca Santa Victoria	7	Julio	2023-07-23T00:00:00	2024-11-08T09:00:00	8	Radiación solar	278
120325	7	Sololá	701	Sololá	4	Finca Santa Victoria	7	Julio	2023-07-23T00:00:00	2024-11-08T10:00:00	2	Temperatura media	18.8
120326	7	Sololá	701	Sololá	4	Finca Santa Victoria	7	Julio	2023-07-23T00:00:00	2024-11-08T10:00:00	4	Temperatura máxima	18.9
120327	7	Sololá	701	Sololá	4	Finca Santa Victoria	7	Julio	2023-07-23T00:00:00	2024-11-08T10:00:00	3	Temperatura mínima	17.9
120328	7	Sololá	701	Sololá	4	Finca Santa Victoria	7	Julio	2023-07-23T00:00:00	2024-11-08T10:00:00	5	Humedad	76
120329	7	Sololá	701	Sololá	4	Finca Santa Victoria	7	Julio	2023-07-23T00:00:00	2024-11-08T10:00:00	6	Velocidad del viento	1.6
120330	7	Sololá	701	Sololá	4	Finca Santa Victoria	7	Julio	2023-07-23T00:00:00	2024-11-08T10:00:00	7	Dirección del viento	1.61
120331	7	Sololá	701	Sololá	4	Finca Santa Victoria	7	Julio	2023-07-23T00:00:00	2024-11-08T10:00:00	1	Precipitación	0
120332	7	Sololá	701	Sololá	4	Finca Santa Victoria	7	Julio	2023-07-23T00:00:00	2024-11-08T10:00:00	8	Radiación solar	262
120333	7	Sololá	701	Sololá	4	Finca Santa Victoria	7	Julio	2023-07-23T00:00:00	2024-11-08T11:00:00	2	Temperatura media	19.5
120334	7	Sololá	701	Sololá	4	Finca Santa Victoria	7	Julio	2023-07-23T00:00:00	2024-11-08T11:00:00	4	Temperatura máxima	19.5
120335	7	Sololá	701	Sololá	4	Finca Santa Victoria	7	Julio	2023-07-23T00:00:00	2024-11-08T11:00:00	3	Temperatura mínima	18.5
120336	7	Sololá	701	Sololá	4	Finca Santa Victoria	7	Julio	2023-07-23T00:00:00	2024-11-08T11:00:00	5	Humedad	75
120337	7	Sololá	701	Sololá	4	Finca Santa Victoria	7	Julio	2023-07-23T00:00:00	2024-11-08T11:00:00	6	Velocidad del viento	1.6
120338	7	Sololá	701	Sololá	4	Finca Santa Victoria	7	Julio	2023-07-23T00:00:00	2024-11-08T11:00:00	7	Dirección del viento	1.61
120339	7	Sololá	701	Sololá	4	Finca Santa Victoria	7	Julio	2023-07-23T00:00:00	2024-11-08T11:00:00	1	Precipitación	0
120340	7	Sololá	701	Sololá	4	Finca Santa Victoria	7	Julio	2023-07-23T00:00:00	2024-11-08T11:00:00	8	Radiación solar	232
120341	7	Sololá	701	Sololá	4	Finca Santa Victoria	7	Julio	2023-07-23T00:00:00	2024-11-08T12:00:00	2	Temperatura media	19.3
120342	7	Sololá	701	Sololá	4	Finca Santa Victoria	7	Julio	2023-07-23T00:00:00	2024-11-08T12:00:00	4	Temperatura máxima	21.2
120343	7	Sololá	701	Sololá	4	Finca Santa Victoria	7	Julio	2023-07-23T00:00:00	2024-11-08T12:00:00	3	Temperatura mínima	19.3
120344	7	Sololá	701	Sololá	4	Finca Santa Victoria	7	Julio	2023-07-23T00:00:00	2024-11-08T12:00:00	5	Humedad	83
120345	7	Sololá	701	Sololá	4	Finca Santa Victoria	7	Julio	2023-07-23T00:00:00	2024-11-08T12:00:00	6	Velocidad del viento	3.2
120346	7	Sololá	701	Sololá	4	Finca Santa Victoria	7	Julio	2023-07-23T00:00:00	2024-11-08T12:00:00	7	Dirección del viento	3.22
120347	7	Sololá	701	Sololá	4	Finca Santa Victoria	7	Julio	2023-07-23T00:00:00	2024-11-08T12:00:00	1	Precipitación	0
120348	7	Sololá	701	Sololá	4	Finca Santa Victoria	7	Julio	2023-07-23T00:00:00	2024-11-08T12:00:00	8	Radiación solar	497
120349	7	Sololá	701	Sololá	4	Finca Santa Victoria	7	Julio	2023-07-23T00:00:00	2024-11-08T13:00:00	2	Temperatura media	18.6
120350	7	Sololá	701	Sololá	4	Finca Santa Victoria	7	Julio	2023-07-23T00:00:00	2024-11-08T13:00:00	4	Temperatura máxima	19.3
120351	7	Sololá	701	Sololá	4	Finca Santa Victoria	7	Julio	2023-07-23T00:00:00	2024-11-08T13:00:00	3	Temperatura mínima	17.7
120352	7	Sololá	701	Sololá	4	Finca Santa Victoria	7	Julio	2023-07-23T00:00:00	2024-11-08T13:00:00	5	Humedad	87
120353	7	Sololá	701	Sololá	4	Finca Santa Victoria	7	Julio	2023-07-23T00:00:00	2024-11-08T13:00:00	6	Velocidad del viento	3.2
120354	7	Sololá	701	Sololá	4	Finca Santa Victoria	7	Julio	2023-07-23T00:00:00	2024-11-08T13:00:00	7	Dirección del viento	3.22
120355	7	Sololá	701	Sololá	4	Finca Santa Victoria	7	Julio	2023-07-23T00:00:00	2024-11-08T13:00:00	1	Precipitación	0
120356	7	Sololá	701	Sololá	4	Finca Santa Victoria	7	Julio	2023-07-23T00:00:00	2024-11-08T13:00:00	8	Radiación solar	193
120357	7	Sololá	701	Sololá	4	Finca Santa Victoria	7	Julio	2023-07-23T00:00:00	2024-11-08T14:00:00	2	Temperatura media	17.1
120358	7	Sololá	701	Sololá	4	Finca Santa Victoria	7	Julio	2023-07-23T00:00:00	2024-11-08T14:00:00	4	Temperatura máxima	18.7
120359	7	Sololá	701	Sololá	4	Finca Santa Victoria	7	Julio	2023-07-23T00:00:00	2024-11-08T14:00:00	3	Temperatura mínima	17.1
120360	7	Sololá	701	Sololá	4	Finca Santa Victoria	7	Julio	2023-07-23T00:00:00	2024-11-08T14:00:00	5	Humedad	92
120361	7	Sololá	701	Sololá	4	Finca Santa Victoria	7	Julio	2023-07-23T00:00:00	2024-11-08T14:00:00	6	Velocidad del viento	3.2
120362	7	Sololá	701	Sololá	4	Finca Santa Victoria	7	Julio	2023-07-23T00:00:00	2024-11-08T14:00:00	7	Dirección del viento	3.22
120363	7	Sololá	701	Sololá	4	Finca Santa Victoria	7	Julio	2023-07-23T00:00:00	2024-11-08T14:00:00	1	Precipitación	0
120364	7	Sololá	701	Sololá	4	Finca Santa Victoria	7	Julio	2023-07-23T00:00:00	2024-11-08T14:00:00	8	Radiación solar	152
120365	7	Sololá	701	Sololá	4	Finca Santa Victoria	7	Julio	2023-07-23T00:00:00	2024-11-08T15:00:00	2	Temperatura media	16.3
120366	7	Sololá	701	Sololá	4	Finca Santa Victoria	7	Julio	2023-07-23T00:00:00	2024-11-08T15:00:00	4	Temperatura máxima	17.2
120367	7	Sololá	701	Sololá	4	Finca Santa Victoria	7	Julio	2023-07-23T00:00:00	2024-11-08T15:00:00	3	Temperatura mínima	16.2
120368	7	Sololá	701	Sololá	4	Finca Santa Victoria	7	Julio	2023-07-23T00:00:00	2024-11-08T15:00:00	5	Humedad	95
120369	7	Sololá	701	Sololá	4	Finca Santa Victoria	7	Julio	2023-07-23T00:00:00	2024-11-08T15:00:00	6	Velocidad del viento	3.2
120370	7	Sololá	701	Sololá	4	Finca Santa Victoria	7	Julio	2023-07-23T00:00:00	2024-11-08T15:00:00	7	Dirección del viento	3.22
120371	7	Sololá	701	Sololá	4	Finca Santa Victoria	7	Julio	2023-07-23T00:00:00	2024-11-08T15:00:00	1	Precipitación	0
120372	7	Sololá	701	Sololá	4	Finca Santa Victoria	7	Julio	2023-07-23T00:00:00	2024-11-08T15:00:00	8	Radiación solar	79
120373	7	Sololá	701	Sololá	4	Finca Santa Victoria	7	Julio	2023-07-23T00:00:00	2024-11-08T16:00:00	2	Temperatura media	15.9
120374	7	Sololá	701	Sololá	4	Finca Santa Victoria	7	Julio	2023-07-23T00:00:00	2024-11-08T16:00:00	4	Temperatura máxima	16.5
120375	7	Sololá	701	Sololá	4	Finca Santa Victoria	7	Julio	2023-07-23T00:00:00	2024-11-08T16:00:00	3	Temperatura mínima	15.9
120376	7	Sololá	701	Sololá	4	Finca Santa Victoria	7	Julio	2023-07-23T00:00:00	2024-11-08T16:00:00	5	Humedad	89
120377	7	Sololá	701	Sololá	4	Finca Santa Victoria	7	Julio	2023-07-23T00:00:00	2024-11-08T16:00:00	6	Velocidad del viento	3.2
120378	7	Sololá	701	Sololá	4	Finca Santa Victoria	7	Julio	2023-07-23T00:00:00	2024-11-08T16:00:00	7	Dirección del viento	3.22
120379	7	Sololá	701	Sololá	4	Finca Santa Victoria	7	Julio	2023-07-23T00:00:00	2024-11-08T16:00:00	1	Precipitación	0
120380	7	Sololá	701	Sololá	4	Finca Santa Victoria	7	Julio	2023-07-23T00:00:00	2024-11-08T16:00:00	8	Radiación solar	56
120381	7	Sololá	701	Sololá	4	Finca Santa Victoria	7	Julio	2023-07-23T00:00:00	2024-11-08T17:00:00	2	Temperatura media	15.6
120382	7	Sololá	701	Sololá	4	Finca Santa Victoria	7	Julio	2023-07-23T00:00:00	2024-11-08T17:00:00	4	Temperatura máxima	16
120383	7	Sololá	701	Sololá	4	Finca Santa Victoria	7	Julio	2023-07-23T00:00:00	2024-11-08T17:00:00	3	Temperatura mínima	15.3
120384	7	Sololá	701	Sololá	4	Finca Santa Victoria	7	Julio	2023-07-23T00:00:00	2024-11-08T17:00:00	5	Humedad	96
120385	7	Sololá	701	Sololá	4	Finca Santa Victoria	7	Julio	2023-07-23T00:00:00	2024-11-08T17:00:00	6	Velocidad del viento	0
120386	7	Sololá	701	Sololá	4	Finca Santa Victoria	7	Julio	2023-07-23T00:00:00	2024-11-08T17:00:00	7	Dirección del viento	0
120387	7	Sololá	701	Sololá	4	Finca Santa Victoria	7	Julio	2023-07-23T00:00:00	2024-11-08T17:00:00	1	Precipitación	0.2
120388	7	Sololá	701	Sololá	4	Finca Santa Victoria	7	Julio	2023-07-23T00:00:00	2024-11-08T17:00:00	8	Radiación solar	59
120389	7	Sololá	701	Sololá	4	Finca Santa Victoria	7	Julio	2023-07-23T00:00:00	2024-11-08T18:00:00	2	Temperatura media	15.4
120390	7	Sololá	701	Sololá	4	Finca Santa Victoria	7	Julio	2023-07-23T00:00:00	2024-11-08T18:00:00	4	Temperatura máxima	15.8
120391	7	Sololá	701	Sololá	4	Finca Santa Victoria	7	Julio	2023-07-23T00:00:00	2024-11-08T18:00:00	3	Temperatura mínima	15.4
120392	7	Sololá	701	Sololá	4	Finca Santa Victoria	7	Julio	2023-07-23T00:00:00	2024-11-08T18:00:00	5	Humedad	91
120393	7	Sololá	701	Sololá	4	Finca Santa Victoria	7	Julio	2023-07-23T00:00:00	2024-11-08T18:00:00	6	Velocidad del viento	0
120394	7	Sololá	701	Sololá	4	Finca Santa Victoria	7	Julio	2023-07-23T00:00:00	2024-11-08T18:00:00	7	Dirección del viento	0
120395	7	Sololá	701	Sololá	4	Finca Santa Victoria	7	Julio	2023-07-23T00:00:00	2024-11-08T18:00:00	1	Precipitación	0
120396	7	Sololá	701	Sololá	4	Finca Santa Victoria	7	Julio	2023-07-23T00:00:00	2024-11-08T18:00:00	8	Radiación solar	71
120397	7	Sololá	701	Sololá	4	Finca Santa Victoria	7	Julio	2023-07-23T00:00:00	2024-11-08T19:00:00	2	Temperatura media	14.3
120398	7	Sololá	701	Sololá	4	Finca Santa Victoria	7	Julio	2023-07-23T00:00:00	2024-11-08T19:00:00	4	Temperatura máxima	15.4
120399	7	Sololá	701	Sololá	4	Finca Santa Victoria	7	Julio	2023-07-23T00:00:00	2024-11-08T19:00:00	3	Temperatura mínima	14.3
120400	7	Sololá	701	Sololá	4	Finca Santa Victoria	7	Julio	2023-07-23T00:00:00	2024-11-08T19:00:00	5	Humedad	90
120401	7	Sololá	701	Sololá	4	Finca Santa Victoria	7	Julio	2023-07-23T00:00:00	2024-11-08T19:00:00	6	Velocidad del viento	0
120402	7	Sololá	701	Sololá	4	Finca Santa Victoria	7	Julio	2023-07-23T00:00:00	2024-11-08T19:00:00	7	Dirección del viento	0
120403	7	Sololá	701	Sololá	4	Finca Santa Victoria	7	Julio	2023-07-23T00:00:00	2024-11-08T19:00:00	1	Precipitación	0
120404	7	Sololá	701	Sololá	4	Finca Santa Victoria	7	Julio	2023-07-23T00:00:00	2024-11-08T19:00:00	8	Radiación solar	0
120405	7	Sololá	701	Sololá	4	Finca Santa Victoria	7	Julio	2023-07-23T00:00:00	2024-11-08T20:00:00	2	Temperatura media	14.2
120406	7	Sololá	701	Sololá	4	Finca Santa Victoria	7	Julio	2023-07-23T00:00:00	2024-11-08T20:00:00	4	Temperatura máxima	14.3
120407	7	Sololá	701	Sololá	4	Finca Santa Victoria	7	Julio	2023-07-23T00:00:00	2024-11-08T20:00:00	3	Temperatura mínima	14.2
120408	7	Sololá	701	Sololá	4	Finca Santa Victoria	7	Julio	2023-07-23T00:00:00	2024-11-08T20:00:00	5	Humedad	93
120409	7	Sololá	701	Sololá	4	Finca Santa Victoria	7	Julio	2023-07-23T00:00:00	2024-11-08T20:00:00	6	Velocidad del viento	0
120410	7	Sololá	701	Sololá	4	Finca Santa Victoria	7	Julio	2023-07-23T00:00:00	2024-11-08T20:00:00	7	Dirección del viento	0
120411	7	Sololá	701	Sololá	4	Finca Santa Victoria	7	Julio	2023-07-23T00:00:00	2024-11-08T20:00:00	1	Precipitación	0
120412	7	Sololá	701	Sololá	4	Finca Santa Victoria	7	Julio	2023-07-23T00:00:00	2024-11-08T20:00:00	8	Radiación solar	0
120413	7	Sololá	701	Sololá	4	Finca Santa Victoria	7	Julio	2023-07-23T00:00:00	2024-11-08T21:00:00	2	Temperatura media	14.3
120414	7	Sololá	701	Sololá	4	Finca Santa Victoria	7	Julio	2023-07-23T00:00:00	2024-11-08T21:00:00	4	Temperatura máxima	14.4
120415	7	Sololá	701	Sololá	4	Finca Santa Victoria	7	Julio	2023-07-23T00:00:00	2024-11-08T21:00:00	3	Temperatura mínima	14.2
120416	7	Sololá	701	Sololá	4	Finca Santa Victoria	7	Julio	2023-07-23T00:00:00	2024-11-08T21:00:00	5	Humedad	91
120417	7	Sololá	701	Sololá	4	Finca Santa Victoria	7	Julio	2023-07-23T00:00:00	2024-11-08T21:00:00	6	Velocidad del viento	0
120418	7	Sololá	701	Sololá	4	Finca Santa Victoria	7	Julio	2023-07-23T00:00:00	2024-11-08T21:00:00	7	Dirección del viento	0
120419	7	Sololá	701	Sololá	4	Finca Santa Victoria	7	Julio	2023-07-23T00:00:00	2024-11-08T21:00:00	1	Precipitación	0
120420	7	Sololá	701	Sololá	4	Finca Santa Victoria	7	Julio	2023-07-23T00:00:00	2024-11-08T21:00:00	8	Radiación solar	0
120421	7	Sololá	701	Sololá	4	Finca Santa Victoria	7	Julio	2023-07-23T00:00:00	2024-11-08T22:00:00	2	Temperatura media	14.4
120422	7	Sololá	701	Sololá	4	Finca Santa Victoria	7	Julio	2023-07-23T00:00:00	2024-11-08T22:00:00	4	Temperatura máxima	14.5
120423	7	Sololá	701	Sololá	4	Finca Santa Victoria	7	Julio	2023-07-23T00:00:00	2024-11-08T22:00:00	3	Temperatura mínima	14.3
120424	7	Sololá	701	Sololá	4	Finca Santa Victoria	7	Julio	2023-07-23T00:00:00	2024-11-08T22:00:00	5	Humedad	91
120425	7	Sololá	701	Sololá	4	Finca Santa Victoria	7	Julio	2023-07-23T00:00:00	2024-11-08T22:00:00	6	Velocidad del viento	0
120426	7	Sololá	701	Sololá	4	Finca Santa Victoria	7	Julio	2023-07-23T00:00:00	2024-11-08T22:00:00	7	Dirección del viento	0
120427	7	Sololá	701	Sololá	4	Finca Santa Victoria	7	Julio	2023-07-23T00:00:00	2024-11-08T22:00:00	1	Precipitación	0
120428	7	Sololá	701	Sololá	4	Finca Santa Victoria	7	Julio	2023-07-23T00:00:00	2024-11-08T22:00:00	8	Radiación solar	0
120429	7	Sololá	701	Sololá	4	Finca Santa Victoria	7	Julio	2023-07-23T00:00:00	2024-11-08T23:00:00	2	Temperatura media	14.3
120430	7	Sololá	701	Sololá	4	Finca Santa Victoria	7	Julio	2023-07-23T00:00:00	2024-11-08T23:00:00	4	Temperatura máxima	14.6
120431	7	Sololá	701	Sololá	4	Finca Santa Victoria	7	Julio	2023-07-23T00:00:00	2024-11-08T23:00:00	3	Temperatura mínima	14.3
120432	7	Sololá	701	Sololá	4	Finca Santa Victoria	7	Julio	2023-07-23T00:00:00	2024-11-08T23:00:00	5	Humedad	91
120433	7	Sololá	701	Sololá	4	Finca Santa Victoria	7	Julio	2023-07-23T00:00:00	2024-11-08T23:00:00	6	Velocidad del viento	0
120434	7	Sololá	701	Sololá	4	Finca Santa Victoria	7	Julio	2023-07-23T00:00:00	2024-11-08T23:00:00	7	Dirección del viento	0
120435	7	Sololá	701	Sololá	4	Finca Santa Victoria	7	Julio	2023-07-23T00:00:00	2024-11-08T23:00:00	1	Precipitación	0
120436	7	Sololá	701	Sololá	4	Finca Santa Victoria	7	Julio	2023-07-23T00:00:00	2024-11-08T23:00:00	8	Radiación solar	0
120437	7	Sololá	701	Sololá	4	Finca Santa Victoria	7	Julio	2023-07-24T00:00:00	2024-11-08T00:00:00	2	Temperatura media	13.9
120438	7	Sololá	701	Sololá	4	Finca Santa Victoria	7	Julio	2023-07-24T00:00:00	2024-11-08T00:00:00	4	Temperatura máxima	14.3
120439	7	Sololá	701	Sololá	4	Finca Santa Victoria	7	Julio	2023-07-24T00:00:00	2024-11-08T00:00:00	3	Temperatura mínima	13.9
120440	7	Sololá	701	Sololá	4	Finca Santa Victoria	7	Julio	2023-07-24T00:00:00	2024-11-08T00:00:00	5	Humedad	94
120441	7	Sololá	701	Sololá	4	Finca Santa Victoria	7	Julio	2023-07-24T00:00:00	2024-11-08T00:00:00	6	Velocidad del viento	0
120442	7	Sololá	701	Sololá	4	Finca Santa Victoria	7	Julio	2023-07-24T00:00:00	2024-11-08T00:00:00	7	Dirección del viento	0
120443	7	Sololá	701	Sololá	4	Finca Santa Victoria	7	Julio	2023-07-24T00:00:00	2024-11-08T00:00:00	1	Precipitación	0
120444	7	Sololá	701	Sololá	4	Finca Santa Victoria	7	Julio	2023-07-24T00:00:00	2024-11-08T00:00:00	8	Radiación solar	0
120445	7	Sololá	701	Sololá	4	Finca Santa Victoria	7	Julio	2023-07-24T00:00:00	2024-11-08T01:00:00	2	Temperatura media	13.9
120446	7	Sololá	701	Sololá	4	Finca Santa Victoria	7	Julio	2023-07-24T00:00:00	2024-11-08T01:00:00	4	Temperatura máxima	13.9
120447	7	Sololá	701	Sololá	4	Finca Santa Victoria	7	Julio	2023-07-24T00:00:00	2024-11-08T01:00:00	3	Temperatura mínima	13.7
120448	7	Sololá	701	Sololá	4	Finca Santa Victoria	7	Julio	2023-07-24T00:00:00	2024-11-08T01:00:00	5	Humedad	96
120449	7	Sololá	701	Sololá	4	Finca Santa Victoria	7	Julio	2023-07-24T00:00:00	2024-11-08T01:00:00	6	Velocidad del viento	0
120450	7	Sololá	701	Sololá	4	Finca Santa Victoria	7	Julio	2023-07-24T00:00:00	2024-11-08T01:00:00	7	Dirección del viento	0
120451	7	Sololá	701	Sololá	4	Finca Santa Victoria	7	Julio	2023-07-24T00:00:00	2024-11-08T01:00:00	1	Precipitación	0
120452	7	Sololá	701	Sololá	4	Finca Santa Victoria	7	Julio	2023-07-24T00:00:00	2024-11-08T01:00:00	8	Radiación solar	0
120453	7	Sololá	701	Sololá	4	Finca Santa Victoria	7	Julio	2023-07-24T00:00:00	2024-11-08T02:00:00	2	Temperatura media	13.8
120454	7	Sololá	701	Sololá	4	Finca Santa Victoria	7	Julio	2023-07-24T00:00:00	2024-11-08T02:00:00	4	Temperatura máxima	14.1
120455	7	Sololá	701	Sololá	4	Finca Santa Victoria	7	Julio	2023-07-24T00:00:00	2024-11-08T02:00:00	3	Temperatura mínima	13.8
120456	7	Sololá	701	Sololá	4	Finca Santa Victoria	7	Julio	2023-07-24T00:00:00	2024-11-08T02:00:00	5	Humedad	97
120457	7	Sololá	701	Sololá	4	Finca Santa Victoria	7	Julio	2023-07-24T00:00:00	2024-11-08T02:00:00	6	Velocidad del viento	0
120458	7	Sololá	701	Sololá	4	Finca Santa Victoria	7	Julio	2023-07-24T00:00:00	2024-11-08T02:00:00	7	Dirección del viento	0
120459	7	Sololá	701	Sololá	4	Finca Santa Victoria	7	Julio	2023-07-24T00:00:00	2024-11-08T02:00:00	1	Precipitación	0
120460	7	Sololá	701	Sololá	4	Finca Santa Victoria	7	Julio	2023-07-24T00:00:00	2024-11-08T02:00:00	8	Radiación solar	0
120461	7	Sololá	701	Sololá	4	Finca Santa Victoria	7	Julio	2023-07-24T00:00:00	2024-11-08T03:00:00	2	Temperatura media	13.3
120462	7	Sololá	701	Sololá	4	Finca Santa Victoria	7	Julio	2023-07-24T00:00:00	2024-11-08T03:00:00	4	Temperatura máxima	13.8
120463	7	Sololá	701	Sololá	4	Finca Santa Victoria	7	Julio	2023-07-24T00:00:00	2024-11-08T03:00:00	3	Temperatura mínima	13.2
120464	7	Sololá	701	Sololá	4	Finca Santa Victoria	7	Julio	2023-07-24T00:00:00	2024-11-08T03:00:00	5	Humedad	97
120465	7	Sololá	701	Sololá	4	Finca Santa Victoria	7	Julio	2023-07-24T00:00:00	2024-11-08T03:00:00	6	Velocidad del viento	0
120466	7	Sololá	701	Sololá	4	Finca Santa Victoria	7	Julio	2023-07-24T00:00:00	2024-11-08T03:00:00	7	Dirección del viento	0
120467	7	Sololá	701	Sololá	4	Finca Santa Victoria	7	Julio	2023-07-24T00:00:00	2024-11-08T03:00:00	1	Precipitación	0
120468	7	Sololá	701	Sololá	4	Finca Santa Victoria	7	Julio	2023-07-24T00:00:00	2024-11-08T03:00:00	8	Radiación solar	0
120469	7	Sololá	701	Sololá	4	Finca Santa Victoria	7	Julio	2023-07-24T00:00:00	2024-11-08T04:00:00	2	Temperatura media	13.2
120470	7	Sololá	701	Sololá	4	Finca Santa Victoria	7	Julio	2023-07-24T00:00:00	2024-11-08T04:00:00	4	Temperatura máxima	13.4
120471	7	Sololá	701	Sololá	4	Finca Santa Victoria	7	Julio	2023-07-24T00:00:00	2024-11-08T04:00:00	3	Temperatura mínima	13.1
120472	7	Sololá	701	Sololá	4	Finca Santa Victoria	7	Julio	2023-07-24T00:00:00	2024-11-08T04:00:00	5	Humedad	95
120473	7	Sololá	701	Sololá	4	Finca Santa Victoria	7	Julio	2023-07-24T00:00:00	2024-11-08T04:00:00	6	Velocidad del viento	1.6
120474	7	Sololá	701	Sololá	4	Finca Santa Victoria	7	Julio	2023-07-24T00:00:00	2024-11-08T04:00:00	7	Dirección del viento	1.61
120475	7	Sololá	701	Sololá	4	Finca Santa Victoria	7	Julio	2023-07-24T00:00:00	2024-11-08T04:00:00	1	Precipitación	0
120476	7	Sololá	701	Sololá	4	Finca Santa Victoria	7	Julio	2023-07-24T00:00:00	2024-11-08T04:00:00	8	Radiación solar	0
120477	7	Sololá	701	Sololá	4	Finca Santa Victoria	7	Julio	2023-07-24T00:00:00	2024-11-08T05:00:00	2	Temperatura media	13.2
120478	7	Sololá	701	Sololá	4	Finca Santa Victoria	7	Julio	2023-07-24T00:00:00	2024-11-08T05:00:00	4	Temperatura máxima	13.3
120479	7	Sololá	701	Sololá	4	Finca Santa Victoria	7	Julio	2023-07-24T00:00:00	2024-11-08T05:00:00	3	Temperatura mínima	13.1
120480	7	Sololá	701	Sololá	4	Finca Santa Victoria	7	Julio	2023-07-24T00:00:00	2024-11-08T05:00:00	5	Humedad	97
120481	7	Sololá	701	Sololá	4	Finca Santa Victoria	7	Julio	2023-07-24T00:00:00	2024-11-08T05:00:00	6	Velocidad del viento	0
120482	7	Sololá	701	Sololá	4	Finca Santa Victoria	7	Julio	2023-07-24T00:00:00	2024-11-08T05:00:00	7	Dirección del viento	0
120483	7	Sololá	701	Sololá	4	Finca Santa Victoria	7	Julio	2023-07-24T00:00:00	2024-11-08T05:00:00	1	Precipitación	0.2
120484	7	Sololá	701	Sololá	4	Finca Santa Victoria	7	Julio	2023-07-24T00:00:00	2024-11-08T05:00:00	8	Radiación solar	0
120485	7	Sololá	701	Sololá	4	Finca Santa Victoria	7	Julio	2023-07-24T00:00:00	2024-11-08T06:00:00	2	Temperatura media	13.4
120486	7	Sololá	701	Sololá	4	Finca Santa Victoria	7	Julio	2023-07-24T00:00:00	2024-11-08T06:00:00	4	Temperatura máxima	13.4
120487	7	Sololá	701	Sololá	4	Finca Santa Victoria	7	Julio	2023-07-24T00:00:00	2024-11-08T06:00:00	3	Temperatura mínima	13.1
120488	7	Sololá	701	Sololá	4	Finca Santa Victoria	7	Julio	2023-07-24T00:00:00	2024-11-08T06:00:00	5	Humedad	95
120489	7	Sololá	701	Sololá	4	Finca Santa Victoria	7	Julio	2023-07-24T00:00:00	2024-11-08T06:00:00	6	Velocidad del viento	0
120490	7	Sololá	701	Sololá	4	Finca Santa Victoria	7	Julio	2023-07-24T00:00:00	2024-11-08T06:00:00	7	Dirección del viento	0
120491	7	Sololá	701	Sololá	4	Finca Santa Victoria	7	Julio	2023-07-24T00:00:00	2024-11-08T06:00:00	1	Precipitación	0
120492	7	Sololá	701	Sololá	4	Finca Santa Victoria	7	Julio	2023-07-24T00:00:00	2024-11-08T06:00:00	8	Radiación solar	2
120493	7	Sololá	701	Sololá	4	Finca Santa Victoria	7	Julio	2023-07-24T00:00:00	2024-11-08T07:00:00	2	Temperatura media	13.9
120494	7	Sololá	701	Sololá	4	Finca Santa Victoria	7	Julio	2023-07-24T00:00:00	2024-11-08T07:00:00	4	Temperatura máxima	14
120495	7	Sololá	701	Sololá	4	Finca Santa Victoria	7	Julio	2023-07-24T00:00:00	2024-11-08T07:00:00	3	Temperatura mínima	13.3
120496	7	Sololá	701	Sololá	4	Finca Santa Victoria	7	Julio	2023-07-24T00:00:00	2024-11-08T07:00:00	5	Humedad	93
120497	7	Sololá	701	Sololá	4	Finca Santa Victoria	7	Julio	2023-07-24T00:00:00	2024-11-08T07:00:00	6	Velocidad del viento	1.6
120498	7	Sololá	701	Sololá	4	Finca Santa Victoria	7	Julio	2023-07-24T00:00:00	2024-11-08T07:00:00	7	Dirección del viento	1.61
120499	7	Sololá	701	Sololá	4	Finca Santa Victoria	7	Julio	2023-07-24T00:00:00	2024-11-08T07:00:00	1	Precipitación	0
120500	7	Sololá	701	Sololá	4	Finca Santa Victoria	7	Julio	2023-07-24T00:00:00	2024-11-08T07:00:00	8	Radiación solar	25
120501	7	Sololá	701	Sololá	4	Finca Santa Victoria	7	Julio	2023-07-24T00:00:00	2024-11-08T08:00:00	2	Temperatura media	16.4
120502	7	Sololá	701	Sololá	4	Finca Santa Victoria	7	Julio	2023-07-24T00:00:00	2024-11-08T08:00:00	4	Temperatura máxima	16.5
120503	7	Sololá	701	Sololá	4	Finca Santa Victoria	7	Julio	2023-07-24T00:00:00	2024-11-08T08:00:00	3	Temperatura mínima	13.9
120504	7	Sololá	701	Sololá	4	Finca Santa Victoria	7	Julio	2023-07-24T00:00:00	2024-11-08T08:00:00	5	Humedad	88
120505	7	Sololá	701	Sololá	4	Finca Santa Victoria	7	Julio	2023-07-24T00:00:00	2024-11-08T08:00:00	6	Velocidad del viento	1.6
120506	7	Sololá	701	Sololá	4	Finca Santa Victoria	7	Julio	2023-07-24T00:00:00	2024-11-08T08:00:00	7	Dirección del viento	1.61
120507	7	Sololá	701	Sololá	4	Finca Santa Victoria	7	Julio	2023-07-24T00:00:00	2024-11-08T08:00:00	1	Precipitación	0
120508	7	Sololá	701	Sololá	4	Finca Santa Victoria	7	Julio	2023-07-24T00:00:00	2024-11-08T08:00:00	8	Radiación solar	193
120509	7	Sololá	701	Sololá	4	Finca Santa Victoria	7	Julio	2023-07-24T00:00:00	2024-11-08T09:00:00	2	Temperatura media	18.9
120510	7	Sololá	701	Sololá	4	Finca Santa Victoria	7	Julio	2023-07-24T00:00:00	2024-11-08T09:00:00	4	Temperatura máxima	18.9
120511	7	Sololá	701	Sololá	4	Finca Santa Victoria	7	Julio	2023-07-24T00:00:00	2024-11-08T09:00:00	3	Temperatura mínima	16.4
120512	7	Sololá	701	Sololá	4	Finca Santa Victoria	7	Julio	2023-07-24T00:00:00	2024-11-08T09:00:00	5	Humedad	74
120513	7	Sololá	701	Sololá	4	Finca Santa Victoria	7	Julio	2023-07-24T00:00:00	2024-11-08T09:00:00	6	Velocidad del viento	3.2
120514	7	Sololá	701	Sololá	4	Finca Santa Victoria	7	Julio	2023-07-24T00:00:00	2024-11-08T09:00:00	7	Dirección del viento	3.22
120515	7	Sololá	701	Sololá	4	Finca Santa Victoria	7	Julio	2023-07-24T00:00:00	2024-11-08T09:00:00	1	Precipitación	0
120516	7	Sololá	701	Sololá	4	Finca Santa Victoria	7	Julio	2023-07-24T00:00:00	2024-11-08T09:00:00	8	Radiación solar	338
120517	7	Sololá	701	Sololá	4	Finca Santa Victoria	7	Julio	2023-07-24T00:00:00	2024-11-08T10:00:00	2	Temperatura media	19.8
120518	7	Sololá	701	Sololá	4	Finca Santa Victoria	7	Julio	2023-07-24T00:00:00	2024-11-08T10:00:00	4	Temperatura máxima	19.9
120519	7	Sololá	701	Sololá	4	Finca Santa Victoria	7	Julio	2023-07-24T00:00:00	2024-11-08T10:00:00	3	Temperatura mínima	18.9
120520	7	Sololá	701	Sololá	4	Finca Santa Victoria	7	Julio	2023-07-24T00:00:00	2024-11-08T10:00:00	5	Humedad	71
120521	7	Sololá	701	Sololá	4	Finca Santa Victoria	7	Julio	2023-07-24T00:00:00	2024-11-08T10:00:00	6	Velocidad del viento	3.2
120522	7	Sololá	701	Sololá	4	Finca Santa Victoria	7	Julio	2023-07-24T00:00:00	2024-11-08T10:00:00	7	Dirección del viento	3.22
120523	7	Sololá	701	Sololá	4	Finca Santa Victoria	7	Julio	2023-07-24T00:00:00	2024-11-08T10:00:00	1	Precipitación	0
120524	7	Sololá	701	Sololá	4	Finca Santa Victoria	7	Julio	2023-07-24T00:00:00	2024-11-08T10:00:00	8	Radiación solar	252
120525	7	Sololá	701	Sololá	4	Finca Santa Victoria	7	Julio	2023-07-24T00:00:00	2024-11-08T11:00:00	2	Temperatura media	20.8
120526	7	Sololá	701	Sololá	4	Finca Santa Victoria	7	Julio	2023-07-24T00:00:00	2024-11-08T11:00:00	4	Temperatura máxima	20.8
120527	7	Sololá	701	Sololá	4	Finca Santa Victoria	7	Julio	2023-07-24T00:00:00	2024-11-08T11:00:00	3	Temperatura mínima	19.8
120528	7	Sololá	701	Sololá	4	Finca Santa Victoria	7	Julio	2023-07-24T00:00:00	2024-11-08T11:00:00	5	Humedad	68
120529	7	Sololá	701	Sololá	4	Finca Santa Victoria	7	Julio	2023-07-24T00:00:00	2024-11-08T11:00:00	6	Velocidad del viento	3.2
120530	7	Sololá	701	Sololá	4	Finca Santa Victoria	7	Julio	2023-07-24T00:00:00	2024-11-08T11:00:00	7	Dirección del viento	3.22
120531	7	Sololá	701	Sololá	4	Finca Santa Victoria	7	Julio	2023-07-24T00:00:00	2024-11-08T11:00:00	1	Precipitación	0
120532	7	Sololá	701	Sololá	4	Finca Santa Victoria	7	Julio	2023-07-24T00:00:00	2024-11-08T11:00:00	8	Radiación solar	214
120533	7	Sololá	701	Sololá	4	Finca Santa Victoria	7	Julio	2023-07-24T00:00:00	2024-11-08T12:00:00	2	Temperatura media	21.8
120534	7	Sololá	701	Sololá	4	Finca Santa Victoria	7	Julio	2023-07-24T00:00:00	2024-11-08T12:00:00	4	Temperatura máxima	21.8
120535	7	Sololá	701	Sololá	4	Finca Santa Victoria	7	Julio	2023-07-24T00:00:00	2024-11-08T12:00:00	3	Temperatura mínima	20.6
120536	7	Sololá	701	Sololá	4	Finca Santa Victoria	7	Julio	2023-07-24T00:00:00	2024-11-08T12:00:00	5	Humedad	65
120537	7	Sololá	701	Sololá	4	Finca Santa Victoria	7	Julio	2023-07-24T00:00:00	2024-11-08T12:00:00	6	Velocidad del viento	3.2
120538	7	Sololá	701	Sololá	4	Finca Santa Victoria	7	Julio	2023-07-24T00:00:00	2024-11-08T12:00:00	7	Dirección del viento	3.22
120539	7	Sololá	701	Sololá	4	Finca Santa Victoria	7	Julio	2023-07-24T00:00:00	2024-11-08T12:00:00	1	Precipitación	0
120540	7	Sololá	701	Sololá	4	Finca Santa Victoria	7	Julio	2023-07-24T00:00:00	2024-11-08T12:00:00	8	Radiación solar	755
120541	7	Sololá	701	Sololá	4	Finca Santa Victoria	7	Julio	2023-07-24T00:00:00	2024-11-08T13:00:00	2	Temperatura media	21.8
120542	7	Sololá	701	Sololá	4	Finca Santa Victoria	7	Julio	2023-07-24T00:00:00	2024-11-08T13:00:00	4	Temperatura máxima	22.9
120543	7	Sololá	701	Sololá	4	Finca Santa Victoria	7	Julio	2023-07-24T00:00:00	2024-11-08T13:00:00	3	Temperatura mínima	21.7
120544	7	Sololá	701	Sololá	4	Finca Santa Victoria	7	Julio	2023-07-24T00:00:00	2024-11-08T13:00:00	5	Humedad	63
120545	7	Sololá	701	Sololá	4	Finca Santa Victoria	7	Julio	2023-07-24T00:00:00	2024-11-08T13:00:00	6	Velocidad del viento	3.2
120546	7	Sololá	701	Sololá	4	Finca Santa Victoria	7	Julio	2023-07-24T00:00:00	2024-11-08T13:00:00	7	Dirección del viento	3.22
120547	7	Sololá	701	Sololá	4	Finca Santa Victoria	7	Julio	2023-07-24T00:00:00	2024-11-08T13:00:00	1	Precipitación	0
120548	7	Sololá	701	Sololá	4	Finca Santa Victoria	7	Julio	2023-07-24T00:00:00	2024-11-08T13:00:00	8	Radiación solar	980
120549	7	Sololá	701	Sololá	4	Finca Santa Victoria	7	Julio	2023-07-24T00:00:00	2024-11-08T14:00:00	2	Temperatura media	19.3
120550	7	Sololá	701	Sololá	4	Finca Santa Victoria	7	Julio	2023-07-24T00:00:00	2024-11-08T14:00:00	4	Temperatura máxima	21.8
120551	7	Sololá	701	Sololá	4	Finca Santa Victoria	7	Julio	2023-07-24T00:00:00	2024-11-08T14:00:00	3	Temperatura mínima	19.1
120552	7	Sololá	701	Sololá	4	Finca Santa Victoria	7	Julio	2023-07-24T00:00:00	2024-11-08T14:00:00	5	Humedad	83
120553	7	Sololá	701	Sololá	4	Finca Santa Victoria	7	Julio	2023-07-24T00:00:00	2024-11-08T14:00:00	6	Velocidad del viento	3.2
120554	7	Sololá	701	Sololá	4	Finca Santa Victoria	7	Julio	2023-07-24T00:00:00	2024-11-08T14:00:00	7	Dirección del viento	3.22
120555	7	Sololá	701	Sololá	4	Finca Santa Victoria	7	Julio	2023-07-24T00:00:00	2024-11-08T14:00:00	1	Precipitación	0
120556	7	Sololá	701	Sololá	4	Finca Santa Victoria	7	Julio	2023-07-24T00:00:00	2024-11-08T14:00:00	8	Radiación solar	235
120557	7	Sololá	701	Sololá	4	Finca Santa Victoria	7	Julio	2023-07-24T00:00:00	2024-11-08T15:00:00	2	Temperatura media	17
120558	7	Sololá	701	Sololá	4	Finca Santa Victoria	7	Julio	2023-07-24T00:00:00	2024-11-08T15:00:00	4	Temperatura máxima	19.3
120559	7	Sololá	701	Sololá	4	Finca Santa Victoria	7	Julio	2023-07-24T00:00:00	2024-11-08T15:00:00	3	Temperatura mínima	17
120560	7	Sololá	701	Sololá	4	Finca Santa Victoria	7	Julio	2023-07-24T00:00:00	2024-11-08T15:00:00	5	Humedad	91
120561	7	Sololá	701	Sololá	4	Finca Santa Victoria	7	Julio	2023-07-24T00:00:00	2024-11-08T15:00:00	6	Velocidad del viento	3.2
120562	7	Sololá	701	Sololá	4	Finca Santa Victoria	7	Julio	2023-07-24T00:00:00	2024-11-08T15:00:00	7	Dirección del viento	3.22
120563	7	Sololá	701	Sololá	4	Finca Santa Victoria	7	Julio	2023-07-24T00:00:00	2024-11-08T15:00:00	1	Precipitación	0
120564	7	Sololá	701	Sololá	4	Finca Santa Victoria	7	Julio	2023-07-24T00:00:00	2024-11-08T15:00:00	8	Radiación solar	141
120565	7	Sololá	701	Sololá	4	Finca Santa Victoria	7	Julio	2023-07-24T00:00:00	2024-11-08T16:00:00	2	Temperatura media	15.6
120566	7	Sololá	701	Sololá	4	Finca Santa Victoria	7	Julio	2023-07-24T00:00:00	2024-11-08T16:00:00	4	Temperatura máxima	16.9
120567	7	Sololá	701	Sololá	4	Finca Santa Victoria	7	Julio	2023-07-24T00:00:00	2024-11-08T16:00:00	3	Temperatura mínima	15.6
120568	7	Sololá	701	Sololá	4	Finca Santa Victoria	7	Julio	2023-07-24T00:00:00	2024-11-08T16:00:00	5	Humedad	96
120569	7	Sololá	701	Sololá	4	Finca Santa Victoria	7	Julio	2023-07-24T00:00:00	2024-11-08T16:00:00	6	Velocidad del viento	1.6
120570	7	Sololá	701	Sololá	4	Finca Santa Victoria	7	Julio	2023-07-24T00:00:00	2024-11-08T16:00:00	7	Dirección del viento	1.61
120571	7	Sololá	701	Sololá	4	Finca Santa Victoria	7	Julio	2023-07-24T00:00:00	2024-11-08T16:00:00	1	Precipitación	0
120572	7	Sololá	701	Sololá	4	Finca Santa Victoria	7	Julio	2023-07-24T00:00:00	2024-11-08T16:00:00	8	Radiación solar	57
120573	7	Sololá	701	Sololá	4	Finca Santa Victoria	7	Julio	2023-07-24T00:00:00	2024-11-08T17:00:00	2	Temperatura media	15.1
120574	7	Sololá	701	Sololá	4	Finca Santa Victoria	7	Julio	2023-07-24T00:00:00	2024-11-08T17:00:00	4	Temperatura máxima	15.6
120575	7	Sololá	701	Sololá	4	Finca Santa Victoria	7	Julio	2023-07-24T00:00:00	2024-11-08T17:00:00	3	Temperatura mínima	15.1
120576	7	Sololá	701	Sololá	4	Finca Santa Victoria	7	Julio	2023-07-24T00:00:00	2024-11-08T17:00:00	5	Humedad	97
120577	7	Sololá	701	Sololá	4	Finca Santa Victoria	7	Julio	2023-07-24T00:00:00	2024-11-08T17:00:00	6	Velocidad del viento	1.6
120578	7	Sololá	701	Sololá	4	Finca Santa Victoria	7	Julio	2023-07-24T00:00:00	2024-11-08T17:00:00	7	Dirección del viento	1.61
120579	7	Sololá	701	Sololá	4	Finca Santa Victoria	7	Julio	2023-07-24T00:00:00	2024-11-08T17:00:00	1	Precipitación	0
120580	7	Sololá	701	Sololá	4	Finca Santa Victoria	7	Julio	2023-07-24T00:00:00	2024-11-08T17:00:00	8	Radiación solar	57
120581	7	Sololá	701	Sololá	4	Finca Santa Victoria	7	Julio	2023-07-24T00:00:00	2024-11-08T18:00:00	2	Temperatura media	15.3
120582	7	Sololá	701	Sololá	4	Finca Santa Victoria	7	Julio	2023-07-24T00:00:00	2024-11-08T18:00:00	4	Temperatura máxima	15.3
120583	7	Sololá	701	Sololá	4	Finca Santa Victoria	7	Julio	2023-07-24T00:00:00	2024-11-08T18:00:00	3	Temperatura mínima	15.1
120584	7	Sololá	701	Sololá	4	Finca Santa Victoria	7	Julio	2023-07-24T00:00:00	2024-11-08T18:00:00	5	Humedad	97
120585	7	Sololá	701	Sololá	4	Finca Santa Victoria	7	Julio	2023-07-24T00:00:00	2024-11-08T18:00:00	6	Velocidad del viento	1.6
120586	7	Sololá	701	Sololá	4	Finca Santa Victoria	7	Julio	2023-07-24T00:00:00	2024-11-08T18:00:00	7	Dirección del viento	1.61
120587	7	Sololá	701	Sololá	4	Finca Santa Victoria	7	Julio	2023-07-24T00:00:00	2024-11-08T18:00:00	1	Precipitación	0.2
120588	7	Sololá	701	Sololá	4	Finca Santa Victoria	7	Julio	2023-07-24T00:00:00	2024-11-08T18:00:00	8	Radiación solar	31
120589	7	Sololá	701	Sololá	4	Finca Santa Victoria	7	Julio	2023-07-24T00:00:00	2024-11-08T19:00:00	2	Temperatura media	14.3
120590	7	Sololá	701	Sololá	4	Finca Santa Victoria	7	Julio	2023-07-24T00:00:00	2024-11-08T19:00:00	4	Temperatura máxima	15.3
120591	7	Sololá	701	Sololá	4	Finca Santa Victoria	7	Julio	2023-07-24T00:00:00	2024-11-08T19:00:00	3	Temperatura mínima	14.3
120592	7	Sololá	701	Sololá	4	Finca Santa Victoria	7	Julio	2023-07-24T00:00:00	2024-11-08T19:00:00	5	Humedad	93
120593	7	Sololá	701	Sololá	4	Finca Santa Victoria	7	Julio	2023-07-24T00:00:00	2024-11-08T19:00:00	6	Velocidad del viento	3.2
120594	7	Sololá	701	Sololá	4	Finca Santa Victoria	7	Julio	2023-07-24T00:00:00	2024-11-08T19:00:00	7	Dirección del viento	3.22
120595	7	Sololá	701	Sololá	4	Finca Santa Victoria	7	Julio	2023-07-24T00:00:00	2024-11-08T19:00:00	1	Precipitación	0.4
120596	7	Sololá	701	Sololá	4	Finca Santa Victoria	7	Julio	2023-07-24T00:00:00	2024-11-08T19:00:00	8	Radiación solar	0
120597	7	Sololá	701	Sololá	4	Finca Santa Victoria	7	Julio	2023-07-24T00:00:00	2024-11-08T20:00:00	2	Temperatura media	13.8
120598	7	Sololá	701	Sololá	4	Finca Santa Victoria	7	Julio	2023-07-24T00:00:00	2024-11-08T20:00:00	4	Temperatura máxima	14.3
120599	7	Sololá	701	Sololá	4	Finca Santa Victoria	7	Julio	2023-07-24T00:00:00	2024-11-08T20:00:00	3	Temperatura mínima	13.8
120600	7	Sololá	701	Sololá	4	Finca Santa Victoria	7	Julio	2023-07-24T00:00:00	2024-11-08T20:00:00	5	Humedad	95
120601	7	Sololá	701	Sololá	4	Finca Santa Victoria	7	Julio	2023-07-24T00:00:00	2024-11-08T20:00:00	6	Velocidad del viento	0
120602	7	Sololá	701	Sololá	4	Finca Santa Victoria	7	Julio	2023-07-24T00:00:00	2024-11-08T20:00:00	7	Dirección del viento	0
120603	7	Sololá	701	Sololá	4	Finca Santa Victoria	7	Julio	2023-07-24T00:00:00	2024-11-08T20:00:00	1	Precipitación	1
120604	7	Sololá	701	Sololá	4	Finca Santa Victoria	7	Julio	2023-07-24T00:00:00	2024-11-08T20:00:00	8	Radiación solar	0
120605	7	Sololá	701	Sololá	4	Finca Santa Victoria	7	Julio	2023-07-24T00:00:00	2024-11-08T21:00:00	2	Temperatura media	13.6
120606	7	Sololá	701	Sololá	4	Finca Santa Victoria	7	Julio	2023-07-24T00:00:00	2024-11-08T21:00:00	4	Temperatura máxima	13.9
120607	7	Sololá	701	Sololá	4	Finca Santa Victoria	7	Julio	2023-07-24T00:00:00	2024-11-08T21:00:00	3	Temperatura mínima	13.6
120608	7	Sololá	701	Sololá	4	Finca Santa Victoria	7	Julio	2023-07-24T00:00:00	2024-11-08T21:00:00	5	Humedad	95
120609	7	Sololá	701	Sololá	4	Finca Santa Victoria	7	Julio	2023-07-24T00:00:00	2024-11-08T21:00:00	6	Velocidad del viento	0
120610	7	Sololá	701	Sololá	4	Finca Santa Victoria	7	Julio	2023-07-24T00:00:00	2024-11-08T21:00:00	7	Dirección del viento	0
120611	7	Sololá	701	Sololá	4	Finca Santa Victoria	7	Julio	2023-07-24T00:00:00	2024-11-08T21:00:00	1	Precipitación	0
120612	7	Sololá	701	Sololá	4	Finca Santa Victoria	7	Julio	2023-07-24T00:00:00	2024-11-08T21:00:00	8	Radiación solar	0
120613	7	Sololá	701	Sololá	4	Finca Santa Victoria	7	Julio	2023-07-24T00:00:00	2024-11-08T22:00:00	2	Temperatura media	13.4
120614	7	Sololá	701	Sololá	4	Finca Santa Victoria	7	Julio	2023-07-24T00:00:00	2024-11-08T22:00:00	4	Temperatura máxima	13.6
120615	7	Sololá	701	Sololá	4	Finca Santa Victoria	7	Julio	2023-07-24T00:00:00	2024-11-08T22:00:00	3	Temperatura mínima	13.2
120616	7	Sololá	701	Sololá	4	Finca Santa Victoria	7	Julio	2023-07-24T00:00:00	2024-11-08T22:00:00	5	Humedad	96
120617	7	Sololá	701	Sololá	4	Finca Santa Victoria	7	Julio	2023-07-24T00:00:00	2024-11-08T22:00:00	6	Velocidad del viento	0
120618	7	Sololá	701	Sololá	4	Finca Santa Victoria	7	Julio	2023-07-24T00:00:00	2024-11-08T22:00:00	7	Dirección del viento	0
120619	7	Sololá	701	Sololá	4	Finca Santa Victoria	7	Julio	2023-07-24T00:00:00	2024-11-08T22:00:00	1	Precipitación	0.2
120620	7	Sololá	701	Sololá	4	Finca Santa Victoria	7	Julio	2023-07-24T00:00:00	2024-11-08T22:00:00	8	Radiación solar	0
120621	7	Sololá	701	Sololá	4	Finca Santa Victoria	7	Julio	2023-07-24T00:00:00	2024-11-08T23:00:00	2	Temperatura media	13.3
120622	7	Sololá	701	Sololá	4	Finca Santa Victoria	7	Julio	2023-07-24T00:00:00	2024-11-08T23:00:00	4	Temperatura máxima	13.4
120623	7	Sololá	701	Sololá	4	Finca Santa Victoria	7	Julio	2023-07-24T00:00:00	2024-11-08T23:00:00	3	Temperatura mínima	13.1
120624	7	Sololá	701	Sololá	4	Finca Santa Victoria	7	Julio	2023-07-24T00:00:00	2024-11-08T23:00:00	5	Humedad	96
120625	7	Sololá	701	Sololá	4	Finca Santa Victoria	7	Julio	2023-07-24T00:00:00	2024-11-08T23:00:00	6	Velocidad del viento	1.6
120626	7	Sololá	701	Sololá	4	Finca Santa Victoria	7	Julio	2023-07-24T00:00:00	2024-11-08T23:00:00	7	Dirección del viento	1.61
120627	7	Sololá	701	Sololá	4	Finca Santa Victoria	7	Julio	2023-07-24T00:00:00	2024-11-08T23:00:00	1	Precipitación	0
120628	7	Sololá	701	Sololá	4	Finca Santa Victoria	7	Julio	2023-07-24T00:00:00	2024-11-08T23:00:00	8	Radiación solar	0
120629	7	Sololá	701	Sololá	4	Finca Santa Victoria	7	Julio	2023-07-25T00:00:00	2024-11-08T00:00:00	2	Temperatura media	13.3
120630	7	Sololá	701	Sololá	4	Finca Santa Victoria	7	Julio	2023-07-25T00:00:00	2024-11-08T00:00:00	4	Temperatura máxima	13.3
120631	7	Sololá	701	Sololá	4	Finca Santa Victoria	7	Julio	2023-07-25T00:00:00	2024-11-08T00:00:00	3	Temperatura mínima	13.2
120632	7	Sololá	701	Sololá	4	Finca Santa Victoria	7	Julio	2023-07-25T00:00:00	2024-11-08T00:00:00	5	Humedad	94
120633	7	Sololá	701	Sololá	4	Finca Santa Victoria	7	Julio	2023-07-25T00:00:00	2024-11-08T00:00:00	6	Velocidad del viento	1.6
120634	7	Sololá	701	Sololá	4	Finca Santa Victoria	7	Julio	2023-07-25T00:00:00	2024-11-08T00:00:00	7	Dirección del viento	1.61
120635	7	Sololá	701	Sololá	4	Finca Santa Victoria	7	Julio	2023-07-25T00:00:00	2024-11-08T00:00:00	1	Precipitación	0
120636	7	Sololá	701	Sololá	4	Finca Santa Victoria	7	Julio	2023-07-25T00:00:00	2024-11-08T00:00:00	8	Radiación solar	0
120637	7	Sololá	701	Sololá	4	Finca Santa Victoria	7	Julio	2023-07-25T00:00:00	2024-11-08T01:00:00	2	Temperatura media	13.2
120638	7	Sololá	701	Sololá	4	Finca Santa Victoria	7	Julio	2023-07-25T00:00:00	2024-11-08T01:00:00	4	Temperatura máxima	13.7
120639	7	Sololá	701	Sololá	4	Finca Santa Victoria	7	Julio	2023-07-25T00:00:00	2024-11-08T01:00:00	3	Temperatura mínima	13.2
120640	7	Sololá	701	Sololá	4	Finca Santa Victoria	7	Julio	2023-07-25T00:00:00	2024-11-08T01:00:00	5	Humedad	93
120641	7	Sololá	701	Sololá	4	Finca Santa Victoria	7	Julio	2023-07-25T00:00:00	2024-11-08T01:00:00	6	Velocidad del viento	1.6
120642	7	Sololá	701	Sololá	4	Finca Santa Victoria	7	Julio	2023-07-25T00:00:00	2024-11-08T01:00:00	7	Dirección del viento	1.61
120643	7	Sololá	701	Sololá	4	Finca Santa Victoria	7	Julio	2023-07-25T00:00:00	2024-11-08T01:00:00	1	Precipitación	0
120644	7	Sololá	701	Sololá	4	Finca Santa Victoria	7	Julio	2023-07-25T00:00:00	2024-11-08T01:00:00	8	Radiación solar	0
120645	7	Sololá	701	Sololá	4	Finca Santa Victoria	7	Julio	2023-07-25T00:00:00	2024-11-08T02:00:00	2	Temperatura media	13.2
120646	7	Sololá	701	Sololá	4	Finca Santa Victoria	7	Julio	2023-07-25T00:00:00	2024-11-08T02:00:00	4	Temperatura máxima	13.3
120647	7	Sololá	701	Sololá	4	Finca Santa Victoria	7	Julio	2023-07-25T00:00:00	2024-11-08T02:00:00	3	Temperatura mínima	13.1
120648	7	Sololá	701	Sololá	4	Finca Santa Victoria	7	Julio	2023-07-25T00:00:00	2024-11-08T02:00:00	5	Humedad	89
120649	7	Sololá	701	Sololá	4	Finca Santa Victoria	7	Julio	2023-07-25T00:00:00	2024-11-08T02:00:00	6	Velocidad del viento	1.6
120650	7	Sololá	701	Sololá	4	Finca Santa Victoria	7	Julio	2023-07-25T00:00:00	2024-11-08T02:00:00	7	Dirección del viento	1.61
120651	7	Sololá	701	Sololá	4	Finca Santa Victoria	7	Julio	2023-07-25T00:00:00	2024-11-08T02:00:00	1	Precipitación	0
120652	7	Sololá	701	Sololá	4	Finca Santa Victoria	7	Julio	2023-07-25T00:00:00	2024-11-08T02:00:00	8	Radiación solar	0
120653	7	Sololá	701	Sololá	4	Finca Santa Victoria	7	Julio	2023-07-25T00:00:00	2024-11-08T03:00:00	2	Temperatura media	13.9
120654	7	Sololá	701	Sololá	4	Finca Santa Victoria	7	Julio	2023-07-25T00:00:00	2024-11-08T03:00:00	4	Temperatura máxima	14.2
120655	7	Sololá	701	Sololá	4	Finca Santa Victoria	7	Julio	2023-07-25T00:00:00	2024-11-08T03:00:00	3	Temperatura mínima	13.1
120656	7	Sololá	701	Sololá	4	Finca Santa Victoria	7	Julio	2023-07-25T00:00:00	2024-11-08T03:00:00	5	Humedad	83
120657	7	Sololá	701	Sololá	4	Finca Santa Victoria	7	Julio	2023-07-25T00:00:00	2024-11-08T03:00:00	6	Velocidad del viento	3.2
120658	7	Sololá	701	Sololá	4	Finca Santa Victoria	7	Julio	2023-07-25T00:00:00	2024-11-08T03:00:00	7	Dirección del viento	3.22
120659	7	Sololá	701	Sololá	4	Finca Santa Victoria	7	Julio	2023-07-25T00:00:00	2024-11-08T03:00:00	1	Precipitación	0
120660	7	Sololá	701	Sololá	4	Finca Santa Victoria	7	Julio	2023-07-25T00:00:00	2024-11-08T03:00:00	8	Radiación solar	0
120661	7	Sololá	701	Sololá	4	Finca Santa Victoria	7	Julio	2023-07-25T00:00:00	2024-11-08T04:00:00	2	Temperatura media	13.6
120662	7	Sololá	701	Sololá	4	Finca Santa Victoria	7	Julio	2023-07-25T00:00:00	2024-11-08T04:00:00	4	Temperatura máxima	14
120663	7	Sololá	701	Sololá	4	Finca Santa Victoria	7	Julio	2023-07-25T00:00:00	2024-11-08T04:00:00	3	Temperatura mínima	13.6
120664	7	Sololá	701	Sololá	4	Finca Santa Victoria	7	Julio	2023-07-25T00:00:00	2024-11-08T04:00:00	5	Humedad	85
120665	7	Sololá	701	Sololá	4	Finca Santa Victoria	7	Julio	2023-07-25T00:00:00	2024-11-08T04:00:00	6	Velocidad del viento	3.2
120666	7	Sololá	701	Sololá	4	Finca Santa Victoria	7	Julio	2023-07-25T00:00:00	2024-11-08T04:00:00	7	Dirección del viento	3.22
120667	7	Sololá	701	Sololá	4	Finca Santa Victoria	7	Julio	2023-07-25T00:00:00	2024-11-08T04:00:00	1	Precipitación	0
120668	7	Sololá	701	Sololá	4	Finca Santa Victoria	7	Julio	2023-07-25T00:00:00	2024-11-08T04:00:00	8	Radiación solar	0
120669	7	Sololá	701	Sololá	4	Finca Santa Victoria	7	Julio	2023-07-25T00:00:00	2024-11-08T05:00:00	2	Temperatura media	13.6
120670	7	Sololá	701	Sololá	4	Finca Santa Victoria	7	Julio	2023-07-25T00:00:00	2024-11-08T05:00:00	4	Temperatura máxima	13.6
120671	7	Sololá	701	Sololá	4	Finca Santa Victoria	7	Julio	2023-07-25T00:00:00	2024-11-08T05:00:00	3	Temperatura mínima	13.5
120672	7	Sololá	701	Sololá	4	Finca Santa Victoria	7	Julio	2023-07-25T00:00:00	2024-11-08T05:00:00	5	Humedad	86
120673	7	Sololá	701	Sololá	4	Finca Santa Victoria	7	Julio	2023-07-25T00:00:00	2024-11-08T05:00:00	6	Velocidad del viento	3.2
120674	7	Sololá	701	Sololá	4	Finca Santa Victoria	7	Julio	2023-07-25T00:00:00	2024-11-08T05:00:00	7	Dirección del viento	3.22
120675	7	Sololá	701	Sololá	4	Finca Santa Victoria	7	Julio	2023-07-25T00:00:00	2024-11-08T05:00:00	1	Precipitación	0
120676	7	Sololá	701	Sololá	4	Finca Santa Victoria	7	Julio	2023-07-25T00:00:00	2024-11-08T05:00:00	8	Radiación solar	0
120677	7	Sololá	701	Sololá	4	Finca Santa Victoria	7	Julio	2023-07-25T00:00:00	2024-11-08T06:00:00	2	Temperatura media	13.6
120678	7	Sololá	701	Sololá	4	Finca Santa Victoria	7	Julio	2023-07-25T00:00:00	2024-11-08T06:00:00	4	Temperatura máxima	13.7
120679	7	Sololá	701	Sololá	4	Finca Santa Victoria	7	Julio	2023-07-25T00:00:00	2024-11-08T06:00:00	3	Temperatura mínima	13.4
120680	7	Sololá	701	Sololá	4	Finca Santa Victoria	7	Julio	2023-07-25T00:00:00	2024-11-08T06:00:00	5	Humedad	88
120681	7	Sololá	701	Sololá	4	Finca Santa Victoria	7	Julio	2023-07-25T00:00:00	2024-11-08T06:00:00	6	Velocidad del viento	3.2
120682	7	Sololá	701	Sololá	4	Finca Santa Victoria	7	Julio	2023-07-25T00:00:00	2024-11-08T06:00:00	7	Dirección del viento	3.22
120683	7	Sololá	701	Sololá	4	Finca Santa Victoria	7	Julio	2023-07-25T00:00:00	2024-11-08T06:00:00	1	Precipitación	0
120684	7	Sololá	701	Sololá	4	Finca Santa Victoria	7	Julio	2023-07-25T00:00:00	2024-11-08T06:00:00	8	Radiación solar	1
120685	7	Sololá	701	Sololá	4	Finca Santa Victoria	7	Julio	2023-07-25T00:00:00	2024-11-08T07:00:00	2	Temperatura media	14.4
120686	7	Sololá	701	Sololá	4	Finca Santa Victoria	7	Julio	2023-07-25T00:00:00	2024-11-08T07:00:00	4	Temperatura máxima	14.4
120687	7	Sololá	701	Sololá	4	Finca Santa Victoria	7	Julio	2023-07-25T00:00:00	2024-11-08T07:00:00	3	Temperatura mínima	13.6
120688	7	Sololá	701	Sololá	4	Finca Santa Victoria	7	Julio	2023-07-25T00:00:00	2024-11-08T07:00:00	5	Humedad	83
120689	7	Sololá	701	Sololá	4	Finca Santa Victoria	7	Julio	2023-07-25T00:00:00	2024-11-08T07:00:00	6	Velocidad del viento	3.2
120690	7	Sololá	701	Sololá	4	Finca Santa Victoria	7	Julio	2023-07-25T00:00:00	2024-11-08T07:00:00	7	Dirección del viento	3.22
120691	7	Sololá	701	Sololá	4	Finca Santa Victoria	7	Julio	2023-07-25T00:00:00	2024-11-08T07:00:00	1	Precipitación	0
120692	7	Sololá	701	Sololá	4	Finca Santa Victoria	7	Julio	2023-07-25T00:00:00	2024-11-08T07:00:00	8	Radiación solar	36
120693	7	Sololá	701	Sololá	4	Finca Santa Victoria	7	Julio	2023-07-25T00:00:00	2024-11-08T08:00:00	2	Temperatura media	16.7
120694	7	Sololá	701	Sololá	4	Finca Santa Victoria	7	Julio	2023-07-25T00:00:00	2024-11-08T08:00:00	4	Temperatura máxima	16.7
120695	7	Sololá	701	Sololá	4	Finca Santa Victoria	7	Julio	2023-07-25T00:00:00	2024-11-08T08:00:00	3	Temperatura mínima	14.4
120696	7	Sololá	701	Sololá	4	Finca Santa Victoria	7	Julio	2023-07-25T00:00:00	2024-11-08T08:00:00	5	Humedad	75
120697	7	Sololá	701	Sololá	4	Finca Santa Victoria	7	Julio	2023-07-25T00:00:00	2024-11-08T08:00:00	6	Velocidad del viento	1.6
120698	7	Sololá	701	Sololá	4	Finca Santa Victoria	7	Julio	2023-07-25T00:00:00	2024-11-08T08:00:00	7	Dirección del viento	1.61
120699	7	Sololá	701	Sololá	4	Finca Santa Victoria	7	Julio	2023-07-25T00:00:00	2024-11-08T08:00:00	1	Precipitación	0
120700	7	Sololá	701	Sololá	4	Finca Santa Victoria	7	Julio	2023-07-25T00:00:00	2024-11-08T08:00:00	8	Radiación solar	193
120701	7	Sololá	701	Sololá	4	Finca Santa Victoria	7	Julio	2023-07-25T00:00:00	2024-11-08T09:00:00	2	Temperatura media	17.9
120702	7	Sololá	701	Sololá	4	Finca Santa Victoria	7	Julio	2023-07-25T00:00:00	2024-11-08T09:00:00	4	Temperatura máxima	17.9
120703	7	Sololá	701	Sololá	4	Finca Santa Victoria	7	Julio	2023-07-25T00:00:00	2024-11-08T09:00:00	3	Temperatura mínima	16.7
120704	7	Sololá	701	Sololá	4	Finca Santa Victoria	7	Julio	2023-07-25T00:00:00	2024-11-08T09:00:00	5	Humedad	66
120705	7	Sololá	701	Sololá	4	Finca Santa Victoria	7	Julio	2023-07-25T00:00:00	2024-11-08T09:00:00	6	Velocidad del viento	3.2
120706	7	Sololá	701	Sololá	4	Finca Santa Victoria	7	Julio	2023-07-25T00:00:00	2024-11-08T09:00:00	7	Dirección del viento	3.22
120707	7	Sololá	701	Sololá	4	Finca Santa Victoria	7	Julio	2023-07-25T00:00:00	2024-11-08T09:00:00	1	Precipitación	0
120708	7	Sololá	701	Sololá	4	Finca Santa Victoria	7	Julio	2023-07-25T00:00:00	2024-11-08T09:00:00	8	Radiación solar	276
120709	7	Sololá	701	Sololá	4	Finca Santa Victoria	7	Julio	2023-07-25T00:00:00	2024-11-08T10:00:00	2	Temperatura media	18.7
120710	7	Sololá	701	Sololá	4	Finca Santa Victoria	7	Julio	2023-07-25T00:00:00	2024-11-08T10:00:00	4	Temperatura máxima	19.5
120711	7	Sololá	701	Sololá	4	Finca Santa Victoria	7	Julio	2023-07-25T00:00:00	2024-11-08T10:00:00	3	Temperatura mínima	17.9
120712	7	Sololá	701	Sololá	4	Finca Santa Victoria	7	Julio	2023-07-25T00:00:00	2024-11-08T10:00:00	5	Humedad	59
120713	7	Sololá	701	Sololá	4	Finca Santa Victoria	7	Julio	2023-07-25T00:00:00	2024-11-08T10:00:00	6	Velocidad del viento	3.2
120714	7	Sololá	701	Sololá	4	Finca Santa Victoria	7	Julio	2023-07-25T00:00:00	2024-11-08T10:00:00	7	Dirección del viento	3.22
120715	7	Sololá	701	Sololá	4	Finca Santa Victoria	7	Julio	2023-07-25T00:00:00	2024-11-08T10:00:00	1	Precipitación	0
120716	7	Sololá	701	Sololá	4	Finca Santa Victoria	7	Julio	2023-07-25T00:00:00	2024-11-08T10:00:00	8	Radiación solar	190
120717	7	Sololá	701	Sololá	4	Finca Santa Victoria	7	Julio	2023-07-25T00:00:00	2024-11-08T11:00:00	2	Temperatura media	21.3
120718	7	Sololá	701	Sololá	4	Finca Santa Victoria	7	Julio	2023-07-25T00:00:00	2024-11-08T11:00:00	4	Temperatura máxima	21.3
120719	7	Sololá	701	Sololá	4	Finca Santa Victoria	7	Julio	2023-07-25T00:00:00	2024-11-08T11:00:00	3	Temperatura mínima	18.4
120720	7	Sololá	701	Sololá	4	Finca Santa Victoria	7	Julio	2023-07-25T00:00:00	2024-11-08T11:00:00	5	Humedad	56
120721	7	Sololá	701	Sololá	4	Finca Santa Victoria	7	Julio	2023-07-25T00:00:00	2024-11-08T11:00:00	6	Velocidad del viento	3.2
120722	7	Sololá	701	Sololá	4	Finca Santa Victoria	7	Julio	2023-07-25T00:00:00	2024-11-08T11:00:00	7	Dirección del viento	3.22
120723	7	Sololá	701	Sololá	4	Finca Santa Victoria	7	Julio	2023-07-25T00:00:00	2024-11-08T11:00:00	1	Precipitación	0
120724	7	Sololá	701	Sololá	4	Finca Santa Victoria	7	Julio	2023-07-25T00:00:00	2024-11-08T11:00:00	8	Radiación solar	255
120725	7	Sololá	701	Sololá	4	Finca Santa Victoria	7	Julio	2023-07-25T00:00:00	2024-11-08T12:00:00	2	Temperatura media	21.4
120726	7	Sololá	701	Sololá	4	Finca Santa Victoria	7	Julio	2023-07-25T00:00:00	2024-11-08T12:00:00	4	Temperatura máxima	21.7
120727	7	Sololá	701	Sololá	4	Finca Santa Victoria	7	Julio	2023-07-25T00:00:00	2024-11-08T12:00:00	3	Temperatura mínima	21.2
120728	7	Sololá	701	Sololá	4	Finca Santa Victoria	7	Julio	2023-07-25T00:00:00	2024-11-08T12:00:00	5	Humedad	51
120729	7	Sololá	701	Sololá	4	Finca Santa Victoria	7	Julio	2023-07-25T00:00:00	2024-11-08T12:00:00	6	Velocidad del viento	4.8
120730	7	Sololá	701	Sololá	4	Finca Santa Victoria	7	Julio	2023-07-25T00:00:00	2024-11-08T12:00:00	7	Dirección del viento	4.83
120731	7	Sololá	701	Sololá	4	Finca Santa Victoria	7	Julio	2023-07-25T00:00:00	2024-11-08T12:00:00	1	Precipitación	0
120732	7	Sololá	701	Sololá	4	Finca Santa Victoria	7	Julio	2023-07-25T00:00:00	2024-11-08T12:00:00	8	Radiación solar	957
120733	7	Sololá	701	Sololá	4	Finca Santa Victoria	7	Julio	2023-07-25T00:00:00	2024-11-08T13:00:00	2	Temperatura media	22.8
120734	7	Sololá	701	Sololá	4	Finca Santa Victoria	7	Julio	2023-07-25T00:00:00	2024-11-08T13:00:00	4	Temperatura máxima	22.9
120735	7	Sololá	701	Sololá	4	Finca Santa Victoria	7	Julio	2023-07-25T00:00:00	2024-11-08T13:00:00	3	Temperatura mínima	21.4
120736	7	Sololá	701	Sololá	4	Finca Santa Victoria	7	Julio	2023-07-25T00:00:00	2024-11-08T13:00:00	5	Humedad	52
120737	7	Sololá	701	Sololá	4	Finca Santa Victoria	7	Julio	2023-07-25T00:00:00	2024-11-08T13:00:00	6	Velocidad del viento	4.8
120738	7	Sololá	701	Sololá	4	Finca Santa Victoria	7	Julio	2023-07-25T00:00:00	2024-11-08T13:00:00	7	Dirección del viento	4.83
120739	7	Sololá	701	Sololá	4	Finca Santa Victoria	7	Julio	2023-07-25T00:00:00	2024-11-08T13:00:00	1	Precipitación	0
120740	7	Sololá	701	Sololá	4	Finca Santa Victoria	7	Julio	2023-07-25T00:00:00	2024-11-08T13:00:00	8	Radiación solar	1015
120741	7	Sololá	701	Sololá	4	Finca Santa Victoria	7	Julio	2023-07-25T00:00:00	2024-11-08T14:00:00	2	Temperatura media	22.9
120742	7	Sololá	701	Sololá	4	Finca Santa Victoria	7	Julio	2023-07-25T00:00:00	2024-11-08T14:00:00	4	Temperatura máxima	22.9
120743	7	Sololá	701	Sololá	4	Finca Santa Victoria	7	Julio	2023-07-25T00:00:00	2024-11-08T14:00:00	3	Temperatura mínima	22.2
120744	7	Sololá	701	Sololá	4	Finca Santa Victoria	7	Julio	2023-07-25T00:00:00	2024-11-08T14:00:00	5	Humedad	54
120745	7	Sololá	701	Sololá	4	Finca Santa Victoria	7	Julio	2023-07-25T00:00:00	2024-11-08T14:00:00	6	Velocidad del viento	3.2
120746	7	Sololá	701	Sololá	4	Finca Santa Victoria	7	Julio	2023-07-25T00:00:00	2024-11-08T14:00:00	7	Dirección del viento	3.22
120747	7	Sololá	701	Sololá	4	Finca Santa Victoria	7	Julio	2023-07-25T00:00:00	2024-11-08T14:00:00	1	Precipitación	0
120748	7	Sololá	701	Sololá	4	Finca Santa Victoria	7	Julio	2023-07-25T00:00:00	2024-11-08T14:00:00	8	Radiación solar	541
120749	7	Sololá	701	Sololá	4	Finca Santa Victoria	7	Julio	2023-07-25T00:00:00	2024-11-08T15:00:00	2	Temperatura media	21.8
120750	7	Sololá	701	Sololá	4	Finca Santa Victoria	7	Julio	2023-07-25T00:00:00	2024-11-08T15:00:00	4	Temperatura máxima	22.9
120751	7	Sololá	701	Sololá	4	Finca Santa Victoria	7	Julio	2023-07-25T00:00:00	2024-11-08T15:00:00	3	Temperatura mínima	21.4
120752	7	Sololá	701	Sololá	4	Finca Santa Victoria	7	Julio	2023-07-25T00:00:00	2024-11-08T15:00:00	5	Humedad	60
120753	7	Sololá	701	Sololá	4	Finca Santa Victoria	7	Julio	2023-07-25T00:00:00	2024-11-08T15:00:00	6	Velocidad del viento	4.8
120754	7	Sololá	701	Sololá	4	Finca Santa Victoria	7	Julio	2023-07-25T00:00:00	2024-11-08T15:00:00	7	Dirección del viento	4.83
120755	7	Sololá	701	Sololá	4	Finca Santa Victoria	7	Julio	2023-07-25T00:00:00	2024-11-08T15:00:00	1	Precipitación	0
120756	7	Sololá	701	Sololá	4	Finca Santa Victoria	7	Julio	2023-07-25T00:00:00	2024-11-08T15:00:00	8	Radiación solar	204
120757	7	Sololá	701	Sololá	4	Finca Santa Victoria	7	Julio	2023-07-25T00:00:00	2024-11-08T16:00:00	2	Temperatura media	20.1
120758	7	Sololá	701	Sololá	4	Finca Santa Victoria	7	Julio	2023-07-25T00:00:00	2024-11-08T16:00:00	4	Temperatura máxima	21.9
120759	7	Sololá	701	Sololá	4	Finca Santa Victoria	7	Julio	2023-07-25T00:00:00	2024-11-08T16:00:00	3	Temperatura mínima	19.7
120760	7	Sololá	701	Sololá	4	Finca Santa Victoria	7	Julio	2023-07-25T00:00:00	2024-11-08T16:00:00	5	Humedad	65
120761	7	Sololá	701	Sololá	4	Finca Santa Victoria	7	Julio	2023-07-25T00:00:00	2024-11-08T16:00:00	6	Velocidad del viento	3.2
120762	7	Sololá	701	Sololá	4	Finca Santa Victoria	7	Julio	2023-07-25T00:00:00	2024-11-08T16:00:00	7	Dirección del viento	3.22
120763	7	Sololá	701	Sololá	4	Finca Santa Victoria	7	Julio	2023-07-25T00:00:00	2024-11-08T16:00:00	1	Precipitación	0
120764	7	Sololá	701	Sololá	4	Finca Santa Victoria	7	Julio	2023-07-25T00:00:00	2024-11-08T16:00:00	8	Radiación solar	139
120765	7	Sololá	701	Sololá	4	Finca Santa Victoria	7	Julio	2023-07-25T00:00:00	2024-11-08T17:00:00	2	Temperatura media	19.7
120766	7	Sololá	701	Sololá	4	Finca Santa Victoria	7	Julio	2023-07-25T00:00:00	2024-11-08T17:00:00	4	Temperatura máxima	20.6
120767	7	Sololá	701	Sololá	4	Finca Santa Victoria	7	Julio	2023-07-25T00:00:00	2024-11-08T17:00:00	3	Temperatura mínima	19.7
120768	7	Sololá	701	Sololá	4	Finca Santa Victoria	7	Julio	2023-07-25T00:00:00	2024-11-08T17:00:00	5	Humedad	60
120769	7	Sololá	701	Sololá	4	Finca Santa Victoria	7	Julio	2023-07-25T00:00:00	2024-11-08T17:00:00	6	Velocidad del viento	3.2
120770	7	Sololá	701	Sololá	4	Finca Santa Victoria	7	Julio	2023-07-25T00:00:00	2024-11-08T17:00:00	7	Dirección del viento	3.22
120771	7	Sololá	701	Sololá	4	Finca Santa Victoria	7	Julio	2023-07-25T00:00:00	2024-11-08T17:00:00	1	Precipitación	0
120772	7	Sololá	701	Sololá	4	Finca Santa Victoria	7	Julio	2023-07-25T00:00:00	2024-11-08T17:00:00	8	Radiación solar	117
120773	7	Sololá	701	Sololá	4	Finca Santa Victoria	7	Julio	2023-07-25T00:00:00	2024-11-08T18:00:00	2	Temperatura media	17.6
120774	7	Sololá	701	Sololá	4	Finca Santa Victoria	7	Julio	2023-07-25T00:00:00	2024-11-08T18:00:00	4	Temperatura máxima	19.7
120775	7	Sololá	701	Sololá	4	Finca Santa Victoria	7	Julio	2023-07-25T00:00:00	2024-11-08T18:00:00	3	Temperatura mínima	17.6
120776	7	Sololá	701	Sololá	4	Finca Santa Victoria	7	Julio	2023-07-25T00:00:00	2024-11-08T18:00:00	5	Humedad	65
120777	7	Sololá	701	Sololá	4	Finca Santa Victoria	7	Julio	2023-07-25T00:00:00	2024-11-08T18:00:00	6	Velocidad del viento	3.2
120778	7	Sololá	701	Sololá	4	Finca Santa Victoria	7	Julio	2023-07-25T00:00:00	2024-11-08T18:00:00	7	Dirección del viento	3.22
120779	7	Sololá	701	Sololá	4	Finca Santa Victoria	7	Julio	2023-07-25T00:00:00	2024-11-08T18:00:00	1	Precipitación	0
120780	7	Sololá	701	Sololá	4	Finca Santa Victoria	7	Julio	2023-07-25T00:00:00	2024-11-08T18:00:00	8	Radiación solar	46
120781	7	Sololá	701	Sololá	4	Finca Santa Victoria	7	Julio	2023-07-25T00:00:00	2024-11-08T19:00:00	2	Temperatura media	15.8
120782	7	Sololá	701	Sololá	4	Finca Santa Victoria	7	Julio	2023-07-25T00:00:00	2024-11-08T19:00:00	4	Temperatura máxima	17.7
120783	7	Sololá	701	Sololá	4	Finca Santa Victoria	7	Julio	2023-07-25T00:00:00	2024-11-08T19:00:00	3	Temperatura mínima	15.8
120784	7	Sololá	701	Sololá	4	Finca Santa Victoria	7	Julio	2023-07-25T00:00:00	2024-11-08T19:00:00	5	Humedad	77
120785	7	Sololá	701	Sololá	4	Finca Santa Victoria	7	Julio	2023-07-25T00:00:00	2024-11-08T19:00:00	6	Velocidad del viento	3.2
120786	7	Sololá	701	Sololá	4	Finca Santa Victoria	7	Julio	2023-07-25T00:00:00	2024-11-08T19:00:00	7	Dirección del viento	3.22
120787	7	Sololá	701	Sololá	4	Finca Santa Victoria	7	Julio	2023-07-25T00:00:00	2024-11-08T19:00:00	1	Precipitación	0
120788	7	Sololá	701	Sololá	4	Finca Santa Victoria	7	Julio	2023-07-25T00:00:00	2024-11-08T19:00:00	8	Radiación solar	0
120789	7	Sololá	701	Sololá	4	Finca Santa Victoria	7	Julio	2023-07-25T00:00:00	2024-11-08T20:00:00	2	Temperatura media	15.6
120790	7	Sololá	701	Sololá	4	Finca Santa Victoria	7	Julio	2023-07-25T00:00:00	2024-11-08T20:00:00	4	Temperatura máxima	15.8
120791	7	Sololá	701	Sololá	4	Finca Santa Victoria	7	Julio	2023-07-25T00:00:00	2024-11-08T20:00:00	3	Temperatura mínima	15.6
120792	7	Sololá	701	Sololá	4	Finca Santa Victoria	7	Julio	2023-07-25T00:00:00	2024-11-08T20:00:00	5	Humedad	81
120793	7	Sololá	701	Sololá	4	Finca Santa Victoria	7	Julio	2023-07-25T00:00:00	2024-11-08T20:00:00	6	Velocidad del viento	3.2
120794	7	Sololá	701	Sololá	4	Finca Santa Victoria	7	Julio	2023-07-25T00:00:00	2024-11-08T20:00:00	7	Dirección del viento	3.22
120795	7	Sololá	701	Sololá	4	Finca Santa Victoria	7	Julio	2023-07-25T00:00:00	2024-11-08T20:00:00	1	Precipitación	0
120796	7	Sololá	701	Sololá	4	Finca Santa Victoria	7	Julio	2023-07-25T00:00:00	2024-11-08T20:00:00	8	Radiación solar	0
120797	7	Sololá	701	Sololá	4	Finca Santa Victoria	7	Julio	2023-07-25T00:00:00	2024-11-08T21:00:00	2	Temperatura media	15
120798	7	Sololá	701	Sololá	4	Finca Santa Victoria	7	Julio	2023-07-25T00:00:00	2024-11-08T21:00:00	4	Temperatura máxima	15.7
120799	7	Sololá	701	Sololá	4	Finca Santa Victoria	7	Julio	2023-07-25T00:00:00	2024-11-08T21:00:00	3	Temperatura mínima	15
120800	7	Sololá	701	Sololá	4	Finca Santa Victoria	7	Julio	2023-07-25T00:00:00	2024-11-08T21:00:00	5	Humedad	79
120801	7	Sololá	701	Sololá	4	Finca Santa Victoria	7	Julio	2023-07-25T00:00:00	2024-11-08T21:00:00	6	Velocidad del viento	3.2
120802	7	Sololá	701	Sololá	4	Finca Santa Victoria	7	Julio	2023-07-25T00:00:00	2024-11-08T21:00:00	7	Dirección del viento	3.22
120803	7	Sololá	701	Sololá	4	Finca Santa Victoria	7	Julio	2023-07-25T00:00:00	2024-11-08T21:00:00	1	Precipitación	0
120804	7	Sololá	701	Sololá	4	Finca Santa Victoria	7	Julio	2023-07-25T00:00:00	2024-11-08T21:00:00	8	Radiación solar	0
120805	7	Sololá	701	Sololá	4	Finca Santa Victoria	7	Julio	2023-07-25T00:00:00	2024-11-08T22:00:00	2	Temperatura media	14.4
120806	7	Sololá	701	Sololá	4	Finca Santa Victoria	7	Julio	2023-07-25T00:00:00	2024-11-08T22:00:00	4	Temperatura máxima	15
120807	7	Sololá	701	Sololá	4	Finca Santa Victoria	7	Julio	2023-07-25T00:00:00	2024-11-08T22:00:00	3	Temperatura mínima	14.4
120808	7	Sololá	701	Sololá	4	Finca Santa Victoria	7	Julio	2023-07-25T00:00:00	2024-11-08T22:00:00	5	Humedad	79
120809	7	Sololá	701	Sololá	4	Finca Santa Victoria	7	Julio	2023-07-25T00:00:00	2024-11-08T22:00:00	6	Velocidad del viento	3.2
120810	7	Sololá	701	Sololá	4	Finca Santa Victoria	7	Julio	2023-07-25T00:00:00	2024-11-08T22:00:00	7	Dirección del viento	3.22
120811	7	Sololá	701	Sololá	4	Finca Santa Victoria	7	Julio	2023-07-25T00:00:00	2024-11-08T22:00:00	1	Precipitación	0
120812	7	Sololá	701	Sololá	4	Finca Santa Victoria	7	Julio	2023-07-25T00:00:00	2024-11-08T22:00:00	8	Radiación solar	0
120813	7	Sololá	701	Sololá	4	Finca Santa Victoria	7	Julio	2023-07-25T00:00:00	2024-11-08T23:00:00	2	Temperatura media	13.6
120814	7	Sololá	701	Sololá	4	Finca Santa Victoria	7	Julio	2023-07-25T00:00:00	2024-11-08T23:00:00	4	Temperatura máxima	14.5
120815	7	Sololá	701	Sololá	4	Finca Santa Victoria	7	Julio	2023-07-25T00:00:00	2024-11-08T23:00:00	3	Temperatura mínima	13.6
120816	7	Sololá	701	Sololá	4	Finca Santa Victoria	7	Julio	2023-07-25T00:00:00	2024-11-08T23:00:00	5	Humedad	80
120817	7	Sololá	701	Sololá	4	Finca Santa Victoria	7	Julio	2023-07-25T00:00:00	2024-11-08T23:00:00	6	Velocidad del viento	4.8
120818	7	Sololá	701	Sololá	4	Finca Santa Victoria	7	Julio	2023-07-25T00:00:00	2024-11-08T23:00:00	7	Dirección del viento	4.83
120819	7	Sololá	701	Sololá	4	Finca Santa Victoria	7	Julio	2023-07-25T00:00:00	2024-11-08T23:00:00	1	Precipitación	0
120820	7	Sololá	701	Sololá	4	Finca Santa Victoria	7	Julio	2023-07-25T00:00:00	2024-11-08T23:00:00	8	Radiación solar	0
120821	7	Sololá	701	Sololá	4	Finca Santa Victoria	7	Julio	2023-07-26T00:00:00	2024-11-08T00:00:00	2	Temperatura media	12.8
120822	7	Sololá	701	Sololá	4	Finca Santa Victoria	7	Julio	2023-07-26T00:00:00	2024-11-08T00:00:00	4	Temperatura máxima	13.6
120823	7	Sololá	701	Sololá	4	Finca Santa Victoria	7	Julio	2023-07-26T00:00:00	2024-11-08T00:00:00	3	Temperatura mínima	12.8
120824	7	Sololá	701	Sololá	4	Finca Santa Victoria	7	Julio	2023-07-26T00:00:00	2024-11-08T00:00:00	5	Humedad	75
120825	7	Sololá	701	Sololá	4	Finca Santa Victoria	7	Julio	2023-07-26T00:00:00	2024-11-08T00:00:00	6	Velocidad del viento	3.2
120826	7	Sololá	701	Sololá	4	Finca Santa Victoria	7	Julio	2023-07-26T00:00:00	2024-11-08T00:00:00	7	Dirección del viento	3.22
120827	7	Sololá	701	Sololá	4	Finca Santa Victoria	7	Julio	2023-07-26T00:00:00	2024-11-08T00:00:00	1	Precipitación	0
120828	7	Sololá	701	Sololá	4	Finca Santa Victoria	7	Julio	2023-07-26T00:00:00	2024-11-08T00:00:00	8	Radiación solar	0
120829	7	Sololá	701	Sololá	4	Finca Santa Victoria	7	Julio	2023-07-26T00:00:00	2024-11-08T01:00:00	2	Temperatura media	12.4
120830	7	Sololá	701	Sololá	4	Finca Santa Victoria	7	Julio	2023-07-26T00:00:00	2024-11-08T01:00:00	4	Temperatura máxima	12.8
120831	7	Sololá	701	Sololá	4	Finca Santa Victoria	7	Julio	2023-07-26T00:00:00	2024-11-08T01:00:00	3	Temperatura mínima	12.3
120832	7	Sololá	701	Sololá	4	Finca Santa Victoria	7	Julio	2023-07-26T00:00:00	2024-11-08T01:00:00	5	Humedad	72
120833	7	Sololá	701	Sololá	4	Finca Santa Victoria	7	Julio	2023-07-26T00:00:00	2024-11-08T01:00:00	6	Velocidad del viento	3.2
120834	7	Sololá	701	Sololá	4	Finca Santa Victoria	7	Julio	2023-07-26T00:00:00	2024-11-08T01:00:00	7	Dirección del viento	3.22
120835	7	Sololá	701	Sololá	4	Finca Santa Victoria	7	Julio	2023-07-26T00:00:00	2024-11-08T01:00:00	1	Precipitación	0
120836	7	Sololá	701	Sololá	4	Finca Santa Victoria	7	Julio	2023-07-26T00:00:00	2024-11-08T01:00:00	8	Radiación solar	0
120837	7	Sololá	701	Sololá	4	Finca Santa Victoria	7	Julio	2023-07-26T00:00:00	2024-11-08T02:00:00	2	Temperatura media	11.9
120838	7	Sololá	701	Sololá	4	Finca Santa Victoria	7	Julio	2023-07-26T00:00:00	2024-11-08T02:00:00	4	Temperatura máxima	12.4
120839	7	Sololá	701	Sololá	4	Finca Santa Victoria	7	Julio	2023-07-26T00:00:00	2024-11-08T02:00:00	3	Temperatura mínima	11.9
120840	7	Sololá	701	Sololá	4	Finca Santa Victoria	7	Julio	2023-07-26T00:00:00	2024-11-08T02:00:00	5	Humedad	76
120841	7	Sololá	701	Sololá	4	Finca Santa Victoria	7	Julio	2023-07-26T00:00:00	2024-11-08T02:00:00	6	Velocidad del viento	3.2
120842	7	Sololá	701	Sololá	4	Finca Santa Victoria	7	Julio	2023-07-26T00:00:00	2024-11-08T02:00:00	7	Dirección del viento	3.22
120843	7	Sololá	701	Sololá	4	Finca Santa Victoria	7	Julio	2023-07-26T00:00:00	2024-11-08T02:00:00	1	Precipitación	0
120844	7	Sololá	701	Sololá	4	Finca Santa Victoria	7	Julio	2023-07-26T00:00:00	2024-11-08T02:00:00	8	Radiación solar	0
120845	7	Sololá	701	Sololá	4	Finca Santa Victoria	7	Julio	2023-07-26T00:00:00	2024-11-08T03:00:00	2	Temperatura media	11.9
120846	7	Sololá	701	Sololá	4	Finca Santa Victoria	7	Julio	2023-07-26T00:00:00	2024-11-08T03:00:00	4	Temperatura máxima	12.1
120847	7	Sololá	701	Sololá	4	Finca Santa Victoria	7	Julio	2023-07-26T00:00:00	2024-11-08T03:00:00	3	Temperatura mínima	11.9
120848	7	Sololá	701	Sololá	4	Finca Santa Victoria	7	Julio	2023-07-26T00:00:00	2024-11-08T03:00:00	5	Humedad	74
120849	7	Sololá	701	Sololá	4	Finca Santa Victoria	7	Julio	2023-07-26T00:00:00	2024-11-08T03:00:00	6	Velocidad del viento	3.2
120850	7	Sololá	701	Sololá	4	Finca Santa Victoria	7	Julio	2023-07-26T00:00:00	2024-11-08T03:00:00	7	Dirección del viento	3.22
120851	7	Sololá	701	Sololá	4	Finca Santa Victoria	7	Julio	2023-07-26T00:00:00	2024-11-08T03:00:00	1	Precipitación	0
120852	7	Sololá	701	Sololá	4	Finca Santa Victoria	7	Julio	2023-07-26T00:00:00	2024-11-08T03:00:00	8	Radiación solar	0
120853	7	Sololá	701	Sololá	4	Finca Santa Victoria	7	Julio	2023-07-26T00:00:00	2024-11-08T04:00:00	2	Temperatura media	12.3
120854	7	Sololá	701	Sololá	4	Finca Santa Victoria	7	Julio	2023-07-26T00:00:00	2024-11-08T04:00:00	4	Temperatura máxima	12.4
120855	7	Sololá	701	Sololá	4	Finca Santa Victoria	7	Julio	2023-07-26T00:00:00	2024-11-08T04:00:00	3	Temperatura mínima	11.9
120856	7	Sololá	701	Sololá	4	Finca Santa Victoria	7	Julio	2023-07-26T00:00:00	2024-11-08T04:00:00	5	Humedad	73
120857	7	Sololá	701	Sololá	4	Finca Santa Victoria	7	Julio	2023-07-26T00:00:00	2024-11-08T04:00:00	6	Velocidad del viento	3.2
120858	7	Sololá	701	Sololá	4	Finca Santa Victoria	7	Julio	2023-07-26T00:00:00	2024-11-08T04:00:00	7	Dirección del viento	3.22
120859	7	Sololá	701	Sololá	4	Finca Santa Victoria	7	Julio	2023-07-26T00:00:00	2024-11-08T04:00:00	1	Precipitación	0
120860	7	Sololá	701	Sololá	4	Finca Santa Victoria	7	Julio	2023-07-26T00:00:00	2024-11-08T04:00:00	8	Radiación solar	0
120861	7	Sololá	701	Sololá	4	Finca Santa Victoria	7	Julio	2023-07-26T00:00:00	2024-11-08T05:00:00	2	Temperatura media	12.8
120862	7	Sololá	701	Sololá	4	Finca Santa Victoria	7	Julio	2023-07-26T00:00:00	2024-11-08T05:00:00	4	Temperatura máxima	12.9
120863	7	Sololá	701	Sololá	4	Finca Santa Victoria	7	Julio	2023-07-26T00:00:00	2024-11-08T05:00:00	3	Temperatura mínima	12.3
120864	7	Sololá	701	Sololá	4	Finca Santa Victoria	7	Julio	2023-07-26T00:00:00	2024-11-08T05:00:00	5	Humedad	76
120865	7	Sololá	701	Sololá	4	Finca Santa Victoria	7	Julio	2023-07-26T00:00:00	2024-11-08T05:00:00	6	Velocidad del viento	4.8
120866	7	Sololá	701	Sololá	4	Finca Santa Victoria	7	Julio	2023-07-26T00:00:00	2024-11-08T05:00:00	7	Dirección del viento	4.83
120867	7	Sololá	701	Sololá	4	Finca Santa Victoria	7	Julio	2023-07-26T00:00:00	2024-11-08T05:00:00	1	Precipitación	0
120868	7	Sololá	701	Sololá	4	Finca Santa Victoria	7	Julio	2023-07-26T00:00:00	2024-11-08T05:00:00	8	Radiación solar	0
120869	7	Sololá	701	Sololá	4	Finca Santa Victoria	7	Julio	2023-07-26T00:00:00	2024-11-08T06:00:00	2	Temperatura media	12.8
120870	7	Sololá	701	Sololá	4	Finca Santa Victoria	7	Julio	2023-07-26T00:00:00	2024-11-08T06:00:00	4	Temperatura máxima	12.9
120871	7	Sololá	701	Sololá	4	Finca Santa Victoria	7	Julio	2023-07-26T00:00:00	2024-11-08T06:00:00	3	Temperatura mínima	12.6
120872	7	Sololá	701	Sololá	4	Finca Santa Victoria	7	Julio	2023-07-26T00:00:00	2024-11-08T06:00:00	5	Humedad	71
120873	7	Sololá	701	Sololá	4	Finca Santa Victoria	7	Julio	2023-07-26T00:00:00	2024-11-08T06:00:00	6	Velocidad del viento	3.2
120874	7	Sololá	701	Sololá	4	Finca Santa Victoria	7	Julio	2023-07-26T00:00:00	2024-11-08T06:00:00	7	Dirección del viento	3.22
120875	7	Sololá	701	Sololá	4	Finca Santa Victoria	7	Julio	2023-07-26T00:00:00	2024-11-08T06:00:00	1	Precipitación	0
120876	7	Sololá	701	Sololá	4	Finca Santa Victoria	7	Julio	2023-07-26T00:00:00	2024-11-08T06:00:00	8	Radiación solar	0
120877	7	Sololá	701	Sololá	4	Finca Santa Victoria	7	Julio	2023-07-26T00:00:00	2024-11-08T07:00:00	2	Temperatura media	13.8
120878	7	Sololá	701	Sololá	4	Finca Santa Victoria	7	Julio	2023-07-26T00:00:00	2024-11-08T07:00:00	4	Temperatura máxima	13.8
120879	7	Sololá	701	Sololá	4	Finca Santa Victoria	7	Julio	2023-07-26T00:00:00	2024-11-08T07:00:00	3	Temperatura mínima	12.7
120880	7	Sololá	701	Sololá	4	Finca Santa Victoria	7	Julio	2023-07-26T00:00:00	2024-11-08T07:00:00	5	Humedad	66
120881	7	Sololá	701	Sololá	4	Finca Santa Victoria	7	Julio	2023-07-26T00:00:00	2024-11-08T07:00:00	6	Velocidad del viento	3.2
120882	7	Sololá	701	Sololá	4	Finca Santa Victoria	7	Julio	2023-07-26T00:00:00	2024-11-08T07:00:00	7	Dirección del viento	3.22
120883	7	Sololá	701	Sololá	4	Finca Santa Victoria	7	Julio	2023-07-26T00:00:00	2024-11-08T07:00:00	1	Precipitación	0
120884	7	Sololá	701	Sololá	4	Finca Santa Victoria	7	Julio	2023-07-26T00:00:00	2024-11-08T07:00:00	8	Radiación solar	15
120885	7	Sololá	701	Sololá	4	Finca Santa Victoria	7	Julio	2023-07-26T00:00:00	2024-11-08T08:00:00	2	Temperatura media	16.7
120886	7	Sololá	701	Sololá	4	Finca Santa Victoria	7	Julio	2023-07-26T00:00:00	2024-11-08T08:00:00	4	Temperatura máxima	16.7
120887	7	Sololá	701	Sololá	4	Finca Santa Victoria	7	Julio	2023-07-26T00:00:00	2024-11-08T08:00:00	3	Temperatura mínima	13.8
120888	7	Sololá	701	Sololá	4	Finca Santa Victoria	7	Julio	2023-07-26T00:00:00	2024-11-08T08:00:00	5	Humedad	66
120889	7	Sololá	701	Sololá	4	Finca Santa Victoria	7	Julio	2023-07-26T00:00:00	2024-11-08T08:00:00	6	Velocidad del viento	3.2
120890	7	Sololá	701	Sololá	4	Finca Santa Victoria	7	Julio	2023-07-26T00:00:00	2024-11-08T08:00:00	7	Dirección del viento	3.22
120891	7	Sololá	701	Sololá	4	Finca Santa Victoria	7	Julio	2023-07-26T00:00:00	2024-11-08T08:00:00	1	Precipitación	0
120892	7	Sololá	701	Sololá	4	Finca Santa Victoria	7	Julio	2023-07-26T00:00:00	2024-11-08T08:00:00	8	Radiación solar	220
120893	7	Sololá	701	Sololá	4	Finca Santa Victoria	7	Julio	2023-07-26T00:00:00	2024-11-08T09:00:00	2	Temperatura media	16.9
120894	7	Sololá	701	Sololá	4	Finca Santa Victoria	7	Julio	2023-07-26T00:00:00	2024-11-08T09:00:00	4	Temperatura máxima	17.3
120895	7	Sololá	701	Sololá	4	Finca Santa Victoria	7	Julio	2023-07-26T00:00:00	2024-11-08T09:00:00	3	Temperatura mínima	16.7
120896	7	Sololá	701	Sololá	4	Finca Santa Victoria	7	Julio	2023-07-26T00:00:00	2024-11-08T09:00:00	5	Humedad	60
120897	7	Sololá	701	Sololá	4	Finca Santa Victoria	7	Julio	2023-07-26T00:00:00	2024-11-08T09:00:00	6	Velocidad del viento	3.2
120898	7	Sololá	701	Sololá	4	Finca Santa Victoria	7	Julio	2023-07-26T00:00:00	2024-11-08T09:00:00	7	Dirección del viento	3.22
120899	7	Sololá	701	Sololá	4	Finca Santa Victoria	7	Julio	2023-07-26T00:00:00	2024-11-08T09:00:00	1	Precipitación	0
120900	7	Sololá	701	Sololá	4	Finca Santa Victoria	7	Julio	2023-07-26T00:00:00	2024-11-08T09:00:00	8	Radiación solar	329
120901	7	Sololá	701	Sololá	4	Finca Santa Victoria	7	Julio	2023-07-26T00:00:00	2024-11-08T10:00:00	2	Temperatura media	18.3
120902	7	Sololá	701	Sololá	4	Finca Santa Victoria	7	Julio	2023-07-26T00:00:00	2024-11-08T10:00:00	4	Temperatura máxima	18.3
120903	7	Sololá	701	Sololá	4	Finca Santa Victoria	7	Julio	2023-07-26T00:00:00	2024-11-08T10:00:00	3	Temperatura mínima	16.9
120904	7	Sololá	701	Sololá	4	Finca Santa Victoria	7	Julio	2023-07-26T00:00:00	2024-11-08T10:00:00	5	Humedad	65
120905	7	Sololá	701	Sololá	4	Finca Santa Victoria	7	Julio	2023-07-26T00:00:00	2024-11-08T10:00:00	6	Velocidad del viento	3.2
120906	7	Sololá	701	Sololá	4	Finca Santa Victoria	7	Julio	2023-07-26T00:00:00	2024-11-08T10:00:00	7	Dirección del viento	3.22
120907	7	Sololá	701	Sololá	4	Finca Santa Victoria	7	Julio	2023-07-26T00:00:00	2024-11-08T10:00:00	1	Precipitación	0
120908	7	Sololá	701	Sololá	4	Finca Santa Victoria	7	Julio	2023-07-26T00:00:00	2024-11-08T10:00:00	8	Radiación solar	159
120909	7	Sololá	701	Sololá	4	Finca Santa Victoria	7	Julio	2023-07-26T00:00:00	2024-11-08T11:00:00	2	Temperatura media	20
120910	7	Sololá	701	Sololá	4	Finca Santa Victoria	7	Julio	2023-07-26T00:00:00	2024-11-08T11:00:00	4	Temperatura máxima	20
120911	7	Sololá	701	Sololá	4	Finca Santa Victoria	7	Julio	2023-07-26T00:00:00	2024-11-08T11:00:00	3	Temperatura mínima	18.3
120912	7	Sololá	701	Sololá	4	Finca Santa Victoria	7	Julio	2023-07-26T00:00:00	2024-11-08T11:00:00	5	Humedad	58
120913	7	Sololá	701	Sololá	4	Finca Santa Victoria	7	Julio	2023-07-26T00:00:00	2024-11-08T11:00:00	6	Velocidad del viento	3.2
120914	7	Sololá	701	Sololá	4	Finca Santa Victoria	7	Julio	2023-07-26T00:00:00	2024-11-08T11:00:00	7	Dirección del viento	3.22
120915	7	Sololá	701	Sololá	4	Finca Santa Victoria	7	Julio	2023-07-26T00:00:00	2024-11-08T11:00:00	1	Precipitación	0
120916	7	Sololá	701	Sololá	4	Finca Santa Victoria	7	Julio	2023-07-26T00:00:00	2024-11-08T11:00:00	8	Radiación solar	170
120917	7	Sololá	701	Sololá	4	Finca Santa Victoria	7	Julio	2023-07-26T00:00:00	2024-11-08T12:00:00	2	Temperatura media	21.1
120918	7	Sololá	701	Sololá	4	Finca Santa Victoria	7	Julio	2023-07-26T00:00:00	2024-11-08T12:00:00	4	Temperatura máxima	21.1
120919	7	Sololá	701	Sololá	4	Finca Santa Victoria	7	Julio	2023-07-26T00:00:00	2024-11-08T12:00:00	3	Temperatura mínima	20
120920	7	Sololá	701	Sololá	4	Finca Santa Victoria	7	Julio	2023-07-26T00:00:00	2024-11-08T12:00:00	5	Humedad	58
120921	7	Sololá	701	Sololá	4	Finca Santa Victoria	7	Julio	2023-07-26T00:00:00	2024-11-08T12:00:00	6	Velocidad del viento	4.8
120922	7	Sololá	701	Sololá	4	Finca Santa Victoria	7	Julio	2023-07-26T00:00:00	2024-11-08T12:00:00	7	Dirección del viento	4.83
120923	7	Sololá	701	Sololá	4	Finca Santa Victoria	7	Julio	2023-07-26T00:00:00	2024-11-08T12:00:00	1	Precipitación	0
120924	7	Sololá	701	Sololá	4	Finca Santa Victoria	7	Julio	2023-07-26T00:00:00	2024-11-08T12:00:00	8	Radiación solar	1025
120925	7	Sololá	701	Sololá	4	Finca Santa Victoria	7	Julio	2023-07-26T00:00:00	2024-11-08T13:00:00	2	Temperatura media	21.6
120926	7	Sololá	701	Sololá	4	Finca Santa Victoria	7	Julio	2023-07-26T00:00:00	2024-11-08T13:00:00	4	Temperatura máxima	21.7
120927	7	Sololá	701	Sololá	4	Finca Santa Victoria	7	Julio	2023-07-26T00:00:00	2024-11-08T13:00:00	3	Temperatura mínima	20.9
120928	7	Sololá	701	Sololá	4	Finca Santa Victoria	7	Julio	2023-07-26T00:00:00	2024-11-08T13:00:00	5	Humedad	57
120929	7	Sololá	701	Sololá	4	Finca Santa Victoria	7	Julio	2023-07-26T00:00:00	2024-11-08T13:00:00	6	Velocidad del viento	4.8
120930	7	Sololá	701	Sololá	4	Finca Santa Victoria	7	Julio	2023-07-26T00:00:00	2024-11-08T13:00:00	7	Dirección del viento	4.83
120931	7	Sololá	701	Sololá	4	Finca Santa Victoria	7	Julio	2023-07-26T00:00:00	2024-11-08T13:00:00	1	Precipitación	0
120932	7	Sololá	701	Sololá	4	Finca Santa Victoria	7	Julio	2023-07-26T00:00:00	2024-11-08T13:00:00	8	Radiación solar	1030
120933	7	Sololá	701	Sololá	4	Finca Santa Victoria	7	Julio	2023-07-26T00:00:00	2024-11-08T14:00:00	2	Temperatura media	20.9
120934	7	Sololá	701	Sololá	4	Finca Santa Victoria	7	Julio	2023-07-26T00:00:00	2024-11-08T14:00:00	4	Temperatura máxima	22
120935	7	Sololá	701	Sololá	4	Finca Santa Victoria	7	Julio	2023-07-26T00:00:00	2024-11-08T14:00:00	3	Temperatura mínima	20.9
120936	7	Sololá	701	Sololá	4	Finca Santa Victoria	7	Julio	2023-07-26T00:00:00	2024-11-08T14:00:00	5	Humedad	65
120937	7	Sololá	701	Sololá	4	Finca Santa Victoria	7	Julio	2023-07-26T00:00:00	2024-11-08T14:00:00	6	Velocidad del viento	4.8
120938	7	Sololá	701	Sololá	4	Finca Santa Victoria	7	Julio	2023-07-26T00:00:00	2024-11-08T14:00:00	7	Dirección del viento	4.83
120939	7	Sololá	701	Sololá	4	Finca Santa Victoria	7	Julio	2023-07-26T00:00:00	2024-11-08T14:00:00	1	Precipitación	0
120940	7	Sololá	701	Sololá	4	Finca Santa Victoria	7	Julio	2023-07-26T00:00:00	2024-11-08T14:00:00	8	Radiación solar	589
120941	7	Sololá	701	Sololá	4	Finca Santa Victoria	7	Julio	2023-07-26T00:00:00	2024-11-08T15:00:00	2	Temperatura media	20
120942	7	Sololá	701	Sololá	4	Finca Santa Victoria	7	Julio	2023-07-26T00:00:00	2024-11-08T15:00:00	4	Temperatura máxima	21.1
120943	7	Sololá	701	Sololá	4	Finca Santa Victoria	7	Julio	2023-07-26T00:00:00	2024-11-08T15:00:00	3	Temperatura mínima	19.6
120944	7	Sololá	701	Sololá	4	Finca Santa Victoria	7	Julio	2023-07-26T00:00:00	2024-11-08T15:00:00	5	Humedad	66
120945	7	Sololá	701	Sololá	4	Finca Santa Victoria	7	Julio	2023-07-26T00:00:00	2024-11-08T15:00:00	6	Velocidad del viento	4.8
120946	7	Sololá	701	Sololá	4	Finca Santa Victoria	7	Julio	2023-07-26T00:00:00	2024-11-08T15:00:00	7	Dirección del viento	4.83
120947	7	Sololá	701	Sololá	4	Finca Santa Victoria	7	Julio	2023-07-26T00:00:00	2024-11-08T15:00:00	1	Precipitación	0
120948	7	Sololá	701	Sololá	4	Finca Santa Victoria	7	Julio	2023-07-26T00:00:00	2024-11-08T15:00:00	8	Radiación solar	193
120949	7	Sololá	701	Sololá	4	Finca Santa Victoria	7	Julio	2023-07-26T00:00:00	2024-11-08T16:00:00	2	Temperatura media	19.8
120950	7	Sololá	701	Sololá	4	Finca Santa Victoria	7	Julio	2023-07-26T00:00:00	2024-11-08T16:00:00	4	Temperatura máxima	20.3
120951	7	Sololá	701	Sololá	4	Finca Santa Victoria	7	Julio	2023-07-26T00:00:00	2024-11-08T16:00:00	3	Temperatura mínima	19.7
120952	7	Sololá	701	Sololá	4	Finca Santa Victoria	7	Julio	2023-07-26T00:00:00	2024-11-08T16:00:00	5	Humedad	67
120953	7	Sololá	701	Sololá	4	Finca Santa Victoria	7	Julio	2023-07-26T00:00:00	2024-11-08T16:00:00	6	Velocidad del viento	3.2
120954	7	Sololá	701	Sololá	4	Finca Santa Victoria	7	Julio	2023-07-26T00:00:00	2024-11-08T16:00:00	7	Dirección del viento	3.22
120955	7	Sololá	701	Sololá	4	Finca Santa Victoria	7	Julio	2023-07-26T00:00:00	2024-11-08T16:00:00	1	Precipitación	0
120956	7	Sololá	701	Sololá	4	Finca Santa Victoria	7	Julio	2023-07-26T00:00:00	2024-11-08T16:00:00	8	Radiación solar	164
120957	7	Sololá	701	Sololá	4	Finca Santa Victoria	7	Julio	2023-07-26T00:00:00	2024-11-08T17:00:00	2	Temperatura media	18.8
120958	7	Sololá	701	Sololá	4	Finca Santa Victoria	7	Julio	2023-07-26T00:00:00	2024-11-08T17:00:00	4	Temperatura máxima	20.1
120959	7	Sololá	701	Sololá	4	Finca Santa Victoria	7	Julio	2023-07-26T00:00:00	2024-11-08T17:00:00	3	Temperatura mínima	18.8
120960	7	Sololá	701	Sololá	4	Finca Santa Victoria	7	Julio	2023-07-26T00:00:00	2024-11-08T17:00:00	5	Humedad	68
120961	7	Sololá	701	Sololá	4	Finca Santa Victoria	7	Julio	2023-07-26T00:00:00	2024-11-08T17:00:00	6	Velocidad del viento	4.8
120962	7	Sololá	701	Sololá	4	Finca Santa Victoria	7	Julio	2023-07-26T00:00:00	2024-11-08T17:00:00	7	Dirección del viento	4.83
120963	7	Sololá	701	Sololá	4	Finca Santa Victoria	7	Julio	2023-07-26T00:00:00	2024-11-08T17:00:00	1	Precipitación	0
120964	7	Sololá	701	Sololá	4	Finca Santa Victoria	7	Julio	2023-07-26T00:00:00	2024-11-08T17:00:00	8	Radiación solar	121
120965	7	Sololá	701	Sololá	4	Finca Santa Victoria	7	Julio	2023-07-26T00:00:00	2024-11-08T18:00:00	2	Temperatura media	17.1
120966	7	Sololá	701	Sololá	4	Finca Santa Victoria	7	Julio	2023-07-26T00:00:00	2024-11-08T18:00:00	4	Temperatura máxima	18.8
120967	7	Sololá	701	Sololá	4	Finca Santa Victoria	7	Julio	2023-07-26T00:00:00	2024-11-08T18:00:00	3	Temperatura mínima	17.1
120968	7	Sololá	701	Sololá	4	Finca Santa Victoria	7	Julio	2023-07-26T00:00:00	2024-11-08T18:00:00	5	Humedad	74
120969	7	Sololá	701	Sololá	4	Finca Santa Victoria	7	Julio	2023-07-26T00:00:00	2024-11-08T18:00:00	6	Velocidad del viento	3.2
120970	7	Sololá	701	Sololá	4	Finca Santa Victoria	7	Julio	2023-07-26T00:00:00	2024-11-08T18:00:00	7	Dirección del viento	3.22
120971	7	Sololá	701	Sololá	4	Finca Santa Victoria	7	Julio	2023-07-26T00:00:00	2024-11-08T18:00:00	1	Precipitación	0
120972	7	Sololá	701	Sololá	4	Finca Santa Victoria	7	Julio	2023-07-26T00:00:00	2024-11-08T18:00:00	8	Radiación solar	48
120973	7	Sololá	701	Sololá	4	Finca Santa Victoria	7	Julio	2023-07-26T00:00:00	2024-11-08T19:00:00	2	Temperatura media	15.6
120974	7	Sololá	701	Sololá	4	Finca Santa Victoria	7	Julio	2023-07-26T00:00:00	2024-11-08T19:00:00	4	Temperatura máxima	17.1
120975	7	Sololá	701	Sololá	4	Finca Santa Victoria	7	Julio	2023-07-26T00:00:00	2024-11-08T19:00:00	3	Temperatura mínima	15.6
120976	7	Sololá	701	Sololá	4	Finca Santa Victoria	7	Julio	2023-07-26T00:00:00	2024-11-08T19:00:00	5	Humedad	79
120977	7	Sololá	701	Sololá	4	Finca Santa Victoria	7	Julio	2023-07-26T00:00:00	2024-11-08T19:00:00	6	Velocidad del viento	3.2
120978	7	Sololá	701	Sololá	4	Finca Santa Victoria	7	Julio	2023-07-26T00:00:00	2024-11-08T19:00:00	7	Dirección del viento	3.22
120979	7	Sololá	701	Sololá	4	Finca Santa Victoria	7	Julio	2023-07-26T00:00:00	2024-11-08T19:00:00	1	Precipitación	0
120980	7	Sololá	701	Sololá	4	Finca Santa Victoria	7	Julio	2023-07-26T00:00:00	2024-11-08T19:00:00	8	Radiación solar	0
120981	7	Sololá	701	Sololá	4	Finca Santa Victoria	7	Julio	2023-07-26T00:00:00	2024-11-08T20:00:00	2	Temperatura media	14.8
120982	7	Sololá	701	Sololá	4	Finca Santa Victoria	7	Julio	2023-07-26T00:00:00	2024-11-08T20:00:00	4	Temperatura máxima	15.6
120983	7	Sololá	701	Sololá	4	Finca Santa Victoria	7	Julio	2023-07-26T00:00:00	2024-11-08T20:00:00	3	Temperatura mínima	14.8
120984	7	Sololá	701	Sololá	4	Finca Santa Victoria	7	Julio	2023-07-26T00:00:00	2024-11-08T20:00:00	5	Humedad	82
120985	7	Sololá	701	Sololá	4	Finca Santa Victoria	7	Julio	2023-07-26T00:00:00	2024-11-08T20:00:00	6	Velocidad del viento	3.2
120986	7	Sololá	701	Sololá	4	Finca Santa Victoria	7	Julio	2023-07-26T00:00:00	2024-11-08T20:00:00	7	Dirección del viento	3.22
120987	7	Sololá	701	Sololá	4	Finca Santa Victoria	7	Julio	2023-07-26T00:00:00	2024-11-08T20:00:00	1	Precipitación	0
120988	7	Sololá	701	Sololá	4	Finca Santa Victoria	7	Julio	2023-07-26T00:00:00	2024-11-08T20:00:00	8	Radiación solar	0
120989	7	Sololá	701	Sololá	4	Finca Santa Victoria	7	Julio	2023-07-26T00:00:00	2024-11-08T21:00:00	2	Temperatura media	14.4
120990	7	Sololá	701	Sololá	4	Finca Santa Victoria	7	Julio	2023-07-26T00:00:00	2024-11-08T21:00:00	4	Temperatura máxima	14.8
120991	7	Sololá	701	Sololá	4	Finca Santa Victoria	7	Julio	2023-07-26T00:00:00	2024-11-08T21:00:00	3	Temperatura mínima	14.3
120992	7	Sololá	701	Sololá	4	Finca Santa Victoria	7	Julio	2023-07-26T00:00:00	2024-11-08T21:00:00	5	Humedad	83
120993	7	Sololá	701	Sololá	4	Finca Santa Victoria	7	Julio	2023-07-26T00:00:00	2024-11-08T21:00:00	6	Velocidad del viento	3.2
120994	7	Sololá	701	Sololá	4	Finca Santa Victoria	7	Julio	2023-07-26T00:00:00	2024-11-08T21:00:00	7	Dirección del viento	3.22
120995	7	Sololá	701	Sololá	4	Finca Santa Victoria	7	Julio	2023-07-26T00:00:00	2024-11-08T21:00:00	1	Precipitación	0
120996	7	Sololá	701	Sololá	4	Finca Santa Victoria	7	Julio	2023-07-26T00:00:00	2024-11-08T21:00:00	8	Radiación solar	0
120997	7	Sololá	701	Sololá	4	Finca Santa Victoria	7	Julio	2023-07-26T00:00:00	2024-11-08T22:00:00	2	Temperatura media	14.2
120998	7	Sololá	701	Sololá	4	Finca Santa Victoria	7	Julio	2023-07-26T00:00:00	2024-11-08T22:00:00	4	Temperatura máxima	14.4
120999	7	Sololá	701	Sololá	4	Finca Santa Victoria	7	Julio	2023-07-26T00:00:00	2024-11-08T22:00:00	3	Temperatura mínima	14.2
121000	7	Sololá	701	Sololá	4	Finca Santa Victoria	7	Julio	2023-07-26T00:00:00	2024-11-08T22:00:00	5	Humedad	85
121001	7	Sololá	701	Sololá	4	Finca Santa Victoria	7	Julio	2023-07-26T00:00:00	2024-11-08T22:00:00	6	Velocidad del viento	3.2
121002	7	Sololá	701	Sololá	4	Finca Santa Victoria	7	Julio	2023-07-26T00:00:00	2024-11-08T22:00:00	7	Dirección del viento	3.22
121003	7	Sololá	701	Sololá	4	Finca Santa Victoria	7	Julio	2023-07-26T00:00:00	2024-11-08T22:00:00	1	Precipitación	0
121004	7	Sololá	701	Sololá	4	Finca Santa Victoria	7	Julio	2023-07-26T00:00:00	2024-11-08T22:00:00	8	Radiación solar	0
121005	7	Sololá	701	Sololá	4	Finca Santa Victoria	7	Julio	2023-07-26T00:00:00	2024-11-08T23:00:00	2	Temperatura media	14.3
121006	7	Sololá	701	Sololá	4	Finca Santa Victoria	7	Julio	2023-07-26T00:00:00	2024-11-08T23:00:00	4	Temperatura máxima	14.4
121007	7	Sololá	701	Sololá	4	Finca Santa Victoria	7	Julio	2023-07-26T00:00:00	2024-11-08T23:00:00	3	Temperatura mínima	14.2
121008	7	Sololá	701	Sololá	4	Finca Santa Victoria	7	Julio	2023-07-26T00:00:00	2024-11-08T23:00:00	5	Humedad	83
121009	7	Sololá	701	Sololá	4	Finca Santa Victoria	7	Julio	2023-07-26T00:00:00	2024-11-08T23:00:00	6	Velocidad del viento	3.2
121010	7	Sololá	701	Sololá	4	Finca Santa Victoria	7	Julio	2023-07-26T00:00:00	2024-11-08T23:00:00	7	Dirección del viento	3.22
121011	7	Sololá	701	Sololá	4	Finca Santa Victoria	7	Julio	2023-07-26T00:00:00	2024-11-08T23:00:00	1	Precipitación	0
121012	7	Sololá	701	Sololá	4	Finca Santa Victoria	7	Julio	2023-07-26T00:00:00	2024-11-08T23:00:00	8	Radiación solar	0
121013	7	Sololá	701	Sololá	4	Finca Santa Victoria	7	Julio	2023-07-27T00:00:00	2024-11-08T00:00:00	2	Temperatura media	14.1
121014	7	Sololá	701	Sololá	4	Finca Santa Victoria	7	Julio	2023-07-27T00:00:00	2024-11-08T00:00:00	4	Temperatura máxima	14.3
121015	7	Sololá	701	Sololá	4	Finca Santa Victoria	7	Julio	2023-07-27T00:00:00	2024-11-08T00:00:00	3	Temperatura mínima	14.1
121016	7	Sololá	701	Sololá	4	Finca Santa Victoria	7	Julio	2023-07-27T00:00:00	2024-11-08T00:00:00	5	Humedad	86
121017	7	Sololá	701	Sololá	4	Finca Santa Victoria	7	Julio	2023-07-27T00:00:00	2024-11-08T00:00:00	6	Velocidad del viento	3.2
121018	7	Sololá	701	Sololá	4	Finca Santa Victoria	7	Julio	2023-07-27T00:00:00	2024-11-08T00:00:00	7	Dirección del viento	3.22
121019	7	Sololá	701	Sololá	4	Finca Santa Victoria	7	Julio	2023-07-27T00:00:00	2024-11-08T00:00:00	1	Precipitación	0
121020	7	Sololá	701	Sololá	4	Finca Santa Victoria	7	Julio	2023-07-27T00:00:00	2024-11-08T00:00:00	8	Radiación solar	0
121021	7	Sololá	701	Sololá	4	Finca Santa Victoria	7	Julio	2023-07-27T00:00:00	2024-11-08T01:00:00	2	Temperatura media	14.2
121022	7	Sololá	701	Sololá	4	Finca Santa Victoria	7	Julio	2023-07-27T00:00:00	2024-11-08T01:00:00	4	Temperatura máxima	14.2
121023	7	Sololá	701	Sololá	4	Finca Santa Victoria	7	Julio	2023-07-27T00:00:00	2024-11-08T01:00:00	3	Temperatura mínima	14
121024	7	Sololá	701	Sololá	4	Finca Santa Victoria	7	Julio	2023-07-27T00:00:00	2024-11-08T01:00:00	5	Humedad	84
121025	7	Sololá	701	Sololá	4	Finca Santa Victoria	7	Julio	2023-07-27T00:00:00	2024-11-08T01:00:00	6	Velocidad del viento	4.8
121026	7	Sololá	701	Sololá	4	Finca Santa Victoria	7	Julio	2023-07-27T00:00:00	2024-11-08T01:00:00	7	Dirección del viento	4.83
121027	7	Sololá	701	Sololá	4	Finca Santa Victoria	7	Julio	2023-07-27T00:00:00	2024-11-08T01:00:00	1	Precipitación	0
121028	7	Sololá	701	Sololá	4	Finca Santa Victoria	7	Julio	2023-07-27T00:00:00	2024-11-08T01:00:00	8	Radiación solar	0
121029	7	Sololá	701	Sololá	4	Finca Santa Victoria	7	Julio	2023-07-27T00:00:00	2024-11-08T02:00:00	2	Temperatura media	13.7
121030	7	Sololá	701	Sololá	4	Finca Santa Victoria	7	Julio	2023-07-27T00:00:00	2024-11-08T02:00:00	4	Temperatura máxima	14.2
121031	7	Sololá	701	Sololá	4	Finca Santa Victoria	7	Julio	2023-07-27T00:00:00	2024-11-08T02:00:00	3	Temperatura mínima	13.7
121032	7	Sololá	701	Sololá	4	Finca Santa Victoria	7	Julio	2023-07-27T00:00:00	2024-11-08T02:00:00	5	Humedad	85
121033	7	Sololá	701	Sololá	4	Finca Santa Victoria	7	Julio	2023-07-27T00:00:00	2024-11-08T02:00:00	6	Velocidad del viento	3.2
121034	7	Sololá	701	Sololá	4	Finca Santa Victoria	7	Julio	2023-07-27T00:00:00	2024-11-08T02:00:00	7	Dirección del viento	3.22
121035	7	Sololá	701	Sololá	4	Finca Santa Victoria	7	Julio	2023-07-27T00:00:00	2024-11-08T02:00:00	1	Precipitación	0
121036	7	Sololá	701	Sololá	4	Finca Santa Victoria	7	Julio	2023-07-27T00:00:00	2024-11-08T02:00:00	8	Radiación solar	0
121037	7	Sololá	701	Sololá	4	Finca Santa Victoria	7	Julio	2023-07-27T00:00:00	2024-11-08T03:00:00	2	Temperatura media	13.4
121038	7	Sololá	701	Sololá	4	Finca Santa Victoria	7	Julio	2023-07-27T00:00:00	2024-11-08T03:00:00	4	Temperatura máxima	13.7
121039	7	Sololá	701	Sololá	4	Finca Santa Victoria	7	Julio	2023-07-27T00:00:00	2024-11-08T03:00:00	3	Temperatura mínima	13.4
121040	7	Sololá	701	Sololá	4	Finca Santa Victoria	7	Julio	2023-07-27T00:00:00	2024-11-08T03:00:00	5	Humedad	84
121041	7	Sololá	701	Sololá	4	Finca Santa Victoria	7	Julio	2023-07-27T00:00:00	2024-11-08T03:00:00	6	Velocidad del viento	3.2
121042	7	Sololá	701	Sololá	4	Finca Santa Victoria	7	Julio	2023-07-27T00:00:00	2024-11-08T03:00:00	7	Dirección del viento	3.22
121043	7	Sololá	701	Sololá	4	Finca Santa Victoria	7	Julio	2023-07-27T00:00:00	2024-11-08T03:00:00	1	Precipitación	0
121044	7	Sololá	701	Sololá	4	Finca Santa Victoria	7	Julio	2023-07-27T00:00:00	2024-11-08T03:00:00	8	Radiación solar	0
121045	7	Sololá	701	Sololá	4	Finca Santa Victoria	7	Julio	2023-07-27T00:00:00	2024-11-08T04:00:00	2	Temperatura media	13.1
121046	7	Sololá	701	Sololá	4	Finca Santa Victoria	7	Julio	2023-07-27T00:00:00	2024-11-08T04:00:00	4	Temperatura máxima	13.5
121047	7	Sololá	701	Sololá	4	Finca Santa Victoria	7	Julio	2023-07-27T00:00:00	2024-11-08T04:00:00	3	Temperatura mínima	13
121048	7	Sololá	701	Sololá	4	Finca Santa Victoria	7	Julio	2023-07-27T00:00:00	2024-11-08T04:00:00	5	Humedad	85
121049	7	Sololá	701	Sololá	4	Finca Santa Victoria	7	Julio	2023-07-27T00:00:00	2024-11-08T04:00:00	6	Velocidad del viento	3.2
121050	7	Sololá	701	Sololá	4	Finca Santa Victoria	7	Julio	2023-07-27T00:00:00	2024-11-08T04:00:00	7	Dirección del viento	3.22
121051	7	Sololá	701	Sololá	4	Finca Santa Victoria	7	Julio	2023-07-27T00:00:00	2024-11-08T04:00:00	1	Precipitación	0
121052	7	Sololá	701	Sololá	4	Finca Santa Victoria	7	Julio	2023-07-27T00:00:00	2024-11-08T04:00:00	8	Radiación solar	0
121053	7	Sololá	701	Sololá	4	Finca Santa Victoria	7	Julio	2023-07-27T00:00:00	2024-11-08T05:00:00	2	Temperatura media	12.9
121054	7	Sololá	701	Sololá	4	Finca Santa Victoria	7	Julio	2023-07-27T00:00:00	2024-11-08T05:00:00	4	Temperatura máxima	13.1
121055	7	Sololá	701	Sololá	4	Finca Santa Victoria	7	Julio	2023-07-27T00:00:00	2024-11-08T05:00:00	3	Temperatura mínima	12.8
121056	7	Sololá	701	Sololá	4	Finca Santa Victoria	7	Julio	2023-07-27T00:00:00	2024-11-08T05:00:00	5	Humedad	84
121057	7	Sololá	701	Sololá	4	Finca Santa Victoria	7	Julio	2023-07-27T00:00:00	2024-11-08T05:00:00	6	Velocidad del viento	1.6
121058	7	Sololá	701	Sololá	4	Finca Santa Victoria	7	Julio	2023-07-27T00:00:00	2024-11-08T05:00:00	7	Dirección del viento	1.61
121059	7	Sololá	701	Sololá	4	Finca Santa Victoria	7	Julio	2023-07-27T00:00:00	2024-11-08T05:00:00	1	Precipitación	0
121060	7	Sololá	701	Sololá	4	Finca Santa Victoria	7	Julio	2023-07-27T00:00:00	2024-11-08T05:00:00	8	Radiación solar	0
121061	7	Sololá	701	Sololá	4	Finca Santa Victoria	7	Julio	2023-07-27T00:00:00	2024-11-08T06:00:00	2	Temperatura media	12.8
121062	7	Sololá	701	Sololá	4	Finca Santa Victoria	7	Julio	2023-07-27T00:00:00	2024-11-08T06:00:00	4	Temperatura máxima	12.9
121063	7	Sololá	701	Sololá	4	Finca Santa Victoria	7	Julio	2023-07-27T00:00:00	2024-11-08T06:00:00	3	Temperatura mínima	12.8
121064	7	Sololá	701	Sololá	4	Finca Santa Victoria	7	Julio	2023-07-27T00:00:00	2024-11-08T06:00:00	5	Humedad	85
121065	7	Sololá	701	Sololá	4	Finca Santa Victoria	7	Julio	2023-07-27T00:00:00	2024-11-08T06:00:00	6	Velocidad del viento	4.8
121066	7	Sololá	701	Sololá	4	Finca Santa Victoria	7	Julio	2023-07-27T00:00:00	2024-11-08T06:00:00	7	Dirección del viento	4.83
121067	7	Sololá	701	Sololá	4	Finca Santa Victoria	7	Julio	2023-07-27T00:00:00	2024-11-08T06:00:00	1	Precipitación	0
121068	7	Sololá	701	Sololá	4	Finca Santa Victoria	7	Julio	2023-07-27T00:00:00	2024-11-08T06:00:00	8	Radiación solar	0
121069	7	Sololá	701	Sololá	4	Finca Santa Victoria	7	Julio	2023-07-27T00:00:00	2024-11-08T07:00:00	2	Temperatura media	13.3
121070	7	Sololá	701	Sololá	4	Finca Santa Victoria	7	Julio	2023-07-27T00:00:00	2024-11-08T07:00:00	4	Temperatura máxima	13.3
121071	7	Sololá	701	Sololá	4	Finca Santa Victoria	7	Julio	2023-07-27T00:00:00	2024-11-08T07:00:00	3	Temperatura mínima	12.7
121072	7	Sololá	701	Sololá	4	Finca Santa Victoria	7	Julio	2023-07-27T00:00:00	2024-11-08T07:00:00	5	Humedad	86
121073	7	Sololá	701	Sololá	4	Finca Santa Victoria	7	Julio	2023-07-27T00:00:00	2024-11-08T07:00:00	6	Velocidad del viento	3.2
121074	7	Sololá	701	Sololá	4	Finca Santa Victoria	7	Julio	2023-07-27T00:00:00	2024-11-08T07:00:00	7	Dirección del viento	3.22
121075	7	Sololá	701	Sololá	4	Finca Santa Victoria	7	Julio	2023-07-27T00:00:00	2024-11-08T07:00:00	1	Precipitación	0
121076	7	Sololá	701	Sololá	4	Finca Santa Victoria	7	Julio	2023-07-27T00:00:00	2024-11-08T07:00:00	8	Radiación solar	18
121077	7	Sololá	701	Sololá	4	Finca Santa Victoria	7	Julio	2023-07-27T00:00:00	2024-11-08T08:00:00	2	Temperatura media	16.4
121078	7	Sololá	701	Sololá	4	Finca Santa Victoria	7	Julio	2023-07-27T00:00:00	2024-11-08T08:00:00	4	Temperatura máxima	16.4
121079	7	Sololá	701	Sololá	4	Finca Santa Victoria	7	Julio	2023-07-27T00:00:00	2024-11-08T08:00:00	3	Temperatura mínima	13.3
121080	7	Sololá	701	Sololá	4	Finca Santa Victoria	7	Julio	2023-07-27T00:00:00	2024-11-08T08:00:00	5	Humedad	77
121081	7	Sololá	701	Sololá	4	Finca Santa Victoria	7	Julio	2023-07-27T00:00:00	2024-11-08T08:00:00	6	Velocidad del viento	3.2
121082	7	Sololá	701	Sololá	4	Finca Santa Victoria	7	Julio	2023-07-27T00:00:00	2024-11-08T08:00:00	7	Dirección del viento	3.22
121083	7	Sololá	701	Sololá	4	Finca Santa Victoria	7	Julio	2023-07-27T00:00:00	2024-11-08T08:00:00	1	Precipitación	0
121084	7	Sololá	701	Sololá	4	Finca Santa Victoria	7	Julio	2023-07-27T00:00:00	2024-11-08T08:00:00	8	Radiación solar	218
121085	7	Sololá	701	Sololá	4	Finca Santa Victoria	7	Julio	2023-07-27T00:00:00	2024-11-08T09:00:00	2	Temperatura media	17.7
121086	7	Sololá	701	Sololá	4	Finca Santa Victoria	7	Julio	2023-07-27T00:00:00	2024-11-08T09:00:00	4	Temperatura máxima	17.7
121087	7	Sololá	701	Sololá	4	Finca Santa Victoria	7	Julio	2023-07-27T00:00:00	2024-11-08T09:00:00	3	Temperatura mínima	16.4
121088	7	Sololá	701	Sololá	4	Finca Santa Victoria	7	Julio	2023-07-27T00:00:00	2024-11-08T09:00:00	5	Humedad	73
121089	7	Sololá	701	Sololá	4	Finca Santa Victoria	7	Julio	2023-07-27T00:00:00	2024-11-08T09:00:00	6	Velocidad del viento	3.2
121090	7	Sololá	701	Sololá	4	Finca Santa Victoria	7	Julio	2023-07-27T00:00:00	2024-11-08T09:00:00	7	Dirección del viento	3.22
121091	7	Sololá	701	Sololá	4	Finca Santa Victoria	7	Julio	2023-07-27T00:00:00	2024-11-08T09:00:00	1	Precipitación	0
121092	7	Sololá	701	Sololá	4	Finca Santa Victoria	7	Julio	2023-07-27T00:00:00	2024-11-08T09:00:00	8	Radiación solar	293
121093	7	Sololá	701	Sololá	4	Finca Santa Victoria	7	Julio	2023-07-27T00:00:00	2024-11-08T10:00:00	2	Temperatura media	18.9
121094	7	Sololá	701	Sololá	4	Finca Santa Victoria	7	Julio	2023-07-27T00:00:00	2024-11-08T10:00:00	4	Temperatura máxima	18.9
121095	7	Sololá	701	Sololá	4	Finca Santa Victoria	7	Julio	2023-07-27T00:00:00	2024-11-08T10:00:00	3	Temperatura mínima	17.7
121096	7	Sololá	701	Sololá	4	Finca Santa Victoria	7	Julio	2023-07-27T00:00:00	2024-11-08T10:00:00	5	Humedad	71
121097	7	Sololá	701	Sololá	4	Finca Santa Victoria	7	Julio	2023-07-27T00:00:00	2024-11-08T10:00:00	6	Velocidad del viento	4.8
121098	7	Sololá	701	Sololá	4	Finca Santa Victoria	7	Julio	2023-07-27T00:00:00	2024-11-08T10:00:00	7	Dirección del viento	4.83
121099	7	Sololá	701	Sololá	4	Finca Santa Victoria	7	Julio	2023-07-27T00:00:00	2024-11-08T10:00:00	1	Precipitación	0
121100	7	Sololá	701	Sololá	4	Finca Santa Victoria	7	Julio	2023-07-27T00:00:00	2024-11-08T10:00:00	8	Radiación solar	211
121101	7	Sololá	701	Sololá	4	Finca Santa Victoria	7	Julio	2023-07-27T00:00:00	2024-11-08T11:00:00	2	Temperatura media	20.3
121102	7	Sololá	701	Sololá	4	Finca Santa Victoria	7	Julio	2023-07-27T00:00:00	2024-11-08T11:00:00	4	Temperatura máxima	20.4
121103	7	Sololá	701	Sololá	4	Finca Santa Victoria	7	Julio	2023-07-27T00:00:00	2024-11-08T11:00:00	3	Temperatura mínima	18.8
121104	7	Sololá	701	Sololá	4	Finca Santa Victoria	7	Julio	2023-07-27T00:00:00	2024-11-08T11:00:00	5	Humedad	70
121105	7	Sololá	701	Sololá	4	Finca Santa Victoria	7	Julio	2023-07-27T00:00:00	2024-11-08T11:00:00	6	Velocidad del viento	3.2
121106	7	Sololá	701	Sololá	4	Finca Santa Victoria	7	Julio	2023-07-27T00:00:00	2024-11-08T11:00:00	7	Dirección del viento	3.22
121107	7	Sololá	701	Sololá	4	Finca Santa Victoria	7	Julio	2023-07-27T00:00:00	2024-11-08T11:00:00	1	Precipitación	0
121108	7	Sololá	701	Sololá	4	Finca Santa Victoria	7	Julio	2023-07-27T00:00:00	2024-11-08T11:00:00	8	Radiación solar	164
121109	7	Sololá	701	Sololá	4	Finca Santa Victoria	7	Julio	2023-07-27T00:00:00	2024-11-08T12:00:00	2	Temperatura media	21
121110	7	Sololá	701	Sololá	4	Finca Santa Victoria	7	Julio	2023-07-27T00:00:00	2024-11-08T12:00:00	4	Temperatura máxima	21.1
121111	7	Sololá	701	Sololá	4	Finca Santa Victoria	7	Julio	2023-07-27T00:00:00	2024-11-08T12:00:00	3	Temperatura mínima	19.9
121112	7	Sololá	701	Sololá	4	Finca Santa Victoria	7	Julio	2023-07-27T00:00:00	2024-11-08T12:00:00	5	Humedad	66
121113	7	Sololá	701	Sololá	4	Finca Santa Victoria	7	Julio	2023-07-27T00:00:00	2024-11-08T12:00:00	6	Velocidad del viento	4.8
121114	7	Sololá	701	Sololá	4	Finca Santa Victoria	7	Julio	2023-07-27T00:00:00	2024-11-08T12:00:00	7	Dirección del viento	4.83
121115	7	Sololá	701	Sololá	4	Finca Santa Victoria	7	Julio	2023-07-27T00:00:00	2024-11-08T12:00:00	1	Precipitación	0
121116	7	Sololá	701	Sololá	4	Finca Santa Victoria	7	Julio	2023-07-27T00:00:00	2024-11-08T12:00:00	8	Radiación solar	1041
121117	7	Sololá	701	Sololá	4	Finca Santa Victoria	7	Julio	2023-07-27T00:00:00	2024-11-08T13:00:00	2	Temperatura media	21.8
121118	7	Sololá	701	Sololá	4	Finca Santa Victoria	7	Julio	2023-07-27T00:00:00	2024-11-08T13:00:00	4	Temperatura máxima	21.8
121119	7	Sololá	701	Sololá	4	Finca Santa Victoria	7	Julio	2023-07-27T00:00:00	2024-11-08T13:00:00	3	Temperatura mínima	21
121120	7	Sololá	701	Sololá	4	Finca Santa Victoria	7	Julio	2023-07-27T00:00:00	2024-11-08T13:00:00	5	Humedad	63
121121	7	Sololá	701	Sololá	4	Finca Santa Victoria	7	Julio	2023-07-27T00:00:00	2024-11-08T13:00:00	6	Velocidad del viento	3.2
121122	7	Sololá	701	Sololá	4	Finca Santa Victoria	7	Julio	2023-07-27T00:00:00	2024-11-08T13:00:00	7	Dirección del viento	3.22
121123	7	Sololá	701	Sololá	4	Finca Santa Victoria	7	Julio	2023-07-27T00:00:00	2024-11-08T13:00:00	1	Precipitación	0
121124	7	Sololá	701	Sololá	4	Finca Santa Victoria	7	Julio	2023-07-27T00:00:00	2024-11-08T13:00:00	8	Radiación solar	1036
121125	7	Sololá	701	Sololá	4	Finca Santa Victoria	7	Julio	2023-07-27T00:00:00	2024-11-08T14:00:00	2	Temperatura media	21.4
121126	7	Sololá	701	Sololá	4	Finca Santa Victoria	7	Julio	2023-07-27T00:00:00	2024-11-08T14:00:00	4	Temperatura máxima	22.3
121127	7	Sololá	701	Sololá	4	Finca Santa Victoria	7	Julio	2023-07-27T00:00:00	2024-11-08T14:00:00	3	Temperatura mínima	21.1
121128	7	Sololá	701	Sololá	4	Finca Santa Victoria	7	Julio	2023-07-27T00:00:00	2024-11-08T14:00:00	5	Humedad	62
121129	7	Sololá	701	Sololá	4	Finca Santa Victoria	7	Julio	2023-07-27T00:00:00	2024-11-08T14:00:00	6	Velocidad del viento	3.2
121130	7	Sololá	701	Sololá	4	Finca Santa Victoria	7	Julio	2023-07-27T00:00:00	2024-11-08T14:00:00	7	Dirección del viento	3.22
121131	7	Sololá	701	Sololá	4	Finca Santa Victoria	7	Julio	2023-07-27T00:00:00	2024-11-08T14:00:00	1	Precipitación	0
121132	7	Sololá	701	Sololá	4	Finca Santa Victoria	7	Julio	2023-07-27T00:00:00	2024-11-08T14:00:00	8	Radiación solar	455
121133	7	Sololá	701	Sololá	4	Finca Santa Victoria	7	Julio	2023-07-27T00:00:00	2024-11-08T15:00:00	2	Temperatura media	21.9
121134	7	Sololá	701	Sololá	4	Finca Santa Victoria	7	Julio	2023-07-27T00:00:00	2024-11-08T15:00:00	4	Temperatura máxima	22
121135	7	Sololá	701	Sololá	4	Finca Santa Victoria	7	Julio	2023-07-27T00:00:00	2024-11-08T15:00:00	3	Temperatura mínima	21.3
121136	7	Sololá	701	Sololá	4	Finca Santa Victoria	7	Julio	2023-07-27T00:00:00	2024-11-08T15:00:00	5	Humedad	59
121137	7	Sololá	701	Sololá	4	Finca Santa Victoria	7	Julio	2023-07-27T00:00:00	2024-11-08T15:00:00	6	Velocidad del viento	3.2
121138	7	Sololá	701	Sololá	4	Finca Santa Victoria	7	Julio	2023-07-27T00:00:00	2024-11-08T15:00:00	7	Dirección del viento	3.22
121139	7	Sololá	701	Sololá	4	Finca Santa Victoria	7	Julio	2023-07-27T00:00:00	2024-11-08T15:00:00	1	Precipitación	0
121140	7	Sololá	701	Sololá	4	Finca Santa Victoria	7	Julio	2023-07-27T00:00:00	2024-11-08T15:00:00	8	Radiación solar	243
121141	7	Sololá	701	Sololá	4	Finca Santa Victoria	7	Julio	2023-07-27T00:00:00	2024-11-08T16:00:00	2	Temperatura media	21.4
121142	7	Sololá	701	Sololá	4	Finca Santa Victoria	7	Julio	2023-07-27T00:00:00	2024-11-08T16:00:00	4	Temperatura máxima	22.6
121143	7	Sololá	701	Sololá	4	Finca Santa Victoria	7	Julio	2023-07-27T00:00:00	2024-11-08T16:00:00	3	Temperatura mínima	21.4
121144	7	Sololá	701	Sololá	4	Finca Santa Victoria	7	Julio	2023-07-27T00:00:00	2024-11-08T16:00:00	5	Humedad	61
121145	7	Sololá	701	Sololá	4	Finca Santa Victoria	7	Julio	2023-07-27T00:00:00	2024-11-08T16:00:00	6	Velocidad del viento	3.2
121146	7	Sololá	701	Sololá	4	Finca Santa Victoria	7	Julio	2023-07-27T00:00:00	2024-11-08T16:00:00	7	Dirección del viento	3.22
121147	7	Sololá	701	Sololá	4	Finca Santa Victoria	7	Julio	2023-07-27T00:00:00	2024-11-08T16:00:00	1	Precipitación	0
121148	7	Sololá	701	Sololá	4	Finca Santa Victoria	7	Julio	2023-07-27T00:00:00	2024-11-08T16:00:00	8	Radiación solar	165
121149	7	Sololá	701	Sololá	4	Finca Santa Victoria	7	Julio	2023-07-27T00:00:00	2024-11-08T17:00:00	2	Temperatura media	20.4
121150	7	Sololá	701	Sololá	4	Finca Santa Victoria	7	Julio	2023-07-27T00:00:00	2024-11-08T17:00:00	4	Temperatura máxima	21.6
121151	7	Sololá	701	Sololá	4	Finca Santa Victoria	7	Julio	2023-07-27T00:00:00	2024-11-08T17:00:00	3	Temperatura mínima	20.4
121152	7	Sololá	701	Sololá	4	Finca Santa Victoria	7	Julio	2023-07-27T00:00:00	2024-11-08T17:00:00	5	Humedad	63
121153	7	Sololá	701	Sololá	4	Finca Santa Victoria	7	Julio	2023-07-27T00:00:00	2024-11-08T17:00:00	6	Velocidad del viento	3.2
121154	7	Sololá	701	Sololá	4	Finca Santa Victoria	7	Julio	2023-07-27T00:00:00	2024-11-08T17:00:00	7	Dirección del viento	3.22
121155	7	Sololá	701	Sololá	4	Finca Santa Victoria	7	Julio	2023-07-27T00:00:00	2024-11-08T17:00:00	1	Precipitación	0
121156	7	Sololá	701	Sololá	4	Finca Santa Victoria	7	Julio	2023-07-27T00:00:00	2024-11-08T17:00:00	8	Radiación solar	165
121157	7	Sololá	701	Sololá	4	Finca Santa Victoria	7	Julio	2023-07-27T00:00:00	2024-11-08T18:00:00	2	Temperatura media	18.4
121158	7	Sololá	701	Sololá	4	Finca Santa Victoria	7	Julio	2023-07-27T00:00:00	2024-11-08T18:00:00	4	Temperatura máxima	20.4
121159	7	Sololá	701	Sololá	4	Finca Santa Victoria	7	Julio	2023-07-27T00:00:00	2024-11-08T18:00:00	3	Temperatura mínima	18.4
121160	7	Sololá	701	Sololá	4	Finca Santa Victoria	7	Julio	2023-07-27T00:00:00	2024-11-08T18:00:00	5	Humedad	70
121161	7	Sololá	701	Sololá	4	Finca Santa Victoria	7	Julio	2023-07-27T00:00:00	2024-11-08T18:00:00	6	Velocidad del viento	3.2
121162	7	Sololá	701	Sololá	4	Finca Santa Victoria	7	Julio	2023-07-27T00:00:00	2024-11-08T18:00:00	7	Dirección del viento	3.22
121163	7	Sololá	701	Sololá	4	Finca Santa Victoria	7	Julio	2023-07-27T00:00:00	2024-11-08T18:00:00	1	Precipitación	0
121164	7	Sololá	701	Sololá	4	Finca Santa Victoria	7	Julio	2023-07-27T00:00:00	2024-11-08T18:00:00	8	Radiación solar	61
121165	7	Sololá	701	Sololá	4	Finca Santa Victoria	7	Julio	2023-07-27T00:00:00	2024-11-08T19:00:00	2	Temperatura media	16.9
121166	7	Sololá	701	Sololá	4	Finca Santa Victoria	7	Julio	2023-07-27T00:00:00	2024-11-08T19:00:00	4	Temperatura máxima	18.4
121167	7	Sololá	701	Sololá	4	Finca Santa Victoria	7	Julio	2023-07-27T00:00:00	2024-11-08T19:00:00	3	Temperatura mínima	16.9
121168	7	Sololá	701	Sololá	4	Finca Santa Victoria	7	Julio	2023-07-27T00:00:00	2024-11-08T19:00:00	5	Humedad	77
121169	7	Sololá	701	Sololá	4	Finca Santa Victoria	7	Julio	2023-07-27T00:00:00	2024-11-08T19:00:00	6	Velocidad del viento	1.6
121170	7	Sololá	701	Sololá	4	Finca Santa Victoria	7	Julio	2023-07-27T00:00:00	2024-11-08T19:00:00	7	Dirección del viento	1.61
121171	7	Sololá	701	Sololá	4	Finca Santa Victoria	7	Julio	2023-07-27T00:00:00	2024-11-08T19:00:00	1	Precipitación	0
121172	7	Sololá	701	Sololá	4	Finca Santa Victoria	7	Julio	2023-07-27T00:00:00	2024-11-08T19:00:00	8	Radiación solar	0
121173	7	Sololá	701	Sololá	4	Finca Santa Victoria	7	Julio	2023-07-27T00:00:00	2024-11-08T20:00:00	2	Temperatura media	16.2
121174	7	Sololá	701	Sololá	4	Finca Santa Victoria	7	Julio	2023-07-27T00:00:00	2024-11-08T20:00:00	4	Temperatura máxima	16.9
121175	7	Sololá	701	Sololá	4	Finca Santa Victoria	7	Julio	2023-07-27T00:00:00	2024-11-08T20:00:00	3	Temperatura mínima	16.2
121176	7	Sololá	701	Sololá	4	Finca Santa Victoria	7	Julio	2023-07-27T00:00:00	2024-11-08T20:00:00	5	Humedad	81
121177	7	Sololá	701	Sololá	4	Finca Santa Victoria	7	Julio	2023-07-27T00:00:00	2024-11-08T20:00:00	6	Velocidad del viento	1.6
121178	7	Sololá	701	Sololá	4	Finca Santa Victoria	7	Julio	2023-07-27T00:00:00	2024-11-08T20:00:00	7	Dirección del viento	1.61
121179	7	Sololá	701	Sololá	4	Finca Santa Victoria	7	Julio	2023-07-27T00:00:00	2024-11-08T20:00:00	1	Precipitación	0
121180	7	Sololá	701	Sololá	4	Finca Santa Victoria	7	Julio	2023-07-27T00:00:00	2024-11-08T20:00:00	8	Radiación solar	0
121181	7	Sololá	701	Sololá	4	Finca Santa Victoria	7	Julio	2023-07-27T00:00:00	2024-11-08T21:00:00	2	Temperatura media	15.8
121182	7	Sololá	701	Sololá	4	Finca Santa Victoria	7	Julio	2023-07-27T00:00:00	2024-11-08T21:00:00	4	Temperatura máxima	16.2
121183	7	Sololá	701	Sololá	4	Finca Santa Victoria	7	Julio	2023-07-27T00:00:00	2024-11-08T21:00:00	3	Temperatura mínima	15.7
121184	7	Sololá	701	Sololá	4	Finca Santa Victoria	7	Julio	2023-07-27T00:00:00	2024-11-08T21:00:00	5	Humedad	82
121185	7	Sololá	701	Sololá	4	Finca Santa Victoria	7	Julio	2023-07-27T00:00:00	2024-11-08T21:00:00	6	Velocidad del viento	3.2
121186	7	Sololá	701	Sololá	4	Finca Santa Victoria	7	Julio	2023-07-27T00:00:00	2024-11-08T21:00:00	7	Dirección del viento	3.22
121187	7	Sololá	701	Sololá	4	Finca Santa Victoria	7	Julio	2023-07-27T00:00:00	2024-11-08T21:00:00	1	Precipitación	0
121188	7	Sololá	701	Sololá	4	Finca Santa Victoria	7	Julio	2023-07-27T00:00:00	2024-11-08T21:00:00	8	Radiación solar	0
121189	7	Sololá	701	Sololá	4	Finca Santa Victoria	7	Julio	2023-07-27T00:00:00	2024-11-08T22:00:00	2	Temperatura media	15.3
121190	7	Sololá	701	Sololá	4	Finca Santa Victoria	7	Julio	2023-07-27T00:00:00	2024-11-08T22:00:00	4	Temperatura máxima	15.8
121191	7	Sololá	701	Sololá	4	Finca Santa Victoria	7	Julio	2023-07-27T00:00:00	2024-11-08T22:00:00	3	Temperatura mínima	15.3
121192	7	Sololá	701	Sololá	4	Finca Santa Victoria	7	Julio	2023-07-27T00:00:00	2024-11-08T22:00:00	5	Humedad	81
121193	7	Sololá	701	Sololá	4	Finca Santa Victoria	7	Julio	2023-07-27T00:00:00	2024-11-08T22:00:00	6	Velocidad del viento	3.2
121194	7	Sololá	701	Sololá	4	Finca Santa Victoria	7	Julio	2023-07-27T00:00:00	2024-11-08T22:00:00	7	Dirección del viento	3.22
121195	7	Sololá	701	Sololá	4	Finca Santa Victoria	7	Julio	2023-07-27T00:00:00	2024-11-08T22:00:00	1	Precipitación	0
121196	7	Sololá	701	Sololá	4	Finca Santa Victoria	7	Julio	2023-07-27T00:00:00	2024-11-08T22:00:00	8	Radiación solar	0
121197	7	Sololá	701	Sololá	4	Finca Santa Victoria	7	Julio	2023-07-27T00:00:00	2024-11-08T23:00:00	2	Temperatura media	14.9
121198	7	Sololá	701	Sololá	4	Finca Santa Victoria	7	Julio	2023-07-27T00:00:00	2024-11-08T23:00:00	4	Temperatura máxima	15.3
121199	7	Sololá	701	Sololá	4	Finca Santa Victoria	7	Julio	2023-07-27T00:00:00	2024-11-08T23:00:00	3	Temperatura mínima	14.7
121200	7	Sololá	701	Sololá	4	Finca Santa Victoria	7	Julio	2023-07-27T00:00:00	2024-11-08T23:00:00	5	Humedad	80
121201	7	Sololá	701	Sololá	4	Finca Santa Victoria	7	Julio	2023-07-27T00:00:00	2024-11-08T23:00:00	6	Velocidad del viento	3.2
121202	7	Sololá	701	Sololá	4	Finca Santa Victoria	7	Julio	2023-07-27T00:00:00	2024-11-08T23:00:00	7	Dirección del viento	3.22
121203	7	Sololá	701	Sololá	4	Finca Santa Victoria	7	Julio	2023-07-27T00:00:00	2024-11-08T23:00:00	1	Precipitación	0
121204	7	Sololá	701	Sololá	4	Finca Santa Victoria	7	Julio	2023-07-27T00:00:00	2024-11-08T23:00:00	8	Radiación solar	0
121205	7	Sololá	701	Sololá	4	Finca Santa Victoria	7	Julio	2023-07-28T00:00:00	2024-11-08T00:00:00	2	Temperatura media	14.7
121206	7	Sololá	701	Sololá	4	Finca Santa Victoria	7	Julio	2023-07-28T00:00:00	2024-11-08T00:00:00	4	Temperatura máxima	14.9
121207	7	Sololá	701	Sololá	4	Finca Santa Victoria	7	Julio	2023-07-28T00:00:00	2024-11-08T00:00:00	3	Temperatura mínima	14.6
121208	7	Sololá	701	Sololá	4	Finca Santa Victoria	7	Julio	2023-07-28T00:00:00	2024-11-08T00:00:00	5	Humedad	81
121209	7	Sololá	701	Sololá	4	Finca Santa Victoria	7	Julio	2023-07-28T00:00:00	2024-11-08T00:00:00	6	Velocidad del viento	1.6
121210	7	Sololá	701	Sololá	4	Finca Santa Victoria	7	Julio	2023-07-28T00:00:00	2024-11-08T00:00:00	7	Dirección del viento	1.61
121211	7	Sololá	701	Sololá	4	Finca Santa Victoria	7	Julio	2023-07-28T00:00:00	2024-11-08T00:00:00	1	Precipitación	0
121212	7	Sololá	701	Sololá	4	Finca Santa Victoria	7	Julio	2023-07-28T00:00:00	2024-11-08T00:00:00	8	Radiación solar	0
121213	7	Sololá	701	Sololá	4	Finca Santa Victoria	7	Julio	2023-07-28T00:00:00	2024-11-08T01:00:00	2	Temperatura media	14.2
121214	7	Sololá	701	Sololá	4	Finca Santa Victoria	7	Julio	2023-07-28T00:00:00	2024-11-08T01:00:00	4	Temperatura máxima	14.7
121215	7	Sololá	701	Sololá	4	Finca Santa Victoria	7	Julio	2023-07-28T00:00:00	2024-11-08T01:00:00	3	Temperatura mínima	14.2
121216	7	Sololá	701	Sololá	4	Finca Santa Victoria	7	Julio	2023-07-28T00:00:00	2024-11-08T01:00:00	5	Humedad	85
121217	7	Sololá	701	Sololá	4	Finca Santa Victoria	7	Julio	2023-07-28T00:00:00	2024-11-08T01:00:00	6	Velocidad del viento	3.2
121218	7	Sololá	701	Sololá	4	Finca Santa Victoria	7	Julio	2023-07-28T00:00:00	2024-11-08T01:00:00	7	Dirección del viento	3.22
121219	7	Sololá	701	Sololá	4	Finca Santa Victoria	7	Julio	2023-07-28T00:00:00	2024-11-08T01:00:00	1	Precipitación	0
121220	7	Sololá	701	Sololá	4	Finca Santa Victoria	7	Julio	2023-07-28T00:00:00	2024-11-08T01:00:00	8	Radiación solar	0
121221	7	Sololá	701	Sololá	4	Finca Santa Victoria	7	Julio	2023-07-28T00:00:00	2024-11-08T02:00:00	2	Temperatura media	13.8
121222	7	Sololá	701	Sololá	4	Finca Santa Victoria	7	Julio	2023-07-28T00:00:00	2024-11-08T02:00:00	4	Temperatura máxima	14.2
121223	7	Sololá	701	Sololá	4	Finca Santa Victoria	7	Julio	2023-07-28T00:00:00	2024-11-08T02:00:00	3	Temperatura mínima	13.8
121224	7	Sololá	701	Sololá	4	Finca Santa Victoria	7	Julio	2023-07-28T00:00:00	2024-11-08T02:00:00	5	Humedad	87
121225	7	Sololá	701	Sololá	4	Finca Santa Victoria	7	Julio	2023-07-28T00:00:00	2024-11-08T02:00:00	6	Velocidad del viento	3.2
121226	7	Sololá	701	Sololá	4	Finca Santa Victoria	7	Julio	2023-07-28T00:00:00	2024-11-08T02:00:00	7	Dirección del viento	3.22
121227	7	Sololá	701	Sololá	4	Finca Santa Victoria	7	Julio	2023-07-28T00:00:00	2024-11-08T02:00:00	1	Precipitación	0
121228	7	Sololá	701	Sololá	4	Finca Santa Victoria	7	Julio	2023-07-28T00:00:00	2024-11-08T02:00:00	8	Radiación solar	0
121229	7	Sololá	701	Sololá	4	Finca Santa Victoria	7	Julio	2023-07-28T00:00:00	2024-11-08T03:00:00	2	Temperatura media	13.9
121230	7	Sololá	701	Sololá	4	Finca Santa Victoria	7	Julio	2023-07-28T00:00:00	2024-11-08T03:00:00	4	Temperatura máxima	14.1
121231	7	Sololá	701	Sololá	4	Finca Santa Victoria	7	Julio	2023-07-28T00:00:00	2024-11-08T03:00:00	3	Temperatura mínima	13.8
121232	7	Sololá	701	Sololá	4	Finca Santa Victoria	7	Julio	2023-07-28T00:00:00	2024-11-08T03:00:00	5	Humedad	86
121233	7	Sololá	701	Sololá	4	Finca Santa Victoria	7	Julio	2023-07-28T00:00:00	2024-11-08T03:00:00	6	Velocidad del viento	3.2
121234	7	Sololá	701	Sololá	4	Finca Santa Victoria	7	Julio	2023-07-28T00:00:00	2024-11-08T03:00:00	7	Dirección del viento	3.22
121235	7	Sololá	701	Sololá	4	Finca Santa Victoria	7	Julio	2023-07-28T00:00:00	2024-11-08T03:00:00	1	Precipitación	0
121236	7	Sololá	701	Sololá	4	Finca Santa Victoria	7	Julio	2023-07-28T00:00:00	2024-11-08T03:00:00	8	Radiación solar	0
121237	7	Sololá	701	Sololá	4	Finca Santa Victoria	7	Julio	2023-07-28T00:00:00	2024-11-08T04:00:00	2	Temperatura media	14.3
121238	7	Sololá	701	Sololá	4	Finca Santa Victoria	7	Julio	2023-07-28T00:00:00	2024-11-08T04:00:00	4	Temperatura máxima	14.7
121239	7	Sololá	701	Sololá	4	Finca Santa Victoria	7	Julio	2023-07-28T00:00:00	2024-11-08T04:00:00	3	Temperatura mínima	13.9
121240	7	Sololá	701	Sololá	4	Finca Santa Victoria	7	Julio	2023-07-28T00:00:00	2024-11-08T04:00:00	5	Humedad	83
121241	7	Sololá	701	Sololá	4	Finca Santa Victoria	7	Julio	2023-07-28T00:00:00	2024-11-08T04:00:00	6	Velocidad del viento	3.2
121242	7	Sololá	701	Sololá	4	Finca Santa Victoria	7	Julio	2023-07-28T00:00:00	2024-11-08T04:00:00	7	Dirección del viento	3.22
121243	7	Sololá	701	Sololá	4	Finca Santa Victoria	7	Julio	2023-07-28T00:00:00	2024-11-08T04:00:00	1	Precipitación	0
121244	7	Sololá	701	Sololá	4	Finca Santa Victoria	7	Julio	2023-07-28T00:00:00	2024-11-08T04:00:00	8	Radiación solar	0
121245	7	Sololá	701	Sololá	4	Finca Santa Victoria	7	Julio	2023-07-28T00:00:00	2024-11-08T05:00:00	2	Temperatura media	14.2
121246	7	Sololá	701	Sololá	4	Finca Santa Victoria	7	Julio	2023-07-28T00:00:00	2024-11-08T05:00:00	4	Temperatura máxima	14.4
121247	7	Sololá	701	Sololá	4	Finca Santa Victoria	7	Julio	2023-07-28T00:00:00	2024-11-08T05:00:00	3	Temperatura mínima	14.2
121248	7	Sololá	701	Sololá	4	Finca Santa Victoria	7	Julio	2023-07-28T00:00:00	2024-11-08T05:00:00	5	Humedad	83
121249	7	Sololá	701	Sololá	4	Finca Santa Victoria	7	Julio	2023-07-28T00:00:00	2024-11-08T05:00:00	6	Velocidad del viento	3.2
121250	7	Sololá	701	Sololá	4	Finca Santa Victoria	7	Julio	2023-07-28T00:00:00	2024-11-08T05:00:00	7	Dirección del viento	3.22
121251	7	Sololá	701	Sololá	4	Finca Santa Victoria	7	Julio	2023-07-28T00:00:00	2024-11-08T05:00:00	1	Precipitación	0
121252	7	Sololá	701	Sololá	4	Finca Santa Victoria	7	Julio	2023-07-28T00:00:00	2024-11-08T05:00:00	8	Radiación solar	0
121253	7	Sololá	701	Sololá	4	Finca Santa Victoria	7	Julio	2023-07-28T00:00:00	2024-11-08T06:00:00	2	Temperatura media	14.4
121254	7	Sololá	701	Sololá	4	Finca Santa Victoria	7	Julio	2023-07-28T00:00:00	2024-11-08T06:00:00	4	Temperatura máxima	14.4
121255	7	Sololá	701	Sololá	4	Finca Santa Victoria	7	Julio	2023-07-28T00:00:00	2024-11-08T06:00:00	3	Temperatura mínima	14.1
121256	7	Sololá	701	Sololá	4	Finca Santa Victoria	7	Julio	2023-07-28T00:00:00	2024-11-08T06:00:00	5	Humedad	84
121257	7	Sololá	701	Sololá	4	Finca Santa Victoria	7	Julio	2023-07-28T00:00:00	2024-11-08T06:00:00	6	Velocidad del viento	3.2
121258	7	Sololá	701	Sololá	4	Finca Santa Victoria	7	Julio	2023-07-28T00:00:00	2024-11-08T06:00:00	7	Dirección del viento	3.22
121259	7	Sololá	701	Sololá	4	Finca Santa Victoria	7	Julio	2023-07-28T00:00:00	2024-11-08T06:00:00	1	Precipitación	0
121260	7	Sololá	701	Sololá	4	Finca Santa Victoria	7	Julio	2023-07-28T00:00:00	2024-11-08T06:00:00	8	Radiación solar	0
121261	7	Sololá	701	Sololá	4	Finca Santa Victoria	7	Julio	2023-07-28T00:00:00	2024-11-08T07:00:00	2	Temperatura media	13.7
121262	7	Sololá	701	Sololá	4	Finca Santa Victoria	7	Julio	2023-07-28T00:00:00	2024-11-08T07:00:00	4	Temperatura máxima	14.4
121263	7	Sololá	701	Sololá	4	Finca Santa Victoria	7	Julio	2023-07-28T00:00:00	2024-11-08T07:00:00	3	Temperatura mínima	13.7
121264	7	Sololá	701	Sololá	4	Finca Santa Victoria	7	Julio	2023-07-28T00:00:00	2024-11-08T07:00:00	5	Humedad	91
121265	7	Sololá	701	Sololá	4	Finca Santa Victoria	7	Julio	2023-07-28T00:00:00	2024-11-08T07:00:00	6	Velocidad del viento	3.2
121266	7	Sololá	701	Sololá	4	Finca Santa Victoria	7	Julio	2023-07-28T00:00:00	2024-11-08T07:00:00	7	Dirección del viento	3.22
121267	7	Sololá	701	Sololá	4	Finca Santa Victoria	7	Julio	2023-07-28T00:00:00	2024-11-08T07:00:00	1	Precipitación	0
121268	7	Sololá	701	Sololá	4	Finca Santa Victoria	7	Julio	2023-07-28T00:00:00	2024-11-08T07:00:00	8	Radiación solar	18
121269	7	Sololá	701	Sololá	4	Finca Santa Victoria	7	Julio	2023-07-28T00:00:00	2024-11-08T08:00:00	2	Temperatura media	16.3
121270	7	Sololá	701	Sololá	4	Finca Santa Victoria	7	Julio	2023-07-28T00:00:00	2024-11-08T08:00:00	4	Temperatura máxima	16.3
121271	7	Sololá	701	Sololá	4	Finca Santa Victoria	7	Julio	2023-07-28T00:00:00	2024-11-08T08:00:00	3	Temperatura mínima	13.7
121272	7	Sololá	701	Sololá	4	Finca Santa Victoria	7	Julio	2023-07-28T00:00:00	2024-11-08T08:00:00	5	Humedad	82
121273	7	Sololá	701	Sololá	4	Finca Santa Victoria	7	Julio	2023-07-28T00:00:00	2024-11-08T08:00:00	6	Velocidad del viento	3.2
121274	7	Sololá	701	Sololá	4	Finca Santa Victoria	7	Julio	2023-07-28T00:00:00	2024-11-08T08:00:00	7	Dirección del viento	3.22
121275	7	Sololá	701	Sololá	4	Finca Santa Victoria	7	Julio	2023-07-28T00:00:00	2024-11-08T08:00:00	1	Precipitación	0
121276	7	Sololá	701	Sololá	4	Finca Santa Victoria	7	Julio	2023-07-28T00:00:00	2024-11-08T08:00:00	8	Radiación solar	156
121277	7	Sololá	701	Sololá	4	Finca Santa Victoria	7	Julio	2023-07-28T00:00:00	2024-11-08T09:00:00	2	Temperatura media	17.3
121278	7	Sololá	701	Sololá	4	Finca Santa Victoria	7	Julio	2023-07-28T00:00:00	2024-11-08T09:00:00	4	Temperatura máxima	17.3
121279	7	Sololá	701	Sololá	4	Finca Santa Victoria	7	Julio	2023-07-28T00:00:00	2024-11-08T09:00:00	3	Temperatura mínima	16
121280	7	Sololá	701	Sololá	4	Finca Santa Victoria	7	Julio	2023-07-28T00:00:00	2024-11-08T09:00:00	5	Humedad	77
121281	7	Sololá	701	Sololá	4	Finca Santa Victoria	7	Julio	2023-07-28T00:00:00	2024-11-08T09:00:00	6	Velocidad del viento	3.2
121282	7	Sololá	701	Sololá	4	Finca Santa Victoria	7	Julio	2023-07-28T00:00:00	2024-11-08T09:00:00	7	Dirección del viento	3.22
121283	7	Sololá	701	Sololá	4	Finca Santa Victoria	7	Julio	2023-07-28T00:00:00	2024-11-08T09:00:00	1	Precipitación	0
121284	7	Sololá	701	Sololá	4	Finca Santa Victoria	7	Julio	2023-07-28T00:00:00	2024-11-08T09:00:00	8	Radiación solar	238
121285	7	Sololá	701	Sololá	4	Finca Santa Victoria	7	Julio	2023-07-28T00:00:00	2024-11-08T10:00:00	2	Temperatura media	18.4
121286	7	Sololá	701	Sololá	4	Finca Santa Victoria	7	Julio	2023-07-28T00:00:00	2024-11-08T10:00:00	4	Temperatura máxima	18.5
121287	7	Sololá	701	Sololá	4	Finca Santa Victoria	7	Julio	2023-07-28T00:00:00	2024-11-08T10:00:00	3	Temperatura mínima	17.3
121288	7	Sololá	701	Sololá	4	Finca Santa Victoria	7	Julio	2023-07-28T00:00:00	2024-11-08T10:00:00	5	Humedad	71
121289	7	Sololá	701	Sololá	4	Finca Santa Victoria	7	Julio	2023-07-28T00:00:00	2024-11-08T10:00:00	6	Velocidad del viento	4.8
121290	7	Sololá	701	Sololá	4	Finca Santa Victoria	7	Julio	2023-07-28T00:00:00	2024-11-08T10:00:00	7	Dirección del viento	4.83
121291	7	Sololá	701	Sololá	4	Finca Santa Victoria	7	Julio	2023-07-28T00:00:00	2024-11-08T10:00:00	1	Precipitación	0
121292	7	Sololá	701	Sololá	4	Finca Santa Victoria	7	Julio	2023-07-28T00:00:00	2024-11-08T10:00:00	8	Radiación solar	177
121293	7	Sololá	701	Sololá	4	Finca Santa Victoria	7	Julio	2023-07-28T00:00:00	2024-11-08T11:00:00	2	Temperatura media	18.6
121294	7	Sololá	701	Sololá	4	Finca Santa Victoria	7	Julio	2023-07-28T00:00:00	2024-11-08T11:00:00	4	Temperatura máxima	19
121295	7	Sololá	701	Sololá	4	Finca Santa Victoria	7	Julio	2023-07-28T00:00:00	2024-11-08T11:00:00	3	Temperatura mínima	17.9
121296	7	Sololá	701	Sololá	4	Finca Santa Victoria	7	Julio	2023-07-28T00:00:00	2024-11-08T11:00:00	5	Humedad	75
121297	7	Sololá	701	Sololá	4	Finca Santa Victoria	7	Julio	2023-07-28T00:00:00	2024-11-08T11:00:00	6	Velocidad del viento	4.8
121298	7	Sololá	701	Sololá	4	Finca Santa Victoria	7	Julio	2023-07-28T00:00:00	2024-11-08T11:00:00	7	Dirección del viento	4.83
121299	7	Sololá	701	Sololá	4	Finca Santa Victoria	7	Julio	2023-07-28T00:00:00	2024-11-08T11:00:00	1	Precipitación	0
121300	7	Sololá	701	Sololá	4	Finca Santa Victoria	7	Julio	2023-07-28T00:00:00	2024-11-08T11:00:00	8	Radiación solar	171
121301	7	Sololá	701	Sololá	4	Finca Santa Victoria	7	Julio	2023-07-28T00:00:00	2024-11-08T12:00:00	2	Temperatura media	20.4
121302	7	Sololá	701	Sololá	4	Finca Santa Victoria	7	Julio	2023-07-28T00:00:00	2024-11-08T12:00:00	4	Temperatura máxima	20.7
121303	7	Sololá	701	Sololá	4	Finca Santa Victoria	7	Julio	2023-07-28T00:00:00	2024-11-08T12:00:00	3	Temperatura mínima	18.6
121304	7	Sololá	701	Sololá	4	Finca Santa Victoria	7	Julio	2023-07-28T00:00:00	2024-11-08T12:00:00	5	Humedad	67
121305	7	Sololá	701	Sololá	4	Finca Santa Victoria	7	Julio	2023-07-28T00:00:00	2024-11-08T12:00:00	6	Velocidad del viento	4.8
121306	7	Sololá	701	Sololá	4	Finca Santa Victoria	7	Julio	2023-07-28T00:00:00	2024-11-08T12:00:00	7	Dirección del viento	4.83
121307	7	Sololá	701	Sololá	4	Finca Santa Victoria	7	Julio	2023-07-28T00:00:00	2024-11-08T12:00:00	1	Precipitación	0
121308	7	Sololá	701	Sololá	4	Finca Santa Victoria	7	Julio	2023-07-28T00:00:00	2024-11-08T12:00:00	8	Radiación solar	1037
121309	7	Sololá	701	Sololá	4	Finca Santa Victoria	7	Julio	2023-07-28T00:00:00	2024-11-08T13:00:00	2	Temperatura media	21.3
121310	7	Sololá	701	Sololá	4	Finca Santa Victoria	7	Julio	2023-07-28T00:00:00	2024-11-08T13:00:00	4	Temperatura máxima	21.6
121311	7	Sololá	701	Sololá	4	Finca Santa Victoria	7	Julio	2023-07-28T00:00:00	2024-11-08T13:00:00	3	Temperatura mínima	20.4
121312	7	Sololá	701	Sololá	4	Finca Santa Victoria	7	Julio	2023-07-28T00:00:00	2024-11-08T13:00:00	5	Humedad	62
121313	7	Sololá	701	Sololá	4	Finca Santa Victoria	7	Julio	2023-07-28T00:00:00	2024-11-08T13:00:00	6	Velocidad del viento	4.8
121314	7	Sololá	701	Sololá	4	Finca Santa Victoria	7	Julio	2023-07-28T00:00:00	2024-11-08T13:00:00	7	Dirección del viento	4.83
121315	7	Sololá	701	Sololá	4	Finca Santa Victoria	7	Julio	2023-07-28T00:00:00	2024-11-08T13:00:00	1	Precipitación	0
121316	7	Sololá	701	Sololá	4	Finca Santa Victoria	7	Julio	2023-07-28T00:00:00	2024-11-08T13:00:00	8	Radiación solar	997
121317	7	Sololá	701	Sololá	4	Finca Santa Victoria	7	Julio	2023-07-28T00:00:00	2024-11-08T14:00:00	2	Temperatura media	22.3
121318	7	Sololá	701	Sololá	4	Finca Santa Victoria	7	Julio	2023-07-28T00:00:00	2024-11-08T14:00:00	4	Temperatura máxima	22.3
121319	7	Sololá	701	Sololá	4	Finca Santa Victoria	7	Julio	2023-07-28T00:00:00	2024-11-08T14:00:00	3	Temperatura mínima	21.2
121320	7	Sololá	701	Sololá	4	Finca Santa Victoria	7	Julio	2023-07-28T00:00:00	2024-11-08T14:00:00	5	Humedad	58
121321	7	Sololá	701	Sololá	4	Finca Santa Victoria	7	Julio	2023-07-28T00:00:00	2024-11-08T14:00:00	6	Velocidad del viento	4.8
121322	7	Sololá	701	Sololá	4	Finca Santa Victoria	7	Julio	2023-07-28T00:00:00	2024-11-08T14:00:00	7	Dirección del viento	4.83
121323	7	Sololá	701	Sololá	4	Finca Santa Victoria	7	Julio	2023-07-28T00:00:00	2024-11-08T14:00:00	1	Precipitación	0
121324	7	Sololá	701	Sololá	4	Finca Santa Victoria	7	Julio	2023-07-28T00:00:00	2024-11-08T14:00:00	8	Radiación solar	308
121325	7	Sololá	701	Sololá	4	Finca Santa Victoria	7	Julio	2023-07-28T00:00:00	2024-11-08T15:00:00	2	Temperatura media	21.8
121326	7	Sololá	701	Sololá	4	Finca Santa Victoria	7	Julio	2023-07-28T00:00:00	2024-11-08T15:00:00	4	Temperatura máxima	22.4
121327	7	Sololá	701	Sololá	4	Finca Santa Victoria	7	Julio	2023-07-28T00:00:00	2024-11-08T15:00:00	3	Temperatura mínima	21.6
121328	7	Sololá	701	Sololá	4	Finca Santa Victoria	7	Julio	2023-07-28T00:00:00	2024-11-08T15:00:00	5	Humedad	61
121329	7	Sololá	701	Sololá	4	Finca Santa Victoria	7	Julio	2023-07-28T00:00:00	2024-11-08T15:00:00	6	Velocidad del viento	4.8
121330	7	Sololá	701	Sololá	4	Finca Santa Victoria	7	Julio	2023-07-28T00:00:00	2024-11-08T15:00:00	7	Dirección del viento	4.83
121331	7	Sololá	701	Sololá	4	Finca Santa Victoria	7	Julio	2023-07-28T00:00:00	2024-11-08T15:00:00	1	Precipitación	0
121332	7	Sololá	701	Sololá	4	Finca Santa Victoria	7	Julio	2023-07-28T00:00:00	2024-11-08T15:00:00	8	Radiación solar	314
121333	7	Sololá	701	Sololá	4	Finca Santa Victoria	7	Julio	2023-07-28T00:00:00	2024-11-08T16:00:00	2	Temperatura media	20.6
121334	7	Sololá	701	Sololá	4	Finca Santa Victoria	7	Julio	2023-07-28T00:00:00	2024-11-08T16:00:00	4	Temperatura máxima	21.8
121335	7	Sololá	701	Sololá	4	Finca Santa Victoria	7	Julio	2023-07-28T00:00:00	2024-11-08T16:00:00	3	Temperatura mínima	20.2
121336	7	Sololá	701	Sololá	4	Finca Santa Victoria	7	Julio	2023-07-28T00:00:00	2024-11-08T16:00:00	5	Humedad	68
121337	7	Sololá	701	Sololá	4	Finca Santa Victoria	7	Julio	2023-07-28T00:00:00	2024-11-08T16:00:00	6	Velocidad del viento	3.2
121338	7	Sololá	701	Sololá	4	Finca Santa Victoria	7	Julio	2023-07-28T00:00:00	2024-11-08T16:00:00	7	Dirección del viento	3.22
121339	7	Sololá	701	Sololá	4	Finca Santa Victoria	7	Julio	2023-07-28T00:00:00	2024-11-08T16:00:00	1	Precipitación	0
121340	7	Sololá	701	Sololá	4	Finca Santa Victoria	7	Julio	2023-07-28T00:00:00	2024-11-08T16:00:00	8	Radiación solar	199
121341	7	Sololá	701	Sololá	4	Finca Santa Victoria	7	Julio	2023-07-28T00:00:00	2024-11-08T17:00:00	2	Temperatura media	19.1
121342	7	Sololá	701	Sololá	4	Finca Santa Victoria	7	Julio	2023-07-28T00:00:00	2024-11-08T17:00:00	4	Temperatura máxima	20.7
121343	7	Sololá	701	Sololá	4	Finca Santa Victoria	7	Julio	2023-07-28T00:00:00	2024-11-08T17:00:00	3	Temperatura mínima	19
121344	7	Sololá	701	Sololá	4	Finca Santa Victoria	7	Julio	2023-07-28T00:00:00	2024-11-08T17:00:00	5	Humedad	73
121345	7	Sololá	701	Sololá	4	Finca Santa Victoria	7	Julio	2023-07-28T00:00:00	2024-11-08T17:00:00	6	Velocidad del viento	3.2
121346	7	Sololá	701	Sololá	4	Finca Santa Victoria	7	Julio	2023-07-28T00:00:00	2024-11-08T17:00:00	7	Dirección del viento	3.22
121347	7	Sololá	701	Sololá	4	Finca Santa Victoria	7	Julio	2023-07-28T00:00:00	2024-11-08T17:00:00	1	Precipitación	0
121348	7	Sololá	701	Sololá	4	Finca Santa Victoria	7	Julio	2023-07-28T00:00:00	2024-11-08T17:00:00	8	Radiación solar	120
121349	7	Sololá	701	Sololá	4	Finca Santa Victoria	7	Julio	2023-07-28T00:00:00	2024-11-08T18:00:00	2	Temperatura media	18.2
121350	7	Sololá	701	Sololá	4	Finca Santa Victoria	7	Julio	2023-07-28T00:00:00	2024-11-08T18:00:00	4	Temperatura máxima	19.1
121351	7	Sololá	701	Sololá	4	Finca Santa Victoria	7	Julio	2023-07-28T00:00:00	2024-11-08T18:00:00	3	Temperatura mínima	18.2
121352	7	Sololá	701	Sololá	4	Finca Santa Victoria	7	Julio	2023-07-28T00:00:00	2024-11-08T18:00:00	5	Humedad	78
121353	7	Sololá	701	Sololá	4	Finca Santa Victoria	7	Julio	2023-07-28T00:00:00	2024-11-08T18:00:00	6	Velocidad del viento	1.6
121354	7	Sololá	701	Sololá	4	Finca Santa Victoria	7	Julio	2023-07-28T00:00:00	2024-11-08T18:00:00	7	Dirección del viento	1.61
121355	7	Sololá	701	Sololá	4	Finca Santa Victoria	7	Julio	2023-07-28T00:00:00	2024-11-08T18:00:00	1	Precipitación	0
121356	7	Sololá	701	Sololá	4	Finca Santa Victoria	7	Julio	2023-07-28T00:00:00	2024-11-08T18:00:00	8	Radiación solar	47
121357	7	Sololá	701	Sololá	4	Finca Santa Victoria	7	Julio	2023-07-28T00:00:00	2024-11-08T19:00:00	2	Temperatura media	17
121358	7	Sololá	701	Sololá	4	Finca Santa Victoria	7	Julio	2023-07-28T00:00:00	2024-11-08T19:00:00	4	Temperatura máxima	18.2
121359	7	Sololá	701	Sololá	4	Finca Santa Victoria	7	Julio	2023-07-28T00:00:00	2024-11-08T19:00:00	3	Temperatura mínima	17
121360	7	Sololá	701	Sololá	4	Finca Santa Victoria	7	Julio	2023-07-28T00:00:00	2024-11-08T19:00:00	5	Humedad	83
121361	7	Sololá	701	Sololá	4	Finca Santa Victoria	7	Julio	2023-07-28T00:00:00	2024-11-08T19:00:00	6	Velocidad del viento	1.6
121362	7	Sololá	701	Sololá	4	Finca Santa Victoria	7	Julio	2023-07-28T00:00:00	2024-11-08T19:00:00	7	Dirección del viento	1.61
121363	7	Sololá	701	Sololá	4	Finca Santa Victoria	7	Julio	2023-07-28T00:00:00	2024-11-08T19:00:00	1	Precipitación	0
121364	7	Sololá	701	Sololá	4	Finca Santa Victoria	7	Julio	2023-07-28T00:00:00	2024-11-08T19:00:00	8	Radiación solar	0
121365	7	Sololá	701	Sololá	4	Finca Santa Victoria	7	Julio	2023-07-28T00:00:00	2024-11-08T20:00:00	2	Temperatura media	16.9
121366	7	Sololá	701	Sololá	4	Finca Santa Victoria	7	Julio	2023-07-28T00:00:00	2024-11-08T20:00:00	4	Temperatura máxima	17.1
121367	7	Sololá	701	Sololá	4	Finca Santa Victoria	7	Julio	2023-07-28T00:00:00	2024-11-08T20:00:00	3	Temperatura mínima	16.8
121368	7	Sololá	701	Sololá	4	Finca Santa Victoria	7	Julio	2023-07-28T00:00:00	2024-11-08T20:00:00	5	Humedad	85
121369	7	Sololá	701	Sololá	4	Finca Santa Victoria	7	Julio	2023-07-28T00:00:00	2024-11-08T20:00:00	6	Velocidad del viento	1.6
121370	7	Sololá	701	Sololá	4	Finca Santa Victoria	7	Julio	2023-07-28T00:00:00	2024-11-08T20:00:00	7	Dirección del viento	1.61
121371	7	Sololá	701	Sololá	4	Finca Santa Victoria	7	Julio	2023-07-28T00:00:00	2024-11-08T20:00:00	1	Precipitación	0
121372	7	Sololá	701	Sololá	4	Finca Santa Victoria	7	Julio	2023-07-28T00:00:00	2024-11-08T20:00:00	8	Radiación solar	0
121373	7	Sololá	701	Sololá	4	Finca Santa Victoria	7	Julio	2023-07-28T00:00:00	2024-11-08T21:00:00	2	Temperatura media	16.7
121374	7	Sololá	701	Sololá	4	Finca Santa Victoria	7	Julio	2023-07-28T00:00:00	2024-11-08T21:00:00	4	Temperatura máxima	16.9
121375	7	Sololá	701	Sololá	4	Finca Santa Victoria	7	Julio	2023-07-28T00:00:00	2024-11-08T21:00:00	3	Temperatura mínima	16.6
121376	7	Sololá	701	Sololá	4	Finca Santa Victoria	7	Julio	2023-07-28T00:00:00	2024-11-08T21:00:00	5	Humedad	84
121377	7	Sololá	701	Sololá	4	Finca Santa Victoria	7	Julio	2023-07-28T00:00:00	2024-11-08T21:00:00	6	Velocidad del viento	3.2
121378	7	Sololá	701	Sololá	4	Finca Santa Victoria	7	Julio	2023-07-28T00:00:00	2024-11-08T21:00:00	7	Dirección del viento	3.22
121379	7	Sololá	701	Sololá	4	Finca Santa Victoria	7	Julio	2023-07-28T00:00:00	2024-11-08T21:00:00	1	Precipitación	0
121380	7	Sololá	701	Sololá	4	Finca Santa Victoria	7	Julio	2023-07-28T00:00:00	2024-11-08T21:00:00	8	Radiación solar	0
121381	7	Sololá	701	Sololá	4	Finca Santa Victoria	7	Julio	2023-07-28T00:00:00	2024-11-08T22:00:00	2	Temperatura media	15.7
121382	7	Sololá	701	Sololá	4	Finca Santa Victoria	7	Julio	2023-07-28T00:00:00	2024-11-08T22:00:00	4	Temperatura máxima	16.7
121383	7	Sololá	701	Sololá	4	Finca Santa Victoria	7	Julio	2023-07-28T00:00:00	2024-11-08T22:00:00	3	Temperatura mínima	15.7
121384	7	Sololá	701	Sololá	4	Finca Santa Victoria	7	Julio	2023-07-28T00:00:00	2024-11-08T22:00:00	5	Humedad	89
121385	7	Sololá	701	Sololá	4	Finca Santa Victoria	7	Julio	2023-07-28T00:00:00	2024-11-08T22:00:00	6	Velocidad del viento	1.6
121386	7	Sololá	701	Sololá	4	Finca Santa Victoria	7	Julio	2023-07-28T00:00:00	2024-11-08T22:00:00	7	Dirección del viento	1.61
121387	7	Sololá	701	Sololá	4	Finca Santa Victoria	7	Julio	2023-07-28T00:00:00	2024-11-08T22:00:00	1	Precipitación	0
121388	7	Sololá	701	Sololá	4	Finca Santa Victoria	7	Julio	2023-07-28T00:00:00	2024-11-08T22:00:00	8	Radiación solar	0
121389	7	Sololá	701	Sololá	4	Finca Santa Victoria	7	Julio	2023-07-28T00:00:00	2024-11-08T23:00:00	2	Temperatura media	14.6
121390	7	Sololá	701	Sololá	4	Finca Santa Victoria	7	Julio	2023-07-28T00:00:00	2024-11-08T23:00:00	4	Temperatura máxima	15.8
121391	7	Sololá	701	Sololá	4	Finca Santa Victoria	7	Julio	2023-07-28T00:00:00	2024-11-08T23:00:00	3	Temperatura mínima	14.6
121392	7	Sololá	701	Sololá	4	Finca Santa Victoria	7	Julio	2023-07-28T00:00:00	2024-11-08T23:00:00	5	Humedad	90
121393	7	Sololá	701	Sololá	4	Finca Santa Victoria	7	Julio	2023-07-28T00:00:00	2024-11-08T23:00:00	6	Velocidad del viento	4.8
121394	7	Sololá	701	Sololá	4	Finca Santa Victoria	7	Julio	2023-07-28T00:00:00	2024-11-08T23:00:00	7	Dirección del viento	4.83
121395	7	Sololá	701	Sololá	4	Finca Santa Victoria	7	Julio	2023-07-28T00:00:00	2024-11-08T23:00:00	1	Precipitación	0.2
121396	7	Sololá	701	Sololá	4	Finca Santa Victoria	7	Julio	2023-07-28T00:00:00	2024-11-08T23:00:00	8	Radiación solar	0
121397	7	Sololá	701	Sololá	4	Finca Santa Victoria	7	Julio	2023-07-29T00:00:00	2024-11-08T00:00:00	2	Temperatura media	14.5
121398	7	Sololá	701	Sololá	4	Finca Santa Victoria	7	Julio	2023-07-29T00:00:00	2024-11-08T00:00:00	4	Temperatura máxima	14.6
121399	7	Sololá	701	Sololá	4	Finca Santa Victoria	7	Julio	2023-07-29T00:00:00	2024-11-08T00:00:00	3	Temperatura mínima	14.5
121400	7	Sololá	701	Sololá	4	Finca Santa Victoria	7	Julio	2023-07-29T00:00:00	2024-11-08T00:00:00	5	Humedad	88
121401	7	Sololá	701	Sololá	4	Finca Santa Victoria	7	Julio	2023-07-29T00:00:00	2024-11-08T00:00:00	6	Velocidad del viento	3.2
121402	7	Sololá	701	Sololá	4	Finca Santa Victoria	7	Julio	2023-07-29T00:00:00	2024-11-08T00:00:00	7	Dirección del viento	3.22
121403	7	Sololá	701	Sololá	4	Finca Santa Victoria	7	Julio	2023-07-29T00:00:00	2024-11-08T00:00:00	1	Precipitación	0
121404	7	Sololá	701	Sololá	4	Finca Santa Victoria	7	Julio	2023-07-29T00:00:00	2024-11-08T00:00:00	8	Radiación solar	0
121405	7	Sololá	701	Sololá	4	Finca Santa Victoria	7	Julio	2023-07-29T00:00:00	2024-11-08T01:00:00	2	Temperatura media	14.5
121406	7	Sololá	701	Sololá	4	Finca Santa Victoria	7	Julio	2023-07-29T00:00:00	2024-11-08T01:00:00	4	Temperatura máxima	14.6
121407	7	Sololá	701	Sololá	4	Finca Santa Victoria	7	Julio	2023-07-29T00:00:00	2024-11-08T01:00:00	3	Temperatura mínima	14.3
121408	7	Sololá	701	Sololá	4	Finca Santa Victoria	7	Julio	2023-07-29T00:00:00	2024-11-08T01:00:00	5	Humedad	89
121409	7	Sololá	701	Sololá	4	Finca Santa Victoria	7	Julio	2023-07-29T00:00:00	2024-11-08T01:00:00	6	Velocidad del viento	1.6
121410	7	Sololá	701	Sololá	4	Finca Santa Victoria	7	Julio	2023-07-29T00:00:00	2024-11-08T01:00:00	7	Dirección del viento	1.61
121411	7	Sololá	701	Sololá	4	Finca Santa Victoria	7	Julio	2023-07-29T00:00:00	2024-11-08T01:00:00	1	Precipitación	0
121412	7	Sololá	701	Sololá	4	Finca Santa Victoria	7	Julio	2023-07-29T00:00:00	2024-11-08T01:00:00	8	Radiación solar	0
121413	7	Sololá	701	Sololá	4	Finca Santa Victoria	7	Julio	2023-07-29T00:00:00	2024-11-08T02:00:00	2	Temperatura media	14.4
121414	7	Sololá	701	Sololá	4	Finca Santa Victoria	7	Julio	2023-07-29T00:00:00	2024-11-08T02:00:00	4	Temperatura máxima	14.7
121415	7	Sololá	701	Sololá	4	Finca Santa Victoria	7	Julio	2023-07-29T00:00:00	2024-11-08T02:00:00	3	Temperatura mínima	14.4
121416	7	Sololá	701	Sololá	4	Finca Santa Victoria	7	Julio	2023-07-29T00:00:00	2024-11-08T02:00:00	5	Humedad	93
121417	7	Sololá	701	Sololá	4	Finca Santa Victoria	7	Julio	2023-07-29T00:00:00	2024-11-08T02:00:00	6	Velocidad del viento	3.2
121418	7	Sololá	701	Sololá	4	Finca Santa Victoria	7	Julio	2023-07-29T00:00:00	2024-11-08T02:00:00	7	Dirección del viento	3.22
121419	7	Sololá	701	Sololá	4	Finca Santa Victoria	7	Julio	2023-07-29T00:00:00	2024-11-08T02:00:00	1	Precipitación	0
121420	7	Sololá	701	Sololá	4	Finca Santa Victoria	7	Julio	2023-07-29T00:00:00	2024-11-08T02:00:00	8	Radiación solar	0
121421	7	Sololá	701	Sololá	4	Finca Santa Victoria	7	Julio	2023-07-29T00:00:00	2024-11-08T03:00:00	2	Temperatura media	13.8
121422	7	Sololá	701	Sololá	4	Finca Santa Victoria	7	Julio	2023-07-29T00:00:00	2024-11-08T03:00:00	4	Temperatura máxima	14.4
121423	7	Sololá	701	Sololá	4	Finca Santa Victoria	7	Julio	2023-07-29T00:00:00	2024-11-08T03:00:00	3	Temperatura mínima	13.8
121424	7	Sololá	701	Sololá	4	Finca Santa Victoria	7	Julio	2023-07-29T00:00:00	2024-11-08T03:00:00	5	Humedad	95
121425	7	Sololá	701	Sololá	4	Finca Santa Victoria	7	Julio	2023-07-29T00:00:00	2024-11-08T03:00:00	6	Velocidad del viento	1.6
121426	7	Sololá	701	Sololá	4	Finca Santa Victoria	7	Julio	2023-07-29T00:00:00	2024-11-08T03:00:00	7	Dirección del viento	1.61
121427	7	Sololá	701	Sololá	4	Finca Santa Victoria	7	Julio	2023-07-29T00:00:00	2024-11-08T03:00:00	1	Precipitación	0
121428	7	Sololá	701	Sololá	4	Finca Santa Victoria	7	Julio	2023-07-29T00:00:00	2024-11-08T03:00:00	8	Radiación solar	0
121429	7	Sololá	701	Sololá	4	Finca Santa Victoria	7	Julio	2023-07-29T00:00:00	2024-11-08T04:00:00	2	Temperatura media	14.1
121430	7	Sololá	701	Sololá	4	Finca Santa Victoria	7	Julio	2023-07-29T00:00:00	2024-11-08T04:00:00	4	Temperatura máxima	14.2
121431	7	Sololá	701	Sololá	4	Finca Santa Victoria	7	Julio	2023-07-29T00:00:00	2024-11-08T04:00:00	3	Temperatura mínima	13.8
121432	7	Sololá	701	Sololá	4	Finca Santa Victoria	7	Julio	2023-07-29T00:00:00	2024-11-08T04:00:00	5	Humedad	94
121433	7	Sololá	701	Sololá	4	Finca Santa Victoria	7	Julio	2023-07-29T00:00:00	2024-11-08T04:00:00	6	Velocidad del viento	3.2
121434	7	Sololá	701	Sololá	4	Finca Santa Victoria	7	Julio	2023-07-29T00:00:00	2024-11-08T04:00:00	7	Dirección del viento	3.22
121435	7	Sololá	701	Sololá	4	Finca Santa Victoria	7	Julio	2023-07-29T00:00:00	2024-11-08T04:00:00	1	Precipitación	0
121436	7	Sololá	701	Sololá	4	Finca Santa Victoria	7	Julio	2023-07-29T00:00:00	2024-11-08T04:00:00	8	Radiación solar	0
121437	7	Sololá	701	Sololá	4	Finca Santa Victoria	7	Julio	2023-07-29T00:00:00	2024-11-08T05:00:00	2	Temperatura media	14.2
121438	7	Sololá	701	Sololá	4	Finca Santa Victoria	7	Julio	2023-07-29T00:00:00	2024-11-08T05:00:00	4	Temperatura máxima	14.3
121439	7	Sololá	701	Sololá	4	Finca Santa Victoria	7	Julio	2023-07-29T00:00:00	2024-11-08T05:00:00	3	Temperatura mínima	14.1
121440	7	Sololá	701	Sololá	4	Finca Santa Victoria	7	Julio	2023-07-29T00:00:00	2024-11-08T05:00:00	5	Humedad	94
121441	7	Sololá	701	Sololá	4	Finca Santa Victoria	7	Julio	2023-07-29T00:00:00	2024-11-08T05:00:00	6	Velocidad del viento	4.8
121442	7	Sololá	701	Sololá	4	Finca Santa Victoria	7	Julio	2023-07-29T00:00:00	2024-11-08T05:00:00	7	Dirección del viento	4.83
121443	7	Sololá	701	Sololá	4	Finca Santa Victoria	7	Julio	2023-07-29T00:00:00	2024-11-08T05:00:00	1	Precipitación	0
121444	7	Sololá	701	Sololá	4	Finca Santa Victoria	7	Julio	2023-07-29T00:00:00	2024-11-08T05:00:00	8	Radiación solar	0
121445	7	Sololá	701	Sololá	4	Finca Santa Victoria	7	Julio	2023-07-29T00:00:00	2024-11-08T06:00:00	2	Temperatura media	14
121446	7	Sololá	701	Sololá	4	Finca Santa Victoria	7	Julio	2023-07-29T00:00:00	2024-11-08T06:00:00	4	Temperatura máxima	14.2
121447	7	Sololá	701	Sololá	4	Finca Santa Victoria	7	Julio	2023-07-29T00:00:00	2024-11-08T06:00:00	3	Temperatura mínima	13.9
121448	7	Sololá	701	Sololá	4	Finca Santa Victoria	7	Julio	2023-07-29T00:00:00	2024-11-08T06:00:00	5	Humedad	92
121449	7	Sololá	701	Sololá	4	Finca Santa Victoria	7	Julio	2023-07-29T00:00:00	2024-11-08T06:00:00	6	Velocidad del viento	3.2
121450	7	Sololá	701	Sololá	4	Finca Santa Victoria	7	Julio	2023-07-29T00:00:00	2024-11-08T06:00:00	7	Dirección del viento	3.22
121451	7	Sololá	701	Sololá	4	Finca Santa Victoria	7	Julio	2023-07-29T00:00:00	2024-11-08T06:00:00	1	Precipitación	0
121452	7	Sololá	701	Sololá	4	Finca Santa Victoria	7	Julio	2023-07-29T00:00:00	2024-11-08T06:00:00	8	Radiación solar	0
121453	7	Sololá	701	Sololá	4	Finca Santa Victoria	7	Julio	2023-07-29T00:00:00	2024-11-08T07:00:00	2	Temperatura media	14.1
121454	7	Sololá	701	Sololá	4	Finca Santa Victoria	7	Julio	2023-07-29T00:00:00	2024-11-08T07:00:00	4	Temperatura máxima	14.2
121455	7	Sololá	701	Sololá	4	Finca Santa Victoria	7	Julio	2023-07-29T00:00:00	2024-11-08T07:00:00	3	Temperatura mínima	13.9
121456	7	Sololá	701	Sololá	4	Finca Santa Victoria	7	Julio	2023-07-29T00:00:00	2024-11-08T07:00:00	5	Humedad	93
121457	7	Sololá	701	Sololá	4	Finca Santa Victoria	7	Julio	2023-07-29T00:00:00	2024-11-08T07:00:00	6	Velocidad del viento	4.8
121458	7	Sololá	701	Sololá	4	Finca Santa Victoria	7	Julio	2023-07-29T00:00:00	2024-11-08T07:00:00	7	Dirección del viento	4.83
121459	7	Sololá	701	Sololá	4	Finca Santa Victoria	7	Julio	2023-07-29T00:00:00	2024-11-08T07:00:00	1	Precipitación	0
121460	7	Sololá	701	Sololá	4	Finca Santa Victoria	7	Julio	2023-07-29T00:00:00	2024-11-08T07:00:00	8	Radiación solar	42
121461	7	Sololá	701	Sololá	4	Finca Santa Victoria	7	Julio	2023-07-29T00:00:00	2024-11-08T08:00:00	2	Temperatura media	14.6
121462	7	Sololá	701	Sololá	4	Finca Santa Victoria	7	Julio	2023-07-29T00:00:00	2024-11-08T08:00:00	4	Temperatura máxima	14.6
121463	7	Sololá	701	Sololá	4	Finca Santa Victoria	7	Julio	2023-07-29T00:00:00	2024-11-08T08:00:00	3	Temperatura mínima	14.1
121464	7	Sololá	701	Sololá	4	Finca Santa Victoria	7	Julio	2023-07-29T00:00:00	2024-11-08T08:00:00	5	Humedad	94
121465	7	Sololá	701	Sololá	4	Finca Santa Victoria	7	Julio	2023-07-29T00:00:00	2024-11-08T08:00:00	6	Velocidad del viento	4.8
121466	7	Sololá	701	Sololá	4	Finca Santa Victoria	7	Julio	2023-07-29T00:00:00	2024-11-08T08:00:00	7	Dirección del viento	4.83
121467	7	Sololá	701	Sololá	4	Finca Santa Victoria	7	Julio	2023-07-29T00:00:00	2024-11-08T08:00:00	1	Precipitación	0
121468	7	Sololá	701	Sololá	4	Finca Santa Victoria	7	Julio	2023-07-29T00:00:00	2024-11-08T08:00:00	8	Radiación solar	93
121469	7	Sololá	701	Sololá	4	Finca Santa Victoria	7	Julio	2023-07-29T00:00:00	2024-11-08T09:00:00	2	Temperatura media	15.2
121470	7	Sololá	701	Sololá	4	Finca Santa Victoria	7	Julio	2023-07-29T00:00:00	2024-11-08T09:00:00	4	Temperatura máxima	15.2
121471	7	Sololá	701	Sololá	4	Finca Santa Victoria	7	Julio	2023-07-29T00:00:00	2024-11-08T09:00:00	3	Temperatura mínima	14.6
121472	7	Sololá	701	Sololá	4	Finca Santa Victoria	7	Julio	2023-07-29T00:00:00	2024-11-08T09:00:00	5	Humedad	94
121473	7	Sololá	701	Sololá	4	Finca Santa Victoria	7	Julio	2023-07-29T00:00:00	2024-11-08T09:00:00	6	Velocidad del viento	1.6
121474	7	Sololá	701	Sololá	4	Finca Santa Victoria	7	Julio	2023-07-29T00:00:00	2024-11-08T09:00:00	7	Dirección del viento	1.61
121475	7	Sololá	701	Sololá	4	Finca Santa Victoria	7	Julio	2023-07-29T00:00:00	2024-11-08T09:00:00	1	Precipitación	0
121476	7	Sololá	701	Sololá	4	Finca Santa Victoria	7	Julio	2023-07-29T00:00:00	2024-11-08T09:00:00	8	Radiación solar	117
121477	7	Sololá	701	Sololá	4	Finca Santa Victoria	7	Julio	2023-07-29T00:00:00	2024-11-08T10:00:00	2	Temperatura media	16.7
121478	7	Sololá	701	Sololá	4	Finca Santa Victoria	7	Julio	2023-07-29T00:00:00	2024-11-08T10:00:00	4	Temperatura máxima	16.7
121479	7	Sololá	701	Sololá	4	Finca Santa Victoria	7	Julio	2023-07-29T00:00:00	2024-11-08T10:00:00	3	Temperatura mínima	15.2
121480	7	Sololá	701	Sololá	4	Finca Santa Victoria	7	Julio	2023-07-29T00:00:00	2024-11-08T10:00:00	5	Humedad	89
121481	7	Sololá	701	Sololá	4	Finca Santa Victoria	7	Julio	2023-07-29T00:00:00	2024-11-08T10:00:00	6	Velocidad del viento	3.2
121482	7	Sololá	701	Sololá	4	Finca Santa Victoria	7	Julio	2023-07-29T00:00:00	2024-11-08T10:00:00	7	Dirección del viento	3.22
121483	7	Sololá	701	Sololá	4	Finca Santa Victoria	7	Julio	2023-07-29T00:00:00	2024-11-08T10:00:00	1	Precipitación	0
121484	7	Sololá	701	Sololá	4	Finca Santa Victoria	7	Julio	2023-07-29T00:00:00	2024-11-08T10:00:00	8	Radiación solar	208
121485	7	Sololá	701	Sololá	4	Finca Santa Victoria	7	Julio	2023-07-29T00:00:00	2024-11-08T11:00:00	2	Temperatura media	16.9
121486	7	Sololá	701	Sololá	4	Finca Santa Victoria	7	Julio	2023-07-29T00:00:00	2024-11-08T11:00:00	4	Temperatura máxima	16.9
121487	7	Sololá	701	Sololá	4	Finca Santa Victoria	7	Julio	2023-07-29T00:00:00	2024-11-08T11:00:00	3	Temperatura mínima	16
121488	7	Sololá	701	Sololá	4	Finca Santa Victoria	7	Julio	2023-07-29T00:00:00	2024-11-08T11:00:00	5	Humedad	83
121489	7	Sololá	701	Sololá	4	Finca Santa Victoria	7	Julio	2023-07-29T00:00:00	2024-11-08T11:00:00	6	Velocidad del viento	3.2
121490	7	Sololá	701	Sololá	4	Finca Santa Victoria	7	Julio	2023-07-29T00:00:00	2024-11-08T11:00:00	7	Dirección del viento	3.22
121491	7	Sololá	701	Sololá	4	Finca Santa Victoria	7	Julio	2023-07-29T00:00:00	2024-11-08T11:00:00	1	Precipitación	0
121492	7	Sololá	701	Sololá	4	Finca Santa Victoria	7	Julio	2023-07-29T00:00:00	2024-11-08T11:00:00	8	Radiación solar	144
121493	7	Sololá	701	Sololá	4	Finca Santa Victoria	7	Julio	2023-07-29T00:00:00	2024-11-08T12:00:00	2	Temperatura media	15.6
121494	7	Sololá	701	Sololá	4	Finca Santa Victoria	7	Julio	2023-07-29T00:00:00	2024-11-08T12:00:00	4	Temperatura máxima	16.9
121495	7	Sololá	701	Sololá	4	Finca Santa Victoria	7	Julio	2023-07-29T00:00:00	2024-11-08T12:00:00	3	Temperatura mínima	15.5
121496	7	Sololá	701	Sololá	4	Finca Santa Victoria	7	Julio	2023-07-29T00:00:00	2024-11-08T12:00:00	5	Humedad	92
121497	7	Sololá	701	Sololá	4	Finca Santa Victoria	7	Julio	2023-07-29T00:00:00	2024-11-08T12:00:00	6	Velocidad del viento	3.2
121498	7	Sololá	701	Sololá	4	Finca Santa Victoria	7	Julio	2023-07-29T00:00:00	2024-11-08T12:00:00	7	Dirección del viento	3.22
121499	7	Sololá	701	Sololá	4	Finca Santa Victoria	7	Julio	2023-07-29T00:00:00	2024-11-08T12:00:00	1	Precipitación	0
121500	7	Sololá	701	Sololá	4	Finca Santa Victoria	7	Julio	2023-07-29T00:00:00	2024-11-08T12:00:00	8	Radiación solar	86
121501	7	Sololá	701	Sololá	4	Finca Santa Victoria	7	Julio	2023-07-29T00:00:00	2024-11-08T13:00:00	2	Temperatura media	14.3
121502	7	Sololá	701	Sololá	4	Finca Santa Victoria	7	Julio	2023-07-29T00:00:00	2024-11-08T13:00:00	4	Temperatura máxima	15.6
121503	7	Sololá	701	Sololá	4	Finca Santa Victoria	7	Julio	2023-07-29T00:00:00	2024-11-08T13:00:00	3	Temperatura mínima	14.3
121504	7	Sololá	701	Sololá	4	Finca Santa Victoria	7	Julio	2023-07-29T00:00:00	2024-11-08T13:00:00	5	Humedad	97
121505	7	Sololá	701	Sololá	4	Finca Santa Victoria	7	Julio	2023-07-29T00:00:00	2024-11-08T13:00:00	6	Velocidad del viento	1.6
121506	7	Sololá	701	Sololá	4	Finca Santa Victoria	7	Julio	2023-07-29T00:00:00	2024-11-08T13:00:00	7	Dirección del viento	1.61
121507	7	Sololá	701	Sololá	4	Finca Santa Victoria	7	Julio	2023-07-29T00:00:00	2024-11-08T13:00:00	1	Precipitación	0
121508	7	Sololá	701	Sololá	4	Finca Santa Victoria	7	Julio	2023-07-29T00:00:00	2024-11-08T13:00:00	8	Radiación solar	82
121509	7	Sololá	701	Sololá	4	Finca Santa Victoria	7	Julio	2023-07-29T00:00:00	2024-11-08T14:00:00	2	Temperatura media	15.5
121510	7	Sololá	701	Sololá	4	Finca Santa Victoria	7	Julio	2023-07-29T00:00:00	2024-11-08T14:00:00	4	Temperatura máxima	15.5
121511	7	Sololá	701	Sololá	4	Finca Santa Victoria	7	Julio	2023-07-29T00:00:00	2024-11-08T14:00:00	3	Temperatura mínima	14.1
121512	7	Sololá	701	Sololá	4	Finca Santa Victoria	7	Julio	2023-07-29T00:00:00	2024-11-08T14:00:00	5	Humedad	93
121513	7	Sololá	701	Sololá	4	Finca Santa Victoria	7	Julio	2023-07-29T00:00:00	2024-11-08T14:00:00	6	Velocidad del viento	3.2
121514	7	Sololá	701	Sololá	4	Finca Santa Victoria	7	Julio	2023-07-29T00:00:00	2024-11-08T14:00:00	7	Dirección del viento	3.22
121515	7	Sololá	701	Sololá	4	Finca Santa Victoria	7	Julio	2023-07-29T00:00:00	2024-11-08T14:00:00	1	Precipitación	0
121516	7	Sololá	701	Sololá	4	Finca Santa Victoria	7	Julio	2023-07-29T00:00:00	2024-11-08T14:00:00	8	Radiación solar	145
121517	7	Sololá	701	Sololá	4	Finca Santa Victoria	7	Julio	2023-07-29T00:00:00	2024-11-08T15:00:00	2	Temperatura media	16.8
121518	7	Sololá	701	Sololá	4	Finca Santa Victoria	7	Julio	2023-07-29T00:00:00	2024-11-08T15:00:00	4	Temperatura máxima	16.9
121519	7	Sololá	701	Sololá	4	Finca Santa Victoria	7	Julio	2023-07-29T00:00:00	2024-11-08T15:00:00	3	Temperatura mínima	15.5
121520	7	Sololá	701	Sololá	4	Finca Santa Victoria	7	Julio	2023-07-29T00:00:00	2024-11-08T15:00:00	5	Humedad	86
121521	7	Sololá	701	Sololá	4	Finca Santa Victoria	7	Julio	2023-07-29T00:00:00	2024-11-08T15:00:00	6	Velocidad del viento	3.2
121522	7	Sololá	701	Sololá	4	Finca Santa Victoria	7	Julio	2023-07-29T00:00:00	2024-11-08T15:00:00	7	Dirección del viento	3.22
121523	7	Sololá	701	Sololá	4	Finca Santa Victoria	7	Julio	2023-07-29T00:00:00	2024-11-08T15:00:00	1	Precipitación	0
121524	7	Sololá	701	Sololá	4	Finca Santa Victoria	7	Julio	2023-07-29T00:00:00	2024-11-08T15:00:00	8	Radiación solar	185
121525	7	Sololá	701	Sololá	4	Finca Santa Victoria	7	Julio	2023-07-29T00:00:00	2024-11-08T16:00:00	2	Temperatura media	17.4
121526	7	Sololá	701	Sololá	4	Finca Santa Victoria	7	Julio	2023-07-29T00:00:00	2024-11-08T16:00:00	4	Temperatura máxima	17.8
121527	7	Sololá	701	Sololá	4	Finca Santa Victoria	7	Julio	2023-07-29T00:00:00	2024-11-08T16:00:00	3	Temperatura mínima	16.8
121528	7	Sololá	701	Sololá	4	Finca Santa Victoria	7	Julio	2023-07-29T00:00:00	2024-11-08T16:00:00	5	Humedad	84
121529	7	Sololá	701	Sololá	4	Finca Santa Victoria	7	Julio	2023-07-29T00:00:00	2024-11-08T16:00:00	6	Velocidad del viento	3.2
121530	7	Sololá	701	Sololá	4	Finca Santa Victoria	7	Julio	2023-07-29T00:00:00	2024-11-08T16:00:00	7	Dirección del viento	3.22
121531	7	Sololá	701	Sololá	4	Finca Santa Victoria	7	Julio	2023-07-29T00:00:00	2024-11-08T16:00:00	1	Precipitación	0
121532	7	Sololá	701	Sololá	4	Finca Santa Victoria	7	Julio	2023-07-29T00:00:00	2024-11-08T16:00:00	8	Radiación solar	158
121533	7	Sololá	701	Sololá	4	Finca Santa Victoria	7	Julio	2023-07-29T00:00:00	2024-11-08T17:00:00	2	Temperatura media	17.2
121534	7	Sololá	701	Sololá	4	Finca Santa Victoria	7	Julio	2023-07-29T00:00:00	2024-11-08T17:00:00	4	Temperatura máxima	18.1
121535	7	Sololá	701	Sololá	4	Finca Santa Victoria	7	Julio	2023-07-29T00:00:00	2024-11-08T17:00:00	3	Temperatura mínima	17.2
121536	7	Sololá	701	Sololá	4	Finca Santa Victoria	7	Julio	2023-07-29T00:00:00	2024-11-08T17:00:00	5	Humedad	86
121537	7	Sololá	701	Sololá	4	Finca Santa Victoria	7	Julio	2023-07-29T00:00:00	2024-11-08T17:00:00	6	Velocidad del viento	1.6
121538	7	Sololá	701	Sololá	4	Finca Santa Victoria	7	Julio	2023-07-29T00:00:00	2024-11-08T17:00:00	7	Dirección del viento	1.61
121539	7	Sololá	701	Sololá	4	Finca Santa Victoria	7	Julio	2023-07-29T00:00:00	2024-11-08T17:00:00	1	Precipitación	0
121540	7	Sololá	701	Sololá	4	Finca Santa Victoria	7	Julio	2023-07-29T00:00:00	2024-11-08T17:00:00	8	Radiación solar	110
121541	7	Sololá	701	Sololá	4	Finca Santa Victoria	7	Julio	2023-07-29T00:00:00	2024-11-08T18:00:00	2	Temperatura media	16.1
121542	7	Sololá	701	Sololá	4	Finca Santa Victoria	7	Julio	2023-07-29T00:00:00	2024-11-08T18:00:00	4	Temperatura máxima	17.2
121543	7	Sololá	701	Sololá	4	Finca Santa Victoria	7	Julio	2023-07-29T00:00:00	2024-11-08T18:00:00	3	Temperatura mínima	16.1
121544	7	Sololá	701	Sololá	4	Finca Santa Victoria	7	Julio	2023-07-29T00:00:00	2024-11-08T18:00:00	5	Humedad	92
121545	7	Sololá	701	Sololá	4	Finca Santa Victoria	7	Julio	2023-07-29T00:00:00	2024-11-08T18:00:00	6	Velocidad del viento	0
121546	7	Sololá	701	Sololá	4	Finca Santa Victoria	7	Julio	2023-07-29T00:00:00	2024-11-08T18:00:00	7	Dirección del viento	0
121547	7	Sololá	701	Sololá	4	Finca Santa Victoria	7	Julio	2023-07-29T00:00:00	2024-11-08T18:00:00	1	Precipitación	0
121548	7	Sololá	701	Sololá	4	Finca Santa Victoria	7	Julio	2023-07-29T00:00:00	2024-11-08T18:00:00	8	Radiación solar	23
121549	7	Sololá	701	Sololá	4	Finca Santa Victoria	7	Julio	2023-07-29T00:00:00	2024-11-08T19:00:00	2	Temperatura media	15.4
121550	7	Sololá	701	Sololá	4	Finca Santa Victoria	7	Julio	2023-07-29T00:00:00	2024-11-08T19:00:00	4	Temperatura máxima	16.1
121551	7	Sololá	701	Sololá	4	Finca Santa Victoria	7	Julio	2023-07-29T00:00:00	2024-11-08T19:00:00	3	Temperatura mínima	15.4
121552	7	Sololá	701	Sololá	4	Finca Santa Victoria	7	Julio	2023-07-29T00:00:00	2024-11-08T19:00:00	5	Humedad	97
121553	7	Sololá	701	Sololá	4	Finca Santa Victoria	7	Julio	2023-07-29T00:00:00	2024-11-08T19:00:00	6	Velocidad del viento	0
121554	7	Sololá	701	Sololá	4	Finca Santa Victoria	7	Julio	2023-07-29T00:00:00	2024-11-08T19:00:00	7	Dirección del viento	0
121555	7	Sololá	701	Sololá	4	Finca Santa Victoria	7	Julio	2023-07-29T00:00:00	2024-11-08T19:00:00	1	Precipitación	0
121556	7	Sololá	701	Sololá	4	Finca Santa Victoria	7	Julio	2023-07-29T00:00:00	2024-11-08T19:00:00	8	Radiación solar	0
121557	7	Sololá	701	Sololá	4	Finca Santa Victoria	7	Julio	2023-07-29T00:00:00	2024-11-08T20:00:00	2	Temperatura media	14.5
121558	7	Sololá	701	Sololá	4	Finca Santa Victoria	7	Julio	2023-07-29T00:00:00	2024-11-08T20:00:00	4	Temperatura máxima	15.4
121559	7	Sololá	701	Sololá	4	Finca Santa Victoria	7	Julio	2023-07-29T00:00:00	2024-11-08T20:00:00	3	Temperatura mínima	14.5
121560	7	Sololá	701	Sololá	4	Finca Santa Victoria	7	Julio	2023-07-29T00:00:00	2024-11-08T20:00:00	5	Humedad	95
121561	7	Sololá	701	Sololá	4	Finca Santa Victoria	7	Julio	2023-07-29T00:00:00	2024-11-08T20:00:00	6	Velocidad del viento	1.6
121562	7	Sololá	701	Sololá	4	Finca Santa Victoria	7	Julio	2023-07-29T00:00:00	2024-11-08T20:00:00	7	Dirección del viento	1.61
121563	7	Sololá	701	Sololá	4	Finca Santa Victoria	7	Julio	2023-07-29T00:00:00	2024-11-08T20:00:00	1	Precipitación	0
121564	7	Sololá	701	Sololá	4	Finca Santa Victoria	7	Julio	2023-07-29T00:00:00	2024-11-08T20:00:00	8	Radiación solar	0
121565	7	Sololá	701	Sololá	4	Finca Santa Victoria	7	Julio	2023-07-29T00:00:00	2024-11-08T21:00:00	2	Temperatura media	13.6
121566	7	Sololá	701	Sololá	4	Finca Santa Victoria	7	Julio	2023-07-29T00:00:00	2024-11-08T21:00:00	4	Temperatura máxima	14.4
121567	7	Sololá	701	Sololá	4	Finca Santa Victoria	7	Julio	2023-07-29T00:00:00	2024-11-08T21:00:00	3	Temperatura mínima	13.4
121568	7	Sololá	701	Sololá	4	Finca Santa Victoria	7	Julio	2023-07-29T00:00:00	2024-11-08T21:00:00	5	Humedad	97
121569	7	Sololá	701	Sololá	4	Finca Santa Victoria	7	Julio	2023-07-29T00:00:00	2024-11-08T21:00:00	6	Velocidad del viento	3.2
121570	7	Sololá	701	Sololá	4	Finca Santa Victoria	7	Julio	2023-07-29T00:00:00	2024-11-08T21:00:00	7	Dirección del viento	3.22
121571	7	Sololá	701	Sololá	4	Finca Santa Victoria	7	Julio	2023-07-29T00:00:00	2024-11-08T21:00:00	1	Precipitación	0
121572	7	Sololá	701	Sololá	4	Finca Santa Victoria	7	Julio	2023-07-29T00:00:00	2024-11-08T21:00:00	8	Radiación solar	0
121573	7	Sololá	701	Sololá	4	Finca Santa Victoria	7	Julio	2023-07-29T00:00:00	2024-11-08T22:00:00	2	Temperatura media	13.4
121574	7	Sololá	701	Sololá	4	Finca Santa Victoria	7	Julio	2023-07-29T00:00:00	2024-11-08T22:00:00	4	Temperatura máxima	13.6
121575	7	Sololá	701	Sololá	4	Finca Santa Victoria	7	Julio	2023-07-29T00:00:00	2024-11-08T22:00:00	3	Temperatura mínima	13.4
121576	7	Sololá	701	Sololá	4	Finca Santa Victoria	7	Julio	2023-07-29T00:00:00	2024-11-08T22:00:00	5	Humedad	97
121577	7	Sololá	701	Sololá	4	Finca Santa Victoria	7	Julio	2023-07-29T00:00:00	2024-11-08T22:00:00	6	Velocidad del viento	0
121578	7	Sololá	701	Sololá	4	Finca Santa Victoria	7	Julio	2023-07-29T00:00:00	2024-11-08T22:00:00	7	Dirección del viento	0
121579	7	Sololá	701	Sololá	4	Finca Santa Victoria	7	Julio	2023-07-29T00:00:00	2024-11-08T22:00:00	1	Precipitación	0
121580	7	Sololá	701	Sololá	4	Finca Santa Victoria	7	Julio	2023-07-29T00:00:00	2024-11-08T22:00:00	8	Radiación solar	0
121581	7	Sololá	701	Sololá	4	Finca Santa Victoria	7	Julio	2023-07-29T00:00:00	2024-11-08T23:00:00	2	Temperatura media	13.3
121582	7	Sololá	701	Sololá	4	Finca Santa Victoria	7	Julio	2023-07-29T00:00:00	2024-11-08T23:00:00	4	Temperatura máxima	13.5
121583	7	Sololá	701	Sololá	4	Finca Santa Victoria	7	Julio	2023-07-29T00:00:00	2024-11-08T23:00:00	3	Temperatura mínima	13.2
121584	7	Sololá	701	Sololá	4	Finca Santa Victoria	7	Julio	2023-07-29T00:00:00	2024-11-08T23:00:00	5	Humedad	96
121585	7	Sololá	701	Sololá	4	Finca Santa Victoria	7	Julio	2023-07-29T00:00:00	2024-11-08T23:00:00	6	Velocidad del viento	0
121586	7	Sololá	701	Sololá	4	Finca Santa Victoria	7	Julio	2023-07-29T00:00:00	2024-11-08T23:00:00	7	Dirección del viento	0
121587	7	Sololá	701	Sololá	4	Finca Santa Victoria	7	Julio	2023-07-29T00:00:00	2024-11-08T23:00:00	1	Precipitación	0
121588	7	Sololá	701	Sololá	4	Finca Santa Victoria	7	Julio	2023-07-29T00:00:00	2024-11-08T23:00:00	8	Radiación solar	0
121589	7	Sololá	701	Sololá	4	Finca Santa Victoria	7	Julio	2023-07-30T00:00:00	2024-11-08T00:00:00	2	Temperatura media	13.7
121590	7	Sololá	701	Sololá	4	Finca Santa Victoria	7	Julio	2023-07-30T00:00:00	2024-11-08T00:00:00	4	Temperatura máxima	13.7
121591	7	Sololá	701	Sololá	4	Finca Santa Victoria	7	Julio	2023-07-30T00:00:00	2024-11-08T00:00:00	3	Temperatura mínima	13.3
121592	7	Sololá	701	Sololá	4	Finca Santa Victoria	7	Julio	2023-07-30T00:00:00	2024-11-08T00:00:00	5	Humedad	96
121593	7	Sololá	701	Sololá	4	Finca Santa Victoria	7	Julio	2023-07-30T00:00:00	2024-11-08T00:00:00	6	Velocidad del viento	1.6
121594	7	Sololá	701	Sololá	4	Finca Santa Victoria	7	Julio	2023-07-30T00:00:00	2024-11-08T00:00:00	7	Dirección del viento	1.61
121595	7	Sololá	701	Sololá	4	Finca Santa Victoria	7	Julio	2023-07-30T00:00:00	2024-11-08T00:00:00	1	Precipitación	0
121596	7	Sololá	701	Sololá	4	Finca Santa Victoria	7	Julio	2023-07-30T00:00:00	2024-11-08T00:00:00	8	Radiación solar	0
121597	7	Sololá	701	Sololá	4	Finca Santa Victoria	7	Julio	2023-07-30T00:00:00	2024-11-08T01:00:00	2	Temperatura media	13.7
121598	7	Sololá	701	Sololá	4	Finca Santa Victoria	7	Julio	2023-07-30T00:00:00	2024-11-08T01:00:00	4	Temperatura máxima	14.1
121599	7	Sololá	701	Sololá	4	Finca Santa Victoria	7	Julio	2023-07-30T00:00:00	2024-11-08T01:00:00	3	Temperatura mínima	13.6
121600	7	Sololá	701	Sololá	4	Finca Santa Victoria	7	Julio	2023-07-30T00:00:00	2024-11-08T01:00:00	5	Humedad	94
121601	7	Sololá	701	Sololá	4	Finca Santa Victoria	7	Julio	2023-07-30T00:00:00	2024-11-08T01:00:00	6	Velocidad del viento	1.6
121602	7	Sololá	701	Sololá	4	Finca Santa Victoria	7	Julio	2023-07-30T00:00:00	2024-11-08T01:00:00	7	Dirección del viento	1.61
121603	7	Sololá	701	Sololá	4	Finca Santa Victoria	7	Julio	2023-07-30T00:00:00	2024-11-08T01:00:00	1	Precipitación	0
121604	7	Sololá	701	Sololá	4	Finca Santa Victoria	7	Julio	2023-07-30T00:00:00	2024-11-08T01:00:00	8	Radiación solar	0
121605	7	Sololá	701	Sololá	4	Finca Santa Victoria	7	Julio	2023-07-30T00:00:00	2024-11-08T02:00:00	2	Temperatura media	13.6
121606	7	Sololá	701	Sololá	4	Finca Santa Victoria	7	Julio	2023-07-30T00:00:00	2024-11-08T02:00:00	4	Temperatura máxima	13.7
121607	7	Sololá	701	Sololá	4	Finca Santa Victoria	7	Julio	2023-07-30T00:00:00	2024-11-08T02:00:00	3	Temperatura mínima	13.4
121608	7	Sololá	701	Sololá	4	Finca Santa Victoria	7	Julio	2023-07-30T00:00:00	2024-11-08T02:00:00	5	Humedad	94
121609	7	Sololá	701	Sololá	4	Finca Santa Victoria	7	Julio	2023-07-30T00:00:00	2024-11-08T02:00:00	6	Velocidad del viento	1.6
121610	7	Sololá	701	Sololá	4	Finca Santa Victoria	7	Julio	2023-07-30T00:00:00	2024-11-08T02:00:00	7	Dirección del viento	1.61
121611	7	Sololá	701	Sololá	4	Finca Santa Victoria	7	Julio	2023-07-30T00:00:00	2024-11-08T02:00:00	1	Precipitación	0
121612	7	Sololá	701	Sololá	4	Finca Santa Victoria	7	Julio	2023-07-30T00:00:00	2024-11-08T02:00:00	8	Radiación solar	0
121613	7	Sololá	701	Sololá	4	Finca Santa Victoria	7	Julio	2023-07-30T00:00:00	2024-11-08T03:00:00	2	Temperatura media	13.3
121614	7	Sololá	701	Sololá	4	Finca Santa Victoria	7	Julio	2023-07-30T00:00:00	2024-11-08T03:00:00	4	Temperatura máxima	13.6
121615	7	Sololá	701	Sololá	4	Finca Santa Victoria	7	Julio	2023-07-30T00:00:00	2024-11-08T03:00:00	3	Temperatura mínima	13.2
121616	7	Sololá	701	Sololá	4	Finca Santa Victoria	7	Julio	2023-07-30T00:00:00	2024-11-08T03:00:00	5	Humedad	94
121617	7	Sololá	701	Sololá	4	Finca Santa Victoria	7	Julio	2023-07-30T00:00:00	2024-11-08T03:00:00	6	Velocidad del viento	1.6
121618	7	Sololá	701	Sololá	4	Finca Santa Victoria	7	Julio	2023-07-30T00:00:00	2024-11-08T03:00:00	7	Dirección del viento	1.61
121619	7	Sololá	701	Sololá	4	Finca Santa Victoria	7	Julio	2023-07-30T00:00:00	2024-11-08T03:00:00	1	Precipitación	0
121620	7	Sololá	701	Sololá	4	Finca Santa Victoria	7	Julio	2023-07-30T00:00:00	2024-11-08T03:00:00	8	Radiación solar	0
121621	7	Sololá	701	Sololá	4	Finca Santa Victoria	7	Julio	2023-07-30T00:00:00	2024-11-08T04:00:00	2	Temperatura media	13.4
121622	7	Sololá	701	Sololá	4	Finca Santa Victoria	7	Julio	2023-07-30T00:00:00	2024-11-08T04:00:00	4	Temperatura máxima	13.4
121623	7	Sololá	701	Sololá	4	Finca Santa Victoria	7	Julio	2023-07-30T00:00:00	2024-11-08T04:00:00	3	Temperatura mínima	13.2
121624	7	Sololá	701	Sololá	4	Finca Santa Victoria	7	Julio	2023-07-30T00:00:00	2024-11-08T04:00:00	5	Humedad	93
121625	7	Sololá	701	Sololá	4	Finca Santa Victoria	7	Julio	2023-07-30T00:00:00	2024-11-08T04:00:00	6	Velocidad del viento	1.6
121626	7	Sololá	701	Sololá	4	Finca Santa Victoria	7	Julio	2023-07-30T00:00:00	2024-11-08T04:00:00	7	Dirección del viento	1.61
121627	7	Sololá	701	Sololá	4	Finca Santa Victoria	7	Julio	2023-07-30T00:00:00	2024-11-08T04:00:00	1	Precipitación	0
121628	7	Sololá	701	Sololá	4	Finca Santa Victoria	7	Julio	2023-07-30T00:00:00	2024-11-08T04:00:00	8	Radiación solar	0
121629	7	Sololá	701	Sololá	4	Finca Santa Victoria	7	Julio	2023-07-30T00:00:00	2024-11-08T05:00:00	2	Temperatura media	13.6
121630	7	Sololá	701	Sololá	4	Finca Santa Victoria	7	Julio	2023-07-30T00:00:00	2024-11-08T05:00:00	4	Temperatura máxima	13.7
121631	7	Sololá	701	Sololá	4	Finca Santa Victoria	7	Julio	2023-07-30T00:00:00	2024-11-08T05:00:00	3	Temperatura mínima	13.3
121632	7	Sololá	701	Sololá	4	Finca Santa Victoria	7	Julio	2023-07-30T00:00:00	2024-11-08T05:00:00	5	Humedad	93
121633	7	Sololá	701	Sololá	4	Finca Santa Victoria	7	Julio	2023-07-30T00:00:00	2024-11-08T05:00:00	6	Velocidad del viento	1.6
121634	7	Sololá	701	Sololá	4	Finca Santa Victoria	7	Julio	2023-07-30T00:00:00	2024-11-08T05:00:00	7	Dirección del viento	1.61
121635	7	Sololá	701	Sololá	4	Finca Santa Victoria	7	Julio	2023-07-30T00:00:00	2024-11-08T05:00:00	1	Precipitación	0
121636	7	Sololá	701	Sololá	4	Finca Santa Victoria	7	Julio	2023-07-30T00:00:00	2024-11-08T05:00:00	8	Radiación solar	0
121637	7	Sololá	701	Sololá	4	Finca Santa Victoria	7	Julio	2023-07-30T00:00:00	2024-11-08T06:00:00	2	Temperatura media	13.8
121638	7	Sololá	701	Sololá	4	Finca Santa Victoria	7	Julio	2023-07-30T00:00:00	2024-11-08T06:00:00	4	Temperatura máxima	13.8
121639	7	Sololá	701	Sololá	4	Finca Santa Victoria	7	Julio	2023-07-30T00:00:00	2024-11-08T06:00:00	3	Temperatura mínima	13.5
121640	7	Sololá	701	Sololá	4	Finca Santa Victoria	7	Julio	2023-07-30T00:00:00	2024-11-08T06:00:00	5	Humedad	89
121641	7	Sololá	701	Sololá	4	Finca Santa Victoria	7	Julio	2023-07-30T00:00:00	2024-11-08T06:00:00	6	Velocidad del viento	1.6
121642	7	Sololá	701	Sololá	4	Finca Santa Victoria	7	Julio	2023-07-30T00:00:00	2024-11-08T06:00:00	7	Dirección del viento	1.61
121643	7	Sololá	701	Sololá	4	Finca Santa Victoria	7	Julio	2023-07-30T00:00:00	2024-11-08T06:00:00	1	Precipitación	0
121644	7	Sololá	701	Sololá	4	Finca Santa Victoria	7	Julio	2023-07-30T00:00:00	2024-11-08T06:00:00	8	Radiación solar	0
121645	7	Sololá	701	Sololá	4	Finca Santa Victoria	7	Julio	2023-07-30T00:00:00	2024-11-08T07:00:00	2	Temperatura media	14.4
121646	7	Sololá	701	Sololá	4	Finca Santa Victoria	7	Julio	2023-07-30T00:00:00	2024-11-08T07:00:00	4	Temperatura máxima	14.4
121647	7	Sololá	701	Sololá	4	Finca Santa Victoria	7	Julio	2023-07-30T00:00:00	2024-11-08T07:00:00	3	Temperatura mínima	13.7
121648	7	Sololá	701	Sololá	4	Finca Santa Victoria	7	Julio	2023-07-30T00:00:00	2024-11-08T07:00:00	5	Humedad	89
121649	7	Sololá	701	Sololá	4	Finca Santa Victoria	7	Julio	2023-07-30T00:00:00	2024-11-08T07:00:00	6	Velocidad del viento	1.6
121650	7	Sololá	701	Sololá	4	Finca Santa Victoria	7	Julio	2023-07-30T00:00:00	2024-11-08T07:00:00	7	Dirección del viento	1.61
121651	7	Sololá	701	Sololá	4	Finca Santa Victoria	7	Julio	2023-07-30T00:00:00	2024-11-08T07:00:00	1	Precipitación	0
121652	7	Sololá	701	Sololá	4	Finca Santa Victoria	7	Julio	2023-07-30T00:00:00	2024-11-08T07:00:00	8	Radiación solar	16
121653	7	Sololá	701	Sololá	4	Finca Santa Victoria	7	Julio	2023-07-30T00:00:00	2024-11-08T08:00:00	2	Temperatura media	17.5
121654	7	Sololá	701	Sololá	4	Finca Santa Victoria	7	Julio	2023-07-30T00:00:00	2024-11-08T08:00:00	4	Temperatura máxima	17.5
121655	7	Sololá	701	Sololá	4	Finca Santa Victoria	7	Julio	2023-07-30T00:00:00	2024-11-08T08:00:00	3	Temperatura mínima	14.4
121656	7	Sololá	701	Sololá	4	Finca Santa Victoria	7	Julio	2023-07-30T00:00:00	2024-11-08T08:00:00	5	Humedad	80
121657	7	Sololá	701	Sololá	4	Finca Santa Victoria	7	Julio	2023-07-30T00:00:00	2024-11-08T08:00:00	6	Velocidad del viento	3.2
121658	7	Sololá	701	Sololá	4	Finca Santa Victoria	7	Julio	2023-07-30T00:00:00	2024-11-08T08:00:00	7	Dirección del viento	3.22
121659	7	Sololá	701	Sololá	4	Finca Santa Victoria	7	Julio	2023-07-30T00:00:00	2024-11-08T08:00:00	1	Precipitación	0
121660	7	Sololá	701	Sololá	4	Finca Santa Victoria	7	Julio	2023-07-30T00:00:00	2024-11-08T08:00:00	8	Radiación solar	226
121661	7	Sololá	701	Sololá	4	Finca Santa Victoria	7	Julio	2023-07-30T00:00:00	2024-11-08T09:00:00	2	Temperatura media	19.5
121662	7	Sololá	701	Sololá	4	Finca Santa Victoria	7	Julio	2023-07-30T00:00:00	2024-11-08T09:00:00	4	Temperatura máxima	19.5
121663	7	Sololá	701	Sololá	4	Finca Santa Victoria	7	Julio	2023-07-30T00:00:00	2024-11-08T09:00:00	3	Temperatura mínima	17.5
121664	7	Sololá	701	Sololá	4	Finca Santa Victoria	7	Julio	2023-07-30T00:00:00	2024-11-08T09:00:00	5	Humedad	73
121665	7	Sololá	701	Sololá	4	Finca Santa Victoria	7	Julio	2023-07-30T00:00:00	2024-11-08T09:00:00	6	Velocidad del viento	3.2
121666	7	Sololá	701	Sololá	4	Finca Santa Victoria	7	Julio	2023-07-30T00:00:00	2024-11-08T09:00:00	7	Dirección del viento	3.22
121667	7	Sololá	701	Sololá	4	Finca Santa Victoria	7	Julio	2023-07-30T00:00:00	2024-11-08T09:00:00	1	Precipitación	0
121668	7	Sololá	701	Sololá	4	Finca Santa Victoria	7	Julio	2023-07-30T00:00:00	2024-11-08T09:00:00	8	Radiación solar	366
121669	7	Sololá	701	Sololá	4	Finca Santa Victoria	7	Julio	2023-07-30T00:00:00	2024-11-08T10:00:00	2	Temperatura media	20.6
121670	7	Sololá	701	Sololá	4	Finca Santa Victoria	7	Julio	2023-07-30T00:00:00	2024-11-08T10:00:00	4	Temperatura máxima	20.8
121671	7	Sololá	701	Sololá	4	Finca Santa Victoria	7	Julio	2023-07-30T00:00:00	2024-11-08T10:00:00	3	Temperatura mínima	19.4
121672	7	Sololá	701	Sololá	4	Finca Santa Victoria	7	Julio	2023-07-30T00:00:00	2024-11-08T10:00:00	5	Humedad	71
121673	7	Sololá	701	Sololá	4	Finca Santa Victoria	7	Julio	2023-07-30T00:00:00	2024-11-08T10:00:00	6	Velocidad del viento	3.2
121674	7	Sololá	701	Sololá	4	Finca Santa Victoria	7	Julio	2023-07-30T00:00:00	2024-11-08T10:00:00	7	Dirección del viento	3.22
121675	7	Sololá	701	Sololá	4	Finca Santa Victoria	7	Julio	2023-07-30T00:00:00	2024-11-08T10:00:00	1	Precipitación	0
121676	7	Sololá	701	Sololá	4	Finca Santa Victoria	7	Julio	2023-07-30T00:00:00	2024-11-08T10:00:00	8	Radiación solar	207
121677	7	Sololá	701	Sololá	4	Finca Santa Victoria	7	Julio	2023-07-30T00:00:00	2024-11-08T11:00:00	2	Temperatura media	21.9
121678	7	Sololá	701	Sololá	4	Finca Santa Victoria	7	Julio	2023-07-30T00:00:00	2024-11-08T11:00:00	4	Temperatura máxima	21.9
121679	7	Sololá	701	Sololá	4	Finca Santa Victoria	7	Julio	2023-07-30T00:00:00	2024-11-08T11:00:00	3	Temperatura mínima	20.4
121680	7	Sololá	701	Sololá	4	Finca Santa Victoria	7	Julio	2023-07-30T00:00:00	2024-11-08T11:00:00	5	Humedad	69
121681	7	Sololá	701	Sololá	4	Finca Santa Victoria	7	Julio	2023-07-30T00:00:00	2024-11-08T11:00:00	6	Velocidad del viento	3.2
121682	7	Sololá	701	Sololá	4	Finca Santa Victoria	7	Julio	2023-07-30T00:00:00	2024-11-08T11:00:00	7	Dirección del viento	3.22
121683	7	Sololá	701	Sololá	4	Finca Santa Victoria	7	Julio	2023-07-30T00:00:00	2024-11-08T11:00:00	1	Precipitación	0
121684	7	Sololá	701	Sololá	4	Finca Santa Victoria	7	Julio	2023-07-30T00:00:00	2024-11-08T11:00:00	8	Radiación solar	260
121685	7	Sololá	701	Sololá	4	Finca Santa Victoria	7	Julio	2023-07-30T00:00:00	2024-11-08T12:00:00	2	Temperatura media	21.5
121686	7	Sololá	701	Sololá	4	Finca Santa Victoria	7	Julio	2023-07-30T00:00:00	2024-11-08T12:00:00	4	Temperatura máxima	22.4
121687	7	Sololá	701	Sololá	4	Finca Santa Victoria	7	Julio	2023-07-30T00:00:00	2024-11-08T12:00:00	3	Temperatura mínima	21.5
121688	7	Sololá	701	Sololá	4	Finca Santa Victoria	7	Julio	2023-07-30T00:00:00	2024-11-08T12:00:00	5	Humedad	66
121689	7	Sololá	701	Sololá	4	Finca Santa Victoria	7	Julio	2023-07-30T00:00:00	2024-11-08T12:00:00	6	Velocidad del viento	3.2
121690	7	Sololá	701	Sololá	4	Finca Santa Victoria	7	Julio	2023-07-30T00:00:00	2024-11-08T12:00:00	7	Dirección del viento	3.22
121691	7	Sololá	701	Sololá	4	Finca Santa Victoria	7	Julio	2023-07-30T00:00:00	2024-11-08T12:00:00	1	Precipitación	0
121692	7	Sololá	701	Sololá	4	Finca Santa Victoria	7	Julio	2023-07-30T00:00:00	2024-11-08T12:00:00	8	Radiación solar	754
121693	7	Sololá	701	Sololá	4	Finca Santa Victoria	7	Julio	2023-07-30T00:00:00	2024-11-08T13:00:00	2	Temperatura media	20.8
121694	7	Sololá	701	Sololá	4	Finca Santa Victoria	7	Julio	2023-07-30T00:00:00	2024-11-08T13:00:00	4	Temperatura máxima	22.2
121695	7	Sololá	701	Sololá	4	Finca Santa Victoria	7	Julio	2023-07-30T00:00:00	2024-11-08T13:00:00	3	Temperatura mínima	20.8
121696	7	Sololá	701	Sololá	4	Finca Santa Victoria	7	Julio	2023-07-30T00:00:00	2024-11-08T13:00:00	5	Humedad	66
121697	7	Sololá	701	Sololá	4	Finca Santa Victoria	7	Julio	2023-07-30T00:00:00	2024-11-08T13:00:00	6	Velocidad del viento	3.2
121698	7	Sololá	701	Sololá	4	Finca Santa Victoria	7	Julio	2023-07-30T00:00:00	2024-11-08T13:00:00	7	Dirección del viento	3.22
121699	7	Sololá	701	Sololá	4	Finca Santa Victoria	7	Julio	2023-07-30T00:00:00	2024-11-08T13:00:00	1	Precipitación	0
121700	7	Sololá	701	Sololá	4	Finca Santa Victoria	7	Julio	2023-07-30T00:00:00	2024-11-08T13:00:00	8	Radiación solar	510
121701	7	Sololá	701	Sololá	4	Finca Santa Victoria	7	Julio	2023-07-30T00:00:00	2024-11-08T14:00:00	2	Temperatura media	20.8
121702	7	Sololá	701	Sololá	4	Finca Santa Victoria	7	Julio	2023-07-30T00:00:00	2024-11-08T14:00:00	4	Temperatura máxima	21.9
121703	7	Sololá	701	Sololá	4	Finca Santa Victoria	7	Julio	2023-07-30T00:00:00	2024-11-08T14:00:00	3	Temperatura mínima	20.7
121704	7	Sololá	701	Sololá	4	Finca Santa Victoria	7	Julio	2023-07-30T00:00:00	2024-11-08T14:00:00	5	Humedad	71
121705	7	Sololá	701	Sololá	4	Finca Santa Victoria	7	Julio	2023-07-30T00:00:00	2024-11-08T14:00:00	6	Velocidad del viento	3.2
121706	7	Sololá	701	Sololá	4	Finca Santa Victoria	7	Julio	2023-07-30T00:00:00	2024-11-08T14:00:00	7	Dirección del viento	3.22
121707	7	Sololá	701	Sololá	4	Finca Santa Victoria	7	Julio	2023-07-30T00:00:00	2024-11-08T14:00:00	1	Precipitación	0
121708	7	Sololá	701	Sololá	4	Finca Santa Victoria	7	Julio	2023-07-30T00:00:00	2024-11-08T14:00:00	8	Radiación solar	221
121709	7	Sololá	701	Sololá	4	Finca Santa Victoria	7	Julio	2023-07-30T00:00:00	2024-11-08T15:00:00	2	Temperatura media	19.6
121710	7	Sololá	701	Sololá	4	Finca Santa Victoria	7	Julio	2023-07-30T00:00:00	2024-11-08T15:00:00	4	Temperatura máxima	20.9
121711	7	Sololá	701	Sololá	4	Finca Santa Victoria	7	Julio	2023-07-30T00:00:00	2024-11-08T15:00:00	3	Temperatura mínima	19.6
121712	7	Sololá	701	Sololá	4	Finca Santa Victoria	7	Julio	2023-07-30T00:00:00	2024-11-08T15:00:00	5	Humedad	86
121713	7	Sololá	701	Sololá	4	Finca Santa Victoria	7	Julio	2023-07-30T00:00:00	2024-11-08T15:00:00	6	Velocidad del viento	1.6
121714	7	Sololá	701	Sololá	4	Finca Santa Victoria	7	Julio	2023-07-30T00:00:00	2024-11-08T15:00:00	7	Dirección del viento	1.61
121715	7	Sololá	701	Sololá	4	Finca Santa Victoria	7	Julio	2023-07-30T00:00:00	2024-11-08T15:00:00	1	Precipitación	0
121716	7	Sololá	701	Sololá	4	Finca Santa Victoria	7	Julio	2023-07-30T00:00:00	2024-11-08T15:00:00	8	Radiación solar	191
121717	7	Sololá	701	Sololá	4	Finca Santa Victoria	7	Julio	2023-07-30T00:00:00	2024-11-08T16:00:00	2	Temperatura media	18
121718	7	Sololá	701	Sololá	4	Finca Santa Victoria	7	Julio	2023-07-30T00:00:00	2024-11-08T16:00:00	4	Temperatura máxima	19.6
121719	7	Sololá	701	Sololá	4	Finca Santa Victoria	7	Julio	2023-07-30T00:00:00	2024-11-08T16:00:00	3	Temperatura mínima	17.9
121720	7	Sololá	701	Sololá	4	Finca Santa Victoria	7	Julio	2023-07-30T00:00:00	2024-11-08T16:00:00	5	Humedad	92
121721	7	Sololá	701	Sololá	4	Finca Santa Victoria	7	Julio	2023-07-30T00:00:00	2024-11-08T16:00:00	6	Velocidad del viento	1.6
121722	7	Sololá	701	Sololá	4	Finca Santa Victoria	7	Julio	2023-07-30T00:00:00	2024-11-08T16:00:00	7	Dirección del viento	1.61
121723	7	Sololá	701	Sololá	4	Finca Santa Victoria	7	Julio	2023-07-30T00:00:00	2024-11-08T16:00:00	1	Precipitación	0
121724	7	Sololá	701	Sololá	4	Finca Santa Victoria	7	Julio	2023-07-30T00:00:00	2024-11-08T16:00:00	8	Radiación solar	92
121725	7	Sololá	701	Sololá	4	Finca Santa Victoria	7	Julio	2023-07-30T00:00:00	2024-11-08T17:00:00	2	Temperatura media	17.5
121726	7	Sololá	701	Sololá	4	Finca Santa Victoria	7	Julio	2023-07-30T00:00:00	2024-11-08T17:00:00	4	Temperatura máxima	18
121727	7	Sololá	701	Sololá	4	Finca Santa Victoria	7	Julio	2023-07-30T00:00:00	2024-11-08T17:00:00	3	Temperatura mínima	17.2
121728	7	Sololá	701	Sololá	4	Finca Santa Victoria	7	Julio	2023-07-30T00:00:00	2024-11-08T17:00:00	5	Humedad	94
121729	7	Sololá	701	Sololá	4	Finca Santa Victoria	7	Julio	2023-07-30T00:00:00	2024-11-08T17:00:00	6	Velocidad del viento	1.6
121730	7	Sololá	701	Sololá	4	Finca Santa Victoria	7	Julio	2023-07-30T00:00:00	2024-11-08T17:00:00	7	Dirección del viento	1.61
121731	7	Sololá	701	Sololá	4	Finca Santa Victoria	7	Julio	2023-07-30T00:00:00	2024-11-08T17:00:00	1	Precipitación	0
121732	7	Sololá	701	Sololá	4	Finca Santa Victoria	7	Julio	2023-07-30T00:00:00	2024-11-08T17:00:00	8	Radiación solar	51
121733	7	Sololá	701	Sololá	4	Finca Santa Victoria	7	Julio	2023-07-30T00:00:00	2024-11-08T18:00:00	2	Temperatura media	18.8
121734	7	Sololá	701	Sololá	4	Finca Santa Victoria	7	Julio	2023-07-30T00:00:00	2024-11-08T18:00:00	4	Temperatura máxima	18.9
121735	7	Sololá	701	Sololá	4	Finca Santa Victoria	7	Julio	2023-07-30T00:00:00	2024-11-08T18:00:00	3	Temperatura mínima	17.4
121736	7	Sololá	701	Sololá	4	Finca Santa Victoria	7	Julio	2023-07-30T00:00:00	2024-11-08T18:00:00	5	Humedad	79
121737	7	Sololá	701	Sololá	4	Finca Santa Victoria	7	Julio	2023-07-30T00:00:00	2024-11-08T18:00:00	6	Velocidad del viento	1.6
121738	7	Sololá	701	Sololá	4	Finca Santa Victoria	7	Julio	2023-07-30T00:00:00	2024-11-08T18:00:00	7	Dirección del viento	1.61
121739	7	Sololá	701	Sololá	4	Finca Santa Victoria	7	Julio	2023-07-30T00:00:00	2024-11-08T18:00:00	1	Precipitación	0
121740	7	Sololá	701	Sololá	4	Finca Santa Victoria	7	Julio	2023-07-30T00:00:00	2024-11-08T18:00:00	8	Radiación solar	70
121741	7	Sololá	701	Sololá	4	Finca Santa Victoria	7	Julio	2023-07-30T00:00:00	2024-11-08T19:00:00	2	Temperatura media	16.8
121742	7	Sololá	701	Sololá	4	Finca Santa Victoria	7	Julio	2023-07-30T00:00:00	2024-11-08T19:00:00	4	Temperatura máxima	18.8
121743	7	Sololá	701	Sololá	4	Finca Santa Victoria	7	Julio	2023-07-30T00:00:00	2024-11-08T19:00:00	3	Temperatura mínima	16.8
121744	7	Sololá	701	Sololá	4	Finca Santa Victoria	7	Julio	2023-07-30T00:00:00	2024-11-08T19:00:00	5	Humedad	93
121745	7	Sololá	701	Sololá	4	Finca Santa Victoria	7	Julio	2023-07-30T00:00:00	2024-11-08T19:00:00	6	Velocidad del viento	1.6
121746	7	Sololá	701	Sololá	4	Finca Santa Victoria	7	Julio	2023-07-30T00:00:00	2024-11-08T19:00:00	7	Dirección del viento	1.61
121747	7	Sololá	701	Sololá	4	Finca Santa Victoria	7	Julio	2023-07-30T00:00:00	2024-11-08T19:00:00	1	Precipitación	0
121748	7	Sololá	701	Sololá	4	Finca Santa Victoria	7	Julio	2023-07-30T00:00:00	2024-11-08T19:00:00	8	Radiación solar	0
121749	7	Sololá	701	Sololá	4	Finca Santa Victoria	7	Julio	2023-07-30T00:00:00	2024-11-08T20:00:00	2	Temperatura media	16.1
121750	7	Sololá	701	Sololá	4	Finca Santa Victoria	7	Julio	2023-07-30T00:00:00	2024-11-08T20:00:00	4	Temperatura máxima	16.8
121751	7	Sololá	701	Sololá	4	Finca Santa Victoria	7	Julio	2023-07-30T00:00:00	2024-11-08T20:00:00	3	Temperatura mínima	16
121752	7	Sololá	701	Sololá	4	Finca Santa Victoria	7	Julio	2023-07-30T00:00:00	2024-11-08T20:00:00	5	Humedad	93
121753	7	Sololá	701	Sololá	4	Finca Santa Victoria	7	Julio	2023-07-30T00:00:00	2024-11-08T20:00:00	6	Velocidad del viento	0
121754	7	Sololá	701	Sololá	4	Finca Santa Victoria	7	Julio	2023-07-30T00:00:00	2024-11-08T20:00:00	7	Dirección del viento	0
121755	7	Sololá	701	Sololá	4	Finca Santa Victoria	7	Julio	2023-07-30T00:00:00	2024-11-08T20:00:00	1	Precipitación	0
121756	7	Sololá	701	Sololá	4	Finca Santa Victoria	7	Julio	2023-07-30T00:00:00	2024-11-08T20:00:00	8	Radiación solar	0
121757	7	Sololá	701	Sololá	4	Finca Santa Victoria	7	Julio	2023-07-30T00:00:00	2024-11-08T21:00:00	2	Temperatura media	15.4
121758	7	Sololá	701	Sololá	4	Finca Santa Victoria	7	Julio	2023-07-30T00:00:00	2024-11-08T21:00:00	4	Temperatura máxima	16.1
121759	7	Sololá	701	Sololá	4	Finca Santa Victoria	7	Julio	2023-07-30T00:00:00	2024-11-08T21:00:00	3	Temperatura mínima	15.4
121760	7	Sololá	701	Sololá	4	Finca Santa Victoria	7	Julio	2023-07-30T00:00:00	2024-11-08T21:00:00	5	Humedad	91
121761	7	Sololá	701	Sololá	4	Finca Santa Victoria	7	Julio	2023-07-30T00:00:00	2024-11-08T21:00:00	6	Velocidad del viento	0
121762	7	Sololá	701	Sololá	4	Finca Santa Victoria	7	Julio	2023-07-30T00:00:00	2024-11-08T21:00:00	7	Dirección del viento	0
121763	7	Sololá	701	Sololá	4	Finca Santa Victoria	7	Julio	2023-07-30T00:00:00	2024-11-08T21:00:00	1	Precipitación	0.4
121764	7	Sololá	701	Sololá	4	Finca Santa Victoria	7	Julio	2023-07-30T00:00:00	2024-11-08T21:00:00	8	Radiación solar	0
121765	7	Sololá	701	Sololá	4	Finca Santa Victoria	7	Julio	2023-07-30T00:00:00	2024-11-08T22:00:00	2	Temperatura media	14.4
121766	7	Sololá	701	Sololá	4	Finca Santa Victoria	7	Julio	2023-07-30T00:00:00	2024-11-08T22:00:00	4	Temperatura máxima	15.4
121767	7	Sololá	701	Sololá	4	Finca Santa Victoria	7	Julio	2023-07-30T00:00:00	2024-11-08T22:00:00	3	Temperatura mínima	14.4
121768	7	Sololá	701	Sololá	4	Finca Santa Victoria	7	Julio	2023-07-30T00:00:00	2024-11-08T22:00:00	5	Humedad	95
121769	7	Sololá	701	Sololá	4	Finca Santa Victoria	7	Julio	2023-07-30T00:00:00	2024-11-08T22:00:00	6	Velocidad del viento	0
121770	7	Sololá	701	Sololá	4	Finca Santa Victoria	7	Julio	2023-07-30T00:00:00	2024-11-08T22:00:00	7	Dirección del viento	0
121771	7	Sololá	701	Sololá	4	Finca Santa Victoria	7	Julio	2023-07-30T00:00:00	2024-11-08T22:00:00	1	Precipitación	1
121772	7	Sololá	701	Sololá	4	Finca Santa Victoria	7	Julio	2023-07-30T00:00:00	2024-11-08T22:00:00	8	Radiación solar	0
121773	7	Sololá	701	Sololá	4	Finca Santa Victoria	7	Julio	2023-07-30T00:00:00	2024-11-08T23:00:00	2	Temperatura media	14.3
121774	7	Sololá	701	Sololá	4	Finca Santa Victoria	7	Julio	2023-07-30T00:00:00	2024-11-08T23:00:00	4	Temperatura máxima	14.6
121775	7	Sololá	701	Sololá	4	Finca Santa Victoria	7	Julio	2023-07-30T00:00:00	2024-11-08T23:00:00	3	Temperatura mínima	14.3
121776	7	Sololá	701	Sololá	4	Finca Santa Victoria	7	Julio	2023-07-30T00:00:00	2024-11-08T23:00:00	5	Humedad	95
121777	7	Sololá	701	Sololá	4	Finca Santa Victoria	7	Julio	2023-07-30T00:00:00	2024-11-08T23:00:00	6	Velocidad del viento	1.6
121778	7	Sololá	701	Sololá	4	Finca Santa Victoria	7	Julio	2023-07-30T00:00:00	2024-11-08T23:00:00	7	Dirección del viento	1.61
121779	7	Sololá	701	Sololá	4	Finca Santa Victoria	7	Julio	2023-07-30T00:00:00	2024-11-08T23:00:00	1	Precipitación	1.4
121780	7	Sololá	701	Sololá	4	Finca Santa Victoria	7	Julio	2023-07-30T00:00:00	2024-11-08T23:00:00	8	Radiación solar	0
121781	7	Sololá	701	Sololá	4	Finca Santa Victoria	7	Julio	2023-07-31T00:00:00	2024-11-08T00:00:00	2	Temperatura media	13.8
121782	7	Sololá	701	Sololá	4	Finca Santa Victoria	7	Julio	2023-07-31T00:00:00	2024-11-08T00:00:00	4	Temperatura máxima	14.3
121783	7	Sololá	701	Sololá	4	Finca Santa Victoria	7	Julio	2023-07-31T00:00:00	2024-11-08T00:00:00	3	Temperatura mínima	13.8
121784	7	Sololá	701	Sololá	4	Finca Santa Victoria	7	Julio	2023-07-31T00:00:00	2024-11-08T00:00:00	5	Humedad	96
121785	7	Sololá	701	Sololá	4	Finca Santa Victoria	7	Julio	2023-07-31T00:00:00	2024-11-08T00:00:00	6	Velocidad del viento	0
121786	7	Sololá	701	Sololá	4	Finca Santa Victoria	7	Julio	2023-07-31T00:00:00	2024-11-08T00:00:00	7	Dirección del viento	0
121787	7	Sololá	701	Sololá	4	Finca Santa Victoria	7	Julio	2023-07-31T00:00:00	2024-11-08T00:00:00	1	Precipitación	1.6
121788	7	Sololá	701	Sololá	4	Finca Santa Victoria	7	Julio	2023-07-31T00:00:00	2024-11-08T00:00:00	8	Radiación solar	0
121789	7	Sololá	701	Sololá	4	Finca Santa Victoria	7	Julio	2023-07-31T00:00:00	2024-11-08T01:00:00	2	Temperatura media	13.3
121790	7	Sololá	701	Sololá	4	Finca Santa Victoria	7	Julio	2023-07-31T00:00:00	2024-11-08T01:00:00	4	Temperatura máxima	13.7
121791	7	Sololá	701	Sololá	4	Finca Santa Victoria	7	Julio	2023-07-31T00:00:00	2024-11-08T01:00:00	3	Temperatura mínima	13.1
121792	7	Sololá	701	Sololá	4	Finca Santa Victoria	7	Julio	2023-07-31T00:00:00	2024-11-08T01:00:00	5	Humedad	97
121793	7	Sololá	701	Sololá	4	Finca Santa Victoria	7	Julio	2023-07-31T00:00:00	2024-11-08T01:00:00	6	Velocidad del viento	1.6
121794	7	Sololá	701	Sololá	4	Finca Santa Victoria	7	Julio	2023-07-31T00:00:00	2024-11-08T01:00:00	7	Dirección del viento	1.61
121795	7	Sololá	701	Sololá	4	Finca Santa Victoria	7	Julio	2023-07-31T00:00:00	2024-11-08T01:00:00	1	Precipitación	1.4
121796	7	Sololá	701	Sololá	4	Finca Santa Victoria	7	Julio	2023-07-31T00:00:00	2024-11-08T01:00:00	8	Radiación solar	0
121797	7	Sololá	701	Sololá	4	Finca Santa Victoria	7	Julio	2023-07-31T00:00:00	2024-11-08T02:00:00	2	Temperatura media	12.7
121798	7	Sololá	701	Sololá	4	Finca Santa Victoria	7	Julio	2023-07-31T00:00:00	2024-11-08T02:00:00	4	Temperatura máxima	13.3
121799	7	Sololá	701	Sololá	4	Finca Santa Victoria	7	Julio	2023-07-31T00:00:00	2024-11-08T02:00:00	3	Temperatura mínima	12.7
121800	7	Sololá	701	Sololá	4	Finca Santa Victoria	7	Julio	2023-07-31T00:00:00	2024-11-08T02:00:00	5	Humedad	95
121801	7	Sololá	701	Sololá	4	Finca Santa Victoria	7	Julio	2023-07-31T00:00:00	2024-11-08T02:00:00	6	Velocidad del viento	4.8
121802	7	Sololá	701	Sololá	4	Finca Santa Victoria	7	Julio	2023-07-31T00:00:00	2024-11-08T02:00:00	7	Dirección del viento	4.83
121803	7	Sololá	701	Sololá	4	Finca Santa Victoria	7	Julio	2023-07-31T00:00:00	2024-11-08T02:00:00	1	Precipitación	5.6
121804	7	Sololá	701	Sololá	4	Finca Santa Victoria	7	Julio	2023-07-31T00:00:00	2024-11-08T02:00:00	8	Radiación solar	0
121805	7	Sololá	701	Sololá	4	Finca Santa Victoria	7	Julio	2023-07-31T00:00:00	2024-11-08T03:00:00	2	Temperatura media	12.5
121806	7	Sololá	701	Sololá	4	Finca Santa Victoria	7	Julio	2023-07-31T00:00:00	2024-11-08T03:00:00	4	Temperatura máxima	12.7
121807	7	Sololá	701	Sololá	4	Finca Santa Victoria	7	Julio	2023-07-31T00:00:00	2024-11-08T03:00:00	3	Temperatura mínima	12.3
121808	7	Sololá	701	Sololá	4	Finca Santa Victoria	7	Julio	2023-07-31T00:00:00	2024-11-08T03:00:00	5	Humedad	95
121809	7	Sololá	701	Sololá	4	Finca Santa Victoria	7	Julio	2023-07-31T00:00:00	2024-11-08T03:00:00	6	Velocidad del viento	3.2
121810	7	Sololá	701	Sololá	4	Finca Santa Victoria	7	Julio	2023-07-31T00:00:00	2024-11-08T03:00:00	7	Dirección del viento	3.22
121811	7	Sololá	701	Sololá	4	Finca Santa Victoria	7	Julio	2023-07-31T00:00:00	2024-11-08T03:00:00	1	Precipitación	1.8
121812	7	Sololá	701	Sololá	4	Finca Santa Victoria	7	Julio	2023-07-31T00:00:00	2024-11-08T03:00:00	8	Radiación solar	0
121813	7	Sololá	701	Sololá	4	Finca Santa Victoria	7	Julio	2023-07-31T00:00:00	2024-11-08T04:00:00	2	Temperatura media	13.1
121814	7	Sololá	701	Sololá	4	Finca Santa Victoria	7	Julio	2023-07-31T00:00:00	2024-11-08T04:00:00	4	Temperatura máxima	13.1
121815	7	Sololá	701	Sololá	4	Finca Santa Victoria	7	Julio	2023-07-31T00:00:00	2024-11-08T04:00:00	3	Temperatura mínima	12.2
121816	7	Sololá	701	Sololá	4	Finca Santa Victoria	7	Julio	2023-07-31T00:00:00	2024-11-08T04:00:00	5	Humedad	89
121817	7	Sololá	701	Sololá	4	Finca Santa Victoria	7	Julio	2023-07-31T00:00:00	2024-11-08T04:00:00	6	Velocidad del viento	1.6
121818	7	Sololá	701	Sololá	4	Finca Santa Victoria	7	Julio	2023-07-31T00:00:00	2024-11-08T04:00:00	7	Dirección del viento	1.61
121819	7	Sololá	701	Sololá	4	Finca Santa Victoria	7	Julio	2023-07-31T00:00:00	2024-11-08T04:00:00	1	Precipitación	0.2
121820	7	Sololá	701	Sololá	4	Finca Santa Victoria	7	Julio	2023-07-31T00:00:00	2024-11-08T04:00:00	8	Radiación solar	0
121821	7	Sololá	701	Sololá	4	Finca Santa Victoria	7	Julio	2023-07-31T00:00:00	2024-11-08T05:00:00	2	Temperatura media	12.7
121822	7	Sololá	701	Sololá	4	Finca Santa Victoria	7	Julio	2023-07-31T00:00:00	2024-11-08T05:00:00	4	Temperatura máxima	13.7
121823	7	Sololá	701	Sololá	4	Finca Santa Victoria	7	Julio	2023-07-31T00:00:00	2024-11-08T05:00:00	3	Temperatura mínima	12.4
121824	7	Sololá	701	Sololá	4	Finca Santa Victoria	7	Julio	2023-07-31T00:00:00	2024-11-08T05:00:00	5	Humedad	91
121825	7	Sololá	701	Sololá	4	Finca Santa Victoria	7	Julio	2023-07-31T00:00:00	2024-11-08T05:00:00	6	Velocidad del viento	1.6
121826	7	Sololá	701	Sololá	4	Finca Santa Victoria	7	Julio	2023-07-31T00:00:00	2024-11-08T05:00:00	7	Dirección del viento	1.61
121827	7	Sololá	701	Sololá	4	Finca Santa Victoria	7	Julio	2023-07-31T00:00:00	2024-11-08T05:00:00	1	Precipitación	0.2
121828	7	Sololá	701	Sololá	4	Finca Santa Victoria	7	Julio	2023-07-31T00:00:00	2024-11-08T05:00:00	8	Radiación solar	0
121829	7	Sololá	701	Sololá	4	Finca Santa Victoria	7	Julio	2023-07-31T00:00:00	2024-11-08T06:00:00	2	Temperatura media	12.5
121830	7	Sololá	701	Sololá	4	Finca Santa Victoria	7	Julio	2023-07-31T00:00:00	2024-11-08T06:00:00	4	Temperatura máxima	12.9
121831	7	Sololá	701	Sololá	4	Finca Santa Victoria	7	Julio	2023-07-31T00:00:00	2024-11-08T06:00:00	3	Temperatura mínima	12.5
121832	7	Sololá	701	Sololá	4	Finca Santa Victoria	7	Julio	2023-07-31T00:00:00	2024-11-08T06:00:00	5	Humedad	91
121833	7	Sololá	701	Sololá	4	Finca Santa Victoria	7	Julio	2023-07-31T00:00:00	2024-11-08T06:00:00	6	Velocidad del viento	1.6
121834	7	Sololá	701	Sololá	4	Finca Santa Victoria	7	Julio	2023-07-31T00:00:00	2024-11-08T06:00:00	7	Dirección del viento	1.61
121835	7	Sololá	701	Sololá	4	Finca Santa Victoria	7	Julio	2023-07-31T00:00:00	2024-11-08T06:00:00	1	Precipitación	0
121836	7	Sololá	701	Sololá	4	Finca Santa Victoria	7	Julio	2023-07-31T00:00:00	2024-11-08T06:00:00	8	Radiación solar	1
121837	7	Sololá	701	Sololá	4	Finca Santa Victoria	7	Julio	2023-07-31T00:00:00	2024-11-08T07:00:00	2	Temperatura media	13
121838	7	Sololá	701	Sololá	4	Finca Santa Victoria	7	Julio	2023-07-31T00:00:00	2024-11-08T07:00:00	4	Temperatura máxima	13
121839	7	Sololá	701	Sololá	4	Finca Santa Victoria	7	Julio	2023-07-31T00:00:00	2024-11-08T07:00:00	3	Temperatura mínima	12.4
121840	7	Sololá	701	Sololá	4	Finca Santa Victoria	7	Julio	2023-07-31T00:00:00	2024-11-08T07:00:00	5	Humedad	89
121841	7	Sololá	701	Sololá	4	Finca Santa Victoria	7	Julio	2023-07-31T00:00:00	2024-11-08T07:00:00	6	Velocidad del viento	0
121842	7	Sololá	701	Sololá	4	Finca Santa Victoria	7	Julio	2023-07-31T00:00:00	2024-11-08T07:00:00	7	Dirección del viento	0
121843	7	Sololá	701	Sololá	4	Finca Santa Victoria	7	Julio	2023-07-31T00:00:00	2024-11-08T07:00:00	1	Precipitación	0
121844	7	Sololá	701	Sololá	4	Finca Santa Victoria	7	Julio	2023-07-31T00:00:00	2024-11-08T07:00:00	8	Radiación solar	30
121845	7	Sololá	701	Sololá	4	Finca Santa Victoria	7	Julio	2023-07-31T00:00:00	2024-11-08T08:00:00	2	Temperatura media	15.2
121846	7	Sololá	701	Sololá	4	Finca Santa Victoria	7	Julio	2023-07-31T00:00:00	2024-11-08T08:00:00	4	Temperatura máxima	15.2
121847	7	Sololá	701	Sololá	4	Finca Santa Victoria	7	Julio	2023-07-31T00:00:00	2024-11-08T08:00:00	3	Temperatura mínima	13
121848	7	Sololá	701	Sololá	4	Finca Santa Victoria	7	Julio	2023-07-31T00:00:00	2024-11-08T08:00:00	5	Humedad	86
121849	7	Sololá	701	Sololá	4	Finca Santa Victoria	7	Julio	2023-07-31T00:00:00	2024-11-08T08:00:00	6	Velocidad del viento	0
121850	7	Sololá	701	Sololá	4	Finca Santa Victoria	7	Julio	2023-07-31T00:00:00	2024-11-08T08:00:00	7	Dirección del viento	0
121851	7	Sololá	701	Sololá	4	Finca Santa Victoria	7	Julio	2023-07-31T00:00:00	2024-11-08T08:00:00	1	Precipitación	0
121852	7	Sololá	701	Sololá	4	Finca Santa Victoria	7	Julio	2023-07-31T00:00:00	2024-11-08T08:00:00	8	Radiación solar	101
121853	7	Sololá	701	Sololá	4	Finca Santa Victoria	7	Julio	2023-07-31T00:00:00	2024-11-08T09:00:00	2	Temperatura media	18
121854	7	Sololá	701	Sololá	4	Finca Santa Victoria	7	Julio	2023-07-31T00:00:00	2024-11-08T09:00:00	4	Temperatura máxima	18
121855	7	Sololá	701	Sololá	4	Finca Santa Victoria	7	Julio	2023-07-31T00:00:00	2024-11-08T09:00:00	3	Temperatura mínima	15.2
121856	7	Sololá	701	Sololá	4	Finca Santa Victoria	7	Julio	2023-07-31T00:00:00	2024-11-08T09:00:00	5	Humedad	75
121857	7	Sololá	701	Sololá	4	Finca Santa Victoria	7	Julio	2023-07-31T00:00:00	2024-11-08T09:00:00	6	Velocidad del viento	1.6
121858	7	Sololá	701	Sololá	4	Finca Santa Victoria	7	Julio	2023-07-31T00:00:00	2024-11-08T09:00:00	7	Dirección del viento	1.61
121859	7	Sololá	701	Sololá	4	Finca Santa Victoria	7	Julio	2023-07-31T00:00:00	2024-11-08T09:00:00	1	Precipitación	0
121860	7	Sololá	701	Sololá	4	Finca Santa Victoria	7	Julio	2023-07-31T00:00:00	2024-11-08T09:00:00	8	Radiación solar	216
121861	7	Sololá	701	Sololá	4	Finca Santa Victoria	7	Julio	2023-07-31T00:00:00	2024-11-08T10:00:00	2	Temperatura media	20.7
121862	7	Sololá	701	Sololá	4	Finca Santa Victoria	7	Julio	2023-07-31T00:00:00	2024-11-08T10:00:00	4	Temperatura máxima	20.7
121863	7	Sololá	701	Sololá	4	Finca Santa Victoria	7	Julio	2023-07-31T00:00:00	2024-11-08T10:00:00	3	Temperatura mínima	18
121864	7	Sololá	701	Sololá	4	Finca Santa Victoria	7	Julio	2023-07-31T00:00:00	2024-11-08T10:00:00	5	Humedad	68
121865	7	Sololá	701	Sololá	4	Finca Santa Victoria	7	Julio	2023-07-31T00:00:00	2024-11-08T10:00:00	6	Velocidad del viento	1.6
121866	7	Sololá	701	Sololá	4	Finca Santa Victoria	7	Julio	2023-07-31T00:00:00	2024-11-08T10:00:00	7	Dirección del viento	1.61
121867	7	Sololá	701	Sololá	4	Finca Santa Victoria	7	Julio	2023-07-31T00:00:00	2024-11-08T10:00:00	1	Precipitación	0
121868	7	Sololá	701	Sololá	4	Finca Santa Victoria	7	Julio	2023-07-31T00:00:00	2024-11-08T10:00:00	8	Radiación solar	325
121869	7	Sololá	701	Sololá	4	Finca Santa Victoria	7	Julio	2023-07-31T00:00:00	2024-11-08T11:00:00	2	Temperatura media	20.7
121870	7	Sololá	701	Sololá	4	Finca Santa Victoria	7	Julio	2023-07-31T00:00:00	2024-11-08T11:00:00	4	Temperatura máxima	21.2
121871	7	Sololá	701	Sololá	4	Finca Santa Victoria	7	Julio	2023-07-31T00:00:00	2024-11-08T11:00:00	3	Temperatura mínima	19.8
121872	7	Sololá	701	Sololá	4	Finca Santa Victoria	7	Julio	2023-07-31T00:00:00	2024-11-08T11:00:00	5	Humedad	67
121873	7	Sololá	701	Sololá	4	Finca Santa Victoria	7	Julio	2023-07-31T00:00:00	2024-11-08T11:00:00	6	Velocidad del viento	3.2
121874	7	Sololá	701	Sololá	4	Finca Santa Victoria	7	Julio	2023-07-31T00:00:00	2024-11-08T11:00:00	7	Dirección del viento	3.22
121875	7	Sololá	701	Sololá	4	Finca Santa Victoria	7	Julio	2023-07-31T00:00:00	2024-11-08T11:00:00	1	Precipitación	0
121876	7	Sololá	701	Sololá	4	Finca Santa Victoria	7	Julio	2023-07-31T00:00:00	2024-11-08T11:00:00	8	Radiación solar	274
121877	7	Sololá	701	Sololá	4	Finca Santa Victoria	7	Julio	2023-07-31T00:00:00	2024-11-08T12:00:00	2	Temperatura media	21.8
121878	7	Sololá	701	Sololá	4	Finca Santa Victoria	7	Julio	2023-07-31T00:00:00	2024-11-08T12:00:00	4	Temperatura máxima	21.8
121879	7	Sololá	701	Sololá	4	Finca Santa Victoria	7	Julio	2023-07-31T00:00:00	2024-11-08T12:00:00	3	Temperatura mínima	20.3
121880	7	Sololá	701	Sololá	4	Finca Santa Victoria	7	Julio	2023-07-31T00:00:00	2024-11-08T12:00:00	5	Humedad	61
121881	7	Sololá	701	Sololá	4	Finca Santa Victoria	7	Julio	2023-07-31T00:00:00	2024-11-08T12:00:00	6	Velocidad del viento	3.2
121882	7	Sololá	701	Sololá	4	Finca Santa Victoria	7	Julio	2023-07-31T00:00:00	2024-11-08T12:00:00	7	Dirección del viento	3.22
121883	7	Sololá	701	Sololá	4	Finca Santa Victoria	7	Julio	2023-07-31T00:00:00	2024-11-08T12:00:00	1	Precipitación	0
121884	7	Sololá	701	Sololá	4	Finca Santa Victoria	7	Julio	2023-07-31T00:00:00	2024-11-08T12:00:00	8	Radiación solar	712
121885	7	Sololá	701	Sololá	4	Finca Santa Victoria	7	Julio	2023-07-31T00:00:00	2024-11-08T13:00:00	2	Temperatura media	23.1
121886	7	Sololá	701	Sololá	4	Finca Santa Victoria	7	Julio	2023-07-31T00:00:00	2024-11-08T13:00:00	4	Temperatura máxima	23.1
121887	7	Sololá	701	Sololá	4	Finca Santa Victoria	7	Julio	2023-07-31T00:00:00	2024-11-08T13:00:00	3	Temperatura mínima	21.7
121888	7	Sololá	701	Sololá	4	Finca Santa Victoria	7	Julio	2023-07-31T00:00:00	2024-11-08T13:00:00	5	Humedad	64
121889	7	Sololá	701	Sololá	4	Finca Santa Victoria	7	Julio	2023-07-31T00:00:00	2024-11-08T13:00:00	6	Velocidad del viento	3.2
121890	7	Sololá	701	Sololá	4	Finca Santa Victoria	7	Julio	2023-07-31T00:00:00	2024-11-08T13:00:00	7	Dirección del viento	3.22
121891	7	Sololá	701	Sololá	4	Finca Santa Victoria	7	Julio	2023-07-31T00:00:00	2024-11-08T13:00:00	1	Precipitación	0
121892	7	Sololá	701	Sololá	4	Finca Santa Victoria	7	Julio	2023-07-31T00:00:00	2024-11-08T13:00:00	8	Radiación solar	1035
121893	7	Sololá	701	Sololá	4	Finca Santa Victoria	7	Julio	2023-07-31T00:00:00	2024-11-08T14:00:00	2	Temperatura media	22.4
121894	7	Sololá	701	Sololá	4	Finca Santa Victoria	7	Julio	2023-07-31T00:00:00	2024-11-08T14:00:00	4	Temperatura máxima	23.4
121895	7	Sololá	701	Sololá	4	Finca Santa Victoria	7	Julio	2023-07-31T00:00:00	2024-11-08T14:00:00	3	Temperatura mínima	22
121896	7	Sololá	701	Sololá	4	Finca Santa Victoria	7	Julio	2023-07-31T00:00:00	2024-11-08T14:00:00	5	Humedad	70
121897	7	Sololá	701	Sololá	4	Finca Santa Victoria	7	Julio	2023-07-31T00:00:00	2024-11-08T14:00:00	6	Velocidad del viento	1.6
121898	7	Sololá	701	Sololá	4	Finca Santa Victoria	7	Julio	2023-07-31T00:00:00	2024-11-08T14:00:00	7	Dirección del viento	1.61
121899	7	Sololá	701	Sololá	4	Finca Santa Victoria	7	Julio	2023-07-31T00:00:00	2024-11-08T14:00:00	1	Precipitación	0
121900	7	Sololá	701	Sololá	4	Finca Santa Victoria	7	Julio	2023-07-31T00:00:00	2024-11-08T14:00:00	8	Radiación solar	301
121901	7	Sololá	701	Sololá	4	Finca Santa Victoria	7	Julio	2023-07-31T00:00:00	2024-11-08T15:00:00	2	Temperatura media	20.4
121902	7	Sololá	701	Sololá	4	Finca Santa Victoria	7	Julio	2023-07-31T00:00:00	2024-11-08T15:00:00	4	Temperatura máxima	22.6
121903	7	Sololá	701	Sololá	4	Finca Santa Victoria	7	Julio	2023-07-31T00:00:00	2024-11-08T15:00:00	3	Temperatura mínima	20.4
121904	7	Sololá	701	Sololá	4	Finca Santa Victoria	7	Julio	2023-07-31T00:00:00	2024-11-08T15:00:00	5	Humedad	83
121905	7	Sololá	701	Sololá	4	Finca Santa Victoria	7	Julio	2023-07-31T00:00:00	2024-11-08T15:00:00	6	Velocidad del viento	1.6
121906	7	Sololá	701	Sololá	4	Finca Santa Victoria	7	Julio	2023-07-31T00:00:00	2024-11-08T15:00:00	7	Dirección del viento	1.61
121907	7	Sololá	701	Sololá	4	Finca Santa Victoria	7	Julio	2023-07-31T00:00:00	2024-11-08T15:00:00	1	Precipitación	0
121908	7	Sololá	701	Sololá	4	Finca Santa Victoria	7	Julio	2023-07-31T00:00:00	2024-11-08T15:00:00	8	Radiación solar	148
121909	7	Sololá	701	Sololá	4	Finca Santa Victoria	7	Julio	2023-07-31T00:00:00	2024-11-08T16:00:00	2	Temperatura media	20.6
121910	7	Sololá	701	Sololá	4	Finca Santa Victoria	7	Julio	2023-07-31T00:00:00	2024-11-08T16:00:00	4	Temperatura máxima	21.4
121911	7	Sololá	701	Sololá	4	Finca Santa Victoria	7	Julio	2023-07-31T00:00:00	2024-11-08T16:00:00	3	Temperatura mínima	19.4
121912	7	Sololá	701	Sololá	4	Finca Santa Victoria	7	Julio	2023-07-31T00:00:00	2024-11-08T16:00:00	5	Humedad	82
121913	7	Sololá	701	Sololá	4	Finca Santa Victoria	7	Julio	2023-07-31T00:00:00	2024-11-08T16:00:00	6	Velocidad del viento	1.6
121914	7	Sololá	701	Sololá	4	Finca Santa Victoria	7	Julio	2023-07-31T00:00:00	2024-11-08T16:00:00	7	Dirección del viento	1.61
121915	7	Sololá	701	Sololá	4	Finca Santa Victoria	7	Julio	2023-07-31T00:00:00	2024-11-08T16:00:00	1	Precipitación	0
121916	7	Sololá	701	Sololá	4	Finca Santa Victoria	7	Julio	2023-07-31T00:00:00	2024-11-08T16:00:00	8	Radiación solar	109
121917	7	Sololá	701	Sololá	4	Finca Santa Victoria	7	Julio	2023-07-31T00:00:00	2024-11-08T17:00:00	2	Temperatura media	17.6
121918	7	Sololá	701	Sololá	4	Finca Santa Victoria	7	Julio	2023-07-31T00:00:00	2024-11-08T17:00:00	4	Temperatura máxima	20.6
121919	7	Sololá	701	Sololá	4	Finca Santa Victoria	7	Julio	2023-07-31T00:00:00	2024-11-08T17:00:00	3	Temperatura mínima	17.6
121920	7	Sololá	701	Sololá	4	Finca Santa Victoria	7	Julio	2023-07-31T00:00:00	2024-11-08T17:00:00	5	Humedad	93
121921	7	Sololá	701	Sololá	4	Finca Santa Victoria	7	Julio	2023-07-31T00:00:00	2024-11-08T17:00:00	6	Velocidad del viento	1.6
121922	7	Sololá	701	Sololá	4	Finca Santa Victoria	7	Julio	2023-07-31T00:00:00	2024-11-08T17:00:00	7	Dirección del viento	1.61
121923	7	Sololá	701	Sololá	4	Finca Santa Victoria	7	Julio	2023-07-31T00:00:00	2024-11-08T17:00:00	1	Precipitación	0
121924	7	Sololá	701	Sololá	4	Finca Santa Victoria	7	Julio	2023-07-31T00:00:00	2024-11-08T17:00:00	8	Radiación solar	75
121925	7	Sololá	701	Sololá	4	Finca Santa Victoria	7	Julio	2023-07-31T00:00:00	2024-11-08T18:00:00	2	Temperatura media	17.3
121926	7	Sololá	701	Sololá	4	Finca Santa Victoria	7	Julio	2023-07-31T00:00:00	2024-11-08T18:00:00	4	Temperatura máxima	17.6
121927	7	Sololá	701	Sololá	4	Finca Santa Victoria	7	Julio	2023-07-31T00:00:00	2024-11-08T18:00:00	3	Temperatura mínima	17.1
121928	7	Sololá	701	Sololá	4	Finca Santa Victoria	7	Julio	2023-07-31T00:00:00	2024-11-08T18:00:00	5	Humedad	95
121929	7	Sololá	701	Sololá	4	Finca Santa Victoria	7	Julio	2023-07-31T00:00:00	2024-11-08T18:00:00	6	Velocidad del viento	1.6
121930	7	Sololá	701	Sololá	4	Finca Santa Victoria	7	Julio	2023-07-31T00:00:00	2024-11-08T18:00:00	7	Dirección del viento	1.61
121931	7	Sololá	701	Sololá	4	Finca Santa Victoria	7	Julio	2023-07-31T00:00:00	2024-11-08T18:00:00	1	Precipitación	0
121932	7	Sololá	701	Sololá	4	Finca Santa Victoria	7	Julio	2023-07-31T00:00:00	2024-11-08T18:00:00	8	Radiación solar	52
121933	7	Sololá	701	Sololá	4	Finca Santa Victoria	7	Julio	2023-07-31T00:00:00	2024-11-08T19:00:00	2	Temperatura media	16.3
121934	7	Sololá	701	Sololá	4	Finca Santa Victoria	7	Julio	2023-07-31T00:00:00	2024-11-08T19:00:00	4	Temperatura máxima	17.3
121935	7	Sololá	701	Sololá	4	Finca Santa Victoria	7	Julio	2023-07-31T00:00:00	2024-11-08T19:00:00	3	Temperatura mínima	16.2
121936	7	Sololá	701	Sololá	4	Finca Santa Victoria	7	Julio	2023-07-31T00:00:00	2024-11-08T19:00:00	5	Humedad	91
121937	7	Sololá	701	Sololá	4	Finca Santa Victoria	7	Julio	2023-07-31T00:00:00	2024-11-08T19:00:00	6	Velocidad del viento	0
121938	7	Sololá	701	Sololá	4	Finca Santa Victoria	7	Julio	2023-07-31T00:00:00	2024-11-08T19:00:00	7	Dirección del viento	0
121939	7	Sololá	701	Sololá	4	Finca Santa Victoria	7	Julio	2023-07-31T00:00:00	2024-11-08T19:00:00	1	Precipitación	0
121940	7	Sololá	701	Sololá	4	Finca Santa Victoria	7	Julio	2023-07-31T00:00:00	2024-11-08T19:00:00	8	Radiación solar	0
121941	7	Sololá	701	Sololá	4	Finca Santa Victoria	7	Julio	2023-07-31T00:00:00	2024-11-08T20:00:00	2	Temperatura media	15.8
121942	7	Sololá	701	Sololá	4	Finca Santa Victoria	7	Julio	2023-07-31T00:00:00	2024-11-08T20:00:00	4	Temperatura máxima	16.3
121943	7	Sololá	701	Sololá	4	Finca Santa Victoria	7	Julio	2023-07-31T00:00:00	2024-11-08T20:00:00	3	Temperatura mínima	15.6
121944	7	Sololá	701	Sololá	4	Finca Santa Victoria	7	Julio	2023-07-31T00:00:00	2024-11-08T20:00:00	5	Humedad	89
121945	7	Sololá	701	Sololá	4	Finca Santa Victoria	7	Julio	2023-07-31T00:00:00	2024-11-08T20:00:00	6	Velocidad del viento	1.6
121946	7	Sololá	701	Sololá	4	Finca Santa Victoria	7	Julio	2023-07-31T00:00:00	2024-11-08T20:00:00	7	Dirección del viento	1.61
121947	7	Sololá	701	Sololá	4	Finca Santa Victoria	7	Julio	2023-07-31T00:00:00	2024-11-08T20:00:00	1	Precipitación	0
121948	7	Sololá	701	Sololá	4	Finca Santa Victoria	7	Julio	2023-07-31T00:00:00	2024-11-08T20:00:00	8	Radiación solar	0
121949	7	Sololá	701	Sololá	4	Finca Santa Victoria	7	Julio	2023-07-31T00:00:00	2024-11-08T21:00:00	2	Temperatura media	15.5
121950	7	Sololá	701	Sololá	4	Finca Santa Victoria	7	Julio	2023-07-31T00:00:00	2024-11-08T21:00:00	4	Temperatura máxima	16
121951	7	Sololá	701	Sololá	4	Finca Santa Victoria	7	Julio	2023-07-31T00:00:00	2024-11-08T21:00:00	3	Temperatura mínima	15.5
121952	7	Sololá	701	Sololá	4	Finca Santa Victoria	7	Julio	2023-07-31T00:00:00	2024-11-08T21:00:00	5	Humedad	87
121953	7	Sololá	701	Sololá	4	Finca Santa Victoria	7	Julio	2023-07-31T00:00:00	2024-11-08T21:00:00	6	Velocidad del viento	3.2
121954	7	Sololá	701	Sololá	4	Finca Santa Victoria	7	Julio	2023-07-31T00:00:00	2024-11-08T21:00:00	7	Dirección del viento	3.22
121955	7	Sololá	701	Sololá	4	Finca Santa Victoria	7	Julio	2023-07-31T00:00:00	2024-11-08T21:00:00	1	Precipitación	0
121956	7	Sololá	701	Sololá	4	Finca Santa Victoria	7	Julio	2023-07-31T00:00:00	2024-11-08T21:00:00	8	Radiación solar	0
121957	7	Sololá	701	Sololá	4	Finca Santa Victoria	7	Julio	2023-07-31T00:00:00	2024-11-08T22:00:00	2	Temperatura media	14.9
121958	7	Sololá	701	Sololá	4	Finca Santa Victoria	7	Julio	2023-07-31T00:00:00	2024-11-08T22:00:00	4	Temperatura máxima	15.6
121959	7	Sololá	701	Sololá	4	Finca Santa Victoria	7	Julio	2023-07-31T00:00:00	2024-11-08T22:00:00	3	Temperatura mínima	14.8
121960	7	Sololá	701	Sololá	4	Finca Santa Victoria	7	Julio	2023-07-31T00:00:00	2024-11-08T22:00:00	5	Humedad	89
121961	7	Sololá	701	Sololá	4	Finca Santa Victoria	7	Julio	2023-07-31T00:00:00	2024-11-08T22:00:00	6	Velocidad del viento	1.6
121962	7	Sololá	701	Sololá	4	Finca Santa Victoria	7	Julio	2023-07-31T00:00:00	2024-11-08T22:00:00	7	Dirección del viento	1.61
121963	7	Sololá	701	Sololá	4	Finca Santa Victoria	7	Julio	2023-07-31T00:00:00	2024-11-08T22:00:00	1	Precipitación	0
121964	7	Sololá	701	Sololá	4	Finca Santa Victoria	7	Julio	2023-07-31T00:00:00	2024-11-08T22:00:00	8	Radiación solar	0
121965	7	Sololá	701	Sololá	4	Finca Santa Victoria	7	Julio	2023-07-31T00:00:00	2024-11-08T23:00:00	2	Temperatura media	14.8
121966	7	Sololá	701	Sololá	4	Finca Santa Victoria	7	Julio	2023-07-31T00:00:00	2024-11-08T23:00:00	4	Temperatura máxima	14.9
121967	7	Sololá	701	Sololá	4	Finca Santa Victoria	7	Julio	2023-07-31T00:00:00	2024-11-08T23:00:00	3	Temperatura mínima	14.6
121968	7	Sololá	701	Sololá	4	Finca Santa Victoria	7	Julio	2023-07-31T00:00:00	2024-11-08T23:00:00	5	Humedad	90
121969	7	Sololá	701	Sololá	4	Finca Santa Victoria	7	Julio	2023-07-31T00:00:00	2024-11-08T23:00:00	6	Velocidad del viento	1.6
121970	7	Sololá	701	Sololá	4	Finca Santa Victoria	7	Julio	2023-07-31T00:00:00	2024-11-08T23:00:00	7	Dirección del viento	1.61
121971	7	Sololá	701	Sololá	4	Finca Santa Victoria	7	Julio	2023-07-31T00:00:00	2024-11-08T23:00:00	1	Precipitación	0
121972	7	Sololá	701	Sololá	4	Finca Santa Victoria	7	Julio	2023-07-31T00:00:00	2024-11-08T23:00:00	8	Radiación solar	0
121973	7	Sololá	701	Sololá	4	Finca Santa Victoria	8	Agosto	2023-01-08T00:00:00	2024-11-08T00:00:00	2	Temperatura media	15
121974	7	Sololá	701	Sololá	4	Finca Santa Victoria	8	Agosto	2023-01-08T00:00:00	2024-11-08T00:00:00	4	Temperatura máxima	15.1
121975	7	Sololá	701	Sololá	4	Finca Santa Victoria	8	Agosto	2023-01-08T00:00:00	2024-11-08T00:00:00	3	Temperatura mínima	14.7
121976	7	Sololá	701	Sololá	4	Finca Santa Victoria	8	Agosto	2023-01-08T00:00:00	2024-11-08T00:00:00	5	Humedad	89
121977	7	Sololá	701	Sololá	4	Finca Santa Victoria	8	Agosto	2023-01-08T00:00:00	2024-11-08T00:00:00	6	Velocidad del viento	1.6
121978	7	Sololá	701	Sololá	4	Finca Santa Victoria	8	Agosto	2023-01-08T00:00:00	2024-11-08T00:00:00	7	Dirección del viento	1.61
121979	7	Sololá	701	Sololá	4	Finca Santa Victoria	8	Agosto	2023-01-08T00:00:00	2024-11-08T00:00:00	1	Precipitación	0
121980	7	Sololá	701	Sololá	4	Finca Santa Victoria	8	Agosto	2023-01-08T00:00:00	2024-11-08T00:00:00	8	Radiación solar	0
121981	7	Sololá	701	Sololá	4	Finca Santa Victoria	8	Agosto	2023-01-08T00:00:00	2024-11-08T01:00:00	2	Temperatura media	15
121982	7	Sololá	701	Sololá	4	Finca Santa Victoria	8	Agosto	2023-01-08T00:00:00	2024-11-08T01:00:00	4	Temperatura máxima	15.2
121983	7	Sololá	701	Sololá	4	Finca Santa Victoria	8	Agosto	2023-01-08T00:00:00	2024-11-08T01:00:00	3	Temperatura mínima	14.9
121984	7	Sololá	701	Sololá	4	Finca Santa Victoria	8	Agosto	2023-01-08T00:00:00	2024-11-08T01:00:00	5	Humedad	89
121985	7	Sololá	701	Sololá	4	Finca Santa Victoria	8	Agosto	2023-01-08T00:00:00	2024-11-08T01:00:00	6	Velocidad del viento	1.6
121986	7	Sololá	701	Sololá	4	Finca Santa Victoria	8	Agosto	2023-01-08T00:00:00	2024-11-08T01:00:00	7	Dirección del viento	1.61
121987	7	Sololá	701	Sololá	4	Finca Santa Victoria	8	Agosto	2023-01-08T00:00:00	2024-11-08T01:00:00	1	Precipitación	0
121988	7	Sololá	701	Sololá	4	Finca Santa Victoria	8	Agosto	2023-01-08T00:00:00	2024-11-08T01:00:00	8	Radiación solar	0
121989	7	Sololá	701	Sololá	4	Finca Santa Victoria	8	Agosto	2023-01-08T00:00:00	2024-11-08T02:00:00	2	Temperatura media	14.2
121990	7	Sololá	701	Sololá	4	Finca Santa Victoria	8	Agosto	2023-01-08T00:00:00	2024-11-08T02:00:00	4	Temperatura máxima	15
121991	7	Sololá	701	Sololá	4	Finca Santa Victoria	8	Agosto	2023-01-08T00:00:00	2024-11-08T02:00:00	3	Temperatura mínima	14.2
121992	7	Sololá	701	Sololá	4	Finca Santa Victoria	8	Agosto	2023-01-08T00:00:00	2024-11-08T02:00:00	5	Humedad	95
121993	7	Sololá	701	Sololá	4	Finca Santa Victoria	8	Agosto	2023-01-08T00:00:00	2024-11-08T02:00:00	6	Velocidad del viento	1.6
121994	7	Sololá	701	Sololá	4	Finca Santa Victoria	8	Agosto	2023-01-08T00:00:00	2024-11-08T02:00:00	7	Dirección del viento	1.61
121995	7	Sololá	701	Sololá	4	Finca Santa Victoria	8	Agosto	2023-01-08T00:00:00	2024-11-08T02:00:00	1	Precipitación	4.8
121996	7	Sololá	701	Sololá	4	Finca Santa Victoria	8	Agosto	2023-01-08T00:00:00	2024-11-08T02:00:00	8	Radiación solar	0
121997	7	Sololá	701	Sololá	4	Finca Santa Victoria	8	Agosto	2023-01-08T00:00:00	2024-11-08T03:00:00	2	Temperatura media	13.8
121998	7	Sololá	701	Sololá	4	Finca Santa Victoria	8	Agosto	2023-01-08T00:00:00	2024-11-08T03:00:00	4	Temperatura máxima	14.2
121999	7	Sololá	701	Sololá	4	Finca Santa Victoria	8	Agosto	2023-01-08T00:00:00	2024-11-08T03:00:00	3	Temperatura mínima	13.8
122000	7	Sololá	701	Sololá	4	Finca Santa Victoria	8	Agosto	2023-01-08T00:00:00	2024-11-08T03:00:00	5	Humedad	96
122001	7	Sololá	701	Sololá	4	Finca Santa Victoria	8	Agosto	2023-01-08T00:00:00	2024-11-08T03:00:00	6	Velocidad del viento	1.6
122002	7	Sololá	701	Sololá	4	Finca Santa Victoria	8	Agosto	2023-01-08T00:00:00	2024-11-08T03:00:00	7	Dirección del viento	1.61
122003	7	Sololá	701	Sololá	4	Finca Santa Victoria	8	Agosto	2023-01-08T00:00:00	2024-11-08T03:00:00	1	Precipitación	0.4
122004	7	Sololá	701	Sololá	4	Finca Santa Victoria	8	Agosto	2023-01-08T00:00:00	2024-11-08T03:00:00	8	Radiación solar	0
122005	7	Sololá	701	Sololá	4	Finca Santa Victoria	8	Agosto	2023-01-08T00:00:00	2024-11-08T04:00:00	2	Temperatura media	13.6
122006	7	Sololá	701	Sololá	4	Finca Santa Victoria	8	Agosto	2023-01-08T00:00:00	2024-11-08T04:00:00	4	Temperatura máxima	13.9
122007	7	Sololá	701	Sololá	4	Finca Santa Victoria	8	Agosto	2023-01-08T00:00:00	2024-11-08T04:00:00	3	Temperatura mínima	13.6
122008	7	Sololá	701	Sololá	4	Finca Santa Victoria	8	Agosto	2023-01-08T00:00:00	2024-11-08T04:00:00	5	Humedad	96
122009	7	Sololá	701	Sololá	4	Finca Santa Victoria	8	Agosto	2023-01-08T00:00:00	2024-11-08T04:00:00	6	Velocidad del viento	0
122010	7	Sololá	701	Sololá	4	Finca Santa Victoria	8	Agosto	2023-01-08T00:00:00	2024-11-08T04:00:00	7	Dirección del viento	0
122011	7	Sololá	701	Sololá	4	Finca Santa Victoria	8	Agosto	2023-01-08T00:00:00	2024-11-08T04:00:00	1	Precipitación	0
122012	7	Sololá	701	Sololá	4	Finca Santa Victoria	8	Agosto	2023-01-08T00:00:00	2024-11-08T04:00:00	8	Radiación solar	0
122013	7	Sololá	701	Sololá	4	Finca Santa Victoria	8	Agosto	2023-01-08T00:00:00	2024-11-08T05:00:00	2	Temperatura media	13.3
122014	7	Sololá	701	Sololá	4	Finca Santa Victoria	8	Agosto	2023-01-08T00:00:00	2024-11-08T05:00:00	4	Temperatura máxima	13.6
122015	7	Sololá	701	Sololá	4	Finca Santa Victoria	8	Agosto	2023-01-08T00:00:00	2024-11-08T05:00:00	3	Temperatura mínima	13.2
122016	7	Sololá	701	Sololá	4	Finca Santa Victoria	8	Agosto	2023-01-08T00:00:00	2024-11-08T05:00:00	5	Humedad	96
122017	7	Sololá	701	Sololá	4	Finca Santa Victoria	8	Agosto	2023-01-08T00:00:00	2024-11-08T05:00:00	6	Velocidad del viento	0
122018	7	Sololá	701	Sololá	4	Finca Santa Victoria	8	Agosto	2023-01-08T00:00:00	2024-11-08T05:00:00	7	Dirección del viento	0
122019	7	Sololá	701	Sololá	4	Finca Santa Victoria	8	Agosto	2023-01-08T00:00:00	2024-11-08T05:00:00	1	Precipitación	0
122020	7	Sololá	701	Sololá	4	Finca Santa Victoria	8	Agosto	2023-01-08T00:00:00	2024-11-08T05:00:00	8	Radiación solar	0
122021	7	Sololá	701	Sololá	4	Finca Santa Victoria	8	Agosto	2023-01-08T00:00:00	2024-11-08T06:00:00	2	Temperatura media	13.4
122022	7	Sololá	701	Sololá	4	Finca Santa Victoria	8	Agosto	2023-01-08T00:00:00	2024-11-08T06:00:00	4	Temperatura máxima	13.6
122023	7	Sololá	701	Sololá	4	Finca Santa Victoria	8	Agosto	2023-01-08T00:00:00	2024-11-08T06:00:00	3	Temperatura mínima	13.2
122024	7	Sololá	701	Sololá	4	Finca Santa Victoria	8	Agosto	2023-01-08T00:00:00	2024-11-08T06:00:00	5	Humedad	94
122025	7	Sololá	701	Sololá	4	Finca Santa Victoria	8	Agosto	2023-01-08T00:00:00	2024-11-08T06:00:00	6	Velocidad del viento	1.6
122026	7	Sololá	701	Sololá	4	Finca Santa Victoria	8	Agosto	2023-01-08T00:00:00	2024-11-08T06:00:00	7	Dirección del viento	1.61
122027	7	Sololá	701	Sololá	4	Finca Santa Victoria	8	Agosto	2023-01-08T00:00:00	2024-11-08T06:00:00	1	Precipitación	0
122028	7	Sololá	701	Sololá	4	Finca Santa Victoria	8	Agosto	2023-01-08T00:00:00	2024-11-08T06:00:00	8	Radiación solar	0
122029	7	Sololá	701	Sololá	4	Finca Santa Victoria	8	Agosto	2023-01-08T00:00:00	2024-11-08T07:00:00	2	Temperatura media	13.9
122030	7	Sololá	701	Sololá	4	Finca Santa Victoria	8	Agosto	2023-01-08T00:00:00	2024-11-08T07:00:00	4	Temperatura máxima	13.9
122031	7	Sololá	701	Sololá	4	Finca Santa Victoria	8	Agosto	2023-01-08T00:00:00	2024-11-08T07:00:00	3	Temperatura mínima	12.9
122032	7	Sololá	701	Sololá	4	Finca Santa Victoria	8	Agosto	2023-01-08T00:00:00	2024-11-08T07:00:00	5	Humedad	94
122033	7	Sololá	701	Sololá	4	Finca Santa Victoria	8	Agosto	2023-01-08T00:00:00	2024-11-08T07:00:00	6	Velocidad del viento	0
122034	7	Sololá	701	Sololá	4	Finca Santa Victoria	8	Agosto	2023-01-08T00:00:00	2024-11-08T07:00:00	7	Dirección del viento	0
122035	7	Sololá	701	Sololá	4	Finca Santa Victoria	8	Agosto	2023-01-08T00:00:00	2024-11-08T07:00:00	1	Precipitación	0
122036	7	Sololá	701	Sololá	4	Finca Santa Victoria	8	Agosto	2023-01-08T00:00:00	2024-11-08T07:00:00	8	Radiación solar	27
122037	7	Sololá	701	Sololá	4	Finca Santa Victoria	8	Agosto	2023-01-08T00:00:00	2024-11-08T08:00:00	2	Temperatura media	17.8
122038	7	Sololá	701	Sololá	4	Finca Santa Victoria	8	Agosto	2023-01-08T00:00:00	2024-11-08T08:00:00	4	Temperatura máxima	17.8
122039	7	Sololá	701	Sololá	4	Finca Santa Victoria	8	Agosto	2023-01-08T00:00:00	2024-11-08T08:00:00	3	Temperatura mínima	13.9
122040	7	Sololá	701	Sololá	4	Finca Santa Victoria	8	Agosto	2023-01-08T00:00:00	2024-11-08T08:00:00	5	Humedad	81
122041	7	Sololá	701	Sololá	4	Finca Santa Victoria	8	Agosto	2023-01-08T00:00:00	2024-11-08T08:00:00	6	Velocidad del viento	0
122042	7	Sololá	701	Sololá	4	Finca Santa Victoria	8	Agosto	2023-01-08T00:00:00	2024-11-08T08:00:00	7	Dirección del viento	0
122043	7	Sololá	701	Sololá	4	Finca Santa Victoria	8	Agosto	2023-01-08T00:00:00	2024-11-08T08:00:00	1	Precipitación	0
122044	7	Sololá	701	Sololá	4	Finca Santa Victoria	8	Agosto	2023-01-08T00:00:00	2024-11-08T08:00:00	8	Radiación solar	264
122045	7	Sololá	701	Sololá	4	Finca Santa Victoria	8	Agosto	2023-01-08T00:00:00	2024-11-08T09:00:00	2	Temperatura media	18.6
122046	7	Sololá	701	Sololá	4	Finca Santa Victoria	8	Agosto	2023-01-08T00:00:00	2024-11-08T09:00:00	4	Temperatura máxima	18.7
122047	7	Sololá	701	Sololá	4	Finca Santa Victoria	8	Agosto	2023-01-08T00:00:00	2024-11-08T09:00:00	3	Temperatura mínima	17.8
122048	7	Sololá	701	Sololá	4	Finca Santa Victoria	8	Agosto	2023-01-08T00:00:00	2024-11-08T09:00:00	5	Humedad	75
122049	7	Sololá	701	Sololá	4	Finca Santa Victoria	8	Agosto	2023-01-08T00:00:00	2024-11-08T09:00:00	6	Velocidad del viento	1.6
122050	7	Sololá	701	Sololá	4	Finca Santa Victoria	8	Agosto	2023-01-08T00:00:00	2024-11-08T09:00:00	7	Dirección del viento	1.61
122051	7	Sololá	701	Sololá	4	Finca Santa Victoria	8	Agosto	2023-01-08T00:00:00	2024-11-08T09:00:00	1	Precipitación	0
122052	7	Sololá	701	Sololá	4	Finca Santa Victoria	8	Agosto	2023-01-08T00:00:00	2024-11-08T09:00:00	8	Radiación solar	354
122053	7	Sololá	701	Sololá	4	Finca Santa Victoria	8	Agosto	2023-01-08T00:00:00	2024-11-08T10:00:00	2	Temperatura media	19.3
122054	7	Sololá	701	Sololá	4	Finca Santa Victoria	8	Agosto	2023-01-08T00:00:00	2024-11-08T10:00:00	4	Temperatura máxima	19.3
122055	7	Sololá	701	Sololá	4	Finca Santa Victoria	8	Agosto	2023-01-08T00:00:00	2024-11-08T10:00:00	3	Temperatura mínima	18.6
122056	7	Sololá	701	Sololá	4	Finca Santa Victoria	8	Agosto	2023-01-08T00:00:00	2024-11-08T10:00:00	5	Humedad	75
122057	7	Sololá	701	Sololá	4	Finca Santa Victoria	8	Agosto	2023-01-08T00:00:00	2024-11-08T10:00:00	6	Velocidad del viento	1.6
122058	7	Sololá	701	Sololá	4	Finca Santa Victoria	8	Agosto	2023-01-08T00:00:00	2024-11-08T10:00:00	7	Dirección del viento	1.61
122059	7	Sololá	701	Sololá	4	Finca Santa Victoria	8	Agosto	2023-01-08T00:00:00	2024-11-08T10:00:00	1	Precipitación	0
122060	7	Sololá	701	Sololá	4	Finca Santa Victoria	8	Agosto	2023-01-08T00:00:00	2024-11-08T10:00:00	8	Radiación solar	201
122061	7	Sololá	701	Sololá	4	Finca Santa Victoria	8	Agosto	2023-01-08T00:00:00	2024-11-08T11:00:00	2	Temperatura media	20.1
122062	7	Sololá	701	Sololá	4	Finca Santa Victoria	8	Agosto	2023-01-08T00:00:00	2024-11-08T11:00:00	4	Temperatura máxima	20.4
122063	7	Sololá	701	Sololá	4	Finca Santa Victoria	8	Agosto	2023-01-08T00:00:00	2024-11-08T11:00:00	3	Temperatura mínima	19.3
122064	7	Sololá	701	Sololá	4	Finca Santa Victoria	8	Agosto	2023-01-08T00:00:00	2024-11-08T11:00:00	5	Humedad	70
122065	7	Sololá	701	Sololá	4	Finca Santa Victoria	8	Agosto	2023-01-08T00:00:00	2024-11-08T11:00:00	6	Velocidad del viento	1.6
122066	7	Sololá	701	Sololá	4	Finca Santa Victoria	8	Agosto	2023-01-08T00:00:00	2024-11-08T11:00:00	7	Dirección del viento	1.61
122067	7	Sololá	701	Sololá	4	Finca Santa Victoria	8	Agosto	2023-01-08T00:00:00	2024-11-08T11:00:00	1	Precipitación	0
122068	7	Sololá	701	Sololá	4	Finca Santa Victoria	8	Agosto	2023-01-08T00:00:00	2024-11-08T11:00:00	8	Radiación solar	207
122069	7	Sololá	701	Sololá	4	Finca Santa Victoria	8	Agosto	2023-01-08T00:00:00	2024-11-08T12:00:00	2	Temperatura media	20
122070	7	Sololá	701	Sololá	4	Finca Santa Victoria	8	Agosto	2023-01-08T00:00:00	2024-11-08T12:00:00	4	Temperatura máxima	21.1
122071	7	Sololá	701	Sololá	4	Finca Santa Victoria	8	Agosto	2023-01-08T00:00:00	2024-11-08T12:00:00	3	Temperatura mínima	19.9
122072	7	Sololá	701	Sololá	4	Finca Santa Victoria	8	Agosto	2023-01-08T00:00:00	2024-11-08T12:00:00	5	Humedad	72
122073	7	Sololá	701	Sololá	4	Finca Santa Victoria	8	Agosto	2023-01-08T00:00:00	2024-11-08T12:00:00	6	Velocidad del viento	3.2
122074	7	Sololá	701	Sololá	4	Finca Santa Victoria	8	Agosto	2023-01-08T00:00:00	2024-11-08T12:00:00	7	Dirección del viento	3.22
122075	7	Sololá	701	Sololá	4	Finca Santa Victoria	8	Agosto	2023-01-08T00:00:00	2024-11-08T12:00:00	1	Precipitación	0
122076	7	Sololá	701	Sololá	4	Finca Santa Victoria	8	Agosto	2023-01-08T00:00:00	2024-11-08T12:00:00	8	Radiación solar	357
122077	7	Sololá	701	Sololá	4	Finca Santa Victoria	8	Agosto	2023-01-08T00:00:00	2024-11-08T13:00:00	2	Temperatura media	20.6
122078	7	Sololá	701	Sololá	4	Finca Santa Victoria	8	Agosto	2023-01-08T00:00:00	2024-11-08T13:00:00	4	Temperatura máxima	21.5
122079	7	Sololá	701	Sololá	4	Finca Santa Victoria	8	Agosto	2023-01-08T00:00:00	2024-11-08T13:00:00	3	Temperatura mínima	20
122080	7	Sololá	701	Sololá	4	Finca Santa Victoria	8	Agosto	2023-01-08T00:00:00	2024-11-08T13:00:00	5	Humedad	66
122081	7	Sololá	701	Sololá	4	Finca Santa Victoria	8	Agosto	2023-01-08T00:00:00	2024-11-08T13:00:00	6	Velocidad del viento	3.2
122082	7	Sololá	701	Sololá	4	Finca Santa Victoria	8	Agosto	2023-01-08T00:00:00	2024-11-08T13:00:00	7	Dirección del viento	3.22
122083	7	Sololá	701	Sololá	4	Finca Santa Victoria	8	Agosto	2023-01-08T00:00:00	2024-11-08T13:00:00	1	Precipitación	0
122084	7	Sololá	701	Sololá	4	Finca Santa Victoria	8	Agosto	2023-01-08T00:00:00	2024-11-08T13:00:00	8	Radiación solar	425
122085	7	Sololá	701	Sololá	4	Finca Santa Victoria	8	Agosto	2023-01-08T00:00:00	2024-11-08T14:00:00	2	Temperatura media	19.7
122086	7	Sololá	701	Sololá	4	Finca Santa Victoria	8	Agosto	2023-01-08T00:00:00	2024-11-08T14:00:00	4	Temperatura máxima	21.7
122087	7	Sololá	701	Sololá	4	Finca Santa Victoria	8	Agosto	2023-01-08T00:00:00	2024-11-08T14:00:00	3	Temperatura mínima	19.3
122088	7	Sololá	701	Sololá	4	Finca Santa Victoria	8	Agosto	2023-01-08T00:00:00	2024-11-08T14:00:00	5	Humedad	82
122089	7	Sololá	701	Sololá	4	Finca Santa Victoria	8	Agosto	2023-01-08T00:00:00	2024-11-08T14:00:00	6	Velocidad del viento	3.2
122090	7	Sololá	701	Sololá	4	Finca Santa Victoria	8	Agosto	2023-01-08T00:00:00	2024-11-08T14:00:00	7	Dirección del viento	3.22
122091	7	Sololá	701	Sololá	4	Finca Santa Victoria	8	Agosto	2023-01-08T00:00:00	2024-11-08T14:00:00	1	Precipitación	0
122092	7	Sololá	701	Sololá	4	Finca Santa Victoria	8	Agosto	2023-01-08T00:00:00	2024-11-08T14:00:00	8	Radiación solar	198
122093	7	Sololá	701	Sololá	4	Finca Santa Victoria	8	Agosto	2023-01-08T00:00:00	2024-11-08T15:00:00	2	Temperatura media	18.6
122094	7	Sololá	701	Sololá	4	Finca Santa Victoria	8	Agosto	2023-01-08T00:00:00	2024-11-08T15:00:00	4	Temperatura máxima	19.9
122095	7	Sololá	701	Sololá	4	Finca Santa Victoria	8	Agosto	2023-01-08T00:00:00	2024-11-08T15:00:00	3	Temperatura mínima	18.6
122096	7	Sololá	701	Sololá	4	Finca Santa Victoria	8	Agosto	2023-01-08T00:00:00	2024-11-08T15:00:00	5	Humedad	90
122097	7	Sololá	701	Sololá	4	Finca Santa Victoria	8	Agosto	2023-01-08T00:00:00	2024-11-08T15:00:00	6	Velocidad del viento	3.2
122098	7	Sololá	701	Sololá	4	Finca Santa Victoria	8	Agosto	2023-01-08T00:00:00	2024-11-08T15:00:00	7	Dirección del viento	3.22
122099	7	Sololá	701	Sololá	4	Finca Santa Victoria	8	Agosto	2023-01-08T00:00:00	2024-11-08T15:00:00	1	Precipitación	0
122100	7	Sololá	701	Sololá	4	Finca Santa Victoria	8	Agosto	2023-01-08T00:00:00	2024-11-08T15:00:00	8	Radiación solar	143
122101	7	Sololá	701	Sololá	4	Finca Santa Victoria	8	Agosto	2023-01-08T00:00:00	2024-11-08T16:00:00	2	Temperatura media	17.4
122102	7	Sololá	701	Sololá	4	Finca Santa Victoria	8	Agosto	2023-01-08T00:00:00	2024-11-08T16:00:00	4	Temperatura máxima	19.1
122103	7	Sololá	701	Sololá	4	Finca Santa Victoria	8	Agosto	2023-01-08T00:00:00	2024-11-08T16:00:00	3	Temperatura mínima	17.4
122104	7	Sololá	701	Sololá	4	Finca Santa Victoria	8	Agosto	2023-01-08T00:00:00	2024-11-08T16:00:00	5	Humedad	94
122105	7	Sololá	701	Sololá	4	Finca Santa Victoria	8	Agosto	2023-01-08T00:00:00	2024-11-08T16:00:00	6	Velocidad del viento	3.2
122106	7	Sololá	701	Sololá	4	Finca Santa Victoria	8	Agosto	2023-01-08T00:00:00	2024-11-08T16:00:00	7	Dirección del viento	3.22
122107	7	Sololá	701	Sololá	4	Finca Santa Victoria	8	Agosto	2023-01-08T00:00:00	2024-11-08T16:00:00	1	Precipitación	0
122108	7	Sololá	701	Sololá	4	Finca Santa Victoria	8	Agosto	2023-01-08T00:00:00	2024-11-08T16:00:00	8	Radiación solar	99
122109	7	Sololá	701	Sololá	4	Finca Santa Victoria	8	Agosto	2023-01-08T00:00:00	2024-11-08T17:00:00	2	Temperatura media	15.8
122110	7	Sololá	701	Sololá	4	Finca Santa Victoria	8	Agosto	2023-01-08T00:00:00	2024-11-08T17:00:00	4	Temperatura máxima	17.5
122111	7	Sololá	701	Sololá	4	Finca Santa Victoria	8	Agosto	2023-01-08T00:00:00	2024-11-08T17:00:00	3	Temperatura mínima	15.8
122112	7	Sololá	701	Sololá	4	Finca Santa Victoria	8	Agosto	2023-01-08T00:00:00	2024-11-08T17:00:00	5	Humedad	96
122113	7	Sololá	701	Sololá	4	Finca Santa Victoria	8	Agosto	2023-01-08T00:00:00	2024-11-08T17:00:00	6	Velocidad del viento	1.6
122114	7	Sololá	701	Sololá	4	Finca Santa Victoria	8	Agosto	2023-01-08T00:00:00	2024-11-08T17:00:00	7	Dirección del viento	1.61
122115	7	Sololá	701	Sololá	4	Finca Santa Victoria	8	Agosto	2023-01-08T00:00:00	2024-11-08T17:00:00	1	Precipitación	0
122116	7	Sololá	701	Sololá	4	Finca Santa Victoria	8	Agosto	2023-01-08T00:00:00	2024-11-08T17:00:00	8	Radiación solar	14
122117	7	Sololá	701	Sololá	4	Finca Santa Victoria	8	Agosto	2023-01-08T00:00:00	2024-11-08T18:00:00	2	Temperatura media	14.8
122118	7	Sololá	701	Sololá	4	Finca Santa Victoria	8	Agosto	2023-01-08T00:00:00	2024-11-08T18:00:00	4	Temperatura máxima	15.8
122119	7	Sololá	701	Sololá	4	Finca Santa Victoria	8	Agosto	2023-01-08T00:00:00	2024-11-08T18:00:00	3	Temperatura mínima	14.8
122120	7	Sololá	701	Sololá	4	Finca Santa Victoria	8	Agosto	2023-01-08T00:00:00	2024-11-08T18:00:00	5	Humedad	98
122121	7	Sololá	701	Sololá	4	Finca Santa Victoria	8	Agosto	2023-01-08T00:00:00	2024-11-08T18:00:00	6	Velocidad del viento	1.6
122122	7	Sololá	701	Sololá	4	Finca Santa Victoria	8	Agosto	2023-01-08T00:00:00	2024-11-08T18:00:00	7	Dirección del viento	1.61
122123	7	Sololá	701	Sololá	4	Finca Santa Victoria	8	Agosto	2023-01-08T00:00:00	2024-11-08T18:00:00	1	Precipitación	0.2
122124	7	Sololá	701	Sololá	4	Finca Santa Victoria	8	Agosto	2023-01-08T00:00:00	2024-11-08T18:00:00	8	Radiación solar	13
122125	7	Sololá	701	Sololá	4	Finca Santa Victoria	8	Agosto	2023-01-08T00:00:00	2024-11-08T19:00:00	2	Temperatura media	14.4
122126	7	Sololá	701	Sololá	4	Finca Santa Victoria	8	Agosto	2023-01-08T00:00:00	2024-11-08T19:00:00	4	Temperatura máxima	14.8
122127	7	Sololá	701	Sololá	4	Finca Santa Victoria	8	Agosto	2023-01-08T00:00:00	2024-11-08T19:00:00	3	Temperatura mínima	14.4
122128	7	Sololá	701	Sololá	4	Finca Santa Victoria	8	Agosto	2023-01-08T00:00:00	2024-11-08T19:00:00	5	Humedad	97
122129	7	Sololá	701	Sololá	4	Finca Santa Victoria	8	Agosto	2023-01-08T00:00:00	2024-11-08T19:00:00	6	Velocidad del viento	0
122130	7	Sololá	701	Sololá	4	Finca Santa Victoria	8	Agosto	2023-01-08T00:00:00	2024-11-08T19:00:00	7	Dirección del viento	0
122131	7	Sololá	701	Sololá	4	Finca Santa Victoria	8	Agosto	2023-01-08T00:00:00	2024-11-08T19:00:00	1	Precipitación	0
122132	7	Sololá	701	Sololá	4	Finca Santa Victoria	8	Agosto	2023-01-08T00:00:00	2024-11-08T19:00:00	8	Radiación solar	0
122133	7	Sololá	701	Sololá	4	Finca Santa Victoria	8	Agosto	2023-01-08T00:00:00	2024-11-08T20:00:00	2	Temperatura media	14.2
122134	7	Sololá	701	Sololá	4	Finca Santa Victoria	8	Agosto	2023-01-08T00:00:00	2024-11-08T20:00:00	4	Temperatura máxima	14.4
122135	7	Sololá	701	Sololá	4	Finca Santa Victoria	8	Agosto	2023-01-08T00:00:00	2024-11-08T20:00:00	3	Temperatura mínima	14.2
122136	7	Sololá	701	Sololá	4	Finca Santa Victoria	8	Agosto	2023-01-08T00:00:00	2024-11-08T20:00:00	5	Humedad	95
122137	7	Sololá	701	Sololá	4	Finca Santa Victoria	8	Agosto	2023-01-08T00:00:00	2024-11-08T20:00:00	6	Velocidad del viento	1.6
122138	7	Sololá	701	Sololá	4	Finca Santa Victoria	8	Agosto	2023-01-08T00:00:00	2024-11-08T20:00:00	7	Dirección del viento	1.61
122139	7	Sololá	701	Sololá	4	Finca Santa Victoria	8	Agosto	2023-01-08T00:00:00	2024-11-08T20:00:00	1	Precipitación	0
122140	7	Sololá	701	Sololá	4	Finca Santa Victoria	8	Agosto	2023-01-08T00:00:00	2024-11-08T20:00:00	8	Radiación solar	0
122141	7	Sololá	701	Sololá	4	Finca Santa Victoria	8	Agosto	2023-01-08T00:00:00	2024-11-08T21:00:00	2	Temperatura media	13.7
122142	7	Sololá	701	Sololá	4	Finca Santa Victoria	8	Agosto	2023-01-08T00:00:00	2024-11-08T21:00:00	4	Temperatura máxima	14.7
122143	7	Sololá	701	Sololá	4	Finca Santa Victoria	8	Agosto	2023-01-08T00:00:00	2024-11-08T21:00:00	3	Temperatura mínima	13.7
122144	7	Sololá	701	Sololá	4	Finca Santa Victoria	8	Agosto	2023-01-08T00:00:00	2024-11-08T21:00:00	5	Humedad	95
122145	7	Sololá	701	Sololá	4	Finca Santa Victoria	8	Agosto	2023-01-08T00:00:00	2024-11-08T21:00:00	6	Velocidad del viento	3.2
122146	7	Sololá	701	Sololá	4	Finca Santa Victoria	8	Agosto	2023-01-08T00:00:00	2024-11-08T21:00:00	7	Dirección del viento	3.22
122147	7	Sololá	701	Sololá	4	Finca Santa Victoria	8	Agosto	2023-01-08T00:00:00	2024-11-08T21:00:00	1	Precipitación	1.6
122148	7	Sololá	701	Sololá	4	Finca Santa Victoria	8	Agosto	2023-01-08T00:00:00	2024-11-08T21:00:00	8	Radiación solar	0
122149	7	Sololá	701	Sololá	4	Finca Santa Victoria	8	Agosto	2023-01-08T00:00:00	2024-11-08T22:00:00	2	Temperatura media	13
122150	7	Sololá	701	Sololá	4	Finca Santa Victoria	8	Agosto	2023-01-08T00:00:00	2024-11-08T22:00:00	4	Temperatura máxima	13.7
122151	7	Sololá	701	Sololá	4	Finca Santa Victoria	8	Agosto	2023-01-08T00:00:00	2024-11-08T22:00:00	3	Temperatura mínima	12.8
122152	7	Sololá	701	Sololá	4	Finca Santa Victoria	8	Agosto	2023-01-08T00:00:00	2024-11-08T22:00:00	5	Humedad	93
122153	7	Sololá	701	Sololá	4	Finca Santa Victoria	8	Agosto	2023-01-08T00:00:00	2024-11-08T22:00:00	6	Velocidad del viento	4.8
122154	7	Sololá	701	Sololá	4	Finca Santa Victoria	8	Agosto	2023-01-08T00:00:00	2024-11-08T22:00:00	7	Dirección del viento	4.83
122155	7	Sololá	701	Sololá	4	Finca Santa Victoria	8	Agosto	2023-01-08T00:00:00	2024-11-08T22:00:00	1	Precipitación	2.8
122156	7	Sololá	701	Sololá	4	Finca Santa Victoria	8	Agosto	2023-01-08T00:00:00	2024-11-08T22:00:00	8	Radiación solar	0
122157	7	Sololá	701	Sololá	4	Finca Santa Victoria	8	Agosto	2023-01-08T00:00:00	2024-11-08T23:00:00	2	Temperatura media	13.7
122158	7	Sololá	701	Sololá	4	Finca Santa Victoria	8	Agosto	2023-01-08T00:00:00	2024-11-08T23:00:00	4	Temperatura máxima	13.7
122159	7	Sololá	701	Sololá	4	Finca Santa Victoria	8	Agosto	2023-01-08T00:00:00	2024-11-08T23:00:00	3	Temperatura mínima	13
122160	7	Sololá	701	Sololá	4	Finca Santa Victoria	8	Agosto	2023-01-08T00:00:00	2024-11-08T23:00:00	5	Humedad	86
122161	7	Sololá	701	Sololá	4	Finca Santa Victoria	8	Agosto	2023-01-08T00:00:00	2024-11-08T23:00:00	6	Velocidad del viento	4.8
122162	7	Sololá	701	Sololá	4	Finca Santa Victoria	8	Agosto	2023-01-08T00:00:00	2024-11-08T23:00:00	7	Dirección del viento	4.83
122163	7	Sololá	701	Sololá	4	Finca Santa Victoria	8	Agosto	2023-01-08T00:00:00	2024-11-08T23:00:00	1	Precipitación	0.2
122164	7	Sololá	701	Sololá	4	Finca Santa Victoria	8	Agosto	2023-01-08T00:00:00	2024-11-08T23:00:00	8	Radiación solar	0
122165	7	Sololá	701	Sololá	4	Finca Santa Victoria	8	Agosto	2023-02-08T00:00:00	2024-11-08T00:00:00	2	Temperatura media	14.1
122166	7	Sololá	701	Sololá	4	Finca Santa Victoria	8	Agosto	2023-02-08T00:00:00	2024-11-08T00:00:00	4	Temperatura máxima	14.1
122167	7	Sololá	701	Sololá	4	Finca Santa Victoria	8	Agosto	2023-02-08T00:00:00	2024-11-08T00:00:00	3	Temperatura mínima	13.7
122168	7	Sololá	701	Sololá	4	Finca Santa Victoria	8	Agosto	2023-02-08T00:00:00	2024-11-08T00:00:00	5	Humedad	82
122169	7	Sololá	701	Sololá	4	Finca Santa Victoria	8	Agosto	2023-02-08T00:00:00	2024-11-08T00:00:00	6	Velocidad del viento	4.8
122170	7	Sololá	701	Sololá	4	Finca Santa Victoria	8	Agosto	2023-02-08T00:00:00	2024-11-08T00:00:00	7	Dirección del viento	4.83
122171	7	Sololá	701	Sololá	4	Finca Santa Victoria	8	Agosto	2023-02-08T00:00:00	2024-11-08T00:00:00	1	Precipitación	0
122172	7	Sololá	701	Sololá	4	Finca Santa Victoria	8	Agosto	2023-02-08T00:00:00	2024-11-08T00:00:00	8	Radiación solar	0
122173	7	Sololá	701	Sololá	4	Finca Santa Victoria	8	Agosto	2023-02-08T00:00:00	2024-11-08T01:00:00	2	Temperatura media	13.4
122174	7	Sololá	701	Sololá	4	Finca Santa Victoria	8	Agosto	2023-02-08T00:00:00	2024-11-08T01:00:00	4	Temperatura máxima	14.1
122175	7	Sololá	701	Sololá	4	Finca Santa Victoria	8	Agosto	2023-02-08T00:00:00	2024-11-08T01:00:00	3	Temperatura mínima	13.4
122176	7	Sololá	701	Sololá	4	Finca Santa Victoria	8	Agosto	2023-02-08T00:00:00	2024-11-08T01:00:00	5	Humedad	87
122177	7	Sololá	701	Sololá	4	Finca Santa Victoria	8	Agosto	2023-02-08T00:00:00	2024-11-08T01:00:00	6	Velocidad del viento	1.6
122178	7	Sololá	701	Sololá	4	Finca Santa Victoria	8	Agosto	2023-02-08T00:00:00	2024-11-08T01:00:00	7	Dirección del viento	1.61
122179	7	Sololá	701	Sololá	4	Finca Santa Victoria	8	Agosto	2023-02-08T00:00:00	2024-11-08T01:00:00	1	Precipitación	0
122180	7	Sololá	701	Sololá	4	Finca Santa Victoria	8	Agosto	2023-02-08T00:00:00	2024-11-08T01:00:00	8	Radiación solar	0
122181	7	Sololá	701	Sololá	4	Finca Santa Victoria	8	Agosto	2023-02-08T00:00:00	2024-11-08T02:00:00	2	Temperatura media	13.7
122182	7	Sololá	701	Sololá	4	Finca Santa Victoria	8	Agosto	2023-02-08T00:00:00	2024-11-08T02:00:00	4	Temperatura máxima	13.9
122183	7	Sololá	701	Sololá	4	Finca Santa Victoria	8	Agosto	2023-02-08T00:00:00	2024-11-08T02:00:00	3	Temperatura mínima	13.2
122184	7	Sololá	701	Sololá	4	Finca Santa Victoria	8	Agosto	2023-02-08T00:00:00	2024-11-08T02:00:00	5	Humedad	84
122185	7	Sololá	701	Sololá	4	Finca Santa Victoria	8	Agosto	2023-02-08T00:00:00	2024-11-08T02:00:00	6	Velocidad del viento	1.6
122186	7	Sololá	701	Sololá	4	Finca Santa Victoria	8	Agosto	2023-02-08T00:00:00	2024-11-08T02:00:00	7	Dirección del viento	1.61
122187	7	Sololá	701	Sololá	4	Finca Santa Victoria	8	Agosto	2023-02-08T00:00:00	2024-11-08T02:00:00	1	Precipitación	0
122188	7	Sololá	701	Sololá	4	Finca Santa Victoria	8	Agosto	2023-02-08T00:00:00	2024-11-08T02:00:00	8	Radiación solar	0
122189	7	Sololá	701	Sololá	4	Finca Santa Victoria	8	Agosto	2023-02-08T00:00:00	2024-11-08T03:00:00	2	Temperatura media	13
122190	7	Sololá	701	Sololá	4	Finca Santa Victoria	8	Agosto	2023-02-08T00:00:00	2024-11-08T03:00:00	4	Temperatura máxima	13.7
122191	7	Sololá	701	Sololá	4	Finca Santa Victoria	8	Agosto	2023-02-08T00:00:00	2024-11-08T03:00:00	3	Temperatura mínima	13
122192	7	Sololá	701	Sololá	4	Finca Santa Victoria	8	Agosto	2023-02-08T00:00:00	2024-11-08T03:00:00	5	Humedad	86
122193	7	Sololá	701	Sololá	4	Finca Santa Victoria	8	Agosto	2023-02-08T00:00:00	2024-11-08T03:00:00	6	Velocidad del viento	1.6
122194	7	Sololá	701	Sololá	4	Finca Santa Victoria	8	Agosto	2023-02-08T00:00:00	2024-11-08T03:00:00	7	Dirección del viento	1.61
122195	7	Sololá	701	Sololá	4	Finca Santa Victoria	8	Agosto	2023-02-08T00:00:00	2024-11-08T03:00:00	1	Precipitación	0
122196	7	Sololá	701	Sololá	4	Finca Santa Victoria	8	Agosto	2023-02-08T00:00:00	2024-11-08T03:00:00	8	Radiación solar	0
122197	7	Sololá	701	Sololá	4	Finca Santa Victoria	8	Agosto	2023-02-08T00:00:00	2024-11-08T04:00:00	2	Temperatura media	13.5
122198	7	Sololá	701	Sololá	4	Finca Santa Victoria	8	Agosto	2023-02-08T00:00:00	2024-11-08T04:00:00	4	Temperatura máxima	13.5
122199	7	Sololá	701	Sololá	4	Finca Santa Victoria	8	Agosto	2023-02-08T00:00:00	2024-11-08T04:00:00	3	Temperatura mínima	12.7
122200	7	Sololá	701	Sololá	4	Finca Santa Victoria	8	Agosto	2023-02-08T00:00:00	2024-11-08T04:00:00	5	Humedad	84
122201	7	Sololá	701	Sololá	4	Finca Santa Victoria	8	Agosto	2023-02-08T00:00:00	2024-11-08T04:00:00	6	Velocidad del viento	1.6
122202	7	Sololá	701	Sololá	4	Finca Santa Victoria	8	Agosto	2023-02-08T00:00:00	2024-11-08T04:00:00	7	Dirección del viento	1.61
122203	7	Sololá	701	Sololá	4	Finca Santa Victoria	8	Agosto	2023-02-08T00:00:00	2024-11-08T04:00:00	1	Precipitación	0
122204	7	Sololá	701	Sololá	4	Finca Santa Victoria	8	Agosto	2023-02-08T00:00:00	2024-11-08T04:00:00	8	Radiación solar	0
122205	7	Sololá	701	Sololá	4	Finca Santa Victoria	8	Agosto	2023-02-08T00:00:00	2024-11-08T05:00:00	2	Temperatura media	13.6
122206	7	Sololá	701	Sololá	4	Finca Santa Victoria	8	Agosto	2023-02-08T00:00:00	2024-11-08T05:00:00	4	Temperatura máxima	13.7
122207	7	Sololá	701	Sololá	4	Finca Santa Victoria	8	Agosto	2023-02-08T00:00:00	2024-11-08T05:00:00	3	Temperatura mínima	13.4
122208	7	Sololá	701	Sololá	4	Finca Santa Victoria	8	Agosto	2023-02-08T00:00:00	2024-11-08T05:00:00	5	Humedad	84
122209	7	Sololá	701	Sololá	4	Finca Santa Victoria	8	Agosto	2023-02-08T00:00:00	2024-11-08T05:00:00	6	Velocidad del viento	1.6
122210	7	Sololá	701	Sololá	4	Finca Santa Victoria	8	Agosto	2023-02-08T00:00:00	2024-11-08T05:00:00	7	Dirección del viento	1.61
122211	7	Sololá	701	Sololá	4	Finca Santa Victoria	8	Agosto	2023-02-08T00:00:00	2024-11-08T05:00:00	1	Precipitación	0
122212	7	Sololá	701	Sololá	4	Finca Santa Victoria	8	Agosto	2023-02-08T00:00:00	2024-11-08T05:00:00	8	Radiación solar	0
122213	7	Sololá	701	Sololá	4	Finca Santa Victoria	8	Agosto	2023-02-08T00:00:00	2024-11-08T06:00:00	2	Temperatura media	12.6
122214	7	Sololá	701	Sololá	4	Finca Santa Victoria	8	Agosto	2023-02-08T00:00:00	2024-11-08T06:00:00	4	Temperatura máxima	13.6
122215	7	Sololá	701	Sololá	4	Finca Santa Victoria	8	Agosto	2023-02-08T00:00:00	2024-11-08T06:00:00	3	Temperatura mínima	12.6
122216	7	Sololá	701	Sololá	4	Finca Santa Victoria	8	Agosto	2023-02-08T00:00:00	2024-11-08T06:00:00	5	Humedad	89
122217	7	Sololá	701	Sololá	4	Finca Santa Victoria	8	Agosto	2023-02-08T00:00:00	2024-11-08T06:00:00	6	Velocidad del viento	0
122218	7	Sololá	701	Sololá	4	Finca Santa Victoria	8	Agosto	2023-02-08T00:00:00	2024-11-08T06:00:00	7	Dirección del viento	0
122219	7	Sololá	701	Sololá	4	Finca Santa Victoria	8	Agosto	2023-02-08T00:00:00	2024-11-08T06:00:00	1	Precipitación	0
122220	7	Sololá	701	Sololá	4	Finca Santa Victoria	8	Agosto	2023-02-08T00:00:00	2024-11-08T06:00:00	8	Radiación solar	0
122221	7	Sololá	701	Sololá	4	Finca Santa Victoria	8	Agosto	2023-02-08T00:00:00	2024-11-08T07:00:00	2	Temperatura media	13.6
122222	7	Sololá	701	Sololá	4	Finca Santa Victoria	8	Agosto	2023-02-08T00:00:00	2024-11-08T07:00:00	4	Temperatura máxima	13.6
122223	7	Sololá	701	Sololá	4	Finca Santa Victoria	8	Agosto	2023-02-08T00:00:00	2024-11-08T07:00:00	3	Temperatura mínima	12.6
122224	7	Sololá	701	Sololá	4	Finca Santa Victoria	8	Agosto	2023-02-08T00:00:00	2024-11-08T07:00:00	5	Humedad	88
122225	7	Sololá	701	Sololá	4	Finca Santa Victoria	8	Agosto	2023-02-08T00:00:00	2024-11-08T07:00:00	6	Velocidad del viento	1.6
122226	7	Sololá	701	Sololá	4	Finca Santa Victoria	8	Agosto	2023-02-08T00:00:00	2024-11-08T07:00:00	7	Dirección del viento	1.61
122227	7	Sololá	701	Sololá	4	Finca Santa Victoria	8	Agosto	2023-02-08T00:00:00	2024-11-08T07:00:00	1	Precipitación	0
122228	7	Sololá	701	Sololá	4	Finca Santa Victoria	8	Agosto	2023-02-08T00:00:00	2024-11-08T07:00:00	8	Radiación solar	25
122229	7	Sololá	701	Sololá	4	Finca Santa Victoria	8	Agosto	2023-02-08T00:00:00	2024-11-08T08:00:00	2	Temperatura media	14.9
122230	7	Sololá	701	Sololá	4	Finca Santa Victoria	8	Agosto	2023-02-08T00:00:00	2024-11-08T08:00:00	4	Temperatura máxima	14.9
122231	7	Sololá	701	Sololá	4	Finca Santa Victoria	8	Agosto	2023-02-08T00:00:00	2024-11-08T08:00:00	3	Temperatura mínima	13.6
122232	7	Sololá	701	Sololá	4	Finca Santa Victoria	8	Agosto	2023-02-08T00:00:00	2024-11-08T08:00:00	5	Humedad	85
122233	7	Sololá	701	Sololá	4	Finca Santa Victoria	8	Agosto	2023-02-08T00:00:00	2024-11-08T08:00:00	6	Velocidad del viento	1.6
122234	7	Sololá	701	Sololá	4	Finca Santa Victoria	8	Agosto	2023-02-08T00:00:00	2024-11-08T08:00:00	7	Dirección del viento	1.61
122235	7	Sololá	701	Sololá	4	Finca Santa Victoria	8	Agosto	2023-02-08T00:00:00	2024-11-08T08:00:00	1	Precipitación	0
122236	7	Sololá	701	Sololá	4	Finca Santa Victoria	8	Agosto	2023-02-08T00:00:00	2024-11-08T08:00:00	8	Radiación solar	88
122237	7	Sololá	701	Sololá	4	Finca Santa Victoria	8	Agosto	2023-02-08T00:00:00	2024-11-08T09:00:00	2	Temperatura media	15.9
122238	7	Sololá	701	Sololá	4	Finca Santa Victoria	8	Agosto	2023-02-08T00:00:00	2024-11-08T09:00:00	4	Temperatura máxima	15.9
122239	7	Sololá	701	Sololá	4	Finca Santa Victoria	8	Agosto	2023-02-08T00:00:00	2024-11-08T09:00:00	3	Temperatura mínima	14.9
122240	7	Sololá	701	Sololá	4	Finca Santa Victoria	8	Agosto	2023-02-08T00:00:00	2024-11-08T09:00:00	5	Humedad	82
122241	7	Sololá	701	Sololá	4	Finca Santa Victoria	8	Agosto	2023-02-08T00:00:00	2024-11-08T09:00:00	6	Velocidad del viento	1.6
122242	7	Sololá	701	Sololá	4	Finca Santa Victoria	8	Agosto	2023-02-08T00:00:00	2024-11-08T09:00:00	7	Dirección del viento	1.61
122243	7	Sololá	701	Sololá	4	Finca Santa Victoria	8	Agosto	2023-02-08T00:00:00	2024-11-08T09:00:00	1	Precipitación	0
122244	7	Sololá	701	Sololá	4	Finca Santa Victoria	8	Agosto	2023-02-08T00:00:00	2024-11-08T09:00:00	8	Radiación solar	164
122245	7	Sololá	701	Sololá	4	Finca Santa Victoria	8	Agosto	2023-02-08T00:00:00	2024-11-08T10:00:00	2	Temperatura media	17.1
122246	7	Sololá	701	Sololá	4	Finca Santa Victoria	8	Agosto	2023-02-08T00:00:00	2024-11-08T10:00:00	4	Temperatura máxima	17.1
122247	7	Sololá	701	Sololá	4	Finca Santa Victoria	8	Agosto	2023-02-08T00:00:00	2024-11-08T10:00:00	3	Temperatura mínima	15.9
122248	7	Sololá	701	Sololá	4	Finca Santa Victoria	8	Agosto	2023-02-08T00:00:00	2024-11-08T10:00:00	5	Humedad	79
122249	7	Sololá	701	Sololá	4	Finca Santa Victoria	8	Agosto	2023-02-08T00:00:00	2024-11-08T10:00:00	6	Velocidad del viento	4.8
122250	7	Sololá	701	Sololá	4	Finca Santa Victoria	8	Agosto	2023-02-08T00:00:00	2024-11-08T10:00:00	7	Dirección del viento	4.83
122251	7	Sololá	701	Sololá	4	Finca Santa Victoria	8	Agosto	2023-02-08T00:00:00	2024-11-08T10:00:00	1	Precipitación	0
122252	7	Sololá	701	Sololá	4	Finca Santa Victoria	8	Agosto	2023-02-08T00:00:00	2024-11-08T10:00:00	8	Radiación solar	233
122253	7	Sololá	701	Sololá	4	Finca Santa Victoria	8	Agosto	2023-02-08T00:00:00	2024-11-08T11:00:00	2	Temperatura media	16.7
122254	7	Sololá	701	Sololá	4	Finca Santa Victoria	8	Agosto	2023-02-08T00:00:00	2024-11-08T11:00:00	4	Temperatura máxima	17.1
122255	7	Sololá	701	Sololá	4	Finca Santa Victoria	8	Agosto	2023-02-08T00:00:00	2024-11-08T11:00:00	3	Temperatura mínima	16
122256	7	Sololá	701	Sololá	4	Finca Santa Victoria	8	Agosto	2023-02-08T00:00:00	2024-11-08T11:00:00	5	Humedad	81
122257	7	Sololá	701	Sololá	4	Finca Santa Victoria	8	Agosto	2023-02-08T00:00:00	2024-11-08T11:00:00	6	Velocidad del viento	3.2
122258	7	Sololá	701	Sololá	4	Finca Santa Victoria	8	Agosto	2023-02-08T00:00:00	2024-11-08T11:00:00	7	Dirección del viento	3.22
122259	7	Sololá	701	Sololá	4	Finca Santa Victoria	8	Agosto	2023-02-08T00:00:00	2024-11-08T11:00:00	1	Precipitación	0
122260	7	Sololá	701	Sololá	4	Finca Santa Victoria	8	Agosto	2023-02-08T00:00:00	2024-11-08T11:00:00	8	Radiación solar	204
122261	7	Sololá	701	Sololá	4	Finca Santa Victoria	8	Agosto	2023-02-08T00:00:00	2024-11-08T12:00:00	2	Temperatura media	16.4
122262	7	Sololá	701	Sololá	4	Finca Santa Victoria	8	Agosto	2023-02-08T00:00:00	2024-11-08T12:00:00	4	Temperatura máxima	16.8
122263	7	Sololá	701	Sololá	4	Finca Santa Victoria	8	Agosto	2023-02-08T00:00:00	2024-11-08T12:00:00	3	Temperatura mínima	16.4
122264	7	Sololá	701	Sololá	4	Finca Santa Victoria	8	Agosto	2023-02-08T00:00:00	2024-11-08T12:00:00	5	Humedad	82
122265	7	Sololá	701	Sololá	4	Finca Santa Victoria	8	Agosto	2023-02-08T00:00:00	2024-11-08T12:00:00	6	Velocidad del viento	3.2
122266	7	Sololá	701	Sololá	4	Finca Santa Victoria	8	Agosto	2023-02-08T00:00:00	2024-11-08T12:00:00	7	Dirección del viento	3.22
122267	7	Sololá	701	Sololá	4	Finca Santa Victoria	8	Agosto	2023-02-08T00:00:00	2024-11-08T12:00:00	1	Precipitación	0
122268	7	Sololá	701	Sololá	4	Finca Santa Victoria	8	Agosto	2023-02-08T00:00:00	2024-11-08T12:00:00	8	Radiación solar	169
122269	7	Sololá	701	Sololá	4	Finca Santa Victoria	8	Agosto	2023-02-08T00:00:00	2024-11-08T13:00:00	2	Temperatura media	16.8
122270	7	Sololá	701	Sololá	4	Finca Santa Victoria	8	Agosto	2023-02-08T00:00:00	2024-11-08T13:00:00	4	Temperatura máxima	16.9
122271	7	Sololá	701	Sololá	4	Finca Santa Victoria	8	Agosto	2023-02-08T00:00:00	2024-11-08T13:00:00	3	Temperatura mínima	15.8
122272	7	Sololá	701	Sololá	4	Finca Santa Victoria	8	Agosto	2023-02-08T00:00:00	2024-11-08T13:00:00	5	Humedad	81
122273	7	Sololá	701	Sololá	4	Finca Santa Victoria	8	Agosto	2023-02-08T00:00:00	2024-11-08T13:00:00	6	Velocidad del viento	3.2
122274	7	Sololá	701	Sololá	4	Finca Santa Victoria	8	Agosto	2023-02-08T00:00:00	2024-11-08T13:00:00	7	Dirección del viento	3.22
122275	7	Sololá	701	Sololá	4	Finca Santa Victoria	8	Agosto	2023-02-08T00:00:00	2024-11-08T13:00:00	1	Precipitación	0
122276	7	Sololá	701	Sololá	4	Finca Santa Victoria	8	Agosto	2023-02-08T00:00:00	2024-11-08T13:00:00	8	Radiación solar	166
122277	7	Sololá	701	Sololá	4	Finca Santa Victoria	8	Agosto	2023-02-08T00:00:00	2024-11-08T14:00:00	2	Temperatura media	17.9
122278	7	Sololá	701	Sololá	4	Finca Santa Victoria	8	Agosto	2023-02-08T00:00:00	2024-11-08T14:00:00	4	Temperatura máxima	17.9
122279	7	Sololá	701	Sololá	4	Finca Santa Victoria	8	Agosto	2023-02-08T00:00:00	2024-11-08T14:00:00	3	Temperatura mínima	15.9
122280	7	Sololá	701	Sololá	4	Finca Santa Victoria	8	Agosto	2023-02-08T00:00:00	2024-11-08T14:00:00	5	Humedad	79
122281	7	Sololá	701	Sololá	4	Finca Santa Victoria	8	Agosto	2023-02-08T00:00:00	2024-11-08T14:00:00	6	Velocidad del viento	3.2
122282	7	Sololá	701	Sololá	4	Finca Santa Victoria	8	Agosto	2023-02-08T00:00:00	2024-11-08T14:00:00	7	Dirección del viento	3.22
122283	7	Sololá	701	Sololá	4	Finca Santa Victoria	8	Agosto	2023-02-08T00:00:00	2024-11-08T14:00:00	1	Precipitación	0
122284	7	Sololá	701	Sololá	4	Finca Santa Victoria	8	Agosto	2023-02-08T00:00:00	2024-11-08T14:00:00	8	Radiación solar	181
122285	7	Sololá	701	Sololá	4	Finca Santa Victoria	8	Agosto	2023-02-08T00:00:00	2024-11-08T15:00:00	2	Temperatura media	17.6
122286	7	Sololá	701	Sololá	4	Finca Santa Victoria	8	Agosto	2023-02-08T00:00:00	2024-11-08T15:00:00	4	Temperatura máxima	18.1
122287	7	Sololá	701	Sololá	4	Finca Santa Victoria	8	Agosto	2023-02-08T00:00:00	2024-11-08T15:00:00	3	Temperatura mínima	17.5
122288	7	Sololá	701	Sololá	4	Finca Santa Victoria	8	Agosto	2023-02-08T00:00:00	2024-11-08T15:00:00	5	Humedad	79
122289	7	Sololá	701	Sololá	4	Finca Santa Victoria	8	Agosto	2023-02-08T00:00:00	2024-11-08T15:00:00	6	Velocidad del viento	3.2
122290	7	Sololá	701	Sololá	4	Finca Santa Victoria	8	Agosto	2023-02-08T00:00:00	2024-11-08T15:00:00	7	Dirección del viento	3.22
122291	7	Sololá	701	Sololá	4	Finca Santa Victoria	8	Agosto	2023-02-08T00:00:00	2024-11-08T15:00:00	1	Precipitación	0
122292	7	Sololá	701	Sololá	4	Finca Santa Victoria	8	Agosto	2023-02-08T00:00:00	2024-11-08T15:00:00	8	Radiación solar	184
122293	7	Sololá	701	Sololá	4	Finca Santa Victoria	8	Agosto	2023-02-08T00:00:00	2024-11-08T16:00:00	2	Temperatura media	17
122294	7	Sololá	701	Sololá	4	Finca Santa Victoria	8	Agosto	2023-02-08T00:00:00	2024-11-08T16:00:00	4	Temperatura máxima	17.6
122295	7	Sololá	701	Sololá	4	Finca Santa Victoria	8	Agosto	2023-02-08T00:00:00	2024-11-08T16:00:00	3	Temperatura mínima	17
122296	7	Sololá	701	Sololá	4	Finca Santa Victoria	8	Agosto	2023-02-08T00:00:00	2024-11-08T16:00:00	5	Humedad	78
122297	7	Sololá	701	Sololá	4	Finca Santa Victoria	8	Agosto	2023-02-08T00:00:00	2024-11-08T16:00:00	6	Velocidad del viento	1.6
122298	7	Sololá	701	Sololá	4	Finca Santa Victoria	8	Agosto	2023-02-08T00:00:00	2024-11-08T16:00:00	7	Dirección del viento	1.61
122299	7	Sololá	701	Sololá	4	Finca Santa Victoria	8	Agosto	2023-02-08T00:00:00	2024-11-08T16:00:00	1	Precipitación	0
122300	7	Sololá	701	Sololá	4	Finca Santa Victoria	8	Agosto	2023-02-08T00:00:00	2024-11-08T16:00:00	8	Radiación solar	88
122301	7	Sololá	701	Sololá	4	Finca Santa Victoria	8	Agosto	2023-02-08T00:00:00	2024-11-08T17:00:00	2	Temperatura media	16.7
122302	7	Sololá	701	Sololá	4	Finca Santa Victoria	8	Agosto	2023-02-08T00:00:00	2024-11-08T17:00:00	4	Temperatura máxima	17.3
122303	7	Sololá	701	Sololá	4	Finca Santa Victoria	8	Agosto	2023-02-08T00:00:00	2024-11-08T17:00:00	3	Temperatura mínima	16.7
122304	7	Sololá	701	Sololá	4	Finca Santa Victoria	8	Agosto	2023-02-08T00:00:00	2024-11-08T17:00:00	5	Humedad	80
122305	7	Sololá	701	Sololá	4	Finca Santa Victoria	8	Agosto	2023-02-08T00:00:00	2024-11-08T17:00:00	6	Velocidad del viento	1.6
122306	7	Sololá	701	Sololá	4	Finca Santa Victoria	8	Agosto	2023-02-08T00:00:00	2024-11-08T17:00:00	7	Dirección del viento	1.61
122307	7	Sololá	701	Sololá	4	Finca Santa Victoria	8	Agosto	2023-02-08T00:00:00	2024-11-08T17:00:00	1	Precipitación	0
122308	7	Sololá	701	Sololá	4	Finca Santa Victoria	8	Agosto	2023-02-08T00:00:00	2024-11-08T17:00:00	8	Radiación solar	98
122309	7	Sololá	701	Sololá	4	Finca Santa Victoria	8	Agosto	2023-02-08T00:00:00	2024-11-08T18:00:00	2	Temperatura media	15.4
122310	7	Sololá	701	Sololá	4	Finca Santa Victoria	8	Agosto	2023-02-08T00:00:00	2024-11-08T18:00:00	4	Temperatura máxima	16.7
122311	7	Sololá	701	Sololá	4	Finca Santa Victoria	8	Agosto	2023-02-08T00:00:00	2024-11-08T18:00:00	3	Temperatura mínima	15.4
122312	7	Sololá	701	Sololá	4	Finca Santa Victoria	8	Agosto	2023-02-08T00:00:00	2024-11-08T18:00:00	5	Humedad	86
122313	7	Sololá	701	Sololá	4	Finca Santa Victoria	8	Agosto	2023-02-08T00:00:00	2024-11-08T18:00:00	6	Velocidad del viento	1.6
122314	7	Sololá	701	Sololá	4	Finca Santa Victoria	8	Agosto	2023-02-08T00:00:00	2024-11-08T18:00:00	7	Dirección del viento	1.61
122315	7	Sololá	701	Sololá	4	Finca Santa Victoria	8	Agosto	2023-02-08T00:00:00	2024-11-08T18:00:00	1	Precipitación	0
122316	7	Sololá	701	Sololá	4	Finca Santa Victoria	8	Agosto	2023-02-08T00:00:00	2024-11-08T18:00:00	8	Radiación solar	20
122317	7	Sololá	701	Sololá	4	Finca Santa Victoria	8	Agosto	2023-02-08T00:00:00	2024-11-08T19:00:00	2	Temperatura media	14.7
122318	7	Sololá	701	Sololá	4	Finca Santa Victoria	8	Agosto	2023-02-08T00:00:00	2024-11-08T19:00:00	4	Temperatura máxima	15.4
122319	7	Sololá	701	Sololá	4	Finca Santa Victoria	8	Agosto	2023-02-08T00:00:00	2024-11-08T19:00:00	3	Temperatura mínima	14.7
122320	7	Sololá	701	Sololá	4	Finca Santa Victoria	8	Agosto	2023-02-08T00:00:00	2024-11-08T19:00:00	5	Humedad	88
122321	7	Sololá	701	Sololá	4	Finca Santa Victoria	8	Agosto	2023-02-08T00:00:00	2024-11-08T19:00:00	6	Velocidad del viento	1.6
122322	7	Sololá	701	Sololá	4	Finca Santa Victoria	8	Agosto	2023-02-08T00:00:00	2024-11-08T19:00:00	7	Dirección del viento	1.61
122323	7	Sololá	701	Sololá	4	Finca Santa Victoria	8	Agosto	2023-02-08T00:00:00	2024-11-08T19:00:00	1	Precipitación	0
122324	7	Sololá	701	Sololá	4	Finca Santa Victoria	8	Agosto	2023-02-08T00:00:00	2024-11-08T19:00:00	8	Radiación solar	0
122325	7	Sololá	701	Sololá	4	Finca Santa Victoria	8	Agosto	2023-02-08T00:00:00	2024-11-08T20:00:00	2	Temperatura media	13.4
122326	7	Sololá	701	Sololá	4	Finca Santa Victoria	8	Agosto	2023-02-08T00:00:00	2024-11-08T20:00:00	4	Temperatura máxima	13.9
122327	7	Sololá	701	Sololá	4	Finca Santa Victoria	8	Agosto	2023-02-08T00:00:00	2024-11-08T20:00:00	3	Temperatura mínima	13.4
122328	7	Sololá	701	Sololá	4	Finca Santa Victoria	8	Agosto	2023-02-08T00:00:00	2024-11-08T20:00:00	5	Humedad	92
122329	7	Sololá	701	Sololá	4	Finca Santa Victoria	8	Agosto	2023-02-08T00:00:00	2024-11-08T20:00:00	6	Velocidad del viento	0
122330	7	Sololá	701	Sololá	4	Finca Santa Victoria	8	Agosto	2023-02-08T00:00:00	2024-11-08T20:00:00	7	Dirección del viento	0
122331	7	Sololá	701	Sololá	4	Finca Santa Victoria	8	Agosto	2023-02-08T00:00:00	2024-11-08T20:00:00	1	Precipitación	0
122332	7	Sololá	701	Sololá	4	Finca Santa Victoria	8	Agosto	2023-02-08T00:00:00	2024-11-08T20:00:00	8	Radiación solar	0
122333	7	Sololá	701	Sololá	4	Finca Santa Victoria	8	Agosto	2023-02-08T00:00:00	2024-11-08T21:00:00	2	Temperatura media	13.2
122334	7	Sololá	701	Sololá	4	Finca Santa Victoria	8	Agosto	2023-02-08T00:00:00	2024-11-08T21:00:00	4	Temperatura máxima	13.4
122335	7	Sololá	701	Sololá	4	Finca Santa Victoria	8	Agosto	2023-02-08T00:00:00	2024-11-08T21:00:00	3	Temperatura mínima	13.2
122336	7	Sololá	701	Sololá	4	Finca Santa Victoria	8	Agosto	2023-02-08T00:00:00	2024-11-08T21:00:00	5	Humedad	92
122337	7	Sololá	701	Sololá	4	Finca Santa Victoria	8	Agosto	2023-02-08T00:00:00	2024-11-08T21:00:00	6	Velocidad del viento	0
122338	7	Sololá	701	Sololá	4	Finca Santa Victoria	8	Agosto	2023-02-08T00:00:00	2024-11-08T21:00:00	7	Dirección del viento	0
122339	7	Sololá	701	Sololá	4	Finca Santa Victoria	8	Agosto	2023-02-08T00:00:00	2024-11-08T21:00:00	1	Precipitación	3.2
122340	7	Sololá	701	Sololá	4	Finca Santa Victoria	8	Agosto	2023-02-08T00:00:00	2024-11-08T21:00:00	8	Radiación solar	0
122341	7	Sololá	701	Sololá	4	Finca Santa Victoria	8	Agosto	2023-02-08T00:00:00	2024-11-08T22:00:00	2	Temperatura media	13.2
122342	7	Sololá	701	Sololá	4	Finca Santa Victoria	8	Agosto	2023-02-08T00:00:00	2024-11-08T22:00:00	4	Temperatura máxima	13.2
122343	7	Sololá	701	Sololá	4	Finca Santa Victoria	8	Agosto	2023-02-08T00:00:00	2024-11-08T22:00:00	3	Temperatura mínima	13.1
122344	7	Sololá	701	Sololá	4	Finca Santa Victoria	8	Agosto	2023-02-08T00:00:00	2024-11-08T22:00:00	5	Humedad	92
122345	7	Sololá	701	Sololá	4	Finca Santa Victoria	8	Agosto	2023-02-08T00:00:00	2024-11-08T22:00:00	6	Velocidad del viento	0
122346	7	Sololá	701	Sololá	4	Finca Santa Victoria	8	Agosto	2023-02-08T00:00:00	2024-11-08T22:00:00	7	Dirección del viento	0
122347	7	Sololá	701	Sololá	4	Finca Santa Victoria	8	Agosto	2023-02-08T00:00:00	2024-11-08T22:00:00	1	Precipitación	2
122348	7	Sololá	701	Sololá	4	Finca Santa Victoria	8	Agosto	2023-02-08T00:00:00	2024-11-08T22:00:00	8	Radiación solar	0
122349	7	Sololá	701	Sololá	4	Finca Santa Victoria	8	Agosto	2023-02-08T00:00:00	2024-11-08T23:00:00	2	Temperatura media	13.1
122350	7	Sololá	701	Sololá	4	Finca Santa Victoria	8	Agosto	2023-02-08T00:00:00	2024-11-08T23:00:00	4	Temperatura máxima	13.2
122351	7	Sololá	701	Sololá	4	Finca Santa Victoria	8	Agosto	2023-02-08T00:00:00	2024-11-08T23:00:00	3	Temperatura mínima	13.1
122352	7	Sololá	701	Sololá	4	Finca Santa Victoria	8	Agosto	2023-02-08T00:00:00	2024-11-08T23:00:00	5	Humedad	92
122353	7	Sololá	701	Sololá	4	Finca Santa Victoria	8	Agosto	2023-02-08T00:00:00	2024-11-08T23:00:00	6	Velocidad del viento	0
122354	7	Sololá	701	Sololá	4	Finca Santa Victoria	8	Agosto	2023-02-08T00:00:00	2024-11-08T23:00:00	7	Dirección del viento	0
122355	7	Sololá	701	Sololá	4	Finca Santa Victoria	8	Agosto	2023-02-08T00:00:00	2024-11-08T23:00:00	1	Precipitación	0.8
122356	7	Sololá	701	Sololá	4	Finca Santa Victoria	8	Agosto	2023-02-08T00:00:00	2024-11-08T23:00:00	8	Radiación solar	0
122357	7	Sololá	701	Sololá	4	Finca Santa Victoria	8	Agosto	2023-03-08T00:00:00	2024-11-08T00:00:00	2	Temperatura media	12.8
122358	7	Sololá	701	Sololá	4	Finca Santa Victoria	8	Agosto	2023-03-08T00:00:00	2024-11-08T00:00:00	4	Temperatura máxima	13.1
122359	7	Sololá	701	Sololá	4	Finca Santa Victoria	8	Agosto	2023-03-08T00:00:00	2024-11-08T00:00:00	3	Temperatura mínima	12.8
122360	7	Sololá	701	Sololá	4	Finca Santa Victoria	8	Agosto	2023-03-08T00:00:00	2024-11-08T00:00:00	5	Humedad	93
122361	7	Sololá	701	Sololá	4	Finca Santa Victoria	8	Agosto	2023-03-08T00:00:00	2024-11-08T00:00:00	6	Velocidad del viento	0
122362	7	Sololá	701	Sololá	4	Finca Santa Victoria	8	Agosto	2023-03-08T00:00:00	2024-11-08T00:00:00	7	Dirección del viento	0
122363	7	Sololá	701	Sololá	4	Finca Santa Victoria	8	Agosto	2023-03-08T00:00:00	2024-11-08T00:00:00	1	Precipitación	0.2
122364	7	Sololá	701	Sololá	4	Finca Santa Victoria	8	Agosto	2023-03-08T00:00:00	2024-11-08T00:00:00	8	Radiación solar	0
122365	7	Sololá	701	Sololá	4	Finca Santa Victoria	8	Agosto	2023-03-08T00:00:00	2024-11-08T01:00:00	2	Temperatura media	12.7
122366	7	Sololá	701	Sololá	4	Finca Santa Victoria	8	Agosto	2023-03-08T00:00:00	2024-11-08T01:00:00	4	Temperatura máxima	12.8
122367	7	Sololá	701	Sololá	4	Finca Santa Victoria	8	Agosto	2023-03-08T00:00:00	2024-11-08T01:00:00	3	Temperatura mínima	12.7
122368	7	Sololá	701	Sololá	4	Finca Santa Victoria	8	Agosto	2023-03-08T00:00:00	2024-11-08T01:00:00	5	Humedad	92
122369	7	Sololá	701	Sololá	4	Finca Santa Victoria	8	Agosto	2023-03-08T00:00:00	2024-11-08T01:00:00	6	Velocidad del viento	0
122370	7	Sololá	701	Sololá	4	Finca Santa Victoria	8	Agosto	2023-03-08T00:00:00	2024-11-08T01:00:00	7	Dirección del viento	0
122371	7	Sololá	701	Sololá	4	Finca Santa Victoria	8	Agosto	2023-03-08T00:00:00	2024-11-08T01:00:00	1	Precipitación	0.6
122372	7	Sololá	701	Sololá	4	Finca Santa Victoria	8	Agosto	2023-03-08T00:00:00	2024-11-08T01:00:00	8	Radiación solar	0
122373	7	Sololá	701	Sololá	4	Finca Santa Victoria	8	Agosto	2023-03-08T00:00:00	2024-11-08T02:00:00	2	Temperatura media	12.7
122374	7	Sololá	701	Sololá	4	Finca Santa Victoria	8	Agosto	2023-03-08T00:00:00	2024-11-08T02:00:00	4	Temperatura máxima	12.7
122375	7	Sololá	701	Sololá	4	Finca Santa Victoria	8	Agosto	2023-03-08T00:00:00	2024-11-08T02:00:00	3	Temperatura mínima	12.7
122376	7	Sololá	701	Sololá	4	Finca Santa Victoria	8	Agosto	2023-03-08T00:00:00	2024-11-08T02:00:00	5	Humedad	93
122377	7	Sololá	701	Sololá	4	Finca Santa Victoria	8	Agosto	2023-03-08T00:00:00	2024-11-08T02:00:00	6	Velocidad del viento	0
122378	7	Sololá	701	Sololá	4	Finca Santa Victoria	8	Agosto	2023-03-08T00:00:00	2024-11-08T02:00:00	7	Dirección del viento	0
122379	7	Sololá	701	Sololá	4	Finca Santa Victoria	8	Agosto	2023-03-08T00:00:00	2024-11-08T02:00:00	1	Precipitación	0.2
122380	7	Sololá	701	Sololá	4	Finca Santa Victoria	8	Agosto	2023-03-08T00:00:00	2024-11-08T02:00:00	8	Radiación solar	0
122381	7	Sololá	701	Sololá	4	Finca Santa Victoria	8	Agosto	2023-03-08T00:00:00	2024-11-08T03:00:00	2	Temperatura media	13.2
122382	7	Sololá	701	Sololá	4	Finca Santa Victoria	8	Agosto	2023-03-08T00:00:00	2024-11-08T03:00:00	4	Temperatura máxima	13.4
122383	7	Sololá	701	Sololá	4	Finca Santa Victoria	8	Agosto	2023-03-08T00:00:00	2024-11-08T03:00:00	3	Temperatura mínima	12.9
122384	7	Sololá	701	Sololá	4	Finca Santa Victoria	8	Agosto	2023-03-08T00:00:00	2024-11-08T03:00:00	5	Humedad	91
122385	7	Sololá	701	Sololá	4	Finca Santa Victoria	8	Agosto	2023-03-08T00:00:00	2024-11-08T03:00:00	6	Velocidad del viento	0
122386	7	Sololá	701	Sololá	4	Finca Santa Victoria	8	Agosto	2023-03-08T00:00:00	2024-11-08T03:00:00	7	Dirección del viento	0
122387	7	Sololá	701	Sololá	4	Finca Santa Victoria	8	Agosto	2023-03-08T00:00:00	2024-11-08T03:00:00	1	Precipitación	0
122388	7	Sololá	701	Sololá	4	Finca Santa Victoria	8	Agosto	2023-03-08T00:00:00	2024-11-08T03:00:00	8	Radiación solar	0
122389	7	Sololá	701	Sololá	4	Finca Santa Victoria	8	Agosto	2023-03-08T00:00:00	2024-11-08T04:00:00	2	Temperatura media	12.9
122390	7	Sololá	701	Sololá	4	Finca Santa Victoria	8	Agosto	2023-03-08T00:00:00	2024-11-08T04:00:00	4	Temperatura máxima	13.3
122391	7	Sololá	701	Sololá	4	Finca Santa Victoria	8	Agosto	2023-03-08T00:00:00	2024-11-08T04:00:00	3	Temperatura mínima	12.9
122392	7	Sololá	701	Sololá	4	Finca Santa Victoria	8	Agosto	2023-03-08T00:00:00	2024-11-08T04:00:00	5	Humedad	93
122393	7	Sololá	701	Sololá	4	Finca Santa Victoria	8	Agosto	2023-03-08T00:00:00	2024-11-08T04:00:00	6	Velocidad del viento	0
122394	7	Sololá	701	Sololá	4	Finca Santa Victoria	8	Agosto	2023-03-08T00:00:00	2024-11-08T04:00:00	7	Dirección del viento	0
122395	7	Sololá	701	Sololá	4	Finca Santa Victoria	8	Agosto	2023-03-08T00:00:00	2024-11-08T04:00:00	1	Precipitación	0
122396	7	Sololá	701	Sololá	4	Finca Santa Victoria	8	Agosto	2023-03-08T00:00:00	2024-11-08T04:00:00	8	Radiación solar	0
122397	7	Sololá	701	Sololá	4	Finca Santa Victoria	8	Agosto	2023-03-08T00:00:00	2024-11-08T05:00:00	2	Temperatura media	12.6
122398	7	Sololá	701	Sololá	4	Finca Santa Victoria	8	Agosto	2023-03-08T00:00:00	2024-11-08T05:00:00	4	Temperatura máxima	12.9
122399	7	Sololá	701	Sololá	4	Finca Santa Victoria	8	Agosto	2023-03-08T00:00:00	2024-11-08T05:00:00	3	Temperatura mínima	12.5
122400	7	Sololá	701	Sololá	4	Finca Santa Victoria	8	Agosto	2023-03-08T00:00:00	2024-11-08T05:00:00	5	Humedad	96
122401	7	Sololá	701	Sololá	4	Finca Santa Victoria	8	Agosto	2023-03-08T00:00:00	2024-11-08T05:00:00	6	Velocidad del viento	0
122402	7	Sololá	701	Sololá	4	Finca Santa Victoria	8	Agosto	2023-03-08T00:00:00	2024-11-08T05:00:00	7	Dirección del viento	0
122403	7	Sololá	701	Sololá	4	Finca Santa Victoria	8	Agosto	2023-03-08T00:00:00	2024-11-08T05:00:00	1	Precipitación	0
122404	7	Sololá	701	Sololá	4	Finca Santa Victoria	8	Agosto	2023-03-08T00:00:00	2024-11-08T05:00:00	8	Radiación solar	0
122405	7	Sololá	701	Sololá	4	Finca Santa Victoria	8	Agosto	2023-03-08T00:00:00	2024-11-08T06:00:00	2	Temperatura media	12.4
122406	7	Sololá	701	Sololá	4	Finca Santa Victoria	8	Agosto	2023-03-08T00:00:00	2024-11-08T06:00:00	4	Temperatura máxima	12.6
122407	7	Sololá	701	Sololá	4	Finca Santa Victoria	8	Agosto	2023-03-08T00:00:00	2024-11-08T06:00:00	3	Temperatura mínima	12.4
122408	7	Sololá	701	Sololá	4	Finca Santa Victoria	8	Agosto	2023-03-08T00:00:00	2024-11-08T06:00:00	5	Humedad	97
122409	7	Sololá	701	Sololá	4	Finca Santa Victoria	8	Agosto	2023-03-08T00:00:00	2024-11-08T06:00:00	6	Velocidad del viento	0
122410	7	Sololá	701	Sololá	4	Finca Santa Victoria	8	Agosto	2023-03-08T00:00:00	2024-11-08T06:00:00	7	Dirección del viento	0
122411	7	Sololá	701	Sololá	4	Finca Santa Victoria	8	Agosto	2023-03-08T00:00:00	2024-11-08T06:00:00	1	Precipitación	0
122412	7	Sololá	701	Sololá	4	Finca Santa Victoria	8	Agosto	2023-03-08T00:00:00	2024-11-08T06:00:00	8	Radiación solar	0
122413	7	Sololá	701	Sololá	4	Finca Santa Victoria	8	Agosto	2023-03-08T00:00:00	2024-11-08T07:00:00	2	Temperatura media	13.1
122414	7	Sololá	701	Sololá	4	Finca Santa Victoria	8	Agosto	2023-03-08T00:00:00	2024-11-08T07:00:00	4	Temperatura máxima	13.1
122415	7	Sololá	701	Sololá	4	Finca Santa Victoria	8	Agosto	2023-03-08T00:00:00	2024-11-08T07:00:00	3	Temperatura mínima	12.4
122416	7	Sololá	701	Sololá	4	Finca Santa Victoria	8	Agosto	2023-03-08T00:00:00	2024-11-08T07:00:00	5	Humedad	92
122417	7	Sololá	701	Sololá	4	Finca Santa Victoria	8	Agosto	2023-03-08T00:00:00	2024-11-08T07:00:00	6	Velocidad del viento	1.6
122418	7	Sololá	701	Sololá	4	Finca Santa Victoria	8	Agosto	2023-03-08T00:00:00	2024-11-08T07:00:00	7	Dirección del viento	1.61
122419	7	Sololá	701	Sololá	4	Finca Santa Victoria	8	Agosto	2023-03-08T00:00:00	2024-11-08T07:00:00	1	Precipitación	0
122420	7	Sololá	701	Sololá	4	Finca Santa Victoria	8	Agosto	2023-03-08T00:00:00	2024-11-08T07:00:00	8	Radiación solar	20
122421	7	Sololá	701	Sololá	4	Finca Santa Victoria	8	Agosto	2023-03-08T00:00:00	2024-11-08T08:00:00	2	Temperatura media	16.9
122422	7	Sololá	701	Sololá	4	Finca Santa Victoria	8	Agosto	2023-03-08T00:00:00	2024-11-08T08:00:00	4	Temperatura máxima	16.9
122423	7	Sololá	701	Sololá	4	Finca Santa Victoria	8	Agosto	2023-03-08T00:00:00	2024-11-08T08:00:00	3	Temperatura mínima	13.1
122424	7	Sololá	701	Sololá	4	Finca Santa Victoria	8	Agosto	2023-03-08T00:00:00	2024-11-08T08:00:00	5	Humedad	85
122425	7	Sololá	701	Sololá	4	Finca Santa Victoria	8	Agosto	2023-03-08T00:00:00	2024-11-08T08:00:00	6	Velocidad del viento	1.6
122426	7	Sololá	701	Sololá	4	Finca Santa Victoria	8	Agosto	2023-03-08T00:00:00	2024-11-08T08:00:00	7	Dirección del viento	1.61
122427	7	Sololá	701	Sololá	4	Finca Santa Victoria	8	Agosto	2023-03-08T00:00:00	2024-11-08T08:00:00	1	Precipitación	0
122428	7	Sololá	701	Sololá	4	Finca Santa Victoria	8	Agosto	2023-03-08T00:00:00	2024-11-08T08:00:00	8	Radiación solar	233
122429	7	Sololá	701	Sololá	4	Finca Santa Victoria	8	Agosto	2023-03-08T00:00:00	2024-11-08T09:00:00	2	Temperatura media	18.1
122430	7	Sololá	701	Sololá	4	Finca Santa Victoria	8	Agosto	2023-03-08T00:00:00	2024-11-08T09:00:00	4	Temperatura máxima	18.1
122431	7	Sololá	701	Sololá	4	Finca Santa Victoria	8	Agosto	2023-03-08T00:00:00	2024-11-08T09:00:00	3	Temperatura mínima	16.7
122432	7	Sololá	701	Sololá	4	Finca Santa Victoria	8	Agosto	2023-03-08T00:00:00	2024-11-08T09:00:00	5	Humedad	80
122433	7	Sololá	701	Sololá	4	Finca Santa Victoria	8	Agosto	2023-03-08T00:00:00	2024-11-08T09:00:00	6	Velocidad del viento	3.2
122434	7	Sololá	701	Sololá	4	Finca Santa Victoria	8	Agosto	2023-03-08T00:00:00	2024-11-08T09:00:00	7	Dirección del viento	3.22
122435	7	Sololá	701	Sololá	4	Finca Santa Victoria	8	Agosto	2023-03-08T00:00:00	2024-11-08T09:00:00	1	Precipitación	0
122436	7	Sololá	701	Sololá	4	Finca Santa Victoria	8	Agosto	2023-03-08T00:00:00	2024-11-08T09:00:00	8	Radiación solar	371
122437	7	Sololá	701	Sololá	4	Finca Santa Victoria	8	Agosto	2023-03-08T00:00:00	2024-11-08T10:00:00	2	Temperatura media	18.5
122438	7	Sololá	701	Sololá	4	Finca Santa Victoria	8	Agosto	2023-03-08T00:00:00	2024-11-08T10:00:00	4	Temperatura máxima	19.6
122439	7	Sololá	701	Sololá	4	Finca Santa Victoria	8	Agosto	2023-03-08T00:00:00	2024-11-08T10:00:00	3	Temperatura mínima	18.1
122440	7	Sololá	701	Sololá	4	Finca Santa Victoria	8	Agosto	2023-03-08T00:00:00	2024-11-08T10:00:00	5	Humedad	77
122441	7	Sololá	701	Sololá	4	Finca Santa Victoria	8	Agosto	2023-03-08T00:00:00	2024-11-08T10:00:00	6	Velocidad del viento	3.2
122442	7	Sololá	701	Sololá	4	Finca Santa Victoria	8	Agosto	2023-03-08T00:00:00	2024-11-08T10:00:00	7	Dirección del viento	3.22
122443	7	Sololá	701	Sololá	4	Finca Santa Victoria	8	Agosto	2023-03-08T00:00:00	2024-11-08T10:00:00	1	Precipitación	0
122444	7	Sololá	701	Sololá	4	Finca Santa Victoria	8	Agosto	2023-03-08T00:00:00	2024-11-08T10:00:00	8	Radiación solar	322
122445	7	Sololá	701	Sololá	4	Finca Santa Victoria	8	Agosto	2023-03-08T00:00:00	2024-11-08T11:00:00	2	Temperatura media	18.3
122446	7	Sololá	701	Sololá	4	Finca Santa Victoria	8	Agosto	2023-03-08T00:00:00	2024-11-08T11:00:00	4	Temperatura máxima	18.5
122447	7	Sololá	701	Sololá	4	Finca Santa Victoria	8	Agosto	2023-03-08T00:00:00	2024-11-08T11:00:00	3	Temperatura mínima	17.7
122448	7	Sololá	701	Sololá	4	Finca Santa Victoria	8	Agosto	2023-03-08T00:00:00	2024-11-08T11:00:00	5	Humedad	82
122449	7	Sololá	701	Sololá	4	Finca Santa Victoria	8	Agosto	2023-03-08T00:00:00	2024-11-08T11:00:00	6	Velocidad del viento	1.6
122450	7	Sololá	701	Sololá	4	Finca Santa Victoria	8	Agosto	2023-03-08T00:00:00	2024-11-08T11:00:00	7	Dirección del viento	1.61
122451	7	Sololá	701	Sololá	4	Finca Santa Victoria	8	Agosto	2023-03-08T00:00:00	2024-11-08T11:00:00	1	Precipitación	0
122452	7	Sololá	701	Sololá	4	Finca Santa Victoria	8	Agosto	2023-03-08T00:00:00	2024-11-08T11:00:00	8	Radiación solar	159
122453	7	Sololá	701	Sololá	4	Finca Santa Victoria	8	Agosto	2023-03-08T00:00:00	2024-11-08T12:00:00	2	Temperatura media	16.8
122454	7	Sololá	701	Sololá	4	Finca Santa Victoria	8	Agosto	2023-03-08T00:00:00	2024-11-08T12:00:00	4	Temperatura máxima	18.8
122455	7	Sololá	701	Sololá	4	Finca Santa Victoria	8	Agosto	2023-03-08T00:00:00	2024-11-08T12:00:00	3	Temperatura mínima	16.8
122456	7	Sololá	701	Sololá	4	Finca Santa Victoria	8	Agosto	2023-03-08T00:00:00	2024-11-08T12:00:00	5	Humedad	93
122457	7	Sololá	701	Sololá	4	Finca Santa Victoria	8	Agosto	2023-03-08T00:00:00	2024-11-08T12:00:00	6	Velocidad del viento	3.2
122458	7	Sololá	701	Sololá	4	Finca Santa Victoria	8	Agosto	2023-03-08T00:00:00	2024-11-08T12:00:00	7	Dirección del viento	3.22
122459	7	Sololá	701	Sololá	4	Finca Santa Victoria	8	Agosto	2023-03-08T00:00:00	2024-11-08T12:00:00	1	Precipitación	0
122460	7	Sololá	701	Sololá	4	Finca Santa Victoria	8	Agosto	2023-03-08T00:00:00	2024-11-08T12:00:00	8	Radiación solar	109
122461	7	Sololá	701	Sololá	4	Finca Santa Victoria	8	Agosto	2023-03-08T00:00:00	2024-11-08T13:00:00	2	Temperatura media	16.6
122462	7	Sololá	701	Sololá	4	Finca Santa Victoria	8	Agosto	2023-03-08T00:00:00	2024-11-08T13:00:00	4	Temperatura máxima	16.8
122463	7	Sololá	701	Sololá	4	Finca Santa Victoria	8	Agosto	2023-03-08T00:00:00	2024-11-08T13:00:00	3	Temperatura mínima	16.3
122464	7	Sololá	701	Sololá	4	Finca Santa Victoria	8	Agosto	2023-03-08T00:00:00	2024-11-08T13:00:00	5	Humedad	95
122465	7	Sololá	701	Sololá	4	Finca Santa Victoria	8	Agosto	2023-03-08T00:00:00	2024-11-08T13:00:00	6	Velocidad del viento	1.6
122466	7	Sololá	701	Sololá	4	Finca Santa Victoria	8	Agosto	2023-03-08T00:00:00	2024-11-08T13:00:00	7	Dirección del viento	1.61
122467	7	Sololá	701	Sololá	4	Finca Santa Victoria	8	Agosto	2023-03-08T00:00:00	2024-11-08T13:00:00	1	Precipitación	0
122468	7	Sololá	701	Sololá	4	Finca Santa Victoria	8	Agosto	2023-03-08T00:00:00	2024-11-08T13:00:00	8	Radiación solar	61
122469	7	Sololá	701	Sololá	4	Finca Santa Victoria	8	Agosto	2023-03-08T00:00:00	2024-11-08T14:00:00	2	Temperatura media	14.6
122470	7	Sololá	701	Sololá	4	Finca Santa Victoria	8	Agosto	2023-03-08T00:00:00	2024-11-08T14:00:00	4	Temperatura máxima	16.6
122471	7	Sololá	701	Sololá	4	Finca Santa Victoria	8	Agosto	2023-03-08T00:00:00	2024-11-08T14:00:00	3	Temperatura mínima	14.5
122472	7	Sololá	701	Sololá	4	Finca Santa Victoria	8	Agosto	2023-03-08T00:00:00	2024-11-08T14:00:00	5	Humedad	95
122473	7	Sololá	701	Sololá	4	Finca Santa Victoria	8	Agosto	2023-03-08T00:00:00	2024-11-08T14:00:00	6	Velocidad del viento	1.6
122474	7	Sololá	701	Sololá	4	Finca Santa Victoria	8	Agosto	2023-03-08T00:00:00	2024-11-08T14:00:00	7	Dirección del viento	1.61
122475	7	Sololá	701	Sololá	4	Finca Santa Victoria	8	Agosto	2023-03-08T00:00:00	2024-11-08T14:00:00	1	Precipitación	6.8
122476	7	Sololá	701	Sololá	4	Finca Santa Victoria	8	Agosto	2023-03-08T00:00:00	2024-11-08T14:00:00	8	Radiación solar	38
122477	7	Sololá	701	Sololá	4	Finca Santa Victoria	8	Agosto	2023-03-08T00:00:00	2024-11-08T15:00:00	2	Temperatura media	16.4
122478	7	Sololá	701	Sololá	4	Finca Santa Victoria	8	Agosto	2023-03-08T00:00:00	2024-11-08T15:00:00	4	Temperatura máxima	16.4
122479	7	Sololá	701	Sololá	4	Finca Santa Victoria	8	Agosto	2023-03-08T00:00:00	2024-11-08T15:00:00	3	Temperatura mínima	14.4
122480	7	Sololá	701	Sololá	4	Finca Santa Victoria	8	Agosto	2023-03-08T00:00:00	2024-11-08T15:00:00	5	Humedad	92
122481	7	Sololá	701	Sololá	4	Finca Santa Victoria	8	Agosto	2023-03-08T00:00:00	2024-11-08T15:00:00	6	Velocidad del viento	1.6
122482	7	Sololá	701	Sololá	4	Finca Santa Victoria	8	Agosto	2023-03-08T00:00:00	2024-11-08T15:00:00	7	Dirección del viento	1.61
122483	7	Sololá	701	Sololá	4	Finca Santa Victoria	8	Agosto	2023-03-08T00:00:00	2024-11-08T15:00:00	1	Precipitación	1.2
122484	7	Sololá	701	Sololá	4	Finca Santa Victoria	8	Agosto	2023-03-08T00:00:00	2024-11-08T15:00:00	8	Radiación solar	158
122485	7	Sololá	701	Sololá	4	Finca Santa Victoria	8	Agosto	2023-03-08T00:00:00	2024-11-08T16:00:00	2	Temperatura media	15.4
122486	7	Sololá	701	Sololá	4	Finca Santa Victoria	8	Agosto	2023-03-08T00:00:00	2024-11-08T16:00:00	4	Temperatura máxima	16.4
122487	7	Sololá	701	Sololá	4	Finca Santa Victoria	8	Agosto	2023-03-08T00:00:00	2024-11-08T16:00:00	3	Temperatura mínima	15.4
122488	7	Sololá	701	Sololá	4	Finca Santa Victoria	8	Agosto	2023-03-08T00:00:00	2024-11-08T16:00:00	5	Humedad	93
122489	7	Sololá	701	Sololá	4	Finca Santa Victoria	8	Agosto	2023-03-08T00:00:00	2024-11-08T16:00:00	6	Velocidad del viento	0
122490	7	Sololá	701	Sololá	4	Finca Santa Victoria	8	Agosto	2023-03-08T00:00:00	2024-11-08T16:00:00	7	Dirección del viento	0
122491	7	Sololá	701	Sololá	4	Finca Santa Victoria	8	Agosto	2023-03-08T00:00:00	2024-11-08T16:00:00	1	Precipitación	0.8
122492	7	Sololá	701	Sololá	4	Finca Santa Victoria	8	Agosto	2023-03-08T00:00:00	2024-11-08T16:00:00	8	Radiación solar	106
122493	7	Sololá	701	Sololá	4	Finca Santa Victoria	8	Agosto	2023-03-08T00:00:00	2024-11-08T17:00:00	2	Temperatura media	14.7
122494	7	Sololá	701	Sololá	4	Finca Santa Victoria	8	Agosto	2023-03-08T00:00:00	2024-11-08T17:00:00	4	Temperatura máxima	15.4
122495	7	Sololá	701	Sololá	4	Finca Santa Victoria	8	Agosto	2023-03-08T00:00:00	2024-11-08T17:00:00	3	Temperatura mínima	14.7
122496	7	Sololá	701	Sololá	4	Finca Santa Victoria	8	Agosto	2023-03-08T00:00:00	2024-11-08T17:00:00	5	Humedad	96
122497	7	Sololá	701	Sololá	4	Finca Santa Victoria	8	Agosto	2023-03-08T00:00:00	2024-11-08T17:00:00	6	Velocidad del viento	1.6
122498	7	Sololá	701	Sololá	4	Finca Santa Victoria	8	Agosto	2023-03-08T00:00:00	2024-11-08T17:00:00	7	Dirección del viento	1.61
122499	7	Sololá	701	Sololá	4	Finca Santa Victoria	8	Agosto	2023-03-08T00:00:00	2024-11-08T17:00:00	1	Precipitación	1.4
122500	7	Sololá	701	Sololá	4	Finca Santa Victoria	8	Agosto	2023-03-08T00:00:00	2024-11-08T17:00:00	8	Radiación solar	53
122501	7	Sololá	701	Sololá	4	Finca Santa Victoria	8	Agosto	2023-03-08T00:00:00	2024-11-08T18:00:00	2	Temperatura media	14.1
122502	7	Sololá	701	Sololá	4	Finca Santa Victoria	8	Agosto	2023-03-08T00:00:00	2024-11-08T18:00:00	4	Temperatura máxima	14.7
122503	7	Sololá	701	Sololá	4	Finca Santa Victoria	8	Agosto	2023-03-08T00:00:00	2024-11-08T18:00:00	3	Temperatura mínima	14
122504	7	Sololá	701	Sololá	4	Finca Santa Victoria	8	Agosto	2023-03-08T00:00:00	2024-11-08T18:00:00	5	Humedad	97
122505	7	Sololá	701	Sololá	4	Finca Santa Victoria	8	Agosto	2023-03-08T00:00:00	2024-11-08T18:00:00	6	Velocidad del viento	0
122506	7	Sololá	701	Sololá	4	Finca Santa Victoria	8	Agosto	2023-03-08T00:00:00	2024-11-08T18:00:00	7	Dirección del viento	0
122507	7	Sololá	701	Sololá	4	Finca Santa Victoria	8	Agosto	2023-03-08T00:00:00	2024-11-08T18:00:00	1	Precipitación	3.4
122508	7	Sololá	701	Sololá	4	Finca Santa Victoria	8	Agosto	2023-03-08T00:00:00	2024-11-08T18:00:00	8	Radiación solar	10
122509	7	Sololá	701	Sololá	4	Finca Santa Victoria	8	Agosto	2023-03-08T00:00:00	2024-11-08T19:00:00	2	Temperatura media	13.7
122510	7	Sololá	701	Sololá	4	Finca Santa Victoria	8	Agosto	2023-03-08T00:00:00	2024-11-08T19:00:00	4	Temperatura máxima	14.1
122511	7	Sololá	701	Sololá	4	Finca Santa Victoria	8	Agosto	2023-03-08T00:00:00	2024-11-08T19:00:00	3	Temperatura mínima	13.7
122512	7	Sololá	701	Sololá	4	Finca Santa Victoria	8	Agosto	2023-03-08T00:00:00	2024-11-08T19:00:00	5	Humedad	97
122513	7	Sololá	701	Sololá	4	Finca Santa Victoria	8	Agosto	2023-03-08T00:00:00	2024-11-08T19:00:00	6	Velocidad del viento	0
122514	7	Sololá	701	Sololá	4	Finca Santa Victoria	8	Agosto	2023-03-08T00:00:00	2024-11-08T19:00:00	7	Dirección del viento	0
122515	7	Sololá	701	Sololá	4	Finca Santa Victoria	8	Agosto	2023-03-08T00:00:00	2024-11-08T19:00:00	1	Precipitación	1.2
122516	7	Sololá	701	Sololá	4	Finca Santa Victoria	8	Agosto	2023-03-08T00:00:00	2024-11-08T19:00:00	8	Radiación solar	0
122517	7	Sololá	701	Sololá	4	Finca Santa Victoria	8	Agosto	2023-03-08T00:00:00	2024-11-08T20:00:00	2	Temperatura media	13.4
122518	7	Sololá	701	Sololá	4	Finca Santa Victoria	8	Agosto	2023-03-08T00:00:00	2024-11-08T20:00:00	4	Temperatura máxima	13.8
122519	7	Sololá	701	Sololá	4	Finca Santa Victoria	8	Agosto	2023-03-08T00:00:00	2024-11-08T20:00:00	3	Temperatura mínima	13.4
122520	7	Sololá	701	Sololá	4	Finca Santa Victoria	8	Agosto	2023-03-08T00:00:00	2024-11-08T20:00:00	5	Humedad	97
122521	7	Sololá	701	Sololá	4	Finca Santa Victoria	8	Agosto	2023-03-08T00:00:00	2024-11-08T20:00:00	6	Velocidad del viento	0
122522	7	Sololá	701	Sololá	4	Finca Santa Victoria	8	Agosto	2023-03-08T00:00:00	2024-11-08T20:00:00	7	Dirección del viento	0
122523	7	Sololá	701	Sololá	4	Finca Santa Victoria	8	Agosto	2023-03-08T00:00:00	2024-11-08T20:00:00	1	Precipitación	4.4
122524	7	Sololá	701	Sololá	4	Finca Santa Victoria	8	Agosto	2023-03-08T00:00:00	2024-11-08T20:00:00	8	Radiación solar	0
122525	7	Sololá	701	Sololá	4	Finca Santa Victoria	8	Agosto	2023-03-08T00:00:00	2024-11-08T21:00:00	2	Temperatura media	13.5
122526	7	Sololá	701	Sololá	4	Finca Santa Victoria	8	Agosto	2023-03-08T00:00:00	2024-11-08T21:00:00	4	Temperatura máxima	13.6
122527	7	Sololá	701	Sololá	4	Finca Santa Victoria	8	Agosto	2023-03-08T00:00:00	2024-11-08T21:00:00	3	Temperatura mínima	13.4
122528	7	Sololá	701	Sololá	4	Finca Santa Victoria	8	Agosto	2023-03-08T00:00:00	2024-11-08T21:00:00	5	Humedad	96
122529	7	Sololá	701	Sololá	4	Finca Santa Victoria	8	Agosto	2023-03-08T00:00:00	2024-11-08T21:00:00	6	Velocidad del viento	1.6
122530	7	Sololá	701	Sololá	4	Finca Santa Victoria	8	Agosto	2023-03-08T00:00:00	2024-11-08T21:00:00	7	Dirección del viento	1.61
122531	7	Sololá	701	Sololá	4	Finca Santa Victoria	8	Agosto	2023-03-08T00:00:00	2024-11-08T21:00:00	1	Precipitación	3.4
122532	7	Sololá	701	Sololá	4	Finca Santa Victoria	8	Agosto	2023-03-08T00:00:00	2024-11-08T21:00:00	8	Radiación solar	0
122533	7	Sololá	701	Sololá	4	Finca Santa Victoria	8	Agosto	2023-03-08T00:00:00	2024-11-08T22:00:00	2	Temperatura media	13.2
122534	7	Sololá	701	Sololá	4	Finca Santa Victoria	8	Agosto	2023-03-08T00:00:00	2024-11-08T22:00:00	4	Temperatura máxima	13.5
122535	7	Sololá	701	Sololá	4	Finca Santa Victoria	8	Agosto	2023-03-08T00:00:00	2024-11-08T22:00:00	3	Temperatura mínima	13.2
122536	7	Sololá	701	Sololá	4	Finca Santa Victoria	8	Agosto	2023-03-08T00:00:00	2024-11-08T22:00:00	5	Humedad	95
122537	7	Sololá	701	Sololá	4	Finca Santa Victoria	8	Agosto	2023-03-08T00:00:00	2024-11-08T22:00:00	6	Velocidad del viento	1.6
122538	7	Sololá	701	Sololá	4	Finca Santa Victoria	8	Agosto	2023-03-08T00:00:00	2024-11-08T22:00:00	7	Dirección del viento	1.61
122539	7	Sololá	701	Sololá	4	Finca Santa Victoria	8	Agosto	2023-03-08T00:00:00	2024-11-08T22:00:00	1	Precipitación	0.4
122540	7	Sololá	701	Sololá	4	Finca Santa Victoria	8	Agosto	2023-03-08T00:00:00	2024-11-08T22:00:00	8	Radiación solar	0
122541	7	Sololá	701	Sololá	4	Finca Santa Victoria	8	Agosto	2023-03-08T00:00:00	2024-11-08T23:00:00	2	Temperatura media	13
122542	7	Sololá	701	Sololá	4	Finca Santa Victoria	8	Agosto	2023-03-08T00:00:00	2024-11-08T23:00:00	4	Temperatura máxima	13.3
122543	7	Sololá	701	Sololá	4	Finca Santa Victoria	8	Agosto	2023-03-08T00:00:00	2024-11-08T23:00:00	3	Temperatura mínima	12.9
122544	7	Sololá	701	Sololá	4	Finca Santa Victoria	8	Agosto	2023-03-08T00:00:00	2024-11-08T23:00:00	5	Humedad	96
122545	7	Sololá	701	Sololá	4	Finca Santa Victoria	8	Agosto	2023-03-08T00:00:00	2024-11-08T23:00:00	6	Velocidad del viento	0
122546	7	Sololá	701	Sololá	4	Finca Santa Victoria	8	Agosto	2023-03-08T00:00:00	2024-11-08T23:00:00	7	Dirección del viento	0
122547	7	Sololá	701	Sololá	4	Finca Santa Victoria	8	Agosto	2023-03-08T00:00:00	2024-11-08T23:00:00	1	Precipitación	0
122548	7	Sololá	701	Sololá	4	Finca Santa Victoria	8	Agosto	2023-03-08T00:00:00	2024-11-08T23:00:00	8	Radiación solar	0
122549	7	Sololá	701	Sololá	4	Finca Santa Victoria	8	Agosto	2023-04-08T00:00:00	2024-11-08T00:00:00	2	Temperatura media	13.1
122550	7	Sololá	701	Sololá	4	Finca Santa Victoria	8	Agosto	2023-04-08T00:00:00	2024-11-08T00:00:00	4	Temperatura máxima	13.1
122551	7	Sololá	701	Sololá	4	Finca Santa Victoria	8	Agosto	2023-04-08T00:00:00	2024-11-08T00:00:00	3	Temperatura mínima	12.9
122552	7	Sololá	701	Sololá	4	Finca Santa Victoria	8	Agosto	2023-04-08T00:00:00	2024-11-08T00:00:00	5	Humedad	93
122553	7	Sololá	701	Sololá	4	Finca Santa Victoria	8	Agosto	2023-04-08T00:00:00	2024-11-08T00:00:00	6	Velocidad del viento	1.6
122554	7	Sololá	701	Sololá	4	Finca Santa Victoria	8	Agosto	2023-04-08T00:00:00	2024-11-08T00:00:00	7	Dirección del viento	1.61
122555	7	Sololá	701	Sololá	4	Finca Santa Victoria	8	Agosto	2023-04-08T00:00:00	2024-11-08T00:00:00	1	Precipitación	0
122556	7	Sololá	701	Sololá	4	Finca Santa Victoria	8	Agosto	2023-04-08T00:00:00	2024-11-08T00:00:00	8	Radiación solar	0
122557	7	Sololá	701	Sololá	4	Finca Santa Victoria	8	Agosto	2023-04-08T00:00:00	2024-11-08T01:00:00	2	Temperatura media	12.7
122558	7	Sololá	701	Sololá	4	Finca Santa Victoria	8	Agosto	2023-04-08T00:00:00	2024-11-08T01:00:00	4	Temperatura máxima	13.1
122559	7	Sololá	701	Sololá	4	Finca Santa Victoria	8	Agosto	2023-04-08T00:00:00	2024-11-08T01:00:00	3	Temperatura mínima	12.6
122560	7	Sololá	701	Sololá	4	Finca Santa Victoria	8	Agosto	2023-04-08T00:00:00	2024-11-08T01:00:00	5	Humedad	96
122561	7	Sololá	701	Sololá	4	Finca Santa Victoria	8	Agosto	2023-04-08T00:00:00	2024-11-08T01:00:00	6	Velocidad del viento	1.6
122562	7	Sololá	701	Sololá	4	Finca Santa Victoria	8	Agosto	2023-04-08T00:00:00	2024-11-08T01:00:00	7	Dirección del viento	1.61
122563	7	Sololá	701	Sololá	4	Finca Santa Victoria	8	Agosto	2023-04-08T00:00:00	2024-11-08T01:00:00	1	Precipitación	0.2
122564	7	Sololá	701	Sololá	4	Finca Santa Victoria	8	Agosto	2023-04-08T00:00:00	2024-11-08T01:00:00	8	Radiación solar	0
122565	7	Sololá	701	Sololá	4	Finca Santa Victoria	8	Agosto	2023-04-08T00:00:00	2024-11-08T02:00:00	2	Temperatura media	12.4
122566	7	Sololá	701	Sololá	4	Finca Santa Victoria	8	Agosto	2023-04-08T00:00:00	2024-11-08T02:00:00	4	Temperatura máxima	12.7
122567	7	Sololá	701	Sololá	4	Finca Santa Victoria	8	Agosto	2023-04-08T00:00:00	2024-11-08T02:00:00	3	Temperatura mínima	12.4
122568	7	Sololá	701	Sololá	4	Finca Santa Victoria	8	Agosto	2023-04-08T00:00:00	2024-11-08T02:00:00	5	Humedad	95
122569	7	Sololá	701	Sololá	4	Finca Santa Victoria	8	Agosto	2023-04-08T00:00:00	2024-11-08T02:00:00	6	Velocidad del viento	1.6
122570	7	Sololá	701	Sololá	4	Finca Santa Victoria	8	Agosto	2023-04-08T00:00:00	2024-11-08T02:00:00	7	Dirección del viento	1.61
122571	7	Sololá	701	Sololá	4	Finca Santa Victoria	8	Agosto	2023-04-08T00:00:00	2024-11-08T02:00:00	1	Precipitación	0
122572	7	Sololá	701	Sololá	4	Finca Santa Victoria	8	Agosto	2023-04-08T00:00:00	2024-11-08T02:00:00	8	Radiación solar	0
122573	7	Sololá	701	Sololá	4	Finca Santa Victoria	8	Agosto	2023-04-08T00:00:00	2024-11-08T03:00:00	2	Temperatura media	12.4
122574	7	Sololá	701	Sololá	4	Finca Santa Victoria	8	Agosto	2023-04-08T00:00:00	2024-11-08T03:00:00	4	Temperatura máxima	12.5
122575	7	Sololá	701	Sololá	4	Finca Santa Victoria	8	Agosto	2023-04-08T00:00:00	2024-11-08T03:00:00	3	Temperatura mínima	12.3
122576	7	Sololá	701	Sololá	4	Finca Santa Victoria	8	Agosto	2023-04-08T00:00:00	2024-11-08T03:00:00	5	Humedad	96
122577	7	Sololá	701	Sololá	4	Finca Santa Victoria	8	Agosto	2023-04-08T00:00:00	2024-11-08T03:00:00	6	Velocidad del viento	1.6
122578	7	Sololá	701	Sololá	4	Finca Santa Victoria	8	Agosto	2023-04-08T00:00:00	2024-11-08T03:00:00	7	Dirección del viento	1.61
122579	7	Sololá	701	Sololá	4	Finca Santa Victoria	8	Agosto	2023-04-08T00:00:00	2024-11-08T03:00:00	1	Precipitación	0
122580	7	Sololá	701	Sololá	4	Finca Santa Victoria	8	Agosto	2023-04-08T00:00:00	2024-11-08T03:00:00	8	Radiación solar	0
122581	7	Sololá	701	Sololá	4	Finca Santa Victoria	8	Agosto	2023-04-08T00:00:00	2024-11-08T04:00:00	2	Temperatura media	12.6
122582	7	Sololá	701	Sololá	4	Finca Santa Victoria	8	Agosto	2023-04-08T00:00:00	2024-11-08T04:00:00	4	Temperatura máxima	12.6
122583	7	Sololá	701	Sololá	4	Finca Santa Victoria	8	Agosto	2023-04-08T00:00:00	2024-11-08T04:00:00	3	Temperatura mínima	12.3
122584	7	Sololá	701	Sololá	4	Finca Santa Victoria	8	Agosto	2023-04-08T00:00:00	2024-11-08T04:00:00	5	Humedad	94
122585	7	Sololá	701	Sololá	4	Finca Santa Victoria	8	Agosto	2023-04-08T00:00:00	2024-11-08T04:00:00	6	Velocidad del viento	1.6
122586	7	Sololá	701	Sololá	4	Finca Santa Victoria	8	Agosto	2023-04-08T00:00:00	2024-11-08T04:00:00	7	Dirección del viento	1.61
122587	7	Sololá	701	Sololá	4	Finca Santa Victoria	8	Agosto	2023-04-08T00:00:00	2024-11-08T04:00:00	1	Precipitación	0
122588	7	Sololá	701	Sololá	4	Finca Santa Victoria	8	Agosto	2023-04-08T00:00:00	2024-11-08T04:00:00	8	Radiación solar	0
122589	7	Sololá	701	Sololá	4	Finca Santa Victoria	8	Agosto	2023-04-08T00:00:00	2024-11-08T05:00:00	2	Temperatura media	13.6
122590	7	Sololá	701	Sololá	4	Finca Santa Victoria	8	Agosto	2023-04-08T00:00:00	2024-11-08T05:00:00	4	Temperatura máxima	13.6
122591	7	Sololá	701	Sololá	4	Finca Santa Victoria	8	Agosto	2023-04-08T00:00:00	2024-11-08T05:00:00	3	Temperatura mínima	12.4
122592	7	Sololá	701	Sololá	4	Finca Santa Victoria	8	Agosto	2023-04-08T00:00:00	2024-11-08T05:00:00	5	Humedad	85
122593	7	Sololá	701	Sololá	4	Finca Santa Victoria	8	Agosto	2023-04-08T00:00:00	2024-11-08T05:00:00	6	Velocidad del viento	1.6
122594	7	Sololá	701	Sololá	4	Finca Santa Victoria	8	Agosto	2023-04-08T00:00:00	2024-11-08T05:00:00	7	Dirección del viento	1.61
122595	7	Sololá	701	Sololá	4	Finca Santa Victoria	8	Agosto	2023-04-08T00:00:00	2024-11-08T05:00:00	1	Precipitación	0
122596	7	Sololá	701	Sololá	4	Finca Santa Victoria	8	Agosto	2023-04-08T00:00:00	2024-11-08T05:00:00	8	Radiación solar	0
122597	7	Sololá	701	Sololá	4	Finca Santa Victoria	8	Agosto	2023-04-08T00:00:00	2024-11-08T06:00:00	2	Temperatura media	13.5
122598	7	Sololá	701	Sololá	4	Finca Santa Victoria	8	Agosto	2023-04-08T00:00:00	2024-11-08T06:00:00	4	Temperatura máxima	13.9
122599	7	Sololá	701	Sololá	4	Finca Santa Victoria	8	Agosto	2023-04-08T00:00:00	2024-11-08T06:00:00	3	Temperatura mínima	13.4
122600	7	Sololá	701	Sololá	4	Finca Santa Victoria	8	Agosto	2023-04-08T00:00:00	2024-11-08T06:00:00	5	Humedad	85
122601	7	Sololá	701	Sololá	4	Finca Santa Victoria	8	Agosto	2023-04-08T00:00:00	2024-11-08T06:00:00	6	Velocidad del viento	1.6
122602	7	Sololá	701	Sololá	4	Finca Santa Victoria	8	Agosto	2023-04-08T00:00:00	2024-11-08T06:00:00	7	Dirección del viento	1.61
122603	7	Sololá	701	Sololá	4	Finca Santa Victoria	8	Agosto	2023-04-08T00:00:00	2024-11-08T06:00:00	1	Precipitación	0
122604	7	Sololá	701	Sololá	4	Finca Santa Victoria	8	Agosto	2023-04-08T00:00:00	2024-11-08T06:00:00	8	Radiación solar	0
122605	7	Sololá	701	Sololá	4	Finca Santa Victoria	8	Agosto	2023-04-08T00:00:00	2024-11-08T07:00:00	2	Temperatura media	13.5
122606	7	Sololá	701	Sololá	4	Finca Santa Victoria	8	Agosto	2023-04-08T00:00:00	2024-11-08T07:00:00	4	Temperatura máxima	13.6
122607	7	Sololá	701	Sololá	4	Finca Santa Victoria	8	Agosto	2023-04-08T00:00:00	2024-11-08T07:00:00	3	Temperatura mínima	13.3
122608	7	Sololá	701	Sololá	4	Finca Santa Victoria	8	Agosto	2023-04-08T00:00:00	2024-11-08T07:00:00	5	Humedad	89
122609	7	Sololá	701	Sololá	4	Finca Santa Victoria	8	Agosto	2023-04-08T00:00:00	2024-11-08T07:00:00	6	Velocidad del viento	1.6
122610	7	Sololá	701	Sololá	4	Finca Santa Victoria	8	Agosto	2023-04-08T00:00:00	2024-11-08T07:00:00	7	Dirección del viento	1.61
122611	7	Sololá	701	Sololá	4	Finca Santa Victoria	8	Agosto	2023-04-08T00:00:00	2024-11-08T07:00:00	1	Precipitación	0
122612	7	Sololá	701	Sololá	4	Finca Santa Victoria	8	Agosto	2023-04-08T00:00:00	2024-11-08T07:00:00	8	Radiación solar	23
122613	7	Sololá	701	Sololá	4	Finca Santa Victoria	8	Agosto	2023-04-08T00:00:00	2024-11-08T08:00:00	2	Temperatura media	15.7
122614	7	Sololá	701	Sololá	4	Finca Santa Victoria	8	Agosto	2023-04-08T00:00:00	2024-11-08T08:00:00	4	Temperatura máxima	15.7
122615	7	Sololá	701	Sololá	4	Finca Santa Victoria	8	Agosto	2023-04-08T00:00:00	2024-11-08T08:00:00	3	Temperatura mínima	13.4
122616	7	Sololá	701	Sololá	4	Finca Santa Victoria	8	Agosto	2023-04-08T00:00:00	2024-11-08T08:00:00	5	Humedad	86
122617	7	Sololá	701	Sololá	4	Finca Santa Victoria	8	Agosto	2023-04-08T00:00:00	2024-11-08T08:00:00	6	Velocidad del viento	0
122618	7	Sololá	701	Sololá	4	Finca Santa Victoria	8	Agosto	2023-04-08T00:00:00	2024-11-08T08:00:00	7	Dirección del viento	0
122619	7	Sololá	701	Sololá	4	Finca Santa Victoria	8	Agosto	2023-04-08T00:00:00	2024-11-08T08:00:00	1	Precipitación	0
122620	7	Sololá	701	Sololá	4	Finca Santa Victoria	8	Agosto	2023-04-08T00:00:00	2024-11-08T08:00:00	8	Radiación solar	125
122621	7	Sololá	701	Sololá	4	Finca Santa Victoria	8	Agosto	2023-04-08T00:00:00	2024-11-08T09:00:00	2	Temperatura media	18.3
122622	7	Sololá	701	Sololá	4	Finca Santa Victoria	8	Agosto	2023-04-08T00:00:00	2024-11-08T09:00:00	4	Temperatura máxima	18.5
122623	7	Sololá	701	Sololá	4	Finca Santa Victoria	8	Agosto	2023-04-08T00:00:00	2024-11-08T09:00:00	3	Temperatura mínima	15.7
122624	7	Sololá	701	Sololá	4	Finca Santa Victoria	8	Agosto	2023-04-08T00:00:00	2024-11-08T09:00:00	5	Humedad	81
122625	7	Sololá	701	Sololá	4	Finca Santa Victoria	8	Agosto	2023-04-08T00:00:00	2024-11-08T09:00:00	6	Velocidad del viento	0
122626	7	Sololá	701	Sololá	4	Finca Santa Victoria	8	Agosto	2023-04-08T00:00:00	2024-11-08T09:00:00	7	Dirección del viento	0
122627	7	Sololá	701	Sololá	4	Finca Santa Victoria	8	Agosto	2023-04-08T00:00:00	2024-11-08T09:00:00	1	Precipitación	0
122628	7	Sololá	701	Sololá	4	Finca Santa Victoria	8	Agosto	2023-04-08T00:00:00	2024-11-08T09:00:00	8	Radiación solar	266
122629	7	Sololá	701	Sololá	4	Finca Santa Victoria	8	Agosto	2023-04-08T00:00:00	2024-11-08T10:00:00	2	Temperatura media	18.8
122630	7	Sololá	701	Sololá	4	Finca Santa Victoria	8	Agosto	2023-04-08T00:00:00	2024-11-08T10:00:00	4	Temperatura máxima	19.1
122631	7	Sololá	701	Sololá	4	Finca Santa Victoria	8	Agosto	2023-04-08T00:00:00	2024-11-08T10:00:00	3	Temperatura mínima	17.8
122632	7	Sololá	701	Sololá	4	Finca Santa Victoria	8	Agosto	2023-04-08T00:00:00	2024-11-08T10:00:00	5	Humedad	79
122633	7	Sololá	701	Sololá	4	Finca Santa Victoria	8	Agosto	2023-04-08T00:00:00	2024-11-08T10:00:00	6	Velocidad del viento	1.6
122634	7	Sololá	701	Sololá	4	Finca Santa Victoria	8	Agosto	2023-04-08T00:00:00	2024-11-08T10:00:00	7	Dirección del viento	1.61
122635	7	Sololá	701	Sololá	4	Finca Santa Victoria	8	Agosto	2023-04-08T00:00:00	2024-11-08T10:00:00	1	Precipitación	0
122636	7	Sololá	701	Sololá	4	Finca Santa Victoria	8	Agosto	2023-04-08T00:00:00	2024-11-08T10:00:00	8	Radiación solar	251
122637	7	Sololá	701	Sololá	4	Finca Santa Victoria	8	Agosto	2023-04-08T00:00:00	2024-11-08T11:00:00	2	Temperatura media	20.6
122638	7	Sololá	701	Sololá	4	Finca Santa Victoria	8	Agosto	2023-04-08T00:00:00	2024-11-08T11:00:00	4	Temperatura máxima	20.7
122639	7	Sololá	701	Sololá	4	Finca Santa Victoria	8	Agosto	2023-04-08T00:00:00	2024-11-08T11:00:00	3	Temperatura mínima	18.8
122640	7	Sololá	701	Sololá	4	Finca Santa Victoria	8	Agosto	2023-04-08T00:00:00	2024-11-08T11:00:00	5	Humedad	75
122641	7	Sololá	701	Sololá	4	Finca Santa Victoria	8	Agosto	2023-04-08T00:00:00	2024-11-08T11:00:00	6	Velocidad del viento	3.2
122642	7	Sololá	701	Sololá	4	Finca Santa Victoria	8	Agosto	2023-04-08T00:00:00	2024-11-08T11:00:00	7	Dirección del viento	3.22
122643	7	Sololá	701	Sololá	4	Finca Santa Victoria	8	Agosto	2023-04-08T00:00:00	2024-11-08T11:00:00	1	Precipitación	0
122644	7	Sololá	701	Sololá	4	Finca Santa Victoria	8	Agosto	2023-04-08T00:00:00	2024-11-08T11:00:00	8	Radiación solar	231
122645	7	Sololá	701	Sololá	4	Finca Santa Victoria	8	Agosto	2023-04-08T00:00:00	2024-11-08T12:00:00	2	Temperatura media	21.3
122646	7	Sololá	701	Sololá	4	Finca Santa Victoria	8	Agosto	2023-04-08T00:00:00	2024-11-08T12:00:00	4	Temperatura máxima	21.4
122647	7	Sololá	701	Sololá	4	Finca Santa Victoria	8	Agosto	2023-04-08T00:00:00	2024-11-08T12:00:00	3	Temperatura mínima	19.8
122648	7	Sololá	701	Sololá	4	Finca Santa Victoria	8	Agosto	2023-04-08T00:00:00	2024-11-08T12:00:00	5	Humedad	75
122649	7	Sololá	701	Sololá	4	Finca Santa Victoria	8	Agosto	2023-04-08T00:00:00	2024-11-08T12:00:00	6	Velocidad del viento	3.2
122650	7	Sololá	701	Sololá	4	Finca Santa Victoria	8	Agosto	2023-04-08T00:00:00	2024-11-08T12:00:00	7	Dirección del viento	3.22
122651	7	Sololá	701	Sololá	4	Finca Santa Victoria	8	Agosto	2023-04-08T00:00:00	2024-11-08T12:00:00	1	Precipitación	0
122652	7	Sololá	701	Sololá	4	Finca Santa Victoria	8	Agosto	2023-04-08T00:00:00	2024-11-08T12:00:00	8	Radiación solar	433
122653	7	Sololá	701	Sololá	4	Finca Santa Victoria	8	Agosto	2023-04-08T00:00:00	2024-11-08T13:00:00	2	Temperatura media	19.9
122654	7	Sololá	701	Sololá	4	Finca Santa Victoria	8	Agosto	2023-04-08T00:00:00	2024-11-08T13:00:00	4	Temperatura máxima	21.3
122655	7	Sololá	701	Sololá	4	Finca Santa Victoria	8	Agosto	2023-04-08T00:00:00	2024-11-08T13:00:00	3	Temperatura mínima	19.2
122656	7	Sololá	701	Sololá	4	Finca Santa Victoria	8	Agosto	2023-04-08T00:00:00	2024-11-08T13:00:00	5	Humedad	79
122657	7	Sololá	701	Sololá	4	Finca Santa Victoria	8	Agosto	2023-04-08T00:00:00	2024-11-08T13:00:00	6	Velocidad del viento	1.6
122658	7	Sololá	701	Sololá	4	Finca Santa Victoria	8	Agosto	2023-04-08T00:00:00	2024-11-08T13:00:00	7	Dirección del viento	1.61
122659	7	Sololá	701	Sololá	4	Finca Santa Victoria	8	Agosto	2023-04-08T00:00:00	2024-11-08T13:00:00	1	Precipitación	0
122660	7	Sololá	701	Sololá	4	Finca Santa Victoria	8	Agosto	2023-04-08T00:00:00	2024-11-08T13:00:00	8	Radiación solar	163
122661	7	Sololá	701	Sololá	4	Finca Santa Victoria	8	Agosto	2023-04-08T00:00:00	2024-11-08T14:00:00	2	Temperatura media	20.7
122662	7	Sololá	701	Sololá	4	Finca Santa Victoria	8	Agosto	2023-04-08T00:00:00	2024-11-08T14:00:00	4	Temperatura máxima	20.7
122663	7	Sololá	701	Sololá	4	Finca Santa Victoria	8	Agosto	2023-04-08T00:00:00	2024-11-08T14:00:00	3	Temperatura mínima	19.8
122664	7	Sololá	701	Sololá	4	Finca Santa Victoria	8	Agosto	2023-04-08T00:00:00	2024-11-08T14:00:00	5	Humedad	77
122665	7	Sololá	701	Sololá	4	Finca Santa Victoria	8	Agosto	2023-04-08T00:00:00	2024-11-08T14:00:00	6	Velocidad del viento	1.6
122666	7	Sololá	701	Sololá	4	Finca Santa Victoria	8	Agosto	2023-04-08T00:00:00	2024-11-08T14:00:00	7	Dirección del viento	1.61
122667	7	Sololá	701	Sololá	4	Finca Santa Victoria	8	Agosto	2023-04-08T00:00:00	2024-11-08T14:00:00	1	Precipitación	0
122668	7	Sololá	701	Sololá	4	Finca Santa Victoria	8	Agosto	2023-04-08T00:00:00	2024-11-08T14:00:00	8	Radiación solar	242
122669	7	Sololá	701	Sololá	4	Finca Santa Victoria	8	Agosto	2023-04-08T00:00:00	2024-11-08T15:00:00	2	Temperatura media	20.8
122670	7	Sololá	701	Sololá	4	Finca Santa Victoria	8	Agosto	2023-04-08T00:00:00	2024-11-08T15:00:00	4	Temperatura máxima	21.2
122671	7	Sololá	701	Sololá	4	Finca Santa Victoria	8	Agosto	2023-04-08T00:00:00	2024-11-08T15:00:00	3	Temperatura mínima	20.2
122672	7	Sololá	701	Sololá	4	Finca Santa Victoria	8	Agosto	2023-04-08T00:00:00	2024-11-08T15:00:00	5	Humedad	60
122673	7	Sololá	701	Sololá	4	Finca Santa Victoria	8	Agosto	2023-04-08T00:00:00	2024-11-08T15:00:00	6	Velocidad del viento	3.2
122674	7	Sololá	701	Sololá	4	Finca Santa Victoria	8	Agosto	2023-04-08T00:00:00	2024-11-08T15:00:00	7	Dirección del viento	3.22
122675	7	Sololá	701	Sololá	4	Finca Santa Victoria	8	Agosto	2023-04-08T00:00:00	2024-11-08T15:00:00	1	Precipitación	0
122676	7	Sololá	701	Sololá	4	Finca Santa Victoria	8	Agosto	2023-04-08T00:00:00	2024-11-08T15:00:00	8	Radiación solar	208
122677	7	Sololá	701	Sololá	4	Finca Santa Victoria	8	Agosto	2023-04-08T00:00:00	2024-11-08T16:00:00	2	Temperatura media	21.9
122678	7	Sololá	701	Sololá	4	Finca Santa Victoria	8	Agosto	2023-04-08T00:00:00	2024-11-08T16:00:00	4	Temperatura máxima	22.1
122679	7	Sololá	701	Sololá	4	Finca Santa Victoria	8	Agosto	2023-04-08T00:00:00	2024-11-08T16:00:00	3	Temperatura mínima	20.7
122680	7	Sololá	701	Sololá	4	Finca Santa Victoria	8	Agosto	2023-04-08T00:00:00	2024-11-08T16:00:00	5	Humedad	54
122681	7	Sololá	701	Sololá	4	Finca Santa Victoria	8	Agosto	2023-04-08T00:00:00	2024-11-08T16:00:00	6	Velocidad del viento	4.8
122682	7	Sololá	701	Sololá	4	Finca Santa Victoria	8	Agosto	2023-04-08T00:00:00	2024-11-08T16:00:00	7	Dirección del viento	4.83
122683	7	Sololá	701	Sololá	4	Finca Santa Victoria	8	Agosto	2023-04-08T00:00:00	2024-11-08T16:00:00	1	Precipitación	0
122684	7	Sololá	701	Sololá	4	Finca Santa Victoria	8	Agosto	2023-04-08T00:00:00	2024-11-08T16:00:00	8	Radiación solar	192
122685	7	Sololá	701	Sololá	4	Finca Santa Victoria	8	Agosto	2023-04-08T00:00:00	2024-11-08T17:00:00	2	Temperatura media	19.3
122686	7	Sololá	701	Sololá	4	Finca Santa Victoria	8	Agosto	2023-04-08T00:00:00	2024-11-08T17:00:00	4	Temperatura máxima	22
122687	7	Sololá	701	Sololá	4	Finca Santa Victoria	8	Agosto	2023-04-08T00:00:00	2024-11-08T17:00:00	3	Temperatura mínima	19.3
122688	7	Sololá	701	Sololá	4	Finca Santa Victoria	8	Agosto	2023-04-08T00:00:00	2024-11-08T17:00:00	5	Humedad	87
122689	7	Sololá	701	Sololá	4	Finca Santa Victoria	8	Agosto	2023-04-08T00:00:00	2024-11-08T17:00:00	6	Velocidad del viento	1.6
122690	7	Sololá	701	Sololá	4	Finca Santa Victoria	8	Agosto	2023-04-08T00:00:00	2024-11-08T17:00:00	7	Dirección del viento	1.61
122691	7	Sololá	701	Sololá	4	Finca Santa Victoria	8	Agosto	2023-04-08T00:00:00	2024-11-08T17:00:00	1	Precipitación	0
122692	7	Sololá	701	Sololá	4	Finca Santa Victoria	8	Agosto	2023-04-08T00:00:00	2024-11-08T17:00:00	8	Radiación solar	113
122693	7	Sololá	701	Sololá	4	Finca Santa Victoria	8	Agosto	2023-04-08T00:00:00	2024-11-08T18:00:00	2	Temperatura media	17.1
122694	7	Sololá	701	Sololá	4	Finca Santa Victoria	8	Agosto	2023-04-08T00:00:00	2024-11-08T18:00:00	4	Temperatura máxima	19.3
122695	7	Sololá	701	Sololá	4	Finca Santa Victoria	8	Agosto	2023-04-08T00:00:00	2024-11-08T18:00:00	3	Temperatura mínima	17.1
122696	7	Sololá	701	Sololá	4	Finca Santa Victoria	8	Agosto	2023-04-08T00:00:00	2024-11-08T18:00:00	5	Humedad	89
122697	7	Sololá	701	Sololá	4	Finca Santa Victoria	8	Agosto	2023-04-08T00:00:00	2024-11-08T18:00:00	6	Velocidad del viento	1.6
122698	7	Sololá	701	Sololá	4	Finca Santa Victoria	8	Agosto	2023-04-08T00:00:00	2024-11-08T18:00:00	7	Dirección del viento	1.61
122699	7	Sololá	701	Sololá	4	Finca Santa Victoria	8	Agosto	2023-04-08T00:00:00	2024-11-08T18:00:00	1	Precipitación	0
122700	7	Sololá	701	Sololá	4	Finca Santa Victoria	8	Agosto	2023-04-08T00:00:00	2024-11-08T18:00:00	8	Radiación solar	62
122701	7	Sololá	701	Sololá	4	Finca Santa Victoria	8	Agosto	2023-04-08T00:00:00	2024-11-08T19:00:00	2	Temperatura media	15.8
122702	7	Sololá	701	Sololá	4	Finca Santa Victoria	8	Agosto	2023-04-08T00:00:00	2024-11-08T19:00:00	4	Temperatura máxima	17.1
122703	7	Sololá	701	Sololá	4	Finca Santa Victoria	8	Agosto	2023-04-08T00:00:00	2024-11-08T19:00:00	3	Temperatura mínima	15.8
122704	7	Sololá	701	Sololá	4	Finca Santa Victoria	8	Agosto	2023-04-08T00:00:00	2024-11-08T19:00:00	5	Humedad	87
122705	7	Sololá	701	Sololá	4	Finca Santa Victoria	8	Agosto	2023-04-08T00:00:00	2024-11-08T19:00:00	6	Velocidad del viento	0
122706	7	Sololá	701	Sololá	4	Finca Santa Victoria	8	Agosto	2023-04-08T00:00:00	2024-11-08T19:00:00	7	Dirección del viento	0
122707	7	Sololá	701	Sololá	4	Finca Santa Victoria	8	Agosto	2023-04-08T00:00:00	2024-11-08T19:00:00	1	Precipitación	0
122708	7	Sololá	701	Sololá	4	Finca Santa Victoria	8	Agosto	2023-04-08T00:00:00	2024-11-08T19:00:00	8	Radiación solar	0
122709	7	Sololá	701	Sololá	4	Finca Santa Victoria	8	Agosto	2023-04-08T00:00:00	2024-11-08T20:00:00	2	Temperatura media	15.5
122710	7	Sololá	701	Sololá	4	Finca Santa Victoria	8	Agosto	2023-04-08T00:00:00	2024-11-08T20:00:00	4	Temperatura máxima	15.8
122711	7	Sololá	701	Sololá	4	Finca Santa Victoria	8	Agosto	2023-04-08T00:00:00	2024-11-08T20:00:00	3	Temperatura mínima	15.4
122712	7	Sololá	701	Sololá	4	Finca Santa Victoria	8	Agosto	2023-04-08T00:00:00	2024-11-08T20:00:00	5	Humedad	89
122713	7	Sololá	701	Sololá	4	Finca Santa Victoria	8	Agosto	2023-04-08T00:00:00	2024-11-08T20:00:00	6	Velocidad del viento	0
122714	7	Sololá	701	Sololá	4	Finca Santa Victoria	8	Agosto	2023-04-08T00:00:00	2024-11-08T20:00:00	7	Dirección del viento	0
122715	7	Sololá	701	Sololá	4	Finca Santa Victoria	8	Agosto	2023-04-08T00:00:00	2024-11-08T20:00:00	1	Precipitación	0
122716	7	Sololá	701	Sololá	4	Finca Santa Victoria	8	Agosto	2023-04-08T00:00:00	2024-11-08T20:00:00	8	Radiación solar	0
122717	7	Sololá	701	Sololá	4	Finca Santa Victoria	8	Agosto	2023-04-08T00:00:00	2024-11-08T21:00:00	2	Temperatura media	14.8
122718	7	Sololá	701	Sololá	4	Finca Santa Victoria	8	Agosto	2023-04-08T00:00:00	2024-11-08T21:00:00	4	Temperatura máxima	15.6
122719	7	Sololá	701	Sololá	4	Finca Santa Victoria	8	Agosto	2023-04-08T00:00:00	2024-11-08T21:00:00	3	Temperatura mínima	14.8
122720	7	Sololá	701	Sololá	4	Finca Santa Victoria	8	Agosto	2023-04-08T00:00:00	2024-11-08T21:00:00	5	Humedad	92
122721	7	Sololá	701	Sololá	4	Finca Santa Victoria	8	Agosto	2023-04-08T00:00:00	2024-11-08T21:00:00	6	Velocidad del viento	0
122722	7	Sololá	701	Sololá	4	Finca Santa Victoria	8	Agosto	2023-04-08T00:00:00	2024-11-08T21:00:00	7	Dirección del viento	0
122723	7	Sololá	701	Sololá	4	Finca Santa Victoria	8	Agosto	2023-04-08T00:00:00	2024-11-08T21:00:00	1	Precipitación	0
122724	7	Sololá	701	Sololá	4	Finca Santa Victoria	8	Agosto	2023-04-08T00:00:00	2024-11-08T21:00:00	8	Radiación solar	0
122725	7	Sololá	701	Sololá	4	Finca Santa Victoria	8	Agosto	2023-04-08T00:00:00	2024-11-08T22:00:00	2	Temperatura media	14.4
122726	7	Sololá	701	Sololá	4	Finca Santa Victoria	8	Agosto	2023-04-08T00:00:00	2024-11-08T22:00:00	4	Temperatura máxima	14.9
122727	7	Sololá	701	Sololá	4	Finca Santa Victoria	8	Agosto	2023-04-08T00:00:00	2024-11-08T22:00:00	3	Temperatura mínima	14.4
122728	7	Sololá	701	Sololá	4	Finca Santa Victoria	8	Agosto	2023-04-08T00:00:00	2024-11-08T22:00:00	5	Humedad	90
122729	7	Sololá	701	Sololá	4	Finca Santa Victoria	8	Agosto	2023-04-08T00:00:00	2024-11-08T22:00:00	6	Velocidad del viento	0
122730	7	Sololá	701	Sololá	4	Finca Santa Victoria	8	Agosto	2023-04-08T00:00:00	2024-11-08T22:00:00	7	Dirección del viento	0
122731	7	Sololá	701	Sololá	4	Finca Santa Victoria	8	Agosto	2023-04-08T00:00:00	2024-11-08T22:00:00	1	Precipitación	0
122732	7	Sololá	701	Sololá	4	Finca Santa Victoria	8	Agosto	2023-04-08T00:00:00	2024-11-08T22:00:00	8	Radiación solar	0
122733	7	Sololá	701	Sololá	4	Finca Santa Victoria	8	Agosto	2023-04-08T00:00:00	2024-11-08T23:00:00	2	Temperatura media	13.9
122734	7	Sololá	701	Sololá	4	Finca Santa Victoria	8	Agosto	2023-04-08T00:00:00	2024-11-08T23:00:00	4	Temperatura máxima	14.4
122735	7	Sololá	701	Sololá	4	Finca Santa Victoria	8	Agosto	2023-04-08T00:00:00	2024-11-08T23:00:00	3	Temperatura mínima	13.9
122736	7	Sololá	701	Sololá	4	Finca Santa Victoria	8	Agosto	2023-04-08T00:00:00	2024-11-08T23:00:00	5	Humedad	92
122737	7	Sololá	701	Sololá	4	Finca Santa Victoria	8	Agosto	2023-04-08T00:00:00	2024-11-08T23:00:00	6	Velocidad del viento	0
122738	7	Sololá	701	Sololá	4	Finca Santa Victoria	8	Agosto	2023-04-08T00:00:00	2024-11-08T23:00:00	7	Dirección del viento	0
122739	7	Sololá	701	Sololá	4	Finca Santa Victoria	8	Agosto	2023-04-08T00:00:00	2024-11-08T23:00:00	1	Precipitación	0
122740	7	Sololá	701	Sololá	4	Finca Santa Victoria	8	Agosto	2023-04-08T00:00:00	2024-11-08T23:00:00	8	Radiación solar	0
122741	7	Sololá	701	Sololá	4	Finca Santa Victoria	8	Agosto	2023-05-08T00:00:00	2024-11-08T00:00:00	2	Temperatura media	13.7
122742	7	Sololá	701	Sololá	4	Finca Santa Victoria	8	Agosto	2023-05-08T00:00:00	2024-11-08T00:00:00	4	Temperatura máxima	14
122743	7	Sololá	701	Sololá	4	Finca Santa Victoria	8	Agosto	2023-05-08T00:00:00	2024-11-08T00:00:00	3	Temperatura mínima	13.7
122744	7	Sololá	701	Sololá	4	Finca Santa Victoria	8	Agosto	2023-05-08T00:00:00	2024-11-08T00:00:00	5	Humedad	92
122745	7	Sololá	701	Sololá	4	Finca Santa Victoria	8	Agosto	2023-05-08T00:00:00	2024-11-08T00:00:00	6	Velocidad del viento	0
122746	7	Sololá	701	Sololá	4	Finca Santa Victoria	8	Agosto	2023-05-08T00:00:00	2024-11-08T00:00:00	7	Dirección del viento	0
122747	7	Sololá	701	Sololá	4	Finca Santa Victoria	8	Agosto	2023-05-08T00:00:00	2024-11-08T00:00:00	1	Precipitación	0
122748	7	Sololá	701	Sololá	4	Finca Santa Victoria	8	Agosto	2023-05-08T00:00:00	2024-11-08T00:00:00	8	Radiación solar	0
122749	7	Sololá	701	Sololá	4	Finca Santa Victoria	8	Agosto	2023-05-08T00:00:00	2024-11-08T01:00:00	2	Temperatura media	13.2
122750	7	Sololá	701	Sololá	4	Finca Santa Victoria	8	Agosto	2023-05-08T00:00:00	2024-11-08T01:00:00	4	Temperatura máxima	13.7
122751	7	Sololá	701	Sololá	4	Finca Santa Victoria	8	Agosto	2023-05-08T00:00:00	2024-11-08T01:00:00	3	Temperatura mínima	13.2
122752	7	Sololá	701	Sololá	4	Finca Santa Victoria	8	Agosto	2023-05-08T00:00:00	2024-11-08T01:00:00	5	Humedad	96
122753	7	Sololá	701	Sololá	4	Finca Santa Victoria	8	Agosto	2023-05-08T00:00:00	2024-11-08T01:00:00	6	Velocidad del viento	1.6
122754	7	Sololá	701	Sololá	4	Finca Santa Victoria	8	Agosto	2023-05-08T00:00:00	2024-11-08T01:00:00	7	Dirección del viento	1.61
122755	7	Sololá	701	Sololá	4	Finca Santa Victoria	8	Agosto	2023-05-08T00:00:00	2024-11-08T01:00:00	1	Precipitación	0
122756	7	Sololá	701	Sololá	4	Finca Santa Victoria	8	Agosto	2023-05-08T00:00:00	2024-11-08T01:00:00	8	Radiación solar	0
122757	7	Sololá	701	Sololá	4	Finca Santa Victoria	8	Agosto	2023-05-08T00:00:00	2024-11-08T02:00:00	2	Temperatura media	12.7
122758	7	Sololá	701	Sololá	4	Finca Santa Victoria	8	Agosto	2023-05-08T00:00:00	2024-11-08T02:00:00	4	Temperatura máxima	13.2
122759	7	Sololá	701	Sololá	4	Finca Santa Victoria	8	Agosto	2023-05-08T00:00:00	2024-11-08T02:00:00	3	Temperatura mínima	12.7
122760	7	Sololá	701	Sololá	4	Finca Santa Victoria	8	Agosto	2023-05-08T00:00:00	2024-11-08T02:00:00	5	Humedad	96
122761	7	Sololá	701	Sololá	4	Finca Santa Victoria	8	Agosto	2023-05-08T00:00:00	2024-11-08T02:00:00	6	Velocidad del viento	0
122762	7	Sololá	701	Sololá	4	Finca Santa Victoria	8	Agosto	2023-05-08T00:00:00	2024-11-08T02:00:00	7	Dirección del viento	0
122763	7	Sololá	701	Sololá	4	Finca Santa Victoria	8	Agosto	2023-05-08T00:00:00	2024-11-08T02:00:00	1	Precipitación	0
122764	7	Sololá	701	Sololá	4	Finca Santa Victoria	8	Agosto	2023-05-08T00:00:00	2024-11-08T02:00:00	8	Radiación solar	0
122765	7	Sololá	701	Sololá	4	Finca Santa Victoria	8	Agosto	2023-05-08T00:00:00	2024-11-08T03:00:00	2	Temperatura media	13.1
122766	7	Sololá	701	Sololá	4	Finca Santa Victoria	8	Agosto	2023-05-08T00:00:00	2024-11-08T03:00:00	4	Temperatura máxima	13.1
122767	7	Sololá	701	Sololá	4	Finca Santa Victoria	8	Agosto	2023-05-08T00:00:00	2024-11-08T03:00:00	3	Temperatura mínima	12.6
122768	7	Sololá	701	Sololá	4	Finca Santa Victoria	8	Agosto	2023-05-08T00:00:00	2024-11-08T03:00:00	5	Humedad	93
122769	7	Sololá	701	Sololá	4	Finca Santa Victoria	8	Agosto	2023-05-08T00:00:00	2024-11-08T03:00:00	6	Velocidad del viento	0
122770	7	Sololá	701	Sololá	4	Finca Santa Victoria	8	Agosto	2023-05-08T00:00:00	2024-11-08T03:00:00	7	Dirección del viento	0
122771	7	Sololá	701	Sololá	4	Finca Santa Victoria	8	Agosto	2023-05-08T00:00:00	2024-11-08T03:00:00	1	Precipitación	0
122772	7	Sololá	701	Sololá	4	Finca Santa Victoria	8	Agosto	2023-05-08T00:00:00	2024-11-08T03:00:00	8	Radiación solar	0
122773	7	Sololá	701	Sololá	4	Finca Santa Victoria	8	Agosto	2023-05-08T00:00:00	2024-11-08T04:00:00	2	Temperatura media	14.1
122774	7	Sololá	701	Sololá	4	Finca Santa Victoria	8	Agosto	2023-05-08T00:00:00	2024-11-08T04:00:00	4	Temperatura máxima	14.1
122775	7	Sololá	701	Sololá	4	Finca Santa Victoria	8	Agosto	2023-05-08T00:00:00	2024-11-08T04:00:00	3	Temperatura mínima	13.1
122776	7	Sololá	701	Sololá	4	Finca Santa Victoria	8	Agosto	2023-05-08T00:00:00	2024-11-08T04:00:00	5	Humedad	90
122777	7	Sololá	701	Sololá	4	Finca Santa Victoria	8	Agosto	2023-05-08T00:00:00	2024-11-08T04:00:00	6	Velocidad del viento	1.6
122778	7	Sololá	701	Sololá	4	Finca Santa Victoria	8	Agosto	2023-05-08T00:00:00	2024-11-08T04:00:00	7	Dirección del viento	1.61
122779	7	Sololá	701	Sololá	4	Finca Santa Victoria	8	Agosto	2023-05-08T00:00:00	2024-11-08T04:00:00	1	Precipitación	0
122780	7	Sololá	701	Sololá	4	Finca Santa Victoria	8	Agosto	2023-05-08T00:00:00	2024-11-08T04:00:00	8	Radiación solar	0
122781	7	Sololá	701	Sololá	4	Finca Santa Victoria	8	Agosto	2023-05-08T00:00:00	2024-11-08T05:00:00	2	Temperatura media	14.4
122782	7	Sololá	701	Sololá	4	Finca Santa Victoria	8	Agosto	2023-05-08T00:00:00	2024-11-08T05:00:00	4	Temperatura máxima	14.6
122783	7	Sololá	701	Sololá	4	Finca Santa Victoria	8	Agosto	2023-05-08T00:00:00	2024-11-08T05:00:00	3	Temperatura mínima	14.1
122784	7	Sololá	701	Sololá	4	Finca Santa Victoria	8	Agosto	2023-05-08T00:00:00	2024-11-08T05:00:00	5	Humedad	89
122785	7	Sololá	701	Sololá	4	Finca Santa Victoria	8	Agosto	2023-05-08T00:00:00	2024-11-08T05:00:00	6	Velocidad del viento	3.2
122786	7	Sololá	701	Sololá	4	Finca Santa Victoria	8	Agosto	2023-05-08T00:00:00	2024-11-08T05:00:00	7	Dirección del viento	3.22
122787	7	Sololá	701	Sololá	4	Finca Santa Victoria	8	Agosto	2023-05-08T00:00:00	2024-11-08T05:00:00	1	Precipitación	0
122788	7	Sololá	701	Sololá	4	Finca Santa Victoria	8	Agosto	2023-05-08T00:00:00	2024-11-08T05:00:00	8	Radiación solar	0
122789	7	Sololá	701	Sololá	4	Finca Santa Victoria	8	Agosto	2023-05-08T00:00:00	2024-11-08T06:00:00	2	Temperatura media	13.9
122790	7	Sololá	701	Sololá	4	Finca Santa Victoria	8	Agosto	2023-05-08T00:00:00	2024-11-08T06:00:00	4	Temperatura máxima	14.4
122791	7	Sololá	701	Sololá	4	Finca Santa Victoria	8	Agosto	2023-05-08T00:00:00	2024-11-08T06:00:00	3	Temperatura mínima	13.8
122792	7	Sololá	701	Sololá	4	Finca Santa Victoria	8	Agosto	2023-05-08T00:00:00	2024-11-08T06:00:00	5	Humedad	90
122793	7	Sololá	701	Sololá	4	Finca Santa Victoria	8	Agosto	2023-05-08T00:00:00	2024-11-08T06:00:00	6	Velocidad del viento	0
122794	7	Sololá	701	Sololá	4	Finca Santa Victoria	8	Agosto	2023-05-08T00:00:00	2024-11-08T06:00:00	7	Dirección del viento	0
122795	7	Sololá	701	Sololá	4	Finca Santa Victoria	8	Agosto	2023-05-08T00:00:00	2024-11-08T06:00:00	1	Precipitación	0
122796	7	Sololá	701	Sololá	4	Finca Santa Victoria	8	Agosto	2023-05-08T00:00:00	2024-11-08T06:00:00	8	Radiación solar	0
122797	7	Sololá	701	Sololá	4	Finca Santa Victoria	8	Agosto	2023-05-08T00:00:00	2024-11-08T07:00:00	2	Temperatura media	14.1
122798	7	Sololá	701	Sololá	4	Finca Santa Victoria	8	Agosto	2023-05-08T00:00:00	2024-11-08T07:00:00	4	Temperatura máxima	14.1
122799	7	Sololá	701	Sololá	4	Finca Santa Victoria	8	Agosto	2023-05-08T00:00:00	2024-11-08T07:00:00	3	Temperatura mínima	13.8
122800	7	Sololá	701	Sololá	4	Finca Santa Victoria	8	Agosto	2023-05-08T00:00:00	2024-11-08T07:00:00	5	Humedad	91
122801	7	Sololá	701	Sololá	4	Finca Santa Victoria	8	Agosto	2023-05-08T00:00:00	2024-11-08T07:00:00	6	Velocidad del viento	1.6
122802	7	Sololá	701	Sololá	4	Finca Santa Victoria	8	Agosto	2023-05-08T00:00:00	2024-11-08T07:00:00	7	Dirección del viento	1.61
122803	7	Sololá	701	Sololá	4	Finca Santa Victoria	8	Agosto	2023-05-08T00:00:00	2024-11-08T07:00:00	1	Precipitación	0
122804	7	Sololá	701	Sololá	4	Finca Santa Victoria	8	Agosto	2023-05-08T00:00:00	2024-11-08T07:00:00	8	Radiación solar	22
122805	7	Sololá	701	Sololá	4	Finca Santa Victoria	8	Agosto	2023-05-08T00:00:00	2024-11-08T08:00:00	2	Temperatura media	18.1
122806	7	Sololá	701	Sololá	4	Finca Santa Victoria	8	Agosto	2023-05-08T00:00:00	2024-11-08T08:00:00	4	Temperatura máxima	18.1
122807	7	Sololá	701	Sololá	4	Finca Santa Victoria	8	Agosto	2023-05-08T00:00:00	2024-11-08T08:00:00	3	Temperatura mínima	14.1
122808	7	Sololá	701	Sololá	4	Finca Santa Victoria	8	Agosto	2023-05-08T00:00:00	2024-11-08T08:00:00	5	Humedad	78
122809	7	Sololá	701	Sololá	4	Finca Santa Victoria	8	Agosto	2023-05-08T00:00:00	2024-11-08T08:00:00	6	Velocidad del viento	1.6
122810	7	Sololá	701	Sololá	4	Finca Santa Victoria	8	Agosto	2023-05-08T00:00:00	2024-11-08T08:00:00	7	Dirección del viento	1.61
122811	7	Sololá	701	Sololá	4	Finca Santa Victoria	8	Agosto	2023-05-08T00:00:00	2024-11-08T08:00:00	1	Precipitación	0
122812	7	Sololá	701	Sololá	4	Finca Santa Victoria	8	Agosto	2023-05-08T00:00:00	2024-11-08T08:00:00	8	Radiación solar	245
122813	7	Sololá	701	Sololá	4	Finca Santa Victoria	8	Agosto	2023-05-08T00:00:00	2024-11-08T09:00:00	2	Temperatura media	19.1
122814	7	Sololá	701	Sololá	4	Finca Santa Victoria	8	Agosto	2023-05-08T00:00:00	2024-11-08T09:00:00	4	Temperatura máxima	19.1
122815	7	Sololá	701	Sololá	4	Finca Santa Victoria	8	Agosto	2023-05-08T00:00:00	2024-11-08T09:00:00	3	Temperatura mínima	17.9
122816	7	Sololá	701	Sololá	4	Finca Santa Victoria	8	Agosto	2023-05-08T00:00:00	2024-11-08T09:00:00	5	Humedad	72
122817	7	Sololá	701	Sololá	4	Finca Santa Victoria	8	Agosto	2023-05-08T00:00:00	2024-11-08T09:00:00	6	Velocidad del viento	3.2
122818	7	Sololá	701	Sololá	4	Finca Santa Victoria	8	Agosto	2023-05-08T00:00:00	2024-11-08T09:00:00	7	Dirección del viento	3.22
122819	7	Sololá	701	Sololá	4	Finca Santa Victoria	8	Agosto	2023-05-08T00:00:00	2024-11-08T09:00:00	1	Precipitación	0
122820	7	Sololá	701	Sololá	4	Finca Santa Victoria	8	Agosto	2023-05-08T00:00:00	2024-11-08T09:00:00	8	Radiación solar	398
122821	7	Sololá	701	Sololá	4	Finca Santa Victoria	8	Agosto	2023-05-08T00:00:00	2024-11-08T10:00:00	2	Temperatura media	20.6
122822	7	Sololá	701	Sololá	4	Finca Santa Victoria	8	Agosto	2023-05-08T00:00:00	2024-11-08T10:00:00	4	Temperatura máxima	20.6
122823	7	Sololá	701	Sololá	4	Finca Santa Victoria	8	Agosto	2023-05-08T00:00:00	2024-11-08T10:00:00	3	Temperatura mínima	19.1
122824	7	Sololá	701	Sololá	4	Finca Santa Victoria	8	Agosto	2023-05-08T00:00:00	2024-11-08T10:00:00	5	Humedad	60
122825	7	Sololá	701	Sololá	4	Finca Santa Victoria	8	Agosto	2023-05-08T00:00:00	2024-11-08T10:00:00	6	Velocidad del viento	3.2
122826	7	Sololá	701	Sololá	4	Finca Santa Victoria	8	Agosto	2023-05-08T00:00:00	2024-11-08T10:00:00	7	Dirección del viento	3.22
122827	7	Sololá	701	Sololá	4	Finca Santa Victoria	8	Agosto	2023-05-08T00:00:00	2024-11-08T10:00:00	1	Precipitación	0
122828	7	Sololá	701	Sololá	4	Finca Santa Victoria	8	Agosto	2023-05-08T00:00:00	2024-11-08T10:00:00	8	Radiación solar	239
122829	7	Sololá	701	Sololá	4	Finca Santa Victoria	8	Agosto	2023-05-08T00:00:00	2024-11-08T11:00:00	2	Temperatura media	20.9
122830	7	Sololá	701	Sololá	4	Finca Santa Victoria	8	Agosto	2023-05-08T00:00:00	2024-11-08T11:00:00	4	Temperatura máxima	21.2
122831	7	Sololá	701	Sololá	4	Finca Santa Victoria	8	Agosto	2023-05-08T00:00:00	2024-11-08T11:00:00	3	Temperatura mínima	20.5
122832	7	Sololá	701	Sololá	4	Finca Santa Victoria	8	Agosto	2023-05-08T00:00:00	2024-11-08T11:00:00	5	Humedad	55
122833	7	Sololá	701	Sololá	4	Finca Santa Victoria	8	Agosto	2023-05-08T00:00:00	2024-11-08T11:00:00	6	Velocidad del viento	3.2
122834	7	Sololá	701	Sololá	4	Finca Santa Victoria	8	Agosto	2023-05-08T00:00:00	2024-11-08T11:00:00	7	Dirección del viento	3.22
122835	7	Sololá	701	Sololá	4	Finca Santa Victoria	8	Agosto	2023-05-08T00:00:00	2024-11-08T11:00:00	1	Precipitación	0
122836	7	Sololá	701	Sololá	4	Finca Santa Victoria	8	Agosto	2023-05-08T00:00:00	2024-11-08T11:00:00	8	Radiación solar	259
122837	7	Sololá	701	Sololá	4	Finca Santa Victoria	8	Agosto	2023-05-08T00:00:00	2024-11-08T12:00:00	2	Temperatura media	22.6
122838	7	Sololá	701	Sololá	4	Finca Santa Victoria	8	Agosto	2023-05-08T00:00:00	2024-11-08T12:00:00	4	Temperatura máxima	22.7
122839	7	Sololá	701	Sololá	4	Finca Santa Victoria	8	Agosto	2023-05-08T00:00:00	2024-11-08T12:00:00	3	Temperatura mínima	20.9
122840	7	Sololá	701	Sololá	4	Finca Santa Victoria	8	Agosto	2023-05-08T00:00:00	2024-11-08T12:00:00	5	Humedad	48
122841	7	Sololá	701	Sololá	4	Finca Santa Victoria	8	Agosto	2023-05-08T00:00:00	2024-11-08T12:00:00	6	Velocidad del viento	3.2
122842	7	Sololá	701	Sololá	4	Finca Santa Victoria	8	Agosto	2023-05-08T00:00:00	2024-11-08T12:00:00	7	Dirección del viento	3.22
122843	7	Sololá	701	Sololá	4	Finca Santa Victoria	8	Agosto	2023-05-08T00:00:00	2024-11-08T12:00:00	1	Precipitación	0
122844	7	Sololá	701	Sololá	4	Finca Santa Victoria	8	Agosto	2023-05-08T00:00:00	2024-11-08T12:00:00	8	Radiación solar	982
122845	7	Sololá	701	Sololá	4	Finca Santa Victoria	8	Agosto	2023-05-08T00:00:00	2024-11-08T13:00:00	2	Temperatura media	22.9
122846	7	Sololá	701	Sololá	4	Finca Santa Victoria	8	Agosto	2023-05-08T00:00:00	2024-11-08T13:00:00	4	Temperatura máxima	23.2
122847	7	Sololá	701	Sololá	4	Finca Santa Victoria	8	Agosto	2023-05-08T00:00:00	2024-11-08T13:00:00	3	Temperatura mínima	22.6
122848	7	Sololá	701	Sololá	4	Finca Santa Victoria	8	Agosto	2023-05-08T00:00:00	2024-11-08T13:00:00	5	Humedad	50
122849	7	Sololá	701	Sololá	4	Finca Santa Victoria	8	Agosto	2023-05-08T00:00:00	2024-11-08T13:00:00	6	Velocidad del viento	3.2
122850	7	Sololá	701	Sololá	4	Finca Santa Victoria	8	Agosto	2023-05-08T00:00:00	2024-11-08T13:00:00	7	Dirección del viento	3.22
122851	7	Sololá	701	Sololá	4	Finca Santa Victoria	8	Agosto	2023-05-08T00:00:00	2024-11-08T13:00:00	1	Precipitación	0
122852	7	Sololá	701	Sololá	4	Finca Santa Victoria	8	Agosto	2023-05-08T00:00:00	2024-11-08T13:00:00	8	Radiación solar	983
122853	7	Sololá	701	Sololá	4	Finca Santa Victoria	8	Agosto	2023-05-08T00:00:00	2024-11-08T14:00:00	2	Temperatura media	22.9
122854	7	Sololá	701	Sololá	4	Finca Santa Victoria	8	Agosto	2023-05-08T00:00:00	2024-11-08T14:00:00	4	Temperatura máxima	23
122855	7	Sololá	701	Sololá	4	Finca Santa Victoria	8	Agosto	2023-05-08T00:00:00	2024-11-08T14:00:00	3	Temperatura mínima	22.7
122856	7	Sololá	701	Sololá	4	Finca Santa Victoria	8	Agosto	2023-05-08T00:00:00	2024-11-08T14:00:00	5	Humedad	52
122857	7	Sololá	701	Sololá	4	Finca Santa Victoria	8	Agosto	2023-05-08T00:00:00	2024-11-08T14:00:00	6	Velocidad del viento	3.2
122858	7	Sololá	701	Sololá	4	Finca Santa Victoria	8	Agosto	2023-05-08T00:00:00	2024-11-08T14:00:00	7	Dirección del viento	3.22
122859	7	Sololá	701	Sololá	4	Finca Santa Victoria	8	Agosto	2023-05-08T00:00:00	2024-11-08T14:00:00	1	Precipitación	0
122860	7	Sololá	701	Sololá	4	Finca Santa Victoria	8	Agosto	2023-05-08T00:00:00	2024-11-08T14:00:00	8	Radiación solar	122
122861	7	Sololá	701	Sololá	4	Finca Santa Victoria	8	Agosto	2023-05-08T00:00:00	2024-11-08T15:00:00	2	Temperatura media	22.3
122862	7	Sololá	701	Sololá	4	Finca Santa Victoria	8	Agosto	2023-05-08T00:00:00	2024-11-08T15:00:00	4	Temperatura máxima	23.2
122863	7	Sololá	701	Sololá	4	Finca Santa Victoria	8	Agosto	2023-05-08T00:00:00	2024-11-08T15:00:00	3	Temperatura mínima	22.3
122864	7	Sololá	701	Sololá	4	Finca Santa Victoria	8	Agosto	2023-05-08T00:00:00	2024-11-08T15:00:00	5	Humedad	52
122865	7	Sololá	701	Sololá	4	Finca Santa Victoria	8	Agosto	2023-05-08T00:00:00	2024-11-08T15:00:00	6	Velocidad del viento	4.8
122866	7	Sololá	701	Sololá	4	Finca Santa Victoria	8	Agosto	2023-05-08T00:00:00	2024-11-08T15:00:00	7	Dirección del viento	4.83
122867	7	Sololá	701	Sololá	4	Finca Santa Victoria	8	Agosto	2023-05-08T00:00:00	2024-11-08T15:00:00	1	Precipitación	0
122868	7	Sololá	701	Sololá	4	Finca Santa Victoria	8	Agosto	2023-05-08T00:00:00	2024-11-08T15:00:00	8	Radiación solar	308
122869	7	Sololá	701	Sololá	4	Finca Santa Victoria	8	Agosto	2023-05-08T00:00:00	2024-11-08T16:00:00	2	Temperatura media	22.6
122870	7	Sololá	701	Sololá	4	Finca Santa Victoria	8	Agosto	2023-05-08T00:00:00	2024-11-08T16:00:00	4	Temperatura máxima	22.6
122871	7	Sololá	701	Sololá	4	Finca Santa Victoria	8	Agosto	2023-05-08T00:00:00	2024-11-08T16:00:00	3	Temperatura mínima	22.2
122872	7	Sololá	701	Sololá	4	Finca Santa Victoria	8	Agosto	2023-05-08T00:00:00	2024-11-08T16:00:00	5	Humedad	44
122873	7	Sololá	701	Sololá	4	Finca Santa Victoria	8	Agosto	2023-05-08T00:00:00	2024-11-08T16:00:00	6	Velocidad del viento	3.2
122874	7	Sololá	701	Sololá	4	Finca Santa Victoria	8	Agosto	2023-05-08T00:00:00	2024-11-08T16:00:00	7	Dirección del viento	3.22
122875	7	Sololá	701	Sololá	4	Finca Santa Victoria	8	Agosto	2023-05-08T00:00:00	2024-11-08T16:00:00	1	Precipitación	0
122876	7	Sololá	701	Sololá	4	Finca Santa Victoria	8	Agosto	2023-05-08T00:00:00	2024-11-08T16:00:00	8	Radiación solar	168
122877	7	Sololá	701	Sololá	4	Finca Santa Victoria	8	Agosto	2023-05-08T00:00:00	2024-11-08T17:00:00	2	Temperatura media	21
122878	7	Sololá	701	Sololá	4	Finca Santa Victoria	8	Agosto	2023-05-08T00:00:00	2024-11-08T17:00:00	4	Temperatura máxima	22.9
122879	7	Sololá	701	Sololá	4	Finca Santa Victoria	8	Agosto	2023-05-08T00:00:00	2024-11-08T17:00:00	3	Temperatura mínima	21
122880	7	Sololá	701	Sololá	4	Finca Santa Victoria	8	Agosto	2023-05-08T00:00:00	2024-11-08T17:00:00	5	Humedad	56
122881	7	Sololá	701	Sololá	4	Finca Santa Victoria	8	Agosto	2023-05-08T00:00:00	2024-11-08T17:00:00	6	Velocidad del viento	3.2
122882	7	Sololá	701	Sololá	4	Finca Santa Victoria	8	Agosto	2023-05-08T00:00:00	2024-11-08T17:00:00	7	Dirección del viento	3.22
122883	7	Sololá	701	Sololá	4	Finca Santa Victoria	8	Agosto	2023-05-08T00:00:00	2024-11-08T17:00:00	1	Precipitación	0
122884	7	Sololá	701	Sololá	4	Finca Santa Victoria	8	Agosto	2023-05-08T00:00:00	2024-11-08T17:00:00	8	Radiación solar	142
122885	7	Sololá	701	Sololá	4	Finca Santa Victoria	8	Agosto	2023-05-08T00:00:00	2024-11-08T18:00:00	2	Temperatura media	19.2
122886	7	Sololá	701	Sololá	4	Finca Santa Victoria	8	Agosto	2023-05-08T00:00:00	2024-11-08T18:00:00	4	Temperatura máxima	21
122887	7	Sololá	701	Sololá	4	Finca Santa Victoria	8	Agosto	2023-05-08T00:00:00	2024-11-08T18:00:00	3	Temperatura mínima	19.2
122888	7	Sololá	701	Sololá	4	Finca Santa Victoria	8	Agosto	2023-05-08T00:00:00	2024-11-08T18:00:00	5	Humedad	69
122889	7	Sololá	701	Sololá	4	Finca Santa Victoria	8	Agosto	2023-05-08T00:00:00	2024-11-08T18:00:00	6	Velocidad del viento	3.2
122890	7	Sololá	701	Sololá	4	Finca Santa Victoria	8	Agosto	2023-05-08T00:00:00	2024-11-08T18:00:00	7	Dirección del viento	3.22
122891	7	Sololá	701	Sololá	4	Finca Santa Victoria	8	Agosto	2023-05-08T00:00:00	2024-11-08T18:00:00	1	Precipitación	0
122892	7	Sololá	701	Sololá	4	Finca Santa Victoria	8	Agosto	2023-05-08T00:00:00	2024-11-08T18:00:00	8	Radiación solar	38
122893	7	Sololá	701	Sololá	4	Finca Santa Victoria	8	Agosto	2023-05-08T00:00:00	2024-11-08T19:00:00	2	Temperatura media	16.9
122894	7	Sololá	701	Sololá	4	Finca Santa Victoria	8	Agosto	2023-05-08T00:00:00	2024-11-08T19:00:00	4	Temperatura máxima	19.2
122895	7	Sololá	701	Sololá	4	Finca Santa Victoria	8	Agosto	2023-05-08T00:00:00	2024-11-08T19:00:00	3	Temperatura mínima	16.9
122896	7	Sololá	701	Sololá	4	Finca Santa Victoria	8	Agosto	2023-05-08T00:00:00	2024-11-08T19:00:00	5	Humedad	79
122897	7	Sololá	701	Sololá	4	Finca Santa Victoria	8	Agosto	2023-05-08T00:00:00	2024-11-08T19:00:00	6	Velocidad del viento	3.2
122898	7	Sololá	701	Sololá	4	Finca Santa Victoria	8	Agosto	2023-05-08T00:00:00	2024-11-08T19:00:00	7	Dirección del viento	3.22
122899	7	Sololá	701	Sololá	4	Finca Santa Victoria	8	Agosto	2023-05-08T00:00:00	2024-11-08T19:00:00	1	Precipitación	0
122900	7	Sololá	701	Sololá	4	Finca Santa Victoria	8	Agosto	2023-05-08T00:00:00	2024-11-08T19:00:00	8	Radiación solar	0
122901	7	Sololá	701	Sololá	4	Finca Santa Victoria	8	Agosto	2023-05-08T00:00:00	2024-11-08T20:00:00	2	Temperatura media	16.1
122902	7	Sololá	701	Sololá	4	Finca Santa Victoria	8	Agosto	2023-05-08T00:00:00	2024-11-08T20:00:00	4	Temperatura máxima	17
122903	7	Sololá	701	Sololá	4	Finca Santa Victoria	8	Agosto	2023-05-08T00:00:00	2024-11-08T20:00:00	3	Temperatura mínima	16.1
122904	7	Sololá	701	Sololá	4	Finca Santa Victoria	8	Agosto	2023-05-08T00:00:00	2024-11-08T20:00:00	5	Humedad	81
122905	7	Sololá	701	Sololá	4	Finca Santa Victoria	8	Agosto	2023-05-08T00:00:00	2024-11-08T20:00:00	6	Velocidad del viento	3.2
122906	7	Sololá	701	Sololá	4	Finca Santa Victoria	8	Agosto	2023-05-08T00:00:00	2024-11-08T20:00:00	7	Dirección del viento	3.22
122907	7	Sololá	701	Sololá	4	Finca Santa Victoria	8	Agosto	2023-05-08T00:00:00	2024-11-08T20:00:00	1	Precipitación	0
122908	7	Sololá	701	Sololá	4	Finca Santa Victoria	8	Agosto	2023-05-08T00:00:00	2024-11-08T20:00:00	8	Radiación solar	0
122909	7	Sololá	701	Sololá	4	Finca Santa Victoria	8	Agosto	2023-05-08T00:00:00	2024-11-08T21:00:00	2	Temperatura media	15.7
122910	7	Sololá	701	Sololá	4	Finca Santa Victoria	8	Agosto	2023-05-08T00:00:00	2024-11-08T21:00:00	4	Temperatura máxima	16.1
122911	7	Sololá	701	Sololá	4	Finca Santa Victoria	8	Agosto	2023-05-08T00:00:00	2024-11-08T21:00:00	3	Temperatura mínima	15.5
122912	7	Sololá	701	Sololá	4	Finca Santa Victoria	8	Agosto	2023-05-08T00:00:00	2024-11-08T21:00:00	5	Humedad	83
122913	7	Sololá	701	Sololá	4	Finca Santa Victoria	8	Agosto	2023-05-08T00:00:00	2024-11-08T21:00:00	6	Velocidad del viento	3.2
122914	7	Sololá	701	Sololá	4	Finca Santa Victoria	8	Agosto	2023-05-08T00:00:00	2024-11-08T21:00:00	7	Dirección del viento	3.22
122915	7	Sololá	701	Sololá	4	Finca Santa Victoria	8	Agosto	2023-05-08T00:00:00	2024-11-08T21:00:00	1	Precipitación	0
122916	7	Sololá	701	Sololá	4	Finca Santa Victoria	8	Agosto	2023-05-08T00:00:00	2024-11-08T21:00:00	8	Radiación solar	0
122917	7	Sololá	701	Sololá	4	Finca Santa Victoria	8	Agosto	2023-05-08T00:00:00	2024-11-08T22:00:00	2	Temperatura media	14.9
122918	7	Sololá	701	Sololá	4	Finca Santa Victoria	8	Agosto	2023-05-08T00:00:00	2024-11-08T22:00:00	4	Temperatura máxima	15.7
122919	7	Sololá	701	Sololá	4	Finca Santa Victoria	8	Agosto	2023-05-08T00:00:00	2024-11-08T22:00:00	3	Temperatura mínima	14.8
122920	7	Sololá	701	Sololá	4	Finca Santa Victoria	8	Agosto	2023-05-08T00:00:00	2024-11-08T22:00:00	5	Humedad	86
122921	7	Sololá	701	Sololá	4	Finca Santa Victoria	8	Agosto	2023-05-08T00:00:00	2024-11-08T22:00:00	6	Velocidad del viento	1.6
122922	7	Sololá	701	Sololá	4	Finca Santa Victoria	8	Agosto	2023-05-08T00:00:00	2024-11-08T22:00:00	7	Dirección del viento	1.61
122923	7	Sololá	701	Sololá	4	Finca Santa Victoria	8	Agosto	2023-05-08T00:00:00	2024-11-08T22:00:00	1	Precipitación	0
122924	7	Sololá	701	Sololá	4	Finca Santa Victoria	8	Agosto	2023-05-08T00:00:00	2024-11-08T22:00:00	8	Radiación solar	0
122925	7	Sololá	701	Sololá	4	Finca Santa Victoria	8	Agosto	2023-05-08T00:00:00	2024-11-08T23:00:00	2	Temperatura media	14.8
122926	7	Sololá	701	Sololá	4	Finca Santa Victoria	8	Agosto	2023-05-08T00:00:00	2024-11-08T23:00:00	4	Temperatura máxima	14.9
122927	7	Sololá	701	Sololá	4	Finca Santa Victoria	8	Agosto	2023-05-08T00:00:00	2024-11-08T23:00:00	3	Temperatura mínima	14.7
122928	7	Sololá	701	Sololá	4	Finca Santa Victoria	8	Agosto	2023-05-08T00:00:00	2024-11-08T23:00:00	5	Humedad	82
122929	7	Sololá	701	Sololá	4	Finca Santa Victoria	8	Agosto	2023-05-08T00:00:00	2024-11-08T23:00:00	6	Velocidad del viento	1.6
122930	7	Sololá	701	Sololá	4	Finca Santa Victoria	8	Agosto	2023-05-08T00:00:00	2024-11-08T23:00:00	7	Dirección del viento	1.61
122931	7	Sololá	701	Sololá	4	Finca Santa Victoria	8	Agosto	2023-05-08T00:00:00	2024-11-08T23:00:00	1	Precipitación	0
122932	7	Sololá	701	Sololá	4	Finca Santa Victoria	8	Agosto	2023-05-08T00:00:00	2024-11-08T23:00:00	8	Radiación solar	0
122933	7	Sololá	701	Sololá	4	Finca Santa Victoria	8	Agosto	2023-06-08T00:00:00	2024-11-08T00:00:00	2	Temperatura media	13.9
122934	7	Sololá	701	Sololá	4	Finca Santa Victoria	8	Agosto	2023-06-08T00:00:00	2024-11-08T00:00:00	4	Temperatura máxima	14.9
122935	7	Sololá	701	Sololá	4	Finca Santa Victoria	8	Agosto	2023-06-08T00:00:00	2024-11-08T00:00:00	3	Temperatura mínima	13.7
122936	7	Sololá	701	Sololá	4	Finca Santa Victoria	8	Agosto	2023-06-08T00:00:00	2024-11-08T00:00:00	5	Humedad	83
122937	7	Sololá	701	Sololá	4	Finca Santa Victoria	8	Agosto	2023-06-08T00:00:00	2024-11-08T00:00:00	6	Velocidad del viento	1.6
122938	7	Sololá	701	Sololá	4	Finca Santa Victoria	8	Agosto	2023-06-08T00:00:00	2024-11-08T00:00:00	7	Dirección del viento	1.61
122939	7	Sololá	701	Sololá	4	Finca Santa Victoria	8	Agosto	2023-06-08T00:00:00	2024-11-08T00:00:00	1	Precipitación	0
122940	7	Sololá	701	Sololá	4	Finca Santa Victoria	8	Agosto	2023-06-08T00:00:00	2024-11-08T00:00:00	8	Radiación solar	0
122941	7	Sololá	701	Sololá	4	Finca Santa Victoria	8	Agosto	2023-06-08T00:00:00	2024-11-08T01:00:00	2	Temperatura media	13.9
122942	7	Sololá	701	Sololá	4	Finca Santa Victoria	8	Agosto	2023-06-08T00:00:00	2024-11-08T01:00:00	4	Temperatura máxima	13.9
122943	7	Sololá	701	Sololá	4	Finca Santa Victoria	8	Agosto	2023-06-08T00:00:00	2024-11-08T01:00:00	3	Temperatura mínima	13.3
122944	7	Sololá	701	Sololá	4	Finca Santa Victoria	8	Agosto	2023-06-08T00:00:00	2024-11-08T01:00:00	5	Humedad	82
122945	7	Sololá	701	Sololá	4	Finca Santa Victoria	8	Agosto	2023-06-08T00:00:00	2024-11-08T01:00:00	6	Velocidad del viento	1.6
122946	7	Sololá	701	Sololá	4	Finca Santa Victoria	8	Agosto	2023-06-08T00:00:00	2024-11-08T01:00:00	7	Dirección del viento	1.61
122947	7	Sololá	701	Sololá	4	Finca Santa Victoria	8	Agosto	2023-06-08T00:00:00	2024-11-08T01:00:00	1	Precipitación	0
122948	7	Sololá	701	Sololá	4	Finca Santa Victoria	8	Agosto	2023-06-08T00:00:00	2024-11-08T01:00:00	8	Radiación solar	0
122949	7	Sololá	701	Sololá	4	Finca Santa Victoria	8	Agosto	2023-06-08T00:00:00	2024-11-08T02:00:00	2	Temperatura media	12.7
122950	7	Sololá	701	Sololá	4	Finca Santa Victoria	8	Agosto	2023-06-08T00:00:00	2024-11-08T02:00:00	4	Temperatura máxima	13.9
122951	7	Sololá	701	Sololá	4	Finca Santa Victoria	8	Agosto	2023-06-08T00:00:00	2024-11-08T02:00:00	3	Temperatura mínima	12.6
122952	7	Sololá	701	Sololá	4	Finca Santa Victoria	8	Agosto	2023-06-08T00:00:00	2024-11-08T02:00:00	5	Humedad	87
122953	7	Sololá	701	Sololá	4	Finca Santa Victoria	8	Agosto	2023-06-08T00:00:00	2024-11-08T02:00:00	6	Velocidad del viento	0
122954	7	Sololá	701	Sololá	4	Finca Santa Victoria	8	Agosto	2023-06-08T00:00:00	2024-11-08T02:00:00	7	Dirección del viento	0
122955	7	Sololá	701	Sololá	4	Finca Santa Victoria	8	Agosto	2023-06-08T00:00:00	2024-11-08T02:00:00	1	Precipitación	0
122956	7	Sololá	701	Sololá	4	Finca Santa Victoria	8	Agosto	2023-06-08T00:00:00	2024-11-08T02:00:00	8	Radiación solar	0
122957	7	Sololá	701	Sololá	4	Finca Santa Victoria	8	Agosto	2023-06-08T00:00:00	2024-11-08T03:00:00	2	Temperatura media	13.4
122958	7	Sololá	701	Sololá	4	Finca Santa Victoria	8	Agosto	2023-06-08T00:00:00	2024-11-08T03:00:00	4	Temperatura máxima	13.4
122959	7	Sololá	701	Sololá	4	Finca Santa Victoria	8	Agosto	2023-06-08T00:00:00	2024-11-08T03:00:00	3	Temperatura mínima	12.6
122960	7	Sololá	701	Sololá	4	Finca Santa Victoria	8	Agosto	2023-06-08T00:00:00	2024-11-08T03:00:00	5	Humedad	84
122961	7	Sololá	701	Sololá	4	Finca Santa Victoria	8	Agosto	2023-06-08T00:00:00	2024-11-08T03:00:00	6	Velocidad del viento	1.6
122962	7	Sololá	701	Sololá	4	Finca Santa Victoria	8	Agosto	2023-06-08T00:00:00	2024-11-08T03:00:00	7	Dirección del viento	1.61
122963	7	Sololá	701	Sololá	4	Finca Santa Victoria	8	Agosto	2023-06-08T00:00:00	2024-11-08T03:00:00	1	Precipitación	0
122964	7	Sololá	701	Sololá	4	Finca Santa Victoria	8	Agosto	2023-06-08T00:00:00	2024-11-08T03:00:00	8	Radiación solar	0
122965	7	Sololá	701	Sololá	4	Finca Santa Victoria	8	Agosto	2023-06-08T00:00:00	2024-11-08T04:00:00	2	Temperatura media	13.3
122966	7	Sololá	701	Sololá	4	Finca Santa Victoria	8	Agosto	2023-06-08T00:00:00	2024-11-08T04:00:00	4	Temperatura máxima	13.6
122967	7	Sololá	701	Sololá	4	Finca Santa Victoria	8	Agosto	2023-06-08T00:00:00	2024-11-08T04:00:00	3	Temperatura mínima	13.2
122968	7	Sololá	701	Sololá	4	Finca Santa Victoria	8	Agosto	2023-06-08T00:00:00	2024-11-08T04:00:00	5	Humedad	85
122969	7	Sololá	701	Sololá	4	Finca Santa Victoria	8	Agosto	2023-06-08T00:00:00	2024-11-08T04:00:00	6	Velocidad del viento	1.6
122970	7	Sololá	701	Sololá	4	Finca Santa Victoria	8	Agosto	2023-06-08T00:00:00	2024-11-08T04:00:00	7	Dirección del viento	1.61
122971	7	Sololá	701	Sololá	4	Finca Santa Victoria	8	Agosto	2023-06-08T00:00:00	2024-11-08T04:00:00	1	Precipitación	0
122972	7	Sololá	701	Sololá	4	Finca Santa Victoria	8	Agosto	2023-06-08T00:00:00	2024-11-08T04:00:00	8	Radiación solar	0
122973	7	Sololá	701	Sololá	4	Finca Santa Victoria	8	Agosto	2023-06-08T00:00:00	2024-11-08T05:00:00	2	Temperatura media	12.9
122974	7	Sololá	701	Sololá	4	Finca Santa Victoria	8	Agosto	2023-06-08T00:00:00	2024-11-08T05:00:00	4	Temperatura máxima	13.3
122975	7	Sololá	701	Sololá	4	Finca Santa Victoria	8	Agosto	2023-06-08T00:00:00	2024-11-08T05:00:00	3	Temperatura mínima	12.9
122976	7	Sololá	701	Sololá	4	Finca Santa Victoria	8	Agosto	2023-06-08T00:00:00	2024-11-08T05:00:00	5	Humedad	89
122977	7	Sololá	701	Sololá	4	Finca Santa Victoria	8	Agosto	2023-06-08T00:00:00	2024-11-08T05:00:00	6	Velocidad del viento	1.6
122978	7	Sololá	701	Sololá	4	Finca Santa Victoria	8	Agosto	2023-06-08T00:00:00	2024-11-08T05:00:00	7	Dirección del viento	1.61
122979	7	Sololá	701	Sololá	4	Finca Santa Victoria	8	Agosto	2023-06-08T00:00:00	2024-11-08T05:00:00	1	Precipitación	0
122980	7	Sololá	701	Sololá	4	Finca Santa Victoria	8	Agosto	2023-06-08T00:00:00	2024-11-08T05:00:00	8	Radiación solar	0
122981	7	Sololá	701	Sololá	4	Finca Santa Victoria	8	Agosto	2023-06-08T00:00:00	2024-11-08T06:00:00	2	Temperatura media	13.4
122982	7	Sololá	701	Sololá	4	Finca Santa Victoria	8	Agosto	2023-06-08T00:00:00	2024-11-08T06:00:00	4	Temperatura máxima	13.4
122983	7	Sololá	701	Sololá	4	Finca Santa Victoria	8	Agosto	2023-06-08T00:00:00	2024-11-08T06:00:00	3	Temperatura mínima	12.8
122984	7	Sololá	701	Sololá	4	Finca Santa Victoria	8	Agosto	2023-06-08T00:00:00	2024-11-08T06:00:00	5	Humedad	84
122985	7	Sololá	701	Sololá	4	Finca Santa Victoria	8	Agosto	2023-06-08T00:00:00	2024-11-08T06:00:00	6	Velocidad del viento	1.6
122986	7	Sololá	701	Sololá	4	Finca Santa Victoria	8	Agosto	2023-06-08T00:00:00	2024-11-08T06:00:00	7	Dirección del viento	1.61
122987	7	Sololá	701	Sololá	4	Finca Santa Victoria	8	Agosto	2023-06-08T00:00:00	2024-11-08T06:00:00	1	Precipitación	0
122988	7	Sololá	701	Sololá	4	Finca Santa Victoria	8	Agosto	2023-06-08T00:00:00	2024-11-08T06:00:00	8	Radiación solar	0
122989	7	Sololá	701	Sololá	4	Finca Santa Victoria	8	Agosto	2023-06-08T00:00:00	2024-11-08T07:00:00	2	Temperatura media	14.2
122990	7	Sololá	701	Sololá	4	Finca Santa Victoria	8	Agosto	2023-06-08T00:00:00	2024-11-08T07:00:00	4	Temperatura máxima	14.2
122991	7	Sololá	701	Sololá	4	Finca Santa Victoria	8	Agosto	2023-06-08T00:00:00	2024-11-08T07:00:00	3	Temperatura mínima	13.2
122992	7	Sololá	701	Sololá	4	Finca Santa Victoria	8	Agosto	2023-06-08T00:00:00	2024-11-08T07:00:00	5	Humedad	83
122993	7	Sololá	701	Sololá	4	Finca Santa Victoria	8	Agosto	2023-06-08T00:00:00	2024-11-08T07:00:00	6	Velocidad del viento	1.6
122994	7	Sololá	701	Sololá	4	Finca Santa Victoria	8	Agosto	2023-06-08T00:00:00	2024-11-08T07:00:00	7	Dirección del viento	1.61
122995	7	Sololá	701	Sololá	4	Finca Santa Victoria	8	Agosto	2023-06-08T00:00:00	2024-11-08T07:00:00	1	Precipitación	0
122996	7	Sololá	701	Sololá	4	Finca Santa Victoria	8	Agosto	2023-06-08T00:00:00	2024-11-08T07:00:00	8	Radiación solar	13
122997	7	Sololá	701	Sololá	4	Finca Santa Victoria	8	Agosto	2023-06-08T00:00:00	2024-11-08T08:00:00	2	Temperatura media	17.8
122998	7	Sololá	701	Sololá	4	Finca Santa Victoria	8	Agosto	2023-06-08T00:00:00	2024-11-08T08:00:00	4	Temperatura máxima	17.8
122999	7	Sololá	701	Sololá	4	Finca Santa Victoria	8	Agosto	2023-06-08T00:00:00	2024-11-08T08:00:00	3	Temperatura mínima	14.2
123000	7	Sololá	701	Sololá	4	Finca Santa Victoria	8	Agosto	2023-06-08T00:00:00	2024-11-08T08:00:00	5	Humedad	71
123001	7	Sololá	701	Sololá	4	Finca Santa Victoria	8	Agosto	2023-06-08T00:00:00	2024-11-08T08:00:00	6	Velocidad del viento	3.2
123002	7	Sololá	701	Sololá	4	Finca Santa Victoria	8	Agosto	2023-06-08T00:00:00	2024-11-08T08:00:00	7	Dirección del viento	3.22
123003	7	Sololá	701	Sololá	4	Finca Santa Victoria	8	Agosto	2023-06-08T00:00:00	2024-11-08T08:00:00	1	Precipitación	0
123004	7	Sololá	701	Sololá	4	Finca Santa Victoria	8	Agosto	2023-06-08T00:00:00	2024-11-08T08:00:00	8	Radiación solar	221
123005	7	Sololá	701	Sololá	4	Finca Santa Victoria	8	Agosto	2023-06-08T00:00:00	2024-11-08T09:00:00	2	Temperatura media	18.8
123006	7	Sololá	701	Sololá	4	Finca Santa Victoria	8	Agosto	2023-06-08T00:00:00	2024-11-08T09:00:00	4	Temperatura máxima	19
123007	7	Sololá	701	Sololá	4	Finca Santa Victoria	8	Agosto	2023-06-08T00:00:00	2024-11-08T09:00:00	3	Temperatura mínima	17.8
123008	7	Sololá	701	Sololá	4	Finca Santa Victoria	8	Agosto	2023-06-08T00:00:00	2024-11-08T09:00:00	5	Humedad	70
123009	7	Sololá	701	Sololá	4	Finca Santa Victoria	8	Agosto	2023-06-08T00:00:00	2024-11-08T09:00:00	6	Velocidad del viento	3.2
123010	7	Sololá	701	Sololá	4	Finca Santa Victoria	8	Agosto	2023-06-08T00:00:00	2024-11-08T09:00:00	7	Dirección del viento	3.22
123011	7	Sololá	701	Sololá	4	Finca Santa Victoria	8	Agosto	2023-06-08T00:00:00	2024-11-08T09:00:00	1	Precipitación	0
123012	7	Sololá	701	Sololá	4	Finca Santa Victoria	8	Agosto	2023-06-08T00:00:00	2024-11-08T09:00:00	8	Radiación solar	401
123013	7	Sololá	701	Sololá	4	Finca Santa Victoria	8	Agosto	2023-06-08T00:00:00	2024-11-08T10:00:00	2	Temperatura media	20.2
123014	7	Sololá	701	Sololá	4	Finca Santa Victoria	8	Agosto	2023-06-08T00:00:00	2024-11-08T10:00:00	4	Temperatura máxima	20.3
123015	7	Sololá	701	Sololá	4	Finca Santa Victoria	8	Agosto	2023-06-08T00:00:00	2024-11-08T10:00:00	3	Temperatura mínima	18.8
123016	7	Sololá	701	Sololá	4	Finca Santa Victoria	8	Agosto	2023-06-08T00:00:00	2024-11-08T10:00:00	5	Humedad	63
123017	7	Sololá	701	Sololá	4	Finca Santa Victoria	8	Agosto	2023-06-08T00:00:00	2024-11-08T10:00:00	6	Velocidad del viento	3.2
123018	7	Sololá	701	Sololá	4	Finca Santa Victoria	8	Agosto	2023-06-08T00:00:00	2024-11-08T10:00:00	7	Dirección del viento	3.22
123019	7	Sololá	701	Sololá	4	Finca Santa Victoria	8	Agosto	2023-06-08T00:00:00	2024-11-08T10:00:00	1	Precipitación	0
123020	7	Sololá	701	Sololá	4	Finca Santa Victoria	8	Agosto	2023-06-08T00:00:00	2024-11-08T10:00:00	8	Radiación solar	211
123021	7	Sololá	701	Sololá	4	Finca Santa Victoria	8	Agosto	2023-06-08T00:00:00	2024-11-08T11:00:00	2	Temperatura media	21.7
123022	7	Sololá	701	Sololá	4	Finca Santa Victoria	8	Agosto	2023-06-08T00:00:00	2024-11-08T11:00:00	4	Temperatura máxima	21.8
123023	7	Sololá	701	Sololá	4	Finca Santa Victoria	8	Agosto	2023-06-08T00:00:00	2024-11-08T11:00:00	3	Temperatura mínima	20.3
123024	7	Sololá	701	Sololá	4	Finca Santa Victoria	8	Agosto	2023-06-08T00:00:00	2024-11-08T11:00:00	5	Humedad	56
123025	7	Sololá	701	Sololá	4	Finca Santa Victoria	8	Agosto	2023-06-08T00:00:00	2024-11-08T11:00:00	6	Velocidad del viento	3.2
123026	7	Sololá	701	Sololá	4	Finca Santa Victoria	8	Agosto	2023-06-08T00:00:00	2024-11-08T11:00:00	7	Dirección del viento	3.22
123027	7	Sololá	701	Sololá	4	Finca Santa Victoria	8	Agosto	2023-06-08T00:00:00	2024-11-08T11:00:00	1	Precipitación	0
123028	7	Sololá	701	Sololá	4	Finca Santa Victoria	8	Agosto	2023-06-08T00:00:00	2024-11-08T11:00:00	8	Radiación solar	153
123029	7	Sololá	701	Sololá	4	Finca Santa Victoria	8	Agosto	2023-06-08T00:00:00	2024-11-08T12:00:00	2	Temperatura media	22.6
123030	7	Sololá	701	Sololá	4	Finca Santa Victoria	8	Agosto	2023-06-08T00:00:00	2024-11-08T12:00:00	4	Temperatura máxima	22.7
123031	7	Sololá	701	Sololá	4	Finca Santa Victoria	8	Agosto	2023-06-08T00:00:00	2024-11-08T12:00:00	3	Temperatura mínima	21.7
123032	7	Sololá	701	Sololá	4	Finca Santa Victoria	8	Agosto	2023-06-08T00:00:00	2024-11-08T12:00:00	5	Humedad	54
123033	7	Sololá	701	Sololá	4	Finca Santa Victoria	8	Agosto	2023-06-08T00:00:00	2024-11-08T12:00:00	6	Velocidad del viento	4.8
123034	7	Sololá	701	Sololá	4	Finca Santa Victoria	8	Agosto	2023-06-08T00:00:00	2024-11-08T12:00:00	7	Dirección del viento	4.83
123035	7	Sololá	701	Sololá	4	Finca Santa Victoria	8	Agosto	2023-06-08T00:00:00	2024-11-08T12:00:00	1	Precipitación	0
123036	7	Sololá	701	Sololá	4	Finca Santa Victoria	8	Agosto	2023-06-08T00:00:00	2024-11-08T12:00:00	8	Radiación solar	1051
123037	7	Sololá	701	Sololá	4	Finca Santa Victoria	8	Agosto	2023-06-08T00:00:00	2024-11-08T13:00:00	2	Temperatura media	22.8
123038	7	Sololá	701	Sololá	4	Finca Santa Victoria	8	Agosto	2023-06-08T00:00:00	2024-11-08T13:00:00	4	Temperatura máxima	23.2
123039	7	Sololá	701	Sololá	4	Finca Santa Victoria	8	Agosto	2023-06-08T00:00:00	2024-11-08T13:00:00	3	Temperatura mínima	22.6
123040	7	Sololá	701	Sololá	4	Finca Santa Victoria	8	Agosto	2023-06-08T00:00:00	2024-11-08T13:00:00	5	Humedad	53
123041	7	Sololá	701	Sololá	4	Finca Santa Victoria	8	Agosto	2023-06-08T00:00:00	2024-11-08T13:00:00	6	Velocidad del viento	4.8
123042	7	Sololá	701	Sololá	4	Finca Santa Victoria	8	Agosto	2023-06-08T00:00:00	2024-11-08T13:00:00	7	Dirección del viento	4.83
123043	7	Sololá	701	Sololá	4	Finca Santa Victoria	8	Agosto	2023-06-08T00:00:00	2024-11-08T13:00:00	1	Precipitación	0
123044	7	Sololá	701	Sololá	4	Finca Santa Victoria	8	Agosto	2023-06-08T00:00:00	2024-11-08T13:00:00	8	Radiación solar	1038
123045	7	Sololá	701	Sololá	4	Finca Santa Victoria	8	Agosto	2023-06-08T00:00:00	2024-11-08T14:00:00	2	Temperatura media	23.4
123046	7	Sololá	701	Sololá	4	Finca Santa Victoria	8	Agosto	2023-06-08T00:00:00	2024-11-08T14:00:00	4	Temperatura máxima	23.9
123047	7	Sololá	701	Sololá	4	Finca Santa Victoria	8	Agosto	2023-06-08T00:00:00	2024-11-08T14:00:00	3	Temperatura mínima	22.8
123048	7	Sololá	701	Sololá	4	Finca Santa Victoria	8	Agosto	2023-06-08T00:00:00	2024-11-08T14:00:00	5	Humedad	55
123049	7	Sololá	701	Sololá	4	Finca Santa Victoria	8	Agosto	2023-06-08T00:00:00	2024-11-08T14:00:00	6	Velocidad del viento	3.2
123050	7	Sololá	701	Sololá	4	Finca Santa Victoria	8	Agosto	2023-06-08T00:00:00	2024-11-08T14:00:00	7	Dirección del viento	3.22
123051	7	Sololá	701	Sololá	4	Finca Santa Victoria	8	Agosto	2023-06-08T00:00:00	2024-11-08T14:00:00	1	Precipitación	0
123052	7	Sololá	701	Sololá	4	Finca Santa Victoria	8	Agosto	2023-06-08T00:00:00	2024-11-08T14:00:00	8	Radiación solar	152
123053	7	Sololá	701	Sololá	4	Finca Santa Victoria	8	Agosto	2023-06-08T00:00:00	2024-11-08T15:00:00	2	Temperatura media	21.2
123054	7	Sololá	701	Sololá	4	Finca Santa Victoria	8	Agosto	2023-06-08T00:00:00	2024-11-08T15:00:00	4	Temperatura máxima	23.4
123055	7	Sololá	701	Sololá	4	Finca Santa Victoria	8	Agosto	2023-06-08T00:00:00	2024-11-08T15:00:00	3	Temperatura mínima	19.7
123056	7	Sololá	701	Sololá	4	Finca Santa Victoria	8	Agosto	2023-06-08T00:00:00	2024-11-08T15:00:00	5	Humedad	66
123057	7	Sololá	701	Sololá	4	Finca Santa Victoria	8	Agosto	2023-06-08T00:00:00	2024-11-08T15:00:00	6	Velocidad del viento	1.6
123058	7	Sololá	701	Sololá	4	Finca Santa Victoria	8	Agosto	2023-06-08T00:00:00	2024-11-08T15:00:00	7	Dirección del viento	1.61
123059	7	Sololá	701	Sololá	4	Finca Santa Victoria	8	Agosto	2023-06-08T00:00:00	2024-11-08T15:00:00	1	Precipitación	0
123060	7	Sololá	701	Sololá	4	Finca Santa Victoria	8	Agosto	2023-06-08T00:00:00	2024-11-08T15:00:00	8	Radiación solar	133
123061	7	Sololá	701	Sololá	4	Finca Santa Victoria	8	Agosto	2023-06-08T00:00:00	2024-11-08T16:00:00	2	Temperatura media	22.3
123062	7	Sololá	701	Sololá	4	Finca Santa Victoria	8	Agosto	2023-06-08T00:00:00	2024-11-08T16:00:00	4	Temperatura máxima	22.3
123063	7	Sololá	701	Sololá	4	Finca Santa Victoria	8	Agosto	2023-06-08T00:00:00	2024-11-08T16:00:00	3	Temperatura mínima	21.2
123064	7	Sololá	701	Sololá	4	Finca Santa Victoria	8	Agosto	2023-06-08T00:00:00	2024-11-08T16:00:00	5	Humedad	58
123065	7	Sololá	701	Sololá	4	Finca Santa Victoria	8	Agosto	2023-06-08T00:00:00	2024-11-08T16:00:00	6	Velocidad del viento	3.2
123066	7	Sololá	701	Sololá	4	Finca Santa Victoria	8	Agosto	2023-06-08T00:00:00	2024-11-08T16:00:00	7	Dirección del viento	3.22
123067	7	Sololá	701	Sololá	4	Finca Santa Victoria	8	Agosto	2023-06-08T00:00:00	2024-11-08T16:00:00	1	Precipitación	0
123068	7	Sololá	701	Sololá	4	Finca Santa Victoria	8	Agosto	2023-06-08T00:00:00	2024-11-08T16:00:00	8	Radiación solar	163
123069	7	Sololá	701	Sololá	4	Finca Santa Victoria	8	Agosto	2023-06-08T00:00:00	2024-11-08T17:00:00	2	Temperatura media	18.9
123070	7	Sololá	701	Sololá	4	Finca Santa Victoria	8	Agosto	2023-06-08T00:00:00	2024-11-08T17:00:00	4	Temperatura máxima	22.3
123071	7	Sololá	701	Sololá	4	Finca Santa Victoria	8	Agosto	2023-06-08T00:00:00	2024-11-08T17:00:00	3	Temperatura mínima	18.9
123072	7	Sololá	701	Sololá	4	Finca Santa Victoria	8	Agosto	2023-06-08T00:00:00	2024-11-08T17:00:00	5	Humedad	69
123073	7	Sololá	701	Sololá	4	Finca Santa Victoria	8	Agosto	2023-06-08T00:00:00	2024-11-08T17:00:00	6	Velocidad del viento	3.2
123074	7	Sololá	701	Sololá	4	Finca Santa Victoria	8	Agosto	2023-06-08T00:00:00	2024-11-08T17:00:00	7	Dirección del viento	3.22
123075	7	Sololá	701	Sololá	4	Finca Santa Victoria	8	Agosto	2023-06-08T00:00:00	2024-11-08T17:00:00	1	Precipitación	0
123076	7	Sololá	701	Sololá	4	Finca Santa Victoria	8	Agosto	2023-06-08T00:00:00	2024-11-08T17:00:00	8	Radiación solar	117
123077	7	Sololá	701	Sololá	4	Finca Santa Victoria	8	Agosto	2023-06-08T00:00:00	2024-11-08T18:00:00	2	Temperatura media	17.8
123078	7	Sololá	701	Sololá	4	Finca Santa Victoria	8	Agosto	2023-06-08T00:00:00	2024-11-08T18:00:00	4	Temperatura máxima	19
123079	7	Sololá	701	Sololá	4	Finca Santa Victoria	8	Agosto	2023-06-08T00:00:00	2024-11-08T18:00:00	3	Temperatura mínima	17.8
123080	7	Sololá	701	Sololá	4	Finca Santa Victoria	8	Agosto	2023-06-08T00:00:00	2024-11-08T18:00:00	5	Humedad	72
123081	7	Sololá	701	Sololá	4	Finca Santa Victoria	8	Agosto	2023-06-08T00:00:00	2024-11-08T18:00:00	6	Velocidad del viento	3.2
123082	7	Sololá	701	Sololá	4	Finca Santa Victoria	8	Agosto	2023-06-08T00:00:00	2024-11-08T18:00:00	7	Dirección del viento	3.22
123083	7	Sololá	701	Sololá	4	Finca Santa Victoria	8	Agosto	2023-06-08T00:00:00	2024-11-08T18:00:00	1	Precipitación	0
123084	7	Sololá	701	Sololá	4	Finca Santa Victoria	8	Agosto	2023-06-08T00:00:00	2024-11-08T18:00:00	8	Radiación solar	33
123085	7	Sololá	701	Sololá	4	Finca Santa Victoria	8	Agosto	2023-06-08T00:00:00	2024-11-08T19:00:00	2	Temperatura media	16.9
123086	7	Sololá	701	Sololá	4	Finca Santa Victoria	8	Agosto	2023-06-08T00:00:00	2024-11-08T19:00:00	4	Temperatura máxima	17.8
123087	7	Sololá	701	Sololá	4	Finca Santa Victoria	8	Agosto	2023-06-08T00:00:00	2024-11-08T19:00:00	3	Temperatura mínima	16.9
123088	7	Sololá	701	Sololá	4	Finca Santa Victoria	8	Agosto	2023-06-08T00:00:00	2024-11-08T19:00:00	5	Humedad	78
123089	7	Sololá	701	Sololá	4	Finca Santa Victoria	8	Agosto	2023-06-08T00:00:00	2024-11-08T19:00:00	6	Velocidad del viento	1.6
123090	7	Sololá	701	Sololá	4	Finca Santa Victoria	8	Agosto	2023-06-08T00:00:00	2024-11-08T19:00:00	7	Dirección del viento	1.61
123091	7	Sololá	701	Sololá	4	Finca Santa Victoria	8	Agosto	2023-06-08T00:00:00	2024-11-08T19:00:00	1	Precipitación	0
123092	7	Sololá	701	Sololá	4	Finca Santa Victoria	8	Agosto	2023-06-08T00:00:00	2024-11-08T19:00:00	8	Radiación solar	0
123093	7	Sololá	701	Sololá	4	Finca Santa Victoria	8	Agosto	2023-06-08T00:00:00	2024-11-08T20:00:00	2	Temperatura media	16.6
123094	7	Sololá	701	Sololá	4	Finca Santa Victoria	8	Agosto	2023-06-08T00:00:00	2024-11-08T20:00:00	4	Temperatura máxima	16.9
123095	7	Sololá	701	Sololá	4	Finca Santa Victoria	8	Agosto	2023-06-08T00:00:00	2024-11-08T20:00:00	3	Temperatura mínima	16.5
123096	7	Sololá	701	Sololá	4	Finca Santa Victoria	8	Agosto	2023-06-08T00:00:00	2024-11-08T20:00:00	5	Humedad	83
123097	7	Sololá	701	Sololá	4	Finca Santa Victoria	8	Agosto	2023-06-08T00:00:00	2024-11-08T20:00:00	6	Velocidad del viento	1.6
123098	7	Sololá	701	Sololá	4	Finca Santa Victoria	8	Agosto	2023-06-08T00:00:00	2024-11-08T20:00:00	7	Dirección del viento	1.61
123099	7	Sololá	701	Sololá	4	Finca Santa Victoria	8	Agosto	2023-06-08T00:00:00	2024-11-08T20:00:00	1	Precipitación	0
123100	7	Sololá	701	Sololá	4	Finca Santa Victoria	8	Agosto	2023-06-08T00:00:00	2024-11-08T20:00:00	8	Radiación solar	0
123101	7	Sololá	701	Sololá	4	Finca Santa Victoria	8	Agosto	2023-06-08T00:00:00	2024-11-08T21:00:00	2	Temperatura media	16.1
123102	7	Sololá	701	Sololá	4	Finca Santa Victoria	8	Agosto	2023-06-08T00:00:00	2024-11-08T21:00:00	4	Temperatura máxima	16.7
123103	7	Sololá	701	Sololá	4	Finca Santa Victoria	8	Agosto	2023-06-08T00:00:00	2024-11-08T21:00:00	3	Temperatura mínima	16.1
123104	7	Sololá	701	Sololá	4	Finca Santa Victoria	8	Agosto	2023-06-08T00:00:00	2024-11-08T21:00:00	5	Humedad	82
123105	7	Sololá	701	Sololá	4	Finca Santa Victoria	8	Agosto	2023-06-08T00:00:00	2024-11-08T21:00:00	6	Velocidad del viento	1.6
123106	7	Sololá	701	Sololá	4	Finca Santa Victoria	8	Agosto	2023-06-08T00:00:00	2024-11-08T21:00:00	7	Dirección del viento	1.61
123107	7	Sololá	701	Sololá	4	Finca Santa Victoria	8	Agosto	2023-06-08T00:00:00	2024-11-08T21:00:00	1	Precipitación	0
123108	7	Sololá	701	Sololá	4	Finca Santa Victoria	8	Agosto	2023-06-08T00:00:00	2024-11-08T21:00:00	8	Radiación solar	0
123109	7	Sololá	701	Sololá	4	Finca Santa Victoria	8	Agosto	2023-06-08T00:00:00	2024-11-08T22:00:00	2	Temperatura media	15.8
123110	7	Sololá	701	Sololá	4	Finca Santa Victoria	8	Agosto	2023-06-08T00:00:00	2024-11-08T22:00:00	4	Temperatura máxima	16.1
123111	7	Sololá	701	Sololá	4	Finca Santa Victoria	8	Agosto	2023-06-08T00:00:00	2024-11-08T22:00:00	3	Temperatura mínima	15.8
123112	7	Sololá	701	Sololá	4	Finca Santa Victoria	8	Agosto	2023-06-08T00:00:00	2024-11-08T22:00:00	5	Humedad	83
123113	7	Sololá	701	Sololá	4	Finca Santa Victoria	8	Agosto	2023-06-08T00:00:00	2024-11-08T22:00:00	6	Velocidad del viento	1.6
123114	7	Sololá	701	Sololá	4	Finca Santa Victoria	8	Agosto	2023-06-08T00:00:00	2024-11-08T22:00:00	7	Dirección del viento	1.61
123115	7	Sololá	701	Sololá	4	Finca Santa Victoria	8	Agosto	2023-06-08T00:00:00	2024-11-08T22:00:00	1	Precipitación	0
123116	7	Sololá	701	Sololá	4	Finca Santa Victoria	8	Agosto	2023-06-08T00:00:00	2024-11-08T22:00:00	8	Radiación solar	0
123117	7	Sololá	701	Sololá	4	Finca Santa Victoria	8	Agosto	2023-06-08T00:00:00	2024-11-08T23:00:00	2	Temperatura media	15.3
123118	7	Sololá	701	Sololá	4	Finca Santa Victoria	8	Agosto	2023-06-08T00:00:00	2024-11-08T23:00:00	4	Temperatura máxima	15.9
123119	7	Sololá	701	Sololá	4	Finca Santa Victoria	8	Agosto	2023-06-08T00:00:00	2024-11-08T23:00:00	3	Temperatura mínima	15.3
123120	7	Sololá	701	Sololá	4	Finca Santa Victoria	8	Agosto	2023-06-08T00:00:00	2024-11-08T23:00:00	5	Humedad	82
123121	7	Sololá	701	Sololá	4	Finca Santa Victoria	8	Agosto	2023-06-08T00:00:00	2024-11-08T23:00:00	6	Velocidad del viento	3.2
123122	7	Sololá	701	Sololá	4	Finca Santa Victoria	8	Agosto	2023-06-08T00:00:00	2024-11-08T23:00:00	7	Dirección del viento	3.22
123123	7	Sololá	701	Sololá	4	Finca Santa Victoria	8	Agosto	2023-06-08T00:00:00	2024-11-08T23:00:00	1	Precipitación	0
123124	7	Sololá	701	Sololá	4	Finca Santa Victoria	8	Agosto	2023-06-08T00:00:00	2024-11-08T23:00:00	8	Radiación solar	0
123125	7	Sololá	701	Sololá	4	Finca Santa Victoria	8	Agosto	2023-07-08T00:00:00	2024-11-08T00:00:00	2	Temperatura media	14.3
123126	7	Sololá	701	Sololá	4	Finca Santa Victoria	8	Agosto	2023-07-08T00:00:00	2024-11-08T00:00:00	4	Temperatura máxima	15.3
123127	7	Sololá	701	Sololá	4	Finca Santa Victoria	8	Agosto	2023-07-08T00:00:00	2024-11-08T00:00:00	3	Temperatura mínima	14.3
123128	7	Sololá	701	Sololá	4	Finca Santa Victoria	8	Agosto	2023-07-08T00:00:00	2024-11-08T00:00:00	5	Humedad	86
123129	7	Sololá	701	Sololá	4	Finca Santa Victoria	8	Agosto	2023-07-08T00:00:00	2024-11-08T00:00:00	6	Velocidad del viento	1.6
123130	7	Sololá	701	Sololá	4	Finca Santa Victoria	8	Agosto	2023-07-08T00:00:00	2024-11-08T00:00:00	7	Dirección del viento	1.61
123131	7	Sololá	701	Sololá	4	Finca Santa Victoria	8	Agosto	2023-07-08T00:00:00	2024-11-08T00:00:00	1	Precipitación	0
123132	7	Sololá	701	Sololá	4	Finca Santa Victoria	8	Agosto	2023-07-08T00:00:00	2024-11-08T00:00:00	8	Radiación solar	0
123133	7	Sololá	701	Sololá	4	Finca Santa Victoria	8	Agosto	2023-07-08T00:00:00	2024-11-08T01:00:00	2	Temperatura media	13.6
123134	7	Sololá	701	Sololá	4	Finca Santa Victoria	8	Agosto	2023-07-08T00:00:00	2024-11-08T01:00:00	4	Temperatura máxima	14.3
123135	7	Sololá	701	Sololá	4	Finca Santa Victoria	8	Agosto	2023-07-08T00:00:00	2024-11-08T01:00:00	3	Temperatura mínima	13.6
123136	7	Sololá	701	Sololá	4	Finca Santa Victoria	8	Agosto	2023-07-08T00:00:00	2024-11-08T01:00:00	5	Humedad	88
123137	7	Sololá	701	Sololá	4	Finca Santa Victoria	8	Agosto	2023-07-08T00:00:00	2024-11-08T01:00:00	6	Velocidad del viento	0
123138	7	Sololá	701	Sololá	4	Finca Santa Victoria	8	Agosto	2023-07-08T00:00:00	2024-11-08T01:00:00	7	Dirección del viento	0
123139	7	Sololá	701	Sololá	4	Finca Santa Victoria	8	Agosto	2023-07-08T00:00:00	2024-11-08T01:00:00	1	Precipitación	0
123140	7	Sololá	701	Sololá	4	Finca Santa Victoria	8	Agosto	2023-07-08T00:00:00	2024-11-08T01:00:00	8	Radiación solar	0
123141	7	Sololá	701	Sololá	4	Finca Santa Victoria	8	Agosto	2023-07-08T00:00:00	2024-11-08T02:00:00	2	Temperatura media	13.6
123142	7	Sololá	701	Sololá	4	Finca Santa Victoria	8	Agosto	2023-07-08T00:00:00	2024-11-08T02:00:00	4	Temperatura máxima	13.6
123143	7	Sololá	701	Sololá	4	Finca Santa Victoria	8	Agosto	2023-07-08T00:00:00	2024-11-08T02:00:00	3	Temperatura mínima	13.3
123144	7	Sololá	701	Sololá	4	Finca Santa Victoria	8	Agosto	2023-07-08T00:00:00	2024-11-08T02:00:00	5	Humedad	87
123145	7	Sololá	701	Sololá	4	Finca Santa Victoria	8	Agosto	2023-07-08T00:00:00	2024-11-08T02:00:00	6	Velocidad del viento	0
123146	7	Sololá	701	Sololá	4	Finca Santa Victoria	8	Agosto	2023-07-08T00:00:00	2024-11-08T02:00:00	7	Dirección del viento	0
123147	7	Sololá	701	Sololá	4	Finca Santa Victoria	8	Agosto	2023-07-08T00:00:00	2024-11-08T02:00:00	1	Precipitación	0
123148	7	Sololá	701	Sololá	4	Finca Santa Victoria	8	Agosto	2023-07-08T00:00:00	2024-11-08T02:00:00	8	Radiación solar	0
123149	7	Sololá	701	Sololá	4	Finca Santa Victoria	8	Agosto	2023-07-08T00:00:00	2024-11-08T03:00:00	2	Temperatura media	13.8
123150	7	Sololá	701	Sololá	4	Finca Santa Victoria	8	Agosto	2023-07-08T00:00:00	2024-11-08T03:00:00	4	Temperatura máxima	13.9
123151	7	Sololá	701	Sololá	4	Finca Santa Victoria	8	Agosto	2023-07-08T00:00:00	2024-11-08T03:00:00	3	Temperatura mínima	13.5
123152	7	Sololá	701	Sololá	4	Finca Santa Victoria	8	Agosto	2023-07-08T00:00:00	2024-11-08T03:00:00	5	Humedad	87
123153	7	Sololá	701	Sololá	4	Finca Santa Victoria	8	Agosto	2023-07-08T00:00:00	2024-11-08T03:00:00	6	Velocidad del viento	3.2
123154	7	Sololá	701	Sololá	4	Finca Santa Victoria	8	Agosto	2023-07-08T00:00:00	2024-11-08T03:00:00	7	Dirección del viento	3.22
123155	7	Sololá	701	Sololá	4	Finca Santa Victoria	8	Agosto	2023-07-08T00:00:00	2024-11-08T03:00:00	1	Precipitación	0
123156	7	Sololá	701	Sololá	4	Finca Santa Victoria	8	Agosto	2023-07-08T00:00:00	2024-11-08T03:00:00	8	Radiación solar	0
123157	7	Sololá	701	Sololá	4	Finca Santa Victoria	8	Agosto	2023-07-08T00:00:00	2024-11-08T04:00:00	2	Temperatura media	13.6
123158	7	Sololá	701	Sololá	4	Finca Santa Victoria	8	Agosto	2023-07-08T00:00:00	2024-11-08T04:00:00	4	Temperatura máxima	13.9
123159	7	Sololá	701	Sololá	4	Finca Santa Victoria	8	Agosto	2023-07-08T00:00:00	2024-11-08T04:00:00	3	Temperatura mínima	13.5
123160	7	Sololá	701	Sololá	4	Finca Santa Victoria	8	Agosto	2023-07-08T00:00:00	2024-11-08T04:00:00	5	Humedad	90
123161	7	Sololá	701	Sololá	4	Finca Santa Victoria	8	Agosto	2023-07-08T00:00:00	2024-11-08T04:00:00	6	Velocidad del viento	3.2
123162	7	Sololá	701	Sololá	4	Finca Santa Victoria	8	Agosto	2023-07-08T00:00:00	2024-11-08T04:00:00	7	Dirección del viento	3.22
123163	7	Sololá	701	Sololá	4	Finca Santa Victoria	8	Agosto	2023-07-08T00:00:00	2024-11-08T04:00:00	1	Precipitación	0
123164	7	Sololá	701	Sololá	4	Finca Santa Victoria	8	Agosto	2023-07-08T00:00:00	2024-11-08T04:00:00	8	Radiación solar	0
123165	7	Sololá	701	Sololá	4	Finca Santa Victoria	8	Agosto	2023-07-08T00:00:00	2024-11-08T05:00:00	2	Temperatura media	13.9
123166	7	Sololá	701	Sololá	4	Finca Santa Victoria	8	Agosto	2023-07-08T00:00:00	2024-11-08T05:00:00	4	Temperatura máxima	13.9
123167	7	Sololá	701	Sololá	4	Finca Santa Victoria	8	Agosto	2023-07-08T00:00:00	2024-11-08T05:00:00	3	Temperatura mínima	13.5
123168	7	Sololá	701	Sololá	4	Finca Santa Victoria	8	Agosto	2023-07-08T00:00:00	2024-11-08T05:00:00	5	Humedad	86
123169	7	Sololá	701	Sololá	4	Finca Santa Victoria	8	Agosto	2023-07-08T00:00:00	2024-11-08T05:00:00	6	Velocidad del viento	3.2
123170	7	Sololá	701	Sololá	4	Finca Santa Victoria	8	Agosto	2023-07-08T00:00:00	2024-11-08T05:00:00	7	Dirección del viento	3.22
123171	7	Sololá	701	Sololá	4	Finca Santa Victoria	8	Agosto	2023-07-08T00:00:00	2024-11-08T05:00:00	1	Precipitación	0
123172	7	Sololá	701	Sololá	4	Finca Santa Victoria	8	Agosto	2023-07-08T00:00:00	2024-11-08T05:00:00	8	Radiación solar	0
123173	7	Sololá	701	Sololá	4	Finca Santa Victoria	8	Agosto	2023-07-08T00:00:00	2024-11-08T06:00:00	2	Temperatura media	14.1
123174	7	Sololá	701	Sololá	4	Finca Santa Victoria	8	Agosto	2023-07-08T00:00:00	2024-11-08T06:00:00	4	Temperatura máxima	14.2
123175	7	Sololá	701	Sololá	4	Finca Santa Victoria	8	Agosto	2023-07-08T00:00:00	2024-11-08T06:00:00	3	Temperatura mínima	13.9
123176	7	Sololá	701	Sololá	4	Finca Santa Victoria	8	Agosto	2023-07-08T00:00:00	2024-11-08T06:00:00	5	Humedad	89
123177	7	Sololá	701	Sololá	4	Finca Santa Victoria	8	Agosto	2023-07-08T00:00:00	2024-11-08T06:00:00	6	Velocidad del viento	1.6
123178	7	Sololá	701	Sololá	4	Finca Santa Victoria	8	Agosto	2023-07-08T00:00:00	2024-11-08T06:00:00	7	Dirección del viento	1.61
123179	7	Sololá	701	Sololá	4	Finca Santa Victoria	8	Agosto	2023-07-08T00:00:00	2024-11-08T06:00:00	1	Precipitación	0
123180	7	Sololá	701	Sololá	4	Finca Santa Victoria	8	Agosto	2023-07-08T00:00:00	2024-11-08T06:00:00	8	Radiación solar	0
123181	7	Sololá	701	Sololá	4	Finca Santa Victoria	8	Agosto	2023-07-08T00:00:00	2024-11-08T07:00:00	2	Temperatura media	14.7
123182	7	Sololá	701	Sololá	4	Finca Santa Victoria	8	Agosto	2023-07-08T00:00:00	2024-11-08T07:00:00	4	Temperatura máxima	14.7
123183	7	Sololá	701	Sololá	4	Finca Santa Victoria	8	Agosto	2023-07-08T00:00:00	2024-11-08T07:00:00	3	Temperatura mínima	14
123184	7	Sololá	701	Sololá	4	Finca Santa Victoria	8	Agosto	2023-07-08T00:00:00	2024-11-08T07:00:00	5	Humedad	86
123185	7	Sololá	701	Sololá	4	Finca Santa Victoria	8	Agosto	2023-07-08T00:00:00	2024-11-08T07:00:00	6	Velocidad del viento	3.2
123186	7	Sololá	701	Sololá	4	Finca Santa Victoria	8	Agosto	2023-07-08T00:00:00	2024-11-08T07:00:00	7	Dirección del viento	3.22
123187	7	Sololá	701	Sololá	4	Finca Santa Victoria	8	Agosto	2023-07-08T00:00:00	2024-11-08T07:00:00	1	Precipitación	0
123188	7	Sololá	701	Sololá	4	Finca Santa Victoria	8	Agosto	2023-07-08T00:00:00	2024-11-08T07:00:00	8	Radiación solar	28
123189	7	Sololá	701	Sololá	4	Finca Santa Victoria	8	Agosto	2023-07-08T00:00:00	2024-11-08T08:00:00	2	Temperatura media	16.8
123190	7	Sololá	701	Sololá	4	Finca Santa Victoria	8	Agosto	2023-07-08T00:00:00	2024-11-08T08:00:00	4	Temperatura máxima	16.8
123191	7	Sololá	701	Sololá	4	Finca Santa Victoria	8	Agosto	2023-07-08T00:00:00	2024-11-08T08:00:00	3	Temperatura mínima	14.7
123192	7	Sololá	701	Sololá	4	Finca Santa Victoria	8	Agosto	2023-07-08T00:00:00	2024-11-08T08:00:00	5	Humedad	77
123193	7	Sololá	701	Sololá	4	Finca Santa Victoria	8	Agosto	2023-07-08T00:00:00	2024-11-08T08:00:00	6	Velocidad del viento	3.2
123194	7	Sololá	701	Sololá	4	Finca Santa Victoria	8	Agosto	2023-07-08T00:00:00	2024-11-08T08:00:00	7	Dirección del viento	3.22
123195	7	Sololá	701	Sololá	4	Finca Santa Victoria	8	Agosto	2023-07-08T00:00:00	2024-11-08T08:00:00	1	Precipitación	0
123196	7	Sololá	701	Sololá	4	Finca Santa Victoria	8	Agosto	2023-07-08T00:00:00	2024-11-08T08:00:00	8	Radiación solar	213
123197	7	Sololá	701	Sololá	4	Finca Santa Victoria	8	Agosto	2023-07-08T00:00:00	2024-11-08T09:00:00	2	Temperatura media	18.1
123198	7	Sololá	701	Sololá	4	Finca Santa Victoria	8	Agosto	2023-07-08T00:00:00	2024-11-08T09:00:00	4	Temperatura máxima	18.1
123199	7	Sololá	701	Sololá	4	Finca Santa Victoria	8	Agosto	2023-07-08T00:00:00	2024-11-08T09:00:00	3	Temperatura mínima	16.8
123200	7	Sololá	701	Sololá	4	Finca Santa Victoria	8	Agosto	2023-07-08T00:00:00	2024-11-08T09:00:00	5	Humedad	71
123201	7	Sololá	701	Sololá	4	Finca Santa Victoria	8	Agosto	2023-07-08T00:00:00	2024-11-08T09:00:00	6	Velocidad del viento	3.2
123202	7	Sololá	701	Sololá	4	Finca Santa Victoria	8	Agosto	2023-07-08T00:00:00	2024-11-08T09:00:00	7	Dirección del viento	3.22
123203	7	Sololá	701	Sololá	4	Finca Santa Victoria	8	Agosto	2023-07-08T00:00:00	2024-11-08T09:00:00	1	Precipitación	0
123204	7	Sololá	701	Sololá	4	Finca Santa Victoria	8	Agosto	2023-07-08T00:00:00	2024-11-08T09:00:00	8	Radiación solar	420
123205	7	Sololá	701	Sololá	4	Finca Santa Victoria	8	Agosto	2023-07-08T00:00:00	2024-11-08T10:00:00	2	Temperatura media	19.2
123206	7	Sololá	701	Sololá	4	Finca Santa Victoria	8	Agosto	2023-07-08T00:00:00	2024-11-08T10:00:00	4	Temperatura máxima	19.3
123207	7	Sololá	701	Sololá	4	Finca Santa Victoria	8	Agosto	2023-07-08T00:00:00	2024-11-08T10:00:00	3	Temperatura mínima	18.1
123208	7	Sololá	701	Sololá	4	Finca Santa Victoria	8	Agosto	2023-07-08T00:00:00	2024-11-08T10:00:00	5	Humedad	70
123209	7	Sololá	701	Sololá	4	Finca Santa Victoria	8	Agosto	2023-07-08T00:00:00	2024-11-08T10:00:00	6	Velocidad del viento	4.8
123210	7	Sololá	701	Sololá	4	Finca Santa Victoria	8	Agosto	2023-07-08T00:00:00	2024-11-08T10:00:00	7	Dirección del viento	4.83
123211	7	Sololá	701	Sololá	4	Finca Santa Victoria	8	Agosto	2023-07-08T00:00:00	2024-11-08T10:00:00	1	Precipitación	0
123212	7	Sololá	701	Sololá	4	Finca Santa Victoria	8	Agosto	2023-07-08T00:00:00	2024-11-08T10:00:00	8	Radiación solar	220
123213	7	Sololá	701	Sololá	4	Finca Santa Victoria	8	Agosto	2023-07-08T00:00:00	2024-11-08T11:00:00	2	Temperatura media	20.9
123214	7	Sololá	701	Sololá	4	Finca Santa Victoria	8	Agosto	2023-07-08T00:00:00	2024-11-08T11:00:00	4	Temperatura máxima	20.9
123215	7	Sololá	701	Sololá	4	Finca Santa Victoria	8	Agosto	2023-07-08T00:00:00	2024-11-08T11:00:00	3	Temperatura mínima	19.3
123216	7	Sololá	701	Sololá	4	Finca Santa Victoria	8	Agosto	2023-07-08T00:00:00	2024-11-08T11:00:00	5	Humedad	68
123217	7	Sololá	701	Sololá	4	Finca Santa Victoria	8	Agosto	2023-07-08T00:00:00	2024-11-08T11:00:00	6	Velocidad del viento	4.8
123218	7	Sololá	701	Sololá	4	Finca Santa Victoria	8	Agosto	2023-07-08T00:00:00	2024-11-08T11:00:00	7	Dirección del viento	4.83
123219	7	Sololá	701	Sololá	4	Finca Santa Victoria	8	Agosto	2023-07-08T00:00:00	2024-11-08T11:00:00	1	Precipitación	0
123220	7	Sololá	701	Sololá	4	Finca Santa Victoria	8	Agosto	2023-07-08T00:00:00	2024-11-08T11:00:00	8	Radiación solar	147
123221	7	Sololá	701	Sololá	4	Finca Santa Victoria	8	Agosto	2023-07-08T00:00:00	2024-11-08T12:00:00	2	Temperatura media	21.8
123222	7	Sololá	701	Sololá	4	Finca Santa Victoria	8	Agosto	2023-07-08T00:00:00	2024-11-08T12:00:00	4	Temperatura máxima	21.8
123223	7	Sololá	701	Sololá	4	Finca Santa Victoria	8	Agosto	2023-07-08T00:00:00	2024-11-08T12:00:00	3	Temperatura mínima	20.7
123224	7	Sololá	701	Sololá	4	Finca Santa Victoria	8	Agosto	2023-07-08T00:00:00	2024-11-08T12:00:00	5	Humedad	61
123225	7	Sololá	701	Sololá	4	Finca Santa Victoria	8	Agosto	2023-07-08T00:00:00	2024-11-08T12:00:00	6	Velocidad del viento	6.4
123226	7	Sololá	701	Sololá	4	Finca Santa Victoria	8	Agosto	2023-07-08T00:00:00	2024-11-08T12:00:00	7	Dirección del viento	6.44
123227	7	Sololá	701	Sololá	4	Finca Santa Victoria	8	Agosto	2023-07-08T00:00:00	2024-11-08T12:00:00	1	Precipitación	0
123228	7	Sololá	701	Sololá	4	Finca Santa Victoria	8	Agosto	2023-07-08T00:00:00	2024-11-08T12:00:00	8	Radiación solar	1046
123229	7	Sololá	701	Sololá	4	Finca Santa Victoria	8	Agosto	2023-07-08T00:00:00	2024-11-08T13:00:00	2	Temperatura media	22.4
123230	7	Sololá	701	Sololá	4	Finca Santa Victoria	8	Agosto	2023-07-08T00:00:00	2024-11-08T13:00:00	4	Temperatura máxima	22.8
123231	7	Sololá	701	Sololá	4	Finca Santa Victoria	8	Agosto	2023-07-08T00:00:00	2024-11-08T13:00:00	3	Temperatura mínima	21.7
123232	7	Sololá	701	Sololá	4	Finca Santa Victoria	8	Agosto	2023-07-08T00:00:00	2024-11-08T13:00:00	5	Humedad	61
123233	7	Sololá	701	Sololá	4	Finca Santa Victoria	8	Agosto	2023-07-08T00:00:00	2024-11-08T13:00:00	6	Velocidad del viento	4.8
123234	7	Sololá	701	Sololá	4	Finca Santa Victoria	8	Agosto	2023-07-08T00:00:00	2024-11-08T13:00:00	7	Dirección del viento	4.83
123235	7	Sololá	701	Sololá	4	Finca Santa Victoria	8	Agosto	2023-07-08T00:00:00	2024-11-08T13:00:00	1	Precipitación	0
123236	7	Sololá	701	Sololá	4	Finca Santa Victoria	8	Agosto	2023-07-08T00:00:00	2024-11-08T13:00:00	8	Radiación solar	813
123237	7	Sololá	701	Sololá	4	Finca Santa Victoria	8	Agosto	2023-07-08T00:00:00	2024-11-08T14:00:00	2	Temperatura media	21.1
123238	7	Sololá	701	Sololá	4	Finca Santa Victoria	8	Agosto	2023-07-08T00:00:00	2024-11-08T14:00:00	4	Temperatura máxima	22.9
123239	7	Sololá	701	Sololá	4	Finca Santa Victoria	8	Agosto	2023-07-08T00:00:00	2024-11-08T14:00:00	3	Temperatura mínima	21.1
123240	7	Sololá	701	Sololá	4	Finca Santa Victoria	8	Agosto	2023-07-08T00:00:00	2024-11-08T14:00:00	5	Humedad	64
123241	7	Sololá	701	Sololá	4	Finca Santa Victoria	8	Agosto	2023-07-08T00:00:00	2024-11-08T14:00:00	6	Velocidad del viento	4.8
123242	7	Sololá	701	Sololá	4	Finca Santa Victoria	8	Agosto	2023-07-08T00:00:00	2024-11-08T14:00:00	7	Dirección del viento	4.83
123243	7	Sololá	701	Sololá	4	Finca Santa Victoria	8	Agosto	2023-07-08T00:00:00	2024-11-08T14:00:00	1	Precipitación	0
123244	7	Sololá	701	Sololá	4	Finca Santa Victoria	8	Agosto	2023-07-08T00:00:00	2024-11-08T14:00:00	8	Radiación solar	197
123245	7	Sololá	701	Sololá	4	Finca Santa Victoria	8	Agosto	2023-07-08T00:00:00	2024-11-08T15:00:00	2	Temperatura media	21.3
123246	7	Sololá	701	Sololá	4	Finca Santa Victoria	8	Agosto	2023-07-08T00:00:00	2024-11-08T15:00:00	4	Temperatura máxima	21.6
123247	7	Sololá	701	Sololá	4	Finca Santa Victoria	8	Agosto	2023-07-08T00:00:00	2024-11-08T15:00:00	3	Temperatura mínima	20.4
123248	7	Sololá	701	Sololá	4	Finca Santa Victoria	8	Agosto	2023-07-08T00:00:00	2024-11-08T15:00:00	5	Humedad	69
123249	7	Sololá	701	Sololá	4	Finca Santa Victoria	8	Agosto	2023-07-08T00:00:00	2024-11-08T15:00:00	6	Velocidad del viento	3.2
123250	7	Sololá	701	Sololá	4	Finca Santa Victoria	8	Agosto	2023-07-08T00:00:00	2024-11-08T15:00:00	7	Dirección del viento	3.22
123251	7	Sololá	701	Sololá	4	Finca Santa Victoria	8	Agosto	2023-07-08T00:00:00	2024-11-08T15:00:00	1	Precipitación	0
123252	7	Sololá	701	Sololá	4	Finca Santa Victoria	8	Agosto	2023-07-08T00:00:00	2024-11-08T15:00:00	8	Radiación solar	196
123253	7	Sololá	701	Sololá	4	Finca Santa Victoria	8	Agosto	2023-07-08T00:00:00	2024-11-08T16:00:00	2	Temperatura media	21.1
123254	7	Sololá	701	Sololá	4	Finca Santa Victoria	8	Agosto	2023-07-08T00:00:00	2024-11-08T16:00:00	4	Temperatura máxima	22.1
123255	7	Sololá	701	Sololá	4	Finca Santa Victoria	8	Agosto	2023-07-08T00:00:00	2024-11-08T16:00:00	3	Temperatura mínima	21
123256	7	Sololá	701	Sololá	4	Finca Santa Victoria	8	Agosto	2023-07-08T00:00:00	2024-11-08T16:00:00	5	Humedad	61
123257	7	Sololá	701	Sololá	4	Finca Santa Victoria	8	Agosto	2023-07-08T00:00:00	2024-11-08T16:00:00	6	Velocidad del viento	4.8
123258	7	Sololá	701	Sololá	4	Finca Santa Victoria	8	Agosto	2023-07-08T00:00:00	2024-11-08T16:00:00	7	Dirección del viento	4.83
123259	7	Sololá	701	Sololá	4	Finca Santa Victoria	8	Agosto	2023-07-08T00:00:00	2024-11-08T16:00:00	1	Precipitación	0
123260	7	Sololá	701	Sololá	4	Finca Santa Victoria	8	Agosto	2023-07-08T00:00:00	2024-11-08T16:00:00	8	Radiación solar	161
123261	7	Sololá	701	Sololá	4	Finca Santa Victoria	8	Agosto	2023-07-08T00:00:00	2024-11-08T17:00:00	2	Temperatura media	19.7
123262	7	Sololá	701	Sololá	4	Finca Santa Victoria	8	Agosto	2023-07-08T00:00:00	2024-11-08T17:00:00	4	Temperatura máxima	21.4
123263	7	Sololá	701	Sololá	4	Finca Santa Victoria	8	Agosto	2023-07-08T00:00:00	2024-11-08T17:00:00	3	Temperatura mínima	19.5
123264	7	Sololá	701	Sololá	4	Finca Santa Victoria	8	Agosto	2023-07-08T00:00:00	2024-11-08T17:00:00	5	Humedad	66
123265	7	Sololá	701	Sololá	4	Finca Santa Victoria	8	Agosto	2023-07-08T00:00:00	2024-11-08T17:00:00	6	Velocidad del viento	4.8
123266	7	Sololá	701	Sololá	4	Finca Santa Victoria	8	Agosto	2023-07-08T00:00:00	2024-11-08T17:00:00	7	Dirección del viento	4.83
123267	7	Sololá	701	Sololá	4	Finca Santa Victoria	8	Agosto	2023-07-08T00:00:00	2024-11-08T17:00:00	1	Precipitación	0
123268	7	Sololá	701	Sololá	4	Finca Santa Victoria	8	Agosto	2023-07-08T00:00:00	2024-11-08T17:00:00	8	Radiación solar	112
123269	7	Sololá	701	Sololá	4	Finca Santa Victoria	8	Agosto	2023-07-08T00:00:00	2024-11-08T18:00:00	2	Temperatura media	19.1
123270	7	Sololá	701	Sololá	4	Finca Santa Victoria	8	Agosto	2023-07-08T00:00:00	2024-11-08T18:00:00	4	Temperatura máxima	20.2
123271	7	Sololá	701	Sololá	4	Finca Santa Victoria	8	Agosto	2023-07-08T00:00:00	2024-11-08T18:00:00	3	Temperatura mínima	19.1
123272	7	Sololá	701	Sololá	4	Finca Santa Victoria	8	Agosto	2023-07-08T00:00:00	2024-11-08T18:00:00	5	Humedad	69
123273	7	Sololá	701	Sololá	4	Finca Santa Victoria	8	Agosto	2023-07-08T00:00:00	2024-11-08T18:00:00	6	Velocidad del viento	3.2
123274	7	Sololá	701	Sololá	4	Finca Santa Victoria	8	Agosto	2023-07-08T00:00:00	2024-11-08T18:00:00	7	Dirección del viento	3.22
123275	7	Sololá	701	Sololá	4	Finca Santa Victoria	8	Agosto	2023-07-08T00:00:00	2024-11-08T18:00:00	1	Precipitación	0
123276	7	Sololá	701	Sololá	4	Finca Santa Victoria	8	Agosto	2023-07-08T00:00:00	2024-11-08T18:00:00	8	Radiación solar	67
123277	7	Sololá	701	Sololá	4	Finca Santa Victoria	8	Agosto	2023-07-08T00:00:00	2024-11-08T19:00:00	2	Temperatura media	16.8
123278	7	Sololá	701	Sololá	4	Finca Santa Victoria	8	Agosto	2023-07-08T00:00:00	2024-11-08T19:00:00	4	Temperatura máxima	19.1
123279	7	Sololá	701	Sololá	4	Finca Santa Victoria	8	Agosto	2023-07-08T00:00:00	2024-11-08T19:00:00	3	Temperatura mínima	16.8
123280	7	Sololá	701	Sololá	4	Finca Santa Victoria	8	Agosto	2023-07-08T00:00:00	2024-11-08T19:00:00	5	Humedad	81
123281	7	Sololá	701	Sololá	4	Finca Santa Victoria	8	Agosto	2023-07-08T00:00:00	2024-11-08T19:00:00	6	Velocidad del viento	1.6
123282	7	Sololá	701	Sololá	4	Finca Santa Victoria	8	Agosto	2023-07-08T00:00:00	2024-11-08T19:00:00	7	Dirección del viento	1.61
123283	7	Sololá	701	Sololá	4	Finca Santa Victoria	8	Agosto	2023-07-08T00:00:00	2024-11-08T19:00:00	1	Precipitación	0
123284	7	Sololá	701	Sololá	4	Finca Santa Victoria	8	Agosto	2023-07-08T00:00:00	2024-11-08T19:00:00	8	Radiación solar	0
123285	7	Sololá	701	Sololá	4	Finca Santa Victoria	8	Agosto	2023-07-08T00:00:00	2024-11-08T20:00:00	2	Temperatura media	16.4
123286	7	Sololá	701	Sololá	4	Finca Santa Victoria	8	Agosto	2023-07-08T00:00:00	2024-11-08T20:00:00	4	Temperatura máxima	16.8
123287	7	Sololá	701	Sololá	4	Finca Santa Victoria	8	Agosto	2023-07-08T00:00:00	2024-11-08T20:00:00	3	Temperatura mínima	16.4
123288	7	Sololá	701	Sololá	4	Finca Santa Victoria	8	Agosto	2023-07-08T00:00:00	2024-11-08T20:00:00	5	Humedad	83
123289	7	Sololá	701	Sololá	4	Finca Santa Victoria	8	Agosto	2023-07-08T00:00:00	2024-11-08T20:00:00	6	Velocidad del viento	1.6
123290	7	Sololá	701	Sololá	4	Finca Santa Victoria	8	Agosto	2023-07-08T00:00:00	2024-11-08T20:00:00	7	Dirección del viento	1.61
123291	7	Sololá	701	Sololá	4	Finca Santa Victoria	8	Agosto	2023-07-08T00:00:00	2024-11-08T20:00:00	1	Precipitación	0
123292	7	Sololá	701	Sololá	4	Finca Santa Victoria	8	Agosto	2023-07-08T00:00:00	2024-11-08T20:00:00	8	Radiación solar	0
123293	7	Sololá	701	Sololá	4	Finca Santa Victoria	8	Agosto	2023-07-08T00:00:00	2024-11-08T21:00:00	2	Temperatura media	16.6
123294	7	Sololá	701	Sololá	4	Finca Santa Victoria	8	Agosto	2023-07-08T00:00:00	2024-11-08T21:00:00	4	Temperatura máxima	16.7
123295	7	Sololá	701	Sololá	4	Finca Santa Victoria	8	Agosto	2023-07-08T00:00:00	2024-11-08T21:00:00	3	Temperatura mínima	16.4
123296	7	Sololá	701	Sololá	4	Finca Santa Victoria	8	Agosto	2023-07-08T00:00:00	2024-11-08T21:00:00	5	Humedad	83
123297	7	Sololá	701	Sololá	4	Finca Santa Victoria	8	Agosto	2023-07-08T00:00:00	2024-11-08T21:00:00	6	Velocidad del viento	3.2
123298	7	Sololá	701	Sololá	4	Finca Santa Victoria	8	Agosto	2023-07-08T00:00:00	2024-11-08T21:00:00	7	Dirección del viento	3.22
123299	7	Sololá	701	Sololá	4	Finca Santa Victoria	8	Agosto	2023-07-08T00:00:00	2024-11-08T21:00:00	1	Precipitación	0
123300	7	Sololá	701	Sololá	4	Finca Santa Victoria	8	Agosto	2023-07-08T00:00:00	2024-11-08T21:00:00	8	Radiación solar	0
123301	7	Sololá	701	Sololá	4	Finca Santa Victoria	8	Agosto	2023-07-08T00:00:00	2024-11-08T22:00:00	2	Temperatura media	16.2
123302	7	Sololá	701	Sololá	4	Finca Santa Victoria	8	Agosto	2023-07-08T00:00:00	2024-11-08T22:00:00	4	Temperatura máxima	16.6
123303	7	Sololá	701	Sololá	4	Finca Santa Victoria	8	Agosto	2023-07-08T00:00:00	2024-11-08T22:00:00	3	Temperatura mínima	16.2
123304	7	Sololá	701	Sololá	4	Finca Santa Victoria	8	Agosto	2023-07-08T00:00:00	2024-11-08T22:00:00	5	Humedad	84
123305	7	Sololá	701	Sololá	4	Finca Santa Victoria	8	Agosto	2023-07-08T00:00:00	2024-11-08T22:00:00	6	Velocidad del viento	3.2
123306	7	Sololá	701	Sololá	4	Finca Santa Victoria	8	Agosto	2023-07-08T00:00:00	2024-11-08T22:00:00	7	Dirección del viento	3.22
123307	7	Sololá	701	Sololá	4	Finca Santa Victoria	8	Agosto	2023-07-08T00:00:00	2024-11-08T22:00:00	1	Precipitación	0
123308	7	Sololá	701	Sololá	4	Finca Santa Victoria	8	Agosto	2023-07-08T00:00:00	2024-11-08T22:00:00	8	Radiación solar	0
123309	7	Sololá	701	Sololá	4	Finca Santa Victoria	8	Agosto	2023-07-08T00:00:00	2024-11-08T23:00:00	2	Temperatura media	15.9
123310	7	Sololá	701	Sololá	4	Finca Santa Victoria	8	Agosto	2023-07-08T00:00:00	2024-11-08T23:00:00	4	Temperatura máxima	16.2
123311	7	Sololá	701	Sololá	4	Finca Santa Victoria	8	Agosto	2023-07-08T00:00:00	2024-11-08T23:00:00	3	Temperatura mínima	15.9
123312	7	Sololá	701	Sololá	4	Finca Santa Victoria	8	Agosto	2023-07-08T00:00:00	2024-11-08T23:00:00	5	Humedad	83
123313	7	Sololá	701	Sololá	4	Finca Santa Victoria	8	Agosto	2023-07-08T00:00:00	2024-11-08T23:00:00	6	Velocidad del viento	3.2
123314	7	Sololá	701	Sololá	4	Finca Santa Victoria	8	Agosto	2023-07-08T00:00:00	2024-11-08T23:00:00	7	Dirección del viento	3.22
123315	7	Sololá	701	Sololá	4	Finca Santa Victoria	8	Agosto	2023-07-08T00:00:00	2024-11-08T23:00:00	1	Precipitación	0
123316	7	Sololá	701	Sololá	4	Finca Santa Victoria	8	Agosto	2023-07-08T00:00:00	2024-11-08T23:00:00	8	Radiación solar	0
123317	7	Sololá	701	Sololá	4	Finca Santa Victoria	8	Agosto	2023-08-08T00:00:00	2024-11-08T00:00:00	2	Temperatura media	15.7
123318	7	Sololá	701	Sololá	4	Finca Santa Victoria	8	Agosto	2023-08-08T00:00:00	2024-11-08T00:00:00	4	Temperatura máxima	15.9
123319	7	Sololá	701	Sololá	4	Finca Santa Victoria	8	Agosto	2023-08-08T00:00:00	2024-11-08T00:00:00	3	Temperatura mínima	15.6
123320	7	Sololá	701	Sololá	4	Finca Santa Victoria	8	Agosto	2023-08-08T00:00:00	2024-11-08T00:00:00	5	Humedad	84
123321	7	Sololá	701	Sololá	4	Finca Santa Victoria	8	Agosto	2023-08-08T00:00:00	2024-11-08T00:00:00	6	Velocidad del viento	3.2
123322	7	Sololá	701	Sololá	4	Finca Santa Victoria	8	Agosto	2023-08-08T00:00:00	2024-11-08T00:00:00	7	Dirección del viento	3.22
123323	7	Sololá	701	Sololá	4	Finca Santa Victoria	8	Agosto	2023-08-08T00:00:00	2024-11-08T00:00:00	1	Precipitación	0
123324	7	Sololá	701	Sololá	4	Finca Santa Victoria	8	Agosto	2023-08-08T00:00:00	2024-11-08T00:00:00	8	Radiación solar	0
123325	7	Sololá	701	Sololá	4	Finca Santa Victoria	8	Agosto	2023-08-08T00:00:00	2024-11-08T01:00:00	2	Temperatura media	15.1
123326	7	Sololá	701	Sololá	4	Finca Santa Victoria	8	Agosto	2023-08-08T00:00:00	2024-11-08T01:00:00	4	Temperatura máxima	15.6
123327	7	Sololá	701	Sololá	4	Finca Santa Victoria	8	Agosto	2023-08-08T00:00:00	2024-11-08T01:00:00	3	Temperatura mínima	15.1
123328	7	Sololá	701	Sololá	4	Finca Santa Victoria	8	Agosto	2023-08-08T00:00:00	2024-11-08T01:00:00	5	Humedad	86
123329	7	Sololá	701	Sololá	4	Finca Santa Victoria	8	Agosto	2023-08-08T00:00:00	2024-11-08T01:00:00	6	Velocidad del viento	1.6
123330	7	Sololá	701	Sololá	4	Finca Santa Victoria	8	Agosto	2023-08-08T00:00:00	2024-11-08T01:00:00	7	Dirección del viento	1.61
123331	7	Sololá	701	Sololá	4	Finca Santa Victoria	8	Agosto	2023-08-08T00:00:00	2024-11-08T01:00:00	1	Precipitación	0
123332	7	Sololá	701	Sololá	4	Finca Santa Victoria	8	Agosto	2023-08-08T00:00:00	2024-11-08T01:00:00	8	Radiación solar	0
123333	7	Sololá	701	Sololá	4	Finca Santa Victoria	8	Agosto	2023-08-08T00:00:00	2024-11-08T02:00:00	2	Temperatura media	15.3
123334	7	Sololá	701	Sololá	4	Finca Santa Victoria	8	Agosto	2023-08-08T00:00:00	2024-11-08T02:00:00	4	Temperatura máxima	15.3
123335	7	Sololá	701	Sololá	4	Finca Santa Victoria	8	Agosto	2023-08-08T00:00:00	2024-11-08T02:00:00	3	Temperatura mínima	15.1
123336	7	Sololá	701	Sololá	4	Finca Santa Victoria	8	Agosto	2023-08-08T00:00:00	2024-11-08T02:00:00	5	Humedad	86
123337	7	Sololá	701	Sololá	4	Finca Santa Victoria	8	Agosto	2023-08-08T00:00:00	2024-11-08T02:00:00	6	Velocidad del viento	3.2
123338	7	Sololá	701	Sololá	4	Finca Santa Victoria	8	Agosto	2023-08-08T00:00:00	2024-11-08T02:00:00	7	Dirección del viento	3.22
123339	7	Sololá	701	Sololá	4	Finca Santa Victoria	8	Agosto	2023-08-08T00:00:00	2024-11-08T02:00:00	1	Precipitación	0
123340	7	Sololá	701	Sololá	4	Finca Santa Victoria	8	Agosto	2023-08-08T00:00:00	2024-11-08T02:00:00	8	Radiación solar	0
123341	7	Sololá	701	Sololá	4	Finca Santa Victoria	8	Agosto	2023-08-08T00:00:00	2024-11-08T03:00:00	2	Temperatura media	15.3
123342	7	Sololá	701	Sololá	4	Finca Santa Victoria	8	Agosto	2023-08-08T00:00:00	2024-11-08T03:00:00	4	Temperatura máxima	15.4
123343	7	Sololá	701	Sololá	4	Finca Santa Victoria	8	Agosto	2023-08-08T00:00:00	2024-11-08T03:00:00	3	Temperatura mínima	15.3
123344	7	Sololá	701	Sololá	4	Finca Santa Victoria	8	Agosto	2023-08-08T00:00:00	2024-11-08T03:00:00	5	Humedad	87
123345	7	Sololá	701	Sololá	4	Finca Santa Victoria	8	Agosto	2023-08-08T00:00:00	2024-11-08T03:00:00	6	Velocidad del viento	1.6
123346	7	Sololá	701	Sololá	4	Finca Santa Victoria	8	Agosto	2023-08-08T00:00:00	2024-11-08T03:00:00	7	Dirección del viento	1.61
123347	7	Sololá	701	Sololá	4	Finca Santa Victoria	8	Agosto	2023-08-08T00:00:00	2024-11-08T03:00:00	1	Precipitación	0
123348	7	Sololá	701	Sololá	4	Finca Santa Victoria	8	Agosto	2023-08-08T00:00:00	2024-11-08T03:00:00	8	Radiación solar	0
123349	7	Sololá	701	Sololá	4	Finca Santa Victoria	8	Agosto	2023-08-08T00:00:00	2024-11-08T04:00:00	2	Temperatura media	14.9
123350	7	Sololá	701	Sololá	4	Finca Santa Victoria	8	Agosto	2023-08-08T00:00:00	2024-11-08T04:00:00	4	Temperatura máxima	15.3
123351	7	Sololá	701	Sololá	4	Finca Santa Victoria	8	Agosto	2023-08-08T00:00:00	2024-11-08T04:00:00	3	Temperatura mínima	14.8
123352	7	Sololá	701	Sololá	4	Finca Santa Victoria	8	Agosto	2023-08-08T00:00:00	2024-11-08T04:00:00	5	Humedad	87
123353	7	Sololá	701	Sololá	4	Finca Santa Victoria	8	Agosto	2023-08-08T00:00:00	2024-11-08T04:00:00	6	Velocidad del viento	1.6
123354	7	Sololá	701	Sololá	4	Finca Santa Victoria	8	Agosto	2023-08-08T00:00:00	2024-11-08T04:00:00	7	Dirección del viento	1.61
123355	7	Sololá	701	Sololá	4	Finca Santa Victoria	8	Agosto	2023-08-08T00:00:00	2024-11-08T04:00:00	1	Precipitación	0
123356	7	Sololá	701	Sololá	4	Finca Santa Victoria	8	Agosto	2023-08-08T00:00:00	2024-11-08T04:00:00	8	Radiación solar	0
123357	7	Sololá	701	Sololá	4	Finca Santa Victoria	8	Agosto	2023-08-08T00:00:00	2024-11-08T05:00:00	2	Temperatura media	14.8
123358	7	Sololá	701	Sololá	4	Finca Santa Victoria	8	Agosto	2023-08-08T00:00:00	2024-11-08T05:00:00	4	Temperatura máxima	14.9
123359	7	Sololá	701	Sololá	4	Finca Santa Victoria	8	Agosto	2023-08-08T00:00:00	2024-11-08T05:00:00	3	Temperatura mínima	14.8
123360	7	Sololá	701	Sololá	4	Finca Santa Victoria	8	Agosto	2023-08-08T00:00:00	2024-11-08T05:00:00	5	Humedad	87
123361	7	Sololá	701	Sololá	4	Finca Santa Victoria	8	Agosto	2023-08-08T00:00:00	2024-11-08T05:00:00	6	Velocidad del viento	3.2
123362	7	Sololá	701	Sololá	4	Finca Santa Victoria	8	Agosto	2023-08-08T00:00:00	2024-11-08T05:00:00	7	Dirección del viento	3.22
123363	7	Sololá	701	Sololá	4	Finca Santa Victoria	8	Agosto	2023-08-08T00:00:00	2024-11-08T05:00:00	1	Precipitación	0
123364	7	Sololá	701	Sololá	4	Finca Santa Victoria	8	Agosto	2023-08-08T00:00:00	2024-11-08T05:00:00	8	Radiación solar	0
123365	7	Sololá	701	Sololá	4	Finca Santa Victoria	8	Agosto	2023-08-08T00:00:00	2024-11-08T06:00:00	2	Temperatura media	14.8
123366	7	Sololá	701	Sololá	4	Finca Santa Victoria	8	Agosto	2023-08-08T00:00:00	2024-11-08T06:00:00	4	Temperatura máxima	15.1
123367	7	Sololá	701	Sololá	4	Finca Santa Victoria	8	Agosto	2023-08-08T00:00:00	2024-11-08T06:00:00	3	Temperatura mínima	14.8
123368	7	Sololá	701	Sololá	4	Finca Santa Victoria	8	Agosto	2023-08-08T00:00:00	2024-11-08T06:00:00	5	Humedad	86
123369	7	Sololá	701	Sololá	4	Finca Santa Victoria	8	Agosto	2023-08-08T00:00:00	2024-11-08T06:00:00	6	Velocidad del viento	3.2
123370	7	Sololá	701	Sololá	4	Finca Santa Victoria	8	Agosto	2023-08-08T00:00:00	2024-11-08T06:00:00	7	Dirección del viento	3.22
123371	7	Sololá	701	Sololá	4	Finca Santa Victoria	8	Agosto	2023-08-08T00:00:00	2024-11-08T06:00:00	1	Precipitación	0
123372	7	Sololá	701	Sololá	4	Finca Santa Victoria	8	Agosto	2023-08-08T00:00:00	2024-11-08T06:00:00	8	Radiación solar	0
123373	7	Sololá	701	Sololá	4	Finca Santa Victoria	8	Agosto	2023-08-08T00:00:00	2024-11-08T07:00:00	2	Temperatura media	15.4
123374	7	Sololá	701	Sololá	4	Finca Santa Victoria	8	Agosto	2023-08-08T00:00:00	2024-11-08T07:00:00	4	Temperatura máxima	15.4
123375	7	Sololá	701	Sololá	4	Finca Santa Victoria	8	Agosto	2023-08-08T00:00:00	2024-11-08T07:00:00	3	Temperatura mínima	14.8
123376	7	Sololá	701	Sololá	4	Finca Santa Victoria	8	Agosto	2023-08-08T00:00:00	2024-11-08T07:00:00	5	Humedad	85
123377	7	Sololá	701	Sololá	4	Finca Santa Victoria	8	Agosto	2023-08-08T00:00:00	2024-11-08T07:00:00	6	Velocidad del viento	3.2
123378	7	Sololá	701	Sololá	4	Finca Santa Victoria	8	Agosto	2023-08-08T00:00:00	2024-11-08T07:00:00	7	Dirección del viento	3.22
123379	7	Sololá	701	Sololá	4	Finca Santa Victoria	8	Agosto	2023-08-08T00:00:00	2024-11-08T07:00:00	1	Precipitación	0
123380	7	Sololá	701	Sololá	4	Finca Santa Victoria	8	Agosto	2023-08-08T00:00:00	2024-11-08T07:00:00	8	Radiación solar	30
123381	7	Sololá	701	Sololá	4	Finca Santa Victoria	8	Agosto	2023-08-08T00:00:00	2024-11-08T08:00:00	2	Temperatura media	16.7
123382	7	Sololá	701	Sololá	4	Finca Santa Victoria	8	Agosto	2023-08-08T00:00:00	2024-11-08T08:00:00	4	Temperatura máxima	16.7
123383	7	Sololá	701	Sololá	4	Finca Santa Victoria	8	Agosto	2023-08-08T00:00:00	2024-11-08T08:00:00	3	Temperatura mínima	15.4
123384	7	Sololá	701	Sololá	4	Finca Santa Victoria	8	Agosto	2023-08-08T00:00:00	2024-11-08T08:00:00	5	Humedad	80
123385	7	Sololá	701	Sololá	4	Finca Santa Victoria	8	Agosto	2023-08-08T00:00:00	2024-11-08T08:00:00	6	Velocidad del viento	4.8
123386	7	Sololá	701	Sololá	4	Finca Santa Victoria	8	Agosto	2023-08-08T00:00:00	2024-11-08T08:00:00	7	Dirección del viento	4.83
123387	7	Sololá	701	Sololá	4	Finca Santa Victoria	8	Agosto	2023-08-08T00:00:00	2024-11-08T08:00:00	1	Precipitación	0
123388	7	Sololá	701	Sololá	4	Finca Santa Victoria	8	Agosto	2023-08-08T00:00:00	2024-11-08T08:00:00	8	Radiación solar	134
123389	7	Sololá	701	Sololá	4	Finca Santa Victoria	8	Agosto	2023-08-08T00:00:00	2024-11-08T09:00:00	2	Temperatura media	18.3
123390	7	Sololá	701	Sololá	4	Finca Santa Victoria	8	Agosto	2023-08-08T00:00:00	2024-11-08T09:00:00	4	Temperatura máxima	18.3
123391	7	Sololá	701	Sololá	4	Finca Santa Victoria	8	Agosto	2023-08-08T00:00:00	2024-11-08T09:00:00	3	Temperatura mínima	16.7
123392	7	Sololá	701	Sololá	4	Finca Santa Victoria	8	Agosto	2023-08-08T00:00:00	2024-11-08T09:00:00	5	Humedad	74
123393	7	Sololá	701	Sololá	4	Finca Santa Victoria	8	Agosto	2023-08-08T00:00:00	2024-11-08T09:00:00	6	Velocidad del viento	4.8
123394	7	Sololá	701	Sololá	4	Finca Santa Victoria	8	Agosto	2023-08-08T00:00:00	2024-11-08T09:00:00	7	Dirección del viento	4.83
123395	7	Sololá	701	Sololá	4	Finca Santa Victoria	8	Agosto	2023-08-08T00:00:00	2024-11-08T09:00:00	1	Precipitación	0
123396	7	Sololá	701	Sololá	4	Finca Santa Victoria	8	Agosto	2023-08-08T00:00:00	2024-11-08T09:00:00	8	Radiación solar	274
123397	7	Sololá	701	Sololá	4	Finca Santa Victoria	8	Agosto	2023-08-08T00:00:00	2024-11-08T10:00:00	2	Temperatura media	19.4
123398	7	Sololá	701	Sololá	4	Finca Santa Victoria	8	Agosto	2023-08-08T00:00:00	2024-11-08T10:00:00	4	Temperatura máxima	19.5
123399	7	Sololá	701	Sololá	4	Finca Santa Victoria	8	Agosto	2023-08-08T00:00:00	2024-11-08T10:00:00	3	Temperatura mínima	18.1
123400	7	Sololá	701	Sololá	4	Finca Santa Victoria	8	Agosto	2023-08-08T00:00:00	2024-11-08T10:00:00	5	Humedad	72
123401	7	Sololá	701	Sololá	4	Finca Santa Victoria	8	Agosto	2023-08-08T00:00:00	2024-11-08T10:00:00	6	Velocidad del viento	4.8
123402	7	Sololá	701	Sololá	4	Finca Santa Victoria	8	Agosto	2023-08-08T00:00:00	2024-11-08T10:00:00	7	Dirección del viento	4.83
123403	7	Sololá	701	Sololá	4	Finca Santa Victoria	8	Agosto	2023-08-08T00:00:00	2024-11-08T10:00:00	1	Precipitación	0
123404	7	Sololá	701	Sololá	4	Finca Santa Victoria	8	Agosto	2023-08-08T00:00:00	2024-11-08T10:00:00	8	Radiación solar	180
123405	7	Sololá	701	Sololá	4	Finca Santa Victoria	8	Agosto	2023-08-08T00:00:00	2024-11-08T11:00:00	2	Temperatura media	21.5
123406	7	Sololá	701	Sololá	4	Finca Santa Victoria	8	Agosto	2023-08-08T00:00:00	2024-11-08T11:00:00	4	Temperatura máxima	21.6
123407	7	Sololá	701	Sololá	4	Finca Santa Victoria	8	Agosto	2023-08-08T00:00:00	2024-11-08T11:00:00	3	Temperatura mínima	19.3
123408	7	Sololá	701	Sololá	4	Finca Santa Victoria	8	Agosto	2023-08-08T00:00:00	2024-11-08T11:00:00	5	Humedad	67
123409	7	Sololá	701	Sololá	4	Finca Santa Victoria	8	Agosto	2023-08-08T00:00:00	2024-11-08T11:00:00	6	Velocidad del viento	4.8
123410	7	Sololá	701	Sololá	4	Finca Santa Victoria	8	Agosto	2023-08-08T00:00:00	2024-11-08T11:00:00	7	Dirección del viento	4.83
123411	7	Sololá	701	Sololá	4	Finca Santa Victoria	8	Agosto	2023-08-08T00:00:00	2024-11-08T11:00:00	1	Precipitación	0
123412	7	Sololá	701	Sololá	4	Finca Santa Victoria	8	Agosto	2023-08-08T00:00:00	2024-11-08T11:00:00	8	Radiación solar	243
123413	7	Sololá	701	Sololá	4	Finca Santa Victoria	8	Agosto	2023-08-08T00:00:00	2024-11-08T12:00:00	2	Temperatura media	22.6
123414	7	Sololá	701	Sololá	4	Finca Santa Victoria	8	Agosto	2023-08-08T00:00:00	2024-11-08T12:00:00	4	Temperatura máxima	22.7
123415	7	Sololá	701	Sololá	4	Finca Santa Victoria	8	Agosto	2023-08-08T00:00:00	2024-11-08T12:00:00	3	Temperatura mínima	21.5
123416	7	Sololá	701	Sololá	4	Finca Santa Victoria	8	Agosto	2023-08-08T00:00:00	2024-11-08T12:00:00	5	Humedad	60
123417	7	Sololá	701	Sololá	4	Finca Santa Victoria	8	Agosto	2023-08-08T00:00:00	2024-11-08T12:00:00	6	Velocidad del viento	4.8
123418	7	Sololá	701	Sololá	4	Finca Santa Victoria	8	Agosto	2023-08-08T00:00:00	2024-11-08T12:00:00	7	Dirección del viento	4.83
123419	7	Sololá	701	Sololá	4	Finca Santa Victoria	8	Agosto	2023-08-08T00:00:00	2024-11-08T12:00:00	1	Precipitación	0
123420	7	Sololá	701	Sololá	4	Finca Santa Victoria	8	Agosto	2023-08-08T00:00:00	2024-11-08T12:00:00	8	Radiación solar	1060
123421	7	Sololá	701	Sololá	4	Finca Santa Victoria	8	Agosto	2023-08-08T00:00:00	2024-11-08T13:00:00	2	Temperatura media	23
123422	7	Sololá	701	Sololá	4	Finca Santa Victoria	8	Agosto	2023-08-08T00:00:00	2024-11-08T13:00:00	4	Temperatura máxima	23.1
123423	7	Sololá	701	Sololá	4	Finca Santa Victoria	8	Agosto	2023-08-08T00:00:00	2024-11-08T13:00:00	3	Temperatura mínima	22.3
123424	7	Sololá	701	Sololá	4	Finca Santa Victoria	8	Agosto	2023-08-08T00:00:00	2024-11-08T13:00:00	5	Humedad	58
123425	7	Sololá	701	Sololá	4	Finca Santa Victoria	8	Agosto	2023-08-08T00:00:00	2024-11-08T13:00:00	6	Velocidad del viento	4.8
123426	7	Sololá	701	Sololá	4	Finca Santa Victoria	8	Agosto	2023-08-08T00:00:00	2024-11-08T13:00:00	7	Dirección del viento	4.83
123427	7	Sololá	701	Sololá	4	Finca Santa Victoria	8	Agosto	2023-08-08T00:00:00	2024-11-08T13:00:00	1	Precipitación	0
123428	7	Sololá	701	Sololá	4	Finca Santa Victoria	8	Agosto	2023-08-08T00:00:00	2024-11-08T13:00:00	8	Radiación solar	753
123429	7	Sololá	701	Sololá	4	Finca Santa Victoria	8	Agosto	2023-08-08T00:00:00	2024-11-08T14:00:00	2	Temperatura media	22.6
123430	7	Sololá	701	Sololá	4	Finca Santa Victoria	8	Agosto	2023-08-08T00:00:00	2024-11-08T14:00:00	4	Temperatura máxima	23.6
123431	7	Sololá	701	Sololá	4	Finca Santa Victoria	8	Agosto	2023-08-08T00:00:00	2024-11-08T14:00:00	3	Temperatura mínima	22.1
123432	7	Sololá	701	Sololá	4	Finca Santa Victoria	8	Agosto	2023-08-08T00:00:00	2024-11-08T14:00:00	5	Humedad	63
123433	7	Sololá	701	Sololá	4	Finca Santa Victoria	8	Agosto	2023-08-08T00:00:00	2024-11-08T14:00:00	6	Velocidad del viento	4.8
123434	7	Sololá	701	Sololá	4	Finca Santa Victoria	8	Agosto	2023-08-08T00:00:00	2024-11-08T14:00:00	7	Dirección del viento	4.83
123435	7	Sololá	701	Sololá	4	Finca Santa Victoria	8	Agosto	2023-08-08T00:00:00	2024-11-08T14:00:00	1	Precipitación	0
123436	7	Sololá	701	Sololá	4	Finca Santa Victoria	8	Agosto	2023-08-08T00:00:00	2024-11-08T14:00:00	8	Radiación solar	159
123437	7	Sololá	701	Sololá	4	Finca Santa Victoria	8	Agosto	2023-08-08T00:00:00	2024-11-08T15:00:00	2	Temperatura media	19.8
123438	7	Sololá	701	Sololá	4	Finca Santa Victoria	8	Agosto	2023-08-08T00:00:00	2024-11-08T15:00:00	4	Temperatura máxima	23.1
123439	7	Sololá	701	Sololá	4	Finca Santa Victoria	8	Agosto	2023-08-08T00:00:00	2024-11-08T15:00:00	3	Temperatura mínima	19.7
123440	7	Sololá	701	Sololá	4	Finca Santa Victoria	8	Agosto	2023-08-08T00:00:00	2024-11-08T15:00:00	5	Humedad	82
123441	7	Sololá	701	Sololá	4	Finca Santa Victoria	8	Agosto	2023-08-08T00:00:00	2024-11-08T15:00:00	6	Velocidad del viento	3.2
123442	7	Sololá	701	Sololá	4	Finca Santa Victoria	8	Agosto	2023-08-08T00:00:00	2024-11-08T15:00:00	7	Dirección del viento	3.22
123443	7	Sololá	701	Sololá	4	Finca Santa Victoria	8	Agosto	2023-08-08T00:00:00	2024-11-08T15:00:00	1	Precipitación	0
123444	7	Sololá	701	Sololá	4	Finca Santa Victoria	8	Agosto	2023-08-08T00:00:00	2024-11-08T15:00:00	8	Radiación solar	160
123445	7	Sololá	701	Sololá	4	Finca Santa Victoria	8	Agosto	2023-08-08T00:00:00	2024-11-08T16:00:00	2	Temperatura media	19.1
123446	7	Sololá	701	Sololá	4	Finca Santa Victoria	8	Agosto	2023-08-08T00:00:00	2024-11-08T16:00:00	4	Temperatura máxima	19.9
123447	7	Sololá	701	Sololá	4	Finca Santa Victoria	8	Agosto	2023-08-08T00:00:00	2024-11-08T16:00:00	3	Temperatura mínima	19.1
123448	7	Sololá	701	Sololá	4	Finca Santa Victoria	8	Agosto	2023-08-08T00:00:00	2024-11-08T16:00:00	5	Humedad	87
123449	7	Sololá	701	Sololá	4	Finca Santa Victoria	8	Agosto	2023-08-08T00:00:00	2024-11-08T16:00:00	6	Velocidad del viento	1.6
123450	7	Sololá	701	Sololá	4	Finca Santa Victoria	8	Agosto	2023-08-08T00:00:00	2024-11-08T16:00:00	7	Dirección del viento	1.61
123451	7	Sololá	701	Sololá	4	Finca Santa Victoria	8	Agosto	2023-08-08T00:00:00	2024-11-08T16:00:00	1	Precipitación	0
123452	7	Sololá	701	Sololá	4	Finca Santa Victoria	8	Agosto	2023-08-08T00:00:00	2024-11-08T16:00:00	8	Radiación solar	74
123453	7	Sololá	701	Sololá	4	Finca Santa Victoria	8	Agosto	2023-08-08T00:00:00	2024-11-08T17:00:00	2	Temperatura media	18.3
123454	7	Sololá	701	Sololá	4	Finca Santa Victoria	8	Agosto	2023-08-08T00:00:00	2024-11-08T17:00:00	4	Temperatura máxima	19.2
123455	7	Sololá	701	Sololá	4	Finca Santa Victoria	8	Agosto	2023-08-08T00:00:00	2024-11-08T17:00:00	3	Temperatura mínima	18
123456	7	Sololá	701	Sololá	4	Finca Santa Victoria	8	Agosto	2023-08-08T00:00:00	2024-11-08T17:00:00	5	Humedad	81
123457	7	Sololá	701	Sololá	4	Finca Santa Victoria	8	Agosto	2023-08-08T00:00:00	2024-11-08T17:00:00	6	Velocidad del viento	1.6
123458	7	Sololá	701	Sololá	4	Finca Santa Victoria	8	Agosto	2023-08-08T00:00:00	2024-11-08T17:00:00	7	Dirección del viento	1.61
123459	7	Sololá	701	Sololá	4	Finca Santa Victoria	8	Agosto	2023-08-08T00:00:00	2024-11-08T17:00:00	1	Precipitación	0
123460	7	Sololá	701	Sololá	4	Finca Santa Victoria	8	Agosto	2023-08-08T00:00:00	2024-11-08T17:00:00	8	Radiación solar	37
123461	7	Sololá	701	Sololá	4	Finca Santa Victoria	8	Agosto	2023-08-08T00:00:00	2024-11-08T18:00:00	2	Temperatura media	17.8
123462	7	Sololá	701	Sololá	4	Finca Santa Victoria	8	Agosto	2023-08-08T00:00:00	2024-11-08T18:00:00	4	Temperatura máxima	19.7
123463	7	Sololá	701	Sololá	4	Finca Santa Victoria	8	Agosto	2023-08-08T00:00:00	2024-11-08T18:00:00	3	Temperatura mínima	17.8
123464	7	Sololá	701	Sololá	4	Finca Santa Victoria	8	Agosto	2023-08-08T00:00:00	2024-11-08T18:00:00	5	Humedad	90
123465	7	Sololá	701	Sololá	4	Finca Santa Victoria	8	Agosto	2023-08-08T00:00:00	2024-11-08T18:00:00	6	Velocidad del viento	1.6
123466	7	Sololá	701	Sololá	4	Finca Santa Victoria	8	Agosto	2023-08-08T00:00:00	2024-11-08T18:00:00	7	Dirección del viento	1.61
123467	7	Sololá	701	Sololá	4	Finca Santa Victoria	8	Agosto	2023-08-08T00:00:00	2024-11-08T18:00:00	1	Precipitación	0
123468	7	Sololá	701	Sololá	4	Finca Santa Victoria	8	Agosto	2023-08-08T00:00:00	2024-11-08T18:00:00	8	Radiación solar	35
123469	7	Sololá	701	Sololá	4	Finca Santa Victoria	8	Agosto	2023-08-08T00:00:00	2024-11-08T19:00:00	2	Temperatura media	16.2
123470	7	Sololá	701	Sololá	4	Finca Santa Victoria	8	Agosto	2023-08-08T00:00:00	2024-11-08T19:00:00	4	Temperatura máxima	17.8
123471	7	Sololá	701	Sololá	4	Finca Santa Victoria	8	Agosto	2023-08-08T00:00:00	2024-11-08T19:00:00	3	Temperatura mínima	16.1
123472	7	Sololá	701	Sololá	4	Finca Santa Victoria	8	Agosto	2023-08-08T00:00:00	2024-11-08T19:00:00	5	Humedad	77
123473	7	Sololá	701	Sololá	4	Finca Santa Victoria	8	Agosto	2023-08-08T00:00:00	2024-11-08T19:00:00	6	Velocidad del viento	1.6
123474	7	Sololá	701	Sololá	4	Finca Santa Victoria	8	Agosto	2023-08-08T00:00:00	2024-11-08T19:00:00	7	Dirección del viento	1.61
123475	7	Sololá	701	Sololá	4	Finca Santa Victoria	8	Agosto	2023-08-08T00:00:00	2024-11-08T19:00:00	1	Precipitación	0
123476	7	Sololá	701	Sololá	4	Finca Santa Victoria	8	Agosto	2023-08-08T00:00:00	2024-11-08T19:00:00	8	Radiación solar	0
123477	7	Sololá	701	Sololá	4	Finca Santa Victoria	8	Agosto	2023-08-08T00:00:00	2024-11-08T20:00:00	2	Temperatura media	15.3
123478	7	Sololá	701	Sololá	4	Finca Santa Victoria	8	Agosto	2023-08-08T00:00:00	2024-11-08T20:00:00	4	Temperatura máxima	16.3
123479	7	Sololá	701	Sololá	4	Finca Santa Victoria	8	Agosto	2023-08-08T00:00:00	2024-11-08T20:00:00	3	Temperatura mínima	15.3
123480	7	Sololá	701	Sololá	4	Finca Santa Victoria	8	Agosto	2023-08-08T00:00:00	2024-11-08T20:00:00	5	Humedad	83
123481	7	Sololá	701	Sololá	4	Finca Santa Victoria	8	Agosto	2023-08-08T00:00:00	2024-11-08T20:00:00	6	Velocidad del viento	1.6
123482	7	Sololá	701	Sololá	4	Finca Santa Victoria	8	Agosto	2023-08-08T00:00:00	2024-11-08T20:00:00	7	Dirección del viento	1.61
123483	7	Sololá	701	Sololá	4	Finca Santa Victoria	8	Agosto	2023-08-08T00:00:00	2024-11-08T20:00:00	1	Precipitación	0
123484	7	Sololá	701	Sololá	4	Finca Santa Victoria	8	Agosto	2023-08-08T00:00:00	2024-11-08T20:00:00	8	Radiación solar	0
123485	7	Sololá	701	Sololá	4	Finca Santa Victoria	8	Agosto	2023-08-08T00:00:00	2024-11-08T21:00:00	2	Temperatura media	14.4
123486	7	Sololá	701	Sololá	4	Finca Santa Victoria	8	Agosto	2023-08-08T00:00:00	2024-11-08T21:00:00	4	Temperatura máxima	15.3
123487	7	Sololá	701	Sololá	4	Finca Santa Victoria	8	Agosto	2023-08-08T00:00:00	2024-11-08T21:00:00	3	Temperatura mínima	14.3
123488	7	Sololá	701	Sololá	4	Finca Santa Victoria	8	Agosto	2023-08-08T00:00:00	2024-11-08T21:00:00	5	Humedad	91
123489	7	Sololá	701	Sololá	4	Finca Santa Victoria	8	Agosto	2023-08-08T00:00:00	2024-11-08T21:00:00	6	Velocidad del viento	0
123490	7	Sololá	701	Sololá	4	Finca Santa Victoria	8	Agosto	2023-08-08T00:00:00	2024-11-08T21:00:00	7	Dirección del viento	0
123491	7	Sololá	701	Sololá	4	Finca Santa Victoria	8	Agosto	2023-08-08T00:00:00	2024-11-08T21:00:00	1	Precipitación	0
123492	7	Sololá	701	Sololá	4	Finca Santa Victoria	8	Agosto	2023-08-08T00:00:00	2024-11-08T21:00:00	8	Radiación solar	0
123493	7	Sololá	701	Sololá	4	Finca Santa Victoria	8	Agosto	2023-08-08T00:00:00	2024-11-08T22:00:00	2	Temperatura media	14.2
123494	7	Sololá	701	Sololá	4	Finca Santa Victoria	8	Agosto	2023-08-08T00:00:00	2024-11-08T22:00:00	4	Temperatura máxima	14.4
123495	7	Sololá	701	Sololá	4	Finca Santa Victoria	8	Agosto	2023-08-08T00:00:00	2024-11-08T22:00:00	3	Temperatura mínima	13.9
123496	7	Sololá	701	Sololá	4	Finca Santa Victoria	8	Agosto	2023-08-08T00:00:00	2024-11-08T22:00:00	5	Humedad	87
123497	7	Sololá	701	Sololá	4	Finca Santa Victoria	8	Agosto	2023-08-08T00:00:00	2024-11-08T22:00:00	6	Velocidad del viento	1.6
123498	7	Sololá	701	Sololá	4	Finca Santa Victoria	8	Agosto	2023-08-08T00:00:00	2024-11-08T22:00:00	7	Dirección del viento	1.61
123499	7	Sololá	701	Sololá	4	Finca Santa Victoria	8	Agosto	2023-08-08T00:00:00	2024-11-08T22:00:00	1	Precipitación	0
123500	7	Sololá	701	Sololá	4	Finca Santa Victoria	8	Agosto	2023-08-08T00:00:00	2024-11-08T22:00:00	8	Radiación solar	0
123501	7	Sololá	701	Sololá	4	Finca Santa Victoria	8	Agosto	2023-08-08T00:00:00	2024-11-08T23:00:00	2	Temperatura media	14.6
123502	7	Sololá	701	Sololá	4	Finca Santa Victoria	8	Agosto	2023-08-08T00:00:00	2024-11-08T23:00:00	4	Temperatura máxima	14.8
123503	7	Sololá	701	Sololá	4	Finca Santa Victoria	8	Agosto	2023-08-08T00:00:00	2024-11-08T23:00:00	3	Temperatura mínima	14.2
123504	7	Sololá	701	Sololá	4	Finca Santa Victoria	8	Agosto	2023-08-08T00:00:00	2024-11-08T23:00:00	5	Humedad	87
123505	7	Sololá	701	Sololá	4	Finca Santa Victoria	8	Agosto	2023-08-08T00:00:00	2024-11-08T23:00:00	6	Velocidad del viento	1.6
123506	7	Sololá	701	Sololá	4	Finca Santa Victoria	8	Agosto	2023-08-08T00:00:00	2024-11-08T23:00:00	7	Dirección del viento	1.61
123507	7	Sololá	701	Sololá	4	Finca Santa Victoria	8	Agosto	2023-08-08T00:00:00	2024-11-08T23:00:00	1	Precipitación	0
123508	7	Sololá	701	Sololá	4	Finca Santa Victoria	8	Agosto	2023-08-08T00:00:00	2024-11-08T23:00:00	8	Radiación solar	0
123509	7	Sololá	701	Sololá	4	Finca Santa Victoria	8	Agosto	2023-09-08T00:00:00	2024-11-08T00:00:00	2	Temperatura media	13.8
123510	7	Sololá	701	Sololá	4	Finca Santa Victoria	8	Agosto	2023-09-08T00:00:00	2024-11-08T00:00:00	4	Temperatura máxima	14.6
123511	7	Sololá	701	Sololá	4	Finca Santa Victoria	8	Agosto	2023-09-08T00:00:00	2024-11-08T00:00:00	3	Temperatura mínima	13.7
123512	7	Sololá	701	Sololá	4	Finca Santa Victoria	8	Agosto	2023-09-08T00:00:00	2024-11-08T00:00:00	5	Humedad	90
123513	7	Sololá	701	Sololá	4	Finca Santa Victoria	8	Agosto	2023-09-08T00:00:00	2024-11-08T00:00:00	6	Velocidad del viento	0
123514	7	Sololá	701	Sololá	4	Finca Santa Victoria	8	Agosto	2023-09-08T00:00:00	2024-11-08T00:00:00	7	Dirección del viento	0
123515	7	Sololá	701	Sololá	4	Finca Santa Victoria	8	Agosto	2023-09-08T00:00:00	2024-11-08T00:00:00	1	Precipitación	0
123516	7	Sololá	701	Sololá	4	Finca Santa Victoria	8	Agosto	2023-09-08T00:00:00	2024-11-08T00:00:00	8	Radiación solar	0
123517	7	Sololá	701	Sololá	4	Finca Santa Victoria	8	Agosto	2023-09-08T00:00:00	2024-11-08T01:00:00	2	Temperatura media	13.9
123518	7	Sololá	701	Sololá	4	Finca Santa Victoria	8	Agosto	2023-09-08T00:00:00	2024-11-08T01:00:00	4	Temperatura máxima	14.1
123519	7	Sololá	701	Sololá	4	Finca Santa Victoria	8	Agosto	2023-09-08T00:00:00	2024-11-08T01:00:00	3	Temperatura mínima	13.8
123520	7	Sololá	701	Sololá	4	Finca Santa Victoria	8	Agosto	2023-09-08T00:00:00	2024-11-08T01:00:00	5	Humedad	89
123521	7	Sololá	701	Sololá	4	Finca Santa Victoria	8	Agosto	2023-09-08T00:00:00	2024-11-08T01:00:00	6	Velocidad del viento	0
123522	7	Sololá	701	Sololá	4	Finca Santa Victoria	8	Agosto	2023-09-08T00:00:00	2024-11-08T01:00:00	7	Dirección del viento	0
123523	7	Sololá	701	Sololá	4	Finca Santa Victoria	8	Agosto	2023-09-08T00:00:00	2024-11-08T01:00:00	1	Precipitación	0
123524	7	Sololá	701	Sololá	4	Finca Santa Victoria	8	Agosto	2023-09-08T00:00:00	2024-11-08T01:00:00	8	Radiación solar	0
123525	7	Sololá	701	Sololá	4	Finca Santa Victoria	8	Agosto	2023-09-08T00:00:00	2024-11-08T02:00:00	2	Temperatura media	13.6
123526	7	Sololá	701	Sololá	4	Finca Santa Victoria	8	Agosto	2023-09-08T00:00:00	2024-11-08T02:00:00	4	Temperatura máxima	14.1
123527	7	Sololá	701	Sololá	4	Finca Santa Victoria	8	Agosto	2023-09-08T00:00:00	2024-11-08T02:00:00	3	Temperatura mínima	13.6
123528	7	Sololá	701	Sololá	4	Finca Santa Victoria	8	Agosto	2023-09-08T00:00:00	2024-11-08T02:00:00	5	Humedad	90
123529	7	Sololá	701	Sololá	4	Finca Santa Victoria	8	Agosto	2023-09-08T00:00:00	2024-11-08T02:00:00	6	Velocidad del viento	0
123530	7	Sololá	701	Sololá	4	Finca Santa Victoria	8	Agosto	2023-09-08T00:00:00	2024-11-08T02:00:00	7	Dirección del viento	0
123531	7	Sololá	701	Sololá	4	Finca Santa Victoria	8	Agosto	2023-09-08T00:00:00	2024-11-08T02:00:00	1	Precipitación	0
123532	7	Sololá	701	Sololá	4	Finca Santa Victoria	8	Agosto	2023-09-08T00:00:00	2024-11-08T02:00:00	8	Radiación solar	0
123533	7	Sololá	701	Sololá	4	Finca Santa Victoria	8	Agosto	2023-09-08T00:00:00	2024-11-08T03:00:00	2	Temperatura media	13.9
123534	7	Sololá	701	Sololá	4	Finca Santa Victoria	8	Agosto	2023-09-08T00:00:00	2024-11-08T03:00:00	4	Temperatura máxima	13.9
123535	7	Sololá	701	Sololá	4	Finca Santa Victoria	8	Agosto	2023-09-08T00:00:00	2024-11-08T03:00:00	3	Temperatura mínima	13.2
123536	7	Sololá	701	Sololá	4	Finca Santa Victoria	8	Agosto	2023-09-08T00:00:00	2024-11-08T03:00:00	5	Humedad	90
123537	7	Sololá	701	Sololá	4	Finca Santa Victoria	8	Agosto	2023-09-08T00:00:00	2024-11-08T03:00:00	6	Velocidad del viento	1.6
123538	7	Sololá	701	Sololá	4	Finca Santa Victoria	8	Agosto	2023-09-08T00:00:00	2024-11-08T03:00:00	7	Dirección del viento	1.61
123539	7	Sololá	701	Sololá	4	Finca Santa Victoria	8	Agosto	2023-09-08T00:00:00	2024-11-08T03:00:00	1	Precipitación	0
123540	7	Sololá	701	Sololá	4	Finca Santa Victoria	8	Agosto	2023-09-08T00:00:00	2024-11-08T03:00:00	8	Radiación solar	0
123541	7	Sololá	701	Sololá	4	Finca Santa Victoria	8	Agosto	2023-09-08T00:00:00	2024-11-08T04:00:00	2	Temperatura media	14.2
123542	7	Sololá	701	Sololá	4	Finca Santa Victoria	8	Agosto	2023-09-08T00:00:00	2024-11-08T04:00:00	4	Temperatura máxima	14.3
123543	7	Sololá	701	Sololá	4	Finca Santa Victoria	8	Agosto	2023-09-08T00:00:00	2024-11-08T04:00:00	3	Temperatura mínima	13.8
123544	7	Sololá	701	Sololá	4	Finca Santa Victoria	8	Agosto	2023-09-08T00:00:00	2024-11-08T04:00:00	5	Humedad	88
123545	7	Sololá	701	Sololá	4	Finca Santa Victoria	8	Agosto	2023-09-08T00:00:00	2024-11-08T04:00:00	6	Velocidad del viento	1.6
123546	7	Sololá	701	Sololá	4	Finca Santa Victoria	8	Agosto	2023-09-08T00:00:00	2024-11-08T04:00:00	7	Dirección del viento	1.61
123547	7	Sololá	701	Sololá	4	Finca Santa Victoria	8	Agosto	2023-09-08T00:00:00	2024-11-08T04:00:00	1	Precipitación	0
123548	7	Sololá	701	Sololá	4	Finca Santa Victoria	8	Agosto	2023-09-08T00:00:00	2024-11-08T04:00:00	8	Radiación solar	0
123549	7	Sololá	701	Sololá	4	Finca Santa Victoria	8	Agosto	2023-09-08T00:00:00	2024-11-08T05:00:00	2	Temperatura media	13.7
123550	7	Sololá	701	Sololá	4	Finca Santa Victoria	8	Agosto	2023-09-08T00:00:00	2024-11-08T05:00:00	4	Temperatura máxima	14.2
123551	7	Sololá	701	Sololá	4	Finca Santa Victoria	8	Agosto	2023-09-08T00:00:00	2024-11-08T05:00:00	3	Temperatura mínima	13.7
123552	7	Sololá	701	Sololá	4	Finca Santa Victoria	8	Agosto	2023-09-08T00:00:00	2024-11-08T05:00:00	5	Humedad	89
123553	7	Sololá	701	Sololá	4	Finca Santa Victoria	8	Agosto	2023-09-08T00:00:00	2024-11-08T05:00:00	6	Velocidad del viento	1.6
123554	7	Sololá	701	Sololá	4	Finca Santa Victoria	8	Agosto	2023-09-08T00:00:00	2024-11-08T05:00:00	7	Dirección del viento	1.61
123555	7	Sololá	701	Sololá	4	Finca Santa Victoria	8	Agosto	2023-09-08T00:00:00	2024-11-08T05:00:00	1	Precipitación	0
123556	7	Sololá	701	Sololá	4	Finca Santa Victoria	8	Agosto	2023-09-08T00:00:00	2024-11-08T05:00:00	8	Radiación solar	0
123557	7	Sololá	701	Sololá	4	Finca Santa Victoria	8	Agosto	2023-09-08T00:00:00	2024-11-08T06:00:00	2	Temperatura media	12.5
123558	7	Sololá	701	Sololá	4	Finca Santa Victoria	8	Agosto	2023-09-08T00:00:00	2024-11-08T06:00:00	4	Temperatura máxima	13.7
123559	7	Sololá	701	Sololá	4	Finca Santa Victoria	8	Agosto	2023-09-08T00:00:00	2024-11-08T06:00:00	3	Temperatura mínima	12.5
123560	7	Sololá	701	Sololá	4	Finca Santa Victoria	8	Agosto	2023-09-08T00:00:00	2024-11-08T06:00:00	5	Humedad	93
123561	7	Sololá	701	Sololá	4	Finca Santa Victoria	8	Agosto	2023-09-08T00:00:00	2024-11-08T06:00:00	6	Velocidad del viento	0
123562	7	Sololá	701	Sololá	4	Finca Santa Victoria	8	Agosto	2023-09-08T00:00:00	2024-11-08T06:00:00	7	Dirección del viento	0
123563	7	Sololá	701	Sololá	4	Finca Santa Victoria	8	Agosto	2023-09-08T00:00:00	2024-11-08T06:00:00	1	Precipitación	0
123564	7	Sololá	701	Sololá	4	Finca Santa Victoria	8	Agosto	2023-09-08T00:00:00	2024-11-08T06:00:00	8	Radiación solar	0
123565	7	Sololá	701	Sololá	4	Finca Santa Victoria	8	Agosto	2023-09-08T00:00:00	2024-11-08T07:00:00	2	Temperatura media	13.2
123566	7	Sololá	701	Sololá	4	Finca Santa Victoria	8	Agosto	2023-09-08T00:00:00	2024-11-08T07:00:00	4	Temperatura máxima	13.2
123567	7	Sololá	701	Sololá	4	Finca Santa Victoria	8	Agosto	2023-09-08T00:00:00	2024-11-08T07:00:00	3	Temperatura mínima	12.4
123568	7	Sololá	701	Sololá	4	Finca Santa Victoria	8	Agosto	2023-09-08T00:00:00	2024-11-08T07:00:00	5	Humedad	95
123569	7	Sololá	701	Sololá	4	Finca Santa Victoria	8	Agosto	2023-09-08T00:00:00	2024-11-08T07:00:00	6	Velocidad del viento	1.6
123570	7	Sololá	701	Sololá	4	Finca Santa Victoria	8	Agosto	2023-09-08T00:00:00	2024-11-08T07:00:00	7	Dirección del viento	1.61
123571	7	Sololá	701	Sololá	4	Finca Santa Victoria	8	Agosto	2023-09-08T00:00:00	2024-11-08T07:00:00	1	Precipitación	0
123572	7	Sololá	701	Sololá	4	Finca Santa Victoria	8	Agosto	2023-09-08T00:00:00	2024-11-08T07:00:00	8	Radiación solar	15
123573	7	Sololá	701	Sololá	4	Finca Santa Victoria	8	Agosto	2023-09-08T00:00:00	2024-11-08T08:00:00	2	Temperatura media	17.8
123574	7	Sololá	701	Sololá	4	Finca Santa Victoria	8	Agosto	2023-09-08T00:00:00	2024-11-08T08:00:00	4	Temperatura máxima	17.8
123575	7	Sololá	701	Sololá	4	Finca Santa Victoria	8	Agosto	2023-09-08T00:00:00	2024-11-08T08:00:00	3	Temperatura mínima	13.1
123576	7	Sololá	701	Sololá	4	Finca Santa Victoria	8	Agosto	2023-09-08T00:00:00	2024-11-08T08:00:00	5	Humedad	68
123577	7	Sololá	701	Sololá	4	Finca Santa Victoria	8	Agosto	2023-09-08T00:00:00	2024-11-08T08:00:00	6	Velocidad del viento	0
123578	7	Sololá	701	Sololá	4	Finca Santa Victoria	8	Agosto	2023-09-08T00:00:00	2024-11-08T08:00:00	7	Dirección del viento	0
123579	7	Sololá	701	Sololá	4	Finca Santa Victoria	8	Agosto	2023-09-08T00:00:00	2024-11-08T08:00:00	1	Precipitación	0
123580	7	Sololá	701	Sololá	4	Finca Santa Victoria	8	Agosto	2023-09-08T00:00:00	2024-11-08T08:00:00	8	Radiación solar	241
123581	7	Sololá	701	Sololá	4	Finca Santa Victoria	8	Agosto	2023-09-08T00:00:00	2024-11-08T09:00:00	2	Temperatura media	19.1
123582	7	Sololá	701	Sololá	4	Finca Santa Victoria	8	Agosto	2023-09-08T00:00:00	2024-11-08T09:00:00	4	Temperatura máxima	19.6
123583	7	Sololá	701	Sololá	4	Finca Santa Victoria	8	Agosto	2023-09-08T00:00:00	2024-11-08T09:00:00	3	Temperatura mínima	17.8
123584	7	Sololá	701	Sololá	4	Finca Santa Victoria	8	Agosto	2023-09-08T00:00:00	2024-11-08T09:00:00	5	Humedad	67
123585	7	Sololá	701	Sololá	4	Finca Santa Victoria	8	Agosto	2023-09-08T00:00:00	2024-11-08T09:00:00	6	Velocidad del viento	1.6
123586	7	Sololá	701	Sololá	4	Finca Santa Victoria	8	Agosto	2023-09-08T00:00:00	2024-11-08T09:00:00	7	Dirección del viento	1.61
123587	7	Sololá	701	Sololá	4	Finca Santa Victoria	8	Agosto	2023-09-08T00:00:00	2024-11-08T09:00:00	1	Precipitación	0
123588	7	Sololá	701	Sololá	4	Finca Santa Victoria	8	Agosto	2023-09-08T00:00:00	2024-11-08T09:00:00	8	Radiación solar	385
123589	7	Sololá	701	Sololá	4	Finca Santa Victoria	8	Agosto	2023-09-08T00:00:00	2024-11-08T10:00:00	2	Temperatura media	19.7
123590	7	Sololá	701	Sololá	4	Finca Santa Victoria	8	Agosto	2023-09-08T00:00:00	2024-11-08T10:00:00	4	Temperatura máxima	19.8
123591	7	Sololá	701	Sololá	4	Finca Santa Victoria	8	Agosto	2023-09-08T00:00:00	2024-11-08T10:00:00	3	Temperatura mínima	18.9
123592	7	Sololá	701	Sololá	4	Finca Santa Victoria	8	Agosto	2023-09-08T00:00:00	2024-11-08T10:00:00	5	Humedad	68
123593	7	Sololá	701	Sololá	4	Finca Santa Victoria	8	Agosto	2023-09-08T00:00:00	2024-11-08T10:00:00	6	Velocidad del viento	3.2
123594	7	Sololá	701	Sololá	4	Finca Santa Victoria	8	Agosto	2023-09-08T00:00:00	2024-11-08T10:00:00	7	Dirección del viento	3.22
123595	7	Sololá	701	Sololá	4	Finca Santa Victoria	8	Agosto	2023-09-08T00:00:00	2024-11-08T10:00:00	1	Precipitación	0
123596	7	Sololá	701	Sololá	4	Finca Santa Victoria	8	Agosto	2023-09-08T00:00:00	2024-11-08T10:00:00	8	Radiación solar	301
123597	7	Sololá	701	Sololá	4	Finca Santa Victoria	8	Agosto	2023-09-08T00:00:00	2024-11-08T11:00:00	2	Temperatura media	20.3
123598	7	Sololá	701	Sololá	4	Finca Santa Victoria	8	Agosto	2023-09-08T00:00:00	2024-11-08T11:00:00	4	Temperatura máxima	20.5
123599	7	Sololá	701	Sololá	4	Finca Santa Victoria	8	Agosto	2023-09-08T00:00:00	2024-11-08T11:00:00	3	Temperatura mínima	19.6
123600	7	Sololá	701	Sololá	4	Finca Santa Victoria	8	Agosto	2023-09-08T00:00:00	2024-11-08T11:00:00	5	Humedad	73
123601	7	Sololá	701	Sololá	4	Finca Santa Victoria	8	Agosto	2023-09-08T00:00:00	2024-11-08T11:00:00	6	Velocidad del viento	3.2
123602	7	Sololá	701	Sololá	4	Finca Santa Victoria	8	Agosto	2023-09-08T00:00:00	2024-11-08T11:00:00	7	Dirección del viento	3.22
123603	7	Sololá	701	Sololá	4	Finca Santa Victoria	8	Agosto	2023-09-08T00:00:00	2024-11-08T11:00:00	1	Precipitación	0
123604	7	Sololá	701	Sololá	4	Finca Santa Victoria	8	Agosto	2023-09-08T00:00:00	2024-11-08T11:00:00	8	Radiación solar	202
123605	7	Sololá	701	Sololá	4	Finca Santa Victoria	8	Agosto	2023-09-08T00:00:00	2024-11-08T12:00:00	2	Temperatura media	19.8
123606	7	Sololá	701	Sololá	4	Finca Santa Victoria	8	Agosto	2023-09-08T00:00:00	2024-11-08T12:00:00	4	Temperatura máxima	21.1
123607	7	Sololá	701	Sololá	4	Finca Santa Victoria	8	Agosto	2023-09-08T00:00:00	2024-11-08T12:00:00	3	Temperatura mínima	19.8
123608	7	Sololá	701	Sololá	4	Finca Santa Victoria	8	Agosto	2023-09-08T00:00:00	2024-11-08T12:00:00	5	Humedad	77
123609	7	Sololá	701	Sololá	4	Finca Santa Victoria	8	Agosto	2023-09-08T00:00:00	2024-11-08T12:00:00	6	Velocidad del viento	3.2
123610	7	Sololá	701	Sololá	4	Finca Santa Victoria	8	Agosto	2023-09-08T00:00:00	2024-11-08T12:00:00	7	Dirección del viento	3.22
123611	7	Sololá	701	Sololá	4	Finca Santa Victoria	8	Agosto	2023-09-08T00:00:00	2024-11-08T12:00:00	1	Precipitación	0
123612	7	Sololá	701	Sololá	4	Finca Santa Victoria	8	Agosto	2023-09-08T00:00:00	2024-11-08T12:00:00	8	Radiación solar	356
123613	7	Sololá	701	Sololá	4	Finca Santa Victoria	8	Agosto	2023-09-08T00:00:00	2024-11-08T13:00:00	2	Temperatura media	21.1
123614	7	Sololá	701	Sololá	4	Finca Santa Victoria	8	Agosto	2023-09-08T00:00:00	2024-11-08T13:00:00	4	Temperatura máxima	21.3
123615	7	Sololá	701	Sololá	4	Finca Santa Victoria	8	Agosto	2023-09-08T00:00:00	2024-11-08T13:00:00	3	Temperatura mínima	19.5
123616	7	Sololá	701	Sololá	4	Finca Santa Victoria	8	Agosto	2023-09-08T00:00:00	2024-11-08T13:00:00	5	Humedad	81
123617	7	Sololá	701	Sololá	4	Finca Santa Victoria	8	Agosto	2023-09-08T00:00:00	2024-11-08T13:00:00	6	Velocidad del viento	4.8
123618	7	Sololá	701	Sololá	4	Finca Santa Victoria	8	Agosto	2023-09-08T00:00:00	2024-11-08T13:00:00	7	Dirección del viento	4.83
123619	7	Sololá	701	Sololá	4	Finca Santa Victoria	8	Agosto	2023-09-08T00:00:00	2024-11-08T13:00:00	1	Precipitación	0
123620	7	Sololá	701	Sololá	4	Finca Santa Victoria	8	Agosto	2023-09-08T00:00:00	2024-11-08T13:00:00	8	Radiación solar	420
123621	7	Sololá	701	Sololá	4	Finca Santa Victoria	8	Agosto	2023-09-08T00:00:00	2024-11-08T14:00:00	2	Temperatura media	18.4
123622	7	Sololá	701	Sololá	4	Finca Santa Victoria	8	Agosto	2023-09-08T00:00:00	2024-11-08T14:00:00	4	Temperatura máxima	21.1
123623	7	Sololá	701	Sololá	4	Finca Santa Victoria	8	Agosto	2023-09-08T00:00:00	2024-11-08T14:00:00	3	Temperatura mínima	18.3
123624	7	Sololá	701	Sololá	4	Finca Santa Victoria	8	Agosto	2023-09-08T00:00:00	2024-11-08T14:00:00	5	Humedad	90
123625	7	Sololá	701	Sololá	4	Finca Santa Victoria	8	Agosto	2023-09-08T00:00:00	2024-11-08T14:00:00	6	Velocidad del viento	4.8
123626	7	Sololá	701	Sololá	4	Finca Santa Victoria	8	Agosto	2023-09-08T00:00:00	2024-11-08T14:00:00	7	Dirección del viento	4.83
123627	7	Sololá	701	Sololá	4	Finca Santa Victoria	8	Agosto	2023-09-08T00:00:00	2024-11-08T14:00:00	1	Precipitación	0
123628	7	Sololá	701	Sololá	4	Finca Santa Victoria	8	Agosto	2023-09-08T00:00:00	2024-11-08T14:00:00	8	Radiación solar	129
123629	7	Sololá	701	Sololá	4	Finca Santa Victoria	8	Agosto	2023-09-08T00:00:00	2024-11-08T15:00:00	2	Temperatura media	16.9
123630	7	Sololá	701	Sololá	4	Finca Santa Victoria	8	Agosto	2023-09-08T00:00:00	2024-11-08T15:00:00	4	Temperatura máxima	18.4
123631	7	Sololá	701	Sololá	4	Finca Santa Victoria	8	Agosto	2023-09-08T00:00:00	2024-11-08T15:00:00	3	Temperatura mínima	16.8
123632	7	Sololá	701	Sololá	4	Finca Santa Victoria	8	Agosto	2023-09-08T00:00:00	2024-11-08T15:00:00	5	Humedad	95
123633	7	Sololá	701	Sololá	4	Finca Santa Victoria	8	Agosto	2023-09-08T00:00:00	2024-11-08T15:00:00	6	Velocidad del viento	3.2
123634	7	Sololá	701	Sololá	4	Finca Santa Victoria	8	Agosto	2023-09-08T00:00:00	2024-11-08T15:00:00	7	Dirección del viento	3.22
123635	7	Sololá	701	Sololá	4	Finca Santa Victoria	8	Agosto	2023-09-08T00:00:00	2024-11-08T15:00:00	1	Precipitación	3.2
123636	7	Sololá	701	Sololá	4	Finca Santa Victoria	8	Agosto	2023-09-08T00:00:00	2024-11-08T15:00:00	8	Radiación solar	48
123637	7	Sololá	701	Sololá	4	Finca Santa Victoria	8	Agosto	2023-09-08T00:00:00	2024-11-08T16:00:00	2	Temperatura media	16.4
123638	7	Sololá	701	Sololá	4	Finca Santa Victoria	8	Agosto	2023-09-08T00:00:00	2024-11-08T16:00:00	4	Temperatura máxima	17.1
123639	7	Sololá	701	Sololá	4	Finca Santa Victoria	8	Agosto	2023-09-08T00:00:00	2024-11-08T16:00:00	3	Temperatura mínima	16.2
123640	7	Sololá	701	Sololá	4	Finca Santa Victoria	8	Agosto	2023-09-08T00:00:00	2024-11-08T16:00:00	5	Humedad	95
123641	7	Sololá	701	Sololá	4	Finca Santa Victoria	8	Agosto	2023-09-08T00:00:00	2024-11-08T16:00:00	6	Velocidad del viento	1.6
123642	7	Sololá	701	Sololá	4	Finca Santa Victoria	8	Agosto	2023-09-08T00:00:00	2024-11-08T16:00:00	7	Dirección del viento	1.61
123643	7	Sololá	701	Sololá	4	Finca Santa Victoria	8	Agosto	2023-09-08T00:00:00	2024-11-08T16:00:00	1	Precipitación	0.2
123644	7	Sololá	701	Sololá	4	Finca Santa Victoria	8	Agosto	2023-09-08T00:00:00	2024-11-08T16:00:00	8	Radiación solar	73
123645	7	Sololá	701	Sololá	4	Finca Santa Victoria	8	Agosto	2023-09-08T00:00:00	2024-11-08T17:00:00	2	Temperatura media	16.3
123646	7	Sololá	701	Sololá	4	Finca Santa Victoria	8	Agosto	2023-09-08T00:00:00	2024-11-08T17:00:00	4	Temperatura máxima	17.2
123647	7	Sololá	701	Sololá	4	Finca Santa Victoria	8	Agosto	2023-09-08T00:00:00	2024-11-08T17:00:00	3	Temperatura mínima	16.3
123648	7	Sololá	701	Sololá	4	Finca Santa Victoria	8	Agosto	2023-09-08T00:00:00	2024-11-08T17:00:00	5	Humedad	96
123649	7	Sololá	701	Sololá	4	Finca Santa Victoria	8	Agosto	2023-09-08T00:00:00	2024-11-08T17:00:00	6	Velocidad del viento	1.6
123650	7	Sololá	701	Sololá	4	Finca Santa Victoria	8	Agosto	2023-09-08T00:00:00	2024-11-08T17:00:00	7	Dirección del viento	1.61
123651	7	Sololá	701	Sololá	4	Finca Santa Victoria	8	Agosto	2023-09-08T00:00:00	2024-11-08T17:00:00	1	Precipitación	4
123652	7	Sololá	701	Sololá	4	Finca Santa Victoria	8	Agosto	2023-09-08T00:00:00	2024-11-08T17:00:00	8	Radiación solar	109
123653	7	Sololá	701	Sololá	4	Finca Santa Victoria	8	Agosto	2023-09-08T00:00:00	2024-11-08T18:00:00	2	Temperatura media	16
123654	7	Sololá	701	Sololá	4	Finca Santa Victoria	8	Agosto	2023-09-08T00:00:00	2024-11-08T18:00:00	4	Temperatura máxima	16.3
123655	7	Sololá	701	Sololá	4	Finca Santa Victoria	8	Agosto	2023-09-08T00:00:00	2024-11-08T18:00:00	3	Temperatura mínima	16
123656	7	Sololá	701	Sololá	4	Finca Santa Victoria	8	Agosto	2023-09-08T00:00:00	2024-11-08T18:00:00	5	Humedad	97
123657	7	Sololá	701	Sololá	4	Finca Santa Victoria	8	Agosto	2023-09-08T00:00:00	2024-11-08T18:00:00	6	Velocidad del viento	0
123658	7	Sololá	701	Sololá	4	Finca Santa Victoria	8	Agosto	2023-09-08T00:00:00	2024-11-08T18:00:00	7	Dirección del viento	0
123659	7	Sololá	701	Sololá	4	Finca Santa Victoria	8	Agosto	2023-09-08T00:00:00	2024-11-08T18:00:00	1	Precipitación	0.6
123660	7	Sololá	701	Sololá	4	Finca Santa Victoria	8	Agosto	2023-09-08T00:00:00	2024-11-08T18:00:00	8	Radiación solar	29
123661	7	Sololá	701	Sololá	4	Finca Santa Victoria	8	Agosto	2023-09-08T00:00:00	2024-11-08T19:00:00	2	Temperatura media	15.2
123662	7	Sololá	701	Sololá	4	Finca Santa Victoria	8	Agosto	2023-09-08T00:00:00	2024-11-08T19:00:00	4	Temperatura máxima	16.1
123663	7	Sololá	701	Sololá	4	Finca Santa Victoria	8	Agosto	2023-09-08T00:00:00	2024-11-08T19:00:00	3	Temperatura mínima	15.2
123664	7	Sololá	701	Sololá	4	Finca Santa Victoria	8	Agosto	2023-09-08T00:00:00	2024-11-08T19:00:00	5	Humedad	97
123665	7	Sololá	701	Sololá	4	Finca Santa Victoria	8	Agosto	2023-09-08T00:00:00	2024-11-08T19:00:00	6	Velocidad del viento	1.6
123666	7	Sololá	701	Sololá	4	Finca Santa Victoria	8	Agosto	2023-09-08T00:00:00	2024-11-08T19:00:00	7	Dirección del viento	1.61
123667	7	Sololá	701	Sololá	4	Finca Santa Victoria	8	Agosto	2023-09-08T00:00:00	2024-11-08T19:00:00	1	Precipitación	0
123668	7	Sololá	701	Sololá	4	Finca Santa Victoria	8	Agosto	2023-09-08T00:00:00	2024-11-08T19:00:00	8	Radiación solar	0
123669	7	Sololá	701	Sololá	4	Finca Santa Victoria	8	Agosto	2023-09-08T00:00:00	2024-11-08T20:00:00	2	Temperatura media	14.3
123670	7	Sololá	701	Sololá	4	Finca Santa Victoria	8	Agosto	2023-09-08T00:00:00	2024-11-08T20:00:00	4	Temperatura máxima	15.2
123671	7	Sololá	701	Sololá	4	Finca Santa Victoria	8	Agosto	2023-09-08T00:00:00	2024-11-08T20:00:00	3	Temperatura mínima	14.3
123672	7	Sololá	701	Sololá	4	Finca Santa Victoria	8	Agosto	2023-09-08T00:00:00	2024-11-08T20:00:00	5	Humedad	96
123673	7	Sololá	701	Sololá	4	Finca Santa Victoria	8	Agosto	2023-09-08T00:00:00	2024-11-08T20:00:00	6	Velocidad del viento	0
123674	7	Sololá	701	Sololá	4	Finca Santa Victoria	8	Agosto	2023-09-08T00:00:00	2024-11-08T20:00:00	7	Dirección del viento	0
123675	7	Sololá	701	Sololá	4	Finca Santa Victoria	8	Agosto	2023-09-08T00:00:00	2024-11-08T20:00:00	1	Precipitación	0
123676	7	Sololá	701	Sololá	4	Finca Santa Victoria	8	Agosto	2023-09-08T00:00:00	2024-11-08T20:00:00	8	Radiación solar	0
123677	7	Sololá	701	Sololá	4	Finca Santa Victoria	8	Agosto	2023-09-08T00:00:00	2024-11-08T21:00:00	2	Temperatura media	13.7
123678	7	Sololá	701	Sololá	4	Finca Santa Victoria	8	Agosto	2023-09-08T00:00:00	2024-11-08T21:00:00	4	Temperatura máxima	14.3
123679	7	Sololá	701	Sololá	4	Finca Santa Victoria	8	Agosto	2023-09-08T00:00:00	2024-11-08T21:00:00	3	Temperatura mínima	13.7
123680	7	Sololá	701	Sololá	4	Finca Santa Victoria	8	Agosto	2023-09-08T00:00:00	2024-11-08T21:00:00	5	Humedad	94
123681	7	Sololá	701	Sololá	4	Finca Santa Victoria	8	Agosto	2023-09-08T00:00:00	2024-11-08T21:00:00	6	Velocidad del viento	1.6
123682	7	Sololá	701	Sololá	4	Finca Santa Victoria	8	Agosto	2023-09-08T00:00:00	2024-11-08T21:00:00	7	Dirección del viento	1.61
123683	7	Sololá	701	Sololá	4	Finca Santa Victoria	8	Agosto	2023-09-08T00:00:00	2024-11-08T21:00:00	1	Precipitación	0
123684	7	Sololá	701	Sololá	4	Finca Santa Victoria	8	Agosto	2023-09-08T00:00:00	2024-11-08T21:00:00	8	Radiación solar	0
123685	7	Sololá	701	Sololá	4	Finca Santa Victoria	8	Agosto	2023-09-08T00:00:00	2024-11-08T22:00:00	2	Temperatura media	13.6
123686	7	Sololá	701	Sololá	4	Finca Santa Victoria	8	Agosto	2023-09-08T00:00:00	2024-11-08T22:00:00	4	Temperatura máxima	14.1
123687	7	Sololá	701	Sololá	4	Finca Santa Victoria	8	Agosto	2023-09-08T00:00:00	2024-11-08T22:00:00	3	Temperatura mínima	13.6
123688	7	Sololá	701	Sololá	4	Finca Santa Victoria	8	Agosto	2023-09-08T00:00:00	2024-11-08T22:00:00	5	Humedad	95
123689	7	Sololá	701	Sololá	4	Finca Santa Victoria	8	Agosto	2023-09-08T00:00:00	2024-11-08T22:00:00	6	Velocidad del viento	1.6
123690	7	Sololá	701	Sololá	4	Finca Santa Victoria	8	Agosto	2023-09-08T00:00:00	2024-11-08T22:00:00	7	Dirección del viento	1.61
123691	7	Sololá	701	Sololá	4	Finca Santa Victoria	8	Agosto	2023-09-08T00:00:00	2024-11-08T22:00:00	1	Precipitación	0
123692	7	Sololá	701	Sololá	4	Finca Santa Victoria	8	Agosto	2023-09-08T00:00:00	2024-11-08T22:00:00	8	Radiación solar	0
123693	7	Sololá	701	Sololá	4	Finca Santa Victoria	8	Agosto	2023-09-08T00:00:00	2024-11-08T23:00:00	2	Temperatura media	13.5
123694	7	Sololá	701	Sololá	4	Finca Santa Victoria	8	Agosto	2023-09-08T00:00:00	2024-11-08T23:00:00	4	Temperatura máxima	13.6
123695	7	Sololá	701	Sololá	4	Finca Santa Victoria	8	Agosto	2023-09-08T00:00:00	2024-11-08T23:00:00	3	Temperatura mínima	13.3
123696	7	Sololá	701	Sololá	4	Finca Santa Victoria	8	Agosto	2023-09-08T00:00:00	2024-11-08T23:00:00	5	Humedad	96
123697	7	Sololá	701	Sololá	4	Finca Santa Victoria	8	Agosto	2023-09-08T00:00:00	2024-11-08T23:00:00	6	Velocidad del viento	0
123698	7	Sololá	701	Sololá	4	Finca Santa Victoria	8	Agosto	2023-09-08T00:00:00	2024-11-08T23:00:00	7	Dirección del viento	0
123699	7	Sololá	701	Sololá	4	Finca Santa Victoria	8	Agosto	2023-09-08T00:00:00	2024-11-08T23:00:00	1	Precipitación	0
123700	7	Sololá	701	Sololá	4	Finca Santa Victoria	8	Agosto	2023-09-08T00:00:00	2024-11-08T23:00:00	8	Radiación solar	0
123701	7	Sololá	701	Sololá	4	Finca Santa Victoria	8	Agosto	2023-10-08T00:00:00	2024-11-08T00:00:00	2	Temperatura media	13.8
123702	7	Sololá	701	Sololá	4	Finca Santa Victoria	8	Agosto	2023-10-08T00:00:00	2024-11-08T00:00:00	4	Temperatura máxima	13.8
123703	7	Sololá	701	Sololá	4	Finca Santa Victoria	8	Agosto	2023-10-08T00:00:00	2024-11-08T00:00:00	3	Temperatura mínima	13.4
123704	7	Sololá	701	Sololá	4	Finca Santa Victoria	8	Agosto	2023-10-08T00:00:00	2024-11-08T00:00:00	5	Humedad	98
123705	7	Sololá	701	Sololá	4	Finca Santa Victoria	8	Agosto	2023-10-08T00:00:00	2024-11-08T00:00:00	6	Velocidad del viento	0
123706	7	Sololá	701	Sololá	4	Finca Santa Victoria	8	Agosto	2023-10-08T00:00:00	2024-11-08T00:00:00	7	Dirección del viento	0
123707	7	Sololá	701	Sololá	4	Finca Santa Victoria	8	Agosto	2023-10-08T00:00:00	2024-11-08T00:00:00	1	Precipitación	0
123708	7	Sololá	701	Sololá	4	Finca Santa Victoria	8	Agosto	2023-10-08T00:00:00	2024-11-08T00:00:00	8	Radiación solar	0
123709	7	Sololá	701	Sololá	4	Finca Santa Victoria	8	Agosto	2023-10-08T00:00:00	2024-11-08T01:00:00	2	Temperatura media	13.8
123710	7	Sololá	701	Sololá	4	Finca Santa Victoria	8	Agosto	2023-10-08T00:00:00	2024-11-08T01:00:00	4	Temperatura máxima	13.9
123711	7	Sololá	701	Sololá	4	Finca Santa Victoria	8	Agosto	2023-10-08T00:00:00	2024-11-08T01:00:00	3	Temperatura mínima	13.7
123712	7	Sololá	701	Sololá	4	Finca Santa Victoria	8	Agosto	2023-10-08T00:00:00	2024-11-08T01:00:00	5	Humedad	97
123713	7	Sololá	701	Sololá	4	Finca Santa Victoria	8	Agosto	2023-10-08T00:00:00	2024-11-08T01:00:00	6	Velocidad del viento	1.6
123714	7	Sololá	701	Sololá	4	Finca Santa Victoria	8	Agosto	2023-10-08T00:00:00	2024-11-08T01:00:00	7	Dirección del viento	1.61
123715	7	Sololá	701	Sololá	4	Finca Santa Victoria	8	Agosto	2023-10-08T00:00:00	2024-11-08T01:00:00	1	Precipitación	0
123716	7	Sololá	701	Sololá	4	Finca Santa Victoria	8	Agosto	2023-10-08T00:00:00	2024-11-08T01:00:00	8	Radiación solar	0
123717	7	Sololá	701	Sololá	4	Finca Santa Victoria	8	Agosto	2023-10-08T00:00:00	2024-11-08T02:00:00	2	Temperatura media	13.5
123718	7	Sololá	701	Sololá	4	Finca Santa Victoria	8	Agosto	2023-10-08T00:00:00	2024-11-08T02:00:00	4	Temperatura máxima	13.8
123719	7	Sololá	701	Sololá	4	Finca Santa Victoria	8	Agosto	2023-10-08T00:00:00	2024-11-08T02:00:00	3	Temperatura mínima	13.4
123720	7	Sololá	701	Sololá	4	Finca Santa Victoria	8	Agosto	2023-10-08T00:00:00	2024-11-08T02:00:00	5	Humedad	96
123721	7	Sololá	701	Sololá	4	Finca Santa Victoria	8	Agosto	2023-10-08T00:00:00	2024-11-08T02:00:00	6	Velocidad del viento	1.6
123722	7	Sololá	701	Sololá	4	Finca Santa Victoria	8	Agosto	2023-10-08T00:00:00	2024-11-08T02:00:00	7	Dirección del viento	1.61
123723	7	Sololá	701	Sololá	4	Finca Santa Victoria	8	Agosto	2023-10-08T00:00:00	2024-11-08T02:00:00	1	Precipitación	0
123724	7	Sololá	701	Sololá	4	Finca Santa Victoria	8	Agosto	2023-10-08T00:00:00	2024-11-08T02:00:00	8	Radiación solar	0
123725	7	Sololá	701	Sololá	4	Finca Santa Victoria	8	Agosto	2023-10-08T00:00:00	2024-11-08T03:00:00	2	Temperatura media	13.8
123726	7	Sololá	701	Sololá	4	Finca Santa Victoria	8	Agosto	2023-10-08T00:00:00	2024-11-08T03:00:00	4	Temperatura máxima	13.8
123727	7	Sololá	701	Sololá	4	Finca Santa Victoria	8	Agosto	2023-10-08T00:00:00	2024-11-08T03:00:00	3	Temperatura mínima	13.4
123728	7	Sololá	701	Sololá	4	Finca Santa Victoria	8	Agosto	2023-10-08T00:00:00	2024-11-08T03:00:00	5	Humedad	92
123729	7	Sololá	701	Sololá	4	Finca Santa Victoria	8	Agosto	2023-10-08T00:00:00	2024-11-08T03:00:00	6	Velocidad del viento	1.6
123730	7	Sololá	701	Sololá	4	Finca Santa Victoria	8	Agosto	2023-10-08T00:00:00	2024-11-08T03:00:00	7	Dirección del viento	1.61
123731	7	Sololá	701	Sololá	4	Finca Santa Victoria	8	Agosto	2023-10-08T00:00:00	2024-11-08T03:00:00	1	Precipitación	0
123732	7	Sololá	701	Sololá	4	Finca Santa Victoria	8	Agosto	2023-10-08T00:00:00	2024-11-08T03:00:00	8	Radiación solar	0
123733	7	Sololá	701	Sololá	4	Finca Santa Victoria	8	Agosto	2023-10-08T00:00:00	2024-11-08T04:00:00	2	Temperatura media	14.1
123734	7	Sololá	701	Sololá	4	Finca Santa Victoria	8	Agosto	2023-10-08T00:00:00	2024-11-08T04:00:00	4	Temperatura máxima	14.2
123735	7	Sololá	701	Sololá	4	Finca Santa Victoria	8	Agosto	2023-10-08T00:00:00	2024-11-08T04:00:00	3	Temperatura mínima	13.8
123736	7	Sololá	701	Sololá	4	Finca Santa Victoria	8	Agosto	2023-10-08T00:00:00	2024-11-08T04:00:00	5	Humedad	91
123737	7	Sololá	701	Sololá	4	Finca Santa Victoria	8	Agosto	2023-10-08T00:00:00	2024-11-08T04:00:00	6	Velocidad del viento	1.6
123738	7	Sololá	701	Sololá	4	Finca Santa Victoria	8	Agosto	2023-10-08T00:00:00	2024-11-08T04:00:00	7	Dirección del viento	1.61
123739	7	Sololá	701	Sololá	4	Finca Santa Victoria	8	Agosto	2023-10-08T00:00:00	2024-11-08T04:00:00	1	Precipitación	0
123740	7	Sololá	701	Sololá	4	Finca Santa Victoria	8	Agosto	2023-10-08T00:00:00	2024-11-08T04:00:00	8	Radiación solar	0
123741	7	Sololá	701	Sololá	4	Finca Santa Victoria	8	Agosto	2023-10-08T00:00:00	2024-11-08T05:00:00	2	Temperatura media	13.7
123742	7	Sololá	701	Sololá	4	Finca Santa Victoria	8	Agosto	2023-10-08T00:00:00	2024-11-08T05:00:00	4	Temperatura máxima	14.1
123743	7	Sololá	701	Sololá	4	Finca Santa Victoria	8	Agosto	2023-10-08T00:00:00	2024-11-08T05:00:00	3	Temperatura mínima	13.3
123744	7	Sololá	701	Sololá	4	Finca Santa Victoria	8	Agosto	2023-10-08T00:00:00	2024-11-08T05:00:00	5	Humedad	91
123745	7	Sololá	701	Sololá	4	Finca Santa Victoria	8	Agosto	2023-10-08T00:00:00	2024-11-08T05:00:00	6	Velocidad del viento	1.6
123746	7	Sololá	701	Sololá	4	Finca Santa Victoria	8	Agosto	2023-10-08T00:00:00	2024-11-08T05:00:00	7	Dirección del viento	1.61
123747	7	Sololá	701	Sololá	4	Finca Santa Victoria	8	Agosto	2023-10-08T00:00:00	2024-11-08T05:00:00	1	Precipitación	0
123748	7	Sololá	701	Sololá	4	Finca Santa Victoria	8	Agosto	2023-10-08T00:00:00	2024-11-08T05:00:00	8	Radiación solar	0
123749	7	Sololá	701	Sololá	4	Finca Santa Victoria	8	Agosto	2023-10-08T00:00:00	2024-11-08T06:00:00	2	Temperatura media	13.6
123750	7	Sololá	701	Sololá	4	Finca Santa Victoria	8	Agosto	2023-10-08T00:00:00	2024-11-08T06:00:00	4	Temperatura máxima	13.7
123751	7	Sololá	701	Sololá	4	Finca Santa Victoria	8	Agosto	2023-10-08T00:00:00	2024-11-08T06:00:00	3	Temperatura mínima	13.4
123752	7	Sololá	701	Sololá	4	Finca Santa Victoria	8	Agosto	2023-10-08T00:00:00	2024-11-08T06:00:00	5	Humedad	91
123753	7	Sololá	701	Sololá	4	Finca Santa Victoria	8	Agosto	2023-10-08T00:00:00	2024-11-08T06:00:00	6	Velocidad del viento	1.6
123754	7	Sololá	701	Sololá	4	Finca Santa Victoria	8	Agosto	2023-10-08T00:00:00	2024-11-08T06:00:00	7	Dirección del viento	1.61
123755	7	Sololá	701	Sololá	4	Finca Santa Victoria	8	Agosto	2023-10-08T00:00:00	2024-11-08T06:00:00	1	Precipitación	0
123756	7	Sololá	701	Sololá	4	Finca Santa Victoria	8	Agosto	2023-10-08T00:00:00	2024-11-08T06:00:00	8	Radiación solar	0
123757	7	Sololá	701	Sololá	4	Finca Santa Victoria	8	Agosto	2023-10-08T00:00:00	2024-11-08T07:00:00	2	Temperatura media	14.3
123758	7	Sololá	701	Sololá	4	Finca Santa Victoria	8	Agosto	2023-10-08T00:00:00	2024-11-08T07:00:00	4	Temperatura máxima	14.3
123759	7	Sololá	701	Sololá	4	Finca Santa Victoria	8	Agosto	2023-10-08T00:00:00	2024-11-08T07:00:00	3	Temperatura mínima	13.6
123760	7	Sololá	701	Sololá	4	Finca Santa Victoria	8	Agosto	2023-10-08T00:00:00	2024-11-08T07:00:00	5	Humedad	92
123761	7	Sololá	701	Sololá	4	Finca Santa Victoria	8	Agosto	2023-10-08T00:00:00	2024-11-08T07:00:00	6	Velocidad del viento	1.6
123762	7	Sololá	701	Sololá	4	Finca Santa Victoria	8	Agosto	2023-10-08T00:00:00	2024-11-08T07:00:00	7	Dirección del viento	1.61
123763	7	Sololá	701	Sololá	4	Finca Santa Victoria	8	Agosto	2023-10-08T00:00:00	2024-11-08T07:00:00	1	Precipitación	0
123764	7	Sololá	701	Sololá	4	Finca Santa Victoria	8	Agosto	2023-10-08T00:00:00	2024-11-08T07:00:00	8	Radiación solar	22
123765	7	Sololá	701	Sololá	4	Finca Santa Victoria	8	Agosto	2023-10-08T00:00:00	2024-11-08T08:00:00	2	Temperatura media	18.2
123766	7	Sololá	701	Sololá	4	Finca Santa Victoria	8	Agosto	2023-10-08T00:00:00	2024-11-08T08:00:00	4	Temperatura máxima	18.3
123767	7	Sololá	701	Sololá	4	Finca Santa Victoria	8	Agosto	2023-10-08T00:00:00	2024-11-08T08:00:00	3	Temperatura mínima	14.3
123768	7	Sololá	701	Sololá	4	Finca Santa Victoria	8	Agosto	2023-10-08T00:00:00	2024-11-08T08:00:00	5	Humedad	84
123769	7	Sololá	701	Sololá	4	Finca Santa Victoria	8	Agosto	2023-10-08T00:00:00	2024-11-08T08:00:00	6	Velocidad del viento	0
123770	7	Sololá	701	Sololá	4	Finca Santa Victoria	8	Agosto	2023-10-08T00:00:00	2024-11-08T08:00:00	7	Dirección del viento	0
123771	7	Sololá	701	Sololá	4	Finca Santa Victoria	8	Agosto	2023-10-08T00:00:00	2024-11-08T08:00:00	1	Precipitación	0
123772	7	Sololá	701	Sololá	4	Finca Santa Victoria	8	Agosto	2023-10-08T00:00:00	2024-11-08T08:00:00	8	Radiación solar	220
123773	7	Sololá	701	Sololá	4	Finca Santa Victoria	8	Agosto	2023-10-08T00:00:00	2024-11-08T09:00:00	2	Temperatura media	17.6
123774	7	Sololá	701	Sololá	4	Finca Santa Victoria	8	Agosto	2023-10-08T00:00:00	2024-11-08T09:00:00	4	Temperatura máxima	18.2
123775	7	Sololá	701	Sololá	4	Finca Santa Victoria	8	Agosto	2023-10-08T00:00:00	2024-11-08T09:00:00	3	Temperatura mínima	17.6
123776	7	Sololá	701	Sololá	4	Finca Santa Victoria	8	Agosto	2023-10-08T00:00:00	2024-11-08T09:00:00	5	Humedad	83
123777	7	Sololá	701	Sololá	4	Finca Santa Victoria	8	Agosto	2023-10-08T00:00:00	2024-11-08T09:00:00	6	Velocidad del viento	1.6
123778	7	Sololá	701	Sololá	4	Finca Santa Victoria	8	Agosto	2023-10-08T00:00:00	2024-11-08T09:00:00	7	Dirección del viento	1.61
123779	7	Sololá	701	Sololá	4	Finca Santa Victoria	8	Agosto	2023-10-08T00:00:00	2024-11-08T09:00:00	1	Precipitación	0
123780	7	Sololá	701	Sololá	4	Finca Santa Victoria	8	Agosto	2023-10-08T00:00:00	2024-11-08T09:00:00	8	Radiación solar	354
123781	7	Sololá	701	Sololá	4	Finca Santa Victoria	8	Agosto	2023-10-08T00:00:00	2024-11-08T10:00:00	2	Temperatura media	19.6
123782	7	Sololá	701	Sololá	4	Finca Santa Victoria	8	Agosto	2023-10-08T00:00:00	2024-11-08T10:00:00	4	Temperatura máxima	19.6
123783	7	Sololá	701	Sololá	4	Finca Santa Victoria	8	Agosto	2023-10-08T00:00:00	2024-11-08T10:00:00	3	Temperatura mínima	17.7
123784	7	Sololá	701	Sololá	4	Finca Santa Victoria	8	Agosto	2023-10-08T00:00:00	2024-11-08T10:00:00	5	Humedad	81
123785	7	Sololá	701	Sololá	4	Finca Santa Victoria	8	Agosto	2023-10-08T00:00:00	2024-11-08T10:00:00	6	Velocidad del viento	3.2
123786	7	Sololá	701	Sololá	4	Finca Santa Victoria	8	Agosto	2023-10-08T00:00:00	2024-11-08T10:00:00	7	Dirección del viento	3.22
123787	7	Sololá	701	Sololá	4	Finca Santa Victoria	8	Agosto	2023-10-08T00:00:00	2024-11-08T10:00:00	1	Precipitación	0
123788	7	Sololá	701	Sololá	4	Finca Santa Victoria	8	Agosto	2023-10-08T00:00:00	2024-11-08T10:00:00	8	Radiación solar	250
123789	7	Sololá	701	Sololá	4	Finca Santa Victoria	8	Agosto	2023-10-08T00:00:00	2024-11-08T11:00:00	2	Temperatura media	20.5
123790	7	Sololá	701	Sololá	4	Finca Santa Victoria	8	Agosto	2023-10-08T00:00:00	2024-11-08T11:00:00	4	Temperatura máxima	20.5
123791	7	Sololá	701	Sololá	4	Finca Santa Victoria	8	Agosto	2023-10-08T00:00:00	2024-11-08T11:00:00	3	Temperatura mínima	19.6
123792	7	Sololá	701	Sololá	4	Finca Santa Victoria	8	Agosto	2023-10-08T00:00:00	2024-11-08T11:00:00	5	Humedad	80
123793	7	Sololá	701	Sololá	4	Finca Santa Victoria	8	Agosto	2023-10-08T00:00:00	2024-11-08T11:00:00	6	Velocidad del viento	3.2
123794	7	Sololá	701	Sololá	4	Finca Santa Victoria	8	Agosto	2023-10-08T00:00:00	2024-11-08T11:00:00	7	Dirección del viento	3.22
123795	7	Sololá	701	Sololá	4	Finca Santa Victoria	8	Agosto	2023-10-08T00:00:00	2024-11-08T11:00:00	1	Precipitación	0
123796	7	Sololá	701	Sololá	4	Finca Santa Victoria	8	Agosto	2023-10-08T00:00:00	2024-11-08T11:00:00	8	Radiación solar	323
123797	7	Sololá	701	Sololá	4	Finca Santa Victoria	8	Agosto	2023-10-08T00:00:00	2024-11-08T12:00:00	2	Temperatura media	19.1
123798	7	Sololá	701	Sololá	4	Finca Santa Victoria	8	Agosto	2023-10-08T00:00:00	2024-11-08T12:00:00	4	Temperatura máxima	20.8
123799	7	Sololá	701	Sololá	4	Finca Santa Victoria	8	Agosto	2023-10-08T00:00:00	2024-11-08T12:00:00	3	Temperatura mínima	19.1
123800	7	Sololá	701	Sololá	4	Finca Santa Victoria	8	Agosto	2023-10-08T00:00:00	2024-11-08T12:00:00	5	Humedad	88
123801	7	Sololá	701	Sololá	4	Finca Santa Victoria	8	Agosto	2023-10-08T00:00:00	2024-11-08T12:00:00	6	Velocidad del viento	3.2
123802	7	Sololá	701	Sololá	4	Finca Santa Victoria	8	Agosto	2023-10-08T00:00:00	2024-11-08T12:00:00	7	Dirección del viento	3.22
123803	7	Sololá	701	Sololá	4	Finca Santa Victoria	8	Agosto	2023-10-08T00:00:00	2024-11-08T12:00:00	1	Precipitación	0
123804	7	Sololá	701	Sololá	4	Finca Santa Victoria	8	Agosto	2023-10-08T00:00:00	2024-11-08T12:00:00	8	Radiación solar	335
123805	7	Sololá	701	Sololá	4	Finca Santa Victoria	8	Agosto	2023-10-08T00:00:00	2024-11-08T13:00:00	2	Temperatura media	17.1
123806	7	Sololá	701	Sololá	4	Finca Santa Victoria	8	Agosto	2023-10-08T00:00:00	2024-11-08T13:00:00	4	Temperatura máxima	19.1
123807	7	Sololá	701	Sololá	4	Finca Santa Victoria	8	Agosto	2023-10-08T00:00:00	2024-11-08T13:00:00	3	Temperatura mínima	17.1
123808	7	Sololá	701	Sololá	4	Finca Santa Victoria	8	Agosto	2023-10-08T00:00:00	2024-11-08T13:00:00	5	Humedad	95
123809	7	Sololá	701	Sololá	4	Finca Santa Victoria	8	Agosto	2023-10-08T00:00:00	2024-11-08T13:00:00	6	Velocidad del viento	3.2
123810	7	Sololá	701	Sololá	4	Finca Santa Victoria	8	Agosto	2023-10-08T00:00:00	2024-11-08T13:00:00	7	Dirección del viento	3.22
123811	7	Sololá	701	Sololá	4	Finca Santa Victoria	8	Agosto	2023-10-08T00:00:00	2024-11-08T13:00:00	1	Precipitación	0
123812	7	Sololá	701	Sololá	4	Finca Santa Victoria	8	Agosto	2023-10-08T00:00:00	2024-11-08T13:00:00	8	Radiación solar	46
123813	7	Sololá	701	Sololá	4	Finca Santa Victoria	8	Agosto	2023-10-08T00:00:00	2024-11-08T14:00:00	2	Temperatura media	14.3
123814	7	Sololá	701	Sololá	4	Finca Santa Victoria	8	Agosto	2023-10-08T00:00:00	2024-11-08T14:00:00	4	Temperatura máxima	17.1
123815	7	Sololá	701	Sololá	4	Finca Santa Victoria	8	Agosto	2023-10-08T00:00:00	2024-11-08T14:00:00	3	Temperatura mínima	14.3
123816	7	Sololá	701	Sololá	4	Finca Santa Victoria	8	Agosto	2023-10-08T00:00:00	2024-11-08T14:00:00	5	Humedad	91
123817	7	Sololá	701	Sololá	4	Finca Santa Victoria	8	Agosto	2023-10-08T00:00:00	2024-11-08T14:00:00	6	Velocidad del viento	1.6
123818	7	Sololá	701	Sololá	4	Finca Santa Victoria	8	Agosto	2023-10-08T00:00:00	2024-11-08T14:00:00	7	Dirección del viento	1.61
123819	7	Sololá	701	Sololá	4	Finca Santa Victoria	8	Agosto	2023-10-08T00:00:00	2024-11-08T14:00:00	1	Precipitación	14.2
123820	7	Sololá	701	Sololá	4	Finca Santa Victoria	8	Agosto	2023-10-08T00:00:00	2024-11-08T14:00:00	8	Radiación solar	32
123821	7	Sololá	701	Sololá	4	Finca Santa Victoria	8	Agosto	2023-10-08T00:00:00	2024-11-08T15:00:00	2	Temperatura media	14.1
123822	7	Sololá	701	Sololá	4	Finca Santa Victoria	8	Agosto	2023-10-08T00:00:00	2024-11-08T15:00:00	4	Temperatura máxima	14.3
123823	7	Sololá	701	Sololá	4	Finca Santa Victoria	8	Agosto	2023-10-08T00:00:00	2024-11-08T15:00:00	3	Temperatura mínima	13.7
123824	7	Sololá	701	Sololá	4	Finca Santa Victoria	8	Agosto	2023-10-08T00:00:00	2024-11-08T15:00:00	5	Humedad	93
123825	7	Sololá	701	Sololá	4	Finca Santa Victoria	8	Agosto	2023-10-08T00:00:00	2024-11-08T15:00:00	6	Velocidad del viento	1.6
123826	7	Sololá	701	Sololá	4	Finca Santa Victoria	8	Agosto	2023-10-08T00:00:00	2024-11-08T15:00:00	7	Dirección del viento	1.61
123827	7	Sololá	701	Sololá	4	Finca Santa Victoria	8	Agosto	2023-10-08T00:00:00	2024-11-08T15:00:00	1	Precipitación	0.6
123828	7	Sololá	701	Sololá	4	Finca Santa Victoria	8	Agosto	2023-10-08T00:00:00	2024-11-08T15:00:00	8	Radiación solar	26
123829	7	Sololá	701	Sololá	4	Finca Santa Victoria	8	Agosto	2023-10-08T00:00:00	2024-11-08T16:00:00	2	Temperatura media	14
123830	7	Sololá	701	Sololá	4	Finca Santa Victoria	8	Agosto	2023-10-08T00:00:00	2024-11-08T16:00:00	4	Temperatura máxima	14.1
123831	7	Sololá	701	Sololá	4	Finca Santa Victoria	8	Agosto	2023-10-08T00:00:00	2024-11-08T16:00:00	3	Temperatura mínima	13.7
123832	7	Sololá	701	Sololá	4	Finca Santa Victoria	8	Agosto	2023-10-08T00:00:00	2024-11-08T16:00:00	5	Humedad	95
123833	7	Sololá	701	Sololá	4	Finca Santa Victoria	8	Agosto	2023-10-08T00:00:00	2024-11-08T16:00:00	6	Velocidad del viento	1.6
123834	7	Sololá	701	Sololá	4	Finca Santa Victoria	8	Agosto	2023-10-08T00:00:00	2024-11-08T16:00:00	7	Dirección del viento	1.61
123835	7	Sololá	701	Sololá	4	Finca Santa Victoria	8	Agosto	2023-10-08T00:00:00	2024-11-08T16:00:00	1	Precipitación	0
123836	7	Sololá	701	Sololá	4	Finca Santa Victoria	8	Agosto	2023-10-08T00:00:00	2024-11-08T16:00:00	8	Radiación solar	41
123837	7	Sololá	701	Sololá	4	Finca Santa Victoria	8	Agosto	2023-10-08T00:00:00	2024-11-08T17:00:00	2	Temperatura media	15.7
123838	7	Sololá	701	Sololá	4	Finca Santa Victoria	8	Agosto	2023-10-08T00:00:00	2024-11-08T17:00:00	4	Temperatura máxima	15.9
123839	7	Sololá	701	Sololá	4	Finca Santa Victoria	8	Agosto	2023-10-08T00:00:00	2024-11-08T17:00:00	3	Temperatura mínima	14
123840	7	Sololá	701	Sololá	4	Finca Santa Victoria	8	Agosto	2023-10-08T00:00:00	2024-11-08T17:00:00	5	Humedad	92
123841	7	Sololá	701	Sololá	4	Finca Santa Victoria	8	Agosto	2023-10-08T00:00:00	2024-11-08T17:00:00	6	Velocidad del viento	1.6
123842	7	Sololá	701	Sololá	4	Finca Santa Victoria	8	Agosto	2023-10-08T00:00:00	2024-11-08T17:00:00	7	Dirección del viento	1.61
123843	7	Sololá	701	Sololá	4	Finca Santa Victoria	8	Agosto	2023-10-08T00:00:00	2024-11-08T17:00:00	1	Precipitación	0
123844	7	Sololá	701	Sololá	4	Finca Santa Victoria	8	Agosto	2023-10-08T00:00:00	2024-11-08T17:00:00	8	Radiación solar	89
123845	7	Sololá	701	Sololá	4	Finca Santa Victoria	8	Agosto	2023-10-08T00:00:00	2024-11-08T18:00:00	2	Temperatura media	16.4
123846	7	Sololá	701	Sololá	4	Finca Santa Victoria	8	Agosto	2023-10-08T00:00:00	2024-11-08T18:00:00	4	Temperatura máxima	16.4
123847	7	Sololá	701	Sololá	4	Finca Santa Victoria	8	Agosto	2023-10-08T00:00:00	2024-11-08T18:00:00	3	Temperatura mínima	15.7
123848	7	Sololá	701	Sololá	4	Finca Santa Victoria	8	Agosto	2023-10-08T00:00:00	2024-11-08T18:00:00	5	Humedad	86
123849	7	Sololá	701	Sololá	4	Finca Santa Victoria	8	Agosto	2023-10-08T00:00:00	2024-11-08T18:00:00	6	Velocidad del viento	1.6
123850	7	Sololá	701	Sololá	4	Finca Santa Victoria	8	Agosto	2023-10-08T00:00:00	2024-11-08T18:00:00	7	Dirección del viento	1.61
123851	7	Sololá	701	Sololá	4	Finca Santa Victoria	8	Agosto	2023-10-08T00:00:00	2024-11-08T18:00:00	1	Precipitación	0
123852	7	Sololá	701	Sololá	4	Finca Santa Victoria	8	Agosto	2023-10-08T00:00:00	2024-11-08T18:00:00	8	Radiación solar	35
123853	7	Sololá	701	Sololá	4	Finca Santa Victoria	8	Agosto	2023-10-08T00:00:00	2024-11-08T19:00:00	2	Temperatura media	15.3
123854	7	Sololá	701	Sololá	4	Finca Santa Victoria	8	Agosto	2023-10-08T00:00:00	2024-11-08T19:00:00	4	Temperatura máxima	16.5
123855	7	Sololá	701	Sololá	4	Finca Santa Victoria	8	Agosto	2023-10-08T00:00:00	2024-11-08T19:00:00	3	Temperatura mínima	15.2
123856	7	Sololá	701	Sololá	4	Finca Santa Victoria	8	Agosto	2023-10-08T00:00:00	2024-11-08T19:00:00	5	Humedad	89
123857	7	Sololá	701	Sololá	4	Finca Santa Victoria	8	Agosto	2023-10-08T00:00:00	2024-11-08T19:00:00	6	Velocidad del viento	1.6
123858	7	Sololá	701	Sololá	4	Finca Santa Victoria	8	Agosto	2023-10-08T00:00:00	2024-11-08T19:00:00	7	Dirección del viento	1.61
123859	7	Sololá	701	Sololá	4	Finca Santa Victoria	8	Agosto	2023-10-08T00:00:00	2024-11-08T19:00:00	1	Precipitación	0
123860	7	Sololá	701	Sololá	4	Finca Santa Victoria	8	Agosto	2023-10-08T00:00:00	2024-11-08T19:00:00	8	Radiación solar	0
123861	7	Sololá	701	Sololá	4	Finca Santa Victoria	8	Agosto	2023-10-08T00:00:00	2024-11-08T20:00:00	2	Temperatura media	15.5
123862	7	Sololá	701	Sololá	4	Finca Santa Victoria	8	Agosto	2023-10-08T00:00:00	2024-11-08T20:00:00	4	Temperatura máxima	15.7
123863	7	Sololá	701	Sololá	4	Finca Santa Victoria	8	Agosto	2023-10-08T00:00:00	2024-11-08T20:00:00	3	Temperatura mínima	15.2
123864	7	Sololá	701	Sololá	4	Finca Santa Victoria	8	Agosto	2023-10-08T00:00:00	2024-11-08T20:00:00	5	Humedad	90
123865	7	Sololá	701	Sololá	4	Finca Santa Victoria	8	Agosto	2023-10-08T00:00:00	2024-11-08T20:00:00	6	Velocidad del viento	1.6
123866	7	Sololá	701	Sololá	4	Finca Santa Victoria	8	Agosto	2023-10-08T00:00:00	2024-11-08T20:00:00	7	Dirección del viento	1.61
123867	7	Sololá	701	Sololá	4	Finca Santa Victoria	8	Agosto	2023-10-08T00:00:00	2024-11-08T20:00:00	1	Precipitación	0
123868	7	Sololá	701	Sololá	4	Finca Santa Victoria	8	Agosto	2023-10-08T00:00:00	2024-11-08T20:00:00	8	Radiación solar	0
123869	7	Sololá	701	Sololá	4	Finca Santa Victoria	8	Agosto	2023-10-08T00:00:00	2024-11-08T21:00:00	2	Temperatura media	15.6
123870	7	Sololá	701	Sololá	4	Finca Santa Victoria	8	Agosto	2023-10-08T00:00:00	2024-11-08T21:00:00	4	Temperatura máxima	16.1
123871	7	Sololá	701	Sololá	4	Finca Santa Victoria	8	Agosto	2023-10-08T00:00:00	2024-11-08T21:00:00	3	Temperatura mínima	15.3
123872	7	Sololá	701	Sololá	4	Finca Santa Victoria	8	Agosto	2023-10-08T00:00:00	2024-11-08T21:00:00	5	Humedad	90
123873	7	Sololá	701	Sololá	4	Finca Santa Victoria	8	Agosto	2023-10-08T00:00:00	2024-11-08T21:00:00	6	Velocidad del viento	1.6
123874	7	Sololá	701	Sololá	4	Finca Santa Victoria	8	Agosto	2023-10-08T00:00:00	2024-11-08T21:00:00	7	Dirección del viento	1.61
123875	7	Sololá	701	Sololá	4	Finca Santa Victoria	8	Agosto	2023-10-08T00:00:00	2024-11-08T21:00:00	1	Precipitación	0
123876	7	Sololá	701	Sololá	4	Finca Santa Victoria	8	Agosto	2023-10-08T00:00:00	2024-11-08T21:00:00	8	Radiación solar	0
123877	7	Sololá	701	Sololá	4	Finca Santa Victoria	8	Agosto	2023-10-08T00:00:00	2024-11-08T22:00:00	2	Temperatura media	14.9
123878	7	Sololá	701	Sololá	4	Finca Santa Victoria	8	Agosto	2023-10-08T00:00:00	2024-11-08T22:00:00	4	Temperatura máxima	15.6
123879	7	Sololá	701	Sololá	4	Finca Santa Victoria	8	Agosto	2023-10-08T00:00:00	2024-11-08T22:00:00	3	Temperatura mínima	14.8
123880	7	Sololá	701	Sololá	4	Finca Santa Victoria	8	Agosto	2023-10-08T00:00:00	2024-11-08T22:00:00	5	Humedad	92
123881	7	Sololá	701	Sololá	4	Finca Santa Victoria	8	Agosto	2023-10-08T00:00:00	2024-11-08T22:00:00	6	Velocidad del viento	0
123882	7	Sololá	701	Sololá	4	Finca Santa Victoria	8	Agosto	2023-10-08T00:00:00	2024-11-08T22:00:00	7	Dirección del viento	0
123883	7	Sololá	701	Sololá	4	Finca Santa Victoria	8	Agosto	2023-10-08T00:00:00	2024-11-08T22:00:00	1	Precipitación	0
123884	7	Sololá	701	Sololá	4	Finca Santa Victoria	8	Agosto	2023-10-08T00:00:00	2024-11-08T22:00:00	8	Radiación solar	0
123885	7	Sololá	701	Sololá	4	Finca Santa Victoria	8	Agosto	2023-10-08T00:00:00	2024-11-08T23:00:00	2	Temperatura media	15.3
123886	7	Sololá	701	Sololá	4	Finca Santa Victoria	8	Agosto	2023-10-08T00:00:00	2024-11-08T23:00:00	4	Temperatura máxima	15.6
123887	7	Sololá	701	Sololá	4	Finca Santa Victoria	8	Agosto	2023-10-08T00:00:00	2024-11-08T23:00:00	3	Temperatura mínima	14.9
123888	7	Sololá	701	Sololá	4	Finca Santa Victoria	8	Agosto	2023-10-08T00:00:00	2024-11-08T23:00:00	5	Humedad	90
123889	7	Sololá	701	Sololá	4	Finca Santa Victoria	8	Agosto	2023-10-08T00:00:00	2024-11-08T23:00:00	6	Velocidad del viento	1.6
123890	7	Sololá	701	Sololá	4	Finca Santa Victoria	8	Agosto	2023-10-08T00:00:00	2024-11-08T23:00:00	7	Dirección del viento	1.61
123891	7	Sololá	701	Sololá	4	Finca Santa Victoria	8	Agosto	2023-10-08T00:00:00	2024-11-08T23:00:00	1	Precipitación	0
123892	7	Sololá	701	Sololá	4	Finca Santa Victoria	8	Agosto	2023-10-08T00:00:00	2024-11-08T23:00:00	8	Radiación solar	0
123893	7	Sololá	701	Sololá	4	Finca Santa Victoria	8	Agosto	2023-11-08T00:00:00	2024-11-08T00:00:00	2	Temperatura media	14.9
123894	7	Sololá	701	Sololá	4	Finca Santa Victoria	8	Agosto	2023-11-08T00:00:00	2024-11-08T00:00:00	4	Temperatura máxima	15.4
123895	7	Sololá	701	Sololá	4	Finca Santa Victoria	8	Agosto	2023-11-08T00:00:00	2024-11-08T00:00:00	3	Temperatura mínima	14.9
123896	7	Sololá	701	Sololá	4	Finca Santa Victoria	8	Agosto	2023-11-08T00:00:00	2024-11-08T00:00:00	5	Humedad	91
123897	7	Sololá	701	Sololá	4	Finca Santa Victoria	8	Agosto	2023-11-08T00:00:00	2024-11-08T00:00:00	6	Velocidad del viento	1.6
123898	7	Sololá	701	Sololá	4	Finca Santa Victoria	8	Agosto	2023-11-08T00:00:00	2024-11-08T00:00:00	7	Dirección del viento	1.61
123899	7	Sololá	701	Sololá	4	Finca Santa Victoria	8	Agosto	2023-11-08T00:00:00	2024-11-08T00:00:00	1	Precipitación	0
123900	7	Sololá	701	Sololá	4	Finca Santa Victoria	8	Agosto	2023-11-08T00:00:00	2024-11-08T00:00:00	8	Radiación solar	0
123901	7	Sololá	701	Sololá	4	Finca Santa Victoria	8	Agosto	2023-11-08T00:00:00	2024-11-08T01:00:00	2	Temperatura media	15.3
123902	7	Sololá	701	Sololá	4	Finca Santa Victoria	8	Agosto	2023-11-08T00:00:00	2024-11-08T01:00:00	4	Temperatura máxima	15.3
123903	7	Sololá	701	Sololá	4	Finca Santa Victoria	8	Agosto	2023-11-08T00:00:00	2024-11-08T01:00:00	3	Temperatura mínima	14.8
123904	7	Sololá	701	Sololá	4	Finca Santa Victoria	8	Agosto	2023-11-08T00:00:00	2024-11-08T01:00:00	5	Humedad	87
123905	7	Sololá	701	Sololá	4	Finca Santa Victoria	8	Agosto	2023-11-08T00:00:00	2024-11-08T01:00:00	6	Velocidad del viento	1.6
123906	7	Sololá	701	Sololá	4	Finca Santa Victoria	8	Agosto	2023-11-08T00:00:00	2024-11-08T01:00:00	7	Dirección del viento	1.61
123907	7	Sololá	701	Sololá	4	Finca Santa Victoria	8	Agosto	2023-11-08T00:00:00	2024-11-08T01:00:00	1	Precipitación	0
123908	7	Sololá	701	Sololá	4	Finca Santa Victoria	8	Agosto	2023-11-08T00:00:00	2024-11-08T01:00:00	8	Radiación solar	0
123909	7	Sololá	701	Sololá	4	Finca Santa Victoria	8	Agosto	2023-11-08T00:00:00	2024-11-08T02:00:00	2	Temperatura media	14.8
123910	7	Sololá	701	Sololá	4	Finca Santa Victoria	8	Agosto	2023-11-08T00:00:00	2024-11-08T02:00:00	4	Temperatura máxima	15.6
123911	7	Sololá	701	Sololá	4	Finca Santa Victoria	8	Agosto	2023-11-08T00:00:00	2024-11-08T02:00:00	3	Temperatura mínima	14.8
123912	7	Sololá	701	Sololá	4	Finca Santa Victoria	8	Agosto	2023-11-08T00:00:00	2024-11-08T02:00:00	5	Humedad	88
123913	7	Sololá	701	Sololá	4	Finca Santa Victoria	8	Agosto	2023-11-08T00:00:00	2024-11-08T02:00:00	6	Velocidad del viento	1.6
123914	7	Sololá	701	Sololá	4	Finca Santa Victoria	8	Agosto	2023-11-08T00:00:00	2024-11-08T02:00:00	7	Dirección del viento	1.61
123915	7	Sololá	701	Sololá	4	Finca Santa Victoria	8	Agosto	2023-11-08T00:00:00	2024-11-08T02:00:00	1	Precipitación	0
123916	7	Sololá	701	Sololá	4	Finca Santa Victoria	8	Agosto	2023-11-08T00:00:00	2024-11-08T02:00:00	8	Radiación solar	0
123917	7	Sololá	701	Sololá	4	Finca Santa Victoria	8	Agosto	2023-11-08T00:00:00	2024-11-08T03:00:00	2	Temperatura media	14.3
123918	7	Sololá	701	Sololá	4	Finca Santa Victoria	8	Agosto	2023-11-08T00:00:00	2024-11-08T03:00:00	4	Temperatura máxima	14.8
123919	7	Sololá	701	Sololá	4	Finca Santa Victoria	8	Agosto	2023-11-08T00:00:00	2024-11-08T03:00:00	3	Temperatura mínima	14.2
123920	7	Sololá	701	Sololá	4	Finca Santa Victoria	8	Agosto	2023-11-08T00:00:00	2024-11-08T03:00:00	5	Humedad	89
123921	7	Sololá	701	Sololá	4	Finca Santa Victoria	8	Agosto	2023-11-08T00:00:00	2024-11-08T03:00:00	6	Velocidad del viento	0
123922	7	Sololá	701	Sololá	4	Finca Santa Victoria	8	Agosto	2023-11-08T00:00:00	2024-11-08T03:00:00	7	Dirección del viento	0
123923	7	Sololá	701	Sololá	4	Finca Santa Victoria	8	Agosto	2023-11-08T00:00:00	2024-11-08T03:00:00	1	Precipitación	0
123924	7	Sololá	701	Sololá	4	Finca Santa Victoria	8	Agosto	2023-11-08T00:00:00	2024-11-08T03:00:00	8	Radiación solar	0
123925	7	Sololá	701	Sololá	4	Finca Santa Victoria	8	Agosto	2023-11-08T00:00:00	2024-11-08T04:00:00	2	Temperatura media	13.4
123926	7	Sololá	701	Sololá	4	Finca Santa Victoria	8	Agosto	2023-11-08T00:00:00	2024-11-08T04:00:00	4	Temperatura máxima	14.6
123927	7	Sololá	701	Sololá	4	Finca Santa Victoria	8	Agosto	2023-11-08T00:00:00	2024-11-08T04:00:00	3	Temperatura mínima	13.4
123928	7	Sololá	701	Sololá	4	Finca Santa Victoria	8	Agosto	2023-11-08T00:00:00	2024-11-08T04:00:00	5	Humedad	90
123929	7	Sololá	701	Sololá	4	Finca Santa Victoria	8	Agosto	2023-11-08T00:00:00	2024-11-08T04:00:00	6	Velocidad del viento	0
123930	7	Sololá	701	Sololá	4	Finca Santa Victoria	8	Agosto	2023-11-08T00:00:00	2024-11-08T04:00:00	7	Dirección del viento	0
123931	7	Sololá	701	Sololá	4	Finca Santa Victoria	8	Agosto	2023-11-08T00:00:00	2024-11-08T04:00:00	1	Precipitación	0
123932	7	Sololá	701	Sololá	4	Finca Santa Victoria	8	Agosto	2023-11-08T00:00:00	2024-11-08T04:00:00	8	Radiación solar	0
123933	7	Sololá	701	Sololá	4	Finca Santa Victoria	8	Agosto	2023-11-08T00:00:00	2024-11-08T05:00:00	2	Temperatura media	12.4
123934	7	Sololá	701	Sololá	4	Finca Santa Victoria	8	Agosto	2023-11-08T00:00:00	2024-11-08T05:00:00	4	Temperatura máxima	13.4
123935	7	Sololá	701	Sololá	4	Finca Santa Victoria	8	Agosto	2023-11-08T00:00:00	2024-11-08T05:00:00	3	Temperatura mínima	12.4
123936	7	Sololá	701	Sololá	4	Finca Santa Victoria	8	Agosto	2023-11-08T00:00:00	2024-11-08T05:00:00	5	Humedad	97
123937	7	Sololá	701	Sololá	4	Finca Santa Victoria	8	Agosto	2023-11-08T00:00:00	2024-11-08T05:00:00	6	Velocidad del viento	0
123938	7	Sololá	701	Sololá	4	Finca Santa Victoria	8	Agosto	2023-11-08T00:00:00	2024-11-08T05:00:00	7	Dirección del viento	0
123939	7	Sololá	701	Sololá	4	Finca Santa Victoria	8	Agosto	2023-11-08T00:00:00	2024-11-08T05:00:00	1	Precipitación	0
123940	7	Sololá	701	Sololá	4	Finca Santa Victoria	8	Agosto	2023-11-08T00:00:00	2024-11-08T05:00:00	8	Radiación solar	0
123941	7	Sololá	701	Sololá	4	Finca Santa Victoria	8	Agosto	2023-11-08T00:00:00	2024-11-08T06:00:00	2	Temperatura media	13.2
123942	7	Sololá	701	Sololá	4	Finca Santa Victoria	8	Agosto	2023-11-08T00:00:00	2024-11-08T06:00:00	4	Temperatura máxima	13.2
123943	7	Sololá	701	Sololá	4	Finca Santa Victoria	8	Agosto	2023-11-08T00:00:00	2024-11-08T06:00:00	3	Temperatura mínima	12.1
123944	7	Sololá	701	Sololá	4	Finca Santa Victoria	8	Agosto	2023-11-08T00:00:00	2024-11-08T06:00:00	5	Humedad	92
123945	7	Sololá	701	Sololá	4	Finca Santa Victoria	8	Agosto	2023-11-08T00:00:00	2024-11-08T06:00:00	6	Velocidad del viento	1.6
123946	7	Sololá	701	Sololá	4	Finca Santa Victoria	8	Agosto	2023-11-08T00:00:00	2024-11-08T06:00:00	7	Dirección del viento	1.61
123947	7	Sololá	701	Sololá	4	Finca Santa Victoria	8	Agosto	2023-11-08T00:00:00	2024-11-08T06:00:00	1	Precipitación	0
123948	7	Sololá	701	Sololá	4	Finca Santa Victoria	8	Agosto	2023-11-08T00:00:00	2024-11-08T06:00:00	8	Radiación solar	0
123949	7	Sololá	701	Sololá	4	Finca Santa Victoria	8	Agosto	2023-11-08T00:00:00	2024-11-08T07:00:00	2	Temperatura media	12.7
123950	7	Sololá	701	Sololá	4	Finca Santa Victoria	8	Agosto	2023-11-08T00:00:00	2024-11-08T07:00:00	4	Temperatura máxima	13.2
123951	7	Sololá	701	Sololá	4	Finca Santa Victoria	8	Agosto	2023-11-08T00:00:00	2024-11-08T07:00:00	3	Temperatura mínima	12.4
123952	7	Sololá	701	Sololá	4	Finca Santa Victoria	8	Agosto	2023-11-08T00:00:00	2024-11-08T07:00:00	5	Humedad	97
123953	7	Sololá	701	Sololá	4	Finca Santa Victoria	8	Agosto	2023-11-08T00:00:00	2024-11-08T07:00:00	6	Velocidad del viento	1.6
123954	7	Sololá	701	Sololá	4	Finca Santa Victoria	8	Agosto	2023-11-08T00:00:00	2024-11-08T07:00:00	7	Dirección del viento	1.61
123955	7	Sololá	701	Sololá	4	Finca Santa Victoria	8	Agosto	2023-11-08T00:00:00	2024-11-08T07:00:00	1	Precipitación	0
123956	7	Sololá	701	Sololá	4	Finca Santa Victoria	8	Agosto	2023-11-08T00:00:00	2024-11-08T07:00:00	8	Radiación solar	16
123957	7	Sololá	701	Sololá	4	Finca Santa Victoria	8	Agosto	2023-11-08T00:00:00	2024-11-08T08:00:00	2	Temperatura media	16.7
123958	7	Sololá	701	Sololá	4	Finca Santa Victoria	8	Agosto	2023-11-08T00:00:00	2024-11-08T08:00:00	4	Temperatura máxima	16.7
123959	7	Sololá	701	Sololá	4	Finca Santa Victoria	8	Agosto	2023-11-08T00:00:00	2024-11-08T08:00:00	3	Temperatura mínima	12.7
123960	7	Sololá	701	Sololá	4	Finca Santa Victoria	8	Agosto	2023-11-08T00:00:00	2024-11-08T08:00:00	5	Humedad	88
123961	7	Sololá	701	Sololá	4	Finca Santa Victoria	8	Agosto	2023-11-08T00:00:00	2024-11-08T08:00:00	6	Velocidad del viento	1.6
123962	7	Sololá	701	Sololá	4	Finca Santa Victoria	8	Agosto	2023-11-08T00:00:00	2024-11-08T08:00:00	7	Dirección del viento	1.61
123963	7	Sololá	701	Sololá	4	Finca Santa Victoria	8	Agosto	2023-11-08T00:00:00	2024-11-08T08:00:00	1	Precipitación	0
123964	7	Sololá	701	Sololá	4	Finca Santa Victoria	8	Agosto	2023-11-08T00:00:00	2024-11-08T08:00:00	8	Radiación solar	217
123965	7	Sololá	701	Sololá	4	Finca Santa Victoria	8	Agosto	2023-11-08T00:00:00	2024-11-08T09:00:00	2	Temperatura media	18.3
123966	7	Sololá	701	Sololá	4	Finca Santa Victoria	8	Agosto	2023-11-08T00:00:00	2024-11-08T09:00:00	4	Temperatura máxima	18.3
123967	7	Sololá	701	Sololá	4	Finca Santa Victoria	8	Agosto	2023-11-08T00:00:00	2024-11-08T09:00:00	3	Temperatura mínima	16.6
123968	7	Sololá	701	Sololá	4	Finca Santa Victoria	8	Agosto	2023-11-08T00:00:00	2024-11-08T09:00:00	5	Humedad	83
123969	7	Sololá	701	Sololá	4	Finca Santa Victoria	8	Agosto	2023-11-08T00:00:00	2024-11-08T09:00:00	6	Velocidad del viento	1.6
123970	7	Sololá	701	Sololá	4	Finca Santa Victoria	8	Agosto	2023-11-08T00:00:00	2024-11-08T09:00:00	7	Dirección del viento	1.61
123971	7	Sololá	701	Sololá	4	Finca Santa Victoria	8	Agosto	2023-11-08T00:00:00	2024-11-08T09:00:00	1	Precipitación	0
123972	7	Sololá	701	Sololá	4	Finca Santa Victoria	8	Agosto	2023-11-08T00:00:00	2024-11-08T09:00:00	8	Radiación solar	364
123973	7	Sololá	701	Sololá	4	Finca Santa Victoria	8	Agosto	2023-11-08T00:00:00	2024-11-08T10:00:00	2	Temperatura media	19.2
123974	7	Sololá	701	Sololá	4	Finca Santa Victoria	8	Agosto	2023-11-08T00:00:00	2024-11-08T10:00:00	4	Temperatura máxima	19.8
123975	7	Sololá	701	Sololá	4	Finca Santa Victoria	8	Agosto	2023-11-08T00:00:00	2024-11-08T10:00:00	3	Temperatura mínima	18.3
123976	7	Sololá	701	Sololá	4	Finca Santa Victoria	8	Agosto	2023-11-08T00:00:00	2024-11-08T10:00:00	5	Humedad	81
123977	7	Sololá	701	Sololá	4	Finca Santa Victoria	8	Agosto	2023-11-08T00:00:00	2024-11-08T10:00:00	6	Velocidad del viento	1.6
123978	7	Sololá	701	Sololá	4	Finca Santa Victoria	8	Agosto	2023-11-08T00:00:00	2024-11-08T10:00:00	7	Dirección del viento	1.61
123979	7	Sololá	701	Sololá	4	Finca Santa Victoria	8	Agosto	2023-11-08T00:00:00	2024-11-08T10:00:00	1	Precipitación	0
123980	7	Sololá	701	Sololá	4	Finca Santa Victoria	8	Agosto	2023-11-08T00:00:00	2024-11-08T10:00:00	8	Radiación solar	291
123981	7	Sololá	701	Sololá	4	Finca Santa Victoria	8	Agosto	2023-11-08T00:00:00	2024-11-08T11:00:00	2	Temperatura media	19.5
123982	7	Sololá	701	Sololá	4	Finca Santa Victoria	8	Agosto	2023-11-08T00:00:00	2024-11-08T11:00:00	4	Temperatura máxima	19.6
123983	7	Sololá	701	Sololá	4	Finca Santa Victoria	8	Agosto	2023-11-08T00:00:00	2024-11-08T11:00:00	3	Temperatura mínima	19.1
123984	7	Sololá	701	Sololá	4	Finca Santa Victoria	8	Agosto	2023-11-08T00:00:00	2024-11-08T11:00:00	5	Humedad	81
123985	7	Sololá	701	Sololá	4	Finca Santa Victoria	8	Agosto	2023-11-08T00:00:00	2024-11-08T11:00:00	6	Velocidad del viento	1.6
123986	7	Sololá	701	Sololá	4	Finca Santa Victoria	8	Agosto	2023-11-08T00:00:00	2024-11-08T11:00:00	7	Dirección del viento	1.61
123987	7	Sololá	701	Sololá	4	Finca Santa Victoria	8	Agosto	2023-11-08T00:00:00	2024-11-08T11:00:00	1	Precipitación	0
123988	7	Sololá	701	Sololá	4	Finca Santa Victoria	8	Agosto	2023-11-08T00:00:00	2024-11-08T11:00:00	8	Radiación solar	330
123989	7	Sololá	701	Sololá	4	Finca Santa Victoria	8	Agosto	2023-11-08T00:00:00	2024-11-08T12:00:00	2	Temperatura media	20
123990	7	Sololá	701	Sololá	4	Finca Santa Victoria	8	Agosto	2023-11-08T00:00:00	2024-11-08T12:00:00	4	Temperatura máxima	20.1
123991	7	Sololá	701	Sololá	4	Finca Santa Victoria	8	Agosto	2023-11-08T00:00:00	2024-11-08T12:00:00	3	Temperatura mínima	19.5
123992	7	Sololá	701	Sololá	4	Finca Santa Victoria	8	Agosto	2023-11-08T00:00:00	2024-11-08T12:00:00	5	Humedad	81
123993	7	Sololá	701	Sololá	4	Finca Santa Victoria	8	Agosto	2023-11-08T00:00:00	2024-11-08T12:00:00	6	Velocidad del viento	3.2
123994	7	Sololá	701	Sololá	4	Finca Santa Victoria	8	Agosto	2023-11-08T00:00:00	2024-11-08T12:00:00	7	Dirección del viento	3.22
123995	7	Sololá	701	Sololá	4	Finca Santa Victoria	8	Agosto	2023-11-08T00:00:00	2024-11-08T12:00:00	1	Precipitación	0
123996	7	Sololá	701	Sololá	4	Finca Santa Victoria	8	Agosto	2023-11-08T00:00:00	2024-11-08T12:00:00	8	Radiación solar	547
123997	7	Sololá	701	Sololá	4	Finca Santa Victoria	8	Agosto	2023-11-08T00:00:00	2024-11-08T13:00:00	2	Temperatura media	18.9
123998	7	Sololá	701	Sololá	4	Finca Santa Victoria	8	Agosto	2023-11-08T00:00:00	2024-11-08T13:00:00	4	Temperatura máxima	20.1
123999	7	Sololá	701	Sololá	4	Finca Santa Victoria	8	Agosto	2023-11-08T00:00:00	2024-11-08T13:00:00	3	Temperatura mínima	18.9
124000	7	Sololá	701	Sololá	4	Finca Santa Victoria	8	Agosto	2023-11-08T00:00:00	2024-11-08T13:00:00	5	Humedad	84
124001	7	Sololá	701	Sololá	4	Finca Santa Victoria	8	Agosto	2023-11-08T00:00:00	2024-11-08T13:00:00	6	Velocidad del viento	4.8
124002	7	Sololá	701	Sololá	4	Finca Santa Victoria	8	Agosto	2023-11-08T00:00:00	2024-11-08T13:00:00	7	Dirección del viento	4.83
124003	7	Sololá	701	Sololá	4	Finca Santa Victoria	8	Agosto	2023-11-08T00:00:00	2024-11-08T13:00:00	1	Precipitación	0
124004	7	Sololá	701	Sololá	4	Finca Santa Victoria	8	Agosto	2023-11-08T00:00:00	2024-11-08T13:00:00	8	Radiación solar	474
124005	7	Sololá	701	Sololá	4	Finca Santa Victoria	8	Agosto	2023-11-08T00:00:00	2024-11-08T14:00:00	2	Temperatura media	19.5
124006	7	Sololá	701	Sololá	4	Finca Santa Victoria	8	Agosto	2023-11-08T00:00:00	2024-11-08T14:00:00	4	Temperatura máxima	19.6
124007	7	Sololá	701	Sololá	4	Finca Santa Victoria	8	Agosto	2023-11-08T00:00:00	2024-11-08T14:00:00	3	Temperatura mínima	18.5
124008	7	Sololá	701	Sololá	4	Finca Santa Victoria	8	Agosto	2023-11-08T00:00:00	2024-11-08T14:00:00	5	Humedad	82
124009	7	Sololá	701	Sololá	4	Finca Santa Victoria	8	Agosto	2023-11-08T00:00:00	2024-11-08T14:00:00	6	Velocidad del viento	4.8
124010	7	Sololá	701	Sololá	4	Finca Santa Victoria	8	Agosto	2023-11-08T00:00:00	2024-11-08T14:00:00	7	Dirección del viento	4.83
124011	7	Sololá	701	Sololá	4	Finca Santa Victoria	8	Agosto	2023-11-08T00:00:00	2024-11-08T14:00:00	1	Precipitación	0
124012	7	Sololá	701	Sololá	4	Finca Santa Victoria	8	Agosto	2023-11-08T00:00:00	2024-11-08T14:00:00	8	Radiación solar	283
124013	7	Sololá	701	Sololá	4	Finca Santa Victoria	8	Agosto	2023-11-08T00:00:00	2024-11-08T15:00:00	2	Temperatura media	18.6
124014	7	Sololá	701	Sololá	4	Finca Santa Victoria	8	Agosto	2023-11-08T00:00:00	2024-11-08T15:00:00	4	Temperatura máxima	19.9
124015	7	Sololá	701	Sololá	4	Finca Santa Victoria	8	Agosto	2023-11-08T00:00:00	2024-11-08T15:00:00	3	Temperatura mínima	18.6
124016	7	Sololá	701	Sololá	4	Finca Santa Victoria	8	Agosto	2023-11-08T00:00:00	2024-11-08T15:00:00	5	Humedad	87
124017	7	Sololá	701	Sololá	4	Finca Santa Victoria	8	Agosto	2023-11-08T00:00:00	2024-11-08T15:00:00	6	Velocidad del viento	3.2
124018	7	Sololá	701	Sololá	4	Finca Santa Victoria	8	Agosto	2023-11-08T00:00:00	2024-11-08T15:00:00	7	Dirección del viento	3.22
124019	7	Sololá	701	Sololá	4	Finca Santa Victoria	8	Agosto	2023-11-08T00:00:00	2024-11-08T15:00:00	1	Precipitación	0
124020	7	Sololá	701	Sololá	4	Finca Santa Victoria	8	Agosto	2023-11-08T00:00:00	2024-11-08T15:00:00	8	Radiación solar	236
124021	7	Sololá	701	Sololá	4	Finca Santa Victoria	8	Agosto	2023-11-08T00:00:00	2024-11-08T16:00:00	2	Temperatura media	18.9
124022	7	Sololá	701	Sololá	4	Finca Santa Victoria	8	Agosto	2023-11-08T00:00:00	2024-11-08T16:00:00	4	Temperatura máxima	19.1
124023	7	Sololá	701	Sololá	4	Finca Santa Victoria	8	Agosto	2023-11-08T00:00:00	2024-11-08T16:00:00	3	Temperatura mínima	18.3
124024	7	Sololá	701	Sololá	4	Finca Santa Victoria	8	Agosto	2023-11-08T00:00:00	2024-11-08T16:00:00	5	Humedad	89
124025	7	Sololá	701	Sololá	4	Finca Santa Victoria	8	Agosto	2023-11-08T00:00:00	2024-11-08T16:00:00	6	Velocidad del viento	1.6
124026	7	Sololá	701	Sololá	4	Finca Santa Victoria	8	Agosto	2023-11-08T00:00:00	2024-11-08T16:00:00	7	Dirección del viento	1.61
124027	7	Sololá	701	Sololá	4	Finca Santa Victoria	8	Agosto	2023-11-08T00:00:00	2024-11-08T16:00:00	1	Precipitación	0
124028	7	Sololá	701	Sololá	4	Finca Santa Victoria	8	Agosto	2023-11-08T00:00:00	2024-11-08T16:00:00	8	Radiación solar	189
124029	7	Sololá	701	Sololá	4	Finca Santa Victoria	8	Agosto	2023-11-08T00:00:00	2024-11-08T17:00:00	2	Temperatura media	18.7
124030	7	Sololá	701	Sololá	4	Finca Santa Victoria	8	Agosto	2023-11-08T00:00:00	2024-11-08T17:00:00	4	Temperatura máxima	19
124031	7	Sololá	701	Sololá	4	Finca Santa Victoria	8	Agosto	2023-11-08T00:00:00	2024-11-08T17:00:00	3	Temperatura mínima	18.1
124032	7	Sololá	701	Sololá	4	Finca Santa Victoria	8	Agosto	2023-11-08T00:00:00	2024-11-08T17:00:00	5	Humedad	92
124033	7	Sololá	701	Sololá	4	Finca Santa Victoria	8	Agosto	2023-11-08T00:00:00	2024-11-08T17:00:00	6	Velocidad del viento	1.6
124034	7	Sololá	701	Sololá	4	Finca Santa Victoria	8	Agosto	2023-11-08T00:00:00	2024-11-08T17:00:00	7	Dirección del viento	1.61
124035	7	Sololá	701	Sololá	4	Finca Santa Victoria	8	Agosto	2023-11-08T00:00:00	2024-11-08T17:00:00	1	Precipitación	0
124036	7	Sololá	701	Sololá	4	Finca Santa Victoria	8	Agosto	2023-11-08T00:00:00	2024-11-08T17:00:00	8	Radiación solar	109
124037	7	Sololá	701	Sololá	4	Finca Santa Victoria	8	Agosto	2023-11-08T00:00:00	2024-11-08T18:00:00	2	Temperatura media	17.8
124038	7	Sololá	701	Sololá	4	Finca Santa Victoria	8	Agosto	2023-11-08T00:00:00	2024-11-08T18:00:00	4	Temperatura máxima	18.8
124039	7	Sololá	701	Sololá	4	Finca Santa Victoria	8	Agosto	2023-11-08T00:00:00	2024-11-08T18:00:00	3	Temperatura mínima	17.7
124040	7	Sololá	701	Sololá	4	Finca Santa Victoria	8	Agosto	2023-11-08T00:00:00	2024-11-08T18:00:00	5	Humedad	82
124041	7	Sololá	701	Sololá	4	Finca Santa Victoria	8	Agosto	2023-11-08T00:00:00	2024-11-08T18:00:00	6	Velocidad del viento	1.6
124042	7	Sololá	701	Sololá	4	Finca Santa Victoria	8	Agosto	2023-11-08T00:00:00	2024-11-08T18:00:00	7	Dirección del viento	1.61
124043	7	Sololá	701	Sololá	4	Finca Santa Victoria	8	Agosto	2023-11-08T00:00:00	2024-11-08T18:00:00	1	Precipitación	0
124044	7	Sololá	701	Sololá	4	Finca Santa Victoria	8	Agosto	2023-11-08T00:00:00	2024-11-08T18:00:00	8	Radiación solar	36
124045	7	Sololá	701	Sololá	4	Finca Santa Victoria	8	Agosto	2023-11-08T00:00:00	2024-11-08T19:00:00	2	Temperatura media	16.7
124046	7	Sololá	701	Sololá	4	Finca Santa Victoria	8	Agosto	2023-11-08T00:00:00	2024-11-08T19:00:00	4	Temperatura máxima	17.8
124047	7	Sololá	701	Sololá	4	Finca Santa Victoria	8	Agosto	2023-11-08T00:00:00	2024-11-08T19:00:00	3	Temperatura mínima	16.6
124048	7	Sololá	701	Sololá	4	Finca Santa Victoria	8	Agosto	2023-11-08T00:00:00	2024-11-08T19:00:00	5	Humedad	88
124049	7	Sololá	701	Sololá	4	Finca Santa Victoria	8	Agosto	2023-11-08T00:00:00	2024-11-08T19:00:00	6	Velocidad del viento	0
124050	7	Sololá	701	Sololá	4	Finca Santa Victoria	8	Agosto	2023-11-08T00:00:00	2024-11-08T19:00:00	7	Dirección del viento	0
124051	7	Sololá	701	Sololá	4	Finca Santa Victoria	8	Agosto	2023-11-08T00:00:00	2024-11-08T19:00:00	1	Precipitación	0
124052	7	Sololá	701	Sololá	4	Finca Santa Victoria	8	Agosto	2023-11-08T00:00:00	2024-11-08T19:00:00	8	Radiación solar	0
124053	7	Sololá	701	Sololá	4	Finca Santa Victoria	8	Agosto	2023-11-08T00:00:00	2024-11-08T20:00:00	2	Temperatura media	17
124054	7	Sololá	701	Sololá	4	Finca Santa Victoria	8	Agosto	2023-11-08T00:00:00	2024-11-08T20:00:00	4	Temperatura máxima	17.1
124055	7	Sololá	701	Sololá	4	Finca Santa Victoria	8	Agosto	2023-11-08T00:00:00	2024-11-08T20:00:00	3	Temperatura mínima	16.4
124056	7	Sololá	701	Sololá	4	Finca Santa Victoria	8	Agosto	2023-11-08T00:00:00	2024-11-08T20:00:00	5	Humedad	86
124057	7	Sololá	701	Sololá	4	Finca Santa Victoria	8	Agosto	2023-11-08T00:00:00	2024-11-08T20:00:00	6	Velocidad del viento	1.6
124058	7	Sololá	701	Sololá	4	Finca Santa Victoria	8	Agosto	2023-11-08T00:00:00	2024-11-08T20:00:00	7	Dirección del viento	1.61
124059	7	Sololá	701	Sololá	4	Finca Santa Victoria	8	Agosto	2023-11-08T00:00:00	2024-11-08T20:00:00	1	Precipitación	0
124060	7	Sololá	701	Sololá	4	Finca Santa Victoria	8	Agosto	2023-11-08T00:00:00	2024-11-08T20:00:00	8	Radiación solar	0
124061	7	Sololá	701	Sololá	4	Finca Santa Victoria	8	Agosto	2023-11-08T00:00:00	2024-11-08T21:00:00	2	Temperatura media	16.5
124062	7	Sololá	701	Sololá	4	Finca Santa Victoria	8	Agosto	2023-11-08T00:00:00	2024-11-08T21:00:00	4	Temperatura máxima	17
124063	7	Sololá	701	Sololá	4	Finca Santa Victoria	8	Agosto	2023-11-08T00:00:00	2024-11-08T21:00:00	3	Temperatura mínima	16.5
124064	7	Sololá	701	Sololá	4	Finca Santa Victoria	8	Agosto	2023-11-08T00:00:00	2024-11-08T21:00:00	5	Humedad	88
124065	7	Sololá	701	Sololá	4	Finca Santa Victoria	8	Agosto	2023-11-08T00:00:00	2024-11-08T21:00:00	6	Velocidad del viento	1.6
124066	7	Sololá	701	Sololá	4	Finca Santa Victoria	8	Agosto	2023-11-08T00:00:00	2024-11-08T21:00:00	7	Dirección del viento	1.61
124067	7	Sololá	701	Sololá	4	Finca Santa Victoria	8	Agosto	2023-11-08T00:00:00	2024-11-08T21:00:00	1	Precipitación	0
124068	7	Sololá	701	Sololá	4	Finca Santa Victoria	8	Agosto	2023-11-08T00:00:00	2024-11-08T21:00:00	8	Radiación solar	0
124069	7	Sololá	701	Sololá	4	Finca Santa Victoria	8	Agosto	2023-11-08T00:00:00	2024-11-08T22:00:00	2	Temperatura media	15.7
124070	7	Sololá	701	Sololá	4	Finca Santa Victoria	8	Agosto	2023-11-08T00:00:00	2024-11-08T22:00:00	4	Temperatura máxima	16.6
124071	7	Sololá	701	Sololá	4	Finca Santa Victoria	8	Agosto	2023-11-08T00:00:00	2024-11-08T22:00:00	3	Temperatura mínima	15.7
124072	7	Sololá	701	Sololá	4	Finca Santa Victoria	8	Agosto	2023-11-08T00:00:00	2024-11-08T22:00:00	5	Humedad	87
124073	7	Sololá	701	Sololá	4	Finca Santa Victoria	8	Agosto	2023-11-08T00:00:00	2024-11-08T22:00:00	6	Velocidad del viento	0
124074	7	Sololá	701	Sololá	4	Finca Santa Victoria	8	Agosto	2023-11-08T00:00:00	2024-11-08T22:00:00	7	Dirección del viento	0
124075	7	Sololá	701	Sololá	4	Finca Santa Victoria	8	Agosto	2023-11-08T00:00:00	2024-11-08T22:00:00	1	Precipitación	0
124076	7	Sololá	701	Sololá	4	Finca Santa Victoria	8	Agosto	2023-11-08T00:00:00	2024-11-08T22:00:00	8	Radiación solar	0
124077	7	Sololá	701	Sololá	4	Finca Santa Victoria	8	Agosto	2023-11-08T00:00:00	2024-11-08T23:00:00	2	Temperatura media	16.1
124078	7	Sololá	701	Sololá	4	Finca Santa Victoria	8	Agosto	2023-11-08T00:00:00	2024-11-08T23:00:00	4	Temperatura máxima	16.2
124079	7	Sololá	701	Sololá	4	Finca Santa Victoria	8	Agosto	2023-11-08T00:00:00	2024-11-08T23:00:00	3	Temperatura mínima	15.6
124080	7	Sololá	701	Sololá	4	Finca Santa Victoria	8	Agosto	2023-11-08T00:00:00	2024-11-08T23:00:00	5	Humedad	84
124081	7	Sololá	701	Sololá	4	Finca Santa Victoria	8	Agosto	2023-11-08T00:00:00	2024-11-08T23:00:00	6	Velocidad del viento	1.6
124082	7	Sololá	701	Sololá	4	Finca Santa Victoria	8	Agosto	2023-11-08T00:00:00	2024-11-08T23:00:00	7	Dirección del viento	1.61
124083	7	Sololá	701	Sololá	4	Finca Santa Victoria	8	Agosto	2023-11-08T00:00:00	2024-11-08T23:00:00	1	Precipitación	0
124084	7	Sololá	701	Sololá	4	Finca Santa Victoria	8	Agosto	2023-11-08T00:00:00	2024-11-08T23:00:00	8	Radiación solar	0
124085	7	Sololá	701	Sololá	4	Finca Santa Victoria	8	Agosto	2023-12-08T00:00:00	2024-11-08T00:00:00	2	Temperatura media	15.6
124086	7	Sololá	701	Sololá	4	Finca Santa Victoria	8	Agosto	2023-12-08T00:00:00	2024-11-08T00:00:00	4	Temperatura máxima	16.1
124087	7	Sololá	701	Sololá	4	Finca Santa Victoria	8	Agosto	2023-12-08T00:00:00	2024-11-08T00:00:00	3	Temperatura mínima	15.6
124088	7	Sololá	701	Sololá	4	Finca Santa Victoria	8	Agosto	2023-12-08T00:00:00	2024-11-08T00:00:00	5	Humedad	85
124089	7	Sololá	701	Sololá	4	Finca Santa Victoria	8	Agosto	2023-12-08T00:00:00	2024-11-08T00:00:00	6	Velocidad del viento	1.6
124090	7	Sololá	701	Sololá	4	Finca Santa Victoria	8	Agosto	2023-12-08T00:00:00	2024-11-08T00:00:00	7	Dirección del viento	1.61
124091	7	Sololá	701	Sololá	4	Finca Santa Victoria	8	Agosto	2023-12-08T00:00:00	2024-11-08T00:00:00	1	Precipitación	0
124092	7	Sololá	701	Sololá	4	Finca Santa Victoria	8	Agosto	2023-12-08T00:00:00	2024-11-08T00:00:00	8	Radiación solar	0
124093	7	Sololá	701	Sololá	4	Finca Santa Victoria	8	Agosto	2023-12-08T00:00:00	2024-11-08T01:00:00	2	Temperatura media	15.5
124094	7	Sololá	701	Sololá	4	Finca Santa Victoria	8	Agosto	2023-12-08T00:00:00	2024-11-08T01:00:00	4	Temperatura máxima	15.6
124095	7	Sololá	701	Sololá	4	Finca Santa Victoria	8	Agosto	2023-12-08T00:00:00	2024-11-08T01:00:00	3	Temperatura mínima	15.2
124096	7	Sololá	701	Sololá	4	Finca Santa Victoria	8	Agosto	2023-12-08T00:00:00	2024-11-08T01:00:00	5	Humedad	80
124097	7	Sololá	701	Sololá	4	Finca Santa Victoria	8	Agosto	2023-12-08T00:00:00	2024-11-08T01:00:00	6	Velocidad del viento	3.2
124098	7	Sololá	701	Sololá	4	Finca Santa Victoria	8	Agosto	2023-12-08T00:00:00	2024-11-08T01:00:00	7	Dirección del viento	3.22
124099	7	Sololá	701	Sololá	4	Finca Santa Victoria	8	Agosto	2023-12-08T00:00:00	2024-11-08T01:00:00	1	Precipitación	0
124100	7	Sololá	701	Sololá	4	Finca Santa Victoria	8	Agosto	2023-12-08T00:00:00	2024-11-08T01:00:00	8	Radiación solar	0
124101	7	Sololá	701	Sololá	4	Finca Santa Victoria	8	Agosto	2023-12-08T00:00:00	2024-11-08T02:00:00	2	Temperatura media	15.4
124102	7	Sololá	701	Sololá	4	Finca Santa Victoria	8	Agosto	2023-12-08T00:00:00	2024-11-08T02:00:00	4	Temperatura máxima	15.7
124103	7	Sololá	701	Sololá	4	Finca Santa Victoria	8	Agosto	2023-12-08T00:00:00	2024-11-08T02:00:00	3	Temperatura mínima	15.3
124104	7	Sololá	701	Sololá	4	Finca Santa Victoria	8	Agosto	2023-12-08T00:00:00	2024-11-08T02:00:00	5	Humedad	80
124105	7	Sololá	701	Sololá	4	Finca Santa Victoria	8	Agosto	2023-12-08T00:00:00	2024-11-08T02:00:00	6	Velocidad del viento	3.2
124106	7	Sololá	701	Sololá	4	Finca Santa Victoria	8	Agosto	2023-12-08T00:00:00	2024-11-08T02:00:00	7	Dirección del viento	3.22
124107	7	Sololá	701	Sololá	4	Finca Santa Victoria	8	Agosto	2023-12-08T00:00:00	2024-11-08T02:00:00	1	Precipitación	0
124108	7	Sololá	701	Sololá	4	Finca Santa Victoria	8	Agosto	2023-12-08T00:00:00	2024-11-08T02:00:00	8	Radiación solar	0
124109	7	Sololá	701	Sololá	4	Finca Santa Victoria	8	Agosto	2023-12-08T00:00:00	2024-11-08T03:00:00	2	Temperatura media	14.4
124110	7	Sololá	701	Sololá	4	Finca Santa Victoria	8	Agosto	2023-12-08T00:00:00	2024-11-08T03:00:00	4	Temperatura máxima	15.4
124111	7	Sololá	701	Sololá	4	Finca Santa Victoria	8	Agosto	2023-12-08T00:00:00	2024-11-08T03:00:00	3	Temperatura mínima	14.4
124112	7	Sololá	701	Sololá	4	Finca Santa Victoria	8	Agosto	2023-12-08T00:00:00	2024-11-08T03:00:00	5	Humedad	83
124113	7	Sololá	701	Sololá	4	Finca Santa Victoria	8	Agosto	2023-12-08T00:00:00	2024-11-08T03:00:00	6	Velocidad del viento	1.6
124114	7	Sololá	701	Sololá	4	Finca Santa Victoria	8	Agosto	2023-12-08T00:00:00	2024-11-08T03:00:00	7	Dirección del viento	1.61
124115	7	Sololá	701	Sololá	4	Finca Santa Victoria	8	Agosto	2023-12-08T00:00:00	2024-11-08T03:00:00	1	Precipitación	0
124116	7	Sololá	701	Sololá	4	Finca Santa Victoria	8	Agosto	2023-12-08T00:00:00	2024-11-08T03:00:00	8	Radiación solar	0
124117	7	Sololá	701	Sololá	4	Finca Santa Victoria	8	Agosto	2023-12-08T00:00:00	2024-11-08T04:00:00	2	Temperatura media	13.8
124118	7	Sololá	701	Sololá	4	Finca Santa Victoria	8	Agosto	2023-12-08T00:00:00	2024-11-08T04:00:00	4	Temperatura máxima	14.6
124119	7	Sololá	701	Sololá	4	Finca Santa Victoria	8	Agosto	2023-12-08T00:00:00	2024-11-08T04:00:00	3	Temperatura mínima	13.8
124120	7	Sololá	701	Sololá	4	Finca Santa Victoria	8	Agosto	2023-12-08T00:00:00	2024-11-08T04:00:00	5	Humedad	89
124121	7	Sololá	701	Sololá	4	Finca Santa Victoria	8	Agosto	2023-12-08T00:00:00	2024-11-08T04:00:00	6	Velocidad del viento	1.6
124122	7	Sololá	701	Sololá	4	Finca Santa Victoria	8	Agosto	2023-12-08T00:00:00	2024-11-08T04:00:00	7	Dirección del viento	1.61
124123	7	Sololá	701	Sololá	4	Finca Santa Victoria	8	Agosto	2023-12-08T00:00:00	2024-11-08T04:00:00	1	Precipitación	0
124124	7	Sololá	701	Sololá	4	Finca Santa Victoria	8	Agosto	2023-12-08T00:00:00	2024-11-08T04:00:00	8	Radiación solar	0
124125	7	Sololá	701	Sololá	4	Finca Santa Victoria	8	Agosto	2023-12-08T00:00:00	2024-11-08T05:00:00	2	Temperatura media	13.9
124126	7	Sololá	701	Sololá	4	Finca Santa Victoria	8	Agosto	2023-12-08T00:00:00	2024-11-08T05:00:00	4	Temperatura máxima	14
124127	7	Sololá	701	Sololá	4	Finca Santa Victoria	8	Agosto	2023-12-08T00:00:00	2024-11-08T05:00:00	3	Temperatura mínima	13.7
124128	7	Sololá	701	Sololá	4	Finca Santa Victoria	8	Agosto	2023-12-08T00:00:00	2024-11-08T05:00:00	5	Humedad	88
124129	7	Sololá	701	Sololá	4	Finca Santa Victoria	8	Agosto	2023-12-08T00:00:00	2024-11-08T05:00:00	6	Velocidad del viento	0
124130	7	Sololá	701	Sololá	4	Finca Santa Victoria	8	Agosto	2023-12-08T00:00:00	2024-11-08T05:00:00	7	Dirección del viento	0
124131	7	Sololá	701	Sololá	4	Finca Santa Victoria	8	Agosto	2023-12-08T00:00:00	2024-11-08T05:00:00	1	Precipitación	0
124132	7	Sololá	701	Sololá	4	Finca Santa Victoria	8	Agosto	2023-12-08T00:00:00	2024-11-08T05:00:00	8	Radiación solar	0
124133	7	Sololá	701	Sololá	4	Finca Santa Victoria	8	Agosto	2023-12-08T00:00:00	2024-11-08T06:00:00	2	Temperatura media	14.2
124134	7	Sololá	701	Sololá	4	Finca Santa Victoria	8	Agosto	2023-12-08T00:00:00	2024-11-08T06:00:00	4	Temperatura máxima	14.2
124135	7	Sololá	701	Sololá	4	Finca Santa Victoria	8	Agosto	2023-12-08T00:00:00	2024-11-08T06:00:00	3	Temperatura mínima	13.6
124136	7	Sololá	701	Sololá	4	Finca Santa Victoria	8	Agosto	2023-12-08T00:00:00	2024-11-08T06:00:00	5	Humedad	90
124137	7	Sololá	701	Sololá	4	Finca Santa Victoria	8	Agosto	2023-12-08T00:00:00	2024-11-08T06:00:00	6	Velocidad del viento	1.6
124138	7	Sololá	701	Sololá	4	Finca Santa Victoria	8	Agosto	2023-12-08T00:00:00	2024-11-08T06:00:00	7	Dirección del viento	1.61
124139	7	Sololá	701	Sololá	4	Finca Santa Victoria	8	Agosto	2023-12-08T00:00:00	2024-11-08T06:00:00	1	Precipitación	0
124140	7	Sololá	701	Sololá	4	Finca Santa Victoria	8	Agosto	2023-12-08T00:00:00	2024-11-08T06:00:00	8	Radiación solar	1
124141	7	Sololá	701	Sololá	4	Finca Santa Victoria	8	Agosto	2023-12-08T00:00:00	2024-11-08T07:00:00	2	Temperatura media	14.8
124142	7	Sololá	701	Sololá	4	Finca Santa Victoria	8	Agosto	2023-12-08T00:00:00	2024-11-08T07:00:00	4	Temperatura máxima	14.8
124143	7	Sololá	701	Sololá	4	Finca Santa Victoria	8	Agosto	2023-12-08T00:00:00	2024-11-08T07:00:00	3	Temperatura mínima	14.2
124144	7	Sololá	701	Sololá	4	Finca Santa Victoria	8	Agosto	2023-12-08T00:00:00	2024-11-08T07:00:00	5	Humedad	86
124145	7	Sololá	701	Sololá	4	Finca Santa Victoria	8	Agosto	2023-12-08T00:00:00	2024-11-08T07:00:00	6	Velocidad del viento	1.6
124146	7	Sololá	701	Sololá	4	Finca Santa Victoria	8	Agosto	2023-12-08T00:00:00	2024-11-08T07:00:00	7	Dirección del viento	1.61
124147	7	Sololá	701	Sololá	4	Finca Santa Victoria	8	Agosto	2023-12-08T00:00:00	2024-11-08T07:00:00	1	Precipitación	0
124148	7	Sololá	701	Sololá	4	Finca Santa Victoria	8	Agosto	2023-12-08T00:00:00	2024-11-08T07:00:00	8	Radiación solar	31
124149	7	Sololá	701	Sololá	4	Finca Santa Victoria	8	Agosto	2023-12-08T00:00:00	2024-11-08T08:00:00	2	Temperatura media	16.4
124150	7	Sololá	701	Sololá	4	Finca Santa Victoria	8	Agosto	2023-12-08T00:00:00	2024-11-08T08:00:00	4	Temperatura máxima	16.4
124151	7	Sololá	701	Sololá	4	Finca Santa Victoria	8	Agosto	2023-12-08T00:00:00	2024-11-08T08:00:00	3	Temperatura mínima	14.8
124152	7	Sololá	701	Sololá	4	Finca Santa Victoria	8	Agosto	2023-12-08T00:00:00	2024-11-08T08:00:00	5	Humedad	82
124153	7	Sololá	701	Sololá	4	Finca Santa Victoria	8	Agosto	2023-12-08T00:00:00	2024-11-08T08:00:00	6	Velocidad del viento	1.6
124154	7	Sololá	701	Sololá	4	Finca Santa Victoria	8	Agosto	2023-12-08T00:00:00	2024-11-08T08:00:00	7	Dirección del viento	1.61
124155	7	Sololá	701	Sololá	4	Finca Santa Victoria	8	Agosto	2023-12-08T00:00:00	2024-11-08T08:00:00	1	Precipitación	0
124156	7	Sololá	701	Sololá	4	Finca Santa Victoria	8	Agosto	2023-12-08T00:00:00	2024-11-08T08:00:00	8	Radiación solar	107
124157	7	Sololá	701	Sololá	4	Finca Santa Victoria	8	Agosto	2023-12-08T00:00:00	2024-11-08T09:00:00	2	Temperatura media	18.7
124158	7	Sololá	701	Sololá	4	Finca Santa Victoria	8	Agosto	2023-12-08T00:00:00	2024-11-08T09:00:00	4	Temperatura máxima	18.7
124159	7	Sololá	701	Sololá	4	Finca Santa Victoria	8	Agosto	2023-12-08T00:00:00	2024-11-08T09:00:00	3	Temperatura mínima	16.4
124160	7	Sololá	701	Sololá	4	Finca Santa Victoria	8	Agosto	2023-12-08T00:00:00	2024-11-08T09:00:00	5	Humedad	76
124161	7	Sololá	701	Sololá	4	Finca Santa Victoria	8	Agosto	2023-12-08T00:00:00	2024-11-08T09:00:00	6	Velocidad del viento	1.6
124162	7	Sololá	701	Sololá	4	Finca Santa Victoria	8	Agosto	2023-12-08T00:00:00	2024-11-08T09:00:00	7	Dirección del viento	1.61
124163	7	Sololá	701	Sololá	4	Finca Santa Victoria	8	Agosto	2023-12-08T00:00:00	2024-11-08T09:00:00	1	Precipitación	0
124164	7	Sololá	701	Sololá	4	Finca Santa Victoria	8	Agosto	2023-12-08T00:00:00	2024-11-08T09:00:00	8	Radiación solar	231
124165	7	Sololá	701	Sololá	4	Finca Santa Victoria	8	Agosto	2023-12-08T00:00:00	2024-11-08T10:00:00	2	Temperatura media	20.6
124166	7	Sololá	701	Sololá	4	Finca Santa Victoria	8	Agosto	2023-12-08T00:00:00	2024-11-08T10:00:00	4	Temperatura máxima	20.6
124167	7	Sololá	701	Sololá	4	Finca Santa Victoria	8	Agosto	2023-12-08T00:00:00	2024-11-08T10:00:00	3	Temperatura mínima	18.7
124168	7	Sololá	701	Sololá	4	Finca Santa Victoria	8	Agosto	2023-12-08T00:00:00	2024-11-08T10:00:00	5	Humedad	74
124169	7	Sololá	701	Sololá	4	Finca Santa Victoria	8	Agosto	2023-12-08T00:00:00	2024-11-08T10:00:00	6	Velocidad del viento	1.6
124170	7	Sololá	701	Sololá	4	Finca Santa Victoria	8	Agosto	2023-12-08T00:00:00	2024-11-08T10:00:00	7	Dirección del viento	1.61
124171	7	Sololá	701	Sololá	4	Finca Santa Victoria	8	Agosto	2023-12-08T00:00:00	2024-11-08T10:00:00	1	Precipitación	0
124172	7	Sololá	701	Sololá	4	Finca Santa Victoria	8	Agosto	2023-12-08T00:00:00	2024-11-08T10:00:00	8	Radiación solar	216
124173	7	Sololá	701	Sololá	4	Finca Santa Victoria	8	Agosto	2023-12-08T00:00:00	2024-11-08T11:00:00	2	Temperatura media	22.7
124174	7	Sololá	701	Sololá	4	Finca Santa Victoria	8	Agosto	2023-12-08T00:00:00	2024-11-08T11:00:00	4	Temperatura máxima	22.7
124175	7	Sololá	701	Sololá	4	Finca Santa Victoria	8	Agosto	2023-12-08T00:00:00	2024-11-08T11:00:00	3	Temperatura mínima	20.6
124176	7	Sololá	701	Sololá	4	Finca Santa Victoria	8	Agosto	2023-12-08T00:00:00	2024-11-08T11:00:00	5	Humedad	62
124177	7	Sololá	701	Sololá	4	Finca Santa Victoria	8	Agosto	2023-12-08T00:00:00	2024-11-08T11:00:00	6	Velocidad del viento	3.2
124178	7	Sololá	701	Sololá	4	Finca Santa Victoria	8	Agosto	2023-12-08T00:00:00	2024-11-08T11:00:00	7	Dirección del viento	3.22
124179	7	Sololá	701	Sololá	4	Finca Santa Victoria	8	Agosto	2023-12-08T00:00:00	2024-11-08T11:00:00	1	Precipitación	0
124180	7	Sololá	701	Sololá	4	Finca Santa Victoria	8	Agosto	2023-12-08T00:00:00	2024-11-08T11:00:00	8	Radiación solar	287
124181	7	Sololá	701	Sololá	4	Finca Santa Victoria	8	Agosto	2023-12-08T00:00:00	2024-11-08T12:00:00	2	Temperatura media	20.7
124182	7	Sololá	701	Sololá	4	Finca Santa Victoria	8	Agosto	2023-12-08T00:00:00	2024-11-08T12:00:00	4	Temperatura máxima	23.2
124183	7	Sololá	701	Sololá	4	Finca Santa Victoria	8	Agosto	2023-12-08T00:00:00	2024-11-08T12:00:00	3	Temperatura mínima	20.7
124184	7	Sololá	701	Sololá	4	Finca Santa Victoria	8	Agosto	2023-12-08T00:00:00	2024-11-08T12:00:00	5	Humedad	79
124185	7	Sololá	701	Sololá	4	Finca Santa Victoria	8	Agosto	2023-12-08T00:00:00	2024-11-08T12:00:00	6	Velocidad del viento	3.2
124186	7	Sololá	701	Sololá	4	Finca Santa Victoria	8	Agosto	2023-12-08T00:00:00	2024-11-08T12:00:00	7	Dirección del viento	3.22
124187	7	Sololá	701	Sololá	4	Finca Santa Victoria	8	Agosto	2023-12-08T00:00:00	2024-11-08T12:00:00	1	Precipitación	0
124188	7	Sololá	701	Sololá	4	Finca Santa Victoria	8	Agosto	2023-12-08T00:00:00	2024-11-08T12:00:00	8	Radiación solar	635
124189	7	Sololá	701	Sololá	4	Finca Santa Victoria	8	Agosto	2023-12-08T00:00:00	2024-11-08T13:00:00	2	Temperatura media	19.8
124190	7	Sololá	701	Sololá	4	Finca Santa Victoria	8	Agosto	2023-12-08T00:00:00	2024-11-08T13:00:00	4	Temperatura máxima	20.7
124191	7	Sololá	701	Sololá	4	Finca Santa Victoria	8	Agosto	2023-12-08T00:00:00	2024-11-08T13:00:00	3	Temperatura mínima	19.2
124192	7	Sololá	701	Sololá	4	Finca Santa Victoria	8	Agosto	2023-12-08T00:00:00	2024-11-08T13:00:00	5	Humedad	86
124193	7	Sololá	701	Sololá	4	Finca Santa Victoria	8	Agosto	2023-12-08T00:00:00	2024-11-08T13:00:00	6	Velocidad del viento	3.2
124194	7	Sololá	701	Sololá	4	Finca Santa Victoria	8	Agosto	2023-12-08T00:00:00	2024-11-08T13:00:00	7	Dirección del viento	3.22
124195	7	Sololá	701	Sololá	4	Finca Santa Victoria	8	Agosto	2023-12-08T00:00:00	2024-11-08T13:00:00	1	Precipitación	0
124196	7	Sololá	701	Sololá	4	Finca Santa Victoria	8	Agosto	2023-12-08T00:00:00	2024-11-08T13:00:00	8	Radiación solar	242
124197	7	Sololá	701	Sololá	4	Finca Santa Victoria	8	Agosto	2023-12-08T00:00:00	2024-11-08T14:00:00	2	Temperatura media	22.8
124198	7	Sololá	701	Sololá	4	Finca Santa Victoria	8	Agosto	2023-12-08T00:00:00	2024-11-08T14:00:00	4	Temperatura máxima	22.8
124199	7	Sololá	701	Sololá	4	Finca Santa Victoria	8	Agosto	2023-12-08T00:00:00	2024-11-08T14:00:00	3	Temperatura mínima	19.8
124200	7	Sololá	701	Sololá	4	Finca Santa Victoria	8	Agosto	2023-12-08T00:00:00	2024-11-08T14:00:00	5	Humedad	64
124201	7	Sololá	701	Sololá	4	Finca Santa Victoria	8	Agosto	2023-12-08T00:00:00	2024-11-08T14:00:00	6	Velocidad del viento	3.2
124202	7	Sololá	701	Sololá	4	Finca Santa Victoria	8	Agosto	2023-12-08T00:00:00	2024-11-08T14:00:00	7	Dirección del viento	3.22
124203	7	Sololá	701	Sololá	4	Finca Santa Victoria	8	Agosto	2023-12-08T00:00:00	2024-11-08T14:00:00	1	Precipitación	0
124204	7	Sololá	701	Sololá	4	Finca Santa Victoria	8	Agosto	2023-12-08T00:00:00	2024-11-08T14:00:00	8	Radiación solar	255
124205	7	Sololá	701	Sololá	4	Finca Santa Victoria	8	Agosto	2023-12-08T00:00:00	2024-11-08T15:00:00	2	Temperatura media	22.2
124206	7	Sololá	701	Sololá	4	Finca Santa Victoria	8	Agosto	2023-12-08T00:00:00	2024-11-08T15:00:00	4	Temperatura máxima	23.3
124207	7	Sololá	701	Sololá	4	Finca Santa Victoria	8	Agosto	2023-12-08T00:00:00	2024-11-08T15:00:00	3	Temperatura mínima	22.2
124208	7	Sololá	701	Sololá	4	Finca Santa Victoria	8	Agosto	2023-12-08T00:00:00	2024-11-08T15:00:00	5	Humedad	78
124209	7	Sololá	701	Sololá	4	Finca Santa Victoria	8	Agosto	2023-12-08T00:00:00	2024-11-08T15:00:00	6	Velocidad del viento	3.2
124210	7	Sololá	701	Sololá	4	Finca Santa Victoria	8	Agosto	2023-12-08T00:00:00	2024-11-08T15:00:00	7	Dirección del viento	3.22
124211	7	Sololá	701	Sololá	4	Finca Santa Victoria	8	Agosto	2023-12-08T00:00:00	2024-11-08T15:00:00	1	Precipitación	0
124212	7	Sololá	701	Sololá	4	Finca Santa Victoria	8	Agosto	2023-12-08T00:00:00	2024-11-08T15:00:00	8	Radiación solar	250
124213	7	Sololá	701	Sololá	4	Finca Santa Victoria	8	Agosto	2023-12-08T00:00:00	2024-11-08T16:00:00	2	Temperatura media	21.7
124214	7	Sololá	701	Sololá	4	Finca Santa Victoria	8	Agosto	2023-12-08T00:00:00	2024-11-08T16:00:00	4	Temperatura máxima	22.2
124215	7	Sololá	701	Sololá	4	Finca Santa Victoria	8	Agosto	2023-12-08T00:00:00	2024-11-08T16:00:00	3	Temperatura mínima	20.2
124216	7	Sololá	701	Sololá	4	Finca Santa Victoria	8	Agosto	2023-12-08T00:00:00	2024-11-08T16:00:00	5	Humedad	62
124217	7	Sololá	701	Sololá	4	Finca Santa Victoria	8	Agosto	2023-12-08T00:00:00	2024-11-08T16:00:00	6	Velocidad del viento	3.2
124218	7	Sololá	701	Sololá	4	Finca Santa Victoria	8	Agosto	2023-12-08T00:00:00	2024-11-08T16:00:00	7	Dirección del viento	3.22
124219	7	Sololá	701	Sololá	4	Finca Santa Victoria	8	Agosto	2023-12-08T00:00:00	2024-11-08T16:00:00	1	Precipitación	0
124220	7	Sololá	701	Sololá	4	Finca Santa Victoria	8	Agosto	2023-12-08T00:00:00	2024-11-08T16:00:00	8	Radiación solar	119
124221	7	Sololá	701	Sololá	4	Finca Santa Victoria	8	Agosto	2023-12-08T00:00:00	2024-11-08T17:00:00	2	Temperatura media	18.9
124222	7	Sololá	701	Sololá	4	Finca Santa Victoria	8	Agosto	2023-12-08T00:00:00	2024-11-08T17:00:00	4	Temperatura máxima	22.1
124223	7	Sololá	701	Sololá	4	Finca Santa Victoria	8	Agosto	2023-12-08T00:00:00	2024-11-08T17:00:00	3	Temperatura mínima	18.9
124224	7	Sololá	701	Sololá	4	Finca Santa Victoria	8	Agosto	2023-12-08T00:00:00	2024-11-08T17:00:00	5	Humedad	91
124225	7	Sololá	701	Sololá	4	Finca Santa Victoria	8	Agosto	2023-12-08T00:00:00	2024-11-08T17:00:00	6	Velocidad del viento	3.2
124226	7	Sololá	701	Sololá	4	Finca Santa Victoria	8	Agosto	2023-12-08T00:00:00	2024-11-08T17:00:00	7	Dirección del viento	3.22
124227	7	Sololá	701	Sololá	4	Finca Santa Victoria	8	Agosto	2023-12-08T00:00:00	2024-11-08T17:00:00	1	Precipitación	0
124228	7	Sololá	701	Sololá	4	Finca Santa Victoria	8	Agosto	2023-12-08T00:00:00	2024-11-08T17:00:00	8	Radiación solar	101
124229	7	Sololá	701	Sololá	4	Finca Santa Victoria	8	Agosto	2023-12-08T00:00:00	2024-11-08T18:00:00	2	Temperatura media	16.8
124230	7	Sololá	701	Sololá	4	Finca Santa Victoria	8	Agosto	2023-12-08T00:00:00	2024-11-08T18:00:00	4	Temperatura máxima	18.9
124231	7	Sololá	701	Sololá	4	Finca Santa Victoria	8	Agosto	2023-12-08T00:00:00	2024-11-08T18:00:00	3	Temperatura mínima	16.8
124232	7	Sololá	701	Sololá	4	Finca Santa Victoria	8	Agosto	2023-12-08T00:00:00	2024-11-08T18:00:00	5	Humedad	84
124233	7	Sololá	701	Sololá	4	Finca Santa Victoria	8	Agosto	2023-12-08T00:00:00	2024-11-08T18:00:00	6	Velocidad del viento	1.6
124234	7	Sololá	701	Sololá	4	Finca Santa Victoria	8	Agosto	2023-12-08T00:00:00	2024-11-08T18:00:00	7	Dirección del viento	1.61
124235	7	Sololá	701	Sololá	4	Finca Santa Victoria	8	Agosto	2023-12-08T00:00:00	2024-11-08T18:00:00	1	Precipitación	0
124236	7	Sololá	701	Sololá	4	Finca Santa Victoria	8	Agosto	2023-12-08T00:00:00	2024-11-08T18:00:00	8	Radiación solar	33
124237	7	Sololá	701	Sololá	4	Finca Santa Victoria	8	Agosto	2023-12-08T00:00:00	2024-11-08T19:00:00	2	Temperatura media	16.2
124238	7	Sololá	701	Sololá	4	Finca Santa Victoria	8	Agosto	2023-12-08T00:00:00	2024-11-08T19:00:00	4	Temperatura máxima	16.9
124239	7	Sololá	701	Sololá	4	Finca Santa Victoria	8	Agosto	2023-12-08T00:00:00	2024-11-08T19:00:00	3	Temperatura mínima	16.1
124240	7	Sololá	701	Sololá	4	Finca Santa Victoria	8	Agosto	2023-12-08T00:00:00	2024-11-08T19:00:00	5	Humedad	88
124241	7	Sololá	701	Sololá	4	Finca Santa Victoria	8	Agosto	2023-12-08T00:00:00	2024-11-08T19:00:00	6	Velocidad del viento	1.6
124242	7	Sololá	701	Sololá	4	Finca Santa Victoria	8	Agosto	2023-12-08T00:00:00	2024-11-08T19:00:00	7	Dirección del viento	1.61
124243	7	Sololá	701	Sololá	4	Finca Santa Victoria	8	Agosto	2023-12-08T00:00:00	2024-11-08T19:00:00	1	Precipitación	0
124244	7	Sololá	701	Sololá	4	Finca Santa Victoria	8	Agosto	2023-12-08T00:00:00	2024-11-08T19:00:00	8	Radiación solar	0
124245	7	Sololá	701	Sololá	4	Finca Santa Victoria	8	Agosto	2023-12-08T00:00:00	2024-11-08T20:00:00	2	Temperatura media	16.2
124246	7	Sololá	701	Sololá	4	Finca Santa Victoria	8	Agosto	2023-12-08T00:00:00	2024-11-08T20:00:00	4	Temperatura máxima	16.3
124247	7	Sololá	701	Sololá	4	Finca Santa Victoria	8	Agosto	2023-12-08T00:00:00	2024-11-08T20:00:00	3	Temperatura mínima	16.2
124248	7	Sololá	701	Sololá	4	Finca Santa Victoria	8	Agosto	2023-12-08T00:00:00	2024-11-08T20:00:00	5	Humedad	84
124249	7	Sololá	701	Sololá	4	Finca Santa Victoria	8	Agosto	2023-12-08T00:00:00	2024-11-08T20:00:00	6	Velocidad del viento	3.2
124250	7	Sololá	701	Sololá	4	Finca Santa Victoria	8	Agosto	2023-12-08T00:00:00	2024-11-08T20:00:00	7	Dirección del viento	3.22
124251	7	Sololá	701	Sololá	4	Finca Santa Victoria	8	Agosto	2023-12-08T00:00:00	2024-11-08T20:00:00	1	Precipitación	0
124252	7	Sololá	701	Sololá	4	Finca Santa Victoria	8	Agosto	2023-12-08T00:00:00	2024-11-08T20:00:00	8	Radiación solar	0
124253	7	Sololá	701	Sololá	4	Finca Santa Victoria	8	Agosto	2023-12-08T00:00:00	2024-11-08T21:00:00	2	Temperatura media	15.8
124254	7	Sololá	701	Sololá	4	Finca Santa Victoria	8	Agosto	2023-12-08T00:00:00	2024-11-08T21:00:00	4	Temperatura máxima	16.2
124255	7	Sololá	701	Sololá	4	Finca Santa Victoria	8	Agosto	2023-12-08T00:00:00	2024-11-08T21:00:00	3	Temperatura mínima	15.8
124256	7	Sololá	701	Sololá	4	Finca Santa Victoria	8	Agosto	2023-12-08T00:00:00	2024-11-08T21:00:00	5	Humedad	85
124257	7	Sololá	701	Sololá	4	Finca Santa Victoria	8	Agosto	2023-12-08T00:00:00	2024-11-08T21:00:00	6	Velocidad del viento	3.2
124258	7	Sololá	701	Sololá	4	Finca Santa Victoria	8	Agosto	2023-12-08T00:00:00	2024-11-08T21:00:00	7	Dirección del viento	3.22
124259	7	Sololá	701	Sololá	4	Finca Santa Victoria	8	Agosto	2023-12-08T00:00:00	2024-11-08T21:00:00	1	Precipitación	0
124260	7	Sololá	701	Sololá	4	Finca Santa Victoria	8	Agosto	2023-12-08T00:00:00	2024-11-08T21:00:00	8	Radiación solar	0
124261	7	Sololá	701	Sololá	4	Finca Santa Victoria	8	Agosto	2023-12-08T00:00:00	2024-11-08T22:00:00	2	Temperatura media	15.1
124262	7	Sololá	701	Sololá	4	Finca Santa Victoria	8	Agosto	2023-12-08T00:00:00	2024-11-08T22:00:00	4	Temperatura máxima	15.8
124263	7	Sololá	701	Sololá	4	Finca Santa Victoria	8	Agosto	2023-12-08T00:00:00	2024-11-08T22:00:00	3	Temperatura mínima	15.1
124264	7	Sololá	701	Sololá	4	Finca Santa Victoria	8	Agosto	2023-12-08T00:00:00	2024-11-08T22:00:00	5	Humedad	88
124265	7	Sololá	701	Sololá	4	Finca Santa Victoria	8	Agosto	2023-12-08T00:00:00	2024-11-08T22:00:00	6	Velocidad del viento	1.6
124266	7	Sololá	701	Sololá	4	Finca Santa Victoria	8	Agosto	2023-12-08T00:00:00	2024-11-08T22:00:00	7	Dirección del viento	1.61
124267	7	Sololá	701	Sololá	4	Finca Santa Victoria	8	Agosto	2023-12-08T00:00:00	2024-11-08T22:00:00	1	Precipitación	0
124268	7	Sololá	701	Sololá	4	Finca Santa Victoria	8	Agosto	2023-12-08T00:00:00	2024-11-08T22:00:00	8	Radiación solar	0
124269	7	Sololá	701	Sololá	4	Finca Santa Victoria	8	Agosto	2023-12-08T00:00:00	2024-11-08T23:00:00	2	Temperatura media	15.1
124270	7	Sololá	701	Sololá	4	Finca Santa Victoria	8	Agosto	2023-12-08T00:00:00	2024-11-08T23:00:00	4	Temperatura máxima	15.2
124271	7	Sololá	701	Sololá	4	Finca Santa Victoria	8	Agosto	2023-12-08T00:00:00	2024-11-08T23:00:00	3	Temperatura mínima	15.1
124272	7	Sololá	701	Sololá	4	Finca Santa Victoria	8	Agosto	2023-12-08T00:00:00	2024-11-08T23:00:00	5	Humedad	85
124273	7	Sololá	701	Sololá	4	Finca Santa Victoria	8	Agosto	2023-12-08T00:00:00	2024-11-08T23:00:00	6	Velocidad del viento	3.2
124274	7	Sololá	701	Sololá	4	Finca Santa Victoria	8	Agosto	2023-12-08T00:00:00	2024-11-08T23:00:00	7	Dirección del viento	3.22
124275	7	Sololá	701	Sololá	4	Finca Santa Victoria	8	Agosto	2023-12-08T00:00:00	2024-11-08T23:00:00	1	Precipitación	0
124276	7	Sololá	701	Sololá	4	Finca Santa Victoria	8	Agosto	2023-12-08T00:00:00	2024-11-08T23:00:00	8	Radiación solar	0
124277	7	Sololá	701	Sololá	4	Finca Santa Victoria	8	Agosto	2023-08-13T00:00:00	2024-11-08T00:00:00	2	Temperatura media	14.3
124278	7	Sololá	701	Sololá	4	Finca Santa Victoria	8	Agosto	2023-08-13T00:00:00	2024-11-08T00:00:00	4	Temperatura máxima	15.2
124279	7	Sololá	701	Sololá	4	Finca Santa Victoria	8	Agosto	2023-08-13T00:00:00	2024-11-08T00:00:00	3	Temperatura mínima	14.3
124280	7	Sololá	701	Sololá	4	Finca Santa Victoria	8	Agosto	2023-08-13T00:00:00	2024-11-08T00:00:00	5	Humedad	85
124281	7	Sololá	701	Sololá	4	Finca Santa Victoria	8	Agosto	2023-08-13T00:00:00	2024-11-08T00:00:00	6	Velocidad del viento	4.8
124282	7	Sololá	701	Sololá	4	Finca Santa Victoria	8	Agosto	2023-08-13T00:00:00	2024-11-08T00:00:00	7	Dirección del viento	4.83
124283	7	Sololá	701	Sololá	4	Finca Santa Victoria	8	Agosto	2023-08-13T00:00:00	2024-11-08T00:00:00	1	Precipitación	0
124284	7	Sololá	701	Sololá	4	Finca Santa Victoria	8	Agosto	2023-08-13T00:00:00	2024-11-08T00:00:00	8	Radiación solar	0
124285	7	Sololá	701	Sololá	4	Finca Santa Victoria	8	Agosto	2023-08-13T00:00:00	2024-11-08T01:00:00	2	Temperatura media	13.4
124286	7	Sololá	701	Sololá	4	Finca Santa Victoria	8	Agosto	2023-08-13T00:00:00	2024-11-08T01:00:00	4	Temperatura máxima	14.3
124287	7	Sololá	701	Sololá	4	Finca Santa Victoria	8	Agosto	2023-08-13T00:00:00	2024-11-08T01:00:00	3	Temperatura mínima	13.4
124288	7	Sololá	701	Sololá	4	Finca Santa Victoria	8	Agosto	2023-08-13T00:00:00	2024-11-08T01:00:00	5	Humedad	87
124289	7	Sololá	701	Sololá	4	Finca Santa Victoria	8	Agosto	2023-08-13T00:00:00	2024-11-08T01:00:00	6	Velocidad del viento	3.2
124290	7	Sololá	701	Sololá	4	Finca Santa Victoria	8	Agosto	2023-08-13T00:00:00	2024-11-08T01:00:00	7	Dirección del viento	3.22
124291	7	Sololá	701	Sololá	4	Finca Santa Victoria	8	Agosto	2023-08-13T00:00:00	2024-11-08T01:00:00	1	Precipitación	0
124292	7	Sololá	701	Sololá	4	Finca Santa Victoria	8	Agosto	2023-08-13T00:00:00	2024-11-08T01:00:00	8	Radiación solar	0
124293	7	Sololá	701	Sololá	4	Finca Santa Victoria	8	Agosto	2023-08-13T00:00:00	2024-11-08T02:00:00	2	Temperatura media	13.6
124294	7	Sololá	701	Sololá	4	Finca Santa Victoria	8	Agosto	2023-08-13T00:00:00	2024-11-08T02:00:00	4	Temperatura máxima	13.6
124295	7	Sololá	701	Sololá	4	Finca Santa Victoria	8	Agosto	2023-08-13T00:00:00	2024-11-08T02:00:00	3	Temperatura mínima	13.3
124296	7	Sololá	701	Sololá	4	Finca Santa Victoria	8	Agosto	2023-08-13T00:00:00	2024-11-08T02:00:00	5	Humedad	87
124297	7	Sololá	701	Sololá	4	Finca Santa Victoria	8	Agosto	2023-08-13T00:00:00	2024-11-08T02:00:00	6	Velocidad del viento	4.8
124298	7	Sololá	701	Sololá	4	Finca Santa Victoria	8	Agosto	2023-08-13T00:00:00	2024-11-08T02:00:00	7	Dirección del viento	4.83
124299	7	Sololá	701	Sololá	4	Finca Santa Victoria	8	Agosto	2023-08-13T00:00:00	2024-11-08T02:00:00	1	Precipitación	0
124300	7	Sololá	701	Sololá	4	Finca Santa Victoria	8	Agosto	2023-08-13T00:00:00	2024-11-08T02:00:00	8	Radiación solar	0
124301	7	Sololá	701	Sololá	4	Finca Santa Victoria	8	Agosto	2023-08-13T00:00:00	2024-11-08T03:00:00	2	Temperatura media	13.6
124302	7	Sololá	701	Sololá	4	Finca Santa Victoria	8	Agosto	2023-08-13T00:00:00	2024-11-08T03:00:00	4	Temperatura máxima	13.7
124303	7	Sololá	701	Sololá	4	Finca Santa Victoria	8	Agosto	2023-08-13T00:00:00	2024-11-08T03:00:00	3	Temperatura mínima	13.6
124304	7	Sololá	701	Sololá	4	Finca Santa Victoria	8	Agosto	2023-08-13T00:00:00	2024-11-08T03:00:00	5	Humedad	85
124305	7	Sololá	701	Sololá	4	Finca Santa Victoria	8	Agosto	2023-08-13T00:00:00	2024-11-08T03:00:00	6	Velocidad del viento	3.2
124306	7	Sololá	701	Sololá	4	Finca Santa Victoria	8	Agosto	2023-08-13T00:00:00	2024-11-08T03:00:00	7	Dirección del viento	3.22
124307	7	Sololá	701	Sololá	4	Finca Santa Victoria	8	Agosto	2023-08-13T00:00:00	2024-11-08T03:00:00	1	Precipitación	0
124308	7	Sololá	701	Sololá	4	Finca Santa Victoria	8	Agosto	2023-08-13T00:00:00	2024-11-08T03:00:00	8	Radiación solar	0
124309	7	Sololá	701	Sololá	4	Finca Santa Victoria	8	Agosto	2023-08-13T00:00:00	2024-11-08T04:00:00	2	Temperatura media	13.5
124310	7	Sololá	701	Sololá	4	Finca Santa Victoria	8	Agosto	2023-08-13T00:00:00	2024-11-08T04:00:00	4	Temperatura máxima	13.7
124311	7	Sololá	701	Sololá	4	Finca Santa Victoria	8	Agosto	2023-08-13T00:00:00	2024-11-08T04:00:00	3	Temperatura mínima	13.4
124312	7	Sololá	701	Sololá	4	Finca Santa Victoria	8	Agosto	2023-08-13T00:00:00	2024-11-08T04:00:00	5	Humedad	86
124313	7	Sololá	701	Sololá	4	Finca Santa Victoria	8	Agosto	2023-08-13T00:00:00	2024-11-08T04:00:00	6	Velocidad del viento	3.2
124314	7	Sololá	701	Sololá	4	Finca Santa Victoria	8	Agosto	2023-08-13T00:00:00	2024-11-08T04:00:00	7	Dirección del viento	3.22
124315	7	Sololá	701	Sololá	4	Finca Santa Victoria	8	Agosto	2023-08-13T00:00:00	2024-11-08T04:00:00	1	Precipitación	0
124316	7	Sololá	701	Sololá	4	Finca Santa Victoria	8	Agosto	2023-08-13T00:00:00	2024-11-08T04:00:00	8	Radiación solar	0
124317	7	Sololá	701	Sololá	4	Finca Santa Victoria	8	Agosto	2023-08-13T00:00:00	2024-11-08T05:00:00	2	Temperatura media	13.8
124318	7	Sololá	701	Sololá	4	Finca Santa Victoria	8	Agosto	2023-08-13T00:00:00	2024-11-08T05:00:00	4	Temperatura máxima	13.9
124319	7	Sololá	701	Sololá	4	Finca Santa Victoria	8	Agosto	2023-08-13T00:00:00	2024-11-08T05:00:00	3	Temperatura mínima	13.4
124320	7	Sololá	701	Sololá	4	Finca Santa Victoria	8	Agosto	2023-08-13T00:00:00	2024-11-08T05:00:00	5	Humedad	86
124321	7	Sololá	701	Sololá	4	Finca Santa Victoria	8	Agosto	2023-08-13T00:00:00	2024-11-08T05:00:00	6	Velocidad del viento	3.2
124322	7	Sololá	701	Sololá	4	Finca Santa Victoria	8	Agosto	2023-08-13T00:00:00	2024-11-08T05:00:00	7	Dirección del viento	3.22
124323	7	Sololá	701	Sololá	4	Finca Santa Victoria	8	Agosto	2023-08-13T00:00:00	2024-11-08T05:00:00	1	Precipitación	0
124324	7	Sololá	701	Sololá	4	Finca Santa Victoria	8	Agosto	2023-08-13T00:00:00	2024-11-08T05:00:00	8	Radiación solar	0
124325	7	Sololá	701	Sololá	4	Finca Santa Victoria	8	Agosto	2023-08-13T00:00:00	2024-11-08T06:00:00	2	Temperatura media	13.9
124326	7	Sololá	701	Sololá	4	Finca Santa Victoria	8	Agosto	2023-08-13T00:00:00	2024-11-08T06:00:00	4	Temperatura máxima	14
124327	7	Sololá	701	Sololá	4	Finca Santa Victoria	8	Agosto	2023-08-13T00:00:00	2024-11-08T06:00:00	3	Temperatura mínima	13.8
124328	7	Sololá	701	Sololá	4	Finca Santa Victoria	8	Agosto	2023-08-13T00:00:00	2024-11-08T06:00:00	5	Humedad	87
124329	7	Sololá	701	Sololá	4	Finca Santa Victoria	8	Agosto	2023-08-13T00:00:00	2024-11-08T06:00:00	6	Velocidad del viento	3.2
124330	7	Sololá	701	Sololá	4	Finca Santa Victoria	8	Agosto	2023-08-13T00:00:00	2024-11-08T06:00:00	7	Dirección del viento	3.22
124331	7	Sololá	701	Sololá	4	Finca Santa Victoria	8	Agosto	2023-08-13T00:00:00	2024-11-08T06:00:00	1	Precipitación	0
124332	7	Sololá	701	Sololá	4	Finca Santa Victoria	8	Agosto	2023-08-13T00:00:00	2024-11-08T06:00:00	8	Radiación solar	0
124333	7	Sololá	701	Sololá	4	Finca Santa Victoria	8	Agosto	2023-08-13T00:00:00	2024-11-08T07:00:00	2	Temperatura media	14.5
124334	7	Sololá	701	Sololá	4	Finca Santa Victoria	8	Agosto	2023-08-13T00:00:00	2024-11-08T07:00:00	4	Temperatura máxima	14.5
124335	7	Sololá	701	Sololá	4	Finca Santa Victoria	8	Agosto	2023-08-13T00:00:00	2024-11-08T07:00:00	3	Temperatura mínima	13.9
124336	7	Sololá	701	Sololá	4	Finca Santa Victoria	8	Agosto	2023-08-13T00:00:00	2024-11-08T07:00:00	5	Humedad	87
124337	7	Sololá	701	Sololá	4	Finca Santa Victoria	8	Agosto	2023-08-13T00:00:00	2024-11-08T07:00:00	6	Velocidad del viento	3.2
124338	7	Sololá	701	Sololá	4	Finca Santa Victoria	8	Agosto	2023-08-13T00:00:00	2024-11-08T07:00:00	7	Dirección del viento	3.22
124339	7	Sololá	701	Sololá	4	Finca Santa Victoria	8	Agosto	2023-08-13T00:00:00	2024-11-08T07:00:00	1	Precipitación	0
124340	7	Sololá	701	Sololá	4	Finca Santa Victoria	8	Agosto	2023-08-13T00:00:00	2024-11-08T07:00:00	8	Radiación solar	30
124341	7	Sololá	701	Sololá	4	Finca Santa Victoria	8	Agosto	2023-08-13T00:00:00	2024-11-08T08:00:00	2	Temperatura media	15.6
124342	7	Sololá	701	Sololá	4	Finca Santa Victoria	8	Agosto	2023-08-13T00:00:00	2024-11-08T08:00:00	4	Temperatura máxima	15.6
124343	7	Sololá	701	Sololá	4	Finca Santa Victoria	8	Agosto	2023-08-13T00:00:00	2024-11-08T08:00:00	3	Temperatura mínima	14.4
124344	7	Sololá	701	Sololá	4	Finca Santa Victoria	8	Agosto	2023-08-13T00:00:00	2024-11-08T08:00:00	5	Humedad	85
124345	7	Sololá	701	Sololá	4	Finca Santa Victoria	8	Agosto	2023-08-13T00:00:00	2024-11-08T08:00:00	6	Velocidad del viento	3.2
124346	7	Sololá	701	Sololá	4	Finca Santa Victoria	8	Agosto	2023-08-13T00:00:00	2024-11-08T08:00:00	7	Dirección del viento	3.22
124347	7	Sololá	701	Sololá	4	Finca Santa Victoria	8	Agosto	2023-08-13T00:00:00	2024-11-08T08:00:00	1	Precipitación	0
124348	7	Sololá	701	Sololá	4	Finca Santa Victoria	8	Agosto	2023-08-13T00:00:00	2024-11-08T08:00:00	8	Radiación solar	103
124349	7	Sololá	701	Sololá	4	Finca Santa Victoria	8	Agosto	2023-08-13T00:00:00	2024-11-08T09:00:00	2	Temperatura media	16.7
124350	7	Sololá	701	Sololá	4	Finca Santa Victoria	8	Agosto	2023-08-13T00:00:00	2024-11-08T09:00:00	4	Temperatura máxima	17.1
124351	7	Sololá	701	Sololá	4	Finca Santa Victoria	8	Agosto	2023-08-13T00:00:00	2024-11-08T09:00:00	3	Temperatura mínima	15.6
124352	7	Sololá	701	Sololá	4	Finca Santa Victoria	8	Agosto	2023-08-13T00:00:00	2024-11-08T09:00:00	5	Humedad	82
124353	7	Sololá	701	Sololá	4	Finca Santa Victoria	8	Agosto	2023-08-13T00:00:00	2024-11-08T09:00:00	6	Velocidad del viento	3.2
124354	7	Sololá	701	Sololá	4	Finca Santa Victoria	8	Agosto	2023-08-13T00:00:00	2024-11-08T09:00:00	7	Dirección del viento	3.22
124355	7	Sololá	701	Sololá	4	Finca Santa Victoria	8	Agosto	2023-08-13T00:00:00	2024-11-08T09:00:00	1	Precipitación	0
124356	7	Sololá	701	Sololá	4	Finca Santa Victoria	8	Agosto	2023-08-13T00:00:00	2024-11-08T09:00:00	8	Radiación solar	193
124357	7	Sololá	701	Sololá	4	Finca Santa Victoria	8	Agosto	2023-08-13T00:00:00	2024-11-08T10:00:00	2	Temperatura media	18.1
124358	7	Sololá	701	Sololá	4	Finca Santa Victoria	8	Agosto	2023-08-13T00:00:00	2024-11-08T10:00:00	4	Temperatura máxima	18.1
124359	7	Sololá	701	Sololá	4	Finca Santa Victoria	8	Agosto	2023-08-13T00:00:00	2024-11-08T10:00:00	3	Temperatura mínima	16.6
124360	7	Sololá	701	Sololá	4	Finca Santa Victoria	8	Agosto	2023-08-13T00:00:00	2024-11-08T10:00:00	5	Humedad	79
124361	7	Sololá	701	Sololá	4	Finca Santa Victoria	8	Agosto	2023-08-13T00:00:00	2024-11-08T10:00:00	6	Velocidad del viento	3.2
124362	7	Sololá	701	Sololá	4	Finca Santa Victoria	8	Agosto	2023-08-13T00:00:00	2024-11-08T10:00:00	7	Dirección del viento	3.22
124363	7	Sololá	701	Sololá	4	Finca Santa Victoria	8	Agosto	2023-08-13T00:00:00	2024-11-08T10:00:00	1	Precipitación	0
124364	7	Sololá	701	Sololá	4	Finca Santa Victoria	8	Agosto	2023-08-13T00:00:00	2024-11-08T10:00:00	8	Radiación solar	244
124365	7	Sololá	701	Sololá	4	Finca Santa Victoria	8	Agosto	2023-08-13T00:00:00	2024-11-08T11:00:00	2	Temperatura media	19.1
124366	7	Sololá	701	Sololá	4	Finca Santa Victoria	8	Agosto	2023-08-13T00:00:00	2024-11-08T11:00:00	4	Temperatura máxima	19.8
124367	7	Sololá	701	Sololá	4	Finca Santa Victoria	8	Agosto	2023-08-13T00:00:00	2024-11-08T11:00:00	3	Temperatura mínima	17.7
124368	7	Sololá	701	Sololá	4	Finca Santa Victoria	8	Agosto	2023-08-13T00:00:00	2024-11-08T11:00:00	5	Humedad	75
124369	7	Sololá	701	Sololá	4	Finca Santa Victoria	8	Agosto	2023-08-13T00:00:00	2024-11-08T11:00:00	6	Velocidad del viento	4.8
124370	7	Sololá	701	Sololá	4	Finca Santa Victoria	8	Agosto	2023-08-13T00:00:00	2024-11-08T11:00:00	7	Dirección del viento	4.83
124371	7	Sololá	701	Sololá	4	Finca Santa Victoria	8	Agosto	2023-08-13T00:00:00	2024-11-08T11:00:00	1	Precipitación	0
124372	7	Sololá	701	Sololá	4	Finca Santa Victoria	8	Agosto	2023-08-13T00:00:00	2024-11-08T11:00:00	8	Radiación solar	281
124373	7	Sololá	701	Sololá	4	Finca Santa Victoria	8	Agosto	2023-08-13T00:00:00	2024-11-08T12:00:00	2	Temperatura media	18.6
124374	7	Sololá	701	Sololá	4	Finca Santa Victoria	8	Agosto	2023-08-13T00:00:00	2024-11-08T12:00:00	4	Temperatura máxima	19.1
124375	7	Sololá	701	Sololá	4	Finca Santa Victoria	8	Agosto	2023-08-13T00:00:00	2024-11-08T12:00:00	3	Temperatura mínima	18.6
124376	7	Sololá	701	Sololá	4	Finca Santa Victoria	8	Agosto	2023-08-13T00:00:00	2024-11-08T12:00:00	5	Humedad	75
124377	7	Sololá	701	Sololá	4	Finca Santa Victoria	8	Agosto	2023-08-13T00:00:00	2024-11-08T12:00:00	6	Velocidad del viento	3.2
124378	7	Sololá	701	Sololá	4	Finca Santa Victoria	8	Agosto	2023-08-13T00:00:00	2024-11-08T12:00:00	7	Dirección del viento	3.22
124379	7	Sololá	701	Sololá	4	Finca Santa Victoria	8	Agosto	2023-08-13T00:00:00	2024-11-08T12:00:00	1	Precipitación	0
124380	7	Sololá	701	Sololá	4	Finca Santa Victoria	8	Agosto	2023-08-13T00:00:00	2024-11-08T12:00:00	8	Radiación solar	181
124381	7	Sololá	701	Sololá	4	Finca Santa Victoria	8	Agosto	2023-08-13T00:00:00	2024-11-08T13:00:00	2	Temperatura media	20.4
124382	7	Sololá	701	Sololá	4	Finca Santa Victoria	8	Agosto	2023-08-13T00:00:00	2024-11-08T13:00:00	4	Temperatura máxima	20.5
124383	7	Sololá	701	Sololá	4	Finca Santa Victoria	8	Agosto	2023-08-13T00:00:00	2024-11-08T13:00:00	3	Temperatura mínima	18.3
124384	7	Sololá	701	Sololá	4	Finca Santa Victoria	8	Agosto	2023-08-13T00:00:00	2024-11-08T13:00:00	5	Humedad	69
124385	7	Sololá	701	Sololá	4	Finca Santa Victoria	8	Agosto	2023-08-13T00:00:00	2024-11-08T13:00:00	6	Velocidad del viento	3.2
124386	7	Sololá	701	Sololá	4	Finca Santa Victoria	8	Agosto	2023-08-13T00:00:00	2024-11-08T13:00:00	7	Dirección del viento	3.22
124387	7	Sololá	701	Sololá	4	Finca Santa Victoria	8	Agosto	2023-08-13T00:00:00	2024-11-08T13:00:00	1	Precipitación	0
124388	7	Sololá	701	Sololá	4	Finca Santa Victoria	8	Agosto	2023-08-13T00:00:00	2024-11-08T13:00:00	8	Radiación solar	259
124389	7	Sololá	701	Sololá	4	Finca Santa Victoria	8	Agosto	2023-08-13T00:00:00	2024-11-08T14:00:00	2	Temperatura media	20.9
124390	7	Sololá	701	Sololá	4	Finca Santa Victoria	8	Agosto	2023-08-13T00:00:00	2024-11-08T14:00:00	4	Temperatura máxima	20.9
124391	7	Sololá	701	Sololá	4	Finca Santa Victoria	8	Agosto	2023-08-13T00:00:00	2024-11-08T14:00:00	3	Temperatura mínima	19.9
124392	7	Sololá	701	Sololá	4	Finca Santa Victoria	8	Agosto	2023-08-13T00:00:00	2024-11-08T14:00:00	5	Humedad	70
124393	7	Sololá	701	Sololá	4	Finca Santa Victoria	8	Agosto	2023-08-13T00:00:00	2024-11-08T14:00:00	6	Velocidad del viento	3.2
124394	7	Sololá	701	Sololá	4	Finca Santa Victoria	8	Agosto	2023-08-13T00:00:00	2024-11-08T14:00:00	7	Dirección del viento	3.22
124395	7	Sololá	701	Sololá	4	Finca Santa Victoria	8	Agosto	2023-08-13T00:00:00	2024-11-08T14:00:00	1	Precipitación	0
124396	7	Sololá	701	Sololá	4	Finca Santa Victoria	8	Agosto	2023-08-13T00:00:00	2024-11-08T14:00:00	8	Radiación solar	239
124397	7	Sololá	701	Sololá	4	Finca Santa Victoria	8	Agosto	2023-08-13T00:00:00	2024-11-08T15:00:00	2	Temperatura media	18.7
124398	7	Sololá	701	Sololá	4	Finca Santa Victoria	8	Agosto	2023-08-13T00:00:00	2024-11-08T15:00:00	4	Temperatura máxima	21.3
124399	7	Sololá	701	Sololá	4	Finca Santa Victoria	8	Agosto	2023-08-13T00:00:00	2024-11-08T15:00:00	3	Temperatura mínima	18.7
124400	7	Sololá	701	Sololá	4	Finca Santa Victoria	8	Agosto	2023-08-13T00:00:00	2024-11-08T15:00:00	5	Humedad	87
124401	7	Sololá	701	Sololá	4	Finca Santa Victoria	8	Agosto	2023-08-13T00:00:00	2024-11-08T15:00:00	6	Velocidad del viento	3.2
124402	7	Sololá	701	Sololá	4	Finca Santa Victoria	8	Agosto	2023-08-13T00:00:00	2024-11-08T15:00:00	7	Dirección del viento	3.22
124403	7	Sololá	701	Sololá	4	Finca Santa Victoria	8	Agosto	2023-08-13T00:00:00	2024-11-08T15:00:00	1	Precipitación	0
124404	7	Sololá	701	Sololá	4	Finca Santa Victoria	8	Agosto	2023-08-13T00:00:00	2024-11-08T15:00:00	8	Radiación solar	164
124405	7	Sololá	701	Sololá	4	Finca Santa Victoria	8	Agosto	2023-08-13T00:00:00	2024-11-08T16:00:00	2	Temperatura media	17.1
124406	7	Sololá	701	Sololá	4	Finca Santa Victoria	8	Agosto	2023-08-13T00:00:00	2024-11-08T16:00:00	4	Temperatura máxima	18.9
124407	7	Sololá	701	Sololá	4	Finca Santa Victoria	8	Agosto	2023-08-13T00:00:00	2024-11-08T16:00:00	3	Temperatura mínima	17.1
124408	7	Sololá	701	Sololá	4	Finca Santa Victoria	8	Agosto	2023-08-13T00:00:00	2024-11-08T16:00:00	5	Humedad	90
124409	7	Sololá	701	Sololá	4	Finca Santa Victoria	8	Agosto	2023-08-13T00:00:00	2024-11-08T16:00:00	6	Velocidad del viento	3.2
124410	7	Sololá	701	Sololá	4	Finca Santa Victoria	8	Agosto	2023-08-13T00:00:00	2024-11-08T16:00:00	7	Dirección del viento	3.22
124411	7	Sololá	701	Sololá	4	Finca Santa Victoria	8	Agosto	2023-08-13T00:00:00	2024-11-08T16:00:00	1	Precipitación	0
124412	7	Sololá	701	Sololá	4	Finca Santa Victoria	8	Agosto	2023-08-13T00:00:00	2024-11-08T16:00:00	8	Radiación solar	140
124413	7	Sololá	701	Sololá	4	Finca Santa Victoria	8	Agosto	2023-08-13T00:00:00	2024-11-08T17:00:00	2	Temperatura media	16.6
124414	7	Sololá	701	Sololá	4	Finca Santa Victoria	8	Agosto	2023-08-13T00:00:00	2024-11-08T17:00:00	4	Temperatura máxima	17.8
124415	7	Sololá	701	Sololá	4	Finca Santa Victoria	8	Agosto	2023-08-13T00:00:00	2024-11-08T17:00:00	3	Temperatura mínima	16.6
124416	7	Sololá	701	Sololá	4	Finca Santa Victoria	8	Agosto	2023-08-13T00:00:00	2024-11-08T17:00:00	5	Humedad	94
124417	7	Sololá	701	Sololá	4	Finca Santa Victoria	8	Agosto	2023-08-13T00:00:00	2024-11-08T17:00:00	6	Velocidad del viento	1.6
124418	7	Sololá	701	Sololá	4	Finca Santa Victoria	8	Agosto	2023-08-13T00:00:00	2024-11-08T17:00:00	7	Dirección del viento	1.61
124419	7	Sololá	701	Sololá	4	Finca Santa Victoria	8	Agosto	2023-08-13T00:00:00	2024-11-08T17:00:00	1	Precipitación	0
124420	7	Sololá	701	Sololá	4	Finca Santa Victoria	8	Agosto	2023-08-13T00:00:00	2024-11-08T17:00:00	8	Radiación solar	98
124421	7	Sololá	701	Sololá	4	Finca Santa Victoria	8	Agosto	2023-08-13T00:00:00	2024-11-08T18:00:00	2	Temperatura media	15.9
124422	7	Sololá	701	Sololá	4	Finca Santa Victoria	8	Agosto	2023-08-13T00:00:00	2024-11-08T18:00:00	4	Temperatura máxima	16.6
124423	7	Sololá	701	Sololá	4	Finca Santa Victoria	8	Agosto	2023-08-13T00:00:00	2024-11-08T18:00:00	3	Temperatura mínima	15.9
124424	7	Sololá	701	Sololá	4	Finca Santa Victoria	8	Agosto	2023-08-13T00:00:00	2024-11-08T18:00:00	5	Humedad	96
124425	7	Sololá	701	Sololá	4	Finca Santa Victoria	8	Agosto	2023-08-13T00:00:00	2024-11-08T18:00:00	6	Velocidad del viento	1.6
124426	7	Sololá	701	Sololá	4	Finca Santa Victoria	8	Agosto	2023-08-13T00:00:00	2024-11-08T18:00:00	7	Dirección del viento	1.61
124427	7	Sololá	701	Sololá	4	Finca Santa Victoria	8	Agosto	2023-08-13T00:00:00	2024-11-08T18:00:00	1	Precipitación	0
124428	7	Sololá	701	Sololá	4	Finca Santa Victoria	8	Agosto	2023-08-13T00:00:00	2024-11-08T18:00:00	8	Radiación solar	43
124429	7	Sololá	701	Sololá	4	Finca Santa Victoria	8	Agosto	2023-08-13T00:00:00	2024-11-08T19:00:00	2	Temperatura media	13.7
124430	7	Sololá	701	Sololá	4	Finca Santa Victoria	8	Agosto	2023-08-13T00:00:00	2024-11-08T19:00:00	4	Temperatura máxima	15.9
124431	7	Sololá	701	Sololá	4	Finca Santa Victoria	8	Agosto	2023-08-13T00:00:00	2024-11-08T19:00:00	3	Temperatura mínima	13.7
124432	7	Sololá	701	Sololá	4	Finca Santa Victoria	8	Agosto	2023-08-13T00:00:00	2024-11-08T19:00:00	5	Humedad	94
124433	7	Sololá	701	Sololá	4	Finca Santa Victoria	8	Agosto	2023-08-13T00:00:00	2024-11-08T19:00:00	6	Velocidad del viento	3.2
124434	7	Sololá	701	Sololá	4	Finca Santa Victoria	8	Agosto	2023-08-13T00:00:00	2024-11-08T19:00:00	7	Dirección del viento	3.22
124435	7	Sololá	701	Sololá	4	Finca Santa Victoria	8	Agosto	2023-08-13T00:00:00	2024-11-08T19:00:00	1	Precipitación	4.8
124436	7	Sololá	701	Sololá	4	Finca Santa Victoria	8	Agosto	2023-08-13T00:00:00	2024-11-08T19:00:00	8	Radiación solar	0
124437	7	Sololá	701	Sololá	4	Finca Santa Victoria	8	Agosto	2023-08-13T00:00:00	2024-11-08T20:00:00	2	Temperatura media	12.8
124438	7	Sololá	701	Sololá	4	Finca Santa Victoria	8	Agosto	2023-08-13T00:00:00	2024-11-08T20:00:00	4	Temperatura máxima	13.7
124439	7	Sololá	701	Sololá	4	Finca Santa Victoria	8	Agosto	2023-08-13T00:00:00	2024-11-08T20:00:00	3	Temperatura mínima	12.8
124440	7	Sololá	701	Sololá	4	Finca Santa Victoria	8	Agosto	2023-08-13T00:00:00	2024-11-08T20:00:00	5	Humedad	95
124441	7	Sololá	701	Sololá	4	Finca Santa Victoria	8	Agosto	2023-08-13T00:00:00	2024-11-08T20:00:00	6	Velocidad del viento	1.6
124442	7	Sololá	701	Sololá	4	Finca Santa Victoria	8	Agosto	2023-08-13T00:00:00	2024-11-08T20:00:00	7	Dirección del viento	1.61
124443	7	Sololá	701	Sololá	4	Finca Santa Victoria	8	Agosto	2023-08-13T00:00:00	2024-11-08T20:00:00	1	Precipitación	0.2
124444	7	Sololá	701	Sololá	4	Finca Santa Victoria	8	Agosto	2023-08-13T00:00:00	2024-11-08T20:00:00	8	Radiación solar	0
124445	7	Sololá	701	Sololá	4	Finca Santa Victoria	8	Agosto	2023-08-13T00:00:00	2024-11-08T21:00:00	2	Temperatura media	13.4
124446	7	Sololá	701	Sololá	4	Finca Santa Victoria	8	Agosto	2023-08-13T00:00:00	2024-11-08T21:00:00	4	Temperatura máxima	13.4
124447	7	Sololá	701	Sololá	4	Finca Santa Victoria	8	Agosto	2023-08-13T00:00:00	2024-11-08T21:00:00	3	Temperatura mínima	12.8
124448	7	Sololá	701	Sololá	4	Finca Santa Victoria	8	Agosto	2023-08-13T00:00:00	2024-11-08T21:00:00	5	Humedad	95
124449	7	Sololá	701	Sololá	4	Finca Santa Victoria	8	Agosto	2023-08-13T00:00:00	2024-11-08T21:00:00	6	Velocidad del viento	1.6
124450	7	Sololá	701	Sololá	4	Finca Santa Victoria	8	Agosto	2023-08-13T00:00:00	2024-11-08T21:00:00	7	Dirección del viento	1.61
124451	7	Sololá	701	Sololá	4	Finca Santa Victoria	8	Agosto	2023-08-13T00:00:00	2024-11-08T21:00:00	1	Precipitación	0
124452	7	Sololá	701	Sololá	4	Finca Santa Victoria	8	Agosto	2023-08-13T00:00:00	2024-11-08T21:00:00	8	Radiación solar	0
124453	7	Sololá	701	Sololá	4	Finca Santa Victoria	8	Agosto	2023-08-13T00:00:00	2024-11-08T22:00:00	2	Temperatura media	13.7
124454	7	Sololá	701	Sololá	4	Finca Santa Victoria	8	Agosto	2023-08-13T00:00:00	2024-11-08T22:00:00	4	Temperatura máxima	13.7
124455	7	Sololá	701	Sololá	4	Finca Santa Victoria	8	Agosto	2023-08-13T00:00:00	2024-11-08T22:00:00	3	Temperatura mínima	13.4
124456	7	Sololá	701	Sololá	4	Finca Santa Victoria	8	Agosto	2023-08-13T00:00:00	2024-11-08T22:00:00	5	Humedad	95
124457	7	Sololá	701	Sololá	4	Finca Santa Victoria	8	Agosto	2023-08-13T00:00:00	2024-11-08T22:00:00	6	Velocidad del viento	1.6
124458	7	Sololá	701	Sololá	4	Finca Santa Victoria	8	Agosto	2023-08-13T00:00:00	2024-11-08T22:00:00	7	Dirección del viento	1.61
124459	7	Sololá	701	Sololá	4	Finca Santa Victoria	8	Agosto	2023-08-13T00:00:00	2024-11-08T22:00:00	1	Precipitación	0
124460	7	Sololá	701	Sololá	4	Finca Santa Victoria	8	Agosto	2023-08-13T00:00:00	2024-11-08T22:00:00	8	Radiación solar	0
124461	7	Sololá	701	Sololá	4	Finca Santa Victoria	8	Agosto	2023-08-13T00:00:00	2024-11-08T23:00:00	2	Temperatura media	13.6
124462	7	Sololá	701	Sololá	4	Finca Santa Victoria	8	Agosto	2023-08-13T00:00:00	2024-11-08T23:00:00	4	Temperatura máxima	13.9
124463	7	Sololá	701	Sololá	4	Finca Santa Victoria	8	Agosto	2023-08-13T00:00:00	2024-11-08T23:00:00	3	Temperatura mínima	13.6
124464	7	Sololá	701	Sololá	4	Finca Santa Victoria	8	Agosto	2023-08-13T00:00:00	2024-11-08T23:00:00	5	Humedad	95
124465	7	Sololá	701	Sololá	4	Finca Santa Victoria	8	Agosto	2023-08-13T00:00:00	2024-11-08T23:00:00	6	Velocidad del viento	1.6
124466	7	Sololá	701	Sololá	4	Finca Santa Victoria	8	Agosto	2023-08-13T00:00:00	2024-11-08T23:00:00	7	Dirección del viento	1.61
124467	7	Sololá	701	Sololá	4	Finca Santa Victoria	8	Agosto	2023-08-13T00:00:00	2024-11-08T23:00:00	1	Precipitación	0
124468	7	Sololá	701	Sololá	4	Finca Santa Victoria	8	Agosto	2023-08-13T00:00:00	2024-11-08T23:00:00	8	Radiación solar	0
124469	7	Sololá	701	Sololá	4	Finca Santa Victoria	8	Agosto	2023-08-14T00:00:00	2024-11-08T00:00:00	2	Temperatura media	13.8
124470	7	Sololá	701	Sololá	4	Finca Santa Victoria	8	Agosto	2023-08-14T00:00:00	2024-11-08T00:00:00	4	Temperatura máxima	13.8
124471	7	Sololá	701	Sololá	4	Finca Santa Victoria	8	Agosto	2023-08-14T00:00:00	2024-11-08T00:00:00	3	Temperatura mínima	13.4
124472	7	Sololá	701	Sololá	4	Finca Santa Victoria	8	Agosto	2023-08-14T00:00:00	2024-11-08T00:00:00	5	Humedad	93
124473	7	Sololá	701	Sololá	4	Finca Santa Victoria	8	Agosto	2023-08-14T00:00:00	2024-11-08T00:00:00	6	Velocidad del viento	1.6
124474	7	Sololá	701	Sololá	4	Finca Santa Victoria	8	Agosto	2023-08-14T00:00:00	2024-11-08T00:00:00	7	Dirección del viento	1.61
124475	7	Sololá	701	Sololá	4	Finca Santa Victoria	8	Agosto	2023-08-14T00:00:00	2024-11-08T00:00:00	1	Precipitación	0
124476	7	Sololá	701	Sololá	4	Finca Santa Victoria	8	Agosto	2023-08-14T00:00:00	2024-11-08T00:00:00	8	Radiación solar	0
124477	7	Sololá	701	Sololá	4	Finca Santa Victoria	8	Agosto	2023-08-14T00:00:00	2024-11-08T01:00:00	2	Temperatura media	14
124478	7	Sololá	701	Sololá	4	Finca Santa Victoria	8	Agosto	2023-08-14T00:00:00	2024-11-08T01:00:00	4	Temperatura máxima	14.1
124479	7	Sololá	701	Sololá	4	Finca Santa Victoria	8	Agosto	2023-08-14T00:00:00	2024-11-08T01:00:00	3	Temperatura mínima	13.7
124480	7	Sololá	701	Sololá	4	Finca Santa Victoria	8	Agosto	2023-08-14T00:00:00	2024-11-08T01:00:00	5	Humedad	91
124481	7	Sololá	701	Sololá	4	Finca Santa Victoria	8	Agosto	2023-08-14T00:00:00	2024-11-08T01:00:00	6	Velocidad del viento	3.2
124482	7	Sololá	701	Sololá	4	Finca Santa Victoria	8	Agosto	2023-08-14T00:00:00	2024-11-08T01:00:00	7	Dirección del viento	3.22
124483	7	Sololá	701	Sololá	4	Finca Santa Victoria	8	Agosto	2023-08-14T00:00:00	2024-11-08T01:00:00	1	Precipitación	0
124484	7	Sololá	701	Sololá	4	Finca Santa Victoria	8	Agosto	2023-08-14T00:00:00	2024-11-08T01:00:00	8	Radiación solar	0
124485	7	Sololá	701	Sololá	4	Finca Santa Victoria	8	Agosto	2023-08-14T00:00:00	2024-11-08T02:00:00	2	Temperatura media	13.3
124486	7	Sololá	701	Sololá	4	Finca Santa Victoria	8	Agosto	2023-08-14T00:00:00	2024-11-08T02:00:00	4	Temperatura máxima	14.1
124487	7	Sololá	701	Sololá	4	Finca Santa Victoria	8	Agosto	2023-08-14T00:00:00	2024-11-08T02:00:00	3	Temperatura mínima	13.3
124488	7	Sololá	701	Sololá	4	Finca Santa Victoria	8	Agosto	2023-08-14T00:00:00	2024-11-08T02:00:00	5	Humedad	93
124489	7	Sololá	701	Sololá	4	Finca Santa Victoria	8	Agosto	2023-08-14T00:00:00	2024-11-08T02:00:00	6	Velocidad del viento	1.6
124490	7	Sololá	701	Sololá	4	Finca Santa Victoria	8	Agosto	2023-08-14T00:00:00	2024-11-08T02:00:00	7	Dirección del viento	1.61
124491	7	Sololá	701	Sololá	4	Finca Santa Victoria	8	Agosto	2023-08-14T00:00:00	2024-11-08T02:00:00	1	Precipitación	0
124492	7	Sololá	701	Sololá	4	Finca Santa Victoria	8	Agosto	2023-08-14T00:00:00	2024-11-08T02:00:00	8	Radiación solar	0
124493	7	Sololá	701	Sololá	4	Finca Santa Victoria	8	Agosto	2023-08-14T00:00:00	2024-11-08T03:00:00	2	Temperatura media	13.1
124494	7	Sololá	701	Sololá	4	Finca Santa Victoria	8	Agosto	2023-08-14T00:00:00	2024-11-08T03:00:00	4	Temperatura máxima	13.3
124495	7	Sololá	701	Sololá	4	Finca Santa Victoria	8	Agosto	2023-08-14T00:00:00	2024-11-08T03:00:00	3	Temperatura mínima	13
124496	7	Sololá	701	Sololá	4	Finca Santa Victoria	8	Agosto	2023-08-14T00:00:00	2024-11-08T03:00:00	5	Humedad	89
124497	7	Sololá	701	Sololá	4	Finca Santa Victoria	8	Agosto	2023-08-14T00:00:00	2024-11-08T03:00:00	6	Velocidad del viento	3.2
124498	7	Sololá	701	Sololá	4	Finca Santa Victoria	8	Agosto	2023-08-14T00:00:00	2024-11-08T03:00:00	7	Dirección del viento	3.22
124499	7	Sololá	701	Sololá	4	Finca Santa Victoria	8	Agosto	2023-08-14T00:00:00	2024-11-08T03:00:00	1	Precipitación	0
124500	7	Sololá	701	Sololá	4	Finca Santa Victoria	8	Agosto	2023-08-14T00:00:00	2024-11-08T03:00:00	8	Radiación solar	0
124501	7	Sololá	701	Sololá	4	Finca Santa Victoria	8	Agosto	2023-08-14T00:00:00	2024-11-08T04:00:00	2	Temperatura media	13.4
124502	7	Sololá	701	Sololá	4	Finca Santa Victoria	8	Agosto	2023-08-14T00:00:00	2024-11-08T04:00:00	4	Temperatura máxima	13.4
124503	7	Sololá	701	Sololá	4	Finca Santa Victoria	8	Agosto	2023-08-14T00:00:00	2024-11-08T04:00:00	3	Temperatura mínima	13.1
124504	7	Sololá	701	Sololá	4	Finca Santa Victoria	8	Agosto	2023-08-14T00:00:00	2024-11-08T04:00:00	5	Humedad	87
124505	7	Sololá	701	Sololá	4	Finca Santa Victoria	8	Agosto	2023-08-14T00:00:00	2024-11-08T04:00:00	6	Velocidad del viento	3.2
124506	7	Sololá	701	Sololá	4	Finca Santa Victoria	8	Agosto	2023-08-14T00:00:00	2024-11-08T04:00:00	7	Dirección del viento	3.22
124507	7	Sololá	701	Sololá	4	Finca Santa Victoria	8	Agosto	2023-08-14T00:00:00	2024-11-08T04:00:00	1	Precipitación	0
124508	7	Sololá	701	Sololá	4	Finca Santa Victoria	8	Agosto	2023-08-14T00:00:00	2024-11-08T04:00:00	8	Radiación solar	0
124509	7	Sololá	701	Sololá	4	Finca Santa Victoria	8	Agosto	2023-08-14T00:00:00	2024-11-08T05:00:00	2	Temperatura media	13.7
124510	7	Sololá	701	Sololá	4	Finca Santa Victoria	8	Agosto	2023-08-14T00:00:00	2024-11-08T05:00:00	4	Temperatura máxima	13.9
124511	7	Sololá	701	Sololá	4	Finca Santa Victoria	8	Agosto	2023-08-14T00:00:00	2024-11-08T05:00:00	3	Temperatura mínima	13.4
124512	7	Sololá	701	Sololá	4	Finca Santa Victoria	8	Agosto	2023-08-14T00:00:00	2024-11-08T05:00:00	5	Humedad	86
124513	7	Sololá	701	Sololá	4	Finca Santa Victoria	8	Agosto	2023-08-14T00:00:00	2024-11-08T05:00:00	6	Velocidad del viento	3.2
124514	7	Sololá	701	Sololá	4	Finca Santa Victoria	8	Agosto	2023-08-14T00:00:00	2024-11-08T05:00:00	7	Dirección del viento	3.22
124515	7	Sololá	701	Sololá	4	Finca Santa Victoria	8	Agosto	2023-08-14T00:00:00	2024-11-08T05:00:00	1	Precipitación	0
124516	7	Sololá	701	Sololá	4	Finca Santa Victoria	8	Agosto	2023-08-14T00:00:00	2024-11-08T05:00:00	8	Radiación solar	0
124517	7	Sololá	701	Sololá	4	Finca Santa Victoria	8	Agosto	2023-08-14T00:00:00	2024-11-08T06:00:00	2	Temperatura media	13.9
124518	7	Sololá	701	Sololá	4	Finca Santa Victoria	8	Agosto	2023-08-14T00:00:00	2024-11-08T06:00:00	4	Temperatura máxima	13.9
124519	7	Sololá	701	Sololá	4	Finca Santa Victoria	8	Agosto	2023-08-14T00:00:00	2024-11-08T06:00:00	3	Temperatura mínima	13.6
124520	7	Sololá	701	Sololá	4	Finca Santa Victoria	8	Agosto	2023-08-14T00:00:00	2024-11-08T06:00:00	5	Humedad	86
124521	7	Sololá	701	Sololá	4	Finca Santa Victoria	8	Agosto	2023-08-14T00:00:00	2024-11-08T06:00:00	6	Velocidad del viento	3.2
124522	7	Sololá	701	Sololá	4	Finca Santa Victoria	8	Agosto	2023-08-14T00:00:00	2024-11-08T06:00:00	7	Dirección del viento	3.22
124523	7	Sololá	701	Sololá	4	Finca Santa Victoria	8	Agosto	2023-08-14T00:00:00	2024-11-08T06:00:00	1	Precipitación	0
124524	7	Sololá	701	Sololá	4	Finca Santa Victoria	8	Agosto	2023-08-14T00:00:00	2024-11-08T06:00:00	8	Radiación solar	0
124525	7	Sololá	701	Sololá	4	Finca Santa Victoria	8	Agosto	2023-08-14T00:00:00	2024-11-08T07:00:00	2	Temperatura media	14.3
124526	7	Sololá	701	Sololá	4	Finca Santa Victoria	8	Agosto	2023-08-14T00:00:00	2024-11-08T07:00:00	4	Temperatura máxima	14.3
124527	7	Sololá	701	Sololá	4	Finca Santa Victoria	8	Agosto	2023-08-14T00:00:00	2024-11-08T07:00:00	3	Temperatura mínima	13.9
124528	7	Sololá	701	Sololá	4	Finca Santa Victoria	8	Agosto	2023-08-14T00:00:00	2024-11-08T07:00:00	5	Humedad	85
124529	7	Sololá	701	Sololá	4	Finca Santa Victoria	8	Agosto	2023-08-14T00:00:00	2024-11-08T07:00:00	6	Velocidad del viento	4.8
124530	7	Sololá	701	Sololá	4	Finca Santa Victoria	8	Agosto	2023-08-14T00:00:00	2024-11-08T07:00:00	7	Dirección del viento	4.83
124531	7	Sololá	701	Sololá	4	Finca Santa Victoria	8	Agosto	2023-08-14T00:00:00	2024-11-08T07:00:00	1	Precipitación	0
124532	7	Sololá	701	Sololá	4	Finca Santa Victoria	8	Agosto	2023-08-14T00:00:00	2024-11-08T07:00:00	8	Radiación solar	21
124533	7	Sololá	701	Sololá	4	Finca Santa Victoria	8	Agosto	2023-08-14T00:00:00	2024-11-08T08:00:00	2	Temperatura media	16.3
124534	7	Sololá	701	Sololá	4	Finca Santa Victoria	8	Agosto	2023-08-14T00:00:00	2024-11-08T08:00:00	4	Temperatura máxima	16.4
124535	7	Sololá	701	Sololá	4	Finca Santa Victoria	8	Agosto	2023-08-14T00:00:00	2024-11-08T08:00:00	3	Temperatura mínima	14.3
124536	7	Sololá	701	Sololá	4	Finca Santa Victoria	8	Agosto	2023-08-14T00:00:00	2024-11-08T08:00:00	5	Humedad	77
124537	7	Sololá	701	Sololá	4	Finca Santa Victoria	8	Agosto	2023-08-14T00:00:00	2024-11-08T08:00:00	6	Velocidad del viento	4.8
124538	7	Sololá	701	Sololá	4	Finca Santa Victoria	8	Agosto	2023-08-14T00:00:00	2024-11-08T08:00:00	7	Dirección del viento	4.83
124539	7	Sololá	701	Sololá	4	Finca Santa Victoria	8	Agosto	2023-08-14T00:00:00	2024-11-08T08:00:00	1	Precipitación	0
124540	7	Sololá	701	Sololá	4	Finca Santa Victoria	8	Agosto	2023-08-14T00:00:00	2024-11-08T08:00:00	8	Radiación solar	183
124541	7	Sololá	701	Sololá	4	Finca Santa Victoria	8	Agosto	2023-08-14T00:00:00	2024-11-08T09:00:00	2	Temperatura media	17.3
124542	7	Sololá	701	Sololá	4	Finca Santa Victoria	8	Agosto	2023-08-14T00:00:00	2024-11-08T09:00:00	4	Temperatura máxima	17.3
124543	7	Sololá	701	Sololá	4	Finca Santa Victoria	8	Agosto	2023-08-14T00:00:00	2024-11-08T09:00:00	3	Temperatura mínima	16.3
124544	7	Sololá	701	Sololá	4	Finca Santa Victoria	8	Agosto	2023-08-14T00:00:00	2024-11-08T09:00:00	5	Humedad	72
124545	7	Sololá	701	Sololá	4	Finca Santa Victoria	8	Agosto	2023-08-14T00:00:00	2024-11-08T09:00:00	6	Velocidad del viento	4.8
124546	7	Sololá	701	Sololá	4	Finca Santa Victoria	8	Agosto	2023-08-14T00:00:00	2024-11-08T09:00:00	7	Dirección del viento	4.83
124547	7	Sololá	701	Sololá	4	Finca Santa Victoria	8	Agosto	2023-08-14T00:00:00	2024-11-08T09:00:00	1	Precipitación	0
124548	7	Sololá	701	Sololá	4	Finca Santa Victoria	8	Agosto	2023-08-14T00:00:00	2024-11-08T09:00:00	8	Radiación solar	275
124549	7	Sololá	701	Sololá	4	Finca Santa Victoria	8	Agosto	2023-08-14T00:00:00	2024-11-08T10:00:00	2	Temperatura media	18.4
124550	7	Sololá	701	Sololá	4	Finca Santa Victoria	8	Agosto	2023-08-14T00:00:00	2024-11-08T10:00:00	4	Temperatura máxima	18.5
124551	7	Sololá	701	Sololá	4	Finca Santa Victoria	8	Agosto	2023-08-14T00:00:00	2024-11-08T10:00:00	3	Temperatura mínima	17.3
124552	7	Sololá	701	Sololá	4	Finca Santa Victoria	8	Agosto	2023-08-14T00:00:00	2024-11-08T10:00:00	5	Humedad	67
124553	7	Sololá	701	Sololá	4	Finca Santa Victoria	8	Agosto	2023-08-14T00:00:00	2024-11-08T10:00:00	6	Velocidad del viento	6.4
124554	7	Sololá	701	Sololá	4	Finca Santa Victoria	8	Agosto	2023-08-14T00:00:00	2024-11-08T10:00:00	7	Dirección del viento	6.44
124555	7	Sololá	701	Sololá	4	Finca Santa Victoria	8	Agosto	2023-08-14T00:00:00	2024-11-08T10:00:00	1	Precipitación	0
124556	7	Sololá	701	Sololá	4	Finca Santa Victoria	8	Agosto	2023-08-14T00:00:00	2024-11-08T10:00:00	8	Radiación solar	143
124557	7	Sololá	701	Sololá	4	Finca Santa Victoria	8	Agosto	2023-08-14T00:00:00	2024-11-08T11:00:00	2	Temperatura media	20.2
124558	7	Sololá	701	Sololá	4	Finca Santa Victoria	8	Agosto	2023-08-14T00:00:00	2024-11-08T11:00:00	4	Temperatura máxima	20.2
124559	7	Sololá	701	Sololá	4	Finca Santa Victoria	8	Agosto	2023-08-14T00:00:00	2024-11-08T11:00:00	3	Temperatura mínima	18.4
124560	7	Sololá	701	Sololá	4	Finca Santa Victoria	8	Agosto	2023-08-14T00:00:00	2024-11-08T11:00:00	5	Humedad	63
124561	7	Sololá	701	Sololá	4	Finca Santa Victoria	8	Agosto	2023-08-14T00:00:00	2024-11-08T11:00:00	6	Velocidad del viento	4.8
124562	7	Sololá	701	Sololá	4	Finca Santa Victoria	8	Agosto	2023-08-14T00:00:00	2024-11-08T11:00:00	7	Dirección del viento	4.83
124563	7	Sololá	701	Sololá	4	Finca Santa Victoria	8	Agosto	2023-08-14T00:00:00	2024-11-08T11:00:00	1	Precipitación	0
124564	7	Sololá	701	Sololá	4	Finca Santa Victoria	8	Agosto	2023-08-14T00:00:00	2024-11-08T11:00:00	8	Radiación solar	463
124565	7	Sololá	701	Sololá	4	Finca Santa Victoria	8	Agosto	2023-08-14T00:00:00	2024-11-08T12:00:00	2	Temperatura media	19.5
124566	7	Sololá	701	Sololá	4	Finca Santa Victoria	8	Agosto	2023-08-14T00:00:00	2024-11-08T12:00:00	4	Temperatura máxima	20.4
124567	7	Sololá	701	Sololá	4	Finca Santa Victoria	8	Agosto	2023-08-14T00:00:00	2024-11-08T12:00:00	3	Temperatura mínima	19.5
124568	7	Sololá	701	Sololá	4	Finca Santa Victoria	8	Agosto	2023-08-14T00:00:00	2024-11-08T12:00:00	5	Humedad	62
124569	7	Sololá	701	Sololá	4	Finca Santa Victoria	8	Agosto	2023-08-14T00:00:00	2024-11-08T12:00:00	6	Velocidad del viento	4.8
124570	7	Sololá	701	Sololá	4	Finca Santa Victoria	8	Agosto	2023-08-14T00:00:00	2024-11-08T12:00:00	7	Dirección del viento	4.83
124571	7	Sololá	701	Sololá	4	Finca Santa Victoria	8	Agosto	2023-08-14T00:00:00	2024-11-08T12:00:00	1	Precipitación	0
124572	7	Sololá	701	Sololá	4	Finca Santa Victoria	8	Agosto	2023-08-14T00:00:00	2024-11-08T12:00:00	8	Radiación solar	702
124573	7	Sololá	701	Sololá	4	Finca Santa Victoria	8	Agosto	2023-08-14T00:00:00	2024-11-08T13:00:00	2	Temperatura media	20.2
124574	7	Sololá	701	Sololá	4	Finca Santa Victoria	8	Agosto	2023-08-14T00:00:00	2024-11-08T13:00:00	4	Temperatura máxima	20.7
124575	7	Sololá	701	Sololá	4	Finca Santa Victoria	8	Agosto	2023-08-14T00:00:00	2024-11-08T13:00:00	3	Temperatura mínima	19.6
124576	7	Sololá	701	Sololá	4	Finca Santa Victoria	8	Agosto	2023-08-14T00:00:00	2024-11-08T13:00:00	5	Humedad	59
124577	7	Sololá	701	Sololá	4	Finca Santa Victoria	8	Agosto	2023-08-14T00:00:00	2024-11-08T13:00:00	6	Velocidad del viento	6.4
124578	7	Sololá	701	Sololá	4	Finca Santa Victoria	8	Agosto	2023-08-14T00:00:00	2024-11-08T13:00:00	7	Dirección del viento	6.44
124579	7	Sololá	701	Sololá	4	Finca Santa Victoria	8	Agosto	2023-08-14T00:00:00	2024-11-08T13:00:00	1	Precipitación	0
124580	7	Sololá	701	Sololá	4	Finca Santa Victoria	8	Agosto	2023-08-14T00:00:00	2024-11-08T13:00:00	8	Radiación solar	380
124581	7	Sololá	701	Sololá	4	Finca Santa Victoria	8	Agosto	2023-08-14T00:00:00	2024-11-08T14:00:00	2	Temperatura media	20.7
124582	7	Sololá	701	Sololá	4	Finca Santa Victoria	8	Agosto	2023-08-14T00:00:00	2024-11-08T14:00:00	4	Temperatura máxima	21.4
124583	7	Sololá	701	Sololá	4	Finca Santa Victoria	8	Agosto	2023-08-14T00:00:00	2024-11-08T14:00:00	3	Temperatura mínima	19.6
124584	7	Sololá	701	Sololá	4	Finca Santa Victoria	8	Agosto	2023-08-14T00:00:00	2024-11-08T14:00:00	5	Humedad	60
124585	7	Sololá	701	Sololá	4	Finca Santa Victoria	8	Agosto	2023-08-14T00:00:00	2024-11-08T14:00:00	6	Velocidad del viento	4.8
124586	7	Sololá	701	Sololá	4	Finca Santa Victoria	8	Agosto	2023-08-14T00:00:00	2024-11-08T14:00:00	7	Dirección del viento	4.83
124587	7	Sololá	701	Sololá	4	Finca Santa Victoria	8	Agosto	2023-08-14T00:00:00	2024-11-08T14:00:00	1	Precipitación	0
124588	7	Sololá	701	Sololá	4	Finca Santa Victoria	8	Agosto	2023-08-14T00:00:00	2024-11-08T14:00:00	8	Radiación solar	160
124589	7	Sololá	701	Sololá	4	Finca Santa Victoria	8	Agosto	2023-08-14T00:00:00	2024-11-08T15:00:00	2	Temperatura media	19.8
124590	7	Sololá	701	Sololá	4	Finca Santa Victoria	8	Agosto	2023-08-14T00:00:00	2024-11-08T15:00:00	4	Temperatura máxima	20.7
124591	7	Sololá	701	Sololá	4	Finca Santa Victoria	8	Agosto	2023-08-14T00:00:00	2024-11-08T15:00:00	3	Temperatura mínima	19.6
124592	7	Sololá	701	Sololá	4	Finca Santa Victoria	8	Agosto	2023-08-14T00:00:00	2024-11-08T15:00:00	5	Humedad	70
124593	7	Sololá	701	Sololá	4	Finca Santa Victoria	8	Agosto	2023-08-14T00:00:00	2024-11-08T15:00:00	6	Velocidad del viento	4.8
124594	7	Sololá	701	Sololá	4	Finca Santa Victoria	8	Agosto	2023-08-14T00:00:00	2024-11-08T15:00:00	7	Dirección del viento	4.83
124595	7	Sololá	701	Sololá	4	Finca Santa Victoria	8	Agosto	2023-08-14T00:00:00	2024-11-08T15:00:00	1	Precipitación	0
124596	7	Sololá	701	Sololá	4	Finca Santa Victoria	8	Agosto	2023-08-14T00:00:00	2024-11-08T15:00:00	8	Radiación solar	210
124597	7	Sololá	701	Sololá	4	Finca Santa Victoria	8	Agosto	2023-08-14T00:00:00	2024-11-08T16:00:00	2	Temperatura media	18.9
124598	7	Sololá	701	Sololá	4	Finca Santa Victoria	8	Agosto	2023-08-14T00:00:00	2024-11-08T16:00:00	4	Temperatura máxima	20.4
124599	7	Sololá	701	Sololá	4	Finca Santa Victoria	8	Agosto	2023-08-14T00:00:00	2024-11-08T16:00:00	3	Temperatura mínima	18.7
124600	7	Sololá	701	Sololá	4	Finca Santa Victoria	8	Agosto	2023-08-14T00:00:00	2024-11-08T16:00:00	5	Humedad	70
124601	7	Sololá	701	Sololá	4	Finca Santa Victoria	8	Agosto	2023-08-14T00:00:00	2024-11-08T16:00:00	6	Velocidad del viento	3.2
124602	7	Sololá	701	Sololá	4	Finca Santa Victoria	8	Agosto	2023-08-14T00:00:00	2024-11-08T16:00:00	7	Dirección del viento	3.22
124603	7	Sololá	701	Sololá	4	Finca Santa Victoria	8	Agosto	2023-08-14T00:00:00	2024-11-08T16:00:00	1	Precipitación	0
124604	7	Sololá	701	Sololá	4	Finca Santa Victoria	8	Agosto	2023-08-14T00:00:00	2024-11-08T16:00:00	8	Radiación solar	127
124605	7	Sololá	701	Sololá	4	Finca Santa Victoria	8	Agosto	2023-08-14T00:00:00	2024-11-08T17:00:00	2	Temperatura media	18.6
124606	7	Sololá	701	Sololá	4	Finca Santa Victoria	8	Agosto	2023-08-14T00:00:00	2024-11-08T17:00:00	4	Temperatura máxima	19.4
124607	7	Sololá	701	Sololá	4	Finca Santa Victoria	8	Agosto	2023-08-14T00:00:00	2024-11-08T17:00:00	3	Temperatura mínima	18.6
124608	7	Sololá	701	Sololá	4	Finca Santa Victoria	8	Agosto	2023-08-14T00:00:00	2024-11-08T17:00:00	5	Humedad	73
124609	7	Sololá	701	Sololá	4	Finca Santa Victoria	8	Agosto	2023-08-14T00:00:00	2024-11-08T17:00:00	6	Velocidad del viento	3.2
124610	7	Sololá	701	Sololá	4	Finca Santa Victoria	8	Agosto	2023-08-14T00:00:00	2024-11-08T17:00:00	7	Dirección del viento	3.22
124611	7	Sololá	701	Sololá	4	Finca Santa Victoria	8	Agosto	2023-08-14T00:00:00	2024-11-08T17:00:00	1	Precipitación	0
124612	7	Sololá	701	Sololá	4	Finca Santa Victoria	8	Agosto	2023-08-14T00:00:00	2024-11-08T17:00:00	8	Radiación solar	121
124613	7	Sololá	701	Sololá	4	Finca Santa Victoria	8	Agosto	2023-08-14T00:00:00	2024-11-08T18:00:00	2	Temperatura media	16.8
124614	7	Sololá	701	Sololá	4	Finca Santa Victoria	8	Agosto	2023-08-14T00:00:00	2024-11-08T18:00:00	4	Temperatura máxima	18.6
124615	7	Sololá	701	Sololá	4	Finca Santa Victoria	8	Agosto	2023-08-14T00:00:00	2024-11-08T18:00:00	3	Temperatura mínima	16.8
124616	7	Sololá	701	Sololá	4	Finca Santa Victoria	8	Agosto	2023-08-14T00:00:00	2024-11-08T18:00:00	5	Humedad	78
124617	7	Sololá	701	Sololá	4	Finca Santa Victoria	8	Agosto	2023-08-14T00:00:00	2024-11-08T18:00:00	6	Velocidad del viento	3.2
124618	7	Sololá	701	Sololá	4	Finca Santa Victoria	8	Agosto	2023-08-14T00:00:00	2024-11-08T18:00:00	7	Dirección del viento	3.22
124619	7	Sololá	701	Sololá	4	Finca Santa Victoria	8	Agosto	2023-08-14T00:00:00	2024-11-08T18:00:00	1	Precipitación	0
124620	7	Sololá	701	Sololá	4	Finca Santa Victoria	8	Agosto	2023-08-14T00:00:00	2024-11-08T18:00:00	8	Radiación solar	41
124621	7	Sololá	701	Sololá	4	Finca Santa Victoria	8	Agosto	2023-08-14T00:00:00	2024-11-08T19:00:00	2	Temperatura media	15.5
124622	7	Sololá	701	Sololá	4	Finca Santa Victoria	8	Agosto	2023-08-14T00:00:00	2024-11-08T19:00:00	4	Temperatura máxima	16.8
124623	7	Sololá	701	Sololá	4	Finca Santa Victoria	8	Agosto	2023-08-14T00:00:00	2024-11-08T19:00:00	3	Temperatura mínima	15.5
124624	7	Sololá	701	Sololá	4	Finca Santa Victoria	8	Agosto	2023-08-14T00:00:00	2024-11-08T19:00:00	5	Humedad	81
124625	7	Sololá	701	Sololá	4	Finca Santa Victoria	8	Agosto	2023-08-14T00:00:00	2024-11-08T19:00:00	6	Velocidad del viento	1.6
124626	7	Sololá	701	Sololá	4	Finca Santa Victoria	8	Agosto	2023-08-14T00:00:00	2024-11-08T19:00:00	7	Dirección del viento	1.61
124627	7	Sololá	701	Sololá	4	Finca Santa Victoria	8	Agosto	2023-08-14T00:00:00	2024-11-08T19:00:00	1	Precipitación	0
124628	7	Sololá	701	Sololá	4	Finca Santa Victoria	8	Agosto	2023-08-14T00:00:00	2024-11-08T19:00:00	8	Radiación solar	0
124629	7	Sololá	701	Sololá	4	Finca Santa Victoria	8	Agosto	2023-08-14T00:00:00	2024-11-08T20:00:00	2	Temperatura media	15.3
124630	7	Sololá	701	Sololá	4	Finca Santa Victoria	8	Agosto	2023-08-14T00:00:00	2024-11-08T20:00:00	4	Temperatura máxima	15.5
124631	7	Sololá	701	Sololá	4	Finca Santa Victoria	8	Agosto	2023-08-14T00:00:00	2024-11-08T20:00:00	3	Temperatura mínima	15.1
124632	7	Sololá	701	Sololá	4	Finca Santa Victoria	8	Agosto	2023-08-14T00:00:00	2024-11-08T20:00:00	5	Humedad	83
124633	7	Sololá	701	Sololá	4	Finca Santa Victoria	8	Agosto	2023-08-14T00:00:00	2024-11-08T20:00:00	6	Velocidad del viento	3.2
124634	7	Sololá	701	Sololá	4	Finca Santa Victoria	8	Agosto	2023-08-14T00:00:00	2024-11-08T20:00:00	7	Dirección del viento	3.22
124635	7	Sololá	701	Sololá	4	Finca Santa Victoria	8	Agosto	2023-08-14T00:00:00	2024-11-08T20:00:00	1	Precipitación	0
124636	7	Sololá	701	Sololá	4	Finca Santa Victoria	8	Agosto	2023-08-14T00:00:00	2024-11-08T20:00:00	8	Radiación solar	0
124637	7	Sololá	701	Sololá	4	Finca Santa Victoria	8	Agosto	2023-08-14T00:00:00	2024-11-08T21:00:00	2	Temperatura media	14.4
124638	7	Sololá	701	Sololá	4	Finca Santa Victoria	8	Agosto	2023-08-14T00:00:00	2024-11-08T21:00:00	4	Temperatura máxima	15.4
124639	7	Sololá	701	Sololá	4	Finca Santa Victoria	8	Agosto	2023-08-14T00:00:00	2024-11-08T21:00:00	3	Temperatura mínima	14.3
124640	7	Sololá	701	Sololá	4	Finca Santa Victoria	8	Agosto	2023-08-14T00:00:00	2024-11-08T21:00:00	5	Humedad	89
124641	7	Sololá	701	Sololá	4	Finca Santa Victoria	8	Agosto	2023-08-14T00:00:00	2024-11-08T21:00:00	6	Velocidad del viento	1.6
124642	7	Sololá	701	Sololá	4	Finca Santa Victoria	8	Agosto	2023-08-14T00:00:00	2024-11-08T21:00:00	7	Dirección del viento	1.61
124643	7	Sololá	701	Sololá	4	Finca Santa Victoria	8	Agosto	2023-08-14T00:00:00	2024-11-08T21:00:00	1	Precipitación	0
124644	7	Sololá	701	Sololá	4	Finca Santa Victoria	8	Agosto	2023-08-14T00:00:00	2024-11-08T21:00:00	8	Radiación solar	0
124645	7	Sololá	701	Sololá	4	Finca Santa Victoria	8	Agosto	2023-08-14T00:00:00	2024-11-08T22:00:00	2	Temperatura media	14.6
124646	7	Sololá	701	Sololá	4	Finca Santa Victoria	8	Agosto	2023-08-14T00:00:00	2024-11-08T22:00:00	4	Temperatura máxima	14.6
124647	7	Sololá	701	Sololá	4	Finca Santa Victoria	8	Agosto	2023-08-14T00:00:00	2024-11-08T22:00:00	3	Temperatura mínima	14.2
124648	7	Sololá	701	Sololá	4	Finca Santa Victoria	8	Agosto	2023-08-14T00:00:00	2024-11-08T22:00:00	5	Humedad	87
124649	7	Sololá	701	Sololá	4	Finca Santa Victoria	8	Agosto	2023-08-14T00:00:00	2024-11-08T22:00:00	6	Velocidad del viento	3.2
124650	7	Sololá	701	Sololá	4	Finca Santa Victoria	8	Agosto	2023-08-14T00:00:00	2024-11-08T22:00:00	7	Dirección del viento	3.22
124651	7	Sololá	701	Sololá	4	Finca Santa Victoria	8	Agosto	2023-08-14T00:00:00	2024-11-08T22:00:00	1	Precipitación	0
124652	7	Sololá	701	Sololá	4	Finca Santa Victoria	8	Agosto	2023-08-14T00:00:00	2024-11-08T22:00:00	8	Radiación solar	0
124653	7	Sololá	701	Sololá	4	Finca Santa Victoria	8	Agosto	2023-08-14T00:00:00	2024-11-08T23:00:00	2	Temperatura media	14.7
124654	7	Sololá	701	Sololá	4	Finca Santa Victoria	8	Agosto	2023-08-14T00:00:00	2024-11-08T23:00:00	4	Temperatura máxima	14.8
124655	7	Sololá	701	Sololá	4	Finca Santa Victoria	8	Agosto	2023-08-14T00:00:00	2024-11-08T23:00:00	3	Temperatura mínima	14.6
124656	7	Sololá	701	Sololá	4	Finca Santa Victoria	8	Agosto	2023-08-14T00:00:00	2024-11-08T23:00:00	5	Humedad	88
124657	7	Sololá	701	Sololá	4	Finca Santa Victoria	8	Agosto	2023-08-14T00:00:00	2024-11-08T23:00:00	6	Velocidad del viento	3.2
124658	7	Sololá	701	Sololá	4	Finca Santa Victoria	8	Agosto	2023-08-14T00:00:00	2024-11-08T23:00:00	7	Dirección del viento	3.22
124659	7	Sololá	701	Sololá	4	Finca Santa Victoria	8	Agosto	2023-08-14T00:00:00	2024-11-08T23:00:00	1	Precipitación	0
124660	7	Sololá	701	Sololá	4	Finca Santa Victoria	8	Agosto	2023-08-14T00:00:00	2024-11-08T23:00:00	8	Radiación solar	0
124661	7	Sololá	701	Sololá	4	Finca Santa Victoria	8	Agosto	2023-08-15T00:00:00	2024-11-08T00:00:00	2	Temperatura media	13.2
124662	7	Sololá	701	Sololá	4	Finca Santa Victoria	8	Agosto	2023-08-15T00:00:00	2024-11-08T00:00:00	4	Temperatura máxima	14.7
124663	7	Sololá	701	Sololá	4	Finca Santa Victoria	8	Agosto	2023-08-15T00:00:00	2024-11-08T00:00:00	3	Temperatura mínima	13.2
124664	7	Sololá	701	Sololá	4	Finca Santa Victoria	8	Agosto	2023-08-15T00:00:00	2024-11-08T00:00:00	5	Humedad	95
124665	7	Sololá	701	Sololá	4	Finca Santa Victoria	8	Agosto	2023-08-15T00:00:00	2024-11-08T00:00:00	6	Velocidad del viento	0
124666	7	Sololá	701	Sololá	4	Finca Santa Victoria	8	Agosto	2023-08-15T00:00:00	2024-11-08T00:00:00	7	Dirección del viento	0
124667	7	Sololá	701	Sololá	4	Finca Santa Victoria	8	Agosto	2023-08-15T00:00:00	2024-11-08T00:00:00	1	Precipitación	9.8
124668	7	Sololá	701	Sololá	4	Finca Santa Victoria	8	Agosto	2023-08-15T00:00:00	2024-11-08T00:00:00	8	Radiación solar	0
124669	7	Sololá	701	Sololá	4	Finca Santa Victoria	8	Agosto	2023-08-15T00:00:00	2024-11-08T01:00:00	2	Temperatura media	12.9
124670	7	Sololá	701	Sololá	4	Finca Santa Victoria	8	Agosto	2023-08-15T00:00:00	2024-11-08T01:00:00	4	Temperatura máxima	13.2
124671	7	Sololá	701	Sololá	4	Finca Santa Victoria	8	Agosto	2023-08-15T00:00:00	2024-11-08T01:00:00	3	Temperatura mínima	12.9
124672	7	Sololá	701	Sololá	4	Finca Santa Victoria	8	Agosto	2023-08-15T00:00:00	2024-11-08T01:00:00	5	Humedad	94
124673	7	Sololá	701	Sololá	4	Finca Santa Victoria	8	Agosto	2023-08-15T00:00:00	2024-11-08T01:00:00	6	Velocidad del viento	1.6
124674	7	Sololá	701	Sololá	4	Finca Santa Victoria	8	Agosto	2023-08-15T00:00:00	2024-11-08T01:00:00	7	Dirección del viento	1.61
124675	7	Sololá	701	Sololá	4	Finca Santa Victoria	8	Agosto	2023-08-15T00:00:00	2024-11-08T01:00:00	1	Precipitación	1.8
124676	7	Sololá	701	Sololá	4	Finca Santa Victoria	8	Agosto	2023-08-15T00:00:00	2024-11-08T01:00:00	8	Radiación solar	0
124677	7	Sololá	701	Sololá	4	Finca Santa Victoria	8	Agosto	2023-08-15T00:00:00	2024-11-08T02:00:00	2	Temperatura media	12.4
124678	7	Sololá	701	Sololá	4	Finca Santa Victoria	8	Agosto	2023-08-15T00:00:00	2024-11-08T02:00:00	4	Temperatura máxima	12.9
124679	7	Sololá	701	Sololá	4	Finca Santa Victoria	8	Agosto	2023-08-15T00:00:00	2024-11-08T02:00:00	3	Temperatura mínima	12.4
124680	7	Sololá	701	Sololá	4	Finca Santa Victoria	8	Agosto	2023-08-15T00:00:00	2024-11-08T02:00:00	5	Humedad	94
124681	7	Sololá	701	Sololá	4	Finca Santa Victoria	8	Agosto	2023-08-15T00:00:00	2024-11-08T02:00:00	6	Velocidad del viento	3.2
124682	7	Sololá	701	Sololá	4	Finca Santa Victoria	8	Agosto	2023-08-15T00:00:00	2024-11-08T02:00:00	7	Dirección del viento	3.22
124683	7	Sololá	701	Sololá	4	Finca Santa Victoria	8	Agosto	2023-08-15T00:00:00	2024-11-08T02:00:00	1	Precipitación	0
124684	7	Sololá	701	Sololá	4	Finca Santa Victoria	8	Agosto	2023-08-15T00:00:00	2024-11-08T02:00:00	8	Radiación solar	0
124685	7	Sololá	701	Sololá	4	Finca Santa Victoria	8	Agosto	2023-08-15T00:00:00	2024-11-08T03:00:00	2	Temperatura media	12.1
124686	7	Sololá	701	Sololá	4	Finca Santa Victoria	8	Agosto	2023-08-15T00:00:00	2024-11-08T03:00:00	4	Temperatura máxima	12.4
124687	7	Sololá	701	Sololá	4	Finca Santa Victoria	8	Agosto	2023-08-15T00:00:00	2024-11-08T03:00:00	3	Temperatura mínima	11.9
124688	7	Sololá	701	Sololá	4	Finca Santa Victoria	8	Agosto	2023-08-15T00:00:00	2024-11-08T03:00:00	5	Humedad	93
124689	7	Sololá	701	Sololá	4	Finca Santa Victoria	8	Agosto	2023-08-15T00:00:00	2024-11-08T03:00:00	6	Velocidad del viento	1.6
124690	7	Sololá	701	Sololá	4	Finca Santa Victoria	8	Agosto	2023-08-15T00:00:00	2024-11-08T03:00:00	7	Dirección del viento	1.61
124691	7	Sololá	701	Sololá	4	Finca Santa Victoria	8	Agosto	2023-08-15T00:00:00	2024-11-08T03:00:00	1	Precipitación	0.2
124692	7	Sololá	701	Sololá	4	Finca Santa Victoria	8	Agosto	2023-08-15T00:00:00	2024-11-08T03:00:00	8	Radiación solar	0
124693	7	Sololá	701	Sololá	4	Finca Santa Victoria	8	Agosto	2023-08-15T00:00:00	2024-11-08T04:00:00	2	Temperatura media	12.3
124694	7	Sololá	701	Sololá	4	Finca Santa Victoria	8	Agosto	2023-08-15T00:00:00	2024-11-08T04:00:00	4	Temperatura máxima	12.3
124695	7	Sololá	701	Sololá	4	Finca Santa Victoria	8	Agosto	2023-08-15T00:00:00	2024-11-08T04:00:00	3	Temperatura mínima	11.9
124696	7	Sololá	701	Sololá	4	Finca Santa Victoria	8	Agosto	2023-08-15T00:00:00	2024-11-08T04:00:00	5	Humedad	93
124697	7	Sololá	701	Sololá	4	Finca Santa Victoria	8	Agosto	2023-08-15T00:00:00	2024-11-08T04:00:00	6	Velocidad del viento	1.6
124698	7	Sololá	701	Sololá	4	Finca Santa Victoria	8	Agosto	2023-08-15T00:00:00	2024-11-08T04:00:00	7	Dirección del viento	1.61
124699	7	Sololá	701	Sololá	4	Finca Santa Victoria	8	Agosto	2023-08-15T00:00:00	2024-11-08T04:00:00	1	Precipitación	0
124700	7	Sololá	701	Sololá	4	Finca Santa Victoria	8	Agosto	2023-08-15T00:00:00	2024-11-08T04:00:00	8	Radiación solar	0
124701	7	Sololá	701	Sololá	4	Finca Santa Victoria	8	Agosto	2023-08-15T00:00:00	2024-11-08T05:00:00	2	Temperatura media	12.2
124702	7	Sololá	701	Sololá	4	Finca Santa Victoria	8	Agosto	2023-08-15T00:00:00	2024-11-08T05:00:00	4	Temperatura máxima	12.3
124703	7	Sololá	701	Sololá	4	Finca Santa Victoria	8	Agosto	2023-08-15T00:00:00	2024-11-08T05:00:00	3	Temperatura mínima	12.1
124704	7	Sololá	701	Sololá	4	Finca Santa Victoria	8	Agosto	2023-08-15T00:00:00	2024-11-08T05:00:00	5	Humedad	94
124705	7	Sololá	701	Sololá	4	Finca Santa Victoria	8	Agosto	2023-08-15T00:00:00	2024-11-08T05:00:00	6	Velocidad del viento	1.6
124706	7	Sololá	701	Sololá	4	Finca Santa Victoria	8	Agosto	2023-08-15T00:00:00	2024-11-08T05:00:00	7	Dirección del viento	1.61
124707	7	Sololá	701	Sololá	4	Finca Santa Victoria	8	Agosto	2023-08-15T00:00:00	2024-11-08T05:00:00	1	Precipitación	0
124708	7	Sololá	701	Sololá	4	Finca Santa Victoria	8	Agosto	2023-08-15T00:00:00	2024-11-08T05:00:00	8	Radiación solar	0
124709	7	Sololá	701	Sololá	4	Finca Santa Victoria	8	Agosto	2023-08-15T00:00:00	2024-11-08T06:00:00	2	Temperatura media	13
124710	7	Sololá	701	Sololá	4	Finca Santa Victoria	8	Agosto	2023-08-15T00:00:00	2024-11-08T06:00:00	4	Temperatura máxima	13
124711	7	Sololá	701	Sololá	4	Finca Santa Victoria	8	Agosto	2023-08-15T00:00:00	2024-11-08T06:00:00	3	Temperatura mínima	12.2
124712	7	Sololá	701	Sololá	4	Finca Santa Victoria	8	Agosto	2023-08-15T00:00:00	2024-11-08T06:00:00	5	Humedad	88
124713	7	Sololá	701	Sololá	4	Finca Santa Victoria	8	Agosto	2023-08-15T00:00:00	2024-11-08T06:00:00	6	Velocidad del viento	1.6
124714	7	Sololá	701	Sololá	4	Finca Santa Victoria	8	Agosto	2023-08-15T00:00:00	2024-11-08T06:00:00	7	Dirección del viento	1.61
124715	7	Sololá	701	Sololá	4	Finca Santa Victoria	8	Agosto	2023-08-15T00:00:00	2024-11-08T06:00:00	1	Precipitación	0
124716	7	Sololá	701	Sololá	4	Finca Santa Victoria	8	Agosto	2023-08-15T00:00:00	2024-11-08T06:00:00	8	Radiación solar	0
124717	7	Sololá	701	Sololá	4	Finca Santa Victoria	8	Agosto	2023-08-15T00:00:00	2024-11-08T07:00:00	2	Temperatura media	13.2
124718	7	Sololá	701	Sololá	4	Finca Santa Victoria	8	Agosto	2023-08-15T00:00:00	2024-11-08T07:00:00	4	Temperatura máxima	13.2
124719	7	Sololá	701	Sololá	4	Finca Santa Victoria	8	Agosto	2023-08-15T00:00:00	2024-11-08T07:00:00	3	Temperatura mínima	12.7
124720	7	Sololá	701	Sololá	4	Finca Santa Victoria	8	Agosto	2023-08-15T00:00:00	2024-11-08T07:00:00	5	Humedad	91
124721	7	Sololá	701	Sololá	4	Finca Santa Victoria	8	Agosto	2023-08-15T00:00:00	2024-11-08T07:00:00	6	Velocidad del viento	1.6
124722	7	Sololá	701	Sololá	4	Finca Santa Victoria	8	Agosto	2023-08-15T00:00:00	2024-11-08T07:00:00	7	Dirección del viento	1.61
124723	7	Sololá	701	Sololá	4	Finca Santa Victoria	8	Agosto	2023-08-15T00:00:00	2024-11-08T07:00:00	1	Precipitación	0
124724	7	Sololá	701	Sololá	4	Finca Santa Victoria	8	Agosto	2023-08-15T00:00:00	2024-11-08T07:00:00	8	Radiación solar	47
124725	7	Sololá	701	Sololá	4	Finca Santa Victoria	8	Agosto	2023-08-15T00:00:00	2024-11-08T08:00:00	2	Temperatura media	15.7
124726	7	Sololá	701	Sololá	4	Finca Santa Victoria	8	Agosto	2023-08-15T00:00:00	2024-11-08T08:00:00	4	Temperatura máxima	15.7
124727	7	Sololá	701	Sololá	4	Finca Santa Victoria	8	Agosto	2023-08-15T00:00:00	2024-11-08T08:00:00	3	Temperatura mínima	13.2
124728	7	Sololá	701	Sololá	4	Finca Santa Victoria	8	Agosto	2023-08-15T00:00:00	2024-11-08T08:00:00	5	Humedad	87
124729	7	Sololá	701	Sololá	4	Finca Santa Victoria	8	Agosto	2023-08-15T00:00:00	2024-11-08T08:00:00	6	Velocidad del viento	3.2
124730	7	Sololá	701	Sololá	4	Finca Santa Victoria	8	Agosto	2023-08-15T00:00:00	2024-11-08T08:00:00	7	Dirección del viento	3.22
124731	7	Sololá	701	Sololá	4	Finca Santa Victoria	8	Agosto	2023-08-15T00:00:00	2024-11-08T08:00:00	1	Precipitación	0
124732	7	Sololá	701	Sololá	4	Finca Santa Victoria	8	Agosto	2023-08-15T00:00:00	2024-11-08T08:00:00	8	Radiación solar	229
124733	7	Sololá	701	Sololá	4	Finca Santa Victoria	8	Agosto	2023-08-15T00:00:00	2024-11-08T09:00:00	2	Temperatura media	16.6
124734	7	Sololá	701	Sololá	4	Finca Santa Victoria	8	Agosto	2023-08-15T00:00:00	2024-11-08T09:00:00	4	Temperatura máxima	17.4
124735	7	Sololá	701	Sololá	4	Finca Santa Victoria	8	Agosto	2023-08-15T00:00:00	2024-11-08T09:00:00	3	Temperatura mínima	15.7
124736	7	Sololá	701	Sololá	4	Finca Santa Victoria	8	Agosto	2023-08-15T00:00:00	2024-11-08T09:00:00	5	Humedad	80
124737	7	Sololá	701	Sololá	4	Finca Santa Victoria	8	Agosto	2023-08-15T00:00:00	2024-11-08T09:00:00	6	Velocidad del viento	3.2
124738	7	Sololá	701	Sololá	4	Finca Santa Victoria	8	Agosto	2023-08-15T00:00:00	2024-11-08T09:00:00	7	Dirección del viento	3.22
124739	7	Sololá	701	Sololá	4	Finca Santa Victoria	8	Agosto	2023-08-15T00:00:00	2024-11-08T09:00:00	1	Precipitación	0
124740	7	Sololá	701	Sololá	4	Finca Santa Victoria	8	Agosto	2023-08-15T00:00:00	2024-11-08T09:00:00	8	Radiación solar	308
124741	7	Sololá	701	Sololá	4	Finca Santa Victoria	8	Agosto	2023-08-15T00:00:00	2024-11-08T10:00:00	2	Temperatura media	16.4
124742	7	Sololá	701	Sololá	4	Finca Santa Victoria	8	Agosto	2023-08-15T00:00:00	2024-11-08T10:00:00	4	Temperatura máxima	17.3
124743	7	Sololá	701	Sololá	4	Finca Santa Victoria	8	Agosto	2023-08-15T00:00:00	2024-11-08T10:00:00	3	Temperatura mínima	16.4
124744	7	Sololá	701	Sololá	4	Finca Santa Victoria	8	Agosto	2023-08-15T00:00:00	2024-11-08T10:00:00	5	Humedad	82
124745	7	Sololá	701	Sololá	4	Finca Santa Victoria	8	Agosto	2023-08-15T00:00:00	2024-11-08T10:00:00	6	Velocidad del viento	3.2
124746	7	Sololá	701	Sololá	4	Finca Santa Victoria	8	Agosto	2023-08-15T00:00:00	2024-11-08T10:00:00	7	Dirección del viento	3.22
124747	7	Sololá	701	Sololá	4	Finca Santa Victoria	8	Agosto	2023-08-15T00:00:00	2024-11-08T10:00:00	1	Precipitación	0
124748	7	Sololá	701	Sololá	4	Finca Santa Victoria	8	Agosto	2023-08-15T00:00:00	2024-11-08T10:00:00	8	Radiación solar	151
124749	7	Sololá	701	Sololá	4	Finca Santa Victoria	8	Agosto	2023-08-15T00:00:00	2024-11-08T11:00:00	2	Temperatura media	17.5
124750	7	Sololá	701	Sololá	4	Finca Santa Victoria	8	Agosto	2023-08-15T00:00:00	2024-11-08T11:00:00	4	Temperatura máxima	17.8
124751	7	Sololá	701	Sololá	4	Finca Santa Victoria	8	Agosto	2023-08-15T00:00:00	2024-11-08T11:00:00	3	Temperatura mínima	16.4
124752	7	Sololá	701	Sololá	4	Finca Santa Victoria	8	Agosto	2023-08-15T00:00:00	2024-11-08T11:00:00	5	Humedad	75
124753	7	Sololá	701	Sololá	4	Finca Santa Victoria	8	Agosto	2023-08-15T00:00:00	2024-11-08T11:00:00	6	Velocidad del viento	1.6
124754	7	Sololá	701	Sololá	4	Finca Santa Victoria	8	Agosto	2023-08-15T00:00:00	2024-11-08T11:00:00	7	Dirección del viento	1.61
124755	7	Sololá	701	Sololá	4	Finca Santa Victoria	8	Agosto	2023-08-15T00:00:00	2024-11-08T11:00:00	1	Precipitación	0
124756	7	Sololá	701	Sololá	4	Finca Santa Victoria	8	Agosto	2023-08-15T00:00:00	2024-11-08T11:00:00	8	Radiación solar	247
124757	7	Sololá	701	Sololá	4	Finca Santa Victoria	8	Agosto	2023-08-15T00:00:00	2024-11-08T12:00:00	2	Temperatura media	18.6
124758	7	Sololá	701	Sololá	4	Finca Santa Victoria	8	Agosto	2023-08-15T00:00:00	2024-11-08T12:00:00	4	Temperatura máxima	18.9
124759	7	Sololá	701	Sololá	4	Finca Santa Victoria	8	Agosto	2023-08-15T00:00:00	2024-11-08T12:00:00	3	Temperatura mínima	17.3
124760	7	Sololá	701	Sololá	4	Finca Santa Victoria	8	Agosto	2023-08-15T00:00:00	2024-11-08T12:00:00	5	Humedad	73
124761	7	Sololá	701	Sololá	4	Finca Santa Victoria	8	Agosto	2023-08-15T00:00:00	2024-11-08T12:00:00	6	Velocidad del viento	3.2
124762	7	Sololá	701	Sololá	4	Finca Santa Victoria	8	Agosto	2023-08-15T00:00:00	2024-11-08T12:00:00	7	Dirección del viento	3.22
124763	7	Sololá	701	Sololá	4	Finca Santa Victoria	8	Agosto	2023-08-15T00:00:00	2024-11-08T12:00:00	1	Precipitación	0
124764	7	Sololá	701	Sololá	4	Finca Santa Victoria	8	Agosto	2023-08-15T00:00:00	2024-11-08T12:00:00	8	Radiación solar	316
124765	7	Sololá	701	Sololá	4	Finca Santa Victoria	8	Agosto	2023-08-15T00:00:00	2024-11-08T13:00:00	2	Temperatura media	18.3
124766	7	Sololá	701	Sololá	4	Finca Santa Victoria	8	Agosto	2023-08-15T00:00:00	2024-11-08T13:00:00	4	Temperatura máxima	19.6
124767	7	Sololá	701	Sololá	4	Finca Santa Victoria	8	Agosto	2023-08-15T00:00:00	2024-11-08T13:00:00	3	Temperatura mínima	18.3
124768	7	Sololá	701	Sololá	4	Finca Santa Victoria	8	Agosto	2023-08-15T00:00:00	2024-11-08T13:00:00	5	Humedad	72
124769	7	Sololá	701	Sololá	4	Finca Santa Victoria	8	Agosto	2023-08-15T00:00:00	2024-11-08T13:00:00	6	Velocidad del viento	3.2
124770	7	Sololá	701	Sololá	4	Finca Santa Victoria	8	Agosto	2023-08-15T00:00:00	2024-11-08T13:00:00	7	Dirección del viento	3.22
124771	7	Sololá	701	Sololá	4	Finca Santa Victoria	8	Agosto	2023-08-15T00:00:00	2024-11-08T13:00:00	1	Precipitación	0
124772	7	Sololá	701	Sololá	4	Finca Santa Victoria	8	Agosto	2023-08-15T00:00:00	2024-11-08T13:00:00	8	Radiación solar	384
124773	7	Sololá	701	Sololá	4	Finca Santa Victoria	8	Agosto	2023-08-15T00:00:00	2024-11-08T14:00:00	2	Temperatura media	17.6
124774	7	Sololá	701	Sololá	4	Finca Santa Victoria	8	Agosto	2023-08-15T00:00:00	2024-11-08T14:00:00	4	Temperatura máxima	18.3
124775	7	Sololá	701	Sololá	4	Finca Santa Victoria	8	Agosto	2023-08-15T00:00:00	2024-11-08T14:00:00	3	Temperatura mínima	17.3
124776	7	Sololá	701	Sololá	4	Finca Santa Victoria	8	Agosto	2023-08-15T00:00:00	2024-11-08T14:00:00	5	Humedad	73
124777	7	Sololá	701	Sololá	4	Finca Santa Victoria	8	Agosto	2023-08-15T00:00:00	2024-11-08T14:00:00	6	Velocidad del viento	1.6
124778	7	Sololá	701	Sololá	4	Finca Santa Victoria	8	Agosto	2023-08-15T00:00:00	2024-11-08T14:00:00	7	Dirección del viento	1.61
124779	7	Sololá	701	Sololá	4	Finca Santa Victoria	8	Agosto	2023-08-15T00:00:00	2024-11-08T14:00:00	1	Precipitación	0
124780	7	Sololá	701	Sololá	4	Finca Santa Victoria	8	Agosto	2023-08-15T00:00:00	2024-11-08T14:00:00	8	Radiación solar	131
124781	7	Sololá	701	Sololá	4	Finca Santa Victoria	8	Agosto	2023-08-15T00:00:00	2024-11-08T15:00:00	2	Temperatura media	18.6
124782	7	Sololá	701	Sololá	4	Finca Santa Victoria	8	Agosto	2023-08-15T00:00:00	2024-11-08T15:00:00	4	Temperatura máxima	19
124783	7	Sololá	701	Sololá	4	Finca Santa Victoria	8	Agosto	2023-08-15T00:00:00	2024-11-08T15:00:00	3	Temperatura mínima	17.6
124784	7	Sololá	701	Sololá	4	Finca Santa Victoria	8	Agosto	2023-08-15T00:00:00	2024-11-08T15:00:00	5	Humedad	70
124785	7	Sololá	701	Sololá	4	Finca Santa Victoria	8	Agosto	2023-08-15T00:00:00	2024-11-08T15:00:00	6	Velocidad del viento	1.6
124786	7	Sololá	701	Sololá	4	Finca Santa Victoria	8	Agosto	2023-08-15T00:00:00	2024-11-08T15:00:00	7	Dirección del viento	1.61
124787	7	Sololá	701	Sololá	4	Finca Santa Victoria	8	Agosto	2023-08-15T00:00:00	2024-11-08T15:00:00	1	Precipitación	0
124788	7	Sololá	701	Sololá	4	Finca Santa Victoria	8	Agosto	2023-08-15T00:00:00	2024-11-08T15:00:00	8	Radiación solar	228
124789	7	Sololá	701	Sololá	4	Finca Santa Victoria	8	Agosto	2023-08-15T00:00:00	2024-11-08T16:00:00	2	Temperatura media	17.3
124790	7	Sololá	701	Sololá	4	Finca Santa Victoria	8	Agosto	2023-08-15T00:00:00	2024-11-08T16:00:00	4	Temperatura máxima	18.6
124791	7	Sololá	701	Sololá	4	Finca Santa Victoria	8	Agosto	2023-08-15T00:00:00	2024-11-08T16:00:00	3	Temperatura mínima	17.1
124792	7	Sololá	701	Sololá	4	Finca Santa Victoria	8	Agosto	2023-08-15T00:00:00	2024-11-08T16:00:00	5	Humedad	75
124793	7	Sololá	701	Sololá	4	Finca Santa Victoria	8	Agosto	2023-08-15T00:00:00	2024-11-08T16:00:00	6	Velocidad del viento	1.6
124794	7	Sololá	701	Sololá	4	Finca Santa Victoria	8	Agosto	2023-08-15T00:00:00	2024-11-08T16:00:00	7	Dirección del viento	1.61
124795	7	Sololá	701	Sololá	4	Finca Santa Victoria	8	Agosto	2023-08-15T00:00:00	2024-11-08T16:00:00	1	Precipitación	0
124796	7	Sololá	701	Sololá	4	Finca Santa Victoria	8	Agosto	2023-08-15T00:00:00	2024-11-08T16:00:00	8	Radiación solar	86
124797	7	Sololá	701	Sololá	4	Finca Santa Victoria	8	Agosto	2023-08-15T00:00:00	2024-11-08T17:00:00	2	Temperatura media	17.2
124798	7	Sololá	701	Sololá	4	Finca Santa Victoria	8	Agosto	2023-08-15T00:00:00	2024-11-08T17:00:00	4	Temperatura máxima	17.4
124799	7	Sololá	701	Sololá	4	Finca Santa Victoria	8	Agosto	2023-08-15T00:00:00	2024-11-08T17:00:00	3	Temperatura mínima	17
124800	7	Sololá	701	Sololá	4	Finca Santa Victoria	8	Agosto	2023-08-15T00:00:00	2024-11-08T17:00:00	5	Humedad	77
124801	7	Sololá	701	Sololá	4	Finca Santa Victoria	8	Agosto	2023-08-15T00:00:00	2024-11-08T17:00:00	6	Velocidad del viento	3.2
124802	7	Sololá	701	Sololá	4	Finca Santa Victoria	8	Agosto	2023-08-15T00:00:00	2024-11-08T17:00:00	7	Dirección del viento	3.22
124803	7	Sololá	701	Sololá	4	Finca Santa Victoria	8	Agosto	2023-08-15T00:00:00	2024-11-08T17:00:00	1	Precipitación	0
124804	7	Sololá	701	Sololá	4	Finca Santa Victoria	8	Agosto	2023-08-15T00:00:00	2024-11-08T17:00:00	8	Radiación solar	125
124805	7	Sololá	701	Sololá	4	Finca Santa Victoria	8	Agosto	2023-08-15T00:00:00	2024-11-08T18:00:00	2	Temperatura media	16.1
124806	7	Sololá	701	Sololá	4	Finca Santa Victoria	8	Agosto	2023-08-15T00:00:00	2024-11-08T18:00:00	4	Temperatura máxima	17.2
124807	7	Sololá	701	Sololá	4	Finca Santa Victoria	8	Agosto	2023-08-15T00:00:00	2024-11-08T18:00:00	3	Temperatura mínima	16
124808	7	Sololá	701	Sololá	4	Finca Santa Victoria	8	Agosto	2023-08-15T00:00:00	2024-11-08T18:00:00	5	Humedad	80
124809	7	Sololá	701	Sololá	4	Finca Santa Victoria	8	Agosto	2023-08-15T00:00:00	2024-11-08T18:00:00	6	Velocidad del viento	3.2
124810	7	Sololá	701	Sololá	4	Finca Santa Victoria	8	Agosto	2023-08-15T00:00:00	2024-11-08T18:00:00	7	Dirección del viento	3.22
124811	7	Sololá	701	Sololá	4	Finca Santa Victoria	8	Agosto	2023-08-15T00:00:00	2024-11-08T18:00:00	1	Precipitación	0
124812	7	Sololá	701	Sololá	4	Finca Santa Victoria	8	Agosto	2023-08-15T00:00:00	2024-11-08T18:00:00	8	Radiación solar	50
124813	7	Sololá	701	Sololá	4	Finca Santa Victoria	8	Agosto	2023-08-15T00:00:00	2024-11-08T19:00:00	2	Temperatura media	15.3
124814	7	Sololá	701	Sololá	4	Finca Santa Victoria	8	Agosto	2023-08-15T00:00:00	2024-11-08T19:00:00	4	Temperatura máxima	16.1
124815	7	Sololá	701	Sololá	4	Finca Santa Victoria	8	Agosto	2023-08-15T00:00:00	2024-11-08T19:00:00	3	Temperatura mínima	15.2
124816	7	Sololá	701	Sololá	4	Finca Santa Victoria	8	Agosto	2023-08-15T00:00:00	2024-11-08T19:00:00	5	Humedad	82
124817	7	Sololá	701	Sololá	4	Finca Santa Victoria	8	Agosto	2023-08-15T00:00:00	2024-11-08T19:00:00	6	Velocidad del viento	1.6
124818	7	Sololá	701	Sololá	4	Finca Santa Victoria	8	Agosto	2023-08-15T00:00:00	2024-11-08T19:00:00	7	Dirección del viento	1.61
124819	7	Sololá	701	Sololá	4	Finca Santa Victoria	8	Agosto	2023-08-15T00:00:00	2024-11-08T19:00:00	1	Precipitación	0
124820	7	Sololá	701	Sololá	4	Finca Santa Victoria	8	Agosto	2023-08-15T00:00:00	2024-11-08T19:00:00	8	Radiación solar	0
124821	7	Sololá	701	Sololá	4	Finca Santa Victoria	8	Agosto	2023-08-15T00:00:00	2024-11-08T20:00:00	2	Temperatura media	15.1
124822	7	Sololá	701	Sololá	4	Finca Santa Victoria	8	Agosto	2023-08-15T00:00:00	2024-11-08T20:00:00	4	Temperatura máxima	15.3
124823	7	Sololá	701	Sololá	4	Finca Santa Victoria	8	Agosto	2023-08-15T00:00:00	2024-11-08T20:00:00	3	Temperatura mínima	15.1
124824	7	Sololá	701	Sololá	4	Finca Santa Victoria	8	Agosto	2023-08-15T00:00:00	2024-11-08T20:00:00	5	Humedad	81
124825	7	Sololá	701	Sololá	4	Finca Santa Victoria	8	Agosto	2023-08-15T00:00:00	2024-11-08T20:00:00	6	Velocidad del viento	1.6
124826	7	Sololá	701	Sololá	4	Finca Santa Victoria	8	Agosto	2023-08-15T00:00:00	2024-11-08T20:00:00	7	Dirección del viento	1.61
124827	7	Sololá	701	Sololá	4	Finca Santa Victoria	8	Agosto	2023-08-15T00:00:00	2024-11-08T20:00:00	1	Precipitación	0
124828	7	Sololá	701	Sololá	4	Finca Santa Victoria	8	Agosto	2023-08-15T00:00:00	2024-11-08T20:00:00	8	Radiación solar	0
124829	7	Sololá	701	Sololá	4	Finca Santa Victoria	8	Agosto	2023-08-15T00:00:00	2024-11-08T21:00:00	2	Temperatura media	14.4
124830	7	Sololá	701	Sololá	4	Finca Santa Victoria	8	Agosto	2023-08-15T00:00:00	2024-11-08T21:00:00	4	Temperatura máxima	15.1
124831	7	Sololá	701	Sololá	4	Finca Santa Victoria	8	Agosto	2023-08-15T00:00:00	2024-11-08T21:00:00	3	Temperatura mínima	14.4
124832	7	Sololá	701	Sololá	4	Finca Santa Victoria	8	Agosto	2023-08-15T00:00:00	2024-11-08T21:00:00	5	Humedad	88
124833	7	Sololá	701	Sololá	4	Finca Santa Victoria	8	Agosto	2023-08-15T00:00:00	2024-11-08T21:00:00	6	Velocidad del viento	1.6
124834	7	Sololá	701	Sololá	4	Finca Santa Victoria	8	Agosto	2023-08-15T00:00:00	2024-11-08T21:00:00	7	Dirección del viento	1.61
124835	7	Sololá	701	Sololá	4	Finca Santa Victoria	8	Agosto	2023-08-15T00:00:00	2024-11-08T21:00:00	1	Precipitación	0
124836	7	Sololá	701	Sololá	4	Finca Santa Victoria	8	Agosto	2023-08-15T00:00:00	2024-11-08T21:00:00	8	Radiación solar	0
124837	7	Sololá	701	Sololá	4	Finca Santa Victoria	8	Agosto	2023-08-15T00:00:00	2024-11-08T22:00:00	2	Temperatura media	13.9
124838	7	Sololá	701	Sololá	4	Finca Santa Victoria	8	Agosto	2023-08-15T00:00:00	2024-11-08T22:00:00	4	Temperatura máxima	14.5
124839	7	Sololá	701	Sololá	4	Finca Santa Victoria	8	Agosto	2023-08-15T00:00:00	2024-11-08T22:00:00	3	Temperatura mínima	13.8
124840	7	Sololá	701	Sololá	4	Finca Santa Victoria	8	Agosto	2023-08-15T00:00:00	2024-11-08T22:00:00	5	Humedad	90
124841	7	Sololá	701	Sololá	4	Finca Santa Victoria	8	Agosto	2023-08-15T00:00:00	2024-11-08T22:00:00	6	Velocidad del viento	1.6
124842	7	Sololá	701	Sololá	4	Finca Santa Victoria	8	Agosto	2023-08-15T00:00:00	2024-11-08T22:00:00	7	Dirección del viento	1.61
124843	7	Sololá	701	Sololá	4	Finca Santa Victoria	8	Agosto	2023-08-15T00:00:00	2024-11-08T22:00:00	1	Precipitación	0
124844	7	Sololá	701	Sololá	4	Finca Santa Victoria	8	Agosto	2023-08-15T00:00:00	2024-11-08T22:00:00	8	Radiación solar	0
124845	7	Sololá	701	Sololá	4	Finca Santa Victoria	8	Agosto	2023-08-15T00:00:00	2024-11-08T23:00:00	2	Temperatura media	13.7
124846	7	Sololá	701	Sololá	4	Finca Santa Victoria	8	Agosto	2023-08-15T00:00:00	2024-11-08T23:00:00	4	Temperatura máxima	14.2
124847	7	Sololá	701	Sololá	4	Finca Santa Victoria	8	Agosto	2023-08-15T00:00:00	2024-11-08T23:00:00	3	Temperatura mínima	13.7
124848	7	Sololá	701	Sololá	4	Finca Santa Victoria	8	Agosto	2023-08-15T00:00:00	2024-11-08T23:00:00	5	Humedad	91
124849	7	Sololá	701	Sololá	4	Finca Santa Victoria	8	Agosto	2023-08-15T00:00:00	2024-11-08T23:00:00	6	Velocidad del viento	3.2
124850	7	Sololá	701	Sololá	4	Finca Santa Victoria	8	Agosto	2023-08-15T00:00:00	2024-11-08T23:00:00	7	Dirección del viento	3.22
124851	7	Sololá	701	Sololá	4	Finca Santa Victoria	8	Agosto	2023-08-15T00:00:00	2024-11-08T23:00:00	1	Precipitación	0
124852	7	Sololá	701	Sololá	4	Finca Santa Victoria	8	Agosto	2023-08-15T00:00:00	2024-11-08T23:00:00	8	Radiación solar	0
124853	7	Sololá	701	Sololá	4	Finca Santa Victoria	8	Agosto	2023-08-16T00:00:00	2024-11-08T00:00:00	2	Temperatura media	13.4
124854	7	Sololá	701	Sololá	4	Finca Santa Victoria	8	Agosto	2023-08-16T00:00:00	2024-11-08T00:00:00	4	Temperatura máxima	14
124855	7	Sololá	701	Sololá	4	Finca Santa Victoria	8	Agosto	2023-08-16T00:00:00	2024-11-08T00:00:00	3	Temperatura mínima	13.4
124856	7	Sololá	701	Sololá	4	Finca Santa Victoria	8	Agosto	2023-08-16T00:00:00	2024-11-08T00:00:00	5	Humedad	93
124857	7	Sololá	701	Sololá	4	Finca Santa Victoria	8	Agosto	2023-08-16T00:00:00	2024-11-08T00:00:00	6	Velocidad del viento	1.6
124858	7	Sololá	701	Sololá	4	Finca Santa Victoria	8	Agosto	2023-08-16T00:00:00	2024-11-08T00:00:00	7	Dirección del viento	1.61
124859	7	Sololá	701	Sololá	4	Finca Santa Victoria	8	Agosto	2023-08-16T00:00:00	2024-11-08T00:00:00	1	Precipitación	0
124860	7	Sololá	701	Sololá	4	Finca Santa Victoria	8	Agosto	2023-08-16T00:00:00	2024-11-08T00:00:00	8	Radiación solar	0
124861	7	Sololá	701	Sololá	4	Finca Santa Victoria	8	Agosto	2023-08-16T00:00:00	2024-11-08T01:00:00	2	Temperatura media	13.1
124862	7	Sololá	701	Sololá	4	Finca Santa Victoria	8	Agosto	2023-08-16T00:00:00	2024-11-08T01:00:00	4	Temperatura máxima	13.4
124863	7	Sololá	701	Sololá	4	Finca Santa Victoria	8	Agosto	2023-08-16T00:00:00	2024-11-08T01:00:00	3	Temperatura mínima	13.1
124864	7	Sololá	701	Sololá	4	Finca Santa Victoria	8	Agosto	2023-08-16T00:00:00	2024-11-08T01:00:00	5	Humedad	91
124865	7	Sololá	701	Sololá	4	Finca Santa Victoria	8	Agosto	2023-08-16T00:00:00	2024-11-08T01:00:00	6	Velocidad del viento	0
124866	7	Sololá	701	Sololá	4	Finca Santa Victoria	8	Agosto	2023-08-16T00:00:00	2024-11-08T01:00:00	7	Dirección del viento	0
124867	7	Sololá	701	Sololá	4	Finca Santa Victoria	8	Agosto	2023-08-16T00:00:00	2024-11-08T01:00:00	1	Precipitación	0
124868	7	Sololá	701	Sololá	4	Finca Santa Victoria	8	Agosto	2023-08-16T00:00:00	2024-11-08T01:00:00	8	Radiación solar	0
124869	7	Sololá	701	Sololá	4	Finca Santa Victoria	8	Agosto	2023-08-16T00:00:00	2024-11-08T02:00:00	2	Temperatura media	12.8
124870	7	Sololá	701	Sololá	4	Finca Santa Victoria	8	Agosto	2023-08-16T00:00:00	2024-11-08T02:00:00	4	Temperatura máxima	13.2
124871	7	Sololá	701	Sololá	4	Finca Santa Victoria	8	Agosto	2023-08-16T00:00:00	2024-11-08T02:00:00	3	Temperatura mínima	12.8
124872	7	Sololá	701	Sololá	4	Finca Santa Victoria	8	Agosto	2023-08-16T00:00:00	2024-11-08T02:00:00	5	Humedad	94
124873	7	Sololá	701	Sololá	4	Finca Santa Victoria	8	Agosto	2023-08-16T00:00:00	2024-11-08T02:00:00	6	Velocidad del viento	0
124874	7	Sololá	701	Sololá	4	Finca Santa Victoria	8	Agosto	2023-08-16T00:00:00	2024-11-08T02:00:00	7	Dirección del viento	0
124875	7	Sololá	701	Sololá	4	Finca Santa Victoria	8	Agosto	2023-08-16T00:00:00	2024-11-08T02:00:00	1	Precipitación	0
124876	7	Sololá	701	Sololá	4	Finca Santa Victoria	8	Agosto	2023-08-16T00:00:00	2024-11-08T02:00:00	8	Radiación solar	0
124877	7	Sololá	701	Sololá	4	Finca Santa Victoria	8	Agosto	2023-08-16T00:00:00	2024-11-08T03:00:00	2	Temperatura media	12.7
124878	7	Sololá	701	Sololá	4	Finca Santa Victoria	8	Agosto	2023-08-16T00:00:00	2024-11-08T03:00:00	4	Temperatura máxima	12.8
124879	7	Sololá	701	Sololá	4	Finca Santa Victoria	8	Agosto	2023-08-16T00:00:00	2024-11-08T03:00:00	3	Temperatura mínima	12.4
124880	7	Sololá	701	Sololá	4	Finca Santa Victoria	8	Agosto	2023-08-16T00:00:00	2024-11-08T03:00:00	5	Humedad	94
124881	7	Sololá	701	Sololá	4	Finca Santa Victoria	8	Agosto	2023-08-16T00:00:00	2024-11-08T03:00:00	6	Velocidad del viento	0
124882	7	Sololá	701	Sololá	4	Finca Santa Victoria	8	Agosto	2023-08-16T00:00:00	2024-11-08T03:00:00	7	Dirección del viento	0
124883	7	Sololá	701	Sololá	4	Finca Santa Victoria	8	Agosto	2023-08-16T00:00:00	2024-11-08T03:00:00	1	Precipitación	0
124884	7	Sololá	701	Sololá	4	Finca Santa Victoria	8	Agosto	2023-08-16T00:00:00	2024-11-08T03:00:00	8	Radiación solar	0
124885	7	Sololá	701	Sololá	4	Finca Santa Victoria	8	Agosto	2023-08-16T00:00:00	2024-11-08T04:00:00	2	Temperatura media	13.6
124886	7	Sololá	701	Sololá	4	Finca Santa Victoria	8	Agosto	2023-08-16T00:00:00	2024-11-08T04:00:00	4	Temperatura máxima	13.6
124887	7	Sololá	701	Sololá	4	Finca Santa Victoria	8	Agosto	2023-08-16T00:00:00	2024-11-08T04:00:00	3	Temperatura mínima	12.7
124888	7	Sololá	701	Sololá	4	Finca Santa Victoria	8	Agosto	2023-08-16T00:00:00	2024-11-08T04:00:00	5	Humedad	88
124889	7	Sololá	701	Sololá	4	Finca Santa Victoria	8	Agosto	2023-08-16T00:00:00	2024-11-08T04:00:00	6	Velocidad del viento	1.6
124890	7	Sololá	701	Sololá	4	Finca Santa Victoria	8	Agosto	2023-08-16T00:00:00	2024-11-08T04:00:00	7	Dirección del viento	1.61
124891	7	Sololá	701	Sololá	4	Finca Santa Victoria	8	Agosto	2023-08-16T00:00:00	2024-11-08T04:00:00	1	Precipitación	0
124892	7	Sololá	701	Sololá	4	Finca Santa Victoria	8	Agosto	2023-08-16T00:00:00	2024-11-08T04:00:00	8	Radiación solar	0
124893	7	Sololá	701	Sololá	4	Finca Santa Victoria	8	Agosto	2023-08-16T00:00:00	2024-11-08T05:00:00	2	Temperatura media	14.1
124894	7	Sololá	701	Sololá	4	Finca Santa Victoria	8	Agosto	2023-08-16T00:00:00	2024-11-08T05:00:00	4	Temperatura máxima	14.1
124895	7	Sololá	701	Sololá	4	Finca Santa Victoria	8	Agosto	2023-08-16T00:00:00	2024-11-08T05:00:00	3	Temperatura mínima	13.6
124896	7	Sololá	701	Sololá	4	Finca Santa Victoria	8	Agosto	2023-08-16T00:00:00	2024-11-08T05:00:00	5	Humedad	82
124897	7	Sololá	701	Sololá	4	Finca Santa Victoria	8	Agosto	2023-08-16T00:00:00	2024-11-08T05:00:00	6	Velocidad del viento	0
124898	7	Sololá	701	Sololá	4	Finca Santa Victoria	8	Agosto	2023-08-16T00:00:00	2024-11-08T05:00:00	7	Dirección del viento	0
124899	7	Sololá	701	Sololá	4	Finca Santa Victoria	8	Agosto	2023-08-16T00:00:00	2024-11-08T05:00:00	1	Precipitación	0
124900	7	Sololá	701	Sololá	4	Finca Santa Victoria	8	Agosto	2023-08-16T00:00:00	2024-11-08T05:00:00	8	Radiación solar	0
124901	7	Sololá	701	Sololá	4	Finca Santa Victoria	8	Agosto	2023-08-16T00:00:00	2024-11-08T06:00:00	2	Temperatura media	13.5
124902	7	Sololá	701	Sololá	4	Finca Santa Victoria	8	Agosto	2023-08-16T00:00:00	2024-11-08T06:00:00	4	Temperatura máxima	14.2
124903	7	Sololá	701	Sololá	4	Finca Santa Victoria	8	Agosto	2023-08-16T00:00:00	2024-11-08T06:00:00	3	Temperatura mínima	13.5
124904	7	Sololá	701	Sololá	4	Finca Santa Victoria	8	Agosto	2023-08-16T00:00:00	2024-11-08T06:00:00	5	Humedad	83
124905	7	Sololá	701	Sololá	4	Finca Santa Victoria	8	Agosto	2023-08-16T00:00:00	2024-11-08T06:00:00	6	Velocidad del viento	0
124906	7	Sololá	701	Sololá	4	Finca Santa Victoria	8	Agosto	2023-08-16T00:00:00	2024-11-08T06:00:00	7	Dirección del viento	0
124907	7	Sololá	701	Sololá	4	Finca Santa Victoria	8	Agosto	2023-08-16T00:00:00	2024-11-08T06:00:00	1	Precipitación	0
124908	7	Sololá	701	Sololá	4	Finca Santa Victoria	8	Agosto	2023-08-16T00:00:00	2024-11-08T06:00:00	8	Radiación solar	0
124909	7	Sololá	701	Sololá	4	Finca Santa Victoria	8	Agosto	2023-08-16T00:00:00	2024-11-08T07:00:00	2	Temperatura media	13.9
124910	7	Sololá	701	Sololá	4	Finca Santa Victoria	8	Agosto	2023-08-16T00:00:00	2024-11-08T07:00:00	4	Temperatura máxima	13.9
124911	7	Sololá	701	Sololá	4	Finca Santa Victoria	8	Agosto	2023-08-16T00:00:00	2024-11-08T07:00:00	3	Temperatura mínima	13.5
124912	7	Sololá	701	Sololá	4	Finca Santa Victoria	8	Agosto	2023-08-16T00:00:00	2024-11-08T07:00:00	5	Humedad	87
124913	7	Sololá	701	Sololá	4	Finca Santa Victoria	8	Agosto	2023-08-16T00:00:00	2024-11-08T07:00:00	6	Velocidad del viento	3.2
124914	7	Sololá	701	Sololá	4	Finca Santa Victoria	8	Agosto	2023-08-16T00:00:00	2024-11-08T07:00:00	7	Dirección del viento	3.22
124915	7	Sololá	701	Sololá	4	Finca Santa Victoria	8	Agosto	2023-08-16T00:00:00	2024-11-08T07:00:00	1	Precipitación	0
124916	7	Sololá	701	Sololá	4	Finca Santa Victoria	8	Agosto	2023-08-16T00:00:00	2024-11-08T07:00:00	8	Radiación solar	29
124917	7	Sololá	701	Sololá	4	Finca Santa Victoria	8	Agosto	2023-08-16T00:00:00	2024-11-08T08:00:00	2	Temperatura media	15.3
124918	7	Sololá	701	Sololá	4	Finca Santa Victoria	8	Agosto	2023-08-16T00:00:00	2024-11-08T08:00:00	4	Temperatura máxima	15.3
124919	7	Sololá	701	Sololá	4	Finca Santa Victoria	8	Agosto	2023-08-16T00:00:00	2024-11-08T08:00:00	3	Temperatura mínima	13.9
124920	7	Sololá	701	Sololá	4	Finca Santa Victoria	8	Agosto	2023-08-16T00:00:00	2024-11-08T08:00:00	5	Humedad	83
124921	7	Sololá	701	Sololá	4	Finca Santa Victoria	8	Agosto	2023-08-16T00:00:00	2024-11-08T08:00:00	6	Velocidad del viento	3.2
124922	7	Sololá	701	Sololá	4	Finca Santa Victoria	8	Agosto	2023-08-16T00:00:00	2024-11-08T08:00:00	7	Dirección del viento	3.22
124923	7	Sololá	701	Sololá	4	Finca Santa Victoria	8	Agosto	2023-08-16T00:00:00	2024-11-08T08:00:00	1	Precipitación	0
124924	7	Sololá	701	Sololá	4	Finca Santa Victoria	8	Agosto	2023-08-16T00:00:00	2024-11-08T08:00:00	8	Radiación solar	123
124925	7	Sololá	701	Sololá	4	Finca Santa Victoria	8	Agosto	2023-08-16T00:00:00	2024-11-08T09:00:00	2	Temperatura media	16.3
124926	7	Sololá	701	Sololá	4	Finca Santa Victoria	8	Agosto	2023-08-16T00:00:00	2024-11-08T09:00:00	4	Temperatura máxima	16.3
124927	7	Sololá	701	Sololá	4	Finca Santa Victoria	8	Agosto	2023-08-16T00:00:00	2024-11-08T09:00:00	3	Temperatura mínima	15.2
124928	7	Sololá	701	Sololá	4	Finca Santa Victoria	8	Agosto	2023-08-16T00:00:00	2024-11-08T09:00:00	5	Humedad	82
124929	7	Sololá	701	Sololá	4	Finca Santa Victoria	8	Agosto	2023-08-16T00:00:00	2024-11-08T09:00:00	6	Velocidad del viento	3.2
124930	7	Sololá	701	Sololá	4	Finca Santa Victoria	8	Agosto	2023-08-16T00:00:00	2024-11-08T09:00:00	7	Dirección del viento	3.22
124931	7	Sololá	701	Sololá	4	Finca Santa Victoria	8	Agosto	2023-08-16T00:00:00	2024-11-08T09:00:00	1	Precipitación	0
124932	7	Sololá	701	Sololá	4	Finca Santa Victoria	8	Agosto	2023-08-16T00:00:00	2024-11-08T09:00:00	8	Radiación solar	166
124933	7	Sololá	701	Sololá	4	Finca Santa Victoria	8	Agosto	2023-08-16T00:00:00	2024-11-08T10:00:00	2	Temperatura media	18.7
124934	7	Sololá	701	Sololá	4	Finca Santa Victoria	8	Agosto	2023-08-16T00:00:00	2024-11-08T10:00:00	4	Temperatura máxima	18.7
124935	7	Sololá	701	Sololá	4	Finca Santa Victoria	8	Agosto	2023-08-16T00:00:00	2024-11-08T10:00:00	3	Temperatura mínima	16.3
124936	7	Sololá	701	Sololá	4	Finca Santa Victoria	8	Agosto	2023-08-16T00:00:00	2024-11-08T10:00:00	5	Humedad	75
124937	7	Sololá	701	Sololá	4	Finca Santa Victoria	8	Agosto	2023-08-16T00:00:00	2024-11-08T10:00:00	6	Velocidad del viento	3.2
124938	7	Sololá	701	Sololá	4	Finca Santa Victoria	8	Agosto	2023-08-16T00:00:00	2024-11-08T10:00:00	7	Dirección del viento	3.22
124939	7	Sololá	701	Sololá	4	Finca Santa Victoria	8	Agosto	2023-08-16T00:00:00	2024-11-08T10:00:00	1	Precipitación	0
124940	7	Sololá	701	Sololá	4	Finca Santa Victoria	8	Agosto	2023-08-16T00:00:00	2024-11-08T10:00:00	8	Radiación solar	128
124941	7	Sololá	701	Sololá	4	Finca Santa Victoria	8	Agosto	2023-08-16T00:00:00	2024-11-08T11:00:00	2	Temperatura media	20.4
124942	7	Sololá	701	Sololá	4	Finca Santa Victoria	8	Agosto	2023-08-16T00:00:00	2024-11-08T11:00:00	4	Temperatura máxima	20.4
124943	7	Sololá	701	Sololá	4	Finca Santa Victoria	8	Agosto	2023-08-16T00:00:00	2024-11-08T11:00:00	3	Temperatura mínima	18.8
124944	7	Sololá	701	Sololá	4	Finca Santa Victoria	8	Agosto	2023-08-16T00:00:00	2024-11-08T11:00:00	5	Humedad	69
124945	7	Sololá	701	Sololá	4	Finca Santa Victoria	8	Agosto	2023-08-16T00:00:00	2024-11-08T11:00:00	6	Velocidad del viento	3.2
124946	7	Sololá	701	Sololá	4	Finca Santa Victoria	8	Agosto	2023-08-16T00:00:00	2024-11-08T11:00:00	7	Dirección del viento	3.22
124947	7	Sololá	701	Sololá	4	Finca Santa Victoria	8	Agosto	2023-08-16T00:00:00	2024-11-08T11:00:00	1	Precipitación	0
124948	7	Sololá	701	Sololá	4	Finca Santa Victoria	8	Agosto	2023-08-16T00:00:00	2024-11-08T11:00:00	8	Radiación solar	299
124949	7	Sololá	701	Sololá	4	Finca Santa Victoria	8	Agosto	2023-08-16T00:00:00	2024-11-08T12:00:00	2	Temperatura media	19.8
124950	7	Sololá	701	Sololá	4	Finca Santa Victoria	8	Agosto	2023-08-16T00:00:00	2024-11-08T12:00:00	4	Temperatura máxima	20.7
124951	7	Sololá	701	Sololá	4	Finca Santa Victoria	8	Agosto	2023-08-16T00:00:00	2024-11-08T12:00:00	3	Temperatura mínima	18.9
124952	7	Sololá	701	Sololá	4	Finca Santa Victoria	8	Agosto	2023-08-16T00:00:00	2024-11-08T12:00:00	5	Humedad	69
124953	7	Sololá	701	Sololá	4	Finca Santa Victoria	8	Agosto	2023-08-16T00:00:00	2024-11-08T12:00:00	6	Velocidad del viento	3.2
124954	7	Sololá	701	Sololá	4	Finca Santa Victoria	8	Agosto	2023-08-16T00:00:00	2024-11-08T12:00:00	7	Dirección del viento	3.22
124955	7	Sololá	701	Sololá	4	Finca Santa Victoria	8	Agosto	2023-08-16T00:00:00	2024-11-08T12:00:00	1	Precipitación	0
124956	7	Sololá	701	Sololá	4	Finca Santa Victoria	8	Agosto	2023-08-16T00:00:00	2024-11-08T12:00:00	8	Radiación solar	254
124957	7	Sololá	701	Sololá	4	Finca Santa Victoria	8	Agosto	2023-08-16T00:00:00	2024-11-08T13:00:00	2	Temperatura media	20.2
124958	7	Sololá	701	Sololá	4	Finca Santa Victoria	8	Agosto	2023-08-16T00:00:00	2024-11-08T13:00:00	4	Temperatura máxima	21.8
124959	7	Sololá	701	Sololá	4	Finca Santa Victoria	8	Agosto	2023-08-16T00:00:00	2024-11-08T13:00:00	3	Temperatura mínima	19.9
124960	7	Sololá	701	Sololá	4	Finca Santa Victoria	8	Agosto	2023-08-16T00:00:00	2024-11-08T13:00:00	5	Humedad	72
124961	7	Sololá	701	Sololá	4	Finca Santa Victoria	8	Agosto	2023-08-16T00:00:00	2024-11-08T13:00:00	6	Velocidad del viento	3.2
124962	7	Sololá	701	Sololá	4	Finca Santa Victoria	8	Agosto	2023-08-16T00:00:00	2024-11-08T13:00:00	7	Dirección del viento	3.22
124963	7	Sololá	701	Sololá	4	Finca Santa Victoria	8	Agosto	2023-08-16T00:00:00	2024-11-08T13:00:00	1	Precipitación	0
124964	7	Sololá	701	Sololá	4	Finca Santa Victoria	8	Agosto	2023-08-16T00:00:00	2024-11-08T13:00:00	8	Radiación solar	496
124965	7	Sololá	701	Sololá	4	Finca Santa Victoria	8	Agosto	2023-08-16T00:00:00	2024-11-08T14:00:00	2	Temperatura media	19.9
124966	7	Sololá	701	Sololá	4	Finca Santa Victoria	8	Agosto	2023-08-16T00:00:00	2024-11-08T14:00:00	4	Temperatura máxima	20.2
124967	7	Sololá	701	Sololá	4	Finca Santa Victoria	8	Agosto	2023-08-16T00:00:00	2024-11-08T14:00:00	3	Temperatura mínima	18.7
124968	7	Sololá	701	Sololá	4	Finca Santa Victoria	8	Agosto	2023-08-16T00:00:00	2024-11-08T14:00:00	5	Humedad	77
124969	7	Sololá	701	Sololá	4	Finca Santa Victoria	8	Agosto	2023-08-16T00:00:00	2024-11-08T14:00:00	6	Velocidad del viento	1.6
124970	7	Sololá	701	Sololá	4	Finca Santa Victoria	8	Agosto	2023-08-16T00:00:00	2024-11-08T14:00:00	7	Dirección del viento	1.61
124971	7	Sololá	701	Sololá	4	Finca Santa Victoria	8	Agosto	2023-08-16T00:00:00	2024-11-08T14:00:00	1	Precipitación	0
124972	7	Sololá	701	Sololá	4	Finca Santa Victoria	8	Agosto	2023-08-16T00:00:00	2024-11-08T14:00:00	8	Radiación solar	169
124973	7	Sololá	701	Sololá	4	Finca Santa Victoria	8	Agosto	2023-08-16T00:00:00	2024-11-08T15:00:00	2	Temperatura media	17.6
124974	7	Sololá	701	Sololá	4	Finca Santa Victoria	8	Agosto	2023-08-16T00:00:00	2024-11-08T15:00:00	4	Temperatura máxima	19.9
124975	7	Sololá	701	Sololá	4	Finca Santa Victoria	8	Agosto	2023-08-16T00:00:00	2024-11-08T15:00:00	3	Temperatura mínima	17.6
124976	7	Sololá	701	Sololá	4	Finca Santa Victoria	8	Agosto	2023-08-16T00:00:00	2024-11-08T15:00:00	5	Humedad	92
124977	7	Sololá	701	Sololá	4	Finca Santa Victoria	8	Agosto	2023-08-16T00:00:00	2024-11-08T15:00:00	6	Velocidad del viento	3.2
124978	7	Sololá	701	Sololá	4	Finca Santa Victoria	8	Agosto	2023-08-16T00:00:00	2024-11-08T15:00:00	7	Dirección del viento	3.22
124979	7	Sololá	701	Sololá	4	Finca Santa Victoria	8	Agosto	2023-08-16T00:00:00	2024-11-08T15:00:00	1	Precipitación	0
124980	7	Sololá	701	Sololá	4	Finca Santa Victoria	8	Agosto	2023-08-16T00:00:00	2024-11-08T15:00:00	8	Radiación solar	119
124981	7	Sololá	701	Sololá	4	Finca Santa Victoria	8	Agosto	2023-08-16T00:00:00	2024-11-08T16:00:00	2	Temperatura media	18.1
124982	7	Sololá	701	Sololá	4	Finca Santa Victoria	8	Agosto	2023-08-16T00:00:00	2024-11-08T16:00:00	4	Temperatura máxima	18.4
124983	7	Sololá	701	Sololá	4	Finca Santa Victoria	8	Agosto	2023-08-16T00:00:00	2024-11-08T16:00:00	3	Temperatura mínima	16.9
124984	7	Sololá	701	Sololá	4	Finca Santa Victoria	8	Agosto	2023-08-16T00:00:00	2024-11-08T16:00:00	5	Humedad	89
124985	7	Sololá	701	Sololá	4	Finca Santa Victoria	8	Agosto	2023-08-16T00:00:00	2024-11-08T16:00:00	6	Velocidad del viento	1.6
124986	7	Sololá	701	Sololá	4	Finca Santa Victoria	8	Agosto	2023-08-16T00:00:00	2024-11-08T16:00:00	7	Dirección del viento	1.61
124987	7	Sololá	701	Sololá	4	Finca Santa Victoria	8	Agosto	2023-08-16T00:00:00	2024-11-08T16:00:00	1	Precipitación	0
124988	7	Sololá	701	Sololá	4	Finca Santa Victoria	8	Agosto	2023-08-16T00:00:00	2024-11-08T16:00:00	8	Radiación solar	104
124989	7	Sololá	701	Sololá	4	Finca Santa Victoria	8	Agosto	2023-08-16T00:00:00	2024-11-08T17:00:00	2	Temperatura media	16.3
124990	7	Sololá	701	Sololá	4	Finca Santa Victoria	8	Agosto	2023-08-16T00:00:00	2024-11-08T17:00:00	4	Temperatura máxima	18.1
124991	7	Sololá	701	Sololá	4	Finca Santa Victoria	8	Agosto	2023-08-16T00:00:00	2024-11-08T17:00:00	3	Temperatura mínima	16.3
124992	7	Sololá	701	Sololá	4	Finca Santa Victoria	8	Agosto	2023-08-16T00:00:00	2024-11-08T17:00:00	5	Humedad	92
124993	7	Sololá	701	Sololá	4	Finca Santa Victoria	8	Agosto	2023-08-16T00:00:00	2024-11-08T17:00:00	6	Velocidad del viento	1.6
124994	7	Sololá	701	Sololá	4	Finca Santa Victoria	8	Agosto	2023-08-16T00:00:00	2024-11-08T17:00:00	7	Dirección del viento	1.61
124995	7	Sololá	701	Sololá	4	Finca Santa Victoria	8	Agosto	2023-08-16T00:00:00	2024-11-08T17:00:00	1	Precipitación	0
124996	7	Sololá	701	Sololá	4	Finca Santa Victoria	8	Agosto	2023-08-16T00:00:00	2024-11-08T17:00:00	8	Radiación solar	52
124997	7	Sololá	701	Sololá	4	Finca Santa Victoria	8	Agosto	2023-08-16T00:00:00	2024-11-08T18:00:00	2	Temperatura media	15.8
124998	7	Sololá	701	Sololá	4	Finca Santa Victoria	8	Agosto	2023-08-16T00:00:00	2024-11-08T18:00:00	4	Temperatura máxima	16.3
124999	7	Sololá	701	Sololá	4	Finca Santa Victoria	8	Agosto	2023-08-16T00:00:00	2024-11-08T18:00:00	3	Temperatura mínima	15.8
125000	7	Sololá	701	Sololá	4	Finca Santa Victoria	8	Agosto	2023-08-16T00:00:00	2024-11-08T18:00:00	5	Humedad	94
125001	7	Sololá	701	Sololá	4	Finca Santa Victoria	8	Agosto	2023-08-16T00:00:00	2024-11-08T18:00:00	6	Velocidad del viento	1.6
125002	7	Sololá	701	Sololá	4	Finca Santa Victoria	8	Agosto	2023-08-16T00:00:00	2024-11-08T18:00:00	7	Dirección del viento	1.61
125003	7	Sololá	701	Sololá	4	Finca Santa Victoria	8	Agosto	2023-08-16T00:00:00	2024-11-08T18:00:00	1	Precipitación	0
125004	7	Sololá	701	Sololá	4	Finca Santa Victoria	8	Agosto	2023-08-16T00:00:00	2024-11-08T18:00:00	8	Radiación solar	30
125005	7	Sololá	701	Sololá	4	Finca Santa Victoria	8	Agosto	2023-08-16T00:00:00	2024-11-08T19:00:00	2	Temperatura media	15
125006	7	Sololá	701	Sololá	4	Finca Santa Victoria	8	Agosto	2023-08-16T00:00:00	2024-11-08T19:00:00	4	Temperatura máxima	15.8
125007	7	Sololá	701	Sololá	4	Finca Santa Victoria	8	Agosto	2023-08-16T00:00:00	2024-11-08T19:00:00	3	Temperatura mínima	14.9
125008	7	Sololá	701	Sololá	4	Finca Santa Victoria	8	Agosto	2023-08-16T00:00:00	2024-11-08T19:00:00	5	Humedad	86
125009	7	Sololá	701	Sololá	4	Finca Santa Victoria	8	Agosto	2023-08-16T00:00:00	2024-11-08T19:00:00	6	Velocidad del viento	0
125010	7	Sololá	701	Sololá	4	Finca Santa Victoria	8	Agosto	2023-08-16T00:00:00	2024-11-08T19:00:00	7	Dirección del viento	0
125011	7	Sololá	701	Sololá	4	Finca Santa Victoria	8	Agosto	2023-08-16T00:00:00	2024-11-08T19:00:00	1	Precipitación	0
125012	7	Sololá	701	Sololá	4	Finca Santa Victoria	8	Agosto	2023-08-16T00:00:00	2024-11-08T19:00:00	8	Radiación solar	0
125013	7	Sololá	701	Sololá	4	Finca Santa Victoria	8	Agosto	2023-08-16T00:00:00	2024-11-08T20:00:00	2	Temperatura media	15.1
125014	7	Sololá	701	Sololá	4	Finca Santa Victoria	8	Agosto	2023-08-16T00:00:00	2024-11-08T20:00:00	4	Temperatura máxima	15.1
125015	7	Sololá	701	Sololá	4	Finca Santa Victoria	8	Agosto	2023-08-16T00:00:00	2024-11-08T20:00:00	3	Temperatura mínima	14.8
125016	7	Sololá	701	Sololá	4	Finca Santa Victoria	8	Agosto	2023-08-16T00:00:00	2024-11-08T20:00:00	5	Humedad	84
125017	7	Sololá	701	Sololá	4	Finca Santa Victoria	8	Agosto	2023-08-16T00:00:00	2024-11-08T20:00:00	6	Velocidad del viento	1.6
125018	7	Sololá	701	Sololá	4	Finca Santa Victoria	8	Agosto	2023-08-16T00:00:00	2024-11-08T20:00:00	7	Dirección del viento	1.61
125019	7	Sololá	701	Sololá	4	Finca Santa Victoria	8	Agosto	2023-08-16T00:00:00	2024-11-08T20:00:00	1	Precipitación	0
125020	7	Sololá	701	Sololá	4	Finca Santa Victoria	8	Agosto	2023-08-16T00:00:00	2024-11-08T20:00:00	8	Radiación solar	0
125021	7	Sololá	701	Sololá	4	Finca Santa Victoria	8	Agosto	2023-08-16T00:00:00	2024-11-08T21:00:00	2	Temperatura media	14.8
125022	7	Sololá	701	Sololá	4	Finca Santa Victoria	8	Agosto	2023-08-16T00:00:00	2024-11-08T21:00:00	4	Temperatura máxima	15.2
125023	7	Sololá	701	Sololá	4	Finca Santa Victoria	8	Agosto	2023-08-16T00:00:00	2024-11-08T21:00:00	3	Temperatura mínima	14.8
125024	7	Sololá	701	Sololá	4	Finca Santa Victoria	8	Agosto	2023-08-16T00:00:00	2024-11-08T21:00:00	5	Humedad	84
125025	7	Sololá	701	Sololá	4	Finca Santa Victoria	8	Agosto	2023-08-16T00:00:00	2024-11-08T21:00:00	6	Velocidad del viento	1.6
125026	7	Sololá	701	Sololá	4	Finca Santa Victoria	8	Agosto	2023-08-16T00:00:00	2024-11-08T21:00:00	7	Dirección del viento	1.61
125027	7	Sololá	701	Sololá	4	Finca Santa Victoria	8	Agosto	2023-08-16T00:00:00	2024-11-08T21:00:00	1	Precipitación	0
125028	7	Sololá	701	Sololá	4	Finca Santa Victoria	8	Agosto	2023-08-16T00:00:00	2024-11-08T21:00:00	8	Radiación solar	0
125029	7	Sololá	701	Sololá	4	Finca Santa Victoria	8	Agosto	2023-08-16T00:00:00	2024-11-08T22:00:00	2	Temperatura media	13.8
125030	7	Sololá	701	Sololá	4	Finca Santa Victoria	8	Agosto	2023-08-16T00:00:00	2024-11-08T22:00:00	4	Temperatura máxima	14.8
125031	7	Sololá	701	Sololá	4	Finca Santa Victoria	8	Agosto	2023-08-16T00:00:00	2024-11-08T22:00:00	3	Temperatura mínima	13.8
125032	7	Sololá	701	Sololá	4	Finca Santa Victoria	8	Agosto	2023-08-16T00:00:00	2024-11-08T22:00:00	5	Humedad	88
125033	7	Sololá	701	Sololá	4	Finca Santa Victoria	8	Agosto	2023-08-16T00:00:00	2024-11-08T22:00:00	6	Velocidad del viento	1.6
125034	7	Sololá	701	Sololá	4	Finca Santa Victoria	8	Agosto	2023-08-16T00:00:00	2024-11-08T22:00:00	7	Dirección del viento	1.61
125035	7	Sololá	701	Sololá	4	Finca Santa Victoria	8	Agosto	2023-08-16T00:00:00	2024-11-08T22:00:00	1	Precipitación	0
125036	7	Sololá	701	Sololá	4	Finca Santa Victoria	8	Agosto	2023-08-16T00:00:00	2024-11-08T22:00:00	8	Radiación solar	0
125037	7	Sololá	701	Sololá	4	Finca Santa Victoria	8	Agosto	2023-08-16T00:00:00	2024-11-08T23:00:00	2	Temperatura media	13.4
125038	7	Sololá	701	Sololá	4	Finca Santa Victoria	8	Agosto	2023-08-16T00:00:00	2024-11-08T23:00:00	4	Temperatura máxima	13.8
125039	7	Sololá	701	Sololá	4	Finca Santa Victoria	8	Agosto	2023-08-16T00:00:00	2024-11-08T23:00:00	3	Temperatura mínima	13.3
125040	7	Sololá	701	Sololá	4	Finca Santa Victoria	8	Agosto	2023-08-16T00:00:00	2024-11-08T23:00:00	5	Humedad	93
125041	7	Sololá	701	Sololá	4	Finca Santa Victoria	8	Agosto	2023-08-16T00:00:00	2024-11-08T23:00:00	6	Velocidad del viento	0
125042	7	Sololá	701	Sololá	4	Finca Santa Victoria	8	Agosto	2023-08-16T00:00:00	2024-11-08T23:00:00	7	Dirección del viento	0
125043	7	Sololá	701	Sololá	4	Finca Santa Victoria	8	Agosto	2023-08-16T00:00:00	2024-11-08T23:00:00	1	Precipitación	0
125044	7	Sololá	701	Sololá	4	Finca Santa Victoria	8	Agosto	2023-08-16T00:00:00	2024-11-08T23:00:00	8	Radiación solar	0
125045	7	Sololá	701	Sololá	4	Finca Santa Victoria	8	Agosto	2023-08-17T00:00:00	2024-11-08T00:00:00	2	Temperatura media	13.6
125046	7	Sololá	701	Sololá	4	Finca Santa Victoria	8	Agosto	2023-08-17T00:00:00	2024-11-08T00:00:00	4	Temperatura máxima	13.8
125047	7	Sololá	701	Sololá	4	Finca Santa Victoria	8	Agosto	2023-08-17T00:00:00	2024-11-08T00:00:00	3	Temperatura mínima	13.3
125048	7	Sololá	701	Sololá	4	Finca Santa Victoria	8	Agosto	2023-08-17T00:00:00	2024-11-08T00:00:00	5	Humedad	89
125049	7	Sololá	701	Sololá	4	Finca Santa Victoria	8	Agosto	2023-08-17T00:00:00	2024-11-08T00:00:00	6	Velocidad del viento	1.6
125050	7	Sololá	701	Sololá	4	Finca Santa Victoria	8	Agosto	2023-08-17T00:00:00	2024-11-08T00:00:00	7	Dirección del viento	1.61
125051	7	Sololá	701	Sololá	4	Finca Santa Victoria	8	Agosto	2023-08-17T00:00:00	2024-11-08T00:00:00	1	Precipitación	0
125052	7	Sololá	701	Sololá	4	Finca Santa Victoria	8	Agosto	2023-08-17T00:00:00	2024-11-08T00:00:00	8	Radiación solar	0
125053	7	Sololá	701	Sololá	4	Finca Santa Victoria	8	Agosto	2023-08-17T00:00:00	2024-11-08T01:00:00	2	Temperatura media	13.6
125054	7	Sololá	701	Sololá	4	Finca Santa Victoria	8	Agosto	2023-08-17T00:00:00	2024-11-08T01:00:00	4	Temperatura máxima	13.6
125055	7	Sololá	701	Sololá	4	Finca Santa Victoria	8	Agosto	2023-08-17T00:00:00	2024-11-08T01:00:00	3	Temperatura mínima	13.2
125056	7	Sololá	701	Sololá	4	Finca Santa Victoria	8	Agosto	2023-08-17T00:00:00	2024-11-08T01:00:00	5	Humedad	89
125057	7	Sololá	701	Sololá	4	Finca Santa Victoria	8	Agosto	2023-08-17T00:00:00	2024-11-08T01:00:00	6	Velocidad del viento	0
125058	7	Sololá	701	Sololá	4	Finca Santa Victoria	8	Agosto	2023-08-17T00:00:00	2024-11-08T01:00:00	7	Dirección del viento	0
125059	7	Sololá	701	Sololá	4	Finca Santa Victoria	8	Agosto	2023-08-17T00:00:00	2024-11-08T01:00:00	1	Precipitación	0
125060	7	Sololá	701	Sololá	4	Finca Santa Victoria	8	Agosto	2023-08-17T00:00:00	2024-11-08T01:00:00	8	Radiación solar	0
125061	7	Sololá	701	Sololá	4	Finca Santa Victoria	8	Agosto	2023-08-17T00:00:00	2024-11-08T02:00:00	2	Temperatura media	13.7
125062	7	Sololá	701	Sololá	4	Finca Santa Victoria	8	Agosto	2023-08-17T00:00:00	2024-11-08T02:00:00	4	Temperatura máxima	13.9
125063	7	Sololá	701	Sololá	4	Finca Santa Victoria	8	Agosto	2023-08-17T00:00:00	2024-11-08T02:00:00	3	Temperatura mínima	13.6
125064	7	Sololá	701	Sololá	4	Finca Santa Victoria	8	Agosto	2023-08-17T00:00:00	2024-11-08T02:00:00	5	Humedad	87
125065	7	Sololá	701	Sololá	4	Finca Santa Victoria	8	Agosto	2023-08-17T00:00:00	2024-11-08T02:00:00	6	Velocidad del viento	1.6
125066	7	Sololá	701	Sololá	4	Finca Santa Victoria	8	Agosto	2023-08-17T00:00:00	2024-11-08T02:00:00	7	Dirección del viento	1.61
125067	7	Sololá	701	Sololá	4	Finca Santa Victoria	8	Agosto	2023-08-17T00:00:00	2024-11-08T02:00:00	1	Precipitación	0
125068	7	Sololá	701	Sololá	4	Finca Santa Victoria	8	Agosto	2023-08-17T00:00:00	2024-11-08T02:00:00	8	Radiación solar	0
125069	7	Sololá	701	Sololá	4	Finca Santa Victoria	8	Agosto	2023-08-17T00:00:00	2024-11-08T03:00:00	2	Temperatura media	13.5
125070	7	Sololá	701	Sololá	4	Finca Santa Victoria	8	Agosto	2023-08-17T00:00:00	2024-11-08T03:00:00	4	Temperatura máxima	13.8
125071	7	Sololá	701	Sololá	4	Finca Santa Victoria	8	Agosto	2023-08-17T00:00:00	2024-11-08T03:00:00	3	Temperatura mínima	13.3
125072	7	Sololá	701	Sololá	4	Finca Santa Victoria	8	Agosto	2023-08-17T00:00:00	2024-11-08T03:00:00	5	Humedad	88
125073	7	Sololá	701	Sololá	4	Finca Santa Victoria	8	Agosto	2023-08-17T00:00:00	2024-11-08T03:00:00	6	Velocidad del viento	1.6
125074	7	Sololá	701	Sololá	4	Finca Santa Victoria	8	Agosto	2023-08-17T00:00:00	2024-11-08T03:00:00	7	Dirección del viento	1.61
125075	7	Sololá	701	Sololá	4	Finca Santa Victoria	8	Agosto	2023-08-17T00:00:00	2024-11-08T03:00:00	1	Precipitación	0
125076	7	Sololá	701	Sololá	4	Finca Santa Victoria	8	Agosto	2023-08-17T00:00:00	2024-11-08T03:00:00	8	Radiación solar	0
125077	7	Sololá	701	Sololá	4	Finca Santa Victoria	8	Agosto	2023-08-17T00:00:00	2024-11-08T04:00:00	2	Temperatura media	13.4
125078	7	Sololá	701	Sololá	4	Finca Santa Victoria	8	Agosto	2023-08-17T00:00:00	2024-11-08T04:00:00	4	Temperatura máxima	13.6
125079	7	Sololá	701	Sololá	4	Finca Santa Victoria	8	Agosto	2023-08-17T00:00:00	2024-11-08T04:00:00	3	Temperatura mínima	13.3
125080	7	Sololá	701	Sololá	4	Finca Santa Victoria	8	Agosto	2023-08-17T00:00:00	2024-11-08T04:00:00	5	Humedad	88
125081	7	Sololá	701	Sololá	4	Finca Santa Victoria	8	Agosto	2023-08-17T00:00:00	2024-11-08T04:00:00	6	Velocidad del viento	1.6
125082	7	Sololá	701	Sololá	4	Finca Santa Victoria	8	Agosto	2023-08-17T00:00:00	2024-11-08T04:00:00	7	Dirección del viento	1.61
125083	7	Sololá	701	Sololá	4	Finca Santa Victoria	8	Agosto	2023-08-17T00:00:00	2024-11-08T04:00:00	1	Precipitación	0
125084	7	Sololá	701	Sololá	4	Finca Santa Victoria	8	Agosto	2023-08-17T00:00:00	2024-11-08T04:00:00	8	Radiación solar	0
125085	7	Sololá	701	Sololá	4	Finca Santa Victoria	8	Agosto	2023-08-17T00:00:00	2024-11-08T05:00:00	2	Temperatura media	13.4
125086	7	Sololá	701	Sololá	4	Finca Santa Victoria	8	Agosto	2023-08-17T00:00:00	2024-11-08T05:00:00	4	Temperatura máxima	13.7
125087	7	Sololá	701	Sololá	4	Finca Santa Victoria	8	Agosto	2023-08-17T00:00:00	2024-11-08T05:00:00	3	Temperatura mínima	13.4
125088	7	Sololá	701	Sololá	4	Finca Santa Victoria	8	Agosto	2023-08-17T00:00:00	2024-11-08T05:00:00	5	Humedad	87
125089	7	Sololá	701	Sololá	4	Finca Santa Victoria	8	Agosto	2023-08-17T00:00:00	2024-11-08T05:00:00	6	Velocidad del viento	1.6
125090	7	Sololá	701	Sololá	4	Finca Santa Victoria	8	Agosto	2023-08-17T00:00:00	2024-11-08T05:00:00	7	Dirección del viento	1.61
125091	7	Sololá	701	Sololá	4	Finca Santa Victoria	8	Agosto	2023-08-17T00:00:00	2024-11-08T05:00:00	1	Precipitación	0
125092	7	Sololá	701	Sololá	4	Finca Santa Victoria	8	Agosto	2023-08-17T00:00:00	2024-11-08T05:00:00	8	Radiación solar	0
125093	7	Sololá	701	Sololá	4	Finca Santa Victoria	8	Agosto	2023-08-17T00:00:00	2024-11-08T06:00:00	2	Temperatura media	12.4
125094	7	Sololá	701	Sololá	4	Finca Santa Victoria	8	Agosto	2023-08-17T00:00:00	2024-11-08T06:00:00	4	Temperatura máxima	13.4
125095	7	Sololá	701	Sololá	4	Finca Santa Victoria	8	Agosto	2023-08-17T00:00:00	2024-11-08T06:00:00	3	Temperatura mínima	12.4
125096	7	Sololá	701	Sololá	4	Finca Santa Victoria	8	Agosto	2023-08-17T00:00:00	2024-11-08T06:00:00	5	Humedad	90
125097	7	Sololá	701	Sololá	4	Finca Santa Victoria	8	Agosto	2023-08-17T00:00:00	2024-11-08T06:00:00	6	Velocidad del viento	0
125098	7	Sololá	701	Sololá	4	Finca Santa Victoria	8	Agosto	2023-08-17T00:00:00	2024-11-08T06:00:00	7	Dirección del viento	0
125099	7	Sololá	701	Sololá	4	Finca Santa Victoria	8	Agosto	2023-08-17T00:00:00	2024-11-08T06:00:00	1	Precipitación	0
125100	7	Sololá	701	Sololá	4	Finca Santa Victoria	8	Agosto	2023-08-17T00:00:00	2024-11-08T06:00:00	8	Radiación solar	0
125101	7	Sololá	701	Sololá	4	Finca Santa Victoria	8	Agosto	2023-08-17T00:00:00	2024-11-08T07:00:00	2	Temperatura media	12.4
125102	7	Sololá	701	Sololá	4	Finca Santa Victoria	8	Agosto	2023-08-17T00:00:00	2024-11-08T07:00:00	4	Temperatura máxima	12.5
125103	7	Sololá	701	Sololá	4	Finca Santa Victoria	8	Agosto	2023-08-17T00:00:00	2024-11-08T07:00:00	3	Temperatura mínima	12.3
125104	7	Sololá	701	Sololá	4	Finca Santa Victoria	8	Agosto	2023-08-17T00:00:00	2024-11-08T07:00:00	5	Humedad	92
125105	7	Sololá	701	Sololá	4	Finca Santa Victoria	8	Agosto	2023-08-17T00:00:00	2024-11-08T07:00:00	6	Velocidad del viento	1.6
125106	7	Sololá	701	Sololá	4	Finca Santa Victoria	8	Agosto	2023-08-17T00:00:00	2024-11-08T07:00:00	7	Dirección del viento	1.61
125107	7	Sololá	701	Sololá	4	Finca Santa Victoria	8	Agosto	2023-08-17T00:00:00	2024-11-08T07:00:00	1	Precipitación	0
125108	7	Sololá	701	Sololá	4	Finca Santa Victoria	8	Agosto	2023-08-17T00:00:00	2024-11-08T07:00:00	8	Radiación solar	11
125109	7	Sololá	701	Sololá	4	Finca Santa Victoria	8	Agosto	2023-08-17T00:00:00	2024-11-08T08:00:00	2	Temperatura media	16.2
125110	7	Sololá	701	Sololá	4	Finca Santa Victoria	8	Agosto	2023-08-17T00:00:00	2024-11-08T08:00:00	4	Temperatura máxima	16.2
125111	7	Sololá	701	Sololá	4	Finca Santa Victoria	8	Agosto	2023-08-17T00:00:00	2024-11-08T08:00:00	3	Temperatura mínima	12.4
125112	7	Sololá	701	Sololá	4	Finca Santa Victoria	8	Agosto	2023-08-17T00:00:00	2024-11-08T08:00:00	5	Humedad	81
125113	7	Sololá	701	Sololá	4	Finca Santa Victoria	8	Agosto	2023-08-17T00:00:00	2024-11-08T08:00:00	6	Velocidad del viento	0
125114	7	Sololá	701	Sololá	4	Finca Santa Victoria	8	Agosto	2023-08-17T00:00:00	2024-11-08T08:00:00	7	Dirección del viento	0
125115	7	Sololá	701	Sololá	4	Finca Santa Victoria	8	Agosto	2023-08-17T00:00:00	2024-11-08T08:00:00	1	Precipitación	0
125116	7	Sololá	701	Sololá	4	Finca Santa Victoria	8	Agosto	2023-08-17T00:00:00	2024-11-08T08:00:00	8	Radiación solar	181
125117	7	Sololá	701	Sololá	4	Finca Santa Victoria	8	Agosto	2023-08-17T00:00:00	2024-11-08T09:00:00	2	Temperatura media	17.9
125118	7	Sololá	701	Sololá	4	Finca Santa Victoria	8	Agosto	2023-08-17T00:00:00	2024-11-08T09:00:00	4	Temperatura máxima	17.9
125119	7	Sololá	701	Sololá	4	Finca Santa Victoria	8	Agosto	2023-08-17T00:00:00	2024-11-08T09:00:00	3	Temperatura mínima	16.2
125120	7	Sololá	701	Sololá	4	Finca Santa Victoria	8	Agosto	2023-08-17T00:00:00	2024-11-08T09:00:00	5	Humedad	74
125121	7	Sololá	701	Sololá	4	Finca Santa Victoria	8	Agosto	2023-08-17T00:00:00	2024-11-08T09:00:00	6	Velocidad del viento	1.6
125122	7	Sololá	701	Sololá	4	Finca Santa Victoria	8	Agosto	2023-08-17T00:00:00	2024-11-08T09:00:00	7	Dirección del viento	1.61
125123	7	Sololá	701	Sololá	4	Finca Santa Victoria	8	Agosto	2023-08-17T00:00:00	2024-11-08T09:00:00	1	Precipitación	0
125124	7	Sololá	701	Sololá	4	Finca Santa Victoria	8	Agosto	2023-08-17T00:00:00	2024-11-08T09:00:00	8	Radiación solar	317
125125	7	Sololá	701	Sololá	4	Finca Santa Victoria	8	Agosto	2023-08-17T00:00:00	2024-11-08T10:00:00	2	Temperatura media	18.8
125126	7	Sololá	701	Sololá	4	Finca Santa Victoria	8	Agosto	2023-08-17T00:00:00	2024-11-08T10:00:00	4	Temperatura máxima	18.8
125127	7	Sololá	701	Sololá	4	Finca Santa Victoria	8	Agosto	2023-08-17T00:00:00	2024-11-08T10:00:00	3	Temperatura mínima	17.9
125128	7	Sololá	701	Sololá	4	Finca Santa Victoria	8	Agosto	2023-08-17T00:00:00	2024-11-08T10:00:00	5	Humedad	69
125129	7	Sololá	701	Sololá	4	Finca Santa Victoria	8	Agosto	2023-08-17T00:00:00	2024-11-08T10:00:00	6	Velocidad del viento	4.8
125130	7	Sololá	701	Sololá	4	Finca Santa Victoria	8	Agosto	2023-08-17T00:00:00	2024-11-08T10:00:00	7	Dirección del viento	4.83
125131	7	Sololá	701	Sololá	4	Finca Santa Victoria	8	Agosto	2023-08-17T00:00:00	2024-11-08T10:00:00	1	Precipitación	0
125132	7	Sololá	701	Sololá	4	Finca Santa Victoria	8	Agosto	2023-08-17T00:00:00	2024-11-08T10:00:00	8	Radiación solar	130
125133	7	Sololá	701	Sololá	4	Finca Santa Victoria	8	Agosto	2023-08-17T00:00:00	2024-11-08T11:00:00	2	Temperatura media	20.8
125134	7	Sololá	701	Sololá	4	Finca Santa Victoria	8	Agosto	2023-08-17T00:00:00	2024-11-08T11:00:00	4	Temperatura máxima	20.9
125135	7	Sololá	701	Sololá	4	Finca Santa Victoria	8	Agosto	2023-08-17T00:00:00	2024-11-08T11:00:00	3	Temperatura mínima	18.8
125136	7	Sololá	701	Sololá	4	Finca Santa Victoria	8	Agosto	2023-08-17T00:00:00	2024-11-08T11:00:00	5	Humedad	61
125137	7	Sololá	701	Sololá	4	Finca Santa Victoria	8	Agosto	2023-08-17T00:00:00	2024-11-08T11:00:00	6	Velocidad del viento	3.2
125138	7	Sololá	701	Sololá	4	Finca Santa Victoria	8	Agosto	2023-08-17T00:00:00	2024-11-08T11:00:00	7	Dirección del viento	3.22
125139	7	Sololá	701	Sololá	4	Finca Santa Victoria	8	Agosto	2023-08-17T00:00:00	2024-11-08T11:00:00	1	Precipitación	0
125140	7	Sololá	701	Sololá	4	Finca Santa Victoria	8	Agosto	2023-08-17T00:00:00	2024-11-08T11:00:00	8	Radiación solar	511
125141	7	Sololá	701	Sololá	4	Finca Santa Victoria	8	Agosto	2023-08-17T00:00:00	2024-11-08T12:00:00	2	Temperatura media	21.7
125142	7	Sololá	701	Sololá	4	Finca Santa Victoria	8	Agosto	2023-08-17T00:00:00	2024-11-08T12:00:00	4	Temperatura máxima	21.7
125143	7	Sololá	701	Sololá	4	Finca Santa Victoria	8	Agosto	2023-08-17T00:00:00	2024-11-08T12:00:00	3	Temperatura mínima	19.9
125144	7	Sololá	701	Sololá	4	Finca Santa Victoria	8	Agosto	2023-08-17T00:00:00	2024-11-08T12:00:00	5	Humedad	63
125145	7	Sololá	701	Sololá	4	Finca Santa Victoria	8	Agosto	2023-08-17T00:00:00	2024-11-08T12:00:00	6	Velocidad del viento	4.8
125146	7	Sololá	701	Sololá	4	Finca Santa Victoria	8	Agosto	2023-08-17T00:00:00	2024-11-08T12:00:00	7	Dirección del viento	4.83
125147	7	Sololá	701	Sololá	4	Finca Santa Victoria	8	Agosto	2023-08-17T00:00:00	2024-11-08T12:00:00	1	Precipitación	0
125148	7	Sololá	701	Sololá	4	Finca Santa Victoria	8	Agosto	2023-08-17T00:00:00	2024-11-08T12:00:00	8	Radiación solar	958
125149	7	Sololá	701	Sololá	4	Finca Santa Victoria	8	Agosto	2023-08-17T00:00:00	2024-11-08T13:00:00	2	Temperatura media	20.9
125150	7	Sololá	701	Sololá	4	Finca Santa Victoria	8	Agosto	2023-08-17T00:00:00	2024-11-08T13:00:00	4	Temperatura máxima	22.1
125151	7	Sololá	701	Sololá	4	Finca Santa Victoria	8	Agosto	2023-08-17T00:00:00	2024-11-08T13:00:00	3	Temperatura mínima	20.9
125152	7	Sololá	701	Sololá	4	Finca Santa Victoria	8	Agosto	2023-08-17T00:00:00	2024-11-08T13:00:00	5	Humedad	62
125153	7	Sololá	701	Sololá	4	Finca Santa Victoria	8	Agosto	2023-08-17T00:00:00	2024-11-08T13:00:00	6	Velocidad del viento	3.2
125154	7	Sololá	701	Sololá	4	Finca Santa Victoria	8	Agosto	2023-08-17T00:00:00	2024-11-08T13:00:00	7	Dirección del viento	3.22
125155	7	Sololá	701	Sololá	4	Finca Santa Victoria	8	Agosto	2023-08-17T00:00:00	2024-11-08T13:00:00	1	Precipitación	0
125156	7	Sololá	701	Sololá	4	Finca Santa Victoria	8	Agosto	2023-08-17T00:00:00	2024-11-08T13:00:00	8	Radiación solar	698
125157	7	Sololá	701	Sololá	4	Finca Santa Victoria	8	Agosto	2023-08-17T00:00:00	2024-11-08T14:00:00	2	Temperatura media	21.2
125158	7	Sololá	701	Sololá	4	Finca Santa Victoria	8	Agosto	2023-08-17T00:00:00	2024-11-08T14:00:00	4	Temperatura máxima	22.3
125159	7	Sololá	701	Sololá	4	Finca Santa Victoria	8	Agosto	2023-08-17T00:00:00	2024-11-08T14:00:00	3	Temperatura mínima	20.3
125160	7	Sololá	701	Sololá	4	Finca Santa Victoria	8	Agosto	2023-08-17T00:00:00	2024-11-08T14:00:00	5	Humedad	60
125161	7	Sololá	701	Sololá	4	Finca Santa Victoria	8	Agosto	2023-08-17T00:00:00	2024-11-08T14:00:00	6	Velocidad del viento	3.2
125162	7	Sololá	701	Sololá	4	Finca Santa Victoria	8	Agosto	2023-08-17T00:00:00	2024-11-08T14:00:00	7	Dirección del viento	3.22
125163	7	Sololá	701	Sololá	4	Finca Santa Victoria	8	Agosto	2023-08-17T00:00:00	2024-11-08T14:00:00	1	Precipitación	0
125164	7	Sololá	701	Sololá	4	Finca Santa Victoria	8	Agosto	2023-08-17T00:00:00	2024-11-08T14:00:00	8	Radiación solar	203
125165	7	Sololá	701	Sololá	4	Finca Santa Victoria	8	Agosto	2023-08-17T00:00:00	2024-11-08T15:00:00	2	Temperatura media	19.9
125166	7	Sololá	701	Sololá	4	Finca Santa Victoria	8	Agosto	2023-08-17T00:00:00	2024-11-08T15:00:00	4	Temperatura máxima	21.1
125167	7	Sololá	701	Sololá	4	Finca Santa Victoria	8	Agosto	2023-08-17T00:00:00	2024-11-08T15:00:00	3	Temperatura mínima	19.9
125168	7	Sololá	701	Sololá	4	Finca Santa Victoria	8	Agosto	2023-08-17T00:00:00	2024-11-08T15:00:00	5	Humedad	67
125169	7	Sololá	701	Sololá	4	Finca Santa Victoria	8	Agosto	2023-08-17T00:00:00	2024-11-08T15:00:00	6	Velocidad del viento	3.2
125170	7	Sololá	701	Sololá	4	Finca Santa Victoria	8	Agosto	2023-08-17T00:00:00	2024-11-08T15:00:00	7	Dirección del viento	3.22
125171	7	Sololá	701	Sololá	4	Finca Santa Victoria	8	Agosto	2023-08-17T00:00:00	2024-11-08T15:00:00	1	Precipitación	0
125172	7	Sololá	701	Sololá	4	Finca Santa Victoria	8	Agosto	2023-08-17T00:00:00	2024-11-08T15:00:00	8	Radiación solar	159
125173	7	Sololá	701	Sololá	4	Finca Santa Victoria	8	Agosto	2023-08-17T00:00:00	2024-11-08T16:00:00	2	Temperatura media	19.7
125174	7	Sololá	701	Sololá	4	Finca Santa Victoria	8	Agosto	2023-08-17T00:00:00	2024-11-08T16:00:00	4	Temperatura máxima	20.5
125175	7	Sololá	701	Sololá	4	Finca Santa Victoria	8	Agosto	2023-08-17T00:00:00	2024-11-08T16:00:00	3	Temperatura mínima	19.7
125176	7	Sololá	701	Sololá	4	Finca Santa Victoria	8	Agosto	2023-08-17T00:00:00	2024-11-08T16:00:00	5	Humedad	66
125177	7	Sololá	701	Sololá	4	Finca Santa Victoria	8	Agosto	2023-08-17T00:00:00	2024-11-08T16:00:00	6	Velocidad del viento	1.6
125178	7	Sololá	701	Sololá	4	Finca Santa Victoria	8	Agosto	2023-08-17T00:00:00	2024-11-08T16:00:00	7	Dirección del viento	1.61
125179	7	Sololá	701	Sololá	4	Finca Santa Victoria	8	Agosto	2023-08-17T00:00:00	2024-11-08T16:00:00	1	Precipitación	0
125180	7	Sololá	701	Sololá	4	Finca Santa Victoria	8	Agosto	2023-08-17T00:00:00	2024-11-08T16:00:00	8	Radiación solar	122
125181	7	Sololá	701	Sololá	4	Finca Santa Victoria	8	Agosto	2023-08-17T00:00:00	2024-11-08T17:00:00	2	Temperatura media	20.7
125182	7	Sololá	701	Sololá	4	Finca Santa Victoria	8	Agosto	2023-08-17T00:00:00	2024-11-08T17:00:00	4	Temperatura máxima	21.2
125183	7	Sololá	701	Sololá	4	Finca Santa Victoria	8	Agosto	2023-08-17T00:00:00	2024-11-08T17:00:00	3	Temperatura mínima	19.7
125184	7	Sololá	701	Sololá	4	Finca Santa Victoria	8	Agosto	2023-08-17T00:00:00	2024-11-08T17:00:00	5	Humedad	66
125185	7	Sololá	701	Sololá	4	Finca Santa Victoria	8	Agosto	2023-08-17T00:00:00	2024-11-08T17:00:00	6	Velocidad del viento	1.6
125186	7	Sololá	701	Sololá	4	Finca Santa Victoria	8	Agosto	2023-08-17T00:00:00	2024-11-08T17:00:00	7	Dirección del viento	1.61
125187	7	Sololá	701	Sololá	4	Finca Santa Victoria	8	Agosto	2023-08-17T00:00:00	2024-11-08T17:00:00	1	Precipitación	0
125188	7	Sololá	701	Sololá	4	Finca Santa Victoria	8	Agosto	2023-08-17T00:00:00	2024-11-08T17:00:00	8	Radiación solar	149
125189	7	Sololá	701	Sololá	4	Finca Santa Victoria	8	Agosto	2023-08-17T00:00:00	2024-11-08T18:00:00	2	Temperatura media	17.5
125190	7	Sololá	701	Sololá	4	Finca Santa Victoria	8	Agosto	2023-08-17T00:00:00	2024-11-08T18:00:00	4	Temperatura máxima	20.8
125191	7	Sololá	701	Sololá	4	Finca Santa Victoria	8	Agosto	2023-08-17T00:00:00	2024-11-08T18:00:00	3	Temperatura mínima	17.4
125192	7	Sololá	701	Sololá	4	Finca Santa Victoria	8	Agosto	2023-08-17T00:00:00	2024-11-08T18:00:00	5	Humedad	91
125193	7	Sololá	701	Sololá	4	Finca Santa Victoria	8	Agosto	2023-08-17T00:00:00	2024-11-08T18:00:00	6	Velocidad del viento	1.6
125194	7	Sololá	701	Sololá	4	Finca Santa Victoria	8	Agosto	2023-08-17T00:00:00	2024-11-08T18:00:00	7	Dirección del viento	1.61
125195	7	Sololá	701	Sololá	4	Finca Santa Victoria	8	Agosto	2023-08-17T00:00:00	2024-11-08T18:00:00	1	Precipitación	0
125196	7	Sololá	701	Sololá	4	Finca Santa Victoria	8	Agosto	2023-08-17T00:00:00	2024-11-08T18:00:00	8	Radiación solar	49
125197	7	Sololá	701	Sololá	4	Finca Santa Victoria	8	Agosto	2023-08-17T00:00:00	2024-11-08T19:00:00	2	Temperatura media	16.3
125198	7	Sololá	701	Sololá	4	Finca Santa Victoria	8	Agosto	2023-08-17T00:00:00	2024-11-08T19:00:00	4	Temperatura máxima	17.4
125199	7	Sololá	701	Sololá	4	Finca Santa Victoria	8	Agosto	2023-08-17T00:00:00	2024-11-08T19:00:00	3	Temperatura mínima	16.3
125200	7	Sololá	701	Sololá	4	Finca Santa Victoria	8	Agosto	2023-08-17T00:00:00	2024-11-08T19:00:00	5	Humedad	93
125201	7	Sololá	701	Sololá	4	Finca Santa Victoria	8	Agosto	2023-08-17T00:00:00	2024-11-08T19:00:00	6	Velocidad del viento	0
125202	7	Sololá	701	Sololá	4	Finca Santa Victoria	8	Agosto	2023-08-17T00:00:00	2024-11-08T19:00:00	7	Dirección del viento	0
125203	7	Sololá	701	Sololá	4	Finca Santa Victoria	8	Agosto	2023-08-17T00:00:00	2024-11-08T19:00:00	1	Precipitación	0
125204	7	Sololá	701	Sololá	4	Finca Santa Victoria	8	Agosto	2023-08-17T00:00:00	2024-11-08T19:00:00	8	Radiación solar	0
125205	7	Sololá	701	Sololá	4	Finca Santa Victoria	8	Agosto	2023-08-17T00:00:00	2024-11-08T20:00:00	2	Temperatura media	15.9
125206	7	Sololá	701	Sololá	4	Finca Santa Victoria	8	Agosto	2023-08-17T00:00:00	2024-11-08T20:00:00	4	Temperatura máxima	16.4
125207	7	Sololá	701	Sololá	4	Finca Santa Victoria	8	Agosto	2023-08-17T00:00:00	2024-11-08T20:00:00	3	Temperatura mínima	15.8
125208	7	Sololá	701	Sololá	4	Finca Santa Victoria	8	Agosto	2023-08-17T00:00:00	2024-11-08T20:00:00	5	Humedad	82
125209	7	Sololá	701	Sololá	4	Finca Santa Victoria	8	Agosto	2023-08-17T00:00:00	2024-11-08T20:00:00	6	Velocidad del viento	3.2
125210	7	Sololá	701	Sololá	4	Finca Santa Victoria	8	Agosto	2023-08-17T00:00:00	2024-11-08T20:00:00	7	Dirección del viento	3.22
125211	7	Sololá	701	Sololá	4	Finca Santa Victoria	8	Agosto	2023-08-17T00:00:00	2024-11-08T20:00:00	1	Precipitación	0
125212	7	Sololá	701	Sololá	4	Finca Santa Victoria	8	Agosto	2023-08-17T00:00:00	2024-11-08T20:00:00	8	Radiación solar	0
125213	7	Sololá	701	Sololá	4	Finca Santa Victoria	8	Agosto	2023-08-17T00:00:00	2024-11-08T21:00:00	2	Temperatura media	15
125214	7	Sololá	701	Sololá	4	Finca Santa Victoria	8	Agosto	2023-08-17T00:00:00	2024-11-08T21:00:00	4	Temperatura máxima	15.9
125215	7	Sololá	701	Sololá	4	Finca Santa Victoria	8	Agosto	2023-08-17T00:00:00	2024-11-08T21:00:00	3	Temperatura mínima	15
125216	7	Sololá	701	Sololá	4	Finca Santa Victoria	8	Agosto	2023-08-17T00:00:00	2024-11-08T21:00:00	5	Humedad	85
125217	7	Sololá	701	Sololá	4	Finca Santa Victoria	8	Agosto	2023-08-17T00:00:00	2024-11-08T21:00:00	6	Velocidad del viento	3.2
125218	7	Sololá	701	Sololá	4	Finca Santa Victoria	8	Agosto	2023-08-17T00:00:00	2024-11-08T21:00:00	7	Dirección del viento	3.22
125219	7	Sololá	701	Sololá	4	Finca Santa Victoria	8	Agosto	2023-08-17T00:00:00	2024-11-08T21:00:00	1	Precipitación	0
125220	7	Sololá	701	Sololá	4	Finca Santa Victoria	8	Agosto	2023-08-17T00:00:00	2024-11-08T21:00:00	8	Radiación solar	0
125221	7	Sololá	701	Sololá	4	Finca Santa Victoria	8	Agosto	2023-08-17T00:00:00	2024-11-08T22:00:00	2	Temperatura media	14.9
125222	7	Sololá	701	Sololá	4	Finca Santa Victoria	8	Agosto	2023-08-17T00:00:00	2024-11-08T22:00:00	4	Temperatura máxima	15.1
125223	7	Sololá	701	Sololá	4	Finca Santa Victoria	8	Agosto	2023-08-17T00:00:00	2024-11-08T22:00:00	3	Temperatura mínima	14.7
125224	7	Sololá	701	Sololá	4	Finca Santa Victoria	8	Agosto	2023-08-17T00:00:00	2024-11-08T22:00:00	5	Humedad	85
125225	7	Sololá	701	Sololá	4	Finca Santa Victoria	8	Agosto	2023-08-17T00:00:00	2024-11-08T22:00:00	6	Velocidad del viento	1.6
125226	7	Sololá	701	Sololá	4	Finca Santa Victoria	8	Agosto	2023-08-17T00:00:00	2024-11-08T22:00:00	7	Dirección del viento	1.61
125227	7	Sololá	701	Sololá	4	Finca Santa Victoria	8	Agosto	2023-08-17T00:00:00	2024-11-08T22:00:00	1	Precipitación	0
125228	7	Sololá	701	Sololá	4	Finca Santa Victoria	8	Agosto	2023-08-17T00:00:00	2024-11-08T22:00:00	8	Radiación solar	0
125229	7	Sololá	701	Sololá	4	Finca Santa Victoria	8	Agosto	2023-08-17T00:00:00	2024-11-08T23:00:00	2	Temperatura media	14.2
125230	7	Sololá	701	Sololá	4	Finca Santa Victoria	8	Agosto	2023-08-17T00:00:00	2024-11-08T23:00:00	4	Temperatura máxima	14.9
125231	7	Sololá	701	Sololá	4	Finca Santa Victoria	8	Agosto	2023-08-17T00:00:00	2024-11-08T23:00:00	3	Temperatura mínima	14.2
125232	7	Sololá	701	Sololá	4	Finca Santa Victoria	8	Agosto	2023-08-17T00:00:00	2024-11-08T23:00:00	5	Humedad	86
125233	7	Sololá	701	Sololá	4	Finca Santa Victoria	8	Agosto	2023-08-17T00:00:00	2024-11-08T23:00:00	6	Velocidad del viento	1.6
125234	7	Sololá	701	Sololá	4	Finca Santa Victoria	8	Agosto	2023-08-17T00:00:00	2024-11-08T23:00:00	7	Dirección del viento	1.61
125235	7	Sololá	701	Sololá	4	Finca Santa Victoria	8	Agosto	2023-08-17T00:00:00	2024-11-08T23:00:00	1	Precipitación	0
125236	7	Sololá	701	Sololá	4	Finca Santa Victoria	8	Agosto	2023-08-17T00:00:00	2024-11-08T23:00:00	8	Radiación solar	0
125237	7	Sololá	701	Sololá	4	Finca Santa Victoria	8	Agosto	2023-08-18T00:00:00	2024-11-08T00:00:00	2	Temperatura media	14.3
125238	7	Sololá	701	Sololá	4	Finca Santa Victoria	8	Agosto	2023-08-18T00:00:00	2024-11-08T00:00:00	4	Temperatura máxima	14.3
125239	7	Sololá	701	Sololá	4	Finca Santa Victoria	8	Agosto	2023-08-18T00:00:00	2024-11-08T00:00:00	3	Temperatura mínima	14
125240	7	Sololá	701	Sololá	4	Finca Santa Victoria	8	Agosto	2023-08-18T00:00:00	2024-11-08T00:00:00	5	Humedad	85
125241	7	Sololá	701	Sololá	4	Finca Santa Victoria	8	Agosto	2023-08-18T00:00:00	2024-11-08T00:00:00	6	Velocidad del viento	1.6
125242	7	Sololá	701	Sololá	4	Finca Santa Victoria	8	Agosto	2023-08-18T00:00:00	2024-11-08T00:00:00	7	Dirección del viento	1.61
125243	7	Sololá	701	Sololá	4	Finca Santa Victoria	8	Agosto	2023-08-18T00:00:00	2024-11-08T00:00:00	1	Precipitación	0
125244	7	Sololá	701	Sololá	4	Finca Santa Victoria	8	Agosto	2023-08-18T00:00:00	2024-11-08T00:00:00	8	Radiación solar	0
125245	7	Sololá	701	Sololá	4	Finca Santa Victoria	8	Agosto	2023-08-18T00:00:00	2024-11-08T01:00:00	2	Temperatura media	14
125246	7	Sololá	701	Sololá	4	Finca Santa Victoria	8	Agosto	2023-08-18T00:00:00	2024-11-08T01:00:00	4	Temperatura máxima	14.2
125247	7	Sololá	701	Sololá	4	Finca Santa Victoria	8	Agosto	2023-08-18T00:00:00	2024-11-08T01:00:00	3	Temperatura mínima	13.9
125248	7	Sololá	701	Sololá	4	Finca Santa Victoria	8	Agosto	2023-08-18T00:00:00	2024-11-08T01:00:00	5	Humedad	87
125249	7	Sololá	701	Sololá	4	Finca Santa Victoria	8	Agosto	2023-08-18T00:00:00	2024-11-08T01:00:00	6	Velocidad del viento	1.6
125250	7	Sololá	701	Sololá	4	Finca Santa Victoria	8	Agosto	2023-08-18T00:00:00	2024-11-08T01:00:00	7	Dirección del viento	1.61
125251	7	Sololá	701	Sololá	4	Finca Santa Victoria	8	Agosto	2023-08-18T00:00:00	2024-11-08T01:00:00	1	Precipitación	0
125252	7	Sololá	701	Sololá	4	Finca Santa Victoria	8	Agosto	2023-08-18T00:00:00	2024-11-08T01:00:00	8	Radiación solar	0
125253	7	Sololá	701	Sololá	4	Finca Santa Victoria	8	Agosto	2023-08-18T00:00:00	2024-11-08T02:00:00	2	Temperatura media	14.2
125254	7	Sololá	701	Sololá	4	Finca Santa Victoria	8	Agosto	2023-08-18T00:00:00	2024-11-08T02:00:00	4	Temperatura máxima	14.5
125255	7	Sololá	701	Sololá	4	Finca Santa Victoria	8	Agosto	2023-08-18T00:00:00	2024-11-08T02:00:00	3	Temperatura mínima	13.9
125256	7	Sololá	701	Sololá	4	Finca Santa Victoria	8	Agosto	2023-08-18T00:00:00	2024-11-08T02:00:00	5	Humedad	88
125257	7	Sololá	701	Sololá	4	Finca Santa Victoria	8	Agosto	2023-08-18T00:00:00	2024-11-08T02:00:00	6	Velocidad del viento	1.6
125258	7	Sololá	701	Sololá	4	Finca Santa Victoria	8	Agosto	2023-08-18T00:00:00	2024-11-08T02:00:00	7	Dirección del viento	1.61
125259	7	Sololá	701	Sololá	4	Finca Santa Victoria	8	Agosto	2023-08-18T00:00:00	2024-11-08T02:00:00	1	Precipitación	0
125260	7	Sololá	701	Sololá	4	Finca Santa Victoria	8	Agosto	2023-08-18T00:00:00	2024-11-08T02:00:00	8	Radiación solar	0
125261	7	Sololá	701	Sololá	4	Finca Santa Victoria	8	Agosto	2023-08-18T00:00:00	2024-11-08T03:00:00	2	Temperatura media	14.6
125262	7	Sololá	701	Sololá	4	Finca Santa Victoria	8	Agosto	2023-08-18T00:00:00	2024-11-08T03:00:00	4	Temperatura máxima	14.6
125263	7	Sololá	701	Sololá	4	Finca Santa Victoria	8	Agosto	2023-08-18T00:00:00	2024-11-08T03:00:00	3	Temperatura mínima	14
125264	7	Sololá	701	Sololá	4	Finca Santa Victoria	8	Agosto	2023-08-18T00:00:00	2024-11-08T03:00:00	5	Humedad	86
125265	7	Sololá	701	Sololá	4	Finca Santa Victoria	8	Agosto	2023-08-18T00:00:00	2024-11-08T03:00:00	6	Velocidad del viento	1.6
125266	7	Sololá	701	Sololá	4	Finca Santa Victoria	8	Agosto	2023-08-18T00:00:00	2024-11-08T03:00:00	7	Dirección del viento	1.61
125267	7	Sololá	701	Sololá	4	Finca Santa Victoria	8	Agosto	2023-08-18T00:00:00	2024-11-08T03:00:00	1	Precipitación	0
125268	7	Sololá	701	Sololá	4	Finca Santa Victoria	8	Agosto	2023-08-18T00:00:00	2024-11-08T03:00:00	8	Radiación solar	0
125269	7	Sololá	701	Sololá	4	Finca Santa Victoria	8	Agosto	2023-08-18T00:00:00	2024-11-08T04:00:00	2	Temperatura media	14.2
125270	7	Sololá	701	Sololá	4	Finca Santa Victoria	8	Agosto	2023-08-18T00:00:00	2024-11-08T04:00:00	4	Temperatura máxima	14.7
125271	7	Sololá	701	Sololá	4	Finca Santa Victoria	8	Agosto	2023-08-18T00:00:00	2024-11-08T04:00:00	3	Temperatura mínima	14.2
125272	7	Sololá	701	Sololá	4	Finca Santa Victoria	8	Agosto	2023-08-18T00:00:00	2024-11-08T04:00:00	5	Humedad	90
125273	7	Sololá	701	Sololá	4	Finca Santa Victoria	8	Agosto	2023-08-18T00:00:00	2024-11-08T04:00:00	6	Velocidad del viento	0
125274	7	Sololá	701	Sololá	4	Finca Santa Victoria	8	Agosto	2023-08-18T00:00:00	2024-11-08T04:00:00	7	Dirección del viento	0
125275	7	Sololá	701	Sololá	4	Finca Santa Victoria	8	Agosto	2023-08-18T00:00:00	2024-11-08T04:00:00	1	Precipitación	0
125276	7	Sololá	701	Sololá	4	Finca Santa Victoria	8	Agosto	2023-08-18T00:00:00	2024-11-08T04:00:00	8	Radiación solar	0
125277	7	Sololá	701	Sololá	4	Finca Santa Victoria	8	Agosto	2023-08-18T00:00:00	2024-11-08T05:00:00	2	Temperatura media	14.3
125278	7	Sololá	701	Sololá	4	Finca Santa Victoria	8	Agosto	2023-08-18T00:00:00	2024-11-08T05:00:00	4	Temperatura máxima	14.4
125279	7	Sololá	701	Sololá	4	Finca Santa Victoria	8	Agosto	2023-08-18T00:00:00	2024-11-08T05:00:00	3	Temperatura mínima	14.2
125280	7	Sololá	701	Sololá	4	Finca Santa Victoria	8	Agosto	2023-08-18T00:00:00	2024-11-08T05:00:00	5	Humedad	89
125281	7	Sololá	701	Sololá	4	Finca Santa Victoria	8	Agosto	2023-08-18T00:00:00	2024-11-08T05:00:00	6	Velocidad del viento	1.6
125282	7	Sololá	701	Sololá	4	Finca Santa Victoria	8	Agosto	2023-08-18T00:00:00	2024-11-08T05:00:00	7	Dirección del viento	1.61
125283	7	Sololá	701	Sololá	4	Finca Santa Victoria	8	Agosto	2023-08-18T00:00:00	2024-11-08T05:00:00	1	Precipitación	0
125284	7	Sololá	701	Sololá	4	Finca Santa Victoria	8	Agosto	2023-08-18T00:00:00	2024-11-08T05:00:00	8	Radiación solar	0
125285	7	Sololá	701	Sololá	4	Finca Santa Victoria	8	Agosto	2023-08-18T00:00:00	2024-11-08T06:00:00	2	Temperatura media	13.3
125286	7	Sololá	701	Sololá	4	Finca Santa Victoria	8	Agosto	2023-08-18T00:00:00	2024-11-08T06:00:00	4	Temperatura máxima	14.3
125287	7	Sololá	701	Sololá	4	Finca Santa Victoria	8	Agosto	2023-08-18T00:00:00	2024-11-08T06:00:00	3	Temperatura mínima	13.3
125288	7	Sololá	701	Sololá	4	Finca Santa Victoria	8	Agosto	2023-08-18T00:00:00	2024-11-08T06:00:00	5	Humedad	90
125289	7	Sololá	701	Sololá	4	Finca Santa Victoria	8	Agosto	2023-08-18T00:00:00	2024-11-08T06:00:00	6	Velocidad del viento	0
125290	7	Sololá	701	Sololá	4	Finca Santa Victoria	8	Agosto	2023-08-18T00:00:00	2024-11-08T06:00:00	7	Dirección del viento	0
125291	7	Sololá	701	Sololá	4	Finca Santa Victoria	8	Agosto	2023-08-18T00:00:00	2024-11-08T06:00:00	1	Precipitación	0
125292	7	Sololá	701	Sololá	4	Finca Santa Victoria	8	Agosto	2023-08-18T00:00:00	2024-11-08T06:00:00	8	Radiación solar	0
125293	7	Sololá	701	Sololá	4	Finca Santa Victoria	8	Agosto	2023-08-18T00:00:00	2024-11-08T07:00:00	2	Temperatura media	14
125294	7	Sololá	701	Sololá	4	Finca Santa Victoria	8	Agosto	2023-08-18T00:00:00	2024-11-08T07:00:00	4	Temperatura máxima	14
125295	7	Sololá	701	Sololá	4	Finca Santa Victoria	8	Agosto	2023-08-18T00:00:00	2024-11-08T07:00:00	3	Temperatura mínima	13.1
125296	7	Sololá	701	Sololá	4	Finca Santa Victoria	8	Agosto	2023-08-18T00:00:00	2024-11-08T07:00:00	5	Humedad	88
125297	7	Sololá	701	Sololá	4	Finca Santa Victoria	8	Agosto	2023-08-18T00:00:00	2024-11-08T07:00:00	6	Velocidad del viento	0
125298	7	Sololá	701	Sololá	4	Finca Santa Victoria	8	Agosto	2023-08-18T00:00:00	2024-11-08T07:00:00	7	Dirección del viento	0
125299	7	Sololá	701	Sololá	4	Finca Santa Victoria	8	Agosto	2023-08-18T00:00:00	2024-11-08T07:00:00	1	Precipitación	0
125300	7	Sololá	701	Sololá	4	Finca Santa Victoria	8	Agosto	2023-08-18T00:00:00	2024-11-08T07:00:00	8	Radiación solar	14
125301	7	Sololá	701	Sololá	4	Finca Santa Victoria	8	Agosto	2023-08-18T00:00:00	2024-11-08T08:00:00	2	Temperatura media	17.1
125302	7	Sololá	701	Sololá	4	Finca Santa Victoria	8	Agosto	2023-08-18T00:00:00	2024-11-08T08:00:00	4	Temperatura máxima	17.1
125303	7	Sololá	701	Sololá	4	Finca Santa Victoria	8	Agosto	2023-08-18T00:00:00	2024-11-08T08:00:00	3	Temperatura mínima	14
125304	7	Sololá	701	Sololá	4	Finca Santa Victoria	8	Agosto	2023-08-18T00:00:00	2024-11-08T08:00:00	5	Humedad	77
125305	7	Sololá	701	Sololá	4	Finca Santa Victoria	8	Agosto	2023-08-18T00:00:00	2024-11-08T08:00:00	6	Velocidad del viento	3.2
125306	7	Sololá	701	Sololá	4	Finca Santa Victoria	8	Agosto	2023-08-18T00:00:00	2024-11-08T08:00:00	7	Dirección del viento	3.22
125307	7	Sololá	701	Sololá	4	Finca Santa Victoria	8	Agosto	2023-08-18T00:00:00	2024-11-08T08:00:00	1	Precipitación	0
125308	7	Sololá	701	Sololá	4	Finca Santa Victoria	8	Agosto	2023-08-18T00:00:00	2024-11-08T08:00:00	8	Radiación solar	213
125309	7	Sololá	701	Sololá	4	Finca Santa Victoria	8	Agosto	2023-08-18T00:00:00	2024-11-08T09:00:00	2	Temperatura media	17.8
125310	7	Sololá	701	Sololá	4	Finca Santa Victoria	8	Agosto	2023-08-18T00:00:00	2024-11-08T09:00:00	4	Temperatura máxima	17.9
125311	7	Sololá	701	Sololá	4	Finca Santa Victoria	8	Agosto	2023-08-18T00:00:00	2024-11-08T09:00:00	3	Temperatura mínima	17.1
125312	7	Sololá	701	Sololá	4	Finca Santa Victoria	8	Agosto	2023-08-18T00:00:00	2024-11-08T09:00:00	5	Humedad	76
125313	7	Sololá	701	Sololá	4	Finca Santa Victoria	8	Agosto	2023-08-18T00:00:00	2024-11-08T09:00:00	6	Velocidad del viento	3.2
125314	7	Sololá	701	Sololá	4	Finca Santa Victoria	8	Agosto	2023-08-18T00:00:00	2024-11-08T09:00:00	7	Dirección del viento	3.22
125315	7	Sololá	701	Sololá	4	Finca Santa Victoria	8	Agosto	2023-08-18T00:00:00	2024-11-08T09:00:00	1	Precipitación	0
125316	7	Sololá	701	Sololá	4	Finca Santa Victoria	8	Agosto	2023-08-18T00:00:00	2024-11-08T09:00:00	8	Radiación solar	353
125317	7	Sololá	701	Sololá	4	Finca Santa Victoria	8	Agosto	2023-08-18T00:00:00	2024-11-08T10:00:00	2	Temperatura media	19.2
125318	7	Sololá	701	Sololá	4	Finca Santa Victoria	8	Agosto	2023-08-18T00:00:00	2024-11-08T10:00:00	4	Temperatura máxima	19.3
125319	7	Sololá	701	Sololá	4	Finca Santa Victoria	8	Agosto	2023-08-18T00:00:00	2024-11-08T10:00:00	3	Temperatura mínima	17.8
125320	7	Sololá	701	Sololá	4	Finca Santa Victoria	8	Agosto	2023-08-18T00:00:00	2024-11-08T10:00:00	5	Humedad	70
125321	7	Sololá	701	Sololá	4	Finca Santa Victoria	8	Agosto	2023-08-18T00:00:00	2024-11-08T10:00:00	6	Velocidad del viento	3.2
125322	7	Sololá	701	Sololá	4	Finca Santa Victoria	8	Agosto	2023-08-18T00:00:00	2024-11-08T10:00:00	7	Dirección del viento	3.22
125323	7	Sololá	701	Sololá	4	Finca Santa Victoria	8	Agosto	2023-08-18T00:00:00	2024-11-08T10:00:00	1	Precipitación	0
125324	7	Sololá	701	Sololá	4	Finca Santa Victoria	8	Agosto	2023-08-18T00:00:00	2024-11-08T10:00:00	8	Radiación solar	145
125325	7	Sololá	701	Sololá	4	Finca Santa Victoria	8	Agosto	2023-08-18T00:00:00	2024-11-08T11:00:00	2	Temperatura media	20.9
125326	7	Sololá	701	Sololá	4	Finca Santa Victoria	8	Agosto	2023-08-18T00:00:00	2024-11-08T11:00:00	4	Temperatura máxima	21.2
125327	7	Sololá	701	Sololá	4	Finca Santa Victoria	8	Agosto	2023-08-18T00:00:00	2024-11-08T11:00:00	3	Temperatura mínima	19.2
125328	7	Sololá	701	Sololá	4	Finca Santa Victoria	8	Agosto	2023-08-18T00:00:00	2024-11-08T11:00:00	5	Humedad	66
125329	7	Sololá	701	Sololá	4	Finca Santa Victoria	8	Agosto	2023-08-18T00:00:00	2024-11-08T11:00:00	6	Velocidad del viento	4.8
125330	7	Sololá	701	Sololá	4	Finca Santa Victoria	8	Agosto	2023-08-18T00:00:00	2024-11-08T11:00:00	7	Dirección del viento	4.83
125331	7	Sololá	701	Sololá	4	Finca Santa Victoria	8	Agosto	2023-08-18T00:00:00	2024-11-08T11:00:00	1	Precipitación	0
125332	7	Sololá	701	Sololá	4	Finca Santa Victoria	8	Agosto	2023-08-18T00:00:00	2024-11-08T11:00:00	8	Radiación solar	593
125333	7	Sololá	701	Sololá	4	Finca Santa Victoria	8	Agosto	2023-08-18T00:00:00	2024-11-08T12:00:00	2	Temperatura media	20.5
125334	7	Sololá	701	Sololá	4	Finca Santa Victoria	8	Agosto	2023-08-18T00:00:00	2024-11-08T12:00:00	4	Temperatura máxima	21.2
125335	7	Sololá	701	Sololá	4	Finca Santa Victoria	8	Agosto	2023-08-18T00:00:00	2024-11-08T12:00:00	3	Temperatura mínima	20.1
125336	7	Sololá	701	Sololá	4	Finca Santa Victoria	8	Agosto	2023-08-18T00:00:00	2024-11-08T12:00:00	5	Humedad	64
125337	7	Sololá	701	Sololá	4	Finca Santa Victoria	8	Agosto	2023-08-18T00:00:00	2024-11-08T12:00:00	6	Velocidad del viento	4.8
125338	7	Sololá	701	Sololá	4	Finca Santa Victoria	8	Agosto	2023-08-18T00:00:00	2024-11-08T12:00:00	7	Dirección del viento	4.83
125339	7	Sololá	701	Sololá	4	Finca Santa Victoria	8	Agosto	2023-08-18T00:00:00	2024-11-08T12:00:00	1	Precipitación	0
125340	7	Sololá	701	Sololá	4	Finca Santa Victoria	8	Agosto	2023-08-18T00:00:00	2024-11-08T12:00:00	8	Radiación solar	472
125341	7	Sololá	701	Sololá	4	Finca Santa Victoria	8	Agosto	2023-08-18T00:00:00	2024-11-08T13:00:00	2	Temperatura media	21.6
125342	7	Sololá	701	Sololá	4	Finca Santa Victoria	8	Agosto	2023-08-18T00:00:00	2024-11-08T13:00:00	4	Temperatura máxima	21.6
125343	7	Sololá	701	Sololá	4	Finca Santa Victoria	8	Agosto	2023-08-18T00:00:00	2024-11-08T13:00:00	3	Temperatura mínima	19.2
125344	7	Sololá	701	Sololá	4	Finca Santa Victoria	8	Agosto	2023-08-18T00:00:00	2024-11-08T13:00:00	5	Humedad	63
125345	7	Sololá	701	Sololá	4	Finca Santa Victoria	8	Agosto	2023-08-18T00:00:00	2024-11-08T13:00:00	6	Velocidad del viento	3.2
125346	7	Sololá	701	Sololá	4	Finca Santa Victoria	8	Agosto	2023-08-18T00:00:00	2024-11-08T13:00:00	7	Dirección del viento	3.22
125347	7	Sololá	701	Sololá	4	Finca Santa Victoria	8	Agosto	2023-08-18T00:00:00	2024-11-08T13:00:00	1	Precipitación	0
125348	7	Sololá	701	Sololá	4	Finca Santa Victoria	8	Agosto	2023-08-18T00:00:00	2024-11-08T13:00:00	8	Radiación solar	226
125349	7	Sololá	701	Sololá	4	Finca Santa Victoria	8	Agosto	2023-08-18T00:00:00	2024-11-08T14:00:00	2	Temperatura media	20.8
125350	7	Sololá	701	Sololá	4	Finca Santa Victoria	8	Agosto	2023-08-18T00:00:00	2024-11-08T14:00:00	4	Temperatura máxima	21.8
125351	7	Sololá	701	Sololá	4	Finca Santa Victoria	8	Agosto	2023-08-18T00:00:00	2024-11-08T14:00:00	3	Temperatura mínima	20.6
125352	7	Sololá	701	Sololá	4	Finca Santa Victoria	8	Agosto	2023-08-18T00:00:00	2024-11-08T14:00:00	5	Humedad	69
125353	7	Sololá	701	Sololá	4	Finca Santa Victoria	8	Agosto	2023-08-18T00:00:00	2024-11-08T14:00:00	6	Velocidad del viento	3.2
125354	7	Sololá	701	Sololá	4	Finca Santa Victoria	8	Agosto	2023-08-18T00:00:00	2024-11-08T14:00:00	7	Dirección del viento	3.22
125355	7	Sololá	701	Sololá	4	Finca Santa Victoria	8	Agosto	2023-08-18T00:00:00	2024-11-08T14:00:00	1	Precipitación	0
125356	7	Sololá	701	Sololá	4	Finca Santa Victoria	8	Agosto	2023-08-18T00:00:00	2024-11-08T14:00:00	8	Radiación solar	203
125357	7	Sololá	701	Sololá	4	Finca Santa Victoria	8	Agosto	2023-08-18T00:00:00	2024-11-08T15:00:00	2	Temperatura media	20.7
125358	7	Sololá	701	Sololá	4	Finca Santa Victoria	8	Agosto	2023-08-18T00:00:00	2024-11-08T15:00:00	4	Temperatura máxima	22
125359	7	Sololá	701	Sololá	4	Finca Santa Victoria	8	Agosto	2023-08-18T00:00:00	2024-11-08T15:00:00	3	Temperatura mínima	20.5
125360	7	Sololá	701	Sololá	4	Finca Santa Victoria	8	Agosto	2023-08-18T00:00:00	2024-11-08T15:00:00	5	Humedad	57
125361	7	Sololá	701	Sololá	4	Finca Santa Victoria	8	Agosto	2023-08-18T00:00:00	2024-11-08T15:00:00	6	Velocidad del viento	3.2
125362	7	Sololá	701	Sololá	4	Finca Santa Victoria	8	Agosto	2023-08-18T00:00:00	2024-11-08T15:00:00	7	Dirección del viento	3.22
125363	7	Sololá	701	Sololá	4	Finca Santa Victoria	8	Agosto	2023-08-18T00:00:00	2024-11-08T15:00:00	1	Precipitación	0
125364	7	Sololá	701	Sololá	4	Finca Santa Victoria	8	Agosto	2023-08-18T00:00:00	2024-11-08T15:00:00	8	Radiación solar	181
125365	7	Sololá	701	Sololá	4	Finca Santa Victoria	8	Agosto	2023-08-18T00:00:00	2024-11-08T16:00:00	2	Temperatura media	20.4
125366	7	Sololá	701	Sololá	4	Finca Santa Victoria	8	Agosto	2023-08-18T00:00:00	2024-11-08T16:00:00	4	Temperatura máxima	21.7
125367	7	Sololá	701	Sololá	4	Finca Santa Victoria	8	Agosto	2023-08-18T00:00:00	2024-11-08T16:00:00	3	Temperatura mínima	20.4
125368	7	Sololá	701	Sololá	4	Finca Santa Victoria	8	Agosto	2023-08-18T00:00:00	2024-11-08T16:00:00	5	Humedad	49
125369	7	Sololá	701	Sololá	4	Finca Santa Victoria	8	Agosto	2023-08-18T00:00:00	2024-11-08T16:00:00	6	Velocidad del viento	4.8
125370	7	Sololá	701	Sololá	4	Finca Santa Victoria	8	Agosto	2023-08-18T00:00:00	2024-11-08T16:00:00	7	Dirección del viento	4.83
125371	7	Sololá	701	Sololá	4	Finca Santa Victoria	8	Agosto	2023-08-18T00:00:00	2024-11-08T16:00:00	1	Precipitación	0
125372	7	Sololá	701	Sololá	4	Finca Santa Victoria	8	Agosto	2023-08-18T00:00:00	2024-11-08T16:00:00	8	Radiación solar	145
125373	7	Sololá	701	Sololá	4	Finca Santa Victoria	8	Agosto	2023-08-18T00:00:00	2024-11-08T17:00:00	2	Temperatura media	19.9
125374	7	Sololá	701	Sololá	4	Finca Santa Victoria	8	Agosto	2023-08-18T00:00:00	2024-11-08T17:00:00	4	Temperatura máxima	20.7
125375	7	Sololá	701	Sololá	4	Finca Santa Victoria	8	Agosto	2023-08-18T00:00:00	2024-11-08T17:00:00	3	Temperatura mínima	19.8
125376	7	Sololá	701	Sololá	4	Finca Santa Victoria	8	Agosto	2023-08-18T00:00:00	2024-11-08T17:00:00	5	Humedad	58
125377	7	Sololá	701	Sololá	4	Finca Santa Victoria	8	Agosto	2023-08-18T00:00:00	2024-11-08T17:00:00	6	Velocidad del viento	3.2
125378	7	Sololá	701	Sololá	4	Finca Santa Victoria	8	Agosto	2023-08-18T00:00:00	2024-11-08T17:00:00	7	Dirección del viento	3.22
125379	7	Sololá	701	Sololá	4	Finca Santa Victoria	8	Agosto	2023-08-18T00:00:00	2024-11-08T17:00:00	1	Precipitación	0
125380	7	Sololá	701	Sololá	4	Finca Santa Victoria	8	Agosto	2023-08-18T00:00:00	2024-11-08T17:00:00	8	Radiación solar	122
125381	7	Sololá	701	Sololá	4	Finca Santa Victoria	8	Agosto	2023-08-18T00:00:00	2024-11-08T18:00:00	2	Temperatura media	17.9
125382	7	Sololá	701	Sololá	4	Finca Santa Victoria	8	Agosto	2023-08-18T00:00:00	2024-11-08T18:00:00	4	Temperatura máxima	20.1
125383	7	Sololá	701	Sololá	4	Finca Santa Victoria	8	Agosto	2023-08-18T00:00:00	2024-11-08T18:00:00	3	Temperatura mínima	17.9
125384	7	Sololá	701	Sololá	4	Finca Santa Victoria	8	Agosto	2023-08-18T00:00:00	2024-11-08T18:00:00	5	Humedad	73
125385	7	Sololá	701	Sololá	4	Finca Santa Victoria	8	Agosto	2023-08-18T00:00:00	2024-11-08T18:00:00	6	Velocidad del viento	1.6
125386	7	Sololá	701	Sololá	4	Finca Santa Victoria	8	Agosto	2023-08-18T00:00:00	2024-11-08T18:00:00	7	Dirección del viento	1.61
125387	7	Sololá	701	Sololá	4	Finca Santa Victoria	8	Agosto	2023-08-18T00:00:00	2024-11-08T18:00:00	1	Precipitación	0
125388	7	Sololá	701	Sololá	4	Finca Santa Victoria	8	Agosto	2023-08-18T00:00:00	2024-11-08T18:00:00	8	Radiación solar	59
125389	7	Sololá	701	Sololá	4	Finca Santa Victoria	8	Agosto	2023-08-18T00:00:00	2024-11-08T19:00:00	2	Temperatura media	16.1
125390	7	Sololá	701	Sololá	4	Finca Santa Victoria	8	Agosto	2023-08-18T00:00:00	2024-11-08T19:00:00	4	Temperatura máxima	17.9
125391	7	Sololá	701	Sololá	4	Finca Santa Victoria	8	Agosto	2023-08-18T00:00:00	2024-11-08T19:00:00	3	Temperatura mínima	16.1
125392	7	Sololá	701	Sololá	4	Finca Santa Victoria	8	Agosto	2023-08-18T00:00:00	2024-11-08T19:00:00	5	Humedad	80
125393	7	Sololá	701	Sololá	4	Finca Santa Victoria	8	Agosto	2023-08-18T00:00:00	2024-11-08T19:00:00	6	Velocidad del viento	1.6
125394	7	Sololá	701	Sololá	4	Finca Santa Victoria	8	Agosto	2023-08-18T00:00:00	2024-11-08T19:00:00	7	Dirección del viento	1.61
125395	7	Sololá	701	Sololá	4	Finca Santa Victoria	8	Agosto	2023-08-18T00:00:00	2024-11-08T19:00:00	1	Precipitación	0
125396	7	Sololá	701	Sololá	4	Finca Santa Victoria	8	Agosto	2023-08-18T00:00:00	2024-11-08T19:00:00	8	Radiación solar	0
125397	7	Sololá	701	Sololá	4	Finca Santa Victoria	8	Agosto	2023-08-18T00:00:00	2024-11-08T20:00:00	2	Temperatura media	15.6
125398	7	Sololá	701	Sololá	4	Finca Santa Victoria	8	Agosto	2023-08-18T00:00:00	2024-11-08T20:00:00	4	Temperatura máxima	16.1
125399	7	Sololá	701	Sololá	4	Finca Santa Victoria	8	Agosto	2023-08-18T00:00:00	2024-11-08T20:00:00	3	Temperatura mínima	15.6
125400	7	Sololá	701	Sololá	4	Finca Santa Victoria	8	Agosto	2023-08-18T00:00:00	2024-11-08T20:00:00	5	Humedad	82
125401	7	Sololá	701	Sololá	4	Finca Santa Victoria	8	Agosto	2023-08-18T00:00:00	2024-11-08T20:00:00	6	Velocidad del viento	1.6
125402	7	Sololá	701	Sololá	4	Finca Santa Victoria	8	Agosto	2023-08-18T00:00:00	2024-11-08T20:00:00	7	Dirección del viento	1.61
125403	7	Sololá	701	Sololá	4	Finca Santa Victoria	8	Agosto	2023-08-18T00:00:00	2024-11-08T20:00:00	1	Precipitación	0
125404	7	Sololá	701	Sololá	4	Finca Santa Victoria	8	Agosto	2023-08-18T00:00:00	2024-11-08T20:00:00	8	Radiación solar	0
125405	7	Sololá	701	Sololá	4	Finca Santa Victoria	8	Agosto	2023-08-18T00:00:00	2024-11-08T21:00:00	2	Temperatura media	14.9
125406	7	Sololá	701	Sololá	4	Finca Santa Victoria	8	Agosto	2023-08-18T00:00:00	2024-11-08T21:00:00	4	Temperatura máxima	15.6
125407	7	Sololá	701	Sololá	4	Finca Santa Victoria	8	Agosto	2023-08-18T00:00:00	2024-11-08T21:00:00	3	Temperatura mínima	14.9
125408	7	Sololá	701	Sololá	4	Finca Santa Victoria	8	Agosto	2023-08-18T00:00:00	2024-11-08T21:00:00	5	Humedad	82
125409	7	Sololá	701	Sololá	4	Finca Santa Victoria	8	Agosto	2023-08-18T00:00:00	2024-11-08T21:00:00	6	Velocidad del viento	1.6
125410	7	Sololá	701	Sololá	4	Finca Santa Victoria	8	Agosto	2023-08-18T00:00:00	2024-11-08T21:00:00	7	Dirección del viento	1.61
125411	7	Sololá	701	Sololá	4	Finca Santa Victoria	8	Agosto	2023-08-18T00:00:00	2024-11-08T21:00:00	1	Precipitación	0
125412	7	Sololá	701	Sololá	4	Finca Santa Victoria	8	Agosto	2023-08-18T00:00:00	2024-11-08T21:00:00	8	Radiación solar	0
125413	7	Sololá	701	Sololá	4	Finca Santa Victoria	8	Agosto	2023-08-18T00:00:00	2024-11-08T22:00:00	2	Temperatura media	14.3
125414	7	Sololá	701	Sololá	4	Finca Santa Victoria	8	Agosto	2023-08-18T00:00:00	2024-11-08T22:00:00	4	Temperatura máxima	15
125415	7	Sololá	701	Sololá	4	Finca Santa Victoria	8	Agosto	2023-08-18T00:00:00	2024-11-08T22:00:00	3	Temperatura mínima	14.2
125416	7	Sololá	701	Sololá	4	Finca Santa Victoria	8	Agosto	2023-08-18T00:00:00	2024-11-08T22:00:00	5	Humedad	82
125417	7	Sololá	701	Sololá	4	Finca Santa Victoria	8	Agosto	2023-08-18T00:00:00	2024-11-08T22:00:00	6	Velocidad del viento	1.6
125418	7	Sololá	701	Sololá	4	Finca Santa Victoria	8	Agosto	2023-08-18T00:00:00	2024-11-08T22:00:00	7	Dirección del viento	1.61
125419	7	Sololá	701	Sololá	4	Finca Santa Victoria	8	Agosto	2023-08-18T00:00:00	2024-11-08T22:00:00	1	Precipitación	0
125420	7	Sololá	701	Sololá	4	Finca Santa Victoria	8	Agosto	2023-08-18T00:00:00	2024-11-08T22:00:00	8	Radiación solar	0
125421	7	Sololá	701	Sololá	4	Finca Santa Victoria	8	Agosto	2023-08-18T00:00:00	2024-11-08T23:00:00	2	Temperatura media	14.1
125422	7	Sololá	701	Sololá	4	Finca Santa Victoria	8	Agosto	2023-08-18T00:00:00	2024-11-08T23:00:00	4	Temperatura máxima	14.3
125423	7	Sololá	701	Sololá	4	Finca Santa Victoria	8	Agosto	2023-08-18T00:00:00	2024-11-08T23:00:00	3	Temperatura mínima	14.1
125424	7	Sololá	701	Sololá	4	Finca Santa Victoria	8	Agosto	2023-08-18T00:00:00	2024-11-08T23:00:00	5	Humedad	83
125425	7	Sololá	701	Sololá	4	Finca Santa Victoria	8	Agosto	2023-08-18T00:00:00	2024-11-08T23:00:00	6	Velocidad del viento	1.6
125426	7	Sololá	701	Sololá	4	Finca Santa Victoria	8	Agosto	2023-08-18T00:00:00	2024-11-08T23:00:00	7	Dirección del viento	1.61
125427	7	Sololá	701	Sololá	4	Finca Santa Victoria	8	Agosto	2023-08-18T00:00:00	2024-11-08T23:00:00	1	Precipitación	0
125428	7	Sololá	701	Sololá	4	Finca Santa Victoria	8	Agosto	2023-08-18T00:00:00	2024-11-08T23:00:00	8	Radiación solar	0
125429	7	Sololá	701	Sololá	4	Finca Santa Victoria	8	Agosto	2023-08-19T00:00:00	2024-11-08T00:00:00	2	Temperatura media	14.2
125430	7	Sololá	701	Sololá	4	Finca Santa Victoria	8	Agosto	2023-08-19T00:00:00	2024-11-08T00:00:00	4	Temperatura máxima	14.2
125431	7	Sololá	701	Sololá	4	Finca Santa Victoria	8	Agosto	2023-08-19T00:00:00	2024-11-08T00:00:00	3	Temperatura mínima	14.1
125432	7	Sololá	701	Sololá	4	Finca Santa Victoria	8	Agosto	2023-08-19T00:00:00	2024-11-08T00:00:00	5	Humedad	82
125433	7	Sololá	701	Sololá	4	Finca Santa Victoria	8	Agosto	2023-08-19T00:00:00	2024-11-08T00:00:00	6	Velocidad del viento	3.2
125434	7	Sololá	701	Sololá	4	Finca Santa Victoria	8	Agosto	2023-08-19T00:00:00	2024-11-08T00:00:00	7	Dirección del viento	3.22
125435	7	Sololá	701	Sololá	4	Finca Santa Victoria	8	Agosto	2023-08-19T00:00:00	2024-11-08T00:00:00	1	Precipitación	0
125436	7	Sololá	701	Sololá	4	Finca Santa Victoria	8	Agosto	2023-08-19T00:00:00	2024-11-08T00:00:00	8	Radiación solar	0
125437	7	Sololá	701	Sololá	4	Finca Santa Victoria	8	Agosto	2023-08-19T00:00:00	2024-11-08T01:00:00	2	Temperatura media	13.6
125438	7	Sololá	701	Sololá	4	Finca Santa Victoria	8	Agosto	2023-08-19T00:00:00	2024-11-08T01:00:00	4	Temperatura máxima	14.3
125439	7	Sololá	701	Sololá	4	Finca Santa Victoria	8	Agosto	2023-08-19T00:00:00	2024-11-08T01:00:00	3	Temperatura mínima	13.6
125440	7	Sololá	701	Sololá	4	Finca Santa Victoria	8	Agosto	2023-08-19T00:00:00	2024-11-08T01:00:00	5	Humedad	81
125441	7	Sololá	701	Sololá	4	Finca Santa Victoria	8	Agosto	2023-08-19T00:00:00	2024-11-08T01:00:00	6	Velocidad del viento	3.2
125442	7	Sololá	701	Sololá	4	Finca Santa Victoria	8	Agosto	2023-08-19T00:00:00	2024-11-08T01:00:00	7	Dirección del viento	3.22
125443	7	Sololá	701	Sololá	4	Finca Santa Victoria	8	Agosto	2023-08-19T00:00:00	2024-11-08T01:00:00	1	Precipitación	0
125444	7	Sololá	701	Sololá	4	Finca Santa Victoria	8	Agosto	2023-08-19T00:00:00	2024-11-08T01:00:00	8	Radiación solar	0
125445	7	Sololá	701	Sololá	4	Finca Santa Victoria	8	Agosto	2023-08-19T00:00:00	2024-11-08T02:00:00	2	Temperatura media	13
125446	7	Sololá	701	Sololá	4	Finca Santa Victoria	8	Agosto	2023-08-19T00:00:00	2024-11-08T02:00:00	4	Temperatura máxima	13.6
125447	7	Sololá	701	Sololá	4	Finca Santa Victoria	8	Agosto	2023-08-19T00:00:00	2024-11-08T02:00:00	3	Temperatura mínima	13
125448	7	Sololá	701	Sololá	4	Finca Santa Victoria	8	Agosto	2023-08-19T00:00:00	2024-11-08T02:00:00	5	Humedad	83
125449	7	Sololá	701	Sololá	4	Finca Santa Victoria	8	Agosto	2023-08-19T00:00:00	2024-11-08T02:00:00	6	Velocidad del viento	3.2
125450	7	Sololá	701	Sololá	4	Finca Santa Victoria	8	Agosto	2023-08-19T00:00:00	2024-11-08T02:00:00	7	Dirección del viento	3.22
125451	7	Sololá	701	Sololá	4	Finca Santa Victoria	8	Agosto	2023-08-19T00:00:00	2024-11-08T02:00:00	1	Precipitación	0
125452	7	Sololá	701	Sololá	4	Finca Santa Victoria	8	Agosto	2023-08-19T00:00:00	2024-11-08T02:00:00	8	Radiación solar	0
125453	7	Sololá	701	Sololá	4	Finca Santa Victoria	8	Agosto	2023-08-19T00:00:00	2024-11-08T03:00:00	2	Temperatura media	12.6
125454	7	Sololá	701	Sololá	4	Finca Santa Victoria	8	Agosto	2023-08-19T00:00:00	2024-11-08T03:00:00	4	Temperatura máxima	13
125455	7	Sololá	701	Sololá	4	Finca Santa Victoria	8	Agosto	2023-08-19T00:00:00	2024-11-08T03:00:00	3	Temperatura mínima	12.6
125456	7	Sololá	701	Sololá	4	Finca Santa Victoria	8	Agosto	2023-08-19T00:00:00	2024-11-08T03:00:00	5	Humedad	83
125457	7	Sololá	701	Sololá	4	Finca Santa Victoria	8	Agosto	2023-08-19T00:00:00	2024-11-08T03:00:00	6	Velocidad del viento	3.2
125458	7	Sololá	701	Sololá	4	Finca Santa Victoria	8	Agosto	2023-08-19T00:00:00	2024-11-08T03:00:00	7	Dirección del viento	3.22
125459	7	Sololá	701	Sololá	4	Finca Santa Victoria	8	Agosto	2023-08-19T00:00:00	2024-11-08T03:00:00	1	Precipitación	0
125460	7	Sololá	701	Sololá	4	Finca Santa Victoria	8	Agosto	2023-08-19T00:00:00	2024-11-08T03:00:00	8	Radiación solar	0
125461	7	Sololá	701	Sololá	4	Finca Santa Victoria	8	Agosto	2023-08-19T00:00:00	2024-11-08T04:00:00	2	Temperatura media	12.2
125462	7	Sololá	701	Sololá	4	Finca Santa Victoria	8	Agosto	2023-08-19T00:00:00	2024-11-08T04:00:00	4	Temperatura máxima	12.6
125463	7	Sololá	701	Sololá	4	Finca Santa Victoria	8	Agosto	2023-08-19T00:00:00	2024-11-08T04:00:00	3	Temperatura mínima	12.2
125464	7	Sololá	701	Sololá	4	Finca Santa Victoria	8	Agosto	2023-08-19T00:00:00	2024-11-08T04:00:00	5	Humedad	83
125465	7	Sololá	701	Sololá	4	Finca Santa Victoria	8	Agosto	2023-08-19T00:00:00	2024-11-08T04:00:00	6	Velocidad del viento	3.2
125466	7	Sololá	701	Sololá	4	Finca Santa Victoria	8	Agosto	2023-08-19T00:00:00	2024-11-08T04:00:00	7	Dirección del viento	3.22
125467	7	Sololá	701	Sololá	4	Finca Santa Victoria	8	Agosto	2023-08-19T00:00:00	2024-11-08T04:00:00	1	Precipitación	0
125468	7	Sololá	701	Sololá	4	Finca Santa Victoria	8	Agosto	2023-08-19T00:00:00	2024-11-08T04:00:00	8	Radiación solar	0
125469	7	Sololá	701	Sololá	4	Finca Santa Victoria	8	Agosto	2023-08-19T00:00:00	2024-11-08T05:00:00	2	Temperatura media	12.1
125470	7	Sololá	701	Sololá	4	Finca Santa Victoria	8	Agosto	2023-08-19T00:00:00	2024-11-08T05:00:00	4	Temperatura máxima	12.2
125471	7	Sololá	701	Sololá	4	Finca Santa Victoria	8	Agosto	2023-08-19T00:00:00	2024-11-08T05:00:00	3	Temperatura mínima	11.9
125472	7	Sololá	701	Sololá	4	Finca Santa Victoria	8	Agosto	2023-08-19T00:00:00	2024-11-08T05:00:00	5	Humedad	82
125473	7	Sololá	701	Sololá	4	Finca Santa Victoria	8	Agosto	2023-08-19T00:00:00	2024-11-08T05:00:00	6	Velocidad del viento	1.6
125474	7	Sololá	701	Sololá	4	Finca Santa Victoria	8	Agosto	2023-08-19T00:00:00	2024-11-08T05:00:00	7	Dirección del viento	1.61
125475	7	Sololá	701	Sololá	4	Finca Santa Victoria	8	Agosto	2023-08-19T00:00:00	2024-11-08T05:00:00	1	Precipitación	0
125476	7	Sololá	701	Sololá	4	Finca Santa Victoria	8	Agosto	2023-08-19T00:00:00	2024-11-08T05:00:00	8	Radiación solar	0
125477	7	Sololá	701	Sololá	4	Finca Santa Victoria	8	Agosto	2023-08-19T00:00:00	2024-11-08T06:00:00	2	Temperatura media	12.2
125478	7	Sololá	701	Sololá	4	Finca Santa Victoria	8	Agosto	2023-08-19T00:00:00	2024-11-08T06:00:00	4	Temperatura máxima	12.3
125479	7	Sololá	701	Sololá	4	Finca Santa Victoria	8	Agosto	2023-08-19T00:00:00	2024-11-08T06:00:00	3	Temperatura mínima	12
125480	7	Sololá	701	Sololá	4	Finca Santa Victoria	8	Agosto	2023-08-19T00:00:00	2024-11-08T06:00:00	5	Humedad	82
125481	7	Sololá	701	Sololá	4	Finca Santa Victoria	8	Agosto	2023-08-19T00:00:00	2024-11-08T06:00:00	6	Velocidad del viento	3.2
125482	7	Sololá	701	Sololá	4	Finca Santa Victoria	8	Agosto	2023-08-19T00:00:00	2024-11-08T06:00:00	7	Dirección del viento	3.22
125483	7	Sololá	701	Sololá	4	Finca Santa Victoria	8	Agosto	2023-08-19T00:00:00	2024-11-08T06:00:00	1	Precipitación	0
125484	7	Sololá	701	Sololá	4	Finca Santa Victoria	8	Agosto	2023-08-19T00:00:00	2024-11-08T06:00:00	8	Radiación solar	0
125485	7	Sololá	701	Sololá	4	Finca Santa Victoria	8	Agosto	2023-08-19T00:00:00	2024-11-08T07:00:00	2	Temperatura media	12.9
125486	7	Sololá	701	Sololá	4	Finca Santa Victoria	8	Agosto	2023-08-19T00:00:00	2024-11-08T07:00:00	4	Temperatura máxima	12.9
125487	7	Sololá	701	Sololá	4	Finca Santa Victoria	8	Agosto	2023-08-19T00:00:00	2024-11-08T07:00:00	3	Temperatura mínima	12.2
125488	7	Sololá	701	Sololá	4	Finca Santa Victoria	8	Agosto	2023-08-19T00:00:00	2024-11-08T07:00:00	5	Humedad	81
125489	7	Sololá	701	Sololá	4	Finca Santa Victoria	8	Agosto	2023-08-19T00:00:00	2024-11-08T07:00:00	6	Velocidad del viento	3.2
125490	7	Sololá	701	Sololá	4	Finca Santa Victoria	8	Agosto	2023-08-19T00:00:00	2024-11-08T07:00:00	7	Dirección del viento	3.22
125491	7	Sololá	701	Sololá	4	Finca Santa Victoria	8	Agosto	2023-08-19T00:00:00	2024-11-08T07:00:00	1	Precipitación	0
125492	7	Sololá	701	Sololá	4	Finca Santa Victoria	8	Agosto	2023-08-19T00:00:00	2024-11-08T07:00:00	8	Radiación solar	28
125493	7	Sololá	701	Sololá	4	Finca Santa Victoria	8	Agosto	2023-08-19T00:00:00	2024-11-08T08:00:00	2	Temperatura media	15.2
125494	7	Sololá	701	Sololá	4	Finca Santa Victoria	8	Agosto	2023-08-19T00:00:00	2024-11-08T08:00:00	4	Temperatura máxima	15.2
125495	7	Sololá	701	Sololá	4	Finca Santa Victoria	8	Agosto	2023-08-19T00:00:00	2024-11-08T08:00:00	3	Temperatura mínima	12.8
125496	7	Sololá	701	Sololá	4	Finca Santa Victoria	8	Agosto	2023-08-19T00:00:00	2024-11-08T08:00:00	5	Humedad	75
125497	7	Sololá	701	Sololá	4	Finca Santa Victoria	8	Agosto	2023-08-19T00:00:00	2024-11-08T08:00:00	6	Velocidad del viento	3.2
125498	7	Sololá	701	Sololá	4	Finca Santa Victoria	8	Agosto	2023-08-19T00:00:00	2024-11-08T08:00:00	7	Dirección del viento	3.22
125499	7	Sololá	701	Sololá	4	Finca Santa Victoria	8	Agosto	2023-08-19T00:00:00	2024-11-08T08:00:00	1	Precipitación	0
125500	7	Sololá	701	Sololá	4	Finca Santa Victoria	8	Agosto	2023-08-19T00:00:00	2024-11-08T08:00:00	8	Radiación solar	224
125501	7	Sololá	701	Sololá	4	Finca Santa Victoria	8	Agosto	2023-08-19T00:00:00	2024-11-08T09:00:00	2	Temperatura media	16.9
125502	7	Sololá	701	Sololá	4	Finca Santa Victoria	8	Agosto	2023-08-19T00:00:00	2024-11-08T09:00:00	4	Temperatura máxima	16.9
125503	7	Sololá	701	Sololá	4	Finca Santa Victoria	8	Agosto	2023-08-19T00:00:00	2024-11-08T09:00:00	3	Temperatura mínima	15.2
125504	7	Sololá	701	Sololá	4	Finca Santa Victoria	8	Agosto	2023-08-19T00:00:00	2024-11-08T09:00:00	5	Humedad	69
125505	7	Sololá	701	Sololá	4	Finca Santa Victoria	8	Agosto	2023-08-19T00:00:00	2024-11-08T09:00:00	6	Velocidad del viento	4.8
125506	7	Sololá	701	Sololá	4	Finca Santa Victoria	8	Agosto	2023-08-19T00:00:00	2024-11-08T09:00:00	7	Dirección del viento	4.83
125507	7	Sololá	701	Sololá	4	Finca Santa Victoria	8	Agosto	2023-08-19T00:00:00	2024-11-08T09:00:00	1	Precipitación	0
125508	7	Sololá	701	Sololá	4	Finca Santa Victoria	8	Agosto	2023-08-19T00:00:00	2024-11-08T09:00:00	8	Radiación solar	446
125509	7	Sololá	701	Sololá	4	Finca Santa Victoria	8	Agosto	2023-08-19T00:00:00	2024-11-08T10:00:00	2	Temperatura media	18.4
125510	7	Sololá	701	Sololá	4	Finca Santa Victoria	8	Agosto	2023-08-19T00:00:00	2024-11-08T10:00:00	4	Temperatura máxima	18.5
125511	7	Sololá	701	Sololá	4	Finca Santa Victoria	8	Agosto	2023-08-19T00:00:00	2024-11-08T10:00:00	3	Temperatura mínima	16.9
125512	7	Sololá	701	Sololá	4	Finca Santa Victoria	8	Agosto	2023-08-19T00:00:00	2024-11-08T10:00:00	5	Humedad	69
125513	7	Sololá	701	Sololá	4	Finca Santa Victoria	8	Agosto	2023-08-19T00:00:00	2024-11-08T10:00:00	6	Velocidad del viento	4.8
125514	7	Sololá	701	Sololá	4	Finca Santa Victoria	8	Agosto	2023-08-19T00:00:00	2024-11-08T10:00:00	7	Dirección del viento	4.83
125515	7	Sololá	701	Sololá	4	Finca Santa Victoria	8	Agosto	2023-08-19T00:00:00	2024-11-08T10:00:00	1	Precipitación	0
125516	7	Sololá	701	Sololá	4	Finca Santa Victoria	8	Agosto	2023-08-19T00:00:00	2024-11-08T10:00:00	8	Radiación solar	130
125517	7	Sololá	701	Sololá	4	Finca Santa Victoria	8	Agosto	2023-08-19T00:00:00	2024-11-08T11:00:00	2	Temperatura media	20.3
125518	7	Sololá	701	Sololá	4	Finca Santa Victoria	8	Agosto	2023-08-19T00:00:00	2024-11-08T11:00:00	4	Temperatura máxima	20.3
125519	7	Sololá	701	Sololá	4	Finca Santa Victoria	8	Agosto	2023-08-19T00:00:00	2024-11-08T11:00:00	3	Temperatura mínima	18.4
125520	7	Sololá	701	Sololá	4	Finca Santa Victoria	8	Agosto	2023-08-19T00:00:00	2024-11-08T11:00:00	5	Humedad	62
125521	7	Sololá	701	Sololá	4	Finca Santa Victoria	8	Agosto	2023-08-19T00:00:00	2024-11-08T11:00:00	6	Velocidad del viento	4.8
125522	7	Sololá	701	Sololá	4	Finca Santa Victoria	8	Agosto	2023-08-19T00:00:00	2024-11-08T11:00:00	7	Dirección del viento	4.83
125523	7	Sololá	701	Sololá	4	Finca Santa Victoria	8	Agosto	2023-08-19T00:00:00	2024-11-08T11:00:00	1	Precipitación	0
125524	7	Sololá	701	Sololá	4	Finca Santa Victoria	8	Agosto	2023-08-19T00:00:00	2024-11-08T11:00:00	8	Radiación solar	749
125525	7	Sololá	701	Sololá	4	Finca Santa Victoria	8	Agosto	2023-08-19T00:00:00	2024-11-08T12:00:00	2	Temperatura media	20.8
125526	7	Sololá	701	Sololá	4	Finca Santa Victoria	8	Agosto	2023-08-19T00:00:00	2024-11-08T12:00:00	4	Temperatura máxima	21.2
125527	7	Sololá	701	Sololá	4	Finca Santa Victoria	8	Agosto	2023-08-19T00:00:00	2024-11-08T12:00:00	3	Temperatura mínima	20.2
125528	7	Sololá	701	Sololá	4	Finca Santa Victoria	8	Agosto	2023-08-19T00:00:00	2024-11-08T12:00:00	5	Humedad	61
125529	7	Sololá	701	Sololá	4	Finca Santa Victoria	8	Agosto	2023-08-19T00:00:00	2024-11-08T12:00:00	6	Velocidad del viento	4.8
125530	7	Sololá	701	Sololá	4	Finca Santa Victoria	8	Agosto	2023-08-19T00:00:00	2024-11-08T12:00:00	7	Dirección del viento	4.83
125531	7	Sololá	701	Sololá	4	Finca Santa Victoria	8	Agosto	2023-08-19T00:00:00	2024-11-08T12:00:00	1	Precipitación	0
125532	7	Sololá	701	Sololá	4	Finca Santa Victoria	8	Agosto	2023-08-19T00:00:00	2024-11-08T12:00:00	8	Radiación solar	1041
125533	7	Sololá	701	Sololá	4	Finca Santa Victoria	8	Agosto	2023-08-19T00:00:00	2024-11-08T13:00:00	2	Temperatura media	19.8
125534	7	Sololá	701	Sololá	4	Finca Santa Victoria	8	Agosto	2023-08-19T00:00:00	2024-11-08T13:00:00	4	Temperatura máxima	21.3
125535	7	Sololá	701	Sololá	4	Finca Santa Victoria	8	Agosto	2023-08-19T00:00:00	2024-11-08T13:00:00	3	Temperatura mínima	19.7
125536	7	Sololá	701	Sololá	4	Finca Santa Victoria	8	Agosto	2023-08-19T00:00:00	2024-11-08T13:00:00	5	Humedad	65
125537	7	Sololá	701	Sololá	4	Finca Santa Victoria	8	Agosto	2023-08-19T00:00:00	2024-11-08T13:00:00	6	Velocidad del viento	3.2
125538	7	Sololá	701	Sololá	4	Finca Santa Victoria	8	Agosto	2023-08-19T00:00:00	2024-11-08T13:00:00	7	Dirección del viento	3.22
125539	7	Sololá	701	Sololá	4	Finca Santa Victoria	8	Agosto	2023-08-19T00:00:00	2024-11-08T13:00:00	1	Precipitación	0
125540	7	Sololá	701	Sololá	4	Finca Santa Victoria	8	Agosto	2023-08-19T00:00:00	2024-11-08T13:00:00	8	Radiación solar	387
125541	7	Sololá	701	Sololá	4	Finca Santa Victoria	8	Agosto	2023-08-19T00:00:00	2024-11-08T14:00:00	2	Temperatura media	21.2
125542	7	Sololá	701	Sololá	4	Finca Santa Victoria	8	Agosto	2023-08-19T00:00:00	2024-11-08T14:00:00	4	Temperatura máxima	21.2
125543	7	Sololá	701	Sololá	4	Finca Santa Victoria	8	Agosto	2023-08-19T00:00:00	2024-11-08T14:00:00	3	Temperatura mínima	19.7
125544	7	Sololá	701	Sololá	4	Finca Santa Victoria	8	Agosto	2023-08-19T00:00:00	2024-11-08T14:00:00	5	Humedad	63
125545	7	Sololá	701	Sololá	4	Finca Santa Victoria	8	Agosto	2023-08-19T00:00:00	2024-11-08T14:00:00	6	Velocidad del viento	4.8
125546	7	Sololá	701	Sololá	4	Finca Santa Victoria	8	Agosto	2023-08-19T00:00:00	2024-11-08T14:00:00	7	Dirección del viento	4.83
125547	7	Sololá	701	Sololá	4	Finca Santa Victoria	8	Agosto	2023-08-19T00:00:00	2024-11-08T14:00:00	1	Precipitación	0
125548	7	Sololá	701	Sololá	4	Finca Santa Victoria	8	Agosto	2023-08-19T00:00:00	2024-11-08T14:00:00	8	Radiación solar	156
125549	7	Sololá	701	Sololá	4	Finca Santa Victoria	8	Agosto	2023-08-19T00:00:00	2024-11-08T15:00:00	2	Temperatura media	21.6
125550	7	Sololá	701	Sololá	4	Finca Santa Victoria	8	Agosto	2023-08-19T00:00:00	2024-11-08T15:00:00	4	Temperatura máxima	21.9
125551	7	Sololá	701	Sololá	4	Finca Santa Victoria	8	Agosto	2023-08-19T00:00:00	2024-11-08T15:00:00	3	Temperatura mínima	20.9
125552	7	Sololá	701	Sololá	4	Finca Santa Victoria	8	Agosto	2023-08-19T00:00:00	2024-11-08T15:00:00	5	Humedad	60
125553	7	Sololá	701	Sololá	4	Finca Santa Victoria	8	Agosto	2023-08-19T00:00:00	2024-11-08T15:00:00	6	Velocidad del viento	3.2
125554	7	Sololá	701	Sololá	4	Finca Santa Victoria	8	Agosto	2023-08-19T00:00:00	2024-11-08T15:00:00	7	Dirección del viento	3.22
125555	7	Sololá	701	Sololá	4	Finca Santa Victoria	8	Agosto	2023-08-19T00:00:00	2024-11-08T15:00:00	1	Precipitación	0
125556	7	Sololá	701	Sololá	4	Finca Santa Victoria	8	Agosto	2023-08-19T00:00:00	2024-11-08T15:00:00	8	Radiación solar	160
125557	7	Sololá	701	Sololá	4	Finca Santa Victoria	8	Agosto	2023-08-19T00:00:00	2024-11-08T16:00:00	2	Temperatura media	19.8
125558	7	Sololá	701	Sololá	4	Finca Santa Victoria	8	Agosto	2023-08-19T00:00:00	2024-11-08T16:00:00	4	Temperatura máxima	21.5
125559	7	Sololá	701	Sololá	4	Finca Santa Victoria	8	Agosto	2023-08-19T00:00:00	2024-11-08T16:00:00	3	Temperatura mínima	19.6
125560	7	Sololá	701	Sololá	4	Finca Santa Victoria	8	Agosto	2023-08-19T00:00:00	2024-11-08T16:00:00	5	Humedad	63
125561	7	Sololá	701	Sololá	4	Finca Santa Victoria	8	Agosto	2023-08-19T00:00:00	2024-11-08T16:00:00	6	Velocidad del viento	4.8
125562	7	Sololá	701	Sololá	4	Finca Santa Victoria	8	Agosto	2023-08-19T00:00:00	2024-11-08T16:00:00	7	Dirección del viento	4.83
125563	7	Sololá	701	Sololá	4	Finca Santa Victoria	8	Agosto	2023-08-19T00:00:00	2024-11-08T16:00:00	1	Precipitación	0
125564	7	Sololá	701	Sololá	4	Finca Santa Victoria	8	Agosto	2023-08-19T00:00:00	2024-11-08T16:00:00	8	Radiación solar	112
125565	7	Sololá	701	Sololá	4	Finca Santa Victoria	8	Agosto	2023-08-19T00:00:00	2024-11-08T17:00:00	2	Temperatura media	18.8
125566	7	Sololá	701	Sololá	4	Finca Santa Victoria	8	Agosto	2023-08-19T00:00:00	2024-11-08T17:00:00	4	Temperatura máxima	20.4
125567	7	Sololá	701	Sololá	4	Finca Santa Victoria	8	Agosto	2023-08-19T00:00:00	2024-11-08T17:00:00	3	Temperatura mínima	18.8
125568	7	Sololá	701	Sololá	4	Finca Santa Victoria	8	Agosto	2023-08-19T00:00:00	2024-11-08T17:00:00	5	Humedad	83
125569	7	Sololá	701	Sololá	4	Finca Santa Victoria	8	Agosto	2023-08-19T00:00:00	2024-11-08T17:00:00	6	Velocidad del viento	1.6
125570	7	Sololá	701	Sololá	4	Finca Santa Victoria	8	Agosto	2023-08-19T00:00:00	2024-11-08T17:00:00	7	Dirección del viento	1.61
125571	7	Sololá	701	Sololá	4	Finca Santa Victoria	8	Agosto	2023-08-19T00:00:00	2024-11-08T17:00:00	1	Precipitación	0
125572	7	Sololá	701	Sololá	4	Finca Santa Victoria	8	Agosto	2023-08-19T00:00:00	2024-11-08T17:00:00	8	Radiación solar	106
125573	7	Sololá	701	Sololá	4	Finca Santa Victoria	8	Agosto	2023-08-19T00:00:00	2024-11-08T18:00:00	2	Temperatura media	17.3
125574	7	Sololá	701	Sololá	4	Finca Santa Victoria	8	Agosto	2023-08-19T00:00:00	2024-11-08T18:00:00	4	Temperatura máxima	18.8
125575	7	Sololá	701	Sololá	4	Finca Santa Victoria	8	Agosto	2023-08-19T00:00:00	2024-11-08T18:00:00	3	Temperatura mínima	17.3
125576	7	Sololá	701	Sololá	4	Finca Santa Victoria	8	Agosto	2023-08-19T00:00:00	2024-11-08T18:00:00	5	Humedad	77
125577	7	Sololá	701	Sololá	4	Finca Santa Victoria	8	Agosto	2023-08-19T00:00:00	2024-11-08T18:00:00	6	Velocidad del viento	1.6
125578	7	Sololá	701	Sololá	4	Finca Santa Victoria	8	Agosto	2023-08-19T00:00:00	2024-11-08T18:00:00	7	Dirección del viento	1.61
125579	7	Sololá	701	Sololá	4	Finca Santa Victoria	8	Agosto	2023-08-19T00:00:00	2024-11-08T18:00:00	1	Precipitación	0
125580	7	Sololá	701	Sololá	4	Finca Santa Victoria	8	Agosto	2023-08-19T00:00:00	2024-11-08T18:00:00	8	Radiación solar	61
125581	7	Sololá	701	Sololá	4	Finca Santa Victoria	8	Agosto	2023-08-19T00:00:00	2024-11-08T19:00:00	2	Temperatura media	15.9
125582	7	Sololá	701	Sololá	4	Finca Santa Victoria	8	Agosto	2023-08-19T00:00:00	2024-11-08T19:00:00	4	Temperatura máxima	17.3
125583	7	Sololá	701	Sololá	4	Finca Santa Victoria	8	Agosto	2023-08-19T00:00:00	2024-11-08T19:00:00	3	Temperatura mínima	15.9
125584	7	Sololá	701	Sololá	4	Finca Santa Victoria	8	Agosto	2023-08-19T00:00:00	2024-11-08T19:00:00	5	Humedad	82
125585	7	Sololá	701	Sololá	4	Finca Santa Victoria	8	Agosto	2023-08-19T00:00:00	2024-11-08T19:00:00	6	Velocidad del viento	1.6
125586	7	Sololá	701	Sololá	4	Finca Santa Victoria	8	Agosto	2023-08-19T00:00:00	2024-11-08T19:00:00	7	Dirección del viento	1.61
125587	7	Sololá	701	Sololá	4	Finca Santa Victoria	8	Agosto	2023-08-19T00:00:00	2024-11-08T19:00:00	1	Precipitación	0
125588	7	Sololá	701	Sololá	4	Finca Santa Victoria	8	Agosto	2023-08-19T00:00:00	2024-11-08T19:00:00	8	Radiación solar	0
125589	7	Sololá	701	Sololá	4	Finca Santa Victoria	8	Agosto	2023-08-19T00:00:00	2024-11-08T20:00:00	2	Temperatura media	14.3
125590	7	Sololá	701	Sololá	4	Finca Santa Victoria	8	Agosto	2023-08-19T00:00:00	2024-11-08T20:00:00	4	Temperatura máxima	15.9
125591	7	Sololá	701	Sololá	4	Finca Santa Victoria	8	Agosto	2023-08-19T00:00:00	2024-11-08T20:00:00	3	Temperatura mínima	14.3
125592	7	Sololá	701	Sololá	4	Finca Santa Victoria	8	Agosto	2023-08-19T00:00:00	2024-11-08T20:00:00	5	Humedad	83
125593	7	Sololá	701	Sololá	4	Finca Santa Victoria	8	Agosto	2023-08-19T00:00:00	2024-11-08T20:00:00	6	Velocidad del viento	3.2
125594	7	Sololá	701	Sololá	4	Finca Santa Victoria	8	Agosto	2023-08-19T00:00:00	2024-11-08T20:00:00	7	Dirección del viento	3.22
125595	7	Sololá	701	Sololá	4	Finca Santa Victoria	8	Agosto	2023-08-19T00:00:00	2024-11-08T20:00:00	1	Precipitación	0
125596	7	Sololá	701	Sololá	4	Finca Santa Victoria	8	Agosto	2023-08-19T00:00:00	2024-11-08T20:00:00	8	Radiación solar	0
125597	7	Sololá	701	Sololá	4	Finca Santa Victoria	8	Agosto	2023-08-19T00:00:00	2024-11-08T21:00:00	2	Temperatura media	14.2
125598	7	Sololá	701	Sololá	4	Finca Santa Victoria	8	Agosto	2023-08-19T00:00:00	2024-11-08T21:00:00	4	Temperatura máxima	14.4
125599	7	Sololá	701	Sololá	4	Finca Santa Victoria	8	Agosto	2023-08-19T00:00:00	2024-11-08T21:00:00	3	Temperatura mínima	13.9
125600	7	Sololá	701	Sololá	4	Finca Santa Victoria	8	Agosto	2023-08-19T00:00:00	2024-11-08T21:00:00	5	Humedad	81
125601	7	Sololá	701	Sololá	4	Finca Santa Victoria	8	Agosto	2023-08-19T00:00:00	2024-11-08T21:00:00	6	Velocidad del viento	3.2
125602	7	Sololá	701	Sololá	4	Finca Santa Victoria	8	Agosto	2023-08-19T00:00:00	2024-11-08T21:00:00	7	Dirección del viento	3.22
125603	7	Sololá	701	Sololá	4	Finca Santa Victoria	8	Agosto	2023-08-19T00:00:00	2024-11-08T21:00:00	1	Precipitación	0
125604	7	Sololá	701	Sololá	4	Finca Santa Victoria	8	Agosto	2023-08-19T00:00:00	2024-11-08T21:00:00	8	Radiación solar	0
125605	7	Sololá	701	Sololá	4	Finca Santa Victoria	8	Agosto	2023-08-19T00:00:00	2024-11-08T22:00:00	2	Temperatura media	13.7
125606	7	Sololá	701	Sololá	4	Finca Santa Victoria	8	Agosto	2023-08-19T00:00:00	2024-11-08T22:00:00	4	Temperatura máxima	14.3
125607	7	Sololá	701	Sololá	4	Finca Santa Victoria	8	Agosto	2023-08-19T00:00:00	2024-11-08T22:00:00	3	Temperatura mínima	13.7
125608	7	Sololá	701	Sololá	4	Finca Santa Victoria	8	Agosto	2023-08-19T00:00:00	2024-11-08T22:00:00	5	Humedad	82
125609	7	Sololá	701	Sololá	4	Finca Santa Victoria	8	Agosto	2023-08-19T00:00:00	2024-11-08T22:00:00	6	Velocidad del viento	3.2
125610	7	Sololá	701	Sololá	4	Finca Santa Victoria	8	Agosto	2023-08-19T00:00:00	2024-11-08T22:00:00	7	Dirección del viento	3.22
125611	7	Sololá	701	Sololá	4	Finca Santa Victoria	8	Agosto	2023-08-19T00:00:00	2024-11-08T22:00:00	1	Precipitación	0
125612	7	Sololá	701	Sololá	4	Finca Santa Victoria	8	Agosto	2023-08-19T00:00:00	2024-11-08T22:00:00	8	Radiación solar	0
125613	7	Sololá	701	Sololá	4	Finca Santa Victoria	8	Agosto	2023-08-19T00:00:00	2024-11-08T23:00:00	2	Temperatura media	13.2
125614	7	Sololá	701	Sololá	4	Finca Santa Victoria	8	Agosto	2023-08-19T00:00:00	2024-11-08T23:00:00	4	Temperatura máxima	13.7
125615	7	Sololá	701	Sololá	4	Finca Santa Victoria	8	Agosto	2023-08-19T00:00:00	2024-11-08T23:00:00	3	Temperatura mínima	13.2
125616	7	Sololá	701	Sololá	4	Finca Santa Victoria	8	Agosto	2023-08-19T00:00:00	2024-11-08T23:00:00	5	Humedad	84
125617	7	Sololá	701	Sololá	4	Finca Santa Victoria	8	Agosto	2023-08-19T00:00:00	2024-11-08T23:00:00	6	Velocidad del viento	3.2
125618	7	Sololá	701	Sololá	4	Finca Santa Victoria	8	Agosto	2023-08-19T00:00:00	2024-11-08T23:00:00	7	Dirección del viento	3.22
125619	7	Sololá	701	Sololá	4	Finca Santa Victoria	8	Agosto	2023-08-19T00:00:00	2024-11-08T23:00:00	1	Precipitación	0
125620	7	Sololá	701	Sololá	4	Finca Santa Victoria	8	Agosto	2023-08-19T00:00:00	2024-11-08T23:00:00	8	Radiación solar	0
125621	7	Sololá	701	Sololá	4	Finca Santa Victoria	8	Agosto	2023-08-20T00:00:00	2024-11-08T00:00:00	2	Temperatura media	12.9
125622	7	Sololá	701	Sololá	4	Finca Santa Victoria	8	Agosto	2023-08-20T00:00:00	2024-11-08T00:00:00	4	Temperatura máxima	13.2
125623	7	Sololá	701	Sololá	4	Finca Santa Victoria	8	Agosto	2023-08-20T00:00:00	2024-11-08T00:00:00	3	Temperatura mínima	12.7
125624	7	Sololá	701	Sololá	4	Finca Santa Victoria	8	Agosto	2023-08-20T00:00:00	2024-11-08T00:00:00	5	Humedad	83
125625	7	Sololá	701	Sololá	4	Finca Santa Victoria	8	Agosto	2023-08-20T00:00:00	2024-11-08T00:00:00	6	Velocidad del viento	4.8
125626	7	Sololá	701	Sololá	4	Finca Santa Victoria	8	Agosto	2023-08-20T00:00:00	2024-11-08T00:00:00	7	Dirección del viento	4.83
125627	7	Sololá	701	Sololá	4	Finca Santa Victoria	8	Agosto	2023-08-20T00:00:00	2024-11-08T00:00:00	1	Precipitación	0
125628	7	Sololá	701	Sololá	4	Finca Santa Victoria	8	Agosto	2023-08-20T00:00:00	2024-11-08T00:00:00	8	Radiación solar	0
125629	7	Sololá	701	Sololá	4	Finca Santa Victoria	8	Agosto	2023-08-20T00:00:00	2024-11-08T01:00:00	2	Temperatura media	12.8
125630	7	Sololá	701	Sololá	4	Finca Santa Victoria	8	Agosto	2023-08-20T00:00:00	2024-11-08T01:00:00	4	Temperatura máxima	12.9
125631	7	Sololá	701	Sololá	4	Finca Santa Victoria	8	Agosto	2023-08-20T00:00:00	2024-11-08T01:00:00	3	Temperatura mínima	12.7
125632	7	Sololá	701	Sololá	4	Finca Santa Victoria	8	Agosto	2023-08-20T00:00:00	2024-11-08T01:00:00	5	Humedad	83
125633	7	Sololá	701	Sololá	4	Finca Santa Victoria	8	Agosto	2023-08-20T00:00:00	2024-11-08T01:00:00	6	Velocidad del viento	3.2
125634	7	Sololá	701	Sololá	4	Finca Santa Victoria	8	Agosto	2023-08-20T00:00:00	2024-11-08T01:00:00	7	Dirección del viento	3.22
125635	7	Sololá	701	Sololá	4	Finca Santa Victoria	8	Agosto	2023-08-20T00:00:00	2024-11-08T01:00:00	1	Precipitación	0
125636	7	Sololá	701	Sololá	4	Finca Santa Victoria	8	Agosto	2023-08-20T00:00:00	2024-11-08T01:00:00	8	Radiación solar	0
125637	7	Sololá	701	Sololá	4	Finca Santa Victoria	8	Agosto	2023-08-20T00:00:00	2024-11-08T02:00:00	2	Temperatura media	12.8
125638	7	Sololá	701	Sololá	4	Finca Santa Victoria	8	Agosto	2023-08-20T00:00:00	2024-11-08T02:00:00	4	Temperatura máxima	13.1
125639	7	Sololá	701	Sololá	4	Finca Santa Victoria	8	Agosto	2023-08-20T00:00:00	2024-11-08T02:00:00	3	Temperatura mínima	12.7
125640	7	Sololá	701	Sololá	4	Finca Santa Victoria	8	Agosto	2023-08-20T00:00:00	2024-11-08T02:00:00	5	Humedad	81
125641	7	Sololá	701	Sololá	4	Finca Santa Victoria	8	Agosto	2023-08-20T00:00:00	2024-11-08T02:00:00	6	Velocidad del viento	4.8
125642	7	Sololá	701	Sololá	4	Finca Santa Victoria	8	Agosto	2023-08-20T00:00:00	2024-11-08T02:00:00	7	Dirección del viento	4.83
125643	7	Sololá	701	Sololá	4	Finca Santa Victoria	8	Agosto	2023-08-20T00:00:00	2024-11-08T02:00:00	1	Precipitación	0
125644	7	Sololá	701	Sololá	4	Finca Santa Victoria	8	Agosto	2023-08-20T00:00:00	2024-11-08T02:00:00	8	Radiación solar	0
125645	7	Sololá	701	Sololá	4	Finca Santa Victoria	8	Agosto	2023-08-20T00:00:00	2024-11-08T03:00:00	2	Temperatura media	12.7
125646	7	Sololá	701	Sololá	4	Finca Santa Victoria	8	Agosto	2023-08-20T00:00:00	2024-11-08T03:00:00	4	Temperatura máxima	13.1
125647	7	Sololá	701	Sololá	4	Finca Santa Victoria	8	Agosto	2023-08-20T00:00:00	2024-11-08T03:00:00	3	Temperatura mínima	12.5
125648	7	Sololá	701	Sololá	4	Finca Santa Victoria	8	Agosto	2023-08-20T00:00:00	2024-11-08T03:00:00	5	Humedad	79
125649	7	Sololá	701	Sololá	4	Finca Santa Victoria	8	Agosto	2023-08-20T00:00:00	2024-11-08T03:00:00	6	Velocidad del viento	3.2
125650	7	Sololá	701	Sololá	4	Finca Santa Victoria	8	Agosto	2023-08-20T00:00:00	2024-11-08T03:00:00	7	Dirección del viento	3.22
125651	7	Sololá	701	Sololá	4	Finca Santa Victoria	8	Agosto	2023-08-20T00:00:00	2024-11-08T03:00:00	1	Precipitación	0
125652	7	Sololá	701	Sololá	4	Finca Santa Victoria	8	Agosto	2023-08-20T00:00:00	2024-11-08T03:00:00	8	Radiación solar	0
125653	7	Sololá	701	Sololá	4	Finca Santa Victoria	8	Agosto	2023-08-20T00:00:00	2024-11-08T04:00:00	2	Temperatura media	12.6
125654	7	Sololá	701	Sololá	4	Finca Santa Victoria	8	Agosto	2023-08-20T00:00:00	2024-11-08T04:00:00	4	Temperatura máxima	12.8
125655	7	Sololá	701	Sololá	4	Finca Santa Victoria	8	Agosto	2023-08-20T00:00:00	2024-11-08T04:00:00	3	Temperatura mínima	12.4
125656	7	Sololá	701	Sololá	4	Finca Santa Victoria	8	Agosto	2023-08-20T00:00:00	2024-11-08T04:00:00	5	Humedad	78
125657	7	Sololá	701	Sololá	4	Finca Santa Victoria	8	Agosto	2023-08-20T00:00:00	2024-11-08T04:00:00	6	Velocidad del viento	3.2
125658	7	Sololá	701	Sololá	4	Finca Santa Victoria	8	Agosto	2023-08-20T00:00:00	2024-11-08T04:00:00	7	Dirección del viento	3.22
125659	7	Sololá	701	Sololá	4	Finca Santa Victoria	8	Agosto	2023-08-20T00:00:00	2024-11-08T04:00:00	1	Precipitación	0
125660	7	Sololá	701	Sololá	4	Finca Santa Victoria	8	Agosto	2023-08-20T00:00:00	2024-11-08T04:00:00	8	Radiación solar	0
125661	7	Sololá	701	Sololá	4	Finca Santa Victoria	8	Agosto	2023-08-20T00:00:00	2024-11-08T05:00:00	2	Temperatura media	12.6
125662	7	Sololá	701	Sololá	4	Finca Santa Victoria	8	Agosto	2023-08-20T00:00:00	2024-11-08T05:00:00	4	Temperatura máxima	12.9
125663	7	Sololá	701	Sololá	4	Finca Santa Victoria	8	Agosto	2023-08-20T00:00:00	2024-11-08T05:00:00	3	Temperatura mínima	12.5
125664	7	Sololá	701	Sololá	4	Finca Santa Victoria	8	Agosto	2023-08-20T00:00:00	2024-11-08T05:00:00	5	Humedad	77
125665	7	Sololá	701	Sololá	4	Finca Santa Victoria	8	Agosto	2023-08-20T00:00:00	2024-11-08T05:00:00	6	Velocidad del viento	3.2
125666	7	Sololá	701	Sololá	4	Finca Santa Victoria	8	Agosto	2023-08-20T00:00:00	2024-11-08T05:00:00	7	Dirección del viento	3.22
125667	7	Sololá	701	Sololá	4	Finca Santa Victoria	8	Agosto	2023-08-20T00:00:00	2024-11-08T05:00:00	1	Precipitación	0
125668	7	Sololá	701	Sololá	4	Finca Santa Victoria	8	Agosto	2023-08-20T00:00:00	2024-11-08T05:00:00	8	Radiación solar	0
125669	7	Sololá	701	Sololá	4	Finca Santa Victoria	8	Agosto	2023-08-20T00:00:00	2024-11-08T06:00:00	2	Temperatura media	12.6
125670	7	Sololá	701	Sololá	4	Finca Santa Victoria	8	Agosto	2023-08-20T00:00:00	2024-11-08T06:00:00	4	Temperatura máxima	12.8
125671	7	Sololá	701	Sololá	4	Finca Santa Victoria	8	Agosto	2023-08-20T00:00:00	2024-11-08T06:00:00	3	Temperatura mínima	12.4
125672	7	Sololá	701	Sololá	4	Finca Santa Victoria	8	Agosto	2023-08-20T00:00:00	2024-11-08T06:00:00	5	Humedad	74
125673	7	Sololá	701	Sololá	4	Finca Santa Victoria	8	Agosto	2023-08-20T00:00:00	2024-11-08T06:00:00	6	Velocidad del viento	3.2
125674	7	Sololá	701	Sololá	4	Finca Santa Victoria	8	Agosto	2023-08-20T00:00:00	2024-11-08T06:00:00	7	Dirección del viento	3.22
125675	7	Sololá	701	Sololá	4	Finca Santa Victoria	8	Agosto	2023-08-20T00:00:00	2024-11-08T06:00:00	1	Precipitación	0
125676	7	Sololá	701	Sololá	4	Finca Santa Victoria	8	Agosto	2023-08-20T00:00:00	2024-11-08T06:00:00	8	Radiación solar	0
125677	7	Sololá	701	Sololá	4	Finca Santa Victoria	8	Agosto	2023-08-20T00:00:00	2024-11-08T07:00:00	2	Temperatura media	13.2
125678	7	Sololá	701	Sololá	4	Finca Santa Victoria	8	Agosto	2023-08-20T00:00:00	2024-11-08T07:00:00	4	Temperatura máxima	13.2
125679	7	Sololá	701	Sololá	4	Finca Santa Victoria	8	Agosto	2023-08-20T00:00:00	2024-11-08T07:00:00	3	Temperatura mínima	12.5
125680	7	Sololá	701	Sololá	4	Finca Santa Victoria	8	Agosto	2023-08-20T00:00:00	2024-11-08T07:00:00	5	Humedad	71
125681	7	Sololá	701	Sololá	4	Finca Santa Victoria	8	Agosto	2023-08-20T00:00:00	2024-11-08T07:00:00	6	Velocidad del viento	3.2
125682	7	Sololá	701	Sololá	4	Finca Santa Victoria	8	Agosto	2023-08-20T00:00:00	2024-11-08T07:00:00	7	Dirección del viento	3.22
125683	7	Sololá	701	Sololá	4	Finca Santa Victoria	8	Agosto	2023-08-20T00:00:00	2024-11-08T07:00:00	1	Precipitación	0
125684	7	Sololá	701	Sololá	4	Finca Santa Victoria	8	Agosto	2023-08-20T00:00:00	2024-11-08T07:00:00	8	Radiación solar	14
125685	7	Sololá	701	Sololá	4	Finca Santa Victoria	8	Agosto	2023-08-20T00:00:00	2024-11-08T08:00:00	2	Temperatura media	16.3
125686	7	Sololá	701	Sololá	4	Finca Santa Victoria	8	Agosto	2023-08-20T00:00:00	2024-11-08T08:00:00	4	Temperatura máxima	16.3
125687	7	Sololá	701	Sololá	4	Finca Santa Victoria	8	Agosto	2023-08-20T00:00:00	2024-11-08T08:00:00	3	Temperatura mínima	13.2
125688	7	Sololá	701	Sololá	4	Finca Santa Victoria	8	Agosto	2023-08-20T00:00:00	2024-11-08T08:00:00	5	Humedad	63
125689	7	Sololá	701	Sololá	4	Finca Santa Victoria	8	Agosto	2023-08-20T00:00:00	2024-11-08T08:00:00	6	Velocidad del viento	3.2
125690	7	Sololá	701	Sololá	4	Finca Santa Victoria	8	Agosto	2023-08-20T00:00:00	2024-11-08T08:00:00	7	Dirección del viento	3.22
125691	7	Sololá	701	Sololá	4	Finca Santa Victoria	8	Agosto	2023-08-20T00:00:00	2024-11-08T08:00:00	1	Precipitación	0
125692	7	Sololá	701	Sololá	4	Finca Santa Victoria	8	Agosto	2023-08-20T00:00:00	2024-11-08T08:00:00	8	Radiación solar	243
125693	7	Sololá	701	Sololá	4	Finca Santa Victoria	8	Agosto	2023-08-20T00:00:00	2024-11-08T09:00:00	2	Temperatura media	18.2
125694	7	Sololá	701	Sololá	4	Finca Santa Victoria	8	Agosto	2023-08-20T00:00:00	2024-11-08T09:00:00	4	Temperatura máxima	18.2
125695	7	Sololá	701	Sololá	4	Finca Santa Victoria	8	Agosto	2023-08-20T00:00:00	2024-11-08T09:00:00	3	Temperatura mínima	16.3
125696	7	Sololá	701	Sololá	4	Finca Santa Victoria	8	Agosto	2023-08-20T00:00:00	2024-11-08T09:00:00	5	Humedad	58
125697	7	Sololá	701	Sololá	4	Finca Santa Victoria	8	Agosto	2023-08-20T00:00:00	2024-11-08T09:00:00	6	Velocidad del viento	3.2
125698	7	Sololá	701	Sololá	4	Finca Santa Victoria	8	Agosto	2023-08-20T00:00:00	2024-11-08T09:00:00	7	Dirección del viento	3.22
125699	7	Sololá	701	Sololá	4	Finca Santa Victoria	8	Agosto	2023-08-20T00:00:00	2024-11-08T09:00:00	1	Precipitación	0
125700	7	Sololá	701	Sololá	4	Finca Santa Victoria	8	Agosto	2023-08-20T00:00:00	2024-11-08T09:00:00	8	Radiación solar	425
125701	7	Sololá	701	Sololá	4	Finca Santa Victoria	8	Agosto	2023-08-20T00:00:00	2024-11-08T10:00:00	2	Temperatura media	19.2
125702	7	Sololá	701	Sololá	4	Finca Santa Victoria	8	Agosto	2023-08-20T00:00:00	2024-11-08T10:00:00	4	Temperatura máxima	19.2
125703	7	Sololá	701	Sololá	4	Finca Santa Victoria	8	Agosto	2023-08-20T00:00:00	2024-11-08T10:00:00	3	Temperatura mínima	18.2
125704	7	Sololá	701	Sololá	4	Finca Santa Victoria	8	Agosto	2023-08-20T00:00:00	2024-11-08T10:00:00	5	Humedad	59
125705	7	Sololá	701	Sololá	4	Finca Santa Victoria	8	Agosto	2023-08-20T00:00:00	2024-11-08T10:00:00	6	Velocidad del viento	3.2
125706	7	Sololá	701	Sololá	4	Finca Santa Victoria	8	Agosto	2023-08-20T00:00:00	2024-11-08T10:00:00	7	Dirección del viento	3.22
125707	7	Sololá	701	Sololá	4	Finca Santa Victoria	8	Agosto	2023-08-20T00:00:00	2024-11-08T10:00:00	1	Precipitación	0
125708	7	Sololá	701	Sololá	4	Finca Santa Victoria	8	Agosto	2023-08-20T00:00:00	2024-11-08T10:00:00	8	Radiación solar	106
125709	7	Sololá	701	Sololá	4	Finca Santa Victoria	8	Agosto	2023-08-20T00:00:00	2024-11-08T11:00:00	2	Temperatura media	21.1
125710	7	Sololá	701	Sololá	4	Finca Santa Victoria	8	Agosto	2023-08-20T00:00:00	2024-11-08T11:00:00	4	Temperatura máxima	21.1
125711	7	Sololá	701	Sololá	4	Finca Santa Victoria	8	Agosto	2023-08-20T00:00:00	2024-11-08T11:00:00	3	Temperatura mínima	19.2
125712	7	Sololá	701	Sololá	4	Finca Santa Victoria	8	Agosto	2023-08-20T00:00:00	2024-11-08T11:00:00	5	Humedad	57
125713	7	Sololá	701	Sololá	4	Finca Santa Victoria	8	Agosto	2023-08-20T00:00:00	2024-11-08T11:00:00	6	Velocidad del viento	3.2
125714	7	Sololá	701	Sololá	4	Finca Santa Victoria	8	Agosto	2023-08-20T00:00:00	2024-11-08T11:00:00	7	Dirección del viento	3.22
125715	7	Sololá	701	Sololá	4	Finca Santa Victoria	8	Agosto	2023-08-20T00:00:00	2024-11-08T11:00:00	1	Precipitación	0
125716	7	Sololá	701	Sololá	4	Finca Santa Victoria	8	Agosto	2023-08-20T00:00:00	2024-11-08T11:00:00	8	Radiación solar	630
125717	7	Sololá	701	Sololá	4	Finca Santa Victoria	8	Agosto	2023-08-20T00:00:00	2024-11-08T12:00:00	2	Temperatura media	21.9
125718	7	Sololá	701	Sololá	4	Finca Santa Victoria	8	Agosto	2023-08-20T00:00:00	2024-11-08T12:00:00	4	Temperatura máxima	21.9
125719	7	Sololá	701	Sololá	4	Finca Santa Victoria	8	Agosto	2023-08-20T00:00:00	2024-11-08T12:00:00	3	Temperatura mínima	21
125720	7	Sololá	701	Sololá	4	Finca Santa Victoria	8	Agosto	2023-08-20T00:00:00	2024-11-08T12:00:00	5	Humedad	59
125721	7	Sololá	701	Sololá	4	Finca Santa Victoria	8	Agosto	2023-08-20T00:00:00	2024-11-08T12:00:00	6	Velocidad del viento	3.2
125722	7	Sololá	701	Sololá	4	Finca Santa Victoria	8	Agosto	2023-08-20T00:00:00	2024-11-08T12:00:00	7	Dirección del viento	3.22
125723	7	Sololá	701	Sololá	4	Finca Santa Victoria	8	Agosto	2023-08-20T00:00:00	2024-11-08T12:00:00	1	Precipitación	0
125724	7	Sololá	701	Sololá	4	Finca Santa Victoria	8	Agosto	2023-08-20T00:00:00	2024-11-08T12:00:00	8	Radiación solar	1045
125725	7	Sololá	701	Sololá	4	Finca Santa Victoria	8	Agosto	2023-08-20T00:00:00	2024-11-08T13:00:00	2	Temperatura media	21.8
125726	7	Sololá	701	Sololá	4	Finca Santa Victoria	8	Agosto	2023-08-20T00:00:00	2024-11-08T13:00:00	4	Temperatura máxima	22.7
125727	7	Sololá	701	Sololá	4	Finca Santa Victoria	8	Agosto	2023-08-20T00:00:00	2024-11-08T13:00:00	3	Temperatura mínima	21.3
125728	7	Sololá	701	Sololá	4	Finca Santa Victoria	8	Agosto	2023-08-20T00:00:00	2024-11-08T13:00:00	5	Humedad	55
125729	7	Sololá	701	Sololá	4	Finca Santa Victoria	8	Agosto	2023-08-20T00:00:00	2024-11-08T13:00:00	6	Velocidad del viento	3.2
125730	7	Sololá	701	Sololá	4	Finca Santa Victoria	8	Agosto	2023-08-20T00:00:00	2024-11-08T13:00:00	7	Dirección del viento	3.22
125731	7	Sololá	701	Sololá	4	Finca Santa Victoria	8	Agosto	2023-08-20T00:00:00	2024-11-08T13:00:00	1	Precipitación	0
125732	7	Sololá	701	Sololá	4	Finca Santa Victoria	8	Agosto	2023-08-20T00:00:00	2024-11-08T13:00:00	8	Radiación solar	547
125733	7	Sololá	701	Sololá	4	Finca Santa Victoria	8	Agosto	2023-08-20T00:00:00	2024-11-08T14:00:00	2	Temperatura media	19.2
125734	7	Sololá	701	Sololá	4	Finca Santa Victoria	8	Agosto	2023-08-20T00:00:00	2024-11-08T14:00:00	4	Temperatura máxima	22
125735	7	Sololá	701	Sololá	4	Finca Santa Victoria	8	Agosto	2023-08-20T00:00:00	2024-11-08T14:00:00	3	Temperatura mínima	19.2
125736	7	Sololá	701	Sololá	4	Finca Santa Victoria	8	Agosto	2023-08-20T00:00:00	2024-11-08T14:00:00	5	Humedad	81
125737	7	Sololá	701	Sololá	4	Finca Santa Victoria	8	Agosto	2023-08-20T00:00:00	2024-11-08T14:00:00	6	Velocidad del viento	3.2
125738	7	Sololá	701	Sololá	4	Finca Santa Victoria	8	Agosto	2023-08-20T00:00:00	2024-11-08T14:00:00	7	Dirección del viento	3.22
125739	7	Sololá	701	Sololá	4	Finca Santa Victoria	8	Agosto	2023-08-20T00:00:00	2024-11-08T14:00:00	1	Precipitación	0
125740	7	Sololá	701	Sololá	4	Finca Santa Victoria	8	Agosto	2023-08-20T00:00:00	2024-11-08T14:00:00	8	Radiación solar	190
125741	7	Sololá	701	Sololá	4	Finca Santa Victoria	8	Agosto	2023-08-20T00:00:00	2024-11-08T15:00:00	2	Temperatura media	20.7
125742	7	Sololá	701	Sololá	4	Finca Santa Victoria	8	Agosto	2023-08-20T00:00:00	2024-11-08T15:00:00	4	Temperatura máxima	20.7
125743	7	Sololá	701	Sololá	4	Finca Santa Victoria	8	Agosto	2023-08-20T00:00:00	2024-11-08T15:00:00	3	Temperatura mínima	18.6
125744	7	Sololá	701	Sololá	4	Finca Santa Victoria	8	Agosto	2023-08-20T00:00:00	2024-11-08T15:00:00	5	Humedad	69
125745	7	Sololá	701	Sololá	4	Finca Santa Victoria	8	Agosto	2023-08-20T00:00:00	2024-11-08T15:00:00	6	Velocidad del viento	3.2
125746	7	Sololá	701	Sololá	4	Finca Santa Victoria	8	Agosto	2023-08-20T00:00:00	2024-11-08T15:00:00	7	Dirección del viento	3.22
125747	7	Sololá	701	Sololá	4	Finca Santa Victoria	8	Agosto	2023-08-20T00:00:00	2024-11-08T15:00:00	1	Precipitación	0
125748	7	Sololá	701	Sololá	4	Finca Santa Victoria	8	Agosto	2023-08-20T00:00:00	2024-11-08T15:00:00	8	Radiación solar	196
125749	7	Sololá	701	Sololá	4	Finca Santa Victoria	8	Agosto	2023-08-20T00:00:00	2024-11-08T16:00:00	2	Temperatura media	21.2
125750	7	Sololá	701	Sololá	4	Finca Santa Victoria	8	Agosto	2023-08-20T00:00:00	2024-11-08T16:00:00	4	Temperatura máxima	21.5
125751	7	Sololá	701	Sololá	4	Finca Santa Victoria	8	Agosto	2023-08-20T00:00:00	2024-11-08T16:00:00	3	Temperatura mínima	20.3
125752	7	Sololá	701	Sololá	4	Finca Santa Victoria	8	Agosto	2023-08-20T00:00:00	2024-11-08T16:00:00	5	Humedad	70
125753	7	Sololá	701	Sololá	4	Finca Santa Victoria	8	Agosto	2023-08-20T00:00:00	2024-11-08T16:00:00	6	Velocidad del viento	3.2
125754	7	Sololá	701	Sololá	4	Finca Santa Victoria	8	Agosto	2023-08-20T00:00:00	2024-11-08T16:00:00	7	Dirección del viento	3.22
125755	7	Sololá	701	Sololá	4	Finca Santa Victoria	8	Agosto	2023-08-20T00:00:00	2024-11-08T16:00:00	1	Precipitación	0
125756	7	Sololá	701	Sololá	4	Finca Santa Victoria	8	Agosto	2023-08-20T00:00:00	2024-11-08T16:00:00	8	Radiación solar	131
125757	7	Sololá	701	Sololá	4	Finca Santa Victoria	8	Agosto	2023-08-20T00:00:00	2024-11-08T17:00:00	2	Temperatura media	20.3
125758	7	Sololá	701	Sololá	4	Finca Santa Victoria	8	Agosto	2023-08-20T00:00:00	2024-11-08T17:00:00	4	Temperatura máxima	21.2
125759	7	Sololá	701	Sololá	4	Finca Santa Victoria	8	Agosto	2023-08-20T00:00:00	2024-11-08T17:00:00	3	Temperatura mínima	20.2
125760	7	Sololá	701	Sololá	4	Finca Santa Victoria	8	Agosto	2023-08-20T00:00:00	2024-11-08T17:00:00	5	Humedad	67
125761	7	Sololá	701	Sololá	4	Finca Santa Victoria	8	Agosto	2023-08-20T00:00:00	2024-11-08T17:00:00	6	Velocidad del viento	1.6
125762	7	Sololá	701	Sololá	4	Finca Santa Victoria	8	Agosto	2023-08-20T00:00:00	2024-11-08T17:00:00	7	Dirección del viento	1.61
125763	7	Sololá	701	Sololá	4	Finca Santa Victoria	8	Agosto	2023-08-20T00:00:00	2024-11-08T17:00:00	1	Precipitación	0
125764	7	Sololá	701	Sololá	4	Finca Santa Victoria	8	Agosto	2023-08-20T00:00:00	2024-11-08T17:00:00	8	Radiación solar	135
125765	7	Sololá	701	Sololá	4	Finca Santa Victoria	8	Agosto	2023-08-20T00:00:00	2024-11-08T18:00:00	2	Temperatura media	17.9
125766	7	Sololá	701	Sololá	4	Finca Santa Victoria	8	Agosto	2023-08-20T00:00:00	2024-11-08T18:00:00	4	Temperatura máxima	20.6
125767	7	Sololá	701	Sololá	4	Finca Santa Victoria	8	Agosto	2023-08-20T00:00:00	2024-11-08T18:00:00	3	Temperatura mínima	17.9
125768	7	Sololá	701	Sololá	4	Finca Santa Victoria	8	Agosto	2023-08-20T00:00:00	2024-11-08T18:00:00	5	Humedad	74
125769	7	Sololá	701	Sololá	4	Finca Santa Victoria	8	Agosto	2023-08-20T00:00:00	2024-11-08T18:00:00	6	Velocidad del viento	1.6
125770	7	Sololá	701	Sololá	4	Finca Santa Victoria	8	Agosto	2023-08-20T00:00:00	2024-11-08T18:00:00	7	Dirección del viento	1.61
125771	7	Sololá	701	Sololá	4	Finca Santa Victoria	8	Agosto	2023-08-20T00:00:00	2024-11-08T18:00:00	1	Precipitación	0
125772	7	Sololá	701	Sololá	4	Finca Santa Victoria	8	Agosto	2023-08-20T00:00:00	2024-11-08T18:00:00	8	Radiación solar	68
125773	7	Sololá	701	Sololá	4	Finca Santa Victoria	8	Agosto	2023-08-20T00:00:00	2024-11-08T19:00:00	2	Temperatura media	16.3
125774	7	Sololá	701	Sololá	4	Finca Santa Victoria	8	Agosto	2023-08-20T00:00:00	2024-11-08T19:00:00	4	Temperatura máxima	17.9
125775	7	Sololá	701	Sololá	4	Finca Santa Victoria	8	Agosto	2023-08-20T00:00:00	2024-11-08T19:00:00	3	Temperatura mínima	16.3
125776	7	Sololá	701	Sololá	4	Finca Santa Victoria	8	Agosto	2023-08-20T00:00:00	2024-11-08T19:00:00	5	Humedad	81
125777	7	Sololá	701	Sololá	4	Finca Santa Victoria	8	Agosto	2023-08-20T00:00:00	2024-11-08T19:00:00	6	Velocidad del viento	1.6
125778	7	Sololá	701	Sololá	4	Finca Santa Victoria	8	Agosto	2023-08-20T00:00:00	2024-11-08T19:00:00	7	Dirección del viento	1.61
125779	7	Sololá	701	Sololá	4	Finca Santa Victoria	8	Agosto	2023-08-20T00:00:00	2024-11-08T19:00:00	1	Precipitación	0
125780	7	Sololá	701	Sololá	4	Finca Santa Victoria	8	Agosto	2023-08-20T00:00:00	2024-11-08T19:00:00	8	Radiación solar	0
125781	7	Sololá	701	Sololá	4	Finca Santa Victoria	8	Agosto	2023-08-20T00:00:00	2024-11-08T20:00:00	2	Temperatura media	15.8
125782	7	Sololá	701	Sololá	4	Finca Santa Victoria	8	Agosto	2023-08-20T00:00:00	2024-11-08T20:00:00	4	Temperatura máxima	16.3
125783	7	Sololá	701	Sololá	4	Finca Santa Victoria	8	Agosto	2023-08-20T00:00:00	2024-11-08T20:00:00	3	Temperatura mínima	15.8
125784	7	Sololá	701	Sololá	4	Finca Santa Victoria	8	Agosto	2023-08-20T00:00:00	2024-11-08T20:00:00	5	Humedad	83
125785	7	Sololá	701	Sololá	4	Finca Santa Victoria	8	Agosto	2023-08-20T00:00:00	2024-11-08T20:00:00	6	Velocidad del viento	3.2
125786	7	Sololá	701	Sololá	4	Finca Santa Victoria	8	Agosto	2023-08-20T00:00:00	2024-11-08T20:00:00	7	Dirección del viento	3.22
125787	7	Sololá	701	Sololá	4	Finca Santa Victoria	8	Agosto	2023-08-20T00:00:00	2024-11-08T20:00:00	1	Precipitación	0
125788	7	Sololá	701	Sololá	4	Finca Santa Victoria	8	Agosto	2023-08-20T00:00:00	2024-11-08T20:00:00	8	Radiación solar	0
125789	7	Sololá	701	Sololá	4	Finca Santa Victoria	8	Agosto	2023-08-20T00:00:00	2024-11-08T21:00:00	2	Temperatura media	15.4
125790	7	Sololá	701	Sololá	4	Finca Santa Victoria	8	Agosto	2023-08-20T00:00:00	2024-11-08T21:00:00	4	Temperatura máxima	15.8
125791	7	Sololá	701	Sololá	4	Finca Santa Victoria	8	Agosto	2023-08-20T00:00:00	2024-11-08T21:00:00	3	Temperatura mínima	15.3
125792	7	Sololá	701	Sololá	4	Finca Santa Victoria	8	Agosto	2023-08-20T00:00:00	2024-11-08T21:00:00	5	Humedad	84
125793	7	Sololá	701	Sololá	4	Finca Santa Victoria	8	Agosto	2023-08-20T00:00:00	2024-11-08T21:00:00	6	Velocidad del viento	3.2
125794	7	Sololá	701	Sololá	4	Finca Santa Victoria	8	Agosto	2023-08-20T00:00:00	2024-11-08T21:00:00	7	Dirección del viento	3.22
125795	7	Sololá	701	Sololá	4	Finca Santa Victoria	8	Agosto	2023-08-20T00:00:00	2024-11-08T21:00:00	1	Precipitación	0
125796	7	Sololá	701	Sololá	4	Finca Santa Victoria	8	Agosto	2023-08-20T00:00:00	2024-11-08T21:00:00	8	Radiación solar	0
125797	7	Sololá	701	Sololá	4	Finca Santa Victoria	8	Agosto	2023-08-20T00:00:00	2024-11-08T22:00:00	2	Temperatura media	14.6
125798	7	Sololá	701	Sololá	4	Finca Santa Victoria	8	Agosto	2023-08-20T00:00:00	2024-11-08T22:00:00	4	Temperatura máxima	15.4
125799	7	Sololá	701	Sololá	4	Finca Santa Victoria	8	Agosto	2023-08-20T00:00:00	2024-11-08T22:00:00	3	Temperatura mínima	14.6
125800	7	Sololá	701	Sololá	4	Finca Santa Victoria	8	Agosto	2023-08-20T00:00:00	2024-11-08T22:00:00	5	Humedad	86
125801	7	Sololá	701	Sololá	4	Finca Santa Victoria	8	Agosto	2023-08-20T00:00:00	2024-11-08T22:00:00	6	Velocidad del viento	1.6
125802	7	Sololá	701	Sololá	4	Finca Santa Victoria	8	Agosto	2023-08-20T00:00:00	2024-11-08T22:00:00	7	Dirección del viento	1.61
125803	7	Sololá	701	Sololá	4	Finca Santa Victoria	8	Agosto	2023-08-20T00:00:00	2024-11-08T22:00:00	1	Precipitación	0
125804	7	Sololá	701	Sololá	4	Finca Santa Victoria	8	Agosto	2023-08-20T00:00:00	2024-11-08T22:00:00	8	Radiación solar	0
125805	7	Sololá	701	Sololá	4	Finca Santa Victoria	8	Agosto	2023-08-20T00:00:00	2024-11-08T23:00:00	2	Temperatura media	14.7
125806	7	Sololá	701	Sololá	4	Finca Santa Victoria	8	Agosto	2023-08-20T00:00:00	2024-11-08T23:00:00	4	Temperatura máxima	14.8
125807	7	Sololá	701	Sololá	4	Finca Santa Victoria	8	Agosto	2023-08-20T00:00:00	2024-11-08T23:00:00	3	Temperatura mínima	14.6
125808	7	Sololá	701	Sololá	4	Finca Santa Victoria	8	Agosto	2023-08-20T00:00:00	2024-11-08T23:00:00	5	Humedad	85
125809	7	Sololá	701	Sololá	4	Finca Santa Victoria	8	Agosto	2023-08-20T00:00:00	2024-11-08T23:00:00	6	Velocidad del viento	1.6
125810	7	Sololá	701	Sololá	4	Finca Santa Victoria	8	Agosto	2023-08-20T00:00:00	2024-11-08T23:00:00	7	Dirección del viento	1.61
125811	7	Sololá	701	Sololá	4	Finca Santa Victoria	8	Agosto	2023-08-20T00:00:00	2024-11-08T23:00:00	1	Precipitación	0
125812	7	Sololá	701	Sololá	4	Finca Santa Victoria	8	Agosto	2023-08-20T00:00:00	2024-11-08T23:00:00	8	Radiación solar	0
125813	7	Sololá	701	Sololá	4	Finca Santa Victoria	8	Agosto	2023-08-21T00:00:00	2024-11-08T00:00:00	2	Temperatura media	14.1
125814	7	Sololá	701	Sololá	4	Finca Santa Victoria	8	Agosto	2023-08-21T00:00:00	2024-11-08T00:00:00	4	Temperatura máxima	14.7
125815	7	Sololá	701	Sololá	4	Finca Santa Victoria	8	Agosto	2023-08-21T00:00:00	2024-11-08T00:00:00	3	Temperatura mínima	14.1
125816	7	Sololá	701	Sololá	4	Finca Santa Victoria	8	Agosto	2023-08-21T00:00:00	2024-11-08T00:00:00	5	Humedad	87
125817	7	Sololá	701	Sololá	4	Finca Santa Victoria	8	Agosto	2023-08-21T00:00:00	2024-11-08T00:00:00	6	Velocidad del viento	1.6
125818	7	Sololá	701	Sololá	4	Finca Santa Victoria	8	Agosto	2023-08-21T00:00:00	2024-11-08T00:00:00	7	Dirección del viento	1.61
125819	7	Sololá	701	Sololá	4	Finca Santa Victoria	8	Agosto	2023-08-21T00:00:00	2024-11-08T00:00:00	1	Precipitación	0
125820	7	Sololá	701	Sololá	4	Finca Santa Victoria	8	Agosto	2023-08-21T00:00:00	2024-11-08T00:00:00	8	Radiación solar	0
125821	7	Sololá	701	Sololá	4	Finca Santa Victoria	8	Agosto	2023-08-21T00:00:00	2024-11-08T01:00:00	2	Temperatura media	14.2
125822	7	Sololá	701	Sololá	4	Finca Santa Victoria	8	Agosto	2023-08-21T00:00:00	2024-11-08T01:00:00	4	Temperatura máxima	14.3
125823	7	Sololá	701	Sololá	4	Finca Santa Victoria	8	Agosto	2023-08-21T00:00:00	2024-11-08T01:00:00	3	Temperatura mínima	14.1
125824	7	Sololá	701	Sololá	4	Finca Santa Victoria	8	Agosto	2023-08-21T00:00:00	2024-11-08T01:00:00	5	Humedad	87
125825	7	Sololá	701	Sololá	4	Finca Santa Victoria	8	Agosto	2023-08-21T00:00:00	2024-11-08T01:00:00	6	Velocidad del viento	1.6
125826	7	Sololá	701	Sololá	4	Finca Santa Victoria	8	Agosto	2023-08-21T00:00:00	2024-11-08T01:00:00	7	Dirección del viento	1.61
125827	7	Sololá	701	Sololá	4	Finca Santa Victoria	8	Agosto	2023-08-21T00:00:00	2024-11-08T01:00:00	1	Precipitación	0
125828	7	Sololá	701	Sololá	4	Finca Santa Victoria	8	Agosto	2023-08-21T00:00:00	2024-11-08T01:00:00	8	Radiación solar	0
125829	7	Sololá	701	Sololá	4	Finca Santa Victoria	8	Agosto	2023-08-21T00:00:00	2024-11-08T02:00:00	2	Temperatura media	14
125830	7	Sololá	701	Sololá	4	Finca Santa Victoria	8	Agosto	2023-08-21T00:00:00	2024-11-08T02:00:00	4	Temperatura máxima	14.2
125831	7	Sololá	701	Sololá	4	Finca Santa Victoria	8	Agosto	2023-08-21T00:00:00	2024-11-08T02:00:00	3	Temperatura mínima	13.9
125832	7	Sololá	701	Sololá	4	Finca Santa Victoria	8	Agosto	2023-08-21T00:00:00	2024-11-08T02:00:00	5	Humedad	87
125833	7	Sololá	701	Sololá	4	Finca Santa Victoria	8	Agosto	2023-08-21T00:00:00	2024-11-08T02:00:00	6	Velocidad del viento	3.2
125834	7	Sololá	701	Sololá	4	Finca Santa Victoria	8	Agosto	2023-08-21T00:00:00	2024-11-08T02:00:00	7	Dirección del viento	3.22
125835	7	Sololá	701	Sololá	4	Finca Santa Victoria	8	Agosto	2023-08-21T00:00:00	2024-11-08T02:00:00	1	Precipitación	0
125836	7	Sololá	701	Sololá	4	Finca Santa Victoria	8	Agosto	2023-08-21T00:00:00	2024-11-08T02:00:00	8	Radiación solar	0
125837	7	Sololá	701	Sololá	4	Finca Santa Victoria	8	Agosto	2023-08-21T00:00:00	2024-11-08T03:00:00	2	Temperatura media	13.7
125838	7	Sololá	701	Sololá	4	Finca Santa Victoria	8	Agosto	2023-08-21T00:00:00	2024-11-08T03:00:00	4	Temperatura máxima	14.1
125839	7	Sololá	701	Sololá	4	Finca Santa Victoria	8	Agosto	2023-08-21T00:00:00	2024-11-08T03:00:00	3	Temperatura mínima	13.7
125840	7	Sololá	701	Sololá	4	Finca Santa Victoria	8	Agosto	2023-08-21T00:00:00	2024-11-08T03:00:00	5	Humedad	88
125841	7	Sololá	701	Sololá	4	Finca Santa Victoria	8	Agosto	2023-08-21T00:00:00	2024-11-08T03:00:00	6	Velocidad del viento	3.2
125842	7	Sololá	701	Sololá	4	Finca Santa Victoria	8	Agosto	2023-08-21T00:00:00	2024-11-08T03:00:00	7	Dirección del viento	3.22
125843	7	Sololá	701	Sololá	4	Finca Santa Victoria	8	Agosto	2023-08-21T00:00:00	2024-11-08T03:00:00	1	Precipitación	0
125844	7	Sololá	701	Sololá	4	Finca Santa Victoria	8	Agosto	2023-08-21T00:00:00	2024-11-08T03:00:00	8	Radiación solar	0
125845	7	Sololá	701	Sololá	4	Finca Santa Victoria	8	Agosto	2023-08-21T00:00:00	2024-11-08T04:00:00	2	Temperatura media	13.4
125846	7	Sololá	701	Sololá	4	Finca Santa Victoria	8	Agosto	2023-08-21T00:00:00	2024-11-08T04:00:00	4	Temperatura máxima	13.7
125847	7	Sololá	701	Sololá	4	Finca Santa Victoria	8	Agosto	2023-08-21T00:00:00	2024-11-08T04:00:00	3	Temperatura mínima	13.4
125848	7	Sololá	701	Sololá	4	Finca Santa Victoria	8	Agosto	2023-08-21T00:00:00	2024-11-08T04:00:00	5	Humedad	88
125849	7	Sololá	701	Sololá	4	Finca Santa Victoria	8	Agosto	2023-08-21T00:00:00	2024-11-08T04:00:00	6	Velocidad del viento	3.2
125850	7	Sololá	701	Sololá	4	Finca Santa Victoria	8	Agosto	2023-08-21T00:00:00	2024-11-08T04:00:00	7	Dirección del viento	3.22
125851	7	Sololá	701	Sololá	4	Finca Santa Victoria	8	Agosto	2023-08-21T00:00:00	2024-11-08T04:00:00	1	Precipitación	0
125852	7	Sololá	701	Sololá	4	Finca Santa Victoria	8	Agosto	2023-08-21T00:00:00	2024-11-08T04:00:00	8	Radiación solar	0
125853	7	Sololá	701	Sololá	4	Finca Santa Victoria	8	Agosto	2023-08-21T00:00:00	2024-11-08T05:00:00	2	Temperatura media	13.5
125854	7	Sololá	701	Sololá	4	Finca Santa Victoria	8	Agosto	2023-08-21T00:00:00	2024-11-08T05:00:00	4	Temperatura máxima	13.7
125855	7	Sololá	701	Sololá	4	Finca Santa Victoria	8	Agosto	2023-08-21T00:00:00	2024-11-08T05:00:00	3	Temperatura mínima	13.3
125856	7	Sololá	701	Sololá	4	Finca Santa Victoria	8	Agosto	2023-08-21T00:00:00	2024-11-08T05:00:00	5	Humedad	87
125857	7	Sololá	701	Sololá	4	Finca Santa Victoria	8	Agosto	2023-08-21T00:00:00	2024-11-08T05:00:00	6	Velocidad del viento	1.6
125858	7	Sololá	701	Sololá	4	Finca Santa Victoria	8	Agosto	2023-08-21T00:00:00	2024-11-08T05:00:00	7	Dirección del viento	1.61
125859	7	Sololá	701	Sololá	4	Finca Santa Victoria	8	Agosto	2023-08-21T00:00:00	2024-11-08T05:00:00	1	Precipitación	0
125860	7	Sololá	701	Sololá	4	Finca Santa Victoria	8	Agosto	2023-08-21T00:00:00	2024-11-08T05:00:00	8	Radiación solar	0
125861	7	Sololá	701	Sololá	4	Finca Santa Victoria	8	Agosto	2023-08-21T00:00:00	2024-11-08T06:00:00	2	Temperatura media	13.7
125862	7	Sololá	701	Sololá	4	Finca Santa Victoria	8	Agosto	2023-08-21T00:00:00	2024-11-08T06:00:00	4	Temperatura máxima	13.7
125863	7	Sololá	701	Sololá	4	Finca Santa Victoria	8	Agosto	2023-08-21T00:00:00	2024-11-08T06:00:00	3	Temperatura mínima	13.4
125864	7	Sololá	701	Sololá	4	Finca Santa Victoria	8	Agosto	2023-08-21T00:00:00	2024-11-08T06:00:00	5	Humedad	86
125865	7	Sololá	701	Sololá	4	Finca Santa Victoria	8	Agosto	2023-08-21T00:00:00	2024-11-08T06:00:00	6	Velocidad del viento	1.6
125866	7	Sololá	701	Sololá	4	Finca Santa Victoria	8	Agosto	2023-08-21T00:00:00	2024-11-08T06:00:00	7	Dirección del viento	1.61
125867	7	Sololá	701	Sololá	4	Finca Santa Victoria	8	Agosto	2023-08-21T00:00:00	2024-11-08T06:00:00	1	Precipitación	0
125868	7	Sololá	701	Sololá	4	Finca Santa Victoria	8	Agosto	2023-08-21T00:00:00	2024-11-08T06:00:00	8	Radiación solar	0
125869	7	Sololá	701	Sololá	4	Finca Santa Victoria	8	Agosto	2023-08-21T00:00:00	2024-11-08T07:00:00	2	Temperatura media	13.9
125870	7	Sololá	701	Sololá	4	Finca Santa Victoria	8	Agosto	2023-08-21T00:00:00	2024-11-08T07:00:00	4	Temperatura máxima	13.9
125871	7	Sololá	701	Sololá	4	Finca Santa Victoria	8	Agosto	2023-08-21T00:00:00	2024-11-08T07:00:00	3	Temperatura mínima	13.7
125872	7	Sololá	701	Sololá	4	Finca Santa Victoria	8	Agosto	2023-08-21T00:00:00	2024-11-08T07:00:00	5	Humedad	87
125873	7	Sololá	701	Sololá	4	Finca Santa Victoria	8	Agosto	2023-08-21T00:00:00	2024-11-08T07:00:00	6	Velocidad del viento	1.6
125874	7	Sololá	701	Sololá	4	Finca Santa Victoria	8	Agosto	2023-08-21T00:00:00	2024-11-08T07:00:00	7	Dirección del viento	1.61
125875	7	Sololá	701	Sololá	4	Finca Santa Victoria	8	Agosto	2023-08-21T00:00:00	2024-11-08T07:00:00	1	Precipitación	0
125876	7	Sololá	701	Sololá	4	Finca Santa Victoria	8	Agosto	2023-08-21T00:00:00	2024-11-08T07:00:00	8	Radiación solar	22
125877	7	Sololá	701	Sololá	4	Finca Santa Victoria	8	Agosto	2023-08-21T00:00:00	2024-11-08T08:00:00	2	Temperatura media	15.7
125878	7	Sololá	701	Sololá	4	Finca Santa Victoria	8	Agosto	2023-08-21T00:00:00	2024-11-08T08:00:00	4	Temperatura máxima	15.7
125879	7	Sololá	701	Sololá	4	Finca Santa Victoria	8	Agosto	2023-08-21T00:00:00	2024-11-08T08:00:00	3	Temperatura mínima	13.9
125880	7	Sololá	701	Sololá	4	Finca Santa Victoria	8	Agosto	2023-08-21T00:00:00	2024-11-08T08:00:00	5	Humedad	80
125881	7	Sololá	701	Sololá	4	Finca Santa Victoria	8	Agosto	2023-08-21T00:00:00	2024-11-08T08:00:00	6	Velocidad del viento	1.6
125882	7	Sololá	701	Sololá	4	Finca Santa Victoria	8	Agosto	2023-08-21T00:00:00	2024-11-08T08:00:00	7	Dirección del viento	1.61
125883	7	Sololá	701	Sololá	4	Finca Santa Victoria	8	Agosto	2023-08-21T00:00:00	2024-11-08T08:00:00	1	Precipitación	0
125884	7	Sololá	701	Sololá	4	Finca Santa Victoria	8	Agosto	2023-08-21T00:00:00	2024-11-08T08:00:00	8	Radiación solar	107
125885	7	Sololá	701	Sololá	4	Finca Santa Victoria	8	Agosto	2023-08-21T00:00:00	2024-11-08T09:00:00	2	Temperatura media	16.3
125886	7	Sololá	701	Sololá	4	Finca Santa Victoria	8	Agosto	2023-08-21T00:00:00	2024-11-08T09:00:00	4	Temperatura máxima	16.5
125887	7	Sololá	701	Sololá	4	Finca Santa Victoria	8	Agosto	2023-08-21T00:00:00	2024-11-08T09:00:00	3	Temperatura mínima	15.7
125888	7	Sololá	701	Sololá	4	Finca Santa Victoria	8	Agosto	2023-08-21T00:00:00	2024-11-08T09:00:00	5	Humedad	81
125889	7	Sololá	701	Sololá	4	Finca Santa Victoria	8	Agosto	2023-08-21T00:00:00	2024-11-08T09:00:00	6	Velocidad del viento	1.6
125890	7	Sololá	701	Sololá	4	Finca Santa Victoria	8	Agosto	2023-08-21T00:00:00	2024-11-08T09:00:00	7	Dirección del viento	1.61
125891	7	Sololá	701	Sololá	4	Finca Santa Victoria	8	Agosto	2023-08-21T00:00:00	2024-11-08T09:00:00	1	Precipitación	0
125892	7	Sololá	701	Sololá	4	Finca Santa Victoria	8	Agosto	2023-08-21T00:00:00	2024-11-08T09:00:00	8	Radiación solar	220
125893	7	Sololá	701	Sololá	4	Finca Santa Victoria	8	Agosto	2023-08-21T00:00:00	2024-11-08T10:00:00	2	Temperatura media	19.3
125894	7	Sololá	701	Sololá	4	Finca Santa Victoria	8	Agosto	2023-08-21T00:00:00	2024-11-08T10:00:00	4	Temperatura máxima	19.3
125895	7	Sololá	701	Sololá	4	Finca Santa Victoria	8	Agosto	2023-08-21T00:00:00	2024-11-08T10:00:00	3	Temperatura mínima	16.3
125896	7	Sololá	701	Sololá	4	Finca Santa Victoria	8	Agosto	2023-08-21T00:00:00	2024-11-08T10:00:00	5	Humedad	76
125897	7	Sololá	701	Sololá	4	Finca Santa Victoria	8	Agosto	2023-08-21T00:00:00	2024-11-08T10:00:00	6	Velocidad del viento	1.6
125898	7	Sololá	701	Sololá	4	Finca Santa Victoria	8	Agosto	2023-08-21T00:00:00	2024-11-08T10:00:00	7	Dirección del viento	1.61
125899	7	Sololá	701	Sololá	4	Finca Santa Victoria	8	Agosto	2023-08-21T00:00:00	2024-11-08T10:00:00	1	Precipitación	0
125900	7	Sololá	701	Sololá	4	Finca Santa Victoria	8	Agosto	2023-08-21T00:00:00	2024-11-08T10:00:00	8	Radiación solar	254
125901	7	Sololá	701	Sololá	4	Finca Santa Victoria	8	Agosto	2023-08-21T00:00:00	2024-11-08T11:00:00	2	Temperatura media	21.2
125902	7	Sololá	701	Sololá	4	Finca Santa Victoria	8	Agosto	2023-08-21T00:00:00	2024-11-08T11:00:00	4	Temperatura máxima	21.2
125903	7	Sololá	701	Sololá	4	Finca Santa Victoria	8	Agosto	2023-08-21T00:00:00	2024-11-08T11:00:00	3	Temperatura mínima	19.3
125904	7	Sololá	701	Sololá	4	Finca Santa Victoria	8	Agosto	2023-08-21T00:00:00	2024-11-08T11:00:00	5	Humedad	62
125905	7	Sololá	701	Sololá	4	Finca Santa Victoria	8	Agosto	2023-08-21T00:00:00	2024-11-08T11:00:00	6	Velocidad del viento	1.6
125906	7	Sololá	701	Sololá	4	Finca Santa Victoria	8	Agosto	2023-08-21T00:00:00	2024-11-08T11:00:00	7	Dirección del viento	1.61
125907	7	Sololá	701	Sololá	4	Finca Santa Victoria	8	Agosto	2023-08-21T00:00:00	2024-11-08T11:00:00	1	Precipitación	0
125908	7	Sololá	701	Sololá	4	Finca Santa Victoria	8	Agosto	2023-08-21T00:00:00	2024-11-08T11:00:00	8	Radiación solar	453
125909	7	Sololá	701	Sololá	4	Finca Santa Victoria	8	Agosto	2023-08-21T00:00:00	2024-11-08T12:00:00	2	Temperatura media	21.5
125910	7	Sololá	701	Sololá	4	Finca Santa Victoria	8	Agosto	2023-08-21T00:00:00	2024-11-08T12:00:00	4	Temperatura máxima	22.1
125911	7	Sololá	701	Sololá	4	Finca Santa Victoria	8	Agosto	2023-08-21T00:00:00	2024-11-08T12:00:00	3	Temperatura mínima	20.8
125912	7	Sololá	701	Sololá	4	Finca Santa Victoria	8	Agosto	2023-08-21T00:00:00	2024-11-08T12:00:00	5	Humedad	62
125913	7	Sololá	701	Sololá	4	Finca Santa Victoria	8	Agosto	2023-08-21T00:00:00	2024-11-08T12:00:00	6	Velocidad del viento	1.6
125914	7	Sololá	701	Sololá	4	Finca Santa Victoria	8	Agosto	2023-08-21T00:00:00	2024-11-08T12:00:00	7	Dirección del viento	1.61
125915	7	Sololá	701	Sololá	4	Finca Santa Victoria	8	Agosto	2023-08-21T00:00:00	2024-11-08T12:00:00	1	Precipitación	0
125916	7	Sololá	701	Sololá	4	Finca Santa Victoria	8	Agosto	2023-08-21T00:00:00	2024-11-08T12:00:00	8	Radiación solar	412
125917	7	Sololá	701	Sololá	4	Finca Santa Victoria	8	Agosto	2023-08-21T00:00:00	2024-11-08T13:00:00	2	Temperatura media	19.2
125918	7	Sololá	701	Sololá	4	Finca Santa Victoria	8	Agosto	2023-08-21T00:00:00	2024-11-08T13:00:00	4	Temperatura máxima	21.5
125919	7	Sololá	701	Sololá	4	Finca Santa Victoria	8	Agosto	2023-08-21T00:00:00	2024-11-08T13:00:00	3	Temperatura mínima	19.2
125920	7	Sololá	701	Sololá	4	Finca Santa Victoria	8	Agosto	2023-08-21T00:00:00	2024-11-08T13:00:00	5	Humedad	85
125921	7	Sololá	701	Sololá	4	Finca Santa Victoria	8	Agosto	2023-08-21T00:00:00	2024-11-08T13:00:00	6	Velocidad del viento	1.6
125922	7	Sololá	701	Sololá	4	Finca Santa Victoria	8	Agosto	2023-08-21T00:00:00	2024-11-08T13:00:00	7	Dirección del viento	1.61
125923	7	Sololá	701	Sololá	4	Finca Santa Victoria	8	Agosto	2023-08-21T00:00:00	2024-11-08T13:00:00	1	Precipitación	0
125924	7	Sololá	701	Sololá	4	Finca Santa Victoria	8	Agosto	2023-08-21T00:00:00	2024-11-08T13:00:00	8	Radiación solar	233
125925	7	Sololá	701	Sololá	4	Finca Santa Victoria	8	Agosto	2023-08-21T00:00:00	2024-11-08T14:00:00	2	Temperatura media	19.9
125926	7	Sololá	701	Sololá	4	Finca Santa Victoria	8	Agosto	2023-08-21T00:00:00	2024-11-08T14:00:00	4	Temperatura máxima	19.9
125927	7	Sololá	701	Sololá	4	Finca Santa Victoria	8	Agosto	2023-08-21T00:00:00	2024-11-08T14:00:00	3	Temperatura mínima	18
125928	7	Sololá	701	Sololá	4	Finca Santa Victoria	8	Agosto	2023-08-21T00:00:00	2024-11-08T14:00:00	5	Humedad	85
125929	7	Sololá	701	Sololá	4	Finca Santa Victoria	8	Agosto	2023-08-21T00:00:00	2024-11-08T14:00:00	6	Velocidad del viento	3.2
125930	7	Sololá	701	Sololá	4	Finca Santa Victoria	8	Agosto	2023-08-21T00:00:00	2024-11-08T14:00:00	7	Dirección del viento	3.22
125931	7	Sololá	701	Sololá	4	Finca Santa Victoria	8	Agosto	2023-08-21T00:00:00	2024-11-08T14:00:00	1	Precipitación	0
125932	7	Sololá	701	Sololá	4	Finca Santa Victoria	8	Agosto	2023-08-21T00:00:00	2024-11-08T14:00:00	8	Radiación solar	163
125933	7	Sololá	701	Sololá	4	Finca Santa Victoria	8	Agosto	2023-08-21T00:00:00	2024-11-08T15:00:00	2	Temperatura media	17.9
125934	7	Sololá	701	Sololá	4	Finca Santa Victoria	8	Agosto	2023-08-21T00:00:00	2024-11-08T15:00:00	4	Temperatura máxima	20.1
125935	7	Sololá	701	Sololá	4	Finca Santa Victoria	8	Agosto	2023-08-21T00:00:00	2024-11-08T15:00:00	3	Temperatura mínima	17.9
125936	7	Sololá	701	Sololá	4	Finca Santa Victoria	8	Agosto	2023-08-21T00:00:00	2024-11-08T15:00:00	5	Humedad	90
125937	7	Sololá	701	Sololá	4	Finca Santa Victoria	8	Agosto	2023-08-21T00:00:00	2024-11-08T15:00:00	6	Velocidad del viento	3.2
125938	7	Sololá	701	Sololá	4	Finca Santa Victoria	8	Agosto	2023-08-21T00:00:00	2024-11-08T15:00:00	7	Dirección del viento	3.22
125939	7	Sololá	701	Sololá	4	Finca Santa Victoria	8	Agosto	2023-08-21T00:00:00	2024-11-08T15:00:00	1	Precipitación	0
125940	7	Sololá	701	Sololá	4	Finca Santa Victoria	8	Agosto	2023-08-21T00:00:00	2024-11-08T15:00:00	8	Radiación solar	187
125941	7	Sololá	701	Sololá	4	Finca Santa Victoria	8	Agosto	2023-08-21T00:00:00	2024-11-08T16:00:00	2	Temperatura media	16.5
125942	7	Sololá	701	Sololá	4	Finca Santa Victoria	8	Agosto	2023-08-21T00:00:00	2024-11-08T16:00:00	4	Temperatura máxima	17.9
125943	7	Sololá	701	Sololá	4	Finca Santa Victoria	8	Agosto	2023-08-21T00:00:00	2024-11-08T16:00:00	3	Temperatura mínima	16.5
125944	7	Sololá	701	Sololá	4	Finca Santa Victoria	8	Agosto	2023-08-21T00:00:00	2024-11-08T16:00:00	5	Humedad	94
125945	7	Sololá	701	Sololá	4	Finca Santa Victoria	8	Agosto	2023-08-21T00:00:00	2024-11-08T16:00:00	6	Velocidad del viento	3.2
125946	7	Sololá	701	Sololá	4	Finca Santa Victoria	8	Agosto	2023-08-21T00:00:00	2024-11-08T16:00:00	7	Dirección del viento	3.22
125947	7	Sololá	701	Sololá	4	Finca Santa Victoria	8	Agosto	2023-08-21T00:00:00	2024-11-08T16:00:00	1	Precipitación	0
125948	7	Sololá	701	Sololá	4	Finca Santa Victoria	8	Agosto	2023-08-21T00:00:00	2024-11-08T16:00:00	8	Radiación solar	33
125949	7	Sololá	701	Sololá	4	Finca Santa Victoria	8	Agosto	2023-08-21T00:00:00	2024-11-08T17:00:00	2	Temperatura media	15.8
125950	7	Sololá	701	Sololá	4	Finca Santa Victoria	8	Agosto	2023-08-21T00:00:00	2024-11-08T17:00:00	4	Temperatura máxima	16.5
125951	7	Sololá	701	Sololá	4	Finca Santa Victoria	8	Agosto	2023-08-21T00:00:00	2024-11-08T17:00:00	3	Temperatura mínima	15.8
125952	7	Sololá	701	Sololá	4	Finca Santa Victoria	8	Agosto	2023-08-21T00:00:00	2024-11-08T17:00:00	5	Humedad	96
125953	7	Sololá	701	Sololá	4	Finca Santa Victoria	8	Agosto	2023-08-21T00:00:00	2024-11-08T17:00:00	6	Velocidad del viento	1.6
125954	7	Sololá	701	Sololá	4	Finca Santa Victoria	8	Agosto	2023-08-21T00:00:00	2024-11-08T17:00:00	7	Dirección del viento	1.61
125955	7	Sololá	701	Sololá	4	Finca Santa Victoria	8	Agosto	2023-08-21T00:00:00	2024-11-08T17:00:00	1	Precipitación	4.6
125956	7	Sololá	701	Sololá	4	Finca Santa Victoria	8	Agosto	2023-08-21T00:00:00	2024-11-08T17:00:00	8	Radiación solar	11
125957	7	Sololá	701	Sololá	4	Finca Santa Victoria	8	Agosto	2023-08-21T00:00:00	2024-11-08T18:00:00	2	Temperatura media	15.4
125958	7	Sololá	701	Sololá	4	Finca Santa Victoria	8	Agosto	2023-08-21T00:00:00	2024-11-08T18:00:00	4	Temperatura máxima	15.8
125959	7	Sololá	701	Sololá	4	Finca Santa Victoria	8	Agosto	2023-08-21T00:00:00	2024-11-08T18:00:00	3	Temperatura mínima	15.3
125960	7	Sololá	701	Sololá	4	Finca Santa Victoria	8	Agosto	2023-08-21T00:00:00	2024-11-08T18:00:00	5	Humedad	97
125961	7	Sololá	701	Sololá	4	Finca Santa Victoria	8	Agosto	2023-08-21T00:00:00	2024-11-08T18:00:00	6	Velocidad del viento	0
125962	7	Sololá	701	Sololá	4	Finca Santa Victoria	8	Agosto	2023-08-21T00:00:00	2024-11-08T18:00:00	7	Dirección del viento	0
125963	7	Sololá	701	Sololá	4	Finca Santa Victoria	8	Agosto	2023-08-21T00:00:00	2024-11-08T18:00:00	1	Precipitación	0
125964	7	Sololá	701	Sololá	4	Finca Santa Victoria	8	Agosto	2023-08-21T00:00:00	2024-11-08T18:00:00	8	Radiación solar	7
125965	7	Sololá	701	Sololá	4	Finca Santa Victoria	8	Agosto	2023-08-21T00:00:00	2024-11-08T19:00:00	2	Temperatura media	14.7
125966	7	Sololá	701	Sololá	4	Finca Santa Victoria	8	Agosto	2023-08-21T00:00:00	2024-11-08T19:00:00	4	Temperatura máxima	15.4
125967	7	Sololá	701	Sololá	4	Finca Santa Victoria	8	Agosto	2023-08-21T00:00:00	2024-11-08T19:00:00	3	Temperatura mínima	14.7
125968	7	Sololá	701	Sololá	4	Finca Santa Victoria	8	Agosto	2023-08-21T00:00:00	2024-11-08T19:00:00	5	Humedad	94
125969	7	Sololá	701	Sololá	4	Finca Santa Victoria	8	Agosto	2023-08-21T00:00:00	2024-11-08T19:00:00	6	Velocidad del viento	1.6
125970	7	Sololá	701	Sololá	4	Finca Santa Victoria	8	Agosto	2023-08-21T00:00:00	2024-11-08T19:00:00	7	Dirección del viento	1.61
125971	7	Sololá	701	Sololá	4	Finca Santa Victoria	8	Agosto	2023-08-21T00:00:00	2024-11-08T19:00:00	1	Precipitación	0
125972	7	Sololá	701	Sololá	4	Finca Santa Victoria	8	Agosto	2023-08-21T00:00:00	2024-11-08T19:00:00	8	Radiación solar	0
125973	7	Sololá	701	Sololá	4	Finca Santa Victoria	8	Agosto	2023-08-21T00:00:00	2024-11-08T20:00:00	2	Temperatura media	14.5
125974	7	Sololá	701	Sololá	4	Finca Santa Victoria	8	Agosto	2023-08-21T00:00:00	2024-11-08T20:00:00	4	Temperatura máxima	14.7
125975	7	Sololá	701	Sololá	4	Finca Santa Victoria	8	Agosto	2023-08-21T00:00:00	2024-11-08T20:00:00	3	Temperatura mínima	14.4
125976	7	Sololá	701	Sololá	4	Finca Santa Victoria	8	Agosto	2023-08-21T00:00:00	2024-11-08T20:00:00	5	Humedad	94
125977	7	Sololá	701	Sololá	4	Finca Santa Victoria	8	Agosto	2023-08-21T00:00:00	2024-11-08T20:00:00	6	Velocidad del viento	1.6
125978	7	Sololá	701	Sololá	4	Finca Santa Victoria	8	Agosto	2023-08-21T00:00:00	2024-11-08T20:00:00	7	Dirección del viento	1.61
125979	7	Sololá	701	Sololá	4	Finca Santa Victoria	8	Agosto	2023-08-21T00:00:00	2024-11-08T20:00:00	1	Precipitación	0
125980	7	Sololá	701	Sololá	4	Finca Santa Victoria	8	Agosto	2023-08-21T00:00:00	2024-11-08T20:00:00	8	Radiación solar	0
125981	7	Sololá	701	Sololá	4	Finca Santa Victoria	8	Agosto	2023-08-21T00:00:00	2024-11-08T21:00:00	2	Temperatura media	14.6
125982	7	Sololá	701	Sololá	4	Finca Santa Victoria	8	Agosto	2023-08-21T00:00:00	2024-11-08T21:00:00	4	Temperatura máxima	14.7
125983	7	Sololá	701	Sololá	4	Finca Santa Victoria	8	Agosto	2023-08-21T00:00:00	2024-11-08T21:00:00	3	Temperatura mínima	14.4
125984	7	Sololá	701	Sololá	4	Finca Santa Victoria	8	Agosto	2023-08-21T00:00:00	2024-11-08T21:00:00	5	Humedad	92
125985	7	Sololá	701	Sololá	4	Finca Santa Victoria	8	Agosto	2023-08-21T00:00:00	2024-11-08T21:00:00	6	Velocidad del viento	1.6
125986	7	Sololá	701	Sololá	4	Finca Santa Victoria	8	Agosto	2023-08-21T00:00:00	2024-11-08T21:00:00	7	Dirección del viento	1.61
125987	7	Sololá	701	Sololá	4	Finca Santa Victoria	8	Agosto	2023-08-21T00:00:00	2024-11-08T21:00:00	1	Precipitación	0
125988	7	Sololá	701	Sololá	4	Finca Santa Victoria	8	Agosto	2023-08-21T00:00:00	2024-11-08T21:00:00	8	Radiación solar	0
125989	7	Sololá	701	Sololá	4	Finca Santa Victoria	8	Agosto	2023-08-21T00:00:00	2024-11-08T22:00:00	2	Temperatura media	14.4
125990	7	Sololá	701	Sololá	4	Finca Santa Victoria	8	Agosto	2023-08-21T00:00:00	2024-11-08T22:00:00	4	Temperatura máxima	14.7
125991	7	Sololá	701	Sololá	4	Finca Santa Victoria	8	Agosto	2023-08-21T00:00:00	2024-11-08T22:00:00	3	Temperatura mínima	14.4
125992	7	Sololá	701	Sololá	4	Finca Santa Victoria	8	Agosto	2023-08-21T00:00:00	2024-11-08T22:00:00	5	Humedad	91
125993	7	Sololá	701	Sololá	4	Finca Santa Victoria	8	Agosto	2023-08-21T00:00:00	2024-11-08T22:00:00	6	Velocidad del viento	1.6
125994	7	Sololá	701	Sololá	4	Finca Santa Victoria	8	Agosto	2023-08-21T00:00:00	2024-11-08T22:00:00	7	Dirección del viento	1.61
125995	7	Sololá	701	Sololá	4	Finca Santa Victoria	8	Agosto	2023-08-21T00:00:00	2024-11-08T22:00:00	1	Precipitación	0
125996	7	Sololá	701	Sololá	4	Finca Santa Victoria	8	Agosto	2023-08-21T00:00:00	2024-11-08T22:00:00	8	Radiación solar	0
125997	7	Sololá	701	Sololá	4	Finca Santa Victoria	8	Agosto	2023-08-21T00:00:00	2024-11-08T23:00:00	2	Temperatura media	14.7
125998	7	Sololá	701	Sololá	4	Finca Santa Victoria	8	Agosto	2023-08-21T00:00:00	2024-11-08T23:00:00	4	Temperatura máxima	14.8
125999	7	Sololá	701	Sololá	4	Finca Santa Victoria	8	Agosto	2023-08-21T00:00:00	2024-11-08T23:00:00	3	Temperatura mínima	14.2
126000	7	Sololá	701	Sololá	4	Finca Santa Victoria	8	Agosto	2023-08-21T00:00:00	2024-11-08T23:00:00	5	Humedad	88
126001	7	Sololá	701	Sololá	4	Finca Santa Victoria	8	Agosto	2023-08-21T00:00:00	2024-11-08T23:00:00	6	Velocidad del viento	1.6
126002	7	Sololá	701	Sololá	4	Finca Santa Victoria	8	Agosto	2023-08-21T00:00:00	2024-11-08T23:00:00	7	Dirección del viento	1.61
126003	7	Sololá	701	Sololá	4	Finca Santa Victoria	8	Agosto	2023-08-21T00:00:00	2024-11-08T23:00:00	1	Precipitación	0
126004	7	Sololá	701	Sololá	4	Finca Santa Victoria	8	Agosto	2023-08-21T00:00:00	2024-11-08T23:00:00	8	Radiación solar	0
126005	7	Sololá	701	Sololá	4	Finca Santa Victoria	8	Agosto	2023-08-22T00:00:00	2024-11-08T00:00:00	2	Temperatura media	14.7
126006	7	Sololá	701	Sololá	4	Finca Santa Victoria	8	Agosto	2023-08-22T00:00:00	2024-11-08T00:00:00	4	Temperatura máxima	14.7
126007	7	Sololá	701	Sololá	4	Finca Santa Victoria	8	Agosto	2023-08-22T00:00:00	2024-11-08T00:00:00	3	Temperatura mínima	14.6
126008	7	Sololá	701	Sololá	4	Finca Santa Victoria	8	Agosto	2023-08-22T00:00:00	2024-11-08T00:00:00	5	Humedad	87
126009	7	Sololá	701	Sololá	4	Finca Santa Victoria	8	Agosto	2023-08-22T00:00:00	2024-11-08T00:00:00	6	Velocidad del viento	1.6
126010	7	Sololá	701	Sololá	4	Finca Santa Victoria	8	Agosto	2023-08-22T00:00:00	2024-11-08T00:00:00	7	Dirección del viento	1.61
126011	7	Sololá	701	Sololá	4	Finca Santa Victoria	8	Agosto	2023-08-22T00:00:00	2024-11-08T00:00:00	1	Precipitación	0
126012	7	Sololá	701	Sololá	4	Finca Santa Victoria	8	Agosto	2023-08-22T00:00:00	2024-11-08T00:00:00	8	Radiación solar	0
126013	7	Sololá	701	Sololá	4	Finca Santa Victoria	8	Agosto	2023-08-22T00:00:00	2024-11-08T01:00:00	2	Temperatura media	14.6
126014	7	Sololá	701	Sololá	4	Finca Santa Victoria	8	Agosto	2023-08-22T00:00:00	2024-11-08T01:00:00	4	Temperatura máxima	14.7
126015	7	Sololá	701	Sololá	4	Finca Santa Victoria	8	Agosto	2023-08-22T00:00:00	2024-11-08T01:00:00	3	Temperatura mínima	14.4
126016	7	Sololá	701	Sololá	4	Finca Santa Victoria	8	Agosto	2023-08-22T00:00:00	2024-11-08T01:00:00	5	Humedad	87
126017	7	Sololá	701	Sololá	4	Finca Santa Victoria	8	Agosto	2023-08-22T00:00:00	2024-11-08T01:00:00	6	Velocidad del viento	3.2
126018	7	Sololá	701	Sololá	4	Finca Santa Victoria	8	Agosto	2023-08-22T00:00:00	2024-11-08T01:00:00	7	Dirección del viento	3.22
126019	7	Sololá	701	Sololá	4	Finca Santa Victoria	8	Agosto	2023-08-22T00:00:00	2024-11-08T01:00:00	1	Precipitación	0
126020	7	Sololá	701	Sololá	4	Finca Santa Victoria	8	Agosto	2023-08-22T00:00:00	2024-11-08T01:00:00	8	Radiación solar	0
126021	7	Sololá	701	Sololá	4	Finca Santa Victoria	8	Agosto	2023-08-22T00:00:00	2024-11-08T02:00:00	2	Temperatura media	14
126022	7	Sololá	701	Sololá	4	Finca Santa Victoria	8	Agosto	2023-08-22T00:00:00	2024-11-08T02:00:00	4	Temperatura máxima	14.6
126023	7	Sololá	701	Sololá	4	Finca Santa Victoria	8	Agosto	2023-08-22T00:00:00	2024-11-08T02:00:00	3	Temperatura mínima	14
126024	7	Sololá	701	Sololá	4	Finca Santa Victoria	8	Agosto	2023-08-22T00:00:00	2024-11-08T02:00:00	5	Humedad	88
126025	7	Sololá	701	Sololá	4	Finca Santa Victoria	8	Agosto	2023-08-22T00:00:00	2024-11-08T02:00:00	6	Velocidad del viento	3.2
126026	7	Sololá	701	Sololá	4	Finca Santa Victoria	8	Agosto	2023-08-22T00:00:00	2024-11-08T02:00:00	7	Dirección del viento	3.22
126027	7	Sololá	701	Sololá	4	Finca Santa Victoria	8	Agosto	2023-08-22T00:00:00	2024-11-08T02:00:00	1	Precipitación	0
126028	7	Sololá	701	Sololá	4	Finca Santa Victoria	8	Agosto	2023-08-22T00:00:00	2024-11-08T02:00:00	8	Radiación solar	0
126029	7	Sololá	701	Sololá	4	Finca Santa Victoria	8	Agosto	2023-08-22T00:00:00	2024-11-08T03:00:00	2	Temperatura media	13.9
126030	7	Sololá	701	Sololá	4	Finca Santa Victoria	8	Agosto	2023-08-22T00:00:00	2024-11-08T03:00:00	4	Temperatura máxima	14.1
126031	7	Sololá	701	Sololá	4	Finca Santa Victoria	8	Agosto	2023-08-22T00:00:00	2024-11-08T03:00:00	3	Temperatura mínima	13.9
126032	7	Sololá	701	Sololá	4	Finca Santa Victoria	8	Agosto	2023-08-22T00:00:00	2024-11-08T03:00:00	5	Humedad	87
126033	7	Sololá	701	Sololá	4	Finca Santa Victoria	8	Agosto	2023-08-22T00:00:00	2024-11-08T03:00:00	6	Velocidad del viento	3.2
126034	7	Sololá	701	Sololá	4	Finca Santa Victoria	8	Agosto	2023-08-22T00:00:00	2024-11-08T03:00:00	7	Dirección del viento	3.22
126035	7	Sololá	701	Sololá	4	Finca Santa Victoria	8	Agosto	2023-08-22T00:00:00	2024-11-08T03:00:00	1	Precipitación	0
126036	7	Sololá	701	Sololá	4	Finca Santa Victoria	8	Agosto	2023-08-22T00:00:00	2024-11-08T03:00:00	8	Radiación solar	0
126037	7	Sololá	701	Sololá	4	Finca Santa Victoria	8	Agosto	2023-08-22T00:00:00	2024-11-08T04:00:00	2	Temperatura media	13.3
126038	7	Sololá	701	Sololá	4	Finca Santa Victoria	8	Agosto	2023-08-22T00:00:00	2024-11-08T04:00:00	4	Temperatura máxima	13.9
126039	7	Sololá	701	Sololá	4	Finca Santa Victoria	8	Agosto	2023-08-22T00:00:00	2024-11-08T04:00:00	3	Temperatura mínima	13.3
126040	7	Sololá	701	Sololá	4	Finca Santa Victoria	8	Agosto	2023-08-22T00:00:00	2024-11-08T04:00:00	5	Humedad	88
126041	7	Sololá	701	Sololá	4	Finca Santa Victoria	8	Agosto	2023-08-22T00:00:00	2024-11-08T04:00:00	6	Velocidad del viento	1.6
126042	7	Sololá	701	Sololá	4	Finca Santa Victoria	8	Agosto	2023-08-22T00:00:00	2024-11-08T04:00:00	7	Dirección del viento	1.61
126043	7	Sololá	701	Sololá	4	Finca Santa Victoria	8	Agosto	2023-08-22T00:00:00	2024-11-08T04:00:00	1	Precipitación	0
126044	7	Sololá	701	Sololá	4	Finca Santa Victoria	8	Agosto	2023-08-22T00:00:00	2024-11-08T04:00:00	8	Radiación solar	0
126045	7	Sololá	701	Sololá	4	Finca Santa Victoria	8	Agosto	2023-08-22T00:00:00	2024-11-08T05:00:00	2	Temperatura media	12.9
126046	7	Sololá	701	Sololá	4	Finca Santa Victoria	8	Agosto	2023-08-22T00:00:00	2024-11-08T05:00:00	4	Temperatura máxima	13.3
126047	7	Sololá	701	Sololá	4	Finca Santa Victoria	8	Agosto	2023-08-22T00:00:00	2024-11-08T05:00:00	3	Temperatura mínima	12.9
126048	7	Sololá	701	Sololá	4	Finca Santa Victoria	8	Agosto	2023-08-22T00:00:00	2024-11-08T05:00:00	5	Humedad	89
126049	7	Sololá	701	Sololá	4	Finca Santa Victoria	8	Agosto	2023-08-22T00:00:00	2024-11-08T05:00:00	6	Velocidad del viento	1.6
126050	7	Sololá	701	Sololá	4	Finca Santa Victoria	8	Agosto	2023-08-22T00:00:00	2024-11-08T05:00:00	7	Dirección del viento	1.61
126051	7	Sololá	701	Sololá	4	Finca Santa Victoria	8	Agosto	2023-08-22T00:00:00	2024-11-08T05:00:00	1	Precipitación	0
126052	7	Sololá	701	Sololá	4	Finca Santa Victoria	8	Agosto	2023-08-22T00:00:00	2024-11-08T05:00:00	8	Radiación solar	0
126053	7	Sololá	701	Sololá	4	Finca Santa Victoria	8	Agosto	2023-08-22T00:00:00	2024-11-08T06:00:00	2	Temperatura media	12.8
126054	7	Sololá	701	Sololá	4	Finca Santa Victoria	8	Agosto	2023-08-22T00:00:00	2024-11-08T06:00:00	4	Temperatura máxima	13.1
126055	7	Sololá	701	Sololá	4	Finca Santa Victoria	8	Agosto	2023-08-22T00:00:00	2024-11-08T06:00:00	3	Temperatura mínima	12.7
126056	7	Sololá	701	Sololá	4	Finca Santa Victoria	8	Agosto	2023-08-22T00:00:00	2024-11-08T06:00:00	5	Humedad	88
126057	7	Sololá	701	Sololá	4	Finca Santa Victoria	8	Agosto	2023-08-22T00:00:00	2024-11-08T06:00:00	6	Velocidad del viento	1.6
126058	7	Sololá	701	Sololá	4	Finca Santa Victoria	8	Agosto	2023-08-22T00:00:00	2024-11-08T06:00:00	7	Dirección del viento	1.61
126059	7	Sololá	701	Sololá	4	Finca Santa Victoria	8	Agosto	2023-08-22T00:00:00	2024-11-08T06:00:00	1	Precipitación	0
126060	7	Sololá	701	Sololá	4	Finca Santa Victoria	8	Agosto	2023-08-22T00:00:00	2024-11-08T06:00:00	8	Radiación solar	0
126061	7	Sololá	701	Sololá	4	Finca Santa Victoria	8	Agosto	2023-08-22T00:00:00	2024-11-08T07:00:00	2	Temperatura media	13.4
126062	7	Sololá	701	Sololá	4	Finca Santa Victoria	8	Agosto	2023-08-22T00:00:00	2024-11-08T07:00:00	4	Temperatura máxima	13.4
126063	7	Sololá	701	Sololá	4	Finca Santa Victoria	8	Agosto	2023-08-22T00:00:00	2024-11-08T07:00:00	3	Temperatura mínima	12.7
126064	7	Sololá	701	Sololá	4	Finca Santa Victoria	8	Agosto	2023-08-22T00:00:00	2024-11-08T07:00:00	5	Humedad	87
126065	7	Sololá	701	Sololá	4	Finca Santa Victoria	8	Agosto	2023-08-22T00:00:00	2024-11-08T07:00:00	6	Velocidad del viento	1.6
126066	7	Sololá	701	Sololá	4	Finca Santa Victoria	8	Agosto	2023-08-22T00:00:00	2024-11-08T07:00:00	7	Dirección del viento	1.61
126067	7	Sololá	701	Sololá	4	Finca Santa Victoria	8	Agosto	2023-08-22T00:00:00	2024-11-08T07:00:00	1	Precipitación	0
126068	7	Sololá	701	Sololá	4	Finca Santa Victoria	8	Agosto	2023-08-22T00:00:00	2024-11-08T07:00:00	8	Radiación solar	35
126069	7	Sololá	701	Sololá	4	Finca Santa Victoria	8	Agosto	2023-08-22T00:00:00	2024-11-08T08:00:00	2	Temperatura media	16.6
126070	7	Sololá	701	Sololá	4	Finca Santa Victoria	8	Agosto	2023-08-22T00:00:00	2024-11-08T08:00:00	4	Temperatura máxima	16.6
126071	7	Sololá	701	Sololá	4	Finca Santa Victoria	8	Agosto	2023-08-22T00:00:00	2024-11-08T08:00:00	3	Temperatura mínima	13.4
126072	7	Sololá	701	Sololá	4	Finca Santa Victoria	8	Agosto	2023-08-22T00:00:00	2024-11-08T08:00:00	5	Humedad	79
126073	7	Sololá	701	Sololá	4	Finca Santa Victoria	8	Agosto	2023-08-22T00:00:00	2024-11-08T08:00:00	6	Velocidad del viento	1.6
126074	7	Sololá	701	Sololá	4	Finca Santa Victoria	8	Agosto	2023-08-22T00:00:00	2024-11-08T08:00:00	7	Dirección del viento	1.61
126075	7	Sololá	701	Sololá	4	Finca Santa Victoria	8	Agosto	2023-08-22T00:00:00	2024-11-08T08:00:00	1	Precipitación	0
126076	7	Sololá	701	Sololá	4	Finca Santa Victoria	8	Agosto	2023-08-22T00:00:00	2024-11-08T08:00:00	8	Radiación solar	233
126077	7	Sololá	701	Sololá	4	Finca Santa Victoria	8	Agosto	2023-08-22T00:00:00	2024-11-08T09:00:00	2	Temperatura media	18.3
126078	7	Sololá	701	Sololá	4	Finca Santa Victoria	8	Agosto	2023-08-22T00:00:00	2024-11-08T09:00:00	4	Temperatura máxima	18.4
126079	7	Sololá	701	Sololá	4	Finca Santa Victoria	8	Agosto	2023-08-22T00:00:00	2024-11-08T09:00:00	3	Temperatura mínima	16.6
126080	7	Sololá	701	Sololá	4	Finca Santa Victoria	8	Agosto	2023-08-22T00:00:00	2024-11-08T09:00:00	5	Humedad	76
126081	7	Sololá	701	Sololá	4	Finca Santa Victoria	8	Agosto	2023-08-22T00:00:00	2024-11-08T09:00:00	6	Velocidad del viento	1.6
126082	7	Sololá	701	Sololá	4	Finca Santa Victoria	8	Agosto	2023-08-22T00:00:00	2024-11-08T09:00:00	7	Dirección del viento	1.61
126083	7	Sololá	701	Sololá	4	Finca Santa Victoria	8	Agosto	2023-08-22T00:00:00	2024-11-08T09:00:00	1	Precipitación	0
126084	7	Sololá	701	Sololá	4	Finca Santa Victoria	8	Agosto	2023-08-22T00:00:00	2024-11-08T09:00:00	8	Radiación solar	374
126085	7	Sololá	701	Sololá	4	Finca Santa Victoria	8	Agosto	2023-08-22T00:00:00	2024-11-08T10:00:00	2	Temperatura media	20.5
126086	7	Sololá	701	Sololá	4	Finca Santa Victoria	8	Agosto	2023-08-22T00:00:00	2024-11-08T10:00:00	4	Temperatura máxima	20.5
126087	7	Sololá	701	Sololá	4	Finca Santa Victoria	8	Agosto	2023-08-22T00:00:00	2024-11-08T10:00:00	3	Temperatura mínima	18.3
126088	7	Sololá	701	Sololá	4	Finca Santa Victoria	8	Agosto	2023-08-22T00:00:00	2024-11-08T10:00:00	5	Humedad	62
126089	7	Sololá	701	Sololá	4	Finca Santa Victoria	8	Agosto	2023-08-22T00:00:00	2024-11-08T10:00:00	6	Velocidad del viento	4.8
126090	7	Sololá	701	Sololá	4	Finca Santa Victoria	8	Agosto	2023-08-22T00:00:00	2024-11-08T10:00:00	7	Dirección del viento	4.83
126091	7	Sololá	701	Sololá	4	Finca Santa Victoria	8	Agosto	2023-08-22T00:00:00	2024-11-08T10:00:00	1	Precipitación	0
126092	7	Sololá	701	Sololá	4	Finca Santa Victoria	8	Agosto	2023-08-22T00:00:00	2024-11-08T10:00:00	8	Radiación solar	175
126093	7	Sololá	701	Sololá	4	Finca Santa Victoria	8	Agosto	2023-08-22T00:00:00	2024-11-08T11:00:00	2	Temperatura media	21.2
126094	7	Sololá	701	Sololá	4	Finca Santa Victoria	8	Agosto	2023-08-22T00:00:00	2024-11-08T11:00:00	4	Temperatura máxima	21.8
126095	7	Sololá	701	Sololá	4	Finca Santa Victoria	8	Agosto	2023-08-22T00:00:00	2024-11-08T11:00:00	3	Temperatura mínima	20.5
126096	7	Sololá	701	Sololá	4	Finca Santa Victoria	8	Agosto	2023-08-22T00:00:00	2024-11-08T11:00:00	5	Humedad	68
126097	7	Sololá	701	Sololá	4	Finca Santa Victoria	8	Agosto	2023-08-22T00:00:00	2024-11-08T11:00:00	6	Velocidad del viento	3.2
126098	7	Sololá	701	Sololá	4	Finca Santa Victoria	8	Agosto	2023-08-22T00:00:00	2024-11-08T11:00:00	7	Dirección del viento	3.22
126099	7	Sololá	701	Sololá	4	Finca Santa Victoria	8	Agosto	2023-08-22T00:00:00	2024-11-08T11:00:00	1	Precipitación	0
126100	7	Sololá	701	Sololá	4	Finca Santa Victoria	8	Agosto	2023-08-22T00:00:00	2024-11-08T11:00:00	8	Radiación solar	880
126101	7	Sololá	701	Sololá	4	Finca Santa Victoria	8	Agosto	2023-08-22T00:00:00	2024-11-08T12:00:00	2	Temperatura media	20.9
126102	7	Sololá	701	Sololá	4	Finca Santa Victoria	8	Agosto	2023-08-22T00:00:00	2024-11-08T12:00:00	4	Temperatura máxima	21.2
126103	7	Sololá	701	Sololá	4	Finca Santa Victoria	8	Agosto	2023-08-22T00:00:00	2024-11-08T12:00:00	3	Temperatura mínima	19.7
126104	7	Sololá	701	Sololá	4	Finca Santa Victoria	8	Agosto	2023-08-22T00:00:00	2024-11-08T12:00:00	5	Humedad	73
126105	7	Sololá	701	Sololá	4	Finca Santa Victoria	8	Agosto	2023-08-22T00:00:00	2024-11-08T12:00:00	6	Velocidad del viento	3.2
126106	7	Sololá	701	Sololá	4	Finca Santa Victoria	8	Agosto	2023-08-22T00:00:00	2024-11-08T12:00:00	7	Dirección del viento	3.22
126107	7	Sololá	701	Sololá	4	Finca Santa Victoria	8	Agosto	2023-08-22T00:00:00	2024-11-08T12:00:00	1	Precipitación	0
126108	7	Sololá	701	Sololá	4	Finca Santa Victoria	8	Agosto	2023-08-22T00:00:00	2024-11-08T12:00:00	8	Radiación solar	1084
126109	7	Sololá	701	Sololá	4	Finca Santa Victoria	8	Agosto	2023-08-22T00:00:00	2024-11-08T13:00:00	2	Temperatura media	20.2
126110	7	Sololá	701	Sololá	4	Finca Santa Victoria	8	Agosto	2023-08-22T00:00:00	2024-11-08T13:00:00	4	Temperatura máxima	22.9
126111	7	Sololá	701	Sololá	4	Finca Santa Victoria	8	Agosto	2023-08-22T00:00:00	2024-11-08T13:00:00	3	Temperatura mínima	20.1
126112	7	Sololá	701	Sololá	4	Finca Santa Victoria	8	Agosto	2023-08-22T00:00:00	2024-11-08T13:00:00	5	Humedad	78
126113	7	Sololá	701	Sololá	4	Finca Santa Victoria	8	Agosto	2023-08-22T00:00:00	2024-11-08T13:00:00	6	Velocidad del viento	3.2
126114	7	Sololá	701	Sololá	4	Finca Santa Victoria	8	Agosto	2023-08-22T00:00:00	2024-11-08T13:00:00	7	Dirección del viento	3.22
126115	7	Sololá	701	Sololá	4	Finca Santa Victoria	8	Agosto	2023-08-22T00:00:00	2024-11-08T13:00:00	1	Precipitación	0
126116	7	Sololá	701	Sololá	4	Finca Santa Victoria	8	Agosto	2023-08-22T00:00:00	2024-11-08T13:00:00	8	Radiación solar	503
126117	7	Sololá	701	Sololá	4	Finca Santa Victoria	8	Agosto	2023-08-22T00:00:00	2024-11-08T14:00:00	2	Temperatura media	20.6
126118	7	Sololá	701	Sololá	4	Finca Santa Victoria	8	Agosto	2023-08-22T00:00:00	2024-11-08T14:00:00	4	Temperatura máxima	20.6
126119	7	Sololá	701	Sololá	4	Finca Santa Victoria	8	Agosto	2023-08-22T00:00:00	2024-11-08T14:00:00	3	Temperatura mínima	19.8
126120	7	Sololá	701	Sololá	4	Finca Santa Victoria	8	Agosto	2023-08-22T00:00:00	2024-11-08T14:00:00	5	Humedad	62
126121	7	Sololá	701	Sololá	4	Finca Santa Victoria	8	Agosto	2023-08-22T00:00:00	2024-11-08T14:00:00	6	Velocidad del viento	3.2
126122	7	Sololá	701	Sololá	4	Finca Santa Victoria	8	Agosto	2023-08-22T00:00:00	2024-11-08T14:00:00	7	Dirección del viento	3.22
126123	7	Sololá	701	Sololá	4	Finca Santa Victoria	8	Agosto	2023-08-22T00:00:00	2024-11-08T14:00:00	1	Precipitación	0
126124	7	Sololá	701	Sololá	4	Finca Santa Victoria	8	Agosto	2023-08-22T00:00:00	2024-11-08T14:00:00	8	Radiación solar	208
126125	7	Sololá	701	Sololá	4	Finca Santa Victoria	8	Agosto	2023-08-22T00:00:00	2024-11-08T15:00:00	2	Temperatura media	20.2
126126	7	Sololá	701	Sololá	4	Finca Santa Victoria	8	Agosto	2023-08-22T00:00:00	2024-11-08T15:00:00	4	Temperatura máxima	20.9
126127	7	Sololá	701	Sololá	4	Finca Santa Victoria	8	Agosto	2023-08-22T00:00:00	2024-11-08T15:00:00	3	Temperatura mínima	19.9
126128	7	Sololá	701	Sololá	4	Finca Santa Victoria	8	Agosto	2023-08-22T00:00:00	2024-11-08T15:00:00	5	Humedad	76
126129	7	Sololá	701	Sololá	4	Finca Santa Victoria	8	Agosto	2023-08-22T00:00:00	2024-11-08T15:00:00	6	Velocidad del viento	1.6
126130	7	Sololá	701	Sololá	4	Finca Santa Victoria	8	Agosto	2023-08-22T00:00:00	2024-11-08T15:00:00	7	Dirección del viento	1.61
126131	7	Sololá	701	Sololá	4	Finca Santa Victoria	8	Agosto	2023-08-22T00:00:00	2024-11-08T15:00:00	1	Precipitación	0
126132	7	Sololá	701	Sololá	4	Finca Santa Victoria	8	Agosto	2023-08-22T00:00:00	2024-11-08T15:00:00	8	Radiación solar	207
126133	7	Sololá	701	Sololá	4	Finca Santa Victoria	8	Agosto	2023-08-22T00:00:00	2024-11-08T16:00:00	2	Temperatura media	19.2
126134	7	Sololá	701	Sololá	4	Finca Santa Victoria	8	Agosto	2023-08-22T00:00:00	2024-11-08T16:00:00	4	Temperatura máxima	20.2
126135	7	Sololá	701	Sololá	4	Finca Santa Victoria	8	Agosto	2023-08-22T00:00:00	2024-11-08T16:00:00	3	Temperatura mínima	18.6
126136	7	Sololá	701	Sololá	4	Finca Santa Victoria	8	Agosto	2023-08-22T00:00:00	2024-11-08T16:00:00	5	Humedad	74
126137	7	Sololá	701	Sololá	4	Finca Santa Victoria	8	Agosto	2023-08-22T00:00:00	2024-11-08T16:00:00	6	Velocidad del viento	1.6
126138	7	Sololá	701	Sololá	4	Finca Santa Victoria	8	Agosto	2023-08-22T00:00:00	2024-11-08T16:00:00	7	Dirección del viento	1.61
126139	7	Sololá	701	Sololá	4	Finca Santa Victoria	8	Agosto	2023-08-22T00:00:00	2024-11-08T16:00:00	1	Precipitación	0
126140	7	Sololá	701	Sololá	4	Finca Santa Victoria	8	Agosto	2023-08-22T00:00:00	2024-11-08T16:00:00	8	Radiación solar	146
126141	7	Sololá	701	Sololá	4	Finca Santa Victoria	8	Agosto	2023-08-22T00:00:00	2024-11-08T17:00:00	2	Temperatura media	17.3
126142	7	Sololá	701	Sololá	4	Finca Santa Victoria	8	Agosto	2023-08-22T00:00:00	2024-11-08T17:00:00	4	Temperatura máxima	19.4
126143	7	Sololá	701	Sololá	4	Finca Santa Victoria	8	Agosto	2023-08-22T00:00:00	2024-11-08T17:00:00	3	Temperatura mínima	17.2
126144	7	Sololá	701	Sololá	4	Finca Santa Victoria	8	Agosto	2023-08-22T00:00:00	2024-11-08T17:00:00	5	Humedad	88
126145	7	Sololá	701	Sololá	4	Finca Santa Victoria	8	Agosto	2023-08-22T00:00:00	2024-11-08T17:00:00	6	Velocidad del viento	1.6
126146	7	Sololá	701	Sololá	4	Finca Santa Victoria	8	Agosto	2023-08-22T00:00:00	2024-11-08T17:00:00	7	Dirección del viento	1.61
126147	7	Sololá	701	Sololá	4	Finca Santa Victoria	8	Agosto	2023-08-22T00:00:00	2024-11-08T17:00:00	1	Precipitación	0
126148	7	Sololá	701	Sololá	4	Finca Santa Victoria	8	Agosto	2023-08-22T00:00:00	2024-11-08T17:00:00	8	Radiación solar	71
126149	7	Sololá	701	Sololá	4	Finca Santa Victoria	8	Agosto	2023-08-22T00:00:00	2024-11-08T18:00:00	2	Temperatura media	16.7
126150	7	Sololá	701	Sololá	4	Finca Santa Victoria	8	Agosto	2023-08-22T00:00:00	2024-11-08T18:00:00	4	Temperatura máxima	17.6
126151	7	Sololá	701	Sololá	4	Finca Santa Victoria	8	Agosto	2023-08-22T00:00:00	2024-11-08T18:00:00	3	Temperatura mínima	16.7
126152	7	Sololá	701	Sololá	4	Finca Santa Victoria	8	Agosto	2023-08-22T00:00:00	2024-11-08T18:00:00	5	Humedad	83
126153	7	Sololá	701	Sololá	4	Finca Santa Victoria	8	Agosto	2023-08-22T00:00:00	2024-11-08T18:00:00	6	Velocidad del viento	1.6
126154	7	Sololá	701	Sololá	4	Finca Santa Victoria	8	Agosto	2023-08-22T00:00:00	2024-11-08T18:00:00	7	Dirección del viento	1.61
126155	7	Sololá	701	Sololá	4	Finca Santa Victoria	8	Agosto	2023-08-22T00:00:00	2024-11-08T18:00:00	1	Precipitación	0
126156	7	Sololá	701	Sololá	4	Finca Santa Victoria	8	Agosto	2023-08-22T00:00:00	2024-11-08T18:00:00	8	Radiación solar	39
126157	7	Sololá	701	Sololá	4	Finca Santa Victoria	8	Agosto	2023-08-22T00:00:00	2024-11-08T19:00:00	2	Temperatura media	15.9
126158	7	Sololá	701	Sololá	4	Finca Santa Victoria	8	Agosto	2023-08-22T00:00:00	2024-11-08T19:00:00	4	Temperatura máxima	16.7
126159	7	Sololá	701	Sololá	4	Finca Santa Victoria	8	Agosto	2023-08-22T00:00:00	2024-11-08T19:00:00	3	Temperatura mínima	15.8
126160	7	Sololá	701	Sololá	4	Finca Santa Victoria	8	Agosto	2023-08-22T00:00:00	2024-11-08T19:00:00	5	Humedad	82
126161	7	Sololá	701	Sololá	4	Finca Santa Victoria	8	Agosto	2023-08-22T00:00:00	2024-11-08T19:00:00	6	Velocidad del viento	1.6
126162	7	Sololá	701	Sololá	4	Finca Santa Victoria	8	Agosto	2023-08-22T00:00:00	2024-11-08T19:00:00	7	Dirección del viento	1.61
126163	7	Sololá	701	Sololá	4	Finca Santa Victoria	8	Agosto	2023-08-22T00:00:00	2024-11-08T19:00:00	1	Precipitación	0
126164	7	Sololá	701	Sololá	4	Finca Santa Victoria	8	Agosto	2023-08-22T00:00:00	2024-11-08T19:00:00	8	Radiación solar	0
126165	7	Sololá	701	Sololá	4	Finca Santa Victoria	8	Agosto	2023-08-22T00:00:00	2024-11-08T20:00:00	2	Temperatura media	15.2
126166	7	Sololá	701	Sololá	4	Finca Santa Victoria	8	Agosto	2023-08-22T00:00:00	2024-11-08T20:00:00	4	Temperatura máxima	15.9
126167	7	Sololá	701	Sololá	4	Finca Santa Victoria	8	Agosto	2023-08-22T00:00:00	2024-11-08T20:00:00	3	Temperatura mínima	15.2
126168	7	Sololá	701	Sololá	4	Finca Santa Victoria	8	Agosto	2023-08-22T00:00:00	2024-11-08T20:00:00	5	Humedad	89
126169	7	Sololá	701	Sololá	4	Finca Santa Victoria	8	Agosto	2023-08-22T00:00:00	2024-11-08T20:00:00	6	Velocidad del viento	0
126170	7	Sololá	701	Sololá	4	Finca Santa Victoria	8	Agosto	2023-08-22T00:00:00	2024-11-08T20:00:00	7	Dirección del viento	0
126171	7	Sololá	701	Sololá	4	Finca Santa Victoria	8	Agosto	2023-08-22T00:00:00	2024-11-08T20:00:00	1	Precipitación	1
126172	7	Sololá	701	Sololá	4	Finca Santa Victoria	8	Agosto	2023-08-22T00:00:00	2024-11-08T20:00:00	8	Radiación solar	0
126173	7	Sololá	701	Sololá	4	Finca Santa Victoria	8	Agosto	2023-08-22T00:00:00	2024-11-08T21:00:00	2	Temperatura media	14.1
126174	7	Sololá	701	Sololá	4	Finca Santa Victoria	8	Agosto	2023-08-22T00:00:00	2024-11-08T21:00:00	4	Temperatura máxima	15.2
126175	7	Sololá	701	Sololá	4	Finca Santa Victoria	8	Agosto	2023-08-22T00:00:00	2024-11-08T21:00:00	3	Temperatura mínima	14.1
126176	7	Sololá	701	Sololá	4	Finca Santa Victoria	8	Agosto	2023-08-22T00:00:00	2024-11-08T21:00:00	5	Humedad	89
126177	7	Sololá	701	Sololá	4	Finca Santa Victoria	8	Agosto	2023-08-22T00:00:00	2024-11-08T21:00:00	6	Velocidad del viento	1.6
126178	7	Sololá	701	Sololá	4	Finca Santa Victoria	8	Agosto	2023-08-22T00:00:00	2024-11-08T21:00:00	7	Dirección del viento	1.61
126179	7	Sololá	701	Sololá	4	Finca Santa Victoria	8	Agosto	2023-08-22T00:00:00	2024-11-08T21:00:00	1	Precipitación	0
126180	7	Sololá	701	Sololá	4	Finca Santa Victoria	8	Agosto	2023-08-22T00:00:00	2024-11-08T21:00:00	8	Radiación solar	0
126181	7	Sololá	701	Sololá	4	Finca Santa Victoria	8	Agosto	2023-08-22T00:00:00	2024-11-08T22:00:00	2	Temperatura media	13.4
126182	7	Sololá	701	Sololá	4	Finca Santa Victoria	8	Agosto	2023-08-22T00:00:00	2024-11-08T22:00:00	4	Temperatura máxima	14.1
126183	7	Sololá	701	Sololá	4	Finca Santa Victoria	8	Agosto	2023-08-22T00:00:00	2024-11-08T22:00:00	3	Temperatura mínima	13.4
126184	7	Sololá	701	Sololá	4	Finca Santa Victoria	8	Agosto	2023-08-22T00:00:00	2024-11-08T22:00:00	5	Humedad	90
126185	7	Sololá	701	Sololá	4	Finca Santa Victoria	8	Agosto	2023-08-22T00:00:00	2024-11-08T22:00:00	6	Velocidad del viento	3.2
126186	7	Sololá	701	Sololá	4	Finca Santa Victoria	8	Agosto	2023-08-22T00:00:00	2024-11-08T22:00:00	7	Dirección del viento	3.22
126187	7	Sololá	701	Sololá	4	Finca Santa Victoria	8	Agosto	2023-08-22T00:00:00	2024-11-08T22:00:00	1	Precipitación	0
126188	7	Sololá	701	Sololá	4	Finca Santa Victoria	8	Agosto	2023-08-22T00:00:00	2024-11-08T22:00:00	8	Radiación solar	0
126189	7	Sololá	701	Sololá	4	Finca Santa Victoria	8	Agosto	2023-08-22T00:00:00	2024-11-08T23:00:00	2	Temperatura media	13.6
126190	7	Sololá	701	Sololá	4	Finca Santa Victoria	8	Agosto	2023-08-22T00:00:00	2024-11-08T23:00:00	4	Temperatura máxima	13.7
126191	7	Sololá	701	Sololá	4	Finca Santa Victoria	8	Agosto	2023-08-22T00:00:00	2024-11-08T23:00:00	3	Temperatura mínima	13.2
126192	7	Sololá	701	Sololá	4	Finca Santa Victoria	8	Agosto	2023-08-22T00:00:00	2024-11-08T23:00:00	5	Humedad	88
126193	7	Sololá	701	Sololá	4	Finca Santa Victoria	8	Agosto	2023-08-22T00:00:00	2024-11-08T23:00:00	6	Velocidad del viento	1.6
126194	7	Sololá	701	Sololá	4	Finca Santa Victoria	8	Agosto	2023-08-22T00:00:00	2024-11-08T23:00:00	7	Dirección del viento	1.61
126195	7	Sololá	701	Sololá	4	Finca Santa Victoria	8	Agosto	2023-08-22T00:00:00	2024-11-08T23:00:00	1	Precipitación	0
126196	7	Sololá	701	Sololá	4	Finca Santa Victoria	8	Agosto	2023-08-22T00:00:00	2024-11-08T23:00:00	8	Radiación solar	0
126197	7	Sololá	701	Sololá	4	Finca Santa Victoria	8	Agosto	2023-08-23T00:00:00	2024-11-08T00:00:00	2	Temperatura media	13.2
126198	7	Sololá	701	Sololá	4	Finca Santa Victoria	8	Agosto	2023-08-23T00:00:00	2024-11-08T00:00:00	4	Temperatura máxima	13.6
126199	7	Sololá	701	Sololá	4	Finca Santa Victoria	8	Agosto	2023-08-23T00:00:00	2024-11-08T00:00:00	3	Temperatura mínima	13
126200	7	Sololá	701	Sololá	4	Finca Santa Victoria	8	Agosto	2023-08-23T00:00:00	2024-11-08T00:00:00	5	Humedad	89
126201	7	Sololá	701	Sololá	4	Finca Santa Victoria	8	Agosto	2023-08-23T00:00:00	2024-11-08T00:00:00	6	Velocidad del viento	1.6
126202	7	Sololá	701	Sololá	4	Finca Santa Victoria	8	Agosto	2023-08-23T00:00:00	2024-11-08T00:00:00	7	Dirección del viento	1.61
126203	7	Sololá	701	Sololá	4	Finca Santa Victoria	8	Agosto	2023-08-23T00:00:00	2024-11-08T00:00:00	1	Precipitación	0
126204	7	Sololá	701	Sololá	4	Finca Santa Victoria	8	Agosto	2023-08-23T00:00:00	2024-11-08T00:00:00	8	Radiación solar	0
126205	7	Sololá	701	Sololá	4	Finca Santa Victoria	8	Agosto	2023-08-23T00:00:00	2024-11-08T01:00:00	2	Temperatura media	13.1
126206	7	Sololá	701	Sololá	4	Finca Santa Victoria	8	Agosto	2023-08-23T00:00:00	2024-11-08T01:00:00	4	Temperatura máxima	13.4
126207	7	Sololá	701	Sololá	4	Finca Santa Victoria	8	Agosto	2023-08-23T00:00:00	2024-11-08T01:00:00	3	Temperatura mínima	13
126208	7	Sololá	701	Sololá	4	Finca Santa Victoria	8	Agosto	2023-08-23T00:00:00	2024-11-08T01:00:00	5	Humedad	88
126209	7	Sololá	701	Sololá	4	Finca Santa Victoria	8	Agosto	2023-08-23T00:00:00	2024-11-08T01:00:00	6	Velocidad del viento	1.6
126210	7	Sololá	701	Sololá	4	Finca Santa Victoria	8	Agosto	2023-08-23T00:00:00	2024-11-08T01:00:00	7	Dirección del viento	1.61
126211	7	Sololá	701	Sololá	4	Finca Santa Victoria	8	Agosto	2023-08-23T00:00:00	2024-11-08T01:00:00	1	Precipitación	0
126212	7	Sololá	701	Sololá	4	Finca Santa Victoria	8	Agosto	2023-08-23T00:00:00	2024-11-08T01:00:00	8	Radiación solar	0
126213	7	Sololá	701	Sololá	4	Finca Santa Victoria	8	Agosto	2023-08-23T00:00:00	2024-11-08T02:00:00	2	Temperatura media	12.9
126214	7	Sololá	701	Sololá	4	Finca Santa Victoria	8	Agosto	2023-08-23T00:00:00	2024-11-08T02:00:00	4	Temperatura máxima	13.2
126215	7	Sololá	701	Sololá	4	Finca Santa Victoria	8	Agosto	2023-08-23T00:00:00	2024-11-08T02:00:00	3	Temperatura mínima	12.8
126216	7	Sololá	701	Sololá	4	Finca Santa Victoria	8	Agosto	2023-08-23T00:00:00	2024-11-08T02:00:00	5	Humedad	87
126217	7	Sololá	701	Sololá	4	Finca Santa Victoria	8	Agosto	2023-08-23T00:00:00	2024-11-08T02:00:00	6	Velocidad del viento	1.6
126218	7	Sololá	701	Sololá	4	Finca Santa Victoria	8	Agosto	2023-08-23T00:00:00	2024-11-08T02:00:00	7	Dirección del viento	1.61
126219	7	Sololá	701	Sololá	4	Finca Santa Victoria	8	Agosto	2023-08-23T00:00:00	2024-11-08T02:00:00	1	Precipitación	0
126220	7	Sololá	701	Sololá	4	Finca Santa Victoria	8	Agosto	2023-08-23T00:00:00	2024-11-08T02:00:00	8	Radiación solar	0
126221	7	Sololá	701	Sololá	4	Finca Santa Victoria	8	Agosto	2023-08-23T00:00:00	2024-11-08T03:00:00	2	Temperatura media	12.5
126222	7	Sololá	701	Sololá	4	Finca Santa Victoria	8	Agosto	2023-08-23T00:00:00	2024-11-08T03:00:00	4	Temperatura máxima	12.9
126223	7	Sololá	701	Sololá	4	Finca Santa Victoria	8	Agosto	2023-08-23T00:00:00	2024-11-08T03:00:00	3	Temperatura mínima	12.4
126224	7	Sololá	701	Sololá	4	Finca Santa Victoria	8	Agosto	2023-08-23T00:00:00	2024-11-08T03:00:00	5	Humedad	87
126225	7	Sololá	701	Sololá	4	Finca Santa Victoria	8	Agosto	2023-08-23T00:00:00	2024-11-08T03:00:00	6	Velocidad del viento	3.2
126226	7	Sololá	701	Sololá	4	Finca Santa Victoria	8	Agosto	2023-08-23T00:00:00	2024-11-08T03:00:00	7	Dirección del viento	3.22
126227	7	Sololá	701	Sololá	4	Finca Santa Victoria	8	Agosto	2023-08-23T00:00:00	2024-11-08T03:00:00	1	Precipitación	0
126228	7	Sololá	701	Sololá	4	Finca Santa Victoria	8	Agosto	2023-08-23T00:00:00	2024-11-08T03:00:00	8	Radiación solar	0
126229	7	Sololá	701	Sololá	4	Finca Santa Victoria	8	Agosto	2023-08-23T00:00:00	2024-11-08T04:00:00	2	Temperatura media	12.8
126230	7	Sololá	701	Sololá	4	Finca Santa Victoria	8	Agosto	2023-08-23T00:00:00	2024-11-08T04:00:00	4	Temperatura máxima	12.9
126231	7	Sololá	701	Sololá	4	Finca Santa Victoria	8	Agosto	2023-08-23T00:00:00	2024-11-08T04:00:00	3	Temperatura mínima	12.4
126232	7	Sololá	701	Sololá	4	Finca Santa Victoria	8	Agosto	2023-08-23T00:00:00	2024-11-08T04:00:00	5	Humedad	86
126233	7	Sololá	701	Sololá	4	Finca Santa Victoria	8	Agosto	2023-08-23T00:00:00	2024-11-08T04:00:00	6	Velocidad del viento	3.2
126234	7	Sololá	701	Sololá	4	Finca Santa Victoria	8	Agosto	2023-08-23T00:00:00	2024-11-08T04:00:00	7	Dirección del viento	3.22
126235	7	Sololá	701	Sololá	4	Finca Santa Victoria	8	Agosto	2023-08-23T00:00:00	2024-11-08T04:00:00	1	Precipitación	0
126236	7	Sololá	701	Sololá	4	Finca Santa Victoria	8	Agosto	2023-08-23T00:00:00	2024-11-08T04:00:00	8	Radiación solar	0
126237	7	Sololá	701	Sololá	4	Finca Santa Victoria	8	Agosto	2023-08-23T00:00:00	2024-11-08T05:00:00	2	Temperatura media	12.9
126238	7	Sololá	701	Sololá	4	Finca Santa Victoria	8	Agosto	2023-08-23T00:00:00	2024-11-08T05:00:00	4	Temperatura máxima	13.1
126239	7	Sololá	701	Sololá	4	Finca Santa Victoria	8	Agosto	2023-08-23T00:00:00	2024-11-08T05:00:00	3	Temperatura mínima	12.7
126240	7	Sololá	701	Sololá	4	Finca Santa Victoria	8	Agosto	2023-08-23T00:00:00	2024-11-08T05:00:00	5	Humedad	84
126241	7	Sololá	701	Sololá	4	Finca Santa Victoria	8	Agosto	2023-08-23T00:00:00	2024-11-08T05:00:00	6	Velocidad del viento	1.6
126242	7	Sololá	701	Sololá	4	Finca Santa Victoria	8	Agosto	2023-08-23T00:00:00	2024-11-08T05:00:00	7	Dirección del viento	1.61
126243	7	Sololá	701	Sololá	4	Finca Santa Victoria	8	Agosto	2023-08-23T00:00:00	2024-11-08T05:00:00	1	Precipitación	0
126244	7	Sololá	701	Sololá	4	Finca Santa Victoria	8	Agosto	2023-08-23T00:00:00	2024-11-08T05:00:00	8	Radiación solar	0
126245	7	Sololá	701	Sololá	4	Finca Santa Victoria	8	Agosto	2023-08-23T00:00:00	2024-11-08T06:00:00	2	Temperatura media	12.9
126246	7	Sololá	701	Sololá	4	Finca Santa Victoria	8	Agosto	2023-08-23T00:00:00	2024-11-08T06:00:00	4	Temperatura máxima	13.1
126247	7	Sololá	701	Sololá	4	Finca Santa Victoria	8	Agosto	2023-08-23T00:00:00	2024-11-08T06:00:00	3	Temperatura mínima	12.8
126248	7	Sololá	701	Sololá	4	Finca Santa Victoria	8	Agosto	2023-08-23T00:00:00	2024-11-08T06:00:00	5	Humedad	83
126249	7	Sololá	701	Sololá	4	Finca Santa Victoria	8	Agosto	2023-08-23T00:00:00	2024-11-08T06:00:00	6	Velocidad del viento	1.6
126250	7	Sololá	701	Sololá	4	Finca Santa Victoria	8	Agosto	2023-08-23T00:00:00	2024-11-08T06:00:00	7	Dirección del viento	1.61
126251	7	Sololá	701	Sololá	4	Finca Santa Victoria	8	Agosto	2023-08-23T00:00:00	2024-11-08T06:00:00	1	Precipitación	0
126252	7	Sololá	701	Sololá	4	Finca Santa Victoria	8	Agosto	2023-08-23T00:00:00	2024-11-08T06:00:00	8	Radiación solar	0
126253	7	Sololá	701	Sololá	4	Finca Santa Victoria	8	Agosto	2023-08-23T00:00:00	2024-11-08T07:00:00	2	Temperatura media	13.7
126254	7	Sololá	701	Sololá	4	Finca Santa Victoria	8	Agosto	2023-08-23T00:00:00	2024-11-08T07:00:00	4	Temperatura máxima	13.7
126255	7	Sololá	701	Sololá	4	Finca Santa Victoria	8	Agosto	2023-08-23T00:00:00	2024-11-08T07:00:00	3	Temperatura mínima	12.7
126256	7	Sololá	701	Sololá	4	Finca Santa Victoria	8	Agosto	2023-08-23T00:00:00	2024-11-08T07:00:00	5	Humedad	80
126257	7	Sololá	701	Sololá	4	Finca Santa Victoria	8	Agosto	2023-08-23T00:00:00	2024-11-08T07:00:00	6	Velocidad del viento	0
126258	7	Sololá	701	Sololá	4	Finca Santa Victoria	8	Agosto	2023-08-23T00:00:00	2024-11-08T07:00:00	7	Dirección del viento	0
126259	7	Sololá	701	Sololá	4	Finca Santa Victoria	8	Agosto	2023-08-23T00:00:00	2024-11-08T07:00:00	1	Precipitación	0
126260	7	Sololá	701	Sololá	4	Finca Santa Victoria	8	Agosto	2023-08-23T00:00:00	2024-11-08T07:00:00	8	Radiación solar	26
126261	7	Sololá	701	Sololá	4	Finca Santa Victoria	8	Agosto	2023-08-23T00:00:00	2024-11-08T08:00:00	2	Temperatura media	15
126262	7	Sololá	701	Sololá	4	Finca Santa Victoria	8	Agosto	2023-08-23T00:00:00	2024-11-08T08:00:00	4	Temperatura máxima	15
126263	7	Sololá	701	Sololá	4	Finca Santa Victoria	8	Agosto	2023-08-23T00:00:00	2024-11-08T08:00:00	3	Temperatura mínima	13.7
126264	7	Sololá	701	Sololá	4	Finca Santa Victoria	8	Agosto	2023-08-23T00:00:00	2024-11-08T08:00:00	5	Humedad	84
126265	7	Sololá	701	Sololá	4	Finca Santa Victoria	8	Agosto	2023-08-23T00:00:00	2024-11-08T08:00:00	6	Velocidad del viento	1.6
126266	7	Sololá	701	Sololá	4	Finca Santa Victoria	8	Agosto	2023-08-23T00:00:00	2024-11-08T08:00:00	7	Dirección del viento	1.61
126267	7	Sololá	701	Sololá	4	Finca Santa Victoria	8	Agosto	2023-08-23T00:00:00	2024-11-08T08:00:00	1	Precipitación	0
126268	7	Sololá	701	Sololá	4	Finca Santa Victoria	8	Agosto	2023-08-23T00:00:00	2024-11-08T08:00:00	8	Radiación solar	122
126269	7	Sololá	701	Sololá	4	Finca Santa Victoria	8	Agosto	2023-08-23T00:00:00	2024-11-08T09:00:00	2	Temperatura media	16.4
126270	7	Sololá	701	Sololá	4	Finca Santa Victoria	8	Agosto	2023-08-23T00:00:00	2024-11-08T09:00:00	4	Temperatura máxima	16.4
126271	7	Sololá	701	Sololá	4	Finca Santa Victoria	8	Agosto	2023-08-23T00:00:00	2024-11-08T09:00:00	3	Temperatura mínima	15
126272	7	Sololá	701	Sololá	4	Finca Santa Victoria	8	Agosto	2023-08-23T00:00:00	2024-11-08T09:00:00	5	Humedad	79
126273	7	Sololá	701	Sololá	4	Finca Santa Victoria	8	Agosto	2023-08-23T00:00:00	2024-11-08T09:00:00	6	Velocidad del viento	1.6
126274	7	Sololá	701	Sololá	4	Finca Santa Victoria	8	Agosto	2023-08-23T00:00:00	2024-11-08T09:00:00	7	Dirección del viento	1.61
126275	7	Sololá	701	Sololá	4	Finca Santa Victoria	8	Agosto	2023-08-23T00:00:00	2024-11-08T09:00:00	1	Precipitación	0
126276	7	Sololá	701	Sololá	4	Finca Santa Victoria	8	Agosto	2023-08-23T00:00:00	2024-11-08T09:00:00	8	Radiación solar	247
126277	7	Sololá	701	Sololá	4	Finca Santa Victoria	8	Agosto	2023-08-23T00:00:00	2024-11-08T10:00:00	2	Temperatura media	18.5
126278	7	Sololá	701	Sololá	4	Finca Santa Victoria	8	Agosto	2023-08-23T00:00:00	2024-11-08T10:00:00	4	Temperatura máxima	18.6
126279	7	Sololá	701	Sololá	4	Finca Santa Victoria	8	Agosto	2023-08-23T00:00:00	2024-11-08T10:00:00	3	Temperatura mínima	16.3
126280	7	Sololá	701	Sololá	4	Finca Santa Victoria	8	Agosto	2023-08-23T00:00:00	2024-11-08T10:00:00	5	Humedad	68
126281	7	Sololá	701	Sololá	4	Finca Santa Victoria	8	Agosto	2023-08-23T00:00:00	2024-11-08T10:00:00	6	Velocidad del viento	1.6
126282	7	Sololá	701	Sololá	4	Finca Santa Victoria	8	Agosto	2023-08-23T00:00:00	2024-11-08T10:00:00	7	Dirección del viento	1.61
126283	7	Sololá	701	Sololá	4	Finca Santa Victoria	8	Agosto	2023-08-23T00:00:00	2024-11-08T10:00:00	1	Precipitación	0
126284	7	Sololá	701	Sololá	4	Finca Santa Victoria	8	Agosto	2023-08-23T00:00:00	2024-11-08T10:00:00	8	Radiación solar	265
126285	7	Sololá	701	Sololá	4	Finca Santa Victoria	8	Agosto	2023-08-23T00:00:00	2024-11-08T11:00:00	2	Temperatura media	19.3
126286	7	Sololá	701	Sololá	4	Finca Santa Victoria	8	Agosto	2023-08-23T00:00:00	2024-11-08T11:00:00	4	Temperatura máxima	19.4
126287	7	Sololá	701	Sololá	4	Finca Santa Victoria	8	Agosto	2023-08-23T00:00:00	2024-11-08T11:00:00	3	Temperatura mínima	18.5
126288	7	Sololá	701	Sololá	4	Finca Santa Victoria	8	Agosto	2023-08-23T00:00:00	2024-11-08T11:00:00	5	Humedad	64
126289	7	Sololá	701	Sololá	4	Finca Santa Victoria	8	Agosto	2023-08-23T00:00:00	2024-11-08T11:00:00	6	Velocidad del viento	1.6
126290	7	Sololá	701	Sololá	4	Finca Santa Victoria	8	Agosto	2023-08-23T00:00:00	2024-11-08T11:00:00	7	Dirección del viento	1.61
126291	7	Sololá	701	Sololá	4	Finca Santa Victoria	8	Agosto	2023-08-23T00:00:00	2024-11-08T11:00:00	1	Precipitación	0
126292	7	Sololá	701	Sololá	4	Finca Santa Victoria	8	Agosto	2023-08-23T00:00:00	2024-11-08T11:00:00	8	Radiación solar	317
126293	7	Sololá	701	Sololá	4	Finca Santa Victoria	8	Agosto	2023-08-23T00:00:00	2024-11-08T12:00:00	2	Temperatura media	19.7
126294	7	Sololá	701	Sololá	4	Finca Santa Victoria	8	Agosto	2023-08-23T00:00:00	2024-11-08T12:00:00	4	Temperatura máxima	19.9
126295	7	Sololá	701	Sololá	4	Finca Santa Victoria	8	Agosto	2023-08-23T00:00:00	2024-11-08T12:00:00	3	Temperatura mínima	19.3
126296	7	Sololá	701	Sololá	4	Finca Santa Victoria	8	Agosto	2023-08-23T00:00:00	2024-11-08T12:00:00	5	Humedad	67
126297	7	Sololá	701	Sololá	4	Finca Santa Victoria	8	Agosto	2023-08-23T00:00:00	2024-11-08T12:00:00	6	Velocidad del viento	1.6
126298	7	Sololá	701	Sololá	4	Finca Santa Victoria	8	Agosto	2023-08-23T00:00:00	2024-11-08T12:00:00	7	Dirección del viento	1.61
126299	7	Sololá	701	Sololá	4	Finca Santa Victoria	8	Agosto	2023-08-23T00:00:00	2024-11-08T12:00:00	1	Precipitación	0
126300	7	Sololá	701	Sololá	4	Finca Santa Victoria	8	Agosto	2023-08-23T00:00:00	2024-11-08T12:00:00	8	Radiación solar	379
126301	7	Sololá	701	Sololá	4	Finca Santa Victoria	8	Agosto	2023-08-23T00:00:00	2024-11-08T13:00:00	2	Temperatura media	19.6
126302	7	Sololá	701	Sololá	4	Finca Santa Victoria	8	Agosto	2023-08-23T00:00:00	2024-11-08T13:00:00	4	Temperatura máxima	19.7
126303	7	Sololá	701	Sololá	4	Finca Santa Victoria	8	Agosto	2023-08-23T00:00:00	2024-11-08T13:00:00	3	Temperatura mínima	19.2
126304	7	Sololá	701	Sololá	4	Finca Santa Victoria	8	Agosto	2023-08-23T00:00:00	2024-11-08T13:00:00	5	Humedad	72
126305	7	Sololá	701	Sololá	4	Finca Santa Victoria	8	Agosto	2023-08-23T00:00:00	2024-11-08T13:00:00	6	Velocidad del viento	1.6
126306	7	Sololá	701	Sololá	4	Finca Santa Victoria	8	Agosto	2023-08-23T00:00:00	2024-11-08T13:00:00	7	Dirección del viento	1.61
126307	7	Sololá	701	Sololá	4	Finca Santa Victoria	8	Agosto	2023-08-23T00:00:00	2024-11-08T13:00:00	1	Precipitación	0
126308	7	Sololá	701	Sololá	4	Finca Santa Victoria	8	Agosto	2023-08-23T00:00:00	2024-11-08T13:00:00	8	Radiación solar	330
126309	7	Sololá	701	Sololá	4	Finca Santa Victoria	8	Agosto	2023-08-23T00:00:00	2024-11-08T14:00:00	2	Temperatura media	19.5
126310	7	Sololá	701	Sololá	4	Finca Santa Victoria	8	Agosto	2023-08-23T00:00:00	2024-11-08T14:00:00	4	Temperatura máxima	19.7
126311	7	Sololá	701	Sololá	4	Finca Santa Victoria	8	Agosto	2023-08-23T00:00:00	2024-11-08T14:00:00	3	Temperatura mínima	19.3
126312	7	Sololá	701	Sololá	4	Finca Santa Victoria	8	Agosto	2023-08-23T00:00:00	2024-11-08T14:00:00	5	Humedad	67
126313	7	Sololá	701	Sololá	4	Finca Santa Victoria	8	Agosto	2023-08-23T00:00:00	2024-11-08T14:00:00	6	Velocidad del viento	1.6
126314	7	Sololá	701	Sololá	4	Finca Santa Victoria	8	Agosto	2023-08-23T00:00:00	2024-11-08T14:00:00	7	Dirección del viento	1.61
126315	7	Sololá	701	Sololá	4	Finca Santa Victoria	8	Agosto	2023-08-23T00:00:00	2024-11-08T14:00:00	1	Precipitación	0
126316	7	Sololá	701	Sololá	4	Finca Santa Victoria	8	Agosto	2023-08-23T00:00:00	2024-11-08T14:00:00	8	Radiación solar	284
126317	7	Sololá	701	Sololá	4	Finca Santa Victoria	8	Agosto	2023-08-23T00:00:00	2024-11-08T15:00:00	2	Temperatura media	18.9
126318	7	Sololá	701	Sololá	4	Finca Santa Victoria	8	Agosto	2023-08-23T00:00:00	2024-11-08T15:00:00	4	Temperatura máxima	19.6
126319	7	Sololá	701	Sololá	4	Finca Santa Victoria	8	Agosto	2023-08-23T00:00:00	2024-11-08T15:00:00	3	Temperatura mínima	18.9
126320	7	Sololá	701	Sololá	4	Finca Santa Victoria	8	Agosto	2023-08-23T00:00:00	2024-11-08T15:00:00	5	Humedad	69
126321	7	Sololá	701	Sololá	4	Finca Santa Victoria	8	Agosto	2023-08-23T00:00:00	2024-11-08T15:00:00	6	Velocidad del viento	1.6
126322	7	Sololá	701	Sololá	4	Finca Santa Victoria	8	Agosto	2023-08-23T00:00:00	2024-11-08T15:00:00	7	Dirección del viento	1.61
126323	7	Sololá	701	Sololá	4	Finca Santa Victoria	8	Agosto	2023-08-23T00:00:00	2024-11-08T15:00:00	1	Precipitación	0
126324	7	Sololá	701	Sololá	4	Finca Santa Victoria	8	Agosto	2023-08-23T00:00:00	2024-11-08T15:00:00	8	Radiación solar	245
126325	7	Sololá	701	Sololá	4	Finca Santa Victoria	8	Agosto	2023-08-23T00:00:00	2024-11-08T16:00:00	2	Temperatura media	18.3
126326	7	Sololá	701	Sololá	4	Finca Santa Victoria	8	Agosto	2023-08-23T00:00:00	2024-11-08T16:00:00	4	Temperatura máxima	18.9
126327	7	Sololá	701	Sololá	4	Finca Santa Victoria	8	Agosto	2023-08-23T00:00:00	2024-11-08T16:00:00	3	Temperatura mínima	18.3
126328	7	Sololá	701	Sololá	4	Finca Santa Victoria	8	Agosto	2023-08-23T00:00:00	2024-11-08T16:00:00	5	Humedad	68
126329	7	Sololá	701	Sololá	4	Finca Santa Victoria	8	Agosto	2023-08-23T00:00:00	2024-11-08T16:00:00	6	Velocidad del viento	1.6
126330	7	Sololá	701	Sololá	4	Finca Santa Victoria	8	Agosto	2023-08-23T00:00:00	2024-11-08T16:00:00	7	Dirección del viento	1.61
126331	7	Sololá	701	Sololá	4	Finca Santa Victoria	8	Agosto	2023-08-23T00:00:00	2024-11-08T16:00:00	1	Precipitación	0
126332	7	Sololá	701	Sololá	4	Finca Santa Victoria	8	Agosto	2023-08-23T00:00:00	2024-11-08T16:00:00	8	Radiación solar	178
126333	7	Sololá	701	Sololá	4	Finca Santa Victoria	8	Agosto	2023-08-23T00:00:00	2024-11-08T17:00:00	2	Temperatura media	17.9
126334	7	Sololá	701	Sololá	4	Finca Santa Victoria	8	Agosto	2023-08-23T00:00:00	2024-11-08T17:00:00	4	Temperatura máxima	18.4
126335	7	Sololá	701	Sololá	4	Finca Santa Victoria	8	Agosto	2023-08-23T00:00:00	2024-11-08T17:00:00	3	Temperatura mínima	17.9
126336	7	Sololá	701	Sololá	4	Finca Santa Victoria	8	Agosto	2023-08-23T00:00:00	2024-11-08T17:00:00	5	Humedad	75
126337	7	Sololá	701	Sololá	4	Finca Santa Victoria	8	Agosto	2023-08-23T00:00:00	2024-11-08T17:00:00	6	Velocidad del viento	0
126338	7	Sololá	701	Sololá	4	Finca Santa Victoria	8	Agosto	2023-08-23T00:00:00	2024-11-08T17:00:00	7	Dirección del viento	0
126339	7	Sololá	701	Sololá	4	Finca Santa Victoria	8	Agosto	2023-08-23T00:00:00	2024-11-08T17:00:00	1	Precipitación	0
126340	7	Sololá	701	Sololá	4	Finca Santa Victoria	8	Agosto	2023-08-23T00:00:00	2024-11-08T17:00:00	8	Radiación solar	109
126341	7	Sololá	701	Sololá	4	Finca Santa Victoria	8	Agosto	2023-08-23T00:00:00	2024-11-08T18:00:00	2	Temperatura media	16.2
126342	7	Sololá	701	Sololá	4	Finca Santa Victoria	8	Agosto	2023-08-23T00:00:00	2024-11-08T18:00:00	4	Temperatura máxima	17.9
126343	7	Sololá	701	Sololá	4	Finca Santa Victoria	8	Agosto	2023-08-23T00:00:00	2024-11-08T18:00:00	3	Temperatura mínima	16.2
126344	7	Sololá	701	Sololá	4	Finca Santa Victoria	8	Agosto	2023-08-23T00:00:00	2024-11-08T18:00:00	5	Humedad	79
126345	7	Sololá	701	Sololá	4	Finca Santa Victoria	8	Agosto	2023-08-23T00:00:00	2024-11-08T18:00:00	6	Velocidad del viento	0
126346	7	Sololá	701	Sololá	4	Finca Santa Victoria	8	Agosto	2023-08-23T00:00:00	2024-11-08T18:00:00	7	Dirección del viento	0
126347	7	Sololá	701	Sololá	4	Finca Santa Victoria	8	Agosto	2023-08-23T00:00:00	2024-11-08T18:00:00	1	Precipitación	0
126348	7	Sololá	701	Sololá	4	Finca Santa Victoria	8	Agosto	2023-08-23T00:00:00	2024-11-08T18:00:00	8	Radiación solar	38
126349	7	Sololá	701	Sololá	4	Finca Santa Victoria	8	Agosto	2023-08-23T00:00:00	2024-11-08T19:00:00	2	Temperatura media	14.9
126350	7	Sololá	701	Sololá	4	Finca Santa Victoria	8	Agosto	2023-08-23T00:00:00	2024-11-08T19:00:00	4	Temperatura máxima	16.2
126351	7	Sololá	701	Sololá	4	Finca Santa Victoria	8	Agosto	2023-08-23T00:00:00	2024-11-08T19:00:00	3	Temperatura mínima	14.9
126352	7	Sololá	701	Sololá	4	Finca Santa Victoria	8	Agosto	2023-08-23T00:00:00	2024-11-08T19:00:00	5	Humedad	83
126353	7	Sololá	701	Sololá	4	Finca Santa Victoria	8	Agosto	2023-08-23T00:00:00	2024-11-08T19:00:00	6	Velocidad del viento	0
126354	7	Sololá	701	Sololá	4	Finca Santa Victoria	8	Agosto	2023-08-23T00:00:00	2024-11-08T19:00:00	7	Dirección del viento	0
126355	7	Sololá	701	Sololá	4	Finca Santa Victoria	8	Agosto	2023-08-23T00:00:00	2024-11-08T19:00:00	1	Precipitación	0
126356	7	Sololá	701	Sololá	4	Finca Santa Victoria	8	Agosto	2023-08-23T00:00:00	2024-11-08T19:00:00	8	Radiación solar	0
126357	7	Sololá	701	Sololá	4	Finca Santa Victoria	8	Agosto	2023-08-23T00:00:00	2024-11-08T20:00:00	2	Temperatura media	14.7
126358	7	Sololá	701	Sololá	4	Finca Santa Victoria	8	Agosto	2023-08-23T00:00:00	2024-11-08T20:00:00	4	Temperatura máxima	15
126359	7	Sololá	701	Sololá	4	Finca Santa Victoria	8	Agosto	2023-08-23T00:00:00	2024-11-08T20:00:00	3	Temperatura mínima	14.6
126360	7	Sololá	701	Sololá	4	Finca Santa Victoria	8	Agosto	2023-08-23T00:00:00	2024-11-08T20:00:00	5	Humedad	87
126361	7	Sololá	701	Sololá	4	Finca Santa Victoria	8	Agosto	2023-08-23T00:00:00	2024-11-08T20:00:00	6	Velocidad del viento	0
126362	7	Sololá	701	Sololá	4	Finca Santa Victoria	8	Agosto	2023-08-23T00:00:00	2024-11-08T20:00:00	7	Dirección del viento	0
126363	7	Sololá	701	Sololá	4	Finca Santa Victoria	8	Agosto	2023-08-23T00:00:00	2024-11-08T20:00:00	1	Precipitación	0
126364	7	Sololá	701	Sololá	4	Finca Santa Victoria	8	Agosto	2023-08-23T00:00:00	2024-11-08T20:00:00	8	Radiación solar	0
126365	7	Sololá	701	Sololá	4	Finca Santa Victoria	8	Agosto	2023-08-23T00:00:00	2024-11-08T21:00:00	2	Temperatura media	14.3
126366	7	Sololá	701	Sololá	4	Finca Santa Victoria	8	Agosto	2023-08-23T00:00:00	2024-11-08T21:00:00	4	Temperatura máxima	14.7
126367	7	Sololá	701	Sololá	4	Finca Santa Victoria	8	Agosto	2023-08-23T00:00:00	2024-11-08T21:00:00	3	Temperatura mínima	14.2
126368	7	Sololá	701	Sololá	4	Finca Santa Victoria	8	Agosto	2023-08-23T00:00:00	2024-11-08T21:00:00	5	Humedad	87
126369	7	Sololá	701	Sololá	4	Finca Santa Victoria	8	Agosto	2023-08-23T00:00:00	2024-11-08T21:00:00	6	Velocidad del viento	0
126370	7	Sololá	701	Sololá	4	Finca Santa Victoria	8	Agosto	2023-08-23T00:00:00	2024-11-08T21:00:00	7	Dirección del viento	0
126371	7	Sololá	701	Sololá	4	Finca Santa Victoria	8	Agosto	2023-08-23T00:00:00	2024-11-08T21:00:00	1	Precipitación	0
126372	7	Sololá	701	Sololá	4	Finca Santa Victoria	8	Agosto	2023-08-23T00:00:00	2024-11-08T21:00:00	8	Radiación solar	0
126373	7	Sololá	701	Sololá	4	Finca Santa Victoria	8	Agosto	2023-08-23T00:00:00	2024-11-08T22:00:00	2	Temperatura media	14.9
126374	7	Sololá	701	Sololá	4	Finca Santa Victoria	8	Agosto	2023-08-23T00:00:00	2024-11-08T22:00:00	4	Temperatura máxima	15
126375	7	Sololá	701	Sololá	4	Finca Santa Victoria	8	Agosto	2023-08-23T00:00:00	2024-11-08T22:00:00	3	Temperatura mínima	14.2
126376	7	Sololá	701	Sololá	4	Finca Santa Victoria	8	Agosto	2023-08-23T00:00:00	2024-11-08T22:00:00	5	Humedad	87
126377	7	Sololá	701	Sololá	4	Finca Santa Victoria	8	Agosto	2023-08-23T00:00:00	2024-11-08T22:00:00	6	Velocidad del viento	3.2
126378	7	Sololá	701	Sololá	4	Finca Santa Victoria	8	Agosto	2023-08-23T00:00:00	2024-11-08T22:00:00	7	Dirección del viento	3.22
126379	7	Sololá	701	Sololá	4	Finca Santa Victoria	8	Agosto	2023-08-23T00:00:00	2024-11-08T22:00:00	1	Precipitación	0
126380	7	Sololá	701	Sololá	4	Finca Santa Victoria	8	Agosto	2023-08-23T00:00:00	2024-11-08T22:00:00	8	Radiación solar	0
126381	7	Sololá	701	Sololá	4	Finca Santa Victoria	8	Agosto	2023-08-23T00:00:00	2024-11-08T23:00:00	2	Temperatura media	15
126382	7	Sololá	701	Sololá	4	Finca Santa Victoria	8	Agosto	2023-08-23T00:00:00	2024-11-08T23:00:00	4	Temperatura máxima	15
126383	7	Sololá	701	Sololá	4	Finca Santa Victoria	8	Agosto	2023-08-23T00:00:00	2024-11-08T23:00:00	3	Temperatura mínima	14.8
126384	7	Sololá	701	Sololá	4	Finca Santa Victoria	8	Agosto	2023-08-23T00:00:00	2024-11-08T23:00:00	5	Humedad	84
126385	7	Sololá	701	Sololá	4	Finca Santa Victoria	8	Agosto	2023-08-23T00:00:00	2024-11-08T23:00:00	6	Velocidad del viento	1.6
126386	7	Sololá	701	Sololá	4	Finca Santa Victoria	8	Agosto	2023-08-23T00:00:00	2024-11-08T23:00:00	7	Dirección del viento	1.61
126387	7	Sololá	701	Sololá	4	Finca Santa Victoria	8	Agosto	2023-08-23T00:00:00	2024-11-08T23:00:00	1	Precipitación	0
126388	7	Sololá	701	Sololá	4	Finca Santa Victoria	8	Agosto	2023-08-23T00:00:00	2024-11-08T23:00:00	8	Radiación solar	0
126389	7	Sololá	701	Sololá	4	Finca Santa Victoria	8	Agosto	2023-08-24T00:00:00	2024-11-08T00:00:00	2	Temperatura media	14.6
126390	7	Sololá	701	Sololá	4	Finca Santa Victoria	8	Agosto	2023-08-24T00:00:00	2024-11-08T00:00:00	4	Temperatura máxima	15
126391	7	Sololá	701	Sololá	4	Finca Santa Victoria	8	Agosto	2023-08-24T00:00:00	2024-11-08T00:00:00	3	Temperatura mínima	14.6
126392	7	Sololá	701	Sololá	4	Finca Santa Victoria	8	Agosto	2023-08-24T00:00:00	2024-11-08T00:00:00	5	Humedad	84
126393	7	Sololá	701	Sololá	4	Finca Santa Victoria	8	Agosto	2023-08-24T00:00:00	2024-11-08T00:00:00	6	Velocidad del viento	1.6
126394	7	Sololá	701	Sololá	4	Finca Santa Victoria	8	Agosto	2023-08-24T00:00:00	2024-11-08T00:00:00	7	Dirección del viento	1.61
126395	7	Sololá	701	Sololá	4	Finca Santa Victoria	8	Agosto	2023-08-24T00:00:00	2024-11-08T00:00:00	1	Precipitación	0
126396	7	Sololá	701	Sololá	4	Finca Santa Victoria	8	Agosto	2023-08-24T00:00:00	2024-11-08T00:00:00	8	Radiación solar	0
126397	7	Sololá	701	Sololá	4	Finca Santa Victoria	8	Agosto	2023-08-24T00:00:00	2024-11-08T01:00:00	2	Temperatura media	13.7
126398	7	Sololá	701	Sololá	4	Finca Santa Victoria	8	Agosto	2023-08-24T00:00:00	2024-11-08T01:00:00	4	Temperatura máxima	14.6
126399	7	Sololá	701	Sololá	4	Finca Santa Victoria	8	Agosto	2023-08-24T00:00:00	2024-11-08T01:00:00	3	Temperatura mínima	13.7
126400	7	Sololá	701	Sololá	4	Finca Santa Victoria	8	Agosto	2023-08-24T00:00:00	2024-11-08T01:00:00	5	Humedad	87
126401	7	Sololá	701	Sololá	4	Finca Santa Victoria	8	Agosto	2023-08-24T00:00:00	2024-11-08T01:00:00	6	Velocidad del viento	1.6
126402	7	Sololá	701	Sololá	4	Finca Santa Victoria	8	Agosto	2023-08-24T00:00:00	2024-11-08T01:00:00	7	Dirección del viento	1.61
126403	7	Sololá	701	Sololá	4	Finca Santa Victoria	8	Agosto	2023-08-24T00:00:00	2024-11-08T01:00:00	1	Precipitación	0
126404	7	Sololá	701	Sololá	4	Finca Santa Victoria	8	Agosto	2023-08-24T00:00:00	2024-11-08T01:00:00	8	Radiación solar	0
126405	7	Sololá	701	Sololá	4	Finca Santa Victoria	8	Agosto	2023-08-24T00:00:00	2024-11-08T02:00:00	2	Temperatura media	12.8
126406	7	Sololá	701	Sololá	4	Finca Santa Victoria	8	Agosto	2023-08-24T00:00:00	2024-11-08T02:00:00	4	Temperatura máxima	13.7
126407	7	Sololá	701	Sololá	4	Finca Santa Victoria	8	Agosto	2023-08-24T00:00:00	2024-11-08T02:00:00	3	Temperatura mínima	12.8
126408	7	Sololá	701	Sololá	4	Finca Santa Victoria	8	Agosto	2023-08-24T00:00:00	2024-11-08T02:00:00	5	Humedad	91
126409	7	Sololá	701	Sololá	4	Finca Santa Victoria	8	Agosto	2023-08-24T00:00:00	2024-11-08T02:00:00	6	Velocidad del viento	0
126410	7	Sololá	701	Sololá	4	Finca Santa Victoria	8	Agosto	2023-08-24T00:00:00	2024-11-08T02:00:00	7	Dirección del viento	0
126411	7	Sololá	701	Sololá	4	Finca Santa Victoria	8	Agosto	2023-08-24T00:00:00	2024-11-08T02:00:00	1	Precipitación	0
126412	7	Sololá	701	Sololá	4	Finca Santa Victoria	8	Agosto	2023-08-24T00:00:00	2024-11-08T02:00:00	8	Radiación solar	0
126413	7	Sololá	701	Sololá	4	Finca Santa Victoria	8	Agosto	2023-08-24T00:00:00	2024-11-08T03:00:00	2	Temperatura media	12.7
126414	7	Sololá	701	Sololá	4	Finca Santa Victoria	8	Agosto	2023-08-24T00:00:00	2024-11-08T03:00:00	4	Temperatura máxima	12.9
126415	7	Sololá	701	Sololá	4	Finca Santa Victoria	8	Agosto	2023-08-24T00:00:00	2024-11-08T03:00:00	3	Temperatura mínima	12.7
126416	7	Sololá	701	Sololá	4	Finca Santa Victoria	8	Agosto	2023-08-24T00:00:00	2024-11-08T03:00:00	5	Humedad	94
126417	7	Sololá	701	Sololá	4	Finca Santa Victoria	8	Agosto	2023-08-24T00:00:00	2024-11-08T03:00:00	6	Velocidad del viento	1.6
126418	7	Sololá	701	Sololá	4	Finca Santa Victoria	8	Agosto	2023-08-24T00:00:00	2024-11-08T03:00:00	7	Dirección del viento	1.61
126419	7	Sololá	701	Sololá	4	Finca Santa Victoria	8	Agosto	2023-08-24T00:00:00	2024-11-08T03:00:00	1	Precipitación	0
126420	7	Sololá	701	Sololá	4	Finca Santa Victoria	8	Agosto	2023-08-24T00:00:00	2024-11-08T03:00:00	8	Radiación solar	0
126421	7	Sololá	701	Sololá	4	Finca Santa Victoria	8	Agosto	2023-08-24T00:00:00	2024-11-08T04:00:00	2	Temperatura media	12.4
126422	7	Sololá	701	Sololá	4	Finca Santa Victoria	8	Agosto	2023-08-24T00:00:00	2024-11-08T04:00:00	4	Temperatura máxima	12.7
126423	7	Sololá	701	Sololá	4	Finca Santa Victoria	8	Agosto	2023-08-24T00:00:00	2024-11-08T04:00:00	3	Temperatura mínima	12.4
126424	7	Sololá	701	Sololá	4	Finca Santa Victoria	8	Agosto	2023-08-24T00:00:00	2024-11-08T04:00:00	5	Humedad	95
126425	7	Sololá	701	Sololá	4	Finca Santa Victoria	8	Agosto	2023-08-24T00:00:00	2024-11-08T04:00:00	6	Velocidad del viento	0
126426	7	Sololá	701	Sololá	4	Finca Santa Victoria	8	Agosto	2023-08-24T00:00:00	2024-11-08T04:00:00	7	Dirección del viento	0
126427	7	Sololá	701	Sololá	4	Finca Santa Victoria	8	Agosto	2023-08-24T00:00:00	2024-11-08T04:00:00	1	Precipitación	0
126428	7	Sololá	701	Sololá	4	Finca Santa Victoria	8	Agosto	2023-08-24T00:00:00	2024-11-08T04:00:00	8	Radiación solar	0
126429	7	Sololá	701	Sololá	4	Finca Santa Victoria	8	Agosto	2023-08-24T00:00:00	2024-11-08T05:00:00	2	Temperatura media	12.4
126430	7	Sololá	701	Sololá	4	Finca Santa Victoria	8	Agosto	2023-08-24T00:00:00	2024-11-08T05:00:00	4	Temperatura máxima	12.4
126431	7	Sololá	701	Sololá	4	Finca Santa Victoria	8	Agosto	2023-08-24T00:00:00	2024-11-08T05:00:00	3	Temperatura mínima	12.2
126432	7	Sololá	701	Sololá	4	Finca Santa Victoria	8	Agosto	2023-08-24T00:00:00	2024-11-08T05:00:00	5	Humedad	95
126433	7	Sololá	701	Sololá	4	Finca Santa Victoria	8	Agosto	2023-08-24T00:00:00	2024-11-08T05:00:00	6	Velocidad del viento	0
126434	7	Sololá	701	Sololá	4	Finca Santa Victoria	8	Agosto	2023-08-24T00:00:00	2024-11-08T05:00:00	7	Dirección del viento	0
126435	7	Sololá	701	Sololá	4	Finca Santa Victoria	8	Agosto	2023-08-24T00:00:00	2024-11-08T05:00:00	1	Precipitación	0
126436	7	Sololá	701	Sololá	4	Finca Santa Victoria	8	Agosto	2023-08-24T00:00:00	2024-11-08T05:00:00	8	Radiación solar	0
126437	7	Sololá	701	Sololá	4	Finca Santa Victoria	8	Agosto	2023-08-24T00:00:00	2024-11-08T06:00:00	2	Temperatura media	12.5
126438	7	Sololá	701	Sololá	4	Finca Santa Victoria	8	Agosto	2023-08-24T00:00:00	2024-11-08T06:00:00	4	Temperatura máxima	12.6
126439	7	Sololá	701	Sololá	4	Finca Santa Victoria	8	Agosto	2023-08-24T00:00:00	2024-11-08T06:00:00	3	Temperatura mínima	12.4
126440	7	Sololá	701	Sololá	4	Finca Santa Victoria	8	Agosto	2023-08-24T00:00:00	2024-11-08T06:00:00	5	Humedad	93
126441	7	Sololá	701	Sololá	4	Finca Santa Victoria	8	Agosto	2023-08-24T00:00:00	2024-11-08T06:00:00	6	Velocidad del viento	0
126442	7	Sololá	701	Sololá	4	Finca Santa Victoria	8	Agosto	2023-08-24T00:00:00	2024-11-08T06:00:00	7	Dirección del viento	0
126443	7	Sololá	701	Sololá	4	Finca Santa Victoria	8	Agosto	2023-08-24T00:00:00	2024-11-08T06:00:00	1	Precipitación	0
126444	7	Sololá	701	Sololá	4	Finca Santa Victoria	8	Agosto	2023-08-24T00:00:00	2024-11-08T06:00:00	8	Radiación solar	0
126445	7	Sololá	701	Sololá	4	Finca Santa Victoria	8	Agosto	2023-08-24T00:00:00	2024-11-08T07:00:00	2	Temperatura media	13.7
126446	7	Sololá	701	Sololá	4	Finca Santa Victoria	8	Agosto	2023-08-24T00:00:00	2024-11-08T07:00:00	4	Temperatura máxima	13.7
126447	7	Sololá	701	Sololá	4	Finca Santa Victoria	8	Agosto	2023-08-24T00:00:00	2024-11-08T07:00:00	3	Temperatura mínima	12.5
126448	7	Sololá	701	Sololá	4	Finca Santa Victoria	8	Agosto	2023-08-24T00:00:00	2024-11-08T07:00:00	5	Humedad	88
126449	7	Sololá	701	Sololá	4	Finca Santa Victoria	8	Agosto	2023-08-24T00:00:00	2024-11-08T07:00:00	6	Velocidad del viento	0
126450	7	Sololá	701	Sololá	4	Finca Santa Victoria	8	Agosto	2023-08-24T00:00:00	2024-11-08T07:00:00	7	Dirección del viento	0
126451	7	Sololá	701	Sololá	4	Finca Santa Victoria	8	Agosto	2023-08-24T00:00:00	2024-11-08T07:00:00	1	Precipitación	0
126452	7	Sololá	701	Sololá	4	Finca Santa Victoria	8	Agosto	2023-08-24T00:00:00	2024-11-08T07:00:00	8	Radiación solar	21
126453	7	Sololá	701	Sololá	4	Finca Santa Victoria	8	Agosto	2023-08-24T00:00:00	2024-11-08T08:00:00	2	Temperatura media	15.8
126454	7	Sololá	701	Sololá	4	Finca Santa Victoria	8	Agosto	2023-08-24T00:00:00	2024-11-08T08:00:00	4	Temperatura máxima	15.8
126455	7	Sololá	701	Sololá	4	Finca Santa Victoria	8	Agosto	2023-08-24T00:00:00	2024-11-08T08:00:00	3	Temperatura mínima	13.7
126456	7	Sololá	701	Sololá	4	Finca Santa Victoria	8	Agosto	2023-08-24T00:00:00	2024-11-08T08:00:00	5	Humedad	82
126457	7	Sololá	701	Sololá	4	Finca Santa Victoria	8	Agosto	2023-08-24T00:00:00	2024-11-08T08:00:00	6	Velocidad del viento	1.6
126458	7	Sololá	701	Sololá	4	Finca Santa Victoria	8	Agosto	2023-08-24T00:00:00	2024-11-08T08:00:00	7	Dirección del viento	1.61
126459	7	Sololá	701	Sololá	4	Finca Santa Victoria	8	Agosto	2023-08-24T00:00:00	2024-11-08T08:00:00	1	Precipitación	0
126460	7	Sololá	701	Sololá	4	Finca Santa Victoria	8	Agosto	2023-08-24T00:00:00	2024-11-08T08:00:00	8	Radiación solar	132
126461	7	Sololá	701	Sololá	4	Finca Santa Victoria	8	Agosto	2023-08-24T00:00:00	2024-11-08T09:00:00	2	Temperatura media	16.2
126462	7	Sololá	701	Sololá	4	Finca Santa Victoria	8	Agosto	2023-08-24T00:00:00	2024-11-08T09:00:00	4	Temperatura máxima	16.2
126463	7	Sololá	701	Sololá	4	Finca Santa Victoria	8	Agosto	2023-08-24T00:00:00	2024-11-08T09:00:00	3	Temperatura mínima	15.8
126464	7	Sololá	701	Sololá	4	Finca Santa Victoria	8	Agosto	2023-08-24T00:00:00	2024-11-08T09:00:00	5	Humedad	84
126465	7	Sololá	701	Sololá	4	Finca Santa Victoria	8	Agosto	2023-08-24T00:00:00	2024-11-08T09:00:00	6	Velocidad del viento	1.6
126466	7	Sololá	701	Sololá	4	Finca Santa Victoria	8	Agosto	2023-08-24T00:00:00	2024-11-08T09:00:00	7	Dirección del viento	1.61
126467	7	Sololá	701	Sololá	4	Finca Santa Victoria	8	Agosto	2023-08-24T00:00:00	2024-11-08T09:00:00	1	Precipitación	0
126468	7	Sololá	701	Sololá	4	Finca Santa Victoria	8	Agosto	2023-08-24T00:00:00	2024-11-08T09:00:00	8	Radiación solar	140
126469	7	Sololá	701	Sololá	4	Finca Santa Victoria	8	Agosto	2023-08-24T00:00:00	2024-11-08T10:00:00	2	Temperatura media	16.3
126470	7	Sololá	701	Sololá	4	Finca Santa Victoria	8	Agosto	2023-08-24T00:00:00	2024-11-08T10:00:00	4	Temperatura máxima	16.3
126471	7	Sololá	701	Sololá	4	Finca Santa Victoria	8	Agosto	2023-08-24T00:00:00	2024-11-08T10:00:00	3	Temperatura mínima	15.9
126472	7	Sololá	701	Sololá	4	Finca Santa Victoria	8	Agosto	2023-08-24T00:00:00	2024-11-08T10:00:00	5	Humedad	84
126473	7	Sololá	701	Sololá	4	Finca Santa Victoria	8	Agosto	2023-08-24T00:00:00	2024-11-08T10:00:00	6	Velocidad del viento	1.6
126474	7	Sololá	701	Sololá	4	Finca Santa Victoria	8	Agosto	2023-08-24T00:00:00	2024-11-08T10:00:00	7	Dirección del viento	1.61
126475	7	Sololá	701	Sololá	4	Finca Santa Victoria	8	Agosto	2023-08-24T00:00:00	2024-11-08T10:00:00	1	Precipitación	0
126476	7	Sololá	701	Sololá	4	Finca Santa Victoria	8	Agosto	2023-08-24T00:00:00	2024-11-08T10:00:00	8	Radiación solar	174
126477	7	Sololá	701	Sololá	4	Finca Santa Victoria	8	Agosto	2023-08-24T00:00:00	2024-11-08T11:00:00	2	Temperatura media	15.9
126478	7	Sololá	701	Sololá	4	Finca Santa Victoria	8	Agosto	2023-08-24T00:00:00	2024-11-08T11:00:00	4	Temperatura máxima	17.4
126479	7	Sololá	701	Sololá	4	Finca Santa Victoria	8	Agosto	2023-08-24T00:00:00	2024-11-08T11:00:00	3	Temperatura mínima	15.9
126480	7	Sololá	701	Sololá	4	Finca Santa Victoria	8	Agosto	2023-08-24T00:00:00	2024-11-08T11:00:00	5	Humedad	91
126481	7	Sololá	701	Sololá	4	Finca Santa Victoria	8	Agosto	2023-08-24T00:00:00	2024-11-08T11:00:00	6	Velocidad del viento	1.6
126482	7	Sololá	701	Sololá	4	Finca Santa Victoria	8	Agosto	2023-08-24T00:00:00	2024-11-08T11:00:00	7	Dirección del viento	1.61
126483	7	Sololá	701	Sololá	4	Finca Santa Victoria	8	Agosto	2023-08-24T00:00:00	2024-11-08T11:00:00	1	Precipitación	0
126484	7	Sololá	701	Sololá	4	Finca Santa Victoria	8	Agosto	2023-08-24T00:00:00	2024-11-08T11:00:00	8	Radiación solar	201
126485	7	Sololá	701	Sololá	4	Finca Santa Victoria	8	Agosto	2023-08-24T00:00:00	2024-11-08T12:00:00	2	Temperatura media	15.2
126486	7	Sololá	701	Sololá	4	Finca Santa Victoria	8	Agosto	2023-08-24T00:00:00	2024-11-08T12:00:00	4	Temperatura máxima	15.9
126487	7	Sololá	701	Sololá	4	Finca Santa Victoria	8	Agosto	2023-08-24T00:00:00	2024-11-08T12:00:00	3	Temperatura mínima	15.2
126488	7	Sololá	701	Sololá	4	Finca Santa Victoria	8	Agosto	2023-08-24T00:00:00	2024-11-08T12:00:00	5	Humedad	95
126489	7	Sololá	701	Sololá	4	Finca Santa Victoria	8	Agosto	2023-08-24T00:00:00	2024-11-08T12:00:00	6	Velocidad del viento	1.6
126490	7	Sololá	701	Sololá	4	Finca Santa Victoria	8	Agosto	2023-08-24T00:00:00	2024-11-08T12:00:00	7	Dirección del viento	1.61
126491	7	Sololá	701	Sololá	4	Finca Santa Victoria	8	Agosto	2023-08-24T00:00:00	2024-11-08T12:00:00	1	Precipitación	0.6
126492	7	Sololá	701	Sololá	4	Finca Santa Victoria	8	Agosto	2023-08-24T00:00:00	2024-11-08T12:00:00	8	Radiación solar	113
126493	7	Sololá	701	Sololá	4	Finca Santa Victoria	8	Agosto	2023-08-24T00:00:00	2024-11-08T13:00:00	2	Temperatura media	15
126494	7	Sololá	701	Sololá	4	Finca Santa Victoria	8	Agosto	2023-08-24T00:00:00	2024-11-08T13:00:00	4	Temperatura máxima	15.3
126495	7	Sololá	701	Sololá	4	Finca Santa Victoria	8	Agosto	2023-08-24T00:00:00	2024-11-08T13:00:00	3	Temperatura mínima	14.8
126496	7	Sololá	701	Sololá	4	Finca Santa Victoria	8	Agosto	2023-08-24T00:00:00	2024-11-08T13:00:00	5	Humedad	97
126497	7	Sololá	701	Sololá	4	Finca Santa Victoria	8	Agosto	2023-08-24T00:00:00	2024-11-08T13:00:00	6	Velocidad del viento	1.6
126498	7	Sololá	701	Sololá	4	Finca Santa Victoria	8	Agosto	2023-08-24T00:00:00	2024-11-08T13:00:00	7	Dirección del viento	1.61
126499	7	Sololá	701	Sololá	4	Finca Santa Victoria	8	Agosto	2023-08-24T00:00:00	2024-11-08T13:00:00	1	Precipitación	3.6
126500	7	Sololá	701	Sololá	4	Finca Santa Victoria	8	Agosto	2023-08-24T00:00:00	2024-11-08T13:00:00	8	Radiación solar	72
126501	7	Sololá	701	Sololá	4	Finca Santa Victoria	8	Agosto	2023-08-24T00:00:00	2024-11-08T14:00:00	2	Temperatura media	15.2
126502	7	Sololá	701	Sololá	4	Finca Santa Victoria	8	Agosto	2023-08-24T00:00:00	2024-11-08T14:00:00	4	Temperatura máxima	15.4
126503	7	Sololá	701	Sololá	4	Finca Santa Victoria	8	Agosto	2023-08-24T00:00:00	2024-11-08T14:00:00	3	Temperatura mínima	14.9
126504	7	Sololá	701	Sololá	4	Finca Santa Victoria	8	Agosto	2023-08-24T00:00:00	2024-11-08T14:00:00	5	Humedad	97
126505	7	Sololá	701	Sololá	4	Finca Santa Victoria	8	Agosto	2023-08-24T00:00:00	2024-11-08T14:00:00	6	Velocidad del viento	1.6
126506	7	Sololá	701	Sololá	4	Finca Santa Victoria	8	Agosto	2023-08-24T00:00:00	2024-11-08T14:00:00	7	Dirección del viento	1.61
126507	7	Sololá	701	Sololá	4	Finca Santa Victoria	8	Agosto	2023-08-24T00:00:00	2024-11-08T14:00:00	1	Precipitación	2.2
126508	7	Sololá	701	Sololá	4	Finca Santa Victoria	8	Agosto	2023-08-24T00:00:00	2024-11-08T14:00:00	8	Radiación solar	107
126509	7	Sololá	701	Sololá	4	Finca Santa Victoria	8	Agosto	2023-08-24T00:00:00	2024-11-08T15:00:00	2	Temperatura media	15.4
126510	7	Sololá	701	Sololá	4	Finca Santa Victoria	8	Agosto	2023-08-24T00:00:00	2024-11-08T15:00:00	4	Temperatura máxima	15.8
126511	7	Sololá	701	Sololá	4	Finca Santa Victoria	8	Agosto	2023-08-24T00:00:00	2024-11-08T15:00:00	3	Temperatura mínima	15.1
126512	7	Sololá	701	Sololá	4	Finca Santa Victoria	8	Agosto	2023-08-24T00:00:00	2024-11-08T15:00:00	5	Humedad	93
126513	7	Sololá	701	Sololá	4	Finca Santa Victoria	8	Agosto	2023-08-24T00:00:00	2024-11-08T15:00:00	6	Velocidad del viento	1.6
126514	7	Sololá	701	Sololá	4	Finca Santa Victoria	8	Agosto	2023-08-24T00:00:00	2024-11-08T15:00:00	7	Dirección del viento	1.61
126515	7	Sololá	701	Sololá	4	Finca Santa Victoria	8	Agosto	2023-08-24T00:00:00	2024-11-08T15:00:00	1	Precipitación	0
126516	7	Sololá	701	Sololá	4	Finca Santa Victoria	8	Agosto	2023-08-24T00:00:00	2024-11-08T15:00:00	8	Radiación solar	153
126517	7	Sololá	701	Sololá	4	Finca Santa Victoria	8	Agosto	2023-08-24T00:00:00	2024-11-08T16:00:00	2	Temperatura media	13.8
126518	7	Sololá	701	Sololá	4	Finca Santa Victoria	8	Agosto	2023-08-24T00:00:00	2024-11-08T16:00:00	4	Temperatura máxima	15.4
126519	7	Sololá	701	Sololá	4	Finca Santa Victoria	8	Agosto	2023-08-24T00:00:00	2024-11-08T16:00:00	3	Temperatura mínima	13.8
126520	7	Sololá	701	Sololá	4	Finca Santa Victoria	8	Agosto	2023-08-24T00:00:00	2024-11-08T16:00:00	5	Humedad	96
126521	7	Sololá	701	Sololá	4	Finca Santa Victoria	8	Agosto	2023-08-24T00:00:00	2024-11-08T16:00:00	6	Velocidad del viento	1.6
126522	7	Sololá	701	Sololá	4	Finca Santa Victoria	8	Agosto	2023-08-24T00:00:00	2024-11-08T16:00:00	7	Dirección del viento	1.61
126523	7	Sololá	701	Sololá	4	Finca Santa Victoria	8	Agosto	2023-08-24T00:00:00	2024-11-08T16:00:00	1	Precipitación	13
126524	7	Sololá	701	Sololá	4	Finca Santa Victoria	8	Agosto	2023-08-24T00:00:00	2024-11-08T16:00:00	8	Radiación solar	30
126525	7	Sololá	701	Sololá	4	Finca Santa Victoria	8	Agosto	2023-08-24T00:00:00	2024-11-08T17:00:00	2	Temperatura media	14.7
126526	7	Sololá	701	Sololá	4	Finca Santa Victoria	8	Agosto	2023-08-24T00:00:00	2024-11-08T17:00:00	4	Temperatura máxima	14.8
126527	7	Sololá	701	Sololá	4	Finca Santa Victoria	8	Agosto	2023-08-24T00:00:00	2024-11-08T17:00:00	3	Temperatura mínima	13.8
126528	7	Sololá	701	Sololá	4	Finca Santa Victoria	8	Agosto	2023-08-24T00:00:00	2024-11-08T17:00:00	5	Humedad	96
126529	7	Sololá	701	Sololá	4	Finca Santa Victoria	8	Agosto	2023-08-24T00:00:00	2024-11-08T17:00:00	6	Velocidad del viento	0
126530	7	Sololá	701	Sololá	4	Finca Santa Victoria	8	Agosto	2023-08-24T00:00:00	2024-11-08T17:00:00	7	Dirección del viento	0
126531	7	Sololá	701	Sololá	4	Finca Santa Victoria	8	Agosto	2023-08-24T00:00:00	2024-11-08T17:00:00	1	Precipitación	0
126532	7	Sololá	701	Sololá	4	Finca Santa Victoria	8	Agosto	2023-08-24T00:00:00	2024-11-08T17:00:00	8	Radiación solar	79
126533	7	Sololá	701	Sololá	4	Finca Santa Victoria	8	Agosto	2023-08-24T00:00:00	2024-11-08T18:00:00	2	Temperatura media	14
126534	7	Sololá	701	Sololá	4	Finca Santa Victoria	8	Agosto	2023-08-24T00:00:00	2024-11-08T18:00:00	4	Temperatura máxima	14.8
126535	7	Sololá	701	Sololá	4	Finca Santa Victoria	8	Agosto	2023-08-24T00:00:00	2024-11-08T18:00:00	3	Temperatura mínima	14
126536	7	Sololá	701	Sololá	4	Finca Santa Victoria	8	Agosto	2023-08-24T00:00:00	2024-11-08T18:00:00	5	Humedad	95
126537	7	Sololá	701	Sololá	4	Finca Santa Victoria	8	Agosto	2023-08-24T00:00:00	2024-11-08T18:00:00	6	Velocidad del viento	0
126538	7	Sololá	701	Sololá	4	Finca Santa Victoria	8	Agosto	2023-08-24T00:00:00	2024-11-08T18:00:00	7	Dirección del viento	0
126539	7	Sololá	701	Sololá	4	Finca Santa Victoria	8	Agosto	2023-08-24T00:00:00	2024-11-08T18:00:00	1	Precipitación	0
126540	7	Sololá	701	Sololá	4	Finca Santa Victoria	8	Agosto	2023-08-24T00:00:00	2024-11-08T18:00:00	8	Radiación solar	39
126541	7	Sololá	701	Sololá	4	Finca Santa Victoria	8	Agosto	2023-08-24T00:00:00	2024-11-08T19:00:00	2	Temperatura media	14.1
126542	7	Sololá	701	Sololá	4	Finca Santa Victoria	8	Agosto	2023-08-24T00:00:00	2024-11-08T19:00:00	4	Temperatura máxima	14.1
126543	7	Sololá	701	Sololá	4	Finca Santa Victoria	8	Agosto	2023-08-24T00:00:00	2024-11-08T19:00:00	3	Temperatura mínima	13.9
126544	7	Sololá	701	Sololá	4	Finca Santa Victoria	8	Agosto	2023-08-24T00:00:00	2024-11-08T19:00:00	5	Humedad	97
126545	7	Sololá	701	Sololá	4	Finca Santa Victoria	8	Agosto	2023-08-24T00:00:00	2024-11-08T19:00:00	6	Velocidad del viento	1.6
126546	7	Sololá	701	Sololá	4	Finca Santa Victoria	8	Agosto	2023-08-24T00:00:00	2024-11-08T19:00:00	7	Dirección del viento	1.61
126547	7	Sololá	701	Sololá	4	Finca Santa Victoria	8	Agosto	2023-08-24T00:00:00	2024-11-08T19:00:00	1	Precipitación	0
126548	7	Sololá	701	Sololá	4	Finca Santa Victoria	8	Agosto	2023-08-24T00:00:00	2024-11-08T19:00:00	8	Radiación solar	0
126549	7	Sololá	701	Sololá	4	Finca Santa Victoria	8	Agosto	2023-08-24T00:00:00	2024-11-08T20:00:00	2	Temperatura media	13.9
126550	7	Sololá	701	Sololá	4	Finca Santa Victoria	8	Agosto	2023-08-24T00:00:00	2024-11-08T20:00:00	4	Temperatura máxima	14.2
126551	7	Sololá	701	Sololá	4	Finca Santa Victoria	8	Agosto	2023-08-24T00:00:00	2024-11-08T20:00:00	3	Temperatura mínima	13.9
126552	7	Sololá	701	Sololá	4	Finca Santa Victoria	8	Agosto	2023-08-24T00:00:00	2024-11-08T20:00:00	5	Humedad	97
126553	7	Sololá	701	Sololá	4	Finca Santa Victoria	8	Agosto	2023-08-24T00:00:00	2024-11-08T20:00:00	6	Velocidad del viento	0
126554	7	Sololá	701	Sololá	4	Finca Santa Victoria	8	Agosto	2023-08-24T00:00:00	2024-11-08T20:00:00	7	Dirección del viento	0
126555	7	Sololá	701	Sololá	4	Finca Santa Victoria	8	Agosto	2023-08-24T00:00:00	2024-11-08T20:00:00	1	Precipitación	0
126556	7	Sololá	701	Sololá	4	Finca Santa Victoria	8	Agosto	2023-08-24T00:00:00	2024-11-08T20:00:00	8	Radiación solar	0
126557	7	Sololá	701	Sololá	4	Finca Santa Victoria	8	Agosto	2023-08-24T00:00:00	2024-11-08T21:00:00	2	Temperatura media	13.7
126558	7	Sololá	701	Sololá	4	Finca Santa Victoria	8	Agosto	2023-08-24T00:00:00	2024-11-08T21:00:00	4	Temperatura máxima	13.9
126559	7	Sololá	701	Sololá	4	Finca Santa Victoria	8	Agosto	2023-08-24T00:00:00	2024-11-08T21:00:00	3	Temperatura mínima	13.6
126560	7	Sololá	701	Sololá	4	Finca Santa Victoria	8	Agosto	2023-08-24T00:00:00	2024-11-08T21:00:00	5	Humedad	97
126561	7	Sololá	701	Sololá	4	Finca Santa Victoria	8	Agosto	2023-08-24T00:00:00	2024-11-08T21:00:00	6	Velocidad del viento	0
126562	7	Sololá	701	Sololá	4	Finca Santa Victoria	8	Agosto	2023-08-24T00:00:00	2024-11-08T21:00:00	7	Dirección del viento	0
126563	7	Sololá	701	Sololá	4	Finca Santa Victoria	8	Agosto	2023-08-24T00:00:00	2024-11-08T21:00:00	1	Precipitación	0
126564	7	Sololá	701	Sololá	4	Finca Santa Victoria	8	Agosto	2023-08-24T00:00:00	2024-11-08T21:00:00	8	Radiación solar	0
126565	7	Sololá	701	Sololá	4	Finca Santa Victoria	8	Agosto	2023-08-24T00:00:00	2024-11-08T22:00:00	2	Temperatura media	13.8
126566	7	Sololá	701	Sololá	4	Finca Santa Victoria	8	Agosto	2023-08-24T00:00:00	2024-11-08T22:00:00	4	Temperatura máxima	14
126567	7	Sololá	701	Sololá	4	Finca Santa Victoria	8	Agosto	2023-08-24T00:00:00	2024-11-08T22:00:00	3	Temperatura mínima	13.6
126568	7	Sololá	701	Sololá	4	Finca Santa Victoria	8	Agosto	2023-08-24T00:00:00	2024-11-08T22:00:00	5	Humedad	97
126569	7	Sololá	701	Sololá	4	Finca Santa Victoria	8	Agosto	2023-08-24T00:00:00	2024-11-08T22:00:00	6	Velocidad del viento	0
126570	7	Sololá	701	Sololá	4	Finca Santa Victoria	8	Agosto	2023-08-24T00:00:00	2024-11-08T22:00:00	7	Dirección del viento	0
126571	7	Sololá	701	Sololá	4	Finca Santa Victoria	8	Agosto	2023-08-24T00:00:00	2024-11-08T22:00:00	1	Precipitación	0
126572	7	Sololá	701	Sololá	4	Finca Santa Victoria	8	Agosto	2023-08-24T00:00:00	2024-11-08T22:00:00	8	Radiación solar	0
126573	7	Sololá	701	Sololá	4	Finca Santa Victoria	8	Agosto	2023-08-24T00:00:00	2024-11-08T23:00:00	2	Temperatura media	13.4
126574	7	Sololá	701	Sololá	4	Finca Santa Victoria	8	Agosto	2023-08-24T00:00:00	2024-11-08T23:00:00	4	Temperatura máxima	13.8
126575	7	Sololá	701	Sololá	4	Finca Santa Victoria	8	Agosto	2023-08-24T00:00:00	2024-11-08T23:00:00	3	Temperatura mínima	13.3
126576	7	Sololá	701	Sololá	4	Finca Santa Victoria	8	Agosto	2023-08-24T00:00:00	2024-11-08T23:00:00	5	Humedad	97
126577	7	Sololá	701	Sololá	4	Finca Santa Victoria	8	Agosto	2023-08-24T00:00:00	2024-11-08T23:00:00	6	Velocidad del viento	0
126578	7	Sololá	701	Sololá	4	Finca Santa Victoria	8	Agosto	2023-08-24T00:00:00	2024-11-08T23:00:00	7	Dirección del viento	0
126579	7	Sololá	701	Sololá	4	Finca Santa Victoria	8	Agosto	2023-08-24T00:00:00	2024-11-08T23:00:00	1	Precipitación	0
126580	7	Sololá	701	Sololá	4	Finca Santa Victoria	8	Agosto	2023-08-24T00:00:00	2024-11-08T23:00:00	8	Radiación solar	0
126581	7	Sololá	701	Sololá	4	Finca Santa Victoria	8	Agosto	2023-08-25T00:00:00	2024-11-08T00:00:00	2	Temperatura media	13.6
126582	7	Sololá	701	Sololá	4	Finca Santa Victoria	8	Agosto	2023-08-25T00:00:00	2024-11-08T00:00:00	4	Temperatura máxima	13.6
126583	7	Sololá	701	Sololá	4	Finca Santa Victoria	8	Agosto	2023-08-25T00:00:00	2024-11-08T00:00:00	3	Temperatura mínima	13.4
126584	7	Sololá	701	Sololá	4	Finca Santa Victoria	8	Agosto	2023-08-25T00:00:00	2024-11-08T00:00:00	5	Humedad	98
126585	7	Sololá	701	Sololá	4	Finca Santa Victoria	8	Agosto	2023-08-25T00:00:00	2024-11-08T00:00:00	6	Velocidad del viento	0
126586	7	Sololá	701	Sololá	4	Finca Santa Victoria	8	Agosto	2023-08-25T00:00:00	2024-11-08T00:00:00	7	Dirección del viento	0
126587	7	Sololá	701	Sololá	4	Finca Santa Victoria	8	Agosto	2023-08-25T00:00:00	2024-11-08T00:00:00	1	Precipitación	0
126588	7	Sololá	701	Sololá	4	Finca Santa Victoria	8	Agosto	2023-08-25T00:00:00	2024-11-08T00:00:00	8	Radiación solar	0
126589	7	Sololá	701	Sololá	4	Finca Santa Victoria	8	Agosto	2023-08-25T00:00:00	2024-11-08T01:00:00	2	Temperatura media	13.5
126590	7	Sololá	701	Sololá	4	Finca Santa Victoria	8	Agosto	2023-08-25T00:00:00	2024-11-08T01:00:00	4	Temperatura máxima	13.6
126591	7	Sololá	701	Sololá	4	Finca Santa Victoria	8	Agosto	2023-08-25T00:00:00	2024-11-08T01:00:00	3	Temperatura mínima	13.4
126592	7	Sololá	701	Sololá	4	Finca Santa Victoria	8	Agosto	2023-08-25T00:00:00	2024-11-08T01:00:00	5	Humedad	98
126593	7	Sololá	701	Sololá	4	Finca Santa Victoria	8	Agosto	2023-08-25T00:00:00	2024-11-08T01:00:00	6	Velocidad del viento	0
126594	7	Sololá	701	Sololá	4	Finca Santa Victoria	8	Agosto	2023-08-25T00:00:00	2024-11-08T01:00:00	7	Dirección del viento	0
126595	7	Sololá	701	Sololá	4	Finca Santa Victoria	8	Agosto	2023-08-25T00:00:00	2024-11-08T01:00:00	1	Precipitación	0
126596	7	Sololá	701	Sololá	4	Finca Santa Victoria	8	Agosto	2023-08-25T00:00:00	2024-11-08T01:00:00	8	Radiación solar	0
126597	7	Sololá	701	Sololá	4	Finca Santa Victoria	8	Agosto	2023-08-25T00:00:00	2024-11-08T02:00:00	2	Temperatura media	13.4
126598	7	Sololá	701	Sololá	4	Finca Santa Victoria	8	Agosto	2023-08-25T00:00:00	2024-11-08T02:00:00	4	Temperatura máxima	13.6
126599	7	Sololá	701	Sololá	4	Finca Santa Victoria	8	Agosto	2023-08-25T00:00:00	2024-11-08T02:00:00	3	Temperatura mínima	13.3
126600	7	Sololá	701	Sololá	4	Finca Santa Victoria	8	Agosto	2023-08-25T00:00:00	2024-11-08T02:00:00	5	Humedad	98
126601	7	Sololá	701	Sololá	4	Finca Santa Victoria	8	Agosto	2023-08-25T00:00:00	2024-11-08T02:00:00	6	Velocidad del viento	0
126602	7	Sololá	701	Sololá	4	Finca Santa Victoria	8	Agosto	2023-08-25T00:00:00	2024-11-08T02:00:00	7	Dirección del viento	0
126603	7	Sololá	701	Sololá	4	Finca Santa Victoria	8	Agosto	2023-08-25T00:00:00	2024-11-08T02:00:00	1	Precipitación	0
126604	7	Sololá	701	Sololá	4	Finca Santa Victoria	8	Agosto	2023-08-25T00:00:00	2024-11-08T02:00:00	8	Radiación solar	0
126605	7	Sololá	701	Sololá	4	Finca Santa Victoria	8	Agosto	2023-08-25T00:00:00	2024-11-08T03:00:00	2	Temperatura media	13.1
126606	7	Sololá	701	Sololá	4	Finca Santa Victoria	8	Agosto	2023-08-25T00:00:00	2024-11-08T03:00:00	4	Temperatura máxima	13.4
126607	7	Sololá	701	Sololá	4	Finca Santa Victoria	8	Agosto	2023-08-25T00:00:00	2024-11-08T03:00:00	3	Temperatura mínima	13.1
126608	7	Sololá	701	Sololá	4	Finca Santa Victoria	8	Agosto	2023-08-25T00:00:00	2024-11-08T03:00:00	5	Humedad	98
126609	7	Sololá	701	Sololá	4	Finca Santa Victoria	8	Agosto	2023-08-25T00:00:00	2024-11-08T03:00:00	6	Velocidad del viento	0
126610	7	Sololá	701	Sololá	4	Finca Santa Victoria	8	Agosto	2023-08-25T00:00:00	2024-11-08T03:00:00	7	Dirección del viento	0
126611	7	Sololá	701	Sololá	4	Finca Santa Victoria	8	Agosto	2023-08-25T00:00:00	2024-11-08T03:00:00	1	Precipitación	0
126612	7	Sololá	701	Sololá	4	Finca Santa Victoria	8	Agosto	2023-08-25T00:00:00	2024-11-08T03:00:00	8	Radiación solar	0
126613	7	Sololá	701	Sololá	4	Finca Santa Victoria	8	Agosto	2023-08-25T00:00:00	2024-11-08T04:00:00	2	Temperatura media	13
126614	7	Sololá	701	Sololá	4	Finca Santa Victoria	8	Agosto	2023-08-25T00:00:00	2024-11-08T04:00:00	4	Temperatura máxima	13.3
126615	7	Sololá	701	Sololá	4	Finca Santa Victoria	8	Agosto	2023-08-25T00:00:00	2024-11-08T04:00:00	3	Temperatura mínima	13
126616	7	Sololá	701	Sololá	4	Finca Santa Victoria	8	Agosto	2023-08-25T00:00:00	2024-11-08T04:00:00	5	Humedad	97
126617	7	Sololá	701	Sololá	4	Finca Santa Victoria	8	Agosto	2023-08-25T00:00:00	2024-11-08T04:00:00	6	Velocidad del viento	0
126618	7	Sololá	701	Sololá	4	Finca Santa Victoria	8	Agosto	2023-08-25T00:00:00	2024-11-08T04:00:00	7	Dirección del viento	0
126619	7	Sololá	701	Sololá	4	Finca Santa Victoria	8	Agosto	2023-08-25T00:00:00	2024-11-08T04:00:00	1	Precipitación	0
126620	7	Sololá	701	Sololá	4	Finca Santa Victoria	8	Agosto	2023-08-25T00:00:00	2024-11-08T04:00:00	8	Radiación solar	0
126621	7	Sololá	701	Sololá	4	Finca Santa Victoria	8	Agosto	2023-08-25T00:00:00	2024-11-08T05:00:00	2	Temperatura media	12.9
126622	7	Sololá	701	Sololá	4	Finca Santa Victoria	8	Agosto	2023-08-25T00:00:00	2024-11-08T05:00:00	4	Temperatura máxima	13.1
126623	7	Sololá	701	Sololá	4	Finca Santa Victoria	8	Agosto	2023-08-25T00:00:00	2024-11-08T05:00:00	3	Temperatura mínima	12.9
126624	7	Sololá	701	Sololá	4	Finca Santa Victoria	8	Agosto	2023-08-25T00:00:00	2024-11-08T05:00:00	5	Humedad	98
126625	7	Sololá	701	Sololá	4	Finca Santa Victoria	8	Agosto	2023-08-25T00:00:00	2024-11-08T05:00:00	6	Velocidad del viento	1.6
126626	7	Sololá	701	Sololá	4	Finca Santa Victoria	8	Agosto	2023-08-25T00:00:00	2024-11-08T05:00:00	7	Dirección del viento	1.61
126627	7	Sololá	701	Sololá	4	Finca Santa Victoria	8	Agosto	2023-08-25T00:00:00	2024-11-08T05:00:00	1	Precipitación	0
126628	7	Sololá	701	Sololá	4	Finca Santa Victoria	8	Agosto	2023-08-25T00:00:00	2024-11-08T05:00:00	8	Radiación solar	0
126629	7	Sololá	701	Sololá	4	Finca Santa Victoria	8	Agosto	2023-08-25T00:00:00	2024-11-08T06:00:00	2	Temperatura media	12.7
126630	7	Sololá	701	Sololá	4	Finca Santa Victoria	8	Agosto	2023-08-25T00:00:00	2024-11-08T06:00:00	4	Temperatura máxima	12.9
126631	7	Sololá	701	Sololá	4	Finca Santa Victoria	8	Agosto	2023-08-25T00:00:00	2024-11-08T06:00:00	3	Temperatura mínima	12.7
126632	7	Sololá	701	Sololá	4	Finca Santa Victoria	8	Agosto	2023-08-25T00:00:00	2024-11-08T06:00:00	5	Humedad	98
126633	7	Sololá	701	Sololá	4	Finca Santa Victoria	8	Agosto	2023-08-25T00:00:00	2024-11-08T06:00:00	6	Velocidad del viento	0
126634	7	Sololá	701	Sololá	4	Finca Santa Victoria	8	Agosto	2023-08-25T00:00:00	2024-11-08T06:00:00	7	Dirección del viento	0
126635	7	Sololá	701	Sololá	4	Finca Santa Victoria	8	Agosto	2023-08-25T00:00:00	2024-11-08T06:00:00	1	Precipitación	0
126636	7	Sololá	701	Sololá	4	Finca Santa Victoria	8	Agosto	2023-08-25T00:00:00	2024-11-08T06:00:00	8	Radiación solar	0
126637	7	Sololá	701	Sololá	4	Finca Santa Victoria	8	Agosto	2023-08-25T00:00:00	2024-11-08T07:00:00	2	Temperatura media	12.9
126638	7	Sololá	701	Sololá	4	Finca Santa Victoria	8	Agosto	2023-08-25T00:00:00	2024-11-08T07:00:00	4	Temperatura máxima	12.9
126639	7	Sololá	701	Sololá	4	Finca Santa Victoria	8	Agosto	2023-08-25T00:00:00	2024-11-08T07:00:00	3	Temperatura mínima	12.7
126640	7	Sololá	701	Sololá	4	Finca Santa Victoria	8	Agosto	2023-08-25T00:00:00	2024-11-08T07:00:00	5	Humedad	98
126641	7	Sololá	701	Sololá	4	Finca Santa Victoria	8	Agosto	2023-08-25T00:00:00	2024-11-08T07:00:00	6	Velocidad del viento	0
126642	7	Sololá	701	Sololá	4	Finca Santa Victoria	8	Agosto	2023-08-25T00:00:00	2024-11-08T07:00:00	7	Dirección del viento	0
126643	7	Sololá	701	Sololá	4	Finca Santa Victoria	8	Agosto	2023-08-25T00:00:00	2024-11-08T07:00:00	1	Precipitación	0
126644	7	Sololá	701	Sololá	4	Finca Santa Victoria	8	Agosto	2023-08-25T00:00:00	2024-11-08T07:00:00	8	Radiación solar	18
126645	7	Sololá	701	Sololá	4	Finca Santa Victoria	8	Agosto	2023-08-25T00:00:00	2024-11-08T08:00:00	2	Temperatura media	14.8
126646	7	Sololá	701	Sololá	4	Finca Santa Victoria	8	Agosto	2023-08-25T00:00:00	2024-11-08T08:00:00	4	Temperatura máxima	14.9
126647	7	Sololá	701	Sololá	4	Finca Santa Victoria	8	Agosto	2023-08-25T00:00:00	2024-11-08T08:00:00	3	Temperatura mínima	12.9
126648	7	Sololá	701	Sololá	4	Finca Santa Victoria	8	Agosto	2023-08-25T00:00:00	2024-11-08T08:00:00	5	Humedad	94
126649	7	Sololá	701	Sololá	4	Finca Santa Victoria	8	Agosto	2023-08-25T00:00:00	2024-11-08T08:00:00	6	Velocidad del viento	0
126650	7	Sololá	701	Sololá	4	Finca Santa Victoria	8	Agosto	2023-08-25T00:00:00	2024-11-08T08:00:00	7	Dirección del viento	0
126651	7	Sololá	701	Sololá	4	Finca Santa Victoria	8	Agosto	2023-08-25T00:00:00	2024-11-08T08:00:00	1	Precipitación	0
126652	7	Sololá	701	Sololá	4	Finca Santa Victoria	8	Agosto	2023-08-25T00:00:00	2024-11-08T08:00:00	8	Radiación solar	121
126653	7	Sololá	701	Sololá	4	Finca Santa Victoria	8	Agosto	2023-08-25T00:00:00	2024-11-08T09:00:00	2	Temperatura media	15.8
126654	7	Sololá	701	Sololá	4	Finca Santa Victoria	8	Agosto	2023-08-25T00:00:00	2024-11-08T09:00:00	4	Temperatura máxima	15.9
126655	7	Sololá	701	Sololá	4	Finca Santa Victoria	8	Agosto	2023-08-25T00:00:00	2024-11-08T09:00:00	3	Temperatura mínima	14.8
126656	7	Sololá	701	Sololá	4	Finca Santa Victoria	8	Agosto	2023-08-25T00:00:00	2024-11-08T09:00:00	5	Humedad	89
126657	7	Sololá	701	Sololá	4	Finca Santa Victoria	8	Agosto	2023-08-25T00:00:00	2024-11-08T09:00:00	6	Velocidad del viento	0
126658	7	Sololá	701	Sololá	4	Finca Santa Victoria	8	Agosto	2023-08-25T00:00:00	2024-11-08T09:00:00	7	Dirección del viento	0
126659	7	Sololá	701	Sololá	4	Finca Santa Victoria	8	Agosto	2023-08-25T00:00:00	2024-11-08T09:00:00	1	Precipitación	0
126660	7	Sololá	701	Sololá	4	Finca Santa Victoria	8	Agosto	2023-08-25T00:00:00	2024-11-08T09:00:00	8	Radiación solar	174
126661	7	Sololá	701	Sololá	4	Finca Santa Victoria	8	Agosto	2023-08-25T00:00:00	2024-11-08T10:00:00	2	Temperatura media	16.5
126662	7	Sololá	701	Sololá	4	Finca Santa Victoria	8	Agosto	2023-08-25T00:00:00	2024-11-08T10:00:00	4	Temperatura máxima	16.5
126663	7	Sololá	701	Sololá	4	Finca Santa Victoria	8	Agosto	2023-08-25T00:00:00	2024-11-08T10:00:00	3	Temperatura mínima	15.8
126664	7	Sololá	701	Sololá	4	Finca Santa Victoria	8	Agosto	2023-08-25T00:00:00	2024-11-08T10:00:00	5	Humedad	90
126665	7	Sololá	701	Sololá	4	Finca Santa Victoria	8	Agosto	2023-08-25T00:00:00	2024-11-08T10:00:00	6	Velocidad del viento	3.2
126666	7	Sololá	701	Sololá	4	Finca Santa Victoria	8	Agosto	2023-08-25T00:00:00	2024-11-08T10:00:00	7	Dirección del viento	3.22
126667	7	Sololá	701	Sololá	4	Finca Santa Victoria	8	Agosto	2023-08-25T00:00:00	2024-11-08T10:00:00	1	Precipitación	0
126668	7	Sololá	701	Sololá	4	Finca Santa Victoria	8	Agosto	2023-08-25T00:00:00	2024-11-08T10:00:00	8	Radiación solar	255
126669	7	Sololá	701	Sololá	4	Finca Santa Victoria	8	Agosto	2023-08-25T00:00:00	2024-11-08T11:00:00	2	Temperatura media	17.4
126670	7	Sololá	701	Sololá	4	Finca Santa Victoria	8	Agosto	2023-08-25T00:00:00	2024-11-08T11:00:00	4	Temperatura máxima	17.6
126671	7	Sololá	701	Sololá	4	Finca Santa Victoria	8	Agosto	2023-08-25T00:00:00	2024-11-08T11:00:00	3	Temperatura mínima	16.4
126672	7	Sololá	701	Sololá	4	Finca Santa Victoria	8	Agosto	2023-08-25T00:00:00	2024-11-08T11:00:00	5	Humedad	88
126673	7	Sololá	701	Sololá	4	Finca Santa Victoria	8	Agosto	2023-08-25T00:00:00	2024-11-08T11:00:00	6	Velocidad del viento	3.2
126674	7	Sololá	701	Sololá	4	Finca Santa Victoria	8	Agosto	2023-08-25T00:00:00	2024-11-08T11:00:00	7	Dirección del viento	3.22
126675	7	Sololá	701	Sololá	4	Finca Santa Victoria	8	Agosto	2023-08-25T00:00:00	2024-11-08T11:00:00	1	Precipitación	0
126676	7	Sololá	701	Sololá	4	Finca Santa Victoria	8	Agosto	2023-08-25T00:00:00	2024-11-08T11:00:00	8	Radiación solar	505
126677	7	Sololá	701	Sololá	4	Finca Santa Victoria	8	Agosto	2023-08-25T00:00:00	2024-11-08T12:00:00	2	Temperatura media	18.4
126678	7	Sololá	701	Sololá	4	Finca Santa Victoria	8	Agosto	2023-08-25T00:00:00	2024-11-08T12:00:00	4	Temperatura máxima	18.4
126679	7	Sololá	701	Sololá	4	Finca Santa Victoria	8	Agosto	2023-08-25T00:00:00	2024-11-08T12:00:00	3	Temperatura mínima	17.4
126680	7	Sololá	701	Sololá	4	Finca Santa Victoria	8	Agosto	2023-08-25T00:00:00	2024-11-08T12:00:00	5	Humedad	84
126681	7	Sololá	701	Sololá	4	Finca Santa Victoria	8	Agosto	2023-08-25T00:00:00	2024-11-08T12:00:00	6	Velocidad del viento	3.2
126682	7	Sololá	701	Sololá	4	Finca Santa Victoria	8	Agosto	2023-08-25T00:00:00	2024-11-08T12:00:00	7	Dirección del viento	3.22
126683	7	Sololá	701	Sololá	4	Finca Santa Victoria	8	Agosto	2023-08-25T00:00:00	2024-11-08T12:00:00	1	Precipitación	0
126684	7	Sololá	701	Sololá	4	Finca Santa Victoria	8	Agosto	2023-08-25T00:00:00	2024-11-08T12:00:00	8	Radiación solar	594
126685	7	Sololá	701	Sololá	4	Finca Santa Victoria	8	Agosto	2023-08-25T00:00:00	2024-11-08T13:00:00	2	Temperatura media	18.3
126686	7	Sololá	701	Sololá	4	Finca Santa Victoria	8	Agosto	2023-08-25T00:00:00	2024-11-08T13:00:00	4	Temperatura máxima	19.2
126687	7	Sololá	701	Sololá	4	Finca Santa Victoria	8	Agosto	2023-08-25T00:00:00	2024-11-08T13:00:00	3	Temperatura mínima	18.2
126688	7	Sololá	701	Sololá	4	Finca Santa Victoria	8	Agosto	2023-08-25T00:00:00	2024-11-08T13:00:00	5	Humedad	86
126689	7	Sololá	701	Sololá	4	Finca Santa Victoria	8	Agosto	2023-08-25T00:00:00	2024-11-08T13:00:00	6	Velocidad del viento	4.8
126690	7	Sololá	701	Sololá	4	Finca Santa Victoria	8	Agosto	2023-08-25T00:00:00	2024-11-08T13:00:00	7	Dirección del viento	4.83
126691	7	Sololá	701	Sololá	4	Finca Santa Victoria	8	Agosto	2023-08-25T00:00:00	2024-11-08T13:00:00	1	Precipitación	0
126692	7	Sololá	701	Sololá	4	Finca Santa Victoria	8	Agosto	2023-08-25T00:00:00	2024-11-08T13:00:00	8	Radiación solar	465
126693	7	Sololá	701	Sololá	4	Finca Santa Victoria	8	Agosto	2023-08-25T00:00:00	2024-11-08T14:00:00	2	Temperatura media	17.3
126694	7	Sololá	701	Sololá	4	Finca Santa Victoria	8	Agosto	2023-08-25T00:00:00	2024-11-08T14:00:00	4	Temperatura máxima	18.2
126695	7	Sololá	701	Sololá	4	Finca Santa Victoria	8	Agosto	2023-08-25T00:00:00	2024-11-08T14:00:00	3	Temperatura mínima	17.1
126696	7	Sololá	701	Sololá	4	Finca Santa Victoria	8	Agosto	2023-08-25T00:00:00	2024-11-08T14:00:00	5	Humedad	91
126697	7	Sololá	701	Sololá	4	Finca Santa Victoria	8	Agosto	2023-08-25T00:00:00	2024-11-08T14:00:00	6	Velocidad del viento	3.2
126698	7	Sololá	701	Sololá	4	Finca Santa Victoria	8	Agosto	2023-08-25T00:00:00	2024-11-08T14:00:00	7	Dirección del viento	3.22
126699	7	Sololá	701	Sololá	4	Finca Santa Victoria	8	Agosto	2023-08-25T00:00:00	2024-11-08T14:00:00	1	Precipitación	0
126700	7	Sololá	701	Sololá	4	Finca Santa Victoria	8	Agosto	2023-08-25T00:00:00	2024-11-08T14:00:00	8	Radiación solar	214
126701	7	Sololá	701	Sololá	4	Finca Santa Victoria	8	Agosto	2023-08-25T00:00:00	2024-11-08T15:00:00	2	Temperatura media	17.6
126702	7	Sololá	701	Sololá	4	Finca Santa Victoria	8	Agosto	2023-08-25T00:00:00	2024-11-08T15:00:00	4	Temperatura máxima	17.7
126703	7	Sololá	701	Sololá	4	Finca Santa Victoria	8	Agosto	2023-08-25T00:00:00	2024-11-08T15:00:00	3	Temperatura mínima	17.1
126704	7	Sololá	701	Sololá	4	Finca Santa Victoria	8	Agosto	2023-08-25T00:00:00	2024-11-08T15:00:00	5	Humedad	89
126705	7	Sololá	701	Sololá	4	Finca Santa Victoria	8	Agosto	2023-08-25T00:00:00	2024-11-08T15:00:00	6	Velocidad del viento	3.2
126706	7	Sololá	701	Sololá	4	Finca Santa Victoria	8	Agosto	2023-08-25T00:00:00	2024-11-08T15:00:00	7	Dirección del viento	3.22
126707	7	Sololá	701	Sololá	4	Finca Santa Victoria	8	Agosto	2023-08-25T00:00:00	2024-11-08T15:00:00	1	Precipitación	0
126708	7	Sololá	701	Sololá	4	Finca Santa Victoria	8	Agosto	2023-08-25T00:00:00	2024-11-08T15:00:00	8	Radiación solar	174
126709	7	Sololá	701	Sololá	4	Finca Santa Victoria	8	Agosto	2023-08-25T00:00:00	2024-11-08T16:00:00	2	Temperatura media	17.2
126710	7	Sololá	701	Sololá	4	Finca Santa Victoria	8	Agosto	2023-08-25T00:00:00	2024-11-08T16:00:00	4	Temperatura máxima	18.3
126711	7	Sololá	701	Sololá	4	Finca Santa Victoria	8	Agosto	2023-08-25T00:00:00	2024-11-08T16:00:00	3	Temperatura mínima	17.2
126712	7	Sololá	701	Sololá	4	Finca Santa Victoria	8	Agosto	2023-08-25T00:00:00	2024-11-08T16:00:00	5	Humedad	91
126713	7	Sololá	701	Sololá	4	Finca Santa Victoria	8	Agosto	2023-08-25T00:00:00	2024-11-08T16:00:00	6	Velocidad del viento	3.2
126714	7	Sololá	701	Sololá	4	Finca Santa Victoria	8	Agosto	2023-08-25T00:00:00	2024-11-08T16:00:00	7	Dirección del viento	3.22
126715	7	Sololá	701	Sololá	4	Finca Santa Victoria	8	Agosto	2023-08-25T00:00:00	2024-11-08T16:00:00	1	Precipitación	0
126716	7	Sololá	701	Sololá	4	Finca Santa Victoria	8	Agosto	2023-08-25T00:00:00	2024-11-08T16:00:00	8	Radiación solar	148
126717	7	Sololá	701	Sololá	4	Finca Santa Victoria	8	Agosto	2023-08-25T00:00:00	2024-11-08T17:00:00	2	Temperatura media	16.7
126718	7	Sololá	701	Sololá	4	Finca Santa Victoria	8	Agosto	2023-08-25T00:00:00	2024-11-08T17:00:00	4	Temperatura máxima	17.2
126719	7	Sololá	701	Sololá	4	Finca Santa Victoria	8	Agosto	2023-08-25T00:00:00	2024-11-08T17:00:00	3	Temperatura mínima	16.7
126720	7	Sololá	701	Sololá	4	Finca Santa Victoria	8	Agosto	2023-08-25T00:00:00	2024-11-08T17:00:00	5	Humedad	93
126721	7	Sololá	701	Sololá	4	Finca Santa Victoria	8	Agosto	2023-08-25T00:00:00	2024-11-08T17:00:00	6	Velocidad del viento	1.6
126722	7	Sololá	701	Sololá	4	Finca Santa Victoria	8	Agosto	2023-08-25T00:00:00	2024-11-08T17:00:00	7	Dirección del viento	1.61
126723	7	Sololá	701	Sololá	4	Finca Santa Victoria	8	Agosto	2023-08-25T00:00:00	2024-11-08T17:00:00	1	Precipitación	0
126724	7	Sololá	701	Sololá	4	Finca Santa Victoria	8	Agosto	2023-08-25T00:00:00	2024-11-08T17:00:00	8	Radiación solar	83
126725	7	Sololá	701	Sololá	4	Finca Santa Victoria	8	Agosto	2023-08-25T00:00:00	2024-11-08T18:00:00	2	Temperatura media	16.6
126726	7	Sololá	701	Sololá	4	Finca Santa Victoria	8	Agosto	2023-08-25T00:00:00	2024-11-08T18:00:00	4	Temperatura máxima	16.8
126727	7	Sololá	701	Sololá	4	Finca Santa Victoria	8	Agosto	2023-08-25T00:00:00	2024-11-08T18:00:00	3	Temperatura mínima	16.3
126728	7	Sololá	701	Sololá	4	Finca Santa Victoria	8	Agosto	2023-08-25T00:00:00	2024-11-08T18:00:00	5	Humedad	94
126729	7	Sololá	701	Sololá	4	Finca Santa Victoria	8	Agosto	2023-08-25T00:00:00	2024-11-08T18:00:00	6	Velocidad del viento	1.6
126730	7	Sololá	701	Sololá	4	Finca Santa Victoria	8	Agosto	2023-08-25T00:00:00	2024-11-08T18:00:00	7	Dirección del viento	1.61
126731	7	Sololá	701	Sololá	4	Finca Santa Victoria	8	Agosto	2023-08-25T00:00:00	2024-11-08T18:00:00	1	Precipitación	0
126732	7	Sololá	701	Sololá	4	Finca Santa Victoria	8	Agosto	2023-08-25T00:00:00	2024-11-08T18:00:00	8	Radiación solar	53
126733	7	Sololá	701	Sololá	4	Finca Santa Victoria	8	Agosto	2023-08-25T00:00:00	2024-11-08T19:00:00	2	Temperatura media	15.7
126734	7	Sololá	701	Sololá	4	Finca Santa Victoria	8	Agosto	2023-08-25T00:00:00	2024-11-08T19:00:00	4	Temperatura máxima	16.6
126735	7	Sololá	701	Sololá	4	Finca Santa Victoria	8	Agosto	2023-08-25T00:00:00	2024-11-08T19:00:00	3	Temperatura mínima	15.7
126736	7	Sololá	701	Sololá	4	Finca Santa Victoria	8	Agosto	2023-08-25T00:00:00	2024-11-08T19:00:00	5	Humedad	97
126737	7	Sololá	701	Sololá	4	Finca Santa Victoria	8	Agosto	2023-08-25T00:00:00	2024-11-08T19:00:00	6	Velocidad del viento	1.6
126738	7	Sololá	701	Sololá	4	Finca Santa Victoria	8	Agosto	2023-08-25T00:00:00	2024-11-08T19:00:00	7	Dirección del viento	1.61
126739	7	Sololá	701	Sololá	4	Finca Santa Victoria	8	Agosto	2023-08-25T00:00:00	2024-11-08T19:00:00	1	Precipitación	0
126740	7	Sololá	701	Sololá	4	Finca Santa Victoria	8	Agosto	2023-08-25T00:00:00	2024-11-08T19:00:00	8	Radiación solar	0
126741	7	Sololá	701	Sololá	4	Finca Santa Victoria	8	Agosto	2023-08-25T00:00:00	2024-11-08T20:00:00	2	Temperatura media	15.5
126742	7	Sololá	701	Sololá	4	Finca Santa Victoria	8	Agosto	2023-08-25T00:00:00	2024-11-08T20:00:00	4	Temperatura máxima	15.7
126743	7	Sololá	701	Sololá	4	Finca Santa Victoria	8	Agosto	2023-08-25T00:00:00	2024-11-08T20:00:00	3	Temperatura mínima	15.4
126744	7	Sololá	701	Sololá	4	Finca Santa Victoria	8	Agosto	2023-08-25T00:00:00	2024-11-08T20:00:00	5	Humedad	97
126745	7	Sololá	701	Sololá	4	Finca Santa Victoria	8	Agosto	2023-08-25T00:00:00	2024-11-08T20:00:00	6	Velocidad del viento	0
126746	7	Sololá	701	Sololá	4	Finca Santa Victoria	8	Agosto	2023-08-25T00:00:00	2024-11-08T20:00:00	7	Dirección del viento	0
126747	7	Sololá	701	Sololá	4	Finca Santa Victoria	8	Agosto	2023-08-25T00:00:00	2024-11-08T20:00:00	1	Precipitación	0
126748	7	Sololá	701	Sololá	4	Finca Santa Victoria	8	Agosto	2023-08-25T00:00:00	2024-11-08T20:00:00	8	Radiación solar	0
126749	7	Sololá	701	Sololá	4	Finca Santa Victoria	8	Agosto	2023-08-25T00:00:00	2024-11-08T21:00:00	2	Temperatura media	15.3
126750	7	Sololá	701	Sololá	4	Finca Santa Victoria	8	Agosto	2023-08-25T00:00:00	2024-11-08T21:00:00	4	Temperatura máxima	15.6
126751	7	Sololá	701	Sololá	4	Finca Santa Victoria	8	Agosto	2023-08-25T00:00:00	2024-11-08T21:00:00	3	Temperatura mínima	15.2
126752	7	Sololá	701	Sololá	4	Finca Santa Victoria	8	Agosto	2023-08-25T00:00:00	2024-11-08T21:00:00	5	Humedad	98
126753	7	Sololá	701	Sololá	4	Finca Santa Victoria	8	Agosto	2023-08-25T00:00:00	2024-11-08T21:00:00	6	Velocidad del viento	0
126754	7	Sololá	701	Sololá	4	Finca Santa Victoria	8	Agosto	2023-08-25T00:00:00	2024-11-08T21:00:00	7	Dirección del viento	0
126755	7	Sololá	701	Sololá	4	Finca Santa Victoria	8	Agosto	2023-08-25T00:00:00	2024-11-08T21:00:00	1	Precipitación	0
126756	7	Sololá	701	Sololá	4	Finca Santa Victoria	8	Agosto	2023-08-25T00:00:00	2024-11-08T21:00:00	8	Radiación solar	0
126757	7	Sololá	701	Sololá	4	Finca Santa Victoria	8	Agosto	2023-08-25T00:00:00	2024-11-08T22:00:00	2	Temperatura media	15.2
126758	7	Sololá	701	Sololá	4	Finca Santa Victoria	8	Agosto	2023-08-25T00:00:00	2024-11-08T22:00:00	4	Temperatura máxima	15.3
126759	7	Sololá	701	Sololá	4	Finca Santa Victoria	8	Agosto	2023-08-25T00:00:00	2024-11-08T22:00:00	3	Temperatura mínima	15.2
126760	7	Sololá	701	Sololá	4	Finca Santa Victoria	8	Agosto	2023-08-25T00:00:00	2024-11-08T22:00:00	5	Humedad	98
126761	7	Sololá	701	Sololá	4	Finca Santa Victoria	8	Agosto	2023-08-25T00:00:00	2024-11-08T22:00:00	6	Velocidad del viento	0
126762	7	Sololá	701	Sololá	4	Finca Santa Victoria	8	Agosto	2023-08-25T00:00:00	2024-11-08T22:00:00	7	Dirección del viento	0
126763	7	Sololá	701	Sololá	4	Finca Santa Victoria	8	Agosto	2023-08-25T00:00:00	2024-11-08T22:00:00	1	Precipitación	0
126764	7	Sololá	701	Sololá	4	Finca Santa Victoria	8	Agosto	2023-08-25T00:00:00	2024-11-08T22:00:00	8	Radiación solar	0
126765	7	Sololá	701	Sololá	4	Finca Santa Victoria	8	Agosto	2023-08-25T00:00:00	2024-11-08T23:00:00	2	Temperatura media	15.1
126766	7	Sololá	701	Sololá	4	Finca Santa Victoria	8	Agosto	2023-08-25T00:00:00	2024-11-08T23:00:00	4	Temperatura máxima	15.2
126767	7	Sololá	701	Sololá	4	Finca Santa Victoria	8	Agosto	2023-08-25T00:00:00	2024-11-08T23:00:00	3	Temperatura mínima	15.1
126768	7	Sololá	701	Sololá	4	Finca Santa Victoria	8	Agosto	2023-08-25T00:00:00	2024-11-08T23:00:00	5	Humedad	98
126769	7	Sololá	701	Sololá	4	Finca Santa Victoria	8	Agosto	2023-08-25T00:00:00	2024-11-08T23:00:00	6	Velocidad del viento	0
126770	7	Sololá	701	Sololá	4	Finca Santa Victoria	8	Agosto	2023-08-25T00:00:00	2024-11-08T23:00:00	7	Dirección del viento	0
126771	7	Sololá	701	Sololá	4	Finca Santa Victoria	8	Agosto	2023-08-25T00:00:00	2024-11-08T23:00:00	1	Precipitación	0
126772	7	Sololá	701	Sololá	4	Finca Santa Victoria	8	Agosto	2023-08-25T00:00:00	2024-11-08T23:00:00	8	Radiación solar	0
126773	7	Sololá	701	Sololá	4	Finca Santa Victoria	8	Agosto	2023-08-26T00:00:00	2024-11-08T00:00:00	2	Temperatura media	14.7
126774	7	Sololá	701	Sololá	4	Finca Santa Victoria	8	Agosto	2023-08-26T00:00:00	2024-11-08T00:00:00	4	Temperatura máxima	15.2
126775	7	Sololá	701	Sololá	4	Finca Santa Victoria	8	Agosto	2023-08-26T00:00:00	2024-11-08T00:00:00	3	Temperatura mínima	14.7
126776	7	Sololá	701	Sololá	4	Finca Santa Victoria	8	Agosto	2023-08-26T00:00:00	2024-11-08T00:00:00	5	Humedad	98
126777	7	Sololá	701	Sololá	4	Finca Santa Victoria	8	Agosto	2023-08-26T00:00:00	2024-11-08T00:00:00	6	Velocidad del viento	0
126778	7	Sololá	701	Sololá	4	Finca Santa Victoria	8	Agosto	2023-08-26T00:00:00	2024-11-08T00:00:00	7	Dirección del viento	0
126779	7	Sololá	701	Sololá	4	Finca Santa Victoria	8	Agosto	2023-08-26T00:00:00	2024-11-08T00:00:00	1	Precipitación	0
126780	7	Sololá	701	Sololá	4	Finca Santa Victoria	8	Agosto	2023-08-26T00:00:00	2024-11-08T00:00:00	8	Radiación solar	0
126781	7	Sololá	701	Sololá	4	Finca Santa Victoria	8	Agosto	2023-08-26T00:00:00	2024-11-08T01:00:00	2	Temperatura media	14.8
126782	7	Sololá	701	Sololá	4	Finca Santa Victoria	8	Agosto	2023-08-26T00:00:00	2024-11-08T01:00:00	4	Temperatura máxima	14.8
126783	7	Sololá	701	Sololá	4	Finca Santa Victoria	8	Agosto	2023-08-26T00:00:00	2024-11-08T01:00:00	3	Temperatura mínima	14.4
126784	7	Sololá	701	Sololá	4	Finca Santa Victoria	8	Agosto	2023-08-26T00:00:00	2024-11-08T01:00:00	5	Humedad	99
126785	7	Sololá	701	Sololá	4	Finca Santa Victoria	8	Agosto	2023-08-26T00:00:00	2024-11-08T01:00:00	6	Velocidad del viento	0
126786	7	Sololá	701	Sololá	4	Finca Santa Victoria	8	Agosto	2023-08-26T00:00:00	2024-11-08T01:00:00	7	Dirección del viento	0
126787	7	Sololá	701	Sololá	4	Finca Santa Victoria	8	Agosto	2023-08-26T00:00:00	2024-11-08T01:00:00	1	Precipitación	0
126788	7	Sololá	701	Sololá	4	Finca Santa Victoria	8	Agosto	2023-08-26T00:00:00	2024-11-08T01:00:00	8	Radiación solar	0
126789	7	Sololá	701	Sololá	4	Finca Santa Victoria	8	Agosto	2023-08-26T00:00:00	2024-11-08T02:00:00	2	Temperatura media	14.3
126790	7	Sololá	701	Sololá	4	Finca Santa Victoria	8	Agosto	2023-08-26T00:00:00	2024-11-08T02:00:00	4	Temperatura máxima	14.8
126791	7	Sololá	701	Sololá	4	Finca Santa Victoria	8	Agosto	2023-08-26T00:00:00	2024-11-08T02:00:00	3	Temperatura mínima	14.3
126792	7	Sololá	701	Sololá	4	Finca Santa Victoria	8	Agosto	2023-08-26T00:00:00	2024-11-08T02:00:00	5	Humedad	98
126793	7	Sololá	701	Sololá	4	Finca Santa Victoria	8	Agosto	2023-08-26T00:00:00	2024-11-08T02:00:00	6	Velocidad del viento	0
126794	7	Sololá	701	Sololá	4	Finca Santa Victoria	8	Agosto	2023-08-26T00:00:00	2024-11-08T02:00:00	7	Dirección del viento	0
126795	7	Sololá	701	Sololá	4	Finca Santa Victoria	8	Agosto	2023-08-26T00:00:00	2024-11-08T02:00:00	1	Precipitación	0
126796	7	Sololá	701	Sololá	4	Finca Santa Victoria	8	Agosto	2023-08-26T00:00:00	2024-11-08T02:00:00	8	Radiación solar	0
126797	7	Sololá	701	Sololá	4	Finca Santa Victoria	8	Agosto	2023-08-26T00:00:00	2024-11-08T03:00:00	2	Temperatura media	14.3
126798	7	Sololá	701	Sololá	4	Finca Santa Victoria	8	Agosto	2023-08-26T00:00:00	2024-11-08T03:00:00	4	Temperatura máxima	14.5
126799	7	Sololá	701	Sololá	4	Finca Santa Victoria	8	Agosto	2023-08-26T00:00:00	2024-11-08T03:00:00	3	Temperatura mínima	14.3
126800	7	Sololá	701	Sololá	4	Finca Santa Victoria	8	Agosto	2023-08-26T00:00:00	2024-11-08T03:00:00	5	Humedad	98
126801	7	Sololá	701	Sololá	4	Finca Santa Victoria	8	Agosto	2023-08-26T00:00:00	2024-11-08T03:00:00	6	Velocidad del viento	0
126802	7	Sololá	701	Sololá	4	Finca Santa Victoria	8	Agosto	2023-08-26T00:00:00	2024-11-08T03:00:00	7	Dirección del viento	0
126803	7	Sololá	701	Sololá	4	Finca Santa Victoria	8	Agosto	2023-08-26T00:00:00	2024-11-08T03:00:00	1	Precipitación	0
126804	7	Sololá	701	Sololá	4	Finca Santa Victoria	8	Agosto	2023-08-26T00:00:00	2024-11-08T03:00:00	8	Radiación solar	0
126805	7	Sololá	701	Sololá	4	Finca Santa Victoria	8	Agosto	2023-08-26T00:00:00	2024-11-08T04:00:00	2	Temperatura media	14
126806	7	Sololá	701	Sololá	4	Finca Santa Victoria	8	Agosto	2023-08-26T00:00:00	2024-11-08T04:00:00	4	Temperatura máxima	14.3
126807	7	Sololá	701	Sololá	4	Finca Santa Victoria	8	Agosto	2023-08-26T00:00:00	2024-11-08T04:00:00	3	Temperatura mínima	13.8
126808	7	Sololá	701	Sololá	4	Finca Santa Victoria	8	Agosto	2023-08-26T00:00:00	2024-11-08T04:00:00	5	Humedad	98
126809	7	Sololá	701	Sololá	4	Finca Santa Victoria	8	Agosto	2023-08-26T00:00:00	2024-11-08T04:00:00	6	Velocidad del viento	0
126810	7	Sololá	701	Sololá	4	Finca Santa Victoria	8	Agosto	2023-08-26T00:00:00	2024-11-08T04:00:00	7	Dirección del viento	0
126811	7	Sololá	701	Sololá	4	Finca Santa Victoria	8	Agosto	2023-08-26T00:00:00	2024-11-08T04:00:00	1	Precipitación	0
126812	7	Sololá	701	Sololá	4	Finca Santa Victoria	8	Agosto	2023-08-26T00:00:00	2024-11-08T04:00:00	8	Radiación solar	0
126813	7	Sololá	701	Sololá	4	Finca Santa Victoria	8	Agosto	2023-08-26T00:00:00	2024-11-08T05:00:00	2	Temperatura media	13.6
126814	7	Sololá	701	Sololá	4	Finca Santa Victoria	8	Agosto	2023-08-26T00:00:00	2024-11-08T05:00:00	4	Temperatura máxima	14.1
126815	7	Sololá	701	Sololá	4	Finca Santa Victoria	8	Agosto	2023-08-26T00:00:00	2024-11-08T05:00:00	3	Temperatura mínima	13.6
126816	7	Sololá	701	Sololá	4	Finca Santa Victoria	8	Agosto	2023-08-26T00:00:00	2024-11-08T05:00:00	5	Humedad	98
126817	7	Sololá	701	Sololá	4	Finca Santa Victoria	8	Agosto	2023-08-26T00:00:00	2024-11-08T05:00:00	6	Velocidad del viento	0
126818	7	Sololá	701	Sololá	4	Finca Santa Victoria	8	Agosto	2023-08-26T00:00:00	2024-11-08T05:00:00	7	Dirección del viento	0
126819	7	Sololá	701	Sololá	4	Finca Santa Victoria	8	Agosto	2023-08-26T00:00:00	2024-11-08T05:00:00	1	Precipitación	0
126820	7	Sololá	701	Sololá	4	Finca Santa Victoria	8	Agosto	2023-08-26T00:00:00	2024-11-08T05:00:00	8	Radiación solar	0
126821	7	Sololá	701	Sololá	4	Finca Santa Victoria	8	Agosto	2023-08-26T00:00:00	2024-11-08T06:00:00	2	Temperatura media	13.2
126822	7	Sololá	701	Sololá	4	Finca Santa Victoria	8	Agosto	2023-08-26T00:00:00	2024-11-08T06:00:00	4	Temperatura máxima	13.6
126823	7	Sololá	701	Sololá	4	Finca Santa Victoria	8	Agosto	2023-08-26T00:00:00	2024-11-08T06:00:00	3	Temperatura mínima	13.2
126824	7	Sololá	701	Sololá	4	Finca Santa Victoria	8	Agosto	2023-08-26T00:00:00	2024-11-08T06:00:00	5	Humedad	98
126825	7	Sololá	701	Sololá	4	Finca Santa Victoria	8	Agosto	2023-08-26T00:00:00	2024-11-08T06:00:00	6	Velocidad del viento	0
126826	7	Sololá	701	Sololá	4	Finca Santa Victoria	8	Agosto	2023-08-26T00:00:00	2024-11-08T06:00:00	7	Dirección del viento	0
126827	7	Sololá	701	Sololá	4	Finca Santa Victoria	8	Agosto	2023-08-26T00:00:00	2024-11-08T06:00:00	1	Precipitación	0
126828	7	Sololá	701	Sololá	4	Finca Santa Victoria	8	Agosto	2023-08-26T00:00:00	2024-11-08T06:00:00	8	Radiación solar	0
126829	7	Sololá	701	Sololá	4	Finca Santa Victoria	8	Agosto	2023-08-26T00:00:00	2024-11-08T07:00:00	2	Temperatura media	14.1
126830	7	Sololá	701	Sololá	4	Finca Santa Victoria	8	Agosto	2023-08-26T00:00:00	2024-11-08T07:00:00	4	Temperatura máxima	14.1
126831	7	Sololá	701	Sololá	4	Finca Santa Victoria	8	Agosto	2023-08-26T00:00:00	2024-11-08T07:00:00	3	Temperatura mínima	13.2
126832	7	Sololá	701	Sololá	4	Finca Santa Victoria	8	Agosto	2023-08-26T00:00:00	2024-11-08T07:00:00	5	Humedad	99
126833	7	Sololá	701	Sololá	4	Finca Santa Victoria	8	Agosto	2023-08-26T00:00:00	2024-11-08T07:00:00	6	Velocidad del viento	0
126834	7	Sololá	701	Sololá	4	Finca Santa Victoria	8	Agosto	2023-08-26T00:00:00	2024-11-08T07:00:00	7	Dirección del viento	0
126835	7	Sololá	701	Sololá	4	Finca Santa Victoria	8	Agosto	2023-08-26T00:00:00	2024-11-08T07:00:00	1	Precipitación	0
126836	7	Sololá	701	Sololá	4	Finca Santa Victoria	8	Agosto	2023-08-26T00:00:00	2024-11-08T07:00:00	8	Radiación solar	24
126837	7	Sololá	701	Sololá	4	Finca Santa Victoria	8	Agosto	2023-08-26T00:00:00	2024-11-08T08:00:00	2	Temperatura media	15.8
126838	7	Sololá	701	Sololá	4	Finca Santa Victoria	8	Agosto	2023-08-26T00:00:00	2024-11-08T08:00:00	4	Temperatura máxima	15.8
126839	7	Sololá	701	Sololá	4	Finca Santa Victoria	8	Agosto	2023-08-26T00:00:00	2024-11-08T08:00:00	3	Temperatura mínima	14
126840	7	Sololá	701	Sololá	4	Finca Santa Victoria	8	Agosto	2023-08-26T00:00:00	2024-11-08T08:00:00	5	Humedad	93
126841	7	Sololá	701	Sololá	4	Finca Santa Victoria	8	Agosto	2023-08-26T00:00:00	2024-11-08T08:00:00	6	Velocidad del viento	3.2
126842	7	Sololá	701	Sololá	4	Finca Santa Victoria	8	Agosto	2023-08-26T00:00:00	2024-11-08T08:00:00	7	Dirección del viento	3.22
126843	7	Sololá	701	Sololá	4	Finca Santa Victoria	8	Agosto	2023-08-26T00:00:00	2024-11-08T08:00:00	1	Precipitación	0
126844	7	Sololá	701	Sololá	4	Finca Santa Victoria	8	Agosto	2023-08-26T00:00:00	2024-11-08T08:00:00	8	Radiación solar	221
126845	7	Sololá	701	Sololá	4	Finca Santa Victoria	8	Agosto	2023-08-26T00:00:00	2024-11-08T09:00:00	2	Temperatura media	18
126846	7	Sololá	701	Sololá	4	Finca Santa Victoria	8	Agosto	2023-08-26T00:00:00	2024-11-08T09:00:00	4	Temperatura máxima	18.1
126847	7	Sololá	701	Sololá	4	Finca Santa Victoria	8	Agosto	2023-08-26T00:00:00	2024-11-08T09:00:00	3	Temperatura mínima	15.8
126848	7	Sololá	701	Sololá	4	Finca Santa Victoria	8	Agosto	2023-08-26T00:00:00	2024-11-08T09:00:00	5	Humedad	85
126849	7	Sololá	701	Sololá	4	Finca Santa Victoria	8	Agosto	2023-08-26T00:00:00	2024-11-08T09:00:00	6	Velocidad del viento	1.6
126850	7	Sololá	701	Sololá	4	Finca Santa Victoria	8	Agosto	2023-08-26T00:00:00	2024-11-08T09:00:00	7	Dirección del viento	1.61
126851	7	Sololá	701	Sololá	4	Finca Santa Victoria	8	Agosto	2023-08-26T00:00:00	2024-11-08T09:00:00	1	Precipitación	0
126852	7	Sololá	701	Sololá	4	Finca Santa Victoria	8	Agosto	2023-08-26T00:00:00	2024-11-08T09:00:00	8	Radiación solar	368
126853	7	Sololá	701	Sololá	4	Finca Santa Victoria	8	Agosto	2023-08-26T00:00:00	2024-11-08T10:00:00	2	Temperatura media	18.5
126854	7	Sololá	701	Sololá	4	Finca Santa Victoria	8	Agosto	2023-08-26T00:00:00	2024-11-08T10:00:00	4	Temperatura máxima	18.5
126855	7	Sololá	701	Sololá	4	Finca Santa Victoria	8	Agosto	2023-08-26T00:00:00	2024-11-08T10:00:00	3	Temperatura mínima	17.5
126856	7	Sololá	701	Sololá	4	Finca Santa Victoria	8	Agosto	2023-08-26T00:00:00	2024-11-08T10:00:00	5	Humedad	84
126857	7	Sololá	701	Sololá	4	Finca Santa Victoria	8	Agosto	2023-08-26T00:00:00	2024-11-08T10:00:00	6	Velocidad del viento	3.2
126858	7	Sololá	701	Sololá	4	Finca Santa Victoria	8	Agosto	2023-08-26T00:00:00	2024-11-08T10:00:00	7	Dirección del viento	3.22
126859	7	Sololá	701	Sololá	4	Finca Santa Victoria	8	Agosto	2023-08-26T00:00:00	2024-11-08T10:00:00	1	Precipitación	0
126860	7	Sololá	701	Sololá	4	Finca Santa Victoria	8	Agosto	2023-08-26T00:00:00	2024-11-08T10:00:00	8	Radiación solar	140
126861	7	Sololá	701	Sololá	4	Finca Santa Victoria	8	Agosto	2023-08-26T00:00:00	2024-11-08T11:00:00	2	Temperatura media	19.8
126862	7	Sololá	701	Sololá	4	Finca Santa Victoria	8	Agosto	2023-08-26T00:00:00	2024-11-08T11:00:00	4	Temperatura máxima	19.8
126863	7	Sololá	701	Sololá	4	Finca Santa Victoria	8	Agosto	2023-08-26T00:00:00	2024-11-08T11:00:00	3	Temperatura mínima	18.4
126864	7	Sololá	701	Sololá	4	Finca Santa Victoria	8	Agosto	2023-08-26T00:00:00	2024-11-08T11:00:00	5	Humedad	81
126865	7	Sololá	701	Sololá	4	Finca Santa Victoria	8	Agosto	2023-08-26T00:00:00	2024-11-08T11:00:00	6	Velocidad del viento	3.2
126866	7	Sololá	701	Sololá	4	Finca Santa Victoria	8	Agosto	2023-08-26T00:00:00	2024-11-08T11:00:00	7	Dirección del viento	3.22
126867	7	Sololá	701	Sololá	4	Finca Santa Victoria	8	Agosto	2023-08-26T00:00:00	2024-11-08T11:00:00	1	Precipitación	0
126868	7	Sololá	701	Sololá	4	Finca Santa Victoria	8	Agosto	2023-08-26T00:00:00	2024-11-08T11:00:00	8	Radiación solar	961
126869	7	Sololá	701	Sololá	4	Finca Santa Victoria	8	Agosto	2023-08-26T00:00:00	2024-11-08T12:00:00	2	Temperatura media	20.1
126870	7	Sololá	701	Sololá	4	Finca Santa Victoria	8	Agosto	2023-08-26T00:00:00	2024-11-08T12:00:00	4	Temperatura máxima	20.2
126871	7	Sololá	701	Sololá	4	Finca Santa Victoria	8	Agosto	2023-08-26T00:00:00	2024-11-08T12:00:00	3	Temperatura mínima	19.7
126872	7	Sololá	701	Sololá	4	Finca Santa Victoria	8	Agosto	2023-08-26T00:00:00	2024-11-08T12:00:00	5	Humedad	80
126873	7	Sololá	701	Sololá	4	Finca Santa Victoria	8	Agosto	2023-08-26T00:00:00	2024-11-08T12:00:00	6	Velocidad del viento	4.8
126874	7	Sololá	701	Sololá	4	Finca Santa Victoria	8	Agosto	2023-08-26T00:00:00	2024-11-08T12:00:00	7	Dirección del viento	4.83
126875	7	Sololá	701	Sololá	4	Finca Santa Victoria	8	Agosto	2023-08-26T00:00:00	2024-11-08T12:00:00	1	Precipitación	0
126876	7	Sololá	701	Sololá	4	Finca Santa Victoria	8	Agosto	2023-08-26T00:00:00	2024-11-08T12:00:00	8	Radiación solar	1045
126877	7	Sololá	701	Sololá	4	Finca Santa Victoria	8	Agosto	2023-08-26T00:00:00	2024-11-08T13:00:00	2	Temperatura media	18.9
126878	7	Sololá	701	Sololá	4	Finca Santa Victoria	8	Agosto	2023-08-26T00:00:00	2024-11-08T13:00:00	4	Temperatura máxima	20.1
126879	7	Sololá	701	Sololá	4	Finca Santa Victoria	8	Agosto	2023-08-26T00:00:00	2024-11-08T13:00:00	3	Temperatura mínima	18.9
126880	7	Sololá	701	Sololá	4	Finca Santa Victoria	8	Agosto	2023-08-26T00:00:00	2024-11-08T13:00:00	5	Humedad	85
126881	7	Sololá	701	Sololá	4	Finca Santa Victoria	8	Agosto	2023-08-26T00:00:00	2024-11-08T13:00:00	6	Velocidad del viento	4.8
126882	7	Sololá	701	Sololá	4	Finca Santa Victoria	8	Agosto	2023-08-26T00:00:00	2024-11-08T13:00:00	7	Dirección del viento	4.83
126883	7	Sololá	701	Sololá	4	Finca Santa Victoria	8	Agosto	2023-08-26T00:00:00	2024-11-08T13:00:00	1	Precipitación	0
126884	7	Sololá	701	Sololá	4	Finca Santa Victoria	8	Agosto	2023-08-26T00:00:00	2024-11-08T13:00:00	8	Radiación solar	273
126885	7	Sololá	701	Sololá	4	Finca Santa Victoria	8	Agosto	2023-08-26T00:00:00	2024-11-08T14:00:00	2	Temperatura media	18.4
126886	7	Sololá	701	Sololá	4	Finca Santa Victoria	8	Agosto	2023-08-26T00:00:00	2024-11-08T14:00:00	4	Temperatura máxima	19
126887	7	Sololá	701	Sololá	4	Finca Santa Victoria	8	Agosto	2023-08-26T00:00:00	2024-11-08T14:00:00	3	Temperatura mínima	18.3
126888	7	Sololá	701	Sololá	4	Finca Santa Victoria	8	Agosto	2023-08-26T00:00:00	2024-11-08T14:00:00	5	Humedad	86
126889	7	Sololá	701	Sololá	4	Finca Santa Victoria	8	Agosto	2023-08-26T00:00:00	2024-11-08T14:00:00	6	Velocidad del viento	4.8
126890	7	Sololá	701	Sololá	4	Finca Santa Victoria	8	Agosto	2023-08-26T00:00:00	2024-11-08T14:00:00	7	Dirección del viento	4.83
126891	7	Sololá	701	Sololá	4	Finca Santa Victoria	8	Agosto	2023-08-26T00:00:00	2024-11-08T14:00:00	1	Precipitación	0
126892	7	Sololá	701	Sololá	4	Finca Santa Victoria	8	Agosto	2023-08-26T00:00:00	2024-11-08T14:00:00	8	Radiación solar	210
126893	7	Sololá	701	Sololá	4	Finca Santa Victoria	8	Agosto	2023-08-26T00:00:00	2024-11-08T15:00:00	2	Temperatura media	18.6
126894	7	Sololá	701	Sololá	4	Finca Santa Victoria	8	Agosto	2023-08-26T00:00:00	2024-11-08T15:00:00	4	Temperatura máxima	19
126895	7	Sololá	701	Sololá	4	Finca Santa Victoria	8	Agosto	2023-08-26T00:00:00	2024-11-08T15:00:00	3	Temperatura mínima	18.3
126896	7	Sololá	701	Sololá	4	Finca Santa Victoria	8	Agosto	2023-08-26T00:00:00	2024-11-08T15:00:00	5	Humedad	87
126897	7	Sololá	701	Sololá	4	Finca Santa Victoria	8	Agosto	2023-08-26T00:00:00	2024-11-08T15:00:00	6	Velocidad del viento	3.2
126898	7	Sololá	701	Sololá	4	Finca Santa Victoria	8	Agosto	2023-08-26T00:00:00	2024-11-08T15:00:00	7	Dirección del viento	3.22
126899	7	Sololá	701	Sololá	4	Finca Santa Victoria	8	Agosto	2023-08-26T00:00:00	2024-11-08T15:00:00	1	Precipitación	0
126900	7	Sololá	701	Sololá	4	Finca Santa Victoria	8	Agosto	2023-08-26T00:00:00	2024-11-08T15:00:00	8	Radiación solar	169
126901	7	Sololá	701	Sololá	4	Finca Santa Victoria	8	Agosto	2023-08-26T00:00:00	2024-11-08T16:00:00	2	Temperatura media	17.7
126902	7	Sololá	701	Sololá	4	Finca Santa Victoria	8	Agosto	2023-08-26T00:00:00	2024-11-08T16:00:00	4	Temperatura máxima	19.1
126903	7	Sololá	701	Sololá	4	Finca Santa Victoria	8	Agosto	2023-08-26T00:00:00	2024-11-08T16:00:00	3	Temperatura mínima	17.7
126904	7	Sololá	701	Sololá	4	Finca Santa Victoria	8	Agosto	2023-08-26T00:00:00	2024-11-08T16:00:00	5	Humedad	89
126905	7	Sololá	701	Sololá	4	Finca Santa Victoria	8	Agosto	2023-08-26T00:00:00	2024-11-08T16:00:00	6	Velocidad del viento	3.2
126906	7	Sololá	701	Sololá	4	Finca Santa Victoria	8	Agosto	2023-08-26T00:00:00	2024-11-08T16:00:00	7	Dirección del viento	3.22
126907	7	Sololá	701	Sololá	4	Finca Santa Victoria	8	Agosto	2023-08-26T00:00:00	2024-11-08T16:00:00	1	Precipitación	0
126908	7	Sololá	701	Sololá	4	Finca Santa Victoria	8	Agosto	2023-08-26T00:00:00	2024-11-08T16:00:00	8	Radiación solar	151
126909	7	Sololá	701	Sololá	4	Finca Santa Victoria	8	Agosto	2023-08-26T00:00:00	2024-11-08T17:00:00	2	Temperatura media	17
126910	7	Sololá	701	Sololá	4	Finca Santa Victoria	8	Agosto	2023-08-26T00:00:00	2024-11-08T17:00:00	4	Temperatura máxima	17.7
126911	7	Sololá	701	Sololá	4	Finca Santa Victoria	8	Agosto	2023-08-26T00:00:00	2024-11-08T17:00:00	3	Temperatura mínima	16.9
126912	7	Sololá	701	Sololá	4	Finca Santa Victoria	8	Agosto	2023-08-26T00:00:00	2024-11-08T17:00:00	5	Humedad	91
126913	7	Sololá	701	Sololá	4	Finca Santa Victoria	8	Agosto	2023-08-26T00:00:00	2024-11-08T17:00:00	6	Velocidad del viento	3.2
126914	7	Sololá	701	Sololá	4	Finca Santa Victoria	8	Agosto	2023-08-26T00:00:00	2024-11-08T17:00:00	7	Dirección del viento	3.22
126915	7	Sololá	701	Sololá	4	Finca Santa Victoria	8	Agosto	2023-08-26T00:00:00	2024-11-08T17:00:00	1	Precipitación	0
126916	7	Sololá	701	Sololá	4	Finca Santa Victoria	8	Agosto	2023-08-26T00:00:00	2024-11-08T17:00:00	8	Radiación solar	101
126917	7	Sololá	701	Sololá	4	Finca Santa Victoria	8	Agosto	2023-08-26T00:00:00	2024-11-08T18:00:00	2	Temperatura media	16.8
126918	7	Sololá	701	Sololá	4	Finca Santa Victoria	8	Agosto	2023-08-26T00:00:00	2024-11-08T18:00:00	4	Temperatura máxima	17.1
126919	7	Sololá	701	Sololá	4	Finca Santa Victoria	8	Agosto	2023-08-26T00:00:00	2024-11-08T18:00:00	3	Temperatura mínima	16.7
126920	7	Sololá	701	Sololá	4	Finca Santa Victoria	8	Agosto	2023-08-26T00:00:00	2024-11-08T18:00:00	5	Humedad	91
126921	7	Sololá	701	Sololá	4	Finca Santa Victoria	8	Agosto	2023-08-26T00:00:00	2024-11-08T18:00:00	6	Velocidad del viento	1.6
126922	7	Sololá	701	Sololá	4	Finca Santa Victoria	8	Agosto	2023-08-26T00:00:00	2024-11-08T18:00:00	7	Dirección del viento	1.61
126923	7	Sololá	701	Sololá	4	Finca Santa Victoria	8	Agosto	2023-08-26T00:00:00	2024-11-08T18:00:00	1	Precipitación	0
126924	7	Sololá	701	Sololá	4	Finca Santa Victoria	8	Agosto	2023-08-26T00:00:00	2024-11-08T18:00:00	8	Radiación solar	53
126925	7	Sololá	701	Sololá	4	Finca Santa Victoria	8	Agosto	2023-08-26T00:00:00	2024-11-08T19:00:00	2	Temperatura media	16.1
126926	7	Sololá	701	Sololá	4	Finca Santa Victoria	8	Agosto	2023-08-26T00:00:00	2024-11-08T19:00:00	4	Temperatura máxima	16.8
126927	7	Sololá	701	Sololá	4	Finca Santa Victoria	8	Agosto	2023-08-26T00:00:00	2024-11-08T19:00:00	3	Temperatura mínima	16
126928	7	Sololá	701	Sololá	4	Finca Santa Victoria	8	Agosto	2023-08-26T00:00:00	2024-11-08T19:00:00	5	Humedad	94
126929	7	Sololá	701	Sololá	4	Finca Santa Victoria	8	Agosto	2023-08-26T00:00:00	2024-11-08T19:00:00	6	Velocidad del viento	0
126930	7	Sololá	701	Sololá	4	Finca Santa Victoria	8	Agosto	2023-08-26T00:00:00	2024-11-08T19:00:00	7	Dirección del viento	0
126931	7	Sololá	701	Sololá	4	Finca Santa Victoria	8	Agosto	2023-08-26T00:00:00	2024-11-08T19:00:00	1	Precipitación	0
126932	7	Sololá	701	Sololá	4	Finca Santa Victoria	8	Agosto	2023-08-26T00:00:00	2024-11-08T19:00:00	8	Radiación solar	0
126933	7	Sololá	701	Sololá	4	Finca Santa Victoria	8	Agosto	2023-08-26T00:00:00	2024-11-08T20:00:00	2	Temperatura media	15.9
126934	7	Sololá	701	Sololá	4	Finca Santa Victoria	8	Agosto	2023-08-26T00:00:00	2024-11-08T20:00:00	4	Temperatura máxima	16.1
126935	7	Sololá	701	Sololá	4	Finca Santa Victoria	8	Agosto	2023-08-26T00:00:00	2024-11-08T20:00:00	3	Temperatura mínima	15.8
126936	7	Sololá	701	Sololá	4	Finca Santa Victoria	8	Agosto	2023-08-26T00:00:00	2024-11-08T20:00:00	5	Humedad	95
126937	7	Sololá	701	Sololá	4	Finca Santa Victoria	8	Agosto	2023-08-26T00:00:00	2024-11-08T20:00:00	6	Velocidad del viento	0
126938	7	Sololá	701	Sololá	4	Finca Santa Victoria	8	Agosto	2023-08-26T00:00:00	2024-11-08T20:00:00	7	Dirección del viento	0
126939	7	Sololá	701	Sololá	4	Finca Santa Victoria	8	Agosto	2023-08-26T00:00:00	2024-11-08T20:00:00	1	Precipitación	0
126940	7	Sololá	701	Sololá	4	Finca Santa Victoria	8	Agosto	2023-08-26T00:00:00	2024-11-08T20:00:00	8	Radiación solar	0
126941	7	Sololá	701	Sololá	4	Finca Santa Victoria	8	Agosto	2023-08-26T00:00:00	2024-11-08T21:00:00	2	Temperatura media	15.7
126942	7	Sololá	701	Sololá	4	Finca Santa Victoria	8	Agosto	2023-08-26T00:00:00	2024-11-08T21:00:00	4	Temperatura máxima	15.9
126943	7	Sololá	701	Sololá	4	Finca Santa Victoria	8	Agosto	2023-08-26T00:00:00	2024-11-08T21:00:00	3	Temperatura mínima	15.7
126944	7	Sololá	701	Sololá	4	Finca Santa Victoria	8	Agosto	2023-08-26T00:00:00	2024-11-08T21:00:00	5	Humedad	96
126945	7	Sololá	701	Sololá	4	Finca Santa Victoria	8	Agosto	2023-08-26T00:00:00	2024-11-08T21:00:00	6	Velocidad del viento	0
126946	7	Sololá	701	Sololá	4	Finca Santa Victoria	8	Agosto	2023-08-26T00:00:00	2024-11-08T21:00:00	7	Dirección del viento	0
126947	7	Sololá	701	Sololá	4	Finca Santa Victoria	8	Agosto	2023-08-26T00:00:00	2024-11-08T21:00:00	1	Precipitación	0
126948	7	Sololá	701	Sololá	4	Finca Santa Victoria	8	Agosto	2023-08-26T00:00:00	2024-11-08T21:00:00	8	Radiación solar	0
126949	7	Sololá	701	Sololá	4	Finca Santa Victoria	8	Agosto	2023-08-26T00:00:00	2024-11-08T22:00:00	2	Temperatura media	15.5
126950	7	Sololá	701	Sololá	4	Finca Santa Victoria	8	Agosto	2023-08-26T00:00:00	2024-11-08T22:00:00	4	Temperatura máxima	15.7
126951	7	Sololá	701	Sololá	4	Finca Santa Victoria	8	Agosto	2023-08-26T00:00:00	2024-11-08T22:00:00	3	Temperatura mínima	15.5
126952	7	Sololá	701	Sololá	4	Finca Santa Victoria	8	Agosto	2023-08-26T00:00:00	2024-11-08T22:00:00	5	Humedad	97
126953	7	Sololá	701	Sololá	4	Finca Santa Victoria	8	Agosto	2023-08-26T00:00:00	2024-11-08T22:00:00	6	Velocidad del viento	0
126954	7	Sololá	701	Sololá	4	Finca Santa Victoria	8	Agosto	2023-08-26T00:00:00	2024-11-08T22:00:00	7	Dirección del viento	0
126955	7	Sololá	701	Sololá	4	Finca Santa Victoria	8	Agosto	2023-08-26T00:00:00	2024-11-08T22:00:00	1	Precipitación	0.2
126956	7	Sololá	701	Sololá	4	Finca Santa Victoria	8	Agosto	2023-08-26T00:00:00	2024-11-08T22:00:00	8	Radiación solar	0
126957	7	Sololá	701	Sololá	4	Finca Santa Victoria	8	Agosto	2023-08-26T00:00:00	2024-11-08T23:00:00	2	Temperatura media	15.4
126958	7	Sololá	701	Sololá	4	Finca Santa Victoria	8	Agosto	2023-08-26T00:00:00	2024-11-08T23:00:00	4	Temperatura máxima	15.6
126959	7	Sololá	701	Sololá	4	Finca Santa Victoria	8	Agosto	2023-08-26T00:00:00	2024-11-08T23:00:00	3	Temperatura mínima	15.4
126960	7	Sololá	701	Sololá	4	Finca Santa Victoria	8	Agosto	2023-08-26T00:00:00	2024-11-08T23:00:00	5	Humedad	97
126961	7	Sololá	701	Sololá	4	Finca Santa Victoria	8	Agosto	2023-08-26T00:00:00	2024-11-08T23:00:00	6	Velocidad del viento	0
126962	7	Sololá	701	Sololá	4	Finca Santa Victoria	8	Agosto	2023-08-26T00:00:00	2024-11-08T23:00:00	7	Dirección del viento	0
126963	7	Sololá	701	Sololá	4	Finca Santa Victoria	8	Agosto	2023-08-26T00:00:00	2024-11-08T23:00:00	1	Precipitación	0
126964	7	Sololá	701	Sololá	4	Finca Santa Victoria	8	Agosto	2023-08-26T00:00:00	2024-11-08T23:00:00	8	Radiación solar	0
126965	7	Sololá	701	Sololá	4	Finca Santa Victoria	8	Agosto	2023-08-27T00:00:00	2024-11-08T00:00:00	2	Temperatura media	15.3
126966	7	Sololá	701	Sololá	4	Finca Santa Victoria	8	Agosto	2023-08-27T00:00:00	2024-11-08T00:00:00	4	Temperatura máxima	15.4
126967	7	Sololá	701	Sololá	4	Finca Santa Victoria	8	Agosto	2023-08-27T00:00:00	2024-11-08T00:00:00	3	Temperatura mínima	15.3
126968	7	Sololá	701	Sololá	4	Finca Santa Victoria	8	Agosto	2023-08-27T00:00:00	2024-11-08T00:00:00	5	Humedad	98
126969	7	Sololá	701	Sololá	4	Finca Santa Victoria	8	Agosto	2023-08-27T00:00:00	2024-11-08T00:00:00	6	Velocidad del viento	0
126970	7	Sololá	701	Sololá	4	Finca Santa Victoria	8	Agosto	2023-08-27T00:00:00	2024-11-08T00:00:00	7	Dirección del viento	0
126971	7	Sololá	701	Sololá	4	Finca Santa Victoria	8	Agosto	2023-08-27T00:00:00	2024-11-08T00:00:00	1	Precipitación	1.2
126972	7	Sololá	701	Sololá	4	Finca Santa Victoria	8	Agosto	2023-08-27T00:00:00	2024-11-08T00:00:00	8	Radiación solar	0
126973	7	Sololá	701	Sololá	4	Finca Santa Victoria	8	Agosto	2023-08-27T00:00:00	2024-11-08T01:00:00	2	Temperatura media	15.1
126974	7	Sololá	701	Sololá	4	Finca Santa Victoria	8	Agosto	2023-08-27T00:00:00	2024-11-08T01:00:00	4	Temperatura máxima	15.3
126975	7	Sololá	701	Sololá	4	Finca Santa Victoria	8	Agosto	2023-08-27T00:00:00	2024-11-08T01:00:00	3	Temperatura mínima	15.1
126976	7	Sololá	701	Sololá	4	Finca Santa Victoria	8	Agosto	2023-08-27T00:00:00	2024-11-08T01:00:00	5	Humedad	98
126977	7	Sololá	701	Sololá	4	Finca Santa Victoria	8	Agosto	2023-08-27T00:00:00	2024-11-08T01:00:00	6	Velocidad del viento	0
126978	7	Sololá	701	Sololá	4	Finca Santa Victoria	8	Agosto	2023-08-27T00:00:00	2024-11-08T01:00:00	7	Dirección del viento	0
126979	7	Sololá	701	Sololá	4	Finca Santa Victoria	8	Agosto	2023-08-27T00:00:00	2024-11-08T01:00:00	1	Precipitación	0
126980	7	Sololá	701	Sololá	4	Finca Santa Victoria	8	Agosto	2023-08-27T00:00:00	2024-11-08T01:00:00	8	Radiación solar	0
126981	7	Sololá	701	Sololá	4	Finca Santa Victoria	8	Agosto	2023-08-27T00:00:00	2024-11-08T02:00:00	2	Temperatura media	14.8
126982	7	Sololá	701	Sololá	4	Finca Santa Victoria	8	Agosto	2023-08-27T00:00:00	2024-11-08T02:00:00	4	Temperatura máxima	15.1
126983	7	Sololá	701	Sololá	4	Finca Santa Victoria	8	Agosto	2023-08-27T00:00:00	2024-11-08T02:00:00	3	Temperatura mínima	14.7
126984	7	Sololá	701	Sololá	4	Finca Santa Victoria	8	Agosto	2023-08-27T00:00:00	2024-11-08T02:00:00	5	Humedad	98
126985	7	Sololá	701	Sololá	4	Finca Santa Victoria	8	Agosto	2023-08-27T00:00:00	2024-11-08T02:00:00	6	Velocidad del viento	0
126986	7	Sololá	701	Sololá	4	Finca Santa Victoria	8	Agosto	2023-08-27T00:00:00	2024-11-08T02:00:00	7	Dirección del viento	0
126987	7	Sololá	701	Sololá	4	Finca Santa Victoria	8	Agosto	2023-08-27T00:00:00	2024-11-08T02:00:00	1	Precipitación	0
126988	7	Sololá	701	Sololá	4	Finca Santa Victoria	8	Agosto	2023-08-27T00:00:00	2024-11-08T02:00:00	8	Radiación solar	0
126989	7	Sololá	701	Sololá	4	Finca Santa Victoria	8	Agosto	2023-08-27T00:00:00	2024-11-08T03:00:00	2	Temperatura media	14.7
126990	7	Sololá	701	Sololá	4	Finca Santa Victoria	8	Agosto	2023-08-27T00:00:00	2024-11-08T03:00:00	4	Temperatura máxima	14.8
126991	7	Sololá	701	Sololá	4	Finca Santa Victoria	8	Agosto	2023-08-27T00:00:00	2024-11-08T03:00:00	3	Temperatura mínima	14.7
126992	7	Sololá	701	Sololá	4	Finca Santa Victoria	8	Agosto	2023-08-27T00:00:00	2024-11-08T03:00:00	5	Humedad	98
126993	7	Sololá	701	Sololá	4	Finca Santa Victoria	8	Agosto	2023-08-27T00:00:00	2024-11-08T03:00:00	6	Velocidad del viento	0
126994	7	Sololá	701	Sololá	4	Finca Santa Victoria	8	Agosto	2023-08-27T00:00:00	2024-11-08T03:00:00	7	Dirección del viento	0
126995	7	Sololá	701	Sololá	4	Finca Santa Victoria	8	Agosto	2023-08-27T00:00:00	2024-11-08T03:00:00	1	Precipitación	0
126996	7	Sololá	701	Sololá	4	Finca Santa Victoria	8	Agosto	2023-08-27T00:00:00	2024-11-08T03:00:00	8	Radiación solar	0
126997	7	Sololá	701	Sololá	4	Finca Santa Victoria	8	Agosto	2023-08-27T00:00:00	2024-11-08T04:00:00	2	Temperatura media	14.6
126998	7	Sololá	701	Sololá	4	Finca Santa Victoria	8	Agosto	2023-08-27T00:00:00	2024-11-08T04:00:00	4	Temperatura máxima	14.8
126999	7	Sololá	701	Sololá	4	Finca Santa Victoria	8	Agosto	2023-08-27T00:00:00	2024-11-08T04:00:00	3	Temperatura mínima	14.4
127000	7	Sololá	701	Sololá	4	Finca Santa Victoria	8	Agosto	2023-08-27T00:00:00	2024-11-08T04:00:00	5	Humedad	98
127001	7	Sololá	701	Sololá	4	Finca Santa Victoria	8	Agosto	2023-08-27T00:00:00	2024-11-08T04:00:00	6	Velocidad del viento	0
127002	7	Sololá	701	Sololá	4	Finca Santa Victoria	8	Agosto	2023-08-27T00:00:00	2024-11-08T04:00:00	7	Dirección del viento	0
127003	7	Sololá	701	Sololá	4	Finca Santa Victoria	8	Agosto	2023-08-27T00:00:00	2024-11-08T04:00:00	1	Precipitación	0
127004	7	Sololá	701	Sololá	4	Finca Santa Victoria	8	Agosto	2023-08-27T00:00:00	2024-11-08T04:00:00	8	Radiación solar	0
127005	7	Sololá	701	Sololá	4	Finca Santa Victoria	8	Agosto	2023-08-27T00:00:00	2024-11-08T05:00:00	2	Temperatura media	14.3
127006	7	Sololá	701	Sololá	4	Finca Santa Victoria	8	Agosto	2023-08-27T00:00:00	2024-11-08T05:00:00	4	Temperatura máxima	14.6
127007	7	Sololá	701	Sololá	4	Finca Santa Victoria	8	Agosto	2023-08-27T00:00:00	2024-11-08T05:00:00	3	Temperatura mínima	14.3
127008	7	Sololá	701	Sololá	4	Finca Santa Victoria	8	Agosto	2023-08-27T00:00:00	2024-11-08T05:00:00	5	Humedad	98
127009	7	Sololá	701	Sololá	4	Finca Santa Victoria	8	Agosto	2023-08-27T00:00:00	2024-11-08T05:00:00	6	Velocidad del viento	0
127010	7	Sololá	701	Sololá	4	Finca Santa Victoria	8	Agosto	2023-08-27T00:00:00	2024-11-08T05:00:00	7	Dirección del viento	0
127011	7	Sololá	701	Sololá	4	Finca Santa Victoria	8	Agosto	2023-08-27T00:00:00	2024-11-08T05:00:00	1	Precipitación	0
127012	7	Sololá	701	Sololá	4	Finca Santa Victoria	8	Agosto	2023-08-27T00:00:00	2024-11-08T05:00:00	8	Radiación solar	0
127013	7	Sololá	701	Sololá	4	Finca Santa Victoria	8	Agosto	2023-08-27T00:00:00	2024-11-08T06:00:00	2	Temperatura media	13.9
127014	7	Sololá	701	Sololá	4	Finca Santa Victoria	8	Agosto	2023-08-27T00:00:00	2024-11-08T06:00:00	4	Temperatura máxima	14.3
127015	7	Sololá	701	Sololá	4	Finca Santa Victoria	8	Agosto	2023-08-27T00:00:00	2024-11-08T06:00:00	3	Temperatura mínima	13.9
127016	7	Sololá	701	Sololá	4	Finca Santa Victoria	8	Agosto	2023-08-27T00:00:00	2024-11-08T06:00:00	5	Humedad	98
127017	7	Sololá	701	Sololá	4	Finca Santa Victoria	8	Agosto	2023-08-27T00:00:00	2024-11-08T06:00:00	6	Velocidad del viento	0
127018	7	Sololá	701	Sololá	4	Finca Santa Victoria	8	Agosto	2023-08-27T00:00:00	2024-11-08T06:00:00	7	Dirección del viento	0
127019	7	Sololá	701	Sololá	4	Finca Santa Victoria	8	Agosto	2023-08-27T00:00:00	2024-11-08T06:00:00	1	Precipitación	0
127020	7	Sololá	701	Sololá	4	Finca Santa Victoria	8	Agosto	2023-08-27T00:00:00	2024-11-08T06:00:00	8	Radiación solar	0
127021	7	Sololá	701	Sololá	4	Finca Santa Victoria	8	Agosto	2023-08-27T00:00:00	2024-11-08T07:00:00	2	Temperatura media	14.4
127022	7	Sololá	701	Sololá	4	Finca Santa Victoria	8	Agosto	2023-08-27T00:00:00	2024-11-08T07:00:00	4	Temperatura máxima	14.4
127023	7	Sololá	701	Sololá	4	Finca Santa Victoria	8	Agosto	2023-08-27T00:00:00	2024-11-08T07:00:00	3	Temperatura mínima	13.9
127024	7	Sololá	701	Sololá	4	Finca Santa Victoria	8	Agosto	2023-08-27T00:00:00	2024-11-08T07:00:00	5	Humedad	99
127025	7	Sololá	701	Sololá	4	Finca Santa Victoria	8	Agosto	2023-08-27T00:00:00	2024-11-08T07:00:00	6	Velocidad del viento	0
127026	7	Sololá	701	Sololá	4	Finca Santa Victoria	8	Agosto	2023-08-27T00:00:00	2024-11-08T07:00:00	7	Dirección del viento	0
127027	7	Sololá	701	Sololá	4	Finca Santa Victoria	8	Agosto	2023-08-27T00:00:00	2024-11-08T07:00:00	1	Precipitación	0.2
127028	7	Sololá	701	Sololá	4	Finca Santa Victoria	8	Agosto	2023-08-27T00:00:00	2024-11-08T07:00:00	8	Radiación solar	27
127029	7	Sololá	701	Sololá	4	Finca Santa Victoria	8	Agosto	2023-08-27T00:00:00	2024-11-08T08:00:00	2	Temperatura media	16.8
127030	7	Sololá	701	Sololá	4	Finca Santa Victoria	8	Agosto	2023-08-27T00:00:00	2024-11-08T08:00:00	4	Temperatura máxima	16.9
127031	7	Sololá	701	Sololá	4	Finca Santa Victoria	8	Agosto	2023-08-27T00:00:00	2024-11-08T08:00:00	3	Temperatura mínima	14.4
127032	7	Sololá	701	Sololá	4	Finca Santa Victoria	8	Agosto	2023-08-27T00:00:00	2024-11-08T08:00:00	5	Humedad	89
127033	7	Sololá	701	Sololá	4	Finca Santa Victoria	8	Agosto	2023-08-27T00:00:00	2024-11-08T08:00:00	6	Velocidad del viento	0
127034	7	Sololá	701	Sololá	4	Finca Santa Victoria	8	Agosto	2023-08-27T00:00:00	2024-11-08T08:00:00	7	Dirección del viento	0
127035	7	Sololá	701	Sololá	4	Finca Santa Victoria	8	Agosto	2023-08-27T00:00:00	2024-11-08T08:00:00	1	Precipitación	0
127036	7	Sololá	701	Sololá	4	Finca Santa Victoria	8	Agosto	2023-08-27T00:00:00	2024-11-08T08:00:00	8	Radiación solar	228
127037	7	Sololá	701	Sololá	4	Finca Santa Victoria	8	Agosto	2023-08-27T00:00:00	2024-11-08T09:00:00	2	Temperatura media	17.7
127038	7	Sololá	701	Sololá	4	Finca Santa Victoria	8	Agosto	2023-08-27T00:00:00	2024-11-08T09:00:00	4	Temperatura máxima	17.8
127039	7	Sololá	701	Sololá	4	Finca Santa Victoria	8	Agosto	2023-08-27T00:00:00	2024-11-08T09:00:00	3	Temperatura mínima	16.8
127040	7	Sololá	701	Sololá	4	Finca Santa Victoria	8	Agosto	2023-08-27T00:00:00	2024-11-08T09:00:00	5	Humedad	86
127041	7	Sololá	701	Sololá	4	Finca Santa Victoria	8	Agosto	2023-08-27T00:00:00	2024-11-08T09:00:00	6	Velocidad del viento	1.6
127042	7	Sololá	701	Sololá	4	Finca Santa Victoria	8	Agosto	2023-08-27T00:00:00	2024-11-08T09:00:00	7	Dirección del viento	1.61
127043	7	Sololá	701	Sololá	4	Finca Santa Victoria	8	Agosto	2023-08-27T00:00:00	2024-11-08T09:00:00	1	Precipitación	0
127044	7	Sololá	701	Sololá	4	Finca Santa Victoria	8	Agosto	2023-08-27T00:00:00	2024-11-08T09:00:00	8	Radiación solar	367
127045	7	Sololá	701	Sololá	4	Finca Santa Victoria	8	Agosto	2023-08-27T00:00:00	2024-11-08T10:00:00	2	Temperatura media	18.1
127046	7	Sololá	701	Sololá	4	Finca Santa Victoria	8	Agosto	2023-08-27T00:00:00	2024-11-08T10:00:00	4	Temperatura máxima	18.1
127047	7	Sololá	701	Sololá	4	Finca Santa Victoria	8	Agosto	2023-08-27T00:00:00	2024-11-08T10:00:00	3	Temperatura mínima	17.7
127048	7	Sololá	701	Sololá	4	Finca Santa Victoria	8	Agosto	2023-08-27T00:00:00	2024-11-08T10:00:00	5	Humedad	81
127049	7	Sololá	701	Sololá	4	Finca Santa Victoria	8	Agosto	2023-08-27T00:00:00	2024-11-08T10:00:00	6	Velocidad del viento	3.2
127050	7	Sololá	701	Sololá	4	Finca Santa Victoria	8	Agosto	2023-08-27T00:00:00	2024-11-08T10:00:00	7	Dirección del viento	3.22
127051	7	Sololá	701	Sololá	4	Finca Santa Victoria	8	Agosto	2023-08-27T00:00:00	2024-11-08T10:00:00	1	Precipitación	0
127052	7	Sololá	701	Sololá	4	Finca Santa Victoria	8	Agosto	2023-08-27T00:00:00	2024-11-08T10:00:00	8	Radiación solar	125
127053	7	Sololá	701	Sololá	4	Finca Santa Victoria	8	Agosto	2023-08-27T00:00:00	2024-11-08T11:00:00	2	Temperatura media	19.3
127054	7	Sololá	701	Sololá	4	Finca Santa Victoria	8	Agosto	2023-08-27T00:00:00	2024-11-08T11:00:00	4	Temperatura máxima	19.3
127055	7	Sololá	701	Sololá	4	Finca Santa Victoria	8	Agosto	2023-08-27T00:00:00	2024-11-08T11:00:00	3	Temperatura mínima	18.1
127056	7	Sololá	701	Sololá	4	Finca Santa Victoria	8	Agosto	2023-08-27T00:00:00	2024-11-08T11:00:00	5	Humedad	80
127057	7	Sololá	701	Sololá	4	Finca Santa Victoria	8	Agosto	2023-08-27T00:00:00	2024-11-08T11:00:00	6	Velocidad del viento	3.2
127058	7	Sololá	701	Sololá	4	Finca Santa Victoria	8	Agosto	2023-08-27T00:00:00	2024-11-08T11:00:00	7	Dirección del viento	3.22
127059	7	Sololá	701	Sololá	4	Finca Santa Victoria	8	Agosto	2023-08-27T00:00:00	2024-11-08T11:00:00	1	Precipitación	0
127060	7	Sololá	701	Sololá	4	Finca Santa Victoria	8	Agosto	2023-08-27T00:00:00	2024-11-08T11:00:00	8	Radiación solar	979
127061	7	Sololá	701	Sololá	4	Finca Santa Victoria	8	Agosto	2023-08-27T00:00:00	2024-11-08T12:00:00	2	Temperatura media	19.6
127062	7	Sololá	701	Sololá	4	Finca Santa Victoria	8	Agosto	2023-08-27T00:00:00	2024-11-08T12:00:00	4	Temperatura máxima	19.9
127063	7	Sololá	701	Sololá	4	Finca Santa Victoria	8	Agosto	2023-08-27T00:00:00	2024-11-08T12:00:00	3	Temperatura mínima	19.3
127064	7	Sololá	701	Sololá	4	Finca Santa Victoria	8	Agosto	2023-08-27T00:00:00	2024-11-08T12:00:00	5	Humedad	78
127065	7	Sololá	701	Sololá	4	Finca Santa Victoria	8	Agosto	2023-08-27T00:00:00	2024-11-08T12:00:00	6	Velocidad del viento	4.8
127066	7	Sololá	701	Sololá	4	Finca Santa Victoria	8	Agosto	2023-08-27T00:00:00	2024-11-08T12:00:00	7	Dirección del viento	4.83
127067	7	Sololá	701	Sololá	4	Finca Santa Victoria	8	Agosto	2023-08-27T00:00:00	2024-11-08T12:00:00	1	Precipitación	0
127068	7	Sololá	701	Sololá	4	Finca Santa Victoria	8	Agosto	2023-08-27T00:00:00	2024-11-08T12:00:00	8	Radiación solar	997
127069	7	Sololá	701	Sololá	4	Finca Santa Victoria	8	Agosto	2023-08-27T00:00:00	2024-11-08T13:00:00	2	Temperatura media	18.8
127070	7	Sololá	701	Sololá	4	Finca Santa Victoria	8	Agosto	2023-08-27T00:00:00	2024-11-08T13:00:00	4	Temperatura máxima	19.6
127071	7	Sololá	701	Sololá	4	Finca Santa Victoria	8	Agosto	2023-08-27T00:00:00	2024-11-08T13:00:00	3	Temperatura mínima	18.6
127072	7	Sololá	701	Sololá	4	Finca Santa Victoria	8	Agosto	2023-08-27T00:00:00	2024-11-08T13:00:00	5	Humedad	85
127073	7	Sololá	701	Sololá	4	Finca Santa Victoria	8	Agosto	2023-08-27T00:00:00	2024-11-08T13:00:00	6	Velocidad del viento	3.2
127074	7	Sololá	701	Sololá	4	Finca Santa Victoria	8	Agosto	2023-08-27T00:00:00	2024-11-08T13:00:00	7	Dirección del viento	3.22
127075	7	Sololá	701	Sololá	4	Finca Santa Victoria	8	Agosto	2023-08-27T00:00:00	2024-11-08T13:00:00	1	Precipitación	0
127076	7	Sololá	701	Sololá	4	Finca Santa Victoria	8	Agosto	2023-08-27T00:00:00	2024-11-08T13:00:00	8	Radiación solar	243
127077	7	Sololá	701	Sololá	4	Finca Santa Victoria	8	Agosto	2023-08-27T00:00:00	2024-11-08T14:00:00	2	Temperatura media	19
127078	7	Sololá	701	Sololá	4	Finca Santa Victoria	8	Agosto	2023-08-27T00:00:00	2024-11-08T14:00:00	4	Temperatura máxima	19.2
127079	7	Sololá	701	Sololá	4	Finca Santa Victoria	8	Agosto	2023-08-27T00:00:00	2024-11-08T14:00:00	3	Temperatura mínima	18.6
127080	7	Sololá	701	Sololá	4	Finca Santa Victoria	8	Agosto	2023-08-27T00:00:00	2024-11-08T14:00:00	5	Humedad	83
127081	7	Sololá	701	Sololá	4	Finca Santa Victoria	8	Agosto	2023-08-27T00:00:00	2024-11-08T14:00:00	6	Velocidad del viento	3.2
127082	7	Sololá	701	Sololá	4	Finca Santa Victoria	8	Agosto	2023-08-27T00:00:00	2024-11-08T14:00:00	7	Dirección del viento	3.22
127083	7	Sololá	701	Sololá	4	Finca Santa Victoria	8	Agosto	2023-08-27T00:00:00	2024-11-08T14:00:00	1	Precipitación	0
127084	7	Sololá	701	Sololá	4	Finca Santa Victoria	8	Agosto	2023-08-27T00:00:00	2024-11-08T14:00:00	8	Radiación solar	216
127085	7	Sololá	701	Sololá	4	Finca Santa Victoria	8	Agosto	2023-08-27T00:00:00	2024-11-08T15:00:00	2	Temperatura media	18.9
127086	7	Sololá	701	Sololá	4	Finca Santa Victoria	8	Agosto	2023-08-27T00:00:00	2024-11-08T15:00:00	4	Temperatura máxima	19.4
127087	7	Sololá	701	Sololá	4	Finca Santa Victoria	8	Agosto	2023-08-27T00:00:00	2024-11-08T15:00:00	3	Temperatura mínima	18.5
127088	7	Sololá	701	Sololá	4	Finca Santa Victoria	8	Agosto	2023-08-27T00:00:00	2024-11-08T15:00:00	5	Humedad	81
127089	7	Sololá	701	Sololá	4	Finca Santa Victoria	8	Agosto	2023-08-27T00:00:00	2024-11-08T15:00:00	6	Velocidad del viento	4.8
127090	7	Sololá	701	Sololá	4	Finca Santa Victoria	8	Agosto	2023-08-27T00:00:00	2024-11-08T15:00:00	7	Dirección del viento	4.83
127091	7	Sololá	701	Sololá	4	Finca Santa Victoria	8	Agosto	2023-08-27T00:00:00	2024-11-08T15:00:00	1	Precipitación	0
127092	7	Sololá	701	Sololá	4	Finca Santa Victoria	8	Agosto	2023-08-27T00:00:00	2024-11-08T15:00:00	8	Radiación solar	186
127093	7	Sololá	701	Sololá	4	Finca Santa Victoria	8	Agosto	2023-08-27T00:00:00	2024-11-08T16:00:00	2	Temperatura media	18.2
127094	7	Sololá	701	Sololá	4	Finca Santa Victoria	8	Agosto	2023-08-27T00:00:00	2024-11-08T16:00:00	4	Temperatura máxima	18.9
127095	7	Sololá	701	Sololá	4	Finca Santa Victoria	8	Agosto	2023-08-27T00:00:00	2024-11-08T16:00:00	3	Temperatura mínima	17.9
127096	7	Sololá	701	Sololá	4	Finca Santa Victoria	8	Agosto	2023-08-27T00:00:00	2024-11-08T16:00:00	5	Humedad	85
127097	7	Sololá	701	Sololá	4	Finca Santa Victoria	8	Agosto	2023-08-27T00:00:00	2024-11-08T16:00:00	6	Velocidad del viento	3.2
127098	7	Sololá	701	Sololá	4	Finca Santa Victoria	8	Agosto	2023-08-27T00:00:00	2024-11-08T16:00:00	7	Dirección del viento	3.22
127099	7	Sololá	701	Sololá	4	Finca Santa Victoria	8	Agosto	2023-08-27T00:00:00	2024-11-08T16:00:00	1	Precipitación	0
127100	7	Sololá	701	Sololá	4	Finca Santa Victoria	8	Agosto	2023-08-27T00:00:00	2024-11-08T16:00:00	8	Radiación solar	147
127101	7	Sololá	701	Sololá	4	Finca Santa Victoria	8	Agosto	2023-08-27T00:00:00	2024-11-08T17:00:00	2	Temperatura media	17
127102	7	Sololá	701	Sololá	4	Finca Santa Victoria	8	Agosto	2023-08-27T00:00:00	2024-11-08T17:00:00	4	Temperatura máxima	18.2
127103	7	Sololá	701	Sololá	4	Finca Santa Victoria	8	Agosto	2023-08-27T00:00:00	2024-11-08T17:00:00	3	Temperatura mínima	17
127104	7	Sololá	701	Sololá	4	Finca Santa Victoria	8	Agosto	2023-08-27T00:00:00	2024-11-08T17:00:00	5	Humedad	93
127105	7	Sololá	701	Sololá	4	Finca Santa Victoria	8	Agosto	2023-08-27T00:00:00	2024-11-08T17:00:00	6	Velocidad del viento	3.2
127106	7	Sololá	701	Sololá	4	Finca Santa Victoria	8	Agosto	2023-08-27T00:00:00	2024-11-08T17:00:00	7	Dirección del viento	3.22
127107	7	Sololá	701	Sololá	4	Finca Santa Victoria	8	Agosto	2023-08-27T00:00:00	2024-11-08T17:00:00	1	Precipitación	0
127108	7	Sololá	701	Sololá	4	Finca Santa Victoria	8	Agosto	2023-08-27T00:00:00	2024-11-08T17:00:00	8	Radiación solar	78
127109	7	Sololá	701	Sololá	4	Finca Santa Victoria	8	Agosto	2023-08-27T00:00:00	2024-11-08T18:00:00	2	Temperatura media	16.2
127110	7	Sololá	701	Sololá	4	Finca Santa Victoria	8	Agosto	2023-08-27T00:00:00	2024-11-08T18:00:00	4	Temperatura máxima	17
127111	7	Sololá	701	Sololá	4	Finca Santa Victoria	8	Agosto	2023-08-27T00:00:00	2024-11-08T18:00:00	3	Temperatura mínima	16.2
127112	7	Sololá	701	Sololá	4	Finca Santa Victoria	8	Agosto	2023-08-27T00:00:00	2024-11-08T18:00:00	5	Humedad	94
127113	7	Sololá	701	Sololá	4	Finca Santa Victoria	8	Agosto	2023-08-27T00:00:00	2024-11-08T18:00:00	6	Velocidad del viento	3.2
127114	7	Sololá	701	Sololá	4	Finca Santa Victoria	8	Agosto	2023-08-27T00:00:00	2024-11-08T18:00:00	7	Dirección del viento	3.22
127115	7	Sololá	701	Sololá	4	Finca Santa Victoria	8	Agosto	2023-08-27T00:00:00	2024-11-08T18:00:00	1	Precipitación	0
127116	7	Sololá	701	Sololá	4	Finca Santa Victoria	8	Agosto	2023-08-27T00:00:00	2024-11-08T18:00:00	8	Radiación solar	17
127117	7	Sololá	701	Sololá	4	Finca Santa Victoria	8	Agosto	2023-08-27T00:00:00	2024-11-08T19:00:00	2	Temperatura media	15.9
127118	7	Sololá	701	Sololá	4	Finca Santa Victoria	8	Agosto	2023-08-27T00:00:00	2024-11-08T19:00:00	4	Temperatura máxima	16.3
127119	7	Sololá	701	Sololá	4	Finca Santa Victoria	8	Agosto	2023-08-27T00:00:00	2024-11-08T19:00:00	3	Temperatura mínima	15.9
127120	7	Sololá	701	Sololá	4	Finca Santa Victoria	8	Agosto	2023-08-27T00:00:00	2024-11-08T19:00:00	5	Humedad	94
127121	7	Sololá	701	Sololá	4	Finca Santa Victoria	8	Agosto	2023-08-27T00:00:00	2024-11-08T19:00:00	6	Velocidad del viento	1.6
127122	7	Sololá	701	Sololá	4	Finca Santa Victoria	8	Agosto	2023-08-27T00:00:00	2024-11-08T19:00:00	7	Dirección del viento	1.61
127123	7	Sololá	701	Sololá	4	Finca Santa Victoria	8	Agosto	2023-08-27T00:00:00	2024-11-08T19:00:00	1	Precipitación	0
127124	7	Sololá	701	Sololá	4	Finca Santa Victoria	8	Agosto	2023-08-27T00:00:00	2024-11-08T19:00:00	8	Radiación solar	0
127125	7	Sololá	701	Sololá	4	Finca Santa Victoria	8	Agosto	2023-08-27T00:00:00	2024-11-08T20:00:00	2	Temperatura media	14.7
127126	7	Sololá	701	Sololá	4	Finca Santa Victoria	8	Agosto	2023-08-27T00:00:00	2024-11-08T20:00:00	4	Temperatura máxima	15.9
127127	7	Sololá	701	Sololá	4	Finca Santa Victoria	8	Agosto	2023-08-27T00:00:00	2024-11-08T20:00:00	3	Temperatura mínima	14.7
127128	7	Sololá	701	Sololá	4	Finca Santa Victoria	8	Agosto	2023-08-27T00:00:00	2024-11-08T20:00:00	5	Humedad	95
127129	7	Sololá	701	Sololá	4	Finca Santa Victoria	8	Agosto	2023-08-27T00:00:00	2024-11-08T20:00:00	6	Velocidad del viento	1.6
127130	7	Sololá	701	Sololá	4	Finca Santa Victoria	8	Agosto	2023-08-27T00:00:00	2024-11-08T20:00:00	7	Dirección del viento	1.61
127131	7	Sololá	701	Sololá	4	Finca Santa Victoria	8	Agosto	2023-08-27T00:00:00	2024-11-08T20:00:00	1	Precipitación	0
127132	7	Sololá	701	Sololá	4	Finca Santa Victoria	8	Agosto	2023-08-27T00:00:00	2024-11-08T20:00:00	8	Radiación solar	0
127133	7	Sololá	701	Sololá	4	Finca Santa Victoria	8	Agosto	2023-08-27T00:00:00	2024-11-08T21:00:00	2	Temperatura media	14.7
127134	7	Sololá	701	Sololá	4	Finca Santa Victoria	8	Agosto	2023-08-27T00:00:00	2024-11-08T21:00:00	4	Temperatura máxima	14.7
127135	7	Sololá	701	Sololá	4	Finca Santa Victoria	8	Agosto	2023-08-27T00:00:00	2024-11-08T21:00:00	3	Temperatura mínima	14.4
127136	7	Sololá	701	Sololá	4	Finca Santa Victoria	8	Agosto	2023-08-27T00:00:00	2024-11-08T21:00:00	5	Humedad	97
127137	7	Sololá	701	Sololá	4	Finca Santa Victoria	8	Agosto	2023-08-27T00:00:00	2024-11-08T21:00:00	6	Velocidad del viento	1.6
127138	7	Sololá	701	Sololá	4	Finca Santa Victoria	8	Agosto	2023-08-27T00:00:00	2024-11-08T21:00:00	7	Dirección del viento	1.61
127139	7	Sololá	701	Sololá	4	Finca Santa Victoria	8	Agosto	2023-08-27T00:00:00	2024-11-08T21:00:00	1	Precipitación	0
127140	7	Sololá	701	Sololá	4	Finca Santa Victoria	8	Agosto	2023-08-27T00:00:00	2024-11-08T21:00:00	8	Radiación solar	0
127141	7	Sololá	701	Sololá	4	Finca Santa Victoria	8	Agosto	2023-08-27T00:00:00	2024-11-08T22:00:00	2	Temperatura media	14.7
127142	7	Sololá	701	Sololá	4	Finca Santa Victoria	8	Agosto	2023-08-27T00:00:00	2024-11-08T22:00:00	4	Temperatura máxima	14.8
127143	7	Sololá	701	Sololá	4	Finca Santa Victoria	8	Agosto	2023-08-27T00:00:00	2024-11-08T22:00:00	3	Temperatura mínima	14.7
127144	7	Sololá	701	Sololá	4	Finca Santa Victoria	8	Agosto	2023-08-27T00:00:00	2024-11-08T22:00:00	5	Humedad	98
127145	7	Sololá	701	Sololá	4	Finca Santa Victoria	8	Agosto	2023-08-27T00:00:00	2024-11-08T22:00:00	6	Velocidad del viento	0
127146	7	Sololá	701	Sololá	4	Finca Santa Victoria	8	Agosto	2023-08-27T00:00:00	2024-11-08T22:00:00	7	Dirección del viento	0
127147	7	Sololá	701	Sololá	4	Finca Santa Victoria	8	Agosto	2023-08-27T00:00:00	2024-11-08T22:00:00	1	Precipitación	0.4
127148	7	Sololá	701	Sololá	4	Finca Santa Victoria	8	Agosto	2023-08-27T00:00:00	2024-11-08T22:00:00	8	Radiación solar	0
127149	7	Sololá	701	Sololá	4	Finca Santa Victoria	8	Agosto	2023-08-27T00:00:00	2024-11-08T23:00:00	2	Temperatura media	14.6
127150	7	Sololá	701	Sololá	4	Finca Santa Victoria	8	Agosto	2023-08-27T00:00:00	2024-11-08T23:00:00	4	Temperatura máxima	14.7
127151	7	Sololá	701	Sololá	4	Finca Santa Victoria	8	Agosto	2023-08-27T00:00:00	2024-11-08T23:00:00	3	Temperatura mínima	14.5
127152	7	Sololá	701	Sololá	4	Finca Santa Victoria	8	Agosto	2023-08-27T00:00:00	2024-11-08T23:00:00	5	Humedad	97
127153	7	Sololá	701	Sololá	4	Finca Santa Victoria	8	Agosto	2023-08-27T00:00:00	2024-11-08T23:00:00	6	Velocidad del viento	0
127154	7	Sololá	701	Sololá	4	Finca Santa Victoria	8	Agosto	2023-08-27T00:00:00	2024-11-08T23:00:00	7	Dirección del viento	0
127155	7	Sololá	701	Sololá	4	Finca Santa Victoria	8	Agosto	2023-08-27T00:00:00	2024-11-08T23:00:00	1	Precipitación	0.8
127156	7	Sololá	701	Sololá	4	Finca Santa Victoria	8	Agosto	2023-08-27T00:00:00	2024-11-08T23:00:00	8	Radiación solar	0
127157	7	Sololá	701	Sololá	4	Finca Santa Victoria	8	Agosto	2023-08-28T00:00:00	2024-11-08T00:00:00	2	Temperatura media	14.5
127158	7	Sololá	701	Sololá	4	Finca Santa Victoria	8	Agosto	2023-08-28T00:00:00	2024-11-08T00:00:00	4	Temperatura máxima	14.6
127159	7	Sololá	701	Sololá	4	Finca Santa Victoria	8	Agosto	2023-08-28T00:00:00	2024-11-08T00:00:00	3	Temperatura mínima	14.4
127160	7	Sololá	701	Sololá	4	Finca Santa Victoria	8	Agosto	2023-08-28T00:00:00	2024-11-08T00:00:00	5	Humedad	98
127161	7	Sololá	701	Sololá	4	Finca Santa Victoria	8	Agosto	2023-08-28T00:00:00	2024-11-08T00:00:00	6	Velocidad del viento	0
127162	7	Sololá	701	Sololá	4	Finca Santa Victoria	8	Agosto	2023-08-28T00:00:00	2024-11-08T00:00:00	7	Dirección del viento	0
127163	7	Sololá	701	Sololá	4	Finca Santa Victoria	8	Agosto	2023-08-28T00:00:00	2024-11-08T00:00:00	1	Precipitación	6.8
127164	7	Sololá	701	Sololá	4	Finca Santa Victoria	8	Agosto	2023-08-28T00:00:00	2024-11-08T00:00:00	8	Radiación solar	0
127165	7	Sololá	701	Sololá	4	Finca Santa Victoria	8	Agosto	2023-08-28T00:00:00	2024-11-08T01:00:00	2	Temperatura media	14.2
127166	7	Sololá	701	Sololá	4	Finca Santa Victoria	8	Agosto	2023-08-28T00:00:00	2024-11-08T01:00:00	4	Temperatura máxima	14.5
127167	7	Sololá	701	Sololá	4	Finca Santa Victoria	8	Agosto	2023-08-28T00:00:00	2024-11-08T01:00:00	3	Temperatura mínima	14.1
127168	7	Sololá	701	Sololá	4	Finca Santa Victoria	8	Agosto	2023-08-28T00:00:00	2024-11-08T01:00:00	5	Humedad	98
127169	7	Sololá	701	Sololá	4	Finca Santa Victoria	8	Agosto	2023-08-28T00:00:00	2024-11-08T01:00:00	6	Velocidad del viento	0
127170	7	Sololá	701	Sololá	4	Finca Santa Victoria	8	Agosto	2023-08-28T00:00:00	2024-11-08T01:00:00	7	Dirección del viento	0
127171	7	Sololá	701	Sololá	4	Finca Santa Victoria	8	Agosto	2023-08-28T00:00:00	2024-11-08T01:00:00	1	Precipitación	3.6
127172	7	Sololá	701	Sololá	4	Finca Santa Victoria	8	Agosto	2023-08-28T00:00:00	2024-11-08T01:00:00	8	Radiación solar	0
127173	7	Sololá	701	Sololá	4	Finca Santa Victoria	8	Agosto	2023-08-28T00:00:00	2024-11-08T02:00:00	2	Temperatura media	14.1
127174	7	Sololá	701	Sololá	4	Finca Santa Victoria	8	Agosto	2023-08-28T00:00:00	2024-11-08T02:00:00	4	Temperatura máxima	14.2
127175	7	Sololá	701	Sololá	4	Finca Santa Victoria	8	Agosto	2023-08-28T00:00:00	2024-11-08T02:00:00	3	Temperatura mínima	14.1
127176	7	Sololá	701	Sololá	4	Finca Santa Victoria	8	Agosto	2023-08-28T00:00:00	2024-11-08T02:00:00	5	Humedad	98
127177	7	Sololá	701	Sololá	4	Finca Santa Victoria	8	Agosto	2023-08-28T00:00:00	2024-11-08T02:00:00	6	Velocidad del viento	0
127178	7	Sololá	701	Sololá	4	Finca Santa Victoria	8	Agosto	2023-08-28T00:00:00	2024-11-08T02:00:00	7	Dirección del viento	0
127179	7	Sololá	701	Sololá	4	Finca Santa Victoria	8	Agosto	2023-08-28T00:00:00	2024-11-08T02:00:00	1	Precipitación	3.2
127180	7	Sololá	701	Sololá	4	Finca Santa Victoria	8	Agosto	2023-08-28T00:00:00	2024-11-08T02:00:00	8	Radiación solar	0
127181	7	Sololá	701	Sololá	4	Finca Santa Victoria	8	Agosto	2023-08-28T00:00:00	2024-11-08T03:00:00	2	Temperatura media	13.1
127182	7	Sololá	701	Sololá	4	Finca Santa Victoria	8	Agosto	2023-08-28T00:00:00	2024-11-08T03:00:00	4	Temperatura máxima	14.2
127183	7	Sololá	701	Sololá	4	Finca Santa Victoria	8	Agosto	2023-08-28T00:00:00	2024-11-08T03:00:00	3	Temperatura mínima	13.1
127184	7	Sololá	701	Sololá	4	Finca Santa Victoria	8	Agosto	2023-08-28T00:00:00	2024-11-08T03:00:00	5	Humedad	98
127185	7	Sololá	701	Sololá	4	Finca Santa Victoria	8	Agosto	2023-08-28T00:00:00	2024-11-08T03:00:00	6	Velocidad del viento	0
127186	7	Sololá	701	Sololá	4	Finca Santa Victoria	8	Agosto	2023-08-28T00:00:00	2024-11-08T03:00:00	7	Dirección del viento	0
127187	7	Sololá	701	Sololá	4	Finca Santa Victoria	8	Agosto	2023-08-28T00:00:00	2024-11-08T03:00:00	1	Precipitación	2.2
127188	7	Sololá	701	Sololá	4	Finca Santa Victoria	8	Agosto	2023-08-28T00:00:00	2024-11-08T03:00:00	8	Radiación solar	0
127189	7	Sololá	701	Sololá	4	Finca Santa Victoria	8	Agosto	2023-08-28T00:00:00	2024-11-08T04:00:00	2	Temperatura media	13.1
127190	7	Sololá	701	Sololá	4	Finca Santa Victoria	8	Agosto	2023-08-28T00:00:00	2024-11-08T04:00:00	4	Temperatura máxima	13.2
127191	7	Sololá	701	Sololá	4	Finca Santa Victoria	8	Agosto	2023-08-28T00:00:00	2024-11-08T04:00:00	3	Temperatura mínima	13
127192	7	Sololá	701	Sololá	4	Finca Santa Victoria	8	Agosto	2023-08-28T00:00:00	2024-11-08T04:00:00	5	Humedad	98
127193	7	Sololá	701	Sololá	4	Finca Santa Victoria	8	Agosto	2023-08-28T00:00:00	2024-11-08T04:00:00	6	Velocidad del viento	0
127194	7	Sololá	701	Sololá	4	Finca Santa Victoria	8	Agosto	2023-08-28T00:00:00	2024-11-08T04:00:00	7	Dirección del viento	0
127195	7	Sololá	701	Sololá	4	Finca Santa Victoria	8	Agosto	2023-08-28T00:00:00	2024-11-08T04:00:00	1	Precipitación	0.2
127196	7	Sololá	701	Sololá	4	Finca Santa Victoria	8	Agosto	2023-08-28T00:00:00	2024-11-08T04:00:00	8	Radiación solar	0
127197	7	Sololá	701	Sololá	4	Finca Santa Victoria	8	Agosto	2023-08-28T00:00:00	2024-11-08T05:00:00	2	Temperatura media	12.9
127198	7	Sololá	701	Sololá	4	Finca Santa Victoria	8	Agosto	2023-08-28T00:00:00	2024-11-08T05:00:00	4	Temperatura máxima	13.1
127199	7	Sololá	701	Sololá	4	Finca Santa Victoria	8	Agosto	2023-08-28T00:00:00	2024-11-08T05:00:00	3	Temperatura mínima	12.9
127200	7	Sololá	701	Sololá	4	Finca Santa Victoria	8	Agosto	2023-08-28T00:00:00	2024-11-08T05:00:00	5	Humedad	98
127201	7	Sololá	701	Sololá	4	Finca Santa Victoria	8	Agosto	2023-08-28T00:00:00	2024-11-08T05:00:00	6	Velocidad del viento	0
127202	7	Sololá	701	Sololá	4	Finca Santa Victoria	8	Agosto	2023-08-28T00:00:00	2024-11-08T05:00:00	7	Dirección del viento	0
127203	7	Sololá	701	Sololá	4	Finca Santa Victoria	8	Agosto	2023-08-28T00:00:00	2024-11-08T05:00:00	1	Precipitación	0
127204	7	Sololá	701	Sololá	4	Finca Santa Victoria	8	Agosto	2023-08-28T00:00:00	2024-11-08T05:00:00	8	Radiación solar	0
127205	7	Sololá	701	Sololá	4	Finca Santa Victoria	8	Agosto	2023-08-28T00:00:00	2024-11-08T06:00:00	2	Temperatura media	12.8
127206	7	Sololá	701	Sololá	4	Finca Santa Victoria	8	Agosto	2023-08-28T00:00:00	2024-11-08T06:00:00	4	Temperatura máxima	12.9
127207	7	Sololá	701	Sololá	4	Finca Santa Victoria	8	Agosto	2023-08-28T00:00:00	2024-11-08T06:00:00	3	Temperatura mínima	12.7
127208	7	Sololá	701	Sololá	4	Finca Santa Victoria	8	Agosto	2023-08-28T00:00:00	2024-11-08T06:00:00	5	Humedad	97
127209	7	Sololá	701	Sololá	4	Finca Santa Victoria	8	Agosto	2023-08-28T00:00:00	2024-11-08T06:00:00	6	Velocidad del viento	1.6
127210	7	Sololá	701	Sololá	4	Finca Santa Victoria	8	Agosto	2023-08-28T00:00:00	2024-11-08T06:00:00	7	Dirección del viento	1.61
127211	7	Sololá	701	Sololá	4	Finca Santa Victoria	8	Agosto	2023-08-28T00:00:00	2024-11-08T06:00:00	1	Precipitación	0
127212	7	Sololá	701	Sololá	4	Finca Santa Victoria	8	Agosto	2023-08-28T00:00:00	2024-11-08T06:00:00	8	Radiación solar	0
127213	7	Sololá	701	Sololá	4	Finca Santa Victoria	8	Agosto	2023-08-28T00:00:00	2024-11-08T07:00:00	2	Temperatura media	13.1
127214	7	Sololá	701	Sololá	4	Finca Santa Victoria	8	Agosto	2023-08-28T00:00:00	2024-11-08T07:00:00	4	Temperatura máxima	13.1
127215	7	Sololá	701	Sololá	4	Finca Santa Victoria	8	Agosto	2023-08-28T00:00:00	2024-11-08T07:00:00	3	Temperatura mínima	12.7
127216	7	Sololá	701	Sololá	4	Finca Santa Victoria	8	Agosto	2023-08-28T00:00:00	2024-11-08T07:00:00	5	Humedad	97
127217	7	Sololá	701	Sololá	4	Finca Santa Victoria	8	Agosto	2023-08-28T00:00:00	2024-11-08T07:00:00	6	Velocidad del viento	1.6
127218	7	Sololá	701	Sololá	4	Finca Santa Victoria	8	Agosto	2023-08-28T00:00:00	2024-11-08T07:00:00	7	Dirección del viento	1.61
127219	7	Sololá	701	Sololá	4	Finca Santa Victoria	8	Agosto	2023-08-28T00:00:00	2024-11-08T07:00:00	1	Precipitación	0
127220	7	Sololá	701	Sololá	4	Finca Santa Victoria	8	Agosto	2023-08-28T00:00:00	2024-11-08T07:00:00	8	Radiación solar	22
127221	7	Sololá	701	Sololá	4	Finca Santa Victoria	8	Agosto	2023-08-28T00:00:00	2024-11-08T08:00:00	2	Temperatura media	15.8
127222	7	Sololá	701	Sololá	4	Finca Santa Victoria	8	Agosto	2023-08-28T00:00:00	2024-11-08T08:00:00	4	Temperatura máxima	15.8
127223	7	Sololá	701	Sololá	4	Finca Santa Victoria	8	Agosto	2023-08-28T00:00:00	2024-11-08T08:00:00	3	Temperatura mínima	13.1
127224	7	Sololá	701	Sololá	4	Finca Santa Victoria	8	Agosto	2023-08-28T00:00:00	2024-11-08T08:00:00	5	Humedad	87
127225	7	Sololá	701	Sololá	4	Finca Santa Victoria	8	Agosto	2023-08-28T00:00:00	2024-11-08T08:00:00	6	Velocidad del viento	1.6
127226	7	Sololá	701	Sololá	4	Finca Santa Victoria	8	Agosto	2023-08-28T00:00:00	2024-11-08T08:00:00	7	Dirección del viento	1.61
127227	7	Sololá	701	Sololá	4	Finca Santa Victoria	8	Agosto	2023-08-28T00:00:00	2024-11-08T08:00:00	1	Precipitación	0
127228	7	Sololá	701	Sololá	4	Finca Santa Victoria	8	Agosto	2023-08-28T00:00:00	2024-11-08T08:00:00	8	Radiación solar	242
127229	7	Sololá	701	Sololá	4	Finca Santa Victoria	8	Agosto	2023-08-28T00:00:00	2024-11-08T09:00:00	2	Temperatura media	16.4
127230	7	Sololá	701	Sololá	4	Finca Santa Victoria	8	Agosto	2023-08-28T00:00:00	2024-11-08T09:00:00	4	Temperatura máxima	16.4
127231	7	Sololá	701	Sololá	4	Finca Santa Victoria	8	Agosto	2023-08-28T00:00:00	2024-11-08T09:00:00	3	Temperatura mínima	15.4
127232	7	Sololá	701	Sololá	4	Finca Santa Victoria	8	Agosto	2023-08-28T00:00:00	2024-11-08T09:00:00	5	Humedad	87
127233	7	Sololá	701	Sololá	4	Finca Santa Victoria	8	Agosto	2023-08-28T00:00:00	2024-11-08T09:00:00	6	Velocidad del viento	1.6
127234	7	Sololá	701	Sololá	4	Finca Santa Victoria	8	Agosto	2023-08-28T00:00:00	2024-11-08T09:00:00	7	Dirección del viento	1.61
127235	7	Sololá	701	Sololá	4	Finca Santa Victoria	8	Agosto	2023-08-28T00:00:00	2024-11-08T09:00:00	1	Precipitación	0
127236	7	Sololá	701	Sololá	4	Finca Santa Victoria	8	Agosto	2023-08-28T00:00:00	2024-11-08T09:00:00	8	Radiación solar	260
127237	7	Sololá	701	Sololá	4	Finca Santa Victoria	8	Agosto	2023-08-28T00:00:00	2024-11-08T10:00:00	2	Temperatura media	16.8
127238	7	Sololá	701	Sololá	4	Finca Santa Victoria	8	Agosto	2023-08-28T00:00:00	2024-11-08T10:00:00	4	Temperatura máxima	16.8
127239	7	Sololá	701	Sololá	4	Finca Santa Victoria	8	Agosto	2023-08-28T00:00:00	2024-11-08T10:00:00	3	Temperatura mínima	16.3
127240	7	Sololá	701	Sololá	4	Finca Santa Victoria	8	Agosto	2023-08-28T00:00:00	2024-11-08T10:00:00	5	Humedad	85
127241	7	Sololá	701	Sololá	4	Finca Santa Victoria	8	Agosto	2023-08-28T00:00:00	2024-11-08T10:00:00	6	Velocidad del viento	3.2
127242	7	Sololá	701	Sololá	4	Finca Santa Victoria	8	Agosto	2023-08-28T00:00:00	2024-11-08T10:00:00	7	Dirección del viento	3.22
127243	7	Sololá	701	Sololá	4	Finca Santa Victoria	8	Agosto	2023-08-28T00:00:00	2024-11-08T10:00:00	1	Precipitación	0
127244	7	Sololá	701	Sololá	4	Finca Santa Victoria	8	Agosto	2023-08-28T00:00:00	2024-11-08T10:00:00	8	Radiación solar	166
127245	7	Sololá	701	Sololá	4	Finca Santa Victoria	8	Agosto	2023-08-28T00:00:00	2024-11-08T11:00:00	2	Temperatura media	18.9
127246	7	Sololá	701	Sololá	4	Finca Santa Victoria	8	Agosto	2023-08-28T00:00:00	2024-11-08T11:00:00	4	Temperatura máxima	18.9
127247	7	Sololá	701	Sololá	4	Finca Santa Victoria	8	Agosto	2023-08-28T00:00:00	2024-11-08T11:00:00	3	Temperatura mínima	16.8
127248	7	Sololá	701	Sololá	4	Finca Santa Victoria	8	Agosto	2023-08-28T00:00:00	2024-11-08T11:00:00	5	Humedad	77
127249	7	Sololá	701	Sololá	4	Finca Santa Victoria	8	Agosto	2023-08-28T00:00:00	2024-11-08T11:00:00	6	Velocidad del viento	3.2
127250	7	Sololá	701	Sololá	4	Finca Santa Victoria	8	Agosto	2023-08-28T00:00:00	2024-11-08T11:00:00	7	Dirección del viento	3.22
127251	7	Sololá	701	Sololá	4	Finca Santa Victoria	8	Agosto	2023-08-28T00:00:00	2024-11-08T11:00:00	1	Precipitación	0
127252	7	Sololá	701	Sololá	4	Finca Santa Victoria	8	Agosto	2023-08-28T00:00:00	2024-11-08T11:00:00	8	Radiación solar	973
127253	7	Sololá	701	Sololá	4	Finca Santa Victoria	8	Agosto	2023-08-28T00:00:00	2024-11-08T12:00:00	2	Temperatura media	18.6
127254	7	Sololá	701	Sololá	4	Finca Santa Victoria	8	Agosto	2023-08-28T00:00:00	2024-11-08T12:00:00	4	Temperatura máxima	18.9
127255	7	Sololá	701	Sololá	4	Finca Santa Victoria	8	Agosto	2023-08-28T00:00:00	2024-11-08T12:00:00	3	Temperatura mínima	18.4
127256	7	Sololá	701	Sololá	4	Finca Santa Victoria	8	Agosto	2023-08-28T00:00:00	2024-11-08T12:00:00	5	Humedad	83
127257	7	Sololá	701	Sololá	4	Finca Santa Victoria	8	Agosto	2023-08-28T00:00:00	2024-11-08T12:00:00	6	Velocidad del viento	4.8
127258	7	Sololá	701	Sololá	4	Finca Santa Victoria	8	Agosto	2023-08-28T00:00:00	2024-11-08T12:00:00	7	Dirección del viento	4.83
127259	7	Sololá	701	Sololá	4	Finca Santa Victoria	8	Agosto	2023-08-28T00:00:00	2024-11-08T12:00:00	1	Precipitación	0
127260	7	Sololá	701	Sololá	4	Finca Santa Victoria	8	Agosto	2023-08-28T00:00:00	2024-11-08T12:00:00	8	Radiación solar	1026
127261	7	Sololá	701	Sololá	4	Finca Santa Victoria	8	Agosto	2023-08-28T00:00:00	2024-11-08T13:00:00	2	Temperatura media	18.1
127262	7	Sololá	701	Sololá	4	Finca Santa Victoria	8	Agosto	2023-08-28T00:00:00	2024-11-08T13:00:00	4	Temperatura máxima	18.8
127263	7	Sololá	701	Sololá	4	Finca Santa Victoria	8	Agosto	2023-08-28T00:00:00	2024-11-08T13:00:00	3	Temperatura mínima	17.7
127264	7	Sololá	701	Sololá	4	Finca Santa Victoria	8	Agosto	2023-08-28T00:00:00	2024-11-08T13:00:00	5	Humedad	87
127265	7	Sololá	701	Sololá	4	Finca Santa Victoria	8	Agosto	2023-08-28T00:00:00	2024-11-08T13:00:00	6	Velocidad del viento	4.8
127266	7	Sololá	701	Sololá	4	Finca Santa Victoria	8	Agosto	2023-08-28T00:00:00	2024-11-08T13:00:00	7	Dirección del viento	4.83
127267	7	Sololá	701	Sololá	4	Finca Santa Victoria	8	Agosto	2023-08-28T00:00:00	2024-11-08T13:00:00	1	Precipitación	0
127268	7	Sololá	701	Sololá	4	Finca Santa Victoria	8	Agosto	2023-08-28T00:00:00	2024-11-08T13:00:00	8	Radiación solar	298
127269	7	Sololá	701	Sololá	4	Finca Santa Victoria	8	Agosto	2023-08-28T00:00:00	2024-11-08T14:00:00	2	Temperatura media	17.2
127270	7	Sololá	701	Sololá	4	Finca Santa Victoria	8	Agosto	2023-08-28T00:00:00	2024-11-08T14:00:00	4	Temperatura máxima	19
127271	7	Sololá	701	Sololá	4	Finca Santa Victoria	8	Agosto	2023-08-28T00:00:00	2024-11-08T14:00:00	3	Temperatura mínima	17.2
127272	7	Sololá	701	Sololá	4	Finca Santa Victoria	8	Agosto	2023-08-28T00:00:00	2024-11-08T14:00:00	5	Humedad	89
127273	7	Sololá	701	Sololá	4	Finca Santa Victoria	8	Agosto	2023-08-28T00:00:00	2024-11-08T14:00:00	6	Velocidad del viento	4.8
127274	7	Sololá	701	Sololá	4	Finca Santa Victoria	8	Agosto	2023-08-28T00:00:00	2024-11-08T14:00:00	7	Dirección del viento	4.83
127275	7	Sololá	701	Sololá	4	Finca Santa Victoria	8	Agosto	2023-08-28T00:00:00	2024-11-08T14:00:00	1	Precipitación	0
127276	7	Sololá	701	Sololá	4	Finca Santa Victoria	8	Agosto	2023-08-28T00:00:00	2024-11-08T14:00:00	8	Radiación solar	205
127277	7	Sololá	701	Sololá	4	Finca Santa Victoria	8	Agosto	2023-08-28T00:00:00	2024-11-08T15:00:00	2	Temperatura media	15.7
127278	7	Sololá	701	Sololá	4	Finca Santa Victoria	8	Agosto	2023-08-28T00:00:00	2024-11-08T15:00:00	4	Temperatura máxima	17.2
127279	7	Sololá	701	Sololá	4	Finca Santa Victoria	8	Agosto	2023-08-28T00:00:00	2024-11-08T15:00:00	3	Temperatura mínima	15.7
127280	7	Sololá	701	Sololá	4	Finca Santa Victoria	8	Agosto	2023-08-28T00:00:00	2024-11-08T15:00:00	5	Humedad	95
127281	7	Sololá	701	Sololá	4	Finca Santa Victoria	8	Agosto	2023-08-28T00:00:00	2024-11-08T15:00:00	6	Velocidad del viento	3.2
127282	7	Sololá	701	Sololá	4	Finca Santa Victoria	8	Agosto	2023-08-28T00:00:00	2024-11-08T15:00:00	7	Dirección del viento	3.22
127283	7	Sololá	701	Sololá	4	Finca Santa Victoria	8	Agosto	2023-08-28T00:00:00	2024-11-08T15:00:00	1	Precipitación	0
127284	7	Sololá	701	Sololá	4	Finca Santa Victoria	8	Agosto	2023-08-28T00:00:00	2024-11-08T15:00:00	8	Radiación solar	61
127285	7	Sololá	701	Sololá	4	Finca Santa Victoria	8	Agosto	2023-08-28T00:00:00	2024-11-08T16:00:00	2	Temperatura media	15.2
127286	7	Sololá	701	Sololá	4	Finca Santa Victoria	8	Agosto	2023-08-28T00:00:00	2024-11-08T16:00:00	4	Temperatura máxima	15.7
127287	7	Sololá	701	Sololá	4	Finca Santa Victoria	8	Agosto	2023-08-28T00:00:00	2024-11-08T16:00:00	3	Temperatura mínima	15.2
127288	7	Sololá	701	Sololá	4	Finca Santa Victoria	8	Agosto	2023-08-28T00:00:00	2024-11-08T16:00:00	5	Humedad	97
127289	7	Sololá	701	Sololá	4	Finca Santa Victoria	8	Agosto	2023-08-28T00:00:00	2024-11-08T16:00:00	6	Velocidad del viento	1.6
127290	7	Sololá	701	Sololá	4	Finca Santa Victoria	8	Agosto	2023-08-28T00:00:00	2024-11-08T16:00:00	7	Dirección del viento	1.61
127291	7	Sololá	701	Sololá	4	Finca Santa Victoria	8	Agosto	2023-08-28T00:00:00	2024-11-08T16:00:00	1	Precipitación	0.2
127292	7	Sololá	701	Sololá	4	Finca Santa Victoria	8	Agosto	2023-08-28T00:00:00	2024-11-08T16:00:00	8	Radiación solar	29
127293	7	Sololá	701	Sololá	4	Finca Santa Victoria	8	Agosto	2023-08-28T00:00:00	2024-11-08T17:00:00	2	Temperatura media	14.8
127294	7	Sololá	701	Sololá	4	Finca Santa Victoria	8	Agosto	2023-08-28T00:00:00	2024-11-08T17:00:00	4	Temperatura máxima	15.2
127295	7	Sololá	701	Sololá	4	Finca Santa Victoria	8	Agosto	2023-08-28T00:00:00	2024-11-08T17:00:00	3	Temperatura mínima	14.7
127296	7	Sololá	701	Sololá	4	Finca Santa Victoria	8	Agosto	2023-08-28T00:00:00	2024-11-08T17:00:00	5	Humedad	98
127297	7	Sololá	701	Sololá	4	Finca Santa Victoria	8	Agosto	2023-08-28T00:00:00	2024-11-08T17:00:00	6	Velocidad del viento	1.6
127298	7	Sololá	701	Sololá	4	Finca Santa Victoria	8	Agosto	2023-08-28T00:00:00	2024-11-08T17:00:00	7	Dirección del viento	1.61
127299	7	Sololá	701	Sololá	4	Finca Santa Victoria	8	Agosto	2023-08-28T00:00:00	2024-11-08T17:00:00	1	Precipitación	0.2
127300	7	Sololá	701	Sololá	4	Finca Santa Victoria	8	Agosto	2023-08-28T00:00:00	2024-11-08T17:00:00	8	Radiación solar	17
127301	7	Sololá	701	Sololá	4	Finca Santa Victoria	8	Agosto	2023-08-28T00:00:00	2024-11-08T18:00:00	2	Temperatura media	14.2
127302	7	Sololá	701	Sololá	4	Finca Santa Victoria	8	Agosto	2023-08-28T00:00:00	2024-11-08T18:00:00	4	Temperatura máxima	14.7
127303	7	Sololá	701	Sololá	4	Finca Santa Victoria	8	Agosto	2023-08-28T00:00:00	2024-11-08T18:00:00	3	Temperatura mínima	14.2
127304	7	Sololá	701	Sololá	4	Finca Santa Victoria	8	Agosto	2023-08-28T00:00:00	2024-11-08T18:00:00	5	Humedad	98
127305	7	Sololá	701	Sololá	4	Finca Santa Victoria	8	Agosto	2023-08-28T00:00:00	2024-11-08T18:00:00	6	Velocidad del viento	3.2
127306	7	Sololá	701	Sololá	4	Finca Santa Victoria	8	Agosto	2023-08-28T00:00:00	2024-11-08T18:00:00	7	Dirección del viento	3.22
127307	7	Sololá	701	Sololá	4	Finca Santa Victoria	8	Agosto	2023-08-28T00:00:00	2024-11-08T18:00:00	1	Precipitación	0.2
127308	7	Sololá	701	Sololá	4	Finca Santa Victoria	8	Agosto	2023-08-28T00:00:00	2024-11-08T18:00:00	8	Radiación solar	7
127309	7	Sololá	701	Sololá	4	Finca Santa Victoria	8	Agosto	2023-08-28T00:00:00	2024-11-08T19:00:00	2	Temperatura media	13.8
127310	7	Sololá	701	Sololá	4	Finca Santa Victoria	8	Agosto	2023-08-28T00:00:00	2024-11-08T19:00:00	4	Temperatura máxima	14.2
127311	7	Sololá	701	Sololá	4	Finca Santa Victoria	8	Agosto	2023-08-28T00:00:00	2024-11-08T19:00:00	3	Temperatura mínima	13.7
127312	7	Sololá	701	Sololá	4	Finca Santa Victoria	8	Agosto	2023-08-28T00:00:00	2024-11-08T19:00:00	5	Humedad	97
127313	7	Sololá	701	Sololá	4	Finca Santa Victoria	8	Agosto	2023-08-28T00:00:00	2024-11-08T19:00:00	6	Velocidad del viento	1.6
127314	7	Sololá	701	Sololá	4	Finca Santa Victoria	8	Agosto	2023-08-28T00:00:00	2024-11-08T19:00:00	7	Dirección del viento	1.61
127315	7	Sololá	701	Sololá	4	Finca Santa Victoria	8	Agosto	2023-08-28T00:00:00	2024-11-08T19:00:00	1	Precipitación	0
127316	7	Sololá	701	Sololá	4	Finca Santa Victoria	8	Agosto	2023-08-28T00:00:00	2024-11-08T19:00:00	8	Radiación solar	0
127317	7	Sololá	701	Sololá	4	Finca Santa Victoria	8	Agosto	2023-08-28T00:00:00	2024-11-08T20:00:00	2	Temperatura media	13.9
127318	7	Sololá	701	Sololá	4	Finca Santa Victoria	8	Agosto	2023-08-28T00:00:00	2024-11-08T20:00:00	4	Temperatura máxima	13.9
127319	7	Sololá	701	Sololá	4	Finca Santa Victoria	8	Agosto	2023-08-28T00:00:00	2024-11-08T20:00:00	3	Temperatura mínima	13.8
127320	7	Sololá	701	Sololá	4	Finca Santa Victoria	8	Agosto	2023-08-28T00:00:00	2024-11-08T20:00:00	5	Humedad	98
127321	7	Sololá	701	Sololá	4	Finca Santa Victoria	8	Agosto	2023-08-28T00:00:00	2024-11-08T20:00:00	6	Velocidad del viento	0
127322	7	Sololá	701	Sololá	4	Finca Santa Victoria	8	Agosto	2023-08-28T00:00:00	2024-11-08T20:00:00	7	Dirección del viento	0
127323	7	Sololá	701	Sololá	4	Finca Santa Victoria	8	Agosto	2023-08-28T00:00:00	2024-11-08T20:00:00	1	Precipitación	0.2
127324	7	Sololá	701	Sololá	4	Finca Santa Victoria	8	Agosto	2023-08-28T00:00:00	2024-11-08T20:00:00	8	Radiación solar	0
127325	7	Sololá	701	Sololá	4	Finca Santa Victoria	8	Agosto	2023-08-28T00:00:00	2024-11-08T21:00:00	2	Temperatura media	13.7
127326	7	Sololá	701	Sololá	4	Finca Santa Victoria	8	Agosto	2023-08-28T00:00:00	2024-11-08T21:00:00	4	Temperatura máxima	13.9
127327	7	Sololá	701	Sololá	4	Finca Santa Victoria	8	Agosto	2023-08-28T00:00:00	2024-11-08T21:00:00	3	Temperatura mínima	13.6
127328	7	Sololá	701	Sololá	4	Finca Santa Victoria	8	Agosto	2023-08-28T00:00:00	2024-11-08T21:00:00	5	Humedad	98
127329	7	Sololá	701	Sololá	4	Finca Santa Victoria	8	Agosto	2023-08-28T00:00:00	2024-11-08T21:00:00	6	Velocidad del viento	0
127330	7	Sololá	701	Sololá	4	Finca Santa Victoria	8	Agosto	2023-08-28T00:00:00	2024-11-08T21:00:00	7	Dirección del viento	0
127331	7	Sololá	701	Sololá	4	Finca Santa Victoria	8	Agosto	2023-08-28T00:00:00	2024-11-08T21:00:00	1	Precipitación	0
127332	7	Sololá	701	Sololá	4	Finca Santa Victoria	8	Agosto	2023-08-28T00:00:00	2024-11-08T21:00:00	8	Radiación solar	0
127333	7	Sololá	701	Sololá	4	Finca Santa Victoria	8	Agosto	2023-08-28T00:00:00	2024-11-08T22:00:00	2	Temperatura media	13.6
127334	7	Sololá	701	Sololá	4	Finca Santa Victoria	8	Agosto	2023-08-28T00:00:00	2024-11-08T22:00:00	4	Temperatura máxima	13.7
127335	7	Sololá	701	Sololá	4	Finca Santa Victoria	8	Agosto	2023-08-28T00:00:00	2024-11-08T22:00:00	3	Temperatura mínima	13.6
127336	7	Sololá	701	Sololá	4	Finca Santa Victoria	8	Agosto	2023-08-28T00:00:00	2024-11-08T22:00:00	5	Humedad	98
127337	7	Sololá	701	Sololá	4	Finca Santa Victoria	8	Agosto	2023-08-28T00:00:00	2024-11-08T22:00:00	6	Velocidad del viento	0
127338	7	Sololá	701	Sololá	4	Finca Santa Victoria	8	Agosto	2023-08-28T00:00:00	2024-11-08T22:00:00	7	Dirección del viento	0
127339	7	Sololá	701	Sololá	4	Finca Santa Victoria	8	Agosto	2023-08-28T00:00:00	2024-11-08T22:00:00	1	Precipitación	0
127340	7	Sololá	701	Sololá	4	Finca Santa Victoria	8	Agosto	2023-08-28T00:00:00	2024-11-08T22:00:00	8	Radiación solar	0
127341	7	Sololá	701	Sololá	4	Finca Santa Victoria	8	Agosto	2023-08-28T00:00:00	2024-11-08T23:00:00	2	Temperatura media	13.6
127342	7	Sololá	701	Sololá	4	Finca Santa Victoria	8	Agosto	2023-08-28T00:00:00	2024-11-08T23:00:00	4	Temperatura máxima	13.6
127343	7	Sololá	701	Sololá	4	Finca Santa Victoria	8	Agosto	2023-08-28T00:00:00	2024-11-08T23:00:00	3	Temperatura mínima	13.5
127344	7	Sololá	701	Sololá	4	Finca Santa Victoria	8	Agosto	2023-08-28T00:00:00	2024-11-08T23:00:00	5	Humedad	98
127345	7	Sololá	701	Sololá	4	Finca Santa Victoria	8	Agosto	2023-08-28T00:00:00	2024-11-08T23:00:00	6	Velocidad del viento	0
127346	7	Sololá	701	Sololá	4	Finca Santa Victoria	8	Agosto	2023-08-28T00:00:00	2024-11-08T23:00:00	7	Dirección del viento	0
127347	7	Sololá	701	Sololá	4	Finca Santa Victoria	8	Agosto	2023-08-28T00:00:00	2024-11-08T23:00:00	1	Precipitación	0
127348	7	Sololá	701	Sololá	4	Finca Santa Victoria	8	Agosto	2023-08-28T00:00:00	2024-11-08T23:00:00	8	Radiación solar	0
127349	7	Sololá	701	Sololá	4	Finca Santa Victoria	8	Agosto	2023-08-29T00:00:00	2024-11-08T00:00:00	2	Temperatura media	13.3
127350	7	Sololá	701	Sololá	4	Finca Santa Victoria	8	Agosto	2023-08-29T00:00:00	2024-11-08T00:00:00	4	Temperatura máxima	13.6
127351	7	Sololá	701	Sololá	4	Finca Santa Victoria	8	Agosto	2023-08-29T00:00:00	2024-11-08T00:00:00	3	Temperatura mínima	13.2
127352	7	Sololá	701	Sololá	4	Finca Santa Victoria	8	Agosto	2023-08-29T00:00:00	2024-11-08T00:00:00	5	Humedad	97
127353	7	Sololá	701	Sololá	4	Finca Santa Victoria	8	Agosto	2023-08-29T00:00:00	2024-11-08T00:00:00	6	Velocidad del viento	0
127354	7	Sololá	701	Sololá	4	Finca Santa Victoria	8	Agosto	2023-08-29T00:00:00	2024-11-08T00:00:00	7	Dirección del viento	0
127355	7	Sololá	701	Sololá	4	Finca Santa Victoria	8	Agosto	2023-08-29T00:00:00	2024-11-08T00:00:00	1	Precipitación	0
127356	7	Sololá	701	Sololá	4	Finca Santa Victoria	8	Agosto	2023-08-29T00:00:00	2024-11-08T00:00:00	8	Radiación solar	0
127357	7	Sololá	701	Sololá	4	Finca Santa Victoria	8	Agosto	2023-08-29T00:00:00	2024-11-08T01:00:00	2	Temperatura media	13.3
127358	7	Sololá	701	Sololá	4	Finca Santa Victoria	8	Agosto	2023-08-29T00:00:00	2024-11-08T01:00:00	4	Temperatura máxima	13.3
127359	7	Sololá	701	Sololá	4	Finca Santa Victoria	8	Agosto	2023-08-29T00:00:00	2024-11-08T01:00:00	3	Temperatura mínima	13.2
127360	7	Sololá	701	Sololá	4	Finca Santa Victoria	8	Agosto	2023-08-29T00:00:00	2024-11-08T01:00:00	5	Humedad	96
127361	7	Sololá	701	Sololá	4	Finca Santa Victoria	8	Agosto	2023-08-29T00:00:00	2024-11-08T01:00:00	6	Velocidad del viento	1.6
127362	7	Sololá	701	Sololá	4	Finca Santa Victoria	8	Agosto	2023-08-29T00:00:00	2024-11-08T01:00:00	7	Dirección del viento	1.61
127363	7	Sololá	701	Sololá	4	Finca Santa Victoria	8	Agosto	2023-08-29T00:00:00	2024-11-08T01:00:00	1	Precipitación	0
127364	7	Sololá	701	Sololá	4	Finca Santa Victoria	8	Agosto	2023-08-29T00:00:00	2024-11-08T01:00:00	8	Radiación solar	0
127365	7	Sololá	701	Sololá	4	Finca Santa Victoria	8	Agosto	2023-08-29T00:00:00	2024-11-08T02:00:00	2	Temperatura media	13.8
127366	7	Sololá	701	Sololá	4	Finca Santa Victoria	8	Agosto	2023-08-29T00:00:00	2024-11-08T02:00:00	4	Temperatura máxima	13.8
127367	7	Sololá	701	Sololá	4	Finca Santa Victoria	8	Agosto	2023-08-29T00:00:00	2024-11-08T02:00:00	3	Temperatura mínima	13.3
127368	7	Sololá	701	Sololá	4	Finca Santa Victoria	8	Agosto	2023-08-29T00:00:00	2024-11-08T02:00:00	5	Humedad	94
127369	7	Sololá	701	Sololá	4	Finca Santa Victoria	8	Agosto	2023-08-29T00:00:00	2024-11-08T02:00:00	6	Velocidad del viento	1.6
127370	7	Sololá	701	Sololá	4	Finca Santa Victoria	8	Agosto	2023-08-29T00:00:00	2024-11-08T02:00:00	7	Dirección del viento	1.61
127371	7	Sololá	701	Sololá	4	Finca Santa Victoria	8	Agosto	2023-08-29T00:00:00	2024-11-08T02:00:00	1	Precipitación	0
127372	7	Sololá	701	Sololá	4	Finca Santa Victoria	8	Agosto	2023-08-29T00:00:00	2024-11-08T02:00:00	8	Radiación solar	0
127373	7	Sololá	701	Sololá	4	Finca Santa Victoria	8	Agosto	2023-08-29T00:00:00	2024-11-08T03:00:00	2	Temperatura media	13.4
127374	7	Sololá	701	Sololá	4	Finca Santa Victoria	8	Agosto	2023-08-29T00:00:00	2024-11-08T03:00:00	4	Temperatura máxima	13.8
127375	7	Sololá	701	Sololá	4	Finca Santa Victoria	8	Agosto	2023-08-29T00:00:00	2024-11-08T03:00:00	3	Temperatura mínima	13.3
127376	7	Sololá	701	Sololá	4	Finca Santa Victoria	8	Agosto	2023-08-29T00:00:00	2024-11-08T03:00:00	5	Humedad	96
127377	7	Sololá	701	Sololá	4	Finca Santa Victoria	8	Agosto	2023-08-29T00:00:00	2024-11-08T03:00:00	6	Velocidad del viento	1.6
127378	7	Sololá	701	Sololá	4	Finca Santa Victoria	8	Agosto	2023-08-29T00:00:00	2024-11-08T03:00:00	7	Dirección del viento	1.61
127379	7	Sololá	701	Sololá	4	Finca Santa Victoria	8	Agosto	2023-08-29T00:00:00	2024-11-08T03:00:00	1	Precipitación	0
127380	7	Sololá	701	Sololá	4	Finca Santa Victoria	8	Agosto	2023-08-29T00:00:00	2024-11-08T03:00:00	8	Radiación solar	0
127381	7	Sololá	701	Sololá	4	Finca Santa Victoria	8	Agosto	2023-08-29T00:00:00	2024-11-08T04:00:00	2	Temperatura media	13.5
127382	7	Sololá	701	Sololá	4	Finca Santa Victoria	8	Agosto	2023-08-29T00:00:00	2024-11-08T04:00:00	4	Temperatura máxima	13.6
127383	7	Sololá	701	Sololá	4	Finca Santa Victoria	8	Agosto	2023-08-29T00:00:00	2024-11-08T04:00:00	3	Temperatura mínima	13.4
127384	7	Sololá	701	Sololá	4	Finca Santa Victoria	8	Agosto	2023-08-29T00:00:00	2024-11-08T04:00:00	5	Humedad	94
127385	7	Sololá	701	Sololá	4	Finca Santa Victoria	8	Agosto	2023-08-29T00:00:00	2024-11-08T04:00:00	6	Velocidad del viento	1.6
127386	7	Sololá	701	Sololá	4	Finca Santa Victoria	8	Agosto	2023-08-29T00:00:00	2024-11-08T04:00:00	7	Dirección del viento	1.61
127387	7	Sololá	701	Sololá	4	Finca Santa Victoria	8	Agosto	2023-08-29T00:00:00	2024-11-08T04:00:00	1	Precipitación	0
127388	7	Sololá	701	Sololá	4	Finca Santa Victoria	8	Agosto	2023-08-29T00:00:00	2024-11-08T04:00:00	8	Radiación solar	0
127389	7	Sololá	701	Sololá	4	Finca Santa Victoria	8	Agosto	2023-08-29T00:00:00	2024-11-08T05:00:00	2	Temperatura media	13.1
127390	7	Sololá	701	Sololá	4	Finca Santa Victoria	8	Agosto	2023-08-29T00:00:00	2024-11-08T05:00:00	4	Temperatura máxima	13.6
127391	7	Sololá	701	Sololá	4	Finca Santa Victoria	8	Agosto	2023-08-29T00:00:00	2024-11-08T05:00:00	3	Temperatura mínima	13.1
127392	7	Sololá	701	Sololá	4	Finca Santa Victoria	8	Agosto	2023-08-29T00:00:00	2024-11-08T05:00:00	5	Humedad	96
127393	7	Sololá	701	Sololá	4	Finca Santa Victoria	8	Agosto	2023-08-29T00:00:00	2024-11-08T05:00:00	6	Velocidad del viento	0
127394	7	Sololá	701	Sololá	4	Finca Santa Victoria	8	Agosto	2023-08-29T00:00:00	2024-11-08T05:00:00	7	Dirección del viento	0
127395	7	Sololá	701	Sololá	4	Finca Santa Victoria	8	Agosto	2023-08-29T00:00:00	2024-11-08T05:00:00	1	Precipitación	0
127396	7	Sololá	701	Sololá	4	Finca Santa Victoria	8	Agosto	2023-08-29T00:00:00	2024-11-08T05:00:00	8	Radiación solar	0
127397	7	Sololá	701	Sololá	4	Finca Santa Victoria	8	Agosto	2023-08-29T00:00:00	2024-11-08T06:00:00	2	Temperatura media	12.9
127398	7	Sololá	701	Sololá	4	Finca Santa Victoria	8	Agosto	2023-08-29T00:00:00	2024-11-08T06:00:00	4	Temperatura máxima	13.1
127399	7	Sololá	701	Sololá	4	Finca Santa Victoria	8	Agosto	2023-08-29T00:00:00	2024-11-08T06:00:00	3	Temperatura mínima	12.8
127400	7	Sololá	701	Sololá	4	Finca Santa Victoria	8	Agosto	2023-08-29T00:00:00	2024-11-08T06:00:00	5	Humedad	97
127401	7	Sololá	701	Sololá	4	Finca Santa Victoria	8	Agosto	2023-08-29T00:00:00	2024-11-08T06:00:00	6	Velocidad del viento	0
127402	7	Sololá	701	Sololá	4	Finca Santa Victoria	8	Agosto	2023-08-29T00:00:00	2024-11-08T06:00:00	7	Dirección del viento	0
127403	7	Sololá	701	Sololá	4	Finca Santa Victoria	8	Agosto	2023-08-29T00:00:00	2024-11-08T06:00:00	1	Precipitación	0
127404	7	Sololá	701	Sololá	4	Finca Santa Victoria	8	Agosto	2023-08-29T00:00:00	2024-11-08T06:00:00	8	Radiación solar	0
127405	7	Sololá	701	Sololá	4	Finca Santa Victoria	8	Agosto	2023-08-29T00:00:00	2024-11-08T07:00:00	2	Temperatura media	13.7
127406	7	Sololá	701	Sololá	4	Finca Santa Victoria	8	Agosto	2023-08-29T00:00:00	2024-11-08T07:00:00	4	Temperatura máxima	13.7
127407	7	Sololá	701	Sololá	4	Finca Santa Victoria	8	Agosto	2023-08-29T00:00:00	2024-11-08T07:00:00	3	Temperatura mínima	12.9
127408	7	Sololá	701	Sololá	4	Finca Santa Victoria	8	Agosto	2023-08-29T00:00:00	2024-11-08T07:00:00	5	Humedad	97
127409	7	Sololá	701	Sololá	4	Finca Santa Victoria	8	Agosto	2023-08-29T00:00:00	2024-11-08T07:00:00	6	Velocidad del viento	0
127410	7	Sololá	701	Sololá	4	Finca Santa Victoria	8	Agosto	2023-08-29T00:00:00	2024-11-08T07:00:00	7	Dirección del viento	0
127411	7	Sololá	701	Sololá	4	Finca Santa Victoria	8	Agosto	2023-08-29T00:00:00	2024-11-08T07:00:00	1	Precipitación	0
127412	7	Sololá	701	Sololá	4	Finca Santa Victoria	8	Agosto	2023-08-29T00:00:00	2024-11-08T07:00:00	8	Radiación solar	27
127413	7	Sololá	701	Sololá	4	Finca Santa Victoria	8	Agosto	2023-08-29T00:00:00	2024-11-08T08:00:00	2	Temperatura media	14.8
127414	7	Sololá	701	Sololá	4	Finca Santa Victoria	8	Agosto	2023-08-29T00:00:00	2024-11-08T08:00:00	4	Temperatura máxima	14.8
127415	7	Sololá	701	Sololá	4	Finca Santa Victoria	8	Agosto	2023-08-29T00:00:00	2024-11-08T08:00:00	3	Temperatura mínima	13.7
127416	7	Sololá	701	Sololá	4	Finca Santa Victoria	8	Agosto	2023-08-29T00:00:00	2024-11-08T08:00:00	5	Humedad	94
127417	7	Sololá	701	Sololá	4	Finca Santa Victoria	8	Agosto	2023-08-29T00:00:00	2024-11-08T08:00:00	6	Velocidad del viento	0
127418	7	Sololá	701	Sololá	4	Finca Santa Victoria	8	Agosto	2023-08-29T00:00:00	2024-11-08T08:00:00	7	Dirección del viento	0
127419	7	Sololá	701	Sololá	4	Finca Santa Victoria	8	Agosto	2023-08-29T00:00:00	2024-11-08T08:00:00	1	Precipitación	0
127420	7	Sololá	701	Sololá	4	Finca Santa Victoria	8	Agosto	2023-08-29T00:00:00	2024-11-08T08:00:00	8	Radiación solar	71
127421	7	Sololá	701	Sololá	4	Finca Santa Victoria	8	Agosto	2023-08-29T00:00:00	2024-11-08T09:00:00	2	Temperatura media	16.4
127422	7	Sololá	701	Sololá	4	Finca Santa Victoria	8	Agosto	2023-08-29T00:00:00	2024-11-08T09:00:00	4	Temperatura máxima	16.4
127423	7	Sololá	701	Sololá	4	Finca Santa Victoria	8	Agosto	2023-08-29T00:00:00	2024-11-08T09:00:00	3	Temperatura mínima	14.7
127424	7	Sololá	701	Sololá	4	Finca Santa Victoria	8	Agosto	2023-08-29T00:00:00	2024-11-08T09:00:00	5	Humedad	87
127425	7	Sololá	701	Sololá	4	Finca Santa Victoria	8	Agosto	2023-08-29T00:00:00	2024-11-08T09:00:00	6	Velocidad del viento	1.6
127426	7	Sololá	701	Sololá	4	Finca Santa Victoria	8	Agosto	2023-08-29T00:00:00	2024-11-08T09:00:00	7	Dirección del viento	1.61
127427	7	Sololá	701	Sololá	4	Finca Santa Victoria	8	Agosto	2023-08-29T00:00:00	2024-11-08T09:00:00	1	Precipitación	0.2
127428	7	Sololá	701	Sololá	4	Finca Santa Victoria	8	Agosto	2023-08-29T00:00:00	2024-11-08T09:00:00	8	Radiación solar	191
127429	7	Sololá	701	Sololá	4	Finca Santa Victoria	8	Agosto	2023-08-29T00:00:00	2024-11-08T10:00:00	2	Temperatura media	18
127430	7	Sololá	701	Sololá	4	Finca Santa Victoria	8	Agosto	2023-08-29T00:00:00	2024-11-08T10:00:00	4	Temperatura máxima	18.1
127431	7	Sololá	701	Sololá	4	Finca Santa Victoria	8	Agosto	2023-08-29T00:00:00	2024-11-08T10:00:00	3	Temperatura mínima	16.4
127432	7	Sololá	701	Sololá	4	Finca Santa Victoria	8	Agosto	2023-08-29T00:00:00	2024-11-08T10:00:00	5	Humedad	79
127433	7	Sololá	701	Sololá	4	Finca Santa Victoria	8	Agosto	2023-08-29T00:00:00	2024-11-08T10:00:00	6	Velocidad del viento	1.6
127434	7	Sololá	701	Sololá	4	Finca Santa Victoria	8	Agosto	2023-08-29T00:00:00	2024-11-08T10:00:00	7	Dirección del viento	1.61
127435	7	Sololá	701	Sololá	4	Finca Santa Victoria	8	Agosto	2023-08-29T00:00:00	2024-11-08T10:00:00	1	Precipitación	0
127436	7	Sololá	701	Sololá	4	Finca Santa Victoria	8	Agosto	2023-08-29T00:00:00	2024-11-08T10:00:00	8	Radiación solar	203
127437	7	Sololá	701	Sololá	4	Finca Santa Victoria	8	Agosto	2023-08-29T00:00:00	2024-11-08T11:00:00	2	Temperatura media	18.4
127438	7	Sololá	701	Sololá	4	Finca Santa Victoria	8	Agosto	2023-08-29T00:00:00	2024-11-08T11:00:00	4	Temperatura máxima	18.5
127439	7	Sololá	701	Sololá	4	Finca Santa Victoria	8	Agosto	2023-08-29T00:00:00	2024-11-08T11:00:00	3	Temperatura mínima	18
127440	7	Sololá	701	Sololá	4	Finca Santa Victoria	8	Agosto	2023-08-29T00:00:00	2024-11-08T11:00:00	5	Humedad	81
127441	7	Sololá	701	Sololá	4	Finca Santa Victoria	8	Agosto	2023-08-29T00:00:00	2024-11-08T11:00:00	6	Velocidad del viento	3.2
127442	7	Sololá	701	Sololá	4	Finca Santa Victoria	8	Agosto	2023-08-29T00:00:00	2024-11-08T11:00:00	7	Dirección del viento	3.22
127443	7	Sololá	701	Sololá	4	Finca Santa Victoria	8	Agosto	2023-08-29T00:00:00	2024-11-08T11:00:00	1	Precipitación	0
127444	7	Sololá	701	Sololá	4	Finca Santa Victoria	8	Agosto	2023-08-29T00:00:00	2024-11-08T11:00:00	8	Radiación solar	518
127445	7	Sololá	701	Sololá	4	Finca Santa Victoria	8	Agosto	2023-08-29T00:00:00	2024-11-08T12:00:00	2	Temperatura media	18.2
127446	7	Sololá	701	Sololá	4	Finca Santa Victoria	8	Agosto	2023-08-29T00:00:00	2024-11-08T12:00:00	4	Temperatura máxima	19.2
127447	7	Sololá	701	Sololá	4	Finca Santa Victoria	8	Agosto	2023-08-29T00:00:00	2024-11-08T12:00:00	3	Temperatura mínima	18.2
127448	7	Sololá	701	Sololá	4	Finca Santa Victoria	8	Agosto	2023-08-29T00:00:00	2024-11-08T12:00:00	5	Humedad	86
127449	7	Sololá	701	Sololá	4	Finca Santa Victoria	8	Agosto	2023-08-29T00:00:00	2024-11-08T12:00:00	6	Velocidad del viento	4.8
127450	7	Sololá	701	Sololá	4	Finca Santa Victoria	8	Agosto	2023-08-29T00:00:00	2024-11-08T12:00:00	7	Dirección del viento	4.83
127451	7	Sololá	701	Sololá	4	Finca Santa Victoria	8	Agosto	2023-08-29T00:00:00	2024-11-08T12:00:00	1	Precipitación	0
127452	7	Sololá	701	Sololá	4	Finca Santa Victoria	8	Agosto	2023-08-29T00:00:00	2024-11-08T12:00:00	8	Radiación solar	923
127453	7	Sololá	701	Sololá	4	Finca Santa Victoria	8	Agosto	2023-08-29T00:00:00	2024-11-08T13:00:00	2	Temperatura media	18.6
127454	7	Sololá	701	Sololá	4	Finca Santa Victoria	8	Agosto	2023-08-29T00:00:00	2024-11-08T13:00:00	4	Temperatura máxima	18.6
127455	7	Sololá	701	Sololá	4	Finca Santa Victoria	8	Agosto	2023-08-29T00:00:00	2024-11-08T13:00:00	3	Temperatura mínima	17.6
127456	7	Sololá	701	Sololá	4	Finca Santa Victoria	8	Agosto	2023-08-29T00:00:00	2024-11-08T13:00:00	5	Humedad	86
127457	7	Sololá	701	Sololá	4	Finca Santa Victoria	8	Agosto	2023-08-29T00:00:00	2024-11-08T13:00:00	6	Velocidad del viento	4.8
127458	7	Sololá	701	Sololá	4	Finca Santa Victoria	8	Agosto	2023-08-29T00:00:00	2024-11-08T13:00:00	7	Dirección del viento	4.83
127459	7	Sololá	701	Sololá	4	Finca Santa Victoria	8	Agosto	2023-08-29T00:00:00	2024-11-08T13:00:00	1	Precipitación	0
127460	7	Sololá	701	Sololá	4	Finca Santa Victoria	8	Agosto	2023-08-29T00:00:00	2024-11-08T13:00:00	8	Radiación solar	285
127461	7	Sololá	701	Sololá	4	Finca Santa Victoria	8	Agosto	2023-08-29T00:00:00	2024-11-08T14:00:00	2	Temperatura media	17.8
127462	7	Sololá	701	Sololá	4	Finca Santa Victoria	8	Agosto	2023-08-29T00:00:00	2024-11-08T14:00:00	4	Temperatura máxima	18.6
127463	7	Sololá	701	Sololá	4	Finca Santa Victoria	8	Agosto	2023-08-29T00:00:00	2024-11-08T14:00:00	3	Temperatura mínima	17.8
127464	7	Sololá	701	Sololá	4	Finca Santa Victoria	8	Agosto	2023-08-29T00:00:00	2024-11-08T14:00:00	5	Humedad	88
127465	7	Sololá	701	Sololá	4	Finca Santa Victoria	8	Agosto	2023-08-29T00:00:00	2024-11-08T14:00:00	6	Velocidad del viento	4.8
127466	7	Sololá	701	Sololá	4	Finca Santa Victoria	8	Agosto	2023-08-29T00:00:00	2024-11-08T14:00:00	7	Dirección del viento	4.83
127467	7	Sololá	701	Sololá	4	Finca Santa Victoria	8	Agosto	2023-08-29T00:00:00	2024-11-08T14:00:00	1	Precipitación	0
127468	7	Sololá	701	Sololá	4	Finca Santa Victoria	8	Agosto	2023-08-29T00:00:00	2024-11-08T14:00:00	8	Radiación solar	259
127469	7	Sololá	701	Sololá	4	Finca Santa Victoria	8	Agosto	2023-08-29T00:00:00	2024-11-08T15:00:00	2	Temperatura media	16.7
127470	7	Sololá	701	Sololá	4	Finca Santa Victoria	8	Agosto	2023-08-29T00:00:00	2024-11-08T15:00:00	4	Temperatura máxima	17.9
127471	7	Sololá	701	Sololá	4	Finca Santa Victoria	8	Agosto	2023-08-29T00:00:00	2024-11-08T15:00:00	3	Temperatura mínima	16.7
127472	7	Sololá	701	Sololá	4	Finca Santa Victoria	8	Agosto	2023-08-29T00:00:00	2024-11-08T15:00:00	5	Humedad	93
127473	7	Sololá	701	Sololá	4	Finca Santa Victoria	8	Agosto	2023-08-29T00:00:00	2024-11-08T15:00:00	6	Velocidad del viento	3.2
127474	7	Sololá	701	Sololá	4	Finca Santa Victoria	8	Agosto	2023-08-29T00:00:00	2024-11-08T15:00:00	7	Dirección del viento	3.22
127475	7	Sololá	701	Sololá	4	Finca Santa Victoria	8	Agosto	2023-08-29T00:00:00	2024-11-08T15:00:00	1	Precipitación	0
127476	7	Sololá	701	Sololá	4	Finca Santa Victoria	8	Agosto	2023-08-29T00:00:00	2024-11-08T15:00:00	8	Radiación solar	123
127477	7	Sololá	701	Sololá	4	Finca Santa Victoria	8	Agosto	2023-08-29T00:00:00	2024-11-08T16:00:00	2	Temperatura media	16.3
127478	7	Sololá	701	Sololá	4	Finca Santa Victoria	8	Agosto	2023-08-29T00:00:00	2024-11-08T16:00:00	4	Temperatura máxima	16.8
127479	7	Sololá	701	Sololá	4	Finca Santa Victoria	8	Agosto	2023-08-29T00:00:00	2024-11-08T16:00:00	3	Temperatura mínima	16.3
127480	7	Sololá	701	Sololá	4	Finca Santa Victoria	8	Agosto	2023-08-29T00:00:00	2024-11-08T16:00:00	5	Humedad	95
127481	7	Sololá	701	Sololá	4	Finca Santa Victoria	8	Agosto	2023-08-29T00:00:00	2024-11-08T16:00:00	6	Velocidad del viento	1.6
127482	7	Sololá	701	Sololá	4	Finca Santa Victoria	8	Agosto	2023-08-29T00:00:00	2024-11-08T16:00:00	7	Dirección del viento	1.61
127483	7	Sololá	701	Sololá	4	Finca Santa Victoria	8	Agosto	2023-08-29T00:00:00	2024-11-08T16:00:00	1	Precipitación	0
127484	7	Sololá	701	Sololá	4	Finca Santa Victoria	8	Agosto	2023-08-29T00:00:00	2024-11-08T16:00:00	8	Radiación solar	62
127485	7	Sololá	701	Sololá	4	Finca Santa Victoria	8	Agosto	2023-08-29T00:00:00	2024-11-08T17:00:00	2	Temperatura media	15.9
127486	7	Sololá	701	Sololá	4	Finca Santa Victoria	8	Agosto	2023-08-29T00:00:00	2024-11-08T17:00:00	4	Temperatura máxima	16.3
127487	7	Sololá	701	Sololá	4	Finca Santa Victoria	8	Agosto	2023-08-29T00:00:00	2024-11-08T17:00:00	3	Temperatura mínima	15.9
127488	7	Sololá	701	Sololá	4	Finca Santa Victoria	8	Agosto	2023-08-29T00:00:00	2024-11-08T17:00:00	5	Humedad	96
127489	7	Sololá	701	Sololá	4	Finca Santa Victoria	8	Agosto	2023-08-29T00:00:00	2024-11-08T17:00:00	6	Velocidad del viento	1.6
127490	7	Sololá	701	Sololá	4	Finca Santa Victoria	8	Agosto	2023-08-29T00:00:00	2024-11-08T17:00:00	7	Dirección del viento	1.61
127491	7	Sololá	701	Sololá	4	Finca Santa Victoria	8	Agosto	2023-08-29T00:00:00	2024-11-08T17:00:00	1	Precipitación	0
127492	7	Sololá	701	Sololá	4	Finca Santa Victoria	8	Agosto	2023-08-29T00:00:00	2024-11-08T17:00:00	8	Radiación solar	14
127493	7	Sololá	701	Sololá	4	Finca Santa Victoria	8	Agosto	2023-08-29T00:00:00	2024-11-08T18:00:00	2	Temperatura media	15.7
127494	7	Sololá	701	Sololá	4	Finca Santa Victoria	8	Agosto	2023-08-29T00:00:00	2024-11-08T18:00:00	4	Temperatura máxima	15.9
127495	7	Sololá	701	Sololá	4	Finca Santa Victoria	8	Agosto	2023-08-29T00:00:00	2024-11-08T18:00:00	3	Temperatura mínima	15.7
127496	7	Sololá	701	Sololá	4	Finca Santa Victoria	8	Agosto	2023-08-29T00:00:00	2024-11-08T18:00:00	5	Humedad	97
127497	7	Sololá	701	Sololá	4	Finca Santa Victoria	8	Agosto	2023-08-29T00:00:00	2024-11-08T18:00:00	6	Velocidad del viento	1.6
127498	7	Sololá	701	Sololá	4	Finca Santa Victoria	8	Agosto	2023-08-29T00:00:00	2024-11-08T18:00:00	7	Dirección del viento	1.61
127499	7	Sololá	701	Sololá	4	Finca Santa Victoria	8	Agosto	2023-08-29T00:00:00	2024-11-08T18:00:00	1	Precipitación	0
127500	7	Sololá	701	Sololá	4	Finca Santa Victoria	8	Agosto	2023-08-29T00:00:00	2024-11-08T18:00:00	8	Radiación solar	6
127501	7	Sololá	701	Sololá	4	Finca Santa Victoria	8	Agosto	2023-08-29T00:00:00	2024-11-08T19:00:00	2	Temperatura media	15.1
127502	7	Sololá	701	Sololá	4	Finca Santa Victoria	8	Agosto	2023-08-29T00:00:00	2024-11-08T19:00:00	4	Temperatura máxima	15.7
127503	7	Sololá	701	Sololá	4	Finca Santa Victoria	8	Agosto	2023-08-29T00:00:00	2024-11-08T19:00:00	3	Temperatura mínima	15.1
127504	7	Sololá	701	Sololá	4	Finca Santa Victoria	8	Agosto	2023-08-29T00:00:00	2024-11-08T19:00:00	5	Humedad	97
127505	7	Sololá	701	Sololá	4	Finca Santa Victoria	8	Agosto	2023-08-29T00:00:00	2024-11-08T19:00:00	6	Velocidad del viento	0
127506	7	Sololá	701	Sololá	4	Finca Santa Victoria	8	Agosto	2023-08-29T00:00:00	2024-11-08T19:00:00	7	Dirección del viento	0
127507	7	Sololá	701	Sololá	4	Finca Santa Victoria	8	Agosto	2023-08-29T00:00:00	2024-11-08T19:00:00	1	Precipitación	10
127508	7	Sololá	701	Sololá	4	Finca Santa Victoria	8	Agosto	2023-08-29T00:00:00	2024-11-08T19:00:00	8	Radiación solar	0
127509	7	Sololá	701	Sololá	4	Finca Santa Victoria	8	Agosto	2023-08-29T00:00:00	2024-11-08T20:00:00	2	Temperatura media	15
127510	7	Sololá	701	Sololá	4	Finca Santa Victoria	8	Agosto	2023-08-29T00:00:00	2024-11-08T20:00:00	4	Temperatura máxima	15.1
127511	7	Sololá	701	Sololá	4	Finca Santa Victoria	8	Agosto	2023-08-29T00:00:00	2024-11-08T20:00:00	3	Temperatura mínima	14.9
127512	7	Sololá	701	Sololá	4	Finca Santa Victoria	8	Agosto	2023-08-29T00:00:00	2024-11-08T20:00:00	5	Humedad	98
127513	7	Sololá	701	Sololá	4	Finca Santa Victoria	8	Agosto	2023-08-29T00:00:00	2024-11-08T20:00:00	6	Velocidad del viento	0
127514	7	Sololá	701	Sololá	4	Finca Santa Victoria	8	Agosto	2023-08-29T00:00:00	2024-11-08T20:00:00	7	Dirección del viento	0
127515	7	Sololá	701	Sololá	4	Finca Santa Victoria	8	Agosto	2023-08-29T00:00:00	2024-11-08T20:00:00	1	Precipitación	0.4
127516	7	Sololá	701	Sololá	4	Finca Santa Victoria	8	Agosto	2023-08-29T00:00:00	2024-11-08T20:00:00	8	Radiación solar	0
127517	7	Sololá	701	Sololá	4	Finca Santa Victoria	8	Agosto	2023-08-29T00:00:00	2024-11-08T21:00:00	2	Temperatura media	14.8
127518	7	Sololá	701	Sololá	4	Finca Santa Victoria	8	Agosto	2023-08-29T00:00:00	2024-11-08T21:00:00	4	Temperatura máxima	15
127519	7	Sololá	701	Sololá	4	Finca Santa Victoria	8	Agosto	2023-08-29T00:00:00	2024-11-08T21:00:00	3	Temperatura mínima	14.8
127520	7	Sololá	701	Sololá	4	Finca Santa Victoria	8	Agosto	2023-08-29T00:00:00	2024-11-08T21:00:00	5	Humedad	98
127521	7	Sololá	701	Sololá	4	Finca Santa Victoria	8	Agosto	2023-08-29T00:00:00	2024-11-08T21:00:00	6	Velocidad del viento	0
127522	7	Sololá	701	Sololá	4	Finca Santa Victoria	8	Agosto	2023-08-29T00:00:00	2024-11-08T21:00:00	7	Dirección del viento	0
127523	7	Sololá	701	Sololá	4	Finca Santa Victoria	8	Agosto	2023-08-29T00:00:00	2024-11-08T21:00:00	1	Precipitación	0.8
127524	7	Sololá	701	Sololá	4	Finca Santa Victoria	8	Agosto	2023-08-29T00:00:00	2024-11-08T21:00:00	8	Radiación solar	0
127525	7	Sololá	701	Sololá	4	Finca Santa Victoria	8	Agosto	2023-08-29T00:00:00	2024-11-08T22:00:00	2	Temperatura media	14.5
127526	7	Sololá	701	Sololá	4	Finca Santa Victoria	8	Agosto	2023-08-29T00:00:00	2024-11-08T22:00:00	4	Temperatura máxima	14.9
127527	7	Sololá	701	Sololá	4	Finca Santa Victoria	8	Agosto	2023-08-29T00:00:00	2024-11-08T22:00:00	3	Temperatura mínima	14.5
127528	7	Sololá	701	Sololá	4	Finca Santa Victoria	8	Agosto	2023-08-29T00:00:00	2024-11-08T22:00:00	5	Humedad	98
127529	7	Sololá	701	Sololá	4	Finca Santa Victoria	8	Agosto	2023-08-29T00:00:00	2024-11-08T22:00:00	6	Velocidad del viento	0
127530	7	Sololá	701	Sololá	4	Finca Santa Victoria	8	Agosto	2023-08-29T00:00:00	2024-11-08T22:00:00	7	Dirección del viento	0
127531	7	Sololá	701	Sololá	4	Finca Santa Victoria	8	Agosto	2023-08-29T00:00:00	2024-11-08T22:00:00	1	Precipitación	0.2
127532	7	Sololá	701	Sololá	4	Finca Santa Victoria	8	Agosto	2023-08-29T00:00:00	2024-11-08T22:00:00	8	Radiación solar	0
127533	7	Sololá	701	Sololá	4	Finca Santa Victoria	8	Agosto	2023-08-29T00:00:00	2024-11-08T23:00:00	2	Temperatura media	14.6
127534	7	Sololá	701	Sololá	4	Finca Santa Victoria	8	Agosto	2023-08-29T00:00:00	2024-11-08T23:00:00	4	Temperatura máxima	14.7
127535	7	Sololá	701	Sololá	4	Finca Santa Victoria	8	Agosto	2023-08-29T00:00:00	2024-11-08T23:00:00	3	Temperatura mínima	14.4
127536	7	Sololá	701	Sololá	4	Finca Santa Victoria	8	Agosto	2023-08-29T00:00:00	2024-11-08T23:00:00	5	Humedad	98
127537	7	Sololá	701	Sololá	4	Finca Santa Victoria	8	Agosto	2023-08-29T00:00:00	2024-11-08T23:00:00	6	Velocidad del viento	0
127538	7	Sololá	701	Sololá	4	Finca Santa Victoria	8	Agosto	2023-08-29T00:00:00	2024-11-08T23:00:00	7	Dirección del viento	0
127539	7	Sololá	701	Sololá	4	Finca Santa Victoria	8	Agosto	2023-08-29T00:00:00	2024-11-08T23:00:00	1	Precipitación	0
127540	7	Sololá	701	Sololá	4	Finca Santa Victoria	8	Agosto	2023-08-29T00:00:00	2024-11-08T23:00:00	8	Radiación solar	0
127541	7	Sololá	701	Sololá	4	Finca Santa Victoria	8	Agosto	2023-08-30T00:00:00	2024-11-08T00:00:00	2	Temperatura media	14.4
127542	7	Sololá	701	Sololá	4	Finca Santa Victoria	8	Agosto	2023-08-30T00:00:00	2024-11-08T00:00:00	4	Temperatura máxima	14.6
127543	7	Sololá	701	Sololá	4	Finca Santa Victoria	8	Agosto	2023-08-30T00:00:00	2024-11-08T00:00:00	3	Temperatura mínima	14.3
127544	7	Sololá	701	Sololá	4	Finca Santa Victoria	8	Agosto	2023-08-30T00:00:00	2024-11-08T00:00:00	5	Humedad	98
127545	7	Sololá	701	Sololá	4	Finca Santa Victoria	8	Agosto	2023-08-30T00:00:00	2024-11-08T00:00:00	6	Velocidad del viento	0
127546	7	Sololá	701	Sololá	4	Finca Santa Victoria	8	Agosto	2023-08-30T00:00:00	2024-11-08T00:00:00	7	Dirección del viento	0
127547	7	Sololá	701	Sololá	4	Finca Santa Victoria	8	Agosto	2023-08-30T00:00:00	2024-11-08T00:00:00	1	Precipitación	0
127548	7	Sololá	701	Sololá	4	Finca Santa Victoria	8	Agosto	2023-08-30T00:00:00	2024-11-08T00:00:00	8	Radiación solar	0
127549	7	Sololá	701	Sololá	4	Finca Santa Victoria	8	Agosto	2023-08-30T00:00:00	2024-11-08T01:00:00	2	Temperatura media	14.2
127550	7	Sololá	701	Sololá	4	Finca Santa Victoria	8	Agosto	2023-08-30T00:00:00	2024-11-08T01:00:00	4	Temperatura máxima	14.4
127551	7	Sololá	701	Sololá	4	Finca Santa Victoria	8	Agosto	2023-08-30T00:00:00	2024-11-08T01:00:00	3	Temperatura mínima	14.2
127552	7	Sololá	701	Sololá	4	Finca Santa Victoria	8	Agosto	2023-08-30T00:00:00	2024-11-08T01:00:00	5	Humedad	98
127553	7	Sololá	701	Sololá	4	Finca Santa Victoria	8	Agosto	2023-08-30T00:00:00	2024-11-08T01:00:00	6	Velocidad del viento	0
127554	7	Sololá	701	Sololá	4	Finca Santa Victoria	8	Agosto	2023-08-30T00:00:00	2024-11-08T01:00:00	7	Dirección del viento	0
127555	7	Sololá	701	Sololá	4	Finca Santa Victoria	8	Agosto	2023-08-30T00:00:00	2024-11-08T01:00:00	1	Precipitación	0
127556	7	Sololá	701	Sololá	4	Finca Santa Victoria	8	Agosto	2023-08-30T00:00:00	2024-11-08T01:00:00	8	Radiación solar	0
127557	7	Sololá	701	Sololá	4	Finca Santa Victoria	8	Agosto	2023-08-30T00:00:00	2024-11-08T02:00:00	2	Temperatura media	13.7
127558	7	Sololá	701	Sololá	4	Finca Santa Victoria	8	Agosto	2023-08-30T00:00:00	2024-11-08T02:00:00	4	Temperatura máxima	14.3
127559	7	Sololá	701	Sololá	4	Finca Santa Victoria	8	Agosto	2023-08-30T00:00:00	2024-11-08T02:00:00	3	Temperatura mínima	13.7
127560	7	Sololá	701	Sololá	4	Finca Santa Victoria	8	Agosto	2023-08-30T00:00:00	2024-11-08T02:00:00	5	Humedad	98
127561	7	Sololá	701	Sololá	4	Finca Santa Victoria	8	Agosto	2023-08-30T00:00:00	2024-11-08T02:00:00	6	Velocidad del viento	1.6
127562	7	Sololá	701	Sololá	4	Finca Santa Victoria	8	Agosto	2023-08-30T00:00:00	2024-11-08T02:00:00	7	Dirección del viento	1.61
127563	7	Sololá	701	Sololá	4	Finca Santa Victoria	8	Agosto	2023-08-30T00:00:00	2024-11-08T02:00:00	1	Precipitación	1
127564	7	Sololá	701	Sololá	4	Finca Santa Victoria	8	Agosto	2023-08-30T00:00:00	2024-11-08T02:00:00	8	Radiación solar	0
127565	7	Sololá	701	Sololá	4	Finca Santa Victoria	8	Agosto	2023-08-30T00:00:00	2024-11-08T03:00:00	2	Temperatura media	13.1
127566	7	Sololá	701	Sololá	4	Finca Santa Victoria	8	Agosto	2023-08-30T00:00:00	2024-11-08T03:00:00	4	Temperatura máxima	13.7
127567	7	Sololá	701	Sololá	4	Finca Santa Victoria	8	Agosto	2023-08-30T00:00:00	2024-11-08T03:00:00	3	Temperatura mínima	13.1
127568	7	Sololá	701	Sololá	4	Finca Santa Victoria	8	Agosto	2023-08-30T00:00:00	2024-11-08T03:00:00	5	Humedad	95
127569	7	Sololá	701	Sololá	4	Finca Santa Victoria	8	Agosto	2023-08-30T00:00:00	2024-11-08T03:00:00	6	Velocidad del viento	1.6
127570	7	Sololá	701	Sololá	4	Finca Santa Victoria	8	Agosto	2023-08-30T00:00:00	2024-11-08T03:00:00	7	Dirección del viento	1.61
127571	7	Sololá	701	Sololá	4	Finca Santa Victoria	8	Agosto	2023-08-30T00:00:00	2024-11-08T03:00:00	1	Precipitación	0
127572	7	Sololá	701	Sololá	4	Finca Santa Victoria	8	Agosto	2023-08-30T00:00:00	2024-11-08T03:00:00	8	Radiación solar	0
127573	7	Sololá	701	Sololá	4	Finca Santa Victoria	8	Agosto	2023-08-30T00:00:00	2024-11-08T04:00:00	2	Temperatura media	13.6
127574	7	Sololá	701	Sololá	4	Finca Santa Victoria	8	Agosto	2023-08-30T00:00:00	2024-11-08T04:00:00	4	Temperatura máxima	13.6
127575	7	Sololá	701	Sololá	4	Finca Santa Victoria	8	Agosto	2023-08-30T00:00:00	2024-11-08T04:00:00	3	Temperatura mínima	12.8
127576	7	Sololá	701	Sololá	4	Finca Santa Victoria	8	Agosto	2023-08-30T00:00:00	2024-11-08T04:00:00	5	Humedad	94
127577	7	Sololá	701	Sololá	4	Finca Santa Victoria	8	Agosto	2023-08-30T00:00:00	2024-11-08T04:00:00	6	Velocidad del viento	1.6
127578	7	Sololá	701	Sololá	4	Finca Santa Victoria	8	Agosto	2023-08-30T00:00:00	2024-11-08T04:00:00	7	Dirección del viento	1.61
127579	7	Sololá	701	Sololá	4	Finca Santa Victoria	8	Agosto	2023-08-30T00:00:00	2024-11-08T04:00:00	1	Precipitación	0
127580	7	Sololá	701	Sololá	4	Finca Santa Victoria	8	Agosto	2023-08-30T00:00:00	2024-11-08T04:00:00	8	Radiación solar	0
127581	7	Sololá	701	Sololá	4	Finca Santa Victoria	8	Agosto	2023-08-30T00:00:00	2024-11-08T05:00:00	2	Temperatura media	14.6
127582	7	Sololá	701	Sololá	4	Finca Santa Victoria	8	Agosto	2023-08-30T00:00:00	2024-11-08T05:00:00	4	Temperatura máxima	14.6
127583	7	Sololá	701	Sololá	4	Finca Santa Victoria	8	Agosto	2023-08-30T00:00:00	2024-11-08T05:00:00	3	Temperatura mínima	13.6
127584	7	Sololá	701	Sololá	4	Finca Santa Victoria	8	Agosto	2023-08-30T00:00:00	2024-11-08T05:00:00	5	Humedad	90
127585	7	Sololá	701	Sololá	4	Finca Santa Victoria	8	Agosto	2023-08-30T00:00:00	2024-11-08T05:00:00	6	Velocidad del viento	1.6
127586	7	Sololá	701	Sololá	4	Finca Santa Victoria	8	Agosto	2023-08-30T00:00:00	2024-11-08T05:00:00	7	Dirección del viento	1.61
127587	7	Sololá	701	Sololá	4	Finca Santa Victoria	8	Agosto	2023-08-30T00:00:00	2024-11-08T05:00:00	1	Precipitación	0
127588	7	Sololá	701	Sololá	4	Finca Santa Victoria	8	Agosto	2023-08-30T00:00:00	2024-11-08T05:00:00	8	Radiación solar	0
127589	7	Sololá	701	Sololá	4	Finca Santa Victoria	8	Agosto	2023-08-30T00:00:00	2024-11-08T06:00:00	2	Temperatura media	14.9
127590	7	Sololá	701	Sololá	4	Finca Santa Victoria	8	Agosto	2023-08-30T00:00:00	2024-11-08T06:00:00	4	Temperatura máxima	14.9
127591	7	Sololá	701	Sololá	4	Finca Santa Victoria	8	Agosto	2023-08-30T00:00:00	2024-11-08T06:00:00	3	Temperatura mínima	14.3
127592	7	Sololá	701	Sololá	4	Finca Santa Victoria	8	Agosto	2023-08-30T00:00:00	2024-11-08T06:00:00	5	Humedad	85
127593	7	Sololá	701	Sololá	4	Finca Santa Victoria	8	Agosto	2023-08-30T00:00:00	2024-11-08T06:00:00	6	Velocidad del viento	1.6
127594	7	Sololá	701	Sololá	4	Finca Santa Victoria	8	Agosto	2023-08-30T00:00:00	2024-11-08T06:00:00	7	Dirección del viento	1.61
127595	7	Sololá	701	Sololá	4	Finca Santa Victoria	8	Agosto	2023-08-30T00:00:00	2024-11-08T06:00:00	1	Precipitación	0
127596	7	Sololá	701	Sololá	4	Finca Santa Victoria	8	Agosto	2023-08-30T00:00:00	2024-11-08T06:00:00	8	Radiación solar	0
127597	7	Sololá	701	Sololá	4	Finca Santa Victoria	8	Agosto	2023-08-30T00:00:00	2024-11-08T07:00:00	2	Temperatura media	15.1
127598	7	Sololá	701	Sololá	4	Finca Santa Victoria	8	Agosto	2023-08-30T00:00:00	2024-11-08T07:00:00	4	Temperatura máxima	15.2
127599	7	Sololá	701	Sololá	4	Finca Santa Victoria	8	Agosto	2023-08-30T00:00:00	2024-11-08T07:00:00	3	Temperatura mínima	14.8
127600	7	Sololá	701	Sololá	4	Finca Santa Victoria	8	Agosto	2023-08-30T00:00:00	2024-11-08T07:00:00	5	Humedad	85
127601	7	Sololá	701	Sololá	4	Finca Santa Victoria	8	Agosto	2023-08-30T00:00:00	2024-11-08T07:00:00	6	Velocidad del viento	1.6
127602	7	Sololá	701	Sololá	4	Finca Santa Victoria	8	Agosto	2023-08-30T00:00:00	2024-11-08T07:00:00	7	Dirección del viento	1.61
127603	7	Sololá	701	Sololá	4	Finca Santa Victoria	8	Agosto	2023-08-30T00:00:00	2024-11-08T07:00:00	1	Precipitación	0
127604	7	Sololá	701	Sololá	4	Finca Santa Victoria	8	Agosto	2023-08-30T00:00:00	2024-11-08T07:00:00	8	Radiación solar	20
127605	7	Sololá	701	Sololá	4	Finca Santa Victoria	8	Agosto	2023-08-30T00:00:00	2024-11-08T08:00:00	2	Temperatura media	16.6
127606	7	Sololá	701	Sololá	4	Finca Santa Victoria	8	Agosto	2023-08-30T00:00:00	2024-11-08T08:00:00	4	Temperatura máxima	16.6
127607	7	Sololá	701	Sololá	4	Finca Santa Victoria	8	Agosto	2023-08-30T00:00:00	2024-11-08T08:00:00	3	Temperatura mínima	15.1
127608	7	Sololá	701	Sololá	4	Finca Santa Victoria	8	Agosto	2023-08-30T00:00:00	2024-11-08T08:00:00	5	Humedad	86
127609	7	Sololá	701	Sololá	4	Finca Santa Victoria	8	Agosto	2023-08-30T00:00:00	2024-11-08T08:00:00	6	Velocidad del viento	0
127610	7	Sololá	701	Sololá	4	Finca Santa Victoria	8	Agosto	2023-08-30T00:00:00	2024-11-08T08:00:00	7	Dirección del viento	0
127611	7	Sololá	701	Sololá	4	Finca Santa Victoria	8	Agosto	2023-08-30T00:00:00	2024-11-08T08:00:00	1	Precipitación	0
127612	7	Sololá	701	Sololá	4	Finca Santa Victoria	8	Agosto	2023-08-30T00:00:00	2024-11-08T08:00:00	8	Radiación solar	107
127613	7	Sololá	701	Sololá	4	Finca Santa Victoria	8	Agosto	2023-08-30T00:00:00	2024-11-08T09:00:00	2	Temperatura media	17.7
127614	7	Sololá	701	Sololá	4	Finca Santa Victoria	8	Agosto	2023-08-30T00:00:00	2024-11-08T09:00:00	4	Temperatura máxima	17.7
127615	7	Sololá	701	Sololá	4	Finca Santa Victoria	8	Agosto	2023-08-30T00:00:00	2024-11-08T09:00:00	3	Temperatura mínima	16.6
127616	7	Sololá	701	Sololá	4	Finca Santa Victoria	8	Agosto	2023-08-30T00:00:00	2024-11-08T09:00:00	5	Humedad	79
127617	7	Sololá	701	Sololá	4	Finca Santa Victoria	8	Agosto	2023-08-30T00:00:00	2024-11-08T09:00:00	6	Velocidad del viento	0
127618	7	Sololá	701	Sololá	4	Finca Santa Victoria	8	Agosto	2023-08-30T00:00:00	2024-11-08T09:00:00	7	Dirección del viento	0
127619	7	Sololá	701	Sololá	4	Finca Santa Victoria	8	Agosto	2023-08-30T00:00:00	2024-11-08T09:00:00	1	Precipitación	0.2
127620	7	Sololá	701	Sololá	4	Finca Santa Victoria	8	Agosto	2023-08-30T00:00:00	2024-11-08T09:00:00	8	Radiación solar	173
127621	7	Sololá	701	Sololá	4	Finca Santa Victoria	8	Agosto	2023-08-30T00:00:00	2024-11-08T10:00:00	2	Temperatura media	17.3
127622	7	Sololá	701	Sololá	4	Finca Santa Victoria	8	Agosto	2023-08-30T00:00:00	2024-11-08T10:00:00	4	Temperatura máxima	17.8
127623	7	Sololá	701	Sololá	4	Finca Santa Victoria	8	Agosto	2023-08-30T00:00:00	2024-11-08T10:00:00	3	Temperatura mínima	17.2
127624	7	Sololá	701	Sololá	4	Finca Santa Victoria	8	Agosto	2023-08-30T00:00:00	2024-11-08T10:00:00	5	Humedad	88
127625	7	Sololá	701	Sololá	4	Finca Santa Victoria	8	Agosto	2023-08-30T00:00:00	2024-11-08T10:00:00	6	Velocidad del viento	1.6
127626	7	Sololá	701	Sololá	4	Finca Santa Victoria	8	Agosto	2023-08-30T00:00:00	2024-11-08T10:00:00	7	Dirección del viento	1.61
127627	7	Sololá	701	Sololá	4	Finca Santa Victoria	8	Agosto	2023-08-30T00:00:00	2024-11-08T10:00:00	1	Precipitación	0
127628	7	Sololá	701	Sololá	4	Finca Santa Victoria	8	Agosto	2023-08-30T00:00:00	2024-11-08T10:00:00	8	Radiación solar	281
127629	7	Sololá	701	Sololá	4	Finca Santa Victoria	8	Agosto	2023-08-30T00:00:00	2024-11-08T11:00:00	2	Temperatura media	18.2
127630	7	Sololá	701	Sololá	4	Finca Santa Victoria	8	Agosto	2023-08-30T00:00:00	2024-11-08T11:00:00	4	Temperatura máxima	18.3
127631	7	Sololá	701	Sololá	4	Finca Santa Victoria	8	Agosto	2023-08-30T00:00:00	2024-11-08T11:00:00	3	Temperatura mínima	17.3
127632	7	Sololá	701	Sololá	4	Finca Santa Victoria	8	Agosto	2023-08-30T00:00:00	2024-11-08T11:00:00	5	Humedad	85
127633	7	Sololá	701	Sololá	4	Finca Santa Victoria	8	Agosto	2023-08-30T00:00:00	2024-11-08T11:00:00	6	Velocidad del viento	3.2
127634	7	Sololá	701	Sololá	4	Finca Santa Victoria	8	Agosto	2023-08-30T00:00:00	2024-11-08T11:00:00	7	Dirección del viento	3.22
127635	7	Sololá	701	Sololá	4	Finca Santa Victoria	8	Agosto	2023-08-30T00:00:00	2024-11-08T11:00:00	1	Precipitación	0
127636	7	Sololá	701	Sololá	4	Finca Santa Victoria	8	Agosto	2023-08-30T00:00:00	2024-11-08T11:00:00	8	Radiación solar	524
127637	7	Sololá	701	Sololá	4	Finca Santa Victoria	8	Agosto	2023-08-30T00:00:00	2024-11-08T12:00:00	2	Temperatura media	19.1
127638	7	Sololá	701	Sololá	4	Finca Santa Victoria	8	Agosto	2023-08-30T00:00:00	2024-11-08T12:00:00	4	Temperatura máxima	19.7
127639	7	Sololá	701	Sololá	4	Finca Santa Victoria	8	Agosto	2023-08-30T00:00:00	2024-11-08T12:00:00	3	Temperatura mínima	17.9
127640	7	Sololá	701	Sololá	4	Finca Santa Victoria	8	Agosto	2023-08-30T00:00:00	2024-11-08T12:00:00	5	Humedad	81
127641	7	Sololá	701	Sololá	4	Finca Santa Victoria	8	Agosto	2023-08-30T00:00:00	2024-11-08T12:00:00	6	Velocidad del viento	4.8
127642	7	Sololá	701	Sololá	4	Finca Santa Victoria	8	Agosto	2023-08-30T00:00:00	2024-11-08T12:00:00	7	Dirección del viento	4.83
127643	7	Sololá	701	Sololá	4	Finca Santa Victoria	8	Agosto	2023-08-30T00:00:00	2024-11-08T12:00:00	1	Precipitación	0
127644	7	Sololá	701	Sololá	4	Finca Santa Victoria	8	Agosto	2023-08-30T00:00:00	2024-11-08T12:00:00	8	Radiación solar	816
127645	7	Sololá	701	Sololá	4	Finca Santa Victoria	8	Agosto	2023-08-30T00:00:00	2024-11-08T13:00:00	2	Temperatura media	18.2
127646	7	Sololá	701	Sololá	4	Finca Santa Victoria	8	Agosto	2023-08-30T00:00:00	2024-11-08T13:00:00	4	Temperatura máxima	19.3
127647	7	Sololá	701	Sololá	4	Finca Santa Victoria	8	Agosto	2023-08-30T00:00:00	2024-11-08T13:00:00	3	Temperatura mínima	18.2
127648	7	Sololá	701	Sololá	4	Finca Santa Victoria	8	Agosto	2023-08-30T00:00:00	2024-11-08T13:00:00	5	Humedad	84
127649	7	Sololá	701	Sololá	4	Finca Santa Victoria	8	Agosto	2023-08-30T00:00:00	2024-11-08T13:00:00	6	Velocidad del viento	4.8
127650	7	Sololá	701	Sololá	4	Finca Santa Victoria	8	Agosto	2023-08-30T00:00:00	2024-11-08T13:00:00	7	Dirección del viento	4.83
127651	7	Sololá	701	Sololá	4	Finca Santa Victoria	8	Agosto	2023-08-30T00:00:00	2024-11-08T13:00:00	1	Precipitación	0
127652	7	Sololá	701	Sololá	4	Finca Santa Victoria	8	Agosto	2023-08-30T00:00:00	2024-11-08T13:00:00	8	Radiación solar	369
127653	7	Sololá	701	Sololá	4	Finca Santa Victoria	8	Agosto	2023-08-30T00:00:00	2024-11-08T14:00:00	2	Temperatura media	18.4
127654	7	Sololá	701	Sololá	4	Finca Santa Victoria	8	Agosto	2023-08-30T00:00:00	2024-11-08T14:00:00	4	Temperatura máxima	18.7
127655	7	Sololá	701	Sololá	4	Finca Santa Victoria	8	Agosto	2023-08-30T00:00:00	2024-11-08T14:00:00	3	Temperatura mínima	18.1
127656	7	Sololá	701	Sololá	4	Finca Santa Victoria	8	Agosto	2023-08-30T00:00:00	2024-11-08T14:00:00	5	Humedad	87
127657	7	Sololá	701	Sololá	4	Finca Santa Victoria	8	Agosto	2023-08-30T00:00:00	2024-11-08T14:00:00	6	Velocidad del viento	4.8
127658	7	Sololá	701	Sololá	4	Finca Santa Victoria	8	Agosto	2023-08-30T00:00:00	2024-11-08T14:00:00	7	Dirección del viento	4.83
127659	7	Sololá	701	Sololá	4	Finca Santa Victoria	8	Agosto	2023-08-30T00:00:00	2024-11-08T14:00:00	1	Precipitación	0
127660	7	Sololá	701	Sololá	4	Finca Santa Victoria	8	Agosto	2023-08-30T00:00:00	2024-11-08T14:00:00	8	Radiación solar	245
127661	7	Sololá	701	Sololá	4	Finca Santa Victoria	8	Agosto	2023-08-30T00:00:00	2024-11-08T15:00:00	2	Temperatura media	16.4
127662	7	Sololá	701	Sololá	4	Finca Santa Victoria	8	Agosto	2023-08-30T00:00:00	2024-11-08T15:00:00	4	Temperatura máxima	18.4
127663	7	Sololá	701	Sololá	4	Finca Santa Victoria	8	Agosto	2023-08-30T00:00:00	2024-11-08T15:00:00	3	Temperatura mínima	16.3
127664	7	Sololá	701	Sololá	4	Finca Santa Victoria	8	Agosto	2023-08-30T00:00:00	2024-11-08T15:00:00	5	Humedad	96
127665	7	Sololá	701	Sololá	4	Finca Santa Victoria	8	Agosto	2023-08-30T00:00:00	2024-11-08T15:00:00	6	Velocidad del viento	4.8
127666	7	Sololá	701	Sololá	4	Finca Santa Victoria	8	Agosto	2023-08-30T00:00:00	2024-11-08T15:00:00	7	Dirección del viento	4.83
127667	7	Sololá	701	Sololá	4	Finca Santa Victoria	8	Agosto	2023-08-30T00:00:00	2024-11-08T15:00:00	1	Precipitación	0
127668	7	Sololá	701	Sololá	4	Finca Santa Victoria	8	Agosto	2023-08-30T00:00:00	2024-11-08T15:00:00	8	Radiación solar	109
127669	7	Sololá	701	Sololá	4	Finca Santa Victoria	8	Agosto	2023-08-30T00:00:00	2024-11-08T16:00:00	2	Temperatura media	16.4
127670	7	Sololá	701	Sololá	4	Finca Santa Victoria	8	Agosto	2023-08-30T00:00:00	2024-11-08T16:00:00	4	Temperatura máxima	16.5
127671	7	Sololá	701	Sololá	4	Finca Santa Victoria	8	Agosto	2023-08-30T00:00:00	2024-11-08T16:00:00	3	Temperatura mínima	15.9
127672	7	Sololá	701	Sololá	4	Finca Santa Victoria	8	Agosto	2023-08-30T00:00:00	2024-11-08T16:00:00	5	Humedad	94
127673	7	Sololá	701	Sololá	4	Finca Santa Victoria	8	Agosto	2023-08-30T00:00:00	2024-11-08T16:00:00	6	Velocidad del viento	3.2
127674	7	Sololá	701	Sololá	4	Finca Santa Victoria	8	Agosto	2023-08-30T00:00:00	2024-11-08T16:00:00	7	Dirección del viento	3.22
127675	7	Sololá	701	Sololá	4	Finca Santa Victoria	8	Agosto	2023-08-30T00:00:00	2024-11-08T16:00:00	1	Precipitación	0
127676	7	Sololá	701	Sololá	4	Finca Santa Victoria	8	Agosto	2023-08-30T00:00:00	2024-11-08T16:00:00	8	Radiación solar	100
127677	7	Sololá	701	Sololá	4	Finca Santa Victoria	8	Agosto	2023-08-30T00:00:00	2024-11-08T17:00:00	2	Temperatura media	16
127678	7	Sololá	701	Sololá	4	Finca Santa Victoria	8	Agosto	2023-08-30T00:00:00	2024-11-08T17:00:00	4	Temperatura máxima	16.6
127679	7	Sololá	701	Sololá	4	Finca Santa Victoria	8	Agosto	2023-08-30T00:00:00	2024-11-08T17:00:00	3	Temperatura mínima	16
127680	7	Sololá	701	Sololá	4	Finca Santa Victoria	8	Agosto	2023-08-30T00:00:00	2024-11-08T17:00:00	5	Humedad	96
127681	7	Sololá	701	Sololá	4	Finca Santa Victoria	8	Agosto	2023-08-30T00:00:00	2024-11-08T17:00:00	6	Velocidad del viento	1.6
127682	7	Sololá	701	Sololá	4	Finca Santa Victoria	8	Agosto	2023-08-30T00:00:00	2024-11-08T17:00:00	7	Dirección del viento	1.61
127683	7	Sololá	701	Sololá	4	Finca Santa Victoria	8	Agosto	2023-08-30T00:00:00	2024-11-08T17:00:00	1	Precipitación	0
127684	7	Sololá	701	Sololá	4	Finca Santa Victoria	8	Agosto	2023-08-30T00:00:00	2024-11-08T17:00:00	8	Radiación solar	38
127685	7	Sololá	701	Sololá	4	Finca Santa Victoria	8	Agosto	2023-08-30T00:00:00	2024-11-08T18:00:00	2	Temperatura media	15.3
127686	7	Sololá	701	Sololá	4	Finca Santa Victoria	8	Agosto	2023-08-30T00:00:00	2024-11-08T18:00:00	4	Temperatura máxima	16.1
127687	7	Sololá	701	Sololá	4	Finca Santa Victoria	8	Agosto	2023-08-30T00:00:00	2024-11-08T18:00:00	3	Temperatura mínima	15.3
127688	7	Sololá	701	Sololá	4	Finca Santa Victoria	8	Agosto	2023-08-30T00:00:00	2024-11-08T18:00:00	5	Humedad	94
127689	7	Sololá	701	Sololá	4	Finca Santa Victoria	8	Agosto	2023-08-30T00:00:00	2024-11-08T18:00:00	6	Velocidad del viento	0
127690	7	Sololá	701	Sololá	4	Finca Santa Victoria	8	Agosto	2023-08-30T00:00:00	2024-11-08T18:00:00	7	Dirección del viento	0
127691	7	Sololá	701	Sololá	4	Finca Santa Victoria	8	Agosto	2023-08-30T00:00:00	2024-11-08T18:00:00	1	Precipitación	0
127692	7	Sololá	701	Sololá	4	Finca Santa Victoria	8	Agosto	2023-08-30T00:00:00	2024-11-08T18:00:00	8	Radiación solar	18
127693	7	Sololá	701	Sololá	4	Finca Santa Victoria	8	Agosto	2023-08-30T00:00:00	2024-11-08T19:00:00	2	Temperatura media	15.2
127694	7	Sololá	701	Sololá	4	Finca Santa Victoria	8	Agosto	2023-08-30T00:00:00	2024-11-08T19:00:00	4	Temperatura máxima	15.3
127695	7	Sololá	701	Sololá	4	Finca Santa Victoria	8	Agosto	2023-08-30T00:00:00	2024-11-08T19:00:00	3	Temperatura mínima	15.2
127696	7	Sololá	701	Sololá	4	Finca Santa Victoria	8	Agosto	2023-08-30T00:00:00	2024-11-08T19:00:00	5	Humedad	97
127697	7	Sololá	701	Sololá	4	Finca Santa Victoria	8	Agosto	2023-08-30T00:00:00	2024-11-08T19:00:00	6	Velocidad del viento	0
127698	7	Sololá	701	Sololá	4	Finca Santa Victoria	8	Agosto	2023-08-30T00:00:00	2024-11-08T19:00:00	7	Dirección del viento	0
127699	7	Sololá	701	Sololá	4	Finca Santa Victoria	8	Agosto	2023-08-30T00:00:00	2024-11-08T19:00:00	1	Precipitación	0
127700	7	Sololá	701	Sololá	4	Finca Santa Victoria	8	Agosto	2023-08-30T00:00:00	2024-11-08T19:00:00	8	Radiación solar	0
127701	7	Sololá	701	Sololá	4	Finca Santa Victoria	8	Agosto	2023-08-30T00:00:00	2024-11-08T20:00:00	2	Temperatura media	15.1
127702	7	Sololá	701	Sololá	4	Finca Santa Victoria	8	Agosto	2023-08-30T00:00:00	2024-11-08T20:00:00	4	Temperatura máxima	15.3
127703	7	Sololá	701	Sololá	4	Finca Santa Victoria	8	Agosto	2023-08-30T00:00:00	2024-11-08T20:00:00	3	Temperatura mínima	15
127704	7	Sololá	701	Sololá	4	Finca Santa Victoria	8	Agosto	2023-08-30T00:00:00	2024-11-08T20:00:00	5	Humedad	96
127705	7	Sololá	701	Sololá	4	Finca Santa Victoria	8	Agosto	2023-08-30T00:00:00	2024-11-08T20:00:00	6	Velocidad del viento	0
127706	7	Sololá	701	Sololá	4	Finca Santa Victoria	8	Agosto	2023-08-30T00:00:00	2024-11-08T20:00:00	7	Dirección del viento	0
127707	7	Sololá	701	Sololá	4	Finca Santa Victoria	8	Agosto	2023-08-30T00:00:00	2024-11-08T20:00:00	1	Precipitación	0
127708	7	Sololá	701	Sololá	4	Finca Santa Victoria	8	Agosto	2023-08-30T00:00:00	2024-11-08T20:00:00	8	Radiación solar	0
127709	7	Sololá	701	Sololá	4	Finca Santa Victoria	8	Agosto	2023-08-30T00:00:00	2024-11-08T21:00:00	2	Temperatura media	15.3
127710	7	Sololá	701	Sololá	4	Finca Santa Victoria	8	Agosto	2023-08-30T00:00:00	2024-11-08T21:00:00	4	Temperatura máxima	15.3
127711	7	Sololá	701	Sololá	4	Finca Santa Victoria	8	Agosto	2023-08-30T00:00:00	2024-11-08T21:00:00	3	Temperatura mínima	15
127712	7	Sololá	701	Sololá	4	Finca Santa Victoria	8	Agosto	2023-08-30T00:00:00	2024-11-08T21:00:00	5	Humedad	97
127713	7	Sololá	701	Sololá	4	Finca Santa Victoria	8	Agosto	2023-08-30T00:00:00	2024-11-08T21:00:00	6	Velocidad del viento	0
127714	7	Sololá	701	Sololá	4	Finca Santa Victoria	8	Agosto	2023-08-30T00:00:00	2024-11-08T21:00:00	7	Dirección del viento	0
127715	7	Sololá	701	Sololá	4	Finca Santa Victoria	8	Agosto	2023-08-30T00:00:00	2024-11-08T21:00:00	1	Precipitación	0
127716	7	Sololá	701	Sololá	4	Finca Santa Victoria	8	Agosto	2023-08-30T00:00:00	2024-11-08T21:00:00	8	Radiación solar	0
127717	7	Sololá	701	Sololá	4	Finca Santa Victoria	8	Agosto	2023-08-30T00:00:00	2024-11-08T22:00:00	2	Temperatura media	14.9
127718	7	Sololá	701	Sololá	4	Finca Santa Victoria	8	Agosto	2023-08-30T00:00:00	2024-11-08T22:00:00	4	Temperatura máxima	15.3
127719	7	Sololá	701	Sololá	4	Finca Santa Victoria	8	Agosto	2023-08-30T00:00:00	2024-11-08T22:00:00	3	Temperatura mínima	14.8
127720	7	Sololá	701	Sololá	4	Finca Santa Victoria	8	Agosto	2023-08-30T00:00:00	2024-11-08T22:00:00	5	Humedad	98
127721	7	Sololá	701	Sololá	4	Finca Santa Victoria	8	Agosto	2023-08-30T00:00:00	2024-11-08T22:00:00	6	Velocidad del viento	0
127722	7	Sololá	701	Sololá	4	Finca Santa Victoria	8	Agosto	2023-08-30T00:00:00	2024-11-08T22:00:00	7	Dirección del viento	0
127723	7	Sololá	701	Sololá	4	Finca Santa Victoria	8	Agosto	2023-08-30T00:00:00	2024-11-08T22:00:00	1	Precipitación	0
127724	7	Sololá	701	Sololá	4	Finca Santa Victoria	8	Agosto	2023-08-30T00:00:00	2024-11-08T22:00:00	8	Radiación solar	0
127725	7	Sololá	701	Sololá	4	Finca Santa Victoria	8	Agosto	2023-08-30T00:00:00	2024-11-08T23:00:00	2	Temperatura media	14.7
127726	7	Sololá	701	Sololá	4	Finca Santa Victoria	8	Agosto	2023-08-30T00:00:00	2024-11-08T23:00:00	4	Temperatura máxima	15
127727	7	Sololá	701	Sololá	4	Finca Santa Victoria	8	Agosto	2023-08-30T00:00:00	2024-11-08T23:00:00	3	Temperatura mínima	14.7
127728	7	Sololá	701	Sololá	4	Finca Santa Victoria	8	Agosto	2023-08-30T00:00:00	2024-11-08T23:00:00	5	Humedad	98
127729	7	Sololá	701	Sololá	4	Finca Santa Victoria	8	Agosto	2023-08-30T00:00:00	2024-11-08T23:00:00	6	Velocidad del viento	0
127730	7	Sololá	701	Sololá	4	Finca Santa Victoria	8	Agosto	2023-08-30T00:00:00	2024-11-08T23:00:00	7	Dirección del viento	0
127731	7	Sololá	701	Sololá	4	Finca Santa Victoria	8	Agosto	2023-08-30T00:00:00	2024-11-08T23:00:00	1	Precipitación	0
127732	7	Sololá	701	Sololá	4	Finca Santa Victoria	8	Agosto	2023-08-30T00:00:00	2024-11-08T23:00:00	8	Radiación solar	0
127733	7	Sololá	701	Sololá	4	Finca Santa Victoria	8	Agosto	2023-08-31T00:00:00	2024-11-08T00:00:00	2	Temperatura media	14.3
127734	7	Sololá	701	Sololá	4	Finca Santa Victoria	8	Agosto	2023-08-31T00:00:00	2024-11-08T00:00:00	4	Temperatura máxima	14.7
127735	7	Sololá	701	Sololá	4	Finca Santa Victoria	8	Agosto	2023-08-31T00:00:00	2024-11-08T00:00:00	3	Temperatura mínima	14.2
127736	7	Sololá	701	Sololá	4	Finca Santa Victoria	8	Agosto	2023-08-31T00:00:00	2024-11-08T00:00:00	5	Humedad	94
127737	7	Sololá	701	Sololá	4	Finca Santa Victoria	8	Agosto	2023-08-31T00:00:00	2024-11-08T00:00:00	6	Velocidad del viento	0
127738	7	Sololá	701	Sololá	4	Finca Santa Victoria	8	Agosto	2023-08-31T00:00:00	2024-11-08T00:00:00	7	Dirección del viento	0
127739	7	Sololá	701	Sololá	4	Finca Santa Victoria	8	Agosto	2023-08-31T00:00:00	2024-11-08T00:00:00	1	Precipitación	0
127740	7	Sololá	701	Sololá	4	Finca Santa Victoria	8	Agosto	2023-08-31T00:00:00	2024-11-08T00:00:00	8	Radiación solar	0
127741	7	Sololá	701	Sololá	4	Finca Santa Victoria	8	Agosto	2023-08-31T00:00:00	2024-11-08T01:00:00	2	Temperatura media	14.4
127742	7	Sololá	701	Sololá	4	Finca Santa Victoria	8	Agosto	2023-08-31T00:00:00	2024-11-08T01:00:00	4	Temperatura máxima	14.6
127743	7	Sololá	701	Sololá	4	Finca Santa Victoria	8	Agosto	2023-08-31T00:00:00	2024-11-08T01:00:00	3	Temperatura mínima	14.3
127744	7	Sololá	701	Sololá	4	Finca Santa Victoria	8	Agosto	2023-08-31T00:00:00	2024-11-08T01:00:00	5	Humedad	93
127745	7	Sololá	701	Sololá	4	Finca Santa Victoria	8	Agosto	2023-08-31T00:00:00	2024-11-08T01:00:00	6	Velocidad del viento	0
127746	7	Sololá	701	Sololá	4	Finca Santa Victoria	8	Agosto	2023-08-31T00:00:00	2024-11-08T01:00:00	7	Dirección del viento	0
127747	7	Sololá	701	Sololá	4	Finca Santa Victoria	8	Agosto	2023-08-31T00:00:00	2024-11-08T01:00:00	1	Precipitación	0
127748	7	Sololá	701	Sololá	4	Finca Santa Victoria	8	Agosto	2023-08-31T00:00:00	2024-11-08T01:00:00	8	Radiación solar	0
127749	7	Sololá	701	Sololá	4	Finca Santa Victoria	8	Agosto	2023-08-31T00:00:00	2024-11-08T02:00:00	2	Temperatura media	14.3
127750	7	Sololá	701	Sololá	4	Finca Santa Victoria	8	Agosto	2023-08-31T00:00:00	2024-11-08T02:00:00	4	Temperatura máxima	14.4
127751	7	Sololá	701	Sololá	4	Finca Santa Victoria	8	Agosto	2023-08-31T00:00:00	2024-11-08T02:00:00	3	Temperatura mínima	14.2
127752	7	Sololá	701	Sololá	4	Finca Santa Victoria	8	Agosto	2023-08-31T00:00:00	2024-11-08T02:00:00	5	Humedad	96
127753	7	Sololá	701	Sololá	4	Finca Santa Victoria	8	Agosto	2023-08-31T00:00:00	2024-11-08T02:00:00	6	Velocidad del viento	0
127754	7	Sololá	701	Sololá	4	Finca Santa Victoria	8	Agosto	2023-08-31T00:00:00	2024-11-08T02:00:00	7	Dirección del viento	0
127755	7	Sololá	701	Sololá	4	Finca Santa Victoria	8	Agosto	2023-08-31T00:00:00	2024-11-08T02:00:00	1	Precipitación	0
127756	7	Sololá	701	Sololá	4	Finca Santa Victoria	8	Agosto	2023-08-31T00:00:00	2024-11-08T02:00:00	8	Radiación solar	0
127757	7	Sololá	701	Sololá	4	Finca Santa Victoria	8	Agosto	2023-08-31T00:00:00	2024-11-08T03:00:00	2	Temperatura media	14.2
127758	7	Sololá	701	Sololá	4	Finca Santa Victoria	8	Agosto	2023-08-31T00:00:00	2024-11-08T03:00:00	4	Temperatura máxima	14.3
127759	7	Sololá	701	Sololá	4	Finca Santa Victoria	8	Agosto	2023-08-31T00:00:00	2024-11-08T03:00:00	3	Temperatura mínima	14.2
127760	7	Sololá	701	Sololá	4	Finca Santa Victoria	8	Agosto	2023-08-31T00:00:00	2024-11-08T03:00:00	5	Humedad	96
127761	7	Sololá	701	Sololá	4	Finca Santa Victoria	8	Agosto	2023-08-31T00:00:00	2024-11-08T03:00:00	6	Velocidad del viento	1.6
127762	7	Sololá	701	Sololá	4	Finca Santa Victoria	8	Agosto	2023-08-31T00:00:00	2024-11-08T03:00:00	7	Dirección del viento	1.61
127763	7	Sololá	701	Sololá	4	Finca Santa Victoria	8	Agosto	2023-08-31T00:00:00	2024-11-08T03:00:00	1	Precipitación	0
127764	7	Sololá	701	Sololá	4	Finca Santa Victoria	8	Agosto	2023-08-31T00:00:00	2024-11-08T03:00:00	8	Radiación solar	0
127765	7	Sololá	701	Sololá	4	Finca Santa Victoria	8	Agosto	2023-08-31T00:00:00	2024-11-08T04:00:00	2	Temperatura media	13.9
127766	7	Sololá	701	Sololá	4	Finca Santa Victoria	8	Agosto	2023-08-31T00:00:00	2024-11-08T04:00:00	4	Temperatura máxima	14.2
127767	7	Sololá	701	Sololá	4	Finca Santa Victoria	8	Agosto	2023-08-31T00:00:00	2024-11-08T04:00:00	3	Temperatura mínima	13.8
127768	7	Sololá	701	Sololá	4	Finca Santa Victoria	8	Agosto	2023-08-31T00:00:00	2024-11-08T04:00:00	5	Humedad	95
127769	7	Sololá	701	Sololá	4	Finca Santa Victoria	8	Agosto	2023-08-31T00:00:00	2024-11-08T04:00:00	6	Velocidad del viento	0
127770	7	Sololá	701	Sololá	4	Finca Santa Victoria	8	Agosto	2023-08-31T00:00:00	2024-11-08T04:00:00	7	Dirección del viento	0
127771	7	Sololá	701	Sololá	4	Finca Santa Victoria	8	Agosto	2023-08-31T00:00:00	2024-11-08T04:00:00	1	Precipitación	0
127772	7	Sololá	701	Sololá	4	Finca Santa Victoria	8	Agosto	2023-08-31T00:00:00	2024-11-08T04:00:00	8	Radiación solar	0
127773	7	Sololá	701	Sololá	4	Finca Santa Victoria	8	Agosto	2023-08-31T00:00:00	2024-11-08T05:00:00	2	Temperatura media	14.3
127774	7	Sololá	701	Sololá	4	Finca Santa Victoria	8	Agosto	2023-08-31T00:00:00	2024-11-08T05:00:00	4	Temperatura máxima	14.3
127775	7	Sololá	701	Sololá	4	Finca Santa Victoria	8	Agosto	2023-08-31T00:00:00	2024-11-08T05:00:00	3	Temperatura mínima	13.8
127776	7	Sololá	701	Sololá	4	Finca Santa Victoria	8	Agosto	2023-08-31T00:00:00	2024-11-08T05:00:00	5	Humedad	88
127777	7	Sololá	701	Sololá	4	Finca Santa Victoria	8	Agosto	2023-08-31T00:00:00	2024-11-08T05:00:00	6	Velocidad del viento	1.6
127778	7	Sololá	701	Sololá	4	Finca Santa Victoria	8	Agosto	2023-08-31T00:00:00	2024-11-08T05:00:00	7	Dirección del viento	1.61
127779	7	Sololá	701	Sololá	4	Finca Santa Victoria	8	Agosto	2023-08-31T00:00:00	2024-11-08T05:00:00	1	Precipitación	0
127780	7	Sololá	701	Sololá	4	Finca Santa Victoria	8	Agosto	2023-08-31T00:00:00	2024-11-08T05:00:00	8	Radiación solar	0
127781	7	Sololá	701	Sololá	4	Finca Santa Victoria	8	Agosto	2023-08-31T00:00:00	2024-11-08T06:00:00	2	Temperatura media	14
127782	7	Sololá	701	Sololá	4	Finca Santa Victoria	8	Agosto	2023-08-31T00:00:00	2024-11-08T06:00:00	4	Temperatura máxima	14.3
127783	7	Sololá	701	Sololá	4	Finca Santa Victoria	8	Agosto	2023-08-31T00:00:00	2024-11-08T06:00:00	3	Temperatura mínima	14
127784	7	Sololá	701	Sololá	4	Finca Santa Victoria	8	Agosto	2023-08-31T00:00:00	2024-11-08T06:00:00	5	Humedad	88
127785	7	Sololá	701	Sololá	4	Finca Santa Victoria	8	Agosto	2023-08-31T00:00:00	2024-11-08T06:00:00	6	Velocidad del viento	1.6
127786	7	Sololá	701	Sololá	4	Finca Santa Victoria	8	Agosto	2023-08-31T00:00:00	2024-11-08T06:00:00	7	Dirección del viento	1.61
127787	7	Sololá	701	Sololá	4	Finca Santa Victoria	8	Agosto	2023-08-31T00:00:00	2024-11-08T06:00:00	1	Precipitación	0
127788	7	Sololá	701	Sololá	4	Finca Santa Victoria	8	Agosto	2023-08-31T00:00:00	2024-11-08T06:00:00	8	Radiación solar	0
127789	7	Sololá	701	Sololá	4	Finca Santa Victoria	8	Agosto	2023-08-31T00:00:00	2024-11-08T07:00:00	2	Temperatura media	14.6
127790	7	Sololá	701	Sololá	4	Finca Santa Victoria	8	Agosto	2023-08-31T00:00:00	2024-11-08T07:00:00	4	Temperatura máxima	14.6
127791	7	Sololá	701	Sololá	4	Finca Santa Victoria	8	Agosto	2023-08-31T00:00:00	2024-11-08T07:00:00	3	Temperatura mínima	13.9
127792	7	Sololá	701	Sololá	4	Finca Santa Victoria	8	Agosto	2023-08-31T00:00:00	2024-11-08T07:00:00	5	Humedad	86
127793	7	Sololá	701	Sololá	4	Finca Santa Victoria	8	Agosto	2023-08-31T00:00:00	2024-11-08T07:00:00	6	Velocidad del viento	1.6
127794	7	Sololá	701	Sololá	4	Finca Santa Victoria	8	Agosto	2023-08-31T00:00:00	2024-11-08T07:00:00	7	Dirección del viento	1.61
127795	7	Sololá	701	Sololá	4	Finca Santa Victoria	8	Agosto	2023-08-31T00:00:00	2024-11-08T07:00:00	1	Precipitación	0
127796	7	Sololá	701	Sololá	4	Finca Santa Victoria	8	Agosto	2023-08-31T00:00:00	2024-11-08T07:00:00	8	Radiación solar	30
127797	7	Sololá	701	Sololá	4	Finca Santa Victoria	8	Agosto	2023-08-31T00:00:00	2024-11-08T08:00:00	2	Temperatura media	19.9
127798	7	Sololá	701	Sololá	4	Finca Santa Victoria	8	Agosto	2023-08-31T00:00:00	2024-11-08T08:00:00	4	Temperatura máxima	19.9
127799	7	Sololá	701	Sololá	4	Finca Santa Victoria	8	Agosto	2023-08-31T00:00:00	2024-11-08T08:00:00	3	Temperatura mínima	14.6
127800	7	Sololá	701	Sololá	4	Finca Santa Victoria	8	Agosto	2023-08-31T00:00:00	2024-11-08T08:00:00	5	Humedad	72
127801	7	Sololá	701	Sololá	4	Finca Santa Victoria	8	Agosto	2023-08-31T00:00:00	2024-11-08T08:00:00	6	Velocidad del viento	0
127802	7	Sololá	701	Sololá	4	Finca Santa Victoria	8	Agosto	2023-08-31T00:00:00	2024-11-08T08:00:00	7	Dirección del viento	0
127803	7	Sololá	701	Sololá	4	Finca Santa Victoria	8	Agosto	2023-08-31T00:00:00	2024-11-08T08:00:00	1	Precipitación	0
127804	7	Sololá	701	Sololá	4	Finca Santa Victoria	8	Agosto	2023-08-31T00:00:00	2024-11-08T08:00:00	8	Radiación solar	262
127805	7	Sololá	701	Sololá	4	Finca Santa Victoria	8	Agosto	2023-08-31T00:00:00	2024-11-08T09:00:00	2	Temperatura media	19.3
127806	7	Sololá	701	Sololá	4	Finca Santa Victoria	8	Agosto	2023-08-31T00:00:00	2024-11-08T09:00:00	4	Temperatura máxima	20.2
127807	7	Sololá	701	Sololá	4	Finca Santa Victoria	8	Agosto	2023-08-31T00:00:00	2024-11-08T09:00:00	3	Temperatura mínima	19.3
127808	7	Sololá	701	Sololá	4	Finca Santa Victoria	8	Agosto	2023-08-31T00:00:00	2024-11-08T09:00:00	5	Humedad	70
127809	7	Sololá	701	Sololá	4	Finca Santa Victoria	8	Agosto	2023-08-31T00:00:00	2024-11-08T09:00:00	6	Velocidad del viento	0
127810	7	Sololá	701	Sololá	4	Finca Santa Victoria	8	Agosto	2023-08-31T00:00:00	2024-11-08T09:00:00	7	Dirección del viento	0
127811	7	Sololá	701	Sololá	4	Finca Santa Victoria	8	Agosto	2023-08-31T00:00:00	2024-11-08T09:00:00	1	Precipitación	0
127812	7	Sololá	701	Sololá	4	Finca Santa Victoria	8	Agosto	2023-08-31T00:00:00	2024-11-08T09:00:00	8	Radiación solar	324
127813	7	Sololá	701	Sololá	4	Finca Santa Victoria	8	Agosto	2023-08-31T00:00:00	2024-11-08T10:00:00	2	Temperatura media	20.4
127814	7	Sololá	701	Sololá	4	Finca Santa Victoria	8	Agosto	2023-08-31T00:00:00	2024-11-08T10:00:00	4	Temperatura máxima	20.4
127815	7	Sololá	701	Sololá	4	Finca Santa Victoria	8	Agosto	2023-08-31T00:00:00	2024-11-08T10:00:00	3	Temperatura mínima	19.1
127816	7	Sololá	701	Sololá	4	Finca Santa Victoria	8	Agosto	2023-08-31T00:00:00	2024-11-08T10:00:00	5	Humedad	75
127817	7	Sololá	701	Sololá	4	Finca Santa Victoria	8	Agosto	2023-08-31T00:00:00	2024-11-08T10:00:00	6	Velocidad del viento	1.6
127818	7	Sololá	701	Sololá	4	Finca Santa Victoria	8	Agosto	2023-08-31T00:00:00	2024-11-08T10:00:00	7	Dirección del viento	1.61
127819	7	Sololá	701	Sololá	4	Finca Santa Victoria	8	Agosto	2023-08-31T00:00:00	2024-11-08T10:00:00	1	Precipitación	0
127820	7	Sololá	701	Sololá	4	Finca Santa Victoria	8	Agosto	2023-08-31T00:00:00	2024-11-08T10:00:00	8	Radiación solar	235
127821	7	Sololá	701	Sololá	4	Finca Santa Victoria	8	Agosto	2023-08-31T00:00:00	2024-11-08T11:00:00	2	Temperatura media	20.9
127822	7	Sololá	701	Sololá	4	Finca Santa Victoria	8	Agosto	2023-08-31T00:00:00	2024-11-08T11:00:00	4	Temperatura máxima	20.9
127823	7	Sololá	701	Sololá	4	Finca Santa Victoria	8	Agosto	2023-08-31T00:00:00	2024-11-08T11:00:00	3	Temperatura mínima	20.4
127824	7	Sololá	701	Sololá	4	Finca Santa Victoria	8	Agosto	2023-08-31T00:00:00	2024-11-08T11:00:00	5	Humedad	71
127825	7	Sololá	701	Sololá	4	Finca Santa Victoria	8	Agosto	2023-08-31T00:00:00	2024-11-08T11:00:00	6	Velocidad del viento	3.2
127826	7	Sololá	701	Sololá	4	Finca Santa Victoria	8	Agosto	2023-08-31T00:00:00	2024-11-08T11:00:00	7	Dirección del viento	3.22
127827	7	Sololá	701	Sololá	4	Finca Santa Victoria	8	Agosto	2023-08-31T00:00:00	2024-11-08T11:00:00	1	Precipitación	0
127828	7	Sololá	701	Sololá	4	Finca Santa Victoria	8	Agosto	2023-08-31T00:00:00	2024-11-08T11:00:00	8	Radiación solar	975
127829	7	Sololá	701	Sololá	4	Finca Santa Victoria	8	Agosto	2023-08-31T00:00:00	2024-11-08T12:00:00	2	Temperatura media	18.3
127830	7	Sololá	701	Sololá	4	Finca Santa Victoria	8	Agosto	2023-08-31T00:00:00	2024-11-08T12:00:00	4	Temperatura máxima	21.1
127831	7	Sololá	701	Sololá	4	Finca Santa Victoria	8	Agosto	2023-08-31T00:00:00	2024-11-08T12:00:00	3	Temperatura mínima	18.3
127832	7	Sololá	701	Sololá	4	Finca Santa Victoria	8	Agosto	2023-08-31T00:00:00	2024-11-08T12:00:00	5	Humedad	87
127833	7	Sololá	701	Sololá	4	Finca Santa Victoria	8	Agosto	2023-08-31T00:00:00	2024-11-08T12:00:00	6	Velocidad del viento	4.8
127834	7	Sololá	701	Sololá	4	Finca Santa Victoria	8	Agosto	2023-08-31T00:00:00	2024-11-08T12:00:00	7	Dirección del viento	4.83
127835	7	Sololá	701	Sololá	4	Finca Santa Victoria	8	Agosto	2023-08-31T00:00:00	2024-11-08T12:00:00	1	Precipitación	0
127836	7	Sololá	701	Sololá	4	Finca Santa Victoria	8	Agosto	2023-08-31T00:00:00	2024-11-08T12:00:00	8	Radiación solar	470
127837	7	Sololá	701	Sololá	4	Finca Santa Victoria	8	Agosto	2023-08-31T00:00:00	2024-11-08T13:00:00	2	Temperatura media	16.8
127838	7	Sololá	701	Sololá	4	Finca Santa Victoria	8	Agosto	2023-08-31T00:00:00	2024-11-08T13:00:00	4	Temperatura máxima	18.3
127839	7	Sololá	701	Sololá	4	Finca Santa Victoria	8	Agosto	2023-08-31T00:00:00	2024-11-08T13:00:00	3	Temperatura mínima	16.5
127840	7	Sololá	701	Sololá	4	Finca Santa Victoria	8	Agosto	2023-08-31T00:00:00	2024-11-08T13:00:00	5	Humedad	94
127841	7	Sololá	701	Sololá	4	Finca Santa Victoria	8	Agosto	2023-08-31T00:00:00	2024-11-08T13:00:00	6	Velocidad del viento	1.6
127842	7	Sololá	701	Sololá	4	Finca Santa Victoria	8	Agosto	2023-08-31T00:00:00	2024-11-08T13:00:00	7	Dirección del viento	1.61
127843	7	Sololá	701	Sololá	4	Finca Santa Victoria	8	Agosto	2023-08-31T00:00:00	2024-11-08T13:00:00	1	Precipitación	3.6
127844	7	Sololá	701	Sololá	4	Finca Santa Victoria	8	Agosto	2023-08-31T00:00:00	2024-11-08T13:00:00	8	Radiación solar	58
127845	7	Sololá	701	Sololá	4	Finca Santa Victoria	8	Agosto	2023-08-31T00:00:00	2024-11-08T14:00:00	2	Temperatura media	14.3
127846	7	Sololá	701	Sololá	4	Finca Santa Victoria	8	Agosto	2023-08-31T00:00:00	2024-11-08T14:00:00	4	Temperatura máxima	17.1
127847	7	Sololá	701	Sololá	4	Finca Santa Victoria	8	Agosto	2023-08-31T00:00:00	2024-11-08T14:00:00	3	Temperatura mínima	14.3
127848	7	Sololá	701	Sololá	4	Finca Santa Victoria	8	Agosto	2023-08-31T00:00:00	2024-11-08T14:00:00	5	Humedad	94
127849	7	Sololá	701	Sololá	4	Finca Santa Victoria	8	Agosto	2023-08-31T00:00:00	2024-11-08T14:00:00	6	Velocidad del viento	1.6
127850	7	Sololá	701	Sololá	4	Finca Santa Victoria	8	Agosto	2023-08-31T00:00:00	2024-11-08T14:00:00	7	Dirección del viento	1.61
127851	7	Sololá	701	Sololá	4	Finca Santa Victoria	8	Agosto	2023-08-31T00:00:00	2024-11-08T14:00:00	1	Precipitación	3.8
127852	7	Sololá	701	Sololá	4	Finca Santa Victoria	8	Agosto	2023-08-31T00:00:00	2024-11-08T14:00:00	8	Radiación solar	37
127853	7	Sololá	701	Sololá	4	Finca Santa Victoria	8	Agosto	2023-08-31T00:00:00	2024-11-08T15:00:00	2	Temperatura media	14.1
127854	7	Sololá	701	Sololá	4	Finca Santa Victoria	8	Agosto	2023-08-31T00:00:00	2024-11-08T15:00:00	4	Temperatura máxima	14.3
127855	7	Sololá	701	Sololá	4	Finca Santa Victoria	8	Agosto	2023-08-31T00:00:00	2024-11-08T15:00:00	3	Temperatura mínima	13.6
127856	7	Sololá	701	Sololá	4	Finca Santa Victoria	8	Agosto	2023-08-31T00:00:00	2024-11-08T15:00:00	5	Humedad	97
127857	7	Sololá	701	Sololá	4	Finca Santa Victoria	8	Agosto	2023-08-31T00:00:00	2024-11-08T15:00:00	6	Velocidad del viento	1.6
127858	7	Sololá	701	Sololá	4	Finca Santa Victoria	8	Agosto	2023-08-31T00:00:00	2024-11-08T15:00:00	7	Dirección del viento	1.61
127859	7	Sololá	701	Sololá	4	Finca Santa Victoria	8	Agosto	2023-08-31T00:00:00	2024-11-08T15:00:00	1	Precipitación	0.6
127860	7	Sololá	701	Sololá	4	Finca Santa Victoria	8	Agosto	2023-08-31T00:00:00	2024-11-08T15:00:00	8	Radiación solar	24
127861	7	Sololá	701	Sololá	4	Finca Santa Victoria	8	Agosto	2023-08-31T00:00:00	2024-11-08T16:00:00	2	Temperatura media	14.9
127862	7	Sololá	701	Sololá	4	Finca Santa Victoria	8	Agosto	2023-08-31T00:00:00	2024-11-08T16:00:00	4	Temperatura máxima	14.9
127863	7	Sololá	701	Sololá	4	Finca Santa Victoria	8	Agosto	2023-08-31T00:00:00	2024-11-08T16:00:00	3	Temperatura mínima	14.1
127864	7	Sololá	701	Sololá	4	Finca Santa Victoria	8	Agosto	2023-08-31T00:00:00	2024-11-08T16:00:00	5	Humedad	97
127865	7	Sololá	701	Sololá	4	Finca Santa Victoria	8	Agosto	2023-08-31T00:00:00	2024-11-08T16:00:00	6	Velocidad del viento	1.6
127866	7	Sololá	701	Sololá	4	Finca Santa Victoria	8	Agosto	2023-08-31T00:00:00	2024-11-08T16:00:00	7	Dirección del viento	1.61
127867	7	Sololá	701	Sololá	4	Finca Santa Victoria	8	Agosto	2023-08-31T00:00:00	2024-11-08T16:00:00	1	Precipitación	0
127868	7	Sololá	701	Sololá	4	Finca Santa Victoria	8	Agosto	2023-08-31T00:00:00	2024-11-08T16:00:00	8	Radiación solar	53
127869	7	Sololá	701	Sololá	4	Finca Santa Victoria	8	Agosto	2023-08-31T00:00:00	2024-11-08T17:00:00	2	Temperatura media	14.5
127870	7	Sololá	701	Sololá	4	Finca Santa Victoria	8	Agosto	2023-08-31T00:00:00	2024-11-08T17:00:00	4	Temperatura máxima	14.9
127871	7	Sololá	701	Sololá	4	Finca Santa Victoria	8	Agosto	2023-08-31T00:00:00	2024-11-08T17:00:00	3	Temperatura mínima	14.5
127872	7	Sololá	701	Sololá	4	Finca Santa Victoria	8	Agosto	2023-08-31T00:00:00	2024-11-08T17:00:00	5	Humedad	96
127873	7	Sololá	701	Sololá	4	Finca Santa Victoria	8	Agosto	2023-08-31T00:00:00	2024-11-08T17:00:00	6	Velocidad del viento	0
127874	7	Sololá	701	Sololá	4	Finca Santa Victoria	8	Agosto	2023-08-31T00:00:00	2024-11-08T17:00:00	7	Dirección del viento	0
127875	7	Sololá	701	Sololá	4	Finca Santa Victoria	8	Agosto	2023-08-31T00:00:00	2024-11-08T17:00:00	1	Precipitación	0
127876	7	Sololá	701	Sololá	4	Finca Santa Victoria	8	Agosto	2023-08-31T00:00:00	2024-11-08T17:00:00	8	Radiación solar	30
127877	7	Sololá	701	Sololá	4	Finca Santa Victoria	8	Agosto	2023-08-31T00:00:00	2024-11-08T18:00:00	2	Temperatura media	14.5
127878	7	Sololá	701	Sololá	4	Finca Santa Victoria	8	Agosto	2023-08-31T00:00:00	2024-11-08T18:00:00	4	Temperatura máxima	14.6
127879	7	Sololá	701	Sololá	4	Finca Santa Victoria	8	Agosto	2023-08-31T00:00:00	2024-11-08T18:00:00	3	Temperatura mínima	14.3
127880	7	Sololá	701	Sololá	4	Finca Santa Victoria	8	Agosto	2023-08-31T00:00:00	2024-11-08T18:00:00	5	Humedad	95
127881	7	Sololá	701	Sololá	4	Finca Santa Victoria	8	Agosto	2023-08-31T00:00:00	2024-11-08T18:00:00	6	Velocidad del viento	1.6
127882	7	Sololá	701	Sololá	4	Finca Santa Victoria	8	Agosto	2023-08-31T00:00:00	2024-11-08T18:00:00	7	Dirección del viento	1.61
127883	7	Sololá	701	Sololá	4	Finca Santa Victoria	8	Agosto	2023-08-31T00:00:00	2024-11-08T18:00:00	1	Precipitación	0
127884	7	Sololá	701	Sololá	4	Finca Santa Victoria	8	Agosto	2023-08-31T00:00:00	2024-11-08T18:00:00	8	Radiación solar	1
127885	7	Sololá	701	Sololá	4	Finca Santa Victoria	8	Agosto	2023-08-31T00:00:00	2024-11-08T19:00:00	2	Temperatura media	14.4
127886	7	Sololá	701	Sololá	4	Finca Santa Victoria	8	Agosto	2023-08-31T00:00:00	2024-11-08T19:00:00	4	Temperatura máxima	14.7
127887	7	Sololá	701	Sololá	4	Finca Santa Victoria	8	Agosto	2023-08-31T00:00:00	2024-11-08T19:00:00	3	Temperatura mínima	14.4
127888	7	Sololá	701	Sololá	4	Finca Santa Victoria	8	Agosto	2023-08-31T00:00:00	2024-11-08T19:00:00	5	Humedad	96
127889	7	Sololá	701	Sololá	4	Finca Santa Victoria	8	Agosto	2023-08-31T00:00:00	2024-11-08T19:00:00	6	Velocidad del viento	0
127890	7	Sololá	701	Sololá	4	Finca Santa Victoria	8	Agosto	2023-08-31T00:00:00	2024-11-08T19:00:00	7	Dirección del viento	0
127891	7	Sololá	701	Sololá	4	Finca Santa Victoria	8	Agosto	2023-08-31T00:00:00	2024-11-08T19:00:00	1	Precipitación	0.4
127892	7	Sololá	701	Sololá	4	Finca Santa Victoria	8	Agosto	2023-08-31T00:00:00	2024-11-08T19:00:00	8	Radiación solar	0
127893	7	Sololá	701	Sololá	4	Finca Santa Victoria	8	Agosto	2023-08-31T00:00:00	2024-11-08T20:00:00	2	Temperatura media	14.3
127894	7	Sololá	701	Sololá	4	Finca Santa Victoria	8	Agosto	2023-08-31T00:00:00	2024-11-08T20:00:00	4	Temperatura máxima	14.4
127895	7	Sololá	701	Sololá	4	Finca Santa Victoria	8	Agosto	2023-08-31T00:00:00	2024-11-08T20:00:00	3	Temperatura mínima	14.2
127896	7	Sololá	701	Sololá	4	Finca Santa Victoria	8	Agosto	2023-08-31T00:00:00	2024-11-08T20:00:00	5	Humedad	98
127897	7	Sololá	701	Sololá	4	Finca Santa Victoria	8	Agosto	2023-08-31T00:00:00	2024-11-08T20:00:00	6	Velocidad del viento	0
127898	7	Sololá	701	Sololá	4	Finca Santa Victoria	8	Agosto	2023-08-31T00:00:00	2024-11-08T20:00:00	7	Dirección del viento	0
127899	7	Sololá	701	Sololá	4	Finca Santa Victoria	8	Agosto	2023-08-31T00:00:00	2024-11-08T20:00:00	1	Precipitación	2.2
127900	7	Sololá	701	Sololá	4	Finca Santa Victoria	8	Agosto	2023-08-31T00:00:00	2024-11-08T20:00:00	8	Radiación solar	0
127901	7	Sololá	701	Sololá	4	Finca Santa Victoria	8	Agosto	2023-08-31T00:00:00	2024-11-08T21:00:00	2	Temperatura media	14.1
127902	7	Sololá	701	Sololá	4	Finca Santa Victoria	8	Agosto	2023-08-31T00:00:00	2024-11-08T21:00:00	4	Temperatura máxima	14.4
127903	7	Sololá	701	Sololá	4	Finca Santa Victoria	8	Agosto	2023-08-31T00:00:00	2024-11-08T21:00:00	3	Temperatura mínima	14.1
127904	7	Sololá	701	Sololá	4	Finca Santa Victoria	8	Agosto	2023-08-31T00:00:00	2024-11-08T21:00:00	5	Humedad	97
127905	7	Sololá	701	Sololá	4	Finca Santa Victoria	8	Agosto	2023-08-31T00:00:00	2024-11-08T21:00:00	6	Velocidad del viento	1.6
127906	7	Sololá	701	Sololá	4	Finca Santa Victoria	8	Agosto	2023-08-31T00:00:00	2024-11-08T21:00:00	7	Dirección del viento	1.61
127907	7	Sololá	701	Sololá	4	Finca Santa Victoria	8	Agosto	2023-08-31T00:00:00	2024-11-08T21:00:00	1	Precipitación	0.2
127908	7	Sololá	701	Sololá	4	Finca Santa Victoria	8	Agosto	2023-08-31T00:00:00	2024-11-08T21:00:00	8	Radiación solar	0
127909	7	Sololá	701	Sololá	4	Finca Santa Victoria	8	Agosto	2023-08-31T00:00:00	2024-11-08T22:00:00	2	Temperatura media	14.1
127910	7	Sololá	701	Sololá	4	Finca Santa Victoria	8	Agosto	2023-08-31T00:00:00	2024-11-08T22:00:00	4	Temperatura máxima	14.2
127911	7	Sololá	701	Sololá	4	Finca Santa Victoria	8	Agosto	2023-08-31T00:00:00	2024-11-08T22:00:00	3	Temperatura mínima	14
127912	7	Sololá	701	Sololá	4	Finca Santa Victoria	8	Agosto	2023-08-31T00:00:00	2024-11-08T22:00:00	5	Humedad	98
127913	7	Sololá	701	Sololá	4	Finca Santa Victoria	8	Agosto	2023-08-31T00:00:00	2024-11-08T22:00:00	6	Velocidad del viento	1.6
127914	7	Sololá	701	Sololá	4	Finca Santa Victoria	8	Agosto	2023-08-31T00:00:00	2024-11-08T22:00:00	7	Dirección del viento	1.61
127915	7	Sololá	701	Sololá	4	Finca Santa Victoria	8	Agosto	2023-08-31T00:00:00	2024-11-08T22:00:00	1	Precipitación	0
127916	7	Sololá	701	Sololá	4	Finca Santa Victoria	8	Agosto	2023-08-31T00:00:00	2024-11-08T22:00:00	8	Radiación solar	0
127917	7	Sololá	701	Sololá	4	Finca Santa Victoria	8	Agosto	2023-08-31T00:00:00	2024-11-08T23:00:00	2	Temperatura media	13.9
127918	7	Sololá	701	Sololá	4	Finca Santa Victoria	8	Agosto	2023-08-31T00:00:00	2024-11-08T23:00:00	4	Temperatura máxima	14.2
127919	7	Sololá	701	Sololá	4	Finca Santa Victoria	8	Agosto	2023-08-31T00:00:00	2024-11-08T23:00:00	3	Temperatura mínima	13.9
127920	7	Sololá	701	Sololá	4	Finca Santa Victoria	8	Agosto	2023-08-31T00:00:00	2024-11-08T23:00:00	5	Humedad	98
127921	7	Sololá	701	Sololá	4	Finca Santa Victoria	8	Agosto	2023-08-31T00:00:00	2024-11-08T23:00:00	6	Velocidad del viento	0
127922	7	Sololá	701	Sololá	4	Finca Santa Victoria	8	Agosto	2023-08-31T00:00:00	2024-11-08T23:00:00	7	Dirección del viento	0
127923	7	Sololá	701	Sololá	4	Finca Santa Victoria	8	Agosto	2023-08-31T00:00:00	2024-11-08T23:00:00	1	Precipitación	0
127924	7	Sololá	701	Sololá	4	Finca Santa Victoria	8	Agosto	2023-08-31T00:00:00	2024-11-08T23:00:00	8	Radiación solar	0
127925	7	Sololá	701	Sololá	4	Finca Santa Victoria	9	Septiembre	2023-01-09T00:00:00	2024-11-08T00:00:00	2	Temperatura media	13.3
127926	7	Sololá	701	Sololá	4	Finca Santa Victoria	9	Septiembre	2023-01-09T00:00:00	2024-11-08T00:00:00	4	Temperatura máxima	13.9
127927	7	Sololá	701	Sololá	4	Finca Santa Victoria	9	Septiembre	2023-01-09T00:00:00	2024-11-08T00:00:00	3	Temperatura mínima	13.3
127928	7	Sololá	701	Sololá	4	Finca Santa Victoria	9	Septiembre	2023-01-09T00:00:00	2024-11-08T00:00:00	5	Humedad	94
127929	7	Sololá	701	Sololá	4	Finca Santa Victoria	9	Septiembre	2023-01-09T00:00:00	2024-11-08T00:00:00	6	Velocidad del viento	1.6
127930	7	Sololá	701	Sololá	4	Finca Santa Victoria	9	Septiembre	2023-01-09T00:00:00	2024-11-08T00:00:00	7	Dirección del viento	1.61
127931	7	Sololá	701	Sololá	4	Finca Santa Victoria	9	Septiembre	2023-01-09T00:00:00	2024-11-08T00:00:00	1	Precipitación	0.2
127932	7	Sololá	701	Sololá	4	Finca Santa Victoria	9	Septiembre	2023-01-09T00:00:00	2024-11-08T00:00:00	8	Radiación solar	0
127933	7	Sololá	701	Sololá	4	Finca Santa Victoria	9	Septiembre	2023-01-09T00:00:00	2024-11-08T01:00:00	2	Temperatura media	12.8
127934	7	Sololá	701	Sololá	4	Finca Santa Victoria	9	Septiembre	2023-01-09T00:00:00	2024-11-08T01:00:00	4	Temperatura máxima	13.3
127935	7	Sololá	701	Sololá	4	Finca Santa Victoria	9	Septiembre	2023-01-09T00:00:00	2024-11-08T01:00:00	3	Temperatura mínima	12.4
127936	7	Sololá	701	Sololá	4	Finca Santa Victoria	9	Septiembre	2023-01-09T00:00:00	2024-11-08T01:00:00	5	Humedad	91
127937	7	Sololá	701	Sololá	4	Finca Santa Victoria	9	Septiembre	2023-01-09T00:00:00	2024-11-08T01:00:00	6	Velocidad del viento	1.6
127938	7	Sololá	701	Sololá	4	Finca Santa Victoria	9	Septiembre	2023-01-09T00:00:00	2024-11-08T01:00:00	7	Dirección del viento	1.61
127939	7	Sololá	701	Sololá	4	Finca Santa Victoria	9	Septiembre	2023-01-09T00:00:00	2024-11-08T01:00:00	1	Precipitación	0.4
127940	7	Sololá	701	Sololá	4	Finca Santa Victoria	9	Septiembre	2023-01-09T00:00:00	2024-11-08T01:00:00	8	Radiación solar	0
127941	7	Sololá	701	Sololá	4	Finca Santa Victoria	9	Septiembre	2023-01-09T00:00:00	2024-11-08T02:00:00	2	Temperatura media	12.3
127942	7	Sololá	701	Sololá	4	Finca Santa Victoria	9	Septiembre	2023-01-09T00:00:00	2024-11-08T02:00:00	4	Temperatura máxima	13.1
127943	7	Sololá	701	Sololá	4	Finca Santa Victoria	9	Septiembre	2023-01-09T00:00:00	2024-11-08T02:00:00	3	Temperatura mínima	12.2
127944	7	Sololá	701	Sololá	4	Finca Santa Victoria	9	Septiembre	2023-01-09T00:00:00	2024-11-08T02:00:00	5	Humedad	93
127945	7	Sololá	701	Sololá	4	Finca Santa Victoria	9	Septiembre	2023-01-09T00:00:00	2024-11-08T02:00:00	6	Velocidad del viento	1.6
127946	7	Sololá	701	Sololá	4	Finca Santa Victoria	9	Septiembre	2023-01-09T00:00:00	2024-11-08T02:00:00	7	Dirección del viento	1.61
127947	7	Sololá	701	Sololá	4	Finca Santa Victoria	9	Septiembre	2023-01-09T00:00:00	2024-11-08T02:00:00	1	Precipitación	0
127948	7	Sololá	701	Sololá	4	Finca Santa Victoria	9	Septiembre	2023-01-09T00:00:00	2024-11-08T02:00:00	8	Radiación solar	0
127949	7	Sololá	701	Sololá	4	Finca Santa Victoria	9	Septiembre	2023-01-09T00:00:00	2024-11-08T03:00:00	2	Temperatura media	13.2
127950	7	Sololá	701	Sololá	4	Finca Santa Victoria	9	Septiembre	2023-01-09T00:00:00	2024-11-08T03:00:00	4	Temperatura máxima	13.2
127951	7	Sololá	701	Sololá	4	Finca Santa Victoria	9	Septiembre	2023-01-09T00:00:00	2024-11-08T03:00:00	3	Temperatura mínima	12.3
127952	7	Sololá	701	Sololá	4	Finca Santa Victoria	9	Septiembre	2023-01-09T00:00:00	2024-11-08T03:00:00	5	Humedad	88
127953	7	Sololá	701	Sololá	4	Finca Santa Victoria	9	Septiembre	2023-01-09T00:00:00	2024-11-08T03:00:00	6	Velocidad del viento	1.6
127954	7	Sololá	701	Sololá	4	Finca Santa Victoria	9	Septiembre	2023-01-09T00:00:00	2024-11-08T03:00:00	7	Dirección del viento	1.61
127955	7	Sololá	701	Sololá	4	Finca Santa Victoria	9	Septiembre	2023-01-09T00:00:00	2024-11-08T03:00:00	1	Precipitación	0
127956	7	Sololá	701	Sololá	4	Finca Santa Victoria	9	Septiembre	2023-01-09T00:00:00	2024-11-08T03:00:00	8	Radiación solar	0
127957	7	Sololá	701	Sololá	4	Finca Santa Victoria	9	Septiembre	2023-01-09T00:00:00	2024-11-08T04:00:00	2	Temperatura media	14.1
127958	7	Sololá	701	Sololá	4	Finca Santa Victoria	9	Septiembre	2023-01-09T00:00:00	2024-11-08T04:00:00	4	Temperatura máxima	14.1
127959	7	Sololá	701	Sololá	4	Finca Santa Victoria	9	Septiembre	2023-01-09T00:00:00	2024-11-08T04:00:00	3	Temperatura mínima	13.2
127960	7	Sololá	701	Sololá	4	Finca Santa Victoria	9	Septiembre	2023-01-09T00:00:00	2024-11-08T04:00:00	5	Humedad	85
127961	7	Sololá	701	Sololá	4	Finca Santa Victoria	9	Septiembre	2023-01-09T00:00:00	2024-11-08T04:00:00	6	Velocidad del viento	1.6
127962	7	Sololá	701	Sololá	4	Finca Santa Victoria	9	Septiembre	2023-01-09T00:00:00	2024-11-08T04:00:00	7	Dirección del viento	1.61
127963	7	Sololá	701	Sololá	4	Finca Santa Victoria	9	Septiembre	2023-01-09T00:00:00	2024-11-08T04:00:00	1	Precipitación	0
127964	7	Sololá	701	Sololá	4	Finca Santa Victoria	9	Septiembre	2023-01-09T00:00:00	2024-11-08T04:00:00	8	Radiación solar	0
127965	7	Sololá	701	Sololá	4	Finca Santa Victoria	9	Septiembre	2023-01-09T00:00:00	2024-11-08T05:00:00	2	Temperatura media	13.3
127966	7	Sololá	701	Sololá	4	Finca Santa Victoria	9	Septiembre	2023-01-09T00:00:00	2024-11-08T05:00:00	4	Temperatura máxima	14.1
127967	7	Sololá	701	Sololá	4	Finca Santa Victoria	9	Septiembre	2023-01-09T00:00:00	2024-11-08T05:00:00	3	Temperatura mínima	13.2
127968	7	Sololá	701	Sololá	4	Finca Santa Victoria	9	Septiembre	2023-01-09T00:00:00	2024-11-08T05:00:00	5	Humedad	87
127969	7	Sololá	701	Sololá	4	Finca Santa Victoria	9	Septiembre	2023-01-09T00:00:00	2024-11-08T05:00:00	6	Velocidad del viento	0
127970	7	Sololá	701	Sololá	4	Finca Santa Victoria	9	Septiembre	2023-01-09T00:00:00	2024-11-08T05:00:00	7	Dirección del viento	0
127971	7	Sololá	701	Sololá	4	Finca Santa Victoria	9	Septiembre	2023-01-09T00:00:00	2024-11-08T05:00:00	1	Precipitación	0
127972	7	Sololá	701	Sololá	4	Finca Santa Victoria	9	Septiembre	2023-01-09T00:00:00	2024-11-08T05:00:00	8	Radiación solar	0
127973	7	Sololá	701	Sololá	4	Finca Santa Victoria	9	Septiembre	2023-01-09T00:00:00	2024-11-08T06:00:00	2	Temperatura media	13.9
127974	7	Sololá	701	Sololá	4	Finca Santa Victoria	9	Septiembre	2023-01-09T00:00:00	2024-11-08T06:00:00	4	Temperatura máxima	13.9
127975	7	Sololá	701	Sololá	4	Finca Santa Victoria	9	Septiembre	2023-01-09T00:00:00	2024-11-08T06:00:00	3	Temperatura mínima	13.1
127976	7	Sololá	701	Sololá	4	Finca Santa Victoria	9	Septiembre	2023-01-09T00:00:00	2024-11-08T06:00:00	5	Humedad	83
127977	7	Sololá	701	Sololá	4	Finca Santa Victoria	9	Septiembre	2023-01-09T00:00:00	2024-11-08T06:00:00	6	Velocidad del viento	1.6
127978	7	Sololá	701	Sololá	4	Finca Santa Victoria	9	Septiembre	2023-01-09T00:00:00	2024-11-08T06:00:00	7	Dirección del viento	1.61
127979	7	Sololá	701	Sololá	4	Finca Santa Victoria	9	Septiembre	2023-01-09T00:00:00	2024-11-08T06:00:00	1	Precipitación	0
127980	7	Sololá	701	Sololá	4	Finca Santa Victoria	9	Septiembre	2023-01-09T00:00:00	2024-11-08T06:00:00	8	Radiación solar	0
127981	7	Sololá	701	Sololá	4	Finca Santa Victoria	9	Septiembre	2023-01-09T00:00:00	2024-11-08T07:00:00	2	Temperatura media	15.2
127982	7	Sololá	701	Sololá	4	Finca Santa Victoria	9	Septiembre	2023-01-09T00:00:00	2024-11-08T07:00:00	4	Temperatura máxima	15.2
127983	7	Sololá	701	Sololá	4	Finca Santa Victoria	9	Septiembre	2023-01-09T00:00:00	2024-11-08T07:00:00	3	Temperatura mínima	13.7
127984	7	Sololá	701	Sololá	4	Finca Santa Victoria	9	Septiembre	2023-01-09T00:00:00	2024-11-08T07:00:00	5	Humedad	76
127985	7	Sololá	701	Sololá	4	Finca Santa Victoria	9	Septiembre	2023-01-09T00:00:00	2024-11-08T07:00:00	6	Velocidad del viento	1.6
127986	7	Sololá	701	Sololá	4	Finca Santa Victoria	9	Septiembre	2023-01-09T00:00:00	2024-11-08T07:00:00	7	Dirección del viento	1.61
127987	7	Sololá	701	Sololá	4	Finca Santa Victoria	9	Septiembre	2023-01-09T00:00:00	2024-11-08T07:00:00	1	Precipitación	0
127988	7	Sololá	701	Sololá	4	Finca Santa Victoria	9	Septiembre	2023-01-09T00:00:00	2024-11-08T07:00:00	8	Radiación solar	22
127989	7	Sololá	701	Sololá	4	Finca Santa Victoria	9	Septiembre	2023-01-09T00:00:00	2024-11-08T08:00:00	2	Temperatura media	17.6
127990	7	Sololá	701	Sololá	4	Finca Santa Victoria	9	Septiembre	2023-01-09T00:00:00	2024-11-08T08:00:00	4	Temperatura máxima	17.6
127991	7	Sololá	701	Sololá	4	Finca Santa Victoria	9	Septiembre	2023-01-09T00:00:00	2024-11-08T08:00:00	3	Temperatura mínima	15.2
127992	7	Sololá	701	Sololá	4	Finca Santa Victoria	9	Septiembre	2023-01-09T00:00:00	2024-11-08T08:00:00	5	Humedad	68
127993	7	Sololá	701	Sololá	4	Finca Santa Victoria	9	Septiembre	2023-01-09T00:00:00	2024-11-08T08:00:00	6	Velocidad del viento	3.2
127994	7	Sololá	701	Sololá	4	Finca Santa Victoria	9	Septiembre	2023-01-09T00:00:00	2024-11-08T08:00:00	7	Dirección del viento	3.22
127995	7	Sololá	701	Sololá	4	Finca Santa Victoria	9	Septiembre	2023-01-09T00:00:00	2024-11-08T08:00:00	1	Precipitación	0
127996	7	Sololá	701	Sololá	4	Finca Santa Victoria	9	Septiembre	2023-01-09T00:00:00	2024-11-08T08:00:00	8	Radiación solar	246
127997	7	Sololá	701	Sololá	4	Finca Santa Victoria	9	Septiembre	2023-01-09T00:00:00	2024-11-08T09:00:00	2	Temperatura media	19.6
127998	7	Sololá	701	Sololá	4	Finca Santa Victoria	9	Septiembre	2023-01-09T00:00:00	2024-11-08T09:00:00	4	Temperatura máxima	19.6
127999	7	Sololá	701	Sololá	4	Finca Santa Victoria	9	Septiembre	2023-01-09T00:00:00	2024-11-08T09:00:00	3	Temperatura mínima	17.6
128000	7	Sololá	701	Sololá	4	Finca Santa Victoria	9	Septiembre	2023-01-09T00:00:00	2024-11-08T09:00:00	5	Humedad	67
128001	7	Sololá	701	Sololá	4	Finca Santa Victoria	9	Septiembre	2023-01-09T00:00:00	2024-11-08T09:00:00	6	Velocidad del viento	3.2
128002	7	Sololá	701	Sololá	4	Finca Santa Victoria	9	Septiembre	2023-01-09T00:00:00	2024-11-08T09:00:00	7	Dirección del viento	3.22
128003	7	Sololá	701	Sololá	4	Finca Santa Victoria	9	Septiembre	2023-01-09T00:00:00	2024-11-08T09:00:00	1	Precipitación	0
128004	7	Sololá	701	Sololá	4	Finca Santa Victoria	9	Septiembre	2023-01-09T00:00:00	2024-11-08T09:00:00	8	Radiación solar	400
128005	7	Sololá	701	Sololá	4	Finca Santa Victoria	9	Septiembre	2023-01-09T00:00:00	2024-11-08T10:00:00	2	Temperatura media	21
128006	7	Sololá	701	Sololá	4	Finca Santa Victoria	9	Septiembre	2023-01-09T00:00:00	2024-11-08T10:00:00	4	Temperatura máxima	21
128007	7	Sololá	701	Sololá	4	Finca Santa Victoria	9	Septiembre	2023-01-09T00:00:00	2024-11-08T10:00:00	3	Temperatura mínima	19.5
128008	7	Sololá	701	Sololá	4	Finca Santa Victoria	9	Septiembre	2023-01-09T00:00:00	2024-11-08T10:00:00	5	Humedad	63
128009	7	Sololá	701	Sololá	4	Finca Santa Victoria	9	Septiembre	2023-01-09T00:00:00	2024-11-08T10:00:00	6	Velocidad del viento	3.2
128010	7	Sololá	701	Sololá	4	Finca Santa Victoria	9	Septiembre	2023-01-09T00:00:00	2024-11-08T10:00:00	7	Dirección del viento	3.22
128011	7	Sololá	701	Sololá	4	Finca Santa Victoria	9	Septiembre	2023-01-09T00:00:00	2024-11-08T10:00:00	1	Precipitación	0
128012	7	Sololá	701	Sololá	4	Finca Santa Victoria	9	Septiembre	2023-01-09T00:00:00	2024-11-08T10:00:00	8	Radiación solar	121
128013	7	Sololá	701	Sololá	4	Finca Santa Victoria	9	Septiembre	2023-01-09T00:00:00	2024-11-08T11:00:00	2	Temperatura media	22.6
128014	7	Sololá	701	Sololá	4	Finca Santa Victoria	9	Septiembre	2023-01-09T00:00:00	2024-11-08T11:00:00	4	Temperatura máxima	22.6
128015	7	Sololá	701	Sololá	4	Finca Santa Victoria	9	Septiembre	2023-01-09T00:00:00	2024-11-08T11:00:00	3	Temperatura mínima	21
128016	7	Sololá	701	Sololá	4	Finca Santa Victoria	9	Septiembre	2023-01-09T00:00:00	2024-11-08T11:00:00	5	Humedad	59
128017	7	Sololá	701	Sololá	4	Finca Santa Victoria	9	Septiembre	2023-01-09T00:00:00	2024-11-08T11:00:00	6	Velocidad del viento	3.2
128018	7	Sololá	701	Sololá	4	Finca Santa Victoria	9	Septiembre	2023-01-09T00:00:00	2024-11-08T11:00:00	7	Dirección del viento	3.22
128019	7	Sololá	701	Sololá	4	Finca Santa Victoria	9	Septiembre	2023-01-09T00:00:00	2024-11-08T11:00:00	1	Precipitación	0
128020	7	Sololá	701	Sololá	4	Finca Santa Victoria	9	Septiembre	2023-01-09T00:00:00	2024-11-08T11:00:00	8	Radiación solar	971
128021	7	Sololá	701	Sololá	4	Finca Santa Victoria	9	Septiembre	2023-01-09T00:00:00	2024-11-08T12:00:00	2	Temperatura media	22.8
128022	7	Sololá	701	Sololá	4	Finca Santa Victoria	9	Septiembre	2023-01-09T00:00:00	2024-11-08T12:00:00	4	Temperatura máxima	22.8
128023	7	Sololá	701	Sololá	4	Finca Santa Victoria	9	Septiembre	2023-01-09T00:00:00	2024-11-08T12:00:00	3	Temperatura mínima	22.4
128024	7	Sololá	701	Sololá	4	Finca Santa Victoria	9	Septiembre	2023-01-09T00:00:00	2024-11-08T12:00:00	5	Humedad	58
128025	7	Sololá	701	Sololá	4	Finca Santa Victoria	9	Septiembre	2023-01-09T00:00:00	2024-11-08T12:00:00	6	Velocidad del viento	3.2
128026	7	Sololá	701	Sololá	4	Finca Santa Victoria	9	Septiembre	2023-01-09T00:00:00	2024-11-08T12:00:00	7	Dirección del viento	3.22
128027	7	Sololá	701	Sololá	4	Finca Santa Victoria	9	Septiembre	2023-01-09T00:00:00	2024-11-08T12:00:00	1	Precipitación	0
128028	7	Sololá	701	Sololá	4	Finca Santa Victoria	9	Septiembre	2023-01-09T00:00:00	2024-11-08T12:00:00	8	Radiación solar	1050
128029	7	Sololá	701	Sololá	4	Finca Santa Victoria	9	Septiembre	2023-01-09T00:00:00	2024-11-08T13:00:00	2	Temperatura media	23.4
128030	7	Sololá	701	Sololá	4	Finca Santa Victoria	9	Septiembre	2023-01-09T00:00:00	2024-11-08T13:00:00	4	Temperatura máxima	23.4
128031	7	Sololá	701	Sololá	4	Finca Santa Victoria	9	Septiembre	2023-01-09T00:00:00	2024-11-08T13:00:00	3	Temperatura mínima	22.7
128032	7	Sololá	701	Sololá	4	Finca Santa Victoria	9	Septiembre	2023-01-09T00:00:00	2024-11-08T13:00:00	5	Humedad	64
128033	7	Sololá	701	Sololá	4	Finca Santa Victoria	9	Septiembre	2023-01-09T00:00:00	2024-11-08T13:00:00	6	Velocidad del viento	3.2
128034	7	Sololá	701	Sololá	4	Finca Santa Victoria	9	Septiembre	2023-01-09T00:00:00	2024-11-08T13:00:00	7	Dirección del viento	3.22
128035	7	Sololá	701	Sololá	4	Finca Santa Victoria	9	Septiembre	2023-01-09T00:00:00	2024-11-08T13:00:00	1	Precipitación	0
128036	7	Sololá	701	Sololá	4	Finca Santa Victoria	9	Septiembre	2023-01-09T00:00:00	2024-11-08T13:00:00	8	Radiación solar	317
128037	7	Sololá	701	Sololá	4	Finca Santa Victoria	9	Septiembre	2023-01-09T00:00:00	2024-11-08T14:00:00	2	Temperatura media	21.6
128038	7	Sololá	701	Sololá	4	Finca Santa Victoria	9	Septiembre	2023-01-09T00:00:00	2024-11-08T14:00:00	4	Temperatura máxima	23.4
128039	7	Sololá	701	Sololá	4	Finca Santa Victoria	9	Septiembre	2023-01-09T00:00:00	2024-11-08T14:00:00	3	Temperatura mínima	21.6
128040	7	Sololá	701	Sololá	4	Finca Santa Victoria	9	Septiembre	2023-01-09T00:00:00	2024-11-08T14:00:00	5	Humedad	77
128041	7	Sololá	701	Sololá	4	Finca Santa Victoria	9	Septiembre	2023-01-09T00:00:00	2024-11-08T14:00:00	6	Velocidad del viento	3.2
128042	7	Sololá	701	Sololá	4	Finca Santa Victoria	9	Septiembre	2023-01-09T00:00:00	2024-11-08T14:00:00	7	Dirección del viento	3.22
128043	7	Sololá	701	Sololá	4	Finca Santa Victoria	9	Septiembre	2023-01-09T00:00:00	2024-11-08T14:00:00	1	Precipitación	0
128044	7	Sololá	701	Sololá	4	Finca Santa Victoria	9	Septiembre	2023-01-09T00:00:00	2024-11-08T14:00:00	8	Radiación solar	140
128045	7	Sololá	701	Sololá	4	Finca Santa Victoria	9	Septiembre	2023-01-09T00:00:00	2024-11-08T15:00:00	2	Temperatura media	19.9
128046	7	Sololá	701	Sololá	4	Finca Santa Victoria	9	Septiembre	2023-01-09T00:00:00	2024-11-08T15:00:00	4	Temperatura máxima	21.6
128047	7	Sololá	701	Sololá	4	Finca Santa Victoria	9	Septiembre	2023-01-09T00:00:00	2024-11-08T15:00:00	3	Temperatura mínima	19.9
128048	7	Sololá	701	Sololá	4	Finca Santa Victoria	9	Septiembre	2023-01-09T00:00:00	2024-11-08T15:00:00	5	Humedad	86
128049	7	Sololá	701	Sololá	4	Finca Santa Victoria	9	Septiembre	2023-01-09T00:00:00	2024-11-08T15:00:00	6	Velocidad del viento	3.2
128050	7	Sololá	701	Sololá	4	Finca Santa Victoria	9	Septiembre	2023-01-09T00:00:00	2024-11-08T15:00:00	7	Dirección del viento	3.22
128051	7	Sololá	701	Sololá	4	Finca Santa Victoria	9	Septiembre	2023-01-09T00:00:00	2024-11-08T15:00:00	1	Precipitación	0
128052	7	Sololá	701	Sololá	4	Finca Santa Victoria	9	Septiembre	2023-01-09T00:00:00	2024-11-08T15:00:00	8	Radiación solar	132
128053	7	Sololá	701	Sololá	4	Finca Santa Victoria	9	Septiembre	2023-01-09T00:00:00	2024-11-08T16:00:00	2	Temperatura media	19.5
128054	7	Sololá	701	Sololá	4	Finca Santa Victoria	9	Septiembre	2023-01-09T00:00:00	2024-11-08T16:00:00	4	Temperatura máxima	21.3
128055	7	Sololá	701	Sololá	4	Finca Santa Victoria	9	Septiembre	2023-01-09T00:00:00	2024-11-08T16:00:00	3	Temperatura mínima	19.5
128056	7	Sololá	701	Sololá	4	Finca Santa Victoria	9	Septiembre	2023-01-09T00:00:00	2024-11-08T16:00:00	5	Humedad	88
128057	7	Sololá	701	Sololá	4	Finca Santa Victoria	9	Septiembre	2023-01-09T00:00:00	2024-11-08T16:00:00	6	Velocidad del viento	3.2
128058	7	Sololá	701	Sololá	4	Finca Santa Victoria	9	Septiembre	2023-01-09T00:00:00	2024-11-08T16:00:00	7	Dirección del viento	3.22
128059	7	Sololá	701	Sololá	4	Finca Santa Victoria	9	Septiembre	2023-01-09T00:00:00	2024-11-08T16:00:00	1	Precipitación	0
128060	7	Sololá	701	Sololá	4	Finca Santa Victoria	9	Septiembre	2023-01-09T00:00:00	2024-11-08T16:00:00	8	Radiación solar	128
128061	7	Sololá	701	Sololá	4	Finca Santa Victoria	9	Septiembre	2023-01-09T00:00:00	2024-11-08T17:00:00	2	Temperatura media	18.7
128062	7	Sololá	701	Sololá	4	Finca Santa Victoria	9	Septiembre	2023-01-09T00:00:00	2024-11-08T17:00:00	4	Temperatura máxima	19.6
128063	7	Sololá	701	Sololá	4	Finca Santa Victoria	9	Septiembre	2023-01-09T00:00:00	2024-11-08T17:00:00	3	Temperatura mínima	18.3
128064	7	Sololá	701	Sololá	4	Finca Santa Victoria	9	Septiembre	2023-01-09T00:00:00	2024-11-08T17:00:00	5	Humedad	91
128065	7	Sololá	701	Sololá	4	Finca Santa Victoria	9	Septiembre	2023-01-09T00:00:00	2024-11-08T17:00:00	6	Velocidad del viento	3.2
128066	7	Sololá	701	Sololá	4	Finca Santa Victoria	9	Septiembre	2023-01-09T00:00:00	2024-11-08T17:00:00	7	Dirección del viento	3.22
128067	7	Sololá	701	Sololá	4	Finca Santa Victoria	9	Septiembre	2023-01-09T00:00:00	2024-11-08T17:00:00	1	Precipitación	0
128068	7	Sololá	701	Sololá	4	Finca Santa Victoria	9	Septiembre	2023-01-09T00:00:00	2024-11-08T17:00:00	8	Radiación solar	82
128069	7	Sololá	701	Sololá	4	Finca Santa Victoria	9	Septiembre	2023-01-09T00:00:00	2024-11-08T18:00:00	2	Temperatura media	17.1
128070	7	Sololá	701	Sololá	4	Finca Santa Victoria	9	Septiembre	2023-01-09T00:00:00	2024-11-08T18:00:00	4	Temperatura máxima	18.7
128071	7	Sololá	701	Sololá	4	Finca Santa Victoria	9	Septiembre	2023-01-09T00:00:00	2024-11-08T18:00:00	3	Temperatura mínima	17
128072	7	Sololá	701	Sololá	4	Finca Santa Victoria	9	Septiembre	2023-01-09T00:00:00	2024-11-08T18:00:00	5	Humedad	88
128073	7	Sololá	701	Sololá	4	Finca Santa Victoria	9	Septiembre	2023-01-09T00:00:00	2024-11-08T18:00:00	6	Velocidad del viento	1.6
128074	7	Sololá	701	Sololá	4	Finca Santa Victoria	9	Septiembre	2023-01-09T00:00:00	2024-11-08T18:00:00	7	Dirección del viento	1.61
128075	7	Sololá	701	Sololá	4	Finca Santa Victoria	9	Septiembre	2023-01-09T00:00:00	2024-11-08T18:00:00	1	Precipitación	0
128076	7	Sololá	701	Sololá	4	Finca Santa Victoria	9	Septiembre	2023-01-09T00:00:00	2024-11-08T18:00:00	8	Radiación solar	20
128077	7	Sololá	701	Sololá	4	Finca Santa Victoria	9	Septiembre	2023-01-09T00:00:00	2024-11-08T19:00:00	2	Temperatura media	16.4
128078	7	Sololá	701	Sololá	4	Finca Santa Victoria	9	Septiembre	2023-01-09T00:00:00	2024-11-08T19:00:00	4	Temperatura máxima	17.2
128079	7	Sololá	701	Sololá	4	Finca Santa Victoria	9	Septiembre	2023-01-09T00:00:00	2024-11-08T19:00:00	3	Temperatura mínima	16.4
128080	7	Sololá	701	Sololá	4	Finca Santa Victoria	9	Septiembre	2023-01-09T00:00:00	2024-11-08T19:00:00	5	Humedad	93
128081	7	Sololá	701	Sololá	4	Finca Santa Victoria	9	Septiembre	2023-01-09T00:00:00	2024-11-08T19:00:00	6	Velocidad del viento	1.6
128082	7	Sololá	701	Sololá	4	Finca Santa Victoria	9	Septiembre	2023-01-09T00:00:00	2024-11-08T19:00:00	7	Dirección del viento	1.61
128083	7	Sololá	701	Sololá	4	Finca Santa Victoria	9	Septiembre	2023-01-09T00:00:00	2024-11-08T19:00:00	1	Precipitación	0
128084	7	Sololá	701	Sololá	4	Finca Santa Victoria	9	Septiembre	2023-01-09T00:00:00	2024-11-08T19:00:00	8	Radiación solar	0
128085	7	Sololá	701	Sololá	4	Finca Santa Victoria	9	Septiembre	2023-01-09T00:00:00	2024-11-08T20:00:00	2	Temperatura media	15.4
128086	7	Sololá	701	Sololá	4	Finca Santa Victoria	9	Septiembre	2023-01-09T00:00:00	2024-11-08T20:00:00	4	Temperatura máxima	16.6
128087	7	Sololá	701	Sololá	4	Finca Santa Victoria	9	Septiembre	2023-01-09T00:00:00	2024-11-08T20:00:00	3	Temperatura mínima	15.4
128088	7	Sololá	701	Sololá	4	Finca Santa Victoria	9	Septiembre	2023-01-09T00:00:00	2024-11-08T20:00:00	5	Humedad	91
128089	7	Sololá	701	Sololá	4	Finca Santa Victoria	9	Septiembre	2023-01-09T00:00:00	2024-11-08T20:00:00	6	Velocidad del viento	3.2
128090	7	Sololá	701	Sololá	4	Finca Santa Victoria	9	Septiembre	2023-01-09T00:00:00	2024-11-08T20:00:00	7	Dirección del viento	3.22
128091	7	Sololá	701	Sololá	4	Finca Santa Victoria	9	Septiembre	2023-01-09T00:00:00	2024-11-08T20:00:00	1	Precipitación	3.8
128092	7	Sololá	701	Sololá	4	Finca Santa Victoria	9	Septiembre	2023-01-09T00:00:00	2024-11-08T20:00:00	8	Radiación solar	0
128093	7	Sololá	701	Sololá	4	Finca Santa Victoria	9	Septiembre	2023-01-09T00:00:00	2024-11-08T21:00:00	2	Temperatura media	14.4
128094	7	Sololá	701	Sololá	4	Finca Santa Victoria	9	Septiembre	2023-01-09T00:00:00	2024-11-08T21:00:00	4	Temperatura máxima	15.4
128095	7	Sololá	701	Sololá	4	Finca Santa Victoria	9	Septiembre	2023-01-09T00:00:00	2024-11-08T21:00:00	3	Temperatura mínima	14.4
128096	7	Sololá	701	Sololá	4	Finca Santa Victoria	9	Septiembre	2023-01-09T00:00:00	2024-11-08T21:00:00	5	Humedad	94
128097	7	Sololá	701	Sololá	4	Finca Santa Victoria	9	Septiembre	2023-01-09T00:00:00	2024-11-08T21:00:00	6	Velocidad del viento	1.6
128098	7	Sololá	701	Sololá	4	Finca Santa Victoria	9	Septiembre	2023-01-09T00:00:00	2024-11-08T21:00:00	7	Dirección del viento	1.61
128099	7	Sololá	701	Sololá	4	Finca Santa Victoria	9	Septiembre	2023-01-09T00:00:00	2024-11-08T21:00:00	1	Precipitación	3.8
128100	7	Sololá	701	Sololá	4	Finca Santa Victoria	9	Septiembre	2023-01-09T00:00:00	2024-11-08T21:00:00	8	Radiación solar	0
128101	7	Sololá	701	Sololá	4	Finca Santa Victoria	9	Septiembre	2023-01-09T00:00:00	2024-11-08T22:00:00	2	Temperatura media	14.4
128102	7	Sololá	701	Sololá	4	Finca Santa Victoria	9	Septiembre	2023-01-09T00:00:00	2024-11-08T22:00:00	4	Temperatura máxima	14.6
128103	7	Sololá	701	Sololá	4	Finca Santa Victoria	9	Septiembre	2023-01-09T00:00:00	2024-11-08T22:00:00	3	Temperatura mínima	14.3
128104	7	Sololá	701	Sololá	4	Finca Santa Victoria	9	Septiembre	2023-01-09T00:00:00	2024-11-08T22:00:00	5	Humedad	91
128105	7	Sololá	701	Sololá	4	Finca Santa Victoria	9	Septiembre	2023-01-09T00:00:00	2024-11-08T22:00:00	6	Velocidad del viento	1.6
128106	7	Sololá	701	Sololá	4	Finca Santa Victoria	9	Septiembre	2023-01-09T00:00:00	2024-11-08T22:00:00	7	Dirección del viento	1.61
128107	7	Sololá	701	Sololá	4	Finca Santa Victoria	9	Septiembre	2023-01-09T00:00:00	2024-11-08T22:00:00	1	Precipitación	0
128108	7	Sololá	701	Sololá	4	Finca Santa Victoria	9	Septiembre	2023-01-09T00:00:00	2024-11-08T22:00:00	8	Radiación solar	0
128109	7	Sololá	701	Sololá	4	Finca Santa Victoria	9	Septiembre	2023-01-09T00:00:00	2024-11-08T23:00:00	2	Temperatura media	14.8
128110	7	Sololá	701	Sololá	4	Finca Santa Victoria	9	Septiembre	2023-01-09T00:00:00	2024-11-08T23:00:00	4	Temperatura máxima	14.8
128111	7	Sololá	701	Sololá	4	Finca Santa Victoria	9	Septiembre	2023-01-09T00:00:00	2024-11-08T23:00:00	3	Temperatura mínima	14.4
128112	7	Sololá	701	Sololá	4	Finca Santa Victoria	9	Septiembre	2023-01-09T00:00:00	2024-11-08T23:00:00	5	Humedad	89
128113	7	Sololá	701	Sololá	4	Finca Santa Victoria	9	Septiembre	2023-01-09T00:00:00	2024-11-08T23:00:00	6	Velocidad del viento	4.8
128114	7	Sololá	701	Sololá	4	Finca Santa Victoria	9	Septiembre	2023-01-09T00:00:00	2024-11-08T23:00:00	7	Dirección del viento	4.83
128115	7	Sololá	701	Sololá	4	Finca Santa Victoria	9	Septiembre	2023-01-09T00:00:00	2024-11-08T23:00:00	1	Precipitación	0
128116	7	Sololá	701	Sololá	4	Finca Santa Victoria	9	Septiembre	2023-01-09T00:00:00	2024-11-08T23:00:00	8	Radiación solar	0
128117	7	Sololá	701	Sololá	4	Finca Santa Victoria	9	Septiembre	2023-02-09T00:00:00	2024-11-08T00:00:00	2	Temperatura media	14.5
128118	7	Sololá	701	Sololá	4	Finca Santa Victoria	9	Septiembre	2023-02-09T00:00:00	2024-11-08T00:00:00	4	Temperatura máxima	14.9
128119	7	Sololá	701	Sololá	4	Finca Santa Victoria	9	Septiembre	2023-02-09T00:00:00	2024-11-08T00:00:00	3	Temperatura mínima	14.5
128120	7	Sololá	701	Sololá	4	Finca Santa Victoria	9	Septiembre	2023-02-09T00:00:00	2024-11-08T00:00:00	5	Humedad	90
128121	7	Sololá	701	Sololá	4	Finca Santa Victoria	9	Septiembre	2023-02-09T00:00:00	2024-11-08T00:00:00	6	Velocidad del viento	3.2
128122	7	Sololá	701	Sololá	4	Finca Santa Victoria	9	Septiembre	2023-02-09T00:00:00	2024-11-08T00:00:00	7	Dirección del viento	3.22
128123	7	Sololá	701	Sololá	4	Finca Santa Victoria	9	Septiembre	2023-02-09T00:00:00	2024-11-08T00:00:00	1	Precipitación	0
128124	7	Sololá	701	Sololá	4	Finca Santa Victoria	9	Septiembre	2023-02-09T00:00:00	2024-11-08T00:00:00	8	Radiación solar	0
128125	7	Sololá	701	Sololá	4	Finca Santa Victoria	9	Septiembre	2023-02-09T00:00:00	2024-11-08T01:00:00	2	Temperatura media	14.4
128126	7	Sololá	701	Sololá	4	Finca Santa Victoria	9	Septiembre	2023-02-09T00:00:00	2024-11-08T01:00:00	4	Temperatura máxima	14.6
128127	7	Sololá	701	Sololá	4	Finca Santa Victoria	9	Septiembre	2023-02-09T00:00:00	2024-11-08T01:00:00	3	Temperatura mínima	14.2
128128	7	Sololá	701	Sololá	4	Finca Santa Victoria	9	Septiembre	2023-02-09T00:00:00	2024-11-08T01:00:00	5	Humedad	89
128129	7	Sololá	701	Sololá	4	Finca Santa Victoria	9	Septiembre	2023-02-09T00:00:00	2024-11-08T01:00:00	6	Velocidad del viento	3.2
128130	7	Sololá	701	Sololá	4	Finca Santa Victoria	9	Septiembre	2023-02-09T00:00:00	2024-11-08T01:00:00	7	Dirección del viento	3.22
128131	7	Sololá	701	Sololá	4	Finca Santa Victoria	9	Septiembre	2023-02-09T00:00:00	2024-11-08T01:00:00	1	Precipitación	0
128132	7	Sololá	701	Sololá	4	Finca Santa Victoria	9	Septiembre	2023-02-09T00:00:00	2024-11-08T01:00:00	8	Radiación solar	0
128133	7	Sololá	701	Sololá	4	Finca Santa Victoria	9	Septiembre	2023-02-09T00:00:00	2024-11-08T02:00:00	2	Temperatura media	14.4
128134	7	Sololá	701	Sololá	4	Finca Santa Victoria	9	Septiembre	2023-02-09T00:00:00	2024-11-08T02:00:00	4	Temperatura máxima	14.5
128135	7	Sololá	701	Sololá	4	Finca Santa Victoria	9	Septiembre	2023-02-09T00:00:00	2024-11-08T02:00:00	3	Temperatura mínima	14.4
128136	7	Sololá	701	Sololá	4	Finca Santa Victoria	9	Septiembre	2023-02-09T00:00:00	2024-11-08T02:00:00	5	Humedad	88
128137	7	Sololá	701	Sololá	4	Finca Santa Victoria	9	Septiembre	2023-02-09T00:00:00	2024-11-08T02:00:00	6	Velocidad del viento	3.2
128138	7	Sololá	701	Sololá	4	Finca Santa Victoria	9	Septiembre	2023-02-09T00:00:00	2024-11-08T02:00:00	7	Dirección del viento	3.22
128139	7	Sololá	701	Sololá	4	Finca Santa Victoria	9	Septiembre	2023-02-09T00:00:00	2024-11-08T02:00:00	1	Precipitación	0
128140	7	Sololá	701	Sololá	4	Finca Santa Victoria	9	Septiembre	2023-02-09T00:00:00	2024-11-08T02:00:00	8	Radiación solar	0
128141	7	Sololá	701	Sololá	4	Finca Santa Victoria	9	Septiembre	2023-02-09T00:00:00	2024-11-08T03:00:00	2	Temperatura media	14.4
128142	7	Sololá	701	Sololá	4	Finca Santa Victoria	9	Septiembre	2023-02-09T00:00:00	2024-11-08T03:00:00	4	Temperatura máxima	14.4
128143	7	Sololá	701	Sololá	4	Finca Santa Victoria	9	Septiembre	2023-02-09T00:00:00	2024-11-08T03:00:00	3	Temperatura mínima	14.2
128144	7	Sololá	701	Sololá	4	Finca Santa Victoria	9	Septiembre	2023-02-09T00:00:00	2024-11-08T03:00:00	5	Humedad	84
128145	7	Sololá	701	Sololá	4	Finca Santa Victoria	9	Septiembre	2023-02-09T00:00:00	2024-11-08T03:00:00	6	Velocidad del viento	3.2
128146	7	Sololá	701	Sololá	4	Finca Santa Victoria	9	Septiembre	2023-02-09T00:00:00	2024-11-08T03:00:00	7	Dirección del viento	3.22
128147	7	Sololá	701	Sololá	4	Finca Santa Victoria	9	Septiembre	2023-02-09T00:00:00	2024-11-08T03:00:00	1	Precipitación	0
128148	7	Sololá	701	Sololá	4	Finca Santa Victoria	9	Septiembre	2023-02-09T00:00:00	2024-11-08T03:00:00	8	Radiación solar	0
128149	7	Sololá	701	Sololá	4	Finca Santa Victoria	9	Septiembre	2023-02-09T00:00:00	2024-11-08T04:00:00	2	Temperatura media	14.3
128150	7	Sololá	701	Sololá	4	Finca Santa Victoria	9	Septiembre	2023-02-09T00:00:00	2024-11-08T04:00:00	4	Temperatura máxima	14.6
128151	7	Sololá	701	Sololá	4	Finca Santa Victoria	9	Septiembre	2023-02-09T00:00:00	2024-11-08T04:00:00	3	Temperatura mínima	14.3
128152	7	Sololá	701	Sololá	4	Finca Santa Victoria	9	Septiembre	2023-02-09T00:00:00	2024-11-08T04:00:00	5	Humedad	86
128153	7	Sololá	701	Sololá	4	Finca Santa Victoria	9	Septiembre	2023-02-09T00:00:00	2024-11-08T04:00:00	6	Velocidad del viento	3.2
128154	7	Sololá	701	Sololá	4	Finca Santa Victoria	9	Septiembre	2023-02-09T00:00:00	2024-11-08T04:00:00	7	Dirección del viento	3.22
128155	7	Sololá	701	Sololá	4	Finca Santa Victoria	9	Septiembre	2023-02-09T00:00:00	2024-11-08T04:00:00	1	Precipitación	0
128156	7	Sololá	701	Sololá	4	Finca Santa Victoria	9	Septiembre	2023-02-09T00:00:00	2024-11-08T04:00:00	8	Radiación solar	0
128157	7	Sololá	701	Sololá	4	Finca Santa Victoria	9	Septiembre	2023-02-09T00:00:00	2024-11-08T05:00:00	2	Temperatura media	13.5
128158	7	Sololá	701	Sololá	4	Finca Santa Victoria	9	Septiembre	2023-02-09T00:00:00	2024-11-08T05:00:00	4	Temperatura máxima	14.3
128159	7	Sololá	701	Sololá	4	Finca Santa Victoria	9	Septiembre	2023-02-09T00:00:00	2024-11-08T05:00:00	3	Temperatura mínima	13.4
128160	7	Sololá	701	Sololá	4	Finca Santa Victoria	9	Septiembre	2023-02-09T00:00:00	2024-11-08T05:00:00	5	Humedad	88
128161	7	Sololá	701	Sololá	4	Finca Santa Victoria	9	Septiembre	2023-02-09T00:00:00	2024-11-08T05:00:00	6	Velocidad del viento	1.6
128162	7	Sololá	701	Sololá	4	Finca Santa Victoria	9	Septiembre	2023-02-09T00:00:00	2024-11-08T05:00:00	7	Dirección del viento	1.61
128163	7	Sololá	701	Sololá	4	Finca Santa Victoria	9	Septiembre	2023-02-09T00:00:00	2024-11-08T05:00:00	1	Precipitación	0
128164	7	Sololá	701	Sololá	4	Finca Santa Victoria	9	Septiembre	2023-02-09T00:00:00	2024-11-08T05:00:00	8	Radiación solar	0
128165	7	Sololá	701	Sololá	4	Finca Santa Victoria	9	Septiembre	2023-02-09T00:00:00	2024-11-08T06:00:00	2	Temperatura media	12.8
128166	7	Sololá	701	Sololá	4	Finca Santa Victoria	9	Septiembre	2023-02-09T00:00:00	2024-11-08T06:00:00	4	Temperatura máxima	13.5
128167	7	Sololá	701	Sololá	4	Finca Santa Victoria	9	Septiembre	2023-02-09T00:00:00	2024-11-08T06:00:00	3	Temperatura mínima	12.8
128168	7	Sololá	701	Sololá	4	Finca Santa Victoria	9	Septiembre	2023-02-09T00:00:00	2024-11-08T06:00:00	5	Humedad	90
128169	7	Sololá	701	Sololá	4	Finca Santa Victoria	9	Septiembre	2023-02-09T00:00:00	2024-11-08T06:00:00	6	Velocidad del viento	1.6
128170	7	Sololá	701	Sololá	4	Finca Santa Victoria	9	Septiembre	2023-02-09T00:00:00	2024-11-08T06:00:00	7	Dirección del viento	1.61
128171	7	Sololá	701	Sololá	4	Finca Santa Victoria	9	Septiembre	2023-02-09T00:00:00	2024-11-08T06:00:00	1	Precipitación	0
128172	7	Sololá	701	Sololá	4	Finca Santa Victoria	9	Septiembre	2023-02-09T00:00:00	2024-11-08T06:00:00	8	Radiación solar	1
128173	7	Sololá	701	Sololá	4	Finca Santa Victoria	9	Septiembre	2023-02-09T00:00:00	2024-11-08T07:00:00	2	Temperatura media	13.6
128174	7	Sololá	701	Sololá	4	Finca Santa Victoria	9	Septiembre	2023-02-09T00:00:00	2024-11-08T07:00:00	4	Temperatura máxima	13.6
128175	7	Sololá	701	Sololá	4	Finca Santa Victoria	9	Septiembre	2023-02-09T00:00:00	2024-11-08T07:00:00	3	Temperatura mínima	12.5
128176	7	Sololá	701	Sololá	4	Finca Santa Victoria	9	Septiembre	2023-02-09T00:00:00	2024-11-08T07:00:00	5	Humedad	90
128177	7	Sololá	701	Sololá	4	Finca Santa Victoria	9	Septiembre	2023-02-09T00:00:00	2024-11-08T07:00:00	6	Velocidad del viento	1.6
128178	7	Sololá	701	Sololá	4	Finca Santa Victoria	9	Septiembre	2023-02-09T00:00:00	2024-11-08T07:00:00	7	Dirección del viento	1.61
128179	7	Sololá	701	Sololá	4	Finca Santa Victoria	9	Septiembre	2023-02-09T00:00:00	2024-11-08T07:00:00	1	Precipitación	0
128180	7	Sololá	701	Sololá	4	Finca Santa Victoria	9	Septiembre	2023-02-09T00:00:00	2024-11-08T07:00:00	8	Radiación solar	30
128181	7	Sololá	701	Sololá	4	Finca Santa Victoria	9	Septiembre	2023-02-09T00:00:00	2024-11-08T08:00:00	2	Temperatura media	16.3
128182	7	Sololá	701	Sololá	4	Finca Santa Victoria	9	Septiembre	2023-02-09T00:00:00	2024-11-08T08:00:00	4	Temperatura máxima	16.3
128183	7	Sololá	701	Sololá	4	Finca Santa Victoria	9	Septiembre	2023-02-09T00:00:00	2024-11-08T08:00:00	3	Temperatura mínima	13.6
128184	7	Sololá	701	Sololá	4	Finca Santa Victoria	9	Septiembre	2023-02-09T00:00:00	2024-11-08T08:00:00	5	Humedad	83
128185	7	Sololá	701	Sololá	4	Finca Santa Victoria	9	Septiembre	2023-02-09T00:00:00	2024-11-08T08:00:00	6	Velocidad del viento	1.6
128186	7	Sololá	701	Sololá	4	Finca Santa Victoria	9	Septiembre	2023-02-09T00:00:00	2024-11-08T08:00:00	7	Dirección del viento	1.61
128187	7	Sololá	701	Sololá	4	Finca Santa Victoria	9	Septiembre	2023-02-09T00:00:00	2024-11-08T08:00:00	1	Precipitación	0
128188	7	Sololá	701	Sololá	4	Finca Santa Victoria	9	Septiembre	2023-02-09T00:00:00	2024-11-08T08:00:00	8	Radiación solar	234
128189	7	Sololá	701	Sololá	4	Finca Santa Victoria	9	Septiembre	2023-02-09T00:00:00	2024-11-08T09:00:00	2	Temperatura media	18.6
128190	7	Sololá	701	Sololá	4	Finca Santa Victoria	9	Septiembre	2023-02-09T00:00:00	2024-11-08T09:00:00	4	Temperatura máxima	18.8
128191	7	Sololá	701	Sololá	4	Finca Santa Victoria	9	Septiembre	2023-02-09T00:00:00	2024-11-08T09:00:00	3	Temperatura mínima	16.2
128192	7	Sololá	701	Sololá	4	Finca Santa Victoria	9	Septiembre	2023-02-09T00:00:00	2024-11-08T09:00:00	5	Humedad	74
128193	7	Sololá	701	Sololá	4	Finca Santa Victoria	9	Septiembre	2023-02-09T00:00:00	2024-11-08T09:00:00	6	Velocidad del viento	1.6
128194	7	Sololá	701	Sololá	4	Finca Santa Victoria	9	Septiembre	2023-02-09T00:00:00	2024-11-08T09:00:00	7	Dirección del viento	1.61
128195	7	Sololá	701	Sololá	4	Finca Santa Victoria	9	Septiembre	2023-02-09T00:00:00	2024-11-08T09:00:00	1	Precipitación	0
128196	7	Sololá	701	Sololá	4	Finca Santa Victoria	9	Septiembre	2023-02-09T00:00:00	2024-11-08T09:00:00	8	Radiación solar	368
128197	7	Sololá	701	Sololá	4	Finca Santa Victoria	9	Septiembre	2023-02-09T00:00:00	2024-11-08T10:00:00	2	Temperatura media	20.3
128198	7	Sololá	701	Sololá	4	Finca Santa Victoria	9	Septiembre	2023-02-09T00:00:00	2024-11-08T10:00:00	4	Temperatura máxima	20.3
128199	7	Sololá	701	Sololá	4	Finca Santa Victoria	9	Septiembre	2023-02-09T00:00:00	2024-11-08T10:00:00	3	Temperatura mínima	18.3
128200	7	Sololá	701	Sololá	4	Finca Santa Victoria	9	Septiembre	2023-02-09T00:00:00	2024-11-08T10:00:00	5	Humedad	66
128201	7	Sololá	701	Sololá	4	Finca Santa Victoria	9	Septiembre	2023-02-09T00:00:00	2024-11-08T10:00:00	6	Velocidad del viento	3.2
128202	7	Sololá	701	Sololá	4	Finca Santa Victoria	9	Septiembre	2023-02-09T00:00:00	2024-11-08T10:00:00	7	Dirección del viento	3.22
128203	7	Sololá	701	Sololá	4	Finca Santa Victoria	9	Septiembre	2023-02-09T00:00:00	2024-11-08T10:00:00	1	Precipitación	0
128204	7	Sololá	701	Sololá	4	Finca Santa Victoria	9	Septiembre	2023-02-09T00:00:00	2024-11-08T10:00:00	8	Radiación solar	211
128205	7	Sololá	701	Sololá	4	Finca Santa Victoria	9	Septiembre	2023-02-09T00:00:00	2024-11-08T11:00:00	2	Temperatura media	21.2
128206	7	Sololá	701	Sololá	4	Finca Santa Victoria	9	Septiembre	2023-02-09T00:00:00	2024-11-08T11:00:00	4	Temperatura máxima	21.3
128207	7	Sololá	701	Sololá	4	Finca Santa Victoria	9	Septiembre	2023-02-09T00:00:00	2024-11-08T11:00:00	3	Temperatura mínima	20.2
128208	7	Sololá	701	Sololá	4	Finca Santa Victoria	9	Septiembre	2023-02-09T00:00:00	2024-11-08T11:00:00	5	Humedad	61
128209	7	Sololá	701	Sololá	4	Finca Santa Victoria	9	Septiembre	2023-02-09T00:00:00	2024-11-08T11:00:00	6	Velocidad del viento	6.4
128210	7	Sololá	701	Sololá	4	Finca Santa Victoria	9	Septiembre	2023-02-09T00:00:00	2024-11-08T11:00:00	7	Dirección del viento	6.44
128211	7	Sololá	701	Sololá	4	Finca Santa Victoria	9	Septiembre	2023-02-09T00:00:00	2024-11-08T11:00:00	1	Precipitación	0
128212	7	Sololá	701	Sololá	4	Finca Santa Victoria	9	Septiembre	2023-02-09T00:00:00	2024-11-08T11:00:00	8	Radiación solar	965
128213	7	Sololá	701	Sololá	4	Finca Santa Victoria	9	Septiembre	2023-02-09T00:00:00	2024-11-08T12:00:00	2	Temperatura media	21.4
128214	7	Sololá	701	Sololá	4	Finca Santa Victoria	9	Septiembre	2023-02-09T00:00:00	2024-11-08T12:00:00	4	Temperatura máxima	21.7
128215	7	Sololá	701	Sololá	4	Finca Santa Victoria	9	Septiembre	2023-02-09T00:00:00	2024-11-08T12:00:00	3	Temperatura mínima	20.6
128216	7	Sololá	701	Sololá	4	Finca Santa Victoria	9	Septiembre	2023-02-09T00:00:00	2024-11-08T12:00:00	5	Humedad	65
128217	7	Sololá	701	Sololá	4	Finca Santa Victoria	9	Septiembre	2023-02-09T00:00:00	2024-11-08T12:00:00	6	Velocidad del viento	4.8
128218	7	Sololá	701	Sololá	4	Finca Santa Victoria	9	Septiembre	2023-02-09T00:00:00	2024-11-08T12:00:00	7	Dirección del viento	4.83
128219	7	Sololá	701	Sololá	4	Finca Santa Victoria	9	Septiembre	2023-02-09T00:00:00	2024-11-08T12:00:00	1	Precipitación	0
128220	7	Sololá	701	Sololá	4	Finca Santa Victoria	9	Septiembre	2023-02-09T00:00:00	2024-11-08T12:00:00	8	Radiación solar	777
128221	7	Sololá	701	Sololá	4	Finca Santa Victoria	9	Septiembre	2023-02-09T00:00:00	2024-11-08T13:00:00	2	Temperatura media	21.8
128222	7	Sololá	701	Sololá	4	Finca Santa Victoria	9	Septiembre	2023-02-09T00:00:00	2024-11-08T13:00:00	4	Temperatura máxima	21.9
128223	7	Sololá	701	Sololá	4	Finca Santa Victoria	9	Septiembre	2023-02-09T00:00:00	2024-11-08T13:00:00	3	Temperatura mínima	21.4
128224	7	Sololá	701	Sololá	4	Finca Santa Victoria	9	Septiembre	2023-02-09T00:00:00	2024-11-08T13:00:00	5	Humedad	58
128225	7	Sololá	701	Sololá	4	Finca Santa Victoria	9	Septiembre	2023-02-09T00:00:00	2024-11-08T13:00:00	6	Velocidad del viento	6.4
128226	7	Sololá	701	Sololá	4	Finca Santa Victoria	9	Septiembre	2023-02-09T00:00:00	2024-11-08T13:00:00	7	Dirección del viento	6.44
128227	7	Sololá	701	Sololá	4	Finca Santa Victoria	9	Septiembre	2023-02-09T00:00:00	2024-11-08T13:00:00	1	Precipitación	0
128228	7	Sololá	701	Sololá	4	Finca Santa Victoria	9	Septiembre	2023-02-09T00:00:00	2024-11-08T13:00:00	8	Radiación solar	223
128229	7	Sololá	701	Sololá	4	Finca Santa Victoria	9	Septiembre	2023-02-09T00:00:00	2024-11-08T14:00:00	2	Temperatura media	21.1
128230	7	Sololá	701	Sololá	4	Finca Santa Victoria	9	Septiembre	2023-02-09T00:00:00	2024-11-08T14:00:00	4	Temperatura máxima	22
128231	7	Sololá	701	Sololá	4	Finca Santa Victoria	9	Septiembre	2023-02-09T00:00:00	2024-11-08T14:00:00	3	Temperatura mínima	21.1
128232	7	Sololá	701	Sololá	4	Finca Santa Victoria	9	Septiembre	2023-02-09T00:00:00	2024-11-08T14:00:00	5	Humedad	60
128233	7	Sololá	701	Sololá	4	Finca Santa Victoria	9	Septiembre	2023-02-09T00:00:00	2024-11-08T14:00:00	6	Velocidad del viento	6.4
128234	7	Sololá	701	Sololá	4	Finca Santa Victoria	9	Septiembre	2023-02-09T00:00:00	2024-11-08T14:00:00	7	Dirección del viento	6.44
128235	7	Sololá	701	Sololá	4	Finca Santa Victoria	9	Septiembre	2023-02-09T00:00:00	2024-11-08T14:00:00	1	Precipitación	0
128236	7	Sololá	701	Sololá	4	Finca Santa Victoria	9	Septiembre	2023-02-09T00:00:00	2024-11-08T14:00:00	8	Radiación solar	170
128237	7	Sololá	701	Sololá	4	Finca Santa Victoria	9	Septiembre	2023-02-09T00:00:00	2024-11-08T15:00:00	2	Temperatura media	18.7
128238	7	Sololá	701	Sololá	4	Finca Santa Victoria	9	Septiembre	2023-02-09T00:00:00	2024-11-08T15:00:00	4	Temperatura máxima	21.4
128239	7	Sololá	701	Sololá	4	Finca Santa Victoria	9	Septiembre	2023-02-09T00:00:00	2024-11-08T15:00:00	3	Temperatura mínima	18.7
128240	7	Sololá	701	Sololá	4	Finca Santa Victoria	9	Septiembre	2023-02-09T00:00:00	2024-11-08T15:00:00	5	Humedad	81
128241	7	Sololá	701	Sololá	4	Finca Santa Victoria	9	Septiembre	2023-02-09T00:00:00	2024-11-08T15:00:00	6	Velocidad del viento	4.8
128242	7	Sololá	701	Sololá	4	Finca Santa Victoria	9	Septiembre	2023-02-09T00:00:00	2024-11-08T15:00:00	7	Dirección del viento	4.83
128243	7	Sololá	701	Sololá	4	Finca Santa Victoria	9	Septiembre	2023-02-09T00:00:00	2024-11-08T15:00:00	1	Precipitación	0
128244	7	Sololá	701	Sololá	4	Finca Santa Victoria	9	Septiembre	2023-02-09T00:00:00	2024-11-08T15:00:00	8	Radiación solar	200
128245	7	Sololá	701	Sololá	4	Finca Santa Victoria	9	Septiembre	2023-02-09T00:00:00	2024-11-08T16:00:00	2	Temperatura media	17.8
128246	7	Sololá	701	Sololá	4	Finca Santa Victoria	9	Septiembre	2023-02-09T00:00:00	2024-11-08T16:00:00	4	Temperatura máxima	18.7
128247	7	Sololá	701	Sololá	4	Finca Santa Victoria	9	Septiembre	2023-02-09T00:00:00	2024-11-08T16:00:00	3	Temperatura mínima	17.8
128248	7	Sololá	701	Sololá	4	Finca Santa Victoria	9	Septiembre	2023-02-09T00:00:00	2024-11-08T16:00:00	5	Humedad	75
128249	7	Sololá	701	Sololá	4	Finca Santa Victoria	9	Septiembre	2023-02-09T00:00:00	2024-11-08T16:00:00	6	Velocidad del viento	3.2
128250	7	Sololá	701	Sololá	4	Finca Santa Victoria	9	Septiembre	2023-02-09T00:00:00	2024-11-08T16:00:00	7	Dirección del viento	3.22
128251	7	Sololá	701	Sololá	4	Finca Santa Victoria	9	Septiembre	2023-02-09T00:00:00	2024-11-08T16:00:00	1	Precipitación	0
128252	7	Sololá	701	Sololá	4	Finca Santa Victoria	9	Septiembre	2023-02-09T00:00:00	2024-11-08T16:00:00	8	Radiación solar	97
128253	7	Sololá	701	Sololá	4	Finca Santa Victoria	9	Septiembre	2023-02-09T00:00:00	2024-11-08T17:00:00	2	Temperatura media	17
128254	7	Sololá	701	Sololá	4	Finca Santa Victoria	9	Septiembre	2023-02-09T00:00:00	2024-11-08T17:00:00	4	Temperatura máxima	17.8
128255	7	Sololá	701	Sololá	4	Finca Santa Victoria	9	Septiembre	2023-02-09T00:00:00	2024-11-08T17:00:00	3	Temperatura mínima	17
128256	7	Sololá	701	Sololá	4	Finca Santa Victoria	9	Septiembre	2023-02-09T00:00:00	2024-11-08T17:00:00	5	Humedad	79
128257	7	Sololá	701	Sololá	4	Finca Santa Victoria	9	Septiembre	2023-02-09T00:00:00	2024-11-08T17:00:00	6	Velocidad del viento	1.6
128258	7	Sololá	701	Sololá	4	Finca Santa Victoria	9	Septiembre	2023-02-09T00:00:00	2024-11-08T17:00:00	7	Dirección del viento	1.61
128259	7	Sololá	701	Sololá	4	Finca Santa Victoria	9	Septiembre	2023-02-09T00:00:00	2024-11-08T17:00:00	1	Precipitación	0
128260	7	Sololá	701	Sololá	4	Finca Santa Victoria	9	Septiembre	2023-02-09T00:00:00	2024-11-08T17:00:00	8	Radiación solar	58
128261	7	Sololá	701	Sololá	4	Finca Santa Victoria	9	Septiembre	2023-02-09T00:00:00	2024-11-08T18:00:00	2	Temperatura media	16.4
128262	7	Sololá	701	Sololá	4	Finca Santa Victoria	9	Septiembre	2023-02-09T00:00:00	2024-11-08T18:00:00	4	Temperatura máxima	17
128263	7	Sololá	701	Sololá	4	Finca Santa Victoria	9	Septiembre	2023-02-09T00:00:00	2024-11-08T18:00:00	3	Temperatura mínima	16.4
128264	7	Sololá	701	Sololá	4	Finca Santa Victoria	9	Septiembre	2023-02-09T00:00:00	2024-11-08T18:00:00	5	Humedad	78
128265	7	Sololá	701	Sololá	4	Finca Santa Victoria	9	Septiembre	2023-02-09T00:00:00	2024-11-08T18:00:00	6	Velocidad del viento	3.2
128266	7	Sololá	701	Sololá	4	Finca Santa Victoria	9	Septiembre	2023-02-09T00:00:00	2024-11-08T18:00:00	7	Dirección del viento	3.22
128267	7	Sololá	701	Sololá	4	Finca Santa Victoria	9	Septiembre	2023-02-09T00:00:00	2024-11-08T18:00:00	1	Precipitación	0
128268	7	Sololá	701	Sololá	4	Finca Santa Victoria	9	Septiembre	2023-02-09T00:00:00	2024-11-08T18:00:00	8	Radiación solar	27
128269	7	Sololá	701	Sololá	4	Finca Santa Victoria	9	Septiembre	2023-02-09T00:00:00	2024-11-08T19:00:00	2	Temperatura media	15.8
128270	7	Sololá	701	Sololá	4	Finca Santa Victoria	9	Septiembre	2023-02-09T00:00:00	2024-11-08T19:00:00	4	Temperatura máxima	16.4
128271	7	Sololá	701	Sololá	4	Finca Santa Victoria	9	Septiembre	2023-02-09T00:00:00	2024-11-08T19:00:00	3	Temperatura mínima	15.8
128272	7	Sololá	701	Sololá	4	Finca Santa Victoria	9	Septiembre	2023-02-09T00:00:00	2024-11-08T19:00:00	5	Humedad	84
128273	7	Sololá	701	Sololá	4	Finca Santa Victoria	9	Septiembre	2023-02-09T00:00:00	2024-11-08T19:00:00	6	Velocidad del viento	3.2
128274	7	Sololá	701	Sololá	4	Finca Santa Victoria	9	Septiembre	2023-02-09T00:00:00	2024-11-08T19:00:00	7	Dirección del viento	3.22
128275	7	Sololá	701	Sololá	4	Finca Santa Victoria	9	Septiembre	2023-02-09T00:00:00	2024-11-08T19:00:00	1	Precipitación	0
128276	7	Sololá	701	Sololá	4	Finca Santa Victoria	9	Septiembre	2023-02-09T00:00:00	2024-11-08T19:00:00	8	Radiación solar	0
128277	7	Sololá	701	Sololá	4	Finca Santa Victoria	9	Septiembre	2023-02-09T00:00:00	2024-11-08T20:00:00	2	Temperatura media	15.2
128278	7	Sololá	701	Sololá	4	Finca Santa Victoria	9	Septiembre	2023-02-09T00:00:00	2024-11-08T20:00:00	4	Temperatura máxima	15.9
128279	7	Sololá	701	Sololá	4	Finca Santa Victoria	9	Septiembre	2023-02-09T00:00:00	2024-11-08T20:00:00	3	Temperatura mínima	15.1
128280	7	Sololá	701	Sololá	4	Finca Santa Victoria	9	Septiembre	2023-02-09T00:00:00	2024-11-08T20:00:00	5	Humedad	85
128281	7	Sololá	701	Sololá	4	Finca Santa Victoria	9	Septiembre	2023-02-09T00:00:00	2024-11-08T20:00:00	6	Velocidad del viento	1.6
128282	7	Sololá	701	Sololá	4	Finca Santa Victoria	9	Septiembre	2023-02-09T00:00:00	2024-11-08T20:00:00	7	Dirección del viento	1.61
128283	7	Sololá	701	Sololá	4	Finca Santa Victoria	9	Septiembre	2023-02-09T00:00:00	2024-11-08T20:00:00	1	Precipitación	0
128284	7	Sololá	701	Sololá	4	Finca Santa Victoria	9	Septiembre	2023-02-09T00:00:00	2024-11-08T20:00:00	8	Radiación solar	0
128285	7	Sololá	701	Sololá	4	Finca Santa Victoria	9	Septiembre	2023-02-09T00:00:00	2024-11-08T21:00:00	2	Temperatura media	14.9
128286	7	Sololá	701	Sololá	4	Finca Santa Victoria	9	Septiembre	2023-02-09T00:00:00	2024-11-08T21:00:00	4	Temperatura máxima	15.2
128287	7	Sololá	701	Sololá	4	Finca Santa Victoria	9	Septiembre	2023-02-09T00:00:00	2024-11-08T21:00:00	3	Temperatura mínima	14.8
128288	7	Sololá	701	Sololá	4	Finca Santa Victoria	9	Septiembre	2023-02-09T00:00:00	2024-11-08T21:00:00	5	Humedad	88
128289	7	Sololá	701	Sololá	4	Finca Santa Victoria	9	Septiembre	2023-02-09T00:00:00	2024-11-08T21:00:00	6	Velocidad del viento	1.6
128290	7	Sololá	701	Sololá	4	Finca Santa Victoria	9	Septiembre	2023-02-09T00:00:00	2024-11-08T21:00:00	7	Dirección del viento	1.61
128291	7	Sololá	701	Sololá	4	Finca Santa Victoria	9	Septiembre	2023-02-09T00:00:00	2024-11-08T21:00:00	1	Precipitación	0
128292	7	Sololá	701	Sololá	4	Finca Santa Victoria	9	Septiembre	2023-02-09T00:00:00	2024-11-08T21:00:00	8	Radiación solar	0
128293	7	Sololá	701	Sololá	4	Finca Santa Victoria	9	Septiembre	2023-02-09T00:00:00	2024-11-08T22:00:00	2	Temperatura media	15.4
128294	7	Sololá	701	Sololá	4	Finca Santa Victoria	9	Septiembre	2023-02-09T00:00:00	2024-11-08T22:00:00	4	Temperatura máxima	15.4
128295	7	Sololá	701	Sololá	4	Finca Santa Victoria	9	Septiembre	2023-02-09T00:00:00	2024-11-08T22:00:00	3	Temperatura mínima	14.9
128296	7	Sololá	701	Sololá	4	Finca Santa Victoria	9	Septiembre	2023-02-09T00:00:00	2024-11-08T22:00:00	5	Humedad	85
128297	7	Sololá	701	Sololá	4	Finca Santa Victoria	9	Septiembre	2023-02-09T00:00:00	2024-11-08T22:00:00	6	Velocidad del viento	1.6
128298	7	Sololá	701	Sololá	4	Finca Santa Victoria	9	Septiembre	2023-02-09T00:00:00	2024-11-08T22:00:00	7	Dirección del viento	1.61
128299	7	Sololá	701	Sololá	4	Finca Santa Victoria	9	Septiembre	2023-02-09T00:00:00	2024-11-08T22:00:00	1	Precipitación	0
128300	7	Sololá	701	Sololá	4	Finca Santa Victoria	9	Septiembre	2023-02-09T00:00:00	2024-11-08T22:00:00	8	Radiación solar	0
128301	7	Sololá	701	Sololá	4	Finca Santa Victoria	9	Septiembre	2023-02-09T00:00:00	2024-11-08T23:00:00	2	Temperatura media	15.3
128302	7	Sololá	701	Sololá	4	Finca Santa Victoria	9	Septiembre	2023-02-09T00:00:00	2024-11-08T23:00:00	4	Temperatura máxima	15.4
128303	7	Sololá	701	Sololá	4	Finca Santa Victoria	9	Septiembre	2023-02-09T00:00:00	2024-11-08T23:00:00	3	Temperatura mínima	15.3
128304	7	Sololá	701	Sololá	4	Finca Santa Victoria	9	Septiembre	2023-02-09T00:00:00	2024-11-08T23:00:00	5	Humedad	85
128305	7	Sololá	701	Sololá	4	Finca Santa Victoria	9	Septiembre	2023-02-09T00:00:00	2024-11-08T23:00:00	6	Velocidad del viento	1.6
128306	7	Sololá	701	Sololá	4	Finca Santa Victoria	9	Septiembre	2023-02-09T00:00:00	2024-11-08T23:00:00	7	Dirección del viento	1.61
128307	7	Sololá	701	Sololá	4	Finca Santa Victoria	9	Septiembre	2023-02-09T00:00:00	2024-11-08T23:00:00	1	Precipitación	0
128308	7	Sololá	701	Sololá	4	Finca Santa Victoria	9	Septiembre	2023-02-09T00:00:00	2024-11-08T23:00:00	8	Radiación solar	0
128309	7	Sololá	701	Sololá	4	Finca Santa Victoria	9	Septiembre	2023-03-09T00:00:00	2024-11-08T00:00:00	2	Temperatura media	15.1
128310	7	Sololá	701	Sololá	4	Finca Santa Victoria	9	Septiembre	2023-03-09T00:00:00	2024-11-08T00:00:00	4	Temperatura máxima	15.3
128311	7	Sololá	701	Sololá	4	Finca Santa Victoria	9	Septiembre	2023-03-09T00:00:00	2024-11-08T00:00:00	3	Temperatura mínima	15.1
128312	7	Sololá	701	Sololá	4	Finca Santa Victoria	9	Septiembre	2023-03-09T00:00:00	2024-11-08T00:00:00	5	Humedad	85
128313	7	Sololá	701	Sololá	4	Finca Santa Victoria	9	Septiembre	2023-03-09T00:00:00	2024-11-08T00:00:00	6	Velocidad del viento	3.2
128314	7	Sololá	701	Sololá	4	Finca Santa Victoria	9	Septiembre	2023-03-09T00:00:00	2024-11-08T00:00:00	7	Dirección del viento	3.22
128315	7	Sololá	701	Sololá	4	Finca Santa Victoria	9	Septiembre	2023-03-09T00:00:00	2024-11-08T00:00:00	1	Precipitación	0
128316	7	Sololá	701	Sololá	4	Finca Santa Victoria	9	Septiembre	2023-03-09T00:00:00	2024-11-08T00:00:00	8	Radiación solar	0
128317	7	Sololá	701	Sololá	4	Finca Santa Victoria	9	Septiembre	2023-03-09T00:00:00	2024-11-08T01:00:00	2	Temperatura media	14.4
128318	7	Sololá	701	Sololá	4	Finca Santa Victoria	9	Septiembre	2023-03-09T00:00:00	2024-11-08T01:00:00	4	Temperatura máxima	15.1
128319	7	Sololá	701	Sololá	4	Finca Santa Victoria	9	Septiembre	2023-03-09T00:00:00	2024-11-08T01:00:00	3	Temperatura mínima	14.4
128320	7	Sololá	701	Sololá	4	Finca Santa Victoria	9	Septiembre	2023-03-09T00:00:00	2024-11-08T01:00:00	5	Humedad	87
128321	7	Sololá	701	Sololá	4	Finca Santa Victoria	9	Septiembre	2023-03-09T00:00:00	2024-11-08T01:00:00	6	Velocidad del viento	3.2
128322	7	Sololá	701	Sololá	4	Finca Santa Victoria	9	Septiembre	2023-03-09T00:00:00	2024-11-08T01:00:00	7	Dirección del viento	3.22
128323	7	Sololá	701	Sololá	4	Finca Santa Victoria	9	Septiembre	2023-03-09T00:00:00	2024-11-08T01:00:00	1	Precipitación	0
128324	7	Sololá	701	Sololá	4	Finca Santa Victoria	9	Septiembre	2023-03-09T00:00:00	2024-11-08T01:00:00	8	Radiación solar	0
128325	7	Sololá	701	Sololá	4	Finca Santa Victoria	9	Septiembre	2023-03-09T00:00:00	2024-11-08T02:00:00	2	Temperatura media	14.7
128326	7	Sololá	701	Sololá	4	Finca Santa Victoria	9	Septiembre	2023-03-09T00:00:00	2024-11-08T02:00:00	4	Temperatura máxima	14.7
128327	7	Sololá	701	Sololá	4	Finca Santa Victoria	9	Septiembre	2023-03-09T00:00:00	2024-11-08T02:00:00	3	Temperatura mínima	14.4
128328	7	Sololá	701	Sololá	4	Finca Santa Victoria	9	Septiembre	2023-03-09T00:00:00	2024-11-08T02:00:00	5	Humedad	85
128329	7	Sololá	701	Sololá	4	Finca Santa Victoria	9	Septiembre	2023-03-09T00:00:00	2024-11-08T02:00:00	6	Velocidad del viento	3.2
128330	7	Sololá	701	Sololá	4	Finca Santa Victoria	9	Septiembre	2023-03-09T00:00:00	2024-11-08T02:00:00	7	Dirección del viento	3.22
128331	7	Sololá	701	Sololá	4	Finca Santa Victoria	9	Septiembre	2023-03-09T00:00:00	2024-11-08T02:00:00	1	Precipitación	0
128332	7	Sololá	701	Sololá	4	Finca Santa Victoria	9	Septiembre	2023-03-09T00:00:00	2024-11-08T02:00:00	8	Radiación solar	0
128333	7	Sololá	701	Sololá	4	Finca Santa Victoria	9	Septiembre	2023-03-09T00:00:00	2024-11-08T03:00:00	2	Temperatura media	14.3
128334	7	Sololá	701	Sololá	4	Finca Santa Victoria	9	Septiembre	2023-03-09T00:00:00	2024-11-08T03:00:00	4	Temperatura máxima	14.8
128335	7	Sololá	701	Sololá	4	Finca Santa Victoria	9	Septiembre	2023-03-09T00:00:00	2024-11-08T03:00:00	3	Temperatura mínima	14.3
128336	7	Sololá	701	Sololá	4	Finca Santa Victoria	9	Septiembre	2023-03-09T00:00:00	2024-11-08T03:00:00	5	Humedad	86
128337	7	Sololá	701	Sololá	4	Finca Santa Victoria	9	Septiembre	2023-03-09T00:00:00	2024-11-08T03:00:00	6	Velocidad del viento	3.2
128338	7	Sololá	701	Sololá	4	Finca Santa Victoria	9	Septiembre	2023-03-09T00:00:00	2024-11-08T03:00:00	7	Dirección del viento	3.22
128339	7	Sololá	701	Sololá	4	Finca Santa Victoria	9	Septiembre	2023-03-09T00:00:00	2024-11-08T03:00:00	1	Precipitación	0
128340	7	Sololá	701	Sololá	4	Finca Santa Victoria	9	Septiembre	2023-03-09T00:00:00	2024-11-08T03:00:00	8	Radiación solar	0
128341	7	Sololá	701	Sololá	4	Finca Santa Victoria	9	Septiembre	2023-03-09T00:00:00	2024-11-08T04:00:00	2	Temperatura media	14.1
128342	7	Sololá	701	Sololá	4	Finca Santa Victoria	9	Septiembre	2023-03-09T00:00:00	2024-11-08T04:00:00	4	Temperatura máxima	14.3
128343	7	Sololá	701	Sololá	4	Finca Santa Victoria	9	Septiembre	2023-03-09T00:00:00	2024-11-08T04:00:00	3	Temperatura mínima	14.1
128344	7	Sololá	701	Sololá	4	Finca Santa Victoria	9	Septiembre	2023-03-09T00:00:00	2024-11-08T04:00:00	5	Humedad	88
128345	7	Sololá	701	Sololá	4	Finca Santa Victoria	9	Septiembre	2023-03-09T00:00:00	2024-11-08T04:00:00	6	Velocidad del viento	3.2
128346	7	Sololá	701	Sololá	4	Finca Santa Victoria	9	Septiembre	2023-03-09T00:00:00	2024-11-08T04:00:00	7	Dirección del viento	3.22
128347	7	Sololá	701	Sololá	4	Finca Santa Victoria	9	Septiembre	2023-03-09T00:00:00	2024-11-08T04:00:00	1	Precipitación	0
128348	7	Sololá	701	Sololá	4	Finca Santa Victoria	9	Septiembre	2023-03-09T00:00:00	2024-11-08T04:00:00	8	Radiación solar	0
128349	7	Sololá	701	Sololá	4	Finca Santa Victoria	9	Septiembre	2023-03-09T00:00:00	2024-11-08T05:00:00	2	Temperatura media	14.3
128350	7	Sololá	701	Sololá	4	Finca Santa Victoria	9	Septiembre	2023-03-09T00:00:00	2024-11-08T05:00:00	4	Temperatura máxima	14.3
128351	7	Sololá	701	Sololá	4	Finca Santa Victoria	9	Septiembre	2023-03-09T00:00:00	2024-11-08T05:00:00	3	Temperatura mínima	13.8
128352	7	Sololá	701	Sololá	4	Finca Santa Victoria	9	Septiembre	2023-03-09T00:00:00	2024-11-08T05:00:00	5	Humedad	85
128353	7	Sololá	701	Sololá	4	Finca Santa Victoria	9	Septiembre	2023-03-09T00:00:00	2024-11-08T05:00:00	6	Velocidad del viento	3.2
128354	7	Sololá	701	Sololá	4	Finca Santa Victoria	9	Septiembre	2023-03-09T00:00:00	2024-11-08T05:00:00	7	Dirección del viento	3.22
128355	7	Sololá	701	Sololá	4	Finca Santa Victoria	9	Septiembre	2023-03-09T00:00:00	2024-11-08T05:00:00	1	Precipitación	0
128356	7	Sololá	701	Sololá	4	Finca Santa Victoria	9	Septiembre	2023-03-09T00:00:00	2024-11-08T05:00:00	8	Radiación solar	0
128357	7	Sololá	701	Sololá	4	Finca Santa Victoria	9	Septiembre	2023-03-09T00:00:00	2024-11-08T06:00:00	2	Temperatura media	14
128358	7	Sololá	701	Sololá	4	Finca Santa Victoria	9	Septiembre	2023-03-09T00:00:00	2024-11-08T06:00:00	4	Temperatura máxima	14.3
128359	7	Sololá	701	Sololá	4	Finca Santa Victoria	9	Septiembre	2023-03-09T00:00:00	2024-11-08T06:00:00	3	Temperatura mínima	14
128360	7	Sololá	701	Sololá	4	Finca Santa Victoria	9	Septiembre	2023-03-09T00:00:00	2024-11-08T06:00:00	5	Humedad	86
128361	7	Sololá	701	Sololá	4	Finca Santa Victoria	9	Septiembre	2023-03-09T00:00:00	2024-11-08T06:00:00	6	Velocidad del viento	3.2
128362	7	Sololá	701	Sololá	4	Finca Santa Victoria	9	Septiembre	2023-03-09T00:00:00	2024-11-08T06:00:00	7	Dirección del viento	3.22
128363	7	Sololá	701	Sololá	4	Finca Santa Victoria	9	Septiembre	2023-03-09T00:00:00	2024-11-08T06:00:00	1	Precipitación	0
128364	7	Sololá	701	Sololá	4	Finca Santa Victoria	9	Septiembre	2023-03-09T00:00:00	2024-11-08T06:00:00	8	Radiación solar	0
128365	7	Sololá	701	Sololá	4	Finca Santa Victoria	9	Septiembre	2023-03-09T00:00:00	2024-11-08T07:00:00	2	Temperatura media	14.4
128366	7	Sololá	701	Sololá	4	Finca Santa Victoria	9	Septiembre	2023-03-09T00:00:00	2024-11-08T07:00:00	4	Temperatura máxima	14.4
128367	7	Sololá	701	Sololá	4	Finca Santa Victoria	9	Septiembre	2023-03-09T00:00:00	2024-11-08T07:00:00	3	Temperatura mínima	13.9
128368	7	Sololá	701	Sololá	4	Finca Santa Victoria	9	Septiembre	2023-03-09T00:00:00	2024-11-08T07:00:00	5	Humedad	86
128369	7	Sololá	701	Sololá	4	Finca Santa Victoria	9	Septiembre	2023-03-09T00:00:00	2024-11-08T07:00:00	6	Velocidad del viento	3.2
128370	7	Sololá	701	Sololá	4	Finca Santa Victoria	9	Septiembre	2023-03-09T00:00:00	2024-11-08T07:00:00	7	Dirección del viento	3.22
128371	7	Sololá	701	Sololá	4	Finca Santa Victoria	9	Septiembre	2023-03-09T00:00:00	2024-11-08T07:00:00	1	Precipitación	0
128372	7	Sololá	701	Sololá	4	Finca Santa Victoria	9	Septiembre	2023-03-09T00:00:00	2024-11-08T07:00:00	8	Radiación solar	22
128373	7	Sololá	701	Sololá	4	Finca Santa Victoria	9	Septiembre	2023-03-09T00:00:00	2024-11-08T08:00:00	2	Temperatura media	17.3
128374	7	Sololá	701	Sololá	4	Finca Santa Victoria	9	Septiembre	2023-03-09T00:00:00	2024-11-08T08:00:00	4	Temperatura máxima	17.3
128375	7	Sololá	701	Sololá	4	Finca Santa Victoria	9	Septiembre	2023-03-09T00:00:00	2024-11-08T08:00:00	3	Temperatura mínima	14.4
128376	7	Sololá	701	Sololá	4	Finca Santa Victoria	9	Septiembre	2023-03-09T00:00:00	2024-11-08T08:00:00	5	Humedad	78
128377	7	Sololá	701	Sololá	4	Finca Santa Victoria	9	Septiembre	2023-03-09T00:00:00	2024-11-08T08:00:00	6	Velocidad del viento	3.2
128378	7	Sololá	701	Sololá	4	Finca Santa Victoria	9	Septiembre	2023-03-09T00:00:00	2024-11-08T08:00:00	7	Dirección del viento	3.22
128379	7	Sololá	701	Sololá	4	Finca Santa Victoria	9	Septiembre	2023-03-09T00:00:00	2024-11-08T08:00:00	1	Precipitación	0
128380	7	Sololá	701	Sololá	4	Finca Santa Victoria	9	Septiembre	2023-03-09T00:00:00	2024-11-08T08:00:00	8	Radiación solar	239
128381	7	Sololá	701	Sololá	4	Finca Santa Victoria	9	Septiembre	2023-03-09T00:00:00	2024-11-08T09:00:00	2	Temperatura media	19.4
128382	7	Sololá	701	Sololá	4	Finca Santa Victoria	9	Septiembre	2023-03-09T00:00:00	2024-11-08T09:00:00	4	Temperatura máxima	19.4
128383	7	Sololá	701	Sololá	4	Finca Santa Victoria	9	Septiembre	2023-03-09T00:00:00	2024-11-08T09:00:00	3	Temperatura mínima	17.2
128384	7	Sololá	701	Sololá	4	Finca Santa Victoria	9	Septiembre	2023-03-09T00:00:00	2024-11-08T09:00:00	5	Humedad	68
128385	7	Sololá	701	Sololá	4	Finca Santa Victoria	9	Septiembre	2023-03-09T00:00:00	2024-11-08T09:00:00	6	Velocidad del viento	3.2
128386	7	Sololá	701	Sololá	4	Finca Santa Victoria	9	Septiembre	2023-03-09T00:00:00	2024-11-08T09:00:00	7	Dirección del viento	3.22
128387	7	Sololá	701	Sololá	4	Finca Santa Victoria	9	Septiembre	2023-03-09T00:00:00	2024-11-08T09:00:00	1	Precipitación	0
128388	7	Sololá	701	Sololá	4	Finca Santa Victoria	9	Septiembre	2023-03-09T00:00:00	2024-11-08T09:00:00	8	Radiación solar	293
128389	7	Sololá	701	Sololá	4	Finca Santa Victoria	9	Septiembre	2023-03-09T00:00:00	2024-11-08T10:00:00	2	Temperatura media	20.1
128390	7	Sololá	701	Sololá	4	Finca Santa Victoria	9	Septiembre	2023-03-09T00:00:00	2024-11-08T10:00:00	4	Temperatura máxima	20.8
128391	7	Sololá	701	Sololá	4	Finca Santa Victoria	9	Septiembre	2023-03-09T00:00:00	2024-11-08T10:00:00	3	Temperatura mínima	19.4
128392	7	Sololá	701	Sololá	4	Finca Santa Victoria	9	Septiembre	2023-03-09T00:00:00	2024-11-08T10:00:00	5	Humedad	70
128393	7	Sololá	701	Sololá	4	Finca Santa Victoria	9	Septiembre	2023-03-09T00:00:00	2024-11-08T10:00:00	6	Velocidad del viento	3.2
128394	7	Sololá	701	Sololá	4	Finca Santa Victoria	9	Septiembre	2023-03-09T00:00:00	2024-11-08T10:00:00	7	Dirección del viento	3.22
128395	7	Sololá	701	Sololá	4	Finca Santa Victoria	9	Septiembre	2023-03-09T00:00:00	2024-11-08T10:00:00	1	Precipitación	0
128396	7	Sololá	701	Sololá	4	Finca Santa Victoria	9	Septiembre	2023-03-09T00:00:00	2024-11-08T10:00:00	8	Radiación solar	193
128397	7	Sololá	701	Sololá	4	Finca Santa Victoria	9	Septiembre	2023-03-09T00:00:00	2024-11-08T11:00:00	2	Temperatura media	21.4
128398	7	Sololá	701	Sololá	4	Finca Santa Victoria	9	Septiembre	2023-03-09T00:00:00	2024-11-08T11:00:00	4	Temperatura máxima	21.6
128399	7	Sololá	701	Sololá	4	Finca Santa Victoria	9	Septiembre	2023-03-09T00:00:00	2024-11-08T11:00:00	3	Temperatura mínima	20.1
128400	7	Sololá	701	Sololá	4	Finca Santa Victoria	9	Septiembre	2023-03-09T00:00:00	2024-11-08T11:00:00	5	Humedad	65
128401	7	Sololá	701	Sololá	4	Finca Santa Victoria	9	Septiembre	2023-03-09T00:00:00	2024-11-08T11:00:00	6	Velocidad del viento	3.2
128402	7	Sololá	701	Sololá	4	Finca Santa Victoria	9	Septiembre	2023-03-09T00:00:00	2024-11-08T11:00:00	7	Dirección del viento	3.22
128403	7	Sololá	701	Sololá	4	Finca Santa Victoria	9	Septiembre	2023-03-09T00:00:00	2024-11-08T11:00:00	1	Precipitación	0
128404	7	Sololá	701	Sololá	4	Finca Santa Victoria	9	Septiembre	2023-03-09T00:00:00	2024-11-08T11:00:00	8	Radiación solar	641
128405	7	Sololá	701	Sololá	4	Finca Santa Victoria	9	Septiembre	2023-03-09T00:00:00	2024-11-08T12:00:00	2	Temperatura media	20.4
128406	7	Sololá	701	Sololá	4	Finca Santa Victoria	9	Septiembre	2023-03-09T00:00:00	2024-11-08T12:00:00	4	Temperatura máxima	22.2
128407	7	Sololá	701	Sololá	4	Finca Santa Victoria	9	Septiembre	2023-03-09T00:00:00	2024-11-08T12:00:00	3	Temperatura mínima	20.1
128408	7	Sololá	701	Sololá	4	Finca Santa Victoria	9	Septiembre	2023-03-09T00:00:00	2024-11-08T12:00:00	5	Humedad	68
128409	7	Sololá	701	Sololá	4	Finca Santa Victoria	9	Septiembre	2023-03-09T00:00:00	2024-11-08T12:00:00	6	Velocidad del viento	3.2
128410	7	Sololá	701	Sololá	4	Finca Santa Victoria	9	Septiembre	2023-03-09T00:00:00	2024-11-08T12:00:00	7	Dirección del viento	3.22
128411	7	Sololá	701	Sololá	4	Finca Santa Victoria	9	Septiembre	2023-03-09T00:00:00	2024-11-08T12:00:00	1	Precipitación	0
128412	7	Sololá	701	Sololá	4	Finca Santa Victoria	9	Septiembre	2023-03-09T00:00:00	2024-11-08T12:00:00	8	Radiación solar	639
128413	7	Sololá	701	Sololá	4	Finca Santa Victoria	9	Septiembre	2023-03-09T00:00:00	2024-11-08T13:00:00	2	Temperatura media	21.4
128414	7	Sololá	701	Sololá	4	Finca Santa Victoria	9	Septiembre	2023-03-09T00:00:00	2024-11-08T13:00:00	4	Temperatura máxima	22.6
128415	7	Sololá	701	Sololá	4	Finca Santa Victoria	9	Septiembre	2023-03-09T00:00:00	2024-11-08T13:00:00	3	Temperatura mínima	20.4
128416	7	Sololá	701	Sololá	4	Finca Santa Victoria	9	Septiembre	2023-03-09T00:00:00	2024-11-08T13:00:00	5	Humedad	64
128417	7	Sololá	701	Sololá	4	Finca Santa Victoria	9	Septiembre	2023-03-09T00:00:00	2024-11-08T13:00:00	6	Velocidad del viento	3.2
128418	7	Sololá	701	Sololá	4	Finca Santa Victoria	9	Septiembre	2023-03-09T00:00:00	2024-11-08T13:00:00	7	Dirección del viento	3.22
128419	7	Sololá	701	Sololá	4	Finca Santa Victoria	9	Septiembre	2023-03-09T00:00:00	2024-11-08T13:00:00	1	Precipitación	0
128420	7	Sololá	701	Sololá	4	Finca Santa Victoria	9	Septiembre	2023-03-09T00:00:00	2024-11-08T13:00:00	8	Radiación solar	218
128421	7	Sololá	701	Sololá	4	Finca Santa Victoria	9	Septiembre	2023-03-09T00:00:00	2024-11-08T14:00:00	2	Temperatura media	19.8
128422	7	Sololá	701	Sololá	4	Finca Santa Victoria	9	Septiembre	2023-03-09T00:00:00	2024-11-08T14:00:00	4	Temperatura máxima	21.6
128423	7	Sololá	701	Sololá	4	Finca Santa Victoria	9	Septiembre	2023-03-09T00:00:00	2024-11-08T14:00:00	3	Temperatura mínima	19.7
128424	7	Sololá	701	Sololá	4	Finca Santa Victoria	9	Septiembre	2023-03-09T00:00:00	2024-11-08T14:00:00	5	Humedad	81
128425	7	Sololá	701	Sololá	4	Finca Santa Victoria	9	Septiembre	2023-03-09T00:00:00	2024-11-08T14:00:00	6	Velocidad del viento	3.2
128426	7	Sololá	701	Sololá	4	Finca Santa Victoria	9	Septiembre	2023-03-09T00:00:00	2024-11-08T14:00:00	7	Dirección del viento	3.22
128427	7	Sololá	701	Sololá	4	Finca Santa Victoria	9	Septiembre	2023-03-09T00:00:00	2024-11-08T14:00:00	1	Precipitación	0
128428	7	Sololá	701	Sololá	4	Finca Santa Victoria	9	Septiembre	2023-03-09T00:00:00	2024-11-08T14:00:00	8	Radiación solar	164
128429	7	Sololá	701	Sololá	4	Finca Santa Victoria	9	Septiembre	2023-03-09T00:00:00	2024-11-08T15:00:00	2	Temperatura media	18.5
128430	7	Sololá	701	Sololá	4	Finca Santa Victoria	9	Septiembre	2023-03-09T00:00:00	2024-11-08T15:00:00	4	Temperatura máxima	20.1
128431	7	Sololá	701	Sololá	4	Finca Santa Victoria	9	Septiembre	2023-03-09T00:00:00	2024-11-08T15:00:00	3	Temperatura mínima	18.3
128432	7	Sololá	701	Sololá	4	Finca Santa Victoria	9	Septiembre	2023-03-09T00:00:00	2024-11-08T15:00:00	5	Humedad	89
128433	7	Sololá	701	Sololá	4	Finca Santa Victoria	9	Septiembre	2023-03-09T00:00:00	2024-11-08T15:00:00	6	Velocidad del viento	3.2
128434	7	Sololá	701	Sololá	4	Finca Santa Victoria	9	Septiembre	2023-03-09T00:00:00	2024-11-08T15:00:00	7	Dirección del viento	3.22
128435	7	Sololá	701	Sololá	4	Finca Santa Victoria	9	Septiembre	2023-03-09T00:00:00	2024-11-08T15:00:00	1	Precipitación	0
128436	7	Sololá	701	Sololá	4	Finca Santa Victoria	9	Septiembre	2023-03-09T00:00:00	2024-11-08T15:00:00	8	Radiación solar	138
128437	7	Sololá	701	Sololá	4	Finca Santa Victoria	9	Septiembre	2023-03-09T00:00:00	2024-11-08T16:00:00	2	Temperatura media	17.4
128438	7	Sololá	701	Sololá	4	Finca Santa Victoria	9	Septiembre	2023-03-09T00:00:00	2024-11-08T16:00:00	4	Temperatura máxima	18.6
128439	7	Sololá	701	Sololá	4	Finca Santa Victoria	9	Septiembre	2023-03-09T00:00:00	2024-11-08T16:00:00	3	Temperatura mínima	17.4
128440	7	Sololá	701	Sololá	4	Finca Santa Victoria	9	Septiembre	2023-03-09T00:00:00	2024-11-08T16:00:00	5	Humedad	93
128441	7	Sololá	701	Sololá	4	Finca Santa Victoria	9	Septiembre	2023-03-09T00:00:00	2024-11-08T16:00:00	6	Velocidad del viento	1.6
128442	7	Sololá	701	Sololá	4	Finca Santa Victoria	9	Septiembre	2023-03-09T00:00:00	2024-11-08T16:00:00	7	Dirección del viento	1.61
128443	7	Sololá	701	Sololá	4	Finca Santa Victoria	9	Septiembre	2023-03-09T00:00:00	2024-11-08T16:00:00	1	Precipitación	0
128444	7	Sololá	701	Sololá	4	Finca Santa Victoria	9	Septiembre	2023-03-09T00:00:00	2024-11-08T16:00:00	8	Radiación solar	102
128445	7	Sololá	701	Sololá	4	Finca Santa Victoria	9	Septiembre	2023-03-09T00:00:00	2024-11-08T17:00:00	2	Temperatura media	16.3
128446	7	Sololá	701	Sololá	4	Finca Santa Victoria	9	Septiembre	2023-03-09T00:00:00	2024-11-08T17:00:00	4	Temperatura máxima	17.4
128447	7	Sololá	701	Sololá	4	Finca Santa Victoria	9	Septiembre	2023-03-09T00:00:00	2024-11-08T17:00:00	3	Temperatura mínima	16.3
128448	7	Sololá	701	Sololá	4	Finca Santa Victoria	9	Septiembre	2023-03-09T00:00:00	2024-11-08T17:00:00	5	Humedad	93
128449	7	Sololá	701	Sololá	4	Finca Santa Victoria	9	Septiembre	2023-03-09T00:00:00	2024-11-08T17:00:00	6	Velocidad del viento	1.6
128450	7	Sololá	701	Sololá	4	Finca Santa Victoria	9	Septiembre	2023-03-09T00:00:00	2024-11-08T17:00:00	7	Dirección del viento	1.61
128451	7	Sololá	701	Sololá	4	Finca Santa Victoria	9	Septiembre	2023-03-09T00:00:00	2024-11-08T17:00:00	1	Precipitación	0
128452	7	Sololá	701	Sololá	4	Finca Santa Victoria	9	Septiembre	2023-03-09T00:00:00	2024-11-08T17:00:00	8	Radiación solar	48
128453	7	Sololá	701	Sololá	4	Finca Santa Victoria	9	Septiembre	2023-03-09T00:00:00	2024-11-08T18:00:00	2	Temperatura media	15.4
128454	7	Sololá	701	Sololá	4	Finca Santa Victoria	9	Septiembre	2023-03-09T00:00:00	2024-11-08T18:00:00	4	Temperatura máxima	16.3
128455	7	Sololá	701	Sololá	4	Finca Santa Victoria	9	Septiembre	2023-03-09T00:00:00	2024-11-08T18:00:00	3	Temperatura mínima	15.4
128456	7	Sololá	701	Sololá	4	Finca Santa Victoria	9	Septiembre	2023-03-09T00:00:00	2024-11-08T18:00:00	5	Humedad	95
128457	7	Sololá	701	Sololá	4	Finca Santa Victoria	9	Septiembre	2023-03-09T00:00:00	2024-11-08T18:00:00	6	Velocidad del viento	1.6
128458	7	Sololá	701	Sololá	4	Finca Santa Victoria	9	Septiembre	2023-03-09T00:00:00	2024-11-08T18:00:00	7	Dirección del viento	1.61
128459	7	Sololá	701	Sololá	4	Finca Santa Victoria	9	Septiembre	2023-03-09T00:00:00	2024-11-08T18:00:00	1	Precipitación	0
128460	7	Sololá	701	Sololá	4	Finca Santa Victoria	9	Septiembre	2023-03-09T00:00:00	2024-11-08T18:00:00	8	Radiación solar	18
128461	7	Sololá	701	Sololá	4	Finca Santa Victoria	9	Septiembre	2023-03-09T00:00:00	2024-11-08T19:00:00	2	Temperatura media	14.3
128462	7	Sololá	701	Sololá	4	Finca Santa Victoria	9	Septiembre	2023-03-09T00:00:00	2024-11-08T19:00:00	4	Temperatura máxima	15.4
128463	7	Sololá	701	Sololá	4	Finca Santa Victoria	9	Septiembre	2023-03-09T00:00:00	2024-11-08T19:00:00	3	Temperatura mínima	14.3
128464	7	Sololá	701	Sololá	4	Finca Santa Victoria	9	Septiembre	2023-03-09T00:00:00	2024-11-08T19:00:00	5	Humedad	96
128465	7	Sololá	701	Sololá	4	Finca Santa Victoria	9	Septiembre	2023-03-09T00:00:00	2024-11-08T19:00:00	6	Velocidad del viento	1.6
128466	7	Sololá	701	Sololá	4	Finca Santa Victoria	9	Septiembre	2023-03-09T00:00:00	2024-11-08T19:00:00	7	Dirección del viento	1.61
128467	7	Sololá	701	Sololá	4	Finca Santa Victoria	9	Septiembre	2023-03-09T00:00:00	2024-11-08T19:00:00	1	Precipitación	1.6
128468	7	Sololá	701	Sololá	4	Finca Santa Victoria	9	Septiembre	2023-03-09T00:00:00	2024-11-08T19:00:00	8	Radiación solar	0
128469	7	Sololá	701	Sololá	4	Finca Santa Victoria	9	Septiembre	2023-03-09T00:00:00	2024-11-08T20:00:00	2	Temperatura media	14.3
128470	7	Sololá	701	Sololá	4	Finca Santa Victoria	9	Septiembre	2023-03-09T00:00:00	2024-11-08T20:00:00	4	Temperatura máxima	14.3
128471	7	Sololá	701	Sololá	4	Finca Santa Victoria	9	Septiembre	2023-03-09T00:00:00	2024-11-08T20:00:00	3	Temperatura mínima	14.3
128472	7	Sololá	701	Sololá	4	Finca Santa Victoria	9	Septiembre	2023-03-09T00:00:00	2024-11-08T20:00:00	5	Humedad	97
128473	7	Sololá	701	Sololá	4	Finca Santa Victoria	9	Septiembre	2023-03-09T00:00:00	2024-11-08T20:00:00	6	Velocidad del viento	0
128474	7	Sololá	701	Sololá	4	Finca Santa Victoria	9	Septiembre	2023-03-09T00:00:00	2024-11-08T20:00:00	7	Dirección del viento	0
128475	7	Sololá	701	Sololá	4	Finca Santa Victoria	9	Septiembre	2023-03-09T00:00:00	2024-11-08T20:00:00	1	Precipitación	0.2
128476	7	Sololá	701	Sololá	4	Finca Santa Victoria	9	Septiembre	2023-03-09T00:00:00	2024-11-08T20:00:00	8	Radiación solar	0
128477	7	Sololá	701	Sololá	4	Finca Santa Victoria	9	Septiembre	2023-03-09T00:00:00	2024-11-08T21:00:00	2	Temperatura media	13.9
128478	7	Sololá	701	Sololá	4	Finca Santa Victoria	9	Septiembre	2023-03-09T00:00:00	2024-11-08T21:00:00	4	Temperatura máxima	14.3
128479	7	Sololá	701	Sololá	4	Finca Santa Victoria	9	Septiembre	2023-03-09T00:00:00	2024-11-08T21:00:00	3	Temperatura mínima	13.8
128480	7	Sololá	701	Sololá	4	Finca Santa Victoria	9	Septiembre	2023-03-09T00:00:00	2024-11-08T21:00:00	5	Humedad	97
128481	7	Sololá	701	Sololá	4	Finca Santa Victoria	9	Septiembre	2023-03-09T00:00:00	2024-11-08T21:00:00	6	Velocidad del viento	1.6
128482	7	Sololá	701	Sololá	4	Finca Santa Victoria	9	Septiembre	2023-03-09T00:00:00	2024-11-08T21:00:00	7	Dirección del viento	1.61
128483	7	Sololá	701	Sololá	4	Finca Santa Victoria	9	Septiembre	2023-03-09T00:00:00	2024-11-08T21:00:00	1	Precipitación	3.2
128484	7	Sololá	701	Sololá	4	Finca Santa Victoria	9	Septiembre	2023-03-09T00:00:00	2024-11-08T21:00:00	8	Radiación solar	0
128485	7	Sololá	701	Sololá	4	Finca Santa Victoria	9	Septiembre	2023-03-09T00:00:00	2024-11-08T22:00:00	2	Temperatura media	13.4
128486	7	Sololá	701	Sololá	4	Finca Santa Victoria	9	Septiembre	2023-03-09T00:00:00	2024-11-08T22:00:00	4	Temperatura máxima	13.9
128487	7	Sololá	701	Sololá	4	Finca Santa Victoria	9	Septiembre	2023-03-09T00:00:00	2024-11-08T22:00:00	3	Temperatura mínima	13.4
128488	7	Sololá	701	Sololá	4	Finca Santa Victoria	9	Septiembre	2023-03-09T00:00:00	2024-11-08T22:00:00	5	Humedad	96
128489	7	Sololá	701	Sololá	4	Finca Santa Victoria	9	Septiembre	2023-03-09T00:00:00	2024-11-08T22:00:00	6	Velocidad del viento	0
128490	7	Sololá	701	Sololá	4	Finca Santa Victoria	9	Septiembre	2023-03-09T00:00:00	2024-11-08T22:00:00	7	Dirección del viento	0
128491	7	Sololá	701	Sololá	4	Finca Santa Victoria	9	Septiembre	2023-03-09T00:00:00	2024-11-08T22:00:00	1	Precipitación	5.2
128492	7	Sololá	701	Sololá	4	Finca Santa Victoria	9	Septiembre	2023-03-09T00:00:00	2024-11-08T22:00:00	8	Radiación solar	0
128493	7	Sololá	701	Sololá	4	Finca Santa Victoria	9	Septiembre	2023-03-09T00:00:00	2024-11-08T23:00:00	2	Temperatura media	13.1
128494	7	Sololá	701	Sololá	4	Finca Santa Victoria	9	Septiembre	2023-03-09T00:00:00	2024-11-08T23:00:00	4	Temperatura máxima	13.4
128495	7	Sololá	701	Sololá	4	Finca Santa Victoria	9	Septiembre	2023-03-09T00:00:00	2024-11-08T23:00:00	3	Temperatura mínima	13.1
128496	7	Sololá	701	Sololá	4	Finca Santa Victoria	9	Septiembre	2023-03-09T00:00:00	2024-11-08T23:00:00	5	Humedad	97
128497	7	Sololá	701	Sololá	4	Finca Santa Victoria	9	Septiembre	2023-03-09T00:00:00	2024-11-08T23:00:00	6	Velocidad del viento	0
128498	7	Sololá	701	Sololá	4	Finca Santa Victoria	9	Septiembre	2023-03-09T00:00:00	2024-11-08T23:00:00	7	Dirección del viento	0
128499	7	Sololá	701	Sololá	4	Finca Santa Victoria	9	Septiembre	2023-03-09T00:00:00	2024-11-08T23:00:00	1	Precipitación	2.8
128500	7	Sololá	701	Sololá	4	Finca Santa Victoria	9	Septiembre	2023-03-09T00:00:00	2024-11-08T23:00:00	8	Radiación solar	0
128501	7	Sololá	701	Sololá	4	Finca Santa Victoria	9	Septiembre	2023-04-09T00:00:00	2024-11-08T00:00:00	2	Temperatura media	13
128502	7	Sololá	701	Sololá	4	Finca Santa Victoria	9	Septiembre	2023-04-09T00:00:00	2024-11-08T00:00:00	4	Temperatura máxima	13.2
128503	7	Sololá	701	Sololá	4	Finca Santa Victoria	9	Septiembre	2023-04-09T00:00:00	2024-11-08T00:00:00	3	Temperatura mínima	12.9
128504	7	Sololá	701	Sololá	4	Finca Santa Victoria	9	Septiembre	2023-04-09T00:00:00	2024-11-08T00:00:00	5	Humedad	96
128505	7	Sololá	701	Sololá	4	Finca Santa Victoria	9	Septiembre	2023-04-09T00:00:00	2024-11-08T00:00:00	6	Velocidad del viento	0
128506	7	Sololá	701	Sololá	4	Finca Santa Victoria	9	Septiembre	2023-04-09T00:00:00	2024-11-08T00:00:00	7	Dirección del viento	0
128507	7	Sololá	701	Sololá	4	Finca Santa Victoria	9	Septiembre	2023-04-09T00:00:00	2024-11-08T00:00:00	1	Precipitación	0.2
128508	7	Sololá	701	Sololá	4	Finca Santa Victoria	9	Septiembre	2023-04-09T00:00:00	2024-11-08T00:00:00	8	Radiación solar	0
128509	7	Sololá	701	Sololá	4	Finca Santa Victoria	9	Septiembre	2023-04-09T00:00:00	2024-11-08T01:00:00	2	Temperatura media	13.2
128510	7	Sololá	701	Sololá	4	Finca Santa Victoria	9	Septiembre	2023-04-09T00:00:00	2024-11-08T01:00:00	4	Temperatura máxima	13.3
128511	7	Sololá	701	Sololá	4	Finca Santa Victoria	9	Septiembre	2023-04-09T00:00:00	2024-11-08T01:00:00	3	Temperatura mínima	12.9
128512	7	Sololá	701	Sololá	4	Finca Santa Victoria	9	Septiembre	2023-04-09T00:00:00	2024-11-08T01:00:00	5	Humedad	95
128513	7	Sololá	701	Sololá	4	Finca Santa Victoria	9	Septiembre	2023-04-09T00:00:00	2024-11-08T01:00:00	6	Velocidad del viento	1.6
128514	7	Sololá	701	Sololá	4	Finca Santa Victoria	9	Septiembre	2023-04-09T00:00:00	2024-11-08T01:00:00	7	Dirección del viento	1.61
128515	7	Sololá	701	Sololá	4	Finca Santa Victoria	9	Septiembre	2023-04-09T00:00:00	2024-11-08T01:00:00	1	Precipitación	0
128516	7	Sololá	701	Sololá	4	Finca Santa Victoria	9	Septiembre	2023-04-09T00:00:00	2024-11-08T01:00:00	8	Radiación solar	0
128517	7	Sololá	701	Sololá	4	Finca Santa Victoria	9	Septiembre	2023-04-09T00:00:00	2024-11-08T02:00:00	2	Temperatura media	12.8
128518	7	Sololá	701	Sololá	4	Finca Santa Victoria	9	Septiembre	2023-04-09T00:00:00	2024-11-08T02:00:00	4	Temperatura máxima	13.2
128519	7	Sololá	701	Sololá	4	Finca Santa Victoria	9	Septiembre	2023-04-09T00:00:00	2024-11-08T02:00:00	3	Temperatura mínima	12.8
128520	7	Sololá	701	Sololá	4	Finca Santa Victoria	9	Septiembre	2023-04-09T00:00:00	2024-11-08T02:00:00	5	Humedad	96
128521	7	Sololá	701	Sololá	4	Finca Santa Victoria	9	Septiembre	2023-04-09T00:00:00	2024-11-08T02:00:00	6	Velocidad del viento	0
128522	7	Sololá	701	Sololá	4	Finca Santa Victoria	9	Septiembre	2023-04-09T00:00:00	2024-11-08T02:00:00	7	Dirección del viento	0
128523	7	Sololá	701	Sololá	4	Finca Santa Victoria	9	Septiembre	2023-04-09T00:00:00	2024-11-08T02:00:00	1	Precipitación	0
128524	7	Sololá	701	Sololá	4	Finca Santa Victoria	9	Septiembre	2023-04-09T00:00:00	2024-11-08T02:00:00	8	Radiación solar	0
128525	7	Sololá	701	Sololá	4	Finca Santa Victoria	9	Septiembre	2023-04-09T00:00:00	2024-11-08T03:00:00	2	Temperatura media	12.7
128526	7	Sololá	701	Sololá	4	Finca Santa Victoria	9	Septiembre	2023-04-09T00:00:00	2024-11-08T03:00:00	4	Temperatura máxima	12.8
128527	7	Sololá	701	Sololá	4	Finca Santa Victoria	9	Septiembre	2023-04-09T00:00:00	2024-11-08T03:00:00	3	Temperatura mínima	12.6
128528	7	Sololá	701	Sololá	4	Finca Santa Victoria	9	Septiembre	2023-04-09T00:00:00	2024-11-08T03:00:00	5	Humedad	95
128529	7	Sololá	701	Sololá	4	Finca Santa Victoria	9	Septiembre	2023-04-09T00:00:00	2024-11-08T03:00:00	6	Velocidad del viento	0
128530	7	Sololá	701	Sololá	4	Finca Santa Victoria	9	Septiembre	2023-04-09T00:00:00	2024-11-08T03:00:00	7	Dirección del viento	0
128531	7	Sololá	701	Sololá	4	Finca Santa Victoria	9	Septiembre	2023-04-09T00:00:00	2024-11-08T03:00:00	1	Precipitación	0
128532	7	Sololá	701	Sololá	4	Finca Santa Victoria	9	Septiembre	2023-04-09T00:00:00	2024-11-08T03:00:00	8	Radiación solar	0
128533	7	Sololá	701	Sololá	4	Finca Santa Victoria	9	Septiembre	2023-04-09T00:00:00	2024-11-08T04:00:00	2	Temperatura media	12.2
128534	7	Sololá	701	Sololá	4	Finca Santa Victoria	9	Septiembre	2023-04-09T00:00:00	2024-11-08T04:00:00	4	Temperatura máxima	12.7
128535	7	Sololá	701	Sololá	4	Finca Santa Victoria	9	Septiembre	2023-04-09T00:00:00	2024-11-08T04:00:00	3	Temperatura mínima	12.2
128536	7	Sololá	701	Sololá	4	Finca Santa Victoria	9	Septiembre	2023-04-09T00:00:00	2024-11-08T04:00:00	5	Humedad	95
128537	7	Sololá	701	Sololá	4	Finca Santa Victoria	9	Septiembre	2023-04-09T00:00:00	2024-11-08T04:00:00	6	Velocidad del viento	0
128538	7	Sololá	701	Sololá	4	Finca Santa Victoria	9	Septiembre	2023-04-09T00:00:00	2024-11-08T04:00:00	7	Dirección del viento	0
128539	7	Sololá	701	Sololá	4	Finca Santa Victoria	9	Septiembre	2023-04-09T00:00:00	2024-11-08T04:00:00	1	Precipitación	0
128540	7	Sololá	701	Sololá	4	Finca Santa Victoria	9	Septiembre	2023-04-09T00:00:00	2024-11-08T04:00:00	8	Radiación solar	0
128541	7	Sololá	701	Sololá	4	Finca Santa Victoria	9	Septiembre	2023-04-09T00:00:00	2024-11-08T05:00:00	2	Temperatura media	11.6
128542	7	Sololá	701	Sololá	4	Finca Santa Victoria	9	Septiembre	2023-04-09T00:00:00	2024-11-08T05:00:00	4	Temperatura máxima	12.3
128543	7	Sololá	701	Sololá	4	Finca Santa Victoria	9	Septiembre	2023-04-09T00:00:00	2024-11-08T05:00:00	3	Temperatura mínima	11.6
128544	7	Sololá	701	Sololá	4	Finca Santa Victoria	9	Septiembre	2023-04-09T00:00:00	2024-11-08T05:00:00	5	Humedad	96
128545	7	Sololá	701	Sololá	4	Finca Santa Victoria	9	Septiembre	2023-04-09T00:00:00	2024-11-08T05:00:00	6	Velocidad del viento	0
128546	7	Sololá	701	Sololá	4	Finca Santa Victoria	9	Septiembre	2023-04-09T00:00:00	2024-11-08T05:00:00	7	Dirección del viento	0
128547	7	Sololá	701	Sololá	4	Finca Santa Victoria	9	Septiembre	2023-04-09T00:00:00	2024-11-08T05:00:00	1	Precipitación	0
128548	7	Sololá	701	Sololá	4	Finca Santa Victoria	9	Septiembre	2023-04-09T00:00:00	2024-11-08T05:00:00	8	Radiación solar	0
128549	7	Sololá	701	Sololá	4	Finca Santa Victoria	9	Septiembre	2023-04-09T00:00:00	2024-11-08T06:00:00	2	Temperatura media	11.4
128550	7	Sololá	701	Sololá	4	Finca Santa Victoria	9	Septiembre	2023-04-09T00:00:00	2024-11-08T06:00:00	4	Temperatura máxima	11.7
128551	7	Sololá	701	Sololá	4	Finca Santa Victoria	9	Septiembre	2023-04-09T00:00:00	2024-11-08T06:00:00	3	Temperatura mínima	11.4
128552	7	Sololá	701	Sololá	4	Finca Santa Victoria	9	Septiembre	2023-04-09T00:00:00	2024-11-08T06:00:00	5	Humedad	97
128553	7	Sololá	701	Sololá	4	Finca Santa Victoria	9	Septiembre	2023-04-09T00:00:00	2024-11-08T06:00:00	6	Velocidad del viento	0
128554	7	Sololá	701	Sololá	4	Finca Santa Victoria	9	Septiembre	2023-04-09T00:00:00	2024-11-08T06:00:00	7	Dirección del viento	0
128555	7	Sololá	701	Sololá	4	Finca Santa Victoria	9	Septiembre	2023-04-09T00:00:00	2024-11-08T06:00:00	1	Precipitación	0
128556	7	Sololá	701	Sololá	4	Finca Santa Victoria	9	Septiembre	2023-04-09T00:00:00	2024-11-08T06:00:00	8	Radiación solar	0
128557	7	Sololá	701	Sololá	4	Finca Santa Victoria	9	Septiembre	2023-04-09T00:00:00	2024-11-08T07:00:00	2	Temperatura media	12
128558	7	Sololá	701	Sololá	4	Finca Santa Victoria	9	Septiembre	2023-04-09T00:00:00	2024-11-08T07:00:00	4	Temperatura máxima	12
128559	7	Sololá	701	Sololá	4	Finca Santa Victoria	9	Septiembre	2023-04-09T00:00:00	2024-11-08T07:00:00	3	Temperatura mínima	11.4
128560	7	Sololá	701	Sololá	4	Finca Santa Victoria	9	Septiembre	2023-04-09T00:00:00	2024-11-08T07:00:00	5	Humedad	97
128561	7	Sololá	701	Sololá	4	Finca Santa Victoria	9	Septiembre	2023-04-09T00:00:00	2024-11-08T07:00:00	6	Velocidad del viento	0
128562	7	Sololá	701	Sololá	4	Finca Santa Victoria	9	Septiembre	2023-04-09T00:00:00	2024-11-08T07:00:00	7	Dirección del viento	0
128563	7	Sololá	701	Sololá	4	Finca Santa Victoria	9	Septiembre	2023-04-09T00:00:00	2024-11-08T07:00:00	1	Precipitación	0
128564	7	Sololá	701	Sololá	4	Finca Santa Victoria	9	Septiembre	2023-04-09T00:00:00	2024-11-08T07:00:00	8	Radiación solar	26
128565	7	Sololá	701	Sololá	4	Finca Santa Victoria	9	Septiembre	2023-04-09T00:00:00	2024-11-08T08:00:00	2	Temperatura media	16.1
128566	7	Sololá	701	Sololá	4	Finca Santa Victoria	9	Septiembre	2023-04-09T00:00:00	2024-11-08T08:00:00	4	Temperatura máxima	16.1
128567	7	Sololá	701	Sololá	4	Finca Santa Victoria	9	Septiembre	2023-04-09T00:00:00	2024-11-08T08:00:00	3	Temperatura mínima	11.9
128568	7	Sololá	701	Sololá	4	Finca Santa Victoria	9	Septiembre	2023-04-09T00:00:00	2024-11-08T08:00:00	5	Humedad	86
128569	7	Sololá	701	Sololá	4	Finca Santa Victoria	9	Septiembre	2023-04-09T00:00:00	2024-11-08T08:00:00	6	Velocidad del viento	1.6
128570	7	Sololá	701	Sololá	4	Finca Santa Victoria	9	Septiembre	2023-04-09T00:00:00	2024-11-08T08:00:00	7	Dirección del viento	1.61
128571	7	Sololá	701	Sololá	4	Finca Santa Victoria	9	Septiembre	2023-04-09T00:00:00	2024-11-08T08:00:00	1	Precipitación	0
128572	7	Sololá	701	Sololá	4	Finca Santa Victoria	9	Septiembre	2023-04-09T00:00:00	2024-11-08T08:00:00	8	Radiación solar	218
128573	7	Sololá	701	Sololá	4	Finca Santa Victoria	9	Septiembre	2023-04-09T00:00:00	2024-11-08T09:00:00	2	Temperatura media	16.8
128574	7	Sololá	701	Sololá	4	Finca Santa Victoria	9	Septiembre	2023-04-09T00:00:00	2024-11-08T09:00:00	4	Temperatura máxima	17.3
128575	7	Sololá	701	Sololá	4	Finca Santa Victoria	9	Septiembre	2023-04-09T00:00:00	2024-11-08T09:00:00	3	Temperatura mínima	16.1
128576	7	Sololá	701	Sololá	4	Finca Santa Victoria	9	Septiembre	2023-04-09T00:00:00	2024-11-08T09:00:00	5	Humedad	81
128577	7	Sololá	701	Sololá	4	Finca Santa Victoria	9	Septiembre	2023-04-09T00:00:00	2024-11-08T09:00:00	6	Velocidad del viento	1.6
128578	7	Sololá	701	Sololá	4	Finca Santa Victoria	9	Septiembre	2023-04-09T00:00:00	2024-11-08T09:00:00	7	Dirección del viento	1.61
128579	7	Sololá	701	Sololá	4	Finca Santa Victoria	9	Septiembre	2023-04-09T00:00:00	2024-11-08T09:00:00	1	Precipitación	0
128580	7	Sololá	701	Sololá	4	Finca Santa Victoria	9	Septiembre	2023-04-09T00:00:00	2024-11-08T09:00:00	8	Radiación solar	294
128581	7	Sololá	701	Sololá	4	Finca Santa Victoria	9	Septiembre	2023-04-09T00:00:00	2024-11-08T10:00:00	2	Temperatura media	18.4
128582	7	Sololá	701	Sololá	4	Finca Santa Victoria	9	Septiembre	2023-04-09T00:00:00	2024-11-08T10:00:00	4	Temperatura máxima	18.6
128583	7	Sololá	701	Sololá	4	Finca Santa Victoria	9	Septiembre	2023-04-09T00:00:00	2024-11-08T10:00:00	3	Temperatura mínima	16.8
128584	7	Sololá	701	Sololá	4	Finca Santa Victoria	9	Septiembre	2023-04-09T00:00:00	2024-11-08T10:00:00	5	Humedad	77
128585	7	Sololá	701	Sololá	4	Finca Santa Victoria	9	Septiembre	2023-04-09T00:00:00	2024-11-08T10:00:00	6	Velocidad del viento	1.6
128586	7	Sololá	701	Sololá	4	Finca Santa Victoria	9	Septiembre	2023-04-09T00:00:00	2024-11-08T10:00:00	7	Dirección del viento	1.61
128587	7	Sololá	701	Sololá	4	Finca Santa Victoria	9	Septiembre	2023-04-09T00:00:00	2024-11-08T10:00:00	1	Precipitación	0
128588	7	Sololá	701	Sololá	4	Finca Santa Victoria	9	Septiembre	2023-04-09T00:00:00	2024-11-08T10:00:00	8	Radiación solar	158
128589	7	Sololá	701	Sololá	4	Finca Santa Victoria	9	Septiembre	2023-04-09T00:00:00	2024-11-08T11:00:00	2	Temperatura media	18.7
128590	7	Sololá	701	Sololá	4	Finca Santa Victoria	9	Septiembre	2023-04-09T00:00:00	2024-11-08T11:00:00	4	Temperatura máxima	19.1
128591	7	Sololá	701	Sololá	4	Finca Santa Victoria	9	Septiembre	2023-04-09T00:00:00	2024-11-08T11:00:00	3	Temperatura mínima	17.9
128592	7	Sololá	701	Sololá	4	Finca Santa Victoria	9	Septiembre	2023-04-09T00:00:00	2024-11-08T11:00:00	5	Humedad	73
128593	7	Sololá	701	Sololá	4	Finca Santa Victoria	9	Septiembre	2023-04-09T00:00:00	2024-11-08T11:00:00	6	Velocidad del viento	1.6
128594	7	Sololá	701	Sololá	4	Finca Santa Victoria	9	Septiembre	2023-04-09T00:00:00	2024-11-08T11:00:00	7	Dirección del viento	1.61
128595	7	Sololá	701	Sololá	4	Finca Santa Victoria	9	Septiembre	2023-04-09T00:00:00	2024-11-08T11:00:00	1	Precipitación	0
128596	7	Sololá	701	Sololá	4	Finca Santa Victoria	9	Septiembre	2023-04-09T00:00:00	2024-11-08T11:00:00	8	Radiación solar	189
128597	7	Sololá	701	Sololá	4	Finca Santa Victoria	9	Septiembre	2023-04-09T00:00:00	2024-11-08T12:00:00	2	Temperatura media	21.4
128598	7	Sololá	701	Sololá	4	Finca Santa Victoria	9	Septiembre	2023-04-09T00:00:00	2024-11-08T12:00:00	4	Temperatura máxima	22.1
128599	7	Sololá	701	Sololá	4	Finca Santa Victoria	9	Septiembre	2023-04-09T00:00:00	2024-11-08T12:00:00	3	Temperatura mínima	18.6
128600	7	Sololá	701	Sololá	4	Finca Santa Victoria	9	Septiembre	2023-04-09T00:00:00	2024-11-08T12:00:00	5	Humedad	63
128601	7	Sololá	701	Sololá	4	Finca Santa Victoria	9	Septiembre	2023-04-09T00:00:00	2024-11-08T12:00:00	6	Velocidad del viento	3.2
128602	7	Sololá	701	Sololá	4	Finca Santa Victoria	9	Septiembre	2023-04-09T00:00:00	2024-11-08T12:00:00	7	Dirección del viento	3.22
128603	7	Sololá	701	Sololá	4	Finca Santa Victoria	9	Septiembre	2023-04-09T00:00:00	2024-11-08T12:00:00	1	Precipitación	0
128604	7	Sololá	701	Sololá	4	Finca Santa Victoria	9	Septiembre	2023-04-09T00:00:00	2024-11-08T12:00:00	8	Radiación solar	892
128605	7	Sololá	701	Sololá	4	Finca Santa Victoria	9	Septiembre	2023-04-09T00:00:00	2024-11-08T13:00:00	2	Temperatura media	18.6
128606	7	Sololá	701	Sololá	4	Finca Santa Victoria	9	Septiembre	2023-04-09T00:00:00	2024-11-08T13:00:00	4	Temperatura máxima	21.4
128607	7	Sololá	701	Sololá	4	Finca Santa Victoria	9	Septiembre	2023-04-09T00:00:00	2024-11-08T13:00:00	3	Temperatura mínima	18.6
128608	7	Sololá	701	Sololá	4	Finca Santa Victoria	9	Septiembre	2023-04-09T00:00:00	2024-11-08T13:00:00	5	Humedad	87
128609	7	Sololá	701	Sololá	4	Finca Santa Victoria	9	Septiembre	2023-04-09T00:00:00	2024-11-08T13:00:00	6	Velocidad del viento	1.6
128610	7	Sololá	701	Sololá	4	Finca Santa Victoria	9	Septiembre	2023-04-09T00:00:00	2024-11-08T13:00:00	7	Dirección del viento	1.61
128611	7	Sololá	701	Sololá	4	Finca Santa Victoria	9	Septiembre	2023-04-09T00:00:00	2024-11-08T13:00:00	1	Precipitación	0
128612	7	Sololá	701	Sololá	4	Finca Santa Victoria	9	Septiembre	2023-04-09T00:00:00	2024-11-08T13:00:00	8	Radiación solar	141
128613	7	Sololá	701	Sololá	4	Finca Santa Victoria	9	Septiembre	2023-04-09T00:00:00	2024-11-08T14:00:00	2	Temperatura media	17.6
128614	7	Sololá	701	Sololá	4	Finca Santa Victoria	9	Septiembre	2023-04-09T00:00:00	2024-11-08T14:00:00	4	Temperatura máxima	18.6
128615	7	Sololá	701	Sololá	4	Finca Santa Victoria	9	Septiembre	2023-04-09T00:00:00	2024-11-08T14:00:00	3	Temperatura mínima	17.6
128616	7	Sololá	701	Sololá	4	Finca Santa Victoria	9	Septiembre	2023-04-09T00:00:00	2024-11-08T14:00:00	5	Humedad	90
128617	7	Sololá	701	Sololá	4	Finca Santa Victoria	9	Septiembre	2023-04-09T00:00:00	2024-11-08T14:00:00	6	Velocidad del viento	3.2
128618	7	Sololá	701	Sololá	4	Finca Santa Victoria	9	Septiembre	2023-04-09T00:00:00	2024-11-08T14:00:00	7	Dirección del viento	3.22
128619	7	Sololá	701	Sololá	4	Finca Santa Victoria	9	Septiembre	2023-04-09T00:00:00	2024-11-08T14:00:00	1	Precipitación	0
128620	7	Sololá	701	Sololá	4	Finca Santa Victoria	9	Septiembre	2023-04-09T00:00:00	2024-11-08T14:00:00	8	Radiación solar	153
128621	7	Sololá	701	Sololá	4	Finca Santa Victoria	9	Septiembre	2023-04-09T00:00:00	2024-11-08T15:00:00	2	Temperatura media	15.2
128622	7	Sololá	701	Sololá	4	Finca Santa Victoria	9	Septiembre	2023-04-09T00:00:00	2024-11-08T15:00:00	4	Temperatura máxima	17.9
128623	7	Sololá	701	Sololá	4	Finca Santa Victoria	9	Septiembre	2023-04-09T00:00:00	2024-11-08T15:00:00	3	Temperatura mínima	15.2
128624	7	Sololá	701	Sololá	4	Finca Santa Victoria	9	Septiembre	2023-04-09T00:00:00	2024-11-08T15:00:00	5	Humedad	96
128625	7	Sololá	701	Sololá	4	Finca Santa Victoria	9	Septiembre	2023-04-09T00:00:00	2024-11-08T15:00:00	6	Velocidad del viento	3.2
128626	7	Sololá	701	Sololá	4	Finca Santa Victoria	9	Septiembre	2023-04-09T00:00:00	2024-11-08T15:00:00	7	Dirección del viento	3.22
128627	7	Sololá	701	Sololá	4	Finca Santa Victoria	9	Septiembre	2023-04-09T00:00:00	2024-11-08T15:00:00	1	Precipitación	10.4
128628	7	Sololá	701	Sololá	4	Finca Santa Victoria	9	Septiembre	2023-04-09T00:00:00	2024-11-08T15:00:00	8	Radiación solar	69
128629	7	Sololá	701	Sololá	4	Finca Santa Victoria	9	Septiembre	2023-04-09T00:00:00	2024-11-08T16:00:00	2	Temperatura media	15.1
128630	7	Sololá	701	Sololá	4	Finca Santa Victoria	9	Septiembre	2023-04-09T00:00:00	2024-11-08T16:00:00	4	Temperatura máxima	15.2
128631	7	Sololá	701	Sololá	4	Finca Santa Victoria	9	Septiembre	2023-04-09T00:00:00	2024-11-08T16:00:00	3	Temperatura mínima	14.9
128632	7	Sololá	701	Sololá	4	Finca Santa Victoria	9	Septiembre	2023-04-09T00:00:00	2024-11-08T16:00:00	5	Humedad	97
128633	7	Sololá	701	Sololá	4	Finca Santa Victoria	9	Septiembre	2023-04-09T00:00:00	2024-11-08T16:00:00	6	Velocidad del viento	1.6
128634	7	Sololá	701	Sololá	4	Finca Santa Victoria	9	Septiembre	2023-04-09T00:00:00	2024-11-08T16:00:00	7	Dirección del viento	1.61
128635	7	Sololá	701	Sololá	4	Finca Santa Victoria	9	Septiembre	2023-04-09T00:00:00	2024-11-08T16:00:00	1	Precipitación	7.2
128636	7	Sololá	701	Sololá	4	Finca Santa Victoria	9	Septiembre	2023-04-09T00:00:00	2024-11-08T16:00:00	8	Radiación solar	45
128637	7	Sololá	701	Sololá	4	Finca Santa Victoria	9	Septiembre	2023-04-09T00:00:00	2024-11-08T17:00:00	2	Temperatura media	14.3
128638	7	Sololá	701	Sololá	4	Finca Santa Victoria	9	Septiembre	2023-04-09T00:00:00	2024-11-08T17:00:00	4	Temperatura máxima	15.1
128639	7	Sololá	701	Sololá	4	Finca Santa Victoria	9	Septiembre	2023-04-09T00:00:00	2024-11-08T17:00:00	3	Temperatura mínima	14.2
128640	7	Sololá	701	Sololá	4	Finca Santa Victoria	9	Septiembre	2023-04-09T00:00:00	2024-11-08T17:00:00	5	Humedad	97
128641	7	Sololá	701	Sololá	4	Finca Santa Victoria	9	Septiembre	2023-04-09T00:00:00	2024-11-08T17:00:00	6	Velocidad del viento	1.6
128642	7	Sololá	701	Sololá	4	Finca Santa Victoria	9	Septiembre	2023-04-09T00:00:00	2024-11-08T17:00:00	7	Dirección del viento	1.61
128643	7	Sololá	701	Sololá	4	Finca Santa Victoria	9	Septiembre	2023-04-09T00:00:00	2024-11-08T17:00:00	1	Precipitación	1.2
128644	7	Sololá	701	Sololá	4	Finca Santa Victoria	9	Septiembre	2023-04-09T00:00:00	2024-11-08T17:00:00	8	Radiación solar	17
128645	7	Sololá	701	Sololá	4	Finca Santa Victoria	9	Septiembre	2023-04-09T00:00:00	2024-11-08T18:00:00	2	Temperatura media	14.1
128646	7	Sololá	701	Sololá	4	Finca Santa Victoria	9	Septiembre	2023-04-09T00:00:00	2024-11-08T18:00:00	4	Temperatura máxima	14.3
128647	7	Sololá	701	Sololá	4	Finca Santa Victoria	9	Septiembre	2023-04-09T00:00:00	2024-11-08T18:00:00	3	Temperatura mínima	14.1
128648	7	Sololá	701	Sololá	4	Finca Santa Victoria	9	Septiembre	2023-04-09T00:00:00	2024-11-08T18:00:00	5	Humedad	98
128649	7	Sololá	701	Sololá	4	Finca Santa Victoria	9	Septiembre	2023-04-09T00:00:00	2024-11-08T18:00:00	6	Velocidad del viento	0
128650	7	Sololá	701	Sololá	4	Finca Santa Victoria	9	Septiembre	2023-04-09T00:00:00	2024-11-08T18:00:00	7	Dirección del viento	0
128651	7	Sololá	701	Sololá	4	Finca Santa Victoria	9	Septiembre	2023-04-09T00:00:00	2024-11-08T18:00:00	1	Precipitación	0.6
128652	7	Sololá	701	Sololá	4	Finca Santa Victoria	9	Septiembre	2023-04-09T00:00:00	2024-11-08T18:00:00	8	Radiación solar	7
128653	7	Sololá	701	Sololá	4	Finca Santa Victoria	9	Septiembre	2023-04-09T00:00:00	2024-11-08T19:00:00	2	Temperatura media	14.1
128654	7	Sololá	701	Sololá	4	Finca Santa Victoria	9	Septiembre	2023-04-09T00:00:00	2024-11-08T19:00:00	4	Temperatura máxima	14.2
128655	7	Sololá	701	Sololá	4	Finca Santa Victoria	9	Septiembre	2023-04-09T00:00:00	2024-11-08T19:00:00	3	Temperatura mínima	14
128656	7	Sololá	701	Sololá	4	Finca Santa Victoria	9	Septiembre	2023-04-09T00:00:00	2024-11-08T19:00:00	5	Humedad	98
128657	7	Sololá	701	Sololá	4	Finca Santa Victoria	9	Septiembre	2023-04-09T00:00:00	2024-11-08T19:00:00	6	Velocidad del viento	0
128658	7	Sololá	701	Sololá	4	Finca Santa Victoria	9	Septiembre	2023-04-09T00:00:00	2024-11-08T19:00:00	7	Dirección del viento	0
128659	7	Sololá	701	Sololá	4	Finca Santa Victoria	9	Septiembre	2023-04-09T00:00:00	2024-11-08T19:00:00	1	Precipitación	2.8
128660	7	Sololá	701	Sololá	4	Finca Santa Victoria	9	Septiembre	2023-04-09T00:00:00	2024-11-08T19:00:00	8	Radiación solar	0
128661	7	Sololá	701	Sololá	4	Finca Santa Victoria	9	Septiembre	2023-04-09T00:00:00	2024-11-08T20:00:00	2	Temperatura media	13.7
128662	7	Sololá	701	Sololá	4	Finca Santa Victoria	9	Septiembre	2023-04-09T00:00:00	2024-11-08T20:00:00	4	Temperatura máxima	14.1
128663	7	Sololá	701	Sololá	4	Finca Santa Victoria	9	Septiembre	2023-04-09T00:00:00	2024-11-08T20:00:00	3	Temperatura mínima	13.7
128664	7	Sololá	701	Sololá	4	Finca Santa Victoria	9	Septiembre	2023-04-09T00:00:00	2024-11-08T20:00:00	5	Humedad	98
128665	7	Sololá	701	Sololá	4	Finca Santa Victoria	9	Septiembre	2023-04-09T00:00:00	2024-11-08T20:00:00	6	Velocidad del viento	0
128666	7	Sololá	701	Sololá	4	Finca Santa Victoria	9	Septiembre	2023-04-09T00:00:00	2024-11-08T20:00:00	7	Dirección del viento	0
128667	7	Sololá	701	Sololá	4	Finca Santa Victoria	9	Septiembre	2023-04-09T00:00:00	2024-11-08T20:00:00	1	Precipitación	0
128668	7	Sololá	701	Sololá	4	Finca Santa Victoria	9	Septiembre	2023-04-09T00:00:00	2024-11-08T20:00:00	8	Radiación solar	0
128669	7	Sololá	701	Sololá	4	Finca Santa Victoria	9	Septiembre	2023-04-09T00:00:00	2024-11-08T21:00:00	2	Temperatura media	13.8
128670	7	Sololá	701	Sololá	4	Finca Santa Victoria	9	Septiembre	2023-04-09T00:00:00	2024-11-08T21:00:00	4	Temperatura máxima	13.9
128671	7	Sololá	701	Sololá	4	Finca Santa Victoria	9	Septiembre	2023-04-09T00:00:00	2024-11-08T21:00:00	3	Temperatura mínima	13.7
128672	7	Sololá	701	Sololá	4	Finca Santa Victoria	9	Septiembre	2023-04-09T00:00:00	2024-11-08T21:00:00	5	Humedad	98
128673	7	Sololá	701	Sololá	4	Finca Santa Victoria	9	Septiembre	2023-04-09T00:00:00	2024-11-08T21:00:00	6	Velocidad del viento	0
128674	7	Sololá	701	Sololá	4	Finca Santa Victoria	9	Septiembre	2023-04-09T00:00:00	2024-11-08T21:00:00	7	Dirección del viento	0
128675	7	Sololá	701	Sololá	4	Finca Santa Victoria	9	Septiembre	2023-04-09T00:00:00	2024-11-08T21:00:00	1	Precipitación	0.2
128676	7	Sololá	701	Sololá	4	Finca Santa Victoria	9	Septiembre	2023-04-09T00:00:00	2024-11-08T21:00:00	8	Radiación solar	0
128677	7	Sololá	701	Sololá	4	Finca Santa Victoria	9	Septiembre	2023-04-09T00:00:00	2024-11-08T22:00:00	2	Temperatura media	13.7
128678	7	Sololá	701	Sololá	4	Finca Santa Victoria	9	Septiembre	2023-04-09T00:00:00	2024-11-08T22:00:00	4	Temperatura máxima	13.8
128679	7	Sololá	701	Sololá	4	Finca Santa Victoria	9	Septiembre	2023-04-09T00:00:00	2024-11-08T22:00:00	3	Temperatura mínima	13.5
128680	7	Sololá	701	Sololá	4	Finca Santa Victoria	9	Septiembre	2023-04-09T00:00:00	2024-11-08T22:00:00	5	Humedad	98
128681	7	Sololá	701	Sololá	4	Finca Santa Victoria	9	Septiembre	2023-04-09T00:00:00	2024-11-08T22:00:00	6	Velocidad del viento	0
128682	7	Sololá	701	Sololá	4	Finca Santa Victoria	9	Septiembre	2023-04-09T00:00:00	2024-11-08T22:00:00	7	Dirección del viento	0
128683	7	Sololá	701	Sololá	4	Finca Santa Victoria	9	Septiembre	2023-04-09T00:00:00	2024-11-08T22:00:00	1	Precipitación	0.2
128684	7	Sololá	701	Sololá	4	Finca Santa Victoria	9	Septiembre	2023-04-09T00:00:00	2024-11-08T22:00:00	8	Radiación solar	0
128685	7	Sololá	701	Sololá	4	Finca Santa Victoria	9	Septiembre	2023-04-09T00:00:00	2024-11-08T23:00:00	2	Temperatura media	13.6
128686	7	Sololá	701	Sololá	4	Finca Santa Victoria	9	Septiembre	2023-04-09T00:00:00	2024-11-08T23:00:00	4	Temperatura máxima	13.7
128687	7	Sololá	701	Sololá	4	Finca Santa Victoria	9	Septiembre	2023-04-09T00:00:00	2024-11-08T23:00:00	3	Temperatura mínima	13.5
128688	7	Sololá	701	Sololá	4	Finca Santa Victoria	9	Septiembre	2023-04-09T00:00:00	2024-11-08T23:00:00	5	Humedad	98
128689	7	Sololá	701	Sololá	4	Finca Santa Victoria	9	Septiembre	2023-04-09T00:00:00	2024-11-08T23:00:00	6	Velocidad del viento	0
128690	7	Sololá	701	Sololá	4	Finca Santa Victoria	9	Septiembre	2023-04-09T00:00:00	2024-11-08T23:00:00	7	Dirección del viento	0
128691	7	Sololá	701	Sololá	4	Finca Santa Victoria	9	Septiembre	2023-04-09T00:00:00	2024-11-08T23:00:00	1	Precipitación	0.2
128692	7	Sololá	701	Sololá	4	Finca Santa Victoria	9	Septiembre	2023-04-09T00:00:00	2024-11-08T23:00:00	8	Radiación solar	0
128693	7	Sololá	701	Sololá	4	Finca Santa Victoria	9	Septiembre	2023-05-09T00:00:00	2024-11-08T00:00:00	2	Temperatura media	13.2
128694	7	Sololá	701	Sololá	4	Finca Santa Victoria	9	Septiembre	2023-05-09T00:00:00	2024-11-08T00:00:00	4	Temperatura máxima	13.6
128695	7	Sololá	701	Sololá	4	Finca Santa Victoria	9	Septiembre	2023-05-09T00:00:00	2024-11-08T00:00:00	3	Temperatura mínima	13.2
128696	7	Sololá	701	Sololá	4	Finca Santa Victoria	9	Septiembre	2023-05-09T00:00:00	2024-11-08T00:00:00	5	Humedad	98
128697	7	Sololá	701	Sololá	4	Finca Santa Victoria	9	Septiembre	2023-05-09T00:00:00	2024-11-08T00:00:00	6	Velocidad del viento	0
128698	7	Sololá	701	Sololá	4	Finca Santa Victoria	9	Septiembre	2023-05-09T00:00:00	2024-11-08T00:00:00	7	Dirección del viento	0
128699	7	Sololá	701	Sololá	4	Finca Santa Victoria	9	Septiembre	2023-05-09T00:00:00	2024-11-08T00:00:00	1	Precipitación	0
128700	7	Sololá	701	Sololá	4	Finca Santa Victoria	9	Septiembre	2023-05-09T00:00:00	2024-11-08T00:00:00	8	Radiación solar	0
128701	7	Sololá	701	Sololá	4	Finca Santa Victoria	9	Septiembre	2023-05-09T00:00:00	2024-11-08T01:00:00	2	Temperatura media	13.2
128702	7	Sololá	701	Sololá	4	Finca Santa Victoria	9	Septiembre	2023-05-09T00:00:00	2024-11-08T01:00:00	4	Temperatura máxima	13.4
128703	7	Sololá	701	Sololá	4	Finca Santa Victoria	9	Septiembre	2023-05-09T00:00:00	2024-11-08T01:00:00	3	Temperatura mínima	13.2
128704	7	Sololá	701	Sololá	4	Finca Santa Victoria	9	Septiembre	2023-05-09T00:00:00	2024-11-08T01:00:00	5	Humedad	98
128705	7	Sololá	701	Sololá	4	Finca Santa Victoria	9	Septiembre	2023-05-09T00:00:00	2024-11-08T01:00:00	6	Velocidad del viento	0
128706	7	Sololá	701	Sololá	4	Finca Santa Victoria	9	Septiembre	2023-05-09T00:00:00	2024-11-08T01:00:00	7	Dirección del viento	0
128707	7	Sololá	701	Sololá	4	Finca Santa Victoria	9	Septiembre	2023-05-09T00:00:00	2024-11-08T01:00:00	1	Precipitación	0
128708	7	Sololá	701	Sololá	4	Finca Santa Victoria	9	Septiembre	2023-05-09T00:00:00	2024-11-08T01:00:00	8	Radiación solar	0
128709	7	Sololá	701	Sololá	4	Finca Santa Victoria	9	Septiembre	2023-05-09T00:00:00	2024-11-08T02:00:00	2	Temperatura media	12.9
128710	7	Sololá	701	Sololá	4	Finca Santa Victoria	9	Septiembre	2023-05-09T00:00:00	2024-11-08T02:00:00	4	Temperatura máxima	13.2
128711	7	Sololá	701	Sololá	4	Finca Santa Victoria	9	Septiembre	2023-05-09T00:00:00	2024-11-08T02:00:00	3	Temperatura mínima	12.9
128712	7	Sololá	701	Sololá	4	Finca Santa Victoria	9	Septiembre	2023-05-09T00:00:00	2024-11-08T02:00:00	5	Humedad	98
128713	7	Sololá	701	Sololá	4	Finca Santa Victoria	9	Septiembre	2023-05-09T00:00:00	2024-11-08T02:00:00	6	Velocidad del viento	0
128714	7	Sololá	701	Sololá	4	Finca Santa Victoria	9	Septiembre	2023-05-09T00:00:00	2024-11-08T02:00:00	7	Dirección del viento	0
128715	7	Sololá	701	Sololá	4	Finca Santa Victoria	9	Septiembre	2023-05-09T00:00:00	2024-11-08T02:00:00	1	Precipitación	0
128716	7	Sololá	701	Sololá	4	Finca Santa Victoria	9	Septiembre	2023-05-09T00:00:00	2024-11-08T02:00:00	8	Radiación solar	0
128717	7	Sololá	701	Sololá	4	Finca Santa Victoria	9	Septiembre	2023-05-09T00:00:00	2024-11-08T03:00:00	2	Temperatura media	12.3
128718	7	Sololá	701	Sololá	4	Finca Santa Victoria	9	Septiembre	2023-05-09T00:00:00	2024-11-08T03:00:00	4	Temperatura máxima	12.9
128719	7	Sololá	701	Sololá	4	Finca Santa Victoria	9	Septiembre	2023-05-09T00:00:00	2024-11-08T03:00:00	3	Temperatura mínima	12.3
128720	7	Sololá	701	Sololá	4	Finca Santa Victoria	9	Septiembre	2023-05-09T00:00:00	2024-11-08T03:00:00	5	Humedad	98
128721	7	Sololá	701	Sololá	4	Finca Santa Victoria	9	Septiembre	2023-05-09T00:00:00	2024-11-08T03:00:00	6	Velocidad del viento	0
128722	7	Sololá	701	Sololá	4	Finca Santa Victoria	9	Septiembre	2023-05-09T00:00:00	2024-11-08T03:00:00	7	Dirección del viento	0
128723	7	Sololá	701	Sololá	4	Finca Santa Victoria	9	Septiembre	2023-05-09T00:00:00	2024-11-08T03:00:00	1	Precipitación	0
128724	7	Sololá	701	Sololá	4	Finca Santa Victoria	9	Septiembre	2023-05-09T00:00:00	2024-11-08T03:00:00	8	Radiación solar	0
128725	7	Sololá	701	Sololá	4	Finca Santa Victoria	9	Septiembre	2023-05-09T00:00:00	2024-11-08T04:00:00	2	Temperatura media	12.3
128726	7	Sololá	701	Sololá	4	Finca Santa Victoria	9	Septiembre	2023-05-09T00:00:00	2024-11-08T04:00:00	4	Temperatura máxima	12.6
128727	7	Sololá	701	Sololá	4	Finca Santa Victoria	9	Septiembre	2023-05-09T00:00:00	2024-11-08T04:00:00	3	Temperatura mínima	12.3
128728	7	Sololá	701	Sololá	4	Finca Santa Victoria	9	Septiembre	2023-05-09T00:00:00	2024-11-08T04:00:00	5	Humedad	98
128729	7	Sololá	701	Sololá	4	Finca Santa Victoria	9	Septiembre	2023-05-09T00:00:00	2024-11-08T04:00:00	6	Velocidad del viento	0
128730	7	Sololá	701	Sololá	4	Finca Santa Victoria	9	Septiembre	2023-05-09T00:00:00	2024-11-08T04:00:00	7	Dirección del viento	0
128731	7	Sololá	701	Sololá	4	Finca Santa Victoria	9	Septiembre	2023-05-09T00:00:00	2024-11-08T04:00:00	1	Precipitación	0
128732	7	Sololá	701	Sololá	4	Finca Santa Victoria	9	Septiembre	2023-05-09T00:00:00	2024-11-08T04:00:00	8	Radiación solar	0
128733	7	Sololá	701	Sololá	4	Finca Santa Victoria	9	Septiembre	2023-05-09T00:00:00	2024-11-08T05:00:00	2	Temperatura media	12.1
128734	7	Sololá	701	Sololá	4	Finca Santa Victoria	9	Septiembre	2023-05-09T00:00:00	2024-11-08T05:00:00	4	Temperatura máxima	12.3
128735	7	Sololá	701	Sololá	4	Finca Santa Victoria	9	Septiembre	2023-05-09T00:00:00	2024-11-08T05:00:00	3	Temperatura mínima	12.1
128736	7	Sololá	701	Sololá	4	Finca Santa Victoria	9	Septiembre	2023-05-09T00:00:00	2024-11-08T05:00:00	5	Humedad	98
128737	7	Sololá	701	Sololá	4	Finca Santa Victoria	9	Septiembre	2023-05-09T00:00:00	2024-11-08T05:00:00	6	Velocidad del viento	1.6
128738	7	Sololá	701	Sololá	4	Finca Santa Victoria	9	Septiembre	2023-05-09T00:00:00	2024-11-08T05:00:00	7	Dirección del viento	1.61
128739	7	Sololá	701	Sololá	4	Finca Santa Victoria	9	Septiembre	2023-05-09T00:00:00	2024-11-08T05:00:00	1	Precipitación	0.2
128740	7	Sololá	701	Sololá	4	Finca Santa Victoria	9	Septiembre	2023-05-09T00:00:00	2024-11-08T05:00:00	8	Radiación solar	0
128741	7	Sololá	701	Sololá	4	Finca Santa Victoria	9	Septiembre	2023-05-09T00:00:00	2024-11-08T06:00:00	2	Temperatura media	11.7
128742	7	Sololá	701	Sololá	4	Finca Santa Victoria	9	Septiembre	2023-05-09T00:00:00	2024-11-08T06:00:00	4	Temperatura máxima	12.2
128743	7	Sololá	701	Sololá	4	Finca Santa Victoria	9	Septiembre	2023-05-09T00:00:00	2024-11-08T06:00:00	3	Temperatura mínima	11.7
128744	7	Sololá	701	Sololá	4	Finca Santa Victoria	9	Septiembre	2023-05-09T00:00:00	2024-11-08T06:00:00	5	Humedad	97
128745	7	Sololá	701	Sololá	4	Finca Santa Victoria	9	Septiembre	2023-05-09T00:00:00	2024-11-08T06:00:00	6	Velocidad del viento	1.6
128746	7	Sololá	701	Sololá	4	Finca Santa Victoria	9	Septiembre	2023-05-09T00:00:00	2024-11-08T06:00:00	7	Dirección del viento	1.61
128747	7	Sololá	701	Sololá	4	Finca Santa Victoria	9	Septiembre	2023-05-09T00:00:00	2024-11-08T06:00:00	1	Precipitación	0
128748	7	Sololá	701	Sololá	4	Finca Santa Victoria	9	Septiembre	2023-05-09T00:00:00	2024-11-08T06:00:00	8	Radiación solar	0
128749	7	Sololá	701	Sololá	4	Finca Santa Victoria	9	Septiembre	2023-05-09T00:00:00	2024-11-08T07:00:00	2	Temperatura media	12.3
128750	7	Sololá	701	Sololá	4	Finca Santa Victoria	9	Septiembre	2023-05-09T00:00:00	2024-11-08T07:00:00	4	Temperatura máxima	12.3
128751	7	Sololá	701	Sololá	4	Finca Santa Victoria	9	Septiembre	2023-05-09T00:00:00	2024-11-08T07:00:00	3	Temperatura mínima	11.7
128752	7	Sololá	701	Sololá	4	Finca Santa Victoria	9	Septiembre	2023-05-09T00:00:00	2024-11-08T07:00:00	5	Humedad	96
128753	7	Sololá	701	Sololá	4	Finca Santa Victoria	9	Septiembre	2023-05-09T00:00:00	2024-11-08T07:00:00	6	Velocidad del viento	1.6
128754	7	Sololá	701	Sololá	4	Finca Santa Victoria	9	Septiembre	2023-05-09T00:00:00	2024-11-08T07:00:00	7	Dirección del viento	1.61
128755	7	Sololá	701	Sololá	4	Finca Santa Victoria	9	Septiembre	2023-05-09T00:00:00	2024-11-08T07:00:00	1	Precipitación	0
128756	7	Sololá	701	Sololá	4	Finca Santa Victoria	9	Septiembre	2023-05-09T00:00:00	2024-11-08T07:00:00	8	Radiación solar	12
128757	7	Sololá	701	Sololá	4	Finca Santa Victoria	9	Septiembre	2023-05-09T00:00:00	2024-11-08T08:00:00	2	Temperatura media	16.7
128758	7	Sololá	701	Sololá	4	Finca Santa Victoria	9	Septiembre	2023-05-09T00:00:00	2024-11-08T08:00:00	4	Temperatura máxima	16.7
128759	7	Sololá	701	Sololá	4	Finca Santa Victoria	9	Septiembre	2023-05-09T00:00:00	2024-11-08T08:00:00	3	Temperatura mínima	12.3
128760	7	Sololá	701	Sololá	4	Finca Santa Victoria	9	Septiembre	2023-05-09T00:00:00	2024-11-08T08:00:00	5	Humedad	86
128761	7	Sololá	701	Sololá	4	Finca Santa Victoria	9	Septiembre	2023-05-09T00:00:00	2024-11-08T08:00:00	6	Velocidad del viento	1.6
128762	7	Sololá	701	Sololá	4	Finca Santa Victoria	9	Septiembre	2023-05-09T00:00:00	2024-11-08T08:00:00	7	Dirección del viento	1.61
128763	7	Sololá	701	Sololá	4	Finca Santa Victoria	9	Septiembre	2023-05-09T00:00:00	2024-11-08T08:00:00	1	Precipitación	0
128764	7	Sololá	701	Sololá	4	Finca Santa Victoria	9	Septiembre	2023-05-09T00:00:00	2024-11-08T08:00:00	8	Radiación solar	251
128765	7	Sololá	701	Sololá	4	Finca Santa Victoria	9	Septiembre	2023-05-09T00:00:00	2024-11-08T09:00:00	2	Temperatura media	17.3
128766	7	Sololá	701	Sololá	4	Finca Santa Victoria	9	Septiembre	2023-05-09T00:00:00	2024-11-08T09:00:00	4	Temperatura máxima	17.4
128767	7	Sololá	701	Sololá	4	Finca Santa Victoria	9	Septiembre	2023-05-09T00:00:00	2024-11-08T09:00:00	3	Temperatura mínima	16.5
128768	7	Sololá	701	Sololá	4	Finca Santa Victoria	9	Septiembre	2023-05-09T00:00:00	2024-11-08T09:00:00	5	Humedad	81
128769	7	Sololá	701	Sololá	4	Finca Santa Victoria	9	Septiembre	2023-05-09T00:00:00	2024-11-08T09:00:00	6	Velocidad del viento	1.6
128770	7	Sololá	701	Sololá	4	Finca Santa Victoria	9	Septiembre	2023-05-09T00:00:00	2024-11-08T09:00:00	7	Dirección del viento	1.61
128771	7	Sololá	701	Sololá	4	Finca Santa Victoria	9	Septiembre	2023-05-09T00:00:00	2024-11-08T09:00:00	1	Precipitación	0
128772	7	Sololá	701	Sololá	4	Finca Santa Victoria	9	Septiembre	2023-05-09T00:00:00	2024-11-08T09:00:00	8	Radiación solar	310
128773	7	Sololá	701	Sololá	4	Finca Santa Victoria	9	Septiembre	2023-05-09T00:00:00	2024-11-08T10:00:00	2	Temperatura media	18.9
128774	7	Sololá	701	Sololá	4	Finca Santa Victoria	9	Septiembre	2023-05-09T00:00:00	2024-11-08T10:00:00	4	Temperatura máxima	18.9
128775	7	Sololá	701	Sololá	4	Finca Santa Victoria	9	Septiembre	2023-05-09T00:00:00	2024-11-08T10:00:00	3	Temperatura mínima	17.3
128776	7	Sololá	701	Sololá	4	Finca Santa Victoria	9	Septiembre	2023-05-09T00:00:00	2024-11-08T10:00:00	5	Humedad	75
128777	7	Sololá	701	Sololá	4	Finca Santa Victoria	9	Septiembre	2023-05-09T00:00:00	2024-11-08T10:00:00	6	Velocidad del viento	3.2
128778	7	Sololá	701	Sololá	4	Finca Santa Victoria	9	Septiembre	2023-05-09T00:00:00	2024-11-08T10:00:00	7	Dirección del viento	3.22
128779	7	Sololá	701	Sololá	4	Finca Santa Victoria	9	Septiembre	2023-05-09T00:00:00	2024-11-08T10:00:00	1	Precipitación	0
128780	7	Sololá	701	Sololá	4	Finca Santa Victoria	9	Septiembre	2023-05-09T00:00:00	2024-11-08T10:00:00	8	Radiación solar	288
128781	7	Sololá	701	Sololá	4	Finca Santa Victoria	9	Septiembre	2023-05-09T00:00:00	2024-11-08T11:00:00	2	Temperatura media	17.4
128782	7	Sololá	701	Sololá	4	Finca Santa Victoria	9	Septiembre	2023-05-09T00:00:00	2024-11-08T11:00:00	4	Temperatura máxima	19.2
128783	7	Sololá	701	Sololá	4	Finca Santa Victoria	9	Septiembre	2023-05-09T00:00:00	2024-11-08T11:00:00	3	Temperatura mínima	17.4
128784	7	Sololá	701	Sololá	4	Finca Santa Victoria	9	Septiembre	2023-05-09T00:00:00	2024-11-08T11:00:00	5	Humedad	83
128785	7	Sololá	701	Sololá	4	Finca Santa Victoria	9	Septiembre	2023-05-09T00:00:00	2024-11-08T11:00:00	6	Velocidad del viento	3.2
128786	7	Sololá	701	Sololá	4	Finca Santa Victoria	9	Septiembre	2023-05-09T00:00:00	2024-11-08T11:00:00	7	Dirección del viento	3.22
128787	7	Sololá	701	Sololá	4	Finca Santa Victoria	9	Septiembre	2023-05-09T00:00:00	2024-11-08T11:00:00	1	Precipitación	0
128788	7	Sololá	701	Sololá	4	Finca Santa Victoria	9	Septiembre	2023-05-09T00:00:00	2024-11-08T11:00:00	8	Radiación solar	421
128789	7	Sololá	701	Sololá	4	Finca Santa Victoria	9	Septiembre	2023-05-09T00:00:00	2024-11-08T12:00:00	2	Temperatura media	17.1
128790	7	Sololá	701	Sololá	4	Finca Santa Victoria	9	Septiembre	2023-05-09T00:00:00	2024-11-08T12:00:00	4	Temperatura máxima	18.2
128791	7	Sololá	701	Sololá	4	Finca Santa Victoria	9	Septiembre	2023-05-09T00:00:00	2024-11-08T12:00:00	3	Temperatura mínima	16.9
128792	7	Sololá	701	Sololá	4	Finca Santa Victoria	9	Septiembre	2023-05-09T00:00:00	2024-11-08T12:00:00	5	Humedad	90
128793	7	Sololá	701	Sololá	4	Finca Santa Victoria	9	Septiembre	2023-05-09T00:00:00	2024-11-08T12:00:00	6	Velocidad del viento	3.2
128794	7	Sololá	701	Sololá	4	Finca Santa Victoria	9	Septiembre	2023-05-09T00:00:00	2024-11-08T12:00:00	7	Dirección del viento	3.22
128795	7	Sololá	701	Sololá	4	Finca Santa Victoria	9	Septiembre	2023-05-09T00:00:00	2024-11-08T12:00:00	1	Precipitación	0
128796	7	Sololá	701	Sololá	4	Finca Santa Victoria	9	Septiembre	2023-05-09T00:00:00	2024-11-08T12:00:00	8	Radiación solar	237
128797	7	Sololá	701	Sololá	4	Finca Santa Victoria	9	Septiembre	2023-05-09T00:00:00	2024-11-08T13:00:00	2	Temperatura media	17.6
128798	7	Sololá	701	Sololá	4	Finca Santa Victoria	9	Septiembre	2023-05-09T00:00:00	2024-11-08T13:00:00	4	Temperatura máxima	17.6
128799	7	Sololá	701	Sololá	4	Finca Santa Victoria	9	Septiembre	2023-05-09T00:00:00	2024-11-08T13:00:00	3	Temperatura mínima	16.5
128800	7	Sololá	701	Sololá	4	Finca Santa Victoria	9	Septiembre	2023-05-09T00:00:00	2024-11-08T13:00:00	5	Humedad	91
128801	7	Sololá	701	Sololá	4	Finca Santa Victoria	9	Septiembre	2023-05-09T00:00:00	2024-11-08T13:00:00	6	Velocidad del viento	3.2
128802	7	Sololá	701	Sololá	4	Finca Santa Victoria	9	Septiembre	2023-05-09T00:00:00	2024-11-08T13:00:00	7	Dirección del viento	3.22
128803	7	Sololá	701	Sololá	4	Finca Santa Victoria	9	Septiembre	2023-05-09T00:00:00	2024-11-08T13:00:00	1	Precipitación	0
128804	7	Sololá	701	Sololá	4	Finca Santa Victoria	9	Septiembre	2023-05-09T00:00:00	2024-11-08T13:00:00	8	Radiación solar	195
128805	7	Sololá	701	Sololá	4	Finca Santa Victoria	9	Septiembre	2023-05-09T00:00:00	2024-11-08T14:00:00	2	Temperatura media	15.1
128806	7	Sololá	701	Sololá	4	Finca Santa Victoria	9	Septiembre	2023-05-09T00:00:00	2024-11-08T14:00:00	4	Temperatura máxima	17.7
128807	7	Sololá	701	Sololá	4	Finca Santa Victoria	9	Septiembre	2023-05-09T00:00:00	2024-11-08T14:00:00	3	Temperatura mínima	15.1
128808	7	Sololá	701	Sololá	4	Finca Santa Victoria	9	Septiembre	2023-05-09T00:00:00	2024-11-08T14:00:00	5	Humedad	94
128809	7	Sololá	701	Sololá	4	Finca Santa Victoria	9	Septiembre	2023-05-09T00:00:00	2024-11-08T14:00:00	6	Velocidad del viento	3.2
128810	7	Sololá	701	Sololá	4	Finca Santa Victoria	9	Septiembre	2023-05-09T00:00:00	2024-11-08T14:00:00	7	Dirección del viento	3.22
128811	7	Sololá	701	Sololá	4	Finca Santa Victoria	9	Septiembre	2023-05-09T00:00:00	2024-11-08T14:00:00	1	Precipitación	8.4
128812	7	Sololá	701	Sololá	4	Finca Santa Victoria	9	Septiembre	2023-05-09T00:00:00	2024-11-08T14:00:00	8	Radiación solar	60
128813	7	Sololá	701	Sololá	4	Finca Santa Victoria	9	Septiembre	2023-05-09T00:00:00	2024-11-08T15:00:00	2	Temperatura media	14.4
128814	7	Sololá	701	Sololá	4	Finca Santa Victoria	9	Septiembre	2023-05-09T00:00:00	2024-11-08T15:00:00	4	Temperatura máxima	15.1
128815	7	Sololá	701	Sololá	4	Finca Santa Victoria	9	Septiembre	2023-05-09T00:00:00	2024-11-08T15:00:00	3	Temperatura mínima	14.4
128816	7	Sololá	701	Sololá	4	Finca Santa Victoria	9	Septiembre	2023-05-09T00:00:00	2024-11-08T15:00:00	5	Humedad	97
128817	7	Sololá	701	Sololá	4	Finca Santa Victoria	9	Septiembre	2023-05-09T00:00:00	2024-11-08T15:00:00	6	Velocidad del viento	1.6
128818	7	Sololá	701	Sololá	4	Finca Santa Victoria	9	Septiembre	2023-05-09T00:00:00	2024-11-08T15:00:00	7	Dirección del viento	1.61
128819	7	Sololá	701	Sololá	4	Finca Santa Victoria	9	Septiembre	2023-05-09T00:00:00	2024-11-08T15:00:00	1	Precipitación	1.4
128820	7	Sololá	701	Sololá	4	Finca Santa Victoria	9	Septiembre	2023-05-09T00:00:00	2024-11-08T15:00:00	8	Radiación solar	29
128821	7	Sololá	701	Sololá	4	Finca Santa Victoria	9	Septiembre	2023-05-09T00:00:00	2024-11-08T16:00:00	2	Temperatura media	13.9
128822	7	Sololá	701	Sololá	4	Finca Santa Victoria	9	Septiembre	2023-05-09T00:00:00	2024-11-08T16:00:00	4	Temperatura máxima	14.4
128823	7	Sololá	701	Sololá	4	Finca Santa Victoria	9	Septiembre	2023-05-09T00:00:00	2024-11-08T16:00:00	3	Temperatura mínima	13.9
128824	7	Sololá	701	Sololá	4	Finca Santa Victoria	9	Septiembre	2023-05-09T00:00:00	2024-11-08T16:00:00	5	Humedad	97
128825	7	Sololá	701	Sololá	4	Finca Santa Victoria	9	Septiembre	2023-05-09T00:00:00	2024-11-08T16:00:00	6	Velocidad del viento	0
128826	7	Sololá	701	Sololá	4	Finca Santa Victoria	9	Septiembre	2023-05-09T00:00:00	2024-11-08T16:00:00	7	Dirección del viento	0
128827	7	Sololá	701	Sololá	4	Finca Santa Victoria	9	Septiembre	2023-05-09T00:00:00	2024-11-08T16:00:00	1	Precipitación	0.2
128828	7	Sololá	701	Sololá	4	Finca Santa Victoria	9	Septiembre	2023-05-09T00:00:00	2024-11-08T16:00:00	8	Radiación solar	14
128829	7	Sololá	701	Sololá	4	Finca Santa Victoria	9	Septiembre	2023-05-09T00:00:00	2024-11-08T17:00:00	2	Temperatura media	13.6
128830	7	Sololá	701	Sololá	4	Finca Santa Victoria	9	Septiembre	2023-05-09T00:00:00	2024-11-08T17:00:00	4	Temperatura máxima	13.9
128831	7	Sololá	701	Sololá	4	Finca Santa Victoria	9	Septiembre	2023-05-09T00:00:00	2024-11-08T17:00:00	3	Temperatura mínima	13.6
128832	7	Sololá	701	Sololá	4	Finca Santa Victoria	9	Septiembre	2023-05-09T00:00:00	2024-11-08T17:00:00	5	Humedad	97
128833	7	Sololá	701	Sololá	4	Finca Santa Victoria	9	Septiembre	2023-05-09T00:00:00	2024-11-08T17:00:00	6	Velocidad del viento	0
128834	7	Sololá	701	Sololá	4	Finca Santa Victoria	9	Septiembre	2023-05-09T00:00:00	2024-11-08T17:00:00	7	Dirección del viento	0
128835	7	Sololá	701	Sololá	4	Finca Santa Victoria	9	Septiembre	2023-05-09T00:00:00	2024-11-08T17:00:00	1	Precipitación	0
128836	7	Sololá	701	Sololá	4	Finca Santa Victoria	9	Septiembre	2023-05-09T00:00:00	2024-11-08T17:00:00	8	Radiación solar	13
128837	7	Sololá	701	Sololá	4	Finca Santa Victoria	9	Septiembre	2023-05-09T00:00:00	2024-11-08T18:00:00	2	Temperatura media	13.5
128838	7	Sololá	701	Sololá	4	Finca Santa Victoria	9	Septiembre	2023-05-09T00:00:00	2024-11-08T18:00:00	4	Temperatura máxima	13.7
128839	7	Sololá	701	Sololá	4	Finca Santa Victoria	9	Septiembre	2023-05-09T00:00:00	2024-11-08T18:00:00	3	Temperatura mínima	13.4
128840	7	Sololá	701	Sololá	4	Finca Santa Victoria	9	Septiembre	2023-05-09T00:00:00	2024-11-08T18:00:00	5	Humedad	97
128841	7	Sololá	701	Sololá	4	Finca Santa Victoria	9	Septiembre	2023-05-09T00:00:00	2024-11-08T18:00:00	6	Velocidad del viento	0
128842	7	Sololá	701	Sololá	4	Finca Santa Victoria	9	Septiembre	2023-05-09T00:00:00	2024-11-08T18:00:00	7	Dirección del viento	0
128843	7	Sololá	701	Sololá	4	Finca Santa Victoria	9	Septiembre	2023-05-09T00:00:00	2024-11-08T18:00:00	1	Precipitación	0.2
128844	7	Sololá	701	Sololá	4	Finca Santa Victoria	9	Septiembre	2023-05-09T00:00:00	2024-11-08T18:00:00	8	Radiación solar	3
128845	7	Sololá	701	Sololá	4	Finca Santa Victoria	9	Septiembre	2023-05-09T00:00:00	2024-11-08T19:00:00	2	Temperatura media	13
128846	7	Sololá	701	Sololá	4	Finca Santa Victoria	9	Septiembre	2023-05-09T00:00:00	2024-11-08T19:00:00	4	Temperatura máxima	13.5
128847	7	Sololá	701	Sololá	4	Finca Santa Victoria	9	Septiembre	2023-05-09T00:00:00	2024-11-08T19:00:00	3	Temperatura mínima	13
128848	7	Sololá	701	Sololá	4	Finca Santa Victoria	9	Septiembre	2023-05-09T00:00:00	2024-11-08T19:00:00	5	Humedad	95
128849	7	Sololá	701	Sololá	4	Finca Santa Victoria	9	Septiembre	2023-05-09T00:00:00	2024-11-08T19:00:00	6	Velocidad del viento	0
128850	7	Sololá	701	Sololá	4	Finca Santa Victoria	9	Septiembre	2023-05-09T00:00:00	2024-11-08T19:00:00	7	Dirección del viento	0
128851	7	Sololá	701	Sololá	4	Finca Santa Victoria	9	Septiembre	2023-05-09T00:00:00	2024-11-08T19:00:00	1	Precipitación	0
128852	7	Sololá	701	Sololá	4	Finca Santa Victoria	9	Septiembre	2023-05-09T00:00:00	2024-11-08T19:00:00	8	Radiación solar	0
128853	7	Sololá	701	Sololá	4	Finca Santa Victoria	9	Septiembre	2023-05-09T00:00:00	2024-11-08T20:00:00	2	Temperatura media	13.3
128854	7	Sololá	701	Sololá	4	Finca Santa Victoria	9	Septiembre	2023-05-09T00:00:00	2024-11-08T20:00:00	4	Temperatura máxima	13.3
128855	7	Sololá	701	Sololá	4	Finca Santa Victoria	9	Septiembre	2023-05-09T00:00:00	2024-11-08T20:00:00	3	Temperatura mínima	13
128856	7	Sololá	701	Sololá	4	Finca Santa Victoria	9	Septiembre	2023-05-09T00:00:00	2024-11-08T20:00:00	5	Humedad	96
128857	7	Sololá	701	Sololá	4	Finca Santa Victoria	9	Septiembre	2023-05-09T00:00:00	2024-11-08T20:00:00	6	Velocidad del viento	0
128858	7	Sololá	701	Sololá	4	Finca Santa Victoria	9	Septiembre	2023-05-09T00:00:00	2024-11-08T20:00:00	7	Dirección del viento	0
128859	7	Sololá	701	Sololá	4	Finca Santa Victoria	9	Septiembre	2023-05-09T00:00:00	2024-11-08T20:00:00	1	Precipitación	0
128860	7	Sololá	701	Sololá	4	Finca Santa Victoria	9	Septiembre	2023-05-09T00:00:00	2024-11-08T20:00:00	8	Radiación solar	0
128861	7	Sololá	701	Sololá	4	Finca Santa Victoria	9	Septiembre	2023-05-09T00:00:00	2024-11-08T21:00:00	2	Temperatura media	13.4
128862	7	Sololá	701	Sololá	4	Finca Santa Victoria	9	Septiembre	2023-05-09T00:00:00	2024-11-08T21:00:00	4	Temperatura máxima	13.6
128863	7	Sololá	701	Sololá	4	Finca Santa Victoria	9	Septiembre	2023-05-09T00:00:00	2024-11-08T21:00:00	3	Temperatura mínima	13.3
128864	7	Sololá	701	Sololá	4	Finca Santa Victoria	9	Septiembre	2023-05-09T00:00:00	2024-11-08T21:00:00	5	Humedad	96
128865	7	Sololá	701	Sololá	4	Finca Santa Victoria	9	Septiembre	2023-05-09T00:00:00	2024-11-08T21:00:00	6	Velocidad del viento	0
128866	7	Sololá	701	Sololá	4	Finca Santa Victoria	9	Septiembre	2023-05-09T00:00:00	2024-11-08T21:00:00	7	Dirección del viento	0
128867	7	Sololá	701	Sololá	4	Finca Santa Victoria	9	Septiembre	2023-05-09T00:00:00	2024-11-08T21:00:00	1	Precipitación	0
128868	7	Sololá	701	Sololá	4	Finca Santa Victoria	9	Septiembre	2023-05-09T00:00:00	2024-11-08T21:00:00	8	Radiación solar	0
128869	7	Sololá	701	Sololá	4	Finca Santa Victoria	9	Septiembre	2023-05-09T00:00:00	2024-11-08T22:00:00	2	Temperatura media	13.4
128870	7	Sololá	701	Sololá	4	Finca Santa Victoria	9	Septiembre	2023-05-09T00:00:00	2024-11-08T22:00:00	4	Temperatura máxima	13.5
128871	7	Sololá	701	Sololá	4	Finca Santa Victoria	9	Septiembre	2023-05-09T00:00:00	2024-11-08T22:00:00	3	Temperatura mínima	13.2
128872	7	Sololá	701	Sololá	4	Finca Santa Victoria	9	Septiembre	2023-05-09T00:00:00	2024-11-08T22:00:00	5	Humedad	95
128873	7	Sololá	701	Sololá	4	Finca Santa Victoria	9	Septiembre	2023-05-09T00:00:00	2024-11-08T22:00:00	6	Velocidad del viento	1.6
128874	7	Sololá	701	Sololá	4	Finca Santa Victoria	9	Septiembre	2023-05-09T00:00:00	2024-11-08T22:00:00	7	Dirección del viento	1.61
128875	7	Sololá	701	Sololá	4	Finca Santa Victoria	9	Septiembre	2023-05-09T00:00:00	2024-11-08T22:00:00	1	Precipitación	0
128876	7	Sololá	701	Sololá	4	Finca Santa Victoria	9	Septiembre	2023-05-09T00:00:00	2024-11-08T22:00:00	8	Radiación solar	0
128877	7	Sololá	701	Sololá	4	Finca Santa Victoria	9	Septiembre	2023-05-09T00:00:00	2024-11-08T23:00:00	2	Temperatura media	13.3
128878	7	Sololá	701	Sololá	4	Finca Santa Victoria	9	Septiembre	2023-05-09T00:00:00	2024-11-08T23:00:00	4	Temperatura máxima	13.4
128879	7	Sololá	701	Sololá	4	Finca Santa Victoria	9	Septiembre	2023-05-09T00:00:00	2024-11-08T23:00:00	3	Temperatura mínima	13.1
128880	7	Sololá	701	Sololá	4	Finca Santa Victoria	9	Septiembre	2023-05-09T00:00:00	2024-11-08T23:00:00	5	Humedad	96
128881	7	Sololá	701	Sololá	4	Finca Santa Victoria	9	Septiembre	2023-05-09T00:00:00	2024-11-08T23:00:00	6	Velocidad del viento	1.6
128882	7	Sololá	701	Sololá	4	Finca Santa Victoria	9	Septiembre	2023-05-09T00:00:00	2024-11-08T23:00:00	7	Dirección del viento	1.61
128883	7	Sololá	701	Sololá	4	Finca Santa Victoria	9	Septiembre	2023-05-09T00:00:00	2024-11-08T23:00:00	1	Precipitación	0
128884	7	Sololá	701	Sololá	4	Finca Santa Victoria	9	Septiembre	2023-05-09T00:00:00	2024-11-08T23:00:00	8	Radiación solar	0
128885	7	Sololá	701	Sololá	4	Finca Santa Victoria	9	Septiembre	2023-06-09T00:00:00	2024-11-08T00:00:00	2	Temperatura media	13.3
128886	7	Sololá	701	Sololá	4	Finca Santa Victoria	9	Septiembre	2023-06-09T00:00:00	2024-11-08T00:00:00	4	Temperatura máxima	13.6
128887	7	Sololá	701	Sololá	4	Finca Santa Victoria	9	Septiembre	2023-06-09T00:00:00	2024-11-08T00:00:00	3	Temperatura mínima	13.2
128888	7	Sololá	701	Sololá	4	Finca Santa Victoria	9	Septiembre	2023-06-09T00:00:00	2024-11-08T00:00:00	5	Humedad	94
128889	7	Sololá	701	Sololá	4	Finca Santa Victoria	9	Septiembre	2023-06-09T00:00:00	2024-11-08T00:00:00	6	Velocidad del viento	1.6
128890	7	Sololá	701	Sololá	4	Finca Santa Victoria	9	Septiembre	2023-06-09T00:00:00	2024-11-08T00:00:00	7	Dirección del viento	1.61
128891	7	Sololá	701	Sololá	4	Finca Santa Victoria	9	Septiembre	2023-06-09T00:00:00	2024-11-08T00:00:00	1	Precipitación	0
128892	7	Sololá	701	Sololá	4	Finca Santa Victoria	9	Septiembre	2023-06-09T00:00:00	2024-11-08T00:00:00	8	Radiación solar	0
128893	7	Sololá	701	Sololá	4	Finca Santa Victoria	9	Septiembre	2023-06-09T00:00:00	2024-11-08T01:00:00	2	Temperatura media	13.6
128894	7	Sololá	701	Sololá	4	Finca Santa Victoria	9	Septiembre	2023-06-09T00:00:00	2024-11-08T01:00:00	4	Temperatura máxima	13.6
128895	7	Sololá	701	Sololá	4	Finca Santa Victoria	9	Septiembre	2023-06-09T00:00:00	2024-11-08T01:00:00	3	Temperatura mínima	13.1
128896	7	Sololá	701	Sololá	4	Finca Santa Victoria	9	Septiembre	2023-06-09T00:00:00	2024-11-08T01:00:00	5	Humedad	93
128897	7	Sololá	701	Sololá	4	Finca Santa Victoria	9	Septiembre	2023-06-09T00:00:00	2024-11-08T01:00:00	6	Velocidad del viento	1.6
128898	7	Sololá	701	Sololá	4	Finca Santa Victoria	9	Septiembre	2023-06-09T00:00:00	2024-11-08T01:00:00	7	Dirección del viento	1.61
128899	7	Sololá	701	Sololá	4	Finca Santa Victoria	9	Septiembre	2023-06-09T00:00:00	2024-11-08T01:00:00	1	Precipitación	0
128900	7	Sololá	701	Sololá	4	Finca Santa Victoria	9	Septiembre	2023-06-09T00:00:00	2024-11-08T01:00:00	8	Radiación solar	0
128901	7	Sololá	701	Sololá	4	Finca Santa Victoria	9	Septiembre	2023-06-09T00:00:00	2024-11-08T02:00:00	2	Temperatura media	13.4
128902	7	Sololá	701	Sololá	4	Finca Santa Victoria	9	Septiembre	2023-06-09T00:00:00	2024-11-08T02:00:00	4	Temperatura máxima	13.7
128903	7	Sololá	701	Sololá	4	Finca Santa Victoria	9	Septiembre	2023-06-09T00:00:00	2024-11-08T02:00:00	3	Temperatura mínima	13.3
128904	7	Sololá	701	Sololá	4	Finca Santa Victoria	9	Septiembre	2023-06-09T00:00:00	2024-11-08T02:00:00	5	Humedad	93
128905	7	Sololá	701	Sololá	4	Finca Santa Victoria	9	Septiembre	2023-06-09T00:00:00	2024-11-08T02:00:00	6	Velocidad del viento	1.6
128906	7	Sololá	701	Sololá	4	Finca Santa Victoria	9	Septiembre	2023-06-09T00:00:00	2024-11-08T02:00:00	7	Dirección del viento	1.61
128907	7	Sololá	701	Sololá	4	Finca Santa Victoria	9	Septiembre	2023-06-09T00:00:00	2024-11-08T02:00:00	1	Precipitación	0
128908	7	Sololá	701	Sololá	4	Finca Santa Victoria	9	Septiembre	2023-06-09T00:00:00	2024-11-08T02:00:00	8	Radiación solar	0
128909	7	Sololá	701	Sololá	4	Finca Santa Victoria	9	Septiembre	2023-06-09T00:00:00	2024-11-08T03:00:00	2	Temperatura media	12.8
128910	7	Sololá	701	Sololá	4	Finca Santa Victoria	9	Septiembre	2023-06-09T00:00:00	2024-11-08T03:00:00	4	Temperatura máxima	13.5
128911	7	Sololá	701	Sololá	4	Finca Santa Victoria	9	Septiembre	2023-06-09T00:00:00	2024-11-08T03:00:00	3	Temperatura mínima	12.8
128912	7	Sololá	701	Sololá	4	Finca Santa Victoria	9	Septiembre	2023-06-09T00:00:00	2024-11-08T03:00:00	5	Humedad	95
128913	7	Sololá	701	Sololá	4	Finca Santa Victoria	9	Septiembre	2023-06-09T00:00:00	2024-11-08T03:00:00	6	Velocidad del viento	0
128914	7	Sololá	701	Sololá	4	Finca Santa Victoria	9	Septiembre	2023-06-09T00:00:00	2024-11-08T03:00:00	7	Dirección del viento	0
128915	7	Sololá	701	Sololá	4	Finca Santa Victoria	9	Septiembre	2023-06-09T00:00:00	2024-11-08T03:00:00	1	Precipitación	0
128916	7	Sololá	701	Sololá	4	Finca Santa Victoria	9	Septiembre	2023-06-09T00:00:00	2024-11-08T03:00:00	8	Radiación solar	0
128917	7	Sololá	701	Sololá	4	Finca Santa Victoria	9	Septiembre	2023-06-09T00:00:00	2024-11-08T04:00:00	2	Temperatura media	12.6
128918	7	Sololá	701	Sololá	4	Finca Santa Victoria	9	Septiembre	2023-06-09T00:00:00	2024-11-08T04:00:00	4	Temperatura máxima	13
128919	7	Sololá	701	Sololá	4	Finca Santa Victoria	9	Septiembre	2023-06-09T00:00:00	2024-11-08T04:00:00	3	Temperatura mínima	12.6
128920	7	Sololá	701	Sololá	4	Finca Santa Victoria	9	Septiembre	2023-06-09T00:00:00	2024-11-08T04:00:00	5	Humedad	96
128921	7	Sololá	701	Sololá	4	Finca Santa Victoria	9	Septiembre	2023-06-09T00:00:00	2024-11-08T04:00:00	6	Velocidad del viento	0
128922	7	Sololá	701	Sololá	4	Finca Santa Victoria	9	Septiembre	2023-06-09T00:00:00	2024-11-08T04:00:00	7	Dirección del viento	0
128923	7	Sololá	701	Sololá	4	Finca Santa Victoria	9	Septiembre	2023-06-09T00:00:00	2024-11-08T04:00:00	1	Precipitación	0
128924	7	Sololá	701	Sololá	4	Finca Santa Victoria	9	Septiembre	2023-06-09T00:00:00	2024-11-08T04:00:00	8	Radiación solar	0
128925	7	Sololá	701	Sololá	4	Finca Santa Victoria	9	Septiembre	2023-06-09T00:00:00	2024-11-08T05:00:00	2	Temperatura media	12.8
128926	7	Sololá	701	Sololá	4	Finca Santa Victoria	9	Septiembre	2023-06-09T00:00:00	2024-11-08T05:00:00	4	Temperatura máxima	12.8
128927	7	Sololá	701	Sololá	4	Finca Santa Victoria	9	Septiembre	2023-06-09T00:00:00	2024-11-08T05:00:00	3	Temperatura mínima	12.6
128928	7	Sololá	701	Sololá	4	Finca Santa Victoria	9	Septiembre	2023-06-09T00:00:00	2024-11-08T05:00:00	5	Humedad	93
128929	7	Sololá	701	Sololá	4	Finca Santa Victoria	9	Septiembre	2023-06-09T00:00:00	2024-11-08T05:00:00	6	Velocidad del viento	0
128930	7	Sololá	701	Sololá	4	Finca Santa Victoria	9	Septiembre	2023-06-09T00:00:00	2024-11-08T05:00:00	7	Dirección del viento	0
128931	7	Sololá	701	Sololá	4	Finca Santa Victoria	9	Septiembre	2023-06-09T00:00:00	2024-11-08T05:00:00	1	Precipitación	0
128932	7	Sololá	701	Sololá	4	Finca Santa Victoria	9	Septiembre	2023-06-09T00:00:00	2024-11-08T05:00:00	8	Radiación solar	0
128933	7	Sololá	701	Sololá	4	Finca Santa Victoria	9	Septiembre	2023-06-09T00:00:00	2024-11-08T06:00:00	2	Temperatura media	12.8
128934	7	Sololá	701	Sololá	4	Finca Santa Victoria	9	Septiembre	2023-06-09T00:00:00	2024-11-08T06:00:00	4	Temperatura máxima	13.3
128935	7	Sololá	701	Sololá	4	Finca Santa Victoria	9	Septiembre	2023-06-09T00:00:00	2024-11-08T06:00:00	3	Temperatura mínima	12.8
128936	7	Sololá	701	Sololá	4	Finca Santa Victoria	9	Septiembre	2023-06-09T00:00:00	2024-11-08T06:00:00	5	Humedad	93
128937	7	Sololá	701	Sololá	4	Finca Santa Victoria	9	Septiembre	2023-06-09T00:00:00	2024-11-08T06:00:00	6	Velocidad del viento	0
128938	7	Sololá	701	Sololá	4	Finca Santa Victoria	9	Septiembre	2023-06-09T00:00:00	2024-11-08T06:00:00	7	Dirección del viento	0
128939	7	Sololá	701	Sololá	4	Finca Santa Victoria	9	Septiembre	2023-06-09T00:00:00	2024-11-08T06:00:00	1	Precipitación	0
128940	7	Sololá	701	Sololá	4	Finca Santa Victoria	9	Septiembre	2023-06-09T00:00:00	2024-11-08T06:00:00	8	Radiación solar	0
128941	7	Sololá	701	Sololá	4	Finca Santa Victoria	9	Septiembre	2023-06-09T00:00:00	2024-11-08T07:00:00	2	Temperatura media	13.3
128942	7	Sololá	701	Sololá	4	Finca Santa Victoria	9	Septiembre	2023-06-09T00:00:00	2024-11-08T07:00:00	4	Temperatura máxima	13.3
128943	7	Sololá	701	Sololá	4	Finca Santa Victoria	9	Septiembre	2023-06-09T00:00:00	2024-11-08T07:00:00	3	Temperatura mínima	12.8
128944	7	Sololá	701	Sololá	4	Finca Santa Victoria	9	Septiembre	2023-06-09T00:00:00	2024-11-08T07:00:00	5	Humedad	95
128945	7	Sololá	701	Sololá	4	Finca Santa Victoria	9	Septiembre	2023-06-09T00:00:00	2024-11-08T07:00:00	6	Velocidad del viento	1.6
128946	7	Sololá	701	Sololá	4	Finca Santa Victoria	9	Septiembre	2023-06-09T00:00:00	2024-11-08T07:00:00	7	Dirección del viento	1.61
128947	7	Sololá	701	Sololá	4	Finca Santa Victoria	9	Septiembre	2023-06-09T00:00:00	2024-11-08T07:00:00	1	Precipitación	0
128948	7	Sololá	701	Sololá	4	Finca Santa Victoria	9	Septiembre	2023-06-09T00:00:00	2024-11-08T07:00:00	8	Radiación solar	30
128949	7	Sololá	701	Sololá	4	Finca Santa Victoria	9	Septiembre	2023-06-09T00:00:00	2024-11-08T08:00:00	2	Temperatura media	14.2
128950	7	Sololá	701	Sololá	4	Finca Santa Victoria	9	Septiembre	2023-06-09T00:00:00	2024-11-08T08:00:00	4	Temperatura máxima	14.2
128951	7	Sololá	701	Sololá	4	Finca Santa Victoria	9	Septiembre	2023-06-09T00:00:00	2024-11-08T08:00:00	3	Temperatura mínima	13.3
128952	7	Sololá	701	Sololá	4	Finca Santa Victoria	9	Septiembre	2023-06-09T00:00:00	2024-11-08T08:00:00	5	Humedad	92
128953	7	Sololá	701	Sololá	4	Finca Santa Victoria	9	Septiembre	2023-06-09T00:00:00	2024-11-08T08:00:00	6	Velocidad del viento	0
128954	7	Sololá	701	Sololá	4	Finca Santa Victoria	9	Septiembre	2023-06-09T00:00:00	2024-11-08T08:00:00	7	Dirección del viento	0
128955	7	Sololá	701	Sololá	4	Finca Santa Victoria	9	Septiembre	2023-06-09T00:00:00	2024-11-08T08:00:00	1	Precipitación	0
128956	7	Sololá	701	Sololá	4	Finca Santa Victoria	9	Septiembre	2023-06-09T00:00:00	2024-11-08T08:00:00	8	Radiación solar	115
128957	7	Sololá	701	Sololá	4	Finca Santa Victoria	9	Septiembre	2023-06-09T00:00:00	2024-11-08T09:00:00	2	Temperatura media	16.3
128958	7	Sololá	701	Sololá	4	Finca Santa Victoria	9	Septiembre	2023-06-09T00:00:00	2024-11-08T09:00:00	4	Temperatura máxima	16.3
128959	7	Sololá	701	Sololá	4	Finca Santa Victoria	9	Septiembre	2023-06-09T00:00:00	2024-11-08T09:00:00	3	Temperatura mínima	14.2
128960	7	Sololá	701	Sololá	4	Finca Santa Victoria	9	Septiembre	2023-06-09T00:00:00	2024-11-08T09:00:00	5	Humedad	83
128961	7	Sololá	701	Sololá	4	Finca Santa Victoria	9	Septiembre	2023-06-09T00:00:00	2024-11-08T09:00:00	6	Velocidad del viento	1.6
128962	7	Sololá	701	Sololá	4	Finca Santa Victoria	9	Septiembre	2023-06-09T00:00:00	2024-11-08T09:00:00	7	Dirección del viento	1.61
128963	7	Sololá	701	Sololá	4	Finca Santa Victoria	9	Septiembre	2023-06-09T00:00:00	2024-11-08T09:00:00	1	Precipitación	0
128964	7	Sololá	701	Sololá	4	Finca Santa Victoria	9	Septiembre	2023-06-09T00:00:00	2024-11-08T09:00:00	8	Radiación solar	164
128965	7	Sololá	701	Sololá	4	Finca Santa Victoria	9	Septiembre	2023-06-09T00:00:00	2024-11-08T10:00:00	2	Temperatura media	17.6
128966	7	Sololá	701	Sololá	4	Finca Santa Victoria	9	Septiembre	2023-06-09T00:00:00	2024-11-08T10:00:00	4	Temperatura máxima	17.6
128967	7	Sololá	701	Sololá	4	Finca Santa Victoria	9	Septiembre	2023-06-09T00:00:00	2024-11-08T10:00:00	3	Temperatura mínima	16.2
128968	7	Sololá	701	Sololá	4	Finca Santa Victoria	9	Septiembre	2023-06-09T00:00:00	2024-11-08T10:00:00	5	Humedad	80
128969	7	Sololá	701	Sololá	4	Finca Santa Victoria	9	Septiembre	2023-06-09T00:00:00	2024-11-08T10:00:00	6	Velocidad del viento	3.2
128970	7	Sololá	701	Sololá	4	Finca Santa Victoria	9	Septiembre	2023-06-09T00:00:00	2024-11-08T10:00:00	7	Dirección del viento	3.22
128971	7	Sololá	701	Sololá	4	Finca Santa Victoria	9	Septiembre	2023-06-09T00:00:00	2024-11-08T10:00:00	1	Precipitación	0
128972	7	Sololá	701	Sololá	4	Finca Santa Victoria	9	Septiembre	2023-06-09T00:00:00	2024-11-08T10:00:00	8	Radiación solar	237
128973	7	Sololá	701	Sololá	4	Finca Santa Victoria	9	Septiembre	2023-06-09T00:00:00	2024-11-08T11:00:00	2	Temperatura media	18.7
128974	7	Sololá	701	Sololá	4	Finca Santa Victoria	9	Septiembre	2023-06-09T00:00:00	2024-11-08T11:00:00	4	Temperatura máxima	18.7
128975	7	Sololá	701	Sololá	4	Finca Santa Victoria	9	Septiembre	2023-06-09T00:00:00	2024-11-08T11:00:00	3	Temperatura mínima	16.9
128976	7	Sololá	701	Sololá	4	Finca Santa Victoria	9	Septiembre	2023-06-09T00:00:00	2024-11-08T11:00:00	5	Humedad	77
128977	7	Sololá	701	Sololá	4	Finca Santa Victoria	9	Septiembre	2023-06-09T00:00:00	2024-11-08T11:00:00	6	Velocidad del viento	3.2
128978	7	Sololá	701	Sololá	4	Finca Santa Victoria	9	Septiembre	2023-06-09T00:00:00	2024-11-08T11:00:00	7	Dirección del viento	3.22
128979	7	Sololá	701	Sololá	4	Finca Santa Victoria	9	Septiembre	2023-06-09T00:00:00	2024-11-08T11:00:00	1	Precipitación	0
128980	7	Sololá	701	Sololá	4	Finca Santa Victoria	9	Septiembre	2023-06-09T00:00:00	2024-11-08T11:00:00	8	Radiación solar	397
128981	7	Sololá	701	Sololá	4	Finca Santa Victoria	9	Septiembre	2023-06-09T00:00:00	2024-11-08T12:00:00	2	Temperatura media	18.9
128982	7	Sololá	701	Sololá	4	Finca Santa Victoria	9	Septiembre	2023-06-09T00:00:00	2024-11-08T12:00:00	4	Temperatura máxima	18.9
128983	7	Sololá	701	Sololá	4	Finca Santa Victoria	9	Septiembre	2023-06-09T00:00:00	2024-11-08T12:00:00	3	Temperatura mínima	18.1
128984	7	Sololá	701	Sololá	4	Finca Santa Victoria	9	Septiembre	2023-06-09T00:00:00	2024-11-08T12:00:00	5	Humedad	76
128985	7	Sololá	701	Sololá	4	Finca Santa Victoria	9	Septiembre	2023-06-09T00:00:00	2024-11-08T12:00:00	6	Velocidad del viento	3.2
128986	7	Sololá	701	Sololá	4	Finca Santa Victoria	9	Septiembre	2023-06-09T00:00:00	2024-11-08T12:00:00	7	Dirección del viento	3.22
128987	7	Sololá	701	Sololá	4	Finca Santa Victoria	9	Septiembre	2023-06-09T00:00:00	2024-11-08T12:00:00	1	Precipitación	0
128988	7	Sololá	701	Sololá	4	Finca Santa Victoria	9	Septiembre	2023-06-09T00:00:00	2024-11-08T12:00:00	8	Radiación solar	294
128989	7	Sololá	701	Sololá	4	Finca Santa Victoria	9	Septiembre	2023-06-09T00:00:00	2024-11-08T13:00:00	2	Temperatura media	19.6
128990	7	Sololá	701	Sololá	4	Finca Santa Victoria	9	Septiembre	2023-06-09T00:00:00	2024-11-08T13:00:00	4	Temperatura máxima	20.2
128991	7	Sololá	701	Sololá	4	Finca Santa Victoria	9	Septiembre	2023-06-09T00:00:00	2024-11-08T13:00:00	3	Temperatura mínima	18.9
128992	7	Sololá	701	Sololá	4	Finca Santa Victoria	9	Septiembre	2023-06-09T00:00:00	2024-11-08T13:00:00	5	Humedad	70
128993	7	Sololá	701	Sololá	4	Finca Santa Victoria	9	Septiembre	2023-06-09T00:00:00	2024-11-08T13:00:00	6	Velocidad del viento	3.2
128994	7	Sololá	701	Sololá	4	Finca Santa Victoria	9	Septiembre	2023-06-09T00:00:00	2024-11-08T13:00:00	7	Dirección del viento	3.22
128995	7	Sololá	701	Sololá	4	Finca Santa Victoria	9	Septiembre	2023-06-09T00:00:00	2024-11-08T13:00:00	1	Precipitación	0
128996	7	Sololá	701	Sololá	4	Finca Santa Victoria	9	Septiembre	2023-06-09T00:00:00	2024-11-08T13:00:00	8	Radiación solar	286
128997	7	Sololá	701	Sololá	4	Finca Santa Victoria	9	Septiembre	2023-06-09T00:00:00	2024-11-08T14:00:00	2	Temperatura media	19
128998	7	Sololá	701	Sololá	4	Finca Santa Victoria	9	Septiembre	2023-06-09T00:00:00	2024-11-08T14:00:00	4	Temperatura máxima	20.9
128999	7	Sololá	701	Sololá	4	Finca Santa Victoria	9	Septiembre	2023-06-09T00:00:00	2024-11-08T14:00:00	3	Temperatura mínima	18.8
129000	7	Sololá	701	Sololá	4	Finca Santa Victoria	9	Septiembre	2023-06-09T00:00:00	2024-11-08T14:00:00	5	Humedad	84
129001	7	Sololá	701	Sololá	4	Finca Santa Victoria	9	Septiembre	2023-06-09T00:00:00	2024-11-08T14:00:00	6	Velocidad del viento	3.2
129002	7	Sololá	701	Sololá	4	Finca Santa Victoria	9	Septiembre	2023-06-09T00:00:00	2024-11-08T14:00:00	7	Dirección del viento	3.22
129003	7	Sololá	701	Sololá	4	Finca Santa Victoria	9	Septiembre	2023-06-09T00:00:00	2024-11-08T14:00:00	1	Precipitación	0
129004	7	Sololá	701	Sololá	4	Finca Santa Victoria	9	Septiembre	2023-06-09T00:00:00	2024-11-08T14:00:00	8	Radiación solar	197
129005	7	Sololá	701	Sololá	4	Finca Santa Victoria	9	Septiembre	2023-06-09T00:00:00	2024-11-08T15:00:00	2	Temperatura media	18.3
129006	7	Sololá	701	Sololá	4	Finca Santa Victoria	9	Septiembre	2023-06-09T00:00:00	2024-11-08T15:00:00	4	Temperatura máxima	19.7
129007	7	Sololá	701	Sololá	4	Finca Santa Victoria	9	Septiembre	2023-06-09T00:00:00	2024-11-08T15:00:00	3	Temperatura mínima	18.2
129008	7	Sololá	701	Sololá	4	Finca Santa Victoria	9	Septiembre	2023-06-09T00:00:00	2024-11-08T15:00:00	5	Humedad	90
129009	7	Sololá	701	Sololá	4	Finca Santa Victoria	9	Septiembre	2023-06-09T00:00:00	2024-11-08T15:00:00	6	Velocidad del viento	3.2
129010	7	Sololá	701	Sololá	4	Finca Santa Victoria	9	Septiembre	2023-06-09T00:00:00	2024-11-08T15:00:00	7	Dirección del viento	3.22
129011	7	Sololá	701	Sololá	4	Finca Santa Victoria	9	Septiembre	2023-06-09T00:00:00	2024-11-08T15:00:00	1	Precipitación	0
129012	7	Sololá	701	Sololá	4	Finca Santa Victoria	9	Septiembre	2023-06-09T00:00:00	2024-11-08T15:00:00	8	Radiación solar	179
129013	7	Sololá	701	Sololá	4	Finca Santa Victoria	9	Septiembre	2023-06-09T00:00:00	2024-11-08T16:00:00	2	Temperatura media	17.4
129014	7	Sololá	701	Sololá	4	Finca Santa Victoria	9	Septiembre	2023-06-09T00:00:00	2024-11-08T16:00:00	4	Temperatura máxima	18.3
129015	7	Sololá	701	Sololá	4	Finca Santa Victoria	9	Septiembre	2023-06-09T00:00:00	2024-11-08T16:00:00	3	Temperatura mínima	17.4
129016	7	Sololá	701	Sololá	4	Finca Santa Victoria	9	Septiembre	2023-06-09T00:00:00	2024-11-08T16:00:00	5	Humedad	93
129017	7	Sololá	701	Sololá	4	Finca Santa Victoria	9	Septiembre	2023-06-09T00:00:00	2024-11-08T16:00:00	6	Velocidad del viento	1.6
129018	7	Sololá	701	Sololá	4	Finca Santa Victoria	9	Septiembre	2023-06-09T00:00:00	2024-11-08T16:00:00	7	Dirección del viento	1.61
129019	7	Sololá	701	Sololá	4	Finca Santa Victoria	9	Septiembre	2023-06-09T00:00:00	2024-11-08T16:00:00	1	Precipitación	0
129020	7	Sololá	701	Sololá	4	Finca Santa Victoria	9	Septiembre	2023-06-09T00:00:00	2024-11-08T16:00:00	8	Radiación solar	85
129021	7	Sololá	701	Sololá	4	Finca Santa Victoria	9	Septiembre	2023-06-09T00:00:00	2024-11-08T17:00:00	2	Temperatura media	17.5
129022	7	Sololá	701	Sololá	4	Finca Santa Victoria	9	Septiembre	2023-06-09T00:00:00	2024-11-08T17:00:00	4	Temperatura máxima	17.6
129023	7	Sololá	701	Sololá	4	Finca Santa Victoria	9	Septiembre	2023-06-09T00:00:00	2024-11-08T17:00:00	3	Temperatura mínima	17.1
129024	7	Sololá	701	Sololá	4	Finca Santa Victoria	9	Septiembre	2023-06-09T00:00:00	2024-11-08T17:00:00	5	Humedad	91
129025	7	Sololá	701	Sololá	4	Finca Santa Victoria	9	Septiembre	2023-06-09T00:00:00	2024-11-08T17:00:00	6	Velocidad del viento	1.6
129026	7	Sololá	701	Sololá	4	Finca Santa Victoria	9	Septiembre	2023-06-09T00:00:00	2024-11-08T17:00:00	7	Dirección del viento	1.61
129027	7	Sololá	701	Sololá	4	Finca Santa Victoria	9	Septiembre	2023-06-09T00:00:00	2024-11-08T17:00:00	1	Precipitación	0
129028	7	Sololá	701	Sololá	4	Finca Santa Victoria	9	Septiembre	2023-06-09T00:00:00	2024-11-08T17:00:00	8	Radiación solar	73
129029	7	Sololá	701	Sololá	4	Finca Santa Victoria	9	Septiembre	2023-06-09T00:00:00	2024-11-08T18:00:00	2	Temperatura media	17.2
129030	7	Sololá	701	Sololá	4	Finca Santa Victoria	9	Septiembre	2023-06-09T00:00:00	2024-11-08T18:00:00	4	Temperatura máxima	17.7
129031	7	Sololá	701	Sololá	4	Finca Santa Victoria	9	Septiembre	2023-06-09T00:00:00	2024-11-08T18:00:00	3	Temperatura mínima	17.2
129032	7	Sololá	701	Sololá	4	Finca Santa Victoria	9	Septiembre	2023-06-09T00:00:00	2024-11-08T18:00:00	5	Humedad	94
129033	7	Sololá	701	Sololá	4	Finca Santa Victoria	9	Septiembre	2023-06-09T00:00:00	2024-11-08T18:00:00	6	Velocidad del viento	1.6
129034	7	Sololá	701	Sololá	4	Finca Santa Victoria	9	Septiembre	2023-06-09T00:00:00	2024-11-08T18:00:00	7	Dirección del viento	1.61
129035	7	Sololá	701	Sololá	4	Finca Santa Victoria	9	Septiembre	2023-06-09T00:00:00	2024-11-08T18:00:00	1	Precipitación	0
129036	7	Sololá	701	Sololá	4	Finca Santa Victoria	9	Septiembre	2023-06-09T00:00:00	2024-11-08T18:00:00	8	Radiación solar	54
129037	7	Sololá	701	Sololá	4	Finca Santa Victoria	9	Septiembre	2023-06-09T00:00:00	2024-11-08T19:00:00	2	Temperatura media	15.7
129038	7	Sololá	701	Sololá	4	Finca Santa Victoria	9	Septiembre	2023-06-09T00:00:00	2024-11-08T19:00:00	4	Temperatura máxima	17.2
129039	7	Sololá	701	Sololá	4	Finca Santa Victoria	9	Septiembre	2023-06-09T00:00:00	2024-11-08T19:00:00	3	Temperatura mínima	15.7
129040	7	Sololá	701	Sololá	4	Finca Santa Victoria	9	Septiembre	2023-06-09T00:00:00	2024-11-08T19:00:00	5	Humedad	93
129041	7	Sololá	701	Sololá	4	Finca Santa Victoria	9	Septiembre	2023-06-09T00:00:00	2024-11-08T19:00:00	6	Velocidad del viento	0
129042	7	Sololá	701	Sololá	4	Finca Santa Victoria	9	Septiembre	2023-06-09T00:00:00	2024-11-08T19:00:00	7	Dirección del viento	0
129043	7	Sololá	701	Sololá	4	Finca Santa Victoria	9	Septiembre	2023-06-09T00:00:00	2024-11-08T19:00:00	1	Precipitación	0
129044	7	Sololá	701	Sololá	4	Finca Santa Victoria	9	Septiembre	2023-06-09T00:00:00	2024-11-08T19:00:00	8	Radiación solar	0
129045	7	Sololá	701	Sololá	4	Finca Santa Victoria	9	Septiembre	2023-06-09T00:00:00	2024-11-08T20:00:00	2	Temperatura media	14.9
129046	7	Sololá	701	Sololá	4	Finca Santa Victoria	9	Septiembre	2023-06-09T00:00:00	2024-11-08T20:00:00	4	Temperatura máxima	15.7
129047	7	Sololá	701	Sololá	4	Finca Santa Victoria	9	Septiembre	2023-06-09T00:00:00	2024-11-08T20:00:00	3	Temperatura mínima	14.9
129048	7	Sololá	701	Sololá	4	Finca Santa Victoria	9	Septiembre	2023-06-09T00:00:00	2024-11-08T20:00:00	5	Humedad	90
129049	7	Sololá	701	Sololá	4	Finca Santa Victoria	9	Septiembre	2023-06-09T00:00:00	2024-11-08T20:00:00	6	Velocidad del viento	0
129050	7	Sololá	701	Sololá	4	Finca Santa Victoria	9	Septiembre	2023-06-09T00:00:00	2024-11-08T20:00:00	7	Dirección del viento	0
129051	7	Sololá	701	Sololá	4	Finca Santa Victoria	9	Septiembre	2023-06-09T00:00:00	2024-11-08T20:00:00	1	Precipitación	0
129052	7	Sololá	701	Sololá	4	Finca Santa Victoria	9	Septiembre	2023-06-09T00:00:00	2024-11-08T20:00:00	8	Radiación solar	0
129053	7	Sololá	701	Sololá	4	Finca Santa Victoria	9	Septiembre	2023-06-09T00:00:00	2024-11-08T21:00:00	2	Temperatura media	14.5
129054	7	Sololá	701	Sololá	4	Finca Santa Victoria	9	Septiembre	2023-06-09T00:00:00	2024-11-08T21:00:00	4	Temperatura máxima	14.9
129055	7	Sololá	701	Sololá	4	Finca Santa Victoria	9	Septiembre	2023-06-09T00:00:00	2024-11-08T21:00:00	3	Temperatura mínima	14.4
129056	7	Sololá	701	Sololá	4	Finca Santa Victoria	9	Septiembre	2023-06-09T00:00:00	2024-11-08T21:00:00	5	Humedad	91
129057	7	Sololá	701	Sololá	4	Finca Santa Victoria	9	Septiembre	2023-06-09T00:00:00	2024-11-08T21:00:00	6	Velocidad del viento	0
129058	7	Sololá	701	Sololá	4	Finca Santa Victoria	9	Septiembre	2023-06-09T00:00:00	2024-11-08T21:00:00	7	Dirección del viento	0
129059	7	Sololá	701	Sololá	4	Finca Santa Victoria	9	Septiembre	2023-06-09T00:00:00	2024-11-08T21:00:00	1	Precipitación	0
129060	7	Sololá	701	Sololá	4	Finca Santa Victoria	9	Septiembre	2023-06-09T00:00:00	2024-11-08T21:00:00	8	Radiación solar	0
129061	7	Sololá	701	Sololá	4	Finca Santa Victoria	9	Septiembre	2023-06-09T00:00:00	2024-11-08T22:00:00	2	Temperatura media	14.3
129062	7	Sololá	701	Sololá	4	Finca Santa Victoria	9	Septiembre	2023-06-09T00:00:00	2024-11-08T22:00:00	4	Temperatura máxima	14.6
129063	7	Sololá	701	Sololá	4	Finca Santa Victoria	9	Septiembre	2023-06-09T00:00:00	2024-11-08T22:00:00	3	Temperatura mínima	14.3
129064	7	Sololá	701	Sololá	4	Finca Santa Victoria	9	Septiembre	2023-06-09T00:00:00	2024-11-08T22:00:00	5	Humedad	91
129065	7	Sololá	701	Sololá	4	Finca Santa Victoria	9	Septiembre	2023-06-09T00:00:00	2024-11-08T22:00:00	6	Velocidad del viento	0
129066	7	Sololá	701	Sololá	4	Finca Santa Victoria	9	Septiembre	2023-06-09T00:00:00	2024-11-08T22:00:00	7	Dirección del viento	0
129067	7	Sololá	701	Sololá	4	Finca Santa Victoria	9	Septiembre	2023-06-09T00:00:00	2024-11-08T22:00:00	1	Precipitación	0
129068	7	Sololá	701	Sololá	4	Finca Santa Victoria	9	Septiembre	2023-06-09T00:00:00	2024-11-08T22:00:00	8	Radiación solar	0
129069	7	Sololá	701	Sololá	4	Finca Santa Victoria	9	Septiembre	2023-06-09T00:00:00	2024-11-08T23:00:00	2	Temperatura media	13.9
129070	7	Sololá	701	Sololá	4	Finca Santa Victoria	9	Septiembre	2023-06-09T00:00:00	2024-11-08T23:00:00	4	Temperatura máxima	14.3
129071	7	Sololá	701	Sololá	4	Finca Santa Victoria	9	Septiembre	2023-06-09T00:00:00	2024-11-08T23:00:00	3	Temperatura mínima	13.8
129072	7	Sololá	701	Sololá	4	Finca Santa Victoria	9	Septiembre	2023-06-09T00:00:00	2024-11-08T23:00:00	5	Humedad	95
129073	7	Sololá	701	Sololá	4	Finca Santa Victoria	9	Septiembre	2023-06-09T00:00:00	2024-11-08T23:00:00	6	Velocidad del viento	0
129074	7	Sololá	701	Sololá	4	Finca Santa Victoria	9	Septiembre	2023-06-09T00:00:00	2024-11-08T23:00:00	7	Dirección del viento	0
129075	7	Sololá	701	Sololá	4	Finca Santa Victoria	9	Septiembre	2023-06-09T00:00:00	2024-11-08T23:00:00	1	Precipitación	0
129076	7	Sololá	701	Sololá	4	Finca Santa Victoria	9	Septiembre	2023-06-09T00:00:00	2024-11-08T23:00:00	8	Radiación solar	0
129077	7	Sololá	701	Sololá	4	Finca Santa Victoria	9	Septiembre	2023-07-09T00:00:00	2024-11-08T00:00:00	2	Temperatura media	13.7
129078	7	Sololá	701	Sololá	4	Finca Santa Victoria	9	Septiembre	2023-07-09T00:00:00	2024-11-08T00:00:00	4	Temperatura máxima	13.9
129079	7	Sololá	701	Sololá	4	Finca Santa Victoria	9	Septiembre	2023-07-09T00:00:00	2024-11-08T00:00:00	3	Temperatura mínima	13.7
129080	7	Sololá	701	Sololá	4	Finca Santa Victoria	9	Septiembre	2023-07-09T00:00:00	2024-11-08T00:00:00	5	Humedad	96
129081	7	Sololá	701	Sololá	4	Finca Santa Victoria	9	Septiembre	2023-07-09T00:00:00	2024-11-08T00:00:00	6	Velocidad del viento	0
129082	7	Sololá	701	Sololá	4	Finca Santa Victoria	9	Septiembre	2023-07-09T00:00:00	2024-11-08T00:00:00	7	Dirección del viento	0
129083	7	Sololá	701	Sololá	4	Finca Santa Victoria	9	Septiembre	2023-07-09T00:00:00	2024-11-08T00:00:00	1	Precipitación	0
129084	7	Sololá	701	Sololá	4	Finca Santa Victoria	9	Septiembre	2023-07-09T00:00:00	2024-11-08T00:00:00	8	Radiación solar	0
129085	7	Sololá	701	Sololá	4	Finca Santa Victoria	9	Septiembre	2023-07-09T00:00:00	2024-11-08T01:00:00	2	Temperatura media	13.6
129086	7	Sololá	701	Sololá	4	Finca Santa Victoria	9	Septiembre	2023-07-09T00:00:00	2024-11-08T01:00:00	4	Temperatura máxima	13.8
129087	7	Sololá	701	Sololá	4	Finca Santa Victoria	9	Septiembre	2023-07-09T00:00:00	2024-11-08T01:00:00	3	Temperatura mínima	13.6
129088	7	Sololá	701	Sololá	4	Finca Santa Victoria	9	Septiembre	2023-07-09T00:00:00	2024-11-08T01:00:00	5	Humedad	97
129089	7	Sololá	701	Sololá	4	Finca Santa Victoria	9	Septiembre	2023-07-09T00:00:00	2024-11-08T01:00:00	6	Velocidad del viento	1.6
129090	7	Sololá	701	Sololá	4	Finca Santa Victoria	9	Septiembre	2023-07-09T00:00:00	2024-11-08T01:00:00	7	Dirección del viento	1.61
129091	7	Sololá	701	Sololá	4	Finca Santa Victoria	9	Septiembre	2023-07-09T00:00:00	2024-11-08T01:00:00	1	Precipitación	0
129092	7	Sololá	701	Sololá	4	Finca Santa Victoria	9	Septiembre	2023-07-09T00:00:00	2024-11-08T01:00:00	8	Radiación solar	0
129093	7	Sololá	701	Sololá	4	Finca Santa Victoria	9	Septiembre	2023-07-09T00:00:00	2024-11-08T02:00:00	2	Temperatura media	13.3
129094	7	Sololá	701	Sololá	4	Finca Santa Victoria	9	Septiembre	2023-07-09T00:00:00	2024-11-08T02:00:00	4	Temperatura máxima	13.6
129095	7	Sololá	701	Sololá	4	Finca Santa Victoria	9	Septiembre	2023-07-09T00:00:00	2024-11-08T02:00:00	3	Temperatura mínima	13.2
129096	7	Sololá	701	Sololá	4	Finca Santa Victoria	9	Septiembre	2023-07-09T00:00:00	2024-11-08T02:00:00	5	Humedad	97
129097	7	Sololá	701	Sololá	4	Finca Santa Victoria	9	Septiembre	2023-07-09T00:00:00	2024-11-08T02:00:00	6	Velocidad del viento	0
129098	7	Sololá	701	Sololá	4	Finca Santa Victoria	9	Septiembre	2023-07-09T00:00:00	2024-11-08T02:00:00	7	Dirección del viento	0
129099	7	Sololá	701	Sololá	4	Finca Santa Victoria	9	Septiembre	2023-07-09T00:00:00	2024-11-08T02:00:00	1	Precipitación	0
129100	7	Sololá	701	Sololá	4	Finca Santa Victoria	9	Septiembre	2023-07-09T00:00:00	2024-11-08T02:00:00	8	Radiación solar	0
129101	7	Sololá	701	Sololá	4	Finca Santa Victoria	9	Septiembre	2023-07-09T00:00:00	2024-11-08T03:00:00	2	Temperatura media	13.3
129102	7	Sololá	701	Sololá	4	Finca Santa Victoria	9	Septiembre	2023-07-09T00:00:00	2024-11-08T03:00:00	4	Temperatura máxima	13.4
129103	7	Sololá	701	Sololá	4	Finca Santa Victoria	9	Septiembre	2023-07-09T00:00:00	2024-11-08T03:00:00	3	Temperatura mínima	13.2
129104	7	Sololá	701	Sololá	4	Finca Santa Victoria	9	Septiembre	2023-07-09T00:00:00	2024-11-08T03:00:00	5	Humedad	96
129105	7	Sololá	701	Sololá	4	Finca Santa Victoria	9	Septiembre	2023-07-09T00:00:00	2024-11-08T03:00:00	6	Velocidad del viento	0
129106	7	Sololá	701	Sololá	4	Finca Santa Victoria	9	Septiembre	2023-07-09T00:00:00	2024-11-08T03:00:00	7	Dirección del viento	0
129107	7	Sololá	701	Sololá	4	Finca Santa Victoria	9	Septiembre	2023-07-09T00:00:00	2024-11-08T03:00:00	1	Precipitación	0
129108	7	Sololá	701	Sololá	4	Finca Santa Victoria	9	Septiembre	2023-07-09T00:00:00	2024-11-08T03:00:00	8	Radiación solar	0
129109	7	Sololá	701	Sololá	4	Finca Santa Victoria	9	Septiembre	2023-07-09T00:00:00	2024-11-08T04:00:00	2	Temperatura media	13.3
129110	7	Sololá	701	Sololá	4	Finca Santa Victoria	9	Septiembre	2023-07-09T00:00:00	2024-11-08T04:00:00	4	Temperatura máxima	13.4
129111	7	Sololá	701	Sololá	4	Finca Santa Victoria	9	Septiembre	2023-07-09T00:00:00	2024-11-08T04:00:00	3	Temperatura mínima	13.1
129112	7	Sololá	701	Sololá	4	Finca Santa Victoria	9	Septiembre	2023-07-09T00:00:00	2024-11-08T04:00:00	5	Humedad	96
129113	7	Sololá	701	Sololá	4	Finca Santa Victoria	9	Septiembre	2023-07-09T00:00:00	2024-11-08T04:00:00	6	Velocidad del viento	0
129114	7	Sololá	701	Sololá	4	Finca Santa Victoria	9	Septiembre	2023-07-09T00:00:00	2024-11-08T04:00:00	7	Dirección del viento	0
129115	7	Sololá	701	Sololá	4	Finca Santa Victoria	9	Septiembre	2023-07-09T00:00:00	2024-11-08T04:00:00	1	Precipitación	0
129116	7	Sololá	701	Sololá	4	Finca Santa Victoria	9	Septiembre	2023-07-09T00:00:00	2024-11-08T04:00:00	8	Radiación solar	0
129117	7	Sololá	701	Sololá	4	Finca Santa Victoria	9	Septiembre	2023-07-09T00:00:00	2024-11-08T05:00:00	2	Temperatura media	12.9
129118	7	Sololá	701	Sololá	4	Finca Santa Victoria	9	Septiembre	2023-07-09T00:00:00	2024-11-08T05:00:00	4	Temperatura máxima	13.3
129119	7	Sololá	701	Sololá	4	Finca Santa Victoria	9	Septiembre	2023-07-09T00:00:00	2024-11-08T05:00:00	3	Temperatura mínima	12.9
129120	7	Sololá	701	Sololá	4	Finca Santa Victoria	9	Septiembre	2023-07-09T00:00:00	2024-11-08T05:00:00	5	Humedad	96
129121	7	Sololá	701	Sololá	4	Finca Santa Victoria	9	Septiembre	2023-07-09T00:00:00	2024-11-08T05:00:00	6	Velocidad del viento	0
129122	7	Sololá	701	Sololá	4	Finca Santa Victoria	9	Septiembre	2023-07-09T00:00:00	2024-11-08T05:00:00	7	Dirección del viento	0
129123	7	Sololá	701	Sololá	4	Finca Santa Victoria	9	Septiembre	2023-07-09T00:00:00	2024-11-08T05:00:00	1	Precipitación	0
129124	7	Sololá	701	Sololá	4	Finca Santa Victoria	9	Septiembre	2023-07-09T00:00:00	2024-11-08T05:00:00	8	Radiación solar	0
129125	7	Sololá	701	Sololá	4	Finca Santa Victoria	9	Septiembre	2023-07-09T00:00:00	2024-11-08T06:00:00	2	Temperatura media	12.8
129126	7	Sololá	701	Sololá	4	Finca Santa Victoria	9	Septiembre	2023-07-09T00:00:00	2024-11-08T06:00:00	4	Temperatura máxima	13
129127	7	Sololá	701	Sololá	4	Finca Santa Victoria	9	Septiembre	2023-07-09T00:00:00	2024-11-08T06:00:00	3	Temperatura mínima	12.7
129128	7	Sololá	701	Sololá	4	Finca Santa Victoria	9	Septiembre	2023-07-09T00:00:00	2024-11-08T06:00:00	5	Humedad	97
129129	7	Sololá	701	Sololá	4	Finca Santa Victoria	9	Septiembre	2023-07-09T00:00:00	2024-11-08T06:00:00	6	Velocidad del viento	0
129130	7	Sololá	701	Sololá	4	Finca Santa Victoria	9	Septiembre	2023-07-09T00:00:00	2024-11-08T06:00:00	7	Dirección del viento	0
129131	7	Sololá	701	Sololá	4	Finca Santa Victoria	9	Septiembre	2023-07-09T00:00:00	2024-11-08T06:00:00	1	Precipitación	0
129132	7	Sololá	701	Sololá	4	Finca Santa Victoria	9	Septiembre	2023-07-09T00:00:00	2024-11-08T06:00:00	8	Radiación solar	0
129133	7	Sololá	701	Sololá	4	Finca Santa Victoria	9	Septiembre	2023-07-09T00:00:00	2024-11-08T07:00:00	2	Temperatura media	13.5
129134	7	Sololá	701	Sololá	4	Finca Santa Victoria	9	Septiembre	2023-07-09T00:00:00	2024-11-08T07:00:00	4	Temperatura máxima	13.5
129135	7	Sololá	701	Sololá	4	Finca Santa Victoria	9	Septiembre	2023-07-09T00:00:00	2024-11-08T07:00:00	3	Temperatura mínima	12.7
129136	7	Sololá	701	Sololá	4	Finca Santa Victoria	9	Septiembre	2023-07-09T00:00:00	2024-11-08T07:00:00	5	Humedad	97
129137	7	Sololá	701	Sololá	4	Finca Santa Victoria	9	Septiembre	2023-07-09T00:00:00	2024-11-08T07:00:00	6	Velocidad del viento	0
129138	7	Sololá	701	Sololá	4	Finca Santa Victoria	9	Septiembre	2023-07-09T00:00:00	2024-11-08T07:00:00	7	Dirección del viento	0
129139	7	Sololá	701	Sololá	4	Finca Santa Victoria	9	Septiembre	2023-07-09T00:00:00	2024-11-08T07:00:00	1	Precipitación	0
129140	7	Sololá	701	Sololá	4	Finca Santa Victoria	9	Septiembre	2023-07-09T00:00:00	2024-11-08T07:00:00	8	Radiación solar	24
129141	7	Sololá	701	Sololá	4	Finca Santa Victoria	9	Septiembre	2023-07-09T00:00:00	2024-11-08T08:00:00	2	Temperatura media	16.4
129142	7	Sololá	701	Sololá	4	Finca Santa Victoria	9	Septiembre	2023-07-09T00:00:00	2024-11-08T08:00:00	4	Temperatura máxima	16.5
129143	7	Sololá	701	Sololá	4	Finca Santa Victoria	9	Septiembre	2023-07-09T00:00:00	2024-11-08T08:00:00	3	Temperatura mínima	13.4
129144	7	Sololá	701	Sololá	4	Finca Santa Victoria	9	Septiembre	2023-07-09T00:00:00	2024-11-08T08:00:00	5	Humedad	89
129145	7	Sololá	701	Sololá	4	Finca Santa Victoria	9	Septiembre	2023-07-09T00:00:00	2024-11-08T08:00:00	6	Velocidad del viento	1.6
129146	7	Sololá	701	Sololá	4	Finca Santa Victoria	9	Septiembre	2023-07-09T00:00:00	2024-11-08T08:00:00	7	Dirección del viento	1.61
129147	7	Sololá	701	Sololá	4	Finca Santa Victoria	9	Septiembre	2023-07-09T00:00:00	2024-11-08T08:00:00	1	Precipitación	0
129148	7	Sololá	701	Sololá	4	Finca Santa Victoria	9	Septiembre	2023-07-09T00:00:00	2024-11-08T08:00:00	8	Radiación solar	189
129149	7	Sololá	701	Sololá	4	Finca Santa Victoria	9	Septiembre	2023-07-09T00:00:00	2024-11-08T09:00:00	2	Temperatura media	18.9
129150	7	Sololá	701	Sololá	4	Finca Santa Victoria	9	Septiembre	2023-07-09T00:00:00	2024-11-08T09:00:00	4	Temperatura máxima	18.9
129151	7	Sololá	701	Sololá	4	Finca Santa Victoria	9	Septiembre	2023-07-09T00:00:00	2024-11-08T09:00:00	3	Temperatura mínima	16.4
129152	7	Sololá	701	Sololá	4	Finca Santa Victoria	9	Septiembre	2023-07-09T00:00:00	2024-11-08T09:00:00	5	Humedad	78
129153	7	Sololá	701	Sololá	4	Finca Santa Victoria	9	Septiembre	2023-07-09T00:00:00	2024-11-08T09:00:00	6	Velocidad del viento	1.6
129154	7	Sololá	701	Sololá	4	Finca Santa Victoria	9	Septiembre	2023-07-09T00:00:00	2024-11-08T09:00:00	7	Dirección del viento	1.61
129155	7	Sololá	701	Sololá	4	Finca Santa Victoria	9	Septiembre	2023-07-09T00:00:00	2024-11-08T09:00:00	1	Precipitación	0
129156	7	Sololá	701	Sololá	4	Finca Santa Victoria	9	Septiembre	2023-07-09T00:00:00	2024-11-08T09:00:00	8	Radiación solar	281
129157	7	Sololá	701	Sololá	4	Finca Santa Victoria	9	Septiembre	2023-07-09T00:00:00	2024-11-08T10:00:00	2	Temperatura media	20.2
129158	7	Sololá	701	Sololá	4	Finca Santa Victoria	9	Septiembre	2023-07-09T00:00:00	2024-11-08T10:00:00	4	Temperatura máxima	20.3
129159	7	Sololá	701	Sololá	4	Finca Santa Victoria	9	Septiembre	2023-07-09T00:00:00	2024-11-08T10:00:00	3	Temperatura mínima	19
129160	7	Sololá	701	Sololá	4	Finca Santa Victoria	9	Septiembre	2023-07-09T00:00:00	2024-11-08T10:00:00	5	Humedad	73
129161	7	Sololá	701	Sololá	4	Finca Santa Victoria	9	Septiembre	2023-07-09T00:00:00	2024-11-08T10:00:00	6	Velocidad del viento	1.6
129162	7	Sololá	701	Sololá	4	Finca Santa Victoria	9	Septiembre	2023-07-09T00:00:00	2024-11-08T10:00:00	7	Dirección del viento	1.61
129163	7	Sololá	701	Sololá	4	Finca Santa Victoria	9	Septiembre	2023-07-09T00:00:00	2024-11-08T10:00:00	1	Precipitación	0
129164	7	Sololá	701	Sololá	4	Finca Santa Victoria	9	Septiembre	2023-07-09T00:00:00	2024-11-08T10:00:00	8	Radiación solar	340
129165	7	Sololá	701	Sololá	4	Finca Santa Victoria	9	Septiembre	2023-07-09T00:00:00	2024-11-08T11:00:00	2	Temperatura media	22.4
129166	7	Sololá	701	Sololá	4	Finca Santa Victoria	9	Septiembre	2023-07-09T00:00:00	2024-11-08T11:00:00	4	Temperatura máxima	22.4
129167	7	Sololá	701	Sololá	4	Finca Santa Victoria	9	Septiembre	2023-07-09T00:00:00	2024-11-08T11:00:00	3	Temperatura mínima	20.2
129168	7	Sololá	701	Sololá	4	Finca Santa Victoria	9	Septiembre	2023-07-09T00:00:00	2024-11-08T11:00:00	5	Humedad	57
129169	7	Sololá	701	Sololá	4	Finca Santa Victoria	9	Septiembre	2023-07-09T00:00:00	2024-11-08T11:00:00	6	Velocidad del viento	1.6
129170	7	Sololá	701	Sololá	4	Finca Santa Victoria	9	Septiembre	2023-07-09T00:00:00	2024-11-08T11:00:00	7	Dirección del viento	1.61
129171	7	Sololá	701	Sololá	4	Finca Santa Victoria	9	Septiembre	2023-07-09T00:00:00	2024-11-08T11:00:00	1	Precipitación	0
129172	7	Sololá	701	Sololá	4	Finca Santa Victoria	9	Septiembre	2023-07-09T00:00:00	2024-11-08T11:00:00	8	Radiación solar	831
129173	7	Sololá	701	Sololá	4	Finca Santa Victoria	9	Septiembre	2023-07-09T00:00:00	2024-11-08T12:00:00	2	Temperatura media	23.7
129174	7	Sololá	701	Sololá	4	Finca Santa Victoria	9	Septiembre	2023-07-09T00:00:00	2024-11-08T12:00:00	4	Temperatura máxima	23.8
129175	7	Sololá	701	Sololá	4	Finca Santa Victoria	9	Septiembre	2023-07-09T00:00:00	2024-11-08T12:00:00	3	Temperatura mínima	22.4
129176	7	Sololá	701	Sololá	4	Finca Santa Victoria	9	Septiembre	2023-07-09T00:00:00	2024-11-08T12:00:00	5	Humedad	54
129177	7	Sololá	701	Sololá	4	Finca Santa Victoria	9	Septiembre	2023-07-09T00:00:00	2024-11-08T12:00:00	6	Velocidad del viento	3.2
129178	7	Sololá	701	Sololá	4	Finca Santa Victoria	9	Septiembre	2023-07-09T00:00:00	2024-11-08T12:00:00	7	Dirección del viento	3.22
129179	7	Sololá	701	Sololá	4	Finca Santa Victoria	9	Septiembre	2023-07-09T00:00:00	2024-11-08T12:00:00	1	Precipitación	0
129180	7	Sololá	701	Sololá	4	Finca Santa Victoria	9	Septiembre	2023-07-09T00:00:00	2024-11-08T12:00:00	8	Radiación solar	892
129181	7	Sololá	701	Sololá	4	Finca Santa Victoria	9	Septiembre	2023-07-09T00:00:00	2024-11-08T13:00:00	2	Temperatura media	24.1
129182	7	Sololá	701	Sololá	4	Finca Santa Victoria	9	Septiembre	2023-07-09T00:00:00	2024-11-08T13:00:00	4	Temperatura máxima	24.1
129183	7	Sololá	701	Sololá	4	Finca Santa Victoria	9	Septiembre	2023-07-09T00:00:00	2024-11-08T13:00:00	3	Temperatura mínima	23.1
129184	7	Sololá	701	Sololá	4	Finca Santa Victoria	9	Septiembre	2023-07-09T00:00:00	2024-11-08T13:00:00	5	Humedad	55
129185	7	Sololá	701	Sololá	4	Finca Santa Victoria	9	Septiembre	2023-07-09T00:00:00	2024-11-08T13:00:00	6	Velocidad del viento	3.2
129186	7	Sololá	701	Sololá	4	Finca Santa Victoria	9	Septiembre	2023-07-09T00:00:00	2024-11-08T13:00:00	7	Dirección del viento	3.22
129187	7	Sololá	701	Sololá	4	Finca Santa Victoria	9	Septiembre	2023-07-09T00:00:00	2024-11-08T13:00:00	1	Precipitación	0
129188	7	Sololá	701	Sololá	4	Finca Santa Victoria	9	Septiembre	2023-07-09T00:00:00	2024-11-08T13:00:00	8	Radiación solar	244
129189	7	Sololá	701	Sololá	4	Finca Santa Victoria	9	Septiembre	2023-07-09T00:00:00	2024-11-08T14:00:00	2	Temperatura media	19.2
129190	7	Sololá	701	Sololá	4	Finca Santa Victoria	9	Septiembre	2023-07-09T00:00:00	2024-11-08T14:00:00	4	Temperatura máxima	24.1
129191	7	Sololá	701	Sololá	4	Finca Santa Victoria	9	Septiembre	2023-07-09T00:00:00	2024-11-08T14:00:00	3	Temperatura mínima	19.2
129192	7	Sololá	701	Sololá	4	Finca Santa Victoria	9	Septiembre	2023-07-09T00:00:00	2024-11-08T14:00:00	5	Humedad	89
129193	7	Sololá	701	Sololá	4	Finca Santa Victoria	9	Septiembre	2023-07-09T00:00:00	2024-11-08T14:00:00	6	Velocidad del viento	1.6
129194	7	Sololá	701	Sololá	4	Finca Santa Victoria	9	Septiembre	2023-07-09T00:00:00	2024-11-08T14:00:00	7	Dirección del viento	1.61
129195	7	Sololá	701	Sololá	4	Finca Santa Victoria	9	Septiembre	2023-07-09T00:00:00	2024-11-08T14:00:00	1	Precipitación	0
129196	7	Sololá	701	Sololá	4	Finca Santa Victoria	9	Septiembre	2023-07-09T00:00:00	2024-11-08T14:00:00	8	Radiación solar	201
129197	7	Sololá	701	Sololá	4	Finca Santa Victoria	9	Septiembre	2023-07-09T00:00:00	2024-11-08T15:00:00	2	Temperatura media	18
129198	7	Sololá	701	Sololá	4	Finca Santa Victoria	9	Septiembre	2023-07-09T00:00:00	2024-11-08T15:00:00	4	Temperatura máxima	19.2
129199	7	Sololá	701	Sololá	4	Finca Santa Victoria	9	Septiembre	2023-07-09T00:00:00	2024-11-08T15:00:00	3	Temperatura mínima	17.9
129200	7	Sololá	701	Sololá	4	Finca Santa Victoria	9	Septiembre	2023-07-09T00:00:00	2024-11-08T15:00:00	5	Humedad	93
129201	7	Sololá	701	Sololá	4	Finca Santa Victoria	9	Septiembre	2023-07-09T00:00:00	2024-11-08T15:00:00	6	Velocidad del viento	3.2
129202	7	Sololá	701	Sololá	4	Finca Santa Victoria	9	Septiembre	2023-07-09T00:00:00	2024-11-08T15:00:00	7	Dirección del viento	3.22
129203	7	Sololá	701	Sololá	4	Finca Santa Victoria	9	Septiembre	2023-07-09T00:00:00	2024-11-08T15:00:00	1	Precipitación	0
129204	7	Sololá	701	Sololá	4	Finca Santa Victoria	9	Septiembre	2023-07-09T00:00:00	2024-11-08T15:00:00	8	Radiación solar	172
129205	7	Sololá	701	Sololá	4	Finca Santa Victoria	9	Septiembre	2023-07-09T00:00:00	2024-11-08T16:00:00	2	Temperatura media	17.2
129206	7	Sololá	701	Sololá	4	Finca Santa Victoria	9	Septiembre	2023-07-09T00:00:00	2024-11-08T16:00:00	4	Temperatura máxima	18.4
129207	7	Sololá	701	Sololá	4	Finca Santa Victoria	9	Septiembre	2023-07-09T00:00:00	2024-11-08T16:00:00	3	Temperatura mínima	17.1
129208	7	Sololá	701	Sololá	4	Finca Santa Victoria	9	Septiembre	2023-07-09T00:00:00	2024-11-08T16:00:00	5	Humedad	95
129209	7	Sololá	701	Sololá	4	Finca Santa Victoria	9	Septiembre	2023-07-09T00:00:00	2024-11-08T16:00:00	6	Velocidad del viento	3.2
129210	7	Sololá	701	Sololá	4	Finca Santa Victoria	9	Septiembre	2023-07-09T00:00:00	2024-11-08T16:00:00	7	Dirección del viento	3.22
129211	7	Sololá	701	Sololá	4	Finca Santa Victoria	9	Septiembre	2023-07-09T00:00:00	2024-11-08T16:00:00	1	Precipitación	0
129212	7	Sololá	701	Sololá	4	Finca Santa Victoria	9	Septiembre	2023-07-09T00:00:00	2024-11-08T16:00:00	8	Radiación solar	101
129213	7	Sololá	701	Sololá	4	Finca Santa Victoria	9	Septiembre	2023-07-09T00:00:00	2024-11-08T17:00:00	2	Temperatura media	16.5
129214	7	Sololá	701	Sololá	4	Finca Santa Victoria	9	Septiembre	2023-07-09T00:00:00	2024-11-08T17:00:00	4	Temperatura máxima	17.2
129215	7	Sololá	701	Sololá	4	Finca Santa Victoria	9	Septiembre	2023-07-09T00:00:00	2024-11-08T17:00:00	3	Temperatura mínima	16.3
129216	7	Sololá	701	Sololá	4	Finca Santa Victoria	9	Septiembre	2023-07-09T00:00:00	2024-11-08T17:00:00	5	Humedad	97
129217	7	Sololá	701	Sololá	4	Finca Santa Victoria	9	Septiembre	2023-07-09T00:00:00	2024-11-08T17:00:00	6	Velocidad del viento	1.6
129218	7	Sololá	701	Sololá	4	Finca Santa Victoria	9	Septiembre	2023-07-09T00:00:00	2024-11-08T17:00:00	7	Dirección del viento	1.61
129219	7	Sololá	701	Sololá	4	Finca Santa Victoria	9	Septiembre	2023-07-09T00:00:00	2024-11-08T17:00:00	1	Precipitación	0
129220	7	Sololá	701	Sololá	4	Finca Santa Victoria	9	Septiembre	2023-07-09T00:00:00	2024-11-08T17:00:00	8	Radiación solar	27
129221	7	Sololá	701	Sololá	4	Finca Santa Victoria	9	Septiembre	2023-07-09T00:00:00	2024-11-08T18:00:00	2	Temperatura media	13.6
129222	7	Sololá	701	Sololá	4	Finca Santa Victoria	9	Septiembre	2023-07-09T00:00:00	2024-11-08T18:00:00	4	Temperatura máxima	16.4
129223	7	Sololá	701	Sololá	4	Finca Santa Victoria	9	Septiembre	2023-07-09T00:00:00	2024-11-08T18:00:00	3	Temperatura mínima	13.6
129224	7	Sololá	701	Sololá	4	Finca Santa Victoria	9	Septiembre	2023-07-09T00:00:00	2024-11-08T18:00:00	5	Humedad	94
129225	7	Sololá	701	Sololá	4	Finca Santa Victoria	9	Septiembre	2023-07-09T00:00:00	2024-11-08T18:00:00	6	Velocidad del viento	3.2
129226	7	Sololá	701	Sololá	4	Finca Santa Victoria	9	Septiembre	2023-07-09T00:00:00	2024-11-08T18:00:00	7	Dirección del viento	3.22
129227	7	Sololá	701	Sololá	4	Finca Santa Victoria	9	Septiembre	2023-07-09T00:00:00	2024-11-08T18:00:00	1	Precipitación	14.6
129228	7	Sololá	701	Sololá	4	Finca Santa Victoria	9	Septiembre	2023-07-09T00:00:00	2024-11-08T18:00:00	8	Radiación solar	4
129229	7	Sololá	701	Sololá	4	Finca Santa Victoria	9	Septiembre	2023-07-09T00:00:00	2024-11-08T19:00:00	2	Temperatura media	13.8
129230	7	Sololá	701	Sololá	4	Finca Santa Victoria	9	Septiembre	2023-07-09T00:00:00	2024-11-08T19:00:00	4	Temperatura máxima	13.8
129231	7	Sololá	701	Sololá	4	Finca Santa Victoria	9	Septiembre	2023-07-09T00:00:00	2024-11-08T19:00:00	3	Temperatura mínima	13.4
129232	7	Sololá	701	Sololá	4	Finca Santa Victoria	9	Septiembre	2023-07-09T00:00:00	2024-11-08T19:00:00	5	Humedad	97
129233	7	Sololá	701	Sololá	4	Finca Santa Victoria	9	Septiembre	2023-07-09T00:00:00	2024-11-08T19:00:00	6	Velocidad del viento	0
129234	7	Sololá	701	Sololá	4	Finca Santa Victoria	9	Septiembre	2023-07-09T00:00:00	2024-11-08T19:00:00	7	Dirección del viento	0
129235	7	Sololá	701	Sololá	4	Finca Santa Victoria	9	Septiembre	2023-07-09T00:00:00	2024-11-08T19:00:00	1	Precipitación	0.6
129236	7	Sololá	701	Sololá	4	Finca Santa Victoria	9	Septiembre	2023-07-09T00:00:00	2024-11-08T19:00:00	8	Radiación solar	0
129237	7	Sololá	701	Sololá	4	Finca Santa Victoria	9	Septiembre	2023-07-09T00:00:00	2024-11-08T20:00:00	2	Temperatura media	13.9
129238	7	Sololá	701	Sololá	4	Finca Santa Victoria	9	Septiembre	2023-07-09T00:00:00	2024-11-08T20:00:00	4	Temperatura máxima	14.3
129239	7	Sololá	701	Sololá	4	Finca Santa Victoria	9	Septiembre	2023-07-09T00:00:00	2024-11-08T20:00:00	3	Temperatura mínima	13.8
129240	7	Sololá	701	Sololá	4	Finca Santa Victoria	9	Septiembre	2023-07-09T00:00:00	2024-11-08T20:00:00	5	Humedad	95
129241	7	Sololá	701	Sololá	4	Finca Santa Victoria	9	Septiembre	2023-07-09T00:00:00	2024-11-08T20:00:00	6	Velocidad del viento	1.6
129242	7	Sololá	701	Sololá	4	Finca Santa Victoria	9	Septiembre	2023-07-09T00:00:00	2024-11-08T20:00:00	7	Dirección del viento	1.61
129243	7	Sololá	701	Sololá	4	Finca Santa Victoria	9	Septiembre	2023-07-09T00:00:00	2024-11-08T20:00:00	1	Precipitación	0
129244	7	Sololá	701	Sololá	4	Finca Santa Victoria	9	Septiembre	2023-07-09T00:00:00	2024-11-08T20:00:00	8	Radiación solar	0
129245	7	Sololá	701	Sololá	4	Finca Santa Victoria	9	Septiembre	2023-07-09T00:00:00	2024-11-08T21:00:00	2	Temperatura media	13.7
129246	7	Sololá	701	Sololá	4	Finca Santa Victoria	9	Septiembre	2023-07-09T00:00:00	2024-11-08T21:00:00	4	Temperatura máxima	13.9
129247	7	Sololá	701	Sololá	4	Finca Santa Victoria	9	Septiembre	2023-07-09T00:00:00	2024-11-08T21:00:00	3	Temperatura mínima	13.7
129248	7	Sololá	701	Sololá	4	Finca Santa Victoria	9	Septiembre	2023-07-09T00:00:00	2024-11-08T21:00:00	5	Humedad	94
129249	7	Sololá	701	Sololá	4	Finca Santa Victoria	9	Septiembre	2023-07-09T00:00:00	2024-11-08T21:00:00	6	Velocidad del viento	0
129250	7	Sololá	701	Sololá	4	Finca Santa Victoria	9	Septiembre	2023-07-09T00:00:00	2024-11-08T21:00:00	7	Dirección del viento	0
129251	7	Sololá	701	Sololá	4	Finca Santa Victoria	9	Septiembre	2023-07-09T00:00:00	2024-11-08T21:00:00	1	Precipitación	0
129252	7	Sololá	701	Sololá	4	Finca Santa Victoria	9	Septiembre	2023-07-09T00:00:00	2024-11-08T21:00:00	8	Radiación solar	0
129253	7	Sololá	701	Sololá	4	Finca Santa Victoria	9	Septiembre	2023-07-09T00:00:00	2024-11-08T22:00:00	2	Temperatura media	14.2
129254	7	Sololá	701	Sololá	4	Finca Santa Victoria	9	Septiembre	2023-07-09T00:00:00	2024-11-08T22:00:00	4	Temperatura máxima	14.2
129255	7	Sololá	701	Sololá	4	Finca Santa Victoria	9	Septiembre	2023-07-09T00:00:00	2024-11-08T22:00:00	3	Temperatura mínima	13.3
129256	7	Sololá	701	Sololá	4	Finca Santa Victoria	9	Septiembre	2023-07-09T00:00:00	2024-11-08T22:00:00	5	Humedad	92
129257	7	Sololá	701	Sololá	4	Finca Santa Victoria	9	Septiembre	2023-07-09T00:00:00	2024-11-08T22:00:00	6	Velocidad del viento	1.6
129258	7	Sololá	701	Sololá	4	Finca Santa Victoria	9	Septiembre	2023-07-09T00:00:00	2024-11-08T22:00:00	7	Dirección del viento	1.61
129259	7	Sololá	701	Sololá	4	Finca Santa Victoria	9	Septiembre	2023-07-09T00:00:00	2024-11-08T22:00:00	1	Precipitación	0.2
129260	7	Sololá	701	Sololá	4	Finca Santa Victoria	9	Septiembre	2023-07-09T00:00:00	2024-11-08T22:00:00	8	Radiación solar	0
129261	7	Sololá	701	Sololá	4	Finca Santa Victoria	9	Septiembre	2023-07-09T00:00:00	2024-11-08T23:00:00	2	Temperatura media	14.4
129262	7	Sololá	701	Sololá	4	Finca Santa Victoria	9	Septiembre	2023-07-09T00:00:00	2024-11-08T23:00:00	4	Temperatura máxima	14.6
129263	7	Sololá	701	Sololá	4	Finca Santa Victoria	9	Septiembre	2023-07-09T00:00:00	2024-11-08T23:00:00	3	Temperatura mínima	14.2
129264	7	Sololá	701	Sololá	4	Finca Santa Victoria	9	Septiembre	2023-07-09T00:00:00	2024-11-08T23:00:00	5	Humedad	89
129265	7	Sololá	701	Sololá	4	Finca Santa Victoria	9	Septiembre	2023-07-09T00:00:00	2024-11-08T23:00:00	6	Velocidad del viento	1.6
129266	7	Sololá	701	Sololá	4	Finca Santa Victoria	9	Septiembre	2023-07-09T00:00:00	2024-11-08T23:00:00	7	Dirección del viento	1.61
129267	7	Sololá	701	Sololá	4	Finca Santa Victoria	9	Septiembre	2023-07-09T00:00:00	2024-11-08T23:00:00	1	Precipitación	0
129268	7	Sololá	701	Sololá	4	Finca Santa Victoria	9	Septiembre	2023-07-09T00:00:00	2024-11-08T23:00:00	8	Radiación solar	0
129269	7	Sololá	701	Sololá	4	Finca Santa Victoria	9	Septiembre	2023-08-09T00:00:00	2024-11-08T00:00:00	2	Temperatura media	13.9
129270	7	Sololá	701	Sololá	4	Finca Santa Victoria	9	Septiembre	2023-08-09T00:00:00	2024-11-08T00:00:00	4	Temperatura máxima	14.4
129271	7	Sololá	701	Sololá	4	Finca Santa Victoria	9	Septiembre	2023-08-09T00:00:00	2024-11-08T00:00:00	3	Temperatura mínima	13.9
129272	7	Sololá	701	Sololá	4	Finca Santa Victoria	9	Septiembre	2023-08-09T00:00:00	2024-11-08T00:00:00	5	Humedad	88
129273	7	Sololá	701	Sololá	4	Finca Santa Victoria	9	Septiembre	2023-08-09T00:00:00	2024-11-08T00:00:00	6	Velocidad del viento	1.6
129274	7	Sololá	701	Sololá	4	Finca Santa Victoria	9	Septiembre	2023-08-09T00:00:00	2024-11-08T00:00:00	7	Dirección del viento	1.61
129275	7	Sololá	701	Sololá	4	Finca Santa Victoria	9	Septiembre	2023-08-09T00:00:00	2024-11-08T00:00:00	1	Precipitación	0
129276	7	Sololá	701	Sololá	4	Finca Santa Victoria	9	Septiembre	2023-08-09T00:00:00	2024-11-08T00:00:00	8	Radiación solar	0
129277	7	Sololá	701	Sololá	4	Finca Santa Victoria	9	Septiembre	2023-08-09T00:00:00	2024-11-08T01:00:00	2	Temperatura media	13.7
129278	7	Sololá	701	Sololá	4	Finca Santa Victoria	9	Septiembre	2023-08-09T00:00:00	2024-11-08T01:00:00	4	Temperatura máxima	14
129279	7	Sololá	701	Sololá	4	Finca Santa Victoria	9	Septiembre	2023-08-09T00:00:00	2024-11-08T01:00:00	3	Temperatura mínima	13.4
129280	7	Sololá	701	Sololá	4	Finca Santa Victoria	9	Septiembre	2023-08-09T00:00:00	2024-11-08T01:00:00	5	Humedad	90
129281	7	Sololá	701	Sololá	4	Finca Santa Victoria	9	Septiembre	2023-08-09T00:00:00	2024-11-08T01:00:00	6	Velocidad del viento	3.2
129282	7	Sololá	701	Sololá	4	Finca Santa Victoria	9	Septiembre	2023-08-09T00:00:00	2024-11-08T01:00:00	7	Dirección del viento	3.22
129283	7	Sololá	701	Sololá	4	Finca Santa Victoria	9	Septiembre	2023-08-09T00:00:00	2024-11-08T01:00:00	1	Precipitación	0
129284	7	Sololá	701	Sololá	4	Finca Santa Victoria	9	Septiembre	2023-08-09T00:00:00	2024-11-08T01:00:00	8	Radiación solar	0
129285	7	Sololá	701	Sololá	4	Finca Santa Victoria	9	Septiembre	2023-08-09T00:00:00	2024-11-08T02:00:00	2	Temperatura media	13.5
129286	7	Sololá	701	Sololá	4	Finca Santa Victoria	9	Septiembre	2023-08-09T00:00:00	2024-11-08T02:00:00	4	Temperatura máxima	13.7
129287	7	Sololá	701	Sololá	4	Finca Santa Victoria	9	Septiembre	2023-08-09T00:00:00	2024-11-08T02:00:00	3	Temperatura mínima	13.4
129288	7	Sololá	701	Sololá	4	Finca Santa Victoria	9	Septiembre	2023-08-09T00:00:00	2024-11-08T02:00:00	5	Humedad	90
129289	7	Sololá	701	Sololá	4	Finca Santa Victoria	9	Septiembre	2023-08-09T00:00:00	2024-11-08T02:00:00	6	Velocidad del viento	3.2
129290	7	Sololá	701	Sololá	4	Finca Santa Victoria	9	Septiembre	2023-08-09T00:00:00	2024-11-08T02:00:00	7	Dirección del viento	3.22
129291	7	Sololá	701	Sololá	4	Finca Santa Victoria	9	Septiembre	2023-08-09T00:00:00	2024-11-08T02:00:00	1	Precipitación	0
129292	7	Sololá	701	Sololá	4	Finca Santa Victoria	9	Septiembre	2023-08-09T00:00:00	2024-11-08T02:00:00	8	Radiación solar	0
129293	7	Sololá	701	Sololá	4	Finca Santa Victoria	9	Septiembre	2023-08-09T00:00:00	2024-11-08T03:00:00	2	Temperatura media	13.1
129294	7	Sololá	701	Sololá	4	Finca Santa Victoria	9	Septiembre	2023-08-09T00:00:00	2024-11-08T03:00:00	4	Temperatura máxima	13.6
129295	7	Sololá	701	Sololá	4	Finca Santa Victoria	9	Septiembre	2023-08-09T00:00:00	2024-11-08T03:00:00	3	Temperatura mínima	12.9
129296	7	Sololá	701	Sololá	4	Finca Santa Victoria	9	Septiembre	2023-08-09T00:00:00	2024-11-08T03:00:00	5	Humedad	90
129297	7	Sololá	701	Sololá	4	Finca Santa Victoria	9	Septiembre	2023-08-09T00:00:00	2024-11-08T03:00:00	6	Velocidad del viento	1.6
129298	7	Sololá	701	Sololá	4	Finca Santa Victoria	9	Septiembre	2023-08-09T00:00:00	2024-11-08T03:00:00	7	Dirección del viento	1.61
129299	7	Sololá	701	Sololá	4	Finca Santa Victoria	9	Septiembre	2023-08-09T00:00:00	2024-11-08T03:00:00	1	Precipitación	0
129300	7	Sololá	701	Sololá	4	Finca Santa Victoria	9	Septiembre	2023-08-09T00:00:00	2024-11-08T03:00:00	8	Radiación solar	0
129301	7	Sololá	701	Sololá	4	Finca Santa Victoria	9	Septiembre	2023-08-09T00:00:00	2024-11-08T04:00:00	2	Temperatura media	13.4
129302	7	Sololá	701	Sololá	4	Finca Santa Victoria	9	Septiembre	2023-08-09T00:00:00	2024-11-08T04:00:00	4	Temperatura máxima	13.6
129303	7	Sololá	701	Sololá	4	Finca Santa Victoria	9	Septiembre	2023-08-09T00:00:00	2024-11-08T04:00:00	3	Temperatura mínima	12.9
129304	7	Sololá	701	Sololá	4	Finca Santa Victoria	9	Septiembre	2023-08-09T00:00:00	2024-11-08T04:00:00	5	Humedad	88
129305	7	Sololá	701	Sololá	4	Finca Santa Victoria	9	Septiembre	2023-08-09T00:00:00	2024-11-08T04:00:00	6	Velocidad del viento	1.6
129306	7	Sololá	701	Sololá	4	Finca Santa Victoria	9	Septiembre	2023-08-09T00:00:00	2024-11-08T04:00:00	7	Dirección del viento	1.61
129307	7	Sololá	701	Sololá	4	Finca Santa Victoria	9	Septiembre	2023-08-09T00:00:00	2024-11-08T04:00:00	1	Precipitación	0
129308	7	Sololá	701	Sololá	4	Finca Santa Victoria	9	Septiembre	2023-08-09T00:00:00	2024-11-08T04:00:00	8	Radiación solar	0
129309	7	Sololá	701	Sololá	4	Finca Santa Victoria	9	Septiembre	2023-08-09T00:00:00	2024-11-08T05:00:00	2	Temperatura media	13.3
129310	7	Sololá	701	Sololá	4	Finca Santa Victoria	9	Septiembre	2023-08-09T00:00:00	2024-11-08T05:00:00	4	Temperatura máxima	13.5
129311	7	Sololá	701	Sololá	4	Finca Santa Victoria	9	Septiembre	2023-08-09T00:00:00	2024-11-08T05:00:00	3	Temperatura mínima	13.2
129312	7	Sololá	701	Sololá	4	Finca Santa Victoria	9	Septiembre	2023-08-09T00:00:00	2024-11-08T05:00:00	5	Humedad	87
129313	7	Sololá	701	Sololá	4	Finca Santa Victoria	9	Septiembre	2023-08-09T00:00:00	2024-11-08T05:00:00	6	Velocidad del viento	3.2
129314	7	Sololá	701	Sololá	4	Finca Santa Victoria	9	Septiembre	2023-08-09T00:00:00	2024-11-08T05:00:00	7	Dirección del viento	3.22
129315	7	Sololá	701	Sololá	4	Finca Santa Victoria	9	Septiembre	2023-08-09T00:00:00	2024-11-08T05:00:00	1	Precipitación	0
129316	7	Sololá	701	Sololá	4	Finca Santa Victoria	9	Septiembre	2023-08-09T00:00:00	2024-11-08T05:00:00	8	Radiación solar	0
129317	7	Sololá	701	Sololá	4	Finca Santa Victoria	9	Septiembre	2023-08-09T00:00:00	2024-11-08T06:00:00	2	Temperatura media	13.6
129318	7	Sololá	701	Sololá	4	Finca Santa Victoria	9	Septiembre	2023-08-09T00:00:00	2024-11-08T06:00:00	4	Temperatura máxima	13.6
129319	7	Sololá	701	Sololá	4	Finca Santa Victoria	9	Septiembre	2023-08-09T00:00:00	2024-11-08T06:00:00	3	Temperatura mínima	13.2
129320	7	Sololá	701	Sololá	4	Finca Santa Victoria	9	Septiembre	2023-08-09T00:00:00	2024-11-08T06:00:00	5	Humedad	84
129321	7	Sololá	701	Sololá	4	Finca Santa Victoria	9	Septiembre	2023-08-09T00:00:00	2024-11-08T06:00:00	6	Velocidad del viento	3.2
129322	7	Sololá	701	Sololá	4	Finca Santa Victoria	9	Septiembre	2023-08-09T00:00:00	2024-11-08T06:00:00	7	Dirección del viento	3.22
129323	7	Sololá	701	Sololá	4	Finca Santa Victoria	9	Septiembre	2023-08-09T00:00:00	2024-11-08T06:00:00	1	Precipitación	0
129324	7	Sololá	701	Sololá	4	Finca Santa Victoria	9	Septiembre	2023-08-09T00:00:00	2024-11-08T06:00:00	8	Radiación solar	0
129325	7	Sololá	701	Sololá	4	Finca Santa Victoria	9	Septiembre	2023-08-09T00:00:00	2024-11-08T07:00:00	2	Temperatura media	14.2
129326	7	Sololá	701	Sololá	4	Finca Santa Victoria	9	Septiembre	2023-08-09T00:00:00	2024-11-08T07:00:00	4	Temperatura máxima	14.2
129327	7	Sololá	701	Sololá	4	Finca Santa Victoria	9	Septiembre	2023-08-09T00:00:00	2024-11-08T07:00:00	3	Temperatura mínima	13.5
129328	7	Sololá	701	Sololá	4	Finca Santa Victoria	9	Septiembre	2023-08-09T00:00:00	2024-11-08T07:00:00	5	Humedad	83
129329	7	Sololá	701	Sololá	4	Finca Santa Victoria	9	Septiembre	2023-08-09T00:00:00	2024-11-08T07:00:00	6	Velocidad del viento	3.2
129330	7	Sololá	701	Sololá	4	Finca Santa Victoria	9	Septiembre	2023-08-09T00:00:00	2024-11-08T07:00:00	7	Dirección del viento	3.22
129331	7	Sololá	701	Sololá	4	Finca Santa Victoria	9	Septiembre	2023-08-09T00:00:00	2024-11-08T07:00:00	1	Precipitación	0
129332	7	Sololá	701	Sololá	4	Finca Santa Victoria	9	Septiembre	2023-08-09T00:00:00	2024-11-08T07:00:00	8	Radiación solar	23
129333	7	Sololá	701	Sololá	4	Finca Santa Victoria	9	Septiembre	2023-08-09T00:00:00	2024-11-08T08:00:00	2	Temperatura media	18
129334	7	Sololá	701	Sololá	4	Finca Santa Victoria	9	Septiembre	2023-08-09T00:00:00	2024-11-08T08:00:00	4	Temperatura máxima	18
129335	7	Sololá	701	Sololá	4	Finca Santa Victoria	9	Septiembre	2023-08-09T00:00:00	2024-11-08T08:00:00	3	Temperatura mínima	14.2
129336	7	Sololá	701	Sololá	4	Finca Santa Victoria	9	Septiembre	2023-08-09T00:00:00	2024-11-08T08:00:00	5	Humedad	71
129337	7	Sololá	701	Sololá	4	Finca Santa Victoria	9	Septiembre	2023-08-09T00:00:00	2024-11-08T08:00:00	6	Velocidad del viento	1.6
129338	7	Sololá	701	Sololá	4	Finca Santa Victoria	9	Septiembre	2023-08-09T00:00:00	2024-11-08T08:00:00	7	Dirección del viento	1.61
129339	7	Sololá	701	Sololá	4	Finca Santa Victoria	9	Septiembre	2023-08-09T00:00:00	2024-11-08T08:00:00	1	Precipitación	0
129340	7	Sololá	701	Sololá	4	Finca Santa Victoria	9	Septiembre	2023-08-09T00:00:00	2024-11-08T08:00:00	8	Radiación solar	226
129341	7	Sololá	701	Sololá	4	Finca Santa Victoria	9	Septiembre	2023-08-09T00:00:00	2024-11-08T09:00:00	2	Temperatura media	19.9
129342	7	Sololá	701	Sololá	4	Finca Santa Victoria	9	Septiembre	2023-08-09T00:00:00	2024-11-08T09:00:00	4	Temperatura máxima	19.9
129343	7	Sololá	701	Sololá	4	Finca Santa Victoria	9	Septiembre	2023-08-09T00:00:00	2024-11-08T09:00:00	3	Temperatura mínima	18
129344	7	Sololá	701	Sololá	4	Finca Santa Victoria	9	Septiembre	2023-08-09T00:00:00	2024-11-08T09:00:00	5	Humedad	66
129345	7	Sololá	701	Sololá	4	Finca Santa Victoria	9	Septiembre	2023-08-09T00:00:00	2024-11-08T09:00:00	6	Velocidad del viento	1.6
129346	7	Sololá	701	Sololá	4	Finca Santa Victoria	9	Septiembre	2023-08-09T00:00:00	2024-11-08T09:00:00	7	Dirección del viento	1.61
129347	7	Sololá	701	Sololá	4	Finca Santa Victoria	9	Septiembre	2023-08-09T00:00:00	2024-11-08T09:00:00	1	Precipitación	0
129348	7	Sololá	701	Sololá	4	Finca Santa Victoria	9	Septiembre	2023-08-09T00:00:00	2024-11-08T09:00:00	8	Radiación solar	287
129349	7	Sololá	701	Sololá	4	Finca Santa Victoria	9	Septiembre	2023-08-09T00:00:00	2024-11-08T10:00:00	2	Temperatura media	20.9
129350	7	Sololá	701	Sololá	4	Finca Santa Victoria	9	Septiembre	2023-08-09T00:00:00	2024-11-08T10:00:00	4	Temperatura máxima	20.9
129351	7	Sololá	701	Sololá	4	Finca Santa Victoria	9	Septiembre	2023-08-09T00:00:00	2024-11-08T10:00:00	3	Temperatura mínima	19.9
129352	7	Sololá	701	Sololá	4	Finca Santa Victoria	9	Septiembre	2023-08-09T00:00:00	2024-11-08T10:00:00	5	Humedad	66
129353	7	Sololá	701	Sololá	4	Finca Santa Victoria	9	Septiembre	2023-08-09T00:00:00	2024-11-08T10:00:00	6	Velocidad del viento	3.2
129354	7	Sololá	701	Sololá	4	Finca Santa Victoria	9	Septiembre	2023-08-09T00:00:00	2024-11-08T10:00:00	7	Dirección del viento	3.22
129355	7	Sololá	701	Sololá	4	Finca Santa Victoria	9	Septiembre	2023-08-09T00:00:00	2024-11-08T10:00:00	1	Precipitación	0
129356	7	Sololá	701	Sololá	4	Finca Santa Victoria	9	Septiembre	2023-08-09T00:00:00	2024-11-08T10:00:00	8	Radiación solar	396
129357	7	Sololá	701	Sololá	4	Finca Santa Victoria	9	Septiembre	2023-08-09T00:00:00	2024-11-08T11:00:00	2	Temperatura media	21.3
129358	7	Sololá	701	Sololá	4	Finca Santa Victoria	9	Septiembre	2023-08-09T00:00:00	2024-11-08T11:00:00	4	Temperatura máxima	21.6
129359	7	Sololá	701	Sololá	4	Finca Santa Victoria	9	Septiembre	2023-08-09T00:00:00	2024-11-08T11:00:00	3	Temperatura mínima	20.8
129360	7	Sololá	701	Sololá	4	Finca Santa Victoria	9	Septiembre	2023-08-09T00:00:00	2024-11-08T11:00:00	5	Humedad	65
129361	7	Sololá	701	Sololá	4	Finca Santa Victoria	9	Septiembre	2023-08-09T00:00:00	2024-11-08T11:00:00	6	Velocidad del viento	3.2
129362	7	Sololá	701	Sololá	4	Finca Santa Victoria	9	Septiembre	2023-08-09T00:00:00	2024-11-08T11:00:00	7	Dirección del viento	3.22
129363	7	Sololá	701	Sololá	4	Finca Santa Victoria	9	Septiembre	2023-08-09T00:00:00	2024-11-08T11:00:00	1	Precipitación	0
129364	7	Sololá	701	Sololá	4	Finca Santa Victoria	9	Septiembre	2023-08-09T00:00:00	2024-11-08T11:00:00	8	Radiación solar	974
129365	7	Sololá	701	Sololá	4	Finca Santa Victoria	9	Septiembre	2023-08-09T00:00:00	2024-11-08T12:00:00	2	Temperatura media	20.7
129366	7	Sololá	701	Sololá	4	Finca Santa Victoria	9	Septiembre	2023-08-09T00:00:00	2024-11-08T12:00:00	4	Temperatura máxima	21.8
129367	7	Sololá	701	Sololá	4	Finca Santa Victoria	9	Septiembre	2023-08-09T00:00:00	2024-11-08T12:00:00	3	Temperatura mínima	20.6
129368	7	Sololá	701	Sololá	4	Finca Santa Victoria	9	Septiembre	2023-08-09T00:00:00	2024-11-08T12:00:00	5	Humedad	73
129369	7	Sololá	701	Sololá	4	Finca Santa Victoria	9	Septiembre	2023-08-09T00:00:00	2024-11-08T12:00:00	6	Velocidad del viento	3.2
129370	7	Sololá	701	Sololá	4	Finca Santa Victoria	9	Septiembre	2023-08-09T00:00:00	2024-11-08T12:00:00	7	Dirección del viento	3.22
129371	7	Sololá	701	Sololá	4	Finca Santa Victoria	9	Septiembre	2023-08-09T00:00:00	2024-11-08T12:00:00	1	Precipitación	0
129372	7	Sololá	701	Sololá	4	Finca Santa Victoria	9	Septiembre	2023-08-09T00:00:00	2024-11-08T12:00:00	8	Radiación solar	673
129373	7	Sololá	701	Sololá	4	Finca Santa Victoria	9	Septiembre	2023-08-09T00:00:00	2024-11-08T13:00:00	2	Temperatura media	20
129374	7	Sololá	701	Sololá	4	Finca Santa Victoria	9	Septiembre	2023-08-09T00:00:00	2024-11-08T13:00:00	4	Temperatura máxima	21.2
129375	7	Sololá	701	Sololá	4	Finca Santa Victoria	9	Septiembre	2023-08-09T00:00:00	2024-11-08T13:00:00	3	Temperatura mínima	20
129376	7	Sololá	701	Sololá	4	Finca Santa Victoria	9	Septiembre	2023-08-09T00:00:00	2024-11-08T13:00:00	5	Humedad	82
129377	7	Sololá	701	Sololá	4	Finca Santa Victoria	9	Septiembre	2023-08-09T00:00:00	2024-11-08T13:00:00	6	Velocidad del viento	1.6
129378	7	Sololá	701	Sololá	4	Finca Santa Victoria	9	Septiembre	2023-08-09T00:00:00	2024-11-08T13:00:00	7	Dirección del viento	1.61
129379	7	Sololá	701	Sololá	4	Finca Santa Victoria	9	Septiembre	2023-08-09T00:00:00	2024-11-08T13:00:00	1	Precipitación	0
129380	7	Sololá	701	Sololá	4	Finca Santa Victoria	9	Septiembre	2023-08-09T00:00:00	2024-11-08T13:00:00	8	Radiación solar	215
129381	7	Sololá	701	Sololá	4	Finca Santa Victoria	9	Septiembre	2023-08-09T00:00:00	2024-11-08T14:00:00	2	Temperatura media	19.6
129382	7	Sololá	701	Sololá	4	Finca Santa Victoria	9	Septiembre	2023-08-09T00:00:00	2024-11-08T14:00:00	4	Temperatura máxima	20
129383	7	Sololá	701	Sololá	4	Finca Santa Victoria	9	Septiembre	2023-08-09T00:00:00	2024-11-08T14:00:00	3	Temperatura mínima	19
129384	7	Sololá	701	Sololá	4	Finca Santa Victoria	9	Septiembre	2023-08-09T00:00:00	2024-11-08T14:00:00	5	Humedad	86
129385	7	Sololá	701	Sololá	4	Finca Santa Victoria	9	Septiembre	2023-08-09T00:00:00	2024-11-08T14:00:00	6	Velocidad del viento	1.6
129386	7	Sololá	701	Sololá	4	Finca Santa Victoria	9	Septiembre	2023-08-09T00:00:00	2024-11-08T14:00:00	7	Dirección del viento	1.61
129387	7	Sololá	701	Sololá	4	Finca Santa Victoria	9	Septiembre	2023-08-09T00:00:00	2024-11-08T14:00:00	1	Precipitación	0
129388	7	Sololá	701	Sololá	4	Finca Santa Victoria	9	Septiembre	2023-08-09T00:00:00	2024-11-08T14:00:00	8	Radiación solar	164
129389	7	Sololá	701	Sololá	4	Finca Santa Victoria	9	Septiembre	2023-08-09T00:00:00	2024-11-08T15:00:00	2	Temperatura media	18.4
129390	7	Sololá	701	Sololá	4	Finca Santa Victoria	9	Septiembre	2023-08-09T00:00:00	2024-11-08T15:00:00	4	Temperatura máxima	19.8
129391	7	Sololá	701	Sololá	4	Finca Santa Victoria	9	Septiembre	2023-08-09T00:00:00	2024-11-08T15:00:00	3	Temperatura mínima	18.4
129392	7	Sololá	701	Sololá	4	Finca Santa Victoria	9	Septiembre	2023-08-09T00:00:00	2024-11-08T15:00:00	5	Humedad	91
129393	7	Sololá	701	Sololá	4	Finca Santa Victoria	9	Septiembre	2023-08-09T00:00:00	2024-11-08T15:00:00	6	Velocidad del viento	3.2
129394	7	Sololá	701	Sololá	4	Finca Santa Victoria	9	Septiembre	2023-08-09T00:00:00	2024-11-08T15:00:00	7	Dirección del viento	3.22
129395	7	Sololá	701	Sololá	4	Finca Santa Victoria	9	Septiembre	2023-08-09T00:00:00	2024-11-08T15:00:00	1	Precipitación	0
129396	7	Sololá	701	Sololá	4	Finca Santa Victoria	9	Septiembre	2023-08-09T00:00:00	2024-11-08T15:00:00	8	Radiación solar	137
129397	7	Sololá	701	Sololá	4	Finca Santa Victoria	9	Septiembre	2023-08-09T00:00:00	2024-11-08T16:00:00	2	Temperatura media	17.5
129398	7	Sololá	701	Sololá	4	Finca Santa Victoria	9	Septiembre	2023-08-09T00:00:00	2024-11-08T16:00:00	4	Temperatura máxima	18.7
129399	7	Sololá	701	Sololá	4	Finca Santa Victoria	9	Septiembre	2023-08-09T00:00:00	2024-11-08T16:00:00	3	Temperatura mínima	17.5
129400	7	Sololá	701	Sololá	4	Finca Santa Victoria	9	Septiembre	2023-08-09T00:00:00	2024-11-08T16:00:00	5	Humedad	92
129401	7	Sololá	701	Sololá	4	Finca Santa Victoria	9	Septiembre	2023-08-09T00:00:00	2024-11-08T16:00:00	6	Velocidad del viento	3.2
129402	7	Sololá	701	Sololá	4	Finca Santa Victoria	9	Septiembre	2023-08-09T00:00:00	2024-11-08T16:00:00	7	Dirección del viento	3.22
129403	7	Sololá	701	Sololá	4	Finca Santa Victoria	9	Septiembre	2023-08-09T00:00:00	2024-11-08T16:00:00	1	Precipitación	0
129404	7	Sololá	701	Sololá	4	Finca Santa Victoria	9	Septiembre	2023-08-09T00:00:00	2024-11-08T16:00:00	8	Radiación solar	88
129405	7	Sololá	701	Sololá	4	Finca Santa Victoria	9	Septiembre	2023-08-09T00:00:00	2024-11-08T17:00:00	2	Temperatura media	16.4
129406	7	Sololá	701	Sololá	4	Finca Santa Victoria	9	Septiembre	2023-08-09T00:00:00	2024-11-08T17:00:00	4	Temperatura máxima	17.5
129407	7	Sololá	701	Sololá	4	Finca Santa Victoria	9	Septiembre	2023-08-09T00:00:00	2024-11-08T17:00:00	3	Temperatura mínima	16.4
129408	7	Sololá	701	Sololá	4	Finca Santa Victoria	9	Septiembre	2023-08-09T00:00:00	2024-11-08T17:00:00	5	Humedad	95
129409	7	Sololá	701	Sololá	4	Finca Santa Victoria	9	Septiembre	2023-08-09T00:00:00	2024-11-08T17:00:00	6	Velocidad del viento	1.6
129410	7	Sololá	701	Sololá	4	Finca Santa Victoria	9	Septiembre	2023-08-09T00:00:00	2024-11-08T17:00:00	7	Dirección del viento	1.61
129411	7	Sololá	701	Sololá	4	Finca Santa Victoria	9	Septiembre	2023-08-09T00:00:00	2024-11-08T17:00:00	1	Precipitación	0
129412	7	Sololá	701	Sololá	4	Finca Santa Victoria	9	Septiembre	2023-08-09T00:00:00	2024-11-08T17:00:00	8	Radiación solar	29
129413	7	Sololá	701	Sololá	4	Finca Santa Victoria	9	Septiembre	2023-08-09T00:00:00	2024-11-08T18:00:00	2	Temperatura media	16.1
129414	7	Sololá	701	Sololá	4	Finca Santa Victoria	9	Septiembre	2023-08-09T00:00:00	2024-11-08T18:00:00	4	Temperatura máxima	16.4
129415	7	Sololá	701	Sololá	4	Finca Santa Victoria	9	Septiembre	2023-08-09T00:00:00	2024-11-08T18:00:00	3	Temperatura mínima	16.1
129416	7	Sololá	701	Sololá	4	Finca Santa Victoria	9	Septiembre	2023-08-09T00:00:00	2024-11-08T18:00:00	5	Humedad	97
129417	7	Sololá	701	Sololá	4	Finca Santa Victoria	9	Septiembre	2023-08-09T00:00:00	2024-11-08T18:00:00	6	Velocidad del viento	1.6
129418	7	Sololá	701	Sololá	4	Finca Santa Victoria	9	Septiembre	2023-08-09T00:00:00	2024-11-08T18:00:00	7	Dirección del viento	1.61
129419	7	Sololá	701	Sololá	4	Finca Santa Victoria	9	Septiembre	2023-08-09T00:00:00	2024-11-08T18:00:00	1	Precipitación	0
129420	7	Sololá	701	Sololá	4	Finca Santa Victoria	9	Septiembre	2023-08-09T00:00:00	2024-11-08T18:00:00	8	Radiación solar	9
129421	7	Sololá	701	Sololá	4	Finca Santa Victoria	9	Septiembre	2023-08-09T00:00:00	2024-11-08T19:00:00	2	Temperatura media	13.7
129422	7	Sololá	701	Sololá	4	Finca Santa Victoria	9	Septiembre	2023-08-09T00:00:00	2024-11-08T19:00:00	4	Temperatura máxima	16.1
129423	7	Sololá	701	Sololá	4	Finca Santa Victoria	9	Septiembre	2023-08-09T00:00:00	2024-11-08T19:00:00	3	Temperatura mínima	13.7
129424	7	Sololá	701	Sololá	4	Finca Santa Victoria	9	Septiembre	2023-08-09T00:00:00	2024-11-08T19:00:00	5	Humedad	95
129425	7	Sololá	701	Sololá	4	Finca Santa Victoria	9	Septiembre	2023-08-09T00:00:00	2024-11-08T19:00:00	6	Velocidad del viento	1.6
129426	7	Sololá	701	Sololá	4	Finca Santa Victoria	9	Septiembre	2023-08-09T00:00:00	2024-11-08T19:00:00	7	Dirección del viento	1.61
129427	7	Sololá	701	Sololá	4	Finca Santa Victoria	9	Septiembre	2023-08-09T00:00:00	2024-11-08T19:00:00	1	Precipitación	6.6
129428	7	Sololá	701	Sololá	4	Finca Santa Victoria	9	Septiembre	2023-08-09T00:00:00	2024-11-08T19:00:00	8	Radiación solar	0
129429	7	Sololá	701	Sololá	4	Finca Santa Victoria	9	Septiembre	2023-08-09T00:00:00	2024-11-08T20:00:00	2	Temperatura media	13.4
129430	7	Sololá	701	Sololá	4	Finca Santa Victoria	9	Septiembre	2023-08-09T00:00:00	2024-11-08T20:00:00	4	Temperatura máxima	13.7
129431	7	Sololá	701	Sololá	4	Finca Santa Victoria	9	Septiembre	2023-08-09T00:00:00	2024-11-08T20:00:00	3	Temperatura mínima	13.4
129432	7	Sololá	701	Sololá	4	Finca Santa Victoria	9	Septiembre	2023-08-09T00:00:00	2024-11-08T20:00:00	5	Humedad	97
129433	7	Sololá	701	Sololá	4	Finca Santa Victoria	9	Septiembre	2023-08-09T00:00:00	2024-11-08T20:00:00	6	Velocidad del viento	0
129434	7	Sololá	701	Sololá	4	Finca Santa Victoria	9	Septiembre	2023-08-09T00:00:00	2024-11-08T20:00:00	7	Dirección del viento	0
129435	7	Sololá	701	Sololá	4	Finca Santa Victoria	9	Septiembre	2023-08-09T00:00:00	2024-11-08T20:00:00	1	Precipitación	2.2
129436	7	Sololá	701	Sololá	4	Finca Santa Victoria	9	Septiembre	2023-08-09T00:00:00	2024-11-08T20:00:00	8	Radiación solar	0
129437	7	Sololá	701	Sololá	4	Finca Santa Victoria	9	Septiembre	2023-08-09T00:00:00	2024-11-08T21:00:00	2	Temperatura media	13.5
129438	7	Sololá	701	Sololá	4	Finca Santa Victoria	9	Septiembre	2023-08-09T00:00:00	2024-11-08T21:00:00	4	Temperatura máxima	13.6
129439	7	Sololá	701	Sololá	4	Finca Santa Victoria	9	Septiembre	2023-08-09T00:00:00	2024-11-08T21:00:00	3	Temperatura mínima	13.4
129440	7	Sololá	701	Sololá	4	Finca Santa Victoria	9	Septiembre	2023-08-09T00:00:00	2024-11-08T21:00:00	5	Humedad	97
129441	7	Sololá	701	Sololá	4	Finca Santa Victoria	9	Septiembre	2023-08-09T00:00:00	2024-11-08T21:00:00	6	Velocidad del viento	0
129442	7	Sololá	701	Sololá	4	Finca Santa Victoria	9	Septiembre	2023-08-09T00:00:00	2024-11-08T21:00:00	7	Dirección del viento	0
129443	7	Sololá	701	Sololá	4	Finca Santa Victoria	9	Septiembre	2023-08-09T00:00:00	2024-11-08T21:00:00	1	Precipitación	4
129444	7	Sololá	701	Sololá	4	Finca Santa Victoria	9	Septiembre	2023-08-09T00:00:00	2024-11-08T21:00:00	8	Radiación solar	0
129445	7	Sololá	701	Sololá	4	Finca Santa Victoria	9	Septiembre	2023-08-09T00:00:00	2024-11-08T22:00:00	2	Temperatura media	13.5
129446	7	Sololá	701	Sololá	4	Finca Santa Victoria	9	Septiembre	2023-08-09T00:00:00	2024-11-08T22:00:00	4	Temperatura máxima	13.6
129447	7	Sololá	701	Sololá	4	Finca Santa Victoria	9	Septiembre	2023-08-09T00:00:00	2024-11-08T22:00:00	3	Temperatura mínima	13.4
129448	7	Sololá	701	Sololá	4	Finca Santa Victoria	9	Septiembre	2023-08-09T00:00:00	2024-11-08T22:00:00	5	Humedad	97
129449	7	Sololá	701	Sololá	4	Finca Santa Victoria	9	Septiembre	2023-08-09T00:00:00	2024-11-08T22:00:00	6	Velocidad del viento	0
129450	7	Sololá	701	Sololá	4	Finca Santa Victoria	9	Septiembre	2023-08-09T00:00:00	2024-11-08T22:00:00	7	Dirección del viento	0
129451	7	Sololá	701	Sololá	4	Finca Santa Victoria	9	Septiembre	2023-08-09T00:00:00	2024-11-08T22:00:00	1	Precipitación	0
129452	7	Sololá	701	Sololá	4	Finca Santa Victoria	9	Septiembre	2023-08-09T00:00:00	2024-11-08T22:00:00	8	Radiación solar	0
129453	7	Sololá	701	Sololá	4	Finca Santa Victoria	9	Septiembre	2023-08-09T00:00:00	2024-11-08T23:00:00	2	Temperatura media	13.2
129454	7	Sololá	701	Sololá	4	Finca Santa Victoria	9	Septiembre	2023-08-09T00:00:00	2024-11-08T23:00:00	4	Temperatura máxima	13.6
129455	7	Sololá	701	Sololá	4	Finca Santa Victoria	9	Septiembre	2023-08-09T00:00:00	2024-11-08T23:00:00	3	Temperatura mínima	13.1
129456	7	Sololá	701	Sololá	4	Finca Santa Victoria	9	Septiembre	2023-08-09T00:00:00	2024-11-08T23:00:00	5	Humedad	97
129457	7	Sololá	701	Sololá	4	Finca Santa Victoria	9	Septiembre	2023-08-09T00:00:00	2024-11-08T23:00:00	6	Velocidad del viento	0
129458	7	Sololá	701	Sololá	4	Finca Santa Victoria	9	Septiembre	2023-08-09T00:00:00	2024-11-08T23:00:00	7	Dirección del viento	0
129459	7	Sololá	701	Sololá	4	Finca Santa Victoria	9	Septiembre	2023-08-09T00:00:00	2024-11-08T23:00:00	1	Precipitación	0.2
129460	7	Sololá	701	Sololá	4	Finca Santa Victoria	9	Septiembre	2023-08-09T00:00:00	2024-11-08T23:00:00	8	Radiación solar	0
129461	7	Sololá	701	Sololá	4	Finca Santa Victoria	9	Septiembre	2023-09-09T00:00:00	2024-11-08T00:00:00	2	Temperatura media	13.1
129462	7	Sololá	701	Sololá	4	Finca Santa Victoria	9	Septiembre	2023-09-09T00:00:00	2024-11-08T00:00:00	4	Temperatura máxima	13.2
129463	7	Sololá	701	Sololá	4	Finca Santa Victoria	9	Septiembre	2023-09-09T00:00:00	2024-11-08T00:00:00	3	Temperatura mínima	13
129464	7	Sololá	701	Sololá	4	Finca Santa Victoria	9	Septiembre	2023-09-09T00:00:00	2024-11-08T00:00:00	5	Humedad	97
129465	7	Sololá	701	Sololá	4	Finca Santa Victoria	9	Septiembre	2023-09-09T00:00:00	2024-11-08T00:00:00	6	Velocidad del viento	0
129466	7	Sololá	701	Sololá	4	Finca Santa Victoria	9	Septiembre	2023-09-09T00:00:00	2024-11-08T00:00:00	7	Dirección del viento	0
129467	7	Sololá	701	Sololá	4	Finca Santa Victoria	9	Septiembre	2023-09-09T00:00:00	2024-11-08T00:00:00	1	Precipitación	0
129468	7	Sololá	701	Sololá	4	Finca Santa Victoria	9	Septiembre	2023-09-09T00:00:00	2024-11-08T00:00:00	8	Radiación solar	0
129469	7	Sololá	701	Sololá	4	Finca Santa Victoria	9	Septiembre	2023-09-09T00:00:00	2024-11-08T01:00:00	2	Temperatura media	12.8
129470	7	Sololá	701	Sololá	4	Finca Santa Victoria	9	Septiembre	2023-09-09T00:00:00	2024-11-08T01:00:00	4	Temperatura máxima	13.1
129471	7	Sololá	701	Sololá	4	Finca Santa Victoria	9	Septiembre	2023-09-09T00:00:00	2024-11-08T01:00:00	3	Temperatura mínima	12.8
129472	7	Sololá	701	Sololá	4	Finca Santa Victoria	9	Septiembre	2023-09-09T00:00:00	2024-11-08T01:00:00	5	Humedad	96
129473	7	Sololá	701	Sololá	4	Finca Santa Victoria	9	Septiembre	2023-09-09T00:00:00	2024-11-08T01:00:00	6	Velocidad del viento	0
129474	7	Sololá	701	Sololá	4	Finca Santa Victoria	9	Septiembre	2023-09-09T00:00:00	2024-11-08T01:00:00	7	Dirección del viento	0
129475	7	Sololá	701	Sololá	4	Finca Santa Victoria	9	Septiembre	2023-09-09T00:00:00	2024-11-08T01:00:00	1	Precipitación	0
129476	7	Sololá	701	Sololá	4	Finca Santa Victoria	9	Septiembre	2023-09-09T00:00:00	2024-11-08T01:00:00	8	Radiación solar	0
129477	7	Sololá	701	Sololá	4	Finca Santa Victoria	9	Septiembre	2023-09-09T00:00:00	2024-11-08T02:00:00	2	Temperatura media	12.9
129478	7	Sololá	701	Sololá	4	Finca Santa Victoria	9	Septiembre	2023-09-09T00:00:00	2024-11-08T02:00:00	4	Temperatura máxima	12.9
129479	7	Sololá	701	Sololá	4	Finca Santa Victoria	9	Septiembre	2023-09-09T00:00:00	2024-11-08T02:00:00	3	Temperatura mínima	12.7
129480	7	Sololá	701	Sololá	4	Finca Santa Victoria	9	Septiembre	2023-09-09T00:00:00	2024-11-08T02:00:00	5	Humedad	97
129481	7	Sololá	701	Sololá	4	Finca Santa Victoria	9	Septiembre	2023-09-09T00:00:00	2024-11-08T02:00:00	6	Velocidad del viento	0
129482	7	Sololá	701	Sololá	4	Finca Santa Victoria	9	Septiembre	2023-09-09T00:00:00	2024-11-08T02:00:00	7	Dirección del viento	0
129483	7	Sololá	701	Sololá	4	Finca Santa Victoria	9	Septiembre	2023-09-09T00:00:00	2024-11-08T02:00:00	1	Precipitación	0
129484	7	Sololá	701	Sololá	4	Finca Santa Victoria	9	Septiembre	2023-09-09T00:00:00	2024-11-08T02:00:00	8	Radiación solar	0
129485	7	Sololá	701	Sololá	4	Finca Santa Victoria	9	Septiembre	2023-09-09T00:00:00	2024-11-08T03:00:00	2	Temperatura media	12.9
129486	7	Sololá	701	Sololá	4	Finca Santa Victoria	9	Septiembre	2023-09-09T00:00:00	2024-11-08T03:00:00	4	Temperatura máxima	13.4
129487	7	Sololá	701	Sololá	4	Finca Santa Victoria	9	Septiembre	2023-09-09T00:00:00	2024-11-08T03:00:00	3	Temperatura mínima	12.9
129488	7	Sololá	701	Sololá	4	Finca Santa Victoria	9	Septiembre	2023-09-09T00:00:00	2024-11-08T03:00:00	5	Humedad	96
129489	7	Sololá	701	Sololá	4	Finca Santa Victoria	9	Septiembre	2023-09-09T00:00:00	2024-11-08T03:00:00	6	Velocidad del viento	1.6
129490	7	Sololá	701	Sololá	4	Finca Santa Victoria	9	Septiembre	2023-09-09T00:00:00	2024-11-08T03:00:00	7	Dirección del viento	1.61
129491	7	Sololá	701	Sololá	4	Finca Santa Victoria	9	Septiembre	2023-09-09T00:00:00	2024-11-08T03:00:00	1	Precipitación	0.2
129492	7	Sololá	701	Sololá	4	Finca Santa Victoria	9	Septiembre	2023-09-09T00:00:00	2024-11-08T03:00:00	8	Radiación solar	0
129493	7	Sololá	701	Sololá	4	Finca Santa Victoria	9	Septiembre	2023-09-09T00:00:00	2024-11-08T04:00:00	2	Temperatura media	12.5
129494	7	Sololá	701	Sololá	4	Finca Santa Victoria	9	Septiembre	2023-09-09T00:00:00	2024-11-08T04:00:00	4	Temperatura máxima	13.1
129495	7	Sololá	701	Sololá	4	Finca Santa Victoria	9	Septiembre	2023-09-09T00:00:00	2024-11-08T04:00:00	3	Temperatura mínima	12.4
129496	7	Sololá	701	Sololá	4	Finca Santa Victoria	9	Septiembre	2023-09-09T00:00:00	2024-11-08T04:00:00	5	Humedad	94
129497	7	Sololá	701	Sololá	4	Finca Santa Victoria	9	Septiembre	2023-09-09T00:00:00	2024-11-08T04:00:00	6	Velocidad del viento	0
129498	7	Sololá	701	Sololá	4	Finca Santa Victoria	9	Septiembre	2023-09-09T00:00:00	2024-11-08T04:00:00	7	Dirección del viento	0
129499	7	Sololá	701	Sololá	4	Finca Santa Victoria	9	Septiembre	2023-09-09T00:00:00	2024-11-08T04:00:00	1	Precipitación	0.2
129500	7	Sololá	701	Sololá	4	Finca Santa Victoria	9	Septiembre	2023-09-09T00:00:00	2024-11-08T04:00:00	8	Radiación solar	0
129501	7	Sololá	701	Sololá	4	Finca Santa Victoria	9	Septiembre	2023-09-09T00:00:00	2024-11-08T05:00:00	2	Temperatura media	11.7
129502	7	Sololá	701	Sololá	4	Finca Santa Victoria	9	Septiembre	2023-09-09T00:00:00	2024-11-08T05:00:00	4	Temperatura máxima	12.5
129503	7	Sololá	701	Sololá	4	Finca Santa Victoria	9	Septiembre	2023-09-09T00:00:00	2024-11-08T05:00:00	3	Temperatura mínima	11.7
129504	7	Sololá	701	Sololá	4	Finca Santa Victoria	9	Septiembre	2023-09-09T00:00:00	2024-11-08T05:00:00	5	Humedad	96
129505	7	Sololá	701	Sololá	4	Finca Santa Victoria	9	Septiembre	2023-09-09T00:00:00	2024-11-08T05:00:00	6	Velocidad del viento	1.6
129506	7	Sololá	701	Sololá	4	Finca Santa Victoria	9	Septiembre	2023-09-09T00:00:00	2024-11-08T05:00:00	7	Dirección del viento	1.61
129507	7	Sololá	701	Sololá	4	Finca Santa Victoria	9	Septiembre	2023-09-09T00:00:00	2024-11-08T05:00:00	1	Precipitación	0.4
129508	7	Sololá	701	Sololá	4	Finca Santa Victoria	9	Septiembre	2023-09-09T00:00:00	2024-11-08T05:00:00	8	Radiación solar	0
129509	7	Sololá	701	Sololá	4	Finca Santa Victoria	9	Septiembre	2023-09-09T00:00:00	2024-11-08T06:00:00	2	Temperatura media	11.4
129510	7	Sololá	701	Sololá	4	Finca Santa Victoria	9	Septiembre	2023-09-09T00:00:00	2024-11-08T06:00:00	4	Temperatura máxima	11.7
129511	7	Sololá	701	Sololá	4	Finca Santa Victoria	9	Septiembre	2023-09-09T00:00:00	2024-11-08T06:00:00	3	Temperatura mínima	11.4
129512	7	Sololá	701	Sololá	4	Finca Santa Victoria	9	Septiembre	2023-09-09T00:00:00	2024-11-08T06:00:00	5	Humedad	95
129513	7	Sololá	701	Sololá	4	Finca Santa Victoria	9	Septiembre	2023-09-09T00:00:00	2024-11-08T06:00:00	6	Velocidad del viento	1.6
129514	7	Sololá	701	Sololá	4	Finca Santa Victoria	9	Septiembre	2023-09-09T00:00:00	2024-11-08T06:00:00	7	Dirección del viento	1.61
129515	7	Sololá	701	Sololá	4	Finca Santa Victoria	9	Septiembre	2023-09-09T00:00:00	2024-11-08T06:00:00	1	Precipitación	0
129516	7	Sololá	701	Sololá	4	Finca Santa Victoria	9	Septiembre	2023-09-09T00:00:00	2024-11-08T06:00:00	8	Radiación solar	1
129517	7	Sololá	701	Sololá	4	Finca Santa Victoria	9	Septiembre	2023-09-09T00:00:00	2024-11-08T07:00:00	2	Temperatura media	12.2
129518	7	Sololá	701	Sololá	4	Finca Santa Victoria	9	Septiembre	2023-09-09T00:00:00	2024-11-08T07:00:00	4	Temperatura máxima	12.2
129519	7	Sololá	701	Sololá	4	Finca Santa Victoria	9	Septiembre	2023-09-09T00:00:00	2024-11-08T07:00:00	3	Temperatura mínima	11.3
129520	7	Sololá	701	Sololá	4	Finca Santa Victoria	9	Septiembre	2023-09-09T00:00:00	2024-11-08T07:00:00	5	Humedad	94
129521	7	Sololá	701	Sololá	4	Finca Santa Victoria	9	Septiembre	2023-09-09T00:00:00	2024-11-08T07:00:00	6	Velocidad del viento	1.6
129522	7	Sololá	701	Sololá	4	Finca Santa Victoria	9	Septiembre	2023-09-09T00:00:00	2024-11-08T07:00:00	7	Dirección del viento	1.61
129523	7	Sololá	701	Sololá	4	Finca Santa Victoria	9	Septiembre	2023-09-09T00:00:00	2024-11-08T07:00:00	1	Precipitación	0
129524	7	Sololá	701	Sololá	4	Finca Santa Victoria	9	Septiembre	2023-09-09T00:00:00	2024-11-08T07:00:00	8	Radiación solar	32
129525	7	Sololá	701	Sololá	4	Finca Santa Victoria	9	Septiembre	2023-09-09T00:00:00	2024-11-08T08:00:00	2	Temperatura media	14.8
129526	7	Sololá	701	Sololá	4	Finca Santa Victoria	9	Septiembre	2023-09-09T00:00:00	2024-11-08T08:00:00	4	Temperatura máxima	14.8
129527	7	Sololá	701	Sololá	4	Finca Santa Victoria	9	Septiembre	2023-09-09T00:00:00	2024-11-08T08:00:00	3	Temperatura mínima	12.2
129528	7	Sololá	701	Sololá	4	Finca Santa Victoria	9	Septiembre	2023-09-09T00:00:00	2024-11-08T08:00:00	5	Humedad	88
129529	7	Sololá	701	Sololá	4	Finca Santa Victoria	9	Septiembre	2023-09-09T00:00:00	2024-11-08T08:00:00	6	Velocidad del viento	0
129530	7	Sololá	701	Sololá	4	Finca Santa Victoria	9	Septiembre	2023-09-09T00:00:00	2024-11-08T08:00:00	7	Dirección del viento	0
129531	7	Sololá	701	Sololá	4	Finca Santa Victoria	9	Septiembre	2023-09-09T00:00:00	2024-11-08T08:00:00	1	Precipitación	0
129532	7	Sololá	701	Sololá	4	Finca Santa Victoria	9	Septiembre	2023-09-09T00:00:00	2024-11-08T08:00:00	8	Radiación solar	131
129533	7	Sololá	701	Sololá	4	Finca Santa Victoria	9	Septiembre	2023-09-09T00:00:00	2024-11-08T09:00:00	2	Temperatura media	16.1
129534	7	Sololá	701	Sololá	4	Finca Santa Victoria	9	Septiembre	2023-09-09T00:00:00	2024-11-08T09:00:00	4	Temperatura máxima	16.1
129535	7	Sololá	701	Sololá	4	Finca Santa Victoria	9	Septiembre	2023-09-09T00:00:00	2024-11-08T09:00:00	3	Temperatura mínima	14.8
129536	7	Sololá	701	Sololá	4	Finca Santa Victoria	9	Septiembre	2023-09-09T00:00:00	2024-11-08T09:00:00	5	Humedad	84
129537	7	Sololá	701	Sololá	4	Finca Santa Victoria	9	Septiembre	2023-09-09T00:00:00	2024-11-08T09:00:00	6	Velocidad del viento	1.6
129538	7	Sololá	701	Sololá	4	Finca Santa Victoria	9	Septiembre	2023-09-09T00:00:00	2024-11-08T09:00:00	7	Dirección del viento	1.61
129539	7	Sololá	701	Sololá	4	Finca Santa Victoria	9	Septiembre	2023-09-09T00:00:00	2024-11-08T09:00:00	1	Precipitación	0
129540	7	Sololá	701	Sololá	4	Finca Santa Victoria	9	Septiembre	2023-09-09T00:00:00	2024-11-08T09:00:00	8	Radiación solar	243
129541	7	Sololá	701	Sololá	4	Finca Santa Victoria	9	Septiembre	2023-09-09T00:00:00	2024-11-08T10:00:00	2	Temperatura media	17
129542	7	Sololá	701	Sololá	4	Finca Santa Victoria	9	Septiembre	2023-09-09T00:00:00	2024-11-08T10:00:00	4	Temperatura máxima	17.6
129543	7	Sololá	701	Sololá	4	Finca Santa Victoria	9	Septiembre	2023-09-09T00:00:00	2024-11-08T10:00:00	3	Temperatura mínima	16.1
129544	7	Sololá	701	Sololá	4	Finca Santa Victoria	9	Septiembre	2023-09-09T00:00:00	2024-11-08T10:00:00	5	Humedad	82
129545	7	Sololá	701	Sololá	4	Finca Santa Victoria	9	Septiembre	2023-09-09T00:00:00	2024-11-08T10:00:00	6	Velocidad del viento	3.2
129546	7	Sololá	701	Sololá	4	Finca Santa Victoria	9	Septiembre	2023-09-09T00:00:00	2024-11-08T10:00:00	7	Dirección del viento	3.22
129547	7	Sololá	701	Sololá	4	Finca Santa Victoria	9	Septiembre	2023-09-09T00:00:00	2024-11-08T10:00:00	1	Precipitación	0
129548	7	Sololá	701	Sololá	4	Finca Santa Victoria	9	Septiembre	2023-09-09T00:00:00	2024-11-08T10:00:00	8	Radiación solar	323
129549	7	Sololá	701	Sololá	4	Finca Santa Victoria	9	Septiembre	2023-09-09T00:00:00	2024-11-08T11:00:00	2	Temperatura media	17.6
129550	7	Sololá	701	Sololá	4	Finca Santa Victoria	9	Septiembre	2023-09-09T00:00:00	2024-11-08T11:00:00	4	Temperatura máxima	17.6
129551	7	Sololá	701	Sololá	4	Finca Santa Victoria	9	Septiembre	2023-09-09T00:00:00	2024-11-08T11:00:00	3	Temperatura mínima	16.4
129552	7	Sololá	701	Sololá	4	Finca Santa Victoria	9	Septiembre	2023-09-09T00:00:00	2024-11-08T11:00:00	5	Humedad	84
129553	7	Sololá	701	Sololá	4	Finca Santa Victoria	9	Septiembre	2023-09-09T00:00:00	2024-11-08T11:00:00	6	Velocidad del viento	3.2
129554	7	Sololá	701	Sololá	4	Finca Santa Victoria	9	Septiembre	2023-09-09T00:00:00	2024-11-08T11:00:00	7	Dirección del viento	3.22
129555	7	Sololá	701	Sololá	4	Finca Santa Victoria	9	Septiembre	2023-09-09T00:00:00	2024-11-08T11:00:00	1	Precipitación	0
129556	7	Sololá	701	Sololá	4	Finca Santa Victoria	9	Septiembre	2023-09-09T00:00:00	2024-11-08T11:00:00	8	Radiación solar	295
129557	7	Sololá	701	Sololá	4	Finca Santa Victoria	9	Septiembre	2023-09-09T00:00:00	2024-11-08T12:00:00	2	Temperatura media	18.8
129558	7	Sololá	701	Sololá	4	Finca Santa Victoria	9	Septiembre	2023-09-09T00:00:00	2024-11-08T12:00:00	4	Temperatura máxima	18.8
129559	7	Sololá	701	Sololá	4	Finca Santa Victoria	9	Septiembre	2023-09-09T00:00:00	2024-11-08T12:00:00	3	Temperatura mínima	17.5
129560	7	Sololá	701	Sololá	4	Finca Santa Victoria	9	Septiembre	2023-09-09T00:00:00	2024-11-08T12:00:00	5	Humedad	80
129561	7	Sololá	701	Sololá	4	Finca Santa Victoria	9	Septiembre	2023-09-09T00:00:00	2024-11-08T12:00:00	6	Velocidad del viento	3.2
129562	7	Sololá	701	Sololá	4	Finca Santa Victoria	9	Septiembre	2023-09-09T00:00:00	2024-11-08T12:00:00	7	Dirección del viento	3.22
129563	7	Sololá	701	Sololá	4	Finca Santa Victoria	9	Septiembre	2023-09-09T00:00:00	2024-11-08T12:00:00	1	Precipitación	0
129564	7	Sololá	701	Sololá	4	Finca Santa Victoria	9	Septiembre	2023-09-09T00:00:00	2024-11-08T12:00:00	8	Radiación solar	327
129565	7	Sololá	701	Sololá	4	Finca Santa Victoria	9	Septiembre	2023-09-09T00:00:00	2024-11-08T13:00:00	2	Temperatura media	18
129566	7	Sololá	701	Sololá	4	Finca Santa Victoria	9	Septiembre	2023-09-09T00:00:00	2024-11-08T13:00:00	4	Temperatura máxima	19.1
129567	7	Sololá	701	Sololá	4	Finca Santa Victoria	9	Septiembre	2023-09-09T00:00:00	2024-11-08T13:00:00	3	Temperatura mínima	18
129568	7	Sololá	701	Sololá	4	Finca Santa Victoria	9	Septiembre	2023-09-09T00:00:00	2024-11-08T13:00:00	5	Humedad	84
129569	7	Sololá	701	Sololá	4	Finca Santa Victoria	9	Septiembre	2023-09-09T00:00:00	2024-11-08T13:00:00	6	Velocidad del viento	1.6
129570	7	Sololá	701	Sololá	4	Finca Santa Victoria	9	Septiembre	2023-09-09T00:00:00	2024-11-08T13:00:00	7	Dirección del viento	1.61
129571	7	Sololá	701	Sololá	4	Finca Santa Victoria	9	Septiembre	2023-09-09T00:00:00	2024-11-08T13:00:00	1	Precipitación	0
129572	7	Sololá	701	Sololá	4	Finca Santa Victoria	9	Septiembre	2023-09-09T00:00:00	2024-11-08T13:00:00	8	Radiación solar	179
129573	7	Sololá	701	Sololá	4	Finca Santa Victoria	9	Septiembre	2023-09-09T00:00:00	2024-11-08T14:00:00	2	Temperatura media	18.1
129574	7	Sololá	701	Sololá	4	Finca Santa Victoria	9	Septiembre	2023-09-09T00:00:00	2024-11-08T14:00:00	4	Temperatura máxima	18.1
129575	7	Sololá	701	Sololá	4	Finca Santa Victoria	9	Septiembre	2023-09-09T00:00:00	2024-11-08T14:00:00	3	Temperatura mínima	17.1
129576	7	Sololá	701	Sololá	4	Finca Santa Victoria	9	Septiembre	2023-09-09T00:00:00	2024-11-08T14:00:00	5	Humedad	87
129577	7	Sololá	701	Sololá	4	Finca Santa Victoria	9	Septiembre	2023-09-09T00:00:00	2024-11-08T14:00:00	6	Velocidad del viento	1.6
129578	7	Sololá	701	Sololá	4	Finca Santa Victoria	9	Septiembre	2023-09-09T00:00:00	2024-11-08T14:00:00	7	Dirección del viento	1.61
129579	7	Sololá	701	Sololá	4	Finca Santa Victoria	9	Septiembre	2023-09-09T00:00:00	2024-11-08T14:00:00	1	Precipitación	0
129580	7	Sololá	701	Sololá	4	Finca Santa Victoria	9	Septiembre	2023-09-09T00:00:00	2024-11-08T14:00:00	8	Radiación solar	116
129581	7	Sololá	701	Sololá	4	Finca Santa Victoria	9	Septiembre	2023-09-09T00:00:00	2024-11-08T15:00:00	2	Temperatura media	16
129582	7	Sololá	701	Sololá	4	Finca Santa Victoria	9	Septiembre	2023-09-09T00:00:00	2024-11-08T15:00:00	4	Temperatura máxima	18.4
129583	7	Sololá	701	Sololá	4	Finca Santa Victoria	9	Septiembre	2023-09-09T00:00:00	2024-11-08T15:00:00	3	Temperatura mínima	16
129584	7	Sololá	701	Sololá	4	Finca Santa Victoria	9	Septiembre	2023-09-09T00:00:00	2024-11-08T15:00:00	5	Humedad	91
129585	7	Sololá	701	Sololá	4	Finca Santa Victoria	9	Septiembre	2023-09-09T00:00:00	2024-11-08T15:00:00	6	Velocidad del viento	1.6
129586	7	Sololá	701	Sololá	4	Finca Santa Victoria	9	Septiembre	2023-09-09T00:00:00	2024-11-08T15:00:00	7	Dirección del viento	1.61
129587	7	Sololá	701	Sololá	4	Finca Santa Victoria	9	Septiembre	2023-09-09T00:00:00	2024-11-08T15:00:00	1	Precipitación	2.4
129588	7	Sololá	701	Sololá	4	Finca Santa Victoria	9	Septiembre	2023-09-09T00:00:00	2024-11-08T15:00:00	8	Radiación solar	53
129589	7	Sololá	701	Sololá	4	Finca Santa Victoria	9	Septiembre	2023-09-09T00:00:00	2024-11-08T16:00:00	2	Temperatura media	15.8
129590	7	Sololá	701	Sololá	4	Finca Santa Victoria	9	Septiembre	2023-09-09T00:00:00	2024-11-08T16:00:00	4	Temperatura máxima	16.1
129591	7	Sololá	701	Sololá	4	Finca Santa Victoria	9	Septiembre	2023-09-09T00:00:00	2024-11-08T16:00:00	3	Temperatura mínima	15.7
129592	7	Sololá	701	Sololá	4	Finca Santa Victoria	9	Septiembre	2023-09-09T00:00:00	2024-11-08T16:00:00	5	Humedad	97
129593	7	Sololá	701	Sololá	4	Finca Santa Victoria	9	Septiembre	2023-09-09T00:00:00	2024-11-08T16:00:00	6	Velocidad del viento	0
129594	7	Sololá	701	Sololá	4	Finca Santa Victoria	9	Septiembre	2023-09-09T00:00:00	2024-11-08T16:00:00	7	Dirección del viento	0
129595	7	Sololá	701	Sololá	4	Finca Santa Victoria	9	Septiembre	2023-09-09T00:00:00	2024-11-08T16:00:00	1	Precipitación	0.2
129596	7	Sololá	701	Sololá	4	Finca Santa Victoria	9	Septiembre	2023-09-09T00:00:00	2024-11-08T16:00:00	8	Radiación solar	40
129597	7	Sololá	701	Sololá	4	Finca Santa Victoria	9	Septiembre	2023-09-09T00:00:00	2024-11-08T17:00:00	2	Temperatura media	15.3
129598	7	Sololá	701	Sololá	4	Finca Santa Victoria	9	Septiembre	2023-09-09T00:00:00	2024-11-08T17:00:00	4	Temperatura máxima	15.8
129599	7	Sololá	701	Sololá	4	Finca Santa Victoria	9	Septiembre	2023-09-09T00:00:00	2024-11-08T17:00:00	3	Temperatura mínima	15.2
129600	7	Sololá	701	Sololá	4	Finca Santa Victoria	9	Septiembre	2023-09-09T00:00:00	2024-11-08T17:00:00	5	Humedad	98
129601	7	Sololá	701	Sololá	4	Finca Santa Victoria	9	Septiembre	2023-09-09T00:00:00	2024-11-08T17:00:00	6	Velocidad del viento	1.6
129602	7	Sololá	701	Sololá	4	Finca Santa Victoria	9	Septiembre	2023-09-09T00:00:00	2024-11-08T17:00:00	7	Dirección del viento	1.61
129603	7	Sololá	701	Sololá	4	Finca Santa Victoria	9	Septiembre	2023-09-09T00:00:00	2024-11-08T17:00:00	1	Precipitación	0
129604	7	Sololá	701	Sololá	4	Finca Santa Victoria	9	Septiembre	2023-09-09T00:00:00	2024-11-08T17:00:00	8	Radiación solar	11
129605	7	Sololá	701	Sololá	4	Finca Santa Victoria	9	Septiembre	2023-09-09T00:00:00	2024-11-08T18:00:00	2	Temperatura media	15
129606	7	Sololá	701	Sololá	4	Finca Santa Victoria	9	Septiembre	2023-09-09T00:00:00	2024-11-08T18:00:00	4	Temperatura máxima	15.3
129607	7	Sololá	701	Sololá	4	Finca Santa Victoria	9	Septiembre	2023-09-09T00:00:00	2024-11-08T18:00:00	3	Temperatura mínima	15
129608	7	Sololá	701	Sololá	4	Finca Santa Victoria	9	Septiembre	2023-09-09T00:00:00	2024-11-08T18:00:00	5	Humedad	98
129609	7	Sololá	701	Sololá	4	Finca Santa Victoria	9	Septiembre	2023-09-09T00:00:00	2024-11-08T18:00:00	6	Velocidad del viento	0
129610	7	Sololá	701	Sololá	4	Finca Santa Victoria	9	Septiembre	2023-09-09T00:00:00	2024-11-08T18:00:00	7	Dirección del viento	0
129611	7	Sololá	701	Sololá	4	Finca Santa Victoria	9	Septiembre	2023-09-09T00:00:00	2024-11-08T18:00:00	1	Precipitación	0
129612	7	Sololá	701	Sololá	4	Finca Santa Victoria	9	Septiembre	2023-09-09T00:00:00	2024-11-08T18:00:00	8	Radiación solar	5
129613	7	Sololá	701	Sololá	4	Finca Santa Victoria	9	Septiembre	2023-09-09T00:00:00	2024-11-08T19:00:00	2	Temperatura media	14.4
129614	7	Sololá	701	Sololá	4	Finca Santa Victoria	9	Septiembre	2023-09-09T00:00:00	2024-11-08T19:00:00	4	Temperatura máxima	15
129615	7	Sololá	701	Sololá	4	Finca Santa Victoria	9	Septiembre	2023-09-09T00:00:00	2024-11-08T19:00:00	3	Temperatura mínima	14.4
129616	7	Sololá	701	Sololá	4	Finca Santa Victoria	9	Septiembre	2023-09-09T00:00:00	2024-11-08T19:00:00	5	Humedad	98
129617	7	Sololá	701	Sololá	4	Finca Santa Victoria	9	Septiembre	2023-09-09T00:00:00	2024-11-08T19:00:00	6	Velocidad del viento	0
129618	7	Sololá	701	Sololá	4	Finca Santa Victoria	9	Septiembre	2023-09-09T00:00:00	2024-11-08T19:00:00	7	Dirección del viento	0
129619	7	Sololá	701	Sololá	4	Finca Santa Victoria	9	Septiembre	2023-09-09T00:00:00	2024-11-08T19:00:00	1	Precipitación	0
129620	7	Sololá	701	Sololá	4	Finca Santa Victoria	9	Septiembre	2023-09-09T00:00:00	2024-11-08T19:00:00	8	Radiación solar	0
129621	7	Sololá	701	Sololá	4	Finca Santa Victoria	9	Septiembre	2023-09-09T00:00:00	2024-11-08T20:00:00	2	Temperatura media	14.6
129622	7	Sololá	701	Sololá	4	Finca Santa Victoria	9	Septiembre	2023-09-09T00:00:00	2024-11-08T20:00:00	4	Temperatura máxima	14.7
129623	7	Sololá	701	Sololá	4	Finca Santa Victoria	9	Septiembre	2023-09-09T00:00:00	2024-11-08T20:00:00	3	Temperatura mínima	14.3
129624	7	Sololá	701	Sololá	4	Finca Santa Victoria	9	Septiembre	2023-09-09T00:00:00	2024-11-08T20:00:00	5	Humedad	98
129625	7	Sololá	701	Sololá	4	Finca Santa Victoria	9	Septiembre	2023-09-09T00:00:00	2024-11-08T20:00:00	6	Velocidad del viento	0
129626	7	Sololá	701	Sololá	4	Finca Santa Victoria	9	Septiembre	2023-09-09T00:00:00	2024-11-08T20:00:00	7	Dirección del viento	0
129627	7	Sololá	701	Sololá	4	Finca Santa Victoria	9	Septiembre	2023-09-09T00:00:00	2024-11-08T20:00:00	1	Precipitación	0
129628	7	Sololá	701	Sololá	4	Finca Santa Victoria	9	Septiembre	2023-09-09T00:00:00	2024-11-08T20:00:00	8	Radiación solar	0
129629	7	Sololá	701	Sololá	4	Finca Santa Victoria	9	Septiembre	2023-09-09T00:00:00	2024-11-08T21:00:00	2	Temperatura media	14.3
129630	7	Sololá	701	Sololá	4	Finca Santa Victoria	9	Septiembre	2023-09-09T00:00:00	2024-11-08T21:00:00	4	Temperatura máxima	14.7
129631	7	Sololá	701	Sololá	4	Finca Santa Victoria	9	Septiembre	2023-09-09T00:00:00	2024-11-08T21:00:00	3	Temperatura mínima	14.3
129632	7	Sololá	701	Sololá	4	Finca Santa Victoria	9	Septiembre	2023-09-09T00:00:00	2024-11-08T21:00:00	5	Humedad	98
129633	7	Sololá	701	Sololá	4	Finca Santa Victoria	9	Septiembre	2023-09-09T00:00:00	2024-11-08T21:00:00	6	Velocidad del viento	0
129634	7	Sololá	701	Sololá	4	Finca Santa Victoria	9	Septiembre	2023-09-09T00:00:00	2024-11-08T21:00:00	7	Dirección del viento	0
129635	7	Sololá	701	Sololá	4	Finca Santa Victoria	9	Septiembre	2023-09-09T00:00:00	2024-11-08T21:00:00	1	Precipitación	0
129636	7	Sololá	701	Sololá	4	Finca Santa Victoria	9	Septiembre	2023-09-09T00:00:00	2024-11-08T21:00:00	8	Radiación solar	0
129637	7	Sololá	701	Sololá	4	Finca Santa Victoria	9	Septiembre	2023-09-09T00:00:00	2024-11-08T22:00:00	2	Temperatura media	14.1
129638	7	Sololá	701	Sololá	4	Finca Santa Victoria	9	Septiembre	2023-09-09T00:00:00	2024-11-08T22:00:00	4	Temperatura máxima	14.3
129639	7	Sololá	701	Sololá	4	Finca Santa Victoria	9	Septiembre	2023-09-09T00:00:00	2024-11-08T22:00:00	3	Temperatura mínima	14.1
129640	7	Sololá	701	Sololá	4	Finca Santa Victoria	9	Septiembre	2023-09-09T00:00:00	2024-11-08T22:00:00	5	Humedad	97
129641	7	Sololá	701	Sololá	4	Finca Santa Victoria	9	Septiembre	2023-09-09T00:00:00	2024-11-08T22:00:00	6	Velocidad del viento	0
129642	7	Sololá	701	Sololá	4	Finca Santa Victoria	9	Septiembre	2023-09-09T00:00:00	2024-11-08T22:00:00	7	Dirección del viento	0
129643	7	Sololá	701	Sololá	4	Finca Santa Victoria	9	Septiembre	2023-09-09T00:00:00	2024-11-08T22:00:00	1	Precipitación	0
129644	7	Sololá	701	Sololá	4	Finca Santa Victoria	9	Septiembre	2023-09-09T00:00:00	2024-11-08T22:00:00	8	Radiación solar	0
129645	7	Sololá	701	Sololá	4	Finca Santa Victoria	9	Septiembre	2023-09-09T00:00:00	2024-11-08T23:00:00	2	Temperatura media	13.7
129646	7	Sololá	701	Sololá	4	Finca Santa Victoria	9	Septiembre	2023-09-09T00:00:00	2024-11-08T23:00:00	4	Temperatura máxima	14.1
129647	7	Sololá	701	Sololá	4	Finca Santa Victoria	9	Septiembre	2023-09-09T00:00:00	2024-11-08T23:00:00	3	Temperatura mínima	13.7
129648	7	Sololá	701	Sololá	4	Finca Santa Victoria	9	Septiembre	2023-09-09T00:00:00	2024-11-08T23:00:00	5	Humedad	96
129649	7	Sololá	701	Sololá	4	Finca Santa Victoria	9	Septiembre	2023-09-09T00:00:00	2024-11-08T23:00:00	6	Velocidad del viento	0
129650	7	Sololá	701	Sololá	4	Finca Santa Victoria	9	Septiembre	2023-09-09T00:00:00	2024-11-08T23:00:00	7	Dirección del viento	0
129651	7	Sololá	701	Sololá	4	Finca Santa Victoria	9	Septiembre	2023-09-09T00:00:00	2024-11-08T23:00:00	1	Precipitación	0
129652	7	Sololá	701	Sololá	4	Finca Santa Victoria	9	Septiembre	2023-09-09T00:00:00	2024-11-08T23:00:00	8	Radiación solar	0
129653	7	Sololá	701	Sololá	4	Finca Santa Victoria	9	Septiembre	2023-10-09T00:00:00	2024-11-08T00:00:00	2	Temperatura media	13.8
129654	7	Sololá	701	Sololá	4	Finca Santa Victoria	9	Septiembre	2023-10-09T00:00:00	2024-11-08T00:00:00	4	Temperatura máxima	13.9
129655	7	Sololá	701	Sololá	4	Finca Santa Victoria	9	Septiembre	2023-10-09T00:00:00	2024-11-08T00:00:00	3	Temperatura mínima	13.7
129656	7	Sololá	701	Sololá	4	Finca Santa Victoria	9	Septiembre	2023-10-09T00:00:00	2024-11-08T00:00:00	5	Humedad	92
129657	7	Sololá	701	Sololá	4	Finca Santa Victoria	9	Septiembre	2023-10-09T00:00:00	2024-11-08T00:00:00	6	Velocidad del viento	1.6
129658	7	Sololá	701	Sololá	4	Finca Santa Victoria	9	Septiembre	2023-10-09T00:00:00	2024-11-08T00:00:00	7	Dirección del viento	1.61
129659	7	Sololá	701	Sololá	4	Finca Santa Victoria	9	Septiembre	2023-10-09T00:00:00	2024-11-08T00:00:00	1	Precipitación	0
129660	7	Sololá	701	Sololá	4	Finca Santa Victoria	9	Septiembre	2023-10-09T00:00:00	2024-11-08T00:00:00	8	Radiación solar	0
129661	7	Sololá	701	Sololá	4	Finca Santa Victoria	9	Septiembre	2023-10-09T00:00:00	2024-11-08T01:00:00	2	Temperatura media	13.4
129662	7	Sololá	701	Sololá	4	Finca Santa Victoria	9	Septiembre	2023-10-09T00:00:00	2024-11-08T01:00:00	4	Temperatura máxima	13.8
129663	7	Sololá	701	Sololá	4	Finca Santa Victoria	9	Septiembre	2023-10-09T00:00:00	2024-11-08T01:00:00	3	Temperatura mínima	13.3
129664	7	Sololá	701	Sololá	4	Finca Santa Victoria	9	Septiembre	2023-10-09T00:00:00	2024-11-08T01:00:00	5	Humedad	92
129665	7	Sololá	701	Sololá	4	Finca Santa Victoria	9	Septiembre	2023-10-09T00:00:00	2024-11-08T01:00:00	6	Velocidad del viento	1.6
129666	7	Sololá	701	Sololá	4	Finca Santa Victoria	9	Septiembre	2023-10-09T00:00:00	2024-11-08T01:00:00	7	Dirección del viento	1.61
129667	7	Sololá	701	Sololá	4	Finca Santa Victoria	9	Septiembre	2023-10-09T00:00:00	2024-11-08T01:00:00	1	Precipitación	0
129668	7	Sololá	701	Sololá	4	Finca Santa Victoria	9	Septiembre	2023-10-09T00:00:00	2024-11-08T01:00:00	8	Radiación solar	0
129669	7	Sololá	701	Sololá	4	Finca Santa Victoria	9	Septiembre	2023-10-09T00:00:00	2024-11-08T02:00:00	2	Temperatura media	13.3
129670	7	Sololá	701	Sololá	4	Finca Santa Victoria	9	Septiembre	2023-10-09T00:00:00	2024-11-08T02:00:00	4	Temperatura máxima	13.4
129671	7	Sololá	701	Sololá	4	Finca Santa Victoria	9	Septiembre	2023-10-09T00:00:00	2024-11-08T02:00:00	3	Temperatura mínima	13.2
129672	7	Sololá	701	Sololá	4	Finca Santa Victoria	9	Septiembre	2023-10-09T00:00:00	2024-11-08T02:00:00	5	Humedad	93
129673	7	Sololá	701	Sololá	4	Finca Santa Victoria	9	Septiembre	2023-10-09T00:00:00	2024-11-08T02:00:00	6	Velocidad del viento	0
129674	7	Sololá	701	Sololá	4	Finca Santa Victoria	9	Septiembre	2023-10-09T00:00:00	2024-11-08T02:00:00	7	Dirección del viento	0
129675	7	Sololá	701	Sololá	4	Finca Santa Victoria	9	Septiembre	2023-10-09T00:00:00	2024-11-08T02:00:00	1	Precipitación	0
129676	7	Sololá	701	Sololá	4	Finca Santa Victoria	9	Septiembre	2023-10-09T00:00:00	2024-11-08T02:00:00	8	Radiación solar	0
129677	7	Sololá	701	Sololá	4	Finca Santa Victoria	9	Septiembre	2023-10-09T00:00:00	2024-11-08T03:00:00	2	Temperatura media	13.2
129678	7	Sololá	701	Sololá	4	Finca Santa Victoria	9	Septiembre	2023-10-09T00:00:00	2024-11-08T03:00:00	4	Temperatura máxima	13.3
129679	7	Sololá	701	Sololá	4	Finca Santa Victoria	9	Septiembre	2023-10-09T00:00:00	2024-11-08T03:00:00	3	Temperatura mínima	13.2
129680	7	Sololá	701	Sololá	4	Finca Santa Victoria	9	Septiembre	2023-10-09T00:00:00	2024-11-08T03:00:00	5	Humedad	95
129681	7	Sololá	701	Sololá	4	Finca Santa Victoria	9	Septiembre	2023-10-09T00:00:00	2024-11-08T03:00:00	6	Velocidad del viento	0
129682	7	Sololá	701	Sololá	4	Finca Santa Victoria	9	Septiembre	2023-10-09T00:00:00	2024-11-08T03:00:00	7	Dirección del viento	0
129683	7	Sololá	701	Sololá	4	Finca Santa Victoria	9	Septiembre	2023-10-09T00:00:00	2024-11-08T03:00:00	1	Precipitación	0
129684	7	Sololá	701	Sololá	4	Finca Santa Victoria	9	Septiembre	2023-10-09T00:00:00	2024-11-08T03:00:00	8	Radiación solar	0
129685	7	Sololá	701	Sololá	4	Finca Santa Victoria	9	Septiembre	2023-10-09T00:00:00	2024-11-08T04:00:00	2	Temperatura media	12.8
129686	7	Sololá	701	Sololá	4	Finca Santa Victoria	9	Septiembre	2023-10-09T00:00:00	2024-11-08T04:00:00	4	Temperatura máxima	13.2
129687	7	Sololá	701	Sololá	4	Finca Santa Victoria	9	Septiembre	2023-10-09T00:00:00	2024-11-08T04:00:00	3	Temperatura mínima	12.8
129688	7	Sololá	701	Sololá	4	Finca Santa Victoria	9	Septiembre	2023-10-09T00:00:00	2024-11-08T04:00:00	5	Humedad	97
129689	7	Sololá	701	Sololá	4	Finca Santa Victoria	9	Septiembre	2023-10-09T00:00:00	2024-11-08T04:00:00	6	Velocidad del viento	0
129690	7	Sololá	701	Sololá	4	Finca Santa Victoria	9	Septiembre	2023-10-09T00:00:00	2024-11-08T04:00:00	7	Dirección del viento	0
129691	7	Sololá	701	Sololá	4	Finca Santa Victoria	9	Septiembre	2023-10-09T00:00:00	2024-11-08T04:00:00	1	Precipitación	0
129692	7	Sololá	701	Sololá	4	Finca Santa Victoria	9	Septiembre	2023-10-09T00:00:00	2024-11-08T04:00:00	8	Radiación solar	0
129693	7	Sololá	701	Sololá	4	Finca Santa Victoria	9	Septiembre	2023-10-09T00:00:00	2024-11-08T05:00:00	2	Temperatura media	12.6
129694	7	Sololá	701	Sololá	4	Finca Santa Victoria	9	Septiembre	2023-10-09T00:00:00	2024-11-08T05:00:00	4	Temperatura máxima	12.9
129695	7	Sololá	701	Sololá	4	Finca Santa Victoria	9	Septiembre	2023-10-09T00:00:00	2024-11-08T05:00:00	3	Temperatura mínima	12.5
129696	7	Sololá	701	Sololá	4	Finca Santa Victoria	9	Septiembre	2023-10-09T00:00:00	2024-11-08T05:00:00	5	Humedad	95
129697	7	Sololá	701	Sololá	4	Finca Santa Victoria	9	Septiembre	2023-10-09T00:00:00	2024-11-08T05:00:00	6	Velocidad del viento	0
129698	7	Sololá	701	Sololá	4	Finca Santa Victoria	9	Septiembre	2023-10-09T00:00:00	2024-11-08T05:00:00	7	Dirección del viento	0
129699	7	Sololá	701	Sololá	4	Finca Santa Victoria	9	Septiembre	2023-10-09T00:00:00	2024-11-08T05:00:00	1	Precipitación	0
129700	7	Sololá	701	Sololá	4	Finca Santa Victoria	9	Septiembre	2023-10-09T00:00:00	2024-11-08T05:00:00	8	Radiación solar	0
129701	7	Sololá	701	Sololá	4	Finca Santa Victoria	9	Septiembre	2023-10-09T00:00:00	2024-11-08T06:00:00	2	Temperatura media	12.8
129702	7	Sololá	701	Sololá	4	Finca Santa Victoria	9	Septiembre	2023-10-09T00:00:00	2024-11-08T06:00:00	4	Temperatura máxima	12.8
129703	7	Sololá	701	Sololá	4	Finca Santa Victoria	9	Septiembre	2023-10-09T00:00:00	2024-11-08T06:00:00	3	Temperatura mínima	12.6
129704	7	Sololá	701	Sololá	4	Finca Santa Victoria	9	Septiembre	2023-10-09T00:00:00	2024-11-08T06:00:00	5	Humedad	94
129705	7	Sololá	701	Sololá	4	Finca Santa Victoria	9	Septiembre	2023-10-09T00:00:00	2024-11-08T06:00:00	6	Velocidad del viento	0
129706	7	Sololá	701	Sololá	4	Finca Santa Victoria	9	Septiembre	2023-10-09T00:00:00	2024-11-08T06:00:00	7	Dirección del viento	0
129707	7	Sololá	701	Sololá	4	Finca Santa Victoria	9	Septiembre	2023-10-09T00:00:00	2024-11-08T06:00:00	1	Precipitación	0
129708	7	Sololá	701	Sololá	4	Finca Santa Victoria	9	Septiembre	2023-10-09T00:00:00	2024-11-08T06:00:00	8	Radiación solar	0
129709	7	Sololá	701	Sololá	4	Finca Santa Victoria	9	Septiembre	2023-10-09T00:00:00	2024-11-08T07:00:00	2	Temperatura media	13.4
129710	7	Sololá	701	Sololá	4	Finca Santa Victoria	9	Septiembre	2023-10-09T00:00:00	2024-11-08T07:00:00	4	Temperatura máxima	13.4
129711	7	Sololá	701	Sololá	4	Finca Santa Victoria	9	Septiembre	2023-10-09T00:00:00	2024-11-08T07:00:00	3	Temperatura mínima	12.8
129712	7	Sololá	701	Sololá	4	Finca Santa Victoria	9	Septiembre	2023-10-09T00:00:00	2024-11-08T07:00:00	5	Humedad	92
129713	7	Sololá	701	Sololá	4	Finca Santa Victoria	9	Septiembre	2023-10-09T00:00:00	2024-11-08T07:00:00	6	Velocidad del viento	0
129714	7	Sololá	701	Sololá	4	Finca Santa Victoria	9	Septiembre	2023-10-09T00:00:00	2024-11-08T07:00:00	7	Dirección del viento	0
129715	7	Sololá	701	Sololá	4	Finca Santa Victoria	9	Septiembre	2023-10-09T00:00:00	2024-11-08T07:00:00	1	Precipitación	0
129716	7	Sololá	701	Sololá	4	Finca Santa Victoria	9	Septiembre	2023-10-09T00:00:00	2024-11-08T07:00:00	8	Radiación solar	12
129717	7	Sololá	701	Sololá	4	Finca Santa Victoria	9	Septiembre	2023-10-09T00:00:00	2024-11-08T08:00:00	2	Temperatura media	14.2
129718	7	Sololá	701	Sololá	4	Finca Santa Victoria	9	Septiembre	2023-10-09T00:00:00	2024-11-08T08:00:00	4	Temperatura máxima	14.2
129719	7	Sololá	701	Sololá	4	Finca Santa Victoria	9	Septiembre	2023-10-09T00:00:00	2024-11-08T08:00:00	3	Temperatura mínima	13.4
129720	7	Sololá	701	Sololá	4	Finca Santa Victoria	9	Septiembre	2023-10-09T00:00:00	2024-11-08T08:00:00	5	Humedad	92
129721	7	Sololá	701	Sololá	4	Finca Santa Victoria	9	Septiembre	2023-10-09T00:00:00	2024-11-08T08:00:00	6	Velocidad del viento	1.6
129722	7	Sololá	701	Sololá	4	Finca Santa Victoria	9	Septiembre	2023-10-09T00:00:00	2024-11-08T08:00:00	7	Dirección del viento	1.61
129723	7	Sololá	701	Sololá	4	Finca Santa Victoria	9	Septiembre	2023-10-09T00:00:00	2024-11-08T08:00:00	1	Precipitación	0
129724	7	Sololá	701	Sololá	4	Finca Santa Victoria	9	Septiembre	2023-10-09T00:00:00	2024-11-08T08:00:00	8	Radiación solar	55
129725	7	Sololá	701	Sololá	4	Finca Santa Victoria	9	Septiembre	2023-10-09T00:00:00	2024-11-08T09:00:00	2	Temperatura media	15.3
129726	7	Sololá	701	Sololá	4	Finca Santa Victoria	9	Septiembre	2023-10-09T00:00:00	2024-11-08T09:00:00	4	Temperatura máxima	15.3
129727	7	Sololá	701	Sololá	4	Finca Santa Victoria	9	Septiembre	2023-10-09T00:00:00	2024-11-08T09:00:00	3	Temperatura mínima	14
129728	7	Sololá	701	Sololá	4	Finca Santa Victoria	9	Septiembre	2023-10-09T00:00:00	2024-11-08T09:00:00	5	Humedad	91
129729	7	Sololá	701	Sololá	4	Finca Santa Victoria	9	Septiembre	2023-10-09T00:00:00	2024-11-08T09:00:00	6	Velocidad del viento	0
129730	7	Sololá	701	Sololá	4	Finca Santa Victoria	9	Septiembre	2023-10-09T00:00:00	2024-11-08T09:00:00	7	Dirección del viento	0
129731	7	Sololá	701	Sololá	4	Finca Santa Victoria	9	Septiembre	2023-10-09T00:00:00	2024-11-08T09:00:00	1	Precipitación	0
129732	7	Sololá	701	Sololá	4	Finca Santa Victoria	9	Septiembre	2023-10-09T00:00:00	2024-11-08T09:00:00	8	Radiación solar	111
129733	7	Sololá	701	Sololá	4	Finca Santa Victoria	9	Septiembre	2023-10-09T00:00:00	2024-11-08T10:00:00	2	Temperatura media	17.4
129734	7	Sololá	701	Sololá	4	Finca Santa Victoria	9	Septiembre	2023-10-09T00:00:00	2024-11-08T10:00:00	4	Temperatura máxima	17.4
129735	7	Sololá	701	Sololá	4	Finca Santa Victoria	9	Septiembre	2023-10-09T00:00:00	2024-11-08T10:00:00	3	Temperatura mínima	15.3
129736	7	Sololá	701	Sololá	4	Finca Santa Victoria	9	Septiembre	2023-10-09T00:00:00	2024-11-08T10:00:00	5	Humedad	79
129737	7	Sololá	701	Sololá	4	Finca Santa Victoria	9	Septiembre	2023-10-09T00:00:00	2024-11-08T10:00:00	6	Velocidad del viento	1.6
129738	7	Sololá	701	Sololá	4	Finca Santa Victoria	9	Septiembre	2023-10-09T00:00:00	2024-11-08T10:00:00	7	Dirección del viento	1.61
129739	7	Sololá	701	Sololá	4	Finca Santa Victoria	9	Septiembre	2023-10-09T00:00:00	2024-11-08T10:00:00	1	Precipitación	0
129740	7	Sololá	701	Sololá	4	Finca Santa Victoria	9	Septiembre	2023-10-09T00:00:00	2024-11-08T10:00:00	8	Radiación solar	236
129741	7	Sololá	701	Sololá	4	Finca Santa Victoria	9	Septiembre	2023-10-09T00:00:00	2024-11-08T11:00:00	2	Temperatura media	18.7
129742	7	Sololá	701	Sololá	4	Finca Santa Victoria	9	Septiembre	2023-10-09T00:00:00	2024-11-08T11:00:00	4	Temperatura máxima	19.2
129743	7	Sololá	701	Sololá	4	Finca Santa Victoria	9	Septiembre	2023-10-09T00:00:00	2024-11-08T11:00:00	3	Temperatura mínima	17.4
129744	7	Sololá	701	Sololá	4	Finca Santa Victoria	9	Septiembre	2023-10-09T00:00:00	2024-11-08T11:00:00	5	Humedad	80
129745	7	Sololá	701	Sololá	4	Finca Santa Victoria	9	Septiembre	2023-10-09T00:00:00	2024-11-08T11:00:00	6	Velocidad del viento	3.2
129746	7	Sololá	701	Sololá	4	Finca Santa Victoria	9	Septiembre	2023-10-09T00:00:00	2024-11-08T11:00:00	7	Dirección del viento	3.22
129747	7	Sololá	701	Sololá	4	Finca Santa Victoria	9	Septiembre	2023-10-09T00:00:00	2024-11-08T11:00:00	1	Precipitación	0
129748	7	Sololá	701	Sololá	4	Finca Santa Victoria	9	Septiembre	2023-10-09T00:00:00	2024-11-08T11:00:00	8	Radiación solar	731
129749	7	Sololá	701	Sololá	4	Finca Santa Victoria	9	Septiembre	2023-10-09T00:00:00	2024-11-08T12:00:00	2	Temperatura media	18.5
129750	7	Sololá	701	Sololá	4	Finca Santa Victoria	9	Septiembre	2023-10-09T00:00:00	2024-11-08T12:00:00	4	Temperatura máxima	19.1
129751	7	Sololá	701	Sololá	4	Finca Santa Victoria	9	Septiembre	2023-10-09T00:00:00	2024-11-08T12:00:00	3	Temperatura mínima	18.3
129752	7	Sololá	701	Sololá	4	Finca Santa Victoria	9	Septiembre	2023-10-09T00:00:00	2024-11-08T12:00:00	5	Humedad	83
129753	7	Sololá	701	Sololá	4	Finca Santa Victoria	9	Septiembre	2023-10-09T00:00:00	2024-11-08T12:00:00	6	Velocidad del viento	3.2
129754	7	Sololá	701	Sololá	4	Finca Santa Victoria	9	Septiembre	2023-10-09T00:00:00	2024-11-08T12:00:00	7	Dirección del viento	3.22
129755	7	Sololá	701	Sololá	4	Finca Santa Victoria	9	Septiembre	2023-10-09T00:00:00	2024-11-08T12:00:00	1	Precipitación	0
129756	7	Sololá	701	Sololá	4	Finca Santa Victoria	9	Septiembre	2023-10-09T00:00:00	2024-11-08T12:00:00	8	Radiación solar	358
129757	7	Sololá	701	Sololá	4	Finca Santa Victoria	9	Septiembre	2023-10-09T00:00:00	2024-11-08T13:00:00	2	Temperatura media	18.3
129758	7	Sololá	701	Sololá	4	Finca Santa Victoria	9	Septiembre	2023-10-09T00:00:00	2024-11-08T13:00:00	4	Temperatura máxima	18.5
129759	7	Sololá	701	Sololá	4	Finca Santa Victoria	9	Septiembre	2023-10-09T00:00:00	2024-11-08T13:00:00	3	Temperatura mínima	17.7
129760	7	Sololá	701	Sololá	4	Finca Santa Victoria	9	Septiembre	2023-10-09T00:00:00	2024-11-08T13:00:00	5	Humedad	87
129761	7	Sololá	701	Sololá	4	Finca Santa Victoria	9	Septiembre	2023-10-09T00:00:00	2024-11-08T13:00:00	6	Velocidad del viento	3.2
129762	7	Sololá	701	Sololá	4	Finca Santa Victoria	9	Septiembre	2023-10-09T00:00:00	2024-11-08T13:00:00	7	Dirección del viento	3.22
129763	7	Sololá	701	Sololá	4	Finca Santa Victoria	9	Septiembre	2023-10-09T00:00:00	2024-11-08T13:00:00	1	Precipitación	0
129764	7	Sololá	701	Sololá	4	Finca Santa Victoria	9	Septiembre	2023-10-09T00:00:00	2024-11-08T13:00:00	8	Radiación solar	199
129765	7	Sololá	701	Sololá	4	Finca Santa Victoria	9	Septiembre	2023-10-09T00:00:00	2024-11-08T14:00:00	2	Temperatura media	19.3
129766	7	Sololá	701	Sololá	4	Finca Santa Victoria	9	Septiembre	2023-10-09T00:00:00	2024-11-08T14:00:00	4	Temperatura máxima	19.4
129767	7	Sololá	701	Sololá	4	Finca Santa Victoria	9	Septiembre	2023-10-09T00:00:00	2024-11-08T14:00:00	3	Temperatura mínima	17.6
129768	7	Sololá	701	Sololá	4	Finca Santa Victoria	9	Septiembre	2023-10-09T00:00:00	2024-11-08T14:00:00	5	Humedad	90
129769	7	Sololá	701	Sololá	4	Finca Santa Victoria	9	Septiembre	2023-10-09T00:00:00	2024-11-08T14:00:00	6	Velocidad del viento	3.2
129770	7	Sololá	701	Sololá	4	Finca Santa Victoria	9	Septiembre	2023-10-09T00:00:00	2024-11-08T14:00:00	7	Dirección del viento	3.22
129771	7	Sololá	701	Sololá	4	Finca Santa Victoria	9	Septiembre	2023-10-09T00:00:00	2024-11-08T14:00:00	1	Precipitación	0
129772	7	Sololá	701	Sololá	4	Finca Santa Victoria	9	Septiembre	2023-10-09T00:00:00	2024-11-08T14:00:00	8	Radiación solar	191
129773	7	Sololá	701	Sololá	4	Finca Santa Victoria	9	Septiembre	2023-10-09T00:00:00	2024-11-08T15:00:00	2	Temperatura media	18.1
129774	7	Sololá	701	Sololá	4	Finca Santa Victoria	9	Septiembre	2023-10-09T00:00:00	2024-11-08T15:00:00	4	Temperatura máxima	19.7
129775	7	Sololá	701	Sololá	4	Finca Santa Victoria	9	Septiembre	2023-10-09T00:00:00	2024-11-08T15:00:00	3	Temperatura mínima	18
129776	7	Sololá	701	Sololá	4	Finca Santa Victoria	9	Septiembre	2023-10-09T00:00:00	2024-11-08T15:00:00	5	Humedad	91
129777	7	Sololá	701	Sololá	4	Finca Santa Victoria	9	Septiembre	2023-10-09T00:00:00	2024-11-08T15:00:00	6	Velocidad del viento	3.2
129778	7	Sololá	701	Sololá	4	Finca Santa Victoria	9	Septiembre	2023-10-09T00:00:00	2024-11-08T15:00:00	7	Dirección del viento	3.22
129779	7	Sololá	701	Sololá	4	Finca Santa Victoria	9	Septiembre	2023-10-09T00:00:00	2024-11-08T15:00:00	1	Precipitación	0
129780	7	Sololá	701	Sololá	4	Finca Santa Victoria	9	Septiembre	2023-10-09T00:00:00	2024-11-08T15:00:00	8	Radiación solar	135
129781	7	Sololá	701	Sololá	4	Finca Santa Victoria	9	Septiembre	2023-10-09T00:00:00	2024-11-08T16:00:00	2	Temperatura media	18.2
129782	7	Sololá	701	Sololá	4	Finca Santa Victoria	9	Septiembre	2023-10-09T00:00:00	2024-11-08T16:00:00	4	Temperatura máxima	18.2
129783	7	Sololá	701	Sololá	4	Finca Santa Victoria	9	Septiembre	2023-10-09T00:00:00	2024-11-08T16:00:00	3	Temperatura mínima	17.1
129784	7	Sololá	701	Sololá	4	Finca Santa Victoria	9	Septiembre	2023-10-09T00:00:00	2024-11-08T16:00:00	5	Humedad	91
129785	7	Sololá	701	Sololá	4	Finca Santa Victoria	9	Septiembre	2023-10-09T00:00:00	2024-11-08T16:00:00	6	Velocidad del viento	1.6
129786	7	Sololá	701	Sololá	4	Finca Santa Victoria	9	Septiembre	2023-10-09T00:00:00	2024-11-08T16:00:00	7	Dirección del viento	1.61
129787	7	Sololá	701	Sololá	4	Finca Santa Victoria	9	Septiembre	2023-10-09T00:00:00	2024-11-08T16:00:00	1	Precipitación	0
129788	7	Sololá	701	Sololá	4	Finca Santa Victoria	9	Septiembre	2023-10-09T00:00:00	2024-11-08T16:00:00	8	Radiación solar	80
129789	7	Sololá	701	Sololá	4	Finca Santa Victoria	9	Septiembre	2023-10-09T00:00:00	2024-11-08T17:00:00	2	Temperatura media	16.8
129790	7	Sololá	701	Sololá	4	Finca Santa Victoria	9	Septiembre	2023-10-09T00:00:00	2024-11-08T17:00:00	4	Temperatura máxima	18.2
129791	7	Sololá	701	Sololá	4	Finca Santa Victoria	9	Septiembre	2023-10-09T00:00:00	2024-11-08T17:00:00	3	Temperatura mínima	16.8
129792	7	Sololá	701	Sololá	4	Finca Santa Victoria	9	Septiembre	2023-10-09T00:00:00	2024-11-08T17:00:00	5	Humedad	95
129793	7	Sololá	701	Sololá	4	Finca Santa Victoria	9	Septiembre	2023-10-09T00:00:00	2024-11-08T17:00:00	6	Velocidad del viento	3.2
129794	7	Sololá	701	Sololá	4	Finca Santa Victoria	9	Septiembre	2023-10-09T00:00:00	2024-11-08T17:00:00	7	Dirección del viento	3.22
129795	7	Sololá	701	Sololá	4	Finca Santa Victoria	9	Septiembre	2023-10-09T00:00:00	2024-11-08T17:00:00	1	Precipitación	0
129796	7	Sololá	701	Sololá	4	Finca Santa Victoria	9	Septiembre	2023-10-09T00:00:00	2024-11-08T17:00:00	8	Radiación solar	53
129797	7	Sololá	701	Sololá	4	Finca Santa Victoria	9	Septiembre	2023-10-09T00:00:00	2024-11-08T18:00:00	2	Temperatura media	16.1
129798	7	Sololá	701	Sololá	4	Finca Santa Victoria	9	Septiembre	2023-10-09T00:00:00	2024-11-08T18:00:00	4	Temperatura máxima	16.8
129799	7	Sololá	701	Sololá	4	Finca Santa Victoria	9	Septiembre	2023-10-09T00:00:00	2024-11-08T18:00:00	3	Temperatura mínima	16.1
129800	7	Sololá	701	Sololá	4	Finca Santa Victoria	9	Septiembre	2023-10-09T00:00:00	2024-11-08T18:00:00	5	Humedad	97
129801	7	Sololá	701	Sololá	4	Finca Santa Victoria	9	Septiembre	2023-10-09T00:00:00	2024-11-08T18:00:00	6	Velocidad del viento	1.6
129802	7	Sololá	701	Sololá	4	Finca Santa Victoria	9	Septiembre	2023-10-09T00:00:00	2024-11-08T18:00:00	7	Dirección del viento	1.61
129803	7	Sololá	701	Sololá	4	Finca Santa Victoria	9	Septiembre	2023-10-09T00:00:00	2024-11-08T18:00:00	1	Precipitación	0
129804	7	Sololá	701	Sololá	4	Finca Santa Victoria	9	Septiembre	2023-10-09T00:00:00	2024-11-08T18:00:00	8	Radiación solar	12
129805	7	Sololá	701	Sololá	4	Finca Santa Victoria	9	Septiembre	2023-10-09T00:00:00	2024-11-08T19:00:00	2	Temperatura media	15.8
129806	7	Sololá	701	Sololá	4	Finca Santa Victoria	9	Septiembre	2023-10-09T00:00:00	2024-11-08T19:00:00	4	Temperatura máxima	16.1
129807	7	Sololá	701	Sololá	4	Finca Santa Victoria	9	Septiembre	2023-10-09T00:00:00	2024-11-08T19:00:00	3	Temperatura mínima	15.7
129808	7	Sololá	701	Sololá	4	Finca Santa Victoria	9	Septiembre	2023-10-09T00:00:00	2024-11-08T19:00:00	5	Humedad	97
129809	7	Sololá	701	Sololá	4	Finca Santa Victoria	9	Septiembre	2023-10-09T00:00:00	2024-11-08T19:00:00	6	Velocidad del viento	0
129810	7	Sololá	701	Sololá	4	Finca Santa Victoria	9	Septiembre	2023-10-09T00:00:00	2024-11-08T19:00:00	7	Dirección del viento	0
129811	7	Sololá	701	Sololá	4	Finca Santa Victoria	9	Septiembre	2023-10-09T00:00:00	2024-11-08T19:00:00	1	Precipitación	0
129812	7	Sololá	701	Sololá	4	Finca Santa Victoria	9	Septiembre	2023-10-09T00:00:00	2024-11-08T19:00:00	8	Radiación solar	0
129813	7	Sololá	701	Sololá	4	Finca Santa Victoria	9	Septiembre	2023-10-09T00:00:00	2024-11-08T20:00:00	2	Temperatura media	15.4
129814	7	Sololá	701	Sololá	4	Finca Santa Victoria	9	Septiembre	2023-10-09T00:00:00	2024-11-08T20:00:00	4	Temperatura máxima	15.8
129815	7	Sololá	701	Sololá	4	Finca Santa Victoria	9	Septiembre	2023-10-09T00:00:00	2024-11-08T20:00:00	3	Temperatura mínima	15.3
129816	7	Sololá	701	Sololá	4	Finca Santa Victoria	9	Septiembre	2023-10-09T00:00:00	2024-11-08T20:00:00	5	Humedad	97
129817	7	Sololá	701	Sololá	4	Finca Santa Victoria	9	Septiembre	2023-10-09T00:00:00	2024-11-08T20:00:00	6	Velocidad del viento	0
129818	7	Sololá	701	Sololá	4	Finca Santa Victoria	9	Septiembre	2023-10-09T00:00:00	2024-11-08T20:00:00	7	Dirección del viento	0
129819	7	Sololá	701	Sololá	4	Finca Santa Victoria	9	Septiembre	2023-10-09T00:00:00	2024-11-08T20:00:00	1	Precipitación	0
129820	7	Sololá	701	Sololá	4	Finca Santa Victoria	9	Septiembre	2023-10-09T00:00:00	2024-11-08T20:00:00	8	Radiación solar	0
129821	7	Sololá	701	Sololá	4	Finca Santa Victoria	9	Septiembre	2023-10-09T00:00:00	2024-11-08T21:00:00	2	Temperatura media	14.8
129822	7	Sololá	701	Sololá	4	Finca Santa Victoria	9	Septiembre	2023-10-09T00:00:00	2024-11-08T21:00:00	4	Temperatura máxima	15.4
129823	7	Sololá	701	Sololá	4	Finca Santa Victoria	9	Septiembre	2023-10-09T00:00:00	2024-11-08T21:00:00	3	Temperatura mínima	14.8
129824	7	Sololá	701	Sololá	4	Finca Santa Victoria	9	Septiembre	2023-10-09T00:00:00	2024-11-08T21:00:00	5	Humedad	94
129825	7	Sololá	701	Sololá	4	Finca Santa Victoria	9	Septiembre	2023-10-09T00:00:00	2024-11-08T21:00:00	6	Velocidad del viento	0
129826	7	Sololá	701	Sololá	4	Finca Santa Victoria	9	Septiembre	2023-10-09T00:00:00	2024-11-08T21:00:00	7	Dirección del viento	0
129827	7	Sololá	701	Sololá	4	Finca Santa Victoria	9	Septiembre	2023-10-09T00:00:00	2024-11-08T21:00:00	1	Precipitación	0
129828	7	Sololá	701	Sololá	4	Finca Santa Victoria	9	Septiembre	2023-10-09T00:00:00	2024-11-08T21:00:00	8	Radiación solar	0
129829	7	Sololá	701	Sololá	4	Finca Santa Victoria	9	Septiembre	2023-10-09T00:00:00	2024-11-08T22:00:00	2	Temperatura media	14.7
129830	7	Sololá	701	Sololá	4	Finca Santa Victoria	9	Septiembre	2023-10-09T00:00:00	2024-11-08T22:00:00	4	Temperatura máxima	14.9
129831	7	Sololá	701	Sololá	4	Finca Santa Victoria	9	Septiembre	2023-10-09T00:00:00	2024-11-08T22:00:00	3	Temperatura mínima	14.4
129832	7	Sololá	701	Sololá	4	Finca Santa Victoria	9	Septiembre	2023-10-09T00:00:00	2024-11-08T22:00:00	5	Humedad	91
129833	7	Sololá	701	Sololá	4	Finca Santa Victoria	9	Septiembre	2023-10-09T00:00:00	2024-11-08T22:00:00	6	Velocidad del viento	1.6
129834	7	Sololá	701	Sololá	4	Finca Santa Victoria	9	Septiembre	2023-10-09T00:00:00	2024-11-08T22:00:00	7	Dirección del viento	1.61
129835	7	Sololá	701	Sololá	4	Finca Santa Victoria	9	Septiembre	2023-10-09T00:00:00	2024-11-08T22:00:00	1	Precipitación	0
129836	7	Sololá	701	Sololá	4	Finca Santa Victoria	9	Septiembre	2023-10-09T00:00:00	2024-11-08T22:00:00	8	Radiación solar	0
129837	7	Sololá	701	Sololá	4	Finca Santa Victoria	9	Septiembre	2023-10-09T00:00:00	2024-11-08T23:00:00	2	Temperatura media	14.7
129838	7	Sololá	701	Sololá	4	Finca Santa Victoria	9	Septiembre	2023-10-09T00:00:00	2024-11-08T23:00:00	4	Temperatura máxima	15.1
129839	7	Sololá	701	Sololá	4	Finca Santa Victoria	9	Septiembre	2023-10-09T00:00:00	2024-11-08T23:00:00	3	Temperatura mínima	14.7
129840	7	Sololá	701	Sololá	4	Finca Santa Victoria	9	Septiembre	2023-10-09T00:00:00	2024-11-08T23:00:00	5	Humedad	89
129841	7	Sololá	701	Sololá	4	Finca Santa Victoria	9	Septiembre	2023-10-09T00:00:00	2024-11-08T23:00:00	6	Velocidad del viento	1.6
129842	7	Sololá	701	Sololá	4	Finca Santa Victoria	9	Septiembre	2023-10-09T00:00:00	2024-11-08T23:00:00	7	Dirección del viento	1.61
129843	7	Sololá	701	Sololá	4	Finca Santa Victoria	9	Septiembre	2023-10-09T00:00:00	2024-11-08T23:00:00	1	Precipitación	0
129844	7	Sololá	701	Sololá	4	Finca Santa Victoria	9	Septiembre	2023-10-09T00:00:00	2024-11-08T23:00:00	8	Radiación solar	0
129845	7	Sololá	701	Sololá	4	Finca Santa Victoria	9	Septiembre	2023-11-09T00:00:00	2024-11-08T00:00:00	2	Temperatura media	14.1
129846	7	Sololá	701	Sololá	4	Finca Santa Victoria	9	Septiembre	2023-11-09T00:00:00	2024-11-08T00:00:00	4	Temperatura máxima	14.7
129847	7	Sololá	701	Sololá	4	Finca Santa Victoria	9	Septiembre	2023-11-09T00:00:00	2024-11-08T00:00:00	3	Temperatura mínima	14
129848	7	Sololá	701	Sololá	4	Finca Santa Victoria	9	Septiembre	2023-11-09T00:00:00	2024-11-08T00:00:00	5	Humedad	91
129849	7	Sololá	701	Sololá	4	Finca Santa Victoria	9	Septiembre	2023-11-09T00:00:00	2024-11-08T00:00:00	6	Velocidad del viento	0
129850	7	Sololá	701	Sololá	4	Finca Santa Victoria	9	Septiembre	2023-11-09T00:00:00	2024-11-08T00:00:00	7	Dirección del viento	0
129851	7	Sololá	701	Sololá	4	Finca Santa Victoria	9	Septiembre	2023-11-09T00:00:00	2024-11-08T00:00:00	1	Precipitación	0
129852	7	Sololá	701	Sololá	4	Finca Santa Victoria	9	Septiembre	2023-11-09T00:00:00	2024-11-08T00:00:00	8	Radiación solar	0
129853	7	Sololá	701	Sololá	4	Finca Santa Victoria	9	Septiembre	2023-11-09T00:00:00	2024-11-08T01:00:00	2	Temperatura media	13.7
129854	7	Sololá	701	Sololá	4	Finca Santa Victoria	9	Septiembre	2023-11-09T00:00:00	2024-11-08T01:00:00	4	Temperatura máxima	14.2
129855	7	Sololá	701	Sololá	4	Finca Santa Victoria	9	Septiembre	2023-11-09T00:00:00	2024-11-08T01:00:00	3	Temperatura mínima	13.7
129856	7	Sololá	701	Sololá	4	Finca Santa Victoria	9	Septiembre	2023-11-09T00:00:00	2024-11-08T01:00:00	5	Humedad	91
129857	7	Sololá	701	Sololá	4	Finca Santa Victoria	9	Septiembre	2023-11-09T00:00:00	2024-11-08T01:00:00	6	Velocidad del viento	0
129858	7	Sololá	701	Sololá	4	Finca Santa Victoria	9	Septiembre	2023-11-09T00:00:00	2024-11-08T01:00:00	7	Dirección del viento	0
129859	7	Sololá	701	Sololá	4	Finca Santa Victoria	9	Septiembre	2023-11-09T00:00:00	2024-11-08T01:00:00	1	Precipitación	0
129860	7	Sololá	701	Sololá	4	Finca Santa Victoria	9	Septiembre	2023-11-09T00:00:00	2024-11-08T01:00:00	8	Radiación solar	0
129861	7	Sololá	701	Sololá	4	Finca Santa Victoria	9	Septiembre	2023-11-09T00:00:00	2024-11-08T02:00:00	2	Temperatura media	13.4
129862	7	Sololá	701	Sololá	4	Finca Santa Victoria	9	Septiembre	2023-11-09T00:00:00	2024-11-08T02:00:00	4	Temperatura máxima	13.7
129863	7	Sololá	701	Sololá	4	Finca Santa Victoria	9	Septiembre	2023-11-09T00:00:00	2024-11-08T02:00:00	3	Temperatura mínima	13.4
129864	7	Sololá	701	Sololá	4	Finca Santa Victoria	9	Septiembre	2023-11-09T00:00:00	2024-11-08T02:00:00	5	Humedad	91
129865	7	Sololá	701	Sololá	4	Finca Santa Victoria	9	Septiembre	2023-11-09T00:00:00	2024-11-08T02:00:00	6	Velocidad del viento	1.6
129866	7	Sololá	701	Sololá	4	Finca Santa Victoria	9	Septiembre	2023-11-09T00:00:00	2024-11-08T02:00:00	7	Dirección del viento	1.61
129867	7	Sololá	701	Sololá	4	Finca Santa Victoria	9	Septiembre	2023-11-09T00:00:00	2024-11-08T02:00:00	1	Precipitación	0
129868	7	Sololá	701	Sololá	4	Finca Santa Victoria	9	Septiembre	2023-11-09T00:00:00	2024-11-08T02:00:00	8	Radiación solar	0
129869	7	Sololá	701	Sololá	4	Finca Santa Victoria	9	Septiembre	2023-11-09T00:00:00	2024-11-08T03:00:00	2	Temperatura media	12.8
129870	7	Sololá	701	Sololá	4	Finca Santa Victoria	9	Septiembre	2023-11-09T00:00:00	2024-11-08T03:00:00	4	Temperatura máxima	13.4
129871	7	Sololá	701	Sololá	4	Finca Santa Victoria	9	Septiembre	2023-11-09T00:00:00	2024-11-08T03:00:00	3	Temperatura mínima	12.8
129872	7	Sololá	701	Sololá	4	Finca Santa Victoria	9	Septiembre	2023-11-09T00:00:00	2024-11-08T03:00:00	5	Humedad	91
129873	7	Sololá	701	Sololá	4	Finca Santa Victoria	9	Septiembre	2023-11-09T00:00:00	2024-11-08T03:00:00	6	Velocidad del viento	0
129874	7	Sololá	701	Sololá	4	Finca Santa Victoria	9	Septiembre	2023-11-09T00:00:00	2024-11-08T03:00:00	7	Dirección del viento	0
129875	7	Sololá	701	Sololá	4	Finca Santa Victoria	9	Septiembre	2023-11-09T00:00:00	2024-11-08T03:00:00	1	Precipitación	0
129876	7	Sololá	701	Sololá	4	Finca Santa Victoria	9	Septiembre	2023-11-09T00:00:00	2024-11-08T03:00:00	8	Radiación solar	0
129877	7	Sololá	701	Sololá	4	Finca Santa Victoria	9	Septiembre	2023-11-09T00:00:00	2024-11-08T04:00:00	2	Temperatura media	12.5
129878	7	Sololá	701	Sololá	4	Finca Santa Victoria	9	Septiembre	2023-11-09T00:00:00	2024-11-08T04:00:00	4	Temperatura máxima	12.8
129879	7	Sololá	701	Sololá	4	Finca Santa Victoria	9	Septiembre	2023-11-09T00:00:00	2024-11-08T04:00:00	3	Temperatura mínima	12.4
129880	7	Sololá	701	Sololá	4	Finca Santa Victoria	9	Septiembre	2023-11-09T00:00:00	2024-11-08T04:00:00	5	Humedad	92
129881	7	Sololá	701	Sololá	4	Finca Santa Victoria	9	Septiembre	2023-11-09T00:00:00	2024-11-08T04:00:00	6	Velocidad del viento	0
129882	7	Sololá	701	Sololá	4	Finca Santa Victoria	9	Septiembre	2023-11-09T00:00:00	2024-11-08T04:00:00	7	Dirección del viento	0
129883	7	Sololá	701	Sololá	4	Finca Santa Victoria	9	Septiembre	2023-11-09T00:00:00	2024-11-08T04:00:00	1	Precipitación	0
129884	7	Sololá	701	Sololá	4	Finca Santa Victoria	9	Septiembre	2023-11-09T00:00:00	2024-11-08T04:00:00	8	Radiación solar	0
129885	7	Sololá	701	Sololá	4	Finca Santa Victoria	9	Septiembre	2023-11-09T00:00:00	2024-11-08T05:00:00	2	Temperatura media	12.1
129886	7	Sololá	701	Sololá	4	Finca Santa Victoria	9	Septiembre	2023-11-09T00:00:00	2024-11-08T05:00:00	4	Temperatura máxima	12.7
129887	7	Sololá	701	Sololá	4	Finca Santa Victoria	9	Septiembre	2023-11-09T00:00:00	2024-11-08T05:00:00	3	Temperatura mínima	12
129888	7	Sololá	701	Sololá	4	Finca Santa Victoria	9	Septiembre	2023-11-09T00:00:00	2024-11-08T05:00:00	5	Humedad	91
129889	7	Sololá	701	Sololá	4	Finca Santa Victoria	9	Septiembre	2023-11-09T00:00:00	2024-11-08T05:00:00	6	Velocidad del viento	1.6
129890	7	Sololá	701	Sololá	4	Finca Santa Victoria	9	Septiembre	2023-11-09T00:00:00	2024-11-08T05:00:00	7	Dirección del viento	1.61
129891	7	Sololá	701	Sololá	4	Finca Santa Victoria	9	Septiembre	2023-11-09T00:00:00	2024-11-08T05:00:00	1	Precipitación	0
129892	7	Sololá	701	Sololá	4	Finca Santa Victoria	9	Septiembre	2023-11-09T00:00:00	2024-11-08T05:00:00	8	Radiación solar	0
129893	7	Sololá	701	Sololá	4	Finca Santa Victoria	9	Septiembre	2023-11-09T00:00:00	2024-11-08T06:00:00	2	Temperatura media	12.3
129894	7	Sololá	701	Sololá	4	Finca Santa Victoria	9	Septiembre	2023-11-09T00:00:00	2024-11-08T06:00:00	4	Temperatura máxima	12.5
129895	7	Sololá	701	Sololá	4	Finca Santa Victoria	9	Septiembre	2023-11-09T00:00:00	2024-11-08T06:00:00	3	Temperatura mínima	11.9
129896	7	Sololá	701	Sololá	4	Finca Santa Victoria	9	Septiembre	2023-11-09T00:00:00	2024-11-08T06:00:00	5	Humedad	92
129897	7	Sololá	701	Sololá	4	Finca Santa Victoria	9	Septiembre	2023-11-09T00:00:00	2024-11-08T06:00:00	6	Velocidad del viento	0
129898	7	Sololá	701	Sololá	4	Finca Santa Victoria	9	Septiembre	2023-11-09T00:00:00	2024-11-08T06:00:00	7	Dirección del viento	0
129899	7	Sololá	701	Sololá	4	Finca Santa Victoria	9	Septiembre	2023-11-09T00:00:00	2024-11-08T06:00:00	1	Precipitación	0
129900	7	Sololá	701	Sololá	4	Finca Santa Victoria	9	Septiembre	2023-11-09T00:00:00	2024-11-08T06:00:00	8	Radiación solar	0
129901	7	Sololá	701	Sololá	4	Finca Santa Victoria	9	Septiembre	2023-11-09T00:00:00	2024-11-08T07:00:00	2	Temperatura media	13.3
129902	7	Sololá	701	Sololá	4	Finca Santa Victoria	9	Septiembre	2023-11-09T00:00:00	2024-11-08T07:00:00	4	Temperatura máxima	13.3
129903	7	Sololá	701	Sololá	4	Finca Santa Victoria	9	Septiembre	2023-11-09T00:00:00	2024-11-08T07:00:00	3	Temperatura mínima	12.3
129904	7	Sololá	701	Sololá	4	Finca Santa Victoria	9	Septiembre	2023-11-09T00:00:00	2024-11-08T07:00:00	5	Humedad	90
129905	7	Sololá	701	Sololá	4	Finca Santa Victoria	9	Septiembre	2023-11-09T00:00:00	2024-11-08T07:00:00	6	Velocidad del viento	0
129906	7	Sololá	701	Sololá	4	Finca Santa Victoria	9	Septiembre	2023-11-09T00:00:00	2024-11-08T07:00:00	7	Dirección del viento	0
129907	7	Sololá	701	Sololá	4	Finca Santa Victoria	9	Septiembre	2023-11-09T00:00:00	2024-11-08T07:00:00	1	Precipitación	0
129908	7	Sololá	701	Sololá	4	Finca Santa Victoria	9	Septiembre	2023-11-09T00:00:00	2024-11-08T07:00:00	8	Radiación solar	32
129909	7	Sololá	701	Sololá	4	Finca Santa Victoria	9	Septiembre	2023-11-09T00:00:00	2024-11-08T08:00:00	2	Temperatura media	15.9
129910	7	Sololá	701	Sololá	4	Finca Santa Victoria	9	Septiembre	2023-11-09T00:00:00	2024-11-08T08:00:00	4	Temperatura máxima	15.9
129911	7	Sololá	701	Sololá	4	Finca Santa Victoria	9	Septiembre	2023-11-09T00:00:00	2024-11-08T08:00:00	3	Temperatura mínima	13.3
129912	7	Sololá	701	Sololá	4	Finca Santa Victoria	9	Septiembre	2023-11-09T00:00:00	2024-11-08T08:00:00	5	Humedad	84
129913	7	Sololá	701	Sololá	4	Finca Santa Victoria	9	Septiembre	2023-11-09T00:00:00	2024-11-08T08:00:00	6	Velocidad del viento	0
129914	7	Sololá	701	Sololá	4	Finca Santa Victoria	9	Septiembre	2023-11-09T00:00:00	2024-11-08T08:00:00	7	Dirección del viento	0
129915	7	Sololá	701	Sololá	4	Finca Santa Victoria	9	Septiembre	2023-11-09T00:00:00	2024-11-08T08:00:00	1	Precipitación	0
129916	7	Sololá	701	Sololá	4	Finca Santa Victoria	9	Septiembre	2023-11-09T00:00:00	2024-11-08T08:00:00	8	Radiación solar	162
129917	7	Sololá	701	Sololá	4	Finca Santa Victoria	9	Septiembre	2023-11-09T00:00:00	2024-11-08T09:00:00	2	Temperatura media	17.9
129918	7	Sololá	701	Sololá	4	Finca Santa Victoria	9	Septiembre	2023-11-09T00:00:00	2024-11-08T09:00:00	4	Temperatura máxima	18.1
129919	7	Sololá	701	Sololá	4	Finca Santa Victoria	9	Septiembre	2023-11-09T00:00:00	2024-11-08T09:00:00	3	Temperatura mínima	15.9
129920	7	Sololá	701	Sololá	4	Finca Santa Victoria	9	Septiembre	2023-11-09T00:00:00	2024-11-08T09:00:00	5	Humedad	76
129921	7	Sololá	701	Sololá	4	Finca Santa Victoria	9	Septiembre	2023-11-09T00:00:00	2024-11-08T09:00:00	6	Velocidad del viento	1.6
129922	7	Sololá	701	Sololá	4	Finca Santa Victoria	9	Septiembre	2023-11-09T00:00:00	2024-11-08T09:00:00	7	Dirección del viento	1.61
129923	7	Sololá	701	Sololá	4	Finca Santa Victoria	9	Septiembre	2023-11-09T00:00:00	2024-11-08T09:00:00	1	Precipitación	0
129924	7	Sololá	701	Sololá	4	Finca Santa Victoria	9	Septiembre	2023-11-09T00:00:00	2024-11-08T09:00:00	8	Radiación solar	266
129925	7	Sololá	701	Sololá	4	Finca Santa Victoria	9	Septiembre	2023-11-09T00:00:00	2024-11-08T10:00:00	2	Temperatura media	20.2
129926	7	Sololá	701	Sololá	4	Finca Santa Victoria	9	Septiembre	2023-11-09T00:00:00	2024-11-08T10:00:00	4	Temperatura máxima	20.2
129927	7	Sololá	701	Sololá	4	Finca Santa Victoria	9	Septiembre	2023-11-09T00:00:00	2024-11-08T10:00:00	3	Temperatura mínima	17.9
129928	7	Sololá	701	Sololá	4	Finca Santa Victoria	9	Septiembre	2023-11-09T00:00:00	2024-11-08T10:00:00	5	Humedad	68
129929	7	Sololá	701	Sololá	4	Finca Santa Victoria	9	Septiembre	2023-11-09T00:00:00	2024-11-08T10:00:00	6	Velocidad del viento	3.2
129930	7	Sololá	701	Sololá	4	Finca Santa Victoria	9	Septiembre	2023-11-09T00:00:00	2024-11-08T10:00:00	7	Dirección del viento	3.22
129931	7	Sololá	701	Sololá	4	Finca Santa Victoria	9	Septiembre	2023-11-09T00:00:00	2024-11-08T10:00:00	1	Precipitación	0
129932	7	Sololá	701	Sololá	4	Finca Santa Victoria	9	Septiembre	2023-11-09T00:00:00	2024-11-08T10:00:00	8	Radiación solar	449
129933	7	Sololá	701	Sololá	4	Finca Santa Victoria	9	Septiembre	2023-11-09T00:00:00	2024-11-08T11:00:00	2	Temperatura media	21.6
129934	7	Sololá	701	Sololá	4	Finca Santa Victoria	9	Septiembre	2023-11-09T00:00:00	2024-11-08T11:00:00	4	Temperatura máxima	21.6
129935	7	Sololá	701	Sololá	4	Finca Santa Victoria	9	Septiembre	2023-11-09T00:00:00	2024-11-08T11:00:00	3	Temperatura mínima	20.2
129936	7	Sololá	701	Sololá	4	Finca Santa Victoria	9	Septiembre	2023-11-09T00:00:00	2024-11-08T11:00:00	5	Humedad	65
129937	7	Sololá	701	Sololá	4	Finca Santa Victoria	9	Septiembre	2023-11-09T00:00:00	2024-11-08T11:00:00	6	Velocidad del viento	3.2
129938	7	Sololá	701	Sololá	4	Finca Santa Victoria	9	Septiembre	2023-11-09T00:00:00	2024-11-08T11:00:00	7	Dirección del viento	3.22
129939	7	Sololá	701	Sololá	4	Finca Santa Victoria	9	Septiembre	2023-11-09T00:00:00	2024-11-08T11:00:00	1	Precipitación	0
129940	7	Sololá	701	Sololá	4	Finca Santa Victoria	9	Septiembre	2023-11-09T00:00:00	2024-11-08T11:00:00	8	Radiación solar	978
129941	7	Sololá	701	Sololá	4	Finca Santa Victoria	9	Septiembre	2023-11-09T00:00:00	2024-11-08T12:00:00	2	Temperatura media	20.1
129942	7	Sololá	701	Sololá	4	Finca Santa Victoria	9	Septiembre	2023-11-09T00:00:00	2024-11-08T12:00:00	4	Temperatura máxima	22.1
129943	7	Sololá	701	Sololá	4	Finca Santa Victoria	9	Septiembre	2023-11-09T00:00:00	2024-11-08T12:00:00	3	Temperatura mínima	20.1
129944	7	Sololá	701	Sololá	4	Finca Santa Victoria	9	Septiembre	2023-11-09T00:00:00	2024-11-08T12:00:00	5	Humedad	66
129945	7	Sololá	701	Sololá	4	Finca Santa Victoria	9	Septiembre	2023-11-09T00:00:00	2024-11-08T12:00:00	6	Velocidad del viento	3.2
129946	7	Sololá	701	Sololá	4	Finca Santa Victoria	9	Septiembre	2023-11-09T00:00:00	2024-11-08T12:00:00	7	Dirección del viento	3.22
129947	7	Sololá	701	Sololá	4	Finca Santa Victoria	9	Septiembre	2023-11-09T00:00:00	2024-11-08T12:00:00	1	Precipitación	0
129948	7	Sololá	701	Sololá	4	Finca Santa Victoria	9	Septiembre	2023-11-09T00:00:00	2024-11-08T12:00:00	8	Radiación solar	714
129949	7	Sololá	701	Sololá	4	Finca Santa Victoria	9	Septiembre	2023-11-09T00:00:00	2024-11-08T13:00:00	2	Temperatura media	22.1
129950	7	Sololá	701	Sololá	4	Finca Santa Victoria	9	Septiembre	2023-11-09T00:00:00	2024-11-08T13:00:00	4	Temperatura máxima	22.2
129951	7	Sololá	701	Sololá	4	Finca Santa Victoria	9	Septiembre	2023-11-09T00:00:00	2024-11-08T13:00:00	3	Temperatura mínima	20
129952	7	Sololá	701	Sololá	4	Finca Santa Victoria	9	Septiembre	2023-11-09T00:00:00	2024-11-08T13:00:00	5	Humedad	60
129953	7	Sololá	701	Sololá	4	Finca Santa Victoria	9	Septiembre	2023-11-09T00:00:00	2024-11-08T13:00:00	6	Velocidad del viento	3.2
129954	7	Sololá	701	Sololá	4	Finca Santa Victoria	9	Septiembre	2023-11-09T00:00:00	2024-11-08T13:00:00	7	Dirección del viento	3.22
129955	7	Sololá	701	Sololá	4	Finca Santa Victoria	9	Septiembre	2023-11-09T00:00:00	2024-11-08T13:00:00	1	Precipitación	0
129956	7	Sololá	701	Sololá	4	Finca Santa Victoria	9	Septiembre	2023-11-09T00:00:00	2024-11-08T13:00:00	8	Radiación solar	307
129957	7	Sololá	701	Sololá	4	Finca Santa Victoria	9	Septiembre	2023-11-09T00:00:00	2024-11-08T14:00:00	2	Temperatura media	19.8
129958	7	Sololá	701	Sololá	4	Finca Santa Victoria	9	Septiembre	2023-11-09T00:00:00	2024-11-08T14:00:00	4	Temperatura máxima	22.1
129959	7	Sololá	701	Sololá	4	Finca Santa Victoria	9	Septiembre	2023-11-09T00:00:00	2024-11-08T14:00:00	3	Temperatura mínima	19.8
129960	7	Sololá	701	Sololá	4	Finca Santa Victoria	9	Septiembre	2023-11-09T00:00:00	2024-11-08T14:00:00	5	Humedad	81
129961	7	Sololá	701	Sololá	4	Finca Santa Victoria	9	Septiembre	2023-11-09T00:00:00	2024-11-08T14:00:00	6	Velocidad del viento	3.2
129962	7	Sololá	701	Sololá	4	Finca Santa Victoria	9	Septiembre	2023-11-09T00:00:00	2024-11-08T14:00:00	7	Dirección del viento	3.22
129963	7	Sololá	701	Sololá	4	Finca Santa Victoria	9	Septiembre	2023-11-09T00:00:00	2024-11-08T14:00:00	1	Precipitación	0
129964	7	Sololá	701	Sololá	4	Finca Santa Victoria	9	Septiembre	2023-11-09T00:00:00	2024-11-08T14:00:00	8	Radiación solar	188
129965	7	Sololá	701	Sololá	4	Finca Santa Victoria	9	Septiembre	2023-11-09T00:00:00	2024-11-08T15:00:00	2	Temperatura media	18.2
129966	7	Sololá	701	Sololá	4	Finca Santa Victoria	9	Septiembre	2023-11-09T00:00:00	2024-11-08T15:00:00	4	Temperatura máxima	19.8
129967	7	Sololá	701	Sololá	4	Finca Santa Victoria	9	Septiembre	2023-11-09T00:00:00	2024-11-08T15:00:00	3	Temperatura mínima	18.2
129968	7	Sololá	701	Sololá	4	Finca Santa Victoria	9	Septiembre	2023-11-09T00:00:00	2024-11-08T15:00:00	5	Humedad	90
129969	7	Sololá	701	Sololá	4	Finca Santa Victoria	9	Septiembre	2023-11-09T00:00:00	2024-11-08T15:00:00	6	Velocidad del viento	3.2
129970	7	Sololá	701	Sololá	4	Finca Santa Victoria	9	Septiembre	2023-11-09T00:00:00	2024-11-08T15:00:00	7	Dirección del viento	3.22
129971	7	Sololá	701	Sololá	4	Finca Santa Victoria	9	Septiembre	2023-11-09T00:00:00	2024-11-08T15:00:00	1	Precipitación	0
129972	7	Sololá	701	Sololá	4	Finca Santa Victoria	9	Septiembre	2023-11-09T00:00:00	2024-11-08T15:00:00	8	Radiación solar	104
129973	7	Sololá	701	Sololá	4	Finca Santa Victoria	9	Septiembre	2023-11-09T00:00:00	2024-11-08T16:00:00	2	Temperatura media	17.3
129974	7	Sololá	701	Sololá	4	Finca Santa Victoria	9	Septiembre	2023-11-09T00:00:00	2024-11-08T16:00:00	4	Temperatura máxima	18.6
129975	7	Sololá	701	Sololá	4	Finca Santa Victoria	9	Septiembre	2023-11-09T00:00:00	2024-11-08T16:00:00	3	Temperatura mínima	17.3
129976	7	Sololá	701	Sololá	4	Finca Santa Victoria	9	Septiembre	2023-11-09T00:00:00	2024-11-08T16:00:00	5	Humedad	94
129977	7	Sololá	701	Sololá	4	Finca Santa Victoria	9	Septiembre	2023-11-09T00:00:00	2024-11-08T16:00:00	6	Velocidad del viento	1.6
129978	7	Sololá	701	Sololá	4	Finca Santa Victoria	9	Septiembre	2023-11-09T00:00:00	2024-11-08T16:00:00	7	Dirección del viento	1.61
129979	7	Sololá	701	Sololá	4	Finca Santa Victoria	9	Septiembre	2023-11-09T00:00:00	2024-11-08T16:00:00	1	Precipitación	0
129980	7	Sololá	701	Sololá	4	Finca Santa Victoria	9	Septiembre	2023-11-09T00:00:00	2024-11-08T16:00:00	8	Radiación solar	78
129981	7	Sololá	701	Sololá	4	Finca Santa Victoria	9	Septiembre	2023-11-09T00:00:00	2024-11-08T17:00:00	2	Temperatura media	16.7
129982	7	Sololá	701	Sololá	4	Finca Santa Victoria	9	Septiembre	2023-11-09T00:00:00	2024-11-08T17:00:00	4	Temperatura máxima	17.3
129983	7	Sololá	701	Sololá	4	Finca Santa Victoria	9	Septiembre	2023-11-09T00:00:00	2024-11-08T17:00:00	3	Temperatura mínima	16.6
129984	7	Sololá	701	Sololá	4	Finca Santa Victoria	9	Septiembre	2023-11-09T00:00:00	2024-11-08T17:00:00	5	Humedad	91
129985	7	Sololá	701	Sololá	4	Finca Santa Victoria	9	Septiembre	2023-11-09T00:00:00	2024-11-08T17:00:00	6	Velocidad del viento	1.6
129986	7	Sololá	701	Sololá	4	Finca Santa Victoria	9	Septiembre	2023-11-09T00:00:00	2024-11-08T17:00:00	7	Dirección del viento	1.61
129987	7	Sololá	701	Sololá	4	Finca Santa Victoria	9	Septiembre	2023-11-09T00:00:00	2024-11-08T17:00:00	1	Precipitación	0
129988	7	Sololá	701	Sololá	4	Finca Santa Victoria	9	Septiembre	2023-11-09T00:00:00	2024-11-08T17:00:00	8	Radiación solar	21
129989	7	Sololá	701	Sololá	4	Finca Santa Victoria	9	Septiembre	2023-11-09T00:00:00	2024-11-08T18:00:00	2	Temperatura media	16.2
129990	7	Sololá	701	Sololá	4	Finca Santa Victoria	9	Septiembre	2023-11-09T00:00:00	2024-11-08T18:00:00	4	Temperatura máxima	16.7
129991	7	Sololá	701	Sololá	4	Finca Santa Victoria	9	Septiembre	2023-11-09T00:00:00	2024-11-08T18:00:00	3	Temperatura mínima	16.2
129992	7	Sololá	701	Sololá	4	Finca Santa Victoria	9	Septiembre	2023-11-09T00:00:00	2024-11-08T18:00:00	5	Humedad	94
129993	7	Sololá	701	Sololá	4	Finca Santa Victoria	9	Septiembre	2023-11-09T00:00:00	2024-11-08T18:00:00	6	Velocidad del viento	1.6
129994	7	Sololá	701	Sololá	4	Finca Santa Victoria	9	Septiembre	2023-11-09T00:00:00	2024-11-08T18:00:00	7	Dirección del viento	1.61
129995	7	Sololá	701	Sololá	4	Finca Santa Victoria	9	Septiembre	2023-11-09T00:00:00	2024-11-08T18:00:00	1	Precipitación	0
129996	7	Sololá	701	Sololá	4	Finca Santa Victoria	9	Septiembre	2023-11-09T00:00:00	2024-11-08T18:00:00	8	Radiación solar	8
129997	7	Sololá	701	Sololá	4	Finca Santa Victoria	9	Septiembre	2023-11-09T00:00:00	2024-11-08T19:00:00	2	Temperatura media	15.6
129998	7	Sololá	701	Sololá	4	Finca Santa Victoria	9	Septiembre	2023-11-09T00:00:00	2024-11-08T19:00:00	4	Temperatura máxima	16.2
129999	7	Sololá	701	Sololá	4	Finca Santa Victoria	9	Septiembre	2023-11-09T00:00:00	2024-11-08T19:00:00	3	Temperatura mínima	15.6
130000	7	Sololá	701	Sololá	4	Finca Santa Victoria	9	Septiembre	2023-11-09T00:00:00	2024-11-08T19:00:00	5	Humedad	96
130001	7	Sololá	701	Sololá	4	Finca Santa Victoria	9	Septiembre	2023-11-09T00:00:00	2024-11-08T19:00:00	6	Velocidad del viento	0
130002	7	Sololá	701	Sololá	4	Finca Santa Victoria	9	Septiembre	2023-11-09T00:00:00	2024-11-08T19:00:00	7	Dirección del viento	0
130003	7	Sololá	701	Sololá	4	Finca Santa Victoria	9	Septiembre	2023-11-09T00:00:00	2024-11-08T19:00:00	1	Precipitación	0
130004	7	Sololá	701	Sololá	4	Finca Santa Victoria	9	Septiembre	2023-11-09T00:00:00	2024-11-08T19:00:00	8	Radiación solar	0
130005	7	Sololá	701	Sololá	4	Finca Santa Victoria	9	Septiembre	2023-11-09T00:00:00	2024-11-08T20:00:00	2	Temperatura media	14.6
130006	7	Sololá	701	Sololá	4	Finca Santa Victoria	9	Septiembre	2023-11-09T00:00:00	2024-11-08T20:00:00	4	Temperatura máxima	15.6
130007	7	Sololá	701	Sololá	4	Finca Santa Victoria	9	Septiembre	2023-11-09T00:00:00	2024-11-08T20:00:00	3	Temperatura mínima	14.6
130008	7	Sololá	701	Sololá	4	Finca Santa Victoria	9	Septiembre	2023-11-09T00:00:00	2024-11-08T20:00:00	5	Humedad	94
130009	7	Sololá	701	Sololá	4	Finca Santa Victoria	9	Septiembre	2023-11-09T00:00:00	2024-11-08T20:00:00	6	Velocidad del viento	1.6
130010	7	Sololá	701	Sololá	4	Finca Santa Victoria	9	Septiembre	2023-11-09T00:00:00	2024-11-08T20:00:00	7	Dirección del viento	1.61
130011	7	Sololá	701	Sololá	4	Finca Santa Victoria	9	Septiembre	2023-11-09T00:00:00	2024-11-08T20:00:00	1	Precipitación	0.6
130012	7	Sololá	701	Sololá	4	Finca Santa Victoria	9	Septiembre	2023-11-09T00:00:00	2024-11-08T20:00:00	8	Radiación solar	0
130013	7	Sololá	701	Sololá	4	Finca Santa Victoria	9	Septiembre	2023-11-09T00:00:00	2024-11-08T21:00:00	2	Temperatura media	14.3
130014	7	Sololá	701	Sololá	4	Finca Santa Victoria	9	Septiembre	2023-11-09T00:00:00	2024-11-08T21:00:00	4	Temperatura máxima	14.7
130015	7	Sololá	701	Sololá	4	Finca Santa Victoria	9	Septiembre	2023-11-09T00:00:00	2024-11-08T21:00:00	3	Temperatura mínima	14.3
130016	7	Sololá	701	Sololá	4	Finca Santa Victoria	9	Septiembre	2023-11-09T00:00:00	2024-11-08T21:00:00	5	Humedad	95
130017	7	Sololá	701	Sololá	4	Finca Santa Victoria	9	Septiembre	2023-11-09T00:00:00	2024-11-08T21:00:00	6	Velocidad del viento	1.6
130018	7	Sololá	701	Sololá	4	Finca Santa Victoria	9	Septiembre	2023-11-09T00:00:00	2024-11-08T21:00:00	7	Dirección del viento	1.61
130019	7	Sololá	701	Sololá	4	Finca Santa Victoria	9	Septiembre	2023-11-09T00:00:00	2024-11-08T21:00:00	1	Precipitación	0
130020	7	Sololá	701	Sololá	4	Finca Santa Victoria	9	Septiembre	2023-11-09T00:00:00	2024-11-08T21:00:00	8	Radiación solar	0
130021	7	Sololá	701	Sololá	4	Finca Santa Victoria	9	Septiembre	2023-11-09T00:00:00	2024-11-08T22:00:00	2	Temperatura media	14
130022	7	Sololá	701	Sololá	4	Finca Santa Victoria	9	Septiembre	2023-11-09T00:00:00	2024-11-08T22:00:00	4	Temperatura máxima	14.4
130023	7	Sololá	701	Sololá	4	Finca Santa Victoria	9	Septiembre	2023-11-09T00:00:00	2024-11-08T22:00:00	3	Temperatura mínima	14
130024	7	Sololá	701	Sololá	4	Finca Santa Victoria	9	Septiembre	2023-11-09T00:00:00	2024-11-08T22:00:00	5	Humedad	95
130025	7	Sololá	701	Sololá	4	Finca Santa Victoria	9	Septiembre	2023-11-09T00:00:00	2024-11-08T22:00:00	6	Velocidad del viento	0
130026	7	Sololá	701	Sololá	4	Finca Santa Victoria	9	Septiembre	2023-11-09T00:00:00	2024-11-08T22:00:00	7	Dirección del viento	0
130027	7	Sololá	701	Sololá	4	Finca Santa Victoria	9	Septiembre	2023-11-09T00:00:00	2024-11-08T22:00:00	1	Precipitación	0
130028	7	Sololá	701	Sololá	4	Finca Santa Victoria	9	Septiembre	2023-11-09T00:00:00	2024-11-08T22:00:00	8	Radiación solar	0
130029	7	Sololá	701	Sololá	4	Finca Santa Victoria	9	Septiembre	2023-11-09T00:00:00	2024-11-08T23:00:00	2	Temperatura media	13.9
130030	7	Sololá	701	Sololá	4	Finca Santa Victoria	9	Septiembre	2023-11-09T00:00:00	2024-11-08T23:00:00	4	Temperatura máxima	14.3
130031	7	Sololá	701	Sololá	4	Finca Santa Victoria	9	Septiembre	2023-11-09T00:00:00	2024-11-08T23:00:00	3	Temperatura mínima	13.9
130032	7	Sololá	701	Sololá	4	Finca Santa Victoria	9	Septiembre	2023-11-09T00:00:00	2024-11-08T23:00:00	5	Humedad	94
130033	7	Sololá	701	Sololá	4	Finca Santa Victoria	9	Septiembre	2023-11-09T00:00:00	2024-11-08T23:00:00	6	Velocidad del viento	0
130034	7	Sololá	701	Sololá	4	Finca Santa Victoria	9	Septiembre	2023-11-09T00:00:00	2024-11-08T23:00:00	7	Dirección del viento	0
130035	7	Sololá	701	Sololá	4	Finca Santa Victoria	9	Septiembre	2023-11-09T00:00:00	2024-11-08T23:00:00	1	Precipitación	0
130036	7	Sololá	701	Sololá	4	Finca Santa Victoria	9	Septiembre	2023-11-09T00:00:00	2024-11-08T23:00:00	8	Radiación solar	0
130037	7	Sololá	701	Sololá	4	Finca Santa Victoria	9	Septiembre	2023-12-09T00:00:00	2024-11-08T00:00:00	2	Temperatura media	13.3
130038	7	Sololá	701	Sololá	4	Finca Santa Victoria	9	Septiembre	2023-12-09T00:00:00	2024-11-08T00:00:00	4	Temperatura máxima	13.9
130039	7	Sololá	701	Sololá	4	Finca Santa Victoria	9	Septiembre	2023-12-09T00:00:00	2024-11-08T00:00:00	3	Temperatura mínima	13.2
130040	7	Sololá	701	Sololá	4	Finca Santa Victoria	9	Septiembre	2023-12-09T00:00:00	2024-11-08T00:00:00	5	Humedad	96
130041	7	Sololá	701	Sololá	4	Finca Santa Victoria	9	Septiembre	2023-12-09T00:00:00	2024-11-08T00:00:00	6	Velocidad del viento	0
130042	7	Sololá	701	Sololá	4	Finca Santa Victoria	9	Septiembre	2023-12-09T00:00:00	2024-11-08T00:00:00	7	Dirección del viento	0
130043	7	Sololá	701	Sololá	4	Finca Santa Victoria	9	Septiembre	2023-12-09T00:00:00	2024-11-08T00:00:00	1	Precipitación	0
130044	7	Sololá	701	Sololá	4	Finca Santa Victoria	9	Septiembre	2023-12-09T00:00:00	2024-11-08T00:00:00	8	Radiación solar	0
130045	7	Sololá	701	Sololá	4	Finca Santa Victoria	9	Septiembre	2023-12-09T00:00:00	2024-11-08T01:00:00	2	Temperatura media	13.6
130046	7	Sololá	701	Sololá	4	Finca Santa Victoria	9	Septiembre	2023-12-09T00:00:00	2024-11-08T01:00:00	4	Temperatura máxima	13.6
130047	7	Sololá	701	Sololá	4	Finca Santa Victoria	9	Septiembre	2023-12-09T00:00:00	2024-11-08T01:00:00	3	Temperatura mínima	13
130048	7	Sololá	701	Sololá	4	Finca Santa Victoria	9	Septiembre	2023-12-09T00:00:00	2024-11-08T01:00:00	5	Humedad	93
130049	7	Sololá	701	Sololá	4	Finca Santa Victoria	9	Septiembre	2023-12-09T00:00:00	2024-11-08T01:00:00	6	Velocidad del viento	1.6
130050	7	Sololá	701	Sololá	4	Finca Santa Victoria	9	Septiembre	2023-12-09T00:00:00	2024-11-08T01:00:00	7	Dirección del viento	1.61
130051	7	Sololá	701	Sololá	4	Finca Santa Victoria	9	Septiembre	2023-12-09T00:00:00	2024-11-08T01:00:00	1	Precipitación	0
130052	7	Sololá	701	Sololá	4	Finca Santa Victoria	9	Septiembre	2023-12-09T00:00:00	2024-11-08T01:00:00	8	Radiación solar	0
130053	7	Sololá	701	Sololá	4	Finca Santa Victoria	9	Septiembre	2023-12-09T00:00:00	2024-11-08T02:00:00	2	Temperatura media	13.1
130054	7	Sololá	701	Sololá	4	Finca Santa Victoria	9	Septiembre	2023-12-09T00:00:00	2024-11-08T02:00:00	4	Temperatura máxima	13.7
130055	7	Sololá	701	Sololá	4	Finca Santa Victoria	9	Septiembre	2023-12-09T00:00:00	2024-11-08T02:00:00	3	Temperatura mínima	13.1
130056	7	Sololá	701	Sololá	4	Finca Santa Victoria	9	Septiembre	2023-12-09T00:00:00	2024-11-08T02:00:00	5	Humedad	96
130057	7	Sololá	701	Sololá	4	Finca Santa Victoria	9	Septiembre	2023-12-09T00:00:00	2024-11-08T02:00:00	6	Velocidad del viento	0
130058	7	Sololá	701	Sololá	4	Finca Santa Victoria	9	Septiembre	2023-12-09T00:00:00	2024-11-08T02:00:00	7	Dirección del viento	0
130059	7	Sololá	701	Sololá	4	Finca Santa Victoria	9	Septiembre	2023-12-09T00:00:00	2024-11-08T02:00:00	1	Precipitación	0
130060	7	Sololá	701	Sololá	4	Finca Santa Victoria	9	Septiembre	2023-12-09T00:00:00	2024-11-08T02:00:00	8	Radiación solar	0
130061	7	Sololá	701	Sololá	4	Finca Santa Victoria	9	Septiembre	2023-12-09T00:00:00	2024-11-08T03:00:00	2	Temperatura media	12.8
130062	7	Sololá	701	Sololá	4	Finca Santa Victoria	9	Septiembre	2023-12-09T00:00:00	2024-11-08T03:00:00	4	Temperatura máxima	13.2
130063	7	Sololá	701	Sololá	4	Finca Santa Victoria	9	Septiembre	2023-12-09T00:00:00	2024-11-08T03:00:00	3	Temperatura mínima	12.8
130064	7	Sololá	701	Sololá	4	Finca Santa Victoria	9	Septiembre	2023-12-09T00:00:00	2024-11-08T03:00:00	5	Humedad	96
130065	7	Sololá	701	Sololá	4	Finca Santa Victoria	9	Septiembre	2023-12-09T00:00:00	2024-11-08T03:00:00	6	Velocidad del viento	0
130066	7	Sololá	701	Sololá	4	Finca Santa Victoria	9	Septiembre	2023-12-09T00:00:00	2024-11-08T03:00:00	7	Dirección del viento	0
130067	7	Sololá	701	Sololá	4	Finca Santa Victoria	9	Septiembre	2023-12-09T00:00:00	2024-11-08T03:00:00	1	Precipitación	0
130068	7	Sololá	701	Sololá	4	Finca Santa Victoria	9	Septiembre	2023-12-09T00:00:00	2024-11-08T03:00:00	8	Radiación solar	0
130069	7	Sololá	701	Sololá	4	Finca Santa Victoria	9	Septiembre	2023-12-09T00:00:00	2024-11-08T04:00:00	2	Temperatura media	12.5
130070	7	Sololá	701	Sololá	4	Finca Santa Victoria	9	Septiembre	2023-12-09T00:00:00	2024-11-08T04:00:00	4	Temperatura máxima	12.9
130071	7	Sololá	701	Sololá	4	Finca Santa Victoria	9	Septiembre	2023-12-09T00:00:00	2024-11-08T04:00:00	3	Temperatura mínima	12.5
130072	7	Sololá	701	Sololá	4	Finca Santa Victoria	9	Septiembre	2023-12-09T00:00:00	2024-11-08T04:00:00	5	Humedad	97
130073	7	Sololá	701	Sololá	4	Finca Santa Victoria	9	Septiembre	2023-12-09T00:00:00	2024-11-08T04:00:00	6	Velocidad del viento	1.6
130074	7	Sololá	701	Sololá	4	Finca Santa Victoria	9	Septiembre	2023-12-09T00:00:00	2024-11-08T04:00:00	7	Dirección del viento	1.61
130075	7	Sololá	701	Sololá	4	Finca Santa Victoria	9	Septiembre	2023-12-09T00:00:00	2024-11-08T04:00:00	1	Precipitación	0
130076	7	Sololá	701	Sololá	4	Finca Santa Victoria	9	Septiembre	2023-12-09T00:00:00	2024-11-08T04:00:00	8	Radiación solar	0
130077	7	Sololá	701	Sololá	4	Finca Santa Victoria	9	Septiembre	2023-12-09T00:00:00	2024-11-08T05:00:00	2	Temperatura media	12.4
130078	7	Sololá	701	Sololá	4	Finca Santa Victoria	9	Septiembre	2023-12-09T00:00:00	2024-11-08T05:00:00	4	Temperatura máxima	12.5
130079	7	Sololá	701	Sololá	4	Finca Santa Victoria	9	Septiembre	2023-12-09T00:00:00	2024-11-08T05:00:00	3	Temperatura mínima	12.2
130080	7	Sololá	701	Sololá	4	Finca Santa Victoria	9	Septiembre	2023-12-09T00:00:00	2024-11-08T05:00:00	5	Humedad	95
130081	7	Sololá	701	Sololá	4	Finca Santa Victoria	9	Septiembre	2023-12-09T00:00:00	2024-11-08T05:00:00	6	Velocidad del viento	0
130082	7	Sololá	701	Sololá	4	Finca Santa Victoria	9	Septiembre	2023-12-09T00:00:00	2024-11-08T05:00:00	7	Dirección del viento	0
130083	7	Sololá	701	Sololá	4	Finca Santa Victoria	9	Septiembre	2023-12-09T00:00:00	2024-11-08T05:00:00	1	Precipitación	0
130084	7	Sololá	701	Sololá	4	Finca Santa Victoria	9	Septiembre	2023-12-09T00:00:00	2024-11-08T05:00:00	8	Radiación solar	0
130085	7	Sololá	701	Sololá	4	Finca Santa Victoria	9	Septiembre	2023-12-09T00:00:00	2024-11-08T06:00:00	2	Temperatura media	11.9
130086	7	Sololá	701	Sololá	4	Finca Santa Victoria	9	Septiembre	2023-12-09T00:00:00	2024-11-08T06:00:00	4	Temperatura máxima	12.4
130087	7	Sololá	701	Sololá	4	Finca Santa Victoria	9	Septiembre	2023-12-09T00:00:00	2024-11-08T06:00:00	3	Temperatura mínima	11.8
130088	7	Sololá	701	Sololá	4	Finca Santa Victoria	9	Septiembre	2023-12-09T00:00:00	2024-11-08T06:00:00	5	Humedad	96
130089	7	Sololá	701	Sololá	4	Finca Santa Victoria	9	Septiembre	2023-12-09T00:00:00	2024-11-08T06:00:00	6	Velocidad del viento	0
130090	7	Sololá	701	Sololá	4	Finca Santa Victoria	9	Septiembre	2023-12-09T00:00:00	2024-11-08T06:00:00	7	Dirección del viento	0
130091	7	Sololá	701	Sololá	4	Finca Santa Victoria	9	Septiembre	2023-12-09T00:00:00	2024-11-08T06:00:00	1	Precipitación	0
130092	7	Sololá	701	Sololá	4	Finca Santa Victoria	9	Septiembre	2023-12-09T00:00:00	2024-11-08T06:00:00	8	Radiación solar	0
130093	7	Sololá	701	Sololá	4	Finca Santa Victoria	9	Septiembre	2023-12-09T00:00:00	2024-11-08T07:00:00	2	Temperatura media	13.2
130094	7	Sololá	701	Sololá	4	Finca Santa Victoria	9	Septiembre	2023-12-09T00:00:00	2024-11-08T07:00:00	4	Temperatura máxima	13.2
130095	7	Sololá	701	Sololá	4	Finca Santa Victoria	9	Septiembre	2023-12-09T00:00:00	2024-11-08T07:00:00	3	Temperatura mínima	11.7
130096	7	Sololá	701	Sololá	4	Finca Santa Victoria	9	Septiembre	2023-12-09T00:00:00	2024-11-08T07:00:00	5	Humedad	91
130097	7	Sololá	701	Sololá	4	Finca Santa Victoria	9	Septiembre	2023-12-09T00:00:00	2024-11-08T07:00:00	6	Velocidad del viento	1.6
130098	7	Sololá	701	Sololá	4	Finca Santa Victoria	9	Septiembre	2023-12-09T00:00:00	2024-11-08T07:00:00	7	Dirección del viento	1.61
130099	7	Sololá	701	Sololá	4	Finca Santa Victoria	9	Septiembre	2023-12-09T00:00:00	2024-11-08T07:00:00	1	Precipitación	0
130100	7	Sololá	701	Sololá	4	Finca Santa Victoria	9	Septiembre	2023-12-09T00:00:00	2024-11-08T07:00:00	8	Radiación solar	12
130101	7	Sololá	701	Sololá	4	Finca Santa Victoria	9	Septiembre	2023-12-09T00:00:00	2024-11-08T08:00:00	2	Temperatura media	17
130102	7	Sololá	701	Sololá	4	Finca Santa Victoria	9	Septiembre	2023-12-09T00:00:00	2024-11-08T08:00:00	4	Temperatura máxima	17
130103	7	Sololá	701	Sololá	4	Finca Santa Victoria	9	Septiembre	2023-12-09T00:00:00	2024-11-08T08:00:00	3	Temperatura mínima	13.2
130104	7	Sololá	701	Sololá	4	Finca Santa Victoria	9	Septiembre	2023-12-09T00:00:00	2024-11-08T08:00:00	5	Humedad	80
130105	7	Sololá	701	Sololá	4	Finca Santa Victoria	9	Septiembre	2023-12-09T00:00:00	2024-11-08T08:00:00	6	Velocidad del viento	1.6
130106	7	Sololá	701	Sololá	4	Finca Santa Victoria	9	Septiembre	2023-12-09T00:00:00	2024-11-08T08:00:00	7	Dirección del viento	1.61
130107	7	Sololá	701	Sololá	4	Finca Santa Victoria	9	Septiembre	2023-12-09T00:00:00	2024-11-08T08:00:00	1	Precipitación	0
130108	7	Sololá	701	Sololá	4	Finca Santa Victoria	9	Septiembre	2023-12-09T00:00:00	2024-11-08T08:00:00	8	Radiación solar	238
130109	7	Sololá	701	Sololá	4	Finca Santa Victoria	9	Septiembre	2023-12-09T00:00:00	2024-11-08T09:00:00	2	Temperatura media	17.8
130110	7	Sololá	701	Sololá	4	Finca Santa Victoria	9	Septiembre	2023-12-09T00:00:00	2024-11-08T09:00:00	4	Temperatura máxima	17.8
130111	7	Sololá	701	Sololá	4	Finca Santa Victoria	9	Septiembre	2023-12-09T00:00:00	2024-11-08T09:00:00	3	Temperatura mínima	17
130112	7	Sololá	701	Sololá	4	Finca Santa Victoria	9	Septiembre	2023-12-09T00:00:00	2024-11-08T09:00:00	5	Humedad	79
130113	7	Sololá	701	Sololá	4	Finca Santa Victoria	9	Septiembre	2023-12-09T00:00:00	2024-11-08T09:00:00	6	Velocidad del viento	3.2
130114	7	Sololá	701	Sololá	4	Finca Santa Victoria	9	Septiembre	2023-12-09T00:00:00	2024-11-08T09:00:00	7	Dirección del viento	3.22
130115	7	Sololá	701	Sololá	4	Finca Santa Victoria	9	Septiembre	2023-12-09T00:00:00	2024-11-08T09:00:00	1	Precipitación	0
130116	7	Sololá	701	Sololá	4	Finca Santa Victoria	9	Septiembre	2023-12-09T00:00:00	2024-11-08T09:00:00	8	Radiación solar	338
130117	7	Sololá	701	Sololá	4	Finca Santa Victoria	9	Septiembre	2023-12-09T00:00:00	2024-11-08T10:00:00	2	Temperatura media	19.6
130118	7	Sololá	701	Sololá	4	Finca Santa Victoria	9	Septiembre	2023-12-09T00:00:00	2024-11-08T10:00:00	4	Temperatura máxima	19.8
130119	7	Sololá	701	Sololá	4	Finca Santa Victoria	9	Septiembre	2023-12-09T00:00:00	2024-11-08T10:00:00	3	Temperatura mínima	17.8
130120	7	Sololá	701	Sololá	4	Finca Santa Victoria	9	Septiembre	2023-12-09T00:00:00	2024-11-08T10:00:00	5	Humedad	71
130121	7	Sololá	701	Sololá	4	Finca Santa Victoria	9	Septiembre	2023-12-09T00:00:00	2024-11-08T10:00:00	6	Velocidad del viento	1.6
130122	7	Sololá	701	Sololá	4	Finca Santa Victoria	9	Septiembre	2023-12-09T00:00:00	2024-11-08T10:00:00	7	Dirección del viento	1.61
130123	7	Sololá	701	Sololá	4	Finca Santa Victoria	9	Septiembre	2023-12-09T00:00:00	2024-11-08T10:00:00	1	Precipitación	0
130124	7	Sololá	701	Sololá	4	Finca Santa Victoria	9	Septiembre	2023-12-09T00:00:00	2024-11-08T10:00:00	8	Radiación solar	489
130125	7	Sololá	701	Sololá	4	Finca Santa Victoria	9	Septiembre	2023-12-09T00:00:00	2024-11-08T11:00:00	2	Temperatura media	20.2
130126	7	Sololá	701	Sololá	4	Finca Santa Victoria	9	Septiembre	2023-12-09T00:00:00	2024-11-08T11:00:00	4	Temperatura máxima	20.5
130127	7	Sololá	701	Sololá	4	Finca Santa Victoria	9	Septiembre	2023-12-09T00:00:00	2024-11-08T11:00:00	3	Temperatura mínima	19.7
130128	7	Sololá	701	Sololá	4	Finca Santa Victoria	9	Septiembre	2023-12-09T00:00:00	2024-11-08T11:00:00	5	Humedad	76
130129	7	Sololá	701	Sololá	4	Finca Santa Victoria	9	Septiembre	2023-12-09T00:00:00	2024-11-08T11:00:00	6	Velocidad del viento	3.2
130130	7	Sololá	701	Sololá	4	Finca Santa Victoria	9	Septiembre	2023-12-09T00:00:00	2024-11-08T11:00:00	7	Dirección del viento	3.22
130131	7	Sololá	701	Sololá	4	Finca Santa Victoria	9	Septiembre	2023-12-09T00:00:00	2024-11-08T11:00:00	1	Precipitación	0
130132	7	Sololá	701	Sololá	4	Finca Santa Victoria	9	Septiembre	2023-12-09T00:00:00	2024-11-08T11:00:00	8	Radiación solar	1009
130133	7	Sololá	701	Sololá	4	Finca Santa Victoria	9	Septiembre	2023-12-09T00:00:00	2024-11-08T12:00:00	2	Temperatura media	19.4
130134	7	Sololá	701	Sololá	4	Finca Santa Victoria	9	Septiembre	2023-12-09T00:00:00	2024-11-08T12:00:00	4	Temperatura máxima	20.4
130135	7	Sololá	701	Sololá	4	Finca Santa Victoria	9	Septiembre	2023-12-09T00:00:00	2024-11-08T12:00:00	3	Temperatura mínima	18.6
130136	7	Sololá	701	Sololá	4	Finca Santa Victoria	9	Septiembre	2023-12-09T00:00:00	2024-11-08T12:00:00	5	Humedad	81
130137	7	Sololá	701	Sololá	4	Finca Santa Victoria	9	Septiembre	2023-12-09T00:00:00	2024-11-08T12:00:00	6	Velocidad del viento	3.2
130138	7	Sololá	701	Sololá	4	Finca Santa Victoria	9	Septiembre	2023-12-09T00:00:00	2024-11-08T12:00:00	7	Dirección del viento	3.22
130139	7	Sololá	701	Sololá	4	Finca Santa Victoria	9	Septiembre	2023-12-09T00:00:00	2024-11-08T12:00:00	1	Precipitación	0
130140	7	Sololá	701	Sololá	4	Finca Santa Victoria	9	Septiembre	2023-12-09T00:00:00	2024-11-08T12:00:00	8	Radiación solar	377
130141	7	Sololá	701	Sololá	4	Finca Santa Victoria	9	Septiembre	2023-12-09T00:00:00	2024-11-08T13:00:00	2	Temperatura media	18.7
130142	7	Sololá	701	Sololá	4	Finca Santa Victoria	9	Septiembre	2023-12-09T00:00:00	2024-11-08T13:00:00	4	Temperatura máxima	19.7
130143	7	Sololá	701	Sololá	4	Finca Santa Victoria	9	Septiembre	2023-12-09T00:00:00	2024-11-08T13:00:00	3	Temperatura mínima	18.4
130144	7	Sololá	701	Sololá	4	Finca Santa Victoria	9	Septiembre	2023-12-09T00:00:00	2024-11-08T13:00:00	5	Humedad	87
130145	7	Sololá	701	Sololá	4	Finca Santa Victoria	9	Septiembre	2023-12-09T00:00:00	2024-11-08T13:00:00	6	Velocidad del viento	3.2
130146	7	Sololá	701	Sololá	4	Finca Santa Victoria	9	Septiembre	2023-12-09T00:00:00	2024-11-08T13:00:00	7	Dirección del viento	3.22
130147	7	Sololá	701	Sololá	4	Finca Santa Victoria	9	Septiembre	2023-12-09T00:00:00	2024-11-08T13:00:00	1	Precipitación	0
130148	7	Sololá	701	Sololá	4	Finca Santa Victoria	9	Septiembre	2023-12-09T00:00:00	2024-11-08T13:00:00	8	Radiación solar	202
130149	7	Sololá	701	Sololá	4	Finca Santa Victoria	9	Septiembre	2023-12-09T00:00:00	2024-11-08T14:00:00	2	Temperatura media	18.8
130150	7	Sololá	701	Sololá	4	Finca Santa Victoria	9	Septiembre	2023-12-09T00:00:00	2024-11-08T14:00:00	4	Temperatura máxima	20.9
130151	7	Sololá	701	Sololá	4	Finca Santa Victoria	9	Septiembre	2023-12-09T00:00:00	2024-11-08T14:00:00	3	Temperatura mínima	18.7
130152	7	Sololá	701	Sololá	4	Finca Santa Victoria	9	Septiembre	2023-12-09T00:00:00	2024-11-08T14:00:00	5	Humedad	88
130153	7	Sololá	701	Sololá	4	Finca Santa Victoria	9	Septiembre	2023-12-09T00:00:00	2024-11-08T14:00:00	6	Velocidad del viento	3.2
130154	7	Sololá	701	Sololá	4	Finca Santa Victoria	9	Septiembre	2023-12-09T00:00:00	2024-11-08T14:00:00	7	Dirección del viento	3.22
130155	7	Sololá	701	Sololá	4	Finca Santa Victoria	9	Septiembre	2023-12-09T00:00:00	2024-11-08T14:00:00	1	Precipitación	0
130156	7	Sololá	701	Sololá	4	Finca Santa Victoria	9	Septiembre	2023-12-09T00:00:00	2024-11-08T14:00:00	8	Radiación solar	185
130157	7	Sololá	701	Sololá	4	Finca Santa Victoria	9	Septiembre	2023-12-09T00:00:00	2024-11-08T15:00:00	2	Temperatura media	17.7
130158	7	Sololá	701	Sololá	4	Finca Santa Victoria	9	Septiembre	2023-12-09T00:00:00	2024-11-08T15:00:00	4	Temperatura máxima	18.8
130159	7	Sololá	701	Sololá	4	Finca Santa Victoria	9	Septiembre	2023-12-09T00:00:00	2024-11-08T15:00:00	3	Temperatura mínima	17.5
130160	7	Sololá	701	Sololá	4	Finca Santa Victoria	9	Septiembre	2023-12-09T00:00:00	2024-11-08T15:00:00	5	Humedad	93
130161	7	Sololá	701	Sololá	4	Finca Santa Victoria	9	Septiembre	2023-12-09T00:00:00	2024-11-08T15:00:00	6	Velocidad del viento	3.2
130162	7	Sololá	701	Sololá	4	Finca Santa Victoria	9	Septiembre	2023-12-09T00:00:00	2024-11-08T15:00:00	7	Dirección del viento	3.22
130163	7	Sololá	701	Sololá	4	Finca Santa Victoria	9	Septiembre	2023-12-09T00:00:00	2024-11-08T15:00:00	1	Precipitación	0
130164	7	Sololá	701	Sololá	4	Finca Santa Victoria	9	Septiembre	2023-12-09T00:00:00	2024-11-08T15:00:00	8	Radiación solar	117
130165	7	Sololá	701	Sololá	4	Finca Santa Victoria	9	Septiembre	2023-12-09T00:00:00	2024-11-08T16:00:00	2	Temperatura media	17.2
130166	7	Sololá	701	Sololá	4	Finca Santa Victoria	9	Septiembre	2023-12-09T00:00:00	2024-11-08T16:00:00	4	Temperatura máxima	17.8
130167	7	Sololá	701	Sololá	4	Finca Santa Victoria	9	Septiembre	2023-12-09T00:00:00	2024-11-08T16:00:00	3	Temperatura mínima	17.2
130168	7	Sololá	701	Sololá	4	Finca Santa Victoria	9	Septiembre	2023-12-09T00:00:00	2024-11-08T16:00:00	5	Humedad	95
130169	7	Sololá	701	Sololá	4	Finca Santa Victoria	9	Septiembre	2023-12-09T00:00:00	2024-11-08T16:00:00	6	Velocidad del viento	3.2
130170	7	Sololá	701	Sololá	4	Finca Santa Victoria	9	Septiembre	2023-12-09T00:00:00	2024-11-08T16:00:00	7	Dirección del viento	3.22
130171	7	Sololá	701	Sololá	4	Finca Santa Victoria	9	Septiembre	2023-12-09T00:00:00	2024-11-08T16:00:00	1	Precipitación	0
130172	7	Sololá	701	Sololá	4	Finca Santa Victoria	9	Septiembre	2023-12-09T00:00:00	2024-11-08T16:00:00	8	Radiación solar	85
130173	7	Sololá	701	Sololá	4	Finca Santa Victoria	9	Septiembre	2023-12-09T00:00:00	2024-11-08T17:00:00	2	Temperatura media	16.6
130174	7	Sololá	701	Sololá	4	Finca Santa Victoria	9	Septiembre	2023-12-09T00:00:00	2024-11-08T17:00:00	4	Temperatura máxima	17.2
130175	7	Sololá	701	Sololá	4	Finca Santa Victoria	9	Septiembre	2023-12-09T00:00:00	2024-11-08T17:00:00	3	Temperatura mínima	16.6
130176	7	Sololá	701	Sololá	4	Finca Santa Victoria	9	Septiembre	2023-12-09T00:00:00	2024-11-08T17:00:00	5	Humedad	97
130177	7	Sololá	701	Sololá	4	Finca Santa Victoria	9	Septiembre	2023-12-09T00:00:00	2024-11-08T17:00:00	6	Velocidad del viento	1.6
130178	7	Sololá	701	Sololá	4	Finca Santa Victoria	9	Septiembre	2023-12-09T00:00:00	2024-11-08T17:00:00	7	Dirección del viento	1.61
130179	7	Sololá	701	Sololá	4	Finca Santa Victoria	9	Septiembre	2023-12-09T00:00:00	2024-11-08T17:00:00	1	Precipitación	0.2
130180	7	Sololá	701	Sololá	4	Finca Santa Victoria	9	Septiembre	2023-12-09T00:00:00	2024-11-08T17:00:00	8	Radiación solar	21
130181	7	Sololá	701	Sololá	4	Finca Santa Victoria	9	Septiembre	2023-12-09T00:00:00	2024-11-08T18:00:00	2	Temperatura media	16.3
130182	7	Sololá	701	Sololá	4	Finca Santa Victoria	9	Septiembre	2023-12-09T00:00:00	2024-11-08T18:00:00	4	Temperatura máxima	16.6
130183	7	Sololá	701	Sololá	4	Finca Santa Victoria	9	Septiembre	2023-12-09T00:00:00	2024-11-08T18:00:00	3	Temperatura mínima	16.3
130184	7	Sololá	701	Sololá	4	Finca Santa Victoria	9	Septiembre	2023-12-09T00:00:00	2024-11-08T18:00:00	5	Humedad	98
130185	7	Sololá	701	Sololá	4	Finca Santa Victoria	9	Septiembre	2023-12-09T00:00:00	2024-11-08T18:00:00	6	Velocidad del viento	1.6
130186	7	Sololá	701	Sololá	4	Finca Santa Victoria	9	Septiembre	2023-12-09T00:00:00	2024-11-08T18:00:00	7	Dirección del viento	1.61
130187	7	Sololá	701	Sololá	4	Finca Santa Victoria	9	Septiembre	2023-12-09T00:00:00	2024-11-08T18:00:00	1	Precipitación	0
130188	7	Sololá	701	Sololá	4	Finca Santa Victoria	9	Septiembre	2023-12-09T00:00:00	2024-11-08T18:00:00	8	Radiación solar	15
130189	7	Sololá	701	Sololá	4	Finca Santa Victoria	9	Septiembre	2023-12-09T00:00:00	2024-11-08T19:00:00	2	Temperatura media	15.7
130190	7	Sololá	701	Sololá	4	Finca Santa Victoria	9	Septiembre	2023-12-09T00:00:00	2024-11-08T19:00:00	4	Temperatura máxima	16.3
130191	7	Sololá	701	Sololá	4	Finca Santa Victoria	9	Septiembre	2023-12-09T00:00:00	2024-11-08T19:00:00	3	Temperatura mínima	15.7
130192	7	Sololá	701	Sololá	4	Finca Santa Victoria	9	Septiembre	2023-12-09T00:00:00	2024-11-08T19:00:00	5	Humedad	97
130193	7	Sololá	701	Sololá	4	Finca Santa Victoria	9	Septiembre	2023-12-09T00:00:00	2024-11-08T19:00:00	6	Velocidad del viento	0
130194	7	Sololá	701	Sololá	4	Finca Santa Victoria	9	Septiembre	2023-12-09T00:00:00	2024-11-08T19:00:00	7	Dirección del viento	0
130195	7	Sololá	701	Sololá	4	Finca Santa Victoria	9	Septiembre	2023-12-09T00:00:00	2024-11-08T19:00:00	1	Precipitación	0
130196	7	Sololá	701	Sololá	4	Finca Santa Victoria	9	Septiembre	2023-12-09T00:00:00	2024-11-08T19:00:00	8	Radiación solar	0
130197	7	Sololá	701	Sololá	4	Finca Santa Victoria	9	Septiembre	2023-12-09T00:00:00	2024-11-08T20:00:00	2	Temperatura media	15.4
130198	7	Sololá	701	Sololá	4	Finca Santa Victoria	9	Septiembre	2023-12-09T00:00:00	2024-11-08T20:00:00	4	Temperatura máxima	15.7
130199	7	Sololá	701	Sololá	4	Finca Santa Victoria	9	Septiembre	2023-12-09T00:00:00	2024-11-08T20:00:00	3	Temperatura mínima	15.3
130200	7	Sololá	701	Sololá	4	Finca Santa Victoria	9	Septiembre	2023-12-09T00:00:00	2024-11-08T20:00:00	5	Humedad	98
130201	7	Sololá	701	Sololá	4	Finca Santa Victoria	9	Septiembre	2023-12-09T00:00:00	2024-11-08T20:00:00	6	Velocidad del viento	0
130202	7	Sololá	701	Sololá	4	Finca Santa Victoria	9	Septiembre	2023-12-09T00:00:00	2024-11-08T20:00:00	7	Dirección del viento	0
130203	7	Sololá	701	Sololá	4	Finca Santa Victoria	9	Septiembre	2023-12-09T00:00:00	2024-11-08T20:00:00	1	Precipitación	0
130204	7	Sololá	701	Sololá	4	Finca Santa Victoria	9	Septiembre	2023-12-09T00:00:00	2024-11-08T20:00:00	8	Radiación solar	0
130205	7	Sololá	701	Sololá	4	Finca Santa Victoria	9	Septiembre	2023-12-09T00:00:00	2024-11-08T21:00:00	2	Temperatura media	14.9
130206	7	Sololá	701	Sololá	4	Finca Santa Victoria	9	Septiembre	2023-12-09T00:00:00	2024-11-08T21:00:00	4	Temperatura máxima	15.4
130207	7	Sololá	701	Sololá	4	Finca Santa Victoria	9	Septiembre	2023-12-09T00:00:00	2024-11-08T21:00:00	3	Temperatura mínima	14.9
130208	7	Sololá	701	Sololá	4	Finca Santa Victoria	9	Septiembre	2023-12-09T00:00:00	2024-11-08T21:00:00	5	Humedad	98
130209	7	Sololá	701	Sololá	4	Finca Santa Victoria	9	Septiembre	2023-12-09T00:00:00	2024-11-08T21:00:00	6	Velocidad del viento	0
130210	7	Sololá	701	Sololá	4	Finca Santa Victoria	9	Septiembre	2023-12-09T00:00:00	2024-11-08T21:00:00	7	Dirección del viento	0
130211	7	Sololá	701	Sololá	4	Finca Santa Victoria	9	Septiembre	2023-12-09T00:00:00	2024-11-08T21:00:00	1	Precipitación	0
130212	7	Sololá	701	Sololá	4	Finca Santa Victoria	9	Septiembre	2023-12-09T00:00:00	2024-11-08T21:00:00	8	Radiación solar	0
130213	7	Sololá	701	Sololá	4	Finca Santa Victoria	9	Septiembre	2023-12-09T00:00:00	2024-11-08T22:00:00	2	Temperatura media	14.8
130214	7	Sololá	701	Sololá	4	Finca Santa Victoria	9	Septiembre	2023-12-09T00:00:00	2024-11-08T22:00:00	4	Temperatura máxima	15
130215	7	Sololá	701	Sololá	4	Finca Santa Victoria	9	Septiembre	2023-12-09T00:00:00	2024-11-08T22:00:00	3	Temperatura mínima	14.7
130216	7	Sololá	701	Sololá	4	Finca Santa Victoria	9	Septiembre	2023-12-09T00:00:00	2024-11-08T22:00:00	5	Humedad	97
130217	7	Sololá	701	Sololá	4	Finca Santa Victoria	9	Septiembre	2023-12-09T00:00:00	2024-11-08T22:00:00	6	Velocidad del viento	0
130218	7	Sololá	701	Sololá	4	Finca Santa Victoria	9	Septiembre	2023-12-09T00:00:00	2024-11-08T22:00:00	7	Dirección del viento	0
130219	7	Sololá	701	Sololá	4	Finca Santa Victoria	9	Septiembre	2023-12-09T00:00:00	2024-11-08T22:00:00	1	Precipitación	0
130220	7	Sololá	701	Sololá	4	Finca Santa Victoria	9	Septiembre	2023-12-09T00:00:00	2024-11-08T22:00:00	8	Radiación solar	0
130221	7	Sololá	701	Sololá	4	Finca Santa Victoria	9	Septiembre	2023-12-09T00:00:00	2024-11-08T23:00:00	2	Temperatura media	14.3
130222	7	Sololá	701	Sololá	4	Finca Santa Victoria	9	Septiembre	2023-12-09T00:00:00	2024-11-08T23:00:00	4	Temperatura máxima	14.8
130223	7	Sololá	701	Sololá	4	Finca Santa Victoria	9	Septiembre	2023-12-09T00:00:00	2024-11-08T23:00:00	3	Temperatura mínima	14.2
130224	7	Sololá	701	Sololá	4	Finca Santa Victoria	9	Septiembre	2023-12-09T00:00:00	2024-11-08T23:00:00	5	Humedad	98
130225	7	Sololá	701	Sololá	4	Finca Santa Victoria	9	Septiembre	2023-12-09T00:00:00	2024-11-08T23:00:00	6	Velocidad del viento	0
130226	7	Sololá	701	Sololá	4	Finca Santa Victoria	9	Septiembre	2023-12-09T00:00:00	2024-11-08T23:00:00	7	Dirección del viento	0
130227	7	Sololá	701	Sololá	4	Finca Santa Victoria	9	Septiembre	2023-12-09T00:00:00	2024-11-08T23:00:00	1	Precipitación	0
130228	7	Sololá	701	Sololá	4	Finca Santa Victoria	9	Septiembre	2023-12-09T00:00:00	2024-11-08T23:00:00	8	Radiación solar	0
130229	7	Sololá	701	Sololá	4	Finca Santa Victoria	9	Septiembre	2023-09-13T00:00:00	2024-11-08T00:00:00	2	Temperatura media	14.2
130230	7	Sololá	701	Sololá	4	Finca Santa Victoria	9	Septiembre	2023-09-13T00:00:00	2024-11-08T00:00:00	4	Temperatura máxima	14.3
130231	7	Sololá	701	Sololá	4	Finca Santa Victoria	9	Septiembre	2023-09-13T00:00:00	2024-11-08T00:00:00	3	Temperatura mínima	14
130232	7	Sololá	701	Sololá	4	Finca Santa Victoria	9	Septiembre	2023-09-13T00:00:00	2024-11-08T00:00:00	5	Humedad	98
130233	7	Sololá	701	Sololá	4	Finca Santa Victoria	9	Septiembre	2023-09-13T00:00:00	2024-11-08T00:00:00	6	Velocidad del viento	0
130234	7	Sololá	701	Sololá	4	Finca Santa Victoria	9	Septiembre	2023-09-13T00:00:00	2024-11-08T00:00:00	7	Dirección del viento	0
130235	7	Sololá	701	Sololá	4	Finca Santa Victoria	9	Septiembre	2023-09-13T00:00:00	2024-11-08T00:00:00	1	Precipitación	0
130236	7	Sololá	701	Sololá	4	Finca Santa Victoria	9	Septiembre	2023-09-13T00:00:00	2024-11-08T00:00:00	8	Radiación solar	0
130237	7	Sololá	701	Sololá	4	Finca Santa Victoria	9	Septiembre	2023-09-13T00:00:00	2024-11-08T01:00:00	2	Temperatura media	14.3
130238	7	Sololá	701	Sololá	4	Finca Santa Victoria	9	Septiembre	2023-09-13T00:00:00	2024-11-08T01:00:00	4	Temperatura máxima	14.3
130239	7	Sololá	701	Sololá	4	Finca Santa Victoria	9	Septiembre	2023-09-13T00:00:00	2024-11-08T01:00:00	3	Temperatura mínima	14.2
130240	7	Sololá	701	Sololá	4	Finca Santa Victoria	9	Septiembre	2023-09-13T00:00:00	2024-11-08T01:00:00	5	Humedad	98
130241	7	Sololá	701	Sololá	4	Finca Santa Victoria	9	Septiembre	2023-09-13T00:00:00	2024-11-08T01:00:00	6	Velocidad del viento	0
130242	7	Sololá	701	Sololá	4	Finca Santa Victoria	9	Septiembre	2023-09-13T00:00:00	2024-11-08T01:00:00	7	Dirección del viento	0
130243	7	Sololá	701	Sololá	4	Finca Santa Victoria	9	Septiembre	2023-09-13T00:00:00	2024-11-08T01:00:00	1	Precipitación	0
130244	7	Sololá	701	Sololá	4	Finca Santa Victoria	9	Septiembre	2023-09-13T00:00:00	2024-11-08T01:00:00	8	Radiación solar	0
130245	7	Sololá	701	Sololá	4	Finca Santa Victoria	9	Septiembre	2023-09-13T00:00:00	2024-11-08T02:00:00	2	Temperatura media	14.2
130246	7	Sololá	701	Sololá	4	Finca Santa Victoria	9	Septiembre	2023-09-13T00:00:00	2024-11-08T02:00:00	4	Temperatura máxima	14.3
130247	7	Sololá	701	Sololá	4	Finca Santa Victoria	9	Septiembre	2023-09-13T00:00:00	2024-11-08T02:00:00	3	Temperatura mínima	14.2
130248	7	Sololá	701	Sololá	4	Finca Santa Victoria	9	Septiembre	2023-09-13T00:00:00	2024-11-08T02:00:00	5	Humedad	98
130249	7	Sololá	701	Sololá	4	Finca Santa Victoria	9	Septiembre	2023-09-13T00:00:00	2024-11-08T02:00:00	6	Velocidad del viento	0
130250	7	Sololá	701	Sololá	4	Finca Santa Victoria	9	Septiembre	2023-09-13T00:00:00	2024-11-08T02:00:00	7	Dirección del viento	0
130251	7	Sololá	701	Sololá	4	Finca Santa Victoria	9	Septiembre	2023-09-13T00:00:00	2024-11-08T02:00:00	1	Precipitación	6
130252	7	Sololá	701	Sololá	4	Finca Santa Victoria	9	Septiembre	2023-09-13T00:00:00	2024-11-08T02:00:00	8	Radiación solar	0
130253	7	Sololá	701	Sololá	4	Finca Santa Victoria	9	Septiembre	2023-09-13T00:00:00	2024-11-08T03:00:00	2	Temperatura media	13.7
130254	7	Sololá	701	Sololá	4	Finca Santa Victoria	9	Septiembre	2023-09-13T00:00:00	2024-11-08T03:00:00	4	Temperatura máxima	14.2
130255	7	Sololá	701	Sololá	4	Finca Santa Victoria	9	Septiembre	2023-09-13T00:00:00	2024-11-08T03:00:00	3	Temperatura mínima	13.7
130256	7	Sololá	701	Sololá	4	Finca Santa Victoria	9	Septiembre	2023-09-13T00:00:00	2024-11-08T03:00:00	5	Humedad	98
130257	7	Sololá	701	Sololá	4	Finca Santa Victoria	9	Septiembre	2023-09-13T00:00:00	2024-11-08T03:00:00	6	Velocidad del viento	0
130258	7	Sololá	701	Sololá	4	Finca Santa Victoria	9	Septiembre	2023-09-13T00:00:00	2024-11-08T03:00:00	7	Dirección del viento	0
130259	7	Sololá	701	Sololá	4	Finca Santa Victoria	9	Septiembre	2023-09-13T00:00:00	2024-11-08T03:00:00	1	Precipitación	4.4
130260	7	Sololá	701	Sololá	4	Finca Santa Victoria	9	Septiembre	2023-09-13T00:00:00	2024-11-08T03:00:00	8	Radiación solar	0
130261	7	Sololá	701	Sololá	4	Finca Santa Victoria	9	Septiembre	2023-09-13T00:00:00	2024-11-08T04:00:00	2	Temperatura media	13.5
130262	7	Sololá	701	Sololá	4	Finca Santa Victoria	9	Septiembre	2023-09-13T00:00:00	2024-11-08T04:00:00	4	Temperatura máxima	13.7
130263	7	Sololá	701	Sololá	4	Finca Santa Victoria	9	Septiembre	2023-09-13T00:00:00	2024-11-08T04:00:00	3	Temperatura mínima	13.4
130264	7	Sololá	701	Sololá	4	Finca Santa Victoria	9	Septiembre	2023-09-13T00:00:00	2024-11-08T04:00:00	5	Humedad	98
130265	7	Sololá	701	Sololá	4	Finca Santa Victoria	9	Septiembre	2023-09-13T00:00:00	2024-11-08T04:00:00	6	Velocidad del viento	0
130266	7	Sololá	701	Sololá	4	Finca Santa Victoria	9	Septiembre	2023-09-13T00:00:00	2024-11-08T04:00:00	7	Dirección del viento	0
130267	7	Sololá	701	Sololá	4	Finca Santa Victoria	9	Septiembre	2023-09-13T00:00:00	2024-11-08T04:00:00	1	Precipitación	0.4
130268	7	Sololá	701	Sololá	4	Finca Santa Victoria	9	Septiembre	2023-09-13T00:00:00	2024-11-08T04:00:00	8	Radiación solar	0
130269	7	Sololá	701	Sololá	4	Finca Santa Victoria	9	Septiembre	2023-09-13T00:00:00	2024-11-08T05:00:00	2	Temperatura media	13.4
130270	7	Sololá	701	Sololá	4	Finca Santa Victoria	9	Septiembre	2023-09-13T00:00:00	2024-11-08T05:00:00	4	Temperatura máxima	13.5
130271	7	Sololá	701	Sololá	4	Finca Santa Victoria	9	Septiembre	2023-09-13T00:00:00	2024-11-08T05:00:00	3	Temperatura mínima	13.3
130272	7	Sololá	701	Sololá	4	Finca Santa Victoria	9	Septiembre	2023-09-13T00:00:00	2024-11-08T05:00:00	5	Humedad	98
130273	7	Sololá	701	Sololá	4	Finca Santa Victoria	9	Septiembre	2023-09-13T00:00:00	2024-11-08T05:00:00	6	Velocidad del viento	0
130274	7	Sololá	701	Sololá	4	Finca Santa Victoria	9	Septiembre	2023-09-13T00:00:00	2024-11-08T05:00:00	7	Dirección del viento	0
130275	7	Sololá	701	Sololá	4	Finca Santa Victoria	9	Septiembre	2023-09-13T00:00:00	2024-11-08T05:00:00	1	Precipitación	0
130276	7	Sololá	701	Sololá	4	Finca Santa Victoria	9	Septiembre	2023-09-13T00:00:00	2024-11-08T05:00:00	8	Radiación solar	0
130277	7	Sololá	701	Sololá	4	Finca Santa Victoria	9	Septiembre	2023-09-13T00:00:00	2024-11-08T06:00:00	2	Temperatura media	13.6
130278	7	Sololá	701	Sololá	4	Finca Santa Victoria	9	Septiembre	2023-09-13T00:00:00	2024-11-08T06:00:00	4	Temperatura máxima	13.6
130279	7	Sololá	701	Sololá	4	Finca Santa Victoria	9	Septiembre	2023-09-13T00:00:00	2024-11-08T06:00:00	3	Temperatura mínima	13.3
130280	7	Sololá	701	Sololá	4	Finca Santa Victoria	9	Septiembre	2023-09-13T00:00:00	2024-11-08T06:00:00	5	Humedad	97
130281	7	Sololá	701	Sololá	4	Finca Santa Victoria	9	Septiembre	2023-09-13T00:00:00	2024-11-08T06:00:00	6	Velocidad del viento	1.6
130282	7	Sololá	701	Sololá	4	Finca Santa Victoria	9	Septiembre	2023-09-13T00:00:00	2024-11-08T06:00:00	7	Dirección del viento	1.61
130283	7	Sololá	701	Sololá	4	Finca Santa Victoria	9	Septiembre	2023-09-13T00:00:00	2024-11-08T06:00:00	1	Precipitación	0
130284	7	Sololá	701	Sololá	4	Finca Santa Victoria	9	Septiembre	2023-09-13T00:00:00	2024-11-08T06:00:00	8	Radiación solar	0
130285	7	Sololá	701	Sololá	4	Finca Santa Victoria	9	Septiembre	2023-09-13T00:00:00	2024-11-08T07:00:00	2	Temperatura media	13.8
130286	7	Sololá	701	Sololá	4	Finca Santa Victoria	9	Septiembre	2023-09-13T00:00:00	2024-11-08T07:00:00	4	Temperatura máxima	13.8
130287	7	Sololá	701	Sololá	4	Finca Santa Victoria	9	Septiembre	2023-09-13T00:00:00	2024-11-08T07:00:00	3	Temperatura mínima	13.6
130288	7	Sololá	701	Sololá	4	Finca Santa Victoria	9	Septiembre	2023-09-13T00:00:00	2024-11-08T07:00:00	5	Humedad	94
130289	7	Sololá	701	Sololá	4	Finca Santa Victoria	9	Septiembre	2023-09-13T00:00:00	2024-11-08T07:00:00	6	Velocidad del viento	1.6
130290	7	Sololá	701	Sololá	4	Finca Santa Victoria	9	Septiembre	2023-09-13T00:00:00	2024-11-08T07:00:00	7	Dirección del viento	1.61
130291	7	Sololá	701	Sololá	4	Finca Santa Victoria	9	Septiembre	2023-09-13T00:00:00	2024-11-08T07:00:00	1	Precipitación	0
130292	7	Sololá	701	Sololá	4	Finca Santa Victoria	9	Septiembre	2023-09-13T00:00:00	2024-11-08T07:00:00	8	Radiación solar	24
130293	7	Sololá	701	Sololá	4	Finca Santa Victoria	9	Septiembre	2023-09-13T00:00:00	2024-11-08T08:00:00	2	Temperatura media	15.8
130294	7	Sololá	701	Sololá	4	Finca Santa Victoria	9	Septiembre	2023-09-13T00:00:00	2024-11-08T08:00:00	4	Temperatura máxima	15.8
130295	7	Sololá	701	Sololá	4	Finca Santa Victoria	9	Septiembre	2023-09-13T00:00:00	2024-11-08T08:00:00	3	Temperatura mínima	13.8
130296	7	Sololá	701	Sololá	4	Finca Santa Victoria	9	Septiembre	2023-09-13T00:00:00	2024-11-08T08:00:00	5	Humedad	90
130297	7	Sololá	701	Sololá	4	Finca Santa Victoria	9	Septiembre	2023-09-13T00:00:00	2024-11-08T08:00:00	6	Velocidad del viento	1.6
130298	7	Sololá	701	Sololá	4	Finca Santa Victoria	9	Septiembre	2023-09-13T00:00:00	2024-11-08T08:00:00	7	Dirección del viento	1.61
130299	7	Sololá	701	Sololá	4	Finca Santa Victoria	9	Septiembre	2023-09-13T00:00:00	2024-11-08T08:00:00	1	Precipitación	0
130300	7	Sololá	701	Sololá	4	Finca Santa Victoria	9	Septiembre	2023-09-13T00:00:00	2024-11-08T08:00:00	8	Radiación solar	119
130301	7	Sololá	701	Sololá	4	Finca Santa Victoria	9	Septiembre	2023-09-13T00:00:00	2024-11-08T09:00:00	2	Temperatura media	19.1
130302	7	Sololá	701	Sololá	4	Finca Santa Victoria	9	Septiembre	2023-09-13T00:00:00	2024-11-08T09:00:00	4	Temperatura máxima	19.4
130303	7	Sololá	701	Sololá	4	Finca Santa Victoria	9	Septiembre	2023-09-13T00:00:00	2024-11-08T09:00:00	3	Temperatura mínima	15.8
130304	7	Sololá	701	Sololá	4	Finca Santa Victoria	9	Septiembre	2023-09-13T00:00:00	2024-11-08T09:00:00	5	Humedad	82
130305	7	Sololá	701	Sololá	4	Finca Santa Victoria	9	Septiembre	2023-09-13T00:00:00	2024-11-08T09:00:00	6	Velocidad del viento	1.6
130306	7	Sololá	701	Sololá	4	Finca Santa Victoria	9	Septiembre	2023-09-13T00:00:00	2024-11-08T09:00:00	7	Dirección del viento	1.61
130307	7	Sololá	701	Sololá	4	Finca Santa Victoria	9	Septiembre	2023-09-13T00:00:00	2024-11-08T09:00:00	1	Precipitación	0.2
130308	7	Sololá	701	Sololá	4	Finca Santa Victoria	9	Septiembre	2023-09-13T00:00:00	2024-11-08T09:00:00	8	Radiación solar	345
130309	7	Sololá	701	Sololá	4	Finca Santa Victoria	9	Septiembre	2023-09-13T00:00:00	2024-11-08T10:00:00	2	Temperatura media	18.3
130310	7	Sololá	701	Sololá	4	Finca Santa Victoria	9	Septiembre	2023-09-13T00:00:00	2024-11-08T10:00:00	4	Temperatura máxima	19.1
130311	7	Sololá	701	Sololá	4	Finca Santa Victoria	9	Septiembre	2023-09-13T00:00:00	2024-11-08T10:00:00	3	Temperatura mínima	17.9
130312	7	Sololá	701	Sololá	4	Finca Santa Victoria	9	Septiembre	2023-09-13T00:00:00	2024-11-08T10:00:00	5	Humedad	89
130313	7	Sololá	701	Sololá	4	Finca Santa Victoria	9	Septiembre	2023-09-13T00:00:00	2024-11-08T10:00:00	6	Velocidad del viento	3.2
130314	7	Sololá	701	Sololá	4	Finca Santa Victoria	9	Septiembre	2023-09-13T00:00:00	2024-11-08T10:00:00	7	Dirección del viento	3.22
130315	7	Sololá	701	Sololá	4	Finca Santa Victoria	9	Septiembre	2023-09-13T00:00:00	2024-11-08T10:00:00	1	Precipitación	0
130316	7	Sololá	701	Sololá	4	Finca Santa Victoria	9	Septiembre	2023-09-13T00:00:00	2024-11-08T10:00:00	8	Radiación solar	365
130317	7	Sololá	701	Sololá	4	Finca Santa Victoria	9	Septiembre	2023-09-13T00:00:00	2024-11-08T11:00:00	2	Temperatura media	19.1
130318	7	Sololá	701	Sololá	4	Finca Santa Victoria	9	Septiembre	2023-09-13T00:00:00	2024-11-08T11:00:00	4	Temperatura máxima	19.7
130319	7	Sololá	701	Sololá	4	Finca Santa Victoria	9	Septiembre	2023-09-13T00:00:00	2024-11-08T11:00:00	3	Temperatura mínima	18.3
130320	7	Sololá	701	Sololá	4	Finca Santa Victoria	9	Septiembre	2023-09-13T00:00:00	2024-11-08T11:00:00	5	Humedad	86
130321	7	Sololá	701	Sololá	4	Finca Santa Victoria	9	Septiembre	2023-09-13T00:00:00	2024-11-08T11:00:00	6	Velocidad del viento	3.2
130322	7	Sololá	701	Sololá	4	Finca Santa Victoria	9	Septiembre	2023-09-13T00:00:00	2024-11-08T11:00:00	7	Dirección del viento	3.22
130323	7	Sololá	701	Sololá	4	Finca Santa Victoria	9	Septiembre	2023-09-13T00:00:00	2024-11-08T11:00:00	1	Precipitación	0
130324	7	Sololá	701	Sololá	4	Finca Santa Victoria	9	Septiembre	2023-09-13T00:00:00	2024-11-08T11:00:00	8	Radiación solar	565
130325	7	Sololá	701	Sololá	4	Finca Santa Victoria	9	Septiembre	2023-09-13T00:00:00	2024-11-08T12:00:00	2	Temperatura media	19.1
130326	7	Sololá	701	Sololá	4	Finca Santa Victoria	9	Septiembre	2023-09-13T00:00:00	2024-11-08T12:00:00	4	Temperatura máxima	19.1
130327	7	Sololá	701	Sololá	4	Finca Santa Victoria	9	Septiembre	2023-09-13T00:00:00	2024-11-08T12:00:00	3	Temperatura mínima	17.9
130328	7	Sololá	701	Sololá	4	Finca Santa Victoria	9	Septiembre	2023-09-13T00:00:00	2024-11-08T12:00:00	5	Humedad	87
130329	7	Sololá	701	Sololá	4	Finca Santa Victoria	9	Septiembre	2023-09-13T00:00:00	2024-11-08T12:00:00	6	Velocidad del viento	3.2
130330	7	Sololá	701	Sololá	4	Finca Santa Victoria	9	Septiembre	2023-09-13T00:00:00	2024-11-08T12:00:00	7	Dirección del viento	3.22
130331	7	Sololá	701	Sololá	4	Finca Santa Victoria	9	Septiembre	2023-09-13T00:00:00	2024-11-08T12:00:00	1	Precipitación	0
130332	7	Sololá	701	Sololá	4	Finca Santa Victoria	9	Septiembre	2023-09-13T00:00:00	2024-11-08T12:00:00	8	Radiación solar	158
130333	7	Sololá	701	Sololá	4	Finca Santa Victoria	9	Septiembre	2023-09-13T00:00:00	2024-11-08T13:00:00	2	Temperatura media	17.9
130334	7	Sololá	701	Sololá	4	Finca Santa Victoria	9	Septiembre	2023-09-13T00:00:00	2024-11-08T13:00:00	4	Temperatura máxima	19.9
130335	7	Sololá	701	Sololá	4	Finca Santa Victoria	9	Septiembre	2023-09-13T00:00:00	2024-11-08T13:00:00	3	Temperatura mínima	17.9
130336	7	Sololá	701	Sololá	4	Finca Santa Victoria	9	Septiembre	2023-09-13T00:00:00	2024-11-08T13:00:00	5	Humedad	93
130337	7	Sololá	701	Sololá	4	Finca Santa Victoria	9	Septiembre	2023-09-13T00:00:00	2024-11-08T13:00:00	6	Velocidad del viento	3.2
130338	7	Sololá	701	Sololá	4	Finca Santa Victoria	9	Septiembre	2023-09-13T00:00:00	2024-11-08T13:00:00	7	Dirección del viento	3.22
130339	7	Sololá	701	Sololá	4	Finca Santa Victoria	9	Septiembre	2023-09-13T00:00:00	2024-11-08T13:00:00	1	Precipitación	0
130340	7	Sololá	701	Sololá	4	Finca Santa Victoria	9	Septiembre	2023-09-13T00:00:00	2024-11-08T13:00:00	8	Radiación solar	157
130341	7	Sololá	701	Sololá	4	Finca Santa Victoria	9	Septiembre	2023-09-13T00:00:00	2024-11-08T14:00:00	2	Temperatura media	17.5
130342	7	Sololá	701	Sololá	4	Finca Santa Victoria	9	Septiembre	2023-09-13T00:00:00	2024-11-08T14:00:00	4	Temperatura máxima	17.9
130343	7	Sololá	701	Sololá	4	Finca Santa Victoria	9	Septiembre	2023-09-13T00:00:00	2024-11-08T14:00:00	3	Temperatura mínima	17.1
130344	7	Sololá	701	Sololá	4	Finca Santa Victoria	9	Septiembre	2023-09-13T00:00:00	2024-11-08T14:00:00	5	Humedad	96
130345	7	Sololá	701	Sololá	4	Finca Santa Victoria	9	Septiembre	2023-09-13T00:00:00	2024-11-08T14:00:00	6	Velocidad del viento	3.2
130346	7	Sololá	701	Sololá	4	Finca Santa Victoria	9	Septiembre	2023-09-13T00:00:00	2024-11-08T14:00:00	7	Dirección del viento	3.22
130347	7	Sololá	701	Sololá	4	Finca Santa Victoria	9	Septiembre	2023-09-13T00:00:00	2024-11-08T14:00:00	1	Precipitación	0
130348	7	Sololá	701	Sololá	4	Finca Santa Victoria	9	Septiembre	2023-09-13T00:00:00	2024-11-08T14:00:00	8	Radiación solar	109
130349	7	Sololá	701	Sololá	4	Finca Santa Victoria	9	Septiembre	2023-09-13T00:00:00	2024-11-08T15:00:00	2	Temperatura media	16.4
130350	7	Sololá	701	Sololá	4	Finca Santa Victoria	9	Septiembre	2023-09-13T00:00:00	2024-11-08T15:00:00	4	Temperatura máxima	17.6
130351	7	Sololá	701	Sololá	4	Finca Santa Victoria	9	Septiembre	2023-09-13T00:00:00	2024-11-08T15:00:00	3	Temperatura mínima	16.4
130352	7	Sololá	701	Sololá	4	Finca Santa Victoria	9	Septiembre	2023-09-13T00:00:00	2024-11-08T15:00:00	5	Humedad	96
130353	7	Sololá	701	Sololá	4	Finca Santa Victoria	9	Septiembre	2023-09-13T00:00:00	2024-11-08T15:00:00	6	Velocidad del viento	1.6
130354	7	Sololá	701	Sololá	4	Finca Santa Victoria	9	Septiembre	2023-09-13T00:00:00	2024-11-08T15:00:00	7	Dirección del viento	1.61
130355	7	Sololá	701	Sololá	4	Finca Santa Victoria	9	Septiembre	2023-09-13T00:00:00	2024-11-08T15:00:00	1	Precipitación	1.2
130356	7	Sololá	701	Sololá	4	Finca Santa Victoria	9	Septiembre	2023-09-13T00:00:00	2024-11-08T15:00:00	8	Radiación solar	37
130357	7	Sololá	701	Sololá	4	Finca Santa Victoria	9	Septiembre	2023-09-13T00:00:00	2024-11-08T16:00:00	2	Temperatura media	16.1
130358	7	Sololá	701	Sololá	4	Finca Santa Victoria	9	Septiembre	2023-09-13T00:00:00	2024-11-08T16:00:00	4	Temperatura máxima	16.5
130359	7	Sololá	701	Sololá	4	Finca Santa Victoria	9	Septiembre	2023-09-13T00:00:00	2024-11-08T16:00:00	3	Temperatura mínima	16
130360	7	Sololá	701	Sololá	4	Finca Santa Victoria	9	Septiembre	2023-09-13T00:00:00	2024-11-08T16:00:00	5	Humedad	98
130361	7	Sololá	701	Sololá	4	Finca Santa Victoria	9	Septiembre	2023-09-13T00:00:00	2024-11-08T16:00:00	6	Velocidad del viento	1.6
130362	7	Sololá	701	Sololá	4	Finca Santa Victoria	9	Septiembre	2023-09-13T00:00:00	2024-11-08T16:00:00	7	Dirección del viento	1.61
130363	7	Sololá	701	Sololá	4	Finca Santa Victoria	9	Septiembre	2023-09-13T00:00:00	2024-11-08T16:00:00	1	Precipitación	0
130364	7	Sololá	701	Sololá	4	Finca Santa Victoria	9	Septiembre	2023-09-13T00:00:00	2024-11-08T16:00:00	8	Radiación solar	25
130365	7	Sololá	701	Sololá	4	Finca Santa Victoria	9	Septiembre	2023-09-13T00:00:00	2024-11-08T17:00:00	2	Temperatura media	16
130366	7	Sololá	701	Sololá	4	Finca Santa Victoria	9	Septiembre	2023-09-13T00:00:00	2024-11-08T17:00:00	4	Temperatura máxima	16.2
130367	7	Sololá	701	Sololá	4	Finca Santa Victoria	9	Septiembre	2023-09-13T00:00:00	2024-11-08T17:00:00	3	Temperatura mínima	15.9
130368	7	Sololá	701	Sololá	4	Finca Santa Victoria	9	Septiembre	2023-09-13T00:00:00	2024-11-08T17:00:00	5	Humedad	98
130369	7	Sololá	701	Sololá	4	Finca Santa Victoria	9	Septiembre	2023-09-13T00:00:00	2024-11-08T17:00:00	6	Velocidad del viento	1.6
130370	7	Sololá	701	Sololá	4	Finca Santa Victoria	9	Septiembre	2023-09-13T00:00:00	2024-11-08T17:00:00	7	Dirección del viento	1.61
130371	7	Sololá	701	Sololá	4	Finca Santa Victoria	9	Septiembre	2023-09-13T00:00:00	2024-11-08T17:00:00	1	Precipitación	0
130372	7	Sololá	701	Sololá	4	Finca Santa Victoria	9	Septiembre	2023-09-13T00:00:00	2024-11-08T17:00:00	8	Radiación solar	30
130373	7	Sololá	701	Sololá	4	Finca Santa Victoria	9	Septiembre	2023-09-13T00:00:00	2024-11-08T18:00:00	2	Temperatura media	15.8
130374	7	Sololá	701	Sololá	4	Finca Santa Victoria	9	Septiembre	2023-09-13T00:00:00	2024-11-08T18:00:00	4	Temperatura máxima	16.1
130375	7	Sololá	701	Sololá	4	Finca Santa Victoria	9	Septiembre	2023-09-13T00:00:00	2024-11-08T18:00:00	3	Temperatura mínima	15.8
130376	7	Sololá	701	Sololá	4	Finca Santa Victoria	9	Septiembre	2023-09-13T00:00:00	2024-11-08T18:00:00	5	Humedad	99
130377	7	Sololá	701	Sololá	4	Finca Santa Victoria	9	Septiembre	2023-09-13T00:00:00	2024-11-08T18:00:00	6	Velocidad del viento	0
130378	7	Sololá	701	Sololá	4	Finca Santa Victoria	9	Septiembre	2023-09-13T00:00:00	2024-11-08T18:00:00	7	Dirección del viento	0
130379	7	Sololá	701	Sololá	4	Finca Santa Victoria	9	Septiembre	2023-09-13T00:00:00	2024-11-08T18:00:00	1	Precipitación	1.8
130380	7	Sololá	701	Sololá	4	Finca Santa Victoria	9	Septiembre	2023-09-13T00:00:00	2024-11-08T18:00:00	8	Radiación solar	16
130381	7	Sololá	701	Sololá	4	Finca Santa Victoria	9	Septiembre	2023-09-13T00:00:00	2024-11-08T19:00:00	2	Temperatura media	15.6
130382	7	Sololá	701	Sololá	4	Finca Santa Victoria	9	Septiembre	2023-09-13T00:00:00	2024-11-08T19:00:00	4	Temperatura máxima	15.8
130383	7	Sololá	701	Sololá	4	Finca Santa Victoria	9	Septiembre	2023-09-13T00:00:00	2024-11-08T19:00:00	3	Temperatura mínima	15.6
130384	7	Sololá	701	Sololá	4	Finca Santa Victoria	9	Septiembre	2023-09-13T00:00:00	2024-11-08T19:00:00	5	Humedad	98
130385	7	Sololá	701	Sololá	4	Finca Santa Victoria	9	Septiembre	2023-09-13T00:00:00	2024-11-08T19:00:00	6	Velocidad del viento	0
130386	7	Sololá	701	Sololá	4	Finca Santa Victoria	9	Septiembre	2023-09-13T00:00:00	2024-11-08T19:00:00	7	Dirección del viento	0
130387	7	Sololá	701	Sololá	4	Finca Santa Victoria	9	Septiembre	2023-09-13T00:00:00	2024-11-08T19:00:00	1	Precipitación	1
130388	7	Sololá	701	Sololá	4	Finca Santa Victoria	9	Septiembre	2023-09-13T00:00:00	2024-11-08T19:00:00	8	Radiación solar	0
130389	7	Sololá	701	Sololá	4	Finca Santa Victoria	9	Septiembre	2023-09-13T00:00:00	2024-11-08T20:00:00	2	Temperatura media	14.9
130390	7	Sololá	701	Sololá	4	Finca Santa Victoria	9	Septiembre	2023-09-13T00:00:00	2024-11-08T20:00:00	4	Temperatura máxima	15.6
130391	7	Sololá	701	Sololá	4	Finca Santa Victoria	9	Septiembre	2023-09-13T00:00:00	2024-11-08T20:00:00	3	Temperatura mínima	14.8
130392	7	Sololá	701	Sololá	4	Finca Santa Victoria	9	Septiembre	2023-09-13T00:00:00	2024-11-08T20:00:00	5	Humedad	98
130393	7	Sololá	701	Sololá	4	Finca Santa Victoria	9	Septiembre	2023-09-13T00:00:00	2024-11-08T20:00:00	6	Velocidad del viento	0
130394	7	Sololá	701	Sololá	4	Finca Santa Victoria	9	Septiembre	2023-09-13T00:00:00	2024-11-08T20:00:00	7	Dirección del viento	0
130395	7	Sololá	701	Sololá	4	Finca Santa Victoria	9	Septiembre	2023-09-13T00:00:00	2024-11-08T20:00:00	1	Precipitación	0.6
130396	7	Sololá	701	Sololá	4	Finca Santa Victoria	9	Septiembre	2023-09-13T00:00:00	2024-11-08T20:00:00	8	Radiación solar	0
130397	7	Sololá	701	Sololá	4	Finca Santa Victoria	9	Septiembre	2023-09-13T00:00:00	2024-11-08T21:00:00	2	Temperatura media	14.6
130398	7	Sololá	701	Sololá	4	Finca Santa Victoria	9	Septiembre	2023-09-13T00:00:00	2024-11-08T21:00:00	4	Temperatura máxima	14.9
130399	7	Sololá	701	Sololá	4	Finca Santa Victoria	9	Septiembre	2023-09-13T00:00:00	2024-11-08T21:00:00	3	Temperatura mínima	14.5
130400	7	Sololá	701	Sololá	4	Finca Santa Victoria	9	Septiembre	2023-09-13T00:00:00	2024-11-08T21:00:00	5	Humedad	98
130401	7	Sololá	701	Sololá	4	Finca Santa Victoria	9	Septiembre	2023-09-13T00:00:00	2024-11-08T21:00:00	6	Velocidad del viento	0
130402	7	Sololá	701	Sololá	4	Finca Santa Victoria	9	Septiembre	2023-09-13T00:00:00	2024-11-08T21:00:00	7	Dirección del viento	0
130403	7	Sololá	701	Sololá	4	Finca Santa Victoria	9	Septiembre	2023-09-13T00:00:00	2024-11-08T21:00:00	1	Precipitación	0.4
130404	7	Sololá	701	Sololá	4	Finca Santa Victoria	9	Septiembre	2023-09-13T00:00:00	2024-11-08T21:00:00	8	Radiación solar	0
130405	7	Sololá	701	Sololá	4	Finca Santa Victoria	9	Septiembre	2023-09-13T00:00:00	2024-11-08T22:00:00	2	Temperatura media	14.7
130406	7	Sololá	701	Sololá	4	Finca Santa Victoria	9	Septiembre	2023-09-13T00:00:00	2024-11-08T22:00:00	4	Temperatura máxima	14.7
130407	7	Sololá	701	Sololá	4	Finca Santa Victoria	9	Septiembre	2023-09-13T00:00:00	2024-11-08T22:00:00	3	Temperatura mínima	14.5
130408	7	Sololá	701	Sololá	4	Finca Santa Victoria	9	Septiembre	2023-09-13T00:00:00	2024-11-08T22:00:00	5	Humedad	95
130409	7	Sololá	701	Sololá	4	Finca Santa Victoria	9	Septiembre	2023-09-13T00:00:00	2024-11-08T22:00:00	6	Velocidad del viento	1.6
130410	7	Sololá	701	Sololá	4	Finca Santa Victoria	9	Septiembre	2023-09-13T00:00:00	2024-11-08T22:00:00	7	Dirección del viento	1.61
130411	7	Sololá	701	Sololá	4	Finca Santa Victoria	9	Septiembre	2023-09-13T00:00:00	2024-11-08T22:00:00	1	Precipitación	0
130412	7	Sololá	701	Sololá	4	Finca Santa Victoria	9	Septiembre	2023-09-13T00:00:00	2024-11-08T22:00:00	8	Radiación solar	0
130413	7	Sololá	701	Sololá	4	Finca Santa Victoria	9	Septiembre	2023-09-13T00:00:00	2024-11-08T23:00:00	2	Temperatura media	14.6
130414	7	Sololá	701	Sololá	4	Finca Santa Victoria	9	Septiembre	2023-09-13T00:00:00	2024-11-08T23:00:00	4	Temperatura máxima	14.7
130415	7	Sololá	701	Sololá	4	Finca Santa Victoria	9	Septiembre	2023-09-13T00:00:00	2024-11-08T23:00:00	3	Temperatura mínima	14.4
130416	7	Sololá	701	Sololá	4	Finca Santa Victoria	9	Septiembre	2023-09-13T00:00:00	2024-11-08T23:00:00	5	Humedad	95
130417	7	Sololá	701	Sololá	4	Finca Santa Victoria	9	Septiembre	2023-09-13T00:00:00	2024-11-08T23:00:00	6	Velocidad del viento	1.6
130418	7	Sololá	701	Sololá	4	Finca Santa Victoria	9	Septiembre	2023-09-13T00:00:00	2024-11-08T23:00:00	7	Dirección del viento	1.61
130419	7	Sololá	701	Sololá	4	Finca Santa Victoria	9	Septiembre	2023-09-13T00:00:00	2024-11-08T23:00:00	1	Precipitación	0
130420	7	Sololá	701	Sololá	4	Finca Santa Victoria	9	Septiembre	2023-09-13T00:00:00	2024-11-08T23:00:00	8	Radiación solar	0
130421	7	Sololá	701	Sololá	4	Finca Santa Victoria	9	Septiembre	2023-09-14T00:00:00	2024-11-08T00:00:00	2	Temperatura media	14.4
130422	7	Sololá	701	Sololá	4	Finca Santa Victoria	9	Septiembre	2023-09-14T00:00:00	2024-11-08T00:00:00	4	Temperatura máxima	14.8
130423	7	Sololá	701	Sololá	4	Finca Santa Victoria	9	Septiembre	2023-09-14T00:00:00	2024-11-08T00:00:00	3	Temperatura mínima	14.3
130424	7	Sololá	701	Sololá	4	Finca Santa Victoria	9	Septiembre	2023-09-14T00:00:00	2024-11-08T00:00:00	5	Humedad	92
130425	7	Sololá	701	Sololá	4	Finca Santa Victoria	9	Septiembre	2023-09-14T00:00:00	2024-11-08T00:00:00	6	Velocidad del viento	3.2
130426	7	Sololá	701	Sololá	4	Finca Santa Victoria	9	Septiembre	2023-09-14T00:00:00	2024-11-08T00:00:00	7	Dirección del viento	3.22
130427	7	Sololá	701	Sololá	4	Finca Santa Victoria	9	Septiembre	2023-09-14T00:00:00	2024-11-08T00:00:00	1	Precipitación	0
130428	7	Sololá	701	Sololá	4	Finca Santa Victoria	9	Septiembre	2023-09-14T00:00:00	2024-11-08T00:00:00	8	Radiación solar	0
130429	7	Sololá	701	Sololá	4	Finca Santa Victoria	9	Septiembre	2023-09-14T00:00:00	2024-11-08T01:00:00	2	Temperatura media	14.3
130430	7	Sololá	701	Sololá	4	Finca Santa Victoria	9	Septiembre	2023-09-14T00:00:00	2024-11-08T01:00:00	4	Temperatura máxima	14.4
130431	7	Sololá	701	Sololá	4	Finca Santa Victoria	9	Septiembre	2023-09-14T00:00:00	2024-11-08T01:00:00	3	Temperatura mínima	14.3
130432	7	Sololá	701	Sololá	4	Finca Santa Victoria	9	Septiembre	2023-09-14T00:00:00	2024-11-08T01:00:00	5	Humedad	91
130433	7	Sololá	701	Sololá	4	Finca Santa Victoria	9	Septiembre	2023-09-14T00:00:00	2024-11-08T01:00:00	6	Velocidad del viento	3.2
130434	7	Sololá	701	Sololá	4	Finca Santa Victoria	9	Septiembre	2023-09-14T00:00:00	2024-11-08T01:00:00	7	Dirección del viento	3.22
130435	7	Sololá	701	Sololá	4	Finca Santa Victoria	9	Septiembre	2023-09-14T00:00:00	2024-11-08T01:00:00	1	Precipitación	0
130436	7	Sololá	701	Sololá	4	Finca Santa Victoria	9	Septiembre	2023-09-14T00:00:00	2024-11-08T01:00:00	8	Radiación solar	0
130437	7	Sololá	701	Sololá	4	Finca Santa Victoria	9	Septiembre	2023-09-14T00:00:00	2024-11-08T02:00:00	2	Temperatura media	14.1
130438	7	Sololá	701	Sololá	4	Finca Santa Victoria	9	Septiembre	2023-09-14T00:00:00	2024-11-08T02:00:00	4	Temperatura máxima	14.3
130439	7	Sololá	701	Sololá	4	Finca Santa Victoria	9	Septiembre	2023-09-14T00:00:00	2024-11-08T02:00:00	3	Temperatura mínima	13.9
130440	7	Sololá	701	Sololá	4	Finca Santa Victoria	9	Septiembre	2023-09-14T00:00:00	2024-11-08T02:00:00	5	Humedad	91
130441	7	Sololá	701	Sololá	4	Finca Santa Victoria	9	Septiembre	2023-09-14T00:00:00	2024-11-08T02:00:00	6	Velocidad del viento	1.6
130442	7	Sololá	701	Sololá	4	Finca Santa Victoria	9	Septiembre	2023-09-14T00:00:00	2024-11-08T02:00:00	7	Dirección del viento	1.61
130443	7	Sololá	701	Sololá	4	Finca Santa Victoria	9	Septiembre	2023-09-14T00:00:00	2024-11-08T02:00:00	1	Precipitación	0
130444	7	Sololá	701	Sololá	4	Finca Santa Victoria	9	Septiembre	2023-09-14T00:00:00	2024-11-08T02:00:00	8	Radiación solar	0
130445	7	Sololá	701	Sololá	4	Finca Santa Victoria	9	Septiembre	2023-09-14T00:00:00	2024-11-08T03:00:00	2	Temperatura media	13.5
130446	7	Sololá	701	Sololá	4	Finca Santa Victoria	9	Septiembre	2023-09-14T00:00:00	2024-11-08T03:00:00	4	Temperatura máxima	14.1
130447	7	Sololá	701	Sololá	4	Finca Santa Victoria	9	Septiembre	2023-09-14T00:00:00	2024-11-08T03:00:00	3	Temperatura mínima	13.4
130448	7	Sololá	701	Sololá	4	Finca Santa Victoria	9	Septiembre	2023-09-14T00:00:00	2024-11-08T03:00:00	5	Humedad	93
130449	7	Sololá	701	Sololá	4	Finca Santa Victoria	9	Septiembre	2023-09-14T00:00:00	2024-11-08T03:00:00	6	Velocidad del viento	1.6
130450	7	Sololá	701	Sololá	4	Finca Santa Victoria	9	Septiembre	2023-09-14T00:00:00	2024-11-08T03:00:00	7	Dirección del viento	1.61
130451	7	Sololá	701	Sololá	4	Finca Santa Victoria	9	Septiembre	2023-09-14T00:00:00	2024-11-08T03:00:00	1	Precipitación	0
130452	7	Sololá	701	Sololá	4	Finca Santa Victoria	9	Septiembre	2023-09-14T00:00:00	2024-11-08T03:00:00	8	Radiación solar	0
130453	7	Sololá	701	Sololá	4	Finca Santa Victoria	9	Septiembre	2023-09-14T00:00:00	2024-11-08T04:00:00	2	Temperatura media	13.1
130454	7	Sololá	701	Sololá	4	Finca Santa Victoria	9	Septiembre	2023-09-14T00:00:00	2024-11-08T04:00:00	4	Temperatura máxima	13.4
130455	7	Sololá	701	Sololá	4	Finca Santa Victoria	9	Septiembre	2023-09-14T00:00:00	2024-11-08T04:00:00	3	Temperatura mínima	13.1
130456	7	Sololá	701	Sololá	4	Finca Santa Victoria	9	Septiembre	2023-09-14T00:00:00	2024-11-08T04:00:00	5	Humedad	95
130457	7	Sololá	701	Sololá	4	Finca Santa Victoria	9	Septiembre	2023-09-14T00:00:00	2024-11-08T04:00:00	6	Velocidad del viento	0
130458	7	Sololá	701	Sololá	4	Finca Santa Victoria	9	Septiembre	2023-09-14T00:00:00	2024-11-08T04:00:00	7	Dirección del viento	0
130459	7	Sololá	701	Sololá	4	Finca Santa Victoria	9	Septiembre	2023-09-14T00:00:00	2024-11-08T04:00:00	1	Precipitación	0
130460	7	Sololá	701	Sololá	4	Finca Santa Victoria	9	Septiembre	2023-09-14T00:00:00	2024-11-08T04:00:00	8	Radiación solar	0
130461	7	Sololá	701	Sololá	4	Finca Santa Victoria	9	Septiembre	2023-09-14T00:00:00	2024-11-08T05:00:00	2	Temperatura media	13.2
130462	7	Sololá	701	Sololá	4	Finca Santa Victoria	9	Septiembre	2023-09-14T00:00:00	2024-11-08T05:00:00	4	Temperatura máxima	13.3
130463	7	Sololá	701	Sololá	4	Finca Santa Victoria	9	Septiembre	2023-09-14T00:00:00	2024-11-08T05:00:00	3	Temperatura mínima	12.9
130464	7	Sololá	701	Sololá	4	Finca Santa Victoria	9	Septiembre	2023-09-14T00:00:00	2024-11-08T05:00:00	5	Humedad	96
130465	7	Sololá	701	Sololá	4	Finca Santa Victoria	9	Septiembre	2023-09-14T00:00:00	2024-11-08T05:00:00	6	Velocidad del viento	0
130466	7	Sololá	701	Sololá	4	Finca Santa Victoria	9	Septiembre	2023-09-14T00:00:00	2024-11-08T05:00:00	7	Dirección del viento	0
130467	7	Sololá	701	Sololá	4	Finca Santa Victoria	9	Septiembre	2023-09-14T00:00:00	2024-11-08T05:00:00	1	Precipitación	0
130468	7	Sololá	701	Sololá	4	Finca Santa Victoria	9	Septiembre	2023-09-14T00:00:00	2024-11-08T05:00:00	8	Radiación solar	0
130469	7	Sololá	701	Sololá	4	Finca Santa Victoria	9	Septiembre	2023-09-14T00:00:00	2024-11-08T06:00:00	2	Temperatura media	12.8
130470	7	Sololá	701	Sololá	4	Finca Santa Victoria	9	Septiembre	2023-09-14T00:00:00	2024-11-08T06:00:00	4	Temperatura máxima	13.3
130471	7	Sololá	701	Sololá	4	Finca Santa Victoria	9	Septiembre	2023-09-14T00:00:00	2024-11-08T06:00:00	3	Temperatura mínima	12.8
130472	7	Sololá	701	Sololá	4	Finca Santa Victoria	9	Septiembre	2023-09-14T00:00:00	2024-11-08T06:00:00	5	Humedad	95
130473	7	Sololá	701	Sololá	4	Finca Santa Victoria	9	Septiembre	2023-09-14T00:00:00	2024-11-08T06:00:00	6	Velocidad del viento	0
130474	7	Sololá	701	Sololá	4	Finca Santa Victoria	9	Septiembre	2023-09-14T00:00:00	2024-11-08T06:00:00	7	Dirección del viento	0
130475	7	Sololá	701	Sololá	4	Finca Santa Victoria	9	Septiembre	2023-09-14T00:00:00	2024-11-08T06:00:00	1	Precipitación	0
130476	7	Sololá	701	Sololá	4	Finca Santa Victoria	9	Septiembre	2023-09-14T00:00:00	2024-11-08T06:00:00	8	Radiación solar	0
130477	7	Sololá	701	Sololá	4	Finca Santa Victoria	9	Septiembre	2023-09-14T00:00:00	2024-11-08T07:00:00	2	Temperatura media	13.3
130478	7	Sololá	701	Sololá	4	Finca Santa Victoria	9	Septiembre	2023-09-14T00:00:00	2024-11-08T07:00:00	4	Temperatura máxima	13.3
130479	7	Sololá	701	Sololá	4	Finca Santa Victoria	9	Septiembre	2023-09-14T00:00:00	2024-11-08T07:00:00	3	Temperatura mínima	12.8
130480	7	Sololá	701	Sololá	4	Finca Santa Victoria	9	Septiembre	2023-09-14T00:00:00	2024-11-08T07:00:00	5	Humedad	96
130481	7	Sololá	701	Sololá	4	Finca Santa Victoria	9	Septiembre	2023-09-14T00:00:00	2024-11-08T07:00:00	6	Velocidad del viento	1.6
130482	7	Sololá	701	Sololá	4	Finca Santa Victoria	9	Septiembre	2023-09-14T00:00:00	2024-11-08T07:00:00	7	Dirección del viento	1.61
130483	7	Sololá	701	Sololá	4	Finca Santa Victoria	9	Septiembre	2023-09-14T00:00:00	2024-11-08T07:00:00	1	Precipitación	0
130484	7	Sololá	701	Sololá	4	Finca Santa Victoria	9	Septiembre	2023-09-14T00:00:00	2024-11-08T07:00:00	8	Radiación solar	25
130485	7	Sololá	701	Sololá	4	Finca Santa Victoria	9	Septiembre	2023-09-14T00:00:00	2024-11-08T08:00:00	2	Temperatura media	13.9
130486	7	Sololá	701	Sololá	4	Finca Santa Victoria	9	Septiembre	2023-09-14T00:00:00	2024-11-08T08:00:00	4	Temperatura máxima	14
130487	7	Sololá	701	Sololá	4	Finca Santa Victoria	9	Septiembre	2023-09-14T00:00:00	2024-11-08T08:00:00	3	Temperatura mínima	13.2
130488	7	Sololá	701	Sololá	4	Finca Santa Victoria	9	Septiembre	2023-09-14T00:00:00	2024-11-08T08:00:00	5	Humedad	95
130489	7	Sololá	701	Sololá	4	Finca Santa Victoria	9	Septiembre	2023-09-14T00:00:00	2024-11-08T08:00:00	6	Velocidad del viento	1.6
130490	7	Sololá	701	Sololá	4	Finca Santa Victoria	9	Septiembre	2023-09-14T00:00:00	2024-11-08T08:00:00	7	Dirección del viento	1.61
130491	7	Sololá	701	Sololá	4	Finca Santa Victoria	9	Septiembre	2023-09-14T00:00:00	2024-11-08T08:00:00	1	Precipitación	0
130492	7	Sololá	701	Sololá	4	Finca Santa Victoria	9	Septiembre	2023-09-14T00:00:00	2024-11-08T08:00:00	8	Radiación solar	66
130493	7	Sololá	701	Sololá	4	Finca Santa Victoria	9	Septiembre	2023-09-14T00:00:00	2024-11-08T09:00:00	2	Temperatura media	16.4
130494	7	Sololá	701	Sololá	4	Finca Santa Victoria	9	Septiembre	2023-09-14T00:00:00	2024-11-08T09:00:00	4	Temperatura máxima	16.4
130495	7	Sololá	701	Sololá	4	Finca Santa Victoria	9	Septiembre	2023-09-14T00:00:00	2024-11-08T09:00:00	3	Temperatura mínima	13.9
130496	7	Sololá	701	Sololá	4	Finca Santa Victoria	9	Septiembre	2023-09-14T00:00:00	2024-11-08T09:00:00	5	Humedad	86
130497	7	Sololá	701	Sololá	4	Finca Santa Victoria	9	Septiembre	2023-09-14T00:00:00	2024-11-08T09:00:00	6	Velocidad del viento	0
130498	7	Sololá	701	Sololá	4	Finca Santa Victoria	9	Septiembre	2023-09-14T00:00:00	2024-11-08T09:00:00	7	Dirección del viento	0
130499	7	Sololá	701	Sololá	4	Finca Santa Victoria	9	Septiembre	2023-09-14T00:00:00	2024-11-08T09:00:00	1	Precipitación	0
130500	7	Sololá	701	Sololá	4	Finca Santa Victoria	9	Septiembre	2023-09-14T00:00:00	2024-11-08T09:00:00	8	Radiación solar	149
130501	7	Sololá	701	Sololá	4	Finca Santa Victoria	9	Septiembre	2023-09-14T00:00:00	2024-11-08T10:00:00	2	Temperatura media	18.3
130502	7	Sololá	701	Sololá	4	Finca Santa Victoria	9	Septiembre	2023-09-14T00:00:00	2024-11-08T10:00:00	4	Temperatura máxima	18.3
130503	7	Sololá	701	Sololá	4	Finca Santa Victoria	9	Septiembre	2023-09-14T00:00:00	2024-11-08T10:00:00	3	Temperatura mínima	16.4
130504	7	Sololá	701	Sololá	4	Finca Santa Victoria	9	Septiembre	2023-09-14T00:00:00	2024-11-08T10:00:00	5	Humedad	82
130505	7	Sololá	701	Sololá	4	Finca Santa Victoria	9	Septiembre	2023-09-14T00:00:00	2024-11-08T10:00:00	6	Velocidad del viento	3.2
130506	7	Sololá	701	Sololá	4	Finca Santa Victoria	9	Septiembre	2023-09-14T00:00:00	2024-11-08T10:00:00	7	Dirección del viento	3.22
130507	7	Sololá	701	Sololá	4	Finca Santa Victoria	9	Septiembre	2023-09-14T00:00:00	2024-11-08T10:00:00	1	Precipitación	0
130508	7	Sololá	701	Sololá	4	Finca Santa Victoria	9	Septiembre	2023-09-14T00:00:00	2024-11-08T10:00:00	8	Radiación solar	328
130509	7	Sololá	701	Sololá	4	Finca Santa Victoria	9	Septiembre	2023-09-14T00:00:00	2024-11-08T11:00:00	2	Temperatura media	19.6
130510	7	Sololá	701	Sololá	4	Finca Santa Victoria	9	Septiembre	2023-09-14T00:00:00	2024-11-08T11:00:00	4	Temperatura máxima	19.7
130511	7	Sololá	701	Sololá	4	Finca Santa Victoria	9	Septiembre	2023-09-14T00:00:00	2024-11-08T11:00:00	3	Temperatura mínima	18.3
130512	7	Sololá	701	Sololá	4	Finca Santa Victoria	9	Septiembre	2023-09-14T00:00:00	2024-11-08T11:00:00	5	Humedad	79
130513	7	Sololá	701	Sololá	4	Finca Santa Victoria	9	Septiembre	2023-09-14T00:00:00	2024-11-08T11:00:00	6	Velocidad del viento	1.6
130514	7	Sololá	701	Sololá	4	Finca Santa Victoria	9	Septiembre	2023-09-14T00:00:00	2024-11-08T11:00:00	7	Dirección del viento	1.61
130515	7	Sololá	701	Sololá	4	Finca Santa Victoria	9	Septiembre	2023-09-14T00:00:00	2024-11-08T11:00:00	1	Precipitación	0
130516	7	Sololá	701	Sololá	4	Finca Santa Victoria	9	Septiembre	2023-09-14T00:00:00	2024-11-08T11:00:00	8	Radiación solar	539
130517	7	Sololá	701	Sololá	4	Finca Santa Victoria	9	Septiembre	2023-09-14T00:00:00	2024-11-08T12:00:00	2	Temperatura media	18.6
130518	7	Sololá	701	Sololá	4	Finca Santa Victoria	9	Septiembre	2023-09-14T00:00:00	2024-11-08T12:00:00	4	Temperatura máxima	20.3
130519	7	Sololá	701	Sololá	4	Finca Santa Victoria	9	Septiembre	2023-09-14T00:00:00	2024-11-08T12:00:00	3	Temperatura mínima	18
130520	7	Sololá	701	Sololá	4	Finca Santa Victoria	9	Septiembre	2023-09-14T00:00:00	2024-11-08T12:00:00	5	Humedad	85
130521	7	Sololá	701	Sololá	4	Finca Santa Victoria	9	Septiembre	2023-09-14T00:00:00	2024-11-08T12:00:00	6	Velocidad del viento	1.6
130522	7	Sololá	701	Sololá	4	Finca Santa Victoria	9	Septiembre	2023-09-14T00:00:00	2024-11-08T12:00:00	7	Dirección del viento	1.61
130523	7	Sololá	701	Sololá	4	Finca Santa Victoria	9	Septiembre	2023-09-14T00:00:00	2024-11-08T12:00:00	1	Precipitación	0
130524	7	Sololá	701	Sololá	4	Finca Santa Victoria	9	Septiembre	2023-09-14T00:00:00	2024-11-08T12:00:00	8	Radiación solar	269
130525	7	Sololá	701	Sololá	4	Finca Santa Victoria	9	Septiembre	2023-09-14T00:00:00	2024-11-08T13:00:00	2	Temperatura media	20.7
130526	7	Sololá	701	Sololá	4	Finca Santa Victoria	9	Septiembre	2023-09-14T00:00:00	2024-11-08T13:00:00	4	Temperatura máxima	20.7
130527	7	Sololá	701	Sololá	4	Finca Santa Victoria	9	Septiembre	2023-09-14T00:00:00	2024-11-08T13:00:00	3	Temperatura mínima	18.6
130528	7	Sololá	701	Sololá	4	Finca Santa Victoria	9	Septiembre	2023-09-14T00:00:00	2024-11-08T13:00:00	5	Humedad	75
130529	7	Sololá	701	Sololá	4	Finca Santa Victoria	9	Septiembre	2023-09-14T00:00:00	2024-11-08T13:00:00	6	Velocidad del viento	1.6
130530	7	Sololá	701	Sololá	4	Finca Santa Victoria	9	Septiembre	2023-09-14T00:00:00	2024-11-08T13:00:00	7	Dirección del viento	1.61
130531	7	Sololá	701	Sololá	4	Finca Santa Victoria	9	Septiembre	2023-09-14T00:00:00	2024-11-08T13:00:00	1	Precipitación	0
130532	7	Sololá	701	Sololá	4	Finca Santa Victoria	9	Septiembre	2023-09-14T00:00:00	2024-11-08T13:00:00	8	Radiación solar	224
130533	7	Sololá	701	Sololá	4	Finca Santa Victoria	9	Septiembre	2023-09-14T00:00:00	2024-11-08T14:00:00	2	Temperatura media	19
130534	7	Sololá	701	Sololá	4	Finca Santa Victoria	9	Septiembre	2023-09-14T00:00:00	2024-11-08T14:00:00	4	Temperatura máxima	20.9
130535	7	Sololá	701	Sololá	4	Finca Santa Victoria	9	Septiembre	2023-09-14T00:00:00	2024-11-08T14:00:00	3	Temperatura mínima	19
130536	7	Sololá	701	Sololá	4	Finca Santa Victoria	9	Septiembre	2023-09-14T00:00:00	2024-11-08T14:00:00	5	Humedad	88
130537	7	Sololá	701	Sololá	4	Finca Santa Victoria	9	Septiembre	2023-09-14T00:00:00	2024-11-08T14:00:00	6	Velocidad del viento	3.2
130538	7	Sololá	701	Sololá	4	Finca Santa Victoria	9	Septiembre	2023-09-14T00:00:00	2024-11-08T14:00:00	7	Dirección del viento	3.22
130539	7	Sololá	701	Sololá	4	Finca Santa Victoria	9	Septiembre	2023-09-14T00:00:00	2024-11-08T14:00:00	1	Precipitación	0
130540	7	Sololá	701	Sololá	4	Finca Santa Victoria	9	Septiembre	2023-09-14T00:00:00	2024-11-08T14:00:00	8	Radiación solar	208
130541	7	Sololá	701	Sololá	4	Finca Santa Victoria	9	Septiembre	2023-09-14T00:00:00	2024-11-08T15:00:00	2	Temperatura media	17.4
130542	7	Sololá	701	Sololá	4	Finca Santa Victoria	9	Septiembre	2023-09-14T00:00:00	2024-11-08T15:00:00	4	Temperatura máxima	19
130543	7	Sololá	701	Sololá	4	Finca Santa Victoria	9	Septiembre	2023-09-14T00:00:00	2024-11-08T15:00:00	3	Temperatura mínima	17.4
130544	7	Sololá	701	Sololá	4	Finca Santa Victoria	9	Septiembre	2023-09-14T00:00:00	2024-11-08T15:00:00	5	Humedad	93
130545	7	Sololá	701	Sololá	4	Finca Santa Victoria	9	Septiembre	2023-09-14T00:00:00	2024-11-08T15:00:00	6	Velocidad del viento	3.2
130546	7	Sololá	701	Sololá	4	Finca Santa Victoria	9	Septiembre	2023-09-14T00:00:00	2024-11-08T15:00:00	7	Dirección del viento	3.22
130547	7	Sololá	701	Sololá	4	Finca Santa Victoria	9	Septiembre	2023-09-14T00:00:00	2024-11-08T15:00:00	1	Precipitación	0
130548	7	Sololá	701	Sololá	4	Finca Santa Victoria	9	Septiembre	2023-09-14T00:00:00	2024-11-08T15:00:00	8	Radiación solar	101
130549	7	Sololá	701	Sololá	4	Finca Santa Victoria	9	Septiembre	2023-09-14T00:00:00	2024-11-08T16:00:00	2	Temperatura media	16.9
130550	7	Sololá	701	Sololá	4	Finca Santa Victoria	9	Septiembre	2023-09-14T00:00:00	2024-11-08T16:00:00	4	Temperatura máxima	17.7
130551	7	Sololá	701	Sololá	4	Finca Santa Victoria	9	Septiembre	2023-09-14T00:00:00	2024-11-08T16:00:00	3	Temperatura mínima	16.9
130552	7	Sololá	701	Sololá	4	Finca Santa Victoria	9	Septiembre	2023-09-14T00:00:00	2024-11-08T16:00:00	5	Humedad	97
130553	7	Sololá	701	Sololá	4	Finca Santa Victoria	9	Septiembre	2023-09-14T00:00:00	2024-11-08T16:00:00	6	Velocidad del viento	3.2
130554	7	Sololá	701	Sololá	4	Finca Santa Victoria	9	Septiembre	2023-09-14T00:00:00	2024-11-08T16:00:00	7	Dirección del viento	3.22
130555	7	Sololá	701	Sololá	4	Finca Santa Victoria	9	Septiembre	2023-09-14T00:00:00	2024-11-08T16:00:00	1	Precipitación	0.6
130556	7	Sololá	701	Sololá	4	Finca Santa Victoria	9	Septiembre	2023-09-14T00:00:00	2024-11-08T16:00:00	8	Radiación solar	86
130557	7	Sololá	701	Sololá	4	Finca Santa Victoria	9	Septiembre	2023-09-14T00:00:00	2024-11-08T17:00:00	2	Temperatura media	16.1
130558	7	Sololá	701	Sololá	4	Finca Santa Victoria	9	Septiembre	2023-09-14T00:00:00	2024-11-08T17:00:00	4	Temperatura máxima	16.9
130559	7	Sololá	701	Sololá	4	Finca Santa Victoria	9	Septiembre	2023-09-14T00:00:00	2024-11-08T17:00:00	3	Temperatura mínima	16.1
130560	7	Sololá	701	Sololá	4	Finca Santa Victoria	9	Septiembre	2023-09-14T00:00:00	2024-11-08T17:00:00	5	Humedad	98
130561	7	Sololá	701	Sololá	4	Finca Santa Victoria	9	Septiembre	2023-09-14T00:00:00	2024-11-08T17:00:00	6	Velocidad del viento	1.6
130562	7	Sololá	701	Sololá	4	Finca Santa Victoria	9	Septiembre	2023-09-14T00:00:00	2024-11-08T17:00:00	7	Dirección del viento	1.61
130563	7	Sololá	701	Sololá	4	Finca Santa Victoria	9	Septiembre	2023-09-14T00:00:00	2024-11-08T17:00:00	1	Precipitación	0
130564	7	Sololá	701	Sololá	4	Finca Santa Victoria	9	Septiembre	2023-09-14T00:00:00	2024-11-08T17:00:00	8	Radiación solar	45
130565	7	Sololá	701	Sololá	4	Finca Santa Victoria	9	Septiembre	2023-09-14T00:00:00	2024-11-08T18:00:00	2	Temperatura media	15.8
130566	7	Sololá	701	Sololá	4	Finca Santa Victoria	9	Septiembre	2023-09-14T00:00:00	2024-11-08T18:00:00	4	Temperatura máxima	16.1
130567	7	Sololá	701	Sololá	4	Finca Santa Victoria	9	Septiembre	2023-09-14T00:00:00	2024-11-08T18:00:00	3	Temperatura mínima	15.8
130568	7	Sololá	701	Sololá	4	Finca Santa Victoria	9	Septiembre	2023-09-14T00:00:00	2024-11-08T18:00:00	5	Humedad	97
130569	7	Sololá	701	Sololá	4	Finca Santa Victoria	9	Septiembre	2023-09-14T00:00:00	2024-11-08T18:00:00	6	Velocidad del viento	0
130570	7	Sololá	701	Sololá	4	Finca Santa Victoria	9	Septiembre	2023-09-14T00:00:00	2024-11-08T18:00:00	7	Dirección del viento	0
130571	7	Sololá	701	Sololá	4	Finca Santa Victoria	9	Septiembre	2023-09-14T00:00:00	2024-11-08T18:00:00	1	Precipitación	0
130572	7	Sololá	701	Sololá	4	Finca Santa Victoria	9	Septiembre	2023-09-14T00:00:00	2024-11-08T18:00:00	8	Radiación solar	19
130573	7	Sololá	701	Sololá	4	Finca Santa Victoria	9	Septiembre	2023-09-14T00:00:00	2024-11-08T19:00:00	2	Temperatura media	15.6
130574	7	Sololá	701	Sololá	4	Finca Santa Victoria	9	Septiembre	2023-09-14T00:00:00	2024-11-08T19:00:00	4	Temperatura máxima	15.8
130575	7	Sololá	701	Sololá	4	Finca Santa Victoria	9	Septiembre	2023-09-14T00:00:00	2024-11-08T19:00:00	3	Temperatura mínima	15.4
130576	7	Sololá	701	Sololá	4	Finca Santa Victoria	9	Septiembre	2023-09-14T00:00:00	2024-11-08T19:00:00	5	Humedad	98
130577	7	Sololá	701	Sololá	4	Finca Santa Victoria	9	Septiembre	2023-09-14T00:00:00	2024-11-08T19:00:00	6	Velocidad del viento	0
130578	7	Sololá	701	Sololá	4	Finca Santa Victoria	9	Septiembre	2023-09-14T00:00:00	2024-11-08T19:00:00	7	Dirección del viento	0
130579	7	Sololá	701	Sololá	4	Finca Santa Victoria	9	Septiembre	2023-09-14T00:00:00	2024-11-08T19:00:00	1	Precipitación	0
130580	7	Sololá	701	Sololá	4	Finca Santa Victoria	9	Septiembre	2023-09-14T00:00:00	2024-11-08T19:00:00	8	Radiación solar	0
130581	7	Sololá	701	Sololá	4	Finca Santa Victoria	9	Septiembre	2023-09-14T00:00:00	2024-11-08T20:00:00	2	Temperatura media	14.8
130582	7	Sololá	701	Sololá	4	Finca Santa Victoria	9	Septiembre	2023-09-14T00:00:00	2024-11-08T20:00:00	4	Temperatura máxima	15.6
130583	7	Sololá	701	Sololá	4	Finca Santa Victoria	9	Septiembre	2023-09-14T00:00:00	2024-11-08T20:00:00	3	Temperatura mínima	14.8
130584	7	Sololá	701	Sololá	4	Finca Santa Victoria	9	Septiembre	2023-09-14T00:00:00	2024-11-08T20:00:00	5	Humedad	98
130585	7	Sololá	701	Sololá	4	Finca Santa Victoria	9	Septiembre	2023-09-14T00:00:00	2024-11-08T20:00:00	6	Velocidad del viento	0
130586	7	Sololá	701	Sololá	4	Finca Santa Victoria	9	Septiembre	2023-09-14T00:00:00	2024-11-08T20:00:00	7	Dirección del viento	0
130587	7	Sololá	701	Sololá	4	Finca Santa Victoria	9	Septiembre	2023-09-14T00:00:00	2024-11-08T20:00:00	1	Precipitación	0
130588	7	Sololá	701	Sololá	4	Finca Santa Victoria	9	Septiembre	2023-09-14T00:00:00	2024-11-08T20:00:00	8	Radiación solar	0
130589	7	Sololá	701	Sololá	4	Finca Santa Victoria	9	Septiembre	2023-09-14T00:00:00	2024-11-08T21:00:00	2	Temperatura media	14.6
130590	7	Sololá	701	Sololá	4	Finca Santa Victoria	9	Septiembre	2023-09-14T00:00:00	2024-11-08T21:00:00	4	Temperatura máxima	14.8
130591	7	Sololá	701	Sololá	4	Finca Santa Victoria	9	Septiembre	2023-09-14T00:00:00	2024-11-08T21:00:00	3	Temperatura mínima	14.4
130592	7	Sololá	701	Sololá	4	Finca Santa Victoria	9	Septiembre	2023-09-14T00:00:00	2024-11-08T21:00:00	5	Humedad	98
130593	7	Sololá	701	Sololá	4	Finca Santa Victoria	9	Septiembre	2023-09-14T00:00:00	2024-11-08T21:00:00	6	Velocidad del viento	0
130594	7	Sololá	701	Sololá	4	Finca Santa Victoria	9	Septiembre	2023-09-14T00:00:00	2024-11-08T21:00:00	7	Dirección del viento	0
130595	7	Sololá	701	Sololá	4	Finca Santa Victoria	9	Septiembre	2023-09-14T00:00:00	2024-11-08T21:00:00	1	Precipitación	0
130596	7	Sololá	701	Sololá	4	Finca Santa Victoria	9	Septiembre	2023-09-14T00:00:00	2024-11-08T21:00:00	8	Radiación solar	0
130597	7	Sololá	701	Sololá	4	Finca Santa Victoria	9	Septiembre	2023-09-14T00:00:00	2024-11-08T22:00:00	2	Temperatura media	14.7
130598	7	Sololá	701	Sololá	4	Finca Santa Victoria	9	Septiembre	2023-09-14T00:00:00	2024-11-08T22:00:00	4	Temperatura máxima	14.7
130599	7	Sololá	701	Sololá	4	Finca Santa Victoria	9	Septiembre	2023-09-14T00:00:00	2024-11-08T22:00:00	3	Temperatura mínima	14.4
130600	7	Sololá	701	Sololá	4	Finca Santa Victoria	9	Septiembre	2023-09-14T00:00:00	2024-11-08T22:00:00	5	Humedad	98
130601	7	Sololá	701	Sololá	4	Finca Santa Victoria	9	Septiembre	2023-09-14T00:00:00	2024-11-08T22:00:00	6	Velocidad del viento	0
130602	7	Sololá	701	Sololá	4	Finca Santa Victoria	9	Septiembre	2023-09-14T00:00:00	2024-11-08T22:00:00	7	Dirección del viento	0
130603	7	Sololá	701	Sololá	4	Finca Santa Victoria	9	Septiembre	2023-09-14T00:00:00	2024-11-08T22:00:00	1	Precipitación	0.2
130604	7	Sololá	701	Sololá	4	Finca Santa Victoria	9	Septiembre	2023-09-14T00:00:00	2024-11-08T22:00:00	8	Radiación solar	0
130605	7	Sololá	701	Sololá	4	Finca Santa Victoria	9	Septiembre	2023-09-14T00:00:00	2024-11-08T23:00:00	2	Temperatura media	14.2
130606	7	Sololá	701	Sololá	4	Finca Santa Victoria	9	Septiembre	2023-09-14T00:00:00	2024-11-08T23:00:00	4	Temperatura máxima	14.8
130607	7	Sololá	701	Sololá	4	Finca Santa Victoria	9	Septiembre	2023-09-14T00:00:00	2024-11-08T23:00:00	3	Temperatura mínima	14.2
130608	7	Sololá	701	Sololá	4	Finca Santa Victoria	9	Septiembre	2023-09-14T00:00:00	2024-11-08T23:00:00	5	Humedad	97
130609	7	Sololá	701	Sololá	4	Finca Santa Victoria	9	Septiembre	2023-09-14T00:00:00	2024-11-08T23:00:00	6	Velocidad del viento	0
130610	7	Sololá	701	Sololá	4	Finca Santa Victoria	9	Septiembre	2023-09-14T00:00:00	2024-11-08T23:00:00	7	Dirección del viento	0
130611	7	Sololá	701	Sololá	4	Finca Santa Victoria	9	Septiembre	2023-09-14T00:00:00	2024-11-08T23:00:00	1	Precipitación	0.6
130612	7	Sololá	701	Sololá	4	Finca Santa Victoria	9	Septiembre	2023-09-14T00:00:00	2024-11-08T23:00:00	8	Radiación solar	0
130613	7	Sololá	701	Sololá	4	Finca Santa Victoria	9	Septiembre	2023-09-15T00:00:00	2024-11-08T00:00:00	2	Temperatura media	13.9
130614	7	Sololá	701	Sololá	4	Finca Santa Victoria	9	Septiembre	2023-09-15T00:00:00	2024-11-08T00:00:00	4	Temperatura máxima	14.2
130615	7	Sololá	701	Sololá	4	Finca Santa Victoria	9	Septiembre	2023-09-15T00:00:00	2024-11-08T00:00:00	3	Temperatura mínima	13.8
130616	7	Sololá	701	Sololá	4	Finca Santa Victoria	9	Septiembre	2023-09-15T00:00:00	2024-11-08T00:00:00	5	Humedad	98
130617	7	Sololá	701	Sololá	4	Finca Santa Victoria	9	Septiembre	2023-09-15T00:00:00	2024-11-08T00:00:00	6	Velocidad del viento	0
130618	7	Sololá	701	Sololá	4	Finca Santa Victoria	9	Septiembre	2023-09-15T00:00:00	2024-11-08T00:00:00	7	Dirección del viento	0
130619	7	Sololá	701	Sololá	4	Finca Santa Victoria	9	Septiembre	2023-09-15T00:00:00	2024-11-08T00:00:00	1	Precipitación	0
130620	7	Sololá	701	Sololá	4	Finca Santa Victoria	9	Septiembre	2023-09-15T00:00:00	2024-11-08T00:00:00	8	Radiación solar	0
130621	7	Sololá	701	Sololá	4	Finca Santa Victoria	9	Septiembre	2023-09-15T00:00:00	2024-11-08T01:00:00	2	Temperatura media	13.8
130622	7	Sololá	701	Sololá	4	Finca Santa Victoria	9	Septiembre	2023-09-15T00:00:00	2024-11-08T01:00:00	4	Temperatura máxima	14
130623	7	Sololá	701	Sololá	4	Finca Santa Victoria	9	Septiembre	2023-09-15T00:00:00	2024-11-08T01:00:00	3	Temperatura mínima	13.8
130624	7	Sololá	701	Sololá	4	Finca Santa Victoria	9	Septiembre	2023-09-15T00:00:00	2024-11-08T01:00:00	5	Humedad	98
130625	7	Sololá	701	Sololá	4	Finca Santa Victoria	9	Septiembre	2023-09-15T00:00:00	2024-11-08T01:00:00	6	Velocidad del viento	0
130626	7	Sololá	701	Sololá	4	Finca Santa Victoria	9	Septiembre	2023-09-15T00:00:00	2024-11-08T01:00:00	7	Dirección del viento	0
130627	7	Sololá	701	Sololá	4	Finca Santa Victoria	9	Septiembre	2023-09-15T00:00:00	2024-11-08T01:00:00	1	Precipitación	0
130628	7	Sololá	701	Sololá	4	Finca Santa Victoria	9	Septiembre	2023-09-15T00:00:00	2024-11-08T01:00:00	8	Radiación solar	0
130629	7	Sololá	701	Sololá	4	Finca Santa Victoria	9	Septiembre	2023-09-15T00:00:00	2024-11-08T02:00:00	2	Temperatura media	13.4
130630	7	Sololá	701	Sololá	4	Finca Santa Victoria	9	Septiembre	2023-09-15T00:00:00	2024-11-08T02:00:00	4	Temperatura máxima	13.8
130631	7	Sololá	701	Sololá	4	Finca Santa Victoria	9	Septiembre	2023-09-15T00:00:00	2024-11-08T02:00:00	3	Temperatura mínima	13.3
130632	7	Sololá	701	Sololá	4	Finca Santa Victoria	9	Septiembre	2023-09-15T00:00:00	2024-11-08T02:00:00	5	Humedad	97
130633	7	Sololá	701	Sololá	4	Finca Santa Victoria	9	Septiembre	2023-09-15T00:00:00	2024-11-08T02:00:00	6	Velocidad del viento	1.6
130634	7	Sololá	701	Sololá	4	Finca Santa Victoria	9	Septiembre	2023-09-15T00:00:00	2024-11-08T02:00:00	7	Dirección del viento	1.61
130635	7	Sololá	701	Sololá	4	Finca Santa Victoria	9	Septiembre	2023-09-15T00:00:00	2024-11-08T02:00:00	1	Precipitación	0
130636	7	Sololá	701	Sololá	4	Finca Santa Victoria	9	Septiembre	2023-09-15T00:00:00	2024-11-08T02:00:00	8	Radiación solar	0
130637	7	Sololá	701	Sololá	4	Finca Santa Victoria	9	Septiembre	2023-09-15T00:00:00	2024-11-08T03:00:00	2	Temperatura media	13.2
130638	7	Sololá	701	Sololá	4	Finca Santa Victoria	9	Septiembre	2023-09-15T00:00:00	2024-11-08T03:00:00	4	Temperatura máxima	13.5
130639	7	Sololá	701	Sololá	4	Finca Santa Victoria	9	Septiembre	2023-09-15T00:00:00	2024-11-08T03:00:00	3	Temperatura mínima	13.2
130640	7	Sololá	701	Sololá	4	Finca Santa Victoria	9	Septiembre	2023-09-15T00:00:00	2024-11-08T03:00:00	5	Humedad	95
130641	7	Sololá	701	Sololá	4	Finca Santa Victoria	9	Septiembre	2023-09-15T00:00:00	2024-11-08T03:00:00	6	Velocidad del viento	0
130642	7	Sololá	701	Sololá	4	Finca Santa Victoria	9	Septiembre	2023-09-15T00:00:00	2024-11-08T03:00:00	7	Dirección del viento	0
130643	7	Sololá	701	Sololá	4	Finca Santa Victoria	9	Septiembre	2023-09-15T00:00:00	2024-11-08T03:00:00	1	Precipitación	0
130644	7	Sololá	701	Sololá	4	Finca Santa Victoria	9	Septiembre	2023-09-15T00:00:00	2024-11-08T03:00:00	8	Radiación solar	0
130645	7	Sololá	701	Sololá	4	Finca Santa Victoria	9	Septiembre	2023-09-15T00:00:00	2024-11-08T04:00:00	2	Temperatura media	12.3
130646	7	Sololá	701	Sololá	4	Finca Santa Victoria	9	Septiembre	2023-09-15T00:00:00	2024-11-08T04:00:00	4	Temperatura máxima	13.2
130647	7	Sololá	701	Sololá	4	Finca Santa Victoria	9	Septiembre	2023-09-15T00:00:00	2024-11-08T04:00:00	3	Temperatura mínima	12.3
130648	7	Sololá	701	Sololá	4	Finca Santa Victoria	9	Septiembre	2023-09-15T00:00:00	2024-11-08T04:00:00	5	Humedad	97
130649	7	Sololá	701	Sololá	4	Finca Santa Victoria	9	Septiembre	2023-09-15T00:00:00	2024-11-08T04:00:00	6	Velocidad del viento	0
130650	7	Sololá	701	Sololá	4	Finca Santa Victoria	9	Septiembre	2023-09-15T00:00:00	2024-11-08T04:00:00	7	Dirección del viento	0
130651	7	Sololá	701	Sololá	4	Finca Santa Victoria	9	Septiembre	2023-09-15T00:00:00	2024-11-08T04:00:00	1	Precipitación	0
130652	7	Sololá	701	Sololá	4	Finca Santa Victoria	9	Septiembre	2023-09-15T00:00:00	2024-11-08T04:00:00	8	Radiación solar	0
130653	7	Sololá	701	Sololá	4	Finca Santa Victoria	9	Septiembre	2023-09-15T00:00:00	2024-11-08T05:00:00	2	Temperatura media	12.4
130654	7	Sololá	701	Sololá	4	Finca Santa Victoria	9	Septiembre	2023-09-15T00:00:00	2024-11-08T05:00:00	4	Temperatura máxima	12.6
130655	7	Sololá	701	Sololá	4	Finca Santa Victoria	9	Septiembre	2023-09-15T00:00:00	2024-11-08T05:00:00	3	Temperatura mínima	12.3
130656	7	Sololá	701	Sololá	4	Finca Santa Victoria	9	Septiembre	2023-09-15T00:00:00	2024-11-08T05:00:00	5	Humedad	95
130657	7	Sololá	701	Sololá	4	Finca Santa Victoria	9	Septiembre	2023-09-15T00:00:00	2024-11-08T05:00:00	6	Velocidad del viento	0
130658	7	Sololá	701	Sololá	4	Finca Santa Victoria	9	Septiembre	2023-09-15T00:00:00	2024-11-08T05:00:00	7	Dirección del viento	0
130659	7	Sololá	701	Sololá	4	Finca Santa Victoria	9	Septiembre	2023-09-15T00:00:00	2024-11-08T05:00:00	1	Precipitación	0
130660	7	Sololá	701	Sololá	4	Finca Santa Victoria	9	Septiembre	2023-09-15T00:00:00	2024-11-08T05:00:00	8	Radiación solar	0
130661	7	Sololá	701	Sololá	4	Finca Santa Victoria	9	Septiembre	2023-09-15T00:00:00	2024-11-08T06:00:00	2	Temperatura media	12.4
130662	7	Sololá	701	Sololá	4	Finca Santa Victoria	9	Septiembre	2023-09-15T00:00:00	2024-11-08T06:00:00	4	Temperatura máxima	12.5
130663	7	Sololá	701	Sololá	4	Finca Santa Victoria	9	Septiembre	2023-09-15T00:00:00	2024-11-08T06:00:00	3	Temperatura mínima	12.2
130664	7	Sololá	701	Sololá	4	Finca Santa Victoria	9	Septiembre	2023-09-15T00:00:00	2024-11-08T06:00:00	5	Humedad	95
130665	7	Sololá	701	Sololá	4	Finca Santa Victoria	9	Septiembre	2023-09-15T00:00:00	2024-11-08T06:00:00	6	Velocidad del viento	0
130666	7	Sololá	701	Sololá	4	Finca Santa Victoria	9	Septiembre	2023-09-15T00:00:00	2024-11-08T06:00:00	7	Dirección del viento	0
130667	7	Sololá	701	Sololá	4	Finca Santa Victoria	9	Septiembre	2023-09-15T00:00:00	2024-11-08T06:00:00	1	Precipitación	0
130668	7	Sololá	701	Sololá	4	Finca Santa Victoria	9	Septiembre	2023-09-15T00:00:00	2024-11-08T06:00:00	8	Radiación solar	0
130669	7	Sololá	701	Sololá	4	Finca Santa Victoria	9	Septiembre	2023-09-15T00:00:00	2024-11-08T07:00:00	2	Temperatura media	12.8
130670	7	Sololá	701	Sololá	4	Finca Santa Victoria	9	Septiembre	2023-09-15T00:00:00	2024-11-08T07:00:00	4	Temperatura máxima	12.8
130671	7	Sololá	701	Sololá	4	Finca Santa Victoria	9	Septiembre	2023-09-15T00:00:00	2024-11-08T07:00:00	3	Temperatura mínima	12.2
130672	7	Sololá	701	Sololá	4	Finca Santa Victoria	9	Septiembre	2023-09-15T00:00:00	2024-11-08T07:00:00	5	Humedad	97
130673	7	Sololá	701	Sololá	4	Finca Santa Victoria	9	Septiembre	2023-09-15T00:00:00	2024-11-08T07:00:00	6	Velocidad del viento	0
130674	7	Sololá	701	Sololá	4	Finca Santa Victoria	9	Septiembre	2023-09-15T00:00:00	2024-11-08T07:00:00	7	Dirección del viento	0
130675	7	Sololá	701	Sololá	4	Finca Santa Victoria	9	Septiembre	2023-09-15T00:00:00	2024-11-08T07:00:00	1	Precipitación	0
130676	7	Sololá	701	Sololá	4	Finca Santa Victoria	9	Septiembre	2023-09-15T00:00:00	2024-11-08T07:00:00	8	Radiación solar	18
130677	7	Sololá	701	Sololá	4	Finca Santa Victoria	9	Septiembre	2023-09-15T00:00:00	2024-11-08T08:00:00	2	Temperatura media	14.8
130678	7	Sololá	701	Sololá	4	Finca Santa Victoria	9	Septiembre	2023-09-15T00:00:00	2024-11-08T08:00:00	4	Temperatura máxima	14.8
130679	7	Sololá	701	Sololá	4	Finca Santa Victoria	9	Septiembre	2023-09-15T00:00:00	2024-11-08T08:00:00	3	Temperatura mínima	12.8
130680	7	Sololá	701	Sololá	4	Finca Santa Victoria	9	Septiembre	2023-09-15T00:00:00	2024-11-08T08:00:00	5	Humedad	93
130681	7	Sololá	701	Sololá	4	Finca Santa Victoria	9	Septiembre	2023-09-15T00:00:00	2024-11-08T08:00:00	6	Velocidad del viento	0
130682	7	Sololá	701	Sololá	4	Finca Santa Victoria	9	Septiembre	2023-09-15T00:00:00	2024-11-08T08:00:00	7	Dirección del viento	0
130683	7	Sololá	701	Sololá	4	Finca Santa Victoria	9	Septiembre	2023-09-15T00:00:00	2024-11-08T08:00:00	1	Precipitación	0
130684	7	Sololá	701	Sololá	4	Finca Santa Victoria	9	Septiembre	2023-09-15T00:00:00	2024-11-08T08:00:00	8	Radiación solar	95
130685	7	Sololá	701	Sololá	4	Finca Santa Victoria	9	Septiembre	2023-09-15T00:00:00	2024-11-08T09:00:00	2	Temperatura media	16.8
130686	7	Sololá	701	Sololá	4	Finca Santa Victoria	9	Septiembre	2023-09-15T00:00:00	2024-11-08T09:00:00	4	Temperatura máxima	17
130687	7	Sololá	701	Sololá	4	Finca Santa Victoria	9	Septiembre	2023-09-15T00:00:00	2024-11-08T09:00:00	3	Temperatura mínima	14.8
130688	7	Sololá	701	Sololá	4	Finca Santa Victoria	9	Septiembre	2023-09-15T00:00:00	2024-11-08T09:00:00	5	Humedad	85
130689	7	Sololá	701	Sololá	4	Finca Santa Victoria	9	Septiembre	2023-09-15T00:00:00	2024-11-08T09:00:00	6	Velocidad del viento	1.6
130690	7	Sololá	701	Sololá	4	Finca Santa Victoria	9	Septiembre	2023-09-15T00:00:00	2024-11-08T09:00:00	7	Dirección del viento	1.61
130691	7	Sololá	701	Sololá	4	Finca Santa Victoria	9	Septiembre	2023-09-15T00:00:00	2024-11-08T09:00:00	1	Precipitación	0
130692	7	Sololá	701	Sololá	4	Finca Santa Victoria	9	Septiembre	2023-09-15T00:00:00	2024-11-08T09:00:00	8	Radiación solar	194
130693	7	Sololá	701	Sololá	4	Finca Santa Victoria	9	Septiembre	2023-09-15T00:00:00	2024-11-08T10:00:00	2	Temperatura media	18.2
130694	7	Sololá	701	Sololá	4	Finca Santa Victoria	9	Septiembre	2023-09-15T00:00:00	2024-11-08T10:00:00	4	Temperatura máxima	18.2
130695	7	Sololá	701	Sololá	4	Finca Santa Victoria	9	Septiembre	2023-09-15T00:00:00	2024-11-08T10:00:00	3	Temperatura mínima	16.8
130696	7	Sololá	701	Sololá	4	Finca Santa Victoria	9	Septiembre	2023-09-15T00:00:00	2024-11-08T10:00:00	5	Humedad	80
130697	7	Sololá	701	Sololá	4	Finca Santa Victoria	9	Septiembre	2023-09-15T00:00:00	2024-11-08T10:00:00	6	Velocidad del viento	1.6
130698	7	Sololá	701	Sololá	4	Finca Santa Victoria	9	Septiembre	2023-09-15T00:00:00	2024-11-08T10:00:00	7	Dirección del viento	1.61
130699	7	Sololá	701	Sololá	4	Finca Santa Victoria	9	Septiembre	2023-09-15T00:00:00	2024-11-08T10:00:00	1	Precipitación	0
130700	7	Sololá	701	Sololá	4	Finca Santa Victoria	9	Septiembre	2023-09-15T00:00:00	2024-11-08T10:00:00	8	Radiación solar	196
130701	7	Sololá	701	Sololá	4	Finca Santa Victoria	9	Septiembre	2023-09-15T00:00:00	2024-11-08T11:00:00	2	Temperatura media	19.2
130702	7	Sololá	701	Sololá	4	Finca Santa Victoria	9	Septiembre	2023-09-15T00:00:00	2024-11-08T11:00:00	4	Temperatura máxima	19.2
130703	7	Sololá	701	Sololá	4	Finca Santa Victoria	9	Septiembre	2023-09-15T00:00:00	2024-11-08T11:00:00	3	Temperatura mínima	18.1
130704	7	Sololá	701	Sololá	4	Finca Santa Victoria	9	Septiembre	2023-09-15T00:00:00	2024-11-08T11:00:00	5	Humedad	72
130705	7	Sololá	701	Sololá	4	Finca Santa Victoria	9	Septiembre	2023-09-15T00:00:00	2024-11-08T11:00:00	6	Velocidad del viento	1.6
130706	7	Sololá	701	Sololá	4	Finca Santa Victoria	9	Septiembre	2023-09-15T00:00:00	2024-11-08T11:00:00	7	Dirección del viento	1.61
130707	7	Sololá	701	Sololá	4	Finca Santa Victoria	9	Septiembre	2023-09-15T00:00:00	2024-11-08T11:00:00	1	Precipitación	0
130708	7	Sololá	701	Sololá	4	Finca Santa Victoria	9	Septiembre	2023-09-15T00:00:00	2024-11-08T11:00:00	8	Radiación solar	188
130709	7	Sololá	701	Sololá	4	Finca Santa Victoria	9	Septiembre	2023-09-15T00:00:00	2024-11-08T12:00:00	2	Temperatura media	20.2
130710	7	Sololá	701	Sololá	4	Finca Santa Victoria	9	Septiembre	2023-09-15T00:00:00	2024-11-08T12:00:00	4	Temperatura máxima	20.2
130711	7	Sololá	701	Sololá	4	Finca Santa Victoria	9	Septiembre	2023-09-15T00:00:00	2024-11-08T12:00:00	3	Temperatura mínima	19.1
130712	7	Sololá	701	Sololá	4	Finca Santa Victoria	9	Septiembre	2023-09-15T00:00:00	2024-11-08T12:00:00	5	Humedad	73
130713	7	Sololá	701	Sololá	4	Finca Santa Victoria	9	Septiembre	2023-09-15T00:00:00	2024-11-08T12:00:00	6	Velocidad del viento	1.6
130714	7	Sololá	701	Sololá	4	Finca Santa Victoria	9	Septiembre	2023-09-15T00:00:00	2024-11-08T12:00:00	7	Dirección del viento	1.61
130715	7	Sololá	701	Sololá	4	Finca Santa Victoria	9	Septiembre	2023-09-15T00:00:00	2024-11-08T12:00:00	1	Precipitación	0
130716	7	Sololá	701	Sololá	4	Finca Santa Victoria	9	Septiembre	2023-09-15T00:00:00	2024-11-08T12:00:00	8	Radiación solar	236
130717	7	Sololá	701	Sololá	4	Finca Santa Victoria	9	Septiembre	2023-09-15T00:00:00	2024-11-08T13:00:00	2	Temperatura media	19
130718	7	Sololá	701	Sololá	4	Finca Santa Victoria	9	Septiembre	2023-09-15T00:00:00	2024-11-08T13:00:00	4	Temperatura máxima	20.3
130719	7	Sololá	701	Sololá	4	Finca Santa Victoria	9	Septiembre	2023-09-15T00:00:00	2024-11-08T13:00:00	3	Temperatura mínima	19
130720	7	Sololá	701	Sololá	4	Finca Santa Victoria	9	Septiembre	2023-09-15T00:00:00	2024-11-08T13:00:00	5	Humedad	86
130721	7	Sololá	701	Sololá	4	Finca Santa Victoria	9	Septiembre	2023-09-15T00:00:00	2024-11-08T13:00:00	6	Velocidad del viento	1.6
130722	7	Sololá	701	Sololá	4	Finca Santa Victoria	9	Septiembre	2023-09-15T00:00:00	2024-11-08T13:00:00	7	Dirección del viento	1.61
130723	7	Sololá	701	Sololá	4	Finca Santa Victoria	9	Septiembre	2023-09-15T00:00:00	2024-11-08T13:00:00	1	Precipitación	0
130724	7	Sololá	701	Sololá	4	Finca Santa Victoria	9	Septiembre	2023-09-15T00:00:00	2024-11-08T13:00:00	8	Radiación solar	214
130725	7	Sololá	701	Sololá	4	Finca Santa Victoria	9	Septiembre	2023-09-15T00:00:00	2024-11-08T14:00:00	2	Temperatura media	17.9
130726	7	Sololá	701	Sololá	4	Finca Santa Victoria	9	Septiembre	2023-09-15T00:00:00	2024-11-08T14:00:00	4	Temperatura máxima	19
130727	7	Sololá	701	Sololá	4	Finca Santa Victoria	9	Septiembre	2023-09-15T00:00:00	2024-11-08T14:00:00	3	Temperatura mínima	17.9
130728	7	Sololá	701	Sololá	4	Finca Santa Victoria	9	Septiembre	2023-09-15T00:00:00	2024-11-08T14:00:00	5	Humedad	92
130729	7	Sololá	701	Sololá	4	Finca Santa Victoria	9	Septiembre	2023-09-15T00:00:00	2024-11-08T14:00:00	6	Velocidad del viento	1.6
130730	7	Sololá	701	Sololá	4	Finca Santa Victoria	9	Septiembre	2023-09-15T00:00:00	2024-11-08T14:00:00	7	Dirección del viento	1.61
130731	7	Sololá	701	Sololá	4	Finca Santa Victoria	9	Septiembre	2023-09-15T00:00:00	2024-11-08T14:00:00	1	Precipitación	0
130732	7	Sololá	701	Sololá	4	Finca Santa Victoria	9	Septiembre	2023-09-15T00:00:00	2024-11-08T14:00:00	8	Radiación solar	102
130733	7	Sololá	701	Sololá	4	Finca Santa Victoria	9	Septiembre	2023-09-15T00:00:00	2024-11-08T15:00:00	2	Temperatura media	19.2
130734	7	Sololá	701	Sololá	4	Finca Santa Victoria	9	Septiembre	2023-09-15T00:00:00	2024-11-08T15:00:00	4	Temperatura máxima	19.4
130735	7	Sololá	701	Sololá	4	Finca Santa Victoria	9	Septiembre	2023-09-15T00:00:00	2024-11-08T15:00:00	3	Temperatura mínima	17.7
130736	7	Sololá	701	Sololá	4	Finca Santa Victoria	9	Septiembre	2023-09-15T00:00:00	2024-11-08T15:00:00	5	Humedad	87
130737	7	Sololá	701	Sololá	4	Finca Santa Victoria	9	Septiembre	2023-09-15T00:00:00	2024-11-08T15:00:00	6	Velocidad del viento	1.6
130738	7	Sololá	701	Sololá	4	Finca Santa Victoria	9	Septiembre	2023-09-15T00:00:00	2024-11-08T15:00:00	7	Dirección del viento	1.61
130739	7	Sololá	701	Sololá	4	Finca Santa Victoria	9	Septiembre	2023-09-15T00:00:00	2024-11-08T15:00:00	1	Precipitación	0
130740	7	Sololá	701	Sololá	4	Finca Santa Victoria	9	Septiembre	2023-09-15T00:00:00	2024-11-08T15:00:00	8	Radiación solar	157
130741	7	Sololá	701	Sololá	4	Finca Santa Victoria	9	Septiembre	2023-09-15T00:00:00	2024-11-08T16:00:00	2	Temperatura media	17.1
130742	7	Sololá	701	Sololá	4	Finca Santa Victoria	9	Septiembre	2023-09-15T00:00:00	2024-11-08T16:00:00	4	Temperatura máxima	19.2
130743	7	Sololá	701	Sololá	4	Finca Santa Victoria	9	Septiembre	2023-09-15T00:00:00	2024-11-08T16:00:00	3	Temperatura mínima	17
130744	7	Sololá	701	Sololá	4	Finca Santa Victoria	9	Septiembre	2023-09-15T00:00:00	2024-11-08T16:00:00	5	Humedad	95
130745	7	Sololá	701	Sololá	4	Finca Santa Victoria	9	Septiembre	2023-09-15T00:00:00	2024-11-08T16:00:00	6	Velocidad del viento	1.6
130746	7	Sololá	701	Sololá	4	Finca Santa Victoria	9	Septiembre	2023-09-15T00:00:00	2024-11-08T16:00:00	7	Dirección del viento	1.61
130747	7	Sololá	701	Sololá	4	Finca Santa Victoria	9	Septiembre	2023-09-15T00:00:00	2024-11-08T16:00:00	1	Precipitación	0
130748	7	Sololá	701	Sololá	4	Finca Santa Victoria	9	Septiembre	2023-09-15T00:00:00	2024-11-08T16:00:00	8	Radiación solar	99
130749	7	Sololá	701	Sololá	4	Finca Santa Victoria	9	Septiembre	2023-09-15T00:00:00	2024-11-08T17:00:00	2	Temperatura media	15.7
130750	7	Sololá	701	Sololá	4	Finca Santa Victoria	9	Septiembre	2023-09-15T00:00:00	2024-11-08T17:00:00	4	Temperatura máxima	17.1
130751	7	Sololá	701	Sololá	4	Finca Santa Victoria	9	Septiembre	2023-09-15T00:00:00	2024-11-08T17:00:00	3	Temperatura mínima	15.7
130752	7	Sololá	701	Sololá	4	Finca Santa Victoria	9	Septiembre	2023-09-15T00:00:00	2024-11-08T17:00:00	5	Humedad	97
130753	7	Sololá	701	Sololá	4	Finca Santa Victoria	9	Septiembre	2023-09-15T00:00:00	2024-11-08T17:00:00	6	Velocidad del viento	1.6
130754	7	Sololá	701	Sololá	4	Finca Santa Victoria	9	Septiembre	2023-09-15T00:00:00	2024-11-08T17:00:00	7	Dirección del viento	1.61
130755	7	Sololá	701	Sololá	4	Finca Santa Victoria	9	Septiembre	2023-09-15T00:00:00	2024-11-08T17:00:00	1	Precipitación	0
130756	7	Sololá	701	Sololá	4	Finca Santa Victoria	9	Septiembre	2023-09-15T00:00:00	2024-11-08T17:00:00	8	Radiación solar	37
130757	7	Sololá	701	Sololá	4	Finca Santa Victoria	9	Septiembre	2023-09-15T00:00:00	2024-11-08T18:00:00	2	Temperatura media	15.2
130758	7	Sololá	701	Sololá	4	Finca Santa Victoria	9	Septiembre	2023-09-15T00:00:00	2024-11-08T18:00:00	4	Temperatura máxima	15.7
130759	7	Sololá	701	Sololá	4	Finca Santa Victoria	9	Septiembre	2023-09-15T00:00:00	2024-11-08T18:00:00	3	Temperatura mínima	15.1
130760	7	Sololá	701	Sololá	4	Finca Santa Victoria	9	Septiembre	2023-09-15T00:00:00	2024-11-08T18:00:00	5	Humedad	97
130761	7	Sololá	701	Sololá	4	Finca Santa Victoria	9	Septiembre	2023-09-15T00:00:00	2024-11-08T18:00:00	6	Velocidad del viento	1.6
130762	7	Sololá	701	Sololá	4	Finca Santa Victoria	9	Septiembre	2023-09-15T00:00:00	2024-11-08T18:00:00	7	Dirección del viento	1.61
130763	7	Sololá	701	Sololá	4	Finca Santa Victoria	9	Septiembre	2023-09-15T00:00:00	2024-11-08T18:00:00	1	Precipitación	0
130764	7	Sololá	701	Sololá	4	Finca Santa Victoria	9	Septiembre	2023-09-15T00:00:00	2024-11-08T18:00:00	8	Radiación solar	16
130765	7	Sololá	701	Sololá	4	Finca Santa Victoria	9	Septiembre	2023-09-15T00:00:00	2024-11-08T19:00:00	2	Temperatura media	14.3
130766	7	Sololá	701	Sololá	4	Finca Santa Victoria	9	Septiembre	2023-09-15T00:00:00	2024-11-08T19:00:00	4	Temperatura máxima	15.2
130767	7	Sololá	701	Sololá	4	Finca Santa Victoria	9	Septiembre	2023-09-15T00:00:00	2024-11-08T19:00:00	3	Temperatura mínima	14.3
130768	7	Sololá	701	Sololá	4	Finca Santa Victoria	9	Septiembre	2023-09-15T00:00:00	2024-11-08T19:00:00	5	Humedad	94
130769	7	Sololá	701	Sololá	4	Finca Santa Victoria	9	Septiembre	2023-09-15T00:00:00	2024-11-08T19:00:00	6	Velocidad del viento	1.6
130770	7	Sololá	701	Sololá	4	Finca Santa Victoria	9	Septiembre	2023-09-15T00:00:00	2024-11-08T19:00:00	7	Dirección del viento	1.61
130771	7	Sololá	701	Sololá	4	Finca Santa Victoria	9	Septiembre	2023-09-15T00:00:00	2024-11-08T19:00:00	1	Precipitación	0
130772	7	Sololá	701	Sololá	4	Finca Santa Victoria	9	Septiembre	2023-09-15T00:00:00	2024-11-08T19:00:00	8	Radiación solar	0
130773	7	Sololá	701	Sololá	4	Finca Santa Victoria	9	Septiembre	2023-09-15T00:00:00	2024-11-08T20:00:00	2	Temperatura media	14.5
130774	7	Sololá	701	Sololá	4	Finca Santa Victoria	9	Septiembre	2023-09-15T00:00:00	2024-11-08T20:00:00	4	Temperatura máxima	14.5
130775	7	Sololá	701	Sololá	4	Finca Santa Victoria	9	Septiembre	2023-09-15T00:00:00	2024-11-08T20:00:00	3	Temperatura mínima	14.1
130776	7	Sololá	701	Sololá	4	Finca Santa Victoria	9	Septiembre	2023-09-15T00:00:00	2024-11-08T20:00:00	5	Humedad	90
130777	7	Sololá	701	Sololá	4	Finca Santa Victoria	9	Septiembre	2023-09-15T00:00:00	2024-11-08T20:00:00	6	Velocidad del viento	1.6
130778	7	Sololá	701	Sololá	4	Finca Santa Victoria	9	Septiembre	2023-09-15T00:00:00	2024-11-08T20:00:00	7	Dirección del viento	1.61
130779	7	Sololá	701	Sololá	4	Finca Santa Victoria	9	Septiembre	2023-09-15T00:00:00	2024-11-08T20:00:00	1	Precipitación	0
130780	7	Sololá	701	Sololá	4	Finca Santa Victoria	9	Septiembre	2023-09-15T00:00:00	2024-11-08T20:00:00	8	Radiación solar	0
130781	7	Sololá	701	Sololá	4	Finca Santa Victoria	9	Septiembre	2023-09-15T00:00:00	2024-11-08T21:00:00	2	Temperatura media	14.3
130782	7	Sololá	701	Sololá	4	Finca Santa Victoria	9	Septiembre	2023-09-15T00:00:00	2024-11-08T21:00:00	4	Temperatura máxima	14.7
130783	7	Sololá	701	Sololá	4	Finca Santa Victoria	9	Septiembre	2023-09-15T00:00:00	2024-11-08T21:00:00	3	Temperatura mínima	13.9
130784	7	Sololá	701	Sololá	4	Finca Santa Victoria	9	Septiembre	2023-09-15T00:00:00	2024-11-08T21:00:00	5	Humedad	89
130785	7	Sololá	701	Sololá	4	Finca Santa Victoria	9	Septiembre	2023-09-15T00:00:00	2024-11-08T21:00:00	6	Velocidad del viento	1.6
130786	7	Sololá	701	Sololá	4	Finca Santa Victoria	9	Septiembre	2023-09-15T00:00:00	2024-11-08T21:00:00	7	Dirección del viento	1.61
130787	7	Sololá	701	Sololá	4	Finca Santa Victoria	9	Septiembre	2023-09-15T00:00:00	2024-11-08T21:00:00	1	Precipitación	0
130788	7	Sololá	701	Sololá	4	Finca Santa Victoria	9	Septiembre	2023-09-15T00:00:00	2024-11-08T21:00:00	8	Radiación solar	0
130789	7	Sololá	701	Sololá	4	Finca Santa Victoria	9	Septiembre	2023-09-15T00:00:00	2024-11-08T22:00:00	2	Temperatura media	13.9
130790	7	Sololá	701	Sololá	4	Finca Santa Victoria	9	Septiembre	2023-09-15T00:00:00	2024-11-08T22:00:00	4	Temperatura máxima	14.3
130791	7	Sololá	701	Sololá	4	Finca Santa Victoria	9	Septiembre	2023-09-15T00:00:00	2024-11-08T22:00:00	3	Temperatura mínima	13.8
130792	7	Sololá	701	Sololá	4	Finca Santa Victoria	9	Septiembre	2023-09-15T00:00:00	2024-11-08T22:00:00	5	Humedad	92
130793	7	Sololá	701	Sololá	4	Finca Santa Victoria	9	Septiembre	2023-09-15T00:00:00	2024-11-08T22:00:00	6	Velocidad del viento	1.6
130794	7	Sololá	701	Sololá	4	Finca Santa Victoria	9	Septiembre	2023-09-15T00:00:00	2024-11-08T22:00:00	7	Dirección del viento	1.61
130795	7	Sololá	701	Sololá	4	Finca Santa Victoria	9	Septiembre	2023-09-15T00:00:00	2024-11-08T22:00:00	1	Precipitación	0
130796	7	Sololá	701	Sololá	4	Finca Santa Victoria	9	Septiembre	2023-09-15T00:00:00	2024-11-08T22:00:00	8	Radiación solar	0
130797	7	Sololá	701	Sololá	4	Finca Santa Victoria	9	Septiembre	2023-09-15T00:00:00	2024-11-08T23:00:00	2	Temperatura media	13.3
130798	7	Sololá	701	Sololá	4	Finca Santa Victoria	9	Septiembre	2023-09-15T00:00:00	2024-11-08T23:00:00	4	Temperatura máxima	13.9
130799	7	Sololá	701	Sololá	4	Finca Santa Victoria	9	Septiembre	2023-09-15T00:00:00	2024-11-08T23:00:00	3	Temperatura mínima	13.3
130800	7	Sololá	701	Sololá	4	Finca Santa Victoria	9	Septiembre	2023-09-15T00:00:00	2024-11-08T23:00:00	5	Humedad	92
130801	7	Sololá	701	Sololá	4	Finca Santa Victoria	9	Septiembre	2023-09-15T00:00:00	2024-11-08T23:00:00	6	Velocidad del viento	0
130802	7	Sololá	701	Sololá	4	Finca Santa Victoria	9	Septiembre	2023-09-15T00:00:00	2024-11-08T23:00:00	7	Dirección del viento	0
130803	7	Sololá	701	Sololá	4	Finca Santa Victoria	9	Septiembre	2023-09-15T00:00:00	2024-11-08T23:00:00	1	Precipitación	0
130804	7	Sololá	701	Sololá	4	Finca Santa Victoria	9	Septiembre	2023-09-15T00:00:00	2024-11-08T23:00:00	8	Radiación solar	0
130805	7	Sololá	701	Sololá	4	Finca Santa Victoria	9	Septiembre	2023-09-16T00:00:00	2024-11-08T00:00:00	2	Temperatura media	13.4
130806	7	Sololá	701	Sololá	4	Finca Santa Victoria	9	Septiembre	2023-09-16T00:00:00	2024-11-08T00:00:00	4	Temperatura máxima	13.4
130807	7	Sololá	701	Sololá	4	Finca Santa Victoria	9	Septiembre	2023-09-16T00:00:00	2024-11-08T00:00:00	3	Temperatura mínima	13.2
130808	7	Sololá	701	Sololá	4	Finca Santa Victoria	9	Septiembre	2023-09-16T00:00:00	2024-11-08T00:00:00	5	Humedad	91
130809	7	Sololá	701	Sololá	4	Finca Santa Victoria	9	Septiembre	2023-09-16T00:00:00	2024-11-08T00:00:00	6	Velocidad del viento	0
130810	7	Sololá	701	Sololá	4	Finca Santa Victoria	9	Septiembre	2023-09-16T00:00:00	2024-11-08T00:00:00	7	Dirección del viento	0
130811	7	Sololá	701	Sololá	4	Finca Santa Victoria	9	Septiembre	2023-09-16T00:00:00	2024-11-08T00:00:00	1	Precipitación	0
130812	7	Sololá	701	Sololá	4	Finca Santa Victoria	9	Septiembre	2023-09-16T00:00:00	2024-11-08T00:00:00	8	Radiación solar	0
130813	7	Sololá	701	Sololá	4	Finca Santa Victoria	9	Septiembre	2023-09-16T00:00:00	2024-11-08T01:00:00	2	Temperatura media	13.3
130814	7	Sololá	701	Sololá	4	Finca Santa Victoria	9	Septiembre	2023-09-16T00:00:00	2024-11-08T01:00:00	4	Temperatura máxima	13.4
130815	7	Sololá	701	Sololá	4	Finca Santa Victoria	9	Septiembre	2023-09-16T00:00:00	2024-11-08T01:00:00	3	Temperatura mínima	13.1
130816	7	Sololá	701	Sololá	4	Finca Santa Victoria	9	Septiembre	2023-09-16T00:00:00	2024-11-08T01:00:00	5	Humedad	89
130817	7	Sololá	701	Sololá	4	Finca Santa Victoria	9	Septiembre	2023-09-16T00:00:00	2024-11-08T01:00:00	6	Velocidad del viento	1.6
130818	7	Sololá	701	Sololá	4	Finca Santa Victoria	9	Septiembre	2023-09-16T00:00:00	2024-11-08T01:00:00	7	Dirección del viento	1.61
130819	7	Sololá	701	Sololá	4	Finca Santa Victoria	9	Septiembre	2023-09-16T00:00:00	2024-11-08T01:00:00	1	Precipitación	0
130820	7	Sololá	701	Sololá	4	Finca Santa Victoria	9	Septiembre	2023-09-16T00:00:00	2024-11-08T01:00:00	8	Radiación solar	0
130821	7	Sololá	701	Sololá	4	Finca Santa Victoria	9	Septiembre	2023-09-16T00:00:00	2024-11-08T02:00:00	2	Temperatura media	13.4
130822	7	Sololá	701	Sololá	4	Finca Santa Victoria	9	Septiembre	2023-09-16T00:00:00	2024-11-08T02:00:00	4	Temperatura máxima	13.7
130823	7	Sololá	701	Sololá	4	Finca Santa Victoria	9	Septiembre	2023-09-16T00:00:00	2024-11-08T02:00:00	3	Temperatura mínima	13.3
130824	7	Sololá	701	Sololá	4	Finca Santa Victoria	9	Septiembre	2023-09-16T00:00:00	2024-11-08T02:00:00	5	Humedad	88
130825	7	Sololá	701	Sololá	4	Finca Santa Victoria	9	Septiembre	2023-09-16T00:00:00	2024-11-08T02:00:00	6	Velocidad del viento	1.6
130826	7	Sololá	701	Sololá	4	Finca Santa Victoria	9	Septiembre	2023-09-16T00:00:00	2024-11-08T02:00:00	7	Dirección del viento	1.61
130827	7	Sololá	701	Sololá	4	Finca Santa Victoria	9	Septiembre	2023-09-16T00:00:00	2024-11-08T02:00:00	1	Precipitación	0
130828	7	Sololá	701	Sololá	4	Finca Santa Victoria	9	Septiembre	2023-09-16T00:00:00	2024-11-08T02:00:00	8	Radiación solar	0
130829	7	Sololá	701	Sololá	4	Finca Santa Victoria	9	Septiembre	2023-09-16T00:00:00	2024-11-08T03:00:00	2	Temperatura media	13.4
130830	7	Sololá	701	Sololá	4	Finca Santa Victoria	9	Septiembre	2023-09-16T00:00:00	2024-11-08T03:00:00	4	Temperatura máxima	13.6
130831	7	Sololá	701	Sololá	4	Finca Santa Victoria	9	Septiembre	2023-09-16T00:00:00	2024-11-08T03:00:00	3	Temperatura mínima	13.3
130832	7	Sololá	701	Sololá	4	Finca Santa Victoria	9	Septiembre	2023-09-16T00:00:00	2024-11-08T03:00:00	5	Humedad	88
130833	7	Sololá	701	Sololá	4	Finca Santa Victoria	9	Septiembre	2023-09-16T00:00:00	2024-11-08T03:00:00	6	Velocidad del viento	3.2
130834	7	Sololá	701	Sololá	4	Finca Santa Victoria	9	Septiembre	2023-09-16T00:00:00	2024-11-08T03:00:00	7	Dirección del viento	3.22
130835	7	Sololá	701	Sololá	4	Finca Santa Victoria	9	Septiembre	2023-09-16T00:00:00	2024-11-08T03:00:00	1	Precipitación	0
130836	7	Sololá	701	Sololá	4	Finca Santa Victoria	9	Septiembre	2023-09-16T00:00:00	2024-11-08T03:00:00	8	Radiación solar	0
130837	7	Sololá	701	Sololá	4	Finca Santa Victoria	9	Septiembre	2023-09-16T00:00:00	2024-11-08T04:00:00	2	Temperatura media	13.6
130838	7	Sololá	701	Sololá	4	Finca Santa Victoria	9	Septiembre	2023-09-16T00:00:00	2024-11-08T04:00:00	4	Temperatura máxima	13.6
130839	7	Sololá	701	Sololá	4	Finca Santa Victoria	9	Septiembre	2023-09-16T00:00:00	2024-11-08T04:00:00	3	Temperatura mínima	13.3
130840	7	Sololá	701	Sololá	4	Finca Santa Victoria	9	Septiembre	2023-09-16T00:00:00	2024-11-08T04:00:00	5	Humedad	88
130841	7	Sololá	701	Sololá	4	Finca Santa Victoria	9	Septiembre	2023-09-16T00:00:00	2024-11-08T04:00:00	6	Velocidad del viento	3.2
130842	7	Sololá	701	Sololá	4	Finca Santa Victoria	9	Septiembre	2023-09-16T00:00:00	2024-11-08T04:00:00	7	Dirección del viento	3.22
130843	7	Sololá	701	Sololá	4	Finca Santa Victoria	9	Septiembre	2023-09-16T00:00:00	2024-11-08T04:00:00	1	Precipitación	0
130844	7	Sololá	701	Sololá	4	Finca Santa Victoria	9	Septiembre	2023-09-16T00:00:00	2024-11-08T04:00:00	8	Radiación solar	0
130845	7	Sololá	701	Sololá	4	Finca Santa Victoria	9	Septiembre	2023-09-16T00:00:00	2024-11-08T05:00:00	2	Temperatura media	13.3
130846	7	Sololá	701	Sololá	4	Finca Santa Victoria	9	Septiembre	2023-09-16T00:00:00	2024-11-08T05:00:00	4	Temperatura máxima	13.7
130847	7	Sololá	701	Sololá	4	Finca Santa Victoria	9	Septiembre	2023-09-16T00:00:00	2024-11-08T05:00:00	3	Temperatura mínima	13.3
130848	7	Sololá	701	Sololá	4	Finca Santa Victoria	9	Septiembre	2023-09-16T00:00:00	2024-11-08T05:00:00	5	Humedad	87
130849	7	Sololá	701	Sololá	4	Finca Santa Victoria	9	Septiembre	2023-09-16T00:00:00	2024-11-08T05:00:00	6	Velocidad del viento	1.6
130850	7	Sololá	701	Sololá	4	Finca Santa Victoria	9	Septiembre	2023-09-16T00:00:00	2024-11-08T05:00:00	7	Dirección del viento	1.61
130851	7	Sololá	701	Sololá	4	Finca Santa Victoria	9	Septiembre	2023-09-16T00:00:00	2024-11-08T05:00:00	1	Precipitación	0
130852	7	Sololá	701	Sololá	4	Finca Santa Victoria	9	Septiembre	2023-09-16T00:00:00	2024-11-08T05:00:00	8	Radiación solar	0
130853	7	Sololá	701	Sololá	4	Finca Santa Victoria	9	Septiembre	2023-09-16T00:00:00	2024-11-08T06:00:00	2	Temperatura media	13.2
130854	7	Sololá	701	Sololá	4	Finca Santa Victoria	9	Septiembre	2023-09-16T00:00:00	2024-11-08T06:00:00	4	Temperatura máxima	13.4
130855	7	Sololá	701	Sololá	4	Finca Santa Victoria	9	Septiembre	2023-09-16T00:00:00	2024-11-08T06:00:00	3	Temperatura mínima	13.1
130856	7	Sololá	701	Sololá	4	Finca Santa Victoria	9	Septiembre	2023-09-16T00:00:00	2024-11-08T06:00:00	5	Humedad	88
130857	7	Sololá	701	Sololá	4	Finca Santa Victoria	9	Septiembre	2023-09-16T00:00:00	2024-11-08T06:00:00	6	Velocidad del viento	1.6
130858	7	Sololá	701	Sololá	4	Finca Santa Victoria	9	Septiembre	2023-09-16T00:00:00	2024-11-08T06:00:00	7	Dirección del viento	1.61
130859	7	Sololá	701	Sololá	4	Finca Santa Victoria	9	Septiembre	2023-09-16T00:00:00	2024-11-08T06:00:00	1	Precipitación	0
130860	7	Sololá	701	Sololá	4	Finca Santa Victoria	9	Septiembre	2023-09-16T00:00:00	2024-11-08T06:00:00	8	Radiación solar	0
130861	7	Sololá	701	Sololá	4	Finca Santa Victoria	9	Septiembre	2023-09-16T00:00:00	2024-11-08T07:00:00	2	Temperatura media	13.9
130862	7	Sololá	701	Sololá	4	Finca Santa Victoria	9	Septiembre	2023-09-16T00:00:00	2024-11-08T07:00:00	4	Temperatura máxima	13.9
130863	7	Sololá	701	Sololá	4	Finca Santa Victoria	9	Septiembre	2023-09-16T00:00:00	2024-11-08T07:00:00	3	Temperatura mínima	13.2
130864	7	Sololá	701	Sololá	4	Finca Santa Victoria	9	Septiembre	2023-09-16T00:00:00	2024-11-08T07:00:00	5	Humedad	87
130865	7	Sololá	701	Sololá	4	Finca Santa Victoria	9	Septiembre	2023-09-16T00:00:00	2024-11-08T07:00:00	6	Velocidad del viento	3.2
130866	7	Sololá	701	Sololá	4	Finca Santa Victoria	9	Septiembre	2023-09-16T00:00:00	2024-11-08T07:00:00	7	Dirección del viento	3.22
130867	7	Sololá	701	Sololá	4	Finca Santa Victoria	9	Septiembre	2023-09-16T00:00:00	2024-11-08T07:00:00	1	Precipitación	0
130868	7	Sololá	701	Sololá	4	Finca Santa Victoria	9	Septiembre	2023-09-16T00:00:00	2024-11-08T07:00:00	8	Radiación solar	18
130869	7	Sololá	701	Sololá	4	Finca Santa Victoria	9	Septiembre	2023-09-16T00:00:00	2024-11-08T08:00:00	2	Temperatura media	15.9
130870	7	Sololá	701	Sololá	4	Finca Santa Victoria	9	Septiembre	2023-09-16T00:00:00	2024-11-08T08:00:00	4	Temperatura máxima	15.9
130871	7	Sololá	701	Sololá	4	Finca Santa Victoria	9	Septiembre	2023-09-16T00:00:00	2024-11-08T08:00:00	3	Temperatura mínima	13.9
130872	7	Sololá	701	Sololá	4	Finca Santa Victoria	9	Septiembre	2023-09-16T00:00:00	2024-11-08T08:00:00	5	Humedad	82
130873	7	Sololá	701	Sololá	4	Finca Santa Victoria	9	Septiembre	2023-09-16T00:00:00	2024-11-08T08:00:00	6	Velocidad del viento	3.2
130874	7	Sololá	701	Sololá	4	Finca Santa Victoria	9	Septiembre	2023-09-16T00:00:00	2024-11-08T08:00:00	7	Dirección del viento	3.22
130875	7	Sololá	701	Sololá	4	Finca Santa Victoria	9	Septiembre	2023-09-16T00:00:00	2024-11-08T08:00:00	1	Precipitación	0
130876	7	Sololá	701	Sololá	4	Finca Santa Victoria	9	Septiembre	2023-09-16T00:00:00	2024-11-08T08:00:00	8	Radiación solar	266
130877	7	Sololá	701	Sololá	4	Finca Santa Victoria	9	Septiembre	2023-09-16T00:00:00	2024-11-08T09:00:00	2	Temperatura media	17.3
130878	7	Sololá	701	Sololá	4	Finca Santa Victoria	9	Septiembre	2023-09-16T00:00:00	2024-11-08T09:00:00	4	Temperatura máxima	17.3
130879	7	Sololá	701	Sololá	4	Finca Santa Victoria	9	Septiembre	2023-09-16T00:00:00	2024-11-08T09:00:00	3	Temperatura mínima	15.9
130880	7	Sololá	701	Sololá	4	Finca Santa Victoria	9	Septiembre	2023-09-16T00:00:00	2024-11-08T09:00:00	5	Humedad	79
130881	7	Sololá	701	Sololá	4	Finca Santa Victoria	9	Septiembre	2023-09-16T00:00:00	2024-11-08T09:00:00	6	Velocidad del viento	4.8
130882	7	Sololá	701	Sololá	4	Finca Santa Victoria	9	Septiembre	2023-09-16T00:00:00	2024-11-08T09:00:00	7	Dirección del viento	4.83
130883	7	Sololá	701	Sololá	4	Finca Santa Victoria	9	Septiembre	2023-09-16T00:00:00	2024-11-08T09:00:00	1	Precipitación	0
130884	7	Sololá	701	Sololá	4	Finca Santa Victoria	9	Septiembre	2023-09-16T00:00:00	2024-11-08T09:00:00	8	Radiación solar	293
130885	7	Sololá	701	Sololá	4	Finca Santa Victoria	9	Septiembre	2023-09-16T00:00:00	2024-11-08T10:00:00	2	Temperatura media	20.3
130886	7	Sololá	701	Sololá	4	Finca Santa Victoria	9	Septiembre	2023-09-16T00:00:00	2024-11-08T10:00:00	4	Temperatura máxima	20.3
130887	7	Sololá	701	Sololá	4	Finca Santa Victoria	9	Septiembre	2023-09-16T00:00:00	2024-11-08T10:00:00	3	Temperatura mínima	17.3
130888	7	Sololá	701	Sololá	4	Finca Santa Victoria	9	Septiembre	2023-09-16T00:00:00	2024-11-08T10:00:00	5	Humedad	71
130889	7	Sololá	701	Sololá	4	Finca Santa Victoria	9	Septiembre	2023-09-16T00:00:00	2024-11-08T10:00:00	6	Velocidad del viento	3.2
130890	7	Sololá	701	Sololá	4	Finca Santa Victoria	9	Septiembre	2023-09-16T00:00:00	2024-11-08T10:00:00	7	Dirección del viento	3.22
130891	7	Sololá	701	Sololá	4	Finca Santa Victoria	9	Septiembre	2023-09-16T00:00:00	2024-11-08T10:00:00	1	Precipitación	0
130892	7	Sololá	701	Sololá	4	Finca Santa Victoria	9	Septiembre	2023-09-16T00:00:00	2024-11-08T10:00:00	8	Radiación solar	667
130893	7	Sololá	701	Sololá	4	Finca Santa Victoria	9	Septiembre	2023-09-16T00:00:00	2024-11-08T11:00:00	2	Temperatura media	21.4
130894	7	Sololá	701	Sololá	4	Finca Santa Victoria	9	Septiembre	2023-09-16T00:00:00	2024-11-08T11:00:00	4	Temperatura máxima	21.4
130895	7	Sololá	701	Sololá	4	Finca Santa Victoria	9	Septiembre	2023-09-16T00:00:00	2024-11-08T11:00:00	3	Temperatura mínima	20.2
130896	7	Sololá	701	Sololá	4	Finca Santa Victoria	9	Septiembre	2023-09-16T00:00:00	2024-11-08T11:00:00	5	Humedad	62
130897	7	Sololá	701	Sololá	4	Finca Santa Victoria	9	Septiembre	2023-09-16T00:00:00	2024-11-08T11:00:00	6	Velocidad del viento	3.2
130898	7	Sololá	701	Sololá	4	Finca Santa Victoria	9	Septiembre	2023-09-16T00:00:00	2024-11-08T11:00:00	7	Dirección del viento	3.22
130899	7	Sololá	701	Sololá	4	Finca Santa Victoria	9	Septiembre	2023-09-16T00:00:00	2024-11-08T11:00:00	1	Precipitación	0
130900	7	Sololá	701	Sololá	4	Finca Santa Victoria	9	Septiembre	2023-09-16T00:00:00	2024-11-08T11:00:00	8	Radiación solar	989
130901	7	Sololá	701	Sololá	4	Finca Santa Victoria	9	Septiembre	2023-09-16T00:00:00	2024-11-08T12:00:00	2	Temperatura media	22.1
130902	7	Sololá	701	Sololá	4	Finca Santa Victoria	9	Septiembre	2023-09-16T00:00:00	2024-11-08T12:00:00	4	Temperatura máxima	22.2
130903	7	Sololá	701	Sololá	4	Finca Santa Victoria	9	Septiembre	2023-09-16T00:00:00	2024-11-08T12:00:00	3	Temperatura mínima	20.4
130904	7	Sololá	701	Sololá	4	Finca Santa Victoria	9	Septiembre	2023-09-16T00:00:00	2024-11-08T12:00:00	5	Humedad	61
130905	7	Sololá	701	Sololá	4	Finca Santa Victoria	9	Septiembre	2023-09-16T00:00:00	2024-11-08T12:00:00	6	Velocidad del viento	4.8
130906	7	Sololá	701	Sololá	4	Finca Santa Victoria	9	Septiembre	2023-09-16T00:00:00	2024-11-08T12:00:00	7	Dirección del viento	4.83
130907	7	Sololá	701	Sololá	4	Finca Santa Victoria	9	Septiembre	2023-09-16T00:00:00	2024-11-08T12:00:00	1	Precipitación	0
130908	7	Sololá	701	Sololá	4	Finca Santa Victoria	9	Septiembre	2023-09-16T00:00:00	2024-11-08T12:00:00	8	Radiación solar	521
130909	7	Sololá	701	Sololá	4	Finca Santa Victoria	9	Septiembre	2023-09-16T00:00:00	2024-11-08T13:00:00	2	Temperatura media	21.8
130910	7	Sololá	701	Sololá	4	Finca Santa Victoria	9	Septiembre	2023-09-16T00:00:00	2024-11-08T13:00:00	4	Temperatura máxima	22.1
130911	7	Sololá	701	Sololá	4	Finca Santa Victoria	9	Septiembre	2023-09-16T00:00:00	2024-11-08T13:00:00	3	Temperatura mínima	21.2
130912	7	Sololá	701	Sololá	4	Finca Santa Victoria	9	Septiembre	2023-09-16T00:00:00	2024-11-08T13:00:00	5	Humedad	63
130913	7	Sololá	701	Sololá	4	Finca Santa Victoria	9	Septiembre	2023-09-16T00:00:00	2024-11-08T13:00:00	6	Velocidad del viento	3.2
130914	7	Sololá	701	Sololá	4	Finca Santa Victoria	9	Septiembre	2023-09-16T00:00:00	2024-11-08T13:00:00	7	Dirección del viento	3.22
130915	7	Sololá	701	Sololá	4	Finca Santa Victoria	9	Septiembre	2023-09-16T00:00:00	2024-11-08T13:00:00	1	Precipitación	0
130916	7	Sololá	701	Sololá	4	Finca Santa Victoria	9	Septiembre	2023-09-16T00:00:00	2024-11-08T13:00:00	8	Radiación solar	152
130917	7	Sololá	701	Sololá	4	Finca Santa Victoria	9	Septiembre	2023-09-16T00:00:00	2024-11-08T14:00:00	2	Temperatura media	21.8
130918	7	Sololá	701	Sololá	4	Finca Santa Victoria	9	Septiembre	2023-09-16T00:00:00	2024-11-08T14:00:00	4	Temperatura máxima	22.3
130919	7	Sololá	701	Sololá	4	Finca Santa Victoria	9	Septiembre	2023-09-16T00:00:00	2024-11-08T14:00:00	3	Temperatura mínima	20.8
130920	7	Sololá	701	Sololá	4	Finca Santa Victoria	9	Septiembre	2023-09-16T00:00:00	2024-11-08T14:00:00	5	Humedad	63
130921	7	Sololá	701	Sololá	4	Finca Santa Victoria	9	Septiembre	2023-09-16T00:00:00	2024-11-08T14:00:00	6	Velocidad del viento	3.2
130922	7	Sololá	701	Sololá	4	Finca Santa Victoria	9	Septiembre	2023-09-16T00:00:00	2024-11-08T14:00:00	7	Dirección del viento	3.22
130923	7	Sololá	701	Sololá	4	Finca Santa Victoria	9	Septiembre	2023-09-16T00:00:00	2024-11-08T14:00:00	1	Precipitación	0
130924	7	Sololá	701	Sololá	4	Finca Santa Victoria	9	Septiembre	2023-09-16T00:00:00	2024-11-08T14:00:00	8	Radiación solar	129
130925	7	Sololá	701	Sololá	4	Finca Santa Victoria	9	Septiembre	2023-09-16T00:00:00	2024-11-08T15:00:00	2	Temperatura media	22.2
130926	7	Sololá	701	Sololá	4	Finca Santa Victoria	9	Septiembre	2023-09-16T00:00:00	2024-11-08T15:00:00	4	Temperatura máxima	22.3
130927	7	Sololá	701	Sololá	4	Finca Santa Victoria	9	Septiembre	2023-09-16T00:00:00	2024-11-08T15:00:00	3	Temperatura mínima	20.7
130928	7	Sololá	701	Sololá	4	Finca Santa Victoria	9	Septiembre	2023-09-16T00:00:00	2024-11-08T15:00:00	5	Humedad	62
130929	7	Sololá	701	Sololá	4	Finca Santa Victoria	9	Septiembre	2023-09-16T00:00:00	2024-11-08T15:00:00	6	Velocidad del viento	3.2
130930	7	Sololá	701	Sololá	4	Finca Santa Victoria	9	Septiembre	2023-09-16T00:00:00	2024-11-08T15:00:00	7	Dirección del viento	3.22
130931	7	Sololá	701	Sololá	4	Finca Santa Victoria	9	Septiembre	2023-09-16T00:00:00	2024-11-08T15:00:00	1	Precipitación	0
130932	7	Sololá	701	Sololá	4	Finca Santa Victoria	9	Septiembre	2023-09-16T00:00:00	2024-11-08T15:00:00	8	Radiación solar	152
130933	7	Sololá	701	Sololá	4	Finca Santa Victoria	9	Septiembre	2023-09-16T00:00:00	2024-11-08T16:00:00	2	Temperatura media	21.6
130934	7	Sololá	701	Sololá	4	Finca Santa Victoria	9	Septiembre	2023-09-16T00:00:00	2024-11-08T16:00:00	4	Temperatura máxima	22.1
130935	7	Sololá	701	Sololá	4	Finca Santa Victoria	9	Septiembre	2023-09-16T00:00:00	2024-11-08T16:00:00	3	Temperatura mínima	20.6
130936	7	Sololá	701	Sololá	4	Finca Santa Victoria	9	Septiembre	2023-09-16T00:00:00	2024-11-08T16:00:00	5	Humedad	65
130937	7	Sololá	701	Sololá	4	Finca Santa Victoria	9	Septiembre	2023-09-16T00:00:00	2024-11-08T16:00:00	6	Velocidad del viento	1.6
130938	7	Sololá	701	Sololá	4	Finca Santa Victoria	9	Septiembre	2023-09-16T00:00:00	2024-11-08T16:00:00	7	Dirección del viento	1.61
130939	7	Sololá	701	Sololá	4	Finca Santa Victoria	9	Septiembre	2023-09-16T00:00:00	2024-11-08T16:00:00	1	Precipitación	0
130940	7	Sololá	701	Sololá	4	Finca Santa Victoria	9	Septiembre	2023-09-16T00:00:00	2024-11-08T16:00:00	8	Radiación solar	170
130941	7	Sololá	701	Sololá	4	Finca Santa Victoria	9	Septiembre	2023-09-16T00:00:00	2024-11-08T17:00:00	2	Temperatura media	19.3
130942	7	Sololá	701	Sololá	4	Finca Santa Victoria	9	Septiembre	2023-09-16T00:00:00	2024-11-08T17:00:00	4	Temperatura máxima	21.6
130943	7	Sololá	701	Sololá	4	Finca Santa Victoria	9	Septiembre	2023-09-16T00:00:00	2024-11-08T17:00:00	3	Temperatura mínima	19.2
130944	7	Sololá	701	Sololá	4	Finca Santa Victoria	9	Septiembre	2023-09-16T00:00:00	2024-11-08T17:00:00	5	Humedad	73
130945	7	Sololá	701	Sololá	4	Finca Santa Victoria	9	Septiembre	2023-09-16T00:00:00	2024-11-08T17:00:00	6	Velocidad del viento	1.6
130946	7	Sololá	701	Sololá	4	Finca Santa Victoria	9	Septiembre	2023-09-16T00:00:00	2024-11-08T17:00:00	7	Dirección del viento	1.61
130947	7	Sololá	701	Sololá	4	Finca Santa Victoria	9	Septiembre	2023-09-16T00:00:00	2024-11-08T17:00:00	1	Precipitación	0
130948	7	Sololá	701	Sololá	4	Finca Santa Victoria	9	Septiembre	2023-09-16T00:00:00	2024-11-08T17:00:00	8	Radiación solar	63
130949	7	Sololá	701	Sololá	4	Finca Santa Victoria	9	Septiembre	2023-09-16T00:00:00	2024-11-08T18:00:00	2	Temperatura media	17.7
130950	7	Sololá	701	Sololá	4	Finca Santa Victoria	9	Septiembre	2023-09-16T00:00:00	2024-11-08T18:00:00	4	Temperatura máxima	19.4
130951	7	Sololá	701	Sololá	4	Finca Santa Victoria	9	Septiembre	2023-09-16T00:00:00	2024-11-08T18:00:00	3	Temperatura mínima	17.7
130952	7	Sololá	701	Sololá	4	Finca Santa Victoria	9	Septiembre	2023-09-16T00:00:00	2024-11-08T18:00:00	5	Humedad	91
130953	7	Sololá	701	Sololá	4	Finca Santa Victoria	9	Septiembre	2023-09-16T00:00:00	2024-11-08T18:00:00	6	Velocidad del viento	1.6
130954	7	Sololá	701	Sololá	4	Finca Santa Victoria	9	Septiembre	2023-09-16T00:00:00	2024-11-08T18:00:00	7	Dirección del viento	1.61
130955	7	Sololá	701	Sololá	4	Finca Santa Victoria	9	Septiembre	2023-09-16T00:00:00	2024-11-08T18:00:00	1	Precipitación	0
130956	7	Sololá	701	Sololá	4	Finca Santa Victoria	9	Septiembre	2023-09-16T00:00:00	2024-11-08T18:00:00	8	Radiación solar	30
130957	7	Sololá	701	Sololá	4	Finca Santa Victoria	9	Septiembre	2023-09-16T00:00:00	2024-11-08T19:00:00	2	Temperatura media	16.3
130958	7	Sololá	701	Sololá	4	Finca Santa Victoria	9	Septiembre	2023-09-16T00:00:00	2024-11-08T19:00:00	4	Temperatura máxima	17.7
130959	7	Sololá	701	Sololá	4	Finca Santa Victoria	9	Septiembre	2023-09-16T00:00:00	2024-11-08T19:00:00	3	Temperatura mínima	16.3
130960	7	Sololá	701	Sololá	4	Finca Santa Victoria	9	Septiembre	2023-09-16T00:00:00	2024-11-08T19:00:00	5	Humedad	86
130961	7	Sololá	701	Sololá	4	Finca Santa Victoria	9	Septiembre	2023-09-16T00:00:00	2024-11-08T19:00:00	6	Velocidad del viento	1.6
130962	7	Sololá	701	Sololá	4	Finca Santa Victoria	9	Septiembre	2023-09-16T00:00:00	2024-11-08T19:00:00	7	Dirección del viento	1.61
130963	7	Sololá	701	Sololá	4	Finca Santa Victoria	9	Septiembre	2023-09-16T00:00:00	2024-11-08T19:00:00	1	Precipitación	0
130964	7	Sololá	701	Sololá	4	Finca Santa Victoria	9	Septiembre	2023-09-16T00:00:00	2024-11-08T19:00:00	8	Radiación solar	0
130965	7	Sololá	701	Sololá	4	Finca Santa Victoria	9	Septiembre	2023-09-16T00:00:00	2024-11-08T20:00:00	2	Temperatura media	15.7
130966	7	Sololá	701	Sololá	4	Finca Santa Victoria	9	Septiembre	2023-09-16T00:00:00	2024-11-08T20:00:00	4	Temperatura máxima	16.3
130967	7	Sololá	701	Sololá	4	Finca Santa Victoria	9	Septiembre	2023-09-16T00:00:00	2024-11-08T20:00:00	3	Temperatura mínima	15.7
130968	7	Sololá	701	Sololá	4	Finca Santa Victoria	9	Septiembre	2023-09-16T00:00:00	2024-11-08T20:00:00	5	Humedad	88
130969	7	Sololá	701	Sololá	4	Finca Santa Victoria	9	Septiembre	2023-09-16T00:00:00	2024-11-08T20:00:00	6	Velocidad del viento	1.6
130970	7	Sololá	701	Sololá	4	Finca Santa Victoria	9	Septiembre	2023-09-16T00:00:00	2024-11-08T20:00:00	7	Dirección del viento	1.61
130971	7	Sololá	701	Sololá	4	Finca Santa Victoria	9	Septiembre	2023-09-16T00:00:00	2024-11-08T20:00:00	1	Precipitación	0
130972	7	Sololá	701	Sololá	4	Finca Santa Victoria	9	Septiembre	2023-09-16T00:00:00	2024-11-08T20:00:00	8	Radiación solar	0
130973	7	Sololá	701	Sololá	4	Finca Santa Victoria	9	Septiembre	2023-09-16T00:00:00	2024-11-08T21:00:00	2	Temperatura media	15.3
130974	7	Sololá	701	Sololá	4	Finca Santa Victoria	9	Septiembre	2023-09-16T00:00:00	2024-11-08T21:00:00	4	Temperatura máxima	15.7
130975	7	Sololá	701	Sololá	4	Finca Santa Victoria	9	Septiembre	2023-09-16T00:00:00	2024-11-08T21:00:00	3	Temperatura mínima	15.3
130976	7	Sololá	701	Sololá	4	Finca Santa Victoria	9	Septiembre	2023-09-16T00:00:00	2024-11-08T21:00:00	5	Humedad	88
130977	7	Sololá	701	Sololá	4	Finca Santa Victoria	9	Septiembre	2023-09-16T00:00:00	2024-11-08T21:00:00	6	Velocidad del viento	1.6
130978	7	Sololá	701	Sololá	4	Finca Santa Victoria	9	Septiembre	2023-09-16T00:00:00	2024-11-08T21:00:00	7	Dirección del viento	1.61
130979	7	Sololá	701	Sololá	4	Finca Santa Victoria	9	Septiembre	2023-09-16T00:00:00	2024-11-08T21:00:00	1	Precipitación	0
130980	7	Sololá	701	Sololá	4	Finca Santa Victoria	9	Septiembre	2023-09-16T00:00:00	2024-11-08T21:00:00	8	Radiación solar	0
130981	7	Sololá	701	Sololá	4	Finca Santa Victoria	9	Septiembre	2023-09-16T00:00:00	2024-11-08T22:00:00	2	Temperatura media	14.8
130982	7	Sololá	701	Sololá	4	Finca Santa Victoria	9	Septiembre	2023-09-16T00:00:00	2024-11-08T22:00:00	4	Temperatura máxima	15.3
130983	7	Sololá	701	Sololá	4	Finca Santa Victoria	9	Septiembre	2023-09-16T00:00:00	2024-11-08T22:00:00	3	Temperatura mínima	14.8
130984	7	Sololá	701	Sololá	4	Finca Santa Victoria	9	Septiembre	2023-09-16T00:00:00	2024-11-08T22:00:00	5	Humedad	88
130985	7	Sololá	701	Sololá	4	Finca Santa Victoria	9	Septiembre	2023-09-16T00:00:00	2024-11-08T22:00:00	6	Velocidad del viento	3.2
130986	7	Sololá	701	Sololá	4	Finca Santa Victoria	9	Septiembre	2023-09-16T00:00:00	2024-11-08T22:00:00	7	Dirección del viento	3.22
130987	7	Sololá	701	Sololá	4	Finca Santa Victoria	9	Septiembre	2023-09-16T00:00:00	2024-11-08T22:00:00	1	Precipitación	0
130988	7	Sololá	701	Sololá	4	Finca Santa Victoria	9	Septiembre	2023-09-16T00:00:00	2024-11-08T22:00:00	8	Radiación solar	0
130989	7	Sololá	701	Sololá	4	Finca Santa Victoria	9	Septiembre	2023-09-16T00:00:00	2024-11-08T23:00:00	2	Temperatura media	14.3
130990	7	Sololá	701	Sololá	4	Finca Santa Victoria	9	Septiembre	2023-09-16T00:00:00	2024-11-08T23:00:00	4	Temperatura máxima	14.8
130991	7	Sololá	701	Sololá	4	Finca Santa Victoria	9	Septiembre	2023-09-16T00:00:00	2024-11-08T23:00:00	3	Temperatura mínima	14.2
130992	7	Sololá	701	Sololá	4	Finca Santa Victoria	9	Septiembre	2023-09-16T00:00:00	2024-11-08T23:00:00	5	Humedad	90
130993	7	Sololá	701	Sololá	4	Finca Santa Victoria	9	Septiembre	2023-09-16T00:00:00	2024-11-08T23:00:00	6	Velocidad del viento	1.6
130994	7	Sololá	701	Sololá	4	Finca Santa Victoria	9	Septiembre	2023-09-16T00:00:00	2024-11-08T23:00:00	7	Dirección del viento	1.61
130995	7	Sololá	701	Sololá	4	Finca Santa Victoria	9	Septiembre	2023-09-16T00:00:00	2024-11-08T23:00:00	1	Precipitación	0
130996	7	Sololá	701	Sololá	4	Finca Santa Victoria	9	Septiembre	2023-09-16T00:00:00	2024-11-08T23:00:00	8	Radiación solar	0
130997	7	Sololá	701	Sololá	4	Finca Santa Victoria	9	Septiembre	2023-09-17T00:00:00	2024-11-08T00:00:00	2	Temperatura media	13.6
130998	7	Sololá	701	Sololá	4	Finca Santa Victoria	9	Septiembre	2023-09-17T00:00:00	2024-11-08T00:00:00	4	Temperatura máxima	14.3
130999	7	Sololá	701	Sololá	4	Finca Santa Victoria	9	Septiembre	2023-09-17T00:00:00	2024-11-08T00:00:00	3	Temperatura mínima	13.6
131000	7	Sololá	701	Sololá	4	Finca Santa Victoria	9	Septiembre	2023-09-17T00:00:00	2024-11-08T00:00:00	5	Humedad	90
131001	7	Sololá	701	Sololá	4	Finca Santa Victoria	9	Septiembre	2023-09-17T00:00:00	2024-11-08T00:00:00	6	Velocidad del viento	1.6
131002	7	Sololá	701	Sololá	4	Finca Santa Victoria	9	Septiembre	2023-09-17T00:00:00	2024-11-08T00:00:00	7	Dirección del viento	1.61
131003	7	Sololá	701	Sololá	4	Finca Santa Victoria	9	Septiembre	2023-09-17T00:00:00	2024-11-08T00:00:00	1	Precipitación	0
131004	7	Sololá	701	Sololá	4	Finca Santa Victoria	9	Septiembre	2023-09-17T00:00:00	2024-11-08T00:00:00	8	Radiación solar	0
131005	7	Sololá	701	Sololá	4	Finca Santa Victoria	9	Septiembre	2023-09-17T00:00:00	2024-11-08T01:00:00	2	Temperatura media	12.9
131006	7	Sololá	701	Sololá	4	Finca Santa Victoria	9	Septiembre	2023-09-17T00:00:00	2024-11-08T01:00:00	4	Temperatura máxima	13.6
131007	7	Sololá	701	Sololá	4	Finca Santa Victoria	9	Septiembre	2023-09-17T00:00:00	2024-11-08T01:00:00	3	Temperatura mínima	12.8
131008	7	Sololá	701	Sololá	4	Finca Santa Victoria	9	Septiembre	2023-09-17T00:00:00	2024-11-08T01:00:00	5	Humedad	90
131009	7	Sololá	701	Sololá	4	Finca Santa Victoria	9	Septiembre	2023-09-17T00:00:00	2024-11-08T01:00:00	6	Velocidad del viento	1.6
131010	7	Sololá	701	Sololá	4	Finca Santa Victoria	9	Septiembre	2023-09-17T00:00:00	2024-11-08T01:00:00	7	Dirección del viento	1.61
131011	7	Sololá	701	Sololá	4	Finca Santa Victoria	9	Septiembre	2023-09-17T00:00:00	2024-11-08T01:00:00	1	Precipitación	0
131012	7	Sololá	701	Sololá	4	Finca Santa Victoria	9	Septiembre	2023-09-17T00:00:00	2024-11-08T01:00:00	8	Radiación solar	0
131013	7	Sololá	701	Sololá	4	Finca Santa Victoria	9	Septiembre	2023-09-17T00:00:00	2024-11-08T02:00:00	2	Temperatura media	12.2
131014	7	Sololá	701	Sololá	4	Finca Santa Victoria	9	Septiembre	2023-09-17T00:00:00	2024-11-08T02:00:00	4	Temperatura máxima	13.1
131015	7	Sololá	701	Sololá	4	Finca Santa Victoria	9	Septiembre	2023-09-17T00:00:00	2024-11-08T02:00:00	3	Temperatura mínima	12.2
131016	7	Sololá	701	Sololá	4	Finca Santa Victoria	9	Septiembre	2023-09-17T00:00:00	2024-11-08T02:00:00	5	Humedad	90
131017	7	Sololá	701	Sololá	4	Finca Santa Victoria	9	Septiembre	2023-09-17T00:00:00	2024-11-08T02:00:00	6	Velocidad del viento	0
131018	7	Sololá	701	Sololá	4	Finca Santa Victoria	9	Septiembre	2023-09-17T00:00:00	2024-11-08T02:00:00	7	Dirección del viento	0
131019	7	Sololá	701	Sololá	4	Finca Santa Victoria	9	Septiembre	2023-09-17T00:00:00	2024-11-08T02:00:00	1	Precipitación	0
131020	7	Sololá	701	Sololá	4	Finca Santa Victoria	9	Septiembre	2023-09-17T00:00:00	2024-11-08T02:00:00	8	Radiación solar	0
131021	7	Sololá	701	Sololá	4	Finca Santa Victoria	9	Septiembre	2023-09-17T00:00:00	2024-11-08T03:00:00	2	Temperatura media	11.9
131022	7	Sololá	701	Sololá	4	Finca Santa Victoria	9	Septiembre	2023-09-17T00:00:00	2024-11-08T03:00:00	4	Temperatura máxima	12.2
131023	7	Sololá	701	Sololá	4	Finca Santa Victoria	9	Septiembre	2023-09-17T00:00:00	2024-11-08T03:00:00	3	Temperatura mínima	11.7
131024	7	Sololá	701	Sololá	4	Finca Santa Victoria	9	Septiembre	2023-09-17T00:00:00	2024-11-08T03:00:00	5	Humedad	91
131025	7	Sololá	701	Sololá	4	Finca Santa Victoria	9	Septiembre	2023-09-17T00:00:00	2024-11-08T03:00:00	6	Velocidad del viento	0
131026	7	Sololá	701	Sololá	4	Finca Santa Victoria	9	Septiembre	2023-09-17T00:00:00	2024-11-08T03:00:00	7	Dirección del viento	0
131027	7	Sololá	701	Sololá	4	Finca Santa Victoria	9	Septiembre	2023-09-17T00:00:00	2024-11-08T03:00:00	1	Precipitación	0
131028	7	Sololá	701	Sololá	4	Finca Santa Victoria	9	Septiembre	2023-09-17T00:00:00	2024-11-08T03:00:00	8	Radiación solar	0
131029	7	Sololá	701	Sololá	4	Finca Santa Victoria	9	Septiembre	2023-09-17T00:00:00	2024-11-08T04:00:00	2	Temperatura media	11.8
131030	7	Sololá	701	Sololá	4	Finca Santa Victoria	9	Septiembre	2023-09-17T00:00:00	2024-11-08T04:00:00	4	Temperatura máxima	11.9
131031	7	Sololá	701	Sololá	4	Finca Santa Victoria	9	Septiembre	2023-09-17T00:00:00	2024-11-08T04:00:00	3	Temperatura mínima	11.6
131032	7	Sololá	701	Sololá	4	Finca Santa Victoria	9	Septiembre	2023-09-17T00:00:00	2024-11-08T04:00:00	5	Humedad	91
131033	7	Sololá	701	Sololá	4	Finca Santa Victoria	9	Septiembre	2023-09-17T00:00:00	2024-11-08T04:00:00	6	Velocidad del viento	0
131034	7	Sololá	701	Sololá	4	Finca Santa Victoria	9	Septiembre	2023-09-17T00:00:00	2024-11-08T04:00:00	7	Dirección del viento	0
131035	7	Sololá	701	Sololá	4	Finca Santa Victoria	9	Septiembre	2023-09-17T00:00:00	2024-11-08T04:00:00	1	Precipitación	0
131036	7	Sololá	701	Sololá	4	Finca Santa Victoria	9	Septiembre	2023-09-17T00:00:00	2024-11-08T04:00:00	8	Radiación solar	0
131037	7	Sololá	701	Sololá	4	Finca Santa Victoria	9	Septiembre	2023-09-17T00:00:00	2024-11-08T05:00:00	2	Temperatura media	11.6
131038	7	Sololá	701	Sololá	4	Finca Santa Victoria	9	Septiembre	2023-09-17T00:00:00	2024-11-08T05:00:00	4	Temperatura máxima	11.9
131039	7	Sololá	701	Sololá	4	Finca Santa Victoria	9	Septiembre	2023-09-17T00:00:00	2024-11-08T05:00:00	3	Temperatura mínima	11.6
131040	7	Sololá	701	Sololá	4	Finca Santa Victoria	9	Septiembre	2023-09-17T00:00:00	2024-11-08T05:00:00	5	Humedad	90
131041	7	Sololá	701	Sololá	4	Finca Santa Victoria	9	Septiembre	2023-09-17T00:00:00	2024-11-08T05:00:00	6	Velocidad del viento	1.6
131042	7	Sololá	701	Sololá	4	Finca Santa Victoria	9	Septiembre	2023-09-17T00:00:00	2024-11-08T05:00:00	7	Dirección del viento	1.61
131043	7	Sololá	701	Sololá	4	Finca Santa Victoria	9	Septiembre	2023-09-17T00:00:00	2024-11-08T05:00:00	1	Precipitación	0
131044	7	Sololá	701	Sololá	4	Finca Santa Victoria	9	Septiembre	2023-09-17T00:00:00	2024-11-08T05:00:00	8	Radiación solar	0
131045	7	Sololá	701	Sololá	4	Finca Santa Victoria	9	Septiembre	2023-09-17T00:00:00	2024-11-08T06:00:00	2	Temperatura media	11.3
131046	7	Sololá	701	Sololá	4	Finca Santa Victoria	9	Septiembre	2023-09-17T00:00:00	2024-11-08T06:00:00	4	Temperatura máxima	11.6
131047	7	Sololá	701	Sololá	4	Finca Santa Victoria	9	Septiembre	2023-09-17T00:00:00	2024-11-08T06:00:00	3	Temperatura mínima	11.2
131048	7	Sololá	701	Sololá	4	Finca Santa Victoria	9	Septiembre	2023-09-17T00:00:00	2024-11-08T06:00:00	5	Humedad	90
131049	7	Sololá	701	Sololá	4	Finca Santa Victoria	9	Septiembre	2023-09-17T00:00:00	2024-11-08T06:00:00	6	Velocidad del viento	1.6
131050	7	Sololá	701	Sololá	4	Finca Santa Victoria	9	Septiembre	2023-09-17T00:00:00	2024-11-08T06:00:00	7	Dirección del viento	1.61
131051	7	Sololá	701	Sololá	4	Finca Santa Victoria	9	Septiembre	2023-09-17T00:00:00	2024-11-08T06:00:00	1	Precipitación	0
131052	7	Sololá	701	Sololá	4	Finca Santa Victoria	9	Septiembre	2023-09-17T00:00:00	2024-11-08T06:00:00	8	Radiación solar	0
131053	7	Sololá	701	Sololá	4	Finca Santa Victoria	9	Septiembre	2023-09-17T00:00:00	2024-11-08T07:00:00	2	Temperatura media	12.8
131054	7	Sololá	701	Sololá	4	Finca Santa Victoria	9	Septiembre	2023-09-17T00:00:00	2024-11-08T07:00:00	4	Temperatura máxima	12.8
131055	7	Sololá	701	Sololá	4	Finca Santa Victoria	9	Septiembre	2023-09-17T00:00:00	2024-11-08T07:00:00	3	Temperatura mínima	11.3
131056	7	Sololá	701	Sololá	4	Finca Santa Victoria	9	Septiembre	2023-09-17T00:00:00	2024-11-08T07:00:00	5	Humedad	87
131057	7	Sololá	701	Sololá	4	Finca Santa Victoria	9	Septiembre	2023-09-17T00:00:00	2024-11-08T07:00:00	6	Velocidad del viento	1.6
131058	7	Sololá	701	Sololá	4	Finca Santa Victoria	9	Septiembre	2023-09-17T00:00:00	2024-11-08T07:00:00	7	Dirección del viento	1.61
131059	7	Sololá	701	Sololá	4	Finca Santa Victoria	9	Septiembre	2023-09-17T00:00:00	2024-11-08T07:00:00	1	Precipitación	0
131060	7	Sololá	701	Sololá	4	Finca Santa Victoria	9	Septiembre	2023-09-17T00:00:00	2024-11-08T07:00:00	8	Radiación solar	18
131061	7	Sololá	701	Sololá	4	Finca Santa Victoria	9	Septiembre	2023-09-17T00:00:00	2024-11-08T08:00:00	2	Temperatura media	15.9
131062	7	Sololá	701	Sololá	4	Finca Santa Victoria	9	Septiembre	2023-09-17T00:00:00	2024-11-08T08:00:00	4	Temperatura máxima	15.9
131063	7	Sololá	701	Sololá	4	Finca Santa Victoria	9	Septiembre	2023-09-17T00:00:00	2024-11-08T08:00:00	3	Temperatura mínima	12.8
131064	7	Sololá	701	Sololá	4	Finca Santa Victoria	9	Septiembre	2023-09-17T00:00:00	2024-11-08T08:00:00	5	Humedad	78
131065	7	Sololá	701	Sololá	4	Finca Santa Victoria	9	Septiembre	2023-09-17T00:00:00	2024-11-08T08:00:00	6	Velocidad del viento	1.6
131066	7	Sololá	701	Sololá	4	Finca Santa Victoria	9	Septiembre	2023-09-17T00:00:00	2024-11-08T08:00:00	7	Dirección del viento	1.61
131067	7	Sololá	701	Sololá	4	Finca Santa Victoria	9	Septiembre	2023-09-17T00:00:00	2024-11-08T08:00:00	1	Precipitación	0
131068	7	Sololá	701	Sololá	4	Finca Santa Victoria	9	Septiembre	2023-09-17T00:00:00	2024-11-08T08:00:00	8	Radiación solar	209
131069	7	Sololá	701	Sololá	4	Finca Santa Victoria	9	Septiembre	2023-09-17T00:00:00	2024-11-08T09:00:00	2	Temperatura media	16.7
131070	7	Sololá	701	Sololá	4	Finca Santa Victoria	9	Septiembre	2023-09-17T00:00:00	2024-11-08T09:00:00	4	Temperatura máxima	16.7
131071	7	Sololá	701	Sololá	4	Finca Santa Victoria	9	Septiembre	2023-09-17T00:00:00	2024-11-08T09:00:00	3	Temperatura mínima	15.9
131072	7	Sololá	701	Sololá	4	Finca Santa Victoria	9	Septiembre	2023-09-17T00:00:00	2024-11-08T09:00:00	5	Humedad	79
131073	7	Sololá	701	Sololá	4	Finca Santa Victoria	9	Septiembre	2023-09-17T00:00:00	2024-11-08T09:00:00	6	Velocidad del viento	1.6
131074	7	Sololá	701	Sololá	4	Finca Santa Victoria	9	Septiembre	2023-09-17T00:00:00	2024-11-08T09:00:00	7	Dirección del viento	1.61
131075	7	Sololá	701	Sololá	4	Finca Santa Victoria	9	Septiembre	2023-09-17T00:00:00	2024-11-08T09:00:00	1	Precipitación	0
131076	7	Sololá	701	Sololá	4	Finca Santa Victoria	9	Septiembre	2023-09-17T00:00:00	2024-11-08T09:00:00	8	Radiación solar	285
131077	7	Sololá	701	Sololá	4	Finca Santa Victoria	9	Septiembre	2023-09-17T00:00:00	2024-11-08T10:00:00	2	Temperatura media	19.2
131078	7	Sololá	701	Sololá	4	Finca Santa Victoria	9	Septiembre	2023-09-17T00:00:00	2024-11-08T10:00:00	4	Temperatura máxima	19.3
131079	7	Sololá	701	Sololá	4	Finca Santa Victoria	9	Septiembre	2023-09-17T00:00:00	2024-11-08T10:00:00	3	Temperatura mínima	16.7
131080	7	Sololá	701	Sololá	4	Finca Santa Victoria	9	Septiembre	2023-09-17T00:00:00	2024-11-08T10:00:00	5	Humedad	67
131081	7	Sololá	701	Sololá	4	Finca Santa Victoria	9	Septiembre	2023-09-17T00:00:00	2024-11-08T10:00:00	6	Velocidad del viento	3.2
131082	7	Sololá	701	Sololá	4	Finca Santa Victoria	9	Septiembre	2023-09-17T00:00:00	2024-11-08T10:00:00	7	Dirección del viento	3.22
131083	7	Sololá	701	Sololá	4	Finca Santa Victoria	9	Septiembre	2023-09-17T00:00:00	2024-11-08T10:00:00	1	Precipitación	0
131084	7	Sololá	701	Sololá	4	Finca Santa Victoria	9	Septiembre	2023-09-17T00:00:00	2024-11-08T10:00:00	8	Radiación solar	592
131085	7	Sololá	701	Sololá	4	Finca Santa Victoria	9	Septiembre	2023-09-17T00:00:00	2024-11-08T11:00:00	2	Temperatura media	19.4
131086	7	Sololá	701	Sololá	4	Finca Santa Victoria	9	Septiembre	2023-09-17T00:00:00	2024-11-08T11:00:00	4	Temperatura máxima	20
131087	7	Sololá	701	Sololá	4	Finca Santa Victoria	9	Septiembre	2023-09-17T00:00:00	2024-11-08T11:00:00	3	Temperatura mínima	19.2
131088	7	Sololá	701	Sololá	4	Finca Santa Victoria	9	Septiembre	2023-09-17T00:00:00	2024-11-08T11:00:00	5	Humedad	70
131089	7	Sololá	701	Sololá	4	Finca Santa Victoria	9	Septiembre	2023-09-17T00:00:00	2024-11-08T11:00:00	6	Velocidad del viento	3.2
131090	7	Sololá	701	Sololá	4	Finca Santa Victoria	9	Septiembre	2023-09-17T00:00:00	2024-11-08T11:00:00	7	Dirección del viento	3.22
131091	7	Sololá	701	Sololá	4	Finca Santa Victoria	9	Septiembre	2023-09-17T00:00:00	2024-11-08T11:00:00	1	Precipitación	0
131092	7	Sololá	701	Sololá	4	Finca Santa Victoria	9	Septiembre	2023-09-17T00:00:00	2024-11-08T11:00:00	8	Radiación solar	942
131093	7	Sololá	701	Sololá	4	Finca Santa Victoria	9	Septiembre	2023-09-17T00:00:00	2024-11-08T12:00:00	2	Temperatura media	18.6
131094	7	Sololá	701	Sololá	4	Finca Santa Victoria	9	Septiembre	2023-09-17T00:00:00	2024-11-08T12:00:00	4	Temperatura máxima	19.4
131095	7	Sololá	701	Sololá	4	Finca Santa Victoria	9	Septiembre	2023-09-17T00:00:00	2024-11-08T12:00:00	3	Temperatura mínima	18.3
131096	7	Sololá	701	Sololá	4	Finca Santa Victoria	9	Septiembre	2023-09-17T00:00:00	2024-11-08T12:00:00	5	Humedad	75
131097	7	Sololá	701	Sololá	4	Finca Santa Victoria	9	Septiembre	2023-09-17T00:00:00	2024-11-08T12:00:00	6	Velocidad del viento	3.2
131098	7	Sololá	701	Sololá	4	Finca Santa Victoria	9	Septiembre	2023-09-17T00:00:00	2024-11-08T12:00:00	7	Dirección del viento	3.22
131099	7	Sololá	701	Sololá	4	Finca Santa Victoria	9	Septiembre	2023-09-17T00:00:00	2024-11-08T12:00:00	1	Precipitación	0
131100	7	Sololá	701	Sololá	4	Finca Santa Victoria	9	Septiembre	2023-09-17T00:00:00	2024-11-08T12:00:00	8	Radiación solar	283
131101	7	Sololá	701	Sololá	4	Finca Santa Victoria	9	Septiembre	2023-09-17T00:00:00	2024-11-08T13:00:00	2	Temperatura media	19.7
131102	7	Sololá	701	Sololá	4	Finca Santa Victoria	9	Septiembre	2023-09-17T00:00:00	2024-11-08T13:00:00	4	Temperatura máxima	19.7
131103	7	Sololá	701	Sololá	4	Finca Santa Victoria	9	Septiembre	2023-09-17T00:00:00	2024-11-08T13:00:00	3	Temperatura mínima	18.5
131104	7	Sololá	701	Sololá	4	Finca Santa Victoria	9	Septiembre	2023-09-17T00:00:00	2024-11-08T13:00:00	5	Humedad	77
131105	7	Sololá	701	Sololá	4	Finca Santa Victoria	9	Septiembre	2023-09-17T00:00:00	2024-11-08T13:00:00	6	Velocidad del viento	4.8
131106	7	Sololá	701	Sololá	4	Finca Santa Victoria	9	Septiembre	2023-09-17T00:00:00	2024-11-08T13:00:00	7	Dirección del viento	4.83
131107	7	Sololá	701	Sololá	4	Finca Santa Victoria	9	Septiembre	2023-09-17T00:00:00	2024-11-08T13:00:00	1	Precipitación	0
131108	7	Sololá	701	Sololá	4	Finca Santa Victoria	9	Septiembre	2023-09-17T00:00:00	2024-11-08T13:00:00	8	Radiación solar	203
131109	7	Sololá	701	Sololá	4	Finca Santa Victoria	9	Septiembre	2023-09-17T00:00:00	2024-11-08T14:00:00	2	Temperatura media	19.8
131110	7	Sololá	701	Sololá	4	Finca Santa Victoria	9	Septiembre	2023-09-17T00:00:00	2024-11-08T14:00:00	4	Temperatura máxima	20.4
131111	7	Sololá	701	Sololá	4	Finca Santa Victoria	9	Septiembre	2023-09-17T00:00:00	2024-11-08T14:00:00	3	Temperatura mínima	19
131112	7	Sololá	701	Sololá	4	Finca Santa Victoria	9	Septiembre	2023-09-17T00:00:00	2024-11-08T14:00:00	5	Humedad	79
131113	7	Sololá	701	Sololá	4	Finca Santa Victoria	9	Septiembre	2023-09-17T00:00:00	2024-11-08T14:00:00	6	Velocidad del viento	3.2
131114	7	Sololá	701	Sololá	4	Finca Santa Victoria	9	Septiembre	2023-09-17T00:00:00	2024-11-08T14:00:00	7	Dirección del viento	3.22
131115	7	Sololá	701	Sololá	4	Finca Santa Victoria	9	Septiembre	2023-09-17T00:00:00	2024-11-08T14:00:00	1	Precipitación	0
131116	7	Sololá	701	Sololá	4	Finca Santa Victoria	9	Septiembre	2023-09-17T00:00:00	2024-11-08T14:00:00	8	Radiación solar	193
131117	7	Sololá	701	Sololá	4	Finca Santa Victoria	9	Septiembre	2023-09-17T00:00:00	2024-11-08T15:00:00	2	Temperatura media	19.3
131118	7	Sololá	701	Sololá	4	Finca Santa Victoria	9	Septiembre	2023-09-17T00:00:00	2024-11-08T15:00:00	4	Temperatura máxima	20.7
131119	7	Sololá	701	Sololá	4	Finca Santa Victoria	9	Septiembre	2023-09-17T00:00:00	2024-11-08T15:00:00	3	Temperatura mínima	19.3
131120	7	Sololá	701	Sololá	4	Finca Santa Victoria	9	Septiembre	2023-09-17T00:00:00	2024-11-08T15:00:00	5	Humedad	84
131121	7	Sololá	701	Sololá	4	Finca Santa Victoria	9	Septiembre	2023-09-17T00:00:00	2024-11-08T15:00:00	6	Velocidad del viento	3.2
131122	7	Sololá	701	Sololá	4	Finca Santa Victoria	9	Septiembre	2023-09-17T00:00:00	2024-11-08T15:00:00	7	Dirección del viento	3.22
131123	7	Sololá	701	Sololá	4	Finca Santa Victoria	9	Septiembre	2023-09-17T00:00:00	2024-11-08T15:00:00	1	Precipitación	0
131124	7	Sololá	701	Sololá	4	Finca Santa Victoria	9	Septiembre	2023-09-17T00:00:00	2024-11-08T15:00:00	8	Radiación solar	172
131125	7	Sololá	701	Sololá	4	Finca Santa Victoria	9	Septiembre	2023-09-17T00:00:00	2024-11-08T16:00:00	2	Temperatura media	19.3
131126	7	Sololá	701	Sololá	4	Finca Santa Victoria	9	Septiembre	2023-09-17T00:00:00	2024-11-08T16:00:00	4	Temperatura máxima	21.5
131127	7	Sololá	701	Sololá	4	Finca Santa Victoria	9	Septiembre	2023-09-17T00:00:00	2024-11-08T16:00:00	3	Temperatura mínima	19.1
131128	7	Sololá	701	Sololá	4	Finca Santa Victoria	9	Septiembre	2023-09-17T00:00:00	2024-11-08T16:00:00	5	Humedad	81
131129	7	Sololá	701	Sololá	4	Finca Santa Victoria	9	Septiembre	2023-09-17T00:00:00	2024-11-08T16:00:00	6	Velocidad del viento	1.6
131130	7	Sololá	701	Sololá	4	Finca Santa Victoria	9	Septiembre	2023-09-17T00:00:00	2024-11-08T16:00:00	7	Dirección del viento	1.61
131131	7	Sololá	701	Sololá	4	Finca Santa Victoria	9	Septiembre	2023-09-17T00:00:00	2024-11-08T16:00:00	1	Precipitación	0
131132	7	Sololá	701	Sololá	4	Finca Santa Victoria	9	Septiembre	2023-09-17T00:00:00	2024-11-08T16:00:00	8	Radiación solar	110
131133	7	Sololá	701	Sololá	4	Finca Santa Victoria	9	Septiembre	2023-09-17T00:00:00	2024-11-08T17:00:00	2	Temperatura media	20.3
131134	7	Sololá	701	Sololá	4	Finca Santa Victoria	9	Septiembre	2023-09-17T00:00:00	2024-11-08T17:00:00	4	Temperatura máxima	20.8
131135	7	Sololá	701	Sololá	4	Finca Santa Victoria	9	Septiembre	2023-09-17T00:00:00	2024-11-08T17:00:00	3	Temperatura mínima	19.3
131136	7	Sololá	701	Sololá	4	Finca Santa Victoria	9	Septiembre	2023-09-17T00:00:00	2024-11-08T17:00:00	5	Humedad	76
131137	7	Sololá	701	Sololá	4	Finca Santa Victoria	9	Septiembre	2023-09-17T00:00:00	2024-11-08T17:00:00	6	Velocidad del viento	1.6
131138	7	Sololá	701	Sololá	4	Finca Santa Victoria	9	Septiembre	2023-09-17T00:00:00	2024-11-08T17:00:00	7	Dirección del viento	1.61
131139	7	Sololá	701	Sololá	4	Finca Santa Victoria	9	Septiembre	2023-09-17T00:00:00	2024-11-08T17:00:00	1	Precipitación	0
131140	7	Sololá	701	Sololá	4	Finca Santa Victoria	9	Septiembre	2023-09-17T00:00:00	2024-11-08T17:00:00	8	Radiación solar	99
131141	7	Sololá	701	Sololá	4	Finca Santa Victoria	9	Septiembre	2023-09-17T00:00:00	2024-11-08T18:00:00	2	Temperatura media	17.4
131142	7	Sololá	701	Sololá	4	Finca Santa Victoria	9	Septiembre	2023-09-17T00:00:00	2024-11-08T18:00:00	4	Temperatura máxima	20.3
131143	7	Sololá	701	Sololá	4	Finca Santa Victoria	9	Septiembre	2023-09-17T00:00:00	2024-11-08T18:00:00	3	Temperatura mínima	17.4
131144	7	Sololá	701	Sololá	4	Finca Santa Victoria	9	Septiembre	2023-09-17T00:00:00	2024-11-08T18:00:00	5	Humedad	92
131145	7	Sololá	701	Sololá	4	Finca Santa Victoria	9	Septiembre	2023-09-17T00:00:00	2024-11-08T18:00:00	6	Velocidad del viento	1.6
131146	7	Sololá	701	Sololá	4	Finca Santa Victoria	9	Septiembre	2023-09-17T00:00:00	2024-11-08T18:00:00	7	Dirección del viento	1.61
131147	7	Sololá	701	Sololá	4	Finca Santa Victoria	9	Septiembre	2023-09-17T00:00:00	2024-11-08T18:00:00	1	Precipitación	0
131148	7	Sololá	701	Sololá	4	Finca Santa Victoria	9	Septiembre	2023-09-17T00:00:00	2024-11-08T18:00:00	8	Radiación solar	21
131149	7	Sololá	701	Sololá	4	Finca Santa Victoria	9	Septiembre	2023-09-17T00:00:00	2024-11-08T19:00:00	2	Temperatura media	15.9
131150	7	Sololá	701	Sololá	4	Finca Santa Victoria	9	Septiembre	2023-09-17T00:00:00	2024-11-08T19:00:00	4	Temperatura máxima	17.4
131151	7	Sololá	701	Sololá	4	Finca Santa Victoria	9	Septiembre	2023-09-17T00:00:00	2024-11-08T19:00:00	3	Temperatura mínima	15.8
131152	7	Sololá	701	Sololá	4	Finca Santa Victoria	9	Septiembre	2023-09-17T00:00:00	2024-11-08T19:00:00	5	Humedad	93
131153	7	Sololá	701	Sololá	4	Finca Santa Victoria	9	Septiembre	2023-09-17T00:00:00	2024-11-08T19:00:00	6	Velocidad del viento	0
131154	7	Sololá	701	Sololá	4	Finca Santa Victoria	9	Septiembre	2023-09-17T00:00:00	2024-11-08T19:00:00	7	Dirección del viento	0
131155	7	Sololá	701	Sololá	4	Finca Santa Victoria	9	Septiembre	2023-09-17T00:00:00	2024-11-08T19:00:00	1	Precipitación	0
131156	7	Sololá	701	Sololá	4	Finca Santa Victoria	9	Septiembre	2023-09-17T00:00:00	2024-11-08T19:00:00	8	Radiación solar	0
131157	7	Sololá	701	Sololá	4	Finca Santa Victoria	9	Septiembre	2023-09-17T00:00:00	2024-11-08T20:00:00	2	Temperatura media	15.4
131158	7	Sololá	701	Sololá	4	Finca Santa Victoria	9	Septiembre	2023-09-17T00:00:00	2024-11-08T20:00:00	4	Temperatura máxima	15.9
131159	7	Sololá	701	Sololá	4	Finca Santa Victoria	9	Septiembre	2023-09-17T00:00:00	2024-11-08T20:00:00	3	Temperatura mínima	15.3
131160	7	Sololá	701	Sololá	4	Finca Santa Victoria	9	Septiembre	2023-09-17T00:00:00	2024-11-08T20:00:00	5	Humedad	93
131161	7	Sololá	701	Sololá	4	Finca Santa Victoria	9	Septiembre	2023-09-17T00:00:00	2024-11-08T20:00:00	6	Velocidad del viento	0
131162	7	Sololá	701	Sololá	4	Finca Santa Victoria	9	Septiembre	2023-09-17T00:00:00	2024-11-08T20:00:00	7	Dirección del viento	0
131163	7	Sololá	701	Sololá	4	Finca Santa Victoria	9	Septiembre	2023-09-17T00:00:00	2024-11-08T20:00:00	1	Precipitación	0
131164	7	Sololá	701	Sololá	4	Finca Santa Victoria	9	Septiembre	2023-09-17T00:00:00	2024-11-08T20:00:00	8	Radiación solar	0
131165	7	Sololá	701	Sololá	4	Finca Santa Victoria	9	Septiembre	2023-09-17T00:00:00	2024-11-08T21:00:00	2	Temperatura media	15.2
131166	7	Sololá	701	Sololá	4	Finca Santa Victoria	9	Septiembre	2023-09-17T00:00:00	2024-11-08T21:00:00	4	Temperatura máxima	15.4
131167	7	Sololá	701	Sololá	4	Finca Santa Victoria	9	Septiembre	2023-09-17T00:00:00	2024-11-08T21:00:00	3	Temperatura mínima	15.1
131168	7	Sololá	701	Sololá	4	Finca Santa Victoria	9	Septiembre	2023-09-17T00:00:00	2024-11-08T21:00:00	5	Humedad	92
131169	7	Sololá	701	Sololá	4	Finca Santa Victoria	9	Septiembre	2023-09-17T00:00:00	2024-11-08T21:00:00	6	Velocidad del viento	1.6
131170	7	Sololá	701	Sololá	4	Finca Santa Victoria	9	Septiembre	2023-09-17T00:00:00	2024-11-08T21:00:00	7	Dirección del viento	1.61
131171	7	Sololá	701	Sololá	4	Finca Santa Victoria	9	Septiembre	2023-09-17T00:00:00	2024-11-08T21:00:00	1	Precipitación	0
131172	7	Sololá	701	Sololá	4	Finca Santa Victoria	9	Septiembre	2023-09-17T00:00:00	2024-11-08T21:00:00	8	Radiación solar	0
131173	7	Sololá	701	Sololá	4	Finca Santa Victoria	9	Septiembre	2023-09-17T00:00:00	2024-11-08T22:00:00	2	Temperatura media	15.1
131174	7	Sololá	701	Sololá	4	Finca Santa Victoria	9	Septiembre	2023-09-17T00:00:00	2024-11-08T22:00:00	4	Temperatura máxima	15.2
131175	7	Sololá	701	Sololá	4	Finca Santa Victoria	9	Septiembre	2023-09-17T00:00:00	2024-11-08T22:00:00	3	Temperatura mínima	14.8
131176	7	Sololá	701	Sololá	4	Finca Santa Victoria	9	Septiembre	2023-09-17T00:00:00	2024-11-08T22:00:00	5	Humedad	93
131177	7	Sololá	701	Sololá	4	Finca Santa Victoria	9	Septiembre	2023-09-17T00:00:00	2024-11-08T22:00:00	6	Velocidad del viento	0
131178	7	Sololá	701	Sololá	4	Finca Santa Victoria	9	Septiembre	2023-09-17T00:00:00	2024-11-08T22:00:00	7	Dirección del viento	0
131179	7	Sololá	701	Sololá	4	Finca Santa Victoria	9	Septiembre	2023-09-17T00:00:00	2024-11-08T22:00:00	1	Precipitación	0.2
131180	7	Sololá	701	Sololá	4	Finca Santa Victoria	9	Septiembre	2023-09-17T00:00:00	2024-11-08T22:00:00	8	Radiación solar	0
131181	7	Sololá	701	Sololá	4	Finca Santa Victoria	9	Septiembre	2023-09-17T00:00:00	2024-11-08T23:00:00	2	Temperatura media	14.6
131182	7	Sololá	701	Sololá	4	Finca Santa Victoria	9	Septiembre	2023-09-17T00:00:00	2024-11-08T23:00:00	4	Temperatura máxima	15.1
131183	7	Sololá	701	Sololá	4	Finca Santa Victoria	9	Septiembre	2023-09-17T00:00:00	2024-11-08T23:00:00	3	Temperatura mínima	14.6
131184	7	Sololá	701	Sololá	4	Finca Santa Victoria	9	Septiembre	2023-09-17T00:00:00	2024-11-08T23:00:00	5	Humedad	95
131185	7	Sololá	701	Sololá	4	Finca Santa Victoria	9	Septiembre	2023-09-17T00:00:00	2024-11-08T23:00:00	6	Velocidad del viento	0
131186	7	Sololá	701	Sololá	4	Finca Santa Victoria	9	Septiembre	2023-09-17T00:00:00	2024-11-08T23:00:00	7	Dirección del viento	0
131187	7	Sololá	701	Sololá	4	Finca Santa Victoria	9	Septiembre	2023-09-17T00:00:00	2024-11-08T23:00:00	1	Precipitación	1
131188	7	Sololá	701	Sololá	4	Finca Santa Victoria	9	Septiembre	2023-09-17T00:00:00	2024-11-08T23:00:00	8	Radiación solar	0
131189	7	Sololá	701	Sololá	4	Finca Santa Victoria	9	Septiembre	2023-09-18T00:00:00	2024-11-08T00:00:00	2	Temperatura media	13.8
131190	7	Sololá	701	Sololá	4	Finca Santa Victoria	9	Septiembre	2023-09-18T00:00:00	2024-11-08T00:00:00	4	Temperatura máxima	14.6
131191	7	Sololá	701	Sololá	4	Finca Santa Victoria	9	Septiembre	2023-09-18T00:00:00	2024-11-08T00:00:00	3	Temperatura mínima	13.8
131192	7	Sololá	701	Sololá	4	Finca Santa Victoria	9	Septiembre	2023-09-18T00:00:00	2024-11-08T00:00:00	5	Humedad	97
131193	7	Sololá	701	Sololá	4	Finca Santa Victoria	9	Septiembre	2023-09-18T00:00:00	2024-11-08T00:00:00	6	Velocidad del viento	0
131194	7	Sololá	701	Sololá	4	Finca Santa Victoria	9	Septiembre	2023-09-18T00:00:00	2024-11-08T00:00:00	7	Dirección del viento	0
131195	7	Sololá	701	Sololá	4	Finca Santa Victoria	9	Septiembre	2023-09-18T00:00:00	2024-11-08T00:00:00	1	Precipitación	4.6
131196	7	Sololá	701	Sololá	4	Finca Santa Victoria	9	Septiembre	2023-09-18T00:00:00	2024-11-08T00:00:00	8	Radiación solar	0
131197	7	Sololá	701	Sololá	4	Finca Santa Victoria	9	Septiembre	2023-09-18T00:00:00	2024-11-08T01:00:00	2	Temperatura media	13
131198	7	Sololá	701	Sololá	4	Finca Santa Victoria	9	Septiembre	2023-09-18T00:00:00	2024-11-08T01:00:00	4	Temperatura máxima	13.9
131199	7	Sololá	701	Sololá	4	Finca Santa Victoria	9	Septiembre	2023-09-18T00:00:00	2024-11-08T01:00:00	3	Temperatura mínima	12.9
131200	7	Sololá	701	Sololá	4	Finca Santa Victoria	9	Septiembre	2023-09-18T00:00:00	2024-11-08T01:00:00	5	Humedad	88
131201	7	Sololá	701	Sololá	4	Finca Santa Victoria	9	Septiembre	2023-09-18T00:00:00	2024-11-08T01:00:00	6	Velocidad del viento	1.6
131202	7	Sololá	701	Sololá	4	Finca Santa Victoria	9	Septiembre	2023-09-18T00:00:00	2024-11-08T01:00:00	7	Dirección del viento	1.61
131203	7	Sololá	701	Sololá	4	Finca Santa Victoria	9	Septiembre	2023-09-18T00:00:00	2024-11-08T01:00:00	1	Precipitación	0
131204	7	Sololá	701	Sololá	4	Finca Santa Victoria	9	Septiembre	2023-09-18T00:00:00	2024-11-08T01:00:00	8	Radiación solar	0
131205	7	Sololá	701	Sololá	4	Finca Santa Victoria	9	Septiembre	2023-09-18T00:00:00	2024-11-08T02:00:00	2	Temperatura media	13.2
131206	7	Sololá	701	Sololá	4	Finca Santa Victoria	9	Septiembre	2023-09-18T00:00:00	2024-11-08T02:00:00	4	Temperatura máxima	13.4
131207	7	Sololá	701	Sololá	4	Finca Santa Victoria	9	Septiembre	2023-09-18T00:00:00	2024-11-08T02:00:00	3	Temperatura mínima	12.9
131208	7	Sololá	701	Sololá	4	Finca Santa Victoria	9	Septiembre	2023-09-18T00:00:00	2024-11-08T02:00:00	5	Humedad	84
131209	7	Sololá	701	Sololá	4	Finca Santa Victoria	9	Septiembre	2023-09-18T00:00:00	2024-11-08T02:00:00	6	Velocidad del viento	3.2
131210	7	Sololá	701	Sololá	4	Finca Santa Victoria	9	Septiembre	2023-09-18T00:00:00	2024-11-08T02:00:00	7	Dirección del viento	3.22
131211	7	Sololá	701	Sololá	4	Finca Santa Victoria	9	Septiembre	2023-09-18T00:00:00	2024-11-08T02:00:00	1	Precipitación	0
131212	7	Sololá	701	Sololá	4	Finca Santa Victoria	9	Septiembre	2023-09-18T00:00:00	2024-11-08T02:00:00	8	Radiación solar	0
131213	7	Sololá	701	Sololá	4	Finca Santa Victoria	9	Septiembre	2023-09-18T00:00:00	2024-11-08T03:00:00	2	Temperatura media	13.9
131214	7	Sololá	701	Sololá	4	Finca Santa Victoria	9	Septiembre	2023-09-18T00:00:00	2024-11-08T03:00:00	4	Temperatura máxima	13.9
131215	7	Sololá	701	Sololá	4	Finca Santa Victoria	9	Septiembre	2023-09-18T00:00:00	2024-11-08T03:00:00	3	Temperatura mínima	13.2
131216	7	Sololá	701	Sololá	4	Finca Santa Victoria	9	Septiembre	2023-09-18T00:00:00	2024-11-08T03:00:00	5	Humedad	83
131217	7	Sololá	701	Sololá	4	Finca Santa Victoria	9	Septiembre	2023-09-18T00:00:00	2024-11-08T03:00:00	6	Velocidad del viento	3.2
131218	7	Sololá	701	Sololá	4	Finca Santa Victoria	9	Septiembre	2023-09-18T00:00:00	2024-11-08T03:00:00	7	Dirección del viento	3.22
131219	7	Sololá	701	Sololá	4	Finca Santa Victoria	9	Septiembre	2023-09-18T00:00:00	2024-11-08T03:00:00	1	Precipitación	0
131220	7	Sololá	701	Sololá	4	Finca Santa Victoria	9	Septiembre	2023-09-18T00:00:00	2024-11-08T03:00:00	8	Radiación solar	0
131221	7	Sololá	701	Sololá	4	Finca Santa Victoria	9	Septiembre	2023-09-18T00:00:00	2024-11-08T04:00:00	2	Temperatura media	13.2
131222	7	Sololá	701	Sololá	4	Finca Santa Victoria	9	Septiembre	2023-09-18T00:00:00	2024-11-08T04:00:00	4	Temperatura máxima	13.9
131223	7	Sololá	701	Sololá	4	Finca Santa Victoria	9	Septiembre	2023-09-18T00:00:00	2024-11-08T04:00:00	3	Temperatura mínima	13.2
131224	7	Sololá	701	Sololá	4	Finca Santa Victoria	9	Septiembre	2023-09-18T00:00:00	2024-11-08T04:00:00	5	Humedad	85
131225	7	Sololá	701	Sololá	4	Finca Santa Victoria	9	Septiembre	2023-09-18T00:00:00	2024-11-08T04:00:00	6	Velocidad del viento	3.2
131226	7	Sololá	701	Sololá	4	Finca Santa Victoria	9	Septiembre	2023-09-18T00:00:00	2024-11-08T04:00:00	7	Dirección del viento	3.22
131227	7	Sololá	701	Sololá	4	Finca Santa Victoria	9	Septiembre	2023-09-18T00:00:00	2024-11-08T04:00:00	1	Precipitación	0
131228	7	Sololá	701	Sololá	4	Finca Santa Victoria	9	Septiembre	2023-09-18T00:00:00	2024-11-08T04:00:00	8	Radiación solar	0
131229	7	Sololá	701	Sololá	4	Finca Santa Victoria	9	Septiembre	2023-09-18T00:00:00	2024-11-08T05:00:00	2	Temperatura media	12.8
131230	7	Sololá	701	Sololá	4	Finca Santa Victoria	9	Septiembre	2023-09-18T00:00:00	2024-11-08T05:00:00	4	Temperatura máxima	13.2
131231	7	Sololá	701	Sololá	4	Finca Santa Victoria	9	Septiembre	2023-09-18T00:00:00	2024-11-08T05:00:00	3	Temperatura mínima	12.7
131232	7	Sololá	701	Sololá	4	Finca Santa Victoria	9	Septiembre	2023-09-18T00:00:00	2024-11-08T05:00:00	5	Humedad	88
131233	7	Sololá	701	Sololá	4	Finca Santa Victoria	9	Septiembre	2023-09-18T00:00:00	2024-11-08T05:00:00	6	Velocidad del viento	3.2
131234	7	Sololá	701	Sololá	4	Finca Santa Victoria	9	Septiembre	2023-09-18T00:00:00	2024-11-08T05:00:00	7	Dirección del viento	3.22
131235	7	Sololá	701	Sololá	4	Finca Santa Victoria	9	Septiembre	2023-09-18T00:00:00	2024-11-08T05:00:00	1	Precipitación	0
131236	7	Sololá	701	Sololá	4	Finca Santa Victoria	9	Septiembre	2023-09-18T00:00:00	2024-11-08T05:00:00	8	Radiación solar	0
131237	7	Sololá	701	Sololá	4	Finca Santa Victoria	9	Septiembre	2023-09-18T00:00:00	2024-11-08T06:00:00	2	Temperatura media	12.8
131238	7	Sololá	701	Sololá	4	Finca Santa Victoria	9	Septiembre	2023-09-18T00:00:00	2024-11-08T06:00:00	4	Temperatura máxima	12.9
131239	7	Sololá	701	Sololá	4	Finca Santa Victoria	9	Septiembre	2023-09-18T00:00:00	2024-11-08T06:00:00	3	Temperatura mínima	12.7
131240	7	Sololá	701	Sololá	4	Finca Santa Victoria	9	Septiembre	2023-09-18T00:00:00	2024-11-08T06:00:00	5	Humedad	88
131241	7	Sololá	701	Sololá	4	Finca Santa Victoria	9	Septiembre	2023-09-18T00:00:00	2024-11-08T06:00:00	6	Velocidad del viento	4.8
131242	7	Sololá	701	Sololá	4	Finca Santa Victoria	9	Septiembre	2023-09-18T00:00:00	2024-11-08T06:00:00	7	Dirección del viento	4.83
131243	7	Sololá	701	Sololá	4	Finca Santa Victoria	9	Septiembre	2023-09-18T00:00:00	2024-11-08T06:00:00	1	Precipitación	0
131244	7	Sololá	701	Sololá	4	Finca Santa Victoria	9	Septiembre	2023-09-18T00:00:00	2024-11-08T06:00:00	8	Radiación solar	0
131245	7	Sololá	701	Sololá	4	Finca Santa Victoria	9	Septiembre	2023-09-18T00:00:00	2024-11-08T07:00:00	2	Temperatura media	13.2
131246	7	Sololá	701	Sololá	4	Finca Santa Victoria	9	Septiembre	2023-09-18T00:00:00	2024-11-08T07:00:00	4	Temperatura máxima	13.2
131247	7	Sololá	701	Sololá	4	Finca Santa Victoria	9	Septiembre	2023-09-18T00:00:00	2024-11-08T07:00:00	3	Temperatura mínima	12.8
131248	7	Sololá	701	Sololá	4	Finca Santa Victoria	9	Septiembre	2023-09-18T00:00:00	2024-11-08T07:00:00	5	Humedad	86
131249	7	Sololá	701	Sololá	4	Finca Santa Victoria	9	Septiembre	2023-09-18T00:00:00	2024-11-08T07:00:00	6	Velocidad del viento	3.2
131250	7	Sololá	701	Sololá	4	Finca Santa Victoria	9	Septiembre	2023-09-18T00:00:00	2024-11-08T07:00:00	7	Dirección del viento	3.22
131251	7	Sololá	701	Sololá	4	Finca Santa Victoria	9	Septiembre	2023-09-18T00:00:00	2024-11-08T07:00:00	1	Precipitación	0
131252	7	Sololá	701	Sololá	4	Finca Santa Victoria	9	Septiembre	2023-09-18T00:00:00	2024-11-08T07:00:00	8	Radiación solar	30
131253	7	Sololá	701	Sololá	4	Finca Santa Victoria	9	Septiembre	2023-09-18T00:00:00	2024-11-08T08:00:00	2	Temperatura media	13.9
131254	7	Sololá	701	Sololá	4	Finca Santa Victoria	9	Septiembre	2023-09-18T00:00:00	2024-11-08T08:00:00	4	Temperatura máxima	13.9
131255	7	Sololá	701	Sololá	4	Finca Santa Victoria	9	Septiembre	2023-09-18T00:00:00	2024-11-08T08:00:00	3	Temperatura mínima	13.2
131256	7	Sololá	701	Sololá	4	Finca Santa Victoria	9	Septiembre	2023-09-18T00:00:00	2024-11-08T08:00:00	5	Humedad	85
131257	7	Sololá	701	Sololá	4	Finca Santa Victoria	9	Septiembre	2023-09-18T00:00:00	2024-11-08T08:00:00	6	Velocidad del viento	3.2
131258	7	Sololá	701	Sololá	4	Finca Santa Victoria	9	Septiembre	2023-09-18T00:00:00	2024-11-08T08:00:00	7	Dirección del viento	3.22
131259	7	Sololá	701	Sololá	4	Finca Santa Victoria	9	Septiembre	2023-09-18T00:00:00	2024-11-08T08:00:00	1	Precipitación	0
131260	7	Sololá	701	Sololá	4	Finca Santa Victoria	9	Septiembre	2023-09-18T00:00:00	2024-11-08T08:00:00	8	Radiación solar	97
131261	7	Sololá	701	Sololá	4	Finca Santa Victoria	9	Septiembre	2023-09-18T00:00:00	2024-11-08T09:00:00	2	Temperatura media	17.1
131262	7	Sololá	701	Sololá	4	Finca Santa Victoria	9	Septiembre	2023-09-18T00:00:00	2024-11-08T09:00:00	4	Temperatura máxima	17.1
131263	7	Sololá	701	Sololá	4	Finca Santa Victoria	9	Septiembre	2023-09-18T00:00:00	2024-11-08T09:00:00	3	Temperatura mínima	13.9
131264	7	Sololá	701	Sololá	4	Finca Santa Victoria	9	Septiembre	2023-09-18T00:00:00	2024-11-08T09:00:00	5	Humedad	71
131265	7	Sololá	701	Sololá	4	Finca Santa Victoria	9	Septiembre	2023-09-18T00:00:00	2024-11-08T09:00:00	6	Velocidad del viento	3.2
131266	7	Sololá	701	Sololá	4	Finca Santa Victoria	9	Septiembre	2023-09-18T00:00:00	2024-11-08T09:00:00	7	Dirección del viento	3.22
131267	7	Sololá	701	Sololá	4	Finca Santa Victoria	9	Septiembre	2023-09-18T00:00:00	2024-11-08T09:00:00	1	Precipitación	0
131268	7	Sololá	701	Sololá	4	Finca Santa Victoria	9	Septiembre	2023-09-18T00:00:00	2024-11-08T09:00:00	8	Radiación solar	358
131269	7	Sololá	701	Sololá	4	Finca Santa Victoria	9	Septiembre	2023-09-18T00:00:00	2024-11-08T10:00:00	2	Temperatura media	19.2
131270	7	Sololá	701	Sololá	4	Finca Santa Victoria	9	Septiembre	2023-09-18T00:00:00	2024-11-08T10:00:00	4	Temperatura máxima	19.3
131271	7	Sololá	701	Sololá	4	Finca Santa Victoria	9	Septiembre	2023-09-18T00:00:00	2024-11-08T10:00:00	3	Temperatura mínima	17
131272	7	Sololá	701	Sololá	4	Finca Santa Victoria	9	Septiembre	2023-09-18T00:00:00	2024-11-08T10:00:00	5	Humedad	65
131273	7	Sololá	701	Sololá	4	Finca Santa Victoria	9	Septiembre	2023-09-18T00:00:00	2024-11-08T10:00:00	6	Velocidad del viento	3.2
131274	7	Sololá	701	Sololá	4	Finca Santa Victoria	9	Septiembre	2023-09-18T00:00:00	2024-11-08T10:00:00	7	Dirección del viento	3.22
131275	7	Sololá	701	Sololá	4	Finca Santa Victoria	9	Septiembre	2023-09-18T00:00:00	2024-11-08T10:00:00	1	Precipitación	0
131276	7	Sololá	701	Sololá	4	Finca Santa Victoria	9	Septiembre	2023-09-18T00:00:00	2024-11-08T10:00:00	8	Radiación solar	440
131277	7	Sololá	701	Sololá	4	Finca Santa Victoria	9	Septiembre	2023-09-18T00:00:00	2024-11-08T11:00:00	2	Temperatura media	20.4
131278	7	Sololá	701	Sololá	4	Finca Santa Victoria	9	Septiembre	2023-09-18T00:00:00	2024-11-08T11:00:00	4	Temperatura máxima	20.9
131279	7	Sololá	701	Sololá	4	Finca Santa Victoria	9	Septiembre	2023-09-18T00:00:00	2024-11-08T11:00:00	3	Temperatura mínima	19.2
131280	7	Sololá	701	Sololá	4	Finca Santa Victoria	9	Septiembre	2023-09-18T00:00:00	2024-11-08T11:00:00	5	Humedad	67
131281	7	Sololá	701	Sololá	4	Finca Santa Victoria	9	Septiembre	2023-09-18T00:00:00	2024-11-08T11:00:00	6	Velocidad del viento	3.2
131282	7	Sololá	701	Sololá	4	Finca Santa Victoria	9	Septiembre	2023-09-18T00:00:00	2024-11-08T11:00:00	7	Dirección del viento	3.22
131283	7	Sololá	701	Sololá	4	Finca Santa Victoria	9	Septiembre	2023-09-18T00:00:00	2024-11-08T11:00:00	1	Precipitación	0
131284	7	Sololá	701	Sololá	4	Finca Santa Victoria	9	Septiembre	2023-09-18T00:00:00	2024-11-08T11:00:00	8	Radiación solar	856
131285	7	Sololá	701	Sololá	4	Finca Santa Victoria	9	Septiembre	2023-09-18T00:00:00	2024-11-08T12:00:00	2	Temperatura media	18.7
131286	7	Sololá	701	Sololá	4	Finca Santa Victoria	9	Septiembre	2023-09-18T00:00:00	2024-11-08T12:00:00	4	Temperatura máxima	20.3
131287	7	Sololá	701	Sololá	4	Finca Santa Victoria	9	Septiembre	2023-09-18T00:00:00	2024-11-08T12:00:00	3	Temperatura mínima	18.7
131288	7	Sololá	701	Sololá	4	Finca Santa Victoria	9	Septiembre	2023-09-18T00:00:00	2024-11-08T12:00:00	5	Humedad	81
131289	7	Sololá	701	Sololá	4	Finca Santa Victoria	9	Septiembre	2023-09-18T00:00:00	2024-11-08T12:00:00	6	Velocidad del viento	3.2
131290	7	Sololá	701	Sololá	4	Finca Santa Victoria	9	Septiembre	2023-09-18T00:00:00	2024-11-08T12:00:00	7	Dirección del viento	3.22
131291	7	Sololá	701	Sololá	4	Finca Santa Victoria	9	Septiembre	2023-09-18T00:00:00	2024-11-08T12:00:00	1	Precipitación	0
131292	7	Sololá	701	Sololá	4	Finca Santa Victoria	9	Septiembre	2023-09-18T00:00:00	2024-11-08T12:00:00	8	Radiación solar	512
131293	7	Sololá	701	Sololá	4	Finca Santa Victoria	9	Septiembre	2023-09-18T00:00:00	2024-11-08T13:00:00	2	Temperatura media	16.9
131294	7	Sololá	701	Sololá	4	Finca Santa Victoria	9	Septiembre	2023-09-18T00:00:00	2024-11-08T13:00:00	4	Temperatura máxima	18.7
131295	7	Sololá	701	Sololá	4	Finca Santa Victoria	9	Septiembre	2023-09-18T00:00:00	2024-11-08T13:00:00	3	Temperatura mínima	16.9
131296	7	Sololá	701	Sololá	4	Finca Santa Victoria	9	Septiembre	2023-09-18T00:00:00	2024-11-08T13:00:00	5	Humedad	91
131297	7	Sololá	701	Sololá	4	Finca Santa Victoria	9	Septiembre	2023-09-18T00:00:00	2024-11-08T13:00:00	6	Velocidad del viento	4.8
131298	7	Sololá	701	Sololá	4	Finca Santa Victoria	9	Septiembre	2023-09-18T00:00:00	2024-11-08T13:00:00	7	Dirección del viento	4.83
131299	7	Sololá	701	Sololá	4	Finca Santa Victoria	9	Septiembre	2023-09-18T00:00:00	2024-11-08T13:00:00	1	Precipitación	0
131300	7	Sololá	701	Sololá	4	Finca Santa Victoria	9	Septiembre	2023-09-18T00:00:00	2024-11-08T13:00:00	8	Radiación solar	173
131301	7	Sololá	701	Sololá	4	Finca Santa Victoria	9	Septiembre	2023-09-18T00:00:00	2024-11-08T14:00:00	2	Temperatura media	18.1
131302	7	Sololá	701	Sololá	4	Finca Santa Victoria	9	Septiembre	2023-09-18T00:00:00	2024-11-08T14:00:00	4	Temperatura máxima	18.3
131303	7	Sololá	701	Sololá	4	Finca Santa Victoria	9	Septiembre	2023-09-18T00:00:00	2024-11-08T14:00:00	3	Temperatura mínima	16.7
131304	7	Sololá	701	Sololá	4	Finca Santa Victoria	9	Septiembre	2023-09-18T00:00:00	2024-11-08T14:00:00	5	Humedad	89
131305	7	Sololá	701	Sololá	4	Finca Santa Victoria	9	Septiembre	2023-09-18T00:00:00	2024-11-08T14:00:00	6	Velocidad del viento	3.2
131306	7	Sololá	701	Sololá	4	Finca Santa Victoria	9	Septiembre	2023-09-18T00:00:00	2024-11-08T14:00:00	7	Dirección del viento	3.22
131307	7	Sololá	701	Sololá	4	Finca Santa Victoria	9	Septiembre	2023-09-18T00:00:00	2024-11-08T14:00:00	1	Precipitación	0
131308	7	Sololá	701	Sololá	4	Finca Santa Victoria	9	Septiembre	2023-09-18T00:00:00	2024-11-08T14:00:00	8	Radiación solar	157
131309	7	Sololá	701	Sololá	4	Finca Santa Victoria	9	Septiembre	2023-09-18T00:00:00	2024-11-08T15:00:00	2	Temperatura media	18.1
131310	7	Sololá	701	Sololá	4	Finca Santa Victoria	9	Septiembre	2023-09-18T00:00:00	2024-11-08T15:00:00	4	Temperatura máxima	19.1
131311	7	Sololá	701	Sololá	4	Finca Santa Victoria	9	Septiembre	2023-09-18T00:00:00	2024-11-08T15:00:00	3	Temperatura mínima	18.1
131312	7	Sololá	701	Sololá	4	Finca Santa Victoria	9	Septiembre	2023-09-18T00:00:00	2024-11-08T15:00:00	5	Humedad	91
131313	7	Sololá	701	Sololá	4	Finca Santa Victoria	9	Septiembre	2023-09-18T00:00:00	2024-11-08T15:00:00	6	Velocidad del viento	1.6
131314	7	Sololá	701	Sololá	4	Finca Santa Victoria	9	Septiembre	2023-09-18T00:00:00	2024-11-08T15:00:00	7	Dirección del viento	1.61
131315	7	Sololá	701	Sololá	4	Finca Santa Victoria	9	Septiembre	2023-09-18T00:00:00	2024-11-08T15:00:00	1	Precipitación	0
131316	7	Sololá	701	Sololá	4	Finca Santa Victoria	9	Septiembre	2023-09-18T00:00:00	2024-11-08T15:00:00	8	Radiación solar	122
131317	7	Sololá	701	Sololá	4	Finca Santa Victoria	9	Septiembre	2023-09-18T00:00:00	2024-11-08T16:00:00	2	Temperatura media	17.7
131318	7	Sololá	701	Sololá	4	Finca Santa Victoria	9	Septiembre	2023-09-18T00:00:00	2024-11-08T16:00:00	4	Temperatura máxima	18.3
131319	7	Sololá	701	Sololá	4	Finca Santa Victoria	9	Septiembre	2023-09-18T00:00:00	2024-11-08T16:00:00	3	Temperatura mínima	17.5
131320	7	Sololá	701	Sololá	4	Finca Santa Victoria	9	Septiembre	2023-09-18T00:00:00	2024-11-08T16:00:00	5	Humedad	89
131321	7	Sololá	701	Sololá	4	Finca Santa Victoria	9	Septiembre	2023-09-18T00:00:00	2024-11-08T16:00:00	6	Velocidad del viento	1.6
131322	7	Sololá	701	Sololá	4	Finca Santa Victoria	9	Septiembre	2023-09-18T00:00:00	2024-11-08T16:00:00	7	Dirección del viento	1.61
131323	7	Sololá	701	Sololá	4	Finca Santa Victoria	9	Septiembre	2023-09-18T00:00:00	2024-11-08T16:00:00	1	Precipitación	0
131324	7	Sololá	701	Sololá	4	Finca Santa Victoria	9	Septiembre	2023-09-18T00:00:00	2024-11-08T16:00:00	8	Radiación solar	118
131325	7	Sololá	701	Sololá	4	Finca Santa Victoria	9	Septiembre	2023-09-18T00:00:00	2024-11-08T17:00:00	2	Temperatura media	16.3
131326	7	Sololá	701	Sololá	4	Finca Santa Victoria	9	Septiembre	2023-09-18T00:00:00	2024-11-08T17:00:00	4	Temperatura máxima	17.7
131327	7	Sololá	701	Sololá	4	Finca Santa Victoria	9	Septiembre	2023-09-18T00:00:00	2024-11-08T17:00:00	3	Temperatura mínima	16.3
131328	7	Sololá	701	Sololá	4	Finca Santa Victoria	9	Septiembre	2023-09-18T00:00:00	2024-11-08T17:00:00	5	Humedad	94
131329	7	Sololá	701	Sololá	4	Finca Santa Victoria	9	Septiembre	2023-09-18T00:00:00	2024-11-08T17:00:00	6	Velocidad del viento	1.6
131330	7	Sololá	701	Sololá	4	Finca Santa Victoria	9	Septiembre	2023-09-18T00:00:00	2024-11-08T17:00:00	7	Dirección del viento	1.61
131331	7	Sololá	701	Sololá	4	Finca Santa Victoria	9	Septiembre	2023-09-18T00:00:00	2024-11-08T17:00:00	1	Precipitación	0
131332	7	Sololá	701	Sololá	4	Finca Santa Victoria	9	Septiembre	2023-09-18T00:00:00	2024-11-08T17:00:00	8	Radiación solar	35
131333	7	Sololá	701	Sololá	4	Finca Santa Victoria	9	Septiembre	2023-09-18T00:00:00	2024-11-08T18:00:00	2	Temperatura media	15.4
131334	7	Sololá	701	Sololá	4	Finca Santa Victoria	9	Septiembre	2023-09-18T00:00:00	2024-11-08T18:00:00	4	Temperatura máxima	16.3
131335	7	Sololá	701	Sololá	4	Finca Santa Victoria	9	Septiembre	2023-09-18T00:00:00	2024-11-08T18:00:00	3	Temperatura mínima	15.4
131336	7	Sololá	701	Sololá	4	Finca Santa Victoria	9	Septiembre	2023-09-18T00:00:00	2024-11-08T18:00:00	5	Humedad	93
131337	7	Sololá	701	Sololá	4	Finca Santa Victoria	9	Septiembre	2023-09-18T00:00:00	2024-11-08T18:00:00	6	Velocidad del viento	0
131338	7	Sololá	701	Sololá	4	Finca Santa Victoria	9	Septiembre	2023-09-18T00:00:00	2024-11-08T18:00:00	7	Dirección del viento	0
131339	7	Sololá	701	Sololá	4	Finca Santa Victoria	9	Septiembre	2023-09-18T00:00:00	2024-11-08T18:00:00	1	Precipitación	0
131340	7	Sololá	701	Sololá	4	Finca Santa Victoria	9	Septiembre	2023-09-18T00:00:00	2024-11-08T18:00:00	8	Radiación solar	12
131341	7	Sololá	701	Sololá	4	Finca Santa Victoria	9	Septiembre	2023-09-18T00:00:00	2024-11-08T19:00:00	2	Temperatura media	14.9
131342	7	Sololá	701	Sololá	4	Finca Santa Victoria	9	Septiembre	2023-09-18T00:00:00	2024-11-08T19:00:00	4	Temperatura máxima	15.5
131343	7	Sololá	701	Sololá	4	Finca Santa Victoria	9	Septiembre	2023-09-18T00:00:00	2024-11-08T19:00:00	3	Temperatura mínima	14.9
131344	7	Sololá	701	Sololá	4	Finca Santa Victoria	9	Septiembre	2023-09-18T00:00:00	2024-11-08T19:00:00	5	Humedad	91
131345	7	Sololá	701	Sololá	4	Finca Santa Victoria	9	Septiembre	2023-09-18T00:00:00	2024-11-08T19:00:00	6	Velocidad del viento	0
131346	7	Sololá	701	Sololá	4	Finca Santa Victoria	9	Septiembre	2023-09-18T00:00:00	2024-11-08T19:00:00	7	Dirección del viento	0
131347	7	Sololá	701	Sololá	4	Finca Santa Victoria	9	Septiembre	2023-09-18T00:00:00	2024-11-08T19:00:00	1	Precipitación	0
131348	7	Sololá	701	Sololá	4	Finca Santa Victoria	9	Septiembre	2023-09-18T00:00:00	2024-11-08T19:00:00	8	Radiación solar	0
131349	7	Sololá	701	Sololá	4	Finca Santa Victoria	9	Septiembre	2023-09-18T00:00:00	2024-11-08T20:00:00	2	Temperatura media	14.7
131350	7	Sololá	701	Sololá	4	Finca Santa Victoria	9	Septiembre	2023-09-18T00:00:00	2024-11-08T20:00:00	4	Temperatura máxima	14.9
131351	7	Sololá	701	Sololá	4	Finca Santa Victoria	9	Septiembre	2023-09-18T00:00:00	2024-11-08T20:00:00	3	Temperatura mínima	14.6
131352	7	Sololá	701	Sololá	4	Finca Santa Victoria	9	Septiembre	2023-09-18T00:00:00	2024-11-08T20:00:00	5	Humedad	95
131353	7	Sololá	701	Sololá	4	Finca Santa Victoria	9	Septiembre	2023-09-18T00:00:00	2024-11-08T20:00:00	6	Velocidad del viento	0
131354	7	Sololá	701	Sololá	4	Finca Santa Victoria	9	Septiembre	2023-09-18T00:00:00	2024-11-08T20:00:00	7	Dirección del viento	0
131355	7	Sololá	701	Sololá	4	Finca Santa Victoria	9	Septiembre	2023-09-18T00:00:00	2024-11-08T20:00:00	1	Precipitación	0
131356	7	Sololá	701	Sololá	4	Finca Santa Victoria	9	Septiembre	2023-09-18T00:00:00	2024-11-08T20:00:00	8	Radiación solar	0
131357	7	Sololá	701	Sololá	4	Finca Santa Victoria	9	Septiembre	2023-09-18T00:00:00	2024-11-08T21:00:00	2	Temperatura media	14
131358	7	Sololá	701	Sololá	4	Finca Santa Victoria	9	Septiembre	2023-09-18T00:00:00	2024-11-08T21:00:00	4	Temperatura máxima	14.7
131359	7	Sololá	701	Sololá	4	Finca Santa Victoria	9	Septiembre	2023-09-18T00:00:00	2024-11-08T21:00:00	3	Temperatura mínima	13.9
131360	7	Sololá	701	Sololá	4	Finca Santa Victoria	9	Septiembre	2023-09-18T00:00:00	2024-11-08T21:00:00	5	Humedad	88
131361	7	Sololá	701	Sololá	4	Finca Santa Victoria	9	Septiembre	2023-09-18T00:00:00	2024-11-08T21:00:00	6	Velocidad del viento	1.6
131362	7	Sololá	701	Sololá	4	Finca Santa Victoria	9	Septiembre	2023-09-18T00:00:00	2024-11-08T21:00:00	7	Dirección del viento	1.61
131363	7	Sololá	701	Sololá	4	Finca Santa Victoria	9	Septiembre	2023-09-18T00:00:00	2024-11-08T21:00:00	1	Precipitación	0
131364	7	Sololá	701	Sololá	4	Finca Santa Victoria	9	Septiembre	2023-09-18T00:00:00	2024-11-08T21:00:00	8	Radiación solar	0
131365	7	Sololá	701	Sololá	4	Finca Santa Victoria	9	Septiembre	2023-09-18T00:00:00	2024-11-08T22:00:00	2	Temperatura media	14.1
131366	7	Sololá	701	Sololá	4	Finca Santa Victoria	9	Septiembre	2023-09-18T00:00:00	2024-11-08T22:00:00	4	Temperatura máxima	14.2
131367	7	Sololá	701	Sololá	4	Finca Santa Victoria	9	Septiembre	2023-09-18T00:00:00	2024-11-08T22:00:00	3	Temperatura mínima	13.8
131368	7	Sololá	701	Sololá	4	Finca Santa Victoria	9	Septiembre	2023-09-18T00:00:00	2024-11-08T22:00:00	5	Humedad	87
131369	7	Sololá	701	Sololá	4	Finca Santa Victoria	9	Septiembre	2023-09-18T00:00:00	2024-11-08T22:00:00	6	Velocidad del viento	1.6
131370	7	Sololá	701	Sololá	4	Finca Santa Victoria	9	Septiembre	2023-09-18T00:00:00	2024-11-08T22:00:00	7	Dirección del viento	1.61
131371	7	Sololá	701	Sololá	4	Finca Santa Victoria	9	Septiembre	2023-09-18T00:00:00	2024-11-08T22:00:00	1	Precipitación	0
131372	7	Sololá	701	Sololá	4	Finca Santa Victoria	9	Septiembre	2023-09-18T00:00:00	2024-11-08T22:00:00	8	Radiación solar	0
131373	7	Sololá	701	Sololá	4	Finca Santa Victoria	9	Septiembre	2023-09-18T00:00:00	2024-11-08T23:00:00	2	Temperatura media	13.6
131374	7	Sololá	701	Sololá	4	Finca Santa Victoria	9	Septiembre	2023-09-18T00:00:00	2024-11-08T23:00:00	4	Temperatura máxima	14.1
131375	7	Sololá	701	Sololá	4	Finca Santa Victoria	9	Septiembre	2023-09-18T00:00:00	2024-11-08T23:00:00	3	Temperatura mínima	13.5
131376	7	Sololá	701	Sololá	4	Finca Santa Victoria	9	Septiembre	2023-09-18T00:00:00	2024-11-08T23:00:00	5	Humedad	90
131377	7	Sololá	701	Sololá	4	Finca Santa Victoria	9	Septiembre	2023-09-18T00:00:00	2024-11-08T23:00:00	6	Velocidad del viento	0
131378	7	Sololá	701	Sololá	4	Finca Santa Victoria	9	Septiembre	2023-09-18T00:00:00	2024-11-08T23:00:00	7	Dirección del viento	0
131379	7	Sololá	701	Sololá	4	Finca Santa Victoria	9	Septiembre	2023-09-18T00:00:00	2024-11-08T23:00:00	1	Precipitación	0
131380	7	Sololá	701	Sololá	4	Finca Santa Victoria	9	Septiembre	2023-09-18T00:00:00	2024-11-08T23:00:00	8	Radiación solar	0
131381	7	Sololá	701	Sololá	4	Finca Santa Victoria	9	Septiembre	2023-09-19T00:00:00	2024-11-08T00:00:00	2	Temperatura media	13.4
131382	7	Sololá	701	Sololá	4	Finca Santa Victoria	9	Septiembre	2023-09-19T00:00:00	2024-11-08T00:00:00	4	Temperatura máxima	13.8
131383	7	Sololá	701	Sololá	4	Finca Santa Victoria	9	Septiembre	2023-09-19T00:00:00	2024-11-08T00:00:00	3	Temperatura mínima	13.4
131384	7	Sololá	701	Sololá	4	Finca Santa Victoria	9	Septiembre	2023-09-19T00:00:00	2024-11-08T00:00:00	5	Humedad	89
131385	7	Sololá	701	Sololá	4	Finca Santa Victoria	9	Septiembre	2023-09-19T00:00:00	2024-11-08T00:00:00	6	Velocidad del viento	1.6
131386	7	Sololá	701	Sololá	4	Finca Santa Victoria	9	Septiembre	2023-09-19T00:00:00	2024-11-08T00:00:00	7	Dirección del viento	1.61
131387	7	Sololá	701	Sololá	4	Finca Santa Victoria	9	Septiembre	2023-09-19T00:00:00	2024-11-08T00:00:00	1	Precipitación	0
131388	7	Sololá	701	Sololá	4	Finca Santa Victoria	9	Septiembre	2023-09-19T00:00:00	2024-11-08T00:00:00	8	Radiación solar	0
131389	7	Sololá	701	Sololá	4	Finca Santa Victoria	9	Septiembre	2023-09-19T00:00:00	2024-11-08T01:00:00	2	Temperatura media	13.4
131390	7	Sololá	701	Sololá	4	Finca Santa Victoria	9	Septiembre	2023-09-19T00:00:00	2024-11-08T01:00:00	4	Temperatura máxima	13.5
131391	7	Sololá	701	Sololá	4	Finca Santa Victoria	9	Septiembre	2023-09-19T00:00:00	2024-11-08T01:00:00	3	Temperatura mínima	13.2
131392	7	Sololá	701	Sololá	4	Finca Santa Victoria	9	Septiembre	2023-09-19T00:00:00	2024-11-08T01:00:00	5	Humedad	85
131393	7	Sololá	701	Sololá	4	Finca Santa Victoria	9	Septiembre	2023-09-19T00:00:00	2024-11-08T01:00:00	6	Velocidad del viento	1.6
131394	7	Sololá	701	Sololá	4	Finca Santa Victoria	9	Septiembre	2023-09-19T00:00:00	2024-11-08T01:00:00	7	Dirección del viento	1.61
131395	7	Sololá	701	Sololá	4	Finca Santa Victoria	9	Septiembre	2023-09-19T00:00:00	2024-11-08T01:00:00	1	Precipitación	0
131396	7	Sololá	701	Sololá	4	Finca Santa Victoria	9	Septiembre	2023-09-19T00:00:00	2024-11-08T01:00:00	8	Radiación solar	0
131397	7	Sololá	701	Sololá	4	Finca Santa Victoria	9	Septiembre	2023-09-19T00:00:00	2024-11-08T02:00:00	2	Temperatura media	13.7
131398	7	Sololá	701	Sololá	4	Finca Santa Victoria	9	Septiembre	2023-09-19T00:00:00	2024-11-08T02:00:00	4	Temperatura máxima	13.8
131399	7	Sololá	701	Sololá	4	Finca Santa Victoria	9	Septiembre	2023-09-19T00:00:00	2024-11-08T02:00:00	3	Temperatura mínima	13.3
131400	7	Sololá	701	Sololá	4	Finca Santa Victoria	9	Septiembre	2023-09-19T00:00:00	2024-11-08T02:00:00	5	Humedad	85
131401	7	Sololá	701	Sololá	4	Finca Santa Victoria	9	Septiembre	2023-09-19T00:00:00	2024-11-08T02:00:00	6	Velocidad del viento	1.6
131402	7	Sololá	701	Sololá	4	Finca Santa Victoria	9	Septiembre	2023-09-19T00:00:00	2024-11-08T02:00:00	7	Dirección del viento	1.61
131403	7	Sololá	701	Sololá	4	Finca Santa Victoria	9	Septiembre	2023-09-19T00:00:00	2024-11-08T02:00:00	1	Precipitación	0
131404	7	Sololá	701	Sololá	4	Finca Santa Victoria	9	Septiembre	2023-09-19T00:00:00	2024-11-08T02:00:00	8	Radiación solar	0
131405	7	Sololá	701	Sololá	4	Finca Santa Victoria	9	Septiembre	2023-09-19T00:00:00	2024-11-08T03:00:00	2	Temperatura media	13.4
131406	7	Sololá	701	Sololá	4	Finca Santa Victoria	9	Septiembre	2023-09-19T00:00:00	2024-11-08T03:00:00	4	Temperatura máxima	13.8
131407	7	Sololá	701	Sololá	4	Finca Santa Victoria	9	Septiembre	2023-09-19T00:00:00	2024-11-08T03:00:00	3	Temperatura mínima	13.4
131408	7	Sololá	701	Sololá	4	Finca Santa Victoria	9	Septiembre	2023-09-19T00:00:00	2024-11-08T03:00:00	5	Humedad	84
131409	7	Sololá	701	Sololá	4	Finca Santa Victoria	9	Septiembre	2023-09-19T00:00:00	2024-11-08T03:00:00	6	Velocidad del viento	3.2
131410	7	Sololá	701	Sololá	4	Finca Santa Victoria	9	Septiembre	2023-09-19T00:00:00	2024-11-08T03:00:00	7	Dirección del viento	3.22
131411	7	Sololá	701	Sololá	4	Finca Santa Victoria	9	Septiembre	2023-09-19T00:00:00	2024-11-08T03:00:00	1	Precipitación	0
131412	7	Sololá	701	Sololá	4	Finca Santa Victoria	9	Septiembre	2023-09-19T00:00:00	2024-11-08T03:00:00	8	Radiación solar	0
131413	7	Sololá	701	Sololá	4	Finca Santa Victoria	9	Septiembre	2023-09-19T00:00:00	2024-11-08T04:00:00	2	Temperatura media	12.9
131414	7	Sololá	701	Sololá	4	Finca Santa Victoria	9	Septiembre	2023-09-19T00:00:00	2024-11-08T04:00:00	4	Temperatura máxima	13.4
131415	7	Sololá	701	Sololá	4	Finca Santa Victoria	9	Septiembre	2023-09-19T00:00:00	2024-11-08T04:00:00	3	Temperatura mínima	12.9
131416	7	Sololá	701	Sololá	4	Finca Santa Victoria	9	Septiembre	2023-09-19T00:00:00	2024-11-08T04:00:00	5	Humedad	85
131417	7	Sololá	701	Sololá	4	Finca Santa Victoria	9	Septiembre	2023-09-19T00:00:00	2024-11-08T04:00:00	6	Velocidad del viento	3.2
131418	7	Sololá	701	Sololá	4	Finca Santa Victoria	9	Septiembre	2023-09-19T00:00:00	2024-11-08T04:00:00	7	Dirección del viento	3.22
131419	7	Sololá	701	Sololá	4	Finca Santa Victoria	9	Septiembre	2023-09-19T00:00:00	2024-11-08T04:00:00	1	Precipitación	0
131420	7	Sololá	701	Sololá	4	Finca Santa Victoria	9	Septiembre	2023-09-19T00:00:00	2024-11-08T04:00:00	8	Radiación solar	0
131421	7	Sololá	701	Sololá	4	Finca Santa Victoria	9	Septiembre	2023-09-19T00:00:00	2024-11-08T05:00:00	2	Temperatura media	12.2
131422	7	Sololá	701	Sololá	4	Finca Santa Victoria	9	Septiembre	2023-09-19T00:00:00	2024-11-08T05:00:00	4	Temperatura máxima	12.9
131423	7	Sololá	701	Sololá	4	Finca Santa Victoria	9	Septiembre	2023-09-19T00:00:00	2024-11-08T05:00:00	3	Temperatura mínima	12.2
131424	7	Sololá	701	Sololá	4	Finca Santa Victoria	9	Septiembre	2023-09-19T00:00:00	2024-11-08T05:00:00	5	Humedad	86
131425	7	Sololá	701	Sololá	4	Finca Santa Victoria	9	Septiembre	2023-09-19T00:00:00	2024-11-08T05:00:00	6	Velocidad del viento	3.2
131426	7	Sololá	701	Sololá	4	Finca Santa Victoria	9	Septiembre	2023-09-19T00:00:00	2024-11-08T05:00:00	7	Dirección del viento	3.22
131427	7	Sololá	701	Sololá	4	Finca Santa Victoria	9	Septiembre	2023-09-19T00:00:00	2024-11-08T05:00:00	1	Precipitación	0
131428	7	Sololá	701	Sololá	4	Finca Santa Victoria	9	Septiembre	2023-09-19T00:00:00	2024-11-08T05:00:00	8	Radiación solar	0
131429	7	Sololá	701	Sololá	4	Finca Santa Victoria	9	Septiembre	2023-09-19T00:00:00	2024-11-08T06:00:00	2	Temperatura media	12.5
131430	7	Sololá	701	Sololá	4	Finca Santa Victoria	9	Septiembre	2023-09-19T00:00:00	2024-11-08T06:00:00	4	Temperatura máxima	12.6
131431	7	Sololá	701	Sololá	4	Finca Santa Victoria	9	Septiembre	2023-09-19T00:00:00	2024-11-08T06:00:00	3	Temperatura mínima	12.2
131432	7	Sololá	701	Sololá	4	Finca Santa Victoria	9	Septiembre	2023-09-19T00:00:00	2024-11-08T06:00:00	5	Humedad	81
131433	7	Sololá	701	Sololá	4	Finca Santa Victoria	9	Septiembre	2023-09-19T00:00:00	2024-11-08T06:00:00	6	Velocidad del viento	3.2
131434	7	Sololá	701	Sololá	4	Finca Santa Victoria	9	Septiembre	2023-09-19T00:00:00	2024-11-08T06:00:00	7	Dirección del viento	3.22
131435	7	Sololá	701	Sololá	4	Finca Santa Victoria	9	Septiembre	2023-09-19T00:00:00	2024-11-08T06:00:00	1	Precipitación	0
131436	7	Sololá	701	Sololá	4	Finca Santa Victoria	9	Septiembre	2023-09-19T00:00:00	2024-11-08T06:00:00	8	Radiación solar	0
131437	7	Sololá	701	Sololá	4	Finca Santa Victoria	9	Septiembre	2023-09-19T00:00:00	2024-11-08T07:00:00	2	Temperatura media	13.1
131438	7	Sololá	701	Sololá	4	Finca Santa Victoria	9	Septiembre	2023-09-19T00:00:00	2024-11-08T07:00:00	4	Temperatura máxima	13.1
131439	7	Sololá	701	Sololá	4	Finca Santa Victoria	9	Septiembre	2023-09-19T00:00:00	2024-11-08T07:00:00	3	Temperatura mínima	12.4
131440	7	Sololá	701	Sololá	4	Finca Santa Victoria	9	Septiembre	2023-09-19T00:00:00	2024-11-08T07:00:00	5	Humedad	81
131441	7	Sololá	701	Sololá	4	Finca Santa Victoria	9	Septiembre	2023-09-19T00:00:00	2024-11-08T07:00:00	6	Velocidad del viento	3.2
131442	7	Sololá	701	Sololá	4	Finca Santa Victoria	9	Septiembre	2023-09-19T00:00:00	2024-11-08T07:00:00	7	Dirección del viento	3.22
131443	7	Sololá	701	Sololá	4	Finca Santa Victoria	9	Septiembre	2023-09-19T00:00:00	2024-11-08T07:00:00	1	Precipitación	0
131444	7	Sololá	701	Sololá	4	Finca Santa Victoria	9	Septiembre	2023-09-19T00:00:00	2024-11-08T07:00:00	8	Radiación solar	19
131445	7	Sololá	701	Sololá	4	Finca Santa Victoria	9	Septiembre	2023-09-19T00:00:00	2024-11-08T08:00:00	2	Temperatura media	15.4
131446	7	Sololá	701	Sololá	4	Finca Santa Victoria	9	Septiembre	2023-09-19T00:00:00	2024-11-08T08:00:00	4	Temperatura máxima	15.4
131447	7	Sololá	701	Sololá	4	Finca Santa Victoria	9	Septiembre	2023-09-19T00:00:00	2024-11-08T08:00:00	3	Temperatura mínima	13.1
131448	7	Sololá	701	Sololá	4	Finca Santa Victoria	9	Septiembre	2023-09-19T00:00:00	2024-11-08T08:00:00	5	Humedad	79
131449	7	Sololá	701	Sololá	4	Finca Santa Victoria	9	Septiembre	2023-09-19T00:00:00	2024-11-08T08:00:00	6	Velocidad del viento	3.2
131450	7	Sololá	701	Sololá	4	Finca Santa Victoria	9	Septiembre	2023-09-19T00:00:00	2024-11-08T08:00:00	7	Dirección del viento	3.22
131451	7	Sololá	701	Sololá	4	Finca Santa Victoria	9	Septiembre	2023-09-19T00:00:00	2024-11-08T08:00:00	1	Precipitación	0
131452	7	Sololá	701	Sololá	4	Finca Santa Victoria	9	Septiembre	2023-09-19T00:00:00	2024-11-08T08:00:00	8	Radiación solar	210
131453	7	Sololá	701	Sololá	4	Finca Santa Victoria	9	Septiembre	2023-09-19T00:00:00	2024-11-08T09:00:00	2	Temperatura media	17.7
131454	7	Sololá	701	Sololá	4	Finca Santa Victoria	9	Septiembre	2023-09-19T00:00:00	2024-11-08T09:00:00	4	Temperatura máxima	17.7
131455	7	Sololá	701	Sololá	4	Finca Santa Victoria	9	Septiembre	2023-09-19T00:00:00	2024-11-08T09:00:00	3	Temperatura mínima	15.4
131456	7	Sololá	701	Sololá	4	Finca Santa Victoria	9	Septiembre	2023-09-19T00:00:00	2024-11-08T09:00:00	5	Humedad	66
131457	7	Sololá	701	Sololá	4	Finca Santa Victoria	9	Septiembre	2023-09-19T00:00:00	2024-11-08T09:00:00	6	Velocidad del viento	3.2
131458	7	Sololá	701	Sololá	4	Finca Santa Victoria	9	Septiembre	2023-09-19T00:00:00	2024-11-08T09:00:00	7	Dirección del viento	3.22
131459	7	Sololá	701	Sololá	4	Finca Santa Victoria	9	Septiembre	2023-09-19T00:00:00	2024-11-08T09:00:00	1	Precipitación	0
131460	7	Sololá	701	Sololá	4	Finca Santa Victoria	9	Septiembre	2023-09-19T00:00:00	2024-11-08T09:00:00	8	Radiación solar	329
131461	7	Sololá	701	Sololá	4	Finca Santa Victoria	9	Septiembre	2023-09-19T00:00:00	2024-11-08T10:00:00	2	Temperatura media	20.2
131462	7	Sololá	701	Sololá	4	Finca Santa Victoria	9	Septiembre	2023-09-19T00:00:00	2024-11-08T10:00:00	4	Temperatura máxima	20.2
131463	7	Sololá	701	Sololá	4	Finca Santa Victoria	9	Septiembre	2023-09-19T00:00:00	2024-11-08T10:00:00	3	Temperatura mínima	17.7
131464	7	Sololá	701	Sololá	4	Finca Santa Victoria	9	Septiembre	2023-09-19T00:00:00	2024-11-08T10:00:00	5	Humedad	53
131465	7	Sololá	701	Sololá	4	Finca Santa Victoria	9	Septiembre	2023-09-19T00:00:00	2024-11-08T10:00:00	6	Velocidad del viento	3.2
131466	7	Sololá	701	Sololá	4	Finca Santa Victoria	9	Septiembre	2023-09-19T00:00:00	2024-11-08T10:00:00	7	Dirección del viento	3.22
131467	7	Sololá	701	Sololá	4	Finca Santa Victoria	9	Septiembre	2023-09-19T00:00:00	2024-11-08T10:00:00	1	Precipitación	0
131468	7	Sololá	701	Sololá	4	Finca Santa Victoria	9	Septiembre	2023-09-19T00:00:00	2024-11-08T10:00:00	8	Radiación solar	690
131469	7	Sololá	701	Sololá	4	Finca Santa Victoria	9	Septiembre	2023-09-19T00:00:00	2024-11-08T11:00:00	2	Temperatura media	21.3
131470	7	Sololá	701	Sololá	4	Finca Santa Victoria	9	Septiembre	2023-09-19T00:00:00	2024-11-08T11:00:00	4	Temperatura máxima	21.3
131471	7	Sololá	701	Sololá	4	Finca Santa Victoria	9	Septiembre	2023-09-19T00:00:00	2024-11-08T11:00:00	3	Temperatura mínima	20.2
131472	7	Sololá	701	Sololá	4	Finca Santa Victoria	9	Septiembre	2023-09-19T00:00:00	2024-11-08T11:00:00	5	Humedad	49
131473	7	Sololá	701	Sololá	4	Finca Santa Victoria	9	Septiembre	2023-09-19T00:00:00	2024-11-08T11:00:00	6	Velocidad del viento	3.2
131474	7	Sololá	701	Sololá	4	Finca Santa Victoria	9	Septiembre	2023-09-19T00:00:00	2024-11-08T11:00:00	7	Dirección del viento	3.22
131475	7	Sololá	701	Sololá	4	Finca Santa Victoria	9	Septiembre	2023-09-19T00:00:00	2024-11-08T11:00:00	1	Precipitación	0
131476	7	Sololá	701	Sololá	4	Finca Santa Victoria	9	Septiembre	2023-09-19T00:00:00	2024-11-08T11:00:00	8	Radiación solar	943
131477	7	Sololá	701	Sololá	4	Finca Santa Victoria	9	Septiembre	2023-09-19T00:00:00	2024-11-08T12:00:00	2	Temperatura media	22.2
131478	7	Sololá	701	Sololá	4	Finca Santa Victoria	9	Septiembre	2023-09-19T00:00:00	2024-11-08T12:00:00	4	Temperatura máxima	22.3
131479	7	Sololá	701	Sololá	4	Finca Santa Victoria	9	Septiembre	2023-09-19T00:00:00	2024-11-08T12:00:00	3	Temperatura mínima	21.2
131480	7	Sololá	701	Sololá	4	Finca Santa Victoria	9	Septiembre	2023-09-19T00:00:00	2024-11-08T12:00:00	5	Humedad	50
131481	7	Sololá	701	Sololá	4	Finca Santa Victoria	9	Septiembre	2023-09-19T00:00:00	2024-11-08T12:00:00	6	Velocidad del viento	3.2
131482	7	Sololá	701	Sololá	4	Finca Santa Victoria	9	Septiembre	2023-09-19T00:00:00	2024-11-08T12:00:00	7	Dirección del viento	3.22
131483	7	Sololá	701	Sololá	4	Finca Santa Victoria	9	Septiembre	2023-09-19T00:00:00	2024-11-08T12:00:00	1	Precipitación	0
131484	7	Sololá	701	Sololá	4	Finca Santa Victoria	9	Septiembre	2023-09-19T00:00:00	2024-11-08T12:00:00	8	Radiación solar	893
131485	7	Sololá	701	Sololá	4	Finca Santa Victoria	9	Septiembre	2023-09-19T00:00:00	2024-11-08T13:00:00	2	Temperatura media	22.4
131486	7	Sololá	701	Sololá	4	Finca Santa Victoria	9	Septiembre	2023-09-19T00:00:00	2024-11-08T13:00:00	4	Temperatura máxima	22.6
131487	7	Sololá	701	Sololá	4	Finca Santa Victoria	9	Septiembre	2023-09-19T00:00:00	2024-11-08T13:00:00	3	Temperatura mínima	22.1
131488	7	Sololá	701	Sololá	4	Finca Santa Victoria	9	Septiembre	2023-09-19T00:00:00	2024-11-08T13:00:00	5	Humedad	50
131489	7	Sololá	701	Sololá	4	Finca Santa Victoria	9	Septiembre	2023-09-19T00:00:00	2024-11-08T13:00:00	6	Velocidad del viento	3.2
131490	7	Sololá	701	Sololá	4	Finca Santa Victoria	9	Septiembre	2023-09-19T00:00:00	2024-11-08T13:00:00	7	Dirección del viento	3.22
131491	7	Sololá	701	Sololá	4	Finca Santa Victoria	9	Septiembre	2023-09-19T00:00:00	2024-11-08T13:00:00	1	Precipitación	0
131492	7	Sololá	701	Sololá	4	Finca Santa Victoria	9	Septiembre	2023-09-19T00:00:00	2024-11-08T13:00:00	8	Radiación solar	125
131493	7	Sololá	701	Sololá	4	Finca Santa Victoria	9	Septiembre	2023-09-19T00:00:00	2024-11-08T14:00:00	2	Temperatura media	19.7
131494	7	Sololá	701	Sololá	4	Finca Santa Victoria	9	Septiembre	2023-09-19T00:00:00	2024-11-08T14:00:00	4	Temperatura máxima	22.7
131495	7	Sololá	701	Sololá	4	Finca Santa Victoria	9	Septiembre	2023-09-19T00:00:00	2024-11-08T14:00:00	3	Temperatura mínima	19.7
131496	7	Sololá	701	Sololá	4	Finca Santa Victoria	9	Septiembre	2023-09-19T00:00:00	2024-11-08T14:00:00	5	Humedad	71
131497	7	Sololá	701	Sololá	4	Finca Santa Victoria	9	Septiembre	2023-09-19T00:00:00	2024-11-08T14:00:00	6	Velocidad del viento	3.2
131498	7	Sololá	701	Sololá	4	Finca Santa Victoria	9	Septiembre	2023-09-19T00:00:00	2024-11-08T14:00:00	7	Dirección del viento	3.22
131499	7	Sololá	701	Sololá	4	Finca Santa Victoria	9	Septiembre	2023-09-19T00:00:00	2024-11-08T14:00:00	1	Precipitación	0
131500	7	Sololá	701	Sololá	4	Finca Santa Victoria	9	Septiembre	2023-09-19T00:00:00	2024-11-08T14:00:00	8	Radiación solar	136
131501	7	Sololá	701	Sololá	4	Finca Santa Victoria	9	Septiembre	2023-09-19T00:00:00	2024-11-08T15:00:00	2	Temperatura media	18.8
131502	7	Sololá	701	Sololá	4	Finca Santa Victoria	9	Septiembre	2023-09-19T00:00:00	2024-11-08T15:00:00	4	Temperatura máxima	19.7
131503	7	Sololá	701	Sololá	4	Finca Santa Victoria	9	Septiembre	2023-09-19T00:00:00	2024-11-08T15:00:00	3	Temperatura mínima	18
131504	7	Sololá	701	Sololá	4	Finca Santa Victoria	9	Septiembre	2023-09-19T00:00:00	2024-11-08T15:00:00	5	Humedad	84
131505	7	Sololá	701	Sololá	4	Finca Santa Victoria	9	Septiembre	2023-09-19T00:00:00	2024-11-08T15:00:00	6	Velocidad del viento	3.2
131506	7	Sololá	701	Sololá	4	Finca Santa Victoria	9	Septiembre	2023-09-19T00:00:00	2024-11-08T15:00:00	7	Dirección del viento	3.22
131507	7	Sololá	701	Sololá	4	Finca Santa Victoria	9	Septiembre	2023-09-19T00:00:00	2024-11-08T15:00:00	1	Precipitación	0
131508	7	Sololá	701	Sololá	4	Finca Santa Victoria	9	Septiembre	2023-09-19T00:00:00	2024-11-08T15:00:00	8	Radiación solar	132
131509	7	Sololá	701	Sololá	4	Finca Santa Victoria	9	Septiembre	2023-09-19T00:00:00	2024-11-08T16:00:00	2	Temperatura media	19.1
131510	7	Sololá	701	Sololá	4	Finca Santa Victoria	9	Septiembre	2023-09-19T00:00:00	2024-11-08T16:00:00	4	Temperatura máxima	19.2
131511	7	Sololá	701	Sololá	4	Finca Santa Victoria	9	Septiembre	2023-09-19T00:00:00	2024-11-08T16:00:00	3	Temperatura mínima	18.2
131512	7	Sololá	701	Sololá	4	Finca Santa Victoria	9	Septiembre	2023-09-19T00:00:00	2024-11-08T16:00:00	5	Humedad	81
131513	7	Sololá	701	Sololá	4	Finca Santa Victoria	9	Septiembre	2023-09-19T00:00:00	2024-11-08T16:00:00	6	Velocidad del viento	3.2
131514	7	Sololá	701	Sololá	4	Finca Santa Victoria	9	Septiembre	2023-09-19T00:00:00	2024-11-08T16:00:00	7	Dirección del viento	3.22
131515	7	Sololá	701	Sololá	4	Finca Santa Victoria	9	Septiembre	2023-09-19T00:00:00	2024-11-08T16:00:00	1	Precipitación	0
131516	7	Sololá	701	Sololá	4	Finca Santa Victoria	9	Septiembre	2023-09-19T00:00:00	2024-11-08T16:00:00	8	Radiación solar	163
131517	7	Sololá	701	Sololá	4	Finca Santa Victoria	9	Septiembre	2023-09-19T00:00:00	2024-11-08T17:00:00	2	Temperatura media	18.1
131518	7	Sololá	701	Sololá	4	Finca Santa Victoria	9	Septiembre	2023-09-19T00:00:00	2024-11-08T17:00:00	4	Temperatura máxima	19.1
131519	7	Sololá	701	Sololá	4	Finca Santa Victoria	9	Septiembre	2023-09-19T00:00:00	2024-11-08T17:00:00	3	Temperatura mínima	17.9
131520	7	Sololá	701	Sololá	4	Finca Santa Victoria	9	Septiembre	2023-09-19T00:00:00	2024-11-08T17:00:00	5	Humedad	87
131521	7	Sololá	701	Sololá	4	Finca Santa Victoria	9	Septiembre	2023-09-19T00:00:00	2024-11-08T17:00:00	6	Velocidad del viento	1.6
131522	7	Sololá	701	Sololá	4	Finca Santa Victoria	9	Septiembre	2023-09-19T00:00:00	2024-11-08T17:00:00	7	Dirección del viento	1.61
131523	7	Sololá	701	Sololá	4	Finca Santa Victoria	9	Septiembre	2023-09-19T00:00:00	2024-11-08T17:00:00	1	Precipitación	0
131524	7	Sololá	701	Sololá	4	Finca Santa Victoria	9	Septiembre	2023-09-19T00:00:00	2024-11-08T17:00:00	8	Radiación solar	73
131525	7	Sololá	701	Sololá	4	Finca Santa Victoria	9	Septiembre	2023-09-19T00:00:00	2024-11-08T18:00:00	2	Temperatura media	16.4
131526	7	Sololá	701	Sololá	4	Finca Santa Victoria	9	Septiembre	2023-09-19T00:00:00	2024-11-08T18:00:00	4	Temperatura máxima	18.1
131527	7	Sololá	701	Sololá	4	Finca Santa Victoria	9	Septiembre	2023-09-19T00:00:00	2024-11-08T18:00:00	3	Temperatura mínima	16.4
131528	7	Sololá	701	Sololá	4	Finca Santa Victoria	9	Septiembre	2023-09-19T00:00:00	2024-11-08T18:00:00	5	Humedad	77
131529	7	Sololá	701	Sololá	4	Finca Santa Victoria	9	Septiembre	2023-09-19T00:00:00	2024-11-08T18:00:00	6	Velocidad del viento	1.6
131530	7	Sololá	701	Sololá	4	Finca Santa Victoria	9	Septiembre	2023-09-19T00:00:00	2024-11-08T18:00:00	7	Dirección del viento	1.61
131531	7	Sololá	701	Sololá	4	Finca Santa Victoria	9	Septiembre	2023-09-19T00:00:00	2024-11-08T18:00:00	1	Precipitación	0
131532	7	Sololá	701	Sololá	4	Finca Santa Victoria	9	Septiembre	2023-09-19T00:00:00	2024-11-08T18:00:00	8	Radiación solar	30
131533	7	Sololá	701	Sololá	4	Finca Santa Victoria	9	Septiembre	2023-09-19T00:00:00	2024-11-08T19:00:00	2	Temperatura media	13.7
131534	7	Sololá	701	Sololá	4	Finca Santa Victoria	9	Septiembre	2023-09-19T00:00:00	2024-11-08T19:00:00	4	Temperatura máxima	14.2
131535	7	Sololá	701	Sololá	4	Finca Santa Victoria	9	Septiembre	2023-09-19T00:00:00	2024-11-08T19:00:00	3	Temperatura mínima	13.7
131536	7	Sololá	701	Sololá	4	Finca Santa Victoria	9	Septiembre	2023-09-19T00:00:00	2024-11-08T19:00:00	5	Humedad	99
131537	7	Sololá	701	Sololá	4	Finca Santa Victoria	9	Septiembre	2023-09-19T00:00:00	2024-11-08T19:00:00	6	Velocidad del viento	0
131538	7	Sololá	701	Sololá	4	Finca Santa Victoria	9	Septiembre	2023-09-19T00:00:00	2024-11-08T19:00:00	7	Dirección del viento	0
131539	7	Sololá	701	Sololá	4	Finca Santa Victoria	9	Septiembre	2023-09-19T00:00:00	2024-11-08T19:00:00	1	Precipitación	0.2
131540	7	Sololá	701	Sololá	4	Finca Santa Victoria	9	Septiembre	2023-09-19T00:00:00	2024-11-08T19:00:00	8	Radiación solar	0
131541	7	Sololá	701	Sololá	4	Finca Santa Victoria	9	Septiembre	2023-09-19T00:00:00	2024-11-08T20:00:00	2	Temperatura media	14.4
131542	7	Sololá	701	Sololá	4	Finca Santa Victoria	9	Septiembre	2023-09-19T00:00:00	2024-11-08T20:00:00	4	Temperatura máxima	15.1
131543	7	Sololá	701	Sololá	4	Finca Santa Victoria	9	Septiembre	2023-09-19T00:00:00	2024-11-08T20:00:00	3	Temperatura mínima	14.3
131544	7	Sololá	701	Sololá	4	Finca Santa Victoria	9	Septiembre	2023-09-19T00:00:00	2024-11-08T20:00:00	5	Humedad	88
131545	7	Sololá	701	Sololá	4	Finca Santa Victoria	9	Septiembre	2023-09-19T00:00:00	2024-11-08T20:00:00	6	Velocidad del viento	0
131546	7	Sololá	701	Sololá	4	Finca Santa Victoria	9	Septiembre	2023-09-19T00:00:00	2024-11-08T20:00:00	7	Dirección del viento	0
131547	7	Sololá	701	Sololá	4	Finca Santa Victoria	9	Septiembre	2023-09-19T00:00:00	2024-11-08T20:00:00	1	Precipitación	0
131548	7	Sololá	701	Sololá	4	Finca Santa Victoria	9	Septiembre	2023-09-19T00:00:00	2024-11-08T20:00:00	8	Radiación solar	0
131549	7	Sololá	701	Sololá	4	Finca Santa Victoria	9	Septiembre	2023-09-19T00:00:00	2024-11-08T21:00:00	2	Temperatura media	14.4
131550	7	Sololá	701	Sololá	4	Finca Santa Victoria	9	Septiembre	2023-09-19T00:00:00	2024-11-08T21:00:00	4	Temperatura máxima	14.4
131551	7	Sololá	701	Sololá	4	Finca Santa Victoria	9	Septiembre	2023-09-19T00:00:00	2024-11-08T21:00:00	3	Temperatura mínima	14.3
131552	7	Sololá	701	Sololá	4	Finca Santa Victoria	9	Septiembre	2023-09-19T00:00:00	2024-11-08T21:00:00	5	Humedad	87
131553	7	Sololá	701	Sololá	4	Finca Santa Victoria	9	Septiembre	2023-09-19T00:00:00	2024-11-08T21:00:00	6	Velocidad del viento	1.6
131554	7	Sololá	701	Sololá	4	Finca Santa Victoria	9	Septiembre	2023-09-19T00:00:00	2024-11-08T21:00:00	7	Dirección del viento	1.61
131555	7	Sololá	701	Sololá	4	Finca Santa Victoria	9	Septiembre	2023-09-19T00:00:00	2024-11-08T21:00:00	1	Precipitación	0
131556	7	Sololá	701	Sololá	4	Finca Santa Victoria	9	Septiembre	2023-09-19T00:00:00	2024-11-08T21:00:00	8	Radiación solar	0
131557	7	Sololá	701	Sololá	4	Finca Santa Victoria	9	Septiembre	2023-09-19T00:00:00	2024-11-08T22:00:00	2	Temperatura media	14.3
131558	7	Sololá	701	Sololá	4	Finca Santa Victoria	9	Septiembre	2023-09-19T00:00:00	2024-11-08T22:00:00	4	Temperatura máxima	14.4
131559	7	Sololá	701	Sololá	4	Finca Santa Victoria	9	Septiembre	2023-09-19T00:00:00	2024-11-08T22:00:00	3	Temperatura mínima	14.2
131560	7	Sololá	701	Sololá	4	Finca Santa Victoria	9	Septiembre	2023-09-19T00:00:00	2024-11-08T22:00:00	5	Humedad	86
131561	7	Sololá	701	Sololá	4	Finca Santa Victoria	9	Septiembre	2023-09-19T00:00:00	2024-11-08T22:00:00	6	Velocidad del viento	1.6
131562	7	Sololá	701	Sololá	4	Finca Santa Victoria	9	Septiembre	2023-09-19T00:00:00	2024-11-08T22:00:00	7	Dirección del viento	1.61
131563	7	Sololá	701	Sololá	4	Finca Santa Victoria	9	Septiembre	2023-09-19T00:00:00	2024-11-08T22:00:00	1	Precipitación	0
131564	7	Sololá	701	Sololá	4	Finca Santa Victoria	9	Septiembre	2023-09-19T00:00:00	2024-11-08T22:00:00	8	Radiación solar	0
131565	7	Sololá	701	Sololá	4	Finca Santa Victoria	9	Septiembre	2023-09-19T00:00:00	2024-11-08T23:00:00	2	Temperatura media	13.9
131566	7	Sololá	701	Sololá	4	Finca Santa Victoria	9	Septiembre	2023-09-19T00:00:00	2024-11-08T23:00:00	4	Temperatura máxima	14.3
131567	7	Sololá	701	Sololá	4	Finca Santa Victoria	9	Septiembre	2023-09-19T00:00:00	2024-11-08T23:00:00	3	Temperatura mínima	13.9
131568	7	Sololá	701	Sololá	4	Finca Santa Victoria	9	Septiembre	2023-09-19T00:00:00	2024-11-08T23:00:00	5	Humedad	87
131569	7	Sololá	701	Sololá	4	Finca Santa Victoria	9	Septiembre	2023-09-19T00:00:00	2024-11-08T23:00:00	6	Velocidad del viento	1.6
131570	7	Sololá	701	Sololá	4	Finca Santa Victoria	9	Septiembre	2023-09-19T00:00:00	2024-11-08T23:00:00	7	Dirección del viento	1.61
131571	7	Sololá	701	Sololá	4	Finca Santa Victoria	9	Septiembre	2023-09-19T00:00:00	2024-11-08T23:00:00	1	Precipitación	0
131572	7	Sololá	701	Sololá	4	Finca Santa Victoria	9	Septiembre	2023-09-19T00:00:00	2024-11-08T23:00:00	8	Radiación solar	0
131573	7	Sololá	701	Sololá	4	Finca Santa Victoria	9	Septiembre	2023-09-20T00:00:00	2024-11-08T00:00:00	2	Temperatura media	13.8
131574	7	Sololá	701	Sololá	4	Finca Santa Victoria	9	Septiembre	2023-09-20T00:00:00	2024-11-08T00:00:00	4	Temperatura máxima	14
131575	7	Sololá	701	Sololá	4	Finca Santa Victoria	9	Septiembre	2023-09-20T00:00:00	2024-11-08T00:00:00	3	Temperatura mínima	13.8
131576	7	Sololá	701	Sololá	4	Finca Santa Victoria	9	Septiembre	2023-09-20T00:00:00	2024-11-08T00:00:00	5	Humedad	87
131577	7	Sololá	701	Sololá	4	Finca Santa Victoria	9	Septiembre	2023-09-20T00:00:00	2024-11-08T00:00:00	6	Velocidad del viento	1.6
131578	7	Sololá	701	Sololá	4	Finca Santa Victoria	9	Septiembre	2023-09-20T00:00:00	2024-11-08T00:00:00	7	Dirección del viento	1.61
131579	7	Sololá	701	Sololá	4	Finca Santa Victoria	9	Septiembre	2023-09-20T00:00:00	2024-11-08T00:00:00	1	Precipitación	0
131580	7	Sololá	701	Sololá	4	Finca Santa Victoria	9	Septiembre	2023-09-20T00:00:00	2024-11-08T00:00:00	8	Radiación solar	0
131581	7	Sololá	701	Sololá	4	Finca Santa Victoria	9	Septiembre	2023-09-20T00:00:00	2024-11-08T01:00:00	2	Temperatura media	13.7
131582	7	Sololá	701	Sololá	4	Finca Santa Victoria	9	Septiembre	2023-09-20T00:00:00	2024-11-08T01:00:00	4	Temperatura máxima	13.8
131583	7	Sololá	701	Sololá	4	Finca Santa Victoria	9	Septiembre	2023-09-20T00:00:00	2024-11-08T01:00:00	3	Temperatura mínima	13.7
131584	7	Sololá	701	Sololá	4	Finca Santa Victoria	9	Septiembre	2023-09-20T00:00:00	2024-11-08T01:00:00	5	Humedad	85
131585	7	Sololá	701	Sololá	4	Finca Santa Victoria	9	Septiembre	2023-09-20T00:00:00	2024-11-08T01:00:00	6	Velocidad del viento	1.6
131586	7	Sololá	701	Sololá	4	Finca Santa Victoria	9	Septiembre	2023-09-20T00:00:00	2024-11-08T01:00:00	7	Dirección del viento	1.61
131587	7	Sololá	701	Sololá	4	Finca Santa Victoria	9	Septiembre	2023-09-20T00:00:00	2024-11-08T01:00:00	1	Precipitación	0
131588	7	Sololá	701	Sololá	4	Finca Santa Victoria	9	Septiembre	2023-09-20T00:00:00	2024-11-08T01:00:00	8	Radiación solar	0
131589	7	Sololá	701	Sololá	4	Finca Santa Victoria	9	Septiembre	2023-09-20T00:00:00	2024-11-08T02:00:00	2	Temperatura media	13.2
131590	7	Sololá	701	Sololá	4	Finca Santa Victoria	9	Septiembre	2023-09-20T00:00:00	2024-11-08T02:00:00	4	Temperatura máxima	13.9
131591	7	Sololá	701	Sololá	4	Finca Santa Victoria	9	Septiembre	2023-09-20T00:00:00	2024-11-08T02:00:00	3	Temperatura mínima	13.2
131592	7	Sololá	701	Sololá	4	Finca Santa Victoria	9	Septiembre	2023-09-20T00:00:00	2024-11-08T02:00:00	5	Humedad	86
131593	7	Sololá	701	Sololá	4	Finca Santa Victoria	9	Septiembre	2023-09-20T00:00:00	2024-11-08T02:00:00	6	Velocidad del viento	1.6
131594	7	Sololá	701	Sololá	4	Finca Santa Victoria	9	Septiembre	2023-09-20T00:00:00	2024-11-08T02:00:00	7	Dirección del viento	1.61
131595	7	Sololá	701	Sololá	4	Finca Santa Victoria	9	Septiembre	2023-09-20T00:00:00	2024-11-08T02:00:00	1	Precipitación	0
131596	7	Sololá	701	Sololá	4	Finca Santa Victoria	9	Septiembre	2023-09-20T00:00:00	2024-11-08T02:00:00	8	Radiación solar	0
131597	7	Sololá	701	Sololá	4	Finca Santa Victoria	9	Septiembre	2023-09-20T00:00:00	2024-11-08T03:00:00	2	Temperatura media	12.4
131598	7	Sololá	701	Sololá	4	Finca Santa Victoria	9	Septiembre	2023-09-20T00:00:00	2024-11-08T03:00:00	4	Temperatura máxima	13.3
131599	7	Sololá	701	Sololá	4	Finca Santa Victoria	9	Septiembre	2023-09-20T00:00:00	2024-11-08T03:00:00	3	Temperatura mínima	12.4
131600	7	Sololá	701	Sololá	4	Finca Santa Victoria	9	Septiembre	2023-09-20T00:00:00	2024-11-08T03:00:00	5	Humedad	90
131601	7	Sololá	701	Sololá	4	Finca Santa Victoria	9	Septiembre	2023-09-20T00:00:00	2024-11-08T03:00:00	6	Velocidad del viento	0
131602	7	Sololá	701	Sololá	4	Finca Santa Victoria	9	Septiembre	2023-09-20T00:00:00	2024-11-08T03:00:00	7	Dirección del viento	0
131603	7	Sololá	701	Sololá	4	Finca Santa Victoria	9	Septiembre	2023-09-20T00:00:00	2024-11-08T03:00:00	1	Precipitación	0
131604	7	Sololá	701	Sololá	4	Finca Santa Victoria	9	Septiembre	2023-09-20T00:00:00	2024-11-08T03:00:00	8	Radiación solar	0
131605	7	Sololá	701	Sololá	4	Finca Santa Victoria	9	Septiembre	2023-09-20T00:00:00	2024-11-08T04:00:00	2	Temperatura media	11.8
131606	7	Sololá	701	Sololá	4	Finca Santa Victoria	9	Septiembre	2023-09-20T00:00:00	2024-11-08T04:00:00	4	Temperatura máxima	12.5
131607	7	Sololá	701	Sololá	4	Finca Santa Victoria	9	Septiembre	2023-09-20T00:00:00	2024-11-08T04:00:00	3	Temperatura mínima	11.8
131608	7	Sololá	701	Sololá	4	Finca Santa Victoria	9	Septiembre	2023-09-20T00:00:00	2024-11-08T04:00:00	5	Humedad	92
131609	7	Sololá	701	Sololá	4	Finca Santa Victoria	9	Septiembre	2023-09-20T00:00:00	2024-11-08T04:00:00	6	Velocidad del viento	0
131610	7	Sololá	701	Sololá	4	Finca Santa Victoria	9	Septiembre	2023-09-20T00:00:00	2024-11-08T04:00:00	7	Dirección del viento	0
131611	7	Sololá	701	Sololá	4	Finca Santa Victoria	9	Septiembre	2023-09-20T00:00:00	2024-11-08T04:00:00	1	Precipitación	0
131612	7	Sololá	701	Sololá	4	Finca Santa Victoria	9	Septiembre	2023-09-20T00:00:00	2024-11-08T04:00:00	8	Radiación solar	0
131613	7	Sololá	701	Sololá	4	Finca Santa Victoria	9	Septiembre	2023-09-20T00:00:00	2024-11-08T05:00:00	2	Temperatura media	11.9
131614	7	Sololá	701	Sololá	4	Finca Santa Victoria	9	Septiembre	2023-09-20T00:00:00	2024-11-08T05:00:00	4	Temperatura máxima	11.9
131615	7	Sololá	701	Sololá	4	Finca Santa Victoria	9	Septiembre	2023-09-20T00:00:00	2024-11-08T05:00:00	3	Temperatura mínima	11.6
131616	7	Sololá	701	Sololá	4	Finca Santa Victoria	9	Septiembre	2023-09-20T00:00:00	2024-11-08T05:00:00	5	Humedad	92
131617	7	Sololá	701	Sololá	4	Finca Santa Victoria	9	Septiembre	2023-09-20T00:00:00	2024-11-08T05:00:00	6	Velocidad del viento	0
131618	7	Sololá	701	Sololá	4	Finca Santa Victoria	9	Septiembre	2023-09-20T00:00:00	2024-11-08T05:00:00	7	Dirección del viento	0
131619	7	Sololá	701	Sololá	4	Finca Santa Victoria	9	Septiembre	2023-09-20T00:00:00	2024-11-08T05:00:00	1	Precipitación	0
131620	7	Sololá	701	Sololá	4	Finca Santa Victoria	9	Septiembre	2023-09-20T00:00:00	2024-11-08T05:00:00	8	Radiación solar	0
131621	7	Sololá	701	Sololá	4	Finca Santa Victoria	9	Septiembre	2023-09-20T00:00:00	2024-11-08T06:00:00	2	Temperatura media	11.8
131622	7	Sololá	701	Sololá	4	Finca Santa Victoria	9	Septiembre	2023-09-20T00:00:00	2024-11-08T06:00:00	4	Temperatura máxima	11.9
131623	7	Sololá	701	Sololá	4	Finca Santa Victoria	9	Septiembre	2023-09-20T00:00:00	2024-11-08T06:00:00	3	Temperatura mínima	11.5
131624	7	Sololá	701	Sololá	4	Finca Santa Victoria	9	Septiembre	2023-09-20T00:00:00	2024-11-08T06:00:00	5	Humedad	92
131625	7	Sololá	701	Sololá	4	Finca Santa Victoria	9	Septiembre	2023-09-20T00:00:00	2024-11-08T06:00:00	6	Velocidad del viento	0
131626	7	Sololá	701	Sololá	4	Finca Santa Victoria	9	Septiembre	2023-09-20T00:00:00	2024-11-08T06:00:00	7	Dirección del viento	0
131627	7	Sololá	701	Sololá	4	Finca Santa Victoria	9	Septiembre	2023-09-20T00:00:00	2024-11-08T06:00:00	1	Precipitación	0
131628	7	Sololá	701	Sololá	4	Finca Santa Victoria	9	Septiembre	2023-09-20T00:00:00	2024-11-08T06:00:00	8	Radiación solar	0
131629	7	Sololá	701	Sololá	4	Finca Santa Victoria	9	Septiembre	2023-09-20T00:00:00	2024-11-08T07:00:00	2	Temperatura media	13.4
131630	7	Sololá	701	Sololá	4	Finca Santa Victoria	9	Septiembre	2023-09-20T00:00:00	2024-11-08T07:00:00	4	Temperatura máxima	13.4
131631	7	Sololá	701	Sololá	4	Finca Santa Victoria	9	Septiembre	2023-09-20T00:00:00	2024-11-08T07:00:00	3	Temperatura mínima	11.8
131632	7	Sololá	701	Sololá	4	Finca Santa Victoria	9	Septiembre	2023-09-20T00:00:00	2024-11-08T07:00:00	5	Humedad	87
131633	7	Sololá	701	Sololá	4	Finca Santa Victoria	9	Septiembre	2023-09-20T00:00:00	2024-11-08T07:00:00	6	Velocidad del viento	1.6
131634	7	Sololá	701	Sololá	4	Finca Santa Victoria	9	Septiembre	2023-09-20T00:00:00	2024-11-08T07:00:00	7	Dirección del viento	1.61
131635	7	Sololá	701	Sololá	4	Finca Santa Victoria	9	Septiembre	2023-09-20T00:00:00	2024-11-08T07:00:00	1	Precipitación	0
131636	7	Sololá	701	Sololá	4	Finca Santa Victoria	9	Septiembre	2023-09-20T00:00:00	2024-11-08T07:00:00	8	Radiación solar	26
131637	7	Sololá	701	Sololá	4	Finca Santa Victoria	9	Septiembre	2023-09-20T00:00:00	2024-11-08T08:00:00	2	Temperatura media	16.1
131638	7	Sololá	701	Sololá	4	Finca Santa Victoria	9	Septiembre	2023-09-20T00:00:00	2024-11-08T08:00:00	4	Temperatura máxima	16.1
131639	7	Sololá	701	Sololá	4	Finca Santa Victoria	9	Septiembre	2023-09-20T00:00:00	2024-11-08T08:00:00	3	Temperatura mínima	13.3
131640	7	Sololá	701	Sololá	4	Finca Santa Victoria	9	Septiembre	2023-09-20T00:00:00	2024-11-08T08:00:00	5	Humedad	81
131641	7	Sololá	701	Sololá	4	Finca Santa Victoria	9	Septiembre	2023-09-20T00:00:00	2024-11-08T08:00:00	6	Velocidad del viento	1.6
131642	7	Sololá	701	Sololá	4	Finca Santa Victoria	9	Septiembre	2023-09-20T00:00:00	2024-11-08T08:00:00	7	Dirección del viento	1.61
131643	7	Sololá	701	Sololá	4	Finca Santa Victoria	9	Septiembre	2023-09-20T00:00:00	2024-11-08T08:00:00	1	Precipitación	0
131644	7	Sololá	701	Sololá	4	Finca Santa Victoria	9	Septiembre	2023-09-20T00:00:00	2024-11-08T08:00:00	8	Radiación solar	163
131645	7	Sololá	701	Sololá	4	Finca Santa Victoria	9	Septiembre	2023-09-20T00:00:00	2024-11-08T09:00:00	2	Temperatura media	18.4
131646	7	Sololá	701	Sololá	4	Finca Santa Victoria	9	Septiembre	2023-09-20T00:00:00	2024-11-08T09:00:00	4	Temperatura máxima	18.4
131647	7	Sololá	701	Sololá	4	Finca Santa Victoria	9	Septiembre	2023-09-20T00:00:00	2024-11-08T09:00:00	3	Temperatura mínima	16.1
131648	7	Sololá	701	Sololá	4	Finca Santa Victoria	9	Septiembre	2023-09-20T00:00:00	2024-11-08T09:00:00	5	Humedad	74
131649	7	Sololá	701	Sololá	4	Finca Santa Victoria	9	Septiembre	2023-09-20T00:00:00	2024-11-08T09:00:00	6	Velocidad del viento	1.6
131650	7	Sololá	701	Sololá	4	Finca Santa Victoria	9	Septiembre	2023-09-20T00:00:00	2024-11-08T09:00:00	7	Dirección del viento	1.61
131651	7	Sololá	701	Sololá	4	Finca Santa Victoria	9	Septiembre	2023-09-20T00:00:00	2024-11-08T09:00:00	1	Precipitación	0
131652	7	Sololá	701	Sololá	4	Finca Santa Victoria	9	Septiembre	2023-09-20T00:00:00	2024-11-08T09:00:00	8	Radiación solar	307
131653	7	Sololá	701	Sololá	4	Finca Santa Victoria	9	Septiembre	2023-09-20T00:00:00	2024-11-08T10:00:00	2	Temperatura media	20.4
131654	7	Sololá	701	Sololá	4	Finca Santa Victoria	9	Septiembre	2023-09-20T00:00:00	2024-11-08T10:00:00	4	Temperatura máxima	20.5
131655	7	Sololá	701	Sololá	4	Finca Santa Victoria	9	Septiembre	2023-09-20T00:00:00	2024-11-08T10:00:00	3	Temperatura mínima	18.4
131656	7	Sololá	701	Sololá	4	Finca Santa Victoria	9	Septiembre	2023-09-20T00:00:00	2024-11-08T10:00:00	5	Humedad	68
131657	7	Sololá	701	Sololá	4	Finca Santa Victoria	9	Septiembre	2023-09-20T00:00:00	2024-11-08T10:00:00	6	Velocidad del viento	1.6
131658	7	Sololá	701	Sololá	4	Finca Santa Victoria	9	Septiembre	2023-09-20T00:00:00	2024-11-08T10:00:00	7	Dirección del viento	1.61
131659	7	Sololá	701	Sololá	4	Finca Santa Victoria	9	Septiembre	2023-09-20T00:00:00	2024-11-08T10:00:00	1	Precipitación	0
131660	7	Sololá	701	Sololá	4	Finca Santa Victoria	9	Septiembre	2023-09-20T00:00:00	2024-11-08T10:00:00	8	Radiación solar	658
131661	7	Sololá	701	Sololá	4	Finca Santa Victoria	9	Septiembre	2023-09-20T00:00:00	2024-11-08T11:00:00	2	Temperatura media	20.2
131662	7	Sololá	701	Sololá	4	Finca Santa Victoria	9	Septiembre	2023-09-20T00:00:00	2024-11-08T11:00:00	4	Temperatura máxima	20.7
131663	7	Sololá	701	Sololá	4	Finca Santa Victoria	9	Septiembre	2023-09-20T00:00:00	2024-11-08T11:00:00	3	Temperatura mínima	19.8
131664	7	Sololá	701	Sololá	4	Finca Santa Victoria	9	Septiembre	2023-09-20T00:00:00	2024-11-08T11:00:00	5	Humedad	69
131665	7	Sololá	701	Sololá	4	Finca Santa Victoria	9	Septiembre	2023-09-20T00:00:00	2024-11-08T11:00:00	6	Velocidad del viento	1.6
131666	7	Sololá	701	Sololá	4	Finca Santa Victoria	9	Septiembre	2023-09-20T00:00:00	2024-11-08T11:00:00	7	Dirección del viento	1.61
131667	7	Sololá	701	Sololá	4	Finca Santa Victoria	9	Septiembre	2023-09-20T00:00:00	2024-11-08T11:00:00	1	Precipitación	0
131668	7	Sololá	701	Sololá	4	Finca Santa Victoria	9	Septiembre	2023-09-20T00:00:00	2024-11-08T11:00:00	8	Radiación solar	374
131669	7	Sololá	701	Sololá	4	Finca Santa Victoria	9	Septiembre	2023-09-20T00:00:00	2024-11-08T12:00:00	2	Temperatura media	21.1
131670	7	Sololá	701	Sololá	4	Finca Santa Victoria	9	Septiembre	2023-09-20T00:00:00	2024-11-08T12:00:00	4	Temperatura máxima	21.1
131671	7	Sololá	701	Sololá	4	Finca Santa Victoria	9	Septiembre	2023-09-20T00:00:00	2024-11-08T12:00:00	3	Temperatura mínima	20.2
131672	7	Sololá	701	Sololá	4	Finca Santa Victoria	9	Septiembre	2023-09-20T00:00:00	2024-11-08T12:00:00	5	Humedad	65
131673	7	Sololá	701	Sololá	4	Finca Santa Victoria	9	Septiembre	2023-09-20T00:00:00	2024-11-08T12:00:00	6	Velocidad del viento	1.6
131674	7	Sololá	701	Sololá	4	Finca Santa Victoria	9	Septiembre	2023-09-20T00:00:00	2024-11-08T12:00:00	7	Dirección del viento	1.61
131675	7	Sololá	701	Sololá	4	Finca Santa Victoria	9	Septiembre	2023-09-20T00:00:00	2024-11-08T12:00:00	1	Precipitación	0
131676	7	Sololá	701	Sololá	4	Finca Santa Victoria	9	Septiembre	2023-09-20T00:00:00	2024-11-08T12:00:00	8	Radiación solar	364
131677	7	Sololá	701	Sololá	4	Finca Santa Victoria	9	Septiembre	2023-09-20T00:00:00	2024-11-08T13:00:00	2	Temperatura media	20.3
131678	7	Sololá	701	Sololá	4	Finca Santa Victoria	9	Septiembre	2023-09-20T00:00:00	2024-11-08T13:00:00	4	Temperatura máxima	21.4
131679	7	Sololá	701	Sololá	4	Finca Santa Victoria	9	Septiembre	2023-09-20T00:00:00	2024-11-08T13:00:00	3	Temperatura mínima	20.3
131680	7	Sololá	701	Sololá	4	Finca Santa Victoria	9	Septiembre	2023-09-20T00:00:00	2024-11-08T13:00:00	5	Humedad	66
131681	7	Sololá	701	Sololá	4	Finca Santa Victoria	9	Septiembre	2023-09-20T00:00:00	2024-11-08T13:00:00	6	Velocidad del viento	1.6
131682	7	Sololá	701	Sololá	4	Finca Santa Victoria	9	Septiembre	2023-09-20T00:00:00	2024-11-08T13:00:00	7	Dirección del viento	1.61
131683	7	Sololá	701	Sololá	4	Finca Santa Victoria	9	Septiembre	2023-09-20T00:00:00	2024-11-08T13:00:00	1	Precipitación	0
131684	7	Sololá	701	Sololá	4	Finca Santa Victoria	9	Septiembre	2023-09-20T00:00:00	2024-11-08T13:00:00	8	Radiación solar	229
131685	7	Sololá	701	Sololá	4	Finca Santa Victoria	9	Septiembre	2023-09-20T00:00:00	2024-11-08T14:00:00	2	Temperatura media	19.4
131686	7	Sololá	701	Sololá	4	Finca Santa Victoria	9	Septiembre	2023-09-20T00:00:00	2024-11-08T14:00:00	4	Temperatura máxima	20.6
131687	7	Sololá	701	Sololá	4	Finca Santa Victoria	9	Septiembre	2023-09-20T00:00:00	2024-11-08T14:00:00	3	Temperatura mínima	19.4
131688	7	Sololá	701	Sololá	4	Finca Santa Victoria	9	Septiembre	2023-09-20T00:00:00	2024-11-08T14:00:00	5	Humedad	80
131689	7	Sololá	701	Sololá	4	Finca Santa Victoria	9	Septiembre	2023-09-20T00:00:00	2024-11-08T14:00:00	6	Velocidad del viento	1.6
131690	7	Sololá	701	Sololá	4	Finca Santa Victoria	9	Septiembre	2023-09-20T00:00:00	2024-11-08T14:00:00	7	Dirección del viento	1.61
131691	7	Sololá	701	Sololá	4	Finca Santa Victoria	9	Septiembre	2023-09-20T00:00:00	2024-11-08T14:00:00	1	Precipitación	0
131692	7	Sololá	701	Sololá	4	Finca Santa Victoria	9	Septiembre	2023-09-20T00:00:00	2024-11-08T14:00:00	8	Radiación solar	159
131693	7	Sololá	701	Sololá	4	Finca Santa Victoria	9	Septiembre	2023-09-20T00:00:00	2024-11-08T15:00:00	2	Temperatura media	18.2
131694	7	Sololá	701	Sololá	4	Finca Santa Victoria	9	Septiembre	2023-09-20T00:00:00	2024-11-08T15:00:00	4	Temperatura máxima	19.4
131695	7	Sololá	701	Sololá	4	Finca Santa Victoria	9	Septiembre	2023-09-20T00:00:00	2024-11-08T15:00:00	3	Temperatura mínima	18
131696	7	Sololá	701	Sololá	4	Finca Santa Victoria	9	Septiembre	2023-09-20T00:00:00	2024-11-08T15:00:00	5	Humedad	90
131697	7	Sololá	701	Sololá	4	Finca Santa Victoria	9	Septiembre	2023-09-20T00:00:00	2024-11-08T15:00:00	6	Velocidad del viento	3.2
131698	7	Sololá	701	Sololá	4	Finca Santa Victoria	9	Septiembre	2023-09-20T00:00:00	2024-11-08T15:00:00	7	Dirección del viento	3.22
131699	7	Sololá	701	Sololá	4	Finca Santa Victoria	9	Septiembre	2023-09-20T00:00:00	2024-11-08T15:00:00	1	Precipitación	0
131700	7	Sololá	701	Sololá	4	Finca Santa Victoria	9	Septiembre	2023-09-20T00:00:00	2024-11-08T15:00:00	8	Radiación solar	129
131701	7	Sololá	701	Sololá	4	Finca Santa Victoria	9	Septiembre	2023-09-20T00:00:00	2024-11-08T16:00:00	2	Temperatura media	16.8
131702	7	Sololá	701	Sololá	4	Finca Santa Victoria	9	Septiembre	2023-09-20T00:00:00	2024-11-08T16:00:00	4	Temperatura máxima	18.7
131703	7	Sololá	701	Sololá	4	Finca Santa Victoria	9	Septiembre	2023-09-20T00:00:00	2024-11-08T16:00:00	3	Temperatura mínima	16.8
131704	7	Sololá	701	Sololá	4	Finca Santa Victoria	9	Septiembre	2023-09-20T00:00:00	2024-11-08T16:00:00	5	Humedad	93
131705	7	Sololá	701	Sololá	4	Finca Santa Victoria	9	Septiembre	2023-09-20T00:00:00	2024-11-08T16:00:00	6	Velocidad del viento	3.2
131706	7	Sololá	701	Sololá	4	Finca Santa Victoria	9	Septiembre	2023-09-20T00:00:00	2024-11-08T16:00:00	7	Dirección del viento	3.22
131707	7	Sololá	701	Sololá	4	Finca Santa Victoria	9	Septiembre	2023-09-20T00:00:00	2024-11-08T16:00:00	1	Precipitación	0
131708	7	Sololá	701	Sololá	4	Finca Santa Victoria	9	Septiembre	2023-09-20T00:00:00	2024-11-08T16:00:00	8	Radiación solar	106
131709	7	Sololá	701	Sololá	4	Finca Santa Victoria	9	Septiembre	2023-09-20T00:00:00	2024-11-08T17:00:00	2	Temperatura media	15.9
131710	7	Sololá	701	Sololá	4	Finca Santa Victoria	9	Septiembre	2023-09-20T00:00:00	2024-11-08T17:00:00	4	Temperatura máxima	16.8
131711	7	Sololá	701	Sololá	4	Finca Santa Victoria	9	Septiembre	2023-09-20T00:00:00	2024-11-08T17:00:00	3	Temperatura mínima	15.9
131712	7	Sololá	701	Sololá	4	Finca Santa Victoria	9	Septiembre	2023-09-20T00:00:00	2024-11-08T17:00:00	5	Humedad	96
131713	7	Sololá	701	Sololá	4	Finca Santa Victoria	9	Septiembre	2023-09-20T00:00:00	2024-11-08T17:00:00	6	Velocidad del viento	1.6
131714	7	Sololá	701	Sololá	4	Finca Santa Victoria	9	Septiembre	2023-09-20T00:00:00	2024-11-08T17:00:00	7	Dirección del viento	1.61
131715	7	Sololá	701	Sololá	4	Finca Santa Victoria	9	Septiembre	2023-09-20T00:00:00	2024-11-08T17:00:00	1	Precipitación	0
131716	7	Sololá	701	Sololá	4	Finca Santa Victoria	9	Septiembre	2023-09-20T00:00:00	2024-11-08T17:00:00	8	Radiación solar	19
131717	7	Sololá	701	Sololá	4	Finca Santa Victoria	9	Septiembre	2023-09-20T00:00:00	2024-11-08T18:00:00	2	Temperatura media	15.2
131718	7	Sololá	701	Sololá	4	Finca Santa Victoria	9	Septiembre	2023-09-20T00:00:00	2024-11-08T18:00:00	4	Temperatura máxima	15.9
131719	7	Sololá	701	Sololá	4	Finca Santa Victoria	9	Septiembre	2023-09-20T00:00:00	2024-11-08T18:00:00	3	Temperatura mínima	15.2
131720	7	Sololá	701	Sololá	4	Finca Santa Victoria	9	Septiembre	2023-09-20T00:00:00	2024-11-08T18:00:00	5	Humedad	97
131721	7	Sololá	701	Sololá	4	Finca Santa Victoria	9	Septiembre	2023-09-20T00:00:00	2024-11-08T18:00:00	6	Velocidad del viento	1.6
131722	7	Sololá	701	Sololá	4	Finca Santa Victoria	9	Septiembre	2023-09-20T00:00:00	2024-11-08T18:00:00	7	Dirección del viento	1.61
131723	7	Sololá	701	Sololá	4	Finca Santa Victoria	9	Septiembre	2023-09-20T00:00:00	2024-11-08T18:00:00	1	Precipitación	0
131724	7	Sololá	701	Sololá	4	Finca Santa Victoria	9	Septiembre	2023-09-20T00:00:00	2024-11-08T18:00:00	8	Radiación solar	7
131725	7	Sololá	701	Sololá	4	Finca Santa Victoria	9	Septiembre	2023-09-20T00:00:00	2024-11-08T19:00:00	2	Temperatura media	15.1
131726	7	Sololá	701	Sololá	4	Finca Santa Victoria	9	Septiembre	2023-09-20T00:00:00	2024-11-08T19:00:00	4	Temperatura máxima	15.3
131727	7	Sololá	701	Sololá	4	Finca Santa Victoria	9	Septiembre	2023-09-20T00:00:00	2024-11-08T19:00:00	3	Temperatura mínima	15.1
131728	7	Sololá	701	Sololá	4	Finca Santa Victoria	9	Septiembre	2023-09-20T00:00:00	2024-11-08T19:00:00	5	Humedad	97
131729	7	Sololá	701	Sololá	4	Finca Santa Victoria	9	Septiembre	2023-09-20T00:00:00	2024-11-08T19:00:00	6	Velocidad del viento	0
131730	7	Sololá	701	Sololá	4	Finca Santa Victoria	9	Septiembre	2023-09-20T00:00:00	2024-11-08T19:00:00	7	Dirección del viento	0
131731	7	Sololá	701	Sololá	4	Finca Santa Victoria	9	Septiembre	2023-09-20T00:00:00	2024-11-08T19:00:00	1	Precipitación	0
131732	7	Sololá	701	Sololá	4	Finca Santa Victoria	9	Septiembre	2023-09-20T00:00:00	2024-11-08T19:00:00	8	Radiación solar	0
131733	7	Sololá	701	Sololá	4	Finca Santa Victoria	9	Septiembre	2023-09-20T00:00:00	2024-11-08T20:00:00	2	Temperatura media	14.9
131734	7	Sololá	701	Sololá	4	Finca Santa Victoria	9	Septiembre	2023-09-20T00:00:00	2024-11-08T20:00:00	4	Temperatura máxima	15.1
131735	7	Sololá	701	Sololá	4	Finca Santa Victoria	9	Septiembre	2023-09-20T00:00:00	2024-11-08T20:00:00	3	Temperatura mínima	14.6
131736	7	Sololá	701	Sololá	4	Finca Santa Victoria	9	Septiembre	2023-09-20T00:00:00	2024-11-08T20:00:00	5	Humedad	98
131737	7	Sololá	701	Sololá	4	Finca Santa Victoria	9	Septiembre	2023-09-20T00:00:00	2024-11-08T20:00:00	6	Velocidad del viento	0
131738	7	Sololá	701	Sololá	4	Finca Santa Victoria	9	Septiembre	2023-09-20T00:00:00	2024-11-08T20:00:00	7	Dirección del viento	0
131739	7	Sololá	701	Sololá	4	Finca Santa Victoria	9	Septiembre	2023-09-20T00:00:00	2024-11-08T20:00:00	1	Precipitación	0
131740	7	Sololá	701	Sololá	4	Finca Santa Victoria	9	Septiembre	2023-09-20T00:00:00	2024-11-08T20:00:00	8	Radiación solar	0
131741	7	Sololá	701	Sololá	4	Finca Santa Victoria	9	Septiembre	2023-09-20T00:00:00	2024-11-08T21:00:00	2	Temperatura media	14.1
131742	7	Sololá	701	Sololá	4	Finca Santa Victoria	9	Septiembre	2023-09-20T00:00:00	2024-11-08T21:00:00	4	Temperatura máxima	14.9
131743	7	Sololá	701	Sololá	4	Finca Santa Victoria	9	Septiembre	2023-09-20T00:00:00	2024-11-08T21:00:00	3	Temperatura mínima	14.1
131744	7	Sololá	701	Sololá	4	Finca Santa Victoria	9	Septiembre	2023-09-20T00:00:00	2024-11-08T21:00:00	5	Humedad	96
131745	7	Sololá	701	Sololá	4	Finca Santa Victoria	9	Septiembre	2023-09-20T00:00:00	2024-11-08T21:00:00	6	Velocidad del viento	0
131746	7	Sololá	701	Sololá	4	Finca Santa Victoria	9	Septiembre	2023-09-20T00:00:00	2024-11-08T21:00:00	7	Dirección del viento	0
131747	7	Sololá	701	Sololá	4	Finca Santa Victoria	9	Septiembre	2023-09-20T00:00:00	2024-11-08T21:00:00	1	Precipitación	0
131748	7	Sololá	701	Sololá	4	Finca Santa Victoria	9	Septiembre	2023-09-20T00:00:00	2024-11-08T21:00:00	8	Radiación solar	0
131749	7	Sololá	701	Sololá	4	Finca Santa Victoria	9	Septiembre	2023-09-20T00:00:00	2024-11-08T22:00:00	2	Temperatura media	14.3
131750	7	Sololá	701	Sololá	4	Finca Santa Victoria	9	Septiembre	2023-09-20T00:00:00	2024-11-08T22:00:00	4	Temperatura máxima	14.3
131751	7	Sololá	701	Sololá	4	Finca Santa Victoria	9	Septiembre	2023-09-20T00:00:00	2024-11-08T22:00:00	3	Temperatura mínima	14
131752	7	Sololá	701	Sololá	4	Finca Santa Victoria	9	Septiembre	2023-09-20T00:00:00	2024-11-08T22:00:00	5	Humedad	96
131753	7	Sololá	701	Sololá	4	Finca Santa Victoria	9	Septiembre	2023-09-20T00:00:00	2024-11-08T22:00:00	6	Velocidad del viento	0
131754	7	Sololá	701	Sololá	4	Finca Santa Victoria	9	Septiembre	2023-09-20T00:00:00	2024-11-08T22:00:00	7	Dirección del viento	0
131755	7	Sololá	701	Sololá	4	Finca Santa Victoria	9	Septiembre	2023-09-20T00:00:00	2024-11-08T22:00:00	1	Precipitación	0
131756	7	Sololá	701	Sololá	4	Finca Santa Victoria	9	Septiembre	2023-09-20T00:00:00	2024-11-08T22:00:00	8	Radiación solar	0
131757	7	Sololá	701	Sololá	4	Finca Santa Victoria	9	Septiembre	2023-09-20T00:00:00	2024-11-08T23:00:00	2	Temperatura media	14.2
131758	7	Sololá	701	Sololá	4	Finca Santa Victoria	9	Septiembre	2023-09-20T00:00:00	2024-11-08T23:00:00	4	Temperatura máxima	14.3
131759	7	Sololá	701	Sololá	4	Finca Santa Victoria	9	Septiembre	2023-09-20T00:00:00	2024-11-08T23:00:00	3	Temperatura mínima	14.1
131760	7	Sololá	701	Sololá	4	Finca Santa Victoria	9	Septiembre	2023-09-20T00:00:00	2024-11-08T23:00:00	5	Humedad	96
131761	7	Sololá	701	Sololá	4	Finca Santa Victoria	9	Septiembre	2023-09-20T00:00:00	2024-11-08T23:00:00	6	Velocidad del viento	0
131762	7	Sololá	701	Sololá	4	Finca Santa Victoria	9	Septiembre	2023-09-20T00:00:00	2024-11-08T23:00:00	7	Dirección del viento	0
131763	7	Sololá	701	Sololá	4	Finca Santa Victoria	9	Septiembre	2023-09-20T00:00:00	2024-11-08T23:00:00	1	Precipitación	0
131764	7	Sololá	701	Sololá	4	Finca Santa Victoria	9	Septiembre	2023-09-20T00:00:00	2024-11-08T23:00:00	8	Radiación solar	0
131765	7	Sololá	701	Sololá	4	Finca Santa Victoria	9	Septiembre	2023-09-21T00:00:00	2024-11-08T00:00:00	2	Temperatura media	14.1
131766	7	Sololá	701	Sololá	4	Finca Santa Victoria	9	Septiembre	2023-09-21T00:00:00	2024-11-08T00:00:00	4	Temperatura máxima	14.3
131767	7	Sololá	701	Sololá	4	Finca Santa Victoria	9	Septiembre	2023-09-21T00:00:00	2024-11-08T00:00:00	3	Temperatura mínima	14
131768	7	Sololá	701	Sololá	4	Finca Santa Victoria	9	Septiembre	2023-09-21T00:00:00	2024-11-08T00:00:00	5	Humedad	92
131769	7	Sololá	701	Sololá	4	Finca Santa Victoria	9	Septiembre	2023-09-21T00:00:00	2024-11-08T00:00:00	6	Velocidad del viento	1.6
131770	7	Sololá	701	Sololá	4	Finca Santa Victoria	9	Septiembre	2023-09-21T00:00:00	2024-11-08T00:00:00	7	Dirección del viento	1.61
131771	7	Sololá	701	Sololá	4	Finca Santa Victoria	9	Septiembre	2023-09-21T00:00:00	2024-11-08T00:00:00	1	Precipitación	0
131772	7	Sololá	701	Sololá	4	Finca Santa Victoria	9	Septiembre	2023-09-21T00:00:00	2024-11-08T00:00:00	8	Radiación solar	0
131773	7	Sololá	701	Sololá	4	Finca Santa Victoria	9	Septiembre	2023-09-21T00:00:00	2024-11-08T01:00:00	2	Temperatura media	14
131774	7	Sololá	701	Sololá	4	Finca Santa Victoria	9	Septiembre	2023-09-21T00:00:00	2024-11-08T01:00:00	4	Temperatura máxima	14.2
131775	7	Sololá	701	Sololá	4	Finca Santa Victoria	9	Septiembre	2023-09-21T00:00:00	2024-11-08T01:00:00	3	Temperatura mínima	13.9
131776	7	Sololá	701	Sololá	4	Finca Santa Victoria	9	Septiembre	2023-09-21T00:00:00	2024-11-08T01:00:00	5	Humedad	90
131777	7	Sololá	701	Sololá	4	Finca Santa Victoria	9	Septiembre	2023-09-21T00:00:00	2024-11-08T01:00:00	6	Velocidad del viento	1.6
131778	7	Sololá	701	Sololá	4	Finca Santa Victoria	9	Septiembre	2023-09-21T00:00:00	2024-11-08T01:00:00	7	Dirección del viento	1.61
131779	7	Sololá	701	Sololá	4	Finca Santa Victoria	9	Septiembre	2023-09-21T00:00:00	2024-11-08T01:00:00	1	Precipitación	0
131780	7	Sololá	701	Sololá	4	Finca Santa Victoria	9	Septiembre	2023-09-21T00:00:00	2024-11-08T01:00:00	8	Radiación solar	0
131781	7	Sololá	701	Sololá	4	Finca Santa Victoria	9	Septiembre	2023-09-21T00:00:00	2024-11-08T02:00:00	2	Temperatura media	13.7
131782	7	Sololá	701	Sololá	4	Finca Santa Victoria	9	Septiembre	2023-09-21T00:00:00	2024-11-08T02:00:00	4	Temperatura máxima	14
131783	7	Sololá	701	Sololá	4	Finca Santa Victoria	9	Septiembre	2023-09-21T00:00:00	2024-11-08T02:00:00	3	Temperatura mínima	13.4
131784	7	Sololá	701	Sololá	4	Finca Santa Victoria	9	Septiembre	2023-09-21T00:00:00	2024-11-08T02:00:00	5	Humedad	91
131785	7	Sololá	701	Sololá	4	Finca Santa Victoria	9	Septiembre	2023-09-21T00:00:00	2024-11-08T02:00:00	6	Velocidad del viento	0
131786	7	Sololá	701	Sololá	4	Finca Santa Victoria	9	Septiembre	2023-09-21T00:00:00	2024-11-08T02:00:00	7	Dirección del viento	0
131787	7	Sololá	701	Sololá	4	Finca Santa Victoria	9	Septiembre	2023-09-21T00:00:00	2024-11-08T02:00:00	1	Precipitación	0
131788	7	Sololá	701	Sololá	4	Finca Santa Victoria	9	Septiembre	2023-09-21T00:00:00	2024-11-08T02:00:00	8	Radiación solar	0
131789	7	Sololá	701	Sololá	4	Finca Santa Victoria	9	Septiembre	2023-09-21T00:00:00	2024-11-08T03:00:00	2	Temperatura media	13.5
131790	7	Sololá	701	Sololá	4	Finca Santa Victoria	9	Septiembre	2023-09-21T00:00:00	2024-11-08T03:00:00	4	Temperatura máxima	13.8
131791	7	Sololá	701	Sololá	4	Finca Santa Victoria	9	Septiembre	2023-09-21T00:00:00	2024-11-08T03:00:00	3	Temperatura mínima	13.5
131792	7	Sololá	701	Sololá	4	Finca Santa Victoria	9	Septiembre	2023-09-21T00:00:00	2024-11-08T03:00:00	5	Humedad	89
131793	7	Sololá	701	Sololá	4	Finca Santa Victoria	9	Septiembre	2023-09-21T00:00:00	2024-11-08T03:00:00	6	Velocidad del viento	1.6
131794	7	Sololá	701	Sololá	4	Finca Santa Victoria	9	Septiembre	2023-09-21T00:00:00	2024-11-08T03:00:00	7	Dirección del viento	1.61
131795	7	Sololá	701	Sololá	4	Finca Santa Victoria	9	Septiembre	2023-09-21T00:00:00	2024-11-08T03:00:00	1	Precipitación	0
131796	7	Sololá	701	Sololá	4	Finca Santa Victoria	9	Septiembre	2023-09-21T00:00:00	2024-11-08T03:00:00	8	Radiación solar	0
131797	7	Sololá	701	Sololá	4	Finca Santa Victoria	9	Septiembre	2023-09-21T00:00:00	2024-11-08T04:00:00	2	Temperatura media	13.2
131798	7	Sololá	701	Sololá	4	Finca Santa Victoria	9	Septiembre	2023-09-21T00:00:00	2024-11-08T04:00:00	4	Temperatura máxima	13.6
131799	7	Sololá	701	Sololá	4	Finca Santa Victoria	9	Septiembre	2023-09-21T00:00:00	2024-11-08T04:00:00	3	Temperatura mínima	13.2
131800	7	Sololá	701	Sololá	4	Finca Santa Victoria	9	Septiembre	2023-09-21T00:00:00	2024-11-08T04:00:00	5	Humedad	88
131801	7	Sololá	701	Sololá	4	Finca Santa Victoria	9	Septiembre	2023-09-21T00:00:00	2024-11-08T04:00:00	6	Velocidad del viento	3.2
131802	7	Sololá	701	Sololá	4	Finca Santa Victoria	9	Septiembre	2023-09-21T00:00:00	2024-11-08T04:00:00	7	Dirección del viento	3.22
131803	7	Sololá	701	Sololá	4	Finca Santa Victoria	9	Septiembre	2023-09-21T00:00:00	2024-11-08T04:00:00	1	Precipitación	0
131804	7	Sololá	701	Sololá	4	Finca Santa Victoria	9	Septiembre	2023-09-21T00:00:00	2024-11-08T04:00:00	8	Radiación solar	0
131805	7	Sololá	701	Sololá	4	Finca Santa Victoria	9	Septiembre	2023-09-21T00:00:00	2024-11-08T05:00:00	2	Temperatura media	12.9
131806	7	Sololá	701	Sololá	4	Finca Santa Victoria	9	Septiembre	2023-09-21T00:00:00	2024-11-08T05:00:00	4	Temperatura máxima	13.3
131807	7	Sololá	701	Sololá	4	Finca Santa Victoria	9	Septiembre	2023-09-21T00:00:00	2024-11-08T05:00:00	3	Temperatura mínima	12.8
131808	7	Sololá	701	Sololá	4	Finca Santa Victoria	9	Septiembre	2023-09-21T00:00:00	2024-11-08T05:00:00	5	Humedad	89
131809	7	Sololá	701	Sololá	4	Finca Santa Victoria	9	Septiembre	2023-09-21T00:00:00	2024-11-08T05:00:00	6	Velocidad del viento	1.6
131810	7	Sololá	701	Sololá	4	Finca Santa Victoria	9	Septiembre	2023-09-21T00:00:00	2024-11-08T05:00:00	7	Dirección del viento	1.61
131811	7	Sololá	701	Sololá	4	Finca Santa Victoria	9	Septiembre	2023-09-21T00:00:00	2024-11-08T05:00:00	1	Precipitación	0
131812	7	Sololá	701	Sololá	4	Finca Santa Victoria	9	Septiembre	2023-09-21T00:00:00	2024-11-08T05:00:00	8	Radiación solar	0
131813	7	Sololá	701	Sololá	4	Finca Santa Victoria	9	Septiembre	2023-09-21T00:00:00	2024-11-08T06:00:00	2	Temperatura media	13.3
131814	7	Sololá	701	Sololá	4	Finca Santa Victoria	9	Septiembre	2023-09-21T00:00:00	2024-11-08T06:00:00	4	Temperatura máxima	13.3
131815	7	Sololá	701	Sololá	4	Finca Santa Victoria	9	Septiembre	2023-09-21T00:00:00	2024-11-08T06:00:00	3	Temperatura mínima	12.8
131816	7	Sololá	701	Sololá	4	Finca Santa Victoria	9	Septiembre	2023-09-21T00:00:00	2024-11-08T06:00:00	5	Humedad	88
131817	7	Sololá	701	Sololá	4	Finca Santa Victoria	9	Septiembre	2023-09-21T00:00:00	2024-11-08T06:00:00	6	Velocidad del viento	1.6
131818	7	Sololá	701	Sololá	4	Finca Santa Victoria	9	Septiembre	2023-09-21T00:00:00	2024-11-08T06:00:00	7	Dirección del viento	1.61
131819	7	Sololá	701	Sololá	4	Finca Santa Victoria	9	Septiembre	2023-09-21T00:00:00	2024-11-08T06:00:00	1	Precipitación	0
131820	7	Sololá	701	Sololá	4	Finca Santa Victoria	9	Septiembre	2023-09-21T00:00:00	2024-11-08T06:00:00	8	Radiación solar	0
131821	7	Sololá	701	Sololá	4	Finca Santa Victoria	9	Septiembre	2023-09-21T00:00:00	2024-11-08T07:00:00	2	Temperatura media	14.4
131822	7	Sololá	701	Sololá	4	Finca Santa Victoria	9	Septiembre	2023-09-21T00:00:00	2024-11-08T07:00:00	4	Temperatura máxima	14.4
131823	7	Sololá	701	Sololá	4	Finca Santa Victoria	9	Septiembre	2023-09-21T00:00:00	2024-11-08T07:00:00	3	Temperatura mínima	13.3
131824	7	Sololá	701	Sololá	4	Finca Santa Victoria	9	Septiembre	2023-09-21T00:00:00	2024-11-08T07:00:00	5	Humedad	88
131825	7	Sololá	701	Sololá	4	Finca Santa Victoria	9	Septiembre	2023-09-21T00:00:00	2024-11-08T07:00:00	6	Velocidad del viento	1.6
131826	7	Sololá	701	Sololá	4	Finca Santa Victoria	9	Septiembre	2023-09-21T00:00:00	2024-11-08T07:00:00	7	Dirección del viento	1.61
131827	7	Sololá	701	Sololá	4	Finca Santa Victoria	9	Septiembre	2023-09-21T00:00:00	2024-11-08T07:00:00	1	Precipitación	0
131828	7	Sololá	701	Sololá	4	Finca Santa Victoria	9	Septiembre	2023-09-21T00:00:00	2024-11-08T07:00:00	8	Radiación solar	39
131829	7	Sololá	701	Sololá	4	Finca Santa Victoria	9	Septiembre	2023-09-21T00:00:00	2024-11-08T08:00:00	2	Temperatura media	16.9
131830	7	Sololá	701	Sololá	4	Finca Santa Victoria	9	Septiembre	2023-09-21T00:00:00	2024-11-08T08:00:00	4	Temperatura máxima	16.9
131831	7	Sololá	701	Sololá	4	Finca Santa Victoria	9	Septiembre	2023-09-21T00:00:00	2024-11-08T08:00:00	3	Temperatura mínima	14.3
131832	7	Sololá	701	Sololá	4	Finca Santa Victoria	9	Septiembre	2023-09-21T00:00:00	2024-11-08T08:00:00	5	Humedad	80
131833	7	Sololá	701	Sololá	4	Finca Santa Victoria	9	Septiembre	2023-09-21T00:00:00	2024-11-08T08:00:00	6	Velocidad del viento	1.6
131834	7	Sololá	701	Sololá	4	Finca Santa Victoria	9	Septiembre	2023-09-21T00:00:00	2024-11-08T08:00:00	7	Dirección del viento	1.61
131835	7	Sololá	701	Sololá	4	Finca Santa Victoria	9	Septiembre	2023-09-21T00:00:00	2024-11-08T08:00:00	1	Precipitación	0
131836	7	Sololá	701	Sololá	4	Finca Santa Victoria	9	Septiembre	2023-09-21T00:00:00	2024-11-08T08:00:00	8	Radiación solar	198
131837	7	Sololá	701	Sololá	4	Finca Santa Victoria	9	Septiembre	2023-09-21T00:00:00	2024-11-08T09:00:00	2	Temperatura media	18.8
131838	7	Sololá	701	Sololá	4	Finca Santa Victoria	9	Septiembre	2023-09-21T00:00:00	2024-11-08T09:00:00	4	Temperatura máxima	18.8
131839	7	Sololá	701	Sololá	4	Finca Santa Victoria	9	Septiembre	2023-09-21T00:00:00	2024-11-08T09:00:00	3	Temperatura mínima	16.9
131840	7	Sololá	701	Sololá	4	Finca Santa Victoria	9	Septiembre	2023-09-21T00:00:00	2024-11-08T09:00:00	5	Humedad	74
131841	7	Sololá	701	Sololá	4	Finca Santa Victoria	9	Septiembre	2023-09-21T00:00:00	2024-11-08T09:00:00	6	Velocidad del viento	3.2
131842	7	Sololá	701	Sololá	4	Finca Santa Victoria	9	Septiembre	2023-09-21T00:00:00	2024-11-08T09:00:00	7	Dirección del viento	3.22
131843	7	Sololá	701	Sololá	4	Finca Santa Victoria	9	Septiembre	2023-09-21T00:00:00	2024-11-08T09:00:00	1	Precipitación	0
131844	7	Sololá	701	Sololá	4	Finca Santa Victoria	9	Septiembre	2023-09-21T00:00:00	2024-11-08T09:00:00	8	Radiación solar	351
131845	7	Sololá	701	Sololá	4	Finca Santa Victoria	9	Septiembre	2023-09-21T00:00:00	2024-11-08T10:00:00	2	Temperatura media	20.1
131846	7	Sololá	701	Sololá	4	Finca Santa Victoria	9	Septiembre	2023-09-21T00:00:00	2024-11-08T10:00:00	4	Temperatura máxima	20.5
131847	7	Sololá	701	Sololá	4	Finca Santa Victoria	9	Septiembre	2023-09-21T00:00:00	2024-11-08T10:00:00	3	Temperatura mínima	18.8
131848	7	Sololá	701	Sololá	4	Finca Santa Victoria	9	Septiembre	2023-09-21T00:00:00	2024-11-08T10:00:00	5	Humedad	70
131849	7	Sololá	701	Sololá	4	Finca Santa Victoria	9	Septiembre	2023-09-21T00:00:00	2024-11-08T10:00:00	6	Velocidad del viento	4.8
131850	7	Sololá	701	Sololá	4	Finca Santa Victoria	9	Septiembre	2023-09-21T00:00:00	2024-11-08T10:00:00	7	Dirección del viento	4.83
131851	7	Sololá	701	Sololá	4	Finca Santa Victoria	9	Septiembre	2023-09-21T00:00:00	2024-11-08T10:00:00	1	Precipitación	0
131852	7	Sololá	701	Sololá	4	Finca Santa Victoria	9	Septiembre	2023-09-21T00:00:00	2024-11-08T10:00:00	8	Radiación solar	772
131853	7	Sololá	701	Sololá	4	Finca Santa Victoria	9	Septiembre	2023-09-21T00:00:00	2024-11-08T11:00:00	2	Temperatura media	21.6
131854	7	Sololá	701	Sololá	4	Finca Santa Victoria	9	Septiembre	2023-09-21T00:00:00	2024-11-08T11:00:00	4	Temperatura máxima	21.6
131855	7	Sololá	701	Sololá	4	Finca Santa Victoria	9	Septiembre	2023-09-21T00:00:00	2024-11-08T11:00:00	3	Temperatura mínima	20.2
131856	7	Sololá	701	Sololá	4	Finca Santa Victoria	9	Septiembre	2023-09-21T00:00:00	2024-11-08T11:00:00	5	Humedad	67
131857	7	Sololá	701	Sololá	4	Finca Santa Victoria	9	Septiembre	2023-09-21T00:00:00	2024-11-08T11:00:00	6	Velocidad del viento	3.2
131858	7	Sololá	701	Sololá	4	Finca Santa Victoria	9	Septiembre	2023-09-21T00:00:00	2024-11-08T11:00:00	7	Dirección del viento	3.22
131859	7	Sololá	701	Sololá	4	Finca Santa Victoria	9	Septiembre	2023-09-21T00:00:00	2024-11-08T11:00:00	1	Precipitación	0
131860	7	Sololá	701	Sololá	4	Finca Santa Victoria	9	Septiembre	2023-09-21T00:00:00	2024-11-08T11:00:00	8	Radiación solar	838
131861	7	Sololá	701	Sololá	4	Finca Santa Victoria	9	Septiembre	2023-09-21T00:00:00	2024-11-08T12:00:00	2	Temperatura media	22.3
131862	7	Sololá	701	Sololá	4	Finca Santa Victoria	9	Septiembre	2023-09-21T00:00:00	2024-11-08T12:00:00	4	Temperatura máxima	22.5
131863	7	Sololá	701	Sololá	4	Finca Santa Victoria	9	Septiembre	2023-09-21T00:00:00	2024-11-08T12:00:00	3	Temperatura mínima	21.2
131864	7	Sololá	701	Sololá	4	Finca Santa Victoria	9	Septiembre	2023-09-21T00:00:00	2024-11-08T12:00:00	5	Humedad	62
131865	7	Sololá	701	Sololá	4	Finca Santa Victoria	9	Septiembre	2023-09-21T00:00:00	2024-11-08T12:00:00	6	Velocidad del viento	4.8
131866	7	Sololá	701	Sololá	4	Finca Santa Victoria	9	Septiembre	2023-09-21T00:00:00	2024-11-08T12:00:00	7	Dirección del viento	4.83
131867	7	Sololá	701	Sololá	4	Finca Santa Victoria	9	Septiembre	2023-09-21T00:00:00	2024-11-08T12:00:00	1	Precipitación	0
131868	7	Sololá	701	Sololá	4	Finca Santa Victoria	9	Septiembre	2023-09-21T00:00:00	2024-11-08T12:00:00	8	Radiación solar	852
131869	7	Sololá	701	Sololá	4	Finca Santa Victoria	9	Septiembre	2023-09-21T00:00:00	2024-11-08T13:00:00	2	Temperatura media	22
131870	7	Sololá	701	Sololá	4	Finca Santa Victoria	9	Septiembre	2023-09-21T00:00:00	2024-11-08T13:00:00	4	Temperatura máxima	22.8
131871	7	Sololá	701	Sololá	4	Finca Santa Victoria	9	Septiembre	2023-09-21T00:00:00	2024-11-08T13:00:00	3	Temperatura mínima	21.5
131872	7	Sololá	701	Sololá	4	Finca Santa Victoria	9	Septiembre	2023-09-21T00:00:00	2024-11-08T13:00:00	5	Humedad	66
131873	7	Sololá	701	Sololá	4	Finca Santa Victoria	9	Septiembre	2023-09-21T00:00:00	2024-11-08T13:00:00	6	Velocidad del viento	3.2
131874	7	Sololá	701	Sololá	4	Finca Santa Victoria	9	Septiembre	2023-09-21T00:00:00	2024-11-08T13:00:00	7	Dirección del viento	3.22
131875	7	Sololá	701	Sololá	4	Finca Santa Victoria	9	Septiembre	2023-09-21T00:00:00	2024-11-08T13:00:00	1	Precipitación	0
131876	7	Sololá	701	Sololá	4	Finca Santa Victoria	9	Septiembre	2023-09-21T00:00:00	2024-11-08T13:00:00	8	Radiación solar	260
131877	7	Sololá	701	Sololá	4	Finca Santa Victoria	9	Septiembre	2023-09-21T00:00:00	2024-11-08T14:00:00	2	Temperatura media	17
131878	7	Sololá	701	Sololá	4	Finca Santa Victoria	9	Septiembre	2023-09-21T00:00:00	2024-11-08T14:00:00	4	Temperatura máxima	18.9
131879	7	Sololá	701	Sololá	4	Finca Santa Victoria	9	Septiembre	2023-09-21T00:00:00	2024-11-08T14:00:00	3	Temperatura mínima	17
131880	7	Sololá	701	Sololá	4	Finca Santa Victoria	9	Septiembre	2023-09-21T00:00:00	2024-11-08T14:00:00	5	Humedad	88
131881	7	Sololá	701	Sololá	4	Finca Santa Victoria	9	Septiembre	2023-09-21T00:00:00	2024-11-08T14:00:00	6	Velocidad del viento	4.8
131882	7	Sololá	701	Sololá	4	Finca Santa Victoria	9	Septiembre	2023-09-21T00:00:00	2024-11-08T14:00:00	7	Dirección del viento	4.83
131883	7	Sololá	701	Sololá	4	Finca Santa Victoria	9	Septiembre	2023-09-21T00:00:00	2024-11-08T14:00:00	1	Precipitación	0
131884	7	Sololá	701	Sololá	4	Finca Santa Victoria	9	Septiembre	2023-09-21T00:00:00	2024-11-08T14:00:00	8	Radiación solar	260
131885	7	Sololá	701	Sololá	4	Finca Santa Victoria	9	Septiembre	2023-09-21T00:00:00	2024-11-08T15:00:00	2	Temperatura media	20.9
131886	7	Sololá	701	Sololá	4	Finca Santa Victoria	9	Septiembre	2023-09-21T00:00:00	2024-11-08T15:00:00	4	Temperatura máxima	22.9
131887	7	Sololá	701	Sololá	4	Finca Santa Victoria	9	Septiembre	2023-09-21T00:00:00	2024-11-08T15:00:00	3	Temperatura mínima	20.9
131888	7	Sololá	701	Sololá	4	Finca Santa Victoria	9	Septiembre	2023-09-21T00:00:00	2024-11-08T15:00:00	5	Humedad	66
131889	7	Sololá	701	Sololá	4	Finca Santa Victoria	9	Septiembre	2023-09-21T00:00:00	2024-11-08T15:00:00	6	Velocidad del viento	3.2
131890	7	Sololá	701	Sololá	4	Finca Santa Victoria	9	Septiembre	2023-09-21T00:00:00	2024-11-08T15:00:00	7	Dirección del viento	3.22
131891	7	Sololá	701	Sololá	4	Finca Santa Victoria	9	Septiembre	2023-09-21T00:00:00	2024-11-08T15:00:00	1	Precipitación	0
131892	7	Sololá	701	Sololá	4	Finca Santa Victoria	9	Septiembre	2023-09-21T00:00:00	2024-11-08T15:00:00	8	Radiación solar	152
131893	7	Sololá	701	Sololá	4	Finca Santa Victoria	9	Septiembre	2023-09-21T00:00:00	2024-11-08T16:00:00	2	Temperatura media	21.7
131894	7	Sololá	701	Sololá	4	Finca Santa Victoria	9	Septiembre	2023-09-21T00:00:00	2024-11-08T16:00:00	4	Temperatura máxima	22.2
131895	7	Sololá	701	Sololá	4	Finca Santa Victoria	9	Septiembre	2023-09-21T00:00:00	2024-11-08T16:00:00	3	Temperatura mínima	20.9
131896	7	Sololá	701	Sololá	4	Finca Santa Victoria	9	Septiembre	2023-09-21T00:00:00	2024-11-08T16:00:00	5	Humedad	63
131897	7	Sololá	701	Sololá	4	Finca Santa Victoria	9	Septiembre	2023-09-21T00:00:00	2024-11-08T16:00:00	6	Velocidad del viento	3.2
131898	7	Sololá	701	Sololá	4	Finca Santa Victoria	9	Septiembre	2023-09-21T00:00:00	2024-11-08T16:00:00	7	Dirección del viento	3.22
131899	7	Sololá	701	Sololá	4	Finca Santa Victoria	9	Septiembre	2023-09-21T00:00:00	2024-11-08T16:00:00	1	Precipitación	0
131900	7	Sololá	701	Sololá	4	Finca Santa Victoria	9	Septiembre	2023-09-21T00:00:00	2024-11-08T16:00:00	8	Radiación solar	143
131901	7	Sololá	701	Sololá	4	Finca Santa Victoria	9	Septiembre	2023-09-21T00:00:00	2024-11-08T17:00:00	2	Temperatura media	18.3
131902	7	Sololá	701	Sololá	4	Finca Santa Victoria	9	Septiembre	2023-09-21T00:00:00	2024-11-08T17:00:00	4	Temperatura máxima	22.3
131903	7	Sololá	701	Sololá	4	Finca Santa Victoria	9	Septiembre	2023-09-21T00:00:00	2024-11-08T17:00:00	3	Temperatura mínima	18.3
131904	7	Sololá	701	Sololá	4	Finca Santa Victoria	9	Septiembre	2023-09-21T00:00:00	2024-11-08T17:00:00	5	Humedad	92
131905	7	Sololá	701	Sololá	4	Finca Santa Victoria	9	Septiembre	2023-09-21T00:00:00	2024-11-08T17:00:00	6	Velocidad del viento	1.6
131906	7	Sololá	701	Sololá	4	Finca Santa Victoria	9	Septiembre	2023-09-21T00:00:00	2024-11-08T17:00:00	7	Dirección del viento	1.61
131907	7	Sololá	701	Sololá	4	Finca Santa Victoria	9	Septiembre	2023-09-21T00:00:00	2024-11-08T17:00:00	1	Precipitación	0
131908	7	Sololá	701	Sololá	4	Finca Santa Victoria	9	Septiembre	2023-09-21T00:00:00	2024-11-08T17:00:00	8	Radiación solar	127
131909	7	Sololá	701	Sololá	4	Finca Santa Victoria	9	Septiembre	2023-09-21T00:00:00	2024-11-08T18:00:00	2	Temperatura media	16.8
131910	7	Sololá	701	Sololá	4	Finca Santa Victoria	9	Septiembre	2023-09-21T00:00:00	2024-11-08T18:00:00	4	Temperatura máxima	18.3
131911	7	Sololá	701	Sololá	4	Finca Santa Victoria	9	Septiembre	2023-09-21T00:00:00	2024-11-08T18:00:00	3	Temperatura mínima	16.8
131912	7	Sololá	701	Sololá	4	Finca Santa Victoria	9	Septiembre	2023-09-21T00:00:00	2024-11-08T18:00:00	5	Humedad	95
131913	7	Sololá	701	Sololá	4	Finca Santa Victoria	9	Septiembre	2023-09-21T00:00:00	2024-11-08T18:00:00	6	Velocidad del viento	1.6
131914	7	Sololá	701	Sololá	4	Finca Santa Victoria	9	Septiembre	2023-09-21T00:00:00	2024-11-08T18:00:00	7	Dirección del viento	1.61
131915	7	Sololá	701	Sololá	4	Finca Santa Victoria	9	Septiembre	2023-09-21T00:00:00	2024-11-08T18:00:00	1	Precipitación	0
131916	7	Sololá	701	Sololá	4	Finca Santa Victoria	9	Septiembre	2023-09-21T00:00:00	2024-11-08T18:00:00	8	Radiación solar	9
131917	7	Sololá	701	Sololá	4	Finca Santa Victoria	9	Septiembre	2023-09-21T00:00:00	2024-11-08T19:00:00	2	Temperatura media	16.1
131918	7	Sololá	701	Sololá	4	Finca Santa Victoria	9	Septiembre	2023-09-21T00:00:00	2024-11-08T19:00:00	4	Temperatura máxima	16.8
131919	7	Sololá	701	Sololá	4	Finca Santa Victoria	9	Septiembre	2023-09-21T00:00:00	2024-11-08T19:00:00	3	Temperatura mínima	16.1
131920	7	Sololá	701	Sololá	4	Finca Santa Victoria	9	Septiembre	2023-09-21T00:00:00	2024-11-08T19:00:00	5	Humedad	94
131921	7	Sololá	701	Sololá	4	Finca Santa Victoria	9	Septiembre	2023-09-21T00:00:00	2024-11-08T19:00:00	6	Velocidad del viento	0
131922	7	Sololá	701	Sololá	4	Finca Santa Victoria	9	Septiembre	2023-09-21T00:00:00	2024-11-08T19:00:00	7	Dirección del viento	0
131923	7	Sololá	701	Sololá	4	Finca Santa Victoria	9	Septiembre	2023-09-21T00:00:00	2024-11-08T19:00:00	1	Precipitación	0
131924	7	Sololá	701	Sololá	4	Finca Santa Victoria	9	Septiembre	2023-09-21T00:00:00	2024-11-08T19:00:00	8	Radiación solar	0
131925	7	Sololá	701	Sololá	4	Finca Santa Victoria	9	Septiembre	2023-09-21T00:00:00	2024-11-08T20:00:00	2	Temperatura media	15.6
131926	7	Sololá	701	Sololá	4	Finca Santa Victoria	9	Septiembre	2023-09-21T00:00:00	2024-11-08T20:00:00	4	Temperatura máxima	16.2
131927	7	Sololá	701	Sololá	4	Finca Santa Victoria	9	Septiembre	2023-09-21T00:00:00	2024-11-08T20:00:00	3	Temperatura mínima	15.5
131928	7	Sololá	701	Sololá	4	Finca Santa Victoria	9	Septiembre	2023-09-21T00:00:00	2024-11-08T20:00:00	5	Humedad	97
131929	7	Sololá	701	Sololá	4	Finca Santa Victoria	9	Septiembre	2023-09-21T00:00:00	2024-11-08T20:00:00	6	Velocidad del viento	0
131930	7	Sololá	701	Sololá	4	Finca Santa Victoria	9	Septiembre	2023-09-21T00:00:00	2024-11-08T20:00:00	7	Dirección del viento	0
131931	7	Sololá	701	Sololá	4	Finca Santa Victoria	9	Septiembre	2023-09-21T00:00:00	2024-11-08T20:00:00	1	Precipitación	0
131932	7	Sololá	701	Sololá	4	Finca Santa Victoria	9	Septiembre	2023-09-21T00:00:00	2024-11-08T20:00:00	8	Radiación solar	0
131933	7	Sololá	701	Sololá	4	Finca Santa Victoria	9	Septiembre	2023-09-21T00:00:00	2024-11-08T21:00:00	2	Temperatura media	15.4
131934	7	Sololá	701	Sololá	4	Finca Santa Victoria	9	Septiembre	2023-09-21T00:00:00	2024-11-08T21:00:00	4	Temperatura máxima	15.6
131935	7	Sololá	701	Sololá	4	Finca Santa Victoria	9	Septiembre	2023-09-21T00:00:00	2024-11-08T21:00:00	3	Temperatura mínima	15.3
131936	7	Sololá	701	Sololá	4	Finca Santa Victoria	9	Septiembre	2023-09-21T00:00:00	2024-11-08T21:00:00	5	Humedad	97
131937	7	Sololá	701	Sololá	4	Finca Santa Victoria	9	Septiembre	2023-09-21T00:00:00	2024-11-08T21:00:00	6	Velocidad del viento	0
131938	7	Sololá	701	Sololá	4	Finca Santa Victoria	9	Septiembre	2023-09-21T00:00:00	2024-11-08T21:00:00	7	Dirección del viento	0
131939	7	Sololá	701	Sololá	4	Finca Santa Victoria	9	Septiembre	2023-09-21T00:00:00	2024-11-08T21:00:00	1	Precipitación	9.4
131940	7	Sololá	701	Sololá	4	Finca Santa Victoria	9	Septiembre	2023-09-21T00:00:00	2024-11-08T21:00:00	8	Radiación solar	0
131941	7	Sololá	701	Sololá	4	Finca Santa Victoria	9	Septiembre	2023-09-21T00:00:00	2024-11-08T22:00:00	2	Temperatura media	14.9
131942	7	Sololá	701	Sololá	4	Finca Santa Victoria	9	Septiembre	2023-09-21T00:00:00	2024-11-08T22:00:00	4	Temperatura máxima	15.4
131943	7	Sololá	701	Sololá	4	Finca Santa Victoria	9	Septiembre	2023-09-21T00:00:00	2024-11-08T22:00:00	3	Temperatura mínima	14.9
131944	7	Sololá	701	Sololá	4	Finca Santa Victoria	9	Septiembre	2023-09-21T00:00:00	2024-11-08T22:00:00	5	Humedad	98
131945	7	Sololá	701	Sololá	4	Finca Santa Victoria	9	Septiembre	2023-09-21T00:00:00	2024-11-08T22:00:00	6	Velocidad del viento	1.6
131946	7	Sololá	701	Sololá	4	Finca Santa Victoria	9	Septiembre	2023-09-21T00:00:00	2024-11-08T22:00:00	7	Dirección del viento	1.61
131947	7	Sololá	701	Sololá	4	Finca Santa Victoria	9	Septiembre	2023-09-21T00:00:00	2024-11-08T22:00:00	1	Precipitación	15.2
131948	7	Sololá	701	Sololá	4	Finca Santa Victoria	9	Septiembre	2023-09-21T00:00:00	2024-11-08T22:00:00	8	Radiación solar	0
131949	7	Sololá	701	Sololá	4	Finca Santa Victoria	9	Septiembre	2023-09-21T00:00:00	2024-11-08T23:00:00	2	Temperatura media	14.5
131950	7	Sololá	701	Sololá	4	Finca Santa Victoria	9	Septiembre	2023-09-21T00:00:00	2024-11-08T23:00:00	4	Temperatura máxima	14.9
131951	7	Sololá	701	Sololá	4	Finca Santa Victoria	9	Septiembre	2023-09-21T00:00:00	2024-11-08T23:00:00	3	Temperatura mínima	14.5
131952	7	Sololá	701	Sololá	4	Finca Santa Victoria	9	Septiembre	2023-09-21T00:00:00	2024-11-08T23:00:00	5	Humedad	96
131953	7	Sololá	701	Sololá	4	Finca Santa Victoria	9	Septiembre	2023-09-21T00:00:00	2024-11-08T23:00:00	6	Velocidad del viento	1.6
131954	7	Sololá	701	Sololá	4	Finca Santa Victoria	9	Septiembre	2023-09-21T00:00:00	2024-11-08T23:00:00	7	Dirección del viento	1.61
131955	7	Sololá	701	Sololá	4	Finca Santa Victoria	9	Septiembre	2023-09-21T00:00:00	2024-11-08T23:00:00	1	Precipitación	0.4
131956	7	Sololá	701	Sololá	4	Finca Santa Victoria	9	Septiembre	2023-09-21T00:00:00	2024-11-08T23:00:00	8	Radiación solar	0
131957	7	Sololá	701	Sololá	4	Finca Santa Victoria	9	Septiembre	2023-09-22T00:00:00	2024-11-08T00:00:00	2	Temperatura media	13.9
131958	7	Sololá	701	Sololá	4	Finca Santa Victoria	9	Septiembre	2023-09-22T00:00:00	2024-11-08T00:00:00	4	Temperatura máxima	14.6
131959	7	Sololá	701	Sololá	4	Finca Santa Victoria	9	Septiembre	2023-09-22T00:00:00	2024-11-08T00:00:00	3	Temperatura mínima	13.9
131960	7	Sololá	701	Sololá	4	Finca Santa Victoria	9	Septiembre	2023-09-22T00:00:00	2024-11-08T00:00:00	5	Humedad	97
131961	7	Sololá	701	Sololá	4	Finca Santa Victoria	9	Septiembre	2023-09-22T00:00:00	2024-11-08T00:00:00	6	Velocidad del viento	0
131962	7	Sololá	701	Sololá	4	Finca Santa Victoria	9	Septiembre	2023-09-22T00:00:00	2024-11-08T00:00:00	7	Dirección del viento	0
131963	7	Sololá	701	Sololá	4	Finca Santa Victoria	9	Septiembre	2023-09-22T00:00:00	2024-11-08T00:00:00	1	Precipitación	0.2
131964	7	Sololá	701	Sololá	4	Finca Santa Victoria	9	Septiembre	2023-09-22T00:00:00	2024-11-08T00:00:00	8	Radiación solar	0
131965	7	Sololá	701	Sololá	4	Finca Santa Victoria	9	Septiembre	2023-09-22T00:00:00	2024-11-08T01:00:00	2	Temperatura media	13.8
131966	7	Sololá	701	Sololá	4	Finca Santa Victoria	9	Septiembre	2023-09-22T00:00:00	2024-11-08T01:00:00	4	Temperatura máxima	13.9
131967	7	Sololá	701	Sololá	4	Finca Santa Victoria	9	Septiembre	2023-09-22T00:00:00	2024-11-08T01:00:00	3	Temperatura mínima	13.7
131968	7	Sololá	701	Sololá	4	Finca Santa Victoria	9	Septiembre	2023-09-22T00:00:00	2024-11-08T01:00:00	5	Humedad	97
131969	7	Sololá	701	Sololá	4	Finca Santa Victoria	9	Septiembre	2023-09-22T00:00:00	2024-11-08T01:00:00	6	Velocidad del viento	0
131970	7	Sololá	701	Sololá	4	Finca Santa Victoria	9	Septiembre	2023-09-22T00:00:00	2024-11-08T01:00:00	7	Dirección del viento	0
131971	7	Sololá	701	Sololá	4	Finca Santa Victoria	9	Septiembre	2023-09-22T00:00:00	2024-11-08T01:00:00	1	Precipitación	0
131972	7	Sololá	701	Sololá	4	Finca Santa Victoria	9	Septiembre	2023-09-22T00:00:00	2024-11-08T01:00:00	8	Radiación solar	0
131973	7	Sololá	701	Sololá	4	Finca Santa Victoria	9	Septiembre	2023-09-22T00:00:00	2024-11-08T02:00:00	2	Temperatura media	13.9
131974	7	Sololá	701	Sololá	4	Finca Santa Victoria	9	Septiembre	2023-09-22T00:00:00	2024-11-08T02:00:00	4	Temperatura máxima	13.9
131975	7	Sololá	701	Sololá	4	Finca Santa Victoria	9	Septiembre	2023-09-22T00:00:00	2024-11-08T02:00:00	3	Temperatura mínima	13.8
131976	7	Sololá	701	Sololá	4	Finca Santa Victoria	9	Septiembre	2023-09-22T00:00:00	2024-11-08T02:00:00	5	Humedad	97
131977	7	Sololá	701	Sololá	4	Finca Santa Victoria	9	Septiembre	2023-09-22T00:00:00	2024-11-08T02:00:00	6	Velocidad del viento	0
131978	7	Sololá	701	Sololá	4	Finca Santa Victoria	9	Septiembre	2023-09-22T00:00:00	2024-11-08T02:00:00	7	Dirección del viento	0
131979	7	Sololá	701	Sololá	4	Finca Santa Victoria	9	Septiembre	2023-09-22T00:00:00	2024-11-08T02:00:00	1	Precipitación	1.2
131980	7	Sololá	701	Sololá	4	Finca Santa Victoria	9	Septiembre	2023-09-22T00:00:00	2024-11-08T02:00:00	8	Radiación solar	0
131981	7	Sololá	701	Sololá	4	Finca Santa Victoria	9	Septiembre	2023-09-22T00:00:00	2024-11-08T03:00:00	2	Temperatura media	13.7
131982	7	Sololá	701	Sololá	4	Finca Santa Victoria	9	Septiembre	2023-09-22T00:00:00	2024-11-08T03:00:00	4	Temperatura máxima	13.9
131983	7	Sololá	701	Sololá	4	Finca Santa Victoria	9	Septiembre	2023-09-22T00:00:00	2024-11-08T03:00:00	3	Temperatura mínima	13.6
131984	7	Sololá	701	Sololá	4	Finca Santa Victoria	9	Septiembre	2023-09-22T00:00:00	2024-11-08T03:00:00	5	Humedad	97
131985	7	Sololá	701	Sololá	4	Finca Santa Victoria	9	Septiembre	2023-09-22T00:00:00	2024-11-08T03:00:00	6	Velocidad del viento	1.6
131986	7	Sololá	701	Sololá	4	Finca Santa Victoria	9	Septiembre	2023-09-22T00:00:00	2024-11-08T03:00:00	7	Dirección del viento	1.61
131987	7	Sololá	701	Sololá	4	Finca Santa Victoria	9	Septiembre	2023-09-22T00:00:00	2024-11-08T03:00:00	1	Precipitación	0
131988	7	Sololá	701	Sololá	4	Finca Santa Victoria	9	Septiembre	2023-09-22T00:00:00	2024-11-08T03:00:00	8	Radiación solar	0
131989	7	Sololá	701	Sololá	4	Finca Santa Victoria	9	Septiembre	2023-09-22T00:00:00	2024-11-08T04:00:00	2	Temperatura media	13.8
131990	7	Sololá	701	Sololá	4	Finca Santa Victoria	9	Septiembre	2023-09-22T00:00:00	2024-11-08T04:00:00	4	Temperatura máxima	13.8
131991	7	Sololá	701	Sololá	4	Finca Santa Victoria	9	Septiembre	2023-09-22T00:00:00	2024-11-08T04:00:00	3	Temperatura mínima	13.6
131992	7	Sololá	701	Sololá	4	Finca Santa Victoria	9	Septiembre	2023-09-22T00:00:00	2024-11-08T04:00:00	5	Humedad	95
131993	7	Sololá	701	Sololá	4	Finca Santa Victoria	9	Septiembre	2023-09-22T00:00:00	2024-11-08T04:00:00	6	Velocidad del viento	1.6
131994	7	Sololá	701	Sololá	4	Finca Santa Victoria	9	Septiembre	2023-09-22T00:00:00	2024-11-08T04:00:00	7	Dirección del viento	1.61
131995	7	Sololá	701	Sololá	4	Finca Santa Victoria	9	Septiembre	2023-09-22T00:00:00	2024-11-08T04:00:00	1	Precipitación	0
131996	7	Sololá	701	Sololá	4	Finca Santa Victoria	9	Septiembre	2023-09-22T00:00:00	2024-11-08T04:00:00	8	Radiación solar	0
131997	7	Sololá	701	Sololá	4	Finca Santa Victoria	9	Septiembre	2023-09-22T00:00:00	2024-11-08T05:00:00	2	Temperatura media	13.8
131998	7	Sololá	701	Sololá	4	Finca Santa Victoria	9	Septiembre	2023-09-22T00:00:00	2024-11-08T05:00:00	4	Temperatura máxima	13.9
131999	7	Sololá	701	Sololá	4	Finca Santa Victoria	9	Septiembre	2023-09-22T00:00:00	2024-11-08T05:00:00	3	Temperatura mínima	13.7
132000	7	Sololá	701	Sololá	4	Finca Santa Victoria	9	Septiembre	2023-09-22T00:00:00	2024-11-08T05:00:00	5	Humedad	94
132001	7	Sololá	701	Sololá	4	Finca Santa Victoria	9	Septiembre	2023-09-22T00:00:00	2024-11-08T05:00:00	6	Velocidad del viento	1.6
132002	7	Sololá	701	Sololá	4	Finca Santa Victoria	9	Septiembre	2023-09-22T00:00:00	2024-11-08T05:00:00	7	Dirección del viento	1.61
132003	7	Sololá	701	Sololá	4	Finca Santa Victoria	9	Septiembre	2023-09-22T00:00:00	2024-11-08T05:00:00	1	Precipitación	0
132004	7	Sololá	701	Sololá	4	Finca Santa Victoria	9	Septiembre	2023-09-22T00:00:00	2024-11-08T05:00:00	8	Radiación solar	0
132005	7	Sololá	701	Sololá	4	Finca Santa Victoria	9	Septiembre	2023-09-22T00:00:00	2024-11-08T06:00:00	2	Temperatura media	13.7
132006	7	Sololá	701	Sololá	4	Finca Santa Victoria	9	Septiembre	2023-09-22T00:00:00	2024-11-08T06:00:00	4	Temperatura máxima	13.9
132007	7	Sololá	701	Sololá	4	Finca Santa Victoria	9	Septiembre	2023-09-22T00:00:00	2024-11-08T06:00:00	3	Temperatura mínima	13.6
132008	7	Sololá	701	Sololá	4	Finca Santa Victoria	9	Septiembre	2023-09-22T00:00:00	2024-11-08T06:00:00	5	Humedad	94
132009	7	Sololá	701	Sololá	4	Finca Santa Victoria	9	Septiembre	2023-09-22T00:00:00	2024-11-08T06:00:00	6	Velocidad del viento	1.6
132010	7	Sololá	701	Sololá	4	Finca Santa Victoria	9	Septiembre	2023-09-22T00:00:00	2024-11-08T06:00:00	7	Dirección del viento	1.61
132011	7	Sololá	701	Sololá	4	Finca Santa Victoria	9	Septiembre	2023-09-22T00:00:00	2024-11-08T06:00:00	1	Precipitación	0
132012	7	Sololá	701	Sololá	4	Finca Santa Victoria	9	Septiembre	2023-09-22T00:00:00	2024-11-08T06:00:00	8	Radiación solar	0
132013	7	Sololá	701	Sololá	4	Finca Santa Victoria	9	Septiembre	2023-09-22T00:00:00	2024-11-08T07:00:00	2	Temperatura media	14
132014	7	Sololá	701	Sololá	4	Finca Santa Victoria	9	Septiembre	2023-09-22T00:00:00	2024-11-08T07:00:00	4	Temperatura máxima	14.1
132015	7	Sololá	701	Sololá	4	Finca Santa Victoria	9	Septiembre	2023-09-22T00:00:00	2024-11-08T07:00:00	3	Temperatura mínima	13.7
132016	7	Sololá	701	Sololá	4	Finca Santa Victoria	9	Septiembre	2023-09-22T00:00:00	2024-11-08T07:00:00	5	Humedad	93
132017	7	Sololá	701	Sololá	4	Finca Santa Victoria	9	Septiembre	2023-09-22T00:00:00	2024-11-08T07:00:00	6	Velocidad del viento	1.6
132018	7	Sololá	701	Sololá	4	Finca Santa Victoria	9	Septiembre	2023-09-22T00:00:00	2024-11-08T07:00:00	7	Dirección del viento	1.61
132019	7	Sololá	701	Sololá	4	Finca Santa Victoria	9	Septiembre	2023-09-22T00:00:00	2024-11-08T07:00:00	1	Precipitación	0
132020	7	Sololá	701	Sololá	4	Finca Santa Victoria	9	Septiembre	2023-09-22T00:00:00	2024-11-08T07:00:00	8	Radiación solar	16
132021	7	Sololá	701	Sololá	4	Finca Santa Victoria	9	Septiembre	2023-09-22T00:00:00	2024-11-08T08:00:00	2	Temperatura media	16.5
132022	7	Sololá	701	Sololá	4	Finca Santa Victoria	9	Septiembre	2023-09-22T00:00:00	2024-11-08T08:00:00	4	Temperatura máxima	16.5
132023	7	Sololá	701	Sololá	4	Finca Santa Victoria	9	Septiembre	2023-09-22T00:00:00	2024-11-08T08:00:00	3	Temperatura mínima	14
132024	7	Sololá	701	Sololá	4	Finca Santa Victoria	9	Septiembre	2023-09-22T00:00:00	2024-11-08T08:00:00	5	Humedad	85
132025	7	Sololá	701	Sololá	4	Finca Santa Victoria	9	Septiembre	2023-09-22T00:00:00	2024-11-08T08:00:00	6	Velocidad del viento	3.2
132026	7	Sololá	701	Sololá	4	Finca Santa Victoria	9	Septiembre	2023-09-22T00:00:00	2024-11-08T08:00:00	7	Dirección del viento	3.22
132027	7	Sololá	701	Sololá	4	Finca Santa Victoria	9	Septiembre	2023-09-22T00:00:00	2024-11-08T08:00:00	1	Precipitación	0
132028	7	Sololá	701	Sololá	4	Finca Santa Victoria	9	Septiembre	2023-09-22T00:00:00	2024-11-08T08:00:00	8	Radiación solar	112
132029	7	Sololá	701	Sololá	4	Finca Santa Victoria	9	Septiembre	2023-09-22T00:00:00	2024-11-08T09:00:00	2	Temperatura media	18.6
132030	7	Sololá	701	Sololá	4	Finca Santa Victoria	9	Septiembre	2023-09-22T00:00:00	2024-11-08T09:00:00	4	Temperatura máxima	18.6
132031	7	Sololá	701	Sololá	4	Finca Santa Victoria	9	Septiembre	2023-09-22T00:00:00	2024-11-08T09:00:00	3	Temperatura mínima	16.5
132032	7	Sololá	701	Sololá	4	Finca Santa Victoria	9	Septiembre	2023-09-22T00:00:00	2024-11-08T09:00:00	5	Humedad	75
132033	7	Sololá	701	Sololá	4	Finca Santa Victoria	9	Septiembre	2023-09-22T00:00:00	2024-11-08T09:00:00	6	Velocidad del viento	3.2
132034	7	Sololá	701	Sololá	4	Finca Santa Victoria	9	Septiembre	2023-09-22T00:00:00	2024-11-08T09:00:00	7	Dirección del viento	3.22
132035	7	Sololá	701	Sololá	4	Finca Santa Victoria	9	Septiembre	2023-09-22T00:00:00	2024-11-08T09:00:00	1	Precipitación	0.2
132036	7	Sololá	701	Sololá	4	Finca Santa Victoria	9	Septiembre	2023-09-22T00:00:00	2024-11-08T09:00:00	8	Radiación solar	318
132037	7	Sololá	701	Sololá	4	Finca Santa Victoria	9	Septiembre	2023-09-22T00:00:00	2024-11-08T10:00:00	2	Temperatura media	18.4
132038	7	Sololá	701	Sololá	4	Finca Santa Victoria	9	Septiembre	2023-09-22T00:00:00	2024-11-08T10:00:00	4	Temperatura máxima	18.7
132039	7	Sololá	701	Sololá	4	Finca Santa Victoria	9	Septiembre	2023-09-22T00:00:00	2024-11-08T10:00:00	3	Temperatura mínima	17.2
132040	7	Sololá	701	Sololá	4	Finca Santa Victoria	9	Septiembre	2023-09-22T00:00:00	2024-11-08T10:00:00	5	Humedad	78
132041	7	Sololá	701	Sololá	4	Finca Santa Victoria	9	Septiembre	2023-09-22T00:00:00	2024-11-08T10:00:00	6	Velocidad del viento	1.6
132042	7	Sololá	701	Sololá	4	Finca Santa Victoria	9	Septiembre	2023-09-22T00:00:00	2024-11-08T10:00:00	7	Dirección del viento	1.61
132043	7	Sololá	701	Sololá	4	Finca Santa Victoria	9	Septiembre	2023-09-22T00:00:00	2024-11-08T10:00:00	1	Precipitación	0
132044	7	Sololá	701	Sololá	4	Finca Santa Victoria	9	Septiembre	2023-09-22T00:00:00	2024-11-08T10:00:00	8	Radiación solar	213
132045	7	Sololá	701	Sololá	4	Finca Santa Victoria	9	Septiembre	2023-09-22T00:00:00	2024-11-08T11:00:00	2	Temperatura media	19.2
132046	7	Sololá	701	Sololá	4	Finca Santa Victoria	9	Septiembre	2023-09-22T00:00:00	2024-11-08T11:00:00	4	Temperatura máxima	20.7
132047	7	Sololá	701	Sololá	4	Finca Santa Victoria	9	Septiembre	2023-09-22T00:00:00	2024-11-08T11:00:00	3	Temperatura mínima	19.1
132048	7	Sololá	701	Sololá	4	Finca Santa Victoria	9	Septiembre	2023-09-22T00:00:00	2024-11-08T11:00:00	5	Humedad	65
132049	7	Sololá	701	Sololá	4	Finca Santa Victoria	9	Septiembre	2023-09-22T00:00:00	2024-11-08T11:00:00	6	Velocidad del viento	1.6
132050	7	Sololá	701	Sololá	4	Finca Santa Victoria	9	Septiembre	2023-09-22T00:00:00	2024-11-08T11:00:00	7	Dirección del viento	1.61
132051	7	Sololá	701	Sololá	4	Finca Santa Victoria	9	Septiembre	2023-09-22T00:00:00	2024-11-08T11:00:00	1	Precipitación	0
132052	7	Sololá	701	Sololá	4	Finca Santa Victoria	9	Septiembre	2023-09-22T00:00:00	2024-11-08T11:00:00	8	Radiación solar	974
132053	7	Sololá	701	Sololá	4	Finca Santa Victoria	9	Septiembre	2023-09-22T00:00:00	2024-11-08T12:00:00	2	Temperatura media	18.5
132054	7	Sololá	701	Sololá	4	Finca Santa Victoria	9	Septiembre	2023-09-22T00:00:00	2024-11-08T12:00:00	4	Temperatura máxima	19.5
132055	7	Sololá	701	Sololá	4	Finca Santa Victoria	9	Septiembre	2023-09-22T00:00:00	2024-11-08T12:00:00	3	Temperatura mínima	18.2
132056	7	Sololá	701	Sololá	4	Finca Santa Victoria	9	Septiembre	2023-09-22T00:00:00	2024-11-08T12:00:00	5	Humedad	81
132057	7	Sololá	701	Sololá	4	Finca Santa Victoria	9	Septiembre	2023-09-22T00:00:00	2024-11-08T12:00:00	6	Velocidad del viento	3.2
132058	7	Sololá	701	Sololá	4	Finca Santa Victoria	9	Septiembre	2023-09-22T00:00:00	2024-11-08T12:00:00	7	Dirección del viento	3.22
132059	7	Sololá	701	Sololá	4	Finca Santa Victoria	9	Septiembre	2023-09-22T00:00:00	2024-11-08T12:00:00	1	Precipitación	0
132060	7	Sololá	701	Sololá	4	Finca Santa Victoria	9	Septiembre	2023-09-22T00:00:00	2024-11-08T12:00:00	8	Radiación solar	1030
132061	7	Sololá	701	Sololá	4	Finca Santa Victoria	9	Septiembre	2023-09-22T00:00:00	2024-11-08T13:00:00	2	Temperatura media	16.8
132062	7	Sololá	701	Sololá	4	Finca Santa Victoria	9	Septiembre	2023-09-22T00:00:00	2024-11-08T13:00:00	4	Temperatura máxima	18.6
132063	7	Sololá	701	Sololá	4	Finca Santa Victoria	9	Septiembre	2023-09-22T00:00:00	2024-11-08T13:00:00	3	Temperatura mínima	16.8
132064	7	Sololá	701	Sololá	4	Finca Santa Victoria	9	Septiembre	2023-09-22T00:00:00	2024-11-08T13:00:00	5	Humedad	87
132065	7	Sololá	701	Sololá	4	Finca Santa Victoria	9	Septiembre	2023-09-22T00:00:00	2024-11-08T13:00:00	6	Velocidad del viento	3.2
132066	7	Sololá	701	Sololá	4	Finca Santa Victoria	9	Septiembre	2023-09-22T00:00:00	2024-11-08T13:00:00	7	Dirección del viento	3.22
132067	7	Sololá	701	Sololá	4	Finca Santa Victoria	9	Septiembre	2023-09-22T00:00:00	2024-11-08T13:00:00	1	Precipitación	0
132068	7	Sololá	701	Sololá	4	Finca Santa Victoria	9	Septiembre	2023-09-22T00:00:00	2024-11-08T13:00:00	8	Radiación solar	262
132069	7	Sololá	701	Sololá	4	Finca Santa Victoria	9	Septiembre	2023-09-22T00:00:00	2024-11-08T14:00:00	2	Temperatura media	17
132070	7	Sololá	701	Sololá	4	Finca Santa Victoria	9	Septiembre	2023-09-22T00:00:00	2024-11-08T14:00:00	4	Temperatura máxima	17.2
132071	7	Sololá	701	Sololá	4	Finca Santa Victoria	9	Septiembre	2023-09-22T00:00:00	2024-11-08T14:00:00	3	Temperatura mínima	16.5
132072	7	Sololá	701	Sololá	4	Finca Santa Victoria	9	Septiembre	2023-09-22T00:00:00	2024-11-08T14:00:00	5	Humedad	86
132073	7	Sololá	701	Sololá	4	Finca Santa Victoria	9	Septiembre	2023-09-22T00:00:00	2024-11-08T14:00:00	6	Velocidad del viento	3.2
132074	7	Sololá	701	Sololá	4	Finca Santa Victoria	9	Septiembre	2023-09-22T00:00:00	2024-11-08T14:00:00	7	Dirección del viento	3.22
132075	7	Sololá	701	Sololá	4	Finca Santa Victoria	9	Septiembre	2023-09-22T00:00:00	2024-11-08T14:00:00	1	Precipitación	0
132076	7	Sololá	701	Sololá	4	Finca Santa Victoria	9	Septiembre	2023-09-22T00:00:00	2024-11-08T14:00:00	8	Radiación solar	218
132077	7	Sololá	701	Sololá	4	Finca Santa Victoria	9	Septiembre	2023-09-22T00:00:00	2024-11-08T15:00:00	2	Temperatura media	17.8
132078	7	Sololá	701	Sololá	4	Finca Santa Victoria	9	Septiembre	2023-09-22T00:00:00	2024-11-08T15:00:00	4	Temperatura máxima	18.2
132079	7	Sololá	701	Sololá	4	Finca Santa Victoria	9	Septiembre	2023-09-22T00:00:00	2024-11-08T15:00:00	3	Temperatura mínima	17
132080	7	Sololá	701	Sololá	4	Finca Santa Victoria	9	Septiembre	2023-09-22T00:00:00	2024-11-08T15:00:00	5	Humedad	84
132081	7	Sololá	701	Sololá	4	Finca Santa Victoria	9	Septiembre	2023-09-22T00:00:00	2024-11-08T15:00:00	6	Velocidad del viento	3.2
132082	7	Sololá	701	Sololá	4	Finca Santa Victoria	9	Septiembre	2023-09-22T00:00:00	2024-11-08T15:00:00	7	Dirección del viento	3.22
132083	7	Sololá	701	Sololá	4	Finca Santa Victoria	9	Septiembre	2023-09-22T00:00:00	2024-11-08T15:00:00	1	Precipitación	0
132084	7	Sololá	701	Sololá	4	Finca Santa Victoria	9	Septiembre	2023-09-22T00:00:00	2024-11-08T15:00:00	8	Radiación solar	160
132085	7	Sololá	701	Sololá	4	Finca Santa Victoria	9	Septiembre	2023-09-22T00:00:00	2024-11-08T16:00:00	2	Temperatura media	17.1
132086	7	Sololá	701	Sololá	4	Finca Santa Victoria	9	Septiembre	2023-09-22T00:00:00	2024-11-08T16:00:00	4	Temperatura máxima	18.3
132087	7	Sololá	701	Sololá	4	Finca Santa Victoria	9	Septiembre	2023-09-22T00:00:00	2024-11-08T16:00:00	3	Temperatura mínima	17.1
132088	7	Sololá	701	Sololá	4	Finca Santa Victoria	9	Septiembre	2023-09-22T00:00:00	2024-11-08T16:00:00	5	Humedad	88
132089	7	Sololá	701	Sololá	4	Finca Santa Victoria	9	Septiembre	2023-09-22T00:00:00	2024-11-08T16:00:00	6	Velocidad del viento	3.2
132090	7	Sololá	701	Sololá	4	Finca Santa Victoria	9	Septiembre	2023-09-22T00:00:00	2024-11-08T16:00:00	7	Dirección del viento	3.22
132091	7	Sololá	701	Sololá	4	Finca Santa Victoria	9	Septiembre	2023-09-22T00:00:00	2024-11-08T16:00:00	1	Precipitación	0
132092	7	Sololá	701	Sololá	4	Finca Santa Victoria	9	Septiembre	2023-09-22T00:00:00	2024-11-08T16:00:00	8	Radiación solar	119
132093	7	Sololá	701	Sololá	4	Finca Santa Victoria	9	Septiembre	2023-09-22T00:00:00	2024-11-08T17:00:00	2	Temperatura media	16.6
132094	7	Sololá	701	Sololá	4	Finca Santa Victoria	9	Septiembre	2023-09-22T00:00:00	2024-11-08T17:00:00	4	Temperatura máxima	17.1
132095	7	Sololá	701	Sololá	4	Finca Santa Victoria	9	Septiembre	2023-09-22T00:00:00	2024-11-08T17:00:00	3	Temperatura mínima	16.3
132096	7	Sololá	701	Sololá	4	Finca Santa Victoria	9	Septiembre	2023-09-22T00:00:00	2024-11-08T17:00:00	5	Humedad	90
132097	7	Sololá	701	Sololá	4	Finca Santa Victoria	9	Septiembre	2023-09-22T00:00:00	2024-11-08T17:00:00	6	Velocidad del viento	3.2
132098	7	Sololá	701	Sololá	4	Finca Santa Victoria	9	Septiembre	2023-09-22T00:00:00	2024-11-08T17:00:00	7	Dirección del viento	3.22
132099	7	Sololá	701	Sololá	4	Finca Santa Victoria	9	Septiembre	2023-09-22T00:00:00	2024-11-08T17:00:00	1	Precipitación	0
132100	7	Sololá	701	Sololá	4	Finca Santa Victoria	9	Septiembre	2023-09-22T00:00:00	2024-11-08T17:00:00	8	Radiación solar	88
132101	7	Sololá	701	Sololá	4	Finca Santa Victoria	9	Septiembre	2023-09-22T00:00:00	2024-11-08T18:00:00	2	Temperatura media	16.2
132102	7	Sololá	701	Sololá	4	Finca Santa Victoria	9	Septiembre	2023-09-22T00:00:00	2024-11-08T18:00:00	4	Temperatura máxima	16.6
132103	7	Sololá	701	Sololá	4	Finca Santa Victoria	9	Septiembre	2023-09-22T00:00:00	2024-11-08T18:00:00	3	Temperatura mínima	16.1
132104	7	Sololá	701	Sololá	4	Finca Santa Victoria	9	Septiembre	2023-09-22T00:00:00	2024-11-08T18:00:00	5	Humedad	91
132105	7	Sololá	701	Sololá	4	Finca Santa Victoria	9	Septiembre	2023-09-22T00:00:00	2024-11-08T18:00:00	6	Velocidad del viento	0
132106	7	Sololá	701	Sololá	4	Finca Santa Victoria	9	Septiembre	2023-09-22T00:00:00	2024-11-08T18:00:00	7	Dirección del viento	0
132107	7	Sololá	701	Sololá	4	Finca Santa Victoria	9	Septiembre	2023-09-22T00:00:00	2024-11-08T18:00:00	1	Precipitación	0
132108	7	Sololá	701	Sololá	4	Finca Santa Victoria	9	Septiembre	2023-09-22T00:00:00	2024-11-08T18:00:00	8	Radiación solar	31
132109	7	Sololá	701	Sololá	4	Finca Santa Victoria	9	Septiembre	2023-09-22T00:00:00	2024-11-08T19:00:00	2	Temperatura media	15.1
132110	7	Sololá	701	Sololá	4	Finca Santa Victoria	9	Septiembre	2023-09-22T00:00:00	2024-11-08T19:00:00	4	Temperatura máxima	16.2
132111	7	Sololá	701	Sololá	4	Finca Santa Victoria	9	Septiembre	2023-09-22T00:00:00	2024-11-08T19:00:00	3	Temperatura mínima	15.1
132112	7	Sololá	701	Sololá	4	Finca Santa Victoria	9	Septiembre	2023-09-22T00:00:00	2024-11-08T19:00:00	5	Humedad	91
132113	7	Sololá	701	Sololá	4	Finca Santa Victoria	9	Septiembre	2023-09-22T00:00:00	2024-11-08T19:00:00	6	Velocidad del viento	0
132114	7	Sololá	701	Sololá	4	Finca Santa Victoria	9	Septiembre	2023-09-22T00:00:00	2024-11-08T19:00:00	7	Dirección del viento	0
132115	7	Sololá	701	Sololá	4	Finca Santa Victoria	9	Septiembre	2023-09-22T00:00:00	2024-11-08T19:00:00	1	Precipitación	0
132116	7	Sololá	701	Sololá	4	Finca Santa Victoria	9	Septiembre	2023-09-22T00:00:00	2024-11-08T19:00:00	8	Radiación solar	0
132117	7	Sololá	701	Sololá	4	Finca Santa Victoria	9	Septiembre	2023-09-22T00:00:00	2024-11-08T20:00:00	2	Temperatura media	17.2
132118	7	Sololá	701	Sololá	4	Finca Santa Victoria	9	Septiembre	2023-09-22T00:00:00	2024-11-08T20:00:00	4	Temperatura máxima	18.3
132119	7	Sololá	701	Sololá	4	Finca Santa Victoria	9	Septiembre	2023-09-22T00:00:00	2024-11-08T20:00:00	3	Temperatura mínima	17.2
132120	7	Sololá	701	Sololá	4	Finca Santa Victoria	9	Septiembre	2023-09-22T00:00:00	2024-11-08T20:00:00	5	Humedad	93
132121	7	Sololá	701	Sololá	4	Finca Santa Victoria	9	Septiembre	2023-09-22T00:00:00	2024-11-08T20:00:00	6	Velocidad del viento	1.6
132122	7	Sololá	701	Sololá	4	Finca Santa Victoria	9	Septiembre	2023-09-22T00:00:00	2024-11-08T20:00:00	7	Dirección del viento	1.61
132123	7	Sololá	701	Sololá	4	Finca Santa Victoria	9	Septiembre	2023-09-22T00:00:00	2024-11-08T20:00:00	1	Precipitación	0
132124	7	Sololá	701	Sololá	4	Finca Santa Victoria	9	Septiembre	2023-09-22T00:00:00	2024-11-08T20:00:00	8	Radiación solar	0
132125	7	Sololá	701	Sololá	4	Finca Santa Victoria	9	Septiembre	2023-09-22T00:00:00	2024-11-08T21:00:00	2	Temperatura media	15.8
132126	7	Sololá	701	Sololá	4	Finca Santa Victoria	9	Septiembre	2023-09-22T00:00:00	2024-11-08T21:00:00	4	Temperatura máxima	16.2
132127	7	Sololá	701	Sololá	4	Finca Santa Victoria	9	Septiembre	2023-09-22T00:00:00	2024-11-08T21:00:00	3	Temperatura mínima	15.8
132128	7	Sololá	701	Sololá	4	Finca Santa Victoria	9	Septiembre	2023-09-22T00:00:00	2024-11-08T21:00:00	5	Humedad	90
132129	7	Sololá	701	Sololá	4	Finca Santa Victoria	9	Septiembre	2023-09-22T00:00:00	2024-11-08T21:00:00	6	Velocidad del viento	0
132130	7	Sololá	701	Sololá	4	Finca Santa Victoria	9	Septiembre	2023-09-22T00:00:00	2024-11-08T21:00:00	7	Dirección del viento	0
132131	7	Sololá	701	Sololá	4	Finca Santa Victoria	9	Septiembre	2023-09-22T00:00:00	2024-11-08T21:00:00	1	Precipitación	0
132132	7	Sololá	701	Sololá	4	Finca Santa Victoria	9	Septiembre	2023-09-22T00:00:00	2024-11-08T21:00:00	8	Radiación solar	0
132133	7	Sololá	701	Sololá	4	Finca Santa Victoria	9	Septiembre	2023-09-22T00:00:00	2024-11-08T22:00:00	2	Temperatura media	15.4
132134	7	Sololá	701	Sololá	4	Finca Santa Victoria	9	Septiembre	2023-09-22T00:00:00	2024-11-08T22:00:00	4	Temperatura máxima	15.8
132135	7	Sololá	701	Sololá	4	Finca Santa Victoria	9	Septiembre	2023-09-22T00:00:00	2024-11-08T22:00:00	3	Temperatura mínima	15.4
132136	7	Sololá	701	Sololá	4	Finca Santa Victoria	9	Septiembre	2023-09-22T00:00:00	2024-11-08T22:00:00	5	Humedad	88
132137	7	Sololá	701	Sololá	4	Finca Santa Victoria	9	Septiembre	2023-09-22T00:00:00	2024-11-08T22:00:00	6	Velocidad del viento	1.6
132138	7	Sololá	701	Sololá	4	Finca Santa Victoria	9	Septiembre	2023-09-22T00:00:00	2024-11-08T22:00:00	7	Dirección del viento	1.61
132139	7	Sololá	701	Sololá	4	Finca Santa Victoria	9	Septiembre	2023-09-22T00:00:00	2024-11-08T22:00:00	1	Precipitación	0
132140	7	Sololá	701	Sololá	4	Finca Santa Victoria	9	Septiembre	2023-09-22T00:00:00	2024-11-08T22:00:00	8	Radiación solar	0
132141	7	Sololá	701	Sololá	4	Finca Santa Victoria	9	Septiembre	2023-09-22T00:00:00	2024-11-08T23:00:00	2	Temperatura media	14.7
132142	7	Sololá	701	Sololá	4	Finca Santa Victoria	9	Septiembre	2023-09-22T00:00:00	2024-11-08T23:00:00	4	Temperatura máxima	15.4
132143	7	Sololá	701	Sololá	4	Finca Santa Victoria	9	Septiembre	2023-09-22T00:00:00	2024-11-08T23:00:00	3	Temperatura mínima	14.7
132144	7	Sololá	701	Sololá	4	Finca Santa Victoria	9	Septiembre	2023-09-22T00:00:00	2024-11-08T23:00:00	5	Humedad	91
132145	7	Sololá	701	Sololá	4	Finca Santa Victoria	9	Septiembre	2023-09-22T00:00:00	2024-11-08T23:00:00	6	Velocidad del viento	0
132146	7	Sololá	701	Sololá	4	Finca Santa Victoria	9	Septiembre	2023-09-22T00:00:00	2024-11-08T23:00:00	7	Dirección del viento	0
132147	7	Sololá	701	Sololá	4	Finca Santa Victoria	9	Septiembre	2023-09-22T00:00:00	2024-11-08T23:00:00	1	Precipitación	0
132148	7	Sololá	701	Sololá	4	Finca Santa Victoria	9	Septiembre	2023-09-22T00:00:00	2024-11-08T23:00:00	8	Radiación solar	0
132149	7	Sololá	701	Sololá	4	Finca Santa Victoria	9	Septiembre	2023-09-23T00:00:00	2024-11-08T00:00:00	2	Temperatura media	14.4
132150	7	Sololá	701	Sololá	4	Finca Santa Victoria	9	Septiembre	2023-09-23T00:00:00	2024-11-08T00:00:00	4	Temperatura máxima	14.7
132151	7	Sololá	701	Sololá	4	Finca Santa Victoria	9	Septiembre	2023-09-23T00:00:00	2024-11-08T00:00:00	3	Temperatura mínima	14.2
132152	7	Sololá	701	Sololá	4	Finca Santa Victoria	9	Septiembre	2023-09-23T00:00:00	2024-11-08T00:00:00	5	Humedad	87
132153	7	Sololá	701	Sololá	4	Finca Santa Victoria	9	Septiembre	2023-09-23T00:00:00	2024-11-08T00:00:00	6	Velocidad del viento	0
132154	7	Sololá	701	Sololá	4	Finca Santa Victoria	9	Septiembre	2023-09-23T00:00:00	2024-11-08T00:00:00	7	Dirección del viento	0
132155	7	Sololá	701	Sololá	4	Finca Santa Victoria	9	Septiembre	2023-09-23T00:00:00	2024-11-08T00:00:00	1	Precipitación	0
132156	7	Sololá	701	Sololá	4	Finca Santa Victoria	9	Septiembre	2023-09-23T00:00:00	2024-11-08T00:00:00	8	Radiación solar	0
132157	7	Sololá	701	Sololá	4	Finca Santa Victoria	9	Septiembre	2023-09-23T00:00:00	2024-11-08T01:00:00	2	Temperatura media	13.6
132158	7	Sololá	701	Sololá	4	Finca Santa Victoria	9	Septiembre	2023-09-23T00:00:00	2024-11-08T01:00:00	4	Temperatura máxima	14.5
132159	7	Sololá	701	Sololá	4	Finca Santa Victoria	9	Septiembre	2023-09-23T00:00:00	2024-11-08T01:00:00	3	Temperatura mínima	13.6
132160	7	Sololá	701	Sololá	4	Finca Santa Victoria	9	Septiembre	2023-09-23T00:00:00	2024-11-08T01:00:00	5	Humedad	89
132161	7	Sololá	701	Sololá	4	Finca Santa Victoria	9	Septiembre	2023-09-23T00:00:00	2024-11-08T01:00:00	6	Velocidad del viento	1.6
132162	7	Sololá	701	Sololá	4	Finca Santa Victoria	9	Septiembre	2023-09-23T00:00:00	2024-11-08T01:00:00	7	Dirección del viento	1.61
132163	7	Sololá	701	Sololá	4	Finca Santa Victoria	9	Septiembre	2023-09-23T00:00:00	2024-11-08T01:00:00	1	Precipitación	0
132164	7	Sololá	701	Sololá	4	Finca Santa Victoria	9	Septiembre	2023-09-23T00:00:00	2024-11-08T01:00:00	8	Radiación solar	0
132165	7	Sololá	701	Sololá	4	Finca Santa Victoria	9	Septiembre	2023-09-23T00:00:00	2024-11-08T02:00:00	2	Temperatura media	13.6
132166	7	Sololá	701	Sololá	4	Finca Santa Victoria	9	Septiembre	2023-09-23T00:00:00	2024-11-08T02:00:00	4	Temperatura máxima	13.6
132167	7	Sololá	701	Sololá	4	Finca Santa Victoria	9	Septiembre	2023-09-23T00:00:00	2024-11-08T02:00:00	3	Temperatura mínima	13
132168	7	Sololá	701	Sololá	4	Finca Santa Victoria	9	Septiembre	2023-09-23T00:00:00	2024-11-08T02:00:00	5	Humedad	91
132169	7	Sololá	701	Sololá	4	Finca Santa Victoria	9	Septiembre	2023-09-23T00:00:00	2024-11-08T02:00:00	6	Velocidad del viento	1.6
132170	7	Sololá	701	Sololá	4	Finca Santa Victoria	9	Septiembre	2023-09-23T00:00:00	2024-11-08T02:00:00	7	Dirección del viento	1.61
132171	7	Sololá	701	Sololá	4	Finca Santa Victoria	9	Septiembre	2023-09-23T00:00:00	2024-11-08T02:00:00	1	Precipitación	0
132172	7	Sololá	701	Sololá	4	Finca Santa Victoria	9	Septiembre	2023-09-23T00:00:00	2024-11-08T02:00:00	8	Radiación solar	0
132173	7	Sololá	701	Sololá	4	Finca Santa Victoria	9	Septiembre	2023-09-23T00:00:00	2024-11-08T03:00:00	2	Temperatura media	14
132174	7	Sololá	701	Sololá	4	Finca Santa Victoria	9	Septiembre	2023-09-23T00:00:00	2024-11-08T03:00:00	4	Temperatura máxima	14.1
132175	7	Sololá	701	Sololá	4	Finca Santa Victoria	9	Septiembre	2023-09-23T00:00:00	2024-11-08T03:00:00	3	Temperatura mínima	13.6
132176	7	Sololá	701	Sololá	4	Finca Santa Victoria	9	Septiembre	2023-09-23T00:00:00	2024-11-08T03:00:00	5	Humedad	87
132177	7	Sololá	701	Sololá	4	Finca Santa Victoria	9	Septiembre	2023-09-23T00:00:00	2024-11-08T03:00:00	6	Velocidad del viento	1.6
132178	7	Sololá	701	Sololá	4	Finca Santa Victoria	9	Septiembre	2023-09-23T00:00:00	2024-11-08T03:00:00	7	Dirección del viento	1.61
132179	7	Sololá	701	Sololá	4	Finca Santa Victoria	9	Septiembre	2023-09-23T00:00:00	2024-11-08T03:00:00	1	Precipitación	0
132180	7	Sololá	701	Sololá	4	Finca Santa Victoria	9	Septiembre	2023-09-23T00:00:00	2024-11-08T03:00:00	8	Radiación solar	0
132181	7	Sololá	701	Sololá	4	Finca Santa Victoria	9	Septiembre	2023-09-23T00:00:00	2024-11-08T04:00:00	2	Temperatura media	13.9
132182	7	Sololá	701	Sololá	4	Finca Santa Victoria	9	Septiembre	2023-09-23T00:00:00	2024-11-08T04:00:00	4	Temperatura máxima	14
132183	7	Sololá	701	Sololá	4	Finca Santa Victoria	9	Septiembre	2023-09-23T00:00:00	2024-11-08T04:00:00	3	Temperatura mínima	13.6
132184	7	Sololá	701	Sololá	4	Finca Santa Victoria	9	Septiembre	2023-09-23T00:00:00	2024-11-08T04:00:00	5	Humedad	86
132185	7	Sololá	701	Sololá	4	Finca Santa Victoria	9	Septiembre	2023-09-23T00:00:00	2024-11-08T04:00:00	6	Velocidad del viento	1.6
132186	7	Sololá	701	Sololá	4	Finca Santa Victoria	9	Septiembre	2023-09-23T00:00:00	2024-11-08T04:00:00	7	Dirección del viento	1.61
132187	7	Sololá	701	Sololá	4	Finca Santa Victoria	9	Septiembre	2023-09-23T00:00:00	2024-11-08T04:00:00	1	Precipitación	0
132188	7	Sololá	701	Sololá	4	Finca Santa Victoria	9	Septiembre	2023-09-23T00:00:00	2024-11-08T04:00:00	8	Radiación solar	0
132189	7	Sololá	701	Sololá	4	Finca Santa Victoria	9	Septiembre	2023-09-23T00:00:00	2024-11-08T05:00:00	2	Temperatura media	13.7
132190	7	Sololá	701	Sololá	4	Finca Santa Victoria	9	Septiembre	2023-09-23T00:00:00	2024-11-08T05:00:00	4	Temperatura máxima	13.9
132191	7	Sololá	701	Sololá	4	Finca Santa Victoria	9	Septiembre	2023-09-23T00:00:00	2024-11-08T05:00:00	3	Temperatura mínima	13.4
132192	7	Sololá	701	Sololá	4	Finca Santa Victoria	9	Septiembre	2023-09-23T00:00:00	2024-11-08T05:00:00	5	Humedad	84
132193	7	Sololá	701	Sololá	4	Finca Santa Victoria	9	Septiembre	2023-09-23T00:00:00	2024-11-08T05:00:00	6	Velocidad del viento	1.6
132194	7	Sololá	701	Sololá	4	Finca Santa Victoria	9	Septiembre	2023-09-23T00:00:00	2024-11-08T05:00:00	7	Dirección del viento	1.61
132195	7	Sololá	701	Sololá	4	Finca Santa Victoria	9	Septiembre	2023-09-23T00:00:00	2024-11-08T05:00:00	1	Precipitación	0
132196	7	Sololá	701	Sololá	4	Finca Santa Victoria	9	Septiembre	2023-09-23T00:00:00	2024-11-08T05:00:00	8	Radiación solar	0
132197	7	Sololá	701	Sololá	4	Finca Santa Victoria	9	Septiembre	2023-09-23T00:00:00	2024-11-08T06:00:00	2	Temperatura media	12.2
132198	7	Sololá	701	Sololá	4	Finca Santa Victoria	9	Septiembre	2023-09-23T00:00:00	2024-11-08T06:00:00	4	Temperatura máxima	13.7
132199	7	Sololá	701	Sololá	4	Finca Santa Victoria	9	Septiembre	2023-09-23T00:00:00	2024-11-08T06:00:00	3	Temperatura mínima	12.2
132200	7	Sololá	701	Sololá	4	Finca Santa Victoria	9	Septiembre	2023-09-23T00:00:00	2024-11-08T06:00:00	5	Humedad	89
132201	7	Sololá	701	Sololá	4	Finca Santa Victoria	9	Septiembre	2023-09-23T00:00:00	2024-11-08T06:00:00	6	Velocidad del viento	0
132202	7	Sololá	701	Sololá	4	Finca Santa Victoria	9	Septiembre	2023-09-23T00:00:00	2024-11-08T06:00:00	7	Dirección del viento	0
132203	7	Sololá	701	Sololá	4	Finca Santa Victoria	9	Septiembre	2023-09-23T00:00:00	2024-11-08T06:00:00	1	Precipitación	0
132204	7	Sololá	701	Sololá	4	Finca Santa Victoria	9	Septiembre	2023-09-23T00:00:00	2024-11-08T06:00:00	8	Radiación solar	0
132205	7	Sololá	701	Sololá	4	Finca Santa Victoria	9	Septiembre	2023-09-23T00:00:00	2024-11-08T07:00:00	2	Temperatura media	12.6
132206	7	Sololá	701	Sololá	4	Finca Santa Victoria	9	Septiembre	2023-09-23T00:00:00	2024-11-08T07:00:00	4	Temperatura máxima	12.6
132207	7	Sololá	701	Sololá	4	Finca Santa Victoria	9	Septiembre	2023-09-23T00:00:00	2024-11-08T07:00:00	3	Temperatura mínima	11.9
132208	7	Sololá	701	Sololá	4	Finca Santa Victoria	9	Septiembre	2023-09-23T00:00:00	2024-11-08T07:00:00	5	Humedad	82
132209	7	Sololá	701	Sololá	4	Finca Santa Victoria	9	Septiembre	2023-09-23T00:00:00	2024-11-08T07:00:00	6	Velocidad del viento	0
132210	7	Sololá	701	Sololá	4	Finca Santa Victoria	9	Septiembre	2023-09-23T00:00:00	2024-11-08T07:00:00	7	Dirección del viento	0
132211	7	Sololá	701	Sololá	4	Finca Santa Victoria	9	Septiembre	2023-09-23T00:00:00	2024-11-08T07:00:00	1	Precipitación	0
132212	7	Sololá	701	Sololá	4	Finca Santa Victoria	9	Septiembre	2023-09-23T00:00:00	2024-11-08T07:00:00	8	Radiación solar	0
132213	7	Sololá	701	Sololá	4	Finca Santa Victoria	9	Septiembre	2023-09-23T00:00:00	2024-11-08T08:00:00	2	Temperatura media	13.6
132214	7	Sololá	701	Sololá	4	Finca Santa Victoria	9	Septiembre	2023-09-23T00:00:00	2024-11-08T08:00:00	4	Temperatura máxima	13.7
132215	7	Sololá	701	Sololá	4	Finca Santa Victoria	9	Septiembre	2023-09-23T00:00:00	2024-11-08T08:00:00	3	Temperatura mínima	12.5
132216	7	Sololá	701	Sololá	4	Finca Santa Victoria	9	Septiembre	2023-09-23T00:00:00	2024-11-08T08:00:00	5	Humedad	81
132217	7	Sololá	701	Sololá	4	Finca Santa Victoria	9	Septiembre	2023-09-23T00:00:00	2024-11-08T08:00:00	6	Velocidad del viento	1.6
132218	7	Sololá	701	Sololá	4	Finca Santa Victoria	9	Septiembre	2023-09-23T00:00:00	2024-11-08T08:00:00	7	Dirección del viento	1.61
132219	7	Sololá	701	Sololá	4	Finca Santa Victoria	9	Septiembre	2023-09-23T00:00:00	2024-11-08T08:00:00	1	Precipitación	0
132220	7	Sololá	701	Sololá	4	Finca Santa Victoria	9	Septiembre	2023-09-23T00:00:00	2024-11-08T08:00:00	8	Radiación solar	13
132221	7	Sololá	701	Sololá	4	Finca Santa Victoria	9	Septiembre	2023-09-23T00:00:00	2024-11-08T09:00:00	2	Temperatura media	16.3
132222	7	Sololá	701	Sololá	4	Finca Santa Victoria	9	Septiembre	2023-09-23T00:00:00	2024-11-08T09:00:00	4	Temperatura máxima	16.3
132223	7	Sololá	701	Sololá	4	Finca Santa Victoria	9	Septiembre	2023-09-23T00:00:00	2024-11-08T09:00:00	3	Temperatura mínima	13.7
132224	7	Sololá	701	Sololá	4	Finca Santa Victoria	9	Septiembre	2023-09-23T00:00:00	2024-11-08T09:00:00	5	Humedad	76
132225	7	Sololá	701	Sololá	4	Finca Santa Victoria	9	Septiembre	2023-09-23T00:00:00	2024-11-08T09:00:00	6	Velocidad del viento	1.6
132226	7	Sololá	701	Sololá	4	Finca Santa Victoria	9	Septiembre	2023-09-23T00:00:00	2024-11-08T09:00:00	7	Dirección del viento	1.61
132227	7	Sololá	701	Sololá	4	Finca Santa Victoria	9	Septiembre	2023-09-23T00:00:00	2024-11-08T09:00:00	1	Precipitación	0
132228	7	Sololá	701	Sololá	4	Finca Santa Victoria	9	Septiembre	2023-09-23T00:00:00	2024-11-08T09:00:00	8	Radiación solar	93
132229	7	Sololá	701	Sololá	4	Finca Santa Victoria	9	Septiembre	2023-09-23T00:00:00	2024-11-08T10:00:00	2	Temperatura media	18.7
132230	7	Sololá	701	Sololá	4	Finca Santa Victoria	9	Septiembre	2023-09-23T00:00:00	2024-11-08T10:00:00	4	Temperatura máxima	18.7
132231	7	Sololá	701	Sololá	4	Finca Santa Victoria	9	Septiembre	2023-09-23T00:00:00	2024-11-08T10:00:00	3	Temperatura mínima	16.3
132232	7	Sololá	701	Sololá	4	Finca Santa Victoria	9	Septiembre	2023-09-23T00:00:00	2024-11-08T10:00:00	5	Humedad	66
132233	7	Sololá	701	Sololá	4	Finca Santa Victoria	9	Septiembre	2023-09-23T00:00:00	2024-11-08T10:00:00	6	Velocidad del viento	1.6
132234	7	Sololá	701	Sololá	4	Finca Santa Victoria	9	Septiembre	2023-09-23T00:00:00	2024-11-08T10:00:00	7	Dirección del viento	1.61
132235	7	Sololá	701	Sololá	4	Finca Santa Victoria	9	Septiembre	2023-09-23T00:00:00	2024-11-08T10:00:00	1	Precipitación	0
132236	7	Sololá	701	Sololá	4	Finca Santa Victoria	9	Septiembre	2023-09-23T00:00:00	2024-11-08T10:00:00	8	Radiación solar	279
132237	7	Sololá	701	Sololá	4	Finca Santa Victoria	9	Septiembre	2023-09-23T00:00:00	2024-11-08T11:00:00	2	Temperatura media	21
132238	7	Sololá	701	Sololá	4	Finca Santa Victoria	9	Septiembre	2023-09-23T00:00:00	2024-11-08T11:00:00	4	Temperatura máxima	21
132239	7	Sololá	701	Sololá	4	Finca Santa Victoria	9	Septiembre	2023-09-23T00:00:00	2024-11-08T11:00:00	3	Temperatura mínima	18.7
132240	7	Sololá	701	Sololá	4	Finca Santa Victoria	9	Septiembre	2023-09-23T00:00:00	2024-11-08T11:00:00	5	Humedad	60
132241	7	Sololá	701	Sololá	4	Finca Santa Victoria	9	Septiembre	2023-09-23T00:00:00	2024-11-08T11:00:00	6	Velocidad del viento	3.2
132242	7	Sololá	701	Sololá	4	Finca Santa Victoria	9	Septiembre	2023-09-23T00:00:00	2024-11-08T11:00:00	7	Dirección del viento	3.22
132243	7	Sololá	701	Sololá	4	Finca Santa Victoria	9	Septiembre	2023-09-23T00:00:00	2024-11-08T11:00:00	1	Precipitación	0
132244	7	Sololá	701	Sololá	4	Finca Santa Victoria	9	Septiembre	2023-09-23T00:00:00	2024-11-08T11:00:00	8	Radiación solar	841
132245	7	Sololá	701	Sololá	4	Finca Santa Victoria	9	Septiembre	2023-09-23T00:00:00	2024-11-08T12:00:00	2	Temperatura media	22.1
132246	7	Sololá	701	Sololá	4	Finca Santa Victoria	9	Septiembre	2023-09-23T00:00:00	2024-11-08T12:00:00	4	Temperatura máxima	22.1
132247	7	Sololá	701	Sololá	4	Finca Santa Victoria	9	Septiembre	2023-09-23T00:00:00	2024-11-08T12:00:00	3	Temperatura mínima	20.9
132248	7	Sololá	701	Sololá	4	Finca Santa Victoria	9	Septiembre	2023-09-23T00:00:00	2024-11-08T12:00:00	5	Humedad	56
132249	7	Sololá	701	Sololá	4	Finca Santa Victoria	9	Septiembre	2023-09-23T00:00:00	2024-11-08T12:00:00	6	Velocidad del viento	3.2
132250	7	Sololá	701	Sololá	4	Finca Santa Victoria	9	Septiembre	2023-09-23T00:00:00	2024-11-08T12:00:00	7	Dirección del viento	3.22
132251	7	Sololá	701	Sololá	4	Finca Santa Victoria	9	Septiembre	2023-09-23T00:00:00	2024-11-08T12:00:00	1	Precipitación	0
132252	7	Sololá	701	Sololá	4	Finca Santa Victoria	9	Septiembre	2023-09-23T00:00:00	2024-11-08T12:00:00	8	Radiación solar	982
132253	7	Sololá	701	Sololá	4	Finca Santa Victoria	9	Septiembre	2023-09-23T00:00:00	2024-11-08T13:00:00	2	Temperatura media	22.5
132254	7	Sololá	701	Sololá	4	Finca Santa Victoria	9	Septiembre	2023-09-23T00:00:00	2024-11-08T13:00:00	4	Temperatura máxima	22.5
132255	7	Sololá	701	Sololá	4	Finca Santa Victoria	9	Septiembre	2023-09-23T00:00:00	2024-11-08T13:00:00	3	Temperatura mínima	21.8
132256	7	Sololá	701	Sololá	4	Finca Santa Victoria	9	Septiembre	2023-09-23T00:00:00	2024-11-08T13:00:00	5	Humedad	59
132257	7	Sololá	701	Sololá	4	Finca Santa Victoria	9	Septiembre	2023-09-23T00:00:00	2024-11-08T13:00:00	6	Velocidad del viento	3.2
132258	7	Sololá	701	Sololá	4	Finca Santa Victoria	9	Septiembre	2023-09-23T00:00:00	2024-11-08T13:00:00	7	Dirección del viento	3.22
132259	7	Sololá	701	Sololá	4	Finca Santa Victoria	9	Septiembre	2023-09-23T00:00:00	2024-11-08T13:00:00	1	Precipitación	0
132260	7	Sololá	701	Sololá	4	Finca Santa Victoria	9	Septiembre	2023-09-23T00:00:00	2024-11-08T13:00:00	8	Radiación solar	880
132261	7	Sololá	701	Sololá	4	Finca Santa Victoria	9	Septiembre	2023-09-23T00:00:00	2024-11-08T14:00:00	2	Temperatura media	23.4
132262	7	Sololá	701	Sololá	4	Finca Santa Victoria	9	Septiembre	2023-09-23T00:00:00	2024-11-08T14:00:00	4	Temperatura máxima	23.4
132263	7	Sololá	701	Sololá	4	Finca Santa Victoria	9	Septiembre	2023-09-23T00:00:00	2024-11-08T14:00:00	3	Temperatura mínima	22.3
132264	7	Sololá	701	Sololá	4	Finca Santa Victoria	9	Septiembre	2023-09-23T00:00:00	2024-11-08T14:00:00	5	Humedad	55
132265	7	Sololá	701	Sololá	4	Finca Santa Victoria	9	Septiembre	2023-09-23T00:00:00	2024-11-08T14:00:00	6	Velocidad del viento	3.2
132266	7	Sololá	701	Sololá	4	Finca Santa Victoria	9	Septiembre	2023-09-23T00:00:00	2024-11-08T14:00:00	7	Dirección del viento	3.22
132267	7	Sololá	701	Sololá	4	Finca Santa Victoria	9	Septiembre	2023-09-23T00:00:00	2024-11-08T14:00:00	1	Precipitación	0
132268	7	Sololá	701	Sololá	4	Finca Santa Victoria	9	Septiembre	2023-09-23T00:00:00	2024-11-08T14:00:00	8	Radiación solar	143
132269	7	Sololá	701	Sololá	4	Finca Santa Victoria	9	Septiembre	2023-09-23T00:00:00	2024-11-08T15:00:00	2	Temperatura media	21.8
132270	7	Sololá	701	Sololá	4	Finca Santa Victoria	9	Septiembre	2023-09-23T00:00:00	2024-11-08T15:00:00	4	Temperatura máxima	23.4
132271	7	Sololá	701	Sololá	4	Finca Santa Victoria	9	Septiembre	2023-09-23T00:00:00	2024-11-08T15:00:00	3	Temperatura mínima	20.7
132272	7	Sololá	701	Sololá	4	Finca Santa Victoria	9	Septiembre	2023-09-23T00:00:00	2024-11-08T15:00:00	5	Humedad	73
132273	7	Sololá	701	Sololá	4	Finca Santa Victoria	9	Septiembre	2023-09-23T00:00:00	2024-11-08T15:00:00	6	Velocidad del viento	3.2
132274	7	Sololá	701	Sololá	4	Finca Santa Victoria	9	Septiembre	2023-09-23T00:00:00	2024-11-08T15:00:00	7	Dirección del viento	3.22
132275	7	Sololá	701	Sololá	4	Finca Santa Victoria	9	Septiembre	2023-09-23T00:00:00	2024-11-08T15:00:00	1	Precipitación	0
132276	7	Sololá	701	Sololá	4	Finca Santa Victoria	9	Septiembre	2023-09-23T00:00:00	2024-11-08T15:00:00	8	Radiación solar	159
132277	7	Sololá	701	Sololá	4	Finca Santa Victoria	9	Septiembre	2023-09-23T00:00:00	2024-11-08T16:00:00	2	Temperatura media	19.6
132278	7	Sololá	701	Sololá	4	Finca Santa Victoria	9	Septiembre	2023-09-23T00:00:00	2024-11-08T16:00:00	4	Temperatura máxima	21.9
132279	7	Sololá	701	Sololá	4	Finca Santa Victoria	9	Septiembre	2023-09-23T00:00:00	2024-11-08T16:00:00	3	Temperatura mínima	19.6
132280	7	Sololá	701	Sololá	4	Finca Santa Victoria	9	Septiembre	2023-09-23T00:00:00	2024-11-08T16:00:00	5	Humedad	86
132281	7	Sololá	701	Sololá	4	Finca Santa Victoria	9	Septiembre	2023-09-23T00:00:00	2024-11-08T16:00:00	6	Velocidad del viento	4.8
132282	7	Sololá	701	Sololá	4	Finca Santa Victoria	9	Septiembre	2023-09-23T00:00:00	2024-11-08T16:00:00	7	Dirección del viento	4.83
132283	7	Sololá	701	Sololá	4	Finca Santa Victoria	9	Septiembre	2023-09-23T00:00:00	2024-11-08T16:00:00	1	Precipitación	0
132284	7	Sololá	701	Sololá	4	Finca Santa Victoria	9	Septiembre	2023-09-23T00:00:00	2024-11-08T16:00:00	8	Radiación solar	156
132285	7	Sololá	701	Sololá	4	Finca Santa Victoria	9	Septiembre	2023-09-23T00:00:00	2024-11-08T17:00:00	2	Temperatura media	18.6
132286	7	Sololá	701	Sololá	4	Finca Santa Victoria	9	Septiembre	2023-09-23T00:00:00	2024-11-08T17:00:00	4	Temperatura máxima	20.6
132287	7	Sololá	701	Sololá	4	Finca Santa Victoria	9	Septiembre	2023-09-23T00:00:00	2024-11-08T17:00:00	3	Temperatura mínima	18.6
132288	7	Sololá	701	Sololá	4	Finca Santa Victoria	9	Septiembre	2023-09-23T00:00:00	2024-11-08T17:00:00	5	Humedad	90
132289	7	Sololá	701	Sololá	4	Finca Santa Victoria	9	Septiembre	2023-09-23T00:00:00	2024-11-08T17:00:00	6	Velocidad del viento	3.2
132290	7	Sololá	701	Sololá	4	Finca Santa Victoria	9	Septiembre	2023-09-23T00:00:00	2024-11-08T17:00:00	7	Dirección del viento	3.22
132291	7	Sololá	701	Sololá	4	Finca Santa Victoria	9	Septiembre	2023-09-23T00:00:00	2024-11-08T17:00:00	1	Precipitación	0
132292	7	Sololá	701	Sololá	4	Finca Santa Victoria	9	Septiembre	2023-09-23T00:00:00	2024-11-08T17:00:00	8	Radiación solar	162
132293	7	Sololá	701	Sololá	4	Finca Santa Victoria	9	Septiembre	2023-09-23T00:00:00	2024-11-08T18:00:00	2	Temperatura media	17.7
132294	7	Sololá	701	Sololá	4	Finca Santa Victoria	9	Septiembre	2023-09-23T00:00:00	2024-11-08T18:00:00	4	Temperatura máxima	18.6
132295	7	Sololá	701	Sololá	4	Finca Santa Victoria	9	Septiembre	2023-09-23T00:00:00	2024-11-08T18:00:00	3	Temperatura mínima	17.7
132296	7	Sololá	701	Sololá	4	Finca Santa Victoria	9	Septiembre	2023-09-23T00:00:00	2024-11-08T18:00:00	5	Humedad	94
132297	7	Sololá	701	Sololá	4	Finca Santa Victoria	9	Septiembre	2023-09-23T00:00:00	2024-11-08T18:00:00	6	Velocidad del viento	3.2
132298	7	Sololá	701	Sololá	4	Finca Santa Victoria	9	Septiembre	2023-09-23T00:00:00	2024-11-08T18:00:00	7	Dirección del viento	3.22
132299	7	Sololá	701	Sololá	4	Finca Santa Victoria	9	Septiembre	2023-09-23T00:00:00	2024-11-08T18:00:00	1	Precipitación	0
132300	7	Sololá	701	Sololá	4	Finca Santa Victoria	9	Septiembre	2023-09-23T00:00:00	2024-11-08T18:00:00	8	Radiación solar	66
132301	7	Sololá	701	Sololá	4	Finca Santa Victoria	9	Septiembre	2023-09-23T00:00:00	2024-11-08T19:00:00	2	Temperatura media	14.9
132302	7	Sololá	701	Sololá	4	Finca Santa Victoria	9	Septiembre	2023-09-23T00:00:00	2024-11-08T19:00:00	4	Temperatura máxima	16.7
132303	7	Sololá	701	Sololá	4	Finca Santa Victoria	9	Septiembre	2023-09-23T00:00:00	2024-11-08T19:00:00	3	Temperatura mínima	14.9
132304	7	Sololá	701	Sololá	4	Finca Santa Victoria	9	Septiembre	2023-09-23T00:00:00	2024-11-08T19:00:00	5	Humedad	78
132305	7	Sololá	701	Sololá	4	Finca Santa Victoria	9	Septiembre	2023-09-23T00:00:00	2024-11-08T19:00:00	6	Velocidad del viento	0
132306	7	Sololá	701	Sololá	4	Finca Santa Victoria	9	Septiembre	2023-09-23T00:00:00	2024-11-08T19:00:00	7	Dirección del viento	0
132307	7	Sololá	701	Sololá	4	Finca Santa Victoria	9	Septiembre	2023-09-23T00:00:00	2024-11-08T19:00:00	1	Precipitación	0
132308	7	Sololá	701	Sololá	4	Finca Santa Victoria	9	Septiembre	2023-09-23T00:00:00	2024-11-08T19:00:00	8	Radiación solar	0
132309	7	Sololá	701	Sololá	4	Finca Santa Victoria	9	Septiembre	2023-09-23T00:00:00	2024-11-08T20:00:00	2	Temperatura media	14.3
132310	7	Sololá	701	Sololá	4	Finca Santa Victoria	9	Septiembre	2023-09-23T00:00:00	2024-11-08T20:00:00	4	Temperatura máxima	14.9
132311	7	Sololá	701	Sololá	4	Finca Santa Victoria	9	Septiembre	2023-09-23T00:00:00	2024-11-08T20:00:00	3	Temperatura mínima	13.9
132312	7	Sololá	701	Sololá	4	Finca Santa Victoria	9	Septiembre	2023-09-23T00:00:00	2024-11-08T20:00:00	5	Humedad	85
132313	7	Sololá	701	Sololá	4	Finca Santa Victoria	9	Septiembre	2023-09-23T00:00:00	2024-11-08T20:00:00	6	Velocidad del viento	0
132314	7	Sololá	701	Sololá	4	Finca Santa Victoria	9	Septiembre	2023-09-23T00:00:00	2024-11-08T20:00:00	7	Dirección del viento	0
132315	7	Sololá	701	Sololá	4	Finca Santa Victoria	9	Septiembre	2023-09-23T00:00:00	2024-11-08T20:00:00	1	Precipitación	0
132316	7	Sololá	701	Sololá	4	Finca Santa Victoria	9	Septiembre	2023-09-23T00:00:00	2024-11-08T20:00:00	8	Radiación solar	0
132317	7	Sololá	701	Sololá	4	Finca Santa Victoria	9	Septiembre	2023-09-23T00:00:00	2024-11-08T21:00:00	2	Temperatura media	14.1
132318	7	Sololá	701	Sololá	4	Finca Santa Victoria	9	Septiembre	2023-09-23T00:00:00	2024-11-08T21:00:00	4	Temperatura máxima	14.5
132319	7	Sololá	701	Sololá	4	Finca Santa Victoria	9	Septiembre	2023-09-23T00:00:00	2024-11-08T21:00:00	3	Temperatura mínima	14.1
132320	7	Sololá	701	Sololá	4	Finca Santa Victoria	9	Septiembre	2023-09-23T00:00:00	2024-11-08T21:00:00	5	Humedad	85
132321	7	Sololá	701	Sololá	4	Finca Santa Victoria	9	Septiembre	2023-09-23T00:00:00	2024-11-08T21:00:00	6	Velocidad del viento	0
132322	7	Sololá	701	Sololá	4	Finca Santa Victoria	9	Septiembre	2023-09-23T00:00:00	2024-11-08T21:00:00	7	Dirección del viento	0
132323	7	Sololá	701	Sololá	4	Finca Santa Victoria	9	Septiembre	2023-09-23T00:00:00	2024-11-08T21:00:00	1	Precipitación	0
132324	7	Sololá	701	Sololá	4	Finca Santa Victoria	9	Septiembre	2023-09-23T00:00:00	2024-11-08T21:00:00	8	Radiación solar	0
132325	7	Sololá	701	Sololá	4	Finca Santa Victoria	9	Septiembre	2023-09-23T00:00:00	2024-11-08T22:00:00	2	Temperatura media	13.3
132326	7	Sololá	701	Sololá	4	Finca Santa Victoria	9	Septiembre	2023-09-23T00:00:00	2024-11-08T22:00:00	4	Temperatura máxima	14.1
132327	7	Sololá	701	Sololá	4	Finca Santa Victoria	9	Septiembre	2023-09-23T00:00:00	2024-11-08T22:00:00	3	Temperatura mínima	13.1
132328	7	Sololá	701	Sololá	4	Finca Santa Victoria	9	Septiembre	2023-09-23T00:00:00	2024-11-08T22:00:00	5	Humedad	82
132329	7	Sololá	701	Sololá	4	Finca Santa Victoria	9	Septiembre	2023-09-23T00:00:00	2024-11-08T22:00:00	6	Velocidad del viento	0
132330	7	Sololá	701	Sololá	4	Finca Santa Victoria	9	Septiembre	2023-09-23T00:00:00	2024-11-08T22:00:00	7	Dirección del viento	0
132331	7	Sololá	701	Sololá	4	Finca Santa Victoria	9	Septiembre	2023-09-23T00:00:00	2024-11-08T22:00:00	1	Precipitación	0
132332	7	Sololá	701	Sololá	4	Finca Santa Victoria	9	Septiembre	2023-09-23T00:00:00	2024-11-08T22:00:00	8	Radiación solar	0
132333	7	Sololá	701	Sololá	4	Finca Santa Victoria	9	Septiembre	2023-09-23T00:00:00	2024-11-08T23:00:00	2	Temperatura media	13
132334	7	Sololá	701	Sololá	4	Finca Santa Victoria	9	Septiembre	2023-09-23T00:00:00	2024-11-08T23:00:00	4	Temperatura máxima	13.4
132335	7	Sololá	701	Sololá	4	Finca Santa Victoria	9	Septiembre	2023-09-23T00:00:00	2024-11-08T23:00:00	3	Temperatura mínima	13
132336	7	Sololá	701	Sololá	4	Finca Santa Victoria	9	Septiembre	2023-09-23T00:00:00	2024-11-08T23:00:00	5	Humedad	86
132337	7	Sololá	701	Sololá	4	Finca Santa Victoria	9	Septiembre	2023-09-23T00:00:00	2024-11-08T23:00:00	6	Velocidad del viento	0
132338	7	Sololá	701	Sololá	4	Finca Santa Victoria	9	Septiembre	2023-09-23T00:00:00	2024-11-08T23:00:00	7	Dirección del viento	0
132339	7	Sololá	701	Sololá	4	Finca Santa Victoria	9	Septiembre	2023-09-23T00:00:00	2024-11-08T23:00:00	1	Precipitación	0
132340	7	Sololá	701	Sololá	4	Finca Santa Victoria	9	Septiembre	2023-09-23T00:00:00	2024-11-08T23:00:00	8	Radiación solar	0
132341	7	Sololá	701	Sololá	4	Finca Santa Victoria	9	Septiembre	2023-09-24T00:00:00	2024-11-08T00:00:00	2	Temperatura media	12.3
132342	7	Sololá	701	Sololá	4	Finca Santa Victoria	9	Septiembre	2023-09-24T00:00:00	2024-11-08T00:00:00	4	Temperatura máxima	13.1
132343	7	Sololá	701	Sololá	4	Finca Santa Victoria	9	Septiembre	2023-09-24T00:00:00	2024-11-08T00:00:00	3	Temperatura mínima	12.3
132344	7	Sololá	701	Sololá	4	Finca Santa Victoria	9	Septiembre	2023-09-24T00:00:00	2024-11-08T00:00:00	5	Humedad	90
132345	7	Sololá	701	Sololá	4	Finca Santa Victoria	9	Septiembre	2023-09-24T00:00:00	2024-11-08T00:00:00	6	Velocidad del viento	0
132346	7	Sololá	701	Sololá	4	Finca Santa Victoria	9	Septiembre	2023-09-24T00:00:00	2024-11-08T00:00:00	7	Dirección del viento	0
132347	7	Sololá	701	Sololá	4	Finca Santa Victoria	9	Septiembre	2023-09-24T00:00:00	2024-11-08T00:00:00	1	Precipitación	0
132348	7	Sololá	701	Sololá	4	Finca Santa Victoria	9	Septiembre	2023-09-24T00:00:00	2024-11-08T00:00:00	8	Radiación solar	0
132349	7	Sololá	701	Sololá	4	Finca Santa Victoria	9	Septiembre	2023-09-24T00:00:00	2024-11-08T01:00:00	2	Temperatura media	12.9
132350	7	Sololá	701	Sololá	4	Finca Santa Victoria	9	Septiembre	2023-09-24T00:00:00	2024-11-08T01:00:00	4	Temperatura máxima	12.9
132351	7	Sololá	701	Sololá	4	Finca Santa Victoria	9	Septiembre	2023-09-24T00:00:00	2024-11-08T01:00:00	3	Temperatura mínima	12.3
132352	7	Sololá	701	Sololá	4	Finca Santa Victoria	9	Septiembre	2023-09-24T00:00:00	2024-11-08T01:00:00	5	Humedad	88
132353	7	Sololá	701	Sololá	4	Finca Santa Victoria	9	Septiembre	2023-09-24T00:00:00	2024-11-08T01:00:00	6	Velocidad del viento	0
132354	7	Sololá	701	Sololá	4	Finca Santa Victoria	9	Septiembre	2023-09-24T00:00:00	2024-11-08T01:00:00	7	Dirección del viento	0
132355	7	Sololá	701	Sololá	4	Finca Santa Victoria	9	Septiembre	2023-09-24T00:00:00	2024-11-08T01:00:00	1	Precipitación	0
132356	7	Sololá	701	Sololá	4	Finca Santa Victoria	9	Septiembre	2023-09-24T00:00:00	2024-11-08T01:00:00	8	Radiación solar	0
132357	7	Sololá	701	Sololá	4	Finca Santa Victoria	9	Septiembre	2023-09-24T00:00:00	2024-11-08T02:00:00	2	Temperatura media	12.6
132358	7	Sololá	701	Sololá	4	Finca Santa Victoria	9	Septiembre	2023-09-24T00:00:00	2024-11-08T02:00:00	4	Temperatura máxima	13.1
132359	7	Sololá	701	Sololá	4	Finca Santa Victoria	9	Septiembre	2023-09-24T00:00:00	2024-11-08T02:00:00	3	Temperatura mínima	12.2
132360	7	Sololá	701	Sololá	4	Finca Santa Victoria	9	Septiembre	2023-09-24T00:00:00	2024-11-08T02:00:00	5	Humedad	88
132361	7	Sololá	701	Sololá	4	Finca Santa Victoria	9	Septiembre	2023-09-24T00:00:00	2024-11-08T02:00:00	6	Velocidad del viento	0
132362	7	Sololá	701	Sololá	4	Finca Santa Victoria	9	Septiembre	2023-09-24T00:00:00	2024-11-08T02:00:00	7	Dirección del viento	0
132363	7	Sololá	701	Sololá	4	Finca Santa Victoria	9	Septiembre	2023-09-24T00:00:00	2024-11-08T02:00:00	1	Precipitación	0
132364	7	Sololá	701	Sololá	4	Finca Santa Victoria	9	Septiembre	2023-09-24T00:00:00	2024-11-08T02:00:00	8	Radiación solar	0
132365	7	Sololá	701	Sololá	4	Finca Santa Victoria	9	Septiembre	2023-09-24T00:00:00	2024-11-08T03:00:00	2	Temperatura media	12.2
132366	7	Sololá	701	Sololá	4	Finca Santa Victoria	9	Septiembre	2023-09-24T00:00:00	2024-11-08T03:00:00	4	Temperatura máxima	12.6
132367	7	Sololá	701	Sololá	4	Finca Santa Victoria	9	Septiembre	2023-09-24T00:00:00	2024-11-08T03:00:00	3	Temperatura mínima	12.2
132368	7	Sololá	701	Sololá	4	Finca Santa Victoria	9	Septiembre	2023-09-24T00:00:00	2024-11-08T03:00:00	5	Humedad	90
132369	7	Sololá	701	Sololá	4	Finca Santa Victoria	9	Septiembre	2023-09-24T00:00:00	2024-11-08T03:00:00	6	Velocidad del viento	0
132370	7	Sololá	701	Sololá	4	Finca Santa Victoria	9	Septiembre	2023-09-24T00:00:00	2024-11-08T03:00:00	7	Dirección del viento	0
132371	7	Sololá	701	Sololá	4	Finca Santa Victoria	9	Septiembre	2023-09-24T00:00:00	2024-11-08T03:00:00	1	Precipitación	0
132372	7	Sololá	701	Sololá	4	Finca Santa Victoria	9	Septiembre	2023-09-24T00:00:00	2024-11-08T03:00:00	8	Radiación solar	0
132373	7	Sololá	701	Sololá	4	Finca Santa Victoria	9	Septiembre	2023-09-24T00:00:00	2024-11-08T04:00:00	2	Temperatura media	12
132374	7	Sololá	701	Sololá	4	Finca Santa Victoria	9	Septiembre	2023-09-24T00:00:00	2024-11-08T04:00:00	4	Temperatura máxima	12.2
132375	7	Sololá	701	Sololá	4	Finca Santa Victoria	9	Septiembre	2023-09-24T00:00:00	2024-11-08T04:00:00	3	Temperatura mínima	11.6
132376	7	Sololá	701	Sololá	4	Finca Santa Victoria	9	Septiembre	2023-09-24T00:00:00	2024-11-08T04:00:00	5	Humedad	90
132377	7	Sololá	701	Sololá	4	Finca Santa Victoria	9	Septiembre	2023-09-24T00:00:00	2024-11-08T04:00:00	6	Velocidad del viento	0
132378	7	Sololá	701	Sololá	4	Finca Santa Victoria	9	Septiembre	2023-09-24T00:00:00	2024-11-08T04:00:00	7	Dirección del viento	0
132379	7	Sololá	701	Sololá	4	Finca Santa Victoria	9	Septiembre	2023-09-24T00:00:00	2024-11-08T04:00:00	1	Precipitación	0
132380	7	Sololá	701	Sololá	4	Finca Santa Victoria	9	Septiembre	2023-09-24T00:00:00	2024-11-08T04:00:00	8	Radiación solar	0
132381	7	Sololá	701	Sololá	4	Finca Santa Victoria	9	Septiembre	2023-09-24T00:00:00	2024-11-08T05:00:00	2	Temperatura media	12
132382	7	Sololá	701	Sololá	4	Finca Santa Victoria	9	Septiembre	2023-09-24T00:00:00	2024-11-08T05:00:00	4	Temperatura máxima	12.1
132383	7	Sololá	701	Sololá	4	Finca Santa Victoria	9	Septiembre	2023-09-24T00:00:00	2024-11-08T05:00:00	3	Temperatura mínima	11.8
132384	7	Sololá	701	Sololá	4	Finca Santa Victoria	9	Septiembre	2023-09-24T00:00:00	2024-11-08T05:00:00	5	Humedad	90
132385	7	Sololá	701	Sololá	4	Finca Santa Victoria	9	Septiembre	2023-09-24T00:00:00	2024-11-08T05:00:00	6	Velocidad del viento	0
132386	7	Sololá	701	Sololá	4	Finca Santa Victoria	9	Septiembre	2023-09-24T00:00:00	2024-11-08T05:00:00	7	Dirección del viento	0
132387	7	Sololá	701	Sololá	4	Finca Santa Victoria	9	Septiembre	2023-09-24T00:00:00	2024-11-08T05:00:00	1	Precipitación	0
132388	7	Sololá	701	Sololá	4	Finca Santa Victoria	9	Septiembre	2023-09-24T00:00:00	2024-11-08T05:00:00	8	Radiación solar	0
132389	7	Sololá	701	Sololá	4	Finca Santa Victoria	9	Septiembre	2023-09-24T00:00:00	2024-11-08T06:00:00	2	Temperatura media	11.9
132390	7	Sololá	701	Sololá	4	Finca Santa Victoria	9	Septiembre	2023-09-24T00:00:00	2024-11-08T06:00:00	4	Temperatura máxima	12.1
132391	7	Sololá	701	Sololá	4	Finca Santa Victoria	9	Septiembre	2023-09-24T00:00:00	2024-11-08T06:00:00	3	Temperatura mínima	11.7
132392	7	Sololá	701	Sololá	4	Finca Santa Victoria	9	Septiembre	2023-09-24T00:00:00	2024-11-08T06:00:00	5	Humedad	88
132393	7	Sololá	701	Sololá	4	Finca Santa Victoria	9	Septiembre	2023-09-24T00:00:00	2024-11-08T06:00:00	6	Velocidad del viento	0
132394	7	Sololá	701	Sololá	4	Finca Santa Victoria	9	Septiembre	2023-09-24T00:00:00	2024-11-08T06:00:00	7	Dirección del viento	0
132395	7	Sololá	701	Sololá	4	Finca Santa Victoria	9	Septiembre	2023-09-24T00:00:00	2024-11-08T06:00:00	1	Precipitación	0
132396	7	Sololá	701	Sololá	4	Finca Santa Victoria	9	Septiembre	2023-09-24T00:00:00	2024-11-08T06:00:00	8	Radiación solar	0
132397	7	Sololá	701	Sololá	4	Finca Santa Victoria	9	Septiembre	2023-09-24T00:00:00	2024-11-08T07:00:00	2	Temperatura media	13.2
132398	7	Sololá	701	Sololá	4	Finca Santa Victoria	9	Septiembre	2023-09-24T00:00:00	2024-11-08T07:00:00	4	Temperatura máxima	13.2
132399	7	Sololá	701	Sololá	4	Finca Santa Victoria	9	Septiembre	2023-09-24T00:00:00	2024-11-08T07:00:00	3	Temperatura mínima	11.9
132400	7	Sololá	701	Sololá	4	Finca Santa Victoria	9	Septiembre	2023-09-24T00:00:00	2024-11-08T07:00:00	5	Humedad	87
132401	7	Sololá	701	Sololá	4	Finca Santa Victoria	9	Septiembre	2023-09-24T00:00:00	2024-11-08T07:00:00	6	Velocidad del viento	0
132402	7	Sololá	701	Sololá	4	Finca Santa Victoria	9	Septiembre	2023-09-24T00:00:00	2024-11-08T07:00:00	7	Dirección del viento	0
132403	7	Sololá	701	Sololá	4	Finca Santa Victoria	9	Septiembre	2023-09-24T00:00:00	2024-11-08T07:00:00	1	Precipitación	0
132404	7	Sololá	701	Sololá	4	Finca Santa Victoria	9	Septiembre	2023-09-24T00:00:00	2024-11-08T07:00:00	8	Radiación solar	30
132405	7	Sololá	701	Sololá	4	Finca Santa Victoria	9	Septiembre	2023-09-24T00:00:00	2024-11-08T08:00:00	2	Temperatura media	17.9
132406	7	Sololá	701	Sololá	4	Finca Santa Victoria	9	Septiembre	2023-09-24T00:00:00	2024-11-08T08:00:00	4	Temperatura máxima	17.9
132407	7	Sololá	701	Sololá	4	Finca Santa Victoria	9	Septiembre	2023-09-24T00:00:00	2024-11-08T08:00:00	3	Temperatura mínima	13.2
132408	7	Sololá	701	Sololá	4	Finca Santa Victoria	9	Septiembre	2023-09-24T00:00:00	2024-11-08T08:00:00	5	Humedad	74
132409	7	Sololá	701	Sololá	4	Finca Santa Victoria	9	Septiembre	2023-09-24T00:00:00	2024-11-08T08:00:00	6	Velocidad del viento	0
132410	7	Sololá	701	Sololá	4	Finca Santa Victoria	9	Septiembre	2023-09-24T00:00:00	2024-11-08T08:00:00	7	Dirección del viento	0
132411	7	Sololá	701	Sololá	4	Finca Santa Victoria	9	Septiembre	2023-09-24T00:00:00	2024-11-08T08:00:00	1	Precipitación	0
132412	7	Sololá	701	Sololá	4	Finca Santa Victoria	9	Septiembre	2023-09-24T00:00:00	2024-11-08T08:00:00	8	Radiación solar	266
132413	7	Sololá	701	Sololá	4	Finca Santa Victoria	9	Septiembre	2023-09-24T00:00:00	2024-11-08T09:00:00	2	Temperatura media	19.7
132414	7	Sololá	701	Sololá	4	Finca Santa Victoria	9	Septiembre	2023-09-24T00:00:00	2024-11-08T09:00:00	4	Temperatura máxima	19.7
132415	7	Sololá	701	Sololá	4	Finca Santa Victoria	9	Septiembre	2023-09-24T00:00:00	2024-11-08T09:00:00	3	Temperatura mínima	17.9
132416	7	Sololá	701	Sololá	4	Finca Santa Victoria	9	Septiembre	2023-09-24T00:00:00	2024-11-08T09:00:00	5	Humedad	68
132417	7	Sololá	701	Sololá	4	Finca Santa Victoria	9	Septiembre	2023-09-24T00:00:00	2024-11-08T09:00:00	6	Velocidad del viento	1.6
132418	7	Sololá	701	Sololá	4	Finca Santa Victoria	9	Septiembre	2023-09-24T00:00:00	2024-11-08T09:00:00	7	Dirección del viento	1.61
132419	7	Sololá	701	Sololá	4	Finca Santa Victoria	9	Septiembre	2023-09-24T00:00:00	2024-11-08T09:00:00	1	Precipitación	0
132420	7	Sololá	701	Sololá	4	Finca Santa Victoria	9	Septiembre	2023-09-24T00:00:00	2024-11-08T09:00:00	8	Radiación solar	613
132421	7	Sololá	701	Sololá	4	Finca Santa Victoria	9	Septiembre	2023-09-24T00:00:00	2024-11-08T10:00:00	2	Temperatura media	21.2
132422	7	Sololá	701	Sololá	4	Finca Santa Victoria	9	Septiembre	2023-09-24T00:00:00	2024-11-08T10:00:00	4	Temperatura máxima	21.2
132423	7	Sololá	701	Sololá	4	Finca Santa Victoria	9	Septiembre	2023-09-24T00:00:00	2024-11-08T10:00:00	3	Temperatura mínima	19.6
132424	7	Sololá	701	Sololá	4	Finca Santa Victoria	9	Septiembre	2023-09-24T00:00:00	2024-11-08T10:00:00	5	Humedad	61
132425	7	Sololá	701	Sololá	4	Finca Santa Victoria	9	Septiembre	2023-09-24T00:00:00	2024-11-08T10:00:00	6	Velocidad del viento	1.6
132426	7	Sololá	701	Sololá	4	Finca Santa Victoria	9	Septiembre	2023-09-24T00:00:00	2024-11-08T10:00:00	7	Dirección del viento	1.61
132427	7	Sololá	701	Sololá	4	Finca Santa Victoria	9	Septiembre	2023-09-24T00:00:00	2024-11-08T10:00:00	1	Precipitación	0
132428	7	Sololá	701	Sololá	4	Finca Santa Victoria	9	Septiembre	2023-09-24T00:00:00	2024-11-08T10:00:00	8	Radiación solar	845
132429	7	Sololá	701	Sololá	4	Finca Santa Victoria	9	Septiembre	2023-09-24T00:00:00	2024-11-08T11:00:00	2	Temperatura media	20.8
132430	7	Sololá	701	Sololá	4	Finca Santa Victoria	9	Septiembre	2023-09-24T00:00:00	2024-11-08T11:00:00	4	Temperatura máxima	22.1
132431	7	Sololá	701	Sololá	4	Finca Santa Victoria	9	Septiembre	2023-09-24T00:00:00	2024-11-08T11:00:00	3	Temperatura mínima	20.8
132432	7	Sololá	701	Sololá	4	Finca Santa Victoria	9	Septiembre	2023-09-24T00:00:00	2024-11-08T11:00:00	5	Humedad	60
132433	7	Sololá	701	Sololá	4	Finca Santa Victoria	9	Septiembre	2023-09-24T00:00:00	2024-11-08T11:00:00	6	Velocidad del viento	1.6
132434	7	Sololá	701	Sololá	4	Finca Santa Victoria	9	Septiembre	2023-09-24T00:00:00	2024-11-08T11:00:00	7	Dirección del viento	1.61
132435	7	Sololá	701	Sololá	4	Finca Santa Victoria	9	Septiembre	2023-09-24T00:00:00	2024-11-08T11:00:00	1	Precipitación	0
132436	7	Sololá	701	Sololá	4	Finca Santa Victoria	9	Septiembre	2023-09-24T00:00:00	2024-11-08T11:00:00	8	Radiación solar	802
132437	7	Sololá	701	Sololá	4	Finca Santa Victoria	9	Septiembre	2023-09-24T00:00:00	2024-11-08T12:00:00	2	Temperatura media	22.1
132438	7	Sololá	701	Sololá	4	Finca Santa Victoria	9	Septiembre	2023-09-24T00:00:00	2024-11-08T12:00:00	4	Temperatura máxima	22.2
132439	7	Sololá	701	Sololá	4	Finca Santa Victoria	9	Septiembre	2023-09-24T00:00:00	2024-11-08T12:00:00	3	Temperatura mínima	22.1
132440	7	Sololá	701	Sololá	4	Finca Santa Victoria	9	Septiembre	2023-09-24T00:00:00	2024-11-08T12:00:00	5	Humedad	58
132441	7	Sololá	701	Sololá	4	Finca Santa Victoria	9	Septiembre	2023-09-24T00:00:00	2024-11-08T12:00:00	6	Velocidad del viento	3.2
132442	7	Sololá	701	Sololá	4	Finca Santa Victoria	9	Septiembre	2023-09-24T00:00:00	2024-11-08T12:00:00	7	Dirección del viento	0.05
132443	7	Sololá	701	Sololá	4	Finca Santa Victoria	9	Septiembre	2023-09-24T00:00:00	2024-11-08T12:00:00	1	Precipitación	0
132444	7	Sololá	701	Sololá	4	Finca Santa Victoria	9	Septiembre	2023-09-24T00:00:00	2024-11-08T12:00:00	8	Radiación solar	251
132445	7	Sololá	701	Sololá	4	Finca Santa Victoria	9	Septiembre	2023-09-24T00:00:00	2024-11-08T13:00:00	2	Temperatura media	21.1
132446	7	Sololá	701	Sololá	4	Finca Santa Victoria	9	Septiembre	2023-09-24T00:00:00	2024-11-08T13:00:00	4	Temperatura máxima	21.9
132447	7	Sololá	701	Sololá	4	Finca Santa Victoria	9	Septiembre	2023-09-24T00:00:00	2024-11-08T13:00:00	3	Temperatura mínima	21
132448	7	Sololá	701	Sololá	4	Finca Santa Victoria	9	Septiembre	2023-09-24T00:00:00	2024-11-08T13:00:00	5	Humedad	61
132449	7	Sololá	701	Sololá	4	Finca Santa Victoria	9	Septiembre	2023-09-24T00:00:00	2024-11-08T13:00:00	6	Velocidad del viento	1.6
132450	7	Sololá	701	Sololá	4	Finca Santa Victoria	9	Septiembre	2023-09-24T00:00:00	2024-11-08T13:00:00	7	Dirección del viento	1.61
132451	7	Sololá	701	Sololá	4	Finca Santa Victoria	9	Septiembre	2023-09-24T00:00:00	2024-11-08T13:00:00	1	Precipitación	0
132452	7	Sololá	701	Sololá	4	Finca Santa Victoria	9	Septiembre	2023-09-24T00:00:00	2024-11-08T13:00:00	8	Radiación solar	161
132453	7	Sololá	701	Sololá	4	Finca Santa Victoria	9	Septiembre	2023-09-24T00:00:00	2024-11-08T14:00:00	2	Temperatura media	22.3
132454	7	Sololá	701	Sololá	4	Finca Santa Victoria	9	Septiembre	2023-09-24T00:00:00	2024-11-08T14:00:00	4	Temperatura máxima	22.4
132455	7	Sololá	701	Sololá	4	Finca Santa Victoria	9	Septiembre	2023-09-24T00:00:00	2024-11-08T14:00:00	3	Temperatura mínima	21.1
132456	7	Sololá	701	Sololá	4	Finca Santa Victoria	9	Septiembre	2023-09-24T00:00:00	2024-11-08T14:00:00	5	Humedad	56
132457	7	Sololá	701	Sololá	4	Finca Santa Victoria	9	Septiembre	2023-09-24T00:00:00	2024-11-08T14:00:00	6	Velocidad del viento	3.2
132458	7	Sololá	701	Sololá	4	Finca Santa Victoria	9	Septiembre	2023-09-24T00:00:00	2024-11-08T14:00:00	7	Dirección del viento	3.22
132459	7	Sololá	701	Sololá	4	Finca Santa Victoria	9	Septiembre	2023-09-24T00:00:00	2024-11-08T14:00:00	1	Precipitación	0
132460	7	Sololá	701	Sololá	4	Finca Santa Victoria	9	Septiembre	2023-09-24T00:00:00	2024-11-08T14:00:00	8	Radiación solar	119
132461	7	Sololá	701	Sololá	4	Finca Santa Victoria	9	Septiembre	2023-09-24T00:00:00	2024-11-08T15:00:00	2	Temperatura media	20.9
132462	7	Sololá	701	Sololá	4	Finca Santa Victoria	9	Septiembre	2023-09-24T00:00:00	2024-11-08T15:00:00	4	Temperatura máxima	22.3
132463	7	Sololá	701	Sololá	4	Finca Santa Victoria	9	Septiembre	2023-09-24T00:00:00	2024-11-08T15:00:00	3	Temperatura mínima	20.7
132464	7	Sololá	701	Sololá	4	Finca Santa Victoria	9	Septiembre	2023-09-24T00:00:00	2024-11-08T15:00:00	5	Humedad	63
132465	7	Sololá	701	Sololá	4	Finca Santa Victoria	9	Septiembre	2023-09-24T00:00:00	2024-11-08T15:00:00	6	Velocidad del viento	1.6
132466	7	Sololá	701	Sololá	4	Finca Santa Victoria	9	Septiembre	2023-09-24T00:00:00	2024-11-08T15:00:00	7	Dirección del viento	1.61
132467	7	Sololá	701	Sololá	4	Finca Santa Victoria	9	Septiembre	2023-09-24T00:00:00	2024-11-08T15:00:00	1	Precipitación	0
132468	7	Sololá	701	Sololá	4	Finca Santa Victoria	9	Septiembre	2023-09-24T00:00:00	2024-11-08T15:00:00	8	Radiación solar	103
132469	7	Sololá	701	Sololá	4	Finca Santa Victoria	9	Septiembre	2023-09-24T00:00:00	2024-11-08T16:00:00	2	Temperatura media	21.2
132470	7	Sololá	701	Sololá	4	Finca Santa Victoria	9	Septiembre	2023-09-24T00:00:00	2024-11-08T16:00:00	4	Temperatura máxima	21.7
132471	7	Sololá	701	Sololá	4	Finca Santa Victoria	9	Septiembre	2023-09-24T00:00:00	2024-11-08T16:00:00	3	Temperatura mínima	20.7
132472	7	Sololá	701	Sololá	4	Finca Santa Victoria	9	Septiembre	2023-09-24T00:00:00	2024-11-08T16:00:00	5	Humedad	60
132473	7	Sololá	701	Sololá	4	Finca Santa Victoria	9	Septiembre	2023-09-24T00:00:00	2024-11-08T16:00:00	6	Velocidad del viento	1.6
132474	7	Sololá	701	Sololá	4	Finca Santa Victoria	9	Septiembre	2023-09-24T00:00:00	2024-11-08T16:00:00	7	Dirección del viento	1.61
132475	7	Sololá	701	Sololá	4	Finca Santa Victoria	9	Septiembre	2023-09-24T00:00:00	2024-11-08T16:00:00	1	Precipitación	0
132476	7	Sololá	701	Sololá	4	Finca Santa Victoria	9	Septiembre	2023-09-24T00:00:00	2024-11-08T16:00:00	8	Radiación solar	134
132477	7	Sololá	701	Sololá	4	Finca Santa Victoria	9	Septiembre	2023-09-24T00:00:00	2024-11-08T17:00:00	2	Temperatura media	18.2
132478	7	Sololá	701	Sololá	4	Finca Santa Victoria	9	Septiembre	2023-09-24T00:00:00	2024-11-08T17:00:00	4	Temperatura máxima	21.2
132479	7	Sololá	701	Sololá	4	Finca Santa Victoria	9	Septiembre	2023-09-24T00:00:00	2024-11-08T17:00:00	3	Temperatura mínima	18.2
132480	7	Sololá	701	Sololá	4	Finca Santa Victoria	9	Septiembre	2023-09-24T00:00:00	2024-11-08T17:00:00	5	Humedad	88
132481	7	Sololá	701	Sololá	4	Finca Santa Victoria	9	Septiembre	2023-09-24T00:00:00	2024-11-08T17:00:00	6	Velocidad del viento	0
132482	7	Sololá	701	Sololá	4	Finca Santa Victoria	9	Septiembre	2023-09-24T00:00:00	2024-11-08T17:00:00	7	Dirección del viento	0
132483	7	Sololá	701	Sololá	4	Finca Santa Victoria	9	Septiembre	2023-09-24T00:00:00	2024-11-08T17:00:00	1	Precipitación	0
132484	7	Sololá	701	Sololá	4	Finca Santa Victoria	9	Septiembre	2023-09-24T00:00:00	2024-11-08T17:00:00	8	Radiación solar	86
132485	7	Sololá	701	Sololá	4	Finca Santa Victoria	9	Septiembre	2023-09-24T00:00:00	2024-11-08T18:00:00	2	Temperatura media	16.7
132486	7	Sololá	701	Sololá	4	Finca Santa Victoria	9	Septiembre	2023-09-24T00:00:00	2024-11-08T18:00:00	4	Temperatura máxima	18.2
132487	7	Sololá	701	Sololá	4	Finca Santa Victoria	9	Septiembre	2023-09-24T00:00:00	2024-11-08T18:00:00	3	Temperatura mínima	16.7
132488	7	Sololá	701	Sololá	4	Finca Santa Victoria	9	Septiembre	2023-09-24T00:00:00	2024-11-08T18:00:00	5	Humedad	91
132489	7	Sololá	701	Sololá	4	Finca Santa Victoria	9	Septiembre	2023-09-24T00:00:00	2024-11-08T18:00:00	6	Velocidad del viento	0
132490	7	Sololá	701	Sololá	4	Finca Santa Victoria	9	Septiembre	2023-09-24T00:00:00	2024-11-08T18:00:00	7	Dirección del viento	0
132491	7	Sololá	701	Sololá	4	Finca Santa Victoria	9	Septiembre	2023-09-24T00:00:00	2024-11-08T18:00:00	1	Precipitación	0
132492	7	Sololá	701	Sololá	4	Finca Santa Victoria	9	Septiembre	2023-09-24T00:00:00	2024-11-08T18:00:00	8	Radiación solar	38
132493	7	Sololá	701	Sololá	4	Finca Santa Victoria	9	Septiembre	2023-09-24T00:00:00	2024-11-08T19:00:00	2	Temperatura media	14.4
132494	7	Sololá	701	Sololá	4	Finca Santa Victoria	9	Septiembre	2023-09-24T00:00:00	2024-11-08T19:00:00	4	Temperatura máxima	16.7
132495	7	Sololá	701	Sololá	4	Finca Santa Victoria	9	Septiembre	2023-09-24T00:00:00	2024-11-08T19:00:00	3	Temperatura mínima	14.4
132496	7	Sololá	701	Sololá	4	Finca Santa Victoria	9	Septiembre	2023-09-24T00:00:00	2024-11-08T19:00:00	5	Humedad	91
132497	7	Sololá	701	Sololá	4	Finca Santa Victoria	9	Septiembre	2023-09-24T00:00:00	2024-11-08T19:00:00	6	Velocidad del viento	0
132498	7	Sololá	701	Sololá	4	Finca Santa Victoria	9	Septiembre	2023-09-24T00:00:00	2024-11-08T19:00:00	7	Dirección del viento	0
132499	7	Sololá	701	Sololá	4	Finca Santa Victoria	9	Septiembre	2023-09-24T00:00:00	2024-11-08T19:00:00	1	Precipitación	0.2
132500	7	Sololá	701	Sololá	4	Finca Santa Victoria	9	Septiembre	2023-09-24T00:00:00	2024-11-08T19:00:00	8	Radiación solar	0
132501	7	Sololá	701	Sololá	4	Finca Santa Victoria	9	Septiembre	2023-09-24T00:00:00	2024-11-08T20:00:00	2	Temperatura media	14.7
132502	7	Sololá	701	Sololá	4	Finca Santa Victoria	9	Septiembre	2023-09-24T00:00:00	2024-11-08T20:00:00	4	Temperatura máxima	14.9
132503	7	Sololá	701	Sololá	4	Finca Santa Victoria	9	Septiembre	2023-09-24T00:00:00	2024-11-08T20:00:00	3	Temperatura mínima	14.4
132504	7	Sololá	701	Sololá	4	Finca Santa Victoria	9	Septiembre	2023-09-24T00:00:00	2024-11-08T20:00:00	5	Humedad	88
132505	7	Sololá	701	Sololá	4	Finca Santa Victoria	9	Septiembre	2023-09-24T00:00:00	2024-11-08T20:00:00	6	Velocidad del viento	1.6
132506	7	Sololá	701	Sololá	4	Finca Santa Victoria	9	Septiembre	2023-09-24T00:00:00	2024-11-08T20:00:00	7	Dirección del viento	1.61
132507	7	Sololá	701	Sololá	4	Finca Santa Victoria	9	Septiembre	2023-09-24T00:00:00	2024-11-08T20:00:00	1	Precipitación	0
132508	7	Sololá	701	Sololá	4	Finca Santa Victoria	9	Septiembre	2023-09-24T00:00:00	2024-11-08T20:00:00	8	Radiación solar	0
132509	7	Sololá	701	Sololá	4	Finca Santa Victoria	9	Septiembre	2023-09-24T00:00:00	2024-11-08T21:00:00	2	Temperatura media	14.1
132510	7	Sololá	701	Sololá	4	Finca Santa Victoria	9	Septiembre	2023-09-24T00:00:00	2024-11-08T21:00:00	4	Temperatura máxima	14.7
132511	7	Sololá	701	Sololá	4	Finca Santa Victoria	9	Septiembre	2023-09-24T00:00:00	2024-11-08T21:00:00	3	Temperatura mínima	13.9
132512	7	Sololá	701	Sololá	4	Finca Santa Victoria	9	Septiembre	2023-09-24T00:00:00	2024-11-08T21:00:00	5	Humedad	89
132513	7	Sololá	701	Sololá	4	Finca Santa Victoria	9	Septiembre	2023-09-24T00:00:00	2024-11-08T21:00:00	6	Velocidad del viento	0
132514	7	Sololá	701	Sololá	4	Finca Santa Victoria	9	Septiembre	2023-09-24T00:00:00	2024-11-08T21:00:00	7	Dirección del viento	0
132515	7	Sololá	701	Sololá	4	Finca Santa Victoria	9	Septiembre	2023-09-24T00:00:00	2024-11-08T21:00:00	1	Precipitación	0
132516	7	Sololá	701	Sololá	4	Finca Santa Victoria	9	Septiembre	2023-09-24T00:00:00	2024-11-08T21:00:00	8	Radiación solar	0
132517	7	Sololá	701	Sololá	4	Finca Santa Victoria	9	Septiembre	2023-09-24T00:00:00	2024-11-08T22:00:00	2	Temperatura media	14.1
132518	7	Sololá	701	Sololá	4	Finca Santa Victoria	9	Septiembre	2023-09-24T00:00:00	2024-11-08T22:00:00	4	Temperatura máxima	14.1
132519	7	Sololá	701	Sololá	4	Finca Santa Victoria	9	Septiembre	2023-09-24T00:00:00	2024-11-08T22:00:00	3	Temperatura mínima	13.8
132520	7	Sololá	701	Sololá	4	Finca Santa Victoria	9	Septiembre	2023-09-24T00:00:00	2024-11-08T22:00:00	5	Humedad	88
132521	7	Sololá	701	Sololá	4	Finca Santa Victoria	9	Septiembre	2023-09-24T00:00:00	2024-11-08T22:00:00	6	Velocidad del viento	0
132522	7	Sololá	701	Sololá	4	Finca Santa Victoria	9	Septiembre	2023-09-24T00:00:00	2024-11-08T22:00:00	7	Dirección del viento	0
132523	7	Sololá	701	Sololá	4	Finca Santa Victoria	9	Septiembre	2023-09-24T00:00:00	2024-11-08T22:00:00	1	Precipitación	0
132524	7	Sololá	701	Sololá	4	Finca Santa Victoria	9	Septiembre	2023-09-24T00:00:00	2024-11-08T22:00:00	8	Radiación solar	0
132525	7	Sololá	701	Sololá	4	Finca Santa Victoria	9	Septiembre	2023-09-24T00:00:00	2024-11-08T23:00:00	2	Temperatura media	13.8
132526	7	Sololá	701	Sololá	4	Finca Santa Victoria	9	Septiembre	2023-09-24T00:00:00	2024-11-08T23:00:00	4	Temperatura máxima	14.1
132527	7	Sololá	701	Sololá	4	Finca Santa Victoria	9	Septiembre	2023-09-24T00:00:00	2024-11-08T23:00:00	3	Temperatura mínima	13.7
132528	7	Sololá	701	Sololá	4	Finca Santa Victoria	9	Septiembre	2023-09-24T00:00:00	2024-11-08T23:00:00	5	Humedad	90
132529	7	Sololá	701	Sololá	4	Finca Santa Victoria	9	Septiembre	2023-09-24T00:00:00	2024-11-08T23:00:00	6	Velocidad del viento	1.6
132530	7	Sololá	701	Sololá	4	Finca Santa Victoria	9	Septiembre	2023-09-24T00:00:00	2024-11-08T23:00:00	7	Dirección del viento	1.61
132531	7	Sololá	701	Sololá	4	Finca Santa Victoria	9	Septiembre	2023-09-24T00:00:00	2024-11-08T23:00:00	1	Precipitación	0
132532	7	Sololá	701	Sololá	4	Finca Santa Victoria	9	Septiembre	2023-09-24T00:00:00	2024-11-08T23:00:00	8	Radiación solar	0
132533	7	Sololá	701	Sololá	4	Finca Santa Victoria	9	Septiembre	2023-09-25T00:00:00	2024-11-08T00:00:00	2	Temperatura media	14.1
132534	7	Sololá	701	Sololá	4	Finca Santa Victoria	9	Septiembre	2023-09-25T00:00:00	2024-11-08T00:00:00	4	Temperatura máxima	14.1
132535	7	Sololá	701	Sololá	4	Finca Santa Victoria	9	Septiembre	2023-09-25T00:00:00	2024-11-08T00:00:00	3	Temperatura mínima	13.8
132536	7	Sololá	701	Sololá	4	Finca Santa Victoria	9	Septiembre	2023-09-25T00:00:00	2024-11-08T00:00:00	5	Humedad	88
132537	7	Sololá	701	Sololá	4	Finca Santa Victoria	9	Septiembre	2023-09-25T00:00:00	2024-11-08T00:00:00	6	Velocidad del viento	1.6
132538	7	Sololá	701	Sololá	4	Finca Santa Victoria	9	Septiembre	2023-09-25T00:00:00	2024-11-08T00:00:00	7	Dirección del viento	1.61
132539	7	Sololá	701	Sololá	4	Finca Santa Victoria	9	Septiembre	2023-09-25T00:00:00	2024-11-08T00:00:00	1	Precipitación	0
132540	7	Sololá	701	Sololá	4	Finca Santa Victoria	9	Septiembre	2023-09-25T00:00:00	2024-11-08T00:00:00	8	Radiación solar	0
132541	7	Sololá	701	Sololá	4	Finca Santa Victoria	9	Septiembre	2023-09-25T00:00:00	2024-11-08T01:00:00	2	Temperatura media	14.1
132542	7	Sololá	701	Sololá	4	Finca Santa Victoria	9	Septiembre	2023-09-25T00:00:00	2024-11-08T01:00:00	4	Temperatura máxima	14.1
132543	7	Sololá	701	Sololá	4	Finca Santa Victoria	9	Septiembre	2023-09-25T00:00:00	2024-11-08T01:00:00	3	Temperatura mínima	13.9
132544	7	Sololá	701	Sololá	4	Finca Santa Victoria	9	Septiembre	2023-09-25T00:00:00	2024-11-08T01:00:00	5	Humedad	88
132545	7	Sololá	701	Sololá	4	Finca Santa Victoria	9	Septiembre	2023-09-25T00:00:00	2024-11-08T01:00:00	6	Velocidad del viento	1.6
132546	7	Sololá	701	Sololá	4	Finca Santa Victoria	9	Septiembre	2023-09-25T00:00:00	2024-11-08T01:00:00	7	Dirección del viento	1.61
132547	7	Sololá	701	Sololá	4	Finca Santa Victoria	9	Septiembre	2023-09-25T00:00:00	2024-11-08T01:00:00	1	Precipitación	0
132548	7	Sololá	701	Sololá	4	Finca Santa Victoria	9	Septiembre	2023-09-25T00:00:00	2024-11-08T01:00:00	8	Radiación solar	0
132549	7	Sololá	701	Sololá	4	Finca Santa Victoria	9	Septiembre	2023-09-25T00:00:00	2024-11-08T02:00:00	2	Temperatura media	14.1
132550	7	Sololá	701	Sololá	4	Finca Santa Victoria	9	Septiembre	2023-09-25T00:00:00	2024-11-08T02:00:00	4	Temperatura máxima	14.1
132551	7	Sololá	701	Sololá	4	Finca Santa Victoria	9	Septiembre	2023-09-25T00:00:00	2024-11-08T02:00:00	3	Temperatura mínima	14
132552	7	Sololá	701	Sololá	4	Finca Santa Victoria	9	Septiembre	2023-09-25T00:00:00	2024-11-08T02:00:00	5	Humedad	86
132553	7	Sololá	701	Sololá	4	Finca Santa Victoria	9	Septiembre	2023-09-25T00:00:00	2024-11-08T02:00:00	6	Velocidad del viento	1.6
132554	7	Sololá	701	Sololá	4	Finca Santa Victoria	9	Septiembre	2023-09-25T00:00:00	2024-11-08T02:00:00	7	Dirección del viento	1.61
132555	7	Sololá	701	Sololá	4	Finca Santa Victoria	9	Septiembre	2023-09-25T00:00:00	2024-11-08T02:00:00	1	Precipitación	0
132556	7	Sololá	701	Sololá	4	Finca Santa Victoria	9	Septiembre	2023-09-25T00:00:00	2024-11-08T02:00:00	8	Radiación solar	0
132557	7	Sololá	701	Sololá	4	Finca Santa Victoria	9	Septiembre	2023-09-25T00:00:00	2024-11-08T03:00:00	2	Temperatura media	13.8
132558	7	Sololá	701	Sololá	4	Finca Santa Victoria	9	Septiembre	2023-09-25T00:00:00	2024-11-08T03:00:00	4	Temperatura máxima	14.2
132559	7	Sololá	701	Sololá	4	Finca Santa Victoria	9	Septiembre	2023-09-25T00:00:00	2024-11-08T03:00:00	3	Temperatura mínima	13.8
132560	7	Sololá	701	Sololá	4	Finca Santa Victoria	9	Septiembre	2023-09-25T00:00:00	2024-11-08T03:00:00	5	Humedad	87
132561	7	Sololá	701	Sololá	4	Finca Santa Victoria	9	Septiembre	2023-09-25T00:00:00	2024-11-08T03:00:00	6	Velocidad del viento	3.2
132562	7	Sololá	701	Sololá	4	Finca Santa Victoria	9	Septiembre	2023-09-25T00:00:00	2024-11-08T03:00:00	7	Dirección del viento	3.22
132563	7	Sololá	701	Sololá	4	Finca Santa Victoria	9	Septiembre	2023-09-25T00:00:00	2024-11-08T03:00:00	1	Precipitación	0
132564	7	Sololá	701	Sololá	4	Finca Santa Victoria	9	Septiembre	2023-09-25T00:00:00	2024-11-08T03:00:00	8	Radiación solar	0
132565	7	Sololá	701	Sololá	4	Finca Santa Victoria	9	Septiembre	2023-09-25T00:00:00	2024-11-08T04:00:00	2	Temperatura media	13.3
132566	7	Sololá	701	Sololá	4	Finca Santa Victoria	9	Septiembre	2023-09-25T00:00:00	2024-11-08T04:00:00	4	Temperatura máxima	13.8
132567	7	Sololá	701	Sololá	4	Finca Santa Victoria	9	Septiembre	2023-09-25T00:00:00	2024-11-08T04:00:00	3	Temperatura mínima	13.3
132568	7	Sololá	701	Sololá	4	Finca Santa Victoria	9	Septiembre	2023-09-25T00:00:00	2024-11-08T04:00:00	5	Humedad	88
132569	7	Sololá	701	Sololá	4	Finca Santa Victoria	9	Septiembre	2023-09-25T00:00:00	2024-11-08T04:00:00	6	Velocidad del viento	1.6
132570	7	Sololá	701	Sololá	4	Finca Santa Victoria	9	Septiembre	2023-09-25T00:00:00	2024-11-08T04:00:00	7	Dirección del viento	1.61
132571	7	Sololá	701	Sololá	4	Finca Santa Victoria	9	Septiembre	2023-09-25T00:00:00	2024-11-08T04:00:00	1	Precipitación	0
132572	7	Sololá	701	Sololá	4	Finca Santa Victoria	9	Septiembre	2023-09-25T00:00:00	2024-11-08T04:00:00	8	Radiación solar	0
132573	7	Sololá	701	Sololá	4	Finca Santa Victoria	9	Septiembre	2023-09-25T00:00:00	2024-11-08T05:00:00	2	Temperatura media	13.1
132574	7	Sololá	701	Sololá	4	Finca Santa Victoria	9	Septiembre	2023-09-25T00:00:00	2024-11-08T05:00:00	4	Temperatura máxima	13.3
132575	7	Sololá	701	Sololá	4	Finca Santa Victoria	9	Septiembre	2023-09-25T00:00:00	2024-11-08T05:00:00	3	Temperatura mínima	13
132576	7	Sololá	701	Sololá	4	Finca Santa Victoria	9	Septiembre	2023-09-25T00:00:00	2024-11-08T05:00:00	5	Humedad	89
132577	7	Sololá	701	Sololá	4	Finca Santa Victoria	9	Septiembre	2023-09-25T00:00:00	2024-11-08T05:00:00	6	Velocidad del viento	1.6
132578	7	Sololá	701	Sololá	4	Finca Santa Victoria	9	Septiembre	2023-09-25T00:00:00	2024-11-08T05:00:00	7	Dirección del viento	1.61
132579	7	Sololá	701	Sololá	4	Finca Santa Victoria	9	Septiembre	2023-09-25T00:00:00	2024-11-08T05:00:00	1	Precipitación	0
132580	7	Sololá	701	Sololá	4	Finca Santa Victoria	9	Septiembre	2023-09-25T00:00:00	2024-11-08T05:00:00	8	Radiación solar	0
132581	7	Sololá	701	Sololá	4	Finca Santa Victoria	9	Septiembre	2023-09-25T00:00:00	2024-11-08T06:00:00	2	Temperatura media	13.1
132582	7	Sololá	701	Sololá	4	Finca Santa Victoria	9	Septiembre	2023-09-25T00:00:00	2024-11-08T06:00:00	4	Temperatura máxima	13.2
132583	7	Sololá	701	Sololá	4	Finca Santa Victoria	9	Septiembre	2023-09-25T00:00:00	2024-11-08T06:00:00	3	Temperatura mínima	12.8
132584	7	Sololá	701	Sololá	4	Finca Santa Victoria	9	Septiembre	2023-09-25T00:00:00	2024-11-08T06:00:00	5	Humedad	87
132585	7	Sololá	701	Sololá	4	Finca Santa Victoria	9	Septiembre	2023-09-25T00:00:00	2024-11-08T06:00:00	6	Velocidad del viento	1.6
132586	7	Sololá	701	Sololá	4	Finca Santa Victoria	9	Septiembre	2023-09-25T00:00:00	2024-11-08T06:00:00	7	Dirección del viento	1.61
132587	7	Sololá	701	Sololá	4	Finca Santa Victoria	9	Septiembre	2023-09-25T00:00:00	2024-11-08T06:00:00	1	Precipitación	0
132588	7	Sololá	701	Sololá	4	Finca Santa Victoria	9	Septiembre	2023-09-25T00:00:00	2024-11-08T06:00:00	8	Radiación solar	0
132589	7	Sololá	701	Sololá	4	Finca Santa Victoria	9	Septiembre	2023-09-25T00:00:00	2024-11-08T07:00:00	2	Temperatura media	14
132590	7	Sololá	701	Sololá	4	Finca Santa Victoria	9	Septiembre	2023-09-25T00:00:00	2024-11-08T07:00:00	4	Temperatura máxima	14
132591	7	Sololá	701	Sololá	4	Finca Santa Victoria	9	Septiembre	2023-09-25T00:00:00	2024-11-08T07:00:00	3	Temperatura mínima	12.9
132592	7	Sololá	701	Sololá	4	Finca Santa Victoria	9	Septiembre	2023-09-25T00:00:00	2024-11-08T07:00:00	5	Humedad	85
132593	7	Sololá	701	Sololá	4	Finca Santa Victoria	9	Septiembre	2023-09-25T00:00:00	2024-11-08T07:00:00	6	Velocidad del viento	0
132594	7	Sololá	701	Sololá	4	Finca Santa Victoria	9	Septiembre	2023-09-25T00:00:00	2024-11-08T07:00:00	7	Dirección del viento	0
132595	7	Sololá	701	Sololá	4	Finca Santa Victoria	9	Septiembre	2023-09-25T00:00:00	2024-11-08T07:00:00	1	Precipitación	0
132596	7	Sololá	701	Sololá	4	Finca Santa Victoria	9	Septiembre	2023-09-25T00:00:00	2024-11-08T07:00:00	8	Radiación solar	40
132597	7	Sololá	701	Sololá	4	Finca Santa Victoria	9	Septiembre	2023-09-25T00:00:00	2024-11-08T08:00:00	2	Temperatura media	17.1
132598	7	Sololá	701	Sololá	4	Finca Santa Victoria	9	Septiembre	2023-09-25T00:00:00	2024-11-08T08:00:00	4	Temperatura máxima	17.1
132599	7	Sololá	701	Sololá	4	Finca Santa Victoria	9	Septiembre	2023-09-25T00:00:00	2024-11-08T08:00:00	3	Temperatura mínima	14
132600	7	Sololá	701	Sololá	4	Finca Santa Victoria	9	Septiembre	2023-09-25T00:00:00	2024-11-08T08:00:00	5	Humedad	76
132601	7	Sololá	701	Sololá	4	Finca Santa Victoria	9	Septiembre	2023-09-25T00:00:00	2024-11-08T08:00:00	6	Velocidad del viento	1.6
132602	7	Sololá	701	Sololá	4	Finca Santa Victoria	9	Septiembre	2023-09-25T00:00:00	2024-11-08T08:00:00	7	Dirección del viento	1.61
132603	7	Sololá	701	Sololá	4	Finca Santa Victoria	9	Septiembre	2023-09-25T00:00:00	2024-11-08T08:00:00	1	Precipitación	0
132604	7	Sololá	701	Sololá	4	Finca Santa Victoria	9	Septiembre	2023-09-25T00:00:00	2024-11-08T08:00:00	8	Radiación solar	191
132605	7	Sololá	701	Sololá	4	Finca Santa Victoria	9	Septiembre	2023-09-25T00:00:00	2024-11-08T09:00:00	2	Temperatura media	18.5
132606	7	Sololá	701	Sololá	4	Finca Santa Victoria	9	Septiembre	2023-09-25T00:00:00	2024-11-08T09:00:00	4	Temperatura máxima	18.6
132607	7	Sololá	701	Sololá	4	Finca Santa Victoria	9	Septiembre	2023-09-25T00:00:00	2024-11-08T09:00:00	3	Temperatura mínima	17.1
132608	7	Sololá	701	Sololá	4	Finca Santa Victoria	9	Septiembre	2023-09-25T00:00:00	2024-11-08T09:00:00	5	Humedad	62
132609	7	Sololá	701	Sololá	4	Finca Santa Victoria	9	Septiembre	2023-09-25T00:00:00	2024-11-08T09:00:00	6	Velocidad del viento	1.6
132610	7	Sololá	701	Sololá	4	Finca Santa Victoria	9	Septiembre	2023-09-25T00:00:00	2024-11-08T09:00:00	7	Dirección del viento	1.61
132611	7	Sololá	701	Sololá	4	Finca Santa Victoria	9	Septiembre	2023-09-25T00:00:00	2024-11-08T09:00:00	1	Precipitación	0
132612	7	Sololá	701	Sololá	4	Finca Santa Victoria	9	Septiembre	2023-09-25T00:00:00	2024-11-08T09:00:00	8	Radiación solar	462
132613	7	Sololá	701	Sololá	4	Finca Santa Victoria	9	Septiembre	2023-09-25T00:00:00	2024-11-08T10:00:00	2	Temperatura media	19.9
132614	7	Sololá	701	Sololá	4	Finca Santa Victoria	9	Septiembre	2023-09-25T00:00:00	2024-11-08T10:00:00	4	Temperatura máxima	20.2
132615	7	Sololá	701	Sololá	4	Finca Santa Victoria	9	Septiembre	2023-09-25T00:00:00	2024-11-08T10:00:00	3	Temperatura mínima	18.6
132616	7	Sololá	701	Sololá	4	Finca Santa Victoria	9	Septiembre	2023-09-25T00:00:00	2024-11-08T10:00:00	5	Humedad	63
132617	7	Sololá	701	Sololá	4	Finca Santa Victoria	9	Septiembre	2023-09-25T00:00:00	2024-11-08T10:00:00	6	Velocidad del viento	1.6
132618	7	Sololá	701	Sololá	4	Finca Santa Victoria	9	Septiembre	2023-09-25T00:00:00	2024-11-08T10:00:00	7	Dirección del viento	1.61
132619	7	Sololá	701	Sololá	4	Finca Santa Victoria	9	Septiembre	2023-09-25T00:00:00	2024-11-08T10:00:00	1	Precipitación	0
132620	7	Sololá	701	Sololá	4	Finca Santa Victoria	9	Septiembre	2023-09-25T00:00:00	2024-11-08T10:00:00	8	Radiación solar	777
132621	7	Sololá	701	Sololá	4	Finca Santa Victoria	9	Septiembre	2023-09-25T00:00:00	2024-11-08T11:00:00	2	Temperatura media	21.3
132622	7	Sololá	701	Sololá	4	Finca Santa Victoria	9	Septiembre	2023-09-25T00:00:00	2024-11-08T11:00:00	4	Temperatura máxima	21.4
132623	7	Sololá	701	Sololá	4	Finca Santa Victoria	9	Septiembre	2023-09-25T00:00:00	2024-11-08T11:00:00	3	Temperatura mínima	19.9
132624	7	Sololá	701	Sololá	4	Finca Santa Victoria	9	Septiembre	2023-09-25T00:00:00	2024-11-08T11:00:00	5	Humedad	54
132625	7	Sololá	701	Sololá	4	Finca Santa Victoria	9	Septiembre	2023-09-25T00:00:00	2024-11-08T11:00:00	6	Velocidad del viento	3.2
132626	7	Sololá	701	Sololá	4	Finca Santa Victoria	9	Septiembre	2023-09-25T00:00:00	2024-11-08T11:00:00	7	Dirección del viento	3.22
132627	7	Sololá	701	Sololá	4	Finca Santa Victoria	9	Septiembre	2023-09-25T00:00:00	2024-11-08T11:00:00	1	Precipitación	0
132628	7	Sololá	701	Sololá	4	Finca Santa Victoria	9	Septiembre	2023-09-25T00:00:00	2024-11-08T11:00:00	8	Radiación solar	971
132629	7	Sololá	701	Sololá	4	Finca Santa Victoria	9	Septiembre	2023-09-25T00:00:00	2024-11-08T12:00:00	2	Temperatura media	19.1
132630	7	Sololá	701	Sololá	4	Finca Santa Victoria	9	Septiembre	2023-09-25T00:00:00	2024-11-08T12:00:00	4	Temperatura máxima	21.4
132631	7	Sololá	701	Sololá	4	Finca Santa Victoria	9	Septiembre	2023-09-25T00:00:00	2024-11-08T12:00:00	3	Temperatura mínima	19.1
132632	7	Sololá	701	Sololá	4	Finca Santa Victoria	9	Septiembre	2023-09-25T00:00:00	2024-11-08T12:00:00	5	Humedad	65
132633	7	Sololá	701	Sololá	4	Finca Santa Victoria	9	Septiembre	2023-09-25T00:00:00	2024-11-08T12:00:00	6	Velocidad del viento	3.2
132634	7	Sololá	701	Sololá	4	Finca Santa Victoria	9	Septiembre	2023-09-25T00:00:00	2024-11-08T12:00:00	7	Dirección del viento	3.22
132635	7	Sololá	701	Sololá	4	Finca Santa Victoria	9	Septiembre	2023-09-25T00:00:00	2024-11-08T12:00:00	1	Precipitación	0
132636	7	Sololá	701	Sololá	4	Finca Santa Victoria	9	Septiembre	2023-09-25T00:00:00	2024-11-08T12:00:00	8	Radiación solar	583
132637	7	Sololá	701	Sololá	4	Finca Santa Victoria	9	Septiembre	2023-09-25T00:00:00	2024-11-08T13:00:00	2	Temperatura media	19.1
132638	7	Sololá	701	Sololá	4	Finca Santa Victoria	9	Septiembre	2023-09-25T00:00:00	2024-11-08T13:00:00	4	Temperatura máxima	19.2
132639	7	Sololá	701	Sololá	4	Finca Santa Victoria	9	Septiembre	2023-09-25T00:00:00	2024-11-08T13:00:00	3	Temperatura mínima	18.1
132640	7	Sololá	701	Sololá	4	Finca Santa Victoria	9	Septiembre	2023-09-25T00:00:00	2024-11-08T13:00:00	5	Humedad	70
132641	7	Sololá	701	Sololá	4	Finca Santa Victoria	9	Septiembre	2023-09-25T00:00:00	2024-11-08T13:00:00	6	Velocidad del viento	1.6
132642	7	Sololá	701	Sololá	4	Finca Santa Victoria	9	Septiembre	2023-09-25T00:00:00	2024-11-08T13:00:00	7	Dirección del viento	1.61
132643	7	Sololá	701	Sololá	4	Finca Santa Victoria	9	Septiembre	2023-09-25T00:00:00	2024-11-08T13:00:00	1	Precipitación	0
132644	7	Sololá	701	Sololá	4	Finca Santa Victoria	9	Septiembre	2023-09-25T00:00:00	2024-11-08T13:00:00	8	Radiación solar	233
132645	7	Sololá	701	Sololá	4	Finca Santa Victoria	9	Septiembre	2023-09-25T00:00:00	2024-11-08T14:00:00	2	Temperatura media	19.8
132646	7	Sololá	701	Sololá	4	Finca Santa Victoria	9	Septiembre	2023-09-25T00:00:00	2024-11-08T14:00:00	4	Temperatura máxima	20.4
132647	7	Sololá	701	Sololá	4	Finca Santa Victoria	9	Septiembre	2023-09-25T00:00:00	2024-11-08T14:00:00	3	Temperatura mínima	19.1
132648	7	Sololá	701	Sololá	4	Finca Santa Victoria	9	Septiembre	2023-09-25T00:00:00	2024-11-08T14:00:00	5	Humedad	66
132649	7	Sololá	701	Sololá	4	Finca Santa Victoria	9	Septiembre	2023-09-25T00:00:00	2024-11-08T14:00:00	6	Velocidad del viento	1.6
132650	7	Sololá	701	Sololá	4	Finca Santa Victoria	9	Septiembre	2023-09-25T00:00:00	2024-11-08T14:00:00	7	Dirección del viento	1.61
132651	7	Sololá	701	Sololá	4	Finca Santa Victoria	9	Septiembre	2023-09-25T00:00:00	2024-11-08T14:00:00	1	Precipitación	0
132652	7	Sololá	701	Sololá	4	Finca Santa Victoria	9	Septiembre	2023-09-25T00:00:00	2024-11-08T14:00:00	8	Radiación solar	222
132653	7	Sololá	701	Sololá	4	Finca Santa Victoria	9	Septiembre	2023-09-25T00:00:00	2024-11-08T15:00:00	2	Temperatura media	18.4
132654	7	Sololá	701	Sololá	4	Finca Santa Victoria	9	Septiembre	2023-09-25T00:00:00	2024-11-08T15:00:00	4	Temperatura máxima	19.9
132655	7	Sololá	701	Sololá	4	Finca Santa Victoria	9	Septiembre	2023-09-25T00:00:00	2024-11-08T15:00:00	3	Temperatura mínima	18.4
132656	7	Sololá	701	Sololá	4	Finca Santa Victoria	9	Septiembre	2023-09-25T00:00:00	2024-11-08T15:00:00	5	Humedad	67
132657	7	Sololá	701	Sololá	4	Finca Santa Victoria	9	Septiembre	2023-09-25T00:00:00	2024-11-08T15:00:00	6	Velocidad del viento	1.6
132658	7	Sololá	701	Sololá	4	Finca Santa Victoria	9	Septiembre	2023-09-25T00:00:00	2024-11-08T15:00:00	7	Dirección del viento	1.61
132659	7	Sololá	701	Sololá	4	Finca Santa Victoria	9	Septiembre	2023-09-25T00:00:00	2024-11-08T15:00:00	1	Precipitación	0
132660	7	Sololá	701	Sololá	4	Finca Santa Victoria	9	Septiembre	2023-09-25T00:00:00	2024-11-08T15:00:00	8	Radiación solar	177
132661	7	Sololá	701	Sololá	4	Finca Santa Victoria	9	Septiembre	2023-09-25T00:00:00	2024-11-08T16:00:00	2	Temperatura media	16.7
132662	7	Sololá	701	Sololá	4	Finca Santa Victoria	9	Septiembre	2023-09-25T00:00:00	2024-11-08T16:00:00	4	Temperatura máxima	18.4
132663	7	Sololá	701	Sololá	4	Finca Santa Victoria	9	Septiembre	2023-09-25T00:00:00	2024-11-08T16:00:00	3	Temperatura mínima	16.7
132664	7	Sololá	701	Sololá	4	Finca Santa Victoria	9	Septiembre	2023-09-25T00:00:00	2024-11-08T16:00:00	5	Humedad	76
132665	7	Sololá	701	Sololá	4	Finca Santa Victoria	9	Septiembre	2023-09-25T00:00:00	2024-11-08T16:00:00	6	Velocidad del viento	1.6
132666	7	Sololá	701	Sololá	4	Finca Santa Victoria	9	Septiembre	2023-09-25T00:00:00	2024-11-08T16:00:00	7	Dirección del viento	1.61
132667	7	Sololá	701	Sololá	4	Finca Santa Victoria	9	Septiembre	2023-09-25T00:00:00	2024-11-08T16:00:00	1	Precipitación	0
132668	7	Sololá	701	Sololá	4	Finca Santa Victoria	9	Septiembre	2023-09-25T00:00:00	2024-11-08T16:00:00	8	Radiación solar	56
132669	7	Sololá	701	Sololá	4	Finca Santa Victoria	9	Septiembre	2023-09-25T00:00:00	2024-11-08T17:00:00	2	Temperatura media	15.5
132670	7	Sololá	701	Sololá	4	Finca Santa Victoria	9	Septiembre	2023-09-25T00:00:00	2024-11-08T17:00:00	4	Temperatura máxima	16.7
132671	7	Sololá	701	Sololá	4	Finca Santa Victoria	9	Septiembre	2023-09-25T00:00:00	2024-11-08T17:00:00	3	Temperatura mínima	15.5
132672	7	Sololá	701	Sololá	4	Finca Santa Victoria	9	Septiembre	2023-09-25T00:00:00	2024-11-08T17:00:00	5	Humedad	82
132673	7	Sololá	701	Sololá	4	Finca Santa Victoria	9	Septiembre	2023-09-25T00:00:00	2024-11-08T17:00:00	6	Velocidad del viento	1.6
132674	7	Sololá	701	Sololá	4	Finca Santa Victoria	9	Septiembre	2023-09-25T00:00:00	2024-11-08T17:00:00	7	Dirección del viento	1.61
132675	7	Sololá	701	Sololá	4	Finca Santa Victoria	9	Septiembre	2023-09-25T00:00:00	2024-11-08T17:00:00	1	Precipitación	0
132676	7	Sololá	701	Sololá	4	Finca Santa Victoria	9	Septiembre	2023-09-25T00:00:00	2024-11-08T17:00:00	8	Radiación solar	35
132677	7	Sololá	701	Sololá	4	Finca Santa Victoria	9	Septiembre	2023-09-25T00:00:00	2024-11-08T18:00:00	2	Temperatura media	14.7
132678	7	Sololá	701	Sololá	4	Finca Santa Victoria	9	Septiembre	2023-09-25T00:00:00	2024-11-08T18:00:00	4	Temperatura máxima	15.5
132679	7	Sololá	701	Sololá	4	Finca Santa Victoria	9	Septiembre	2023-09-25T00:00:00	2024-11-08T18:00:00	3	Temperatura mínima	14.7
132680	7	Sololá	701	Sololá	4	Finca Santa Victoria	9	Septiembre	2023-09-25T00:00:00	2024-11-08T18:00:00	5	Humedad	86
132681	7	Sololá	701	Sololá	4	Finca Santa Victoria	9	Septiembre	2023-09-25T00:00:00	2024-11-08T18:00:00	6	Velocidad del viento	1.6
132682	7	Sololá	701	Sololá	4	Finca Santa Victoria	9	Septiembre	2023-09-25T00:00:00	2024-11-08T18:00:00	7	Dirección del viento	1.61
132683	7	Sololá	701	Sololá	4	Finca Santa Victoria	9	Septiembre	2023-09-25T00:00:00	2024-11-08T18:00:00	1	Precipitación	0
132684	7	Sololá	701	Sololá	4	Finca Santa Victoria	9	Septiembre	2023-09-25T00:00:00	2024-11-08T18:00:00	8	Radiación solar	20
132685	7	Sololá	701	Sololá	4	Finca Santa Victoria	9	Septiembre	2023-09-25T00:00:00	2024-11-08T19:00:00	2	Temperatura media	14.3
132686	7	Sololá	701	Sololá	4	Finca Santa Victoria	9	Septiembre	2023-09-25T00:00:00	2024-11-08T19:00:00	4	Temperatura máxima	14.7
132687	7	Sololá	701	Sololá	4	Finca Santa Victoria	9	Septiembre	2023-09-25T00:00:00	2024-11-08T19:00:00	3	Temperatura mínima	14.1
132688	7	Sololá	701	Sololá	4	Finca Santa Victoria	9	Septiembre	2023-09-25T00:00:00	2024-11-08T19:00:00	5	Humedad	87
132689	7	Sololá	701	Sololá	4	Finca Santa Victoria	9	Septiembre	2023-09-25T00:00:00	2024-11-08T19:00:00	6	Velocidad del viento	1.6
132690	7	Sololá	701	Sololá	4	Finca Santa Victoria	9	Septiembre	2023-09-25T00:00:00	2024-11-08T19:00:00	7	Dirección del viento	1.61
132691	7	Sololá	701	Sololá	4	Finca Santa Victoria	9	Septiembre	2023-09-25T00:00:00	2024-11-08T19:00:00	1	Precipitación	0
132692	7	Sololá	701	Sololá	4	Finca Santa Victoria	9	Septiembre	2023-09-25T00:00:00	2024-11-08T19:00:00	8	Radiación solar	0
132693	7	Sololá	701	Sololá	4	Finca Santa Victoria	9	Septiembre	2023-09-25T00:00:00	2024-11-08T20:00:00	2	Temperatura media	14.2
132694	7	Sololá	701	Sololá	4	Finca Santa Victoria	9	Septiembre	2023-09-25T00:00:00	2024-11-08T20:00:00	4	Temperatura máxima	14.5
132695	7	Sololá	701	Sololá	4	Finca Santa Victoria	9	Septiembre	2023-09-25T00:00:00	2024-11-08T20:00:00	3	Temperatura mínima	14.2
132696	7	Sololá	701	Sololá	4	Finca Santa Victoria	9	Septiembre	2023-09-25T00:00:00	2024-11-08T20:00:00	5	Humedad	87
132697	7	Sololá	701	Sololá	4	Finca Santa Victoria	9	Septiembre	2023-09-25T00:00:00	2024-11-08T20:00:00	6	Velocidad del viento	0
132698	7	Sololá	701	Sololá	4	Finca Santa Victoria	9	Septiembre	2023-09-25T00:00:00	2024-11-08T20:00:00	7	Dirección del viento	0
132699	7	Sololá	701	Sololá	4	Finca Santa Victoria	9	Septiembre	2023-09-25T00:00:00	2024-11-08T20:00:00	1	Precipitación	0
132700	7	Sololá	701	Sololá	4	Finca Santa Victoria	9	Septiembre	2023-09-25T00:00:00	2024-11-08T20:00:00	8	Radiación solar	0
132701	7	Sololá	701	Sololá	4	Finca Santa Victoria	9	Septiembre	2023-09-25T00:00:00	2024-11-08T21:00:00	2	Temperatura media	13.5
132702	7	Sololá	701	Sololá	4	Finca Santa Victoria	9	Septiembre	2023-09-25T00:00:00	2024-11-08T21:00:00	4	Temperatura máxima	14.2
132703	7	Sololá	701	Sololá	4	Finca Santa Victoria	9	Septiembre	2023-09-25T00:00:00	2024-11-08T21:00:00	3	Temperatura mínima	13.5
132704	7	Sololá	701	Sololá	4	Finca Santa Victoria	9	Septiembre	2023-09-25T00:00:00	2024-11-08T21:00:00	5	Humedad	87
132705	7	Sololá	701	Sololá	4	Finca Santa Victoria	9	Septiembre	2023-09-25T00:00:00	2024-11-08T21:00:00	6	Velocidad del viento	1.6
132706	7	Sololá	701	Sololá	4	Finca Santa Victoria	9	Septiembre	2023-09-25T00:00:00	2024-11-08T21:00:00	7	Dirección del viento	1.61
132707	7	Sololá	701	Sololá	4	Finca Santa Victoria	9	Septiembre	2023-09-25T00:00:00	2024-11-08T21:00:00	1	Precipitación	0
132708	7	Sololá	701	Sololá	4	Finca Santa Victoria	9	Septiembre	2023-09-25T00:00:00	2024-11-08T21:00:00	8	Radiación solar	0
132709	7	Sololá	701	Sololá	4	Finca Santa Victoria	9	Septiembre	2023-09-25T00:00:00	2024-11-08T22:00:00	2	Temperatura media	13.8
132710	7	Sololá	701	Sololá	4	Finca Santa Victoria	9	Septiembre	2023-09-25T00:00:00	2024-11-08T22:00:00	4	Temperatura máxima	13.8
132711	7	Sololá	701	Sololá	4	Finca Santa Victoria	9	Septiembre	2023-09-25T00:00:00	2024-11-08T22:00:00	3	Temperatura mínima	13.4
132712	7	Sololá	701	Sololá	4	Finca Santa Victoria	9	Septiembre	2023-09-25T00:00:00	2024-11-08T22:00:00	5	Humedad	87
132713	7	Sololá	701	Sololá	4	Finca Santa Victoria	9	Septiembre	2023-09-25T00:00:00	2024-11-08T22:00:00	6	Velocidad del viento	0
132714	7	Sololá	701	Sololá	4	Finca Santa Victoria	9	Septiembre	2023-09-25T00:00:00	2024-11-08T22:00:00	7	Dirección del viento	0
132715	7	Sololá	701	Sololá	4	Finca Santa Victoria	9	Septiembre	2023-09-25T00:00:00	2024-11-08T22:00:00	1	Precipitación	0
132716	7	Sololá	701	Sololá	4	Finca Santa Victoria	9	Septiembre	2023-09-25T00:00:00	2024-11-08T22:00:00	8	Radiación solar	0
132717	7	Sololá	701	Sololá	4	Finca Santa Victoria	9	Septiembre	2023-09-25T00:00:00	2024-11-08T23:00:00	2	Temperatura media	13.9
132718	7	Sololá	701	Sololá	4	Finca Santa Victoria	9	Septiembre	2023-09-25T00:00:00	2024-11-08T23:00:00	4	Temperatura máxima	13.9
132719	7	Sololá	701	Sololá	4	Finca Santa Victoria	9	Septiembre	2023-09-25T00:00:00	2024-11-08T23:00:00	3	Temperatura mínima	13.8
132720	7	Sololá	701	Sololá	4	Finca Santa Victoria	9	Septiembre	2023-09-25T00:00:00	2024-11-08T23:00:00	5	Humedad	86
132721	7	Sololá	701	Sololá	4	Finca Santa Victoria	9	Septiembre	2023-09-25T00:00:00	2024-11-08T23:00:00	6	Velocidad del viento	1.6
132722	7	Sololá	701	Sololá	4	Finca Santa Victoria	9	Septiembre	2023-09-25T00:00:00	2024-11-08T23:00:00	7	Dirección del viento	1.61
132723	7	Sololá	701	Sololá	4	Finca Santa Victoria	9	Septiembre	2023-09-25T00:00:00	2024-11-08T23:00:00	1	Precipitación	0
132724	7	Sololá	701	Sololá	4	Finca Santa Victoria	9	Septiembre	2023-09-25T00:00:00	2024-11-08T23:00:00	8	Radiación solar	0
132725	7	Sololá	701	Sololá	4	Finca Santa Victoria	9	Septiembre	2023-09-26T00:00:00	2024-11-08T00:00:00	2	Temperatura media	13.8
132726	7	Sololá	701	Sololá	4	Finca Santa Victoria	9	Septiembre	2023-09-26T00:00:00	2024-11-08T00:00:00	4	Temperatura máxima	14.1
132727	7	Sololá	701	Sololá	4	Finca Santa Victoria	9	Septiembre	2023-09-26T00:00:00	2024-11-08T00:00:00	3	Temperatura mínima	13.8
132728	7	Sololá	701	Sololá	4	Finca Santa Victoria	9	Septiembre	2023-09-26T00:00:00	2024-11-08T00:00:00	5	Humedad	87
132729	7	Sololá	701	Sololá	4	Finca Santa Victoria	9	Septiembre	2023-09-26T00:00:00	2024-11-08T00:00:00	6	Velocidad del viento	1.6
132730	7	Sololá	701	Sololá	4	Finca Santa Victoria	9	Septiembre	2023-09-26T00:00:00	2024-11-08T00:00:00	7	Dirección del viento	1.61
132731	7	Sololá	701	Sololá	4	Finca Santa Victoria	9	Septiembre	2023-09-26T00:00:00	2024-11-08T00:00:00	1	Precipitación	0
132732	7	Sololá	701	Sololá	4	Finca Santa Victoria	9	Septiembre	2023-09-26T00:00:00	2024-11-08T00:00:00	8	Radiación solar	0
132733	7	Sololá	701	Sololá	4	Finca Santa Victoria	9	Septiembre	2023-09-26T00:00:00	2024-11-08T01:00:00	2	Temperatura media	13.3
132734	7	Sololá	701	Sololá	4	Finca Santa Victoria	9	Septiembre	2023-09-26T00:00:00	2024-11-08T01:00:00	4	Temperatura máxima	13.8
132735	7	Sololá	701	Sololá	4	Finca Santa Victoria	9	Septiembre	2023-09-26T00:00:00	2024-11-08T01:00:00	3	Temperatura mínima	13.3
132736	7	Sololá	701	Sololá	4	Finca Santa Victoria	9	Septiembre	2023-09-26T00:00:00	2024-11-08T01:00:00	5	Humedad	89
132737	7	Sololá	701	Sololá	4	Finca Santa Victoria	9	Septiembre	2023-09-26T00:00:00	2024-11-08T01:00:00	6	Velocidad del viento	1.6
132738	7	Sololá	701	Sololá	4	Finca Santa Victoria	9	Septiembre	2023-09-26T00:00:00	2024-11-08T01:00:00	7	Dirección del viento	1.61
132739	7	Sololá	701	Sololá	4	Finca Santa Victoria	9	Septiembre	2023-09-26T00:00:00	2024-11-08T01:00:00	1	Precipitación	0
132740	7	Sololá	701	Sololá	4	Finca Santa Victoria	9	Septiembre	2023-09-26T00:00:00	2024-11-08T01:00:00	8	Radiación solar	0
132741	7	Sololá	701	Sololá	4	Finca Santa Victoria	9	Septiembre	2023-09-26T00:00:00	2024-11-08T02:00:00	2	Temperatura media	13.2
132742	7	Sololá	701	Sololá	4	Finca Santa Victoria	9	Septiembre	2023-09-26T00:00:00	2024-11-08T02:00:00	4	Temperatura máxima	13.3
132743	7	Sololá	701	Sololá	4	Finca Santa Victoria	9	Septiembre	2023-09-26T00:00:00	2024-11-08T02:00:00	3	Temperatura mínima	13.2
132744	7	Sololá	701	Sololá	4	Finca Santa Victoria	9	Septiembre	2023-09-26T00:00:00	2024-11-08T02:00:00	5	Humedad	85
132745	7	Sololá	701	Sololá	4	Finca Santa Victoria	9	Septiembre	2023-09-26T00:00:00	2024-11-08T02:00:00	6	Velocidad del viento	1.6
132746	7	Sololá	701	Sololá	4	Finca Santa Victoria	9	Septiembre	2023-09-26T00:00:00	2024-11-08T02:00:00	7	Dirección del viento	1.61
132747	7	Sololá	701	Sololá	4	Finca Santa Victoria	9	Septiembre	2023-09-26T00:00:00	2024-11-08T02:00:00	1	Precipitación	0
132748	7	Sololá	701	Sololá	4	Finca Santa Victoria	9	Septiembre	2023-09-26T00:00:00	2024-11-08T02:00:00	8	Radiación solar	0
132749	7	Sololá	701	Sololá	4	Finca Santa Victoria	9	Septiembre	2023-09-26T00:00:00	2024-11-08T03:00:00	2	Temperatura media	12.9
132750	7	Sololá	701	Sololá	4	Finca Santa Victoria	9	Septiembre	2023-09-26T00:00:00	2024-11-08T03:00:00	4	Temperatura máxima	13.2
132751	7	Sololá	701	Sololá	4	Finca Santa Victoria	9	Septiembre	2023-09-26T00:00:00	2024-11-08T03:00:00	3	Temperatura mínima	12.9
132752	7	Sololá	701	Sololá	4	Finca Santa Victoria	9	Septiembre	2023-09-26T00:00:00	2024-11-08T03:00:00	5	Humedad	90
132753	7	Sololá	701	Sololá	4	Finca Santa Victoria	9	Septiembre	2023-09-26T00:00:00	2024-11-08T03:00:00	6	Velocidad del viento	1.6
132754	7	Sololá	701	Sololá	4	Finca Santa Victoria	9	Septiembre	2023-09-26T00:00:00	2024-11-08T03:00:00	7	Dirección del viento	1.61
132755	7	Sololá	701	Sololá	4	Finca Santa Victoria	9	Septiembre	2023-09-26T00:00:00	2024-11-08T03:00:00	1	Precipitación	0
132756	7	Sololá	701	Sololá	4	Finca Santa Victoria	9	Septiembre	2023-09-26T00:00:00	2024-11-08T03:00:00	8	Radiación solar	0
132757	7	Sololá	701	Sololá	4	Finca Santa Victoria	9	Septiembre	2023-09-26T00:00:00	2024-11-08T04:00:00	2	Temperatura media	12.7
132758	7	Sololá	701	Sololá	4	Finca Santa Victoria	9	Septiembre	2023-09-26T00:00:00	2024-11-08T04:00:00	4	Temperatura máxima	13
132759	7	Sololá	701	Sololá	4	Finca Santa Victoria	9	Septiembre	2023-09-26T00:00:00	2024-11-08T04:00:00	3	Temperatura mínima	12.7
132760	7	Sololá	701	Sololá	4	Finca Santa Victoria	9	Septiembre	2023-09-26T00:00:00	2024-11-08T04:00:00	5	Humedad	88
132761	7	Sololá	701	Sololá	4	Finca Santa Victoria	9	Septiembre	2023-09-26T00:00:00	2024-11-08T04:00:00	6	Velocidad del viento	1.6
132762	7	Sololá	701	Sololá	4	Finca Santa Victoria	9	Septiembre	2023-09-26T00:00:00	2024-11-08T04:00:00	7	Dirección del viento	1.61
132763	7	Sololá	701	Sololá	4	Finca Santa Victoria	9	Septiembre	2023-09-26T00:00:00	2024-11-08T04:00:00	1	Precipitación	0
132764	7	Sololá	701	Sololá	4	Finca Santa Victoria	9	Septiembre	2023-09-26T00:00:00	2024-11-08T04:00:00	8	Radiación solar	0
132765	7	Sololá	701	Sololá	4	Finca Santa Victoria	9	Septiembre	2023-09-26T00:00:00	2024-11-08T05:00:00	2	Temperatura media	12.8
132766	7	Sololá	701	Sololá	4	Finca Santa Victoria	9	Septiembre	2023-09-26T00:00:00	2024-11-08T05:00:00	4	Temperatura máxima	12.9
132767	7	Sololá	701	Sololá	4	Finca Santa Victoria	9	Septiembre	2023-09-26T00:00:00	2024-11-08T05:00:00	3	Temperatura mínima	12.7
132768	7	Sololá	701	Sololá	4	Finca Santa Victoria	9	Septiembre	2023-09-26T00:00:00	2024-11-08T05:00:00	5	Humedad	88
132769	7	Sololá	701	Sololá	4	Finca Santa Victoria	9	Septiembre	2023-09-26T00:00:00	2024-11-08T05:00:00	6	Velocidad del viento	1.6
132770	7	Sololá	701	Sololá	4	Finca Santa Victoria	9	Septiembre	2023-09-26T00:00:00	2024-11-08T05:00:00	7	Dirección del viento	1.61
132771	7	Sololá	701	Sololá	4	Finca Santa Victoria	9	Septiembre	2023-09-26T00:00:00	2024-11-08T05:00:00	1	Precipitación	0
132772	7	Sololá	701	Sololá	4	Finca Santa Victoria	9	Septiembre	2023-09-26T00:00:00	2024-11-08T05:00:00	8	Radiación solar	0
132773	7	Sololá	701	Sololá	4	Finca Santa Victoria	9	Septiembre	2023-09-26T00:00:00	2024-11-08T06:00:00	2	Temperatura media	12.8
132774	7	Sololá	701	Sololá	4	Finca Santa Victoria	9	Septiembre	2023-09-26T00:00:00	2024-11-08T06:00:00	4	Temperatura máxima	13
132775	7	Sololá	701	Sololá	4	Finca Santa Victoria	9	Septiembre	2023-09-26T00:00:00	2024-11-08T06:00:00	3	Temperatura mínima	12.8
132776	7	Sololá	701	Sololá	4	Finca Santa Victoria	9	Septiembre	2023-09-26T00:00:00	2024-11-08T06:00:00	5	Humedad	84
132777	7	Sololá	701	Sololá	4	Finca Santa Victoria	9	Septiembre	2023-09-26T00:00:00	2024-11-08T06:00:00	6	Velocidad del viento	1.6
132778	7	Sololá	701	Sololá	4	Finca Santa Victoria	9	Septiembre	2023-09-26T00:00:00	2024-11-08T06:00:00	7	Dirección del viento	1.61
132779	7	Sololá	701	Sololá	4	Finca Santa Victoria	9	Septiembre	2023-09-26T00:00:00	2024-11-08T06:00:00	1	Precipitación	0
132780	7	Sololá	701	Sololá	4	Finca Santa Victoria	9	Septiembre	2023-09-26T00:00:00	2024-11-08T06:00:00	8	Radiación solar	0
132781	7	Sololá	701	Sololá	4	Finca Santa Victoria	9	Septiembre	2023-09-26T00:00:00	2024-11-08T07:00:00	2	Temperatura media	12.7
132782	7	Sololá	701	Sololá	4	Finca Santa Victoria	9	Septiembre	2023-09-26T00:00:00	2024-11-08T07:00:00	4	Temperatura máxima	12.8
132783	7	Sololá	701	Sololá	4	Finca Santa Victoria	9	Septiembre	2023-09-26T00:00:00	2024-11-08T07:00:00	3	Temperatura mínima	12.4
132784	7	Sololá	701	Sololá	4	Finca Santa Victoria	9	Septiembre	2023-09-26T00:00:00	2024-11-08T07:00:00	5	Humedad	83
132785	7	Sololá	701	Sololá	4	Finca Santa Victoria	9	Septiembre	2023-09-26T00:00:00	2024-11-08T07:00:00	6	Velocidad del viento	1.6
132786	7	Sololá	701	Sololá	4	Finca Santa Victoria	9	Septiembre	2023-09-26T00:00:00	2024-11-08T07:00:00	7	Dirección del viento	1.61
132787	7	Sololá	701	Sololá	4	Finca Santa Victoria	9	Septiembre	2023-09-26T00:00:00	2024-11-08T07:00:00	1	Precipitación	0
132788	7	Sololá	701	Sololá	4	Finca Santa Victoria	9	Septiembre	2023-09-26T00:00:00	2024-11-08T07:00:00	8	Radiación solar	23
132789	7	Sololá	701	Sololá	4	Finca Santa Victoria	9	Septiembre	2023-09-26T00:00:00	2024-11-08T08:00:00	2	Temperatura media	16.3
132790	7	Sololá	701	Sololá	4	Finca Santa Victoria	9	Septiembre	2023-09-26T00:00:00	2024-11-08T08:00:00	4	Temperatura máxima	16.3
132791	7	Sololá	701	Sololá	4	Finca Santa Victoria	9	Septiembre	2023-09-26T00:00:00	2024-11-08T08:00:00	3	Temperatura mínima	12.8
132792	7	Sololá	701	Sololá	4	Finca Santa Victoria	9	Septiembre	2023-09-26T00:00:00	2024-11-08T08:00:00	5	Humedad	73
132793	7	Sololá	701	Sololá	4	Finca Santa Victoria	9	Septiembre	2023-09-26T00:00:00	2024-11-08T08:00:00	6	Velocidad del viento	1.6
132794	7	Sololá	701	Sololá	4	Finca Santa Victoria	9	Septiembre	2023-09-26T00:00:00	2024-11-08T08:00:00	7	Dirección del viento	1.61
132795	7	Sololá	701	Sololá	4	Finca Santa Victoria	9	Septiembre	2023-09-26T00:00:00	2024-11-08T08:00:00	1	Precipitación	0
132796	7	Sololá	701	Sololá	4	Finca Santa Victoria	9	Septiembre	2023-09-26T00:00:00	2024-11-08T08:00:00	8	Radiación solar	293
132797	7	Sololá	701	Sololá	4	Finca Santa Victoria	9	Septiembre	2023-09-26T00:00:00	2024-11-08T09:00:00	2	Temperatura media	18.3
132798	7	Sololá	701	Sololá	4	Finca Santa Victoria	9	Septiembre	2023-09-26T00:00:00	2024-11-08T09:00:00	4	Temperatura máxima	18.3
132799	7	Sololá	701	Sololá	4	Finca Santa Victoria	9	Septiembre	2023-09-26T00:00:00	2024-11-08T09:00:00	3	Temperatura mínima	16.3
132800	7	Sololá	701	Sololá	4	Finca Santa Victoria	9	Septiembre	2023-09-26T00:00:00	2024-11-08T09:00:00	5	Humedad	70
132801	7	Sololá	701	Sololá	4	Finca Santa Victoria	9	Septiembre	2023-09-26T00:00:00	2024-11-08T09:00:00	6	Velocidad del viento	3.2
132802	7	Sololá	701	Sololá	4	Finca Santa Victoria	9	Septiembre	2023-09-26T00:00:00	2024-11-08T09:00:00	7	Dirección del viento	3.22
132803	7	Sololá	701	Sololá	4	Finca Santa Victoria	9	Septiembre	2023-09-26T00:00:00	2024-11-08T09:00:00	1	Precipitación	0
132804	7	Sololá	701	Sololá	4	Finca Santa Victoria	9	Septiembre	2023-09-26T00:00:00	2024-11-08T09:00:00	8	Radiación solar	613
132805	7	Sololá	701	Sololá	4	Finca Santa Victoria	9	Septiembre	2023-09-26T00:00:00	2024-11-08T10:00:00	2	Temperatura media	19.8
132806	7	Sololá	701	Sololá	4	Finca Santa Victoria	9	Septiembre	2023-09-26T00:00:00	2024-11-08T10:00:00	4	Temperatura máxima	20.2
132807	7	Sololá	701	Sololá	4	Finca Santa Victoria	9	Septiembre	2023-09-26T00:00:00	2024-11-08T10:00:00	3	Temperatura mínima	18.2
132808	7	Sololá	701	Sololá	4	Finca Santa Victoria	9	Septiembre	2023-09-26T00:00:00	2024-11-08T10:00:00	5	Humedad	66
132809	7	Sololá	701	Sololá	4	Finca Santa Victoria	9	Septiembre	2023-09-26T00:00:00	2024-11-08T10:00:00	6	Velocidad del viento	1.6
132810	7	Sololá	701	Sololá	4	Finca Santa Victoria	9	Septiembre	2023-09-26T00:00:00	2024-11-08T10:00:00	7	Dirección del viento	1.61
132811	7	Sololá	701	Sololá	4	Finca Santa Victoria	9	Septiembre	2023-09-26T00:00:00	2024-11-08T10:00:00	1	Precipitación	0
132812	7	Sololá	701	Sololá	4	Finca Santa Victoria	9	Septiembre	2023-09-26T00:00:00	2024-11-08T10:00:00	8	Radiación solar	776
132813	7	Sololá	701	Sololá	4	Finca Santa Victoria	9	Septiembre	2023-09-26T00:00:00	2024-11-08T11:00:00	2	Temperatura media	18.5
132814	7	Sololá	701	Sololá	4	Finca Santa Victoria	9	Septiembre	2023-09-26T00:00:00	2024-11-08T11:00:00	4	Temperatura máxima	19.8
132815	7	Sololá	701	Sololá	4	Finca Santa Victoria	9	Septiembre	2023-09-26T00:00:00	2024-11-08T11:00:00	3	Temperatura mínima	18.5
132816	7	Sololá	701	Sololá	4	Finca Santa Victoria	9	Septiembre	2023-09-26T00:00:00	2024-11-08T11:00:00	5	Humedad	71
132817	7	Sololá	701	Sololá	4	Finca Santa Victoria	9	Septiembre	2023-09-26T00:00:00	2024-11-08T11:00:00	6	Velocidad del viento	0
132818	7	Sololá	701	Sololá	4	Finca Santa Victoria	9	Septiembre	2023-09-26T00:00:00	2024-11-08T11:00:00	7	Dirección del viento	0
132819	7	Sololá	701	Sololá	4	Finca Santa Victoria	9	Septiembre	2023-09-26T00:00:00	2024-11-08T11:00:00	1	Precipitación	0
132820	7	Sololá	701	Sololá	4	Finca Santa Victoria	9	Septiembre	2023-09-26T00:00:00	2024-11-08T11:00:00	8	Radiación solar	241
132821	7	Sololá	701	Sololá	4	Finca Santa Victoria	9	Septiembre	2023-09-26T00:00:00	2024-11-08T12:00:00	2	Temperatura media	17.8
132822	7	Sololá	701	Sololá	4	Finca Santa Victoria	9	Septiembre	2023-09-26T00:00:00	2024-11-08T12:00:00	4	Temperatura máxima	18.5
132823	7	Sololá	701	Sololá	4	Finca Santa Victoria	9	Septiembre	2023-09-26T00:00:00	2024-11-08T12:00:00	3	Temperatura mínima	17.6
132824	7	Sololá	701	Sololá	4	Finca Santa Victoria	9	Septiembre	2023-09-26T00:00:00	2024-11-08T12:00:00	5	Humedad	74
132825	7	Sololá	701	Sololá	4	Finca Santa Victoria	9	Septiembre	2023-09-26T00:00:00	2024-11-08T12:00:00	6	Velocidad del viento	1.6
132826	7	Sololá	701	Sololá	4	Finca Santa Victoria	9	Septiembre	2023-09-26T00:00:00	2024-11-08T12:00:00	7	Dirección del viento	1.61
132827	7	Sololá	701	Sololá	4	Finca Santa Victoria	9	Septiembre	2023-09-26T00:00:00	2024-11-08T12:00:00	1	Precipitación	0
132828	7	Sololá	701	Sololá	4	Finca Santa Victoria	9	Septiembre	2023-09-26T00:00:00	2024-11-08T12:00:00	8	Radiación solar	164
132829	7	Sololá	701	Sololá	4	Finca Santa Victoria	9	Septiembre	2023-09-26T00:00:00	2024-11-08T13:00:00	2	Temperatura media	19.6
132830	7	Sololá	701	Sololá	4	Finca Santa Victoria	9	Septiembre	2023-09-26T00:00:00	2024-11-08T13:00:00	4	Temperatura máxima	19.6
132831	7	Sololá	701	Sololá	4	Finca Santa Victoria	9	Septiembre	2023-09-26T00:00:00	2024-11-08T13:00:00	3	Temperatura mínima	17.7
132832	7	Sololá	701	Sololá	4	Finca Santa Victoria	9	Septiembre	2023-09-26T00:00:00	2024-11-08T13:00:00	5	Humedad	69
132833	7	Sololá	701	Sololá	4	Finca Santa Victoria	9	Septiembre	2023-09-26T00:00:00	2024-11-08T13:00:00	6	Velocidad del viento	0
132834	7	Sololá	701	Sololá	4	Finca Santa Victoria	9	Septiembre	2023-09-26T00:00:00	2024-11-08T13:00:00	7	Dirección del viento	0
132835	7	Sololá	701	Sololá	4	Finca Santa Victoria	9	Septiembre	2023-09-26T00:00:00	2024-11-08T13:00:00	1	Precipitación	0
132836	7	Sololá	701	Sololá	4	Finca Santa Victoria	9	Septiembre	2023-09-26T00:00:00	2024-11-08T13:00:00	8	Radiación solar	170
132837	7	Sololá	701	Sololá	4	Finca Santa Victoria	9	Septiembre	2023-09-26T00:00:00	2024-11-08T14:00:00	2	Temperatura media	17.9
132838	7	Sololá	701	Sololá	4	Finca Santa Victoria	9	Septiembre	2023-09-26T00:00:00	2024-11-08T14:00:00	4	Temperatura máxima	19.7
132839	7	Sololá	701	Sololá	4	Finca Santa Victoria	9	Septiembre	2023-09-26T00:00:00	2024-11-08T14:00:00	3	Temperatura mínima	17.9
132840	7	Sololá	701	Sololá	4	Finca Santa Victoria	9	Septiembre	2023-09-26T00:00:00	2024-11-08T14:00:00	5	Humedad	68
132841	7	Sololá	701	Sololá	4	Finca Santa Victoria	9	Septiembre	2023-09-26T00:00:00	2024-11-08T14:00:00	6	Velocidad del viento	0
132842	7	Sololá	701	Sololá	4	Finca Santa Victoria	9	Septiembre	2023-09-26T00:00:00	2024-11-08T14:00:00	7	Dirección del viento	0
132843	7	Sololá	701	Sololá	4	Finca Santa Victoria	9	Septiembre	2023-09-26T00:00:00	2024-11-08T14:00:00	1	Precipitación	0
132844	7	Sololá	701	Sololá	4	Finca Santa Victoria	9	Septiembre	2023-09-26T00:00:00	2024-11-08T14:00:00	8	Radiación solar	94
132845	7	Sololá	701	Sololá	4	Finca Santa Victoria	9	Septiembre	2023-09-26T00:00:00	2024-11-08T15:00:00	2	Temperatura media	18.5
132846	7	Sololá	701	Sololá	4	Finca Santa Victoria	9	Septiembre	2023-09-26T00:00:00	2024-11-08T15:00:00	4	Temperatura máxima	18.5
132847	7	Sololá	701	Sololá	4	Finca Santa Victoria	9	Septiembre	2023-09-26T00:00:00	2024-11-08T15:00:00	3	Temperatura mínima	17.4
132848	7	Sololá	701	Sololá	4	Finca Santa Victoria	9	Septiembre	2023-09-26T00:00:00	2024-11-08T15:00:00	5	Humedad	69
132849	7	Sololá	701	Sololá	4	Finca Santa Victoria	9	Septiembre	2023-09-26T00:00:00	2024-11-08T15:00:00	6	Velocidad del viento	1.6
132850	7	Sololá	701	Sololá	4	Finca Santa Victoria	9	Septiembre	2023-09-26T00:00:00	2024-11-08T15:00:00	7	Dirección del viento	1.61
132851	7	Sololá	701	Sololá	4	Finca Santa Victoria	9	Septiembre	2023-09-26T00:00:00	2024-11-08T15:00:00	1	Precipitación	0
132852	7	Sololá	701	Sololá	4	Finca Santa Victoria	9	Septiembre	2023-09-26T00:00:00	2024-11-08T15:00:00	8	Radiación solar	122
132853	7	Sololá	701	Sololá	4	Finca Santa Victoria	9	Septiembre	2023-09-26T00:00:00	2024-11-08T16:00:00	2	Temperatura media	19.5
132854	7	Sololá	701	Sololá	4	Finca Santa Victoria	9	Septiembre	2023-09-26T00:00:00	2024-11-08T16:00:00	4	Temperatura máxima	19.7
132855	7	Sololá	701	Sololá	4	Finca Santa Victoria	9	Septiembre	2023-09-26T00:00:00	2024-11-08T16:00:00	3	Temperatura mínima	18.5
132856	7	Sololá	701	Sololá	4	Finca Santa Victoria	9	Septiembre	2023-09-26T00:00:00	2024-11-08T16:00:00	5	Humedad	66
132857	7	Sololá	701	Sololá	4	Finca Santa Victoria	9	Septiembre	2023-09-26T00:00:00	2024-11-08T16:00:00	6	Velocidad del viento	1.6
132858	7	Sololá	701	Sololá	4	Finca Santa Victoria	9	Septiembre	2023-09-26T00:00:00	2024-11-08T16:00:00	7	Dirección del viento	1.61
132859	7	Sololá	701	Sololá	4	Finca Santa Victoria	9	Septiembre	2023-09-26T00:00:00	2024-11-08T16:00:00	1	Precipitación	0
132860	7	Sololá	701	Sololá	4	Finca Santa Victoria	9	Septiembre	2023-09-26T00:00:00	2024-11-08T16:00:00	8	Radiación solar	81
132861	7	Sololá	701	Sololá	4	Finca Santa Victoria	9	Septiembre	2023-09-26T00:00:00	2024-11-08T17:00:00	2	Temperatura media	17.2
132862	7	Sololá	701	Sololá	4	Finca Santa Victoria	9	Septiembre	2023-09-26T00:00:00	2024-11-08T17:00:00	4	Temperatura máxima	19.5
132863	7	Sololá	701	Sololá	4	Finca Santa Victoria	9	Septiembre	2023-09-26T00:00:00	2024-11-08T17:00:00	3	Temperatura mínima	17.2
132864	7	Sololá	701	Sololá	4	Finca Santa Victoria	9	Septiembre	2023-09-26T00:00:00	2024-11-08T17:00:00	5	Humedad	78
132865	7	Sololá	701	Sololá	4	Finca Santa Victoria	9	Septiembre	2023-09-26T00:00:00	2024-11-08T17:00:00	6	Velocidad del viento	0
132866	7	Sololá	701	Sololá	4	Finca Santa Victoria	9	Septiembre	2023-09-26T00:00:00	2024-11-08T17:00:00	7	Dirección del viento	0
132867	7	Sololá	701	Sololá	4	Finca Santa Victoria	9	Septiembre	2023-09-26T00:00:00	2024-11-08T17:00:00	1	Precipitación	0
132868	7	Sololá	701	Sololá	4	Finca Santa Victoria	9	Septiembre	2023-09-26T00:00:00	2024-11-08T17:00:00	8	Radiación solar	44
132869	7	Sololá	701	Sololá	4	Finca Santa Victoria	9	Septiembre	2023-09-26T00:00:00	2024-11-08T18:00:00	2	Temperatura media	15.7
132870	7	Sololá	701	Sololá	4	Finca Santa Victoria	9	Septiembre	2023-09-26T00:00:00	2024-11-08T18:00:00	4	Temperatura máxima	17.2
132871	7	Sololá	701	Sololá	4	Finca Santa Victoria	9	Septiembre	2023-09-26T00:00:00	2024-11-08T18:00:00	3	Temperatura mínima	15.7
132872	7	Sololá	701	Sololá	4	Finca Santa Victoria	9	Septiembre	2023-09-26T00:00:00	2024-11-08T18:00:00	5	Humedad	83
132873	7	Sololá	701	Sololá	4	Finca Santa Victoria	9	Septiembre	2023-09-26T00:00:00	2024-11-08T18:00:00	6	Velocidad del viento	0
132874	7	Sololá	701	Sololá	4	Finca Santa Victoria	9	Septiembre	2023-09-26T00:00:00	2024-11-08T18:00:00	7	Dirección del viento	0
132875	7	Sololá	701	Sololá	4	Finca Santa Victoria	9	Septiembre	2023-09-26T00:00:00	2024-11-08T18:00:00	1	Precipitación	0
132876	7	Sololá	701	Sololá	4	Finca Santa Victoria	9	Septiembre	2023-09-26T00:00:00	2024-11-08T18:00:00	8	Radiación solar	12
132877	7	Sololá	701	Sololá	4	Finca Santa Victoria	9	Septiembre	2023-09-26T00:00:00	2024-11-08T19:00:00	2	Temperatura media	14.9
132878	7	Sololá	701	Sololá	4	Finca Santa Victoria	9	Septiembre	2023-09-26T00:00:00	2024-11-08T19:00:00	4	Temperatura máxima	15.7
132879	7	Sololá	701	Sololá	4	Finca Santa Victoria	9	Septiembre	2023-09-26T00:00:00	2024-11-08T19:00:00	3	Temperatura mínima	14.9
132880	7	Sololá	701	Sololá	4	Finca Santa Victoria	9	Septiembre	2023-09-26T00:00:00	2024-11-08T19:00:00	5	Humedad	87
132881	7	Sololá	701	Sololá	4	Finca Santa Victoria	9	Septiembre	2023-09-26T00:00:00	2024-11-08T19:00:00	6	Velocidad del viento	0
132882	7	Sololá	701	Sololá	4	Finca Santa Victoria	9	Septiembre	2023-09-26T00:00:00	2024-11-08T19:00:00	7	Dirección del viento	0
132883	7	Sololá	701	Sololá	4	Finca Santa Victoria	9	Septiembre	2023-09-26T00:00:00	2024-11-08T19:00:00	1	Precipitación	0
132884	7	Sololá	701	Sololá	4	Finca Santa Victoria	9	Septiembre	2023-09-26T00:00:00	2024-11-08T19:00:00	8	Radiación solar	0
132885	7	Sololá	701	Sololá	4	Finca Santa Victoria	9	Septiembre	2023-09-26T00:00:00	2024-11-08T20:00:00	2	Temperatura media	14.4
132886	7	Sololá	701	Sololá	4	Finca Santa Victoria	9	Septiembre	2023-09-26T00:00:00	2024-11-08T20:00:00	4	Temperatura máxima	15
132887	7	Sololá	701	Sololá	4	Finca Santa Victoria	9	Septiembre	2023-09-26T00:00:00	2024-11-08T20:00:00	3	Temperatura mínima	14.4
132888	7	Sololá	701	Sololá	4	Finca Santa Victoria	9	Septiembre	2023-09-26T00:00:00	2024-11-08T20:00:00	5	Humedad	91
132889	7	Sololá	701	Sololá	4	Finca Santa Victoria	9	Septiembre	2023-09-26T00:00:00	2024-11-08T20:00:00	6	Velocidad del viento	0
132890	7	Sololá	701	Sololá	4	Finca Santa Victoria	9	Septiembre	2023-09-26T00:00:00	2024-11-08T20:00:00	7	Dirección del viento	0
132891	7	Sololá	701	Sololá	4	Finca Santa Victoria	9	Septiembre	2023-09-26T00:00:00	2024-11-08T20:00:00	1	Precipitación	0
132892	7	Sololá	701	Sololá	4	Finca Santa Victoria	9	Septiembre	2023-09-26T00:00:00	2024-11-08T20:00:00	8	Radiación solar	0
132893	7	Sololá	701	Sololá	4	Finca Santa Victoria	9	Septiembre	2023-09-26T00:00:00	2024-11-08T21:00:00	2	Temperatura media	14.1
132894	7	Sololá	701	Sololá	4	Finca Santa Victoria	9	Septiembre	2023-09-26T00:00:00	2024-11-08T21:00:00	4	Temperatura máxima	14.4
132895	7	Sololá	701	Sololá	4	Finca Santa Victoria	9	Septiembre	2023-09-26T00:00:00	2024-11-08T21:00:00	3	Temperatura mínima	14.1
132896	7	Sololá	701	Sololá	4	Finca Santa Victoria	9	Septiembre	2023-09-26T00:00:00	2024-11-08T21:00:00	5	Humedad	94
132897	7	Sololá	701	Sololá	4	Finca Santa Victoria	9	Septiembre	2023-09-26T00:00:00	2024-11-08T21:00:00	6	Velocidad del viento	0
132898	7	Sololá	701	Sololá	4	Finca Santa Victoria	9	Septiembre	2023-09-26T00:00:00	2024-11-08T21:00:00	7	Dirección del viento	0
132899	7	Sololá	701	Sololá	4	Finca Santa Victoria	9	Septiembre	2023-09-26T00:00:00	2024-11-08T21:00:00	1	Precipitación	0
132900	7	Sololá	701	Sololá	4	Finca Santa Victoria	9	Septiembre	2023-09-26T00:00:00	2024-11-08T21:00:00	8	Radiación solar	0
132901	7	Sololá	701	Sololá	4	Finca Santa Victoria	9	Septiembre	2023-09-26T00:00:00	2024-11-08T22:00:00	2	Temperatura media	13.7
132902	7	Sololá	701	Sololá	4	Finca Santa Victoria	9	Septiembre	2023-09-26T00:00:00	2024-11-08T22:00:00	4	Temperatura máxima	14.1
132903	7	Sololá	701	Sololá	4	Finca Santa Victoria	9	Septiembre	2023-09-26T00:00:00	2024-11-08T22:00:00	3	Temperatura mínima	13.7
132904	7	Sololá	701	Sololá	4	Finca Santa Victoria	9	Septiembre	2023-09-26T00:00:00	2024-11-08T22:00:00	5	Humedad	96
132905	7	Sololá	701	Sololá	4	Finca Santa Victoria	9	Septiembre	2023-09-26T00:00:00	2024-11-08T22:00:00	6	Velocidad del viento	0
132906	7	Sololá	701	Sololá	4	Finca Santa Victoria	9	Septiembre	2023-09-26T00:00:00	2024-11-08T22:00:00	7	Dirección del viento	0
132907	7	Sololá	701	Sololá	4	Finca Santa Victoria	9	Septiembre	2023-09-26T00:00:00	2024-11-08T22:00:00	1	Precipitación	0
132908	7	Sololá	701	Sololá	4	Finca Santa Victoria	9	Septiembre	2023-09-26T00:00:00	2024-11-08T22:00:00	8	Radiación solar	0
132909	7	Sololá	701	Sololá	4	Finca Santa Victoria	9	Septiembre	2023-09-26T00:00:00	2024-11-08T23:00:00	2	Temperatura media	13.4
132910	7	Sololá	701	Sololá	4	Finca Santa Victoria	9	Septiembre	2023-09-26T00:00:00	2024-11-08T23:00:00	4	Temperatura máxima	13.7
132911	7	Sololá	701	Sololá	4	Finca Santa Victoria	9	Septiembre	2023-09-26T00:00:00	2024-11-08T23:00:00	3	Temperatura mínima	13.4
132912	7	Sololá	701	Sololá	4	Finca Santa Victoria	9	Septiembre	2023-09-26T00:00:00	2024-11-08T23:00:00	5	Humedad	96
132913	7	Sololá	701	Sololá	4	Finca Santa Victoria	9	Septiembre	2023-09-26T00:00:00	2024-11-08T23:00:00	6	Velocidad del viento	0
132914	7	Sololá	701	Sololá	4	Finca Santa Victoria	9	Septiembre	2023-09-26T00:00:00	2024-11-08T23:00:00	7	Dirección del viento	0
132915	7	Sololá	701	Sololá	4	Finca Santa Victoria	9	Septiembre	2023-09-26T00:00:00	2024-11-08T23:00:00	1	Precipitación	0
132916	7	Sololá	701	Sololá	4	Finca Santa Victoria	9	Septiembre	2023-09-26T00:00:00	2024-11-08T23:00:00	8	Radiación solar	0
132917	7	Sololá	701	Sololá	4	Finca Santa Victoria	9	Septiembre	2023-09-27T00:00:00	2024-11-08T00:00:00	2	Temperatura media	12.7
132918	7	Sololá	701	Sololá	4	Finca Santa Victoria	9	Septiembre	2023-09-27T00:00:00	2024-11-08T00:00:00	4	Temperatura máxima	13.4
132919	7	Sololá	701	Sololá	4	Finca Santa Victoria	9	Septiembre	2023-09-27T00:00:00	2024-11-08T00:00:00	3	Temperatura mínima	12.7
132920	7	Sololá	701	Sololá	4	Finca Santa Victoria	9	Septiembre	2023-09-27T00:00:00	2024-11-08T00:00:00	5	Humedad	96
132921	7	Sololá	701	Sololá	4	Finca Santa Victoria	9	Septiembre	2023-09-27T00:00:00	2024-11-08T00:00:00	6	Velocidad del viento	0
132922	7	Sololá	701	Sololá	4	Finca Santa Victoria	9	Septiembre	2023-09-27T00:00:00	2024-11-08T00:00:00	7	Dirección del viento	0
132923	7	Sololá	701	Sololá	4	Finca Santa Victoria	9	Septiembre	2023-09-27T00:00:00	2024-11-08T00:00:00	1	Precipitación	0.2
132924	7	Sololá	701	Sololá	4	Finca Santa Victoria	9	Septiembre	2023-09-27T00:00:00	2024-11-08T00:00:00	8	Radiación solar	0
132925	7	Sololá	701	Sololá	4	Finca Santa Victoria	9	Septiembre	2023-09-27T00:00:00	2024-11-08T01:00:00	2	Temperatura media	12.3
132926	7	Sololá	701	Sololá	4	Finca Santa Victoria	9	Septiembre	2023-09-27T00:00:00	2024-11-08T01:00:00	4	Temperatura máxima	12.7
132927	7	Sololá	701	Sololá	4	Finca Santa Victoria	9	Septiembre	2023-09-27T00:00:00	2024-11-08T01:00:00	3	Temperatura mínima	12.3
132928	7	Sololá	701	Sololá	4	Finca Santa Victoria	9	Septiembre	2023-09-27T00:00:00	2024-11-08T01:00:00	5	Humedad	96
132929	7	Sololá	701	Sololá	4	Finca Santa Victoria	9	Septiembre	2023-09-27T00:00:00	2024-11-08T01:00:00	6	Velocidad del viento	0
132930	7	Sololá	701	Sololá	4	Finca Santa Victoria	9	Septiembre	2023-09-27T00:00:00	2024-11-08T01:00:00	7	Dirección del viento	0
132931	7	Sololá	701	Sololá	4	Finca Santa Victoria	9	Septiembre	2023-09-27T00:00:00	2024-11-08T01:00:00	1	Precipitación	0
132932	7	Sololá	701	Sololá	4	Finca Santa Victoria	9	Septiembre	2023-09-27T00:00:00	2024-11-08T01:00:00	8	Radiación solar	0
132933	7	Sololá	701	Sololá	4	Finca Santa Victoria	9	Septiembre	2023-09-27T00:00:00	2024-11-08T02:00:00	2	Temperatura media	12
132934	7	Sololá	701	Sololá	4	Finca Santa Victoria	9	Septiembre	2023-09-27T00:00:00	2024-11-08T02:00:00	4	Temperatura máxima	12.3
132935	7	Sololá	701	Sololá	4	Finca Santa Victoria	9	Septiembre	2023-09-27T00:00:00	2024-11-08T02:00:00	3	Temperatura mínima	12
132936	7	Sololá	701	Sololá	4	Finca Santa Victoria	9	Septiembre	2023-09-27T00:00:00	2024-11-08T02:00:00	5	Humedad	97
132937	7	Sololá	701	Sololá	4	Finca Santa Victoria	9	Septiembre	2023-09-27T00:00:00	2024-11-08T02:00:00	6	Velocidad del viento	0
132938	7	Sololá	701	Sololá	4	Finca Santa Victoria	9	Septiembre	2023-09-27T00:00:00	2024-11-08T02:00:00	7	Dirección del viento	0
132939	7	Sololá	701	Sololá	4	Finca Santa Victoria	9	Septiembre	2023-09-27T00:00:00	2024-11-08T02:00:00	1	Precipitación	0
132940	7	Sololá	701	Sololá	4	Finca Santa Victoria	9	Septiembre	2023-09-27T00:00:00	2024-11-08T02:00:00	8	Radiación solar	0
132941	7	Sololá	701	Sololá	4	Finca Santa Victoria	9	Septiembre	2023-09-27T00:00:00	2024-11-08T03:00:00	2	Temperatura media	11.6
132942	7	Sololá	701	Sololá	4	Finca Santa Victoria	9	Septiembre	2023-09-27T00:00:00	2024-11-08T03:00:00	4	Temperatura máxima	12.1
132943	7	Sololá	701	Sololá	4	Finca Santa Victoria	9	Septiembre	2023-09-27T00:00:00	2024-11-08T03:00:00	3	Temperatura mínima	11.4
132944	7	Sololá	701	Sololá	4	Finca Santa Victoria	9	Septiembre	2023-09-27T00:00:00	2024-11-08T03:00:00	5	Humedad	96
132945	7	Sololá	701	Sololá	4	Finca Santa Victoria	9	Septiembre	2023-09-27T00:00:00	2024-11-08T03:00:00	6	Velocidad del viento	0
132946	7	Sololá	701	Sololá	4	Finca Santa Victoria	9	Septiembre	2023-09-27T00:00:00	2024-11-08T03:00:00	7	Dirección del viento	0
132947	7	Sololá	701	Sololá	4	Finca Santa Victoria	9	Septiembre	2023-09-27T00:00:00	2024-11-08T03:00:00	1	Precipitación	0
132948	7	Sololá	701	Sololá	4	Finca Santa Victoria	9	Septiembre	2023-09-27T00:00:00	2024-11-08T03:00:00	8	Radiación solar	0
132949	7	Sololá	701	Sololá	4	Finca Santa Victoria	9	Septiembre	2023-09-27T00:00:00	2024-11-08T04:00:00	2	Temperatura media	11.2
132950	7	Sololá	701	Sololá	4	Finca Santa Victoria	9	Septiembre	2023-09-27T00:00:00	2024-11-08T04:00:00	4	Temperatura máxima	11.6
132951	7	Sololá	701	Sololá	4	Finca Santa Victoria	9	Septiembre	2023-09-27T00:00:00	2024-11-08T04:00:00	3	Temperatura mínima	11.2
132952	7	Sololá	701	Sololá	4	Finca Santa Victoria	9	Septiembre	2023-09-27T00:00:00	2024-11-08T04:00:00	5	Humedad	97
132953	7	Sololá	701	Sololá	4	Finca Santa Victoria	9	Septiembre	2023-09-27T00:00:00	2024-11-08T04:00:00	6	Velocidad del viento	0
132954	7	Sololá	701	Sololá	4	Finca Santa Victoria	9	Septiembre	2023-09-27T00:00:00	2024-11-08T04:00:00	7	Dirección del viento	0
132955	7	Sololá	701	Sololá	4	Finca Santa Victoria	9	Septiembre	2023-09-27T00:00:00	2024-11-08T04:00:00	1	Precipitación	0
132956	7	Sololá	701	Sololá	4	Finca Santa Victoria	9	Septiembre	2023-09-27T00:00:00	2024-11-08T04:00:00	8	Radiación solar	0
132957	7	Sololá	701	Sololá	4	Finca Santa Victoria	9	Septiembre	2023-09-27T00:00:00	2024-11-08T05:00:00	2	Temperatura media	10.8
132958	7	Sololá	701	Sololá	4	Finca Santa Victoria	9	Septiembre	2023-09-27T00:00:00	2024-11-08T05:00:00	4	Temperatura máxima	11.2
132959	7	Sololá	701	Sololá	4	Finca Santa Victoria	9	Septiembre	2023-09-27T00:00:00	2024-11-08T05:00:00	3	Temperatura mínima	10.8
132960	7	Sololá	701	Sololá	4	Finca Santa Victoria	9	Septiembre	2023-09-27T00:00:00	2024-11-08T05:00:00	5	Humedad	97
132961	7	Sololá	701	Sololá	4	Finca Santa Victoria	9	Septiembre	2023-09-27T00:00:00	2024-11-08T05:00:00	6	Velocidad del viento	0
132962	7	Sololá	701	Sololá	4	Finca Santa Victoria	9	Septiembre	2023-09-27T00:00:00	2024-11-08T05:00:00	7	Dirección del viento	0
132963	7	Sololá	701	Sololá	4	Finca Santa Victoria	9	Septiembre	2023-09-27T00:00:00	2024-11-08T05:00:00	1	Precipitación	0
132964	7	Sololá	701	Sololá	4	Finca Santa Victoria	9	Septiembre	2023-09-27T00:00:00	2024-11-08T05:00:00	8	Radiación solar	0
132965	7	Sololá	701	Sololá	4	Finca Santa Victoria	9	Septiembre	2023-09-27T00:00:00	2024-11-08T06:00:00	2	Temperatura media	11.3
132966	7	Sololá	701	Sololá	4	Finca Santa Victoria	9	Septiembre	2023-09-27T00:00:00	2024-11-08T06:00:00	4	Temperatura máxima	11.3
132967	7	Sololá	701	Sololá	4	Finca Santa Victoria	9	Septiembre	2023-09-27T00:00:00	2024-11-08T06:00:00	3	Temperatura mínima	10.8
132968	7	Sololá	701	Sololá	4	Finca Santa Victoria	9	Septiembre	2023-09-27T00:00:00	2024-11-08T06:00:00	5	Humedad	96
132969	7	Sololá	701	Sololá	4	Finca Santa Victoria	9	Septiembre	2023-09-27T00:00:00	2024-11-08T06:00:00	6	Velocidad del viento	0
132970	7	Sololá	701	Sololá	4	Finca Santa Victoria	9	Septiembre	2023-09-27T00:00:00	2024-11-08T06:00:00	7	Dirección del viento	0
132971	7	Sololá	701	Sololá	4	Finca Santa Victoria	9	Septiembre	2023-09-27T00:00:00	2024-11-08T06:00:00	1	Precipitación	0
132972	7	Sololá	701	Sololá	4	Finca Santa Victoria	9	Septiembre	2023-09-27T00:00:00	2024-11-08T06:00:00	8	Radiación solar	0
132973	7	Sololá	701	Sololá	4	Finca Santa Victoria	9	Septiembre	2023-09-27T00:00:00	2024-11-08T07:00:00	2	Temperatura media	12.6
132974	7	Sololá	701	Sololá	4	Finca Santa Victoria	9	Septiembre	2023-09-27T00:00:00	2024-11-08T07:00:00	4	Temperatura máxima	12.6
132975	7	Sololá	701	Sololá	4	Finca Santa Victoria	9	Septiembre	2023-09-27T00:00:00	2024-11-08T07:00:00	3	Temperatura mínima	11.2
132976	7	Sololá	701	Sololá	4	Finca Santa Victoria	9	Septiembre	2023-09-27T00:00:00	2024-11-08T07:00:00	5	Humedad	95
132977	7	Sololá	701	Sololá	4	Finca Santa Victoria	9	Septiembre	2023-09-27T00:00:00	2024-11-08T07:00:00	6	Velocidad del viento	0
132978	7	Sololá	701	Sololá	4	Finca Santa Victoria	9	Septiembre	2023-09-27T00:00:00	2024-11-08T07:00:00	7	Dirección del viento	0
132979	7	Sololá	701	Sololá	4	Finca Santa Victoria	9	Septiembre	2023-09-27T00:00:00	2024-11-08T07:00:00	1	Precipitación	0
132980	7	Sololá	701	Sololá	4	Finca Santa Victoria	9	Septiembre	2023-09-27T00:00:00	2024-11-08T07:00:00	8	Radiación solar	21
132981	7	Sololá	701	Sololá	4	Finca Santa Victoria	9	Septiembre	2023-09-27T00:00:00	2024-11-08T08:00:00	2	Temperatura media	16.6
132982	7	Sololá	701	Sololá	4	Finca Santa Victoria	9	Septiembre	2023-09-27T00:00:00	2024-11-08T08:00:00	4	Temperatura máxima	16.6
132983	7	Sololá	701	Sololá	4	Finca Santa Victoria	9	Septiembre	2023-09-27T00:00:00	2024-11-08T08:00:00	3	Temperatura mínima	12.6
132984	7	Sololá	701	Sololá	4	Finca Santa Victoria	9	Septiembre	2023-09-27T00:00:00	2024-11-08T08:00:00	5	Humedad	82
132985	7	Sololá	701	Sololá	4	Finca Santa Victoria	9	Septiembre	2023-09-27T00:00:00	2024-11-08T08:00:00	6	Velocidad del viento	1.6
132986	7	Sololá	701	Sololá	4	Finca Santa Victoria	9	Septiembre	2023-09-27T00:00:00	2024-11-08T08:00:00	7	Dirección del viento	1.61
132987	7	Sololá	701	Sololá	4	Finca Santa Victoria	9	Septiembre	2023-09-27T00:00:00	2024-11-08T08:00:00	1	Precipitación	0
132988	7	Sololá	701	Sololá	4	Finca Santa Victoria	9	Septiembre	2023-09-27T00:00:00	2024-11-08T08:00:00	8	Radiación solar	291
132989	7	Sololá	701	Sololá	4	Finca Santa Victoria	9	Septiembre	2023-09-27T00:00:00	2024-11-08T09:00:00	2	Temperatura media	18.9
132990	7	Sololá	701	Sololá	4	Finca Santa Victoria	9	Septiembre	2023-09-27T00:00:00	2024-11-08T09:00:00	4	Temperatura máxima	18.9
132991	7	Sololá	701	Sololá	4	Finca Santa Victoria	9	Septiembre	2023-09-27T00:00:00	2024-11-08T09:00:00	3	Temperatura mínima	16.6
132992	7	Sololá	701	Sololá	4	Finca Santa Victoria	9	Septiembre	2023-09-27T00:00:00	2024-11-08T09:00:00	5	Humedad	73
132993	7	Sololá	701	Sololá	4	Finca Santa Victoria	9	Septiembre	2023-09-27T00:00:00	2024-11-08T09:00:00	6	Velocidad del viento	1.6
132994	7	Sololá	701	Sololá	4	Finca Santa Victoria	9	Septiembre	2023-09-27T00:00:00	2024-11-08T09:00:00	7	Dirección del viento	1.61
132995	7	Sololá	701	Sololá	4	Finca Santa Victoria	9	Septiembre	2023-09-27T00:00:00	2024-11-08T09:00:00	1	Precipitación	0
132996	7	Sololá	701	Sololá	4	Finca Santa Victoria	9	Septiembre	2023-09-27T00:00:00	2024-11-08T09:00:00	8	Radiación solar	614
132997	7	Sololá	701	Sololá	4	Finca Santa Victoria	9	Septiembre	2023-09-27T00:00:00	2024-11-08T10:00:00	2	Temperatura media	19.3
132998	7	Sololá	701	Sololá	4	Finca Santa Victoria	9	Septiembre	2023-09-27T00:00:00	2024-11-08T10:00:00	4	Temperatura máxima	19.6
132999	7	Sololá	701	Sololá	4	Finca Santa Victoria	9	Septiembre	2023-09-27T00:00:00	2024-11-08T10:00:00	3	Temperatura mínima	18.8
133000	7	Sololá	701	Sololá	4	Finca Santa Victoria	9	Septiembre	2023-09-27T00:00:00	2024-11-08T10:00:00	5	Humedad	75
133001	7	Sololá	701	Sololá	4	Finca Santa Victoria	9	Septiembre	2023-09-27T00:00:00	2024-11-08T10:00:00	6	Velocidad del viento	1.6
133002	7	Sololá	701	Sololá	4	Finca Santa Victoria	9	Septiembre	2023-09-27T00:00:00	2024-11-08T10:00:00	7	Dirección del viento	1.61
133003	7	Sololá	701	Sololá	4	Finca Santa Victoria	9	Septiembre	2023-09-27T00:00:00	2024-11-08T10:00:00	1	Precipitación	0
133004	7	Sololá	701	Sololá	4	Finca Santa Victoria	9	Septiembre	2023-09-27T00:00:00	2024-11-08T10:00:00	8	Radiación solar	589
133005	7	Sololá	701	Sololá	4	Finca Santa Victoria	9	Septiembre	2023-09-27T00:00:00	2024-11-08T11:00:00	2	Temperatura media	18.5
133006	7	Sololá	701	Sololá	4	Finca Santa Victoria	9	Septiembre	2023-09-27T00:00:00	2024-11-08T11:00:00	4	Temperatura máxima	20.1
133007	7	Sololá	701	Sololá	4	Finca Santa Victoria	9	Septiembre	2023-09-27T00:00:00	2024-11-08T11:00:00	3	Temperatura mínima	18.5
133008	7	Sololá	701	Sololá	4	Finca Santa Victoria	9	Septiembre	2023-09-27T00:00:00	2024-11-08T11:00:00	5	Humedad	81
133009	7	Sololá	701	Sololá	4	Finca Santa Victoria	9	Septiembre	2023-09-27T00:00:00	2024-11-08T11:00:00	6	Velocidad del viento	1.6
133010	7	Sololá	701	Sololá	4	Finca Santa Victoria	9	Septiembre	2023-09-27T00:00:00	2024-11-08T11:00:00	7	Dirección del viento	1.61
133011	7	Sololá	701	Sololá	4	Finca Santa Victoria	9	Septiembre	2023-09-27T00:00:00	2024-11-08T11:00:00	1	Precipitación	0
133012	7	Sololá	701	Sololá	4	Finca Santa Victoria	9	Septiembre	2023-09-27T00:00:00	2024-11-08T11:00:00	8	Radiación solar	380
133013	7	Sololá	701	Sololá	4	Finca Santa Victoria	9	Septiembre	2023-09-27T00:00:00	2024-11-08T12:00:00	2	Temperatura media	17.6
133014	7	Sololá	701	Sololá	4	Finca Santa Victoria	9	Septiembre	2023-09-27T00:00:00	2024-11-08T12:00:00	4	Temperatura máxima	19
133015	7	Sololá	701	Sololá	4	Finca Santa Victoria	9	Septiembre	2023-09-27T00:00:00	2024-11-08T12:00:00	3	Temperatura mínima	17.3
133016	7	Sololá	701	Sololá	4	Finca Santa Victoria	9	Septiembre	2023-09-27T00:00:00	2024-11-08T12:00:00	5	Humedad	89
133017	7	Sololá	701	Sololá	4	Finca Santa Victoria	9	Septiembre	2023-09-27T00:00:00	2024-11-08T12:00:00	6	Velocidad del viento	1.6
133018	7	Sololá	701	Sololá	4	Finca Santa Victoria	9	Septiembre	2023-09-27T00:00:00	2024-11-08T12:00:00	7	Dirección del viento	1.61
133019	7	Sololá	701	Sololá	4	Finca Santa Victoria	9	Septiembre	2023-09-27T00:00:00	2024-11-08T12:00:00	1	Precipitación	0
133020	7	Sololá	701	Sololá	4	Finca Santa Victoria	9	Septiembre	2023-09-27T00:00:00	2024-11-08T12:00:00	8	Radiación solar	188
133021	7	Sololá	701	Sololá	4	Finca Santa Victoria	9	Septiembre	2023-09-27T00:00:00	2024-11-08T13:00:00	2	Temperatura media	17.7
133022	7	Sololá	701	Sololá	4	Finca Santa Victoria	9	Septiembre	2023-09-27T00:00:00	2024-11-08T13:00:00	4	Temperatura máxima	17.7
133023	7	Sololá	701	Sololá	4	Finca Santa Victoria	9	Septiembre	2023-09-27T00:00:00	2024-11-08T13:00:00	3	Temperatura mínima	17.4
133024	7	Sololá	701	Sololá	4	Finca Santa Victoria	9	Septiembre	2023-09-27T00:00:00	2024-11-08T13:00:00	5	Humedad	90
133025	7	Sololá	701	Sololá	4	Finca Santa Victoria	9	Septiembre	2023-09-27T00:00:00	2024-11-08T13:00:00	6	Velocidad del viento	0
133026	7	Sololá	701	Sololá	4	Finca Santa Victoria	9	Septiembre	2023-09-27T00:00:00	2024-11-08T13:00:00	7	Dirección del viento	0
133027	7	Sololá	701	Sololá	4	Finca Santa Victoria	9	Septiembre	2023-09-27T00:00:00	2024-11-08T13:00:00	1	Precipitación	0
133028	7	Sololá	701	Sololá	4	Finca Santa Victoria	9	Septiembre	2023-09-27T00:00:00	2024-11-08T13:00:00	8	Radiación solar	185
133029	7	Sololá	701	Sololá	4	Finca Santa Victoria	9	Septiembre	2023-09-27T00:00:00	2024-11-08T14:00:00	2	Temperatura media	17.7
133030	7	Sololá	701	Sololá	4	Finca Santa Victoria	9	Septiembre	2023-09-27T00:00:00	2024-11-08T14:00:00	4	Temperatura máxima	18.7
133031	7	Sololá	701	Sololá	4	Finca Santa Victoria	9	Septiembre	2023-09-27T00:00:00	2024-11-08T14:00:00	3	Temperatura mínima	17.6
133032	7	Sololá	701	Sololá	4	Finca Santa Victoria	9	Septiembre	2023-09-27T00:00:00	2024-11-08T14:00:00	5	Humedad	91
133033	7	Sololá	701	Sololá	4	Finca Santa Victoria	9	Septiembre	2023-09-27T00:00:00	2024-11-08T14:00:00	6	Velocidad del viento	0
133034	7	Sololá	701	Sololá	4	Finca Santa Victoria	9	Septiembre	2023-09-27T00:00:00	2024-11-08T14:00:00	7	Dirección del viento	0
133035	7	Sololá	701	Sololá	4	Finca Santa Victoria	9	Septiembre	2023-09-27T00:00:00	2024-11-08T14:00:00	1	Precipitación	0
133036	7	Sololá	701	Sololá	4	Finca Santa Victoria	9	Septiembre	2023-09-27T00:00:00	2024-11-08T14:00:00	8	Radiación solar	202
133037	7	Sololá	701	Sololá	4	Finca Santa Victoria	9	Septiembre	2023-09-27T00:00:00	2024-11-08T15:00:00	2	Temperatura media	16.4
133038	7	Sololá	701	Sololá	4	Finca Santa Victoria	9	Septiembre	2023-09-27T00:00:00	2024-11-08T15:00:00	4	Temperatura máxima	17.7
133039	7	Sololá	701	Sololá	4	Finca Santa Victoria	9	Septiembre	2023-09-27T00:00:00	2024-11-08T15:00:00	3	Temperatura mínima	16.4
133040	7	Sololá	701	Sololá	4	Finca Santa Victoria	9	Septiembre	2023-09-27T00:00:00	2024-11-08T15:00:00	5	Humedad	95
133041	7	Sololá	701	Sololá	4	Finca Santa Victoria	9	Septiembre	2023-09-27T00:00:00	2024-11-08T15:00:00	6	Velocidad del viento	0
133042	7	Sololá	701	Sololá	4	Finca Santa Victoria	9	Septiembre	2023-09-27T00:00:00	2024-11-08T15:00:00	7	Dirección del viento	0
133043	7	Sololá	701	Sololá	4	Finca Santa Victoria	9	Septiembre	2023-09-27T00:00:00	2024-11-08T15:00:00	1	Precipitación	0
133044	7	Sololá	701	Sololá	4	Finca Santa Victoria	9	Septiembre	2023-09-27T00:00:00	2024-11-08T15:00:00	8	Radiación solar	59
133045	7	Sololá	701	Sololá	4	Finca Santa Victoria	9	Septiembre	2023-09-27T00:00:00	2024-11-08T16:00:00	2	Temperatura media	16.1
133046	7	Sololá	701	Sololá	4	Finca Santa Victoria	9	Septiembre	2023-09-27T00:00:00	2024-11-08T16:00:00	4	Temperatura máxima	16.5
133047	7	Sololá	701	Sololá	4	Finca Santa Victoria	9	Septiembre	2023-09-27T00:00:00	2024-11-08T16:00:00	3	Temperatura mínima	16
133048	7	Sololá	701	Sololá	4	Finca Santa Victoria	9	Septiembre	2023-09-27T00:00:00	2024-11-08T16:00:00	5	Humedad	96
133049	7	Sololá	701	Sololá	4	Finca Santa Victoria	9	Septiembre	2023-09-27T00:00:00	2024-11-08T16:00:00	6	Velocidad del viento	0
133050	7	Sololá	701	Sololá	4	Finca Santa Victoria	9	Septiembre	2023-09-27T00:00:00	2024-11-08T16:00:00	7	Dirección del viento	0
133051	7	Sololá	701	Sololá	4	Finca Santa Victoria	9	Septiembre	2023-09-27T00:00:00	2024-11-08T16:00:00	1	Precipitación	0
133052	7	Sololá	701	Sololá	4	Finca Santa Victoria	9	Septiembre	2023-09-27T00:00:00	2024-11-08T16:00:00	8	Radiación solar	30
133053	7	Sololá	701	Sololá	4	Finca Santa Victoria	9	Septiembre	2023-09-27T00:00:00	2024-11-08T17:00:00	2	Temperatura media	15.5
133054	7	Sololá	701	Sololá	4	Finca Santa Victoria	9	Septiembre	2023-09-27T00:00:00	2024-11-08T17:00:00	4	Temperatura máxima	16.1
133055	7	Sololá	701	Sololá	4	Finca Santa Victoria	9	Septiembre	2023-09-27T00:00:00	2024-11-08T17:00:00	3	Temperatura mínima	15.5
133056	7	Sololá	701	Sololá	4	Finca Santa Victoria	9	Septiembre	2023-09-27T00:00:00	2024-11-08T17:00:00	5	Humedad	96
133057	7	Sololá	701	Sololá	4	Finca Santa Victoria	9	Septiembre	2023-09-27T00:00:00	2024-11-08T17:00:00	6	Velocidad del viento	0
133058	7	Sololá	701	Sololá	4	Finca Santa Victoria	9	Septiembre	2023-09-27T00:00:00	2024-11-08T17:00:00	7	Dirección del viento	0
133059	7	Sololá	701	Sololá	4	Finca Santa Victoria	9	Septiembre	2023-09-27T00:00:00	2024-11-08T17:00:00	1	Precipitación	0.8
133060	7	Sololá	701	Sololá	4	Finca Santa Victoria	9	Septiembre	2023-09-27T00:00:00	2024-11-08T17:00:00	8	Radiación solar	5
133061	7	Sololá	701	Sololá	4	Finca Santa Victoria	9	Septiembre	2023-09-27T00:00:00	2024-11-08T18:00:00	2	Temperatura media	14.7
133062	7	Sololá	701	Sololá	4	Finca Santa Victoria	9	Septiembre	2023-09-27T00:00:00	2024-11-08T18:00:00	4	Temperatura máxima	15.5
133063	7	Sololá	701	Sololá	4	Finca Santa Victoria	9	Septiembre	2023-09-27T00:00:00	2024-11-08T18:00:00	3	Temperatura mínima	14.7
133064	7	Sololá	701	Sololá	4	Finca Santa Victoria	9	Septiembre	2023-09-27T00:00:00	2024-11-08T18:00:00	5	Humedad	96
133065	7	Sololá	701	Sololá	4	Finca Santa Victoria	9	Septiembre	2023-09-27T00:00:00	2024-11-08T18:00:00	6	Velocidad del viento	0
133066	7	Sololá	701	Sololá	4	Finca Santa Victoria	9	Septiembre	2023-09-27T00:00:00	2024-11-08T18:00:00	7	Dirección del viento	0
133067	7	Sololá	701	Sololá	4	Finca Santa Victoria	9	Septiembre	2023-09-27T00:00:00	2024-11-08T18:00:00	1	Precipitación	0
133068	7	Sololá	701	Sololá	4	Finca Santa Victoria	9	Septiembre	2023-09-27T00:00:00	2024-11-08T18:00:00	8	Radiación solar	3
133069	7	Sololá	701	Sololá	4	Finca Santa Victoria	9	Septiembre	2023-09-27T00:00:00	2024-11-08T19:00:00	2	Temperatura media	14.3
133070	7	Sololá	701	Sololá	4	Finca Santa Victoria	9	Septiembre	2023-09-27T00:00:00	2024-11-08T19:00:00	4	Temperatura máxima	14.7
133071	7	Sololá	701	Sololá	4	Finca Santa Victoria	9	Septiembre	2023-09-27T00:00:00	2024-11-08T19:00:00	3	Temperatura mínima	14.2
133072	7	Sololá	701	Sololá	4	Finca Santa Victoria	9	Septiembre	2023-09-27T00:00:00	2024-11-08T19:00:00	5	Humedad	97
133073	7	Sololá	701	Sololá	4	Finca Santa Victoria	9	Septiembre	2023-09-27T00:00:00	2024-11-08T19:00:00	6	Velocidad del viento	0
133074	7	Sololá	701	Sololá	4	Finca Santa Victoria	9	Septiembre	2023-09-27T00:00:00	2024-11-08T19:00:00	7	Dirección del viento	0
133075	7	Sololá	701	Sololá	4	Finca Santa Victoria	9	Septiembre	2023-09-27T00:00:00	2024-11-08T19:00:00	1	Precipitación	0.2
133076	7	Sololá	701	Sololá	4	Finca Santa Victoria	9	Septiembre	2023-09-27T00:00:00	2024-11-08T19:00:00	8	Radiación solar	0
133077	7	Sololá	701	Sololá	4	Finca Santa Victoria	9	Septiembre	2023-09-27T00:00:00	2024-11-08T20:00:00	2	Temperatura media	13.7
133078	7	Sololá	701	Sololá	4	Finca Santa Victoria	9	Septiembre	2023-09-27T00:00:00	2024-11-08T20:00:00	4	Temperatura máxima	14.3
133079	7	Sololá	701	Sololá	4	Finca Santa Victoria	9	Septiembre	2023-09-27T00:00:00	2024-11-08T20:00:00	3	Temperatura mínima	13.7
133080	7	Sololá	701	Sololá	4	Finca Santa Victoria	9	Septiembre	2023-09-27T00:00:00	2024-11-08T20:00:00	5	Humedad	97
133081	7	Sololá	701	Sololá	4	Finca Santa Victoria	9	Septiembre	2023-09-27T00:00:00	2024-11-08T20:00:00	6	Velocidad del viento	0
133082	7	Sololá	701	Sololá	4	Finca Santa Victoria	9	Septiembre	2023-09-27T00:00:00	2024-11-08T20:00:00	7	Dirección del viento	0
133083	7	Sololá	701	Sololá	4	Finca Santa Victoria	9	Septiembre	2023-09-27T00:00:00	2024-11-08T20:00:00	1	Precipitación	0
133084	7	Sololá	701	Sololá	4	Finca Santa Victoria	9	Septiembre	2023-09-27T00:00:00	2024-11-08T20:00:00	8	Radiación solar	0
133085	7	Sololá	701	Sololá	4	Finca Santa Victoria	9	Septiembre	2023-09-27T00:00:00	2024-11-08T21:00:00	2	Temperatura media	12.8
133086	7	Sololá	701	Sololá	4	Finca Santa Victoria	9	Septiembre	2023-09-27T00:00:00	2024-11-08T21:00:00	4	Temperatura máxima	13.7
133087	7	Sololá	701	Sololá	4	Finca Santa Victoria	9	Septiembre	2023-09-27T00:00:00	2024-11-08T21:00:00	3	Temperatura mínima	12.8
133088	7	Sololá	701	Sololá	4	Finca Santa Victoria	9	Septiembre	2023-09-27T00:00:00	2024-11-08T21:00:00	5	Humedad	96
133089	7	Sololá	701	Sololá	4	Finca Santa Victoria	9	Septiembre	2023-09-27T00:00:00	2024-11-08T21:00:00	6	Velocidad del viento	0
133090	7	Sololá	701	Sololá	4	Finca Santa Victoria	9	Septiembre	2023-09-27T00:00:00	2024-11-08T21:00:00	7	Dirección del viento	0
133091	7	Sololá	701	Sololá	4	Finca Santa Victoria	9	Septiembre	2023-09-27T00:00:00	2024-11-08T21:00:00	1	Precipitación	0
133092	7	Sololá	701	Sololá	4	Finca Santa Victoria	9	Septiembre	2023-09-27T00:00:00	2024-11-08T21:00:00	8	Radiación solar	0
133093	7	Sololá	701	Sololá	4	Finca Santa Victoria	9	Septiembre	2023-09-27T00:00:00	2024-11-08T22:00:00	2	Temperatura media	12.5
133094	7	Sololá	701	Sololá	4	Finca Santa Victoria	9	Septiembre	2023-09-27T00:00:00	2024-11-08T22:00:00	4	Temperatura máxima	12.9
133095	7	Sololá	701	Sololá	4	Finca Santa Victoria	9	Septiembre	2023-09-27T00:00:00	2024-11-08T22:00:00	3	Temperatura mínima	12.5
133096	7	Sololá	701	Sololá	4	Finca Santa Victoria	9	Septiembre	2023-09-27T00:00:00	2024-11-08T22:00:00	5	Humedad	96
133097	7	Sololá	701	Sololá	4	Finca Santa Victoria	9	Septiembre	2023-09-27T00:00:00	2024-11-08T22:00:00	6	Velocidad del viento	0
133098	7	Sololá	701	Sololá	4	Finca Santa Victoria	9	Septiembre	2023-09-27T00:00:00	2024-11-08T22:00:00	7	Dirección del viento	0
133099	7	Sololá	701	Sololá	4	Finca Santa Victoria	9	Septiembre	2023-09-27T00:00:00	2024-11-08T22:00:00	1	Precipitación	0
133100	7	Sololá	701	Sololá	4	Finca Santa Victoria	9	Septiembre	2023-09-27T00:00:00	2024-11-08T22:00:00	8	Radiación solar	0
133101	7	Sololá	701	Sololá	4	Finca Santa Victoria	9	Septiembre	2023-09-27T00:00:00	2024-11-08T23:00:00	2	Temperatura media	12.6
133102	7	Sololá	701	Sololá	4	Finca Santa Victoria	9	Septiembre	2023-09-27T00:00:00	2024-11-08T23:00:00	4	Temperatura máxima	12.7
133103	7	Sololá	701	Sololá	4	Finca Santa Victoria	9	Septiembre	2023-09-27T00:00:00	2024-11-08T23:00:00	3	Temperatura mínima	12.5
133104	7	Sololá	701	Sololá	4	Finca Santa Victoria	9	Septiembre	2023-09-27T00:00:00	2024-11-08T23:00:00	5	Humedad	96
133105	7	Sololá	701	Sololá	4	Finca Santa Victoria	9	Septiembre	2023-09-27T00:00:00	2024-11-08T23:00:00	6	Velocidad del viento	0
133106	7	Sololá	701	Sololá	4	Finca Santa Victoria	9	Septiembre	2023-09-27T00:00:00	2024-11-08T23:00:00	7	Dirección del viento	0
133107	7	Sololá	701	Sololá	4	Finca Santa Victoria	9	Septiembre	2023-09-27T00:00:00	2024-11-08T23:00:00	1	Precipitación	0
133108	7	Sololá	701	Sololá	4	Finca Santa Victoria	9	Septiembre	2023-09-27T00:00:00	2024-11-08T23:00:00	8	Radiación solar	0
133109	7	Sololá	701	Sololá	4	Finca Santa Victoria	9	Septiembre	2023-09-28T00:00:00	2024-11-08T00:00:00	2	Temperatura media	12.6
133110	7	Sololá	701	Sololá	4	Finca Santa Victoria	9	Septiembre	2023-09-28T00:00:00	2024-11-08T00:00:00	4	Temperatura máxima	12.7
133111	7	Sololá	701	Sololá	4	Finca Santa Victoria	9	Septiembre	2023-09-28T00:00:00	2024-11-08T00:00:00	3	Temperatura mínima	12.4
133112	7	Sololá	701	Sololá	4	Finca Santa Victoria	9	Septiembre	2023-09-28T00:00:00	2024-11-08T00:00:00	5	Humedad	97
133113	7	Sololá	701	Sololá	4	Finca Santa Victoria	9	Septiembre	2023-09-28T00:00:00	2024-11-08T00:00:00	6	Velocidad del viento	0
133114	7	Sololá	701	Sololá	4	Finca Santa Victoria	9	Septiembre	2023-09-28T00:00:00	2024-11-08T00:00:00	7	Dirección del viento	0
133115	7	Sololá	701	Sololá	4	Finca Santa Victoria	9	Septiembre	2023-09-28T00:00:00	2024-11-08T00:00:00	1	Precipitación	0
133116	7	Sololá	701	Sololá	4	Finca Santa Victoria	9	Septiembre	2023-09-28T00:00:00	2024-11-08T00:00:00	8	Radiación solar	0
133117	7	Sololá	701	Sololá	4	Finca Santa Victoria	9	Septiembre	2023-09-28T00:00:00	2024-11-08T01:00:00	2	Temperatura media	12.6
133118	7	Sololá	701	Sololá	4	Finca Santa Victoria	9	Septiembre	2023-09-28T00:00:00	2024-11-08T01:00:00	4	Temperatura máxima	12.7
133119	7	Sololá	701	Sololá	4	Finca Santa Victoria	9	Septiembre	2023-09-28T00:00:00	2024-11-08T01:00:00	3	Temperatura mínima	12.4
133120	7	Sololá	701	Sololá	4	Finca Santa Victoria	9	Septiembre	2023-09-28T00:00:00	2024-11-08T01:00:00	5	Humedad	97
133121	7	Sololá	701	Sololá	4	Finca Santa Victoria	9	Septiembre	2023-09-28T00:00:00	2024-11-08T01:00:00	6	Velocidad del viento	0
133122	7	Sololá	701	Sololá	4	Finca Santa Victoria	9	Septiembre	2023-09-28T00:00:00	2024-11-08T01:00:00	7	Dirección del viento	0
133123	7	Sololá	701	Sololá	4	Finca Santa Victoria	9	Septiembre	2023-09-28T00:00:00	2024-11-08T01:00:00	1	Precipitación	0
133124	7	Sololá	701	Sololá	4	Finca Santa Victoria	9	Septiembre	2023-09-28T00:00:00	2024-11-08T01:00:00	8	Radiación solar	0
133125	7	Sololá	701	Sololá	4	Finca Santa Victoria	9	Septiembre	2023-09-28T00:00:00	2024-11-08T02:00:00	2	Temperatura media	12.2
133126	7	Sololá	701	Sololá	4	Finca Santa Victoria	9	Septiembre	2023-09-28T00:00:00	2024-11-08T02:00:00	4	Temperatura máxima	12.6
133127	7	Sololá	701	Sololá	4	Finca Santa Victoria	9	Septiembre	2023-09-28T00:00:00	2024-11-08T02:00:00	3	Temperatura mínima	12.2
133128	7	Sololá	701	Sololá	4	Finca Santa Victoria	9	Septiembre	2023-09-28T00:00:00	2024-11-08T02:00:00	5	Humedad	97
133129	7	Sololá	701	Sololá	4	Finca Santa Victoria	9	Septiembre	2023-09-28T00:00:00	2024-11-08T02:00:00	6	Velocidad del viento	0
133130	7	Sololá	701	Sololá	4	Finca Santa Victoria	9	Septiembre	2023-09-28T00:00:00	2024-11-08T02:00:00	7	Dirección del viento	0
133131	7	Sololá	701	Sololá	4	Finca Santa Victoria	9	Septiembre	2023-09-28T00:00:00	2024-11-08T02:00:00	1	Precipitación	0
133132	7	Sololá	701	Sololá	4	Finca Santa Victoria	9	Septiembre	2023-09-28T00:00:00	2024-11-08T02:00:00	8	Radiación solar	0
133133	7	Sololá	701	Sololá	4	Finca Santa Victoria	9	Septiembre	2023-09-28T00:00:00	2024-11-08T03:00:00	2	Temperatura media	12.4
133134	7	Sololá	701	Sololá	4	Finca Santa Victoria	9	Septiembre	2023-09-28T00:00:00	2024-11-08T03:00:00	4	Temperatura máxima	12.4
133135	7	Sololá	701	Sololá	4	Finca Santa Victoria	9	Septiembre	2023-09-28T00:00:00	2024-11-08T03:00:00	3	Temperatura mínima	12
133136	7	Sololá	701	Sololá	4	Finca Santa Victoria	9	Septiembre	2023-09-28T00:00:00	2024-11-08T03:00:00	5	Humedad	97
133137	7	Sololá	701	Sololá	4	Finca Santa Victoria	9	Septiembre	2023-09-28T00:00:00	2024-11-08T03:00:00	6	Velocidad del viento	0
133138	7	Sololá	701	Sololá	4	Finca Santa Victoria	9	Septiembre	2023-09-28T00:00:00	2024-11-08T03:00:00	7	Dirección del viento	0
133139	7	Sololá	701	Sololá	4	Finca Santa Victoria	9	Septiembre	2023-09-28T00:00:00	2024-11-08T03:00:00	1	Precipitación	0
133140	7	Sololá	701	Sololá	4	Finca Santa Victoria	9	Septiembre	2023-09-28T00:00:00	2024-11-08T03:00:00	8	Radiación solar	0
133141	7	Sololá	701	Sololá	4	Finca Santa Victoria	9	Septiembre	2023-09-28T00:00:00	2024-11-08T04:00:00	2	Temperatura media	12.2
133142	7	Sololá	701	Sololá	4	Finca Santa Victoria	9	Septiembre	2023-09-28T00:00:00	2024-11-08T04:00:00	4	Temperatura máxima	12.4
133143	7	Sololá	701	Sololá	4	Finca Santa Victoria	9	Septiembre	2023-09-28T00:00:00	2024-11-08T04:00:00	3	Temperatura mínima	12.2
133144	7	Sololá	701	Sololá	4	Finca Santa Victoria	9	Septiembre	2023-09-28T00:00:00	2024-11-08T04:00:00	5	Humedad	97
133145	7	Sololá	701	Sololá	4	Finca Santa Victoria	9	Septiembre	2023-09-28T00:00:00	2024-11-08T04:00:00	6	Velocidad del viento	0
133146	7	Sololá	701	Sololá	4	Finca Santa Victoria	9	Septiembre	2023-09-28T00:00:00	2024-11-08T04:00:00	7	Dirección del viento	0
133147	7	Sololá	701	Sololá	4	Finca Santa Victoria	9	Septiembre	2023-09-28T00:00:00	2024-11-08T04:00:00	1	Precipitación	0
133148	7	Sololá	701	Sololá	4	Finca Santa Victoria	9	Septiembre	2023-09-28T00:00:00	2024-11-08T04:00:00	8	Radiación solar	0
133149	7	Sololá	701	Sololá	4	Finca Santa Victoria	9	Septiembre	2023-09-28T00:00:00	2024-11-08T05:00:00	2	Temperatura media	12.1
133150	7	Sololá	701	Sololá	4	Finca Santa Victoria	9	Septiembre	2023-09-28T00:00:00	2024-11-08T05:00:00	4	Temperatura máxima	12.4
133151	7	Sololá	701	Sololá	4	Finca Santa Victoria	9	Septiembre	2023-09-28T00:00:00	2024-11-08T05:00:00	3	Temperatura mínima	12.1
133152	7	Sololá	701	Sololá	4	Finca Santa Victoria	9	Septiembre	2023-09-28T00:00:00	2024-11-08T05:00:00	5	Humedad	97
133153	7	Sololá	701	Sololá	4	Finca Santa Victoria	9	Septiembre	2023-09-28T00:00:00	2024-11-08T05:00:00	6	Velocidad del viento	0
133154	7	Sololá	701	Sololá	4	Finca Santa Victoria	9	Septiembre	2023-09-28T00:00:00	2024-11-08T05:00:00	7	Dirección del viento	0
133155	7	Sololá	701	Sololá	4	Finca Santa Victoria	9	Septiembre	2023-09-28T00:00:00	2024-11-08T05:00:00	1	Precipitación	0
133156	7	Sololá	701	Sololá	4	Finca Santa Victoria	9	Septiembre	2023-09-28T00:00:00	2024-11-08T05:00:00	8	Radiación solar	0
133157	7	Sololá	701	Sololá	4	Finca Santa Victoria	9	Septiembre	2023-09-28T00:00:00	2024-11-08T06:00:00	2	Temperatura media	12.1
133158	7	Sololá	701	Sololá	4	Finca Santa Victoria	9	Septiembre	2023-09-28T00:00:00	2024-11-08T06:00:00	4	Temperatura máxima	12.2
133159	7	Sololá	701	Sololá	4	Finca Santa Victoria	9	Septiembre	2023-09-28T00:00:00	2024-11-08T06:00:00	3	Temperatura mínima	12
133160	7	Sololá	701	Sololá	4	Finca Santa Victoria	9	Septiembre	2023-09-28T00:00:00	2024-11-08T06:00:00	5	Humedad	97
133161	7	Sololá	701	Sololá	4	Finca Santa Victoria	9	Septiembre	2023-09-28T00:00:00	2024-11-08T06:00:00	6	Velocidad del viento	0
133162	7	Sololá	701	Sololá	4	Finca Santa Victoria	9	Septiembre	2023-09-28T00:00:00	2024-11-08T06:00:00	7	Dirección del viento	0
133163	7	Sololá	701	Sololá	4	Finca Santa Victoria	9	Septiembre	2023-09-28T00:00:00	2024-11-08T06:00:00	1	Precipitación	0.2
133164	7	Sololá	701	Sololá	4	Finca Santa Victoria	9	Septiembre	2023-09-28T00:00:00	2024-11-08T06:00:00	8	Radiación solar	0
133165	7	Sololá	701	Sololá	4	Finca Santa Victoria	9	Septiembre	2023-09-28T00:00:00	2024-11-08T07:00:00	2	Temperatura media	12.3
133166	7	Sololá	701	Sololá	4	Finca Santa Victoria	9	Septiembre	2023-09-28T00:00:00	2024-11-08T07:00:00	4	Temperatura máxima	12.3
133167	7	Sololá	701	Sololá	4	Finca Santa Victoria	9	Septiembre	2023-09-28T00:00:00	2024-11-08T07:00:00	3	Temperatura mínima	11.9
133168	7	Sololá	701	Sololá	4	Finca Santa Victoria	9	Septiembre	2023-09-28T00:00:00	2024-11-08T07:00:00	5	Humedad	97
133169	7	Sololá	701	Sololá	4	Finca Santa Victoria	9	Septiembre	2023-09-28T00:00:00	2024-11-08T07:00:00	6	Velocidad del viento	0
133170	7	Sololá	701	Sololá	4	Finca Santa Victoria	9	Septiembre	2023-09-28T00:00:00	2024-11-08T07:00:00	7	Dirección del viento	0
133171	7	Sololá	701	Sololá	4	Finca Santa Victoria	9	Septiembre	2023-09-28T00:00:00	2024-11-08T07:00:00	1	Precipitación	0
133172	7	Sololá	701	Sololá	4	Finca Santa Victoria	9	Septiembre	2023-09-28T00:00:00	2024-11-08T07:00:00	8	Radiación solar	28
133173	7	Sololá	701	Sololá	4	Finca Santa Victoria	9	Septiembre	2023-09-28T00:00:00	2024-11-08T08:00:00	2	Temperatura media	16.2
133174	7	Sololá	701	Sololá	4	Finca Santa Victoria	9	Septiembre	2023-09-28T00:00:00	2024-11-08T08:00:00	4	Temperatura máxima	16.2
133175	7	Sololá	701	Sololá	4	Finca Santa Victoria	9	Septiembre	2023-09-28T00:00:00	2024-11-08T08:00:00	3	Temperatura mínima	12.3
133176	7	Sololá	701	Sololá	4	Finca Santa Victoria	9	Septiembre	2023-09-28T00:00:00	2024-11-08T08:00:00	5	Humedad	89
133177	7	Sololá	701	Sololá	4	Finca Santa Victoria	9	Septiembre	2023-09-28T00:00:00	2024-11-08T08:00:00	6	Velocidad del viento	0
133178	7	Sololá	701	Sololá	4	Finca Santa Victoria	9	Septiembre	2023-09-28T00:00:00	2024-11-08T08:00:00	7	Dirección del viento	0
133179	7	Sololá	701	Sololá	4	Finca Santa Victoria	9	Septiembre	2023-09-28T00:00:00	2024-11-08T08:00:00	1	Precipitación	0
133180	7	Sololá	701	Sololá	4	Finca Santa Victoria	9	Septiembre	2023-09-28T00:00:00	2024-11-08T08:00:00	8	Radiación solar	261
133181	7	Sololá	701	Sololá	4	Finca Santa Victoria	9	Septiembre	2023-09-28T00:00:00	2024-11-08T09:00:00	2	Temperatura media	17.7
133182	7	Sololá	701	Sololá	4	Finca Santa Victoria	9	Septiembre	2023-09-28T00:00:00	2024-11-08T09:00:00	4	Temperatura máxima	17.7
133183	7	Sololá	701	Sololá	4	Finca Santa Victoria	9	Septiembre	2023-09-28T00:00:00	2024-11-08T09:00:00	3	Temperatura mínima	16.2
133184	7	Sololá	701	Sololá	4	Finca Santa Victoria	9	Septiembre	2023-09-28T00:00:00	2024-11-08T09:00:00	5	Humedad	83
133185	7	Sololá	701	Sololá	4	Finca Santa Victoria	9	Septiembre	2023-09-28T00:00:00	2024-11-08T09:00:00	6	Velocidad del viento	1.6
133186	7	Sololá	701	Sololá	4	Finca Santa Victoria	9	Septiembre	2023-09-28T00:00:00	2024-11-08T09:00:00	7	Dirección del viento	1.61
133187	7	Sololá	701	Sololá	4	Finca Santa Victoria	9	Septiembre	2023-09-28T00:00:00	2024-11-08T09:00:00	1	Precipitación	0
133188	7	Sololá	701	Sololá	4	Finca Santa Victoria	9	Septiembre	2023-09-28T00:00:00	2024-11-08T09:00:00	8	Radiación solar	596
133189	7	Sololá	701	Sololá	4	Finca Santa Victoria	9	Septiembre	2023-09-28T00:00:00	2024-11-08T10:00:00	2	Temperatura media	18.4
133190	7	Sololá	701	Sololá	4	Finca Santa Victoria	9	Septiembre	2023-09-28T00:00:00	2024-11-08T10:00:00	4	Temperatura máxima	18.4
133191	7	Sololá	701	Sololá	4	Finca Santa Victoria	9	Septiembre	2023-09-28T00:00:00	2024-11-08T10:00:00	3	Temperatura mínima	17.7
133192	7	Sololá	701	Sololá	4	Finca Santa Victoria	9	Septiembre	2023-09-28T00:00:00	2024-11-08T10:00:00	5	Humedad	83
133193	7	Sololá	701	Sololá	4	Finca Santa Victoria	9	Septiembre	2023-09-28T00:00:00	2024-11-08T10:00:00	6	Velocidad del viento	1.6
133194	7	Sololá	701	Sololá	4	Finca Santa Victoria	9	Septiembre	2023-09-28T00:00:00	2024-11-08T10:00:00	7	Dirección del viento	1.61
133195	7	Sololá	701	Sololá	4	Finca Santa Victoria	9	Septiembre	2023-09-28T00:00:00	2024-11-08T10:00:00	1	Precipitación	0
133196	7	Sololá	701	Sololá	4	Finca Santa Victoria	9	Septiembre	2023-09-28T00:00:00	2024-11-08T10:00:00	8	Radiación solar	847
133197	7	Sololá	701	Sololá	4	Finca Santa Victoria	9	Septiembre	2023-09-28T00:00:00	2024-11-08T11:00:00	2	Temperatura media	19.6
133198	7	Sololá	701	Sololá	4	Finca Santa Victoria	9	Septiembre	2023-09-28T00:00:00	2024-11-08T11:00:00	4	Temperatura máxima	19.6
133199	7	Sololá	701	Sololá	4	Finca Santa Victoria	9	Septiembre	2023-09-28T00:00:00	2024-11-08T11:00:00	3	Temperatura mínima	18.5
133200	7	Sololá	701	Sololá	4	Finca Santa Victoria	9	Septiembre	2023-09-28T00:00:00	2024-11-08T11:00:00	5	Humedad	77
133201	7	Sololá	701	Sololá	4	Finca Santa Victoria	9	Septiembre	2023-09-28T00:00:00	2024-11-08T11:00:00	6	Velocidad del viento	1.6
133202	7	Sololá	701	Sololá	4	Finca Santa Victoria	9	Septiembre	2023-09-28T00:00:00	2024-11-08T11:00:00	7	Dirección del viento	1.61
133203	7	Sololá	701	Sololá	4	Finca Santa Victoria	9	Septiembre	2023-09-28T00:00:00	2024-11-08T11:00:00	1	Precipitación	0
133204	7	Sololá	701	Sololá	4	Finca Santa Victoria	9	Septiembre	2023-09-28T00:00:00	2024-11-08T11:00:00	8	Radiación solar	952
133205	7	Sololá	701	Sololá	4	Finca Santa Victoria	9	Septiembre	2023-09-28T00:00:00	2024-11-08T12:00:00	2	Temperatura media	19.3
133206	7	Sololá	701	Sololá	4	Finca Santa Victoria	9	Septiembre	2023-09-28T00:00:00	2024-11-08T12:00:00	4	Temperatura máxima	19.7
133207	7	Sololá	701	Sololá	4	Finca Santa Victoria	9	Septiembre	2023-09-28T00:00:00	2024-11-08T12:00:00	3	Temperatura mínima	18.8
133208	7	Sololá	701	Sololá	4	Finca Santa Victoria	9	Septiembre	2023-09-28T00:00:00	2024-11-08T12:00:00	5	Humedad	79
133209	7	Sololá	701	Sololá	4	Finca Santa Victoria	9	Septiembre	2023-09-28T00:00:00	2024-11-08T12:00:00	6	Velocidad del viento	1.6
133210	7	Sololá	701	Sololá	4	Finca Santa Victoria	9	Septiembre	2023-09-28T00:00:00	2024-11-08T12:00:00	7	Dirección del viento	1.61
133211	7	Sololá	701	Sololá	4	Finca Santa Victoria	9	Septiembre	2023-09-28T00:00:00	2024-11-08T12:00:00	1	Precipitación	0
133212	7	Sololá	701	Sololá	4	Finca Santa Victoria	9	Septiembre	2023-09-28T00:00:00	2024-11-08T12:00:00	8	Radiación solar	253
133213	7	Sololá	701	Sololá	4	Finca Santa Victoria	9	Septiembre	2023-09-28T00:00:00	2024-11-08T13:00:00	2	Temperatura media	21.5
133214	7	Sololá	701	Sololá	4	Finca Santa Victoria	9	Septiembre	2023-09-28T00:00:00	2024-11-08T13:00:00	4	Temperatura máxima	21.8
133215	7	Sololá	701	Sololá	4	Finca Santa Victoria	9	Septiembre	2023-09-28T00:00:00	2024-11-08T13:00:00	3	Temperatura mínima	19.3
133216	7	Sololá	701	Sololá	4	Finca Santa Victoria	9	Septiembre	2023-09-28T00:00:00	2024-11-08T13:00:00	5	Humedad	73
133217	7	Sololá	701	Sololá	4	Finca Santa Victoria	9	Septiembre	2023-09-28T00:00:00	2024-11-08T13:00:00	6	Velocidad del viento	1.6
133218	7	Sololá	701	Sololá	4	Finca Santa Victoria	9	Septiembre	2023-09-28T00:00:00	2024-11-08T13:00:00	7	Dirección del viento	1.61
133219	7	Sololá	701	Sololá	4	Finca Santa Victoria	9	Septiembre	2023-09-28T00:00:00	2024-11-08T13:00:00	1	Precipitación	0
133220	7	Sololá	701	Sololá	4	Finca Santa Victoria	9	Septiembre	2023-09-28T00:00:00	2024-11-08T13:00:00	8	Radiación solar	511
133221	7	Sololá	701	Sololá	4	Finca Santa Victoria	9	Septiembre	2023-09-28T00:00:00	2024-11-08T14:00:00	2	Temperatura media	19.3
133222	7	Sololá	701	Sololá	4	Finca Santa Victoria	9	Septiembre	2023-09-28T00:00:00	2024-11-08T14:00:00	4	Temperatura máxima	21.5
133223	7	Sololá	701	Sololá	4	Finca Santa Victoria	9	Septiembre	2023-09-28T00:00:00	2024-11-08T14:00:00	3	Temperatura mínima	19.2
133224	7	Sololá	701	Sololá	4	Finca Santa Victoria	9	Septiembre	2023-09-28T00:00:00	2024-11-08T14:00:00	5	Humedad	86
133225	7	Sololá	701	Sololá	4	Finca Santa Victoria	9	Septiembre	2023-09-28T00:00:00	2024-11-08T14:00:00	6	Velocidad del viento	1.6
133226	7	Sololá	701	Sololá	4	Finca Santa Victoria	9	Septiembre	2023-09-28T00:00:00	2024-11-08T14:00:00	7	Dirección del viento	1.61
133227	7	Sololá	701	Sololá	4	Finca Santa Victoria	9	Septiembre	2023-09-28T00:00:00	2024-11-08T14:00:00	1	Precipitación	0
133228	7	Sololá	701	Sololá	4	Finca Santa Victoria	9	Septiembre	2023-09-28T00:00:00	2024-11-08T14:00:00	8	Radiación solar	169
133229	7	Sololá	701	Sololá	4	Finca Santa Victoria	9	Septiembre	2023-09-28T00:00:00	2024-11-08T15:00:00	2	Temperatura media	17.4
133230	7	Sololá	701	Sololá	4	Finca Santa Victoria	9	Septiembre	2023-09-28T00:00:00	2024-11-08T15:00:00	4	Temperatura máxima	19.3
133231	7	Sololá	701	Sololá	4	Finca Santa Victoria	9	Septiembre	2023-09-28T00:00:00	2024-11-08T15:00:00	3	Temperatura mínima	17.2
133232	7	Sololá	701	Sololá	4	Finca Santa Victoria	9	Septiembre	2023-09-28T00:00:00	2024-11-08T15:00:00	5	Humedad	92
133233	7	Sololá	701	Sololá	4	Finca Santa Victoria	9	Septiembre	2023-09-28T00:00:00	2024-11-08T15:00:00	6	Velocidad del viento	1.6
133234	7	Sololá	701	Sololá	4	Finca Santa Victoria	9	Septiembre	2023-09-28T00:00:00	2024-11-08T15:00:00	7	Dirección del viento	1.61
133235	7	Sololá	701	Sololá	4	Finca Santa Victoria	9	Septiembre	2023-09-28T00:00:00	2024-11-08T15:00:00	1	Precipitación	0
133236	7	Sololá	701	Sololá	4	Finca Santa Victoria	9	Septiembre	2023-09-28T00:00:00	2024-11-08T15:00:00	8	Radiación solar	102
133237	7	Sololá	701	Sololá	4	Finca Santa Victoria	9	Septiembre	2023-09-28T00:00:00	2024-11-08T16:00:00	2	Temperatura media	16.9
133238	7	Sololá	701	Sololá	4	Finca Santa Victoria	9	Septiembre	2023-09-28T00:00:00	2024-11-08T16:00:00	4	Temperatura máxima	18.3
133239	7	Sololá	701	Sololá	4	Finca Santa Victoria	9	Septiembre	2023-09-28T00:00:00	2024-11-08T16:00:00	3	Temperatura mínima	16.9
133240	7	Sololá	701	Sololá	4	Finca Santa Victoria	9	Septiembre	2023-09-28T00:00:00	2024-11-08T16:00:00	5	Humedad	90
133241	7	Sololá	701	Sololá	4	Finca Santa Victoria	9	Septiembre	2023-09-28T00:00:00	2024-11-08T16:00:00	6	Velocidad del viento	1.6
133242	7	Sololá	701	Sololá	4	Finca Santa Victoria	9	Septiembre	2023-09-28T00:00:00	2024-11-08T16:00:00	7	Dirección del viento	1.61
133243	7	Sololá	701	Sololá	4	Finca Santa Victoria	9	Septiembre	2023-09-28T00:00:00	2024-11-08T16:00:00	1	Precipitación	0
133244	7	Sololá	701	Sololá	4	Finca Santa Victoria	9	Septiembre	2023-09-28T00:00:00	2024-11-08T16:00:00	8	Radiación solar	162
133245	7	Sololá	701	Sololá	4	Finca Santa Victoria	9	Septiembre	2023-09-28T00:00:00	2024-11-08T17:00:00	2	Temperatura media	15.9
133246	7	Sololá	701	Sololá	4	Finca Santa Victoria	9	Septiembre	2023-09-28T00:00:00	2024-11-08T17:00:00	4	Temperatura máxima	16.9
133247	7	Sololá	701	Sololá	4	Finca Santa Victoria	9	Septiembre	2023-09-28T00:00:00	2024-11-08T17:00:00	3	Temperatura mínima	15.9
133248	7	Sololá	701	Sololá	4	Finca Santa Victoria	9	Septiembre	2023-09-28T00:00:00	2024-11-08T17:00:00	5	Humedad	94
133249	7	Sololá	701	Sololá	4	Finca Santa Victoria	9	Septiembre	2023-09-28T00:00:00	2024-11-08T17:00:00	6	Velocidad del viento	0
133250	7	Sololá	701	Sololá	4	Finca Santa Victoria	9	Septiembre	2023-09-28T00:00:00	2024-11-08T17:00:00	7	Dirección del viento	0
133251	7	Sololá	701	Sololá	4	Finca Santa Victoria	9	Septiembre	2023-09-28T00:00:00	2024-11-08T17:00:00	1	Precipitación	0
133252	7	Sololá	701	Sololá	4	Finca Santa Victoria	9	Septiembre	2023-09-28T00:00:00	2024-11-08T17:00:00	8	Radiación solar	39
133253	7	Sololá	701	Sololá	4	Finca Santa Victoria	9	Septiembre	2023-09-28T00:00:00	2024-11-08T18:00:00	2	Temperatura media	15.4
133254	7	Sololá	701	Sololá	4	Finca Santa Victoria	9	Septiembre	2023-09-28T00:00:00	2024-11-08T18:00:00	4	Temperatura máxima	15.9
133255	7	Sololá	701	Sololá	4	Finca Santa Victoria	9	Septiembre	2023-09-28T00:00:00	2024-11-08T18:00:00	3	Temperatura mínima	15.4
133256	7	Sololá	701	Sololá	4	Finca Santa Victoria	9	Septiembre	2023-09-28T00:00:00	2024-11-08T18:00:00	5	Humedad	96
133257	7	Sololá	701	Sololá	4	Finca Santa Victoria	9	Septiembre	2023-09-28T00:00:00	2024-11-08T18:00:00	6	Velocidad del viento	0
133258	7	Sololá	701	Sololá	4	Finca Santa Victoria	9	Septiembre	2023-09-28T00:00:00	2024-11-08T18:00:00	7	Dirección del viento	0
133259	7	Sololá	701	Sololá	4	Finca Santa Victoria	9	Septiembre	2023-09-28T00:00:00	2024-11-08T18:00:00	1	Precipitación	0
133260	7	Sololá	701	Sololá	4	Finca Santa Victoria	9	Septiembre	2023-09-28T00:00:00	2024-11-08T18:00:00	8	Radiación solar	8
133261	7	Sololá	701	Sololá	4	Finca Santa Victoria	9	Septiembre	2023-09-28T00:00:00	2024-11-08T19:00:00	2	Temperatura media	14.9
133262	7	Sololá	701	Sololá	4	Finca Santa Victoria	9	Septiembre	2023-09-28T00:00:00	2024-11-08T19:00:00	4	Temperatura máxima	15.4
133263	7	Sololá	701	Sololá	4	Finca Santa Victoria	9	Septiembre	2023-09-28T00:00:00	2024-11-08T19:00:00	3	Temperatura mínima	14.9
133264	7	Sololá	701	Sololá	4	Finca Santa Victoria	9	Septiembre	2023-09-28T00:00:00	2024-11-08T19:00:00	5	Humedad	96
133265	7	Sololá	701	Sololá	4	Finca Santa Victoria	9	Septiembre	2023-09-28T00:00:00	2024-11-08T19:00:00	6	Velocidad del viento	0
133266	7	Sololá	701	Sololá	4	Finca Santa Victoria	9	Septiembre	2023-09-28T00:00:00	2024-11-08T19:00:00	7	Dirección del viento	0
133267	7	Sololá	701	Sololá	4	Finca Santa Victoria	9	Septiembre	2023-09-28T00:00:00	2024-11-08T19:00:00	1	Precipitación	0
133268	7	Sololá	701	Sololá	4	Finca Santa Victoria	9	Septiembre	2023-09-28T00:00:00	2024-11-08T19:00:00	8	Radiación solar	0
133269	7	Sololá	701	Sololá	4	Finca Santa Victoria	9	Septiembre	2023-09-28T00:00:00	2024-11-08T20:00:00	2	Temperatura media	14.1
133270	7	Sololá	701	Sololá	4	Finca Santa Victoria	9	Septiembre	2023-09-28T00:00:00	2024-11-08T20:00:00	4	Temperatura máxima	14.9
133271	7	Sololá	701	Sololá	4	Finca Santa Victoria	9	Septiembre	2023-09-28T00:00:00	2024-11-08T20:00:00	3	Temperatura mínima	14.1
133272	7	Sololá	701	Sololá	4	Finca Santa Victoria	9	Septiembre	2023-09-28T00:00:00	2024-11-08T20:00:00	5	Humedad	96
133273	7	Sololá	701	Sololá	4	Finca Santa Victoria	9	Septiembre	2023-09-28T00:00:00	2024-11-08T20:00:00	6	Velocidad del viento	0
133274	7	Sololá	701	Sololá	4	Finca Santa Victoria	9	Septiembre	2023-09-28T00:00:00	2024-11-08T20:00:00	7	Dirección del viento	0
133275	7	Sololá	701	Sololá	4	Finca Santa Victoria	9	Septiembre	2023-09-28T00:00:00	2024-11-08T20:00:00	1	Precipitación	0
133276	7	Sololá	701	Sololá	4	Finca Santa Victoria	9	Septiembre	2023-09-28T00:00:00	2024-11-08T20:00:00	8	Radiación solar	0
133277	7	Sololá	701	Sololá	4	Finca Santa Victoria	9	Septiembre	2023-09-28T00:00:00	2024-11-08T21:00:00	2	Temperatura media	13.9
133278	7	Sololá	701	Sololá	4	Finca Santa Victoria	9	Septiembre	2023-09-28T00:00:00	2024-11-08T21:00:00	4	Temperatura máxima	14.2
133279	7	Sololá	701	Sololá	4	Finca Santa Victoria	9	Septiembre	2023-09-28T00:00:00	2024-11-08T21:00:00	3	Temperatura mínima	13.8
133280	7	Sololá	701	Sololá	4	Finca Santa Victoria	9	Septiembre	2023-09-28T00:00:00	2024-11-08T21:00:00	5	Humedad	97
133281	7	Sololá	701	Sololá	4	Finca Santa Victoria	9	Septiembre	2023-09-28T00:00:00	2024-11-08T21:00:00	6	Velocidad del viento	0
133282	7	Sololá	701	Sololá	4	Finca Santa Victoria	9	Septiembre	2023-09-28T00:00:00	2024-11-08T21:00:00	7	Dirección del viento	0
133283	7	Sololá	701	Sololá	4	Finca Santa Victoria	9	Septiembre	2023-09-28T00:00:00	2024-11-08T21:00:00	1	Precipitación	0
133284	7	Sololá	701	Sololá	4	Finca Santa Victoria	9	Septiembre	2023-09-28T00:00:00	2024-11-08T21:00:00	8	Radiación solar	0
133285	7	Sololá	701	Sololá	4	Finca Santa Victoria	9	Septiembre	2023-09-28T00:00:00	2024-11-08T22:00:00	2	Temperatura media	14.2
133286	7	Sololá	701	Sololá	4	Finca Santa Victoria	9	Septiembre	2023-09-28T00:00:00	2024-11-08T22:00:00	4	Temperatura máxima	14.2
133287	7	Sololá	701	Sololá	4	Finca Santa Victoria	9	Septiembre	2023-09-28T00:00:00	2024-11-08T22:00:00	3	Temperatura mínima	13.8
133288	7	Sololá	701	Sololá	4	Finca Santa Victoria	9	Septiembre	2023-09-28T00:00:00	2024-11-08T22:00:00	5	Humedad	96
133289	7	Sololá	701	Sololá	4	Finca Santa Victoria	9	Septiembre	2023-09-28T00:00:00	2024-11-08T22:00:00	6	Velocidad del viento	0
133290	7	Sololá	701	Sololá	4	Finca Santa Victoria	9	Septiembre	2023-09-28T00:00:00	2024-11-08T22:00:00	7	Dirección del viento	0
133291	7	Sololá	701	Sololá	4	Finca Santa Victoria	9	Septiembre	2023-09-28T00:00:00	2024-11-08T22:00:00	1	Precipitación	0
133292	7	Sololá	701	Sololá	4	Finca Santa Victoria	9	Septiembre	2023-09-28T00:00:00	2024-11-08T22:00:00	8	Radiación solar	0
133293	7	Sololá	701	Sololá	4	Finca Santa Victoria	9	Septiembre	2023-09-28T00:00:00	2024-11-08T23:00:00	2	Temperatura media	13.4
133294	7	Sololá	701	Sololá	4	Finca Santa Victoria	9	Septiembre	2023-09-28T00:00:00	2024-11-08T23:00:00	4	Temperatura máxima	14.3
133295	7	Sololá	701	Sololá	4	Finca Santa Victoria	9	Septiembre	2023-09-28T00:00:00	2024-11-08T23:00:00	3	Temperatura mínima	13.4
133296	7	Sololá	701	Sololá	4	Finca Santa Victoria	9	Septiembre	2023-09-28T00:00:00	2024-11-08T23:00:00	5	Humedad	95
133297	7	Sololá	701	Sololá	4	Finca Santa Victoria	9	Septiembre	2023-09-28T00:00:00	2024-11-08T23:00:00	6	Velocidad del viento	1.6
133298	7	Sololá	701	Sololá	4	Finca Santa Victoria	9	Septiembre	2023-09-28T00:00:00	2024-11-08T23:00:00	7	Dirección del viento	1.61
133299	7	Sololá	701	Sololá	4	Finca Santa Victoria	9	Septiembre	2023-09-28T00:00:00	2024-11-08T23:00:00	1	Precipitación	0.8
133300	7	Sololá	701	Sololá	4	Finca Santa Victoria	9	Septiembre	2023-09-28T00:00:00	2024-11-08T23:00:00	8	Radiación solar	0
133301	7	Sololá	701	Sololá	4	Finca Santa Victoria	9	Septiembre	2023-09-29T00:00:00	2024-11-08T00:00:00	2	Temperatura media	12.2
133302	7	Sololá	701	Sololá	4	Finca Santa Victoria	9	Septiembre	2023-09-29T00:00:00	2024-11-08T00:00:00	4	Temperatura máxima	13.4
133303	7	Sololá	701	Sololá	4	Finca Santa Victoria	9	Septiembre	2023-09-29T00:00:00	2024-11-08T00:00:00	3	Temperatura mínima	12.2
133304	7	Sololá	701	Sololá	4	Finca Santa Victoria	9	Septiembre	2023-09-29T00:00:00	2024-11-08T00:00:00	5	Humedad	93
133305	7	Sololá	701	Sololá	4	Finca Santa Victoria	9	Septiembre	2023-09-29T00:00:00	2024-11-08T00:00:00	6	Velocidad del viento	1.6
133306	7	Sololá	701	Sololá	4	Finca Santa Victoria	9	Septiembre	2023-09-29T00:00:00	2024-11-08T00:00:00	7	Dirección del viento	1.61
133307	7	Sololá	701	Sololá	4	Finca Santa Victoria	9	Septiembre	2023-09-29T00:00:00	2024-11-08T00:00:00	1	Precipitación	0
133308	7	Sololá	701	Sololá	4	Finca Santa Victoria	9	Septiembre	2023-09-29T00:00:00	2024-11-08T00:00:00	8	Radiación solar	0
133309	7	Sololá	701	Sololá	4	Finca Santa Victoria	9	Septiembre	2023-09-29T00:00:00	2024-11-08T01:00:00	2	Temperatura media	11.6
133310	7	Sololá	701	Sololá	4	Finca Santa Victoria	9	Septiembre	2023-09-29T00:00:00	2024-11-08T01:00:00	4	Temperatura máxima	12.2
133311	7	Sololá	701	Sololá	4	Finca Santa Victoria	9	Septiembre	2023-09-29T00:00:00	2024-11-08T01:00:00	3	Temperatura mínima	11.6
133312	7	Sololá	701	Sololá	4	Finca Santa Victoria	9	Septiembre	2023-09-29T00:00:00	2024-11-08T01:00:00	5	Humedad	94
133313	7	Sololá	701	Sololá	4	Finca Santa Victoria	9	Septiembre	2023-09-29T00:00:00	2024-11-08T01:00:00	6	Velocidad del viento	0
133314	7	Sololá	701	Sololá	4	Finca Santa Victoria	9	Septiembre	2023-09-29T00:00:00	2024-11-08T01:00:00	7	Dirección del viento	0
133315	7	Sololá	701	Sololá	4	Finca Santa Victoria	9	Septiembre	2023-09-29T00:00:00	2024-11-08T01:00:00	1	Precipitación	0
133316	7	Sololá	701	Sololá	4	Finca Santa Victoria	9	Septiembre	2023-09-29T00:00:00	2024-11-08T01:00:00	8	Radiación solar	0
133317	7	Sololá	701	Sololá	4	Finca Santa Victoria	9	Septiembre	2023-09-29T00:00:00	2024-11-08T02:00:00	2	Temperatura media	11.3
133318	7	Sololá	701	Sololá	4	Finca Santa Victoria	9	Septiembre	2023-09-29T00:00:00	2024-11-08T02:00:00	4	Temperatura máxima	11.6
133319	7	Sololá	701	Sololá	4	Finca Santa Victoria	9	Septiembre	2023-09-29T00:00:00	2024-11-08T02:00:00	3	Temperatura mínima	11.3
133320	7	Sololá	701	Sololá	4	Finca Santa Victoria	9	Septiembre	2023-09-29T00:00:00	2024-11-08T02:00:00	5	Humedad	92
133321	7	Sololá	701	Sololá	4	Finca Santa Victoria	9	Septiembre	2023-09-29T00:00:00	2024-11-08T02:00:00	6	Velocidad del viento	0
133322	7	Sololá	701	Sololá	4	Finca Santa Victoria	9	Septiembre	2023-09-29T00:00:00	2024-11-08T02:00:00	7	Dirección del viento	0
133323	7	Sololá	701	Sololá	4	Finca Santa Victoria	9	Septiembre	2023-09-29T00:00:00	2024-11-08T02:00:00	1	Precipitación	0
133324	7	Sololá	701	Sololá	4	Finca Santa Victoria	9	Septiembre	2023-09-29T00:00:00	2024-11-08T02:00:00	8	Radiación solar	0
133325	7	Sololá	701	Sololá	4	Finca Santa Victoria	9	Septiembre	2023-09-29T00:00:00	2024-11-08T03:00:00	2	Temperatura media	11.3
133326	7	Sololá	701	Sololá	4	Finca Santa Victoria	9	Septiembre	2023-09-29T00:00:00	2024-11-08T03:00:00	4	Temperatura máxima	11.4
133327	7	Sololá	701	Sololá	4	Finca Santa Victoria	9	Septiembre	2023-09-29T00:00:00	2024-11-08T03:00:00	3	Temperatura mínima	11.3
133328	7	Sololá	701	Sololá	4	Finca Santa Victoria	9	Septiembre	2023-09-29T00:00:00	2024-11-08T03:00:00	5	Humedad	93
133329	7	Sololá	701	Sololá	4	Finca Santa Victoria	9	Septiembre	2023-09-29T00:00:00	2024-11-08T03:00:00	6	Velocidad del viento	0
133330	7	Sololá	701	Sololá	4	Finca Santa Victoria	9	Septiembre	2023-09-29T00:00:00	2024-11-08T03:00:00	7	Dirección del viento	0
133331	7	Sololá	701	Sololá	4	Finca Santa Victoria	9	Septiembre	2023-09-29T00:00:00	2024-11-08T03:00:00	1	Precipitación	0
133332	7	Sololá	701	Sololá	4	Finca Santa Victoria	9	Septiembre	2023-09-29T00:00:00	2024-11-08T03:00:00	8	Radiación solar	0
133333	7	Sololá	701	Sololá	4	Finca Santa Victoria	9	Septiembre	2023-09-29T00:00:00	2024-11-08T04:00:00	2	Temperatura media	11.6
133334	7	Sololá	701	Sololá	4	Finca Santa Victoria	9	Septiembre	2023-09-29T00:00:00	2024-11-08T04:00:00	4	Temperatura máxima	11.6
133335	7	Sololá	701	Sololá	4	Finca Santa Victoria	9	Septiembre	2023-09-29T00:00:00	2024-11-08T04:00:00	3	Temperatura mínima	11.3
133336	7	Sololá	701	Sololá	4	Finca Santa Victoria	9	Septiembre	2023-09-29T00:00:00	2024-11-08T04:00:00	5	Humedad	95
133337	7	Sololá	701	Sololá	4	Finca Santa Victoria	9	Septiembre	2023-09-29T00:00:00	2024-11-08T04:00:00	6	Velocidad del viento	0
133338	7	Sololá	701	Sololá	4	Finca Santa Victoria	9	Septiembre	2023-09-29T00:00:00	2024-11-08T04:00:00	7	Dirección del viento	0
133339	7	Sololá	701	Sololá	4	Finca Santa Victoria	9	Septiembre	2023-09-29T00:00:00	2024-11-08T04:00:00	1	Precipitación	0
133340	7	Sololá	701	Sololá	4	Finca Santa Victoria	9	Septiembre	2023-09-29T00:00:00	2024-11-08T04:00:00	8	Radiación solar	0
133341	7	Sololá	701	Sololá	4	Finca Santa Victoria	9	Septiembre	2023-09-29T00:00:00	2024-11-08T05:00:00	2	Temperatura media	11.5
133342	7	Sololá	701	Sololá	4	Finca Santa Victoria	9	Septiembre	2023-09-29T00:00:00	2024-11-08T05:00:00	4	Temperatura máxima	11.6
133343	7	Sololá	701	Sololá	4	Finca Santa Victoria	9	Septiembre	2023-09-29T00:00:00	2024-11-08T05:00:00	3	Temperatura mínima	11
133344	7	Sololá	701	Sololá	4	Finca Santa Victoria	9	Septiembre	2023-09-29T00:00:00	2024-11-08T05:00:00	5	Humedad	92
133345	7	Sololá	701	Sololá	4	Finca Santa Victoria	9	Septiembre	2023-09-29T00:00:00	2024-11-08T05:00:00	6	Velocidad del viento	0
133346	7	Sololá	701	Sololá	4	Finca Santa Victoria	9	Septiembre	2023-09-29T00:00:00	2024-11-08T05:00:00	7	Dirección del viento	0
133347	7	Sololá	701	Sololá	4	Finca Santa Victoria	9	Septiembre	2023-09-29T00:00:00	2024-11-08T05:00:00	1	Precipitación	0
133348	7	Sololá	701	Sololá	4	Finca Santa Victoria	9	Septiembre	2023-09-29T00:00:00	2024-11-08T05:00:00	8	Radiación solar	0
133349	7	Sololá	701	Sololá	4	Finca Santa Victoria	9	Septiembre	2023-09-29T00:00:00	2024-11-08T06:00:00	2	Temperatura media	11.6
133350	7	Sololá	701	Sololá	4	Finca Santa Victoria	9	Septiembre	2023-09-29T00:00:00	2024-11-08T06:00:00	4	Temperatura máxima	11.6
133351	7	Sololá	701	Sololá	4	Finca Santa Victoria	9	Septiembre	2023-09-29T00:00:00	2024-11-08T06:00:00	3	Temperatura mínima	11.2
133352	7	Sololá	701	Sololá	4	Finca Santa Victoria	9	Septiembre	2023-09-29T00:00:00	2024-11-08T06:00:00	5	Humedad	94
133353	7	Sololá	701	Sololá	4	Finca Santa Victoria	9	Septiembre	2023-09-29T00:00:00	2024-11-08T06:00:00	6	Velocidad del viento	0
133354	7	Sololá	701	Sololá	4	Finca Santa Victoria	9	Septiembre	2023-09-29T00:00:00	2024-11-08T06:00:00	7	Dirección del viento	0
133355	7	Sololá	701	Sololá	4	Finca Santa Victoria	9	Septiembre	2023-09-29T00:00:00	2024-11-08T06:00:00	1	Precipitación	0
133356	7	Sololá	701	Sololá	4	Finca Santa Victoria	9	Septiembre	2023-09-29T00:00:00	2024-11-08T06:00:00	8	Radiación solar	0
133357	7	Sololá	701	Sololá	4	Finca Santa Victoria	9	Septiembre	2023-09-29T00:00:00	2024-11-08T07:00:00	2	Temperatura media	13.1
133358	7	Sololá	701	Sololá	4	Finca Santa Victoria	9	Septiembre	2023-09-29T00:00:00	2024-11-08T07:00:00	4	Temperatura máxima	13.1
133359	7	Sololá	701	Sololá	4	Finca Santa Victoria	9	Septiembre	2023-09-29T00:00:00	2024-11-08T07:00:00	3	Temperatura mínima	11.5
133360	7	Sololá	701	Sololá	4	Finca Santa Victoria	9	Septiembre	2023-09-29T00:00:00	2024-11-08T07:00:00	5	Humedad	91
133361	7	Sololá	701	Sololá	4	Finca Santa Victoria	9	Septiembre	2023-09-29T00:00:00	2024-11-08T07:00:00	6	Velocidad del viento	0
133362	7	Sololá	701	Sololá	4	Finca Santa Victoria	9	Septiembre	2023-09-29T00:00:00	2024-11-08T07:00:00	7	Dirección del viento	0
133363	7	Sololá	701	Sololá	4	Finca Santa Victoria	9	Septiembre	2023-09-29T00:00:00	2024-11-08T07:00:00	1	Precipitación	0
133364	7	Sololá	701	Sololá	4	Finca Santa Victoria	9	Septiembre	2023-09-29T00:00:00	2024-11-08T07:00:00	8	Radiación solar	37
133365	7	Sololá	701	Sololá	4	Finca Santa Victoria	9	Septiembre	2023-09-29T00:00:00	2024-11-08T08:00:00	2	Temperatura media	16.6
133366	7	Sololá	701	Sololá	4	Finca Santa Victoria	9	Septiembre	2023-09-29T00:00:00	2024-11-08T08:00:00	4	Temperatura máxima	16.6
133367	7	Sololá	701	Sololá	4	Finca Santa Victoria	9	Septiembre	2023-09-29T00:00:00	2024-11-08T08:00:00	3	Temperatura mínima	13.1
133368	7	Sololá	701	Sololá	4	Finca Santa Victoria	9	Septiembre	2023-09-29T00:00:00	2024-11-08T08:00:00	5	Humedad	83
133369	7	Sololá	701	Sololá	4	Finca Santa Victoria	9	Septiembre	2023-09-29T00:00:00	2024-11-08T08:00:00	6	Velocidad del viento	0
133370	7	Sololá	701	Sololá	4	Finca Santa Victoria	9	Septiembre	2023-09-29T00:00:00	2024-11-08T08:00:00	7	Dirección del viento	0
133371	7	Sololá	701	Sololá	4	Finca Santa Victoria	9	Septiembre	2023-09-29T00:00:00	2024-11-08T08:00:00	1	Precipitación	0
133372	7	Sololá	701	Sololá	4	Finca Santa Victoria	9	Septiembre	2023-09-29T00:00:00	2024-11-08T08:00:00	8	Radiación solar	234
133373	7	Sololá	701	Sololá	4	Finca Santa Victoria	9	Septiembre	2023-09-29T00:00:00	2024-11-08T09:00:00	2	Temperatura media	19.9
133374	7	Sololá	701	Sololá	4	Finca Santa Victoria	9	Septiembre	2023-09-29T00:00:00	2024-11-08T09:00:00	4	Temperatura máxima	19.9
133375	7	Sololá	701	Sololá	4	Finca Santa Victoria	9	Septiembre	2023-09-29T00:00:00	2024-11-08T09:00:00	3	Temperatura mínima	16.6
133376	7	Sololá	701	Sololá	4	Finca Santa Victoria	9	Septiembre	2023-09-29T00:00:00	2024-11-08T09:00:00	5	Humedad	69
133377	7	Sololá	701	Sololá	4	Finca Santa Victoria	9	Septiembre	2023-09-29T00:00:00	2024-11-08T09:00:00	6	Velocidad del viento	0
133378	7	Sololá	701	Sololá	4	Finca Santa Victoria	9	Septiembre	2023-09-29T00:00:00	2024-11-08T09:00:00	7	Dirección del viento	0
133379	7	Sololá	701	Sololá	4	Finca Santa Victoria	9	Septiembre	2023-09-29T00:00:00	2024-11-08T09:00:00	1	Precipitación	0
133380	7	Sololá	701	Sololá	4	Finca Santa Victoria	9	Septiembre	2023-09-29T00:00:00	2024-11-08T09:00:00	8	Radiación solar	589
133381	7	Sololá	701	Sololá	4	Finca Santa Victoria	9	Septiembre	2023-09-29T00:00:00	2024-11-08T10:00:00	2	Temperatura media	20.6
133382	7	Sololá	701	Sololá	4	Finca Santa Victoria	9	Septiembre	2023-09-29T00:00:00	2024-11-08T10:00:00	4	Temperatura máxima	21.1
133383	7	Sololá	701	Sololá	4	Finca Santa Victoria	9	Septiembre	2023-09-29T00:00:00	2024-11-08T10:00:00	3	Temperatura mínima	19.9
133384	7	Sololá	701	Sololá	4	Finca Santa Victoria	9	Septiembre	2023-09-29T00:00:00	2024-11-08T10:00:00	5	Humedad	71
133385	7	Sololá	701	Sololá	4	Finca Santa Victoria	9	Septiembre	2023-09-29T00:00:00	2024-11-08T10:00:00	6	Velocidad del viento	1.6
133386	7	Sololá	701	Sololá	4	Finca Santa Victoria	9	Septiembre	2023-09-29T00:00:00	2024-11-08T10:00:00	7	Dirección del viento	1.61
133387	7	Sololá	701	Sololá	4	Finca Santa Victoria	9	Septiembre	2023-09-29T00:00:00	2024-11-08T10:00:00	1	Precipitación	0
133388	7	Sololá	701	Sololá	4	Finca Santa Victoria	9	Septiembre	2023-09-29T00:00:00	2024-11-08T10:00:00	8	Radiación solar	794
133389	7	Sololá	701	Sololá	4	Finca Santa Victoria	9	Septiembre	2023-09-29T00:00:00	2024-11-08T11:00:00	2	Temperatura media	22.4
133390	7	Sololá	701	Sololá	4	Finca Santa Victoria	9	Septiembre	2023-09-29T00:00:00	2024-11-08T11:00:00	4	Temperatura máxima	22.4
133391	7	Sololá	701	Sololá	4	Finca Santa Victoria	9	Septiembre	2023-09-29T00:00:00	2024-11-08T11:00:00	3	Temperatura mínima	20.3
133392	7	Sololá	701	Sololá	4	Finca Santa Victoria	9	Septiembre	2023-09-29T00:00:00	2024-11-08T11:00:00	5	Humedad	59
133393	7	Sololá	701	Sololá	4	Finca Santa Victoria	9	Septiembre	2023-09-29T00:00:00	2024-11-08T11:00:00	6	Velocidad del viento	1.6
133394	7	Sololá	701	Sololá	4	Finca Santa Victoria	9	Septiembre	2023-09-29T00:00:00	2024-11-08T11:00:00	7	Dirección del viento	1.61
133395	7	Sololá	701	Sololá	4	Finca Santa Victoria	9	Septiembre	2023-09-29T00:00:00	2024-11-08T11:00:00	1	Precipitación	0
133396	7	Sololá	701	Sololá	4	Finca Santa Victoria	9	Septiembre	2023-09-29T00:00:00	2024-11-08T11:00:00	8	Radiación solar	995
133397	7	Sololá	701	Sololá	4	Finca Santa Victoria	9	Septiembre	2023-09-29T00:00:00	2024-11-08T12:00:00	2	Temperatura media	19.7
133398	7	Sololá	701	Sololá	4	Finca Santa Victoria	9	Septiembre	2023-09-29T00:00:00	2024-11-08T12:00:00	4	Temperatura máxima	22.4
133399	7	Sololá	701	Sololá	4	Finca Santa Victoria	9	Septiembre	2023-09-29T00:00:00	2024-11-08T12:00:00	3	Temperatura mínima	19.7
133400	7	Sololá	701	Sololá	4	Finca Santa Victoria	9	Septiembre	2023-09-29T00:00:00	2024-11-08T12:00:00	5	Humedad	82
133401	7	Sololá	701	Sololá	4	Finca Santa Victoria	9	Septiembre	2023-09-29T00:00:00	2024-11-08T12:00:00	6	Velocidad del viento	1.6
133402	7	Sololá	701	Sololá	4	Finca Santa Victoria	9	Septiembre	2023-09-29T00:00:00	2024-11-08T12:00:00	7	Dirección del viento	1.61
133403	7	Sololá	701	Sololá	4	Finca Santa Victoria	9	Septiembre	2023-09-29T00:00:00	2024-11-08T12:00:00	1	Precipitación	0
133404	7	Sololá	701	Sololá	4	Finca Santa Victoria	9	Septiembre	2023-09-29T00:00:00	2024-11-08T12:00:00	8	Radiación solar	851
133405	7	Sololá	701	Sololá	4	Finca Santa Victoria	9	Septiembre	2023-09-29T00:00:00	2024-11-08T13:00:00	2	Temperatura media	17.4
133406	7	Sololá	701	Sololá	4	Finca Santa Victoria	9	Septiembre	2023-09-29T00:00:00	2024-11-08T13:00:00	4	Temperatura máxima	19.6
133407	7	Sololá	701	Sololá	4	Finca Santa Victoria	9	Septiembre	2023-09-29T00:00:00	2024-11-08T13:00:00	3	Temperatura mínima	17.4
133408	7	Sololá	701	Sololá	4	Finca Santa Victoria	9	Septiembre	2023-09-29T00:00:00	2024-11-08T13:00:00	5	Humedad	91
133409	7	Sololá	701	Sololá	4	Finca Santa Victoria	9	Septiembre	2023-09-29T00:00:00	2024-11-08T13:00:00	6	Velocidad del viento	1.6
133410	7	Sololá	701	Sololá	4	Finca Santa Victoria	9	Septiembre	2023-09-29T00:00:00	2024-11-08T13:00:00	7	Dirección del viento	1.61
133411	7	Sololá	701	Sololá	4	Finca Santa Victoria	9	Septiembre	2023-09-29T00:00:00	2024-11-08T13:00:00	1	Precipitación	0
133412	7	Sololá	701	Sololá	4	Finca Santa Victoria	9	Septiembre	2023-09-29T00:00:00	2024-11-08T13:00:00	8	Radiación solar	174
133413	7	Sololá	701	Sololá	4	Finca Santa Victoria	9	Septiembre	2023-09-29T00:00:00	2024-11-08T14:00:00	2	Temperatura media	17.7
133414	7	Sololá	701	Sololá	4	Finca Santa Victoria	9	Septiembre	2023-09-29T00:00:00	2024-11-08T14:00:00	4	Temperatura máxima	17.9
133415	7	Sololá	701	Sololá	4	Finca Santa Victoria	9	Septiembre	2023-09-29T00:00:00	2024-11-08T14:00:00	3	Temperatura mínima	17.2
133416	7	Sololá	701	Sololá	4	Finca Santa Victoria	9	Septiembre	2023-09-29T00:00:00	2024-11-08T14:00:00	5	Humedad	90
133417	7	Sololá	701	Sololá	4	Finca Santa Victoria	9	Septiembre	2023-09-29T00:00:00	2024-11-08T14:00:00	6	Velocidad del viento	1.6
133418	7	Sololá	701	Sololá	4	Finca Santa Victoria	9	Septiembre	2023-09-29T00:00:00	2024-11-08T14:00:00	7	Dirección del viento	1.61
133419	7	Sololá	701	Sololá	4	Finca Santa Victoria	9	Septiembre	2023-09-29T00:00:00	2024-11-08T14:00:00	1	Precipitación	0
133420	7	Sololá	701	Sololá	4	Finca Santa Victoria	9	Septiembre	2023-09-29T00:00:00	2024-11-08T14:00:00	8	Radiación solar	211
133421	7	Sololá	701	Sololá	4	Finca Santa Victoria	9	Septiembre	2023-09-29T00:00:00	2024-11-08T15:00:00	2	Temperatura media	17
133422	7	Sololá	701	Sololá	4	Finca Santa Victoria	9	Septiembre	2023-09-29T00:00:00	2024-11-08T15:00:00	4	Temperatura máxima	18.3
133423	7	Sololá	701	Sololá	4	Finca Santa Victoria	9	Septiembre	2023-09-29T00:00:00	2024-11-08T15:00:00	3	Temperatura mínima	17
133424	7	Sololá	701	Sololá	4	Finca Santa Victoria	9	Septiembre	2023-09-29T00:00:00	2024-11-08T15:00:00	5	Humedad	92
133425	7	Sololá	701	Sololá	4	Finca Santa Victoria	9	Septiembre	2023-09-29T00:00:00	2024-11-08T15:00:00	6	Velocidad del viento	1.6
133426	7	Sololá	701	Sololá	4	Finca Santa Victoria	9	Septiembre	2023-09-29T00:00:00	2024-11-08T15:00:00	7	Dirección del viento	1.61
133427	7	Sololá	701	Sololá	4	Finca Santa Victoria	9	Septiembre	2023-09-29T00:00:00	2024-11-08T15:00:00	1	Precipitación	0
133428	7	Sololá	701	Sololá	4	Finca Santa Victoria	9	Septiembre	2023-09-29T00:00:00	2024-11-08T15:00:00	8	Radiación solar	156
133429	7	Sololá	701	Sololá	4	Finca Santa Victoria	9	Septiembre	2023-09-29T00:00:00	2024-11-08T16:00:00	2	Temperatura media	16.6
133430	7	Sololá	701	Sololá	4	Finca Santa Victoria	9	Septiembre	2023-09-29T00:00:00	2024-11-08T16:00:00	4	Temperatura máxima	17
133431	7	Sololá	701	Sololá	4	Finca Santa Victoria	9	Septiembre	2023-09-29T00:00:00	2024-11-08T16:00:00	3	Temperatura mínima	16.6
133432	7	Sololá	701	Sololá	4	Finca Santa Victoria	9	Septiembre	2023-09-29T00:00:00	2024-11-08T16:00:00	5	Humedad	94
133433	7	Sololá	701	Sololá	4	Finca Santa Victoria	9	Septiembre	2023-09-29T00:00:00	2024-11-08T16:00:00	6	Velocidad del viento	0
133434	7	Sololá	701	Sololá	4	Finca Santa Victoria	9	Septiembre	2023-09-29T00:00:00	2024-11-08T16:00:00	7	Dirección del viento	0
133435	7	Sololá	701	Sololá	4	Finca Santa Victoria	9	Septiembre	2023-09-29T00:00:00	2024-11-08T16:00:00	1	Precipitación	0
133436	7	Sololá	701	Sololá	4	Finca Santa Victoria	9	Septiembre	2023-09-29T00:00:00	2024-11-08T16:00:00	8	Radiación solar	95
133437	7	Sololá	701	Sololá	4	Finca Santa Victoria	9	Septiembre	2023-09-29T00:00:00	2024-11-08T17:00:00	2	Temperatura media	16.2
133438	7	Sololá	701	Sololá	4	Finca Santa Victoria	9	Septiembre	2023-09-29T00:00:00	2024-11-08T17:00:00	4	Temperatura máxima	16.6
133439	7	Sololá	701	Sololá	4	Finca Santa Victoria	9	Septiembre	2023-09-29T00:00:00	2024-11-08T17:00:00	3	Temperatura mínima	16.2
133440	7	Sololá	701	Sololá	4	Finca Santa Victoria	9	Septiembre	2023-09-29T00:00:00	2024-11-08T17:00:00	5	Humedad	95
133441	7	Sololá	701	Sololá	4	Finca Santa Victoria	9	Septiembre	2023-09-29T00:00:00	2024-11-08T17:00:00	6	Velocidad del viento	0
133442	7	Sololá	701	Sololá	4	Finca Santa Victoria	9	Septiembre	2023-09-29T00:00:00	2024-11-08T17:00:00	7	Dirección del viento	0
133443	7	Sololá	701	Sololá	4	Finca Santa Victoria	9	Septiembre	2023-09-29T00:00:00	2024-11-08T17:00:00	1	Precipitación	0
133444	7	Sololá	701	Sololá	4	Finca Santa Victoria	9	Septiembre	2023-09-29T00:00:00	2024-11-08T17:00:00	8	Radiación solar	62
133445	7	Sololá	701	Sololá	4	Finca Santa Victoria	9	Septiembre	2023-09-29T00:00:00	2024-11-08T18:00:00	2	Temperatura media	15.8
133446	7	Sololá	701	Sololá	4	Finca Santa Victoria	9	Septiembre	2023-09-29T00:00:00	2024-11-08T18:00:00	4	Temperatura máxima	16.3
133447	7	Sololá	701	Sololá	4	Finca Santa Victoria	9	Septiembre	2023-09-29T00:00:00	2024-11-08T18:00:00	3	Temperatura mínima	15.8
133448	7	Sololá	701	Sololá	4	Finca Santa Victoria	9	Septiembre	2023-09-29T00:00:00	2024-11-08T18:00:00	5	Humedad	95
133449	7	Sololá	701	Sololá	4	Finca Santa Victoria	9	Septiembre	2023-09-29T00:00:00	2024-11-08T18:00:00	6	Velocidad del viento	0
133450	7	Sololá	701	Sololá	4	Finca Santa Victoria	9	Septiembre	2023-09-29T00:00:00	2024-11-08T18:00:00	7	Dirección del viento	0
133451	7	Sololá	701	Sololá	4	Finca Santa Victoria	9	Septiembre	2023-09-29T00:00:00	2024-11-08T18:00:00	1	Precipitación	0
133452	7	Sololá	701	Sololá	4	Finca Santa Victoria	9	Septiembre	2023-09-29T00:00:00	2024-11-08T18:00:00	8	Radiación solar	29
133453	7	Sololá	701	Sololá	4	Finca Santa Victoria	9	Septiembre	2023-09-29T00:00:00	2024-11-08T19:00:00	2	Temperatura media	15.4
133454	7	Sololá	701	Sololá	4	Finca Santa Victoria	9	Septiembre	2023-09-29T00:00:00	2024-11-08T19:00:00	4	Temperatura máxima	15.8
133455	7	Sololá	701	Sololá	4	Finca Santa Victoria	9	Septiembre	2023-09-29T00:00:00	2024-11-08T19:00:00	3	Temperatura mínima	15.4
133456	7	Sololá	701	Sololá	4	Finca Santa Victoria	9	Septiembre	2023-09-29T00:00:00	2024-11-08T19:00:00	5	Humedad	96
133457	7	Sololá	701	Sololá	4	Finca Santa Victoria	9	Septiembre	2023-09-29T00:00:00	2024-11-08T19:00:00	6	Velocidad del viento	0
133458	7	Sololá	701	Sololá	4	Finca Santa Victoria	9	Septiembre	2023-09-29T00:00:00	2024-11-08T19:00:00	7	Dirección del viento	0
133459	7	Sololá	701	Sololá	4	Finca Santa Victoria	9	Septiembre	2023-09-29T00:00:00	2024-11-08T19:00:00	1	Precipitación	0
133460	7	Sololá	701	Sololá	4	Finca Santa Victoria	9	Septiembre	2023-09-29T00:00:00	2024-11-08T19:00:00	8	Radiación solar	0
133461	7	Sololá	701	Sololá	4	Finca Santa Victoria	9	Septiembre	2023-09-29T00:00:00	2024-11-08T20:00:00	2	Temperatura media	14.8
133462	7	Sololá	701	Sololá	4	Finca Santa Victoria	9	Septiembre	2023-09-29T00:00:00	2024-11-08T20:00:00	4	Temperatura máxima	15.4
133463	7	Sololá	701	Sololá	4	Finca Santa Victoria	9	Septiembre	2023-09-29T00:00:00	2024-11-08T20:00:00	3	Temperatura mínima	14.8
133464	7	Sololá	701	Sololá	4	Finca Santa Victoria	9	Septiembre	2023-09-29T00:00:00	2024-11-08T20:00:00	5	Humedad	96
133465	7	Sololá	701	Sololá	4	Finca Santa Victoria	9	Septiembre	2023-09-29T00:00:00	2024-11-08T20:00:00	6	Velocidad del viento	0
133466	7	Sololá	701	Sololá	4	Finca Santa Victoria	9	Septiembre	2023-09-29T00:00:00	2024-11-08T20:00:00	7	Dirección del viento	0
133467	7	Sololá	701	Sololá	4	Finca Santa Victoria	9	Septiembre	2023-09-29T00:00:00	2024-11-08T20:00:00	1	Precipitación	0
133468	7	Sololá	701	Sololá	4	Finca Santa Victoria	9	Septiembre	2023-09-29T00:00:00	2024-11-08T20:00:00	8	Radiación solar	0
133469	7	Sololá	701	Sololá	4	Finca Santa Victoria	9	Septiembre	2023-09-29T00:00:00	2024-11-08T21:00:00	2	Temperatura media	14.4
133470	7	Sololá	701	Sololá	4	Finca Santa Victoria	9	Septiembre	2023-09-29T00:00:00	2024-11-08T21:00:00	4	Temperatura máxima	14.8
133471	7	Sololá	701	Sololá	4	Finca Santa Victoria	9	Septiembre	2023-09-29T00:00:00	2024-11-08T21:00:00	3	Temperatura mínima	14.4
133472	7	Sololá	701	Sololá	4	Finca Santa Victoria	9	Septiembre	2023-09-29T00:00:00	2024-11-08T21:00:00	5	Humedad	96
133473	7	Sololá	701	Sololá	4	Finca Santa Victoria	9	Septiembre	2023-09-29T00:00:00	2024-11-08T21:00:00	6	Velocidad del viento	0
133474	7	Sololá	701	Sololá	4	Finca Santa Victoria	9	Septiembre	2023-09-29T00:00:00	2024-11-08T21:00:00	7	Dirección del viento	0
133475	7	Sololá	701	Sololá	4	Finca Santa Victoria	9	Septiembre	2023-09-29T00:00:00	2024-11-08T21:00:00	1	Precipitación	0
133476	7	Sololá	701	Sololá	4	Finca Santa Victoria	9	Septiembre	2023-09-29T00:00:00	2024-11-08T21:00:00	8	Radiación solar	0
133477	7	Sololá	701	Sololá	4	Finca Santa Victoria	9	Septiembre	2023-09-29T00:00:00	2024-11-08T22:00:00	2	Temperatura media	13.9
133478	7	Sololá	701	Sololá	4	Finca Santa Victoria	9	Septiembre	2023-09-29T00:00:00	2024-11-08T22:00:00	4	Temperatura máxima	14.4
133479	7	Sololá	701	Sololá	4	Finca Santa Victoria	9	Septiembre	2023-09-29T00:00:00	2024-11-08T22:00:00	3	Temperatura mínima	13.7
133480	7	Sololá	701	Sololá	4	Finca Santa Victoria	9	Septiembre	2023-09-29T00:00:00	2024-11-08T22:00:00	5	Humedad	97
133481	7	Sololá	701	Sololá	4	Finca Santa Victoria	9	Septiembre	2023-09-29T00:00:00	2024-11-08T22:00:00	6	Velocidad del viento	0
133482	7	Sololá	701	Sololá	4	Finca Santa Victoria	9	Septiembre	2023-09-29T00:00:00	2024-11-08T22:00:00	7	Dirección del viento	0
133483	7	Sololá	701	Sololá	4	Finca Santa Victoria	9	Septiembre	2023-09-29T00:00:00	2024-11-08T22:00:00	1	Precipitación	0
133484	7	Sololá	701	Sololá	4	Finca Santa Victoria	9	Septiembre	2023-09-29T00:00:00	2024-11-08T22:00:00	8	Radiación solar	0
133485	7	Sololá	701	Sololá	4	Finca Santa Victoria	9	Septiembre	2023-09-29T00:00:00	2024-11-08T23:00:00	2	Temperatura media	13.5
133486	7	Sololá	701	Sololá	4	Finca Santa Victoria	9	Septiembre	2023-09-29T00:00:00	2024-11-08T23:00:00	4	Temperatura máxima	13.9
133487	7	Sololá	701	Sololá	4	Finca Santa Victoria	9	Septiembre	2023-09-29T00:00:00	2024-11-08T23:00:00	3	Temperatura mínima	13.5
133488	7	Sololá	701	Sololá	4	Finca Santa Victoria	9	Septiembre	2023-09-29T00:00:00	2024-11-08T23:00:00	5	Humedad	97
133489	7	Sololá	701	Sololá	4	Finca Santa Victoria	9	Septiembre	2023-09-29T00:00:00	2024-11-08T23:00:00	6	Velocidad del viento	0
133490	7	Sololá	701	Sololá	4	Finca Santa Victoria	9	Septiembre	2023-09-29T00:00:00	2024-11-08T23:00:00	7	Dirección del viento	0
133491	7	Sololá	701	Sololá	4	Finca Santa Victoria	9	Septiembre	2023-09-29T00:00:00	2024-11-08T23:00:00	1	Precipitación	0
133492	7	Sololá	701	Sololá	4	Finca Santa Victoria	9	Septiembre	2023-09-29T00:00:00	2024-11-08T23:00:00	8	Radiación solar	0
133493	7	Sololá	701	Sololá	4	Finca Santa Victoria	9	Septiembre	2023-09-30T00:00:00	2024-11-08T00:00:00	2	Temperatura media	13.4
133494	7	Sololá	701	Sololá	4	Finca Santa Victoria	9	Septiembre	2023-09-30T00:00:00	2024-11-08T00:00:00	4	Temperatura máxima	13.5
133495	7	Sololá	701	Sololá	4	Finca Santa Victoria	9	Septiembre	2023-09-30T00:00:00	2024-11-08T00:00:00	3	Temperatura mínima	13.3
133496	7	Sololá	701	Sololá	4	Finca Santa Victoria	9	Septiembre	2023-09-30T00:00:00	2024-11-08T00:00:00	5	Humedad	97
133497	7	Sololá	701	Sololá	4	Finca Santa Victoria	9	Septiembre	2023-09-30T00:00:00	2024-11-08T00:00:00	6	Velocidad del viento	0
133498	7	Sololá	701	Sololá	4	Finca Santa Victoria	9	Septiembre	2023-09-30T00:00:00	2024-11-08T00:00:00	7	Dirección del viento	0
133499	7	Sololá	701	Sololá	4	Finca Santa Victoria	9	Septiembre	2023-09-30T00:00:00	2024-11-08T00:00:00	1	Precipitación	0
133500	7	Sololá	701	Sololá	4	Finca Santa Victoria	9	Septiembre	2023-09-30T00:00:00	2024-11-08T00:00:00	8	Radiación solar	0
133501	7	Sololá	701	Sololá	4	Finca Santa Victoria	9	Septiembre	2023-09-30T00:00:00	2024-11-08T01:00:00	2	Temperatura media	13.4
133502	7	Sololá	701	Sololá	4	Finca Santa Victoria	9	Septiembre	2023-09-30T00:00:00	2024-11-08T01:00:00	4	Temperatura máxima	13.4
133503	7	Sololá	701	Sololá	4	Finca Santa Victoria	9	Septiembre	2023-09-30T00:00:00	2024-11-08T01:00:00	3	Temperatura mínima	13.3
133504	7	Sololá	701	Sololá	4	Finca Santa Victoria	9	Septiembre	2023-09-30T00:00:00	2024-11-08T01:00:00	5	Humedad	97
133505	7	Sololá	701	Sololá	4	Finca Santa Victoria	9	Septiembre	2023-09-30T00:00:00	2024-11-08T01:00:00	6	Velocidad del viento	0
133506	7	Sololá	701	Sololá	4	Finca Santa Victoria	9	Septiembre	2023-09-30T00:00:00	2024-11-08T01:00:00	7	Dirección del viento	0
133507	7	Sololá	701	Sololá	4	Finca Santa Victoria	9	Septiembre	2023-09-30T00:00:00	2024-11-08T01:00:00	1	Precipitación	0
133508	7	Sololá	701	Sololá	4	Finca Santa Victoria	9	Septiembre	2023-09-30T00:00:00	2024-11-08T01:00:00	8	Radiación solar	0
133509	7	Sololá	701	Sololá	4	Finca Santa Victoria	9	Septiembre	2023-09-30T00:00:00	2024-11-08T02:00:00	2	Temperatura media	13.3
133510	7	Sololá	701	Sololá	4	Finca Santa Victoria	9	Septiembre	2023-09-30T00:00:00	2024-11-08T02:00:00	4	Temperatura máxima	13.4
133511	7	Sololá	701	Sololá	4	Finca Santa Victoria	9	Septiembre	2023-09-30T00:00:00	2024-11-08T02:00:00	3	Temperatura mínima	13.3
133512	7	Sololá	701	Sololá	4	Finca Santa Victoria	9	Septiembre	2023-09-30T00:00:00	2024-11-08T02:00:00	5	Humedad	97
133513	7	Sololá	701	Sololá	4	Finca Santa Victoria	9	Septiembre	2023-09-30T00:00:00	2024-11-08T02:00:00	6	Velocidad del viento	0
133514	7	Sololá	701	Sololá	4	Finca Santa Victoria	9	Septiembre	2023-09-30T00:00:00	2024-11-08T02:00:00	7	Dirección del viento	0
133515	7	Sololá	701	Sololá	4	Finca Santa Victoria	9	Septiembre	2023-09-30T00:00:00	2024-11-08T02:00:00	1	Precipitación	0
133516	7	Sololá	701	Sololá	4	Finca Santa Victoria	9	Septiembre	2023-09-30T00:00:00	2024-11-08T02:00:00	8	Radiación solar	0
133517	7	Sololá	701	Sololá	4	Finca Santa Victoria	9	Septiembre	2023-09-30T00:00:00	2024-11-08T03:00:00	2	Temperatura media	12.9
133518	7	Sololá	701	Sololá	4	Finca Santa Victoria	9	Septiembre	2023-09-30T00:00:00	2024-11-08T03:00:00	4	Temperatura máxima	13.3
133519	7	Sololá	701	Sololá	4	Finca Santa Victoria	9	Septiembre	2023-09-30T00:00:00	2024-11-08T03:00:00	3	Temperatura mínima	12.9
133520	7	Sololá	701	Sololá	4	Finca Santa Victoria	9	Septiembre	2023-09-30T00:00:00	2024-11-08T03:00:00	5	Humedad	97
133521	7	Sololá	701	Sololá	4	Finca Santa Victoria	9	Septiembre	2023-09-30T00:00:00	2024-11-08T03:00:00	6	Velocidad del viento	0
133522	7	Sololá	701	Sololá	4	Finca Santa Victoria	9	Septiembre	2023-09-30T00:00:00	2024-11-08T03:00:00	7	Dirección del viento	0
133523	7	Sololá	701	Sololá	4	Finca Santa Victoria	9	Septiembre	2023-09-30T00:00:00	2024-11-08T03:00:00	1	Precipitación	0
133524	7	Sololá	701	Sololá	4	Finca Santa Victoria	9	Septiembre	2023-09-30T00:00:00	2024-11-08T03:00:00	8	Radiación solar	0
133525	7	Sololá	701	Sololá	4	Finca Santa Victoria	9	Septiembre	2023-09-30T00:00:00	2024-11-08T04:00:00	2	Temperatura media	12.9
133526	7	Sololá	701	Sololá	4	Finca Santa Victoria	9	Septiembre	2023-09-30T00:00:00	2024-11-08T04:00:00	4	Temperatura máxima	13.2
133527	7	Sololá	701	Sololá	4	Finca Santa Victoria	9	Septiembre	2023-09-30T00:00:00	2024-11-08T04:00:00	3	Temperatura mínima	12.9
133528	7	Sololá	701	Sololá	4	Finca Santa Victoria	9	Septiembre	2023-09-30T00:00:00	2024-11-08T04:00:00	5	Humedad	97
133529	7	Sololá	701	Sololá	4	Finca Santa Victoria	9	Septiembre	2023-09-30T00:00:00	2024-11-08T04:00:00	6	Velocidad del viento	0
133530	7	Sololá	701	Sololá	4	Finca Santa Victoria	9	Septiembre	2023-09-30T00:00:00	2024-11-08T04:00:00	7	Dirección del viento	0
133531	7	Sololá	701	Sololá	4	Finca Santa Victoria	9	Septiembre	2023-09-30T00:00:00	2024-11-08T04:00:00	1	Precipitación	0
133532	7	Sololá	701	Sololá	4	Finca Santa Victoria	9	Septiembre	2023-09-30T00:00:00	2024-11-08T04:00:00	8	Radiación solar	0
133533	7	Sololá	701	Sololá	4	Finca Santa Victoria	9	Septiembre	2023-09-30T00:00:00	2024-11-08T05:00:00	2	Temperatura media	13.1
133534	7	Sololá	701	Sololá	4	Finca Santa Victoria	9	Septiembre	2023-09-30T00:00:00	2024-11-08T05:00:00	4	Temperatura máxima	13.1
133535	7	Sololá	701	Sololá	4	Finca Santa Victoria	9	Septiembre	2023-09-30T00:00:00	2024-11-08T05:00:00	3	Temperatura mínima	12.7
133536	7	Sololá	701	Sololá	4	Finca Santa Victoria	9	Septiembre	2023-09-30T00:00:00	2024-11-08T05:00:00	5	Humedad	96
133537	7	Sololá	701	Sololá	4	Finca Santa Victoria	9	Septiembre	2023-09-30T00:00:00	2024-11-08T05:00:00	6	Velocidad del viento	0
133538	7	Sololá	701	Sololá	4	Finca Santa Victoria	9	Septiembre	2023-09-30T00:00:00	2024-11-08T05:00:00	7	Dirección del viento	0
133539	7	Sololá	701	Sololá	4	Finca Santa Victoria	9	Septiembre	2023-09-30T00:00:00	2024-11-08T05:00:00	1	Precipitación	0
133540	7	Sololá	701	Sololá	4	Finca Santa Victoria	9	Septiembre	2023-09-30T00:00:00	2024-11-08T05:00:00	8	Radiación solar	0
133541	7	Sololá	701	Sololá	4	Finca Santa Victoria	9	Septiembre	2023-09-30T00:00:00	2024-11-08T06:00:00	2	Temperatura media	13
133542	7	Sololá	701	Sololá	4	Finca Santa Victoria	9	Septiembre	2023-09-30T00:00:00	2024-11-08T06:00:00	4	Temperatura máxima	13.5
133543	7	Sololá	701	Sololá	4	Finca Santa Victoria	9	Septiembre	2023-09-30T00:00:00	2024-11-08T06:00:00	3	Temperatura mínima	13
133544	7	Sololá	701	Sololá	4	Finca Santa Victoria	9	Septiembre	2023-09-30T00:00:00	2024-11-08T06:00:00	5	Humedad	94
133545	7	Sololá	701	Sololá	4	Finca Santa Victoria	9	Septiembre	2023-09-30T00:00:00	2024-11-08T06:00:00	6	Velocidad del viento	0
133546	7	Sololá	701	Sololá	4	Finca Santa Victoria	9	Septiembre	2023-09-30T00:00:00	2024-11-08T06:00:00	7	Dirección del viento	0
133547	7	Sololá	701	Sololá	4	Finca Santa Victoria	9	Septiembre	2023-09-30T00:00:00	2024-11-08T06:00:00	1	Precipitación	0
133548	7	Sololá	701	Sololá	4	Finca Santa Victoria	9	Septiembre	2023-09-30T00:00:00	2024-11-08T06:00:00	8	Radiación solar	1
133549	7	Sololá	701	Sololá	4	Finca Santa Victoria	9	Septiembre	2023-09-30T00:00:00	2024-11-08T07:00:00	2	Temperatura media	14.4
133550	7	Sololá	701	Sololá	4	Finca Santa Victoria	9	Septiembre	2023-09-30T00:00:00	2024-11-08T07:00:00	4	Temperatura máxima	14.4
133551	7	Sololá	701	Sololá	4	Finca Santa Victoria	9	Septiembre	2023-09-30T00:00:00	2024-11-08T07:00:00	3	Temperatura mínima	12.9
133552	7	Sololá	701	Sololá	4	Finca Santa Victoria	9	Septiembre	2023-09-30T00:00:00	2024-11-08T07:00:00	5	Humedad	88
133553	7	Sololá	701	Sololá	4	Finca Santa Victoria	9	Septiembre	2023-09-30T00:00:00	2024-11-08T07:00:00	6	Velocidad del viento	0
133554	7	Sololá	701	Sololá	4	Finca Santa Victoria	9	Septiembre	2023-09-30T00:00:00	2024-11-08T07:00:00	7	Dirección del viento	0
133555	7	Sololá	701	Sololá	4	Finca Santa Victoria	9	Septiembre	2023-09-30T00:00:00	2024-11-08T07:00:00	1	Precipitación	0
133556	7	Sololá	701	Sololá	4	Finca Santa Victoria	9	Septiembre	2023-09-30T00:00:00	2024-11-08T07:00:00	8	Radiación solar	36
133557	7	Sololá	701	Sololá	4	Finca Santa Victoria	9	Septiembre	2023-09-30T00:00:00	2024-11-08T08:00:00	2	Temperatura media	18.3
133558	7	Sololá	701	Sololá	4	Finca Santa Victoria	9	Septiembre	2023-09-30T00:00:00	2024-11-08T08:00:00	4	Temperatura máxima	18.3
133559	7	Sololá	701	Sololá	4	Finca Santa Victoria	9	Septiembre	2023-09-30T00:00:00	2024-11-08T08:00:00	3	Temperatura mínima	14.4
133560	7	Sololá	701	Sololá	4	Finca Santa Victoria	9	Septiembre	2023-09-30T00:00:00	2024-11-08T08:00:00	5	Humedad	79
133561	7	Sololá	701	Sololá	4	Finca Santa Victoria	9	Septiembre	2023-09-30T00:00:00	2024-11-08T08:00:00	6	Velocidad del viento	0
133562	7	Sololá	701	Sololá	4	Finca Santa Victoria	9	Septiembre	2023-09-30T00:00:00	2024-11-08T08:00:00	7	Dirección del viento	0
133563	7	Sololá	701	Sololá	4	Finca Santa Victoria	9	Septiembre	2023-09-30T00:00:00	2024-11-08T08:00:00	1	Precipitación	0
133564	7	Sololá	701	Sololá	4	Finca Santa Victoria	9	Septiembre	2023-09-30T00:00:00	2024-11-08T08:00:00	8	Radiación solar	289
133565	7	Sololá	701	Sololá	4	Finca Santa Victoria	9	Septiembre	2023-09-30T00:00:00	2024-11-08T09:00:00	2	Temperatura media	20.5
133566	7	Sololá	701	Sololá	4	Finca Santa Victoria	9	Septiembre	2023-09-30T00:00:00	2024-11-08T09:00:00	4	Temperatura máxima	20.5
133567	7	Sololá	701	Sololá	4	Finca Santa Victoria	9	Septiembre	2023-09-30T00:00:00	2024-11-08T09:00:00	3	Temperatura mínima	17.9
133568	7	Sololá	701	Sololá	4	Finca Santa Victoria	9	Septiembre	2023-09-30T00:00:00	2024-11-08T09:00:00	5	Humedad	70
133569	7	Sololá	701	Sololá	4	Finca Santa Victoria	9	Septiembre	2023-09-30T00:00:00	2024-11-08T09:00:00	6	Velocidad del viento	0
133570	7	Sololá	701	Sololá	4	Finca Santa Victoria	9	Septiembre	2023-09-30T00:00:00	2024-11-08T09:00:00	7	Dirección del viento	0
133571	7	Sololá	701	Sololá	4	Finca Santa Victoria	9	Septiembre	2023-09-30T00:00:00	2024-11-08T09:00:00	1	Precipitación	0
133572	7	Sololá	701	Sololá	4	Finca Santa Victoria	9	Septiembre	2023-09-30T00:00:00	2024-11-08T09:00:00	8	Radiación solar	614
133573	7	Sololá	701	Sololá	4	Finca Santa Victoria	9	Septiembre	2023-09-30T00:00:00	2024-11-08T10:00:00	2	Temperatura media	21.6
133574	7	Sololá	701	Sololá	4	Finca Santa Victoria	9	Septiembre	2023-09-30T00:00:00	2024-11-08T10:00:00	4	Temperatura máxima	21.7
133575	7	Sololá	701	Sololá	4	Finca Santa Victoria	9	Septiembre	2023-09-30T00:00:00	2024-11-08T10:00:00	3	Temperatura mínima	20.5
133576	7	Sololá	701	Sololá	4	Finca Santa Victoria	9	Septiembre	2023-09-30T00:00:00	2024-11-08T10:00:00	5	Humedad	68
133577	7	Sololá	701	Sololá	4	Finca Santa Victoria	9	Septiembre	2023-09-30T00:00:00	2024-11-08T10:00:00	6	Velocidad del viento	1.6
133578	7	Sololá	701	Sololá	4	Finca Santa Victoria	9	Septiembre	2023-09-30T00:00:00	2024-11-08T10:00:00	7	Dirección del viento	1.61
133579	7	Sololá	701	Sololá	4	Finca Santa Victoria	9	Septiembre	2023-09-30T00:00:00	2024-11-08T10:00:00	1	Precipitación	0
133580	7	Sololá	701	Sololá	4	Finca Santa Victoria	9	Septiembre	2023-09-30T00:00:00	2024-11-08T10:00:00	8	Radiación solar	854
133581	7	Sololá	701	Sololá	4	Finca Santa Victoria	9	Septiembre	2023-09-30T00:00:00	2024-11-08T11:00:00	2	Temperatura media	22.9
133582	7	Sololá	701	Sololá	4	Finca Santa Victoria	9	Septiembre	2023-09-30T00:00:00	2024-11-08T11:00:00	4	Temperatura máxima	22.9
133583	7	Sololá	701	Sololá	4	Finca Santa Victoria	9	Septiembre	2023-09-30T00:00:00	2024-11-08T11:00:00	3	Temperatura mínima	21.4
133584	7	Sololá	701	Sololá	4	Finca Santa Victoria	9	Septiembre	2023-09-30T00:00:00	2024-11-08T11:00:00	5	Humedad	61
133585	7	Sololá	701	Sololá	4	Finca Santa Victoria	9	Septiembre	2023-09-30T00:00:00	2024-11-08T11:00:00	6	Velocidad del viento	1.6
133586	7	Sololá	701	Sololá	4	Finca Santa Victoria	9	Septiembre	2023-09-30T00:00:00	2024-11-08T11:00:00	7	Dirección del viento	1.61
133587	7	Sololá	701	Sololá	4	Finca Santa Victoria	9	Septiembre	2023-09-30T00:00:00	2024-11-08T11:00:00	1	Precipitación	0
133588	7	Sololá	701	Sololá	4	Finca Santa Victoria	9	Septiembre	2023-09-30T00:00:00	2024-11-08T11:00:00	8	Radiación solar	998
133589	7	Sololá	701	Sololá	4	Finca Santa Victoria	9	Septiembre	2023-09-30T00:00:00	2024-11-08T12:00:00	2	Temperatura media	23.4
133590	7	Sololá	701	Sololá	4	Finca Santa Victoria	9	Septiembre	2023-09-30T00:00:00	2024-11-08T12:00:00	4	Temperatura máxima	23.4
133591	7	Sololá	701	Sololá	4	Finca Santa Victoria	9	Septiembre	2023-09-30T00:00:00	2024-11-08T12:00:00	3	Temperatura mínima	22.4
133592	7	Sololá	701	Sololá	4	Finca Santa Victoria	9	Septiembre	2023-09-30T00:00:00	2024-11-08T12:00:00	5	Humedad	67
133593	7	Sololá	701	Sololá	4	Finca Santa Victoria	9	Septiembre	2023-09-30T00:00:00	2024-11-08T12:00:00	6	Velocidad del viento	3.2
133594	7	Sololá	701	Sololá	4	Finca Santa Victoria	9	Septiembre	2023-09-30T00:00:00	2024-11-08T12:00:00	7	Dirección del viento	3.22
133595	7	Sololá	701	Sololá	4	Finca Santa Victoria	9	Septiembre	2023-09-30T00:00:00	2024-11-08T12:00:00	1	Precipitación	0
133596	7	Sololá	701	Sololá	4	Finca Santa Victoria	9	Septiembre	2023-09-30T00:00:00	2024-11-08T12:00:00	8	Radiación solar	1060
133597	7	Sololá	701	Sololá	4	Finca Santa Victoria	9	Septiembre	2023-09-30T00:00:00	2024-11-08T13:00:00	2	Temperatura media	20.5
133598	7	Sololá	701	Sololá	4	Finca Santa Victoria	9	Septiembre	2023-09-30T00:00:00	2024-11-08T13:00:00	4	Temperatura máxima	23.4
133599	7	Sololá	701	Sololá	4	Finca Santa Victoria	9	Septiembre	2023-09-30T00:00:00	2024-11-08T13:00:00	3	Temperatura mínima	20.5
133600	7	Sololá	701	Sololá	4	Finca Santa Victoria	9	Septiembre	2023-09-30T00:00:00	2024-11-08T13:00:00	5	Humedad	83
133601	7	Sololá	701	Sololá	4	Finca Santa Victoria	9	Septiembre	2023-09-30T00:00:00	2024-11-08T13:00:00	6	Velocidad del viento	1.6
133602	7	Sololá	701	Sololá	4	Finca Santa Victoria	9	Septiembre	2023-09-30T00:00:00	2024-11-08T13:00:00	7	Dirección del viento	1.61
133603	7	Sololá	701	Sololá	4	Finca Santa Victoria	9	Septiembre	2023-09-30T00:00:00	2024-11-08T13:00:00	1	Precipitación	0
133604	7	Sololá	701	Sololá	4	Finca Santa Victoria	9	Septiembre	2023-09-30T00:00:00	2024-11-08T13:00:00	8	Radiación solar	289
133605	7	Sololá	701	Sololá	4	Finca Santa Victoria	9	Septiembre	2023-09-30T00:00:00	2024-11-08T14:00:00	2	Temperatura media	17.4
133606	7	Sololá	701	Sololá	4	Finca Santa Victoria	9	Septiembre	2023-09-30T00:00:00	2024-11-08T14:00:00	4	Temperatura máxima	20.5
133607	7	Sololá	701	Sololá	4	Finca Santa Victoria	9	Septiembre	2023-09-30T00:00:00	2024-11-08T14:00:00	3	Temperatura mínima	17.4
133608	7	Sololá	701	Sololá	4	Finca Santa Victoria	9	Septiembre	2023-09-30T00:00:00	2024-11-08T14:00:00	5	Humedad	93
133609	7	Sololá	701	Sololá	4	Finca Santa Victoria	9	Septiembre	2023-09-30T00:00:00	2024-11-08T14:00:00	6	Velocidad del viento	0
133610	7	Sololá	701	Sololá	4	Finca Santa Victoria	9	Septiembre	2023-09-30T00:00:00	2024-11-08T14:00:00	7	Dirección del viento	0
133611	7	Sololá	701	Sololá	4	Finca Santa Victoria	9	Septiembre	2023-09-30T00:00:00	2024-11-08T14:00:00	1	Precipitación	0
133612	7	Sololá	701	Sololá	4	Finca Santa Victoria	9	Septiembre	2023-09-30T00:00:00	2024-11-08T14:00:00	8	Radiación solar	112
133613	7	Sololá	701	Sololá	4	Finca Santa Victoria	9	Septiembre	2023-09-30T00:00:00	2024-11-08T15:00:00	2	Temperatura media	17.2
133614	7	Sololá	701	Sololá	4	Finca Santa Victoria	9	Septiembre	2023-09-30T00:00:00	2024-11-08T15:00:00	4	Temperatura máxima	17.6
133615	7	Sololá	701	Sololá	4	Finca Santa Victoria	9	Septiembre	2023-09-30T00:00:00	2024-11-08T15:00:00	3	Temperatura mínima	17.1
133616	7	Sololá	701	Sololá	4	Finca Santa Victoria	9	Septiembre	2023-09-30T00:00:00	2024-11-08T15:00:00	5	Humedad	93
133617	7	Sololá	701	Sololá	4	Finca Santa Victoria	9	Septiembre	2023-09-30T00:00:00	2024-11-08T15:00:00	6	Velocidad del viento	1.6
133618	7	Sololá	701	Sololá	4	Finca Santa Victoria	9	Septiembre	2023-09-30T00:00:00	2024-11-08T15:00:00	7	Dirección del viento	1.61
133619	7	Sololá	701	Sololá	4	Finca Santa Victoria	9	Septiembre	2023-09-30T00:00:00	2024-11-08T15:00:00	1	Precipitación	0
133620	7	Sololá	701	Sololá	4	Finca Santa Victoria	9	Septiembre	2023-09-30T00:00:00	2024-11-08T15:00:00	8	Radiación solar	100
133621	7	Sololá	701	Sololá	4	Finca Santa Victoria	9	Septiembre	2023-09-30T00:00:00	2024-11-08T16:00:00	2	Temperatura media	16.9
133622	7	Sololá	701	Sololá	4	Finca Santa Victoria	9	Septiembre	2023-09-30T00:00:00	2024-11-08T16:00:00	4	Temperatura máxima	17.1
133623	7	Sololá	701	Sololá	4	Finca Santa Victoria	9	Septiembre	2023-09-30T00:00:00	2024-11-08T16:00:00	3	Temperatura mínima	16.7
133624	7	Sololá	701	Sololá	4	Finca Santa Victoria	9	Septiembre	2023-09-30T00:00:00	2024-11-08T16:00:00	5	Humedad	95
133625	7	Sololá	701	Sololá	4	Finca Santa Victoria	9	Septiembre	2023-09-30T00:00:00	2024-11-08T16:00:00	6	Velocidad del viento	0
133626	7	Sololá	701	Sololá	4	Finca Santa Victoria	9	Septiembre	2023-09-30T00:00:00	2024-11-08T16:00:00	7	Dirección del viento	0
133627	7	Sololá	701	Sololá	4	Finca Santa Victoria	9	Septiembre	2023-09-30T00:00:00	2024-11-08T16:00:00	1	Precipitación	0
133628	7	Sololá	701	Sololá	4	Finca Santa Victoria	9	Septiembre	2023-09-30T00:00:00	2024-11-08T16:00:00	8	Radiación solar	74
133629	7	Sololá	701	Sololá	4	Finca Santa Victoria	9	Septiembre	2023-09-30T00:00:00	2024-11-08T17:00:00	2	Temperatura media	16.2
133630	7	Sololá	701	Sololá	4	Finca Santa Victoria	9	Septiembre	2023-09-30T00:00:00	2024-11-08T17:00:00	4	Temperatura máxima	16.9
133631	7	Sololá	701	Sololá	4	Finca Santa Victoria	9	Septiembre	2023-09-30T00:00:00	2024-11-08T17:00:00	3	Temperatura mínima	16.2
133632	7	Sololá	701	Sololá	4	Finca Santa Victoria	9	Septiembre	2023-09-30T00:00:00	2024-11-08T17:00:00	5	Humedad	95
133633	7	Sololá	701	Sololá	4	Finca Santa Victoria	9	Septiembre	2023-09-30T00:00:00	2024-11-08T17:00:00	6	Velocidad del viento	0
133634	7	Sololá	701	Sololá	4	Finca Santa Victoria	9	Septiembre	2023-09-30T00:00:00	2024-11-08T17:00:00	7	Dirección del viento	0
133635	7	Sololá	701	Sololá	4	Finca Santa Victoria	9	Septiembre	2023-09-30T00:00:00	2024-11-08T17:00:00	1	Precipitación	0
133636	7	Sololá	701	Sololá	4	Finca Santa Victoria	9	Septiembre	2023-09-30T00:00:00	2024-11-08T17:00:00	8	Radiación solar	56
133637	7	Sololá	701	Sololá	4	Finca Santa Victoria	9	Septiembre	2023-09-30T00:00:00	2024-11-08T18:00:00	2	Temperatura media	15.9
133638	7	Sololá	701	Sololá	4	Finca Santa Victoria	9	Septiembre	2023-09-30T00:00:00	2024-11-08T18:00:00	4	Temperatura máxima	16.2
133639	7	Sololá	701	Sololá	4	Finca Santa Victoria	9	Septiembre	2023-09-30T00:00:00	2024-11-08T18:00:00	3	Temperatura mínima	15.9
133640	7	Sololá	701	Sololá	4	Finca Santa Victoria	9	Septiembre	2023-09-30T00:00:00	2024-11-08T18:00:00	5	Humedad	96
133641	7	Sololá	701	Sololá	4	Finca Santa Victoria	9	Septiembre	2023-09-30T00:00:00	2024-11-08T18:00:00	6	Velocidad del viento	0
133642	7	Sololá	701	Sololá	4	Finca Santa Victoria	9	Septiembre	2023-09-30T00:00:00	2024-11-08T18:00:00	7	Dirección del viento	0
133643	7	Sololá	701	Sololá	4	Finca Santa Victoria	9	Septiembre	2023-09-30T00:00:00	2024-11-08T18:00:00	1	Precipitación	0
133644	7	Sololá	701	Sololá	4	Finca Santa Victoria	9	Septiembre	2023-09-30T00:00:00	2024-11-08T18:00:00	8	Radiación solar	11
133645	7	Sololá	701	Sololá	4	Finca Santa Victoria	9	Septiembre	2023-09-30T00:00:00	2024-11-08T19:00:00	2	Temperatura media	15.1
133646	7	Sololá	701	Sololá	4	Finca Santa Victoria	9	Septiembre	2023-09-30T00:00:00	2024-11-08T19:00:00	4	Temperatura máxima	15.9
133647	7	Sololá	701	Sololá	4	Finca Santa Victoria	9	Septiembre	2023-09-30T00:00:00	2024-11-08T19:00:00	3	Temperatura mínima	15.1
133648	7	Sololá	701	Sololá	4	Finca Santa Victoria	9	Septiembre	2023-09-30T00:00:00	2024-11-08T19:00:00	5	Humedad	95
133649	7	Sololá	701	Sololá	4	Finca Santa Victoria	9	Septiembre	2023-09-30T00:00:00	2024-11-08T19:00:00	6	Velocidad del viento	0
133650	7	Sololá	701	Sololá	4	Finca Santa Victoria	9	Septiembre	2023-09-30T00:00:00	2024-11-08T19:00:00	7	Dirección del viento	0
133651	7	Sololá	701	Sololá	4	Finca Santa Victoria	9	Septiembre	2023-09-30T00:00:00	2024-11-08T19:00:00	1	Precipitación	0
133652	7	Sololá	701	Sololá	4	Finca Santa Victoria	9	Septiembre	2023-09-30T00:00:00	2024-11-08T19:00:00	8	Radiación solar	0
133653	7	Sololá	701	Sololá	4	Finca Santa Victoria	9	Septiembre	2023-09-30T00:00:00	2024-11-08T20:00:00	2	Temperatura media	14.8
133654	7	Sololá	701	Sololá	4	Finca Santa Victoria	9	Septiembre	2023-09-30T00:00:00	2024-11-08T20:00:00	4	Temperatura máxima	15.3
133655	7	Sololá	701	Sololá	4	Finca Santa Victoria	9	Septiembre	2023-09-30T00:00:00	2024-11-08T20:00:00	3	Temperatura mínima	14.8
133656	7	Sololá	701	Sololá	4	Finca Santa Victoria	9	Septiembre	2023-09-30T00:00:00	2024-11-08T20:00:00	5	Humedad	92
133657	7	Sololá	701	Sololá	4	Finca Santa Victoria	9	Septiembre	2023-09-30T00:00:00	2024-11-08T20:00:00	6	Velocidad del viento	1.6
133658	7	Sololá	701	Sololá	4	Finca Santa Victoria	9	Septiembre	2023-09-30T00:00:00	2024-11-08T20:00:00	7	Dirección del viento	1.61
133659	7	Sololá	701	Sololá	4	Finca Santa Victoria	9	Septiembre	2023-09-30T00:00:00	2024-11-08T20:00:00	1	Precipitación	0
133660	7	Sololá	701	Sololá	4	Finca Santa Victoria	9	Septiembre	2023-09-30T00:00:00	2024-11-08T20:00:00	8	Radiación solar	0
133661	7	Sololá	701	Sololá	4	Finca Santa Victoria	9	Septiembre	2023-09-30T00:00:00	2024-11-08T21:00:00	2	Temperatura media	14
133662	7	Sololá	701	Sololá	4	Finca Santa Victoria	9	Septiembre	2023-09-30T00:00:00	2024-11-08T21:00:00	4	Temperatura máxima	14.8
133663	7	Sololá	701	Sololá	4	Finca Santa Victoria	9	Septiembre	2023-09-30T00:00:00	2024-11-08T21:00:00	3	Temperatura mínima	14
133664	7	Sololá	701	Sololá	4	Finca Santa Victoria	9	Septiembre	2023-09-30T00:00:00	2024-11-08T21:00:00	5	Humedad	93
133665	7	Sololá	701	Sololá	4	Finca Santa Victoria	9	Septiembre	2023-09-30T00:00:00	2024-11-08T21:00:00	6	Velocidad del viento	0
133666	7	Sololá	701	Sololá	4	Finca Santa Victoria	9	Septiembre	2023-09-30T00:00:00	2024-11-08T21:00:00	7	Dirección del viento	0
133667	7	Sololá	701	Sololá	4	Finca Santa Victoria	9	Septiembre	2023-09-30T00:00:00	2024-11-08T21:00:00	1	Precipitación	0
133668	7	Sololá	701	Sololá	4	Finca Santa Victoria	9	Septiembre	2023-09-30T00:00:00	2024-11-08T21:00:00	8	Radiación solar	0
133669	7	Sololá	701	Sololá	4	Finca Santa Victoria	9	Septiembre	2023-09-30T00:00:00	2024-11-08T22:00:00	2	Temperatura media	13.4
133670	7	Sololá	701	Sololá	4	Finca Santa Victoria	9	Septiembre	2023-09-30T00:00:00	2024-11-08T22:00:00	4	Temperatura máxima	14
133671	7	Sololá	701	Sololá	4	Finca Santa Victoria	9	Septiembre	2023-09-30T00:00:00	2024-11-08T22:00:00	3	Temperatura mínima	13.4
133672	7	Sololá	701	Sololá	4	Finca Santa Victoria	9	Septiembre	2023-09-30T00:00:00	2024-11-08T22:00:00	5	Humedad	93
133673	7	Sololá	701	Sololá	4	Finca Santa Victoria	9	Septiembre	2023-09-30T00:00:00	2024-11-08T22:00:00	6	Velocidad del viento	0
133674	7	Sololá	701	Sololá	4	Finca Santa Victoria	9	Septiembre	2023-09-30T00:00:00	2024-11-08T22:00:00	7	Dirección del viento	0
133675	7	Sololá	701	Sololá	4	Finca Santa Victoria	9	Septiembre	2023-09-30T00:00:00	2024-11-08T22:00:00	1	Precipitación	0
133676	7	Sololá	701	Sololá	4	Finca Santa Victoria	9	Septiembre	2023-09-30T00:00:00	2024-11-08T22:00:00	8	Radiación solar	0
133677	7	Sololá	701	Sololá	4	Finca Santa Victoria	9	Septiembre	2023-09-30T00:00:00	2024-11-08T23:00:00	2	Temperatura media	13.7
133678	7	Sololá	701	Sololá	4	Finca Santa Victoria	9	Septiembre	2023-09-30T00:00:00	2024-11-08T23:00:00	4	Temperatura máxima	13.7
133679	7	Sololá	701	Sololá	4	Finca Santa Victoria	9	Septiembre	2023-09-30T00:00:00	2024-11-08T23:00:00	3	Temperatura mínima	13.4
133680	7	Sololá	701	Sololá	4	Finca Santa Victoria	9	Septiembre	2023-09-30T00:00:00	2024-11-08T23:00:00	5	Humedad	92
133681	7	Sololá	701	Sololá	4	Finca Santa Victoria	9	Septiembre	2023-09-30T00:00:00	2024-11-08T23:00:00	6	Velocidad del viento	0
133682	7	Sololá	701	Sololá	4	Finca Santa Victoria	9	Septiembre	2023-09-30T00:00:00	2024-11-08T23:00:00	7	Dirección del viento	0
133683	7	Sololá	701	Sololá	4	Finca Santa Victoria	9	Septiembre	2023-09-30T00:00:00	2024-11-08T23:00:00	1	Precipitación	0
133684	7	Sololá	701	Sololá	4	Finca Santa Victoria	9	Septiembre	2023-09-30T00:00:00	2024-11-08T23:00:00	8	Radiación solar	0
133685	7	Sololá	701	Sololá	4	Finca Santa Victoria	10	Octubre	2023-01-10T00:00:00	2024-11-08T00:00:00	2	Temperatura media	13.5
133686	7	Sololá	701	Sololá	4	Finca Santa Victoria	10	Octubre	2023-01-10T00:00:00	2024-11-08T00:00:00	4	Temperatura máxima	13.9
133687	7	Sololá	701	Sololá	4	Finca Santa Victoria	10	Octubre	2023-01-10T00:00:00	2024-11-08T00:00:00	3	Temperatura mínima	13.5
133688	7	Sololá	701	Sololá	4	Finca Santa Victoria	10	Octubre	2023-01-10T00:00:00	2024-11-08T00:00:00	5	Humedad	91
133689	7	Sololá	701	Sololá	4	Finca Santa Victoria	10	Octubre	2023-01-10T00:00:00	2024-11-08T00:00:00	6	Velocidad del viento	0
133690	7	Sololá	701	Sololá	4	Finca Santa Victoria	10	Octubre	2023-01-10T00:00:00	2024-11-08T00:00:00	7	Dirección del viento	0
133691	7	Sololá	701	Sololá	4	Finca Santa Victoria	10	Octubre	2023-01-10T00:00:00	2024-11-08T00:00:00	1	Precipitación	0
133692	7	Sololá	701	Sololá	4	Finca Santa Victoria	10	Octubre	2023-01-10T00:00:00	2024-11-08T00:00:00	8	Radiación solar	0
133693	7	Sololá	701	Sololá	4	Finca Santa Victoria	10	Octubre	2023-01-10T00:00:00	2024-11-08T01:00:00	2	Temperatura media	15.7
133694	7	Sololá	701	Sololá	4	Finca Santa Victoria	10	Octubre	2023-01-10T00:00:00	2024-11-08T01:00:00	4	Temperatura máxima	15.8
133695	7	Sololá	701	Sololá	4	Finca Santa Victoria	10	Octubre	2023-01-10T00:00:00	2024-11-08T01:00:00	3	Temperatura mínima	15.6
133696	7	Sololá	701	Sololá	4	Finca Santa Victoria	10	Octubre	2023-01-10T00:00:00	2024-11-08T01:00:00	5	Humedad	96
133697	7	Sololá	701	Sololá	4	Finca Santa Victoria	10	Octubre	2023-01-10T00:00:00	2024-11-08T01:00:00	6	Velocidad del viento	0
133698	7	Sololá	701	Sololá	4	Finca Santa Victoria	10	Octubre	2023-01-10T00:00:00	2024-11-08T01:00:00	7	Dirección del viento	0
133699	7	Sololá	701	Sololá	4	Finca Santa Victoria	10	Octubre	2023-01-10T00:00:00	2024-11-08T01:00:00	1	Precipitación	0
133700	7	Sololá	701	Sololá	4	Finca Santa Victoria	10	Octubre	2023-01-10T00:00:00	2024-11-08T01:00:00	8	Radiación solar	0
133701	7	Sololá	701	Sololá	4	Finca Santa Victoria	10	Octubre	2023-01-10T00:00:00	2024-11-08T02:00:00	2	Temperatura media	15.8
133702	7	Sololá	701	Sololá	4	Finca Santa Victoria	10	Octubre	2023-01-10T00:00:00	2024-11-08T02:00:00	4	Temperatura máxima	15.8
133703	7	Sololá	701	Sololá	4	Finca Santa Victoria	10	Octubre	2023-01-10T00:00:00	2024-11-08T02:00:00	3	Temperatura mínima	15.7
133704	7	Sololá	701	Sololá	4	Finca Santa Victoria	10	Octubre	2023-01-10T00:00:00	2024-11-08T02:00:00	5	Humedad	92
133705	7	Sololá	701	Sololá	4	Finca Santa Victoria	10	Octubre	2023-01-10T00:00:00	2024-11-08T02:00:00	6	Velocidad del viento	1.6
133706	7	Sololá	701	Sololá	4	Finca Santa Victoria	10	Octubre	2023-01-10T00:00:00	2024-11-08T02:00:00	7	Dirección del viento	0.8
133707	7	Sololá	701	Sololá	4	Finca Santa Victoria	10	Octubre	2023-01-10T00:00:00	2024-11-08T02:00:00	1	Precipitación	0
133708	7	Sololá	701	Sololá	4	Finca Santa Victoria	10	Octubre	2023-01-10T00:00:00	2024-11-08T02:00:00	8	Radiación solar	0
133709	7	Sololá	701	Sololá	4	Finca Santa Victoria	10	Octubre	2023-01-10T00:00:00	2024-11-08T03:00:00	2	Temperatura media	15.6
133710	7	Sololá	701	Sololá	4	Finca Santa Victoria	10	Octubre	2023-01-10T00:00:00	2024-11-08T03:00:00	4	Temperatura máxima	15.9
133711	7	Sololá	701	Sololá	4	Finca Santa Victoria	10	Octubre	2023-01-10T00:00:00	2024-11-08T03:00:00	3	Temperatura mínima	15.6
133712	7	Sololá	701	Sololá	4	Finca Santa Victoria	10	Octubre	2023-01-10T00:00:00	2024-11-08T03:00:00	5	Humedad	90
133713	7	Sololá	701	Sololá	4	Finca Santa Victoria	10	Octubre	2023-01-10T00:00:00	2024-11-08T03:00:00	6	Velocidad del viento	0
133714	7	Sololá	701	Sololá	4	Finca Santa Victoria	10	Octubre	2023-01-10T00:00:00	2024-11-08T03:00:00	7	Dirección del viento	0
133715	7	Sololá	701	Sololá	4	Finca Santa Victoria	10	Octubre	2023-01-10T00:00:00	2024-11-08T03:00:00	1	Precipitación	0
133716	7	Sololá	701	Sololá	4	Finca Santa Victoria	10	Octubre	2023-01-10T00:00:00	2024-11-08T03:00:00	8	Radiación solar	0
133717	7	Sololá	701	Sololá	4	Finca Santa Victoria	10	Octubre	2023-01-10T00:00:00	2024-11-08T04:00:00	2	Temperatura media	15.5
133718	7	Sololá	701	Sololá	4	Finca Santa Victoria	10	Octubre	2023-01-10T00:00:00	2024-11-08T04:00:00	4	Temperatura máxima	15.6
133719	7	Sololá	701	Sololá	4	Finca Santa Victoria	10	Octubre	2023-01-10T00:00:00	2024-11-08T04:00:00	3	Temperatura mínima	15.3
133720	7	Sololá	701	Sololá	4	Finca Santa Victoria	10	Octubre	2023-01-10T00:00:00	2024-11-08T04:00:00	5	Humedad	90
133721	7	Sololá	701	Sololá	4	Finca Santa Victoria	10	Octubre	2023-01-10T00:00:00	2024-11-08T04:00:00	6	Velocidad del viento	4.8
133722	7	Sololá	701	Sololá	4	Finca Santa Victoria	10	Octubre	2023-01-10T00:00:00	2024-11-08T04:00:00	7	Dirección del viento	2.41
133723	7	Sololá	701	Sololá	4	Finca Santa Victoria	10	Octubre	2023-01-10T00:00:00	2024-11-08T04:00:00	1	Precipitación	0
133724	7	Sololá	701	Sololá	4	Finca Santa Victoria	10	Octubre	2023-01-10T00:00:00	2024-11-08T04:00:00	8	Radiación solar	0
133725	7	Sololá	701	Sololá	4	Finca Santa Victoria	10	Octubre	2023-01-10T00:00:00	2024-11-08T05:00:00	2	Temperatura media	14.1
133726	7	Sololá	701	Sololá	4	Finca Santa Victoria	10	Octubre	2023-01-10T00:00:00	2024-11-08T05:00:00	4	Temperatura máxima	15.3
133727	7	Sololá	701	Sololá	4	Finca Santa Victoria	10	Octubre	2023-01-10T00:00:00	2024-11-08T05:00:00	3	Temperatura mínima	14.1
133728	7	Sololá	701	Sololá	4	Finca Santa Victoria	10	Octubre	2023-01-10T00:00:00	2024-11-08T05:00:00	5	Humedad	94
133729	7	Sololá	701	Sololá	4	Finca Santa Victoria	10	Octubre	2023-01-10T00:00:00	2024-11-08T05:00:00	6	Velocidad del viento	0
133730	7	Sololá	701	Sololá	4	Finca Santa Victoria	10	Octubre	2023-01-10T00:00:00	2024-11-08T05:00:00	7	Dirección del viento	0
133731	7	Sololá	701	Sololá	4	Finca Santa Victoria	10	Octubre	2023-01-10T00:00:00	2024-11-08T05:00:00	1	Precipitación	0
133732	7	Sololá	701	Sololá	4	Finca Santa Victoria	10	Octubre	2023-01-10T00:00:00	2024-11-08T05:00:00	8	Radiación solar	0
133733	7	Sololá	701	Sololá	4	Finca Santa Victoria	10	Octubre	2023-01-10T00:00:00	2024-11-08T06:00:00	2	Temperatura media	15
133734	7	Sololá	701	Sololá	4	Finca Santa Victoria	10	Octubre	2023-01-10T00:00:00	2024-11-08T06:00:00	4	Temperatura máxima	15.1
133735	7	Sololá	701	Sololá	4	Finca Santa Victoria	10	Octubre	2023-01-10T00:00:00	2024-11-08T06:00:00	3	Temperatura mínima	14
133736	7	Sololá	701	Sololá	4	Finca Santa Victoria	10	Octubre	2023-01-10T00:00:00	2024-11-08T06:00:00	5	Humedad	91
133737	7	Sololá	701	Sololá	4	Finca Santa Victoria	10	Octubre	2023-01-10T00:00:00	2024-11-08T06:00:00	6	Velocidad del viento	3.2
133738	7	Sololá	701	Sololá	4	Finca Santa Victoria	10	Octubre	2023-01-10T00:00:00	2024-11-08T06:00:00	7	Dirección del viento	1.61
133739	7	Sololá	701	Sololá	4	Finca Santa Victoria	10	Octubre	2023-01-10T00:00:00	2024-11-08T06:00:00	1	Precipitación	0
133740	7	Sololá	701	Sololá	4	Finca Santa Victoria	10	Octubre	2023-01-10T00:00:00	2024-11-08T06:00:00	8	Radiación solar	0
133741	7	Sololá	701	Sololá	4	Finca Santa Victoria	10	Octubre	2023-01-10T00:00:00	2024-11-08T07:00:00	2	Temperatura media	17.1
133742	7	Sololá	701	Sololá	4	Finca Santa Victoria	10	Octubre	2023-01-10T00:00:00	2024-11-08T07:00:00	4	Temperatura máxima	17.1
133743	7	Sololá	701	Sololá	4	Finca Santa Victoria	10	Octubre	2023-01-10T00:00:00	2024-11-08T07:00:00	3	Temperatura mínima	15.3
133744	7	Sololá	701	Sololá	4	Finca Santa Victoria	10	Octubre	2023-01-10T00:00:00	2024-11-08T07:00:00	5	Humedad	84
133745	7	Sololá	701	Sololá	4	Finca Santa Victoria	10	Octubre	2023-01-10T00:00:00	2024-11-08T07:00:00	6	Velocidad del viento	1.6
133746	7	Sololá	701	Sololá	4	Finca Santa Victoria	10	Octubre	2023-01-10T00:00:00	2024-11-08T07:00:00	7	Dirección del viento	0.8
133747	7	Sololá	701	Sololá	4	Finca Santa Victoria	10	Octubre	2023-01-10T00:00:00	2024-11-08T07:00:00	1	Precipitación	0
133748	7	Sololá	701	Sololá	4	Finca Santa Victoria	10	Octubre	2023-01-10T00:00:00	2024-11-08T07:00:00	8	Radiación solar	23
133749	7	Sololá	701	Sololá	4	Finca Santa Victoria	10	Octubre	2023-01-10T00:00:00	2024-11-08T08:00:00	2	Temperatura media	18.7
133750	7	Sololá	701	Sololá	4	Finca Santa Victoria	10	Octubre	2023-01-10T00:00:00	2024-11-08T08:00:00	4	Temperatura máxima	18.7
133751	7	Sololá	701	Sololá	4	Finca Santa Victoria	10	Octubre	2023-01-10T00:00:00	2024-11-08T08:00:00	3	Temperatura mínima	17.8
133752	7	Sololá	701	Sololá	4	Finca Santa Victoria	10	Octubre	2023-01-10T00:00:00	2024-11-08T08:00:00	5	Humedad	78
133753	7	Sololá	701	Sololá	4	Finca Santa Victoria	10	Octubre	2023-01-10T00:00:00	2024-11-08T08:00:00	6	Velocidad del viento	1.6
133754	7	Sololá	701	Sololá	4	Finca Santa Victoria	10	Octubre	2023-01-10T00:00:00	2024-11-08T08:00:00	7	Dirección del viento	0.8
133755	7	Sololá	701	Sololá	4	Finca Santa Victoria	10	Octubre	2023-01-10T00:00:00	2024-11-08T08:00:00	1	Precipitación	0
133756	7	Sololá	701	Sololá	4	Finca Santa Victoria	10	Octubre	2023-01-10T00:00:00	2024-11-08T08:00:00	8	Radiación solar	258
133757	7	Sololá	701	Sololá	4	Finca Santa Victoria	10	Octubre	2023-01-10T00:00:00	2024-11-08T09:00:00	2	Temperatura media	20.5
133758	7	Sololá	701	Sololá	4	Finca Santa Victoria	10	Octubre	2023-01-10T00:00:00	2024-11-08T09:00:00	4	Temperatura máxima	20.5
133759	7	Sololá	701	Sololá	4	Finca Santa Victoria	10	Octubre	2023-01-10T00:00:00	2024-11-08T09:00:00	3	Temperatura mínima	19.4
133760	7	Sololá	701	Sololá	4	Finca Santa Victoria	10	Octubre	2023-01-10T00:00:00	2024-11-08T09:00:00	5	Humedad	74
133761	7	Sololá	701	Sololá	4	Finca Santa Victoria	10	Octubre	2023-01-10T00:00:00	2024-11-08T09:00:00	6	Velocidad del viento	3.2
133762	7	Sololá	701	Sololá	4	Finca Santa Victoria	10	Octubre	2023-01-10T00:00:00	2024-11-08T09:00:00	7	Dirección del viento	1.61
133763	7	Sololá	701	Sololá	4	Finca Santa Victoria	10	Octubre	2023-01-10T00:00:00	2024-11-08T09:00:00	1	Precipitación	0
133764	7	Sololá	701	Sololá	4	Finca Santa Victoria	10	Octubre	2023-01-10T00:00:00	2024-11-08T09:00:00	8	Radiación solar	620
133765	7	Sololá	701	Sololá	4	Finca Santa Victoria	10	Octubre	2023-01-10T00:00:00	2024-11-08T10:00:00	2	Temperatura media	22.8
133766	7	Sololá	701	Sololá	4	Finca Santa Victoria	10	Octubre	2023-01-10T00:00:00	2024-11-08T10:00:00	4	Temperatura máxima	22.9
133767	7	Sololá	701	Sololá	4	Finca Santa Victoria	10	Octubre	2023-01-10T00:00:00	2024-11-08T10:00:00	3	Temperatura mínima	21.7
133768	7	Sololá	701	Sololá	4	Finca Santa Victoria	10	Octubre	2023-01-10T00:00:00	2024-11-08T10:00:00	5	Humedad	72
133769	7	Sololá	701	Sololá	4	Finca Santa Victoria	10	Octubre	2023-01-10T00:00:00	2024-11-08T10:00:00	6	Velocidad del viento	0
133770	7	Sololá	701	Sololá	4	Finca Santa Victoria	10	Octubre	2023-01-10T00:00:00	2024-11-08T10:00:00	7	Dirección del viento	0
133771	7	Sololá	701	Sololá	4	Finca Santa Victoria	10	Octubre	2023-01-10T00:00:00	2024-11-08T10:00:00	1	Precipitación	0
133772	7	Sololá	701	Sololá	4	Finca Santa Victoria	10	Octubre	2023-01-10T00:00:00	2024-11-08T10:00:00	8	Radiación solar	822
133773	7	Sololá	701	Sololá	4	Finca Santa Victoria	10	Octubre	2023-01-10T00:00:00	2024-11-08T11:00:00	2	Temperatura media	22.3
133774	7	Sololá	701	Sololá	4	Finca Santa Victoria	10	Octubre	2023-01-10T00:00:00	2024-11-08T11:00:00	4	Temperatura máxima	22.3
133775	7	Sololá	701	Sololá	4	Finca Santa Victoria	10	Octubre	2023-01-10T00:00:00	2024-11-08T11:00:00	3	Temperatura mínima	20.3
133776	7	Sololá	701	Sololá	4	Finca Santa Victoria	10	Octubre	2023-01-10T00:00:00	2024-11-08T11:00:00	5	Humedad	79
133777	7	Sololá	701	Sololá	4	Finca Santa Victoria	10	Octubre	2023-01-10T00:00:00	2024-11-08T11:00:00	6	Velocidad del viento	4.8
133778	7	Sololá	701	Sololá	4	Finca Santa Victoria	10	Octubre	2023-01-10T00:00:00	2024-11-08T11:00:00	7	Dirección del viento	2.41
133779	7	Sololá	701	Sololá	4	Finca Santa Victoria	10	Octubre	2023-01-10T00:00:00	2024-11-08T11:00:00	1	Precipitación	0
133780	7	Sololá	701	Sololá	4	Finca Santa Victoria	10	Octubre	2023-01-10T00:00:00	2024-11-08T11:00:00	8	Radiación solar	832
133781	7	Sololá	701	Sololá	4	Finca Santa Victoria	10	Octubre	2023-01-10T00:00:00	2024-11-08T12:00:00	2	Temperatura media	20.1
133782	7	Sololá	701	Sololá	4	Finca Santa Victoria	10	Octubre	2023-01-10T00:00:00	2024-11-08T12:00:00	4	Temperatura máxima	20.8
133783	7	Sololá	701	Sololá	4	Finca Santa Victoria	10	Octubre	2023-01-10T00:00:00	2024-11-08T12:00:00	3	Temperatura mínima	20.1
133784	7	Sololá	701	Sololá	4	Finca Santa Victoria	10	Octubre	2023-01-10T00:00:00	2024-11-08T12:00:00	5	Humedad	90
133785	7	Sololá	701	Sololá	4	Finca Santa Victoria	10	Octubre	2023-01-10T00:00:00	2024-11-08T12:00:00	6	Velocidad del viento	6.4
133786	7	Sololá	701	Sololá	4	Finca Santa Victoria	10	Octubre	2023-01-10T00:00:00	2024-11-08T12:00:00	7	Dirección del viento	3.22
133787	7	Sololá	701	Sololá	4	Finca Santa Victoria	10	Octubre	2023-01-10T00:00:00	2024-11-08T12:00:00	1	Precipitación	0
133788	7	Sololá	701	Sololá	4	Finca Santa Victoria	10	Octubre	2023-01-10T00:00:00	2024-11-08T12:00:00	8	Radiación solar	166
133789	7	Sololá	701	Sololá	4	Finca Santa Victoria	10	Octubre	2023-01-10T00:00:00	2024-11-08T13:00:00	2	Temperatura media	20.7
133790	7	Sololá	701	Sololá	4	Finca Santa Victoria	10	Octubre	2023-01-10T00:00:00	2024-11-08T13:00:00	4	Temperatura máxima	21.2
133791	7	Sololá	701	Sololá	4	Finca Santa Victoria	10	Octubre	2023-01-10T00:00:00	2024-11-08T13:00:00	3	Temperatura mínima	20.2
133792	7	Sololá	701	Sololá	4	Finca Santa Victoria	10	Octubre	2023-01-10T00:00:00	2024-11-08T13:00:00	5	Humedad	62
133793	7	Sololá	701	Sololá	4	Finca Santa Victoria	10	Octubre	2023-01-10T00:00:00	2024-11-08T13:00:00	6	Velocidad del viento	3.2
133794	7	Sololá	701	Sololá	4	Finca Santa Victoria	10	Octubre	2023-01-10T00:00:00	2024-11-08T13:00:00	7	Dirección del viento	3.22
133795	7	Sololá	701	Sololá	4	Finca Santa Victoria	10	Octubre	2023-01-10T00:00:00	2024-11-08T13:00:00	1	Precipitación	0
133796	7	Sololá	701	Sololá	4	Finca Santa Victoria	10	Octubre	2023-01-10T00:00:00	2024-11-08T13:00:00	8	Radiación solar	111
133797	7	Sololá	701	Sololá	4	Finca Santa Victoria	10	Octubre	2023-01-10T00:00:00	2024-11-08T14:00:00	2	Temperatura media	20.4
133798	7	Sololá	701	Sololá	4	Finca Santa Victoria	10	Octubre	2023-01-10T00:00:00	2024-11-08T14:00:00	4	Temperatura máxima	21.7
133799	7	Sololá	701	Sololá	4	Finca Santa Victoria	10	Octubre	2023-01-10T00:00:00	2024-11-08T14:00:00	3	Temperatura mínima	20.4
133800	7	Sololá	701	Sololá	4	Finca Santa Victoria	10	Octubre	2023-01-10T00:00:00	2024-11-08T14:00:00	5	Humedad	89
133801	7	Sololá	701	Sololá	4	Finca Santa Victoria	10	Octubre	2023-01-10T00:00:00	2024-11-08T14:00:00	6	Velocidad del viento	8
133802	7	Sololá	701	Sololá	4	Finca Santa Victoria	10	Octubre	2023-01-10T00:00:00	2024-11-08T14:00:00	7	Dirección del viento	4.02
133803	7	Sololá	701	Sololá	4	Finca Santa Victoria	10	Octubre	2023-01-10T00:00:00	2024-11-08T14:00:00	1	Precipitación	0
133804	7	Sololá	701	Sololá	4	Finca Santa Victoria	10	Octubre	2023-01-10T00:00:00	2024-11-08T14:00:00	8	Radiación solar	106
133805	7	Sololá	701	Sololá	4	Finca Santa Victoria	10	Octubre	2023-01-10T00:00:00	2024-11-08T15:00:00	2	Temperatura media	19.8
133806	7	Sololá	701	Sololá	4	Finca Santa Victoria	10	Octubre	2023-01-10T00:00:00	2024-11-08T15:00:00	4	Temperatura máxima	20.3
133807	7	Sololá	701	Sololá	4	Finca Santa Victoria	10	Octubre	2023-01-10T00:00:00	2024-11-08T15:00:00	3	Temperatura mínima	19.8
133808	7	Sololá	701	Sololá	4	Finca Santa Victoria	10	Octubre	2023-01-10T00:00:00	2024-11-08T15:00:00	5	Humedad	91
133809	7	Sololá	701	Sololá	4	Finca Santa Victoria	10	Octubre	2023-01-10T00:00:00	2024-11-08T15:00:00	6	Velocidad del viento	4.8
133810	7	Sololá	701	Sololá	4	Finca Santa Victoria	10	Octubre	2023-01-10T00:00:00	2024-11-08T15:00:00	7	Dirección del viento	2.41
133811	7	Sololá	701	Sololá	4	Finca Santa Victoria	10	Octubre	2023-01-10T00:00:00	2024-11-08T15:00:00	1	Precipitación	0
133812	7	Sololá	701	Sololá	4	Finca Santa Victoria	10	Octubre	2023-01-10T00:00:00	2024-11-08T15:00:00	8	Radiación solar	154
133813	7	Sololá	701	Sololá	4	Finca Santa Victoria	10	Octubre	2023-01-10T00:00:00	2024-11-08T16:00:00	2	Temperatura media	19.1
133814	7	Sololá	701	Sololá	4	Finca Santa Victoria	10	Octubre	2023-01-10T00:00:00	2024-11-08T16:00:00	4	Temperatura máxima	20.1
133815	7	Sololá	701	Sololá	4	Finca Santa Victoria	10	Octubre	2023-01-10T00:00:00	2024-11-08T16:00:00	3	Temperatura mínima	19.1
133816	7	Sololá	701	Sololá	4	Finca Santa Victoria	10	Octubre	2023-01-10T00:00:00	2024-11-08T16:00:00	5	Humedad	95
133817	7	Sololá	701	Sololá	4	Finca Santa Victoria	10	Octubre	2023-01-10T00:00:00	2024-11-08T16:00:00	6	Velocidad del viento	6.4
133818	7	Sololá	701	Sololá	4	Finca Santa Victoria	10	Octubre	2023-01-10T00:00:00	2024-11-08T16:00:00	7	Dirección del viento	3.22
133819	7	Sololá	701	Sololá	4	Finca Santa Victoria	10	Octubre	2023-01-10T00:00:00	2024-11-08T16:00:00	1	Precipitación	0
133820	7	Sololá	701	Sololá	4	Finca Santa Victoria	10	Octubre	2023-01-10T00:00:00	2024-11-08T16:00:00	8	Radiación solar	81
133821	7	Sololá	701	Sololá	4	Finca Santa Victoria	10	Octubre	2023-01-10T00:00:00	2024-11-08T17:00:00	2	Temperatura media	18.7
133822	7	Sololá	701	Sololá	4	Finca Santa Victoria	10	Octubre	2023-01-10T00:00:00	2024-11-08T17:00:00	4	Temperatura máxima	19.2
133823	7	Sololá	701	Sololá	4	Finca Santa Victoria	10	Octubre	2023-01-10T00:00:00	2024-11-08T17:00:00	3	Temperatura mínima	18.6
133824	7	Sololá	701	Sololá	4	Finca Santa Victoria	10	Octubre	2023-01-10T00:00:00	2024-11-08T17:00:00	5	Humedad	96
133825	7	Sololá	701	Sololá	4	Finca Santa Victoria	10	Octubre	2023-01-10T00:00:00	2024-11-08T17:00:00	6	Velocidad del viento	4.8
133826	7	Sololá	701	Sololá	4	Finca Santa Victoria	10	Octubre	2023-01-10T00:00:00	2024-11-08T17:00:00	7	Dirección del viento	2.41
133827	7	Sololá	701	Sololá	4	Finca Santa Victoria	10	Octubre	2023-01-10T00:00:00	2024-11-08T17:00:00	1	Precipitación	0
133828	7	Sololá	701	Sololá	4	Finca Santa Victoria	10	Octubre	2023-01-10T00:00:00	2024-11-08T17:00:00	8	Radiación solar	29
133829	7	Sololá	701	Sololá	4	Finca Santa Victoria	10	Octubre	2023-01-10T00:00:00	2024-11-08T18:00:00	2	Temperatura media	17.7
133830	7	Sololá	701	Sololá	4	Finca Santa Victoria	10	Octubre	2023-01-10T00:00:00	2024-11-08T18:00:00	4	Temperatura máxima	18.4
133831	7	Sololá	701	Sololá	4	Finca Santa Victoria	10	Octubre	2023-01-10T00:00:00	2024-11-08T18:00:00	3	Temperatura mínima	17.7
133832	7	Sololá	701	Sololá	4	Finca Santa Victoria	10	Octubre	2023-01-10T00:00:00	2024-11-08T18:00:00	5	Humedad	97
133833	7	Sololá	701	Sololá	4	Finca Santa Victoria	10	Octubre	2023-01-10T00:00:00	2024-11-08T18:00:00	6	Velocidad del viento	4.8
133834	7	Sololá	701	Sololá	4	Finca Santa Victoria	10	Octubre	2023-01-10T00:00:00	2024-11-08T18:00:00	7	Dirección del viento	2.41
133835	7	Sololá	701	Sololá	4	Finca Santa Victoria	10	Octubre	2023-01-10T00:00:00	2024-11-08T18:00:00	1	Precipitación	0
133836	7	Sololá	701	Sololá	4	Finca Santa Victoria	10	Octubre	2023-01-10T00:00:00	2024-11-08T18:00:00	8	Radiación solar	6
133837	7	Sololá	701	Sololá	4	Finca Santa Victoria	10	Octubre	2023-01-10T00:00:00	2024-11-08T19:00:00	2	Temperatura media	17.4
133838	7	Sololá	701	Sololá	4	Finca Santa Victoria	10	Octubre	2023-01-10T00:00:00	2024-11-08T19:00:00	4	Temperatura máxima	17.5
133839	7	Sololá	701	Sololá	4	Finca Santa Victoria	10	Octubre	2023-01-10T00:00:00	2024-11-08T19:00:00	3	Temperatura mínima	17.4
133840	7	Sololá	701	Sololá	4	Finca Santa Victoria	10	Octubre	2023-01-10T00:00:00	2024-11-08T19:00:00	5	Humedad	97
133841	7	Sololá	701	Sololá	4	Finca Santa Victoria	10	Octubre	2023-01-10T00:00:00	2024-11-08T19:00:00	6	Velocidad del viento	0
133842	7	Sololá	701	Sololá	4	Finca Santa Victoria	10	Octubre	2023-01-10T00:00:00	2024-11-08T19:00:00	7	Dirección del viento	0
133843	7	Sololá	701	Sololá	4	Finca Santa Victoria	10	Octubre	2023-01-10T00:00:00	2024-11-08T19:00:00	1	Precipitación	0
133844	7	Sololá	701	Sololá	4	Finca Santa Victoria	10	Octubre	2023-01-10T00:00:00	2024-11-08T19:00:00	8	Radiación solar	0
133845	7	Sololá	701	Sololá	4	Finca Santa Victoria	10	Octubre	2023-01-10T00:00:00	2024-11-08T20:00:00	2	Temperatura media	17.2
133846	7	Sololá	701	Sololá	4	Finca Santa Victoria	10	Octubre	2023-01-10T00:00:00	2024-11-08T20:00:00	4	Temperatura máxima	17.2
133847	7	Sololá	701	Sololá	4	Finca Santa Victoria	10	Octubre	2023-01-10T00:00:00	2024-11-08T20:00:00	3	Temperatura mínima	17.1
133848	7	Sololá	701	Sololá	4	Finca Santa Victoria	10	Octubre	2023-01-10T00:00:00	2024-11-08T20:00:00	5	Humedad	98
133849	7	Sololá	701	Sololá	4	Finca Santa Victoria	10	Octubre	2023-01-10T00:00:00	2024-11-08T20:00:00	6	Velocidad del viento	0
133850	7	Sololá	701	Sololá	4	Finca Santa Victoria	10	Octubre	2023-01-10T00:00:00	2024-11-08T20:00:00	7	Dirección del viento	0
133851	7	Sololá	701	Sololá	4	Finca Santa Victoria	10	Octubre	2023-01-10T00:00:00	2024-11-08T20:00:00	1	Precipitación	0
133852	7	Sololá	701	Sololá	4	Finca Santa Victoria	10	Octubre	2023-01-10T00:00:00	2024-11-08T20:00:00	8	Radiación solar	0
133853	7	Sololá	701	Sololá	4	Finca Santa Victoria	10	Octubre	2023-01-10T00:00:00	2024-11-08T21:00:00	2	Temperatura media	17.2
133854	7	Sololá	701	Sololá	4	Finca Santa Victoria	10	Octubre	2023-01-10T00:00:00	2024-11-08T21:00:00	4	Temperatura máxima	17.2
133855	7	Sololá	701	Sololá	4	Finca Santa Victoria	10	Octubre	2023-01-10T00:00:00	2024-11-08T21:00:00	3	Temperatura mínima	17.2
133856	7	Sololá	701	Sololá	4	Finca Santa Victoria	10	Octubre	2023-01-10T00:00:00	2024-11-08T21:00:00	5	Humedad	98
133857	7	Sololá	701	Sololá	4	Finca Santa Victoria	10	Octubre	2023-01-10T00:00:00	2024-11-08T21:00:00	6	Velocidad del viento	0
133858	7	Sololá	701	Sololá	4	Finca Santa Victoria	10	Octubre	2023-01-10T00:00:00	2024-11-08T21:00:00	7	Dirección del viento	0
133859	7	Sololá	701	Sololá	4	Finca Santa Victoria	10	Octubre	2023-01-10T00:00:00	2024-11-08T21:00:00	1	Precipitación	1.4
133860	7	Sololá	701	Sololá	4	Finca Santa Victoria	10	Octubre	2023-01-10T00:00:00	2024-11-08T21:00:00	8	Radiación solar	0
133861	7	Sololá	701	Sololá	4	Finca Santa Victoria	10	Octubre	2023-01-10T00:00:00	2024-11-08T22:00:00	2	Temperatura media	16.9
133862	7	Sololá	701	Sololá	4	Finca Santa Victoria	10	Octubre	2023-01-10T00:00:00	2024-11-08T22:00:00	4	Temperatura máxima	17.1
133863	7	Sololá	701	Sololá	4	Finca Santa Victoria	10	Octubre	2023-01-10T00:00:00	2024-11-08T22:00:00	3	Temperatura mínima	16.9
133864	7	Sololá	701	Sololá	4	Finca Santa Victoria	10	Octubre	2023-01-10T00:00:00	2024-11-08T22:00:00	5	Humedad	98
133865	7	Sololá	701	Sololá	4	Finca Santa Victoria	10	Octubre	2023-01-10T00:00:00	2024-11-08T22:00:00	6	Velocidad del viento	0
133866	7	Sololá	701	Sololá	4	Finca Santa Victoria	10	Octubre	2023-01-10T00:00:00	2024-11-08T22:00:00	7	Dirección del viento	0
133867	7	Sololá	701	Sololá	4	Finca Santa Victoria	10	Octubre	2023-01-10T00:00:00	2024-11-08T22:00:00	1	Precipitación	0
133868	7	Sololá	701	Sololá	4	Finca Santa Victoria	10	Octubre	2023-01-10T00:00:00	2024-11-08T22:00:00	8	Radiación solar	0
133869	7	Sololá	701	Sololá	4	Finca Santa Victoria	10	Octubre	2023-01-10T00:00:00	2024-11-08T23:00:00	2	Temperatura media	16.7
133870	7	Sololá	701	Sololá	4	Finca Santa Victoria	10	Octubre	2023-01-10T00:00:00	2024-11-08T23:00:00	4	Temperatura máxima	16.9
133871	7	Sololá	701	Sololá	4	Finca Santa Victoria	10	Octubre	2023-01-10T00:00:00	2024-11-08T23:00:00	3	Temperatura mínima	16.7
133872	7	Sololá	701	Sololá	4	Finca Santa Victoria	10	Octubre	2023-01-10T00:00:00	2024-11-08T23:00:00	5	Humedad	98
133873	7	Sololá	701	Sololá	4	Finca Santa Victoria	10	Octubre	2023-01-10T00:00:00	2024-11-08T23:00:00	6	Velocidad del viento	0
133874	7	Sololá	701	Sololá	4	Finca Santa Victoria	10	Octubre	2023-01-10T00:00:00	2024-11-08T23:00:00	7	Dirección del viento	0
133875	7	Sololá	701	Sololá	4	Finca Santa Victoria	10	Octubre	2023-01-10T00:00:00	2024-11-08T23:00:00	1	Precipitación	0
133876	7	Sololá	701	Sololá	4	Finca Santa Victoria	10	Octubre	2023-01-10T00:00:00	2024-11-08T23:00:00	8	Radiación solar	0
133877	7	Sololá	701	Sololá	4	Finca Santa Victoria	10	Octubre	2023-02-10T00:00:00	2024-11-08T00:00:00	2	Temperatura media	16.4
133878	7	Sololá	701	Sololá	4	Finca Santa Victoria	10	Octubre	2023-02-10T00:00:00	2024-11-08T00:00:00	4	Temperatura máxima	16.7
133879	7	Sololá	701	Sololá	4	Finca Santa Victoria	10	Octubre	2023-02-10T00:00:00	2024-11-08T00:00:00	3	Temperatura mínima	16.4
133880	7	Sololá	701	Sololá	4	Finca Santa Victoria	10	Octubre	2023-02-10T00:00:00	2024-11-08T00:00:00	5	Humedad	98
133881	7	Sololá	701	Sololá	4	Finca Santa Victoria	10	Octubre	2023-02-10T00:00:00	2024-11-08T00:00:00	6	Velocidad del viento	0
133882	7	Sololá	701	Sololá	4	Finca Santa Victoria	10	Octubre	2023-02-10T00:00:00	2024-11-08T00:00:00	7	Dirección del viento	0
133883	7	Sololá	701	Sololá	4	Finca Santa Victoria	10	Octubre	2023-02-10T00:00:00	2024-11-08T00:00:00	1	Precipitación	0
133884	7	Sololá	701	Sololá	4	Finca Santa Victoria	10	Octubre	2023-02-10T00:00:00	2024-11-08T00:00:00	8	Radiación solar	0
133885	7	Sololá	701	Sololá	4	Finca Santa Victoria	10	Octubre	2023-02-10T00:00:00	2024-11-08T01:00:00	2	Temperatura media	15.8
133886	7	Sololá	701	Sololá	4	Finca Santa Victoria	10	Octubre	2023-02-10T00:00:00	2024-11-08T01:00:00	4	Temperatura máxima	16.2
133887	7	Sololá	701	Sololá	4	Finca Santa Victoria	10	Octubre	2023-02-10T00:00:00	2024-11-08T01:00:00	3	Temperatura mínima	15.8
133888	7	Sololá	701	Sololá	4	Finca Santa Victoria	10	Octubre	2023-02-10T00:00:00	2024-11-08T01:00:00	5	Humedad	98
133889	7	Sololá	701	Sololá	4	Finca Santa Victoria	10	Octubre	2023-02-10T00:00:00	2024-11-08T01:00:00	6	Velocidad del viento	0
133890	7	Sololá	701	Sololá	4	Finca Santa Victoria	10	Octubre	2023-02-10T00:00:00	2024-11-08T01:00:00	7	Dirección del viento	0
133891	7	Sololá	701	Sololá	4	Finca Santa Victoria	10	Octubre	2023-02-10T00:00:00	2024-11-08T01:00:00	1	Precipitación	0
133892	7	Sololá	701	Sololá	4	Finca Santa Victoria	10	Octubre	2023-02-10T00:00:00	2024-11-08T01:00:00	8	Radiación solar	0
133893	7	Sololá	701	Sololá	4	Finca Santa Victoria	10	Octubre	2023-02-10T00:00:00	2024-11-08T02:00:00	2	Temperatura media	15.8
133894	7	Sololá	701	Sololá	4	Finca Santa Victoria	10	Octubre	2023-02-10T00:00:00	2024-11-08T02:00:00	4	Temperatura máxima	16
133895	7	Sololá	701	Sololá	4	Finca Santa Victoria	10	Octubre	2023-02-10T00:00:00	2024-11-08T02:00:00	3	Temperatura mínima	15.8
133896	7	Sololá	701	Sololá	4	Finca Santa Victoria	10	Octubre	2023-02-10T00:00:00	2024-11-08T02:00:00	5	Humedad	98
133897	7	Sololá	701	Sololá	4	Finca Santa Victoria	10	Octubre	2023-02-10T00:00:00	2024-11-08T02:00:00	6	Velocidad del viento	0
133898	7	Sololá	701	Sololá	4	Finca Santa Victoria	10	Octubre	2023-02-10T00:00:00	2024-11-08T02:00:00	7	Dirección del viento	0
133899	7	Sololá	701	Sololá	4	Finca Santa Victoria	10	Octubre	2023-02-10T00:00:00	2024-11-08T02:00:00	1	Precipitación	0
133900	7	Sololá	701	Sololá	4	Finca Santa Victoria	10	Octubre	2023-02-10T00:00:00	2024-11-08T02:00:00	8	Radiación solar	0
133901	7	Sololá	701	Sololá	4	Finca Santa Victoria	10	Octubre	2023-02-10T00:00:00	2024-11-08T03:00:00	2	Temperatura media	15.2
133902	7	Sololá	701	Sololá	4	Finca Santa Victoria	10	Octubre	2023-02-10T00:00:00	2024-11-08T03:00:00	4	Temperatura máxima	15.4
133903	7	Sololá	701	Sololá	4	Finca Santa Victoria	10	Octubre	2023-02-10T00:00:00	2024-11-08T03:00:00	3	Temperatura mínima	15.2
133904	7	Sololá	701	Sololá	4	Finca Santa Victoria	10	Octubre	2023-02-10T00:00:00	2024-11-08T03:00:00	5	Humedad	98
133905	7	Sololá	701	Sololá	4	Finca Santa Victoria	10	Octubre	2023-02-10T00:00:00	2024-11-08T03:00:00	6	Velocidad del viento	0
133906	7	Sololá	701	Sololá	4	Finca Santa Victoria	10	Octubre	2023-02-10T00:00:00	2024-11-08T03:00:00	7	Dirección del viento	0
133907	7	Sololá	701	Sololá	4	Finca Santa Victoria	10	Octubre	2023-02-10T00:00:00	2024-11-08T03:00:00	1	Precipitación	0
133908	7	Sololá	701	Sololá	4	Finca Santa Victoria	10	Octubre	2023-02-10T00:00:00	2024-11-08T03:00:00	8	Radiación solar	0
133909	7	Sololá	701	Sololá	4	Finca Santa Victoria	10	Octubre	2023-02-10T00:00:00	2024-11-08T04:00:00	2	Temperatura media	15.1
133910	7	Sololá	701	Sololá	4	Finca Santa Victoria	10	Octubre	2023-02-10T00:00:00	2024-11-08T04:00:00	4	Temperatura máxima	15.1
133911	7	Sololá	701	Sololá	4	Finca Santa Victoria	10	Octubre	2023-02-10T00:00:00	2024-11-08T04:00:00	3	Temperatura mínima	14.8
133912	7	Sololá	701	Sololá	4	Finca Santa Victoria	10	Octubre	2023-02-10T00:00:00	2024-11-08T04:00:00	5	Humedad	96
133913	7	Sololá	701	Sololá	4	Finca Santa Victoria	10	Octubre	2023-02-10T00:00:00	2024-11-08T04:00:00	6	Velocidad del viento	1.6
133914	7	Sololá	701	Sololá	4	Finca Santa Victoria	10	Octubre	2023-02-10T00:00:00	2024-11-08T04:00:00	7	Dirección del viento	0.8
133915	7	Sololá	701	Sololá	4	Finca Santa Victoria	10	Octubre	2023-02-10T00:00:00	2024-11-08T04:00:00	1	Precipitación	0
133916	7	Sololá	701	Sololá	4	Finca Santa Victoria	10	Octubre	2023-02-10T00:00:00	2024-11-08T04:00:00	8	Radiación solar	0
133917	7	Sololá	701	Sololá	4	Finca Santa Victoria	10	Octubre	2023-02-10T00:00:00	2024-11-08T05:00:00	2	Temperatura media	14.4
133918	7	Sololá	701	Sololá	4	Finca Santa Victoria	10	Octubre	2023-02-10T00:00:00	2024-11-08T05:00:00	4	Temperatura máxima	15.7
133919	7	Sololá	701	Sololá	4	Finca Santa Victoria	10	Octubre	2023-02-10T00:00:00	2024-11-08T05:00:00	3	Temperatura mínima	14.4
133920	7	Sololá	701	Sololá	4	Finca Santa Victoria	10	Octubre	2023-02-10T00:00:00	2024-11-08T05:00:00	5	Humedad	96
133921	7	Sololá	701	Sololá	4	Finca Santa Victoria	10	Octubre	2023-02-10T00:00:00	2024-11-08T05:00:00	6	Velocidad del viento	0
133922	7	Sololá	701	Sololá	4	Finca Santa Victoria	10	Octubre	2023-02-10T00:00:00	2024-11-08T05:00:00	7	Dirección del viento	0
133923	7	Sololá	701	Sololá	4	Finca Santa Victoria	10	Octubre	2023-02-10T00:00:00	2024-11-08T05:00:00	1	Precipitación	0
133924	7	Sololá	701	Sololá	4	Finca Santa Victoria	10	Octubre	2023-02-10T00:00:00	2024-11-08T05:00:00	8	Radiación solar	0
133925	7	Sololá	701	Sololá	4	Finca Santa Victoria	10	Octubre	2023-02-10T00:00:00	2024-11-08T06:00:00	2	Temperatura media	15.7
133926	7	Sololá	701	Sololá	4	Finca Santa Victoria	10	Octubre	2023-02-10T00:00:00	2024-11-08T06:00:00	4	Temperatura máxima	15.8
133927	7	Sololá	701	Sololá	4	Finca Santa Victoria	10	Octubre	2023-02-10T00:00:00	2024-11-08T06:00:00	3	Temperatura mínima	15.4
133928	7	Sololá	701	Sololá	4	Finca Santa Victoria	10	Octubre	2023-02-10T00:00:00	2024-11-08T06:00:00	5	Humedad	91
133929	7	Sololá	701	Sololá	4	Finca Santa Victoria	10	Octubre	2023-02-10T00:00:00	2024-11-08T06:00:00	6	Velocidad del viento	1.6
133930	7	Sololá	701	Sololá	4	Finca Santa Victoria	10	Octubre	2023-02-10T00:00:00	2024-11-08T06:00:00	7	Dirección del viento	0.8
133931	7	Sololá	701	Sololá	4	Finca Santa Victoria	10	Octubre	2023-02-10T00:00:00	2024-11-08T06:00:00	1	Precipitación	0.2
133932	7	Sololá	701	Sololá	4	Finca Santa Victoria	10	Octubre	2023-02-10T00:00:00	2024-11-08T06:00:00	8	Radiación solar	0
133933	7	Sololá	701	Sololá	4	Finca Santa Victoria	10	Octubre	2023-02-10T00:00:00	2024-11-08T07:00:00	2	Temperatura media	16.6
133934	7	Sololá	701	Sololá	4	Finca Santa Victoria	10	Octubre	2023-02-10T00:00:00	2024-11-08T07:00:00	4	Temperatura máxima	16.6
133935	7	Sololá	701	Sololá	4	Finca Santa Victoria	10	Octubre	2023-02-10T00:00:00	2024-11-08T07:00:00	3	Temperatura mínima	15.7
133936	7	Sololá	701	Sololá	4	Finca Santa Victoria	10	Octubre	2023-02-10T00:00:00	2024-11-08T07:00:00	5	Humedad	90
133937	7	Sololá	701	Sololá	4	Finca Santa Victoria	10	Octubre	2023-02-10T00:00:00	2024-11-08T07:00:00	6	Velocidad del viento	1.6
133938	7	Sololá	701	Sololá	4	Finca Santa Victoria	10	Octubre	2023-02-10T00:00:00	2024-11-08T07:00:00	7	Dirección del viento	0.8
133939	7	Sololá	701	Sololá	4	Finca Santa Victoria	10	Octubre	2023-02-10T00:00:00	2024-11-08T07:00:00	1	Precipitación	0
133940	7	Sololá	701	Sololá	4	Finca Santa Victoria	10	Octubre	2023-02-10T00:00:00	2024-11-08T07:00:00	8	Radiación solar	24
133941	7	Sololá	701	Sololá	4	Finca Santa Victoria	10	Octubre	2023-02-10T00:00:00	2024-11-08T08:00:00	2	Temperatura media	18.4
133942	7	Sololá	701	Sololá	4	Finca Santa Victoria	10	Octubre	2023-02-10T00:00:00	2024-11-08T08:00:00	4	Temperatura máxima	18.4
133943	7	Sololá	701	Sololá	4	Finca Santa Victoria	10	Octubre	2023-02-10T00:00:00	2024-11-08T08:00:00	3	Temperatura mínima	17.6
133944	7	Sololá	701	Sololá	4	Finca Santa Victoria	10	Octubre	2023-02-10T00:00:00	2024-11-08T08:00:00	5	Humedad	83
133945	7	Sololá	701	Sololá	4	Finca Santa Victoria	10	Octubre	2023-02-10T00:00:00	2024-11-08T08:00:00	6	Velocidad del viento	3.2
133946	7	Sololá	701	Sololá	4	Finca Santa Victoria	10	Octubre	2023-02-10T00:00:00	2024-11-08T08:00:00	7	Dirección del viento	1.61
133947	7	Sololá	701	Sololá	4	Finca Santa Victoria	10	Octubre	2023-02-10T00:00:00	2024-11-08T08:00:00	1	Precipitación	0
133948	7	Sololá	701	Sololá	4	Finca Santa Victoria	10	Octubre	2023-02-10T00:00:00	2024-11-08T08:00:00	8	Radiación solar	155
133949	7	Sololá	701	Sololá	4	Finca Santa Victoria	10	Octubre	2023-02-10T00:00:00	2024-11-08T09:00:00	2	Temperatura media	21
133950	7	Sololá	701	Sololá	4	Finca Santa Victoria	10	Octubre	2023-02-10T00:00:00	2024-11-08T09:00:00	4	Temperatura máxima	21
133951	7	Sololá	701	Sololá	4	Finca Santa Victoria	10	Octubre	2023-02-10T00:00:00	2024-11-08T09:00:00	3	Temperatura mínima	19.9
133952	7	Sololá	701	Sololá	4	Finca Santa Victoria	10	Octubre	2023-02-10T00:00:00	2024-11-08T09:00:00	5	Humedad	75
133953	7	Sololá	701	Sololá	4	Finca Santa Victoria	10	Octubre	2023-02-10T00:00:00	2024-11-08T09:00:00	6	Velocidad del viento	3.2
133954	7	Sololá	701	Sololá	4	Finca Santa Victoria	10	Octubre	2023-02-10T00:00:00	2024-11-08T09:00:00	7	Dirección del viento	1.61
133955	7	Sololá	701	Sololá	4	Finca Santa Victoria	10	Octubre	2023-02-10T00:00:00	2024-11-08T09:00:00	1	Precipitación	0
133956	7	Sololá	701	Sololá	4	Finca Santa Victoria	10	Octubre	2023-02-10T00:00:00	2024-11-08T09:00:00	8	Radiación solar	627
133957	7	Sololá	701	Sololá	4	Finca Santa Victoria	10	Octubre	2023-02-10T00:00:00	2024-11-08T10:00:00	2	Temperatura media	22.4
133958	7	Sololá	701	Sololá	4	Finca Santa Victoria	10	Octubre	2023-02-10T00:00:00	2024-11-08T10:00:00	4	Temperatura máxima	22.4
133959	7	Sololá	701	Sololá	4	Finca Santa Victoria	10	Octubre	2023-02-10T00:00:00	2024-11-08T10:00:00	3	Temperatura mínima	21.8
133960	7	Sololá	701	Sololá	4	Finca Santa Victoria	10	Octubre	2023-02-10T00:00:00	2024-11-08T10:00:00	5	Humedad	69
133961	7	Sololá	701	Sololá	4	Finca Santa Victoria	10	Octubre	2023-02-10T00:00:00	2024-11-08T10:00:00	6	Velocidad del viento	1.6
133962	7	Sololá	701	Sololá	4	Finca Santa Victoria	10	Octubre	2023-02-10T00:00:00	2024-11-08T10:00:00	7	Dirección del viento	0.8
133963	7	Sololá	701	Sololá	4	Finca Santa Victoria	10	Octubre	2023-02-10T00:00:00	2024-11-08T10:00:00	1	Precipitación	0
133964	7	Sololá	701	Sololá	4	Finca Santa Victoria	10	Octubre	2023-02-10T00:00:00	2024-11-08T10:00:00	8	Radiación solar	835
133965	7	Sololá	701	Sololá	4	Finca Santa Victoria	10	Octubre	2023-02-10T00:00:00	2024-11-08T11:00:00	2	Temperatura media	23.8
133966	7	Sololá	701	Sololá	4	Finca Santa Victoria	10	Octubre	2023-02-10T00:00:00	2024-11-08T11:00:00	4	Temperatura máxima	23.8
133967	7	Sololá	701	Sololá	4	Finca Santa Victoria	10	Octubre	2023-02-10T00:00:00	2024-11-08T11:00:00	3	Temperatura mínima	23.4
133968	7	Sololá	701	Sololá	4	Finca Santa Victoria	10	Octubre	2023-02-10T00:00:00	2024-11-08T11:00:00	5	Humedad	67
133969	7	Sololá	701	Sololá	4	Finca Santa Victoria	10	Octubre	2023-02-10T00:00:00	2024-11-08T11:00:00	6	Velocidad del viento	6.4
133970	7	Sololá	701	Sololá	4	Finca Santa Victoria	10	Octubre	2023-02-10T00:00:00	2024-11-08T11:00:00	7	Dirección del viento	3.22
133971	7	Sololá	701	Sololá	4	Finca Santa Victoria	10	Octubre	2023-02-10T00:00:00	2024-11-08T11:00:00	1	Precipitación	0
133972	7	Sololá	701	Sololá	4	Finca Santa Victoria	10	Octubre	2023-02-10T00:00:00	2024-11-08T11:00:00	8	Radiación solar	389
133973	7	Sololá	701	Sololá	4	Finca Santa Victoria	10	Octubre	2023-02-10T00:00:00	2024-11-08T12:00:00	2	Temperatura media	22.9
133974	7	Sololá	701	Sololá	4	Finca Santa Victoria	10	Octubre	2023-02-10T00:00:00	2024-11-08T12:00:00	4	Temperatura máxima	24.1
133975	7	Sololá	701	Sololá	4	Finca Santa Victoria	10	Octubre	2023-02-10T00:00:00	2024-11-08T12:00:00	3	Temperatura mínima	22.9
133976	7	Sololá	701	Sololá	4	Finca Santa Victoria	10	Octubre	2023-02-10T00:00:00	2024-11-08T12:00:00	5	Humedad	75
133977	7	Sololá	701	Sololá	4	Finca Santa Victoria	10	Octubre	2023-02-10T00:00:00	2024-11-08T12:00:00	6	Velocidad del viento	3.2
133978	7	Sololá	701	Sololá	4	Finca Santa Victoria	10	Octubre	2023-02-10T00:00:00	2024-11-08T12:00:00	7	Dirección del viento	1.61
133979	7	Sololá	701	Sololá	4	Finca Santa Victoria	10	Octubre	2023-02-10T00:00:00	2024-11-08T12:00:00	1	Precipitación	0
133980	7	Sololá	701	Sololá	4	Finca Santa Victoria	10	Octubre	2023-02-10T00:00:00	2024-11-08T12:00:00	8	Radiación solar	605
133981	7	Sololá	701	Sololá	4	Finca Santa Victoria	10	Octubre	2023-02-10T00:00:00	2024-11-08T13:00:00	2	Temperatura media	21.7
133982	7	Sololá	701	Sololá	4	Finca Santa Victoria	10	Octubre	2023-02-10T00:00:00	2024-11-08T13:00:00	4	Temperatura máxima	21.9
133983	7	Sololá	701	Sololá	4	Finca Santa Victoria	10	Octubre	2023-02-10T00:00:00	2024-11-08T13:00:00	3	Temperatura mínima	21.6
133984	7	Sololá	701	Sololá	4	Finca Santa Victoria	10	Octubre	2023-02-10T00:00:00	2024-11-08T13:00:00	5	Humedad	83
133985	7	Sololá	701	Sololá	4	Finca Santa Victoria	10	Octubre	2023-02-10T00:00:00	2024-11-08T13:00:00	6	Velocidad del viento	8
133986	7	Sololá	701	Sololá	4	Finca Santa Victoria	10	Octubre	2023-02-10T00:00:00	2024-11-08T13:00:00	7	Dirección del viento	4.02
133987	7	Sololá	701	Sololá	4	Finca Santa Victoria	10	Octubre	2023-02-10T00:00:00	2024-11-08T13:00:00	1	Precipitación	0
133988	7	Sololá	701	Sololá	4	Finca Santa Victoria	10	Octubre	2023-02-10T00:00:00	2024-11-08T13:00:00	8	Radiación solar	178
133989	7	Sololá	701	Sololá	4	Finca Santa Victoria	10	Octubre	2023-02-10T00:00:00	2024-11-08T14:00:00	2	Temperatura media	20.4
133990	7	Sololá	701	Sololá	4	Finca Santa Victoria	10	Octubre	2023-02-10T00:00:00	2024-11-08T14:00:00	4	Temperatura máxima	21.3
133991	7	Sololá	701	Sololá	4	Finca Santa Victoria	10	Octubre	2023-02-10T00:00:00	2024-11-08T14:00:00	3	Temperatura mínima	20.4
133992	7	Sololá	701	Sololá	4	Finca Santa Victoria	10	Octubre	2023-02-10T00:00:00	2024-11-08T14:00:00	5	Humedad	90
133993	7	Sololá	701	Sololá	4	Finca Santa Victoria	10	Octubre	2023-02-10T00:00:00	2024-11-08T14:00:00	6	Velocidad del viento	8
133994	7	Sololá	701	Sololá	4	Finca Santa Victoria	10	Octubre	2023-02-10T00:00:00	2024-11-08T14:00:00	7	Dirección del viento	4.02
133995	7	Sololá	701	Sololá	4	Finca Santa Victoria	10	Octubre	2023-02-10T00:00:00	2024-11-08T14:00:00	1	Precipitación	0
133996	7	Sololá	701	Sololá	4	Finca Santa Victoria	10	Octubre	2023-02-10T00:00:00	2024-11-08T14:00:00	8	Radiación solar	185
133997	7	Sololá	701	Sololá	4	Finca Santa Victoria	10	Octubre	2023-02-10T00:00:00	2024-11-08T15:00:00	2	Temperatura media	19.8
133998	7	Sololá	701	Sololá	4	Finca Santa Victoria	10	Octubre	2023-02-10T00:00:00	2024-11-08T15:00:00	4	Temperatura máxima	20.2
133999	7	Sololá	701	Sololá	4	Finca Santa Victoria	10	Octubre	2023-02-10T00:00:00	2024-11-08T15:00:00	3	Temperatura mínima	19.8
134000	7	Sololá	701	Sololá	4	Finca Santa Victoria	10	Octubre	2023-02-10T00:00:00	2024-11-08T15:00:00	5	Humedad	94
134001	7	Sololá	701	Sololá	4	Finca Santa Victoria	10	Octubre	2023-02-10T00:00:00	2024-11-08T15:00:00	6	Velocidad del viento	3.2
134002	7	Sololá	701	Sololá	4	Finca Santa Victoria	10	Octubre	2023-02-10T00:00:00	2024-11-08T15:00:00	7	Dirección del viento	1.61
134003	7	Sololá	701	Sololá	4	Finca Santa Victoria	10	Octubre	2023-02-10T00:00:00	2024-11-08T15:00:00	1	Precipitación	0
134004	7	Sololá	701	Sololá	4	Finca Santa Victoria	10	Octubre	2023-02-10T00:00:00	2024-11-08T15:00:00	8	Radiación solar	27
134005	7	Sololá	701	Sololá	4	Finca Santa Victoria	10	Octubre	2023-02-10T00:00:00	2024-11-08T16:00:00	2	Temperatura media	19.3
134006	7	Sololá	701	Sololá	4	Finca Santa Victoria	10	Octubre	2023-02-10T00:00:00	2024-11-08T16:00:00	4	Temperatura máxima	19.7
134007	7	Sololá	701	Sololá	4	Finca Santa Victoria	10	Octubre	2023-02-10T00:00:00	2024-11-08T16:00:00	3	Temperatura mínima	19.3
134008	7	Sololá	701	Sololá	4	Finca Santa Victoria	10	Octubre	2023-02-10T00:00:00	2024-11-08T16:00:00	5	Humedad	95
134009	7	Sololá	701	Sololá	4	Finca Santa Victoria	10	Octubre	2023-02-10T00:00:00	2024-11-08T16:00:00	6	Velocidad del viento	6.4
134010	7	Sololá	701	Sololá	4	Finca Santa Victoria	10	Octubre	2023-02-10T00:00:00	2024-11-08T16:00:00	7	Dirección del viento	3.22
134011	7	Sololá	701	Sololá	4	Finca Santa Victoria	10	Octubre	2023-02-10T00:00:00	2024-11-08T16:00:00	1	Precipitación	0
134012	7	Sololá	701	Sololá	4	Finca Santa Victoria	10	Octubre	2023-02-10T00:00:00	2024-11-08T16:00:00	8	Radiación solar	51
134013	7	Sololá	701	Sololá	4	Finca Santa Victoria	10	Octubre	2023-02-10T00:00:00	2024-11-08T17:00:00	2	Temperatura media	17.8
134014	7	Sololá	701	Sololá	4	Finca Santa Victoria	10	Octubre	2023-02-10T00:00:00	2024-11-08T17:00:00	4	Temperatura máxima	19.1
134015	7	Sololá	701	Sololá	4	Finca Santa Victoria	10	Octubre	2023-02-10T00:00:00	2024-11-08T17:00:00	3	Temperatura mínima	17.8
134016	7	Sololá	701	Sololá	4	Finca Santa Victoria	10	Octubre	2023-02-10T00:00:00	2024-11-08T17:00:00	5	Humedad	97
134017	7	Sololá	701	Sololá	4	Finca Santa Victoria	10	Octubre	2023-02-10T00:00:00	2024-11-08T17:00:00	6	Velocidad del viento	8
134018	7	Sololá	701	Sololá	4	Finca Santa Victoria	10	Octubre	2023-02-10T00:00:00	2024-11-08T17:00:00	7	Dirección del viento	4.02
134019	7	Sololá	701	Sololá	4	Finca Santa Victoria	10	Octubre	2023-02-10T00:00:00	2024-11-08T17:00:00	1	Precipitación	0
134020	7	Sololá	701	Sololá	4	Finca Santa Victoria	10	Octubre	2023-02-10T00:00:00	2024-11-08T17:00:00	8	Radiación solar	23
134021	7	Sololá	701	Sololá	4	Finca Santa Victoria	10	Octubre	2023-02-10T00:00:00	2024-11-08T18:00:00	2	Temperatura media	16.9
134022	7	Sololá	701	Sololá	4	Finca Santa Victoria	10	Octubre	2023-02-10T00:00:00	2024-11-08T18:00:00	4	Temperatura máxima	17.7
134023	7	Sololá	701	Sololá	4	Finca Santa Victoria	10	Octubre	2023-02-10T00:00:00	2024-11-08T18:00:00	3	Temperatura mínima	16.8
134024	7	Sololá	701	Sololá	4	Finca Santa Victoria	10	Octubre	2023-02-10T00:00:00	2024-11-08T18:00:00	5	Humedad	98
134025	7	Sololá	701	Sololá	4	Finca Santa Victoria	10	Octubre	2023-02-10T00:00:00	2024-11-08T18:00:00	6	Velocidad del viento	8
134026	7	Sololá	701	Sololá	4	Finca Santa Victoria	10	Octubre	2023-02-10T00:00:00	2024-11-08T18:00:00	7	Dirección del viento	4.02
134027	7	Sololá	701	Sololá	4	Finca Santa Victoria	10	Octubre	2023-02-10T00:00:00	2024-11-08T18:00:00	1	Precipitación	0
134028	7	Sololá	701	Sololá	4	Finca Santa Victoria	10	Octubre	2023-02-10T00:00:00	2024-11-08T18:00:00	8	Radiación solar	0
134029	7	Sololá	701	Sololá	4	Finca Santa Victoria	10	Octubre	2023-02-10T00:00:00	2024-11-08T19:00:00	2	Temperatura media	16.3
134030	7	Sololá	701	Sololá	4	Finca Santa Victoria	10	Octubre	2023-02-10T00:00:00	2024-11-08T19:00:00	4	Temperatura máxima	16.6
134031	7	Sololá	701	Sololá	4	Finca Santa Victoria	10	Octubre	2023-02-10T00:00:00	2024-11-08T19:00:00	3	Temperatura mínima	16.3
134032	7	Sololá	701	Sololá	4	Finca Santa Victoria	10	Octubre	2023-02-10T00:00:00	2024-11-08T19:00:00	5	Humedad	99
134033	7	Sololá	701	Sololá	4	Finca Santa Victoria	10	Octubre	2023-02-10T00:00:00	2024-11-08T19:00:00	6	Velocidad del viento	8
134034	7	Sololá	701	Sololá	4	Finca Santa Victoria	10	Octubre	2023-02-10T00:00:00	2024-11-08T19:00:00	7	Dirección del viento	4.02
134035	7	Sololá	701	Sololá	4	Finca Santa Victoria	10	Octubre	2023-02-10T00:00:00	2024-11-08T19:00:00	1	Precipitación	0
134036	7	Sololá	701	Sololá	4	Finca Santa Victoria	10	Octubre	2023-02-10T00:00:00	2024-11-08T19:00:00	8	Radiación solar	0
134037	7	Sololá	701	Sololá	4	Finca Santa Victoria	10	Octubre	2023-02-10T00:00:00	2024-11-08T20:00:00	2	Temperatura media	16.2
134038	7	Sololá	701	Sololá	4	Finca Santa Victoria	10	Octubre	2023-02-10T00:00:00	2024-11-08T20:00:00	4	Temperatura máxima	16.5
134039	7	Sololá	701	Sololá	4	Finca Santa Victoria	10	Octubre	2023-02-10T00:00:00	2024-11-08T20:00:00	3	Temperatura mínima	16.2
134040	7	Sololá	701	Sololá	4	Finca Santa Victoria	10	Octubre	2023-02-10T00:00:00	2024-11-08T20:00:00	5	Humedad	98
134041	7	Sololá	701	Sololá	4	Finca Santa Victoria	10	Octubre	2023-02-10T00:00:00	2024-11-08T20:00:00	6	Velocidad del viento	0
134042	7	Sololá	701	Sololá	4	Finca Santa Victoria	10	Octubre	2023-02-10T00:00:00	2024-11-08T20:00:00	7	Dirección del viento	0
134043	7	Sololá	701	Sololá	4	Finca Santa Victoria	10	Octubre	2023-02-10T00:00:00	2024-11-08T20:00:00	1	Precipitación	3.4
134044	7	Sololá	701	Sololá	4	Finca Santa Victoria	10	Octubre	2023-02-10T00:00:00	2024-11-08T20:00:00	8	Radiación solar	0
134045	7	Sololá	701	Sololá	4	Finca Santa Victoria	10	Octubre	2023-02-10T00:00:00	2024-11-08T21:00:00	2	Temperatura media	15.9
134046	7	Sololá	701	Sololá	4	Finca Santa Victoria	10	Octubre	2023-02-10T00:00:00	2024-11-08T21:00:00	4	Temperatura máxima	16.2
134047	7	Sololá	701	Sololá	4	Finca Santa Victoria	10	Octubre	2023-02-10T00:00:00	2024-11-08T21:00:00	3	Temperatura mínima	15.9
134048	7	Sololá	701	Sololá	4	Finca Santa Victoria	10	Octubre	2023-02-10T00:00:00	2024-11-08T21:00:00	5	Humedad	95
134049	7	Sololá	701	Sololá	4	Finca Santa Victoria	10	Octubre	2023-02-10T00:00:00	2024-11-08T21:00:00	6	Velocidad del viento	3.2
134050	7	Sololá	701	Sololá	4	Finca Santa Victoria	10	Octubre	2023-02-10T00:00:00	2024-11-08T21:00:00	7	Dirección del viento	1.61
134051	7	Sololá	701	Sololá	4	Finca Santa Victoria	10	Octubre	2023-02-10T00:00:00	2024-11-08T21:00:00	1	Precipitación	1.6
134052	7	Sololá	701	Sololá	4	Finca Santa Victoria	10	Octubre	2023-02-10T00:00:00	2024-11-08T21:00:00	8	Radiación solar	0
134053	7	Sololá	701	Sololá	4	Finca Santa Victoria	10	Octubre	2023-02-10T00:00:00	2024-11-08T22:00:00	2	Temperatura media	15.7
134054	7	Sololá	701	Sololá	4	Finca Santa Victoria	10	Octubre	2023-02-10T00:00:00	2024-11-08T22:00:00	4	Temperatura máxima	15.7
134055	7	Sololá	701	Sololá	4	Finca Santa Victoria	10	Octubre	2023-02-10T00:00:00	2024-11-08T22:00:00	3	Temperatura mínima	15.6
134056	7	Sololá	701	Sololá	4	Finca Santa Victoria	10	Octubre	2023-02-10T00:00:00	2024-11-08T22:00:00	5	Humedad	96
134057	7	Sololá	701	Sololá	4	Finca Santa Victoria	10	Octubre	2023-02-10T00:00:00	2024-11-08T22:00:00	6	Velocidad del viento	0
134058	7	Sololá	701	Sololá	4	Finca Santa Victoria	10	Octubre	2023-02-10T00:00:00	2024-11-08T22:00:00	7	Dirección del viento	0
134059	7	Sololá	701	Sololá	4	Finca Santa Victoria	10	Octubre	2023-02-10T00:00:00	2024-11-08T22:00:00	1	Precipitación	0.2
134060	7	Sololá	701	Sololá	4	Finca Santa Victoria	10	Octubre	2023-02-10T00:00:00	2024-11-08T22:00:00	8	Radiación solar	0
134061	7	Sololá	701	Sololá	4	Finca Santa Victoria	10	Octubre	2023-02-10T00:00:00	2024-11-08T23:00:00	2	Temperatura media	16.1
134062	7	Sololá	701	Sololá	4	Finca Santa Victoria	10	Octubre	2023-02-10T00:00:00	2024-11-08T23:00:00	4	Temperatura máxima	16.1
134063	7	Sololá	701	Sololá	4	Finca Santa Victoria	10	Octubre	2023-02-10T00:00:00	2024-11-08T23:00:00	3	Temperatura mínima	15.8
134064	7	Sololá	701	Sololá	4	Finca Santa Victoria	10	Octubre	2023-02-10T00:00:00	2024-11-08T23:00:00	5	Humedad	96
134065	7	Sololá	701	Sololá	4	Finca Santa Victoria	10	Octubre	2023-02-10T00:00:00	2024-11-08T23:00:00	6	Velocidad del viento	0
134066	7	Sololá	701	Sololá	4	Finca Santa Victoria	10	Octubre	2023-02-10T00:00:00	2024-11-08T23:00:00	7	Dirección del viento	0
134067	7	Sololá	701	Sololá	4	Finca Santa Victoria	10	Octubre	2023-02-10T00:00:00	2024-11-08T23:00:00	1	Precipitación	0.2
134068	7	Sololá	701	Sololá	4	Finca Santa Victoria	10	Octubre	2023-02-10T00:00:00	2024-11-08T23:00:00	8	Radiación solar	0
134069	7	Sololá	701	Sololá	4	Finca Santa Victoria	10	Octubre	2023-03-10T00:00:00	2024-11-08T00:00:00	2	Temperatura media	16.3
134070	7	Sololá	701	Sololá	4	Finca Santa Victoria	10	Octubre	2023-03-10T00:00:00	2024-11-08T00:00:00	4	Temperatura máxima	16.3
134071	7	Sololá	701	Sololá	4	Finca Santa Victoria	10	Octubre	2023-03-10T00:00:00	2024-11-08T00:00:00	3	Temperatura mínima	16.2
134072	7	Sololá	701	Sololá	4	Finca Santa Victoria	10	Octubre	2023-03-10T00:00:00	2024-11-08T00:00:00	5	Humedad	92
134073	7	Sololá	701	Sololá	4	Finca Santa Victoria	10	Octubre	2023-03-10T00:00:00	2024-11-08T00:00:00	6	Velocidad del viento	1.6
134074	7	Sololá	701	Sololá	4	Finca Santa Victoria	10	Octubre	2023-03-10T00:00:00	2024-11-08T00:00:00	7	Dirección del viento	0.8
134075	7	Sololá	701	Sololá	4	Finca Santa Victoria	10	Octubre	2023-03-10T00:00:00	2024-11-08T00:00:00	1	Precipitación	0
134076	7	Sololá	701	Sololá	4	Finca Santa Victoria	10	Octubre	2023-03-10T00:00:00	2024-11-08T00:00:00	8	Radiación solar	0
134077	7	Sololá	701	Sololá	4	Finca Santa Victoria	10	Octubre	2023-03-10T00:00:00	2024-11-08T01:00:00	2	Temperatura media	15.8
134078	7	Sololá	701	Sololá	4	Finca Santa Victoria	10	Octubre	2023-03-10T00:00:00	2024-11-08T01:00:00	4	Temperatura máxima	16.3
134079	7	Sololá	701	Sololá	4	Finca Santa Victoria	10	Octubre	2023-03-10T00:00:00	2024-11-08T01:00:00	3	Temperatura mínima	15.8
134080	7	Sololá	701	Sololá	4	Finca Santa Victoria	10	Octubre	2023-03-10T00:00:00	2024-11-08T01:00:00	5	Humedad	93
134081	7	Sololá	701	Sololá	4	Finca Santa Victoria	10	Octubre	2023-03-10T00:00:00	2024-11-08T01:00:00	6	Velocidad del viento	3.2
134082	7	Sololá	701	Sololá	4	Finca Santa Victoria	10	Octubre	2023-03-10T00:00:00	2024-11-08T01:00:00	7	Dirección del viento	1.61
134083	7	Sololá	701	Sololá	4	Finca Santa Victoria	10	Octubre	2023-03-10T00:00:00	2024-11-08T01:00:00	1	Precipitación	0
134084	7	Sololá	701	Sololá	4	Finca Santa Victoria	10	Octubre	2023-03-10T00:00:00	2024-11-08T01:00:00	8	Radiación solar	0
134085	7	Sololá	701	Sololá	4	Finca Santa Victoria	10	Octubre	2023-03-10T00:00:00	2024-11-08T02:00:00	2	Temperatura media	16.4
134086	7	Sololá	701	Sololá	4	Finca Santa Victoria	10	Octubre	2023-03-10T00:00:00	2024-11-08T02:00:00	4	Temperatura máxima	16.4
134087	7	Sololá	701	Sololá	4	Finca Santa Victoria	10	Octubre	2023-03-10T00:00:00	2024-11-08T02:00:00	3	Temperatura mínima	16
134088	7	Sololá	701	Sololá	4	Finca Santa Victoria	10	Octubre	2023-03-10T00:00:00	2024-11-08T02:00:00	5	Humedad	91
134089	7	Sololá	701	Sololá	4	Finca Santa Victoria	10	Octubre	2023-03-10T00:00:00	2024-11-08T02:00:00	6	Velocidad del viento	6.4
134090	7	Sololá	701	Sololá	4	Finca Santa Victoria	10	Octubre	2023-03-10T00:00:00	2024-11-08T02:00:00	7	Dirección del viento	3.22
134091	7	Sololá	701	Sololá	4	Finca Santa Victoria	10	Octubre	2023-03-10T00:00:00	2024-11-08T02:00:00	1	Precipitación	0
134092	7	Sololá	701	Sololá	4	Finca Santa Victoria	10	Octubre	2023-03-10T00:00:00	2024-11-08T02:00:00	8	Radiación solar	0
134093	7	Sololá	701	Sololá	4	Finca Santa Victoria	10	Octubre	2023-03-10T00:00:00	2024-11-08T03:00:00	2	Temperatura media	16.3
134094	7	Sololá	701	Sololá	4	Finca Santa Victoria	10	Octubre	2023-03-10T00:00:00	2024-11-08T03:00:00	4	Temperatura máxima	16.4
134095	7	Sololá	701	Sololá	4	Finca Santa Victoria	10	Octubre	2023-03-10T00:00:00	2024-11-08T03:00:00	3	Temperatura mínima	16.2
134096	7	Sololá	701	Sololá	4	Finca Santa Victoria	10	Octubre	2023-03-10T00:00:00	2024-11-08T03:00:00	5	Humedad	89
134097	7	Sololá	701	Sololá	4	Finca Santa Victoria	10	Octubre	2023-03-10T00:00:00	2024-11-08T03:00:00	6	Velocidad del viento	4.8
134098	7	Sololá	701	Sololá	4	Finca Santa Victoria	10	Octubre	2023-03-10T00:00:00	2024-11-08T03:00:00	7	Dirección del viento	2.41
134099	7	Sololá	701	Sololá	4	Finca Santa Victoria	10	Octubre	2023-03-10T00:00:00	2024-11-08T03:00:00	1	Precipitación	0
134100	7	Sololá	701	Sololá	4	Finca Santa Victoria	10	Octubre	2023-03-10T00:00:00	2024-11-08T03:00:00	8	Radiación solar	0
134101	7	Sololá	701	Sololá	4	Finca Santa Victoria	10	Octubre	2023-03-10T00:00:00	2024-11-08T04:00:00	2	Temperatura media	14.8
134102	7	Sololá	701	Sololá	4	Finca Santa Victoria	10	Octubre	2023-03-10T00:00:00	2024-11-08T04:00:00	4	Temperatura máxima	15.7
134103	7	Sololá	701	Sololá	4	Finca Santa Victoria	10	Octubre	2023-03-10T00:00:00	2024-11-08T04:00:00	3	Temperatura mínima	14.8
134104	7	Sololá	701	Sololá	4	Finca Santa Victoria	10	Octubre	2023-03-10T00:00:00	2024-11-08T04:00:00	5	Humedad	94
134105	7	Sololá	701	Sololá	4	Finca Santa Victoria	10	Octubre	2023-03-10T00:00:00	2024-11-08T04:00:00	6	Velocidad del viento	0
134106	7	Sololá	701	Sololá	4	Finca Santa Victoria	10	Octubre	2023-03-10T00:00:00	2024-11-08T04:00:00	7	Dirección del viento	0
134107	7	Sololá	701	Sololá	4	Finca Santa Victoria	10	Octubre	2023-03-10T00:00:00	2024-11-08T04:00:00	1	Precipitación	0
134108	7	Sololá	701	Sololá	4	Finca Santa Victoria	10	Octubre	2023-03-10T00:00:00	2024-11-08T04:00:00	8	Radiación solar	0
134109	7	Sololá	701	Sololá	4	Finca Santa Victoria	10	Octubre	2023-03-10T00:00:00	2024-11-08T05:00:00	2	Temperatura media	14.4
134110	7	Sololá	701	Sololá	4	Finca Santa Victoria	10	Octubre	2023-03-10T00:00:00	2024-11-08T05:00:00	4	Temperatura máxima	14.4
134111	7	Sololá	701	Sololá	4	Finca Santa Victoria	10	Octubre	2023-03-10T00:00:00	2024-11-08T05:00:00	3	Temperatura mínima	13.9
134112	7	Sololá	701	Sololá	4	Finca Santa Victoria	10	Octubre	2023-03-10T00:00:00	2024-11-08T05:00:00	5	Humedad	96
134113	7	Sololá	701	Sololá	4	Finca Santa Victoria	10	Octubre	2023-03-10T00:00:00	2024-11-08T05:00:00	6	Velocidad del viento	0
134114	7	Sololá	701	Sololá	4	Finca Santa Victoria	10	Octubre	2023-03-10T00:00:00	2024-11-08T05:00:00	7	Dirección del viento	0
134115	7	Sololá	701	Sololá	4	Finca Santa Victoria	10	Octubre	2023-03-10T00:00:00	2024-11-08T05:00:00	1	Precipitación	0
134116	7	Sololá	701	Sololá	4	Finca Santa Victoria	10	Octubre	2023-03-10T00:00:00	2024-11-08T05:00:00	8	Radiación solar	0
134117	7	Sololá	701	Sololá	4	Finca Santa Victoria	10	Octubre	2023-03-10T00:00:00	2024-11-08T06:00:00	2	Temperatura media	14.3
134118	7	Sololá	701	Sololá	4	Finca Santa Victoria	10	Octubre	2023-03-10T00:00:00	2024-11-08T06:00:00	4	Temperatura máxima	14.4
134119	7	Sololá	701	Sololá	4	Finca Santa Victoria	10	Octubre	2023-03-10T00:00:00	2024-11-08T06:00:00	3	Temperatura mínima	14.2
134120	7	Sololá	701	Sololá	4	Finca Santa Victoria	10	Octubre	2023-03-10T00:00:00	2024-11-08T06:00:00	5	Humedad	96
134121	7	Sololá	701	Sololá	4	Finca Santa Victoria	10	Octubre	2023-03-10T00:00:00	2024-11-08T06:00:00	6	Velocidad del viento	0
134122	7	Sololá	701	Sololá	4	Finca Santa Victoria	10	Octubre	2023-03-10T00:00:00	2024-11-08T06:00:00	7	Dirección del viento	0
134123	7	Sololá	701	Sololá	4	Finca Santa Victoria	10	Octubre	2023-03-10T00:00:00	2024-11-08T06:00:00	1	Precipitación	0
134124	7	Sololá	701	Sololá	4	Finca Santa Victoria	10	Octubre	2023-03-10T00:00:00	2024-11-08T06:00:00	8	Radiación solar	0
134125	7	Sololá	701	Sololá	4	Finca Santa Victoria	10	Octubre	2023-03-10T00:00:00	2024-11-08T07:00:00	2	Temperatura media	17.1
134126	7	Sololá	701	Sololá	4	Finca Santa Victoria	10	Octubre	2023-03-10T00:00:00	2024-11-08T07:00:00	4	Temperatura máxima	17.1
134127	7	Sololá	701	Sololá	4	Finca Santa Victoria	10	Octubre	2023-03-10T00:00:00	2024-11-08T07:00:00	3	Temperatura mínima	15.3
134128	7	Sololá	701	Sololá	4	Finca Santa Victoria	10	Octubre	2023-03-10T00:00:00	2024-11-08T07:00:00	5	Humedad	87
134129	7	Sololá	701	Sololá	4	Finca Santa Victoria	10	Octubre	2023-03-10T00:00:00	2024-11-08T07:00:00	6	Velocidad del viento	1.6
134130	7	Sololá	701	Sololá	4	Finca Santa Victoria	10	Octubre	2023-03-10T00:00:00	2024-11-08T07:00:00	7	Dirección del viento	0.8
134131	7	Sololá	701	Sololá	4	Finca Santa Victoria	10	Octubre	2023-03-10T00:00:00	2024-11-08T07:00:00	1	Precipitación	0
134132	7	Sololá	701	Sololá	4	Finca Santa Victoria	10	Octubre	2023-03-10T00:00:00	2024-11-08T07:00:00	8	Radiación solar	31
134133	7	Sololá	701	Sololá	4	Finca Santa Victoria	10	Octubre	2023-03-10T00:00:00	2024-11-08T08:00:00	2	Temperatura media	19.6
134134	7	Sololá	701	Sololá	4	Finca Santa Victoria	10	Octubre	2023-03-10T00:00:00	2024-11-08T08:00:00	4	Temperatura máxima	19.6
134135	7	Sololá	701	Sololá	4	Finca Santa Victoria	10	Octubre	2023-03-10T00:00:00	2024-11-08T08:00:00	3	Temperatura mínima	18.3
134136	7	Sololá	701	Sololá	4	Finca Santa Victoria	10	Octubre	2023-03-10T00:00:00	2024-11-08T08:00:00	5	Humedad	77
134137	7	Sololá	701	Sololá	4	Finca Santa Victoria	10	Octubre	2023-03-10T00:00:00	2024-11-08T08:00:00	6	Velocidad del viento	0
134138	7	Sololá	701	Sololá	4	Finca Santa Victoria	10	Octubre	2023-03-10T00:00:00	2024-11-08T08:00:00	7	Dirección del viento	0
134139	7	Sololá	701	Sololá	4	Finca Santa Victoria	10	Octubre	2023-03-10T00:00:00	2024-11-08T08:00:00	1	Precipitación	0
134140	7	Sololá	701	Sololá	4	Finca Santa Victoria	10	Octubre	2023-03-10T00:00:00	2024-11-08T08:00:00	8	Radiación solar	213
134141	7	Sololá	701	Sololá	4	Finca Santa Victoria	10	Octubre	2023-03-10T00:00:00	2024-11-08T09:00:00	2	Temperatura media	19.2
134142	7	Sololá	701	Sololá	4	Finca Santa Victoria	10	Octubre	2023-03-10T00:00:00	2024-11-08T09:00:00	4	Temperatura máxima	20.2
134143	7	Sololá	701	Sololá	4	Finca Santa Victoria	10	Octubre	2023-03-10T00:00:00	2024-11-08T09:00:00	3	Temperatura mínima	19.2
134144	7	Sololá	701	Sololá	4	Finca Santa Victoria	10	Octubre	2023-03-10T00:00:00	2024-11-08T09:00:00	5	Humedad	84
134145	7	Sololá	701	Sololá	4	Finca Santa Victoria	10	Octubre	2023-03-10T00:00:00	2024-11-08T09:00:00	6	Velocidad del viento	1.6
134146	7	Sololá	701	Sololá	4	Finca Santa Victoria	10	Octubre	2023-03-10T00:00:00	2024-11-08T09:00:00	7	Dirección del viento	0.8
134147	7	Sololá	701	Sololá	4	Finca Santa Victoria	10	Octubre	2023-03-10T00:00:00	2024-11-08T09:00:00	1	Precipitación	0
134148	7	Sololá	701	Sololá	4	Finca Santa Victoria	10	Octubre	2023-03-10T00:00:00	2024-11-08T09:00:00	8	Radiación solar	505
134149	7	Sololá	701	Sololá	4	Finca Santa Victoria	10	Octubre	2023-03-10T00:00:00	2024-11-08T10:00:00	2	Temperatura media	19.9
134150	7	Sololá	701	Sololá	4	Finca Santa Victoria	10	Octubre	2023-03-10T00:00:00	2024-11-08T10:00:00	4	Temperatura máxima	19.9
134151	7	Sololá	701	Sololá	4	Finca Santa Victoria	10	Octubre	2023-03-10T00:00:00	2024-11-08T10:00:00	3	Temperatura mínima	18.9
134152	7	Sololá	701	Sololá	4	Finca Santa Victoria	10	Octubre	2023-03-10T00:00:00	2024-11-08T10:00:00	5	Humedad	80
134153	7	Sololá	701	Sololá	4	Finca Santa Victoria	10	Octubre	2023-03-10T00:00:00	2024-11-08T10:00:00	6	Velocidad del viento	0
134154	7	Sololá	701	Sololá	4	Finca Santa Victoria	10	Octubre	2023-03-10T00:00:00	2024-11-08T10:00:00	7	Dirección del viento	0
134155	7	Sololá	701	Sololá	4	Finca Santa Victoria	10	Octubre	2023-03-10T00:00:00	2024-11-08T10:00:00	1	Precipitación	0
134156	7	Sololá	701	Sololá	4	Finca Santa Victoria	10	Octubre	2023-03-10T00:00:00	2024-11-08T10:00:00	8	Radiación solar	302
134157	7	Sololá	701	Sololá	4	Finca Santa Victoria	10	Octubre	2023-03-10T00:00:00	2024-11-08T11:00:00	2	Temperatura media	20.6
134158	7	Sololá	701	Sololá	4	Finca Santa Victoria	10	Octubre	2023-03-10T00:00:00	2024-11-08T11:00:00	4	Temperatura máxima	20.9
134159	7	Sololá	701	Sololá	4	Finca Santa Victoria	10	Octubre	2023-03-10T00:00:00	2024-11-08T11:00:00	3	Temperatura mínima	20.6
134160	7	Sololá	701	Sololá	4	Finca Santa Victoria	10	Octubre	2023-03-10T00:00:00	2024-11-08T11:00:00	5	Humedad	80
134161	7	Sololá	701	Sololá	4	Finca Santa Victoria	10	Octubre	2023-03-10T00:00:00	2024-11-08T11:00:00	6	Velocidad del viento	6.4
134162	7	Sololá	701	Sololá	4	Finca Santa Victoria	10	Octubre	2023-03-10T00:00:00	2024-11-08T11:00:00	7	Dirección del viento	3.22
134163	7	Sololá	701	Sololá	4	Finca Santa Victoria	10	Octubre	2023-03-10T00:00:00	2024-11-08T11:00:00	1	Precipitación	0
134164	7	Sololá	701	Sololá	4	Finca Santa Victoria	10	Octubre	2023-03-10T00:00:00	2024-11-08T11:00:00	8	Radiación solar	334
134165	7	Sololá	701	Sololá	4	Finca Santa Victoria	10	Octubre	2023-03-10T00:00:00	2024-11-08T12:00:00	2	Temperatura media	21.1
134166	7	Sololá	701	Sololá	4	Finca Santa Victoria	10	Octubre	2023-03-10T00:00:00	2024-11-08T12:00:00	4	Temperatura máxima	21.1
134167	7	Sololá	701	Sololá	4	Finca Santa Victoria	10	Octubre	2023-03-10T00:00:00	2024-11-08T12:00:00	3	Temperatura mínima	19.7
134168	7	Sololá	701	Sololá	4	Finca Santa Victoria	10	Octubre	2023-03-10T00:00:00	2024-11-08T12:00:00	5	Humedad	83
134169	7	Sololá	701	Sololá	4	Finca Santa Victoria	10	Octubre	2023-03-10T00:00:00	2024-11-08T12:00:00	6	Velocidad del viento	1.6
134170	7	Sololá	701	Sololá	4	Finca Santa Victoria	10	Octubre	2023-03-10T00:00:00	2024-11-08T12:00:00	7	Dirección del viento	0.8
134171	7	Sololá	701	Sololá	4	Finca Santa Victoria	10	Octubre	2023-03-10T00:00:00	2024-11-08T12:00:00	1	Precipitación	0
134172	7	Sololá	701	Sololá	4	Finca Santa Victoria	10	Octubre	2023-03-10T00:00:00	2024-11-08T12:00:00	8	Radiación solar	404
134173	7	Sololá	701	Sololá	4	Finca Santa Victoria	10	Octubre	2023-03-10T00:00:00	2024-11-08T13:00:00	2	Temperatura media	20.9
134174	7	Sololá	701	Sololá	4	Finca Santa Victoria	10	Octubre	2023-03-10T00:00:00	2024-11-08T13:00:00	4	Temperatura máxima	21
134175	7	Sololá	701	Sololá	4	Finca Santa Victoria	10	Octubre	2023-03-10T00:00:00	2024-11-08T13:00:00	3	Temperatura mínima	20.6
134176	7	Sololá	701	Sololá	4	Finca Santa Victoria	10	Octubre	2023-03-10T00:00:00	2024-11-08T13:00:00	5	Humedad	87
134177	7	Sololá	701	Sololá	4	Finca Santa Victoria	10	Octubre	2023-03-10T00:00:00	2024-11-08T13:00:00	6	Velocidad del viento	3.2
134178	7	Sololá	701	Sololá	4	Finca Santa Victoria	10	Octubre	2023-03-10T00:00:00	2024-11-08T13:00:00	7	Dirección del viento	1.61
134179	7	Sololá	701	Sololá	4	Finca Santa Victoria	10	Octubre	2023-03-10T00:00:00	2024-11-08T13:00:00	1	Precipitación	0
134180	7	Sololá	701	Sololá	4	Finca Santa Victoria	10	Octubre	2023-03-10T00:00:00	2024-11-08T13:00:00	8	Radiación solar	149
134181	7	Sololá	701	Sololá	4	Finca Santa Victoria	10	Octubre	2023-03-10T00:00:00	2024-11-08T14:00:00	2	Temperatura media	20.4
134182	7	Sololá	701	Sololá	4	Finca Santa Victoria	10	Octubre	2023-03-10T00:00:00	2024-11-08T14:00:00	4	Temperatura máxima	21.5
134183	7	Sololá	701	Sololá	4	Finca Santa Victoria	10	Octubre	2023-03-10T00:00:00	2024-11-08T14:00:00	3	Temperatura mínima	20.4
134184	7	Sololá	701	Sololá	4	Finca Santa Victoria	10	Octubre	2023-03-10T00:00:00	2024-11-08T14:00:00	5	Humedad	90
134185	7	Sololá	701	Sololá	4	Finca Santa Victoria	10	Octubre	2023-03-10T00:00:00	2024-11-08T14:00:00	6	Velocidad del viento	9.7
134186	7	Sololá	701	Sololá	4	Finca Santa Victoria	10	Octubre	2023-03-10T00:00:00	2024-11-08T14:00:00	7	Dirección del viento	4.83
134187	7	Sololá	701	Sololá	4	Finca Santa Victoria	10	Octubre	2023-03-10T00:00:00	2024-11-08T14:00:00	1	Precipitación	0
134188	7	Sololá	701	Sololá	4	Finca Santa Victoria	10	Octubre	2023-03-10T00:00:00	2024-11-08T14:00:00	8	Radiación solar	87
134189	7	Sololá	701	Sololá	4	Finca Santa Victoria	10	Octubre	2023-03-10T00:00:00	2024-11-08T15:00:00	2	Temperatura media	19
134190	7	Sololá	701	Sololá	4	Finca Santa Victoria	10	Octubre	2023-03-10T00:00:00	2024-11-08T15:00:00	4	Temperatura máxima	19.8
134191	7	Sololá	701	Sololá	4	Finca Santa Victoria	10	Octubre	2023-03-10T00:00:00	2024-11-08T15:00:00	3	Temperatura mínima	18.9
134192	7	Sololá	701	Sololá	4	Finca Santa Victoria	10	Octubre	2023-03-10T00:00:00	2024-11-08T15:00:00	5	Humedad	96
134193	7	Sololá	701	Sololá	4	Finca Santa Victoria	10	Octubre	2023-03-10T00:00:00	2024-11-08T15:00:00	6	Velocidad del viento	4.8
134194	7	Sololá	701	Sololá	4	Finca Santa Victoria	10	Octubre	2023-03-10T00:00:00	2024-11-08T15:00:00	7	Dirección del viento	2.41
134195	7	Sololá	701	Sololá	4	Finca Santa Victoria	10	Octubre	2023-03-10T00:00:00	2024-11-08T15:00:00	1	Precipitación	1
134196	7	Sololá	701	Sololá	4	Finca Santa Victoria	10	Octubre	2023-03-10T00:00:00	2024-11-08T15:00:00	8	Radiación solar	15
134197	7	Sololá	701	Sololá	4	Finca Santa Victoria	10	Octubre	2023-03-10T00:00:00	2024-11-08T16:00:00	2	Temperatura media	17.6
134198	7	Sololá	701	Sololá	4	Finca Santa Victoria	10	Octubre	2023-03-10T00:00:00	2024-11-08T16:00:00	4	Temperatura máxima	18.5
134199	7	Sololá	701	Sololá	4	Finca Santa Victoria	10	Octubre	2023-03-10T00:00:00	2024-11-08T16:00:00	3	Temperatura mínima	17.6
134200	7	Sololá	701	Sololá	4	Finca Santa Victoria	10	Octubre	2023-03-10T00:00:00	2024-11-08T16:00:00	5	Humedad	98
134201	7	Sololá	701	Sololá	4	Finca Santa Victoria	10	Octubre	2023-03-10T00:00:00	2024-11-08T16:00:00	6	Velocidad del viento	8
134202	7	Sololá	701	Sololá	4	Finca Santa Victoria	10	Octubre	2023-03-10T00:00:00	2024-11-08T16:00:00	7	Dirección del viento	4.02
134203	7	Sololá	701	Sololá	4	Finca Santa Victoria	10	Octubre	2023-03-10T00:00:00	2024-11-08T16:00:00	1	Precipitación	3
134204	7	Sololá	701	Sololá	4	Finca Santa Victoria	10	Octubre	2023-03-10T00:00:00	2024-11-08T16:00:00	8	Radiación solar	21
134205	7	Sololá	701	Sololá	4	Finca Santa Victoria	10	Octubre	2023-03-10T00:00:00	2024-11-08T17:00:00	2	Temperatura media	17.1
134206	7	Sololá	701	Sololá	4	Finca Santa Victoria	10	Octubre	2023-03-10T00:00:00	2024-11-08T17:00:00	4	Temperatura máxima	17.3
134207	7	Sololá	701	Sololá	4	Finca Santa Victoria	10	Octubre	2023-03-10T00:00:00	2024-11-08T17:00:00	3	Temperatura mínima	17.1
134208	7	Sololá	701	Sololá	4	Finca Santa Victoria	10	Octubre	2023-03-10T00:00:00	2024-11-08T17:00:00	5	Humedad	98
134209	7	Sololá	701	Sololá	4	Finca Santa Victoria	10	Octubre	2023-03-10T00:00:00	2024-11-08T17:00:00	6	Velocidad del viento	3.2
134210	7	Sololá	701	Sololá	4	Finca Santa Victoria	10	Octubre	2023-03-10T00:00:00	2024-11-08T17:00:00	7	Dirección del viento	1.61
134211	7	Sololá	701	Sololá	4	Finca Santa Victoria	10	Octubre	2023-03-10T00:00:00	2024-11-08T17:00:00	1	Precipitación	0
134212	7	Sololá	701	Sololá	4	Finca Santa Victoria	10	Octubre	2023-03-10T00:00:00	2024-11-08T17:00:00	8	Radiación solar	8
134213	7	Sololá	701	Sololá	4	Finca Santa Victoria	10	Octubre	2023-03-10T00:00:00	2024-11-08T18:00:00	2	Temperatura media	17.2
134214	7	Sololá	701	Sololá	4	Finca Santa Victoria	10	Octubre	2023-03-10T00:00:00	2024-11-08T18:00:00	4	Temperatura máxima	17.2
134215	7	Sololá	701	Sololá	4	Finca Santa Victoria	10	Octubre	2023-03-10T00:00:00	2024-11-08T18:00:00	3	Temperatura mínima	17
134216	7	Sololá	701	Sololá	4	Finca Santa Victoria	10	Octubre	2023-03-10T00:00:00	2024-11-08T18:00:00	5	Humedad	98
134217	7	Sololá	701	Sololá	4	Finca Santa Victoria	10	Octubre	2023-03-10T00:00:00	2024-11-08T18:00:00	6	Velocidad del viento	0
134218	7	Sololá	701	Sololá	4	Finca Santa Victoria	10	Octubre	2023-03-10T00:00:00	2024-11-08T18:00:00	7	Dirección del viento	0
134219	7	Sololá	701	Sololá	4	Finca Santa Victoria	10	Octubre	2023-03-10T00:00:00	2024-11-08T18:00:00	1	Precipitación	0
134220	7	Sololá	701	Sololá	4	Finca Santa Victoria	10	Octubre	2023-03-10T00:00:00	2024-11-08T18:00:00	8	Radiación solar	0
134221	7	Sololá	701	Sololá	4	Finca Santa Victoria	10	Octubre	2023-03-10T00:00:00	2024-11-08T19:00:00	2	Temperatura media	17.1
134222	7	Sololá	701	Sololá	4	Finca Santa Victoria	10	Octubre	2023-03-10T00:00:00	2024-11-08T19:00:00	4	Temperatura máxima	17.3
134223	7	Sololá	701	Sololá	4	Finca Santa Victoria	10	Octubre	2023-03-10T00:00:00	2024-11-08T19:00:00	3	Temperatura mínima	17.1
134224	7	Sololá	701	Sololá	4	Finca Santa Victoria	10	Octubre	2023-03-10T00:00:00	2024-11-08T19:00:00	5	Humedad	98
134225	7	Sololá	701	Sololá	4	Finca Santa Victoria	10	Octubre	2023-03-10T00:00:00	2024-11-08T19:00:00	6	Velocidad del viento	0
134226	7	Sololá	701	Sololá	4	Finca Santa Victoria	10	Octubre	2023-03-10T00:00:00	2024-11-08T19:00:00	7	Dirección del viento	0
134227	7	Sololá	701	Sololá	4	Finca Santa Victoria	10	Octubre	2023-03-10T00:00:00	2024-11-08T19:00:00	1	Precipitación	0
134228	7	Sololá	701	Sololá	4	Finca Santa Victoria	10	Octubre	2023-03-10T00:00:00	2024-11-08T19:00:00	8	Radiación solar	0
134229	7	Sololá	701	Sololá	4	Finca Santa Victoria	10	Octubre	2023-03-10T00:00:00	2024-11-08T20:00:00	2	Temperatura media	15
134230	7	Sololá	701	Sololá	4	Finca Santa Victoria	10	Octubre	2023-03-10T00:00:00	2024-11-08T20:00:00	4	Temperatura máxima	15
134231	7	Sololá	701	Sololá	4	Finca Santa Victoria	10	Octubre	2023-03-10T00:00:00	2024-11-08T20:00:00	3	Temperatura mínima	14.6
134232	7	Sololá	701	Sololá	4	Finca Santa Victoria	10	Octubre	2023-03-10T00:00:00	2024-11-08T20:00:00	5	Humedad	89
134233	7	Sololá	701	Sololá	4	Finca Santa Victoria	10	Octubre	2023-03-10T00:00:00	2024-11-08T20:00:00	6	Velocidad del viento	0
134234	7	Sololá	701	Sololá	4	Finca Santa Victoria	10	Octubre	2023-03-10T00:00:00	2024-11-08T20:00:00	7	Dirección del viento	0
134235	7	Sololá	701	Sololá	4	Finca Santa Victoria	10	Octubre	2023-03-10T00:00:00	2024-11-08T20:00:00	1	Precipitación	0
134236	7	Sololá	701	Sololá	4	Finca Santa Victoria	10	Octubre	2023-03-10T00:00:00	2024-11-08T20:00:00	8	Radiación solar	0
134237	7	Sololá	701	Sololá	4	Finca Santa Victoria	10	Octubre	2023-03-10T00:00:00	2024-11-08T21:00:00	2	Temperatura media	15
134238	7	Sololá	701	Sololá	4	Finca Santa Victoria	10	Octubre	2023-03-10T00:00:00	2024-11-08T21:00:00	4	Temperatura máxima	15.2
134239	7	Sololá	701	Sololá	4	Finca Santa Victoria	10	Octubre	2023-03-10T00:00:00	2024-11-08T21:00:00	3	Temperatura mínima	15
134240	7	Sololá	701	Sololá	4	Finca Santa Victoria	10	Octubre	2023-03-10T00:00:00	2024-11-08T21:00:00	5	Humedad	88
134241	7	Sololá	701	Sololá	4	Finca Santa Victoria	10	Octubre	2023-03-10T00:00:00	2024-11-08T21:00:00	6	Velocidad del viento	0
134242	7	Sololá	701	Sololá	4	Finca Santa Victoria	10	Octubre	2023-03-10T00:00:00	2024-11-08T21:00:00	7	Dirección del viento	0
134243	7	Sololá	701	Sololá	4	Finca Santa Victoria	10	Octubre	2023-03-10T00:00:00	2024-11-08T21:00:00	1	Precipitación	0
134244	7	Sololá	701	Sololá	4	Finca Santa Victoria	10	Octubre	2023-03-10T00:00:00	2024-11-08T21:00:00	8	Radiación solar	0
134245	7	Sololá	701	Sololá	4	Finca Santa Victoria	10	Octubre	2023-03-10T00:00:00	2024-11-08T22:00:00	2	Temperatura media	15.7
134246	7	Sololá	701	Sololá	4	Finca Santa Victoria	10	Octubre	2023-03-10T00:00:00	2024-11-08T22:00:00	4	Temperatura máxima	15.9
134247	7	Sololá	701	Sololá	4	Finca Santa Victoria	10	Octubre	2023-03-10T00:00:00	2024-11-08T22:00:00	3	Temperatura mínima	15.7
134248	7	Sololá	701	Sololá	4	Finca Santa Victoria	10	Octubre	2023-03-10T00:00:00	2024-11-08T22:00:00	5	Humedad	97
134249	7	Sololá	701	Sololá	4	Finca Santa Victoria	10	Octubre	2023-03-10T00:00:00	2024-11-08T22:00:00	6	Velocidad del viento	0
134250	7	Sololá	701	Sololá	4	Finca Santa Victoria	10	Octubre	2023-03-10T00:00:00	2024-11-08T22:00:00	7	Dirección del viento	0
134251	7	Sololá	701	Sololá	4	Finca Santa Victoria	10	Octubre	2023-03-10T00:00:00	2024-11-08T22:00:00	1	Precipitación	0.8
134252	7	Sololá	701	Sololá	4	Finca Santa Victoria	10	Octubre	2023-03-10T00:00:00	2024-11-08T22:00:00	8	Radiación solar	0
134253	7	Sololá	701	Sololá	4	Finca Santa Victoria	10	Octubre	2023-03-10T00:00:00	2024-11-08T23:00:00	2	Temperatura media	15.5
134254	7	Sololá	701	Sololá	4	Finca Santa Victoria	10	Octubre	2023-03-10T00:00:00	2024-11-08T23:00:00	4	Temperatura máxima	15.7
134255	7	Sololá	701	Sololá	4	Finca Santa Victoria	10	Octubre	2023-03-10T00:00:00	2024-11-08T23:00:00	3	Temperatura mínima	15.5
134256	7	Sololá	701	Sololá	4	Finca Santa Victoria	10	Octubre	2023-03-10T00:00:00	2024-11-08T23:00:00	5	Humedad	98
134257	7	Sololá	701	Sololá	4	Finca Santa Victoria	10	Octubre	2023-03-10T00:00:00	2024-11-08T23:00:00	6	Velocidad del viento	0
134258	7	Sololá	701	Sololá	4	Finca Santa Victoria	10	Octubre	2023-03-10T00:00:00	2024-11-08T23:00:00	7	Dirección del viento	0
134259	7	Sololá	701	Sololá	4	Finca Santa Victoria	10	Octubre	2023-03-10T00:00:00	2024-11-08T23:00:00	1	Precipitación	2
134260	7	Sololá	701	Sololá	4	Finca Santa Victoria	10	Octubre	2023-03-10T00:00:00	2024-11-08T23:00:00	8	Radiación solar	0
134261	7	Sololá	701	Sololá	4	Finca Santa Victoria	10	Octubre	2023-04-10T00:00:00	2024-11-08T00:00:00	2	Temperatura media	14.8
134262	7	Sololá	701	Sololá	4	Finca Santa Victoria	10	Octubre	2023-04-10T00:00:00	2024-11-08T00:00:00	4	Temperatura máxima	15.2
134263	7	Sololá	701	Sololá	4	Finca Santa Victoria	10	Octubre	2023-04-10T00:00:00	2024-11-08T00:00:00	3	Temperatura mínima	14.8
134264	7	Sololá	701	Sololá	4	Finca Santa Victoria	10	Octubre	2023-04-10T00:00:00	2024-11-08T00:00:00	5	Humedad	98
134265	7	Sololá	701	Sololá	4	Finca Santa Victoria	10	Octubre	2023-04-10T00:00:00	2024-11-08T00:00:00	6	Velocidad del viento	0
134266	7	Sololá	701	Sololá	4	Finca Santa Victoria	10	Octubre	2023-04-10T00:00:00	2024-11-08T00:00:00	7	Dirección del viento	0
134267	7	Sololá	701	Sololá	4	Finca Santa Victoria	10	Octubre	2023-04-10T00:00:00	2024-11-08T00:00:00	1	Precipitación	0
134268	7	Sololá	701	Sololá	4	Finca Santa Victoria	10	Octubre	2023-04-10T00:00:00	2024-11-08T00:00:00	8	Radiación solar	0
134269	7	Sololá	701	Sololá	4	Finca Santa Victoria	10	Octubre	2023-04-10T00:00:00	2024-11-08T01:00:00	2	Temperatura media	14.9
134270	7	Sololá	701	Sololá	4	Finca Santa Victoria	10	Octubre	2023-04-10T00:00:00	2024-11-08T01:00:00	4	Temperatura máxima	14.9
134271	7	Sololá	701	Sololá	4	Finca Santa Victoria	10	Octubre	2023-04-10T00:00:00	2024-11-08T01:00:00	3	Temperatura mínima	14.5
134272	7	Sololá	701	Sololá	4	Finca Santa Victoria	10	Octubre	2023-04-10T00:00:00	2024-11-08T01:00:00	5	Humedad	97
134273	7	Sololá	701	Sololá	4	Finca Santa Victoria	10	Octubre	2023-04-10T00:00:00	2024-11-08T01:00:00	6	Velocidad del viento	1.6
134274	7	Sololá	701	Sololá	4	Finca Santa Victoria	10	Octubre	2023-04-10T00:00:00	2024-11-08T01:00:00	7	Dirección del viento	0.8
134275	7	Sololá	701	Sololá	4	Finca Santa Victoria	10	Octubre	2023-04-10T00:00:00	2024-11-08T01:00:00	1	Precipitación	0
134276	7	Sololá	701	Sololá	4	Finca Santa Victoria	10	Octubre	2023-04-10T00:00:00	2024-11-08T01:00:00	8	Radiación solar	0
134277	7	Sololá	701	Sololá	4	Finca Santa Victoria	10	Octubre	2023-04-10T00:00:00	2024-11-08T02:00:00	2	Temperatura media	15.2
134278	7	Sololá	701	Sololá	4	Finca Santa Victoria	10	Octubre	2023-04-10T00:00:00	2024-11-08T02:00:00	4	Temperatura máxima	15.2
134279	7	Sololá	701	Sololá	4	Finca Santa Victoria	10	Octubre	2023-04-10T00:00:00	2024-11-08T02:00:00	3	Temperatura mínima	15
134280	7	Sololá	701	Sololá	4	Finca Santa Victoria	10	Octubre	2023-04-10T00:00:00	2024-11-08T02:00:00	5	Humedad	98
134281	7	Sololá	701	Sololá	4	Finca Santa Victoria	10	Octubre	2023-04-10T00:00:00	2024-11-08T02:00:00	6	Velocidad del viento	0
134282	7	Sololá	701	Sololá	4	Finca Santa Victoria	10	Octubre	2023-04-10T00:00:00	2024-11-08T02:00:00	7	Dirección del viento	0
134283	7	Sololá	701	Sololá	4	Finca Santa Victoria	10	Octubre	2023-04-10T00:00:00	2024-11-08T02:00:00	1	Precipitación	0
134284	7	Sololá	701	Sololá	4	Finca Santa Victoria	10	Octubre	2023-04-10T00:00:00	2024-11-08T02:00:00	8	Radiación solar	0
134285	7	Sololá	701	Sololá	4	Finca Santa Victoria	10	Octubre	2023-04-10T00:00:00	2024-11-08T03:00:00	2	Temperatura media	14.5
134286	7	Sololá	701	Sololá	4	Finca Santa Victoria	10	Octubre	2023-04-10T00:00:00	2024-11-08T03:00:00	4	Temperatura máxima	14.9
134287	7	Sololá	701	Sololá	4	Finca Santa Victoria	10	Octubre	2023-04-10T00:00:00	2024-11-08T03:00:00	3	Temperatura mínima	14.5
134288	7	Sololá	701	Sololá	4	Finca Santa Victoria	10	Octubre	2023-04-10T00:00:00	2024-11-08T03:00:00	5	Humedad	98
134289	7	Sololá	701	Sololá	4	Finca Santa Victoria	10	Octubre	2023-04-10T00:00:00	2024-11-08T03:00:00	6	Velocidad del viento	0
134290	7	Sololá	701	Sololá	4	Finca Santa Victoria	10	Octubre	2023-04-10T00:00:00	2024-11-08T03:00:00	7	Dirección del viento	0
134291	7	Sololá	701	Sololá	4	Finca Santa Victoria	10	Octubre	2023-04-10T00:00:00	2024-11-08T03:00:00	1	Precipitación	0
134292	7	Sololá	701	Sololá	4	Finca Santa Victoria	10	Octubre	2023-04-10T00:00:00	2024-11-08T03:00:00	8	Radiación solar	0
134293	7	Sololá	701	Sololá	4	Finca Santa Victoria	10	Octubre	2023-04-10T00:00:00	2024-11-08T04:00:00	2	Temperatura media	13.9
134294	7	Sololá	701	Sololá	4	Finca Santa Victoria	10	Octubre	2023-04-10T00:00:00	2024-11-08T04:00:00	4	Temperatura máxima	14.2
134295	7	Sololá	701	Sololá	4	Finca Santa Victoria	10	Octubre	2023-04-10T00:00:00	2024-11-08T04:00:00	3	Temperatura mínima	13.9
134296	7	Sololá	701	Sololá	4	Finca Santa Victoria	10	Octubre	2023-04-10T00:00:00	2024-11-08T04:00:00	5	Humedad	98
134297	7	Sololá	701	Sololá	4	Finca Santa Victoria	10	Octubre	2023-04-10T00:00:00	2024-11-08T04:00:00	6	Velocidad del viento	0
134298	7	Sololá	701	Sololá	4	Finca Santa Victoria	10	Octubre	2023-04-10T00:00:00	2024-11-08T04:00:00	7	Dirección del viento	0
134299	7	Sololá	701	Sololá	4	Finca Santa Victoria	10	Octubre	2023-04-10T00:00:00	2024-11-08T04:00:00	1	Precipitación	0
134300	7	Sololá	701	Sololá	4	Finca Santa Victoria	10	Octubre	2023-04-10T00:00:00	2024-11-08T04:00:00	8	Radiación solar	0
134301	7	Sololá	701	Sololá	4	Finca Santa Victoria	10	Octubre	2023-04-10T00:00:00	2024-11-08T05:00:00	2	Temperatura media	14.4
134302	7	Sololá	701	Sololá	4	Finca Santa Victoria	10	Octubre	2023-04-10T00:00:00	2024-11-08T05:00:00	4	Temperatura máxima	14.4
134303	7	Sololá	701	Sololá	4	Finca Santa Victoria	10	Octubre	2023-04-10T00:00:00	2024-11-08T05:00:00	3	Temperatura mínima	14.2
134304	7	Sololá	701	Sololá	4	Finca Santa Victoria	10	Octubre	2023-04-10T00:00:00	2024-11-08T05:00:00	5	Humedad	99
134305	7	Sololá	701	Sololá	4	Finca Santa Victoria	10	Octubre	2023-04-10T00:00:00	2024-11-08T05:00:00	6	Velocidad del viento	0
134306	7	Sololá	701	Sololá	4	Finca Santa Victoria	10	Octubre	2023-04-10T00:00:00	2024-11-08T05:00:00	7	Dirección del viento	0
134307	7	Sololá	701	Sololá	4	Finca Santa Victoria	10	Octubre	2023-04-10T00:00:00	2024-11-08T05:00:00	1	Precipitación	0
134308	7	Sololá	701	Sololá	4	Finca Santa Victoria	10	Octubre	2023-04-10T00:00:00	2024-11-08T05:00:00	8	Radiación solar	0
134309	7	Sololá	701	Sololá	4	Finca Santa Victoria	10	Octubre	2023-04-10T00:00:00	2024-11-08T06:00:00	2	Temperatura media	13.9
134310	7	Sololá	701	Sololá	4	Finca Santa Victoria	10	Octubre	2023-04-10T00:00:00	2024-11-08T06:00:00	4	Temperatura máxima	14.2
134311	7	Sololá	701	Sololá	4	Finca Santa Victoria	10	Octubre	2023-04-10T00:00:00	2024-11-08T06:00:00	3	Temperatura mínima	13.8
134312	7	Sololá	701	Sololá	4	Finca Santa Victoria	10	Octubre	2023-04-10T00:00:00	2024-11-08T06:00:00	5	Humedad	98
134313	7	Sololá	701	Sololá	4	Finca Santa Victoria	10	Octubre	2023-04-10T00:00:00	2024-11-08T06:00:00	6	Velocidad del viento	0
134314	7	Sololá	701	Sololá	4	Finca Santa Victoria	10	Octubre	2023-04-10T00:00:00	2024-11-08T06:00:00	7	Dirección del viento	0
134315	7	Sololá	701	Sololá	4	Finca Santa Victoria	10	Octubre	2023-04-10T00:00:00	2024-11-08T06:00:00	1	Precipitación	0
134316	7	Sololá	701	Sololá	4	Finca Santa Victoria	10	Octubre	2023-04-10T00:00:00	2024-11-08T06:00:00	8	Radiación solar	0
134317	7	Sololá	701	Sololá	4	Finca Santa Victoria	10	Octubre	2023-04-10T00:00:00	2024-11-08T07:00:00	2	Temperatura media	15.3
134318	7	Sololá	701	Sololá	4	Finca Santa Victoria	10	Octubre	2023-04-10T00:00:00	2024-11-08T07:00:00	4	Temperatura máxima	15.3
134319	7	Sololá	701	Sololá	4	Finca Santa Victoria	10	Octubre	2023-04-10T00:00:00	2024-11-08T07:00:00	3	Temperatura mínima	14.3
134320	7	Sololá	701	Sololá	4	Finca Santa Victoria	10	Octubre	2023-04-10T00:00:00	2024-11-08T07:00:00	5	Humedad	99
134321	7	Sololá	701	Sololá	4	Finca Santa Victoria	10	Octubre	2023-04-10T00:00:00	2024-11-08T07:00:00	6	Velocidad del viento	0
134322	7	Sololá	701	Sololá	4	Finca Santa Victoria	10	Octubre	2023-04-10T00:00:00	2024-11-08T07:00:00	7	Dirección del viento	0
134323	7	Sololá	701	Sololá	4	Finca Santa Victoria	10	Octubre	2023-04-10T00:00:00	2024-11-08T07:00:00	1	Precipitación	0
134324	7	Sololá	701	Sololá	4	Finca Santa Victoria	10	Octubre	2023-04-10T00:00:00	2024-11-08T07:00:00	8	Radiación solar	27
134325	7	Sololá	701	Sololá	4	Finca Santa Victoria	10	Octubre	2023-04-10T00:00:00	2024-11-08T08:00:00	2	Temperatura media	19.3
134326	7	Sololá	701	Sololá	4	Finca Santa Victoria	10	Octubre	2023-04-10T00:00:00	2024-11-08T08:00:00	4	Temperatura máxima	19.3
134327	7	Sololá	701	Sololá	4	Finca Santa Victoria	10	Octubre	2023-04-10T00:00:00	2024-11-08T08:00:00	3	Temperatura mínima	17.2
134328	7	Sololá	701	Sololá	4	Finca Santa Victoria	10	Octubre	2023-04-10T00:00:00	2024-11-08T08:00:00	5	Humedad	85
134329	7	Sololá	701	Sololá	4	Finca Santa Victoria	10	Octubre	2023-04-10T00:00:00	2024-11-08T08:00:00	6	Velocidad del viento	1.6
134330	7	Sololá	701	Sololá	4	Finca Santa Victoria	10	Octubre	2023-04-10T00:00:00	2024-11-08T08:00:00	7	Dirección del viento	0.8
134331	7	Sololá	701	Sololá	4	Finca Santa Victoria	10	Octubre	2023-04-10T00:00:00	2024-11-08T08:00:00	1	Precipitación	0
134332	7	Sololá	701	Sololá	4	Finca Santa Victoria	10	Octubre	2023-04-10T00:00:00	2024-11-08T08:00:00	8	Radiación solar	115
134333	7	Sololá	701	Sololá	4	Finca Santa Victoria	10	Octubre	2023-04-10T00:00:00	2024-11-08T09:00:00	2	Temperatura media	21.2
134334	7	Sololá	701	Sololá	4	Finca Santa Victoria	10	Octubre	2023-04-10T00:00:00	2024-11-08T09:00:00	4	Temperatura máxima	21.3
134335	7	Sololá	701	Sololá	4	Finca Santa Victoria	10	Octubre	2023-04-10T00:00:00	2024-11-08T09:00:00	3	Temperatura mínima	20.8
134336	7	Sololá	701	Sololá	4	Finca Santa Victoria	10	Octubre	2023-04-10T00:00:00	2024-11-08T09:00:00	5	Humedad	79
134337	7	Sololá	701	Sololá	4	Finca Santa Victoria	10	Octubre	2023-04-10T00:00:00	2024-11-08T09:00:00	6	Velocidad del viento	4.8
134338	7	Sololá	701	Sololá	4	Finca Santa Victoria	10	Octubre	2023-04-10T00:00:00	2024-11-08T09:00:00	7	Dirección del viento	2.41
134339	7	Sololá	701	Sololá	4	Finca Santa Victoria	10	Octubre	2023-04-10T00:00:00	2024-11-08T09:00:00	1	Precipitación	0
134340	7	Sololá	701	Sololá	4	Finca Santa Victoria	10	Octubre	2023-04-10T00:00:00	2024-11-08T09:00:00	8	Radiación solar	218
134341	7	Sololá	701	Sololá	4	Finca Santa Victoria	10	Octubre	2023-04-10T00:00:00	2024-11-08T10:00:00	2	Temperatura media	22
134342	7	Sololá	701	Sololá	4	Finca Santa Victoria	10	Octubre	2023-04-10T00:00:00	2024-11-08T10:00:00	4	Temperatura máxima	22
134343	7	Sololá	701	Sololá	4	Finca Santa Victoria	10	Octubre	2023-04-10T00:00:00	2024-11-08T10:00:00	3	Temperatura mínima	21.4
134344	7	Sololá	701	Sololá	4	Finca Santa Victoria	10	Octubre	2023-04-10T00:00:00	2024-11-08T10:00:00	5	Humedad	75
134345	7	Sololá	701	Sololá	4	Finca Santa Victoria	10	Octubre	2023-04-10T00:00:00	2024-11-08T10:00:00	6	Velocidad del viento	4.8
134346	7	Sololá	701	Sololá	4	Finca Santa Victoria	10	Octubre	2023-04-10T00:00:00	2024-11-08T10:00:00	7	Dirección del viento	2.41
134347	7	Sololá	701	Sololá	4	Finca Santa Victoria	10	Octubre	2023-04-10T00:00:00	2024-11-08T10:00:00	1	Precipitación	0
134348	7	Sololá	701	Sololá	4	Finca Santa Victoria	10	Octubre	2023-04-10T00:00:00	2024-11-08T10:00:00	8	Radiación solar	236
134349	7	Sololá	701	Sololá	4	Finca Santa Victoria	10	Octubre	2023-04-10T00:00:00	2024-11-08T11:00:00	2	Temperatura media	22.7
134350	7	Sololá	701	Sololá	4	Finca Santa Victoria	10	Octubre	2023-04-10T00:00:00	2024-11-08T11:00:00	4	Temperatura máxima	23.4
134351	7	Sololá	701	Sololá	4	Finca Santa Victoria	10	Octubre	2023-04-10T00:00:00	2024-11-08T11:00:00	3	Temperatura mínima	22.7
134352	7	Sololá	701	Sololá	4	Finca Santa Victoria	10	Octubre	2023-04-10T00:00:00	2024-11-08T11:00:00	5	Humedad	72
134353	7	Sololá	701	Sololá	4	Finca Santa Victoria	10	Octubre	2023-04-10T00:00:00	2024-11-08T11:00:00	6	Velocidad del viento	4.8
134354	7	Sololá	701	Sololá	4	Finca Santa Victoria	10	Octubre	2023-04-10T00:00:00	2024-11-08T11:00:00	7	Dirección del viento	2.41
134355	7	Sololá	701	Sololá	4	Finca Santa Victoria	10	Octubre	2023-04-10T00:00:00	2024-11-08T11:00:00	1	Precipitación	0
134356	7	Sololá	701	Sololá	4	Finca Santa Victoria	10	Octubre	2023-04-10T00:00:00	2024-11-08T11:00:00	8	Radiación solar	280
134357	7	Sololá	701	Sololá	4	Finca Santa Victoria	10	Octubre	2023-04-10T00:00:00	2024-11-08T12:00:00	2	Temperatura media	21.2
134358	7	Sololá	701	Sololá	4	Finca Santa Victoria	10	Octubre	2023-04-10T00:00:00	2024-11-08T12:00:00	4	Temperatura máxima	22.3
134359	7	Sololá	701	Sololá	4	Finca Santa Victoria	10	Octubre	2023-04-10T00:00:00	2024-11-08T12:00:00	3	Temperatura mínima	21.2
134360	7	Sololá	701	Sololá	4	Finca Santa Victoria	10	Octubre	2023-04-10T00:00:00	2024-11-08T12:00:00	5	Humedad	87
134361	7	Sololá	701	Sololá	4	Finca Santa Victoria	10	Octubre	2023-04-10T00:00:00	2024-11-08T12:00:00	6	Velocidad del viento	12.9
134362	7	Sololá	701	Sololá	4	Finca Santa Victoria	10	Octubre	2023-04-10T00:00:00	2024-11-08T12:00:00	7	Dirección del viento	6.44
134363	7	Sololá	701	Sololá	4	Finca Santa Victoria	10	Octubre	2023-04-10T00:00:00	2024-11-08T12:00:00	1	Precipitación	0
134364	7	Sololá	701	Sololá	4	Finca Santa Victoria	10	Octubre	2023-04-10T00:00:00	2024-11-08T12:00:00	8	Radiación solar	358
134365	7	Sololá	701	Sololá	4	Finca Santa Victoria	10	Octubre	2023-04-10T00:00:00	2024-11-08T13:00:00	2	Temperatura media	20.7
134366	7	Sololá	701	Sololá	4	Finca Santa Victoria	10	Octubre	2023-04-10T00:00:00	2024-11-08T13:00:00	4	Temperatura máxima	21.4
134367	7	Sololá	701	Sololá	4	Finca Santa Victoria	10	Octubre	2023-04-10T00:00:00	2024-11-08T13:00:00	3	Temperatura mínima	20.7
134368	7	Sololá	701	Sololá	4	Finca Santa Victoria	10	Octubre	2023-04-10T00:00:00	2024-11-08T13:00:00	5	Humedad	87
134369	7	Sololá	701	Sololá	4	Finca Santa Victoria	10	Octubre	2023-04-10T00:00:00	2024-11-08T13:00:00	6	Velocidad del viento	6.4
134370	7	Sololá	701	Sololá	4	Finca Santa Victoria	10	Octubre	2023-04-10T00:00:00	2024-11-08T13:00:00	7	Dirección del viento	3.22
134371	7	Sololá	701	Sololá	4	Finca Santa Victoria	10	Octubre	2023-04-10T00:00:00	2024-11-08T13:00:00	1	Precipitación	0
134372	7	Sololá	701	Sololá	4	Finca Santa Victoria	10	Octubre	2023-04-10T00:00:00	2024-11-08T13:00:00	8	Radiación solar	237
134373	7	Sololá	701	Sololá	4	Finca Santa Victoria	10	Octubre	2023-04-10T00:00:00	2024-11-08T14:00:00	2	Temperatura media	18.8
134374	7	Sololá	701	Sololá	4	Finca Santa Victoria	10	Octubre	2023-04-10T00:00:00	2024-11-08T14:00:00	4	Temperatura máxima	19.6
134375	7	Sololá	701	Sololá	4	Finca Santa Victoria	10	Octubre	2023-04-10T00:00:00	2024-11-08T14:00:00	3	Temperatura mínima	18.7
134376	7	Sololá	701	Sololá	4	Finca Santa Victoria	10	Octubre	2023-04-10T00:00:00	2024-11-08T14:00:00	5	Humedad	97
134377	7	Sololá	701	Sololá	4	Finca Santa Victoria	10	Octubre	2023-04-10T00:00:00	2024-11-08T14:00:00	6	Velocidad del viento	6.4
134378	7	Sololá	701	Sololá	4	Finca Santa Victoria	10	Octubre	2023-04-10T00:00:00	2024-11-08T14:00:00	7	Dirección del viento	3.22
134379	7	Sololá	701	Sololá	4	Finca Santa Victoria	10	Octubre	2023-04-10T00:00:00	2024-11-08T14:00:00	1	Precipitación	3.4
134380	7	Sololá	701	Sololá	4	Finca Santa Victoria	10	Octubre	2023-04-10T00:00:00	2024-11-08T14:00:00	8	Radiación solar	212
134381	7	Sololá	701	Sololá	4	Finca Santa Victoria	10	Octubre	2023-04-10T00:00:00	2024-11-08T15:00:00	2	Temperatura media	18.6
134382	7	Sololá	701	Sololá	4	Finca Santa Victoria	10	Octubre	2023-04-10T00:00:00	2024-11-08T15:00:00	4	Temperatura máxima	19.6
134383	7	Sololá	701	Sololá	4	Finca Santa Victoria	10	Octubre	2023-04-10T00:00:00	2024-11-08T15:00:00	3	Temperatura mínima	18.6
134384	7	Sololá	701	Sololá	4	Finca Santa Victoria	10	Octubre	2023-04-10T00:00:00	2024-11-08T15:00:00	5	Humedad	96
134385	7	Sololá	701	Sololá	4	Finca Santa Victoria	10	Octubre	2023-04-10T00:00:00	2024-11-08T15:00:00	6	Velocidad del viento	8
134386	7	Sololá	701	Sololá	4	Finca Santa Victoria	10	Octubre	2023-04-10T00:00:00	2024-11-08T15:00:00	7	Dirección del viento	4.02
134387	7	Sololá	701	Sololá	4	Finca Santa Victoria	10	Octubre	2023-04-10T00:00:00	2024-11-08T15:00:00	1	Precipitación	0
134388	7	Sololá	701	Sololá	4	Finca Santa Victoria	10	Octubre	2023-04-10T00:00:00	2024-11-08T15:00:00	8	Radiación solar	180
134389	7	Sololá	701	Sololá	4	Finca Santa Victoria	10	Octubre	2023-04-10T00:00:00	2024-11-08T16:00:00	2	Temperatura media	17.3
134390	7	Sololá	701	Sololá	4	Finca Santa Victoria	10	Octubre	2023-04-10T00:00:00	2024-11-08T16:00:00	4	Temperatura máxima	17.7
134391	7	Sololá	701	Sololá	4	Finca Santa Victoria	10	Octubre	2023-04-10T00:00:00	2024-11-08T16:00:00	3	Temperatura mínima	17.3
134392	7	Sololá	701	Sololá	4	Finca Santa Victoria	10	Octubre	2023-04-10T00:00:00	2024-11-08T16:00:00	5	Humedad	98
134393	7	Sololá	701	Sololá	4	Finca Santa Victoria	10	Octubre	2023-04-10T00:00:00	2024-11-08T16:00:00	6	Velocidad del viento	6.4
134394	7	Sololá	701	Sololá	4	Finca Santa Victoria	10	Octubre	2023-04-10T00:00:00	2024-11-08T16:00:00	7	Dirección del viento	3.22
134395	7	Sololá	701	Sololá	4	Finca Santa Victoria	10	Octubre	2023-04-10T00:00:00	2024-11-08T16:00:00	1	Precipitación	12.4
134396	7	Sololá	701	Sololá	4	Finca Santa Victoria	10	Octubre	2023-04-10T00:00:00	2024-11-08T16:00:00	8	Radiación solar	93
134397	7	Sololá	701	Sololá	4	Finca Santa Victoria	10	Octubre	2023-04-10T00:00:00	2024-11-08T17:00:00	2	Temperatura media	16.9
134398	7	Sololá	701	Sololá	4	Finca Santa Victoria	10	Octubre	2023-04-10T00:00:00	2024-11-08T17:00:00	4	Temperatura máxima	17.1
134399	7	Sololá	701	Sololá	4	Finca Santa Victoria	10	Octubre	2023-04-10T00:00:00	2024-11-08T17:00:00	3	Temperatura mínima	16.8
134400	7	Sololá	701	Sololá	4	Finca Santa Victoria	10	Octubre	2023-04-10T00:00:00	2024-11-08T17:00:00	5	Humedad	99
134401	7	Sololá	701	Sololá	4	Finca Santa Victoria	10	Octubre	2023-04-10T00:00:00	2024-11-08T17:00:00	6	Velocidad del viento	1.6
134402	7	Sololá	701	Sololá	4	Finca Santa Victoria	10	Octubre	2023-04-10T00:00:00	2024-11-08T17:00:00	7	Dirección del viento	0.8
134403	7	Sololá	701	Sololá	4	Finca Santa Victoria	10	Octubre	2023-04-10T00:00:00	2024-11-08T17:00:00	1	Precipitación	0
134404	7	Sololá	701	Sololá	4	Finca Santa Victoria	10	Octubre	2023-04-10T00:00:00	2024-11-08T17:00:00	8	Radiación solar	69
134405	7	Sololá	701	Sololá	4	Finca Santa Victoria	10	Octubre	2023-04-10T00:00:00	2024-11-08T18:00:00	2	Temperatura media	16.6
134406	7	Sololá	701	Sololá	4	Finca Santa Victoria	10	Octubre	2023-04-10T00:00:00	2024-11-08T18:00:00	4	Temperatura máxima	16.9
134407	7	Sololá	701	Sololá	4	Finca Santa Victoria	10	Octubre	2023-04-10T00:00:00	2024-11-08T18:00:00	3	Temperatura mínima	16.6
134408	7	Sololá	701	Sololá	4	Finca Santa Victoria	10	Octubre	2023-04-10T00:00:00	2024-11-08T18:00:00	5	Humedad	98
134409	7	Sololá	701	Sololá	4	Finca Santa Victoria	10	Octubre	2023-04-10T00:00:00	2024-11-08T18:00:00	6	Velocidad del viento	0
134410	7	Sololá	701	Sololá	4	Finca Santa Victoria	10	Octubre	2023-04-10T00:00:00	2024-11-08T18:00:00	7	Dirección del viento	0
134411	7	Sololá	701	Sololá	4	Finca Santa Victoria	10	Octubre	2023-04-10T00:00:00	2024-11-08T18:00:00	1	Precipitación	0
134412	7	Sololá	701	Sololá	4	Finca Santa Victoria	10	Octubre	2023-04-10T00:00:00	2024-11-08T18:00:00	8	Radiación solar	11
134413	7	Sololá	701	Sololá	4	Finca Santa Victoria	10	Octubre	2023-04-10T00:00:00	2024-11-08T19:00:00	2	Temperatura media	16.3
134414	7	Sololá	701	Sololá	4	Finca Santa Victoria	10	Octubre	2023-04-10T00:00:00	2024-11-08T19:00:00	4	Temperatura máxima	16.6
134415	7	Sololá	701	Sololá	4	Finca Santa Victoria	10	Octubre	2023-04-10T00:00:00	2024-11-08T19:00:00	3	Temperatura mínima	16.3
134416	7	Sololá	701	Sololá	4	Finca Santa Victoria	10	Octubre	2023-04-10T00:00:00	2024-11-08T19:00:00	5	Humedad	98
134417	7	Sololá	701	Sololá	4	Finca Santa Victoria	10	Octubre	2023-04-10T00:00:00	2024-11-08T19:00:00	6	Velocidad del viento	0
134418	7	Sololá	701	Sololá	4	Finca Santa Victoria	10	Octubre	2023-04-10T00:00:00	2024-11-08T19:00:00	7	Dirección del viento	0
134419	7	Sololá	701	Sololá	4	Finca Santa Victoria	10	Octubre	2023-04-10T00:00:00	2024-11-08T19:00:00	1	Precipitación	0
134420	7	Sololá	701	Sololá	4	Finca Santa Victoria	10	Octubre	2023-04-10T00:00:00	2024-11-08T19:00:00	8	Radiación solar	0
134421	7	Sololá	701	Sololá	4	Finca Santa Victoria	10	Octubre	2023-04-10T00:00:00	2024-11-08T20:00:00	2	Temperatura media	15.8
134422	7	Sololá	701	Sololá	4	Finca Santa Victoria	10	Octubre	2023-04-10T00:00:00	2024-11-08T20:00:00	4	Temperatura máxima	16.1
134423	7	Sololá	701	Sololá	4	Finca Santa Victoria	10	Octubre	2023-04-10T00:00:00	2024-11-08T20:00:00	3	Temperatura mínima	15.7
134424	7	Sololá	701	Sololá	4	Finca Santa Victoria	10	Octubre	2023-04-10T00:00:00	2024-11-08T20:00:00	5	Humedad	98
134425	7	Sololá	701	Sololá	4	Finca Santa Victoria	10	Octubre	2023-04-10T00:00:00	2024-11-08T20:00:00	6	Velocidad del viento	0
134426	7	Sololá	701	Sololá	4	Finca Santa Victoria	10	Octubre	2023-04-10T00:00:00	2024-11-08T20:00:00	7	Dirección del viento	0
134427	7	Sololá	701	Sololá	4	Finca Santa Victoria	10	Octubre	2023-04-10T00:00:00	2024-11-08T20:00:00	1	Precipitación	0
134428	7	Sololá	701	Sololá	4	Finca Santa Victoria	10	Octubre	2023-04-10T00:00:00	2024-11-08T20:00:00	8	Radiación solar	0
134429	7	Sololá	701	Sololá	4	Finca Santa Victoria	10	Octubre	2023-04-10T00:00:00	2024-11-08T21:00:00	2	Temperatura media	15.8
134430	7	Sololá	701	Sololá	4	Finca Santa Victoria	10	Octubre	2023-04-10T00:00:00	2024-11-08T21:00:00	4	Temperatura máxima	15.8
134431	7	Sololá	701	Sololá	4	Finca Santa Victoria	10	Octubre	2023-04-10T00:00:00	2024-11-08T21:00:00	3	Temperatura mínima	15.6
134432	7	Sololá	701	Sololá	4	Finca Santa Victoria	10	Octubre	2023-04-10T00:00:00	2024-11-08T21:00:00	5	Humedad	99
134433	7	Sololá	701	Sololá	4	Finca Santa Victoria	10	Octubre	2023-04-10T00:00:00	2024-11-08T21:00:00	6	Velocidad del viento	0
134434	7	Sololá	701	Sololá	4	Finca Santa Victoria	10	Octubre	2023-04-10T00:00:00	2024-11-08T21:00:00	7	Dirección del viento	0
134435	7	Sololá	701	Sololá	4	Finca Santa Victoria	10	Octubre	2023-04-10T00:00:00	2024-11-08T21:00:00	1	Precipitación	0
134436	7	Sololá	701	Sololá	4	Finca Santa Victoria	10	Octubre	2023-04-10T00:00:00	2024-11-08T21:00:00	8	Radiación solar	0
134437	7	Sololá	701	Sololá	4	Finca Santa Victoria	10	Octubre	2023-04-10T00:00:00	2024-11-08T22:00:00	2	Temperatura media	16.2
134438	7	Sololá	701	Sololá	4	Finca Santa Victoria	10	Octubre	2023-04-10T00:00:00	2024-11-08T22:00:00	4	Temperatura máxima	16.2
134439	7	Sololá	701	Sololá	4	Finca Santa Victoria	10	Octubre	2023-04-10T00:00:00	2024-11-08T22:00:00	3	Temperatura mínima	15.9
134440	7	Sololá	701	Sololá	4	Finca Santa Victoria	10	Octubre	2023-04-10T00:00:00	2024-11-08T22:00:00	5	Humedad	99
134441	7	Sololá	701	Sololá	4	Finca Santa Victoria	10	Octubre	2023-04-10T00:00:00	2024-11-08T22:00:00	6	Velocidad del viento	0
134442	7	Sololá	701	Sololá	4	Finca Santa Victoria	10	Octubre	2023-04-10T00:00:00	2024-11-08T22:00:00	7	Dirección del viento	0
134443	7	Sololá	701	Sololá	4	Finca Santa Victoria	10	Octubre	2023-04-10T00:00:00	2024-11-08T22:00:00	1	Precipitación	0
134444	7	Sololá	701	Sololá	4	Finca Santa Victoria	10	Octubre	2023-04-10T00:00:00	2024-11-08T22:00:00	8	Radiación solar	0
134445	7	Sololá	701	Sololá	4	Finca Santa Victoria	10	Octubre	2023-04-10T00:00:00	2024-11-08T23:00:00	2	Temperatura media	15.8
134446	7	Sololá	701	Sololá	4	Finca Santa Victoria	10	Octubre	2023-04-10T00:00:00	2024-11-08T23:00:00	4	Temperatura máxima	16.3
134447	7	Sololá	701	Sololá	4	Finca Santa Victoria	10	Octubre	2023-04-10T00:00:00	2024-11-08T23:00:00	3	Temperatura mínima	15.8
134448	7	Sololá	701	Sololá	4	Finca Santa Victoria	10	Octubre	2023-04-10T00:00:00	2024-11-08T23:00:00	5	Humedad	99
134449	7	Sololá	701	Sololá	4	Finca Santa Victoria	10	Octubre	2023-04-10T00:00:00	2024-11-08T23:00:00	6	Velocidad del viento	0
134450	7	Sololá	701	Sololá	4	Finca Santa Victoria	10	Octubre	2023-04-10T00:00:00	2024-11-08T23:00:00	7	Dirección del viento	0
134451	7	Sololá	701	Sololá	4	Finca Santa Victoria	10	Octubre	2023-04-10T00:00:00	2024-11-08T23:00:00	1	Precipitación	0
134452	7	Sololá	701	Sololá	4	Finca Santa Victoria	10	Octubre	2023-04-10T00:00:00	2024-11-08T23:00:00	8	Radiación solar	0
134453	7	Sololá	701	Sololá	4	Finca Santa Victoria	10	Octubre	2023-05-10T00:00:00	2024-11-08T00:00:00	2	Temperatura media	15.1
134454	7	Sololá	701	Sololá	4	Finca Santa Victoria	10	Octubre	2023-05-10T00:00:00	2024-11-08T00:00:00	4	Temperatura máxima	15.8
134455	7	Sololá	701	Sololá	4	Finca Santa Victoria	10	Octubre	2023-05-10T00:00:00	2024-11-08T00:00:00	3	Temperatura mínima	15.1
134456	7	Sololá	701	Sololá	4	Finca Santa Victoria	10	Octubre	2023-05-10T00:00:00	2024-11-08T00:00:00	5	Humedad	97
134457	7	Sololá	701	Sololá	4	Finca Santa Victoria	10	Octubre	2023-05-10T00:00:00	2024-11-08T00:00:00	6	Velocidad del viento	0
134458	7	Sololá	701	Sololá	4	Finca Santa Victoria	10	Octubre	2023-05-10T00:00:00	2024-11-08T00:00:00	7	Dirección del viento	0
134459	7	Sololá	701	Sololá	4	Finca Santa Victoria	10	Octubre	2023-05-10T00:00:00	2024-11-08T00:00:00	1	Precipitación	0
134460	7	Sololá	701	Sololá	4	Finca Santa Victoria	10	Octubre	2023-05-10T00:00:00	2024-11-08T00:00:00	8	Radiación solar	0
134461	7	Sololá	701	Sololá	4	Finca Santa Victoria	10	Octubre	2023-05-10T00:00:00	2024-11-08T01:00:00	2	Temperatura media	14.9
134462	7	Sololá	701	Sololá	4	Finca Santa Victoria	10	Octubre	2023-05-10T00:00:00	2024-11-08T01:00:00	4	Temperatura máxima	14.9
134463	7	Sololá	701	Sololá	4	Finca Santa Victoria	10	Octubre	2023-05-10T00:00:00	2024-11-08T01:00:00	3	Temperatura mínima	14.7
134464	7	Sololá	701	Sololá	4	Finca Santa Victoria	10	Octubre	2023-05-10T00:00:00	2024-11-08T01:00:00	5	Humedad	98
134465	7	Sololá	701	Sololá	4	Finca Santa Victoria	10	Octubre	2023-05-10T00:00:00	2024-11-08T01:00:00	6	Velocidad del viento	0
134466	7	Sololá	701	Sololá	4	Finca Santa Victoria	10	Octubre	2023-05-10T00:00:00	2024-11-08T01:00:00	7	Dirección del viento	0
134467	7	Sololá	701	Sololá	4	Finca Santa Victoria	10	Octubre	2023-05-10T00:00:00	2024-11-08T01:00:00	1	Precipitación	0
134468	7	Sololá	701	Sololá	4	Finca Santa Victoria	10	Octubre	2023-05-10T00:00:00	2024-11-08T01:00:00	8	Radiación solar	0
134469	7	Sololá	701	Sololá	4	Finca Santa Victoria	10	Octubre	2023-05-10T00:00:00	2024-11-08T02:00:00	2	Temperatura media	14.2
134470	7	Sololá	701	Sololá	4	Finca Santa Victoria	10	Octubre	2023-05-10T00:00:00	2024-11-08T02:00:00	4	Temperatura máxima	14.3
134471	7	Sololá	701	Sololá	4	Finca Santa Victoria	10	Octubre	2023-05-10T00:00:00	2024-11-08T02:00:00	3	Temperatura mínima	14.1
134472	7	Sololá	701	Sololá	4	Finca Santa Victoria	10	Octubre	2023-05-10T00:00:00	2024-11-08T02:00:00	5	Humedad	99
134473	7	Sololá	701	Sololá	4	Finca Santa Victoria	10	Octubre	2023-05-10T00:00:00	2024-11-08T02:00:00	6	Velocidad del viento	0
134474	7	Sololá	701	Sololá	4	Finca Santa Victoria	10	Octubre	2023-05-10T00:00:00	2024-11-08T02:00:00	7	Dirección del viento	0
134475	7	Sololá	701	Sololá	4	Finca Santa Victoria	10	Octubre	2023-05-10T00:00:00	2024-11-08T02:00:00	1	Precipitación	0
134476	7	Sololá	701	Sololá	4	Finca Santa Victoria	10	Octubre	2023-05-10T00:00:00	2024-11-08T02:00:00	8	Radiación solar	0
134477	7	Sololá	701	Sololá	4	Finca Santa Victoria	10	Octubre	2023-05-10T00:00:00	2024-11-08T03:00:00	2	Temperatura media	13.8
134478	7	Sololá	701	Sololá	4	Finca Santa Victoria	10	Octubre	2023-05-10T00:00:00	2024-11-08T03:00:00	4	Temperatura máxima	14.2
134479	7	Sololá	701	Sololá	4	Finca Santa Victoria	10	Octubre	2023-05-10T00:00:00	2024-11-08T03:00:00	3	Temperatura mínima	13.8
134480	7	Sololá	701	Sololá	4	Finca Santa Victoria	10	Octubre	2023-05-10T00:00:00	2024-11-08T03:00:00	5	Humedad	99
134481	7	Sololá	701	Sololá	4	Finca Santa Victoria	10	Octubre	2023-05-10T00:00:00	2024-11-08T03:00:00	6	Velocidad del viento	0
134482	7	Sololá	701	Sololá	4	Finca Santa Victoria	10	Octubre	2023-05-10T00:00:00	2024-11-08T03:00:00	7	Dirección del viento	0
134483	7	Sololá	701	Sololá	4	Finca Santa Victoria	10	Octubre	2023-05-10T00:00:00	2024-11-08T03:00:00	1	Precipitación	0
134484	7	Sololá	701	Sololá	4	Finca Santa Victoria	10	Octubre	2023-05-10T00:00:00	2024-11-08T03:00:00	8	Radiación solar	0
134485	7	Sololá	701	Sololá	4	Finca Santa Victoria	10	Octubre	2023-05-10T00:00:00	2024-11-08T04:00:00	2	Temperatura media	13.6
134486	7	Sololá	701	Sololá	4	Finca Santa Victoria	10	Octubre	2023-05-10T00:00:00	2024-11-08T04:00:00	4	Temperatura máxima	13.8
134487	7	Sololá	701	Sololá	4	Finca Santa Victoria	10	Octubre	2023-05-10T00:00:00	2024-11-08T04:00:00	3	Temperatura mínima	13.5
134488	7	Sololá	701	Sololá	4	Finca Santa Victoria	10	Octubre	2023-05-10T00:00:00	2024-11-08T04:00:00	5	Humedad	99
134489	7	Sololá	701	Sololá	4	Finca Santa Victoria	10	Octubre	2023-05-10T00:00:00	2024-11-08T04:00:00	6	Velocidad del viento	0
134490	7	Sololá	701	Sololá	4	Finca Santa Victoria	10	Octubre	2023-05-10T00:00:00	2024-11-08T04:00:00	7	Dirección del viento	0
134491	7	Sololá	701	Sololá	4	Finca Santa Victoria	10	Octubre	2023-05-10T00:00:00	2024-11-08T04:00:00	1	Precipitación	0
134492	7	Sololá	701	Sololá	4	Finca Santa Victoria	10	Octubre	2023-05-10T00:00:00	2024-11-08T04:00:00	8	Radiación solar	0
134493	7	Sololá	701	Sololá	4	Finca Santa Victoria	10	Octubre	2023-05-10T00:00:00	2024-11-08T05:00:00	2	Temperatura media	13.3
134494	7	Sololá	701	Sololá	4	Finca Santa Victoria	10	Octubre	2023-05-10T00:00:00	2024-11-08T05:00:00	4	Temperatura máxima	13.7
134495	7	Sololá	701	Sololá	4	Finca Santa Victoria	10	Octubre	2023-05-10T00:00:00	2024-11-08T05:00:00	3	Temperatura mínima	13.3
134496	7	Sololá	701	Sololá	4	Finca Santa Victoria	10	Octubre	2023-05-10T00:00:00	2024-11-08T05:00:00	5	Humedad	97
134497	7	Sololá	701	Sololá	4	Finca Santa Victoria	10	Octubre	2023-05-10T00:00:00	2024-11-08T05:00:00	6	Velocidad del viento	0
134498	7	Sololá	701	Sololá	4	Finca Santa Victoria	10	Octubre	2023-05-10T00:00:00	2024-11-08T05:00:00	7	Dirección del viento	0
134499	7	Sololá	701	Sololá	4	Finca Santa Victoria	10	Octubre	2023-05-10T00:00:00	2024-11-08T05:00:00	1	Precipitación	0
134500	7	Sololá	701	Sololá	4	Finca Santa Victoria	10	Octubre	2023-05-10T00:00:00	2024-11-08T05:00:00	8	Radiación solar	0
134501	7	Sololá	701	Sololá	4	Finca Santa Victoria	10	Octubre	2023-05-10T00:00:00	2024-11-08T06:00:00	2	Temperatura media	13.2
134502	7	Sololá	701	Sololá	4	Finca Santa Victoria	10	Octubre	2023-05-10T00:00:00	2024-11-08T06:00:00	4	Temperatura máxima	13.4
134503	7	Sololá	701	Sololá	4	Finca Santa Victoria	10	Octubre	2023-05-10T00:00:00	2024-11-08T06:00:00	3	Temperatura mínima	13.2
134504	7	Sololá	701	Sololá	4	Finca Santa Victoria	10	Octubre	2023-05-10T00:00:00	2024-11-08T06:00:00	5	Humedad	98
134505	7	Sololá	701	Sololá	4	Finca Santa Victoria	10	Octubre	2023-05-10T00:00:00	2024-11-08T06:00:00	6	Velocidad del viento	0
134506	7	Sololá	701	Sololá	4	Finca Santa Victoria	10	Octubre	2023-05-10T00:00:00	2024-11-08T06:00:00	7	Dirección del viento	0
134507	7	Sololá	701	Sololá	4	Finca Santa Victoria	10	Octubre	2023-05-10T00:00:00	2024-11-08T06:00:00	1	Precipitación	0
134508	7	Sololá	701	Sololá	4	Finca Santa Victoria	10	Octubre	2023-05-10T00:00:00	2024-11-08T06:00:00	8	Radiación solar	0
134509	7	Sololá	701	Sololá	4	Finca Santa Victoria	10	Octubre	2023-05-10T00:00:00	2024-11-08T07:00:00	2	Temperatura media	16.8
134510	7	Sololá	701	Sololá	4	Finca Santa Victoria	10	Octubre	2023-05-10T00:00:00	2024-11-08T07:00:00	4	Temperatura máxima	16.8
134511	7	Sololá	701	Sololá	4	Finca Santa Victoria	10	Octubre	2023-05-10T00:00:00	2024-11-08T07:00:00	3	Temperatura mínima	15.1
134512	7	Sololá	701	Sololá	4	Finca Santa Victoria	10	Octubre	2023-05-10T00:00:00	2024-11-08T07:00:00	5	Humedad	88
134513	7	Sololá	701	Sololá	4	Finca Santa Victoria	10	Octubre	2023-05-10T00:00:00	2024-11-08T07:00:00	6	Velocidad del viento	4.8
134514	7	Sololá	701	Sololá	4	Finca Santa Victoria	10	Octubre	2023-05-10T00:00:00	2024-11-08T07:00:00	7	Dirección del viento	2.41
134515	7	Sololá	701	Sololá	4	Finca Santa Victoria	10	Octubre	2023-05-10T00:00:00	2024-11-08T07:00:00	1	Precipitación	0
134516	7	Sololá	701	Sololá	4	Finca Santa Victoria	10	Octubre	2023-05-10T00:00:00	2024-11-08T07:00:00	8	Radiación solar	27
134517	7	Sololá	701	Sololá	4	Finca Santa Victoria	10	Octubre	2023-05-10T00:00:00	2024-11-08T08:00:00	2	Temperatura media	20.8
134518	7	Sololá	701	Sololá	4	Finca Santa Victoria	10	Octubre	2023-05-10T00:00:00	2024-11-08T08:00:00	4	Temperatura máxima	20.8
134519	7	Sololá	701	Sololá	4	Finca Santa Victoria	10	Octubre	2023-05-10T00:00:00	2024-11-08T08:00:00	3	Temperatura mínima	18.7
134520	7	Sololá	701	Sololá	4	Finca Santa Victoria	10	Octubre	2023-05-10T00:00:00	2024-11-08T08:00:00	5	Humedad	77
134521	7	Sololá	701	Sololá	4	Finca Santa Victoria	10	Octubre	2023-05-10T00:00:00	2024-11-08T08:00:00	6	Velocidad del viento	0
134522	7	Sololá	701	Sololá	4	Finca Santa Victoria	10	Octubre	2023-05-10T00:00:00	2024-11-08T08:00:00	7	Dirección del viento	0
134523	7	Sololá	701	Sololá	4	Finca Santa Victoria	10	Octubre	2023-05-10T00:00:00	2024-11-08T08:00:00	1	Precipitación	0
134524	7	Sololá	701	Sololá	4	Finca Santa Victoria	10	Octubre	2023-05-10T00:00:00	2024-11-08T08:00:00	8	Radiación solar	301
134525	7	Sololá	701	Sololá	4	Finca Santa Victoria	10	Octubre	2023-05-10T00:00:00	2024-11-08T09:00:00	2	Temperatura media	22.3
134526	7	Sololá	701	Sololá	4	Finca Santa Victoria	10	Octubre	2023-05-10T00:00:00	2024-11-08T09:00:00	4	Temperatura máxima	22.3
134527	7	Sololá	701	Sololá	4	Finca Santa Victoria	10	Octubre	2023-05-10T00:00:00	2024-11-08T09:00:00	3	Temperatura mínima	21.4
134528	7	Sololá	701	Sololá	4	Finca Santa Victoria	10	Octubre	2023-05-10T00:00:00	2024-11-08T09:00:00	5	Humedad	70
134529	7	Sololá	701	Sololá	4	Finca Santa Victoria	10	Octubre	2023-05-10T00:00:00	2024-11-08T09:00:00	6	Velocidad del viento	6.4
134530	7	Sololá	701	Sololá	4	Finca Santa Victoria	10	Octubre	2023-05-10T00:00:00	2024-11-08T09:00:00	7	Dirección del viento	3.22
134531	7	Sololá	701	Sololá	4	Finca Santa Victoria	10	Octubre	2023-05-10T00:00:00	2024-11-08T09:00:00	1	Precipitación	0
134532	7	Sololá	701	Sololá	4	Finca Santa Victoria	10	Octubre	2023-05-10T00:00:00	2024-11-08T09:00:00	8	Radiación solar	593
134533	7	Sololá	701	Sololá	4	Finca Santa Victoria	10	Octubre	2023-05-10T00:00:00	2024-11-08T10:00:00	2	Temperatura media	21.5
134534	7	Sololá	701	Sololá	4	Finca Santa Victoria	10	Octubre	2023-05-10T00:00:00	2024-11-08T10:00:00	4	Temperatura máxima	22.1
134535	7	Sololá	701	Sololá	4	Finca Santa Victoria	10	Octubre	2023-05-10T00:00:00	2024-11-08T10:00:00	3	Temperatura mínima	21.4
134536	7	Sololá	701	Sololá	4	Finca Santa Victoria	10	Octubre	2023-05-10T00:00:00	2024-11-08T10:00:00	5	Humedad	77
134537	7	Sololá	701	Sololá	4	Finca Santa Victoria	10	Octubre	2023-05-10T00:00:00	2024-11-08T10:00:00	6	Velocidad del viento	6.4
134538	7	Sololá	701	Sololá	4	Finca Santa Victoria	10	Octubre	2023-05-10T00:00:00	2024-11-08T10:00:00	7	Dirección del viento	3.22
134539	7	Sololá	701	Sololá	4	Finca Santa Victoria	10	Octubre	2023-05-10T00:00:00	2024-11-08T10:00:00	1	Precipitación	0
134540	7	Sololá	701	Sololá	4	Finca Santa Victoria	10	Octubre	2023-05-10T00:00:00	2024-11-08T10:00:00	8	Radiación solar	811
134541	7	Sololá	701	Sololá	4	Finca Santa Victoria	10	Octubre	2023-05-10T00:00:00	2024-11-08T11:00:00	2	Temperatura media	20.6
134542	7	Sololá	701	Sololá	4	Finca Santa Victoria	10	Octubre	2023-05-10T00:00:00	2024-11-08T11:00:00	4	Temperatura máxima	20.8
134543	7	Sololá	701	Sololá	4	Finca Santa Victoria	10	Octubre	2023-05-10T00:00:00	2024-11-08T11:00:00	3	Temperatura mínima	20.3
134544	7	Sololá	701	Sololá	4	Finca Santa Victoria	10	Octubre	2023-05-10T00:00:00	2024-11-08T11:00:00	5	Humedad	84
134545	7	Sololá	701	Sololá	4	Finca Santa Victoria	10	Octubre	2023-05-10T00:00:00	2024-11-08T11:00:00	6	Velocidad del viento	6.4
134546	7	Sololá	701	Sololá	4	Finca Santa Victoria	10	Octubre	2023-05-10T00:00:00	2024-11-08T11:00:00	7	Dirección del viento	3.22
134547	7	Sololá	701	Sololá	4	Finca Santa Victoria	10	Octubre	2023-05-10T00:00:00	2024-11-08T11:00:00	1	Precipitación	0
134548	7	Sololá	701	Sololá	4	Finca Santa Victoria	10	Octubre	2023-05-10T00:00:00	2024-11-08T11:00:00	8	Radiación solar	832
134549	7	Sololá	701	Sololá	4	Finca Santa Victoria	10	Octubre	2023-05-10T00:00:00	2024-11-08T12:00:00	2	Temperatura media	19.9
134550	7	Sololá	701	Sololá	4	Finca Santa Victoria	10	Octubre	2023-05-10T00:00:00	2024-11-08T12:00:00	4	Temperatura máxima	20.1
134551	7	Sololá	701	Sololá	4	Finca Santa Victoria	10	Octubre	2023-05-10T00:00:00	2024-11-08T12:00:00	3	Temperatura mínima	18.8
134552	7	Sololá	701	Sololá	4	Finca Santa Victoria	10	Octubre	2023-05-10T00:00:00	2024-11-08T12:00:00	5	Humedad	74
134553	7	Sololá	701	Sololá	4	Finca Santa Victoria	10	Octubre	2023-05-10T00:00:00	2024-11-08T12:00:00	6	Velocidad del viento	3.2
134554	7	Sololá	701	Sololá	4	Finca Santa Victoria	10	Octubre	2023-05-10T00:00:00	2024-11-08T12:00:00	7	Dirección del viento	3.22
134555	7	Sololá	701	Sololá	4	Finca Santa Victoria	10	Octubre	2023-05-10T00:00:00	2024-11-08T12:00:00	1	Precipitación	0
134556	7	Sololá	701	Sololá	4	Finca Santa Victoria	10	Octubre	2023-05-10T00:00:00	2024-11-08T12:00:00	8	Radiación solar	660
134557	7	Sololá	701	Sololá	4	Finca Santa Victoria	10	Octubre	2023-05-10T00:00:00	2024-11-08T13:00:00	2	Temperatura media	19.6
134558	7	Sololá	701	Sololá	4	Finca Santa Victoria	10	Octubre	2023-05-10T00:00:00	2024-11-08T13:00:00	4	Temperatura máxima	19.9
134559	7	Sololá	701	Sololá	4	Finca Santa Victoria	10	Octubre	2023-05-10T00:00:00	2024-11-08T13:00:00	3	Temperatura mínima	18.9
134560	7	Sololá	701	Sololá	4	Finca Santa Victoria	10	Octubre	2023-05-10T00:00:00	2024-11-08T13:00:00	5	Humedad	73
134561	7	Sololá	701	Sololá	4	Finca Santa Victoria	10	Octubre	2023-05-10T00:00:00	2024-11-08T13:00:00	6	Velocidad del viento	1.6
134562	7	Sololá	701	Sololá	4	Finca Santa Victoria	10	Octubre	2023-05-10T00:00:00	2024-11-08T13:00:00	7	Dirección del viento	1.61
134563	7	Sololá	701	Sololá	4	Finca Santa Victoria	10	Octubre	2023-05-10T00:00:00	2024-11-08T13:00:00	1	Precipitación	0
134564	7	Sololá	701	Sololá	4	Finca Santa Victoria	10	Octubre	2023-05-10T00:00:00	2024-11-08T13:00:00	8	Radiación solar	422
134565	7	Sololá	701	Sololá	4	Finca Santa Victoria	10	Octubre	2023-05-10T00:00:00	2024-11-08T14:00:00	2	Temperatura media	18.1
134566	7	Sololá	701	Sololá	4	Finca Santa Victoria	10	Octubre	2023-05-10T00:00:00	2024-11-08T14:00:00	4	Temperatura máxima	19.8
134567	7	Sololá	701	Sololá	4	Finca Santa Victoria	10	Octubre	2023-05-10T00:00:00	2024-11-08T14:00:00	3	Temperatura mínima	18.1
134568	7	Sololá	701	Sololá	4	Finca Santa Victoria	10	Octubre	2023-05-10T00:00:00	2024-11-08T14:00:00	5	Humedad	76
134569	7	Sololá	701	Sololá	4	Finca Santa Victoria	10	Octubre	2023-05-10T00:00:00	2024-11-08T14:00:00	6	Velocidad del viento	1.6
134570	7	Sololá	701	Sololá	4	Finca Santa Victoria	10	Octubre	2023-05-10T00:00:00	2024-11-08T14:00:00	7	Dirección del viento	1.61
134571	7	Sololá	701	Sololá	4	Finca Santa Victoria	10	Octubre	2023-05-10T00:00:00	2024-11-08T14:00:00	1	Precipitación	0
134572	7	Sololá	701	Sololá	4	Finca Santa Victoria	10	Octubre	2023-05-10T00:00:00	2024-11-08T14:00:00	8	Radiación solar	266
134573	7	Sololá	701	Sololá	4	Finca Santa Victoria	10	Octubre	2023-05-10T00:00:00	2024-11-08T15:00:00	2	Temperatura media	16.5
134574	7	Sololá	701	Sololá	4	Finca Santa Victoria	10	Octubre	2023-05-10T00:00:00	2024-11-08T15:00:00	4	Temperatura máxima	18.1
134575	7	Sololá	701	Sololá	4	Finca Santa Victoria	10	Octubre	2023-05-10T00:00:00	2024-11-08T15:00:00	3	Temperatura mínima	16.5
134576	7	Sololá	701	Sololá	4	Finca Santa Victoria	10	Octubre	2023-05-10T00:00:00	2024-11-08T15:00:00	5	Humedad	78
134577	7	Sololá	701	Sololá	4	Finca Santa Victoria	10	Octubre	2023-05-10T00:00:00	2024-11-08T15:00:00	6	Velocidad del viento	1.6
134578	7	Sololá	701	Sololá	4	Finca Santa Victoria	10	Octubre	2023-05-10T00:00:00	2024-11-08T15:00:00	7	Dirección del viento	1.61
134579	7	Sololá	701	Sololá	4	Finca Santa Victoria	10	Octubre	2023-05-10T00:00:00	2024-11-08T15:00:00	1	Precipitación	0
134580	7	Sololá	701	Sololá	4	Finca Santa Victoria	10	Octubre	2023-05-10T00:00:00	2024-11-08T15:00:00	8	Radiación solar	190
134581	7	Sololá	701	Sololá	4	Finca Santa Victoria	10	Octubre	2023-05-10T00:00:00	2024-11-08T16:00:00	2	Temperatura media	15.6
134582	7	Sololá	701	Sololá	4	Finca Santa Victoria	10	Octubre	2023-05-10T00:00:00	2024-11-08T16:00:00	4	Temperatura máxima	16.5
134583	7	Sololá	701	Sololá	4	Finca Santa Victoria	10	Octubre	2023-05-10T00:00:00	2024-11-08T16:00:00	3	Temperatura mínima	15.6
134584	7	Sololá	701	Sololá	4	Finca Santa Victoria	10	Octubre	2023-05-10T00:00:00	2024-11-08T16:00:00	5	Humedad	83
134585	7	Sololá	701	Sololá	4	Finca Santa Victoria	10	Octubre	2023-05-10T00:00:00	2024-11-08T16:00:00	6	Velocidad del viento	0
134586	7	Sololá	701	Sololá	4	Finca Santa Victoria	10	Octubre	2023-05-10T00:00:00	2024-11-08T16:00:00	7	Dirección del viento	0
134587	7	Sololá	701	Sololá	4	Finca Santa Victoria	10	Octubre	2023-05-10T00:00:00	2024-11-08T16:00:00	1	Precipitación	0
134588	7	Sololá	701	Sololá	4	Finca Santa Victoria	10	Octubre	2023-05-10T00:00:00	2024-11-08T16:00:00	8	Radiación solar	68
134589	7	Sololá	701	Sololá	4	Finca Santa Victoria	10	Octubre	2023-05-10T00:00:00	2024-11-08T17:00:00	2	Temperatura media	15.3
134590	7	Sololá	701	Sololá	4	Finca Santa Victoria	10	Octubre	2023-05-10T00:00:00	2024-11-08T17:00:00	4	Temperatura máxima	15.6
134591	7	Sololá	701	Sololá	4	Finca Santa Victoria	10	Octubre	2023-05-10T00:00:00	2024-11-08T17:00:00	3	Temperatura mínima	15.3
134592	7	Sololá	701	Sololá	4	Finca Santa Victoria	10	Octubre	2023-05-10T00:00:00	2024-11-08T17:00:00	5	Humedad	88
134593	7	Sololá	701	Sololá	4	Finca Santa Victoria	10	Octubre	2023-05-10T00:00:00	2024-11-08T17:00:00	6	Velocidad del viento	0
134594	7	Sololá	701	Sololá	4	Finca Santa Victoria	10	Octubre	2023-05-10T00:00:00	2024-11-08T17:00:00	7	Dirección del viento	0
134595	7	Sololá	701	Sololá	4	Finca Santa Victoria	10	Octubre	2023-05-10T00:00:00	2024-11-08T17:00:00	1	Precipitación	0
134596	7	Sololá	701	Sololá	4	Finca Santa Victoria	10	Octubre	2023-05-10T00:00:00	2024-11-08T17:00:00	8	Radiación solar	14
134597	7	Sololá	701	Sololá	4	Finca Santa Victoria	10	Octubre	2023-05-10T00:00:00	2024-11-08T18:00:00	2	Temperatura media	14.9
134598	7	Sololá	701	Sololá	4	Finca Santa Victoria	10	Octubre	2023-05-10T00:00:00	2024-11-08T18:00:00	4	Temperatura máxima	15.3
134599	7	Sololá	701	Sololá	4	Finca Santa Victoria	10	Octubre	2023-05-10T00:00:00	2024-11-08T18:00:00	3	Temperatura mínima	14.7
134600	7	Sololá	701	Sololá	4	Finca Santa Victoria	10	Octubre	2023-05-10T00:00:00	2024-11-08T18:00:00	5	Humedad	87
134601	7	Sololá	701	Sololá	4	Finca Santa Victoria	10	Octubre	2023-05-10T00:00:00	2024-11-08T18:00:00	6	Velocidad del viento	0
134602	7	Sololá	701	Sololá	4	Finca Santa Victoria	10	Octubre	2023-05-10T00:00:00	2024-11-08T18:00:00	7	Dirección del viento	0
134603	7	Sololá	701	Sololá	4	Finca Santa Victoria	10	Octubre	2023-05-10T00:00:00	2024-11-08T18:00:00	1	Precipitación	0
134604	7	Sololá	701	Sololá	4	Finca Santa Victoria	10	Octubre	2023-05-10T00:00:00	2024-11-08T18:00:00	8	Radiación solar	1
134605	7	Sololá	701	Sololá	4	Finca Santa Victoria	10	Octubre	2023-05-10T00:00:00	2024-11-08T19:00:00	2	Temperatura media	14.9
134606	7	Sololá	701	Sololá	4	Finca Santa Victoria	10	Octubre	2023-05-10T00:00:00	2024-11-08T19:00:00	4	Temperatura máxima	15.1
134607	7	Sololá	701	Sololá	4	Finca Santa Victoria	10	Octubre	2023-05-10T00:00:00	2024-11-08T19:00:00	3	Temperatura mínima	14.9
134608	7	Sololá	701	Sololá	4	Finca Santa Victoria	10	Octubre	2023-05-10T00:00:00	2024-11-08T19:00:00	5	Humedad	87
134609	7	Sololá	701	Sololá	4	Finca Santa Victoria	10	Octubre	2023-05-10T00:00:00	2024-11-08T19:00:00	6	Velocidad del viento	1.6
134610	7	Sololá	701	Sololá	4	Finca Santa Victoria	10	Octubre	2023-05-10T00:00:00	2024-11-08T19:00:00	7	Dirección del viento	1.61
134611	7	Sololá	701	Sololá	4	Finca Santa Victoria	10	Octubre	2023-05-10T00:00:00	2024-11-08T19:00:00	1	Precipitación	0
134612	7	Sololá	701	Sololá	4	Finca Santa Victoria	10	Octubre	2023-05-10T00:00:00	2024-11-08T19:00:00	8	Radiación solar	0
134613	7	Sololá	701	Sololá	4	Finca Santa Victoria	10	Octubre	2023-05-10T00:00:00	2024-11-08T20:00:00	2	Temperatura media	14.6
134614	7	Sololá	701	Sololá	4	Finca Santa Victoria	10	Octubre	2023-05-10T00:00:00	2024-11-08T20:00:00	4	Temperatura máxima	14.9
134615	7	Sololá	701	Sololá	4	Finca Santa Victoria	10	Octubre	2023-05-10T00:00:00	2024-11-08T20:00:00	3	Temperatura mínima	14.6
134616	7	Sololá	701	Sololá	4	Finca Santa Victoria	10	Octubre	2023-05-10T00:00:00	2024-11-08T20:00:00	5	Humedad	87
134617	7	Sololá	701	Sololá	4	Finca Santa Victoria	10	Octubre	2023-05-10T00:00:00	2024-11-08T20:00:00	6	Velocidad del viento	1.6
134618	7	Sololá	701	Sololá	4	Finca Santa Victoria	10	Octubre	2023-05-10T00:00:00	2024-11-08T20:00:00	7	Dirección del viento	1.61
134619	7	Sololá	701	Sololá	4	Finca Santa Victoria	10	Octubre	2023-05-10T00:00:00	2024-11-08T20:00:00	1	Precipitación	0
134620	7	Sololá	701	Sololá	4	Finca Santa Victoria	10	Octubre	2023-05-10T00:00:00	2024-11-08T20:00:00	8	Radiación solar	0
134621	7	Sololá	701	Sololá	4	Finca Santa Victoria	10	Octubre	2023-05-10T00:00:00	2024-11-08T21:00:00	2	Temperatura media	14.6
134622	7	Sololá	701	Sololá	4	Finca Santa Victoria	10	Octubre	2023-05-10T00:00:00	2024-11-08T21:00:00	4	Temperatura máxima	14.8
134623	7	Sololá	701	Sololá	4	Finca Santa Victoria	10	Octubre	2023-05-10T00:00:00	2024-11-08T21:00:00	3	Temperatura mínima	14.6
134624	7	Sololá	701	Sololá	4	Finca Santa Victoria	10	Octubre	2023-05-10T00:00:00	2024-11-08T21:00:00	5	Humedad	87
134625	7	Sololá	701	Sololá	4	Finca Santa Victoria	10	Octubre	2023-05-10T00:00:00	2024-11-08T21:00:00	6	Velocidad del viento	0
134626	7	Sololá	701	Sololá	4	Finca Santa Victoria	10	Octubre	2023-05-10T00:00:00	2024-11-08T21:00:00	7	Dirección del viento	0
134627	7	Sololá	701	Sololá	4	Finca Santa Victoria	10	Octubre	2023-05-10T00:00:00	2024-11-08T21:00:00	1	Precipitación	0
134628	7	Sololá	701	Sololá	4	Finca Santa Victoria	10	Octubre	2023-05-10T00:00:00	2024-11-08T21:00:00	8	Radiación solar	0
134629	7	Sololá	701	Sololá	4	Finca Santa Victoria	10	Octubre	2023-05-10T00:00:00	2024-11-08T22:00:00	2	Temperatura media	14.3
134630	7	Sololá	701	Sololá	4	Finca Santa Victoria	10	Octubre	2023-05-10T00:00:00	2024-11-08T22:00:00	4	Temperatura máxima	14.7
134631	7	Sololá	701	Sololá	4	Finca Santa Victoria	10	Octubre	2023-05-10T00:00:00	2024-11-08T22:00:00	3	Temperatura mínima	14.2
134632	7	Sololá	701	Sololá	4	Finca Santa Victoria	10	Octubre	2023-05-10T00:00:00	2024-11-08T22:00:00	5	Humedad	89
134633	7	Sololá	701	Sololá	4	Finca Santa Victoria	10	Octubre	2023-05-10T00:00:00	2024-11-08T22:00:00	6	Velocidad del viento	0
134634	7	Sololá	701	Sololá	4	Finca Santa Victoria	10	Octubre	2023-05-10T00:00:00	2024-11-08T22:00:00	7	Dirección del viento	0
134635	7	Sololá	701	Sololá	4	Finca Santa Victoria	10	Octubre	2023-05-10T00:00:00	2024-11-08T22:00:00	1	Precipitación	0
134636	7	Sololá	701	Sololá	4	Finca Santa Victoria	10	Octubre	2023-05-10T00:00:00	2024-11-08T22:00:00	8	Radiación solar	0
134637	7	Sololá	701	Sololá	4	Finca Santa Victoria	10	Octubre	2023-05-10T00:00:00	2024-11-08T23:00:00	2	Temperatura media	13.8
134638	7	Sololá	701	Sololá	4	Finca Santa Victoria	10	Octubre	2023-05-10T00:00:00	2024-11-08T23:00:00	4	Temperatura máxima	14.3
134639	7	Sololá	701	Sololá	4	Finca Santa Victoria	10	Octubre	2023-05-10T00:00:00	2024-11-08T23:00:00	3	Temperatura mínima	13.8
134640	7	Sololá	701	Sololá	4	Finca Santa Victoria	10	Octubre	2023-05-10T00:00:00	2024-11-08T23:00:00	5	Humedad	90
134641	7	Sololá	701	Sololá	4	Finca Santa Victoria	10	Octubre	2023-05-10T00:00:00	2024-11-08T23:00:00	6	Velocidad del viento	0
134642	7	Sololá	701	Sololá	4	Finca Santa Victoria	10	Octubre	2023-05-10T00:00:00	2024-11-08T23:00:00	7	Dirección del viento	0
134643	7	Sololá	701	Sololá	4	Finca Santa Victoria	10	Octubre	2023-05-10T00:00:00	2024-11-08T23:00:00	1	Precipitación	0
134644	7	Sololá	701	Sololá	4	Finca Santa Victoria	10	Octubre	2023-05-10T00:00:00	2024-11-08T23:00:00	8	Radiación solar	0
134645	7	Sololá	701	Sololá	4	Finca Santa Victoria	10	Octubre	2023-06-10T00:00:00	2024-11-08T00:00:00	2	Temperatura media	13.7
134646	7	Sololá	701	Sololá	4	Finca Santa Victoria	10	Octubre	2023-06-10T00:00:00	2024-11-08T00:00:00	4	Temperatura máxima	13.9
134647	7	Sololá	701	Sololá	4	Finca Santa Victoria	10	Octubre	2023-06-10T00:00:00	2024-11-08T00:00:00	3	Temperatura mínima	13.7
134648	7	Sololá	701	Sololá	4	Finca Santa Victoria	10	Octubre	2023-06-10T00:00:00	2024-11-08T00:00:00	5	Humedad	90
134649	7	Sololá	701	Sololá	4	Finca Santa Victoria	10	Octubre	2023-06-10T00:00:00	2024-11-08T00:00:00	6	Velocidad del viento	0
134650	7	Sololá	701	Sololá	4	Finca Santa Victoria	10	Octubre	2023-06-10T00:00:00	2024-11-08T00:00:00	7	Dirección del viento	0
134651	7	Sololá	701	Sololá	4	Finca Santa Victoria	10	Octubre	2023-06-10T00:00:00	2024-11-08T00:00:00	1	Precipitación	0
134652	7	Sololá	701	Sololá	4	Finca Santa Victoria	10	Octubre	2023-06-10T00:00:00	2024-11-08T00:00:00	8	Radiación solar	0
134653	7	Sololá	701	Sololá	4	Finca Santa Victoria	10	Octubre	2023-06-10T00:00:00	2024-11-08T01:00:00	2	Temperatura media	13.1
134654	7	Sololá	701	Sololá	4	Finca Santa Victoria	10	Octubre	2023-06-10T00:00:00	2024-11-08T01:00:00	4	Temperatura máxima	13.7
134655	7	Sololá	701	Sololá	4	Finca Santa Victoria	10	Octubre	2023-06-10T00:00:00	2024-11-08T01:00:00	3	Temperatura mínima	13.1
134656	7	Sololá	701	Sololá	4	Finca Santa Victoria	10	Octubre	2023-06-10T00:00:00	2024-11-08T01:00:00	5	Humedad	92
134657	7	Sololá	701	Sololá	4	Finca Santa Victoria	10	Octubre	2023-06-10T00:00:00	2024-11-08T01:00:00	6	Velocidad del viento	0
134658	7	Sololá	701	Sololá	4	Finca Santa Victoria	10	Octubre	2023-06-10T00:00:00	2024-11-08T01:00:00	7	Dirección del viento	0
134659	7	Sololá	701	Sololá	4	Finca Santa Victoria	10	Octubre	2023-06-10T00:00:00	2024-11-08T01:00:00	1	Precipitación	0
134660	7	Sololá	701	Sololá	4	Finca Santa Victoria	10	Octubre	2023-06-10T00:00:00	2024-11-08T01:00:00	8	Radiación solar	0
134661	7	Sololá	701	Sololá	4	Finca Santa Victoria	10	Octubre	2023-06-10T00:00:00	2024-11-08T02:00:00	2	Temperatura media	13.8
134662	7	Sololá	701	Sololá	4	Finca Santa Victoria	10	Octubre	2023-06-10T00:00:00	2024-11-08T02:00:00	4	Temperatura máxima	13.8
134663	7	Sololá	701	Sololá	4	Finca Santa Victoria	10	Octubre	2023-06-10T00:00:00	2024-11-08T02:00:00	3	Temperatura mínima	13.1
134664	7	Sololá	701	Sololá	4	Finca Santa Victoria	10	Octubre	2023-06-10T00:00:00	2024-11-08T02:00:00	5	Humedad	90
134665	7	Sololá	701	Sololá	4	Finca Santa Victoria	10	Octubre	2023-06-10T00:00:00	2024-11-08T02:00:00	6	Velocidad del viento	0
134666	7	Sololá	701	Sololá	4	Finca Santa Victoria	10	Octubre	2023-06-10T00:00:00	2024-11-08T02:00:00	7	Dirección del viento	0
134667	7	Sololá	701	Sololá	4	Finca Santa Victoria	10	Octubre	2023-06-10T00:00:00	2024-11-08T02:00:00	1	Precipitación	0
134668	7	Sololá	701	Sololá	4	Finca Santa Victoria	10	Octubre	2023-06-10T00:00:00	2024-11-08T02:00:00	8	Radiación solar	0
134669	7	Sololá	701	Sololá	4	Finca Santa Victoria	10	Octubre	2023-06-10T00:00:00	2024-11-08T03:00:00	2	Temperatura media	14
134670	7	Sololá	701	Sololá	4	Finca Santa Victoria	10	Octubre	2023-06-10T00:00:00	2024-11-08T03:00:00	4	Temperatura máxima	14.1
134671	7	Sololá	701	Sololá	4	Finca Santa Victoria	10	Octubre	2023-06-10T00:00:00	2024-11-08T03:00:00	3	Temperatura mínima	13.8
134672	7	Sololá	701	Sololá	4	Finca Santa Victoria	10	Octubre	2023-06-10T00:00:00	2024-11-08T03:00:00	5	Humedad	90
134673	7	Sololá	701	Sololá	4	Finca Santa Victoria	10	Octubre	2023-06-10T00:00:00	2024-11-08T03:00:00	6	Velocidad del viento	0
134674	7	Sololá	701	Sololá	4	Finca Santa Victoria	10	Octubre	2023-06-10T00:00:00	2024-11-08T03:00:00	7	Dirección del viento	0
134675	7	Sololá	701	Sololá	4	Finca Santa Victoria	10	Octubre	2023-06-10T00:00:00	2024-11-08T03:00:00	1	Precipitación	0
134676	7	Sololá	701	Sololá	4	Finca Santa Victoria	10	Octubre	2023-06-10T00:00:00	2024-11-08T03:00:00	8	Radiación solar	0
134677	7	Sololá	701	Sololá	4	Finca Santa Victoria	10	Octubre	2023-06-10T00:00:00	2024-11-08T04:00:00	2	Temperatura media	13.6
134678	7	Sololá	701	Sololá	4	Finca Santa Victoria	10	Octubre	2023-06-10T00:00:00	2024-11-08T04:00:00	4	Temperatura máxima	14
134679	7	Sololá	701	Sololá	4	Finca Santa Victoria	10	Octubre	2023-06-10T00:00:00	2024-11-08T04:00:00	3	Temperatura mínima	13.6
134680	7	Sololá	701	Sololá	4	Finca Santa Victoria	10	Octubre	2023-06-10T00:00:00	2024-11-08T04:00:00	5	Humedad	92
134681	7	Sololá	701	Sololá	4	Finca Santa Victoria	10	Octubre	2023-06-10T00:00:00	2024-11-08T04:00:00	6	Velocidad del viento	1.6
134682	7	Sololá	701	Sololá	4	Finca Santa Victoria	10	Octubre	2023-06-10T00:00:00	2024-11-08T04:00:00	7	Dirección del viento	1.61
134683	7	Sololá	701	Sololá	4	Finca Santa Victoria	10	Octubre	2023-06-10T00:00:00	2024-11-08T04:00:00	1	Precipitación	0
134684	7	Sololá	701	Sololá	4	Finca Santa Victoria	10	Octubre	2023-06-10T00:00:00	2024-11-08T04:00:00	8	Radiación solar	0
134685	7	Sololá	701	Sololá	4	Finca Santa Victoria	10	Octubre	2023-06-10T00:00:00	2024-11-08T05:00:00	2	Temperatura media	13.4
134686	7	Sololá	701	Sololá	4	Finca Santa Victoria	10	Octubre	2023-06-10T00:00:00	2024-11-08T05:00:00	4	Temperatura máxima	13.6
134687	7	Sololá	701	Sololá	4	Finca Santa Victoria	10	Octubre	2023-06-10T00:00:00	2024-11-08T05:00:00	3	Temperatura mínima	13.4
134688	7	Sololá	701	Sololá	4	Finca Santa Victoria	10	Octubre	2023-06-10T00:00:00	2024-11-08T05:00:00	5	Humedad	92
134689	7	Sololá	701	Sololá	4	Finca Santa Victoria	10	Octubre	2023-06-10T00:00:00	2024-11-08T05:00:00	6	Velocidad del viento	0
134690	7	Sololá	701	Sololá	4	Finca Santa Victoria	10	Octubre	2023-06-10T00:00:00	2024-11-08T05:00:00	7	Dirección del viento	0
134691	7	Sololá	701	Sololá	4	Finca Santa Victoria	10	Octubre	2023-06-10T00:00:00	2024-11-08T05:00:00	1	Precipitación	0
134692	7	Sololá	701	Sololá	4	Finca Santa Victoria	10	Octubre	2023-06-10T00:00:00	2024-11-08T05:00:00	8	Radiación solar	0
134693	7	Sololá	701	Sololá	4	Finca Santa Victoria	10	Octubre	2023-06-10T00:00:00	2024-11-08T06:00:00	2	Temperatura media	14.3
134694	7	Sololá	701	Sololá	4	Finca Santa Victoria	10	Octubre	2023-06-10T00:00:00	2024-11-08T06:00:00	4	Temperatura máxima	14.3
134695	7	Sololá	701	Sololá	4	Finca Santa Victoria	10	Octubre	2023-06-10T00:00:00	2024-11-08T06:00:00	3	Temperatura mínima	13.3
134696	7	Sololá	701	Sololá	4	Finca Santa Victoria	10	Octubre	2023-06-10T00:00:00	2024-11-08T06:00:00	5	Humedad	92
134697	7	Sololá	701	Sololá	4	Finca Santa Victoria	10	Octubre	2023-06-10T00:00:00	2024-11-08T06:00:00	6	Velocidad del viento	0
134698	7	Sololá	701	Sololá	4	Finca Santa Victoria	10	Octubre	2023-06-10T00:00:00	2024-11-08T06:00:00	7	Dirección del viento	0
134699	7	Sololá	701	Sololá	4	Finca Santa Victoria	10	Octubre	2023-06-10T00:00:00	2024-11-08T06:00:00	1	Precipitación	0
134700	7	Sololá	701	Sololá	4	Finca Santa Victoria	10	Octubre	2023-06-10T00:00:00	2024-11-08T06:00:00	8	Radiación solar	1
134701	7	Sololá	701	Sololá	4	Finca Santa Victoria	10	Octubre	2023-06-10T00:00:00	2024-11-08T07:00:00	2	Temperatura media	14.6
134702	7	Sololá	701	Sololá	4	Finca Santa Victoria	10	Octubre	2023-06-10T00:00:00	2024-11-08T07:00:00	4	Temperatura máxima	14.7
134703	7	Sololá	701	Sololá	4	Finca Santa Victoria	10	Octubre	2023-06-10T00:00:00	2024-11-08T07:00:00	3	Temperatura mínima	14.3
134704	7	Sololá	701	Sololá	4	Finca Santa Victoria	10	Octubre	2023-06-10T00:00:00	2024-11-08T07:00:00	5	Humedad	94
134705	7	Sololá	701	Sololá	4	Finca Santa Victoria	10	Octubre	2023-06-10T00:00:00	2024-11-08T07:00:00	6	Velocidad del viento	1.6
134706	7	Sololá	701	Sololá	4	Finca Santa Victoria	10	Octubre	2023-06-10T00:00:00	2024-11-08T07:00:00	7	Dirección del viento	1.61
134707	7	Sololá	701	Sololá	4	Finca Santa Victoria	10	Octubre	2023-06-10T00:00:00	2024-11-08T07:00:00	1	Precipitación	0
134708	7	Sololá	701	Sololá	4	Finca Santa Victoria	10	Octubre	2023-06-10T00:00:00	2024-11-08T07:00:00	8	Radiación solar	60
134709	7	Sololá	701	Sololá	4	Finca Santa Victoria	10	Octubre	2023-06-10T00:00:00	2024-11-08T08:00:00	2	Temperatura media	15.8
134710	7	Sololá	701	Sololá	4	Finca Santa Victoria	10	Octubre	2023-06-10T00:00:00	2024-11-08T08:00:00	4	Temperatura máxima	15.8
134711	7	Sololá	701	Sololá	4	Finca Santa Victoria	10	Octubre	2023-06-10T00:00:00	2024-11-08T08:00:00	3	Temperatura mínima	14.6
134712	7	Sololá	701	Sololá	4	Finca Santa Victoria	10	Octubre	2023-06-10T00:00:00	2024-11-08T08:00:00	5	Humedad	89
134713	7	Sololá	701	Sololá	4	Finca Santa Victoria	10	Octubre	2023-06-10T00:00:00	2024-11-08T08:00:00	6	Velocidad del viento	1.6
134714	7	Sololá	701	Sololá	4	Finca Santa Victoria	10	Octubre	2023-06-10T00:00:00	2024-11-08T08:00:00	7	Dirección del viento	1.61
134715	7	Sololá	701	Sololá	4	Finca Santa Victoria	10	Octubre	2023-06-10T00:00:00	2024-11-08T08:00:00	1	Precipitación	0
134716	7	Sololá	701	Sololá	4	Finca Santa Victoria	10	Octubre	2023-06-10T00:00:00	2024-11-08T08:00:00	8	Radiación solar	149
134717	7	Sololá	701	Sololá	4	Finca Santa Victoria	10	Octubre	2023-06-10T00:00:00	2024-11-08T09:00:00	2	Temperatura media	16.1
134718	7	Sololá	701	Sololá	4	Finca Santa Victoria	10	Octubre	2023-06-10T00:00:00	2024-11-08T09:00:00	4	Temperatura máxima	16.1
134719	7	Sololá	701	Sololá	4	Finca Santa Victoria	10	Octubre	2023-06-10T00:00:00	2024-11-08T09:00:00	3	Temperatura mínima	15.7
134720	7	Sololá	701	Sololá	4	Finca Santa Victoria	10	Octubre	2023-06-10T00:00:00	2024-11-08T09:00:00	5	Humedad	91
134721	7	Sololá	701	Sololá	4	Finca Santa Victoria	10	Octubre	2023-06-10T00:00:00	2024-11-08T09:00:00	6	Velocidad del viento	1.6
134722	7	Sololá	701	Sololá	4	Finca Santa Victoria	10	Octubre	2023-06-10T00:00:00	2024-11-08T09:00:00	7	Dirección del viento	1.61
134723	7	Sololá	701	Sololá	4	Finca Santa Victoria	10	Octubre	2023-06-10T00:00:00	2024-11-08T09:00:00	1	Precipitación	0
134724	7	Sololá	701	Sololá	4	Finca Santa Victoria	10	Octubre	2023-06-10T00:00:00	2024-11-08T09:00:00	8	Radiación solar	264
134725	7	Sololá	701	Sololá	4	Finca Santa Victoria	10	Octubre	2023-06-10T00:00:00	2024-11-08T10:00:00	2	Temperatura media	16
134726	7	Sololá	701	Sololá	4	Finca Santa Victoria	10	Octubre	2023-06-10T00:00:00	2024-11-08T10:00:00	4	Temperatura máxima	16.6
134727	7	Sololá	701	Sololá	4	Finca Santa Victoria	10	Octubre	2023-06-10T00:00:00	2024-11-08T10:00:00	3	Temperatura mínima	16
134728	7	Sololá	701	Sololá	4	Finca Santa Victoria	10	Octubre	2023-06-10T00:00:00	2024-11-08T10:00:00	5	Humedad	90
134729	7	Sololá	701	Sololá	4	Finca Santa Victoria	10	Octubre	2023-06-10T00:00:00	2024-11-08T10:00:00	6	Velocidad del viento	1.6
134730	7	Sololá	701	Sololá	4	Finca Santa Victoria	10	Octubre	2023-06-10T00:00:00	2024-11-08T10:00:00	7	Dirección del viento	1.61
134731	7	Sololá	701	Sololá	4	Finca Santa Victoria	10	Octubre	2023-06-10T00:00:00	2024-11-08T10:00:00	1	Precipitación	0
134732	7	Sololá	701	Sololá	4	Finca Santa Victoria	10	Octubre	2023-06-10T00:00:00	2024-11-08T10:00:00	8	Radiación solar	223
134733	7	Sololá	701	Sololá	4	Finca Santa Victoria	10	Octubre	2023-06-10T00:00:00	2024-11-08T11:00:00	2	Temperatura media	16.6
134734	7	Sololá	701	Sololá	4	Finca Santa Victoria	10	Octubre	2023-06-10T00:00:00	2024-11-08T11:00:00	4	Temperatura máxima	16.8
134735	7	Sololá	701	Sololá	4	Finca Santa Victoria	10	Octubre	2023-06-10T00:00:00	2024-11-08T11:00:00	3	Temperatura mínima	15.9
134736	7	Sololá	701	Sololá	4	Finca Santa Victoria	10	Octubre	2023-06-10T00:00:00	2024-11-08T11:00:00	5	Humedad	90
134737	7	Sololá	701	Sololá	4	Finca Santa Victoria	10	Octubre	2023-06-10T00:00:00	2024-11-08T11:00:00	6	Velocidad del viento	3.2
134738	7	Sololá	701	Sololá	4	Finca Santa Victoria	10	Octubre	2023-06-10T00:00:00	2024-11-08T11:00:00	7	Dirección del viento	3.22
134739	7	Sololá	701	Sololá	4	Finca Santa Victoria	10	Octubre	2023-06-10T00:00:00	2024-11-08T11:00:00	1	Precipitación	0
134740	7	Sololá	701	Sololá	4	Finca Santa Victoria	10	Octubre	2023-06-10T00:00:00	2024-11-08T11:00:00	8	Radiación solar	199
134741	7	Sololá	701	Sololá	4	Finca Santa Victoria	10	Octubre	2023-06-10T00:00:00	2024-11-08T12:00:00	2	Temperatura media	16.1
134742	7	Sololá	701	Sololá	4	Finca Santa Victoria	10	Octubre	2023-06-10T00:00:00	2024-11-08T12:00:00	4	Temperatura máxima	16.6
134743	7	Sololá	701	Sololá	4	Finca Santa Victoria	10	Octubre	2023-06-10T00:00:00	2024-11-08T12:00:00	3	Temperatura mínima	16.1
134744	7	Sololá	701	Sololá	4	Finca Santa Victoria	10	Octubre	2023-06-10T00:00:00	2024-11-08T12:00:00	5	Humedad	93
134745	7	Sololá	701	Sololá	4	Finca Santa Victoria	10	Octubre	2023-06-10T00:00:00	2024-11-08T12:00:00	6	Velocidad del viento	1.6
134746	7	Sololá	701	Sololá	4	Finca Santa Victoria	10	Octubre	2023-06-10T00:00:00	2024-11-08T12:00:00	7	Dirección del viento	1.61
134747	7	Sololá	701	Sololá	4	Finca Santa Victoria	10	Octubre	2023-06-10T00:00:00	2024-11-08T12:00:00	1	Precipitación	0
134748	7	Sololá	701	Sololá	4	Finca Santa Victoria	10	Octubre	2023-06-10T00:00:00	2024-11-08T12:00:00	8	Radiación solar	262
134749	7	Sololá	701	Sololá	4	Finca Santa Victoria	10	Octubre	2023-06-10T00:00:00	2024-11-08T13:00:00	2	Temperatura media	15.1
134750	7	Sololá	701	Sololá	4	Finca Santa Victoria	10	Octubre	2023-06-10T00:00:00	2024-11-08T13:00:00	4	Temperatura máxima	16.1
134751	7	Sololá	701	Sololá	4	Finca Santa Victoria	10	Octubre	2023-06-10T00:00:00	2024-11-08T13:00:00	3	Temperatura mínima	15.1
134752	7	Sololá	701	Sololá	4	Finca Santa Victoria	10	Octubre	2023-06-10T00:00:00	2024-11-08T13:00:00	5	Humedad	96
134753	7	Sololá	701	Sololá	4	Finca Santa Victoria	10	Octubre	2023-06-10T00:00:00	2024-11-08T13:00:00	6	Velocidad del viento	1.6
134754	7	Sololá	701	Sololá	4	Finca Santa Victoria	10	Octubre	2023-06-10T00:00:00	2024-11-08T13:00:00	7	Dirección del viento	1.61
134755	7	Sololá	701	Sololá	4	Finca Santa Victoria	10	Octubre	2023-06-10T00:00:00	2024-11-08T13:00:00	1	Precipitación	0
134756	7	Sololá	701	Sololá	4	Finca Santa Victoria	10	Octubre	2023-06-10T00:00:00	2024-11-08T13:00:00	8	Radiación solar	175
134757	7	Sololá	701	Sololá	4	Finca Santa Victoria	10	Octubre	2023-06-10T00:00:00	2024-11-08T14:00:00	2	Temperatura media	15
134758	7	Sololá	701	Sololá	4	Finca Santa Victoria	10	Octubre	2023-06-10T00:00:00	2024-11-08T14:00:00	4	Temperatura máxima	15.2
134759	7	Sololá	701	Sololá	4	Finca Santa Victoria	10	Octubre	2023-06-10T00:00:00	2024-11-08T14:00:00	3	Temperatura mínima	14.9
134760	7	Sololá	701	Sololá	4	Finca Santa Victoria	10	Octubre	2023-06-10T00:00:00	2024-11-08T14:00:00	5	Humedad	95
134761	7	Sololá	701	Sololá	4	Finca Santa Victoria	10	Octubre	2023-06-10T00:00:00	2024-11-08T14:00:00	6	Velocidad del viento	1.6
134762	7	Sololá	701	Sololá	4	Finca Santa Victoria	10	Octubre	2023-06-10T00:00:00	2024-11-08T14:00:00	7	Dirección del viento	1.61
134763	7	Sololá	701	Sololá	4	Finca Santa Victoria	10	Octubre	2023-06-10T00:00:00	2024-11-08T14:00:00	1	Precipitación	0
134764	7	Sololá	701	Sololá	4	Finca Santa Victoria	10	Octubre	2023-06-10T00:00:00	2024-11-08T14:00:00	8	Radiación solar	56
134765	7	Sololá	701	Sololá	4	Finca Santa Victoria	10	Octubre	2023-06-10T00:00:00	2024-11-08T15:00:00	2	Temperatura media	14.8
134766	7	Sololá	701	Sololá	4	Finca Santa Victoria	10	Octubre	2023-06-10T00:00:00	2024-11-08T15:00:00	4	Temperatura máxima	15.1
134767	7	Sololá	701	Sololá	4	Finca Santa Victoria	10	Octubre	2023-06-10T00:00:00	2024-11-08T15:00:00	3	Temperatura mínima	14.7
134768	7	Sololá	701	Sololá	4	Finca Santa Victoria	10	Octubre	2023-06-10T00:00:00	2024-11-08T15:00:00	5	Humedad	96
134769	7	Sololá	701	Sololá	4	Finca Santa Victoria	10	Octubre	2023-06-10T00:00:00	2024-11-08T15:00:00	6	Velocidad del viento	1.6
134770	7	Sololá	701	Sololá	4	Finca Santa Victoria	10	Octubre	2023-06-10T00:00:00	2024-11-08T15:00:00	7	Dirección del viento	1.61
134771	7	Sololá	701	Sololá	4	Finca Santa Victoria	10	Octubre	2023-06-10T00:00:00	2024-11-08T15:00:00	1	Precipitación	0
134772	7	Sololá	701	Sololá	4	Finca Santa Victoria	10	Octubre	2023-06-10T00:00:00	2024-11-08T15:00:00	8	Radiación solar	77
134773	7	Sololá	701	Sololá	4	Finca Santa Victoria	10	Octubre	2023-06-10T00:00:00	2024-11-08T16:00:00	2	Temperatura media	14.2
134774	7	Sololá	701	Sololá	4	Finca Santa Victoria	10	Octubre	2023-06-10T00:00:00	2024-11-08T16:00:00	4	Temperatura máxima	14.8
134775	7	Sololá	701	Sololá	4	Finca Santa Victoria	10	Octubre	2023-06-10T00:00:00	2024-11-08T16:00:00	3	Temperatura mínima	14.2
134776	7	Sololá	701	Sololá	4	Finca Santa Victoria	10	Octubre	2023-06-10T00:00:00	2024-11-08T16:00:00	5	Humedad	97
134777	7	Sololá	701	Sololá	4	Finca Santa Victoria	10	Octubre	2023-06-10T00:00:00	2024-11-08T16:00:00	6	Velocidad del viento	0
134778	7	Sololá	701	Sololá	4	Finca Santa Victoria	10	Octubre	2023-06-10T00:00:00	2024-11-08T16:00:00	7	Dirección del viento	0
134779	7	Sololá	701	Sololá	4	Finca Santa Victoria	10	Octubre	2023-06-10T00:00:00	2024-11-08T16:00:00	1	Precipitación	1
134780	7	Sololá	701	Sololá	4	Finca Santa Victoria	10	Octubre	2023-06-10T00:00:00	2024-11-08T16:00:00	8	Radiación solar	44
134781	7	Sololá	701	Sololá	4	Finca Santa Victoria	10	Octubre	2023-06-10T00:00:00	2024-11-08T17:00:00	2	Temperatura media	14.2
134782	7	Sololá	701	Sololá	4	Finca Santa Victoria	10	Octubre	2023-06-10T00:00:00	2024-11-08T17:00:00	4	Temperatura máxima	14.2
134783	7	Sololá	701	Sololá	4	Finca Santa Victoria	10	Octubre	2023-06-10T00:00:00	2024-11-08T17:00:00	3	Temperatura mínima	14.1
134784	7	Sololá	701	Sololá	4	Finca Santa Victoria	10	Octubre	2023-06-10T00:00:00	2024-11-08T17:00:00	5	Humedad	98
134785	7	Sololá	701	Sololá	4	Finca Santa Victoria	10	Octubre	2023-06-10T00:00:00	2024-11-08T17:00:00	6	Velocidad del viento	0
134786	7	Sololá	701	Sololá	4	Finca Santa Victoria	10	Octubre	2023-06-10T00:00:00	2024-11-08T17:00:00	7	Dirección del viento	0
134787	7	Sololá	701	Sololá	4	Finca Santa Victoria	10	Octubre	2023-06-10T00:00:00	2024-11-08T17:00:00	1	Precipitación	0
134788	7	Sololá	701	Sololá	4	Finca Santa Victoria	10	Octubre	2023-06-10T00:00:00	2024-11-08T17:00:00	8	Radiación solar	25
134789	7	Sololá	701	Sololá	4	Finca Santa Victoria	10	Octubre	2023-06-10T00:00:00	2024-11-08T18:00:00	2	Temperatura media	14.1
134790	7	Sololá	701	Sololá	4	Finca Santa Victoria	10	Octubre	2023-06-10T00:00:00	2024-11-08T18:00:00	4	Temperatura máxima	14.2
134791	7	Sololá	701	Sololá	4	Finca Santa Victoria	10	Octubre	2023-06-10T00:00:00	2024-11-08T18:00:00	3	Temperatura mínima	14
134792	7	Sololá	701	Sololá	4	Finca Santa Victoria	10	Octubre	2023-06-10T00:00:00	2024-11-08T18:00:00	5	Humedad	98
134793	7	Sololá	701	Sololá	4	Finca Santa Victoria	10	Octubre	2023-06-10T00:00:00	2024-11-08T18:00:00	6	Velocidad del viento	0
134794	7	Sololá	701	Sololá	4	Finca Santa Victoria	10	Octubre	2023-06-10T00:00:00	2024-11-08T18:00:00	7	Dirección del viento	0
134795	7	Sololá	701	Sololá	4	Finca Santa Victoria	10	Octubre	2023-06-10T00:00:00	2024-11-08T18:00:00	1	Precipitación	0.2
134796	7	Sololá	701	Sololá	4	Finca Santa Victoria	10	Octubre	2023-06-10T00:00:00	2024-11-08T18:00:00	8	Radiación solar	10
134797	7	Sololá	701	Sololá	4	Finca Santa Victoria	10	Octubre	2023-06-10T00:00:00	2024-11-08T19:00:00	2	Temperatura media	13.9
134798	7	Sololá	701	Sololá	4	Finca Santa Victoria	10	Octubre	2023-06-10T00:00:00	2024-11-08T19:00:00	4	Temperatura máxima	14.1
134799	7	Sololá	701	Sololá	4	Finca Santa Victoria	10	Octubre	2023-06-10T00:00:00	2024-11-08T19:00:00	3	Temperatura mínima	13.9
134800	7	Sololá	701	Sololá	4	Finca Santa Victoria	10	Octubre	2023-06-10T00:00:00	2024-11-08T19:00:00	5	Humedad	98
134801	7	Sololá	701	Sololá	4	Finca Santa Victoria	10	Octubre	2023-06-10T00:00:00	2024-11-08T19:00:00	6	Velocidad del viento	0
134802	7	Sololá	701	Sololá	4	Finca Santa Victoria	10	Octubre	2023-06-10T00:00:00	2024-11-08T19:00:00	7	Dirección del viento	0
134803	7	Sololá	701	Sololá	4	Finca Santa Victoria	10	Octubre	2023-06-10T00:00:00	2024-11-08T19:00:00	1	Precipitación	0.8
134804	7	Sololá	701	Sololá	4	Finca Santa Victoria	10	Octubre	2023-06-10T00:00:00	2024-11-08T19:00:00	8	Radiación solar	0
134805	7	Sololá	701	Sololá	4	Finca Santa Victoria	10	Octubre	2023-06-10T00:00:00	2024-11-08T20:00:00	2	Temperatura media	13.6
134806	7	Sololá	701	Sololá	4	Finca Santa Victoria	10	Octubre	2023-06-10T00:00:00	2024-11-08T20:00:00	4	Temperatura máxima	13.9
134807	7	Sololá	701	Sololá	4	Finca Santa Victoria	10	Octubre	2023-06-10T00:00:00	2024-11-08T20:00:00	3	Temperatura mínima	13.6
134808	7	Sololá	701	Sololá	4	Finca Santa Victoria	10	Octubre	2023-06-10T00:00:00	2024-11-08T20:00:00	5	Humedad	98
134809	7	Sololá	701	Sololá	4	Finca Santa Victoria	10	Octubre	2023-06-10T00:00:00	2024-11-08T20:00:00	6	Velocidad del viento	0
134810	7	Sololá	701	Sololá	4	Finca Santa Victoria	10	Octubre	2023-06-10T00:00:00	2024-11-08T20:00:00	7	Dirección del viento	0
134811	7	Sololá	701	Sololá	4	Finca Santa Victoria	10	Octubre	2023-06-10T00:00:00	2024-11-08T20:00:00	1	Precipitación	0
134812	7	Sololá	701	Sololá	4	Finca Santa Victoria	10	Octubre	2023-06-10T00:00:00	2024-11-08T20:00:00	8	Radiación solar	0
134813	7	Sololá	701	Sololá	4	Finca Santa Victoria	10	Octubre	2023-06-10T00:00:00	2024-11-08T21:00:00	2	Temperatura media	13.3
134814	7	Sololá	701	Sololá	4	Finca Santa Victoria	10	Octubre	2023-06-10T00:00:00	2024-11-08T21:00:00	4	Temperatura máxima	13.7
134815	7	Sololá	701	Sololá	4	Finca Santa Victoria	10	Octubre	2023-06-10T00:00:00	2024-11-08T21:00:00	3	Temperatura mínima	13.3
134816	7	Sololá	701	Sololá	4	Finca Santa Victoria	10	Octubre	2023-06-10T00:00:00	2024-11-08T21:00:00	5	Humedad	98
134817	7	Sololá	701	Sololá	4	Finca Santa Victoria	10	Octubre	2023-06-10T00:00:00	2024-11-08T21:00:00	6	Velocidad del viento	0
134818	7	Sololá	701	Sololá	4	Finca Santa Victoria	10	Octubre	2023-06-10T00:00:00	2024-11-08T21:00:00	7	Dirección del viento	0
134819	7	Sololá	701	Sololá	4	Finca Santa Victoria	10	Octubre	2023-06-10T00:00:00	2024-11-08T21:00:00	1	Precipitación	0
134820	7	Sololá	701	Sololá	4	Finca Santa Victoria	10	Octubre	2023-06-10T00:00:00	2024-11-08T21:00:00	8	Radiación solar	0
134821	7	Sololá	701	Sololá	4	Finca Santa Victoria	10	Octubre	2023-06-10T00:00:00	2024-11-08T22:00:00	2	Temperatura media	13.1
134822	7	Sololá	701	Sololá	4	Finca Santa Victoria	10	Octubre	2023-06-10T00:00:00	2024-11-08T22:00:00	4	Temperatura máxima	13.3
134823	7	Sololá	701	Sololá	4	Finca Santa Victoria	10	Octubre	2023-06-10T00:00:00	2024-11-08T22:00:00	3	Temperatura mínima	13.1
134824	7	Sololá	701	Sololá	4	Finca Santa Victoria	10	Octubre	2023-06-10T00:00:00	2024-11-08T22:00:00	5	Humedad	98
134825	7	Sololá	701	Sololá	4	Finca Santa Victoria	10	Octubre	2023-06-10T00:00:00	2024-11-08T22:00:00	6	Velocidad del viento	0
134826	7	Sololá	701	Sololá	4	Finca Santa Victoria	10	Octubre	2023-06-10T00:00:00	2024-11-08T22:00:00	7	Dirección del viento	0
134827	7	Sololá	701	Sololá	4	Finca Santa Victoria	10	Octubre	2023-06-10T00:00:00	2024-11-08T22:00:00	1	Precipitación	0
134828	7	Sololá	701	Sololá	4	Finca Santa Victoria	10	Octubre	2023-06-10T00:00:00	2024-11-08T22:00:00	8	Radiación solar	0
134829	7	Sololá	701	Sololá	4	Finca Santa Victoria	10	Octubre	2023-06-10T00:00:00	2024-11-08T23:00:00	2	Temperatura media	13.2
134830	7	Sololá	701	Sololá	4	Finca Santa Victoria	10	Octubre	2023-06-10T00:00:00	2024-11-08T23:00:00	4	Temperatura máxima	13.2
134831	7	Sololá	701	Sololá	4	Finca Santa Victoria	10	Octubre	2023-06-10T00:00:00	2024-11-08T23:00:00	3	Temperatura mínima	13.1
134832	7	Sololá	701	Sololá	4	Finca Santa Victoria	10	Octubre	2023-06-10T00:00:00	2024-11-08T23:00:00	5	Humedad	98
134833	7	Sololá	701	Sololá	4	Finca Santa Victoria	10	Octubre	2023-06-10T00:00:00	2024-11-08T23:00:00	6	Velocidad del viento	0
134834	7	Sololá	701	Sololá	4	Finca Santa Victoria	10	Octubre	2023-06-10T00:00:00	2024-11-08T23:00:00	7	Dirección del viento	0
134835	7	Sololá	701	Sololá	4	Finca Santa Victoria	10	Octubre	2023-06-10T00:00:00	2024-11-08T23:00:00	1	Precipitación	0
134836	7	Sololá	701	Sololá	4	Finca Santa Victoria	10	Octubre	2023-06-10T00:00:00	2024-11-08T23:00:00	8	Radiación solar	0
134837	7	Sololá	701	Sololá	4	Finca Santa Victoria	10	Octubre	2023-07-10T00:00:00	2024-11-08T00:00:00	2	Temperatura media	13.2
134838	7	Sololá	701	Sololá	4	Finca Santa Victoria	10	Octubre	2023-07-10T00:00:00	2024-11-08T00:00:00	4	Temperatura máxima	13.3
134839	7	Sololá	701	Sololá	4	Finca Santa Victoria	10	Octubre	2023-07-10T00:00:00	2024-11-08T00:00:00	3	Temperatura mínima	13.2
134840	7	Sololá	701	Sololá	4	Finca Santa Victoria	10	Octubre	2023-07-10T00:00:00	2024-11-08T00:00:00	5	Humedad	98
134841	7	Sololá	701	Sololá	4	Finca Santa Victoria	10	Octubre	2023-07-10T00:00:00	2024-11-08T00:00:00	6	Velocidad del viento	0
134842	7	Sololá	701	Sololá	4	Finca Santa Victoria	10	Octubre	2023-07-10T00:00:00	2024-11-08T00:00:00	7	Dirección del viento	0
134843	7	Sololá	701	Sololá	4	Finca Santa Victoria	10	Octubre	2023-07-10T00:00:00	2024-11-08T00:00:00	1	Precipitación	0.2
134844	7	Sololá	701	Sololá	4	Finca Santa Victoria	10	Octubre	2023-07-10T00:00:00	2024-11-08T00:00:00	8	Radiación solar	0
134845	7	Sololá	701	Sololá	4	Finca Santa Victoria	10	Octubre	2023-07-10T00:00:00	2024-11-08T01:00:00	2	Temperatura media	13.1
134846	7	Sololá	701	Sololá	4	Finca Santa Victoria	10	Octubre	2023-07-10T00:00:00	2024-11-08T01:00:00	4	Temperatura máxima	13.2
134847	7	Sololá	701	Sololá	4	Finca Santa Victoria	10	Octubre	2023-07-10T00:00:00	2024-11-08T01:00:00	3	Temperatura mínima	13.1
134848	7	Sololá	701	Sololá	4	Finca Santa Victoria	10	Octubre	2023-07-10T00:00:00	2024-11-08T01:00:00	5	Humedad	98
134849	7	Sololá	701	Sololá	4	Finca Santa Victoria	10	Octubre	2023-07-10T00:00:00	2024-11-08T01:00:00	6	Velocidad del viento	0
134850	7	Sololá	701	Sololá	4	Finca Santa Victoria	10	Octubre	2023-07-10T00:00:00	2024-11-08T01:00:00	7	Dirección del viento	0
134851	7	Sololá	701	Sololá	4	Finca Santa Victoria	10	Octubre	2023-07-10T00:00:00	2024-11-08T01:00:00	1	Precipitación	0.2
134852	7	Sololá	701	Sololá	4	Finca Santa Victoria	10	Octubre	2023-07-10T00:00:00	2024-11-08T01:00:00	8	Radiación solar	0
134853	7	Sololá	701	Sololá	4	Finca Santa Victoria	10	Octubre	2023-07-10T00:00:00	2024-11-08T02:00:00	2	Temperatura media	13.2
134854	7	Sololá	701	Sololá	4	Finca Santa Victoria	10	Octubre	2023-07-10T00:00:00	2024-11-08T02:00:00	4	Temperatura máxima	13.2
134855	7	Sololá	701	Sololá	4	Finca Santa Victoria	10	Octubre	2023-07-10T00:00:00	2024-11-08T02:00:00	3	Temperatura mínima	13.1
134856	7	Sololá	701	Sololá	4	Finca Santa Victoria	10	Octubre	2023-07-10T00:00:00	2024-11-08T02:00:00	5	Humedad	98
134857	7	Sololá	701	Sololá	4	Finca Santa Victoria	10	Octubre	2023-07-10T00:00:00	2024-11-08T02:00:00	6	Velocidad del viento	0
134858	7	Sololá	701	Sololá	4	Finca Santa Victoria	10	Octubre	2023-07-10T00:00:00	2024-11-08T02:00:00	7	Dirección del viento	0
134859	7	Sololá	701	Sololá	4	Finca Santa Victoria	10	Octubre	2023-07-10T00:00:00	2024-11-08T02:00:00	1	Precipitación	0.2
134860	7	Sololá	701	Sololá	4	Finca Santa Victoria	10	Octubre	2023-07-10T00:00:00	2024-11-08T02:00:00	8	Radiación solar	0
134861	7	Sololá	701	Sololá	4	Finca Santa Victoria	10	Octubre	2023-07-10T00:00:00	2024-11-08T03:00:00	2	Temperatura media	13.2
134862	7	Sololá	701	Sololá	4	Finca Santa Victoria	10	Octubre	2023-07-10T00:00:00	2024-11-08T03:00:00	4	Temperatura máxima	13.2
134863	7	Sololá	701	Sololá	4	Finca Santa Victoria	10	Octubre	2023-07-10T00:00:00	2024-11-08T03:00:00	3	Temperatura mínima	13.1
134864	7	Sololá	701	Sololá	4	Finca Santa Victoria	10	Octubre	2023-07-10T00:00:00	2024-11-08T03:00:00	5	Humedad	98
134865	7	Sololá	701	Sololá	4	Finca Santa Victoria	10	Octubre	2023-07-10T00:00:00	2024-11-08T03:00:00	6	Velocidad del viento	0
134866	7	Sololá	701	Sololá	4	Finca Santa Victoria	10	Octubre	2023-07-10T00:00:00	2024-11-08T03:00:00	7	Dirección del viento	0
134867	7	Sololá	701	Sololá	4	Finca Santa Victoria	10	Octubre	2023-07-10T00:00:00	2024-11-08T03:00:00	1	Precipitación	0
134868	7	Sololá	701	Sololá	4	Finca Santa Victoria	10	Octubre	2023-07-10T00:00:00	2024-11-08T03:00:00	8	Radiación solar	0
134869	7	Sololá	701	Sololá	4	Finca Santa Victoria	10	Octubre	2023-07-10T00:00:00	2024-11-08T04:00:00	2	Temperatura media	13.1
134870	7	Sololá	701	Sololá	4	Finca Santa Victoria	10	Octubre	2023-07-10T00:00:00	2024-11-08T04:00:00	4	Temperatura máxima	13.2
134871	7	Sololá	701	Sololá	4	Finca Santa Victoria	10	Octubre	2023-07-10T00:00:00	2024-11-08T04:00:00	3	Temperatura mínima	13.1
134872	7	Sololá	701	Sololá	4	Finca Santa Victoria	10	Octubre	2023-07-10T00:00:00	2024-11-08T04:00:00	5	Humedad	98
134873	7	Sololá	701	Sololá	4	Finca Santa Victoria	10	Octubre	2023-07-10T00:00:00	2024-11-08T04:00:00	6	Velocidad del viento	0
134874	7	Sololá	701	Sololá	4	Finca Santa Victoria	10	Octubre	2023-07-10T00:00:00	2024-11-08T04:00:00	7	Dirección del viento	0
134875	7	Sololá	701	Sololá	4	Finca Santa Victoria	10	Octubre	2023-07-10T00:00:00	2024-11-08T04:00:00	1	Precipitación	0
134876	7	Sololá	701	Sololá	4	Finca Santa Victoria	10	Octubre	2023-07-10T00:00:00	2024-11-08T04:00:00	8	Radiación solar	0
134877	7	Sololá	701	Sololá	4	Finca Santa Victoria	10	Octubre	2023-07-10T00:00:00	2024-11-08T05:00:00	2	Temperatura media	12.8
134878	7	Sololá	701	Sololá	4	Finca Santa Victoria	10	Octubre	2023-07-10T00:00:00	2024-11-08T05:00:00	4	Temperatura máxima	13.2
134879	7	Sololá	701	Sololá	4	Finca Santa Victoria	10	Octubre	2023-07-10T00:00:00	2024-11-08T05:00:00	3	Temperatura mínima	12.6
134880	7	Sololá	701	Sololá	4	Finca Santa Victoria	10	Octubre	2023-07-10T00:00:00	2024-11-08T05:00:00	5	Humedad	98
134881	7	Sololá	701	Sololá	4	Finca Santa Victoria	10	Octubre	2023-07-10T00:00:00	2024-11-08T05:00:00	6	Velocidad del viento	0
134882	7	Sololá	701	Sololá	4	Finca Santa Victoria	10	Octubre	2023-07-10T00:00:00	2024-11-08T05:00:00	7	Dirección del viento	0
134883	7	Sololá	701	Sololá	4	Finca Santa Victoria	10	Octubre	2023-07-10T00:00:00	2024-11-08T05:00:00	1	Precipitación	0
134884	7	Sololá	701	Sololá	4	Finca Santa Victoria	10	Octubre	2023-07-10T00:00:00	2024-11-08T05:00:00	8	Radiación solar	0
134885	7	Sololá	701	Sololá	4	Finca Santa Victoria	10	Octubre	2023-07-10T00:00:00	2024-11-08T06:00:00	2	Temperatura media	13.9
134886	7	Sololá	701	Sololá	4	Finca Santa Victoria	10	Octubre	2023-07-10T00:00:00	2024-11-08T06:00:00	4	Temperatura máxima	13.9
134887	7	Sololá	701	Sololá	4	Finca Santa Victoria	10	Octubre	2023-07-10T00:00:00	2024-11-08T06:00:00	3	Temperatura mínima	12.6
134888	7	Sololá	701	Sololá	4	Finca Santa Victoria	10	Octubre	2023-07-10T00:00:00	2024-11-08T06:00:00	5	Humedad	99
134889	7	Sololá	701	Sololá	4	Finca Santa Victoria	10	Octubre	2023-07-10T00:00:00	2024-11-08T06:00:00	6	Velocidad del viento	0
134890	7	Sololá	701	Sololá	4	Finca Santa Victoria	10	Octubre	2023-07-10T00:00:00	2024-11-08T06:00:00	7	Dirección del viento	0
134891	7	Sololá	701	Sololá	4	Finca Santa Victoria	10	Octubre	2023-07-10T00:00:00	2024-11-08T06:00:00	1	Precipitación	0
134892	7	Sololá	701	Sololá	4	Finca Santa Victoria	10	Octubre	2023-07-10T00:00:00	2024-11-08T06:00:00	8	Radiación solar	1
134893	7	Sololá	701	Sololá	4	Finca Santa Victoria	10	Octubre	2023-07-10T00:00:00	2024-11-08T07:00:00	2	Temperatura media	16.8
134894	7	Sololá	701	Sololá	4	Finca Santa Victoria	10	Octubre	2023-07-10T00:00:00	2024-11-08T07:00:00	4	Temperatura máxima	16.9
134895	7	Sololá	701	Sololá	4	Finca Santa Victoria	10	Octubre	2023-07-10T00:00:00	2024-11-08T07:00:00	3	Temperatura mínima	14
134896	7	Sololá	701	Sololá	4	Finca Santa Victoria	10	Octubre	2023-07-10T00:00:00	2024-11-08T07:00:00	5	Humedad	84
134897	7	Sololá	701	Sololá	4	Finca Santa Victoria	10	Octubre	2023-07-10T00:00:00	2024-11-08T07:00:00	6	Velocidad del viento	0
134898	7	Sololá	701	Sololá	4	Finca Santa Victoria	10	Octubre	2023-07-10T00:00:00	2024-11-08T07:00:00	7	Dirección del viento	0
134899	7	Sololá	701	Sololá	4	Finca Santa Victoria	10	Octubre	2023-07-10T00:00:00	2024-11-08T07:00:00	1	Precipitación	0
134900	7	Sololá	701	Sololá	4	Finca Santa Victoria	10	Octubre	2023-07-10T00:00:00	2024-11-08T07:00:00	8	Radiación solar	86
134901	7	Sololá	701	Sololá	4	Finca Santa Victoria	10	Octubre	2023-07-10T00:00:00	2024-11-08T08:00:00	2	Temperatura media	15.9
134902	7	Sololá	701	Sololá	4	Finca Santa Victoria	10	Octubre	2023-07-10T00:00:00	2024-11-08T08:00:00	4	Temperatura máxima	17.1
134903	7	Sololá	701	Sololá	4	Finca Santa Victoria	10	Octubre	2023-07-10T00:00:00	2024-11-08T08:00:00	3	Temperatura mínima	15.9
134904	7	Sololá	701	Sololá	4	Finca Santa Victoria	10	Octubre	2023-07-10T00:00:00	2024-11-08T08:00:00	5	Humedad	91
134905	7	Sololá	701	Sololá	4	Finca Santa Victoria	10	Octubre	2023-07-10T00:00:00	2024-11-08T08:00:00	6	Velocidad del viento	1.6
134906	7	Sololá	701	Sololá	4	Finca Santa Victoria	10	Octubre	2023-07-10T00:00:00	2024-11-08T08:00:00	7	Dirección del viento	1.61
134907	7	Sololá	701	Sololá	4	Finca Santa Victoria	10	Octubre	2023-07-10T00:00:00	2024-11-08T08:00:00	1	Precipitación	0
134908	7	Sololá	701	Sololá	4	Finca Santa Victoria	10	Octubre	2023-07-10T00:00:00	2024-11-08T08:00:00	8	Radiación solar	366
134909	7	Sololá	701	Sololá	4	Finca Santa Victoria	10	Octubre	2023-07-10T00:00:00	2024-11-08T09:00:00	2	Temperatura media	16.8
134910	7	Sololá	701	Sololá	4	Finca Santa Victoria	10	Octubre	2023-07-10T00:00:00	2024-11-08T09:00:00	4	Temperatura máxima	17.6
134911	7	Sololá	701	Sololá	4	Finca Santa Victoria	10	Octubre	2023-07-10T00:00:00	2024-11-08T09:00:00	3	Temperatura mínima	15.9
134912	7	Sololá	701	Sololá	4	Finca Santa Victoria	10	Octubre	2023-07-10T00:00:00	2024-11-08T09:00:00	5	Humedad	91
134913	7	Sololá	701	Sololá	4	Finca Santa Victoria	10	Octubre	2023-07-10T00:00:00	2024-11-08T09:00:00	6	Velocidad del viento	1.6
134914	7	Sololá	701	Sololá	4	Finca Santa Victoria	10	Octubre	2023-07-10T00:00:00	2024-11-08T09:00:00	7	Dirección del viento	1.61
134915	7	Sololá	701	Sololá	4	Finca Santa Victoria	10	Octubre	2023-07-10T00:00:00	2024-11-08T09:00:00	1	Precipitación	0
134916	7	Sololá	701	Sololá	4	Finca Santa Victoria	10	Octubre	2023-07-10T00:00:00	2024-11-08T09:00:00	8	Radiación solar	301
134917	7	Sololá	701	Sololá	4	Finca Santa Victoria	10	Octubre	2023-07-10T00:00:00	2024-11-08T10:00:00	2	Temperatura media	16.7
134918	7	Sololá	701	Sololá	4	Finca Santa Victoria	10	Octubre	2023-07-10T00:00:00	2024-11-08T10:00:00	4	Temperatura máxima	18.1
134919	7	Sololá	701	Sololá	4	Finca Santa Victoria	10	Octubre	2023-07-10T00:00:00	2024-11-08T10:00:00	3	Temperatura mínima	16.6
134920	7	Sololá	701	Sololá	4	Finca Santa Victoria	10	Octubre	2023-07-10T00:00:00	2024-11-08T10:00:00	5	Humedad	91
134921	7	Sololá	701	Sololá	4	Finca Santa Victoria	10	Octubre	2023-07-10T00:00:00	2024-11-08T10:00:00	6	Velocidad del viento	3.2
134922	7	Sololá	701	Sololá	4	Finca Santa Victoria	10	Octubre	2023-07-10T00:00:00	2024-11-08T10:00:00	7	Dirección del viento	3.22
134923	7	Sololá	701	Sololá	4	Finca Santa Victoria	10	Octubre	2023-07-10T00:00:00	2024-11-08T10:00:00	1	Precipitación	0
134924	7	Sololá	701	Sololá	4	Finca Santa Victoria	10	Octubre	2023-07-10T00:00:00	2024-11-08T10:00:00	8	Radiación solar	490
134925	7	Sololá	701	Sololá	4	Finca Santa Victoria	10	Octubre	2023-07-10T00:00:00	2024-11-08T11:00:00	2	Temperatura media	15.6
134926	7	Sololá	701	Sololá	4	Finca Santa Victoria	10	Octubre	2023-07-10T00:00:00	2024-11-08T11:00:00	4	Temperatura máxima	16.7
134927	7	Sololá	701	Sololá	4	Finca Santa Victoria	10	Octubre	2023-07-10T00:00:00	2024-11-08T11:00:00	3	Temperatura mínima	15.6
134928	7	Sololá	701	Sololá	4	Finca Santa Victoria	10	Octubre	2023-07-10T00:00:00	2024-11-08T11:00:00	5	Humedad	93
134929	7	Sololá	701	Sololá	4	Finca Santa Victoria	10	Octubre	2023-07-10T00:00:00	2024-11-08T11:00:00	6	Velocidad del viento	1.6
134930	7	Sololá	701	Sololá	4	Finca Santa Victoria	10	Octubre	2023-07-10T00:00:00	2024-11-08T11:00:00	7	Dirección del viento	1.61
134931	7	Sololá	701	Sololá	4	Finca Santa Victoria	10	Octubre	2023-07-10T00:00:00	2024-11-08T11:00:00	1	Precipitación	0
134932	7	Sololá	701	Sololá	4	Finca Santa Victoria	10	Octubre	2023-07-10T00:00:00	2024-11-08T11:00:00	8	Radiación solar	414
134933	7	Sololá	701	Sololá	4	Finca Santa Victoria	10	Octubre	2023-07-10T00:00:00	2024-11-08T12:00:00	2	Temperatura media	15.1
134934	7	Sololá	701	Sololá	4	Finca Santa Victoria	10	Octubre	2023-07-10T00:00:00	2024-11-08T12:00:00	4	Temperatura máxima	15.6
134935	7	Sololá	701	Sololá	4	Finca Santa Victoria	10	Octubre	2023-07-10T00:00:00	2024-11-08T12:00:00	3	Temperatura mínima	15
134936	7	Sololá	701	Sololá	4	Finca Santa Victoria	10	Octubre	2023-07-10T00:00:00	2024-11-08T12:00:00	5	Humedad	96
134937	7	Sololá	701	Sololá	4	Finca Santa Victoria	10	Octubre	2023-07-10T00:00:00	2024-11-08T12:00:00	6	Velocidad del viento	0
134938	7	Sololá	701	Sololá	4	Finca Santa Victoria	10	Octubre	2023-07-10T00:00:00	2024-11-08T12:00:00	7	Dirección del viento	0
134939	7	Sololá	701	Sololá	4	Finca Santa Victoria	10	Octubre	2023-07-10T00:00:00	2024-11-08T12:00:00	1	Precipitación	0
134940	7	Sololá	701	Sololá	4	Finca Santa Victoria	10	Octubre	2023-07-10T00:00:00	2024-11-08T12:00:00	8	Radiación solar	123
134941	7	Sololá	701	Sololá	4	Finca Santa Victoria	10	Octubre	2023-07-10T00:00:00	2024-11-08T13:00:00	2	Temperatura media	16.3
134942	7	Sololá	701	Sololá	4	Finca Santa Victoria	10	Octubre	2023-07-10T00:00:00	2024-11-08T13:00:00	4	Temperatura máxima	16.3
134943	7	Sololá	701	Sololá	4	Finca Santa Victoria	10	Octubre	2023-07-10T00:00:00	2024-11-08T13:00:00	3	Temperatura mínima	15.1
134944	7	Sololá	701	Sololá	4	Finca Santa Victoria	10	Octubre	2023-07-10T00:00:00	2024-11-08T13:00:00	5	Humedad	93
134945	7	Sololá	701	Sololá	4	Finca Santa Victoria	10	Octubre	2023-07-10T00:00:00	2024-11-08T13:00:00	6	Velocidad del viento	0
134946	7	Sololá	701	Sololá	4	Finca Santa Victoria	10	Octubre	2023-07-10T00:00:00	2024-11-08T13:00:00	7	Dirección del viento	0
134947	7	Sololá	701	Sololá	4	Finca Santa Victoria	10	Octubre	2023-07-10T00:00:00	2024-11-08T13:00:00	1	Precipitación	0
134948	7	Sololá	701	Sololá	4	Finca Santa Victoria	10	Octubre	2023-07-10T00:00:00	2024-11-08T13:00:00	8	Radiación solar	46
134949	7	Sololá	701	Sololá	4	Finca Santa Victoria	10	Octubre	2023-07-10T00:00:00	2024-11-08T14:00:00	2	Temperatura media	15.3
134950	7	Sololá	701	Sololá	4	Finca Santa Victoria	10	Octubre	2023-07-10T00:00:00	2024-11-08T14:00:00	4	Temperatura máxima	16.5
134951	7	Sololá	701	Sololá	4	Finca Santa Victoria	10	Octubre	2023-07-10T00:00:00	2024-11-08T14:00:00	3	Temperatura mínima	15.3
134952	7	Sololá	701	Sololá	4	Finca Santa Victoria	10	Octubre	2023-07-10T00:00:00	2024-11-08T14:00:00	5	Humedad	96
134953	7	Sololá	701	Sololá	4	Finca Santa Victoria	10	Octubre	2023-07-10T00:00:00	2024-11-08T14:00:00	6	Velocidad del viento	0
134954	7	Sololá	701	Sololá	4	Finca Santa Victoria	10	Octubre	2023-07-10T00:00:00	2024-11-08T14:00:00	7	Dirección del viento	0
134955	7	Sololá	701	Sololá	4	Finca Santa Victoria	10	Octubre	2023-07-10T00:00:00	2024-11-08T14:00:00	1	Precipitación	0
134956	7	Sololá	701	Sololá	4	Finca Santa Victoria	10	Octubre	2023-07-10T00:00:00	2024-11-08T14:00:00	8	Radiación solar	184
134957	7	Sololá	701	Sololá	4	Finca Santa Victoria	10	Octubre	2023-07-10T00:00:00	2024-11-08T15:00:00	2	Temperatura media	14.4
134958	7	Sololá	701	Sololá	4	Finca Santa Victoria	10	Octubre	2023-07-10T00:00:00	2024-11-08T15:00:00	4	Temperatura máxima	15.3
134959	7	Sololá	701	Sololá	4	Finca Santa Victoria	10	Octubre	2023-07-10T00:00:00	2024-11-08T15:00:00	3	Temperatura mínima	14.4
134960	7	Sololá	701	Sololá	4	Finca Santa Victoria	10	Octubre	2023-07-10T00:00:00	2024-11-08T15:00:00	5	Humedad	97
134961	7	Sololá	701	Sololá	4	Finca Santa Victoria	10	Octubre	2023-07-10T00:00:00	2024-11-08T15:00:00	6	Velocidad del viento	1.6
134962	7	Sololá	701	Sololá	4	Finca Santa Victoria	10	Octubre	2023-07-10T00:00:00	2024-11-08T15:00:00	7	Dirección del viento	1.61
134963	7	Sololá	701	Sololá	4	Finca Santa Victoria	10	Octubre	2023-07-10T00:00:00	2024-11-08T15:00:00	1	Precipitación	0.4
134964	7	Sololá	701	Sololá	4	Finca Santa Victoria	10	Octubre	2023-07-10T00:00:00	2024-11-08T15:00:00	8	Radiación solar	59
134965	7	Sololá	701	Sololá	4	Finca Santa Victoria	10	Octubre	2023-07-10T00:00:00	2024-11-08T16:00:00	2	Temperatura media	14.3
134966	7	Sololá	701	Sololá	4	Finca Santa Victoria	10	Octubre	2023-07-10T00:00:00	2024-11-08T16:00:00	4	Temperatura máxima	14.5
134967	7	Sololá	701	Sololá	4	Finca Santa Victoria	10	Octubre	2023-07-10T00:00:00	2024-11-08T16:00:00	3	Temperatura mínima	14.3
134968	7	Sololá	701	Sololá	4	Finca Santa Victoria	10	Octubre	2023-07-10T00:00:00	2024-11-08T16:00:00	5	Humedad	98
134969	7	Sololá	701	Sololá	4	Finca Santa Victoria	10	Octubre	2023-07-10T00:00:00	2024-11-08T16:00:00	6	Velocidad del viento	0
134970	7	Sololá	701	Sololá	4	Finca Santa Victoria	10	Octubre	2023-07-10T00:00:00	2024-11-08T16:00:00	7	Dirección del viento	0
134971	7	Sololá	701	Sololá	4	Finca Santa Victoria	10	Octubre	2023-07-10T00:00:00	2024-11-08T16:00:00	1	Precipitación	0
134972	7	Sololá	701	Sololá	4	Finca Santa Victoria	10	Octubre	2023-07-10T00:00:00	2024-11-08T16:00:00	8	Radiación solar	16
134973	7	Sololá	701	Sololá	4	Finca Santa Victoria	10	Octubre	2023-07-10T00:00:00	2024-11-08T17:00:00	2	Temperatura media	13.8
134974	7	Sololá	701	Sololá	4	Finca Santa Victoria	10	Octubre	2023-07-10T00:00:00	2024-11-08T17:00:00	4	Temperatura máxima	14.3
134975	7	Sololá	701	Sololá	4	Finca Santa Victoria	10	Octubre	2023-07-10T00:00:00	2024-11-08T17:00:00	3	Temperatura mínima	13.8
134976	7	Sololá	701	Sololá	4	Finca Santa Victoria	10	Octubre	2023-07-10T00:00:00	2024-11-08T17:00:00	5	Humedad	98
134977	7	Sololá	701	Sololá	4	Finca Santa Victoria	10	Octubre	2023-07-10T00:00:00	2024-11-08T17:00:00	6	Velocidad del viento	0
134978	7	Sololá	701	Sololá	4	Finca Santa Victoria	10	Octubre	2023-07-10T00:00:00	2024-11-08T17:00:00	7	Dirección del viento	0
134979	7	Sololá	701	Sololá	4	Finca Santa Victoria	10	Octubre	2023-07-10T00:00:00	2024-11-08T17:00:00	1	Precipitación	0.2
134980	7	Sololá	701	Sololá	4	Finca Santa Victoria	10	Octubre	2023-07-10T00:00:00	2024-11-08T17:00:00	8	Radiación solar	6
134981	7	Sololá	701	Sololá	4	Finca Santa Victoria	10	Octubre	2023-07-10T00:00:00	2024-11-08T18:00:00	2	Temperatura media	13.3
134982	7	Sololá	701	Sololá	4	Finca Santa Victoria	10	Octubre	2023-07-10T00:00:00	2024-11-08T18:00:00	4	Temperatura máxima	13.8
134983	7	Sololá	701	Sololá	4	Finca Santa Victoria	10	Octubre	2023-07-10T00:00:00	2024-11-08T18:00:00	3	Temperatura mínima	13.3
134984	7	Sololá	701	Sololá	4	Finca Santa Victoria	10	Octubre	2023-07-10T00:00:00	2024-11-08T18:00:00	5	Humedad	98
134985	7	Sololá	701	Sololá	4	Finca Santa Victoria	10	Octubre	2023-07-10T00:00:00	2024-11-08T18:00:00	6	Velocidad del viento	0
134986	7	Sololá	701	Sololá	4	Finca Santa Victoria	10	Octubre	2023-07-10T00:00:00	2024-11-08T18:00:00	7	Dirección del viento	0
134987	7	Sololá	701	Sololá	4	Finca Santa Victoria	10	Octubre	2023-07-10T00:00:00	2024-11-08T18:00:00	1	Precipitación	0
134988	7	Sololá	701	Sololá	4	Finca Santa Victoria	10	Octubre	2023-07-10T00:00:00	2024-11-08T18:00:00	8	Radiación solar	2
134989	7	Sololá	701	Sololá	4	Finca Santa Victoria	10	Octubre	2023-07-10T00:00:00	2024-11-08T19:00:00	2	Temperatura media	13.1
134990	7	Sololá	701	Sololá	4	Finca Santa Victoria	10	Octubre	2023-07-10T00:00:00	2024-11-08T19:00:00	4	Temperatura máxima	13.3
134991	7	Sololá	701	Sololá	4	Finca Santa Victoria	10	Octubre	2023-07-10T00:00:00	2024-11-08T19:00:00	3	Temperatura mínima	13.1
134992	7	Sololá	701	Sololá	4	Finca Santa Victoria	10	Octubre	2023-07-10T00:00:00	2024-11-08T19:00:00	5	Humedad	98
134993	7	Sololá	701	Sololá	4	Finca Santa Victoria	10	Octubre	2023-07-10T00:00:00	2024-11-08T19:00:00	6	Velocidad del viento	0
134994	7	Sololá	701	Sololá	4	Finca Santa Victoria	10	Octubre	2023-07-10T00:00:00	2024-11-08T19:00:00	7	Dirección del viento	0
134995	7	Sololá	701	Sololá	4	Finca Santa Victoria	10	Octubre	2023-07-10T00:00:00	2024-11-08T19:00:00	1	Precipitación	0
134996	7	Sololá	701	Sololá	4	Finca Santa Victoria	10	Octubre	2023-07-10T00:00:00	2024-11-08T19:00:00	8	Radiación solar	0
134997	7	Sololá	701	Sololá	4	Finca Santa Victoria	10	Octubre	2023-07-10T00:00:00	2024-11-08T20:00:00	2	Temperatura media	13
134998	7	Sololá	701	Sololá	4	Finca Santa Victoria	10	Octubre	2023-07-10T00:00:00	2024-11-08T20:00:00	4	Temperatura máxima	13.1
134999	7	Sololá	701	Sololá	4	Finca Santa Victoria	10	Octubre	2023-07-10T00:00:00	2024-11-08T20:00:00	3	Temperatura mínima	12.9
135000	7	Sololá	701	Sololá	4	Finca Santa Victoria	10	Octubre	2023-07-10T00:00:00	2024-11-08T20:00:00	5	Humedad	98
135001	7	Sololá	701	Sololá	4	Finca Santa Victoria	10	Octubre	2023-07-10T00:00:00	2024-11-08T20:00:00	6	Velocidad del viento	0
135002	7	Sololá	701	Sololá	4	Finca Santa Victoria	10	Octubre	2023-07-10T00:00:00	2024-11-08T20:00:00	7	Dirección del viento	0
135003	7	Sololá	701	Sololá	4	Finca Santa Victoria	10	Octubre	2023-07-10T00:00:00	2024-11-08T20:00:00	1	Precipitación	0
135004	7	Sololá	701	Sololá	4	Finca Santa Victoria	10	Octubre	2023-07-10T00:00:00	2024-11-08T20:00:00	8	Radiación solar	0
135005	7	Sololá	701	Sololá	4	Finca Santa Victoria	10	Octubre	2023-07-10T00:00:00	2024-11-08T21:00:00	2	Temperatura media	13.2
135006	7	Sololá	701	Sololá	4	Finca Santa Victoria	10	Octubre	2023-07-10T00:00:00	2024-11-08T21:00:00	4	Temperatura máxima	13.2
135007	7	Sololá	701	Sololá	4	Finca Santa Victoria	10	Octubre	2023-07-10T00:00:00	2024-11-08T21:00:00	3	Temperatura mínima	13
135008	7	Sololá	701	Sololá	4	Finca Santa Victoria	10	Octubre	2023-07-10T00:00:00	2024-11-08T21:00:00	5	Humedad	99
135009	7	Sololá	701	Sololá	4	Finca Santa Victoria	10	Octubre	2023-07-10T00:00:00	2024-11-08T21:00:00	6	Velocidad del viento	0
135010	7	Sololá	701	Sololá	4	Finca Santa Victoria	10	Octubre	2023-07-10T00:00:00	2024-11-08T21:00:00	7	Dirección del viento	0
135011	7	Sololá	701	Sololá	4	Finca Santa Victoria	10	Octubre	2023-07-10T00:00:00	2024-11-08T21:00:00	1	Precipitación	0
135012	7	Sololá	701	Sololá	4	Finca Santa Victoria	10	Octubre	2023-07-10T00:00:00	2024-11-08T21:00:00	8	Radiación solar	0
135013	7	Sololá	701	Sololá	4	Finca Santa Victoria	10	Octubre	2023-07-10T00:00:00	2024-11-08T22:00:00	2	Temperatura media	12.8
135014	7	Sololá	701	Sololá	4	Finca Santa Victoria	10	Octubre	2023-07-10T00:00:00	2024-11-08T22:00:00	4	Temperatura máxima	13.2
135015	7	Sololá	701	Sololá	4	Finca Santa Victoria	10	Octubre	2023-07-10T00:00:00	2024-11-08T22:00:00	3	Temperatura mínima	12.8
135016	7	Sololá	701	Sololá	4	Finca Santa Victoria	10	Octubre	2023-07-10T00:00:00	2024-11-08T22:00:00	5	Humedad	99
135017	7	Sololá	701	Sololá	4	Finca Santa Victoria	10	Octubre	2023-07-10T00:00:00	2024-11-08T22:00:00	6	Velocidad del viento	0
135018	7	Sololá	701	Sololá	4	Finca Santa Victoria	10	Octubre	2023-07-10T00:00:00	2024-11-08T22:00:00	7	Dirección del viento	0
135019	7	Sololá	701	Sololá	4	Finca Santa Victoria	10	Octubre	2023-07-10T00:00:00	2024-11-08T22:00:00	1	Precipitación	0
135020	7	Sololá	701	Sololá	4	Finca Santa Victoria	10	Octubre	2023-07-10T00:00:00	2024-11-08T22:00:00	8	Radiación solar	0
135021	7	Sololá	701	Sololá	4	Finca Santa Victoria	10	Octubre	2023-07-10T00:00:00	2024-11-08T23:00:00	2	Temperatura media	12.8
135022	7	Sololá	701	Sololá	4	Finca Santa Victoria	10	Octubre	2023-07-10T00:00:00	2024-11-08T23:00:00	4	Temperatura máxima	12.8
135023	7	Sololá	701	Sololá	4	Finca Santa Victoria	10	Octubre	2023-07-10T00:00:00	2024-11-08T23:00:00	3	Temperatura mínima	12.6
135024	7	Sololá	701	Sololá	4	Finca Santa Victoria	10	Octubre	2023-07-10T00:00:00	2024-11-08T23:00:00	5	Humedad	99
135025	7	Sololá	701	Sololá	4	Finca Santa Victoria	10	Octubre	2023-07-10T00:00:00	2024-11-08T23:00:00	6	Velocidad del viento	0
135026	7	Sololá	701	Sololá	4	Finca Santa Victoria	10	Octubre	2023-07-10T00:00:00	2024-11-08T23:00:00	7	Dirección del viento	0
135027	7	Sololá	701	Sololá	4	Finca Santa Victoria	10	Octubre	2023-07-10T00:00:00	2024-11-08T23:00:00	1	Precipitación	0
135028	7	Sololá	701	Sololá	4	Finca Santa Victoria	10	Octubre	2023-07-10T00:00:00	2024-11-08T23:00:00	8	Radiación solar	0
135029	7	Sololá	701	Sololá	4	Finca Santa Victoria	10	Octubre	2023-08-10T00:00:00	2024-11-08T00:00:00	2	Temperatura media	12.5
135030	7	Sololá	701	Sololá	4	Finca Santa Victoria	10	Octubre	2023-08-10T00:00:00	2024-11-08T00:00:00	4	Temperatura máxima	12.9
135031	7	Sololá	701	Sololá	4	Finca Santa Victoria	10	Octubre	2023-08-10T00:00:00	2024-11-08T00:00:00	3	Temperatura mínima	12.5
135032	7	Sololá	701	Sololá	4	Finca Santa Victoria	10	Octubre	2023-08-10T00:00:00	2024-11-08T00:00:00	5	Humedad	99
135033	7	Sololá	701	Sololá	4	Finca Santa Victoria	10	Octubre	2023-08-10T00:00:00	2024-11-08T00:00:00	6	Velocidad del viento	0
135034	7	Sololá	701	Sololá	4	Finca Santa Victoria	10	Octubre	2023-08-10T00:00:00	2024-11-08T00:00:00	7	Dirección del viento	0
135035	7	Sololá	701	Sololá	4	Finca Santa Victoria	10	Octubre	2023-08-10T00:00:00	2024-11-08T00:00:00	1	Precipitación	0
135036	7	Sololá	701	Sololá	4	Finca Santa Victoria	10	Octubre	2023-08-10T00:00:00	2024-11-08T00:00:00	8	Radiación solar	0
135037	7	Sololá	701	Sololá	4	Finca Santa Victoria	10	Octubre	2023-08-10T00:00:00	2024-11-08T01:00:00	2	Temperatura media	11.9
135038	7	Sololá	701	Sololá	4	Finca Santa Victoria	10	Octubre	2023-08-10T00:00:00	2024-11-08T01:00:00	4	Temperatura máxima	12.5
135039	7	Sololá	701	Sololá	4	Finca Santa Victoria	10	Octubre	2023-08-10T00:00:00	2024-11-08T01:00:00	3	Temperatura mínima	11.8
135040	7	Sololá	701	Sololá	4	Finca Santa Victoria	10	Octubre	2023-08-10T00:00:00	2024-11-08T01:00:00	5	Humedad	99
135041	7	Sololá	701	Sololá	4	Finca Santa Victoria	10	Octubre	2023-08-10T00:00:00	2024-11-08T01:00:00	6	Velocidad del viento	0
135042	7	Sololá	701	Sololá	4	Finca Santa Victoria	10	Octubre	2023-08-10T00:00:00	2024-11-08T01:00:00	7	Dirección del viento	0
135043	7	Sololá	701	Sololá	4	Finca Santa Victoria	10	Octubre	2023-08-10T00:00:00	2024-11-08T01:00:00	1	Precipitación	0
135044	7	Sololá	701	Sololá	4	Finca Santa Victoria	10	Octubre	2023-08-10T00:00:00	2024-11-08T01:00:00	8	Radiación solar	0
135045	7	Sololá	701	Sololá	4	Finca Santa Victoria	10	Octubre	2023-08-10T00:00:00	2024-11-08T02:00:00	2	Temperatura media	12.1
135046	7	Sololá	701	Sololá	4	Finca Santa Victoria	10	Octubre	2023-08-10T00:00:00	2024-11-08T02:00:00	4	Temperatura máxima	12.3
135047	7	Sololá	701	Sololá	4	Finca Santa Victoria	10	Octubre	2023-08-10T00:00:00	2024-11-08T02:00:00	3	Temperatura mínima	11.9
135048	7	Sololá	701	Sololá	4	Finca Santa Victoria	10	Octubre	2023-08-10T00:00:00	2024-11-08T02:00:00	5	Humedad	99
135049	7	Sololá	701	Sololá	4	Finca Santa Victoria	10	Octubre	2023-08-10T00:00:00	2024-11-08T02:00:00	6	Velocidad del viento	0
135050	7	Sololá	701	Sololá	4	Finca Santa Victoria	10	Octubre	2023-08-10T00:00:00	2024-11-08T02:00:00	7	Dirección del viento	0
135051	7	Sololá	701	Sololá	4	Finca Santa Victoria	10	Octubre	2023-08-10T00:00:00	2024-11-08T02:00:00	1	Precipitación	0
135052	7	Sololá	701	Sololá	4	Finca Santa Victoria	10	Octubre	2023-08-10T00:00:00	2024-11-08T02:00:00	8	Radiación solar	0
135053	7	Sololá	701	Sololá	4	Finca Santa Victoria	10	Octubre	2023-08-10T00:00:00	2024-11-08T03:00:00	2	Temperatura media	11.8
135054	7	Sololá	701	Sololá	4	Finca Santa Victoria	10	Octubre	2023-08-10T00:00:00	2024-11-08T03:00:00	4	Temperatura máxima	12.2
135055	7	Sololá	701	Sololá	4	Finca Santa Victoria	10	Octubre	2023-08-10T00:00:00	2024-11-08T03:00:00	3	Temperatura mínima	11.8
135056	7	Sololá	701	Sololá	4	Finca Santa Victoria	10	Octubre	2023-08-10T00:00:00	2024-11-08T03:00:00	5	Humedad	99
135057	7	Sololá	701	Sololá	4	Finca Santa Victoria	10	Octubre	2023-08-10T00:00:00	2024-11-08T03:00:00	6	Velocidad del viento	0
135058	7	Sololá	701	Sololá	4	Finca Santa Victoria	10	Octubre	2023-08-10T00:00:00	2024-11-08T03:00:00	7	Dirección del viento	0
135059	7	Sololá	701	Sololá	4	Finca Santa Victoria	10	Octubre	2023-08-10T00:00:00	2024-11-08T03:00:00	1	Precipitación	0
135060	7	Sololá	701	Sololá	4	Finca Santa Victoria	10	Octubre	2023-08-10T00:00:00	2024-11-08T03:00:00	8	Radiación solar	0
135061	7	Sololá	701	Sololá	4	Finca Santa Victoria	10	Octubre	2023-08-10T00:00:00	2024-11-08T04:00:00	2	Temperatura media	11.3
135062	7	Sololá	701	Sololá	4	Finca Santa Victoria	10	Octubre	2023-08-10T00:00:00	2024-11-08T04:00:00	4	Temperatura máxima	11.8
135063	7	Sololá	701	Sololá	4	Finca Santa Victoria	10	Octubre	2023-08-10T00:00:00	2024-11-08T04:00:00	3	Temperatura mínima	11.2
135064	7	Sololá	701	Sololá	4	Finca Santa Victoria	10	Octubre	2023-08-10T00:00:00	2024-11-08T04:00:00	5	Humedad	99
135065	7	Sololá	701	Sololá	4	Finca Santa Victoria	10	Octubre	2023-08-10T00:00:00	2024-11-08T04:00:00	6	Velocidad del viento	0
135066	7	Sololá	701	Sololá	4	Finca Santa Victoria	10	Octubre	2023-08-10T00:00:00	2024-11-08T04:00:00	7	Dirección del viento	0
135067	7	Sololá	701	Sololá	4	Finca Santa Victoria	10	Octubre	2023-08-10T00:00:00	2024-11-08T04:00:00	1	Precipitación	0
135068	7	Sololá	701	Sololá	4	Finca Santa Victoria	10	Octubre	2023-08-10T00:00:00	2024-11-08T04:00:00	8	Radiación solar	0
135069	7	Sololá	701	Sololá	4	Finca Santa Victoria	10	Octubre	2023-08-10T00:00:00	2024-11-08T05:00:00	2	Temperatura media	11.7
135070	7	Sololá	701	Sololá	4	Finca Santa Victoria	10	Octubre	2023-08-10T00:00:00	2024-11-08T05:00:00	4	Temperatura máxima	11.7
135071	7	Sololá	701	Sololá	4	Finca Santa Victoria	10	Octubre	2023-08-10T00:00:00	2024-11-08T05:00:00	3	Temperatura mínima	11.2
135072	7	Sololá	701	Sololá	4	Finca Santa Victoria	10	Octubre	2023-08-10T00:00:00	2024-11-08T05:00:00	5	Humedad	99
135073	7	Sololá	701	Sololá	4	Finca Santa Victoria	10	Octubre	2023-08-10T00:00:00	2024-11-08T05:00:00	6	Velocidad del viento	0
135074	7	Sololá	701	Sololá	4	Finca Santa Victoria	10	Octubre	2023-08-10T00:00:00	2024-11-08T05:00:00	7	Dirección del viento	0
135075	7	Sololá	701	Sololá	4	Finca Santa Victoria	10	Octubre	2023-08-10T00:00:00	2024-11-08T05:00:00	1	Precipitación	0
135076	7	Sololá	701	Sololá	4	Finca Santa Victoria	10	Octubre	2023-08-10T00:00:00	2024-11-08T05:00:00	8	Radiación solar	0
135077	7	Sololá	701	Sololá	4	Finca Santa Victoria	10	Octubre	2023-08-10T00:00:00	2024-11-08T06:00:00	2	Temperatura media	12.8
135078	7	Sololá	701	Sololá	4	Finca Santa Victoria	10	Octubre	2023-08-10T00:00:00	2024-11-08T06:00:00	4	Temperatura máxima	12.8
135079	7	Sololá	701	Sololá	4	Finca Santa Victoria	10	Octubre	2023-08-10T00:00:00	2024-11-08T06:00:00	3	Temperatura mínima	11.6
135080	7	Sololá	701	Sololá	4	Finca Santa Victoria	10	Octubre	2023-08-10T00:00:00	2024-11-08T06:00:00	5	Humedad	99
135081	7	Sololá	701	Sololá	4	Finca Santa Victoria	10	Octubre	2023-08-10T00:00:00	2024-11-08T06:00:00	6	Velocidad del viento	0
135082	7	Sololá	701	Sololá	4	Finca Santa Victoria	10	Octubre	2023-08-10T00:00:00	2024-11-08T06:00:00	7	Dirección del viento	0
135083	7	Sololá	701	Sololá	4	Finca Santa Victoria	10	Octubre	2023-08-10T00:00:00	2024-11-08T06:00:00	1	Precipitación	0
135084	7	Sololá	701	Sololá	4	Finca Santa Victoria	10	Octubre	2023-08-10T00:00:00	2024-11-08T06:00:00	8	Radiación solar	1
135085	7	Sololá	701	Sololá	4	Finca Santa Victoria	10	Octubre	2023-08-10T00:00:00	2024-11-08T07:00:00	2	Temperatura media	14.5
135086	7	Sololá	701	Sololá	4	Finca Santa Victoria	10	Octubre	2023-08-10T00:00:00	2024-11-08T07:00:00	4	Temperatura máxima	14.5
135087	7	Sololá	701	Sololá	4	Finca Santa Victoria	10	Octubre	2023-08-10T00:00:00	2024-11-08T07:00:00	3	Temperatura mínima	12.8
135088	7	Sololá	701	Sololá	4	Finca Santa Victoria	10	Octubre	2023-08-10T00:00:00	2024-11-08T07:00:00	5	Humedad	94
135089	7	Sololá	701	Sololá	4	Finca Santa Victoria	10	Octubre	2023-08-10T00:00:00	2024-11-08T07:00:00	6	Velocidad del viento	0
135090	7	Sololá	701	Sololá	4	Finca Santa Victoria	10	Octubre	2023-08-10T00:00:00	2024-11-08T07:00:00	7	Dirección del viento	0
135091	7	Sololá	701	Sololá	4	Finca Santa Victoria	10	Octubre	2023-08-10T00:00:00	2024-11-08T07:00:00	1	Precipitación	0
135092	7	Sololá	701	Sololá	4	Finca Santa Victoria	10	Octubre	2023-08-10T00:00:00	2024-11-08T07:00:00	8	Radiación solar	70
135093	7	Sololá	701	Sololá	4	Finca Santa Victoria	10	Octubre	2023-08-10T00:00:00	2024-11-08T08:00:00	2	Temperatura media	15.8
135094	7	Sololá	701	Sololá	4	Finca Santa Victoria	10	Octubre	2023-08-10T00:00:00	2024-11-08T08:00:00	4	Temperatura máxima	16.2
135095	7	Sololá	701	Sololá	4	Finca Santa Victoria	10	Octubre	2023-08-10T00:00:00	2024-11-08T08:00:00	3	Temperatura mínima	14.5
135096	7	Sololá	701	Sololá	4	Finca Santa Victoria	10	Octubre	2023-08-10T00:00:00	2024-11-08T08:00:00	5	Humedad	89
135097	7	Sololá	701	Sololá	4	Finca Santa Victoria	10	Octubre	2023-08-10T00:00:00	2024-11-08T08:00:00	6	Velocidad del viento	0
135098	7	Sololá	701	Sololá	4	Finca Santa Victoria	10	Octubre	2023-08-10T00:00:00	2024-11-08T08:00:00	7	Dirección del viento	0
135099	7	Sololá	701	Sololá	4	Finca Santa Victoria	10	Octubre	2023-08-10T00:00:00	2024-11-08T08:00:00	1	Precipitación	0
135100	7	Sololá	701	Sololá	4	Finca Santa Victoria	10	Octubre	2023-08-10T00:00:00	2024-11-08T08:00:00	8	Radiación solar	198
135101	7	Sololá	701	Sololá	4	Finca Santa Victoria	10	Octubre	2023-08-10T00:00:00	2024-11-08T09:00:00	2	Temperatura media	15.8
135102	7	Sololá	701	Sololá	4	Finca Santa Victoria	10	Octubre	2023-08-10T00:00:00	2024-11-08T09:00:00	4	Temperatura máxima	16
135103	7	Sololá	701	Sololá	4	Finca Santa Victoria	10	Octubre	2023-08-10T00:00:00	2024-11-08T09:00:00	3	Temperatura mínima	15.7
135104	7	Sololá	701	Sololá	4	Finca Santa Victoria	10	Octubre	2023-08-10T00:00:00	2024-11-08T09:00:00	5	Humedad	93
135105	7	Sololá	701	Sololá	4	Finca Santa Victoria	10	Octubre	2023-08-10T00:00:00	2024-11-08T09:00:00	6	Velocidad del viento	1.6
135106	7	Sololá	701	Sololá	4	Finca Santa Victoria	10	Octubre	2023-08-10T00:00:00	2024-11-08T09:00:00	7	Dirección del viento	1.61
135107	7	Sololá	701	Sololá	4	Finca Santa Victoria	10	Octubre	2023-08-10T00:00:00	2024-11-08T09:00:00	1	Precipitación	0
135108	7	Sololá	701	Sololá	4	Finca Santa Victoria	10	Octubre	2023-08-10T00:00:00	2024-11-08T09:00:00	8	Radiación solar	315
135109	7	Sololá	701	Sololá	4	Finca Santa Victoria	10	Octubre	2023-08-10T00:00:00	2024-11-08T10:00:00	2	Temperatura media	15.9
135110	7	Sololá	701	Sololá	4	Finca Santa Victoria	10	Octubre	2023-08-10T00:00:00	2024-11-08T10:00:00	4	Temperatura máxima	16.2
135111	7	Sololá	701	Sololá	4	Finca Santa Victoria	10	Octubre	2023-08-10T00:00:00	2024-11-08T10:00:00	3	Temperatura mínima	15.8
135112	7	Sololá	701	Sololá	4	Finca Santa Victoria	10	Octubre	2023-08-10T00:00:00	2024-11-08T10:00:00	5	Humedad	93
135113	7	Sololá	701	Sololá	4	Finca Santa Victoria	10	Octubre	2023-08-10T00:00:00	2024-11-08T10:00:00	6	Velocidad del viento	1.6
135114	7	Sololá	701	Sololá	4	Finca Santa Victoria	10	Octubre	2023-08-10T00:00:00	2024-11-08T10:00:00	7	Dirección del viento	1.61
135115	7	Sololá	701	Sololá	4	Finca Santa Victoria	10	Octubre	2023-08-10T00:00:00	2024-11-08T10:00:00	1	Precipitación	0
135116	7	Sololá	701	Sololá	4	Finca Santa Victoria	10	Octubre	2023-08-10T00:00:00	2024-11-08T10:00:00	8	Radiación solar	259
135117	7	Sololá	701	Sololá	4	Finca Santa Victoria	10	Octubre	2023-08-10T00:00:00	2024-11-08T11:00:00	2	Temperatura media	15.8
135118	7	Sololá	701	Sololá	4	Finca Santa Victoria	10	Octubre	2023-08-10T00:00:00	2024-11-08T11:00:00	4	Temperatura máxima	16.6
135119	7	Sololá	701	Sololá	4	Finca Santa Victoria	10	Octubre	2023-08-10T00:00:00	2024-11-08T11:00:00	3	Temperatura mínima	15.8
135120	7	Sololá	701	Sololá	4	Finca Santa Victoria	10	Octubre	2023-08-10T00:00:00	2024-11-08T11:00:00	5	Humedad	93
135121	7	Sololá	701	Sololá	4	Finca Santa Victoria	10	Octubre	2023-08-10T00:00:00	2024-11-08T11:00:00	6	Velocidad del viento	1.6
135122	7	Sololá	701	Sololá	4	Finca Santa Victoria	10	Octubre	2023-08-10T00:00:00	2024-11-08T11:00:00	7	Dirección del viento	1.61
135123	7	Sololá	701	Sololá	4	Finca Santa Victoria	10	Octubre	2023-08-10T00:00:00	2024-11-08T11:00:00	1	Precipitación	0
135124	7	Sololá	701	Sololá	4	Finca Santa Victoria	10	Octubre	2023-08-10T00:00:00	2024-11-08T11:00:00	8	Radiación solar	296
135125	7	Sololá	701	Sololá	4	Finca Santa Victoria	10	Octubre	2023-08-10T00:00:00	2024-11-08T12:00:00	2	Temperatura media	16.1
135126	7	Sololá	701	Sololá	4	Finca Santa Victoria	10	Octubre	2023-08-10T00:00:00	2024-11-08T12:00:00	4	Temperatura máxima	16.2
135127	7	Sololá	701	Sololá	4	Finca Santa Victoria	10	Octubre	2023-08-10T00:00:00	2024-11-08T12:00:00	3	Temperatura mínima	15.7
135128	7	Sololá	701	Sololá	4	Finca Santa Victoria	10	Octubre	2023-08-10T00:00:00	2024-11-08T12:00:00	5	Humedad	92
135129	7	Sololá	701	Sololá	4	Finca Santa Victoria	10	Octubre	2023-08-10T00:00:00	2024-11-08T12:00:00	6	Velocidad del viento	1.6
135130	7	Sololá	701	Sololá	4	Finca Santa Victoria	10	Octubre	2023-08-10T00:00:00	2024-11-08T12:00:00	7	Dirección del viento	1.61
135131	7	Sololá	701	Sololá	4	Finca Santa Victoria	10	Octubre	2023-08-10T00:00:00	2024-11-08T12:00:00	1	Precipitación	0
135132	7	Sololá	701	Sololá	4	Finca Santa Victoria	10	Octubre	2023-08-10T00:00:00	2024-11-08T12:00:00	8	Radiación solar	230
135133	7	Sololá	701	Sololá	4	Finca Santa Victoria	10	Octubre	2023-08-10T00:00:00	2024-11-08T13:00:00	2	Temperatura media	15.8
135134	7	Sololá	701	Sololá	4	Finca Santa Victoria	10	Octubre	2023-08-10T00:00:00	2024-11-08T13:00:00	4	Temperatura máxima	16.3
135135	7	Sololá	701	Sololá	4	Finca Santa Victoria	10	Octubre	2023-08-10T00:00:00	2024-11-08T13:00:00	3	Temperatura mínima	15.6
135136	7	Sololá	701	Sololá	4	Finca Santa Victoria	10	Octubre	2023-08-10T00:00:00	2024-11-08T13:00:00	5	Humedad	94
135137	7	Sololá	701	Sololá	4	Finca Santa Victoria	10	Octubre	2023-08-10T00:00:00	2024-11-08T13:00:00	6	Velocidad del viento	3.2
135138	7	Sololá	701	Sololá	4	Finca Santa Victoria	10	Octubre	2023-08-10T00:00:00	2024-11-08T13:00:00	7	Dirección del viento	3.22
135139	7	Sololá	701	Sololá	4	Finca Santa Victoria	10	Octubre	2023-08-10T00:00:00	2024-11-08T13:00:00	1	Precipitación	0
135140	7	Sololá	701	Sololá	4	Finca Santa Victoria	10	Octubre	2023-08-10T00:00:00	2024-11-08T13:00:00	8	Radiación solar	242
135141	7	Sololá	701	Sololá	4	Finca Santa Victoria	10	Octubre	2023-08-10T00:00:00	2024-11-08T14:00:00	2	Temperatura media	14.7
135142	7	Sololá	701	Sololá	4	Finca Santa Victoria	10	Octubre	2023-08-10T00:00:00	2024-11-08T14:00:00	4	Temperatura máxima	15.8
135143	7	Sololá	701	Sololá	4	Finca Santa Victoria	10	Octubre	2023-08-10T00:00:00	2024-11-08T14:00:00	3	Temperatura mínima	14.7
135144	7	Sololá	701	Sololá	4	Finca Santa Victoria	10	Octubre	2023-08-10T00:00:00	2024-11-08T14:00:00	5	Humedad	96
135145	7	Sololá	701	Sololá	4	Finca Santa Victoria	10	Octubre	2023-08-10T00:00:00	2024-11-08T14:00:00	6	Velocidad del viento	1.6
135146	7	Sololá	701	Sololá	4	Finca Santa Victoria	10	Octubre	2023-08-10T00:00:00	2024-11-08T14:00:00	7	Dirección del viento	1.61
135147	7	Sololá	701	Sololá	4	Finca Santa Victoria	10	Octubre	2023-08-10T00:00:00	2024-11-08T14:00:00	1	Precipitación	0.6
135148	7	Sololá	701	Sololá	4	Finca Santa Victoria	10	Octubre	2023-08-10T00:00:00	2024-11-08T14:00:00	8	Radiación solar	184
135149	7	Sololá	701	Sololá	4	Finca Santa Victoria	10	Octubre	2023-08-10T00:00:00	2024-11-08T15:00:00	2	Temperatura media	14.2
135150	7	Sololá	701	Sololá	4	Finca Santa Victoria	10	Octubre	2023-08-10T00:00:00	2024-11-08T15:00:00	4	Temperatura máxima	14.7
135151	7	Sololá	701	Sololá	4	Finca Santa Victoria	10	Octubre	2023-08-10T00:00:00	2024-11-08T15:00:00	3	Temperatura mínima	14.2
135152	7	Sololá	701	Sololá	4	Finca Santa Victoria	10	Octubre	2023-08-10T00:00:00	2024-11-08T15:00:00	5	Humedad	97
135153	7	Sololá	701	Sololá	4	Finca Santa Victoria	10	Octubre	2023-08-10T00:00:00	2024-11-08T15:00:00	6	Velocidad del viento	1.6
135154	7	Sololá	701	Sololá	4	Finca Santa Victoria	10	Octubre	2023-08-10T00:00:00	2024-11-08T15:00:00	7	Dirección del viento	1.61
135155	7	Sololá	701	Sololá	4	Finca Santa Victoria	10	Octubre	2023-08-10T00:00:00	2024-11-08T15:00:00	1	Precipitación	0.4
135156	7	Sololá	701	Sololá	4	Finca Santa Victoria	10	Octubre	2023-08-10T00:00:00	2024-11-08T15:00:00	8	Radiación solar	62
135157	7	Sololá	701	Sololá	4	Finca Santa Victoria	10	Octubre	2023-08-10T00:00:00	2024-11-08T16:00:00	2	Temperatura media	13.8
135158	7	Sololá	701	Sololá	4	Finca Santa Victoria	10	Octubre	2023-08-10T00:00:00	2024-11-08T16:00:00	4	Temperatura máxima	14.2
135159	7	Sololá	701	Sololá	4	Finca Santa Victoria	10	Octubre	2023-08-10T00:00:00	2024-11-08T16:00:00	3	Temperatura mínima	13.7
135160	7	Sololá	701	Sololá	4	Finca Santa Victoria	10	Octubre	2023-08-10T00:00:00	2024-11-08T16:00:00	5	Humedad	98
135161	7	Sololá	701	Sololá	4	Finca Santa Victoria	10	Octubre	2023-08-10T00:00:00	2024-11-08T16:00:00	6	Velocidad del viento	1.6
135162	7	Sololá	701	Sololá	4	Finca Santa Victoria	10	Octubre	2023-08-10T00:00:00	2024-11-08T16:00:00	7	Dirección del viento	1.61
135163	7	Sololá	701	Sololá	4	Finca Santa Victoria	10	Octubre	2023-08-10T00:00:00	2024-11-08T16:00:00	1	Precipitación	2
135164	7	Sololá	701	Sololá	4	Finca Santa Victoria	10	Octubre	2023-08-10T00:00:00	2024-11-08T16:00:00	8	Radiación solar	39
135165	7	Sololá	701	Sololá	4	Finca Santa Victoria	10	Octubre	2023-08-10T00:00:00	2024-11-08T17:00:00	2	Temperatura media	13.7
135166	7	Sololá	701	Sololá	4	Finca Santa Victoria	10	Octubre	2023-08-10T00:00:00	2024-11-08T17:00:00	4	Temperatura máxima	13.8
135167	7	Sololá	701	Sololá	4	Finca Santa Victoria	10	Octubre	2023-08-10T00:00:00	2024-11-08T17:00:00	3	Temperatura mínima	13.6
135168	7	Sololá	701	Sololá	4	Finca Santa Victoria	10	Octubre	2023-08-10T00:00:00	2024-11-08T17:00:00	5	Humedad	98
135169	7	Sololá	701	Sololá	4	Finca Santa Victoria	10	Octubre	2023-08-10T00:00:00	2024-11-08T17:00:00	6	Velocidad del viento	0
135170	7	Sololá	701	Sololá	4	Finca Santa Victoria	10	Octubre	2023-08-10T00:00:00	2024-11-08T17:00:00	7	Dirección del viento	0
135171	7	Sololá	701	Sololá	4	Finca Santa Victoria	10	Octubre	2023-08-10T00:00:00	2024-11-08T17:00:00	1	Precipitación	2
135172	7	Sololá	701	Sololá	4	Finca Santa Victoria	10	Octubre	2023-08-10T00:00:00	2024-11-08T17:00:00	8	Radiación solar	12
135173	7	Sololá	701	Sololá	4	Finca Santa Victoria	10	Octubre	2023-08-10T00:00:00	2024-11-08T18:00:00	2	Temperatura media	13.5
135174	7	Sololá	701	Sololá	4	Finca Santa Victoria	10	Octubre	2023-08-10T00:00:00	2024-11-08T18:00:00	4	Temperatura máxima	13.7
135175	7	Sololá	701	Sololá	4	Finca Santa Victoria	10	Octubre	2023-08-10T00:00:00	2024-11-08T18:00:00	3	Temperatura mínima	13.5
135176	7	Sololá	701	Sololá	4	Finca Santa Victoria	10	Octubre	2023-08-10T00:00:00	2024-11-08T18:00:00	5	Humedad	98
135177	7	Sololá	701	Sololá	4	Finca Santa Victoria	10	Octubre	2023-08-10T00:00:00	2024-11-08T18:00:00	6	Velocidad del viento	0
135178	7	Sololá	701	Sololá	4	Finca Santa Victoria	10	Octubre	2023-08-10T00:00:00	2024-11-08T18:00:00	7	Dirección del viento	0
135179	7	Sololá	701	Sololá	4	Finca Santa Victoria	10	Octubre	2023-08-10T00:00:00	2024-11-08T18:00:00	1	Precipitación	0
135180	7	Sololá	701	Sololá	4	Finca Santa Victoria	10	Octubre	2023-08-10T00:00:00	2024-11-08T18:00:00	8	Radiación solar	2
135181	7	Sololá	701	Sololá	4	Finca Santa Victoria	10	Octubre	2023-08-10T00:00:00	2024-11-08T19:00:00	2	Temperatura media	13.1
135182	7	Sololá	701	Sololá	4	Finca Santa Victoria	10	Octubre	2023-08-10T00:00:00	2024-11-08T19:00:00	4	Temperatura máxima	13.5
135183	7	Sololá	701	Sololá	4	Finca Santa Victoria	10	Octubre	2023-08-10T00:00:00	2024-11-08T19:00:00	3	Temperatura mínima	13.1
135184	7	Sololá	701	Sololá	4	Finca Santa Victoria	10	Octubre	2023-08-10T00:00:00	2024-11-08T19:00:00	5	Humedad	98
135185	7	Sololá	701	Sololá	4	Finca Santa Victoria	10	Octubre	2023-08-10T00:00:00	2024-11-08T19:00:00	6	Velocidad del viento	0
135186	7	Sololá	701	Sololá	4	Finca Santa Victoria	10	Octubre	2023-08-10T00:00:00	2024-11-08T19:00:00	7	Dirección del viento	0
135187	7	Sololá	701	Sololá	4	Finca Santa Victoria	10	Octubre	2023-08-10T00:00:00	2024-11-08T19:00:00	1	Precipitación	0
135188	7	Sololá	701	Sololá	4	Finca Santa Victoria	10	Octubre	2023-08-10T00:00:00	2024-11-08T19:00:00	8	Radiación solar	0
135189	7	Sololá	701	Sololá	4	Finca Santa Victoria	10	Octubre	2023-08-10T00:00:00	2024-11-08T20:00:00	2	Temperatura media	12.9
135190	7	Sololá	701	Sololá	4	Finca Santa Victoria	10	Octubre	2023-08-10T00:00:00	2024-11-08T20:00:00	4	Temperatura máxima	13.1
135191	7	Sololá	701	Sololá	4	Finca Santa Victoria	10	Octubre	2023-08-10T00:00:00	2024-11-08T20:00:00	3	Temperatura mínima	12.9
135192	7	Sololá	701	Sololá	4	Finca Santa Victoria	10	Octubre	2023-08-10T00:00:00	2024-11-08T20:00:00	5	Humedad	98
135193	7	Sololá	701	Sololá	4	Finca Santa Victoria	10	Octubre	2023-08-10T00:00:00	2024-11-08T20:00:00	6	Velocidad del viento	0
135194	7	Sololá	701	Sololá	4	Finca Santa Victoria	10	Octubre	2023-08-10T00:00:00	2024-11-08T20:00:00	7	Dirección del viento	0
135195	7	Sololá	701	Sololá	4	Finca Santa Victoria	10	Octubre	2023-08-10T00:00:00	2024-11-08T20:00:00	1	Precipitación	0
135196	7	Sololá	701	Sololá	4	Finca Santa Victoria	10	Octubre	2023-08-10T00:00:00	2024-11-08T20:00:00	8	Radiación solar	0
135197	7	Sololá	701	Sololá	4	Finca Santa Victoria	10	Octubre	2023-08-10T00:00:00	2024-11-08T21:00:00	2	Temperatura media	12.8
135198	7	Sololá	701	Sololá	4	Finca Santa Victoria	10	Octubre	2023-08-10T00:00:00	2024-11-08T21:00:00	4	Temperatura máxima	13
135199	7	Sololá	701	Sololá	4	Finca Santa Victoria	10	Octubre	2023-08-10T00:00:00	2024-11-08T21:00:00	3	Temperatura mínima	12.8
135200	7	Sololá	701	Sololá	4	Finca Santa Victoria	10	Octubre	2023-08-10T00:00:00	2024-11-08T21:00:00	5	Humedad	98
135201	7	Sololá	701	Sololá	4	Finca Santa Victoria	10	Octubre	2023-08-10T00:00:00	2024-11-08T21:00:00	6	Velocidad del viento	0
135202	7	Sololá	701	Sololá	4	Finca Santa Victoria	10	Octubre	2023-08-10T00:00:00	2024-11-08T21:00:00	7	Dirección del viento	0
135203	7	Sololá	701	Sololá	4	Finca Santa Victoria	10	Octubre	2023-08-10T00:00:00	2024-11-08T21:00:00	1	Precipitación	0
135204	7	Sololá	701	Sololá	4	Finca Santa Victoria	10	Octubre	2023-08-10T00:00:00	2024-11-08T21:00:00	8	Radiación solar	0
135205	7	Sololá	701	Sololá	4	Finca Santa Victoria	10	Octubre	2023-08-10T00:00:00	2024-11-08T22:00:00	2	Temperatura media	12.8
135206	7	Sololá	701	Sololá	4	Finca Santa Victoria	10	Octubre	2023-08-10T00:00:00	2024-11-08T22:00:00	4	Temperatura máxima	12.8
135207	7	Sololá	701	Sololá	4	Finca Santa Victoria	10	Octubre	2023-08-10T00:00:00	2024-11-08T22:00:00	3	Temperatura mínima	12.6
135208	7	Sololá	701	Sololá	4	Finca Santa Victoria	10	Octubre	2023-08-10T00:00:00	2024-11-08T22:00:00	5	Humedad	99
135209	7	Sololá	701	Sololá	4	Finca Santa Victoria	10	Octubre	2023-08-10T00:00:00	2024-11-08T22:00:00	6	Velocidad del viento	0
135210	7	Sololá	701	Sololá	4	Finca Santa Victoria	10	Octubre	2023-08-10T00:00:00	2024-11-08T22:00:00	7	Dirección del viento	0
135211	7	Sololá	701	Sololá	4	Finca Santa Victoria	10	Octubre	2023-08-10T00:00:00	2024-11-08T22:00:00	1	Precipitación	0
135212	7	Sololá	701	Sololá	4	Finca Santa Victoria	10	Octubre	2023-08-10T00:00:00	2024-11-08T22:00:00	8	Radiación solar	0
135213	7	Sololá	701	Sololá	4	Finca Santa Victoria	10	Octubre	2023-08-10T00:00:00	2024-11-08T23:00:00	2	Temperatura media	12.7
135214	7	Sololá	701	Sololá	4	Finca Santa Victoria	10	Octubre	2023-08-10T00:00:00	2024-11-08T23:00:00	4	Temperatura máxima	12.9
135215	7	Sololá	701	Sololá	4	Finca Santa Victoria	10	Octubre	2023-08-10T00:00:00	2024-11-08T23:00:00	3	Temperatura mínima	12.7
135216	7	Sololá	701	Sololá	4	Finca Santa Victoria	10	Octubre	2023-08-10T00:00:00	2024-11-08T23:00:00	5	Humedad	99
135217	7	Sololá	701	Sololá	4	Finca Santa Victoria	10	Octubre	2023-08-10T00:00:00	2024-11-08T23:00:00	6	Velocidad del viento	0
135218	7	Sololá	701	Sololá	4	Finca Santa Victoria	10	Octubre	2023-08-10T00:00:00	2024-11-08T23:00:00	7	Dirección del viento	0
135219	7	Sololá	701	Sololá	4	Finca Santa Victoria	10	Octubre	2023-08-10T00:00:00	2024-11-08T23:00:00	1	Precipitación	0
135220	7	Sololá	701	Sololá	4	Finca Santa Victoria	10	Octubre	2023-08-10T00:00:00	2024-11-08T23:00:00	8	Radiación solar	0
135221	7	Sololá	701	Sololá	4	Finca Santa Victoria	10	Octubre	2023-09-10T00:00:00	2024-11-08T00:00:00	2	Temperatura media	12.8
135222	7	Sololá	701	Sololá	4	Finca Santa Victoria	10	Octubre	2023-09-10T00:00:00	2024-11-08T00:00:00	4	Temperatura máxima	12.8
135223	7	Sololá	701	Sololá	4	Finca Santa Victoria	10	Octubre	2023-09-10T00:00:00	2024-11-08T00:00:00	3	Temperatura mínima	12.7
135224	7	Sololá	701	Sololá	4	Finca Santa Victoria	10	Octubre	2023-09-10T00:00:00	2024-11-08T00:00:00	5	Humedad	99
135225	7	Sololá	701	Sololá	4	Finca Santa Victoria	10	Octubre	2023-09-10T00:00:00	2024-11-08T00:00:00	6	Velocidad del viento	0
135226	7	Sololá	701	Sololá	4	Finca Santa Victoria	10	Octubre	2023-09-10T00:00:00	2024-11-08T00:00:00	7	Dirección del viento	0
135227	7	Sololá	701	Sololá	4	Finca Santa Victoria	10	Octubre	2023-09-10T00:00:00	2024-11-08T00:00:00	1	Precipitación	0
135228	7	Sololá	701	Sololá	4	Finca Santa Victoria	10	Octubre	2023-09-10T00:00:00	2024-11-08T00:00:00	8	Radiación solar	0
135229	7	Sololá	701	Sololá	4	Finca Santa Victoria	10	Octubre	2023-09-10T00:00:00	2024-11-08T01:00:00	2	Temperatura media	12.8
135230	7	Sololá	701	Sololá	4	Finca Santa Victoria	10	Octubre	2023-09-10T00:00:00	2024-11-08T01:00:00	4	Temperatura máxima	12.8
135231	7	Sololá	701	Sololá	4	Finca Santa Victoria	10	Octubre	2023-09-10T00:00:00	2024-11-08T01:00:00	3	Temperatura mínima	12.8
135232	7	Sololá	701	Sololá	4	Finca Santa Victoria	10	Octubre	2023-09-10T00:00:00	2024-11-08T01:00:00	5	Humedad	99
135233	7	Sololá	701	Sololá	4	Finca Santa Victoria	10	Octubre	2023-09-10T00:00:00	2024-11-08T01:00:00	6	Velocidad del viento	1.6
135234	7	Sololá	701	Sololá	4	Finca Santa Victoria	10	Octubre	2023-09-10T00:00:00	2024-11-08T01:00:00	7	Dirección del viento	1.61
135235	7	Sololá	701	Sololá	4	Finca Santa Victoria	10	Octubre	2023-09-10T00:00:00	2024-11-08T01:00:00	1	Precipitación	0.2
135236	7	Sololá	701	Sololá	4	Finca Santa Victoria	10	Octubre	2023-09-10T00:00:00	2024-11-08T01:00:00	8	Radiación solar	0
135237	7	Sololá	701	Sololá	4	Finca Santa Victoria	10	Octubre	2023-09-10T00:00:00	2024-11-08T02:00:00	2	Temperatura media	12.9
135238	7	Sololá	701	Sololá	4	Finca Santa Victoria	10	Octubre	2023-09-10T00:00:00	2024-11-08T02:00:00	4	Temperatura máxima	13.1
135239	7	Sololá	701	Sololá	4	Finca Santa Victoria	10	Octubre	2023-09-10T00:00:00	2024-11-08T02:00:00	3	Temperatura mínima	12.8
135240	7	Sololá	701	Sololá	4	Finca Santa Victoria	10	Octubre	2023-09-10T00:00:00	2024-11-08T02:00:00	5	Humedad	99
135241	7	Sololá	701	Sololá	4	Finca Santa Victoria	10	Octubre	2023-09-10T00:00:00	2024-11-08T02:00:00	6	Velocidad del viento	3.2
135242	7	Sololá	701	Sololá	4	Finca Santa Victoria	10	Octubre	2023-09-10T00:00:00	2024-11-08T02:00:00	7	Dirección del viento	3.22
135243	7	Sololá	701	Sololá	4	Finca Santa Victoria	10	Octubre	2023-09-10T00:00:00	2024-11-08T02:00:00	1	Precipitación	1
135244	7	Sololá	701	Sololá	4	Finca Santa Victoria	10	Octubre	2023-09-10T00:00:00	2024-11-08T02:00:00	8	Radiación solar	0
135245	7	Sololá	701	Sololá	4	Finca Santa Victoria	10	Octubre	2023-09-10T00:00:00	2024-11-08T03:00:00	2	Temperatura media	13
135246	7	Sololá	701	Sololá	4	Finca Santa Victoria	10	Octubre	2023-09-10T00:00:00	2024-11-08T03:00:00	4	Temperatura máxima	13.1
135247	7	Sololá	701	Sololá	4	Finca Santa Victoria	10	Octubre	2023-09-10T00:00:00	2024-11-08T03:00:00	3	Temperatura mínima	12.9
135248	7	Sololá	701	Sololá	4	Finca Santa Victoria	10	Octubre	2023-09-10T00:00:00	2024-11-08T03:00:00	5	Humedad	99
135249	7	Sololá	701	Sololá	4	Finca Santa Victoria	10	Octubre	2023-09-10T00:00:00	2024-11-08T03:00:00	6	Velocidad del viento	3.2
135250	7	Sololá	701	Sololá	4	Finca Santa Victoria	10	Octubre	2023-09-10T00:00:00	2024-11-08T03:00:00	7	Dirección del viento	3.22
135251	7	Sololá	701	Sololá	4	Finca Santa Victoria	10	Octubre	2023-09-10T00:00:00	2024-11-08T03:00:00	1	Precipitación	4.8
135252	7	Sololá	701	Sololá	4	Finca Santa Victoria	10	Octubre	2023-09-10T00:00:00	2024-11-08T03:00:00	8	Radiación solar	0
135253	7	Sololá	701	Sololá	4	Finca Santa Victoria	10	Octubre	2023-09-10T00:00:00	2024-11-08T04:00:00	2	Temperatura media	13.1
135254	7	Sololá	701	Sololá	4	Finca Santa Victoria	10	Octubre	2023-09-10T00:00:00	2024-11-08T04:00:00	4	Temperatura máxima	13.2
135255	7	Sololá	701	Sololá	4	Finca Santa Victoria	10	Octubre	2023-09-10T00:00:00	2024-11-08T04:00:00	3	Temperatura mínima	13
135256	7	Sololá	701	Sololá	4	Finca Santa Victoria	10	Octubre	2023-09-10T00:00:00	2024-11-08T04:00:00	5	Humedad	99
135257	7	Sololá	701	Sololá	4	Finca Santa Victoria	10	Octubre	2023-09-10T00:00:00	2024-11-08T04:00:00	6	Velocidad del viento	3.2
135258	7	Sololá	701	Sololá	4	Finca Santa Victoria	10	Octubre	2023-09-10T00:00:00	2024-11-08T04:00:00	7	Dirección del viento	3.22
135259	7	Sololá	701	Sololá	4	Finca Santa Victoria	10	Octubre	2023-09-10T00:00:00	2024-11-08T04:00:00	1	Precipitación	2.6
135260	7	Sololá	701	Sololá	4	Finca Santa Victoria	10	Octubre	2023-09-10T00:00:00	2024-11-08T04:00:00	8	Radiación solar	0
135261	7	Sololá	701	Sololá	4	Finca Santa Victoria	10	Octubre	2023-09-10T00:00:00	2024-11-08T05:00:00	2	Temperatura media	13.2
135262	7	Sololá	701	Sololá	4	Finca Santa Victoria	10	Octubre	2023-09-10T00:00:00	2024-11-08T05:00:00	4	Temperatura máxima	13.2
135263	7	Sololá	701	Sololá	4	Finca Santa Victoria	10	Octubre	2023-09-10T00:00:00	2024-11-08T05:00:00	3	Temperatura mínima	13.1
135264	7	Sololá	701	Sololá	4	Finca Santa Victoria	10	Octubre	2023-09-10T00:00:00	2024-11-08T05:00:00	5	Humedad	99
135265	7	Sololá	701	Sololá	4	Finca Santa Victoria	10	Octubre	2023-09-10T00:00:00	2024-11-08T05:00:00	6	Velocidad del viento	4.8
135266	7	Sololá	701	Sololá	4	Finca Santa Victoria	10	Octubre	2023-09-10T00:00:00	2024-11-08T05:00:00	7	Dirección del viento	4.83
135267	7	Sololá	701	Sololá	4	Finca Santa Victoria	10	Octubre	2023-09-10T00:00:00	2024-11-08T05:00:00	1	Precipitación	0.4
135268	7	Sololá	701	Sololá	4	Finca Santa Victoria	10	Octubre	2023-09-10T00:00:00	2024-11-08T05:00:00	8	Radiación solar	0
135269	7	Sololá	701	Sololá	4	Finca Santa Victoria	10	Octubre	2023-09-10T00:00:00	2024-11-08T06:00:00	2	Temperatura media	13.1
135270	7	Sololá	701	Sololá	4	Finca Santa Victoria	10	Octubre	2023-09-10T00:00:00	2024-11-08T06:00:00	4	Temperatura máxima	13.2
135271	7	Sololá	701	Sololá	4	Finca Santa Victoria	10	Octubre	2023-09-10T00:00:00	2024-11-08T06:00:00	3	Temperatura mínima	13
135272	7	Sololá	701	Sololá	4	Finca Santa Victoria	10	Octubre	2023-09-10T00:00:00	2024-11-08T06:00:00	5	Humedad	99
135273	7	Sololá	701	Sololá	4	Finca Santa Victoria	10	Octubre	2023-09-10T00:00:00	2024-11-08T06:00:00	6	Velocidad del viento	4.8
135274	7	Sololá	701	Sololá	4	Finca Santa Victoria	10	Octubre	2023-09-10T00:00:00	2024-11-08T06:00:00	7	Dirección del viento	4.83
135275	7	Sololá	701	Sololá	4	Finca Santa Victoria	10	Octubre	2023-09-10T00:00:00	2024-11-08T06:00:00	1	Precipitación	0
135276	7	Sololá	701	Sololá	4	Finca Santa Victoria	10	Octubre	2023-09-10T00:00:00	2024-11-08T06:00:00	8	Radiación solar	31
135277	7	Sololá	701	Sololá	4	Finca Santa Victoria	10	Octubre	2023-09-10T00:00:00	2024-11-08T07:00:00	2	Temperatura media	13.2
135278	7	Sololá	701	Sololá	4	Finca Santa Victoria	10	Octubre	2023-09-10T00:00:00	2024-11-08T07:00:00	4	Temperatura máxima	13.2
135279	7	Sololá	701	Sololá	4	Finca Santa Victoria	10	Octubre	2023-09-10T00:00:00	2024-11-08T07:00:00	3	Temperatura mínima	12.9
135280	7	Sololá	701	Sololá	4	Finca Santa Victoria	10	Octubre	2023-09-10T00:00:00	2024-11-08T07:00:00	5	Humedad	99
135281	7	Sololá	701	Sololá	4	Finca Santa Victoria	10	Octubre	2023-09-10T00:00:00	2024-11-08T07:00:00	6	Velocidad del viento	3.2
135282	7	Sololá	701	Sololá	4	Finca Santa Victoria	10	Octubre	2023-09-10T00:00:00	2024-11-08T07:00:00	7	Dirección del viento	3.22
135283	7	Sololá	701	Sololá	4	Finca Santa Victoria	10	Octubre	2023-09-10T00:00:00	2024-11-08T07:00:00	1	Precipitación	1.8
135284	7	Sololá	701	Sololá	4	Finca Santa Victoria	10	Octubre	2023-09-10T00:00:00	2024-11-08T07:00:00	8	Radiación solar	56
135285	7	Sololá	701	Sololá	4	Finca Santa Victoria	10	Octubre	2023-09-10T00:00:00	2024-11-08T08:00:00	2	Temperatura media	13.4
135286	7	Sololá	701	Sololá	4	Finca Santa Victoria	10	Octubre	2023-09-10T00:00:00	2024-11-08T08:00:00	4	Temperatura máxima	13.6
135287	7	Sololá	701	Sololá	4	Finca Santa Victoria	10	Octubre	2023-09-10T00:00:00	2024-11-08T08:00:00	3	Temperatura mínima	13.2
135288	7	Sololá	701	Sololá	4	Finca Santa Victoria	10	Octubre	2023-09-10T00:00:00	2024-11-08T08:00:00	5	Humedad	99
135289	7	Sololá	701	Sololá	4	Finca Santa Victoria	10	Octubre	2023-09-10T00:00:00	2024-11-08T08:00:00	6	Velocidad del viento	4.8
135290	7	Sololá	701	Sololá	4	Finca Santa Victoria	10	Octubre	2023-09-10T00:00:00	2024-11-08T08:00:00	7	Dirección del viento	4.83
135291	7	Sololá	701	Sololá	4	Finca Santa Victoria	10	Octubre	2023-09-10T00:00:00	2024-11-08T08:00:00	1	Precipitación	0.8
135292	7	Sololá	701	Sololá	4	Finca Santa Victoria	10	Octubre	2023-09-10T00:00:00	2024-11-08T08:00:00	8	Radiación solar	72
135293	7	Sololá	701	Sololá	4	Finca Santa Victoria	10	Octubre	2023-09-10T00:00:00	2024-11-08T09:00:00	2	Temperatura media	13.7
135294	7	Sololá	701	Sololá	4	Finca Santa Victoria	10	Octubre	2023-09-10T00:00:00	2024-11-08T09:00:00	4	Temperatura máxima	13.7
135295	7	Sololá	701	Sololá	4	Finca Santa Victoria	10	Octubre	2023-09-10T00:00:00	2024-11-08T09:00:00	3	Temperatura mínima	13.4
135296	7	Sololá	701	Sololá	4	Finca Santa Victoria	10	Octubre	2023-09-10T00:00:00	2024-11-08T09:00:00	5	Humedad	99
135297	7	Sololá	701	Sololá	4	Finca Santa Victoria	10	Octubre	2023-09-10T00:00:00	2024-11-08T09:00:00	6	Velocidad del viento	3.2
135298	7	Sololá	701	Sololá	4	Finca Santa Victoria	10	Octubre	2023-09-10T00:00:00	2024-11-08T09:00:00	7	Dirección del viento	3.22
135299	7	Sololá	701	Sololá	4	Finca Santa Victoria	10	Octubre	2023-09-10T00:00:00	2024-11-08T09:00:00	1	Precipitación	1.4
135300	7	Sololá	701	Sololá	4	Finca Santa Victoria	10	Octubre	2023-09-10T00:00:00	2024-11-08T09:00:00	8	Radiación solar	95
135301	7	Sololá	701	Sololá	4	Finca Santa Victoria	10	Octubre	2023-09-10T00:00:00	2024-11-08T10:00:00	2	Temperatura media	14
135302	7	Sololá	701	Sololá	4	Finca Santa Victoria	10	Octubre	2023-09-10T00:00:00	2024-11-08T10:00:00	4	Temperatura máxima	14.1
135303	7	Sololá	701	Sololá	4	Finca Santa Victoria	10	Octubre	2023-09-10T00:00:00	2024-11-08T10:00:00	3	Temperatura mínima	13.7
135304	7	Sololá	701	Sololá	4	Finca Santa Victoria	10	Octubre	2023-09-10T00:00:00	2024-11-08T10:00:00	5	Humedad	99
135305	7	Sololá	701	Sololá	4	Finca Santa Victoria	10	Octubre	2023-09-10T00:00:00	2024-11-08T10:00:00	6	Velocidad del viento	4.8
135306	7	Sololá	701	Sololá	4	Finca Santa Victoria	10	Octubre	2023-09-10T00:00:00	2024-11-08T10:00:00	7	Dirección del viento	4.83
135307	7	Sololá	701	Sololá	4	Finca Santa Victoria	10	Octubre	2023-09-10T00:00:00	2024-11-08T10:00:00	1	Precipitación	0.2
135308	7	Sololá	701	Sololá	4	Finca Santa Victoria	10	Octubre	2023-09-10T00:00:00	2024-11-08T10:00:00	8	Radiación solar	148
135309	7	Sololá	701	Sololá	4	Finca Santa Victoria	10	Octubre	2023-09-10T00:00:00	2024-11-08T11:00:00	2	Temperatura media	14
135310	7	Sololá	701	Sololá	4	Finca Santa Victoria	10	Octubre	2023-09-10T00:00:00	2024-11-08T11:00:00	4	Temperatura máxima	14.2
135311	7	Sololá	701	Sololá	4	Finca Santa Victoria	10	Octubre	2023-09-10T00:00:00	2024-11-08T11:00:00	3	Temperatura mínima	13.8
135312	7	Sololá	701	Sololá	4	Finca Santa Victoria	10	Octubre	2023-09-10T00:00:00	2024-11-08T11:00:00	5	Humedad	99
135313	7	Sololá	701	Sololá	4	Finca Santa Victoria	10	Octubre	2023-09-10T00:00:00	2024-11-08T11:00:00	6	Velocidad del viento	4.8
135314	7	Sololá	701	Sololá	4	Finca Santa Victoria	10	Octubre	2023-09-10T00:00:00	2024-11-08T11:00:00	7	Dirección del viento	4.83
135315	7	Sololá	701	Sololá	4	Finca Santa Victoria	10	Octubre	2023-09-10T00:00:00	2024-11-08T11:00:00	1	Precipitación	3.6
135316	7	Sololá	701	Sololá	4	Finca Santa Victoria	10	Octubre	2023-09-10T00:00:00	2024-11-08T11:00:00	8	Radiación solar	151
135317	7	Sololá	701	Sololá	4	Finca Santa Victoria	10	Octubre	2023-09-10T00:00:00	2024-11-08T12:00:00	2	Temperatura media	13.9
135318	7	Sololá	701	Sololá	4	Finca Santa Victoria	10	Octubre	2023-09-10T00:00:00	2024-11-08T12:00:00	4	Temperatura máxima	14.2
135319	7	Sololá	701	Sololá	4	Finca Santa Victoria	10	Octubre	2023-09-10T00:00:00	2024-11-08T12:00:00	3	Temperatura mínima	13.8
135320	7	Sololá	701	Sololá	4	Finca Santa Victoria	10	Octubre	2023-09-10T00:00:00	2024-11-08T12:00:00	5	Humedad	99
135321	7	Sololá	701	Sololá	4	Finca Santa Victoria	10	Octubre	2023-09-10T00:00:00	2024-11-08T12:00:00	6	Velocidad del viento	4.8
135322	7	Sololá	701	Sololá	4	Finca Santa Victoria	10	Octubre	2023-09-10T00:00:00	2024-11-08T12:00:00	7	Dirección del viento	4.83
135323	7	Sololá	701	Sololá	4	Finca Santa Victoria	10	Octubre	2023-09-10T00:00:00	2024-11-08T12:00:00	1	Precipitación	0.6
135324	7	Sololá	701	Sololá	4	Finca Santa Victoria	10	Octubre	2023-09-10T00:00:00	2024-11-08T12:00:00	8	Radiación solar	162
135325	7	Sololá	701	Sololá	4	Finca Santa Victoria	10	Octubre	2023-09-10T00:00:00	2024-11-08T13:00:00	2	Temperatura media	13.9
135326	7	Sololá	701	Sololá	4	Finca Santa Victoria	10	Octubre	2023-09-10T00:00:00	2024-11-08T13:00:00	4	Temperatura máxima	14.2
135327	7	Sololá	701	Sololá	4	Finca Santa Victoria	10	Octubre	2023-09-10T00:00:00	2024-11-08T13:00:00	3	Temperatura mínima	13.8
135328	7	Sololá	701	Sololá	4	Finca Santa Victoria	10	Octubre	2023-09-10T00:00:00	2024-11-08T13:00:00	5	Humedad	99
135329	7	Sololá	701	Sololá	4	Finca Santa Victoria	10	Octubre	2023-09-10T00:00:00	2024-11-08T13:00:00	6	Velocidad del viento	6.4
135330	7	Sololá	701	Sololá	4	Finca Santa Victoria	10	Octubre	2023-09-10T00:00:00	2024-11-08T13:00:00	7	Dirección del viento	6.44
135331	7	Sololá	701	Sololá	4	Finca Santa Victoria	10	Octubre	2023-09-10T00:00:00	2024-11-08T13:00:00	1	Precipitación	0.2
135332	7	Sololá	701	Sololá	4	Finca Santa Victoria	10	Octubre	2023-09-10T00:00:00	2024-11-08T13:00:00	8	Radiación solar	134
135333	7	Sololá	701	Sololá	4	Finca Santa Victoria	10	Octubre	2023-09-10T00:00:00	2024-11-08T14:00:00	2	Temperatura media	13.4
135334	7	Sololá	701	Sololá	4	Finca Santa Victoria	10	Octubre	2023-09-10T00:00:00	2024-11-08T14:00:00	4	Temperatura máxima	14
135335	7	Sololá	701	Sololá	4	Finca Santa Victoria	10	Octubre	2023-09-10T00:00:00	2024-11-08T14:00:00	3	Temperatura mínima	13.4
135336	7	Sololá	701	Sololá	4	Finca Santa Victoria	10	Octubre	2023-09-10T00:00:00	2024-11-08T14:00:00	5	Humedad	99
135337	7	Sololá	701	Sololá	4	Finca Santa Victoria	10	Octubre	2023-09-10T00:00:00	2024-11-08T14:00:00	6	Velocidad del viento	6.4
135338	7	Sololá	701	Sololá	4	Finca Santa Victoria	10	Octubre	2023-09-10T00:00:00	2024-11-08T14:00:00	7	Dirección del viento	6.44
135339	7	Sololá	701	Sololá	4	Finca Santa Victoria	10	Octubre	2023-09-10T00:00:00	2024-11-08T14:00:00	1	Precipitación	0.4
135340	7	Sololá	701	Sololá	4	Finca Santa Victoria	10	Octubre	2023-09-10T00:00:00	2024-11-08T14:00:00	8	Radiación solar	102
135341	7	Sololá	701	Sololá	4	Finca Santa Victoria	10	Octubre	2023-09-10T00:00:00	2024-11-08T15:00:00	2	Temperatura media	13.7
135342	7	Sololá	701	Sololá	4	Finca Santa Victoria	10	Octubre	2023-09-10T00:00:00	2024-11-08T15:00:00	4	Temperatura máxima	13.8
135343	7	Sololá	701	Sololá	4	Finca Santa Victoria	10	Octubre	2023-09-10T00:00:00	2024-11-08T15:00:00	3	Temperatura mínima	13.4
135344	7	Sololá	701	Sololá	4	Finca Santa Victoria	10	Octubre	2023-09-10T00:00:00	2024-11-08T15:00:00	5	Humedad	99
135345	7	Sololá	701	Sololá	4	Finca Santa Victoria	10	Octubre	2023-09-10T00:00:00	2024-11-08T15:00:00	6	Velocidad del viento	4.8
135346	7	Sololá	701	Sololá	4	Finca Santa Victoria	10	Octubre	2023-09-10T00:00:00	2024-11-08T15:00:00	7	Dirección del viento	4.83
135347	7	Sololá	701	Sololá	4	Finca Santa Victoria	10	Octubre	2023-09-10T00:00:00	2024-11-08T15:00:00	1	Precipitación	1.4
135348	7	Sololá	701	Sololá	4	Finca Santa Victoria	10	Octubre	2023-09-10T00:00:00	2024-11-08T15:00:00	8	Radiación solar	74
135349	7	Sololá	701	Sololá	4	Finca Santa Victoria	10	Octubre	2023-09-10T00:00:00	2024-11-08T16:00:00	2	Temperatura media	13.7
135350	7	Sololá	701	Sololá	4	Finca Santa Victoria	10	Octubre	2023-09-10T00:00:00	2024-11-08T16:00:00	4	Temperatura máxima	13.8
135351	7	Sololá	701	Sololá	4	Finca Santa Victoria	10	Octubre	2023-09-10T00:00:00	2024-11-08T16:00:00	3	Temperatura mínima	13.6
135352	7	Sololá	701	Sololá	4	Finca Santa Victoria	10	Octubre	2023-09-10T00:00:00	2024-11-08T16:00:00	5	Humedad	99
135353	7	Sololá	701	Sololá	4	Finca Santa Victoria	10	Octubre	2023-09-10T00:00:00	2024-11-08T16:00:00	6	Velocidad del viento	3.2
135354	7	Sololá	701	Sololá	4	Finca Santa Victoria	10	Octubre	2023-09-10T00:00:00	2024-11-08T16:00:00	7	Dirección del viento	3.22
135355	7	Sololá	701	Sololá	4	Finca Santa Victoria	10	Octubre	2023-09-10T00:00:00	2024-11-08T16:00:00	1	Precipitación	0
135356	7	Sololá	701	Sololá	4	Finca Santa Victoria	10	Octubre	2023-09-10T00:00:00	2024-11-08T16:00:00	8	Radiación solar	52
135357	7	Sololá	701	Sololá	4	Finca Santa Victoria	10	Octubre	2023-09-10T00:00:00	2024-11-08T17:00:00	2	Temperatura media	13.4
135358	7	Sololá	701	Sololá	4	Finca Santa Victoria	10	Octubre	2023-09-10T00:00:00	2024-11-08T17:00:00	4	Temperatura máxima	13.7
135359	7	Sololá	701	Sololá	4	Finca Santa Victoria	10	Octubre	2023-09-10T00:00:00	2024-11-08T17:00:00	3	Temperatura mínima	13.2
135360	7	Sololá	701	Sololá	4	Finca Santa Victoria	10	Octubre	2023-09-10T00:00:00	2024-11-08T17:00:00	5	Humedad	99
135361	7	Sololá	701	Sololá	4	Finca Santa Victoria	10	Octubre	2023-09-10T00:00:00	2024-11-08T17:00:00	6	Velocidad del viento	3.2
135362	7	Sololá	701	Sololá	4	Finca Santa Victoria	10	Octubre	2023-09-10T00:00:00	2024-11-08T17:00:00	7	Dirección del viento	3.22
135363	7	Sololá	701	Sololá	4	Finca Santa Victoria	10	Octubre	2023-09-10T00:00:00	2024-11-08T17:00:00	1	Precipitación	0
135364	7	Sololá	701	Sololá	4	Finca Santa Victoria	10	Octubre	2023-09-10T00:00:00	2024-11-08T17:00:00	8	Radiación solar	6
135365	7	Sololá	701	Sololá	4	Finca Santa Victoria	10	Octubre	2023-09-10T00:00:00	2024-11-08T18:00:00	2	Temperatura media	13.5
135366	7	Sololá	701	Sololá	4	Finca Santa Victoria	10	Octubre	2023-09-10T00:00:00	2024-11-08T18:00:00	4	Temperatura máxima	13.6
135367	7	Sololá	701	Sololá	4	Finca Santa Victoria	10	Octubre	2023-09-10T00:00:00	2024-11-08T18:00:00	3	Temperatura mínima	13.4
135368	7	Sololá	701	Sololá	4	Finca Santa Victoria	10	Octubre	2023-09-10T00:00:00	2024-11-08T18:00:00	5	Humedad	99
135369	7	Sololá	701	Sololá	4	Finca Santa Victoria	10	Octubre	2023-09-10T00:00:00	2024-11-08T18:00:00	6	Velocidad del viento	4.8
135370	7	Sololá	701	Sololá	4	Finca Santa Victoria	10	Octubre	2023-09-10T00:00:00	2024-11-08T18:00:00	7	Dirección del viento	4.83
135371	7	Sololá	701	Sololá	4	Finca Santa Victoria	10	Octubre	2023-09-10T00:00:00	2024-11-08T18:00:00	1	Precipitación	3.6
135372	7	Sololá	701	Sololá	4	Finca Santa Victoria	10	Octubre	2023-09-10T00:00:00	2024-11-08T18:00:00	8	Radiación solar	0
135373	7	Sololá	701	Sololá	4	Finca Santa Victoria	10	Octubre	2023-09-10T00:00:00	2024-11-08T19:00:00	2	Temperatura media	13.2
135374	7	Sololá	701	Sololá	4	Finca Santa Victoria	10	Octubre	2023-09-10T00:00:00	2024-11-08T19:00:00	4	Temperatura máxima	13.8
135375	7	Sololá	701	Sololá	4	Finca Santa Victoria	10	Octubre	2023-09-10T00:00:00	2024-11-08T19:00:00	3	Temperatura mínima	13.2
135376	7	Sololá	701	Sololá	4	Finca Santa Victoria	10	Octubre	2023-09-10T00:00:00	2024-11-08T19:00:00	5	Humedad	99
135377	7	Sololá	701	Sololá	4	Finca Santa Victoria	10	Octubre	2023-09-10T00:00:00	2024-11-08T19:00:00	6	Velocidad del viento	4.8
135378	7	Sololá	701	Sololá	4	Finca Santa Victoria	10	Octubre	2023-09-10T00:00:00	2024-11-08T19:00:00	7	Dirección del viento	4.83
135379	7	Sololá	701	Sololá	4	Finca Santa Victoria	10	Octubre	2023-09-10T00:00:00	2024-11-08T19:00:00	1	Precipitación	2
135380	7	Sololá	701	Sololá	4	Finca Santa Victoria	10	Octubre	2023-09-10T00:00:00	2024-11-08T19:00:00	8	Radiación solar	0
135381	7	Sololá	701	Sololá	4	Finca Santa Victoria	10	Octubre	2023-09-10T00:00:00	2024-11-08T20:00:00	2	Temperatura media	12.4
135382	7	Sololá	701	Sololá	4	Finca Santa Victoria	10	Octubre	2023-09-10T00:00:00	2024-11-08T20:00:00	4	Temperatura máxima	13.2
135383	7	Sololá	701	Sololá	4	Finca Santa Victoria	10	Octubre	2023-09-10T00:00:00	2024-11-08T20:00:00	3	Temperatura mínima	12.4
135384	7	Sololá	701	Sololá	4	Finca Santa Victoria	10	Octubre	2023-09-10T00:00:00	2024-11-08T20:00:00	5	Humedad	99
135385	7	Sololá	701	Sololá	4	Finca Santa Victoria	10	Octubre	2023-09-10T00:00:00	2024-11-08T20:00:00	6	Velocidad del viento	3.2
135386	7	Sololá	701	Sololá	4	Finca Santa Victoria	10	Octubre	2023-09-10T00:00:00	2024-11-08T20:00:00	7	Dirección del viento	3.22
135387	7	Sololá	701	Sololá	4	Finca Santa Victoria	10	Octubre	2023-09-10T00:00:00	2024-11-08T20:00:00	1	Precipitación	0.6
135388	7	Sololá	701	Sololá	4	Finca Santa Victoria	10	Octubre	2023-09-10T00:00:00	2024-11-08T20:00:00	8	Radiación solar	0
135389	7	Sololá	701	Sololá	4	Finca Santa Victoria	10	Octubre	2023-09-10T00:00:00	2024-11-08T21:00:00	2	Temperatura media	12.6
135390	7	Sololá	701	Sololá	4	Finca Santa Victoria	10	Octubre	2023-09-10T00:00:00	2024-11-08T21:00:00	4	Temperatura máxima	12.6
135391	7	Sololá	701	Sololá	4	Finca Santa Victoria	10	Octubre	2023-09-10T00:00:00	2024-11-08T21:00:00	3	Temperatura mínima	12.4
135392	7	Sololá	701	Sololá	4	Finca Santa Victoria	10	Octubre	2023-09-10T00:00:00	2024-11-08T21:00:00	5	Humedad	99
135393	7	Sololá	701	Sololá	4	Finca Santa Victoria	10	Octubre	2023-09-10T00:00:00	2024-11-08T21:00:00	6	Velocidad del viento	1.6
135394	7	Sololá	701	Sololá	4	Finca Santa Victoria	10	Octubre	2023-09-10T00:00:00	2024-11-08T21:00:00	7	Dirección del viento	1.61
135395	7	Sololá	701	Sololá	4	Finca Santa Victoria	10	Octubre	2023-09-10T00:00:00	2024-11-08T21:00:00	1	Precipitación	0.2
135396	7	Sololá	701	Sololá	4	Finca Santa Victoria	10	Octubre	2023-09-10T00:00:00	2024-11-08T21:00:00	8	Radiación solar	0
135397	7	Sololá	701	Sololá	4	Finca Santa Victoria	10	Octubre	2023-09-10T00:00:00	2024-11-08T22:00:00	2	Temperatura media	12.2
135398	7	Sololá	701	Sololá	4	Finca Santa Victoria	10	Octubre	2023-09-10T00:00:00	2024-11-08T22:00:00	4	Temperatura máxima	12.6
135399	7	Sololá	701	Sololá	4	Finca Santa Victoria	10	Octubre	2023-09-10T00:00:00	2024-11-08T22:00:00	3	Temperatura mínima	12.2
135400	7	Sololá	701	Sololá	4	Finca Santa Victoria	10	Octubre	2023-09-10T00:00:00	2024-11-08T22:00:00	5	Humedad	99
135401	7	Sololá	701	Sololá	4	Finca Santa Victoria	10	Octubre	2023-09-10T00:00:00	2024-11-08T22:00:00	6	Velocidad del viento	0
135402	7	Sololá	701	Sololá	4	Finca Santa Victoria	10	Octubre	2023-09-10T00:00:00	2024-11-08T22:00:00	7	Dirección del viento	0
135403	7	Sololá	701	Sololá	4	Finca Santa Victoria	10	Octubre	2023-09-10T00:00:00	2024-11-08T22:00:00	1	Precipitación	0
135404	7	Sololá	701	Sololá	4	Finca Santa Victoria	10	Octubre	2023-09-10T00:00:00	2024-11-08T22:00:00	8	Radiación solar	0
135405	7	Sololá	701	Sololá	4	Finca Santa Victoria	10	Octubre	2023-09-10T00:00:00	2024-11-08T23:00:00	2	Temperatura media	12.4
135406	7	Sololá	701	Sololá	4	Finca Santa Victoria	10	Octubre	2023-09-10T00:00:00	2024-11-08T23:00:00	4	Temperatura máxima	12.4
135407	7	Sololá	701	Sololá	4	Finca Santa Victoria	10	Octubre	2023-09-10T00:00:00	2024-11-08T23:00:00	3	Temperatura mínima	12.1
135408	7	Sololá	701	Sololá	4	Finca Santa Victoria	10	Octubre	2023-09-10T00:00:00	2024-11-08T23:00:00	5	Humedad	99
135409	7	Sololá	701	Sololá	4	Finca Santa Victoria	10	Octubre	2023-09-10T00:00:00	2024-11-08T23:00:00	6	Velocidad del viento	1.6
135410	7	Sololá	701	Sololá	4	Finca Santa Victoria	10	Octubre	2023-09-10T00:00:00	2024-11-08T23:00:00	7	Dirección del viento	1.61
135411	7	Sololá	701	Sololá	4	Finca Santa Victoria	10	Octubre	2023-09-10T00:00:00	2024-11-08T23:00:00	1	Precipitación	0
135412	7	Sololá	701	Sololá	4	Finca Santa Victoria	10	Octubre	2023-09-10T00:00:00	2024-11-08T23:00:00	8	Radiación solar	0
135413	7	Sololá	701	Sololá	4	Finca Santa Victoria	10	Octubre	2023-10-10T00:00:00	2024-11-08T00:00:00	2	Temperatura media	12.4
135414	7	Sololá	701	Sololá	4	Finca Santa Victoria	10	Octubre	2023-10-10T00:00:00	2024-11-08T00:00:00	4	Temperatura máxima	12.5
135415	7	Sololá	701	Sololá	4	Finca Santa Victoria	10	Octubre	2023-10-10T00:00:00	2024-11-08T00:00:00	3	Temperatura mínima	12.3
135416	7	Sololá	701	Sololá	4	Finca Santa Victoria	10	Octubre	2023-10-10T00:00:00	2024-11-08T00:00:00	5	Humedad	99
135417	7	Sololá	701	Sololá	4	Finca Santa Victoria	10	Octubre	2023-10-10T00:00:00	2024-11-08T00:00:00	6	Velocidad del viento	1.6
135418	7	Sololá	701	Sololá	4	Finca Santa Victoria	10	Octubre	2023-10-10T00:00:00	2024-11-08T00:00:00	7	Dirección del viento	1.61
135419	7	Sololá	701	Sololá	4	Finca Santa Victoria	10	Octubre	2023-10-10T00:00:00	2024-11-08T00:00:00	1	Precipitación	0.2
135420	7	Sololá	701	Sololá	4	Finca Santa Victoria	10	Octubre	2023-10-10T00:00:00	2024-11-08T00:00:00	8	Radiación solar	0
135421	7	Sololá	701	Sololá	4	Finca Santa Victoria	10	Octubre	2023-10-10T00:00:00	2024-11-08T01:00:00	2	Temperatura media	12.4
135422	7	Sololá	701	Sololá	4	Finca Santa Victoria	10	Octubre	2023-10-10T00:00:00	2024-11-08T01:00:00	4	Temperatura máxima	12.5
135423	7	Sololá	701	Sololá	4	Finca Santa Victoria	10	Octubre	2023-10-10T00:00:00	2024-11-08T01:00:00	3	Temperatura mínima	12.4
135424	7	Sololá	701	Sololá	4	Finca Santa Victoria	10	Octubre	2023-10-10T00:00:00	2024-11-08T01:00:00	5	Humedad	99
135425	7	Sololá	701	Sololá	4	Finca Santa Victoria	10	Octubre	2023-10-10T00:00:00	2024-11-08T01:00:00	6	Velocidad del viento	1.6
135426	7	Sololá	701	Sololá	4	Finca Santa Victoria	10	Octubre	2023-10-10T00:00:00	2024-11-08T01:00:00	7	Dirección del viento	1.61
135427	7	Sololá	701	Sololá	4	Finca Santa Victoria	10	Octubre	2023-10-10T00:00:00	2024-11-08T01:00:00	1	Precipitación	0.2
135428	7	Sololá	701	Sololá	4	Finca Santa Victoria	10	Octubre	2023-10-10T00:00:00	2024-11-08T01:00:00	8	Radiación solar	0
135429	7	Sololá	701	Sololá	4	Finca Santa Victoria	10	Octubre	2023-10-10T00:00:00	2024-11-08T02:00:00	2	Temperatura media	12.6
135430	7	Sololá	701	Sololá	4	Finca Santa Victoria	10	Octubre	2023-10-10T00:00:00	2024-11-08T02:00:00	4	Temperatura máxima	12.7
135431	7	Sololá	701	Sololá	4	Finca Santa Victoria	10	Octubre	2023-10-10T00:00:00	2024-11-08T02:00:00	3	Temperatura mínima	12.4
135432	7	Sololá	701	Sololá	4	Finca Santa Victoria	10	Octubre	2023-10-10T00:00:00	2024-11-08T02:00:00	5	Humedad	100
135433	7	Sololá	701	Sololá	4	Finca Santa Victoria	10	Octubre	2023-10-10T00:00:00	2024-11-08T02:00:00	6	Velocidad del viento	1.6
135434	7	Sololá	701	Sololá	4	Finca Santa Victoria	10	Octubre	2023-10-10T00:00:00	2024-11-08T02:00:00	7	Dirección del viento	1.61
135435	7	Sololá	701	Sololá	4	Finca Santa Victoria	10	Octubre	2023-10-10T00:00:00	2024-11-08T02:00:00	1	Precipitación	1.2
135436	7	Sololá	701	Sololá	4	Finca Santa Victoria	10	Octubre	2023-10-10T00:00:00	2024-11-08T02:00:00	8	Radiación solar	0
135437	7	Sololá	701	Sololá	4	Finca Santa Victoria	10	Octubre	2023-10-10T00:00:00	2024-11-08T03:00:00	2	Temperatura media	12.7
135438	7	Sololá	701	Sololá	4	Finca Santa Victoria	10	Octubre	2023-10-10T00:00:00	2024-11-08T03:00:00	4	Temperatura máxima	12.7
135439	7	Sololá	701	Sololá	4	Finca Santa Victoria	10	Octubre	2023-10-10T00:00:00	2024-11-08T03:00:00	3	Temperatura mínima	12.6
135440	7	Sololá	701	Sololá	4	Finca Santa Victoria	10	Octubre	2023-10-10T00:00:00	2024-11-08T03:00:00	5	Humedad	100
135441	7	Sololá	701	Sololá	4	Finca Santa Victoria	10	Octubre	2023-10-10T00:00:00	2024-11-08T03:00:00	6	Velocidad del viento	1.6
135442	7	Sololá	701	Sololá	4	Finca Santa Victoria	10	Octubre	2023-10-10T00:00:00	2024-11-08T03:00:00	7	Dirección del viento	1.61
135443	7	Sololá	701	Sololá	4	Finca Santa Victoria	10	Octubre	2023-10-10T00:00:00	2024-11-08T03:00:00	1	Precipitación	0.6
135444	7	Sololá	701	Sololá	4	Finca Santa Victoria	10	Octubre	2023-10-10T00:00:00	2024-11-08T03:00:00	8	Radiación solar	0
135445	7	Sololá	701	Sololá	4	Finca Santa Victoria	10	Octubre	2023-10-10T00:00:00	2024-11-08T04:00:00	2	Temperatura media	12.7
135446	7	Sololá	701	Sololá	4	Finca Santa Victoria	10	Octubre	2023-10-10T00:00:00	2024-11-08T04:00:00	4	Temperatura máxima	12.8
135447	7	Sololá	701	Sololá	4	Finca Santa Victoria	10	Octubre	2023-10-10T00:00:00	2024-11-08T04:00:00	3	Temperatura mínima	12.6
135448	7	Sololá	701	Sololá	4	Finca Santa Victoria	10	Octubre	2023-10-10T00:00:00	2024-11-08T04:00:00	5	Humedad	100
135449	7	Sololá	701	Sololá	4	Finca Santa Victoria	10	Octubre	2023-10-10T00:00:00	2024-11-08T04:00:00	6	Velocidad del viento	0
135450	7	Sololá	701	Sololá	4	Finca Santa Victoria	10	Octubre	2023-10-10T00:00:00	2024-11-08T04:00:00	7	Dirección del viento	0
135451	7	Sololá	701	Sololá	4	Finca Santa Victoria	10	Octubre	2023-10-10T00:00:00	2024-11-08T04:00:00	1	Precipitación	0.6
135452	7	Sololá	701	Sololá	4	Finca Santa Victoria	10	Octubre	2023-10-10T00:00:00	2024-11-08T04:00:00	8	Radiación solar	0
135453	7	Sololá	701	Sololá	4	Finca Santa Victoria	10	Octubre	2023-10-10T00:00:00	2024-11-08T05:00:00	2	Temperatura media	12.7
135454	7	Sololá	701	Sololá	4	Finca Santa Victoria	10	Octubre	2023-10-10T00:00:00	2024-11-08T05:00:00	4	Temperatura máxima	12.7
135455	7	Sololá	701	Sololá	4	Finca Santa Victoria	10	Octubre	2023-10-10T00:00:00	2024-11-08T05:00:00	3	Temperatura mínima	12.6
135456	7	Sololá	701	Sololá	4	Finca Santa Victoria	10	Octubre	2023-10-10T00:00:00	2024-11-08T05:00:00	5	Humedad	100
135457	7	Sololá	701	Sololá	4	Finca Santa Victoria	10	Octubre	2023-10-10T00:00:00	2024-11-08T05:00:00	6	Velocidad del viento	1.6
135458	7	Sololá	701	Sololá	4	Finca Santa Victoria	10	Octubre	2023-10-10T00:00:00	2024-11-08T05:00:00	7	Dirección del viento	1.61
135459	7	Sololá	701	Sololá	4	Finca Santa Victoria	10	Octubre	2023-10-10T00:00:00	2024-11-08T05:00:00	1	Precipitación	0
135460	7	Sololá	701	Sololá	4	Finca Santa Victoria	10	Octubre	2023-10-10T00:00:00	2024-11-08T05:00:00	8	Radiación solar	0
135461	7	Sololá	701	Sololá	4	Finca Santa Victoria	10	Octubre	2023-10-10T00:00:00	2024-11-08T06:00:00	2	Temperatura media	12.8
135462	7	Sololá	701	Sololá	4	Finca Santa Victoria	10	Octubre	2023-10-10T00:00:00	2024-11-08T06:00:00	4	Temperatura máxima	12.9
135463	7	Sololá	701	Sololá	4	Finca Santa Victoria	10	Octubre	2023-10-10T00:00:00	2024-11-08T06:00:00	3	Temperatura mínima	12.7
135464	7	Sololá	701	Sololá	4	Finca Santa Victoria	10	Octubre	2023-10-10T00:00:00	2024-11-08T06:00:00	5	Humedad	99
135465	7	Sololá	701	Sololá	4	Finca Santa Victoria	10	Octubre	2023-10-10T00:00:00	2024-11-08T06:00:00	6	Velocidad del viento	0
135466	7	Sololá	701	Sololá	4	Finca Santa Victoria	10	Octubre	2023-10-10T00:00:00	2024-11-08T06:00:00	7	Dirección del viento	0
135467	7	Sololá	701	Sololá	4	Finca Santa Victoria	10	Octubre	2023-10-10T00:00:00	2024-11-08T06:00:00	1	Precipitación	0.8
135468	7	Sololá	701	Sololá	4	Finca Santa Victoria	10	Octubre	2023-10-10T00:00:00	2024-11-08T06:00:00	8	Radiación solar	1
135469	7	Sololá	701	Sololá	4	Finca Santa Victoria	10	Octubre	2023-10-10T00:00:00	2024-11-08T07:00:00	2	Temperatura media	13.1
135470	7	Sololá	701	Sololá	4	Finca Santa Victoria	10	Octubre	2023-10-10T00:00:00	2024-11-08T07:00:00	4	Temperatura máxima	13.1
135471	7	Sololá	701	Sololá	4	Finca Santa Victoria	10	Octubre	2023-10-10T00:00:00	2024-11-08T07:00:00	3	Temperatura mínima	12.8
135472	7	Sololá	701	Sololá	4	Finca Santa Victoria	10	Octubre	2023-10-10T00:00:00	2024-11-08T07:00:00	5	Humedad	99
135473	7	Sololá	701	Sololá	4	Finca Santa Victoria	10	Octubre	2023-10-10T00:00:00	2024-11-08T07:00:00	6	Velocidad del viento	1.6
135474	7	Sololá	701	Sololá	4	Finca Santa Victoria	10	Octubre	2023-10-10T00:00:00	2024-11-08T07:00:00	7	Dirección del viento	1.61
135475	7	Sololá	701	Sololá	4	Finca Santa Victoria	10	Octubre	2023-10-10T00:00:00	2024-11-08T07:00:00	1	Precipitación	0.6
135476	7	Sololá	701	Sololá	4	Finca Santa Victoria	10	Octubre	2023-10-10T00:00:00	2024-11-08T07:00:00	8	Radiación solar	14
135477	7	Sololá	701	Sololá	4	Finca Santa Victoria	10	Octubre	2023-10-10T00:00:00	2024-11-08T08:00:00	2	Temperatura media	13
135478	7	Sololá	701	Sololá	4	Finca Santa Victoria	10	Octubre	2023-10-10T00:00:00	2024-11-08T08:00:00	4	Temperatura máxima	13.1
135479	7	Sololá	701	Sololá	4	Finca Santa Victoria	10	Octubre	2023-10-10T00:00:00	2024-11-08T08:00:00	3	Temperatura mínima	12.8
135480	7	Sololá	701	Sololá	4	Finca Santa Victoria	10	Octubre	2023-10-10T00:00:00	2024-11-08T08:00:00	5	Humedad	100
135481	7	Sololá	701	Sololá	4	Finca Santa Victoria	10	Octubre	2023-10-10T00:00:00	2024-11-08T08:00:00	6	Velocidad del viento	1.6
135482	7	Sololá	701	Sololá	4	Finca Santa Victoria	10	Octubre	2023-10-10T00:00:00	2024-11-08T08:00:00	7	Dirección del viento	1.61
135483	7	Sololá	701	Sololá	4	Finca Santa Victoria	10	Octubre	2023-10-10T00:00:00	2024-11-08T08:00:00	1	Precipitación	2.6
135484	7	Sololá	701	Sololá	4	Finca Santa Victoria	10	Octubre	2023-10-10T00:00:00	2024-11-08T08:00:00	8	Radiación solar	40
135485	7	Sololá	701	Sololá	4	Finca Santa Victoria	10	Octubre	2023-10-10T00:00:00	2024-11-08T09:00:00	2	Temperatura media	13.7
135486	7	Sololá	701	Sololá	4	Finca Santa Victoria	10	Octubre	2023-10-10T00:00:00	2024-11-08T09:00:00	4	Temperatura máxima	13.7
135487	7	Sololá	701	Sololá	4	Finca Santa Victoria	10	Octubre	2023-10-10T00:00:00	2024-11-08T09:00:00	3	Temperatura mínima	13
135488	7	Sololá	701	Sololá	4	Finca Santa Victoria	10	Octubre	2023-10-10T00:00:00	2024-11-08T09:00:00	5	Humedad	100
135489	7	Sololá	701	Sololá	4	Finca Santa Victoria	10	Octubre	2023-10-10T00:00:00	2024-11-08T09:00:00	6	Velocidad del viento	1.6
135490	7	Sololá	701	Sololá	4	Finca Santa Victoria	10	Octubre	2023-10-10T00:00:00	2024-11-08T09:00:00	7	Dirección del viento	1.61
135491	7	Sololá	701	Sololá	4	Finca Santa Victoria	10	Octubre	2023-10-10T00:00:00	2024-11-08T09:00:00	1	Precipitación	1.4
135492	7	Sololá	701	Sololá	4	Finca Santa Victoria	10	Octubre	2023-10-10T00:00:00	2024-11-08T09:00:00	8	Radiación solar	48
135493	7	Sololá	701	Sololá	4	Finca Santa Victoria	10	Octubre	2023-10-10T00:00:00	2024-11-08T10:00:00	2	Temperatura media	13.3
135494	7	Sololá	701	Sololá	4	Finca Santa Victoria	10	Octubre	2023-10-10T00:00:00	2024-11-08T10:00:00	4	Temperatura máxima	13.8
135495	7	Sololá	701	Sololá	4	Finca Santa Victoria	10	Octubre	2023-10-10T00:00:00	2024-11-08T10:00:00	3	Temperatura mínima	13.3
135496	7	Sololá	701	Sololá	4	Finca Santa Victoria	10	Octubre	2023-10-10T00:00:00	2024-11-08T10:00:00	5	Humedad	100
135497	7	Sololá	701	Sololá	4	Finca Santa Victoria	10	Octubre	2023-10-10T00:00:00	2024-11-08T10:00:00	6	Velocidad del viento	0
135498	7	Sololá	701	Sololá	4	Finca Santa Victoria	10	Octubre	2023-10-10T00:00:00	2024-11-08T10:00:00	7	Dirección del viento	0
135499	7	Sololá	701	Sololá	4	Finca Santa Victoria	10	Octubre	2023-10-10T00:00:00	2024-11-08T10:00:00	1	Precipitación	0.2
135500	7	Sololá	701	Sololá	4	Finca Santa Victoria	10	Octubre	2023-10-10T00:00:00	2024-11-08T10:00:00	8	Radiación solar	106
135501	7	Sololá	701	Sololá	4	Finca Santa Victoria	10	Octubre	2023-10-10T00:00:00	2024-11-08T11:00:00	2	Temperatura media	13.7
135502	7	Sololá	701	Sololá	4	Finca Santa Victoria	10	Octubre	2023-10-10T00:00:00	2024-11-08T11:00:00	4	Temperatura máxima	13.7
135503	7	Sololá	701	Sololá	4	Finca Santa Victoria	10	Octubre	2023-10-10T00:00:00	2024-11-08T11:00:00	3	Temperatura mínima	13.2
135504	7	Sololá	701	Sololá	4	Finca Santa Victoria	10	Octubre	2023-10-10T00:00:00	2024-11-08T11:00:00	5	Humedad	99
135505	7	Sololá	701	Sololá	4	Finca Santa Victoria	10	Octubre	2023-10-10T00:00:00	2024-11-08T11:00:00	6	Velocidad del viento	0
135506	7	Sololá	701	Sololá	4	Finca Santa Victoria	10	Octubre	2023-10-10T00:00:00	2024-11-08T11:00:00	7	Dirección del viento	0
135507	7	Sololá	701	Sololá	4	Finca Santa Victoria	10	Octubre	2023-10-10T00:00:00	2024-11-08T11:00:00	1	Precipitación	0.4
135508	7	Sololá	701	Sololá	4	Finca Santa Victoria	10	Octubre	2023-10-10T00:00:00	2024-11-08T11:00:00	8	Radiación solar	152
135509	7	Sololá	701	Sololá	4	Finca Santa Victoria	10	Octubre	2023-10-10T00:00:00	2024-11-08T12:00:00	2	Temperatura media	13.6
135510	7	Sololá	701	Sololá	4	Finca Santa Victoria	10	Octubre	2023-10-10T00:00:00	2024-11-08T12:00:00	4	Temperatura máxima	13.9
135511	7	Sololá	701	Sololá	4	Finca Santa Victoria	10	Octubre	2023-10-10T00:00:00	2024-11-08T12:00:00	3	Temperatura mínima	13.4
135512	7	Sololá	701	Sololá	4	Finca Santa Victoria	10	Octubre	2023-10-10T00:00:00	2024-11-08T12:00:00	5	Humedad	99
135513	7	Sololá	701	Sololá	4	Finca Santa Victoria	10	Octubre	2023-10-10T00:00:00	2024-11-08T12:00:00	6	Velocidad del viento	0
135514	7	Sololá	701	Sololá	4	Finca Santa Victoria	10	Octubre	2023-10-10T00:00:00	2024-11-08T12:00:00	7	Dirección del viento	0
135515	7	Sololá	701	Sololá	4	Finca Santa Victoria	10	Octubre	2023-10-10T00:00:00	2024-11-08T12:00:00	1	Precipitación	0
135516	7	Sololá	701	Sololá	4	Finca Santa Victoria	10	Octubre	2023-10-10T00:00:00	2024-11-08T12:00:00	8	Radiación solar	126
135517	7	Sololá	701	Sololá	4	Finca Santa Victoria	10	Octubre	2023-10-10T00:00:00	2024-11-08T13:00:00	2	Temperatura media	13.4
135518	7	Sololá	701	Sololá	4	Finca Santa Victoria	10	Octubre	2023-10-10T00:00:00	2024-11-08T13:00:00	4	Temperatura máxima	13.6
135519	7	Sololá	701	Sololá	4	Finca Santa Victoria	10	Octubre	2023-10-10T00:00:00	2024-11-08T13:00:00	3	Temperatura mínima	13.2
135520	7	Sololá	701	Sololá	4	Finca Santa Victoria	10	Octubre	2023-10-10T00:00:00	2024-11-08T13:00:00	5	Humedad	98
135521	7	Sololá	701	Sololá	4	Finca Santa Victoria	10	Octubre	2023-10-10T00:00:00	2024-11-08T13:00:00	6	Velocidad del viento	1.6
135522	7	Sololá	701	Sololá	4	Finca Santa Victoria	10	Octubre	2023-10-10T00:00:00	2024-11-08T13:00:00	7	Dirección del viento	1.61
135523	7	Sololá	701	Sololá	4	Finca Santa Victoria	10	Octubre	2023-10-10T00:00:00	2024-11-08T13:00:00	1	Precipitación	0
135524	7	Sololá	701	Sololá	4	Finca Santa Victoria	10	Octubre	2023-10-10T00:00:00	2024-11-08T13:00:00	8	Radiación solar	152
135525	7	Sololá	701	Sololá	4	Finca Santa Victoria	10	Octubre	2023-10-10T00:00:00	2024-11-08T14:00:00	2	Temperatura media	14.3
135526	7	Sololá	701	Sololá	4	Finca Santa Victoria	10	Octubre	2023-10-10T00:00:00	2024-11-08T14:00:00	4	Temperatura máxima	14.3
135527	7	Sololá	701	Sololá	4	Finca Santa Victoria	10	Octubre	2023-10-10T00:00:00	2024-11-08T14:00:00	3	Temperatura mínima	13.4
135528	7	Sololá	701	Sololá	4	Finca Santa Victoria	10	Octubre	2023-10-10T00:00:00	2024-11-08T14:00:00	5	Humedad	95
135529	7	Sololá	701	Sololá	4	Finca Santa Victoria	10	Octubre	2023-10-10T00:00:00	2024-11-08T14:00:00	6	Velocidad del viento	1.6
135530	7	Sololá	701	Sololá	4	Finca Santa Victoria	10	Octubre	2023-10-10T00:00:00	2024-11-08T14:00:00	7	Dirección del viento	1.61
135531	7	Sololá	701	Sololá	4	Finca Santa Victoria	10	Octubre	2023-10-10T00:00:00	2024-11-08T14:00:00	1	Precipitación	0
135532	7	Sololá	701	Sololá	4	Finca Santa Victoria	10	Octubre	2023-10-10T00:00:00	2024-11-08T14:00:00	8	Radiación solar	202
135533	7	Sololá	701	Sololá	4	Finca Santa Victoria	10	Octubre	2023-10-10T00:00:00	2024-11-08T15:00:00	2	Temperatura media	14.5
135534	7	Sololá	701	Sololá	4	Finca Santa Victoria	10	Octubre	2023-10-10T00:00:00	2024-11-08T15:00:00	4	Temperatura máxima	14.6
135535	7	Sololá	701	Sololá	4	Finca Santa Victoria	10	Octubre	2023-10-10T00:00:00	2024-11-08T15:00:00	3	Temperatura mínima	14.1
135536	7	Sololá	701	Sololá	4	Finca Santa Victoria	10	Octubre	2023-10-10T00:00:00	2024-11-08T15:00:00	5	Humedad	93
135537	7	Sololá	701	Sololá	4	Finca Santa Victoria	10	Octubre	2023-10-10T00:00:00	2024-11-08T15:00:00	6	Velocidad del viento	0
135538	7	Sololá	701	Sololá	4	Finca Santa Victoria	10	Octubre	2023-10-10T00:00:00	2024-11-08T15:00:00	7	Dirección del viento	0
135539	7	Sololá	701	Sololá	4	Finca Santa Victoria	10	Octubre	2023-10-10T00:00:00	2024-11-08T15:00:00	1	Precipitación	0
135540	7	Sololá	701	Sololá	4	Finca Santa Victoria	10	Octubre	2023-10-10T00:00:00	2024-11-08T15:00:00	8	Radiación solar	181
135541	7	Sololá	701	Sololá	4	Finca Santa Victoria	10	Octubre	2023-10-10T00:00:00	2024-11-08T16:00:00	2	Temperatura media	14.3
135542	7	Sololá	701	Sololá	4	Finca Santa Victoria	10	Octubre	2023-10-10T00:00:00	2024-11-08T16:00:00	4	Temperatura máxima	14.5
135543	7	Sololá	701	Sololá	4	Finca Santa Victoria	10	Octubre	2023-10-10T00:00:00	2024-11-08T16:00:00	3	Temperatura mínima	14.3
135544	7	Sololá	701	Sololá	4	Finca Santa Victoria	10	Octubre	2023-10-10T00:00:00	2024-11-08T16:00:00	5	Humedad	94
135545	7	Sololá	701	Sololá	4	Finca Santa Victoria	10	Octubre	2023-10-10T00:00:00	2024-11-08T16:00:00	6	Velocidad del viento	0
135546	7	Sololá	701	Sololá	4	Finca Santa Victoria	10	Octubre	2023-10-10T00:00:00	2024-11-08T16:00:00	7	Dirección del viento	0
135547	7	Sololá	701	Sololá	4	Finca Santa Victoria	10	Octubre	2023-10-10T00:00:00	2024-11-08T16:00:00	1	Precipitación	0
135548	7	Sololá	701	Sololá	4	Finca Santa Victoria	10	Octubre	2023-10-10T00:00:00	2024-11-08T16:00:00	8	Radiación solar	102
135549	7	Sololá	701	Sololá	4	Finca Santa Victoria	10	Octubre	2023-10-10T00:00:00	2024-11-08T17:00:00	2	Temperatura media	13.3
135550	7	Sololá	701	Sololá	4	Finca Santa Victoria	10	Octubre	2023-10-10T00:00:00	2024-11-08T17:00:00	4	Temperatura máxima	14.3
135551	7	Sololá	701	Sololá	4	Finca Santa Victoria	10	Octubre	2023-10-10T00:00:00	2024-11-08T17:00:00	3	Temperatura mínima	13.3
135552	7	Sololá	701	Sololá	4	Finca Santa Victoria	10	Octubre	2023-10-10T00:00:00	2024-11-08T17:00:00	5	Humedad	97
135553	7	Sololá	701	Sololá	4	Finca Santa Victoria	10	Octubre	2023-10-10T00:00:00	2024-11-08T17:00:00	6	Velocidad del viento	0
135554	7	Sololá	701	Sololá	4	Finca Santa Victoria	10	Octubre	2023-10-10T00:00:00	2024-11-08T17:00:00	7	Dirección del viento	0
135555	7	Sololá	701	Sololá	4	Finca Santa Victoria	10	Octubre	2023-10-10T00:00:00	2024-11-08T17:00:00	1	Precipitación	0
135556	7	Sololá	701	Sololá	4	Finca Santa Victoria	10	Octubre	2023-10-10T00:00:00	2024-11-08T17:00:00	8	Radiación solar	60
135557	7	Sololá	701	Sololá	4	Finca Santa Victoria	10	Octubre	2023-10-10T00:00:00	2024-11-08T18:00:00	2	Temperatura media	12.9
135558	7	Sololá	701	Sololá	4	Finca Santa Victoria	10	Octubre	2023-10-10T00:00:00	2024-11-08T18:00:00	4	Temperatura máxima	13.3
135559	7	Sololá	701	Sololá	4	Finca Santa Victoria	10	Octubre	2023-10-10T00:00:00	2024-11-08T18:00:00	3	Temperatura mínima	12.9
135560	7	Sololá	701	Sololá	4	Finca Santa Victoria	10	Octubre	2023-10-10T00:00:00	2024-11-08T18:00:00	5	Humedad	98
135561	7	Sololá	701	Sololá	4	Finca Santa Victoria	10	Octubre	2023-10-10T00:00:00	2024-11-08T18:00:00	6	Velocidad del viento	0
135562	7	Sololá	701	Sololá	4	Finca Santa Victoria	10	Octubre	2023-10-10T00:00:00	2024-11-08T18:00:00	7	Dirección del viento	0
135563	7	Sololá	701	Sololá	4	Finca Santa Victoria	10	Octubre	2023-10-10T00:00:00	2024-11-08T18:00:00	1	Precipitación	0
135564	7	Sololá	701	Sololá	4	Finca Santa Victoria	10	Octubre	2023-10-10T00:00:00	2024-11-08T18:00:00	8	Radiación solar	11
135565	7	Sololá	701	Sololá	4	Finca Santa Victoria	10	Octubre	2023-10-10T00:00:00	2024-11-08T19:00:00	2	Temperatura media	13.2
135566	7	Sololá	701	Sololá	4	Finca Santa Victoria	10	Octubre	2023-10-10T00:00:00	2024-11-08T19:00:00	4	Temperatura máxima	13.2
135567	7	Sololá	701	Sololá	4	Finca Santa Victoria	10	Octubre	2023-10-10T00:00:00	2024-11-08T19:00:00	3	Temperatura mínima	12.9
135568	7	Sololá	701	Sololá	4	Finca Santa Victoria	10	Octubre	2023-10-10T00:00:00	2024-11-08T19:00:00	5	Humedad	97
135569	7	Sololá	701	Sololá	4	Finca Santa Victoria	10	Octubre	2023-10-10T00:00:00	2024-11-08T19:00:00	6	Velocidad del viento	0
135570	7	Sololá	701	Sololá	4	Finca Santa Victoria	10	Octubre	2023-10-10T00:00:00	2024-11-08T19:00:00	7	Dirección del viento	0
135571	7	Sololá	701	Sololá	4	Finca Santa Victoria	10	Octubre	2023-10-10T00:00:00	2024-11-08T19:00:00	1	Precipitación	0
135572	7	Sololá	701	Sololá	4	Finca Santa Victoria	10	Octubre	2023-10-10T00:00:00	2024-11-08T19:00:00	8	Radiación solar	0
135573	7	Sololá	701	Sololá	4	Finca Santa Victoria	10	Octubre	2023-10-10T00:00:00	2024-11-08T20:00:00	2	Temperatura media	13.3
135574	7	Sololá	701	Sololá	4	Finca Santa Victoria	10	Octubre	2023-10-10T00:00:00	2024-11-08T20:00:00	4	Temperatura máxima	13.3
135575	7	Sololá	701	Sololá	4	Finca Santa Victoria	10	Octubre	2023-10-10T00:00:00	2024-11-08T20:00:00	3	Temperatura mínima	13.2
135576	7	Sololá	701	Sololá	4	Finca Santa Victoria	10	Octubre	2023-10-10T00:00:00	2024-11-08T20:00:00	5	Humedad	96
135577	7	Sololá	701	Sololá	4	Finca Santa Victoria	10	Octubre	2023-10-10T00:00:00	2024-11-08T20:00:00	6	Velocidad del viento	0
135578	7	Sololá	701	Sololá	4	Finca Santa Victoria	10	Octubre	2023-10-10T00:00:00	2024-11-08T20:00:00	7	Dirección del viento	0
135579	7	Sololá	701	Sololá	4	Finca Santa Victoria	10	Octubre	2023-10-10T00:00:00	2024-11-08T20:00:00	1	Precipitación	0
135580	7	Sololá	701	Sololá	4	Finca Santa Victoria	10	Octubre	2023-10-10T00:00:00	2024-11-08T20:00:00	8	Radiación solar	0
135581	7	Sololá	701	Sololá	4	Finca Santa Victoria	10	Octubre	2023-10-10T00:00:00	2024-11-08T21:00:00	2	Temperatura media	13.4
135582	7	Sololá	701	Sololá	4	Finca Santa Victoria	10	Octubre	2023-10-10T00:00:00	2024-11-08T21:00:00	4	Temperatura máxima	13.4
135583	7	Sololá	701	Sololá	4	Finca Santa Victoria	10	Octubre	2023-10-10T00:00:00	2024-11-08T21:00:00	3	Temperatura mínima	13.3
135584	7	Sololá	701	Sololá	4	Finca Santa Victoria	10	Octubre	2023-10-10T00:00:00	2024-11-08T21:00:00	5	Humedad	97
135585	7	Sololá	701	Sololá	4	Finca Santa Victoria	10	Octubre	2023-10-10T00:00:00	2024-11-08T21:00:00	6	Velocidad del viento	0
135586	7	Sololá	701	Sololá	4	Finca Santa Victoria	10	Octubre	2023-10-10T00:00:00	2024-11-08T21:00:00	7	Dirección del viento	0
135587	7	Sololá	701	Sololá	4	Finca Santa Victoria	10	Octubre	2023-10-10T00:00:00	2024-11-08T21:00:00	1	Precipitación	0
135588	7	Sololá	701	Sololá	4	Finca Santa Victoria	10	Octubre	2023-10-10T00:00:00	2024-11-08T21:00:00	8	Radiación solar	0
135589	7	Sololá	701	Sololá	4	Finca Santa Victoria	10	Octubre	2023-10-10T00:00:00	2024-11-08T22:00:00	2	Temperatura media	12.9
135590	7	Sololá	701	Sololá	4	Finca Santa Victoria	10	Octubre	2023-10-10T00:00:00	2024-11-08T22:00:00	4	Temperatura máxima	13.4
135591	7	Sololá	701	Sololá	4	Finca Santa Victoria	10	Octubre	2023-10-10T00:00:00	2024-11-08T22:00:00	3	Temperatura mínima	12.9
135592	7	Sololá	701	Sololá	4	Finca Santa Victoria	10	Octubre	2023-10-10T00:00:00	2024-11-08T22:00:00	5	Humedad	97
135593	7	Sololá	701	Sololá	4	Finca Santa Victoria	10	Octubre	2023-10-10T00:00:00	2024-11-08T22:00:00	6	Velocidad del viento	0
135594	7	Sololá	701	Sololá	4	Finca Santa Victoria	10	Octubre	2023-10-10T00:00:00	2024-11-08T22:00:00	7	Dirección del viento	0
135595	7	Sololá	701	Sololá	4	Finca Santa Victoria	10	Octubre	2023-10-10T00:00:00	2024-11-08T22:00:00	1	Precipitación	0
135596	7	Sololá	701	Sololá	4	Finca Santa Victoria	10	Octubre	2023-10-10T00:00:00	2024-11-08T22:00:00	8	Radiación solar	0
135597	7	Sololá	701	Sololá	4	Finca Santa Victoria	10	Octubre	2023-10-10T00:00:00	2024-11-08T23:00:00	2	Temperatura media	13.1
135598	7	Sololá	701	Sololá	4	Finca Santa Victoria	10	Octubre	2023-10-10T00:00:00	2024-11-08T23:00:00	4	Temperatura máxima	13.1
135599	7	Sololá	701	Sololá	4	Finca Santa Victoria	10	Octubre	2023-10-10T00:00:00	2024-11-08T23:00:00	3	Temperatura mínima	12.9
135600	7	Sololá	701	Sololá	4	Finca Santa Victoria	10	Octubre	2023-10-10T00:00:00	2024-11-08T23:00:00	5	Humedad	98
135601	7	Sololá	701	Sololá	4	Finca Santa Victoria	10	Octubre	2023-10-10T00:00:00	2024-11-08T23:00:00	6	Velocidad del viento	0
135602	7	Sololá	701	Sololá	4	Finca Santa Victoria	10	Octubre	2023-10-10T00:00:00	2024-11-08T23:00:00	7	Dirección del viento	0
135603	7	Sololá	701	Sololá	4	Finca Santa Victoria	10	Octubre	2023-10-10T00:00:00	2024-11-08T23:00:00	1	Precipitación	0
135604	7	Sololá	701	Sololá	4	Finca Santa Victoria	10	Octubre	2023-10-10T00:00:00	2024-11-08T23:00:00	8	Radiación solar	0
135605	7	Sololá	701	Sololá	4	Finca Santa Victoria	10	Octubre	2023-11-10T00:00:00	2024-11-08T00:00:00	2	Temperatura media	13
135606	7	Sololá	701	Sololá	4	Finca Santa Victoria	10	Octubre	2023-11-10T00:00:00	2024-11-08T00:00:00	4	Temperatura máxima	13.1
135607	7	Sololá	701	Sololá	4	Finca Santa Victoria	10	Octubre	2023-11-10T00:00:00	2024-11-08T00:00:00	3	Temperatura mínima	13
135608	7	Sololá	701	Sololá	4	Finca Santa Victoria	10	Octubre	2023-11-10T00:00:00	2024-11-08T00:00:00	5	Humedad	98
135609	7	Sololá	701	Sololá	4	Finca Santa Victoria	10	Octubre	2023-11-10T00:00:00	2024-11-08T00:00:00	6	Velocidad del viento	0
135610	7	Sololá	701	Sololá	4	Finca Santa Victoria	10	Octubre	2023-11-10T00:00:00	2024-11-08T00:00:00	7	Dirección del viento	0
135611	7	Sololá	701	Sololá	4	Finca Santa Victoria	10	Octubre	2023-11-10T00:00:00	2024-11-08T00:00:00	1	Precipitación	1
135612	7	Sololá	701	Sololá	4	Finca Santa Victoria	10	Octubre	2023-11-10T00:00:00	2024-11-08T00:00:00	8	Radiación solar	0
135613	7	Sololá	701	Sololá	4	Finca Santa Victoria	10	Octubre	2023-11-10T00:00:00	2024-11-08T01:00:00	2	Temperatura media	13
135614	7	Sololá	701	Sololá	4	Finca Santa Victoria	10	Octubre	2023-11-10T00:00:00	2024-11-08T01:00:00	4	Temperatura máxima	13.1
135615	7	Sololá	701	Sololá	4	Finca Santa Victoria	10	Octubre	2023-11-10T00:00:00	2024-11-08T01:00:00	3	Temperatura mínima	13
135616	7	Sololá	701	Sololá	4	Finca Santa Victoria	10	Octubre	2023-11-10T00:00:00	2024-11-08T01:00:00	5	Humedad	98
135617	7	Sololá	701	Sololá	4	Finca Santa Victoria	10	Octubre	2023-11-10T00:00:00	2024-11-08T01:00:00	6	Velocidad del viento	0
135618	7	Sololá	701	Sololá	4	Finca Santa Victoria	10	Octubre	2023-11-10T00:00:00	2024-11-08T01:00:00	7	Dirección del viento	0
135619	7	Sololá	701	Sololá	4	Finca Santa Victoria	10	Octubre	2023-11-10T00:00:00	2024-11-08T01:00:00	1	Precipitación	1.4
135620	7	Sololá	701	Sololá	4	Finca Santa Victoria	10	Octubre	2023-11-10T00:00:00	2024-11-08T01:00:00	8	Radiación solar	0
135621	7	Sololá	701	Sololá	4	Finca Santa Victoria	10	Octubre	2023-11-10T00:00:00	2024-11-08T02:00:00	2	Temperatura media	12.8
135622	7	Sololá	701	Sololá	4	Finca Santa Victoria	10	Octubre	2023-11-10T00:00:00	2024-11-08T02:00:00	4	Temperatura máxima	13
135623	7	Sololá	701	Sololá	4	Finca Santa Victoria	10	Octubre	2023-11-10T00:00:00	2024-11-08T02:00:00	3	Temperatura mínima	12.8
135624	7	Sololá	701	Sololá	4	Finca Santa Victoria	10	Octubre	2023-11-10T00:00:00	2024-11-08T02:00:00	5	Humedad	98
135625	7	Sololá	701	Sololá	4	Finca Santa Victoria	10	Octubre	2023-11-10T00:00:00	2024-11-08T02:00:00	6	Velocidad del viento	0
135626	7	Sololá	701	Sololá	4	Finca Santa Victoria	10	Octubre	2023-11-10T00:00:00	2024-11-08T02:00:00	7	Dirección del viento	0
135627	7	Sololá	701	Sololá	4	Finca Santa Victoria	10	Octubre	2023-11-10T00:00:00	2024-11-08T02:00:00	1	Precipitación	0.2
135628	7	Sololá	701	Sololá	4	Finca Santa Victoria	10	Octubre	2023-11-10T00:00:00	2024-11-08T02:00:00	8	Radiación solar	0
135629	7	Sololá	701	Sololá	4	Finca Santa Victoria	10	Octubre	2023-11-10T00:00:00	2024-11-08T03:00:00	2	Temperatura media	12.6
135630	7	Sololá	701	Sololá	4	Finca Santa Victoria	10	Octubre	2023-11-10T00:00:00	2024-11-08T03:00:00	4	Temperatura máxima	12.8
135631	7	Sololá	701	Sololá	4	Finca Santa Victoria	10	Octubre	2023-11-10T00:00:00	2024-11-08T03:00:00	3	Temperatura mínima	12.6
135632	7	Sololá	701	Sololá	4	Finca Santa Victoria	10	Octubre	2023-11-10T00:00:00	2024-11-08T03:00:00	5	Humedad	98
135633	7	Sololá	701	Sololá	4	Finca Santa Victoria	10	Octubre	2023-11-10T00:00:00	2024-11-08T03:00:00	6	Velocidad del viento	0
135634	7	Sololá	701	Sololá	4	Finca Santa Victoria	10	Octubre	2023-11-10T00:00:00	2024-11-08T03:00:00	7	Dirección del viento	0
135635	7	Sololá	701	Sololá	4	Finca Santa Victoria	10	Octubre	2023-11-10T00:00:00	2024-11-08T03:00:00	1	Precipitación	0
135636	7	Sololá	701	Sololá	4	Finca Santa Victoria	10	Octubre	2023-11-10T00:00:00	2024-11-08T03:00:00	8	Radiación solar	0
135637	7	Sololá	701	Sololá	4	Finca Santa Victoria	10	Octubre	2023-11-10T00:00:00	2024-11-08T04:00:00	2	Temperatura media	12.4
135638	7	Sololá	701	Sololá	4	Finca Santa Victoria	10	Octubre	2023-11-10T00:00:00	2024-11-08T04:00:00	4	Temperatura máxima	12.6
135639	7	Sololá	701	Sololá	4	Finca Santa Victoria	10	Octubre	2023-11-10T00:00:00	2024-11-08T04:00:00	3	Temperatura mínima	12.4
135640	7	Sololá	701	Sololá	4	Finca Santa Victoria	10	Octubre	2023-11-10T00:00:00	2024-11-08T04:00:00	5	Humedad	98
135641	7	Sololá	701	Sololá	4	Finca Santa Victoria	10	Octubre	2023-11-10T00:00:00	2024-11-08T04:00:00	6	Velocidad del viento	0
135642	7	Sololá	701	Sololá	4	Finca Santa Victoria	10	Octubre	2023-11-10T00:00:00	2024-11-08T04:00:00	7	Dirección del viento	0
135643	7	Sololá	701	Sololá	4	Finca Santa Victoria	10	Octubre	2023-11-10T00:00:00	2024-11-08T04:00:00	1	Precipitación	0
135644	7	Sololá	701	Sololá	4	Finca Santa Victoria	10	Octubre	2023-11-10T00:00:00	2024-11-08T04:00:00	8	Radiación solar	0
135645	7	Sololá	701	Sololá	4	Finca Santa Victoria	10	Octubre	2023-11-10T00:00:00	2024-11-08T05:00:00	2	Temperatura media	12.6
135646	7	Sololá	701	Sololá	4	Finca Santa Victoria	10	Octubre	2023-11-10T00:00:00	2024-11-08T05:00:00	4	Temperatura máxima	12.6
135647	7	Sololá	701	Sololá	4	Finca Santa Victoria	10	Octubre	2023-11-10T00:00:00	2024-11-08T05:00:00	3	Temperatura mínima	12.3
135648	7	Sololá	701	Sololá	4	Finca Santa Victoria	10	Octubre	2023-11-10T00:00:00	2024-11-08T05:00:00	5	Humedad	95
135649	7	Sololá	701	Sololá	4	Finca Santa Victoria	10	Octubre	2023-11-10T00:00:00	2024-11-08T05:00:00	6	Velocidad del viento	1.6
135650	7	Sololá	701	Sololá	4	Finca Santa Victoria	10	Octubre	2023-11-10T00:00:00	2024-11-08T05:00:00	7	Dirección del viento	1.61
135651	7	Sololá	701	Sololá	4	Finca Santa Victoria	10	Octubre	2023-11-10T00:00:00	2024-11-08T05:00:00	1	Precipitación	0
135652	7	Sololá	701	Sololá	4	Finca Santa Victoria	10	Octubre	2023-11-10T00:00:00	2024-11-08T05:00:00	8	Radiación solar	0
135653	7	Sololá	701	Sololá	4	Finca Santa Victoria	10	Octubre	2023-11-10T00:00:00	2024-11-08T06:00:00	2	Temperatura media	13.2
135654	7	Sololá	701	Sololá	4	Finca Santa Victoria	10	Octubre	2023-11-10T00:00:00	2024-11-08T06:00:00	4	Temperatura máxima	13.2
135655	7	Sololá	701	Sololá	4	Finca Santa Victoria	10	Octubre	2023-11-10T00:00:00	2024-11-08T06:00:00	3	Temperatura mínima	12.6
135656	7	Sololá	701	Sololá	4	Finca Santa Victoria	10	Octubre	2023-11-10T00:00:00	2024-11-08T06:00:00	5	Humedad	93
135657	7	Sololá	701	Sololá	4	Finca Santa Victoria	10	Octubre	2023-11-10T00:00:00	2024-11-08T06:00:00	6	Velocidad del viento	1.6
135658	7	Sololá	701	Sololá	4	Finca Santa Victoria	10	Octubre	2023-11-10T00:00:00	2024-11-08T06:00:00	7	Dirección del viento	1.61
135659	7	Sololá	701	Sololá	4	Finca Santa Victoria	10	Octubre	2023-11-10T00:00:00	2024-11-08T06:00:00	1	Precipitación	0
135660	7	Sololá	701	Sololá	4	Finca Santa Victoria	10	Octubre	2023-11-10T00:00:00	2024-11-08T06:00:00	8	Radiación solar	0
135661	7	Sololá	701	Sololá	4	Finca Santa Victoria	10	Octubre	2023-11-10T00:00:00	2024-11-08T07:00:00	2	Temperatura media	14.7
135662	7	Sololá	701	Sololá	4	Finca Santa Victoria	10	Octubre	2023-11-10T00:00:00	2024-11-08T07:00:00	4	Temperatura máxima	14.7
135663	7	Sololá	701	Sololá	4	Finca Santa Victoria	10	Octubre	2023-11-10T00:00:00	2024-11-08T07:00:00	3	Temperatura mínima	13.2
135664	7	Sololá	701	Sololá	4	Finca Santa Victoria	10	Octubre	2023-11-10T00:00:00	2024-11-08T07:00:00	5	Humedad	92
135665	7	Sololá	701	Sololá	4	Finca Santa Victoria	10	Octubre	2023-11-10T00:00:00	2024-11-08T07:00:00	6	Velocidad del viento	0
135666	7	Sololá	701	Sololá	4	Finca Santa Victoria	10	Octubre	2023-11-10T00:00:00	2024-11-08T07:00:00	7	Dirección del viento	0
135667	7	Sololá	701	Sololá	4	Finca Santa Victoria	10	Octubre	2023-11-10T00:00:00	2024-11-08T07:00:00	1	Precipitación	0
135668	7	Sololá	701	Sololá	4	Finca Santa Victoria	10	Octubre	2023-11-10T00:00:00	2024-11-08T07:00:00	8	Radiación solar	35
135669	7	Sololá	701	Sololá	4	Finca Santa Victoria	10	Octubre	2023-11-10T00:00:00	2024-11-08T08:00:00	2	Temperatura media	17.3
135670	7	Sololá	701	Sololá	4	Finca Santa Victoria	10	Octubre	2023-11-10T00:00:00	2024-11-08T08:00:00	4	Temperatura máxima	17.3
135671	7	Sololá	701	Sololá	4	Finca Santa Victoria	10	Octubre	2023-11-10T00:00:00	2024-11-08T08:00:00	3	Temperatura mínima	14.7
135672	7	Sololá	701	Sololá	4	Finca Santa Victoria	10	Octubre	2023-11-10T00:00:00	2024-11-08T08:00:00	5	Humedad	82
135673	7	Sololá	701	Sololá	4	Finca Santa Victoria	10	Octubre	2023-11-10T00:00:00	2024-11-08T08:00:00	6	Velocidad del viento	0
135674	7	Sololá	701	Sololá	4	Finca Santa Victoria	10	Octubre	2023-11-10T00:00:00	2024-11-08T08:00:00	7	Dirección del viento	0
135675	7	Sololá	701	Sololá	4	Finca Santa Victoria	10	Octubre	2023-11-10T00:00:00	2024-11-08T08:00:00	1	Precipitación	0
135676	7	Sololá	701	Sololá	4	Finca Santa Victoria	10	Octubre	2023-11-10T00:00:00	2024-11-08T08:00:00	8	Radiación solar	116
135677	7	Sololá	701	Sololá	4	Finca Santa Victoria	10	Octubre	2023-11-10T00:00:00	2024-11-08T09:00:00	2	Temperatura media	18.1
135678	7	Sololá	701	Sololá	4	Finca Santa Victoria	10	Octubre	2023-11-10T00:00:00	2024-11-08T09:00:00	4	Temperatura máxima	18.6
135679	7	Sololá	701	Sololá	4	Finca Santa Victoria	10	Octubre	2023-11-10T00:00:00	2024-11-08T09:00:00	3	Temperatura mínima	17.4
135680	7	Sololá	701	Sololá	4	Finca Santa Victoria	10	Octubre	2023-11-10T00:00:00	2024-11-08T09:00:00	5	Humedad	82
135681	7	Sololá	701	Sololá	4	Finca Santa Victoria	10	Octubre	2023-11-10T00:00:00	2024-11-08T09:00:00	6	Velocidad del viento	1.6
135682	7	Sololá	701	Sololá	4	Finca Santa Victoria	10	Octubre	2023-11-10T00:00:00	2024-11-08T09:00:00	7	Dirección del viento	1.61
135683	7	Sololá	701	Sololá	4	Finca Santa Victoria	10	Octubre	2023-11-10T00:00:00	2024-11-08T09:00:00	1	Precipitación	0
135684	7	Sololá	701	Sololá	4	Finca Santa Victoria	10	Octubre	2023-11-10T00:00:00	2024-11-08T09:00:00	8	Radiación solar	402
135685	7	Sololá	701	Sololá	4	Finca Santa Victoria	10	Octubre	2023-11-10T00:00:00	2024-11-08T10:00:00	2	Temperatura media	18.1
135686	7	Sololá	701	Sololá	4	Finca Santa Victoria	10	Octubre	2023-11-10T00:00:00	2024-11-08T10:00:00	4	Temperatura máxima	18.3
135687	7	Sololá	701	Sololá	4	Finca Santa Victoria	10	Octubre	2023-11-10T00:00:00	2024-11-08T10:00:00	3	Temperatura mínima	17.8
135688	7	Sololá	701	Sololá	4	Finca Santa Victoria	10	Octubre	2023-11-10T00:00:00	2024-11-08T10:00:00	5	Humedad	83
135689	7	Sololá	701	Sololá	4	Finca Santa Victoria	10	Octubre	2023-11-10T00:00:00	2024-11-08T10:00:00	6	Velocidad del viento	1.6
135690	7	Sololá	701	Sololá	4	Finca Santa Victoria	10	Octubre	2023-11-10T00:00:00	2024-11-08T10:00:00	7	Dirección del viento	1.61
135691	7	Sololá	701	Sololá	4	Finca Santa Victoria	10	Octubre	2023-11-10T00:00:00	2024-11-08T10:00:00	1	Precipitación	0
135692	7	Sololá	701	Sololá	4	Finca Santa Victoria	10	Octubre	2023-11-10T00:00:00	2024-11-08T10:00:00	8	Radiación solar	709
135693	7	Sololá	701	Sololá	4	Finca Santa Victoria	10	Octubre	2023-11-10T00:00:00	2024-11-08T11:00:00	2	Temperatura media	18.2
135694	7	Sololá	701	Sololá	4	Finca Santa Victoria	10	Octubre	2023-11-10T00:00:00	2024-11-08T11:00:00	4	Temperatura máxima	18.2
135695	7	Sololá	701	Sololá	4	Finca Santa Victoria	10	Octubre	2023-11-10T00:00:00	2024-11-08T11:00:00	3	Temperatura mínima	17.9
135696	7	Sololá	701	Sololá	4	Finca Santa Victoria	10	Octubre	2023-11-10T00:00:00	2024-11-08T11:00:00	5	Humedad	80
135697	7	Sololá	701	Sololá	4	Finca Santa Victoria	10	Octubre	2023-11-10T00:00:00	2024-11-08T11:00:00	6	Velocidad del viento	0
135698	7	Sololá	701	Sololá	4	Finca Santa Victoria	10	Octubre	2023-11-10T00:00:00	2024-11-08T11:00:00	7	Dirección del viento	0
135699	7	Sololá	701	Sololá	4	Finca Santa Victoria	10	Octubre	2023-11-10T00:00:00	2024-11-08T11:00:00	1	Precipitación	0
135700	7	Sololá	701	Sololá	4	Finca Santa Victoria	10	Octubre	2023-11-10T00:00:00	2024-11-08T11:00:00	8	Radiación solar	453
135701	7	Sololá	701	Sololá	4	Finca Santa Victoria	10	Octubre	2023-11-10T00:00:00	2024-11-08T12:00:00	2	Temperatura media	18.2
135702	7	Sololá	701	Sololá	4	Finca Santa Victoria	10	Octubre	2023-11-10T00:00:00	2024-11-08T12:00:00	4	Temperatura máxima	19
135703	7	Sololá	701	Sololá	4	Finca Santa Victoria	10	Octubre	2023-11-10T00:00:00	2024-11-08T12:00:00	3	Temperatura mínima	18.2
135704	7	Sololá	701	Sololá	4	Finca Santa Victoria	10	Octubre	2023-11-10T00:00:00	2024-11-08T12:00:00	5	Humedad	82
135705	7	Sololá	701	Sololá	4	Finca Santa Victoria	10	Octubre	2023-11-10T00:00:00	2024-11-08T12:00:00	6	Velocidad del viento	1.6
135706	7	Sololá	701	Sololá	4	Finca Santa Victoria	10	Octubre	2023-11-10T00:00:00	2024-11-08T12:00:00	7	Dirección del viento	1.61
135707	7	Sololá	701	Sololá	4	Finca Santa Victoria	10	Octubre	2023-11-10T00:00:00	2024-11-08T12:00:00	1	Precipitación	0
135708	7	Sololá	701	Sololá	4	Finca Santa Victoria	10	Octubre	2023-11-10T00:00:00	2024-11-08T12:00:00	8	Radiación solar	397
135709	7	Sololá	701	Sololá	4	Finca Santa Victoria	10	Octubre	2023-11-10T00:00:00	2024-11-08T13:00:00	2	Temperatura media	16.7
135710	7	Sololá	701	Sololá	4	Finca Santa Victoria	10	Octubre	2023-11-10T00:00:00	2024-11-08T13:00:00	4	Temperatura máxima	18.2
135711	7	Sololá	701	Sololá	4	Finca Santa Victoria	10	Octubre	2023-11-10T00:00:00	2024-11-08T13:00:00	3	Temperatura mínima	16.7
135712	7	Sololá	701	Sololá	4	Finca Santa Victoria	10	Octubre	2023-11-10T00:00:00	2024-11-08T13:00:00	5	Humedad	92
135713	7	Sololá	701	Sololá	4	Finca Santa Victoria	10	Octubre	2023-11-10T00:00:00	2024-11-08T13:00:00	6	Velocidad del viento	1.6
135714	7	Sololá	701	Sololá	4	Finca Santa Victoria	10	Octubre	2023-11-10T00:00:00	2024-11-08T13:00:00	7	Dirección del viento	1.61
135715	7	Sololá	701	Sololá	4	Finca Santa Victoria	10	Octubre	2023-11-10T00:00:00	2024-11-08T13:00:00	1	Precipitación	0
135716	7	Sololá	701	Sololá	4	Finca Santa Victoria	10	Octubre	2023-11-10T00:00:00	2024-11-08T13:00:00	8	Radiación solar	425
135717	7	Sololá	701	Sololá	4	Finca Santa Victoria	10	Octubre	2023-11-10T00:00:00	2024-11-08T14:00:00	2	Temperatura media	16.1
135718	7	Sololá	701	Sololá	4	Finca Santa Victoria	10	Octubre	2023-11-10T00:00:00	2024-11-08T14:00:00	4	Temperatura máxima	16.9
135719	7	Sololá	701	Sololá	4	Finca Santa Victoria	10	Octubre	2023-11-10T00:00:00	2024-11-08T14:00:00	3	Temperatura mínima	16
135720	7	Sololá	701	Sololá	4	Finca Santa Victoria	10	Octubre	2023-11-10T00:00:00	2024-11-08T14:00:00	5	Humedad	94
135721	7	Sololá	701	Sololá	4	Finca Santa Victoria	10	Octubre	2023-11-10T00:00:00	2024-11-08T14:00:00	6	Velocidad del viento	1.6
135722	7	Sololá	701	Sololá	4	Finca Santa Victoria	10	Octubre	2023-11-10T00:00:00	2024-11-08T14:00:00	7	Dirección del viento	1.61
135723	7	Sololá	701	Sololá	4	Finca Santa Victoria	10	Octubre	2023-11-10T00:00:00	2024-11-08T14:00:00	1	Precipitación	0
135724	7	Sololá	701	Sololá	4	Finca Santa Victoria	10	Octubre	2023-11-10T00:00:00	2024-11-08T14:00:00	8	Radiación solar	232
135725	7	Sololá	701	Sololá	4	Finca Santa Victoria	10	Octubre	2023-11-10T00:00:00	2024-11-08T15:00:00	2	Temperatura media	15.3
135726	7	Sololá	701	Sololá	4	Finca Santa Victoria	10	Octubre	2023-11-10T00:00:00	2024-11-08T15:00:00	4	Temperatura máxima	16
135727	7	Sololá	701	Sololá	4	Finca Santa Victoria	10	Octubre	2023-11-10T00:00:00	2024-11-08T15:00:00	3	Temperatura mínima	15.2
135728	7	Sololá	701	Sololá	4	Finca Santa Victoria	10	Octubre	2023-11-10T00:00:00	2024-11-08T15:00:00	5	Humedad	95
135729	7	Sololá	701	Sololá	4	Finca Santa Victoria	10	Octubre	2023-11-10T00:00:00	2024-11-08T15:00:00	6	Velocidad del viento	1.6
135730	7	Sololá	701	Sololá	4	Finca Santa Victoria	10	Octubre	2023-11-10T00:00:00	2024-11-08T15:00:00	7	Dirección del viento	1.61
135731	7	Sololá	701	Sololá	4	Finca Santa Victoria	10	Octubre	2023-11-10T00:00:00	2024-11-08T15:00:00	1	Precipitación	0
135732	7	Sololá	701	Sololá	4	Finca Santa Victoria	10	Octubre	2023-11-10T00:00:00	2024-11-08T15:00:00	8	Radiación solar	153
135733	7	Sololá	701	Sololá	4	Finca Santa Victoria	10	Octubre	2023-11-10T00:00:00	2024-11-08T16:00:00	2	Temperatura media	14.8
135734	7	Sololá	701	Sololá	4	Finca Santa Victoria	10	Octubre	2023-11-10T00:00:00	2024-11-08T16:00:00	4	Temperatura máxima	15.3
135735	7	Sololá	701	Sololá	4	Finca Santa Victoria	10	Octubre	2023-11-10T00:00:00	2024-11-08T16:00:00	3	Temperatura mínima	14.8
135736	7	Sololá	701	Sololá	4	Finca Santa Victoria	10	Octubre	2023-11-10T00:00:00	2024-11-08T16:00:00	5	Humedad	97
135737	7	Sololá	701	Sololá	4	Finca Santa Victoria	10	Octubre	2023-11-10T00:00:00	2024-11-08T16:00:00	6	Velocidad del viento	0
135738	7	Sololá	701	Sololá	4	Finca Santa Victoria	10	Octubre	2023-11-10T00:00:00	2024-11-08T16:00:00	7	Dirección del viento	0
135739	7	Sololá	701	Sololá	4	Finca Santa Victoria	10	Octubre	2023-11-10T00:00:00	2024-11-08T16:00:00	1	Precipitación	0.2
135740	7	Sololá	701	Sololá	4	Finca Santa Victoria	10	Octubre	2023-11-10T00:00:00	2024-11-08T16:00:00	8	Radiación solar	42
135741	7	Sololá	701	Sololá	4	Finca Santa Victoria	10	Octubre	2023-11-10T00:00:00	2024-11-08T17:00:00	2	Temperatura media	14.5
135742	7	Sololá	701	Sololá	4	Finca Santa Victoria	10	Octubre	2023-11-10T00:00:00	2024-11-08T17:00:00	4	Temperatura máxima	14.8
135743	7	Sololá	701	Sololá	4	Finca Santa Victoria	10	Octubre	2023-11-10T00:00:00	2024-11-08T17:00:00	3	Temperatura mínima	14.5
135744	7	Sololá	701	Sololá	4	Finca Santa Victoria	10	Octubre	2023-11-10T00:00:00	2024-11-08T17:00:00	5	Humedad	98
135745	7	Sololá	701	Sololá	4	Finca Santa Victoria	10	Octubre	2023-11-10T00:00:00	2024-11-08T17:00:00	6	Velocidad del viento	0
135746	7	Sololá	701	Sololá	4	Finca Santa Victoria	10	Octubre	2023-11-10T00:00:00	2024-11-08T17:00:00	7	Dirección del viento	0
135747	7	Sololá	701	Sololá	4	Finca Santa Victoria	10	Octubre	2023-11-10T00:00:00	2024-11-08T17:00:00	1	Precipitación	2
135748	7	Sololá	701	Sololá	4	Finca Santa Victoria	10	Octubre	2023-11-10T00:00:00	2024-11-08T17:00:00	8	Radiación solar	7
135749	7	Sololá	701	Sololá	4	Finca Santa Victoria	10	Octubre	2023-11-10T00:00:00	2024-11-08T18:00:00	2	Temperatura media	14.4
135750	7	Sololá	701	Sololá	4	Finca Santa Victoria	10	Octubre	2023-11-10T00:00:00	2024-11-08T18:00:00	4	Temperatura máxima	14.5
135751	7	Sololá	701	Sololá	4	Finca Santa Victoria	10	Octubre	2023-11-10T00:00:00	2024-11-08T18:00:00	3	Temperatura mínima	14.3
135752	7	Sololá	701	Sololá	4	Finca Santa Victoria	10	Octubre	2023-11-10T00:00:00	2024-11-08T18:00:00	5	Humedad	98
135753	7	Sololá	701	Sololá	4	Finca Santa Victoria	10	Octubre	2023-11-10T00:00:00	2024-11-08T18:00:00	6	Velocidad del viento	0
135754	7	Sololá	701	Sololá	4	Finca Santa Victoria	10	Octubre	2023-11-10T00:00:00	2024-11-08T18:00:00	7	Dirección del viento	0
135755	7	Sololá	701	Sololá	4	Finca Santa Victoria	10	Octubre	2023-11-10T00:00:00	2024-11-08T18:00:00	1	Precipitación	0.2
135756	7	Sololá	701	Sololá	4	Finca Santa Victoria	10	Octubre	2023-11-10T00:00:00	2024-11-08T18:00:00	8	Radiación solar	0
135757	7	Sololá	701	Sololá	4	Finca Santa Victoria	10	Octubre	2023-11-10T00:00:00	2024-11-08T19:00:00	2	Temperatura media	14.2
135758	7	Sololá	701	Sololá	4	Finca Santa Victoria	10	Octubre	2023-11-10T00:00:00	2024-11-08T19:00:00	4	Temperatura máxima	14.4
135759	7	Sololá	701	Sololá	4	Finca Santa Victoria	10	Octubre	2023-11-10T00:00:00	2024-11-08T19:00:00	3	Temperatura mínima	14.2
135760	7	Sololá	701	Sololá	4	Finca Santa Victoria	10	Octubre	2023-11-10T00:00:00	2024-11-08T19:00:00	5	Humedad	98
135761	7	Sololá	701	Sololá	4	Finca Santa Victoria	10	Octubre	2023-11-10T00:00:00	2024-11-08T19:00:00	6	Velocidad del viento	0
135762	7	Sololá	701	Sololá	4	Finca Santa Victoria	10	Octubre	2023-11-10T00:00:00	2024-11-08T19:00:00	7	Dirección del viento	0
135763	7	Sololá	701	Sololá	4	Finca Santa Victoria	10	Octubre	2023-11-10T00:00:00	2024-11-08T19:00:00	1	Precipitación	0
135764	7	Sololá	701	Sololá	4	Finca Santa Victoria	10	Octubre	2023-11-10T00:00:00	2024-11-08T19:00:00	8	Radiación solar	0
135765	7	Sololá	701	Sololá	4	Finca Santa Victoria	10	Octubre	2023-11-10T00:00:00	2024-11-08T20:00:00	2	Temperatura media	13.8
135766	7	Sololá	701	Sololá	4	Finca Santa Victoria	10	Octubre	2023-11-10T00:00:00	2024-11-08T20:00:00	4	Temperatura máxima	14.2
135767	7	Sololá	701	Sololá	4	Finca Santa Victoria	10	Octubre	2023-11-10T00:00:00	2024-11-08T20:00:00	3	Temperatura mínima	13.8
135768	7	Sololá	701	Sololá	4	Finca Santa Victoria	10	Octubre	2023-11-10T00:00:00	2024-11-08T20:00:00	5	Humedad	98
135769	7	Sololá	701	Sololá	4	Finca Santa Victoria	10	Octubre	2023-11-10T00:00:00	2024-11-08T20:00:00	6	Velocidad del viento	0
135770	7	Sololá	701	Sololá	4	Finca Santa Victoria	10	Octubre	2023-11-10T00:00:00	2024-11-08T20:00:00	7	Dirección del viento	0
135771	7	Sololá	701	Sololá	4	Finca Santa Victoria	10	Octubre	2023-11-10T00:00:00	2024-11-08T20:00:00	1	Precipitación	1.2
135772	7	Sololá	701	Sololá	4	Finca Santa Victoria	10	Octubre	2023-11-10T00:00:00	2024-11-08T20:00:00	8	Radiación solar	0
135773	7	Sololá	701	Sololá	4	Finca Santa Victoria	10	Octubre	2023-11-10T00:00:00	2024-11-08T21:00:00	2	Temperatura media	13.6
135774	7	Sololá	701	Sololá	4	Finca Santa Victoria	10	Octubre	2023-11-10T00:00:00	2024-11-08T21:00:00	4	Temperatura máxima	13.8
135775	7	Sololá	701	Sololá	4	Finca Santa Victoria	10	Octubre	2023-11-10T00:00:00	2024-11-08T21:00:00	3	Temperatura mínima	13.6
135776	7	Sololá	701	Sololá	4	Finca Santa Victoria	10	Octubre	2023-11-10T00:00:00	2024-11-08T21:00:00	5	Humedad	98
135777	7	Sololá	701	Sololá	4	Finca Santa Victoria	10	Octubre	2023-11-10T00:00:00	2024-11-08T21:00:00	6	Velocidad del viento	0
135778	7	Sololá	701	Sololá	4	Finca Santa Victoria	10	Octubre	2023-11-10T00:00:00	2024-11-08T21:00:00	7	Dirección del viento	0
135779	7	Sololá	701	Sololá	4	Finca Santa Victoria	10	Octubre	2023-11-10T00:00:00	2024-11-08T21:00:00	1	Precipitación	0
135780	7	Sololá	701	Sololá	4	Finca Santa Victoria	10	Octubre	2023-11-10T00:00:00	2024-11-08T21:00:00	8	Radiación solar	0
135781	7	Sololá	701	Sololá	4	Finca Santa Victoria	10	Octubre	2023-11-10T00:00:00	2024-11-08T22:00:00	2	Temperatura media	13.2
135782	7	Sololá	701	Sololá	4	Finca Santa Victoria	10	Octubre	2023-11-10T00:00:00	2024-11-08T22:00:00	4	Temperatura máxima	13.6
135783	7	Sololá	701	Sololá	4	Finca Santa Victoria	10	Octubre	2023-11-10T00:00:00	2024-11-08T22:00:00	3	Temperatura mínima	13.1
135784	7	Sololá	701	Sololá	4	Finca Santa Victoria	10	Octubre	2023-11-10T00:00:00	2024-11-08T22:00:00	5	Humedad	98
135785	7	Sololá	701	Sololá	4	Finca Santa Victoria	10	Octubre	2023-11-10T00:00:00	2024-11-08T22:00:00	6	Velocidad del viento	0
135786	7	Sololá	701	Sololá	4	Finca Santa Victoria	10	Octubre	2023-11-10T00:00:00	2024-11-08T22:00:00	7	Dirección del viento	0
135787	7	Sololá	701	Sololá	4	Finca Santa Victoria	10	Octubre	2023-11-10T00:00:00	2024-11-08T22:00:00	1	Precipitación	0.4
135788	7	Sololá	701	Sololá	4	Finca Santa Victoria	10	Octubre	2023-11-10T00:00:00	2024-11-08T22:00:00	8	Radiación solar	0
135789	7	Sololá	701	Sololá	4	Finca Santa Victoria	10	Octubre	2023-11-10T00:00:00	2024-11-08T23:00:00	2	Temperatura media	12.4
135790	7	Sololá	701	Sololá	4	Finca Santa Victoria	10	Octubre	2023-11-10T00:00:00	2024-11-08T23:00:00	4	Temperatura máxima	13.2
135791	7	Sololá	701	Sololá	4	Finca Santa Victoria	10	Octubre	2023-11-10T00:00:00	2024-11-08T23:00:00	3	Temperatura mínima	12.4
135792	7	Sololá	701	Sololá	4	Finca Santa Victoria	10	Octubre	2023-11-10T00:00:00	2024-11-08T23:00:00	5	Humedad	97
135793	7	Sololá	701	Sololá	4	Finca Santa Victoria	10	Octubre	2023-11-10T00:00:00	2024-11-08T23:00:00	6	Velocidad del viento	0
135794	7	Sololá	701	Sololá	4	Finca Santa Victoria	10	Octubre	2023-11-10T00:00:00	2024-11-08T23:00:00	7	Dirección del viento	0
135795	7	Sololá	701	Sololá	4	Finca Santa Victoria	10	Octubre	2023-11-10T00:00:00	2024-11-08T23:00:00	1	Precipitación	1.6
135796	7	Sololá	701	Sololá	4	Finca Santa Victoria	10	Octubre	2023-11-10T00:00:00	2024-11-08T23:00:00	8	Radiación solar	0
135797	7	Sololá	701	Sololá	4	Finca Santa Victoria	10	Octubre	2023-12-10T00:00:00	2024-11-08T00:00:00	2	Temperatura media	13.3
135798	7	Sololá	701	Sololá	4	Finca Santa Victoria	10	Octubre	2023-12-10T00:00:00	2024-11-08T00:00:00	4	Temperatura máxima	13.4
135799	7	Sololá	701	Sololá	4	Finca Santa Victoria	10	Octubre	2023-12-10T00:00:00	2024-11-08T00:00:00	3	Temperatura mínima	13.2
135800	7	Sololá	701	Sololá	4	Finca Santa Victoria	10	Octubre	2023-12-10T00:00:00	2024-11-08T00:00:00	5	Humedad	88
135801	7	Sololá	701	Sololá	4	Finca Santa Victoria	10	Octubre	2023-12-10T00:00:00	2024-11-08T00:00:00	6	Velocidad del viento	3.2
135802	7	Sololá	701	Sololá	4	Finca Santa Victoria	10	Octubre	2023-12-10T00:00:00	2024-11-08T00:00:00	7	Dirección del viento	3.22
135803	7	Sololá	701	Sololá	4	Finca Santa Victoria	10	Octubre	2023-12-10T00:00:00	2024-11-08T00:00:00	1	Precipitación	0
135804	7	Sololá	701	Sololá	4	Finca Santa Victoria	10	Octubre	2023-12-10T00:00:00	2024-11-08T00:00:00	8	Radiación solar	0
135805	7	Sololá	701	Sololá	4	Finca Santa Victoria	10	Octubre	2023-12-10T00:00:00	2024-11-08T01:00:00	2	Temperatura media	13.3
135806	7	Sololá	701	Sololá	4	Finca Santa Victoria	10	Octubre	2023-12-10T00:00:00	2024-11-08T01:00:00	4	Temperatura máxima	13.3
135807	7	Sololá	701	Sololá	4	Finca Santa Victoria	10	Octubre	2023-12-10T00:00:00	2024-11-08T01:00:00	3	Temperatura mínima	13.2
135808	7	Sololá	701	Sololá	4	Finca Santa Victoria	10	Octubre	2023-12-10T00:00:00	2024-11-08T01:00:00	5	Humedad	89
135809	7	Sololá	701	Sololá	4	Finca Santa Victoria	10	Octubre	2023-12-10T00:00:00	2024-11-08T01:00:00	6	Velocidad del viento	1.6
135810	7	Sololá	701	Sololá	4	Finca Santa Victoria	10	Octubre	2023-12-10T00:00:00	2024-11-08T01:00:00	7	Dirección del viento	1.61
135811	7	Sololá	701	Sololá	4	Finca Santa Victoria	10	Octubre	2023-12-10T00:00:00	2024-11-08T01:00:00	1	Precipitación	0
135812	7	Sololá	701	Sololá	4	Finca Santa Victoria	10	Octubre	2023-12-10T00:00:00	2024-11-08T01:00:00	8	Radiación solar	0
135813	7	Sololá	701	Sololá	4	Finca Santa Victoria	10	Octubre	2023-12-10T00:00:00	2024-11-08T02:00:00	2	Temperatura media	13.1
135814	7	Sololá	701	Sololá	4	Finca Santa Victoria	10	Octubre	2023-12-10T00:00:00	2024-11-08T02:00:00	4	Temperatura máxima	13.3
135815	7	Sololá	701	Sololá	4	Finca Santa Victoria	10	Octubre	2023-12-10T00:00:00	2024-11-08T02:00:00	3	Temperatura mínima	13.1
135816	7	Sololá	701	Sololá	4	Finca Santa Victoria	10	Octubre	2023-12-10T00:00:00	2024-11-08T02:00:00	5	Humedad	89
135817	7	Sololá	701	Sololá	4	Finca Santa Victoria	10	Octubre	2023-12-10T00:00:00	2024-11-08T02:00:00	6	Velocidad del viento	3.2
135818	7	Sololá	701	Sololá	4	Finca Santa Victoria	10	Octubre	2023-12-10T00:00:00	2024-11-08T02:00:00	7	Dirección del viento	3.22
135819	7	Sololá	701	Sololá	4	Finca Santa Victoria	10	Octubre	2023-12-10T00:00:00	2024-11-08T02:00:00	1	Precipitación	0
135820	7	Sololá	701	Sololá	4	Finca Santa Victoria	10	Octubre	2023-12-10T00:00:00	2024-11-08T02:00:00	8	Radiación solar	0
135821	7	Sololá	701	Sololá	4	Finca Santa Victoria	10	Octubre	2023-12-10T00:00:00	2024-11-08T03:00:00	2	Temperatura media	12.8
135822	7	Sololá	701	Sololá	4	Finca Santa Victoria	10	Octubre	2023-12-10T00:00:00	2024-11-08T03:00:00	4	Temperatura máxima	13.1
135823	7	Sololá	701	Sololá	4	Finca Santa Victoria	10	Octubre	2023-12-10T00:00:00	2024-11-08T03:00:00	3	Temperatura mínima	12.8
135824	7	Sololá	701	Sololá	4	Finca Santa Victoria	10	Octubre	2023-12-10T00:00:00	2024-11-08T03:00:00	5	Humedad	89
135825	7	Sololá	701	Sololá	4	Finca Santa Victoria	10	Octubre	2023-12-10T00:00:00	2024-11-08T03:00:00	6	Velocidad del viento	3.2
135826	7	Sololá	701	Sololá	4	Finca Santa Victoria	10	Octubre	2023-12-10T00:00:00	2024-11-08T03:00:00	7	Dirección del viento	3.22
135827	7	Sololá	701	Sololá	4	Finca Santa Victoria	10	Octubre	2023-12-10T00:00:00	2024-11-08T03:00:00	1	Precipitación	0
135828	7	Sololá	701	Sololá	4	Finca Santa Victoria	10	Octubre	2023-12-10T00:00:00	2024-11-08T03:00:00	8	Radiación solar	0
135829	7	Sololá	701	Sololá	4	Finca Santa Victoria	10	Octubre	2023-12-10T00:00:00	2024-11-08T04:00:00	2	Temperatura media	12.7
135830	7	Sololá	701	Sololá	4	Finca Santa Victoria	10	Octubre	2023-12-10T00:00:00	2024-11-08T04:00:00	4	Temperatura máxima	12.9
135831	7	Sololá	701	Sololá	4	Finca Santa Victoria	10	Octubre	2023-12-10T00:00:00	2024-11-08T04:00:00	3	Temperatura mínima	12.7
135832	7	Sololá	701	Sololá	4	Finca Santa Victoria	10	Octubre	2023-12-10T00:00:00	2024-11-08T04:00:00	5	Humedad	90
135833	7	Sololá	701	Sololá	4	Finca Santa Victoria	10	Octubre	2023-12-10T00:00:00	2024-11-08T04:00:00	6	Velocidad del viento	3.2
135834	7	Sololá	701	Sololá	4	Finca Santa Victoria	10	Octubre	2023-12-10T00:00:00	2024-11-08T04:00:00	7	Dirección del viento	3.22
135835	7	Sololá	701	Sololá	4	Finca Santa Victoria	10	Octubre	2023-12-10T00:00:00	2024-11-08T04:00:00	1	Precipitación	0
135836	7	Sololá	701	Sololá	4	Finca Santa Victoria	10	Octubre	2023-12-10T00:00:00	2024-11-08T04:00:00	8	Radiación solar	0
135837	7	Sololá	701	Sololá	4	Finca Santa Victoria	10	Octubre	2023-12-10T00:00:00	2024-11-08T05:00:00	2	Temperatura media	12.9
135838	7	Sololá	701	Sololá	4	Finca Santa Victoria	10	Octubre	2023-12-10T00:00:00	2024-11-08T05:00:00	4	Temperatura máxima	12.9
135839	7	Sololá	701	Sololá	4	Finca Santa Victoria	10	Octubre	2023-12-10T00:00:00	2024-11-08T05:00:00	3	Temperatura mínima	12.7
135840	7	Sololá	701	Sololá	4	Finca Santa Victoria	10	Octubre	2023-12-10T00:00:00	2024-11-08T05:00:00	5	Humedad	90
135841	7	Sololá	701	Sololá	4	Finca Santa Victoria	10	Octubre	2023-12-10T00:00:00	2024-11-08T05:00:00	6	Velocidad del viento	1.6
135842	7	Sololá	701	Sololá	4	Finca Santa Victoria	10	Octubre	2023-12-10T00:00:00	2024-11-08T05:00:00	7	Dirección del viento	1.61
135843	7	Sololá	701	Sololá	4	Finca Santa Victoria	10	Octubre	2023-12-10T00:00:00	2024-11-08T05:00:00	1	Precipitación	0
135844	7	Sololá	701	Sololá	4	Finca Santa Victoria	10	Octubre	2023-12-10T00:00:00	2024-11-08T05:00:00	8	Radiación solar	0
135845	7	Sololá	701	Sololá	4	Finca Santa Victoria	10	Octubre	2023-12-10T00:00:00	2024-11-08T06:00:00	2	Temperatura media	12.8
135846	7	Sololá	701	Sololá	4	Finca Santa Victoria	10	Octubre	2023-12-10T00:00:00	2024-11-08T06:00:00	4	Temperatura máxima	12.9
135847	7	Sololá	701	Sololá	4	Finca Santa Victoria	10	Octubre	2023-12-10T00:00:00	2024-11-08T06:00:00	3	Temperatura mínima	12.7
135848	7	Sololá	701	Sololá	4	Finca Santa Victoria	10	Octubre	2023-12-10T00:00:00	2024-11-08T06:00:00	5	Humedad	90
135849	7	Sololá	701	Sololá	4	Finca Santa Victoria	10	Octubre	2023-12-10T00:00:00	2024-11-08T06:00:00	6	Velocidad del viento	1.6
135850	7	Sololá	701	Sololá	4	Finca Santa Victoria	10	Octubre	2023-12-10T00:00:00	2024-11-08T06:00:00	7	Dirección del viento	1.61
135851	7	Sololá	701	Sololá	4	Finca Santa Victoria	10	Octubre	2023-12-10T00:00:00	2024-11-08T06:00:00	1	Precipitación	0
135852	7	Sololá	701	Sololá	4	Finca Santa Victoria	10	Octubre	2023-12-10T00:00:00	2024-11-08T06:00:00	8	Radiación solar	0
135853	7	Sololá	701	Sololá	4	Finca Santa Victoria	10	Octubre	2023-12-10T00:00:00	2024-11-08T07:00:00	2	Temperatura media	13.9
135854	7	Sololá	701	Sololá	4	Finca Santa Victoria	10	Octubre	2023-12-10T00:00:00	2024-11-08T07:00:00	4	Temperatura máxima	13.9
135855	7	Sololá	701	Sololá	4	Finca Santa Victoria	10	Octubre	2023-12-10T00:00:00	2024-11-08T07:00:00	3	Temperatura mínima	12.8
135856	7	Sololá	701	Sololá	4	Finca Santa Victoria	10	Octubre	2023-12-10T00:00:00	2024-11-08T07:00:00	5	Humedad	87
135857	7	Sololá	701	Sololá	4	Finca Santa Victoria	10	Octubre	2023-12-10T00:00:00	2024-11-08T07:00:00	6	Velocidad del viento	3.2
135858	7	Sololá	701	Sololá	4	Finca Santa Victoria	10	Octubre	2023-12-10T00:00:00	2024-11-08T07:00:00	7	Dirección del viento	3.22
135859	7	Sololá	701	Sololá	4	Finca Santa Victoria	10	Octubre	2023-12-10T00:00:00	2024-11-08T07:00:00	1	Precipitación	0
135860	7	Sololá	701	Sololá	4	Finca Santa Victoria	10	Octubre	2023-12-10T00:00:00	2024-11-08T07:00:00	8	Radiación solar	51
135861	7	Sololá	701	Sololá	4	Finca Santa Victoria	10	Octubre	2023-12-10T00:00:00	2024-11-08T08:00:00	2	Temperatura media	16.1
135862	7	Sololá	701	Sololá	4	Finca Santa Victoria	10	Octubre	2023-12-10T00:00:00	2024-11-08T08:00:00	4	Temperatura máxima	16.2
135863	7	Sololá	701	Sololá	4	Finca Santa Victoria	10	Octubre	2023-12-10T00:00:00	2024-11-08T08:00:00	3	Temperatura mínima	13.9
135864	7	Sololá	701	Sololá	4	Finca Santa Victoria	10	Octubre	2023-12-10T00:00:00	2024-11-08T08:00:00	5	Humedad	80
135865	7	Sololá	701	Sololá	4	Finca Santa Victoria	10	Octubre	2023-12-10T00:00:00	2024-11-08T08:00:00	6	Velocidad del viento	3.2
135866	7	Sololá	701	Sololá	4	Finca Santa Victoria	10	Octubre	2023-12-10T00:00:00	2024-11-08T08:00:00	7	Dirección del viento	3.22
135867	7	Sololá	701	Sololá	4	Finca Santa Victoria	10	Octubre	2023-12-10T00:00:00	2024-11-08T08:00:00	1	Precipitación	0
135868	7	Sololá	701	Sololá	4	Finca Santa Victoria	10	Octubre	2023-12-10T00:00:00	2024-11-08T08:00:00	8	Radiación solar	303
135869	7	Sololá	701	Sololá	4	Finca Santa Victoria	10	Octubre	2023-12-10T00:00:00	2024-11-08T09:00:00	2	Temperatura media	18.1
135870	7	Sololá	701	Sololá	4	Finca Santa Victoria	10	Octubre	2023-12-10T00:00:00	2024-11-08T09:00:00	4	Temperatura máxima	18.1
135871	7	Sololá	701	Sololá	4	Finca Santa Victoria	10	Octubre	2023-12-10T00:00:00	2024-11-08T09:00:00	3	Temperatura mínima	16.1
135872	7	Sololá	701	Sololá	4	Finca Santa Victoria	10	Octubre	2023-12-10T00:00:00	2024-11-08T09:00:00	5	Humedad	75
135873	7	Sololá	701	Sololá	4	Finca Santa Victoria	10	Octubre	2023-12-10T00:00:00	2024-11-08T09:00:00	6	Velocidad del viento	3.2
135874	7	Sololá	701	Sololá	4	Finca Santa Victoria	10	Octubre	2023-12-10T00:00:00	2024-11-08T09:00:00	7	Dirección del viento	3.22
135875	7	Sololá	701	Sololá	4	Finca Santa Victoria	10	Octubre	2023-12-10T00:00:00	2024-11-08T09:00:00	1	Precipitación	0
135876	7	Sololá	701	Sololá	4	Finca Santa Victoria	10	Octubre	2023-12-10T00:00:00	2024-11-08T09:00:00	8	Radiación solar	587
135877	7	Sololá	701	Sololá	4	Finca Santa Victoria	10	Octubre	2023-12-10T00:00:00	2024-11-08T10:00:00	2	Temperatura media	19.2
135878	7	Sololá	701	Sololá	4	Finca Santa Victoria	10	Octubre	2023-12-10T00:00:00	2024-11-08T10:00:00	4	Temperatura máxima	19.3
135879	7	Sololá	701	Sololá	4	Finca Santa Victoria	10	Octubre	2023-12-10T00:00:00	2024-11-08T10:00:00	3	Temperatura mínima	18.1
135880	7	Sololá	701	Sololá	4	Finca Santa Victoria	10	Octubre	2023-12-10T00:00:00	2024-11-08T10:00:00	5	Humedad	68
135881	7	Sololá	701	Sololá	4	Finca Santa Victoria	10	Octubre	2023-12-10T00:00:00	2024-11-08T10:00:00	6	Velocidad del viento	4.8
135882	7	Sololá	701	Sololá	4	Finca Santa Victoria	10	Octubre	2023-12-10T00:00:00	2024-11-08T10:00:00	7	Dirección del viento	4.83
135883	7	Sololá	701	Sololá	4	Finca Santa Victoria	10	Octubre	2023-12-10T00:00:00	2024-11-08T10:00:00	1	Precipitación	0
135884	7	Sololá	701	Sololá	4	Finca Santa Victoria	10	Octubre	2023-12-10T00:00:00	2024-11-08T10:00:00	8	Radiación solar	791
135885	7	Sololá	701	Sololá	4	Finca Santa Victoria	10	Octubre	2023-12-10T00:00:00	2024-11-08T11:00:00	2	Temperatura media	20.3
135886	7	Sololá	701	Sololá	4	Finca Santa Victoria	10	Octubre	2023-12-10T00:00:00	2024-11-08T11:00:00	4	Temperatura máxima	20.3
135887	7	Sololá	701	Sololá	4	Finca Santa Victoria	10	Octubre	2023-12-10T00:00:00	2024-11-08T11:00:00	3	Temperatura mínima	19.2
135888	7	Sololá	701	Sololá	4	Finca Santa Victoria	10	Octubre	2023-12-10T00:00:00	2024-11-08T11:00:00	5	Humedad	66
135889	7	Sololá	701	Sololá	4	Finca Santa Victoria	10	Octubre	2023-12-10T00:00:00	2024-11-08T11:00:00	6	Velocidad del viento	3.2
135890	7	Sololá	701	Sololá	4	Finca Santa Victoria	10	Octubre	2023-12-10T00:00:00	2024-11-08T11:00:00	7	Dirección del viento	3.22
135891	7	Sololá	701	Sololá	4	Finca Santa Victoria	10	Octubre	2023-12-10T00:00:00	2024-11-08T11:00:00	1	Precipitación	0
135892	7	Sololá	701	Sololá	4	Finca Santa Victoria	10	Octubre	2023-12-10T00:00:00	2024-11-08T11:00:00	8	Radiación solar	959
135893	7	Sololá	701	Sololá	4	Finca Santa Victoria	10	Octubre	2023-12-10T00:00:00	2024-11-08T12:00:00	2	Temperatura media	20.4
135894	7	Sololá	701	Sololá	4	Finca Santa Victoria	10	Octubre	2023-12-10T00:00:00	2024-11-08T12:00:00	4	Temperatura máxima	20.7
135895	7	Sololá	701	Sololá	4	Finca Santa Victoria	10	Octubre	2023-12-10T00:00:00	2024-11-08T12:00:00	3	Temperatura mínima	20.2
135896	7	Sololá	701	Sololá	4	Finca Santa Victoria	10	Octubre	2023-12-10T00:00:00	2024-11-08T12:00:00	5	Humedad	66
135897	7	Sololá	701	Sololá	4	Finca Santa Victoria	10	Octubre	2023-12-10T00:00:00	2024-11-08T12:00:00	6	Velocidad del viento	1.6
135898	7	Sololá	701	Sololá	4	Finca Santa Victoria	10	Octubre	2023-12-10T00:00:00	2024-11-08T12:00:00	7	Dirección del viento	1.61
135899	7	Sololá	701	Sololá	4	Finca Santa Victoria	10	Octubre	2023-12-10T00:00:00	2024-11-08T12:00:00	1	Precipitación	0
135900	7	Sololá	701	Sololá	4	Finca Santa Victoria	10	Octubre	2023-12-10T00:00:00	2024-11-08T12:00:00	8	Radiación solar	941
135901	7	Sololá	701	Sololá	4	Finca Santa Victoria	10	Octubre	2023-12-10T00:00:00	2024-11-08T13:00:00	2	Temperatura media	20.6
135902	7	Sololá	701	Sololá	4	Finca Santa Victoria	10	Octubre	2023-12-10T00:00:00	2024-11-08T13:00:00	4	Temperatura máxima	20.8
135903	7	Sololá	701	Sololá	4	Finca Santa Victoria	10	Octubre	2023-12-10T00:00:00	2024-11-08T13:00:00	3	Temperatura mínima	19.4
135904	7	Sololá	701	Sololá	4	Finca Santa Victoria	10	Octubre	2023-12-10T00:00:00	2024-11-08T13:00:00	5	Humedad	66
135905	7	Sololá	701	Sololá	4	Finca Santa Victoria	10	Octubre	2023-12-10T00:00:00	2024-11-08T13:00:00	6	Velocidad del viento	3.2
135906	7	Sololá	701	Sololá	4	Finca Santa Victoria	10	Octubre	2023-12-10T00:00:00	2024-11-08T13:00:00	7	Dirección del viento	3.22
135907	7	Sololá	701	Sololá	4	Finca Santa Victoria	10	Octubre	2023-12-10T00:00:00	2024-11-08T13:00:00	1	Precipitación	0
135908	7	Sololá	701	Sololá	4	Finca Santa Victoria	10	Octubre	2023-12-10T00:00:00	2024-11-08T13:00:00	8	Radiación solar	519
135909	7	Sololá	701	Sololá	4	Finca Santa Victoria	10	Octubre	2023-12-10T00:00:00	2024-11-08T14:00:00	2	Temperatura media	19.2
135910	7	Sololá	701	Sololá	4	Finca Santa Victoria	10	Octubre	2023-12-10T00:00:00	2024-11-08T14:00:00	4	Temperatura máxima	20.6
135911	7	Sololá	701	Sololá	4	Finca Santa Victoria	10	Octubre	2023-12-10T00:00:00	2024-11-08T14:00:00	3	Temperatura mínima	18.9
135912	7	Sololá	701	Sololá	4	Finca Santa Victoria	10	Octubre	2023-12-10T00:00:00	2024-11-08T14:00:00	5	Humedad	70
135913	7	Sololá	701	Sololá	4	Finca Santa Victoria	10	Octubre	2023-12-10T00:00:00	2024-11-08T14:00:00	6	Velocidad del viento	1.6
135914	7	Sololá	701	Sololá	4	Finca Santa Victoria	10	Octubre	2023-12-10T00:00:00	2024-11-08T14:00:00	7	Dirección del viento	1.61
135915	7	Sololá	701	Sololá	4	Finca Santa Victoria	10	Octubre	2023-12-10T00:00:00	2024-11-08T14:00:00	1	Precipitación	0
135916	7	Sololá	701	Sololá	4	Finca Santa Victoria	10	Octubre	2023-12-10T00:00:00	2024-11-08T14:00:00	8	Radiación solar	146
135917	7	Sololá	701	Sololá	4	Finca Santa Victoria	10	Octubre	2023-12-10T00:00:00	2024-11-08T15:00:00	2	Temperatura media	18.6
135918	7	Sololá	701	Sololá	4	Finca Santa Victoria	10	Octubre	2023-12-10T00:00:00	2024-11-08T15:00:00	4	Temperatura máxima	20.5
135919	7	Sololá	701	Sololá	4	Finca Santa Victoria	10	Octubre	2023-12-10T00:00:00	2024-11-08T15:00:00	3	Temperatura mínima	18.6
135920	7	Sololá	701	Sololá	4	Finca Santa Victoria	10	Octubre	2023-12-10T00:00:00	2024-11-08T15:00:00	5	Humedad	71
135921	7	Sololá	701	Sololá	4	Finca Santa Victoria	10	Octubre	2023-12-10T00:00:00	2024-11-08T15:00:00	6	Velocidad del viento	1.6
135922	7	Sololá	701	Sololá	4	Finca Santa Victoria	10	Octubre	2023-12-10T00:00:00	2024-11-08T15:00:00	7	Dirección del viento	1.61
135923	7	Sololá	701	Sololá	4	Finca Santa Victoria	10	Octubre	2023-12-10T00:00:00	2024-11-08T15:00:00	1	Precipitación	0
135924	7	Sololá	701	Sololá	4	Finca Santa Victoria	10	Octubre	2023-12-10T00:00:00	2024-11-08T15:00:00	8	Radiación solar	88
135925	7	Sololá	701	Sololá	4	Finca Santa Victoria	10	Octubre	2023-12-10T00:00:00	2024-11-08T16:00:00	2	Temperatura media	19.1
135926	7	Sololá	701	Sololá	4	Finca Santa Victoria	10	Octubre	2023-12-10T00:00:00	2024-11-08T16:00:00	4	Temperatura máxima	19.2
135927	7	Sololá	701	Sololá	4	Finca Santa Victoria	10	Octubre	2023-12-10T00:00:00	2024-11-08T16:00:00	3	Temperatura mínima	18.1
135928	7	Sololá	701	Sololá	4	Finca Santa Victoria	10	Octubre	2023-12-10T00:00:00	2024-11-08T16:00:00	5	Humedad	71
135929	7	Sololá	701	Sololá	4	Finca Santa Victoria	10	Octubre	2023-12-10T00:00:00	2024-11-08T16:00:00	6	Velocidad del viento	1.6
135930	7	Sololá	701	Sololá	4	Finca Santa Victoria	10	Octubre	2023-12-10T00:00:00	2024-11-08T16:00:00	7	Dirección del viento	1.61
135931	7	Sololá	701	Sololá	4	Finca Santa Victoria	10	Octubre	2023-12-10T00:00:00	2024-11-08T16:00:00	1	Precipitación	0
135932	7	Sololá	701	Sololá	4	Finca Santa Victoria	10	Octubre	2023-12-10T00:00:00	2024-11-08T16:00:00	8	Radiación solar	71
135933	7	Sololá	701	Sololá	4	Finca Santa Victoria	10	Octubre	2023-12-10T00:00:00	2024-11-08T17:00:00	2	Temperatura media	17.6
135934	7	Sololá	701	Sololá	4	Finca Santa Victoria	10	Octubre	2023-12-10T00:00:00	2024-11-08T17:00:00	4	Temperatura máxima	19.1
135935	7	Sololá	701	Sololá	4	Finca Santa Victoria	10	Octubre	2023-12-10T00:00:00	2024-11-08T17:00:00	3	Temperatura mínima	17.6
135936	7	Sololá	701	Sololá	4	Finca Santa Victoria	10	Octubre	2023-12-10T00:00:00	2024-11-08T17:00:00	5	Humedad	77
135937	7	Sololá	701	Sololá	4	Finca Santa Victoria	10	Octubre	2023-12-10T00:00:00	2024-11-08T17:00:00	6	Velocidad del viento	3.2
135938	7	Sololá	701	Sololá	4	Finca Santa Victoria	10	Octubre	2023-12-10T00:00:00	2024-11-08T17:00:00	7	Dirección del viento	3.22
135939	7	Sololá	701	Sololá	4	Finca Santa Victoria	10	Octubre	2023-12-10T00:00:00	2024-11-08T17:00:00	1	Precipitación	0
135940	7	Sololá	701	Sololá	4	Finca Santa Victoria	10	Octubre	2023-12-10T00:00:00	2024-11-08T17:00:00	8	Radiación solar	42
135941	7	Sololá	701	Sololá	4	Finca Santa Victoria	10	Octubre	2023-12-10T00:00:00	2024-11-08T18:00:00	2	Temperatura media	15.7
135942	7	Sololá	701	Sololá	4	Finca Santa Victoria	10	Octubre	2023-12-10T00:00:00	2024-11-08T18:00:00	4	Temperatura máxima	17.6
135943	7	Sololá	701	Sololá	4	Finca Santa Victoria	10	Octubre	2023-12-10T00:00:00	2024-11-08T18:00:00	3	Temperatura mínima	15.7
135944	7	Sololá	701	Sololá	4	Finca Santa Victoria	10	Octubre	2023-12-10T00:00:00	2024-11-08T18:00:00	5	Humedad	85
135945	7	Sololá	701	Sololá	4	Finca Santa Victoria	10	Octubre	2023-12-10T00:00:00	2024-11-08T18:00:00	6	Velocidad del viento	1.6
135946	7	Sololá	701	Sololá	4	Finca Santa Victoria	10	Octubre	2023-12-10T00:00:00	2024-11-08T18:00:00	7	Dirección del viento	1.61
135947	7	Sololá	701	Sololá	4	Finca Santa Victoria	10	Octubre	2023-12-10T00:00:00	2024-11-08T18:00:00	1	Precipitación	0
135948	7	Sololá	701	Sololá	4	Finca Santa Victoria	10	Octubre	2023-12-10T00:00:00	2024-11-08T18:00:00	8	Radiación solar	12
135949	7	Sololá	701	Sololá	4	Finca Santa Victoria	10	Octubre	2023-12-10T00:00:00	2024-11-08T19:00:00	2	Temperatura media	15
135950	7	Sololá	701	Sololá	4	Finca Santa Victoria	10	Octubre	2023-12-10T00:00:00	2024-11-08T19:00:00	4	Temperatura máxima	15.7
135951	7	Sololá	701	Sololá	4	Finca Santa Victoria	10	Octubre	2023-12-10T00:00:00	2024-11-08T19:00:00	3	Temperatura mínima	15
135952	7	Sololá	701	Sololá	4	Finca Santa Victoria	10	Octubre	2023-12-10T00:00:00	2024-11-08T19:00:00	5	Humedad	88
135953	7	Sololá	701	Sololá	4	Finca Santa Victoria	10	Octubre	2023-12-10T00:00:00	2024-11-08T19:00:00	6	Velocidad del viento	1.6
135954	7	Sololá	701	Sololá	4	Finca Santa Victoria	10	Octubre	2023-12-10T00:00:00	2024-11-08T19:00:00	7	Dirección del viento	1.61
135955	7	Sololá	701	Sololá	4	Finca Santa Victoria	10	Octubre	2023-12-10T00:00:00	2024-11-08T19:00:00	1	Precipitación	0
135956	7	Sololá	701	Sololá	4	Finca Santa Victoria	10	Octubre	2023-12-10T00:00:00	2024-11-08T19:00:00	8	Radiación solar	0
135957	7	Sololá	701	Sololá	4	Finca Santa Victoria	10	Octubre	2023-12-10T00:00:00	2024-11-08T20:00:00	2	Temperatura media	15.1
135958	7	Sololá	701	Sololá	4	Finca Santa Victoria	10	Octubre	2023-12-10T00:00:00	2024-11-08T20:00:00	4	Temperatura máxima	15.1
135959	7	Sololá	701	Sololá	4	Finca Santa Victoria	10	Octubre	2023-12-10T00:00:00	2024-11-08T20:00:00	3	Temperatura mínima	14.9
135960	7	Sololá	701	Sololá	4	Finca Santa Victoria	10	Octubre	2023-12-10T00:00:00	2024-11-08T20:00:00	5	Humedad	88
135961	7	Sololá	701	Sololá	4	Finca Santa Victoria	10	Octubre	2023-12-10T00:00:00	2024-11-08T20:00:00	6	Velocidad del viento	1.6
135962	7	Sololá	701	Sololá	4	Finca Santa Victoria	10	Octubre	2023-12-10T00:00:00	2024-11-08T20:00:00	7	Dirección del viento	1.61
135963	7	Sololá	701	Sololá	4	Finca Santa Victoria	10	Octubre	2023-12-10T00:00:00	2024-11-08T20:00:00	1	Precipitación	0
135964	7	Sololá	701	Sololá	4	Finca Santa Victoria	10	Octubre	2023-12-10T00:00:00	2024-11-08T20:00:00	8	Radiación solar	0
135965	7	Sololá	701	Sololá	4	Finca Santa Victoria	10	Octubre	2023-12-10T00:00:00	2024-11-08T21:00:00	2	Temperatura media	14.7
135966	7	Sololá	701	Sololá	4	Finca Santa Victoria	10	Octubre	2023-12-10T00:00:00	2024-11-08T21:00:00	4	Temperatura máxima	15.1
135967	7	Sololá	701	Sololá	4	Finca Santa Victoria	10	Octubre	2023-12-10T00:00:00	2024-11-08T21:00:00	3	Temperatura mínima	14.7
135968	7	Sololá	701	Sololá	4	Finca Santa Victoria	10	Octubre	2023-12-10T00:00:00	2024-11-08T21:00:00	5	Humedad	89
135969	7	Sololá	701	Sololá	4	Finca Santa Victoria	10	Octubre	2023-12-10T00:00:00	2024-11-08T21:00:00	6	Velocidad del viento	0
135970	7	Sololá	701	Sololá	4	Finca Santa Victoria	10	Octubre	2023-12-10T00:00:00	2024-11-08T21:00:00	7	Dirección del viento	0
135971	7	Sololá	701	Sololá	4	Finca Santa Victoria	10	Octubre	2023-12-10T00:00:00	2024-11-08T21:00:00	1	Precipitación	0
135972	7	Sololá	701	Sololá	4	Finca Santa Victoria	10	Octubre	2023-12-10T00:00:00	2024-11-08T21:00:00	8	Radiación solar	0
135973	7	Sololá	701	Sololá	4	Finca Santa Victoria	10	Octubre	2023-12-10T00:00:00	2024-11-08T22:00:00	2	Temperatura media	13.8
135974	7	Sololá	701	Sololá	4	Finca Santa Victoria	10	Octubre	2023-12-10T00:00:00	2024-11-08T22:00:00	4	Temperatura máxima	14.7
135975	7	Sololá	701	Sololá	4	Finca Santa Victoria	10	Octubre	2023-12-10T00:00:00	2024-11-08T22:00:00	3	Temperatura mínima	13.8
135976	7	Sololá	701	Sololá	4	Finca Santa Victoria	10	Octubre	2023-12-10T00:00:00	2024-11-08T22:00:00	5	Humedad	90
135977	7	Sololá	701	Sololá	4	Finca Santa Victoria	10	Octubre	2023-12-10T00:00:00	2024-11-08T22:00:00	6	Velocidad del viento	0
135978	7	Sololá	701	Sololá	4	Finca Santa Victoria	10	Octubre	2023-12-10T00:00:00	2024-11-08T22:00:00	7	Dirección del viento	0
135979	7	Sololá	701	Sololá	4	Finca Santa Victoria	10	Octubre	2023-12-10T00:00:00	2024-11-08T22:00:00	1	Precipitación	0
135980	7	Sololá	701	Sololá	4	Finca Santa Victoria	10	Octubre	2023-12-10T00:00:00	2024-11-08T22:00:00	8	Radiación solar	0
135981	7	Sololá	701	Sololá	4	Finca Santa Victoria	10	Octubre	2023-12-10T00:00:00	2024-11-08T23:00:00	2	Temperatura media	13.9
135982	7	Sololá	701	Sololá	4	Finca Santa Victoria	10	Octubre	2023-12-10T00:00:00	2024-11-08T23:00:00	4	Temperatura máxima	14.1
135983	7	Sololá	701	Sololá	4	Finca Santa Victoria	10	Octubre	2023-12-10T00:00:00	2024-11-08T23:00:00	3	Temperatura mínima	13.8
135984	7	Sololá	701	Sololá	4	Finca Santa Victoria	10	Octubre	2023-12-10T00:00:00	2024-11-08T23:00:00	5	Humedad	88
135985	7	Sololá	701	Sololá	4	Finca Santa Victoria	10	Octubre	2023-12-10T00:00:00	2024-11-08T23:00:00	6	Velocidad del viento	0
135986	7	Sololá	701	Sololá	4	Finca Santa Victoria	10	Octubre	2023-12-10T00:00:00	2024-11-08T23:00:00	7	Dirección del viento	0
135987	7	Sololá	701	Sololá	4	Finca Santa Victoria	10	Octubre	2023-12-10T00:00:00	2024-11-08T23:00:00	1	Precipitación	0
135988	7	Sololá	701	Sololá	4	Finca Santa Victoria	10	Octubre	2023-12-10T00:00:00	2024-11-08T23:00:00	8	Radiación solar	0
135989	7	Sololá	701	Sololá	4	Finca Santa Victoria	10	Octubre	2023-10-13T00:00:00	2024-11-08T00:00:00	2	Temperatura media	14.1
135990	7	Sololá	701	Sololá	4	Finca Santa Victoria	10	Octubre	2023-10-13T00:00:00	2024-11-08T00:00:00	4	Temperatura máxima	14.1
135991	7	Sololá	701	Sololá	4	Finca Santa Victoria	10	Octubre	2023-10-13T00:00:00	2024-11-08T00:00:00	3	Temperatura mínima	13.9
135992	7	Sololá	701	Sololá	4	Finca Santa Victoria	10	Octubre	2023-10-13T00:00:00	2024-11-08T00:00:00	5	Humedad	87
135993	7	Sololá	701	Sololá	4	Finca Santa Victoria	10	Octubre	2023-10-13T00:00:00	2024-11-08T00:00:00	6	Velocidad del viento	1.6
135994	7	Sololá	701	Sololá	4	Finca Santa Victoria	10	Octubre	2023-10-13T00:00:00	2024-11-08T00:00:00	7	Dirección del viento	1.61
135995	7	Sololá	701	Sololá	4	Finca Santa Victoria	10	Octubre	2023-10-13T00:00:00	2024-11-08T00:00:00	1	Precipitación	0
135996	7	Sololá	701	Sololá	4	Finca Santa Victoria	10	Octubre	2023-10-13T00:00:00	2024-11-08T00:00:00	8	Radiación solar	0
135997	7	Sololá	701	Sololá	4	Finca Santa Victoria	10	Octubre	2023-10-13T00:00:00	2024-11-08T01:00:00	2	Temperatura media	13.6
135998	7	Sololá	701	Sololá	4	Finca Santa Victoria	10	Octubre	2023-10-13T00:00:00	2024-11-08T01:00:00	4	Temperatura máxima	14.1
135999	7	Sololá	701	Sololá	4	Finca Santa Victoria	10	Octubre	2023-10-13T00:00:00	2024-11-08T01:00:00	3	Temperatura mínima	13.6
136000	7	Sololá	701	Sololá	4	Finca Santa Victoria	10	Octubre	2023-10-13T00:00:00	2024-11-08T01:00:00	5	Humedad	88
136001	7	Sololá	701	Sololá	4	Finca Santa Victoria	10	Octubre	2023-10-13T00:00:00	2024-11-08T01:00:00	6	Velocidad del viento	1.6
136002	7	Sololá	701	Sololá	4	Finca Santa Victoria	10	Octubre	2023-10-13T00:00:00	2024-11-08T01:00:00	7	Dirección del viento	1.61
136003	7	Sololá	701	Sololá	4	Finca Santa Victoria	10	Octubre	2023-10-13T00:00:00	2024-11-08T01:00:00	1	Precipitación	0
136004	7	Sololá	701	Sololá	4	Finca Santa Victoria	10	Octubre	2023-10-13T00:00:00	2024-11-08T01:00:00	8	Radiación solar	0
136005	7	Sololá	701	Sololá	4	Finca Santa Victoria	10	Octubre	2023-10-13T00:00:00	2024-11-08T02:00:00	2	Temperatura media	12.8
136006	7	Sololá	701	Sololá	4	Finca Santa Victoria	10	Octubre	2023-10-13T00:00:00	2024-11-08T02:00:00	4	Temperatura máxima	13.6
136007	7	Sololá	701	Sololá	4	Finca Santa Victoria	10	Octubre	2023-10-13T00:00:00	2024-11-08T02:00:00	3	Temperatura mínima	12.8
136008	7	Sololá	701	Sololá	4	Finca Santa Victoria	10	Octubre	2023-10-13T00:00:00	2024-11-08T02:00:00	5	Humedad	87
136009	7	Sololá	701	Sololá	4	Finca Santa Victoria	10	Octubre	2023-10-13T00:00:00	2024-11-08T02:00:00	6	Velocidad del viento	0
136010	7	Sololá	701	Sololá	4	Finca Santa Victoria	10	Octubre	2023-10-13T00:00:00	2024-11-08T02:00:00	7	Dirección del viento	0
136011	7	Sololá	701	Sololá	4	Finca Santa Victoria	10	Octubre	2023-10-13T00:00:00	2024-11-08T02:00:00	1	Precipitación	0
136012	7	Sololá	701	Sololá	4	Finca Santa Victoria	10	Octubre	2023-10-13T00:00:00	2024-11-08T02:00:00	8	Radiación solar	0
136013	7	Sololá	701	Sololá	4	Finca Santa Victoria	10	Octubre	2023-10-13T00:00:00	2024-11-08T03:00:00	2	Temperatura media	12.2
136014	7	Sololá	701	Sololá	4	Finca Santa Victoria	10	Octubre	2023-10-13T00:00:00	2024-11-08T03:00:00	4	Temperatura máxima	12.8
136015	7	Sololá	701	Sololá	4	Finca Santa Victoria	10	Octubre	2023-10-13T00:00:00	2024-11-08T03:00:00	3	Temperatura mínima	12.1
136016	7	Sololá	701	Sololá	4	Finca Santa Victoria	10	Octubre	2023-10-13T00:00:00	2024-11-08T03:00:00	5	Humedad	89
136017	7	Sololá	701	Sololá	4	Finca Santa Victoria	10	Octubre	2023-10-13T00:00:00	2024-11-08T03:00:00	6	Velocidad del viento	3.2
136018	7	Sololá	701	Sololá	4	Finca Santa Victoria	10	Octubre	2023-10-13T00:00:00	2024-11-08T03:00:00	7	Dirección del viento	3.22
136019	7	Sololá	701	Sololá	4	Finca Santa Victoria	10	Octubre	2023-10-13T00:00:00	2024-11-08T03:00:00	1	Precipitación	0
136020	7	Sololá	701	Sololá	4	Finca Santa Victoria	10	Octubre	2023-10-13T00:00:00	2024-11-08T03:00:00	8	Radiación solar	0
136021	7	Sololá	701	Sololá	4	Finca Santa Victoria	10	Octubre	2023-10-13T00:00:00	2024-11-08T04:00:00	2	Temperatura media	12.6
136022	7	Sololá	701	Sololá	4	Finca Santa Victoria	10	Octubre	2023-10-13T00:00:00	2024-11-08T04:00:00	4	Temperatura máxima	12.6
136023	7	Sololá	701	Sololá	4	Finca Santa Victoria	10	Octubre	2023-10-13T00:00:00	2024-11-08T04:00:00	3	Temperatura mínima	12.2
136024	7	Sololá	701	Sololá	4	Finca Santa Victoria	10	Octubre	2023-10-13T00:00:00	2024-11-08T04:00:00	5	Humedad	89
136025	7	Sololá	701	Sololá	4	Finca Santa Victoria	10	Octubre	2023-10-13T00:00:00	2024-11-08T04:00:00	6	Velocidad del viento	1.6
136026	7	Sololá	701	Sololá	4	Finca Santa Victoria	10	Octubre	2023-10-13T00:00:00	2024-11-08T04:00:00	7	Dirección del viento	1.61
136027	7	Sololá	701	Sololá	4	Finca Santa Victoria	10	Octubre	2023-10-13T00:00:00	2024-11-08T04:00:00	1	Precipitación	0
136028	7	Sololá	701	Sololá	4	Finca Santa Victoria	10	Octubre	2023-10-13T00:00:00	2024-11-08T04:00:00	8	Radiación solar	0
136029	7	Sololá	701	Sololá	4	Finca Santa Victoria	10	Octubre	2023-10-13T00:00:00	2024-11-08T05:00:00	2	Temperatura media	12.3
136030	7	Sololá	701	Sololá	4	Finca Santa Victoria	10	Octubre	2023-10-13T00:00:00	2024-11-08T05:00:00	4	Temperatura máxima	12.6
136031	7	Sololá	701	Sololá	4	Finca Santa Victoria	10	Octubre	2023-10-13T00:00:00	2024-11-08T05:00:00	3	Temperatura mínima	12.3
136032	7	Sololá	701	Sololá	4	Finca Santa Victoria	10	Octubre	2023-10-13T00:00:00	2024-11-08T05:00:00	5	Humedad	88
136033	7	Sololá	701	Sololá	4	Finca Santa Victoria	10	Octubre	2023-10-13T00:00:00	2024-11-08T05:00:00	6	Velocidad del viento	1.6
136034	7	Sololá	701	Sololá	4	Finca Santa Victoria	10	Octubre	2023-10-13T00:00:00	2024-11-08T05:00:00	7	Dirección del viento	1.61
136035	7	Sololá	701	Sololá	4	Finca Santa Victoria	10	Octubre	2023-10-13T00:00:00	2024-11-08T05:00:00	1	Precipitación	0
136036	7	Sololá	701	Sololá	4	Finca Santa Victoria	10	Octubre	2023-10-13T00:00:00	2024-11-08T05:00:00	8	Radiación solar	0
136037	7	Sololá	701	Sololá	4	Finca Santa Victoria	10	Octubre	2023-10-13T00:00:00	2024-11-08T06:00:00	2	Temperatura media	12.3
136038	7	Sololá	701	Sololá	4	Finca Santa Victoria	10	Octubre	2023-10-13T00:00:00	2024-11-08T06:00:00	4	Temperatura máxima	12.4
136039	7	Sololá	701	Sololá	4	Finca Santa Victoria	10	Octubre	2023-10-13T00:00:00	2024-11-08T06:00:00	3	Temperatura mínima	12.2
136040	7	Sololá	701	Sololá	4	Finca Santa Victoria	10	Octubre	2023-10-13T00:00:00	2024-11-08T06:00:00	5	Humedad	86
136041	7	Sololá	701	Sololá	4	Finca Santa Victoria	10	Octubre	2023-10-13T00:00:00	2024-11-08T06:00:00	6	Velocidad del viento	3.2
136042	7	Sololá	701	Sololá	4	Finca Santa Victoria	10	Octubre	2023-10-13T00:00:00	2024-11-08T06:00:00	7	Dirección del viento	3.22
136043	7	Sololá	701	Sololá	4	Finca Santa Victoria	10	Octubre	2023-10-13T00:00:00	2024-11-08T06:00:00	1	Precipitación	0
136044	7	Sololá	701	Sololá	4	Finca Santa Victoria	10	Octubre	2023-10-13T00:00:00	2024-11-08T06:00:00	8	Radiación solar	0
136045	7	Sololá	701	Sololá	4	Finca Santa Victoria	10	Octubre	2023-10-13T00:00:00	2024-11-08T07:00:00	2	Temperatura media	12.4
136046	7	Sololá	701	Sololá	4	Finca Santa Victoria	10	Octubre	2023-10-13T00:00:00	2024-11-08T07:00:00	4	Temperatura máxima	12.4
136047	7	Sololá	701	Sololá	4	Finca Santa Victoria	10	Octubre	2023-10-13T00:00:00	2024-11-08T07:00:00	3	Temperatura mínima	12.2
136048	7	Sololá	701	Sololá	4	Finca Santa Victoria	10	Octubre	2023-10-13T00:00:00	2024-11-08T07:00:00	5	Humedad	81
136049	7	Sololá	701	Sololá	4	Finca Santa Victoria	10	Octubre	2023-10-13T00:00:00	2024-11-08T07:00:00	6	Velocidad del viento	3.2
136050	7	Sololá	701	Sololá	4	Finca Santa Victoria	10	Octubre	2023-10-13T00:00:00	2024-11-08T07:00:00	7	Dirección del viento	3.22
136051	7	Sololá	701	Sololá	4	Finca Santa Victoria	10	Octubre	2023-10-13T00:00:00	2024-11-08T07:00:00	1	Precipitación	0
136052	7	Sololá	701	Sololá	4	Finca Santa Victoria	10	Octubre	2023-10-13T00:00:00	2024-11-08T07:00:00	8	Radiación solar	31
136053	7	Sololá	701	Sololá	4	Finca Santa Victoria	10	Octubre	2023-10-13T00:00:00	2024-11-08T08:00:00	2	Temperatura media	15
136054	7	Sololá	701	Sololá	4	Finca Santa Victoria	10	Octubre	2023-10-13T00:00:00	2024-11-08T08:00:00	4	Temperatura máxima	15.1
136055	7	Sololá	701	Sololá	4	Finca Santa Victoria	10	Octubre	2023-10-13T00:00:00	2024-11-08T08:00:00	3	Temperatura mínima	12.4
136056	7	Sololá	701	Sololá	4	Finca Santa Victoria	10	Octubre	2023-10-13T00:00:00	2024-11-08T08:00:00	5	Humedad	74
136057	7	Sololá	701	Sololá	4	Finca Santa Victoria	10	Octubre	2023-10-13T00:00:00	2024-11-08T08:00:00	6	Velocidad del viento	3.2
136058	7	Sololá	701	Sololá	4	Finca Santa Victoria	10	Octubre	2023-10-13T00:00:00	2024-11-08T08:00:00	7	Dirección del viento	3.22
136059	7	Sololá	701	Sololá	4	Finca Santa Victoria	10	Octubre	2023-10-13T00:00:00	2024-11-08T08:00:00	1	Precipitación	0
136060	7	Sololá	701	Sololá	4	Finca Santa Victoria	10	Octubre	2023-10-13T00:00:00	2024-11-08T08:00:00	8	Radiación solar	270
136061	7	Sololá	701	Sololá	4	Finca Santa Victoria	10	Octubre	2023-10-13T00:00:00	2024-11-08T09:00:00	2	Temperatura media	16.2
136062	7	Sololá	701	Sololá	4	Finca Santa Victoria	10	Octubre	2023-10-13T00:00:00	2024-11-08T09:00:00	4	Temperatura máxima	16.3
136063	7	Sololá	701	Sololá	4	Finca Santa Victoria	10	Octubre	2023-10-13T00:00:00	2024-11-08T09:00:00	3	Temperatura mínima	15
136064	7	Sololá	701	Sololá	4	Finca Santa Victoria	10	Octubre	2023-10-13T00:00:00	2024-11-08T09:00:00	5	Humedad	75
136065	7	Sololá	701	Sololá	4	Finca Santa Victoria	10	Octubre	2023-10-13T00:00:00	2024-11-08T09:00:00	6	Velocidad del viento	3.2
136066	7	Sololá	701	Sololá	4	Finca Santa Victoria	10	Octubre	2023-10-13T00:00:00	2024-11-08T09:00:00	7	Dirección del viento	3.22
136067	7	Sololá	701	Sololá	4	Finca Santa Victoria	10	Octubre	2023-10-13T00:00:00	2024-11-08T09:00:00	1	Precipitación	0
136068	7	Sololá	701	Sololá	4	Finca Santa Victoria	10	Octubre	2023-10-13T00:00:00	2024-11-08T09:00:00	8	Radiación solar	613
136069	7	Sololá	701	Sololá	4	Finca Santa Victoria	10	Octubre	2023-10-13T00:00:00	2024-11-08T10:00:00	2	Temperatura media	17.4
136070	7	Sololá	701	Sololá	4	Finca Santa Victoria	10	Octubre	2023-10-13T00:00:00	2024-11-08T10:00:00	4	Temperatura máxima	17.4
136071	7	Sololá	701	Sololá	4	Finca Santa Victoria	10	Octubre	2023-10-13T00:00:00	2024-11-08T10:00:00	3	Temperatura mínima	16.2
136072	7	Sololá	701	Sololá	4	Finca Santa Victoria	10	Octubre	2023-10-13T00:00:00	2024-11-08T10:00:00	5	Humedad	75
136073	7	Sololá	701	Sololá	4	Finca Santa Victoria	10	Octubre	2023-10-13T00:00:00	2024-11-08T10:00:00	6	Velocidad del viento	3.2
136074	7	Sololá	701	Sololá	4	Finca Santa Victoria	10	Octubre	2023-10-13T00:00:00	2024-11-08T10:00:00	7	Dirección del viento	3.22
136075	7	Sololá	701	Sololá	4	Finca Santa Victoria	10	Octubre	2023-10-13T00:00:00	2024-11-08T10:00:00	1	Precipitación	0
136076	7	Sololá	701	Sololá	4	Finca Santa Victoria	10	Octubre	2023-10-13T00:00:00	2024-11-08T10:00:00	8	Radiación solar	810
136077	7	Sololá	701	Sololá	4	Finca Santa Victoria	10	Octubre	2023-10-13T00:00:00	2024-11-08T11:00:00	2	Temperatura media	19.2
136078	7	Sololá	701	Sololá	4	Finca Santa Victoria	10	Octubre	2023-10-13T00:00:00	2024-11-08T11:00:00	4	Temperatura máxima	19.2
136079	7	Sololá	701	Sololá	4	Finca Santa Victoria	10	Octubre	2023-10-13T00:00:00	2024-11-08T11:00:00	3	Temperatura mínima	17.4
136080	7	Sololá	701	Sololá	4	Finca Santa Victoria	10	Octubre	2023-10-13T00:00:00	2024-11-08T11:00:00	5	Humedad	69
136081	7	Sololá	701	Sololá	4	Finca Santa Victoria	10	Octubre	2023-10-13T00:00:00	2024-11-08T11:00:00	6	Velocidad del viento	3.2
136082	7	Sololá	701	Sololá	4	Finca Santa Victoria	10	Octubre	2023-10-13T00:00:00	2024-11-08T11:00:00	7	Dirección del viento	3.22
136083	7	Sololá	701	Sololá	4	Finca Santa Victoria	10	Octubre	2023-10-13T00:00:00	2024-11-08T11:00:00	1	Precipitación	0
136084	7	Sololá	701	Sololá	4	Finca Santa Victoria	10	Octubre	2023-10-13T00:00:00	2024-11-08T11:00:00	8	Radiación solar	936
136085	7	Sololá	701	Sololá	4	Finca Santa Victoria	10	Octubre	2023-10-13T00:00:00	2024-11-08T12:00:00	2	Temperatura media	19.6
136086	7	Sololá	701	Sololá	4	Finca Santa Victoria	10	Octubre	2023-10-13T00:00:00	2024-11-08T12:00:00	4	Temperatura máxima	19.7
136087	7	Sololá	701	Sololá	4	Finca Santa Victoria	10	Octubre	2023-10-13T00:00:00	2024-11-08T12:00:00	3	Temperatura mínima	18.8
136088	7	Sololá	701	Sololá	4	Finca Santa Victoria	10	Octubre	2023-10-13T00:00:00	2024-11-08T12:00:00	5	Humedad	68
136089	7	Sololá	701	Sololá	4	Finca Santa Victoria	10	Octubre	2023-10-13T00:00:00	2024-11-08T12:00:00	6	Velocidad del viento	1.6
136090	7	Sololá	701	Sololá	4	Finca Santa Victoria	10	Octubre	2023-10-13T00:00:00	2024-11-08T12:00:00	7	Dirección del viento	1.61
136091	7	Sololá	701	Sololá	4	Finca Santa Victoria	10	Octubre	2023-10-13T00:00:00	2024-11-08T12:00:00	1	Precipitación	0
136092	7	Sololá	701	Sololá	4	Finca Santa Victoria	10	Octubre	2023-10-13T00:00:00	2024-11-08T12:00:00	8	Radiación solar	809
136093	7	Sololá	701	Sololá	4	Finca Santa Victoria	10	Octubre	2023-10-13T00:00:00	2024-11-08T13:00:00	2	Temperatura media	19.6
136094	7	Sololá	701	Sololá	4	Finca Santa Victoria	10	Octubre	2023-10-13T00:00:00	2024-11-08T13:00:00	4	Temperatura máxima	19.6
136095	7	Sololá	701	Sololá	4	Finca Santa Victoria	10	Octubre	2023-10-13T00:00:00	2024-11-08T13:00:00	3	Temperatura mínima	18.4
136096	7	Sololá	701	Sololá	4	Finca Santa Victoria	10	Octubre	2023-10-13T00:00:00	2024-11-08T13:00:00	5	Humedad	74
136097	7	Sololá	701	Sololá	4	Finca Santa Victoria	10	Octubre	2023-10-13T00:00:00	2024-11-08T13:00:00	6	Velocidad del viento	1.6
136098	7	Sololá	701	Sololá	4	Finca Santa Victoria	10	Octubre	2023-10-13T00:00:00	2024-11-08T13:00:00	7	Dirección del viento	1.61
136099	7	Sololá	701	Sololá	4	Finca Santa Victoria	10	Octubre	2023-10-13T00:00:00	2024-11-08T13:00:00	1	Precipitación	0
136100	7	Sololá	701	Sololá	4	Finca Santa Victoria	10	Octubre	2023-10-13T00:00:00	2024-11-08T13:00:00	8	Radiación solar	310
136101	7	Sololá	701	Sololá	4	Finca Santa Victoria	10	Octubre	2023-10-13T00:00:00	2024-11-08T14:00:00	2	Temperatura media	19.9
136102	7	Sololá	701	Sololá	4	Finca Santa Victoria	10	Octubre	2023-10-13T00:00:00	2024-11-08T14:00:00	4	Temperatura máxima	20.2
136103	7	Sololá	701	Sololá	4	Finca Santa Victoria	10	Octubre	2023-10-13T00:00:00	2024-11-08T14:00:00	3	Temperatura mínima	19.6
136104	7	Sololá	701	Sololá	4	Finca Santa Victoria	10	Octubre	2023-10-13T00:00:00	2024-11-08T14:00:00	5	Humedad	71
136105	7	Sololá	701	Sololá	4	Finca Santa Victoria	10	Octubre	2023-10-13T00:00:00	2024-11-08T14:00:00	6	Velocidad del viento	1.6
136106	7	Sololá	701	Sololá	4	Finca Santa Victoria	10	Octubre	2023-10-13T00:00:00	2024-11-08T14:00:00	7	Dirección del viento	1.61
136107	7	Sololá	701	Sololá	4	Finca Santa Victoria	10	Octubre	2023-10-13T00:00:00	2024-11-08T14:00:00	1	Precipitación	0
136108	7	Sololá	701	Sololá	4	Finca Santa Victoria	10	Octubre	2023-10-13T00:00:00	2024-11-08T14:00:00	8	Radiación solar	162
136109	7	Sololá	701	Sololá	4	Finca Santa Victoria	10	Octubre	2023-10-13T00:00:00	2024-11-08T15:00:00	2	Temperatura media	18.5
136110	7	Sololá	701	Sololá	4	Finca Santa Victoria	10	Octubre	2023-10-13T00:00:00	2024-11-08T15:00:00	4	Temperatura máxima	20.6
136111	7	Sololá	701	Sololá	4	Finca Santa Victoria	10	Octubre	2023-10-13T00:00:00	2024-11-08T15:00:00	3	Temperatura mínima	18.5
136112	7	Sololá	701	Sololá	4	Finca Santa Victoria	10	Octubre	2023-10-13T00:00:00	2024-11-08T15:00:00	5	Humedad	69
136113	7	Sololá	701	Sololá	4	Finca Santa Victoria	10	Octubre	2023-10-13T00:00:00	2024-11-08T15:00:00	6	Velocidad del viento	0
136114	7	Sololá	701	Sololá	4	Finca Santa Victoria	10	Octubre	2023-10-13T00:00:00	2024-11-08T15:00:00	7	Dirección del viento	0
136115	7	Sololá	701	Sololá	4	Finca Santa Victoria	10	Octubre	2023-10-13T00:00:00	2024-11-08T15:00:00	1	Precipitación	0
136116	7	Sololá	701	Sololá	4	Finca Santa Victoria	10	Octubre	2023-10-13T00:00:00	2024-11-08T15:00:00	8	Radiación solar	125
136117	7	Sololá	701	Sololá	4	Finca Santa Victoria	10	Octubre	2023-10-13T00:00:00	2024-11-08T16:00:00	2	Temperatura media	17.4
136118	7	Sololá	701	Sololá	4	Finca Santa Victoria	10	Octubre	2023-10-13T00:00:00	2024-11-08T16:00:00	4	Temperatura máxima	18.5
136119	7	Sololá	701	Sololá	4	Finca Santa Victoria	10	Octubre	2023-10-13T00:00:00	2024-11-08T16:00:00	3	Temperatura mínima	17.3
136120	7	Sololá	701	Sololá	4	Finca Santa Victoria	10	Octubre	2023-10-13T00:00:00	2024-11-08T16:00:00	5	Humedad	74
136121	7	Sololá	701	Sololá	4	Finca Santa Victoria	10	Octubre	2023-10-13T00:00:00	2024-11-08T16:00:00	6	Velocidad del viento	0
136122	7	Sololá	701	Sololá	4	Finca Santa Victoria	10	Octubre	2023-10-13T00:00:00	2024-11-08T16:00:00	7	Dirección del viento	0
136123	7	Sololá	701	Sololá	4	Finca Santa Victoria	10	Octubre	2023-10-13T00:00:00	2024-11-08T16:00:00	1	Precipitación	0
136124	7	Sololá	701	Sololá	4	Finca Santa Victoria	10	Octubre	2023-10-13T00:00:00	2024-11-08T16:00:00	8	Radiación solar	77
136125	7	Sololá	701	Sololá	4	Finca Santa Victoria	10	Octubre	2023-10-13T00:00:00	2024-11-08T17:00:00	2	Temperatura media	15.8
136126	7	Sololá	701	Sololá	4	Finca Santa Victoria	10	Octubre	2023-10-13T00:00:00	2024-11-08T17:00:00	4	Temperatura máxima	17.4
136127	7	Sololá	701	Sololá	4	Finca Santa Victoria	10	Octubre	2023-10-13T00:00:00	2024-11-08T17:00:00	3	Temperatura mínima	15.8
136128	7	Sololá	701	Sololá	4	Finca Santa Victoria	10	Octubre	2023-10-13T00:00:00	2024-11-08T17:00:00	5	Humedad	80
136129	7	Sololá	701	Sololá	4	Finca Santa Victoria	10	Octubre	2023-10-13T00:00:00	2024-11-08T17:00:00	6	Velocidad del viento	0
136130	7	Sololá	701	Sololá	4	Finca Santa Victoria	10	Octubre	2023-10-13T00:00:00	2024-11-08T17:00:00	7	Dirección del viento	0
136131	7	Sololá	701	Sololá	4	Finca Santa Victoria	10	Octubre	2023-10-13T00:00:00	2024-11-08T17:00:00	1	Precipitación	0
136132	7	Sololá	701	Sololá	4	Finca Santa Victoria	10	Octubre	2023-10-13T00:00:00	2024-11-08T17:00:00	8	Radiación solar	23
136133	7	Sololá	701	Sololá	4	Finca Santa Victoria	10	Octubre	2023-10-13T00:00:00	2024-11-08T18:00:00	2	Temperatura media	15.3
136134	7	Sololá	701	Sololá	4	Finca Santa Victoria	10	Octubre	2023-10-13T00:00:00	2024-11-08T18:00:00	4	Temperatura máxima	15.8
136135	7	Sololá	701	Sololá	4	Finca Santa Victoria	10	Octubre	2023-10-13T00:00:00	2024-11-08T18:00:00	3	Temperatura mínima	15.3
136136	7	Sololá	701	Sololá	4	Finca Santa Victoria	10	Octubre	2023-10-13T00:00:00	2024-11-08T18:00:00	5	Humedad	86
136137	7	Sololá	701	Sololá	4	Finca Santa Victoria	10	Octubre	2023-10-13T00:00:00	2024-11-08T18:00:00	6	Velocidad del viento	1.6
136138	7	Sololá	701	Sololá	4	Finca Santa Victoria	10	Octubre	2023-10-13T00:00:00	2024-11-08T18:00:00	7	Dirección del viento	1.61
136139	7	Sololá	701	Sololá	4	Finca Santa Victoria	10	Octubre	2023-10-13T00:00:00	2024-11-08T18:00:00	1	Precipitación	0
136140	7	Sololá	701	Sololá	4	Finca Santa Victoria	10	Octubre	2023-10-13T00:00:00	2024-11-08T18:00:00	8	Radiación solar	1
136141	7	Sololá	701	Sololá	4	Finca Santa Victoria	10	Octubre	2023-10-13T00:00:00	2024-11-08T19:00:00	2	Temperatura media	14.2
136142	7	Sololá	701	Sololá	4	Finca Santa Victoria	10	Octubre	2023-10-13T00:00:00	2024-11-08T19:00:00	4	Temperatura máxima	15.3
136143	7	Sololá	701	Sololá	4	Finca Santa Victoria	10	Octubre	2023-10-13T00:00:00	2024-11-08T19:00:00	3	Temperatura mínima	14.2
136144	7	Sololá	701	Sololá	4	Finca Santa Victoria	10	Octubre	2023-10-13T00:00:00	2024-11-08T19:00:00	5	Humedad	92
136145	7	Sololá	701	Sololá	4	Finca Santa Victoria	10	Octubre	2023-10-13T00:00:00	2024-11-08T19:00:00	6	Velocidad del viento	1.6
136146	7	Sololá	701	Sololá	4	Finca Santa Victoria	10	Octubre	2023-10-13T00:00:00	2024-11-08T19:00:00	7	Dirección del viento	1.61
136147	7	Sololá	701	Sololá	4	Finca Santa Victoria	10	Octubre	2023-10-13T00:00:00	2024-11-08T19:00:00	1	Precipitación	0.2
136148	7	Sololá	701	Sololá	4	Finca Santa Victoria	10	Octubre	2023-10-13T00:00:00	2024-11-08T19:00:00	8	Radiación solar	0
136149	7	Sololá	701	Sololá	4	Finca Santa Victoria	10	Octubre	2023-10-13T00:00:00	2024-11-08T20:00:00	2	Temperatura media	13.7
136150	7	Sololá	701	Sololá	4	Finca Santa Victoria	10	Octubre	2023-10-13T00:00:00	2024-11-08T20:00:00	4	Temperatura máxima	14.2
136151	7	Sololá	701	Sololá	4	Finca Santa Victoria	10	Octubre	2023-10-13T00:00:00	2024-11-08T20:00:00	3	Temperatura mínima	13.7
136152	7	Sololá	701	Sololá	4	Finca Santa Victoria	10	Octubre	2023-10-13T00:00:00	2024-11-08T20:00:00	5	Humedad	93
136153	7	Sololá	701	Sololá	4	Finca Santa Victoria	10	Octubre	2023-10-13T00:00:00	2024-11-08T20:00:00	6	Velocidad del viento	0
136154	7	Sololá	701	Sololá	4	Finca Santa Victoria	10	Octubre	2023-10-13T00:00:00	2024-11-08T20:00:00	7	Dirección del viento	0
136155	7	Sololá	701	Sololá	4	Finca Santa Victoria	10	Octubre	2023-10-13T00:00:00	2024-11-08T20:00:00	1	Precipitación	0.2
136156	7	Sololá	701	Sololá	4	Finca Santa Victoria	10	Octubre	2023-10-13T00:00:00	2024-11-08T20:00:00	8	Radiación solar	0
136157	7	Sololá	701	Sololá	4	Finca Santa Victoria	10	Octubre	2023-10-13T00:00:00	2024-11-08T21:00:00	2	Temperatura media	13.4
136158	7	Sololá	701	Sololá	4	Finca Santa Victoria	10	Octubre	2023-10-13T00:00:00	2024-11-08T21:00:00	4	Temperatura máxima	13.7
136159	7	Sololá	701	Sololá	4	Finca Santa Victoria	10	Octubre	2023-10-13T00:00:00	2024-11-08T21:00:00	3	Temperatura mínima	13.4
136160	7	Sololá	701	Sololá	4	Finca Santa Victoria	10	Octubre	2023-10-13T00:00:00	2024-11-08T21:00:00	5	Humedad	92
136161	7	Sololá	701	Sololá	4	Finca Santa Victoria	10	Octubre	2023-10-13T00:00:00	2024-11-08T21:00:00	6	Velocidad del viento	0
136162	7	Sololá	701	Sololá	4	Finca Santa Victoria	10	Octubre	2023-10-13T00:00:00	2024-11-08T21:00:00	7	Dirección del viento	0
136163	7	Sololá	701	Sololá	4	Finca Santa Victoria	10	Octubre	2023-10-13T00:00:00	2024-11-08T21:00:00	1	Precipitación	0.2
136164	7	Sololá	701	Sololá	4	Finca Santa Victoria	10	Octubre	2023-10-13T00:00:00	2024-11-08T21:00:00	8	Radiación solar	0
136165	7	Sololá	701	Sololá	4	Finca Santa Victoria	10	Octubre	2023-10-13T00:00:00	2024-11-08T22:00:00	2	Temperatura media	13.7
136166	7	Sololá	701	Sololá	4	Finca Santa Victoria	10	Octubre	2023-10-13T00:00:00	2024-11-08T22:00:00	4	Temperatura máxima	13.7
136167	7	Sololá	701	Sololá	4	Finca Santa Victoria	10	Octubre	2023-10-13T00:00:00	2024-11-08T22:00:00	3	Temperatura mínima	13.4
136168	7	Sololá	701	Sololá	4	Finca Santa Victoria	10	Octubre	2023-10-13T00:00:00	2024-11-08T22:00:00	5	Humedad	89
136169	7	Sololá	701	Sololá	4	Finca Santa Victoria	10	Octubre	2023-10-13T00:00:00	2024-11-08T22:00:00	6	Velocidad del viento	0
136170	7	Sololá	701	Sololá	4	Finca Santa Victoria	10	Octubre	2023-10-13T00:00:00	2024-11-08T22:00:00	7	Dirección del viento	0
136171	7	Sololá	701	Sololá	4	Finca Santa Victoria	10	Octubre	2023-10-13T00:00:00	2024-11-08T22:00:00	1	Precipitación	0
136172	7	Sololá	701	Sololá	4	Finca Santa Victoria	10	Octubre	2023-10-13T00:00:00	2024-11-08T22:00:00	8	Radiación solar	0
136173	7	Sololá	701	Sololá	4	Finca Santa Victoria	10	Octubre	2023-10-13T00:00:00	2024-11-08T23:00:00	2	Temperatura media	13.4
136174	7	Sololá	701	Sololá	4	Finca Santa Victoria	10	Octubre	2023-10-13T00:00:00	2024-11-08T23:00:00	4	Temperatura máxima	13.7
136175	7	Sololá	701	Sololá	4	Finca Santa Victoria	10	Octubre	2023-10-13T00:00:00	2024-11-08T23:00:00	3	Temperatura mínima	13.4
136176	7	Sololá	701	Sololá	4	Finca Santa Victoria	10	Octubre	2023-10-13T00:00:00	2024-11-08T23:00:00	5	Humedad	91
136177	7	Sololá	701	Sololá	4	Finca Santa Victoria	10	Octubre	2023-10-13T00:00:00	2024-11-08T23:00:00	6	Velocidad del viento	0
136178	7	Sololá	701	Sololá	4	Finca Santa Victoria	10	Octubre	2023-10-13T00:00:00	2024-11-08T23:00:00	7	Dirección del viento	0
136179	7	Sololá	701	Sololá	4	Finca Santa Victoria	10	Octubre	2023-10-13T00:00:00	2024-11-08T23:00:00	1	Precipitación	0
136180	7	Sololá	701	Sololá	4	Finca Santa Victoria	10	Octubre	2023-10-13T00:00:00	2024-11-08T23:00:00	8	Radiación solar	0
136181	7	Sololá	701	Sololá	4	Finca Santa Victoria	10	Octubre	2023-10-14T00:00:00	2024-11-08T00:00:00	2	Temperatura media	13.6
136182	7	Sololá	701	Sololá	4	Finca Santa Victoria	10	Octubre	2023-10-14T00:00:00	2024-11-08T00:00:00	4	Temperatura máxima	13.6
136183	7	Sololá	701	Sololá	4	Finca Santa Victoria	10	Octubre	2023-10-14T00:00:00	2024-11-08T00:00:00	3	Temperatura mínima	13.4
136184	7	Sololá	701	Sololá	4	Finca Santa Victoria	10	Octubre	2023-10-14T00:00:00	2024-11-08T00:00:00	5	Humedad	90
136185	7	Sololá	701	Sololá	4	Finca Santa Victoria	10	Octubre	2023-10-14T00:00:00	2024-11-08T00:00:00	6	Velocidad del viento	0
136186	7	Sololá	701	Sololá	4	Finca Santa Victoria	10	Octubre	2023-10-14T00:00:00	2024-11-08T00:00:00	7	Dirección del viento	0
136187	7	Sololá	701	Sololá	4	Finca Santa Victoria	10	Octubre	2023-10-14T00:00:00	2024-11-08T00:00:00	1	Precipitación	0
136188	7	Sololá	701	Sololá	4	Finca Santa Victoria	10	Octubre	2023-10-14T00:00:00	2024-11-08T00:00:00	8	Radiación solar	0
136189	7	Sololá	701	Sololá	4	Finca Santa Victoria	10	Octubre	2023-10-14T00:00:00	2024-11-08T01:00:00	2	Temperatura media	13.2
136190	7	Sololá	701	Sololá	4	Finca Santa Victoria	10	Octubre	2023-10-14T00:00:00	2024-11-08T01:00:00	4	Temperatura máxima	13.7
136191	7	Sololá	701	Sololá	4	Finca Santa Victoria	10	Octubre	2023-10-14T00:00:00	2024-11-08T01:00:00	3	Temperatura mínima	13.2
136192	7	Sololá	701	Sololá	4	Finca Santa Victoria	10	Octubre	2023-10-14T00:00:00	2024-11-08T01:00:00	5	Humedad	90
136193	7	Sololá	701	Sololá	4	Finca Santa Victoria	10	Octubre	2023-10-14T00:00:00	2024-11-08T01:00:00	6	Velocidad del viento	0
136194	7	Sololá	701	Sololá	4	Finca Santa Victoria	10	Octubre	2023-10-14T00:00:00	2024-11-08T01:00:00	7	Dirección del viento	0
136195	7	Sololá	701	Sololá	4	Finca Santa Victoria	10	Octubre	2023-10-14T00:00:00	2024-11-08T01:00:00	1	Precipitación	0
136196	7	Sololá	701	Sololá	4	Finca Santa Victoria	10	Octubre	2023-10-14T00:00:00	2024-11-08T01:00:00	8	Radiación solar	0
136197	7	Sololá	701	Sololá	4	Finca Santa Victoria	10	Octubre	2023-10-14T00:00:00	2024-11-08T02:00:00	2	Temperatura media	13.1
136198	7	Sololá	701	Sololá	4	Finca Santa Victoria	10	Octubre	2023-10-14T00:00:00	2024-11-08T02:00:00	4	Temperatura máxima	13.2
136199	7	Sololá	701	Sololá	4	Finca Santa Victoria	10	Octubre	2023-10-14T00:00:00	2024-11-08T02:00:00	3	Temperatura mínima	13.1
136200	7	Sololá	701	Sololá	4	Finca Santa Victoria	10	Octubre	2023-10-14T00:00:00	2024-11-08T02:00:00	5	Humedad	90
136201	7	Sololá	701	Sololá	4	Finca Santa Victoria	10	Octubre	2023-10-14T00:00:00	2024-11-08T02:00:00	6	Velocidad del viento	0
136202	7	Sololá	701	Sololá	4	Finca Santa Victoria	10	Octubre	2023-10-14T00:00:00	2024-11-08T02:00:00	7	Dirección del viento	0
136203	7	Sololá	701	Sololá	4	Finca Santa Victoria	10	Octubre	2023-10-14T00:00:00	2024-11-08T02:00:00	1	Precipitación	0
136204	7	Sololá	701	Sololá	4	Finca Santa Victoria	10	Octubre	2023-10-14T00:00:00	2024-11-08T02:00:00	8	Radiación solar	0
136205	7	Sololá	701	Sololá	4	Finca Santa Victoria	10	Octubre	2023-10-14T00:00:00	2024-11-08T03:00:00	2	Temperatura media	13
136206	7	Sololá	701	Sololá	4	Finca Santa Victoria	10	Octubre	2023-10-14T00:00:00	2024-11-08T03:00:00	4	Temperatura máxima	13.1
136207	7	Sololá	701	Sololá	4	Finca Santa Victoria	10	Octubre	2023-10-14T00:00:00	2024-11-08T03:00:00	3	Temperatura mínima	12.9
136208	7	Sololá	701	Sololá	4	Finca Santa Victoria	10	Octubre	2023-10-14T00:00:00	2024-11-08T03:00:00	5	Humedad	92
136209	7	Sololá	701	Sololá	4	Finca Santa Victoria	10	Octubre	2023-10-14T00:00:00	2024-11-08T03:00:00	6	Velocidad del viento	1.6
136210	7	Sololá	701	Sololá	4	Finca Santa Victoria	10	Octubre	2023-10-14T00:00:00	2024-11-08T03:00:00	7	Dirección del viento	1.61
136211	7	Sololá	701	Sololá	4	Finca Santa Victoria	10	Octubre	2023-10-14T00:00:00	2024-11-08T03:00:00	1	Precipitación	0
136212	7	Sololá	701	Sololá	4	Finca Santa Victoria	10	Octubre	2023-10-14T00:00:00	2024-11-08T03:00:00	8	Radiación solar	0
136213	7	Sololá	701	Sololá	4	Finca Santa Victoria	10	Octubre	2023-10-14T00:00:00	2024-11-08T04:00:00	2	Temperatura media	13.1
136214	7	Sololá	701	Sololá	4	Finca Santa Victoria	10	Octubre	2023-10-14T00:00:00	2024-11-08T04:00:00	4	Temperatura máxima	13.1
136215	7	Sololá	701	Sololá	4	Finca Santa Victoria	10	Octubre	2023-10-14T00:00:00	2024-11-08T04:00:00	3	Temperatura mínima	12.8
136216	7	Sololá	701	Sololá	4	Finca Santa Victoria	10	Octubre	2023-10-14T00:00:00	2024-11-08T04:00:00	5	Humedad	91
136217	7	Sololá	701	Sololá	4	Finca Santa Victoria	10	Octubre	2023-10-14T00:00:00	2024-11-08T04:00:00	6	Velocidad del viento	0
136218	7	Sololá	701	Sololá	4	Finca Santa Victoria	10	Octubre	2023-10-14T00:00:00	2024-11-08T04:00:00	7	Dirección del viento	0
136219	7	Sololá	701	Sololá	4	Finca Santa Victoria	10	Octubre	2023-10-14T00:00:00	2024-11-08T04:00:00	1	Precipitación	0
136220	7	Sololá	701	Sololá	4	Finca Santa Victoria	10	Octubre	2023-10-14T00:00:00	2024-11-08T04:00:00	8	Radiación solar	0
136221	7	Sololá	701	Sololá	4	Finca Santa Victoria	10	Octubre	2023-10-14T00:00:00	2024-11-08T05:00:00	2	Temperatura media	12.8
136222	7	Sololá	701	Sololá	4	Finca Santa Victoria	10	Octubre	2023-10-14T00:00:00	2024-11-08T05:00:00	4	Temperatura máxima	13.1
136223	7	Sololá	701	Sololá	4	Finca Santa Victoria	10	Octubre	2023-10-14T00:00:00	2024-11-08T05:00:00	3	Temperatura mínima	12.7
136224	7	Sololá	701	Sololá	4	Finca Santa Victoria	10	Octubre	2023-10-14T00:00:00	2024-11-08T05:00:00	5	Humedad	91
136225	7	Sololá	701	Sololá	4	Finca Santa Victoria	10	Octubre	2023-10-14T00:00:00	2024-11-08T05:00:00	6	Velocidad del viento	0
136226	7	Sololá	701	Sololá	4	Finca Santa Victoria	10	Octubre	2023-10-14T00:00:00	2024-11-08T05:00:00	7	Dirección del viento	0
136227	7	Sololá	701	Sololá	4	Finca Santa Victoria	10	Octubre	2023-10-14T00:00:00	2024-11-08T05:00:00	1	Precipitación	0
136228	7	Sololá	701	Sololá	4	Finca Santa Victoria	10	Octubre	2023-10-14T00:00:00	2024-11-08T05:00:00	8	Radiación solar	0
136229	7	Sololá	701	Sololá	4	Finca Santa Victoria	10	Octubre	2023-10-14T00:00:00	2024-11-08T06:00:00	2	Temperatura media	12.6
136230	7	Sololá	701	Sololá	4	Finca Santa Victoria	10	Octubre	2023-10-14T00:00:00	2024-11-08T06:00:00	4	Temperatura máxima	12.9
136231	7	Sololá	701	Sololá	4	Finca Santa Victoria	10	Octubre	2023-10-14T00:00:00	2024-11-08T06:00:00	3	Temperatura mínima	12.6
136232	7	Sololá	701	Sololá	4	Finca Santa Victoria	10	Octubre	2023-10-14T00:00:00	2024-11-08T06:00:00	5	Humedad	94
136233	7	Sololá	701	Sololá	4	Finca Santa Victoria	10	Octubre	2023-10-14T00:00:00	2024-11-08T06:00:00	6	Velocidad del viento	1.6
136234	7	Sololá	701	Sololá	4	Finca Santa Victoria	10	Octubre	2023-10-14T00:00:00	2024-11-08T06:00:00	7	Dirección del viento	1.61
136235	7	Sololá	701	Sololá	4	Finca Santa Victoria	10	Octubre	2023-10-14T00:00:00	2024-11-08T06:00:00	1	Precipitación	0
136236	7	Sololá	701	Sololá	4	Finca Santa Victoria	10	Octubre	2023-10-14T00:00:00	2024-11-08T06:00:00	8	Radiación solar	0
136237	7	Sololá	701	Sololá	4	Finca Santa Victoria	10	Octubre	2023-10-14T00:00:00	2024-11-08T07:00:00	2	Temperatura media	13.4
136238	7	Sololá	701	Sololá	4	Finca Santa Victoria	10	Octubre	2023-10-14T00:00:00	2024-11-08T07:00:00	4	Temperatura máxima	13.4
136239	7	Sololá	701	Sololá	4	Finca Santa Victoria	10	Octubre	2023-10-14T00:00:00	2024-11-08T07:00:00	3	Temperatura mínima	12.6
136240	7	Sololá	701	Sololá	4	Finca Santa Victoria	10	Octubre	2023-10-14T00:00:00	2024-11-08T07:00:00	5	Humedad	91
136241	7	Sololá	701	Sololá	4	Finca Santa Victoria	10	Octubre	2023-10-14T00:00:00	2024-11-08T07:00:00	6	Velocidad del viento	1.6
136242	7	Sololá	701	Sololá	4	Finca Santa Victoria	10	Octubre	2023-10-14T00:00:00	2024-11-08T07:00:00	7	Dirección del viento	1.61
136243	7	Sololá	701	Sololá	4	Finca Santa Victoria	10	Octubre	2023-10-14T00:00:00	2024-11-08T07:00:00	1	Precipitación	0
136244	7	Sololá	701	Sololá	4	Finca Santa Victoria	10	Octubre	2023-10-14T00:00:00	2024-11-08T07:00:00	8	Radiación solar	51
136245	7	Sololá	701	Sololá	4	Finca Santa Victoria	10	Octubre	2023-10-14T00:00:00	2024-11-08T08:00:00	2	Temperatura media	15.3
136246	7	Sololá	701	Sololá	4	Finca Santa Victoria	10	Octubre	2023-10-14T00:00:00	2024-11-08T08:00:00	4	Temperatura máxima	15.4
136247	7	Sololá	701	Sololá	4	Finca Santa Victoria	10	Octubre	2023-10-14T00:00:00	2024-11-08T08:00:00	3	Temperatura mínima	13.4
136248	7	Sololá	701	Sololá	4	Finca Santa Victoria	10	Octubre	2023-10-14T00:00:00	2024-11-08T08:00:00	5	Humedad	86
136249	7	Sololá	701	Sololá	4	Finca Santa Victoria	10	Octubre	2023-10-14T00:00:00	2024-11-08T08:00:00	6	Velocidad del viento	1.6
136250	7	Sololá	701	Sololá	4	Finca Santa Victoria	10	Octubre	2023-10-14T00:00:00	2024-11-08T08:00:00	7	Dirección del viento	1.61
136251	7	Sololá	701	Sololá	4	Finca Santa Victoria	10	Octubre	2023-10-14T00:00:00	2024-11-08T08:00:00	1	Precipitación	0
136252	7	Sololá	701	Sololá	4	Finca Santa Victoria	10	Octubre	2023-10-14T00:00:00	2024-11-08T08:00:00	8	Radiación solar	256
136253	7	Sololá	701	Sololá	4	Finca Santa Victoria	10	Octubre	2023-10-14T00:00:00	2024-11-08T09:00:00	2	Temperatura media	14.9
136254	7	Sololá	701	Sololá	4	Finca Santa Victoria	10	Octubre	2023-10-14T00:00:00	2024-11-08T09:00:00	4	Temperatura máxima	15.3
136255	7	Sololá	701	Sololá	4	Finca Santa Victoria	10	Octubre	2023-10-14T00:00:00	2024-11-08T09:00:00	3	Temperatura mínima	14.5
136256	7	Sololá	701	Sololá	4	Finca Santa Victoria	10	Octubre	2023-10-14T00:00:00	2024-11-08T09:00:00	5	Humedad	86
136257	7	Sololá	701	Sololá	4	Finca Santa Victoria	10	Octubre	2023-10-14T00:00:00	2024-11-08T09:00:00	6	Velocidad del viento	1.6
136258	7	Sololá	701	Sololá	4	Finca Santa Victoria	10	Octubre	2023-10-14T00:00:00	2024-11-08T09:00:00	7	Dirección del viento	1.61
136259	7	Sololá	701	Sololá	4	Finca Santa Victoria	10	Octubre	2023-10-14T00:00:00	2024-11-08T09:00:00	1	Precipitación	0
136260	7	Sololá	701	Sololá	4	Finca Santa Victoria	10	Octubre	2023-10-14T00:00:00	2024-11-08T09:00:00	8	Radiación solar	192
136261	7	Sololá	701	Sololá	4	Finca Santa Victoria	10	Octubre	2023-10-14T00:00:00	2024-11-08T10:00:00	2	Temperatura media	16.3
136262	7	Sololá	701	Sololá	4	Finca Santa Victoria	10	Octubre	2023-10-14T00:00:00	2024-11-08T10:00:00	4	Temperatura máxima	16.3
136263	7	Sololá	701	Sololá	4	Finca Santa Victoria	10	Octubre	2023-10-14T00:00:00	2024-11-08T10:00:00	3	Temperatura mínima	14.8
136264	7	Sololá	701	Sololá	4	Finca Santa Victoria	10	Octubre	2023-10-14T00:00:00	2024-11-08T10:00:00	5	Humedad	84
136265	7	Sololá	701	Sololá	4	Finca Santa Victoria	10	Octubre	2023-10-14T00:00:00	2024-11-08T10:00:00	6	Velocidad del viento	3.2
136266	7	Sololá	701	Sololá	4	Finca Santa Victoria	10	Octubre	2023-10-14T00:00:00	2024-11-08T10:00:00	7	Dirección del viento	3.22
136267	7	Sololá	701	Sololá	4	Finca Santa Victoria	10	Octubre	2023-10-14T00:00:00	2024-11-08T10:00:00	1	Precipitación	0
136268	7	Sololá	701	Sololá	4	Finca Santa Victoria	10	Octubre	2023-10-14T00:00:00	2024-11-08T10:00:00	8	Radiación solar	249
136269	7	Sololá	701	Sololá	4	Finca Santa Victoria	10	Octubre	2023-10-14T00:00:00	2024-11-08T11:00:00	2	Temperatura media	15.8
136270	7	Sololá	701	Sololá	4	Finca Santa Victoria	10	Octubre	2023-10-14T00:00:00	2024-11-08T11:00:00	4	Temperatura máxima	17.4
136271	7	Sololá	701	Sololá	4	Finca Santa Victoria	10	Octubre	2023-10-14T00:00:00	2024-11-08T11:00:00	3	Temperatura mínima	15.8
136272	7	Sololá	701	Sololá	4	Finca Santa Victoria	10	Octubre	2023-10-14T00:00:00	2024-11-08T11:00:00	5	Humedad	84
136273	7	Sololá	701	Sololá	4	Finca Santa Victoria	10	Octubre	2023-10-14T00:00:00	2024-11-08T11:00:00	6	Velocidad del viento	1.6
136274	7	Sololá	701	Sololá	4	Finca Santa Victoria	10	Octubre	2023-10-14T00:00:00	2024-11-08T11:00:00	7	Dirección del viento	1.61
136275	7	Sololá	701	Sololá	4	Finca Santa Victoria	10	Octubre	2023-10-14T00:00:00	2024-11-08T11:00:00	1	Precipitación	0
136276	7	Sololá	701	Sololá	4	Finca Santa Victoria	10	Octubre	2023-10-14T00:00:00	2024-11-08T11:00:00	8	Radiación solar	280
136277	7	Sololá	701	Sololá	4	Finca Santa Victoria	10	Octubre	2023-10-14T00:00:00	2024-11-08T12:00:00	2	Temperatura media	16.2
136278	7	Sololá	701	Sololá	4	Finca Santa Victoria	10	Octubre	2023-10-14T00:00:00	2024-11-08T12:00:00	4	Temperatura máxima	16.2
136279	7	Sololá	701	Sololá	4	Finca Santa Victoria	10	Octubre	2023-10-14T00:00:00	2024-11-08T12:00:00	3	Temperatura mínima	15.3
136280	7	Sololá	701	Sololá	4	Finca Santa Victoria	10	Octubre	2023-10-14T00:00:00	2024-11-08T12:00:00	5	Humedad	84
136281	7	Sololá	701	Sololá	4	Finca Santa Victoria	10	Octubre	2023-10-14T00:00:00	2024-11-08T12:00:00	6	Velocidad del viento	1.6
136282	7	Sololá	701	Sololá	4	Finca Santa Victoria	10	Octubre	2023-10-14T00:00:00	2024-11-08T12:00:00	7	Dirección del viento	1.61
136283	7	Sololá	701	Sololá	4	Finca Santa Victoria	10	Octubre	2023-10-14T00:00:00	2024-11-08T12:00:00	1	Precipitación	0
136284	7	Sololá	701	Sololá	4	Finca Santa Victoria	10	Octubre	2023-10-14T00:00:00	2024-11-08T12:00:00	8	Radiación solar	215
136285	7	Sololá	701	Sololá	4	Finca Santa Victoria	10	Octubre	2023-10-14T00:00:00	2024-11-08T13:00:00	2	Temperatura media	17.3
136286	7	Sololá	701	Sololá	4	Finca Santa Victoria	10	Octubre	2023-10-14T00:00:00	2024-11-08T13:00:00	4	Temperatura máxima	17.3
136287	7	Sololá	701	Sololá	4	Finca Santa Victoria	10	Octubre	2023-10-14T00:00:00	2024-11-08T13:00:00	3	Temperatura mínima	15.7
136288	7	Sololá	701	Sololá	4	Finca Santa Victoria	10	Octubre	2023-10-14T00:00:00	2024-11-08T13:00:00	5	Humedad	81
136289	7	Sololá	701	Sololá	4	Finca Santa Victoria	10	Octubre	2023-10-14T00:00:00	2024-11-08T13:00:00	6	Velocidad del viento	1.6
136290	7	Sololá	701	Sololá	4	Finca Santa Victoria	10	Octubre	2023-10-14T00:00:00	2024-11-08T13:00:00	7	Dirección del viento	1.61
136291	7	Sololá	701	Sololá	4	Finca Santa Victoria	10	Octubre	2023-10-14T00:00:00	2024-11-08T13:00:00	1	Precipitación	0
136292	7	Sololá	701	Sololá	4	Finca Santa Victoria	10	Octubre	2023-10-14T00:00:00	2024-11-08T13:00:00	8	Radiación solar	287
136293	7	Sololá	701	Sololá	4	Finca Santa Victoria	10	Octubre	2023-10-14T00:00:00	2024-11-08T14:00:00	2	Temperatura media	16.8
136294	7	Sololá	701	Sololá	4	Finca Santa Victoria	10	Octubre	2023-10-14T00:00:00	2024-11-08T14:00:00	4	Temperatura máxima	17.4
136295	7	Sololá	701	Sololá	4	Finca Santa Victoria	10	Octubre	2023-10-14T00:00:00	2024-11-08T14:00:00	3	Temperatura mínima	16.6
136296	7	Sololá	701	Sololá	4	Finca Santa Victoria	10	Octubre	2023-10-14T00:00:00	2024-11-08T14:00:00	5	Humedad	81
136297	7	Sololá	701	Sololá	4	Finca Santa Victoria	10	Octubre	2023-10-14T00:00:00	2024-11-08T14:00:00	6	Velocidad del viento	1.6
136298	7	Sololá	701	Sololá	4	Finca Santa Victoria	10	Octubre	2023-10-14T00:00:00	2024-11-08T14:00:00	7	Dirección del viento	1.61
136299	7	Sololá	701	Sololá	4	Finca Santa Victoria	10	Octubre	2023-10-14T00:00:00	2024-11-08T14:00:00	1	Precipitación	0
136300	7	Sololá	701	Sololá	4	Finca Santa Victoria	10	Octubre	2023-10-14T00:00:00	2024-11-08T14:00:00	8	Radiación solar	223
136301	7	Sololá	701	Sololá	4	Finca Santa Victoria	10	Octubre	2023-10-14T00:00:00	2024-11-08T15:00:00	2	Temperatura media	16.4
136302	7	Sololá	701	Sololá	4	Finca Santa Victoria	10	Octubre	2023-10-14T00:00:00	2024-11-08T15:00:00	4	Temperatura máxima	16.9
136303	7	Sololá	701	Sololá	4	Finca Santa Victoria	10	Octubre	2023-10-14T00:00:00	2024-11-08T15:00:00	3	Temperatura mínima	16.2
136304	7	Sololá	701	Sololá	4	Finca Santa Victoria	10	Octubre	2023-10-14T00:00:00	2024-11-08T15:00:00	5	Humedad	82
136305	7	Sololá	701	Sololá	4	Finca Santa Victoria	10	Octubre	2023-10-14T00:00:00	2024-11-08T15:00:00	6	Velocidad del viento	0
136306	7	Sololá	701	Sololá	4	Finca Santa Victoria	10	Octubre	2023-10-14T00:00:00	2024-11-08T15:00:00	7	Dirección del viento	0
136307	7	Sololá	701	Sololá	4	Finca Santa Victoria	10	Octubre	2023-10-14T00:00:00	2024-11-08T15:00:00	1	Precipitación	0
136308	7	Sololá	701	Sololá	4	Finca Santa Victoria	10	Octubre	2023-10-14T00:00:00	2024-11-08T15:00:00	8	Radiación solar	131
136309	7	Sololá	701	Sololá	4	Finca Santa Victoria	10	Octubre	2023-10-14T00:00:00	2024-11-08T16:00:00	2	Temperatura media	15.8
136310	7	Sololá	701	Sololá	4	Finca Santa Victoria	10	Octubre	2023-10-14T00:00:00	2024-11-08T16:00:00	4	Temperatura máxima	16.4
136311	7	Sololá	701	Sololá	4	Finca Santa Victoria	10	Octubre	2023-10-14T00:00:00	2024-11-08T16:00:00	3	Temperatura mínima	15.8
136312	7	Sololá	701	Sololá	4	Finca Santa Victoria	10	Octubre	2023-10-14T00:00:00	2024-11-08T16:00:00	5	Humedad	86
136313	7	Sololá	701	Sololá	4	Finca Santa Victoria	10	Octubre	2023-10-14T00:00:00	2024-11-08T16:00:00	6	Velocidad del viento	0
136314	7	Sololá	701	Sololá	4	Finca Santa Victoria	10	Octubre	2023-10-14T00:00:00	2024-11-08T16:00:00	7	Dirección del viento	0
136315	7	Sololá	701	Sololá	4	Finca Santa Victoria	10	Octubre	2023-10-14T00:00:00	2024-11-08T16:00:00	1	Precipitación	0
136316	7	Sololá	701	Sololá	4	Finca Santa Victoria	10	Octubre	2023-10-14T00:00:00	2024-11-08T16:00:00	8	Radiación solar	90
136317	7	Sololá	701	Sololá	4	Finca Santa Victoria	10	Octubre	2023-10-14T00:00:00	2024-11-08T17:00:00	2	Temperatura media	14
136318	7	Sololá	701	Sololá	4	Finca Santa Victoria	10	Octubre	2023-10-14T00:00:00	2024-11-08T17:00:00	4	Temperatura máxima	15.9
136319	7	Sololá	701	Sololá	4	Finca Santa Victoria	10	Octubre	2023-10-14T00:00:00	2024-11-08T17:00:00	3	Temperatura mínima	14
136320	7	Sololá	701	Sololá	4	Finca Santa Victoria	10	Octubre	2023-10-14T00:00:00	2024-11-08T17:00:00	5	Humedad	92
136321	7	Sololá	701	Sololá	4	Finca Santa Victoria	10	Octubre	2023-10-14T00:00:00	2024-11-08T17:00:00	6	Velocidad del viento	0
136322	7	Sololá	701	Sololá	4	Finca Santa Victoria	10	Octubre	2023-10-14T00:00:00	2024-11-08T17:00:00	7	Dirección del viento	0
136323	7	Sololá	701	Sololá	4	Finca Santa Victoria	10	Octubre	2023-10-14T00:00:00	2024-11-08T17:00:00	1	Precipitación	0.2
136324	7	Sololá	701	Sololá	4	Finca Santa Victoria	10	Octubre	2023-10-14T00:00:00	2024-11-08T17:00:00	8	Radiación solar	48
136325	7	Sololá	701	Sololá	4	Finca Santa Victoria	10	Octubre	2023-10-14T00:00:00	2024-11-08T18:00:00	2	Temperatura media	13.7
136326	7	Sololá	701	Sololá	4	Finca Santa Victoria	10	Octubre	2023-10-14T00:00:00	2024-11-08T18:00:00	4	Temperatura máxima	14
136327	7	Sololá	701	Sololá	4	Finca Santa Victoria	10	Octubre	2023-10-14T00:00:00	2024-11-08T18:00:00	3	Temperatura mínima	13.7
136328	7	Sololá	701	Sololá	4	Finca Santa Victoria	10	Octubre	2023-10-14T00:00:00	2024-11-08T18:00:00	5	Humedad	93
136329	7	Sololá	701	Sololá	4	Finca Santa Victoria	10	Octubre	2023-10-14T00:00:00	2024-11-08T18:00:00	6	Velocidad del viento	0
136330	7	Sololá	701	Sololá	4	Finca Santa Victoria	10	Octubre	2023-10-14T00:00:00	2024-11-08T18:00:00	7	Dirección del viento	0
136331	7	Sololá	701	Sololá	4	Finca Santa Victoria	10	Octubre	2023-10-14T00:00:00	2024-11-08T18:00:00	1	Precipitación	0.2
136332	7	Sololá	701	Sololá	4	Finca Santa Victoria	10	Octubre	2023-10-14T00:00:00	2024-11-08T18:00:00	8	Radiación solar	3
136333	7	Sololá	701	Sololá	4	Finca Santa Victoria	10	Octubre	2023-10-14T00:00:00	2024-11-08T19:00:00	2	Temperatura media	13.8
136334	7	Sololá	701	Sololá	4	Finca Santa Victoria	10	Octubre	2023-10-14T00:00:00	2024-11-08T19:00:00	4	Temperatura máxima	13.8
136335	7	Sololá	701	Sololá	4	Finca Santa Victoria	10	Octubre	2023-10-14T00:00:00	2024-11-08T19:00:00	3	Temperatura mínima	13.6
136336	7	Sololá	701	Sololá	4	Finca Santa Victoria	10	Octubre	2023-10-14T00:00:00	2024-11-08T19:00:00	5	Humedad	92
136337	7	Sololá	701	Sololá	4	Finca Santa Victoria	10	Octubre	2023-10-14T00:00:00	2024-11-08T19:00:00	6	Velocidad del viento	0
136338	7	Sololá	701	Sololá	4	Finca Santa Victoria	10	Octubre	2023-10-14T00:00:00	2024-11-08T19:00:00	7	Dirección del viento	0
136339	7	Sololá	701	Sololá	4	Finca Santa Victoria	10	Octubre	2023-10-14T00:00:00	2024-11-08T19:00:00	1	Precipitación	0.4
136340	7	Sololá	701	Sololá	4	Finca Santa Victoria	10	Octubre	2023-10-14T00:00:00	2024-11-08T19:00:00	8	Radiación solar	0
136341	7	Sololá	701	Sololá	4	Finca Santa Victoria	10	Octubre	2023-10-14T00:00:00	2024-11-08T20:00:00	2	Temperatura media	13.7
136342	7	Sololá	701	Sololá	4	Finca Santa Victoria	10	Octubre	2023-10-14T00:00:00	2024-11-08T20:00:00	4	Temperatura máxima	13.9
136343	7	Sololá	701	Sololá	4	Finca Santa Victoria	10	Octubre	2023-10-14T00:00:00	2024-11-08T20:00:00	3	Temperatura mínima	13.7
136344	7	Sololá	701	Sololá	4	Finca Santa Victoria	10	Octubre	2023-10-14T00:00:00	2024-11-08T20:00:00	5	Humedad	93
136345	7	Sololá	701	Sololá	4	Finca Santa Victoria	10	Octubre	2023-10-14T00:00:00	2024-11-08T20:00:00	6	Velocidad del viento	0
136346	7	Sololá	701	Sololá	4	Finca Santa Victoria	10	Octubre	2023-10-14T00:00:00	2024-11-08T20:00:00	7	Dirección del viento	0
136347	7	Sololá	701	Sololá	4	Finca Santa Victoria	10	Octubre	2023-10-14T00:00:00	2024-11-08T20:00:00	1	Precipitación	0.2
136348	7	Sololá	701	Sololá	4	Finca Santa Victoria	10	Octubre	2023-10-14T00:00:00	2024-11-08T20:00:00	8	Radiación solar	0
136349	7	Sololá	701	Sololá	4	Finca Santa Victoria	10	Octubre	2023-10-14T00:00:00	2024-11-08T21:00:00	2	Temperatura media	13.6
136350	7	Sololá	701	Sololá	4	Finca Santa Victoria	10	Octubre	2023-10-14T00:00:00	2024-11-08T21:00:00	4	Temperatura máxima	13.7
136351	7	Sololá	701	Sololá	4	Finca Santa Victoria	10	Octubre	2023-10-14T00:00:00	2024-11-08T21:00:00	3	Temperatura mínima	13.5
136352	7	Sololá	701	Sololá	4	Finca Santa Victoria	10	Octubre	2023-10-14T00:00:00	2024-11-08T21:00:00	5	Humedad	93
136353	7	Sololá	701	Sololá	4	Finca Santa Victoria	10	Octubre	2023-10-14T00:00:00	2024-11-08T21:00:00	6	Velocidad del viento	0
136354	7	Sololá	701	Sololá	4	Finca Santa Victoria	10	Octubre	2023-10-14T00:00:00	2024-11-08T21:00:00	7	Dirección del viento	0
136355	7	Sololá	701	Sololá	4	Finca Santa Victoria	10	Octubre	2023-10-14T00:00:00	2024-11-08T21:00:00	1	Precipitación	0.2
136356	7	Sololá	701	Sololá	4	Finca Santa Victoria	10	Octubre	2023-10-14T00:00:00	2024-11-08T21:00:00	8	Radiación solar	0
136357	7	Sololá	701	Sololá	4	Finca Santa Victoria	10	Octubre	2023-10-14T00:00:00	2024-11-08T22:00:00	2	Temperatura media	13.8
136358	7	Sololá	701	Sololá	4	Finca Santa Victoria	10	Octubre	2023-10-14T00:00:00	2024-11-08T22:00:00	4	Temperatura máxima	13.8
136359	7	Sololá	701	Sololá	4	Finca Santa Victoria	10	Octubre	2023-10-14T00:00:00	2024-11-08T22:00:00	3	Temperatura mínima	13.6
136360	7	Sololá	701	Sololá	4	Finca Santa Victoria	10	Octubre	2023-10-14T00:00:00	2024-11-08T22:00:00	5	Humedad	92
136361	7	Sololá	701	Sololá	4	Finca Santa Victoria	10	Octubre	2023-10-14T00:00:00	2024-11-08T22:00:00	6	Velocidad del viento	0
136362	7	Sololá	701	Sololá	4	Finca Santa Victoria	10	Octubre	2023-10-14T00:00:00	2024-11-08T22:00:00	7	Dirección del viento	0
136363	7	Sololá	701	Sololá	4	Finca Santa Victoria	10	Octubre	2023-10-14T00:00:00	2024-11-08T22:00:00	1	Precipitación	0.2
136364	7	Sololá	701	Sololá	4	Finca Santa Victoria	10	Octubre	2023-10-14T00:00:00	2024-11-08T22:00:00	8	Radiación solar	0
136365	7	Sololá	701	Sololá	4	Finca Santa Victoria	10	Octubre	2023-10-14T00:00:00	2024-11-08T23:00:00	2	Temperatura media	13.3
136366	7	Sololá	701	Sololá	4	Finca Santa Victoria	10	Octubre	2023-10-14T00:00:00	2024-11-08T23:00:00	4	Temperatura máxima	13.8
136367	7	Sololá	701	Sololá	4	Finca Santa Victoria	10	Octubre	2023-10-14T00:00:00	2024-11-08T23:00:00	3	Temperatura mínima	13.3
136368	7	Sololá	701	Sololá	4	Finca Santa Victoria	10	Octubre	2023-10-14T00:00:00	2024-11-08T23:00:00	5	Humedad	95
136369	7	Sololá	701	Sololá	4	Finca Santa Victoria	10	Octubre	2023-10-14T00:00:00	2024-11-08T23:00:00	6	Velocidad del viento	0
136370	7	Sololá	701	Sololá	4	Finca Santa Victoria	10	Octubre	2023-10-14T00:00:00	2024-11-08T23:00:00	7	Dirección del viento	0
136371	7	Sololá	701	Sololá	4	Finca Santa Victoria	10	Octubre	2023-10-14T00:00:00	2024-11-08T23:00:00	1	Precipitación	0.6
136372	7	Sololá	701	Sololá	4	Finca Santa Victoria	10	Octubre	2023-10-14T00:00:00	2024-11-08T23:00:00	8	Radiación solar	0
136373	7	Sololá	701	Sololá	4	Finca Santa Victoria	10	Octubre	2023-10-15T00:00:00	2024-11-08T00:00:00	2	Temperatura media	13.4
136374	7	Sololá	701	Sololá	4	Finca Santa Victoria	10	Octubre	2023-10-15T00:00:00	2024-11-08T00:00:00	4	Temperatura máxima	13.4
136375	7	Sololá	701	Sololá	4	Finca Santa Victoria	10	Octubre	2023-10-15T00:00:00	2024-11-08T00:00:00	3	Temperatura mínima	13.2
136376	7	Sololá	701	Sololá	4	Finca Santa Victoria	10	Octubre	2023-10-15T00:00:00	2024-11-08T00:00:00	5	Humedad	94
136377	7	Sololá	701	Sololá	4	Finca Santa Victoria	10	Octubre	2023-10-15T00:00:00	2024-11-08T00:00:00	6	Velocidad del viento	0
136378	7	Sololá	701	Sololá	4	Finca Santa Victoria	10	Octubre	2023-10-15T00:00:00	2024-11-08T00:00:00	7	Dirección del viento	0
136379	7	Sololá	701	Sololá	4	Finca Santa Victoria	10	Octubre	2023-10-15T00:00:00	2024-11-08T00:00:00	1	Precipitación	0
136380	7	Sololá	701	Sololá	4	Finca Santa Victoria	10	Octubre	2023-10-15T00:00:00	2024-11-08T00:00:00	8	Radiación solar	0
136381	7	Sololá	701	Sololá	4	Finca Santa Victoria	10	Octubre	2023-10-15T00:00:00	2024-11-08T01:00:00	2	Temperatura media	13.3
136382	7	Sololá	701	Sololá	4	Finca Santa Victoria	10	Octubre	2023-10-15T00:00:00	2024-11-08T01:00:00	4	Temperatura máxima	13.4
136383	7	Sololá	701	Sololá	4	Finca Santa Victoria	10	Octubre	2023-10-15T00:00:00	2024-11-08T01:00:00	3	Temperatura mínima	13.3
136384	7	Sololá	701	Sololá	4	Finca Santa Victoria	10	Octubre	2023-10-15T00:00:00	2024-11-08T01:00:00	5	Humedad	95
136385	7	Sololá	701	Sololá	4	Finca Santa Victoria	10	Octubre	2023-10-15T00:00:00	2024-11-08T01:00:00	6	Velocidad del viento	0
136386	7	Sololá	701	Sololá	4	Finca Santa Victoria	10	Octubre	2023-10-15T00:00:00	2024-11-08T01:00:00	7	Dirección del viento	0
136387	7	Sololá	701	Sololá	4	Finca Santa Victoria	10	Octubre	2023-10-15T00:00:00	2024-11-08T01:00:00	1	Precipitación	0.2
136388	7	Sololá	701	Sololá	4	Finca Santa Victoria	10	Octubre	2023-10-15T00:00:00	2024-11-08T01:00:00	8	Radiación solar	0
136389	7	Sololá	701	Sololá	4	Finca Santa Victoria	10	Octubre	2023-10-15T00:00:00	2024-11-08T02:00:00	2	Temperatura media	13.3
136390	7	Sololá	701	Sololá	4	Finca Santa Victoria	10	Octubre	2023-10-15T00:00:00	2024-11-08T02:00:00	4	Temperatura máxima	13.3
136391	7	Sololá	701	Sololá	4	Finca Santa Victoria	10	Octubre	2023-10-15T00:00:00	2024-11-08T02:00:00	3	Temperatura mínima	13.2
136392	7	Sololá	701	Sololá	4	Finca Santa Victoria	10	Octubre	2023-10-15T00:00:00	2024-11-08T02:00:00	5	Humedad	95
136393	7	Sololá	701	Sololá	4	Finca Santa Victoria	10	Octubre	2023-10-15T00:00:00	2024-11-08T02:00:00	6	Velocidad del viento	0
136394	7	Sololá	701	Sololá	4	Finca Santa Victoria	10	Octubre	2023-10-15T00:00:00	2024-11-08T02:00:00	7	Dirección del viento	0
136395	7	Sololá	701	Sololá	4	Finca Santa Victoria	10	Octubre	2023-10-15T00:00:00	2024-11-08T02:00:00	1	Precipitación	0
136396	7	Sololá	701	Sololá	4	Finca Santa Victoria	10	Octubre	2023-10-15T00:00:00	2024-11-08T02:00:00	8	Radiación solar	0
136397	7	Sololá	701	Sololá	4	Finca Santa Victoria	10	Octubre	2023-10-15T00:00:00	2024-11-08T03:00:00	2	Temperatura media	13.2
136398	7	Sololá	701	Sololá	4	Finca Santa Victoria	10	Octubre	2023-10-15T00:00:00	2024-11-08T03:00:00	4	Temperatura máxima	13.3
136399	7	Sololá	701	Sololá	4	Finca Santa Victoria	10	Octubre	2023-10-15T00:00:00	2024-11-08T03:00:00	3	Temperatura mínima	13.2
136400	7	Sololá	701	Sololá	4	Finca Santa Victoria	10	Octubre	2023-10-15T00:00:00	2024-11-08T03:00:00	5	Humedad	95
136401	7	Sololá	701	Sololá	4	Finca Santa Victoria	10	Octubre	2023-10-15T00:00:00	2024-11-08T03:00:00	6	Velocidad del viento	0
136402	7	Sololá	701	Sololá	4	Finca Santa Victoria	10	Octubre	2023-10-15T00:00:00	2024-11-08T03:00:00	7	Dirección del viento	0
136403	7	Sololá	701	Sololá	4	Finca Santa Victoria	10	Octubre	2023-10-15T00:00:00	2024-11-08T03:00:00	1	Precipitación	0.2
136404	7	Sololá	701	Sololá	4	Finca Santa Victoria	10	Octubre	2023-10-15T00:00:00	2024-11-08T03:00:00	8	Radiación solar	0
136405	7	Sololá	701	Sololá	4	Finca Santa Victoria	10	Octubre	2023-10-15T00:00:00	2024-11-08T04:00:00	2	Temperatura media	13.2
136406	7	Sololá	701	Sololá	4	Finca Santa Victoria	10	Octubre	2023-10-15T00:00:00	2024-11-08T04:00:00	4	Temperatura máxima	13.2
136407	7	Sololá	701	Sololá	4	Finca Santa Victoria	10	Octubre	2023-10-15T00:00:00	2024-11-08T04:00:00	3	Temperatura mínima	13.1
136408	7	Sololá	701	Sololá	4	Finca Santa Victoria	10	Octubre	2023-10-15T00:00:00	2024-11-08T04:00:00	5	Humedad	95
136409	7	Sololá	701	Sololá	4	Finca Santa Victoria	10	Octubre	2023-10-15T00:00:00	2024-11-08T04:00:00	6	Velocidad del viento	0
136410	7	Sololá	701	Sololá	4	Finca Santa Victoria	10	Octubre	2023-10-15T00:00:00	2024-11-08T04:00:00	7	Dirección del viento	0
136411	7	Sololá	701	Sololá	4	Finca Santa Victoria	10	Octubre	2023-10-15T00:00:00	2024-11-08T04:00:00	1	Precipitación	0.4
136412	7	Sololá	701	Sololá	4	Finca Santa Victoria	10	Octubre	2023-10-15T00:00:00	2024-11-08T04:00:00	8	Radiación solar	0
136413	7	Sololá	701	Sololá	4	Finca Santa Victoria	10	Octubre	2023-10-15T00:00:00	2024-11-08T05:00:00	2	Temperatura media	13.2
136414	7	Sololá	701	Sololá	4	Finca Santa Victoria	10	Octubre	2023-10-15T00:00:00	2024-11-08T05:00:00	4	Temperatura máxima	13.3
136415	7	Sololá	701	Sololá	4	Finca Santa Victoria	10	Octubre	2023-10-15T00:00:00	2024-11-08T05:00:00	3	Temperatura mínima	13.1
136416	7	Sololá	701	Sololá	4	Finca Santa Victoria	10	Octubre	2023-10-15T00:00:00	2024-11-08T05:00:00	5	Humedad	95
136417	7	Sololá	701	Sololá	4	Finca Santa Victoria	10	Octubre	2023-10-15T00:00:00	2024-11-08T05:00:00	6	Velocidad del viento	0
136418	7	Sololá	701	Sololá	4	Finca Santa Victoria	10	Octubre	2023-10-15T00:00:00	2024-11-08T05:00:00	7	Dirección del viento	0
136419	7	Sololá	701	Sololá	4	Finca Santa Victoria	10	Octubre	2023-10-15T00:00:00	2024-11-08T05:00:00	1	Precipitación	0.2
136420	7	Sololá	701	Sololá	4	Finca Santa Victoria	10	Octubre	2023-10-15T00:00:00	2024-11-08T05:00:00	8	Radiación solar	0
136421	7	Sololá	701	Sololá	4	Finca Santa Victoria	10	Octubre	2023-10-15T00:00:00	2024-11-08T06:00:00	2	Temperatura media	13.3
136422	7	Sololá	701	Sololá	4	Finca Santa Victoria	10	Octubre	2023-10-15T00:00:00	2024-11-08T06:00:00	4	Temperatura máxima	13.3
136423	7	Sololá	701	Sololá	4	Finca Santa Victoria	10	Octubre	2023-10-15T00:00:00	2024-11-08T06:00:00	3	Temperatura mínima	13.2
136424	7	Sololá	701	Sololá	4	Finca Santa Victoria	10	Octubre	2023-10-15T00:00:00	2024-11-08T06:00:00	5	Humedad	96
136425	7	Sololá	701	Sololá	4	Finca Santa Victoria	10	Octubre	2023-10-15T00:00:00	2024-11-08T06:00:00	6	Velocidad del viento	0
136426	7	Sololá	701	Sololá	4	Finca Santa Victoria	10	Octubre	2023-10-15T00:00:00	2024-11-08T06:00:00	7	Dirección del viento	0
136427	7	Sololá	701	Sololá	4	Finca Santa Victoria	10	Octubre	2023-10-15T00:00:00	2024-11-08T06:00:00	1	Precipitación	0.2
136428	7	Sololá	701	Sololá	4	Finca Santa Victoria	10	Octubre	2023-10-15T00:00:00	2024-11-08T06:00:00	8	Radiación solar	0
136429	7	Sololá	701	Sololá	4	Finca Santa Victoria	10	Octubre	2023-10-15T00:00:00	2024-11-08T07:00:00	2	Temperatura media	13.9
136430	7	Sololá	701	Sololá	4	Finca Santa Victoria	10	Octubre	2023-10-15T00:00:00	2024-11-08T07:00:00	4	Temperatura máxima	13.9
136431	7	Sololá	701	Sololá	4	Finca Santa Victoria	10	Octubre	2023-10-15T00:00:00	2024-11-08T07:00:00	3	Temperatura mínima	13.3
136432	7	Sololá	701	Sololá	4	Finca Santa Victoria	10	Octubre	2023-10-15T00:00:00	2024-11-08T07:00:00	5	Humedad	95
136433	7	Sololá	701	Sololá	4	Finca Santa Victoria	10	Octubre	2023-10-15T00:00:00	2024-11-08T07:00:00	6	Velocidad del viento	1.6
136434	7	Sololá	701	Sololá	4	Finca Santa Victoria	10	Octubre	2023-10-15T00:00:00	2024-11-08T07:00:00	7	Dirección del viento	1.61
136435	7	Sololá	701	Sololá	4	Finca Santa Victoria	10	Octubre	2023-10-15T00:00:00	2024-11-08T07:00:00	1	Precipitación	0
136436	7	Sololá	701	Sololá	4	Finca Santa Victoria	10	Octubre	2023-10-15T00:00:00	2024-11-08T07:00:00	8	Radiación solar	42
136437	7	Sololá	701	Sololá	4	Finca Santa Victoria	10	Octubre	2023-10-15T00:00:00	2024-11-08T08:00:00	2	Temperatura media	15.4
136438	7	Sololá	701	Sololá	4	Finca Santa Victoria	10	Octubre	2023-10-15T00:00:00	2024-11-08T08:00:00	4	Temperatura máxima	15.4
136439	7	Sololá	701	Sololá	4	Finca Santa Victoria	10	Octubre	2023-10-15T00:00:00	2024-11-08T08:00:00	3	Temperatura mínima	13.9
136440	7	Sololá	701	Sololá	4	Finca Santa Victoria	10	Octubre	2023-10-15T00:00:00	2024-11-08T08:00:00	5	Humedad	95
136441	7	Sololá	701	Sololá	4	Finca Santa Victoria	10	Octubre	2023-10-15T00:00:00	2024-11-08T08:00:00	6	Velocidad del viento	1.6
136442	7	Sololá	701	Sololá	4	Finca Santa Victoria	10	Octubre	2023-10-15T00:00:00	2024-11-08T08:00:00	7	Dirección del viento	1.61
136443	7	Sololá	701	Sololá	4	Finca Santa Victoria	10	Octubre	2023-10-15T00:00:00	2024-11-08T08:00:00	1	Precipitación	0.4
136444	7	Sololá	701	Sololá	4	Finca Santa Victoria	10	Octubre	2023-10-15T00:00:00	2024-11-08T08:00:00	8	Radiación solar	173
136445	7	Sololá	701	Sololá	4	Finca Santa Victoria	10	Octubre	2023-10-15T00:00:00	2024-11-08T09:00:00	2	Temperatura media	16.1
136446	7	Sololá	701	Sololá	4	Finca Santa Victoria	10	Octubre	2023-10-15T00:00:00	2024-11-08T09:00:00	4	Temperatura máxima	16.3
136447	7	Sololá	701	Sololá	4	Finca Santa Victoria	10	Octubre	2023-10-15T00:00:00	2024-11-08T09:00:00	3	Temperatura mínima	15.3
136448	7	Sololá	701	Sololá	4	Finca Santa Victoria	10	Octubre	2023-10-15T00:00:00	2024-11-08T09:00:00	5	Humedad	88
136449	7	Sololá	701	Sololá	4	Finca Santa Victoria	10	Octubre	2023-10-15T00:00:00	2024-11-08T09:00:00	6	Velocidad del viento	3.2
136450	7	Sololá	701	Sololá	4	Finca Santa Victoria	10	Octubre	2023-10-15T00:00:00	2024-11-08T09:00:00	7	Dirección del viento	3.22
136451	7	Sololá	701	Sololá	4	Finca Santa Victoria	10	Octubre	2023-10-15T00:00:00	2024-11-08T09:00:00	1	Precipitación	0
136452	7	Sololá	701	Sololá	4	Finca Santa Victoria	10	Octubre	2023-10-15T00:00:00	2024-11-08T09:00:00	8	Radiación solar	208
136453	7	Sololá	701	Sololá	4	Finca Santa Victoria	10	Octubre	2023-10-15T00:00:00	2024-11-08T10:00:00	2	Temperatura media	15.8
136454	7	Sololá	701	Sololá	4	Finca Santa Victoria	10	Octubre	2023-10-15T00:00:00	2024-11-08T10:00:00	4	Temperatura máxima	16.1
136455	7	Sololá	701	Sololá	4	Finca Santa Victoria	10	Octubre	2023-10-15T00:00:00	2024-11-08T10:00:00	3	Temperatura mínima	15.7
136456	7	Sololá	701	Sololá	4	Finca Santa Victoria	10	Octubre	2023-10-15T00:00:00	2024-11-08T10:00:00	5	Humedad	90
136457	7	Sololá	701	Sololá	4	Finca Santa Victoria	10	Octubre	2023-10-15T00:00:00	2024-11-08T10:00:00	6	Velocidad del viento	1.6
136458	7	Sololá	701	Sololá	4	Finca Santa Victoria	10	Octubre	2023-10-15T00:00:00	2024-11-08T10:00:00	7	Dirección del viento	1.61
136459	7	Sololá	701	Sololá	4	Finca Santa Victoria	10	Octubre	2023-10-15T00:00:00	2024-11-08T10:00:00	1	Precipitación	0
136460	7	Sololá	701	Sololá	4	Finca Santa Victoria	10	Octubre	2023-10-15T00:00:00	2024-11-08T10:00:00	8	Radiación solar	167
136461	7	Sololá	701	Sololá	4	Finca Santa Victoria	10	Octubre	2023-10-15T00:00:00	2024-11-08T11:00:00	2	Temperatura media	15.2
136462	7	Sololá	701	Sololá	4	Finca Santa Victoria	10	Octubre	2023-10-15T00:00:00	2024-11-08T11:00:00	4	Temperatura máxima	16.1
136463	7	Sololá	701	Sololá	4	Finca Santa Victoria	10	Octubre	2023-10-15T00:00:00	2024-11-08T11:00:00	3	Temperatura mínima	15
136464	7	Sololá	701	Sololá	4	Finca Santa Victoria	10	Octubre	2023-10-15T00:00:00	2024-11-08T11:00:00	5	Humedad	90
136465	7	Sololá	701	Sololá	4	Finca Santa Victoria	10	Octubre	2023-10-15T00:00:00	2024-11-08T11:00:00	6	Velocidad del viento	0
136466	7	Sololá	701	Sololá	4	Finca Santa Victoria	10	Octubre	2023-10-15T00:00:00	2024-11-08T11:00:00	7	Dirección del viento	0
136467	7	Sololá	701	Sololá	4	Finca Santa Victoria	10	Octubre	2023-10-15T00:00:00	2024-11-08T11:00:00	1	Precipitación	0.6
136468	7	Sololá	701	Sololá	4	Finca Santa Victoria	10	Octubre	2023-10-15T00:00:00	2024-11-08T11:00:00	8	Radiación solar	158
136469	7	Sololá	701	Sololá	4	Finca Santa Victoria	10	Octubre	2023-10-15T00:00:00	2024-11-08T12:00:00	2	Temperatura media	16.5
136470	7	Sololá	701	Sololá	4	Finca Santa Victoria	10	Octubre	2023-10-15T00:00:00	2024-11-08T12:00:00	4	Temperatura máxima	16.7
136471	7	Sololá	701	Sololá	4	Finca Santa Victoria	10	Octubre	2023-10-15T00:00:00	2024-11-08T12:00:00	3	Temperatura mínima	15.2
136472	7	Sololá	701	Sololá	4	Finca Santa Victoria	10	Octubre	2023-10-15T00:00:00	2024-11-08T12:00:00	5	Humedad	87
136473	7	Sololá	701	Sololá	4	Finca Santa Victoria	10	Octubre	2023-10-15T00:00:00	2024-11-08T12:00:00	6	Velocidad del viento	0
136474	7	Sololá	701	Sololá	4	Finca Santa Victoria	10	Octubre	2023-10-15T00:00:00	2024-11-08T12:00:00	7	Dirección del viento	0
136475	7	Sololá	701	Sololá	4	Finca Santa Victoria	10	Octubre	2023-10-15T00:00:00	2024-11-08T12:00:00	1	Precipitación	0
136476	7	Sololá	701	Sololá	4	Finca Santa Victoria	10	Octubre	2023-10-15T00:00:00	2024-11-08T12:00:00	8	Radiación solar	278
136477	7	Sololá	701	Sololá	4	Finca Santa Victoria	10	Octubre	2023-10-15T00:00:00	2024-11-08T13:00:00	2	Temperatura media	16.3
136478	7	Sololá	701	Sololá	4	Finca Santa Victoria	10	Octubre	2023-10-15T00:00:00	2024-11-08T13:00:00	4	Temperatura máxima	16.5
136479	7	Sololá	701	Sololá	4	Finca Santa Victoria	10	Octubre	2023-10-15T00:00:00	2024-11-08T13:00:00	3	Temperatura mínima	15.7
136480	7	Sololá	701	Sololá	4	Finca Santa Victoria	10	Octubre	2023-10-15T00:00:00	2024-11-08T13:00:00	5	Humedad	91
136481	7	Sololá	701	Sololá	4	Finca Santa Victoria	10	Octubre	2023-10-15T00:00:00	2024-11-08T13:00:00	6	Velocidad del viento	0
136482	7	Sololá	701	Sololá	4	Finca Santa Victoria	10	Octubre	2023-10-15T00:00:00	2024-11-08T13:00:00	7	Dirección del viento	0
136483	7	Sololá	701	Sololá	4	Finca Santa Victoria	10	Octubre	2023-10-15T00:00:00	2024-11-08T13:00:00	1	Precipitación	0
136484	7	Sololá	701	Sololá	4	Finca Santa Victoria	10	Octubre	2023-10-15T00:00:00	2024-11-08T13:00:00	8	Radiación solar	194
136485	7	Sololá	701	Sololá	4	Finca Santa Victoria	10	Octubre	2023-10-15T00:00:00	2024-11-08T14:00:00	2	Temperatura media	14.7
136486	7	Sololá	701	Sololá	4	Finca Santa Victoria	10	Octubre	2023-10-15T00:00:00	2024-11-08T14:00:00	4	Temperatura máxima	16.4
136487	7	Sololá	701	Sololá	4	Finca Santa Victoria	10	Octubre	2023-10-15T00:00:00	2024-11-08T14:00:00	3	Temperatura mínima	14.7
136488	7	Sololá	701	Sololá	4	Finca Santa Victoria	10	Octubre	2023-10-15T00:00:00	2024-11-08T14:00:00	5	Humedad	93
136489	7	Sololá	701	Sololá	4	Finca Santa Victoria	10	Octubre	2023-10-15T00:00:00	2024-11-08T14:00:00	6	Velocidad del viento	1.6
136490	7	Sololá	701	Sololá	4	Finca Santa Victoria	10	Octubre	2023-10-15T00:00:00	2024-11-08T14:00:00	7	Dirección del viento	1.61
136491	7	Sololá	701	Sololá	4	Finca Santa Victoria	10	Octubre	2023-10-15T00:00:00	2024-11-08T14:00:00	1	Precipitación	0.8
136492	7	Sololá	701	Sololá	4	Finca Santa Victoria	10	Octubre	2023-10-15T00:00:00	2024-11-08T14:00:00	8	Radiación solar	103
136493	7	Sololá	701	Sololá	4	Finca Santa Victoria	10	Octubre	2023-10-15T00:00:00	2024-11-08T15:00:00	2	Temperatura media	14.3
136494	7	Sololá	701	Sololá	4	Finca Santa Victoria	10	Octubre	2023-10-15T00:00:00	2024-11-08T15:00:00	4	Temperatura máxima	14.7
136495	7	Sololá	701	Sololá	4	Finca Santa Victoria	10	Octubre	2023-10-15T00:00:00	2024-11-08T15:00:00	3	Temperatura mínima	14.1
136496	7	Sololá	701	Sololá	4	Finca Santa Victoria	10	Octubre	2023-10-15T00:00:00	2024-11-08T15:00:00	5	Humedad	96
136497	7	Sololá	701	Sololá	4	Finca Santa Victoria	10	Octubre	2023-10-15T00:00:00	2024-11-08T15:00:00	6	Velocidad del viento	0
136498	7	Sololá	701	Sololá	4	Finca Santa Victoria	10	Octubre	2023-10-15T00:00:00	2024-11-08T15:00:00	7	Dirección del viento	0
136499	7	Sololá	701	Sololá	4	Finca Santa Victoria	10	Octubre	2023-10-15T00:00:00	2024-11-08T15:00:00	1	Precipitación	3.8
136500	7	Sololá	701	Sololá	4	Finca Santa Victoria	10	Octubre	2023-10-15T00:00:00	2024-11-08T15:00:00	8	Radiación solar	55
136501	7	Sololá	701	Sololá	4	Finca Santa Victoria	10	Octubre	2023-10-15T00:00:00	2024-11-08T16:00:00	2	Temperatura media	13.9
136502	7	Sololá	701	Sololá	4	Finca Santa Victoria	10	Octubre	2023-10-15T00:00:00	2024-11-08T16:00:00	4	Temperatura máxima	14.4
136503	7	Sololá	701	Sololá	4	Finca Santa Victoria	10	Octubre	2023-10-15T00:00:00	2024-11-08T16:00:00	3	Temperatura mínima	13.9
136504	7	Sololá	701	Sololá	4	Finca Santa Victoria	10	Octubre	2023-10-15T00:00:00	2024-11-08T16:00:00	5	Humedad	95
136505	7	Sololá	701	Sololá	4	Finca Santa Victoria	10	Octubre	2023-10-15T00:00:00	2024-11-08T16:00:00	6	Velocidad del viento	0
136506	7	Sololá	701	Sololá	4	Finca Santa Victoria	10	Octubre	2023-10-15T00:00:00	2024-11-08T16:00:00	7	Dirección del viento	0
136507	7	Sololá	701	Sololá	4	Finca Santa Victoria	10	Octubre	2023-10-15T00:00:00	2024-11-08T16:00:00	1	Precipitación	1
136508	7	Sololá	701	Sololá	4	Finca Santa Victoria	10	Octubre	2023-10-15T00:00:00	2024-11-08T16:00:00	8	Radiación solar	39
136509	7	Sololá	701	Sololá	4	Finca Santa Victoria	10	Octubre	2023-10-15T00:00:00	2024-11-08T17:00:00	2	Temperatura media	13.7
136510	7	Sololá	701	Sololá	4	Finca Santa Victoria	10	Octubre	2023-10-15T00:00:00	2024-11-08T17:00:00	4	Temperatura máxima	13.9
136511	7	Sololá	701	Sololá	4	Finca Santa Victoria	10	Octubre	2023-10-15T00:00:00	2024-11-08T17:00:00	3	Temperatura mínima	13.7
136512	7	Sololá	701	Sololá	4	Finca Santa Victoria	10	Octubre	2023-10-15T00:00:00	2024-11-08T17:00:00	5	Humedad	96
136513	7	Sololá	701	Sololá	4	Finca Santa Victoria	10	Octubre	2023-10-15T00:00:00	2024-11-08T17:00:00	6	Velocidad del viento	0
136514	7	Sololá	701	Sololá	4	Finca Santa Victoria	10	Octubre	2023-10-15T00:00:00	2024-11-08T17:00:00	7	Dirección del viento	0
136515	7	Sololá	701	Sololá	4	Finca Santa Victoria	10	Octubre	2023-10-15T00:00:00	2024-11-08T17:00:00	1	Precipitación	0.6
136516	7	Sololá	701	Sololá	4	Finca Santa Victoria	10	Octubre	2023-10-15T00:00:00	2024-11-08T17:00:00	8	Radiación solar	25
136517	7	Sololá	701	Sololá	4	Finca Santa Victoria	10	Octubre	2023-10-15T00:00:00	2024-11-08T18:00:00	2	Temperatura media	13.6
136518	7	Sololá	701	Sololá	4	Finca Santa Victoria	10	Octubre	2023-10-15T00:00:00	2024-11-08T18:00:00	4	Temperatura máxima	13.7
136519	7	Sololá	701	Sololá	4	Finca Santa Victoria	10	Octubre	2023-10-15T00:00:00	2024-11-08T18:00:00	3	Temperatura mínima	13.6
136520	7	Sololá	701	Sololá	4	Finca Santa Victoria	10	Octubre	2023-10-15T00:00:00	2024-11-08T18:00:00	5	Humedad	96
136521	7	Sololá	701	Sololá	4	Finca Santa Victoria	10	Octubre	2023-10-15T00:00:00	2024-11-08T18:00:00	6	Velocidad del viento	0
136522	7	Sololá	701	Sololá	4	Finca Santa Victoria	10	Octubre	2023-10-15T00:00:00	2024-11-08T18:00:00	7	Dirección del viento	0
136523	7	Sololá	701	Sololá	4	Finca Santa Victoria	10	Octubre	2023-10-15T00:00:00	2024-11-08T18:00:00	1	Precipitación	0.6
136524	7	Sololá	701	Sololá	4	Finca Santa Victoria	10	Octubre	2023-10-15T00:00:00	2024-11-08T18:00:00	8	Radiación solar	4
136525	7	Sololá	701	Sololá	4	Finca Santa Victoria	10	Octubre	2023-10-15T00:00:00	2024-11-08T19:00:00	2	Temperatura media	13.6
136526	7	Sololá	701	Sololá	4	Finca Santa Victoria	10	Octubre	2023-10-15T00:00:00	2024-11-08T19:00:00	4	Temperatura máxima	13.7
136527	7	Sololá	701	Sololá	4	Finca Santa Victoria	10	Octubre	2023-10-15T00:00:00	2024-11-08T19:00:00	3	Temperatura mínima	13.6
136528	7	Sololá	701	Sololá	4	Finca Santa Victoria	10	Octubre	2023-10-15T00:00:00	2024-11-08T19:00:00	5	Humedad	96
136529	7	Sololá	701	Sololá	4	Finca Santa Victoria	10	Octubre	2023-10-15T00:00:00	2024-11-08T19:00:00	6	Velocidad del viento	0
136530	7	Sololá	701	Sololá	4	Finca Santa Victoria	10	Octubre	2023-10-15T00:00:00	2024-11-08T19:00:00	7	Dirección del viento	0
136531	7	Sololá	701	Sololá	4	Finca Santa Victoria	10	Octubre	2023-10-15T00:00:00	2024-11-08T19:00:00	1	Precipitación	1.6
136532	7	Sololá	701	Sololá	4	Finca Santa Victoria	10	Octubre	2023-10-15T00:00:00	2024-11-08T19:00:00	8	Radiación solar	0
136533	7	Sololá	701	Sololá	4	Finca Santa Victoria	10	Octubre	2023-10-15T00:00:00	2024-11-08T20:00:00	2	Temperatura media	13.6
136534	7	Sololá	701	Sololá	4	Finca Santa Victoria	10	Octubre	2023-10-15T00:00:00	2024-11-08T20:00:00	4	Temperatura máxima	13.6
136535	7	Sololá	701	Sololá	4	Finca Santa Victoria	10	Octubre	2023-10-15T00:00:00	2024-11-08T20:00:00	3	Temperatura mínima	13.6
136536	7	Sololá	701	Sololá	4	Finca Santa Victoria	10	Octubre	2023-10-15T00:00:00	2024-11-08T20:00:00	5	Humedad	97
136537	7	Sololá	701	Sololá	4	Finca Santa Victoria	10	Octubre	2023-10-15T00:00:00	2024-11-08T20:00:00	6	Velocidad del viento	0
136538	7	Sololá	701	Sololá	4	Finca Santa Victoria	10	Octubre	2023-10-15T00:00:00	2024-11-08T20:00:00	7	Dirección del viento	0
136539	7	Sololá	701	Sololá	4	Finca Santa Victoria	10	Octubre	2023-10-15T00:00:00	2024-11-08T20:00:00	1	Precipitación	6
136540	7	Sololá	701	Sololá	4	Finca Santa Victoria	10	Octubre	2023-10-15T00:00:00	2024-11-08T20:00:00	8	Radiación solar	0
136541	7	Sololá	701	Sololá	4	Finca Santa Victoria	10	Octubre	2023-10-15T00:00:00	2024-11-08T21:00:00	2	Temperatura media	13.8
136542	7	Sololá	701	Sololá	4	Finca Santa Victoria	10	Octubre	2023-10-15T00:00:00	2024-11-08T21:00:00	4	Temperatura máxima	13.8
136543	7	Sololá	701	Sololá	4	Finca Santa Victoria	10	Octubre	2023-10-15T00:00:00	2024-11-08T21:00:00	3	Temperatura mínima	13.6
136544	7	Sololá	701	Sololá	4	Finca Santa Victoria	10	Octubre	2023-10-15T00:00:00	2024-11-08T21:00:00	5	Humedad	96
136545	7	Sololá	701	Sololá	4	Finca Santa Victoria	10	Octubre	2023-10-15T00:00:00	2024-11-08T21:00:00	6	Velocidad del viento	0
136546	7	Sololá	701	Sololá	4	Finca Santa Victoria	10	Octubre	2023-10-15T00:00:00	2024-11-08T21:00:00	7	Dirección del viento	0
136547	7	Sololá	701	Sololá	4	Finca Santa Victoria	10	Octubre	2023-10-15T00:00:00	2024-11-08T21:00:00	1	Precipitación	2.4
136548	7	Sololá	701	Sololá	4	Finca Santa Victoria	10	Octubre	2023-10-15T00:00:00	2024-11-08T21:00:00	8	Radiación solar	0
136549	7	Sololá	701	Sololá	4	Finca Santa Victoria	10	Octubre	2023-10-15T00:00:00	2024-11-08T22:00:00	2	Temperatura media	13.8
136550	7	Sololá	701	Sololá	4	Finca Santa Victoria	10	Octubre	2023-10-15T00:00:00	2024-11-08T22:00:00	4	Temperatura máxima	13.9
136551	7	Sololá	701	Sololá	4	Finca Santa Victoria	10	Octubre	2023-10-15T00:00:00	2024-11-08T22:00:00	3	Temperatura mínima	13.8
136552	7	Sololá	701	Sololá	4	Finca Santa Victoria	10	Octubre	2023-10-15T00:00:00	2024-11-08T22:00:00	5	Humedad	96
136553	7	Sololá	701	Sololá	4	Finca Santa Victoria	10	Octubre	2023-10-15T00:00:00	2024-11-08T22:00:00	6	Velocidad del viento	0
136554	7	Sololá	701	Sololá	4	Finca Santa Victoria	10	Octubre	2023-10-15T00:00:00	2024-11-08T22:00:00	7	Dirección del viento	0
136555	7	Sololá	701	Sololá	4	Finca Santa Victoria	10	Octubre	2023-10-15T00:00:00	2024-11-08T22:00:00	1	Precipitación	0.6
136556	7	Sololá	701	Sololá	4	Finca Santa Victoria	10	Octubre	2023-10-15T00:00:00	2024-11-08T22:00:00	8	Radiación solar	0
136557	7	Sololá	701	Sololá	4	Finca Santa Victoria	10	Octubre	2023-10-15T00:00:00	2024-11-08T23:00:00	2	Temperatura media	13.8
136558	7	Sololá	701	Sololá	4	Finca Santa Victoria	10	Octubre	2023-10-15T00:00:00	2024-11-08T23:00:00	4	Temperatura máxima	13.9
136559	7	Sololá	701	Sololá	4	Finca Santa Victoria	10	Octubre	2023-10-15T00:00:00	2024-11-08T23:00:00	3	Temperatura mínima	13.7
136560	7	Sololá	701	Sololá	4	Finca Santa Victoria	10	Octubre	2023-10-15T00:00:00	2024-11-08T23:00:00	5	Humedad	96
136561	7	Sololá	701	Sololá	4	Finca Santa Victoria	10	Octubre	2023-10-15T00:00:00	2024-11-08T23:00:00	6	Velocidad del viento	0
136562	7	Sololá	701	Sololá	4	Finca Santa Victoria	10	Octubre	2023-10-15T00:00:00	2024-11-08T23:00:00	7	Dirección del viento	0
136563	7	Sololá	701	Sololá	4	Finca Santa Victoria	10	Octubre	2023-10-15T00:00:00	2024-11-08T23:00:00	1	Precipitación	2.4
136564	7	Sololá	701	Sololá	4	Finca Santa Victoria	10	Octubre	2023-10-15T00:00:00	2024-11-08T23:00:00	8	Radiación solar	0
136565	7	Sololá	701	Sololá	4	Finca Santa Victoria	10	Octubre	2023-10-16T00:00:00	2024-11-08T00:00:00	2	Temperatura media	13.8
136566	7	Sololá	701	Sololá	4	Finca Santa Victoria	10	Octubre	2023-10-16T00:00:00	2024-11-08T00:00:00	4	Temperatura máxima	13.9
136567	7	Sololá	701	Sololá	4	Finca Santa Victoria	10	Octubre	2023-10-16T00:00:00	2024-11-08T00:00:00	3	Temperatura mínima	13.8
136568	7	Sololá	701	Sololá	4	Finca Santa Victoria	10	Octubre	2023-10-16T00:00:00	2024-11-08T00:00:00	5	Humedad	96
136569	7	Sololá	701	Sololá	4	Finca Santa Victoria	10	Octubre	2023-10-16T00:00:00	2024-11-08T00:00:00	6	Velocidad del viento	0
136570	7	Sololá	701	Sololá	4	Finca Santa Victoria	10	Octubre	2023-10-16T00:00:00	2024-11-08T00:00:00	7	Dirección del viento	0
136571	7	Sololá	701	Sololá	4	Finca Santa Victoria	10	Octubre	2023-10-16T00:00:00	2024-11-08T00:00:00	1	Precipitación	2.8
136572	7	Sololá	701	Sololá	4	Finca Santa Victoria	10	Octubre	2023-10-16T00:00:00	2024-11-08T00:00:00	8	Radiación solar	0
136573	7	Sololá	701	Sololá	4	Finca Santa Victoria	10	Octubre	2023-10-16T00:00:00	2024-11-08T01:00:00	2	Temperatura media	13.9
136574	7	Sololá	701	Sololá	4	Finca Santa Victoria	10	Octubre	2023-10-16T00:00:00	2024-11-08T01:00:00	4	Temperatura máxima	14
136575	7	Sololá	701	Sololá	4	Finca Santa Victoria	10	Octubre	2023-10-16T00:00:00	2024-11-08T01:00:00	3	Temperatura mínima	13.8
136576	7	Sololá	701	Sololá	4	Finca Santa Victoria	10	Octubre	2023-10-16T00:00:00	2024-11-08T01:00:00	5	Humedad	96
136577	7	Sololá	701	Sololá	4	Finca Santa Victoria	10	Octubre	2023-10-16T00:00:00	2024-11-08T01:00:00	6	Velocidad del viento	0
136578	7	Sololá	701	Sololá	4	Finca Santa Victoria	10	Octubre	2023-10-16T00:00:00	2024-11-08T01:00:00	7	Dirección del viento	0
136579	7	Sololá	701	Sololá	4	Finca Santa Victoria	10	Octubre	2023-10-16T00:00:00	2024-11-08T01:00:00	1	Precipitación	2
136580	7	Sololá	701	Sololá	4	Finca Santa Victoria	10	Octubre	2023-10-16T00:00:00	2024-11-08T01:00:00	8	Radiación solar	0
136581	7	Sololá	701	Sololá	4	Finca Santa Victoria	10	Octubre	2023-10-16T00:00:00	2024-11-08T02:00:00	2	Temperatura media	13.6
136582	7	Sololá	701	Sololá	4	Finca Santa Victoria	10	Octubre	2023-10-16T00:00:00	2024-11-08T02:00:00	4	Temperatura máxima	13.9
136583	7	Sololá	701	Sololá	4	Finca Santa Victoria	10	Octubre	2023-10-16T00:00:00	2024-11-08T02:00:00	3	Temperatura mínima	13.6
136584	7	Sololá	701	Sololá	4	Finca Santa Victoria	10	Octubre	2023-10-16T00:00:00	2024-11-08T02:00:00	5	Humedad	96
136585	7	Sololá	701	Sololá	4	Finca Santa Victoria	10	Octubre	2023-10-16T00:00:00	2024-11-08T02:00:00	6	Velocidad del viento	0
136586	7	Sololá	701	Sololá	4	Finca Santa Victoria	10	Octubre	2023-10-16T00:00:00	2024-11-08T02:00:00	7	Dirección del viento	0
136587	7	Sololá	701	Sololá	4	Finca Santa Victoria	10	Octubre	2023-10-16T00:00:00	2024-11-08T02:00:00	1	Precipitación	1.8
136588	7	Sololá	701	Sololá	4	Finca Santa Victoria	10	Octubre	2023-10-16T00:00:00	2024-11-08T02:00:00	8	Radiación solar	0
136589	7	Sololá	701	Sololá	4	Finca Santa Victoria	10	Octubre	2023-10-16T00:00:00	2024-11-08T03:00:00	2	Temperatura media	13.3
136590	7	Sololá	701	Sololá	4	Finca Santa Victoria	10	Octubre	2023-10-16T00:00:00	2024-11-08T03:00:00	4	Temperatura máxima	13.7
136591	7	Sololá	701	Sololá	4	Finca Santa Victoria	10	Octubre	2023-10-16T00:00:00	2024-11-08T03:00:00	3	Temperatura mínima	13.2
136592	7	Sololá	701	Sololá	4	Finca Santa Victoria	10	Octubre	2023-10-16T00:00:00	2024-11-08T03:00:00	5	Humedad	96
136593	7	Sololá	701	Sololá	4	Finca Santa Victoria	10	Octubre	2023-10-16T00:00:00	2024-11-08T03:00:00	6	Velocidad del viento	0
136594	7	Sololá	701	Sololá	4	Finca Santa Victoria	10	Octubre	2023-10-16T00:00:00	2024-11-08T03:00:00	7	Dirección del viento	0
136595	7	Sololá	701	Sololá	4	Finca Santa Victoria	10	Octubre	2023-10-16T00:00:00	2024-11-08T03:00:00	1	Precipitación	0.2
136596	7	Sololá	701	Sololá	4	Finca Santa Victoria	10	Octubre	2023-10-16T00:00:00	2024-11-08T03:00:00	8	Radiación solar	0
136597	7	Sololá	701	Sololá	4	Finca Santa Victoria	10	Octubre	2023-10-16T00:00:00	2024-11-08T04:00:00	2	Temperatura media	13.4
136598	7	Sololá	701	Sololá	4	Finca Santa Victoria	10	Octubre	2023-10-16T00:00:00	2024-11-08T04:00:00	4	Temperatura máxima	13.4
136599	7	Sololá	701	Sololá	4	Finca Santa Victoria	10	Octubre	2023-10-16T00:00:00	2024-11-08T04:00:00	3	Temperatura mínima	13.2
136600	7	Sololá	701	Sololá	4	Finca Santa Victoria	10	Octubre	2023-10-16T00:00:00	2024-11-08T04:00:00	5	Humedad	97
136601	7	Sololá	701	Sololá	4	Finca Santa Victoria	10	Octubre	2023-10-16T00:00:00	2024-11-08T04:00:00	6	Velocidad del viento	0
136602	7	Sololá	701	Sololá	4	Finca Santa Victoria	10	Octubre	2023-10-16T00:00:00	2024-11-08T04:00:00	7	Dirección del viento	0
136603	7	Sololá	701	Sololá	4	Finca Santa Victoria	10	Octubre	2023-10-16T00:00:00	2024-11-08T04:00:00	1	Precipitación	4.4
136604	7	Sololá	701	Sololá	4	Finca Santa Victoria	10	Octubre	2023-10-16T00:00:00	2024-11-08T04:00:00	8	Radiación solar	0
136605	7	Sololá	701	Sololá	4	Finca Santa Victoria	10	Octubre	2023-10-16T00:00:00	2024-11-08T05:00:00	2	Temperatura media	13.3
136606	7	Sololá	701	Sololá	4	Finca Santa Victoria	10	Octubre	2023-10-16T00:00:00	2024-11-08T05:00:00	4	Temperatura máxima	13.4
136607	7	Sololá	701	Sololá	4	Finca Santa Victoria	10	Octubre	2023-10-16T00:00:00	2024-11-08T05:00:00	3	Temperatura mínima	13.2
136608	7	Sololá	701	Sololá	4	Finca Santa Victoria	10	Octubre	2023-10-16T00:00:00	2024-11-08T05:00:00	5	Humedad	97
136609	7	Sololá	701	Sololá	4	Finca Santa Victoria	10	Octubre	2023-10-16T00:00:00	2024-11-08T05:00:00	6	Velocidad del viento	0
136610	7	Sololá	701	Sololá	4	Finca Santa Victoria	10	Octubre	2023-10-16T00:00:00	2024-11-08T05:00:00	7	Dirección del viento	0
136611	7	Sololá	701	Sololá	4	Finca Santa Victoria	10	Octubre	2023-10-16T00:00:00	2024-11-08T05:00:00	1	Precipitación	0
136612	7	Sololá	701	Sololá	4	Finca Santa Victoria	10	Octubre	2023-10-16T00:00:00	2024-11-08T05:00:00	8	Radiación solar	0
136613	7	Sololá	701	Sololá	4	Finca Santa Victoria	10	Octubre	2023-10-16T00:00:00	2024-11-08T06:00:00	2	Temperatura media	13.5
136614	7	Sololá	701	Sololá	4	Finca Santa Victoria	10	Octubre	2023-10-16T00:00:00	2024-11-08T06:00:00	4	Temperatura máxima	13.5
136615	7	Sololá	701	Sololá	4	Finca Santa Victoria	10	Octubre	2023-10-16T00:00:00	2024-11-08T06:00:00	3	Temperatura mínima	13.3
136616	7	Sololá	701	Sololá	4	Finca Santa Victoria	10	Octubre	2023-10-16T00:00:00	2024-11-08T06:00:00	5	Humedad	97
136617	7	Sololá	701	Sololá	4	Finca Santa Victoria	10	Octubre	2023-10-16T00:00:00	2024-11-08T06:00:00	6	Velocidad del viento	0
136618	7	Sololá	701	Sololá	4	Finca Santa Victoria	10	Octubre	2023-10-16T00:00:00	2024-11-08T06:00:00	7	Dirección del viento	0
136619	7	Sololá	701	Sololá	4	Finca Santa Victoria	10	Octubre	2023-10-16T00:00:00	2024-11-08T06:00:00	1	Precipitación	0.2
136620	7	Sololá	701	Sololá	4	Finca Santa Victoria	10	Octubre	2023-10-16T00:00:00	2024-11-08T06:00:00	8	Radiación solar	0
136621	7	Sololá	701	Sololá	4	Finca Santa Victoria	10	Octubre	2023-10-16T00:00:00	2024-11-08T07:00:00	2	Temperatura media	13.6
136622	7	Sololá	701	Sololá	4	Finca Santa Victoria	10	Octubre	2023-10-16T00:00:00	2024-11-08T07:00:00	4	Temperatura máxima	13.7
136623	7	Sololá	701	Sololá	4	Finca Santa Victoria	10	Octubre	2023-10-16T00:00:00	2024-11-08T07:00:00	3	Temperatura mínima	13.5
136624	7	Sololá	701	Sololá	4	Finca Santa Victoria	10	Octubre	2023-10-16T00:00:00	2024-11-08T07:00:00	5	Humedad	97
136625	7	Sololá	701	Sololá	4	Finca Santa Victoria	10	Octubre	2023-10-16T00:00:00	2024-11-08T07:00:00	6	Velocidad del viento	0
136626	7	Sololá	701	Sololá	4	Finca Santa Victoria	10	Octubre	2023-10-16T00:00:00	2024-11-08T07:00:00	7	Dirección del viento	0
136627	7	Sololá	701	Sololá	4	Finca Santa Victoria	10	Octubre	2023-10-16T00:00:00	2024-11-08T07:00:00	1	Precipitación	2.4
136628	7	Sololá	701	Sololá	4	Finca Santa Victoria	10	Octubre	2023-10-16T00:00:00	2024-11-08T07:00:00	8	Radiación solar	22
136629	7	Sololá	701	Sololá	4	Finca Santa Victoria	10	Octubre	2023-10-16T00:00:00	2024-11-08T08:00:00	2	Temperatura media	13.9
136630	7	Sololá	701	Sololá	4	Finca Santa Victoria	10	Octubre	2023-10-16T00:00:00	2024-11-08T08:00:00	4	Temperatura máxima	13.9
136631	7	Sololá	701	Sololá	4	Finca Santa Victoria	10	Octubre	2023-10-16T00:00:00	2024-11-08T08:00:00	3	Temperatura mínima	13.6
136632	7	Sololá	701	Sololá	4	Finca Santa Victoria	10	Octubre	2023-10-16T00:00:00	2024-11-08T08:00:00	5	Humedad	97
136633	7	Sololá	701	Sololá	4	Finca Santa Victoria	10	Octubre	2023-10-16T00:00:00	2024-11-08T08:00:00	6	Velocidad del viento	1.6
136634	7	Sololá	701	Sololá	4	Finca Santa Victoria	10	Octubre	2023-10-16T00:00:00	2024-11-08T08:00:00	7	Dirección del viento	1.61
136635	7	Sololá	701	Sololá	4	Finca Santa Victoria	10	Octubre	2023-10-16T00:00:00	2024-11-08T08:00:00	1	Precipitación	1.6
136636	7	Sololá	701	Sololá	4	Finca Santa Victoria	10	Octubre	2023-10-16T00:00:00	2024-11-08T08:00:00	8	Radiación solar	244
136637	7	Sololá	701	Sololá	4	Finca Santa Victoria	10	Octubre	2023-10-16T00:00:00	2024-11-08T09:00:00	2	Temperatura media	19.4
136638	7	Sololá	701	Sololá	4	Finca Santa Victoria	10	Octubre	2023-10-16T00:00:00	2024-11-08T09:00:00	4	Temperatura máxima	19.4
136639	7	Sololá	701	Sololá	4	Finca Santa Victoria	10	Octubre	2023-10-16T00:00:00	2024-11-08T09:00:00	3	Temperatura mínima	19.2
136640	7	Sololá	701	Sololá	4	Finca Santa Victoria	10	Octubre	2023-10-16T00:00:00	2024-11-08T09:00:00	5	Humedad	71
136641	7	Sololá	701	Sololá	4	Finca Santa Victoria	10	Octubre	2023-10-16T00:00:00	2024-11-08T09:00:00	6	Velocidad del viento	6.4
136642	7	Sololá	701	Sololá	4	Finca Santa Victoria	10	Octubre	2023-10-16T00:00:00	2024-11-08T09:00:00	7	Dirección del viento	3.22
136643	7	Sololá	701	Sololá	4	Finca Santa Victoria	10	Octubre	2023-10-16T00:00:00	2024-11-08T09:00:00	1	Precipitación	0
136644	7	Sololá	701	Sololá	4	Finca Santa Victoria	10	Octubre	2023-10-16T00:00:00	2024-11-08T09:00:00	8	Radiación solar	537
136645	7	Sololá	701	Sololá	4	Finca Santa Victoria	10	Octubre	2023-10-16T00:00:00	2024-11-08T10:00:00	2	Temperatura media	20.8
136646	7	Sololá	701	Sololá	4	Finca Santa Victoria	10	Octubre	2023-10-16T00:00:00	2024-11-08T10:00:00	4	Temperatura máxima	21
136647	7	Sololá	701	Sololá	4	Finca Santa Victoria	10	Octubre	2023-10-16T00:00:00	2024-11-08T10:00:00	3	Temperatura mínima	20.3
136648	7	Sololá	701	Sololá	4	Finca Santa Victoria	10	Octubre	2023-10-16T00:00:00	2024-11-08T10:00:00	5	Humedad	69
136649	7	Sololá	701	Sololá	4	Finca Santa Victoria	10	Octubre	2023-10-16T00:00:00	2024-11-08T10:00:00	6	Velocidad del viento	6.4
136650	7	Sololá	701	Sololá	4	Finca Santa Victoria	10	Octubre	2023-10-16T00:00:00	2024-11-08T10:00:00	7	Dirección del viento	3.22
136651	7	Sololá	701	Sololá	4	Finca Santa Victoria	10	Octubre	2023-10-16T00:00:00	2024-11-08T10:00:00	1	Precipitación	0
136652	7	Sololá	701	Sololá	4	Finca Santa Victoria	10	Octubre	2023-10-16T00:00:00	2024-11-08T10:00:00	8	Radiación solar	754
136653	7	Sololá	701	Sololá	4	Finca Santa Victoria	10	Octubre	2023-10-16T00:00:00	2024-11-08T11:00:00	2	Temperatura media	19.9
136654	7	Sololá	701	Sololá	4	Finca Santa Victoria	10	Octubre	2023-10-16T00:00:00	2024-11-08T11:00:00	4	Temperatura máxima	20.4
136655	7	Sololá	701	Sololá	4	Finca Santa Victoria	10	Octubre	2023-10-16T00:00:00	2024-11-08T11:00:00	3	Temperatura mínima	19.9
136656	7	Sololá	701	Sololá	4	Finca Santa Victoria	10	Octubre	2023-10-16T00:00:00	2024-11-08T11:00:00	5	Humedad	73
136657	7	Sololá	701	Sololá	4	Finca Santa Victoria	10	Octubre	2023-10-16T00:00:00	2024-11-08T11:00:00	6	Velocidad del viento	8
136658	7	Sololá	701	Sololá	4	Finca Santa Victoria	10	Octubre	2023-10-16T00:00:00	2024-11-08T11:00:00	7	Dirección del viento	4.02
136659	7	Sololá	701	Sololá	4	Finca Santa Victoria	10	Octubre	2023-10-16T00:00:00	2024-11-08T11:00:00	1	Precipitación	0
136660	7	Sololá	701	Sololá	4	Finca Santa Victoria	10	Octubre	2023-10-16T00:00:00	2024-11-08T11:00:00	8	Radiación solar	560
136661	7	Sololá	701	Sololá	4	Finca Santa Victoria	10	Octubre	2023-10-16T00:00:00	2024-11-08T12:00:00	2	Temperatura media	20.7
136662	7	Sololá	701	Sololá	4	Finca Santa Victoria	10	Octubre	2023-10-16T00:00:00	2024-11-08T12:00:00	4	Temperatura máxima	20.9
136663	7	Sololá	701	Sololá	4	Finca Santa Victoria	10	Octubre	2023-10-16T00:00:00	2024-11-08T12:00:00	3	Temperatura mínima	20.4
136664	7	Sololá	701	Sololá	4	Finca Santa Victoria	10	Octubre	2023-10-16T00:00:00	2024-11-08T12:00:00	5	Humedad	70
136665	7	Sololá	701	Sololá	4	Finca Santa Victoria	10	Octubre	2023-10-16T00:00:00	2024-11-08T12:00:00	6	Velocidad del viento	8
136666	7	Sololá	701	Sololá	4	Finca Santa Victoria	10	Octubre	2023-10-16T00:00:00	2024-11-08T12:00:00	7	Dirección del viento	4.02
136667	7	Sololá	701	Sololá	4	Finca Santa Victoria	10	Octubre	2023-10-16T00:00:00	2024-11-08T12:00:00	1	Precipitación	0
136668	7	Sololá	701	Sololá	4	Finca Santa Victoria	10	Octubre	2023-10-16T00:00:00	2024-11-08T12:00:00	8	Radiación solar	186
136669	7	Sololá	701	Sololá	4	Finca Santa Victoria	10	Octubre	2023-10-16T00:00:00	2024-11-08T13:00:00	2	Temperatura media	20.2
136670	7	Sololá	701	Sololá	4	Finca Santa Victoria	10	Octubre	2023-10-16T00:00:00	2024-11-08T13:00:00	4	Temperatura máxima	20.2
136671	7	Sololá	701	Sololá	4	Finca Santa Victoria	10	Octubre	2023-10-16T00:00:00	2024-11-08T13:00:00	3	Temperatura mínima	19.8
136672	7	Sololá	701	Sololá	4	Finca Santa Victoria	10	Octubre	2023-10-16T00:00:00	2024-11-08T13:00:00	5	Humedad	74
136673	7	Sololá	701	Sololá	4	Finca Santa Victoria	10	Octubre	2023-10-16T00:00:00	2024-11-08T13:00:00	6	Velocidad del viento	9.7
136674	7	Sololá	701	Sololá	4	Finca Santa Victoria	10	Octubre	2023-10-16T00:00:00	2024-11-08T13:00:00	7	Dirección del viento	4.83
136675	7	Sololá	701	Sololá	4	Finca Santa Victoria	10	Octubre	2023-10-16T00:00:00	2024-11-08T13:00:00	1	Precipitación	0
136676	7	Sololá	701	Sololá	4	Finca Santa Victoria	10	Octubre	2023-10-16T00:00:00	2024-11-08T13:00:00	8	Radiación solar	151
136677	7	Sololá	701	Sololá	4	Finca Santa Victoria	10	Octubre	2023-10-16T00:00:00	2024-11-08T14:00:00	2	Temperatura media	20.6
136678	7	Sololá	701	Sololá	4	Finca Santa Victoria	10	Octubre	2023-10-16T00:00:00	2024-11-08T14:00:00	4	Temperatura máxima	20.8
136679	7	Sololá	701	Sololá	4	Finca Santa Victoria	10	Octubre	2023-10-16T00:00:00	2024-11-08T14:00:00	3	Temperatura mínima	20.4
136680	7	Sololá	701	Sololá	4	Finca Santa Victoria	10	Octubre	2023-10-16T00:00:00	2024-11-08T14:00:00	5	Humedad	71
136681	7	Sololá	701	Sololá	4	Finca Santa Victoria	10	Octubre	2023-10-16T00:00:00	2024-11-08T14:00:00	6	Velocidad del viento	8
136682	7	Sololá	701	Sololá	4	Finca Santa Victoria	10	Octubre	2023-10-16T00:00:00	2024-11-08T14:00:00	7	Dirección del viento	4.02
136683	7	Sololá	701	Sololá	4	Finca Santa Victoria	10	Octubre	2023-10-16T00:00:00	2024-11-08T14:00:00	1	Precipitación	0
136684	7	Sololá	701	Sololá	4	Finca Santa Victoria	10	Octubre	2023-10-16T00:00:00	2024-11-08T14:00:00	8	Radiación solar	149
136685	7	Sololá	701	Sololá	4	Finca Santa Victoria	10	Octubre	2023-10-16T00:00:00	2024-11-08T15:00:00	2	Temperatura media	20.8
136686	7	Sololá	701	Sololá	4	Finca Santa Victoria	10	Octubre	2023-10-16T00:00:00	2024-11-08T15:00:00	4	Temperatura máxima	20.9
136687	7	Sololá	701	Sololá	4	Finca Santa Victoria	10	Octubre	2023-10-16T00:00:00	2024-11-08T15:00:00	3	Temperatura mínima	20.7
136688	7	Sololá	701	Sololá	4	Finca Santa Victoria	10	Octubre	2023-10-16T00:00:00	2024-11-08T15:00:00	5	Humedad	71
136689	7	Sololá	701	Sololá	4	Finca Santa Victoria	10	Octubre	2023-10-16T00:00:00	2024-11-08T15:00:00	6	Velocidad del viento	8
136690	7	Sololá	701	Sololá	4	Finca Santa Victoria	10	Octubre	2023-10-16T00:00:00	2024-11-08T15:00:00	7	Dirección del viento	4.02
136691	7	Sololá	701	Sololá	4	Finca Santa Victoria	10	Octubre	2023-10-16T00:00:00	2024-11-08T15:00:00	1	Precipitación	0
136692	7	Sololá	701	Sololá	4	Finca Santa Victoria	10	Octubre	2023-10-16T00:00:00	2024-11-08T15:00:00	8	Radiación solar	150
136693	7	Sololá	701	Sololá	4	Finca Santa Victoria	10	Octubre	2023-10-16T00:00:00	2024-11-08T16:00:00	2	Temperatura media	20.3
136694	7	Sololá	701	Sololá	4	Finca Santa Victoria	10	Octubre	2023-10-16T00:00:00	2024-11-08T16:00:00	4	Temperatura máxima	21
136695	7	Sololá	701	Sololá	4	Finca Santa Victoria	10	Octubre	2023-10-16T00:00:00	2024-11-08T16:00:00	3	Temperatura mínima	20.3
136696	7	Sololá	701	Sololá	4	Finca Santa Victoria	10	Octubre	2023-10-16T00:00:00	2024-11-08T16:00:00	5	Humedad	72
136697	7	Sololá	701	Sololá	4	Finca Santa Victoria	10	Octubre	2023-10-16T00:00:00	2024-11-08T16:00:00	6	Velocidad del viento	6.4
136698	7	Sololá	701	Sololá	4	Finca Santa Victoria	10	Octubre	2023-10-16T00:00:00	2024-11-08T16:00:00	7	Dirección del viento	3.22
136699	7	Sololá	701	Sololá	4	Finca Santa Victoria	10	Octubre	2023-10-16T00:00:00	2024-11-08T16:00:00	1	Precipitación	0
136700	7	Sololá	701	Sololá	4	Finca Santa Victoria	10	Octubre	2023-10-16T00:00:00	2024-11-08T16:00:00	8	Radiación solar	113
136701	7	Sololá	701	Sololá	4	Finca Santa Victoria	10	Octubre	2023-10-16T00:00:00	2024-11-08T17:00:00	2	Temperatura media	15.4
136702	7	Sololá	701	Sololá	4	Finca Santa Victoria	10	Octubre	2023-10-16T00:00:00	2024-11-08T17:00:00	4	Temperatura máxima	16.6
136703	7	Sololá	701	Sololá	4	Finca Santa Victoria	10	Octubre	2023-10-16T00:00:00	2024-11-08T17:00:00	3	Temperatura mínima	15.4
136704	7	Sololá	701	Sololá	4	Finca Santa Victoria	10	Octubre	2023-10-16T00:00:00	2024-11-08T17:00:00	5	Humedad	95
136705	7	Sololá	701	Sololá	4	Finca Santa Victoria	10	Octubre	2023-10-16T00:00:00	2024-11-08T17:00:00	6	Velocidad del viento	4.8
136706	7	Sololá	701	Sololá	4	Finca Santa Victoria	10	Octubre	2023-10-16T00:00:00	2024-11-08T17:00:00	7	Dirección del viento	4.83
136707	7	Sololá	701	Sololá	4	Finca Santa Victoria	10	Octubre	2023-10-16T00:00:00	2024-11-08T17:00:00	1	Precipitación	0
136708	7	Sololá	701	Sololá	4	Finca Santa Victoria	10	Octubre	2023-10-16T00:00:00	2024-11-08T17:00:00	8	Radiación solar	43
136709	7	Sololá	701	Sololá	4	Finca Santa Victoria	10	Octubre	2023-10-16T00:00:00	2024-11-08T18:00:00	2	Temperatura media	17.7
136710	7	Sololá	701	Sololá	4	Finca Santa Victoria	10	Octubre	2023-10-16T00:00:00	2024-11-08T18:00:00	4	Temperatura máxima	18.1
136711	7	Sololá	701	Sololá	4	Finca Santa Victoria	10	Octubre	2023-10-16T00:00:00	2024-11-08T18:00:00	3	Temperatura mínima	17.7
136712	7	Sololá	701	Sololá	4	Finca Santa Victoria	10	Octubre	2023-10-16T00:00:00	2024-11-08T18:00:00	5	Humedad	79
136713	7	Sololá	701	Sololá	4	Finca Santa Victoria	10	Octubre	2023-10-16T00:00:00	2024-11-08T18:00:00	6	Velocidad del viento	8
136714	7	Sololá	701	Sololá	4	Finca Santa Victoria	10	Octubre	2023-10-16T00:00:00	2024-11-08T18:00:00	7	Dirección del viento	4.02
136715	7	Sololá	701	Sololá	4	Finca Santa Victoria	10	Octubre	2023-10-16T00:00:00	2024-11-08T18:00:00	1	Precipitación	0
136716	7	Sololá	701	Sololá	4	Finca Santa Victoria	10	Octubre	2023-10-16T00:00:00	2024-11-08T18:00:00	8	Radiación solar	7
136717	7	Sololá	701	Sololá	4	Finca Santa Victoria	10	Octubre	2023-10-16T00:00:00	2024-11-08T19:00:00	2	Temperatura media	17.4
136718	7	Sololá	701	Sololá	4	Finca Santa Victoria	10	Octubre	2023-10-16T00:00:00	2024-11-08T19:00:00	4	Temperatura máxima	17.4
136719	7	Sololá	701	Sololá	4	Finca Santa Victoria	10	Octubre	2023-10-16T00:00:00	2024-11-08T19:00:00	3	Temperatura mínima	17.3
136720	7	Sololá	701	Sololá	4	Finca Santa Victoria	10	Octubre	2023-10-16T00:00:00	2024-11-08T19:00:00	5	Humedad	78
136721	7	Sololá	701	Sololá	4	Finca Santa Victoria	10	Octubre	2023-10-16T00:00:00	2024-11-08T19:00:00	6	Velocidad del viento	8
136722	7	Sololá	701	Sololá	4	Finca Santa Victoria	10	Octubre	2023-10-16T00:00:00	2024-11-08T19:00:00	7	Dirección del viento	4.02
136723	7	Sololá	701	Sololá	4	Finca Santa Victoria	10	Octubre	2023-10-16T00:00:00	2024-11-08T19:00:00	1	Precipitación	0
136724	7	Sololá	701	Sololá	4	Finca Santa Victoria	10	Octubre	2023-10-16T00:00:00	2024-11-08T19:00:00	8	Radiación solar	0
136725	7	Sololá	701	Sololá	4	Finca Santa Victoria	10	Octubre	2023-10-16T00:00:00	2024-11-08T20:00:00	2	Temperatura media	17.6
136726	7	Sololá	701	Sololá	4	Finca Santa Victoria	10	Octubre	2023-10-16T00:00:00	2024-11-08T20:00:00	4	Temperatura máxima	17.6
136727	7	Sololá	701	Sololá	4	Finca Santa Victoria	10	Octubre	2023-10-16T00:00:00	2024-11-08T20:00:00	3	Temperatura mínima	17.4
136728	7	Sololá	701	Sololá	4	Finca Santa Victoria	10	Octubre	2023-10-16T00:00:00	2024-11-08T20:00:00	5	Humedad	77
136729	7	Sololá	701	Sololá	4	Finca Santa Victoria	10	Octubre	2023-10-16T00:00:00	2024-11-08T20:00:00	6	Velocidad del viento	9.7
136730	7	Sololá	701	Sololá	4	Finca Santa Victoria	10	Octubre	2023-10-16T00:00:00	2024-11-08T20:00:00	7	Dirección del viento	4.83
136731	7	Sololá	701	Sololá	4	Finca Santa Victoria	10	Octubre	2023-10-16T00:00:00	2024-11-08T20:00:00	1	Precipitación	0
136732	7	Sololá	701	Sololá	4	Finca Santa Victoria	10	Octubre	2023-10-16T00:00:00	2024-11-08T20:00:00	8	Radiación solar	0
136733	7	Sololá	701	Sololá	4	Finca Santa Victoria	10	Octubre	2023-10-16T00:00:00	2024-11-08T21:00:00	2	Temperatura media	17.1
136734	7	Sololá	701	Sololá	4	Finca Santa Victoria	10	Octubre	2023-10-16T00:00:00	2024-11-08T21:00:00	4	Temperatura máxima	17.4
136735	7	Sololá	701	Sololá	4	Finca Santa Victoria	10	Octubre	2023-10-16T00:00:00	2024-11-08T21:00:00	3	Temperatura mínima	17.1
136736	7	Sololá	701	Sololá	4	Finca Santa Victoria	10	Octubre	2023-10-16T00:00:00	2024-11-08T21:00:00	5	Humedad	80
136737	7	Sololá	701	Sololá	4	Finca Santa Victoria	10	Octubre	2023-10-16T00:00:00	2024-11-08T21:00:00	6	Velocidad del viento	8
136738	7	Sololá	701	Sololá	4	Finca Santa Victoria	10	Octubre	2023-10-16T00:00:00	2024-11-08T21:00:00	7	Dirección del viento	4.02
136739	7	Sololá	701	Sololá	4	Finca Santa Victoria	10	Octubre	2023-10-16T00:00:00	2024-11-08T21:00:00	1	Precipitación	0
136740	7	Sololá	701	Sololá	4	Finca Santa Victoria	10	Octubre	2023-10-16T00:00:00	2024-11-08T21:00:00	8	Radiación solar	0
136741	7	Sololá	701	Sololá	4	Finca Santa Victoria	10	Octubre	2023-10-16T00:00:00	2024-11-08T22:00:00	2	Temperatura media	16.6
136742	7	Sololá	701	Sololá	4	Finca Santa Victoria	10	Octubre	2023-10-16T00:00:00	2024-11-08T22:00:00	4	Temperatura máxima	16.7
136743	7	Sololá	701	Sololá	4	Finca Santa Victoria	10	Octubre	2023-10-16T00:00:00	2024-11-08T22:00:00	3	Temperatura mínima	16.6
136744	7	Sololá	701	Sololá	4	Finca Santa Victoria	10	Octubre	2023-10-16T00:00:00	2024-11-08T22:00:00	5	Humedad	82
136745	7	Sololá	701	Sololá	4	Finca Santa Victoria	10	Octubre	2023-10-16T00:00:00	2024-11-08T22:00:00	6	Velocidad del viento	8
136746	7	Sololá	701	Sololá	4	Finca Santa Victoria	10	Octubre	2023-10-16T00:00:00	2024-11-08T22:00:00	7	Dirección del viento	4.02
136747	7	Sololá	701	Sololá	4	Finca Santa Victoria	10	Octubre	2023-10-16T00:00:00	2024-11-08T22:00:00	1	Precipitación	0
136748	7	Sololá	701	Sololá	4	Finca Santa Victoria	10	Octubre	2023-10-16T00:00:00	2024-11-08T22:00:00	8	Radiación solar	0
136749	7	Sololá	701	Sololá	4	Finca Santa Victoria	10	Octubre	2023-10-16T00:00:00	2024-11-08T23:00:00	2	Temperatura media	16.4
136750	7	Sololá	701	Sololá	4	Finca Santa Victoria	10	Octubre	2023-10-16T00:00:00	2024-11-08T23:00:00	4	Temperatura máxima	16.4
136751	7	Sololá	701	Sololá	4	Finca Santa Victoria	10	Octubre	2023-10-16T00:00:00	2024-11-08T23:00:00	3	Temperatura mínima	16.2
136752	7	Sololá	701	Sololá	4	Finca Santa Victoria	10	Octubre	2023-10-16T00:00:00	2024-11-08T23:00:00	5	Humedad	80
136753	7	Sololá	701	Sololá	4	Finca Santa Victoria	10	Octubre	2023-10-16T00:00:00	2024-11-08T23:00:00	6	Velocidad del viento	12.9
136754	7	Sololá	701	Sololá	4	Finca Santa Victoria	10	Octubre	2023-10-16T00:00:00	2024-11-08T23:00:00	7	Dirección del viento	6.44
136755	7	Sololá	701	Sololá	4	Finca Santa Victoria	10	Octubre	2023-10-16T00:00:00	2024-11-08T23:00:00	1	Precipitación	0
136756	7	Sololá	701	Sololá	4	Finca Santa Victoria	10	Octubre	2023-10-16T00:00:00	2024-11-08T23:00:00	8	Radiación solar	0
136757	7	Sololá	701	Sololá	4	Finca Santa Victoria	10	Octubre	2023-10-17T00:00:00	2024-11-08T00:00:00	2	Temperatura media	15.9
136758	7	Sololá	701	Sololá	4	Finca Santa Victoria	10	Octubre	2023-10-17T00:00:00	2024-11-08T00:00:00	4	Temperatura máxima	16.1
136759	7	Sololá	701	Sololá	4	Finca Santa Victoria	10	Octubre	2023-10-17T00:00:00	2024-11-08T00:00:00	3	Temperatura mínima	15.9
136760	7	Sololá	701	Sololá	4	Finca Santa Victoria	10	Octubre	2023-10-17T00:00:00	2024-11-08T00:00:00	5	Humedad	81
136761	7	Sololá	701	Sololá	4	Finca Santa Victoria	10	Octubre	2023-10-17T00:00:00	2024-11-08T00:00:00	6	Velocidad del viento	12.9
136762	7	Sololá	701	Sololá	4	Finca Santa Victoria	10	Octubre	2023-10-17T00:00:00	2024-11-08T00:00:00	7	Dirección del viento	6.44
136763	7	Sololá	701	Sololá	4	Finca Santa Victoria	10	Octubre	2023-10-17T00:00:00	2024-11-08T00:00:00	1	Precipitación	0
136764	7	Sololá	701	Sololá	4	Finca Santa Victoria	10	Octubre	2023-10-17T00:00:00	2024-11-08T00:00:00	8	Radiación solar	0
136765	7	Sololá	701	Sololá	4	Finca Santa Victoria	10	Octubre	2023-10-17T00:00:00	2024-11-08T01:00:00	2	Temperatura media	15.7
136766	7	Sololá	701	Sololá	4	Finca Santa Victoria	10	Octubre	2023-10-17T00:00:00	2024-11-08T01:00:00	4	Temperatura máxima	15.8
136767	7	Sololá	701	Sololá	4	Finca Santa Victoria	10	Octubre	2023-10-17T00:00:00	2024-11-08T01:00:00	3	Temperatura mínima	15.7
136768	7	Sololá	701	Sololá	4	Finca Santa Victoria	10	Octubre	2023-10-17T00:00:00	2024-11-08T01:00:00	5	Humedad	80
136769	7	Sololá	701	Sololá	4	Finca Santa Victoria	10	Octubre	2023-10-17T00:00:00	2024-11-08T01:00:00	6	Velocidad del viento	9.7
136770	7	Sololá	701	Sololá	4	Finca Santa Victoria	10	Octubre	2023-10-17T00:00:00	2024-11-08T01:00:00	7	Dirección del viento	4.83
136771	7	Sololá	701	Sololá	4	Finca Santa Victoria	10	Octubre	2023-10-17T00:00:00	2024-11-08T01:00:00	1	Precipitación	0
136772	7	Sololá	701	Sololá	4	Finca Santa Victoria	10	Octubre	2023-10-17T00:00:00	2024-11-08T01:00:00	8	Radiación solar	0
136773	7	Sololá	701	Sololá	4	Finca Santa Victoria	10	Octubre	2023-10-17T00:00:00	2024-11-08T02:00:00	2	Temperatura media	15.2
136774	7	Sololá	701	Sololá	4	Finca Santa Victoria	10	Octubre	2023-10-17T00:00:00	2024-11-08T02:00:00	4	Temperatura máxima	15.4
136775	7	Sololá	701	Sololá	4	Finca Santa Victoria	10	Octubre	2023-10-17T00:00:00	2024-11-08T02:00:00	3	Temperatura mínima	15.2
136776	7	Sololá	701	Sololá	4	Finca Santa Victoria	10	Octubre	2023-10-17T00:00:00	2024-11-08T02:00:00	5	Humedad	81
136777	7	Sololá	701	Sololá	4	Finca Santa Victoria	10	Octubre	2023-10-17T00:00:00	2024-11-08T02:00:00	6	Velocidad del viento	14.5
136778	7	Sololá	701	Sololá	4	Finca Santa Victoria	10	Octubre	2023-10-17T00:00:00	2024-11-08T02:00:00	7	Dirección del viento	7.24
136779	7	Sololá	701	Sololá	4	Finca Santa Victoria	10	Octubre	2023-10-17T00:00:00	2024-11-08T02:00:00	1	Precipitación	0
136780	7	Sololá	701	Sololá	4	Finca Santa Victoria	10	Octubre	2023-10-17T00:00:00	2024-11-08T02:00:00	8	Radiación solar	0
136781	7	Sololá	701	Sololá	4	Finca Santa Victoria	10	Octubre	2023-10-17T00:00:00	2024-11-08T03:00:00	2	Temperatura media	14.5
136782	7	Sololá	701	Sololá	4	Finca Santa Victoria	10	Octubre	2023-10-17T00:00:00	2024-11-08T03:00:00	4	Temperatura máxima	14.9
136783	7	Sololá	701	Sololá	4	Finca Santa Victoria	10	Octubre	2023-10-17T00:00:00	2024-11-08T03:00:00	3	Temperatura mínima	14.5
136784	7	Sololá	701	Sololá	4	Finca Santa Victoria	10	Octubre	2023-10-17T00:00:00	2024-11-08T03:00:00	5	Humedad	82
136785	7	Sololá	701	Sololá	4	Finca Santa Victoria	10	Octubre	2023-10-17T00:00:00	2024-11-08T03:00:00	6	Velocidad del viento	11.3
136786	7	Sololá	701	Sololá	4	Finca Santa Victoria	10	Octubre	2023-10-17T00:00:00	2024-11-08T03:00:00	7	Dirección del viento	5.63
136787	7	Sololá	701	Sololá	4	Finca Santa Victoria	10	Octubre	2023-10-17T00:00:00	2024-11-08T03:00:00	1	Precipitación	0
136788	7	Sololá	701	Sololá	4	Finca Santa Victoria	10	Octubre	2023-10-17T00:00:00	2024-11-08T03:00:00	8	Radiación solar	0
136789	7	Sololá	701	Sololá	4	Finca Santa Victoria	10	Octubre	2023-10-17T00:00:00	2024-11-08T04:00:00	2	Temperatura media	15.2
136790	7	Sololá	701	Sololá	4	Finca Santa Victoria	10	Octubre	2023-10-17T00:00:00	2024-11-08T04:00:00	4	Temperatura máxima	15.2
136791	7	Sololá	701	Sololá	4	Finca Santa Victoria	10	Octubre	2023-10-17T00:00:00	2024-11-08T04:00:00	3	Temperatura mínima	14.8
136792	7	Sololá	701	Sololá	4	Finca Santa Victoria	10	Octubre	2023-10-17T00:00:00	2024-11-08T04:00:00	5	Humedad	78
136793	7	Sololá	701	Sololá	4	Finca Santa Victoria	10	Octubre	2023-10-17T00:00:00	2024-11-08T04:00:00	6	Velocidad del viento	11.3
136794	7	Sololá	701	Sololá	4	Finca Santa Victoria	10	Octubre	2023-10-17T00:00:00	2024-11-08T04:00:00	7	Dirección del viento	5.63
136795	7	Sololá	701	Sololá	4	Finca Santa Victoria	10	Octubre	2023-10-17T00:00:00	2024-11-08T04:00:00	1	Precipitación	0
136796	7	Sololá	701	Sololá	4	Finca Santa Victoria	10	Octubre	2023-10-17T00:00:00	2024-11-08T04:00:00	8	Radiación solar	0
136797	7	Sololá	701	Sololá	4	Finca Santa Victoria	10	Octubre	2023-10-17T00:00:00	2024-11-08T05:00:00	2	Temperatura media	14.8
136798	7	Sololá	701	Sololá	4	Finca Santa Victoria	10	Octubre	2023-10-17T00:00:00	2024-11-08T05:00:00	4	Temperatura máxima	15.1
136799	7	Sololá	701	Sololá	4	Finca Santa Victoria	10	Octubre	2023-10-17T00:00:00	2024-11-08T05:00:00	3	Temperatura mínima	14.8
136800	7	Sololá	701	Sololá	4	Finca Santa Victoria	10	Octubre	2023-10-17T00:00:00	2024-11-08T05:00:00	5	Humedad	79
136801	7	Sololá	701	Sololá	4	Finca Santa Victoria	10	Octubre	2023-10-17T00:00:00	2024-11-08T05:00:00	6	Velocidad del viento	11.3
136802	7	Sololá	701	Sololá	4	Finca Santa Victoria	10	Octubre	2023-10-17T00:00:00	2024-11-08T05:00:00	7	Dirección del viento	5.63
136803	7	Sololá	701	Sololá	4	Finca Santa Victoria	10	Octubre	2023-10-17T00:00:00	2024-11-08T05:00:00	1	Precipitación	0
136804	7	Sololá	701	Sololá	4	Finca Santa Victoria	10	Octubre	2023-10-17T00:00:00	2024-11-08T05:00:00	8	Radiación solar	0
136805	7	Sololá	701	Sololá	4	Finca Santa Victoria	10	Octubre	2023-10-17T00:00:00	2024-11-08T06:00:00	2	Temperatura media	14.7
136806	7	Sololá	701	Sololá	4	Finca Santa Victoria	10	Octubre	2023-10-17T00:00:00	2024-11-08T06:00:00	4	Temperatura máxima	14.8
136807	7	Sololá	701	Sololá	4	Finca Santa Victoria	10	Octubre	2023-10-17T00:00:00	2024-11-08T06:00:00	3	Temperatura mínima	14.6
136808	7	Sololá	701	Sololá	4	Finca Santa Victoria	10	Octubre	2023-10-17T00:00:00	2024-11-08T06:00:00	5	Humedad	78
136809	7	Sololá	701	Sololá	4	Finca Santa Victoria	10	Octubre	2023-10-17T00:00:00	2024-11-08T06:00:00	6	Velocidad del viento	8
136810	7	Sololá	701	Sololá	4	Finca Santa Victoria	10	Octubre	2023-10-17T00:00:00	2024-11-08T06:00:00	7	Dirección del viento	4.02
136811	7	Sololá	701	Sololá	4	Finca Santa Victoria	10	Octubre	2023-10-17T00:00:00	2024-11-08T06:00:00	1	Precipitación	0
136812	7	Sololá	701	Sololá	4	Finca Santa Victoria	10	Octubre	2023-10-17T00:00:00	2024-11-08T06:00:00	8	Radiación solar	0
136813	7	Sololá	701	Sololá	4	Finca Santa Victoria	10	Octubre	2023-10-17T00:00:00	2024-11-08T07:00:00	2	Temperatura media	15.8
136814	7	Sololá	701	Sololá	4	Finca Santa Victoria	10	Octubre	2023-10-17T00:00:00	2024-11-08T07:00:00	4	Temperatura máxima	15.8
136815	7	Sololá	701	Sololá	4	Finca Santa Victoria	10	Octubre	2023-10-17T00:00:00	2024-11-08T07:00:00	3	Temperatura mínima	14.9
136816	7	Sololá	701	Sololá	4	Finca Santa Victoria	10	Octubre	2023-10-17T00:00:00	2024-11-08T07:00:00	5	Humedad	75
136817	7	Sololá	701	Sololá	4	Finca Santa Victoria	10	Octubre	2023-10-17T00:00:00	2024-11-08T07:00:00	6	Velocidad del viento	11.3
136818	7	Sololá	701	Sololá	4	Finca Santa Victoria	10	Octubre	2023-10-17T00:00:00	2024-11-08T07:00:00	7	Dirección del viento	5.63
136819	7	Sololá	701	Sololá	4	Finca Santa Victoria	10	Octubre	2023-10-17T00:00:00	2024-11-08T07:00:00	1	Precipitación	0
136820	7	Sololá	701	Sololá	4	Finca Santa Victoria	10	Octubre	2023-10-17T00:00:00	2024-11-08T07:00:00	8	Radiación solar	48
136821	7	Sololá	701	Sololá	4	Finca Santa Victoria	10	Octubre	2023-10-17T00:00:00	2024-11-08T08:00:00	2	Temperatura media	17.3
136822	7	Sololá	701	Sololá	4	Finca Santa Victoria	10	Octubre	2023-10-17T00:00:00	2024-11-08T08:00:00	4	Temperatura máxima	17.3
136823	7	Sololá	701	Sololá	4	Finca Santa Victoria	10	Octubre	2023-10-17T00:00:00	2024-11-08T08:00:00	3	Temperatura mínima	16.3
136824	7	Sololá	701	Sololá	4	Finca Santa Victoria	10	Octubre	2023-10-17T00:00:00	2024-11-08T08:00:00	5	Humedad	72
136825	7	Sololá	701	Sololá	4	Finca Santa Victoria	10	Octubre	2023-10-17T00:00:00	2024-11-08T08:00:00	6	Velocidad del viento	9.7
136826	7	Sololá	701	Sololá	4	Finca Santa Victoria	10	Octubre	2023-10-17T00:00:00	2024-11-08T08:00:00	7	Dirección del viento	4.83
136827	7	Sololá	701	Sololá	4	Finca Santa Victoria	10	Octubre	2023-10-17T00:00:00	2024-11-08T08:00:00	1	Precipitación	0
136828	7	Sololá	701	Sololá	4	Finca Santa Victoria	10	Octubre	2023-10-17T00:00:00	2024-11-08T08:00:00	8	Radiación solar	166
136829	7	Sololá	701	Sololá	4	Finca Santa Victoria	10	Octubre	2023-10-17T00:00:00	2024-11-08T09:00:00	2	Temperatura media	18.3
136830	7	Sololá	701	Sololá	4	Finca Santa Victoria	10	Octubre	2023-10-17T00:00:00	2024-11-08T09:00:00	4	Temperatura máxima	18.4
136831	7	Sololá	701	Sololá	4	Finca Santa Victoria	10	Octubre	2023-10-17T00:00:00	2024-11-08T09:00:00	3	Temperatura mínima	17.3
136832	7	Sololá	701	Sololá	4	Finca Santa Victoria	10	Octubre	2023-10-17T00:00:00	2024-11-08T09:00:00	5	Humedad	80
136833	7	Sololá	701	Sololá	4	Finca Santa Victoria	10	Octubre	2023-10-17T00:00:00	2024-11-08T09:00:00	6	Velocidad del viento	0
136834	7	Sololá	701	Sololá	4	Finca Santa Victoria	10	Octubre	2023-10-17T00:00:00	2024-11-08T09:00:00	7	Dirección del viento	0
136835	7	Sololá	701	Sololá	4	Finca Santa Victoria	10	Octubre	2023-10-17T00:00:00	2024-11-08T09:00:00	1	Precipitación	0
136836	7	Sololá	701	Sololá	4	Finca Santa Victoria	10	Octubre	2023-10-17T00:00:00	2024-11-08T09:00:00	8	Radiación solar	209
136837	7	Sololá	701	Sololá	4	Finca Santa Victoria	10	Octubre	2023-10-17T00:00:00	2024-11-08T10:00:00	2	Temperatura media	18.9
136838	7	Sololá	701	Sololá	4	Finca Santa Victoria	10	Octubre	2023-10-17T00:00:00	2024-11-08T10:00:00	4	Temperatura máxima	19
136839	7	Sololá	701	Sololá	4	Finca Santa Victoria	10	Octubre	2023-10-17T00:00:00	2024-11-08T10:00:00	3	Temperatura mínima	18.6
136840	7	Sololá	701	Sololá	4	Finca Santa Victoria	10	Octubre	2023-10-17T00:00:00	2024-11-08T10:00:00	5	Humedad	69
136841	7	Sololá	701	Sololá	4	Finca Santa Victoria	10	Octubre	2023-10-17T00:00:00	2024-11-08T10:00:00	6	Velocidad del viento	11.3
136842	7	Sololá	701	Sololá	4	Finca Santa Victoria	10	Octubre	2023-10-17T00:00:00	2024-11-08T10:00:00	7	Dirección del viento	5.63
136843	7	Sololá	701	Sololá	4	Finca Santa Victoria	10	Octubre	2023-10-17T00:00:00	2024-11-08T10:00:00	1	Precipitación	0
136844	7	Sololá	701	Sololá	4	Finca Santa Victoria	10	Octubre	2023-10-17T00:00:00	2024-11-08T10:00:00	8	Radiación solar	273
136845	7	Sololá	701	Sololá	4	Finca Santa Victoria	10	Octubre	2023-10-17T00:00:00	2024-11-08T11:00:00	2	Temperatura media	18.6
136846	7	Sololá	701	Sololá	4	Finca Santa Victoria	10	Octubre	2023-10-17T00:00:00	2024-11-08T11:00:00	4	Temperatura máxima	18.6
136847	7	Sololá	701	Sololá	4	Finca Santa Victoria	10	Octubre	2023-10-17T00:00:00	2024-11-08T11:00:00	3	Temperatura mínima	18.3
136848	7	Sololá	701	Sololá	4	Finca Santa Victoria	10	Octubre	2023-10-17T00:00:00	2024-11-08T11:00:00	5	Humedad	71
136849	7	Sololá	701	Sololá	4	Finca Santa Victoria	10	Octubre	2023-10-17T00:00:00	2024-11-08T11:00:00	6	Velocidad del viento	9.7
136850	7	Sololá	701	Sololá	4	Finca Santa Victoria	10	Octubre	2023-10-17T00:00:00	2024-11-08T11:00:00	7	Dirección del viento	4.83
136851	7	Sololá	701	Sololá	4	Finca Santa Victoria	10	Octubre	2023-10-17T00:00:00	2024-11-08T11:00:00	1	Precipitación	0
136852	7	Sololá	701	Sololá	4	Finca Santa Victoria	10	Octubre	2023-10-17T00:00:00	2024-11-08T11:00:00	8	Radiación solar	243
136853	7	Sololá	701	Sololá	4	Finca Santa Victoria	10	Octubre	2023-10-17T00:00:00	2024-11-08T12:00:00	2	Temperatura media	18.3
136854	7	Sololá	701	Sololá	4	Finca Santa Victoria	10	Octubre	2023-10-17T00:00:00	2024-11-08T12:00:00	4	Temperatura máxima	19.1
136855	7	Sololá	701	Sololá	4	Finca Santa Victoria	10	Octubre	2023-10-17T00:00:00	2024-11-08T12:00:00	3	Temperatura mínima	18.3
136856	7	Sololá	701	Sololá	4	Finca Santa Victoria	10	Octubre	2023-10-17T00:00:00	2024-11-08T12:00:00	5	Humedad	72
136857	7	Sololá	701	Sololá	4	Finca Santa Victoria	10	Octubre	2023-10-17T00:00:00	2024-11-08T12:00:00	6	Velocidad del viento	8
136858	7	Sololá	701	Sololá	4	Finca Santa Victoria	10	Octubre	2023-10-17T00:00:00	2024-11-08T12:00:00	7	Dirección del viento	4.02
136859	7	Sololá	701	Sololá	4	Finca Santa Victoria	10	Octubre	2023-10-17T00:00:00	2024-11-08T12:00:00	1	Precipitación	0
136860	7	Sololá	701	Sololá	4	Finca Santa Victoria	10	Octubre	2023-10-17T00:00:00	2024-11-08T12:00:00	8	Radiación solar	478
136861	7	Sololá	701	Sololá	4	Finca Santa Victoria	10	Octubre	2023-10-17T00:00:00	2024-11-08T13:00:00	2	Temperatura media	19.1
136862	7	Sololá	701	Sololá	4	Finca Santa Victoria	10	Octubre	2023-10-17T00:00:00	2024-11-08T13:00:00	4	Temperatura máxima	19.1
136863	7	Sololá	701	Sololá	4	Finca Santa Victoria	10	Octubre	2023-10-17T00:00:00	2024-11-08T13:00:00	3	Temperatura mínima	18.3
136864	7	Sololá	701	Sololá	4	Finca Santa Victoria	10	Octubre	2023-10-17T00:00:00	2024-11-08T13:00:00	5	Humedad	70
136865	7	Sololá	701	Sololá	4	Finca Santa Victoria	10	Octubre	2023-10-17T00:00:00	2024-11-08T13:00:00	6	Velocidad del viento	6.4
136866	7	Sololá	701	Sololá	4	Finca Santa Victoria	10	Octubre	2023-10-17T00:00:00	2024-11-08T13:00:00	7	Dirección del viento	3.22
136867	7	Sololá	701	Sololá	4	Finca Santa Victoria	10	Octubre	2023-10-17T00:00:00	2024-11-08T13:00:00	1	Precipitación	0
136868	7	Sololá	701	Sololá	4	Finca Santa Victoria	10	Octubre	2023-10-17T00:00:00	2024-11-08T13:00:00	8	Radiación solar	281
136869	7	Sololá	701	Sololá	4	Finca Santa Victoria	10	Octubre	2023-10-17T00:00:00	2024-11-08T14:00:00	2	Temperatura media	19.7
136870	7	Sololá	701	Sololá	4	Finca Santa Victoria	10	Octubre	2023-10-17T00:00:00	2024-11-08T14:00:00	4	Temperatura máxima	20.6
136871	7	Sololá	701	Sololá	4	Finca Santa Victoria	10	Octubre	2023-10-17T00:00:00	2024-11-08T14:00:00	3	Temperatura mínima	19.7
136872	7	Sololá	701	Sololá	4	Finca Santa Victoria	10	Octubre	2023-10-17T00:00:00	2024-11-08T14:00:00	5	Humedad	70
136873	7	Sololá	701	Sololá	4	Finca Santa Victoria	10	Octubre	2023-10-17T00:00:00	2024-11-08T14:00:00	6	Velocidad del viento	9.7
136874	7	Sololá	701	Sololá	4	Finca Santa Victoria	10	Octubre	2023-10-17T00:00:00	2024-11-08T14:00:00	7	Dirección del viento	4.83
136875	7	Sololá	701	Sololá	4	Finca Santa Victoria	10	Octubre	2023-10-17T00:00:00	2024-11-08T14:00:00	1	Precipitación	0
136876	7	Sololá	701	Sololá	4	Finca Santa Victoria	10	Octubre	2023-10-17T00:00:00	2024-11-08T14:00:00	8	Radiación solar	179
136877	7	Sololá	701	Sololá	4	Finca Santa Victoria	10	Octubre	2023-10-17T00:00:00	2024-11-08T15:00:00	2	Temperatura media	18.8
136878	7	Sololá	701	Sololá	4	Finca Santa Victoria	10	Octubre	2023-10-17T00:00:00	2024-11-08T15:00:00	4	Temperatura máxima	19
136879	7	Sololá	701	Sololá	4	Finca Santa Victoria	10	Octubre	2023-10-17T00:00:00	2024-11-08T15:00:00	3	Temperatura mínima	18.7
136880	7	Sololá	701	Sololá	4	Finca Santa Victoria	10	Octubre	2023-10-17T00:00:00	2024-11-08T15:00:00	5	Humedad	74
136881	7	Sololá	701	Sololá	4	Finca Santa Victoria	10	Octubre	2023-10-17T00:00:00	2024-11-08T15:00:00	6	Velocidad del viento	6.4
136882	7	Sololá	701	Sololá	4	Finca Santa Victoria	10	Octubre	2023-10-17T00:00:00	2024-11-08T15:00:00	7	Dirección del viento	3.22
136883	7	Sololá	701	Sololá	4	Finca Santa Victoria	10	Octubre	2023-10-17T00:00:00	2024-11-08T15:00:00	1	Precipitación	0
136884	7	Sololá	701	Sololá	4	Finca Santa Victoria	10	Octubre	2023-10-17T00:00:00	2024-11-08T15:00:00	8	Radiación solar	101
136885	7	Sololá	701	Sololá	4	Finca Santa Victoria	10	Octubre	2023-10-17T00:00:00	2024-11-08T16:00:00	2	Temperatura media	18.8
136886	7	Sololá	701	Sololá	4	Finca Santa Victoria	10	Octubre	2023-10-17T00:00:00	2024-11-08T16:00:00	4	Temperatura máxima	19.2
136887	7	Sololá	701	Sololá	4	Finca Santa Victoria	10	Octubre	2023-10-17T00:00:00	2024-11-08T16:00:00	3	Temperatura mínima	18.7
136888	7	Sololá	701	Sololá	4	Finca Santa Victoria	10	Octubre	2023-10-17T00:00:00	2024-11-08T16:00:00	5	Humedad	73
136889	7	Sololá	701	Sololá	4	Finca Santa Victoria	10	Octubre	2023-10-17T00:00:00	2024-11-08T16:00:00	6	Velocidad del viento	8
136890	7	Sololá	701	Sololá	4	Finca Santa Victoria	10	Octubre	2023-10-17T00:00:00	2024-11-08T16:00:00	7	Dirección del viento	4.02
136891	7	Sololá	701	Sololá	4	Finca Santa Victoria	10	Octubre	2023-10-17T00:00:00	2024-11-08T16:00:00	1	Precipitación	0
136892	7	Sololá	701	Sololá	4	Finca Santa Victoria	10	Octubre	2023-10-17T00:00:00	2024-11-08T16:00:00	8	Radiación solar	68
136893	7	Sololá	701	Sololá	4	Finca Santa Victoria	10	Octubre	2023-10-17T00:00:00	2024-11-08T17:00:00	2	Temperatura media	17.6
136894	7	Sololá	701	Sololá	4	Finca Santa Victoria	10	Octubre	2023-10-17T00:00:00	2024-11-08T17:00:00	4	Temperatura máxima	18.2
136895	7	Sololá	701	Sololá	4	Finca Santa Victoria	10	Octubre	2023-10-17T00:00:00	2024-11-08T17:00:00	3	Temperatura mínima	17.6
136896	7	Sololá	701	Sololá	4	Finca Santa Victoria	10	Octubre	2023-10-17T00:00:00	2024-11-08T17:00:00	5	Humedad	76
136897	7	Sololá	701	Sololá	4	Finca Santa Victoria	10	Octubre	2023-10-17T00:00:00	2024-11-08T17:00:00	6	Velocidad del viento	9.7
136898	7	Sololá	701	Sololá	4	Finca Santa Victoria	10	Octubre	2023-10-17T00:00:00	2024-11-08T17:00:00	7	Dirección del viento	4.83
136899	7	Sololá	701	Sololá	4	Finca Santa Victoria	10	Octubre	2023-10-17T00:00:00	2024-11-08T17:00:00	1	Precipitación	0
136900	7	Sololá	701	Sololá	4	Finca Santa Victoria	10	Octubre	2023-10-17T00:00:00	2024-11-08T17:00:00	8	Radiación solar	24
136901	7	Sololá	701	Sololá	4	Finca Santa Victoria	10	Octubre	2023-10-17T00:00:00	2024-11-08T18:00:00	2	Temperatura media	16.3
136902	7	Sololá	701	Sololá	4	Finca Santa Victoria	10	Octubre	2023-10-17T00:00:00	2024-11-08T18:00:00	4	Temperatura máxima	16.9
136903	7	Sololá	701	Sololá	4	Finca Santa Victoria	10	Octubre	2023-10-17T00:00:00	2024-11-08T18:00:00	3	Temperatura mínima	16.3
136904	7	Sololá	701	Sololá	4	Finca Santa Victoria	10	Octubre	2023-10-17T00:00:00	2024-11-08T18:00:00	5	Humedad	82
136905	7	Sololá	701	Sololá	4	Finca Santa Victoria	10	Octubre	2023-10-17T00:00:00	2024-11-08T18:00:00	6	Velocidad del viento	11.3
136906	7	Sololá	701	Sololá	4	Finca Santa Victoria	10	Octubre	2023-10-17T00:00:00	2024-11-08T18:00:00	7	Dirección del viento	5.63
136907	7	Sololá	701	Sololá	4	Finca Santa Victoria	10	Octubre	2023-10-17T00:00:00	2024-11-08T18:00:00	1	Precipitación	0
136908	7	Sololá	701	Sololá	4	Finca Santa Victoria	10	Octubre	2023-10-17T00:00:00	2024-11-08T18:00:00	8	Radiación solar	4
136909	7	Sololá	701	Sololá	4	Finca Santa Victoria	10	Octubre	2023-10-17T00:00:00	2024-11-08T19:00:00	2	Temperatura media	16
136910	7	Sololá	701	Sololá	4	Finca Santa Victoria	10	Octubre	2023-10-17T00:00:00	2024-11-08T19:00:00	4	Temperatura máxima	16.1
136911	7	Sololá	701	Sololá	4	Finca Santa Victoria	10	Octubre	2023-10-17T00:00:00	2024-11-08T19:00:00	3	Temperatura mínima	15.9
136912	7	Sololá	701	Sololá	4	Finca Santa Victoria	10	Octubre	2023-10-17T00:00:00	2024-11-08T19:00:00	5	Humedad	81
136913	7	Sololá	701	Sololá	4	Finca Santa Victoria	10	Octubre	2023-10-17T00:00:00	2024-11-08T19:00:00	6	Velocidad del viento	11.3
136914	7	Sololá	701	Sololá	4	Finca Santa Victoria	10	Octubre	2023-10-17T00:00:00	2024-11-08T19:00:00	7	Dirección del viento	5.63
136915	7	Sololá	701	Sololá	4	Finca Santa Victoria	10	Octubre	2023-10-17T00:00:00	2024-11-08T19:00:00	1	Precipitación	0
136916	7	Sololá	701	Sololá	4	Finca Santa Victoria	10	Octubre	2023-10-17T00:00:00	2024-11-08T19:00:00	8	Radiación solar	0
136917	7	Sololá	701	Sololá	4	Finca Santa Victoria	10	Octubre	2023-10-17T00:00:00	2024-11-08T20:00:00	2	Temperatura media	16
136918	7	Sololá	701	Sololá	4	Finca Santa Victoria	10	Octubre	2023-10-17T00:00:00	2024-11-08T20:00:00	4	Temperatura máxima	16
136919	7	Sololá	701	Sololá	4	Finca Santa Victoria	10	Octubre	2023-10-17T00:00:00	2024-11-08T20:00:00	3	Temperatura mínima	15.9
136920	7	Sololá	701	Sololá	4	Finca Santa Victoria	10	Octubre	2023-10-17T00:00:00	2024-11-08T20:00:00	5	Humedad	81
136921	7	Sololá	701	Sololá	4	Finca Santa Victoria	10	Octubre	2023-10-17T00:00:00	2024-11-08T20:00:00	6	Velocidad del viento	9.7
136922	7	Sololá	701	Sololá	4	Finca Santa Victoria	10	Octubre	2023-10-17T00:00:00	2024-11-08T20:00:00	7	Dirección del viento	4.83
136923	7	Sololá	701	Sololá	4	Finca Santa Victoria	10	Octubre	2023-10-17T00:00:00	2024-11-08T20:00:00	1	Precipitación	0
136924	7	Sololá	701	Sololá	4	Finca Santa Victoria	10	Octubre	2023-10-17T00:00:00	2024-11-08T20:00:00	8	Radiación solar	0
136925	7	Sololá	701	Sololá	4	Finca Santa Victoria	10	Octubre	2023-10-17T00:00:00	2024-11-08T21:00:00	2	Temperatura media	15.5
136926	7	Sololá	701	Sololá	4	Finca Santa Victoria	10	Octubre	2023-10-17T00:00:00	2024-11-08T21:00:00	4	Temperatura máxima	15.8
136927	7	Sololá	701	Sololá	4	Finca Santa Victoria	10	Octubre	2023-10-17T00:00:00	2024-11-08T21:00:00	3	Temperatura mínima	15.4
136928	7	Sololá	701	Sololá	4	Finca Santa Victoria	10	Octubre	2023-10-17T00:00:00	2024-11-08T21:00:00	5	Humedad	83
136929	7	Sololá	701	Sololá	4	Finca Santa Victoria	10	Octubre	2023-10-17T00:00:00	2024-11-08T21:00:00	6	Velocidad del viento	12.9
136930	7	Sololá	701	Sololá	4	Finca Santa Victoria	10	Octubre	2023-10-17T00:00:00	2024-11-08T21:00:00	7	Dirección del viento	6.44
136931	7	Sololá	701	Sololá	4	Finca Santa Victoria	10	Octubre	2023-10-17T00:00:00	2024-11-08T21:00:00	1	Precipitación	0
136932	7	Sololá	701	Sololá	4	Finca Santa Victoria	10	Octubre	2023-10-17T00:00:00	2024-11-08T21:00:00	8	Radiación solar	0
136933	7	Sololá	701	Sololá	4	Finca Santa Victoria	10	Octubre	2023-10-17T00:00:00	2024-11-08T22:00:00	2	Temperatura media	15.1
136934	7	Sololá	701	Sololá	4	Finca Santa Victoria	10	Octubre	2023-10-17T00:00:00	2024-11-08T22:00:00	4	Temperatura máxima	15.3
136935	7	Sololá	701	Sololá	4	Finca Santa Victoria	10	Octubre	2023-10-17T00:00:00	2024-11-08T22:00:00	3	Temperatura mínima	15.1
136936	7	Sololá	701	Sololá	4	Finca Santa Victoria	10	Octubre	2023-10-17T00:00:00	2024-11-08T22:00:00	5	Humedad	83
136937	7	Sololá	701	Sololá	4	Finca Santa Victoria	10	Octubre	2023-10-17T00:00:00	2024-11-08T22:00:00	6	Velocidad del viento	11.3
136938	7	Sololá	701	Sololá	4	Finca Santa Victoria	10	Octubre	2023-10-17T00:00:00	2024-11-08T22:00:00	7	Dirección del viento	5.63
136939	7	Sololá	701	Sololá	4	Finca Santa Victoria	10	Octubre	2023-10-17T00:00:00	2024-11-08T22:00:00	1	Precipitación	0
136940	7	Sololá	701	Sololá	4	Finca Santa Victoria	10	Octubre	2023-10-17T00:00:00	2024-11-08T22:00:00	8	Radiación solar	0
136941	7	Sololá	701	Sololá	4	Finca Santa Victoria	10	Octubre	2023-10-17T00:00:00	2024-11-08T23:00:00	2	Temperatura media	14.7
136942	7	Sololá	701	Sololá	4	Finca Santa Victoria	10	Octubre	2023-10-17T00:00:00	2024-11-08T23:00:00	4	Temperatura máxima	14.7
136943	7	Sololá	701	Sololá	4	Finca Santa Victoria	10	Octubre	2023-10-17T00:00:00	2024-11-08T23:00:00	3	Temperatura mínima	14.6
136944	7	Sololá	701	Sololá	4	Finca Santa Victoria	10	Octubre	2023-10-17T00:00:00	2024-11-08T23:00:00	5	Humedad	84
136945	7	Sololá	701	Sololá	4	Finca Santa Victoria	10	Octubre	2023-10-17T00:00:00	2024-11-08T23:00:00	6	Velocidad del viento	6.4
136946	7	Sololá	701	Sololá	4	Finca Santa Victoria	10	Octubre	2023-10-17T00:00:00	2024-11-08T23:00:00	7	Dirección del viento	3.22
136947	7	Sololá	701	Sololá	4	Finca Santa Victoria	10	Octubre	2023-10-17T00:00:00	2024-11-08T23:00:00	1	Precipitación	0
136948	7	Sololá	701	Sololá	4	Finca Santa Victoria	10	Octubre	2023-10-17T00:00:00	2024-11-08T23:00:00	8	Radiación solar	0
136949	7	Sololá	701	Sololá	4	Finca Santa Victoria	10	Octubre	2023-10-18T00:00:00	2024-11-08T00:00:00	2	Temperatura media	14.4
136950	7	Sololá	701	Sololá	4	Finca Santa Victoria	10	Octubre	2023-10-18T00:00:00	2024-11-08T00:00:00	4	Temperatura máxima	14.4
136951	7	Sololá	701	Sololá	4	Finca Santa Victoria	10	Octubre	2023-10-18T00:00:00	2024-11-08T00:00:00	3	Temperatura mínima	14.3
136952	7	Sololá	701	Sololá	4	Finca Santa Victoria	10	Octubre	2023-10-18T00:00:00	2024-11-08T00:00:00	5	Humedad	85
136953	7	Sololá	701	Sololá	4	Finca Santa Victoria	10	Octubre	2023-10-18T00:00:00	2024-11-08T00:00:00	6	Velocidad del viento	4.8
136954	7	Sololá	701	Sololá	4	Finca Santa Victoria	10	Octubre	2023-10-18T00:00:00	2024-11-08T00:00:00	7	Dirección del viento	2.41
136955	7	Sololá	701	Sololá	4	Finca Santa Victoria	10	Octubre	2023-10-18T00:00:00	2024-11-08T00:00:00	1	Precipitación	0
136956	7	Sololá	701	Sololá	4	Finca Santa Victoria	10	Octubre	2023-10-18T00:00:00	2024-11-08T00:00:00	8	Radiación solar	0
136957	7	Sololá	701	Sololá	4	Finca Santa Victoria	10	Octubre	2023-10-18T00:00:00	2024-11-08T01:00:00	2	Temperatura media	14.3
136958	7	Sololá	701	Sololá	4	Finca Santa Victoria	10	Octubre	2023-10-18T00:00:00	2024-11-08T01:00:00	4	Temperatura máxima	14.7
136959	7	Sololá	701	Sololá	4	Finca Santa Victoria	10	Octubre	2023-10-18T00:00:00	2024-11-08T01:00:00	3	Temperatura mínima	14.3
136960	7	Sololá	701	Sololá	4	Finca Santa Victoria	10	Octubre	2023-10-18T00:00:00	2024-11-08T01:00:00	5	Humedad	84
136961	7	Sololá	701	Sololá	4	Finca Santa Victoria	10	Octubre	2023-10-18T00:00:00	2024-11-08T01:00:00	6	Velocidad del viento	6.4
136962	7	Sololá	701	Sololá	4	Finca Santa Victoria	10	Octubre	2023-10-18T00:00:00	2024-11-08T01:00:00	7	Dirección del viento	3.22
136963	7	Sololá	701	Sololá	4	Finca Santa Victoria	10	Octubre	2023-10-18T00:00:00	2024-11-08T01:00:00	1	Precipitación	0
136964	7	Sololá	701	Sololá	4	Finca Santa Victoria	10	Octubre	2023-10-18T00:00:00	2024-11-08T01:00:00	8	Radiación solar	0
136965	7	Sololá	701	Sololá	4	Finca Santa Victoria	10	Octubre	2023-10-18T00:00:00	2024-11-08T02:00:00	2	Temperatura media	14.3
136966	7	Sololá	701	Sololá	4	Finca Santa Victoria	10	Octubre	2023-10-18T00:00:00	2024-11-08T02:00:00	4	Temperatura máxima	14.3
136967	7	Sololá	701	Sololá	4	Finca Santa Victoria	10	Octubre	2023-10-18T00:00:00	2024-11-08T02:00:00	3	Temperatura mínima	14.2
136968	7	Sololá	701	Sololá	4	Finca Santa Victoria	10	Octubre	2023-10-18T00:00:00	2024-11-08T02:00:00	5	Humedad	84
136969	7	Sololá	701	Sololá	4	Finca Santa Victoria	10	Octubre	2023-10-18T00:00:00	2024-11-08T02:00:00	6	Velocidad del viento	8
136970	7	Sololá	701	Sololá	4	Finca Santa Victoria	10	Octubre	2023-10-18T00:00:00	2024-11-08T02:00:00	7	Dirección del viento	4.02
136971	7	Sololá	701	Sololá	4	Finca Santa Victoria	10	Octubre	2023-10-18T00:00:00	2024-11-08T02:00:00	1	Precipitación	0
136972	7	Sololá	701	Sololá	4	Finca Santa Victoria	10	Octubre	2023-10-18T00:00:00	2024-11-08T02:00:00	8	Radiación solar	0
136973	7	Sololá	701	Sololá	4	Finca Santa Victoria	10	Octubre	2023-10-18T00:00:00	2024-11-08T03:00:00	2	Temperatura media	14.1
136974	7	Sololá	701	Sololá	4	Finca Santa Victoria	10	Octubre	2023-10-18T00:00:00	2024-11-08T03:00:00	4	Temperatura máxima	14.4
136975	7	Sololá	701	Sololá	4	Finca Santa Victoria	10	Octubre	2023-10-18T00:00:00	2024-11-08T03:00:00	3	Temperatura mínima	14
136976	7	Sololá	701	Sololá	4	Finca Santa Victoria	10	Octubre	2023-10-18T00:00:00	2024-11-08T03:00:00	5	Humedad	84
136977	7	Sololá	701	Sololá	4	Finca Santa Victoria	10	Octubre	2023-10-18T00:00:00	2024-11-08T03:00:00	6	Velocidad del viento	1.6
136978	7	Sololá	701	Sololá	4	Finca Santa Victoria	10	Octubre	2023-10-18T00:00:00	2024-11-08T03:00:00	7	Dirección del viento	0.8
136979	7	Sololá	701	Sololá	4	Finca Santa Victoria	10	Octubre	2023-10-18T00:00:00	2024-11-08T03:00:00	1	Precipitación	0
136980	7	Sololá	701	Sololá	4	Finca Santa Victoria	10	Octubre	2023-10-18T00:00:00	2024-11-08T03:00:00	8	Radiación solar	0
136981	7	Sololá	701	Sololá	4	Finca Santa Victoria	10	Octubre	2023-10-18T00:00:00	2024-11-08T04:00:00	2	Temperatura media	13.7
136982	7	Sololá	701	Sololá	4	Finca Santa Victoria	10	Octubre	2023-10-18T00:00:00	2024-11-08T04:00:00	4	Temperatura máxima	14.2
136983	7	Sololá	701	Sololá	4	Finca Santa Victoria	10	Octubre	2023-10-18T00:00:00	2024-11-08T04:00:00	3	Temperatura mínima	13.7
136984	7	Sololá	701	Sololá	4	Finca Santa Victoria	10	Octubre	2023-10-18T00:00:00	2024-11-08T04:00:00	5	Humedad	84
136985	7	Sololá	701	Sololá	4	Finca Santa Victoria	10	Octubre	2023-10-18T00:00:00	2024-11-08T04:00:00	6	Velocidad del viento	4.8
136986	7	Sololá	701	Sololá	4	Finca Santa Victoria	10	Octubre	2023-10-18T00:00:00	2024-11-08T04:00:00	7	Dirección del viento	2.41
136987	7	Sololá	701	Sololá	4	Finca Santa Victoria	10	Octubre	2023-10-18T00:00:00	2024-11-08T04:00:00	1	Precipitación	0
136988	7	Sololá	701	Sololá	4	Finca Santa Victoria	10	Octubre	2023-10-18T00:00:00	2024-11-08T04:00:00	8	Radiación solar	0
136989	7	Sololá	701	Sololá	4	Finca Santa Victoria	10	Octubre	2023-10-18T00:00:00	2024-11-08T05:00:00	2	Temperatura media	12.7
136990	7	Sololá	701	Sololá	4	Finca Santa Victoria	10	Octubre	2023-10-18T00:00:00	2024-11-08T05:00:00	4	Temperatura máxima	13.1
136991	7	Sololá	701	Sololá	4	Finca Santa Victoria	10	Octubre	2023-10-18T00:00:00	2024-11-08T05:00:00	3	Temperatura mínima	12.7
136992	7	Sololá	701	Sololá	4	Finca Santa Victoria	10	Octubre	2023-10-18T00:00:00	2024-11-08T05:00:00	5	Humedad	96
136993	7	Sololá	701	Sololá	4	Finca Santa Victoria	10	Octubre	2023-10-18T00:00:00	2024-11-08T05:00:00	6	Velocidad del viento	0
136994	7	Sololá	701	Sololá	4	Finca Santa Victoria	10	Octubre	2023-10-18T00:00:00	2024-11-08T05:00:00	7	Dirección del viento	0
136995	7	Sololá	701	Sololá	4	Finca Santa Victoria	10	Octubre	2023-10-18T00:00:00	2024-11-08T05:00:00	1	Precipitación	0
136996	7	Sololá	701	Sololá	4	Finca Santa Victoria	10	Octubre	2023-10-18T00:00:00	2024-11-08T05:00:00	8	Radiación solar	0
136997	7	Sololá	701	Sololá	4	Finca Santa Victoria	10	Octubre	2023-10-18T00:00:00	2024-11-08T06:00:00	2	Temperatura media	12.7
136998	7	Sololá	701	Sololá	4	Finca Santa Victoria	10	Octubre	2023-10-18T00:00:00	2024-11-08T06:00:00	4	Temperatura máxima	13
136999	7	Sololá	701	Sololá	4	Finca Santa Victoria	10	Octubre	2023-10-18T00:00:00	2024-11-08T06:00:00	3	Temperatura mínima	12.7
137000	7	Sololá	701	Sololá	4	Finca Santa Victoria	10	Octubre	2023-10-18T00:00:00	2024-11-08T06:00:00	5	Humedad	89
137001	7	Sololá	701	Sololá	4	Finca Santa Victoria	10	Octubre	2023-10-18T00:00:00	2024-11-08T06:00:00	6	Velocidad del viento	4.8
137002	7	Sololá	701	Sololá	4	Finca Santa Victoria	10	Octubre	2023-10-18T00:00:00	2024-11-08T06:00:00	7	Dirección del viento	2.41
137003	7	Sololá	701	Sololá	4	Finca Santa Victoria	10	Octubre	2023-10-18T00:00:00	2024-11-08T06:00:00	1	Precipitación	0
137004	7	Sololá	701	Sololá	4	Finca Santa Victoria	10	Octubre	2023-10-18T00:00:00	2024-11-08T06:00:00	8	Radiación solar	0
137005	7	Sololá	701	Sololá	4	Finca Santa Victoria	10	Octubre	2023-10-18T00:00:00	2024-11-08T07:00:00	2	Temperatura media	14.1
137006	7	Sololá	701	Sololá	4	Finca Santa Victoria	10	Octubre	2023-10-18T00:00:00	2024-11-08T07:00:00	4	Temperatura máxima	14.1
137007	7	Sololá	701	Sololá	4	Finca Santa Victoria	10	Octubre	2023-10-18T00:00:00	2024-11-08T07:00:00	3	Temperatura mínima	12.8
137008	7	Sololá	701	Sololá	4	Finca Santa Victoria	10	Octubre	2023-10-18T00:00:00	2024-11-08T07:00:00	5	Humedad	85
137009	7	Sololá	701	Sololá	4	Finca Santa Victoria	10	Octubre	2023-10-18T00:00:00	2024-11-08T07:00:00	6	Velocidad del viento	1.6
137010	7	Sololá	701	Sololá	4	Finca Santa Victoria	10	Octubre	2023-10-18T00:00:00	2024-11-08T07:00:00	7	Dirección del viento	0.8
137011	7	Sololá	701	Sololá	4	Finca Santa Victoria	10	Octubre	2023-10-18T00:00:00	2024-11-08T07:00:00	1	Precipitación	0
137012	7	Sololá	701	Sololá	4	Finca Santa Victoria	10	Octubre	2023-10-18T00:00:00	2024-11-08T07:00:00	8	Radiación solar	43
137013	7	Sololá	701	Sololá	4	Finca Santa Victoria	10	Octubre	2023-10-18T00:00:00	2024-11-08T08:00:00	2	Temperatura media	19.2
137014	7	Sololá	701	Sololá	4	Finca Santa Victoria	10	Octubre	2023-10-18T00:00:00	2024-11-08T08:00:00	4	Temperatura máxima	19.2
137015	7	Sololá	701	Sololá	4	Finca Santa Victoria	10	Octubre	2023-10-18T00:00:00	2024-11-08T08:00:00	3	Temperatura mínima	17.2
137016	7	Sololá	701	Sololá	4	Finca Santa Victoria	10	Octubre	2023-10-18T00:00:00	2024-11-08T08:00:00	5	Humedad	65
137017	7	Sololá	701	Sololá	4	Finca Santa Victoria	10	Octubre	2023-10-18T00:00:00	2024-11-08T08:00:00	6	Velocidad del viento	1.6
137018	7	Sololá	701	Sololá	4	Finca Santa Victoria	10	Octubre	2023-10-18T00:00:00	2024-11-08T08:00:00	7	Dirección del viento	0.8
137019	7	Sololá	701	Sololá	4	Finca Santa Victoria	10	Octubre	2023-10-18T00:00:00	2024-11-08T08:00:00	1	Precipitación	0
137020	7	Sololá	701	Sololá	4	Finca Santa Victoria	10	Octubre	2023-10-18T00:00:00	2024-11-08T08:00:00	8	Radiación solar	282
137021	7	Sololá	701	Sololá	4	Finca Santa Victoria	10	Octubre	2023-10-18T00:00:00	2024-11-08T09:00:00	2	Temperatura media	20.4
137022	7	Sololá	701	Sololá	4	Finca Santa Victoria	10	Octubre	2023-10-18T00:00:00	2024-11-08T09:00:00	4	Temperatura máxima	20.8
137023	7	Sololá	701	Sololá	4	Finca Santa Victoria	10	Octubre	2023-10-18T00:00:00	2024-11-08T09:00:00	3	Temperatura mínima	20.4
137024	7	Sololá	701	Sololá	4	Finca Santa Victoria	10	Octubre	2023-10-18T00:00:00	2024-11-08T09:00:00	5	Humedad	65
137025	7	Sololá	701	Sololá	4	Finca Santa Victoria	10	Octubre	2023-10-18T00:00:00	2024-11-08T09:00:00	6	Velocidad del viento	3.2
137026	7	Sololá	701	Sololá	4	Finca Santa Victoria	10	Octubre	2023-10-18T00:00:00	2024-11-08T09:00:00	7	Dirección del viento	1.61
137027	7	Sololá	701	Sololá	4	Finca Santa Victoria	10	Octubre	2023-10-18T00:00:00	2024-11-08T09:00:00	1	Precipitación	0
137028	7	Sololá	701	Sololá	4	Finca Santa Victoria	10	Octubre	2023-10-18T00:00:00	2024-11-08T09:00:00	8	Radiación solar	552
137029	7	Sololá	701	Sololá	4	Finca Santa Victoria	10	Octubre	2023-10-18T00:00:00	2024-11-08T10:00:00	2	Temperatura media	21.3
137030	7	Sololá	701	Sololá	4	Finca Santa Victoria	10	Octubre	2023-10-18T00:00:00	2024-11-08T10:00:00	4	Temperatura máxima	21.4
137031	7	Sololá	701	Sololá	4	Finca Santa Victoria	10	Octubre	2023-10-18T00:00:00	2024-11-08T10:00:00	3	Temperatura mínima	20.7
137032	7	Sololá	701	Sololá	4	Finca Santa Victoria	10	Octubre	2023-10-18T00:00:00	2024-11-08T10:00:00	5	Humedad	66
137033	7	Sololá	701	Sololá	4	Finca Santa Victoria	10	Octubre	2023-10-18T00:00:00	2024-11-08T10:00:00	6	Velocidad del viento	3.2
137034	7	Sololá	701	Sololá	4	Finca Santa Victoria	10	Octubre	2023-10-18T00:00:00	2024-11-08T10:00:00	7	Dirección del viento	1.61
137035	7	Sololá	701	Sololá	4	Finca Santa Victoria	10	Octubre	2023-10-18T00:00:00	2024-11-08T10:00:00	1	Precipitación	0
137036	7	Sololá	701	Sololá	4	Finca Santa Victoria	10	Octubre	2023-10-18T00:00:00	2024-11-08T10:00:00	8	Radiación solar	751
137037	7	Sololá	701	Sololá	4	Finca Santa Victoria	10	Octubre	2023-10-18T00:00:00	2024-11-08T11:00:00	2	Temperatura media	20.7
137038	7	Sololá	701	Sololá	4	Finca Santa Victoria	10	Octubre	2023-10-18T00:00:00	2024-11-08T11:00:00	4	Temperatura máxima	20.7
137039	7	Sololá	701	Sololá	4	Finca Santa Victoria	10	Octubre	2023-10-18T00:00:00	2024-11-08T11:00:00	3	Temperatura mínima	20.3
137040	7	Sololá	701	Sololá	4	Finca Santa Victoria	10	Octubre	2023-10-18T00:00:00	2024-11-08T11:00:00	5	Humedad	71
137041	7	Sololá	701	Sololá	4	Finca Santa Victoria	10	Octubre	2023-10-18T00:00:00	2024-11-08T11:00:00	6	Velocidad del viento	3.2
137042	7	Sololá	701	Sololá	4	Finca Santa Victoria	10	Octubre	2023-10-18T00:00:00	2024-11-08T11:00:00	7	Dirección del viento	1.61
137043	7	Sololá	701	Sololá	4	Finca Santa Victoria	10	Octubre	2023-10-18T00:00:00	2024-11-08T11:00:00	1	Precipitación	0
137044	7	Sololá	701	Sololá	4	Finca Santa Victoria	10	Octubre	2023-10-18T00:00:00	2024-11-08T11:00:00	8	Radiación solar	544
137045	7	Sololá	701	Sololá	4	Finca Santa Victoria	10	Octubre	2023-10-18T00:00:00	2024-11-08T12:00:00	2	Temperatura media	23.1
137046	7	Sololá	701	Sololá	4	Finca Santa Victoria	10	Octubre	2023-10-18T00:00:00	2024-11-08T12:00:00	4	Temperatura máxima	23.2
137047	7	Sololá	701	Sololá	4	Finca Santa Victoria	10	Octubre	2023-10-18T00:00:00	2024-11-08T12:00:00	3	Temperatura mínima	21.1
137048	7	Sololá	701	Sololá	4	Finca Santa Victoria	10	Octubre	2023-10-18T00:00:00	2024-11-08T12:00:00	5	Humedad	59
137049	7	Sololá	701	Sololá	4	Finca Santa Victoria	10	Octubre	2023-10-18T00:00:00	2024-11-08T12:00:00	6	Velocidad del viento	6.4
137050	7	Sololá	701	Sololá	4	Finca Santa Victoria	10	Octubre	2023-10-18T00:00:00	2024-11-08T12:00:00	7	Dirección del viento	3.22
137051	7	Sololá	701	Sololá	4	Finca Santa Victoria	10	Octubre	2023-10-18T00:00:00	2024-11-08T12:00:00	1	Precipitación	0
137052	7	Sololá	701	Sololá	4	Finca Santa Victoria	10	Octubre	2023-10-18T00:00:00	2024-11-08T12:00:00	8	Radiación solar	353
137053	7	Sololá	701	Sololá	4	Finca Santa Victoria	10	Octubre	2023-10-18T00:00:00	2024-11-08T13:00:00	2	Temperatura media	22.1
137054	7	Sololá	701	Sololá	4	Finca Santa Victoria	10	Octubre	2023-10-18T00:00:00	2024-11-08T13:00:00	4	Temperatura máxima	22.1
137055	7	Sololá	701	Sololá	4	Finca Santa Victoria	10	Octubre	2023-10-18T00:00:00	2024-11-08T13:00:00	3	Temperatura mínima	21.8
137056	7	Sololá	701	Sololá	4	Finca Santa Victoria	10	Octubre	2023-10-18T00:00:00	2024-11-08T13:00:00	5	Humedad	63
137057	7	Sololá	701	Sololá	4	Finca Santa Victoria	10	Octubre	2023-10-18T00:00:00	2024-11-08T13:00:00	6	Velocidad del viento	8
137058	7	Sololá	701	Sololá	4	Finca Santa Victoria	10	Octubre	2023-10-18T00:00:00	2024-11-08T13:00:00	7	Dirección del viento	4.02
137059	7	Sololá	701	Sololá	4	Finca Santa Victoria	10	Octubre	2023-10-18T00:00:00	2024-11-08T13:00:00	1	Precipitación	0
137060	7	Sololá	701	Sololá	4	Finca Santa Victoria	10	Octubre	2023-10-18T00:00:00	2024-11-08T13:00:00	8	Radiación solar	261
137061	7	Sololá	701	Sololá	4	Finca Santa Victoria	10	Octubre	2023-10-18T00:00:00	2024-11-08T14:00:00	2	Temperatura media	21.4
137062	7	Sololá	701	Sololá	4	Finca Santa Victoria	10	Octubre	2023-10-18T00:00:00	2024-11-08T14:00:00	4	Temperatura máxima	22.3
137063	7	Sololá	701	Sololá	4	Finca Santa Victoria	10	Octubre	2023-10-18T00:00:00	2024-11-08T14:00:00	3	Temperatura mínima	21.4
137064	7	Sololá	701	Sololá	4	Finca Santa Victoria	10	Octubre	2023-10-18T00:00:00	2024-11-08T14:00:00	5	Humedad	77
137065	7	Sololá	701	Sololá	4	Finca Santa Victoria	10	Octubre	2023-10-18T00:00:00	2024-11-08T14:00:00	6	Velocidad del viento	6.4
137066	7	Sololá	701	Sololá	4	Finca Santa Victoria	10	Octubre	2023-10-18T00:00:00	2024-11-08T14:00:00	7	Dirección del viento	3.22
137067	7	Sololá	701	Sololá	4	Finca Santa Victoria	10	Octubre	2023-10-18T00:00:00	2024-11-08T14:00:00	1	Precipitación	0
137068	7	Sololá	701	Sololá	4	Finca Santa Victoria	10	Octubre	2023-10-18T00:00:00	2024-11-08T14:00:00	8	Radiación solar	215
137069	7	Sololá	701	Sololá	4	Finca Santa Victoria	10	Octubre	2023-10-18T00:00:00	2024-11-08T15:00:00	2	Temperatura media	20.7
137070	7	Sololá	701	Sololá	4	Finca Santa Victoria	10	Octubre	2023-10-18T00:00:00	2024-11-08T15:00:00	4	Temperatura máxima	21.4
137071	7	Sololá	701	Sololá	4	Finca Santa Victoria	10	Octubre	2023-10-18T00:00:00	2024-11-08T15:00:00	3	Temperatura mínima	20.7
137072	7	Sololá	701	Sololá	4	Finca Santa Victoria	10	Octubre	2023-10-18T00:00:00	2024-11-08T15:00:00	5	Humedad	79
137073	7	Sololá	701	Sololá	4	Finca Santa Victoria	10	Octubre	2023-10-18T00:00:00	2024-11-08T15:00:00	6	Velocidad del viento	6.4
137074	7	Sololá	701	Sololá	4	Finca Santa Victoria	10	Octubre	2023-10-18T00:00:00	2024-11-08T15:00:00	7	Dirección del viento	3.22
137075	7	Sololá	701	Sololá	4	Finca Santa Victoria	10	Octubre	2023-10-18T00:00:00	2024-11-08T15:00:00	1	Precipitación	0
137076	7	Sololá	701	Sololá	4	Finca Santa Victoria	10	Octubre	2023-10-18T00:00:00	2024-11-08T15:00:00	8	Radiación solar	94
137077	7	Sololá	701	Sololá	4	Finca Santa Victoria	10	Octubre	2023-10-18T00:00:00	2024-11-08T16:00:00	2	Temperatura media	20.9
137078	7	Sololá	701	Sololá	4	Finca Santa Victoria	10	Octubre	2023-10-18T00:00:00	2024-11-08T16:00:00	4	Temperatura máxima	20.9
137079	7	Sololá	701	Sololá	4	Finca Santa Victoria	10	Octubre	2023-10-18T00:00:00	2024-11-08T16:00:00	3	Temperatura mínima	20.4
137080	7	Sololá	701	Sololá	4	Finca Santa Victoria	10	Octubre	2023-10-18T00:00:00	2024-11-08T16:00:00	5	Humedad	70
137081	7	Sololá	701	Sololá	4	Finca Santa Victoria	10	Octubre	2023-10-18T00:00:00	2024-11-08T16:00:00	6	Velocidad del viento	3.2
137082	7	Sololá	701	Sololá	4	Finca Santa Victoria	10	Octubre	2023-10-18T00:00:00	2024-11-08T16:00:00	7	Dirección del viento	1.61
137083	7	Sololá	701	Sololá	4	Finca Santa Victoria	10	Octubre	2023-10-18T00:00:00	2024-11-08T16:00:00	1	Precipitación	0
137084	7	Sololá	701	Sololá	4	Finca Santa Victoria	10	Octubre	2023-10-18T00:00:00	2024-11-08T16:00:00	8	Radiación solar	82
137085	7	Sololá	701	Sololá	4	Finca Santa Victoria	10	Octubre	2023-10-18T00:00:00	2024-11-08T17:00:00	2	Temperatura media	19.1
137086	7	Sololá	701	Sololá	4	Finca Santa Victoria	10	Octubre	2023-10-18T00:00:00	2024-11-08T17:00:00	4	Temperatura máxima	20.1
137087	7	Sololá	701	Sololá	4	Finca Santa Victoria	10	Octubre	2023-10-18T00:00:00	2024-11-08T17:00:00	3	Temperatura mínima	19.1
137088	7	Sololá	701	Sololá	4	Finca Santa Victoria	10	Octubre	2023-10-18T00:00:00	2024-11-08T17:00:00	5	Humedad	74
137089	7	Sololá	701	Sololá	4	Finca Santa Victoria	10	Octubre	2023-10-18T00:00:00	2024-11-08T17:00:00	6	Velocidad del viento	9.7
137090	7	Sololá	701	Sololá	4	Finca Santa Victoria	10	Octubre	2023-10-18T00:00:00	2024-11-08T17:00:00	7	Dirección del viento	4.83
137091	7	Sololá	701	Sololá	4	Finca Santa Victoria	10	Octubre	2023-10-18T00:00:00	2024-11-08T17:00:00	1	Precipitación	0
137092	7	Sololá	701	Sololá	4	Finca Santa Victoria	10	Octubre	2023-10-18T00:00:00	2024-11-08T17:00:00	8	Radiación solar	35
137093	7	Sololá	701	Sololá	4	Finca Santa Victoria	10	Octubre	2023-10-18T00:00:00	2024-11-08T18:00:00	2	Temperatura media	18
137094	7	Sololá	701	Sololá	4	Finca Santa Victoria	10	Octubre	2023-10-18T00:00:00	2024-11-08T18:00:00	4	Temperatura máxima	18.3
137095	7	Sololá	701	Sololá	4	Finca Santa Victoria	10	Octubre	2023-10-18T00:00:00	2024-11-08T18:00:00	3	Temperatura mínima	17.9
137096	7	Sololá	701	Sololá	4	Finca Santa Victoria	10	Octubre	2023-10-18T00:00:00	2024-11-08T18:00:00	5	Humedad	77
137097	7	Sololá	701	Sololá	4	Finca Santa Victoria	10	Octubre	2023-10-18T00:00:00	2024-11-08T18:00:00	6	Velocidad del viento	8
137098	7	Sololá	701	Sololá	4	Finca Santa Victoria	10	Octubre	2023-10-18T00:00:00	2024-11-08T18:00:00	7	Dirección del viento	4.02
137099	7	Sololá	701	Sololá	4	Finca Santa Victoria	10	Octubre	2023-10-18T00:00:00	2024-11-08T18:00:00	1	Precipitación	0
137100	7	Sololá	701	Sololá	4	Finca Santa Victoria	10	Octubre	2023-10-18T00:00:00	2024-11-08T18:00:00	8	Radiación solar	5
137101	7	Sololá	701	Sololá	4	Finca Santa Victoria	10	Octubre	2023-10-18T00:00:00	2024-11-08T19:00:00	2	Temperatura media	17.4
137102	7	Sololá	701	Sololá	4	Finca Santa Victoria	10	Octubre	2023-10-18T00:00:00	2024-11-08T19:00:00	4	Temperatura máxima	17.7
137103	7	Sololá	701	Sololá	4	Finca Santa Victoria	10	Octubre	2023-10-18T00:00:00	2024-11-08T19:00:00	3	Temperatura mínima	17.4
137104	7	Sololá	701	Sololá	4	Finca Santa Victoria	10	Octubre	2023-10-18T00:00:00	2024-11-08T19:00:00	5	Humedad	80
137105	7	Sololá	701	Sololá	4	Finca Santa Victoria	10	Octubre	2023-10-18T00:00:00	2024-11-08T19:00:00	6	Velocidad del viento	1.6
137106	7	Sololá	701	Sololá	4	Finca Santa Victoria	10	Octubre	2023-10-18T00:00:00	2024-11-08T19:00:00	7	Dirección del viento	0.8
137107	7	Sololá	701	Sololá	4	Finca Santa Victoria	10	Octubre	2023-10-18T00:00:00	2024-11-08T19:00:00	1	Precipitación	0
137108	7	Sololá	701	Sololá	4	Finca Santa Victoria	10	Octubre	2023-10-18T00:00:00	2024-11-08T19:00:00	8	Radiación solar	0
137109	7	Sololá	701	Sololá	4	Finca Santa Victoria	10	Octubre	2023-10-18T00:00:00	2024-11-08T20:00:00	2	Temperatura media	17.1
137110	7	Sololá	701	Sololá	4	Finca Santa Victoria	10	Octubre	2023-10-18T00:00:00	2024-11-08T20:00:00	4	Temperatura máxima	17.3
137111	7	Sololá	701	Sololá	4	Finca Santa Victoria	10	Octubre	2023-10-18T00:00:00	2024-11-08T20:00:00	3	Temperatura mínima	17.1
137112	7	Sololá	701	Sololá	4	Finca Santa Victoria	10	Octubre	2023-10-18T00:00:00	2024-11-08T20:00:00	5	Humedad	82
137113	7	Sololá	701	Sololá	4	Finca Santa Victoria	10	Octubre	2023-10-18T00:00:00	2024-11-08T20:00:00	6	Velocidad del viento	1.6
137114	7	Sololá	701	Sololá	4	Finca Santa Victoria	10	Octubre	2023-10-18T00:00:00	2024-11-08T20:00:00	7	Dirección del viento	0.8
137115	7	Sololá	701	Sololá	4	Finca Santa Victoria	10	Octubre	2023-10-18T00:00:00	2024-11-08T20:00:00	1	Precipitación	0
137116	7	Sololá	701	Sololá	4	Finca Santa Victoria	10	Octubre	2023-10-18T00:00:00	2024-11-08T20:00:00	8	Radiación solar	0
137117	7	Sololá	701	Sololá	4	Finca Santa Victoria	10	Octubre	2023-10-18T00:00:00	2024-11-08T21:00:00	2	Temperatura media	16.6
137118	7	Sololá	701	Sololá	4	Finca Santa Victoria	10	Octubre	2023-10-18T00:00:00	2024-11-08T21:00:00	4	Temperatura máxima	16.9
137119	7	Sololá	701	Sololá	4	Finca Santa Victoria	10	Octubre	2023-10-18T00:00:00	2024-11-08T21:00:00	3	Temperatura mínima	16.6
137120	7	Sololá	701	Sololá	4	Finca Santa Victoria	10	Octubre	2023-10-18T00:00:00	2024-11-08T21:00:00	5	Humedad	83
137121	7	Sololá	701	Sololá	4	Finca Santa Victoria	10	Octubre	2023-10-18T00:00:00	2024-11-08T21:00:00	6	Velocidad del viento	1.6
137122	7	Sololá	701	Sololá	4	Finca Santa Victoria	10	Octubre	2023-10-18T00:00:00	2024-11-08T21:00:00	7	Dirección del viento	0.8
137123	7	Sololá	701	Sololá	4	Finca Santa Victoria	10	Octubre	2023-10-18T00:00:00	2024-11-08T21:00:00	1	Precipitación	0
137124	7	Sololá	701	Sololá	4	Finca Santa Victoria	10	Octubre	2023-10-18T00:00:00	2024-11-08T21:00:00	8	Radiación solar	0
137125	7	Sololá	701	Sololá	4	Finca Santa Victoria	10	Octubre	2023-10-18T00:00:00	2024-11-08T22:00:00	2	Temperatura media	15.1
137126	7	Sololá	701	Sololá	4	Finca Santa Victoria	10	Octubre	2023-10-18T00:00:00	2024-11-08T22:00:00	4	Temperatura máxima	15.9
137127	7	Sololá	701	Sololá	4	Finca Santa Victoria	10	Octubre	2023-10-18T00:00:00	2024-11-08T22:00:00	3	Temperatura mínima	15.1
137128	7	Sololá	701	Sololá	4	Finca Santa Victoria	10	Octubre	2023-10-18T00:00:00	2024-11-08T22:00:00	5	Humedad	89
137129	7	Sololá	701	Sololá	4	Finca Santa Victoria	10	Octubre	2023-10-18T00:00:00	2024-11-08T22:00:00	6	Velocidad del viento	0
137130	7	Sololá	701	Sololá	4	Finca Santa Victoria	10	Octubre	2023-10-18T00:00:00	2024-11-08T22:00:00	7	Dirección del viento	0
137131	7	Sololá	701	Sololá	4	Finca Santa Victoria	10	Octubre	2023-10-18T00:00:00	2024-11-08T22:00:00	1	Precipitación	0
137132	7	Sololá	701	Sololá	4	Finca Santa Victoria	10	Octubre	2023-10-18T00:00:00	2024-11-08T22:00:00	8	Radiación solar	0
137133	7	Sololá	701	Sololá	4	Finca Santa Victoria	10	Octubre	2023-10-18T00:00:00	2024-11-08T23:00:00	2	Temperatura media	15.1
137134	7	Sololá	701	Sololá	4	Finca Santa Victoria	10	Octubre	2023-10-18T00:00:00	2024-11-08T23:00:00	4	Temperatura máxima	15.2
137135	7	Sololá	701	Sololá	4	Finca Santa Victoria	10	Octubre	2023-10-18T00:00:00	2024-11-08T23:00:00	3	Temperatura mínima	15.1
137136	7	Sololá	701	Sololá	4	Finca Santa Victoria	10	Octubre	2023-10-18T00:00:00	2024-11-08T23:00:00	5	Humedad	88
137137	7	Sololá	701	Sololá	4	Finca Santa Victoria	10	Octubre	2023-10-18T00:00:00	2024-11-08T23:00:00	6	Velocidad del viento	4.8
137138	7	Sololá	701	Sololá	4	Finca Santa Victoria	10	Octubre	2023-10-18T00:00:00	2024-11-08T23:00:00	7	Dirección del viento	2.41
137139	7	Sololá	701	Sololá	4	Finca Santa Victoria	10	Octubre	2023-10-18T00:00:00	2024-11-08T23:00:00	1	Precipitación	0
137140	7	Sololá	701	Sololá	4	Finca Santa Victoria	10	Octubre	2023-10-18T00:00:00	2024-11-08T23:00:00	8	Radiación solar	0
137141	7	Sololá	701	Sololá	4	Finca Santa Victoria	10	Octubre	2023-10-19T00:00:00	2024-11-08T00:00:00	2	Temperatura media	14.2
137142	7	Sololá	701	Sololá	4	Finca Santa Victoria	10	Octubre	2023-10-19T00:00:00	2024-11-08T00:00:00	4	Temperatura máxima	14.6
137143	7	Sololá	701	Sololá	4	Finca Santa Victoria	10	Octubre	2023-10-19T00:00:00	2024-11-08T00:00:00	3	Temperatura mínima	14.2
137144	7	Sololá	701	Sololá	4	Finca Santa Victoria	10	Octubre	2023-10-19T00:00:00	2024-11-08T00:00:00	5	Humedad	90
137145	7	Sololá	701	Sololá	4	Finca Santa Victoria	10	Octubre	2023-10-19T00:00:00	2024-11-08T00:00:00	6	Velocidad del viento	3.2
137146	7	Sololá	701	Sololá	4	Finca Santa Victoria	10	Octubre	2023-10-19T00:00:00	2024-11-08T00:00:00	7	Dirección del viento	1.61
137147	7	Sololá	701	Sololá	4	Finca Santa Victoria	10	Octubre	2023-10-19T00:00:00	2024-11-08T00:00:00	1	Precipitación	0
137148	7	Sololá	701	Sololá	4	Finca Santa Victoria	10	Octubre	2023-10-19T00:00:00	2024-11-08T00:00:00	8	Radiación solar	0
137149	7	Sololá	701	Sololá	4	Finca Santa Victoria	10	Octubre	2023-10-19T00:00:00	2024-11-08T01:00:00	2	Temperatura media	13.6
137150	7	Sololá	701	Sololá	4	Finca Santa Victoria	10	Octubre	2023-10-19T00:00:00	2024-11-08T01:00:00	4	Temperatura máxima	13.9
137151	7	Sololá	701	Sololá	4	Finca Santa Victoria	10	Octubre	2023-10-19T00:00:00	2024-11-08T01:00:00	3	Temperatura mínima	13.6
137152	7	Sololá	701	Sololá	4	Finca Santa Victoria	10	Octubre	2023-10-19T00:00:00	2024-11-08T01:00:00	5	Humedad	92
137153	7	Sololá	701	Sololá	4	Finca Santa Victoria	10	Octubre	2023-10-19T00:00:00	2024-11-08T01:00:00	6	Velocidad del viento	3.2
137154	7	Sololá	701	Sololá	4	Finca Santa Victoria	10	Octubre	2023-10-19T00:00:00	2024-11-08T01:00:00	7	Dirección del viento	1.61
137155	7	Sololá	701	Sololá	4	Finca Santa Victoria	10	Octubre	2023-10-19T00:00:00	2024-11-08T01:00:00	1	Precipitación	0
137156	7	Sololá	701	Sololá	4	Finca Santa Victoria	10	Octubre	2023-10-19T00:00:00	2024-11-08T01:00:00	8	Radiación solar	0
137157	7	Sololá	701	Sololá	4	Finca Santa Victoria	10	Octubre	2023-10-19T00:00:00	2024-11-08T02:00:00	2	Temperatura media	14.4
137158	7	Sololá	701	Sololá	4	Finca Santa Victoria	10	Octubre	2023-10-19T00:00:00	2024-11-08T02:00:00	4	Temperatura máxima	14.4
137159	7	Sololá	701	Sololá	4	Finca Santa Victoria	10	Octubre	2023-10-19T00:00:00	2024-11-08T02:00:00	3	Temperatura mínima	13.6
137160	7	Sololá	701	Sololá	4	Finca Santa Victoria	10	Octubre	2023-10-19T00:00:00	2024-11-08T02:00:00	5	Humedad	89
137161	7	Sololá	701	Sololá	4	Finca Santa Victoria	10	Octubre	2023-10-19T00:00:00	2024-11-08T02:00:00	6	Velocidad del viento	1.6
137162	7	Sololá	701	Sololá	4	Finca Santa Victoria	10	Octubre	2023-10-19T00:00:00	2024-11-08T02:00:00	7	Dirección del viento	0.8
137163	7	Sololá	701	Sololá	4	Finca Santa Victoria	10	Octubre	2023-10-19T00:00:00	2024-11-08T02:00:00	1	Precipitación	0
137164	7	Sololá	701	Sololá	4	Finca Santa Victoria	10	Octubre	2023-10-19T00:00:00	2024-11-08T02:00:00	8	Radiación solar	0
137165	7	Sololá	701	Sololá	4	Finca Santa Victoria	10	Octubre	2023-10-19T00:00:00	2024-11-08T03:00:00	2	Temperatura media	13.3
137166	7	Sololá	701	Sololá	4	Finca Santa Victoria	10	Octubre	2023-10-19T00:00:00	2024-11-08T03:00:00	4	Temperatura máxima	13.9
137167	7	Sololá	701	Sololá	4	Finca Santa Victoria	10	Octubre	2023-10-19T00:00:00	2024-11-08T03:00:00	3	Temperatura mínima	13.3
137168	7	Sololá	701	Sololá	4	Finca Santa Victoria	10	Octubre	2023-10-19T00:00:00	2024-11-08T03:00:00	5	Humedad	92
137169	7	Sololá	701	Sololá	4	Finca Santa Victoria	10	Octubre	2023-10-19T00:00:00	2024-11-08T03:00:00	6	Velocidad del viento	0
137170	7	Sololá	701	Sololá	4	Finca Santa Victoria	10	Octubre	2023-10-19T00:00:00	2024-11-08T03:00:00	7	Dirección del viento	0
137171	7	Sololá	701	Sololá	4	Finca Santa Victoria	10	Octubre	2023-10-19T00:00:00	2024-11-08T03:00:00	1	Precipitación	0
137172	7	Sololá	701	Sololá	4	Finca Santa Victoria	10	Octubre	2023-10-19T00:00:00	2024-11-08T03:00:00	8	Radiación solar	0
137173	7	Sololá	701	Sololá	4	Finca Santa Victoria	10	Octubre	2023-10-19T00:00:00	2024-11-08T04:00:00	2	Temperatura media	13.3
137174	7	Sololá	701	Sololá	4	Finca Santa Victoria	10	Octubre	2023-10-19T00:00:00	2024-11-08T04:00:00	4	Temperatura máxima	13.4
137175	7	Sololá	701	Sololá	4	Finca Santa Victoria	10	Octubre	2023-10-19T00:00:00	2024-11-08T04:00:00	3	Temperatura mínima	13.2
137176	7	Sololá	701	Sololá	4	Finca Santa Victoria	10	Octubre	2023-10-19T00:00:00	2024-11-08T04:00:00	5	Humedad	93
137177	7	Sololá	701	Sololá	4	Finca Santa Victoria	10	Octubre	2023-10-19T00:00:00	2024-11-08T04:00:00	6	Velocidad del viento	0
137178	7	Sololá	701	Sololá	4	Finca Santa Victoria	10	Octubre	2023-10-19T00:00:00	2024-11-08T04:00:00	7	Dirección del viento	0
137179	7	Sololá	701	Sololá	4	Finca Santa Victoria	10	Octubre	2023-10-19T00:00:00	2024-11-08T04:00:00	1	Precipitación	0
137180	7	Sololá	701	Sololá	4	Finca Santa Victoria	10	Octubre	2023-10-19T00:00:00	2024-11-08T04:00:00	8	Radiación solar	0
137181	7	Sololá	701	Sololá	4	Finca Santa Victoria	10	Octubre	2023-10-19T00:00:00	2024-11-08T05:00:00	2	Temperatura media	12.9
137182	7	Sololá	701	Sololá	4	Finca Santa Victoria	10	Octubre	2023-10-19T00:00:00	2024-11-08T05:00:00	4	Temperatura máxima	13.4
137183	7	Sololá	701	Sololá	4	Finca Santa Victoria	10	Octubre	2023-10-19T00:00:00	2024-11-08T05:00:00	3	Temperatura mínima	12.9
137184	7	Sololá	701	Sololá	4	Finca Santa Victoria	10	Octubre	2023-10-19T00:00:00	2024-11-08T05:00:00	5	Humedad	93
137185	7	Sololá	701	Sololá	4	Finca Santa Victoria	10	Octubre	2023-10-19T00:00:00	2024-11-08T05:00:00	6	Velocidad del viento	0
137186	7	Sololá	701	Sololá	4	Finca Santa Victoria	10	Octubre	2023-10-19T00:00:00	2024-11-08T05:00:00	7	Dirección del viento	0
137187	7	Sololá	701	Sololá	4	Finca Santa Victoria	10	Octubre	2023-10-19T00:00:00	2024-11-08T05:00:00	1	Precipitación	0
137188	7	Sololá	701	Sololá	4	Finca Santa Victoria	10	Octubre	2023-10-19T00:00:00	2024-11-08T05:00:00	8	Radiación solar	0
137189	7	Sololá	701	Sololá	4	Finca Santa Victoria	10	Octubre	2023-10-19T00:00:00	2024-11-08T06:00:00	2	Temperatura media	12.4
137190	7	Sololá	701	Sololá	4	Finca Santa Victoria	10	Octubre	2023-10-19T00:00:00	2024-11-08T06:00:00	4	Temperatura máxima	12.6
137191	7	Sololá	701	Sololá	4	Finca Santa Victoria	10	Octubre	2023-10-19T00:00:00	2024-11-08T06:00:00	3	Temperatura mínima	12.4
137192	7	Sololá	701	Sololá	4	Finca Santa Victoria	10	Octubre	2023-10-19T00:00:00	2024-11-08T06:00:00	5	Humedad	95
137193	7	Sololá	701	Sololá	4	Finca Santa Victoria	10	Octubre	2023-10-19T00:00:00	2024-11-08T06:00:00	6	Velocidad del viento	0
137194	7	Sololá	701	Sololá	4	Finca Santa Victoria	10	Octubre	2023-10-19T00:00:00	2024-11-08T06:00:00	7	Dirección del viento	0
137195	7	Sololá	701	Sololá	4	Finca Santa Victoria	10	Octubre	2023-10-19T00:00:00	2024-11-08T06:00:00	1	Precipitación	0
137196	7	Sololá	701	Sololá	4	Finca Santa Victoria	10	Octubre	2023-10-19T00:00:00	2024-11-08T06:00:00	8	Radiación solar	0
137197	7	Sololá	701	Sololá	4	Finca Santa Victoria	10	Octubre	2023-10-19T00:00:00	2024-11-08T07:00:00	2	Temperatura media	16.6
137198	7	Sololá	701	Sololá	4	Finca Santa Victoria	10	Octubre	2023-10-19T00:00:00	2024-11-08T07:00:00	4	Temperatura máxima	16.6
137199	7	Sololá	701	Sololá	4	Finca Santa Victoria	10	Octubre	2023-10-19T00:00:00	2024-11-08T07:00:00	3	Temperatura mínima	13
137200	7	Sololá	701	Sololá	4	Finca Santa Victoria	10	Octubre	2023-10-19T00:00:00	2024-11-08T07:00:00	5	Humedad	83
137201	7	Sololá	701	Sololá	4	Finca Santa Victoria	10	Octubre	2023-10-19T00:00:00	2024-11-08T07:00:00	6	Velocidad del viento	4.8
137202	7	Sololá	701	Sololá	4	Finca Santa Victoria	10	Octubre	2023-10-19T00:00:00	2024-11-08T07:00:00	7	Dirección del viento	2.41
137203	7	Sololá	701	Sololá	4	Finca Santa Victoria	10	Octubre	2023-10-19T00:00:00	2024-11-08T07:00:00	1	Precipitación	0
137204	7	Sololá	701	Sololá	4	Finca Santa Victoria	10	Octubre	2023-10-19T00:00:00	2024-11-08T07:00:00	8	Radiación solar	20
137205	7	Sololá	701	Sololá	4	Finca Santa Victoria	10	Octubre	2023-10-19T00:00:00	2024-11-08T08:00:00	2	Temperatura media	19
137206	7	Sololá	701	Sololá	4	Finca Santa Victoria	10	Octubre	2023-10-19T00:00:00	2024-11-08T08:00:00	4	Temperatura máxima	19
137207	7	Sololá	701	Sololá	4	Finca Santa Victoria	10	Octubre	2023-10-19T00:00:00	2024-11-08T08:00:00	3	Temperatura mínima	17.9
137208	7	Sololá	701	Sololá	4	Finca Santa Victoria	10	Octubre	2023-10-19T00:00:00	2024-11-08T08:00:00	5	Humedad	75
137209	7	Sololá	701	Sololá	4	Finca Santa Victoria	10	Octubre	2023-10-19T00:00:00	2024-11-08T08:00:00	6	Velocidad del viento	4.8
137210	7	Sololá	701	Sololá	4	Finca Santa Victoria	10	Octubre	2023-10-19T00:00:00	2024-11-08T08:00:00	7	Dirección del viento	2.41
137211	7	Sololá	701	Sololá	4	Finca Santa Victoria	10	Octubre	2023-10-19T00:00:00	2024-11-08T08:00:00	1	Precipitación	0
137212	7	Sololá	701	Sololá	4	Finca Santa Victoria	10	Octubre	2023-10-19T00:00:00	2024-11-08T08:00:00	8	Radiación solar	105
137213	7	Sololá	701	Sololá	4	Finca Santa Victoria	10	Octubre	2023-10-19T00:00:00	2024-11-08T09:00:00	2	Temperatura media	21.3
137214	7	Sololá	701	Sololá	4	Finca Santa Victoria	10	Octubre	2023-10-19T00:00:00	2024-11-08T09:00:00	4	Temperatura máxima	21.3
137215	7	Sololá	701	Sololá	4	Finca Santa Victoria	10	Octubre	2023-10-19T00:00:00	2024-11-08T09:00:00	3	Temperatura mínima	20.1
137216	7	Sololá	701	Sololá	4	Finca Santa Victoria	10	Octubre	2023-10-19T00:00:00	2024-11-08T09:00:00	5	Humedad	69
137217	7	Sololá	701	Sololá	4	Finca Santa Victoria	10	Octubre	2023-10-19T00:00:00	2024-11-08T09:00:00	6	Velocidad del viento	3.2
137218	7	Sololá	701	Sololá	4	Finca Santa Victoria	10	Octubre	2023-10-19T00:00:00	2024-11-08T09:00:00	7	Dirección del viento	1.61
137219	7	Sololá	701	Sololá	4	Finca Santa Victoria	10	Octubre	2023-10-19T00:00:00	2024-11-08T09:00:00	1	Precipitación	0
137220	7	Sololá	701	Sololá	4	Finca Santa Victoria	10	Octubre	2023-10-19T00:00:00	2024-11-08T09:00:00	8	Radiación solar	278
137221	7	Sololá	701	Sololá	4	Finca Santa Victoria	10	Octubre	2023-10-19T00:00:00	2024-11-08T10:00:00	2	Temperatura media	21.4
137222	7	Sololá	701	Sololá	4	Finca Santa Victoria	10	Octubre	2023-10-19T00:00:00	2024-11-08T10:00:00	4	Temperatura máxima	22.4
137223	7	Sololá	701	Sololá	4	Finca Santa Victoria	10	Octubre	2023-10-19T00:00:00	2024-11-08T10:00:00	3	Temperatura mínima	21.4
137224	7	Sololá	701	Sololá	4	Finca Santa Victoria	10	Octubre	2023-10-19T00:00:00	2024-11-08T10:00:00	5	Humedad	71
137225	7	Sololá	701	Sololá	4	Finca Santa Victoria	10	Octubre	2023-10-19T00:00:00	2024-11-08T10:00:00	6	Velocidad del viento	4.8
137226	7	Sololá	701	Sololá	4	Finca Santa Victoria	10	Octubre	2023-10-19T00:00:00	2024-11-08T10:00:00	7	Dirección del viento	2.41
137227	7	Sololá	701	Sololá	4	Finca Santa Victoria	10	Octubre	2023-10-19T00:00:00	2024-11-08T10:00:00	1	Precipitación	0
137228	7	Sololá	701	Sololá	4	Finca Santa Victoria	10	Octubre	2023-10-19T00:00:00	2024-11-08T10:00:00	8	Radiación solar	532
137229	7	Sololá	701	Sololá	4	Finca Santa Victoria	10	Octubre	2023-10-19T00:00:00	2024-11-08T11:00:00	2	Temperatura media	20.4
137230	7	Sololá	701	Sololá	4	Finca Santa Victoria	10	Octubre	2023-10-19T00:00:00	2024-11-08T11:00:00	4	Temperatura máxima	20.4
137231	7	Sololá	701	Sololá	4	Finca Santa Victoria	10	Octubre	2023-10-19T00:00:00	2024-11-08T11:00:00	3	Temperatura mínima	20.1
137232	7	Sololá	701	Sololá	4	Finca Santa Victoria	10	Octubre	2023-10-19T00:00:00	2024-11-08T11:00:00	5	Humedad	77
137233	7	Sololá	701	Sololá	4	Finca Santa Victoria	10	Octubre	2023-10-19T00:00:00	2024-11-08T11:00:00	6	Velocidad del viento	3.2
137234	7	Sololá	701	Sololá	4	Finca Santa Victoria	10	Octubre	2023-10-19T00:00:00	2024-11-08T11:00:00	7	Dirección del viento	1.61
137235	7	Sololá	701	Sololá	4	Finca Santa Victoria	10	Octubre	2023-10-19T00:00:00	2024-11-08T11:00:00	1	Precipitación	0
137236	7	Sololá	701	Sololá	4	Finca Santa Victoria	10	Octubre	2023-10-19T00:00:00	2024-11-08T11:00:00	8	Radiación solar	278
137237	7	Sololá	701	Sololá	4	Finca Santa Victoria	10	Octubre	2023-10-19T00:00:00	2024-11-08T12:00:00	2	Temperatura media	20.2
137238	7	Sololá	701	Sololá	4	Finca Santa Victoria	10	Octubre	2023-10-19T00:00:00	2024-11-08T12:00:00	4	Temperatura máxima	20.9
137239	7	Sololá	701	Sololá	4	Finca Santa Victoria	10	Octubre	2023-10-19T00:00:00	2024-11-08T12:00:00	3	Temperatura mínima	20.1
137240	7	Sololá	701	Sololá	4	Finca Santa Victoria	10	Octubre	2023-10-19T00:00:00	2024-11-08T12:00:00	5	Humedad	78
137241	7	Sololá	701	Sololá	4	Finca Santa Victoria	10	Octubre	2023-10-19T00:00:00	2024-11-08T12:00:00	6	Velocidad del viento	8
137242	7	Sololá	701	Sololá	4	Finca Santa Victoria	10	Octubre	2023-10-19T00:00:00	2024-11-08T12:00:00	7	Dirección del viento	4.02
137243	7	Sololá	701	Sololá	4	Finca Santa Victoria	10	Octubre	2023-10-19T00:00:00	2024-11-08T12:00:00	1	Precipitación	0
137244	7	Sololá	701	Sololá	4	Finca Santa Victoria	10	Octubre	2023-10-19T00:00:00	2024-11-08T12:00:00	8	Radiación solar	251
137245	7	Sololá	701	Sololá	4	Finca Santa Victoria	10	Octubre	2023-10-19T00:00:00	2024-11-08T13:00:00	2	Temperatura media	19.3
137246	7	Sololá	701	Sololá	4	Finca Santa Victoria	10	Octubre	2023-10-19T00:00:00	2024-11-08T13:00:00	4	Temperatura máxima	19.3
137247	7	Sololá	701	Sololá	4	Finca Santa Victoria	10	Octubre	2023-10-19T00:00:00	2024-11-08T13:00:00	3	Temperatura mínima	19.2
137248	7	Sololá	701	Sololá	4	Finca Santa Victoria	10	Octubre	2023-10-19T00:00:00	2024-11-08T13:00:00	5	Humedad	87
137249	7	Sololá	701	Sololá	4	Finca Santa Victoria	10	Octubre	2023-10-19T00:00:00	2024-11-08T13:00:00	6	Velocidad del viento	3.2
137250	7	Sololá	701	Sololá	4	Finca Santa Victoria	10	Octubre	2023-10-19T00:00:00	2024-11-08T13:00:00	7	Dirección del viento	1.61
137251	7	Sololá	701	Sololá	4	Finca Santa Victoria	10	Octubre	2023-10-19T00:00:00	2024-11-08T13:00:00	1	Precipitación	0
137252	7	Sololá	701	Sololá	4	Finca Santa Victoria	10	Octubre	2023-10-19T00:00:00	2024-11-08T13:00:00	8	Radiación solar	148
137253	7	Sololá	701	Sololá	4	Finca Santa Victoria	10	Octubre	2023-10-19T00:00:00	2024-11-08T14:00:00	2	Temperatura media	19.3
137254	7	Sololá	701	Sololá	4	Finca Santa Victoria	10	Octubre	2023-10-19T00:00:00	2024-11-08T14:00:00	4	Temperatura máxima	19.3
137255	7	Sololá	701	Sololá	4	Finca Santa Victoria	10	Octubre	2023-10-19T00:00:00	2024-11-08T14:00:00	3	Temperatura mínima	18.7
137256	7	Sololá	701	Sololá	4	Finca Santa Victoria	10	Octubre	2023-10-19T00:00:00	2024-11-08T14:00:00	5	Humedad	89
137257	7	Sololá	701	Sololá	4	Finca Santa Victoria	10	Octubre	2023-10-19T00:00:00	2024-11-08T14:00:00	6	Velocidad del viento	1.6
137258	7	Sololá	701	Sololá	4	Finca Santa Victoria	10	Octubre	2023-10-19T00:00:00	2024-11-08T14:00:00	7	Dirección del viento	0.8
137259	7	Sololá	701	Sololá	4	Finca Santa Victoria	10	Octubre	2023-10-19T00:00:00	2024-11-08T14:00:00	1	Precipitación	0
137260	7	Sololá	701	Sololá	4	Finca Santa Victoria	10	Octubre	2023-10-19T00:00:00	2024-11-08T14:00:00	8	Radiación solar	99
137261	7	Sololá	701	Sololá	4	Finca Santa Victoria	10	Octubre	2023-10-19T00:00:00	2024-11-08T15:00:00	2	Temperatura media	18.3
137262	7	Sololá	701	Sololá	4	Finca Santa Victoria	10	Octubre	2023-10-19T00:00:00	2024-11-08T15:00:00	4	Temperatura máxima	19.4
137263	7	Sololá	701	Sololá	4	Finca Santa Victoria	10	Octubre	2023-10-19T00:00:00	2024-11-08T15:00:00	3	Temperatura mínima	18.3
137264	7	Sololá	701	Sololá	4	Finca Santa Victoria	10	Octubre	2023-10-19T00:00:00	2024-11-08T15:00:00	5	Humedad	93
137265	7	Sololá	701	Sololá	4	Finca Santa Victoria	10	Octubre	2023-10-19T00:00:00	2024-11-08T15:00:00	6	Velocidad del viento	6.4
137266	7	Sololá	701	Sololá	4	Finca Santa Victoria	10	Octubre	2023-10-19T00:00:00	2024-11-08T15:00:00	7	Dirección del viento	3.22
137267	7	Sololá	701	Sololá	4	Finca Santa Victoria	10	Octubre	2023-10-19T00:00:00	2024-11-08T15:00:00	1	Precipitación	0
137268	7	Sololá	701	Sololá	4	Finca Santa Victoria	10	Octubre	2023-10-19T00:00:00	2024-11-08T15:00:00	8	Radiación solar	28
137269	7	Sololá	701	Sololá	4	Finca Santa Victoria	10	Octubre	2023-10-19T00:00:00	2024-11-08T16:00:00	2	Temperatura media	18.3
137270	7	Sololá	701	Sololá	4	Finca Santa Victoria	10	Octubre	2023-10-19T00:00:00	2024-11-08T16:00:00	4	Temperatura máxima	18.4
137271	7	Sololá	701	Sololá	4	Finca Santa Victoria	10	Octubre	2023-10-19T00:00:00	2024-11-08T16:00:00	3	Temperatura mínima	17.9
137272	7	Sololá	701	Sololá	4	Finca Santa Victoria	10	Octubre	2023-10-19T00:00:00	2024-11-08T16:00:00	5	Humedad	93
137273	7	Sololá	701	Sololá	4	Finca Santa Victoria	10	Octubre	2023-10-19T00:00:00	2024-11-08T16:00:00	6	Velocidad del viento	3.2
137274	7	Sololá	701	Sololá	4	Finca Santa Victoria	10	Octubre	2023-10-19T00:00:00	2024-11-08T16:00:00	7	Dirección del viento	1.61
137275	7	Sololá	701	Sololá	4	Finca Santa Victoria	10	Octubre	2023-10-19T00:00:00	2024-11-08T16:00:00	1	Precipitación	0
137276	7	Sololá	701	Sololá	4	Finca Santa Victoria	10	Octubre	2023-10-19T00:00:00	2024-11-08T16:00:00	8	Radiación solar	10
137277	7	Sololá	701	Sololá	4	Finca Santa Victoria	10	Octubre	2023-10-19T00:00:00	2024-11-08T17:00:00	2	Temperatura media	17.6
137278	7	Sololá	701	Sololá	4	Finca Santa Victoria	10	Octubre	2023-10-19T00:00:00	2024-11-08T17:00:00	4	Temperatura máxima	17.9
137279	7	Sololá	701	Sololá	4	Finca Santa Victoria	10	Octubre	2023-10-19T00:00:00	2024-11-08T17:00:00	3	Temperatura mínima	17.6
137280	7	Sololá	701	Sololá	4	Finca Santa Victoria	10	Octubre	2023-10-19T00:00:00	2024-11-08T17:00:00	5	Humedad	96
137281	7	Sololá	701	Sololá	4	Finca Santa Victoria	10	Octubre	2023-10-19T00:00:00	2024-11-08T17:00:00	6	Velocidad del viento	1.6
137282	7	Sololá	701	Sololá	4	Finca Santa Victoria	10	Octubre	2023-10-19T00:00:00	2024-11-08T17:00:00	7	Dirección del viento	0.8
137283	7	Sololá	701	Sololá	4	Finca Santa Victoria	10	Octubre	2023-10-19T00:00:00	2024-11-08T17:00:00	1	Precipitación	0
137284	7	Sololá	701	Sololá	4	Finca Santa Victoria	10	Octubre	2023-10-19T00:00:00	2024-11-08T17:00:00	8	Radiación solar	1
137285	7	Sololá	701	Sololá	4	Finca Santa Victoria	10	Octubre	2023-10-19T00:00:00	2024-11-08T18:00:00	2	Temperatura media	17.3
137286	7	Sololá	701	Sololá	4	Finca Santa Victoria	10	Octubre	2023-10-19T00:00:00	2024-11-08T18:00:00	4	Temperatura máxima	17.8
137287	7	Sololá	701	Sololá	4	Finca Santa Victoria	10	Octubre	2023-10-19T00:00:00	2024-11-08T18:00:00	3	Temperatura mínima	17.3
137288	7	Sololá	701	Sololá	4	Finca Santa Victoria	10	Octubre	2023-10-19T00:00:00	2024-11-08T18:00:00	5	Humedad	96
137289	7	Sololá	701	Sololá	4	Finca Santa Victoria	10	Octubre	2023-10-19T00:00:00	2024-11-08T18:00:00	6	Velocidad del viento	1.6
137290	7	Sololá	701	Sololá	4	Finca Santa Victoria	10	Octubre	2023-10-19T00:00:00	2024-11-08T18:00:00	7	Dirección del viento	0.8
137291	7	Sololá	701	Sololá	4	Finca Santa Victoria	10	Octubre	2023-10-19T00:00:00	2024-11-08T18:00:00	1	Precipitación	0
137292	7	Sololá	701	Sololá	4	Finca Santa Victoria	10	Octubre	2023-10-19T00:00:00	2024-11-08T18:00:00	8	Radiación solar	0
137293	7	Sololá	701	Sololá	4	Finca Santa Victoria	10	Octubre	2023-10-19T00:00:00	2024-11-08T19:00:00	2	Temperatura media	16.8
137294	7	Sololá	701	Sololá	4	Finca Santa Victoria	10	Octubre	2023-10-19T00:00:00	2024-11-08T19:00:00	4	Temperatura máxima	16.8
137295	7	Sololá	701	Sololá	4	Finca Santa Victoria	10	Octubre	2023-10-19T00:00:00	2024-11-08T19:00:00	3	Temperatura mínima	16.7
137296	7	Sololá	701	Sololá	4	Finca Santa Victoria	10	Octubre	2023-10-19T00:00:00	2024-11-08T19:00:00	5	Humedad	97
137297	7	Sololá	701	Sololá	4	Finca Santa Victoria	10	Octubre	2023-10-19T00:00:00	2024-11-08T19:00:00	6	Velocidad del viento	0
137298	7	Sololá	701	Sololá	4	Finca Santa Victoria	10	Octubre	2023-10-19T00:00:00	2024-11-08T19:00:00	7	Dirección del viento	0
137299	7	Sololá	701	Sololá	4	Finca Santa Victoria	10	Octubre	2023-10-19T00:00:00	2024-11-08T19:00:00	1	Precipitación	0
137300	7	Sololá	701	Sololá	4	Finca Santa Victoria	10	Octubre	2023-10-19T00:00:00	2024-11-08T19:00:00	8	Radiación solar	0
137301	7	Sololá	701	Sololá	4	Finca Santa Victoria	10	Octubre	2023-10-19T00:00:00	2024-11-08T20:00:00	2	Temperatura media	16.7
137302	7	Sololá	701	Sololá	4	Finca Santa Victoria	10	Octubre	2023-10-19T00:00:00	2024-11-08T20:00:00	4	Temperatura máxima	16.8
137303	7	Sololá	701	Sololá	4	Finca Santa Victoria	10	Octubre	2023-10-19T00:00:00	2024-11-08T20:00:00	3	Temperatura mínima	16.7
137304	7	Sololá	701	Sololá	4	Finca Santa Victoria	10	Octubre	2023-10-19T00:00:00	2024-11-08T20:00:00	5	Humedad	96
137305	7	Sololá	701	Sololá	4	Finca Santa Victoria	10	Octubre	2023-10-19T00:00:00	2024-11-08T20:00:00	6	Velocidad del viento	0
137306	7	Sololá	701	Sololá	4	Finca Santa Victoria	10	Octubre	2023-10-19T00:00:00	2024-11-08T20:00:00	7	Dirección del viento	0
137307	7	Sololá	701	Sololá	4	Finca Santa Victoria	10	Octubre	2023-10-19T00:00:00	2024-11-08T20:00:00	1	Precipitación	0
137308	7	Sololá	701	Sololá	4	Finca Santa Victoria	10	Octubre	2023-10-19T00:00:00	2024-11-08T20:00:00	8	Radiación solar	0
137309	7	Sololá	701	Sololá	4	Finca Santa Victoria	10	Octubre	2023-10-19T00:00:00	2024-11-08T21:00:00	2	Temperatura media	16.6
137310	7	Sololá	701	Sololá	4	Finca Santa Victoria	10	Octubre	2023-10-19T00:00:00	2024-11-08T21:00:00	4	Temperatura máxima	16.6
137311	7	Sololá	701	Sololá	4	Finca Santa Victoria	10	Octubre	2023-10-19T00:00:00	2024-11-08T21:00:00	3	Temperatura mínima	16.5
137312	7	Sololá	701	Sololá	4	Finca Santa Victoria	10	Octubre	2023-10-19T00:00:00	2024-11-08T21:00:00	5	Humedad	95
137313	7	Sololá	701	Sololá	4	Finca Santa Victoria	10	Octubre	2023-10-19T00:00:00	2024-11-08T21:00:00	6	Velocidad del viento	0
137314	7	Sololá	701	Sololá	4	Finca Santa Victoria	10	Octubre	2023-10-19T00:00:00	2024-11-08T21:00:00	7	Dirección del viento	0
137315	7	Sololá	701	Sololá	4	Finca Santa Victoria	10	Octubre	2023-10-19T00:00:00	2024-11-08T21:00:00	1	Precipitación	0
137316	7	Sololá	701	Sololá	4	Finca Santa Victoria	10	Octubre	2023-10-19T00:00:00	2024-11-08T21:00:00	8	Radiación solar	0
137317	7	Sololá	701	Sololá	4	Finca Santa Victoria	10	Octubre	2023-10-19T00:00:00	2024-11-08T22:00:00	2	Temperatura media	16.1
137318	7	Sololá	701	Sololá	4	Finca Santa Victoria	10	Octubre	2023-10-19T00:00:00	2024-11-08T22:00:00	4	Temperatura máxima	16.3
137319	7	Sololá	701	Sololá	4	Finca Santa Victoria	10	Octubre	2023-10-19T00:00:00	2024-11-08T22:00:00	3	Temperatura mínima	16.1
137320	7	Sololá	701	Sololá	4	Finca Santa Victoria	10	Octubre	2023-10-19T00:00:00	2024-11-08T22:00:00	5	Humedad	95
137321	7	Sololá	701	Sololá	4	Finca Santa Victoria	10	Octubre	2023-10-19T00:00:00	2024-11-08T22:00:00	6	Velocidad del viento	0
137322	7	Sololá	701	Sololá	4	Finca Santa Victoria	10	Octubre	2023-10-19T00:00:00	2024-11-08T22:00:00	7	Dirección del viento	0
137323	7	Sololá	701	Sololá	4	Finca Santa Victoria	10	Octubre	2023-10-19T00:00:00	2024-11-08T22:00:00	1	Precipitación	0.6
137324	7	Sololá	701	Sololá	4	Finca Santa Victoria	10	Octubre	2023-10-19T00:00:00	2024-11-08T22:00:00	8	Radiación solar	0
137325	7	Sololá	701	Sololá	4	Finca Santa Victoria	10	Octubre	2023-10-19T00:00:00	2024-11-08T23:00:00	2	Temperatura media	15.4
137326	7	Sololá	701	Sololá	4	Finca Santa Victoria	10	Octubre	2023-10-19T00:00:00	2024-11-08T23:00:00	4	Temperatura máxima	15.9
137327	7	Sololá	701	Sololá	4	Finca Santa Victoria	10	Octubre	2023-10-19T00:00:00	2024-11-08T23:00:00	3	Temperatura mínima	15.4
137328	7	Sololá	701	Sololá	4	Finca Santa Victoria	10	Octubre	2023-10-19T00:00:00	2024-11-08T23:00:00	5	Humedad	96
137329	7	Sololá	701	Sololá	4	Finca Santa Victoria	10	Octubre	2023-10-19T00:00:00	2024-11-08T23:00:00	6	Velocidad del viento	0
137330	7	Sololá	701	Sololá	4	Finca Santa Victoria	10	Octubre	2023-10-19T00:00:00	2024-11-08T23:00:00	7	Dirección del viento	0
137331	7	Sololá	701	Sololá	4	Finca Santa Victoria	10	Octubre	2023-10-19T00:00:00	2024-11-08T23:00:00	1	Precipitación	0
137332	7	Sololá	701	Sololá	4	Finca Santa Victoria	10	Octubre	2023-10-19T00:00:00	2024-11-08T23:00:00	8	Radiación solar	0
137333	7	Sololá	701	Sololá	4	Finca Santa Victoria	10	Octubre	2023-10-20T00:00:00	2024-11-08T00:00:00	2	Temperatura media	14.8
137334	7	Sololá	701	Sololá	4	Finca Santa Victoria	10	Octubre	2023-10-20T00:00:00	2024-11-08T00:00:00	4	Temperatura máxima	14.9
137335	7	Sololá	701	Sololá	4	Finca Santa Victoria	10	Octubre	2023-10-20T00:00:00	2024-11-08T00:00:00	3	Temperatura mínima	14.8
137336	7	Sololá	701	Sololá	4	Finca Santa Victoria	10	Octubre	2023-10-20T00:00:00	2024-11-08T00:00:00	5	Humedad	97
137337	7	Sololá	701	Sololá	4	Finca Santa Victoria	10	Octubre	2023-10-20T00:00:00	2024-11-08T00:00:00	6	Velocidad del viento	0
137338	7	Sololá	701	Sololá	4	Finca Santa Victoria	10	Octubre	2023-10-20T00:00:00	2024-11-08T00:00:00	7	Dirección del viento	0
137339	7	Sololá	701	Sololá	4	Finca Santa Victoria	10	Octubre	2023-10-20T00:00:00	2024-11-08T00:00:00	1	Precipitación	0
137340	7	Sololá	701	Sololá	4	Finca Santa Victoria	10	Octubre	2023-10-20T00:00:00	2024-11-08T00:00:00	8	Radiación solar	0
137341	7	Sololá	701	Sololá	4	Finca Santa Victoria	10	Octubre	2023-10-20T00:00:00	2024-11-08T01:00:00	2	Temperatura media	14.2
137342	7	Sololá	701	Sololá	4	Finca Santa Victoria	10	Octubre	2023-10-20T00:00:00	2024-11-08T01:00:00	4	Temperatura máxima	14.6
137343	7	Sololá	701	Sololá	4	Finca Santa Victoria	10	Octubre	2023-10-20T00:00:00	2024-11-08T01:00:00	3	Temperatura mínima	14.2
137344	7	Sololá	701	Sololá	4	Finca Santa Victoria	10	Octubre	2023-10-20T00:00:00	2024-11-08T01:00:00	5	Humedad	97
137345	7	Sololá	701	Sololá	4	Finca Santa Victoria	10	Octubre	2023-10-20T00:00:00	2024-11-08T01:00:00	6	Velocidad del viento	0
137346	7	Sololá	701	Sololá	4	Finca Santa Victoria	10	Octubre	2023-10-20T00:00:00	2024-11-08T01:00:00	7	Dirección del viento	0
137347	7	Sololá	701	Sololá	4	Finca Santa Victoria	10	Octubre	2023-10-20T00:00:00	2024-11-08T01:00:00	1	Precipitación	0
137348	7	Sololá	701	Sololá	4	Finca Santa Victoria	10	Octubre	2023-10-20T00:00:00	2024-11-08T01:00:00	8	Radiación solar	0
137349	7	Sololá	701	Sololá	4	Finca Santa Victoria	10	Octubre	2023-10-20T00:00:00	2024-11-08T02:00:00	2	Temperatura media	14.4
137350	7	Sololá	701	Sololá	4	Finca Santa Victoria	10	Octubre	2023-10-20T00:00:00	2024-11-08T02:00:00	4	Temperatura máxima	14.5
137351	7	Sololá	701	Sololá	4	Finca Santa Victoria	10	Octubre	2023-10-20T00:00:00	2024-11-08T02:00:00	3	Temperatura mínima	14.4
137352	7	Sololá	701	Sololá	4	Finca Santa Victoria	10	Octubre	2023-10-20T00:00:00	2024-11-08T02:00:00	5	Humedad	97
137353	7	Sololá	701	Sololá	4	Finca Santa Victoria	10	Octubre	2023-10-20T00:00:00	2024-11-08T02:00:00	6	Velocidad del viento	0
137354	7	Sololá	701	Sololá	4	Finca Santa Victoria	10	Octubre	2023-10-20T00:00:00	2024-11-08T02:00:00	7	Dirección del viento	0
137355	7	Sololá	701	Sololá	4	Finca Santa Victoria	10	Octubre	2023-10-20T00:00:00	2024-11-08T02:00:00	1	Precipitación	0
137356	7	Sololá	701	Sololá	4	Finca Santa Victoria	10	Octubre	2023-10-20T00:00:00	2024-11-08T02:00:00	8	Radiación solar	0
137357	7	Sololá	701	Sololá	4	Finca Santa Victoria	10	Octubre	2023-10-20T00:00:00	2024-11-08T03:00:00	2	Temperatura media	14.8
137358	7	Sololá	701	Sololá	4	Finca Santa Victoria	10	Octubre	2023-10-20T00:00:00	2024-11-08T03:00:00	4	Temperatura máxima	14.9
137359	7	Sololá	701	Sololá	4	Finca Santa Victoria	10	Octubre	2023-10-20T00:00:00	2024-11-08T03:00:00	3	Temperatura mínima	14.4
137360	7	Sololá	701	Sololá	4	Finca Santa Victoria	10	Octubre	2023-10-20T00:00:00	2024-11-08T03:00:00	5	Humedad	92
137361	7	Sololá	701	Sololá	4	Finca Santa Victoria	10	Octubre	2023-10-20T00:00:00	2024-11-08T03:00:00	6	Velocidad del viento	1.6
137362	7	Sololá	701	Sololá	4	Finca Santa Victoria	10	Octubre	2023-10-20T00:00:00	2024-11-08T03:00:00	7	Dirección del viento	0.8
137363	7	Sololá	701	Sololá	4	Finca Santa Victoria	10	Octubre	2023-10-20T00:00:00	2024-11-08T03:00:00	1	Precipitación	0
137364	7	Sololá	701	Sololá	4	Finca Santa Victoria	10	Octubre	2023-10-20T00:00:00	2024-11-08T03:00:00	8	Radiación solar	0
137365	7	Sololá	701	Sololá	4	Finca Santa Victoria	10	Octubre	2023-10-20T00:00:00	2024-11-08T04:00:00	2	Temperatura media	14.6
137366	7	Sololá	701	Sololá	4	Finca Santa Victoria	10	Octubre	2023-10-20T00:00:00	2024-11-08T04:00:00	4	Temperatura máxima	14.7
137367	7	Sololá	701	Sololá	4	Finca Santa Victoria	10	Octubre	2023-10-20T00:00:00	2024-11-08T04:00:00	3	Temperatura mínima	14.4
137368	7	Sololá	701	Sololá	4	Finca Santa Victoria	10	Octubre	2023-10-20T00:00:00	2024-11-08T04:00:00	5	Humedad	91
137369	7	Sololá	701	Sololá	4	Finca Santa Victoria	10	Octubre	2023-10-20T00:00:00	2024-11-08T04:00:00	6	Velocidad del viento	3.2
137370	7	Sololá	701	Sololá	4	Finca Santa Victoria	10	Octubre	2023-10-20T00:00:00	2024-11-08T04:00:00	7	Dirección del viento	1.61
137371	7	Sololá	701	Sololá	4	Finca Santa Victoria	10	Octubre	2023-10-20T00:00:00	2024-11-08T04:00:00	1	Precipitación	0
137372	7	Sololá	701	Sololá	4	Finca Santa Victoria	10	Octubre	2023-10-20T00:00:00	2024-11-08T04:00:00	8	Radiación solar	0
137373	7	Sololá	701	Sololá	4	Finca Santa Victoria	10	Octubre	2023-10-20T00:00:00	2024-11-08T05:00:00	2	Temperatura media	14.4
137374	7	Sololá	701	Sololá	4	Finca Santa Victoria	10	Octubre	2023-10-20T00:00:00	2024-11-08T05:00:00	4	Temperatura máxima	14.8
137375	7	Sololá	701	Sololá	4	Finca Santa Victoria	10	Octubre	2023-10-20T00:00:00	2024-11-08T05:00:00	3	Temperatura mínima	14.2
137376	7	Sololá	701	Sololá	4	Finca Santa Victoria	10	Octubre	2023-10-20T00:00:00	2024-11-08T05:00:00	5	Humedad	92
137377	7	Sololá	701	Sololá	4	Finca Santa Victoria	10	Octubre	2023-10-20T00:00:00	2024-11-08T05:00:00	6	Velocidad del viento	4.8
137378	7	Sololá	701	Sololá	4	Finca Santa Victoria	10	Octubre	2023-10-20T00:00:00	2024-11-08T05:00:00	7	Dirección del viento	2.41
137379	7	Sololá	701	Sololá	4	Finca Santa Victoria	10	Octubre	2023-10-20T00:00:00	2024-11-08T05:00:00	1	Precipitación	0
137380	7	Sololá	701	Sololá	4	Finca Santa Victoria	10	Octubre	2023-10-20T00:00:00	2024-11-08T05:00:00	8	Radiación solar	0
137381	7	Sololá	701	Sololá	4	Finca Santa Victoria	10	Octubre	2023-10-20T00:00:00	2024-11-08T06:00:00	2	Temperatura media	15.4
137382	7	Sololá	701	Sololá	4	Finca Santa Victoria	10	Octubre	2023-10-20T00:00:00	2024-11-08T06:00:00	4	Temperatura máxima	15.4
137383	7	Sololá	701	Sololá	4	Finca Santa Victoria	10	Octubre	2023-10-20T00:00:00	2024-11-08T06:00:00	3	Temperatura mínima	14.8
137384	7	Sololá	701	Sololá	4	Finca Santa Victoria	10	Octubre	2023-10-20T00:00:00	2024-11-08T06:00:00	5	Humedad	87
137385	7	Sololá	701	Sololá	4	Finca Santa Victoria	10	Octubre	2023-10-20T00:00:00	2024-11-08T06:00:00	6	Velocidad del viento	3.2
137386	7	Sololá	701	Sololá	4	Finca Santa Victoria	10	Octubre	2023-10-20T00:00:00	2024-11-08T06:00:00	7	Dirección del viento	1.61
137387	7	Sololá	701	Sololá	4	Finca Santa Victoria	10	Octubre	2023-10-20T00:00:00	2024-11-08T06:00:00	1	Precipitación	0
137388	7	Sololá	701	Sololá	4	Finca Santa Victoria	10	Octubre	2023-10-20T00:00:00	2024-11-08T06:00:00	8	Radiación solar	0
137389	7	Sololá	701	Sololá	4	Finca Santa Victoria	10	Octubre	2023-10-20T00:00:00	2024-11-08T07:00:00	2	Temperatura media	16.1
137390	7	Sololá	701	Sololá	4	Finca Santa Victoria	10	Octubre	2023-10-20T00:00:00	2024-11-08T07:00:00	4	Temperatura máxima	16.1
137391	7	Sololá	701	Sololá	4	Finca Santa Victoria	10	Octubre	2023-10-20T00:00:00	2024-11-08T07:00:00	3	Temperatura mínima	14.9
137392	7	Sololá	701	Sololá	4	Finca Santa Victoria	10	Octubre	2023-10-20T00:00:00	2024-11-08T07:00:00	5	Humedad	86
137393	7	Sololá	701	Sololá	4	Finca Santa Victoria	10	Octubre	2023-10-20T00:00:00	2024-11-08T07:00:00	6	Velocidad del viento	1.6
137394	7	Sololá	701	Sololá	4	Finca Santa Victoria	10	Octubre	2023-10-20T00:00:00	2024-11-08T07:00:00	7	Dirección del viento	0.8
137395	7	Sololá	701	Sololá	4	Finca Santa Victoria	10	Octubre	2023-10-20T00:00:00	2024-11-08T07:00:00	1	Precipitación	0
137396	7	Sololá	701	Sololá	4	Finca Santa Victoria	10	Octubre	2023-10-20T00:00:00	2024-11-08T07:00:00	8	Radiación solar	20
137397	7	Sololá	701	Sololá	4	Finca Santa Victoria	10	Octubre	2023-10-20T00:00:00	2024-11-08T08:00:00	2	Temperatura media	19.2
137398	7	Sololá	701	Sololá	4	Finca Santa Victoria	10	Octubre	2023-10-20T00:00:00	2024-11-08T08:00:00	4	Temperatura máxima	19.2
137399	7	Sololá	701	Sololá	4	Finca Santa Victoria	10	Octubre	2023-10-20T00:00:00	2024-11-08T08:00:00	3	Temperatura mínima	17.6
137400	7	Sololá	701	Sololá	4	Finca Santa Victoria	10	Octubre	2023-10-20T00:00:00	2024-11-08T08:00:00	5	Humedad	78
137401	7	Sololá	701	Sololá	4	Finca Santa Victoria	10	Octubre	2023-10-20T00:00:00	2024-11-08T08:00:00	6	Velocidad del viento	0
137402	7	Sololá	701	Sololá	4	Finca Santa Victoria	10	Octubre	2023-10-20T00:00:00	2024-11-08T08:00:00	7	Dirección del viento	0
137403	7	Sololá	701	Sololá	4	Finca Santa Victoria	10	Octubre	2023-10-20T00:00:00	2024-11-08T08:00:00	1	Precipitación	0
137404	7	Sololá	701	Sololá	4	Finca Santa Victoria	10	Octubre	2023-10-20T00:00:00	2024-11-08T08:00:00	8	Radiación solar	54
137405	7	Sololá	701	Sololá	4	Finca Santa Victoria	10	Octubre	2023-10-20T00:00:00	2024-11-08T09:00:00	2	Temperatura media	19.9
137406	7	Sololá	701	Sololá	4	Finca Santa Victoria	10	Octubre	2023-10-20T00:00:00	2024-11-08T09:00:00	4	Temperatura máxima	19.9
137407	7	Sololá	701	Sololá	4	Finca Santa Victoria	10	Octubre	2023-10-20T00:00:00	2024-11-08T09:00:00	3	Temperatura mínima	19.1
137408	7	Sololá	701	Sololá	4	Finca Santa Victoria	10	Octubre	2023-10-20T00:00:00	2024-11-08T09:00:00	5	Humedad	74
137409	7	Sololá	701	Sololá	4	Finca Santa Victoria	10	Octubre	2023-10-20T00:00:00	2024-11-08T09:00:00	6	Velocidad del viento	3.2
137410	7	Sololá	701	Sololá	4	Finca Santa Victoria	10	Octubre	2023-10-20T00:00:00	2024-11-08T09:00:00	7	Dirección del viento	1.61
137411	7	Sololá	701	Sololá	4	Finca Santa Victoria	10	Octubre	2023-10-20T00:00:00	2024-11-08T09:00:00	1	Precipitación	0
137412	7	Sololá	701	Sololá	4	Finca Santa Victoria	10	Octubre	2023-10-20T00:00:00	2024-11-08T09:00:00	8	Radiación solar	69
137413	7	Sololá	701	Sololá	4	Finca Santa Victoria	10	Octubre	2023-10-20T00:00:00	2024-11-08T10:00:00	2	Temperatura media	20.4
137414	7	Sololá	701	Sololá	4	Finca Santa Victoria	10	Octubre	2023-10-20T00:00:00	2024-11-08T10:00:00	4	Temperatura máxima	20.4
137415	7	Sololá	701	Sololá	4	Finca Santa Victoria	10	Octubre	2023-10-20T00:00:00	2024-11-08T10:00:00	3	Temperatura mínima	19.9
137416	7	Sololá	701	Sololá	4	Finca Santa Victoria	10	Octubre	2023-10-20T00:00:00	2024-11-08T10:00:00	5	Humedad	78
137417	7	Sololá	701	Sololá	4	Finca Santa Victoria	10	Octubre	2023-10-20T00:00:00	2024-11-08T10:00:00	6	Velocidad del viento	4.8
137418	7	Sololá	701	Sololá	4	Finca Santa Victoria	10	Octubre	2023-10-20T00:00:00	2024-11-08T10:00:00	7	Dirección del viento	2.41
137419	7	Sololá	701	Sololá	4	Finca Santa Victoria	10	Octubre	2023-10-20T00:00:00	2024-11-08T10:00:00	1	Precipitación	0
137420	7	Sololá	701	Sololá	4	Finca Santa Victoria	10	Octubre	2023-10-20T00:00:00	2024-11-08T10:00:00	8	Radiación solar	131
137421	7	Sololá	701	Sololá	4	Finca Santa Victoria	10	Octubre	2023-10-20T00:00:00	2024-11-08T11:00:00	2	Temperatura media	20.3
137422	7	Sololá	701	Sololá	4	Finca Santa Victoria	10	Octubre	2023-10-20T00:00:00	2024-11-08T11:00:00	4	Temperatura máxima	20.8
137423	7	Sololá	701	Sololá	4	Finca Santa Victoria	10	Octubre	2023-10-20T00:00:00	2024-11-08T11:00:00	3	Temperatura mínima	20.1
137424	7	Sololá	701	Sololá	4	Finca Santa Victoria	10	Octubre	2023-10-20T00:00:00	2024-11-08T11:00:00	5	Humedad	80
137425	7	Sololá	701	Sololá	4	Finca Santa Victoria	10	Octubre	2023-10-20T00:00:00	2024-11-08T11:00:00	6	Velocidad del viento	8
137426	7	Sololá	701	Sololá	4	Finca Santa Victoria	10	Octubre	2023-10-20T00:00:00	2024-11-08T11:00:00	7	Dirección del viento	4.02
137427	7	Sololá	701	Sololá	4	Finca Santa Victoria	10	Octubre	2023-10-20T00:00:00	2024-11-08T11:00:00	1	Precipitación	0
137428	7	Sololá	701	Sololá	4	Finca Santa Victoria	10	Octubre	2023-10-20T00:00:00	2024-11-08T11:00:00	8	Radiación solar	205
137429	7	Sololá	701	Sololá	4	Finca Santa Victoria	10	Octubre	2023-10-20T00:00:00	2024-11-08T12:00:00	2	Temperatura media	19.2
137430	7	Sololá	701	Sololá	4	Finca Santa Victoria	10	Octubre	2023-10-20T00:00:00	2024-11-08T12:00:00	4	Temperatura máxima	19.6
137431	7	Sololá	701	Sololá	4	Finca Santa Victoria	10	Octubre	2023-10-20T00:00:00	2024-11-08T12:00:00	3	Temperatura mínima	19.2
137432	7	Sololá	701	Sololá	4	Finca Santa Victoria	10	Octubre	2023-10-20T00:00:00	2024-11-08T12:00:00	5	Humedad	87
137433	7	Sololá	701	Sololá	4	Finca Santa Victoria	10	Octubre	2023-10-20T00:00:00	2024-11-08T12:00:00	6	Velocidad del viento	9.7
137434	7	Sololá	701	Sololá	4	Finca Santa Victoria	10	Octubre	2023-10-20T00:00:00	2024-11-08T12:00:00	7	Dirección del viento	4.83
137435	7	Sololá	701	Sololá	4	Finca Santa Victoria	10	Octubre	2023-10-20T00:00:00	2024-11-08T12:00:00	1	Precipitación	0
137436	7	Sololá	701	Sololá	4	Finca Santa Victoria	10	Octubre	2023-10-20T00:00:00	2024-11-08T12:00:00	8	Radiación solar	301
137437	7	Sololá	701	Sololá	4	Finca Santa Victoria	10	Octubre	2023-10-20T00:00:00	2024-11-08T13:00:00	2	Temperatura media	18.8
137438	7	Sololá	701	Sololá	4	Finca Santa Victoria	10	Octubre	2023-10-20T00:00:00	2024-11-08T13:00:00	4	Temperatura máxima	18.8
137439	7	Sololá	701	Sololá	4	Finca Santa Victoria	10	Octubre	2023-10-20T00:00:00	2024-11-08T13:00:00	3	Temperatura mínima	18.4
137440	7	Sololá	701	Sololá	4	Finca Santa Victoria	10	Octubre	2023-10-20T00:00:00	2024-11-08T13:00:00	5	Humedad	88
137441	7	Sololá	701	Sololá	4	Finca Santa Victoria	10	Octubre	2023-10-20T00:00:00	2024-11-08T13:00:00	6	Velocidad del viento	6.4
137442	7	Sololá	701	Sololá	4	Finca Santa Victoria	10	Octubre	2023-10-20T00:00:00	2024-11-08T13:00:00	7	Dirección del viento	3.22
137443	7	Sololá	701	Sololá	4	Finca Santa Victoria	10	Octubre	2023-10-20T00:00:00	2024-11-08T13:00:00	1	Precipitación	0
137444	7	Sololá	701	Sololá	4	Finca Santa Victoria	10	Octubre	2023-10-20T00:00:00	2024-11-08T13:00:00	8	Radiación solar	277
137445	7	Sololá	701	Sololá	4	Finca Santa Victoria	10	Octubre	2023-10-20T00:00:00	2024-11-08T14:00:00	2	Temperatura media	20.2
137446	7	Sololá	701	Sololá	4	Finca Santa Victoria	10	Octubre	2023-10-20T00:00:00	2024-11-08T14:00:00	4	Temperatura máxima	20.2
137447	7	Sololá	701	Sololá	4	Finca Santa Victoria	10	Octubre	2023-10-20T00:00:00	2024-11-08T14:00:00	3	Temperatura mínima	19.5
137448	7	Sololá	701	Sololá	4	Finca Santa Victoria	10	Octubre	2023-10-20T00:00:00	2024-11-08T14:00:00	5	Humedad	84
137449	7	Sololá	701	Sololá	4	Finca Santa Victoria	10	Octubre	2023-10-20T00:00:00	2024-11-08T14:00:00	6	Velocidad del viento	6.4
137450	7	Sololá	701	Sololá	4	Finca Santa Victoria	10	Octubre	2023-10-20T00:00:00	2024-11-08T14:00:00	7	Dirección del viento	3.22
137451	7	Sololá	701	Sololá	4	Finca Santa Victoria	10	Octubre	2023-10-20T00:00:00	2024-11-08T14:00:00	1	Precipitación	0
137452	7	Sololá	701	Sololá	4	Finca Santa Victoria	10	Octubre	2023-10-20T00:00:00	2024-11-08T14:00:00	8	Radiación solar	141
137453	7	Sololá	701	Sololá	4	Finca Santa Victoria	10	Octubre	2023-10-20T00:00:00	2024-11-08T15:00:00	2	Temperatura media	18.5
137454	7	Sololá	701	Sololá	4	Finca Santa Victoria	10	Octubre	2023-10-20T00:00:00	2024-11-08T15:00:00	4	Temperatura máxima	19.2
137455	7	Sololá	701	Sololá	4	Finca Santa Victoria	10	Octubre	2023-10-20T00:00:00	2024-11-08T15:00:00	3	Temperatura mínima	18.4
137456	7	Sololá	701	Sololá	4	Finca Santa Victoria	10	Octubre	2023-10-20T00:00:00	2024-11-08T15:00:00	5	Humedad	91
137457	7	Sololá	701	Sololá	4	Finca Santa Victoria	10	Octubre	2023-10-20T00:00:00	2024-11-08T15:00:00	6	Velocidad del viento	1.6
137458	7	Sololá	701	Sololá	4	Finca Santa Victoria	10	Octubre	2023-10-20T00:00:00	2024-11-08T15:00:00	7	Dirección del viento	0.8
137459	7	Sololá	701	Sololá	4	Finca Santa Victoria	10	Octubre	2023-10-20T00:00:00	2024-11-08T15:00:00	1	Precipitación	0
137460	7	Sololá	701	Sololá	4	Finca Santa Victoria	10	Octubre	2023-10-20T00:00:00	2024-11-08T15:00:00	8	Radiación solar	48
137461	7	Sololá	701	Sololá	4	Finca Santa Victoria	10	Octubre	2023-10-20T00:00:00	2024-11-08T16:00:00	2	Temperatura media	18.9
137462	7	Sololá	701	Sololá	4	Finca Santa Victoria	10	Octubre	2023-10-20T00:00:00	2024-11-08T16:00:00	4	Temperatura máxima	18.9
137463	7	Sololá	701	Sololá	4	Finca Santa Victoria	10	Octubre	2023-10-20T00:00:00	2024-11-08T16:00:00	3	Temperatura mínima	18.3
137464	7	Sololá	701	Sololá	4	Finca Santa Victoria	10	Octubre	2023-10-20T00:00:00	2024-11-08T16:00:00	5	Humedad	91
137465	7	Sololá	701	Sololá	4	Finca Santa Victoria	10	Octubre	2023-10-20T00:00:00	2024-11-08T16:00:00	6	Velocidad del viento	3.2
137466	7	Sololá	701	Sololá	4	Finca Santa Victoria	10	Octubre	2023-10-20T00:00:00	2024-11-08T16:00:00	7	Dirección del viento	1.61
137467	7	Sololá	701	Sololá	4	Finca Santa Victoria	10	Octubre	2023-10-20T00:00:00	2024-11-08T16:00:00	1	Precipitación	0
137468	7	Sololá	701	Sololá	4	Finca Santa Victoria	10	Octubre	2023-10-20T00:00:00	2024-11-08T16:00:00	8	Radiación solar	57
137469	7	Sololá	701	Sololá	4	Finca Santa Victoria	10	Octubre	2023-10-20T00:00:00	2024-11-08T17:00:00	2	Temperatura media	19.3
137470	7	Sololá	701	Sololá	4	Finca Santa Victoria	10	Octubre	2023-10-20T00:00:00	2024-11-08T17:00:00	4	Temperatura máxima	19.3
137471	7	Sololá	701	Sololá	4	Finca Santa Victoria	10	Octubre	2023-10-20T00:00:00	2024-11-08T17:00:00	3	Temperatura mínima	18.8
137472	7	Sololá	701	Sololá	4	Finca Santa Victoria	10	Octubre	2023-10-20T00:00:00	2024-11-08T17:00:00	5	Humedad	89
137473	7	Sololá	701	Sololá	4	Finca Santa Victoria	10	Octubre	2023-10-20T00:00:00	2024-11-08T17:00:00	6	Velocidad del viento	0
137474	7	Sololá	701	Sololá	4	Finca Santa Victoria	10	Octubre	2023-10-20T00:00:00	2024-11-08T17:00:00	7	Dirección del viento	0
137475	7	Sololá	701	Sololá	4	Finca Santa Victoria	10	Octubre	2023-10-20T00:00:00	2024-11-08T17:00:00	1	Precipitación	0
137476	7	Sololá	701	Sololá	4	Finca Santa Victoria	10	Octubre	2023-10-20T00:00:00	2024-11-08T17:00:00	8	Radiación solar	30
137477	7	Sololá	701	Sololá	4	Finca Santa Victoria	10	Octubre	2023-10-20T00:00:00	2024-11-08T18:00:00	2	Temperatura media	18.2
137478	7	Sololá	701	Sololá	4	Finca Santa Victoria	10	Octubre	2023-10-20T00:00:00	2024-11-08T18:00:00	4	Temperatura máxima	18.7
137479	7	Sololá	701	Sololá	4	Finca Santa Victoria	10	Octubre	2023-10-20T00:00:00	2024-11-08T18:00:00	3	Temperatura mínima	18.2
137480	7	Sololá	701	Sololá	4	Finca Santa Victoria	10	Octubre	2023-10-20T00:00:00	2024-11-08T18:00:00	5	Humedad	94
137481	7	Sololá	701	Sololá	4	Finca Santa Victoria	10	Octubre	2023-10-20T00:00:00	2024-11-08T18:00:00	6	Velocidad del viento	0
137482	7	Sololá	701	Sololá	4	Finca Santa Victoria	10	Octubre	2023-10-20T00:00:00	2024-11-08T18:00:00	7	Dirección del viento	0
137483	7	Sololá	701	Sololá	4	Finca Santa Victoria	10	Octubre	2023-10-20T00:00:00	2024-11-08T18:00:00	1	Precipitación	0
137484	7	Sololá	701	Sololá	4	Finca Santa Victoria	10	Octubre	2023-10-20T00:00:00	2024-11-08T18:00:00	8	Radiación solar	1
137485	7	Sololá	701	Sololá	4	Finca Santa Victoria	10	Octubre	2023-10-20T00:00:00	2024-11-08T19:00:00	2	Temperatura media	16.9
137486	7	Sololá	701	Sololá	4	Finca Santa Victoria	10	Octubre	2023-10-20T00:00:00	2024-11-08T19:00:00	4	Temperatura máxima	17.8
137487	7	Sololá	701	Sololá	4	Finca Santa Victoria	10	Octubre	2023-10-20T00:00:00	2024-11-08T19:00:00	3	Temperatura mínima	16.9
137488	7	Sololá	701	Sololá	4	Finca Santa Victoria	10	Octubre	2023-10-20T00:00:00	2024-11-08T19:00:00	5	Humedad	94
137489	7	Sololá	701	Sololá	4	Finca Santa Victoria	10	Octubre	2023-10-20T00:00:00	2024-11-08T19:00:00	6	Velocidad del viento	0
137490	7	Sololá	701	Sololá	4	Finca Santa Victoria	10	Octubre	2023-10-20T00:00:00	2024-11-08T19:00:00	7	Dirección del viento	0
137491	7	Sololá	701	Sololá	4	Finca Santa Victoria	10	Octubre	2023-10-20T00:00:00	2024-11-08T19:00:00	1	Precipitación	0
137492	7	Sololá	701	Sololá	4	Finca Santa Victoria	10	Octubre	2023-10-20T00:00:00	2024-11-08T19:00:00	8	Radiación solar	0
137493	7	Sololá	701	Sololá	4	Finca Santa Victoria	10	Octubre	2023-10-20T00:00:00	2024-11-08T20:00:00	2	Temperatura media	15.6
137494	7	Sololá	701	Sololá	4	Finca Santa Victoria	10	Octubre	2023-10-20T00:00:00	2024-11-08T20:00:00	4	Temperatura máxima	16.1
137495	7	Sololá	701	Sololá	4	Finca Santa Victoria	10	Octubre	2023-10-20T00:00:00	2024-11-08T20:00:00	3	Temperatura mínima	15.6
137496	7	Sololá	701	Sololá	4	Finca Santa Victoria	10	Octubre	2023-10-20T00:00:00	2024-11-08T20:00:00	5	Humedad	94
137497	7	Sololá	701	Sololá	4	Finca Santa Victoria	10	Octubre	2023-10-20T00:00:00	2024-11-08T20:00:00	6	Velocidad del viento	0
137498	7	Sololá	701	Sololá	4	Finca Santa Victoria	10	Octubre	2023-10-20T00:00:00	2024-11-08T20:00:00	7	Dirección del viento	0
137499	7	Sololá	701	Sololá	4	Finca Santa Victoria	10	Octubre	2023-10-20T00:00:00	2024-11-08T20:00:00	1	Precipitación	0
137500	7	Sololá	701	Sololá	4	Finca Santa Victoria	10	Octubre	2023-10-20T00:00:00	2024-11-08T20:00:00	8	Radiación solar	0
137501	7	Sololá	701	Sololá	4	Finca Santa Victoria	10	Octubre	2023-10-20T00:00:00	2024-11-08T21:00:00	2	Temperatura media	14.6
137502	7	Sololá	701	Sololá	4	Finca Santa Victoria	10	Octubre	2023-10-20T00:00:00	2024-11-08T21:00:00	4	Temperatura máxima	15
137503	7	Sololá	701	Sololá	4	Finca Santa Victoria	10	Octubre	2023-10-20T00:00:00	2024-11-08T21:00:00	3	Temperatura mínima	14.6
137504	7	Sololá	701	Sololá	4	Finca Santa Victoria	10	Octubre	2023-10-20T00:00:00	2024-11-08T21:00:00	5	Humedad	94
137505	7	Sololá	701	Sololá	4	Finca Santa Victoria	10	Octubre	2023-10-20T00:00:00	2024-11-08T21:00:00	6	Velocidad del viento	0
137506	7	Sololá	701	Sololá	4	Finca Santa Victoria	10	Octubre	2023-10-20T00:00:00	2024-11-08T21:00:00	7	Dirección del viento	0
137507	7	Sololá	701	Sololá	4	Finca Santa Victoria	10	Octubre	2023-10-20T00:00:00	2024-11-08T21:00:00	1	Precipitación	0
137508	7	Sololá	701	Sololá	4	Finca Santa Victoria	10	Octubre	2023-10-20T00:00:00	2024-11-08T21:00:00	8	Radiación solar	0
137509	7	Sololá	701	Sololá	4	Finca Santa Victoria	10	Octubre	2023-10-20T00:00:00	2024-11-08T22:00:00	2	Temperatura media	14.2
137510	7	Sololá	701	Sololá	4	Finca Santa Victoria	10	Octubre	2023-10-20T00:00:00	2024-11-08T22:00:00	4	Temperatura máxima	14.2
137511	7	Sololá	701	Sololá	4	Finca Santa Victoria	10	Octubre	2023-10-20T00:00:00	2024-11-08T22:00:00	3	Temperatura mínima	14.1
137512	7	Sololá	701	Sololá	4	Finca Santa Victoria	10	Octubre	2023-10-20T00:00:00	2024-11-08T22:00:00	5	Humedad	96
137513	7	Sololá	701	Sololá	4	Finca Santa Victoria	10	Octubre	2023-10-20T00:00:00	2024-11-08T22:00:00	6	Velocidad del viento	0
137514	7	Sololá	701	Sololá	4	Finca Santa Victoria	10	Octubre	2023-10-20T00:00:00	2024-11-08T22:00:00	7	Dirección del viento	0
137515	7	Sololá	701	Sololá	4	Finca Santa Victoria	10	Octubre	2023-10-20T00:00:00	2024-11-08T22:00:00	1	Precipitación	0
137516	7	Sololá	701	Sololá	4	Finca Santa Victoria	10	Octubre	2023-10-20T00:00:00	2024-11-08T22:00:00	8	Radiación solar	0
137517	7	Sololá	701	Sololá	4	Finca Santa Victoria	10	Octubre	2023-10-20T00:00:00	2024-11-08T23:00:00	2	Temperatura media	15.3
137518	7	Sololá	701	Sololá	4	Finca Santa Victoria	10	Octubre	2023-10-20T00:00:00	2024-11-08T23:00:00	4	Temperatura máxima	15.4
137519	7	Sololá	701	Sololá	4	Finca Santa Victoria	10	Octubre	2023-10-20T00:00:00	2024-11-08T23:00:00	3	Temperatura mínima	14.7
137520	7	Sololá	701	Sololá	4	Finca Santa Victoria	10	Octubre	2023-10-20T00:00:00	2024-11-08T23:00:00	5	Humedad	91
137521	7	Sololá	701	Sololá	4	Finca Santa Victoria	10	Octubre	2023-10-20T00:00:00	2024-11-08T23:00:00	6	Velocidad del viento	3.2
137522	7	Sololá	701	Sololá	4	Finca Santa Victoria	10	Octubre	2023-10-20T00:00:00	2024-11-08T23:00:00	7	Dirección del viento	1.61
137523	7	Sololá	701	Sololá	4	Finca Santa Victoria	10	Octubre	2023-10-20T00:00:00	2024-11-08T23:00:00	1	Precipitación	0
137524	7	Sololá	701	Sololá	4	Finca Santa Victoria	10	Octubre	2023-10-20T00:00:00	2024-11-08T23:00:00	8	Radiación solar	0
137525	7	Sololá	701	Sololá	4	Finca Santa Victoria	10	Octubre	2023-10-21T00:00:00	2024-11-08T00:00:00	2	Temperatura media	14.7
137526	7	Sololá	701	Sololá	4	Finca Santa Victoria	10	Octubre	2023-10-21T00:00:00	2024-11-08T00:00:00	4	Temperatura máxima	15.4
137527	7	Sololá	701	Sololá	4	Finca Santa Victoria	10	Octubre	2023-10-21T00:00:00	2024-11-08T00:00:00	3	Temperatura mínima	14.7
137528	7	Sololá	701	Sololá	4	Finca Santa Victoria	10	Octubre	2023-10-21T00:00:00	2024-11-08T00:00:00	5	Humedad	91
137529	7	Sololá	701	Sololá	4	Finca Santa Victoria	10	Octubre	2023-10-21T00:00:00	2024-11-08T00:00:00	6	Velocidad del viento	3.2
137530	7	Sololá	701	Sololá	4	Finca Santa Victoria	10	Octubre	2023-10-21T00:00:00	2024-11-08T00:00:00	7	Dirección del viento	1.61
137531	7	Sololá	701	Sololá	4	Finca Santa Victoria	10	Octubre	2023-10-21T00:00:00	2024-11-08T00:00:00	1	Precipitación	0
137532	7	Sololá	701	Sololá	4	Finca Santa Victoria	10	Octubre	2023-10-21T00:00:00	2024-11-08T00:00:00	8	Radiación solar	0
137533	7	Sololá	701	Sololá	4	Finca Santa Victoria	10	Octubre	2023-10-21T00:00:00	2024-11-08T01:00:00	2	Temperatura media	14.7
137534	7	Sololá	701	Sololá	4	Finca Santa Victoria	10	Octubre	2023-10-21T00:00:00	2024-11-08T01:00:00	4	Temperatura máxima	14.7
137535	7	Sololá	701	Sololá	4	Finca Santa Victoria	10	Octubre	2023-10-21T00:00:00	2024-11-08T01:00:00	3	Temperatura mínima	14.4
137536	7	Sololá	701	Sololá	4	Finca Santa Victoria	10	Octubre	2023-10-21T00:00:00	2024-11-08T01:00:00	5	Humedad	91
137537	7	Sololá	701	Sololá	4	Finca Santa Victoria	10	Octubre	2023-10-21T00:00:00	2024-11-08T01:00:00	6	Velocidad del viento	1.6
137538	7	Sololá	701	Sololá	4	Finca Santa Victoria	10	Octubre	2023-10-21T00:00:00	2024-11-08T01:00:00	7	Dirección del viento	0.8
137539	7	Sololá	701	Sololá	4	Finca Santa Victoria	10	Octubre	2023-10-21T00:00:00	2024-11-08T01:00:00	1	Precipitación	0
137540	7	Sololá	701	Sololá	4	Finca Santa Victoria	10	Octubre	2023-10-21T00:00:00	2024-11-08T01:00:00	8	Radiación solar	0
137541	7	Sololá	701	Sololá	4	Finca Santa Victoria	10	Octubre	2023-10-21T00:00:00	2024-11-08T02:00:00	2	Temperatura media	14.3
137542	7	Sololá	701	Sololá	4	Finca Santa Victoria	10	Octubre	2023-10-21T00:00:00	2024-11-08T02:00:00	4	Temperatura máxima	14.3
137543	7	Sololá	701	Sololá	4	Finca Santa Victoria	10	Octubre	2023-10-21T00:00:00	2024-11-08T02:00:00	3	Temperatura mínima	14.1
137544	7	Sololá	701	Sololá	4	Finca Santa Victoria	10	Octubre	2023-10-21T00:00:00	2024-11-08T02:00:00	5	Humedad	92
137545	7	Sololá	701	Sololá	4	Finca Santa Victoria	10	Octubre	2023-10-21T00:00:00	2024-11-08T02:00:00	6	Velocidad del viento	3.2
137546	7	Sololá	701	Sololá	4	Finca Santa Victoria	10	Octubre	2023-10-21T00:00:00	2024-11-08T02:00:00	7	Dirección del viento	1.61
137547	7	Sololá	701	Sololá	4	Finca Santa Victoria	10	Octubre	2023-10-21T00:00:00	2024-11-08T02:00:00	1	Precipitación	0
137548	7	Sololá	701	Sololá	4	Finca Santa Victoria	10	Octubre	2023-10-21T00:00:00	2024-11-08T02:00:00	8	Radiación solar	0
137549	7	Sololá	701	Sololá	4	Finca Santa Victoria	10	Octubre	2023-10-21T00:00:00	2024-11-08T03:00:00	2	Temperatura media	14
137550	7	Sololá	701	Sololá	4	Finca Santa Victoria	10	Octubre	2023-10-21T00:00:00	2024-11-08T03:00:00	4	Temperatura máxima	14
137551	7	Sololá	701	Sololá	4	Finca Santa Victoria	10	Octubre	2023-10-21T00:00:00	2024-11-08T03:00:00	3	Temperatura mínima	13.6
137552	7	Sololá	701	Sololá	4	Finca Santa Victoria	10	Octubre	2023-10-21T00:00:00	2024-11-08T03:00:00	5	Humedad	92
137553	7	Sololá	701	Sololá	4	Finca Santa Victoria	10	Octubre	2023-10-21T00:00:00	2024-11-08T03:00:00	6	Velocidad del viento	1.6
137554	7	Sololá	701	Sololá	4	Finca Santa Victoria	10	Octubre	2023-10-21T00:00:00	2024-11-08T03:00:00	7	Dirección del viento	0.8
137555	7	Sololá	701	Sololá	4	Finca Santa Victoria	10	Octubre	2023-10-21T00:00:00	2024-11-08T03:00:00	1	Precipitación	0
137556	7	Sololá	701	Sololá	4	Finca Santa Victoria	10	Octubre	2023-10-21T00:00:00	2024-11-08T03:00:00	8	Radiación solar	0
137557	7	Sololá	701	Sololá	4	Finca Santa Victoria	10	Octubre	2023-10-21T00:00:00	2024-11-08T04:00:00	2	Temperatura media	13
137558	7	Sololá	701	Sololá	4	Finca Santa Victoria	10	Octubre	2023-10-21T00:00:00	2024-11-08T04:00:00	4	Temperatura máxima	13.7
137559	7	Sololá	701	Sololá	4	Finca Santa Victoria	10	Octubre	2023-10-21T00:00:00	2024-11-08T04:00:00	3	Temperatura mínima	12.9
137560	7	Sololá	701	Sololá	4	Finca Santa Victoria	10	Octubre	2023-10-21T00:00:00	2024-11-08T04:00:00	5	Humedad	94
137561	7	Sololá	701	Sololá	4	Finca Santa Victoria	10	Octubre	2023-10-21T00:00:00	2024-11-08T04:00:00	6	Velocidad del viento	0
137562	7	Sololá	701	Sololá	4	Finca Santa Victoria	10	Octubre	2023-10-21T00:00:00	2024-11-08T04:00:00	7	Dirección del viento	0
137563	7	Sololá	701	Sololá	4	Finca Santa Victoria	10	Octubre	2023-10-21T00:00:00	2024-11-08T04:00:00	1	Precipitación	0
137564	7	Sololá	701	Sololá	4	Finca Santa Victoria	10	Octubre	2023-10-21T00:00:00	2024-11-08T04:00:00	8	Radiación solar	0
137565	7	Sololá	701	Sololá	4	Finca Santa Victoria	10	Octubre	2023-10-21T00:00:00	2024-11-08T05:00:00	2	Temperatura media	13.2
137566	7	Sololá	701	Sololá	4	Finca Santa Victoria	10	Octubre	2023-10-21T00:00:00	2024-11-08T05:00:00	4	Temperatura máxima	13.2
137567	7	Sololá	701	Sololá	4	Finca Santa Victoria	10	Octubre	2023-10-21T00:00:00	2024-11-08T05:00:00	3	Temperatura mínima	12.6
137568	7	Sololá	701	Sololá	4	Finca Santa Victoria	10	Octubre	2023-10-21T00:00:00	2024-11-08T05:00:00	5	Humedad	93
137569	7	Sololá	701	Sololá	4	Finca Santa Victoria	10	Octubre	2023-10-21T00:00:00	2024-11-08T05:00:00	6	Velocidad del viento	6.4
137570	7	Sololá	701	Sololá	4	Finca Santa Victoria	10	Octubre	2023-10-21T00:00:00	2024-11-08T05:00:00	7	Dirección del viento	3.22
137571	7	Sololá	701	Sololá	4	Finca Santa Victoria	10	Octubre	2023-10-21T00:00:00	2024-11-08T05:00:00	1	Precipitación	0
137572	7	Sololá	701	Sololá	4	Finca Santa Victoria	10	Octubre	2023-10-21T00:00:00	2024-11-08T05:00:00	8	Radiación solar	0
137573	7	Sololá	701	Sololá	4	Finca Santa Victoria	10	Octubre	2023-10-21T00:00:00	2024-11-08T06:00:00	2	Temperatura media	11.7
137574	7	Sololá	701	Sololá	4	Finca Santa Victoria	10	Octubre	2023-10-21T00:00:00	2024-11-08T06:00:00	4	Temperatura máxima	12.1
137575	7	Sololá	701	Sololá	4	Finca Santa Victoria	10	Octubre	2023-10-21T00:00:00	2024-11-08T06:00:00	3	Temperatura mínima	11.6
137576	7	Sololá	701	Sololá	4	Finca Santa Victoria	10	Octubre	2023-10-21T00:00:00	2024-11-08T06:00:00	5	Humedad	95
137577	7	Sololá	701	Sololá	4	Finca Santa Victoria	10	Octubre	2023-10-21T00:00:00	2024-11-08T06:00:00	6	Velocidad del viento	0
137578	7	Sololá	701	Sololá	4	Finca Santa Victoria	10	Octubre	2023-10-21T00:00:00	2024-11-08T06:00:00	7	Dirección del viento	0
137579	7	Sololá	701	Sololá	4	Finca Santa Victoria	10	Octubre	2023-10-21T00:00:00	2024-11-08T06:00:00	1	Precipitación	0
137580	7	Sololá	701	Sololá	4	Finca Santa Victoria	10	Octubre	2023-10-21T00:00:00	2024-11-08T06:00:00	8	Radiación solar	0
137581	7	Sololá	701	Sololá	4	Finca Santa Victoria	10	Octubre	2023-10-21T00:00:00	2024-11-08T07:00:00	2	Temperatura media	14.2
137582	7	Sololá	701	Sololá	4	Finca Santa Victoria	10	Octubre	2023-10-21T00:00:00	2024-11-08T07:00:00	4	Temperatura máxima	14.2
137583	7	Sololá	701	Sololá	4	Finca Santa Victoria	10	Octubre	2023-10-21T00:00:00	2024-11-08T07:00:00	3	Temperatura mínima	13.8
137584	7	Sololá	701	Sololá	4	Finca Santa Victoria	10	Octubre	2023-10-21T00:00:00	2024-11-08T07:00:00	5	Humedad	90
137585	7	Sololá	701	Sololá	4	Finca Santa Victoria	10	Octubre	2023-10-21T00:00:00	2024-11-08T07:00:00	6	Velocidad del viento	4.8
137586	7	Sololá	701	Sololá	4	Finca Santa Victoria	10	Octubre	2023-10-21T00:00:00	2024-11-08T07:00:00	7	Dirección del viento	2.41
137587	7	Sololá	701	Sololá	4	Finca Santa Victoria	10	Octubre	2023-10-21T00:00:00	2024-11-08T07:00:00	1	Precipitación	0
137588	7	Sololá	701	Sololá	4	Finca Santa Victoria	10	Octubre	2023-10-21T00:00:00	2024-11-08T07:00:00	8	Radiación solar	19
137589	7	Sololá	701	Sololá	4	Finca Santa Victoria	10	Octubre	2023-10-21T00:00:00	2024-11-08T08:00:00	2	Temperatura media	15.3
137590	7	Sololá	701	Sololá	4	Finca Santa Victoria	10	Octubre	2023-10-21T00:00:00	2024-11-08T08:00:00	4	Temperatura máxima	15.3
137591	7	Sololá	701	Sololá	4	Finca Santa Victoria	10	Octubre	2023-10-21T00:00:00	2024-11-08T08:00:00	3	Temperatura mínima	14.7
137592	7	Sololá	701	Sololá	4	Finca Santa Victoria	10	Octubre	2023-10-21T00:00:00	2024-11-08T08:00:00	5	Humedad	88
137593	7	Sololá	701	Sololá	4	Finca Santa Victoria	10	Octubre	2023-10-21T00:00:00	2024-11-08T08:00:00	6	Velocidad del viento	6.4
137594	7	Sololá	701	Sololá	4	Finca Santa Victoria	10	Octubre	2023-10-21T00:00:00	2024-11-08T08:00:00	7	Dirección del viento	3.22
137595	7	Sololá	701	Sololá	4	Finca Santa Victoria	10	Octubre	2023-10-21T00:00:00	2024-11-08T08:00:00	1	Precipitación	0
137596	7	Sololá	701	Sololá	4	Finca Santa Victoria	10	Octubre	2023-10-21T00:00:00	2024-11-08T08:00:00	8	Radiación solar	165
137597	7	Sololá	701	Sololá	4	Finca Santa Victoria	10	Octubre	2023-10-21T00:00:00	2024-11-08T09:00:00	2	Temperatura media	17.4
137598	7	Sololá	701	Sololá	4	Finca Santa Victoria	10	Octubre	2023-10-21T00:00:00	2024-11-08T09:00:00	4	Temperatura máxima	17.4
137599	7	Sololá	701	Sololá	4	Finca Santa Victoria	10	Octubre	2023-10-21T00:00:00	2024-11-08T09:00:00	3	Temperatura mínima	16.3
137600	7	Sololá	701	Sololá	4	Finca Santa Victoria	10	Octubre	2023-10-21T00:00:00	2024-11-08T09:00:00	5	Humedad	81
137601	7	Sololá	701	Sololá	4	Finca Santa Victoria	10	Octubre	2023-10-21T00:00:00	2024-11-08T09:00:00	6	Velocidad del viento	4.8
137602	7	Sololá	701	Sololá	4	Finca Santa Victoria	10	Octubre	2023-10-21T00:00:00	2024-11-08T09:00:00	7	Dirección del viento	2.41
137603	7	Sololá	701	Sololá	4	Finca Santa Victoria	10	Octubre	2023-10-21T00:00:00	2024-11-08T09:00:00	1	Precipitación	0
137604	7	Sololá	701	Sololá	4	Finca Santa Victoria	10	Octubre	2023-10-21T00:00:00	2024-11-08T09:00:00	8	Radiación solar	286
137605	7	Sololá	701	Sololá	4	Finca Santa Victoria	10	Octubre	2023-10-21T00:00:00	2024-11-08T10:00:00	2	Temperatura media	19.8
137606	7	Sololá	701	Sololá	4	Finca Santa Victoria	10	Octubre	2023-10-21T00:00:00	2024-11-08T10:00:00	4	Temperatura máxima	19.8
137607	7	Sololá	701	Sololá	4	Finca Santa Victoria	10	Octubre	2023-10-21T00:00:00	2024-11-08T10:00:00	3	Temperatura mínima	18.3
137608	7	Sololá	701	Sololá	4	Finca Santa Victoria	10	Octubre	2023-10-21T00:00:00	2024-11-08T10:00:00	5	Humedad	76
137609	7	Sololá	701	Sololá	4	Finca Santa Victoria	10	Octubre	2023-10-21T00:00:00	2024-11-08T10:00:00	6	Velocidad del viento	1.6
137610	7	Sololá	701	Sololá	4	Finca Santa Victoria	10	Octubre	2023-10-21T00:00:00	2024-11-08T10:00:00	7	Dirección del viento	0.8
137611	7	Sololá	701	Sololá	4	Finca Santa Victoria	10	Octubre	2023-10-21T00:00:00	2024-11-08T10:00:00	1	Precipitación	0
137612	7	Sololá	701	Sololá	4	Finca Santa Victoria	10	Octubre	2023-10-21T00:00:00	2024-11-08T10:00:00	8	Radiación solar	500
137613	7	Sololá	701	Sololá	4	Finca Santa Victoria	10	Octubre	2023-10-21T00:00:00	2024-11-08T11:00:00	2	Temperatura media	19.5
137614	7	Sololá	701	Sololá	4	Finca Santa Victoria	10	Octubre	2023-10-21T00:00:00	2024-11-08T11:00:00	4	Temperatura máxima	20
137615	7	Sololá	701	Sololá	4	Finca Santa Victoria	10	Octubre	2023-10-21T00:00:00	2024-11-08T11:00:00	3	Temperatura mínima	19.4
137616	7	Sololá	701	Sololá	4	Finca Santa Victoria	10	Octubre	2023-10-21T00:00:00	2024-11-08T11:00:00	5	Humedad	77
137617	7	Sololá	701	Sololá	4	Finca Santa Victoria	10	Octubre	2023-10-21T00:00:00	2024-11-08T11:00:00	6	Velocidad del viento	8
137618	7	Sololá	701	Sololá	4	Finca Santa Victoria	10	Octubre	2023-10-21T00:00:00	2024-11-08T11:00:00	7	Dirección del viento	4.02
137619	7	Sololá	701	Sololá	4	Finca Santa Victoria	10	Octubre	2023-10-21T00:00:00	2024-11-08T11:00:00	1	Precipitación	0
137620	7	Sololá	701	Sololá	4	Finca Santa Victoria	10	Octubre	2023-10-21T00:00:00	2024-11-08T11:00:00	8	Radiación solar	806
137621	7	Sololá	701	Sololá	4	Finca Santa Victoria	10	Octubre	2023-10-21T00:00:00	2024-11-08T12:00:00	2	Temperatura media	20.3
137622	7	Sololá	701	Sololá	4	Finca Santa Victoria	10	Octubre	2023-10-21T00:00:00	2024-11-08T12:00:00	4	Temperatura máxima	20.8
137623	7	Sololá	701	Sololá	4	Finca Santa Victoria	10	Octubre	2023-10-21T00:00:00	2024-11-08T12:00:00	3	Temperatura mínima	19.8
137624	7	Sololá	701	Sololá	4	Finca Santa Victoria	10	Octubre	2023-10-21T00:00:00	2024-11-08T12:00:00	5	Humedad	76
137625	7	Sololá	701	Sololá	4	Finca Santa Victoria	10	Octubre	2023-10-21T00:00:00	2024-11-08T12:00:00	6	Velocidad del viento	8
137626	7	Sololá	701	Sololá	4	Finca Santa Victoria	10	Octubre	2023-10-21T00:00:00	2024-11-08T12:00:00	7	Dirección del viento	4.02
137627	7	Sololá	701	Sololá	4	Finca Santa Victoria	10	Octubre	2023-10-21T00:00:00	2024-11-08T12:00:00	1	Precipitación	0
137628	7	Sololá	701	Sololá	4	Finca Santa Victoria	10	Octubre	2023-10-21T00:00:00	2024-11-08T12:00:00	8	Radiación solar	221
137629	7	Sololá	701	Sololá	4	Finca Santa Victoria	10	Octubre	2023-10-21T00:00:00	2024-11-08T13:00:00	2	Temperatura media	19.9
137630	7	Sololá	701	Sololá	4	Finca Santa Victoria	10	Octubre	2023-10-21T00:00:00	2024-11-08T13:00:00	4	Temperatura máxima	21.1
137631	7	Sololá	701	Sololá	4	Finca Santa Victoria	10	Octubre	2023-10-21T00:00:00	2024-11-08T13:00:00	3	Temperatura mínima	19.8
137632	7	Sololá	701	Sololá	4	Finca Santa Victoria	10	Octubre	2023-10-21T00:00:00	2024-11-08T13:00:00	5	Humedad	82
137633	7	Sololá	701	Sololá	4	Finca Santa Victoria	10	Octubre	2023-10-21T00:00:00	2024-11-08T13:00:00	6	Velocidad del viento	8
137634	7	Sololá	701	Sololá	4	Finca Santa Victoria	10	Octubre	2023-10-21T00:00:00	2024-11-08T13:00:00	7	Dirección del viento	4.02
137635	7	Sololá	701	Sololá	4	Finca Santa Victoria	10	Octubre	2023-10-21T00:00:00	2024-11-08T13:00:00	1	Precipitación	0
137636	7	Sololá	701	Sololá	4	Finca Santa Victoria	10	Octubre	2023-10-21T00:00:00	2024-11-08T13:00:00	8	Radiación solar	110
137637	7	Sololá	701	Sololá	4	Finca Santa Victoria	10	Octubre	2023-10-21T00:00:00	2024-11-08T14:00:00	2	Temperatura media	20.4
137638	7	Sololá	701	Sololá	4	Finca Santa Victoria	10	Octubre	2023-10-21T00:00:00	2024-11-08T14:00:00	4	Temperatura máxima	20.5
137639	7	Sololá	701	Sololá	4	Finca Santa Victoria	10	Octubre	2023-10-21T00:00:00	2024-11-08T14:00:00	3	Temperatura mínima	19.7
137640	7	Sololá	701	Sololá	4	Finca Santa Victoria	10	Octubre	2023-10-21T00:00:00	2024-11-08T14:00:00	5	Humedad	82
137641	7	Sololá	701	Sololá	4	Finca Santa Victoria	10	Octubre	2023-10-21T00:00:00	2024-11-08T14:00:00	6	Velocidad del viento	9.7
137642	7	Sololá	701	Sololá	4	Finca Santa Victoria	10	Octubre	2023-10-21T00:00:00	2024-11-08T14:00:00	7	Dirección del viento	4.83
137643	7	Sololá	701	Sololá	4	Finca Santa Victoria	10	Octubre	2023-10-21T00:00:00	2024-11-08T14:00:00	1	Precipitación	0
137644	7	Sololá	701	Sololá	4	Finca Santa Victoria	10	Octubre	2023-10-21T00:00:00	2024-11-08T14:00:00	8	Radiación solar	28
137645	7	Sololá	701	Sololá	4	Finca Santa Victoria	10	Octubre	2023-10-21T00:00:00	2024-11-08T15:00:00	2	Temperatura media	20.6
137646	7	Sololá	701	Sololá	4	Finca Santa Victoria	10	Octubre	2023-10-21T00:00:00	2024-11-08T15:00:00	4	Temperatura máxima	21.2
137647	7	Sololá	701	Sololá	4	Finca Santa Victoria	10	Octubre	2023-10-21T00:00:00	2024-11-08T15:00:00	3	Temperatura mínima	20.6
137648	7	Sololá	701	Sololá	4	Finca Santa Victoria	10	Octubre	2023-10-21T00:00:00	2024-11-08T15:00:00	5	Humedad	82
137649	7	Sololá	701	Sololá	4	Finca Santa Victoria	10	Octubre	2023-10-21T00:00:00	2024-11-08T15:00:00	6	Velocidad del viento	8
137650	7	Sololá	701	Sololá	4	Finca Santa Victoria	10	Octubre	2023-10-21T00:00:00	2024-11-08T15:00:00	7	Dirección del viento	4.02
137651	7	Sololá	701	Sololá	4	Finca Santa Victoria	10	Octubre	2023-10-21T00:00:00	2024-11-08T15:00:00	1	Precipitación	0
137652	7	Sololá	701	Sololá	4	Finca Santa Victoria	10	Octubre	2023-10-21T00:00:00	2024-11-08T15:00:00	8	Radiación solar	53
137653	7	Sololá	701	Sololá	4	Finca Santa Victoria	10	Octubre	2023-10-21T00:00:00	2024-11-08T16:00:00	2	Temperatura media	18.9
137654	7	Sololá	701	Sololá	4	Finca Santa Victoria	10	Octubre	2023-10-21T00:00:00	2024-11-08T16:00:00	4	Temperatura máxima	19.4
137655	7	Sololá	701	Sololá	4	Finca Santa Victoria	10	Octubre	2023-10-21T00:00:00	2024-11-08T16:00:00	3	Temperatura mínima	18.6
137656	7	Sololá	701	Sololá	4	Finca Santa Victoria	10	Octubre	2023-10-21T00:00:00	2024-11-08T16:00:00	5	Humedad	89
137657	7	Sololá	701	Sololá	4	Finca Santa Victoria	10	Octubre	2023-10-21T00:00:00	2024-11-08T16:00:00	6	Velocidad del viento	9.7
137658	7	Sololá	701	Sololá	4	Finca Santa Victoria	10	Octubre	2023-10-21T00:00:00	2024-11-08T16:00:00	7	Dirección del viento	4.83
137659	7	Sololá	701	Sololá	4	Finca Santa Victoria	10	Octubre	2023-10-21T00:00:00	2024-11-08T16:00:00	1	Precipitación	0
137660	7	Sololá	701	Sololá	4	Finca Santa Victoria	10	Octubre	2023-10-21T00:00:00	2024-11-08T16:00:00	8	Radiación solar	14
137661	7	Sololá	701	Sololá	4	Finca Santa Victoria	10	Octubre	2023-10-21T00:00:00	2024-11-08T17:00:00	2	Temperatura media	17.4
137662	7	Sololá	701	Sololá	4	Finca Santa Victoria	10	Octubre	2023-10-21T00:00:00	2024-11-08T17:00:00	4	Temperatura máxima	18.4
137663	7	Sololá	701	Sololá	4	Finca Santa Victoria	10	Octubre	2023-10-21T00:00:00	2024-11-08T17:00:00	3	Temperatura mínima	17.3
137664	7	Sololá	701	Sololá	4	Finca Santa Victoria	10	Octubre	2023-10-21T00:00:00	2024-11-08T17:00:00	5	Humedad	93
137665	7	Sololá	701	Sololá	4	Finca Santa Victoria	10	Octubre	2023-10-21T00:00:00	2024-11-08T17:00:00	6	Velocidad del viento	8
137666	7	Sololá	701	Sololá	4	Finca Santa Victoria	10	Octubre	2023-10-21T00:00:00	2024-11-08T17:00:00	7	Dirección del viento	4.02
137667	7	Sololá	701	Sololá	4	Finca Santa Victoria	10	Octubre	2023-10-21T00:00:00	2024-11-08T17:00:00	1	Precipitación	0
137668	7	Sololá	701	Sololá	4	Finca Santa Victoria	10	Octubre	2023-10-21T00:00:00	2024-11-08T17:00:00	8	Radiación solar	13
137669	7	Sololá	701	Sololá	4	Finca Santa Victoria	10	Octubre	2023-10-21T00:00:00	2024-11-08T18:00:00	2	Temperatura media	15.6
137670	7	Sololá	701	Sololá	4	Finca Santa Victoria	10	Octubre	2023-10-21T00:00:00	2024-11-08T18:00:00	4	Temperatura máxima	17.2
137671	7	Sololá	701	Sololá	4	Finca Santa Victoria	10	Octubre	2023-10-21T00:00:00	2024-11-08T18:00:00	3	Temperatura mínima	15.6
137672	7	Sololá	701	Sololá	4	Finca Santa Victoria	10	Octubre	2023-10-21T00:00:00	2024-11-08T18:00:00	5	Humedad	93
137673	7	Sololá	701	Sololá	4	Finca Santa Victoria	10	Octubre	2023-10-21T00:00:00	2024-11-08T18:00:00	6	Velocidad del viento	3.2
137674	7	Sololá	701	Sololá	4	Finca Santa Victoria	10	Octubre	2023-10-21T00:00:00	2024-11-08T18:00:00	7	Dirección del viento	1.61
137675	7	Sololá	701	Sololá	4	Finca Santa Victoria	10	Octubre	2023-10-21T00:00:00	2024-11-08T18:00:00	1	Precipitación	4
137676	7	Sololá	701	Sololá	4	Finca Santa Victoria	10	Octubre	2023-10-21T00:00:00	2024-11-08T18:00:00	8	Radiación solar	3
137677	7	Sololá	701	Sololá	4	Finca Santa Victoria	10	Octubre	2023-10-21T00:00:00	2024-11-08T19:00:00	2	Temperatura media	15.2
137678	7	Sololá	701	Sololá	4	Finca Santa Victoria	10	Octubre	2023-10-21T00:00:00	2024-11-08T19:00:00	4	Temperatura máxima	15.2
137679	7	Sololá	701	Sololá	4	Finca Santa Victoria	10	Octubre	2023-10-21T00:00:00	2024-11-08T19:00:00	3	Temperatura mínima	14.8
137680	7	Sololá	701	Sololá	4	Finca Santa Victoria	10	Octubre	2023-10-21T00:00:00	2024-11-08T19:00:00	5	Humedad	94
137681	7	Sololá	701	Sololá	4	Finca Santa Victoria	10	Octubre	2023-10-21T00:00:00	2024-11-08T19:00:00	6	Velocidad del viento	3.2
137682	7	Sololá	701	Sololá	4	Finca Santa Victoria	10	Octubre	2023-10-21T00:00:00	2024-11-08T19:00:00	7	Dirección del viento	1.61
137683	7	Sololá	701	Sololá	4	Finca Santa Victoria	10	Octubre	2023-10-21T00:00:00	2024-11-08T19:00:00	1	Precipitación	0.2
137684	7	Sololá	701	Sololá	4	Finca Santa Victoria	10	Octubre	2023-10-21T00:00:00	2024-11-08T19:00:00	8	Radiación solar	0
137685	7	Sololá	701	Sololá	4	Finca Santa Victoria	10	Octubre	2023-10-21T00:00:00	2024-11-08T20:00:00	2	Temperatura media	15.4
137686	7	Sololá	701	Sololá	4	Finca Santa Victoria	10	Octubre	2023-10-21T00:00:00	2024-11-08T20:00:00	4	Temperatura máxima	15.4
137687	7	Sololá	701	Sololá	4	Finca Santa Victoria	10	Octubre	2023-10-21T00:00:00	2024-11-08T20:00:00	3	Temperatura mínima	15.3
137688	7	Sololá	701	Sololá	4	Finca Santa Victoria	10	Octubre	2023-10-21T00:00:00	2024-11-08T20:00:00	5	Humedad	95
137689	7	Sololá	701	Sololá	4	Finca Santa Victoria	10	Octubre	2023-10-21T00:00:00	2024-11-08T20:00:00	6	Velocidad del viento	1.6
137690	7	Sololá	701	Sololá	4	Finca Santa Victoria	10	Octubre	2023-10-21T00:00:00	2024-11-08T20:00:00	7	Dirección del viento	0.8
137691	7	Sololá	701	Sololá	4	Finca Santa Victoria	10	Octubre	2023-10-21T00:00:00	2024-11-08T20:00:00	1	Precipitación	0.4
137692	7	Sololá	701	Sololá	4	Finca Santa Victoria	10	Octubre	2023-10-21T00:00:00	2024-11-08T20:00:00	8	Radiación solar	0
137693	7	Sololá	701	Sololá	4	Finca Santa Victoria	10	Octubre	2023-10-21T00:00:00	2024-11-08T21:00:00	2	Temperatura media	15.6
137694	7	Sololá	701	Sololá	4	Finca Santa Victoria	10	Octubre	2023-10-21T00:00:00	2024-11-08T21:00:00	4	Temperatura máxima	15.6
137695	7	Sololá	701	Sololá	4	Finca Santa Victoria	10	Octubre	2023-10-21T00:00:00	2024-11-08T21:00:00	3	Temperatura mínima	15.6
137696	7	Sololá	701	Sololá	4	Finca Santa Victoria	10	Octubre	2023-10-21T00:00:00	2024-11-08T21:00:00	5	Humedad	95
137697	7	Sololá	701	Sololá	4	Finca Santa Victoria	10	Octubre	2023-10-21T00:00:00	2024-11-08T21:00:00	6	Velocidad del viento	1.6
137698	7	Sololá	701	Sololá	4	Finca Santa Victoria	10	Octubre	2023-10-21T00:00:00	2024-11-08T21:00:00	7	Dirección del viento	0.8
137699	7	Sololá	701	Sololá	4	Finca Santa Victoria	10	Octubre	2023-10-21T00:00:00	2024-11-08T21:00:00	1	Precipitación	0
137700	7	Sololá	701	Sololá	4	Finca Santa Victoria	10	Octubre	2023-10-21T00:00:00	2024-11-08T21:00:00	8	Radiación solar	0
137701	7	Sololá	701	Sololá	4	Finca Santa Victoria	10	Octubre	2023-10-21T00:00:00	2024-11-08T22:00:00	2	Temperatura media	15.7
137702	7	Sololá	701	Sololá	4	Finca Santa Victoria	10	Octubre	2023-10-21T00:00:00	2024-11-08T22:00:00	4	Temperatura máxima	15.9
137703	7	Sololá	701	Sololá	4	Finca Santa Victoria	10	Octubre	2023-10-21T00:00:00	2024-11-08T22:00:00	3	Temperatura mínima	15.7
137704	7	Sololá	701	Sololá	4	Finca Santa Victoria	10	Octubre	2023-10-21T00:00:00	2024-11-08T22:00:00	5	Humedad	95
137705	7	Sololá	701	Sololá	4	Finca Santa Victoria	10	Octubre	2023-10-21T00:00:00	2024-11-08T22:00:00	6	Velocidad del viento	1.6
137706	7	Sololá	701	Sololá	4	Finca Santa Victoria	10	Octubre	2023-10-21T00:00:00	2024-11-08T22:00:00	7	Dirección del viento	0.8
137707	7	Sololá	701	Sololá	4	Finca Santa Victoria	10	Octubre	2023-10-21T00:00:00	2024-11-08T22:00:00	1	Precipitación	0
137708	7	Sololá	701	Sololá	4	Finca Santa Victoria	10	Octubre	2023-10-21T00:00:00	2024-11-08T22:00:00	8	Radiación solar	0
137709	7	Sololá	701	Sololá	4	Finca Santa Victoria	10	Octubre	2023-10-21T00:00:00	2024-11-08T23:00:00	2	Temperatura media	15.8
137710	7	Sololá	701	Sololá	4	Finca Santa Victoria	10	Octubre	2023-10-21T00:00:00	2024-11-08T23:00:00	4	Temperatura máxima	15.9
137711	7	Sololá	701	Sololá	4	Finca Santa Victoria	10	Octubre	2023-10-21T00:00:00	2024-11-08T23:00:00	3	Temperatura mínima	15.6
137712	7	Sololá	701	Sololá	4	Finca Santa Victoria	10	Octubre	2023-10-21T00:00:00	2024-11-08T23:00:00	5	Humedad	94
137713	7	Sololá	701	Sololá	4	Finca Santa Victoria	10	Octubre	2023-10-21T00:00:00	2024-11-08T23:00:00	6	Velocidad del viento	3.2
137714	7	Sololá	701	Sololá	4	Finca Santa Victoria	10	Octubre	2023-10-21T00:00:00	2024-11-08T23:00:00	7	Dirección del viento	1.61
137715	7	Sololá	701	Sololá	4	Finca Santa Victoria	10	Octubre	2023-10-21T00:00:00	2024-11-08T23:00:00	1	Precipitación	0
137716	7	Sololá	701	Sololá	4	Finca Santa Victoria	10	Octubre	2023-10-21T00:00:00	2024-11-08T23:00:00	8	Radiación solar	0
137717	7	Sololá	701	Sololá	4	Finca Santa Victoria	10	Octubre	2023-10-22T00:00:00	2024-11-08T00:00:00	2	Temperatura media	15.5
137718	7	Sololá	701	Sololá	4	Finca Santa Victoria	10	Octubre	2023-10-22T00:00:00	2024-11-08T00:00:00	4	Temperatura máxima	15.8
137719	7	Sololá	701	Sololá	4	Finca Santa Victoria	10	Octubre	2023-10-22T00:00:00	2024-11-08T00:00:00	3	Temperatura mínima	15.5
137720	7	Sololá	701	Sololá	4	Finca Santa Victoria	10	Octubre	2023-10-22T00:00:00	2024-11-08T00:00:00	5	Humedad	96
137721	7	Sololá	701	Sololá	4	Finca Santa Victoria	10	Octubre	2023-10-22T00:00:00	2024-11-08T00:00:00	6	Velocidad del viento	0
137722	7	Sololá	701	Sololá	4	Finca Santa Victoria	10	Octubre	2023-10-22T00:00:00	2024-11-08T00:00:00	7	Dirección del viento	0
137723	7	Sololá	701	Sololá	4	Finca Santa Victoria	10	Octubre	2023-10-22T00:00:00	2024-11-08T00:00:00	1	Precipitación	0
137724	7	Sololá	701	Sololá	4	Finca Santa Victoria	10	Octubre	2023-10-22T00:00:00	2024-11-08T00:00:00	8	Radiación solar	0
137725	7	Sololá	701	Sololá	4	Finca Santa Victoria	10	Octubre	2023-10-22T00:00:00	2024-11-08T01:00:00	2	Temperatura media	15.3
137726	7	Sololá	701	Sololá	4	Finca Santa Victoria	10	Octubre	2023-10-22T00:00:00	2024-11-08T01:00:00	4	Temperatura máxima	15.6
137727	7	Sololá	701	Sololá	4	Finca Santa Victoria	10	Octubre	2023-10-22T00:00:00	2024-11-08T01:00:00	3	Temperatura mínima	15.3
137728	7	Sololá	701	Sololá	4	Finca Santa Victoria	10	Octubre	2023-10-22T00:00:00	2024-11-08T01:00:00	5	Humedad	96
137729	7	Sololá	701	Sololá	4	Finca Santa Victoria	10	Octubre	2023-10-22T00:00:00	2024-11-08T01:00:00	6	Velocidad del viento	0
137730	7	Sololá	701	Sololá	4	Finca Santa Victoria	10	Octubre	2023-10-22T00:00:00	2024-11-08T01:00:00	7	Dirección del viento	0
137731	7	Sololá	701	Sololá	4	Finca Santa Victoria	10	Octubre	2023-10-22T00:00:00	2024-11-08T01:00:00	1	Precipitación	0.2
137732	7	Sololá	701	Sololá	4	Finca Santa Victoria	10	Octubre	2023-10-22T00:00:00	2024-11-08T01:00:00	8	Radiación solar	0
137733	7	Sololá	701	Sololá	4	Finca Santa Victoria	10	Octubre	2023-10-22T00:00:00	2024-11-08T02:00:00	2	Temperatura media	15.3
137734	7	Sololá	701	Sololá	4	Finca Santa Victoria	10	Octubre	2023-10-22T00:00:00	2024-11-08T02:00:00	4	Temperatura máxima	15.3
137735	7	Sololá	701	Sololá	4	Finca Santa Victoria	10	Octubre	2023-10-22T00:00:00	2024-11-08T02:00:00	3	Temperatura mínima	15.3
137736	7	Sololá	701	Sololá	4	Finca Santa Victoria	10	Octubre	2023-10-22T00:00:00	2024-11-08T02:00:00	5	Humedad	97
137737	7	Sololá	701	Sololá	4	Finca Santa Victoria	10	Octubre	2023-10-22T00:00:00	2024-11-08T02:00:00	6	Velocidad del viento	0
137738	7	Sololá	701	Sololá	4	Finca Santa Victoria	10	Octubre	2023-10-22T00:00:00	2024-11-08T02:00:00	7	Dirección del viento	0
137739	7	Sololá	701	Sololá	4	Finca Santa Victoria	10	Octubre	2023-10-22T00:00:00	2024-11-08T02:00:00	1	Precipitación	0
137740	7	Sololá	701	Sololá	4	Finca Santa Victoria	10	Octubre	2023-10-22T00:00:00	2024-11-08T02:00:00	8	Radiación solar	0
137741	7	Sololá	701	Sololá	4	Finca Santa Victoria	10	Octubre	2023-10-22T00:00:00	2024-11-08T03:00:00	2	Temperatura media	14.8
137742	7	Sololá	701	Sololá	4	Finca Santa Victoria	10	Octubre	2023-10-22T00:00:00	2024-11-08T03:00:00	4	Temperatura máxima	15.3
137743	7	Sololá	701	Sololá	4	Finca Santa Victoria	10	Octubre	2023-10-22T00:00:00	2024-11-08T03:00:00	3	Temperatura mínima	14.8
137744	7	Sololá	701	Sololá	4	Finca Santa Victoria	10	Octubre	2023-10-22T00:00:00	2024-11-08T03:00:00	5	Humedad	97
137745	7	Sololá	701	Sololá	4	Finca Santa Victoria	10	Octubre	2023-10-22T00:00:00	2024-11-08T03:00:00	6	Velocidad del viento	0
137746	7	Sololá	701	Sololá	4	Finca Santa Victoria	10	Octubre	2023-10-22T00:00:00	2024-11-08T03:00:00	7	Dirección del viento	0
137747	7	Sololá	701	Sololá	4	Finca Santa Victoria	10	Octubre	2023-10-22T00:00:00	2024-11-08T03:00:00	1	Precipitación	0
137748	7	Sololá	701	Sololá	4	Finca Santa Victoria	10	Octubre	2023-10-22T00:00:00	2024-11-08T03:00:00	8	Radiación solar	0
137749	7	Sololá	701	Sololá	4	Finca Santa Victoria	10	Octubre	2023-10-22T00:00:00	2024-11-08T04:00:00	2	Temperatura media	13.9
137750	7	Sololá	701	Sololá	4	Finca Santa Victoria	10	Octubre	2023-10-22T00:00:00	2024-11-08T04:00:00	4	Temperatura máxima	14.2
137751	7	Sololá	701	Sololá	4	Finca Santa Victoria	10	Octubre	2023-10-22T00:00:00	2024-11-08T04:00:00	3	Temperatura mínima	13.9
137752	7	Sololá	701	Sololá	4	Finca Santa Victoria	10	Octubre	2023-10-22T00:00:00	2024-11-08T04:00:00	5	Humedad	98
137753	7	Sololá	701	Sololá	4	Finca Santa Victoria	10	Octubre	2023-10-22T00:00:00	2024-11-08T04:00:00	6	Velocidad del viento	0
137754	7	Sololá	701	Sololá	4	Finca Santa Victoria	10	Octubre	2023-10-22T00:00:00	2024-11-08T04:00:00	7	Dirección del viento	0
137755	7	Sololá	701	Sololá	4	Finca Santa Victoria	10	Octubre	2023-10-22T00:00:00	2024-11-08T04:00:00	1	Precipitación	0
137756	7	Sololá	701	Sololá	4	Finca Santa Victoria	10	Octubre	2023-10-22T00:00:00	2024-11-08T04:00:00	8	Radiación solar	0
137757	7	Sololá	701	Sololá	4	Finca Santa Victoria	10	Octubre	2023-10-22T00:00:00	2024-11-08T05:00:00	2	Temperatura media	13.4
137758	7	Sololá	701	Sololá	4	Finca Santa Victoria	10	Octubre	2023-10-22T00:00:00	2024-11-08T05:00:00	4	Temperatura máxima	13.8
137759	7	Sololá	701	Sololá	4	Finca Santa Victoria	10	Octubre	2023-10-22T00:00:00	2024-11-08T05:00:00	3	Temperatura mínima	13.4
137760	7	Sololá	701	Sololá	4	Finca Santa Victoria	10	Octubre	2023-10-22T00:00:00	2024-11-08T05:00:00	5	Humedad	98
137761	7	Sololá	701	Sololá	4	Finca Santa Victoria	10	Octubre	2023-10-22T00:00:00	2024-11-08T05:00:00	6	Velocidad del viento	0
137762	7	Sololá	701	Sololá	4	Finca Santa Victoria	10	Octubre	2023-10-22T00:00:00	2024-11-08T05:00:00	7	Dirección del viento	0
137763	7	Sololá	701	Sololá	4	Finca Santa Victoria	10	Octubre	2023-10-22T00:00:00	2024-11-08T05:00:00	1	Precipitación	0
137764	7	Sololá	701	Sololá	4	Finca Santa Victoria	10	Octubre	2023-10-22T00:00:00	2024-11-08T05:00:00	8	Radiación solar	0
137765	7	Sololá	701	Sololá	4	Finca Santa Victoria	10	Octubre	2023-10-22T00:00:00	2024-11-08T06:00:00	2	Temperatura media	13.1
137766	7	Sololá	701	Sololá	4	Finca Santa Victoria	10	Octubre	2023-10-22T00:00:00	2024-11-08T06:00:00	4	Temperatura máxima	13.3
137767	7	Sololá	701	Sololá	4	Finca Santa Victoria	10	Octubre	2023-10-22T00:00:00	2024-11-08T06:00:00	3	Temperatura mínima	13
137768	7	Sololá	701	Sololá	4	Finca Santa Victoria	10	Octubre	2023-10-22T00:00:00	2024-11-08T06:00:00	5	Humedad	98
137769	7	Sololá	701	Sololá	4	Finca Santa Victoria	10	Octubre	2023-10-22T00:00:00	2024-11-08T06:00:00	6	Velocidad del viento	0
137770	7	Sololá	701	Sololá	4	Finca Santa Victoria	10	Octubre	2023-10-22T00:00:00	2024-11-08T06:00:00	7	Dirección del viento	0
137771	7	Sololá	701	Sololá	4	Finca Santa Victoria	10	Octubre	2023-10-22T00:00:00	2024-11-08T06:00:00	1	Precipitación	0
137772	7	Sololá	701	Sololá	4	Finca Santa Victoria	10	Octubre	2023-10-22T00:00:00	2024-11-08T06:00:00	8	Radiación solar	0
137773	7	Sololá	701	Sololá	4	Finca Santa Victoria	10	Octubre	2023-10-22T00:00:00	2024-11-08T07:00:00	2	Temperatura media	14.1
137774	7	Sololá	701	Sololá	4	Finca Santa Victoria	10	Octubre	2023-10-22T00:00:00	2024-11-08T07:00:00	4	Temperatura máxima	14.1
137775	7	Sololá	701	Sololá	4	Finca Santa Victoria	10	Octubre	2023-10-22T00:00:00	2024-11-08T07:00:00	3	Temperatura mínima	13.2
137776	7	Sololá	701	Sololá	4	Finca Santa Victoria	10	Octubre	2023-10-22T00:00:00	2024-11-08T07:00:00	5	Humedad	97
137777	7	Sololá	701	Sololá	4	Finca Santa Victoria	10	Octubre	2023-10-22T00:00:00	2024-11-08T07:00:00	6	Velocidad del viento	1.6
137778	7	Sololá	701	Sololá	4	Finca Santa Victoria	10	Octubre	2023-10-22T00:00:00	2024-11-08T07:00:00	7	Dirección del viento	0.8
137779	7	Sololá	701	Sololá	4	Finca Santa Victoria	10	Octubre	2023-10-22T00:00:00	2024-11-08T07:00:00	1	Precipitación	0
137780	7	Sololá	701	Sololá	4	Finca Santa Victoria	10	Octubre	2023-10-22T00:00:00	2024-11-08T07:00:00	8	Radiación solar	29
137781	7	Sololá	701	Sololá	4	Finca Santa Victoria	10	Octubre	2023-10-22T00:00:00	2024-11-08T08:00:00	2	Temperatura media	18.2
137782	7	Sololá	701	Sololá	4	Finca Santa Victoria	10	Octubre	2023-10-22T00:00:00	2024-11-08T08:00:00	4	Temperatura máxima	18.2
137783	7	Sololá	701	Sololá	4	Finca Santa Victoria	10	Octubre	2023-10-22T00:00:00	2024-11-08T08:00:00	3	Temperatura mínima	16.2
137784	7	Sololá	701	Sololá	4	Finca Santa Victoria	10	Octubre	2023-10-22T00:00:00	2024-11-08T08:00:00	5	Humedad	82
137785	7	Sololá	701	Sololá	4	Finca Santa Victoria	10	Octubre	2023-10-22T00:00:00	2024-11-08T08:00:00	6	Velocidad del viento	0
137786	7	Sololá	701	Sololá	4	Finca Santa Victoria	10	Octubre	2023-10-22T00:00:00	2024-11-08T08:00:00	7	Dirección del viento	0
137787	7	Sololá	701	Sololá	4	Finca Santa Victoria	10	Octubre	2023-10-22T00:00:00	2024-11-08T08:00:00	1	Precipitación	0
137788	7	Sololá	701	Sololá	4	Finca Santa Victoria	10	Octubre	2023-10-22T00:00:00	2024-11-08T08:00:00	8	Radiación solar	243
137789	7	Sololá	701	Sololá	4	Finca Santa Victoria	10	Octubre	2023-10-22T00:00:00	2024-11-08T09:00:00	2	Temperatura media	20.8
137790	7	Sololá	701	Sololá	4	Finca Santa Victoria	10	Octubre	2023-10-22T00:00:00	2024-11-08T09:00:00	4	Temperatura máxima	20.8
137791	7	Sololá	701	Sololá	4	Finca Santa Victoria	10	Octubre	2023-10-22T00:00:00	2024-11-08T09:00:00	3	Temperatura mínima	19.5
137792	7	Sololá	701	Sololá	4	Finca Santa Victoria	10	Octubre	2023-10-22T00:00:00	2024-11-08T09:00:00	5	Humedad	77
137793	7	Sololá	701	Sololá	4	Finca Santa Victoria	10	Octubre	2023-10-22T00:00:00	2024-11-08T09:00:00	6	Velocidad del viento	3.2
137794	7	Sololá	701	Sololá	4	Finca Santa Victoria	10	Octubre	2023-10-22T00:00:00	2024-11-08T09:00:00	7	Dirección del viento	1.61
137795	7	Sololá	701	Sololá	4	Finca Santa Victoria	10	Octubre	2023-10-22T00:00:00	2024-11-08T09:00:00	1	Precipitación	0
137796	7	Sololá	701	Sololá	4	Finca Santa Victoria	10	Octubre	2023-10-22T00:00:00	2024-11-08T09:00:00	8	Radiación solar	523
137797	7	Sololá	701	Sololá	4	Finca Santa Victoria	10	Octubre	2023-10-22T00:00:00	2024-11-08T10:00:00	2	Temperatura media	21.6
137798	7	Sololá	701	Sololá	4	Finca Santa Victoria	10	Octubre	2023-10-22T00:00:00	2024-11-08T10:00:00	4	Temperatura máxima	22.1
137799	7	Sololá	701	Sololá	4	Finca Santa Victoria	10	Octubre	2023-10-22T00:00:00	2024-11-08T10:00:00	3	Temperatura mínima	21.4
137800	7	Sololá	701	Sololá	4	Finca Santa Victoria	10	Octubre	2023-10-22T00:00:00	2024-11-08T10:00:00	5	Humedad	72
137801	7	Sololá	701	Sololá	4	Finca Santa Victoria	10	Octubre	2023-10-22T00:00:00	2024-11-08T10:00:00	6	Velocidad del viento	4.8
137802	7	Sololá	701	Sololá	4	Finca Santa Victoria	10	Octubre	2023-10-22T00:00:00	2024-11-08T10:00:00	7	Dirección del viento	2.41
137803	7	Sololá	701	Sololá	4	Finca Santa Victoria	10	Octubre	2023-10-22T00:00:00	2024-11-08T10:00:00	1	Precipitación	0
137804	7	Sololá	701	Sololá	4	Finca Santa Victoria	10	Octubre	2023-10-22T00:00:00	2024-11-08T10:00:00	8	Radiación solar	723
137805	7	Sololá	701	Sololá	4	Finca Santa Victoria	10	Octubre	2023-10-22T00:00:00	2024-11-08T11:00:00	2	Temperatura media	20.1
137806	7	Sololá	701	Sololá	4	Finca Santa Victoria	10	Octubre	2023-10-22T00:00:00	2024-11-08T11:00:00	4	Temperatura máxima	21.2
137807	7	Sololá	701	Sololá	4	Finca Santa Victoria	10	Octubre	2023-10-22T00:00:00	2024-11-08T11:00:00	3	Temperatura mínima	20.1
137808	7	Sololá	701	Sololá	4	Finca Santa Victoria	10	Octubre	2023-10-22T00:00:00	2024-11-08T11:00:00	5	Humedad	83
137809	7	Sololá	701	Sololá	4	Finca Santa Victoria	10	Octubre	2023-10-22T00:00:00	2024-11-08T11:00:00	6	Velocidad del viento	11.3
137810	7	Sololá	701	Sololá	4	Finca Santa Victoria	10	Octubre	2023-10-22T00:00:00	2024-11-08T11:00:00	7	Dirección del viento	5.63
137811	7	Sololá	701	Sololá	4	Finca Santa Victoria	10	Octubre	2023-10-22T00:00:00	2024-11-08T11:00:00	1	Precipitación	0
137812	7	Sololá	701	Sololá	4	Finca Santa Victoria	10	Octubre	2023-10-22T00:00:00	2024-11-08T11:00:00	8	Radiación solar	744
137813	7	Sololá	701	Sololá	4	Finca Santa Victoria	10	Octubre	2023-10-22T00:00:00	2024-11-08T12:00:00	2	Temperatura media	20.6
137814	7	Sololá	701	Sololá	4	Finca Santa Victoria	10	Octubre	2023-10-22T00:00:00	2024-11-08T12:00:00	4	Temperatura máxima	20.6
137815	7	Sololá	701	Sololá	4	Finca Santa Victoria	10	Octubre	2023-10-22T00:00:00	2024-11-08T12:00:00	3	Temperatura mínima	20.2
137816	7	Sololá	701	Sololá	4	Finca Santa Victoria	10	Octubre	2023-10-22T00:00:00	2024-11-08T12:00:00	5	Humedad	79
137817	7	Sololá	701	Sololá	4	Finca Santa Victoria	10	Octubre	2023-10-22T00:00:00	2024-11-08T12:00:00	6	Velocidad del viento	9.7
137818	7	Sololá	701	Sololá	4	Finca Santa Victoria	10	Octubre	2023-10-22T00:00:00	2024-11-08T12:00:00	7	Dirección del viento	4.83
137819	7	Sololá	701	Sololá	4	Finca Santa Victoria	10	Octubre	2023-10-22T00:00:00	2024-11-08T12:00:00	1	Precipitación	0
137820	7	Sololá	701	Sololá	4	Finca Santa Victoria	10	Octubre	2023-10-22T00:00:00	2024-11-08T12:00:00	8	Radiación solar	318
137821	7	Sololá	701	Sololá	4	Finca Santa Victoria	10	Octubre	2023-10-22T00:00:00	2024-11-08T13:00:00	2	Temperatura media	21.1
137822	7	Sololá	701	Sololá	4	Finca Santa Victoria	10	Octubre	2023-10-22T00:00:00	2024-11-08T13:00:00	4	Temperatura máxima	21.5
137823	7	Sololá	701	Sololá	4	Finca Santa Victoria	10	Octubre	2023-10-22T00:00:00	2024-11-08T13:00:00	3	Temperatura mínima	20.7
137824	7	Sololá	701	Sololá	4	Finca Santa Victoria	10	Octubre	2023-10-22T00:00:00	2024-11-08T13:00:00	5	Humedad	79
137825	7	Sololá	701	Sololá	4	Finca Santa Victoria	10	Octubre	2023-10-22T00:00:00	2024-11-08T13:00:00	6	Velocidad del viento	8
137826	7	Sololá	701	Sololá	4	Finca Santa Victoria	10	Octubre	2023-10-22T00:00:00	2024-11-08T13:00:00	7	Dirección del viento	4.02
137827	7	Sololá	701	Sololá	4	Finca Santa Victoria	10	Octubre	2023-10-22T00:00:00	2024-11-08T13:00:00	1	Precipitación	0
137828	7	Sololá	701	Sololá	4	Finca Santa Victoria	10	Octubre	2023-10-22T00:00:00	2024-11-08T13:00:00	8	Radiación solar	168
137829	7	Sololá	701	Sololá	4	Finca Santa Victoria	10	Octubre	2023-10-22T00:00:00	2024-11-08T14:00:00	2	Temperatura media	18.7
137830	7	Sololá	701	Sololá	4	Finca Santa Victoria	10	Octubre	2023-10-22T00:00:00	2024-11-08T14:00:00	4	Temperatura máxima	21.2
137831	7	Sololá	701	Sololá	4	Finca Santa Victoria	10	Octubre	2023-10-22T00:00:00	2024-11-08T14:00:00	3	Temperatura mínima	18.7
137832	7	Sololá	701	Sololá	4	Finca Santa Victoria	10	Octubre	2023-10-22T00:00:00	2024-11-08T14:00:00	5	Humedad	92
137833	7	Sololá	701	Sololá	4	Finca Santa Victoria	10	Octubre	2023-10-22T00:00:00	2024-11-08T14:00:00	6	Velocidad del viento	11.3
137834	7	Sololá	701	Sololá	4	Finca Santa Victoria	10	Octubre	2023-10-22T00:00:00	2024-11-08T14:00:00	7	Dirección del viento	5.63
137835	7	Sololá	701	Sololá	4	Finca Santa Victoria	10	Octubre	2023-10-22T00:00:00	2024-11-08T14:00:00	1	Precipitación	0
137836	7	Sololá	701	Sololá	4	Finca Santa Victoria	10	Octubre	2023-10-22T00:00:00	2024-11-08T14:00:00	8	Radiación solar	50
137837	7	Sololá	701	Sololá	4	Finca Santa Victoria	10	Octubre	2023-10-22T00:00:00	2024-11-08T15:00:00	2	Temperatura media	17.2
137838	7	Sololá	701	Sololá	4	Finca Santa Victoria	10	Octubre	2023-10-22T00:00:00	2024-11-08T15:00:00	4	Temperatura máxima	17.6
137839	7	Sololá	701	Sololá	4	Finca Santa Victoria	10	Octubre	2023-10-22T00:00:00	2024-11-08T15:00:00	3	Temperatura mínima	16.9
137840	7	Sololá	701	Sololá	4	Finca Santa Victoria	10	Octubre	2023-10-22T00:00:00	2024-11-08T15:00:00	5	Humedad	96
137841	7	Sololá	701	Sololá	4	Finca Santa Victoria	10	Octubre	2023-10-22T00:00:00	2024-11-08T15:00:00	6	Velocidad del viento	3.2
137842	7	Sololá	701	Sololá	4	Finca Santa Victoria	10	Octubre	2023-10-22T00:00:00	2024-11-08T15:00:00	7	Dirección del viento	1.61
137843	7	Sololá	701	Sololá	4	Finca Santa Victoria	10	Octubre	2023-10-22T00:00:00	2024-11-08T15:00:00	1	Precipitación	0
137844	7	Sololá	701	Sololá	4	Finca Santa Victoria	10	Octubre	2023-10-22T00:00:00	2024-11-08T15:00:00	8	Radiación solar	56
137845	7	Sololá	701	Sololá	4	Finca Santa Victoria	10	Octubre	2023-10-22T00:00:00	2024-11-08T16:00:00	2	Temperatura media	18.4
137846	7	Sololá	701	Sololá	4	Finca Santa Victoria	10	Octubre	2023-10-22T00:00:00	2024-11-08T16:00:00	4	Temperatura máxima	18.7
137847	7	Sololá	701	Sololá	4	Finca Santa Victoria	10	Octubre	2023-10-22T00:00:00	2024-11-08T16:00:00	3	Temperatura mínima	17.7
137848	7	Sololá	701	Sololá	4	Finca Santa Victoria	10	Octubre	2023-10-22T00:00:00	2024-11-08T16:00:00	5	Humedad	92
137849	7	Sololá	701	Sololá	4	Finca Santa Victoria	10	Octubre	2023-10-22T00:00:00	2024-11-08T16:00:00	6	Velocidad del viento	1.6
137850	7	Sololá	701	Sololá	4	Finca Santa Victoria	10	Octubre	2023-10-22T00:00:00	2024-11-08T16:00:00	7	Dirección del viento	0.8
137851	7	Sololá	701	Sololá	4	Finca Santa Victoria	10	Octubre	2023-10-22T00:00:00	2024-11-08T16:00:00	1	Precipitación	0.2
137852	7	Sololá	701	Sololá	4	Finca Santa Victoria	10	Octubre	2023-10-22T00:00:00	2024-11-08T16:00:00	8	Radiación solar	55
137853	7	Sololá	701	Sololá	4	Finca Santa Victoria	10	Octubre	2023-10-22T00:00:00	2024-11-08T17:00:00	2	Temperatura media	17.9
137854	7	Sololá	701	Sololá	4	Finca Santa Victoria	10	Octubre	2023-10-22T00:00:00	2024-11-08T17:00:00	4	Temperatura máxima	18.3
137855	7	Sololá	701	Sololá	4	Finca Santa Victoria	10	Octubre	2023-10-22T00:00:00	2024-11-08T17:00:00	3	Temperatura mínima	17.9
137856	7	Sololá	701	Sololá	4	Finca Santa Victoria	10	Octubre	2023-10-22T00:00:00	2024-11-08T17:00:00	5	Humedad	93
137857	7	Sololá	701	Sololá	4	Finca Santa Victoria	10	Octubre	2023-10-22T00:00:00	2024-11-08T17:00:00	6	Velocidad del viento	0
137858	7	Sololá	701	Sololá	4	Finca Santa Victoria	10	Octubre	2023-10-22T00:00:00	2024-11-08T17:00:00	7	Dirección del viento	0
137859	7	Sololá	701	Sololá	4	Finca Santa Victoria	10	Octubre	2023-10-22T00:00:00	2024-11-08T17:00:00	1	Precipitación	0
137860	7	Sololá	701	Sololá	4	Finca Santa Victoria	10	Octubre	2023-10-22T00:00:00	2024-11-08T17:00:00	8	Radiación solar	18
137861	7	Sololá	701	Sololá	4	Finca Santa Victoria	10	Octubre	2023-10-22T00:00:00	2024-11-08T18:00:00	2	Temperatura media	16.8
137862	7	Sololá	701	Sololá	4	Finca Santa Victoria	10	Octubre	2023-10-22T00:00:00	2024-11-08T18:00:00	4	Temperatura máxima	17.2
137863	7	Sololá	701	Sololá	4	Finca Santa Victoria	10	Octubre	2023-10-22T00:00:00	2024-11-08T18:00:00	3	Temperatura mínima	16.8
137864	7	Sololá	701	Sololá	4	Finca Santa Victoria	10	Octubre	2023-10-22T00:00:00	2024-11-08T18:00:00	5	Humedad	96
137865	7	Sololá	701	Sololá	4	Finca Santa Victoria	10	Octubre	2023-10-22T00:00:00	2024-11-08T18:00:00	6	Velocidad del viento	1.6
137866	7	Sololá	701	Sololá	4	Finca Santa Victoria	10	Octubre	2023-10-22T00:00:00	2024-11-08T18:00:00	7	Dirección del viento	0.8
137867	7	Sololá	701	Sololá	4	Finca Santa Victoria	10	Octubre	2023-10-22T00:00:00	2024-11-08T18:00:00	1	Precipitación	1
137868	7	Sololá	701	Sololá	4	Finca Santa Victoria	10	Octubre	2023-10-22T00:00:00	2024-11-08T18:00:00	8	Radiación solar	3
137869	7	Sololá	701	Sololá	4	Finca Santa Victoria	10	Octubre	2023-10-22T00:00:00	2024-11-08T19:00:00	2	Temperatura media	16.3
137870	7	Sololá	701	Sololá	4	Finca Santa Victoria	10	Octubre	2023-10-22T00:00:00	2024-11-08T19:00:00	4	Temperatura máxima	16.4
137871	7	Sololá	701	Sololá	4	Finca Santa Victoria	10	Octubre	2023-10-22T00:00:00	2024-11-08T19:00:00	3	Temperatura mínima	16.3
137872	7	Sololá	701	Sololá	4	Finca Santa Victoria	10	Octubre	2023-10-22T00:00:00	2024-11-08T19:00:00	5	Humedad	97
137873	7	Sololá	701	Sololá	4	Finca Santa Victoria	10	Octubre	2023-10-22T00:00:00	2024-11-08T19:00:00	6	Velocidad del viento	0
137874	7	Sololá	701	Sololá	4	Finca Santa Victoria	10	Octubre	2023-10-22T00:00:00	2024-11-08T19:00:00	7	Dirección del viento	0
137875	7	Sololá	701	Sololá	4	Finca Santa Victoria	10	Octubre	2023-10-22T00:00:00	2024-11-08T19:00:00	1	Precipitación	2.4
137876	7	Sololá	701	Sololá	4	Finca Santa Victoria	10	Octubre	2023-10-22T00:00:00	2024-11-08T19:00:00	8	Radiación solar	0
137877	7	Sololá	701	Sololá	4	Finca Santa Victoria	10	Octubre	2023-10-22T00:00:00	2024-11-08T20:00:00	2	Temperatura media	15.8
137878	7	Sololá	701	Sololá	4	Finca Santa Victoria	10	Octubre	2023-10-22T00:00:00	2024-11-08T20:00:00	4	Temperatura máxima	16
137879	7	Sololá	701	Sololá	4	Finca Santa Victoria	10	Octubre	2023-10-22T00:00:00	2024-11-08T20:00:00	3	Temperatura mínima	15.8
137880	7	Sololá	701	Sololá	4	Finca Santa Victoria	10	Octubre	2023-10-22T00:00:00	2024-11-08T20:00:00	5	Humedad	97
137881	7	Sololá	701	Sololá	4	Finca Santa Victoria	10	Octubre	2023-10-22T00:00:00	2024-11-08T20:00:00	6	Velocidad del viento	0
137882	7	Sololá	701	Sololá	4	Finca Santa Victoria	10	Octubre	2023-10-22T00:00:00	2024-11-08T20:00:00	7	Dirección del viento	0
137883	7	Sololá	701	Sololá	4	Finca Santa Victoria	10	Octubre	2023-10-22T00:00:00	2024-11-08T20:00:00	1	Precipitación	0.6
137884	7	Sololá	701	Sololá	4	Finca Santa Victoria	10	Octubre	2023-10-22T00:00:00	2024-11-08T20:00:00	8	Radiación solar	0
137885	7	Sololá	701	Sololá	4	Finca Santa Victoria	10	Octubre	2023-10-22T00:00:00	2024-11-08T21:00:00	2	Temperatura media	15.8
137886	7	Sololá	701	Sololá	4	Finca Santa Victoria	10	Octubre	2023-10-22T00:00:00	2024-11-08T21:00:00	4	Temperatura máxima	15.9
137887	7	Sololá	701	Sololá	4	Finca Santa Victoria	10	Octubre	2023-10-22T00:00:00	2024-11-08T21:00:00	3	Temperatura mínima	15.7
137888	7	Sololá	701	Sololá	4	Finca Santa Victoria	10	Octubre	2023-10-22T00:00:00	2024-11-08T21:00:00	5	Humedad	97
137889	7	Sololá	701	Sololá	4	Finca Santa Victoria	10	Octubre	2023-10-22T00:00:00	2024-11-08T21:00:00	6	Velocidad del viento	0
137890	7	Sololá	701	Sololá	4	Finca Santa Victoria	10	Octubre	2023-10-22T00:00:00	2024-11-08T21:00:00	7	Dirección del viento	0
137891	7	Sololá	701	Sololá	4	Finca Santa Victoria	10	Octubre	2023-10-22T00:00:00	2024-11-08T21:00:00	1	Precipitación	0
137892	7	Sololá	701	Sololá	4	Finca Santa Victoria	10	Octubre	2023-10-22T00:00:00	2024-11-08T21:00:00	8	Radiación solar	0
137893	7	Sololá	701	Sololá	4	Finca Santa Victoria	10	Octubre	2023-10-22T00:00:00	2024-11-08T22:00:00	2	Temperatura media	15.8
137894	7	Sololá	701	Sololá	4	Finca Santa Victoria	10	Octubre	2023-10-22T00:00:00	2024-11-08T22:00:00	4	Temperatura máxima	16
137895	7	Sololá	701	Sololá	4	Finca Santa Victoria	10	Octubre	2023-10-22T00:00:00	2024-11-08T22:00:00	3	Temperatura mínima	15.8
137896	7	Sololá	701	Sololá	4	Finca Santa Victoria	10	Octubre	2023-10-22T00:00:00	2024-11-08T22:00:00	5	Humedad	98
137897	7	Sololá	701	Sololá	4	Finca Santa Victoria	10	Octubre	2023-10-22T00:00:00	2024-11-08T22:00:00	6	Velocidad del viento	0
137898	7	Sololá	701	Sololá	4	Finca Santa Victoria	10	Octubre	2023-10-22T00:00:00	2024-11-08T22:00:00	7	Dirección del viento	0
137899	7	Sololá	701	Sololá	4	Finca Santa Victoria	10	Octubre	2023-10-22T00:00:00	2024-11-08T22:00:00	1	Precipitación	0
137900	7	Sololá	701	Sololá	4	Finca Santa Victoria	10	Octubre	2023-10-22T00:00:00	2024-11-08T22:00:00	8	Radiación solar	0
137901	7	Sololá	701	Sololá	4	Finca Santa Victoria	10	Octubre	2023-10-22T00:00:00	2024-11-08T23:00:00	2	Temperatura media	15.1
137902	7	Sololá	701	Sololá	4	Finca Santa Victoria	10	Octubre	2023-10-22T00:00:00	2024-11-08T23:00:00	4	Temperatura máxima	15.4
137903	7	Sololá	701	Sololá	4	Finca Santa Victoria	10	Octubre	2023-10-22T00:00:00	2024-11-08T23:00:00	3	Temperatura mínima	15.1
137904	7	Sololá	701	Sololá	4	Finca Santa Victoria	10	Octubre	2023-10-22T00:00:00	2024-11-08T23:00:00	5	Humedad	97
137905	7	Sololá	701	Sololá	4	Finca Santa Victoria	10	Octubre	2023-10-22T00:00:00	2024-11-08T23:00:00	6	Velocidad del viento	0
137906	7	Sololá	701	Sololá	4	Finca Santa Victoria	10	Octubre	2023-10-22T00:00:00	2024-11-08T23:00:00	7	Dirección del viento	0
137907	7	Sololá	701	Sololá	4	Finca Santa Victoria	10	Octubre	2023-10-22T00:00:00	2024-11-08T23:00:00	1	Precipitación	0
137908	7	Sololá	701	Sololá	4	Finca Santa Victoria	10	Octubre	2023-10-22T00:00:00	2024-11-08T23:00:00	8	Radiación solar	0
137909	7	Sololá	701	Sololá	4	Finca Santa Victoria	10	Octubre	2023-10-23T00:00:00	2024-11-08T00:00:00	2	Temperatura media	14.4
137910	7	Sololá	701	Sololá	4	Finca Santa Victoria	10	Octubre	2023-10-23T00:00:00	2024-11-08T00:00:00	4	Temperatura máxima	14.7
137911	7	Sololá	701	Sololá	4	Finca Santa Victoria	10	Octubre	2023-10-23T00:00:00	2024-11-08T00:00:00	3	Temperatura mínima	14.3
137912	7	Sololá	701	Sololá	4	Finca Santa Victoria	10	Octubre	2023-10-23T00:00:00	2024-11-08T00:00:00	5	Humedad	98
137913	7	Sololá	701	Sololá	4	Finca Santa Victoria	10	Octubre	2023-10-23T00:00:00	2024-11-08T00:00:00	6	Velocidad del viento	0
137914	7	Sololá	701	Sololá	4	Finca Santa Victoria	10	Octubre	2023-10-23T00:00:00	2024-11-08T00:00:00	7	Dirección del viento	0
137915	7	Sololá	701	Sololá	4	Finca Santa Victoria	10	Octubre	2023-10-23T00:00:00	2024-11-08T00:00:00	1	Precipitación	0
137916	7	Sololá	701	Sololá	4	Finca Santa Victoria	10	Octubre	2023-10-23T00:00:00	2024-11-08T00:00:00	8	Radiación solar	0
137917	7	Sololá	701	Sololá	4	Finca Santa Victoria	10	Octubre	2023-10-23T00:00:00	2024-11-08T01:00:00	2	Temperatura media	14.9
137918	7	Sololá	701	Sololá	4	Finca Santa Victoria	10	Octubre	2023-10-23T00:00:00	2024-11-08T01:00:00	4	Temperatura máxima	15
137919	7	Sololá	701	Sololá	4	Finca Santa Victoria	10	Octubre	2023-10-23T00:00:00	2024-11-08T01:00:00	3	Temperatura mínima	14.7
137920	7	Sololá	701	Sololá	4	Finca Santa Victoria	10	Octubre	2023-10-23T00:00:00	2024-11-08T01:00:00	5	Humedad	95
137921	7	Sololá	701	Sololá	4	Finca Santa Victoria	10	Octubre	2023-10-23T00:00:00	2024-11-08T01:00:00	6	Velocidad del viento	1.6
137922	7	Sololá	701	Sololá	4	Finca Santa Victoria	10	Octubre	2023-10-23T00:00:00	2024-11-08T01:00:00	7	Dirección del viento	0.8
137923	7	Sololá	701	Sololá	4	Finca Santa Victoria	10	Octubre	2023-10-23T00:00:00	2024-11-08T01:00:00	1	Precipitación	0
137924	7	Sololá	701	Sololá	4	Finca Santa Victoria	10	Octubre	2023-10-23T00:00:00	2024-11-08T01:00:00	8	Radiación solar	0
137925	7	Sololá	701	Sololá	4	Finca Santa Victoria	10	Octubre	2023-10-23T00:00:00	2024-11-08T02:00:00	2	Temperatura media	14.7
137926	7	Sololá	701	Sololá	4	Finca Santa Victoria	10	Octubre	2023-10-23T00:00:00	2024-11-08T02:00:00	4	Temperatura máxima	15.1
137927	7	Sololá	701	Sololá	4	Finca Santa Victoria	10	Octubre	2023-10-23T00:00:00	2024-11-08T02:00:00	3	Temperatura mínima	14.7
137928	7	Sololá	701	Sololá	4	Finca Santa Victoria	10	Octubre	2023-10-23T00:00:00	2024-11-08T02:00:00	5	Humedad	96
137929	7	Sololá	701	Sololá	4	Finca Santa Victoria	10	Octubre	2023-10-23T00:00:00	2024-11-08T02:00:00	6	Velocidad del viento	4.8
137930	7	Sololá	701	Sololá	4	Finca Santa Victoria	10	Octubre	2023-10-23T00:00:00	2024-11-08T02:00:00	7	Dirección del viento	2.41
137931	7	Sololá	701	Sololá	4	Finca Santa Victoria	10	Octubre	2023-10-23T00:00:00	2024-11-08T02:00:00	1	Precipitación	0
137932	7	Sololá	701	Sololá	4	Finca Santa Victoria	10	Octubre	2023-10-23T00:00:00	2024-11-08T02:00:00	8	Radiación solar	0
137933	7	Sololá	701	Sololá	4	Finca Santa Victoria	10	Octubre	2023-10-23T00:00:00	2024-11-08T03:00:00	2	Temperatura media	14.7
137934	7	Sololá	701	Sololá	4	Finca Santa Victoria	10	Octubre	2023-10-23T00:00:00	2024-11-08T03:00:00	4	Temperatura máxima	14.8
137935	7	Sololá	701	Sololá	4	Finca Santa Victoria	10	Octubre	2023-10-23T00:00:00	2024-11-08T03:00:00	3	Temperatura mínima	14.7
137936	7	Sololá	701	Sololá	4	Finca Santa Victoria	10	Octubre	2023-10-23T00:00:00	2024-11-08T03:00:00	5	Humedad	94
137937	7	Sololá	701	Sololá	4	Finca Santa Victoria	10	Octubre	2023-10-23T00:00:00	2024-11-08T03:00:00	6	Velocidad del viento	3.2
137938	7	Sololá	701	Sololá	4	Finca Santa Victoria	10	Octubre	2023-10-23T00:00:00	2024-11-08T03:00:00	7	Dirección del viento	1.61
137939	7	Sololá	701	Sololá	4	Finca Santa Victoria	10	Octubre	2023-10-23T00:00:00	2024-11-08T03:00:00	1	Precipitación	0
137940	7	Sololá	701	Sololá	4	Finca Santa Victoria	10	Octubre	2023-10-23T00:00:00	2024-11-08T03:00:00	8	Radiación solar	0
137941	7	Sololá	701	Sololá	4	Finca Santa Victoria	10	Octubre	2023-10-23T00:00:00	2024-11-08T04:00:00	2	Temperatura media	14.7
137942	7	Sololá	701	Sololá	4	Finca Santa Victoria	10	Octubre	2023-10-23T00:00:00	2024-11-08T04:00:00	4	Temperatura máxima	14.8
137943	7	Sololá	701	Sololá	4	Finca Santa Victoria	10	Octubre	2023-10-23T00:00:00	2024-11-08T04:00:00	3	Temperatura mínima	14.7
137944	7	Sololá	701	Sololá	4	Finca Santa Victoria	10	Octubre	2023-10-23T00:00:00	2024-11-08T04:00:00	5	Humedad	93
137945	7	Sololá	701	Sololá	4	Finca Santa Victoria	10	Octubre	2023-10-23T00:00:00	2024-11-08T04:00:00	6	Velocidad del viento	1.6
137946	7	Sololá	701	Sololá	4	Finca Santa Victoria	10	Octubre	2023-10-23T00:00:00	2024-11-08T04:00:00	7	Dirección del viento	0.8
137947	7	Sololá	701	Sololá	4	Finca Santa Victoria	10	Octubre	2023-10-23T00:00:00	2024-11-08T04:00:00	1	Precipitación	0
137948	7	Sololá	701	Sololá	4	Finca Santa Victoria	10	Octubre	2023-10-23T00:00:00	2024-11-08T04:00:00	8	Radiación solar	0
137949	7	Sololá	701	Sololá	4	Finca Santa Victoria	10	Octubre	2023-10-23T00:00:00	2024-11-08T05:00:00	2	Temperatura media	13.7
137950	7	Sololá	701	Sololá	4	Finca Santa Victoria	10	Octubre	2023-10-23T00:00:00	2024-11-08T05:00:00	4	Temperatura máxima	14.3
137951	7	Sololá	701	Sololá	4	Finca Santa Victoria	10	Octubre	2023-10-23T00:00:00	2024-11-08T05:00:00	3	Temperatura mínima	13.7
137952	7	Sololá	701	Sololá	4	Finca Santa Victoria	10	Octubre	2023-10-23T00:00:00	2024-11-08T05:00:00	5	Humedad	95
137953	7	Sololá	701	Sololá	4	Finca Santa Victoria	10	Octubre	2023-10-23T00:00:00	2024-11-08T05:00:00	6	Velocidad del viento	1.6
137954	7	Sololá	701	Sololá	4	Finca Santa Victoria	10	Octubre	2023-10-23T00:00:00	2024-11-08T05:00:00	7	Dirección del viento	0.8
137955	7	Sololá	701	Sololá	4	Finca Santa Victoria	10	Octubre	2023-10-23T00:00:00	2024-11-08T05:00:00	1	Precipitación	0
137956	7	Sololá	701	Sololá	4	Finca Santa Victoria	10	Octubre	2023-10-23T00:00:00	2024-11-08T05:00:00	8	Radiación solar	0
137957	7	Sololá	701	Sololá	4	Finca Santa Victoria	10	Octubre	2023-10-23T00:00:00	2024-11-08T06:00:00	2	Temperatura media	13.9
137958	7	Sololá	701	Sololá	4	Finca Santa Victoria	10	Octubre	2023-10-23T00:00:00	2024-11-08T06:00:00	4	Temperatura máxima	14.1
137959	7	Sololá	701	Sololá	4	Finca Santa Victoria	10	Octubre	2023-10-23T00:00:00	2024-11-08T06:00:00	3	Temperatura mínima	13.8
137960	7	Sololá	701	Sololá	4	Finca Santa Victoria	10	Octubre	2023-10-23T00:00:00	2024-11-08T06:00:00	5	Humedad	95
137961	7	Sololá	701	Sololá	4	Finca Santa Victoria	10	Octubre	2023-10-23T00:00:00	2024-11-08T06:00:00	6	Velocidad del viento	8
137962	7	Sololá	701	Sololá	4	Finca Santa Victoria	10	Octubre	2023-10-23T00:00:00	2024-11-08T06:00:00	7	Dirección del viento	4.02
137963	7	Sololá	701	Sololá	4	Finca Santa Victoria	10	Octubre	2023-10-23T00:00:00	2024-11-08T06:00:00	1	Precipitación	0
137964	7	Sololá	701	Sololá	4	Finca Santa Victoria	10	Octubre	2023-10-23T00:00:00	2024-11-08T06:00:00	8	Radiación solar	0
137965	7	Sololá	701	Sololá	4	Finca Santa Victoria	10	Octubre	2023-10-23T00:00:00	2024-11-08T07:00:00	2	Temperatura media	14.6
137966	7	Sololá	701	Sololá	4	Finca Santa Victoria	10	Octubre	2023-10-23T00:00:00	2024-11-08T07:00:00	4	Temperatura máxima	14.6
137967	7	Sololá	701	Sololá	4	Finca Santa Victoria	10	Octubre	2023-10-23T00:00:00	2024-11-08T07:00:00	3	Temperatura mínima	13.9
137968	7	Sololá	701	Sololá	4	Finca Santa Victoria	10	Octubre	2023-10-23T00:00:00	2024-11-08T07:00:00	5	Humedad	93
137969	7	Sololá	701	Sololá	4	Finca Santa Victoria	10	Octubre	2023-10-23T00:00:00	2024-11-08T07:00:00	6	Velocidad del viento	9.7
137970	7	Sololá	701	Sololá	4	Finca Santa Victoria	10	Octubre	2023-10-23T00:00:00	2024-11-08T07:00:00	7	Dirección del viento	4.83
137971	7	Sololá	701	Sololá	4	Finca Santa Victoria	10	Octubre	2023-10-23T00:00:00	2024-11-08T07:00:00	1	Precipitación	0
137972	7	Sololá	701	Sololá	4	Finca Santa Victoria	10	Octubre	2023-10-23T00:00:00	2024-11-08T07:00:00	8	Radiación solar	30
137973	7	Sololá	701	Sololá	4	Finca Santa Victoria	10	Octubre	2023-10-23T00:00:00	2024-11-08T08:00:00	2	Temperatura media	17.8
137974	7	Sololá	701	Sololá	4	Finca Santa Victoria	10	Octubre	2023-10-23T00:00:00	2024-11-08T08:00:00	4	Temperatura máxima	17.8
137975	7	Sololá	701	Sololá	4	Finca Santa Victoria	10	Octubre	2023-10-23T00:00:00	2024-11-08T08:00:00	3	Temperatura mínima	16
137976	7	Sololá	701	Sololá	4	Finca Santa Victoria	10	Octubre	2023-10-23T00:00:00	2024-11-08T08:00:00	5	Humedad	84
137977	7	Sololá	701	Sololá	4	Finca Santa Victoria	10	Octubre	2023-10-23T00:00:00	2024-11-08T08:00:00	6	Velocidad del viento	4.8
137978	7	Sololá	701	Sololá	4	Finca Santa Victoria	10	Octubre	2023-10-23T00:00:00	2024-11-08T08:00:00	7	Dirección del viento	2.41
137979	7	Sololá	701	Sololá	4	Finca Santa Victoria	10	Octubre	2023-10-23T00:00:00	2024-11-08T08:00:00	1	Precipitación	0
137980	7	Sololá	701	Sololá	4	Finca Santa Victoria	10	Octubre	2023-10-23T00:00:00	2024-11-08T08:00:00	8	Radiación solar	204
137981	7	Sololá	701	Sololá	4	Finca Santa Victoria	10	Octubre	2023-10-23T00:00:00	2024-11-08T09:00:00	2	Temperatura media	19.9
137982	7	Sololá	701	Sololá	4	Finca Santa Victoria	10	Octubre	2023-10-23T00:00:00	2024-11-08T09:00:00	4	Temperatura máxima	20.7
137983	7	Sololá	701	Sololá	4	Finca Santa Victoria	10	Octubre	2023-10-23T00:00:00	2024-11-08T09:00:00	3	Temperatura mínima	19.9
137984	7	Sololá	701	Sololá	4	Finca Santa Victoria	10	Octubre	2023-10-23T00:00:00	2024-11-08T09:00:00	5	Humedad	78
137985	7	Sololá	701	Sololá	4	Finca Santa Victoria	10	Octubre	2023-10-23T00:00:00	2024-11-08T09:00:00	6	Velocidad del viento	3.2
137986	7	Sololá	701	Sololá	4	Finca Santa Victoria	10	Octubre	2023-10-23T00:00:00	2024-11-08T09:00:00	7	Dirección del viento	1.61
137987	7	Sololá	701	Sololá	4	Finca Santa Victoria	10	Octubre	2023-10-23T00:00:00	2024-11-08T09:00:00	1	Precipitación	0
137988	7	Sololá	701	Sololá	4	Finca Santa Victoria	10	Octubre	2023-10-23T00:00:00	2024-11-08T09:00:00	8	Radiación solar	437
137989	7	Sololá	701	Sololá	4	Finca Santa Victoria	10	Octubre	2023-10-23T00:00:00	2024-11-08T10:00:00	2	Temperatura media	20.3
137990	7	Sololá	701	Sololá	4	Finca Santa Victoria	10	Octubre	2023-10-23T00:00:00	2024-11-08T10:00:00	4	Temperatura máxima	20.4
137991	7	Sololá	701	Sololá	4	Finca Santa Victoria	10	Octubre	2023-10-23T00:00:00	2024-11-08T10:00:00	3	Temperatura mínima	19.6
137992	7	Sololá	701	Sololá	4	Finca Santa Victoria	10	Octubre	2023-10-23T00:00:00	2024-11-08T10:00:00	5	Humedad	74
137993	7	Sololá	701	Sololá	4	Finca Santa Victoria	10	Octubre	2023-10-23T00:00:00	2024-11-08T10:00:00	6	Velocidad del viento	6.4
137994	7	Sololá	701	Sololá	4	Finca Santa Victoria	10	Octubre	2023-10-23T00:00:00	2024-11-08T10:00:00	7	Dirección del viento	3.22
137995	7	Sololá	701	Sololá	4	Finca Santa Victoria	10	Octubre	2023-10-23T00:00:00	2024-11-08T10:00:00	1	Precipitación	0
137996	7	Sololá	701	Sololá	4	Finca Santa Victoria	10	Octubre	2023-10-23T00:00:00	2024-11-08T10:00:00	8	Radiación solar	674
137997	7	Sololá	701	Sololá	4	Finca Santa Victoria	10	Octubre	2023-10-23T00:00:00	2024-11-08T11:00:00	2	Temperatura media	20.7
137998	7	Sololá	701	Sololá	4	Finca Santa Victoria	10	Octubre	2023-10-23T00:00:00	2024-11-08T11:00:00	4	Temperatura máxima	21
137999	7	Sololá	701	Sololá	4	Finca Santa Victoria	10	Octubre	2023-10-23T00:00:00	2024-11-08T11:00:00	3	Temperatura mínima	20.1
138000	7	Sololá	701	Sololá	4	Finca Santa Victoria	10	Octubre	2023-10-23T00:00:00	2024-11-08T11:00:00	5	Humedad	76
138001	7	Sololá	701	Sololá	4	Finca Santa Victoria	10	Octubre	2023-10-23T00:00:00	2024-11-08T11:00:00	6	Velocidad del viento	9.7
138002	7	Sololá	701	Sololá	4	Finca Santa Victoria	10	Octubre	2023-10-23T00:00:00	2024-11-08T11:00:00	7	Dirección del viento	4.83
138003	7	Sololá	701	Sololá	4	Finca Santa Victoria	10	Octubre	2023-10-23T00:00:00	2024-11-08T11:00:00	1	Precipitación	0
138004	7	Sololá	701	Sololá	4	Finca Santa Victoria	10	Octubre	2023-10-23T00:00:00	2024-11-08T11:00:00	8	Radiación solar	763
138005	7	Sololá	701	Sololá	4	Finca Santa Victoria	10	Octubre	2023-10-23T00:00:00	2024-11-08T12:00:00	2	Temperatura media	20.9
138006	7	Sololá	701	Sololá	4	Finca Santa Victoria	10	Octubre	2023-10-23T00:00:00	2024-11-08T12:00:00	4	Temperatura máxima	21.2
138007	7	Sololá	701	Sololá	4	Finca Santa Victoria	10	Octubre	2023-10-23T00:00:00	2024-11-08T12:00:00	3	Temperatura mínima	20.7
138008	7	Sololá	701	Sololá	4	Finca Santa Victoria	10	Octubre	2023-10-23T00:00:00	2024-11-08T12:00:00	5	Humedad	80
138009	7	Sololá	701	Sololá	4	Finca Santa Victoria	10	Octubre	2023-10-23T00:00:00	2024-11-08T12:00:00	6	Velocidad del viento	9.7
138010	7	Sololá	701	Sololá	4	Finca Santa Victoria	10	Octubre	2023-10-23T00:00:00	2024-11-08T12:00:00	7	Dirección del viento	4.83
138011	7	Sololá	701	Sololá	4	Finca Santa Victoria	10	Octubre	2023-10-23T00:00:00	2024-11-08T12:00:00	1	Precipitación	0
138012	7	Sololá	701	Sololá	4	Finca Santa Victoria	10	Octubre	2023-10-23T00:00:00	2024-11-08T12:00:00	8	Radiación solar	888
138013	7	Sololá	701	Sololá	4	Finca Santa Victoria	10	Octubre	2023-10-23T00:00:00	2024-11-08T13:00:00	2	Temperatura media	21.3
138014	7	Sololá	701	Sololá	4	Finca Santa Victoria	10	Octubre	2023-10-23T00:00:00	2024-11-08T13:00:00	4	Temperatura máxima	21.3
138015	7	Sololá	701	Sololá	4	Finca Santa Victoria	10	Octubre	2023-10-23T00:00:00	2024-11-08T13:00:00	3	Temperatura mínima	20.6
138016	7	Sololá	701	Sololá	4	Finca Santa Victoria	10	Octubre	2023-10-23T00:00:00	2024-11-08T13:00:00	5	Humedad	80
138017	7	Sololá	701	Sololá	4	Finca Santa Victoria	10	Octubre	2023-10-23T00:00:00	2024-11-08T13:00:00	6	Velocidad del viento	8
138018	7	Sololá	701	Sololá	4	Finca Santa Victoria	10	Octubre	2023-10-23T00:00:00	2024-11-08T13:00:00	7	Dirección del viento	4.02
138019	7	Sololá	701	Sololá	4	Finca Santa Victoria	10	Octubre	2023-10-23T00:00:00	2024-11-08T13:00:00	1	Precipitación	0
138020	7	Sololá	701	Sololá	4	Finca Santa Victoria	10	Octubre	2023-10-23T00:00:00	2024-11-08T13:00:00	8	Radiación solar	305
138021	7	Sololá	701	Sololá	4	Finca Santa Victoria	10	Octubre	2023-10-23T00:00:00	2024-11-08T14:00:00	2	Temperatura media	20.3
138022	7	Sololá	701	Sololá	4	Finca Santa Victoria	10	Octubre	2023-10-23T00:00:00	2024-11-08T14:00:00	4	Temperatura máxima	20.8
138023	7	Sololá	701	Sololá	4	Finca Santa Victoria	10	Octubre	2023-10-23T00:00:00	2024-11-08T14:00:00	3	Temperatura mínima	20.3
138024	7	Sololá	701	Sololá	4	Finca Santa Victoria	10	Octubre	2023-10-23T00:00:00	2024-11-08T14:00:00	5	Humedad	84
138025	7	Sololá	701	Sololá	4	Finca Santa Victoria	10	Octubre	2023-10-23T00:00:00	2024-11-08T14:00:00	6	Velocidad del viento	11.3
138026	7	Sololá	701	Sololá	4	Finca Santa Victoria	10	Octubre	2023-10-23T00:00:00	2024-11-08T14:00:00	7	Dirección del viento	5.63
138027	7	Sololá	701	Sololá	4	Finca Santa Victoria	10	Octubre	2023-10-23T00:00:00	2024-11-08T14:00:00	1	Precipitación	0
138028	7	Sololá	701	Sololá	4	Finca Santa Victoria	10	Octubre	2023-10-23T00:00:00	2024-11-08T14:00:00	8	Radiación solar	135
138029	7	Sololá	701	Sololá	4	Finca Santa Victoria	10	Octubre	2023-10-23T00:00:00	2024-11-08T15:00:00	2	Temperatura media	19.4
138030	7	Sololá	701	Sololá	4	Finca Santa Victoria	10	Octubre	2023-10-23T00:00:00	2024-11-08T15:00:00	4	Temperatura máxima	20.5
138031	7	Sololá	701	Sololá	4	Finca Santa Victoria	10	Octubre	2023-10-23T00:00:00	2024-11-08T15:00:00	3	Temperatura mínima	19.2
138032	7	Sololá	701	Sololá	4	Finca Santa Victoria	10	Octubre	2023-10-23T00:00:00	2024-11-08T15:00:00	5	Humedad	89
138033	7	Sololá	701	Sololá	4	Finca Santa Victoria	10	Octubre	2023-10-23T00:00:00	2024-11-08T15:00:00	6	Velocidad del viento	9.7
138034	7	Sololá	701	Sololá	4	Finca Santa Victoria	10	Octubre	2023-10-23T00:00:00	2024-11-08T15:00:00	7	Dirección del viento	4.83
138035	7	Sololá	701	Sololá	4	Finca Santa Victoria	10	Octubre	2023-10-23T00:00:00	2024-11-08T15:00:00	1	Precipitación	0
138036	7	Sololá	701	Sololá	4	Finca Santa Victoria	10	Octubre	2023-10-23T00:00:00	2024-11-08T15:00:00	8	Radiación solar	146
138037	7	Sololá	701	Sololá	4	Finca Santa Victoria	10	Octubre	2023-10-23T00:00:00	2024-11-08T16:00:00	2	Temperatura media	20.4
138038	7	Sololá	701	Sololá	4	Finca Santa Victoria	10	Octubre	2023-10-23T00:00:00	2024-11-08T16:00:00	4	Temperatura máxima	20.7
138039	7	Sololá	701	Sololá	4	Finca Santa Victoria	10	Octubre	2023-10-23T00:00:00	2024-11-08T16:00:00	3	Temperatura mínima	20.3
138040	7	Sololá	701	Sololá	4	Finca Santa Victoria	10	Octubre	2023-10-23T00:00:00	2024-11-08T16:00:00	5	Humedad	84
138041	7	Sololá	701	Sololá	4	Finca Santa Victoria	10	Octubre	2023-10-23T00:00:00	2024-11-08T16:00:00	6	Velocidad del viento	4.8
138042	7	Sololá	701	Sololá	4	Finca Santa Victoria	10	Octubre	2023-10-23T00:00:00	2024-11-08T16:00:00	7	Dirección del viento	2.41
138043	7	Sololá	701	Sololá	4	Finca Santa Victoria	10	Octubre	2023-10-23T00:00:00	2024-11-08T16:00:00	1	Precipitación	0
138044	7	Sololá	701	Sololá	4	Finca Santa Victoria	10	Octubre	2023-10-23T00:00:00	2024-11-08T16:00:00	8	Radiación solar	116
138045	7	Sololá	701	Sololá	4	Finca Santa Victoria	10	Octubre	2023-10-23T00:00:00	2024-11-08T17:00:00	2	Temperatura media	20.7
138046	7	Sololá	701	Sololá	4	Finca Santa Victoria	10	Octubre	2023-10-23T00:00:00	2024-11-08T17:00:00	4	Temperatura máxima	20.8
138047	7	Sololá	701	Sololá	4	Finca Santa Victoria	10	Octubre	2023-10-23T00:00:00	2024-11-08T17:00:00	3	Temperatura mínima	20.4
138048	7	Sololá	701	Sololá	4	Finca Santa Victoria	10	Octubre	2023-10-23T00:00:00	2024-11-08T17:00:00	5	Humedad	83
138049	7	Sololá	701	Sololá	4	Finca Santa Victoria	10	Octubre	2023-10-23T00:00:00	2024-11-08T17:00:00	6	Velocidad del viento	3.2
138050	7	Sololá	701	Sololá	4	Finca Santa Victoria	10	Octubre	2023-10-23T00:00:00	2024-11-08T17:00:00	7	Dirección del viento	1.61
138051	7	Sololá	701	Sololá	4	Finca Santa Victoria	10	Octubre	2023-10-23T00:00:00	2024-11-08T17:00:00	1	Precipitación	0
138052	7	Sololá	701	Sololá	4	Finca Santa Victoria	10	Octubre	2023-10-23T00:00:00	2024-11-08T17:00:00	8	Radiación solar	57
138053	7	Sololá	701	Sololá	4	Finca Santa Victoria	10	Octubre	2023-10-23T00:00:00	2024-11-08T18:00:00	2	Temperatura media	17.9
138054	7	Sololá	701	Sololá	4	Finca Santa Victoria	10	Octubre	2023-10-23T00:00:00	2024-11-08T18:00:00	4	Temperatura máxima	18.8
138055	7	Sololá	701	Sololá	4	Finca Santa Victoria	10	Octubre	2023-10-23T00:00:00	2024-11-08T18:00:00	3	Temperatura mínima	17.9
138056	7	Sololá	701	Sololá	4	Finca Santa Victoria	10	Octubre	2023-10-23T00:00:00	2024-11-08T18:00:00	5	Humedad	94
138057	7	Sololá	701	Sololá	4	Finca Santa Victoria	10	Octubre	2023-10-23T00:00:00	2024-11-08T18:00:00	6	Velocidad del viento	4.8
138058	7	Sololá	701	Sololá	4	Finca Santa Victoria	10	Octubre	2023-10-23T00:00:00	2024-11-08T18:00:00	7	Dirección del viento	2.41
138059	7	Sololá	701	Sololá	4	Finca Santa Victoria	10	Octubre	2023-10-23T00:00:00	2024-11-08T18:00:00	1	Precipitación	0
138060	7	Sololá	701	Sololá	4	Finca Santa Victoria	10	Octubre	2023-10-23T00:00:00	2024-11-08T18:00:00	8	Radiación solar	5
138061	7	Sololá	701	Sololá	4	Finca Santa Victoria	10	Octubre	2023-10-23T00:00:00	2024-11-08T19:00:00	2	Temperatura media	18.1
138062	7	Sololá	701	Sololá	4	Finca Santa Victoria	10	Octubre	2023-10-23T00:00:00	2024-11-08T19:00:00	4	Temperatura máxima	18.1
138063	7	Sololá	701	Sololá	4	Finca Santa Victoria	10	Octubre	2023-10-23T00:00:00	2024-11-08T19:00:00	3	Temperatura mínima	17.8
138064	7	Sololá	701	Sololá	4	Finca Santa Victoria	10	Octubre	2023-10-23T00:00:00	2024-11-08T19:00:00	5	Humedad	94
138065	7	Sololá	701	Sololá	4	Finca Santa Victoria	10	Octubre	2023-10-23T00:00:00	2024-11-08T19:00:00	6	Velocidad del viento	0
138066	7	Sololá	701	Sololá	4	Finca Santa Victoria	10	Octubre	2023-10-23T00:00:00	2024-11-08T19:00:00	7	Dirección del viento	0
138067	7	Sololá	701	Sololá	4	Finca Santa Victoria	10	Octubre	2023-10-23T00:00:00	2024-11-08T19:00:00	1	Precipitación	0
138068	7	Sololá	701	Sololá	4	Finca Santa Victoria	10	Octubre	2023-10-23T00:00:00	2024-11-08T19:00:00	8	Radiación solar	0
138069	7	Sololá	701	Sololá	4	Finca Santa Victoria	10	Octubre	2023-10-23T00:00:00	2024-11-08T20:00:00	2	Temperatura media	17.7
138070	7	Sololá	701	Sololá	4	Finca Santa Victoria	10	Octubre	2023-10-23T00:00:00	2024-11-08T20:00:00	4	Temperatura máxima	17.8
138071	7	Sololá	701	Sololá	4	Finca Santa Victoria	10	Octubre	2023-10-23T00:00:00	2024-11-08T20:00:00	3	Temperatura mínima	17.6
138072	7	Sololá	701	Sololá	4	Finca Santa Victoria	10	Octubre	2023-10-23T00:00:00	2024-11-08T20:00:00	5	Humedad	95
138073	7	Sololá	701	Sololá	4	Finca Santa Victoria	10	Octubre	2023-10-23T00:00:00	2024-11-08T20:00:00	6	Velocidad del viento	0
138074	7	Sololá	701	Sololá	4	Finca Santa Victoria	10	Octubre	2023-10-23T00:00:00	2024-11-08T20:00:00	7	Dirección del viento	0
138075	7	Sololá	701	Sololá	4	Finca Santa Victoria	10	Octubre	2023-10-23T00:00:00	2024-11-08T20:00:00	1	Precipitación	0
138076	7	Sololá	701	Sololá	4	Finca Santa Victoria	10	Octubre	2023-10-23T00:00:00	2024-11-08T20:00:00	8	Radiación solar	0
138077	7	Sololá	701	Sololá	4	Finca Santa Victoria	10	Octubre	2023-10-23T00:00:00	2024-11-08T21:00:00	2	Temperatura media	17.5
138078	7	Sololá	701	Sololá	4	Finca Santa Victoria	10	Octubre	2023-10-23T00:00:00	2024-11-08T21:00:00	4	Temperatura máxima	17.7
138079	7	Sololá	701	Sololá	4	Finca Santa Victoria	10	Octubre	2023-10-23T00:00:00	2024-11-08T21:00:00	3	Temperatura mínima	17.5
138080	7	Sololá	701	Sololá	4	Finca Santa Victoria	10	Octubre	2023-10-23T00:00:00	2024-11-08T21:00:00	5	Humedad	97
138081	7	Sololá	701	Sololá	4	Finca Santa Victoria	10	Octubre	2023-10-23T00:00:00	2024-11-08T21:00:00	6	Velocidad del viento	0
138082	7	Sololá	701	Sololá	4	Finca Santa Victoria	10	Octubre	2023-10-23T00:00:00	2024-11-08T21:00:00	7	Dirección del viento	0
138083	7	Sololá	701	Sololá	4	Finca Santa Victoria	10	Octubre	2023-10-23T00:00:00	2024-11-08T21:00:00	1	Precipitación	0
138084	7	Sololá	701	Sololá	4	Finca Santa Victoria	10	Octubre	2023-10-23T00:00:00	2024-11-08T21:00:00	8	Radiación solar	0
138085	7	Sololá	701	Sololá	4	Finca Santa Victoria	10	Octubre	2023-10-23T00:00:00	2024-11-08T22:00:00	2	Temperatura media	17.1
138086	7	Sololá	701	Sololá	4	Finca Santa Victoria	10	Octubre	2023-10-23T00:00:00	2024-11-08T22:00:00	4	Temperatura máxima	17.5
138087	7	Sololá	701	Sololá	4	Finca Santa Victoria	10	Octubre	2023-10-23T00:00:00	2024-11-08T22:00:00	3	Temperatura mínima	17.1
138088	7	Sololá	701	Sololá	4	Finca Santa Victoria	10	Octubre	2023-10-23T00:00:00	2024-11-08T22:00:00	5	Humedad	96
138089	7	Sololá	701	Sololá	4	Finca Santa Victoria	10	Octubre	2023-10-23T00:00:00	2024-11-08T22:00:00	6	Velocidad del viento	0
138090	7	Sololá	701	Sololá	4	Finca Santa Victoria	10	Octubre	2023-10-23T00:00:00	2024-11-08T22:00:00	7	Dirección del viento	0
138091	7	Sololá	701	Sololá	4	Finca Santa Victoria	10	Octubre	2023-10-23T00:00:00	2024-11-08T22:00:00	1	Precipitación	1.6
138092	7	Sololá	701	Sololá	4	Finca Santa Victoria	10	Octubre	2023-10-23T00:00:00	2024-11-08T22:00:00	8	Radiación solar	0
138093	7	Sololá	701	Sololá	4	Finca Santa Victoria	10	Octubre	2023-10-23T00:00:00	2024-11-08T23:00:00	2	Temperatura media	16.7
138094	7	Sololá	701	Sololá	4	Finca Santa Victoria	10	Octubre	2023-10-23T00:00:00	2024-11-08T23:00:00	4	Temperatura máxima	16.9
138095	7	Sololá	701	Sololá	4	Finca Santa Victoria	10	Octubre	2023-10-23T00:00:00	2024-11-08T23:00:00	3	Temperatura mínima	16.6
138096	7	Sololá	701	Sololá	4	Finca Santa Victoria	10	Octubre	2023-10-23T00:00:00	2024-11-08T23:00:00	5	Humedad	97
138097	7	Sololá	701	Sololá	4	Finca Santa Victoria	10	Octubre	2023-10-23T00:00:00	2024-11-08T23:00:00	6	Velocidad del viento	0
138098	7	Sololá	701	Sololá	4	Finca Santa Victoria	10	Octubre	2023-10-23T00:00:00	2024-11-08T23:00:00	7	Dirección del viento	0
138099	7	Sololá	701	Sololá	4	Finca Santa Victoria	10	Octubre	2023-10-23T00:00:00	2024-11-08T23:00:00	1	Precipitación	1
138100	7	Sololá	701	Sololá	4	Finca Santa Victoria	10	Octubre	2023-10-23T00:00:00	2024-11-08T23:00:00	8	Radiación solar	0
138101	7	Sololá	701	Sololá	4	Finca Santa Victoria	10	Octubre	2023-10-24T00:00:00	2024-11-08T00:00:00	2	Temperatura media	16.2
138102	7	Sololá	701	Sololá	4	Finca Santa Victoria	10	Octubre	2023-10-24T00:00:00	2024-11-08T00:00:00	4	Temperatura máxima	16.4
138103	7	Sololá	701	Sololá	4	Finca Santa Victoria	10	Octubre	2023-10-24T00:00:00	2024-11-08T00:00:00	3	Temperatura mínima	16.2
138104	7	Sololá	701	Sololá	4	Finca Santa Victoria	10	Octubre	2023-10-24T00:00:00	2024-11-08T00:00:00	5	Humedad	97
138105	7	Sololá	701	Sololá	4	Finca Santa Victoria	10	Octubre	2023-10-24T00:00:00	2024-11-08T00:00:00	6	Velocidad del viento	0
138106	7	Sololá	701	Sololá	4	Finca Santa Victoria	10	Octubre	2023-10-24T00:00:00	2024-11-08T00:00:00	7	Dirección del viento	0
138107	7	Sololá	701	Sololá	4	Finca Santa Victoria	10	Octubre	2023-10-24T00:00:00	2024-11-08T00:00:00	1	Precipitación	0.4
138108	7	Sololá	701	Sololá	4	Finca Santa Victoria	10	Octubre	2023-10-24T00:00:00	2024-11-08T00:00:00	8	Radiación solar	0
138109	7	Sololá	701	Sololá	4	Finca Santa Victoria	10	Octubre	2023-10-24T00:00:00	2024-11-08T01:00:00	2	Temperatura media	16
138110	7	Sololá	701	Sololá	4	Finca Santa Victoria	10	Octubre	2023-10-24T00:00:00	2024-11-08T01:00:00	4	Temperatura máxima	16.1
138111	7	Sololá	701	Sololá	4	Finca Santa Victoria	10	Octubre	2023-10-24T00:00:00	2024-11-08T01:00:00	3	Temperatura mínima	15.9
138112	7	Sololá	701	Sololá	4	Finca Santa Victoria	10	Octubre	2023-10-24T00:00:00	2024-11-08T01:00:00	5	Humedad	97
138113	7	Sololá	701	Sololá	4	Finca Santa Victoria	10	Octubre	2023-10-24T00:00:00	2024-11-08T01:00:00	6	Velocidad del viento	0
138114	7	Sololá	701	Sololá	4	Finca Santa Victoria	10	Octubre	2023-10-24T00:00:00	2024-11-08T01:00:00	7	Dirección del viento	0
138115	7	Sololá	701	Sololá	4	Finca Santa Victoria	10	Octubre	2023-10-24T00:00:00	2024-11-08T01:00:00	1	Precipitación	0.2
138116	7	Sololá	701	Sololá	4	Finca Santa Victoria	10	Octubre	2023-10-24T00:00:00	2024-11-08T01:00:00	8	Radiación solar	0
138117	7	Sololá	701	Sololá	4	Finca Santa Victoria	10	Octubre	2023-10-24T00:00:00	2024-11-08T02:00:00	2	Temperatura media	15.6
138118	7	Sololá	701	Sololá	4	Finca Santa Victoria	10	Octubre	2023-10-24T00:00:00	2024-11-08T02:00:00	4	Temperatura máxima	15.9
138119	7	Sololá	701	Sololá	4	Finca Santa Victoria	10	Octubre	2023-10-24T00:00:00	2024-11-08T02:00:00	3	Temperatura mínima	15.6
138120	7	Sololá	701	Sololá	4	Finca Santa Victoria	10	Octubre	2023-10-24T00:00:00	2024-11-08T02:00:00	5	Humedad	97
138121	7	Sololá	701	Sololá	4	Finca Santa Victoria	10	Octubre	2023-10-24T00:00:00	2024-11-08T02:00:00	6	Velocidad del viento	0
138122	7	Sololá	701	Sololá	4	Finca Santa Victoria	10	Octubre	2023-10-24T00:00:00	2024-11-08T02:00:00	7	Dirección del viento	0
138123	7	Sololá	701	Sololá	4	Finca Santa Victoria	10	Octubre	2023-10-24T00:00:00	2024-11-08T02:00:00	1	Precipitación	0
138124	7	Sololá	701	Sololá	4	Finca Santa Victoria	10	Octubre	2023-10-24T00:00:00	2024-11-08T02:00:00	8	Radiación solar	0
138125	7	Sololá	701	Sololá	4	Finca Santa Victoria	10	Octubre	2023-10-24T00:00:00	2024-11-08T03:00:00	2	Temperatura media	15.3
138126	7	Sololá	701	Sololá	4	Finca Santa Victoria	10	Octubre	2023-10-24T00:00:00	2024-11-08T03:00:00	4	Temperatura máxima	15.3
138127	7	Sololá	701	Sololá	4	Finca Santa Victoria	10	Octubre	2023-10-24T00:00:00	2024-11-08T03:00:00	3	Temperatura mínima	15
138128	7	Sololá	701	Sololá	4	Finca Santa Victoria	10	Octubre	2023-10-24T00:00:00	2024-11-08T03:00:00	5	Humedad	96
138129	7	Sololá	701	Sololá	4	Finca Santa Victoria	10	Octubre	2023-10-24T00:00:00	2024-11-08T03:00:00	6	Velocidad del viento	1.6
138130	7	Sololá	701	Sololá	4	Finca Santa Victoria	10	Octubre	2023-10-24T00:00:00	2024-11-08T03:00:00	7	Dirección del viento	0.8
138131	7	Sololá	701	Sololá	4	Finca Santa Victoria	10	Octubre	2023-10-24T00:00:00	2024-11-08T03:00:00	1	Precipitación	0
138132	7	Sololá	701	Sololá	4	Finca Santa Victoria	10	Octubre	2023-10-24T00:00:00	2024-11-08T03:00:00	8	Radiación solar	0
138133	7	Sololá	701	Sololá	4	Finca Santa Victoria	10	Octubre	2023-10-24T00:00:00	2024-11-08T04:00:00	2	Temperatura media	14.9
138134	7	Sololá	701	Sololá	4	Finca Santa Victoria	10	Octubre	2023-10-24T00:00:00	2024-11-08T04:00:00	4	Temperatura máxima	15.2
138135	7	Sololá	701	Sololá	4	Finca Santa Victoria	10	Octubre	2023-10-24T00:00:00	2024-11-08T04:00:00	3	Temperatura mínima	14.9
138136	7	Sololá	701	Sololá	4	Finca Santa Victoria	10	Octubre	2023-10-24T00:00:00	2024-11-08T04:00:00	5	Humedad	96
138137	7	Sololá	701	Sololá	4	Finca Santa Victoria	10	Octubre	2023-10-24T00:00:00	2024-11-08T04:00:00	6	Velocidad del viento	0
138138	7	Sololá	701	Sololá	4	Finca Santa Victoria	10	Octubre	2023-10-24T00:00:00	2024-11-08T04:00:00	7	Dirección del viento	0
138139	7	Sololá	701	Sololá	4	Finca Santa Victoria	10	Octubre	2023-10-24T00:00:00	2024-11-08T04:00:00	1	Precipitación	0
138140	7	Sololá	701	Sololá	4	Finca Santa Victoria	10	Octubre	2023-10-24T00:00:00	2024-11-08T04:00:00	8	Radiación solar	0
138141	7	Sololá	701	Sololá	4	Finca Santa Victoria	10	Octubre	2023-10-24T00:00:00	2024-11-08T05:00:00	2	Temperatura media	14.9
138142	7	Sololá	701	Sololá	4	Finca Santa Victoria	10	Octubre	2023-10-24T00:00:00	2024-11-08T05:00:00	4	Temperatura máxima	14.9
138143	7	Sololá	701	Sololá	4	Finca Santa Victoria	10	Octubre	2023-10-24T00:00:00	2024-11-08T05:00:00	3	Temperatura mínima	14.3
138144	7	Sololá	701	Sololá	4	Finca Santa Victoria	10	Octubre	2023-10-24T00:00:00	2024-11-08T05:00:00	5	Humedad	97
138145	7	Sololá	701	Sololá	4	Finca Santa Victoria	10	Octubre	2023-10-24T00:00:00	2024-11-08T05:00:00	6	Velocidad del viento	3.2
138146	7	Sololá	701	Sololá	4	Finca Santa Victoria	10	Octubre	2023-10-24T00:00:00	2024-11-08T05:00:00	7	Dirección del viento	1.61
138147	7	Sololá	701	Sololá	4	Finca Santa Victoria	10	Octubre	2023-10-24T00:00:00	2024-11-08T05:00:00	1	Precipitación	0
138148	7	Sololá	701	Sololá	4	Finca Santa Victoria	10	Octubre	2023-10-24T00:00:00	2024-11-08T05:00:00	8	Radiación solar	0
138149	7	Sololá	701	Sololá	4	Finca Santa Victoria	10	Octubre	2023-10-24T00:00:00	2024-11-08T06:00:00	2	Temperatura media	15.2
138150	7	Sololá	701	Sololá	4	Finca Santa Victoria	10	Octubre	2023-10-24T00:00:00	2024-11-08T06:00:00	4	Temperatura máxima	15.3
138151	7	Sololá	701	Sololá	4	Finca Santa Victoria	10	Octubre	2023-10-24T00:00:00	2024-11-08T06:00:00	3	Temperatura mínima	15.2
138152	7	Sololá	701	Sololá	4	Finca Santa Victoria	10	Octubre	2023-10-24T00:00:00	2024-11-08T06:00:00	5	Humedad	96
138153	7	Sololá	701	Sololá	4	Finca Santa Victoria	10	Octubre	2023-10-24T00:00:00	2024-11-08T06:00:00	6	Velocidad del viento	0
138154	7	Sololá	701	Sololá	4	Finca Santa Victoria	10	Octubre	2023-10-24T00:00:00	2024-11-08T06:00:00	7	Dirección del viento	0
138155	7	Sololá	701	Sololá	4	Finca Santa Victoria	10	Octubre	2023-10-24T00:00:00	2024-11-08T06:00:00	1	Precipitación	0
138156	7	Sololá	701	Sololá	4	Finca Santa Victoria	10	Octubre	2023-10-24T00:00:00	2024-11-08T06:00:00	8	Radiación solar	0
138157	7	Sololá	701	Sololá	4	Finca Santa Victoria	10	Octubre	2023-10-24T00:00:00	2024-11-08T07:00:00	2	Temperatura media	16.3
138158	7	Sololá	701	Sololá	4	Finca Santa Victoria	10	Octubre	2023-10-24T00:00:00	2024-11-08T07:00:00	4	Temperatura máxima	16.3
138159	7	Sololá	701	Sololá	4	Finca Santa Victoria	10	Octubre	2023-10-24T00:00:00	2024-11-08T07:00:00	3	Temperatura mínima	15.1
138160	7	Sololá	701	Sololá	4	Finca Santa Victoria	10	Octubre	2023-10-24T00:00:00	2024-11-08T07:00:00	5	Humedad	97
138161	7	Sololá	701	Sololá	4	Finca Santa Victoria	10	Octubre	2023-10-24T00:00:00	2024-11-08T07:00:00	6	Velocidad del viento	0
138162	7	Sololá	701	Sololá	4	Finca Santa Victoria	10	Octubre	2023-10-24T00:00:00	2024-11-08T07:00:00	7	Dirección del viento	0
138163	7	Sololá	701	Sololá	4	Finca Santa Victoria	10	Octubre	2023-10-24T00:00:00	2024-11-08T07:00:00	1	Precipitación	0
138164	7	Sololá	701	Sololá	4	Finca Santa Victoria	10	Octubre	2023-10-24T00:00:00	2024-11-08T07:00:00	8	Radiación solar	17
138165	7	Sololá	701	Sololá	4	Finca Santa Victoria	10	Octubre	2023-10-24T00:00:00	2024-11-08T08:00:00	2	Temperatura media	18.9
138166	7	Sololá	701	Sololá	4	Finca Santa Victoria	10	Octubre	2023-10-24T00:00:00	2024-11-08T08:00:00	4	Temperatura máxima	18.9
138167	7	Sololá	701	Sololá	4	Finca Santa Victoria	10	Octubre	2023-10-24T00:00:00	2024-11-08T08:00:00	3	Temperatura mínima	18.1
138168	7	Sololá	701	Sololá	4	Finca Santa Victoria	10	Octubre	2023-10-24T00:00:00	2024-11-08T08:00:00	5	Humedad	89
138169	7	Sololá	701	Sololá	4	Finca Santa Victoria	10	Octubre	2023-10-24T00:00:00	2024-11-08T08:00:00	6	Velocidad del viento	0
138170	7	Sololá	701	Sololá	4	Finca Santa Victoria	10	Octubre	2023-10-24T00:00:00	2024-11-08T08:00:00	7	Dirección del viento	0
138171	7	Sololá	701	Sololá	4	Finca Santa Victoria	10	Octubre	2023-10-24T00:00:00	2024-11-08T08:00:00	1	Precipitación	0
138172	7	Sololá	701	Sololá	4	Finca Santa Victoria	10	Octubre	2023-10-24T00:00:00	2024-11-08T08:00:00	8	Radiación solar	40
138173	7	Sololá	701	Sololá	4	Finca Santa Victoria	10	Octubre	2023-10-24T00:00:00	2024-11-08T09:00:00	2	Temperatura media	20.7
138174	7	Sololá	701	Sololá	4	Finca Santa Victoria	10	Octubre	2023-10-24T00:00:00	2024-11-08T09:00:00	4	Temperatura máxima	20.8
138175	7	Sololá	701	Sololá	4	Finca Santa Victoria	10	Octubre	2023-10-24T00:00:00	2024-11-08T09:00:00	3	Temperatura mínima	19.4
138176	7	Sololá	701	Sololá	4	Finca Santa Victoria	10	Octubre	2023-10-24T00:00:00	2024-11-08T09:00:00	5	Humedad	78
138177	7	Sololá	701	Sololá	4	Finca Santa Victoria	10	Octubre	2023-10-24T00:00:00	2024-11-08T09:00:00	6	Velocidad del viento	0
138178	7	Sololá	701	Sololá	4	Finca Santa Victoria	10	Octubre	2023-10-24T00:00:00	2024-11-08T09:00:00	7	Dirección del viento	0
138179	7	Sololá	701	Sololá	4	Finca Santa Victoria	10	Octubre	2023-10-24T00:00:00	2024-11-08T09:00:00	1	Precipitación	0
138180	7	Sololá	701	Sololá	4	Finca Santa Victoria	10	Octubre	2023-10-24T00:00:00	2024-11-08T09:00:00	8	Radiación solar	161
138181	7	Sololá	701	Sololá	4	Finca Santa Victoria	10	Octubre	2023-10-24T00:00:00	2024-11-08T10:00:00	2	Temperatura media	21.1
138182	7	Sololá	701	Sololá	4	Finca Santa Victoria	10	Octubre	2023-10-24T00:00:00	2024-11-08T10:00:00	4	Temperatura máxima	21.1
138183	7	Sololá	701	Sololá	4	Finca Santa Victoria	10	Octubre	2023-10-24T00:00:00	2024-11-08T10:00:00	3	Temperatura mínima	20.4
138184	7	Sololá	701	Sololá	4	Finca Santa Victoria	10	Octubre	2023-10-24T00:00:00	2024-11-08T10:00:00	5	Humedad	83
138185	7	Sololá	701	Sololá	4	Finca Santa Victoria	10	Octubre	2023-10-24T00:00:00	2024-11-08T10:00:00	6	Velocidad del viento	6.4
138186	7	Sololá	701	Sololá	4	Finca Santa Victoria	10	Octubre	2023-10-24T00:00:00	2024-11-08T10:00:00	7	Dirección del viento	3.22
138187	7	Sololá	701	Sololá	4	Finca Santa Victoria	10	Octubre	2023-10-24T00:00:00	2024-11-08T10:00:00	1	Precipitación	0
138188	7	Sololá	701	Sololá	4	Finca Santa Victoria	10	Octubre	2023-10-24T00:00:00	2024-11-08T10:00:00	8	Radiación solar	415
138189	7	Sololá	701	Sololá	4	Finca Santa Victoria	10	Octubre	2023-10-24T00:00:00	2024-11-08T11:00:00	2	Temperatura media	21.3
138190	7	Sololá	701	Sololá	4	Finca Santa Victoria	10	Octubre	2023-10-24T00:00:00	2024-11-08T11:00:00	4	Temperatura máxima	22.2
138191	7	Sololá	701	Sololá	4	Finca Santa Victoria	10	Octubre	2023-10-24T00:00:00	2024-11-08T11:00:00	3	Temperatura mínima	21.3
138192	7	Sololá	701	Sololá	4	Finca Santa Victoria	10	Octubre	2023-10-24T00:00:00	2024-11-08T11:00:00	5	Humedad	79
138193	7	Sololá	701	Sololá	4	Finca Santa Victoria	10	Octubre	2023-10-24T00:00:00	2024-11-08T11:00:00	6	Velocidad del viento	9.7
138194	7	Sololá	701	Sololá	4	Finca Santa Victoria	10	Octubre	2023-10-24T00:00:00	2024-11-08T11:00:00	7	Dirección del viento	4.83
138195	7	Sololá	701	Sololá	4	Finca Santa Victoria	10	Octubre	2023-10-24T00:00:00	2024-11-08T11:00:00	1	Precipitación	0
138196	7	Sololá	701	Sololá	4	Finca Santa Victoria	10	Octubre	2023-10-24T00:00:00	2024-11-08T11:00:00	8	Radiación solar	567
138197	7	Sololá	701	Sololá	4	Finca Santa Victoria	10	Octubre	2023-10-24T00:00:00	2024-11-08T12:00:00	2	Temperatura media	19.1
138198	7	Sololá	701	Sololá	4	Finca Santa Victoria	10	Octubre	2023-10-24T00:00:00	2024-11-08T12:00:00	4	Temperatura máxima	20
138199	7	Sololá	701	Sololá	4	Finca Santa Victoria	10	Octubre	2023-10-24T00:00:00	2024-11-08T12:00:00	3	Temperatura mínima	19.1
138200	7	Sololá	701	Sololá	4	Finca Santa Victoria	10	Octubre	2023-10-24T00:00:00	2024-11-08T12:00:00	5	Humedad	93
138201	7	Sololá	701	Sololá	4	Finca Santa Victoria	10	Octubre	2023-10-24T00:00:00	2024-11-08T12:00:00	6	Velocidad del viento	9.7
138202	7	Sololá	701	Sololá	4	Finca Santa Victoria	10	Octubre	2023-10-24T00:00:00	2024-11-08T12:00:00	7	Dirección del viento	4.83
138203	7	Sololá	701	Sololá	4	Finca Santa Victoria	10	Octubre	2023-10-24T00:00:00	2024-11-08T12:00:00	1	Precipitación	0
138204	7	Sololá	701	Sololá	4	Finca Santa Victoria	10	Octubre	2023-10-24T00:00:00	2024-11-08T12:00:00	8	Radiación solar	682
138205	7	Sololá	701	Sololá	4	Finca Santa Victoria	10	Octubre	2023-10-24T00:00:00	2024-11-08T13:00:00	2	Temperatura media	17.9
138206	7	Sololá	701	Sololá	4	Finca Santa Victoria	10	Octubre	2023-10-24T00:00:00	2024-11-08T13:00:00	4	Temperatura máxima	18.4
138207	7	Sololá	701	Sololá	4	Finca Santa Victoria	10	Octubre	2023-10-24T00:00:00	2024-11-08T13:00:00	3	Temperatura mínima	17.9
138208	7	Sololá	701	Sololá	4	Finca Santa Victoria	10	Octubre	2023-10-24T00:00:00	2024-11-08T13:00:00	5	Humedad	97
138209	7	Sololá	701	Sololá	4	Finca Santa Victoria	10	Octubre	2023-10-24T00:00:00	2024-11-08T13:00:00	6	Velocidad del viento	8
138210	7	Sololá	701	Sololá	4	Finca Santa Victoria	10	Octubre	2023-10-24T00:00:00	2024-11-08T13:00:00	7	Dirección del viento	4.02
138211	7	Sololá	701	Sololá	4	Finca Santa Victoria	10	Octubre	2023-10-24T00:00:00	2024-11-08T13:00:00	1	Precipitación	0
138212	7	Sololá	701	Sololá	4	Finca Santa Victoria	10	Octubre	2023-10-24T00:00:00	2024-11-08T13:00:00	8	Radiación solar	251
138213	7	Sololá	701	Sololá	4	Finca Santa Victoria	10	Octubre	2023-10-24T00:00:00	2024-11-08T14:00:00	2	Temperatura media	17.4
138214	7	Sololá	701	Sololá	4	Finca Santa Victoria	10	Octubre	2023-10-24T00:00:00	2024-11-08T14:00:00	4	Temperatura máxima	17.7
138215	7	Sololá	701	Sololá	4	Finca Santa Victoria	10	Octubre	2023-10-24T00:00:00	2024-11-08T14:00:00	3	Temperatura mínima	17.3
138216	7	Sololá	701	Sololá	4	Finca Santa Victoria	10	Octubre	2023-10-24T00:00:00	2024-11-08T14:00:00	5	Humedad	98
138217	7	Sololá	701	Sololá	4	Finca Santa Victoria	10	Octubre	2023-10-24T00:00:00	2024-11-08T14:00:00	6	Velocidad del viento	3.2
138218	7	Sololá	701	Sololá	4	Finca Santa Victoria	10	Octubre	2023-10-24T00:00:00	2024-11-08T14:00:00	7	Dirección del viento	1.61
138219	7	Sololá	701	Sololá	4	Finca Santa Victoria	10	Octubre	2023-10-24T00:00:00	2024-11-08T14:00:00	1	Precipitación	6.4
138220	7	Sololá	701	Sololá	4	Finca Santa Victoria	10	Octubre	2023-10-24T00:00:00	2024-11-08T14:00:00	8	Radiación solar	55
138221	7	Sololá	701	Sololá	4	Finca Santa Victoria	10	Octubre	2023-10-24T00:00:00	2024-11-08T15:00:00	2	Temperatura media	17.3
138222	7	Sololá	701	Sololá	4	Finca Santa Victoria	10	Octubre	2023-10-24T00:00:00	2024-11-08T15:00:00	4	Temperatura máxima	18.3
138223	7	Sololá	701	Sololá	4	Finca Santa Victoria	10	Octubre	2023-10-24T00:00:00	2024-11-08T15:00:00	3	Temperatura mínima	17.1
138224	7	Sololá	701	Sololá	4	Finca Santa Victoria	10	Octubre	2023-10-24T00:00:00	2024-11-08T15:00:00	5	Humedad	89
138225	7	Sololá	701	Sololá	4	Finca Santa Victoria	10	Octubre	2023-10-24T00:00:00	2024-11-08T15:00:00	6	Velocidad del viento	0
138226	7	Sololá	701	Sololá	4	Finca Santa Victoria	10	Octubre	2023-10-24T00:00:00	2024-11-08T15:00:00	7	Dirección del viento	0
138227	7	Sololá	701	Sololá	4	Finca Santa Victoria	10	Octubre	2023-10-24T00:00:00	2024-11-08T15:00:00	1	Precipitación	0
138228	7	Sololá	701	Sololá	4	Finca Santa Victoria	10	Octubre	2023-10-24T00:00:00	2024-11-08T15:00:00	8	Radiación solar	40
138229	7	Sololá	701	Sololá	4	Finca Santa Victoria	10	Octubre	2023-10-24T00:00:00	2024-11-08T16:00:00	2	Temperatura media	17.8
138230	7	Sololá	701	Sololá	4	Finca Santa Victoria	10	Octubre	2023-10-24T00:00:00	2024-11-08T16:00:00	4	Temperatura máxima	17.8
138231	7	Sololá	701	Sololá	4	Finca Santa Victoria	10	Octubre	2023-10-24T00:00:00	2024-11-08T16:00:00	3	Temperatura mínima	17.5
138232	7	Sololá	701	Sololá	4	Finca Santa Victoria	10	Octubre	2023-10-24T00:00:00	2024-11-08T16:00:00	5	Humedad	96
138233	7	Sololá	701	Sololá	4	Finca Santa Victoria	10	Octubre	2023-10-24T00:00:00	2024-11-08T16:00:00	6	Velocidad del viento	0
138234	7	Sololá	701	Sololá	4	Finca Santa Victoria	10	Octubre	2023-10-24T00:00:00	2024-11-08T16:00:00	7	Dirección del viento	0
138235	7	Sololá	701	Sololá	4	Finca Santa Victoria	10	Octubre	2023-10-24T00:00:00	2024-11-08T16:00:00	1	Precipitación	0
138236	7	Sololá	701	Sololá	4	Finca Santa Victoria	10	Octubre	2023-10-24T00:00:00	2024-11-08T16:00:00	8	Radiación solar	39
138237	7	Sololá	701	Sololá	4	Finca Santa Victoria	10	Octubre	2023-10-24T00:00:00	2024-11-08T17:00:00	2	Temperatura media	17.5
138238	7	Sololá	701	Sololá	4	Finca Santa Victoria	10	Octubre	2023-10-24T00:00:00	2024-11-08T17:00:00	4	Temperatura máxima	18.3
138239	7	Sololá	701	Sololá	4	Finca Santa Victoria	10	Octubre	2023-10-24T00:00:00	2024-11-08T17:00:00	3	Temperatura mínima	17.5
138240	7	Sololá	701	Sololá	4	Finca Santa Victoria	10	Octubre	2023-10-24T00:00:00	2024-11-08T17:00:00	5	Humedad	97
138241	7	Sololá	701	Sololá	4	Finca Santa Victoria	10	Octubre	2023-10-24T00:00:00	2024-11-08T17:00:00	6	Velocidad del viento	1.6
138242	7	Sololá	701	Sololá	4	Finca Santa Victoria	10	Octubre	2023-10-24T00:00:00	2024-11-08T17:00:00	7	Dirección del viento	0.8
138243	7	Sololá	701	Sololá	4	Finca Santa Victoria	10	Octubre	2023-10-24T00:00:00	2024-11-08T17:00:00	1	Precipitación	0
138244	7	Sololá	701	Sololá	4	Finca Santa Victoria	10	Octubre	2023-10-24T00:00:00	2024-11-08T17:00:00	8	Radiación solar	1
138245	7	Sololá	701	Sololá	4	Finca Santa Victoria	10	Octubre	2023-10-24T00:00:00	2024-11-08T18:00:00	2	Temperatura media	17.3
138246	7	Sololá	701	Sololá	4	Finca Santa Victoria	10	Octubre	2023-10-24T00:00:00	2024-11-08T18:00:00	4	Temperatura máxima	17.6
138247	7	Sololá	701	Sololá	4	Finca Santa Victoria	10	Octubre	2023-10-24T00:00:00	2024-11-08T18:00:00	3	Temperatura mínima	17.3
138248	7	Sololá	701	Sololá	4	Finca Santa Victoria	10	Octubre	2023-10-24T00:00:00	2024-11-08T18:00:00	5	Humedad	97
138249	7	Sololá	701	Sololá	4	Finca Santa Victoria	10	Octubre	2023-10-24T00:00:00	2024-11-08T18:00:00	6	Velocidad del viento	0
138250	7	Sololá	701	Sololá	4	Finca Santa Victoria	10	Octubre	2023-10-24T00:00:00	2024-11-08T18:00:00	7	Dirección del viento	0
138251	7	Sololá	701	Sololá	4	Finca Santa Victoria	10	Octubre	2023-10-24T00:00:00	2024-11-08T18:00:00	1	Precipitación	0
138252	7	Sololá	701	Sololá	4	Finca Santa Victoria	10	Octubre	2023-10-24T00:00:00	2024-11-08T18:00:00	8	Radiación solar	0
138253	7	Sololá	701	Sololá	4	Finca Santa Victoria	10	Octubre	2023-10-24T00:00:00	2024-11-08T19:00:00	2	Temperatura media	17
138254	7	Sololá	701	Sololá	4	Finca Santa Victoria	10	Octubre	2023-10-24T00:00:00	2024-11-08T19:00:00	4	Temperatura máxima	17
138255	7	Sololá	701	Sololá	4	Finca Santa Victoria	10	Octubre	2023-10-24T00:00:00	2024-11-08T19:00:00	3	Temperatura mínima	16.8
138256	7	Sololá	701	Sololá	4	Finca Santa Victoria	10	Octubre	2023-10-24T00:00:00	2024-11-08T19:00:00	5	Humedad	98
138257	7	Sololá	701	Sololá	4	Finca Santa Victoria	10	Octubre	2023-10-24T00:00:00	2024-11-08T19:00:00	6	Velocidad del viento	0
138258	7	Sololá	701	Sololá	4	Finca Santa Victoria	10	Octubre	2023-10-24T00:00:00	2024-11-08T19:00:00	7	Dirección del viento	0
138259	7	Sololá	701	Sololá	4	Finca Santa Victoria	10	Octubre	2023-10-24T00:00:00	2024-11-08T19:00:00	1	Precipitación	0
138260	7	Sololá	701	Sololá	4	Finca Santa Victoria	10	Octubre	2023-10-24T00:00:00	2024-11-08T19:00:00	8	Radiación solar	0
138261	7	Sololá	701	Sololá	4	Finca Santa Victoria	10	Octubre	2023-10-24T00:00:00	2024-11-08T20:00:00	2	Temperatura media	16.7
138262	7	Sololá	701	Sololá	4	Finca Santa Victoria	10	Octubre	2023-10-24T00:00:00	2024-11-08T20:00:00	4	Temperatura máxima	16.8
138263	7	Sololá	701	Sololá	4	Finca Santa Victoria	10	Octubre	2023-10-24T00:00:00	2024-11-08T20:00:00	3	Temperatura mínima	16.7
138264	7	Sololá	701	Sololá	4	Finca Santa Victoria	10	Octubre	2023-10-24T00:00:00	2024-11-08T20:00:00	5	Humedad	96
138265	7	Sololá	701	Sololá	4	Finca Santa Victoria	10	Octubre	2023-10-24T00:00:00	2024-11-08T20:00:00	6	Velocidad del viento	0
138266	7	Sololá	701	Sololá	4	Finca Santa Victoria	10	Octubre	2023-10-24T00:00:00	2024-11-08T20:00:00	7	Dirección del viento	0
138267	7	Sololá	701	Sololá	4	Finca Santa Victoria	10	Octubre	2023-10-24T00:00:00	2024-11-08T20:00:00	1	Precipitación	0.8
138268	7	Sololá	701	Sololá	4	Finca Santa Victoria	10	Octubre	2023-10-24T00:00:00	2024-11-08T20:00:00	8	Radiación solar	0
138269	7	Sololá	701	Sololá	4	Finca Santa Victoria	10	Octubre	2023-10-24T00:00:00	2024-11-08T21:00:00	2	Temperatura media	15.9
138270	7	Sololá	701	Sololá	4	Finca Santa Victoria	10	Octubre	2023-10-24T00:00:00	2024-11-08T21:00:00	4	Temperatura máxima	15.9
138271	7	Sololá	701	Sololá	4	Finca Santa Victoria	10	Octubre	2023-10-24T00:00:00	2024-11-08T21:00:00	3	Temperatura mínima	15.8
138272	7	Sololá	701	Sololá	4	Finca Santa Victoria	10	Octubre	2023-10-24T00:00:00	2024-11-08T21:00:00	5	Humedad	97
138273	7	Sololá	701	Sololá	4	Finca Santa Victoria	10	Octubre	2023-10-24T00:00:00	2024-11-08T21:00:00	6	Velocidad del viento	0
138274	7	Sololá	701	Sololá	4	Finca Santa Victoria	10	Octubre	2023-10-24T00:00:00	2024-11-08T21:00:00	7	Dirección del viento	0
138275	7	Sololá	701	Sololá	4	Finca Santa Victoria	10	Octubre	2023-10-24T00:00:00	2024-11-08T21:00:00	1	Precipitación	0
138276	7	Sololá	701	Sololá	4	Finca Santa Victoria	10	Octubre	2023-10-24T00:00:00	2024-11-08T21:00:00	8	Radiación solar	0
138277	7	Sololá	701	Sololá	4	Finca Santa Victoria	10	Octubre	2023-10-24T00:00:00	2024-11-08T22:00:00	2	Temperatura media	15.5
138278	7	Sololá	701	Sololá	4	Finca Santa Victoria	10	Octubre	2023-10-24T00:00:00	2024-11-08T22:00:00	4	Temperatura máxima	15.7
138279	7	Sololá	701	Sololá	4	Finca Santa Victoria	10	Octubre	2023-10-24T00:00:00	2024-11-08T22:00:00	3	Temperatura mínima	15.5
138280	7	Sololá	701	Sololá	4	Finca Santa Victoria	10	Octubre	2023-10-24T00:00:00	2024-11-08T22:00:00	5	Humedad	98
138281	7	Sololá	701	Sololá	4	Finca Santa Victoria	10	Octubre	2023-10-24T00:00:00	2024-11-08T22:00:00	6	Velocidad del viento	0
138282	7	Sololá	701	Sololá	4	Finca Santa Victoria	10	Octubre	2023-10-24T00:00:00	2024-11-08T22:00:00	7	Dirección del viento	0
138283	7	Sololá	701	Sololá	4	Finca Santa Victoria	10	Octubre	2023-10-24T00:00:00	2024-11-08T22:00:00	1	Precipitación	0
138284	7	Sololá	701	Sololá	4	Finca Santa Victoria	10	Octubre	2023-10-24T00:00:00	2024-11-08T22:00:00	8	Radiación solar	0
138285	7	Sololá	701	Sololá	4	Finca Santa Victoria	10	Octubre	2023-10-24T00:00:00	2024-11-08T23:00:00	2	Temperatura media	15.3
138286	7	Sololá	701	Sololá	4	Finca Santa Victoria	10	Octubre	2023-10-24T00:00:00	2024-11-08T23:00:00	4	Temperatura máxima	15.7
138287	7	Sololá	701	Sololá	4	Finca Santa Victoria	10	Octubre	2023-10-24T00:00:00	2024-11-08T23:00:00	3	Temperatura mínima	15.3
138288	7	Sololá	701	Sololá	4	Finca Santa Victoria	10	Octubre	2023-10-24T00:00:00	2024-11-08T23:00:00	5	Humedad	97
138289	7	Sololá	701	Sololá	4	Finca Santa Victoria	10	Octubre	2023-10-24T00:00:00	2024-11-08T23:00:00	6	Velocidad del viento	0
138290	7	Sololá	701	Sololá	4	Finca Santa Victoria	10	Octubre	2023-10-24T00:00:00	2024-11-08T23:00:00	7	Dirección del viento	0
138291	7	Sololá	701	Sololá	4	Finca Santa Victoria	10	Octubre	2023-10-24T00:00:00	2024-11-08T23:00:00	1	Precipitación	0
138292	7	Sololá	701	Sololá	4	Finca Santa Victoria	10	Octubre	2023-10-24T00:00:00	2024-11-08T23:00:00	8	Radiación solar	0
138293	7	Sololá	701	Sololá	4	Finca Santa Victoria	10	Octubre	2023-10-25T00:00:00	2024-11-08T00:00:00	2	Temperatura media	15.1
138294	7	Sololá	701	Sololá	4	Finca Santa Victoria	10	Octubre	2023-10-25T00:00:00	2024-11-08T00:00:00	4	Temperatura máxima	15.2
138295	7	Sololá	701	Sololá	4	Finca Santa Victoria	10	Octubre	2023-10-25T00:00:00	2024-11-08T00:00:00	3	Temperatura mínima	15.1
138296	7	Sololá	701	Sololá	4	Finca Santa Victoria	10	Octubre	2023-10-25T00:00:00	2024-11-08T00:00:00	5	Humedad	98
138297	7	Sololá	701	Sololá	4	Finca Santa Victoria	10	Octubre	2023-10-25T00:00:00	2024-11-08T00:00:00	6	Velocidad del viento	0
138298	7	Sololá	701	Sololá	4	Finca Santa Victoria	10	Octubre	2023-10-25T00:00:00	2024-11-08T00:00:00	7	Dirección del viento	0
138299	7	Sololá	701	Sololá	4	Finca Santa Victoria	10	Octubre	2023-10-25T00:00:00	2024-11-08T00:00:00	1	Precipitación	0
138300	7	Sololá	701	Sololá	4	Finca Santa Victoria	10	Octubre	2023-10-25T00:00:00	2024-11-08T00:00:00	8	Radiación solar	0
138301	7	Sololá	701	Sololá	4	Finca Santa Victoria	10	Octubre	2023-10-25T00:00:00	2024-11-08T01:00:00	2	Temperatura media	15.3
138302	7	Sololá	701	Sololá	4	Finca Santa Victoria	10	Octubre	2023-10-25T00:00:00	2024-11-08T01:00:00	4	Temperatura máxima	15.3
138303	7	Sololá	701	Sololá	4	Finca Santa Victoria	10	Octubre	2023-10-25T00:00:00	2024-11-08T01:00:00	3	Temperatura mínima	15.2
138304	7	Sololá	701	Sololá	4	Finca Santa Victoria	10	Octubre	2023-10-25T00:00:00	2024-11-08T01:00:00	5	Humedad	99
138305	7	Sololá	701	Sololá	4	Finca Santa Victoria	10	Octubre	2023-10-25T00:00:00	2024-11-08T01:00:00	6	Velocidad del viento	0
138306	7	Sololá	701	Sololá	4	Finca Santa Victoria	10	Octubre	2023-10-25T00:00:00	2024-11-08T01:00:00	7	Dirección del viento	0
138307	7	Sololá	701	Sololá	4	Finca Santa Victoria	10	Octubre	2023-10-25T00:00:00	2024-11-08T01:00:00	1	Precipitación	0
138308	7	Sololá	701	Sololá	4	Finca Santa Victoria	10	Octubre	2023-10-25T00:00:00	2024-11-08T01:00:00	8	Radiación solar	0
138309	7	Sololá	701	Sololá	4	Finca Santa Victoria	10	Octubre	2023-10-25T00:00:00	2024-11-08T02:00:00	2	Temperatura media	14.9
138310	7	Sololá	701	Sololá	4	Finca Santa Victoria	10	Octubre	2023-10-25T00:00:00	2024-11-08T02:00:00	4	Temperatura máxima	15.3
138311	7	Sololá	701	Sololá	4	Finca Santa Victoria	10	Octubre	2023-10-25T00:00:00	2024-11-08T02:00:00	3	Temperatura mínima	14.9
138312	7	Sololá	701	Sololá	4	Finca Santa Victoria	10	Octubre	2023-10-25T00:00:00	2024-11-08T02:00:00	5	Humedad	98
138313	7	Sololá	701	Sololá	4	Finca Santa Victoria	10	Octubre	2023-10-25T00:00:00	2024-11-08T02:00:00	6	Velocidad del viento	0
138314	7	Sololá	701	Sololá	4	Finca Santa Victoria	10	Octubre	2023-10-25T00:00:00	2024-11-08T02:00:00	7	Dirección del viento	0
138315	7	Sololá	701	Sololá	4	Finca Santa Victoria	10	Octubre	2023-10-25T00:00:00	2024-11-08T02:00:00	1	Precipitación	0
138316	7	Sololá	701	Sololá	4	Finca Santa Victoria	10	Octubre	2023-10-25T00:00:00	2024-11-08T02:00:00	8	Radiación solar	0
138317	7	Sololá	701	Sololá	4	Finca Santa Victoria	10	Octubre	2023-10-25T00:00:00	2024-11-08T03:00:00	2	Temperatura media	14.3
138318	7	Sololá	701	Sololá	4	Finca Santa Victoria	10	Octubre	2023-10-25T00:00:00	2024-11-08T03:00:00	4	Temperatura máxima	14.8
138319	7	Sololá	701	Sololá	4	Finca Santa Victoria	10	Octubre	2023-10-25T00:00:00	2024-11-08T03:00:00	3	Temperatura mínima	14.3
138320	7	Sololá	701	Sololá	4	Finca Santa Victoria	10	Octubre	2023-10-25T00:00:00	2024-11-08T03:00:00	5	Humedad	98
138321	7	Sololá	701	Sololá	4	Finca Santa Victoria	10	Octubre	2023-10-25T00:00:00	2024-11-08T03:00:00	6	Velocidad del viento	0
138322	7	Sololá	701	Sololá	4	Finca Santa Victoria	10	Octubre	2023-10-25T00:00:00	2024-11-08T03:00:00	7	Dirección del viento	0
138323	7	Sololá	701	Sololá	4	Finca Santa Victoria	10	Octubre	2023-10-25T00:00:00	2024-11-08T03:00:00	1	Precipitación	0
138324	7	Sololá	701	Sololá	4	Finca Santa Victoria	10	Octubre	2023-10-25T00:00:00	2024-11-08T03:00:00	8	Radiación solar	0
138325	7	Sololá	701	Sololá	4	Finca Santa Victoria	10	Octubre	2023-10-25T00:00:00	2024-11-08T04:00:00	2	Temperatura media	14
138326	7	Sololá	701	Sololá	4	Finca Santa Victoria	10	Octubre	2023-10-25T00:00:00	2024-11-08T04:00:00	4	Temperatura máxima	14.2
138327	7	Sololá	701	Sololá	4	Finca Santa Victoria	10	Octubre	2023-10-25T00:00:00	2024-11-08T04:00:00	3	Temperatura mínima	13.9
138328	7	Sololá	701	Sololá	4	Finca Santa Victoria	10	Octubre	2023-10-25T00:00:00	2024-11-08T04:00:00	5	Humedad	98
138329	7	Sololá	701	Sololá	4	Finca Santa Victoria	10	Octubre	2023-10-25T00:00:00	2024-11-08T04:00:00	6	Velocidad del viento	0
138330	7	Sololá	701	Sololá	4	Finca Santa Victoria	10	Octubre	2023-10-25T00:00:00	2024-11-08T04:00:00	7	Dirección del viento	0
138331	7	Sololá	701	Sololá	4	Finca Santa Victoria	10	Octubre	2023-10-25T00:00:00	2024-11-08T04:00:00	1	Precipitación	0
138332	7	Sololá	701	Sololá	4	Finca Santa Victoria	10	Octubre	2023-10-25T00:00:00	2024-11-08T04:00:00	8	Radiación solar	0
138333	7	Sololá	701	Sololá	4	Finca Santa Victoria	10	Octubre	2023-10-25T00:00:00	2024-11-08T05:00:00	2	Temperatura media	15.4
138334	7	Sololá	701	Sololá	4	Finca Santa Victoria	10	Octubre	2023-10-25T00:00:00	2024-11-08T05:00:00	4	Temperatura máxima	15.4
138335	7	Sololá	701	Sololá	4	Finca Santa Victoria	10	Octubre	2023-10-25T00:00:00	2024-11-08T05:00:00	3	Temperatura mínima	14.4
138336	7	Sololá	701	Sololá	4	Finca Santa Victoria	10	Octubre	2023-10-25T00:00:00	2024-11-08T05:00:00	5	Humedad	92
138337	7	Sololá	701	Sololá	4	Finca Santa Victoria	10	Octubre	2023-10-25T00:00:00	2024-11-08T05:00:00	6	Velocidad del viento	3.2
138338	7	Sololá	701	Sololá	4	Finca Santa Victoria	10	Octubre	2023-10-25T00:00:00	2024-11-08T05:00:00	7	Dirección del viento	1.61
138339	7	Sololá	701	Sololá	4	Finca Santa Victoria	10	Octubre	2023-10-25T00:00:00	2024-11-08T05:00:00	1	Precipitación	0
138340	7	Sololá	701	Sololá	4	Finca Santa Victoria	10	Octubre	2023-10-25T00:00:00	2024-11-08T05:00:00	8	Radiación solar	0
138341	7	Sololá	701	Sololá	4	Finca Santa Victoria	10	Octubre	2023-10-25T00:00:00	2024-11-08T06:00:00	2	Temperatura media	15.8
138342	7	Sololá	701	Sololá	4	Finca Santa Victoria	10	Octubre	2023-10-25T00:00:00	2024-11-08T06:00:00	4	Temperatura máxima	16.1
138343	7	Sololá	701	Sololá	4	Finca Santa Victoria	10	Octubre	2023-10-25T00:00:00	2024-11-08T06:00:00	3	Temperatura mínima	15.8
138344	7	Sololá	701	Sololá	4	Finca Santa Victoria	10	Octubre	2023-10-25T00:00:00	2024-11-08T06:00:00	5	Humedad	91
138345	7	Sololá	701	Sololá	4	Finca Santa Victoria	10	Octubre	2023-10-25T00:00:00	2024-11-08T06:00:00	6	Velocidad del viento	0
138346	7	Sololá	701	Sololá	4	Finca Santa Victoria	10	Octubre	2023-10-25T00:00:00	2024-11-08T06:00:00	7	Dirección del viento	0
138347	7	Sololá	701	Sololá	4	Finca Santa Victoria	10	Octubre	2023-10-25T00:00:00	2024-11-08T06:00:00	1	Precipitación	0
138348	7	Sololá	701	Sololá	4	Finca Santa Victoria	10	Octubre	2023-10-25T00:00:00	2024-11-08T06:00:00	8	Radiación solar	0
138349	7	Sololá	701	Sololá	4	Finca Santa Victoria	10	Octubre	2023-10-25T00:00:00	2024-11-08T07:00:00	2	Temperatura media	16.8
138350	7	Sololá	701	Sololá	4	Finca Santa Victoria	10	Octubre	2023-10-25T00:00:00	2024-11-08T07:00:00	4	Temperatura máxima	16.8
138351	7	Sololá	701	Sololá	4	Finca Santa Victoria	10	Octubre	2023-10-25T00:00:00	2024-11-08T07:00:00	3	Temperatura mínima	15.4
138352	7	Sololá	701	Sololá	4	Finca Santa Victoria	10	Octubre	2023-10-25T00:00:00	2024-11-08T07:00:00	5	Humedad	89
138353	7	Sololá	701	Sololá	4	Finca Santa Victoria	10	Octubre	2023-10-25T00:00:00	2024-11-08T07:00:00	6	Velocidad del viento	1.6
138354	7	Sololá	701	Sololá	4	Finca Santa Victoria	10	Octubre	2023-10-25T00:00:00	2024-11-08T07:00:00	7	Dirección del viento	0.8
138355	7	Sololá	701	Sololá	4	Finca Santa Victoria	10	Octubre	2023-10-25T00:00:00	2024-11-08T07:00:00	1	Precipitación	0
138356	7	Sololá	701	Sololá	4	Finca Santa Victoria	10	Octubre	2023-10-25T00:00:00	2024-11-08T07:00:00	8	Radiación solar	21
138357	7	Sololá	701	Sololá	4	Finca Santa Victoria	10	Octubre	2023-10-25T00:00:00	2024-11-08T08:00:00	2	Temperatura media	17.9
138358	7	Sololá	701	Sololá	4	Finca Santa Victoria	10	Octubre	2023-10-25T00:00:00	2024-11-08T08:00:00	4	Temperatura máxima	18
138359	7	Sololá	701	Sololá	4	Finca Santa Victoria	10	Octubre	2023-10-25T00:00:00	2024-11-08T08:00:00	3	Temperatura mínima	17.3
138360	7	Sololá	701	Sololá	4	Finca Santa Victoria	10	Octubre	2023-10-25T00:00:00	2024-11-08T08:00:00	5	Humedad	85
138361	7	Sololá	701	Sololá	4	Finca Santa Victoria	10	Octubre	2023-10-25T00:00:00	2024-11-08T08:00:00	6	Velocidad del viento	1.6
138362	7	Sololá	701	Sololá	4	Finca Santa Victoria	10	Octubre	2023-10-25T00:00:00	2024-11-08T08:00:00	7	Dirección del viento	0.8
138363	7	Sololá	701	Sololá	4	Finca Santa Victoria	10	Octubre	2023-10-25T00:00:00	2024-11-08T08:00:00	1	Precipitación	0
138364	7	Sololá	701	Sololá	4	Finca Santa Victoria	10	Octubre	2023-10-25T00:00:00	2024-11-08T08:00:00	8	Radiación solar	269
138365	7	Sololá	701	Sololá	4	Finca Santa Victoria	10	Octubre	2023-10-25T00:00:00	2024-11-08T09:00:00	2	Temperatura media	20.1
138366	7	Sololá	701	Sololá	4	Finca Santa Victoria	10	Octubre	2023-10-25T00:00:00	2024-11-08T09:00:00	4	Temperatura máxima	20.2
138367	7	Sololá	701	Sololá	4	Finca Santa Victoria	10	Octubre	2023-10-25T00:00:00	2024-11-08T09:00:00	3	Temperatura mínima	19.3
138368	7	Sololá	701	Sololá	4	Finca Santa Victoria	10	Octubre	2023-10-25T00:00:00	2024-11-08T09:00:00	5	Humedad	79
138369	7	Sololá	701	Sololá	4	Finca Santa Victoria	10	Octubre	2023-10-25T00:00:00	2024-11-08T09:00:00	6	Velocidad del viento	4.8
138370	7	Sololá	701	Sololá	4	Finca Santa Victoria	10	Octubre	2023-10-25T00:00:00	2024-11-08T09:00:00	7	Dirección del viento	2.41
138371	7	Sololá	701	Sololá	4	Finca Santa Victoria	10	Octubre	2023-10-25T00:00:00	2024-11-08T09:00:00	1	Precipitación	0
138372	7	Sololá	701	Sololá	4	Finca Santa Victoria	10	Octubre	2023-10-25T00:00:00	2024-11-08T09:00:00	8	Radiación solar	547
138373	7	Sololá	701	Sololá	4	Finca Santa Victoria	10	Octubre	2023-10-25T00:00:00	2024-11-08T10:00:00	2	Temperatura media	20.6
138374	7	Sololá	701	Sololá	4	Finca Santa Victoria	10	Octubre	2023-10-25T00:00:00	2024-11-08T10:00:00	4	Temperatura máxima	20.6
138375	7	Sololá	701	Sololá	4	Finca Santa Victoria	10	Octubre	2023-10-25T00:00:00	2024-11-08T10:00:00	3	Temperatura mínima	19.7
138376	7	Sololá	701	Sololá	4	Finca Santa Victoria	10	Octubre	2023-10-25T00:00:00	2024-11-08T10:00:00	5	Humedad	78
138377	7	Sololá	701	Sololá	4	Finca Santa Victoria	10	Octubre	2023-10-25T00:00:00	2024-11-08T10:00:00	6	Velocidad del viento	6.4
138378	7	Sololá	701	Sololá	4	Finca Santa Victoria	10	Octubre	2023-10-25T00:00:00	2024-11-08T10:00:00	7	Dirección del viento	3.22
138379	7	Sololá	701	Sololá	4	Finca Santa Victoria	10	Octubre	2023-10-25T00:00:00	2024-11-08T10:00:00	1	Precipitación	0
138380	7	Sololá	701	Sololá	4	Finca Santa Victoria	10	Octubre	2023-10-25T00:00:00	2024-11-08T10:00:00	8	Radiación solar	720
138381	7	Sololá	701	Sololá	4	Finca Santa Victoria	10	Octubre	2023-10-25T00:00:00	2024-11-08T11:00:00	2	Temperatura media	20.8
138382	7	Sololá	701	Sololá	4	Finca Santa Victoria	10	Octubre	2023-10-25T00:00:00	2024-11-08T11:00:00	4	Temperatura máxima	21.4
138383	7	Sololá	701	Sololá	4	Finca Santa Victoria	10	Octubre	2023-10-25T00:00:00	2024-11-08T11:00:00	3	Temperatura mínima	20.7
138384	7	Sololá	701	Sololá	4	Finca Santa Victoria	10	Octubre	2023-10-25T00:00:00	2024-11-08T11:00:00	5	Humedad	75
138385	7	Sololá	701	Sololá	4	Finca Santa Victoria	10	Octubre	2023-10-25T00:00:00	2024-11-08T11:00:00	6	Velocidad del viento	6.4
138386	7	Sololá	701	Sololá	4	Finca Santa Victoria	10	Octubre	2023-10-25T00:00:00	2024-11-08T11:00:00	7	Dirección del viento	3.22
138387	7	Sololá	701	Sololá	4	Finca Santa Victoria	10	Octubre	2023-10-25T00:00:00	2024-11-08T11:00:00	1	Precipitación	0
138388	7	Sololá	701	Sololá	4	Finca Santa Victoria	10	Octubre	2023-10-25T00:00:00	2024-11-08T11:00:00	8	Radiación solar	353
138389	7	Sololá	701	Sololá	4	Finca Santa Victoria	10	Octubre	2023-10-25T00:00:00	2024-11-08T12:00:00	2	Temperatura media	21.3
138390	7	Sololá	701	Sololá	4	Finca Santa Victoria	10	Octubre	2023-10-25T00:00:00	2024-11-08T12:00:00	4	Temperatura máxima	21.4
138391	7	Sololá	701	Sololá	4	Finca Santa Victoria	10	Octubre	2023-10-25T00:00:00	2024-11-08T12:00:00	3	Temperatura mínima	21.2
138392	7	Sololá	701	Sololá	4	Finca Santa Victoria	10	Octubre	2023-10-25T00:00:00	2024-11-08T12:00:00	5	Humedad	74
138393	7	Sololá	701	Sololá	4	Finca Santa Victoria	10	Octubre	2023-10-25T00:00:00	2024-11-08T12:00:00	6	Velocidad del viento	4.8
138394	7	Sololá	701	Sololá	4	Finca Santa Victoria	10	Octubre	2023-10-25T00:00:00	2024-11-08T12:00:00	7	Dirección del viento	2.41
138395	7	Sololá	701	Sololá	4	Finca Santa Victoria	10	Octubre	2023-10-25T00:00:00	2024-11-08T12:00:00	1	Precipitación	0
138396	7	Sololá	701	Sololá	4	Finca Santa Victoria	10	Octubre	2023-10-25T00:00:00	2024-11-08T12:00:00	8	Radiación solar	181
138397	7	Sololá	701	Sololá	4	Finca Santa Victoria	10	Octubre	2023-10-25T00:00:00	2024-11-08T13:00:00	2	Temperatura media	22.1
138398	7	Sololá	701	Sololá	4	Finca Santa Victoria	10	Octubre	2023-10-25T00:00:00	2024-11-08T13:00:00	4	Temperatura máxima	22.6
138399	7	Sololá	701	Sololá	4	Finca Santa Victoria	10	Octubre	2023-10-25T00:00:00	2024-11-08T13:00:00	3	Temperatura mínima	22.1
138400	7	Sololá	701	Sololá	4	Finca Santa Victoria	10	Octubre	2023-10-25T00:00:00	2024-11-08T13:00:00	5	Humedad	69
138401	7	Sololá	701	Sololá	4	Finca Santa Victoria	10	Octubre	2023-10-25T00:00:00	2024-11-08T13:00:00	6	Velocidad del viento	4.8
138402	7	Sololá	701	Sololá	4	Finca Santa Victoria	10	Octubre	2023-10-25T00:00:00	2024-11-08T13:00:00	7	Dirección del viento	2.41
138403	7	Sololá	701	Sololá	4	Finca Santa Victoria	10	Octubre	2023-10-25T00:00:00	2024-11-08T13:00:00	1	Precipitación	0
138404	7	Sololá	701	Sololá	4	Finca Santa Victoria	10	Octubre	2023-10-25T00:00:00	2024-11-08T13:00:00	8	Radiación solar	119
138405	7	Sololá	701	Sololá	4	Finca Santa Victoria	10	Octubre	2023-10-25T00:00:00	2024-11-08T14:00:00	2	Temperatura media	23.9
138406	7	Sololá	701	Sololá	4	Finca Santa Victoria	10	Octubre	2023-10-25T00:00:00	2024-11-08T14:00:00	4	Temperatura máxima	24.1
138407	7	Sololá	701	Sololá	4	Finca Santa Victoria	10	Octubre	2023-10-25T00:00:00	2024-11-08T14:00:00	3	Temperatura mínima	22.8
138408	7	Sololá	701	Sololá	4	Finca Santa Victoria	10	Octubre	2023-10-25T00:00:00	2024-11-08T14:00:00	5	Humedad	67
138409	7	Sololá	701	Sololá	4	Finca Santa Victoria	10	Octubre	2023-10-25T00:00:00	2024-11-08T14:00:00	6	Velocidad del viento	1.6
138410	7	Sololá	701	Sololá	4	Finca Santa Victoria	10	Octubre	2023-10-25T00:00:00	2024-11-08T14:00:00	7	Dirección del viento	0.8
138411	7	Sololá	701	Sololá	4	Finca Santa Victoria	10	Octubre	2023-10-25T00:00:00	2024-11-08T14:00:00	1	Precipitación	0
138412	7	Sololá	701	Sololá	4	Finca Santa Victoria	10	Octubre	2023-10-25T00:00:00	2024-11-08T14:00:00	8	Radiación solar	125
138413	7	Sololá	701	Sololá	4	Finca Santa Victoria	10	Octubre	2023-10-25T00:00:00	2024-11-08T15:00:00	2	Temperatura media	21
138414	7	Sololá	701	Sololá	4	Finca Santa Victoria	10	Octubre	2023-10-25T00:00:00	2024-11-08T15:00:00	4	Temperatura máxima	22.2
138415	7	Sololá	701	Sololá	4	Finca Santa Victoria	10	Octubre	2023-10-25T00:00:00	2024-11-08T15:00:00	3	Temperatura mínima	21
138416	7	Sololá	701	Sololá	4	Finca Santa Victoria	10	Octubre	2023-10-25T00:00:00	2024-11-08T15:00:00	5	Humedad	83
138417	7	Sololá	701	Sololá	4	Finca Santa Victoria	10	Octubre	2023-10-25T00:00:00	2024-11-08T15:00:00	6	Velocidad del viento	1.6
138418	7	Sololá	701	Sololá	4	Finca Santa Victoria	10	Octubre	2023-10-25T00:00:00	2024-11-08T15:00:00	7	Dirección del viento	0.8
138419	7	Sololá	701	Sololá	4	Finca Santa Victoria	10	Octubre	2023-10-25T00:00:00	2024-11-08T15:00:00	1	Precipitación	0
138420	7	Sololá	701	Sololá	4	Finca Santa Victoria	10	Octubre	2023-10-25T00:00:00	2024-11-08T15:00:00	8	Radiación solar	116
138421	7	Sololá	701	Sololá	4	Finca Santa Victoria	10	Octubre	2023-10-25T00:00:00	2024-11-08T16:00:00	2	Temperatura media	19.9
138422	7	Sololá	701	Sololá	4	Finca Santa Victoria	10	Octubre	2023-10-25T00:00:00	2024-11-08T16:00:00	4	Temperatura máxima	21.3
138423	7	Sololá	701	Sololá	4	Finca Santa Victoria	10	Octubre	2023-10-25T00:00:00	2024-11-08T16:00:00	3	Temperatura mínima	19.9
138424	7	Sololá	701	Sololá	4	Finca Santa Victoria	10	Octubre	2023-10-25T00:00:00	2024-11-08T16:00:00	5	Humedad	88
138425	7	Sololá	701	Sololá	4	Finca Santa Victoria	10	Octubre	2023-10-25T00:00:00	2024-11-08T16:00:00	6	Velocidad del viento	4.8
138426	7	Sololá	701	Sololá	4	Finca Santa Victoria	10	Octubre	2023-10-25T00:00:00	2024-11-08T16:00:00	7	Dirección del viento	2.41
138427	7	Sololá	701	Sololá	4	Finca Santa Victoria	10	Octubre	2023-10-25T00:00:00	2024-11-08T16:00:00	1	Precipitación	0
138428	7	Sololá	701	Sololá	4	Finca Santa Victoria	10	Octubre	2023-10-25T00:00:00	2024-11-08T16:00:00	8	Radiación solar	59
138429	7	Sololá	701	Sololá	4	Finca Santa Victoria	10	Octubre	2023-10-25T00:00:00	2024-11-08T17:00:00	2	Temperatura media	19
138430	7	Sololá	701	Sololá	4	Finca Santa Victoria	10	Octubre	2023-10-25T00:00:00	2024-11-08T17:00:00	4	Temperatura máxima	19.1
138431	7	Sololá	701	Sololá	4	Finca Santa Victoria	10	Octubre	2023-10-25T00:00:00	2024-11-08T17:00:00	3	Temperatura mínima	18.9
138432	7	Sololá	701	Sololá	4	Finca Santa Victoria	10	Octubre	2023-10-25T00:00:00	2024-11-08T17:00:00	5	Humedad	91
138433	7	Sololá	701	Sololá	4	Finca Santa Victoria	10	Octubre	2023-10-25T00:00:00	2024-11-08T17:00:00	6	Velocidad del viento	0
138434	7	Sololá	701	Sololá	4	Finca Santa Victoria	10	Octubre	2023-10-25T00:00:00	2024-11-08T17:00:00	7	Dirección del viento	0
138435	7	Sololá	701	Sololá	4	Finca Santa Victoria	10	Octubre	2023-10-25T00:00:00	2024-11-08T17:00:00	1	Precipitación	0
138436	7	Sololá	701	Sololá	4	Finca Santa Victoria	10	Octubre	2023-10-25T00:00:00	2024-11-08T17:00:00	8	Radiación solar	35
138437	7	Sololá	701	Sololá	4	Finca Santa Victoria	10	Octubre	2023-10-25T00:00:00	2024-11-08T18:00:00	2	Temperatura media	18.4
138438	7	Sololá	701	Sololá	4	Finca Santa Victoria	10	Octubre	2023-10-25T00:00:00	2024-11-08T18:00:00	4	Temperatura máxima	19.2
138439	7	Sololá	701	Sololá	4	Finca Santa Victoria	10	Octubre	2023-10-25T00:00:00	2024-11-08T18:00:00	3	Temperatura mínima	18.4
138440	7	Sololá	701	Sololá	4	Finca Santa Victoria	10	Octubre	2023-10-25T00:00:00	2024-11-08T18:00:00	5	Humedad	93
138441	7	Sololá	701	Sololá	4	Finca Santa Victoria	10	Octubre	2023-10-25T00:00:00	2024-11-08T18:00:00	6	Velocidad del viento	0
138442	7	Sololá	701	Sololá	4	Finca Santa Victoria	10	Octubre	2023-10-25T00:00:00	2024-11-08T18:00:00	7	Dirección del viento	0
138443	7	Sololá	701	Sololá	4	Finca Santa Victoria	10	Octubre	2023-10-25T00:00:00	2024-11-08T18:00:00	1	Precipitación	0
138444	7	Sololá	701	Sololá	4	Finca Santa Victoria	10	Octubre	2023-10-25T00:00:00	2024-11-08T18:00:00	8	Radiación solar	5
138445	7	Sololá	701	Sololá	4	Finca Santa Victoria	10	Octubre	2023-10-25T00:00:00	2024-11-08T19:00:00	2	Temperatura media	17.8
138446	7	Sololá	701	Sololá	4	Finca Santa Victoria	10	Octubre	2023-10-25T00:00:00	2024-11-08T19:00:00	4	Temperatura máxima	17.9
138447	7	Sololá	701	Sololá	4	Finca Santa Victoria	10	Octubre	2023-10-25T00:00:00	2024-11-08T19:00:00	3	Temperatura mínima	17.4
138448	7	Sololá	701	Sololá	4	Finca Santa Victoria	10	Octubre	2023-10-25T00:00:00	2024-11-08T19:00:00	5	Humedad	85
138449	7	Sololá	701	Sololá	4	Finca Santa Victoria	10	Octubre	2023-10-25T00:00:00	2024-11-08T19:00:00	6	Velocidad del viento	3.2
138450	7	Sololá	701	Sololá	4	Finca Santa Victoria	10	Octubre	2023-10-25T00:00:00	2024-11-08T19:00:00	7	Dirección del viento	1.61
138451	7	Sololá	701	Sololá	4	Finca Santa Victoria	10	Octubre	2023-10-25T00:00:00	2024-11-08T19:00:00	1	Precipitación	0
138452	7	Sololá	701	Sololá	4	Finca Santa Victoria	10	Octubre	2023-10-25T00:00:00	2024-11-08T19:00:00	8	Radiación solar	0
138453	7	Sololá	701	Sololá	4	Finca Santa Victoria	10	Octubre	2023-10-25T00:00:00	2024-11-08T20:00:00	2	Temperatura media	17.1
138454	7	Sololá	701	Sololá	4	Finca Santa Victoria	10	Octubre	2023-10-25T00:00:00	2024-11-08T20:00:00	4	Temperatura máxima	17.1
138455	7	Sololá	701	Sololá	4	Finca Santa Victoria	10	Octubre	2023-10-25T00:00:00	2024-11-08T20:00:00	3	Temperatura mínima	16.9
138456	7	Sololá	701	Sololá	4	Finca Santa Victoria	10	Octubre	2023-10-25T00:00:00	2024-11-08T20:00:00	5	Humedad	90
138457	7	Sololá	701	Sololá	4	Finca Santa Victoria	10	Octubre	2023-10-25T00:00:00	2024-11-08T20:00:00	6	Velocidad del viento	0
138458	7	Sololá	701	Sololá	4	Finca Santa Victoria	10	Octubre	2023-10-25T00:00:00	2024-11-08T20:00:00	7	Dirección del viento	0
138459	7	Sololá	701	Sololá	4	Finca Santa Victoria	10	Octubre	2023-10-25T00:00:00	2024-11-08T20:00:00	1	Precipitación	0
138460	7	Sololá	701	Sololá	4	Finca Santa Victoria	10	Octubre	2023-10-25T00:00:00	2024-11-08T20:00:00	8	Radiación solar	0
138461	7	Sololá	701	Sololá	4	Finca Santa Victoria	10	Octubre	2023-10-25T00:00:00	2024-11-08T21:00:00	2	Temperatura media	16.9
138462	7	Sololá	701	Sololá	4	Finca Santa Victoria	10	Octubre	2023-10-25T00:00:00	2024-11-08T21:00:00	4	Temperatura máxima	17.3
138463	7	Sololá	701	Sololá	4	Finca Santa Victoria	10	Octubre	2023-10-25T00:00:00	2024-11-08T21:00:00	3	Temperatura mínima	16.8
138464	7	Sololá	701	Sololá	4	Finca Santa Victoria	10	Octubre	2023-10-25T00:00:00	2024-11-08T21:00:00	5	Humedad	91
138465	7	Sololá	701	Sololá	4	Finca Santa Victoria	10	Octubre	2023-10-25T00:00:00	2024-11-08T21:00:00	6	Velocidad del viento	0
138466	7	Sololá	701	Sololá	4	Finca Santa Victoria	10	Octubre	2023-10-25T00:00:00	2024-11-08T21:00:00	7	Dirección del viento	0
138467	7	Sololá	701	Sololá	4	Finca Santa Victoria	10	Octubre	2023-10-25T00:00:00	2024-11-08T21:00:00	1	Precipitación	0
138468	7	Sololá	701	Sololá	4	Finca Santa Victoria	10	Octubre	2023-10-25T00:00:00	2024-11-08T21:00:00	8	Radiación solar	0
138469	7	Sololá	701	Sololá	4	Finca Santa Victoria	10	Octubre	2023-10-25T00:00:00	2024-11-08T22:00:00	2	Temperatura media	17.1
138470	7	Sololá	701	Sololá	4	Finca Santa Victoria	10	Octubre	2023-10-25T00:00:00	2024-11-08T22:00:00	4	Temperatura máxima	17.7
138471	7	Sololá	701	Sololá	4	Finca Santa Victoria	10	Octubre	2023-10-25T00:00:00	2024-11-08T22:00:00	3	Temperatura mínima	17.1
138472	7	Sololá	701	Sololá	4	Finca Santa Victoria	10	Octubre	2023-10-25T00:00:00	2024-11-08T22:00:00	5	Humedad	86
138473	7	Sololá	701	Sololá	4	Finca Santa Victoria	10	Octubre	2023-10-25T00:00:00	2024-11-08T22:00:00	6	Velocidad del viento	1.6
138474	7	Sololá	701	Sololá	4	Finca Santa Victoria	10	Octubre	2023-10-25T00:00:00	2024-11-08T22:00:00	7	Dirección del viento	0.8
138475	7	Sololá	701	Sololá	4	Finca Santa Victoria	10	Octubre	2023-10-25T00:00:00	2024-11-08T22:00:00	1	Precipitación	0
138476	7	Sololá	701	Sololá	4	Finca Santa Victoria	10	Octubre	2023-10-25T00:00:00	2024-11-08T22:00:00	8	Radiación solar	0
138477	7	Sololá	701	Sololá	4	Finca Santa Victoria	10	Octubre	2023-10-25T00:00:00	2024-11-08T23:00:00	2	Temperatura media	16.1
138478	7	Sololá	701	Sololá	4	Finca Santa Victoria	10	Octubre	2023-10-25T00:00:00	2024-11-08T23:00:00	4	Temperatura máxima	17.1
138479	7	Sololá	701	Sololá	4	Finca Santa Victoria	10	Octubre	2023-10-25T00:00:00	2024-11-08T23:00:00	3	Temperatura mínima	16.1
138480	7	Sololá	701	Sololá	4	Finca Santa Victoria	10	Octubre	2023-10-25T00:00:00	2024-11-08T23:00:00	5	Humedad	89
138481	7	Sololá	701	Sololá	4	Finca Santa Victoria	10	Octubre	2023-10-25T00:00:00	2024-11-08T23:00:00	6	Velocidad del viento	1.6
138482	7	Sololá	701	Sololá	4	Finca Santa Victoria	10	Octubre	2023-10-25T00:00:00	2024-11-08T23:00:00	7	Dirección del viento	0.8
138483	7	Sololá	701	Sololá	4	Finca Santa Victoria	10	Octubre	2023-10-25T00:00:00	2024-11-08T23:00:00	1	Precipitación	0
138484	7	Sololá	701	Sololá	4	Finca Santa Victoria	10	Octubre	2023-10-25T00:00:00	2024-11-08T23:00:00	8	Radiación solar	0
138485	7	Sololá	701	Sololá	4	Finca Santa Victoria	10	Octubre	2023-10-26T00:00:00	2024-11-08T00:00:00	2	Temperatura media	14.7
138486	7	Sololá	701	Sololá	4	Finca Santa Victoria	10	Octubre	2023-10-26T00:00:00	2024-11-08T00:00:00	4	Temperatura máxima	15.1
138487	7	Sololá	701	Sololá	4	Finca Santa Victoria	10	Octubre	2023-10-26T00:00:00	2024-11-08T00:00:00	3	Temperatura mínima	14.7
138488	7	Sololá	701	Sololá	4	Finca Santa Victoria	10	Octubre	2023-10-26T00:00:00	2024-11-08T00:00:00	5	Humedad	94
138489	7	Sololá	701	Sololá	4	Finca Santa Victoria	10	Octubre	2023-10-26T00:00:00	2024-11-08T00:00:00	6	Velocidad del viento	0
138490	7	Sololá	701	Sololá	4	Finca Santa Victoria	10	Octubre	2023-10-26T00:00:00	2024-11-08T00:00:00	7	Dirección del viento	0
138491	7	Sololá	701	Sololá	4	Finca Santa Victoria	10	Octubre	2023-10-26T00:00:00	2024-11-08T00:00:00	1	Precipitación	0
138492	7	Sololá	701	Sololá	4	Finca Santa Victoria	10	Octubre	2023-10-26T00:00:00	2024-11-08T00:00:00	8	Radiación solar	0
138493	7	Sololá	701	Sololá	4	Finca Santa Victoria	10	Octubre	2023-10-26T00:00:00	2024-11-08T01:00:00	2	Temperatura media	14.2
138494	7	Sololá	701	Sololá	4	Finca Santa Victoria	10	Octubre	2023-10-26T00:00:00	2024-11-08T01:00:00	4	Temperatura máxima	14.4
138495	7	Sololá	701	Sololá	4	Finca Santa Victoria	10	Octubre	2023-10-26T00:00:00	2024-11-08T01:00:00	3	Temperatura mínima	14.2
138496	7	Sololá	701	Sololá	4	Finca Santa Victoria	10	Octubre	2023-10-26T00:00:00	2024-11-08T01:00:00	5	Humedad	95
138497	7	Sololá	701	Sololá	4	Finca Santa Victoria	10	Octubre	2023-10-26T00:00:00	2024-11-08T01:00:00	6	Velocidad del viento	0
138498	7	Sololá	701	Sololá	4	Finca Santa Victoria	10	Octubre	2023-10-26T00:00:00	2024-11-08T01:00:00	7	Dirección del viento	0
138499	7	Sololá	701	Sololá	4	Finca Santa Victoria	10	Octubre	2023-10-26T00:00:00	2024-11-08T01:00:00	1	Precipitación	0
138500	7	Sololá	701	Sololá	4	Finca Santa Victoria	10	Octubre	2023-10-26T00:00:00	2024-11-08T01:00:00	8	Radiación solar	0
138501	7	Sololá	701	Sololá	4	Finca Santa Victoria	10	Octubre	2023-10-26T00:00:00	2024-11-08T02:00:00	2	Temperatura media	16.3
138502	7	Sololá	701	Sololá	4	Finca Santa Victoria	10	Octubre	2023-10-26T00:00:00	2024-11-08T02:00:00	4	Temperatura máxima	16.3
138503	7	Sololá	701	Sololá	4	Finca Santa Victoria	10	Octubre	2023-10-26T00:00:00	2024-11-08T02:00:00	3	Temperatura mínima	14.7
138504	7	Sololá	701	Sololá	4	Finca Santa Victoria	10	Octubre	2023-10-26T00:00:00	2024-11-08T02:00:00	5	Humedad	88
138505	7	Sololá	701	Sololá	4	Finca Santa Victoria	10	Octubre	2023-10-26T00:00:00	2024-11-08T02:00:00	6	Velocidad del viento	1.6
138506	7	Sololá	701	Sololá	4	Finca Santa Victoria	10	Octubre	2023-10-26T00:00:00	2024-11-08T02:00:00	7	Dirección del viento	0.8
138507	7	Sololá	701	Sololá	4	Finca Santa Victoria	10	Octubre	2023-10-26T00:00:00	2024-11-08T02:00:00	1	Precipitación	0
138508	7	Sololá	701	Sololá	4	Finca Santa Victoria	10	Octubre	2023-10-26T00:00:00	2024-11-08T02:00:00	8	Radiación solar	0
138509	7	Sololá	701	Sololá	4	Finca Santa Victoria	10	Octubre	2023-10-26T00:00:00	2024-11-08T03:00:00	2	Temperatura media	16
138510	7	Sololá	701	Sololá	4	Finca Santa Victoria	10	Octubre	2023-10-26T00:00:00	2024-11-08T03:00:00	4	Temperatura máxima	16.1
138511	7	Sololá	701	Sololá	4	Finca Santa Victoria	10	Octubre	2023-10-26T00:00:00	2024-11-08T03:00:00	3	Temperatura mínima	15.7
138512	7	Sololá	701	Sololá	4	Finca Santa Victoria	10	Octubre	2023-10-26T00:00:00	2024-11-08T03:00:00	5	Humedad	88
138513	7	Sololá	701	Sololá	4	Finca Santa Victoria	10	Octubre	2023-10-26T00:00:00	2024-11-08T03:00:00	6	Velocidad del viento	1.6
138514	7	Sololá	701	Sololá	4	Finca Santa Victoria	10	Octubre	2023-10-26T00:00:00	2024-11-08T03:00:00	7	Dirección del viento	0.8
138515	7	Sololá	701	Sololá	4	Finca Santa Victoria	10	Octubre	2023-10-26T00:00:00	2024-11-08T03:00:00	1	Precipitación	0
138516	7	Sololá	701	Sololá	4	Finca Santa Victoria	10	Octubre	2023-10-26T00:00:00	2024-11-08T03:00:00	8	Radiación solar	0
138517	7	Sololá	701	Sololá	4	Finca Santa Victoria	10	Octubre	2023-10-26T00:00:00	2024-11-08T04:00:00	2	Temperatura media	16.6
138518	7	Sololá	701	Sololá	4	Finca Santa Victoria	10	Octubre	2023-10-26T00:00:00	2024-11-08T04:00:00	4	Temperatura máxima	16.6
138519	7	Sololá	701	Sololá	4	Finca Santa Victoria	10	Octubre	2023-10-26T00:00:00	2024-11-08T04:00:00	3	Temperatura mínima	15.6
138520	7	Sololá	701	Sololá	4	Finca Santa Victoria	10	Octubre	2023-10-26T00:00:00	2024-11-08T04:00:00	5	Humedad	85
138521	7	Sololá	701	Sololá	4	Finca Santa Victoria	10	Octubre	2023-10-26T00:00:00	2024-11-08T04:00:00	6	Velocidad del viento	4.8
138522	7	Sololá	701	Sololá	4	Finca Santa Victoria	10	Octubre	2023-10-26T00:00:00	2024-11-08T04:00:00	7	Dirección del viento	2.41
138523	7	Sololá	701	Sololá	4	Finca Santa Victoria	10	Octubre	2023-10-26T00:00:00	2024-11-08T04:00:00	1	Precipitación	0
138524	7	Sololá	701	Sololá	4	Finca Santa Victoria	10	Octubre	2023-10-26T00:00:00	2024-11-08T04:00:00	8	Radiación solar	0
138525	7	Sololá	701	Sololá	4	Finca Santa Victoria	10	Octubre	2023-10-26T00:00:00	2024-11-08T05:00:00	2	Temperatura media	16.1
138526	7	Sololá	701	Sololá	4	Finca Santa Victoria	10	Octubre	2023-10-26T00:00:00	2024-11-08T05:00:00	4	Temperatura máxima	16.3
138527	7	Sololá	701	Sololá	4	Finca Santa Victoria	10	Octubre	2023-10-26T00:00:00	2024-11-08T05:00:00	3	Temperatura mínima	16.1
138528	7	Sololá	701	Sololá	4	Finca Santa Victoria	10	Octubre	2023-10-26T00:00:00	2024-11-08T05:00:00	5	Humedad	87
138529	7	Sololá	701	Sololá	4	Finca Santa Victoria	10	Octubre	2023-10-26T00:00:00	2024-11-08T05:00:00	6	Velocidad del viento	3.2
138530	7	Sololá	701	Sololá	4	Finca Santa Victoria	10	Octubre	2023-10-26T00:00:00	2024-11-08T05:00:00	7	Dirección del viento	1.61
138531	7	Sololá	701	Sololá	4	Finca Santa Victoria	10	Octubre	2023-10-26T00:00:00	2024-11-08T05:00:00	1	Precipitación	0
138532	7	Sololá	701	Sololá	4	Finca Santa Victoria	10	Octubre	2023-10-26T00:00:00	2024-11-08T05:00:00	8	Radiación solar	0
138533	7	Sololá	701	Sololá	4	Finca Santa Victoria	10	Octubre	2023-10-26T00:00:00	2024-11-08T06:00:00	2	Temperatura media	16.3
138534	7	Sololá	701	Sololá	4	Finca Santa Victoria	10	Octubre	2023-10-26T00:00:00	2024-11-08T06:00:00	4	Temperatura máxima	16.4
138535	7	Sololá	701	Sololá	4	Finca Santa Victoria	10	Octubre	2023-10-26T00:00:00	2024-11-08T06:00:00	3	Temperatura mínima	16.1
138536	7	Sololá	701	Sololá	4	Finca Santa Victoria	10	Octubre	2023-10-26T00:00:00	2024-11-08T06:00:00	5	Humedad	85
138537	7	Sololá	701	Sololá	4	Finca Santa Victoria	10	Octubre	2023-10-26T00:00:00	2024-11-08T06:00:00	6	Velocidad del viento	4.8
138538	7	Sololá	701	Sololá	4	Finca Santa Victoria	10	Octubre	2023-10-26T00:00:00	2024-11-08T06:00:00	7	Dirección del viento	2.41
138539	7	Sololá	701	Sololá	4	Finca Santa Victoria	10	Octubre	2023-10-26T00:00:00	2024-11-08T06:00:00	1	Precipitación	0
138540	7	Sololá	701	Sololá	4	Finca Santa Victoria	10	Octubre	2023-10-26T00:00:00	2024-11-08T06:00:00	8	Radiación solar	0
138541	7	Sololá	701	Sololá	4	Finca Santa Victoria	10	Octubre	2023-10-26T00:00:00	2024-11-08T07:00:00	2	Temperatura media	17.3
138542	7	Sololá	701	Sololá	4	Finca Santa Victoria	10	Octubre	2023-10-26T00:00:00	2024-11-08T07:00:00	4	Temperatura máxima	17.3
138543	7	Sololá	701	Sololá	4	Finca Santa Victoria	10	Octubre	2023-10-26T00:00:00	2024-11-08T07:00:00	3	Temperatura mínima	16.2
138544	7	Sololá	701	Sololá	4	Finca Santa Victoria	10	Octubre	2023-10-26T00:00:00	2024-11-08T07:00:00	5	Humedad	82
138545	7	Sololá	701	Sololá	4	Finca Santa Victoria	10	Octubre	2023-10-26T00:00:00	2024-11-08T07:00:00	6	Velocidad del viento	1.6
138546	7	Sololá	701	Sololá	4	Finca Santa Victoria	10	Octubre	2023-10-26T00:00:00	2024-11-08T07:00:00	7	Dirección del viento	0.8
138547	7	Sololá	701	Sololá	4	Finca Santa Victoria	10	Octubre	2023-10-26T00:00:00	2024-11-08T07:00:00	1	Precipitación	0
138548	7	Sololá	701	Sololá	4	Finca Santa Victoria	10	Octubre	2023-10-26T00:00:00	2024-11-08T07:00:00	8	Radiación solar	27
138549	7	Sololá	701	Sololá	4	Finca Santa Victoria	10	Octubre	2023-10-26T00:00:00	2024-11-08T08:00:00	2	Temperatura media	19.4
138550	7	Sololá	701	Sololá	4	Finca Santa Victoria	10	Octubre	2023-10-26T00:00:00	2024-11-08T08:00:00	4	Temperatura máxima	19.5
138551	7	Sololá	701	Sololá	4	Finca Santa Victoria	10	Octubre	2023-10-26T00:00:00	2024-11-08T08:00:00	3	Temperatura mínima	19.2
138552	7	Sololá	701	Sololá	4	Finca Santa Victoria	10	Octubre	2023-10-26T00:00:00	2024-11-08T08:00:00	5	Humedad	76
138553	7	Sololá	701	Sololá	4	Finca Santa Victoria	10	Octubre	2023-10-26T00:00:00	2024-11-08T08:00:00	6	Velocidad del viento	4.8
138554	7	Sololá	701	Sololá	4	Finca Santa Victoria	10	Octubre	2023-10-26T00:00:00	2024-11-08T08:00:00	7	Dirección del viento	2.41
138555	7	Sololá	701	Sololá	4	Finca Santa Victoria	10	Octubre	2023-10-26T00:00:00	2024-11-08T08:00:00	1	Precipitación	0
138556	7	Sololá	701	Sololá	4	Finca Santa Victoria	10	Octubre	2023-10-26T00:00:00	2024-11-08T08:00:00	8	Radiación solar	112
138557	7	Sololá	701	Sololá	4	Finca Santa Victoria	10	Octubre	2023-10-26T00:00:00	2024-11-08T09:00:00	2	Temperatura media	20.3
138558	7	Sololá	701	Sololá	4	Finca Santa Victoria	10	Octubre	2023-10-26T00:00:00	2024-11-08T09:00:00	4	Temperatura máxima	20.6
138559	7	Sololá	701	Sololá	4	Finca Santa Victoria	10	Octubre	2023-10-26T00:00:00	2024-11-08T09:00:00	3	Temperatura mínima	20.1
138560	7	Sololá	701	Sololá	4	Finca Santa Victoria	10	Octubre	2023-10-26T00:00:00	2024-11-08T09:00:00	5	Humedad	73
138561	7	Sololá	701	Sololá	4	Finca Santa Victoria	10	Octubre	2023-10-26T00:00:00	2024-11-08T09:00:00	6	Velocidad del viento	4.8
138562	7	Sololá	701	Sololá	4	Finca Santa Victoria	10	Octubre	2023-10-26T00:00:00	2024-11-08T09:00:00	7	Dirección del viento	2.41
138563	7	Sololá	701	Sololá	4	Finca Santa Victoria	10	Octubre	2023-10-26T00:00:00	2024-11-08T09:00:00	1	Precipitación	0
138564	7	Sololá	701	Sololá	4	Finca Santa Victoria	10	Octubre	2023-10-26T00:00:00	2024-11-08T09:00:00	8	Radiación solar	87
138565	7	Sololá	701	Sololá	4	Finca Santa Victoria	10	Octubre	2023-10-26T00:00:00	2024-11-08T10:00:00	2	Temperatura media	21.6
138566	7	Sololá	701	Sololá	4	Finca Santa Victoria	10	Octubre	2023-10-26T00:00:00	2024-11-08T10:00:00	4	Temperatura máxima	21.8
138567	7	Sololá	701	Sololá	4	Finca Santa Victoria	10	Octubre	2023-10-26T00:00:00	2024-11-08T10:00:00	3	Temperatura mínima	20.8
138568	7	Sololá	701	Sololá	4	Finca Santa Victoria	10	Octubre	2023-10-26T00:00:00	2024-11-08T10:00:00	5	Humedad	70
138569	7	Sololá	701	Sololá	4	Finca Santa Victoria	10	Octubre	2023-10-26T00:00:00	2024-11-08T10:00:00	6	Velocidad del viento	6.4
138570	7	Sololá	701	Sololá	4	Finca Santa Victoria	10	Octubre	2023-10-26T00:00:00	2024-11-08T10:00:00	7	Dirección del viento	3.22
138571	7	Sololá	701	Sololá	4	Finca Santa Victoria	10	Octubre	2023-10-26T00:00:00	2024-11-08T10:00:00	1	Precipitación	0
138572	7	Sololá	701	Sololá	4	Finca Santa Victoria	10	Octubre	2023-10-26T00:00:00	2024-11-08T10:00:00	8	Radiación solar	207
138573	7	Sololá	701	Sololá	4	Finca Santa Victoria	10	Octubre	2023-10-26T00:00:00	2024-11-08T11:00:00	2	Temperatura media	21.6
138574	7	Sololá	701	Sololá	4	Finca Santa Victoria	10	Octubre	2023-10-26T00:00:00	2024-11-08T11:00:00	4	Temperatura máxima	22.3
138575	7	Sololá	701	Sololá	4	Finca Santa Victoria	10	Octubre	2023-10-26T00:00:00	2024-11-08T11:00:00	3	Temperatura mínima	21.6
138576	7	Sololá	701	Sololá	4	Finca Santa Victoria	10	Octubre	2023-10-26T00:00:00	2024-11-08T11:00:00	5	Humedad	69
138577	7	Sololá	701	Sololá	4	Finca Santa Victoria	10	Octubre	2023-10-26T00:00:00	2024-11-08T11:00:00	6	Velocidad del viento	4.8
138578	7	Sololá	701	Sololá	4	Finca Santa Victoria	10	Octubre	2023-10-26T00:00:00	2024-11-08T11:00:00	7	Dirección del viento	2.41
138579	7	Sololá	701	Sololá	4	Finca Santa Victoria	10	Octubre	2023-10-26T00:00:00	2024-11-08T11:00:00	1	Precipitación	0
138580	7	Sololá	701	Sololá	4	Finca Santa Victoria	10	Octubre	2023-10-26T00:00:00	2024-11-08T11:00:00	8	Radiación solar	261
138581	7	Sololá	701	Sololá	4	Finca Santa Victoria	10	Octubre	2023-10-26T00:00:00	2024-11-08T12:00:00	2	Temperatura media	20.7
138582	7	Sololá	701	Sololá	4	Finca Santa Victoria	10	Octubre	2023-10-26T00:00:00	2024-11-08T12:00:00	4	Temperatura máxima	21.8
138583	7	Sololá	701	Sololá	4	Finca Santa Victoria	10	Octubre	2023-10-26T00:00:00	2024-11-08T12:00:00	3	Temperatura mínima	20.7
138584	7	Sololá	701	Sololá	4	Finca Santa Victoria	10	Octubre	2023-10-26T00:00:00	2024-11-08T12:00:00	5	Humedad	78
138585	7	Sololá	701	Sololá	4	Finca Santa Victoria	10	Octubre	2023-10-26T00:00:00	2024-11-08T12:00:00	6	Velocidad del viento	9.7
138586	7	Sololá	701	Sololá	4	Finca Santa Victoria	10	Octubre	2023-10-26T00:00:00	2024-11-08T12:00:00	7	Dirección del viento	4.83
138587	7	Sololá	701	Sololá	4	Finca Santa Victoria	10	Octubre	2023-10-26T00:00:00	2024-11-08T12:00:00	1	Precipitación	0
138588	7	Sololá	701	Sololá	4	Finca Santa Victoria	10	Octubre	2023-10-26T00:00:00	2024-11-08T12:00:00	8	Radiación solar	312
138589	7	Sololá	701	Sololá	4	Finca Santa Victoria	10	Octubre	2023-10-26T00:00:00	2024-11-08T13:00:00	2	Temperatura media	20.9
138590	7	Sololá	701	Sololá	4	Finca Santa Victoria	10	Octubre	2023-10-26T00:00:00	2024-11-08T13:00:00	4	Temperatura máxima	20.9
138591	7	Sololá	701	Sololá	4	Finca Santa Victoria	10	Octubre	2023-10-26T00:00:00	2024-11-08T13:00:00	3	Temperatura mínima	20.5
138592	7	Sololá	701	Sololá	4	Finca Santa Victoria	10	Octubre	2023-10-26T00:00:00	2024-11-08T13:00:00	5	Humedad	83
138593	7	Sololá	701	Sololá	4	Finca Santa Victoria	10	Octubre	2023-10-26T00:00:00	2024-11-08T13:00:00	6	Velocidad del viento	3.2
138594	7	Sololá	701	Sololá	4	Finca Santa Victoria	10	Octubre	2023-10-26T00:00:00	2024-11-08T13:00:00	7	Dirección del viento	1.61
138595	7	Sololá	701	Sololá	4	Finca Santa Victoria	10	Octubre	2023-10-26T00:00:00	2024-11-08T13:00:00	1	Precipitación	0
138596	7	Sololá	701	Sololá	4	Finca Santa Victoria	10	Octubre	2023-10-26T00:00:00	2024-11-08T13:00:00	8	Radiación solar	280
138597	7	Sololá	701	Sololá	4	Finca Santa Victoria	10	Octubre	2023-10-26T00:00:00	2024-11-08T14:00:00	2	Temperatura media	21.3
138598	7	Sololá	701	Sololá	4	Finca Santa Victoria	10	Octubre	2023-10-26T00:00:00	2024-11-08T14:00:00	4	Temperatura máxima	21.4
138599	7	Sololá	701	Sololá	4	Finca Santa Victoria	10	Octubre	2023-10-26T00:00:00	2024-11-08T14:00:00	3	Temperatura mínima	20.9
138600	7	Sololá	701	Sololá	4	Finca Santa Victoria	10	Octubre	2023-10-26T00:00:00	2024-11-08T14:00:00	5	Humedad	82
138601	7	Sololá	701	Sololá	4	Finca Santa Victoria	10	Octubre	2023-10-26T00:00:00	2024-11-08T14:00:00	6	Velocidad del viento	8
138602	7	Sololá	701	Sololá	4	Finca Santa Victoria	10	Octubre	2023-10-26T00:00:00	2024-11-08T14:00:00	7	Dirección del viento	4.02
138603	7	Sololá	701	Sololá	4	Finca Santa Victoria	10	Octubre	2023-10-26T00:00:00	2024-11-08T14:00:00	1	Precipitación	0
138604	7	Sololá	701	Sololá	4	Finca Santa Victoria	10	Octubre	2023-10-26T00:00:00	2024-11-08T14:00:00	8	Radiación solar	167
138605	7	Sololá	701	Sololá	4	Finca Santa Victoria	10	Octubre	2023-10-26T00:00:00	2024-11-08T15:00:00	2	Temperatura media	21.4
138606	7	Sololá	701	Sololá	4	Finca Santa Victoria	10	Octubre	2023-10-26T00:00:00	2024-11-08T15:00:00	4	Temperatura máxima	21.6
138607	7	Sololá	701	Sololá	4	Finca Santa Victoria	10	Octubre	2023-10-26T00:00:00	2024-11-08T15:00:00	3	Temperatura mínima	20.7
138608	7	Sololá	701	Sololá	4	Finca Santa Victoria	10	Octubre	2023-10-26T00:00:00	2024-11-08T15:00:00	5	Humedad	83
138609	7	Sololá	701	Sololá	4	Finca Santa Victoria	10	Octubre	2023-10-26T00:00:00	2024-11-08T15:00:00	6	Velocidad del viento	8
138610	7	Sololá	701	Sololá	4	Finca Santa Victoria	10	Octubre	2023-10-26T00:00:00	2024-11-08T15:00:00	7	Dirección del viento	4.02
138611	7	Sololá	701	Sololá	4	Finca Santa Victoria	10	Octubre	2023-10-26T00:00:00	2024-11-08T15:00:00	1	Precipitación	0
138612	7	Sololá	701	Sololá	4	Finca Santa Victoria	10	Octubre	2023-10-26T00:00:00	2024-11-08T15:00:00	8	Radiación solar	181
138613	7	Sololá	701	Sololá	4	Finca Santa Victoria	10	Octubre	2023-10-26T00:00:00	2024-11-08T16:00:00	2	Temperatura media	21.3
138614	7	Sololá	701	Sololá	4	Finca Santa Victoria	10	Octubre	2023-10-26T00:00:00	2024-11-08T16:00:00	4	Temperatura máxima	22.2
138615	7	Sololá	701	Sololá	4	Finca Santa Victoria	10	Octubre	2023-10-26T00:00:00	2024-11-08T16:00:00	3	Temperatura mínima	21.3
138616	7	Sololá	701	Sololá	4	Finca Santa Victoria	10	Octubre	2023-10-26T00:00:00	2024-11-08T16:00:00	5	Humedad	86
138617	7	Sololá	701	Sololá	4	Finca Santa Victoria	10	Octubre	2023-10-26T00:00:00	2024-11-08T16:00:00	6	Velocidad del viento	6.4
138618	7	Sololá	701	Sololá	4	Finca Santa Victoria	10	Octubre	2023-10-26T00:00:00	2024-11-08T16:00:00	7	Dirección del viento	3.22
138619	7	Sololá	701	Sololá	4	Finca Santa Victoria	10	Octubre	2023-10-26T00:00:00	2024-11-08T16:00:00	1	Precipitación	0
138620	7	Sololá	701	Sololá	4	Finca Santa Victoria	10	Octubre	2023-10-26T00:00:00	2024-11-08T16:00:00	8	Radiación solar	106
138621	7	Sololá	701	Sololá	4	Finca Santa Victoria	10	Octubre	2023-10-26T00:00:00	2024-11-08T17:00:00	2	Temperatura media	19.1
138622	7	Sololá	701	Sololá	4	Finca Santa Victoria	10	Octubre	2023-10-26T00:00:00	2024-11-08T17:00:00	4	Temperatura máxima	20.1
138623	7	Sololá	701	Sololá	4	Finca Santa Victoria	10	Octubre	2023-10-26T00:00:00	2024-11-08T17:00:00	3	Temperatura mínima	19.1
138624	7	Sololá	701	Sololá	4	Finca Santa Victoria	10	Octubre	2023-10-26T00:00:00	2024-11-08T17:00:00	5	Humedad	91
138625	7	Sololá	701	Sololá	4	Finca Santa Victoria	10	Octubre	2023-10-26T00:00:00	2024-11-08T17:00:00	6	Velocidad del viento	1.6
138626	7	Sololá	701	Sololá	4	Finca Santa Victoria	10	Octubre	2023-10-26T00:00:00	2024-11-08T17:00:00	7	Dirección del viento	0.8
138627	7	Sololá	701	Sololá	4	Finca Santa Victoria	10	Octubre	2023-10-26T00:00:00	2024-11-08T17:00:00	1	Precipitación	0
138628	7	Sololá	701	Sololá	4	Finca Santa Victoria	10	Octubre	2023-10-26T00:00:00	2024-11-08T17:00:00	8	Radiación solar	91
138629	7	Sololá	701	Sololá	4	Finca Santa Victoria	10	Octubre	2023-10-26T00:00:00	2024-11-08T18:00:00	2	Temperatura media	18.3
138630	7	Sololá	701	Sololá	4	Finca Santa Victoria	10	Octubre	2023-10-26T00:00:00	2024-11-08T18:00:00	4	Temperatura máxima	18.7
138631	7	Sololá	701	Sololá	4	Finca Santa Victoria	10	Octubre	2023-10-26T00:00:00	2024-11-08T18:00:00	3	Temperatura mínima	18.3
138632	7	Sololá	701	Sololá	4	Finca Santa Victoria	10	Octubre	2023-10-26T00:00:00	2024-11-08T18:00:00	5	Humedad	94
138633	7	Sololá	701	Sololá	4	Finca Santa Victoria	10	Octubre	2023-10-26T00:00:00	2024-11-08T18:00:00	6	Velocidad del viento	0
138634	7	Sololá	701	Sololá	4	Finca Santa Victoria	10	Octubre	2023-10-26T00:00:00	2024-11-08T18:00:00	7	Dirección del viento	0
138635	7	Sololá	701	Sololá	4	Finca Santa Victoria	10	Octubre	2023-10-26T00:00:00	2024-11-08T18:00:00	1	Precipitación	0
138636	7	Sololá	701	Sololá	4	Finca Santa Victoria	10	Octubre	2023-10-26T00:00:00	2024-11-08T18:00:00	8	Radiación solar	13
138637	7	Sololá	701	Sololá	4	Finca Santa Victoria	10	Octubre	2023-10-26T00:00:00	2024-11-08T19:00:00	2	Temperatura media	16.7
138638	7	Sololá	701	Sololá	4	Finca Santa Victoria	10	Octubre	2023-10-26T00:00:00	2024-11-08T19:00:00	4	Temperatura máxima	17.5
138639	7	Sololá	701	Sololá	4	Finca Santa Victoria	10	Octubre	2023-10-26T00:00:00	2024-11-08T19:00:00	3	Temperatura mínima	16.6
138640	7	Sololá	701	Sololá	4	Finca Santa Victoria	10	Octubre	2023-10-26T00:00:00	2024-11-08T19:00:00	5	Humedad	91
138641	7	Sololá	701	Sololá	4	Finca Santa Victoria	10	Octubre	2023-10-26T00:00:00	2024-11-08T19:00:00	6	Velocidad del viento	0
138642	7	Sololá	701	Sololá	4	Finca Santa Victoria	10	Octubre	2023-10-26T00:00:00	2024-11-08T19:00:00	7	Dirección del viento	0
138643	7	Sololá	701	Sololá	4	Finca Santa Victoria	10	Octubre	2023-10-26T00:00:00	2024-11-08T19:00:00	1	Precipitación	0
138644	7	Sololá	701	Sololá	4	Finca Santa Victoria	10	Octubre	2023-10-26T00:00:00	2024-11-08T19:00:00	8	Radiación solar	0
138645	7	Sololá	701	Sololá	4	Finca Santa Victoria	10	Octubre	2023-10-26T00:00:00	2024-11-08T20:00:00	2	Temperatura media	15.3
138646	7	Sololá	701	Sololá	4	Finca Santa Victoria	10	Octubre	2023-10-26T00:00:00	2024-11-08T20:00:00	4	Temperatura máxima	15.9
138647	7	Sololá	701	Sololá	4	Finca Santa Victoria	10	Octubre	2023-10-26T00:00:00	2024-11-08T20:00:00	3	Temperatura mínima	15.3
138648	7	Sololá	701	Sololá	4	Finca Santa Victoria	10	Octubre	2023-10-26T00:00:00	2024-11-08T20:00:00	5	Humedad	93
138649	7	Sololá	701	Sololá	4	Finca Santa Victoria	10	Octubre	2023-10-26T00:00:00	2024-11-08T20:00:00	6	Velocidad del viento	0
138650	7	Sololá	701	Sololá	4	Finca Santa Victoria	10	Octubre	2023-10-26T00:00:00	2024-11-08T20:00:00	7	Dirección del viento	0
138651	7	Sololá	701	Sololá	4	Finca Santa Victoria	10	Octubre	2023-10-26T00:00:00	2024-11-08T20:00:00	1	Precipitación	0
138652	7	Sololá	701	Sololá	4	Finca Santa Victoria	10	Octubre	2023-10-26T00:00:00	2024-11-08T20:00:00	8	Radiación solar	0
138653	7	Sololá	701	Sololá	4	Finca Santa Victoria	10	Octubre	2023-10-26T00:00:00	2024-11-08T21:00:00	2	Temperatura media	15.1
138654	7	Sololá	701	Sololá	4	Finca Santa Victoria	10	Octubre	2023-10-26T00:00:00	2024-11-08T21:00:00	4	Temperatura máxima	15.1
138655	7	Sololá	701	Sololá	4	Finca Santa Victoria	10	Octubre	2023-10-26T00:00:00	2024-11-08T21:00:00	3	Temperatura mínima	14.9
138656	7	Sololá	701	Sololá	4	Finca Santa Victoria	10	Octubre	2023-10-26T00:00:00	2024-11-08T21:00:00	5	Humedad	93
138657	7	Sololá	701	Sololá	4	Finca Santa Victoria	10	Octubre	2023-10-26T00:00:00	2024-11-08T21:00:00	6	Velocidad del viento	0
138658	7	Sololá	701	Sololá	4	Finca Santa Victoria	10	Octubre	2023-10-26T00:00:00	2024-11-08T21:00:00	7	Dirección del viento	0
138659	7	Sololá	701	Sololá	4	Finca Santa Victoria	10	Octubre	2023-10-26T00:00:00	2024-11-08T21:00:00	1	Precipitación	0
138660	7	Sololá	701	Sololá	4	Finca Santa Victoria	10	Octubre	2023-10-26T00:00:00	2024-11-08T21:00:00	8	Radiación solar	0
138661	7	Sololá	701	Sololá	4	Finca Santa Victoria	10	Octubre	2023-10-26T00:00:00	2024-11-08T22:00:00	2	Temperatura media	15.1
138662	7	Sololá	701	Sololá	4	Finca Santa Victoria	10	Octubre	2023-10-26T00:00:00	2024-11-08T22:00:00	4	Temperatura máxima	15.3
138663	7	Sololá	701	Sololá	4	Finca Santa Victoria	10	Octubre	2023-10-26T00:00:00	2024-11-08T22:00:00	3	Temperatura mínima	15.1
138664	7	Sololá	701	Sololá	4	Finca Santa Victoria	10	Octubre	2023-10-26T00:00:00	2024-11-08T22:00:00	5	Humedad	94
138665	7	Sololá	701	Sololá	4	Finca Santa Victoria	10	Octubre	2023-10-26T00:00:00	2024-11-08T22:00:00	6	Velocidad del viento	0
138666	7	Sololá	701	Sololá	4	Finca Santa Victoria	10	Octubre	2023-10-26T00:00:00	2024-11-08T22:00:00	7	Dirección del viento	0
138667	7	Sololá	701	Sololá	4	Finca Santa Victoria	10	Octubre	2023-10-26T00:00:00	2024-11-08T22:00:00	1	Precipitación	0
138668	7	Sololá	701	Sololá	4	Finca Santa Victoria	10	Octubre	2023-10-26T00:00:00	2024-11-08T22:00:00	8	Radiación solar	0
138669	7	Sololá	701	Sololá	4	Finca Santa Victoria	10	Octubre	2023-10-26T00:00:00	2024-11-08T23:00:00	2	Temperatura media	17.3
138670	7	Sololá	701	Sololá	4	Finca Santa Victoria	10	Octubre	2023-10-26T00:00:00	2024-11-08T23:00:00	4	Temperatura máxima	17.3
138671	7	Sololá	701	Sololá	4	Finca Santa Victoria	10	Octubre	2023-10-26T00:00:00	2024-11-08T23:00:00	3	Temperatura mínima	15.4
138672	7	Sololá	701	Sololá	4	Finca Santa Victoria	10	Octubre	2023-10-26T00:00:00	2024-11-08T23:00:00	5	Humedad	86
138673	7	Sololá	701	Sololá	4	Finca Santa Victoria	10	Octubre	2023-10-26T00:00:00	2024-11-08T23:00:00	6	Velocidad del viento	1.6
138674	7	Sololá	701	Sololá	4	Finca Santa Victoria	10	Octubre	2023-10-26T00:00:00	2024-11-08T23:00:00	7	Dirección del viento	0.8
138675	7	Sololá	701	Sololá	4	Finca Santa Victoria	10	Octubre	2023-10-26T00:00:00	2024-11-08T23:00:00	1	Precipitación	0
138676	7	Sololá	701	Sololá	4	Finca Santa Victoria	10	Octubre	2023-10-26T00:00:00	2024-11-08T23:00:00	8	Radiación solar	0
138677	7	Sololá	701	Sololá	4	Finca Santa Victoria	10	Octubre	2023-10-27T00:00:00	2024-11-08T00:00:00	2	Temperatura media	16.5
138678	7	Sololá	701	Sololá	4	Finca Santa Victoria	10	Octubre	2023-10-27T00:00:00	2024-11-08T00:00:00	4	Temperatura máxima	16.8
138679	7	Sololá	701	Sololá	4	Finca Santa Victoria	10	Octubre	2023-10-27T00:00:00	2024-11-08T00:00:00	3	Temperatura mínima	16.5
138680	7	Sololá	701	Sololá	4	Finca Santa Victoria	10	Octubre	2023-10-27T00:00:00	2024-11-08T00:00:00	5	Humedad	89
138681	7	Sololá	701	Sololá	4	Finca Santa Victoria	10	Octubre	2023-10-27T00:00:00	2024-11-08T00:00:00	6	Velocidad del viento	1.6
138682	7	Sololá	701	Sololá	4	Finca Santa Victoria	10	Octubre	2023-10-27T00:00:00	2024-11-08T00:00:00	7	Dirección del viento	0.8
138683	7	Sololá	701	Sololá	4	Finca Santa Victoria	10	Octubre	2023-10-27T00:00:00	2024-11-08T00:00:00	1	Precipitación	0
138684	7	Sololá	701	Sololá	4	Finca Santa Victoria	10	Octubre	2023-10-27T00:00:00	2024-11-08T00:00:00	8	Radiación solar	0
138685	7	Sololá	701	Sololá	4	Finca Santa Victoria	10	Octubre	2023-10-27T00:00:00	2024-11-08T01:00:00	2	Temperatura media	17.5
138686	7	Sololá	701	Sololá	4	Finca Santa Victoria	10	Octubre	2023-10-27T00:00:00	2024-11-08T01:00:00	4	Temperatura máxima	17.6
138687	7	Sololá	701	Sololá	4	Finca Santa Victoria	10	Octubre	2023-10-27T00:00:00	2024-11-08T01:00:00	3	Temperatura mínima	17.1
138688	7	Sololá	701	Sololá	4	Finca Santa Victoria	10	Octubre	2023-10-27T00:00:00	2024-11-08T01:00:00	5	Humedad	84
138689	7	Sololá	701	Sololá	4	Finca Santa Victoria	10	Octubre	2023-10-27T00:00:00	2024-11-08T01:00:00	6	Velocidad del viento	4.8
138690	7	Sololá	701	Sololá	4	Finca Santa Victoria	10	Octubre	2023-10-27T00:00:00	2024-11-08T01:00:00	7	Dirección del viento	2.41
138691	7	Sololá	701	Sololá	4	Finca Santa Victoria	10	Octubre	2023-10-27T00:00:00	2024-11-08T01:00:00	1	Precipitación	0
138692	7	Sololá	701	Sololá	4	Finca Santa Victoria	10	Octubre	2023-10-27T00:00:00	2024-11-08T01:00:00	8	Radiación solar	0
138693	7	Sololá	701	Sololá	4	Finca Santa Victoria	10	Octubre	2023-10-27T00:00:00	2024-11-08T02:00:00	2	Temperatura media	17.3
138694	7	Sololá	701	Sololá	4	Finca Santa Victoria	10	Octubre	2023-10-27T00:00:00	2024-11-08T02:00:00	4	Temperatura máxima	17.4
138695	7	Sololá	701	Sololá	4	Finca Santa Victoria	10	Octubre	2023-10-27T00:00:00	2024-11-08T02:00:00	3	Temperatura mínima	17.1
138696	7	Sololá	701	Sololá	4	Finca Santa Victoria	10	Octubre	2023-10-27T00:00:00	2024-11-08T02:00:00	5	Humedad	85
138697	7	Sololá	701	Sololá	4	Finca Santa Victoria	10	Octubre	2023-10-27T00:00:00	2024-11-08T02:00:00	6	Velocidad del viento	4.8
138698	7	Sololá	701	Sololá	4	Finca Santa Victoria	10	Octubre	2023-10-27T00:00:00	2024-11-08T02:00:00	7	Dirección del viento	2.41
138699	7	Sololá	701	Sololá	4	Finca Santa Victoria	10	Octubre	2023-10-27T00:00:00	2024-11-08T02:00:00	1	Precipitación	0
138700	7	Sololá	701	Sololá	4	Finca Santa Victoria	10	Octubre	2023-10-27T00:00:00	2024-11-08T02:00:00	8	Radiación solar	0
138701	7	Sololá	701	Sololá	4	Finca Santa Victoria	10	Octubre	2023-10-27T00:00:00	2024-11-08T03:00:00	2	Temperatura media	16.8
138702	7	Sololá	701	Sololá	4	Finca Santa Victoria	10	Octubre	2023-10-27T00:00:00	2024-11-08T03:00:00	4	Temperatura máxima	17.1
138703	7	Sololá	701	Sololá	4	Finca Santa Victoria	10	Octubre	2023-10-27T00:00:00	2024-11-08T03:00:00	3	Temperatura mínima	16.8
138704	7	Sololá	701	Sololá	4	Finca Santa Victoria	10	Octubre	2023-10-27T00:00:00	2024-11-08T03:00:00	5	Humedad	87
138705	7	Sololá	701	Sololá	4	Finca Santa Victoria	10	Octubre	2023-10-27T00:00:00	2024-11-08T03:00:00	6	Velocidad del viento	6.4
138706	7	Sololá	701	Sololá	4	Finca Santa Victoria	10	Octubre	2023-10-27T00:00:00	2024-11-08T03:00:00	7	Dirección del viento	3.22
138707	7	Sololá	701	Sololá	4	Finca Santa Victoria	10	Octubre	2023-10-27T00:00:00	2024-11-08T03:00:00	1	Precipitación	0
138708	7	Sololá	701	Sololá	4	Finca Santa Victoria	10	Octubre	2023-10-27T00:00:00	2024-11-08T03:00:00	8	Radiación solar	0
138709	7	Sololá	701	Sololá	4	Finca Santa Victoria	10	Octubre	2023-10-27T00:00:00	2024-11-08T04:00:00	2	Temperatura media	16.9
138710	7	Sololá	701	Sololá	4	Finca Santa Victoria	10	Octubre	2023-10-27T00:00:00	2024-11-08T04:00:00	4	Temperatura máxima	16.9
138711	7	Sololá	701	Sololá	4	Finca Santa Victoria	10	Octubre	2023-10-27T00:00:00	2024-11-08T04:00:00	3	Temperatura mínima	16.7
138712	7	Sololá	701	Sololá	4	Finca Santa Victoria	10	Octubre	2023-10-27T00:00:00	2024-11-08T04:00:00	5	Humedad	85
138713	7	Sololá	701	Sololá	4	Finca Santa Victoria	10	Octubre	2023-10-27T00:00:00	2024-11-08T04:00:00	6	Velocidad del viento	8
138714	7	Sololá	701	Sololá	4	Finca Santa Victoria	10	Octubre	2023-10-27T00:00:00	2024-11-08T04:00:00	7	Dirección del viento	4.02
138715	7	Sololá	701	Sololá	4	Finca Santa Victoria	10	Octubre	2023-10-27T00:00:00	2024-11-08T04:00:00	1	Precipitación	0
138716	7	Sololá	701	Sololá	4	Finca Santa Victoria	10	Octubre	2023-10-27T00:00:00	2024-11-08T04:00:00	8	Radiación solar	0
138717	7	Sololá	701	Sololá	4	Finca Santa Victoria	10	Octubre	2023-10-27T00:00:00	2024-11-08T05:00:00	2	Temperatura media	16.7
138718	7	Sololá	701	Sololá	4	Finca Santa Victoria	10	Octubre	2023-10-27T00:00:00	2024-11-08T05:00:00	4	Temperatura máxima	16.9
138719	7	Sololá	701	Sololá	4	Finca Santa Victoria	10	Octubre	2023-10-27T00:00:00	2024-11-08T05:00:00	3	Temperatura mínima	16.7
138720	7	Sololá	701	Sololá	4	Finca Santa Victoria	10	Octubre	2023-10-27T00:00:00	2024-11-08T05:00:00	5	Humedad	85
138721	7	Sololá	701	Sololá	4	Finca Santa Victoria	10	Octubre	2023-10-27T00:00:00	2024-11-08T05:00:00	6	Velocidad del viento	11.3
138722	7	Sololá	701	Sololá	4	Finca Santa Victoria	10	Octubre	2023-10-27T00:00:00	2024-11-08T05:00:00	7	Dirección del viento	5.63
138723	7	Sololá	701	Sololá	4	Finca Santa Victoria	10	Octubre	2023-10-27T00:00:00	2024-11-08T05:00:00	1	Precipitación	0
138724	7	Sololá	701	Sololá	4	Finca Santa Victoria	10	Octubre	2023-10-27T00:00:00	2024-11-08T05:00:00	8	Radiación solar	0
138725	7	Sololá	701	Sololá	4	Finca Santa Victoria	10	Octubre	2023-10-27T00:00:00	2024-11-08T06:00:00	2	Temperatura media	16.7
138726	7	Sololá	701	Sololá	4	Finca Santa Victoria	10	Octubre	2023-10-27T00:00:00	2024-11-08T06:00:00	4	Temperatura máxima	17
138727	7	Sololá	701	Sololá	4	Finca Santa Victoria	10	Octubre	2023-10-27T00:00:00	2024-11-08T06:00:00	3	Temperatura mínima	16.7
138728	7	Sololá	701	Sololá	4	Finca Santa Victoria	10	Octubre	2023-10-27T00:00:00	2024-11-08T06:00:00	5	Humedad	85
138729	7	Sololá	701	Sololá	4	Finca Santa Victoria	10	Octubre	2023-10-27T00:00:00	2024-11-08T06:00:00	6	Velocidad del viento	8
138730	7	Sololá	701	Sololá	4	Finca Santa Victoria	10	Octubre	2023-10-27T00:00:00	2024-11-08T06:00:00	7	Dirección del viento	4.02
138731	7	Sololá	701	Sololá	4	Finca Santa Victoria	10	Octubre	2023-10-27T00:00:00	2024-11-08T06:00:00	1	Precipitación	0
138732	7	Sololá	701	Sololá	4	Finca Santa Victoria	10	Octubre	2023-10-27T00:00:00	2024-11-08T06:00:00	8	Radiación solar	0
138733	7	Sololá	701	Sololá	4	Finca Santa Victoria	10	Octubre	2023-10-27T00:00:00	2024-11-08T07:00:00	2	Temperatura media	17.9
138734	7	Sololá	701	Sololá	4	Finca Santa Victoria	10	Octubre	2023-10-27T00:00:00	2024-11-08T07:00:00	4	Temperatura máxima	17.9
138735	7	Sololá	701	Sololá	4	Finca Santa Victoria	10	Octubre	2023-10-27T00:00:00	2024-11-08T07:00:00	3	Temperatura mínima	16.8
138736	7	Sololá	701	Sololá	4	Finca Santa Victoria	10	Octubre	2023-10-27T00:00:00	2024-11-08T07:00:00	5	Humedad	84
138737	7	Sololá	701	Sololá	4	Finca Santa Victoria	10	Octubre	2023-10-27T00:00:00	2024-11-08T07:00:00	6	Velocidad del viento	3.2
138738	7	Sololá	701	Sololá	4	Finca Santa Victoria	10	Octubre	2023-10-27T00:00:00	2024-11-08T07:00:00	7	Dirección del viento	1.61
138739	7	Sololá	701	Sololá	4	Finca Santa Victoria	10	Octubre	2023-10-27T00:00:00	2024-11-08T07:00:00	1	Precipitación	0
138740	7	Sololá	701	Sololá	4	Finca Santa Victoria	10	Octubre	2023-10-27T00:00:00	2024-11-08T07:00:00	8	Radiación solar	17
138741	7	Sololá	701	Sololá	4	Finca Santa Victoria	10	Octubre	2023-10-27T00:00:00	2024-11-08T08:00:00	2	Temperatura media	19.8
138742	7	Sololá	701	Sololá	4	Finca Santa Victoria	10	Octubre	2023-10-27T00:00:00	2024-11-08T08:00:00	4	Temperatura máxima	20.5
138743	7	Sololá	701	Sololá	4	Finca Santa Victoria	10	Octubre	2023-10-27T00:00:00	2024-11-08T08:00:00	3	Temperatura mínima	19.5
138744	7	Sololá	701	Sololá	4	Finca Santa Victoria	10	Octubre	2023-10-27T00:00:00	2024-11-08T08:00:00	5	Humedad	78
138745	7	Sololá	701	Sololá	4	Finca Santa Victoria	10	Octubre	2023-10-27T00:00:00	2024-11-08T08:00:00	6	Velocidad del viento	6.4
138746	7	Sololá	701	Sololá	4	Finca Santa Victoria	10	Octubre	2023-10-27T00:00:00	2024-11-08T08:00:00	7	Dirección del viento	3.22
138747	7	Sololá	701	Sololá	4	Finca Santa Victoria	10	Octubre	2023-10-27T00:00:00	2024-11-08T08:00:00	1	Precipitación	0
138748	7	Sololá	701	Sololá	4	Finca Santa Victoria	10	Octubre	2023-10-27T00:00:00	2024-11-08T08:00:00	8	Radiación solar	90
138749	7	Sololá	701	Sololá	4	Finca Santa Victoria	10	Octubre	2023-10-27T00:00:00	2024-11-08T09:00:00	2	Temperatura media	19.2
138750	7	Sololá	701	Sololá	4	Finca Santa Victoria	10	Octubre	2023-10-27T00:00:00	2024-11-08T09:00:00	4	Temperatura máxima	19.9
138751	7	Sololá	701	Sololá	4	Finca Santa Victoria	10	Octubre	2023-10-27T00:00:00	2024-11-08T09:00:00	3	Temperatura mínima	19.2
138752	7	Sololá	701	Sololá	4	Finca Santa Victoria	10	Octubre	2023-10-27T00:00:00	2024-11-08T09:00:00	5	Humedad	81
138753	7	Sololá	701	Sololá	4	Finca Santa Victoria	10	Octubre	2023-10-27T00:00:00	2024-11-08T09:00:00	6	Velocidad del viento	9.7
138754	7	Sololá	701	Sololá	4	Finca Santa Victoria	10	Octubre	2023-10-27T00:00:00	2024-11-08T09:00:00	7	Dirección del viento	4.83
138755	7	Sololá	701	Sololá	4	Finca Santa Victoria	10	Octubre	2023-10-27T00:00:00	2024-11-08T09:00:00	1	Precipitación	0
138756	7	Sololá	701	Sololá	4	Finca Santa Victoria	10	Octubre	2023-10-27T00:00:00	2024-11-08T09:00:00	8	Radiación solar	472
138757	7	Sololá	701	Sololá	4	Finca Santa Victoria	10	Octubre	2023-10-27T00:00:00	2024-11-08T10:00:00	2	Temperatura media	21.1
138758	7	Sololá	701	Sololá	4	Finca Santa Victoria	10	Octubre	2023-10-27T00:00:00	2024-11-08T10:00:00	4	Temperatura máxima	21.1
138759	7	Sololá	701	Sololá	4	Finca Santa Victoria	10	Octubre	2023-10-27T00:00:00	2024-11-08T10:00:00	3	Temperatura mínima	20.2
138760	7	Sololá	701	Sololá	4	Finca Santa Victoria	10	Octubre	2023-10-27T00:00:00	2024-11-08T10:00:00	5	Humedad	72
138761	7	Sololá	701	Sololá	4	Finca Santa Victoria	10	Octubre	2023-10-27T00:00:00	2024-11-08T10:00:00	6	Velocidad del viento	8
138762	7	Sololá	701	Sololá	4	Finca Santa Victoria	10	Octubre	2023-10-27T00:00:00	2024-11-08T10:00:00	7	Dirección del viento	4.02
138763	7	Sololá	701	Sololá	4	Finca Santa Victoria	10	Octubre	2023-10-27T00:00:00	2024-11-08T10:00:00	1	Precipitación	0
138764	7	Sololá	701	Sololá	4	Finca Santa Victoria	10	Octubre	2023-10-27T00:00:00	2024-11-08T10:00:00	8	Radiación solar	649
138765	7	Sololá	701	Sololá	4	Finca Santa Victoria	10	Octubre	2023-10-27T00:00:00	2024-11-08T11:00:00	2	Temperatura media	20.5
138766	7	Sololá	701	Sololá	4	Finca Santa Victoria	10	Octubre	2023-10-27T00:00:00	2024-11-08T11:00:00	4	Temperatura máxima	23.1
138767	7	Sololá	701	Sololá	4	Finca Santa Victoria	10	Octubre	2023-10-27T00:00:00	2024-11-08T11:00:00	3	Temperatura mínima	20.5
138768	7	Sololá	701	Sololá	4	Finca Santa Victoria	10	Octubre	2023-10-27T00:00:00	2024-11-08T11:00:00	5	Humedad	71
138769	7	Sololá	701	Sololá	4	Finca Santa Victoria	10	Octubre	2023-10-27T00:00:00	2024-11-08T11:00:00	6	Velocidad del viento	9.7
138770	7	Sololá	701	Sololá	4	Finca Santa Victoria	10	Octubre	2023-10-27T00:00:00	2024-11-08T11:00:00	7	Dirección del viento	4.83
138771	7	Sololá	701	Sololá	4	Finca Santa Victoria	10	Octubre	2023-10-27T00:00:00	2024-11-08T11:00:00	1	Precipitación	0
138772	7	Sololá	701	Sololá	4	Finca Santa Victoria	10	Octubre	2023-10-27T00:00:00	2024-11-08T11:00:00	8	Radiación solar	762
138773	7	Sololá	701	Sololá	4	Finca Santa Victoria	10	Octubre	2023-10-27T00:00:00	2024-11-08T12:00:00	2	Temperatura media	21.7
138774	7	Sololá	701	Sololá	4	Finca Santa Victoria	10	Octubre	2023-10-27T00:00:00	2024-11-08T12:00:00	4	Temperatura máxima	21.8
138775	7	Sololá	701	Sololá	4	Finca Santa Victoria	10	Octubre	2023-10-27T00:00:00	2024-11-08T12:00:00	3	Temperatura mínima	21.2
138776	7	Sololá	701	Sololá	4	Finca Santa Victoria	10	Octubre	2023-10-27T00:00:00	2024-11-08T12:00:00	5	Humedad	67
138777	7	Sololá	701	Sololá	4	Finca Santa Victoria	10	Octubre	2023-10-27T00:00:00	2024-11-08T12:00:00	6	Velocidad del viento	9.7
138778	7	Sololá	701	Sololá	4	Finca Santa Victoria	10	Octubre	2023-10-27T00:00:00	2024-11-08T12:00:00	7	Dirección del viento	4.83
138779	7	Sololá	701	Sololá	4	Finca Santa Victoria	10	Octubre	2023-10-27T00:00:00	2024-11-08T12:00:00	1	Precipitación	0
138780	7	Sololá	701	Sololá	4	Finca Santa Victoria	10	Octubre	2023-10-27T00:00:00	2024-11-08T12:00:00	8	Radiación solar	866
138781	7	Sololá	701	Sololá	4	Finca Santa Victoria	10	Octubre	2023-10-27T00:00:00	2024-11-08T13:00:00	2	Temperatura media	21.3
138782	7	Sololá	701	Sololá	4	Finca Santa Victoria	10	Octubre	2023-10-27T00:00:00	2024-11-08T13:00:00	4	Temperatura máxima	21.7
138783	7	Sololá	701	Sololá	4	Finca Santa Victoria	10	Octubre	2023-10-27T00:00:00	2024-11-08T13:00:00	3	Temperatura mínima	21.3
138784	7	Sololá	701	Sololá	4	Finca Santa Victoria	10	Octubre	2023-10-27T00:00:00	2024-11-08T13:00:00	5	Humedad	72
138785	7	Sololá	701	Sololá	4	Finca Santa Victoria	10	Octubre	2023-10-27T00:00:00	2024-11-08T13:00:00	6	Velocidad del viento	6.4
138786	7	Sololá	701	Sololá	4	Finca Santa Victoria	10	Octubre	2023-10-27T00:00:00	2024-11-08T13:00:00	7	Dirección del viento	3.22
138787	7	Sololá	701	Sololá	4	Finca Santa Victoria	10	Octubre	2023-10-27T00:00:00	2024-11-08T13:00:00	1	Precipitación	0
138788	7	Sololá	701	Sololá	4	Finca Santa Victoria	10	Octubre	2023-10-27T00:00:00	2024-11-08T13:00:00	8	Radiación solar	433
138789	7	Sololá	701	Sololá	4	Finca Santa Victoria	10	Octubre	2023-10-27T00:00:00	2024-11-08T14:00:00	2	Temperatura media	18.1
138790	7	Sololá	701	Sololá	4	Finca Santa Victoria	10	Octubre	2023-10-27T00:00:00	2024-11-08T14:00:00	4	Temperatura máxima	18.8
138791	7	Sololá	701	Sololá	4	Finca Santa Victoria	10	Octubre	2023-10-27T00:00:00	2024-11-08T14:00:00	3	Temperatura mínima	18.1
138792	7	Sololá	701	Sololá	4	Finca Santa Victoria	10	Octubre	2023-10-27T00:00:00	2024-11-08T14:00:00	5	Humedad	87
138793	7	Sololá	701	Sololá	4	Finca Santa Victoria	10	Octubre	2023-10-27T00:00:00	2024-11-08T14:00:00	6	Velocidad del viento	4.8
138794	7	Sololá	701	Sololá	4	Finca Santa Victoria	10	Octubre	2023-10-27T00:00:00	2024-11-08T14:00:00	7	Dirección del viento	2.41
138795	7	Sololá	701	Sololá	4	Finca Santa Victoria	10	Octubre	2023-10-27T00:00:00	2024-11-08T14:00:00	1	Precipitación	0.6
138796	7	Sololá	701	Sololá	4	Finca Santa Victoria	10	Octubre	2023-10-27T00:00:00	2024-11-08T14:00:00	8	Radiación solar	274
138797	7	Sololá	701	Sololá	4	Finca Santa Victoria	10	Octubre	2023-10-27T00:00:00	2024-11-08T15:00:00	2	Temperatura media	18.9
138798	7	Sololá	701	Sololá	4	Finca Santa Victoria	10	Octubre	2023-10-27T00:00:00	2024-11-08T15:00:00	4	Temperatura máxima	18.9
138799	7	Sololá	701	Sololá	4	Finca Santa Victoria	10	Octubre	2023-10-27T00:00:00	2024-11-08T15:00:00	3	Temperatura mínima	17.7
138800	7	Sololá	701	Sololá	4	Finca Santa Victoria	10	Octubre	2023-10-27T00:00:00	2024-11-08T15:00:00	5	Humedad	81
138801	7	Sololá	701	Sololá	4	Finca Santa Victoria	10	Octubre	2023-10-27T00:00:00	2024-11-08T15:00:00	6	Velocidad del viento	6.4
138802	7	Sololá	701	Sololá	4	Finca Santa Victoria	10	Octubre	2023-10-27T00:00:00	2024-11-08T15:00:00	7	Dirección del viento	3.22
138803	7	Sololá	701	Sololá	4	Finca Santa Victoria	10	Octubre	2023-10-27T00:00:00	2024-11-08T15:00:00	1	Precipitación	0
138804	7	Sololá	701	Sololá	4	Finca Santa Victoria	10	Octubre	2023-10-27T00:00:00	2024-11-08T15:00:00	8	Radiación solar	152
138805	7	Sololá	701	Sololá	4	Finca Santa Victoria	10	Octubre	2023-10-27T00:00:00	2024-11-08T16:00:00	2	Temperatura media	18.7
138806	7	Sololá	701	Sololá	4	Finca Santa Victoria	10	Octubre	2023-10-27T00:00:00	2024-11-08T16:00:00	4	Temperatura máxima	18.7
138807	7	Sololá	701	Sololá	4	Finca Santa Victoria	10	Octubre	2023-10-27T00:00:00	2024-11-08T16:00:00	3	Temperatura mínima	18.4
138808	7	Sololá	701	Sololá	4	Finca Santa Victoria	10	Octubre	2023-10-27T00:00:00	2024-11-08T16:00:00	5	Humedad	81
138809	7	Sololá	701	Sololá	4	Finca Santa Victoria	10	Octubre	2023-10-27T00:00:00	2024-11-08T16:00:00	6	Velocidad del viento	6.4
138810	7	Sololá	701	Sololá	4	Finca Santa Victoria	10	Octubre	2023-10-27T00:00:00	2024-11-08T16:00:00	7	Dirección del viento	3.22
138811	7	Sololá	701	Sololá	4	Finca Santa Victoria	10	Octubre	2023-10-27T00:00:00	2024-11-08T16:00:00	1	Precipitación	0
138812	7	Sololá	701	Sololá	4	Finca Santa Victoria	10	Octubre	2023-10-27T00:00:00	2024-11-08T16:00:00	8	Radiación solar	173
138813	7	Sololá	701	Sololá	4	Finca Santa Victoria	10	Octubre	2023-10-27T00:00:00	2024-11-08T17:00:00	2	Temperatura media	18.4
138814	7	Sololá	701	Sololá	4	Finca Santa Victoria	10	Octubre	2023-10-27T00:00:00	2024-11-08T17:00:00	4	Temperatura máxima	19.3
138815	7	Sololá	701	Sololá	4	Finca Santa Victoria	10	Octubre	2023-10-27T00:00:00	2024-11-08T17:00:00	3	Temperatura mínima	18.4
138816	7	Sololá	701	Sololá	4	Finca Santa Victoria	10	Octubre	2023-10-27T00:00:00	2024-11-08T17:00:00	5	Humedad	82
138817	7	Sololá	701	Sololá	4	Finca Santa Victoria	10	Octubre	2023-10-27T00:00:00	2024-11-08T17:00:00	6	Velocidad del viento	6.4
138818	7	Sololá	701	Sololá	4	Finca Santa Victoria	10	Octubre	2023-10-27T00:00:00	2024-11-08T17:00:00	7	Dirección del viento	3.22
138819	7	Sololá	701	Sololá	4	Finca Santa Victoria	10	Octubre	2023-10-27T00:00:00	2024-11-08T17:00:00	1	Precipitación	0
138820	7	Sololá	701	Sololá	4	Finca Santa Victoria	10	Octubre	2023-10-27T00:00:00	2024-11-08T17:00:00	8	Radiación solar	61
138821	7	Sololá	701	Sololá	4	Finca Santa Victoria	10	Octubre	2023-10-27T00:00:00	2024-11-08T18:00:00	2	Temperatura media	17.7
138822	7	Sololá	701	Sololá	4	Finca Santa Victoria	10	Octubre	2023-10-27T00:00:00	2024-11-08T18:00:00	4	Temperatura máxima	17.9
138823	7	Sololá	701	Sololá	4	Finca Santa Victoria	10	Octubre	2023-10-27T00:00:00	2024-11-08T18:00:00	3	Temperatura mínima	17.7
138824	7	Sololá	701	Sololá	4	Finca Santa Victoria	10	Octubre	2023-10-27T00:00:00	2024-11-08T18:00:00	5	Humedad	84
138825	7	Sololá	701	Sololá	4	Finca Santa Victoria	10	Octubre	2023-10-27T00:00:00	2024-11-08T18:00:00	6	Velocidad del viento	6.4
138826	7	Sololá	701	Sololá	4	Finca Santa Victoria	10	Octubre	2023-10-27T00:00:00	2024-11-08T18:00:00	7	Dirección del viento	3.22
138827	7	Sololá	701	Sololá	4	Finca Santa Victoria	10	Octubre	2023-10-27T00:00:00	2024-11-08T18:00:00	1	Precipitación	0
138828	7	Sololá	701	Sololá	4	Finca Santa Victoria	10	Octubre	2023-10-27T00:00:00	2024-11-08T18:00:00	8	Radiación solar	4
138829	7	Sololá	701	Sololá	4	Finca Santa Victoria	10	Octubre	2023-10-27T00:00:00	2024-11-08T19:00:00	2	Temperatura media	17.9
138830	7	Sololá	701	Sololá	4	Finca Santa Victoria	10	Octubre	2023-10-27T00:00:00	2024-11-08T19:00:00	4	Temperatura máxima	17.9
138831	7	Sololá	701	Sololá	4	Finca Santa Victoria	10	Octubre	2023-10-27T00:00:00	2024-11-08T19:00:00	3	Temperatura mínima	17.6
138832	7	Sololá	701	Sololá	4	Finca Santa Victoria	10	Octubre	2023-10-27T00:00:00	2024-11-08T19:00:00	5	Humedad	84
138833	7	Sololá	701	Sololá	4	Finca Santa Victoria	10	Octubre	2023-10-27T00:00:00	2024-11-08T19:00:00	6	Velocidad del viento	6.4
138834	7	Sololá	701	Sololá	4	Finca Santa Victoria	10	Octubre	2023-10-27T00:00:00	2024-11-08T19:00:00	7	Dirección del viento	3.22
138835	7	Sololá	701	Sololá	4	Finca Santa Victoria	10	Octubre	2023-10-27T00:00:00	2024-11-08T19:00:00	1	Precipitación	0
138836	7	Sololá	701	Sololá	4	Finca Santa Victoria	10	Octubre	2023-10-27T00:00:00	2024-11-08T19:00:00	8	Radiación solar	0
138837	7	Sololá	701	Sololá	4	Finca Santa Victoria	10	Octubre	2023-10-27T00:00:00	2024-11-08T20:00:00	2	Temperatura media	16.8
138838	7	Sololá	701	Sololá	4	Finca Santa Victoria	10	Octubre	2023-10-27T00:00:00	2024-11-08T20:00:00	4	Temperatura máxima	17.4
138839	7	Sololá	701	Sololá	4	Finca Santa Victoria	10	Octubre	2023-10-27T00:00:00	2024-11-08T20:00:00	3	Temperatura mínima	16.8
138840	7	Sololá	701	Sololá	4	Finca Santa Victoria	10	Octubre	2023-10-27T00:00:00	2024-11-08T20:00:00	5	Humedad	89
138841	7	Sololá	701	Sololá	4	Finca Santa Victoria	10	Octubre	2023-10-27T00:00:00	2024-11-08T20:00:00	6	Velocidad del viento	8
138842	7	Sololá	701	Sololá	4	Finca Santa Victoria	10	Octubre	2023-10-27T00:00:00	2024-11-08T20:00:00	7	Dirección del viento	4.02
138843	7	Sololá	701	Sololá	4	Finca Santa Victoria	10	Octubre	2023-10-27T00:00:00	2024-11-08T20:00:00	1	Precipitación	0
138844	7	Sololá	701	Sololá	4	Finca Santa Victoria	10	Octubre	2023-10-27T00:00:00	2024-11-08T20:00:00	8	Radiación solar	0
138845	7	Sololá	701	Sololá	4	Finca Santa Victoria	10	Octubre	2023-10-27T00:00:00	2024-11-08T21:00:00	2	Temperatura media	16.9
138846	7	Sololá	701	Sololá	4	Finca Santa Victoria	10	Octubre	2023-10-27T00:00:00	2024-11-08T21:00:00	4	Temperatura máxima	16.9
138847	7	Sololá	701	Sololá	4	Finca Santa Victoria	10	Octubre	2023-10-27T00:00:00	2024-11-08T21:00:00	3	Temperatura mínima	16.6
138848	7	Sololá	701	Sololá	4	Finca Santa Victoria	10	Octubre	2023-10-27T00:00:00	2024-11-08T21:00:00	5	Humedad	87
138849	7	Sololá	701	Sololá	4	Finca Santa Victoria	10	Octubre	2023-10-27T00:00:00	2024-11-08T21:00:00	6	Velocidad del viento	9.7
138850	7	Sololá	701	Sololá	4	Finca Santa Victoria	10	Octubre	2023-10-27T00:00:00	2024-11-08T21:00:00	7	Dirección del viento	4.83
138851	7	Sololá	701	Sololá	4	Finca Santa Victoria	10	Octubre	2023-10-27T00:00:00	2024-11-08T21:00:00	1	Precipitación	0
138852	7	Sololá	701	Sololá	4	Finca Santa Victoria	10	Octubre	2023-10-27T00:00:00	2024-11-08T21:00:00	8	Radiación solar	0
138853	7	Sololá	701	Sololá	4	Finca Santa Victoria	10	Octubre	2023-10-27T00:00:00	2024-11-08T22:00:00	2	Temperatura media	16.6
138854	7	Sololá	701	Sololá	4	Finca Santa Victoria	10	Octubre	2023-10-27T00:00:00	2024-11-08T22:00:00	4	Temperatura máxima	17.1
138855	7	Sololá	701	Sololá	4	Finca Santa Victoria	10	Octubre	2023-10-27T00:00:00	2024-11-08T22:00:00	3	Temperatura mínima	16.6
138856	7	Sololá	701	Sololá	4	Finca Santa Victoria	10	Octubre	2023-10-27T00:00:00	2024-11-08T22:00:00	5	Humedad	88
138857	7	Sololá	701	Sololá	4	Finca Santa Victoria	10	Octubre	2023-10-27T00:00:00	2024-11-08T22:00:00	6	Velocidad del viento	6.4
138858	7	Sololá	701	Sololá	4	Finca Santa Victoria	10	Octubre	2023-10-27T00:00:00	2024-11-08T22:00:00	7	Dirección del viento	3.22
138859	7	Sololá	701	Sololá	4	Finca Santa Victoria	10	Octubre	2023-10-27T00:00:00	2024-11-08T22:00:00	1	Precipitación	0
138860	7	Sololá	701	Sololá	4	Finca Santa Victoria	10	Octubre	2023-10-27T00:00:00	2024-11-08T22:00:00	8	Radiación solar	0
138861	7	Sololá	701	Sololá	4	Finca Santa Victoria	10	Octubre	2023-10-27T00:00:00	2024-11-08T23:00:00	2	Temperatura media	17.1
138862	7	Sololá	701	Sololá	4	Finca Santa Victoria	10	Octubre	2023-10-27T00:00:00	2024-11-08T23:00:00	4	Temperatura máxima	17.1
138863	7	Sololá	701	Sololá	4	Finca Santa Victoria	10	Octubre	2023-10-27T00:00:00	2024-11-08T23:00:00	3	Temperatura mínima	16.9
138864	7	Sololá	701	Sololá	4	Finca Santa Victoria	10	Octubre	2023-10-27T00:00:00	2024-11-08T23:00:00	5	Humedad	86
138865	7	Sololá	701	Sololá	4	Finca Santa Victoria	10	Octubre	2023-10-27T00:00:00	2024-11-08T23:00:00	6	Velocidad del viento	8
138866	7	Sololá	701	Sololá	4	Finca Santa Victoria	10	Octubre	2023-10-27T00:00:00	2024-11-08T23:00:00	7	Dirección del viento	4.02
138867	7	Sololá	701	Sololá	4	Finca Santa Victoria	10	Octubre	2023-10-27T00:00:00	2024-11-08T23:00:00	1	Precipitación	0
138868	7	Sololá	701	Sololá	4	Finca Santa Victoria	10	Octubre	2023-10-27T00:00:00	2024-11-08T23:00:00	8	Radiación solar	0
138869	7	Sololá	701	Sololá	4	Finca Santa Victoria	10	Octubre	2023-10-28T00:00:00	2024-11-08T00:00:00	2	Temperatura media	16.8
138870	7	Sololá	701	Sololá	4	Finca Santa Victoria	10	Octubre	2023-10-28T00:00:00	2024-11-08T00:00:00	4	Temperatura máxima	16.9
138871	7	Sololá	701	Sololá	4	Finca Santa Victoria	10	Octubre	2023-10-28T00:00:00	2024-11-08T00:00:00	3	Temperatura mínima	16.7
138872	7	Sololá	701	Sololá	4	Finca Santa Victoria	10	Octubre	2023-10-28T00:00:00	2024-11-08T00:00:00	5	Humedad	86
138873	7	Sololá	701	Sololá	4	Finca Santa Victoria	10	Octubre	2023-10-28T00:00:00	2024-11-08T00:00:00	6	Velocidad del viento	6.4
138874	7	Sololá	701	Sololá	4	Finca Santa Victoria	10	Octubre	2023-10-28T00:00:00	2024-11-08T00:00:00	7	Dirección del viento	3.22
138875	7	Sololá	701	Sololá	4	Finca Santa Victoria	10	Octubre	2023-10-28T00:00:00	2024-11-08T00:00:00	1	Precipitación	0
138876	7	Sololá	701	Sololá	4	Finca Santa Victoria	10	Octubre	2023-10-28T00:00:00	2024-11-08T00:00:00	8	Radiación solar	0
138877	7	Sololá	701	Sololá	4	Finca Santa Victoria	10	Octubre	2023-10-28T00:00:00	2024-11-08T01:00:00	2	Temperatura media	16.7
138878	7	Sololá	701	Sololá	4	Finca Santa Victoria	10	Octubre	2023-10-28T00:00:00	2024-11-08T01:00:00	4	Temperatura máxima	16.7
138879	7	Sololá	701	Sololá	4	Finca Santa Victoria	10	Octubre	2023-10-28T00:00:00	2024-11-08T01:00:00	3	Temperatura mínima	16.5
138880	7	Sololá	701	Sololá	4	Finca Santa Victoria	10	Octubre	2023-10-28T00:00:00	2024-11-08T01:00:00	5	Humedad	84
138881	7	Sololá	701	Sololá	4	Finca Santa Victoria	10	Octubre	2023-10-28T00:00:00	2024-11-08T01:00:00	6	Velocidad del viento	4.8
138882	7	Sololá	701	Sololá	4	Finca Santa Victoria	10	Octubre	2023-10-28T00:00:00	2024-11-08T01:00:00	7	Dirección del viento	2.41
138883	7	Sololá	701	Sololá	4	Finca Santa Victoria	10	Octubre	2023-10-28T00:00:00	2024-11-08T01:00:00	1	Precipitación	0
138884	7	Sololá	701	Sololá	4	Finca Santa Victoria	10	Octubre	2023-10-28T00:00:00	2024-11-08T01:00:00	8	Radiación solar	0
138885	7	Sololá	701	Sololá	4	Finca Santa Victoria	10	Octubre	2023-10-28T00:00:00	2024-11-08T02:00:00	2	Temperatura media	16.6
138886	7	Sololá	701	Sololá	4	Finca Santa Victoria	10	Octubre	2023-10-28T00:00:00	2024-11-08T02:00:00	4	Temperatura máxima	16.8
138887	7	Sololá	701	Sololá	4	Finca Santa Victoria	10	Octubre	2023-10-28T00:00:00	2024-11-08T02:00:00	3	Temperatura mínima	16.6
138888	7	Sololá	701	Sololá	4	Finca Santa Victoria	10	Octubre	2023-10-28T00:00:00	2024-11-08T02:00:00	5	Humedad	84
138889	7	Sololá	701	Sololá	4	Finca Santa Victoria	10	Octubre	2023-10-28T00:00:00	2024-11-08T02:00:00	6	Velocidad del viento	3.2
138890	7	Sololá	701	Sololá	4	Finca Santa Victoria	10	Octubre	2023-10-28T00:00:00	2024-11-08T02:00:00	7	Dirección del viento	1.61
138891	7	Sololá	701	Sololá	4	Finca Santa Victoria	10	Octubre	2023-10-28T00:00:00	2024-11-08T02:00:00	1	Precipitación	0
138892	7	Sololá	701	Sololá	4	Finca Santa Victoria	10	Octubre	2023-10-28T00:00:00	2024-11-08T02:00:00	8	Radiación solar	0
138893	7	Sololá	701	Sololá	4	Finca Santa Victoria	10	Octubre	2023-10-28T00:00:00	2024-11-08T03:00:00	2	Temperatura media	15.3
138894	7	Sololá	701	Sololá	4	Finca Santa Victoria	10	Octubre	2023-10-28T00:00:00	2024-11-08T03:00:00	4	Temperatura máxima	15.6
138895	7	Sololá	701	Sololá	4	Finca Santa Victoria	10	Octubre	2023-10-28T00:00:00	2024-11-08T03:00:00	3	Temperatura mínima	14.9
138896	7	Sololá	701	Sololá	4	Finca Santa Victoria	10	Octubre	2023-10-28T00:00:00	2024-11-08T03:00:00	5	Humedad	88
138897	7	Sololá	701	Sololá	4	Finca Santa Victoria	10	Octubre	2023-10-28T00:00:00	2024-11-08T03:00:00	6	Velocidad del viento	1.6
138898	7	Sololá	701	Sololá	4	Finca Santa Victoria	10	Octubre	2023-10-28T00:00:00	2024-11-08T03:00:00	7	Dirección del viento	0.8
138899	7	Sololá	701	Sololá	4	Finca Santa Victoria	10	Octubre	2023-10-28T00:00:00	2024-11-08T03:00:00	1	Precipitación	0
138900	7	Sololá	701	Sololá	4	Finca Santa Victoria	10	Octubre	2023-10-28T00:00:00	2024-11-08T03:00:00	8	Radiación solar	0
138901	7	Sololá	701	Sololá	4	Finca Santa Victoria	10	Octubre	2023-10-28T00:00:00	2024-11-08T04:00:00	2	Temperatura media	16.4
138902	7	Sololá	701	Sololá	4	Finca Santa Victoria	10	Octubre	2023-10-28T00:00:00	2024-11-08T04:00:00	4	Temperatura máxima	16.5
138903	7	Sololá	701	Sololá	4	Finca Santa Victoria	10	Octubre	2023-10-28T00:00:00	2024-11-08T04:00:00	3	Temperatura mínima	16.2
138904	7	Sololá	701	Sololá	4	Finca Santa Victoria	10	Octubre	2023-10-28T00:00:00	2024-11-08T04:00:00	5	Humedad	85
138905	7	Sololá	701	Sololá	4	Finca Santa Victoria	10	Octubre	2023-10-28T00:00:00	2024-11-08T04:00:00	6	Velocidad del viento	11.3
138906	7	Sololá	701	Sololá	4	Finca Santa Victoria	10	Octubre	2023-10-28T00:00:00	2024-11-08T04:00:00	7	Dirección del viento	5.63
138907	7	Sololá	701	Sololá	4	Finca Santa Victoria	10	Octubre	2023-10-28T00:00:00	2024-11-08T04:00:00	1	Precipitación	0
138908	7	Sololá	701	Sololá	4	Finca Santa Victoria	10	Octubre	2023-10-28T00:00:00	2024-11-08T04:00:00	8	Radiación solar	0
138909	7	Sololá	701	Sololá	4	Finca Santa Victoria	10	Octubre	2023-10-28T00:00:00	2024-11-08T05:00:00	2	Temperatura media	16.4
138910	7	Sololá	701	Sololá	4	Finca Santa Victoria	10	Octubre	2023-10-28T00:00:00	2024-11-08T05:00:00	4	Temperatura máxima	16.4
138911	7	Sololá	701	Sololá	4	Finca Santa Victoria	10	Octubre	2023-10-28T00:00:00	2024-11-08T05:00:00	3	Temperatura mínima	16.3
138912	7	Sololá	701	Sololá	4	Finca Santa Victoria	10	Octubre	2023-10-28T00:00:00	2024-11-08T05:00:00	5	Humedad	78
138913	7	Sololá	701	Sololá	4	Finca Santa Victoria	10	Octubre	2023-10-28T00:00:00	2024-11-08T05:00:00	6	Velocidad del viento	11.3
138914	7	Sololá	701	Sololá	4	Finca Santa Victoria	10	Octubre	2023-10-28T00:00:00	2024-11-08T05:00:00	7	Dirección del viento	5.63
138915	7	Sololá	701	Sololá	4	Finca Santa Victoria	10	Octubre	2023-10-28T00:00:00	2024-11-08T05:00:00	1	Precipitación	0
138916	7	Sololá	701	Sololá	4	Finca Santa Victoria	10	Octubre	2023-10-28T00:00:00	2024-11-08T05:00:00	8	Radiación solar	0
138917	7	Sololá	701	Sololá	4	Finca Santa Victoria	10	Octubre	2023-10-28T00:00:00	2024-11-08T06:00:00	2	Temperatura media	15.7
138918	7	Sololá	701	Sololá	4	Finca Santa Victoria	10	Octubre	2023-10-28T00:00:00	2024-11-08T06:00:00	4	Temperatura máxima	16.4
138919	7	Sololá	701	Sololá	4	Finca Santa Victoria	10	Octubre	2023-10-28T00:00:00	2024-11-08T06:00:00	3	Temperatura mínima	15.7
138920	7	Sololá	701	Sololá	4	Finca Santa Victoria	10	Octubre	2023-10-28T00:00:00	2024-11-08T06:00:00	5	Humedad	80
138921	7	Sololá	701	Sololá	4	Finca Santa Victoria	10	Octubre	2023-10-28T00:00:00	2024-11-08T06:00:00	6	Velocidad del viento	9.7
138922	7	Sololá	701	Sololá	4	Finca Santa Victoria	10	Octubre	2023-10-28T00:00:00	2024-11-08T06:00:00	7	Dirección del viento	4.83
138923	7	Sololá	701	Sololá	4	Finca Santa Victoria	10	Octubre	2023-10-28T00:00:00	2024-11-08T06:00:00	1	Precipitación	0
138924	7	Sololá	701	Sololá	4	Finca Santa Victoria	10	Octubre	2023-10-28T00:00:00	2024-11-08T06:00:00	8	Radiación solar	0
138925	7	Sololá	701	Sololá	4	Finca Santa Victoria	10	Octubre	2023-10-28T00:00:00	2024-11-08T07:00:00	2	Temperatura media	16.3
138926	7	Sololá	701	Sololá	4	Finca Santa Victoria	10	Octubre	2023-10-28T00:00:00	2024-11-08T07:00:00	4	Temperatura máxima	16.3
138927	7	Sololá	701	Sololá	4	Finca Santa Victoria	10	Octubre	2023-10-28T00:00:00	2024-11-08T07:00:00	3	Temperatura mínima	15.7
138928	7	Sololá	701	Sololá	4	Finca Santa Victoria	10	Octubre	2023-10-28T00:00:00	2024-11-08T07:00:00	5	Humedad	80
138929	7	Sololá	701	Sololá	4	Finca Santa Victoria	10	Octubre	2023-10-28T00:00:00	2024-11-08T07:00:00	6	Velocidad del viento	9.7
138930	7	Sololá	701	Sololá	4	Finca Santa Victoria	10	Octubre	2023-10-28T00:00:00	2024-11-08T07:00:00	7	Dirección del viento	4.83
138931	7	Sololá	701	Sololá	4	Finca Santa Victoria	10	Octubre	2023-10-28T00:00:00	2024-11-08T07:00:00	1	Precipitación	0
138932	7	Sololá	701	Sololá	4	Finca Santa Victoria	10	Octubre	2023-10-28T00:00:00	2024-11-08T07:00:00	8	Radiación solar	28
138933	7	Sololá	701	Sololá	4	Finca Santa Victoria	10	Octubre	2023-10-28T00:00:00	2024-11-08T08:00:00	2	Temperatura media	17.4
138934	7	Sololá	701	Sololá	4	Finca Santa Victoria	10	Octubre	2023-10-28T00:00:00	2024-11-08T08:00:00	4	Temperatura máxima	17.5
138935	7	Sololá	701	Sololá	4	Finca Santa Victoria	10	Octubre	2023-10-28T00:00:00	2024-11-08T08:00:00	3	Temperatura mínima	16.6
138936	7	Sololá	701	Sololá	4	Finca Santa Victoria	10	Octubre	2023-10-28T00:00:00	2024-11-08T08:00:00	5	Humedad	78
138937	7	Sololá	701	Sololá	4	Finca Santa Victoria	10	Octubre	2023-10-28T00:00:00	2024-11-08T08:00:00	6	Velocidad del viento	11.3
138938	7	Sololá	701	Sololá	4	Finca Santa Victoria	10	Octubre	2023-10-28T00:00:00	2024-11-08T08:00:00	7	Dirección del viento	5.63
138939	7	Sololá	701	Sololá	4	Finca Santa Victoria	10	Octubre	2023-10-28T00:00:00	2024-11-08T08:00:00	1	Precipitación	0
138940	7	Sololá	701	Sololá	4	Finca Santa Victoria	10	Octubre	2023-10-28T00:00:00	2024-11-08T08:00:00	8	Radiación solar	106
138941	7	Sololá	701	Sololá	4	Finca Santa Victoria	10	Octubre	2023-10-28T00:00:00	2024-11-08T09:00:00	2	Temperatura media	18.6
138942	7	Sololá	701	Sololá	4	Finca Santa Victoria	10	Octubre	2023-10-28T00:00:00	2024-11-08T09:00:00	4	Temperatura máxima	18.7
138943	7	Sololá	701	Sololá	4	Finca Santa Victoria	10	Octubre	2023-10-28T00:00:00	2024-11-08T09:00:00	3	Temperatura mínima	18.1
138944	7	Sololá	701	Sololá	4	Finca Santa Victoria	10	Octubre	2023-10-28T00:00:00	2024-11-08T09:00:00	5	Humedad	76
138945	7	Sololá	701	Sololá	4	Finca Santa Victoria	10	Octubre	2023-10-28T00:00:00	2024-11-08T09:00:00	6	Velocidad del viento	11.3
138946	7	Sololá	701	Sololá	4	Finca Santa Victoria	10	Octubre	2023-10-28T00:00:00	2024-11-08T09:00:00	7	Dirección del viento	5.63
138947	7	Sololá	701	Sololá	4	Finca Santa Victoria	10	Octubre	2023-10-28T00:00:00	2024-11-08T09:00:00	1	Precipitación	0
138948	7	Sololá	701	Sololá	4	Finca Santa Victoria	10	Octubre	2023-10-28T00:00:00	2024-11-08T09:00:00	8	Radiación solar	498
138949	7	Sololá	701	Sololá	4	Finca Santa Victoria	10	Octubre	2023-10-28T00:00:00	2024-11-08T10:00:00	2	Temperatura media	20.3
138950	7	Sololá	701	Sololá	4	Finca Santa Victoria	10	Octubre	2023-10-28T00:00:00	2024-11-08T10:00:00	4	Temperatura máxima	20.3
138951	7	Sololá	701	Sololá	4	Finca Santa Victoria	10	Octubre	2023-10-28T00:00:00	2024-11-08T10:00:00	3	Temperatura mínima	18.9
138952	7	Sololá	701	Sololá	4	Finca Santa Victoria	10	Octubre	2023-10-28T00:00:00	2024-11-08T10:00:00	5	Humedad	74
138953	7	Sololá	701	Sololá	4	Finca Santa Victoria	10	Octubre	2023-10-28T00:00:00	2024-11-08T10:00:00	6	Velocidad del viento	8
138954	7	Sololá	701	Sololá	4	Finca Santa Victoria	10	Octubre	2023-10-28T00:00:00	2024-11-08T10:00:00	7	Dirección del viento	4.02
138955	7	Sololá	701	Sololá	4	Finca Santa Victoria	10	Octubre	2023-10-28T00:00:00	2024-11-08T10:00:00	1	Precipitación	0
138956	7	Sololá	701	Sololá	4	Finca Santa Victoria	10	Octubre	2023-10-28T00:00:00	2024-11-08T10:00:00	8	Radiación solar	722
138957	7	Sololá	701	Sololá	4	Finca Santa Victoria	10	Octubre	2023-10-28T00:00:00	2024-11-08T11:00:00	2	Temperatura media	20.7
138958	7	Sololá	701	Sololá	4	Finca Santa Victoria	10	Octubre	2023-10-28T00:00:00	2024-11-08T11:00:00	4	Temperatura máxima	20.7
138959	7	Sololá	701	Sololá	4	Finca Santa Victoria	10	Octubre	2023-10-28T00:00:00	2024-11-08T11:00:00	3	Temperatura mínima	20.3
138960	7	Sololá	701	Sololá	4	Finca Santa Victoria	10	Octubre	2023-10-28T00:00:00	2024-11-08T11:00:00	5	Humedad	72
138961	7	Sololá	701	Sololá	4	Finca Santa Victoria	10	Octubre	2023-10-28T00:00:00	2024-11-08T11:00:00	6	Velocidad del viento	11.3
138962	7	Sololá	701	Sololá	4	Finca Santa Victoria	10	Octubre	2023-10-28T00:00:00	2024-11-08T11:00:00	7	Dirección del viento	5.63
138963	7	Sololá	701	Sololá	4	Finca Santa Victoria	10	Octubre	2023-10-28T00:00:00	2024-11-08T11:00:00	1	Precipitación	0
138964	7	Sololá	701	Sololá	4	Finca Santa Victoria	10	Octubre	2023-10-28T00:00:00	2024-11-08T11:00:00	8	Radiación solar	930
138965	7	Sololá	701	Sololá	4	Finca Santa Victoria	10	Octubre	2023-10-28T00:00:00	2024-11-08T12:00:00	2	Temperatura media	21.3
138966	7	Sololá	701	Sololá	4	Finca Santa Victoria	10	Octubre	2023-10-28T00:00:00	2024-11-08T12:00:00	4	Temperatura máxima	21.4
138967	7	Sololá	701	Sololá	4	Finca Santa Victoria	10	Octubre	2023-10-28T00:00:00	2024-11-08T12:00:00	3	Temperatura mínima	20.7
138968	7	Sololá	701	Sololá	4	Finca Santa Victoria	10	Octubre	2023-10-28T00:00:00	2024-11-08T12:00:00	5	Humedad	71
138969	7	Sololá	701	Sololá	4	Finca Santa Victoria	10	Octubre	2023-10-28T00:00:00	2024-11-08T12:00:00	6	Velocidad del viento	11.3
138970	7	Sololá	701	Sololá	4	Finca Santa Victoria	10	Octubre	2023-10-28T00:00:00	2024-11-08T12:00:00	7	Dirección del viento	5.63
138971	7	Sololá	701	Sololá	4	Finca Santa Victoria	10	Octubre	2023-10-28T00:00:00	2024-11-08T12:00:00	1	Precipitación	0
138972	7	Sololá	701	Sololá	4	Finca Santa Victoria	10	Octubre	2023-10-28T00:00:00	2024-11-08T12:00:00	8	Radiación solar	983
138973	7	Sololá	701	Sololá	4	Finca Santa Victoria	10	Octubre	2023-10-28T00:00:00	2024-11-08T13:00:00	2	Temperatura media	22.3
138974	7	Sololá	701	Sololá	4	Finca Santa Victoria	10	Octubre	2023-10-28T00:00:00	2024-11-08T13:00:00	4	Temperatura máxima	22.3
138975	7	Sololá	701	Sololá	4	Finca Santa Victoria	10	Octubre	2023-10-28T00:00:00	2024-11-08T13:00:00	3	Temperatura mínima	21.6
138976	7	Sololá	701	Sololá	4	Finca Santa Victoria	10	Octubre	2023-10-28T00:00:00	2024-11-08T13:00:00	5	Humedad	67
138977	7	Sololá	701	Sololá	4	Finca Santa Victoria	10	Octubre	2023-10-28T00:00:00	2024-11-08T13:00:00	6	Velocidad del viento	8
138978	7	Sololá	701	Sololá	4	Finca Santa Victoria	10	Octubre	2023-10-28T00:00:00	2024-11-08T13:00:00	7	Dirección del viento	4.02
138979	7	Sololá	701	Sololá	4	Finca Santa Victoria	10	Octubre	2023-10-28T00:00:00	2024-11-08T13:00:00	1	Precipitación	0
138980	7	Sololá	701	Sololá	4	Finca Santa Victoria	10	Octubre	2023-10-28T00:00:00	2024-11-08T13:00:00	8	Radiación solar	957
138981	7	Sololá	701	Sololá	4	Finca Santa Victoria	10	Octubre	2023-10-28T00:00:00	2024-11-08T14:00:00	2	Temperatura media	20.7
138982	7	Sololá	701	Sololá	4	Finca Santa Victoria	10	Octubre	2023-10-28T00:00:00	2024-11-08T14:00:00	4	Temperatura máxima	21.2
138983	7	Sololá	701	Sololá	4	Finca Santa Victoria	10	Octubre	2023-10-28T00:00:00	2024-11-08T14:00:00	3	Temperatura mínima	20.7
138984	7	Sololá	701	Sololá	4	Finca Santa Victoria	10	Octubre	2023-10-28T00:00:00	2024-11-08T14:00:00	5	Humedad	72
138985	7	Sololá	701	Sololá	4	Finca Santa Victoria	10	Octubre	2023-10-28T00:00:00	2024-11-08T14:00:00	6	Velocidad del viento	6.4
138986	7	Sololá	701	Sololá	4	Finca Santa Victoria	10	Octubre	2023-10-28T00:00:00	2024-11-08T14:00:00	7	Dirección del viento	3.22
138987	7	Sololá	701	Sololá	4	Finca Santa Victoria	10	Octubre	2023-10-28T00:00:00	2024-11-08T14:00:00	1	Precipitación	0
138988	7	Sololá	701	Sololá	4	Finca Santa Victoria	10	Octubre	2023-10-28T00:00:00	2024-11-08T14:00:00	8	Radiación solar	514
138989	7	Sololá	701	Sololá	4	Finca Santa Victoria	10	Octubre	2023-10-28T00:00:00	2024-11-08T15:00:00	2	Temperatura media	22.3
138990	7	Sololá	701	Sololá	4	Finca Santa Victoria	10	Octubre	2023-10-28T00:00:00	2024-11-08T15:00:00	4	Temperatura máxima	22.4
138991	7	Sololá	701	Sololá	4	Finca Santa Victoria	10	Octubre	2023-10-28T00:00:00	2024-11-08T15:00:00	3	Temperatura mínima	21.7
138992	7	Sololá	701	Sololá	4	Finca Santa Victoria	10	Octubre	2023-10-28T00:00:00	2024-11-08T15:00:00	5	Humedad	69
138993	7	Sololá	701	Sololá	4	Finca Santa Victoria	10	Octubre	2023-10-28T00:00:00	2024-11-08T15:00:00	6	Velocidad del viento	8
138994	7	Sololá	701	Sololá	4	Finca Santa Victoria	10	Octubre	2023-10-28T00:00:00	2024-11-08T15:00:00	7	Dirección del viento	4.02
138995	7	Sololá	701	Sololá	4	Finca Santa Victoria	10	Octubre	2023-10-28T00:00:00	2024-11-08T15:00:00	1	Precipitación	0
138996	7	Sololá	701	Sololá	4	Finca Santa Victoria	10	Octubre	2023-10-28T00:00:00	2024-11-08T15:00:00	8	Radiación solar	287
138997	7	Sololá	701	Sololá	4	Finca Santa Victoria	10	Octubre	2023-10-28T00:00:00	2024-11-08T16:00:00	2	Temperatura media	21.6
138998	7	Sololá	701	Sololá	4	Finca Santa Victoria	10	Octubre	2023-10-28T00:00:00	2024-11-08T16:00:00	4	Temperatura máxima	22.3
138999	7	Sololá	701	Sololá	4	Finca Santa Victoria	10	Octubre	2023-10-28T00:00:00	2024-11-08T16:00:00	3	Temperatura mínima	21.3
139000	7	Sololá	701	Sololá	4	Finca Santa Victoria	10	Octubre	2023-10-28T00:00:00	2024-11-08T16:00:00	5	Humedad	71
139001	7	Sololá	701	Sololá	4	Finca Santa Victoria	10	Octubre	2023-10-28T00:00:00	2024-11-08T16:00:00	6	Velocidad del viento	9.7
139002	7	Sololá	701	Sololá	4	Finca Santa Victoria	10	Octubre	2023-10-28T00:00:00	2024-11-08T16:00:00	7	Dirección del viento	4.83
139003	7	Sololá	701	Sololá	4	Finca Santa Victoria	10	Octubre	2023-10-28T00:00:00	2024-11-08T16:00:00	1	Precipitación	0
139004	7	Sololá	701	Sololá	4	Finca Santa Victoria	10	Octubre	2023-10-28T00:00:00	2024-11-08T16:00:00	8	Radiación solar	192
139005	7	Sololá	701	Sololá	4	Finca Santa Victoria	10	Octubre	2023-10-28T00:00:00	2024-11-08T17:00:00	2	Temperatura media	18.6
139006	7	Sololá	701	Sololá	4	Finca Santa Victoria	10	Octubre	2023-10-28T00:00:00	2024-11-08T17:00:00	4	Temperatura máxima	19.1
139007	7	Sololá	701	Sololá	4	Finca Santa Victoria	10	Octubre	2023-10-28T00:00:00	2024-11-08T17:00:00	3	Temperatura mínima	18.6
139008	7	Sololá	701	Sololá	4	Finca Santa Victoria	10	Octubre	2023-10-28T00:00:00	2024-11-08T17:00:00	5	Humedad	81
139009	7	Sololá	701	Sololá	4	Finca Santa Victoria	10	Octubre	2023-10-28T00:00:00	2024-11-08T17:00:00	6	Velocidad del viento	4.8
139010	7	Sololá	701	Sololá	4	Finca Santa Victoria	10	Octubre	2023-10-28T00:00:00	2024-11-08T17:00:00	7	Dirección del viento	2.41
139011	7	Sololá	701	Sololá	4	Finca Santa Victoria	10	Octubre	2023-10-28T00:00:00	2024-11-08T17:00:00	1	Precipitación	0
139012	7	Sololá	701	Sololá	4	Finca Santa Victoria	10	Octubre	2023-10-28T00:00:00	2024-11-08T17:00:00	8	Radiación solar	63
139013	7	Sololá	701	Sololá	4	Finca Santa Victoria	10	Octubre	2023-10-28T00:00:00	2024-11-08T18:00:00	2	Temperatura media	17.9
139014	7	Sololá	701	Sololá	4	Finca Santa Victoria	10	Octubre	2023-10-28T00:00:00	2024-11-08T18:00:00	4	Temperatura máxima	18.2
139015	7	Sololá	701	Sololá	4	Finca Santa Victoria	10	Octubre	2023-10-28T00:00:00	2024-11-08T18:00:00	3	Temperatura mínima	17.9
139016	7	Sololá	701	Sololá	4	Finca Santa Victoria	10	Octubre	2023-10-28T00:00:00	2024-11-08T18:00:00	5	Humedad	82
139017	7	Sololá	701	Sololá	4	Finca Santa Victoria	10	Octubre	2023-10-28T00:00:00	2024-11-08T18:00:00	6	Velocidad del viento	4.8
139018	7	Sololá	701	Sololá	4	Finca Santa Victoria	10	Octubre	2023-10-28T00:00:00	2024-11-08T18:00:00	7	Dirección del viento	2.41
139019	7	Sololá	701	Sololá	4	Finca Santa Victoria	10	Octubre	2023-10-28T00:00:00	2024-11-08T18:00:00	1	Precipitación	0
139020	7	Sololá	701	Sololá	4	Finca Santa Victoria	10	Octubre	2023-10-28T00:00:00	2024-11-08T18:00:00	8	Radiación solar	5
139021	7	Sololá	701	Sololá	4	Finca Santa Victoria	10	Octubre	2023-10-28T00:00:00	2024-11-08T19:00:00	2	Temperatura media	17.9
139022	7	Sololá	701	Sololá	4	Finca Santa Victoria	10	Octubre	2023-10-28T00:00:00	2024-11-08T19:00:00	4	Temperatura máxima	17.9
139023	7	Sololá	701	Sololá	4	Finca Santa Victoria	10	Octubre	2023-10-28T00:00:00	2024-11-08T19:00:00	3	Temperatura mínima	17.7
139024	7	Sololá	701	Sololá	4	Finca Santa Victoria	10	Octubre	2023-10-28T00:00:00	2024-11-08T19:00:00	5	Humedad	82
139025	7	Sololá	701	Sololá	4	Finca Santa Victoria	10	Octubre	2023-10-28T00:00:00	2024-11-08T19:00:00	6	Velocidad del viento	6.4
139026	7	Sololá	701	Sololá	4	Finca Santa Victoria	10	Octubre	2023-10-28T00:00:00	2024-11-08T19:00:00	7	Dirección del viento	3.22
139027	7	Sololá	701	Sololá	4	Finca Santa Victoria	10	Octubre	2023-10-28T00:00:00	2024-11-08T19:00:00	1	Precipitación	0
139028	7	Sololá	701	Sololá	4	Finca Santa Victoria	10	Octubre	2023-10-28T00:00:00	2024-11-08T19:00:00	8	Radiación solar	0
139029	7	Sololá	701	Sololá	4	Finca Santa Victoria	10	Octubre	2023-10-28T00:00:00	2024-11-08T20:00:00	2	Temperatura media	17.7
139030	7	Sololá	701	Sololá	4	Finca Santa Victoria	10	Octubre	2023-10-28T00:00:00	2024-11-08T20:00:00	4	Temperatura máxima	17.7
139031	7	Sololá	701	Sololá	4	Finca Santa Victoria	10	Octubre	2023-10-28T00:00:00	2024-11-08T20:00:00	3	Temperatura mínima	17.5
139032	7	Sololá	701	Sololá	4	Finca Santa Victoria	10	Octubre	2023-10-28T00:00:00	2024-11-08T20:00:00	5	Humedad	85
139033	7	Sololá	701	Sololá	4	Finca Santa Victoria	10	Octubre	2023-10-28T00:00:00	2024-11-08T20:00:00	6	Velocidad del viento	1.6
139034	7	Sololá	701	Sololá	4	Finca Santa Victoria	10	Octubre	2023-10-28T00:00:00	2024-11-08T20:00:00	7	Dirección del viento	0.8
139035	7	Sololá	701	Sololá	4	Finca Santa Victoria	10	Octubre	2023-10-28T00:00:00	2024-11-08T20:00:00	1	Precipitación	0
139036	7	Sololá	701	Sololá	4	Finca Santa Victoria	10	Octubre	2023-10-28T00:00:00	2024-11-08T20:00:00	8	Radiación solar	0
139037	7	Sololá	701	Sololá	4	Finca Santa Victoria	10	Octubre	2023-10-28T00:00:00	2024-11-08T21:00:00	2	Temperatura media	17.4
139038	7	Sololá	701	Sololá	4	Finca Santa Victoria	10	Octubre	2023-10-28T00:00:00	2024-11-08T21:00:00	4	Temperatura máxima	17.8
139039	7	Sololá	701	Sololá	4	Finca Santa Victoria	10	Octubre	2023-10-28T00:00:00	2024-11-08T21:00:00	3	Temperatura mínima	17.4
139040	7	Sololá	701	Sololá	4	Finca Santa Victoria	10	Octubre	2023-10-28T00:00:00	2024-11-08T21:00:00	5	Humedad	87
139041	7	Sololá	701	Sololá	4	Finca Santa Victoria	10	Octubre	2023-10-28T00:00:00	2024-11-08T21:00:00	6	Velocidad del viento	1.6
139042	7	Sololá	701	Sololá	4	Finca Santa Victoria	10	Octubre	2023-10-28T00:00:00	2024-11-08T21:00:00	7	Dirección del viento	0.8
139043	7	Sololá	701	Sololá	4	Finca Santa Victoria	10	Octubre	2023-10-28T00:00:00	2024-11-08T21:00:00	1	Precipitación	0
139044	7	Sololá	701	Sololá	4	Finca Santa Victoria	10	Octubre	2023-10-28T00:00:00	2024-11-08T21:00:00	8	Radiación solar	0
139045	7	Sololá	701	Sololá	4	Finca Santa Victoria	10	Octubre	2023-10-28T00:00:00	2024-11-08T22:00:00	2	Temperatura media	17.2
139046	7	Sololá	701	Sololá	4	Finca Santa Victoria	10	Octubre	2023-10-28T00:00:00	2024-11-08T22:00:00	4	Temperatura máxima	17.2
139047	7	Sololá	701	Sololá	4	Finca Santa Victoria	10	Octubre	2023-10-28T00:00:00	2024-11-08T22:00:00	3	Temperatura mínima	17.1
139048	7	Sololá	701	Sololá	4	Finca Santa Victoria	10	Octubre	2023-10-28T00:00:00	2024-11-08T22:00:00	5	Humedad	87
139049	7	Sololá	701	Sololá	4	Finca Santa Victoria	10	Octubre	2023-10-28T00:00:00	2024-11-08T22:00:00	6	Velocidad del viento	0
139050	7	Sololá	701	Sololá	4	Finca Santa Victoria	10	Octubre	2023-10-28T00:00:00	2024-11-08T22:00:00	7	Dirección del viento	0
139051	7	Sololá	701	Sololá	4	Finca Santa Victoria	10	Octubre	2023-10-28T00:00:00	2024-11-08T22:00:00	1	Precipitación	0
139052	7	Sololá	701	Sololá	4	Finca Santa Victoria	10	Octubre	2023-10-28T00:00:00	2024-11-08T22:00:00	8	Radiación solar	0
139053	7	Sololá	701	Sololá	4	Finca Santa Victoria	10	Octubre	2023-10-28T00:00:00	2024-11-08T23:00:00	2	Temperatura media	17.3
139054	7	Sololá	701	Sololá	4	Finca Santa Victoria	10	Octubre	2023-10-28T00:00:00	2024-11-08T23:00:00	4	Temperatura máxima	17.3
139055	7	Sololá	701	Sololá	4	Finca Santa Victoria	10	Octubre	2023-10-28T00:00:00	2024-11-08T23:00:00	3	Temperatura mínima	17.3
139056	7	Sololá	701	Sololá	4	Finca Santa Victoria	10	Octubre	2023-10-28T00:00:00	2024-11-08T23:00:00	5	Humedad	83
139057	7	Sololá	701	Sololá	4	Finca Santa Victoria	10	Octubre	2023-10-28T00:00:00	2024-11-08T23:00:00	6	Velocidad del viento	3.2
139058	7	Sololá	701	Sololá	4	Finca Santa Victoria	10	Octubre	2023-10-28T00:00:00	2024-11-08T23:00:00	7	Dirección del viento	1.61
139059	7	Sololá	701	Sololá	4	Finca Santa Victoria	10	Octubre	2023-10-28T00:00:00	2024-11-08T23:00:00	1	Precipitación	0
139060	7	Sololá	701	Sololá	4	Finca Santa Victoria	10	Octubre	2023-10-28T00:00:00	2024-11-08T23:00:00	8	Radiación solar	0
139061	7	Sololá	701	Sololá	4	Finca Santa Victoria	10	Octubre	2023-10-29T00:00:00	2024-11-08T00:00:00	2	Temperatura media	16.9
139062	7	Sololá	701	Sololá	4	Finca Santa Victoria	10	Octubre	2023-10-29T00:00:00	2024-11-08T00:00:00	4	Temperatura máxima	17.4
139063	7	Sololá	701	Sololá	4	Finca Santa Victoria	10	Octubre	2023-10-29T00:00:00	2024-11-08T00:00:00	3	Temperatura mínima	16.9
139064	7	Sololá	701	Sololá	4	Finca Santa Victoria	10	Octubre	2023-10-29T00:00:00	2024-11-08T00:00:00	5	Humedad	84
139065	7	Sololá	701	Sololá	4	Finca Santa Victoria	10	Octubre	2023-10-29T00:00:00	2024-11-08T00:00:00	6	Velocidad del viento	3.2
139066	7	Sololá	701	Sololá	4	Finca Santa Victoria	10	Octubre	2023-10-29T00:00:00	2024-11-08T00:00:00	7	Dirección del viento	1.61
139067	7	Sololá	701	Sololá	4	Finca Santa Victoria	10	Octubre	2023-10-29T00:00:00	2024-11-08T00:00:00	1	Precipitación	0
139068	7	Sololá	701	Sololá	4	Finca Santa Victoria	10	Octubre	2023-10-29T00:00:00	2024-11-08T00:00:00	8	Radiación solar	0
139069	7	Sololá	701	Sololá	4	Finca Santa Victoria	10	Octubre	2023-10-29T00:00:00	2024-11-08T01:00:00	2	Temperatura media	16.7
139070	7	Sololá	701	Sololá	4	Finca Santa Victoria	10	Octubre	2023-10-29T00:00:00	2024-11-08T01:00:00	4	Temperatura máxima	16.7
139071	7	Sololá	701	Sololá	4	Finca Santa Victoria	10	Octubre	2023-10-29T00:00:00	2024-11-08T01:00:00	3	Temperatura mínima	15.9
139072	7	Sololá	701	Sololá	4	Finca Santa Victoria	10	Octubre	2023-10-29T00:00:00	2024-11-08T01:00:00	5	Humedad	83
139073	7	Sololá	701	Sololá	4	Finca Santa Victoria	10	Octubre	2023-10-29T00:00:00	2024-11-08T01:00:00	6	Velocidad del viento	4.8
139074	7	Sololá	701	Sololá	4	Finca Santa Victoria	10	Octubre	2023-10-29T00:00:00	2024-11-08T01:00:00	7	Dirección del viento	2.41
139075	7	Sololá	701	Sololá	4	Finca Santa Victoria	10	Octubre	2023-10-29T00:00:00	2024-11-08T01:00:00	1	Precipitación	0
139076	7	Sololá	701	Sololá	4	Finca Santa Victoria	10	Octubre	2023-10-29T00:00:00	2024-11-08T01:00:00	8	Radiación solar	0
139077	7	Sololá	701	Sololá	4	Finca Santa Victoria	10	Octubre	2023-10-29T00:00:00	2024-11-08T02:00:00	2	Temperatura media	16.6
139078	7	Sololá	701	Sololá	4	Finca Santa Victoria	10	Octubre	2023-10-29T00:00:00	2024-11-08T02:00:00	4	Temperatura máxima	16.7
139079	7	Sololá	701	Sololá	4	Finca Santa Victoria	10	Octubre	2023-10-29T00:00:00	2024-11-08T02:00:00	3	Temperatura mínima	16.5
139080	7	Sololá	701	Sololá	4	Finca Santa Victoria	10	Octubre	2023-10-29T00:00:00	2024-11-08T02:00:00	5	Humedad	83
139081	7	Sololá	701	Sololá	4	Finca Santa Victoria	10	Octubre	2023-10-29T00:00:00	2024-11-08T02:00:00	6	Velocidad del viento	6.4
139082	7	Sololá	701	Sololá	4	Finca Santa Victoria	10	Octubre	2023-10-29T00:00:00	2024-11-08T02:00:00	7	Dirección del viento	3.22
139083	7	Sololá	701	Sololá	4	Finca Santa Victoria	10	Octubre	2023-10-29T00:00:00	2024-11-08T02:00:00	1	Precipitación	0
139084	7	Sololá	701	Sololá	4	Finca Santa Victoria	10	Octubre	2023-10-29T00:00:00	2024-11-08T02:00:00	8	Radiación solar	0
139085	7	Sololá	701	Sololá	4	Finca Santa Victoria	10	Octubre	2023-10-29T00:00:00	2024-11-08T03:00:00	2	Temperatura media	15.8
139086	7	Sololá	701	Sololá	4	Finca Santa Victoria	10	Octubre	2023-10-29T00:00:00	2024-11-08T03:00:00	4	Temperatura máxima	16.2
139087	7	Sololá	701	Sololá	4	Finca Santa Victoria	10	Octubre	2023-10-29T00:00:00	2024-11-08T03:00:00	3	Temperatura mínima	15.8
139088	7	Sololá	701	Sololá	4	Finca Santa Victoria	10	Octubre	2023-10-29T00:00:00	2024-11-08T03:00:00	5	Humedad	87
139089	7	Sololá	701	Sololá	4	Finca Santa Victoria	10	Octubre	2023-10-29T00:00:00	2024-11-08T03:00:00	6	Velocidad del viento	3.2
139090	7	Sololá	701	Sololá	4	Finca Santa Victoria	10	Octubre	2023-10-29T00:00:00	2024-11-08T03:00:00	7	Dirección del viento	1.61
139091	7	Sololá	701	Sololá	4	Finca Santa Victoria	10	Octubre	2023-10-29T00:00:00	2024-11-08T03:00:00	1	Precipitación	0
139092	7	Sololá	701	Sololá	4	Finca Santa Victoria	10	Octubre	2023-10-29T00:00:00	2024-11-08T03:00:00	8	Radiación solar	0
139093	7	Sololá	701	Sololá	4	Finca Santa Victoria	10	Octubre	2023-10-29T00:00:00	2024-11-08T04:00:00	2	Temperatura media	16.1
139094	7	Sololá	701	Sololá	4	Finca Santa Victoria	10	Octubre	2023-10-29T00:00:00	2024-11-08T04:00:00	4	Temperatura máxima	16.2
139095	7	Sololá	701	Sololá	4	Finca Santa Victoria	10	Octubre	2023-10-29T00:00:00	2024-11-08T04:00:00	3	Temperatura mínima	15.7
139096	7	Sololá	701	Sololá	4	Finca Santa Victoria	10	Octubre	2023-10-29T00:00:00	2024-11-08T04:00:00	5	Humedad	86
139097	7	Sololá	701	Sololá	4	Finca Santa Victoria	10	Octubre	2023-10-29T00:00:00	2024-11-08T04:00:00	6	Velocidad del viento	4.8
139098	7	Sololá	701	Sololá	4	Finca Santa Victoria	10	Octubre	2023-10-29T00:00:00	2024-11-08T04:00:00	7	Dirección del viento	2.41
139099	7	Sololá	701	Sololá	4	Finca Santa Victoria	10	Octubre	2023-10-29T00:00:00	2024-11-08T04:00:00	1	Precipitación	0
139100	7	Sololá	701	Sololá	4	Finca Santa Victoria	10	Octubre	2023-10-29T00:00:00	2024-11-08T04:00:00	8	Radiación solar	0
139101	7	Sololá	701	Sololá	4	Finca Santa Victoria	10	Octubre	2023-10-29T00:00:00	2024-11-08T05:00:00	2	Temperatura media	16.2
139102	7	Sololá	701	Sololá	4	Finca Santa Victoria	10	Octubre	2023-10-29T00:00:00	2024-11-08T05:00:00	4	Temperatura máxima	16.3
139103	7	Sololá	701	Sololá	4	Finca Santa Victoria	10	Octubre	2023-10-29T00:00:00	2024-11-08T05:00:00	3	Temperatura mínima	15.9
139104	7	Sololá	701	Sololá	4	Finca Santa Victoria	10	Octubre	2023-10-29T00:00:00	2024-11-08T05:00:00	5	Humedad	85
139105	7	Sololá	701	Sololá	4	Finca Santa Victoria	10	Octubre	2023-10-29T00:00:00	2024-11-08T05:00:00	6	Velocidad del viento	6.4
139106	7	Sololá	701	Sololá	4	Finca Santa Victoria	10	Octubre	2023-10-29T00:00:00	2024-11-08T05:00:00	7	Dirección del viento	3.22
139107	7	Sololá	701	Sololá	4	Finca Santa Victoria	10	Octubre	2023-10-29T00:00:00	2024-11-08T05:00:00	1	Precipitación	0
139108	7	Sololá	701	Sololá	4	Finca Santa Victoria	10	Octubre	2023-10-29T00:00:00	2024-11-08T05:00:00	8	Radiación solar	0
139109	7	Sololá	701	Sololá	4	Finca Santa Victoria	10	Octubre	2023-10-29T00:00:00	2024-11-08T06:00:00	2	Temperatura media	16
139110	7	Sololá	701	Sololá	4	Finca Santa Victoria	10	Octubre	2023-10-29T00:00:00	2024-11-08T06:00:00	4	Temperatura máxima	16.3
139111	7	Sololá	701	Sololá	4	Finca Santa Victoria	10	Octubre	2023-10-29T00:00:00	2024-11-08T06:00:00	3	Temperatura mínima	15.9
139112	7	Sololá	701	Sololá	4	Finca Santa Victoria	10	Octubre	2023-10-29T00:00:00	2024-11-08T06:00:00	5	Humedad	86
139113	7	Sololá	701	Sololá	4	Finca Santa Victoria	10	Octubre	2023-10-29T00:00:00	2024-11-08T06:00:00	6	Velocidad del viento	11.3
139114	7	Sololá	701	Sololá	4	Finca Santa Victoria	10	Octubre	2023-10-29T00:00:00	2024-11-08T06:00:00	7	Dirección del viento	5.63
139115	7	Sololá	701	Sololá	4	Finca Santa Victoria	10	Octubre	2023-10-29T00:00:00	2024-11-08T06:00:00	1	Precipitación	0
139116	7	Sololá	701	Sololá	4	Finca Santa Victoria	10	Octubre	2023-10-29T00:00:00	2024-11-08T06:00:00	8	Radiación solar	0
139117	7	Sololá	701	Sololá	4	Finca Santa Victoria	10	Octubre	2023-10-29T00:00:00	2024-11-08T07:00:00	2	Temperatura media	17.8
139118	7	Sololá	701	Sololá	4	Finca Santa Victoria	10	Octubre	2023-10-29T00:00:00	2024-11-08T07:00:00	4	Temperatura máxima	17.8
139119	7	Sololá	701	Sololá	4	Finca Santa Victoria	10	Octubre	2023-10-29T00:00:00	2024-11-08T07:00:00	3	Temperatura mínima	16.6
139120	7	Sololá	701	Sololá	4	Finca Santa Victoria	10	Octubre	2023-10-29T00:00:00	2024-11-08T07:00:00	5	Humedad	79
139121	7	Sololá	701	Sololá	4	Finca Santa Victoria	10	Octubre	2023-10-29T00:00:00	2024-11-08T07:00:00	6	Velocidad del viento	11.3
139122	7	Sololá	701	Sololá	4	Finca Santa Victoria	10	Octubre	2023-10-29T00:00:00	2024-11-08T07:00:00	7	Dirección del viento	5.63
139123	7	Sololá	701	Sololá	4	Finca Santa Victoria	10	Octubre	2023-10-29T00:00:00	2024-11-08T07:00:00	1	Precipitación	0
139124	7	Sololá	701	Sololá	4	Finca Santa Victoria	10	Octubre	2023-10-29T00:00:00	2024-11-08T07:00:00	8	Radiación solar	19
139125	7	Sololá	701	Sololá	4	Finca Santa Victoria	10	Octubre	2023-10-29T00:00:00	2024-11-08T08:00:00	2	Temperatura media	19.5
139126	7	Sololá	701	Sololá	4	Finca Santa Victoria	10	Octubre	2023-10-29T00:00:00	2024-11-08T08:00:00	4	Temperatura máxima	19.6
139127	7	Sololá	701	Sololá	4	Finca Santa Victoria	10	Octubre	2023-10-29T00:00:00	2024-11-08T08:00:00	3	Temperatura mínima	18.6
139128	7	Sololá	701	Sololá	4	Finca Santa Victoria	10	Octubre	2023-10-29T00:00:00	2024-11-08T08:00:00	5	Humedad	74
139129	7	Sololá	701	Sololá	4	Finca Santa Victoria	10	Octubre	2023-10-29T00:00:00	2024-11-08T08:00:00	6	Velocidad del viento	1.6
139130	7	Sololá	701	Sololá	4	Finca Santa Victoria	10	Octubre	2023-10-29T00:00:00	2024-11-08T08:00:00	7	Dirección del viento	0.8
139131	7	Sololá	701	Sololá	4	Finca Santa Victoria	10	Octubre	2023-10-29T00:00:00	2024-11-08T08:00:00	1	Precipitación	0
139132	7	Sololá	701	Sololá	4	Finca Santa Victoria	10	Octubre	2023-10-29T00:00:00	2024-11-08T08:00:00	8	Radiación solar	83
139133	7	Sololá	701	Sololá	4	Finca Santa Victoria	10	Octubre	2023-10-29T00:00:00	2024-11-08T09:00:00	2	Temperatura media	19.7
139134	7	Sololá	701	Sololá	4	Finca Santa Victoria	10	Octubre	2023-10-29T00:00:00	2024-11-08T09:00:00	4	Temperatura máxima	20.3
139135	7	Sololá	701	Sololá	4	Finca Santa Victoria	10	Octubre	2023-10-29T00:00:00	2024-11-08T09:00:00	3	Temperatura mínima	19.4
139136	7	Sololá	701	Sololá	4	Finca Santa Victoria	10	Octubre	2023-10-29T00:00:00	2024-11-08T09:00:00	5	Humedad	75
139137	7	Sololá	701	Sololá	4	Finca Santa Victoria	10	Octubre	2023-10-29T00:00:00	2024-11-08T09:00:00	6	Velocidad del viento	4.8
139138	7	Sololá	701	Sololá	4	Finca Santa Victoria	10	Octubre	2023-10-29T00:00:00	2024-11-08T09:00:00	7	Dirección del viento	2.41
139139	7	Sololá	701	Sololá	4	Finca Santa Victoria	10	Octubre	2023-10-29T00:00:00	2024-11-08T09:00:00	1	Precipitación	0
139140	7	Sololá	701	Sololá	4	Finca Santa Victoria	10	Octubre	2023-10-29T00:00:00	2024-11-08T09:00:00	8	Radiación solar	505
139141	7	Sololá	701	Sololá	4	Finca Santa Victoria	10	Octubre	2023-10-29T00:00:00	2024-11-08T10:00:00	2	Temperatura media	20.7
139142	7	Sololá	701	Sololá	4	Finca Santa Victoria	10	Octubre	2023-10-29T00:00:00	2024-11-08T10:00:00	4	Temperatura máxima	21.1
139143	7	Sololá	701	Sololá	4	Finca Santa Victoria	10	Octubre	2023-10-29T00:00:00	2024-11-08T10:00:00	3	Temperatura mínima	20.2
139144	7	Sololá	701	Sololá	4	Finca Santa Victoria	10	Octubre	2023-10-29T00:00:00	2024-11-08T10:00:00	5	Humedad	72
139145	7	Sololá	701	Sololá	4	Finca Santa Victoria	10	Octubre	2023-10-29T00:00:00	2024-11-08T10:00:00	6	Velocidad del viento	8
139146	7	Sololá	701	Sololá	4	Finca Santa Victoria	10	Octubre	2023-10-29T00:00:00	2024-11-08T10:00:00	7	Dirección del viento	4.02
139147	7	Sololá	701	Sololá	4	Finca Santa Victoria	10	Octubre	2023-10-29T00:00:00	2024-11-08T10:00:00	1	Precipitación	0
139148	7	Sololá	701	Sololá	4	Finca Santa Victoria	10	Octubre	2023-10-29T00:00:00	2024-11-08T10:00:00	8	Radiación solar	730
139149	7	Sololá	701	Sololá	4	Finca Santa Victoria	10	Octubre	2023-10-29T00:00:00	2024-11-08T11:00:00	2	Temperatura media	21.3
139150	7	Sololá	701	Sololá	4	Finca Santa Victoria	10	Octubre	2023-10-29T00:00:00	2024-11-08T11:00:00	4	Temperatura máxima	21.6
139151	7	Sololá	701	Sololá	4	Finca Santa Victoria	10	Octubre	2023-10-29T00:00:00	2024-11-08T11:00:00	3	Temperatura mínima	21.1
139152	7	Sololá	701	Sololá	4	Finca Santa Victoria	10	Octubre	2023-10-29T00:00:00	2024-11-08T11:00:00	5	Humedad	71
139153	7	Sololá	701	Sololá	4	Finca Santa Victoria	10	Octubre	2023-10-29T00:00:00	2024-11-08T11:00:00	6	Velocidad del viento	8
139154	7	Sololá	701	Sololá	4	Finca Santa Victoria	10	Octubre	2023-10-29T00:00:00	2024-11-08T11:00:00	7	Dirección del viento	4.02
139155	7	Sololá	701	Sololá	4	Finca Santa Victoria	10	Octubre	2023-10-29T00:00:00	2024-11-08T11:00:00	1	Precipitación	0
139156	7	Sololá	701	Sololá	4	Finca Santa Victoria	10	Octubre	2023-10-29T00:00:00	2024-11-08T11:00:00	8	Radiación solar	917
139157	7	Sololá	701	Sololá	4	Finca Santa Victoria	10	Octubre	2023-10-29T00:00:00	2024-11-08T12:00:00	2	Temperatura media	21.1
139158	7	Sololá	701	Sololá	4	Finca Santa Victoria	10	Octubre	2023-10-29T00:00:00	2024-11-08T12:00:00	4	Temperatura máxima	21.1
139159	7	Sololá	701	Sololá	4	Finca Santa Victoria	10	Octubre	2023-10-29T00:00:00	2024-11-08T12:00:00	3	Temperatura mínima	20.2
139160	7	Sololá	701	Sololá	4	Finca Santa Victoria	10	Octubre	2023-10-29T00:00:00	2024-11-08T12:00:00	5	Humedad	72
139161	7	Sololá	701	Sololá	4	Finca Santa Victoria	10	Octubre	2023-10-29T00:00:00	2024-11-08T12:00:00	6	Velocidad del viento	8
139162	7	Sololá	701	Sololá	4	Finca Santa Victoria	10	Octubre	2023-10-29T00:00:00	2024-11-08T12:00:00	7	Dirección del viento	4.02
139163	7	Sololá	701	Sololá	4	Finca Santa Victoria	10	Octubre	2023-10-29T00:00:00	2024-11-08T12:00:00	1	Precipitación	0
139164	7	Sololá	701	Sololá	4	Finca Santa Victoria	10	Octubre	2023-10-29T00:00:00	2024-11-08T12:00:00	8	Radiación solar	909
139165	7	Sololá	701	Sololá	4	Finca Santa Victoria	10	Octubre	2023-10-29T00:00:00	2024-11-08T13:00:00	2	Temperatura media	21.7
139166	7	Sololá	701	Sololá	4	Finca Santa Victoria	10	Octubre	2023-10-29T00:00:00	2024-11-08T13:00:00	4	Temperatura máxima	22.3
139167	7	Sololá	701	Sololá	4	Finca Santa Victoria	10	Octubre	2023-10-29T00:00:00	2024-11-08T13:00:00	3	Temperatura mínima	21.4
139168	7	Sololá	701	Sololá	4	Finca Santa Victoria	10	Octubre	2023-10-29T00:00:00	2024-11-08T13:00:00	5	Humedad	72
139169	7	Sololá	701	Sololá	4	Finca Santa Victoria	10	Octubre	2023-10-29T00:00:00	2024-11-08T13:00:00	6	Velocidad del viento	4.8
139170	7	Sololá	701	Sololá	4	Finca Santa Victoria	10	Octubre	2023-10-29T00:00:00	2024-11-08T13:00:00	7	Dirección del viento	2.41
139171	7	Sololá	701	Sololá	4	Finca Santa Victoria	10	Octubre	2023-10-29T00:00:00	2024-11-08T13:00:00	1	Precipitación	0
139172	7	Sololá	701	Sololá	4	Finca Santa Victoria	10	Octubre	2023-10-29T00:00:00	2024-11-08T13:00:00	8	Radiación solar	855
139173	7	Sololá	701	Sololá	4	Finca Santa Victoria	10	Octubre	2023-10-29T00:00:00	2024-11-08T14:00:00	2	Temperatura media	20.6
139174	7	Sololá	701	Sololá	4	Finca Santa Victoria	10	Octubre	2023-10-29T00:00:00	2024-11-08T14:00:00	4	Temperatura máxima	21.4
139175	7	Sololá	701	Sololá	4	Finca Santa Victoria	10	Octubre	2023-10-29T00:00:00	2024-11-08T14:00:00	3	Temperatura mínima	20.4
139176	7	Sololá	701	Sololá	4	Finca Santa Victoria	10	Octubre	2023-10-29T00:00:00	2024-11-08T14:00:00	5	Humedad	74
139177	7	Sololá	701	Sololá	4	Finca Santa Victoria	10	Octubre	2023-10-29T00:00:00	2024-11-08T14:00:00	6	Velocidad del viento	8
139178	7	Sololá	701	Sololá	4	Finca Santa Victoria	10	Octubre	2023-10-29T00:00:00	2024-11-08T14:00:00	7	Dirección del viento	4.02
139179	7	Sololá	701	Sololá	4	Finca Santa Victoria	10	Octubre	2023-10-29T00:00:00	2024-11-08T14:00:00	1	Precipitación	0
139180	7	Sololá	701	Sololá	4	Finca Santa Victoria	10	Octubre	2023-10-29T00:00:00	2024-11-08T14:00:00	8	Radiación solar	643
139181	7	Sololá	701	Sololá	4	Finca Santa Victoria	10	Octubre	2023-10-29T00:00:00	2024-11-08T15:00:00	2	Temperatura media	20.4
139182	7	Sololá	701	Sololá	4	Finca Santa Victoria	10	Octubre	2023-10-29T00:00:00	2024-11-08T15:00:00	4	Temperatura máxima	20.4
139183	7	Sololá	701	Sololá	4	Finca Santa Victoria	10	Octubre	2023-10-29T00:00:00	2024-11-08T15:00:00	3	Temperatura mínima	20.1
139184	7	Sololá	701	Sololá	4	Finca Santa Victoria	10	Octubre	2023-10-29T00:00:00	2024-11-08T15:00:00	5	Humedad	72
139185	7	Sololá	701	Sololá	4	Finca Santa Victoria	10	Octubre	2023-10-29T00:00:00	2024-11-08T15:00:00	6	Velocidad del viento	8
139186	7	Sololá	701	Sololá	4	Finca Santa Victoria	10	Octubre	2023-10-29T00:00:00	2024-11-08T15:00:00	7	Dirección del viento	4.02
139187	7	Sololá	701	Sololá	4	Finca Santa Victoria	10	Octubre	2023-10-29T00:00:00	2024-11-08T15:00:00	1	Precipitación	0
139188	7	Sololá	701	Sololá	4	Finca Santa Victoria	10	Octubre	2023-10-29T00:00:00	2024-11-08T15:00:00	8	Radiación solar	152
139189	7	Sololá	701	Sololá	4	Finca Santa Victoria	10	Octubre	2023-10-29T00:00:00	2024-11-08T16:00:00	2	Temperatura media	18.9
139190	7	Sololá	701	Sololá	4	Finca Santa Victoria	10	Octubre	2023-10-29T00:00:00	2024-11-08T16:00:00	4	Temperatura máxima	20.2
139191	7	Sololá	701	Sololá	4	Finca Santa Victoria	10	Octubre	2023-10-29T00:00:00	2024-11-08T16:00:00	3	Temperatura mínima	18.9
139192	7	Sololá	701	Sololá	4	Finca Santa Victoria	10	Octubre	2023-10-29T00:00:00	2024-11-08T16:00:00	5	Humedad	77
139193	7	Sololá	701	Sololá	4	Finca Santa Victoria	10	Octubre	2023-10-29T00:00:00	2024-11-08T16:00:00	6	Velocidad del viento	8
139194	7	Sololá	701	Sololá	4	Finca Santa Victoria	10	Octubre	2023-10-29T00:00:00	2024-11-08T16:00:00	7	Dirección del viento	4.02
139195	7	Sololá	701	Sololá	4	Finca Santa Victoria	10	Octubre	2023-10-29T00:00:00	2024-11-08T16:00:00	1	Precipitación	0
139196	7	Sololá	701	Sololá	4	Finca Santa Victoria	10	Octubre	2023-10-29T00:00:00	2024-11-08T16:00:00	8	Radiación solar	227
139197	7	Sololá	701	Sololá	4	Finca Santa Victoria	10	Octubre	2023-10-29T00:00:00	2024-11-08T17:00:00	2	Temperatura media	18.1
139198	7	Sololá	701	Sololá	4	Finca Santa Victoria	10	Octubre	2023-10-29T00:00:00	2024-11-08T17:00:00	4	Temperatura máxima	18.3
139199	7	Sololá	701	Sololá	4	Finca Santa Victoria	10	Octubre	2023-10-29T00:00:00	2024-11-08T17:00:00	3	Temperatura mínima	18.1
139200	7	Sololá	701	Sololá	4	Finca Santa Victoria	10	Octubre	2023-10-29T00:00:00	2024-11-08T17:00:00	5	Humedad	79
139201	7	Sololá	701	Sololá	4	Finca Santa Victoria	10	Octubre	2023-10-29T00:00:00	2024-11-08T17:00:00	6	Velocidad del viento	6.4
139202	7	Sololá	701	Sololá	4	Finca Santa Victoria	10	Octubre	2023-10-29T00:00:00	2024-11-08T17:00:00	7	Dirección del viento	3.22
139203	7	Sololá	701	Sololá	4	Finca Santa Victoria	10	Octubre	2023-10-29T00:00:00	2024-11-08T17:00:00	1	Precipitación	0
139204	7	Sololá	701	Sololá	4	Finca Santa Victoria	10	Octubre	2023-10-29T00:00:00	2024-11-08T17:00:00	8	Radiación solar	152
139205	7	Sololá	701	Sololá	4	Finca Santa Victoria	10	Octubre	2023-10-29T00:00:00	2024-11-08T18:00:00	2	Temperatura media	17.4
139206	7	Sololá	701	Sololá	4	Finca Santa Victoria	10	Octubre	2023-10-29T00:00:00	2024-11-08T18:00:00	4	Temperatura máxima	17.7
139207	7	Sololá	701	Sololá	4	Finca Santa Victoria	10	Octubre	2023-10-29T00:00:00	2024-11-08T18:00:00	3	Temperatura mínima	17.4
139208	7	Sololá	701	Sololá	4	Finca Santa Victoria	10	Octubre	2023-10-29T00:00:00	2024-11-08T18:00:00	5	Humedad	82
139209	7	Sololá	701	Sololá	4	Finca Santa Victoria	10	Octubre	2023-10-29T00:00:00	2024-11-08T18:00:00	6	Velocidad del viento	4.8
139210	7	Sololá	701	Sololá	4	Finca Santa Victoria	10	Octubre	2023-10-29T00:00:00	2024-11-08T18:00:00	7	Dirección del viento	2.41
139211	7	Sololá	701	Sololá	4	Finca Santa Victoria	10	Octubre	2023-10-29T00:00:00	2024-11-08T18:00:00	1	Precipitación	0
139212	7	Sololá	701	Sololá	4	Finca Santa Victoria	10	Octubre	2023-10-29T00:00:00	2024-11-08T18:00:00	8	Radiación solar	14
139213	7	Sololá	701	Sololá	4	Finca Santa Victoria	10	Octubre	2023-10-29T00:00:00	2024-11-08T19:00:00	2	Temperatura media	17.6
139214	7	Sololá	701	Sololá	4	Finca Santa Victoria	10	Octubre	2023-10-29T00:00:00	2024-11-08T19:00:00	4	Temperatura máxima	17.8
139215	7	Sololá	701	Sololá	4	Finca Santa Victoria	10	Octubre	2023-10-29T00:00:00	2024-11-08T19:00:00	3	Temperatura mínima	17.6
139216	7	Sololá	701	Sololá	4	Finca Santa Victoria	10	Octubre	2023-10-29T00:00:00	2024-11-08T19:00:00	5	Humedad	81
139217	7	Sololá	701	Sololá	4	Finca Santa Victoria	10	Octubre	2023-10-29T00:00:00	2024-11-08T19:00:00	6	Velocidad del viento	3.2
139218	7	Sololá	701	Sololá	4	Finca Santa Victoria	10	Octubre	2023-10-29T00:00:00	2024-11-08T19:00:00	7	Dirección del viento	1.61
139219	7	Sololá	701	Sololá	4	Finca Santa Victoria	10	Octubre	2023-10-29T00:00:00	2024-11-08T19:00:00	1	Precipitación	0
139220	7	Sololá	701	Sololá	4	Finca Santa Victoria	10	Octubre	2023-10-29T00:00:00	2024-11-08T19:00:00	8	Radiación solar	0
139221	7	Sololá	701	Sololá	4	Finca Santa Victoria	10	Octubre	2023-10-29T00:00:00	2024-11-08T20:00:00	2	Temperatura media	16.8
139222	7	Sololá	701	Sololá	4	Finca Santa Victoria	10	Octubre	2023-10-29T00:00:00	2024-11-08T20:00:00	4	Temperatura máxima	17.1
139223	7	Sololá	701	Sololá	4	Finca Santa Victoria	10	Octubre	2023-10-29T00:00:00	2024-11-08T20:00:00	3	Temperatura mínima	16.8
139224	7	Sololá	701	Sololá	4	Finca Santa Victoria	10	Octubre	2023-10-29T00:00:00	2024-11-08T20:00:00	5	Humedad	84
139225	7	Sololá	701	Sololá	4	Finca Santa Victoria	10	Octubre	2023-10-29T00:00:00	2024-11-08T20:00:00	6	Velocidad del viento	3.2
139226	7	Sololá	701	Sololá	4	Finca Santa Victoria	10	Octubre	2023-10-29T00:00:00	2024-11-08T20:00:00	7	Dirección del viento	1.61
139227	7	Sololá	701	Sololá	4	Finca Santa Victoria	10	Octubre	2023-10-29T00:00:00	2024-11-08T20:00:00	1	Precipitación	0
139228	7	Sololá	701	Sololá	4	Finca Santa Victoria	10	Octubre	2023-10-29T00:00:00	2024-11-08T20:00:00	8	Radiación solar	0
139229	7	Sololá	701	Sololá	4	Finca Santa Victoria	10	Octubre	2023-10-29T00:00:00	2024-11-08T21:00:00	2	Temperatura media	16.9
139230	7	Sololá	701	Sololá	4	Finca Santa Victoria	10	Octubre	2023-10-29T00:00:00	2024-11-08T21:00:00	4	Temperatura máxima	16.9
139231	7	Sololá	701	Sololá	4	Finca Santa Victoria	10	Octubre	2023-10-29T00:00:00	2024-11-08T21:00:00	3	Temperatura mínima	16.8
139232	7	Sololá	701	Sololá	4	Finca Santa Victoria	10	Octubre	2023-10-29T00:00:00	2024-11-08T21:00:00	5	Humedad	84
139233	7	Sololá	701	Sololá	4	Finca Santa Victoria	10	Octubre	2023-10-29T00:00:00	2024-11-08T21:00:00	6	Velocidad del viento	3.2
139234	7	Sololá	701	Sololá	4	Finca Santa Victoria	10	Octubre	2023-10-29T00:00:00	2024-11-08T21:00:00	7	Dirección del viento	1.61
139235	7	Sololá	701	Sololá	4	Finca Santa Victoria	10	Octubre	2023-10-29T00:00:00	2024-11-08T21:00:00	1	Precipitación	0
139236	7	Sololá	701	Sololá	4	Finca Santa Victoria	10	Octubre	2023-10-29T00:00:00	2024-11-08T21:00:00	8	Radiación solar	0
139237	7	Sololá	701	Sololá	4	Finca Santa Victoria	10	Octubre	2023-10-29T00:00:00	2024-11-08T22:00:00	2	Temperatura media	16.2
139238	7	Sololá	701	Sololá	4	Finca Santa Victoria	10	Octubre	2023-10-29T00:00:00	2024-11-08T22:00:00	4	Temperatura máxima	16.5
139239	7	Sololá	701	Sololá	4	Finca Santa Victoria	10	Octubre	2023-10-29T00:00:00	2024-11-08T22:00:00	3	Temperatura mínima	16.2
139240	7	Sololá	701	Sololá	4	Finca Santa Victoria	10	Octubre	2023-10-29T00:00:00	2024-11-08T22:00:00	5	Humedad	87
139241	7	Sololá	701	Sololá	4	Finca Santa Victoria	10	Octubre	2023-10-29T00:00:00	2024-11-08T22:00:00	6	Velocidad del viento	0
139242	7	Sololá	701	Sololá	4	Finca Santa Victoria	10	Octubre	2023-10-29T00:00:00	2024-11-08T22:00:00	7	Dirección del viento	0
139243	7	Sololá	701	Sololá	4	Finca Santa Victoria	10	Octubre	2023-10-29T00:00:00	2024-11-08T22:00:00	1	Precipitación	0
139244	7	Sololá	701	Sololá	4	Finca Santa Victoria	10	Octubre	2023-10-29T00:00:00	2024-11-08T22:00:00	8	Radiación solar	0
139245	7	Sololá	701	Sololá	4	Finca Santa Victoria	10	Octubre	2023-10-29T00:00:00	2024-11-08T23:00:00	2	Temperatura media	16.5
139246	7	Sololá	701	Sololá	4	Finca Santa Victoria	10	Octubre	2023-10-29T00:00:00	2024-11-08T23:00:00	4	Temperatura máxima	16.5
139247	7	Sololá	701	Sololá	4	Finca Santa Victoria	10	Octubre	2023-10-29T00:00:00	2024-11-08T23:00:00	3	Temperatura mínima	16.1
139248	7	Sololá	701	Sololá	4	Finca Santa Victoria	10	Octubre	2023-10-29T00:00:00	2024-11-08T23:00:00	5	Humedad	86
139249	7	Sololá	701	Sololá	4	Finca Santa Victoria	10	Octubre	2023-10-29T00:00:00	2024-11-08T23:00:00	6	Velocidad del viento	1.6
139250	7	Sololá	701	Sololá	4	Finca Santa Victoria	10	Octubre	2023-10-29T00:00:00	2024-11-08T23:00:00	7	Dirección del viento	0.8
139251	7	Sololá	701	Sololá	4	Finca Santa Victoria	10	Octubre	2023-10-29T00:00:00	2024-11-08T23:00:00	1	Precipitación	0
139252	7	Sololá	701	Sololá	4	Finca Santa Victoria	10	Octubre	2023-10-29T00:00:00	2024-11-08T23:00:00	8	Radiación solar	0
139253	7	Sololá	701	Sololá	4	Finca Santa Victoria	10	Octubre	2023-10-30T00:00:00	2024-11-08T00:00:00	2	Temperatura media	17.2
139254	7	Sololá	701	Sololá	4	Finca Santa Victoria	10	Octubre	2023-10-30T00:00:00	2024-11-08T00:00:00	4	Temperatura máxima	17.2
139255	7	Sololá	701	Sololá	4	Finca Santa Victoria	10	Octubre	2023-10-30T00:00:00	2024-11-08T00:00:00	3	Temperatura mínima	16.9
139256	7	Sololá	701	Sololá	4	Finca Santa Victoria	10	Octubre	2023-10-30T00:00:00	2024-11-08T00:00:00	5	Humedad	84
139257	7	Sololá	701	Sololá	4	Finca Santa Victoria	10	Octubre	2023-10-30T00:00:00	2024-11-08T00:00:00	6	Velocidad del viento	4.8
139258	7	Sololá	701	Sololá	4	Finca Santa Victoria	10	Octubre	2023-10-30T00:00:00	2024-11-08T00:00:00	7	Dirección del viento	2.41
139259	7	Sololá	701	Sololá	4	Finca Santa Victoria	10	Octubre	2023-10-30T00:00:00	2024-11-08T00:00:00	1	Precipitación	0
139260	7	Sololá	701	Sololá	4	Finca Santa Victoria	10	Octubre	2023-10-30T00:00:00	2024-11-08T00:00:00	8	Radiación solar	0
139261	7	Sololá	701	Sololá	4	Finca Santa Victoria	10	Octubre	2023-10-30T00:00:00	2024-11-08T01:00:00	2	Temperatura media	15.9
139262	7	Sololá	701	Sololá	4	Finca Santa Victoria	10	Octubre	2023-10-30T00:00:00	2024-11-08T01:00:00	4	Temperatura máxima	16.6
139263	7	Sololá	701	Sololá	4	Finca Santa Victoria	10	Octubre	2023-10-30T00:00:00	2024-11-08T01:00:00	3	Temperatura mínima	15.9
139264	7	Sololá	701	Sololá	4	Finca Santa Victoria	10	Octubre	2023-10-30T00:00:00	2024-11-08T01:00:00	5	Humedad	91
139265	7	Sololá	701	Sololá	4	Finca Santa Victoria	10	Octubre	2023-10-30T00:00:00	2024-11-08T01:00:00	6	Velocidad del viento	0
139266	7	Sololá	701	Sololá	4	Finca Santa Victoria	10	Octubre	2023-10-30T00:00:00	2024-11-08T01:00:00	7	Dirección del viento	0
139267	7	Sololá	701	Sololá	4	Finca Santa Victoria	10	Octubre	2023-10-30T00:00:00	2024-11-08T01:00:00	1	Precipitación	0
139268	7	Sololá	701	Sololá	4	Finca Santa Victoria	10	Octubre	2023-10-30T00:00:00	2024-11-08T01:00:00	8	Radiación solar	0
139269	7	Sololá	701	Sololá	4	Finca Santa Victoria	10	Octubre	2023-10-30T00:00:00	2024-11-08T02:00:00	2	Temperatura media	15.8
139270	7	Sololá	701	Sololá	4	Finca Santa Victoria	10	Octubre	2023-10-30T00:00:00	2024-11-08T02:00:00	4	Temperatura máxima	15.8
139271	7	Sololá	701	Sololá	4	Finca Santa Victoria	10	Octubre	2023-10-30T00:00:00	2024-11-08T02:00:00	3	Temperatura mínima	15.6
139272	7	Sololá	701	Sololá	4	Finca Santa Victoria	10	Octubre	2023-10-30T00:00:00	2024-11-08T02:00:00	5	Humedad	90
139273	7	Sololá	701	Sololá	4	Finca Santa Victoria	10	Octubre	2023-10-30T00:00:00	2024-11-08T02:00:00	6	Velocidad del viento	0
139274	7	Sololá	701	Sololá	4	Finca Santa Victoria	10	Octubre	2023-10-30T00:00:00	2024-11-08T02:00:00	7	Dirección del viento	0
139275	7	Sololá	701	Sololá	4	Finca Santa Victoria	10	Octubre	2023-10-30T00:00:00	2024-11-08T02:00:00	1	Precipitación	0
139276	7	Sololá	701	Sololá	4	Finca Santa Victoria	10	Octubre	2023-10-30T00:00:00	2024-11-08T02:00:00	8	Radiación solar	0
139277	7	Sololá	701	Sololá	4	Finca Santa Victoria	10	Octubre	2023-10-30T00:00:00	2024-11-08T03:00:00	2	Temperatura media	16.7
139278	7	Sololá	701	Sololá	4	Finca Santa Victoria	10	Octubre	2023-10-30T00:00:00	2024-11-08T03:00:00	4	Temperatura máxima	16.7
139279	7	Sololá	701	Sololá	4	Finca Santa Victoria	10	Octubre	2023-10-30T00:00:00	2024-11-08T03:00:00	3	Temperatura mínima	15.9
139280	7	Sololá	701	Sololá	4	Finca Santa Victoria	10	Octubre	2023-10-30T00:00:00	2024-11-08T03:00:00	5	Humedad	85
139281	7	Sololá	701	Sololá	4	Finca Santa Victoria	10	Octubre	2023-10-30T00:00:00	2024-11-08T03:00:00	6	Velocidad del viento	4.8
139282	7	Sololá	701	Sololá	4	Finca Santa Victoria	10	Octubre	2023-10-30T00:00:00	2024-11-08T03:00:00	7	Dirección del viento	2.41
139283	7	Sololá	701	Sololá	4	Finca Santa Victoria	10	Octubre	2023-10-30T00:00:00	2024-11-08T03:00:00	1	Precipitación	0
139284	7	Sololá	701	Sololá	4	Finca Santa Victoria	10	Octubre	2023-10-30T00:00:00	2024-11-08T03:00:00	8	Radiación solar	0
139285	7	Sololá	701	Sololá	4	Finca Santa Victoria	10	Octubre	2023-10-30T00:00:00	2024-11-08T04:00:00	2	Temperatura media	16.6
139286	7	Sololá	701	Sololá	4	Finca Santa Victoria	10	Octubre	2023-10-30T00:00:00	2024-11-08T04:00:00	4	Temperatura máxima	16.8
139287	7	Sololá	701	Sololá	4	Finca Santa Victoria	10	Octubre	2023-10-30T00:00:00	2024-11-08T04:00:00	3	Temperatura mínima	16.5
139288	7	Sololá	701	Sololá	4	Finca Santa Victoria	10	Octubre	2023-10-30T00:00:00	2024-11-08T04:00:00	5	Humedad	84
139289	7	Sololá	701	Sololá	4	Finca Santa Victoria	10	Octubre	2023-10-30T00:00:00	2024-11-08T04:00:00	6	Velocidad del viento	6.4
139290	7	Sololá	701	Sololá	4	Finca Santa Victoria	10	Octubre	2023-10-30T00:00:00	2024-11-08T04:00:00	7	Dirección del viento	3.22
139291	7	Sololá	701	Sololá	4	Finca Santa Victoria	10	Octubre	2023-10-30T00:00:00	2024-11-08T04:00:00	1	Precipitación	0
139292	7	Sololá	701	Sololá	4	Finca Santa Victoria	10	Octubre	2023-10-30T00:00:00	2024-11-08T04:00:00	8	Radiación solar	0
139293	7	Sololá	701	Sololá	4	Finca Santa Victoria	10	Octubre	2023-10-30T00:00:00	2024-11-08T05:00:00	2	Temperatura media	15.4
139294	7	Sololá	701	Sololá	4	Finca Santa Victoria	10	Octubre	2023-10-30T00:00:00	2024-11-08T05:00:00	4	Temperatura máxima	16.2
139295	7	Sololá	701	Sololá	4	Finca Santa Victoria	10	Octubre	2023-10-30T00:00:00	2024-11-08T05:00:00	3	Temperatura mínima	15.4
139296	7	Sololá	701	Sololá	4	Finca Santa Victoria	10	Octubre	2023-10-30T00:00:00	2024-11-08T05:00:00	5	Humedad	88
139297	7	Sololá	701	Sololá	4	Finca Santa Victoria	10	Octubre	2023-10-30T00:00:00	2024-11-08T05:00:00	6	Velocidad del viento	1.6
139298	7	Sololá	701	Sololá	4	Finca Santa Victoria	10	Octubre	2023-10-30T00:00:00	2024-11-08T05:00:00	7	Dirección del viento	0.8
139299	7	Sololá	701	Sololá	4	Finca Santa Victoria	10	Octubre	2023-10-30T00:00:00	2024-11-08T05:00:00	1	Precipitación	0
139300	7	Sololá	701	Sololá	4	Finca Santa Victoria	10	Octubre	2023-10-30T00:00:00	2024-11-08T05:00:00	8	Radiación solar	0
139301	7	Sololá	701	Sololá	4	Finca Santa Victoria	10	Octubre	2023-10-30T00:00:00	2024-11-08T06:00:00	2	Temperatura media	16.2
139302	7	Sololá	701	Sololá	4	Finca Santa Victoria	10	Octubre	2023-10-30T00:00:00	2024-11-08T06:00:00	4	Temperatura máxima	16.2
139303	7	Sololá	701	Sololá	4	Finca Santa Victoria	10	Octubre	2023-10-30T00:00:00	2024-11-08T06:00:00	3	Temperatura mínima	15.4
139304	7	Sololá	701	Sololá	4	Finca Santa Victoria	10	Octubre	2023-10-30T00:00:00	2024-11-08T06:00:00	5	Humedad	87
139305	7	Sololá	701	Sololá	4	Finca Santa Victoria	10	Octubre	2023-10-30T00:00:00	2024-11-08T06:00:00	6	Velocidad del viento	4.8
139306	7	Sololá	701	Sololá	4	Finca Santa Victoria	10	Octubre	2023-10-30T00:00:00	2024-11-08T06:00:00	7	Dirección del viento	2.41
139307	7	Sololá	701	Sololá	4	Finca Santa Victoria	10	Octubre	2023-10-30T00:00:00	2024-11-08T06:00:00	1	Precipitación	0
139308	7	Sololá	701	Sololá	4	Finca Santa Victoria	10	Octubre	2023-10-30T00:00:00	2024-11-08T06:00:00	8	Radiación solar	0
139309	7	Sololá	701	Sololá	4	Finca Santa Victoria	10	Octubre	2023-10-30T00:00:00	2024-11-08T07:00:00	2	Temperatura media	16.5
139310	7	Sololá	701	Sololá	4	Finca Santa Victoria	10	Octubre	2023-10-30T00:00:00	2024-11-08T07:00:00	4	Temperatura máxima	16.5
139311	7	Sololá	701	Sololá	4	Finca Santa Victoria	10	Octubre	2023-10-30T00:00:00	2024-11-08T07:00:00	3	Temperatura mínima	16
139312	7	Sololá	701	Sololá	4	Finca Santa Victoria	10	Octubre	2023-10-30T00:00:00	2024-11-08T07:00:00	5	Humedad	85
139313	7	Sololá	701	Sololá	4	Finca Santa Victoria	10	Octubre	2023-10-30T00:00:00	2024-11-08T07:00:00	6	Velocidad del viento	8
139314	7	Sololá	701	Sololá	4	Finca Santa Victoria	10	Octubre	2023-10-30T00:00:00	2024-11-08T07:00:00	7	Dirección del viento	4.02
139315	7	Sololá	701	Sololá	4	Finca Santa Victoria	10	Octubre	2023-10-30T00:00:00	2024-11-08T07:00:00	1	Precipitación	0
139316	7	Sololá	701	Sololá	4	Finca Santa Victoria	10	Octubre	2023-10-30T00:00:00	2024-11-08T07:00:00	8	Radiación solar	20
139317	7	Sololá	701	Sololá	4	Finca Santa Victoria	10	Octubre	2023-10-30T00:00:00	2024-11-08T08:00:00	2	Temperatura media	17.5
139318	7	Sololá	701	Sololá	4	Finca Santa Victoria	10	Octubre	2023-10-30T00:00:00	2024-11-08T08:00:00	4	Temperatura máxima	18.1
139319	7	Sololá	701	Sololá	4	Finca Santa Victoria	10	Octubre	2023-10-30T00:00:00	2024-11-08T08:00:00	3	Temperatura mínima	17.4
139320	7	Sololá	701	Sololá	4	Finca Santa Victoria	10	Octubre	2023-10-30T00:00:00	2024-11-08T08:00:00	5	Humedad	83
139321	7	Sololá	701	Sololá	4	Finca Santa Victoria	10	Octubre	2023-10-30T00:00:00	2024-11-08T08:00:00	6	Velocidad del viento	4.8
139322	7	Sololá	701	Sololá	4	Finca Santa Victoria	10	Octubre	2023-10-30T00:00:00	2024-11-08T08:00:00	7	Dirección del viento	2.41
139323	7	Sololá	701	Sololá	4	Finca Santa Victoria	10	Octubre	2023-10-30T00:00:00	2024-11-08T08:00:00	1	Precipitación	0
139324	7	Sololá	701	Sololá	4	Finca Santa Victoria	10	Octubre	2023-10-30T00:00:00	2024-11-08T08:00:00	8	Radiación solar	84
139325	7	Sololá	701	Sololá	4	Finca Santa Victoria	10	Octubre	2023-10-30T00:00:00	2024-11-08T09:00:00	2	Temperatura media	19.8
139326	7	Sololá	701	Sololá	4	Finca Santa Victoria	10	Octubre	2023-10-30T00:00:00	2024-11-08T09:00:00	4	Temperatura máxima	19.9
139327	7	Sololá	701	Sololá	4	Finca Santa Victoria	10	Octubre	2023-10-30T00:00:00	2024-11-08T09:00:00	3	Temperatura mínima	19.1
139328	7	Sololá	701	Sololá	4	Finca Santa Victoria	10	Octubre	2023-10-30T00:00:00	2024-11-08T09:00:00	5	Humedad	72
139329	7	Sololá	701	Sololá	4	Finca Santa Victoria	10	Octubre	2023-10-30T00:00:00	2024-11-08T09:00:00	6	Velocidad del viento	9.7
139330	7	Sololá	701	Sololá	4	Finca Santa Victoria	10	Octubre	2023-10-30T00:00:00	2024-11-08T09:00:00	7	Dirección del viento	4.83
139331	7	Sololá	701	Sololá	4	Finca Santa Victoria	10	Octubre	2023-10-30T00:00:00	2024-11-08T09:00:00	1	Precipitación	0
139332	7	Sololá	701	Sololá	4	Finca Santa Victoria	10	Octubre	2023-10-30T00:00:00	2024-11-08T09:00:00	8	Radiación solar	412
139333	7	Sololá	701	Sololá	4	Finca Santa Victoria	10	Octubre	2023-10-30T00:00:00	2024-11-08T10:00:00	2	Temperatura media	20.4
139334	7	Sololá	701	Sololá	4	Finca Santa Victoria	10	Octubre	2023-10-30T00:00:00	2024-11-08T10:00:00	4	Temperatura máxima	20.4
139335	7	Sololá	701	Sololá	4	Finca Santa Victoria	10	Octubre	2023-10-30T00:00:00	2024-11-08T10:00:00	3	Temperatura mínima	19.8
139336	7	Sololá	701	Sololá	4	Finca Santa Victoria	10	Octubre	2023-10-30T00:00:00	2024-11-08T10:00:00	5	Humedad	71
139337	7	Sololá	701	Sololá	4	Finca Santa Victoria	10	Octubre	2023-10-30T00:00:00	2024-11-08T10:00:00	6	Velocidad del viento	8
139338	7	Sololá	701	Sololá	4	Finca Santa Victoria	10	Octubre	2023-10-30T00:00:00	2024-11-08T10:00:00	7	Dirección del viento	4.02
139339	7	Sololá	701	Sololá	4	Finca Santa Victoria	10	Octubre	2023-10-30T00:00:00	2024-11-08T10:00:00	1	Precipitación	0
139340	7	Sololá	701	Sololá	4	Finca Santa Victoria	10	Octubre	2023-10-30T00:00:00	2024-11-08T10:00:00	8	Radiación solar	734
139341	7	Sololá	701	Sololá	4	Finca Santa Victoria	10	Octubre	2023-10-30T00:00:00	2024-11-08T11:00:00	2	Temperatura media	21.7
139342	7	Sololá	701	Sololá	4	Finca Santa Victoria	10	Octubre	2023-10-30T00:00:00	2024-11-08T11:00:00	4	Temperatura máxima	21.7
139343	7	Sololá	701	Sololá	4	Finca Santa Victoria	10	Octubre	2023-10-30T00:00:00	2024-11-08T11:00:00	3	Temperatura mínima	20.8
139344	7	Sololá	701	Sololá	4	Finca Santa Victoria	10	Octubre	2023-10-30T00:00:00	2024-11-08T11:00:00	5	Humedad	66
139345	7	Sololá	701	Sololá	4	Finca Santa Victoria	10	Octubre	2023-10-30T00:00:00	2024-11-08T11:00:00	6	Velocidad del viento	11.3
139346	7	Sololá	701	Sololá	4	Finca Santa Victoria	10	Octubre	2023-10-30T00:00:00	2024-11-08T11:00:00	7	Dirección del viento	5.63
139347	7	Sololá	701	Sololá	4	Finca Santa Victoria	10	Octubre	2023-10-30T00:00:00	2024-11-08T11:00:00	1	Precipitación	0
139348	7	Sololá	701	Sololá	4	Finca Santa Victoria	10	Octubre	2023-10-30T00:00:00	2024-11-08T11:00:00	8	Radiación solar	866
139349	7	Sololá	701	Sololá	4	Finca Santa Victoria	10	Octubre	2023-10-30T00:00:00	2024-11-08T12:00:00	2	Temperatura media	21.8
139350	7	Sololá	701	Sololá	4	Finca Santa Victoria	10	Octubre	2023-10-30T00:00:00	2024-11-08T12:00:00	4	Temperatura máxima	22.5
139351	7	Sololá	701	Sololá	4	Finca Santa Victoria	10	Octubre	2023-10-30T00:00:00	2024-11-08T12:00:00	3	Temperatura mínima	21.6
139352	7	Sololá	701	Sololá	4	Finca Santa Victoria	10	Octubre	2023-10-30T00:00:00	2024-11-08T12:00:00	5	Humedad	65
139353	7	Sololá	701	Sololá	4	Finca Santa Victoria	10	Octubre	2023-10-30T00:00:00	2024-11-08T12:00:00	6	Velocidad del viento	9.7
139354	7	Sololá	701	Sololá	4	Finca Santa Victoria	10	Octubre	2023-10-30T00:00:00	2024-11-08T12:00:00	7	Dirección del viento	4.83
139355	7	Sololá	701	Sololá	4	Finca Santa Victoria	10	Octubre	2023-10-30T00:00:00	2024-11-08T12:00:00	1	Precipitación	0
139356	7	Sololá	701	Sololá	4	Finca Santa Victoria	10	Octubre	2023-10-30T00:00:00	2024-11-08T12:00:00	8	Radiación solar	598
139357	7	Sololá	701	Sololá	4	Finca Santa Victoria	10	Octubre	2023-10-30T00:00:00	2024-11-08T13:00:00	2	Temperatura media	22.9
139358	7	Sololá	701	Sololá	4	Finca Santa Victoria	10	Octubre	2023-10-30T00:00:00	2024-11-08T13:00:00	4	Temperatura máxima	22.9
139359	7	Sololá	701	Sololá	4	Finca Santa Victoria	10	Octubre	2023-10-30T00:00:00	2024-11-08T13:00:00	3	Temperatura mínima	21.9
139360	7	Sololá	701	Sololá	4	Finca Santa Victoria	10	Octubre	2023-10-30T00:00:00	2024-11-08T13:00:00	5	Humedad	57
139361	7	Sololá	701	Sololá	4	Finca Santa Victoria	10	Octubre	2023-10-30T00:00:00	2024-11-08T13:00:00	6	Velocidad del viento	11.3
139362	7	Sololá	701	Sololá	4	Finca Santa Victoria	10	Octubre	2023-10-30T00:00:00	2024-11-08T13:00:00	7	Dirección del viento	5.63
139363	7	Sololá	701	Sololá	4	Finca Santa Victoria	10	Octubre	2023-10-30T00:00:00	2024-11-08T13:00:00	1	Precipitación	0
139364	7	Sololá	701	Sololá	4	Finca Santa Victoria	10	Octubre	2023-10-30T00:00:00	2024-11-08T13:00:00	8	Radiación solar	494
139365	7	Sololá	701	Sololá	4	Finca Santa Victoria	10	Octubre	2023-10-30T00:00:00	2024-11-08T14:00:00	2	Temperatura media	22.3
139366	7	Sololá	701	Sololá	4	Finca Santa Victoria	10	Octubre	2023-10-30T00:00:00	2024-11-08T14:00:00	4	Temperatura máxima	23.2
139367	7	Sololá	701	Sololá	4	Finca Santa Victoria	10	Octubre	2023-10-30T00:00:00	2024-11-08T14:00:00	3	Temperatura mínima	22.3
139368	7	Sololá	701	Sololá	4	Finca Santa Victoria	10	Octubre	2023-10-30T00:00:00	2024-11-08T14:00:00	5	Humedad	57
139369	7	Sololá	701	Sololá	4	Finca Santa Victoria	10	Octubre	2023-10-30T00:00:00	2024-11-08T14:00:00	6	Velocidad del viento	6.4
139370	7	Sololá	701	Sololá	4	Finca Santa Victoria	10	Octubre	2023-10-30T00:00:00	2024-11-08T14:00:00	7	Dirección del viento	3.22
139371	7	Sololá	701	Sololá	4	Finca Santa Victoria	10	Octubre	2023-10-30T00:00:00	2024-11-08T14:00:00	1	Precipitación	0
139372	7	Sololá	701	Sololá	4	Finca Santa Victoria	10	Octubre	2023-10-30T00:00:00	2024-11-08T14:00:00	8	Radiación solar	419
139373	7	Sololá	701	Sololá	4	Finca Santa Victoria	10	Octubre	2023-10-30T00:00:00	2024-11-08T15:00:00	2	Temperatura media	20.7
139374	7	Sololá	701	Sololá	4	Finca Santa Victoria	10	Octubre	2023-10-30T00:00:00	2024-11-08T15:00:00	4	Temperatura máxima	21.6
139375	7	Sololá	701	Sololá	4	Finca Santa Victoria	10	Octubre	2023-10-30T00:00:00	2024-11-08T15:00:00	3	Temperatura mínima	20.7
139376	7	Sololá	701	Sololá	4	Finca Santa Victoria	10	Octubre	2023-10-30T00:00:00	2024-11-08T15:00:00	5	Humedad	65
139377	7	Sololá	701	Sololá	4	Finca Santa Victoria	10	Octubre	2023-10-30T00:00:00	2024-11-08T15:00:00	6	Velocidad del viento	4.8
139378	7	Sololá	701	Sololá	4	Finca Santa Victoria	10	Octubre	2023-10-30T00:00:00	2024-11-08T15:00:00	7	Dirección del viento	2.41
139379	7	Sololá	701	Sololá	4	Finca Santa Victoria	10	Octubre	2023-10-30T00:00:00	2024-11-08T15:00:00	1	Precipitación	0
139380	7	Sololá	701	Sololá	4	Finca Santa Victoria	10	Octubre	2023-10-30T00:00:00	2024-11-08T15:00:00	8	Radiación solar	169
139381	7	Sololá	701	Sololá	4	Finca Santa Victoria	10	Octubre	2023-10-30T00:00:00	2024-11-08T16:00:00	2	Temperatura media	19.9
139382	7	Sololá	701	Sololá	4	Finca Santa Victoria	10	Octubre	2023-10-30T00:00:00	2024-11-08T16:00:00	4	Temperatura máxima	21.4
139383	7	Sololá	701	Sololá	4	Finca Santa Victoria	10	Octubre	2023-10-30T00:00:00	2024-11-08T16:00:00	3	Temperatura mínima	19.8
139384	7	Sololá	701	Sololá	4	Finca Santa Victoria	10	Octubre	2023-10-30T00:00:00	2024-11-08T16:00:00	5	Humedad	69
139385	7	Sololá	701	Sololá	4	Finca Santa Victoria	10	Octubre	2023-10-30T00:00:00	2024-11-08T16:00:00	6	Velocidad del viento	6.4
139386	7	Sololá	701	Sololá	4	Finca Santa Victoria	10	Octubre	2023-10-30T00:00:00	2024-11-08T16:00:00	7	Dirección del viento	3.22
139387	7	Sololá	701	Sololá	4	Finca Santa Victoria	10	Octubre	2023-10-30T00:00:00	2024-11-08T16:00:00	1	Precipitación	0
139388	7	Sololá	701	Sololá	4	Finca Santa Victoria	10	Octubre	2023-10-30T00:00:00	2024-11-08T16:00:00	8	Radiación solar	90
139389	7	Sololá	701	Sololá	4	Finca Santa Victoria	10	Octubre	2023-10-30T00:00:00	2024-11-08T17:00:00	2	Temperatura media	19.6
139390	7	Sololá	701	Sololá	4	Finca Santa Victoria	10	Octubre	2023-10-30T00:00:00	2024-11-08T17:00:00	4	Temperatura máxima	20.4
139391	7	Sololá	701	Sololá	4	Finca Santa Victoria	10	Octubre	2023-10-30T00:00:00	2024-11-08T17:00:00	3	Temperatura mínima	19.6
139392	7	Sololá	701	Sololá	4	Finca Santa Victoria	10	Octubre	2023-10-30T00:00:00	2024-11-08T17:00:00	5	Humedad	70
139393	7	Sololá	701	Sololá	4	Finca Santa Victoria	10	Octubre	2023-10-30T00:00:00	2024-11-08T17:00:00	6	Velocidad del viento	4.8
139394	7	Sololá	701	Sololá	4	Finca Santa Victoria	10	Octubre	2023-10-30T00:00:00	2024-11-08T17:00:00	7	Dirección del viento	2.41
139395	7	Sololá	701	Sololá	4	Finca Santa Victoria	10	Octubre	2023-10-30T00:00:00	2024-11-08T17:00:00	1	Precipitación	0
139396	7	Sololá	701	Sololá	4	Finca Santa Victoria	10	Octubre	2023-10-30T00:00:00	2024-11-08T17:00:00	8	Radiación solar	71
139397	7	Sololá	701	Sololá	4	Finca Santa Victoria	10	Octubre	2023-10-30T00:00:00	2024-11-08T18:00:00	2	Temperatura media	17.4
139398	7	Sololá	701	Sololá	4	Finca Santa Victoria	10	Octubre	2023-10-30T00:00:00	2024-11-08T18:00:00	4	Temperatura máxima	18.1
139399	7	Sololá	701	Sololá	4	Finca Santa Victoria	10	Octubre	2023-10-30T00:00:00	2024-11-08T18:00:00	3	Temperatura mínima	17.4
139400	7	Sololá	701	Sololá	4	Finca Santa Victoria	10	Octubre	2023-10-30T00:00:00	2024-11-08T18:00:00	5	Humedad	76
139401	7	Sololá	701	Sololá	4	Finca Santa Victoria	10	Octubre	2023-10-30T00:00:00	2024-11-08T18:00:00	6	Velocidad del viento	6.4
139402	7	Sololá	701	Sololá	4	Finca Santa Victoria	10	Octubre	2023-10-30T00:00:00	2024-11-08T18:00:00	7	Dirección del viento	3.22
139403	7	Sololá	701	Sololá	4	Finca Santa Victoria	10	Octubre	2023-10-30T00:00:00	2024-11-08T18:00:00	1	Precipitación	0
139404	7	Sololá	701	Sololá	4	Finca Santa Victoria	10	Octubre	2023-10-30T00:00:00	2024-11-08T18:00:00	8	Radiación solar	20
139405	7	Sololá	701	Sololá	4	Finca Santa Victoria	10	Octubre	2023-10-30T00:00:00	2024-11-08T19:00:00	2	Temperatura media	16.9
139406	7	Sololá	701	Sololá	4	Finca Santa Victoria	10	Octubre	2023-10-30T00:00:00	2024-11-08T19:00:00	4	Temperatura máxima	17.1
139407	7	Sololá	701	Sololá	4	Finca Santa Victoria	10	Octubre	2023-10-30T00:00:00	2024-11-08T19:00:00	3	Temperatura mínima	16.9
139408	7	Sololá	701	Sololá	4	Finca Santa Victoria	10	Octubre	2023-10-30T00:00:00	2024-11-08T19:00:00	5	Humedad	76
139409	7	Sololá	701	Sololá	4	Finca Santa Victoria	10	Octubre	2023-10-30T00:00:00	2024-11-08T19:00:00	6	Velocidad del viento	3.2
139410	7	Sololá	701	Sololá	4	Finca Santa Victoria	10	Octubre	2023-10-30T00:00:00	2024-11-08T19:00:00	7	Dirección del viento	1.61
139411	7	Sololá	701	Sololá	4	Finca Santa Victoria	10	Octubre	2023-10-30T00:00:00	2024-11-08T19:00:00	1	Precipitación	0
139412	7	Sololá	701	Sololá	4	Finca Santa Victoria	10	Octubre	2023-10-30T00:00:00	2024-11-08T19:00:00	8	Radiación solar	0
139413	7	Sololá	701	Sololá	4	Finca Santa Victoria	10	Octubre	2023-10-30T00:00:00	2024-11-08T20:00:00	2	Temperatura media	17.8
139414	7	Sololá	701	Sololá	4	Finca Santa Victoria	10	Octubre	2023-10-30T00:00:00	2024-11-08T20:00:00	4	Temperatura máxima	17.8
139415	7	Sololá	701	Sololá	4	Finca Santa Victoria	10	Octubre	2023-10-30T00:00:00	2024-11-08T20:00:00	3	Temperatura mínima	17.1
139416	7	Sololá	701	Sololá	4	Finca Santa Victoria	10	Octubre	2023-10-30T00:00:00	2024-11-08T20:00:00	5	Humedad	69
139417	7	Sololá	701	Sololá	4	Finca Santa Victoria	10	Octubre	2023-10-30T00:00:00	2024-11-08T20:00:00	6	Velocidad del viento	6.4
139418	7	Sololá	701	Sololá	4	Finca Santa Victoria	10	Octubre	2023-10-30T00:00:00	2024-11-08T20:00:00	7	Dirección del viento	3.22
139419	7	Sololá	701	Sololá	4	Finca Santa Victoria	10	Octubre	2023-10-30T00:00:00	2024-11-08T20:00:00	1	Precipitación	0
139420	7	Sololá	701	Sololá	4	Finca Santa Victoria	10	Octubre	2023-10-30T00:00:00	2024-11-08T20:00:00	8	Radiación solar	0
139421	7	Sololá	701	Sololá	4	Finca Santa Victoria	10	Octubre	2023-10-30T00:00:00	2024-11-08T21:00:00	2	Temperatura media	17.1
139422	7	Sololá	701	Sololá	4	Finca Santa Victoria	10	Octubre	2023-10-30T00:00:00	2024-11-08T21:00:00	4	Temperatura máxima	17.6
139423	7	Sololá	701	Sololá	4	Finca Santa Victoria	10	Octubre	2023-10-30T00:00:00	2024-11-08T21:00:00	3	Temperatura mínima	17.1
139424	7	Sololá	701	Sololá	4	Finca Santa Victoria	10	Octubre	2023-10-30T00:00:00	2024-11-08T21:00:00	5	Humedad	74
139425	7	Sololá	701	Sololá	4	Finca Santa Victoria	10	Octubre	2023-10-30T00:00:00	2024-11-08T21:00:00	6	Velocidad del viento	3.2
139426	7	Sololá	701	Sololá	4	Finca Santa Victoria	10	Octubre	2023-10-30T00:00:00	2024-11-08T21:00:00	7	Dirección del viento	1.61
139427	7	Sololá	701	Sololá	4	Finca Santa Victoria	10	Octubre	2023-10-30T00:00:00	2024-11-08T21:00:00	1	Precipitación	0
139428	7	Sololá	701	Sololá	4	Finca Santa Victoria	10	Octubre	2023-10-30T00:00:00	2024-11-08T21:00:00	8	Radiación solar	0
139429	7	Sololá	701	Sololá	4	Finca Santa Victoria	10	Octubre	2023-10-30T00:00:00	2024-11-08T22:00:00	2	Temperatura media	16.9
139430	7	Sololá	701	Sololá	4	Finca Santa Victoria	10	Octubre	2023-10-30T00:00:00	2024-11-08T22:00:00	4	Temperatura máxima	16.9
139431	7	Sololá	701	Sololá	4	Finca Santa Victoria	10	Octubre	2023-10-30T00:00:00	2024-11-08T22:00:00	3	Temperatura mínima	16.7
139432	7	Sololá	701	Sololá	4	Finca Santa Victoria	10	Octubre	2023-10-30T00:00:00	2024-11-08T22:00:00	5	Humedad	75
139433	7	Sololá	701	Sololá	4	Finca Santa Victoria	10	Octubre	2023-10-30T00:00:00	2024-11-08T22:00:00	6	Velocidad del viento	6.4
139434	7	Sololá	701	Sololá	4	Finca Santa Victoria	10	Octubre	2023-10-30T00:00:00	2024-11-08T22:00:00	7	Dirección del viento	3.22
139435	7	Sololá	701	Sololá	4	Finca Santa Victoria	10	Octubre	2023-10-30T00:00:00	2024-11-08T22:00:00	1	Precipitación	0
139436	7	Sololá	701	Sololá	4	Finca Santa Victoria	10	Octubre	2023-10-30T00:00:00	2024-11-08T22:00:00	8	Radiación solar	0
139437	7	Sololá	701	Sololá	4	Finca Santa Victoria	10	Octubre	2023-10-30T00:00:00	2024-11-08T23:00:00	2	Temperatura media	16.1
139438	7	Sololá	701	Sololá	4	Finca Santa Victoria	10	Octubre	2023-10-30T00:00:00	2024-11-08T23:00:00	4	Temperatura máxima	16.5
139439	7	Sololá	701	Sololá	4	Finca Santa Victoria	10	Octubre	2023-10-30T00:00:00	2024-11-08T23:00:00	3	Temperatura mínima	16.1
139440	7	Sololá	701	Sololá	4	Finca Santa Victoria	10	Octubre	2023-10-30T00:00:00	2024-11-08T23:00:00	5	Humedad	77
139441	7	Sololá	701	Sololá	4	Finca Santa Victoria	10	Octubre	2023-10-30T00:00:00	2024-11-08T23:00:00	6	Velocidad del viento	3.2
139442	7	Sololá	701	Sololá	4	Finca Santa Victoria	10	Octubre	2023-10-30T00:00:00	2024-11-08T23:00:00	7	Dirección del viento	1.61
139443	7	Sololá	701	Sololá	4	Finca Santa Victoria	10	Octubre	2023-10-30T00:00:00	2024-11-08T23:00:00	1	Precipitación	0
139444	7	Sololá	701	Sololá	4	Finca Santa Victoria	10	Octubre	2023-10-30T00:00:00	2024-11-08T23:00:00	8	Radiación solar	0
139445	7	Sololá	701	Sololá	4	Finca Santa Victoria	10	Octubre	2023-10-31T00:00:00	2024-11-08T00:00:00	2	Temperatura media	16.2
139446	7	Sololá	701	Sololá	4	Finca Santa Victoria	10	Octubre	2023-10-31T00:00:00	2024-11-08T00:00:00	4	Temperatura máxima	16.6
139447	7	Sololá	701	Sololá	4	Finca Santa Victoria	10	Octubre	2023-10-31T00:00:00	2024-11-08T00:00:00	3	Temperatura mínima	16.2
139448	7	Sololá	701	Sololá	4	Finca Santa Victoria	10	Octubre	2023-10-31T00:00:00	2024-11-08T00:00:00	5	Humedad	75
139449	7	Sololá	701	Sololá	4	Finca Santa Victoria	10	Octubre	2023-10-31T00:00:00	2024-11-08T00:00:00	6	Velocidad del viento	3.2
139450	7	Sololá	701	Sololá	4	Finca Santa Victoria	10	Octubre	2023-10-31T00:00:00	2024-11-08T00:00:00	7	Dirección del viento	1.61
139451	7	Sololá	701	Sololá	4	Finca Santa Victoria	10	Octubre	2023-10-31T00:00:00	2024-11-08T00:00:00	1	Precipitación	0
139452	7	Sololá	701	Sololá	4	Finca Santa Victoria	10	Octubre	2023-10-31T00:00:00	2024-11-08T00:00:00	8	Radiación solar	0
139453	7	Sololá	701	Sololá	4	Finca Santa Victoria	10	Octubre	2023-10-31T00:00:00	2024-11-08T01:00:00	2	Temperatura media	15.7
139454	7	Sololá	701	Sololá	4	Finca Santa Victoria	10	Octubre	2023-10-31T00:00:00	2024-11-08T01:00:00	4	Temperatura máxima	15.7
139455	7	Sololá	701	Sololá	4	Finca Santa Victoria	10	Octubre	2023-10-31T00:00:00	2024-11-08T01:00:00	3	Temperatura mínima	15.4
139456	7	Sololá	701	Sololá	4	Finca Santa Victoria	10	Octubre	2023-10-31T00:00:00	2024-11-08T01:00:00	5	Humedad	76
139457	7	Sololá	701	Sololá	4	Finca Santa Victoria	10	Octubre	2023-10-31T00:00:00	2024-11-08T01:00:00	6	Velocidad del viento	6.4
139458	7	Sololá	701	Sololá	4	Finca Santa Victoria	10	Octubre	2023-10-31T00:00:00	2024-11-08T01:00:00	7	Dirección del viento	3.22
139459	7	Sololá	701	Sololá	4	Finca Santa Victoria	10	Octubre	2023-10-31T00:00:00	2024-11-08T01:00:00	1	Precipitación	0
139460	7	Sololá	701	Sololá	4	Finca Santa Victoria	10	Octubre	2023-10-31T00:00:00	2024-11-08T01:00:00	8	Radiación solar	0
139461	7	Sololá	701	Sololá	4	Finca Santa Victoria	10	Octubre	2023-10-31T00:00:00	2024-11-08T02:00:00	2	Temperatura media	15.8
139462	7	Sololá	701	Sololá	4	Finca Santa Victoria	10	Octubre	2023-10-31T00:00:00	2024-11-08T02:00:00	4	Temperatura máxima	15.8
139463	7	Sololá	701	Sololá	4	Finca Santa Victoria	10	Octubre	2023-10-31T00:00:00	2024-11-08T02:00:00	3	Temperatura mínima	15.7
139464	7	Sololá	701	Sololá	4	Finca Santa Victoria	10	Octubre	2023-10-31T00:00:00	2024-11-08T02:00:00	5	Humedad	74
139465	7	Sololá	701	Sololá	4	Finca Santa Victoria	10	Octubre	2023-10-31T00:00:00	2024-11-08T02:00:00	6	Velocidad del viento	9.7
139466	7	Sololá	701	Sololá	4	Finca Santa Victoria	10	Octubre	2023-10-31T00:00:00	2024-11-08T02:00:00	7	Dirección del viento	4.83
139467	7	Sololá	701	Sololá	4	Finca Santa Victoria	10	Octubre	2023-10-31T00:00:00	2024-11-08T02:00:00	1	Precipitación	0
139468	7	Sololá	701	Sololá	4	Finca Santa Victoria	10	Octubre	2023-10-31T00:00:00	2024-11-08T02:00:00	8	Radiación solar	0
139469	7	Sololá	701	Sololá	4	Finca Santa Victoria	10	Octubre	2023-10-31T00:00:00	2024-11-08T03:00:00	2	Temperatura media	15.6
139470	7	Sololá	701	Sololá	4	Finca Santa Victoria	10	Octubre	2023-10-31T00:00:00	2024-11-08T03:00:00	4	Temperatura máxima	15.8
139471	7	Sololá	701	Sololá	4	Finca Santa Victoria	10	Octubre	2023-10-31T00:00:00	2024-11-08T03:00:00	3	Temperatura mínima	15.6
139472	7	Sololá	701	Sololá	4	Finca Santa Victoria	10	Octubre	2023-10-31T00:00:00	2024-11-08T03:00:00	5	Humedad	75
139473	7	Sololá	701	Sololá	4	Finca Santa Victoria	10	Octubre	2023-10-31T00:00:00	2024-11-08T03:00:00	6	Velocidad del viento	8
139474	7	Sololá	701	Sololá	4	Finca Santa Victoria	10	Octubre	2023-10-31T00:00:00	2024-11-08T03:00:00	7	Dirección del viento	4.02
139475	7	Sololá	701	Sololá	4	Finca Santa Victoria	10	Octubre	2023-10-31T00:00:00	2024-11-08T03:00:00	1	Precipitación	0
139476	7	Sololá	701	Sololá	4	Finca Santa Victoria	10	Octubre	2023-10-31T00:00:00	2024-11-08T03:00:00	8	Radiación solar	0
139477	7	Sololá	701	Sololá	4	Finca Santa Victoria	10	Octubre	2023-10-31T00:00:00	2024-11-08T04:00:00	2	Temperatura media	15.8
139478	7	Sololá	701	Sololá	4	Finca Santa Victoria	10	Octubre	2023-10-31T00:00:00	2024-11-08T04:00:00	4	Temperatura máxima	15.9
139479	7	Sololá	701	Sololá	4	Finca Santa Victoria	10	Octubre	2023-10-31T00:00:00	2024-11-08T04:00:00	3	Temperatura mínima	15.7
139480	7	Sololá	701	Sololá	4	Finca Santa Victoria	10	Octubre	2023-10-31T00:00:00	2024-11-08T04:00:00	5	Humedad	74
139481	7	Sololá	701	Sololá	4	Finca Santa Victoria	10	Octubre	2023-10-31T00:00:00	2024-11-08T04:00:00	6	Velocidad del viento	9.7
139482	7	Sololá	701	Sololá	4	Finca Santa Victoria	10	Octubre	2023-10-31T00:00:00	2024-11-08T04:00:00	7	Dirección del viento	4.83
139483	7	Sololá	701	Sololá	4	Finca Santa Victoria	10	Octubre	2023-10-31T00:00:00	2024-11-08T04:00:00	1	Precipitación	0
139484	7	Sololá	701	Sololá	4	Finca Santa Victoria	10	Octubre	2023-10-31T00:00:00	2024-11-08T04:00:00	8	Radiación solar	0
139485	7	Sololá	701	Sololá	4	Finca Santa Victoria	10	Octubre	2023-10-31T00:00:00	2024-11-08T05:00:00	2	Temperatura media	15.9
139486	7	Sololá	701	Sololá	4	Finca Santa Victoria	10	Octubre	2023-10-31T00:00:00	2024-11-08T05:00:00	4	Temperatura máxima	16.1
139487	7	Sololá	701	Sololá	4	Finca Santa Victoria	10	Octubre	2023-10-31T00:00:00	2024-11-08T05:00:00	3	Temperatura mínima	15.9
139488	7	Sololá	701	Sololá	4	Finca Santa Victoria	10	Octubre	2023-10-31T00:00:00	2024-11-08T05:00:00	5	Humedad	73
139489	7	Sololá	701	Sololá	4	Finca Santa Victoria	10	Octubre	2023-10-31T00:00:00	2024-11-08T05:00:00	6	Velocidad del viento	12.9
139490	7	Sololá	701	Sololá	4	Finca Santa Victoria	10	Octubre	2023-10-31T00:00:00	2024-11-08T05:00:00	7	Dirección del viento	6.44
139491	7	Sololá	701	Sololá	4	Finca Santa Victoria	10	Octubre	2023-10-31T00:00:00	2024-11-08T05:00:00	1	Precipitación	0
139492	7	Sololá	701	Sololá	4	Finca Santa Victoria	10	Octubre	2023-10-31T00:00:00	2024-11-08T05:00:00	8	Radiación solar	0
139493	7	Sololá	701	Sololá	4	Finca Santa Victoria	10	Octubre	2023-10-31T00:00:00	2024-11-08T06:00:00	2	Temperatura media	15.4
139494	7	Sololá	701	Sololá	4	Finca Santa Victoria	10	Octubre	2023-10-31T00:00:00	2024-11-08T06:00:00	4	Temperatura máxima	15.8
139495	7	Sololá	701	Sololá	4	Finca Santa Victoria	10	Octubre	2023-10-31T00:00:00	2024-11-08T06:00:00	3	Temperatura mínima	15.4
139496	7	Sololá	701	Sololá	4	Finca Santa Victoria	10	Octubre	2023-10-31T00:00:00	2024-11-08T06:00:00	5	Humedad	76
139497	7	Sololá	701	Sololá	4	Finca Santa Victoria	10	Octubre	2023-10-31T00:00:00	2024-11-08T06:00:00	6	Velocidad del viento	8
139498	7	Sololá	701	Sololá	4	Finca Santa Victoria	10	Octubre	2023-10-31T00:00:00	2024-11-08T06:00:00	7	Dirección del viento	4.02
139499	7	Sololá	701	Sololá	4	Finca Santa Victoria	10	Octubre	2023-10-31T00:00:00	2024-11-08T06:00:00	1	Precipitación	0
139500	7	Sololá	701	Sololá	4	Finca Santa Victoria	10	Octubre	2023-10-31T00:00:00	2024-11-08T06:00:00	8	Radiación solar	0
139501	7	Sololá	701	Sololá	4	Finca Santa Victoria	10	Octubre	2023-10-31T00:00:00	2024-11-08T07:00:00	2	Temperatura media	15.8
139502	7	Sololá	701	Sololá	4	Finca Santa Victoria	10	Octubre	2023-10-31T00:00:00	2024-11-08T07:00:00	4	Temperatura máxima	15.8
139503	7	Sololá	701	Sololá	4	Finca Santa Victoria	10	Octubre	2023-10-31T00:00:00	2024-11-08T07:00:00	3	Temperatura mínima	15.6
139504	7	Sololá	701	Sololá	4	Finca Santa Victoria	10	Octubre	2023-10-31T00:00:00	2024-11-08T07:00:00	5	Humedad	74
139505	7	Sololá	701	Sololá	4	Finca Santa Victoria	10	Octubre	2023-10-31T00:00:00	2024-11-08T07:00:00	6	Velocidad del viento	9.7
139506	7	Sololá	701	Sololá	4	Finca Santa Victoria	10	Octubre	2023-10-31T00:00:00	2024-11-08T07:00:00	7	Dirección del viento	4.83
139507	7	Sololá	701	Sololá	4	Finca Santa Victoria	10	Octubre	2023-10-31T00:00:00	2024-11-08T07:00:00	1	Precipitación	0
139508	7	Sololá	701	Sololá	4	Finca Santa Victoria	10	Octubre	2023-10-31T00:00:00	2024-11-08T07:00:00	8	Radiación solar	16
139509	7	Sololá	701	Sololá	4	Finca Santa Victoria	10	Octubre	2023-10-31T00:00:00	2024-11-08T08:00:00	2	Temperatura media	16.8
139510	7	Sololá	701	Sololá	4	Finca Santa Victoria	10	Octubre	2023-10-31T00:00:00	2024-11-08T08:00:00	4	Temperatura máxima	16.8
139511	7	Sololá	701	Sololá	4	Finca Santa Victoria	10	Octubre	2023-10-31T00:00:00	2024-11-08T08:00:00	3	Temperatura mínima	16.1
139512	7	Sololá	701	Sololá	4	Finca Santa Victoria	10	Octubre	2023-10-31T00:00:00	2024-11-08T08:00:00	5	Humedad	70
139513	7	Sololá	701	Sololá	4	Finca Santa Victoria	10	Octubre	2023-10-31T00:00:00	2024-11-08T08:00:00	6	Velocidad del viento	9.7
139514	7	Sololá	701	Sololá	4	Finca Santa Victoria	10	Octubre	2023-10-31T00:00:00	2024-11-08T08:00:00	7	Dirección del viento	4.83
139515	7	Sololá	701	Sololá	4	Finca Santa Victoria	10	Octubre	2023-10-31T00:00:00	2024-11-08T08:00:00	1	Precipitación	0
139516	7	Sololá	701	Sololá	4	Finca Santa Victoria	10	Octubre	2023-10-31T00:00:00	2024-11-08T08:00:00	8	Radiación solar	87
139517	7	Sololá	701	Sololá	4	Finca Santa Victoria	10	Octubre	2023-10-31T00:00:00	2024-11-08T09:00:00	2	Temperatura media	18.1
139518	7	Sololá	701	Sololá	4	Finca Santa Victoria	10	Octubre	2023-10-31T00:00:00	2024-11-08T09:00:00	4	Temperatura máxima	18.3
139519	7	Sololá	701	Sololá	4	Finca Santa Victoria	10	Octubre	2023-10-31T00:00:00	2024-11-08T09:00:00	3	Temperatura mínima	18
139520	7	Sololá	701	Sololá	4	Finca Santa Victoria	10	Octubre	2023-10-31T00:00:00	2024-11-08T09:00:00	5	Humedad	68
139521	7	Sololá	701	Sololá	4	Finca Santa Victoria	10	Octubre	2023-10-31T00:00:00	2024-11-08T09:00:00	6	Velocidad del viento	6.4
139522	7	Sololá	701	Sololá	4	Finca Santa Victoria	10	Octubre	2023-10-31T00:00:00	2024-11-08T09:00:00	7	Dirección del viento	3.22
139523	7	Sololá	701	Sololá	4	Finca Santa Victoria	10	Octubre	2023-10-31T00:00:00	2024-11-08T09:00:00	1	Precipitación	0
139524	7	Sololá	701	Sololá	4	Finca Santa Victoria	10	Octubre	2023-10-31T00:00:00	2024-11-08T09:00:00	8	Radiación solar	502
139525	7	Sololá	701	Sololá	4	Finca Santa Victoria	10	Octubre	2023-10-31T00:00:00	2024-11-08T10:00:00	2	Temperatura media	17.7
139526	7	Sololá	701	Sololá	4	Finca Santa Victoria	10	Octubre	2023-10-31T00:00:00	2024-11-08T10:00:00	4	Temperatura máxima	18.3
139527	7	Sololá	701	Sololá	4	Finca Santa Victoria	10	Octubre	2023-10-31T00:00:00	2024-11-08T10:00:00	3	Temperatura mínima	17.7
139528	7	Sololá	701	Sololá	4	Finca Santa Victoria	10	Octubre	2023-10-31T00:00:00	2024-11-08T10:00:00	5	Humedad	71
139529	7	Sololá	701	Sololá	4	Finca Santa Victoria	10	Octubre	2023-10-31T00:00:00	2024-11-08T10:00:00	6	Velocidad del viento	8
139530	7	Sololá	701	Sololá	4	Finca Santa Victoria	10	Octubre	2023-10-31T00:00:00	2024-11-08T10:00:00	7	Dirección del viento	4.02
139531	7	Sololá	701	Sololá	4	Finca Santa Victoria	10	Octubre	2023-10-31T00:00:00	2024-11-08T10:00:00	1	Precipitación	0
139532	7	Sololá	701	Sololá	4	Finca Santa Victoria	10	Octubre	2023-10-31T00:00:00	2024-11-08T10:00:00	8	Radiación solar	721
139533	7	Sololá	701	Sololá	4	Finca Santa Victoria	10	Octubre	2023-10-31T00:00:00	2024-11-08T11:00:00	2	Temperatura media	18.6
139534	7	Sololá	701	Sololá	4	Finca Santa Victoria	10	Octubre	2023-10-31T00:00:00	2024-11-08T11:00:00	4	Temperatura máxima	18.6
139535	7	Sololá	701	Sololá	4	Finca Santa Victoria	10	Octubre	2023-10-31T00:00:00	2024-11-08T11:00:00	3	Temperatura mínima	18.1
139536	7	Sololá	701	Sololá	4	Finca Santa Victoria	10	Octubre	2023-10-31T00:00:00	2024-11-08T11:00:00	5	Humedad	71
139537	7	Sololá	701	Sololá	4	Finca Santa Victoria	10	Octubre	2023-10-31T00:00:00	2024-11-08T11:00:00	6	Velocidad del viento	9.7
139538	7	Sololá	701	Sololá	4	Finca Santa Victoria	10	Octubre	2023-10-31T00:00:00	2024-11-08T11:00:00	7	Dirección del viento	4.83
139539	7	Sololá	701	Sololá	4	Finca Santa Victoria	10	Octubre	2023-10-31T00:00:00	2024-11-08T11:00:00	1	Precipitación	0
139540	7	Sololá	701	Sololá	4	Finca Santa Victoria	10	Octubre	2023-10-31T00:00:00	2024-11-08T11:00:00	8	Radiación solar	888
139541	7	Sololá	701	Sololá	4	Finca Santa Victoria	10	Octubre	2023-10-31T00:00:00	2024-11-08T12:00:00	2	Temperatura media	18.1
139542	7	Sololá	701	Sololá	4	Finca Santa Victoria	10	Octubre	2023-10-31T00:00:00	2024-11-08T12:00:00	4	Temperatura máxima	18.3
139543	7	Sololá	701	Sololá	4	Finca Santa Victoria	10	Octubre	2023-10-31T00:00:00	2024-11-08T12:00:00	3	Temperatura mínima	18
139544	7	Sololá	701	Sololá	4	Finca Santa Victoria	10	Octubre	2023-10-31T00:00:00	2024-11-08T12:00:00	5	Humedad	73
139545	7	Sololá	701	Sololá	4	Finca Santa Victoria	10	Octubre	2023-10-31T00:00:00	2024-11-08T12:00:00	6	Velocidad del viento	9.7
139546	7	Sololá	701	Sololá	4	Finca Santa Victoria	10	Octubre	2023-10-31T00:00:00	2024-11-08T12:00:00	7	Dirección del viento	4.83
139547	7	Sololá	701	Sololá	4	Finca Santa Victoria	10	Octubre	2023-10-31T00:00:00	2024-11-08T12:00:00	1	Precipitación	0
139548	7	Sololá	701	Sololá	4	Finca Santa Victoria	10	Octubre	2023-10-31T00:00:00	2024-11-08T12:00:00	8	Radiación solar	682
139549	7	Sololá	701	Sololá	4	Finca Santa Victoria	10	Octubre	2023-10-31T00:00:00	2024-11-08T13:00:00	2	Temperatura media	17.2
139550	7	Sololá	701	Sololá	4	Finca Santa Victoria	10	Octubre	2023-10-31T00:00:00	2024-11-08T13:00:00	4	Temperatura máxima	17.9
139551	7	Sololá	701	Sololá	4	Finca Santa Victoria	10	Octubre	2023-10-31T00:00:00	2024-11-08T13:00:00	3	Temperatura mínima	17.2
139552	7	Sololá	701	Sololá	4	Finca Santa Victoria	10	Octubre	2023-10-31T00:00:00	2024-11-08T13:00:00	5	Humedad	77
139553	7	Sololá	701	Sololá	4	Finca Santa Victoria	10	Octubre	2023-10-31T00:00:00	2024-11-08T13:00:00	6	Velocidad del viento	9.7
139554	7	Sololá	701	Sololá	4	Finca Santa Victoria	10	Octubre	2023-10-31T00:00:00	2024-11-08T13:00:00	7	Dirección del viento	4.83
139555	7	Sololá	701	Sololá	4	Finca Santa Victoria	10	Octubre	2023-10-31T00:00:00	2024-11-08T13:00:00	1	Precipitación	0
139556	7	Sololá	701	Sololá	4	Finca Santa Victoria	10	Octubre	2023-10-31T00:00:00	2024-11-08T13:00:00	8	Radiación solar	510
139557	7	Sololá	701	Sololá	4	Finca Santa Victoria	10	Octubre	2023-10-31T00:00:00	2024-11-08T14:00:00	2	Temperatura media	16.6
139558	7	Sololá	701	Sololá	4	Finca Santa Victoria	10	Octubre	2023-10-31T00:00:00	2024-11-08T14:00:00	4	Temperatura máxima	17.2
139559	7	Sololá	701	Sololá	4	Finca Santa Victoria	10	Octubre	2023-10-31T00:00:00	2024-11-08T14:00:00	3	Temperatura mínima	16.6
139560	7	Sololá	701	Sololá	4	Finca Santa Victoria	10	Octubre	2023-10-31T00:00:00	2024-11-08T14:00:00	5	Humedad	82
139561	7	Sololá	701	Sololá	4	Finca Santa Victoria	10	Octubre	2023-10-31T00:00:00	2024-11-08T14:00:00	6	Velocidad del viento	8
139562	7	Sololá	701	Sololá	4	Finca Santa Victoria	10	Octubre	2023-10-31T00:00:00	2024-11-08T14:00:00	7	Dirección del viento	4.02
139563	7	Sololá	701	Sololá	4	Finca Santa Victoria	10	Octubre	2023-10-31T00:00:00	2024-11-08T14:00:00	1	Precipitación	0
139564	7	Sololá	701	Sololá	4	Finca Santa Victoria	10	Octubre	2023-10-31T00:00:00	2024-11-08T14:00:00	8	Radiación solar	651
139565	7	Sololá	701	Sololá	4	Finca Santa Victoria	10	Octubre	2023-10-31T00:00:00	2024-11-08T15:00:00	2	Temperatura media	15.7
139566	7	Sololá	701	Sololá	4	Finca Santa Victoria	10	Octubre	2023-10-31T00:00:00	2024-11-08T15:00:00	4	Temperatura máxima	16
139567	7	Sololá	701	Sololá	4	Finca Santa Victoria	10	Octubre	2023-10-31T00:00:00	2024-11-08T15:00:00	3	Temperatura mínima	15.7
139568	7	Sololá	701	Sololá	4	Finca Santa Victoria	10	Octubre	2023-10-31T00:00:00	2024-11-08T15:00:00	5	Humedad	86
139569	7	Sololá	701	Sololá	4	Finca Santa Victoria	10	Octubre	2023-10-31T00:00:00	2024-11-08T15:00:00	6	Velocidad del viento	6.4
139570	7	Sololá	701	Sololá	4	Finca Santa Victoria	10	Octubre	2023-10-31T00:00:00	2024-11-08T15:00:00	7	Dirección del viento	3.22
139571	7	Sololá	701	Sololá	4	Finca Santa Victoria	10	Octubre	2023-10-31T00:00:00	2024-11-08T15:00:00	1	Precipitación	0.6
139572	7	Sololá	701	Sololá	4	Finca Santa Victoria	10	Octubre	2023-10-31T00:00:00	2024-11-08T15:00:00	8	Radiación solar	263
139573	7	Sololá	701	Sololá	4	Finca Santa Victoria	10	Octubre	2023-10-31T00:00:00	2024-11-08T16:00:00	2	Temperatura media	15.6
139574	7	Sololá	701	Sololá	4	Finca Santa Victoria	10	Octubre	2023-10-31T00:00:00	2024-11-08T16:00:00	4	Temperatura máxima	15.6
139575	7	Sololá	701	Sololá	4	Finca Santa Victoria	10	Octubre	2023-10-31T00:00:00	2024-11-08T16:00:00	3	Temperatura mínima	15.4
139576	7	Sololá	701	Sololá	4	Finca Santa Victoria	10	Octubre	2023-10-31T00:00:00	2024-11-08T16:00:00	5	Humedad	86
139577	7	Sololá	701	Sololá	4	Finca Santa Victoria	10	Octubre	2023-10-31T00:00:00	2024-11-08T16:00:00	6	Velocidad del viento	6.4
139578	7	Sololá	701	Sololá	4	Finca Santa Victoria	10	Octubre	2023-10-31T00:00:00	2024-11-08T16:00:00	7	Dirección del viento	3.22
139579	7	Sololá	701	Sololá	4	Finca Santa Victoria	10	Octubre	2023-10-31T00:00:00	2024-11-08T16:00:00	1	Precipitación	0.4
139580	7	Sololá	701	Sololá	4	Finca Santa Victoria	10	Octubre	2023-10-31T00:00:00	2024-11-08T16:00:00	8	Radiación solar	252
139581	7	Sololá	701	Sololá	4	Finca Santa Victoria	10	Octubre	2023-10-31T00:00:00	2024-11-08T17:00:00	2	Temperatura media	15.4
139582	7	Sololá	701	Sololá	4	Finca Santa Victoria	10	Octubre	2023-10-31T00:00:00	2024-11-08T17:00:00	4	Temperatura máxima	15.7
139583	7	Sololá	701	Sololá	4	Finca Santa Victoria	10	Octubre	2023-10-31T00:00:00	2024-11-08T17:00:00	3	Temperatura mínima	15.4
139584	7	Sololá	701	Sololá	4	Finca Santa Victoria	10	Octubre	2023-10-31T00:00:00	2024-11-08T17:00:00	5	Humedad	85
139585	7	Sololá	701	Sololá	4	Finca Santa Victoria	10	Octubre	2023-10-31T00:00:00	2024-11-08T17:00:00	6	Velocidad del viento	9.7
139586	7	Sololá	701	Sololá	4	Finca Santa Victoria	10	Octubre	2023-10-31T00:00:00	2024-11-08T17:00:00	7	Dirección del viento	4.83
139587	7	Sololá	701	Sololá	4	Finca Santa Victoria	10	Octubre	2023-10-31T00:00:00	2024-11-08T17:00:00	1	Precipitación	0.6
139588	7	Sololá	701	Sololá	4	Finca Santa Victoria	10	Octubre	2023-10-31T00:00:00	2024-11-08T17:00:00	8	Radiación solar	133
139589	7	Sololá	701	Sololá	4	Finca Santa Victoria	10	Octubre	2023-10-31T00:00:00	2024-11-08T18:00:00	2	Temperatura media	14.8
139590	7	Sololá	701	Sololá	4	Finca Santa Victoria	10	Octubre	2023-10-31T00:00:00	2024-11-08T18:00:00	4	Temperatura máxima	15.1
139591	7	Sololá	701	Sololá	4	Finca Santa Victoria	10	Octubre	2023-10-31T00:00:00	2024-11-08T18:00:00	3	Temperatura mínima	14.7
139592	7	Sololá	701	Sololá	4	Finca Santa Victoria	10	Octubre	2023-10-31T00:00:00	2024-11-08T18:00:00	5	Humedad	87
139593	7	Sololá	701	Sololá	4	Finca Santa Victoria	10	Octubre	2023-10-31T00:00:00	2024-11-08T18:00:00	6	Velocidad del viento	4.8
139594	7	Sololá	701	Sololá	4	Finca Santa Victoria	10	Octubre	2023-10-31T00:00:00	2024-11-08T18:00:00	7	Dirección del viento	2.41
139595	7	Sololá	701	Sololá	4	Finca Santa Victoria	10	Octubre	2023-10-31T00:00:00	2024-11-08T18:00:00	1	Precipitación	0.4
139596	7	Sololá	701	Sololá	4	Finca Santa Victoria	10	Octubre	2023-10-31T00:00:00	2024-11-08T18:00:00	8	Radiación solar	5
139597	7	Sololá	701	Sololá	4	Finca Santa Victoria	10	Octubre	2023-10-31T00:00:00	2024-11-08T19:00:00	2	Temperatura media	15.1
139598	7	Sololá	701	Sololá	4	Finca Santa Victoria	10	Octubre	2023-10-31T00:00:00	2024-11-08T19:00:00	4	Temperatura máxima	15.3
139599	7	Sololá	701	Sololá	4	Finca Santa Victoria	10	Octubre	2023-10-31T00:00:00	2024-11-08T19:00:00	3	Temperatura mínima	15.1
139600	7	Sololá	701	Sololá	4	Finca Santa Victoria	10	Octubre	2023-10-31T00:00:00	2024-11-08T19:00:00	5	Humedad	84
139601	7	Sololá	701	Sololá	4	Finca Santa Victoria	10	Octubre	2023-10-31T00:00:00	2024-11-08T19:00:00	6	Velocidad del viento	8
139602	7	Sololá	701	Sololá	4	Finca Santa Victoria	10	Octubre	2023-10-31T00:00:00	2024-11-08T19:00:00	7	Dirección del viento	4.02
139603	7	Sololá	701	Sololá	4	Finca Santa Victoria	10	Octubre	2023-10-31T00:00:00	2024-11-08T19:00:00	1	Precipitación	0
139604	7	Sololá	701	Sololá	4	Finca Santa Victoria	10	Octubre	2023-10-31T00:00:00	2024-11-08T19:00:00	8	Radiación solar	0
139605	7	Sololá	701	Sololá	4	Finca Santa Victoria	10	Octubre	2023-10-31T00:00:00	2024-11-08T20:00:00	2	Temperatura media	15.1
139606	7	Sololá	701	Sololá	4	Finca Santa Victoria	10	Octubre	2023-10-31T00:00:00	2024-11-08T20:00:00	4	Temperatura máxima	15.2
139607	7	Sololá	701	Sololá	4	Finca Santa Victoria	10	Octubre	2023-10-31T00:00:00	2024-11-08T20:00:00	3	Temperatura mínima	15.1
139608	7	Sololá	701	Sololá	4	Finca Santa Victoria	10	Octubre	2023-10-31T00:00:00	2024-11-08T20:00:00	5	Humedad	82
139609	7	Sololá	701	Sololá	4	Finca Santa Victoria	10	Octubre	2023-10-31T00:00:00	2024-11-08T20:00:00	6	Velocidad del viento	9.7
139610	7	Sololá	701	Sololá	4	Finca Santa Victoria	10	Octubre	2023-10-31T00:00:00	2024-11-08T20:00:00	7	Dirección del viento	4.83
139611	7	Sololá	701	Sololá	4	Finca Santa Victoria	10	Octubre	2023-10-31T00:00:00	2024-11-08T20:00:00	1	Precipitación	0
139612	7	Sololá	701	Sololá	4	Finca Santa Victoria	10	Octubre	2023-10-31T00:00:00	2024-11-08T20:00:00	8	Radiación solar	0
139613	7	Sololá	701	Sololá	4	Finca Santa Victoria	10	Octubre	2023-10-31T00:00:00	2024-11-08T21:00:00	2	Temperatura media	14.8
139614	7	Sololá	701	Sololá	4	Finca Santa Victoria	10	Octubre	2023-10-31T00:00:00	2024-11-08T21:00:00	4	Temperatura máxima	15
139615	7	Sololá	701	Sololá	4	Finca Santa Victoria	10	Octubre	2023-10-31T00:00:00	2024-11-08T21:00:00	3	Temperatura mínima	14.8
139616	7	Sololá	701	Sololá	4	Finca Santa Victoria	10	Octubre	2023-10-31T00:00:00	2024-11-08T21:00:00	5	Humedad	82
139617	7	Sololá	701	Sololá	4	Finca Santa Victoria	10	Octubre	2023-10-31T00:00:00	2024-11-08T21:00:00	6	Velocidad del viento	9.7
139618	7	Sololá	701	Sololá	4	Finca Santa Victoria	10	Octubre	2023-10-31T00:00:00	2024-11-08T21:00:00	7	Dirección del viento	4.83
139619	7	Sololá	701	Sololá	4	Finca Santa Victoria	10	Octubre	2023-10-31T00:00:00	2024-11-08T21:00:00	1	Precipitación	0
139620	7	Sololá	701	Sololá	4	Finca Santa Victoria	10	Octubre	2023-10-31T00:00:00	2024-11-08T21:00:00	8	Radiación solar	0
139621	7	Sololá	701	Sololá	4	Finca Santa Victoria	10	Octubre	2023-10-31T00:00:00	2024-11-08T22:00:00	2	Temperatura media	14.7
139622	7	Sololá	701	Sololá	4	Finca Santa Victoria	10	Octubre	2023-10-31T00:00:00	2024-11-08T22:00:00	4	Temperatura máxima	14.8
139623	7	Sololá	701	Sololá	4	Finca Santa Victoria	10	Octubre	2023-10-31T00:00:00	2024-11-08T22:00:00	3	Temperatura mínima	14.5
139624	7	Sololá	701	Sololá	4	Finca Santa Victoria	10	Octubre	2023-10-31T00:00:00	2024-11-08T22:00:00	5	Humedad	80
139625	7	Sololá	701	Sololá	4	Finca Santa Victoria	10	Octubre	2023-10-31T00:00:00	2024-11-08T22:00:00	6	Velocidad del viento	9.7
139626	7	Sololá	701	Sololá	4	Finca Santa Victoria	10	Octubre	2023-10-31T00:00:00	2024-11-08T22:00:00	7	Dirección del viento	4.83
139627	7	Sololá	701	Sololá	4	Finca Santa Victoria	10	Octubre	2023-10-31T00:00:00	2024-11-08T22:00:00	1	Precipitación	0
139628	7	Sololá	701	Sololá	4	Finca Santa Victoria	10	Octubre	2023-10-31T00:00:00	2024-11-08T22:00:00	8	Radiación solar	0
139629	7	Sololá	701	Sololá	4	Finca Santa Victoria	10	Octubre	2023-10-31T00:00:00	2024-11-08T23:00:00	2	Temperatura media	14.9
139630	7	Sololá	701	Sololá	4	Finca Santa Victoria	10	Octubre	2023-10-31T00:00:00	2024-11-08T23:00:00	4	Temperatura máxima	14.9
139631	7	Sololá	701	Sololá	4	Finca Santa Victoria	10	Octubre	2023-10-31T00:00:00	2024-11-08T23:00:00	3	Temperatura mínima	14.7
139632	7	Sololá	701	Sololá	4	Finca Santa Victoria	10	Octubre	2023-10-31T00:00:00	2024-11-08T23:00:00	5	Humedad	80
139633	7	Sololá	701	Sololá	4	Finca Santa Victoria	10	Octubre	2023-10-31T00:00:00	2024-11-08T23:00:00	6	Velocidad del viento	9.7
139634	7	Sololá	701	Sololá	4	Finca Santa Victoria	10	Octubre	2023-10-31T00:00:00	2024-11-08T23:00:00	7	Dirección del viento	4.83
139635	7	Sololá	701	Sololá	4	Finca Santa Victoria	10	Octubre	2023-10-31T00:00:00	2024-11-08T23:00:00	1	Precipitación	0
139636	7	Sololá	701	Sololá	4	Finca Santa Victoria	10	Octubre	2023-10-31T00:00:00	2024-11-08T23:00:00	8	Radiación solar	0
139637	7	Sololá	701	Sololá	4	Finca Santa Victoria	11	Noviembre	2023-01-11T00:00:00	2024-11-08T00:00:00	2	Temperatura media	14.9
139638	7	Sololá	701	Sololá	4	Finca Santa Victoria	11	Noviembre	2023-01-11T00:00:00	2024-11-08T00:00:00	4	Temperatura máxima	15
139639	7	Sololá	701	Sololá	4	Finca Santa Victoria	11	Noviembre	2023-01-11T00:00:00	2024-11-08T00:00:00	3	Temperatura mínima	14.9
139640	7	Sololá	701	Sololá	4	Finca Santa Victoria	11	Noviembre	2023-01-11T00:00:00	2024-11-08T00:00:00	5	Humedad	78
139641	7	Sololá	701	Sololá	4	Finca Santa Victoria	11	Noviembre	2023-01-11T00:00:00	2024-11-08T00:00:00	6	Velocidad del viento	8
139642	7	Sololá	701	Sololá	4	Finca Santa Victoria	11	Noviembre	2023-01-11T00:00:00	2024-11-08T00:00:00	7	Dirección del viento	4.02
139643	7	Sololá	701	Sololá	4	Finca Santa Victoria	11	Noviembre	2023-01-11T00:00:00	2024-11-08T00:00:00	1	Precipitación	0
139644	7	Sololá	701	Sololá	4	Finca Santa Victoria	11	Noviembre	2023-01-11T00:00:00	2024-11-08T00:00:00	8	Radiación solar	0
139645	7	Sololá	701	Sololá	4	Finca Santa Victoria	11	Noviembre	2023-01-11T00:00:00	2024-11-08T01:00:00	2	Temperatura media	11.2
139646	7	Sololá	701	Sololá	4	Finca Santa Victoria	11	Noviembre	2023-01-11T00:00:00	2024-11-08T01:00:00	4	Temperatura máxima	11.4
139647	7	Sololá	701	Sololá	4	Finca Santa Victoria	11	Noviembre	2023-01-11T00:00:00	2024-11-08T01:00:00	3	Temperatura mínima	11.2
139648	7	Sololá	701	Sololá	4	Finca Santa Victoria	11	Noviembre	2023-01-11T00:00:00	2024-11-08T01:00:00	5	Humedad	89
139649	7	Sololá	701	Sololá	4	Finca Santa Victoria	11	Noviembre	2023-01-11T00:00:00	2024-11-08T01:00:00	6	Velocidad del viento	0
139650	7	Sololá	701	Sololá	4	Finca Santa Victoria	11	Noviembre	2023-01-11T00:00:00	2024-11-08T01:00:00	7	Dirección del viento	0
139651	7	Sololá	701	Sololá	4	Finca Santa Victoria	11	Noviembre	2023-01-11T00:00:00	2024-11-08T01:00:00	1	Precipitación	0
139652	7	Sololá	701	Sololá	4	Finca Santa Victoria	11	Noviembre	2023-01-11T00:00:00	2024-11-08T01:00:00	8	Radiación solar	0
139653	7	Sololá	701	Sololá	4	Finca Santa Victoria	11	Noviembre	2023-01-11T00:00:00	2024-11-08T02:00:00	2	Temperatura media	11.2
139654	7	Sololá	701	Sololá	4	Finca Santa Victoria	11	Noviembre	2023-01-11T00:00:00	2024-11-08T02:00:00	4	Temperatura máxima	11.3
139655	7	Sololá	701	Sololá	4	Finca Santa Victoria	11	Noviembre	2023-01-11T00:00:00	2024-11-08T02:00:00	3	Temperatura mínima	11.2
139656	7	Sololá	701	Sololá	4	Finca Santa Victoria	11	Noviembre	2023-01-11T00:00:00	2024-11-08T02:00:00	5	Humedad	89
139657	7	Sololá	701	Sololá	4	Finca Santa Victoria	11	Noviembre	2023-01-11T00:00:00	2024-11-08T02:00:00	6	Velocidad del viento	0
139658	7	Sololá	701	Sololá	4	Finca Santa Victoria	11	Noviembre	2023-01-11T00:00:00	2024-11-08T02:00:00	7	Dirección del viento	0
139659	7	Sololá	701	Sololá	4	Finca Santa Victoria	11	Noviembre	2023-01-11T00:00:00	2024-11-08T02:00:00	1	Precipitación	0
139660	7	Sololá	701	Sololá	4	Finca Santa Victoria	11	Noviembre	2023-01-11T00:00:00	2024-11-08T02:00:00	8	Radiación solar	0
139661	7	Sololá	701	Sololá	4	Finca Santa Victoria	11	Noviembre	2023-01-11T00:00:00	2024-11-08T03:00:00	2	Temperatura media	11.4
139662	7	Sololá	701	Sololá	4	Finca Santa Victoria	11	Noviembre	2023-01-11T00:00:00	2024-11-08T03:00:00	4	Temperatura máxima	11.4
139663	7	Sololá	701	Sololá	4	Finca Santa Victoria	11	Noviembre	2023-01-11T00:00:00	2024-11-08T03:00:00	3	Temperatura mínima	11.1
139664	7	Sololá	701	Sololá	4	Finca Santa Victoria	11	Noviembre	2023-01-11T00:00:00	2024-11-08T03:00:00	5	Humedad	89
139665	7	Sololá	701	Sololá	4	Finca Santa Victoria	11	Noviembre	2023-01-11T00:00:00	2024-11-08T03:00:00	6	Velocidad del viento	0
139666	7	Sololá	701	Sololá	4	Finca Santa Victoria	11	Noviembre	2023-01-11T00:00:00	2024-11-08T03:00:00	7	Dirección del viento	0
139667	7	Sololá	701	Sololá	4	Finca Santa Victoria	11	Noviembre	2023-01-11T00:00:00	2024-11-08T03:00:00	1	Precipitación	0
139668	7	Sololá	701	Sololá	4	Finca Santa Victoria	11	Noviembre	2023-01-11T00:00:00	2024-11-08T03:00:00	8	Radiación solar	0
139669	7	Sololá	701	Sololá	4	Finca Santa Victoria	11	Noviembre	2023-01-11T00:00:00	2024-11-08T04:00:00	2	Temperatura media	10.7
139670	7	Sololá	701	Sololá	4	Finca Santa Victoria	11	Noviembre	2023-01-11T00:00:00	2024-11-08T04:00:00	4	Temperatura máxima	11.4
139671	7	Sololá	701	Sololá	4	Finca Santa Victoria	11	Noviembre	2023-01-11T00:00:00	2024-11-08T04:00:00	3	Temperatura mínima	10.7
139672	7	Sololá	701	Sololá	4	Finca Santa Victoria	11	Noviembre	2023-01-11T00:00:00	2024-11-08T04:00:00	5	Humedad	89
139673	7	Sololá	701	Sololá	4	Finca Santa Victoria	11	Noviembre	2023-01-11T00:00:00	2024-11-08T04:00:00	6	Velocidad del viento	0
139674	7	Sololá	701	Sololá	4	Finca Santa Victoria	11	Noviembre	2023-01-11T00:00:00	2024-11-08T04:00:00	7	Dirección del viento	0
139675	7	Sololá	701	Sololá	4	Finca Santa Victoria	11	Noviembre	2023-01-11T00:00:00	2024-11-08T04:00:00	1	Precipitación	0
139676	7	Sololá	701	Sololá	4	Finca Santa Victoria	11	Noviembre	2023-01-11T00:00:00	2024-11-08T04:00:00	8	Radiación solar	0
139677	7	Sololá	701	Sololá	4	Finca Santa Victoria	11	Noviembre	2023-01-11T00:00:00	2024-11-08T05:00:00	2	Temperatura media	10.2
139678	7	Sololá	701	Sololá	4	Finca Santa Victoria	11	Noviembre	2023-01-11T00:00:00	2024-11-08T05:00:00	4	Temperatura máxima	10.7
139679	7	Sololá	701	Sololá	4	Finca Santa Victoria	11	Noviembre	2023-01-11T00:00:00	2024-11-08T05:00:00	3	Temperatura mínima	10.2
139680	7	Sololá	701	Sololá	4	Finca Santa Victoria	11	Noviembre	2023-01-11T00:00:00	2024-11-08T05:00:00	5	Humedad	89
139681	7	Sololá	701	Sololá	4	Finca Santa Victoria	11	Noviembre	2023-01-11T00:00:00	2024-11-08T05:00:00	6	Velocidad del viento	0
139682	7	Sololá	701	Sololá	4	Finca Santa Victoria	11	Noviembre	2023-01-11T00:00:00	2024-11-08T05:00:00	7	Dirección del viento	0
139683	7	Sololá	701	Sololá	4	Finca Santa Victoria	11	Noviembre	2023-01-11T00:00:00	2024-11-08T05:00:00	1	Precipitación	0
139684	7	Sololá	701	Sololá	4	Finca Santa Victoria	11	Noviembre	2023-01-11T00:00:00	2024-11-08T05:00:00	8	Radiación solar	0
139685	7	Sololá	701	Sololá	4	Finca Santa Victoria	11	Noviembre	2023-01-11T00:00:00	2024-11-08T06:00:00	2	Temperatura media	10.5
139686	7	Sololá	701	Sololá	4	Finca Santa Victoria	11	Noviembre	2023-01-11T00:00:00	2024-11-08T06:00:00	4	Temperatura máxima	10.5
139687	7	Sololá	701	Sololá	4	Finca Santa Victoria	11	Noviembre	2023-01-11T00:00:00	2024-11-08T06:00:00	3	Temperatura mínima	10.1
139688	7	Sololá	701	Sololá	4	Finca Santa Victoria	11	Noviembre	2023-01-11T00:00:00	2024-11-08T06:00:00	5	Humedad	89
139689	7	Sololá	701	Sololá	4	Finca Santa Victoria	11	Noviembre	2023-01-11T00:00:00	2024-11-08T06:00:00	6	Velocidad del viento	1.6
139690	7	Sololá	701	Sololá	4	Finca Santa Victoria	11	Noviembre	2023-01-11T00:00:00	2024-11-08T06:00:00	7	Dirección del viento	1.61
139691	7	Sololá	701	Sololá	4	Finca Santa Victoria	11	Noviembre	2023-01-11T00:00:00	2024-11-08T06:00:00	1	Precipitación	0
139692	7	Sololá	701	Sololá	4	Finca Santa Victoria	11	Noviembre	2023-01-11T00:00:00	2024-11-08T06:00:00	8	Radiación solar	0
139693	7	Sololá	701	Sololá	4	Finca Santa Victoria	11	Noviembre	2023-01-11T00:00:00	2024-11-08T07:00:00	2	Temperatura media	10.7
139694	7	Sololá	701	Sololá	4	Finca Santa Victoria	11	Noviembre	2023-01-11T00:00:00	2024-11-08T07:00:00	4	Temperatura máxima	10.7
139695	7	Sololá	701	Sololá	4	Finca Santa Victoria	11	Noviembre	2023-01-11T00:00:00	2024-11-08T07:00:00	3	Temperatura mínima	10.4
139696	7	Sololá	701	Sololá	4	Finca Santa Victoria	11	Noviembre	2023-01-11T00:00:00	2024-11-08T07:00:00	5	Humedad	89
139697	7	Sololá	701	Sololá	4	Finca Santa Victoria	11	Noviembre	2023-01-11T00:00:00	2024-11-08T07:00:00	6	Velocidad del viento	0
139698	7	Sololá	701	Sololá	4	Finca Santa Victoria	11	Noviembre	2023-01-11T00:00:00	2024-11-08T07:00:00	7	Dirección del viento	0
139699	7	Sololá	701	Sololá	4	Finca Santa Victoria	11	Noviembre	2023-01-11T00:00:00	2024-11-08T07:00:00	1	Precipitación	0
139700	7	Sololá	701	Sololá	4	Finca Santa Victoria	11	Noviembre	2023-01-11T00:00:00	2024-11-08T07:00:00	8	Radiación solar	16
139701	7	Sololá	701	Sololá	4	Finca Santa Victoria	11	Noviembre	2023-01-11T00:00:00	2024-11-08T08:00:00	2	Temperatura media	14.2
139702	7	Sololá	701	Sololá	4	Finca Santa Victoria	11	Noviembre	2023-01-11T00:00:00	2024-11-08T08:00:00	4	Temperatura máxima	14.2
139703	7	Sololá	701	Sololá	4	Finca Santa Victoria	11	Noviembre	2023-01-11T00:00:00	2024-11-08T08:00:00	3	Temperatura mínima	10.7
139704	7	Sololá	701	Sololá	4	Finca Santa Victoria	11	Noviembre	2023-01-11T00:00:00	2024-11-08T08:00:00	5	Humedad	88
139705	7	Sololá	701	Sololá	4	Finca Santa Victoria	11	Noviembre	2023-01-11T00:00:00	2024-11-08T08:00:00	6	Velocidad del viento	0
139706	7	Sololá	701	Sololá	4	Finca Santa Victoria	11	Noviembre	2023-01-11T00:00:00	2024-11-08T08:00:00	7	Dirección del viento	0
139707	7	Sololá	701	Sololá	4	Finca Santa Victoria	11	Noviembre	2023-01-11T00:00:00	2024-11-08T08:00:00	1	Precipitación	0
139708	7	Sololá	701	Sololá	4	Finca Santa Victoria	11	Noviembre	2023-01-11T00:00:00	2024-11-08T08:00:00	8	Radiación solar	165
139709	7	Sololá	701	Sololá	4	Finca Santa Victoria	11	Noviembre	2023-01-11T00:00:00	2024-11-08T09:00:00	2	Temperatura media	15.7
139710	7	Sololá	701	Sololá	4	Finca Santa Victoria	11	Noviembre	2023-01-11T00:00:00	2024-11-08T09:00:00	4	Temperatura máxima	16.1
139711	7	Sololá	701	Sololá	4	Finca Santa Victoria	11	Noviembre	2023-01-11T00:00:00	2024-11-08T09:00:00	3	Temperatura mínima	14.3
139712	7	Sololá	701	Sololá	4	Finca Santa Victoria	11	Noviembre	2023-01-11T00:00:00	2024-11-08T09:00:00	5	Humedad	80
139713	7	Sololá	701	Sololá	4	Finca Santa Victoria	11	Noviembre	2023-01-11T00:00:00	2024-11-08T09:00:00	6	Velocidad del viento	1.6
139714	7	Sololá	701	Sololá	4	Finca Santa Victoria	11	Noviembre	2023-01-11T00:00:00	2024-11-08T09:00:00	7	Dirección del viento	1.61
139715	7	Sololá	701	Sololá	4	Finca Santa Victoria	11	Noviembre	2023-01-11T00:00:00	2024-11-08T09:00:00	1	Precipitación	0
139716	7	Sololá	701	Sololá	4	Finca Santa Victoria	11	Noviembre	2023-01-11T00:00:00	2024-11-08T09:00:00	8	Radiación solar	501
139717	7	Sololá	701	Sololá	4	Finca Santa Victoria	11	Noviembre	2023-01-11T00:00:00	2024-11-08T10:00:00	2	Temperatura media	16.6
139718	7	Sololá	701	Sololá	4	Finca Santa Victoria	11	Noviembre	2023-01-11T00:00:00	2024-11-08T10:00:00	4	Temperatura máxima	17.1
139719	7	Sololá	701	Sololá	4	Finca Santa Victoria	11	Noviembre	2023-01-11T00:00:00	2024-11-08T10:00:00	3	Temperatura mínima	15.7
139720	7	Sololá	701	Sololá	4	Finca Santa Victoria	11	Noviembre	2023-01-11T00:00:00	2024-11-08T10:00:00	5	Humedad	82
139721	7	Sololá	701	Sololá	4	Finca Santa Victoria	11	Noviembre	2023-01-11T00:00:00	2024-11-08T10:00:00	6	Velocidad del viento	1.6
139722	7	Sololá	701	Sololá	4	Finca Santa Victoria	11	Noviembre	2023-01-11T00:00:00	2024-11-08T10:00:00	7	Dirección del viento	1.61
139723	7	Sololá	701	Sololá	4	Finca Santa Victoria	11	Noviembre	2023-01-11T00:00:00	2024-11-08T10:00:00	1	Precipitación	0
139724	7	Sololá	701	Sololá	4	Finca Santa Victoria	11	Noviembre	2023-01-11T00:00:00	2024-11-08T10:00:00	8	Radiación solar	683
139725	7	Sololá	701	Sololá	4	Finca Santa Victoria	11	Noviembre	2023-01-11T00:00:00	2024-11-08T11:00:00	2	Temperatura media	17
139726	7	Sololá	701	Sololá	4	Finca Santa Victoria	11	Noviembre	2023-01-11T00:00:00	2024-11-08T11:00:00	4	Temperatura máxima	17.2
139727	7	Sololá	701	Sololá	4	Finca Santa Victoria	11	Noviembre	2023-01-11T00:00:00	2024-11-08T11:00:00	3	Temperatura mínima	16.6
139728	7	Sololá	701	Sololá	4	Finca Santa Victoria	11	Noviembre	2023-01-11T00:00:00	2024-11-08T11:00:00	5	Humedad	79
139729	7	Sololá	701	Sololá	4	Finca Santa Victoria	11	Noviembre	2023-01-11T00:00:00	2024-11-08T11:00:00	6	Velocidad del viento	3.2
139730	7	Sololá	701	Sololá	4	Finca Santa Victoria	11	Noviembre	2023-01-11T00:00:00	2024-11-08T11:00:00	7	Dirección del viento	3.22
139731	7	Sololá	701	Sololá	4	Finca Santa Victoria	11	Noviembre	2023-01-11T00:00:00	2024-11-08T11:00:00	1	Precipitación	0
139732	7	Sololá	701	Sololá	4	Finca Santa Victoria	11	Noviembre	2023-01-11T00:00:00	2024-11-08T11:00:00	8	Radiación solar	743
139733	7	Sololá	701	Sololá	4	Finca Santa Victoria	11	Noviembre	2023-01-11T00:00:00	2024-11-08T12:00:00	2	Temperatura media	18.3
139734	7	Sololá	701	Sololá	4	Finca Santa Victoria	11	Noviembre	2023-01-11T00:00:00	2024-11-08T12:00:00	4	Temperatura máxima	18.3
139735	7	Sololá	701	Sololá	4	Finca Santa Victoria	11	Noviembre	2023-01-11T00:00:00	2024-11-08T12:00:00	3	Temperatura mínima	16.9
139736	7	Sololá	701	Sololá	4	Finca Santa Victoria	11	Noviembre	2023-01-11T00:00:00	2024-11-08T12:00:00	5	Humedad	80
139737	7	Sololá	701	Sololá	4	Finca Santa Victoria	11	Noviembre	2023-01-11T00:00:00	2024-11-08T12:00:00	6	Velocidad del viento	3.2
139738	7	Sololá	701	Sololá	4	Finca Santa Victoria	11	Noviembre	2023-01-11T00:00:00	2024-11-08T12:00:00	7	Dirección del viento	3.22
139739	7	Sololá	701	Sololá	4	Finca Santa Victoria	11	Noviembre	2023-01-11T00:00:00	2024-11-08T12:00:00	1	Precipitación	0
139740	7	Sololá	701	Sololá	4	Finca Santa Victoria	11	Noviembre	2023-01-11T00:00:00	2024-11-08T12:00:00	8	Radiación solar	798
139741	7	Sololá	701	Sololá	4	Finca Santa Victoria	11	Noviembre	2023-01-11T00:00:00	2024-11-08T13:00:00	2	Temperatura media	17.3
139742	7	Sololá	701	Sololá	4	Finca Santa Victoria	11	Noviembre	2023-01-11T00:00:00	2024-11-08T13:00:00	4	Temperatura máxima	18.9
139743	7	Sololá	701	Sololá	4	Finca Santa Victoria	11	Noviembre	2023-01-11T00:00:00	2024-11-08T13:00:00	3	Temperatura mínima	16.6
139744	7	Sololá	701	Sololá	4	Finca Santa Victoria	11	Noviembre	2023-01-11T00:00:00	2024-11-08T13:00:00	5	Humedad	86
139745	7	Sololá	701	Sololá	4	Finca Santa Victoria	11	Noviembre	2023-01-11T00:00:00	2024-11-08T13:00:00	6	Velocidad del viento	3.2
139746	7	Sololá	701	Sololá	4	Finca Santa Victoria	11	Noviembre	2023-01-11T00:00:00	2024-11-08T13:00:00	7	Dirección del viento	3.22
139747	7	Sololá	701	Sololá	4	Finca Santa Victoria	11	Noviembre	2023-01-11T00:00:00	2024-11-08T13:00:00	1	Precipitación	0
139748	7	Sololá	701	Sololá	4	Finca Santa Victoria	11	Noviembre	2023-01-11T00:00:00	2024-11-08T13:00:00	8	Radiación solar	249
139749	7	Sololá	701	Sololá	4	Finca Santa Victoria	11	Noviembre	2023-01-11T00:00:00	2024-11-08T14:00:00	2	Temperatura media	16.8
139750	7	Sololá	701	Sololá	4	Finca Santa Victoria	11	Noviembre	2023-01-11T00:00:00	2024-11-08T14:00:00	4	Temperatura máxima	17.6
139751	7	Sololá	701	Sololá	4	Finca Santa Victoria	11	Noviembre	2023-01-11T00:00:00	2024-11-08T14:00:00	3	Temperatura mínima	16.8
139752	7	Sololá	701	Sololá	4	Finca Santa Victoria	11	Noviembre	2023-01-11T00:00:00	2024-11-08T14:00:00	5	Humedad	87
139753	7	Sololá	701	Sololá	4	Finca Santa Victoria	11	Noviembre	2023-01-11T00:00:00	2024-11-08T14:00:00	6	Velocidad del viento	1.6
139754	7	Sololá	701	Sololá	4	Finca Santa Victoria	11	Noviembre	2023-01-11T00:00:00	2024-11-08T14:00:00	7	Dirección del viento	1.61
139755	7	Sololá	701	Sololá	4	Finca Santa Victoria	11	Noviembre	2023-01-11T00:00:00	2024-11-08T14:00:00	1	Precipitación	0
139756	7	Sololá	701	Sololá	4	Finca Santa Victoria	11	Noviembre	2023-01-11T00:00:00	2024-11-08T14:00:00	8	Radiación solar	185
139757	7	Sololá	701	Sololá	4	Finca Santa Victoria	11	Noviembre	2023-01-11T00:00:00	2024-11-08T15:00:00	2	Temperatura media	15.3
139758	7	Sololá	701	Sololá	4	Finca Santa Victoria	11	Noviembre	2023-01-11T00:00:00	2024-11-08T15:00:00	4	Temperatura máxima	16.8
139759	7	Sololá	701	Sololá	4	Finca Santa Victoria	11	Noviembre	2023-01-11T00:00:00	2024-11-08T15:00:00	3	Temperatura mínima	15.2
139760	7	Sololá	701	Sololá	4	Finca Santa Victoria	11	Noviembre	2023-01-11T00:00:00	2024-11-08T15:00:00	5	Humedad	89
139761	7	Sololá	701	Sololá	4	Finca Santa Victoria	11	Noviembre	2023-01-11T00:00:00	2024-11-08T15:00:00	6	Velocidad del viento	0
139762	7	Sololá	701	Sololá	4	Finca Santa Victoria	11	Noviembre	2023-01-11T00:00:00	2024-11-08T15:00:00	7	Dirección del viento	0
139763	7	Sololá	701	Sololá	4	Finca Santa Victoria	11	Noviembre	2023-01-11T00:00:00	2024-11-08T15:00:00	1	Precipitación	0.2
139764	7	Sololá	701	Sololá	4	Finca Santa Victoria	11	Noviembre	2023-01-11T00:00:00	2024-11-08T15:00:00	8	Radiación solar	41
139765	7	Sololá	701	Sololá	4	Finca Santa Victoria	11	Noviembre	2023-01-11T00:00:00	2024-11-08T16:00:00	2	Temperatura media	16.1
139766	7	Sololá	701	Sololá	4	Finca Santa Victoria	11	Noviembre	2023-01-11T00:00:00	2024-11-08T16:00:00	4	Temperatura máxima	16.1
139767	7	Sololá	701	Sololá	4	Finca Santa Victoria	11	Noviembre	2023-01-11T00:00:00	2024-11-08T16:00:00	3	Temperatura mínima	14.9
139768	7	Sololá	701	Sololá	4	Finca Santa Victoria	11	Noviembre	2023-01-11T00:00:00	2024-11-08T16:00:00	5	Humedad	89
139769	7	Sololá	701	Sololá	4	Finca Santa Victoria	11	Noviembre	2023-01-11T00:00:00	2024-11-08T16:00:00	6	Velocidad del viento	1.6
139770	7	Sololá	701	Sololá	4	Finca Santa Victoria	11	Noviembre	2023-01-11T00:00:00	2024-11-08T16:00:00	7	Dirección del viento	1.61
139771	7	Sololá	701	Sololá	4	Finca Santa Victoria	11	Noviembre	2023-01-11T00:00:00	2024-11-08T16:00:00	1	Precipitación	0
139772	7	Sololá	701	Sololá	4	Finca Santa Victoria	11	Noviembre	2023-01-11T00:00:00	2024-11-08T16:00:00	8	Radiación solar	76
139773	7	Sololá	701	Sololá	4	Finca Santa Victoria	11	Noviembre	2023-01-11T00:00:00	2024-11-08T17:00:00	2	Temperatura media	15
139774	7	Sololá	701	Sololá	4	Finca Santa Victoria	11	Noviembre	2023-01-11T00:00:00	2024-11-08T17:00:00	4	Temperatura máxima	16.2
139775	7	Sololá	701	Sololá	4	Finca Santa Victoria	11	Noviembre	2023-01-11T00:00:00	2024-11-08T17:00:00	3	Temperatura mínima	15
139776	7	Sololá	701	Sololá	4	Finca Santa Victoria	11	Noviembre	2023-01-11T00:00:00	2024-11-08T17:00:00	5	Humedad	90
139777	7	Sololá	701	Sololá	4	Finca Santa Victoria	11	Noviembre	2023-01-11T00:00:00	2024-11-08T17:00:00	6	Velocidad del viento	0
139778	7	Sololá	701	Sololá	4	Finca Santa Victoria	11	Noviembre	2023-01-11T00:00:00	2024-11-08T17:00:00	7	Dirección del viento	0
139779	7	Sololá	701	Sololá	4	Finca Santa Victoria	11	Noviembre	2023-01-11T00:00:00	2024-11-08T17:00:00	1	Precipitación	0
139780	7	Sololá	701	Sololá	4	Finca Santa Victoria	11	Noviembre	2023-01-11T00:00:00	2024-11-08T17:00:00	8	Radiación solar	33
139781	7	Sololá	701	Sololá	4	Finca Santa Victoria	11	Noviembre	2023-01-11T00:00:00	2024-11-08T18:00:00	2	Temperatura media	13.7
139782	7	Sololá	701	Sololá	4	Finca Santa Victoria	11	Noviembre	2023-01-11T00:00:00	2024-11-08T18:00:00	4	Temperatura máxima	15
139783	7	Sololá	701	Sololá	4	Finca Santa Victoria	11	Noviembre	2023-01-11T00:00:00	2024-11-08T18:00:00	3	Temperatura mínima	13.6
139784	7	Sololá	701	Sololá	4	Finca Santa Victoria	11	Noviembre	2023-01-11T00:00:00	2024-11-08T18:00:00	5	Humedad	90
139785	7	Sololá	701	Sololá	4	Finca Santa Victoria	11	Noviembre	2023-01-11T00:00:00	2024-11-08T18:00:00	6	Velocidad del viento	0
139786	7	Sololá	701	Sololá	4	Finca Santa Victoria	11	Noviembre	2023-01-11T00:00:00	2024-11-08T18:00:00	7	Dirección del viento	0
139787	7	Sololá	701	Sololá	4	Finca Santa Victoria	11	Noviembre	2023-01-11T00:00:00	2024-11-08T18:00:00	1	Precipitación	0
139788	7	Sololá	701	Sololá	4	Finca Santa Victoria	11	Noviembre	2023-01-11T00:00:00	2024-11-08T18:00:00	8	Radiación solar	3
139789	7	Sololá	701	Sololá	4	Finca Santa Victoria	11	Noviembre	2023-01-11T00:00:00	2024-11-08T19:00:00	2	Temperatura media	13.3
139790	7	Sololá	701	Sololá	4	Finca Santa Victoria	11	Noviembre	2023-01-11T00:00:00	2024-11-08T19:00:00	4	Temperatura máxima	13.6
139791	7	Sololá	701	Sololá	4	Finca Santa Victoria	11	Noviembre	2023-01-11T00:00:00	2024-11-08T19:00:00	3	Temperatura mínima	13.3
139792	7	Sololá	701	Sololá	4	Finca Santa Victoria	11	Noviembre	2023-01-11T00:00:00	2024-11-08T19:00:00	5	Humedad	89
139793	7	Sololá	701	Sololá	4	Finca Santa Victoria	11	Noviembre	2023-01-11T00:00:00	2024-11-08T19:00:00	6	Velocidad del viento	0
139794	7	Sololá	701	Sololá	4	Finca Santa Victoria	11	Noviembre	2023-01-11T00:00:00	2024-11-08T19:00:00	7	Dirección del viento	0
139795	7	Sololá	701	Sololá	4	Finca Santa Victoria	11	Noviembre	2023-01-11T00:00:00	2024-11-08T19:00:00	1	Precipitación	0
139796	7	Sololá	701	Sololá	4	Finca Santa Victoria	11	Noviembre	2023-01-11T00:00:00	2024-11-08T19:00:00	8	Radiación solar	0
139797	7	Sololá	701	Sololá	4	Finca Santa Victoria	11	Noviembre	2023-01-11T00:00:00	2024-11-08T20:00:00	2	Temperatura media	13.1
139798	7	Sololá	701	Sololá	4	Finca Santa Victoria	11	Noviembre	2023-01-11T00:00:00	2024-11-08T20:00:00	4	Temperatura máxima	13.4
139799	7	Sololá	701	Sololá	4	Finca Santa Victoria	11	Noviembre	2023-01-11T00:00:00	2024-11-08T20:00:00	3	Temperatura mínima	12.9
139800	7	Sololá	701	Sololá	4	Finca Santa Victoria	11	Noviembre	2023-01-11T00:00:00	2024-11-08T20:00:00	5	Humedad	86
139801	7	Sololá	701	Sololá	4	Finca Santa Victoria	11	Noviembre	2023-01-11T00:00:00	2024-11-08T20:00:00	6	Velocidad del viento	1.6
139802	7	Sololá	701	Sololá	4	Finca Santa Victoria	11	Noviembre	2023-01-11T00:00:00	2024-11-08T20:00:00	7	Dirección del viento	1.61
139803	7	Sololá	701	Sololá	4	Finca Santa Victoria	11	Noviembre	2023-01-11T00:00:00	2024-11-08T20:00:00	1	Precipitación	0
139804	7	Sololá	701	Sololá	4	Finca Santa Victoria	11	Noviembre	2023-01-11T00:00:00	2024-11-08T20:00:00	8	Radiación solar	0
139805	7	Sololá	701	Sololá	4	Finca Santa Victoria	11	Noviembre	2023-01-11T00:00:00	2024-11-08T21:00:00	2	Temperatura media	12.8
139806	7	Sololá	701	Sololá	4	Finca Santa Victoria	11	Noviembre	2023-01-11T00:00:00	2024-11-08T21:00:00	4	Temperatura máxima	13.2
139807	7	Sololá	701	Sololá	4	Finca Santa Victoria	11	Noviembre	2023-01-11T00:00:00	2024-11-08T21:00:00	3	Temperatura mínima	12.8
139808	7	Sololá	701	Sololá	4	Finca Santa Victoria	11	Noviembre	2023-01-11T00:00:00	2024-11-08T21:00:00	5	Humedad	86
139809	7	Sololá	701	Sololá	4	Finca Santa Victoria	11	Noviembre	2023-01-11T00:00:00	2024-11-08T21:00:00	6	Velocidad del viento	1.6
139810	7	Sololá	701	Sololá	4	Finca Santa Victoria	11	Noviembre	2023-01-11T00:00:00	2024-11-08T21:00:00	7	Dirección del viento	1.61
139811	7	Sololá	701	Sololá	4	Finca Santa Victoria	11	Noviembre	2023-01-11T00:00:00	2024-11-08T21:00:00	1	Precipitación	0
139812	7	Sololá	701	Sololá	4	Finca Santa Victoria	11	Noviembre	2023-01-11T00:00:00	2024-11-08T21:00:00	8	Radiación solar	0
139813	7	Sololá	701	Sololá	4	Finca Santa Victoria	11	Noviembre	2023-01-11T00:00:00	2024-11-08T22:00:00	2	Temperatura media	12.4
139814	7	Sololá	701	Sololá	4	Finca Santa Victoria	11	Noviembre	2023-01-11T00:00:00	2024-11-08T22:00:00	4	Temperatura máxima	12.8
139815	7	Sololá	701	Sololá	4	Finca Santa Victoria	11	Noviembre	2023-01-11T00:00:00	2024-11-08T22:00:00	3	Temperatura mínima	12.4
139816	7	Sololá	701	Sololá	4	Finca Santa Victoria	11	Noviembre	2023-01-11T00:00:00	2024-11-08T22:00:00	5	Humedad	86
139817	7	Sololá	701	Sololá	4	Finca Santa Victoria	11	Noviembre	2023-01-11T00:00:00	2024-11-08T22:00:00	6	Velocidad del viento	1.6
139818	7	Sololá	701	Sololá	4	Finca Santa Victoria	11	Noviembre	2023-01-11T00:00:00	2024-11-08T22:00:00	7	Dirección del viento	1.61
139819	7	Sololá	701	Sololá	4	Finca Santa Victoria	11	Noviembre	2023-01-11T00:00:00	2024-11-08T22:00:00	1	Precipitación	0
139820	7	Sololá	701	Sololá	4	Finca Santa Victoria	11	Noviembre	2023-01-11T00:00:00	2024-11-08T22:00:00	8	Radiación solar	0
139821	7	Sololá	701	Sololá	4	Finca Santa Victoria	11	Noviembre	2023-01-11T00:00:00	2024-11-08T23:00:00	2	Temperatura media	11.6
139822	7	Sololá	701	Sololá	4	Finca Santa Victoria	11	Noviembre	2023-01-11T00:00:00	2024-11-08T23:00:00	4	Temperatura máxima	12.6
139823	7	Sololá	701	Sololá	4	Finca Santa Victoria	11	Noviembre	2023-01-11T00:00:00	2024-11-08T23:00:00	3	Temperatura mínima	11.6
139824	7	Sololá	701	Sololá	4	Finca Santa Victoria	11	Noviembre	2023-01-11T00:00:00	2024-11-08T23:00:00	5	Humedad	87
139825	7	Sololá	701	Sololá	4	Finca Santa Victoria	11	Noviembre	2023-01-11T00:00:00	2024-11-08T23:00:00	6	Velocidad del viento	0
139826	7	Sololá	701	Sololá	4	Finca Santa Victoria	11	Noviembre	2023-01-11T00:00:00	2024-11-08T23:00:00	7	Dirección del viento	0
139827	7	Sololá	701	Sololá	4	Finca Santa Victoria	11	Noviembre	2023-01-11T00:00:00	2024-11-08T23:00:00	1	Precipitación	0
139828	7	Sololá	701	Sololá	4	Finca Santa Victoria	11	Noviembre	2023-01-11T00:00:00	2024-11-08T23:00:00	8	Radiación solar	0
139829	7	Sololá	701	Sololá	4	Finca Santa Victoria	11	Noviembre	2023-02-11T00:00:00	2024-11-08T00:00:00	2	Temperatura media	12.1
139830	7	Sololá	701	Sololá	4	Finca Santa Victoria	11	Noviembre	2023-02-11T00:00:00	2024-11-08T00:00:00	4	Temperatura máxima	12.1
139831	7	Sololá	701	Sololá	4	Finca Santa Victoria	11	Noviembre	2023-02-11T00:00:00	2024-11-08T00:00:00	3	Temperatura mínima	11.6
139832	7	Sololá	701	Sololá	4	Finca Santa Victoria	11	Noviembre	2023-02-11T00:00:00	2024-11-08T00:00:00	5	Humedad	87
139833	7	Sololá	701	Sololá	4	Finca Santa Victoria	11	Noviembre	2023-02-11T00:00:00	2024-11-08T00:00:00	6	Velocidad del viento	1.6
139834	7	Sololá	701	Sololá	4	Finca Santa Victoria	11	Noviembre	2023-02-11T00:00:00	2024-11-08T00:00:00	7	Dirección del viento	1.61
139835	7	Sololá	701	Sololá	4	Finca Santa Victoria	11	Noviembre	2023-02-11T00:00:00	2024-11-08T00:00:00	1	Precipitación	0
139836	7	Sololá	701	Sololá	4	Finca Santa Victoria	11	Noviembre	2023-02-11T00:00:00	2024-11-08T00:00:00	8	Radiación solar	0
139837	7	Sololá	701	Sololá	4	Finca Santa Victoria	11	Noviembre	2023-02-11T00:00:00	2024-11-08T01:00:00	2	Temperatura media	13
139838	7	Sololá	701	Sololá	4	Finca Santa Victoria	11	Noviembre	2023-02-11T00:00:00	2024-11-08T01:00:00	4	Temperatura máxima	13
139839	7	Sololá	701	Sololá	4	Finca Santa Victoria	11	Noviembre	2023-02-11T00:00:00	2024-11-08T01:00:00	3	Temperatura mínima	12.1
139840	7	Sololá	701	Sololá	4	Finca Santa Victoria	11	Noviembre	2023-02-11T00:00:00	2024-11-08T01:00:00	5	Humedad	85
139841	7	Sololá	701	Sololá	4	Finca Santa Victoria	11	Noviembre	2023-02-11T00:00:00	2024-11-08T01:00:00	6	Velocidad del viento	1.6
139842	7	Sololá	701	Sololá	4	Finca Santa Victoria	11	Noviembre	2023-02-11T00:00:00	2024-11-08T01:00:00	7	Dirección del viento	1.61
139843	7	Sololá	701	Sololá	4	Finca Santa Victoria	11	Noviembre	2023-02-11T00:00:00	2024-11-08T01:00:00	1	Precipitación	0
139844	7	Sololá	701	Sololá	4	Finca Santa Victoria	11	Noviembre	2023-02-11T00:00:00	2024-11-08T01:00:00	8	Radiación solar	0
139845	7	Sololá	701	Sololá	4	Finca Santa Victoria	11	Noviembre	2023-02-11T00:00:00	2024-11-08T02:00:00	2	Temperatura media	12.3
139846	7	Sololá	701	Sololá	4	Finca Santa Victoria	11	Noviembre	2023-02-11T00:00:00	2024-11-08T02:00:00	4	Temperatura máxima	13
139847	7	Sololá	701	Sololá	4	Finca Santa Victoria	11	Noviembre	2023-02-11T00:00:00	2024-11-08T02:00:00	3	Temperatura mínima	12.2
139848	7	Sololá	701	Sololá	4	Finca Santa Victoria	11	Noviembre	2023-02-11T00:00:00	2024-11-08T02:00:00	5	Humedad	85
139849	7	Sololá	701	Sololá	4	Finca Santa Victoria	11	Noviembre	2023-02-11T00:00:00	2024-11-08T02:00:00	6	Velocidad del viento	1.6
139850	7	Sololá	701	Sololá	4	Finca Santa Victoria	11	Noviembre	2023-02-11T00:00:00	2024-11-08T02:00:00	7	Dirección del viento	1.61
139851	7	Sololá	701	Sololá	4	Finca Santa Victoria	11	Noviembre	2023-02-11T00:00:00	2024-11-08T02:00:00	1	Precipitación	0
139852	7	Sololá	701	Sololá	4	Finca Santa Victoria	11	Noviembre	2023-02-11T00:00:00	2024-11-08T02:00:00	8	Radiación solar	0
139853	7	Sololá	701	Sololá	4	Finca Santa Victoria	11	Noviembre	2023-02-11T00:00:00	2024-11-08T03:00:00	2	Temperatura media	12.8
139854	7	Sololá	701	Sololá	4	Finca Santa Victoria	11	Noviembre	2023-02-11T00:00:00	2024-11-08T03:00:00	4	Temperatura máxima	12.9
139855	7	Sololá	701	Sololá	4	Finca Santa Victoria	11	Noviembre	2023-02-11T00:00:00	2024-11-08T03:00:00	3	Temperatura mínima	12.3
139856	7	Sololá	701	Sololá	4	Finca Santa Victoria	11	Noviembre	2023-02-11T00:00:00	2024-11-08T03:00:00	5	Humedad	83
139857	7	Sololá	701	Sololá	4	Finca Santa Victoria	11	Noviembre	2023-02-11T00:00:00	2024-11-08T03:00:00	6	Velocidad del viento	1.6
139858	7	Sololá	701	Sololá	4	Finca Santa Victoria	11	Noviembre	2023-02-11T00:00:00	2024-11-08T03:00:00	7	Dirección del viento	1.61
139859	7	Sololá	701	Sololá	4	Finca Santa Victoria	11	Noviembre	2023-02-11T00:00:00	2024-11-08T03:00:00	1	Precipitación	0
139860	7	Sololá	701	Sololá	4	Finca Santa Victoria	11	Noviembre	2023-02-11T00:00:00	2024-11-08T03:00:00	8	Radiación solar	0
139861	7	Sololá	701	Sololá	4	Finca Santa Victoria	11	Noviembre	2023-02-11T00:00:00	2024-11-08T04:00:00	2	Temperatura media	12.6
139862	7	Sololá	701	Sololá	4	Finca Santa Victoria	11	Noviembre	2023-02-11T00:00:00	2024-11-08T04:00:00	4	Temperatura máxima	12.9
139863	7	Sololá	701	Sololá	4	Finca Santa Victoria	11	Noviembre	2023-02-11T00:00:00	2024-11-08T04:00:00	3	Temperatura mínima	12.6
139864	7	Sololá	701	Sololá	4	Finca Santa Victoria	11	Noviembre	2023-02-11T00:00:00	2024-11-08T04:00:00	5	Humedad	85
139865	7	Sololá	701	Sololá	4	Finca Santa Victoria	11	Noviembre	2023-02-11T00:00:00	2024-11-08T04:00:00	6	Velocidad del viento	1.6
139866	7	Sololá	701	Sololá	4	Finca Santa Victoria	11	Noviembre	2023-02-11T00:00:00	2024-11-08T04:00:00	7	Dirección del viento	1.61
139867	7	Sololá	701	Sololá	4	Finca Santa Victoria	11	Noviembre	2023-02-11T00:00:00	2024-11-08T04:00:00	1	Precipitación	0
139868	7	Sololá	701	Sololá	4	Finca Santa Victoria	11	Noviembre	2023-02-11T00:00:00	2024-11-08T04:00:00	8	Radiación solar	0
139869	7	Sololá	701	Sololá	4	Finca Santa Victoria	11	Noviembre	2023-02-11T00:00:00	2024-11-08T05:00:00	2	Temperatura media	12.5
139870	7	Sololá	701	Sololá	4	Finca Santa Victoria	11	Noviembre	2023-02-11T00:00:00	2024-11-08T05:00:00	4	Temperatura máxima	12.6
139871	7	Sololá	701	Sololá	4	Finca Santa Victoria	11	Noviembre	2023-02-11T00:00:00	2024-11-08T05:00:00	3	Temperatura mínima	12.3
139872	7	Sololá	701	Sololá	4	Finca Santa Victoria	11	Noviembre	2023-02-11T00:00:00	2024-11-08T05:00:00	5	Humedad	86
139873	7	Sololá	701	Sololá	4	Finca Santa Victoria	11	Noviembre	2023-02-11T00:00:00	2024-11-08T05:00:00	6	Velocidad del viento	1.6
139874	7	Sololá	701	Sololá	4	Finca Santa Victoria	11	Noviembre	2023-02-11T00:00:00	2024-11-08T05:00:00	7	Dirección del viento	1.61
139875	7	Sololá	701	Sololá	4	Finca Santa Victoria	11	Noviembre	2023-02-11T00:00:00	2024-11-08T05:00:00	1	Precipitación	0
139876	7	Sololá	701	Sololá	4	Finca Santa Victoria	11	Noviembre	2023-02-11T00:00:00	2024-11-08T05:00:00	8	Radiación solar	0
139877	7	Sololá	701	Sololá	4	Finca Santa Victoria	11	Noviembre	2023-02-11T00:00:00	2024-11-08T06:00:00	2	Temperatura media	12.3
139878	7	Sololá	701	Sololá	4	Finca Santa Victoria	11	Noviembre	2023-02-11T00:00:00	2024-11-08T06:00:00	4	Temperatura máxima	12.5
139879	7	Sololá	701	Sololá	4	Finca Santa Victoria	11	Noviembre	2023-02-11T00:00:00	2024-11-08T06:00:00	3	Temperatura mínima	12.3
139880	7	Sololá	701	Sololá	4	Finca Santa Victoria	11	Noviembre	2023-02-11T00:00:00	2024-11-08T06:00:00	5	Humedad	88
139881	7	Sololá	701	Sololá	4	Finca Santa Victoria	11	Noviembre	2023-02-11T00:00:00	2024-11-08T06:00:00	6	Velocidad del viento	1.6
139882	7	Sololá	701	Sololá	4	Finca Santa Victoria	11	Noviembre	2023-02-11T00:00:00	2024-11-08T06:00:00	7	Dirección del viento	1.61
139883	7	Sololá	701	Sololá	4	Finca Santa Victoria	11	Noviembre	2023-02-11T00:00:00	2024-11-08T06:00:00	1	Precipitación	0
139884	7	Sololá	701	Sololá	4	Finca Santa Victoria	11	Noviembre	2023-02-11T00:00:00	2024-11-08T06:00:00	8	Radiación solar	0
139885	7	Sololá	701	Sololá	4	Finca Santa Victoria	11	Noviembre	2023-02-11T00:00:00	2024-11-08T07:00:00	2	Temperatura media	12.5
139886	7	Sololá	701	Sololá	4	Finca Santa Victoria	11	Noviembre	2023-02-11T00:00:00	2024-11-08T07:00:00	4	Temperatura máxima	12.5
139887	7	Sololá	701	Sololá	4	Finca Santa Victoria	11	Noviembre	2023-02-11T00:00:00	2024-11-08T07:00:00	3	Temperatura mínima	12.1
139888	7	Sololá	701	Sololá	4	Finca Santa Victoria	11	Noviembre	2023-02-11T00:00:00	2024-11-08T07:00:00	5	Humedad	88
139889	7	Sololá	701	Sololá	4	Finca Santa Victoria	11	Noviembre	2023-02-11T00:00:00	2024-11-08T07:00:00	6	Velocidad del viento	3.2
139890	7	Sololá	701	Sololá	4	Finca Santa Victoria	11	Noviembre	2023-02-11T00:00:00	2024-11-08T07:00:00	7	Dirección del viento	3.22
139891	7	Sololá	701	Sololá	4	Finca Santa Victoria	11	Noviembre	2023-02-11T00:00:00	2024-11-08T07:00:00	1	Precipitación	0
139892	7	Sololá	701	Sololá	4	Finca Santa Victoria	11	Noviembre	2023-02-11T00:00:00	2024-11-08T07:00:00	8	Radiación solar	14
139893	7	Sololá	701	Sololá	4	Finca Santa Victoria	11	Noviembre	2023-02-11T00:00:00	2024-11-08T08:00:00	2	Temperatura media	14
139894	7	Sololá	701	Sololá	4	Finca Santa Victoria	11	Noviembre	2023-02-11T00:00:00	2024-11-08T08:00:00	4	Temperatura máxima	14.1
139895	7	Sololá	701	Sololá	4	Finca Santa Victoria	11	Noviembre	2023-02-11T00:00:00	2024-11-08T08:00:00	3	Temperatura mínima	12.4
139896	7	Sololá	701	Sololá	4	Finca Santa Victoria	11	Noviembre	2023-02-11T00:00:00	2024-11-08T08:00:00	5	Humedad	84
139897	7	Sololá	701	Sololá	4	Finca Santa Victoria	11	Noviembre	2023-02-11T00:00:00	2024-11-08T08:00:00	6	Velocidad del viento	3.2
139898	7	Sololá	701	Sololá	4	Finca Santa Victoria	11	Noviembre	2023-02-11T00:00:00	2024-11-08T08:00:00	7	Dirección del viento	3.22
139899	7	Sololá	701	Sololá	4	Finca Santa Victoria	11	Noviembre	2023-02-11T00:00:00	2024-11-08T08:00:00	1	Precipitación	0
139900	7	Sololá	701	Sololá	4	Finca Santa Victoria	11	Noviembre	2023-02-11T00:00:00	2024-11-08T08:00:00	8	Radiación solar	115
139901	7	Sololá	701	Sololá	4	Finca Santa Victoria	11	Noviembre	2023-02-11T00:00:00	2024-11-08T09:00:00	2	Temperatura media	15.7
139902	7	Sololá	701	Sololá	4	Finca Santa Victoria	11	Noviembre	2023-02-11T00:00:00	2024-11-08T09:00:00	4	Temperatura máxima	15.7
139903	7	Sololá	701	Sololá	4	Finca Santa Victoria	11	Noviembre	2023-02-11T00:00:00	2024-11-08T09:00:00	3	Temperatura mínima	13.7
139904	7	Sololá	701	Sololá	4	Finca Santa Victoria	11	Noviembre	2023-02-11T00:00:00	2024-11-08T09:00:00	5	Humedad	80
139905	7	Sololá	701	Sololá	4	Finca Santa Victoria	11	Noviembre	2023-02-11T00:00:00	2024-11-08T09:00:00	6	Velocidad del viento	3.2
139906	7	Sololá	701	Sololá	4	Finca Santa Victoria	11	Noviembre	2023-02-11T00:00:00	2024-11-08T09:00:00	7	Dirección del viento	3.22
139907	7	Sololá	701	Sololá	4	Finca Santa Victoria	11	Noviembre	2023-02-11T00:00:00	2024-11-08T09:00:00	1	Precipitación	0
139908	7	Sololá	701	Sololá	4	Finca Santa Victoria	11	Noviembre	2023-02-11T00:00:00	2024-11-08T09:00:00	8	Radiación solar	311
139909	7	Sololá	701	Sololá	4	Finca Santa Victoria	11	Noviembre	2023-02-11T00:00:00	2024-11-08T10:00:00	2	Temperatura media	16.9
139910	7	Sololá	701	Sololá	4	Finca Santa Victoria	11	Noviembre	2023-02-11T00:00:00	2024-11-08T10:00:00	4	Temperatura máxima	16.9
139911	7	Sololá	701	Sololá	4	Finca Santa Victoria	11	Noviembre	2023-02-11T00:00:00	2024-11-08T10:00:00	3	Temperatura mínima	15.7
139912	7	Sololá	701	Sololá	4	Finca Santa Victoria	11	Noviembre	2023-02-11T00:00:00	2024-11-08T10:00:00	5	Humedad	77
139913	7	Sololá	701	Sololá	4	Finca Santa Victoria	11	Noviembre	2023-02-11T00:00:00	2024-11-08T10:00:00	6	Velocidad del viento	4.8
139914	7	Sololá	701	Sololá	4	Finca Santa Victoria	11	Noviembre	2023-02-11T00:00:00	2024-11-08T10:00:00	7	Dirección del viento	4.83
139915	7	Sololá	701	Sololá	4	Finca Santa Victoria	11	Noviembre	2023-02-11T00:00:00	2024-11-08T10:00:00	1	Precipitación	0
139916	7	Sololá	701	Sololá	4	Finca Santa Victoria	11	Noviembre	2023-02-11T00:00:00	2024-11-08T10:00:00	8	Radiación solar	662
139917	7	Sololá	701	Sololá	4	Finca Santa Victoria	11	Noviembre	2023-02-11T00:00:00	2024-11-08T11:00:00	2	Temperatura media	16.4
139918	7	Sololá	701	Sololá	4	Finca Santa Victoria	11	Noviembre	2023-02-11T00:00:00	2024-11-08T11:00:00	4	Temperatura máxima	17.6
139919	7	Sololá	701	Sololá	4	Finca Santa Victoria	11	Noviembre	2023-02-11T00:00:00	2024-11-08T11:00:00	3	Temperatura mínima	16.3
139920	7	Sololá	701	Sololá	4	Finca Santa Victoria	11	Noviembre	2023-02-11T00:00:00	2024-11-08T11:00:00	5	Humedad	78
139921	7	Sololá	701	Sololá	4	Finca Santa Victoria	11	Noviembre	2023-02-11T00:00:00	2024-11-08T11:00:00	6	Velocidad del viento	4.8
139922	7	Sololá	701	Sololá	4	Finca Santa Victoria	11	Noviembre	2023-02-11T00:00:00	2024-11-08T11:00:00	7	Dirección del viento	4.83
139923	7	Sololá	701	Sololá	4	Finca Santa Victoria	11	Noviembre	2023-02-11T00:00:00	2024-11-08T11:00:00	1	Precipitación	0
139924	7	Sololá	701	Sololá	4	Finca Santa Victoria	11	Noviembre	2023-02-11T00:00:00	2024-11-08T11:00:00	8	Radiación solar	557
139925	7	Sololá	701	Sololá	4	Finca Santa Victoria	11	Noviembre	2023-02-11T00:00:00	2024-11-08T12:00:00	2	Temperatura media	16.9
139926	7	Sololá	701	Sololá	4	Finca Santa Victoria	11	Noviembre	2023-02-11T00:00:00	2024-11-08T12:00:00	4	Temperatura máxima	18.2
139927	7	Sololá	701	Sololá	4	Finca Santa Victoria	11	Noviembre	2023-02-11T00:00:00	2024-11-08T12:00:00	3	Temperatura mínima	16.3
139928	7	Sololá	701	Sololá	4	Finca Santa Victoria	11	Noviembre	2023-02-11T00:00:00	2024-11-08T12:00:00	5	Humedad	76
139929	7	Sololá	701	Sololá	4	Finca Santa Victoria	11	Noviembre	2023-02-11T00:00:00	2024-11-08T12:00:00	6	Velocidad del viento	3.2
139930	7	Sololá	701	Sololá	4	Finca Santa Victoria	11	Noviembre	2023-02-11T00:00:00	2024-11-08T12:00:00	7	Dirección del viento	3.22
139931	7	Sololá	701	Sololá	4	Finca Santa Victoria	11	Noviembre	2023-02-11T00:00:00	2024-11-08T12:00:00	1	Precipitación	0
139932	7	Sololá	701	Sololá	4	Finca Santa Victoria	11	Noviembre	2023-02-11T00:00:00	2024-11-08T12:00:00	8	Radiación solar	493
139933	7	Sololá	701	Sololá	4	Finca Santa Victoria	11	Noviembre	2023-02-11T00:00:00	2024-11-08T13:00:00	2	Temperatura media	18.1
139934	7	Sololá	701	Sololá	4	Finca Santa Victoria	11	Noviembre	2023-02-11T00:00:00	2024-11-08T13:00:00	4	Temperatura máxima	18.1
139935	7	Sololá	701	Sololá	4	Finca Santa Victoria	11	Noviembre	2023-02-11T00:00:00	2024-11-08T13:00:00	3	Temperatura mínima	16.8
139936	7	Sololá	701	Sololá	4	Finca Santa Victoria	11	Noviembre	2023-02-11T00:00:00	2024-11-08T13:00:00	5	Humedad	73
139937	7	Sololá	701	Sololá	4	Finca Santa Victoria	11	Noviembre	2023-02-11T00:00:00	2024-11-08T13:00:00	6	Velocidad del viento	4.8
139938	7	Sololá	701	Sololá	4	Finca Santa Victoria	11	Noviembre	2023-02-11T00:00:00	2024-11-08T13:00:00	7	Dirección del viento	4.83
139939	7	Sololá	701	Sololá	4	Finca Santa Victoria	11	Noviembre	2023-02-11T00:00:00	2024-11-08T13:00:00	1	Precipitación	0
139940	7	Sololá	701	Sololá	4	Finca Santa Victoria	11	Noviembre	2023-02-11T00:00:00	2024-11-08T13:00:00	8	Radiación solar	354
139941	7	Sololá	701	Sololá	4	Finca Santa Victoria	11	Noviembre	2023-02-11T00:00:00	2024-11-08T14:00:00	2	Temperatura media	18.7
139942	7	Sololá	701	Sololá	4	Finca Santa Victoria	11	Noviembre	2023-02-11T00:00:00	2024-11-08T14:00:00	4	Temperatura máxima	18.7
139943	7	Sololá	701	Sololá	4	Finca Santa Victoria	11	Noviembre	2023-02-11T00:00:00	2024-11-08T14:00:00	3	Temperatura mínima	17.3
139944	7	Sololá	701	Sololá	4	Finca Santa Victoria	11	Noviembre	2023-02-11T00:00:00	2024-11-08T14:00:00	5	Humedad	76
139945	7	Sololá	701	Sololá	4	Finca Santa Victoria	11	Noviembre	2023-02-11T00:00:00	2024-11-08T14:00:00	6	Velocidad del viento	3.2
139946	7	Sololá	701	Sololá	4	Finca Santa Victoria	11	Noviembre	2023-02-11T00:00:00	2024-11-08T14:00:00	7	Dirección del viento	3.22
139947	7	Sololá	701	Sololá	4	Finca Santa Victoria	11	Noviembre	2023-02-11T00:00:00	2024-11-08T14:00:00	1	Precipitación	0
139948	7	Sololá	701	Sololá	4	Finca Santa Victoria	11	Noviembre	2023-02-11T00:00:00	2024-11-08T14:00:00	8	Radiación solar	183
139949	7	Sololá	701	Sololá	4	Finca Santa Victoria	11	Noviembre	2023-02-11T00:00:00	2024-11-08T15:00:00	2	Temperatura media	17.8
139950	7	Sololá	701	Sololá	4	Finca Santa Victoria	11	Noviembre	2023-02-11T00:00:00	2024-11-08T15:00:00	4	Temperatura máxima	18.9
139951	7	Sololá	701	Sololá	4	Finca Santa Victoria	11	Noviembre	2023-02-11T00:00:00	2024-11-08T15:00:00	3	Temperatura mínima	17.8
139952	7	Sololá	701	Sololá	4	Finca Santa Victoria	11	Noviembre	2023-02-11T00:00:00	2024-11-08T15:00:00	5	Humedad	73
139953	7	Sololá	701	Sololá	4	Finca Santa Victoria	11	Noviembre	2023-02-11T00:00:00	2024-11-08T15:00:00	6	Velocidad del viento	3.2
139954	7	Sololá	701	Sololá	4	Finca Santa Victoria	11	Noviembre	2023-02-11T00:00:00	2024-11-08T15:00:00	7	Dirección del viento	3.22
139955	7	Sololá	701	Sololá	4	Finca Santa Victoria	11	Noviembre	2023-02-11T00:00:00	2024-11-08T15:00:00	1	Precipitación	0
139956	7	Sololá	701	Sololá	4	Finca Santa Victoria	11	Noviembre	2023-02-11T00:00:00	2024-11-08T15:00:00	8	Radiación solar	150
139957	7	Sololá	701	Sololá	4	Finca Santa Victoria	11	Noviembre	2023-02-11T00:00:00	2024-11-08T16:00:00	2	Temperatura media	17
139958	7	Sololá	701	Sololá	4	Finca Santa Victoria	11	Noviembre	2023-02-11T00:00:00	2024-11-08T16:00:00	4	Temperatura máxima	17.7
139959	7	Sololá	701	Sololá	4	Finca Santa Victoria	11	Noviembre	2023-02-11T00:00:00	2024-11-08T16:00:00	3	Temperatura mínima	16.5
139960	7	Sololá	701	Sololá	4	Finca Santa Victoria	11	Noviembre	2023-02-11T00:00:00	2024-11-08T16:00:00	5	Humedad	75
139961	7	Sololá	701	Sololá	4	Finca Santa Victoria	11	Noviembre	2023-02-11T00:00:00	2024-11-08T16:00:00	6	Velocidad del viento	3.2
139962	7	Sololá	701	Sololá	4	Finca Santa Victoria	11	Noviembre	2023-02-11T00:00:00	2024-11-08T16:00:00	7	Dirección del viento	3.22
139963	7	Sololá	701	Sololá	4	Finca Santa Victoria	11	Noviembre	2023-02-11T00:00:00	2024-11-08T16:00:00	1	Precipitación	0
139964	7	Sololá	701	Sololá	4	Finca Santa Victoria	11	Noviembre	2023-02-11T00:00:00	2024-11-08T16:00:00	8	Radiación solar	96
139965	7	Sololá	701	Sololá	4	Finca Santa Victoria	11	Noviembre	2023-02-11T00:00:00	2024-11-08T17:00:00	2	Temperatura media	15.3
139966	7	Sololá	701	Sololá	4	Finca Santa Victoria	11	Noviembre	2023-02-11T00:00:00	2024-11-08T17:00:00	4	Temperatura máxima	17
139967	7	Sololá	701	Sololá	4	Finca Santa Victoria	11	Noviembre	2023-02-11T00:00:00	2024-11-08T17:00:00	3	Temperatura mínima	15.3
139968	7	Sololá	701	Sololá	4	Finca Santa Victoria	11	Noviembre	2023-02-11T00:00:00	2024-11-08T17:00:00	5	Humedad	82
139969	7	Sololá	701	Sololá	4	Finca Santa Victoria	11	Noviembre	2023-02-11T00:00:00	2024-11-08T17:00:00	6	Velocidad del viento	1.6
139970	7	Sololá	701	Sololá	4	Finca Santa Victoria	11	Noviembre	2023-02-11T00:00:00	2024-11-08T17:00:00	7	Dirección del viento	1.61
139971	7	Sololá	701	Sololá	4	Finca Santa Victoria	11	Noviembre	2023-02-11T00:00:00	2024-11-08T17:00:00	1	Precipitación	0
139972	7	Sololá	701	Sololá	4	Finca Santa Victoria	11	Noviembre	2023-02-11T00:00:00	2024-11-08T17:00:00	8	Radiación solar	57
139973	7	Sololá	701	Sololá	4	Finca Santa Victoria	11	Noviembre	2023-02-11T00:00:00	2024-11-08T18:00:00	2	Temperatura media	14.2
139974	7	Sololá	701	Sololá	4	Finca Santa Victoria	11	Noviembre	2023-02-11T00:00:00	2024-11-08T18:00:00	4	Temperatura máxima	15.3
139975	7	Sololá	701	Sololá	4	Finca Santa Victoria	11	Noviembre	2023-02-11T00:00:00	2024-11-08T18:00:00	3	Temperatura mínima	14.2
139976	7	Sololá	701	Sololá	4	Finca Santa Victoria	11	Noviembre	2023-02-11T00:00:00	2024-11-08T18:00:00	5	Humedad	85
139977	7	Sololá	701	Sololá	4	Finca Santa Victoria	11	Noviembre	2023-02-11T00:00:00	2024-11-08T18:00:00	6	Velocidad del viento	3.2
139978	7	Sololá	701	Sololá	4	Finca Santa Victoria	11	Noviembre	2023-02-11T00:00:00	2024-11-08T18:00:00	7	Dirección del viento	3.22
139979	7	Sololá	701	Sololá	4	Finca Santa Victoria	11	Noviembre	2023-02-11T00:00:00	2024-11-08T18:00:00	1	Precipitación	0
139980	7	Sololá	701	Sololá	4	Finca Santa Victoria	11	Noviembre	2023-02-11T00:00:00	2024-11-08T18:00:00	8	Radiación solar	7
139981	7	Sololá	701	Sololá	4	Finca Santa Victoria	11	Noviembre	2023-02-11T00:00:00	2024-11-08T19:00:00	2	Temperatura media	13.8
139982	7	Sololá	701	Sololá	4	Finca Santa Victoria	11	Noviembre	2023-02-11T00:00:00	2024-11-08T19:00:00	4	Temperatura máxima	14.2
139983	7	Sololá	701	Sololá	4	Finca Santa Victoria	11	Noviembre	2023-02-11T00:00:00	2024-11-08T19:00:00	3	Temperatura mínima	13.8
139984	7	Sololá	701	Sololá	4	Finca Santa Victoria	11	Noviembre	2023-02-11T00:00:00	2024-11-08T19:00:00	5	Humedad	87
139985	7	Sololá	701	Sololá	4	Finca Santa Victoria	11	Noviembre	2023-02-11T00:00:00	2024-11-08T19:00:00	6	Velocidad del viento	3.2
139986	7	Sololá	701	Sololá	4	Finca Santa Victoria	11	Noviembre	2023-02-11T00:00:00	2024-11-08T19:00:00	7	Dirección del viento	3.22
139987	7	Sololá	701	Sololá	4	Finca Santa Victoria	11	Noviembre	2023-02-11T00:00:00	2024-11-08T19:00:00	1	Precipitación	0
139988	7	Sololá	701	Sololá	4	Finca Santa Victoria	11	Noviembre	2023-02-11T00:00:00	2024-11-08T19:00:00	8	Radiación solar	0
139989	7	Sololá	701	Sololá	4	Finca Santa Victoria	11	Noviembre	2023-02-11T00:00:00	2024-11-08T20:00:00	2	Temperatura media	13
139990	7	Sololá	701	Sololá	4	Finca Santa Victoria	11	Noviembre	2023-02-11T00:00:00	2024-11-08T20:00:00	4	Temperatura máxima	13.8
139991	7	Sololá	701	Sololá	4	Finca Santa Victoria	11	Noviembre	2023-02-11T00:00:00	2024-11-08T20:00:00	3	Temperatura mínima	13
139992	7	Sololá	701	Sololá	4	Finca Santa Victoria	11	Noviembre	2023-02-11T00:00:00	2024-11-08T20:00:00	5	Humedad	89
139993	7	Sololá	701	Sololá	4	Finca Santa Victoria	11	Noviembre	2023-02-11T00:00:00	2024-11-08T20:00:00	6	Velocidad del viento	3.2
139994	7	Sololá	701	Sololá	4	Finca Santa Victoria	11	Noviembre	2023-02-11T00:00:00	2024-11-08T20:00:00	7	Dirección del viento	3.22
139995	7	Sololá	701	Sololá	4	Finca Santa Victoria	11	Noviembre	2023-02-11T00:00:00	2024-11-08T20:00:00	1	Precipitación	0
139996	7	Sololá	701	Sololá	4	Finca Santa Victoria	11	Noviembre	2023-02-11T00:00:00	2024-11-08T20:00:00	8	Radiación solar	0
139997	7	Sololá	701	Sololá	4	Finca Santa Victoria	11	Noviembre	2023-02-11T00:00:00	2024-11-08T21:00:00	2	Temperatura media	12.7
139998	7	Sololá	701	Sololá	4	Finca Santa Victoria	11	Noviembre	2023-02-11T00:00:00	2024-11-08T21:00:00	4	Temperatura máxima	13
139999	7	Sololá	701	Sololá	4	Finca Santa Victoria	11	Noviembre	2023-02-11T00:00:00	2024-11-08T21:00:00	3	Temperatura mínima	12.6
140000	7	Sololá	701	Sololá	4	Finca Santa Victoria	11	Noviembre	2023-02-11T00:00:00	2024-11-08T21:00:00	5	Humedad	88
140001	7	Sololá	701	Sololá	4	Finca Santa Victoria	11	Noviembre	2023-02-11T00:00:00	2024-11-08T21:00:00	6	Velocidad del viento	3.2
140002	7	Sololá	701	Sololá	4	Finca Santa Victoria	11	Noviembre	2023-02-11T00:00:00	2024-11-08T21:00:00	7	Dirección del viento	3.22
140003	7	Sololá	701	Sololá	4	Finca Santa Victoria	11	Noviembre	2023-02-11T00:00:00	2024-11-08T21:00:00	1	Precipitación	0
140004	7	Sololá	701	Sololá	4	Finca Santa Victoria	11	Noviembre	2023-02-11T00:00:00	2024-11-08T21:00:00	8	Radiación solar	0
140005	7	Sololá	701	Sololá	4	Finca Santa Victoria	11	Noviembre	2023-02-11T00:00:00	2024-11-08T22:00:00	2	Temperatura media	12.2
140006	7	Sololá	701	Sololá	4	Finca Santa Victoria	11	Noviembre	2023-02-11T00:00:00	2024-11-08T22:00:00	4	Temperatura máxima	12.7
140007	7	Sololá	701	Sololá	4	Finca Santa Victoria	11	Noviembre	2023-02-11T00:00:00	2024-11-08T22:00:00	3	Temperatura mínima	12.2
140008	7	Sololá	701	Sololá	4	Finca Santa Victoria	11	Noviembre	2023-02-11T00:00:00	2024-11-08T22:00:00	5	Humedad	87
140009	7	Sololá	701	Sololá	4	Finca Santa Victoria	11	Noviembre	2023-02-11T00:00:00	2024-11-08T22:00:00	6	Velocidad del viento	3.2
140010	7	Sololá	701	Sololá	4	Finca Santa Victoria	11	Noviembre	2023-02-11T00:00:00	2024-11-08T22:00:00	7	Dirección del viento	3.22
140011	7	Sololá	701	Sololá	4	Finca Santa Victoria	11	Noviembre	2023-02-11T00:00:00	2024-11-08T22:00:00	1	Precipitación	0
140012	7	Sololá	701	Sololá	4	Finca Santa Victoria	11	Noviembre	2023-02-11T00:00:00	2024-11-08T22:00:00	8	Radiación solar	0
140013	7	Sololá	701	Sololá	4	Finca Santa Victoria	11	Noviembre	2023-02-11T00:00:00	2024-11-08T23:00:00	2	Temperatura media	12.1
140014	7	Sololá	701	Sololá	4	Finca Santa Victoria	11	Noviembre	2023-02-11T00:00:00	2024-11-08T23:00:00	4	Temperatura máxima	12.2
140015	7	Sololá	701	Sololá	4	Finca Santa Victoria	11	Noviembre	2023-02-11T00:00:00	2024-11-08T23:00:00	3	Temperatura mínima	11.9
140016	7	Sololá	701	Sololá	4	Finca Santa Victoria	11	Noviembre	2023-02-11T00:00:00	2024-11-08T23:00:00	5	Humedad	83
140017	7	Sololá	701	Sololá	4	Finca Santa Victoria	11	Noviembre	2023-02-11T00:00:00	2024-11-08T23:00:00	6	Velocidad del viento	3.2
140018	7	Sololá	701	Sololá	4	Finca Santa Victoria	11	Noviembre	2023-02-11T00:00:00	2024-11-08T23:00:00	7	Dirección del viento	3.22
140019	7	Sololá	701	Sololá	4	Finca Santa Victoria	11	Noviembre	2023-02-11T00:00:00	2024-11-08T23:00:00	1	Precipitación	0
140020	7	Sololá	701	Sololá	4	Finca Santa Victoria	11	Noviembre	2023-02-11T00:00:00	2024-11-08T23:00:00	8	Radiación solar	0
140021	7	Sololá	701	Sololá	4	Finca Santa Victoria	11	Noviembre	2023-03-11T00:00:00	2024-11-08T00:00:00	2	Temperatura media	12.1
140022	7	Sololá	701	Sololá	4	Finca Santa Victoria	11	Noviembre	2023-03-11T00:00:00	2024-11-08T00:00:00	4	Temperatura máxima	12.4
140023	7	Sololá	701	Sololá	4	Finca Santa Victoria	11	Noviembre	2023-03-11T00:00:00	2024-11-08T00:00:00	3	Temperatura mínima	12
140024	7	Sololá	701	Sololá	4	Finca Santa Victoria	11	Noviembre	2023-03-11T00:00:00	2024-11-08T00:00:00	5	Humedad	84
140025	7	Sololá	701	Sololá	4	Finca Santa Victoria	11	Noviembre	2023-03-11T00:00:00	2024-11-08T00:00:00	6	Velocidad del viento	3.2
140026	7	Sololá	701	Sololá	4	Finca Santa Victoria	11	Noviembre	2023-03-11T00:00:00	2024-11-08T00:00:00	7	Dirección del viento	3.22
140027	7	Sololá	701	Sololá	4	Finca Santa Victoria	11	Noviembre	2023-03-11T00:00:00	2024-11-08T00:00:00	1	Precipitación	0
140028	7	Sololá	701	Sololá	4	Finca Santa Victoria	11	Noviembre	2023-03-11T00:00:00	2024-11-08T00:00:00	8	Radiación solar	0
140029	7	Sololá	701	Sololá	4	Finca Santa Victoria	11	Noviembre	2023-03-11T00:00:00	2024-11-08T01:00:00	2	Temperatura media	12
140030	7	Sololá	701	Sololá	4	Finca Santa Victoria	11	Noviembre	2023-03-11T00:00:00	2024-11-08T01:00:00	4	Temperatura máxima	12.2
140031	7	Sololá	701	Sololá	4	Finca Santa Victoria	11	Noviembre	2023-03-11T00:00:00	2024-11-08T01:00:00	3	Temperatura mínima	12
140032	7	Sololá	701	Sololá	4	Finca Santa Victoria	11	Noviembre	2023-03-11T00:00:00	2024-11-08T01:00:00	5	Humedad	86
140033	7	Sololá	701	Sololá	4	Finca Santa Victoria	11	Noviembre	2023-03-11T00:00:00	2024-11-08T01:00:00	6	Velocidad del viento	1.6
140034	7	Sololá	701	Sololá	4	Finca Santa Victoria	11	Noviembre	2023-03-11T00:00:00	2024-11-08T01:00:00	7	Dirección del viento	1.61
140035	7	Sololá	701	Sololá	4	Finca Santa Victoria	11	Noviembre	2023-03-11T00:00:00	2024-11-08T01:00:00	1	Precipitación	0
140036	7	Sololá	701	Sololá	4	Finca Santa Victoria	11	Noviembre	2023-03-11T00:00:00	2024-11-08T01:00:00	8	Radiación solar	0
140037	7	Sololá	701	Sololá	4	Finca Santa Victoria	11	Noviembre	2023-03-11T00:00:00	2024-11-08T02:00:00	2	Temperatura media	11.8
140038	7	Sololá	701	Sololá	4	Finca Santa Victoria	11	Noviembre	2023-03-11T00:00:00	2024-11-08T02:00:00	4	Temperatura máxima	12.1
140039	7	Sololá	701	Sololá	4	Finca Santa Victoria	11	Noviembre	2023-03-11T00:00:00	2024-11-08T02:00:00	3	Temperatura mínima	11.8
140040	7	Sololá	701	Sololá	4	Finca Santa Victoria	11	Noviembre	2023-03-11T00:00:00	2024-11-08T02:00:00	5	Humedad	89
140041	7	Sololá	701	Sololá	4	Finca Santa Victoria	11	Noviembre	2023-03-11T00:00:00	2024-11-08T02:00:00	6	Velocidad del viento	1.6
140042	7	Sololá	701	Sololá	4	Finca Santa Victoria	11	Noviembre	2023-03-11T00:00:00	2024-11-08T02:00:00	7	Dirección del viento	1.61
140043	7	Sololá	701	Sololá	4	Finca Santa Victoria	11	Noviembre	2023-03-11T00:00:00	2024-11-08T02:00:00	1	Precipitación	0
140044	7	Sololá	701	Sololá	4	Finca Santa Victoria	11	Noviembre	2023-03-11T00:00:00	2024-11-08T02:00:00	8	Radiación solar	0
140045	7	Sololá	701	Sololá	4	Finca Santa Victoria	11	Noviembre	2023-03-11T00:00:00	2024-11-08T03:00:00	2	Temperatura media	11.5
140046	7	Sololá	701	Sololá	4	Finca Santa Victoria	11	Noviembre	2023-03-11T00:00:00	2024-11-08T03:00:00	4	Temperatura máxima	11.8
140047	7	Sololá	701	Sololá	4	Finca Santa Victoria	11	Noviembre	2023-03-11T00:00:00	2024-11-08T03:00:00	3	Temperatura mínima	11.5
140048	7	Sololá	701	Sololá	4	Finca Santa Victoria	11	Noviembre	2023-03-11T00:00:00	2024-11-08T03:00:00	5	Humedad	87
140049	7	Sololá	701	Sololá	4	Finca Santa Victoria	11	Noviembre	2023-03-11T00:00:00	2024-11-08T03:00:00	6	Velocidad del viento	1.6
140050	7	Sololá	701	Sololá	4	Finca Santa Victoria	11	Noviembre	2023-03-11T00:00:00	2024-11-08T03:00:00	7	Dirección del viento	1.61
140051	7	Sololá	701	Sololá	4	Finca Santa Victoria	11	Noviembre	2023-03-11T00:00:00	2024-11-08T03:00:00	1	Precipitación	0
140052	7	Sololá	701	Sololá	4	Finca Santa Victoria	11	Noviembre	2023-03-11T00:00:00	2024-11-08T03:00:00	8	Radiación solar	0
140053	7	Sololá	701	Sololá	4	Finca Santa Victoria	11	Noviembre	2023-03-11T00:00:00	2024-11-08T04:00:00	2	Temperatura media	11.1
140054	7	Sololá	701	Sololá	4	Finca Santa Victoria	11	Noviembre	2023-03-11T00:00:00	2024-11-08T04:00:00	4	Temperatura máxima	11.5
140055	7	Sololá	701	Sololá	4	Finca Santa Victoria	11	Noviembre	2023-03-11T00:00:00	2024-11-08T04:00:00	3	Temperatura mínima	10.9
140056	7	Sololá	701	Sololá	4	Finca Santa Victoria	11	Noviembre	2023-03-11T00:00:00	2024-11-08T04:00:00	5	Humedad	82
140057	7	Sololá	701	Sololá	4	Finca Santa Victoria	11	Noviembre	2023-03-11T00:00:00	2024-11-08T04:00:00	6	Velocidad del viento	1.6
140058	7	Sololá	701	Sololá	4	Finca Santa Victoria	11	Noviembre	2023-03-11T00:00:00	2024-11-08T04:00:00	7	Dirección del viento	1.61
140059	7	Sololá	701	Sololá	4	Finca Santa Victoria	11	Noviembre	2023-03-11T00:00:00	2024-11-08T04:00:00	1	Precipitación	0
140060	7	Sololá	701	Sololá	4	Finca Santa Victoria	11	Noviembre	2023-03-11T00:00:00	2024-11-08T04:00:00	8	Radiación solar	0
140061	7	Sololá	701	Sololá	4	Finca Santa Victoria	11	Noviembre	2023-03-11T00:00:00	2024-11-08T05:00:00	2	Temperatura media	11.3
140062	7	Sololá	701	Sololá	4	Finca Santa Victoria	11	Noviembre	2023-03-11T00:00:00	2024-11-08T05:00:00	4	Temperatura máxima	11.3
140063	7	Sololá	701	Sololá	4	Finca Santa Victoria	11	Noviembre	2023-03-11T00:00:00	2024-11-08T05:00:00	3	Temperatura mínima	10.8
140064	7	Sololá	701	Sololá	4	Finca Santa Victoria	11	Noviembre	2023-03-11T00:00:00	2024-11-08T05:00:00	5	Humedad	81
140065	7	Sololá	701	Sololá	4	Finca Santa Victoria	11	Noviembre	2023-03-11T00:00:00	2024-11-08T05:00:00	6	Velocidad del viento	1.6
140066	7	Sololá	701	Sololá	4	Finca Santa Victoria	11	Noviembre	2023-03-11T00:00:00	2024-11-08T05:00:00	7	Dirección del viento	1.61
140067	7	Sololá	701	Sololá	4	Finca Santa Victoria	11	Noviembre	2023-03-11T00:00:00	2024-11-08T05:00:00	1	Precipitación	0
140068	7	Sololá	701	Sololá	4	Finca Santa Victoria	11	Noviembre	2023-03-11T00:00:00	2024-11-08T05:00:00	8	Radiación solar	0
140069	7	Sololá	701	Sololá	4	Finca Santa Victoria	11	Noviembre	2023-03-11T00:00:00	2024-11-08T06:00:00	2	Temperatura media	11.6
140070	7	Sololá	701	Sololá	4	Finca Santa Victoria	11	Noviembre	2023-03-11T00:00:00	2024-11-08T06:00:00	4	Temperatura máxima	11.7
140071	7	Sololá	701	Sololá	4	Finca Santa Victoria	11	Noviembre	2023-03-11T00:00:00	2024-11-08T06:00:00	3	Temperatura mínima	11.3
140072	7	Sololá	701	Sololá	4	Finca Santa Victoria	11	Noviembre	2023-03-11T00:00:00	2024-11-08T06:00:00	5	Humedad	81
140073	7	Sololá	701	Sololá	4	Finca Santa Victoria	11	Noviembre	2023-03-11T00:00:00	2024-11-08T06:00:00	6	Velocidad del viento	1.6
140074	7	Sololá	701	Sololá	4	Finca Santa Victoria	11	Noviembre	2023-03-11T00:00:00	2024-11-08T06:00:00	7	Dirección del viento	1.61
140075	7	Sololá	701	Sololá	4	Finca Santa Victoria	11	Noviembre	2023-03-11T00:00:00	2024-11-08T06:00:00	1	Precipitación	0
140076	7	Sololá	701	Sololá	4	Finca Santa Victoria	11	Noviembre	2023-03-11T00:00:00	2024-11-08T06:00:00	8	Radiación solar	0
140077	7	Sololá	701	Sololá	4	Finca Santa Victoria	11	Noviembre	2023-03-11T00:00:00	2024-11-08T07:00:00	2	Temperatura media	11.6
140078	7	Sololá	701	Sololá	4	Finca Santa Victoria	11	Noviembre	2023-03-11T00:00:00	2024-11-08T07:00:00	4	Temperatura máxima	11.6
140079	7	Sololá	701	Sololá	4	Finca Santa Victoria	11	Noviembre	2023-03-11T00:00:00	2024-11-08T07:00:00	3	Temperatura mínima	11.3
140080	7	Sololá	701	Sololá	4	Finca Santa Victoria	11	Noviembre	2023-03-11T00:00:00	2024-11-08T07:00:00	5	Humedad	83
140081	7	Sololá	701	Sololá	4	Finca Santa Victoria	11	Noviembre	2023-03-11T00:00:00	2024-11-08T07:00:00	6	Velocidad del viento	1.6
140082	7	Sololá	701	Sololá	4	Finca Santa Victoria	11	Noviembre	2023-03-11T00:00:00	2024-11-08T07:00:00	7	Dirección del viento	1.61
140083	7	Sololá	701	Sololá	4	Finca Santa Victoria	11	Noviembre	2023-03-11T00:00:00	2024-11-08T07:00:00	1	Precipitación	0
140084	7	Sololá	701	Sololá	4	Finca Santa Victoria	11	Noviembre	2023-03-11T00:00:00	2024-11-08T07:00:00	8	Radiación solar	11
140085	7	Sololá	701	Sololá	4	Finca Santa Victoria	11	Noviembre	2023-03-11T00:00:00	2024-11-08T08:00:00	2	Temperatura media	12.2
140086	7	Sololá	701	Sololá	4	Finca Santa Victoria	11	Noviembre	2023-03-11T00:00:00	2024-11-08T08:00:00	4	Temperatura máxima	12.2
140087	7	Sololá	701	Sololá	4	Finca Santa Victoria	11	Noviembre	2023-03-11T00:00:00	2024-11-08T08:00:00	3	Temperatura mínima	11.7
140088	7	Sololá	701	Sololá	4	Finca Santa Victoria	11	Noviembre	2023-03-11T00:00:00	2024-11-08T08:00:00	5	Humedad	83
140089	7	Sololá	701	Sololá	4	Finca Santa Victoria	11	Noviembre	2023-03-11T00:00:00	2024-11-08T08:00:00	6	Velocidad del viento	3.2
140090	7	Sololá	701	Sololá	4	Finca Santa Victoria	11	Noviembre	2023-03-11T00:00:00	2024-11-08T08:00:00	7	Dirección del viento	3.22
140091	7	Sololá	701	Sololá	4	Finca Santa Victoria	11	Noviembre	2023-03-11T00:00:00	2024-11-08T08:00:00	1	Precipitación	0
140092	7	Sololá	701	Sololá	4	Finca Santa Victoria	11	Noviembre	2023-03-11T00:00:00	2024-11-08T08:00:00	8	Radiación solar	39
140093	7	Sololá	701	Sololá	4	Finca Santa Victoria	11	Noviembre	2023-03-11T00:00:00	2024-11-08T09:00:00	2	Temperatura media	12.8
140094	7	Sololá	701	Sololá	4	Finca Santa Victoria	11	Noviembre	2023-03-11T00:00:00	2024-11-08T09:00:00	4	Temperatura máxima	12.8
140095	7	Sololá	701	Sololá	4	Finca Santa Victoria	11	Noviembre	2023-03-11T00:00:00	2024-11-08T09:00:00	3	Temperatura mínima	12.2
140096	7	Sololá	701	Sololá	4	Finca Santa Victoria	11	Noviembre	2023-03-11T00:00:00	2024-11-08T09:00:00	5	Humedad	84
140097	7	Sololá	701	Sololá	4	Finca Santa Victoria	11	Noviembre	2023-03-11T00:00:00	2024-11-08T09:00:00	6	Velocidad del viento	1.6
140098	7	Sololá	701	Sololá	4	Finca Santa Victoria	11	Noviembre	2023-03-11T00:00:00	2024-11-08T09:00:00	7	Dirección del viento	1.61
140099	7	Sololá	701	Sololá	4	Finca Santa Victoria	11	Noviembre	2023-03-11T00:00:00	2024-11-08T09:00:00	1	Precipitación	0
140100	7	Sololá	701	Sololá	4	Finca Santa Victoria	11	Noviembre	2023-03-11T00:00:00	2024-11-08T09:00:00	8	Radiación solar	60
140101	7	Sololá	701	Sololá	4	Finca Santa Victoria	11	Noviembre	2023-03-11T00:00:00	2024-11-08T10:00:00	2	Temperatura media	13.9
140102	7	Sololá	701	Sololá	4	Finca Santa Victoria	11	Noviembre	2023-03-11T00:00:00	2024-11-08T10:00:00	4	Temperatura máxima	13.9
140103	7	Sololá	701	Sololá	4	Finca Santa Victoria	11	Noviembre	2023-03-11T00:00:00	2024-11-08T10:00:00	3	Temperatura mínima	12.8
140104	7	Sololá	701	Sololá	4	Finca Santa Victoria	11	Noviembre	2023-03-11T00:00:00	2024-11-08T10:00:00	5	Humedad	81
140105	7	Sololá	701	Sololá	4	Finca Santa Victoria	11	Noviembre	2023-03-11T00:00:00	2024-11-08T10:00:00	6	Velocidad del viento	1.6
140106	7	Sololá	701	Sololá	4	Finca Santa Victoria	11	Noviembre	2023-03-11T00:00:00	2024-11-08T10:00:00	7	Dirección del viento	1.61
140107	7	Sololá	701	Sololá	4	Finca Santa Victoria	11	Noviembre	2023-03-11T00:00:00	2024-11-08T10:00:00	1	Precipitación	0
140108	7	Sololá	701	Sololá	4	Finca Santa Victoria	11	Noviembre	2023-03-11T00:00:00	2024-11-08T10:00:00	8	Radiación solar	112
140109	7	Sololá	701	Sololá	4	Finca Santa Victoria	11	Noviembre	2023-03-11T00:00:00	2024-11-08T11:00:00	2	Temperatura media	13.7
140110	7	Sololá	701	Sololá	4	Finca Santa Victoria	11	Noviembre	2023-03-11T00:00:00	2024-11-08T11:00:00	4	Temperatura máxima	14
140111	7	Sololá	701	Sololá	4	Finca Santa Victoria	11	Noviembre	2023-03-11T00:00:00	2024-11-08T11:00:00	3	Temperatura mínima	13.7
140112	7	Sololá	701	Sololá	4	Finca Santa Victoria	11	Noviembre	2023-03-11T00:00:00	2024-11-08T11:00:00	5	Humedad	81
140113	7	Sololá	701	Sololá	4	Finca Santa Victoria	11	Noviembre	2023-03-11T00:00:00	2024-11-08T11:00:00	6	Velocidad del viento	1.6
140114	7	Sololá	701	Sololá	4	Finca Santa Victoria	11	Noviembre	2023-03-11T00:00:00	2024-11-08T11:00:00	7	Dirección del viento	1.61
140115	7	Sololá	701	Sololá	4	Finca Santa Victoria	11	Noviembre	2023-03-11T00:00:00	2024-11-08T11:00:00	1	Precipitación	0
140116	7	Sololá	701	Sololá	4	Finca Santa Victoria	11	Noviembre	2023-03-11T00:00:00	2024-11-08T11:00:00	8	Radiación solar	107
140117	7	Sololá	701	Sololá	4	Finca Santa Victoria	11	Noviembre	2023-03-11T00:00:00	2024-11-08T12:00:00	2	Temperatura media	13.3
140118	7	Sololá	701	Sololá	4	Finca Santa Victoria	11	Noviembre	2023-03-11T00:00:00	2024-11-08T12:00:00	4	Temperatura máxima	13.9
140119	7	Sololá	701	Sololá	4	Finca Santa Victoria	11	Noviembre	2023-03-11T00:00:00	2024-11-08T12:00:00	3	Temperatura mínima	13.3
140120	7	Sololá	701	Sololá	4	Finca Santa Victoria	11	Noviembre	2023-03-11T00:00:00	2024-11-08T12:00:00	5	Humedad	83
140121	7	Sololá	701	Sololá	4	Finca Santa Victoria	11	Noviembre	2023-03-11T00:00:00	2024-11-08T12:00:00	6	Velocidad del viento	3.2
140122	7	Sololá	701	Sololá	4	Finca Santa Victoria	11	Noviembre	2023-03-11T00:00:00	2024-11-08T12:00:00	7	Dirección del viento	3.22
140123	7	Sololá	701	Sololá	4	Finca Santa Victoria	11	Noviembre	2023-03-11T00:00:00	2024-11-08T12:00:00	1	Precipitación	0
140124	7	Sololá	701	Sololá	4	Finca Santa Victoria	11	Noviembre	2023-03-11T00:00:00	2024-11-08T12:00:00	8	Radiación solar	96
140125	7	Sololá	701	Sololá	4	Finca Santa Victoria	11	Noviembre	2023-03-11T00:00:00	2024-11-08T13:00:00	2	Temperatura media	13.6
140126	7	Sololá	701	Sololá	4	Finca Santa Victoria	11	Noviembre	2023-03-11T00:00:00	2024-11-08T13:00:00	4	Temperatura máxima	14.2
140127	7	Sololá	701	Sololá	4	Finca Santa Victoria	11	Noviembre	2023-03-11T00:00:00	2024-11-08T13:00:00	3	Temperatura mínima	13.2
140128	7	Sololá	701	Sololá	4	Finca Santa Victoria	11	Noviembre	2023-03-11T00:00:00	2024-11-08T13:00:00	5	Humedad	82
140129	7	Sololá	701	Sololá	4	Finca Santa Victoria	11	Noviembre	2023-03-11T00:00:00	2024-11-08T13:00:00	6	Velocidad del viento	3.2
140130	7	Sololá	701	Sololá	4	Finca Santa Victoria	11	Noviembre	2023-03-11T00:00:00	2024-11-08T13:00:00	7	Dirección del viento	3.22
140131	7	Sololá	701	Sololá	4	Finca Santa Victoria	11	Noviembre	2023-03-11T00:00:00	2024-11-08T13:00:00	1	Precipitación	0
140132	7	Sololá	701	Sololá	4	Finca Santa Victoria	11	Noviembre	2023-03-11T00:00:00	2024-11-08T13:00:00	8	Radiación solar	163
140133	7	Sololá	701	Sololá	4	Finca Santa Victoria	11	Noviembre	2023-03-11T00:00:00	2024-11-08T14:00:00	2	Temperatura media	14.4
140134	7	Sololá	701	Sololá	4	Finca Santa Victoria	11	Noviembre	2023-03-11T00:00:00	2024-11-08T14:00:00	4	Temperatura máxima	14.4
140135	7	Sololá	701	Sololá	4	Finca Santa Victoria	11	Noviembre	2023-03-11T00:00:00	2024-11-08T14:00:00	3	Temperatura mínima	13.3
140136	7	Sololá	701	Sololá	4	Finca Santa Victoria	11	Noviembre	2023-03-11T00:00:00	2024-11-08T14:00:00	5	Humedad	83
140137	7	Sololá	701	Sololá	4	Finca Santa Victoria	11	Noviembre	2023-03-11T00:00:00	2024-11-08T14:00:00	6	Velocidad del viento	3.2
140138	7	Sololá	701	Sololá	4	Finca Santa Victoria	11	Noviembre	2023-03-11T00:00:00	2024-11-08T14:00:00	7	Dirección del viento	3.22
140139	7	Sololá	701	Sololá	4	Finca Santa Victoria	11	Noviembre	2023-03-11T00:00:00	2024-11-08T14:00:00	1	Precipitación	0
140140	7	Sololá	701	Sololá	4	Finca Santa Victoria	11	Noviembre	2023-03-11T00:00:00	2024-11-08T14:00:00	8	Radiación solar	160
140141	7	Sololá	701	Sololá	4	Finca Santa Victoria	11	Noviembre	2023-03-11T00:00:00	2024-11-08T15:00:00	2	Temperatura media	14.7
140142	7	Sololá	701	Sololá	4	Finca Santa Victoria	11	Noviembre	2023-03-11T00:00:00	2024-11-08T15:00:00	4	Temperatura máxima	15.3
140143	7	Sololá	701	Sololá	4	Finca Santa Victoria	11	Noviembre	2023-03-11T00:00:00	2024-11-08T15:00:00	3	Temperatura mínima	14.4
140144	7	Sololá	701	Sololá	4	Finca Santa Victoria	11	Noviembre	2023-03-11T00:00:00	2024-11-08T15:00:00	5	Humedad	79
140145	7	Sololá	701	Sololá	4	Finca Santa Victoria	11	Noviembre	2023-03-11T00:00:00	2024-11-08T15:00:00	6	Velocidad del viento	1.6
140146	7	Sololá	701	Sololá	4	Finca Santa Victoria	11	Noviembre	2023-03-11T00:00:00	2024-11-08T15:00:00	7	Dirección del viento	1.61
140147	7	Sololá	701	Sololá	4	Finca Santa Victoria	11	Noviembre	2023-03-11T00:00:00	2024-11-08T15:00:00	1	Precipitación	0
140148	7	Sololá	701	Sololá	4	Finca Santa Victoria	11	Noviembre	2023-03-11T00:00:00	2024-11-08T15:00:00	8	Radiación solar	152
140149	7	Sololá	701	Sololá	4	Finca Santa Victoria	11	Noviembre	2023-03-11T00:00:00	2024-11-08T16:00:00	2	Temperatura media	13.1
140150	7	Sololá	701	Sololá	4	Finca Santa Victoria	11	Noviembre	2023-03-11T00:00:00	2024-11-08T16:00:00	4	Temperatura máxima	14.9
140151	7	Sololá	701	Sololá	4	Finca Santa Victoria	11	Noviembre	2023-03-11T00:00:00	2024-11-08T16:00:00	3	Temperatura mínima	13.1
140152	7	Sololá	701	Sololá	4	Finca Santa Victoria	11	Noviembre	2023-03-11T00:00:00	2024-11-08T16:00:00	5	Humedad	80
140153	7	Sololá	701	Sololá	4	Finca Santa Victoria	11	Noviembre	2023-03-11T00:00:00	2024-11-08T16:00:00	6	Velocidad del viento	1.6
140154	7	Sololá	701	Sololá	4	Finca Santa Victoria	11	Noviembre	2023-03-11T00:00:00	2024-11-08T16:00:00	7	Dirección del viento	1.61
140155	7	Sololá	701	Sololá	4	Finca Santa Victoria	11	Noviembre	2023-03-11T00:00:00	2024-11-08T16:00:00	1	Precipitación	0
140156	7	Sololá	701	Sololá	4	Finca Santa Victoria	11	Noviembre	2023-03-11T00:00:00	2024-11-08T16:00:00	8	Radiación solar	65
140157	7	Sololá	701	Sololá	4	Finca Santa Victoria	11	Noviembre	2023-03-11T00:00:00	2024-11-08T17:00:00	2	Temperatura media	12.3
140158	7	Sololá	701	Sololá	4	Finca Santa Victoria	11	Noviembre	2023-03-11T00:00:00	2024-11-08T17:00:00	4	Temperatura máxima	13.1
140159	7	Sololá	701	Sololá	4	Finca Santa Victoria	11	Noviembre	2023-03-11T00:00:00	2024-11-08T17:00:00	3	Temperatura mínima	12.3
140160	7	Sololá	701	Sololá	4	Finca Santa Victoria	11	Noviembre	2023-03-11T00:00:00	2024-11-08T17:00:00	5	Humedad	79
140161	7	Sololá	701	Sololá	4	Finca Santa Victoria	11	Noviembre	2023-03-11T00:00:00	2024-11-08T17:00:00	6	Velocidad del viento	1.6
140162	7	Sololá	701	Sololá	4	Finca Santa Victoria	11	Noviembre	2023-03-11T00:00:00	2024-11-08T17:00:00	7	Dirección del viento	1.61
140163	7	Sololá	701	Sololá	4	Finca Santa Victoria	11	Noviembre	2023-03-11T00:00:00	2024-11-08T17:00:00	1	Precipitación	0
140164	7	Sololá	701	Sololá	4	Finca Santa Victoria	11	Noviembre	2023-03-11T00:00:00	2024-11-08T17:00:00	8	Radiación solar	23
140165	7	Sololá	701	Sololá	4	Finca Santa Victoria	11	Noviembre	2023-03-11T00:00:00	2024-11-08T18:00:00	2	Temperatura media	11.7
140166	7	Sololá	701	Sololá	4	Finca Santa Victoria	11	Noviembre	2023-03-11T00:00:00	2024-11-08T18:00:00	4	Temperatura máxima	12.3
140167	7	Sololá	701	Sololá	4	Finca Santa Victoria	11	Noviembre	2023-03-11T00:00:00	2024-11-08T18:00:00	3	Temperatura mínima	11.7
140168	7	Sololá	701	Sololá	4	Finca Santa Victoria	11	Noviembre	2023-03-11T00:00:00	2024-11-08T18:00:00	5	Humedad	78
140169	7	Sololá	701	Sololá	4	Finca Santa Victoria	11	Noviembre	2023-03-11T00:00:00	2024-11-08T18:00:00	6	Velocidad del viento	1.6
140170	7	Sololá	701	Sololá	4	Finca Santa Victoria	11	Noviembre	2023-03-11T00:00:00	2024-11-08T18:00:00	7	Dirección del viento	1.61
140171	7	Sololá	701	Sololá	4	Finca Santa Victoria	11	Noviembre	2023-03-11T00:00:00	2024-11-08T18:00:00	1	Precipitación	0
140172	7	Sololá	701	Sololá	4	Finca Santa Victoria	11	Noviembre	2023-03-11T00:00:00	2024-11-08T18:00:00	8	Radiación solar	5
140173	7	Sololá	701	Sololá	4	Finca Santa Victoria	11	Noviembre	2023-03-11T00:00:00	2024-11-08T19:00:00	2	Temperatura media	12
140174	7	Sololá	701	Sololá	4	Finca Santa Victoria	11	Noviembre	2023-03-11T00:00:00	2024-11-08T19:00:00	4	Temperatura máxima	12
140175	7	Sololá	701	Sololá	4	Finca Santa Victoria	11	Noviembre	2023-03-11T00:00:00	2024-11-08T19:00:00	3	Temperatura mínima	11.5
140176	7	Sololá	701	Sololá	4	Finca Santa Victoria	11	Noviembre	2023-03-11T00:00:00	2024-11-08T19:00:00	5	Humedad	80
140177	7	Sololá	701	Sololá	4	Finca Santa Victoria	11	Noviembre	2023-03-11T00:00:00	2024-11-08T19:00:00	6	Velocidad del viento	3.2
140178	7	Sololá	701	Sololá	4	Finca Santa Victoria	11	Noviembre	2023-03-11T00:00:00	2024-11-08T19:00:00	7	Dirección del viento	3.22
140179	7	Sololá	701	Sololá	4	Finca Santa Victoria	11	Noviembre	2023-03-11T00:00:00	2024-11-08T19:00:00	1	Precipitación	0
140180	7	Sololá	701	Sololá	4	Finca Santa Victoria	11	Noviembre	2023-03-11T00:00:00	2024-11-08T19:00:00	8	Radiación solar	0
140181	7	Sololá	701	Sololá	4	Finca Santa Victoria	11	Noviembre	2023-03-11T00:00:00	2024-11-08T20:00:00	2	Temperatura media	12.7
140182	7	Sololá	701	Sololá	4	Finca Santa Victoria	11	Noviembre	2023-03-11T00:00:00	2024-11-08T20:00:00	4	Temperatura máxima	12.7
140183	7	Sololá	701	Sololá	4	Finca Santa Victoria	11	Noviembre	2023-03-11T00:00:00	2024-11-08T20:00:00	3	Temperatura mínima	12
140184	7	Sololá	701	Sololá	4	Finca Santa Victoria	11	Noviembre	2023-03-11T00:00:00	2024-11-08T20:00:00	5	Humedad	82
140185	7	Sololá	701	Sololá	4	Finca Santa Victoria	11	Noviembre	2023-03-11T00:00:00	2024-11-08T20:00:00	6	Velocidad del viento	3.2
140186	7	Sololá	701	Sololá	4	Finca Santa Victoria	11	Noviembre	2023-03-11T00:00:00	2024-11-08T20:00:00	7	Dirección del viento	3.22
140187	7	Sololá	701	Sololá	4	Finca Santa Victoria	11	Noviembre	2023-03-11T00:00:00	2024-11-08T20:00:00	1	Precipitación	0
140188	7	Sololá	701	Sololá	4	Finca Santa Victoria	11	Noviembre	2023-03-11T00:00:00	2024-11-08T20:00:00	8	Radiación solar	0
140189	7	Sololá	701	Sololá	4	Finca Santa Victoria	11	Noviembre	2023-03-11T00:00:00	2024-11-08T21:00:00	2	Temperatura media	12.7
140190	7	Sololá	701	Sololá	4	Finca Santa Victoria	11	Noviembre	2023-03-11T00:00:00	2024-11-08T21:00:00	4	Temperatura máxima	12.9
140191	7	Sololá	701	Sololá	4	Finca Santa Victoria	11	Noviembre	2023-03-11T00:00:00	2024-11-08T21:00:00	3	Temperatura mínima	12.7
140192	7	Sololá	701	Sololá	4	Finca Santa Victoria	11	Noviembre	2023-03-11T00:00:00	2024-11-08T21:00:00	5	Humedad	82
140193	7	Sololá	701	Sololá	4	Finca Santa Victoria	11	Noviembre	2023-03-11T00:00:00	2024-11-08T21:00:00	6	Velocidad del viento	3.2
140194	7	Sololá	701	Sololá	4	Finca Santa Victoria	11	Noviembre	2023-03-11T00:00:00	2024-11-08T21:00:00	7	Dirección del viento	3.22
140195	7	Sololá	701	Sololá	4	Finca Santa Victoria	11	Noviembre	2023-03-11T00:00:00	2024-11-08T21:00:00	1	Precipitación	0
140196	7	Sololá	701	Sololá	4	Finca Santa Victoria	11	Noviembre	2023-03-11T00:00:00	2024-11-08T21:00:00	8	Radiación solar	0
140197	7	Sololá	701	Sololá	4	Finca Santa Victoria	11	Noviembre	2023-03-11T00:00:00	2024-11-08T22:00:00	2	Temperatura media	12.3
140198	7	Sololá	701	Sololá	4	Finca Santa Victoria	11	Noviembre	2023-03-11T00:00:00	2024-11-08T22:00:00	4	Temperatura máxima	12.7
140199	7	Sololá	701	Sololá	4	Finca Santa Victoria	11	Noviembre	2023-03-11T00:00:00	2024-11-08T22:00:00	3	Temperatura mínima	12.3
140200	7	Sololá	701	Sololá	4	Finca Santa Victoria	11	Noviembre	2023-03-11T00:00:00	2024-11-08T22:00:00	5	Humedad	84
140201	7	Sololá	701	Sololá	4	Finca Santa Victoria	11	Noviembre	2023-03-11T00:00:00	2024-11-08T22:00:00	6	Velocidad del viento	3.2
140202	7	Sololá	701	Sololá	4	Finca Santa Victoria	11	Noviembre	2023-03-11T00:00:00	2024-11-08T22:00:00	7	Dirección del viento	3.22
140203	7	Sololá	701	Sololá	4	Finca Santa Victoria	11	Noviembre	2023-03-11T00:00:00	2024-11-08T22:00:00	1	Precipitación	0
140204	7	Sololá	701	Sololá	4	Finca Santa Victoria	11	Noviembre	2023-03-11T00:00:00	2024-11-08T22:00:00	8	Radiación solar	0
140205	7	Sololá	701	Sololá	4	Finca Santa Victoria	11	Noviembre	2023-03-11T00:00:00	2024-11-08T23:00:00	2	Temperatura media	12.2
140206	7	Sololá	701	Sololá	4	Finca Santa Victoria	11	Noviembre	2023-03-11T00:00:00	2024-11-08T23:00:00	4	Temperatura máxima	12.3
140207	7	Sololá	701	Sololá	4	Finca Santa Victoria	11	Noviembre	2023-03-11T00:00:00	2024-11-08T23:00:00	3	Temperatura mínima	12.1
140208	7	Sololá	701	Sololá	4	Finca Santa Victoria	11	Noviembre	2023-03-11T00:00:00	2024-11-08T23:00:00	5	Humedad	85
140209	7	Sololá	701	Sololá	4	Finca Santa Victoria	11	Noviembre	2023-03-11T00:00:00	2024-11-08T23:00:00	6	Velocidad del viento	3.2
140210	7	Sololá	701	Sololá	4	Finca Santa Victoria	11	Noviembre	2023-03-11T00:00:00	2024-11-08T23:00:00	7	Dirección del viento	3.22
140211	7	Sololá	701	Sololá	4	Finca Santa Victoria	11	Noviembre	2023-03-11T00:00:00	2024-11-08T23:00:00	1	Precipitación	0
140212	7	Sololá	701	Sololá	4	Finca Santa Victoria	11	Noviembre	2023-03-11T00:00:00	2024-11-08T23:00:00	8	Radiación solar	0
140213	7	Sololá	701	Sololá	4	Finca Santa Victoria	11	Noviembre	2023-04-11T00:00:00	2024-11-08T00:00:00	2	Temperatura media	12.1
140214	7	Sololá	701	Sololá	4	Finca Santa Victoria	11	Noviembre	2023-04-11T00:00:00	2024-11-08T00:00:00	4	Temperatura máxima	12.3
140215	7	Sololá	701	Sololá	4	Finca Santa Victoria	11	Noviembre	2023-04-11T00:00:00	2024-11-08T00:00:00	3	Temperatura mínima	12.1
140216	7	Sololá	701	Sololá	4	Finca Santa Victoria	11	Noviembre	2023-04-11T00:00:00	2024-11-08T00:00:00	5	Humedad	88
140217	7	Sololá	701	Sololá	4	Finca Santa Victoria	11	Noviembre	2023-04-11T00:00:00	2024-11-08T00:00:00	6	Velocidad del viento	3.2
140218	7	Sololá	701	Sololá	4	Finca Santa Victoria	11	Noviembre	2023-04-11T00:00:00	2024-11-08T00:00:00	7	Dirección del viento	3.22
140219	7	Sololá	701	Sololá	4	Finca Santa Victoria	11	Noviembre	2023-04-11T00:00:00	2024-11-08T00:00:00	1	Precipitación	0
140220	7	Sololá	701	Sololá	4	Finca Santa Victoria	11	Noviembre	2023-04-11T00:00:00	2024-11-08T00:00:00	8	Radiación solar	0
140221	7	Sololá	701	Sololá	4	Finca Santa Victoria	11	Noviembre	2023-04-11T00:00:00	2024-11-08T01:00:00	2	Temperatura media	11.7
140222	7	Sololá	701	Sololá	4	Finca Santa Victoria	11	Noviembre	2023-04-11T00:00:00	2024-11-08T01:00:00	4	Temperatura máxima	12.1
140223	7	Sololá	701	Sololá	4	Finca Santa Victoria	11	Noviembre	2023-04-11T00:00:00	2024-11-08T01:00:00	3	Temperatura mínima	11.7
140224	7	Sololá	701	Sololá	4	Finca Santa Victoria	11	Noviembre	2023-04-11T00:00:00	2024-11-08T01:00:00	5	Humedad	90
140225	7	Sololá	701	Sololá	4	Finca Santa Victoria	11	Noviembre	2023-04-11T00:00:00	2024-11-08T01:00:00	6	Velocidad del viento	3.2
140226	7	Sololá	701	Sololá	4	Finca Santa Victoria	11	Noviembre	2023-04-11T00:00:00	2024-11-08T01:00:00	7	Dirección del viento	3.22
140227	7	Sololá	701	Sololá	4	Finca Santa Victoria	11	Noviembre	2023-04-11T00:00:00	2024-11-08T01:00:00	1	Precipitación	0
140228	7	Sololá	701	Sololá	4	Finca Santa Victoria	11	Noviembre	2023-04-11T00:00:00	2024-11-08T01:00:00	8	Radiación solar	0
140229	7	Sololá	701	Sololá	4	Finca Santa Victoria	11	Noviembre	2023-04-11T00:00:00	2024-11-08T02:00:00	2	Temperatura media	11.6
140230	7	Sololá	701	Sololá	4	Finca Santa Victoria	11	Noviembre	2023-04-11T00:00:00	2024-11-08T02:00:00	4	Temperatura máxima	11.7
140231	7	Sololá	701	Sololá	4	Finca Santa Victoria	11	Noviembre	2023-04-11T00:00:00	2024-11-08T02:00:00	3	Temperatura mínima	11.5
140232	7	Sololá	701	Sololá	4	Finca Santa Victoria	11	Noviembre	2023-04-11T00:00:00	2024-11-08T02:00:00	5	Humedad	90
140233	7	Sololá	701	Sololá	4	Finca Santa Victoria	11	Noviembre	2023-04-11T00:00:00	2024-11-08T02:00:00	6	Velocidad del viento	4.8
140234	7	Sololá	701	Sololá	4	Finca Santa Victoria	11	Noviembre	2023-04-11T00:00:00	2024-11-08T02:00:00	7	Dirección del viento	4.83
140235	7	Sololá	701	Sololá	4	Finca Santa Victoria	11	Noviembre	2023-04-11T00:00:00	2024-11-08T02:00:00	1	Precipitación	0.6
140236	7	Sololá	701	Sololá	4	Finca Santa Victoria	11	Noviembre	2023-04-11T00:00:00	2024-11-08T02:00:00	8	Radiación solar	0
140237	7	Sololá	701	Sololá	4	Finca Santa Victoria	11	Noviembre	2023-04-11T00:00:00	2024-11-08T03:00:00	2	Temperatura media	11.6
140238	7	Sololá	701	Sololá	4	Finca Santa Victoria	11	Noviembre	2023-04-11T00:00:00	2024-11-08T03:00:00	4	Temperatura máxima	11.7
140239	7	Sololá	701	Sololá	4	Finca Santa Victoria	11	Noviembre	2023-04-11T00:00:00	2024-11-08T03:00:00	3	Temperatura mínima	11.6
140240	7	Sololá	701	Sololá	4	Finca Santa Victoria	11	Noviembre	2023-04-11T00:00:00	2024-11-08T03:00:00	5	Humedad	90
140241	7	Sololá	701	Sololá	4	Finca Santa Victoria	11	Noviembre	2023-04-11T00:00:00	2024-11-08T03:00:00	6	Velocidad del viento	4.8
140242	7	Sololá	701	Sololá	4	Finca Santa Victoria	11	Noviembre	2023-04-11T00:00:00	2024-11-08T03:00:00	7	Dirección del viento	4.83
140243	7	Sololá	701	Sololá	4	Finca Santa Victoria	11	Noviembre	2023-04-11T00:00:00	2024-11-08T03:00:00	1	Precipitación	0.2
140244	7	Sololá	701	Sololá	4	Finca Santa Victoria	11	Noviembre	2023-04-11T00:00:00	2024-11-08T03:00:00	8	Radiación solar	0
140245	7	Sololá	701	Sololá	4	Finca Santa Victoria	11	Noviembre	2023-04-11T00:00:00	2024-11-08T04:00:00	2	Temperatura media	11.7
140246	7	Sololá	701	Sololá	4	Finca Santa Victoria	11	Noviembre	2023-04-11T00:00:00	2024-11-08T04:00:00	4	Temperatura máxima	11.8
140247	7	Sololá	701	Sololá	4	Finca Santa Victoria	11	Noviembre	2023-04-11T00:00:00	2024-11-08T04:00:00	3	Temperatura mínima	11.6
140248	7	Sololá	701	Sololá	4	Finca Santa Victoria	11	Noviembre	2023-04-11T00:00:00	2024-11-08T04:00:00	5	Humedad	90
140249	7	Sololá	701	Sololá	4	Finca Santa Victoria	11	Noviembre	2023-04-11T00:00:00	2024-11-08T04:00:00	6	Velocidad del viento	4.8
140250	7	Sololá	701	Sololá	4	Finca Santa Victoria	11	Noviembre	2023-04-11T00:00:00	2024-11-08T04:00:00	7	Dirección del viento	4.83
140251	7	Sololá	701	Sololá	4	Finca Santa Victoria	11	Noviembre	2023-04-11T00:00:00	2024-11-08T04:00:00	1	Precipitación	0.8
140252	7	Sololá	701	Sololá	4	Finca Santa Victoria	11	Noviembre	2023-04-11T00:00:00	2024-11-08T04:00:00	8	Radiación solar	0
140253	7	Sololá	701	Sololá	4	Finca Santa Victoria	11	Noviembre	2023-04-11T00:00:00	2024-11-08T05:00:00	2	Temperatura media	11.8
140254	7	Sololá	701	Sololá	4	Finca Santa Victoria	11	Noviembre	2023-04-11T00:00:00	2024-11-08T05:00:00	4	Temperatura máxima	11.9
140255	7	Sololá	701	Sololá	4	Finca Santa Victoria	11	Noviembre	2023-04-11T00:00:00	2024-11-08T05:00:00	3	Temperatura mínima	11.7
140256	7	Sololá	701	Sololá	4	Finca Santa Victoria	11	Noviembre	2023-04-11T00:00:00	2024-11-08T05:00:00	5	Humedad	90
140257	7	Sololá	701	Sololá	4	Finca Santa Victoria	11	Noviembre	2023-04-11T00:00:00	2024-11-08T05:00:00	6	Velocidad del viento	4.8
140258	7	Sololá	701	Sololá	4	Finca Santa Victoria	11	Noviembre	2023-04-11T00:00:00	2024-11-08T05:00:00	7	Dirección del viento	4.83
140259	7	Sololá	701	Sololá	4	Finca Santa Victoria	11	Noviembre	2023-04-11T00:00:00	2024-11-08T05:00:00	1	Precipitación	0.6
140260	7	Sololá	701	Sololá	4	Finca Santa Victoria	11	Noviembre	2023-04-11T00:00:00	2024-11-08T05:00:00	8	Radiación solar	0
140261	7	Sololá	701	Sololá	4	Finca Santa Victoria	11	Noviembre	2023-04-11T00:00:00	2024-11-08T06:00:00	2	Temperatura media	11.9
140262	7	Sololá	701	Sololá	4	Finca Santa Victoria	11	Noviembre	2023-04-11T00:00:00	2024-11-08T06:00:00	4	Temperatura máxima	11.9
140263	7	Sololá	701	Sololá	4	Finca Santa Victoria	11	Noviembre	2023-04-11T00:00:00	2024-11-08T06:00:00	3	Temperatura mínima	11.7
140264	7	Sololá	701	Sololá	4	Finca Santa Victoria	11	Noviembre	2023-04-11T00:00:00	2024-11-08T06:00:00	5	Humedad	90
140265	7	Sololá	701	Sololá	4	Finca Santa Victoria	11	Noviembre	2023-04-11T00:00:00	2024-11-08T06:00:00	6	Velocidad del viento	6.4
140266	7	Sololá	701	Sololá	4	Finca Santa Victoria	11	Noviembre	2023-04-11T00:00:00	2024-11-08T06:00:00	7	Dirección del viento	6.44
140267	7	Sololá	701	Sololá	4	Finca Santa Victoria	11	Noviembre	2023-04-11T00:00:00	2024-11-08T06:00:00	1	Precipitación	0
140268	7	Sololá	701	Sololá	4	Finca Santa Victoria	11	Noviembre	2023-04-11T00:00:00	2024-11-08T06:00:00	8	Radiación solar	0
140269	7	Sololá	701	Sololá	4	Finca Santa Victoria	11	Noviembre	2023-04-11T00:00:00	2024-11-08T07:00:00	2	Temperatura media	11.9
140270	7	Sololá	701	Sololá	4	Finca Santa Victoria	11	Noviembre	2023-04-11T00:00:00	2024-11-08T07:00:00	4	Temperatura máxima	12
140271	7	Sololá	701	Sololá	4	Finca Santa Victoria	11	Noviembre	2023-04-11T00:00:00	2024-11-08T07:00:00	3	Temperatura mínima	11.9
140272	7	Sololá	701	Sololá	4	Finca Santa Victoria	11	Noviembre	2023-04-11T00:00:00	2024-11-08T07:00:00	5	Humedad	90
140273	7	Sololá	701	Sololá	4	Finca Santa Victoria	11	Noviembre	2023-04-11T00:00:00	2024-11-08T07:00:00	6	Velocidad del viento	6.4
140274	7	Sololá	701	Sololá	4	Finca Santa Victoria	11	Noviembre	2023-04-11T00:00:00	2024-11-08T07:00:00	7	Dirección del viento	6.44
140275	7	Sololá	701	Sololá	4	Finca Santa Victoria	11	Noviembre	2023-04-11T00:00:00	2024-11-08T07:00:00	1	Precipitación	0.2
140276	7	Sololá	701	Sololá	4	Finca Santa Victoria	11	Noviembre	2023-04-11T00:00:00	2024-11-08T07:00:00	8	Radiación solar	4
140277	7	Sololá	701	Sololá	4	Finca Santa Victoria	11	Noviembre	2023-04-11T00:00:00	2024-11-08T08:00:00	2	Temperatura media	12.5
140278	7	Sololá	701	Sololá	4	Finca Santa Victoria	11	Noviembre	2023-04-11T00:00:00	2024-11-08T08:00:00	4	Temperatura máxima	12.6
140279	7	Sololá	701	Sololá	4	Finca Santa Victoria	11	Noviembre	2023-04-11T00:00:00	2024-11-08T08:00:00	3	Temperatura mínima	11.9
140280	7	Sololá	701	Sololá	4	Finca Santa Victoria	11	Noviembre	2023-04-11T00:00:00	2024-11-08T08:00:00	5	Humedad	90
140281	7	Sololá	701	Sololá	4	Finca Santa Victoria	11	Noviembre	2023-04-11T00:00:00	2024-11-08T08:00:00	6	Velocidad del viento	6.4
140282	7	Sololá	701	Sololá	4	Finca Santa Victoria	11	Noviembre	2023-04-11T00:00:00	2024-11-08T08:00:00	7	Dirección del viento	6.44
140283	7	Sololá	701	Sololá	4	Finca Santa Victoria	11	Noviembre	2023-04-11T00:00:00	2024-11-08T08:00:00	1	Precipitación	0.2
140284	7	Sololá	701	Sololá	4	Finca Santa Victoria	11	Noviembre	2023-04-11T00:00:00	2024-11-08T08:00:00	8	Radiación solar	69
140285	7	Sololá	701	Sololá	4	Finca Santa Victoria	11	Noviembre	2023-04-11T00:00:00	2024-11-08T09:00:00	2	Temperatura media	12.4
140286	7	Sololá	701	Sololá	4	Finca Santa Victoria	11	Noviembre	2023-04-11T00:00:00	2024-11-08T09:00:00	4	Temperatura máxima	12.5
140287	7	Sololá	701	Sololá	4	Finca Santa Victoria	11	Noviembre	2023-04-11T00:00:00	2024-11-08T09:00:00	3	Temperatura mínima	12.2
140288	7	Sololá	701	Sololá	4	Finca Santa Victoria	11	Noviembre	2023-04-11T00:00:00	2024-11-08T09:00:00	5	Humedad	90
140289	7	Sololá	701	Sololá	4	Finca Santa Victoria	11	Noviembre	2023-04-11T00:00:00	2024-11-08T09:00:00	6	Velocidad del viento	6.4
140290	7	Sololá	701	Sololá	4	Finca Santa Victoria	11	Noviembre	2023-04-11T00:00:00	2024-11-08T09:00:00	7	Dirección del viento	6.44
140291	7	Sololá	701	Sololá	4	Finca Santa Victoria	11	Noviembre	2023-04-11T00:00:00	2024-11-08T09:00:00	1	Precipitación	1.2
140292	7	Sololá	701	Sololá	4	Finca Santa Victoria	11	Noviembre	2023-04-11T00:00:00	2024-11-08T09:00:00	8	Radiación solar	83
140293	7	Sololá	701	Sololá	4	Finca Santa Victoria	11	Noviembre	2023-04-11T00:00:00	2024-11-08T10:00:00	2	Temperatura media	12.9
140294	7	Sololá	701	Sololá	4	Finca Santa Victoria	11	Noviembre	2023-04-11T00:00:00	2024-11-08T10:00:00	4	Temperatura máxima	12.9
140295	7	Sololá	701	Sololá	4	Finca Santa Victoria	11	Noviembre	2023-04-11T00:00:00	2024-11-08T10:00:00	3	Temperatura mínima	12.4
140296	7	Sololá	701	Sololá	4	Finca Santa Victoria	11	Noviembre	2023-04-11T00:00:00	2024-11-08T10:00:00	5	Humedad	90
140297	7	Sololá	701	Sololá	4	Finca Santa Victoria	11	Noviembre	2023-04-11T00:00:00	2024-11-08T10:00:00	6	Velocidad del viento	6.4
140298	7	Sololá	701	Sololá	4	Finca Santa Victoria	11	Noviembre	2023-04-11T00:00:00	2024-11-08T10:00:00	7	Dirección del viento	6.44
140299	7	Sololá	701	Sololá	4	Finca Santa Victoria	11	Noviembre	2023-04-11T00:00:00	2024-11-08T10:00:00	1	Precipitación	1.8
140300	7	Sololá	701	Sololá	4	Finca Santa Victoria	11	Noviembre	2023-04-11T00:00:00	2024-11-08T10:00:00	8	Radiación solar	149
140301	7	Sololá	701	Sololá	4	Finca Santa Victoria	11	Noviembre	2023-04-11T00:00:00	2024-11-08T11:00:00	2	Temperatura media	13.3
140302	7	Sololá	701	Sololá	4	Finca Santa Victoria	11	Noviembre	2023-04-11T00:00:00	2024-11-08T11:00:00	4	Temperatura máxima	13.3
140303	7	Sololá	701	Sololá	4	Finca Santa Victoria	11	Noviembre	2023-04-11T00:00:00	2024-11-08T11:00:00	3	Temperatura mínima	12.9
140304	7	Sololá	701	Sololá	4	Finca Santa Victoria	11	Noviembre	2023-04-11T00:00:00	2024-11-08T11:00:00	5	Humedad	90
140305	7	Sololá	701	Sololá	4	Finca Santa Victoria	11	Noviembre	2023-04-11T00:00:00	2024-11-08T11:00:00	6	Velocidad del viento	4.8
140306	7	Sololá	701	Sololá	4	Finca Santa Victoria	11	Noviembre	2023-04-11T00:00:00	2024-11-08T11:00:00	7	Dirección del viento	4.83
140307	7	Sololá	701	Sololá	4	Finca Santa Victoria	11	Noviembre	2023-04-11T00:00:00	2024-11-08T11:00:00	1	Precipitación	0.6
140308	7	Sololá	701	Sololá	4	Finca Santa Victoria	11	Noviembre	2023-04-11T00:00:00	2024-11-08T11:00:00	8	Radiación solar	160
140309	7	Sololá	701	Sololá	4	Finca Santa Victoria	11	Noviembre	2023-04-11T00:00:00	2024-11-08T12:00:00	2	Temperatura media	14.2
140310	7	Sololá	701	Sololá	4	Finca Santa Victoria	11	Noviembre	2023-04-11T00:00:00	2024-11-08T12:00:00	4	Temperatura máxima	14.2
140311	7	Sololá	701	Sololá	4	Finca Santa Victoria	11	Noviembre	2023-04-11T00:00:00	2024-11-08T12:00:00	3	Temperatura mínima	13.2
140312	7	Sololá	701	Sololá	4	Finca Santa Victoria	11	Noviembre	2023-04-11T00:00:00	2024-11-08T12:00:00	5	Humedad	90
140313	7	Sololá	701	Sololá	4	Finca Santa Victoria	11	Noviembre	2023-04-11T00:00:00	2024-11-08T12:00:00	6	Velocidad del viento	4.8
140314	7	Sololá	701	Sololá	4	Finca Santa Victoria	11	Noviembre	2023-04-11T00:00:00	2024-11-08T12:00:00	7	Dirección del viento	4.83
140315	7	Sololá	701	Sololá	4	Finca Santa Victoria	11	Noviembre	2023-04-11T00:00:00	2024-11-08T12:00:00	1	Precipitación	0.6
140316	7	Sololá	701	Sololá	4	Finca Santa Victoria	11	Noviembre	2023-04-11T00:00:00	2024-11-08T12:00:00	8	Radiación solar	196
140317	7	Sololá	701	Sololá	4	Finca Santa Victoria	11	Noviembre	2023-04-11T00:00:00	2024-11-08T13:00:00	2	Temperatura media	13.3
140318	7	Sololá	701	Sololá	4	Finca Santa Victoria	11	Noviembre	2023-04-11T00:00:00	2024-11-08T13:00:00	4	Temperatura máxima	14.2
140319	7	Sololá	701	Sololá	4	Finca Santa Victoria	11	Noviembre	2023-04-11T00:00:00	2024-11-08T13:00:00	3	Temperatura mínima	13.3
140320	7	Sololá	701	Sololá	4	Finca Santa Victoria	11	Noviembre	2023-04-11T00:00:00	2024-11-08T13:00:00	5	Humedad	90
140321	7	Sololá	701	Sololá	4	Finca Santa Victoria	11	Noviembre	2023-04-11T00:00:00	2024-11-08T13:00:00	6	Velocidad del viento	3.2
140322	7	Sololá	701	Sololá	4	Finca Santa Victoria	11	Noviembre	2023-04-11T00:00:00	2024-11-08T13:00:00	7	Dirección del viento	3.22
140323	7	Sololá	701	Sololá	4	Finca Santa Victoria	11	Noviembre	2023-04-11T00:00:00	2024-11-08T13:00:00	1	Precipitación	0.2
140324	7	Sololá	701	Sololá	4	Finca Santa Victoria	11	Noviembre	2023-04-11T00:00:00	2024-11-08T13:00:00	8	Radiación solar	122
140325	7	Sololá	701	Sololá	4	Finca Santa Victoria	11	Noviembre	2023-04-11T00:00:00	2024-11-08T14:00:00	2	Temperatura media	13.5
140326	7	Sololá	701	Sololá	4	Finca Santa Victoria	11	Noviembre	2023-04-11T00:00:00	2024-11-08T14:00:00	4	Temperatura máxima	13.6
140327	7	Sololá	701	Sololá	4	Finca Santa Victoria	11	Noviembre	2023-04-11T00:00:00	2024-11-08T14:00:00	3	Temperatura mínima	13.2
140328	7	Sololá	701	Sololá	4	Finca Santa Victoria	11	Noviembre	2023-04-11T00:00:00	2024-11-08T14:00:00	5	Humedad	90
140329	7	Sololá	701	Sololá	4	Finca Santa Victoria	11	Noviembre	2023-04-11T00:00:00	2024-11-08T14:00:00	6	Velocidad del viento	4.8
140330	7	Sololá	701	Sololá	4	Finca Santa Victoria	11	Noviembre	2023-04-11T00:00:00	2024-11-08T14:00:00	7	Dirección del viento	4.83
140331	7	Sololá	701	Sololá	4	Finca Santa Victoria	11	Noviembre	2023-04-11T00:00:00	2024-11-08T14:00:00	1	Precipitación	0
140332	7	Sololá	701	Sololá	4	Finca Santa Victoria	11	Noviembre	2023-04-11T00:00:00	2024-11-08T14:00:00	8	Radiación solar	103
140333	7	Sololá	701	Sololá	4	Finca Santa Victoria	11	Noviembre	2023-04-11T00:00:00	2024-11-08T15:00:00	2	Temperatura media	13.3
140334	7	Sololá	701	Sololá	4	Finca Santa Victoria	11	Noviembre	2023-04-11T00:00:00	2024-11-08T15:00:00	4	Temperatura máxima	13.5
140335	7	Sololá	701	Sololá	4	Finca Santa Victoria	11	Noviembre	2023-04-11T00:00:00	2024-11-08T15:00:00	3	Temperatura mínima	13.2
140336	7	Sololá	701	Sololá	4	Finca Santa Victoria	11	Noviembre	2023-04-11T00:00:00	2024-11-08T15:00:00	5	Humedad	90
140337	7	Sololá	701	Sololá	4	Finca Santa Victoria	11	Noviembre	2023-04-11T00:00:00	2024-11-08T15:00:00	6	Velocidad del viento	4.8
140338	7	Sololá	701	Sololá	4	Finca Santa Victoria	11	Noviembre	2023-04-11T00:00:00	2024-11-08T15:00:00	7	Dirección del viento	4.83
140339	7	Sololá	701	Sololá	4	Finca Santa Victoria	11	Noviembre	2023-04-11T00:00:00	2024-11-08T15:00:00	1	Precipitación	0.2
140340	7	Sololá	701	Sololá	4	Finca Santa Victoria	11	Noviembre	2023-04-11T00:00:00	2024-11-08T15:00:00	8	Radiación solar	89
140341	7	Sololá	701	Sololá	4	Finca Santa Victoria	11	Noviembre	2023-04-11T00:00:00	2024-11-08T16:00:00	2	Temperatura media	13.2
140342	7	Sololá	701	Sololá	4	Finca Santa Victoria	11	Noviembre	2023-04-11T00:00:00	2024-11-08T16:00:00	4	Temperatura máxima	13.4
140343	7	Sololá	701	Sololá	4	Finca Santa Victoria	11	Noviembre	2023-04-11T00:00:00	2024-11-08T16:00:00	3	Temperatura mínima	13.2
140344	7	Sololá	701	Sololá	4	Finca Santa Victoria	11	Noviembre	2023-04-11T00:00:00	2024-11-08T16:00:00	5	Humedad	90
140345	7	Sololá	701	Sololá	4	Finca Santa Victoria	11	Noviembre	2023-04-11T00:00:00	2024-11-08T16:00:00	6	Velocidad del viento	3.2
140346	7	Sololá	701	Sololá	4	Finca Santa Victoria	11	Noviembre	2023-04-11T00:00:00	2024-11-08T16:00:00	7	Dirección del viento	3.22
140347	7	Sololá	701	Sololá	4	Finca Santa Victoria	11	Noviembre	2023-04-11T00:00:00	2024-11-08T16:00:00	1	Precipitación	0.2
140348	7	Sololá	701	Sololá	4	Finca Santa Victoria	11	Noviembre	2023-04-11T00:00:00	2024-11-08T16:00:00	8	Radiación solar	70
140349	7	Sololá	701	Sololá	4	Finca Santa Victoria	11	Noviembre	2023-04-11T00:00:00	2024-11-08T17:00:00	2	Temperatura media	12.7
140350	7	Sololá	701	Sololá	4	Finca Santa Victoria	11	Noviembre	2023-04-11T00:00:00	2024-11-08T17:00:00	4	Temperatura máxima	13.2
140351	7	Sololá	701	Sololá	4	Finca Santa Victoria	11	Noviembre	2023-04-11T00:00:00	2024-11-08T17:00:00	3	Temperatura mínima	12.7
140352	7	Sololá	701	Sololá	4	Finca Santa Victoria	11	Noviembre	2023-04-11T00:00:00	2024-11-08T17:00:00	5	Humedad	90
140353	7	Sololá	701	Sololá	4	Finca Santa Victoria	11	Noviembre	2023-04-11T00:00:00	2024-11-08T17:00:00	6	Velocidad del viento	4.8
140354	7	Sololá	701	Sololá	4	Finca Santa Victoria	11	Noviembre	2023-04-11T00:00:00	2024-11-08T17:00:00	7	Dirección del viento	4.83
140355	7	Sololá	701	Sololá	4	Finca Santa Victoria	11	Noviembre	2023-04-11T00:00:00	2024-11-08T17:00:00	1	Precipitación	0.2
140356	7	Sololá	701	Sololá	4	Finca Santa Victoria	11	Noviembre	2023-04-11T00:00:00	2024-11-08T17:00:00	8	Radiación solar	20
140357	7	Sololá	701	Sololá	4	Finca Santa Victoria	11	Noviembre	2023-04-11T00:00:00	2024-11-08T18:00:00	2	Temperatura media	12.7
140358	7	Sololá	701	Sololá	4	Finca Santa Victoria	11	Noviembre	2023-04-11T00:00:00	2024-11-08T18:00:00	4	Temperatura máxima	12.8
140359	7	Sololá	701	Sololá	4	Finca Santa Victoria	11	Noviembre	2023-04-11T00:00:00	2024-11-08T18:00:00	3	Temperatura mínima	12.6
140360	7	Sololá	701	Sololá	4	Finca Santa Victoria	11	Noviembre	2023-04-11T00:00:00	2024-11-08T18:00:00	5	Humedad	90
140361	7	Sololá	701	Sololá	4	Finca Santa Victoria	11	Noviembre	2023-04-11T00:00:00	2024-11-08T18:00:00	6	Velocidad del viento	4.8
140362	7	Sololá	701	Sololá	4	Finca Santa Victoria	11	Noviembre	2023-04-11T00:00:00	2024-11-08T18:00:00	7	Dirección del viento	4.83
140363	7	Sololá	701	Sololá	4	Finca Santa Victoria	11	Noviembre	2023-04-11T00:00:00	2024-11-08T18:00:00	1	Precipitación	0.2
140364	7	Sololá	701	Sololá	4	Finca Santa Victoria	11	Noviembre	2023-04-11T00:00:00	2024-11-08T18:00:00	8	Radiación solar	2
140365	7	Sololá	701	Sololá	4	Finca Santa Victoria	11	Noviembre	2023-04-11T00:00:00	2024-11-08T19:00:00	2	Temperatura media	12.7
140366	7	Sololá	701	Sololá	4	Finca Santa Victoria	11	Noviembre	2023-04-11T00:00:00	2024-11-08T19:00:00	4	Temperatura máxima	12.8
140367	7	Sololá	701	Sololá	4	Finca Santa Victoria	11	Noviembre	2023-04-11T00:00:00	2024-11-08T19:00:00	3	Temperatura mínima	12.7
140368	7	Sololá	701	Sololá	4	Finca Santa Victoria	11	Noviembre	2023-04-11T00:00:00	2024-11-08T19:00:00	5	Humedad	90
140369	7	Sololá	701	Sololá	4	Finca Santa Victoria	11	Noviembre	2023-04-11T00:00:00	2024-11-08T19:00:00	6	Velocidad del viento	4.8
140370	7	Sololá	701	Sololá	4	Finca Santa Victoria	11	Noviembre	2023-04-11T00:00:00	2024-11-08T19:00:00	7	Dirección del viento	4.83
140371	7	Sololá	701	Sololá	4	Finca Santa Victoria	11	Noviembre	2023-04-11T00:00:00	2024-11-08T19:00:00	1	Precipitación	0.2
140372	7	Sololá	701	Sololá	4	Finca Santa Victoria	11	Noviembre	2023-04-11T00:00:00	2024-11-08T19:00:00	8	Radiación solar	0
140373	7	Sololá	701	Sololá	4	Finca Santa Victoria	11	Noviembre	2023-04-11T00:00:00	2024-11-08T20:00:00	2	Temperatura media	12.6
140374	7	Sololá	701	Sololá	4	Finca Santa Victoria	11	Noviembre	2023-04-11T00:00:00	2024-11-08T20:00:00	4	Temperatura máxima	12.8
140375	7	Sololá	701	Sololá	4	Finca Santa Victoria	11	Noviembre	2023-04-11T00:00:00	2024-11-08T20:00:00	3	Temperatura mínima	12.6
140376	7	Sololá	701	Sololá	4	Finca Santa Victoria	11	Noviembre	2023-04-11T00:00:00	2024-11-08T20:00:00	5	Humedad	91
140377	7	Sololá	701	Sololá	4	Finca Santa Victoria	11	Noviembre	2023-04-11T00:00:00	2024-11-08T20:00:00	6	Velocidad del viento	4.8
140378	7	Sololá	701	Sololá	4	Finca Santa Victoria	11	Noviembre	2023-04-11T00:00:00	2024-11-08T20:00:00	7	Dirección del viento	4.83
140379	7	Sololá	701	Sololá	4	Finca Santa Victoria	11	Noviembre	2023-04-11T00:00:00	2024-11-08T20:00:00	1	Precipitación	0
140380	7	Sololá	701	Sololá	4	Finca Santa Victoria	11	Noviembre	2023-04-11T00:00:00	2024-11-08T20:00:00	8	Radiación solar	0
140381	7	Sololá	701	Sololá	4	Finca Santa Victoria	11	Noviembre	2023-04-11T00:00:00	2024-11-08T21:00:00	2	Temperatura media	12.8
140382	7	Sololá	701	Sololá	4	Finca Santa Victoria	11	Noviembre	2023-04-11T00:00:00	2024-11-08T21:00:00	4	Temperatura máxima	12.8
140383	7	Sololá	701	Sololá	4	Finca Santa Victoria	11	Noviembre	2023-04-11T00:00:00	2024-11-08T21:00:00	3	Temperatura mínima	12.6
140384	7	Sololá	701	Sololá	4	Finca Santa Victoria	11	Noviembre	2023-04-11T00:00:00	2024-11-08T21:00:00	5	Humedad	91
140385	7	Sololá	701	Sololá	4	Finca Santa Victoria	11	Noviembre	2023-04-11T00:00:00	2024-11-08T21:00:00	6	Velocidad del viento	4.8
140386	7	Sololá	701	Sololá	4	Finca Santa Victoria	11	Noviembre	2023-04-11T00:00:00	2024-11-08T21:00:00	7	Dirección del viento	4.83
140387	7	Sololá	701	Sololá	4	Finca Santa Victoria	11	Noviembre	2023-04-11T00:00:00	2024-11-08T21:00:00	1	Precipitación	0.4
140388	7	Sololá	701	Sololá	4	Finca Santa Victoria	11	Noviembre	2023-04-11T00:00:00	2024-11-08T21:00:00	8	Radiación solar	0
140389	7	Sololá	701	Sololá	4	Finca Santa Victoria	11	Noviembre	2023-04-11T00:00:00	2024-11-08T22:00:00	2	Temperatura media	12.4
140390	7	Sololá	701	Sololá	4	Finca Santa Victoria	11	Noviembre	2023-04-11T00:00:00	2024-11-08T22:00:00	4	Temperatura máxima	12.8
140391	7	Sololá	701	Sololá	4	Finca Santa Victoria	11	Noviembre	2023-04-11T00:00:00	2024-11-08T22:00:00	3	Temperatura mínima	12.4
140392	7	Sololá	701	Sololá	4	Finca Santa Victoria	11	Noviembre	2023-04-11T00:00:00	2024-11-08T22:00:00	5	Humedad	90
140393	7	Sololá	701	Sololá	4	Finca Santa Victoria	11	Noviembre	2023-04-11T00:00:00	2024-11-08T22:00:00	6	Velocidad del viento	4.8
140394	7	Sololá	701	Sololá	4	Finca Santa Victoria	11	Noviembre	2023-04-11T00:00:00	2024-11-08T22:00:00	7	Dirección del viento	4.83
140395	7	Sololá	701	Sololá	4	Finca Santa Victoria	11	Noviembre	2023-04-11T00:00:00	2024-11-08T22:00:00	1	Precipitación	0.6
140396	7	Sololá	701	Sololá	4	Finca Santa Victoria	11	Noviembre	2023-04-11T00:00:00	2024-11-08T22:00:00	8	Radiación solar	0
140397	7	Sololá	701	Sololá	4	Finca Santa Victoria	11	Noviembre	2023-04-11T00:00:00	2024-11-08T23:00:00	2	Temperatura media	12.4
140398	7	Sololá	701	Sololá	4	Finca Santa Victoria	11	Noviembre	2023-04-11T00:00:00	2024-11-08T23:00:00	4	Temperatura máxima	12.6
140399	7	Sololá	701	Sololá	4	Finca Santa Victoria	11	Noviembre	2023-04-11T00:00:00	2024-11-08T23:00:00	3	Temperatura mínima	12.4
140400	7	Sololá	701	Sololá	4	Finca Santa Victoria	11	Noviembre	2023-04-11T00:00:00	2024-11-08T23:00:00	5	Humedad	90
140401	7	Sololá	701	Sololá	4	Finca Santa Victoria	11	Noviembre	2023-04-11T00:00:00	2024-11-08T23:00:00	6	Velocidad del viento	4.8
140402	7	Sololá	701	Sololá	4	Finca Santa Victoria	11	Noviembre	2023-04-11T00:00:00	2024-11-08T23:00:00	7	Dirección del viento	4.83
140403	7	Sololá	701	Sololá	4	Finca Santa Victoria	11	Noviembre	2023-04-11T00:00:00	2024-11-08T23:00:00	1	Precipitación	0.4
140404	7	Sololá	701	Sololá	4	Finca Santa Victoria	11	Noviembre	2023-04-11T00:00:00	2024-11-08T23:00:00	8	Radiación solar	0
140405	7	Sololá	701	Sololá	4	Finca Santa Victoria	11	Noviembre	2023-05-11T00:00:00	2024-11-08T00:00:00	2	Temperatura media	12.4
140406	7	Sololá	701	Sololá	4	Finca Santa Victoria	11	Noviembre	2023-05-11T00:00:00	2024-11-08T00:00:00	4	Temperatura máxima	12.4
140407	7	Sololá	701	Sololá	4	Finca Santa Victoria	11	Noviembre	2023-05-11T00:00:00	2024-11-08T00:00:00	3	Temperatura mínima	12.3
140408	7	Sololá	701	Sololá	4	Finca Santa Victoria	11	Noviembre	2023-05-11T00:00:00	2024-11-08T00:00:00	5	Humedad	90
140409	7	Sololá	701	Sololá	4	Finca Santa Victoria	11	Noviembre	2023-05-11T00:00:00	2024-11-08T00:00:00	6	Velocidad del viento	3.2
140410	7	Sololá	701	Sololá	4	Finca Santa Victoria	11	Noviembre	2023-05-11T00:00:00	2024-11-08T00:00:00	7	Dirección del viento	3.22
140411	7	Sololá	701	Sololá	4	Finca Santa Victoria	11	Noviembre	2023-05-11T00:00:00	2024-11-08T00:00:00	1	Precipitación	0.6
140412	7	Sololá	701	Sololá	4	Finca Santa Victoria	11	Noviembre	2023-05-11T00:00:00	2024-11-08T00:00:00	8	Radiación solar	0
140413	7	Sololá	701	Sololá	4	Finca Santa Victoria	11	Noviembre	2023-05-11T00:00:00	2024-11-08T01:00:00	2	Temperatura media	12.4
140414	7	Sololá	701	Sololá	4	Finca Santa Victoria	11	Noviembre	2023-05-11T00:00:00	2024-11-08T01:00:00	4	Temperatura máxima	12.5
140415	7	Sololá	701	Sololá	4	Finca Santa Victoria	11	Noviembre	2023-05-11T00:00:00	2024-11-08T01:00:00	3	Temperatura mínima	12.3
140416	7	Sololá	701	Sololá	4	Finca Santa Victoria	11	Noviembre	2023-05-11T00:00:00	2024-11-08T01:00:00	5	Humedad	90
140417	7	Sololá	701	Sololá	4	Finca Santa Victoria	11	Noviembre	2023-05-11T00:00:00	2024-11-08T01:00:00	6	Velocidad del viento	3.2
140418	7	Sololá	701	Sololá	4	Finca Santa Victoria	11	Noviembre	2023-05-11T00:00:00	2024-11-08T01:00:00	7	Dirección del viento	3.22
140419	7	Sololá	701	Sololá	4	Finca Santa Victoria	11	Noviembre	2023-05-11T00:00:00	2024-11-08T01:00:00	1	Precipitación	0.4
140420	7	Sololá	701	Sololá	4	Finca Santa Victoria	11	Noviembre	2023-05-11T00:00:00	2024-11-08T01:00:00	8	Radiación solar	0
140421	7	Sololá	701	Sololá	4	Finca Santa Victoria	11	Noviembre	2023-05-11T00:00:00	2024-11-08T02:00:00	2	Temperatura media	12.4
140422	7	Sololá	701	Sololá	4	Finca Santa Victoria	11	Noviembre	2023-05-11T00:00:00	2024-11-08T02:00:00	4	Temperatura máxima	12.4
140423	7	Sololá	701	Sololá	4	Finca Santa Victoria	11	Noviembre	2023-05-11T00:00:00	2024-11-08T02:00:00	3	Temperatura mínima	12.3
140424	7	Sololá	701	Sololá	4	Finca Santa Victoria	11	Noviembre	2023-05-11T00:00:00	2024-11-08T02:00:00	5	Humedad	90
140425	7	Sololá	701	Sololá	4	Finca Santa Victoria	11	Noviembre	2023-05-11T00:00:00	2024-11-08T02:00:00	6	Velocidad del viento	3.2
140426	7	Sololá	701	Sololá	4	Finca Santa Victoria	11	Noviembre	2023-05-11T00:00:00	2024-11-08T02:00:00	7	Dirección del viento	3.22
140427	7	Sololá	701	Sololá	4	Finca Santa Victoria	11	Noviembre	2023-05-11T00:00:00	2024-11-08T02:00:00	1	Precipitación	0.4
140428	7	Sololá	701	Sololá	4	Finca Santa Victoria	11	Noviembre	2023-05-11T00:00:00	2024-11-08T02:00:00	8	Radiación solar	0
140429	7	Sololá	701	Sololá	4	Finca Santa Victoria	11	Noviembre	2023-05-11T00:00:00	2024-11-08T03:00:00	2	Temperatura media	12.6
140430	7	Sololá	701	Sololá	4	Finca Santa Victoria	11	Noviembre	2023-05-11T00:00:00	2024-11-08T03:00:00	4	Temperatura máxima	12.6
140431	7	Sololá	701	Sololá	4	Finca Santa Victoria	11	Noviembre	2023-05-11T00:00:00	2024-11-08T03:00:00	3	Temperatura mínima	12.4
140432	7	Sololá	701	Sololá	4	Finca Santa Victoria	11	Noviembre	2023-05-11T00:00:00	2024-11-08T03:00:00	5	Humedad	90
140433	7	Sololá	701	Sololá	4	Finca Santa Victoria	11	Noviembre	2023-05-11T00:00:00	2024-11-08T03:00:00	6	Velocidad del viento	1.6
140434	7	Sololá	701	Sololá	4	Finca Santa Victoria	11	Noviembre	2023-05-11T00:00:00	2024-11-08T03:00:00	7	Dirección del viento	1.61
140435	7	Sololá	701	Sololá	4	Finca Santa Victoria	11	Noviembre	2023-05-11T00:00:00	2024-11-08T03:00:00	1	Precipitación	0
140436	7	Sololá	701	Sololá	4	Finca Santa Victoria	11	Noviembre	2023-05-11T00:00:00	2024-11-08T03:00:00	8	Radiación solar	0
140437	7	Sololá	701	Sololá	4	Finca Santa Victoria	11	Noviembre	2023-05-11T00:00:00	2024-11-08T04:00:00	2	Temperatura media	12.4
140438	7	Sololá	701	Sololá	4	Finca Santa Victoria	11	Noviembre	2023-05-11T00:00:00	2024-11-08T04:00:00	4	Temperatura máxima	12.6
140439	7	Sololá	701	Sololá	4	Finca Santa Victoria	11	Noviembre	2023-05-11T00:00:00	2024-11-08T04:00:00	3	Temperatura mínima	12.4
140440	7	Sololá	701	Sololá	4	Finca Santa Victoria	11	Noviembre	2023-05-11T00:00:00	2024-11-08T04:00:00	5	Humedad	90
140441	7	Sololá	701	Sololá	4	Finca Santa Victoria	11	Noviembre	2023-05-11T00:00:00	2024-11-08T04:00:00	6	Velocidad del viento	1.6
140442	7	Sololá	701	Sololá	4	Finca Santa Victoria	11	Noviembre	2023-05-11T00:00:00	2024-11-08T04:00:00	7	Dirección del viento	1.61
140443	7	Sololá	701	Sololá	4	Finca Santa Victoria	11	Noviembre	2023-05-11T00:00:00	2024-11-08T04:00:00	1	Precipitación	0
140444	7	Sololá	701	Sololá	4	Finca Santa Victoria	11	Noviembre	2023-05-11T00:00:00	2024-11-08T04:00:00	8	Radiación solar	0
140445	7	Sololá	701	Sololá	4	Finca Santa Victoria	11	Noviembre	2023-05-11T00:00:00	2024-11-08T05:00:00	2	Temperatura media	12.3
140446	7	Sololá	701	Sololá	4	Finca Santa Victoria	11	Noviembre	2023-05-11T00:00:00	2024-11-08T05:00:00	4	Temperatura máxima	12.4
140447	7	Sololá	701	Sololá	4	Finca Santa Victoria	11	Noviembre	2023-05-11T00:00:00	2024-11-08T05:00:00	3	Temperatura mínima	12.3
140448	7	Sololá	701	Sololá	4	Finca Santa Victoria	11	Noviembre	2023-05-11T00:00:00	2024-11-08T05:00:00	5	Humedad	90
140449	7	Sololá	701	Sololá	4	Finca Santa Victoria	11	Noviembre	2023-05-11T00:00:00	2024-11-08T05:00:00	6	Velocidad del viento	1.6
140450	7	Sololá	701	Sololá	4	Finca Santa Victoria	11	Noviembre	2023-05-11T00:00:00	2024-11-08T05:00:00	7	Dirección del viento	1.61
140451	7	Sololá	701	Sololá	4	Finca Santa Victoria	11	Noviembre	2023-05-11T00:00:00	2024-11-08T05:00:00	1	Precipitación	0.2
140452	7	Sololá	701	Sololá	4	Finca Santa Victoria	11	Noviembre	2023-05-11T00:00:00	2024-11-08T05:00:00	8	Radiación solar	0
140453	7	Sololá	701	Sololá	4	Finca Santa Victoria	11	Noviembre	2023-05-11T00:00:00	2024-11-08T06:00:00	2	Temperatura media	12.3
140454	7	Sololá	701	Sololá	4	Finca Santa Victoria	11	Noviembre	2023-05-11T00:00:00	2024-11-08T06:00:00	4	Temperatura máxima	12.4
140455	7	Sololá	701	Sololá	4	Finca Santa Victoria	11	Noviembre	2023-05-11T00:00:00	2024-11-08T06:00:00	3	Temperatura mínima	12.3
140456	7	Sololá	701	Sololá	4	Finca Santa Victoria	11	Noviembre	2023-05-11T00:00:00	2024-11-08T06:00:00	5	Humedad	90
140457	7	Sololá	701	Sololá	4	Finca Santa Victoria	11	Noviembre	2023-05-11T00:00:00	2024-11-08T06:00:00	6	Velocidad del viento	1.6
140458	7	Sololá	701	Sololá	4	Finca Santa Victoria	11	Noviembre	2023-05-11T00:00:00	2024-11-08T06:00:00	7	Dirección del viento	1.61
140459	7	Sololá	701	Sololá	4	Finca Santa Victoria	11	Noviembre	2023-05-11T00:00:00	2024-11-08T06:00:00	1	Precipitación	0
140460	7	Sololá	701	Sololá	4	Finca Santa Victoria	11	Noviembre	2023-05-11T00:00:00	2024-11-08T06:00:00	8	Radiación solar	0
140461	7	Sololá	701	Sololá	4	Finca Santa Victoria	11	Noviembre	2023-05-11T00:00:00	2024-11-08T07:00:00	2	Temperatura media	12.5
140462	7	Sololá	701	Sololá	4	Finca Santa Victoria	11	Noviembre	2023-05-11T00:00:00	2024-11-08T07:00:00	4	Temperatura máxima	12.5
140463	7	Sololá	701	Sololá	4	Finca Santa Victoria	11	Noviembre	2023-05-11T00:00:00	2024-11-08T07:00:00	3	Temperatura mínima	12.3
140464	7	Sololá	701	Sololá	4	Finca Santa Victoria	11	Noviembre	2023-05-11T00:00:00	2024-11-08T07:00:00	5	Humedad	90
140465	7	Sololá	701	Sololá	4	Finca Santa Victoria	11	Noviembre	2023-05-11T00:00:00	2024-11-08T07:00:00	6	Velocidad del viento	3.2
140466	7	Sololá	701	Sololá	4	Finca Santa Victoria	11	Noviembre	2023-05-11T00:00:00	2024-11-08T07:00:00	7	Dirección del viento	3.22
140467	7	Sololá	701	Sololá	4	Finca Santa Victoria	11	Noviembre	2023-05-11T00:00:00	2024-11-08T07:00:00	1	Precipitación	0.4
140468	7	Sololá	701	Sololá	4	Finca Santa Victoria	11	Noviembre	2023-05-11T00:00:00	2024-11-08T07:00:00	8	Radiación solar	14
140469	7	Sololá	701	Sololá	4	Finca Santa Victoria	11	Noviembre	2023-05-11T00:00:00	2024-11-08T08:00:00	2	Temperatura media	13.1
140470	7	Sololá	701	Sololá	4	Finca Santa Victoria	11	Noviembre	2023-05-11T00:00:00	2024-11-08T08:00:00	4	Temperatura máxima	13.1
140471	7	Sololá	701	Sololá	4	Finca Santa Victoria	11	Noviembre	2023-05-11T00:00:00	2024-11-08T08:00:00	3	Temperatura mínima	12.5
140472	7	Sololá	701	Sololá	4	Finca Santa Victoria	11	Noviembre	2023-05-11T00:00:00	2024-11-08T08:00:00	5	Humedad	90
140473	7	Sololá	701	Sololá	4	Finca Santa Victoria	11	Noviembre	2023-05-11T00:00:00	2024-11-08T08:00:00	6	Velocidad del viento	1.6
140474	7	Sololá	701	Sololá	4	Finca Santa Victoria	11	Noviembre	2023-05-11T00:00:00	2024-11-08T08:00:00	7	Dirección del viento	1.61
140475	7	Sololá	701	Sololá	4	Finca Santa Victoria	11	Noviembre	2023-05-11T00:00:00	2024-11-08T08:00:00	1	Precipitación	0
140476	7	Sololá	701	Sololá	4	Finca Santa Victoria	11	Noviembre	2023-05-11T00:00:00	2024-11-08T08:00:00	8	Radiación solar	64
140477	7	Sololá	701	Sololá	4	Finca Santa Victoria	11	Noviembre	2023-05-11T00:00:00	2024-11-08T09:00:00	2	Temperatura media	14.1
140478	7	Sololá	701	Sololá	4	Finca Santa Victoria	11	Noviembre	2023-05-11T00:00:00	2024-11-08T09:00:00	4	Temperatura máxima	14.1
140479	7	Sololá	701	Sololá	4	Finca Santa Victoria	11	Noviembre	2023-05-11T00:00:00	2024-11-08T09:00:00	3	Temperatura mínima	13.1
140480	7	Sololá	701	Sololá	4	Finca Santa Victoria	11	Noviembre	2023-05-11T00:00:00	2024-11-08T09:00:00	5	Humedad	90
140481	7	Sololá	701	Sololá	4	Finca Santa Victoria	11	Noviembre	2023-05-11T00:00:00	2024-11-08T09:00:00	6	Velocidad del viento	1.6
140482	7	Sololá	701	Sololá	4	Finca Santa Victoria	11	Noviembre	2023-05-11T00:00:00	2024-11-08T09:00:00	7	Dirección del viento	1.61
140483	7	Sololá	701	Sololá	4	Finca Santa Victoria	11	Noviembre	2023-05-11T00:00:00	2024-11-08T09:00:00	1	Precipitación	0.2
140484	7	Sololá	701	Sololá	4	Finca Santa Victoria	11	Noviembre	2023-05-11T00:00:00	2024-11-08T09:00:00	8	Radiación solar	117
140485	7	Sololá	701	Sololá	4	Finca Santa Victoria	11	Noviembre	2023-05-11T00:00:00	2024-11-08T10:00:00	2	Temperatura media	16.1
140486	7	Sololá	701	Sololá	4	Finca Santa Victoria	11	Noviembre	2023-05-11T00:00:00	2024-11-08T10:00:00	4	Temperatura máxima	16.1
140487	7	Sololá	701	Sololá	4	Finca Santa Victoria	11	Noviembre	2023-05-11T00:00:00	2024-11-08T10:00:00	3	Temperatura mínima	14
140488	7	Sololá	701	Sololá	4	Finca Santa Victoria	11	Noviembre	2023-05-11T00:00:00	2024-11-08T10:00:00	5	Humedad	87
140489	7	Sololá	701	Sololá	4	Finca Santa Victoria	11	Noviembre	2023-05-11T00:00:00	2024-11-08T10:00:00	6	Velocidad del viento	3.2
140490	7	Sololá	701	Sololá	4	Finca Santa Victoria	11	Noviembre	2023-05-11T00:00:00	2024-11-08T10:00:00	7	Dirección del viento	3.22
140491	7	Sololá	701	Sololá	4	Finca Santa Victoria	11	Noviembre	2023-05-11T00:00:00	2024-11-08T10:00:00	1	Precipitación	0
140492	7	Sololá	701	Sololá	4	Finca Santa Victoria	11	Noviembre	2023-05-11T00:00:00	2024-11-08T10:00:00	8	Radiación solar	398
140493	7	Sololá	701	Sololá	4	Finca Santa Victoria	11	Noviembre	2023-05-11T00:00:00	2024-11-08T11:00:00	2	Temperatura media	15.7
140494	7	Sololá	701	Sololá	4	Finca Santa Victoria	11	Noviembre	2023-05-11T00:00:00	2024-11-08T11:00:00	4	Temperatura máxima	16.4
140495	7	Sololá	701	Sololá	4	Finca Santa Victoria	11	Noviembre	2023-05-11T00:00:00	2024-11-08T11:00:00	3	Temperatura mínima	15.7
140496	7	Sololá	701	Sololá	4	Finca Santa Victoria	11	Noviembre	2023-05-11T00:00:00	2024-11-08T11:00:00	5	Humedad	88
140497	7	Sololá	701	Sololá	4	Finca Santa Victoria	11	Noviembre	2023-05-11T00:00:00	2024-11-08T11:00:00	6	Velocidad del viento	3.2
140498	7	Sololá	701	Sololá	4	Finca Santa Victoria	11	Noviembre	2023-05-11T00:00:00	2024-11-08T11:00:00	7	Dirección del viento	3.22
140499	7	Sololá	701	Sololá	4	Finca Santa Victoria	11	Noviembre	2023-05-11T00:00:00	2024-11-08T11:00:00	1	Precipitación	0
140500	7	Sololá	701	Sololá	4	Finca Santa Victoria	11	Noviembre	2023-05-11T00:00:00	2024-11-08T11:00:00	8	Radiación solar	275
140501	7	Sololá	701	Sololá	4	Finca Santa Victoria	11	Noviembre	2023-05-11T00:00:00	2024-11-08T12:00:00	2	Temperatura media	16.7
140502	7	Sololá	701	Sololá	4	Finca Santa Victoria	11	Noviembre	2023-05-11T00:00:00	2024-11-08T12:00:00	4	Temperatura máxima	16.7
140503	7	Sololá	701	Sololá	4	Finca Santa Victoria	11	Noviembre	2023-05-11T00:00:00	2024-11-08T12:00:00	3	Temperatura mínima	15.5
140504	7	Sololá	701	Sololá	4	Finca Santa Victoria	11	Noviembre	2023-05-11T00:00:00	2024-11-08T12:00:00	5	Humedad	87
140505	7	Sololá	701	Sololá	4	Finca Santa Victoria	11	Noviembre	2023-05-11T00:00:00	2024-11-08T12:00:00	6	Velocidad del viento	1.6
140506	7	Sololá	701	Sololá	4	Finca Santa Victoria	11	Noviembre	2023-05-11T00:00:00	2024-11-08T12:00:00	7	Dirección del viento	1.61
140507	7	Sololá	701	Sololá	4	Finca Santa Victoria	11	Noviembre	2023-05-11T00:00:00	2024-11-08T12:00:00	1	Precipitación	0
140508	7	Sololá	701	Sololá	4	Finca Santa Victoria	11	Noviembre	2023-05-11T00:00:00	2024-11-08T12:00:00	8	Radiación solar	277
140509	7	Sololá	701	Sololá	4	Finca Santa Victoria	11	Noviembre	2023-05-11T00:00:00	2024-11-08T13:00:00	2	Temperatura media	15.4
140510	7	Sololá	701	Sololá	4	Finca Santa Victoria	11	Noviembre	2023-05-11T00:00:00	2024-11-08T13:00:00	4	Temperatura máxima	16.7
140511	7	Sololá	701	Sololá	4	Finca Santa Victoria	11	Noviembre	2023-05-11T00:00:00	2024-11-08T13:00:00	3	Temperatura mínima	15.3
140512	7	Sololá	701	Sololá	4	Finca Santa Victoria	11	Noviembre	2023-05-11T00:00:00	2024-11-08T13:00:00	5	Humedad	89
140513	7	Sololá	701	Sololá	4	Finca Santa Victoria	11	Noviembre	2023-05-11T00:00:00	2024-11-08T13:00:00	6	Velocidad del viento	1.6
140514	7	Sololá	701	Sololá	4	Finca Santa Victoria	11	Noviembre	2023-05-11T00:00:00	2024-11-08T13:00:00	7	Dirección del viento	1.61
140515	7	Sololá	701	Sololá	4	Finca Santa Victoria	11	Noviembre	2023-05-11T00:00:00	2024-11-08T13:00:00	1	Precipitación	0
140516	7	Sololá	701	Sololá	4	Finca Santa Victoria	11	Noviembre	2023-05-11T00:00:00	2024-11-08T13:00:00	8	Radiación solar	202
140517	7	Sololá	701	Sololá	4	Finca Santa Victoria	11	Noviembre	2023-05-11T00:00:00	2024-11-08T14:00:00	2	Temperatura media	15.5
140518	7	Sololá	701	Sololá	4	Finca Santa Victoria	11	Noviembre	2023-05-11T00:00:00	2024-11-08T14:00:00	4	Temperatura máxima	15.5
140519	7	Sololá	701	Sololá	4	Finca Santa Victoria	11	Noviembre	2023-05-11T00:00:00	2024-11-08T14:00:00	3	Temperatura mínima	14.8
140520	7	Sololá	701	Sololá	4	Finca Santa Victoria	11	Noviembre	2023-05-11T00:00:00	2024-11-08T14:00:00	5	Humedad	90
140521	7	Sololá	701	Sololá	4	Finca Santa Victoria	11	Noviembre	2023-05-11T00:00:00	2024-11-08T14:00:00	6	Velocidad del viento	1.6
140522	7	Sololá	701	Sololá	4	Finca Santa Victoria	11	Noviembre	2023-05-11T00:00:00	2024-11-08T14:00:00	7	Dirección del viento	1.61
140523	7	Sololá	701	Sololá	4	Finca Santa Victoria	11	Noviembre	2023-05-11T00:00:00	2024-11-08T14:00:00	1	Precipitación	0.6
140524	7	Sololá	701	Sololá	4	Finca Santa Victoria	11	Noviembre	2023-05-11T00:00:00	2024-11-08T14:00:00	8	Radiación solar	143
140525	7	Sololá	701	Sololá	4	Finca Santa Victoria	11	Noviembre	2023-05-11T00:00:00	2024-11-08T15:00:00	2	Temperatura media	15.6
140526	7	Sololá	701	Sololá	4	Finca Santa Victoria	11	Noviembre	2023-05-11T00:00:00	2024-11-08T15:00:00	4	Temperatura máxima	16.2
140527	7	Sololá	701	Sololá	4	Finca Santa Victoria	11	Noviembre	2023-05-11T00:00:00	2024-11-08T15:00:00	3	Temperatura mínima	15.5
140528	7	Sololá	701	Sololá	4	Finca Santa Victoria	11	Noviembre	2023-05-11T00:00:00	2024-11-08T15:00:00	5	Humedad	87
140529	7	Sololá	701	Sololá	4	Finca Santa Victoria	11	Noviembre	2023-05-11T00:00:00	2024-11-08T15:00:00	6	Velocidad del viento	3.2
140530	7	Sololá	701	Sololá	4	Finca Santa Victoria	11	Noviembre	2023-05-11T00:00:00	2024-11-08T15:00:00	7	Dirección del viento	3.22
140531	7	Sololá	701	Sololá	4	Finca Santa Victoria	11	Noviembre	2023-05-11T00:00:00	2024-11-08T15:00:00	1	Precipitación	0
140532	7	Sololá	701	Sololá	4	Finca Santa Victoria	11	Noviembre	2023-05-11T00:00:00	2024-11-08T15:00:00	8	Radiación solar	124
140533	7	Sololá	701	Sololá	4	Finca Santa Victoria	11	Noviembre	2023-05-11T00:00:00	2024-11-08T16:00:00	2	Temperatura media	15.7
140534	7	Sololá	701	Sololá	4	Finca Santa Victoria	11	Noviembre	2023-05-11T00:00:00	2024-11-08T16:00:00	4	Temperatura máxima	15.7
140535	7	Sololá	701	Sololá	4	Finca Santa Victoria	11	Noviembre	2023-05-11T00:00:00	2024-11-08T16:00:00	3	Temperatura mínima	15.3
140536	7	Sololá	701	Sololá	4	Finca Santa Victoria	11	Noviembre	2023-05-11T00:00:00	2024-11-08T16:00:00	5	Humedad	86
140537	7	Sololá	701	Sololá	4	Finca Santa Victoria	11	Noviembre	2023-05-11T00:00:00	2024-11-08T16:00:00	6	Velocidad del viento	1.6
140538	7	Sololá	701	Sololá	4	Finca Santa Victoria	11	Noviembre	2023-05-11T00:00:00	2024-11-08T16:00:00	7	Dirección del viento	1.61
140539	7	Sololá	701	Sololá	4	Finca Santa Victoria	11	Noviembre	2023-05-11T00:00:00	2024-11-08T16:00:00	1	Precipitación	0
140540	7	Sololá	701	Sololá	4	Finca Santa Victoria	11	Noviembre	2023-05-11T00:00:00	2024-11-08T16:00:00	8	Radiación solar	87
140541	7	Sololá	701	Sololá	4	Finca Santa Victoria	11	Noviembre	2023-05-11T00:00:00	2024-11-08T17:00:00	2	Temperatura media	15.1
140542	7	Sololá	701	Sololá	4	Finca Santa Victoria	11	Noviembre	2023-05-11T00:00:00	2024-11-08T17:00:00	4	Temperatura máxima	16
140543	7	Sololá	701	Sololá	4	Finca Santa Victoria	11	Noviembre	2023-05-11T00:00:00	2024-11-08T17:00:00	3	Temperatura mínima	15.1
140544	7	Sololá	701	Sololá	4	Finca Santa Victoria	11	Noviembre	2023-05-11T00:00:00	2024-11-08T17:00:00	5	Humedad	87
140545	7	Sololá	701	Sololá	4	Finca Santa Victoria	11	Noviembre	2023-05-11T00:00:00	2024-11-08T17:00:00	6	Velocidad del viento	1.6
140546	7	Sololá	701	Sololá	4	Finca Santa Victoria	11	Noviembre	2023-05-11T00:00:00	2024-11-08T17:00:00	7	Dirección del viento	1.61
140547	7	Sololá	701	Sololá	4	Finca Santa Victoria	11	Noviembre	2023-05-11T00:00:00	2024-11-08T17:00:00	1	Precipitación	0
140548	7	Sololá	701	Sololá	4	Finca Santa Victoria	11	Noviembre	2023-05-11T00:00:00	2024-11-08T17:00:00	8	Radiación solar	39
140549	7	Sololá	701	Sololá	4	Finca Santa Victoria	11	Noviembre	2023-05-11T00:00:00	2024-11-08T18:00:00	2	Temperatura media	13.9
140550	7	Sololá	701	Sololá	4	Finca Santa Victoria	11	Noviembre	2023-05-11T00:00:00	2024-11-08T18:00:00	4	Temperatura máxima	15.1
140551	7	Sololá	701	Sololá	4	Finca Santa Victoria	11	Noviembre	2023-05-11T00:00:00	2024-11-08T18:00:00	3	Temperatura mínima	13.9
140552	7	Sololá	701	Sololá	4	Finca Santa Victoria	11	Noviembre	2023-05-11T00:00:00	2024-11-08T18:00:00	5	Humedad	89
140553	7	Sololá	701	Sololá	4	Finca Santa Victoria	11	Noviembre	2023-05-11T00:00:00	2024-11-08T18:00:00	6	Velocidad del viento	0
140554	7	Sololá	701	Sololá	4	Finca Santa Victoria	11	Noviembre	2023-05-11T00:00:00	2024-11-08T18:00:00	7	Dirección del viento	0
140555	7	Sololá	701	Sololá	4	Finca Santa Victoria	11	Noviembre	2023-05-11T00:00:00	2024-11-08T18:00:00	1	Precipitación	0
140556	7	Sololá	701	Sololá	4	Finca Santa Victoria	11	Noviembre	2023-05-11T00:00:00	2024-11-08T18:00:00	8	Radiación solar	4
140557	7	Sololá	701	Sololá	4	Finca Santa Victoria	11	Noviembre	2023-05-11T00:00:00	2024-11-08T19:00:00	2	Temperatura media	13.4
140558	7	Sololá	701	Sololá	4	Finca Santa Victoria	11	Noviembre	2023-05-11T00:00:00	2024-11-08T19:00:00	4	Temperatura máxima	13.9
140559	7	Sololá	701	Sololá	4	Finca Santa Victoria	11	Noviembre	2023-05-11T00:00:00	2024-11-08T19:00:00	3	Temperatura mínima	13.4
140560	7	Sololá	701	Sololá	4	Finca Santa Victoria	11	Noviembre	2023-05-11T00:00:00	2024-11-08T19:00:00	5	Humedad	90
140561	7	Sololá	701	Sololá	4	Finca Santa Victoria	11	Noviembre	2023-05-11T00:00:00	2024-11-08T19:00:00	6	Velocidad del viento	1.6
140562	7	Sololá	701	Sololá	4	Finca Santa Victoria	11	Noviembre	2023-05-11T00:00:00	2024-11-08T19:00:00	7	Dirección del viento	1.61
140563	7	Sololá	701	Sololá	4	Finca Santa Victoria	11	Noviembre	2023-05-11T00:00:00	2024-11-08T19:00:00	1	Precipitación	0
140564	7	Sololá	701	Sololá	4	Finca Santa Victoria	11	Noviembre	2023-05-11T00:00:00	2024-11-08T19:00:00	8	Radiación solar	0
140565	7	Sololá	701	Sololá	4	Finca Santa Victoria	11	Noviembre	2023-05-11T00:00:00	2024-11-08T20:00:00	2	Temperatura media	13.3
140566	7	Sololá	701	Sololá	4	Finca Santa Victoria	11	Noviembre	2023-05-11T00:00:00	2024-11-08T20:00:00	4	Temperatura máxima	13.6
140567	7	Sololá	701	Sololá	4	Finca Santa Victoria	11	Noviembre	2023-05-11T00:00:00	2024-11-08T20:00:00	3	Temperatura mínima	13.3
140568	7	Sololá	701	Sololá	4	Finca Santa Victoria	11	Noviembre	2023-05-11T00:00:00	2024-11-08T20:00:00	5	Humedad	90
140569	7	Sololá	701	Sololá	4	Finca Santa Victoria	11	Noviembre	2023-05-11T00:00:00	2024-11-08T20:00:00	6	Velocidad del viento	1.6
140570	7	Sololá	701	Sololá	4	Finca Santa Victoria	11	Noviembre	2023-05-11T00:00:00	2024-11-08T20:00:00	7	Dirección del viento	1.61
140571	7	Sololá	701	Sololá	4	Finca Santa Victoria	11	Noviembre	2023-05-11T00:00:00	2024-11-08T20:00:00	1	Precipitación	0
140572	7	Sololá	701	Sololá	4	Finca Santa Victoria	11	Noviembre	2023-05-11T00:00:00	2024-11-08T20:00:00	8	Radiación solar	0
140573	7	Sololá	701	Sololá	4	Finca Santa Victoria	11	Noviembre	2023-05-11T00:00:00	2024-11-08T21:00:00	2	Temperatura media	13.4
140574	7	Sololá	701	Sololá	4	Finca Santa Victoria	11	Noviembre	2023-05-11T00:00:00	2024-11-08T21:00:00	4	Temperatura máxima	13.4
140575	7	Sololá	701	Sololá	4	Finca Santa Victoria	11	Noviembre	2023-05-11T00:00:00	2024-11-08T21:00:00	3	Temperatura mínima	13.3
140576	7	Sololá	701	Sololá	4	Finca Santa Victoria	11	Noviembre	2023-05-11T00:00:00	2024-11-08T21:00:00	5	Humedad	89
140577	7	Sololá	701	Sololá	4	Finca Santa Victoria	11	Noviembre	2023-05-11T00:00:00	2024-11-08T21:00:00	6	Velocidad del viento	1.6
140578	7	Sololá	701	Sololá	4	Finca Santa Victoria	11	Noviembre	2023-05-11T00:00:00	2024-11-08T21:00:00	7	Dirección del viento	1.61
140579	7	Sololá	701	Sololá	4	Finca Santa Victoria	11	Noviembre	2023-05-11T00:00:00	2024-11-08T21:00:00	1	Precipitación	0
140580	7	Sololá	701	Sololá	4	Finca Santa Victoria	11	Noviembre	2023-05-11T00:00:00	2024-11-08T21:00:00	8	Radiación solar	0
140581	7	Sololá	701	Sololá	4	Finca Santa Victoria	11	Noviembre	2023-05-11T00:00:00	2024-11-08T22:00:00	2	Temperatura media	13.3
140582	7	Sololá	701	Sololá	4	Finca Santa Victoria	11	Noviembre	2023-05-11T00:00:00	2024-11-08T22:00:00	4	Temperatura máxima	13.4
140583	7	Sololá	701	Sololá	4	Finca Santa Victoria	11	Noviembre	2023-05-11T00:00:00	2024-11-08T22:00:00	3	Temperatura mínima	13.3
140584	7	Sololá	701	Sololá	4	Finca Santa Victoria	11	Noviembre	2023-05-11T00:00:00	2024-11-08T22:00:00	5	Humedad	90
140585	7	Sololá	701	Sololá	4	Finca Santa Victoria	11	Noviembre	2023-05-11T00:00:00	2024-11-08T22:00:00	6	Velocidad del viento	3.2
140586	7	Sololá	701	Sololá	4	Finca Santa Victoria	11	Noviembre	2023-05-11T00:00:00	2024-11-08T22:00:00	7	Dirección del viento	3.22
140587	7	Sololá	701	Sololá	4	Finca Santa Victoria	11	Noviembre	2023-05-11T00:00:00	2024-11-08T22:00:00	1	Precipitación	0
140588	7	Sololá	701	Sololá	4	Finca Santa Victoria	11	Noviembre	2023-05-11T00:00:00	2024-11-08T22:00:00	8	Radiación solar	0
140589	7	Sololá	701	Sololá	4	Finca Santa Victoria	11	Noviembre	2023-05-11T00:00:00	2024-11-08T23:00:00	2	Temperatura media	13.2
140590	7	Sololá	701	Sololá	4	Finca Santa Victoria	11	Noviembre	2023-05-11T00:00:00	2024-11-08T23:00:00	4	Temperatura máxima	13.3
140591	7	Sololá	701	Sololá	4	Finca Santa Victoria	11	Noviembre	2023-05-11T00:00:00	2024-11-08T23:00:00	3	Temperatura mínima	13.2
140592	7	Sololá	701	Sololá	4	Finca Santa Victoria	11	Noviembre	2023-05-11T00:00:00	2024-11-08T23:00:00	5	Humedad	90
140593	7	Sololá	701	Sololá	4	Finca Santa Victoria	11	Noviembre	2023-05-11T00:00:00	2024-11-08T23:00:00	6	Velocidad del viento	3.2
140594	7	Sololá	701	Sololá	4	Finca Santa Victoria	11	Noviembre	2023-05-11T00:00:00	2024-11-08T23:00:00	7	Dirección del viento	3.22
140595	7	Sololá	701	Sololá	4	Finca Santa Victoria	11	Noviembre	2023-05-11T00:00:00	2024-11-08T23:00:00	1	Precipitación	0
140596	7	Sololá	701	Sololá	4	Finca Santa Victoria	11	Noviembre	2023-05-11T00:00:00	2024-11-08T23:00:00	8	Radiación solar	0
140597	7	Sololá	701	Sololá	4	Finca Santa Victoria	11	Noviembre	2023-06-11T00:00:00	2024-11-08T00:00:00	2	Temperatura media	12.9
140598	7	Sololá	701	Sololá	4	Finca Santa Victoria	11	Noviembre	2023-06-11T00:00:00	2024-11-08T00:00:00	4	Temperatura máxima	13.2
140599	7	Sololá	701	Sololá	4	Finca Santa Victoria	11	Noviembre	2023-06-11T00:00:00	2024-11-08T00:00:00	3	Temperatura mínima	12.9
140600	7	Sololá	701	Sololá	4	Finca Santa Victoria	11	Noviembre	2023-06-11T00:00:00	2024-11-08T00:00:00	5	Humedad	90
140601	7	Sololá	701	Sololá	4	Finca Santa Victoria	11	Noviembre	2023-06-11T00:00:00	2024-11-08T00:00:00	6	Velocidad del viento	3.2
140602	7	Sololá	701	Sololá	4	Finca Santa Victoria	11	Noviembre	2023-06-11T00:00:00	2024-11-08T00:00:00	7	Dirección del viento	3.22
140603	7	Sololá	701	Sololá	4	Finca Santa Victoria	11	Noviembre	2023-06-11T00:00:00	2024-11-08T00:00:00	1	Precipitación	0
140604	7	Sololá	701	Sololá	4	Finca Santa Victoria	11	Noviembre	2023-06-11T00:00:00	2024-11-08T00:00:00	8	Radiación solar	0
140605	7	Sololá	701	Sololá	4	Finca Santa Victoria	11	Noviembre	2023-06-11T00:00:00	2024-11-08T01:00:00	2	Temperatura media	12.6
140606	7	Sololá	701	Sololá	4	Finca Santa Victoria	11	Noviembre	2023-06-11T00:00:00	2024-11-08T01:00:00	4	Temperatura máxima	12.9
140607	7	Sololá	701	Sololá	4	Finca Santa Victoria	11	Noviembre	2023-06-11T00:00:00	2024-11-08T01:00:00	3	Temperatura mínima	12.6
140608	7	Sololá	701	Sololá	4	Finca Santa Victoria	11	Noviembre	2023-06-11T00:00:00	2024-11-08T01:00:00	5	Humedad	90
140609	7	Sololá	701	Sololá	4	Finca Santa Victoria	11	Noviembre	2023-06-11T00:00:00	2024-11-08T01:00:00	6	Velocidad del viento	3.2
140610	7	Sololá	701	Sololá	4	Finca Santa Victoria	11	Noviembre	2023-06-11T00:00:00	2024-11-08T01:00:00	7	Dirección del viento	3.22
140611	7	Sololá	701	Sololá	4	Finca Santa Victoria	11	Noviembre	2023-06-11T00:00:00	2024-11-08T01:00:00	1	Precipitación	0
140612	7	Sololá	701	Sololá	4	Finca Santa Victoria	11	Noviembre	2023-06-11T00:00:00	2024-11-08T01:00:00	8	Radiación solar	0
140613	7	Sololá	701	Sololá	4	Finca Santa Victoria	11	Noviembre	2023-06-11T00:00:00	2024-11-08T02:00:00	2	Temperatura media	12.4
140614	7	Sololá	701	Sololá	4	Finca Santa Victoria	11	Noviembre	2023-06-11T00:00:00	2024-11-08T02:00:00	4	Temperatura máxima	12.6
140615	7	Sololá	701	Sololá	4	Finca Santa Victoria	11	Noviembre	2023-06-11T00:00:00	2024-11-08T02:00:00	3	Temperatura mínima	12.3
140616	7	Sololá	701	Sololá	4	Finca Santa Victoria	11	Noviembre	2023-06-11T00:00:00	2024-11-08T02:00:00	5	Humedad	87
140617	7	Sololá	701	Sololá	4	Finca Santa Victoria	11	Noviembre	2023-06-11T00:00:00	2024-11-08T02:00:00	6	Velocidad del viento	3.2
140618	7	Sololá	701	Sololá	4	Finca Santa Victoria	11	Noviembre	2023-06-11T00:00:00	2024-11-08T02:00:00	7	Dirección del viento	3.22
140619	7	Sololá	701	Sololá	4	Finca Santa Victoria	11	Noviembre	2023-06-11T00:00:00	2024-11-08T02:00:00	1	Precipitación	0
140620	7	Sololá	701	Sololá	4	Finca Santa Victoria	11	Noviembre	2023-06-11T00:00:00	2024-11-08T02:00:00	8	Radiación solar	0
140621	7	Sololá	701	Sololá	4	Finca Santa Victoria	11	Noviembre	2023-06-11T00:00:00	2024-11-08T03:00:00	2	Temperatura media	12.4
140622	7	Sololá	701	Sololá	4	Finca Santa Victoria	11	Noviembre	2023-06-11T00:00:00	2024-11-08T03:00:00	4	Temperatura máxima	12.6
140623	7	Sololá	701	Sololá	4	Finca Santa Victoria	11	Noviembre	2023-06-11T00:00:00	2024-11-08T03:00:00	3	Temperatura mínima	12.3
140624	7	Sololá	701	Sololá	4	Finca Santa Victoria	11	Noviembre	2023-06-11T00:00:00	2024-11-08T03:00:00	5	Humedad	89
140625	7	Sololá	701	Sololá	4	Finca Santa Victoria	11	Noviembre	2023-06-11T00:00:00	2024-11-08T03:00:00	6	Velocidad del viento	3.2
140626	7	Sololá	701	Sololá	4	Finca Santa Victoria	11	Noviembre	2023-06-11T00:00:00	2024-11-08T03:00:00	7	Dirección del viento	3.22
140627	7	Sololá	701	Sololá	4	Finca Santa Victoria	11	Noviembre	2023-06-11T00:00:00	2024-11-08T03:00:00	1	Precipitación	0
140628	7	Sololá	701	Sololá	4	Finca Santa Victoria	11	Noviembre	2023-06-11T00:00:00	2024-11-08T03:00:00	8	Radiación solar	0
140629	7	Sololá	701	Sololá	4	Finca Santa Victoria	11	Noviembre	2023-06-11T00:00:00	2024-11-08T04:00:00	2	Temperatura media	12.5
140630	7	Sololá	701	Sololá	4	Finca Santa Victoria	11	Noviembre	2023-06-11T00:00:00	2024-11-08T04:00:00	4	Temperatura máxima	12.6
140631	7	Sololá	701	Sololá	4	Finca Santa Victoria	11	Noviembre	2023-06-11T00:00:00	2024-11-08T04:00:00	3	Temperatura mínima	12.3
140632	7	Sololá	701	Sololá	4	Finca Santa Victoria	11	Noviembre	2023-06-11T00:00:00	2024-11-08T04:00:00	5	Humedad	89
140633	7	Sololá	701	Sololá	4	Finca Santa Victoria	11	Noviembre	2023-06-11T00:00:00	2024-11-08T04:00:00	6	Velocidad del viento	3.2
140634	7	Sololá	701	Sololá	4	Finca Santa Victoria	11	Noviembre	2023-06-11T00:00:00	2024-11-08T04:00:00	7	Dirección del viento	3.22
140635	7	Sololá	701	Sololá	4	Finca Santa Victoria	11	Noviembre	2023-06-11T00:00:00	2024-11-08T04:00:00	1	Precipitación	0
140636	7	Sololá	701	Sololá	4	Finca Santa Victoria	11	Noviembre	2023-06-11T00:00:00	2024-11-08T04:00:00	8	Radiación solar	0
140637	7	Sololá	701	Sololá	4	Finca Santa Victoria	11	Noviembre	2023-06-11T00:00:00	2024-11-08T05:00:00	2	Temperatura media	12.7
140638	7	Sololá	701	Sololá	4	Finca Santa Victoria	11	Noviembre	2023-06-11T00:00:00	2024-11-08T05:00:00	4	Temperatura máxima	12.7
140639	7	Sololá	701	Sololá	4	Finca Santa Victoria	11	Noviembre	2023-06-11T00:00:00	2024-11-08T05:00:00	3	Temperatura mínima	12.5
140640	7	Sololá	701	Sololá	4	Finca Santa Victoria	11	Noviembre	2023-06-11T00:00:00	2024-11-08T05:00:00	5	Humedad	90
140641	7	Sololá	701	Sololá	4	Finca Santa Victoria	11	Noviembre	2023-06-11T00:00:00	2024-11-08T05:00:00	6	Velocidad del viento	3.2
140642	7	Sololá	701	Sololá	4	Finca Santa Victoria	11	Noviembre	2023-06-11T00:00:00	2024-11-08T05:00:00	7	Dirección del viento	3.22
140643	7	Sololá	701	Sololá	4	Finca Santa Victoria	11	Noviembre	2023-06-11T00:00:00	2024-11-08T05:00:00	1	Precipitación	0
140644	7	Sololá	701	Sololá	4	Finca Santa Victoria	11	Noviembre	2023-06-11T00:00:00	2024-11-08T05:00:00	8	Radiación solar	0
140645	7	Sololá	701	Sololá	4	Finca Santa Victoria	11	Noviembre	2023-06-11T00:00:00	2024-11-08T06:00:00	2	Temperatura media	12.7
140646	7	Sololá	701	Sololá	4	Finca Santa Victoria	11	Noviembre	2023-06-11T00:00:00	2024-11-08T06:00:00	4	Temperatura máxima	13
140647	7	Sololá	701	Sololá	4	Finca Santa Victoria	11	Noviembre	2023-06-11T00:00:00	2024-11-08T06:00:00	3	Temperatura mínima	12.7
140648	7	Sololá	701	Sololá	4	Finca Santa Victoria	11	Noviembre	2023-06-11T00:00:00	2024-11-08T06:00:00	5	Humedad	89
140649	7	Sololá	701	Sololá	4	Finca Santa Victoria	11	Noviembre	2023-06-11T00:00:00	2024-11-08T06:00:00	6	Velocidad del viento	3.2
140650	7	Sololá	701	Sololá	4	Finca Santa Victoria	11	Noviembre	2023-06-11T00:00:00	2024-11-08T06:00:00	7	Dirección del viento	3.22
140651	7	Sololá	701	Sololá	4	Finca Santa Victoria	11	Noviembre	2023-06-11T00:00:00	2024-11-08T06:00:00	1	Precipitación	0
140652	7	Sololá	701	Sololá	4	Finca Santa Victoria	11	Noviembre	2023-06-11T00:00:00	2024-11-08T06:00:00	8	Radiación solar	0
140653	7	Sololá	701	Sololá	4	Finca Santa Victoria	11	Noviembre	2023-06-11T00:00:00	2024-11-08T07:00:00	2	Temperatura media	13.4
140654	7	Sololá	701	Sololá	4	Finca Santa Victoria	11	Noviembre	2023-06-11T00:00:00	2024-11-08T07:00:00	4	Temperatura máxima	13.4
140655	7	Sololá	701	Sololá	4	Finca Santa Victoria	11	Noviembre	2023-06-11T00:00:00	2024-11-08T07:00:00	3	Temperatura mínima	12.7
140656	7	Sololá	701	Sololá	4	Finca Santa Victoria	11	Noviembre	2023-06-11T00:00:00	2024-11-08T07:00:00	5	Humedad	89
140657	7	Sololá	701	Sololá	4	Finca Santa Victoria	11	Noviembre	2023-06-11T00:00:00	2024-11-08T07:00:00	6	Velocidad del viento	3.2
140658	7	Sololá	701	Sololá	4	Finca Santa Victoria	11	Noviembre	2023-06-11T00:00:00	2024-11-08T07:00:00	7	Dirección del viento	3.22
140659	7	Sololá	701	Sololá	4	Finca Santa Victoria	11	Noviembre	2023-06-11T00:00:00	2024-11-08T07:00:00	1	Precipitación	0
140660	7	Sololá	701	Sololá	4	Finca Santa Victoria	11	Noviembre	2023-06-11T00:00:00	2024-11-08T07:00:00	8	Radiación solar	30
140661	7	Sololá	701	Sololá	4	Finca Santa Victoria	11	Noviembre	2023-06-11T00:00:00	2024-11-08T08:00:00	2	Temperatura media	14.3
140662	7	Sololá	701	Sololá	4	Finca Santa Victoria	11	Noviembre	2023-06-11T00:00:00	2024-11-08T08:00:00	4	Temperatura máxima	14.7
140663	7	Sololá	701	Sololá	4	Finca Santa Victoria	11	Noviembre	2023-06-11T00:00:00	2024-11-08T08:00:00	3	Temperatura mínima	13.4
140664	7	Sololá	701	Sololá	4	Finca Santa Victoria	11	Noviembre	2023-06-11T00:00:00	2024-11-08T08:00:00	5	Humedad	86
140665	7	Sololá	701	Sololá	4	Finca Santa Victoria	11	Noviembre	2023-06-11T00:00:00	2024-11-08T08:00:00	6	Velocidad del viento	3.2
140666	7	Sololá	701	Sololá	4	Finca Santa Victoria	11	Noviembre	2023-06-11T00:00:00	2024-11-08T08:00:00	7	Dirección del viento	3.22
140667	7	Sololá	701	Sololá	4	Finca Santa Victoria	11	Noviembre	2023-06-11T00:00:00	2024-11-08T08:00:00	1	Precipitación	0
140668	7	Sololá	701	Sololá	4	Finca Santa Victoria	11	Noviembre	2023-06-11T00:00:00	2024-11-08T08:00:00	8	Radiación solar	164
140669	7	Sololá	701	Sololá	4	Finca Santa Victoria	11	Noviembre	2023-06-11T00:00:00	2024-11-08T09:00:00	2	Temperatura media	15.4
140670	7	Sololá	701	Sololá	4	Finca Santa Victoria	11	Noviembre	2023-06-11T00:00:00	2024-11-08T09:00:00	4	Temperatura máxima	15.4
140671	7	Sololá	701	Sololá	4	Finca Santa Victoria	11	Noviembre	2023-06-11T00:00:00	2024-11-08T09:00:00	3	Temperatura mínima	14.2
140672	7	Sololá	701	Sololá	4	Finca Santa Victoria	11	Noviembre	2023-06-11T00:00:00	2024-11-08T09:00:00	5	Humedad	83
140673	7	Sololá	701	Sololá	4	Finca Santa Victoria	11	Noviembre	2023-06-11T00:00:00	2024-11-08T09:00:00	6	Velocidad del viento	3.2
140674	7	Sololá	701	Sololá	4	Finca Santa Victoria	11	Noviembre	2023-06-11T00:00:00	2024-11-08T09:00:00	7	Dirección del viento	3.22
140675	7	Sololá	701	Sololá	4	Finca Santa Victoria	11	Noviembre	2023-06-11T00:00:00	2024-11-08T09:00:00	1	Precipitación	0
140676	7	Sololá	701	Sololá	4	Finca Santa Victoria	11	Noviembre	2023-06-11T00:00:00	2024-11-08T09:00:00	8	Radiación solar	187
140677	7	Sololá	701	Sololá	4	Finca Santa Victoria	11	Noviembre	2023-06-11T00:00:00	2024-11-08T10:00:00	2	Temperatura media	15.2
140678	7	Sololá	701	Sololá	4	Finca Santa Victoria	11	Noviembre	2023-06-11T00:00:00	2024-11-08T10:00:00	4	Temperatura máxima	15.6
140679	7	Sololá	701	Sololá	4	Finca Santa Victoria	11	Noviembre	2023-06-11T00:00:00	2024-11-08T10:00:00	3	Temperatura mínima	15.2
140680	7	Sololá	701	Sololá	4	Finca Santa Victoria	11	Noviembre	2023-06-11T00:00:00	2024-11-08T10:00:00	5	Humedad	83
140681	7	Sololá	701	Sololá	4	Finca Santa Victoria	11	Noviembre	2023-06-11T00:00:00	2024-11-08T10:00:00	6	Velocidad del viento	3.2
140682	7	Sololá	701	Sololá	4	Finca Santa Victoria	11	Noviembre	2023-06-11T00:00:00	2024-11-08T10:00:00	7	Dirección del viento	3.22
140683	7	Sololá	701	Sololá	4	Finca Santa Victoria	11	Noviembre	2023-06-11T00:00:00	2024-11-08T10:00:00	1	Precipitación	0
140684	7	Sololá	701	Sololá	4	Finca Santa Victoria	11	Noviembre	2023-06-11T00:00:00	2024-11-08T10:00:00	8	Radiación solar	142
140685	7	Sololá	701	Sololá	4	Finca Santa Victoria	11	Noviembre	2023-06-11T00:00:00	2024-11-08T11:00:00	2	Temperatura media	16.8
140686	7	Sololá	701	Sololá	4	Finca Santa Victoria	11	Noviembre	2023-06-11T00:00:00	2024-11-08T11:00:00	4	Temperatura máxima	17.2
140687	7	Sololá	701	Sololá	4	Finca Santa Victoria	11	Noviembre	2023-06-11T00:00:00	2024-11-08T11:00:00	3	Temperatura mínima	15.2
140688	7	Sololá	701	Sololá	4	Finca Santa Victoria	11	Noviembre	2023-06-11T00:00:00	2024-11-08T11:00:00	5	Humedad	81
140689	7	Sololá	701	Sololá	4	Finca Santa Victoria	11	Noviembre	2023-06-11T00:00:00	2024-11-08T11:00:00	6	Velocidad del viento	3.2
140690	7	Sololá	701	Sololá	4	Finca Santa Victoria	11	Noviembre	2023-06-11T00:00:00	2024-11-08T11:00:00	7	Dirección del viento	3.22
140691	7	Sololá	701	Sololá	4	Finca Santa Victoria	11	Noviembre	2023-06-11T00:00:00	2024-11-08T11:00:00	1	Precipitación	0
140692	7	Sololá	701	Sololá	4	Finca Santa Victoria	11	Noviembre	2023-06-11T00:00:00	2024-11-08T11:00:00	8	Radiación solar	217
140693	7	Sololá	701	Sololá	4	Finca Santa Victoria	11	Noviembre	2023-06-11T00:00:00	2024-11-08T12:00:00	2	Temperatura media	17.5
140694	7	Sololá	701	Sololá	4	Finca Santa Victoria	11	Noviembre	2023-06-11T00:00:00	2024-11-08T12:00:00	4	Temperatura máxima	17.7
140695	7	Sololá	701	Sololá	4	Finca Santa Victoria	11	Noviembre	2023-06-11T00:00:00	2024-11-08T12:00:00	3	Temperatura mínima	16.7
140696	7	Sololá	701	Sololá	4	Finca Santa Victoria	11	Noviembre	2023-06-11T00:00:00	2024-11-08T12:00:00	5	Humedad	79
140697	7	Sololá	701	Sololá	4	Finca Santa Victoria	11	Noviembre	2023-06-11T00:00:00	2024-11-08T12:00:00	6	Velocidad del viento	3.2
140698	7	Sololá	701	Sololá	4	Finca Santa Victoria	11	Noviembre	2023-06-11T00:00:00	2024-11-08T12:00:00	7	Dirección del viento	3.22
140699	7	Sololá	701	Sololá	4	Finca Santa Victoria	11	Noviembre	2023-06-11T00:00:00	2024-11-08T12:00:00	1	Precipitación	0
140700	7	Sololá	701	Sololá	4	Finca Santa Victoria	11	Noviembre	2023-06-11T00:00:00	2024-11-08T12:00:00	8	Radiación solar	282
140701	7	Sololá	701	Sololá	4	Finca Santa Victoria	11	Noviembre	2023-06-11T00:00:00	2024-11-08T13:00:00	2	Temperatura media	17.9
140702	7	Sololá	701	Sololá	4	Finca Santa Victoria	11	Noviembre	2023-06-11T00:00:00	2024-11-08T13:00:00	4	Temperatura máxima	17.9
140703	7	Sololá	701	Sololá	4	Finca Santa Victoria	11	Noviembre	2023-06-11T00:00:00	2024-11-08T13:00:00	3	Temperatura mínima	17.1
140704	7	Sololá	701	Sololá	4	Finca Santa Victoria	11	Noviembre	2023-06-11T00:00:00	2024-11-08T13:00:00	5	Humedad	76
140705	7	Sololá	701	Sololá	4	Finca Santa Victoria	11	Noviembre	2023-06-11T00:00:00	2024-11-08T13:00:00	6	Velocidad del viento	3.2
140706	7	Sololá	701	Sololá	4	Finca Santa Victoria	11	Noviembre	2023-06-11T00:00:00	2024-11-08T13:00:00	7	Dirección del viento	3.22
140707	7	Sololá	701	Sololá	4	Finca Santa Victoria	11	Noviembre	2023-06-11T00:00:00	2024-11-08T13:00:00	1	Precipitación	0
140708	7	Sololá	701	Sololá	4	Finca Santa Victoria	11	Noviembre	2023-06-11T00:00:00	2024-11-08T13:00:00	8	Radiación solar	280
140709	7	Sololá	701	Sololá	4	Finca Santa Victoria	11	Noviembre	2023-06-11T00:00:00	2024-11-08T14:00:00	2	Temperatura media	18.6
140710	7	Sololá	701	Sololá	4	Finca Santa Victoria	11	Noviembre	2023-06-11T00:00:00	2024-11-08T14:00:00	4	Temperatura máxima	18.6
140711	7	Sololá	701	Sololá	4	Finca Santa Victoria	11	Noviembre	2023-06-11T00:00:00	2024-11-08T14:00:00	3	Temperatura mínima	17.8
140712	7	Sololá	701	Sololá	4	Finca Santa Victoria	11	Noviembre	2023-06-11T00:00:00	2024-11-08T14:00:00	5	Humedad	73
140713	7	Sololá	701	Sololá	4	Finca Santa Victoria	11	Noviembre	2023-06-11T00:00:00	2024-11-08T14:00:00	6	Velocidad del viento	3.2
140714	7	Sololá	701	Sololá	4	Finca Santa Victoria	11	Noviembre	2023-06-11T00:00:00	2024-11-08T14:00:00	7	Dirección del viento	3.22
140715	7	Sololá	701	Sololá	4	Finca Santa Victoria	11	Noviembre	2023-06-11T00:00:00	2024-11-08T14:00:00	1	Precipitación	0
140716	7	Sololá	701	Sololá	4	Finca Santa Victoria	11	Noviembre	2023-06-11T00:00:00	2024-11-08T14:00:00	8	Radiación solar	231
140717	7	Sololá	701	Sololá	4	Finca Santa Victoria	11	Noviembre	2023-06-11T00:00:00	2024-11-08T15:00:00	2	Temperatura media	18.1
140718	7	Sololá	701	Sololá	4	Finca Santa Victoria	11	Noviembre	2023-06-11T00:00:00	2024-11-08T15:00:00	4	Temperatura máxima	18.7
140719	7	Sololá	701	Sololá	4	Finca Santa Victoria	11	Noviembre	2023-06-11T00:00:00	2024-11-08T15:00:00	3	Temperatura mínima	17.9
140720	7	Sololá	701	Sololá	4	Finca Santa Victoria	11	Noviembre	2023-06-11T00:00:00	2024-11-08T15:00:00	5	Humedad	78
140721	7	Sololá	701	Sololá	4	Finca Santa Victoria	11	Noviembre	2023-06-11T00:00:00	2024-11-08T15:00:00	6	Velocidad del viento	3.2
140722	7	Sololá	701	Sololá	4	Finca Santa Victoria	11	Noviembre	2023-06-11T00:00:00	2024-11-08T15:00:00	7	Dirección del viento	3.22
140723	7	Sololá	701	Sololá	4	Finca Santa Victoria	11	Noviembre	2023-06-11T00:00:00	2024-11-08T15:00:00	1	Precipitación	0
140724	7	Sololá	701	Sololá	4	Finca Santa Victoria	11	Noviembre	2023-06-11T00:00:00	2024-11-08T15:00:00	8	Radiación solar	212
140725	7	Sololá	701	Sololá	4	Finca Santa Victoria	11	Noviembre	2023-06-11T00:00:00	2024-11-08T16:00:00	2	Temperatura media	17.4
140726	7	Sololá	701	Sololá	4	Finca Santa Victoria	11	Noviembre	2023-06-11T00:00:00	2024-11-08T16:00:00	4	Temperatura máxima	18.2
140727	7	Sololá	701	Sololá	4	Finca Santa Victoria	11	Noviembre	2023-06-11T00:00:00	2024-11-08T16:00:00	3	Temperatura mínima	17.2
140728	7	Sololá	701	Sololá	4	Finca Santa Victoria	11	Noviembre	2023-06-11T00:00:00	2024-11-08T16:00:00	5	Humedad	79
140729	7	Sololá	701	Sololá	4	Finca Santa Victoria	11	Noviembre	2023-06-11T00:00:00	2024-11-08T16:00:00	6	Velocidad del viento	3.2
140730	7	Sololá	701	Sololá	4	Finca Santa Victoria	11	Noviembre	2023-06-11T00:00:00	2024-11-08T16:00:00	7	Dirección del viento	3.22
140731	7	Sololá	701	Sololá	4	Finca Santa Victoria	11	Noviembre	2023-06-11T00:00:00	2024-11-08T16:00:00	1	Precipitación	0
140732	7	Sololá	701	Sololá	4	Finca Santa Victoria	11	Noviembre	2023-06-11T00:00:00	2024-11-08T16:00:00	8	Radiación solar	91
140733	7	Sololá	701	Sololá	4	Finca Santa Victoria	11	Noviembre	2023-06-11T00:00:00	2024-11-08T17:00:00	2	Temperatura media	16.3
140734	7	Sololá	701	Sololá	4	Finca Santa Victoria	11	Noviembre	2023-06-11T00:00:00	2024-11-08T17:00:00	4	Temperatura máxima	17.4
140735	7	Sololá	701	Sololá	4	Finca Santa Victoria	11	Noviembre	2023-06-11T00:00:00	2024-11-08T17:00:00	3	Temperatura mínima	16.3
140736	7	Sololá	701	Sololá	4	Finca Santa Victoria	11	Noviembre	2023-06-11T00:00:00	2024-11-08T17:00:00	5	Humedad	81
140737	7	Sololá	701	Sololá	4	Finca Santa Victoria	11	Noviembre	2023-06-11T00:00:00	2024-11-08T17:00:00	6	Velocidad del viento	1.6
140738	7	Sololá	701	Sololá	4	Finca Santa Victoria	11	Noviembre	2023-06-11T00:00:00	2024-11-08T17:00:00	7	Dirección del viento	1.61
140739	7	Sololá	701	Sololá	4	Finca Santa Victoria	11	Noviembre	2023-06-11T00:00:00	2024-11-08T17:00:00	1	Precipitación	0
140740	7	Sololá	701	Sololá	4	Finca Santa Victoria	11	Noviembre	2023-06-11T00:00:00	2024-11-08T17:00:00	8	Radiación solar	51
140741	7	Sololá	701	Sololá	4	Finca Santa Victoria	11	Noviembre	2023-06-11T00:00:00	2024-11-08T18:00:00	2	Temperatura media	13.8
140742	7	Sololá	701	Sololá	4	Finca Santa Victoria	11	Noviembre	2023-06-11T00:00:00	2024-11-08T18:00:00	4	Temperatura máxima	16.3
140743	7	Sololá	701	Sololá	4	Finca Santa Victoria	11	Noviembre	2023-06-11T00:00:00	2024-11-08T18:00:00	3	Temperatura mínima	13.8
140744	7	Sololá	701	Sololá	4	Finca Santa Victoria	11	Noviembre	2023-06-11T00:00:00	2024-11-08T18:00:00	5	Humedad	89
140745	7	Sololá	701	Sololá	4	Finca Santa Victoria	11	Noviembre	2023-06-11T00:00:00	2024-11-08T18:00:00	6	Velocidad del viento	3.2
140746	7	Sololá	701	Sololá	4	Finca Santa Victoria	11	Noviembre	2023-06-11T00:00:00	2024-11-08T18:00:00	7	Dirección del viento	3.22
140747	7	Sololá	701	Sololá	4	Finca Santa Victoria	11	Noviembre	2023-06-11T00:00:00	2024-11-08T18:00:00	1	Precipitación	0
140748	7	Sololá	701	Sololá	4	Finca Santa Victoria	11	Noviembre	2023-06-11T00:00:00	2024-11-08T18:00:00	8	Radiación solar	7
140749	7	Sololá	701	Sololá	4	Finca Santa Victoria	11	Noviembre	2023-06-11T00:00:00	2024-11-08T19:00:00	2	Temperatura media	13.6
140750	7	Sololá	701	Sololá	4	Finca Santa Victoria	11	Noviembre	2023-06-11T00:00:00	2024-11-08T19:00:00	4	Temperatura máxima	13.8
140751	7	Sololá	701	Sololá	4	Finca Santa Victoria	11	Noviembre	2023-06-11T00:00:00	2024-11-08T19:00:00	3	Temperatura mínima	13.5
140752	7	Sololá	701	Sololá	4	Finca Santa Victoria	11	Noviembre	2023-06-11T00:00:00	2024-11-08T19:00:00	5	Humedad	89
140753	7	Sololá	701	Sololá	4	Finca Santa Victoria	11	Noviembre	2023-06-11T00:00:00	2024-11-08T19:00:00	6	Velocidad del viento	3.2
140754	7	Sololá	701	Sololá	4	Finca Santa Victoria	11	Noviembre	2023-06-11T00:00:00	2024-11-08T19:00:00	7	Dirección del viento	3.22
140755	7	Sololá	701	Sololá	4	Finca Santa Victoria	11	Noviembre	2023-06-11T00:00:00	2024-11-08T19:00:00	1	Precipitación	0
140756	7	Sololá	701	Sololá	4	Finca Santa Victoria	11	Noviembre	2023-06-11T00:00:00	2024-11-08T19:00:00	8	Radiación solar	0
140757	7	Sololá	701	Sololá	4	Finca Santa Victoria	11	Noviembre	2023-06-11T00:00:00	2024-11-08T20:00:00	2	Temperatura media	13.6
140758	7	Sololá	701	Sololá	4	Finca Santa Victoria	11	Noviembre	2023-06-11T00:00:00	2024-11-08T20:00:00	4	Temperatura máxima	13.7
140759	7	Sololá	701	Sololá	4	Finca Santa Victoria	11	Noviembre	2023-06-11T00:00:00	2024-11-08T20:00:00	3	Temperatura mínima	13.5
140760	7	Sololá	701	Sololá	4	Finca Santa Victoria	11	Noviembre	2023-06-11T00:00:00	2024-11-08T20:00:00	5	Humedad	90
140761	7	Sololá	701	Sololá	4	Finca Santa Victoria	11	Noviembre	2023-06-11T00:00:00	2024-11-08T20:00:00	6	Velocidad del viento	3.2
140762	7	Sololá	701	Sololá	4	Finca Santa Victoria	11	Noviembre	2023-06-11T00:00:00	2024-11-08T20:00:00	7	Dirección del viento	3.22
140763	7	Sololá	701	Sololá	4	Finca Santa Victoria	11	Noviembre	2023-06-11T00:00:00	2024-11-08T20:00:00	1	Precipitación	0
140764	7	Sololá	701	Sololá	4	Finca Santa Victoria	11	Noviembre	2023-06-11T00:00:00	2024-11-08T20:00:00	8	Radiación solar	0
140765	7	Sololá	701	Sololá	4	Finca Santa Victoria	11	Noviembre	2023-06-11T00:00:00	2024-11-08T21:00:00	2	Temperatura media	13.9
140766	7	Sololá	701	Sololá	4	Finca Santa Victoria	11	Noviembre	2023-06-11T00:00:00	2024-11-08T21:00:00	4	Temperatura máxima	14
140767	7	Sololá	701	Sololá	4	Finca Santa Victoria	11	Noviembre	2023-06-11T00:00:00	2024-11-08T21:00:00	3	Temperatura mínima	13.6
140768	7	Sololá	701	Sololá	4	Finca Santa Victoria	11	Noviembre	2023-06-11T00:00:00	2024-11-08T21:00:00	5	Humedad	89
140769	7	Sololá	701	Sololá	4	Finca Santa Victoria	11	Noviembre	2023-06-11T00:00:00	2024-11-08T21:00:00	6	Velocidad del viento	3.2
140770	7	Sololá	701	Sololá	4	Finca Santa Victoria	11	Noviembre	2023-06-11T00:00:00	2024-11-08T21:00:00	7	Dirección del viento	3.22
140771	7	Sololá	701	Sololá	4	Finca Santa Victoria	11	Noviembre	2023-06-11T00:00:00	2024-11-08T21:00:00	1	Precipitación	0
140772	7	Sololá	701	Sololá	4	Finca Santa Victoria	11	Noviembre	2023-06-11T00:00:00	2024-11-08T21:00:00	8	Radiación solar	0
140773	7	Sololá	701	Sololá	4	Finca Santa Victoria	11	Noviembre	2023-06-11T00:00:00	2024-11-08T22:00:00	2	Temperatura media	13.9
140774	7	Sololá	701	Sololá	4	Finca Santa Victoria	11	Noviembre	2023-06-11T00:00:00	2024-11-08T22:00:00	4	Temperatura máxima	14
140775	7	Sololá	701	Sololá	4	Finca Santa Victoria	11	Noviembre	2023-06-11T00:00:00	2024-11-08T22:00:00	3	Temperatura mínima	13.9
140776	7	Sololá	701	Sololá	4	Finca Santa Victoria	11	Noviembre	2023-06-11T00:00:00	2024-11-08T22:00:00	5	Humedad	88
140777	7	Sololá	701	Sololá	4	Finca Santa Victoria	11	Noviembre	2023-06-11T00:00:00	2024-11-08T22:00:00	6	Velocidad del viento	3.2
140778	7	Sololá	701	Sololá	4	Finca Santa Victoria	11	Noviembre	2023-06-11T00:00:00	2024-11-08T22:00:00	7	Dirección del viento	3.22
140779	7	Sololá	701	Sololá	4	Finca Santa Victoria	11	Noviembre	2023-06-11T00:00:00	2024-11-08T22:00:00	1	Precipitación	0
140780	7	Sololá	701	Sololá	4	Finca Santa Victoria	11	Noviembre	2023-06-11T00:00:00	2024-11-08T22:00:00	8	Radiación solar	0
140781	7	Sololá	701	Sololá	4	Finca Santa Victoria	11	Noviembre	2023-06-11T00:00:00	2024-11-08T23:00:00	2	Temperatura media	13.7
140782	7	Sololá	701	Sololá	4	Finca Santa Victoria	11	Noviembre	2023-06-11T00:00:00	2024-11-08T23:00:00	4	Temperatura máxima	14.1
140783	7	Sololá	701	Sololá	4	Finca Santa Victoria	11	Noviembre	2023-06-11T00:00:00	2024-11-08T23:00:00	3	Temperatura mínima	13.7
140784	7	Sololá	701	Sololá	4	Finca Santa Victoria	11	Noviembre	2023-06-11T00:00:00	2024-11-08T23:00:00	5	Humedad	89
140785	7	Sololá	701	Sololá	4	Finca Santa Victoria	11	Noviembre	2023-06-11T00:00:00	2024-11-08T23:00:00	6	Velocidad del viento	3.2
140786	7	Sololá	701	Sololá	4	Finca Santa Victoria	11	Noviembre	2023-06-11T00:00:00	2024-11-08T23:00:00	7	Dirección del viento	3.22
140787	7	Sololá	701	Sololá	4	Finca Santa Victoria	11	Noviembre	2023-06-11T00:00:00	2024-11-08T23:00:00	1	Precipitación	0
140788	7	Sololá	701	Sololá	4	Finca Santa Victoria	11	Noviembre	2023-06-11T00:00:00	2024-11-08T23:00:00	8	Radiación solar	0
140789	7	Sololá	701	Sololá	4	Finca Santa Victoria	11	Noviembre	2023-07-11T00:00:00	2024-11-08T00:00:00	2	Temperatura media	13.8
140790	7	Sololá	701	Sololá	4	Finca Santa Victoria	11	Noviembre	2023-07-11T00:00:00	2024-11-08T00:00:00	4	Temperatura máxima	13.8
140791	7	Sololá	701	Sololá	4	Finca Santa Victoria	11	Noviembre	2023-07-11T00:00:00	2024-11-08T00:00:00	3	Temperatura mínima	13.6
140792	7	Sololá	701	Sololá	4	Finca Santa Victoria	11	Noviembre	2023-07-11T00:00:00	2024-11-08T00:00:00	5	Humedad	87
140793	7	Sololá	701	Sololá	4	Finca Santa Victoria	11	Noviembre	2023-07-11T00:00:00	2024-11-08T00:00:00	6	Velocidad del viento	3.2
140794	7	Sololá	701	Sololá	4	Finca Santa Victoria	11	Noviembre	2023-07-11T00:00:00	2024-11-08T00:00:00	7	Dirección del viento	3.22
140795	7	Sololá	701	Sololá	4	Finca Santa Victoria	11	Noviembre	2023-07-11T00:00:00	2024-11-08T00:00:00	1	Precipitación	0
140796	7	Sololá	701	Sololá	4	Finca Santa Victoria	11	Noviembre	2023-07-11T00:00:00	2024-11-08T00:00:00	8	Radiación solar	0
140797	7	Sololá	701	Sololá	4	Finca Santa Victoria	11	Noviembre	2023-07-11T00:00:00	2024-11-08T01:00:00	2	Temperatura media	13.4
140798	7	Sololá	701	Sololá	4	Finca Santa Victoria	11	Noviembre	2023-07-11T00:00:00	2024-11-08T01:00:00	4	Temperatura máxima	13.9
140799	7	Sololá	701	Sololá	4	Finca Santa Victoria	11	Noviembre	2023-07-11T00:00:00	2024-11-08T01:00:00	3	Temperatura mínima	13.4
140800	7	Sololá	701	Sololá	4	Finca Santa Victoria	11	Noviembre	2023-07-11T00:00:00	2024-11-08T01:00:00	5	Humedad	87
140801	7	Sololá	701	Sololá	4	Finca Santa Victoria	11	Noviembre	2023-07-11T00:00:00	2024-11-08T01:00:00	6	Velocidad del viento	1.6
140802	7	Sololá	701	Sololá	4	Finca Santa Victoria	11	Noviembre	2023-07-11T00:00:00	2024-11-08T01:00:00	7	Dirección del viento	1.61
140803	7	Sololá	701	Sololá	4	Finca Santa Victoria	11	Noviembre	2023-07-11T00:00:00	2024-11-08T01:00:00	1	Precipitación	0
140804	7	Sololá	701	Sololá	4	Finca Santa Victoria	11	Noviembre	2023-07-11T00:00:00	2024-11-08T01:00:00	8	Radiación solar	0
140805	7	Sololá	701	Sololá	4	Finca Santa Victoria	11	Noviembre	2023-07-11T00:00:00	2024-11-08T02:00:00	2	Temperatura media	13.2
140806	7	Sololá	701	Sololá	4	Finca Santa Victoria	11	Noviembre	2023-07-11T00:00:00	2024-11-08T02:00:00	4	Temperatura máxima	13.4
140807	7	Sololá	701	Sololá	4	Finca Santa Victoria	11	Noviembre	2023-07-11T00:00:00	2024-11-08T02:00:00	3	Temperatura mínima	13.1
140808	7	Sololá	701	Sololá	4	Finca Santa Victoria	11	Noviembre	2023-07-11T00:00:00	2024-11-08T02:00:00	5	Humedad	90
140809	7	Sololá	701	Sololá	4	Finca Santa Victoria	11	Noviembre	2023-07-11T00:00:00	2024-11-08T02:00:00	6	Velocidad del viento	3.2
140810	7	Sololá	701	Sololá	4	Finca Santa Victoria	11	Noviembre	2023-07-11T00:00:00	2024-11-08T02:00:00	7	Dirección del viento	3.22
140811	7	Sololá	701	Sololá	4	Finca Santa Victoria	11	Noviembre	2023-07-11T00:00:00	2024-11-08T02:00:00	1	Precipitación	0
140812	7	Sololá	701	Sololá	4	Finca Santa Victoria	11	Noviembre	2023-07-11T00:00:00	2024-11-08T02:00:00	8	Radiación solar	0
140813	7	Sololá	701	Sololá	4	Finca Santa Victoria	11	Noviembre	2023-07-11T00:00:00	2024-11-08T03:00:00	2	Temperatura media	13
140814	7	Sololá	701	Sololá	4	Finca Santa Victoria	11	Noviembre	2023-07-11T00:00:00	2024-11-08T03:00:00	4	Temperatura máxima	13.2
140815	7	Sololá	701	Sololá	4	Finca Santa Victoria	11	Noviembre	2023-07-11T00:00:00	2024-11-08T03:00:00	3	Temperatura mínima	12.8
140816	7	Sololá	701	Sololá	4	Finca Santa Victoria	11	Noviembre	2023-07-11T00:00:00	2024-11-08T03:00:00	5	Humedad	90
140817	7	Sololá	701	Sololá	4	Finca Santa Victoria	11	Noviembre	2023-07-11T00:00:00	2024-11-08T03:00:00	6	Velocidad del viento	3.2
140818	7	Sololá	701	Sololá	4	Finca Santa Victoria	11	Noviembre	2023-07-11T00:00:00	2024-11-08T03:00:00	7	Dirección del viento	3.22
140819	7	Sololá	701	Sololá	4	Finca Santa Victoria	11	Noviembre	2023-07-11T00:00:00	2024-11-08T03:00:00	1	Precipitación	0
140820	7	Sololá	701	Sololá	4	Finca Santa Victoria	11	Noviembre	2023-07-11T00:00:00	2024-11-08T03:00:00	8	Radiación solar	0
140821	7	Sololá	701	Sololá	4	Finca Santa Victoria	11	Noviembre	2023-07-11T00:00:00	2024-11-08T04:00:00	2	Temperatura media	13.2
140822	7	Sololá	701	Sololá	4	Finca Santa Victoria	11	Noviembre	2023-07-11T00:00:00	2024-11-08T04:00:00	4	Temperatura máxima	13.2
140823	7	Sololá	701	Sololá	4	Finca Santa Victoria	11	Noviembre	2023-07-11T00:00:00	2024-11-08T04:00:00	3	Temperatura mínima	13
140824	7	Sololá	701	Sololá	4	Finca Santa Victoria	11	Noviembre	2023-07-11T00:00:00	2024-11-08T04:00:00	5	Humedad	90
140825	7	Sololá	701	Sololá	4	Finca Santa Victoria	11	Noviembre	2023-07-11T00:00:00	2024-11-08T04:00:00	6	Velocidad del viento	3.2
140826	7	Sololá	701	Sololá	4	Finca Santa Victoria	11	Noviembre	2023-07-11T00:00:00	2024-11-08T04:00:00	7	Dirección del viento	3.22
140827	7	Sololá	701	Sololá	4	Finca Santa Victoria	11	Noviembre	2023-07-11T00:00:00	2024-11-08T04:00:00	1	Precipitación	0
140828	7	Sololá	701	Sololá	4	Finca Santa Victoria	11	Noviembre	2023-07-11T00:00:00	2024-11-08T04:00:00	8	Radiación solar	0
140829	7	Sololá	701	Sololá	4	Finca Santa Victoria	11	Noviembre	2023-07-11T00:00:00	2024-11-08T05:00:00	2	Temperatura media	13.1
140830	7	Sololá	701	Sololá	4	Finca Santa Victoria	11	Noviembre	2023-07-11T00:00:00	2024-11-08T05:00:00	4	Temperatura máxima	13.2
140831	7	Sololá	701	Sololá	4	Finca Santa Victoria	11	Noviembre	2023-07-11T00:00:00	2024-11-08T05:00:00	3	Temperatura mínima	13
140832	7	Sololá	701	Sololá	4	Finca Santa Victoria	11	Noviembre	2023-07-11T00:00:00	2024-11-08T05:00:00	5	Humedad	90
140833	7	Sololá	701	Sololá	4	Finca Santa Victoria	11	Noviembre	2023-07-11T00:00:00	2024-11-08T05:00:00	6	Velocidad del viento	3.2
140834	7	Sololá	701	Sololá	4	Finca Santa Victoria	11	Noviembre	2023-07-11T00:00:00	2024-11-08T05:00:00	7	Dirección del viento	3.22
140835	7	Sololá	701	Sololá	4	Finca Santa Victoria	11	Noviembre	2023-07-11T00:00:00	2024-11-08T05:00:00	1	Precipitación	0
140836	7	Sololá	701	Sololá	4	Finca Santa Victoria	11	Noviembre	2023-07-11T00:00:00	2024-11-08T05:00:00	8	Radiación solar	0
140837	7	Sololá	701	Sololá	4	Finca Santa Victoria	11	Noviembre	2023-07-11T00:00:00	2024-11-08T06:00:00	2	Temperatura media	12.7
140838	7	Sololá	701	Sololá	4	Finca Santa Victoria	11	Noviembre	2023-07-11T00:00:00	2024-11-08T06:00:00	4	Temperatura máxima	13.2
140839	7	Sololá	701	Sololá	4	Finca Santa Victoria	11	Noviembre	2023-07-11T00:00:00	2024-11-08T06:00:00	3	Temperatura mínima	12.7
140840	7	Sololá	701	Sololá	4	Finca Santa Victoria	11	Noviembre	2023-07-11T00:00:00	2024-11-08T06:00:00	5	Humedad	90
140841	7	Sololá	701	Sololá	4	Finca Santa Victoria	11	Noviembre	2023-07-11T00:00:00	2024-11-08T06:00:00	6	Velocidad del viento	3.2
140842	7	Sololá	701	Sololá	4	Finca Santa Victoria	11	Noviembre	2023-07-11T00:00:00	2024-11-08T06:00:00	7	Dirección del viento	3.22
140843	7	Sololá	701	Sololá	4	Finca Santa Victoria	11	Noviembre	2023-07-11T00:00:00	2024-11-08T06:00:00	1	Precipitación	1
140844	7	Sololá	701	Sololá	4	Finca Santa Victoria	11	Noviembre	2023-07-11T00:00:00	2024-11-08T06:00:00	8	Radiación solar	0
140845	7	Sololá	701	Sololá	4	Finca Santa Victoria	11	Noviembre	2023-07-11T00:00:00	2024-11-08T07:00:00	2	Temperatura media	12.6
140846	7	Sololá	701	Sololá	4	Finca Santa Victoria	11	Noviembre	2023-07-11T00:00:00	2024-11-08T07:00:00	4	Temperatura máxima	12.7
140847	7	Sololá	701	Sololá	4	Finca Santa Victoria	11	Noviembre	2023-07-11T00:00:00	2024-11-08T07:00:00	3	Temperatura mínima	12.5
140848	7	Sololá	701	Sololá	4	Finca Santa Victoria	11	Noviembre	2023-07-11T00:00:00	2024-11-08T07:00:00	5	Humedad	91
140849	7	Sololá	701	Sololá	4	Finca Santa Victoria	11	Noviembre	2023-07-11T00:00:00	2024-11-08T07:00:00	6	Velocidad del viento	3.2
140850	7	Sololá	701	Sololá	4	Finca Santa Victoria	11	Noviembre	2023-07-11T00:00:00	2024-11-08T07:00:00	7	Dirección del viento	3.22
140851	7	Sololá	701	Sololá	4	Finca Santa Victoria	11	Noviembre	2023-07-11T00:00:00	2024-11-08T07:00:00	1	Precipitación	0.8
140852	7	Sololá	701	Sololá	4	Finca Santa Victoria	11	Noviembre	2023-07-11T00:00:00	2024-11-08T07:00:00	8	Radiación solar	19
140853	7	Sololá	701	Sololá	4	Finca Santa Victoria	11	Noviembre	2023-07-11T00:00:00	2024-11-08T08:00:00	2	Temperatura media	14.3
140854	7	Sololá	701	Sololá	4	Finca Santa Victoria	11	Noviembre	2023-07-11T00:00:00	2024-11-08T08:00:00	4	Temperatura máxima	14.4
140855	7	Sololá	701	Sololá	4	Finca Santa Victoria	11	Noviembre	2023-07-11T00:00:00	2024-11-08T08:00:00	3	Temperatura mínima	12.6
140856	7	Sololá	701	Sololá	4	Finca Santa Victoria	11	Noviembre	2023-07-11T00:00:00	2024-11-08T08:00:00	5	Humedad	86
140857	7	Sololá	701	Sololá	4	Finca Santa Victoria	11	Noviembre	2023-07-11T00:00:00	2024-11-08T08:00:00	6	Velocidad del viento	6.4
140858	7	Sololá	701	Sololá	4	Finca Santa Victoria	11	Noviembre	2023-07-11T00:00:00	2024-11-08T08:00:00	7	Dirección del viento	6.44
140859	7	Sololá	701	Sololá	4	Finca Santa Victoria	11	Noviembre	2023-07-11T00:00:00	2024-11-08T08:00:00	1	Precipitación	0
140860	7	Sololá	701	Sololá	4	Finca Santa Victoria	11	Noviembre	2023-07-11T00:00:00	2024-11-08T08:00:00	8	Radiación solar	129
140861	7	Sololá	701	Sololá	4	Finca Santa Victoria	11	Noviembre	2023-07-11T00:00:00	2024-11-08T09:00:00	2	Temperatura media	13.4
140862	7	Sololá	701	Sololá	4	Finca Santa Victoria	11	Noviembre	2023-07-11T00:00:00	2024-11-08T09:00:00	4	Temperatura máxima	14.3
140863	7	Sololá	701	Sololá	4	Finca Santa Victoria	11	Noviembre	2023-07-11T00:00:00	2024-11-08T09:00:00	3	Temperatura mínima	12.9
140864	7	Sololá	701	Sololá	4	Finca Santa Victoria	11	Noviembre	2023-07-11T00:00:00	2024-11-08T09:00:00	5	Humedad	87
140865	7	Sololá	701	Sololá	4	Finca Santa Victoria	11	Noviembre	2023-07-11T00:00:00	2024-11-08T09:00:00	6	Velocidad del viento	4.8
140866	7	Sololá	701	Sololá	4	Finca Santa Victoria	11	Noviembre	2023-07-11T00:00:00	2024-11-08T09:00:00	7	Dirección del viento	4.83
140867	7	Sololá	701	Sololá	4	Finca Santa Victoria	11	Noviembre	2023-07-11T00:00:00	2024-11-08T09:00:00	1	Precipitación	0
140868	7	Sololá	701	Sololá	4	Finca Santa Victoria	11	Noviembre	2023-07-11T00:00:00	2024-11-08T09:00:00	8	Radiación solar	86
140869	7	Sololá	701	Sololá	4	Finca Santa Victoria	11	Noviembre	2023-07-11T00:00:00	2024-11-08T10:00:00	2	Temperatura media	14.7
140870	7	Sololá	701	Sololá	4	Finca Santa Victoria	11	Noviembre	2023-07-11T00:00:00	2024-11-08T10:00:00	4	Temperatura máxima	14.7
140871	7	Sololá	701	Sololá	4	Finca Santa Victoria	11	Noviembre	2023-07-11T00:00:00	2024-11-08T10:00:00	3	Temperatura mínima	13.4
140872	7	Sololá	701	Sololá	4	Finca Santa Victoria	11	Noviembre	2023-07-11T00:00:00	2024-11-08T10:00:00	5	Humedad	85
140873	7	Sololá	701	Sololá	4	Finca Santa Victoria	11	Noviembre	2023-07-11T00:00:00	2024-11-08T10:00:00	6	Velocidad del viento	3.2
140874	7	Sololá	701	Sololá	4	Finca Santa Victoria	11	Noviembre	2023-07-11T00:00:00	2024-11-08T10:00:00	7	Dirección del viento	3.22
140875	7	Sololá	701	Sololá	4	Finca Santa Victoria	11	Noviembre	2023-07-11T00:00:00	2024-11-08T10:00:00	1	Precipitación	0
140876	7	Sololá	701	Sololá	4	Finca Santa Victoria	11	Noviembre	2023-07-11T00:00:00	2024-11-08T10:00:00	8	Radiación solar	191
140877	7	Sololá	701	Sololá	4	Finca Santa Victoria	11	Noviembre	2023-07-11T00:00:00	2024-11-08T11:00:00	2	Temperatura media	14.9
140878	7	Sololá	701	Sololá	4	Finca Santa Victoria	11	Noviembre	2023-07-11T00:00:00	2024-11-08T11:00:00	4	Temperatura máxima	15.7
140879	7	Sololá	701	Sololá	4	Finca Santa Victoria	11	Noviembre	2023-07-11T00:00:00	2024-11-08T11:00:00	3	Temperatura mínima	14.7
140880	7	Sololá	701	Sololá	4	Finca Santa Victoria	11	Noviembre	2023-07-11T00:00:00	2024-11-08T11:00:00	5	Humedad	85
140881	7	Sololá	701	Sololá	4	Finca Santa Victoria	11	Noviembre	2023-07-11T00:00:00	2024-11-08T11:00:00	6	Velocidad del viento	4.8
140882	7	Sololá	701	Sololá	4	Finca Santa Victoria	11	Noviembre	2023-07-11T00:00:00	2024-11-08T11:00:00	7	Dirección del viento	4.83
140883	7	Sololá	701	Sololá	4	Finca Santa Victoria	11	Noviembre	2023-07-11T00:00:00	2024-11-08T11:00:00	1	Precipitación	0
140884	7	Sololá	701	Sololá	4	Finca Santa Victoria	11	Noviembre	2023-07-11T00:00:00	2024-11-08T11:00:00	8	Radiación solar	244
140885	7	Sololá	701	Sololá	4	Finca Santa Victoria	11	Noviembre	2023-07-11T00:00:00	2024-11-08T12:00:00	2	Temperatura media	16.1
140886	7	Sololá	701	Sololá	4	Finca Santa Victoria	11	Noviembre	2023-07-11T00:00:00	2024-11-08T12:00:00	4	Temperatura máxima	16.1
140887	7	Sololá	701	Sololá	4	Finca Santa Victoria	11	Noviembre	2023-07-11T00:00:00	2024-11-08T12:00:00	3	Temperatura mínima	14.9
140888	7	Sololá	701	Sololá	4	Finca Santa Victoria	11	Noviembre	2023-07-11T00:00:00	2024-11-08T12:00:00	5	Humedad	84
140889	7	Sololá	701	Sololá	4	Finca Santa Victoria	11	Noviembre	2023-07-11T00:00:00	2024-11-08T12:00:00	6	Velocidad del viento	4.8
140890	7	Sololá	701	Sololá	4	Finca Santa Victoria	11	Noviembre	2023-07-11T00:00:00	2024-11-08T12:00:00	7	Dirección del viento	4.83
140891	7	Sololá	701	Sololá	4	Finca Santa Victoria	11	Noviembre	2023-07-11T00:00:00	2024-11-08T12:00:00	1	Precipitación	0
140892	7	Sololá	701	Sololá	4	Finca Santa Victoria	11	Noviembre	2023-07-11T00:00:00	2024-11-08T12:00:00	8	Radiación solar	243
140893	7	Sololá	701	Sololá	4	Finca Santa Victoria	11	Noviembre	2023-07-11T00:00:00	2024-11-08T13:00:00	2	Temperatura media	15.9
140894	7	Sololá	701	Sololá	4	Finca Santa Victoria	11	Noviembre	2023-07-11T00:00:00	2024-11-08T13:00:00	4	Temperatura máxima	16.3
140895	7	Sololá	701	Sololá	4	Finca Santa Victoria	11	Noviembre	2023-07-11T00:00:00	2024-11-08T13:00:00	3	Temperatura mínima	15.9
140896	7	Sololá	701	Sololá	4	Finca Santa Victoria	11	Noviembre	2023-07-11T00:00:00	2024-11-08T13:00:00	5	Humedad	83
140897	7	Sololá	701	Sololá	4	Finca Santa Victoria	11	Noviembre	2023-07-11T00:00:00	2024-11-08T13:00:00	6	Velocidad del viento	4.8
140898	7	Sololá	701	Sololá	4	Finca Santa Victoria	11	Noviembre	2023-07-11T00:00:00	2024-11-08T13:00:00	7	Dirección del viento	4.83
140899	7	Sololá	701	Sololá	4	Finca Santa Victoria	11	Noviembre	2023-07-11T00:00:00	2024-11-08T13:00:00	1	Precipitación	0
140900	7	Sololá	701	Sololá	4	Finca Santa Victoria	11	Noviembre	2023-07-11T00:00:00	2024-11-08T13:00:00	8	Radiación solar	225
140901	7	Sololá	701	Sololá	4	Finca Santa Victoria	11	Noviembre	2023-07-11T00:00:00	2024-11-08T14:00:00	2	Temperatura media	16.7
140902	7	Sololá	701	Sololá	4	Finca Santa Victoria	11	Noviembre	2023-07-11T00:00:00	2024-11-08T14:00:00	4	Temperatura máxima	16.7
140903	7	Sololá	701	Sololá	4	Finca Santa Victoria	11	Noviembre	2023-07-11T00:00:00	2024-11-08T14:00:00	3	Temperatura mínima	15.9
140904	7	Sololá	701	Sololá	4	Finca Santa Victoria	11	Noviembre	2023-07-11T00:00:00	2024-11-08T14:00:00	5	Humedad	80
140905	7	Sololá	701	Sololá	4	Finca Santa Victoria	11	Noviembre	2023-07-11T00:00:00	2024-11-08T14:00:00	6	Velocidad del viento	4.8
140906	7	Sololá	701	Sololá	4	Finca Santa Victoria	11	Noviembre	2023-07-11T00:00:00	2024-11-08T14:00:00	7	Dirección del viento	4.83
140907	7	Sololá	701	Sololá	4	Finca Santa Victoria	11	Noviembre	2023-07-11T00:00:00	2024-11-08T14:00:00	1	Precipitación	0
140908	7	Sololá	701	Sololá	4	Finca Santa Victoria	11	Noviembre	2023-07-11T00:00:00	2024-11-08T14:00:00	8	Radiación solar	172
140909	7	Sololá	701	Sololá	4	Finca Santa Victoria	11	Noviembre	2023-07-11T00:00:00	2024-11-08T15:00:00	2	Temperatura media	15.2
140910	7	Sololá	701	Sololá	4	Finca Santa Victoria	11	Noviembre	2023-07-11T00:00:00	2024-11-08T15:00:00	4	Temperatura máxima	16.9
140911	7	Sololá	701	Sololá	4	Finca Santa Victoria	11	Noviembre	2023-07-11T00:00:00	2024-11-08T15:00:00	3	Temperatura mínima	15.2
140912	7	Sololá	701	Sololá	4	Finca Santa Victoria	11	Noviembre	2023-07-11T00:00:00	2024-11-08T15:00:00	5	Humedad	85
140913	7	Sololá	701	Sololá	4	Finca Santa Victoria	11	Noviembre	2023-07-11T00:00:00	2024-11-08T15:00:00	6	Velocidad del viento	4.8
140914	7	Sololá	701	Sololá	4	Finca Santa Victoria	11	Noviembre	2023-07-11T00:00:00	2024-11-08T15:00:00	7	Dirección del viento	4.83
140915	7	Sololá	701	Sololá	4	Finca Santa Victoria	11	Noviembre	2023-07-11T00:00:00	2024-11-08T15:00:00	1	Precipitación	0
140916	7	Sololá	701	Sololá	4	Finca Santa Victoria	11	Noviembre	2023-07-11T00:00:00	2024-11-08T15:00:00	8	Radiación solar	169
140917	7	Sololá	701	Sololá	4	Finca Santa Victoria	11	Noviembre	2023-07-11T00:00:00	2024-11-08T16:00:00	2	Temperatura media	15.1
140918	7	Sololá	701	Sololá	4	Finca Santa Victoria	11	Noviembre	2023-07-11T00:00:00	2024-11-08T16:00:00	4	Temperatura máxima	15.3
140919	7	Sololá	701	Sololá	4	Finca Santa Victoria	11	Noviembre	2023-07-11T00:00:00	2024-11-08T16:00:00	3	Temperatura mínima	15.1
140920	7	Sololá	701	Sololá	4	Finca Santa Victoria	11	Noviembre	2023-07-11T00:00:00	2024-11-08T16:00:00	5	Humedad	84
140921	7	Sololá	701	Sololá	4	Finca Santa Victoria	11	Noviembre	2023-07-11T00:00:00	2024-11-08T16:00:00	6	Velocidad del viento	3.2
140922	7	Sololá	701	Sololá	4	Finca Santa Victoria	11	Noviembre	2023-07-11T00:00:00	2024-11-08T16:00:00	7	Dirección del viento	3.22
140923	7	Sololá	701	Sololá	4	Finca Santa Victoria	11	Noviembre	2023-07-11T00:00:00	2024-11-08T16:00:00	1	Precipitación	0
140924	7	Sololá	701	Sololá	4	Finca Santa Victoria	11	Noviembre	2023-07-11T00:00:00	2024-11-08T16:00:00	8	Radiación solar	72
140925	7	Sololá	701	Sololá	4	Finca Santa Victoria	11	Noviembre	2023-07-11T00:00:00	2024-11-08T17:00:00	2	Temperatura media	14.5
140926	7	Sololá	701	Sololá	4	Finca Santa Victoria	11	Noviembre	2023-07-11T00:00:00	2024-11-08T17:00:00	4	Temperatura máxima	15.1
140927	7	Sololá	701	Sololá	4	Finca Santa Victoria	11	Noviembre	2023-07-11T00:00:00	2024-11-08T17:00:00	3	Temperatura mínima	14.5
140928	7	Sololá	701	Sololá	4	Finca Santa Victoria	11	Noviembre	2023-07-11T00:00:00	2024-11-08T17:00:00	5	Humedad	86
140929	7	Sololá	701	Sololá	4	Finca Santa Victoria	11	Noviembre	2023-07-11T00:00:00	2024-11-08T17:00:00	6	Velocidad del viento	3.2
140930	7	Sololá	701	Sololá	4	Finca Santa Victoria	11	Noviembre	2023-07-11T00:00:00	2024-11-08T17:00:00	7	Dirección del viento	3.22
140931	7	Sololá	701	Sololá	4	Finca Santa Victoria	11	Noviembre	2023-07-11T00:00:00	2024-11-08T17:00:00	1	Precipitación	0
140932	7	Sololá	701	Sololá	4	Finca Santa Victoria	11	Noviembre	2023-07-11T00:00:00	2024-11-08T17:00:00	8	Radiación solar	26
140933	7	Sololá	701	Sololá	4	Finca Santa Victoria	11	Noviembre	2023-07-11T00:00:00	2024-11-08T18:00:00	2	Temperatura media	13.4
140934	7	Sololá	701	Sololá	4	Finca Santa Victoria	11	Noviembre	2023-07-11T00:00:00	2024-11-08T18:00:00	4	Temperatura máxima	14.5
140935	7	Sololá	701	Sololá	4	Finca Santa Victoria	11	Noviembre	2023-07-11T00:00:00	2024-11-08T18:00:00	3	Temperatura mínima	13.4
140936	7	Sololá	701	Sololá	4	Finca Santa Victoria	11	Noviembre	2023-07-11T00:00:00	2024-11-08T18:00:00	5	Humedad	88
140937	7	Sololá	701	Sololá	4	Finca Santa Victoria	11	Noviembre	2023-07-11T00:00:00	2024-11-08T18:00:00	6	Velocidad del viento	4.8
140938	7	Sololá	701	Sololá	4	Finca Santa Victoria	11	Noviembre	2023-07-11T00:00:00	2024-11-08T18:00:00	7	Dirección del viento	4.83
140939	7	Sololá	701	Sololá	4	Finca Santa Victoria	11	Noviembre	2023-07-11T00:00:00	2024-11-08T18:00:00	1	Precipitación	0
140940	7	Sololá	701	Sololá	4	Finca Santa Victoria	11	Noviembre	2023-07-11T00:00:00	2024-11-08T18:00:00	8	Radiación solar	4
140941	7	Sololá	701	Sololá	4	Finca Santa Victoria	11	Noviembre	2023-07-11T00:00:00	2024-11-08T19:00:00	2	Temperatura media	13.5
140942	7	Sololá	701	Sololá	4	Finca Santa Victoria	11	Noviembre	2023-07-11T00:00:00	2024-11-08T19:00:00	4	Temperatura máxima	13.5
140943	7	Sololá	701	Sololá	4	Finca Santa Victoria	11	Noviembre	2023-07-11T00:00:00	2024-11-08T19:00:00	3	Temperatura mínima	13.3
140944	7	Sololá	701	Sololá	4	Finca Santa Victoria	11	Noviembre	2023-07-11T00:00:00	2024-11-08T19:00:00	5	Humedad	89
140945	7	Sololá	701	Sololá	4	Finca Santa Victoria	11	Noviembre	2023-07-11T00:00:00	2024-11-08T19:00:00	6	Velocidad del viento	3.2
140946	7	Sololá	701	Sololá	4	Finca Santa Victoria	11	Noviembre	2023-07-11T00:00:00	2024-11-08T19:00:00	7	Dirección del viento	3.22
140947	7	Sololá	701	Sololá	4	Finca Santa Victoria	11	Noviembre	2023-07-11T00:00:00	2024-11-08T19:00:00	1	Precipitación	0
140948	7	Sololá	701	Sololá	4	Finca Santa Victoria	11	Noviembre	2023-07-11T00:00:00	2024-11-08T19:00:00	8	Radiación solar	0
140949	7	Sololá	701	Sololá	4	Finca Santa Victoria	11	Noviembre	2023-07-11T00:00:00	2024-11-08T20:00:00	2	Temperatura media	13.1
140950	7	Sololá	701	Sololá	4	Finca Santa Victoria	11	Noviembre	2023-07-11T00:00:00	2024-11-08T20:00:00	4	Temperatura máxima	13.5
140951	7	Sololá	701	Sololá	4	Finca Santa Victoria	11	Noviembre	2023-07-11T00:00:00	2024-11-08T20:00:00	3	Temperatura mínima	13.1
140952	7	Sololá	701	Sololá	4	Finca Santa Victoria	11	Noviembre	2023-07-11T00:00:00	2024-11-08T20:00:00	5	Humedad	89
140953	7	Sololá	701	Sololá	4	Finca Santa Victoria	11	Noviembre	2023-07-11T00:00:00	2024-11-08T20:00:00	6	Velocidad del viento	3.2
140954	7	Sololá	701	Sololá	4	Finca Santa Victoria	11	Noviembre	2023-07-11T00:00:00	2024-11-08T20:00:00	7	Dirección del viento	3.22
140955	7	Sololá	701	Sololá	4	Finca Santa Victoria	11	Noviembre	2023-07-11T00:00:00	2024-11-08T20:00:00	1	Precipitación	0
140956	7	Sololá	701	Sololá	4	Finca Santa Victoria	11	Noviembre	2023-07-11T00:00:00	2024-11-08T20:00:00	8	Radiación solar	0
140957	7	Sololá	701	Sololá	4	Finca Santa Victoria	11	Noviembre	2023-07-11T00:00:00	2024-11-08T21:00:00	2	Temperatura media	12.8
140958	7	Sololá	701	Sololá	4	Finca Santa Victoria	11	Noviembre	2023-07-11T00:00:00	2024-11-08T21:00:00	4	Temperatura máxima	13.1
140959	7	Sololá	701	Sololá	4	Finca Santa Victoria	11	Noviembre	2023-07-11T00:00:00	2024-11-08T21:00:00	3	Temperatura mínima	12.7
140960	7	Sololá	701	Sololá	4	Finca Santa Victoria	11	Noviembre	2023-07-11T00:00:00	2024-11-08T21:00:00	5	Humedad	89
140961	7	Sololá	701	Sololá	4	Finca Santa Victoria	11	Noviembre	2023-07-11T00:00:00	2024-11-08T21:00:00	6	Velocidad del viento	3.2
140962	7	Sololá	701	Sololá	4	Finca Santa Victoria	11	Noviembre	2023-07-11T00:00:00	2024-11-08T21:00:00	7	Dirección del viento	3.22
140963	7	Sololá	701	Sololá	4	Finca Santa Victoria	11	Noviembre	2023-07-11T00:00:00	2024-11-08T21:00:00	1	Precipitación	0
140964	7	Sololá	701	Sololá	4	Finca Santa Victoria	11	Noviembre	2023-07-11T00:00:00	2024-11-08T21:00:00	8	Radiación solar	0
140965	7	Sololá	701	Sololá	4	Finca Santa Victoria	11	Noviembre	2023-07-11T00:00:00	2024-11-08T22:00:00	2	Temperatura media	12.9
140966	7	Sololá	701	Sololá	4	Finca Santa Victoria	11	Noviembre	2023-07-11T00:00:00	2024-11-08T22:00:00	4	Temperatura máxima	12.9
140967	7	Sololá	701	Sololá	4	Finca Santa Victoria	11	Noviembre	2023-07-11T00:00:00	2024-11-08T22:00:00	3	Temperatura mínima	12.8
140968	7	Sololá	701	Sololá	4	Finca Santa Victoria	11	Noviembre	2023-07-11T00:00:00	2024-11-08T22:00:00	5	Humedad	88
140969	7	Sololá	701	Sololá	4	Finca Santa Victoria	11	Noviembre	2023-07-11T00:00:00	2024-11-08T22:00:00	6	Velocidad del viento	3.2
140970	7	Sololá	701	Sololá	4	Finca Santa Victoria	11	Noviembre	2023-07-11T00:00:00	2024-11-08T22:00:00	7	Dirección del viento	3.22
140971	7	Sololá	701	Sololá	4	Finca Santa Victoria	11	Noviembre	2023-07-11T00:00:00	2024-11-08T22:00:00	1	Precipitación	0
140972	7	Sololá	701	Sololá	4	Finca Santa Victoria	11	Noviembre	2023-07-11T00:00:00	2024-11-08T22:00:00	8	Radiación solar	0
140973	7	Sololá	701	Sololá	4	Finca Santa Victoria	11	Noviembre	2023-07-11T00:00:00	2024-11-08T23:00:00	2	Temperatura media	12.6
140974	7	Sololá	701	Sololá	4	Finca Santa Victoria	11	Noviembre	2023-07-11T00:00:00	2024-11-08T23:00:00	4	Temperatura máxima	12.9
140975	7	Sololá	701	Sololá	4	Finca Santa Victoria	11	Noviembre	2023-07-11T00:00:00	2024-11-08T23:00:00	3	Temperatura mínima	12.6
140976	7	Sololá	701	Sololá	4	Finca Santa Victoria	11	Noviembre	2023-07-11T00:00:00	2024-11-08T23:00:00	5	Humedad	89
140977	7	Sololá	701	Sololá	4	Finca Santa Victoria	11	Noviembre	2023-07-11T00:00:00	2024-11-08T23:00:00	6	Velocidad del viento	3.2
140978	7	Sololá	701	Sololá	4	Finca Santa Victoria	11	Noviembre	2023-07-11T00:00:00	2024-11-08T23:00:00	7	Dirección del viento	3.22
140979	7	Sololá	701	Sololá	4	Finca Santa Victoria	11	Noviembre	2023-07-11T00:00:00	2024-11-08T23:00:00	1	Precipitación	0
140980	7	Sololá	701	Sololá	4	Finca Santa Victoria	11	Noviembre	2023-07-11T00:00:00	2024-11-08T23:00:00	8	Radiación solar	0
140981	7	Sololá	701	Sololá	4	Finca Santa Victoria	11	Noviembre	2023-08-11T00:00:00	2024-11-08T00:00:00	2	Temperatura media	12.4
140982	7	Sololá	701	Sololá	4	Finca Santa Victoria	11	Noviembre	2023-08-11T00:00:00	2024-11-08T00:00:00	4	Temperatura máxima	12.6
140983	7	Sololá	701	Sololá	4	Finca Santa Victoria	11	Noviembre	2023-08-11T00:00:00	2024-11-08T00:00:00	3	Temperatura mínima	12.2
140984	7	Sololá	701	Sololá	4	Finca Santa Victoria	11	Noviembre	2023-08-11T00:00:00	2024-11-08T00:00:00	5	Humedad	90
140985	7	Sololá	701	Sololá	4	Finca Santa Victoria	11	Noviembre	2023-08-11T00:00:00	2024-11-08T00:00:00	6	Velocidad del viento	3.2
140986	7	Sololá	701	Sololá	4	Finca Santa Victoria	11	Noviembre	2023-08-11T00:00:00	2024-11-08T00:00:00	7	Dirección del viento	3.22
140987	7	Sololá	701	Sololá	4	Finca Santa Victoria	11	Noviembre	2023-08-11T00:00:00	2024-11-08T00:00:00	1	Precipitación	0
140988	7	Sololá	701	Sololá	4	Finca Santa Victoria	11	Noviembre	2023-08-11T00:00:00	2024-11-08T00:00:00	8	Radiación solar	0
140989	7	Sololá	701	Sololá	4	Finca Santa Victoria	11	Noviembre	2023-08-11T00:00:00	2024-11-08T01:00:00	2	Temperatura media	12.6
140990	7	Sololá	701	Sololá	4	Finca Santa Victoria	11	Noviembre	2023-08-11T00:00:00	2024-11-08T01:00:00	4	Temperatura máxima	12.6
140991	7	Sololá	701	Sololá	4	Finca Santa Victoria	11	Noviembre	2023-08-11T00:00:00	2024-11-08T01:00:00	3	Temperatura mínima	12.4
140992	7	Sololá	701	Sololá	4	Finca Santa Victoria	11	Noviembre	2023-08-11T00:00:00	2024-11-08T01:00:00	5	Humedad	89
140993	7	Sololá	701	Sololá	4	Finca Santa Victoria	11	Noviembre	2023-08-11T00:00:00	2024-11-08T01:00:00	6	Velocidad del viento	3.2
140994	7	Sololá	701	Sololá	4	Finca Santa Victoria	11	Noviembre	2023-08-11T00:00:00	2024-11-08T01:00:00	7	Dirección del viento	3.22
140995	7	Sololá	701	Sololá	4	Finca Santa Victoria	11	Noviembre	2023-08-11T00:00:00	2024-11-08T01:00:00	1	Precipitación	0
140996	7	Sololá	701	Sololá	4	Finca Santa Victoria	11	Noviembre	2023-08-11T00:00:00	2024-11-08T01:00:00	8	Radiación solar	0
140997	7	Sololá	701	Sololá	4	Finca Santa Victoria	11	Noviembre	2023-08-11T00:00:00	2024-11-08T02:00:00	2	Temperatura media	12.7
140998	7	Sololá	701	Sololá	4	Finca Santa Victoria	11	Noviembre	2023-08-11T00:00:00	2024-11-08T02:00:00	4	Temperatura máxima	12.7
140999	7	Sololá	701	Sololá	4	Finca Santa Victoria	11	Noviembre	2023-08-11T00:00:00	2024-11-08T02:00:00	3	Temperatura mínima	12.6
141000	7	Sololá	701	Sololá	4	Finca Santa Victoria	11	Noviembre	2023-08-11T00:00:00	2024-11-08T02:00:00	5	Humedad	89
141001	7	Sololá	701	Sololá	4	Finca Santa Victoria	11	Noviembre	2023-08-11T00:00:00	2024-11-08T02:00:00	6	Velocidad del viento	3.2
141002	7	Sololá	701	Sololá	4	Finca Santa Victoria	11	Noviembre	2023-08-11T00:00:00	2024-11-08T02:00:00	7	Dirección del viento	3.22
141003	7	Sololá	701	Sololá	4	Finca Santa Victoria	11	Noviembre	2023-08-11T00:00:00	2024-11-08T02:00:00	1	Precipitación	0
141004	7	Sololá	701	Sololá	4	Finca Santa Victoria	11	Noviembre	2023-08-11T00:00:00	2024-11-08T02:00:00	8	Radiación solar	0
141005	7	Sololá	701	Sololá	4	Finca Santa Victoria	11	Noviembre	2023-08-11T00:00:00	2024-11-08T03:00:00	2	Temperatura media	12.7
141006	7	Sololá	701	Sololá	4	Finca Santa Victoria	11	Noviembre	2023-08-11T00:00:00	2024-11-08T03:00:00	4	Temperatura máxima	12.7
141007	7	Sololá	701	Sololá	4	Finca Santa Victoria	11	Noviembre	2023-08-11T00:00:00	2024-11-08T03:00:00	3	Temperatura mínima	12.6
141008	7	Sololá	701	Sololá	4	Finca Santa Victoria	11	Noviembre	2023-08-11T00:00:00	2024-11-08T03:00:00	5	Humedad	89
141009	7	Sololá	701	Sololá	4	Finca Santa Victoria	11	Noviembre	2023-08-11T00:00:00	2024-11-08T03:00:00	6	Velocidad del viento	3.2
141010	7	Sololá	701	Sololá	4	Finca Santa Victoria	11	Noviembre	2023-08-11T00:00:00	2024-11-08T03:00:00	7	Dirección del viento	3.22
141011	7	Sololá	701	Sololá	4	Finca Santa Victoria	11	Noviembre	2023-08-11T00:00:00	2024-11-08T03:00:00	1	Precipitación	0
141012	7	Sololá	701	Sololá	4	Finca Santa Victoria	11	Noviembre	2023-08-11T00:00:00	2024-11-08T03:00:00	8	Radiación solar	0
141013	7	Sololá	701	Sololá	4	Finca Santa Victoria	11	Noviembre	2023-08-11T00:00:00	2024-11-08T04:00:00	2	Temperatura media	12.7
141014	7	Sololá	701	Sololá	4	Finca Santa Victoria	11	Noviembre	2023-08-11T00:00:00	2024-11-08T04:00:00	4	Temperatura máxima	12.7
141015	7	Sololá	701	Sololá	4	Finca Santa Victoria	11	Noviembre	2023-08-11T00:00:00	2024-11-08T04:00:00	3	Temperatura mínima	12.5
141016	7	Sololá	701	Sololá	4	Finca Santa Victoria	11	Noviembre	2023-08-11T00:00:00	2024-11-08T04:00:00	5	Humedad	89
141017	7	Sololá	701	Sololá	4	Finca Santa Victoria	11	Noviembre	2023-08-11T00:00:00	2024-11-08T04:00:00	6	Velocidad del viento	3.2
141018	7	Sololá	701	Sololá	4	Finca Santa Victoria	11	Noviembre	2023-08-11T00:00:00	2024-11-08T04:00:00	7	Dirección del viento	3.22
141019	7	Sololá	701	Sololá	4	Finca Santa Victoria	11	Noviembre	2023-08-11T00:00:00	2024-11-08T04:00:00	1	Precipitación	0
141020	7	Sololá	701	Sololá	4	Finca Santa Victoria	11	Noviembre	2023-08-11T00:00:00	2024-11-08T04:00:00	8	Radiación solar	0
141021	7	Sololá	701	Sololá	4	Finca Santa Victoria	11	Noviembre	2023-08-11T00:00:00	2024-11-08T05:00:00	2	Temperatura media	12.4
141022	7	Sololá	701	Sololá	4	Finca Santa Victoria	11	Noviembre	2023-08-11T00:00:00	2024-11-08T05:00:00	4	Temperatura máxima	12.7
141023	7	Sololá	701	Sololá	4	Finca Santa Victoria	11	Noviembre	2023-08-11T00:00:00	2024-11-08T05:00:00	3	Temperatura mínima	12.4
141024	7	Sololá	701	Sololá	4	Finca Santa Victoria	11	Noviembre	2023-08-11T00:00:00	2024-11-08T05:00:00	5	Humedad	90
141025	7	Sololá	701	Sololá	4	Finca Santa Victoria	11	Noviembre	2023-08-11T00:00:00	2024-11-08T05:00:00	6	Velocidad del viento	3.2
141026	7	Sololá	701	Sololá	4	Finca Santa Victoria	11	Noviembre	2023-08-11T00:00:00	2024-11-08T05:00:00	7	Dirección del viento	3.22
141027	7	Sololá	701	Sololá	4	Finca Santa Victoria	11	Noviembre	2023-08-11T00:00:00	2024-11-08T05:00:00	1	Precipitación	0
141028	7	Sololá	701	Sololá	4	Finca Santa Victoria	11	Noviembre	2023-08-11T00:00:00	2024-11-08T05:00:00	8	Radiación solar	0
141029	7	Sololá	701	Sololá	4	Finca Santa Victoria	11	Noviembre	2023-08-11T00:00:00	2024-11-08T06:00:00	2	Temperatura media	12.4
141030	7	Sololá	701	Sololá	4	Finca Santa Victoria	11	Noviembre	2023-08-11T00:00:00	2024-11-08T06:00:00	4	Temperatura máxima	12.5
141031	7	Sololá	701	Sololá	4	Finca Santa Victoria	11	Noviembre	2023-08-11T00:00:00	2024-11-08T06:00:00	3	Temperatura mínima	12.4
141032	7	Sololá	701	Sololá	4	Finca Santa Victoria	11	Noviembre	2023-08-11T00:00:00	2024-11-08T06:00:00	5	Humedad	90
141033	7	Sololá	701	Sololá	4	Finca Santa Victoria	11	Noviembre	2023-08-11T00:00:00	2024-11-08T06:00:00	6	Velocidad del viento	3.2
141034	7	Sololá	701	Sololá	4	Finca Santa Victoria	11	Noviembre	2023-08-11T00:00:00	2024-11-08T06:00:00	7	Dirección del viento	3.22
141035	7	Sololá	701	Sololá	4	Finca Santa Victoria	11	Noviembre	2023-08-11T00:00:00	2024-11-08T06:00:00	1	Precipitación	0
141036	7	Sololá	701	Sololá	4	Finca Santa Victoria	11	Noviembre	2023-08-11T00:00:00	2024-11-08T06:00:00	8	Radiación solar	0
141037	7	Sololá	701	Sololá	4	Finca Santa Victoria	11	Noviembre	2023-08-11T00:00:00	2024-11-08T07:00:00	2	Temperatura media	12.8
141038	7	Sololá	701	Sololá	4	Finca Santa Victoria	11	Noviembre	2023-08-11T00:00:00	2024-11-08T07:00:00	4	Temperatura máxima	12.8
141039	7	Sololá	701	Sololá	4	Finca Santa Victoria	11	Noviembre	2023-08-11T00:00:00	2024-11-08T07:00:00	3	Temperatura mínima	12.4
141040	7	Sololá	701	Sololá	4	Finca Santa Victoria	11	Noviembre	2023-08-11T00:00:00	2024-11-08T07:00:00	5	Humedad	90
141041	7	Sololá	701	Sololá	4	Finca Santa Victoria	11	Noviembre	2023-08-11T00:00:00	2024-11-08T07:00:00	6	Velocidad del viento	4.8
141042	7	Sololá	701	Sololá	4	Finca Santa Victoria	11	Noviembre	2023-08-11T00:00:00	2024-11-08T07:00:00	7	Dirección del viento	4.83
141043	7	Sololá	701	Sololá	4	Finca Santa Victoria	11	Noviembre	2023-08-11T00:00:00	2024-11-08T07:00:00	1	Precipitación	0
141044	7	Sololá	701	Sololá	4	Finca Santa Victoria	11	Noviembre	2023-08-11T00:00:00	2024-11-08T07:00:00	8	Radiación solar	24
141045	7	Sololá	701	Sololá	4	Finca Santa Victoria	11	Noviembre	2023-08-11T00:00:00	2024-11-08T08:00:00	2	Temperatura media	14.1
141046	7	Sololá	701	Sololá	4	Finca Santa Victoria	11	Noviembre	2023-08-11T00:00:00	2024-11-08T08:00:00	4	Temperatura máxima	14.1
141047	7	Sololá	701	Sololá	4	Finca Santa Victoria	11	Noviembre	2023-08-11T00:00:00	2024-11-08T08:00:00	3	Temperatura mínima	12.8
141048	7	Sololá	701	Sololá	4	Finca Santa Victoria	11	Noviembre	2023-08-11T00:00:00	2024-11-08T08:00:00	5	Humedad	86
141049	7	Sololá	701	Sololá	4	Finca Santa Victoria	11	Noviembre	2023-08-11T00:00:00	2024-11-08T08:00:00	6	Velocidad del viento	4.8
141050	7	Sololá	701	Sololá	4	Finca Santa Victoria	11	Noviembre	2023-08-11T00:00:00	2024-11-08T08:00:00	7	Dirección del viento	4.83
141051	7	Sololá	701	Sololá	4	Finca Santa Victoria	11	Noviembre	2023-08-11T00:00:00	2024-11-08T08:00:00	1	Precipitación	0
141052	7	Sololá	701	Sololá	4	Finca Santa Victoria	11	Noviembre	2023-08-11T00:00:00	2024-11-08T08:00:00	8	Radiación solar	128
141053	7	Sololá	701	Sololá	4	Finca Santa Victoria	11	Noviembre	2023-08-11T00:00:00	2024-11-08T09:00:00	2	Temperatura media	15.1
141054	7	Sololá	701	Sololá	4	Finca Santa Victoria	11	Noviembre	2023-08-11T00:00:00	2024-11-08T09:00:00	4	Temperatura máxima	15.3
141055	7	Sololá	701	Sololá	4	Finca Santa Victoria	11	Noviembre	2023-08-11T00:00:00	2024-11-08T09:00:00	3	Temperatura mínima	14.1
141056	7	Sololá	701	Sololá	4	Finca Santa Victoria	11	Noviembre	2023-08-11T00:00:00	2024-11-08T09:00:00	5	Humedad	83
141057	7	Sololá	701	Sololá	4	Finca Santa Victoria	11	Noviembre	2023-08-11T00:00:00	2024-11-08T09:00:00	6	Velocidad del viento	4.8
141058	7	Sololá	701	Sololá	4	Finca Santa Victoria	11	Noviembre	2023-08-11T00:00:00	2024-11-08T09:00:00	7	Dirección del viento	4.83
141059	7	Sololá	701	Sololá	4	Finca Santa Victoria	11	Noviembre	2023-08-11T00:00:00	2024-11-08T09:00:00	1	Precipitación	0
141060	7	Sololá	701	Sololá	4	Finca Santa Victoria	11	Noviembre	2023-08-11T00:00:00	2024-11-08T09:00:00	8	Radiación solar	293
141061	7	Sololá	701	Sololá	4	Finca Santa Victoria	11	Noviembre	2023-08-11T00:00:00	2024-11-08T10:00:00	2	Temperatura media	14.4
141062	7	Sololá	701	Sololá	4	Finca Santa Victoria	11	Noviembre	2023-08-11T00:00:00	2024-11-08T10:00:00	4	Temperatura máxima	15.1
141063	7	Sololá	701	Sololá	4	Finca Santa Victoria	11	Noviembre	2023-08-11T00:00:00	2024-11-08T10:00:00	3	Temperatura mínima	14.4
141064	7	Sololá	701	Sololá	4	Finca Santa Victoria	11	Noviembre	2023-08-11T00:00:00	2024-11-08T10:00:00	5	Humedad	86
141065	7	Sololá	701	Sololá	4	Finca Santa Victoria	11	Noviembre	2023-08-11T00:00:00	2024-11-08T10:00:00	6	Velocidad del viento	4.8
141066	7	Sololá	701	Sololá	4	Finca Santa Victoria	11	Noviembre	2023-08-11T00:00:00	2024-11-08T10:00:00	7	Dirección del viento	4.83
141067	7	Sololá	701	Sololá	4	Finca Santa Victoria	11	Noviembre	2023-08-11T00:00:00	2024-11-08T10:00:00	1	Precipitación	0
141068	7	Sololá	701	Sololá	4	Finca Santa Victoria	11	Noviembre	2023-08-11T00:00:00	2024-11-08T10:00:00	8	Radiación solar	123
141069	7	Sololá	701	Sololá	4	Finca Santa Victoria	11	Noviembre	2023-08-11T00:00:00	2024-11-08T11:00:00	2	Temperatura media	15
141070	7	Sololá	701	Sololá	4	Finca Santa Victoria	11	Noviembre	2023-08-11T00:00:00	2024-11-08T11:00:00	4	Temperatura máxima	15
141071	7	Sololá	701	Sololá	4	Finca Santa Victoria	11	Noviembre	2023-08-11T00:00:00	2024-11-08T11:00:00	3	Temperatura mínima	14.3
141072	7	Sololá	701	Sololá	4	Finca Santa Victoria	11	Noviembre	2023-08-11T00:00:00	2024-11-08T11:00:00	5	Humedad	86
141073	7	Sololá	701	Sololá	4	Finca Santa Victoria	11	Noviembre	2023-08-11T00:00:00	2024-11-08T11:00:00	6	Velocidad del viento	3.2
141074	7	Sololá	701	Sololá	4	Finca Santa Victoria	11	Noviembre	2023-08-11T00:00:00	2024-11-08T11:00:00	7	Dirección del viento	3.22
141075	7	Sololá	701	Sololá	4	Finca Santa Victoria	11	Noviembre	2023-08-11T00:00:00	2024-11-08T11:00:00	1	Precipitación	0
141076	7	Sololá	701	Sololá	4	Finca Santa Victoria	11	Noviembre	2023-08-11T00:00:00	2024-11-08T11:00:00	8	Radiación solar	131
141077	7	Sololá	701	Sololá	4	Finca Santa Victoria	11	Noviembre	2023-08-11T00:00:00	2024-11-08T12:00:00	2	Temperatura media	14.2
141078	7	Sololá	701	Sololá	4	Finca Santa Victoria	11	Noviembre	2023-08-11T00:00:00	2024-11-08T12:00:00	4	Temperatura máxima	15.7
141079	7	Sololá	701	Sololá	4	Finca Santa Victoria	11	Noviembre	2023-08-11T00:00:00	2024-11-08T12:00:00	3	Temperatura mínima	14.2
141080	7	Sololá	701	Sololá	4	Finca Santa Victoria	11	Noviembre	2023-08-11T00:00:00	2024-11-08T12:00:00	5	Humedad	89
141081	7	Sololá	701	Sololá	4	Finca Santa Victoria	11	Noviembre	2023-08-11T00:00:00	2024-11-08T12:00:00	6	Velocidad del viento	3.2
141082	7	Sololá	701	Sololá	4	Finca Santa Victoria	11	Noviembre	2023-08-11T00:00:00	2024-11-08T12:00:00	7	Dirección del viento	3.22
141083	7	Sololá	701	Sololá	4	Finca Santa Victoria	11	Noviembre	2023-08-11T00:00:00	2024-11-08T12:00:00	1	Precipitación	0
141084	7	Sololá	701	Sololá	4	Finca Santa Victoria	11	Noviembre	2023-08-11T00:00:00	2024-11-08T12:00:00	8	Radiación solar	146
141085	7	Sololá	701	Sololá	4	Finca Santa Victoria	11	Noviembre	2023-08-11T00:00:00	2024-11-08T13:00:00	2	Temperatura media	15.6
141086	7	Sololá	701	Sololá	4	Finca Santa Victoria	11	Noviembre	2023-08-11T00:00:00	2024-11-08T13:00:00	4	Temperatura máxima	15.9
141087	7	Sololá	701	Sololá	4	Finca Santa Victoria	11	Noviembre	2023-08-11T00:00:00	2024-11-08T13:00:00	3	Temperatura mínima	14.1
141088	7	Sololá	701	Sololá	4	Finca Santa Victoria	11	Noviembre	2023-08-11T00:00:00	2024-11-08T13:00:00	5	Humedad	86
141089	7	Sololá	701	Sololá	4	Finca Santa Victoria	11	Noviembre	2023-08-11T00:00:00	2024-11-08T13:00:00	6	Velocidad del viento	3.2
141090	7	Sololá	701	Sololá	4	Finca Santa Victoria	11	Noviembre	2023-08-11T00:00:00	2024-11-08T13:00:00	7	Dirección del viento	3.22
141091	7	Sololá	701	Sololá	4	Finca Santa Victoria	11	Noviembre	2023-08-11T00:00:00	2024-11-08T13:00:00	1	Precipitación	0
141092	7	Sololá	701	Sololá	4	Finca Santa Victoria	11	Noviembre	2023-08-11T00:00:00	2024-11-08T13:00:00	8	Radiación solar	166
141093	7	Sololá	701	Sololá	4	Finca Santa Victoria	11	Noviembre	2023-08-11T00:00:00	2024-11-08T14:00:00	2	Temperatura media	13.6
141094	7	Sololá	701	Sololá	4	Finca Santa Victoria	11	Noviembre	2023-08-11T00:00:00	2024-11-08T14:00:00	4	Temperatura máxima	15.6
141095	7	Sololá	701	Sololá	4	Finca Santa Victoria	11	Noviembre	2023-08-11T00:00:00	2024-11-08T14:00:00	3	Temperatura mínima	13.6
141096	7	Sololá	701	Sololá	4	Finca Santa Victoria	11	Noviembre	2023-08-11T00:00:00	2024-11-08T14:00:00	5	Humedad	90
141097	7	Sololá	701	Sololá	4	Finca Santa Victoria	11	Noviembre	2023-08-11T00:00:00	2024-11-08T14:00:00	6	Velocidad del viento	1.6
141098	7	Sololá	701	Sololá	4	Finca Santa Victoria	11	Noviembre	2023-08-11T00:00:00	2024-11-08T14:00:00	7	Dirección del viento	1.61
141099	7	Sololá	701	Sololá	4	Finca Santa Victoria	11	Noviembre	2023-08-11T00:00:00	2024-11-08T14:00:00	1	Precipitación	0.4
141100	7	Sololá	701	Sololá	4	Finca Santa Victoria	11	Noviembre	2023-08-11T00:00:00	2024-11-08T14:00:00	8	Radiación solar	104
141101	7	Sololá	701	Sololá	4	Finca Santa Victoria	11	Noviembre	2023-08-11T00:00:00	2024-11-08T15:00:00	2	Temperatura media	14.7
141102	7	Sololá	701	Sololá	4	Finca Santa Victoria	11	Noviembre	2023-08-11T00:00:00	2024-11-08T15:00:00	4	Temperatura máxima	15.2
141103	7	Sololá	701	Sololá	4	Finca Santa Victoria	11	Noviembre	2023-08-11T00:00:00	2024-11-08T15:00:00	3	Temperatura mínima	13.4
141104	7	Sololá	701	Sololá	4	Finca Santa Victoria	11	Noviembre	2023-08-11T00:00:00	2024-11-08T15:00:00	5	Humedad	85
141105	7	Sololá	701	Sololá	4	Finca Santa Victoria	11	Noviembre	2023-08-11T00:00:00	2024-11-08T15:00:00	6	Velocidad del viento	3.2
141106	7	Sololá	701	Sololá	4	Finca Santa Victoria	11	Noviembre	2023-08-11T00:00:00	2024-11-08T15:00:00	7	Dirección del viento	3.22
141107	7	Sololá	701	Sololá	4	Finca Santa Victoria	11	Noviembre	2023-08-11T00:00:00	2024-11-08T15:00:00	1	Precipitación	0
141108	7	Sololá	701	Sololá	4	Finca Santa Victoria	11	Noviembre	2023-08-11T00:00:00	2024-11-08T15:00:00	8	Radiación solar	121
141109	7	Sololá	701	Sololá	4	Finca Santa Victoria	11	Noviembre	2023-08-11T00:00:00	2024-11-08T16:00:00	2	Temperatura media	14.9
141110	7	Sololá	701	Sololá	4	Finca Santa Victoria	11	Noviembre	2023-08-11T00:00:00	2024-11-08T16:00:00	4	Temperatura máxima	15.1
141111	7	Sololá	701	Sololá	4	Finca Santa Victoria	11	Noviembre	2023-08-11T00:00:00	2024-11-08T16:00:00	3	Temperatura mínima	14.6
141112	7	Sololá	701	Sololá	4	Finca Santa Victoria	11	Noviembre	2023-08-11T00:00:00	2024-11-08T16:00:00	5	Humedad	85
141113	7	Sololá	701	Sololá	4	Finca Santa Victoria	11	Noviembre	2023-08-11T00:00:00	2024-11-08T16:00:00	6	Velocidad del viento	1.6
141114	7	Sololá	701	Sololá	4	Finca Santa Victoria	11	Noviembre	2023-08-11T00:00:00	2024-11-08T16:00:00	7	Dirección del viento	1.61
141115	7	Sololá	701	Sololá	4	Finca Santa Victoria	11	Noviembre	2023-08-11T00:00:00	2024-11-08T16:00:00	1	Precipitación	0
141116	7	Sololá	701	Sololá	4	Finca Santa Victoria	11	Noviembre	2023-08-11T00:00:00	2024-11-08T16:00:00	8	Radiación solar	96
141117	7	Sololá	701	Sololá	4	Finca Santa Victoria	11	Noviembre	2023-08-11T00:00:00	2024-11-08T17:00:00	2	Temperatura media	13.7
141118	7	Sololá	701	Sololá	4	Finca Santa Victoria	11	Noviembre	2023-08-11T00:00:00	2024-11-08T17:00:00	4	Temperatura máxima	14.9
141119	7	Sololá	701	Sololá	4	Finca Santa Victoria	11	Noviembre	2023-08-11T00:00:00	2024-11-08T17:00:00	3	Temperatura mínima	13.7
141120	7	Sololá	701	Sololá	4	Finca Santa Victoria	11	Noviembre	2023-08-11T00:00:00	2024-11-08T17:00:00	5	Humedad	88
141121	7	Sololá	701	Sololá	4	Finca Santa Victoria	11	Noviembre	2023-08-11T00:00:00	2024-11-08T17:00:00	6	Velocidad del viento	1.6
141122	7	Sololá	701	Sololá	4	Finca Santa Victoria	11	Noviembre	2023-08-11T00:00:00	2024-11-08T17:00:00	7	Dirección del viento	1.61
141123	7	Sololá	701	Sololá	4	Finca Santa Victoria	11	Noviembre	2023-08-11T00:00:00	2024-11-08T17:00:00	1	Precipitación	0
141124	7	Sololá	701	Sololá	4	Finca Santa Victoria	11	Noviembre	2023-08-11T00:00:00	2024-11-08T17:00:00	8	Radiación solar	50
141125	7	Sololá	701	Sololá	4	Finca Santa Victoria	11	Noviembre	2023-08-11T00:00:00	2024-11-08T18:00:00	2	Temperatura media	12.6
141126	7	Sololá	701	Sololá	4	Finca Santa Victoria	11	Noviembre	2023-08-11T00:00:00	2024-11-08T18:00:00	4	Temperatura máxima	13.7
141127	7	Sololá	701	Sololá	4	Finca Santa Victoria	11	Noviembre	2023-08-11T00:00:00	2024-11-08T18:00:00	3	Temperatura mínima	12.6
141128	7	Sololá	701	Sololá	4	Finca Santa Victoria	11	Noviembre	2023-08-11T00:00:00	2024-11-08T18:00:00	5	Humedad	90
141129	7	Sololá	701	Sololá	4	Finca Santa Victoria	11	Noviembre	2023-08-11T00:00:00	2024-11-08T18:00:00	6	Velocidad del viento	1.6
141130	7	Sololá	701	Sololá	4	Finca Santa Victoria	11	Noviembre	2023-08-11T00:00:00	2024-11-08T18:00:00	7	Dirección del viento	1.61
141131	7	Sololá	701	Sololá	4	Finca Santa Victoria	11	Noviembre	2023-08-11T00:00:00	2024-11-08T18:00:00	1	Precipitación	0
141132	7	Sololá	701	Sololá	4	Finca Santa Victoria	11	Noviembre	2023-08-11T00:00:00	2024-11-08T18:00:00	8	Radiación solar	1
141133	7	Sololá	701	Sololá	4	Finca Santa Victoria	11	Noviembre	2023-08-11T00:00:00	2024-11-08T19:00:00	2	Temperatura media	12.3
141134	7	Sololá	701	Sololá	4	Finca Santa Victoria	11	Noviembre	2023-08-11T00:00:00	2024-11-08T19:00:00	4	Temperatura máxima	12.6
141135	7	Sololá	701	Sololá	4	Finca Santa Victoria	11	Noviembre	2023-08-11T00:00:00	2024-11-08T19:00:00	3	Temperatura mínima	12.3
141136	7	Sololá	701	Sololá	4	Finca Santa Victoria	11	Noviembre	2023-08-11T00:00:00	2024-11-08T19:00:00	5	Humedad	89
141137	7	Sololá	701	Sololá	4	Finca Santa Victoria	11	Noviembre	2023-08-11T00:00:00	2024-11-08T19:00:00	6	Velocidad del viento	3.2
141138	7	Sololá	701	Sololá	4	Finca Santa Victoria	11	Noviembre	2023-08-11T00:00:00	2024-11-08T19:00:00	7	Dirección del viento	3.22
141139	7	Sololá	701	Sololá	4	Finca Santa Victoria	11	Noviembre	2023-08-11T00:00:00	2024-11-08T19:00:00	1	Precipitación	0
141140	7	Sololá	701	Sololá	4	Finca Santa Victoria	11	Noviembre	2023-08-11T00:00:00	2024-11-08T19:00:00	8	Radiación solar	0
141141	7	Sololá	701	Sololá	4	Finca Santa Victoria	11	Noviembre	2023-08-11T00:00:00	2024-11-08T20:00:00	2	Temperatura media	12.1
141142	7	Sololá	701	Sololá	4	Finca Santa Victoria	11	Noviembre	2023-08-11T00:00:00	2024-11-08T20:00:00	4	Temperatura máxima	12.3
141143	7	Sololá	701	Sololá	4	Finca Santa Victoria	11	Noviembre	2023-08-11T00:00:00	2024-11-08T20:00:00	3	Temperatura mínima	12.1
141144	7	Sololá	701	Sololá	4	Finca Santa Victoria	11	Noviembre	2023-08-11T00:00:00	2024-11-08T20:00:00	5	Humedad	90
141145	7	Sololá	701	Sololá	4	Finca Santa Victoria	11	Noviembre	2023-08-11T00:00:00	2024-11-08T20:00:00	6	Velocidad del viento	3.2
141146	7	Sololá	701	Sololá	4	Finca Santa Victoria	11	Noviembre	2023-08-11T00:00:00	2024-11-08T20:00:00	7	Dirección del viento	3.22
141147	7	Sololá	701	Sololá	4	Finca Santa Victoria	11	Noviembre	2023-08-11T00:00:00	2024-11-08T20:00:00	1	Precipitación	0
141148	7	Sololá	701	Sololá	4	Finca Santa Victoria	11	Noviembre	2023-08-11T00:00:00	2024-11-08T20:00:00	8	Radiación solar	0
141149	7	Sololá	701	Sololá	4	Finca Santa Victoria	11	Noviembre	2023-08-11T00:00:00	2024-11-08T21:00:00	2	Temperatura media	12.3
141150	7	Sololá	701	Sololá	4	Finca Santa Victoria	11	Noviembre	2023-08-11T00:00:00	2024-11-08T21:00:00	4	Temperatura máxima	12.3
141151	7	Sololá	701	Sololá	4	Finca Santa Victoria	11	Noviembre	2023-08-11T00:00:00	2024-11-08T21:00:00	3	Temperatura mínima	12.1
141152	7	Sololá	701	Sololá	4	Finca Santa Victoria	11	Noviembre	2023-08-11T00:00:00	2024-11-08T21:00:00	5	Humedad	90
141153	7	Sololá	701	Sololá	4	Finca Santa Victoria	11	Noviembre	2023-08-11T00:00:00	2024-11-08T21:00:00	6	Velocidad del viento	3.2
141154	7	Sololá	701	Sololá	4	Finca Santa Victoria	11	Noviembre	2023-08-11T00:00:00	2024-11-08T21:00:00	7	Dirección del viento	3.22
141155	7	Sololá	701	Sololá	4	Finca Santa Victoria	11	Noviembre	2023-08-11T00:00:00	2024-11-08T21:00:00	1	Precipitación	0
141156	7	Sololá	701	Sololá	4	Finca Santa Victoria	11	Noviembre	2023-08-11T00:00:00	2024-11-08T21:00:00	8	Radiación solar	0
141157	7	Sololá	701	Sololá	4	Finca Santa Victoria	11	Noviembre	2023-08-11T00:00:00	2024-11-08T22:00:00	2	Temperatura media	11.9
141158	7	Sololá	701	Sololá	4	Finca Santa Victoria	11	Noviembre	2023-08-11T00:00:00	2024-11-08T22:00:00	4	Temperatura máxima	12.3
141159	7	Sololá	701	Sololá	4	Finca Santa Victoria	11	Noviembre	2023-08-11T00:00:00	2024-11-08T22:00:00	3	Temperatura mínima	11.9
141160	7	Sololá	701	Sololá	4	Finca Santa Victoria	11	Noviembre	2023-08-11T00:00:00	2024-11-08T22:00:00	5	Humedad	91
141161	7	Sololá	701	Sololá	4	Finca Santa Victoria	11	Noviembre	2023-08-11T00:00:00	2024-11-08T22:00:00	6	Velocidad del viento	3.2
141162	7	Sololá	701	Sololá	4	Finca Santa Victoria	11	Noviembre	2023-08-11T00:00:00	2024-11-08T22:00:00	7	Dirección del viento	3.22
141163	7	Sololá	701	Sololá	4	Finca Santa Victoria	11	Noviembre	2023-08-11T00:00:00	2024-11-08T22:00:00	1	Precipitación	0.2
141164	7	Sololá	701	Sololá	4	Finca Santa Victoria	11	Noviembre	2023-08-11T00:00:00	2024-11-08T22:00:00	8	Radiación solar	0
141165	7	Sololá	701	Sololá	4	Finca Santa Victoria	11	Noviembre	2023-08-11T00:00:00	2024-11-08T23:00:00	2	Temperatura media	11.9
141166	7	Sololá	701	Sololá	4	Finca Santa Victoria	11	Noviembre	2023-08-11T00:00:00	2024-11-08T23:00:00	4	Temperatura máxima	11.9
141167	7	Sololá	701	Sololá	4	Finca Santa Victoria	11	Noviembre	2023-08-11T00:00:00	2024-11-08T23:00:00	3	Temperatura mínima	11.7
141168	7	Sololá	701	Sololá	4	Finca Santa Victoria	11	Noviembre	2023-08-11T00:00:00	2024-11-08T23:00:00	5	Humedad	91
141169	7	Sololá	701	Sololá	4	Finca Santa Victoria	11	Noviembre	2023-08-11T00:00:00	2024-11-08T23:00:00	6	Velocidad del viento	1.6
141170	7	Sololá	701	Sololá	4	Finca Santa Victoria	11	Noviembre	2023-08-11T00:00:00	2024-11-08T23:00:00	7	Dirección del viento	1.61
141171	7	Sololá	701	Sololá	4	Finca Santa Victoria	11	Noviembre	2023-08-11T00:00:00	2024-11-08T23:00:00	1	Precipitación	0
141172	7	Sololá	701	Sololá	4	Finca Santa Victoria	11	Noviembre	2023-08-11T00:00:00	2024-11-08T23:00:00	8	Radiación solar	0
141173	7	Sololá	701	Sololá	4	Finca Santa Victoria	11	Noviembre	2023-09-11T00:00:00	2024-11-08T00:00:00	2	Temperatura media	11.8
141174	7	Sololá	701	Sololá	4	Finca Santa Victoria	11	Noviembre	2023-09-11T00:00:00	2024-11-08T00:00:00	4	Temperatura máxima	11.9
141175	7	Sololá	701	Sololá	4	Finca Santa Victoria	11	Noviembre	2023-09-11T00:00:00	2024-11-08T00:00:00	3	Temperatura mínima	11.8
141176	7	Sololá	701	Sololá	4	Finca Santa Victoria	11	Noviembre	2023-09-11T00:00:00	2024-11-08T00:00:00	5	Humedad	91
141177	7	Sololá	701	Sololá	4	Finca Santa Victoria	11	Noviembre	2023-09-11T00:00:00	2024-11-08T00:00:00	6	Velocidad del viento	3.2
141178	7	Sololá	701	Sololá	4	Finca Santa Victoria	11	Noviembre	2023-09-11T00:00:00	2024-11-08T00:00:00	7	Dirección del viento	3.22
141179	7	Sololá	701	Sololá	4	Finca Santa Victoria	11	Noviembre	2023-09-11T00:00:00	2024-11-08T00:00:00	1	Precipitación	0
141180	7	Sololá	701	Sololá	4	Finca Santa Victoria	11	Noviembre	2023-09-11T00:00:00	2024-11-08T00:00:00	8	Radiación solar	0
141181	7	Sololá	701	Sololá	4	Finca Santa Victoria	11	Noviembre	2023-09-11T00:00:00	2024-11-08T01:00:00	2	Temperatura media	11.6
141182	7	Sololá	701	Sololá	4	Finca Santa Victoria	11	Noviembre	2023-09-11T00:00:00	2024-11-08T01:00:00	4	Temperatura máxima	11.8
141183	7	Sololá	701	Sololá	4	Finca Santa Victoria	11	Noviembre	2023-09-11T00:00:00	2024-11-08T01:00:00	3	Temperatura mínima	11.6
141184	7	Sololá	701	Sololá	4	Finca Santa Victoria	11	Noviembre	2023-09-11T00:00:00	2024-11-08T01:00:00	5	Humedad	91
141185	7	Sololá	701	Sololá	4	Finca Santa Victoria	11	Noviembre	2023-09-11T00:00:00	2024-11-08T01:00:00	6	Velocidad del viento	3.2
141186	7	Sololá	701	Sololá	4	Finca Santa Victoria	11	Noviembre	2023-09-11T00:00:00	2024-11-08T01:00:00	7	Dirección del viento	3.22
141187	7	Sololá	701	Sololá	4	Finca Santa Victoria	11	Noviembre	2023-09-11T00:00:00	2024-11-08T01:00:00	1	Precipitación	0.2
141188	7	Sololá	701	Sololá	4	Finca Santa Victoria	11	Noviembre	2023-09-11T00:00:00	2024-11-08T01:00:00	8	Radiación solar	0
141189	7	Sololá	701	Sololá	4	Finca Santa Victoria	11	Noviembre	2023-09-11T00:00:00	2024-11-08T02:00:00	2	Temperatura media	11.6
141190	7	Sololá	701	Sololá	4	Finca Santa Victoria	11	Noviembre	2023-09-11T00:00:00	2024-11-08T02:00:00	4	Temperatura máxima	11.6
141191	7	Sololá	701	Sololá	4	Finca Santa Victoria	11	Noviembre	2023-09-11T00:00:00	2024-11-08T02:00:00	3	Temperatura mínima	11.6
141192	7	Sololá	701	Sololá	4	Finca Santa Victoria	11	Noviembre	2023-09-11T00:00:00	2024-11-08T02:00:00	5	Humedad	90
141193	7	Sololá	701	Sololá	4	Finca Santa Victoria	11	Noviembre	2023-09-11T00:00:00	2024-11-08T02:00:00	6	Velocidad del viento	3.2
141194	7	Sololá	701	Sololá	4	Finca Santa Victoria	11	Noviembre	2023-09-11T00:00:00	2024-11-08T02:00:00	7	Dirección del viento	3.22
141195	7	Sololá	701	Sololá	4	Finca Santa Victoria	11	Noviembre	2023-09-11T00:00:00	2024-11-08T02:00:00	1	Precipitación	0.2
141196	7	Sololá	701	Sololá	4	Finca Santa Victoria	11	Noviembre	2023-09-11T00:00:00	2024-11-08T02:00:00	8	Radiación solar	0
141197	7	Sololá	701	Sololá	4	Finca Santa Victoria	11	Noviembre	2023-09-11T00:00:00	2024-11-08T03:00:00	2	Temperatura media	11.4
141198	7	Sololá	701	Sololá	4	Finca Santa Victoria	11	Noviembre	2023-09-11T00:00:00	2024-11-08T03:00:00	4	Temperatura máxima	11.6
141199	7	Sololá	701	Sololá	4	Finca Santa Victoria	11	Noviembre	2023-09-11T00:00:00	2024-11-08T03:00:00	3	Temperatura mínima	11.4
141200	7	Sololá	701	Sololá	4	Finca Santa Victoria	11	Noviembre	2023-09-11T00:00:00	2024-11-08T03:00:00	5	Humedad	91
141201	7	Sololá	701	Sololá	4	Finca Santa Victoria	11	Noviembre	2023-09-11T00:00:00	2024-11-08T03:00:00	6	Velocidad del viento	3.2
141202	7	Sololá	701	Sololá	4	Finca Santa Victoria	11	Noviembre	2023-09-11T00:00:00	2024-11-08T03:00:00	7	Dirección del viento	3.22
141203	7	Sololá	701	Sololá	4	Finca Santa Victoria	11	Noviembre	2023-09-11T00:00:00	2024-11-08T03:00:00	1	Precipitación	0
141204	7	Sololá	701	Sololá	4	Finca Santa Victoria	11	Noviembre	2023-09-11T00:00:00	2024-11-08T03:00:00	8	Radiación solar	0
141205	7	Sololá	701	Sololá	4	Finca Santa Victoria	11	Noviembre	2023-09-11T00:00:00	2024-11-08T04:00:00	2	Temperatura media	11.6
141206	7	Sololá	701	Sololá	4	Finca Santa Victoria	11	Noviembre	2023-09-11T00:00:00	2024-11-08T04:00:00	4	Temperatura máxima	11.6
141207	7	Sololá	701	Sololá	4	Finca Santa Victoria	11	Noviembre	2023-09-11T00:00:00	2024-11-08T04:00:00	3	Temperatura mínima	11.4
141208	7	Sololá	701	Sololá	4	Finca Santa Victoria	11	Noviembre	2023-09-11T00:00:00	2024-11-08T04:00:00	5	Humedad	90
141209	7	Sololá	701	Sololá	4	Finca Santa Victoria	11	Noviembre	2023-09-11T00:00:00	2024-11-08T04:00:00	6	Velocidad del viento	3.2
141210	7	Sololá	701	Sololá	4	Finca Santa Victoria	11	Noviembre	2023-09-11T00:00:00	2024-11-08T04:00:00	7	Dirección del viento	3.22
141211	7	Sololá	701	Sololá	4	Finca Santa Victoria	11	Noviembre	2023-09-11T00:00:00	2024-11-08T04:00:00	1	Precipitación	0.2
141212	7	Sololá	701	Sololá	4	Finca Santa Victoria	11	Noviembre	2023-09-11T00:00:00	2024-11-08T04:00:00	8	Radiación solar	0
141213	7	Sololá	701	Sololá	4	Finca Santa Victoria	11	Noviembre	2023-09-11T00:00:00	2024-11-08T05:00:00	2	Temperatura media	11.4
141214	7	Sololá	701	Sololá	4	Finca Santa Victoria	11	Noviembre	2023-09-11T00:00:00	2024-11-08T05:00:00	4	Temperatura máxima	11.6
141215	7	Sololá	701	Sololá	4	Finca Santa Victoria	11	Noviembre	2023-09-11T00:00:00	2024-11-08T05:00:00	3	Temperatura mínima	11.4
141216	7	Sololá	701	Sololá	4	Finca Santa Victoria	11	Noviembre	2023-09-11T00:00:00	2024-11-08T05:00:00	5	Humedad	91
141217	7	Sololá	701	Sololá	4	Finca Santa Victoria	11	Noviembre	2023-09-11T00:00:00	2024-11-08T05:00:00	6	Velocidad del viento	3.2
141218	7	Sololá	701	Sololá	4	Finca Santa Victoria	11	Noviembre	2023-09-11T00:00:00	2024-11-08T05:00:00	7	Dirección del viento	3.22
141219	7	Sololá	701	Sololá	4	Finca Santa Victoria	11	Noviembre	2023-09-11T00:00:00	2024-11-08T05:00:00	1	Precipitación	0
141220	7	Sololá	701	Sololá	4	Finca Santa Victoria	11	Noviembre	2023-09-11T00:00:00	2024-11-08T05:00:00	8	Radiación solar	0
141221	7	Sololá	701	Sololá	4	Finca Santa Victoria	11	Noviembre	2023-09-11T00:00:00	2024-11-08T06:00:00	2	Temperatura media	11.5
141222	7	Sololá	701	Sololá	4	Finca Santa Victoria	11	Noviembre	2023-09-11T00:00:00	2024-11-08T06:00:00	4	Temperatura máxima	11.5
141223	7	Sololá	701	Sololá	4	Finca Santa Victoria	11	Noviembre	2023-09-11T00:00:00	2024-11-08T06:00:00	3	Temperatura mínima	11.4
141224	7	Sololá	701	Sololá	4	Finca Santa Victoria	11	Noviembre	2023-09-11T00:00:00	2024-11-08T06:00:00	5	Humedad	90
141225	7	Sololá	701	Sololá	4	Finca Santa Victoria	11	Noviembre	2023-09-11T00:00:00	2024-11-08T06:00:00	6	Velocidad del viento	3.2
141226	7	Sololá	701	Sololá	4	Finca Santa Victoria	11	Noviembre	2023-09-11T00:00:00	2024-11-08T06:00:00	7	Dirección del viento	3.22
141227	7	Sololá	701	Sololá	4	Finca Santa Victoria	11	Noviembre	2023-09-11T00:00:00	2024-11-08T06:00:00	1	Precipitación	0
141228	7	Sololá	701	Sololá	4	Finca Santa Victoria	11	Noviembre	2023-09-11T00:00:00	2024-11-08T06:00:00	8	Radiación solar	0
141229	7	Sololá	701	Sololá	4	Finca Santa Victoria	11	Noviembre	2023-09-11T00:00:00	2024-11-08T07:00:00	2	Temperatura media	11.6
141230	7	Sololá	701	Sololá	4	Finca Santa Victoria	11	Noviembre	2023-09-11T00:00:00	2024-11-08T07:00:00	4	Temperatura máxima	11.6
141231	7	Sololá	701	Sololá	4	Finca Santa Victoria	11	Noviembre	2023-09-11T00:00:00	2024-11-08T07:00:00	3	Temperatura mínima	11.3
141232	7	Sololá	701	Sololá	4	Finca Santa Victoria	11	Noviembre	2023-09-11T00:00:00	2024-11-08T07:00:00	5	Humedad	90
141233	7	Sololá	701	Sololá	4	Finca Santa Victoria	11	Noviembre	2023-09-11T00:00:00	2024-11-08T07:00:00	6	Velocidad del viento	3.2
141234	7	Sololá	701	Sololá	4	Finca Santa Victoria	11	Noviembre	2023-09-11T00:00:00	2024-11-08T07:00:00	7	Dirección del viento	3.22
141235	7	Sololá	701	Sololá	4	Finca Santa Victoria	11	Noviembre	2023-09-11T00:00:00	2024-11-08T07:00:00	1	Precipitación	0
141236	7	Sololá	701	Sololá	4	Finca Santa Victoria	11	Noviembre	2023-09-11T00:00:00	2024-11-08T07:00:00	8	Radiación solar	7
141237	7	Sololá	701	Sololá	4	Finca Santa Victoria	11	Noviembre	2023-09-11T00:00:00	2024-11-08T08:00:00	2	Temperatura media	12.7
141238	7	Sololá	701	Sololá	4	Finca Santa Victoria	11	Noviembre	2023-09-11T00:00:00	2024-11-08T08:00:00	4	Temperatura máxima	12.8
141239	7	Sololá	701	Sololá	4	Finca Santa Victoria	11	Noviembre	2023-09-11T00:00:00	2024-11-08T08:00:00	3	Temperatura mínima	11.6
141240	7	Sololá	701	Sololá	4	Finca Santa Victoria	11	Noviembre	2023-09-11T00:00:00	2024-11-08T08:00:00	5	Humedad	86
141241	7	Sololá	701	Sololá	4	Finca Santa Victoria	11	Noviembre	2023-09-11T00:00:00	2024-11-08T08:00:00	6	Velocidad del viento	3.2
141242	7	Sololá	701	Sololá	4	Finca Santa Victoria	11	Noviembre	2023-09-11T00:00:00	2024-11-08T08:00:00	7	Dirección del viento	3.22
141243	7	Sololá	701	Sololá	4	Finca Santa Victoria	11	Noviembre	2023-09-11T00:00:00	2024-11-08T08:00:00	1	Precipitación	0
141244	7	Sololá	701	Sololá	4	Finca Santa Victoria	11	Noviembre	2023-09-11T00:00:00	2024-11-08T08:00:00	8	Radiación solar	100
141245	7	Sololá	701	Sololá	4	Finca Santa Victoria	11	Noviembre	2023-09-11T00:00:00	2024-11-08T09:00:00	2	Temperatura media	14.5
141246	7	Sololá	701	Sololá	4	Finca Santa Victoria	11	Noviembre	2023-09-11T00:00:00	2024-11-08T09:00:00	4	Temperatura máxima	14.7
141247	7	Sololá	701	Sololá	4	Finca Santa Victoria	11	Noviembre	2023-09-11T00:00:00	2024-11-08T09:00:00	3	Temperatura mínima	12.7
141248	7	Sololá	701	Sololá	4	Finca Santa Victoria	11	Noviembre	2023-09-11T00:00:00	2024-11-08T09:00:00	5	Humedad	84
141249	7	Sololá	701	Sololá	4	Finca Santa Victoria	11	Noviembre	2023-09-11T00:00:00	2024-11-08T09:00:00	6	Velocidad del viento	4.8
141250	7	Sololá	701	Sololá	4	Finca Santa Victoria	11	Noviembre	2023-09-11T00:00:00	2024-11-08T09:00:00	7	Dirección del viento	4.83
141251	7	Sololá	701	Sololá	4	Finca Santa Victoria	11	Noviembre	2023-09-11T00:00:00	2024-11-08T09:00:00	1	Precipitación	0
141252	7	Sololá	701	Sololá	4	Finca Santa Victoria	11	Noviembre	2023-09-11T00:00:00	2024-11-08T09:00:00	8	Radiación solar	274
141253	7	Sololá	701	Sololá	4	Finca Santa Victoria	11	Noviembre	2023-09-11T00:00:00	2024-11-08T10:00:00	2	Temperatura media	14.5
141254	7	Sololá	701	Sololá	4	Finca Santa Victoria	11	Noviembre	2023-09-11T00:00:00	2024-11-08T10:00:00	4	Temperatura máxima	14.5
141255	7	Sololá	701	Sololá	4	Finca Santa Victoria	11	Noviembre	2023-09-11T00:00:00	2024-11-08T10:00:00	3	Temperatura mínima	14.1
141256	7	Sololá	701	Sololá	4	Finca Santa Victoria	11	Noviembre	2023-09-11T00:00:00	2024-11-08T10:00:00	5	Humedad	85
141257	7	Sololá	701	Sololá	4	Finca Santa Victoria	11	Noviembre	2023-09-11T00:00:00	2024-11-08T10:00:00	6	Velocidad del viento	4.8
141258	7	Sololá	701	Sololá	4	Finca Santa Victoria	11	Noviembre	2023-09-11T00:00:00	2024-11-08T10:00:00	7	Dirección del viento	4.83
141259	7	Sololá	701	Sololá	4	Finca Santa Victoria	11	Noviembre	2023-09-11T00:00:00	2024-11-08T10:00:00	1	Precipitación	0
141260	7	Sololá	701	Sololá	4	Finca Santa Victoria	11	Noviembre	2023-09-11T00:00:00	2024-11-08T10:00:00	8	Radiación solar	184
141261	7	Sololá	701	Sololá	4	Finca Santa Victoria	11	Noviembre	2023-09-11T00:00:00	2024-11-08T11:00:00	2	Temperatura media	15.4
141262	7	Sololá	701	Sololá	4	Finca Santa Victoria	11	Noviembre	2023-09-11T00:00:00	2024-11-08T11:00:00	4	Temperatura máxima	15.9
141263	7	Sololá	701	Sololá	4	Finca Santa Victoria	11	Noviembre	2023-09-11T00:00:00	2024-11-08T11:00:00	3	Temperatura mínima	14.1
141264	7	Sololá	701	Sololá	4	Finca Santa Victoria	11	Noviembre	2023-09-11T00:00:00	2024-11-08T11:00:00	5	Humedad	82
141265	7	Sololá	701	Sololá	4	Finca Santa Victoria	11	Noviembre	2023-09-11T00:00:00	2024-11-08T11:00:00	6	Velocidad del viento	4.8
141266	7	Sololá	701	Sololá	4	Finca Santa Victoria	11	Noviembre	2023-09-11T00:00:00	2024-11-08T11:00:00	7	Dirección del viento	4.83
141267	7	Sololá	701	Sololá	4	Finca Santa Victoria	11	Noviembre	2023-09-11T00:00:00	2024-11-08T11:00:00	1	Precipitación	0
141268	7	Sololá	701	Sololá	4	Finca Santa Victoria	11	Noviembre	2023-09-11T00:00:00	2024-11-08T11:00:00	8	Radiación solar	183
141269	7	Sololá	701	Sololá	4	Finca Santa Victoria	11	Noviembre	2023-09-11T00:00:00	2024-11-08T12:00:00	2	Temperatura media	14.6
141270	7	Sololá	701	Sololá	4	Finca Santa Victoria	11	Noviembre	2023-09-11T00:00:00	2024-11-08T12:00:00	4	Temperatura máxima	15.4
141271	7	Sololá	701	Sololá	4	Finca Santa Victoria	11	Noviembre	2023-09-11T00:00:00	2024-11-08T12:00:00	3	Temperatura mínima	14.4
141272	7	Sololá	701	Sololá	4	Finca Santa Victoria	11	Noviembre	2023-09-11T00:00:00	2024-11-08T12:00:00	5	Humedad	86
141273	7	Sololá	701	Sololá	4	Finca Santa Victoria	11	Noviembre	2023-09-11T00:00:00	2024-11-08T12:00:00	6	Velocidad del viento	3.2
141274	7	Sololá	701	Sololá	4	Finca Santa Victoria	11	Noviembre	2023-09-11T00:00:00	2024-11-08T12:00:00	7	Dirección del viento	3.22
141275	7	Sololá	701	Sololá	4	Finca Santa Victoria	11	Noviembre	2023-09-11T00:00:00	2024-11-08T12:00:00	1	Precipitación	0
141276	7	Sololá	701	Sololá	4	Finca Santa Victoria	11	Noviembre	2023-09-11T00:00:00	2024-11-08T12:00:00	8	Radiación solar	71
141277	7	Sololá	701	Sololá	4	Finca Santa Victoria	11	Noviembre	2023-09-11T00:00:00	2024-11-08T13:00:00	2	Temperatura media	16.3
141278	7	Sololá	701	Sololá	4	Finca Santa Victoria	11	Noviembre	2023-09-11T00:00:00	2024-11-08T13:00:00	4	Temperatura máxima	16.3
141279	7	Sololá	701	Sololá	4	Finca Santa Victoria	11	Noviembre	2023-09-11T00:00:00	2024-11-08T13:00:00	3	Temperatura mínima	14.6
141280	7	Sololá	701	Sololá	4	Finca Santa Victoria	11	Noviembre	2023-09-11T00:00:00	2024-11-08T13:00:00	5	Humedad	83
141281	7	Sololá	701	Sololá	4	Finca Santa Victoria	11	Noviembre	2023-09-11T00:00:00	2024-11-08T13:00:00	6	Velocidad del viento	3.2
141282	7	Sololá	701	Sololá	4	Finca Santa Victoria	11	Noviembre	2023-09-11T00:00:00	2024-11-08T13:00:00	7	Dirección del viento	3.22
141283	7	Sololá	701	Sololá	4	Finca Santa Victoria	11	Noviembre	2023-09-11T00:00:00	2024-11-08T13:00:00	1	Precipitación	0
141284	7	Sololá	701	Sololá	4	Finca Santa Victoria	11	Noviembre	2023-09-11T00:00:00	2024-11-08T13:00:00	8	Radiación solar	146
141285	7	Sololá	701	Sololá	4	Finca Santa Victoria	11	Noviembre	2023-09-11T00:00:00	2024-11-08T14:00:00	2	Temperatura media	16.7
141286	7	Sololá	701	Sololá	4	Finca Santa Victoria	11	Noviembre	2023-09-11T00:00:00	2024-11-08T14:00:00	4	Temperatura máxima	17.1
141287	7	Sololá	701	Sololá	4	Finca Santa Victoria	11	Noviembre	2023-09-11T00:00:00	2024-11-08T14:00:00	3	Temperatura mínima	16.2
141288	7	Sololá	701	Sololá	4	Finca Santa Victoria	11	Noviembre	2023-09-11T00:00:00	2024-11-08T14:00:00	5	Humedad	79
141289	7	Sololá	701	Sololá	4	Finca Santa Victoria	11	Noviembre	2023-09-11T00:00:00	2024-11-08T14:00:00	6	Velocidad del viento	4.8
141290	7	Sololá	701	Sololá	4	Finca Santa Victoria	11	Noviembre	2023-09-11T00:00:00	2024-11-08T14:00:00	7	Dirección del viento	4.83
141291	7	Sololá	701	Sololá	4	Finca Santa Victoria	11	Noviembre	2023-09-11T00:00:00	2024-11-08T14:00:00	1	Precipitación	0
141292	7	Sololá	701	Sololá	4	Finca Santa Victoria	11	Noviembre	2023-09-11T00:00:00	2024-11-08T14:00:00	8	Radiación solar	131
141293	7	Sololá	701	Sololá	4	Finca Santa Victoria	11	Noviembre	2023-09-11T00:00:00	2024-11-08T15:00:00	2	Temperatura media	16
141294	7	Sololá	701	Sololá	4	Finca Santa Victoria	11	Noviembre	2023-09-11T00:00:00	2024-11-08T15:00:00	4	Temperatura máxima	16.7
141295	7	Sololá	701	Sololá	4	Finca Santa Victoria	11	Noviembre	2023-09-11T00:00:00	2024-11-08T15:00:00	3	Temperatura mínima	15.9
141296	7	Sololá	701	Sololá	4	Finca Santa Victoria	11	Noviembre	2023-09-11T00:00:00	2024-11-08T15:00:00	5	Humedad	80
141297	7	Sololá	701	Sololá	4	Finca Santa Victoria	11	Noviembre	2023-09-11T00:00:00	2024-11-08T15:00:00	6	Velocidad del viento	3.2
141298	7	Sololá	701	Sololá	4	Finca Santa Victoria	11	Noviembre	2023-09-11T00:00:00	2024-11-08T15:00:00	7	Dirección del viento	3.22
141299	7	Sololá	701	Sololá	4	Finca Santa Victoria	11	Noviembre	2023-09-11T00:00:00	2024-11-08T15:00:00	1	Precipitación	0
141300	7	Sololá	701	Sololá	4	Finca Santa Victoria	11	Noviembre	2023-09-11T00:00:00	2024-11-08T15:00:00	8	Radiación solar	86
141301	7	Sololá	701	Sololá	4	Finca Santa Victoria	11	Noviembre	2023-09-11T00:00:00	2024-11-08T16:00:00	2	Temperatura media	15.2
141302	7	Sololá	701	Sololá	4	Finca Santa Victoria	11	Noviembre	2023-09-11T00:00:00	2024-11-08T16:00:00	4	Temperatura máxima	16
141303	7	Sololá	701	Sololá	4	Finca Santa Victoria	11	Noviembre	2023-09-11T00:00:00	2024-11-08T16:00:00	3	Temperatura mínima	15.2
141304	7	Sololá	701	Sololá	4	Finca Santa Victoria	11	Noviembre	2023-09-11T00:00:00	2024-11-08T16:00:00	5	Humedad	83
141305	7	Sololá	701	Sololá	4	Finca Santa Victoria	11	Noviembre	2023-09-11T00:00:00	2024-11-08T16:00:00	6	Velocidad del viento	4.8
141306	7	Sololá	701	Sololá	4	Finca Santa Victoria	11	Noviembre	2023-09-11T00:00:00	2024-11-08T16:00:00	7	Dirección del viento	4.83
141307	7	Sololá	701	Sololá	4	Finca Santa Victoria	11	Noviembre	2023-09-11T00:00:00	2024-11-08T16:00:00	1	Precipitación	0
141308	7	Sololá	701	Sololá	4	Finca Santa Victoria	11	Noviembre	2023-09-11T00:00:00	2024-11-08T16:00:00	8	Radiación solar	59
141309	7	Sololá	701	Sololá	4	Finca Santa Victoria	11	Noviembre	2023-09-11T00:00:00	2024-11-08T17:00:00	2	Temperatura media	13.9
141310	7	Sololá	701	Sololá	4	Finca Santa Victoria	11	Noviembre	2023-09-11T00:00:00	2024-11-08T17:00:00	4	Temperatura máxima	15.3
141311	7	Sololá	701	Sololá	4	Finca Santa Victoria	11	Noviembre	2023-09-11T00:00:00	2024-11-08T17:00:00	3	Temperatura mínima	13.9
141312	7	Sololá	701	Sololá	4	Finca Santa Victoria	11	Noviembre	2023-09-11T00:00:00	2024-11-08T17:00:00	5	Humedad	86
141313	7	Sololá	701	Sololá	4	Finca Santa Victoria	11	Noviembre	2023-09-11T00:00:00	2024-11-08T17:00:00	6	Velocidad del viento	3.2
141314	7	Sololá	701	Sololá	4	Finca Santa Victoria	11	Noviembre	2023-09-11T00:00:00	2024-11-08T17:00:00	7	Dirección del viento	3.22
141315	7	Sololá	701	Sololá	4	Finca Santa Victoria	11	Noviembre	2023-09-11T00:00:00	2024-11-08T17:00:00	1	Precipitación	0
141316	7	Sololá	701	Sololá	4	Finca Santa Victoria	11	Noviembre	2023-09-11T00:00:00	2024-11-08T17:00:00	8	Radiación solar	45
141317	7	Sololá	701	Sololá	4	Finca Santa Victoria	11	Noviembre	2023-09-11T00:00:00	2024-11-08T18:00:00	2	Temperatura media	13.4
141318	7	Sololá	701	Sololá	4	Finca Santa Victoria	11	Noviembre	2023-09-11T00:00:00	2024-11-08T18:00:00	4	Temperatura máxima	13.9
141319	7	Sololá	701	Sololá	4	Finca Santa Victoria	11	Noviembre	2023-09-11T00:00:00	2024-11-08T18:00:00	3	Temperatura mínima	13.4
141320	7	Sololá	701	Sololá	4	Finca Santa Victoria	11	Noviembre	2023-09-11T00:00:00	2024-11-08T18:00:00	5	Humedad	87
141321	7	Sololá	701	Sololá	4	Finca Santa Victoria	11	Noviembre	2023-09-11T00:00:00	2024-11-08T18:00:00	6	Velocidad del viento	3.2
141322	7	Sololá	701	Sololá	4	Finca Santa Victoria	11	Noviembre	2023-09-11T00:00:00	2024-11-08T18:00:00	7	Dirección del viento	3.22
141323	7	Sololá	701	Sololá	4	Finca Santa Victoria	11	Noviembre	2023-09-11T00:00:00	2024-11-08T18:00:00	1	Precipitación	0
141324	7	Sololá	701	Sololá	4	Finca Santa Victoria	11	Noviembre	2023-09-11T00:00:00	2024-11-08T18:00:00	8	Radiación solar	13
141325	7	Sololá	701	Sololá	4	Finca Santa Victoria	11	Noviembre	2023-09-11T00:00:00	2024-11-08T19:00:00	2	Temperatura media	12.9
141326	7	Sololá	701	Sololá	4	Finca Santa Victoria	11	Noviembre	2023-09-11T00:00:00	2024-11-08T19:00:00	4	Temperatura máxima	13.4
141327	7	Sololá	701	Sololá	4	Finca Santa Victoria	11	Noviembre	2023-09-11T00:00:00	2024-11-08T19:00:00	3	Temperatura mínima	12.9
141328	7	Sololá	701	Sololá	4	Finca Santa Victoria	11	Noviembre	2023-09-11T00:00:00	2024-11-08T19:00:00	5	Humedad	88
141329	7	Sololá	701	Sololá	4	Finca Santa Victoria	11	Noviembre	2023-09-11T00:00:00	2024-11-08T19:00:00	6	Velocidad del viento	3.2
141330	7	Sololá	701	Sololá	4	Finca Santa Victoria	11	Noviembre	2023-09-11T00:00:00	2024-11-08T19:00:00	7	Dirección del viento	3.22
141331	7	Sololá	701	Sololá	4	Finca Santa Victoria	11	Noviembre	2023-09-11T00:00:00	2024-11-08T19:00:00	1	Precipitación	0
141332	7	Sololá	701	Sololá	4	Finca Santa Victoria	11	Noviembre	2023-09-11T00:00:00	2024-11-08T19:00:00	8	Radiación solar	0
141333	7	Sololá	701	Sololá	4	Finca Santa Victoria	11	Noviembre	2023-09-11T00:00:00	2024-11-08T20:00:00	2	Temperatura media	12.5
141334	7	Sololá	701	Sololá	4	Finca Santa Victoria	11	Noviembre	2023-09-11T00:00:00	2024-11-08T20:00:00	4	Temperatura máxima	12.9
141335	7	Sololá	701	Sololá	4	Finca Santa Victoria	11	Noviembre	2023-09-11T00:00:00	2024-11-08T20:00:00	3	Temperatura mínima	12.5
141336	7	Sololá	701	Sololá	4	Finca Santa Victoria	11	Noviembre	2023-09-11T00:00:00	2024-11-08T20:00:00	5	Humedad	89
141337	7	Sololá	701	Sololá	4	Finca Santa Victoria	11	Noviembre	2023-09-11T00:00:00	2024-11-08T20:00:00	6	Velocidad del viento	4.8
141338	7	Sololá	701	Sololá	4	Finca Santa Victoria	11	Noviembre	2023-09-11T00:00:00	2024-11-08T20:00:00	7	Dirección del viento	4.83
141339	7	Sololá	701	Sololá	4	Finca Santa Victoria	11	Noviembre	2023-09-11T00:00:00	2024-11-08T20:00:00	1	Precipitación	0
141340	7	Sololá	701	Sololá	4	Finca Santa Victoria	11	Noviembre	2023-09-11T00:00:00	2024-11-08T20:00:00	8	Radiación solar	0
141341	7	Sololá	701	Sololá	4	Finca Santa Victoria	11	Noviembre	2023-09-11T00:00:00	2024-11-08T21:00:00	2	Temperatura media	12.3
141342	7	Sololá	701	Sololá	4	Finca Santa Victoria	11	Noviembre	2023-09-11T00:00:00	2024-11-08T21:00:00	4	Temperatura máxima	12.5
141343	7	Sololá	701	Sololá	4	Finca Santa Victoria	11	Noviembre	2023-09-11T00:00:00	2024-11-08T21:00:00	3	Temperatura mínima	12.3
141344	7	Sololá	701	Sololá	4	Finca Santa Victoria	11	Noviembre	2023-09-11T00:00:00	2024-11-08T21:00:00	5	Humedad	90
141345	7	Sololá	701	Sololá	4	Finca Santa Victoria	11	Noviembre	2023-09-11T00:00:00	2024-11-08T21:00:00	6	Velocidad del viento	4.8
141346	7	Sololá	701	Sololá	4	Finca Santa Victoria	11	Noviembre	2023-09-11T00:00:00	2024-11-08T21:00:00	7	Dirección del viento	4.83
141347	7	Sololá	701	Sololá	4	Finca Santa Victoria	11	Noviembre	2023-09-11T00:00:00	2024-11-08T21:00:00	1	Precipitación	0
141348	7	Sololá	701	Sololá	4	Finca Santa Victoria	11	Noviembre	2023-09-11T00:00:00	2024-11-08T21:00:00	8	Radiación solar	0
141349	7	Sololá	701	Sololá	4	Finca Santa Victoria	11	Noviembre	2023-09-11T00:00:00	2024-11-08T22:00:00	2	Temperatura media	12.3
141350	7	Sololá	701	Sololá	4	Finca Santa Victoria	11	Noviembre	2023-09-11T00:00:00	2024-11-08T22:00:00	4	Temperatura máxima	12.4
141351	7	Sololá	701	Sololá	4	Finca Santa Victoria	11	Noviembre	2023-09-11T00:00:00	2024-11-08T22:00:00	3	Temperatura mínima	12.3
141352	7	Sololá	701	Sololá	4	Finca Santa Victoria	11	Noviembre	2023-09-11T00:00:00	2024-11-08T22:00:00	5	Humedad	88
141353	7	Sololá	701	Sololá	4	Finca Santa Victoria	11	Noviembre	2023-09-11T00:00:00	2024-11-08T22:00:00	6	Velocidad del viento	3.2
141354	7	Sololá	701	Sololá	4	Finca Santa Victoria	11	Noviembre	2023-09-11T00:00:00	2024-11-08T22:00:00	7	Dirección del viento	3.22
141355	7	Sololá	701	Sololá	4	Finca Santa Victoria	11	Noviembre	2023-09-11T00:00:00	2024-11-08T22:00:00	1	Precipitación	0
141356	7	Sololá	701	Sololá	4	Finca Santa Victoria	11	Noviembre	2023-09-11T00:00:00	2024-11-08T22:00:00	8	Radiación solar	0
141357	7	Sololá	701	Sololá	4	Finca Santa Victoria	11	Noviembre	2023-09-11T00:00:00	2024-11-08T23:00:00	2	Temperatura media	12.1
141358	7	Sololá	701	Sololá	4	Finca Santa Victoria	11	Noviembre	2023-09-11T00:00:00	2024-11-08T23:00:00	4	Temperatura máxima	12.3
141359	7	Sololá	701	Sololá	4	Finca Santa Victoria	11	Noviembre	2023-09-11T00:00:00	2024-11-08T23:00:00	3	Temperatura mínima	12.1
141360	7	Sololá	701	Sololá	4	Finca Santa Victoria	11	Noviembre	2023-09-11T00:00:00	2024-11-08T23:00:00	5	Humedad	88
141361	7	Sololá	701	Sololá	4	Finca Santa Victoria	11	Noviembre	2023-09-11T00:00:00	2024-11-08T23:00:00	6	Velocidad del viento	3.2
141362	7	Sololá	701	Sololá	4	Finca Santa Victoria	11	Noviembre	2023-09-11T00:00:00	2024-11-08T23:00:00	7	Dirección del viento	3.22
141363	7	Sololá	701	Sololá	4	Finca Santa Victoria	11	Noviembre	2023-09-11T00:00:00	2024-11-08T23:00:00	1	Precipitación	0
141364	7	Sololá	701	Sololá	4	Finca Santa Victoria	11	Noviembre	2023-09-11T00:00:00	2024-11-08T23:00:00	8	Radiación solar	0
141365	7	Sololá	701	Sololá	4	Finca Santa Victoria	11	Noviembre	2023-10-11T00:00:00	2024-11-08T00:00:00	2	Temperatura media	12.1
141366	7	Sololá	701	Sololá	4	Finca Santa Victoria	11	Noviembre	2023-10-11T00:00:00	2024-11-08T00:00:00	4	Temperatura máxima	12.1
141367	7	Sololá	701	Sololá	4	Finca Santa Victoria	11	Noviembre	2023-10-11T00:00:00	2024-11-08T00:00:00	3	Temperatura mínima	11.8
141368	7	Sololá	701	Sololá	4	Finca Santa Victoria	11	Noviembre	2023-10-11T00:00:00	2024-11-08T00:00:00	5	Humedad	88
141369	7	Sololá	701	Sololá	4	Finca Santa Victoria	11	Noviembre	2023-10-11T00:00:00	2024-11-08T00:00:00	6	Velocidad del viento	3.2
141370	7	Sololá	701	Sololá	4	Finca Santa Victoria	11	Noviembre	2023-10-11T00:00:00	2024-11-08T00:00:00	7	Dirección del viento	3.22
141371	7	Sololá	701	Sololá	4	Finca Santa Victoria	11	Noviembre	2023-10-11T00:00:00	2024-11-08T00:00:00	1	Precipitación	0
141372	7	Sololá	701	Sololá	4	Finca Santa Victoria	11	Noviembre	2023-10-11T00:00:00	2024-11-08T00:00:00	8	Radiación solar	0
141373	7	Sololá	701	Sololá	4	Finca Santa Victoria	11	Noviembre	2023-10-11T00:00:00	2024-11-08T01:00:00	2	Temperatura media	12.2
141374	7	Sololá	701	Sololá	4	Finca Santa Victoria	11	Noviembre	2023-10-11T00:00:00	2024-11-08T01:00:00	4	Temperatura máxima	12.3
141375	7	Sololá	701	Sololá	4	Finca Santa Victoria	11	Noviembre	2023-10-11T00:00:00	2024-11-08T01:00:00	3	Temperatura mínima	12.1
141376	7	Sololá	701	Sololá	4	Finca Santa Victoria	11	Noviembre	2023-10-11T00:00:00	2024-11-08T01:00:00	5	Humedad	88
141377	7	Sololá	701	Sololá	4	Finca Santa Victoria	11	Noviembre	2023-10-11T00:00:00	2024-11-08T01:00:00	6	Velocidad del viento	1.6
141378	7	Sololá	701	Sololá	4	Finca Santa Victoria	11	Noviembre	2023-10-11T00:00:00	2024-11-08T01:00:00	7	Dirección del viento	1.61
141379	7	Sololá	701	Sololá	4	Finca Santa Victoria	11	Noviembre	2023-10-11T00:00:00	2024-11-08T01:00:00	1	Precipitación	0
141380	7	Sololá	701	Sololá	4	Finca Santa Victoria	11	Noviembre	2023-10-11T00:00:00	2024-11-08T01:00:00	8	Radiación solar	0
141381	7	Sololá	701	Sololá	4	Finca Santa Victoria	11	Noviembre	2023-10-11T00:00:00	2024-11-08T02:00:00	2	Temperatura media	12.2
141382	7	Sololá	701	Sololá	4	Finca Santa Victoria	11	Noviembre	2023-10-11T00:00:00	2024-11-08T02:00:00	4	Temperatura máxima	12.2
141383	7	Sololá	701	Sololá	4	Finca Santa Victoria	11	Noviembre	2023-10-11T00:00:00	2024-11-08T02:00:00	3	Temperatura mínima	12
141384	7	Sololá	701	Sololá	4	Finca Santa Victoria	11	Noviembre	2023-10-11T00:00:00	2024-11-08T02:00:00	5	Humedad	88
141385	7	Sololá	701	Sololá	4	Finca Santa Victoria	11	Noviembre	2023-10-11T00:00:00	2024-11-08T02:00:00	6	Velocidad del viento	3.2
141386	7	Sololá	701	Sololá	4	Finca Santa Victoria	11	Noviembre	2023-10-11T00:00:00	2024-11-08T02:00:00	7	Dirección del viento	3.22
141387	7	Sololá	701	Sololá	4	Finca Santa Victoria	11	Noviembre	2023-10-11T00:00:00	2024-11-08T02:00:00	1	Precipitación	0
141388	7	Sololá	701	Sololá	4	Finca Santa Victoria	11	Noviembre	2023-10-11T00:00:00	2024-11-08T02:00:00	8	Radiación solar	0
141389	7	Sololá	701	Sololá	4	Finca Santa Victoria	11	Noviembre	2023-10-11T00:00:00	2024-11-08T03:00:00	2	Temperatura media	12.1
141390	7	Sololá	701	Sololá	4	Finca Santa Victoria	11	Noviembre	2023-10-11T00:00:00	2024-11-08T03:00:00	4	Temperatura máxima	12.2
141391	7	Sololá	701	Sololá	4	Finca Santa Victoria	11	Noviembre	2023-10-11T00:00:00	2024-11-08T03:00:00	3	Temperatura mínima	12.1
141392	7	Sololá	701	Sololá	4	Finca Santa Victoria	11	Noviembre	2023-10-11T00:00:00	2024-11-08T03:00:00	5	Humedad	89
141393	7	Sololá	701	Sololá	4	Finca Santa Victoria	11	Noviembre	2023-10-11T00:00:00	2024-11-08T03:00:00	6	Velocidad del viento	3.2
141394	7	Sololá	701	Sololá	4	Finca Santa Victoria	11	Noviembre	2023-10-11T00:00:00	2024-11-08T03:00:00	7	Dirección del viento	3.22
141395	7	Sololá	701	Sololá	4	Finca Santa Victoria	11	Noviembre	2023-10-11T00:00:00	2024-11-08T03:00:00	1	Precipitación	0
141396	7	Sololá	701	Sololá	4	Finca Santa Victoria	11	Noviembre	2023-10-11T00:00:00	2024-11-08T03:00:00	8	Radiación solar	0
141397	7	Sololá	701	Sololá	4	Finca Santa Victoria	11	Noviembre	2023-10-11T00:00:00	2024-11-08T04:00:00	2	Temperatura media	11.9
141398	7	Sololá	701	Sololá	4	Finca Santa Victoria	11	Noviembre	2023-10-11T00:00:00	2024-11-08T04:00:00	4	Temperatura máxima	12.2
141399	7	Sololá	701	Sololá	4	Finca Santa Victoria	11	Noviembre	2023-10-11T00:00:00	2024-11-08T04:00:00	3	Temperatura mínima	11.9
141400	7	Sololá	701	Sololá	4	Finca Santa Victoria	11	Noviembre	2023-10-11T00:00:00	2024-11-08T04:00:00	5	Humedad	89
141401	7	Sololá	701	Sololá	4	Finca Santa Victoria	11	Noviembre	2023-10-11T00:00:00	2024-11-08T04:00:00	6	Velocidad del viento	4.8
141402	7	Sololá	701	Sololá	4	Finca Santa Victoria	11	Noviembre	2023-10-11T00:00:00	2024-11-08T04:00:00	7	Dirección del viento	4.83
141403	7	Sololá	701	Sololá	4	Finca Santa Victoria	11	Noviembre	2023-10-11T00:00:00	2024-11-08T04:00:00	1	Precipitación	0
141404	7	Sololá	701	Sololá	4	Finca Santa Victoria	11	Noviembre	2023-10-11T00:00:00	2024-11-08T04:00:00	8	Radiación solar	0
141405	7	Sololá	701	Sololá	4	Finca Santa Victoria	11	Noviembre	2023-10-11T00:00:00	2024-11-08T05:00:00	2	Temperatura media	11.8
141406	7	Sololá	701	Sololá	4	Finca Santa Victoria	11	Noviembre	2023-10-11T00:00:00	2024-11-08T05:00:00	4	Temperatura máxima	11.9
141407	7	Sololá	701	Sololá	4	Finca Santa Victoria	11	Noviembre	2023-10-11T00:00:00	2024-11-08T05:00:00	3	Temperatura mínima	11.7
141408	7	Sololá	701	Sololá	4	Finca Santa Victoria	11	Noviembre	2023-10-11T00:00:00	2024-11-08T05:00:00	5	Humedad	89
141409	7	Sololá	701	Sololá	4	Finca Santa Victoria	11	Noviembre	2023-10-11T00:00:00	2024-11-08T05:00:00	6	Velocidad del viento	3.2
141410	7	Sololá	701	Sololá	4	Finca Santa Victoria	11	Noviembre	2023-10-11T00:00:00	2024-11-08T05:00:00	7	Dirección del viento	3.22
141411	7	Sololá	701	Sololá	4	Finca Santa Victoria	11	Noviembre	2023-10-11T00:00:00	2024-11-08T05:00:00	1	Precipitación	0
141412	7	Sololá	701	Sololá	4	Finca Santa Victoria	11	Noviembre	2023-10-11T00:00:00	2024-11-08T05:00:00	8	Radiación solar	0
141413	7	Sololá	701	Sololá	4	Finca Santa Victoria	11	Noviembre	2023-10-11T00:00:00	2024-11-08T06:00:00	2	Temperatura media	12
141414	7	Sololá	701	Sololá	4	Finca Santa Victoria	11	Noviembre	2023-10-11T00:00:00	2024-11-08T06:00:00	4	Temperatura máxima	12
141415	7	Sololá	701	Sololá	4	Finca Santa Victoria	11	Noviembre	2023-10-11T00:00:00	2024-11-08T06:00:00	3	Temperatura mínima	11.8
141416	7	Sololá	701	Sololá	4	Finca Santa Victoria	11	Noviembre	2023-10-11T00:00:00	2024-11-08T06:00:00	5	Humedad	89
141417	7	Sololá	701	Sololá	4	Finca Santa Victoria	11	Noviembre	2023-10-11T00:00:00	2024-11-08T06:00:00	6	Velocidad del viento	3.2
141418	7	Sololá	701	Sololá	4	Finca Santa Victoria	11	Noviembre	2023-10-11T00:00:00	2024-11-08T06:00:00	7	Dirección del viento	3.22
141419	7	Sololá	701	Sololá	4	Finca Santa Victoria	11	Noviembre	2023-10-11T00:00:00	2024-11-08T06:00:00	1	Precipitación	0
141420	7	Sololá	701	Sololá	4	Finca Santa Victoria	11	Noviembre	2023-10-11T00:00:00	2024-11-08T06:00:00	8	Radiación solar	0
141421	7	Sololá	701	Sololá	4	Finca Santa Victoria	11	Noviembre	2023-10-11T00:00:00	2024-11-08T07:00:00	2	Temperatura media	12.7
141422	7	Sololá	701	Sololá	4	Finca Santa Victoria	11	Noviembre	2023-10-11T00:00:00	2024-11-08T07:00:00	4	Temperatura máxima	12.7
141423	7	Sololá	701	Sololá	4	Finca Santa Victoria	11	Noviembre	2023-10-11T00:00:00	2024-11-08T07:00:00	3	Temperatura mínima	11.9
141424	7	Sololá	701	Sololá	4	Finca Santa Victoria	11	Noviembre	2023-10-11T00:00:00	2024-11-08T07:00:00	5	Humedad	87
141425	7	Sololá	701	Sololá	4	Finca Santa Victoria	11	Noviembre	2023-10-11T00:00:00	2024-11-08T07:00:00	6	Velocidad del viento	3.2
141426	7	Sololá	701	Sololá	4	Finca Santa Victoria	11	Noviembre	2023-10-11T00:00:00	2024-11-08T07:00:00	7	Dirección del viento	3.22
141427	7	Sololá	701	Sololá	4	Finca Santa Victoria	11	Noviembre	2023-10-11T00:00:00	2024-11-08T07:00:00	1	Precipitación	0
141428	7	Sololá	701	Sololá	4	Finca Santa Victoria	11	Noviembre	2023-10-11T00:00:00	2024-11-08T07:00:00	8	Radiación solar	20
141429	7	Sololá	701	Sololá	4	Finca Santa Victoria	11	Noviembre	2023-10-11T00:00:00	2024-11-08T08:00:00	2	Temperatura media	14.8
141430	7	Sololá	701	Sololá	4	Finca Santa Victoria	11	Noviembre	2023-10-11T00:00:00	2024-11-08T08:00:00	4	Temperatura máxima	14.9
141431	7	Sololá	701	Sololá	4	Finca Santa Victoria	11	Noviembre	2023-10-11T00:00:00	2024-11-08T08:00:00	3	Temperatura mínima	12.7
141432	7	Sololá	701	Sololá	4	Finca Santa Victoria	11	Noviembre	2023-10-11T00:00:00	2024-11-08T08:00:00	5	Humedad	82
141433	7	Sololá	701	Sololá	4	Finca Santa Victoria	11	Noviembre	2023-10-11T00:00:00	2024-11-08T08:00:00	6	Velocidad del viento	3.2
141434	7	Sololá	701	Sololá	4	Finca Santa Victoria	11	Noviembre	2023-10-11T00:00:00	2024-11-08T08:00:00	7	Dirección del viento	3.22
141435	7	Sololá	701	Sololá	4	Finca Santa Victoria	11	Noviembre	2023-10-11T00:00:00	2024-11-08T08:00:00	1	Precipitación	0
141436	7	Sololá	701	Sololá	4	Finca Santa Victoria	11	Noviembre	2023-10-11T00:00:00	2024-11-08T08:00:00	8	Radiación solar	222
141437	7	Sololá	701	Sololá	4	Finca Santa Victoria	11	Noviembre	2023-10-11T00:00:00	2024-11-08T09:00:00	2	Temperatura media	16.5
141438	7	Sololá	701	Sololá	4	Finca Santa Victoria	11	Noviembre	2023-10-11T00:00:00	2024-11-08T09:00:00	4	Temperatura máxima	16.6
141439	7	Sololá	701	Sololá	4	Finca Santa Victoria	11	Noviembre	2023-10-11T00:00:00	2024-11-08T09:00:00	3	Temperatura mínima	14.9
141440	7	Sololá	701	Sololá	4	Finca Santa Victoria	11	Noviembre	2023-10-11T00:00:00	2024-11-08T09:00:00	5	Humedad	78
141441	7	Sololá	701	Sololá	4	Finca Santa Victoria	11	Noviembre	2023-10-11T00:00:00	2024-11-08T09:00:00	6	Velocidad del viento	3.2
141442	7	Sololá	701	Sololá	4	Finca Santa Victoria	11	Noviembre	2023-10-11T00:00:00	2024-11-08T09:00:00	7	Dirección del viento	3.22
141443	7	Sololá	701	Sololá	4	Finca Santa Victoria	11	Noviembre	2023-10-11T00:00:00	2024-11-08T09:00:00	1	Precipitación	0
141444	7	Sololá	701	Sololá	4	Finca Santa Victoria	11	Noviembre	2023-10-11T00:00:00	2024-11-08T09:00:00	8	Radiación solar	519
141445	7	Sololá	701	Sololá	4	Finca Santa Victoria	11	Noviembre	2023-10-11T00:00:00	2024-11-08T10:00:00	2	Temperatura media	17.2
141446	7	Sololá	701	Sololá	4	Finca Santa Victoria	11	Noviembre	2023-10-11T00:00:00	2024-11-08T10:00:00	4	Temperatura máxima	17.3
141447	7	Sololá	701	Sololá	4	Finca Santa Victoria	11	Noviembre	2023-10-11T00:00:00	2024-11-08T10:00:00	3	Temperatura mínima	16.5
141448	7	Sololá	701	Sololá	4	Finca Santa Victoria	11	Noviembre	2023-10-11T00:00:00	2024-11-08T10:00:00	5	Humedad	78
141449	7	Sololá	701	Sololá	4	Finca Santa Victoria	11	Noviembre	2023-10-11T00:00:00	2024-11-08T10:00:00	6	Velocidad del viento	4.8
141450	7	Sololá	701	Sololá	4	Finca Santa Victoria	11	Noviembre	2023-10-11T00:00:00	2024-11-08T10:00:00	7	Dirección del viento	4.83
141451	7	Sololá	701	Sololá	4	Finca Santa Victoria	11	Noviembre	2023-10-11T00:00:00	2024-11-08T10:00:00	1	Precipitación	0
141452	7	Sololá	701	Sololá	4	Finca Santa Victoria	11	Noviembre	2023-10-11T00:00:00	2024-11-08T10:00:00	8	Radiación solar	694
141453	7	Sololá	701	Sololá	4	Finca Santa Victoria	11	Noviembre	2023-10-11T00:00:00	2024-11-08T11:00:00	2	Temperatura media	18.6
141454	7	Sololá	701	Sololá	4	Finca Santa Victoria	11	Noviembre	2023-10-11T00:00:00	2024-11-08T11:00:00	4	Temperatura máxima	18.6
141455	7	Sololá	701	Sololá	4	Finca Santa Victoria	11	Noviembre	2023-10-11T00:00:00	2024-11-08T11:00:00	3	Temperatura mínima	17.2
141456	7	Sololá	701	Sololá	4	Finca Santa Victoria	11	Noviembre	2023-10-11T00:00:00	2024-11-08T11:00:00	5	Humedad	74
141457	7	Sololá	701	Sololá	4	Finca Santa Victoria	11	Noviembre	2023-10-11T00:00:00	2024-11-08T11:00:00	6	Velocidad del viento	3.2
141458	7	Sololá	701	Sololá	4	Finca Santa Victoria	11	Noviembre	2023-10-11T00:00:00	2024-11-08T11:00:00	7	Dirección del viento	3.22
141459	7	Sololá	701	Sololá	4	Finca Santa Victoria	11	Noviembre	2023-10-11T00:00:00	2024-11-08T11:00:00	1	Precipitación	0
141460	7	Sololá	701	Sololá	4	Finca Santa Victoria	11	Noviembre	2023-10-11T00:00:00	2024-11-08T11:00:00	8	Radiación solar	745
141461	7	Sololá	701	Sololá	4	Finca Santa Victoria	11	Noviembre	2023-10-11T00:00:00	2024-11-08T12:00:00	2	Temperatura media	20
141462	7	Sololá	701	Sololá	4	Finca Santa Victoria	11	Noviembre	2023-10-11T00:00:00	2024-11-08T12:00:00	4	Temperatura máxima	20.1
141463	7	Sololá	701	Sololá	4	Finca Santa Victoria	11	Noviembre	2023-10-11T00:00:00	2024-11-08T12:00:00	3	Temperatura mínima	18.6
141464	7	Sololá	701	Sololá	4	Finca Santa Victoria	11	Noviembre	2023-10-11T00:00:00	2024-11-08T12:00:00	5	Humedad	70
141465	7	Sololá	701	Sololá	4	Finca Santa Victoria	11	Noviembre	2023-10-11T00:00:00	2024-11-08T12:00:00	6	Velocidad del viento	3.2
141466	7	Sololá	701	Sololá	4	Finca Santa Victoria	11	Noviembre	2023-10-11T00:00:00	2024-11-08T12:00:00	7	Dirección del viento	3.22
141467	7	Sololá	701	Sololá	4	Finca Santa Victoria	11	Noviembre	2023-10-11T00:00:00	2024-11-08T12:00:00	1	Precipitación	0
141468	7	Sololá	701	Sololá	4	Finca Santa Victoria	11	Noviembre	2023-10-11T00:00:00	2024-11-08T12:00:00	8	Radiación solar	874
141469	7	Sololá	701	Sololá	4	Finca Santa Victoria	11	Noviembre	2023-10-11T00:00:00	2024-11-08T13:00:00	2	Temperatura media	20.2
141470	7	Sololá	701	Sololá	4	Finca Santa Victoria	11	Noviembre	2023-10-11T00:00:00	2024-11-08T13:00:00	4	Temperatura máxima	20.2
141471	7	Sololá	701	Sololá	4	Finca Santa Victoria	11	Noviembre	2023-10-11T00:00:00	2024-11-08T13:00:00	3	Temperatura mínima	20.2
141472	7	Sololá	701	Sololá	4	Finca Santa Victoria	11	Noviembre	2023-10-11T00:00:00	2024-11-08T13:00:00	5	Humedad	72
141473	7	Sololá	701	Sololá	4	Finca Santa Victoria	11	Noviembre	2023-10-11T00:00:00	2024-11-08T13:00:00	6	Velocidad del viento	4.8
141474	7	Sololá	701	Sololá	4	Finca Santa Victoria	11	Noviembre	2023-10-11T00:00:00	2024-11-08T13:00:00	7	Dirección del viento	0.08
141475	7	Sololá	701	Sololá	4	Finca Santa Victoria	11	Noviembre	2023-10-11T00:00:00	2024-11-08T13:00:00	1	Precipitación	0
141476	7	Sololá	701	Sololá	4	Finca Santa Victoria	11	Noviembre	2023-10-11T00:00:00	2024-11-08T13:00:00	8	Radiación solar	146
141477	7	Sololá	701	Sololá	4	Finca Santa Victoria	11	Noviembre	2023-10-11T00:00:00	2024-11-08T14:00:00	2	Temperatura media	20.3
141478	7	Sololá	701	Sololá	4	Finca Santa Victoria	11	Noviembre	2023-10-11T00:00:00	2024-11-08T14:00:00	4	Temperatura máxima	20.3
141479	7	Sololá	701	Sololá	4	Finca Santa Victoria	11	Noviembre	2023-10-11T00:00:00	2024-11-08T14:00:00	3	Temperatura mínima	20.2
141480	7	Sololá	701	Sololá	4	Finca Santa Victoria	11	Noviembre	2023-10-11T00:00:00	2024-11-08T14:00:00	5	Humedad	73
141481	7	Sololá	701	Sololá	4	Finca Santa Victoria	11	Noviembre	2023-10-11T00:00:00	2024-11-08T14:00:00	6	Velocidad del viento	4.8
141482	7	Sololá	701	Sololá	4	Finca Santa Victoria	11	Noviembre	2023-10-11T00:00:00	2024-11-08T14:00:00	7	Dirección del viento	0.08
141483	7	Sololá	701	Sololá	4	Finca Santa Victoria	11	Noviembre	2023-10-11T00:00:00	2024-11-08T14:00:00	1	Precipitación	0
141484	7	Sololá	701	Sololá	4	Finca Santa Victoria	11	Noviembre	2023-10-11T00:00:00	2024-11-08T14:00:00	8	Radiación solar	105
141485	7	Sololá	701	Sololá	4	Finca Santa Victoria	11	Noviembre	2023-10-11T00:00:00	2024-11-08T15:00:00	2	Temperatura media	20.2
141486	7	Sololá	701	Sololá	4	Finca Santa Victoria	11	Noviembre	2023-10-11T00:00:00	2024-11-08T15:00:00	4	Temperatura máxima	20.7
141487	7	Sololá	701	Sololá	4	Finca Santa Victoria	11	Noviembre	2023-10-11T00:00:00	2024-11-08T15:00:00	3	Temperatura mínima	20.1
141488	7	Sololá	701	Sololá	4	Finca Santa Victoria	11	Noviembre	2023-10-11T00:00:00	2024-11-08T15:00:00	5	Humedad	77
141489	7	Sololá	701	Sololá	4	Finca Santa Victoria	11	Noviembre	2023-10-11T00:00:00	2024-11-08T15:00:00	6	Velocidad del viento	4.8
141490	7	Sololá	701	Sololá	4	Finca Santa Victoria	11	Noviembre	2023-10-11T00:00:00	2024-11-08T15:00:00	7	Dirección del viento	4.83
141491	7	Sololá	701	Sololá	4	Finca Santa Victoria	11	Noviembre	2023-10-11T00:00:00	2024-11-08T15:00:00	1	Precipitación	0
141492	7	Sololá	701	Sololá	4	Finca Santa Victoria	11	Noviembre	2023-10-11T00:00:00	2024-11-08T15:00:00	8	Radiación solar	123
141493	7	Sololá	701	Sololá	4	Finca Santa Victoria	11	Noviembre	2023-10-11T00:00:00	2024-11-08T16:00:00	2	Temperatura media	19.6
141494	7	Sololá	701	Sololá	4	Finca Santa Victoria	11	Noviembre	2023-10-11T00:00:00	2024-11-08T16:00:00	4	Temperatura máxima	20.2
141495	7	Sololá	701	Sololá	4	Finca Santa Victoria	11	Noviembre	2023-10-11T00:00:00	2024-11-08T16:00:00	3	Temperatura mínima	18.7
141496	7	Sololá	701	Sololá	4	Finca Santa Victoria	11	Noviembre	2023-10-11T00:00:00	2024-11-08T16:00:00	5	Humedad	84
141497	7	Sololá	701	Sololá	4	Finca Santa Victoria	11	Noviembre	2023-10-11T00:00:00	2024-11-08T16:00:00	6	Velocidad del viento	3.2
141498	7	Sololá	701	Sololá	4	Finca Santa Victoria	11	Noviembre	2023-10-11T00:00:00	2024-11-08T16:00:00	7	Dirección del viento	3.22
141499	7	Sololá	701	Sololá	4	Finca Santa Victoria	11	Noviembre	2023-10-11T00:00:00	2024-11-08T16:00:00	1	Precipitación	0
141500	7	Sololá	701	Sololá	4	Finca Santa Victoria	11	Noviembre	2023-10-11T00:00:00	2024-11-08T16:00:00	8	Radiación solar	127
141501	7	Sololá	701	Sololá	4	Finca Santa Victoria	11	Noviembre	2023-10-11T00:00:00	2024-11-08T17:00:00	2	Temperatura media	18.4
141502	7	Sololá	701	Sololá	4	Finca Santa Victoria	11	Noviembre	2023-10-11T00:00:00	2024-11-08T17:00:00	4	Temperatura máxima	20
141503	7	Sololá	701	Sololá	4	Finca Santa Victoria	11	Noviembre	2023-10-11T00:00:00	2024-11-08T17:00:00	3	Temperatura mínima	18.3
141504	7	Sololá	701	Sololá	4	Finca Santa Victoria	11	Noviembre	2023-10-11T00:00:00	2024-11-08T17:00:00	5	Humedad	78
141505	7	Sololá	701	Sololá	4	Finca Santa Victoria	11	Noviembre	2023-10-11T00:00:00	2024-11-08T17:00:00	6	Velocidad del viento	1.6
141506	7	Sololá	701	Sololá	4	Finca Santa Victoria	11	Noviembre	2023-10-11T00:00:00	2024-11-08T17:00:00	7	Dirección del viento	1.61
141507	7	Sololá	701	Sololá	4	Finca Santa Victoria	11	Noviembre	2023-10-11T00:00:00	2024-11-08T17:00:00	1	Precipitación	0
141508	7	Sololá	701	Sololá	4	Finca Santa Victoria	11	Noviembre	2023-10-11T00:00:00	2024-11-08T17:00:00	8	Radiación solar	100
141509	7	Sololá	701	Sololá	4	Finca Santa Victoria	11	Noviembre	2023-10-11T00:00:00	2024-11-08T18:00:00	2	Temperatura media	15.8
141510	7	Sololá	701	Sololá	4	Finca Santa Victoria	11	Noviembre	2023-10-11T00:00:00	2024-11-08T18:00:00	4	Temperatura máxima	18.4
141511	7	Sololá	701	Sololá	4	Finca Santa Victoria	11	Noviembre	2023-10-11T00:00:00	2024-11-08T18:00:00	3	Temperatura mínima	15.8
141512	7	Sololá	701	Sololá	4	Finca Santa Victoria	11	Noviembre	2023-10-11T00:00:00	2024-11-08T18:00:00	5	Humedad	77
141513	7	Sololá	701	Sololá	4	Finca Santa Victoria	11	Noviembre	2023-10-11T00:00:00	2024-11-08T18:00:00	6	Velocidad del viento	1.6
141514	7	Sololá	701	Sololá	4	Finca Santa Victoria	11	Noviembre	2023-10-11T00:00:00	2024-11-08T18:00:00	7	Dirección del viento	1.61
141515	7	Sololá	701	Sololá	4	Finca Santa Victoria	11	Noviembre	2023-10-11T00:00:00	2024-11-08T18:00:00	1	Precipitación	0
141516	7	Sololá	701	Sololá	4	Finca Santa Victoria	11	Noviembre	2023-10-11T00:00:00	2024-11-08T18:00:00	8	Radiación solar	3
141517	7	Sololá	701	Sololá	4	Finca Santa Victoria	11	Noviembre	2023-10-11T00:00:00	2024-11-08T19:00:00	2	Temperatura media	15.4
141518	7	Sololá	701	Sololá	4	Finca Santa Victoria	11	Noviembre	2023-10-11T00:00:00	2024-11-08T19:00:00	4	Temperatura máxima	15.8
141519	7	Sololá	701	Sololá	4	Finca Santa Victoria	11	Noviembre	2023-10-11T00:00:00	2024-11-08T19:00:00	3	Temperatura mínima	15.2
141520	7	Sololá	701	Sololá	4	Finca Santa Victoria	11	Noviembre	2023-10-11T00:00:00	2024-11-08T19:00:00	5	Humedad	86
141521	7	Sololá	701	Sololá	4	Finca Santa Victoria	11	Noviembre	2023-10-11T00:00:00	2024-11-08T19:00:00	6	Velocidad del viento	3.2
141522	7	Sololá	701	Sololá	4	Finca Santa Victoria	11	Noviembre	2023-10-11T00:00:00	2024-11-08T19:00:00	7	Dirección del viento	3.22
141523	7	Sololá	701	Sololá	4	Finca Santa Victoria	11	Noviembre	2023-10-11T00:00:00	2024-11-08T19:00:00	1	Precipitación	0
141524	7	Sololá	701	Sololá	4	Finca Santa Victoria	11	Noviembre	2023-10-11T00:00:00	2024-11-08T19:00:00	8	Radiación solar	0
141525	7	Sololá	701	Sololá	4	Finca Santa Victoria	11	Noviembre	2023-10-11T00:00:00	2024-11-08T20:00:00	2	Temperatura media	15.8
141526	7	Sololá	701	Sololá	4	Finca Santa Victoria	11	Noviembre	2023-10-11T00:00:00	2024-11-08T20:00:00	4	Temperatura máxima	16
141527	7	Sololá	701	Sololá	4	Finca Santa Victoria	11	Noviembre	2023-10-11T00:00:00	2024-11-08T20:00:00	3	Temperatura mínima	15.3
141528	7	Sololá	701	Sololá	4	Finca Santa Victoria	11	Noviembre	2023-10-11T00:00:00	2024-11-08T20:00:00	5	Humedad	84
141529	7	Sololá	701	Sololá	4	Finca Santa Victoria	11	Noviembre	2023-10-11T00:00:00	2024-11-08T20:00:00	6	Velocidad del viento	3.2
141530	7	Sololá	701	Sololá	4	Finca Santa Victoria	11	Noviembre	2023-10-11T00:00:00	2024-11-08T20:00:00	7	Dirección del viento	3.22
141531	7	Sololá	701	Sololá	4	Finca Santa Victoria	11	Noviembre	2023-10-11T00:00:00	2024-11-08T20:00:00	1	Precipitación	0
141532	7	Sololá	701	Sololá	4	Finca Santa Victoria	11	Noviembre	2023-10-11T00:00:00	2024-11-08T20:00:00	8	Radiación solar	0
141533	7	Sololá	701	Sololá	4	Finca Santa Victoria	11	Noviembre	2023-10-11T00:00:00	2024-11-08T21:00:00	2	Temperatura media	15.7
141534	7	Sololá	701	Sololá	4	Finca Santa Victoria	11	Noviembre	2023-10-11T00:00:00	2024-11-08T21:00:00	4	Temperatura máxima	15.8
141535	7	Sololá	701	Sololá	4	Finca Santa Victoria	11	Noviembre	2023-10-11T00:00:00	2024-11-08T21:00:00	3	Temperatura mínima	15.6
141536	7	Sololá	701	Sololá	4	Finca Santa Victoria	11	Noviembre	2023-10-11T00:00:00	2024-11-08T21:00:00	5	Humedad	86
141537	7	Sololá	701	Sololá	4	Finca Santa Victoria	11	Noviembre	2023-10-11T00:00:00	2024-11-08T21:00:00	6	Velocidad del viento	4.8
141538	7	Sololá	701	Sololá	4	Finca Santa Victoria	11	Noviembre	2023-10-11T00:00:00	2024-11-08T21:00:00	7	Dirección del viento	4.83
141539	7	Sololá	701	Sololá	4	Finca Santa Victoria	11	Noviembre	2023-10-11T00:00:00	2024-11-08T21:00:00	1	Precipitación	0
141540	7	Sololá	701	Sololá	4	Finca Santa Victoria	11	Noviembre	2023-10-11T00:00:00	2024-11-08T21:00:00	8	Radiación solar	0
141541	7	Sololá	701	Sololá	4	Finca Santa Victoria	11	Noviembre	2023-10-11T00:00:00	2024-11-08T22:00:00	2	Temperatura media	15.6
141542	7	Sololá	701	Sololá	4	Finca Santa Victoria	11	Noviembre	2023-10-11T00:00:00	2024-11-08T22:00:00	4	Temperatura máxima	15.8
141543	7	Sololá	701	Sololá	4	Finca Santa Victoria	11	Noviembre	2023-10-11T00:00:00	2024-11-08T22:00:00	3	Temperatura mínima	15.6
141544	7	Sololá	701	Sololá	4	Finca Santa Victoria	11	Noviembre	2023-10-11T00:00:00	2024-11-08T22:00:00	5	Humedad	86
141545	7	Sololá	701	Sololá	4	Finca Santa Victoria	11	Noviembre	2023-10-11T00:00:00	2024-11-08T22:00:00	6	Velocidad del viento	3.2
141546	7	Sololá	701	Sololá	4	Finca Santa Victoria	11	Noviembre	2023-10-11T00:00:00	2024-11-08T22:00:00	7	Dirección del viento	3.22
141547	7	Sololá	701	Sololá	4	Finca Santa Victoria	11	Noviembre	2023-10-11T00:00:00	2024-11-08T22:00:00	1	Precipitación	0
141548	7	Sololá	701	Sololá	4	Finca Santa Victoria	11	Noviembre	2023-10-11T00:00:00	2024-11-08T22:00:00	8	Radiación solar	0
141549	7	Sololá	701	Sololá	4	Finca Santa Victoria	11	Noviembre	2023-10-11T00:00:00	2024-11-08T23:00:00	2	Temperatura media	15.5
141550	7	Sololá	701	Sololá	4	Finca Santa Victoria	11	Noviembre	2023-10-11T00:00:00	2024-11-08T23:00:00	4	Temperatura máxima	15.7
141551	7	Sololá	701	Sololá	4	Finca Santa Victoria	11	Noviembre	2023-10-11T00:00:00	2024-11-08T23:00:00	3	Temperatura mínima	15.5
141552	7	Sololá	701	Sololá	4	Finca Santa Victoria	11	Noviembre	2023-10-11T00:00:00	2024-11-08T23:00:00	5	Humedad	87
141553	7	Sololá	701	Sololá	4	Finca Santa Victoria	11	Noviembre	2023-10-11T00:00:00	2024-11-08T23:00:00	6	Velocidad del viento	4.8
141554	7	Sololá	701	Sololá	4	Finca Santa Victoria	11	Noviembre	2023-10-11T00:00:00	2024-11-08T23:00:00	7	Dirección del viento	4.83
141555	7	Sololá	701	Sololá	4	Finca Santa Victoria	11	Noviembre	2023-10-11T00:00:00	2024-11-08T23:00:00	1	Precipitación	0
141556	7	Sololá	701	Sololá	4	Finca Santa Victoria	11	Noviembre	2023-10-11T00:00:00	2024-11-08T23:00:00	8	Radiación solar	0
141557	7	Sololá	701	Sololá	4	Finca Santa Victoria	11	Noviembre	2023-11-11T00:00:00	2024-11-08T00:00:00	2	Temperatura media	15.3
141558	7	Sololá	701	Sololá	4	Finca Santa Victoria	11	Noviembre	2023-11-11T00:00:00	2024-11-08T00:00:00	4	Temperatura máxima	15.5
141559	7	Sololá	701	Sololá	4	Finca Santa Victoria	11	Noviembre	2023-11-11T00:00:00	2024-11-08T00:00:00	3	Temperatura mínima	15.1
141560	7	Sololá	701	Sololá	4	Finca Santa Victoria	11	Noviembre	2023-11-11T00:00:00	2024-11-08T00:00:00	5	Humedad	88
141561	7	Sololá	701	Sololá	4	Finca Santa Victoria	11	Noviembre	2023-11-11T00:00:00	2024-11-08T00:00:00	6	Velocidad del viento	3.2
141562	7	Sololá	701	Sololá	4	Finca Santa Victoria	11	Noviembre	2023-11-11T00:00:00	2024-11-08T00:00:00	7	Dirección del viento	3.22
141563	7	Sololá	701	Sololá	4	Finca Santa Victoria	11	Noviembre	2023-11-11T00:00:00	2024-11-08T00:00:00	1	Precipitación	0
141564	7	Sololá	701	Sololá	4	Finca Santa Victoria	11	Noviembre	2023-11-11T00:00:00	2024-11-08T00:00:00	8	Radiación solar	0
141565	7	Sololá	701	Sololá	4	Finca Santa Victoria	11	Noviembre	2023-11-11T00:00:00	2024-11-08T01:00:00	2	Temperatura media	14.8
141566	7	Sololá	701	Sololá	4	Finca Santa Victoria	11	Noviembre	2023-11-11T00:00:00	2024-11-08T01:00:00	4	Temperatura máxima	15.3
141567	7	Sololá	701	Sololá	4	Finca Santa Victoria	11	Noviembre	2023-11-11T00:00:00	2024-11-08T01:00:00	3	Temperatura mínima	14.8
141568	7	Sololá	701	Sololá	4	Finca Santa Victoria	11	Noviembre	2023-11-11T00:00:00	2024-11-08T01:00:00	5	Humedad	89
141569	7	Sololá	701	Sololá	4	Finca Santa Victoria	11	Noviembre	2023-11-11T00:00:00	2024-11-08T01:00:00	6	Velocidad del viento	3.2
141570	7	Sololá	701	Sololá	4	Finca Santa Victoria	11	Noviembre	2023-11-11T00:00:00	2024-11-08T01:00:00	7	Dirección del viento	3.22
141571	7	Sololá	701	Sololá	4	Finca Santa Victoria	11	Noviembre	2023-11-11T00:00:00	2024-11-08T01:00:00	1	Precipitación	0
141572	7	Sololá	701	Sololá	4	Finca Santa Victoria	11	Noviembre	2023-11-11T00:00:00	2024-11-08T01:00:00	8	Radiación solar	0
141573	7	Sololá	701	Sololá	4	Finca Santa Victoria	11	Noviembre	2023-11-11T00:00:00	2024-11-08T02:00:00	2	Temperatura media	15
141574	7	Sololá	701	Sololá	4	Finca Santa Victoria	11	Noviembre	2023-11-11T00:00:00	2024-11-08T02:00:00	4	Temperatura máxima	15.1
141575	7	Sololá	701	Sololá	4	Finca Santa Victoria	11	Noviembre	2023-11-11T00:00:00	2024-11-08T02:00:00	3	Temperatura mínima	14.7
141576	7	Sololá	701	Sololá	4	Finca Santa Victoria	11	Noviembre	2023-11-11T00:00:00	2024-11-08T02:00:00	5	Humedad	88
141577	7	Sololá	701	Sololá	4	Finca Santa Victoria	11	Noviembre	2023-11-11T00:00:00	2024-11-08T02:00:00	6	Velocidad del viento	3.2
141578	7	Sololá	701	Sololá	4	Finca Santa Victoria	11	Noviembre	2023-11-11T00:00:00	2024-11-08T02:00:00	7	Dirección del viento	3.22
141579	7	Sololá	701	Sololá	4	Finca Santa Victoria	11	Noviembre	2023-11-11T00:00:00	2024-11-08T02:00:00	1	Precipitación	0
141580	7	Sololá	701	Sololá	4	Finca Santa Victoria	11	Noviembre	2023-11-11T00:00:00	2024-11-08T02:00:00	8	Radiación solar	0
141581	7	Sololá	701	Sololá	4	Finca Santa Victoria	11	Noviembre	2023-11-11T00:00:00	2024-11-08T03:00:00	2	Temperatura media	14.9
141582	7	Sololá	701	Sololá	4	Finca Santa Victoria	11	Noviembre	2023-11-11T00:00:00	2024-11-08T03:00:00	4	Temperatura máxima	15.3
141583	7	Sololá	701	Sololá	4	Finca Santa Victoria	11	Noviembre	2023-11-11T00:00:00	2024-11-08T03:00:00	3	Temperatura mínima	14.9
141584	7	Sololá	701	Sololá	4	Finca Santa Victoria	11	Noviembre	2023-11-11T00:00:00	2024-11-08T03:00:00	5	Humedad	89
141585	7	Sololá	701	Sololá	4	Finca Santa Victoria	11	Noviembre	2023-11-11T00:00:00	2024-11-08T03:00:00	6	Velocidad del viento	3.2
141586	7	Sololá	701	Sololá	4	Finca Santa Victoria	11	Noviembre	2023-11-11T00:00:00	2024-11-08T03:00:00	7	Dirección del viento	3.22
141587	7	Sololá	701	Sololá	4	Finca Santa Victoria	11	Noviembre	2023-11-11T00:00:00	2024-11-08T03:00:00	1	Precipitación	0
141588	7	Sololá	701	Sololá	4	Finca Santa Victoria	11	Noviembre	2023-11-11T00:00:00	2024-11-08T03:00:00	8	Radiación solar	0
141589	7	Sololá	701	Sololá	4	Finca Santa Victoria	11	Noviembre	2023-11-11T00:00:00	2024-11-08T04:00:00	2	Temperatura media	14.2
141590	7	Sololá	701	Sololá	4	Finca Santa Victoria	11	Noviembre	2023-11-11T00:00:00	2024-11-08T04:00:00	4	Temperatura máxima	14.9
141591	7	Sololá	701	Sololá	4	Finca Santa Victoria	11	Noviembre	2023-11-11T00:00:00	2024-11-08T04:00:00	3	Temperatura mínima	14.1
141592	7	Sololá	701	Sololá	4	Finca Santa Victoria	11	Noviembre	2023-11-11T00:00:00	2024-11-08T04:00:00	5	Humedad	91
141593	7	Sololá	701	Sololá	4	Finca Santa Victoria	11	Noviembre	2023-11-11T00:00:00	2024-11-08T04:00:00	6	Velocidad del viento	1.6
141594	7	Sololá	701	Sololá	4	Finca Santa Victoria	11	Noviembre	2023-11-11T00:00:00	2024-11-08T04:00:00	7	Dirección del viento	1.61
141595	7	Sololá	701	Sololá	4	Finca Santa Victoria	11	Noviembre	2023-11-11T00:00:00	2024-11-08T04:00:00	1	Precipitación	0
141596	7	Sololá	701	Sololá	4	Finca Santa Victoria	11	Noviembre	2023-11-11T00:00:00	2024-11-08T04:00:00	8	Radiación solar	0
141597	7	Sololá	701	Sololá	4	Finca Santa Victoria	11	Noviembre	2023-11-11T00:00:00	2024-11-08T05:00:00	2	Temperatura media	14.8
141598	7	Sololá	701	Sololá	4	Finca Santa Victoria	11	Noviembre	2023-11-11T00:00:00	2024-11-08T05:00:00	4	Temperatura máxima	14.8
141599	7	Sololá	701	Sololá	4	Finca Santa Victoria	11	Noviembre	2023-11-11T00:00:00	2024-11-08T05:00:00	3	Temperatura mínima	14
141600	7	Sololá	701	Sololá	4	Finca Santa Victoria	11	Noviembre	2023-11-11T00:00:00	2024-11-08T05:00:00	5	Humedad	90
141601	7	Sololá	701	Sololá	4	Finca Santa Victoria	11	Noviembre	2023-11-11T00:00:00	2024-11-08T05:00:00	6	Velocidad del viento	1.6
141602	7	Sololá	701	Sololá	4	Finca Santa Victoria	11	Noviembre	2023-11-11T00:00:00	2024-11-08T05:00:00	7	Dirección del viento	1.61
141603	7	Sololá	701	Sololá	4	Finca Santa Victoria	11	Noviembre	2023-11-11T00:00:00	2024-11-08T05:00:00	1	Precipitación	0
141604	7	Sololá	701	Sololá	4	Finca Santa Victoria	11	Noviembre	2023-11-11T00:00:00	2024-11-08T05:00:00	8	Radiación solar	0
141605	7	Sololá	701	Sololá	4	Finca Santa Victoria	11	Noviembre	2023-11-11T00:00:00	2024-11-08T06:00:00	2	Temperatura media	14.8
141606	7	Sololá	701	Sololá	4	Finca Santa Victoria	11	Noviembre	2023-11-11T00:00:00	2024-11-08T06:00:00	4	Temperatura máxima	15.1
141607	7	Sololá	701	Sololá	4	Finca Santa Victoria	11	Noviembre	2023-11-11T00:00:00	2024-11-08T06:00:00	3	Temperatura mínima	14.8
141608	7	Sololá	701	Sololá	4	Finca Santa Victoria	11	Noviembre	2023-11-11T00:00:00	2024-11-08T06:00:00	5	Humedad	88
141609	7	Sololá	701	Sololá	4	Finca Santa Victoria	11	Noviembre	2023-11-11T00:00:00	2024-11-08T06:00:00	6	Velocidad del viento	3.2
141610	7	Sololá	701	Sololá	4	Finca Santa Victoria	11	Noviembre	2023-11-11T00:00:00	2024-11-08T06:00:00	7	Dirección del viento	3.22
141611	7	Sololá	701	Sololá	4	Finca Santa Victoria	11	Noviembre	2023-11-11T00:00:00	2024-11-08T06:00:00	1	Precipitación	0
141612	7	Sololá	701	Sololá	4	Finca Santa Victoria	11	Noviembre	2023-11-11T00:00:00	2024-11-08T06:00:00	8	Radiación solar	0
141613	7	Sololá	701	Sololá	4	Finca Santa Victoria	11	Noviembre	2023-11-11T00:00:00	2024-11-08T07:00:00	2	Temperatura media	15.2
141614	7	Sololá	701	Sololá	4	Finca Santa Victoria	11	Noviembre	2023-11-11T00:00:00	2024-11-08T07:00:00	4	Temperatura máxima	15.2
141615	7	Sololá	701	Sololá	4	Finca Santa Victoria	11	Noviembre	2023-11-11T00:00:00	2024-11-08T07:00:00	3	Temperatura mínima	14.8
141616	7	Sololá	701	Sololá	4	Finca Santa Victoria	11	Noviembre	2023-11-11T00:00:00	2024-11-08T07:00:00	5	Humedad	87
141617	7	Sololá	701	Sololá	4	Finca Santa Victoria	11	Noviembre	2023-11-11T00:00:00	2024-11-08T07:00:00	6	Velocidad del viento	3.2
141618	7	Sololá	701	Sololá	4	Finca Santa Victoria	11	Noviembre	2023-11-11T00:00:00	2024-11-08T07:00:00	7	Dirección del viento	3.22
141619	7	Sololá	701	Sololá	4	Finca Santa Victoria	11	Noviembre	2023-11-11T00:00:00	2024-11-08T07:00:00	1	Precipitación	0
141620	7	Sololá	701	Sololá	4	Finca Santa Victoria	11	Noviembre	2023-11-11T00:00:00	2024-11-08T07:00:00	8	Radiación solar	16
141621	7	Sololá	701	Sololá	4	Finca Santa Victoria	11	Noviembre	2023-11-11T00:00:00	2024-11-08T08:00:00	2	Temperatura media	16.8
141622	7	Sololá	701	Sololá	4	Finca Santa Victoria	11	Noviembre	2023-11-11T00:00:00	2024-11-08T08:00:00	4	Temperatura máxima	16.8
141623	7	Sololá	701	Sololá	4	Finca Santa Victoria	11	Noviembre	2023-11-11T00:00:00	2024-11-08T08:00:00	3	Temperatura mínima	15.2
141624	7	Sololá	701	Sololá	4	Finca Santa Victoria	11	Noviembre	2023-11-11T00:00:00	2024-11-08T08:00:00	5	Humedad	80
141625	7	Sololá	701	Sololá	4	Finca Santa Victoria	11	Noviembre	2023-11-11T00:00:00	2024-11-08T08:00:00	6	Velocidad del viento	3.2
141626	7	Sololá	701	Sololá	4	Finca Santa Victoria	11	Noviembre	2023-11-11T00:00:00	2024-11-08T08:00:00	7	Dirección del viento	3.22
141627	7	Sololá	701	Sololá	4	Finca Santa Victoria	11	Noviembre	2023-11-11T00:00:00	2024-11-08T08:00:00	1	Precipitación	0
141628	7	Sololá	701	Sololá	4	Finca Santa Victoria	11	Noviembre	2023-11-11T00:00:00	2024-11-08T08:00:00	8	Radiación solar	56
141629	7	Sololá	701	Sololá	4	Finca Santa Victoria	11	Noviembre	2023-11-11T00:00:00	2024-11-08T09:00:00	2	Temperatura media	18.2
141630	7	Sololá	701	Sololá	4	Finca Santa Victoria	11	Noviembre	2023-11-11T00:00:00	2024-11-08T09:00:00	4	Temperatura máxima	18.2
141631	7	Sololá	701	Sololá	4	Finca Santa Victoria	11	Noviembre	2023-11-11T00:00:00	2024-11-08T09:00:00	3	Temperatura mínima	16.8
141632	7	Sololá	701	Sololá	4	Finca Santa Victoria	11	Noviembre	2023-11-11T00:00:00	2024-11-08T09:00:00	5	Humedad	77
141633	7	Sololá	701	Sololá	4	Finca Santa Victoria	11	Noviembre	2023-11-11T00:00:00	2024-11-08T09:00:00	6	Velocidad del viento	4.8
141634	7	Sololá	701	Sololá	4	Finca Santa Victoria	11	Noviembre	2023-11-11T00:00:00	2024-11-08T09:00:00	7	Dirección del viento	4.83
141635	7	Sololá	701	Sololá	4	Finca Santa Victoria	11	Noviembre	2023-11-11T00:00:00	2024-11-08T09:00:00	1	Precipitación	0
141636	7	Sololá	701	Sololá	4	Finca Santa Victoria	11	Noviembre	2023-11-11T00:00:00	2024-11-08T09:00:00	8	Radiación solar	126
141637	7	Sololá	701	Sololá	4	Finca Santa Victoria	11	Noviembre	2023-11-11T00:00:00	2024-11-08T10:00:00	2	Temperatura media	19.2
141638	7	Sololá	701	Sololá	4	Finca Santa Victoria	11	Noviembre	2023-11-11T00:00:00	2024-11-08T10:00:00	4	Temperatura máxima	19.5
141639	7	Sololá	701	Sololá	4	Finca Santa Victoria	11	Noviembre	2023-11-11T00:00:00	2024-11-08T10:00:00	3	Temperatura mínima	18.2
141640	7	Sololá	701	Sololá	4	Finca Santa Victoria	11	Noviembre	2023-11-11T00:00:00	2024-11-08T10:00:00	5	Humedad	75
141641	7	Sololá	701	Sololá	4	Finca Santa Victoria	11	Noviembre	2023-11-11T00:00:00	2024-11-08T10:00:00	6	Velocidad del viento	4.8
141642	7	Sololá	701	Sololá	4	Finca Santa Victoria	11	Noviembre	2023-11-11T00:00:00	2024-11-08T10:00:00	7	Dirección del viento	4.83
141643	7	Sololá	701	Sololá	4	Finca Santa Victoria	11	Noviembre	2023-11-11T00:00:00	2024-11-08T10:00:00	1	Precipitación	0
141644	7	Sololá	701	Sololá	4	Finca Santa Victoria	11	Noviembre	2023-11-11T00:00:00	2024-11-08T10:00:00	8	Radiación solar	267
141645	7	Sololá	701	Sololá	4	Finca Santa Victoria	11	Noviembre	2023-11-11T00:00:00	2024-11-08T11:00:00	2	Temperatura media	20.4
141646	7	Sololá	701	Sololá	4	Finca Santa Victoria	11	Noviembre	2023-11-11T00:00:00	2024-11-08T11:00:00	4	Temperatura máxima	20.4
141647	7	Sololá	701	Sololá	4	Finca Santa Victoria	11	Noviembre	2023-11-11T00:00:00	2024-11-08T11:00:00	3	Temperatura mínima	19.2
141648	7	Sololá	701	Sololá	4	Finca Santa Victoria	11	Noviembre	2023-11-11T00:00:00	2024-11-08T11:00:00	5	Humedad	73
141649	7	Sololá	701	Sololá	4	Finca Santa Victoria	11	Noviembre	2023-11-11T00:00:00	2024-11-08T11:00:00	6	Velocidad del viento	4.8
141650	7	Sololá	701	Sololá	4	Finca Santa Victoria	11	Noviembre	2023-11-11T00:00:00	2024-11-08T11:00:00	7	Dirección del viento	4.83
141651	7	Sololá	701	Sololá	4	Finca Santa Victoria	11	Noviembre	2023-11-11T00:00:00	2024-11-08T11:00:00	1	Precipitación	0
141652	7	Sololá	701	Sololá	4	Finca Santa Victoria	11	Noviembre	2023-11-11T00:00:00	2024-11-08T11:00:00	8	Radiación solar	618
141653	7	Sololá	701	Sololá	4	Finca Santa Victoria	11	Noviembre	2023-11-11T00:00:00	2024-11-08T12:00:00	2	Temperatura media	21.4
141654	7	Sololá	701	Sololá	4	Finca Santa Victoria	11	Noviembre	2023-11-11T00:00:00	2024-11-08T12:00:00	4	Temperatura máxima	21.7
141655	7	Sololá	701	Sololá	4	Finca Santa Victoria	11	Noviembre	2023-11-11T00:00:00	2024-11-08T12:00:00	3	Temperatura mínima	20.4
141656	7	Sololá	701	Sololá	4	Finca Santa Victoria	11	Noviembre	2023-11-11T00:00:00	2024-11-08T12:00:00	5	Humedad	70
141657	7	Sololá	701	Sololá	4	Finca Santa Victoria	11	Noviembre	2023-11-11T00:00:00	2024-11-08T12:00:00	6	Velocidad del viento	3.2
141658	7	Sololá	701	Sololá	4	Finca Santa Victoria	11	Noviembre	2023-11-11T00:00:00	2024-11-08T12:00:00	7	Dirección del viento	3.22
141659	7	Sololá	701	Sololá	4	Finca Santa Victoria	11	Noviembre	2023-11-11T00:00:00	2024-11-08T12:00:00	1	Precipitación	0
141660	7	Sololá	701	Sololá	4	Finca Santa Victoria	11	Noviembre	2023-11-11T00:00:00	2024-11-08T12:00:00	8	Radiación solar	893
141661	7	Sololá	701	Sololá	4	Finca Santa Victoria	11	Noviembre	2023-11-11T00:00:00	2024-11-08T13:00:00	2	Temperatura media	21.2
141662	7	Sololá	701	Sololá	4	Finca Santa Victoria	11	Noviembre	2023-11-11T00:00:00	2024-11-08T13:00:00	4	Temperatura máxima	22
141663	7	Sololá	701	Sololá	4	Finca Santa Victoria	11	Noviembre	2023-11-11T00:00:00	2024-11-08T13:00:00	3	Temperatura mínima	21.1
141664	7	Sololá	701	Sololá	4	Finca Santa Victoria	11	Noviembre	2023-11-11T00:00:00	2024-11-08T13:00:00	5	Humedad	67
141665	7	Sololá	701	Sololá	4	Finca Santa Victoria	11	Noviembre	2023-11-11T00:00:00	2024-11-08T13:00:00	6	Velocidad del viento	4.8
141666	7	Sololá	701	Sololá	4	Finca Santa Victoria	11	Noviembre	2023-11-11T00:00:00	2024-11-08T13:00:00	7	Dirección del viento	4.83
141667	7	Sololá	701	Sololá	4	Finca Santa Victoria	11	Noviembre	2023-11-11T00:00:00	2024-11-08T13:00:00	1	Precipitación	0
141668	7	Sololá	701	Sololá	4	Finca Santa Victoria	11	Noviembre	2023-11-11T00:00:00	2024-11-08T13:00:00	8	Radiación solar	455
141669	7	Sololá	701	Sololá	4	Finca Santa Victoria	11	Noviembre	2023-11-11T00:00:00	2024-11-08T14:00:00	2	Temperatura media	21.1
141670	7	Sololá	701	Sololá	4	Finca Santa Victoria	11	Noviembre	2023-11-11T00:00:00	2024-11-08T14:00:00	4	Temperatura máxima	21.6
141671	7	Sololá	701	Sololá	4	Finca Santa Victoria	11	Noviembre	2023-11-11T00:00:00	2024-11-08T14:00:00	3	Temperatura mínima	20.2
141672	7	Sololá	701	Sololá	4	Finca Santa Victoria	11	Noviembre	2023-11-11T00:00:00	2024-11-08T14:00:00	5	Humedad	68
141673	7	Sololá	701	Sololá	4	Finca Santa Victoria	11	Noviembre	2023-11-11T00:00:00	2024-11-08T14:00:00	6	Velocidad del viento	4.8
141674	7	Sololá	701	Sololá	4	Finca Santa Victoria	11	Noviembre	2023-11-11T00:00:00	2024-11-08T14:00:00	7	Dirección del viento	4.83
141675	7	Sololá	701	Sololá	4	Finca Santa Victoria	11	Noviembre	2023-11-11T00:00:00	2024-11-08T14:00:00	1	Precipitación	0
141676	7	Sololá	701	Sololá	4	Finca Santa Victoria	11	Noviembre	2023-11-11T00:00:00	2024-11-08T14:00:00	8	Radiación solar	321
141677	7	Sololá	701	Sololá	4	Finca Santa Victoria	11	Noviembre	2023-11-11T00:00:00	2024-11-08T15:00:00	2	Temperatura media	21.3
141678	7	Sololá	701	Sololá	4	Finca Santa Victoria	11	Noviembre	2023-11-11T00:00:00	2024-11-08T15:00:00	4	Temperatura máxima	21.8
141679	7	Sololá	701	Sololá	4	Finca Santa Victoria	11	Noviembre	2023-11-11T00:00:00	2024-11-08T15:00:00	3	Temperatura mínima	20.3
141680	7	Sololá	701	Sololá	4	Finca Santa Victoria	11	Noviembre	2023-11-11T00:00:00	2024-11-08T15:00:00	5	Humedad	65
141681	7	Sololá	701	Sololá	4	Finca Santa Victoria	11	Noviembre	2023-11-11T00:00:00	2024-11-08T15:00:00	6	Velocidad del viento	4.8
141682	7	Sololá	701	Sololá	4	Finca Santa Victoria	11	Noviembre	2023-11-11T00:00:00	2024-11-08T15:00:00	7	Dirección del viento	4.83
141683	7	Sololá	701	Sololá	4	Finca Santa Victoria	11	Noviembre	2023-11-11T00:00:00	2024-11-08T15:00:00	1	Precipitación	0
141684	7	Sololá	701	Sololá	4	Finca Santa Victoria	11	Noviembre	2023-11-11T00:00:00	2024-11-08T15:00:00	8	Radiación solar	167
141685	7	Sololá	701	Sololá	4	Finca Santa Victoria	11	Noviembre	2023-11-11T00:00:00	2024-11-08T16:00:00	2	Temperatura media	19.7
141686	7	Sololá	701	Sololá	4	Finca Santa Victoria	11	Noviembre	2023-11-11T00:00:00	2024-11-08T16:00:00	4	Temperatura máxima	21.3
141687	7	Sololá	701	Sololá	4	Finca Santa Victoria	11	Noviembre	2023-11-11T00:00:00	2024-11-08T16:00:00	3	Temperatura mínima	18.9
141688	7	Sololá	701	Sololá	4	Finca Santa Victoria	11	Noviembre	2023-11-11T00:00:00	2024-11-08T16:00:00	5	Humedad	74
141689	7	Sololá	701	Sololá	4	Finca Santa Victoria	11	Noviembre	2023-11-11T00:00:00	2024-11-08T16:00:00	6	Velocidad del viento	3.2
141690	7	Sololá	701	Sololá	4	Finca Santa Victoria	11	Noviembre	2023-11-11T00:00:00	2024-11-08T16:00:00	7	Dirección del viento	3.22
141691	7	Sololá	701	Sololá	4	Finca Santa Victoria	11	Noviembre	2023-11-11T00:00:00	2024-11-08T16:00:00	1	Precipitación	0
141692	7	Sololá	701	Sololá	4	Finca Santa Victoria	11	Noviembre	2023-11-11T00:00:00	2024-11-08T16:00:00	8	Radiación solar	96
141693	7	Sololá	701	Sololá	4	Finca Santa Victoria	11	Noviembre	2023-11-11T00:00:00	2024-11-08T17:00:00	2	Temperatura media	17.9
141694	7	Sololá	701	Sololá	4	Finca Santa Victoria	11	Noviembre	2023-11-11T00:00:00	2024-11-08T17:00:00	4	Temperatura máxima	20.2
141695	7	Sololá	701	Sololá	4	Finca Santa Victoria	11	Noviembre	2023-11-11T00:00:00	2024-11-08T17:00:00	3	Temperatura mínima	17.9
141696	7	Sololá	701	Sololá	4	Finca Santa Victoria	11	Noviembre	2023-11-11T00:00:00	2024-11-08T17:00:00	5	Humedad	75
141697	7	Sololá	701	Sololá	4	Finca Santa Victoria	11	Noviembre	2023-11-11T00:00:00	2024-11-08T17:00:00	6	Velocidad del viento	3.2
141698	7	Sololá	701	Sololá	4	Finca Santa Victoria	11	Noviembre	2023-11-11T00:00:00	2024-11-08T17:00:00	7	Dirección del viento	3.22
141699	7	Sololá	701	Sololá	4	Finca Santa Victoria	11	Noviembre	2023-11-11T00:00:00	2024-11-08T17:00:00	1	Precipitación	0
141700	7	Sololá	701	Sololá	4	Finca Santa Victoria	11	Noviembre	2023-11-11T00:00:00	2024-11-08T17:00:00	8	Radiación solar	143
141701	7	Sololá	701	Sololá	4	Finca Santa Victoria	11	Noviembre	2023-11-11T00:00:00	2024-11-08T18:00:00	2	Temperatura media	16.3
141702	7	Sololá	701	Sololá	4	Finca Santa Victoria	11	Noviembre	2023-11-11T00:00:00	2024-11-08T18:00:00	4	Temperatura máxima	17.9
141703	7	Sololá	701	Sololá	4	Finca Santa Victoria	11	Noviembre	2023-11-11T00:00:00	2024-11-08T18:00:00	3	Temperatura mínima	16.2
141704	7	Sololá	701	Sololá	4	Finca Santa Victoria	11	Noviembre	2023-11-11T00:00:00	2024-11-08T18:00:00	5	Humedad	84
141705	7	Sololá	701	Sololá	4	Finca Santa Victoria	11	Noviembre	2023-11-11T00:00:00	2024-11-08T18:00:00	6	Velocidad del viento	3.2
141706	7	Sololá	701	Sololá	4	Finca Santa Victoria	11	Noviembre	2023-11-11T00:00:00	2024-11-08T18:00:00	7	Dirección del viento	3.22
141707	7	Sololá	701	Sololá	4	Finca Santa Victoria	11	Noviembre	2023-11-11T00:00:00	2024-11-08T18:00:00	1	Precipitación	0
141708	7	Sololá	701	Sololá	4	Finca Santa Victoria	11	Noviembre	2023-11-11T00:00:00	2024-11-08T18:00:00	8	Radiación solar	6
141709	7	Sololá	701	Sololá	4	Finca Santa Victoria	11	Noviembre	2023-11-11T00:00:00	2024-11-08T19:00:00	2	Temperatura media	15.8
141710	7	Sololá	701	Sololá	4	Finca Santa Victoria	11	Noviembre	2023-11-11T00:00:00	2024-11-08T19:00:00	4	Temperatura máxima	16.4
141711	7	Sololá	701	Sololá	4	Finca Santa Victoria	11	Noviembre	2023-11-11T00:00:00	2024-11-08T19:00:00	3	Temperatura mínima	15.8
141712	7	Sololá	701	Sololá	4	Finca Santa Victoria	11	Noviembre	2023-11-11T00:00:00	2024-11-08T19:00:00	5	Humedad	85
141713	7	Sololá	701	Sololá	4	Finca Santa Victoria	11	Noviembre	2023-11-11T00:00:00	2024-11-08T19:00:00	6	Velocidad del viento	4.8
141714	7	Sololá	701	Sololá	4	Finca Santa Victoria	11	Noviembre	2023-11-11T00:00:00	2024-11-08T19:00:00	7	Dirección del viento	4.83
141715	7	Sololá	701	Sololá	4	Finca Santa Victoria	11	Noviembre	2023-11-11T00:00:00	2024-11-08T19:00:00	1	Precipitación	0
141716	7	Sololá	701	Sololá	4	Finca Santa Victoria	11	Noviembre	2023-11-11T00:00:00	2024-11-08T19:00:00	8	Radiación solar	0
141717	7	Sololá	701	Sololá	4	Finca Santa Victoria	11	Noviembre	2023-11-11T00:00:00	2024-11-08T20:00:00	2	Temperatura media	15.3
141718	7	Sololá	701	Sololá	4	Finca Santa Victoria	11	Noviembre	2023-11-11T00:00:00	2024-11-08T20:00:00	4	Temperatura máxima	15.8
141719	7	Sololá	701	Sololá	4	Finca Santa Victoria	11	Noviembre	2023-11-11T00:00:00	2024-11-08T20:00:00	3	Temperatura mínima	15.2
141720	7	Sololá	701	Sololá	4	Finca Santa Victoria	11	Noviembre	2023-11-11T00:00:00	2024-11-08T20:00:00	5	Humedad	86
141721	7	Sololá	701	Sololá	4	Finca Santa Victoria	11	Noviembre	2023-11-11T00:00:00	2024-11-08T20:00:00	6	Velocidad del viento	4.8
141722	7	Sololá	701	Sololá	4	Finca Santa Victoria	11	Noviembre	2023-11-11T00:00:00	2024-11-08T20:00:00	7	Dirección del viento	4.83
141723	7	Sololá	701	Sololá	4	Finca Santa Victoria	11	Noviembre	2023-11-11T00:00:00	2024-11-08T20:00:00	1	Precipitación	0
141724	7	Sololá	701	Sololá	4	Finca Santa Victoria	11	Noviembre	2023-11-11T00:00:00	2024-11-08T20:00:00	8	Radiación solar	0
141725	7	Sololá	701	Sololá	4	Finca Santa Victoria	11	Noviembre	2023-11-11T00:00:00	2024-11-08T21:00:00	2	Temperatura media	15.6
141726	7	Sololá	701	Sololá	4	Finca Santa Victoria	11	Noviembre	2023-11-11T00:00:00	2024-11-08T21:00:00	4	Temperatura máxima	15.8
141727	7	Sololá	701	Sololá	4	Finca Santa Victoria	11	Noviembre	2023-11-11T00:00:00	2024-11-08T21:00:00	3	Temperatura mínima	15.3
141728	7	Sololá	701	Sololá	4	Finca Santa Victoria	11	Noviembre	2023-11-11T00:00:00	2024-11-08T21:00:00	5	Humedad	85
141729	7	Sololá	701	Sololá	4	Finca Santa Victoria	11	Noviembre	2023-11-11T00:00:00	2024-11-08T21:00:00	6	Velocidad del viento	6.4
141730	7	Sololá	701	Sololá	4	Finca Santa Victoria	11	Noviembre	2023-11-11T00:00:00	2024-11-08T21:00:00	7	Dirección del viento	6.44
141731	7	Sololá	701	Sololá	4	Finca Santa Victoria	11	Noviembre	2023-11-11T00:00:00	2024-11-08T21:00:00	1	Precipitación	0
141732	7	Sololá	701	Sololá	4	Finca Santa Victoria	11	Noviembre	2023-11-11T00:00:00	2024-11-08T21:00:00	8	Radiación solar	0
141733	7	Sololá	701	Sololá	4	Finca Santa Victoria	11	Noviembre	2023-11-11T00:00:00	2024-11-08T22:00:00	2	Temperatura media	15.4
141734	7	Sololá	701	Sololá	4	Finca Santa Victoria	11	Noviembre	2023-11-11T00:00:00	2024-11-08T22:00:00	4	Temperatura máxima	15.6
141735	7	Sololá	701	Sololá	4	Finca Santa Victoria	11	Noviembre	2023-11-11T00:00:00	2024-11-08T22:00:00	3	Temperatura mínima	15.4
141736	7	Sololá	701	Sololá	4	Finca Santa Victoria	11	Noviembre	2023-11-11T00:00:00	2024-11-08T22:00:00	5	Humedad	86
141737	7	Sololá	701	Sololá	4	Finca Santa Victoria	11	Noviembre	2023-11-11T00:00:00	2024-11-08T22:00:00	6	Velocidad del viento	3.2
141738	7	Sololá	701	Sololá	4	Finca Santa Victoria	11	Noviembre	2023-11-11T00:00:00	2024-11-08T22:00:00	7	Dirección del viento	3.22
141739	7	Sololá	701	Sololá	4	Finca Santa Victoria	11	Noviembre	2023-11-11T00:00:00	2024-11-08T22:00:00	1	Precipitación	0
141740	7	Sololá	701	Sololá	4	Finca Santa Victoria	11	Noviembre	2023-11-11T00:00:00	2024-11-08T22:00:00	8	Radiación solar	0
141741	7	Sololá	701	Sololá	4	Finca Santa Victoria	11	Noviembre	2023-11-11T00:00:00	2024-11-08T23:00:00	2	Temperatura media	15.1
141742	7	Sololá	701	Sololá	4	Finca Santa Victoria	11	Noviembre	2023-11-11T00:00:00	2024-11-08T23:00:00	4	Temperatura máxima	15.4
141743	7	Sololá	701	Sololá	4	Finca Santa Victoria	11	Noviembre	2023-11-11T00:00:00	2024-11-08T23:00:00	3	Temperatura mínima	15.1
141744	7	Sololá	701	Sololá	4	Finca Santa Victoria	11	Noviembre	2023-11-11T00:00:00	2024-11-08T23:00:00	5	Humedad	90
141745	7	Sololá	701	Sololá	4	Finca Santa Victoria	11	Noviembre	2023-11-11T00:00:00	2024-11-08T23:00:00	6	Velocidad del viento	3.2
141746	7	Sololá	701	Sololá	4	Finca Santa Victoria	11	Noviembre	2023-11-11T00:00:00	2024-11-08T23:00:00	7	Dirección del viento	3.22
141747	7	Sololá	701	Sololá	4	Finca Santa Victoria	11	Noviembre	2023-11-11T00:00:00	2024-11-08T23:00:00	1	Precipitación	0
141748	7	Sololá	701	Sololá	4	Finca Santa Victoria	11	Noviembre	2023-11-11T00:00:00	2024-11-08T23:00:00	8	Radiación solar	0
141749	7	Sololá	701	Sololá	4	Finca Santa Victoria	11	Noviembre	2023-12-11T00:00:00	2024-11-08T00:00:00	2	Temperatura media	15.1
141750	7	Sololá	701	Sololá	4	Finca Santa Victoria	11	Noviembre	2023-12-11T00:00:00	2024-11-08T00:00:00	4	Temperatura máxima	15.1
141751	7	Sololá	701	Sololá	4	Finca Santa Victoria	11	Noviembre	2023-12-11T00:00:00	2024-11-08T00:00:00	3	Temperatura mínima	15
141752	7	Sololá	701	Sololá	4	Finca Santa Victoria	11	Noviembre	2023-12-11T00:00:00	2024-11-08T00:00:00	5	Humedad	91
141753	7	Sololá	701	Sololá	4	Finca Santa Victoria	11	Noviembre	2023-12-11T00:00:00	2024-11-08T00:00:00	6	Velocidad del viento	3.2
141754	7	Sololá	701	Sololá	4	Finca Santa Victoria	11	Noviembre	2023-12-11T00:00:00	2024-11-08T00:00:00	7	Dirección del viento	3.22
141755	7	Sololá	701	Sololá	4	Finca Santa Victoria	11	Noviembre	2023-12-11T00:00:00	2024-11-08T00:00:00	1	Precipitación	0
141756	7	Sololá	701	Sololá	4	Finca Santa Victoria	11	Noviembre	2023-12-11T00:00:00	2024-11-08T00:00:00	8	Radiación solar	0
141757	7	Sololá	701	Sololá	4	Finca Santa Victoria	11	Noviembre	2023-12-11T00:00:00	2024-11-08T01:00:00	2	Temperatura media	14.7
141758	7	Sololá	701	Sololá	4	Finca Santa Victoria	11	Noviembre	2023-12-11T00:00:00	2024-11-08T01:00:00	4	Temperatura máxima	15.1
141759	7	Sololá	701	Sololá	4	Finca Santa Victoria	11	Noviembre	2023-12-11T00:00:00	2024-11-08T01:00:00	3	Temperatura mínima	14.5
141760	7	Sololá	701	Sololá	4	Finca Santa Victoria	11	Noviembre	2023-12-11T00:00:00	2024-11-08T01:00:00	5	Humedad	92
141761	7	Sololá	701	Sololá	4	Finca Santa Victoria	11	Noviembre	2023-12-11T00:00:00	2024-11-08T01:00:00	6	Velocidad del viento	1.6
141762	7	Sololá	701	Sololá	4	Finca Santa Victoria	11	Noviembre	2023-12-11T00:00:00	2024-11-08T01:00:00	7	Dirección del viento	1.61
141763	7	Sololá	701	Sololá	4	Finca Santa Victoria	11	Noviembre	2023-12-11T00:00:00	2024-11-08T01:00:00	1	Precipitación	0
141764	7	Sololá	701	Sololá	4	Finca Santa Victoria	11	Noviembre	2023-12-11T00:00:00	2024-11-08T01:00:00	8	Radiación solar	0
141765	7	Sololá	701	Sololá	4	Finca Santa Victoria	11	Noviembre	2023-12-11T00:00:00	2024-11-08T02:00:00	2	Temperatura media	14.7
141766	7	Sololá	701	Sololá	4	Finca Santa Victoria	11	Noviembre	2023-12-11T00:00:00	2024-11-08T02:00:00	4	Temperatura máxima	14.9
141767	7	Sololá	701	Sololá	4	Finca Santa Victoria	11	Noviembre	2023-12-11T00:00:00	2024-11-08T02:00:00	3	Temperatura mínima	14.6
141768	7	Sololá	701	Sololá	4	Finca Santa Victoria	11	Noviembre	2023-12-11T00:00:00	2024-11-08T02:00:00	5	Humedad	91
141769	7	Sololá	701	Sololá	4	Finca Santa Victoria	11	Noviembre	2023-12-11T00:00:00	2024-11-08T02:00:00	6	Velocidad del viento	1.6
141770	7	Sololá	701	Sololá	4	Finca Santa Victoria	11	Noviembre	2023-12-11T00:00:00	2024-11-08T02:00:00	7	Dirección del viento	1.61
141771	7	Sololá	701	Sololá	4	Finca Santa Victoria	11	Noviembre	2023-12-11T00:00:00	2024-11-08T02:00:00	1	Precipitación	0
141772	7	Sololá	701	Sololá	4	Finca Santa Victoria	11	Noviembre	2023-12-11T00:00:00	2024-11-08T02:00:00	8	Radiación solar	0
141773	7	Sololá	701	Sololá	4	Finca Santa Victoria	11	Noviembre	2023-12-11T00:00:00	2024-11-08T03:00:00	2	Temperatura media	14.7
141774	7	Sololá	701	Sololá	4	Finca Santa Victoria	11	Noviembre	2023-12-11T00:00:00	2024-11-08T03:00:00	4	Temperatura máxima	14.7
141775	7	Sololá	701	Sololá	4	Finca Santa Victoria	11	Noviembre	2023-12-11T00:00:00	2024-11-08T03:00:00	3	Temperatura mínima	14.5
141776	7	Sololá	701	Sololá	4	Finca Santa Victoria	11	Noviembre	2023-12-11T00:00:00	2024-11-08T03:00:00	5	Humedad	91
141777	7	Sololá	701	Sololá	4	Finca Santa Victoria	11	Noviembre	2023-12-11T00:00:00	2024-11-08T03:00:00	6	Velocidad del viento	3.2
141778	7	Sololá	701	Sololá	4	Finca Santa Victoria	11	Noviembre	2023-12-11T00:00:00	2024-11-08T03:00:00	7	Dirección del viento	3.22
141779	7	Sololá	701	Sololá	4	Finca Santa Victoria	11	Noviembre	2023-12-11T00:00:00	2024-11-08T03:00:00	1	Precipitación	0
141780	7	Sololá	701	Sololá	4	Finca Santa Victoria	11	Noviembre	2023-12-11T00:00:00	2024-11-08T03:00:00	8	Radiación solar	0
141781	7	Sololá	701	Sololá	4	Finca Santa Victoria	11	Noviembre	2023-12-11T00:00:00	2024-11-08T04:00:00	2	Temperatura media	14.4
141782	7	Sololá	701	Sololá	4	Finca Santa Victoria	11	Noviembre	2023-12-11T00:00:00	2024-11-08T04:00:00	4	Temperatura máxima	14.7
141783	7	Sololá	701	Sololá	4	Finca Santa Victoria	11	Noviembre	2023-12-11T00:00:00	2024-11-08T04:00:00	3	Temperatura mínima	14.3
141784	7	Sololá	701	Sololá	4	Finca Santa Victoria	11	Noviembre	2023-12-11T00:00:00	2024-11-08T04:00:00	5	Humedad	90
141785	7	Sololá	701	Sololá	4	Finca Santa Victoria	11	Noviembre	2023-12-11T00:00:00	2024-11-08T04:00:00	6	Velocidad del viento	1.6
141786	7	Sololá	701	Sololá	4	Finca Santa Victoria	11	Noviembre	2023-12-11T00:00:00	2024-11-08T04:00:00	7	Dirección del viento	1.61
141787	7	Sololá	701	Sololá	4	Finca Santa Victoria	11	Noviembre	2023-12-11T00:00:00	2024-11-08T04:00:00	1	Precipitación	0
141788	7	Sololá	701	Sololá	4	Finca Santa Victoria	11	Noviembre	2023-12-11T00:00:00	2024-11-08T04:00:00	8	Radiación solar	0
141789	7	Sololá	701	Sololá	4	Finca Santa Victoria	11	Noviembre	2023-12-11T00:00:00	2024-11-08T05:00:00	2	Temperatura media	14.6
141790	7	Sololá	701	Sololá	4	Finca Santa Victoria	11	Noviembre	2023-12-11T00:00:00	2024-11-08T05:00:00	4	Temperatura máxima	14.7
141791	7	Sololá	701	Sololá	4	Finca Santa Victoria	11	Noviembre	2023-12-11T00:00:00	2024-11-08T05:00:00	3	Temperatura mínima	14.4
141792	7	Sololá	701	Sololá	4	Finca Santa Victoria	11	Noviembre	2023-12-11T00:00:00	2024-11-08T05:00:00	5	Humedad	92
141793	7	Sololá	701	Sololá	4	Finca Santa Victoria	11	Noviembre	2023-12-11T00:00:00	2024-11-08T05:00:00	6	Velocidad del viento	3.2
141794	7	Sololá	701	Sololá	4	Finca Santa Victoria	11	Noviembre	2023-12-11T00:00:00	2024-11-08T05:00:00	7	Dirección del viento	3.22
141795	7	Sololá	701	Sololá	4	Finca Santa Victoria	11	Noviembre	2023-12-11T00:00:00	2024-11-08T05:00:00	1	Precipitación	0
141796	7	Sololá	701	Sololá	4	Finca Santa Victoria	11	Noviembre	2023-12-11T00:00:00	2024-11-08T05:00:00	8	Radiación solar	0
141797	7	Sololá	701	Sololá	4	Finca Santa Victoria	11	Noviembre	2023-12-11T00:00:00	2024-11-08T06:00:00	2	Temperatura media	14.4
141798	7	Sololá	701	Sololá	4	Finca Santa Victoria	11	Noviembre	2023-12-11T00:00:00	2024-11-08T06:00:00	4	Temperatura máxima	14.7
141799	7	Sololá	701	Sololá	4	Finca Santa Victoria	11	Noviembre	2023-12-11T00:00:00	2024-11-08T06:00:00	3	Temperatura mínima	14.4
141800	7	Sololá	701	Sololá	4	Finca Santa Victoria	11	Noviembre	2023-12-11T00:00:00	2024-11-08T06:00:00	5	Humedad	89
141801	7	Sololá	701	Sololá	4	Finca Santa Victoria	11	Noviembre	2023-12-11T00:00:00	2024-11-08T06:00:00	6	Velocidad del viento	4.8
141802	7	Sololá	701	Sololá	4	Finca Santa Victoria	11	Noviembre	2023-12-11T00:00:00	2024-11-08T06:00:00	7	Dirección del viento	4.83
141803	7	Sololá	701	Sololá	4	Finca Santa Victoria	11	Noviembre	2023-12-11T00:00:00	2024-11-08T06:00:00	1	Precipitación	0
141804	7	Sololá	701	Sololá	4	Finca Santa Victoria	11	Noviembre	2023-12-11T00:00:00	2024-11-08T06:00:00	8	Radiación solar	0
141805	7	Sololá	701	Sololá	4	Finca Santa Victoria	11	Noviembre	2023-12-11T00:00:00	2024-11-08T07:00:00	2	Temperatura media	14.9
141806	7	Sololá	701	Sololá	4	Finca Santa Victoria	11	Noviembre	2023-12-11T00:00:00	2024-11-08T07:00:00	4	Temperatura máxima	14.9
141807	7	Sololá	701	Sololá	4	Finca Santa Victoria	11	Noviembre	2023-12-11T00:00:00	2024-11-08T07:00:00	3	Temperatura mínima	14.3
141808	7	Sololá	701	Sololá	4	Finca Santa Victoria	11	Noviembre	2023-12-11T00:00:00	2024-11-08T07:00:00	5	Humedad	89
141809	7	Sololá	701	Sololá	4	Finca Santa Victoria	11	Noviembre	2023-12-11T00:00:00	2024-11-08T07:00:00	6	Velocidad del viento	3.2
141810	7	Sololá	701	Sololá	4	Finca Santa Victoria	11	Noviembre	2023-12-11T00:00:00	2024-11-08T07:00:00	7	Dirección del viento	3.22
141811	7	Sololá	701	Sololá	4	Finca Santa Victoria	11	Noviembre	2023-12-11T00:00:00	2024-11-08T07:00:00	1	Precipitación	0
141812	7	Sololá	701	Sololá	4	Finca Santa Victoria	11	Noviembre	2023-12-11T00:00:00	2024-11-08T07:00:00	8	Radiación solar	19
141813	7	Sololá	701	Sololá	4	Finca Santa Victoria	11	Noviembre	2023-12-11T00:00:00	2024-11-08T08:00:00	2	Temperatura media	16.4
141814	7	Sololá	701	Sololá	4	Finca Santa Victoria	11	Noviembre	2023-12-11T00:00:00	2024-11-08T08:00:00	4	Temperatura máxima	16.4
141815	7	Sololá	701	Sololá	4	Finca Santa Victoria	11	Noviembre	2023-12-11T00:00:00	2024-11-08T08:00:00	3	Temperatura mínima	14.9
141816	7	Sololá	701	Sololá	4	Finca Santa Victoria	11	Noviembre	2023-12-11T00:00:00	2024-11-08T08:00:00	5	Humedad	82
141817	7	Sololá	701	Sololá	4	Finca Santa Victoria	11	Noviembre	2023-12-11T00:00:00	2024-11-08T08:00:00	6	Velocidad del viento	3.2
141818	7	Sololá	701	Sololá	4	Finca Santa Victoria	11	Noviembre	2023-12-11T00:00:00	2024-11-08T08:00:00	7	Dirección del viento	3.22
141819	7	Sololá	701	Sololá	4	Finca Santa Victoria	11	Noviembre	2023-12-11T00:00:00	2024-11-08T08:00:00	1	Precipitación	0
141820	7	Sololá	701	Sololá	4	Finca Santa Victoria	11	Noviembre	2023-12-11T00:00:00	2024-11-08T08:00:00	8	Radiación solar	64
141821	7	Sololá	701	Sololá	4	Finca Santa Victoria	11	Noviembre	2023-12-11T00:00:00	2024-11-08T09:00:00	2	Temperatura media	18.2
141822	7	Sololá	701	Sololá	4	Finca Santa Victoria	11	Noviembre	2023-12-11T00:00:00	2024-11-08T09:00:00	4	Temperatura máxima	18.2
141823	7	Sololá	701	Sololá	4	Finca Santa Victoria	11	Noviembre	2023-12-11T00:00:00	2024-11-08T09:00:00	3	Temperatura mínima	16.4
141824	7	Sololá	701	Sololá	4	Finca Santa Victoria	11	Noviembre	2023-12-11T00:00:00	2024-11-08T09:00:00	5	Humedad	75
141825	7	Sololá	701	Sololá	4	Finca Santa Victoria	11	Noviembre	2023-12-11T00:00:00	2024-11-08T09:00:00	6	Velocidad del viento	4.8
141826	7	Sololá	701	Sololá	4	Finca Santa Victoria	11	Noviembre	2023-12-11T00:00:00	2024-11-08T09:00:00	7	Dirección del viento	4.83
141827	7	Sololá	701	Sololá	4	Finca Santa Victoria	11	Noviembre	2023-12-11T00:00:00	2024-11-08T09:00:00	1	Precipitación	0
141828	7	Sololá	701	Sololá	4	Finca Santa Victoria	11	Noviembre	2023-12-11T00:00:00	2024-11-08T09:00:00	8	Radiación solar	114
141829	7	Sololá	701	Sololá	4	Finca Santa Victoria	11	Noviembre	2023-12-11T00:00:00	2024-11-08T10:00:00	2	Temperatura media	19.9
141830	7	Sololá	701	Sololá	4	Finca Santa Victoria	11	Noviembre	2023-12-11T00:00:00	2024-11-08T10:00:00	4	Temperatura máxima	20.1
141831	7	Sololá	701	Sololá	4	Finca Santa Victoria	11	Noviembre	2023-12-11T00:00:00	2024-11-08T10:00:00	3	Temperatura mínima	18.2
141832	7	Sololá	701	Sololá	4	Finca Santa Victoria	11	Noviembre	2023-12-11T00:00:00	2024-11-08T10:00:00	5	Humedad	68
141833	7	Sololá	701	Sololá	4	Finca Santa Victoria	11	Noviembre	2023-12-11T00:00:00	2024-11-08T10:00:00	6	Velocidad del viento	4.8
141834	7	Sololá	701	Sololá	4	Finca Santa Victoria	11	Noviembre	2023-12-11T00:00:00	2024-11-08T10:00:00	7	Dirección del viento	4.83
141835	7	Sololá	701	Sololá	4	Finca Santa Victoria	11	Noviembre	2023-12-11T00:00:00	2024-11-08T10:00:00	1	Precipitación	0
141836	7	Sololá	701	Sololá	4	Finca Santa Victoria	11	Noviembre	2023-12-11T00:00:00	2024-11-08T10:00:00	8	Radiación solar	318
141837	7	Sololá	701	Sololá	4	Finca Santa Victoria	11	Noviembre	2023-12-11T00:00:00	2024-11-08T11:00:00	2	Temperatura media	19.7
141838	7	Sololá	701	Sololá	4	Finca Santa Victoria	11	Noviembre	2023-12-11T00:00:00	2024-11-08T11:00:00	4	Temperatura máxima	20.4
141839	7	Sololá	701	Sololá	4	Finca Santa Victoria	11	Noviembre	2023-12-11T00:00:00	2024-11-08T11:00:00	3	Temperatura mínima	19.1
141840	7	Sololá	701	Sololá	4	Finca Santa Victoria	11	Noviembre	2023-12-11T00:00:00	2024-11-08T11:00:00	5	Humedad	69
141841	7	Sololá	701	Sololá	4	Finca Santa Victoria	11	Noviembre	2023-12-11T00:00:00	2024-11-08T11:00:00	6	Velocidad del viento	4.8
141842	7	Sololá	701	Sololá	4	Finca Santa Victoria	11	Noviembre	2023-12-11T00:00:00	2024-11-08T11:00:00	7	Dirección del viento	4.83
141843	7	Sololá	701	Sololá	4	Finca Santa Victoria	11	Noviembre	2023-12-11T00:00:00	2024-11-08T11:00:00	1	Precipitación	0
141844	7	Sololá	701	Sololá	4	Finca Santa Victoria	11	Noviembre	2023-12-11T00:00:00	2024-11-08T11:00:00	8	Radiación solar	473
141845	7	Sololá	701	Sololá	4	Finca Santa Victoria	11	Noviembre	2023-12-11T00:00:00	2024-11-08T12:00:00	2	Temperatura media	21.4
141846	7	Sololá	701	Sololá	4	Finca Santa Victoria	11	Noviembre	2023-12-11T00:00:00	2024-11-08T12:00:00	4	Temperatura máxima	21.4
141847	7	Sololá	701	Sololá	4	Finca Santa Victoria	11	Noviembre	2023-12-11T00:00:00	2024-11-08T12:00:00	3	Temperatura mínima	18.8
141848	7	Sololá	701	Sololá	4	Finca Santa Victoria	11	Noviembre	2023-12-11T00:00:00	2024-11-08T12:00:00	5	Humedad	63
141849	7	Sololá	701	Sololá	4	Finca Santa Victoria	11	Noviembre	2023-12-11T00:00:00	2024-11-08T12:00:00	6	Velocidad del viento	4.8
141850	7	Sololá	701	Sololá	4	Finca Santa Victoria	11	Noviembre	2023-12-11T00:00:00	2024-11-08T12:00:00	7	Dirección del viento	4.83
141851	7	Sololá	701	Sololá	4	Finca Santa Victoria	11	Noviembre	2023-12-11T00:00:00	2024-11-08T12:00:00	1	Precipitación	0
141852	7	Sololá	701	Sololá	4	Finca Santa Victoria	11	Noviembre	2023-12-11T00:00:00	2024-11-08T12:00:00	8	Radiación solar	590
141853	7	Sololá	701	Sololá	4	Finca Santa Victoria	11	Noviembre	2023-12-11T00:00:00	2024-11-08T13:00:00	2	Temperatura media	22.1
141854	7	Sololá	701	Sololá	4	Finca Santa Victoria	11	Noviembre	2023-12-11T00:00:00	2024-11-08T13:00:00	4	Temperatura máxima	22.2
141855	7	Sololá	701	Sololá	4	Finca Santa Victoria	11	Noviembre	2023-12-11T00:00:00	2024-11-08T13:00:00	3	Temperatura mínima	20.7
141856	7	Sololá	701	Sololá	4	Finca Santa Victoria	11	Noviembre	2023-12-11T00:00:00	2024-11-08T13:00:00	5	Humedad	61
141857	7	Sololá	701	Sololá	4	Finca Santa Victoria	11	Noviembre	2023-12-11T00:00:00	2024-11-08T13:00:00	6	Velocidad del viento	4.8
141858	7	Sololá	701	Sololá	4	Finca Santa Victoria	11	Noviembre	2023-12-11T00:00:00	2024-11-08T13:00:00	7	Dirección del viento	4.83
141859	7	Sololá	701	Sololá	4	Finca Santa Victoria	11	Noviembre	2023-12-11T00:00:00	2024-11-08T13:00:00	1	Precipitación	0
141860	7	Sololá	701	Sololá	4	Finca Santa Victoria	11	Noviembre	2023-12-11T00:00:00	2024-11-08T13:00:00	8	Radiación solar	523
141861	7	Sololá	701	Sololá	4	Finca Santa Victoria	11	Noviembre	2023-12-11T00:00:00	2024-11-08T14:00:00	2	Temperatura media	21.9
141862	7	Sololá	701	Sololá	4	Finca Santa Victoria	11	Noviembre	2023-12-11T00:00:00	2024-11-08T14:00:00	4	Temperatura máxima	22.3
141863	7	Sololá	701	Sololá	4	Finca Santa Victoria	11	Noviembre	2023-12-11T00:00:00	2024-11-08T14:00:00	3	Temperatura mínima	21.6
141864	7	Sololá	701	Sololá	4	Finca Santa Victoria	11	Noviembre	2023-12-11T00:00:00	2024-11-08T14:00:00	5	Humedad	63
141865	7	Sololá	701	Sololá	4	Finca Santa Victoria	11	Noviembre	2023-12-11T00:00:00	2024-11-08T14:00:00	6	Velocidad del viento	3.2
141866	7	Sololá	701	Sololá	4	Finca Santa Victoria	11	Noviembre	2023-12-11T00:00:00	2024-11-08T14:00:00	7	Dirección del viento	3.22
141867	7	Sololá	701	Sololá	4	Finca Santa Victoria	11	Noviembre	2023-12-11T00:00:00	2024-11-08T14:00:00	1	Precipitación	0
141868	7	Sololá	701	Sololá	4	Finca Santa Victoria	11	Noviembre	2023-12-11T00:00:00	2024-11-08T14:00:00	8	Radiación solar	671
141869	7	Sololá	701	Sololá	4	Finca Santa Victoria	11	Noviembre	2023-12-11T00:00:00	2024-11-08T15:00:00	2	Temperatura media	21.1
141870	7	Sololá	701	Sololá	4	Finca Santa Victoria	11	Noviembre	2023-12-11T00:00:00	2024-11-08T15:00:00	4	Temperatura máxima	21.9
141871	7	Sololá	701	Sololá	4	Finca Santa Victoria	11	Noviembre	2023-12-11T00:00:00	2024-11-08T15:00:00	3	Temperatura mínima	19.6
141872	7	Sololá	701	Sololá	4	Finca Santa Victoria	11	Noviembre	2023-12-11T00:00:00	2024-11-08T15:00:00	5	Humedad	65
141873	7	Sololá	701	Sololá	4	Finca Santa Victoria	11	Noviembre	2023-12-11T00:00:00	2024-11-08T15:00:00	6	Velocidad del viento	3.2
141874	7	Sololá	701	Sololá	4	Finca Santa Victoria	11	Noviembre	2023-12-11T00:00:00	2024-11-08T15:00:00	7	Dirección del viento	3.22
141875	7	Sololá	701	Sololá	4	Finca Santa Victoria	11	Noviembre	2023-12-11T00:00:00	2024-11-08T15:00:00	1	Precipitación	0
141876	7	Sololá	701	Sololá	4	Finca Santa Victoria	11	Noviembre	2023-12-11T00:00:00	2024-11-08T15:00:00	8	Radiación solar	144
141877	7	Sololá	701	Sololá	4	Finca Santa Victoria	11	Noviembre	2023-12-11T00:00:00	2024-11-08T16:00:00	2	Temperatura media	20.3
141878	7	Sololá	701	Sololá	4	Finca Santa Victoria	11	Noviembre	2023-12-11T00:00:00	2024-11-08T16:00:00	4	Temperatura máxima	21.4
141879	7	Sololá	701	Sololá	4	Finca Santa Victoria	11	Noviembre	2023-12-11T00:00:00	2024-11-08T16:00:00	3	Temperatura mínima	19.9
141880	7	Sololá	701	Sololá	4	Finca Santa Victoria	11	Noviembre	2023-12-11T00:00:00	2024-11-08T16:00:00	5	Humedad	66
141881	7	Sololá	701	Sololá	4	Finca Santa Victoria	11	Noviembre	2023-12-11T00:00:00	2024-11-08T16:00:00	6	Velocidad del viento	3.2
141882	7	Sololá	701	Sololá	4	Finca Santa Victoria	11	Noviembre	2023-12-11T00:00:00	2024-11-08T16:00:00	7	Dirección del viento	3.22
141883	7	Sololá	701	Sololá	4	Finca Santa Victoria	11	Noviembre	2023-12-11T00:00:00	2024-11-08T16:00:00	1	Precipitación	0
141884	7	Sololá	701	Sololá	4	Finca Santa Victoria	11	Noviembre	2023-12-11T00:00:00	2024-11-08T16:00:00	8	Radiación solar	233
141885	7	Sololá	701	Sololá	4	Finca Santa Victoria	11	Noviembre	2023-12-11T00:00:00	2024-11-08T17:00:00	2	Temperatura media	17.7
141886	7	Sololá	701	Sololá	4	Finca Santa Victoria	11	Noviembre	2023-12-11T00:00:00	2024-11-08T17:00:00	4	Temperatura máxima	20.4
141887	7	Sololá	701	Sololá	4	Finca Santa Victoria	11	Noviembre	2023-12-11T00:00:00	2024-11-08T17:00:00	3	Temperatura mínima	17.7
141888	7	Sololá	701	Sololá	4	Finca Santa Victoria	11	Noviembre	2023-12-11T00:00:00	2024-11-08T17:00:00	5	Humedad	74
141889	7	Sololá	701	Sololá	4	Finca Santa Victoria	11	Noviembre	2023-12-11T00:00:00	2024-11-08T17:00:00	6	Velocidad del viento	3.2
141890	7	Sololá	701	Sololá	4	Finca Santa Victoria	11	Noviembre	2023-12-11T00:00:00	2024-11-08T17:00:00	7	Dirección del viento	3.22
141891	7	Sololá	701	Sololá	4	Finca Santa Victoria	11	Noviembre	2023-12-11T00:00:00	2024-11-08T17:00:00	1	Precipitación	0
141892	7	Sololá	701	Sololá	4	Finca Santa Victoria	11	Noviembre	2023-12-11T00:00:00	2024-11-08T17:00:00	8	Radiación solar	125
141893	7	Sololá	701	Sololá	4	Finca Santa Victoria	11	Noviembre	2023-12-11T00:00:00	2024-11-08T18:00:00	2	Temperatura media	16
141894	7	Sololá	701	Sololá	4	Finca Santa Victoria	11	Noviembre	2023-12-11T00:00:00	2024-11-08T18:00:00	4	Temperatura máxima	17.7
141895	7	Sololá	701	Sololá	4	Finca Santa Victoria	11	Noviembre	2023-12-11T00:00:00	2024-11-08T18:00:00	3	Temperatura mínima	15.9
141896	7	Sololá	701	Sololá	4	Finca Santa Victoria	11	Noviembre	2023-12-11T00:00:00	2024-11-08T18:00:00	5	Humedad	80
141897	7	Sololá	701	Sololá	4	Finca Santa Victoria	11	Noviembre	2023-12-11T00:00:00	2024-11-08T18:00:00	6	Velocidad del viento	3.2
141898	7	Sololá	701	Sololá	4	Finca Santa Victoria	11	Noviembre	2023-12-11T00:00:00	2024-11-08T18:00:00	7	Dirección del viento	3.22
141899	7	Sololá	701	Sololá	4	Finca Santa Victoria	11	Noviembre	2023-12-11T00:00:00	2024-11-08T18:00:00	1	Precipitación	0
141900	7	Sololá	701	Sololá	4	Finca Santa Victoria	11	Noviembre	2023-12-11T00:00:00	2024-11-08T18:00:00	8	Radiación solar	11
141901	7	Sololá	701	Sololá	4	Finca Santa Victoria	11	Noviembre	2023-12-11T00:00:00	2024-11-08T19:00:00	2	Temperatura media	15.6
141902	7	Sololá	701	Sololá	4	Finca Santa Victoria	11	Noviembre	2023-12-11T00:00:00	2024-11-08T19:00:00	4	Temperatura máxima	16
141903	7	Sololá	701	Sololá	4	Finca Santa Victoria	11	Noviembre	2023-12-11T00:00:00	2024-11-08T19:00:00	3	Temperatura mínima	15.6
141904	7	Sololá	701	Sololá	4	Finca Santa Victoria	11	Noviembre	2023-12-11T00:00:00	2024-11-08T19:00:00	5	Humedad	84
141905	7	Sololá	701	Sololá	4	Finca Santa Victoria	11	Noviembre	2023-12-11T00:00:00	2024-11-08T19:00:00	6	Velocidad del viento	3.2
141906	7	Sololá	701	Sololá	4	Finca Santa Victoria	11	Noviembre	2023-12-11T00:00:00	2024-11-08T19:00:00	7	Dirección del viento	3.22
141907	7	Sololá	701	Sololá	4	Finca Santa Victoria	11	Noviembre	2023-12-11T00:00:00	2024-11-08T19:00:00	1	Precipitación	0
141908	7	Sololá	701	Sololá	4	Finca Santa Victoria	11	Noviembre	2023-12-11T00:00:00	2024-11-08T19:00:00	8	Radiación solar	0
141909	7	Sololá	701	Sololá	4	Finca Santa Victoria	11	Noviembre	2023-12-11T00:00:00	2024-11-08T20:00:00	2	Temperatura media	14.7
141910	7	Sololá	701	Sololá	4	Finca Santa Victoria	11	Noviembre	2023-12-11T00:00:00	2024-11-08T20:00:00	4	Temperatura máxima	15.6
141911	7	Sololá	701	Sololá	4	Finca Santa Victoria	11	Noviembre	2023-12-11T00:00:00	2024-11-08T20:00:00	3	Temperatura mínima	14.7
141912	7	Sololá	701	Sololá	4	Finca Santa Victoria	11	Noviembre	2023-12-11T00:00:00	2024-11-08T20:00:00	5	Humedad	85
141913	7	Sololá	701	Sololá	4	Finca Santa Victoria	11	Noviembre	2023-12-11T00:00:00	2024-11-08T20:00:00	6	Velocidad del viento	4.8
141914	7	Sololá	701	Sololá	4	Finca Santa Victoria	11	Noviembre	2023-12-11T00:00:00	2024-11-08T20:00:00	7	Dirección del viento	4.83
141915	7	Sololá	701	Sololá	4	Finca Santa Victoria	11	Noviembre	2023-12-11T00:00:00	2024-11-08T20:00:00	1	Precipitación	0
141916	7	Sololá	701	Sololá	4	Finca Santa Victoria	11	Noviembre	2023-12-11T00:00:00	2024-11-08T20:00:00	8	Radiación solar	0
141917	7	Sololá	701	Sololá	4	Finca Santa Victoria	11	Noviembre	2023-12-11T00:00:00	2024-11-08T21:00:00	2	Temperatura media	14.4
141918	7	Sololá	701	Sololá	4	Finca Santa Victoria	11	Noviembre	2023-12-11T00:00:00	2024-11-08T21:00:00	4	Temperatura máxima	14.8
141919	7	Sololá	701	Sololá	4	Finca Santa Victoria	11	Noviembre	2023-12-11T00:00:00	2024-11-08T21:00:00	3	Temperatura mínima	14.4
141920	7	Sololá	701	Sololá	4	Finca Santa Victoria	11	Noviembre	2023-12-11T00:00:00	2024-11-08T21:00:00	5	Humedad	91
141921	7	Sololá	701	Sololá	4	Finca Santa Victoria	11	Noviembre	2023-12-11T00:00:00	2024-11-08T21:00:00	6	Velocidad del viento	4.8
141922	7	Sololá	701	Sololá	4	Finca Santa Victoria	11	Noviembre	2023-12-11T00:00:00	2024-11-08T21:00:00	7	Dirección del viento	4.83
141923	7	Sololá	701	Sololá	4	Finca Santa Victoria	11	Noviembre	2023-12-11T00:00:00	2024-11-08T21:00:00	1	Precipitación	0
141924	7	Sololá	701	Sololá	4	Finca Santa Victoria	11	Noviembre	2023-12-11T00:00:00	2024-11-08T21:00:00	8	Radiación solar	0
141925	7	Sololá	701	Sololá	4	Finca Santa Victoria	11	Noviembre	2023-12-11T00:00:00	2024-11-08T22:00:00	2	Temperatura media	14.5
141926	7	Sololá	701	Sololá	4	Finca Santa Victoria	11	Noviembre	2023-12-11T00:00:00	2024-11-08T22:00:00	4	Temperatura máxima	14.5
141927	7	Sololá	701	Sololá	4	Finca Santa Victoria	11	Noviembre	2023-12-11T00:00:00	2024-11-08T22:00:00	3	Temperatura mínima	14.1
141928	7	Sololá	701	Sololá	4	Finca Santa Victoria	11	Noviembre	2023-12-11T00:00:00	2024-11-08T22:00:00	5	Humedad	89
141929	7	Sololá	701	Sololá	4	Finca Santa Victoria	11	Noviembre	2023-12-11T00:00:00	2024-11-08T22:00:00	6	Velocidad del viento	4.8
141930	7	Sololá	701	Sololá	4	Finca Santa Victoria	11	Noviembre	2023-12-11T00:00:00	2024-11-08T22:00:00	7	Dirección del viento	4.83
141931	7	Sololá	701	Sololá	4	Finca Santa Victoria	11	Noviembre	2023-12-11T00:00:00	2024-11-08T22:00:00	1	Precipitación	0
141932	7	Sololá	701	Sololá	4	Finca Santa Victoria	11	Noviembre	2023-12-11T00:00:00	2024-11-08T22:00:00	8	Radiación solar	0
141933	7	Sololá	701	Sololá	4	Finca Santa Victoria	11	Noviembre	2023-12-11T00:00:00	2024-11-08T23:00:00	2	Temperatura media	14.3
141934	7	Sololá	701	Sololá	4	Finca Santa Victoria	11	Noviembre	2023-12-11T00:00:00	2024-11-08T23:00:00	4	Temperatura máxima	14.6
141935	7	Sololá	701	Sololá	4	Finca Santa Victoria	11	Noviembre	2023-12-11T00:00:00	2024-11-08T23:00:00	3	Temperatura mínima	14.2
141936	7	Sololá	701	Sololá	4	Finca Santa Victoria	11	Noviembre	2023-12-11T00:00:00	2024-11-08T23:00:00	5	Humedad	90
141937	7	Sololá	701	Sololá	4	Finca Santa Victoria	11	Noviembre	2023-12-11T00:00:00	2024-11-08T23:00:00	6	Velocidad del viento	4.8
141938	7	Sololá	701	Sololá	4	Finca Santa Victoria	11	Noviembre	2023-12-11T00:00:00	2024-11-08T23:00:00	7	Dirección del viento	4.83
141939	7	Sololá	701	Sololá	4	Finca Santa Victoria	11	Noviembre	2023-12-11T00:00:00	2024-11-08T23:00:00	1	Precipitación	0
141940	7	Sololá	701	Sololá	4	Finca Santa Victoria	11	Noviembre	2023-12-11T00:00:00	2024-11-08T23:00:00	8	Radiación solar	0
141941	7	Sololá	701	Sololá	4	Finca Santa Victoria	11	Noviembre	2023-11-13T00:00:00	2024-11-08T00:00:00	2	Temperatura media	14.2
141942	7	Sololá	701	Sololá	4	Finca Santa Victoria	11	Noviembre	2023-11-13T00:00:00	2024-11-08T00:00:00	4	Temperatura máxima	14.4
141943	7	Sololá	701	Sololá	4	Finca Santa Victoria	11	Noviembre	2023-11-13T00:00:00	2024-11-08T00:00:00	3	Temperatura mínima	14.2
141944	7	Sololá	701	Sololá	4	Finca Santa Victoria	11	Noviembre	2023-11-13T00:00:00	2024-11-08T00:00:00	5	Humedad	87
141945	7	Sololá	701	Sololá	4	Finca Santa Victoria	11	Noviembre	2023-11-13T00:00:00	2024-11-08T00:00:00	6	Velocidad del viento	4.8
141946	7	Sololá	701	Sololá	4	Finca Santa Victoria	11	Noviembre	2023-11-13T00:00:00	2024-11-08T00:00:00	7	Dirección del viento	4.83
141947	7	Sololá	701	Sololá	4	Finca Santa Victoria	11	Noviembre	2023-11-13T00:00:00	2024-11-08T00:00:00	1	Precipitación	0
141948	7	Sololá	701	Sololá	4	Finca Santa Victoria	11	Noviembre	2023-11-13T00:00:00	2024-11-08T00:00:00	8	Radiación solar	0
141949	7	Sololá	701	Sololá	4	Finca Santa Victoria	11	Noviembre	2023-11-13T00:00:00	2024-11-08T01:00:00	2	Temperatura media	14.1
141950	7	Sololá	701	Sololá	4	Finca Santa Victoria	11	Noviembre	2023-11-13T00:00:00	2024-11-08T01:00:00	4	Temperatura máxima	14.2
141951	7	Sololá	701	Sololá	4	Finca Santa Victoria	11	Noviembre	2023-11-13T00:00:00	2024-11-08T01:00:00	3	Temperatura mínima	14.1
141952	7	Sololá	701	Sololá	4	Finca Santa Victoria	11	Noviembre	2023-11-13T00:00:00	2024-11-08T01:00:00	5	Humedad	87
141953	7	Sololá	701	Sololá	4	Finca Santa Victoria	11	Noviembre	2023-11-13T00:00:00	2024-11-08T01:00:00	6	Velocidad del viento	4.8
141954	7	Sololá	701	Sololá	4	Finca Santa Victoria	11	Noviembre	2023-11-13T00:00:00	2024-11-08T01:00:00	7	Dirección del viento	4.83
141955	7	Sololá	701	Sololá	4	Finca Santa Victoria	11	Noviembre	2023-11-13T00:00:00	2024-11-08T01:00:00	1	Precipitación	0
141956	7	Sololá	701	Sololá	4	Finca Santa Victoria	11	Noviembre	2023-11-13T00:00:00	2024-11-08T01:00:00	8	Radiación solar	0
141957	7	Sololá	701	Sololá	4	Finca Santa Victoria	11	Noviembre	2023-11-13T00:00:00	2024-11-08T02:00:00	2	Temperatura media	13.8
141958	7	Sololá	701	Sololá	4	Finca Santa Victoria	11	Noviembre	2023-11-13T00:00:00	2024-11-08T02:00:00	4	Temperatura máxima	14.2
141959	7	Sololá	701	Sololá	4	Finca Santa Victoria	11	Noviembre	2023-11-13T00:00:00	2024-11-08T02:00:00	3	Temperatura mínima	13.7
141960	7	Sololá	701	Sololá	4	Finca Santa Victoria	11	Noviembre	2023-11-13T00:00:00	2024-11-08T02:00:00	5	Humedad	87
141961	7	Sololá	701	Sololá	4	Finca Santa Victoria	11	Noviembre	2023-11-13T00:00:00	2024-11-08T02:00:00	6	Velocidad del viento	3.2
141962	7	Sololá	701	Sololá	4	Finca Santa Victoria	11	Noviembre	2023-11-13T00:00:00	2024-11-08T02:00:00	7	Dirección del viento	3.22
141963	7	Sololá	701	Sololá	4	Finca Santa Victoria	11	Noviembre	2023-11-13T00:00:00	2024-11-08T02:00:00	1	Precipitación	0
141964	7	Sololá	701	Sololá	4	Finca Santa Victoria	11	Noviembre	2023-11-13T00:00:00	2024-11-08T02:00:00	8	Radiación solar	0
141965	7	Sololá	701	Sololá	4	Finca Santa Victoria	11	Noviembre	2023-11-13T00:00:00	2024-11-08T03:00:00	2	Temperatura media	13.4
141966	7	Sololá	701	Sololá	4	Finca Santa Victoria	11	Noviembre	2023-11-13T00:00:00	2024-11-08T03:00:00	4	Temperatura máxima	13.9
141967	7	Sololá	701	Sololá	4	Finca Santa Victoria	11	Noviembre	2023-11-13T00:00:00	2024-11-08T03:00:00	3	Temperatura mínima	13.3
141968	7	Sololá	701	Sololá	4	Finca Santa Victoria	11	Noviembre	2023-11-13T00:00:00	2024-11-08T03:00:00	5	Humedad	86
141969	7	Sololá	701	Sololá	4	Finca Santa Victoria	11	Noviembre	2023-11-13T00:00:00	2024-11-08T03:00:00	6	Velocidad del viento	3.2
141970	7	Sololá	701	Sololá	4	Finca Santa Victoria	11	Noviembre	2023-11-13T00:00:00	2024-11-08T03:00:00	7	Dirección del viento	3.22
141971	7	Sololá	701	Sololá	4	Finca Santa Victoria	11	Noviembre	2023-11-13T00:00:00	2024-11-08T03:00:00	1	Precipitación	0
141972	7	Sololá	701	Sololá	4	Finca Santa Victoria	11	Noviembre	2023-11-13T00:00:00	2024-11-08T03:00:00	8	Radiación solar	0
141973	7	Sololá	701	Sololá	4	Finca Santa Victoria	11	Noviembre	2023-11-13T00:00:00	2024-11-08T04:00:00	2	Temperatura media	12.8
141974	7	Sololá	701	Sololá	4	Finca Santa Victoria	11	Noviembre	2023-11-13T00:00:00	2024-11-08T04:00:00	4	Temperatura máxima	13.4
141975	7	Sololá	701	Sololá	4	Finca Santa Victoria	11	Noviembre	2023-11-13T00:00:00	2024-11-08T04:00:00	3	Temperatura mínima	12.8
141976	7	Sololá	701	Sololá	4	Finca Santa Victoria	11	Noviembre	2023-11-13T00:00:00	2024-11-08T04:00:00	5	Humedad	88
141977	7	Sololá	701	Sololá	4	Finca Santa Victoria	11	Noviembre	2023-11-13T00:00:00	2024-11-08T04:00:00	6	Velocidad del viento	3.2
141978	7	Sololá	701	Sololá	4	Finca Santa Victoria	11	Noviembre	2023-11-13T00:00:00	2024-11-08T04:00:00	7	Dirección del viento	3.22
141979	7	Sololá	701	Sololá	4	Finca Santa Victoria	11	Noviembre	2023-11-13T00:00:00	2024-11-08T04:00:00	1	Precipitación	0
141980	7	Sololá	701	Sololá	4	Finca Santa Victoria	11	Noviembre	2023-11-13T00:00:00	2024-11-08T04:00:00	8	Radiación solar	0
141981	7	Sololá	701	Sololá	4	Finca Santa Victoria	11	Noviembre	2023-11-13T00:00:00	2024-11-08T05:00:00	2	Temperatura media	12.8
141982	7	Sololá	701	Sololá	4	Finca Santa Victoria	11	Noviembre	2023-11-13T00:00:00	2024-11-08T05:00:00	4	Temperatura máxima	13
141983	7	Sololá	701	Sololá	4	Finca Santa Victoria	11	Noviembre	2023-11-13T00:00:00	2024-11-08T05:00:00	3	Temperatura mínima	12.8
141984	7	Sololá	701	Sololá	4	Finca Santa Victoria	11	Noviembre	2023-11-13T00:00:00	2024-11-08T05:00:00	5	Humedad	90
141985	7	Sololá	701	Sololá	4	Finca Santa Victoria	11	Noviembre	2023-11-13T00:00:00	2024-11-08T05:00:00	6	Velocidad del viento	3.2
141986	7	Sololá	701	Sololá	4	Finca Santa Victoria	11	Noviembre	2023-11-13T00:00:00	2024-11-08T05:00:00	7	Dirección del viento	3.22
141987	7	Sololá	701	Sololá	4	Finca Santa Victoria	11	Noviembre	2023-11-13T00:00:00	2024-11-08T05:00:00	1	Precipitación	0
141988	7	Sololá	701	Sololá	4	Finca Santa Victoria	11	Noviembre	2023-11-13T00:00:00	2024-11-08T05:00:00	8	Radiación solar	0
141989	7	Sololá	701	Sololá	4	Finca Santa Victoria	11	Noviembre	2023-11-13T00:00:00	2024-11-08T06:00:00	2	Temperatura media	13.1
141990	7	Sololá	701	Sololá	4	Finca Santa Victoria	11	Noviembre	2023-11-13T00:00:00	2024-11-08T06:00:00	4	Temperatura máxima	13.1
141991	7	Sololá	701	Sololá	4	Finca Santa Victoria	11	Noviembre	2023-11-13T00:00:00	2024-11-08T06:00:00	3	Temperatura mínima	12.8
141992	7	Sololá	701	Sololá	4	Finca Santa Victoria	11	Noviembre	2023-11-13T00:00:00	2024-11-08T06:00:00	5	Humedad	92
141993	7	Sololá	701	Sololá	4	Finca Santa Victoria	11	Noviembre	2023-11-13T00:00:00	2024-11-08T06:00:00	6	Velocidad del viento	3.2
141994	7	Sololá	701	Sololá	4	Finca Santa Victoria	11	Noviembre	2023-11-13T00:00:00	2024-11-08T06:00:00	7	Dirección del viento	3.22
141995	7	Sololá	701	Sololá	4	Finca Santa Victoria	11	Noviembre	2023-11-13T00:00:00	2024-11-08T06:00:00	1	Precipitación	0
141996	7	Sololá	701	Sololá	4	Finca Santa Victoria	11	Noviembre	2023-11-13T00:00:00	2024-11-08T06:00:00	8	Radiación solar	0
141997	7	Sololá	701	Sololá	4	Finca Santa Victoria	11	Noviembre	2023-11-13T00:00:00	2024-11-08T07:00:00	2	Temperatura media	14
141998	7	Sololá	701	Sololá	4	Finca Santa Victoria	11	Noviembre	2023-11-13T00:00:00	2024-11-08T07:00:00	4	Temperatura máxima	14
141999	7	Sololá	701	Sololá	4	Finca Santa Victoria	11	Noviembre	2023-11-13T00:00:00	2024-11-08T07:00:00	3	Temperatura mínima	13.1
142000	7	Sololá	701	Sololá	4	Finca Santa Victoria	11	Noviembre	2023-11-13T00:00:00	2024-11-08T07:00:00	5	Humedad	90
142001	7	Sololá	701	Sololá	4	Finca Santa Victoria	11	Noviembre	2023-11-13T00:00:00	2024-11-08T07:00:00	6	Velocidad del viento	1.6
142002	7	Sololá	701	Sololá	4	Finca Santa Victoria	11	Noviembre	2023-11-13T00:00:00	2024-11-08T07:00:00	7	Dirección del viento	1.61
142003	7	Sololá	701	Sololá	4	Finca Santa Victoria	11	Noviembre	2023-11-13T00:00:00	2024-11-08T07:00:00	1	Precipitación	0
142004	7	Sololá	701	Sololá	4	Finca Santa Victoria	11	Noviembre	2023-11-13T00:00:00	2024-11-08T07:00:00	8	Radiación solar	26
142005	7	Sololá	701	Sololá	4	Finca Santa Victoria	11	Noviembre	2023-11-13T00:00:00	2024-11-08T08:00:00	2	Temperatura media	15.2
142006	7	Sololá	701	Sololá	4	Finca Santa Victoria	11	Noviembre	2023-11-13T00:00:00	2024-11-08T08:00:00	4	Temperatura máxima	15.2
142007	7	Sololá	701	Sololá	4	Finca Santa Victoria	11	Noviembre	2023-11-13T00:00:00	2024-11-08T08:00:00	3	Temperatura mínima	14
142008	7	Sololá	701	Sololá	4	Finca Santa Victoria	11	Noviembre	2023-11-13T00:00:00	2024-11-08T08:00:00	5	Humedad	86
142009	7	Sololá	701	Sololá	4	Finca Santa Victoria	11	Noviembre	2023-11-13T00:00:00	2024-11-08T08:00:00	6	Velocidad del viento	3.2
142010	7	Sololá	701	Sololá	4	Finca Santa Victoria	11	Noviembre	2023-11-13T00:00:00	2024-11-08T08:00:00	7	Dirección del viento	3.22
142011	7	Sololá	701	Sololá	4	Finca Santa Victoria	11	Noviembre	2023-11-13T00:00:00	2024-11-08T08:00:00	1	Precipitación	0
142012	7	Sololá	701	Sololá	4	Finca Santa Victoria	11	Noviembre	2023-11-13T00:00:00	2024-11-08T08:00:00	8	Radiación solar	79
142013	7	Sololá	701	Sololá	4	Finca Santa Victoria	11	Noviembre	2023-11-13T00:00:00	2024-11-08T09:00:00	2	Temperatura media	17.5
142014	7	Sololá	701	Sololá	4	Finca Santa Victoria	11	Noviembre	2023-11-13T00:00:00	2024-11-08T09:00:00	4	Temperatura máxima	17.5
142015	7	Sololá	701	Sololá	4	Finca Santa Victoria	11	Noviembre	2023-11-13T00:00:00	2024-11-08T09:00:00	3	Temperatura mínima	15.2
142016	7	Sololá	701	Sololá	4	Finca Santa Victoria	11	Noviembre	2023-11-13T00:00:00	2024-11-08T09:00:00	5	Humedad	82
142017	7	Sololá	701	Sololá	4	Finca Santa Victoria	11	Noviembre	2023-11-13T00:00:00	2024-11-08T09:00:00	6	Velocidad del viento	3.2
142018	7	Sololá	701	Sololá	4	Finca Santa Victoria	11	Noviembre	2023-11-13T00:00:00	2024-11-08T09:00:00	7	Dirección del viento	3.22
142019	7	Sololá	701	Sololá	4	Finca Santa Victoria	11	Noviembre	2023-11-13T00:00:00	2024-11-08T09:00:00	1	Precipitación	0
142020	7	Sololá	701	Sololá	4	Finca Santa Victoria	11	Noviembre	2023-11-13T00:00:00	2024-11-08T09:00:00	8	Radiación solar	105
142021	7	Sololá	701	Sololá	4	Finca Santa Victoria	11	Noviembre	2023-11-13T00:00:00	2024-11-08T10:00:00	2	Temperatura media	19.2
142022	7	Sololá	701	Sololá	4	Finca Santa Victoria	11	Noviembre	2023-11-13T00:00:00	2024-11-08T10:00:00	4	Temperatura máxima	19.2
142023	7	Sololá	701	Sololá	4	Finca Santa Victoria	11	Noviembre	2023-11-13T00:00:00	2024-11-08T10:00:00	3	Temperatura mínima	17.4
142024	7	Sololá	701	Sololá	4	Finca Santa Victoria	11	Noviembre	2023-11-13T00:00:00	2024-11-08T10:00:00	5	Humedad	76
142025	7	Sololá	701	Sololá	4	Finca Santa Victoria	11	Noviembre	2023-11-13T00:00:00	2024-11-08T10:00:00	6	Velocidad del viento	3.2
142026	7	Sololá	701	Sololá	4	Finca Santa Victoria	11	Noviembre	2023-11-13T00:00:00	2024-11-08T10:00:00	7	Dirección del viento	3.22
142027	7	Sololá	701	Sololá	4	Finca Santa Victoria	11	Noviembre	2023-11-13T00:00:00	2024-11-08T10:00:00	1	Precipitación	0
142028	7	Sololá	701	Sololá	4	Finca Santa Victoria	11	Noviembre	2023-11-13T00:00:00	2024-11-08T10:00:00	8	Radiación solar	332
142029	7	Sololá	701	Sololá	4	Finca Santa Victoria	11	Noviembre	2023-11-13T00:00:00	2024-11-08T11:00:00	2	Temperatura media	20.5
142030	7	Sololá	701	Sololá	4	Finca Santa Victoria	11	Noviembre	2023-11-13T00:00:00	2024-11-08T11:00:00	4	Temperatura máxima	20.8
142031	7	Sololá	701	Sololá	4	Finca Santa Victoria	11	Noviembre	2023-11-13T00:00:00	2024-11-08T11:00:00	3	Temperatura mínima	19.2
142032	7	Sololá	701	Sololá	4	Finca Santa Victoria	11	Noviembre	2023-11-13T00:00:00	2024-11-08T11:00:00	5	Humedad	72
142033	7	Sololá	701	Sololá	4	Finca Santa Victoria	11	Noviembre	2023-11-13T00:00:00	2024-11-08T11:00:00	6	Velocidad del viento	4.8
142034	7	Sololá	701	Sololá	4	Finca Santa Victoria	11	Noviembre	2023-11-13T00:00:00	2024-11-08T11:00:00	7	Dirección del viento	4.83
142035	7	Sololá	701	Sololá	4	Finca Santa Victoria	11	Noviembre	2023-11-13T00:00:00	2024-11-08T11:00:00	1	Precipitación	0
142036	7	Sololá	701	Sololá	4	Finca Santa Victoria	11	Noviembre	2023-11-13T00:00:00	2024-11-08T11:00:00	8	Radiación solar	890
142037	7	Sololá	701	Sololá	4	Finca Santa Victoria	11	Noviembre	2023-11-13T00:00:00	2024-11-08T12:00:00	2	Temperatura media	21.6
142038	7	Sololá	701	Sololá	4	Finca Santa Victoria	11	Noviembre	2023-11-13T00:00:00	2024-11-08T12:00:00	4	Temperatura máxima	21.6
142039	7	Sololá	701	Sololá	4	Finca Santa Victoria	11	Noviembre	2023-11-13T00:00:00	2024-11-08T12:00:00	3	Temperatura mínima	20.4
142040	7	Sololá	701	Sololá	4	Finca Santa Victoria	11	Noviembre	2023-11-13T00:00:00	2024-11-08T12:00:00	5	Humedad	69
142041	7	Sololá	701	Sololá	4	Finca Santa Victoria	11	Noviembre	2023-11-13T00:00:00	2024-11-08T12:00:00	6	Velocidad del viento	4.8
142042	7	Sololá	701	Sololá	4	Finca Santa Victoria	11	Noviembre	2023-11-13T00:00:00	2024-11-08T12:00:00	7	Dirección del viento	4.83
142043	7	Sololá	701	Sololá	4	Finca Santa Victoria	11	Noviembre	2023-11-13T00:00:00	2024-11-08T12:00:00	1	Precipitación	0
142044	7	Sololá	701	Sololá	4	Finca Santa Victoria	11	Noviembre	2023-11-13T00:00:00	2024-11-08T12:00:00	8	Radiación solar	930
142045	7	Sololá	701	Sololá	4	Finca Santa Victoria	11	Noviembre	2023-11-13T00:00:00	2024-11-08T13:00:00	2	Temperatura media	20.1
142046	7	Sololá	701	Sololá	4	Finca Santa Victoria	11	Noviembre	2023-11-13T00:00:00	2024-11-08T13:00:00	4	Temperatura máxima	21.6
142047	7	Sololá	701	Sololá	4	Finca Santa Victoria	11	Noviembre	2023-11-13T00:00:00	2024-11-08T13:00:00	3	Temperatura mínima	19.7
142048	7	Sololá	701	Sololá	4	Finca Santa Victoria	11	Noviembre	2023-11-13T00:00:00	2024-11-08T13:00:00	5	Humedad	72
142049	7	Sololá	701	Sololá	4	Finca Santa Victoria	11	Noviembre	2023-11-13T00:00:00	2024-11-08T13:00:00	6	Velocidad del viento	3.2
142050	7	Sololá	701	Sololá	4	Finca Santa Victoria	11	Noviembre	2023-11-13T00:00:00	2024-11-08T13:00:00	7	Dirección del viento	3.22
142051	7	Sololá	701	Sololá	4	Finca Santa Victoria	11	Noviembre	2023-11-13T00:00:00	2024-11-08T13:00:00	1	Precipitación	0
142052	7	Sololá	701	Sololá	4	Finca Santa Victoria	11	Noviembre	2023-11-13T00:00:00	2024-11-08T13:00:00	8	Radiación solar	282
142053	7	Sololá	701	Sololá	4	Finca Santa Victoria	11	Noviembre	2023-11-13T00:00:00	2024-11-08T14:00:00	2	Temperatura media	19.2
142054	7	Sololá	701	Sololá	4	Finca Santa Victoria	11	Noviembre	2023-11-13T00:00:00	2024-11-08T14:00:00	4	Temperatura máxima	21.1
142055	7	Sololá	701	Sololá	4	Finca Santa Victoria	11	Noviembre	2023-11-13T00:00:00	2024-11-08T14:00:00	3	Temperatura mínima	19.2
142056	7	Sololá	701	Sololá	4	Finca Santa Victoria	11	Noviembre	2023-11-13T00:00:00	2024-11-08T14:00:00	5	Humedad	76
142057	7	Sololá	701	Sololá	4	Finca Santa Victoria	11	Noviembre	2023-11-13T00:00:00	2024-11-08T14:00:00	6	Velocidad del viento	3.2
142058	7	Sololá	701	Sololá	4	Finca Santa Victoria	11	Noviembre	2023-11-13T00:00:00	2024-11-08T14:00:00	7	Dirección del viento	3.22
142059	7	Sololá	701	Sololá	4	Finca Santa Victoria	11	Noviembre	2023-11-13T00:00:00	2024-11-08T14:00:00	1	Precipitación	0
142060	7	Sololá	701	Sololá	4	Finca Santa Victoria	11	Noviembre	2023-11-13T00:00:00	2024-11-08T14:00:00	8	Radiación solar	250
142061	7	Sololá	701	Sololá	4	Finca Santa Victoria	11	Noviembre	2023-11-13T00:00:00	2024-11-08T15:00:00	2	Temperatura media	18.6
142062	7	Sololá	701	Sololá	4	Finca Santa Victoria	11	Noviembre	2023-11-13T00:00:00	2024-11-08T15:00:00	4	Temperatura máxima	19.2
142063	7	Sololá	701	Sololá	4	Finca Santa Victoria	11	Noviembre	2023-11-13T00:00:00	2024-11-08T15:00:00	3	Temperatura mínima	17.9
142064	7	Sololá	701	Sololá	4	Finca Santa Victoria	11	Noviembre	2023-11-13T00:00:00	2024-11-08T15:00:00	5	Humedad	80
142065	7	Sololá	701	Sololá	4	Finca Santa Victoria	11	Noviembre	2023-11-13T00:00:00	2024-11-08T15:00:00	6	Velocidad del viento	1.6
142066	7	Sololá	701	Sololá	4	Finca Santa Victoria	11	Noviembre	2023-11-13T00:00:00	2024-11-08T15:00:00	7	Dirección del viento	1.61
142067	7	Sololá	701	Sololá	4	Finca Santa Victoria	11	Noviembre	2023-11-13T00:00:00	2024-11-08T15:00:00	1	Precipitación	0
142068	7	Sololá	701	Sololá	4	Finca Santa Victoria	11	Noviembre	2023-11-13T00:00:00	2024-11-08T15:00:00	8	Radiación solar	114
142069	7	Sololá	701	Sololá	4	Finca Santa Victoria	11	Noviembre	2023-11-13T00:00:00	2024-11-08T16:00:00	2	Temperatura media	19.1
142070	7	Sololá	701	Sololá	4	Finca Santa Victoria	11	Noviembre	2023-11-13T00:00:00	2024-11-08T16:00:00	4	Temperatura máxima	20.8
142071	7	Sololá	701	Sololá	4	Finca Santa Victoria	11	Noviembre	2023-11-13T00:00:00	2024-11-08T16:00:00	3	Temperatura mínima	18.6
142072	7	Sololá	701	Sololá	4	Finca Santa Victoria	11	Noviembre	2023-11-13T00:00:00	2024-11-08T16:00:00	5	Humedad	77
142073	7	Sololá	701	Sololá	4	Finca Santa Victoria	11	Noviembre	2023-11-13T00:00:00	2024-11-08T16:00:00	6	Velocidad del viento	1.6
142074	7	Sololá	701	Sololá	4	Finca Santa Victoria	11	Noviembre	2023-11-13T00:00:00	2024-11-08T16:00:00	7	Dirección del viento	1.61
142075	7	Sololá	701	Sololá	4	Finca Santa Victoria	11	Noviembre	2023-11-13T00:00:00	2024-11-08T16:00:00	1	Precipitación	0
142076	7	Sololá	701	Sololá	4	Finca Santa Victoria	11	Noviembre	2023-11-13T00:00:00	2024-11-08T16:00:00	8	Radiación solar	104
142077	7	Sololá	701	Sololá	4	Finca Santa Victoria	11	Noviembre	2023-11-13T00:00:00	2024-11-08T17:00:00	2	Temperatura media	16.9
142078	7	Sololá	701	Sololá	4	Finca Santa Victoria	11	Noviembre	2023-11-13T00:00:00	2024-11-08T17:00:00	4	Temperatura máxima	19.2
142079	7	Sololá	701	Sololá	4	Finca Santa Victoria	11	Noviembre	2023-11-13T00:00:00	2024-11-08T17:00:00	3	Temperatura mínima	16.9
142080	7	Sololá	701	Sololá	4	Finca Santa Victoria	11	Noviembre	2023-11-13T00:00:00	2024-11-08T17:00:00	5	Humedad	85
142081	7	Sololá	701	Sololá	4	Finca Santa Victoria	11	Noviembre	2023-11-13T00:00:00	2024-11-08T17:00:00	6	Velocidad del viento	1.6
142082	7	Sololá	701	Sololá	4	Finca Santa Victoria	11	Noviembre	2023-11-13T00:00:00	2024-11-08T17:00:00	7	Dirección del viento	1.61
142083	7	Sololá	701	Sololá	4	Finca Santa Victoria	11	Noviembre	2023-11-13T00:00:00	2024-11-08T17:00:00	1	Precipitación	0
142084	7	Sololá	701	Sololá	4	Finca Santa Victoria	11	Noviembre	2023-11-13T00:00:00	2024-11-08T17:00:00	8	Radiación solar	18
142085	7	Sololá	701	Sololá	4	Finca Santa Victoria	11	Noviembre	2023-11-13T00:00:00	2024-11-08T18:00:00	2	Temperatura media	16.1
142086	7	Sololá	701	Sololá	4	Finca Santa Victoria	11	Noviembre	2023-11-13T00:00:00	2024-11-08T18:00:00	4	Temperatura máxima	16.9
142087	7	Sololá	701	Sololá	4	Finca Santa Victoria	11	Noviembre	2023-11-13T00:00:00	2024-11-08T18:00:00	3	Temperatura mínima	16.1
142088	7	Sololá	701	Sololá	4	Finca Santa Victoria	11	Noviembre	2023-11-13T00:00:00	2024-11-08T18:00:00	5	Humedad	86
142089	7	Sololá	701	Sololá	4	Finca Santa Victoria	11	Noviembre	2023-11-13T00:00:00	2024-11-08T18:00:00	6	Velocidad del viento	1.6
142090	7	Sololá	701	Sololá	4	Finca Santa Victoria	11	Noviembre	2023-11-13T00:00:00	2024-11-08T18:00:00	7	Dirección del viento	1.61
142091	7	Sololá	701	Sololá	4	Finca Santa Victoria	11	Noviembre	2023-11-13T00:00:00	2024-11-08T18:00:00	1	Precipitación	0
142092	7	Sololá	701	Sololá	4	Finca Santa Victoria	11	Noviembre	2023-11-13T00:00:00	2024-11-08T18:00:00	8	Radiación solar	8
142093	7	Sololá	701	Sololá	4	Finca Santa Victoria	11	Noviembre	2023-11-13T00:00:00	2024-11-08T19:00:00	2	Temperatura media	15.9
142094	7	Sololá	701	Sololá	4	Finca Santa Victoria	11	Noviembre	2023-11-13T00:00:00	2024-11-08T19:00:00	4	Temperatura máxima	16.1
142095	7	Sololá	701	Sololá	4	Finca Santa Victoria	11	Noviembre	2023-11-13T00:00:00	2024-11-08T19:00:00	3	Temperatura mínima	15.9
142096	7	Sololá	701	Sololá	4	Finca Santa Victoria	11	Noviembre	2023-11-13T00:00:00	2024-11-08T19:00:00	5	Humedad	88
142097	7	Sololá	701	Sololá	4	Finca Santa Victoria	11	Noviembre	2023-11-13T00:00:00	2024-11-08T19:00:00	6	Velocidad del viento	3.2
142098	7	Sololá	701	Sololá	4	Finca Santa Victoria	11	Noviembre	2023-11-13T00:00:00	2024-11-08T19:00:00	7	Dirección del viento	3.22
142099	7	Sololá	701	Sololá	4	Finca Santa Victoria	11	Noviembre	2023-11-13T00:00:00	2024-11-08T19:00:00	1	Precipitación	0
142100	7	Sololá	701	Sololá	4	Finca Santa Victoria	11	Noviembre	2023-11-13T00:00:00	2024-11-08T19:00:00	8	Radiación solar	0
142101	7	Sololá	701	Sololá	4	Finca Santa Victoria	11	Noviembre	2023-11-13T00:00:00	2024-11-08T20:00:00	2	Temperatura media	15.7
142102	7	Sololá	701	Sololá	4	Finca Santa Victoria	11	Noviembre	2023-11-13T00:00:00	2024-11-08T20:00:00	4	Temperatura máxima	15.9
142103	7	Sololá	701	Sololá	4	Finca Santa Victoria	11	Noviembre	2023-11-13T00:00:00	2024-11-08T20:00:00	3	Temperatura mínima	15.6
142104	7	Sololá	701	Sololá	4	Finca Santa Victoria	11	Noviembre	2023-11-13T00:00:00	2024-11-08T20:00:00	5	Humedad	86
142105	7	Sololá	701	Sololá	4	Finca Santa Victoria	11	Noviembre	2023-11-13T00:00:00	2024-11-08T20:00:00	6	Velocidad del viento	3.2
142106	7	Sololá	701	Sololá	4	Finca Santa Victoria	11	Noviembre	2023-11-13T00:00:00	2024-11-08T20:00:00	7	Dirección del viento	3.22
142107	7	Sololá	701	Sololá	4	Finca Santa Victoria	11	Noviembre	2023-11-13T00:00:00	2024-11-08T20:00:00	1	Precipitación	0
142108	7	Sololá	701	Sololá	4	Finca Santa Victoria	11	Noviembre	2023-11-13T00:00:00	2024-11-08T20:00:00	8	Radiación solar	0
142109	7	Sololá	701	Sololá	4	Finca Santa Victoria	11	Noviembre	2023-11-13T00:00:00	2024-11-08T21:00:00	2	Temperatura media	15.8
142110	7	Sololá	701	Sololá	4	Finca Santa Victoria	11	Noviembre	2023-11-13T00:00:00	2024-11-08T21:00:00	4	Temperatura máxima	15.8
142111	7	Sololá	701	Sololá	4	Finca Santa Victoria	11	Noviembre	2023-11-13T00:00:00	2024-11-08T21:00:00	3	Temperatura mínima	15.7
142112	7	Sololá	701	Sololá	4	Finca Santa Victoria	11	Noviembre	2023-11-13T00:00:00	2024-11-08T21:00:00	5	Humedad	87
142113	7	Sololá	701	Sololá	4	Finca Santa Victoria	11	Noviembre	2023-11-13T00:00:00	2024-11-08T21:00:00	6	Velocidad del viento	3.2
142114	7	Sololá	701	Sololá	4	Finca Santa Victoria	11	Noviembre	2023-11-13T00:00:00	2024-11-08T21:00:00	7	Dirección del viento	3.22
142115	7	Sololá	701	Sololá	4	Finca Santa Victoria	11	Noviembre	2023-11-13T00:00:00	2024-11-08T21:00:00	1	Precipitación	0
142116	7	Sololá	701	Sololá	4	Finca Santa Victoria	11	Noviembre	2023-11-13T00:00:00	2024-11-08T21:00:00	8	Radiación solar	0
142117	7	Sololá	701	Sololá	4	Finca Santa Victoria	11	Noviembre	2023-11-13T00:00:00	2024-11-08T22:00:00	2	Temperatura media	15.2
142118	7	Sololá	701	Sololá	4	Finca Santa Victoria	11	Noviembre	2023-11-13T00:00:00	2024-11-08T22:00:00	4	Temperatura máxima	15.8
142119	7	Sololá	701	Sololá	4	Finca Santa Victoria	11	Noviembre	2023-11-13T00:00:00	2024-11-08T22:00:00	3	Temperatura mínima	15.2
142120	7	Sololá	701	Sololá	4	Finca Santa Victoria	11	Noviembre	2023-11-13T00:00:00	2024-11-08T22:00:00	5	Humedad	91
142121	7	Sololá	701	Sololá	4	Finca Santa Victoria	11	Noviembre	2023-11-13T00:00:00	2024-11-08T22:00:00	6	Velocidad del viento	3.2
142122	7	Sololá	701	Sololá	4	Finca Santa Victoria	11	Noviembre	2023-11-13T00:00:00	2024-11-08T22:00:00	7	Dirección del viento	3.22
142123	7	Sololá	701	Sololá	4	Finca Santa Victoria	11	Noviembre	2023-11-13T00:00:00	2024-11-08T22:00:00	1	Precipitación	0
142124	7	Sololá	701	Sololá	4	Finca Santa Victoria	11	Noviembre	2023-11-13T00:00:00	2024-11-08T22:00:00	8	Radiación solar	0
142125	7	Sololá	701	Sololá	4	Finca Santa Victoria	11	Noviembre	2023-11-13T00:00:00	2024-11-08T23:00:00	2	Temperatura media	15.2
142126	7	Sololá	701	Sololá	4	Finca Santa Victoria	11	Noviembre	2023-11-13T00:00:00	2024-11-08T23:00:00	4	Temperatura máxima	15.3
142127	7	Sololá	701	Sololá	4	Finca Santa Victoria	11	Noviembre	2023-11-13T00:00:00	2024-11-08T23:00:00	3	Temperatura mínima	15.1
142128	7	Sololá	701	Sololá	4	Finca Santa Victoria	11	Noviembre	2023-11-13T00:00:00	2024-11-08T23:00:00	5	Humedad	91
142129	7	Sololá	701	Sololá	4	Finca Santa Victoria	11	Noviembre	2023-11-13T00:00:00	2024-11-08T23:00:00	6	Velocidad del viento	1.6
142130	7	Sololá	701	Sololá	4	Finca Santa Victoria	11	Noviembre	2023-11-13T00:00:00	2024-11-08T23:00:00	7	Dirección del viento	1.61
142131	7	Sololá	701	Sololá	4	Finca Santa Victoria	11	Noviembre	2023-11-13T00:00:00	2024-11-08T23:00:00	1	Precipitación	0
142132	7	Sololá	701	Sololá	4	Finca Santa Victoria	11	Noviembre	2023-11-13T00:00:00	2024-11-08T23:00:00	8	Radiación solar	0
142133	7	Sololá	701	Sololá	4	Finca Santa Victoria	11	Noviembre	2023-11-14T00:00:00	2024-11-08T00:00:00	2	Temperatura media	14.9
142134	7	Sololá	701	Sololá	4	Finca Santa Victoria	11	Noviembre	2023-11-14T00:00:00	2024-11-08T00:00:00	4	Temperatura máxima	15.3
142135	7	Sololá	701	Sololá	4	Finca Santa Victoria	11	Noviembre	2023-11-14T00:00:00	2024-11-08T00:00:00	3	Temperatura mínima	14.8
142136	7	Sololá	701	Sololá	4	Finca Santa Victoria	11	Noviembre	2023-11-14T00:00:00	2024-11-08T00:00:00	5	Humedad	92
142137	7	Sololá	701	Sololá	4	Finca Santa Victoria	11	Noviembre	2023-11-14T00:00:00	2024-11-08T00:00:00	6	Velocidad del viento	1.6
142138	7	Sololá	701	Sololá	4	Finca Santa Victoria	11	Noviembre	2023-11-14T00:00:00	2024-11-08T00:00:00	7	Dirección del viento	1.61
142139	7	Sololá	701	Sololá	4	Finca Santa Victoria	11	Noviembre	2023-11-14T00:00:00	2024-11-08T00:00:00	1	Precipitación	0
142140	7	Sololá	701	Sololá	4	Finca Santa Victoria	11	Noviembre	2023-11-14T00:00:00	2024-11-08T00:00:00	8	Radiación solar	0
142141	7	Sololá	701	Sololá	4	Finca Santa Victoria	11	Noviembre	2023-11-14T00:00:00	2024-11-08T01:00:00	2	Temperatura media	15.1
142142	7	Sololá	701	Sololá	4	Finca Santa Victoria	11	Noviembre	2023-11-14T00:00:00	2024-11-08T01:00:00	4	Temperatura máxima	15.2
142143	7	Sololá	701	Sololá	4	Finca Santa Victoria	11	Noviembre	2023-11-14T00:00:00	2024-11-08T01:00:00	3	Temperatura mínima	14.9
142144	7	Sololá	701	Sololá	4	Finca Santa Victoria	11	Noviembre	2023-11-14T00:00:00	2024-11-08T01:00:00	5	Humedad	91
142145	7	Sololá	701	Sololá	4	Finca Santa Victoria	11	Noviembre	2023-11-14T00:00:00	2024-11-08T01:00:00	6	Velocidad del viento	1.6
142146	7	Sololá	701	Sololá	4	Finca Santa Victoria	11	Noviembre	2023-11-14T00:00:00	2024-11-08T01:00:00	7	Dirección del viento	1.61
142147	7	Sololá	701	Sololá	4	Finca Santa Victoria	11	Noviembre	2023-11-14T00:00:00	2024-11-08T01:00:00	1	Precipitación	0
142148	7	Sololá	701	Sololá	4	Finca Santa Victoria	11	Noviembre	2023-11-14T00:00:00	2024-11-08T01:00:00	8	Radiación solar	0
142149	7	Sololá	701	Sololá	4	Finca Santa Victoria	11	Noviembre	2023-11-14T00:00:00	2024-11-08T02:00:00	2	Temperatura media	14.4
142150	7	Sololá	701	Sololá	4	Finca Santa Victoria	11	Noviembre	2023-11-14T00:00:00	2024-11-08T02:00:00	4	Temperatura máxima	15.1
142151	7	Sololá	701	Sololá	4	Finca Santa Victoria	11	Noviembre	2023-11-14T00:00:00	2024-11-08T02:00:00	3	Temperatura mínima	14.3
142152	7	Sololá	701	Sololá	4	Finca Santa Victoria	11	Noviembre	2023-11-14T00:00:00	2024-11-08T02:00:00	5	Humedad	93
142153	7	Sololá	701	Sololá	4	Finca Santa Victoria	11	Noviembre	2023-11-14T00:00:00	2024-11-08T02:00:00	6	Velocidad del viento	1.6
142154	7	Sololá	701	Sololá	4	Finca Santa Victoria	11	Noviembre	2023-11-14T00:00:00	2024-11-08T02:00:00	7	Dirección del viento	1.61
142155	7	Sololá	701	Sololá	4	Finca Santa Victoria	11	Noviembre	2023-11-14T00:00:00	2024-11-08T02:00:00	1	Precipitación	0
142156	7	Sololá	701	Sololá	4	Finca Santa Victoria	11	Noviembre	2023-11-14T00:00:00	2024-11-08T02:00:00	8	Radiación solar	0
142157	7	Sololá	701	Sololá	4	Finca Santa Victoria	11	Noviembre	2023-11-14T00:00:00	2024-11-08T03:00:00	2	Temperatura media	14.6
142158	7	Sololá	701	Sololá	4	Finca Santa Victoria	11	Noviembre	2023-11-14T00:00:00	2024-11-08T03:00:00	4	Temperatura máxima	14.8
142159	7	Sololá	701	Sololá	4	Finca Santa Victoria	11	Noviembre	2023-11-14T00:00:00	2024-11-08T03:00:00	3	Temperatura mínima	14.4
142160	7	Sololá	701	Sololá	4	Finca Santa Victoria	11	Noviembre	2023-11-14T00:00:00	2024-11-08T03:00:00	5	Humedad	91
142161	7	Sololá	701	Sololá	4	Finca Santa Victoria	11	Noviembre	2023-11-14T00:00:00	2024-11-08T03:00:00	6	Velocidad del viento	1.6
142162	7	Sololá	701	Sololá	4	Finca Santa Victoria	11	Noviembre	2023-11-14T00:00:00	2024-11-08T03:00:00	7	Dirección del viento	1.61
142163	7	Sololá	701	Sololá	4	Finca Santa Victoria	11	Noviembre	2023-11-14T00:00:00	2024-11-08T03:00:00	1	Precipitación	0
142164	7	Sololá	701	Sololá	4	Finca Santa Victoria	11	Noviembre	2023-11-14T00:00:00	2024-11-08T03:00:00	8	Radiación solar	0
142165	7	Sololá	701	Sololá	4	Finca Santa Victoria	11	Noviembre	2023-11-14T00:00:00	2024-11-08T04:00:00	2	Temperatura media	14.4
142166	7	Sololá	701	Sololá	4	Finca Santa Victoria	11	Noviembre	2023-11-14T00:00:00	2024-11-08T04:00:00	4	Temperatura máxima	14.7
142167	7	Sololá	701	Sololá	4	Finca Santa Victoria	11	Noviembre	2023-11-14T00:00:00	2024-11-08T04:00:00	3	Temperatura mínima	14.4
142168	7	Sololá	701	Sololá	4	Finca Santa Victoria	11	Noviembre	2023-11-14T00:00:00	2024-11-08T04:00:00	5	Humedad	91
142169	7	Sololá	701	Sololá	4	Finca Santa Victoria	11	Noviembre	2023-11-14T00:00:00	2024-11-08T04:00:00	6	Velocidad del viento	1.6
142170	7	Sololá	701	Sololá	4	Finca Santa Victoria	11	Noviembre	2023-11-14T00:00:00	2024-11-08T04:00:00	7	Dirección del viento	1.61
142171	7	Sololá	701	Sololá	4	Finca Santa Victoria	11	Noviembre	2023-11-14T00:00:00	2024-11-08T04:00:00	1	Precipitación	0
142172	7	Sololá	701	Sololá	4	Finca Santa Victoria	11	Noviembre	2023-11-14T00:00:00	2024-11-08T04:00:00	8	Radiación solar	0
142173	7	Sololá	701	Sololá	4	Finca Santa Victoria	11	Noviembre	2023-11-14T00:00:00	2024-11-08T05:00:00	2	Temperatura media	14.8
142174	7	Sololá	701	Sololá	4	Finca Santa Victoria	11	Noviembre	2023-11-14T00:00:00	2024-11-08T05:00:00	4	Temperatura máxima	14.8
142175	7	Sololá	701	Sololá	4	Finca Santa Victoria	11	Noviembre	2023-11-14T00:00:00	2024-11-08T05:00:00	3	Temperatura mínima	14.3
142176	7	Sololá	701	Sololá	4	Finca Santa Victoria	11	Noviembre	2023-11-14T00:00:00	2024-11-08T05:00:00	5	Humedad	89
142177	7	Sololá	701	Sololá	4	Finca Santa Victoria	11	Noviembre	2023-11-14T00:00:00	2024-11-08T05:00:00	6	Velocidad del viento	1.6
142178	7	Sololá	701	Sololá	4	Finca Santa Victoria	11	Noviembre	2023-11-14T00:00:00	2024-11-08T05:00:00	7	Dirección del viento	1.61
142179	7	Sololá	701	Sololá	4	Finca Santa Victoria	11	Noviembre	2023-11-14T00:00:00	2024-11-08T05:00:00	1	Precipitación	0
142180	7	Sololá	701	Sololá	4	Finca Santa Victoria	11	Noviembre	2023-11-14T00:00:00	2024-11-08T05:00:00	8	Radiación solar	0
142181	7	Sololá	701	Sololá	4	Finca Santa Victoria	11	Noviembre	2023-11-14T00:00:00	2024-11-08T06:00:00	2	Temperatura media	14.7
142182	7	Sololá	701	Sololá	4	Finca Santa Victoria	11	Noviembre	2023-11-14T00:00:00	2024-11-08T06:00:00	4	Temperatura máxima	14.9
142183	7	Sololá	701	Sololá	4	Finca Santa Victoria	11	Noviembre	2023-11-14T00:00:00	2024-11-08T06:00:00	3	Temperatura mínima	14.6
142184	7	Sololá	701	Sololá	4	Finca Santa Victoria	11	Noviembre	2023-11-14T00:00:00	2024-11-08T06:00:00	5	Humedad	89
142185	7	Sololá	701	Sololá	4	Finca Santa Victoria	11	Noviembre	2023-11-14T00:00:00	2024-11-08T06:00:00	6	Velocidad del viento	1.6
142186	7	Sololá	701	Sololá	4	Finca Santa Victoria	11	Noviembre	2023-11-14T00:00:00	2024-11-08T06:00:00	7	Dirección del viento	1.61
142187	7	Sololá	701	Sololá	4	Finca Santa Victoria	11	Noviembre	2023-11-14T00:00:00	2024-11-08T06:00:00	1	Precipitación	0
142188	7	Sololá	701	Sololá	4	Finca Santa Victoria	11	Noviembre	2023-11-14T00:00:00	2024-11-08T06:00:00	8	Radiación solar	0
142189	7	Sololá	701	Sololá	4	Finca Santa Victoria	11	Noviembre	2023-11-14T00:00:00	2024-11-08T07:00:00	2	Temperatura media	14.9
142190	7	Sololá	701	Sololá	4	Finca Santa Victoria	11	Noviembre	2023-11-14T00:00:00	2024-11-08T07:00:00	4	Temperatura máxima	15
142191	7	Sololá	701	Sololá	4	Finca Santa Victoria	11	Noviembre	2023-11-14T00:00:00	2024-11-08T07:00:00	3	Temperatura mínima	14.7
142192	7	Sololá	701	Sololá	4	Finca Santa Victoria	11	Noviembre	2023-11-14T00:00:00	2024-11-08T07:00:00	5	Humedad	90
142193	7	Sololá	701	Sololá	4	Finca Santa Victoria	11	Noviembre	2023-11-14T00:00:00	2024-11-08T07:00:00	6	Velocidad del viento	1.6
142194	7	Sololá	701	Sololá	4	Finca Santa Victoria	11	Noviembre	2023-11-14T00:00:00	2024-11-08T07:00:00	7	Dirección del viento	1.61
142195	7	Sololá	701	Sololá	4	Finca Santa Victoria	11	Noviembre	2023-11-14T00:00:00	2024-11-08T07:00:00	1	Precipitación	0
142196	7	Sololá	701	Sololá	4	Finca Santa Victoria	11	Noviembre	2023-11-14T00:00:00	2024-11-08T07:00:00	8	Radiación solar	13
142197	7	Sololá	701	Sololá	4	Finca Santa Victoria	11	Noviembre	2023-11-14T00:00:00	2024-11-08T08:00:00	2	Temperatura media	16.7
142198	7	Sololá	701	Sololá	4	Finca Santa Victoria	11	Noviembre	2023-11-14T00:00:00	2024-11-08T08:00:00	4	Temperatura máxima	16.7
142199	7	Sololá	701	Sololá	4	Finca Santa Victoria	11	Noviembre	2023-11-14T00:00:00	2024-11-08T08:00:00	3	Temperatura mínima	15
142200	7	Sololá	701	Sololá	4	Finca Santa Victoria	11	Noviembre	2023-11-14T00:00:00	2024-11-08T08:00:00	5	Humedad	83
142201	7	Sololá	701	Sololá	4	Finca Santa Victoria	11	Noviembre	2023-11-14T00:00:00	2024-11-08T08:00:00	6	Velocidad del viento	1.6
142202	7	Sololá	701	Sololá	4	Finca Santa Victoria	11	Noviembre	2023-11-14T00:00:00	2024-11-08T08:00:00	7	Dirección del viento	1.61
142203	7	Sololá	701	Sololá	4	Finca Santa Victoria	11	Noviembre	2023-11-14T00:00:00	2024-11-08T08:00:00	1	Precipitación	0
142204	7	Sololá	701	Sololá	4	Finca Santa Victoria	11	Noviembre	2023-11-14T00:00:00	2024-11-08T08:00:00	8	Radiación solar	87
142205	7	Sololá	701	Sololá	4	Finca Santa Victoria	11	Noviembre	2023-11-14T00:00:00	2024-11-08T09:00:00	2	Temperatura media	17.2
142206	7	Sololá	701	Sololá	4	Finca Santa Victoria	11	Noviembre	2023-11-14T00:00:00	2024-11-08T09:00:00	4	Temperatura máxima	17.5
142207	7	Sololá	701	Sololá	4	Finca Santa Victoria	11	Noviembre	2023-11-14T00:00:00	2024-11-08T09:00:00	3	Temperatura mínima	16.7
142208	7	Sololá	701	Sololá	4	Finca Santa Victoria	11	Noviembre	2023-11-14T00:00:00	2024-11-08T09:00:00	5	Humedad	81
142209	7	Sololá	701	Sololá	4	Finca Santa Victoria	11	Noviembre	2023-11-14T00:00:00	2024-11-08T09:00:00	6	Velocidad del viento	3.2
142210	7	Sololá	701	Sololá	4	Finca Santa Victoria	11	Noviembre	2023-11-14T00:00:00	2024-11-08T09:00:00	7	Dirección del viento	3.22
142211	7	Sololá	701	Sololá	4	Finca Santa Victoria	11	Noviembre	2023-11-14T00:00:00	2024-11-08T09:00:00	1	Precipitación	0
142212	7	Sololá	701	Sololá	4	Finca Santa Victoria	11	Noviembre	2023-11-14T00:00:00	2024-11-08T09:00:00	8	Radiación solar	154
142213	7	Sololá	701	Sololá	4	Finca Santa Victoria	11	Noviembre	2023-11-14T00:00:00	2024-11-08T10:00:00	2	Temperatura media	19.5
142214	7	Sololá	701	Sololá	4	Finca Santa Victoria	11	Noviembre	2023-11-14T00:00:00	2024-11-08T10:00:00	4	Temperatura máxima	19.9
142215	7	Sololá	701	Sololá	4	Finca Santa Victoria	11	Noviembre	2023-11-14T00:00:00	2024-11-08T10:00:00	3	Temperatura mínima	17.2
142216	7	Sololá	701	Sololá	4	Finca Santa Victoria	11	Noviembre	2023-11-14T00:00:00	2024-11-08T10:00:00	5	Humedad	76
142217	7	Sololá	701	Sololá	4	Finca Santa Victoria	11	Noviembre	2023-11-14T00:00:00	2024-11-08T10:00:00	6	Velocidad del viento	3.2
142218	7	Sololá	701	Sololá	4	Finca Santa Victoria	11	Noviembre	2023-11-14T00:00:00	2024-11-08T10:00:00	7	Dirección del viento	3.22
142219	7	Sololá	701	Sololá	4	Finca Santa Victoria	11	Noviembre	2023-11-14T00:00:00	2024-11-08T10:00:00	1	Precipitación	0
142220	7	Sololá	701	Sololá	4	Finca Santa Victoria	11	Noviembre	2023-11-14T00:00:00	2024-11-08T10:00:00	8	Radiación solar	354
142221	7	Sololá	701	Sololá	4	Finca Santa Victoria	11	Noviembre	2023-11-14T00:00:00	2024-11-08T11:00:00	2	Temperatura media	20.9
142222	7	Sololá	701	Sololá	4	Finca Santa Victoria	11	Noviembre	2023-11-14T00:00:00	2024-11-08T11:00:00	4	Temperatura máxima	21.1
142223	7	Sololá	701	Sololá	4	Finca Santa Victoria	11	Noviembre	2023-11-14T00:00:00	2024-11-08T11:00:00	3	Temperatura mínima	19.1
142224	7	Sololá	701	Sololá	4	Finca Santa Victoria	11	Noviembre	2023-11-14T00:00:00	2024-11-08T11:00:00	5	Humedad	72
142225	7	Sololá	701	Sololá	4	Finca Santa Victoria	11	Noviembre	2023-11-14T00:00:00	2024-11-08T11:00:00	6	Velocidad del viento	3.2
142226	7	Sololá	701	Sololá	4	Finca Santa Victoria	11	Noviembre	2023-11-14T00:00:00	2024-11-08T11:00:00	7	Dirección del viento	3.22
142227	7	Sololá	701	Sololá	4	Finca Santa Victoria	11	Noviembre	2023-11-14T00:00:00	2024-11-08T11:00:00	1	Precipitación	0
142228	7	Sololá	701	Sololá	4	Finca Santa Victoria	11	Noviembre	2023-11-14T00:00:00	2024-11-08T11:00:00	8	Radiación solar	440
142229	7	Sololá	701	Sololá	4	Finca Santa Victoria	11	Noviembre	2023-11-14T00:00:00	2024-11-08T12:00:00	2	Temperatura media	20.6
142230	7	Sololá	701	Sololá	4	Finca Santa Victoria	11	Noviembre	2023-11-14T00:00:00	2024-11-08T12:00:00	4	Temperatura máxima	20.9
142231	7	Sololá	701	Sololá	4	Finca Santa Victoria	11	Noviembre	2023-11-14T00:00:00	2024-11-08T12:00:00	3	Temperatura mínima	19.3
142232	7	Sololá	701	Sololá	4	Finca Santa Victoria	11	Noviembre	2023-11-14T00:00:00	2024-11-08T12:00:00	5	Humedad	73
142233	7	Sololá	701	Sololá	4	Finca Santa Victoria	11	Noviembre	2023-11-14T00:00:00	2024-11-08T12:00:00	6	Velocidad del viento	3.2
142234	7	Sololá	701	Sololá	4	Finca Santa Victoria	11	Noviembre	2023-11-14T00:00:00	2024-11-08T12:00:00	7	Dirección del viento	3.22
142235	7	Sololá	701	Sololá	4	Finca Santa Victoria	11	Noviembre	2023-11-14T00:00:00	2024-11-08T12:00:00	1	Precipitación	0
142236	7	Sololá	701	Sololá	4	Finca Santa Victoria	11	Noviembre	2023-11-14T00:00:00	2024-11-08T12:00:00	8	Radiación solar	439
142237	7	Sololá	701	Sololá	4	Finca Santa Victoria	11	Noviembre	2023-11-14T00:00:00	2024-11-08T13:00:00	2	Temperatura media	19.5
142238	7	Sololá	701	Sololá	4	Finca Santa Victoria	11	Noviembre	2023-11-14T00:00:00	2024-11-08T13:00:00	4	Temperatura máxima	20.8
142239	7	Sololá	701	Sololá	4	Finca Santa Victoria	11	Noviembre	2023-11-14T00:00:00	2024-11-08T13:00:00	3	Temperatura mínima	19.5
142240	7	Sololá	701	Sololá	4	Finca Santa Victoria	11	Noviembre	2023-11-14T00:00:00	2024-11-08T13:00:00	5	Humedad	76
142241	7	Sololá	701	Sololá	4	Finca Santa Victoria	11	Noviembre	2023-11-14T00:00:00	2024-11-08T13:00:00	6	Velocidad del viento	3.2
142242	7	Sololá	701	Sololá	4	Finca Santa Victoria	11	Noviembre	2023-11-14T00:00:00	2024-11-08T13:00:00	7	Dirección del viento	3.22
142243	7	Sololá	701	Sololá	4	Finca Santa Victoria	11	Noviembre	2023-11-14T00:00:00	2024-11-08T13:00:00	1	Precipitación	0
142244	7	Sololá	701	Sololá	4	Finca Santa Victoria	11	Noviembre	2023-11-14T00:00:00	2024-11-08T13:00:00	8	Radiación solar	306
142245	7	Sololá	701	Sololá	4	Finca Santa Victoria	11	Noviembre	2023-11-14T00:00:00	2024-11-08T14:00:00	2	Temperatura media	19.8
142246	7	Sololá	701	Sololá	4	Finca Santa Victoria	11	Noviembre	2023-11-14T00:00:00	2024-11-08T14:00:00	4	Temperatura máxima	19.8
142247	7	Sololá	701	Sololá	4	Finca Santa Victoria	11	Noviembre	2023-11-14T00:00:00	2024-11-08T14:00:00	3	Temperatura mínima	18.9
142248	7	Sololá	701	Sololá	4	Finca Santa Victoria	11	Noviembre	2023-11-14T00:00:00	2024-11-08T14:00:00	5	Humedad	74
142249	7	Sololá	701	Sololá	4	Finca Santa Victoria	11	Noviembre	2023-11-14T00:00:00	2024-11-08T14:00:00	6	Velocidad del viento	1.6
142250	7	Sololá	701	Sololá	4	Finca Santa Victoria	11	Noviembre	2023-11-14T00:00:00	2024-11-08T14:00:00	7	Dirección del viento	1.61
142251	7	Sololá	701	Sololá	4	Finca Santa Victoria	11	Noviembre	2023-11-14T00:00:00	2024-11-08T14:00:00	1	Precipitación	0
142252	7	Sololá	701	Sololá	4	Finca Santa Victoria	11	Noviembre	2023-11-14T00:00:00	2024-11-08T14:00:00	8	Radiación solar	220
142253	7	Sololá	701	Sololá	4	Finca Santa Victoria	11	Noviembre	2023-11-14T00:00:00	2024-11-08T15:00:00	2	Temperatura media	17.6
142254	7	Sololá	701	Sololá	4	Finca Santa Victoria	11	Noviembre	2023-11-14T00:00:00	2024-11-08T15:00:00	4	Temperatura máxima	20.1
142255	7	Sololá	701	Sololá	4	Finca Santa Victoria	11	Noviembre	2023-11-14T00:00:00	2024-11-08T15:00:00	3	Temperatura mínima	17.6
142256	7	Sololá	701	Sololá	4	Finca Santa Victoria	11	Noviembre	2023-11-14T00:00:00	2024-11-08T15:00:00	5	Humedad	85
142257	7	Sololá	701	Sololá	4	Finca Santa Victoria	11	Noviembre	2023-11-14T00:00:00	2024-11-08T15:00:00	6	Velocidad del viento	3.2
142258	7	Sololá	701	Sololá	4	Finca Santa Victoria	11	Noviembre	2023-11-14T00:00:00	2024-11-08T15:00:00	7	Dirección del viento	3.22
142259	7	Sololá	701	Sololá	4	Finca Santa Victoria	11	Noviembre	2023-11-14T00:00:00	2024-11-08T15:00:00	1	Precipitación	0
142260	7	Sololá	701	Sololá	4	Finca Santa Victoria	11	Noviembre	2023-11-14T00:00:00	2024-11-08T15:00:00	8	Radiación solar	149
142261	7	Sololá	701	Sololá	4	Finca Santa Victoria	11	Noviembre	2023-11-14T00:00:00	2024-11-08T16:00:00	2	Temperatura media	16.4
142262	7	Sololá	701	Sololá	4	Finca Santa Victoria	11	Noviembre	2023-11-14T00:00:00	2024-11-08T16:00:00	4	Temperatura máxima	17.6
142263	7	Sololá	701	Sololá	4	Finca Santa Victoria	11	Noviembre	2023-11-14T00:00:00	2024-11-08T16:00:00	3	Temperatura mínima	16.4
142264	7	Sololá	701	Sololá	4	Finca Santa Victoria	11	Noviembre	2023-11-14T00:00:00	2024-11-08T16:00:00	5	Humedad	88
142265	7	Sololá	701	Sololá	4	Finca Santa Victoria	11	Noviembre	2023-11-14T00:00:00	2024-11-08T16:00:00	6	Velocidad del viento	3.2
142266	7	Sololá	701	Sololá	4	Finca Santa Victoria	11	Noviembre	2023-11-14T00:00:00	2024-11-08T16:00:00	7	Dirección del viento	3.22
142267	7	Sololá	701	Sololá	4	Finca Santa Victoria	11	Noviembre	2023-11-14T00:00:00	2024-11-08T16:00:00	1	Precipitación	0.2
142268	7	Sololá	701	Sololá	4	Finca Santa Victoria	11	Noviembre	2023-11-14T00:00:00	2024-11-08T16:00:00	8	Radiación solar	70
142269	7	Sololá	701	Sololá	4	Finca Santa Victoria	11	Noviembre	2023-11-14T00:00:00	2024-11-08T17:00:00	2	Temperatura media	15.4
142270	7	Sololá	701	Sololá	4	Finca Santa Victoria	11	Noviembre	2023-11-14T00:00:00	2024-11-08T17:00:00	4	Temperatura máxima	16.4
142271	7	Sololá	701	Sololá	4	Finca Santa Victoria	11	Noviembre	2023-11-14T00:00:00	2024-11-08T17:00:00	3	Temperatura mínima	15.4
142272	7	Sololá	701	Sololá	4	Finca Santa Victoria	11	Noviembre	2023-11-14T00:00:00	2024-11-08T17:00:00	5	Humedad	89
142273	7	Sololá	701	Sololá	4	Finca Santa Victoria	11	Noviembre	2023-11-14T00:00:00	2024-11-08T17:00:00	6	Velocidad del viento	3.2
142274	7	Sololá	701	Sololá	4	Finca Santa Victoria	11	Noviembre	2023-11-14T00:00:00	2024-11-08T17:00:00	7	Dirección del viento	3.22
142275	7	Sololá	701	Sololá	4	Finca Santa Victoria	11	Noviembre	2023-11-14T00:00:00	2024-11-08T17:00:00	1	Precipitación	0
142276	7	Sololá	701	Sololá	4	Finca Santa Victoria	11	Noviembre	2023-11-14T00:00:00	2024-11-08T17:00:00	8	Radiación solar	26
142277	7	Sololá	701	Sololá	4	Finca Santa Victoria	11	Noviembre	2023-11-14T00:00:00	2024-11-08T18:00:00	2	Temperatura media	15.1
142278	7	Sololá	701	Sololá	4	Finca Santa Victoria	11	Noviembre	2023-11-14T00:00:00	2024-11-08T18:00:00	4	Temperatura máxima	15.4
142279	7	Sololá	701	Sololá	4	Finca Santa Victoria	11	Noviembre	2023-11-14T00:00:00	2024-11-08T18:00:00	3	Temperatura mínima	15.1
142280	7	Sololá	701	Sololá	4	Finca Santa Victoria	11	Noviembre	2023-11-14T00:00:00	2024-11-08T18:00:00	5	Humedad	89
142281	7	Sololá	701	Sololá	4	Finca Santa Victoria	11	Noviembre	2023-11-14T00:00:00	2024-11-08T18:00:00	6	Velocidad del viento	3.2
142282	7	Sololá	701	Sololá	4	Finca Santa Victoria	11	Noviembre	2023-11-14T00:00:00	2024-11-08T18:00:00	7	Dirección del viento	3.22
142283	7	Sololá	701	Sololá	4	Finca Santa Victoria	11	Noviembre	2023-11-14T00:00:00	2024-11-08T18:00:00	1	Precipitación	0
142284	7	Sololá	701	Sololá	4	Finca Santa Victoria	11	Noviembre	2023-11-14T00:00:00	2024-11-08T18:00:00	8	Radiación solar	3
142285	7	Sololá	701	Sololá	4	Finca Santa Victoria	11	Noviembre	2023-11-14T00:00:00	2024-11-08T19:00:00	2	Temperatura media	15.1
142286	7	Sololá	701	Sololá	4	Finca Santa Victoria	11	Noviembre	2023-11-14T00:00:00	2024-11-08T19:00:00	4	Temperatura máxima	15.2
142287	7	Sololá	701	Sololá	4	Finca Santa Victoria	11	Noviembre	2023-11-14T00:00:00	2024-11-08T19:00:00	3	Temperatura mínima	15
142288	7	Sololá	701	Sololá	4	Finca Santa Victoria	11	Noviembre	2023-11-14T00:00:00	2024-11-08T19:00:00	5	Humedad	89
142289	7	Sololá	701	Sololá	4	Finca Santa Victoria	11	Noviembre	2023-11-14T00:00:00	2024-11-08T19:00:00	6	Velocidad del viento	1.6
142290	7	Sololá	701	Sololá	4	Finca Santa Victoria	11	Noviembre	2023-11-14T00:00:00	2024-11-08T19:00:00	7	Dirección del viento	1.61
142291	7	Sololá	701	Sololá	4	Finca Santa Victoria	11	Noviembre	2023-11-14T00:00:00	2024-11-08T19:00:00	1	Precipitación	0
142292	7	Sololá	701	Sololá	4	Finca Santa Victoria	11	Noviembre	2023-11-14T00:00:00	2024-11-08T19:00:00	8	Radiación solar	0
142293	7	Sololá	701	Sololá	4	Finca Santa Victoria	11	Noviembre	2023-11-14T00:00:00	2024-11-08T20:00:00	2	Temperatura media	14.7
142294	7	Sololá	701	Sololá	4	Finca Santa Victoria	11	Noviembre	2023-11-14T00:00:00	2024-11-08T20:00:00	4	Temperatura máxima	15.1
142295	7	Sololá	701	Sololá	4	Finca Santa Victoria	11	Noviembre	2023-11-14T00:00:00	2024-11-08T20:00:00	3	Temperatura mínima	14.7
142296	7	Sololá	701	Sololá	4	Finca Santa Victoria	11	Noviembre	2023-11-14T00:00:00	2024-11-08T20:00:00	5	Humedad	91
142297	7	Sololá	701	Sololá	4	Finca Santa Victoria	11	Noviembre	2023-11-14T00:00:00	2024-11-08T20:00:00	6	Velocidad del viento	3.2
142298	7	Sololá	701	Sololá	4	Finca Santa Victoria	11	Noviembre	2023-11-14T00:00:00	2024-11-08T20:00:00	7	Dirección del viento	3.22
142299	7	Sololá	701	Sololá	4	Finca Santa Victoria	11	Noviembre	2023-11-14T00:00:00	2024-11-08T20:00:00	1	Precipitación	0
142300	7	Sololá	701	Sololá	4	Finca Santa Victoria	11	Noviembre	2023-11-14T00:00:00	2024-11-08T20:00:00	8	Radiación solar	0
142301	7	Sololá	701	Sololá	4	Finca Santa Victoria	11	Noviembre	2023-11-14T00:00:00	2024-11-08T21:00:00	2	Temperatura media	14.9
142302	7	Sololá	701	Sololá	4	Finca Santa Victoria	11	Noviembre	2023-11-14T00:00:00	2024-11-08T21:00:00	4	Temperatura máxima	14.9
142303	7	Sololá	701	Sololá	4	Finca Santa Victoria	11	Noviembre	2023-11-14T00:00:00	2024-11-08T21:00:00	3	Temperatura mínima	14.6
142304	7	Sololá	701	Sololá	4	Finca Santa Victoria	11	Noviembre	2023-11-14T00:00:00	2024-11-08T21:00:00	5	Humedad	89
142305	7	Sololá	701	Sololá	4	Finca Santa Victoria	11	Noviembre	2023-11-14T00:00:00	2024-11-08T21:00:00	6	Velocidad del viento	3.2
142306	7	Sololá	701	Sololá	4	Finca Santa Victoria	11	Noviembre	2023-11-14T00:00:00	2024-11-08T21:00:00	7	Dirección del viento	3.22
142307	7	Sololá	701	Sololá	4	Finca Santa Victoria	11	Noviembre	2023-11-14T00:00:00	2024-11-08T21:00:00	1	Precipitación	0
142308	7	Sololá	701	Sololá	4	Finca Santa Victoria	11	Noviembre	2023-11-14T00:00:00	2024-11-08T21:00:00	8	Radiación solar	0
142309	7	Sololá	701	Sololá	4	Finca Santa Victoria	11	Noviembre	2023-11-14T00:00:00	2024-11-08T22:00:00	2	Temperatura media	14.9
142310	7	Sololá	701	Sololá	4	Finca Santa Victoria	11	Noviembre	2023-11-14T00:00:00	2024-11-08T22:00:00	4	Temperatura máxima	14.9
142311	7	Sololá	701	Sololá	4	Finca Santa Victoria	11	Noviembre	2023-11-14T00:00:00	2024-11-08T22:00:00	3	Temperatura mínima	14.9
142312	7	Sololá	701	Sololá	4	Finca Santa Victoria	11	Noviembre	2023-11-14T00:00:00	2024-11-08T22:00:00	5	Humedad	88
142313	7	Sololá	701	Sololá	4	Finca Santa Victoria	11	Noviembre	2023-11-14T00:00:00	2024-11-08T22:00:00	6	Velocidad del viento	3.2
142314	7	Sololá	701	Sololá	4	Finca Santa Victoria	11	Noviembre	2023-11-14T00:00:00	2024-11-08T22:00:00	7	Dirección del viento	3.22
142315	7	Sololá	701	Sololá	4	Finca Santa Victoria	11	Noviembre	2023-11-14T00:00:00	2024-11-08T22:00:00	1	Precipitación	0
142316	7	Sololá	701	Sololá	4	Finca Santa Victoria	11	Noviembre	2023-11-14T00:00:00	2024-11-08T22:00:00	8	Radiación solar	0
142317	7	Sololá	701	Sololá	4	Finca Santa Victoria	11	Noviembre	2023-11-14T00:00:00	2024-11-08T23:00:00	2	Temperatura media	14.9
142318	7	Sololá	701	Sololá	4	Finca Santa Victoria	11	Noviembre	2023-11-14T00:00:00	2024-11-08T23:00:00	4	Temperatura máxima	15
142319	7	Sololá	701	Sololá	4	Finca Santa Victoria	11	Noviembre	2023-11-14T00:00:00	2024-11-08T23:00:00	3	Temperatura mínima	14.8
142320	7	Sololá	701	Sololá	4	Finca Santa Victoria	11	Noviembre	2023-11-14T00:00:00	2024-11-08T23:00:00	5	Humedad	86
142321	7	Sololá	701	Sololá	4	Finca Santa Victoria	11	Noviembre	2023-11-14T00:00:00	2024-11-08T23:00:00	6	Velocidad del viento	3.2
142322	7	Sololá	701	Sololá	4	Finca Santa Victoria	11	Noviembre	2023-11-14T00:00:00	2024-11-08T23:00:00	7	Dirección del viento	3.22
142323	7	Sololá	701	Sololá	4	Finca Santa Victoria	11	Noviembre	2023-11-14T00:00:00	2024-11-08T23:00:00	1	Precipitación	0
142324	7	Sololá	701	Sololá	4	Finca Santa Victoria	11	Noviembre	2023-11-14T00:00:00	2024-11-08T23:00:00	8	Radiación solar	0
142325	7	Sololá	701	Sololá	4	Finca Santa Victoria	11	Noviembre	2023-11-15T00:00:00	2024-11-08T00:00:00	2	Temperatura media	14.6
142326	7	Sololá	701	Sololá	4	Finca Santa Victoria	11	Noviembre	2023-11-15T00:00:00	2024-11-08T00:00:00	4	Temperatura máxima	15
142327	7	Sololá	701	Sololá	4	Finca Santa Victoria	11	Noviembre	2023-11-15T00:00:00	2024-11-08T00:00:00	3	Temperatura mínima	14.6
142328	7	Sololá	701	Sololá	4	Finca Santa Victoria	11	Noviembre	2023-11-15T00:00:00	2024-11-08T00:00:00	5	Humedad	87
142329	7	Sololá	701	Sololá	4	Finca Santa Victoria	11	Noviembre	2023-11-15T00:00:00	2024-11-08T00:00:00	6	Velocidad del viento	3.2
142330	7	Sololá	701	Sololá	4	Finca Santa Victoria	11	Noviembre	2023-11-15T00:00:00	2024-11-08T00:00:00	7	Dirección del viento	3.22
142331	7	Sololá	701	Sololá	4	Finca Santa Victoria	11	Noviembre	2023-11-15T00:00:00	2024-11-08T00:00:00	1	Precipitación	0
142332	7	Sololá	701	Sololá	4	Finca Santa Victoria	11	Noviembre	2023-11-15T00:00:00	2024-11-08T00:00:00	8	Radiación solar	0
142333	7	Sololá	701	Sololá	4	Finca Santa Victoria	11	Noviembre	2023-11-15T00:00:00	2024-11-08T01:00:00	2	Temperatura media	14.6
142334	7	Sololá	701	Sololá	4	Finca Santa Victoria	11	Noviembre	2023-11-15T00:00:00	2024-11-08T01:00:00	4	Temperatura máxima	14.7
142335	7	Sololá	701	Sololá	4	Finca Santa Victoria	11	Noviembre	2023-11-15T00:00:00	2024-11-08T01:00:00	3	Temperatura mínima	14.5
142336	7	Sololá	701	Sololá	4	Finca Santa Victoria	11	Noviembre	2023-11-15T00:00:00	2024-11-08T01:00:00	5	Humedad	88
142337	7	Sololá	701	Sololá	4	Finca Santa Victoria	11	Noviembre	2023-11-15T00:00:00	2024-11-08T01:00:00	6	Velocidad del viento	3.2
142338	7	Sololá	701	Sololá	4	Finca Santa Victoria	11	Noviembre	2023-11-15T00:00:00	2024-11-08T01:00:00	7	Dirección del viento	3.22
142339	7	Sololá	701	Sololá	4	Finca Santa Victoria	11	Noviembre	2023-11-15T00:00:00	2024-11-08T01:00:00	1	Precipitación	0
142340	7	Sololá	701	Sololá	4	Finca Santa Victoria	11	Noviembre	2023-11-15T00:00:00	2024-11-08T01:00:00	8	Radiación solar	0
142341	7	Sololá	701	Sololá	4	Finca Santa Victoria	11	Noviembre	2023-11-15T00:00:00	2024-11-08T02:00:00	2	Temperatura media	14.8
142342	7	Sololá	701	Sololá	4	Finca Santa Victoria	11	Noviembre	2023-11-15T00:00:00	2024-11-08T02:00:00	4	Temperatura máxima	14.8
142343	7	Sololá	701	Sololá	4	Finca Santa Victoria	11	Noviembre	2023-11-15T00:00:00	2024-11-08T02:00:00	3	Temperatura mínima	14.4
142344	7	Sololá	701	Sololá	4	Finca Santa Victoria	11	Noviembre	2023-11-15T00:00:00	2024-11-08T02:00:00	5	Humedad	88
142345	7	Sololá	701	Sololá	4	Finca Santa Victoria	11	Noviembre	2023-11-15T00:00:00	2024-11-08T02:00:00	6	Velocidad del viento	3.2
142346	7	Sololá	701	Sololá	4	Finca Santa Victoria	11	Noviembre	2023-11-15T00:00:00	2024-11-08T02:00:00	7	Dirección del viento	3.22
142347	7	Sololá	701	Sololá	4	Finca Santa Victoria	11	Noviembre	2023-11-15T00:00:00	2024-11-08T02:00:00	1	Precipitación	0
142348	7	Sololá	701	Sololá	4	Finca Santa Victoria	11	Noviembre	2023-11-15T00:00:00	2024-11-08T02:00:00	8	Radiación solar	0
142349	7	Sololá	701	Sololá	4	Finca Santa Victoria	11	Noviembre	2023-11-15T00:00:00	2024-11-08T03:00:00	2	Temperatura media	14.8
142350	7	Sololá	701	Sololá	4	Finca Santa Victoria	11	Noviembre	2023-11-15T00:00:00	2024-11-08T03:00:00	4	Temperatura máxima	14.9
142351	7	Sololá	701	Sololá	4	Finca Santa Victoria	11	Noviembre	2023-11-15T00:00:00	2024-11-08T03:00:00	3	Temperatura mínima	14.6
142352	7	Sololá	701	Sololá	4	Finca Santa Victoria	11	Noviembre	2023-11-15T00:00:00	2024-11-08T03:00:00	5	Humedad	87
142353	7	Sololá	701	Sololá	4	Finca Santa Victoria	11	Noviembre	2023-11-15T00:00:00	2024-11-08T03:00:00	6	Velocidad del viento	3.2
142354	7	Sololá	701	Sololá	4	Finca Santa Victoria	11	Noviembre	2023-11-15T00:00:00	2024-11-08T03:00:00	7	Dirección del viento	3.22
142355	7	Sololá	701	Sololá	4	Finca Santa Victoria	11	Noviembre	2023-11-15T00:00:00	2024-11-08T03:00:00	1	Precipitación	0
142356	7	Sololá	701	Sololá	4	Finca Santa Victoria	11	Noviembre	2023-11-15T00:00:00	2024-11-08T03:00:00	8	Radiación solar	0
142357	7	Sololá	701	Sololá	4	Finca Santa Victoria	11	Noviembre	2023-11-15T00:00:00	2024-11-08T04:00:00	2	Temperatura media	14.9
142358	7	Sololá	701	Sololá	4	Finca Santa Victoria	11	Noviembre	2023-11-15T00:00:00	2024-11-08T04:00:00	4	Temperatura máxima	14.9
142359	7	Sololá	701	Sololá	4	Finca Santa Victoria	11	Noviembre	2023-11-15T00:00:00	2024-11-08T04:00:00	3	Temperatura mínima	14.8
142360	7	Sololá	701	Sololá	4	Finca Santa Victoria	11	Noviembre	2023-11-15T00:00:00	2024-11-08T04:00:00	5	Humedad	87
142361	7	Sololá	701	Sololá	4	Finca Santa Victoria	11	Noviembre	2023-11-15T00:00:00	2024-11-08T04:00:00	6	Velocidad del viento	4.8
142362	7	Sololá	701	Sololá	4	Finca Santa Victoria	11	Noviembre	2023-11-15T00:00:00	2024-11-08T04:00:00	7	Dirección del viento	4.83
142363	7	Sololá	701	Sololá	4	Finca Santa Victoria	11	Noviembre	2023-11-15T00:00:00	2024-11-08T04:00:00	1	Precipitación	0
142364	7	Sololá	701	Sololá	4	Finca Santa Victoria	11	Noviembre	2023-11-15T00:00:00	2024-11-08T04:00:00	8	Radiación solar	0
142365	7	Sololá	701	Sololá	4	Finca Santa Victoria	11	Noviembre	2023-11-15T00:00:00	2024-11-08T05:00:00	2	Temperatura media	14.8
142366	7	Sololá	701	Sololá	4	Finca Santa Victoria	11	Noviembre	2023-11-15T00:00:00	2024-11-08T05:00:00	4	Temperatura máxima	14.9
142367	7	Sololá	701	Sololá	4	Finca Santa Victoria	11	Noviembre	2023-11-15T00:00:00	2024-11-08T05:00:00	3	Temperatura mínima	14.8
142368	7	Sololá	701	Sololá	4	Finca Santa Victoria	11	Noviembre	2023-11-15T00:00:00	2024-11-08T05:00:00	5	Humedad	87
142369	7	Sololá	701	Sololá	4	Finca Santa Victoria	11	Noviembre	2023-11-15T00:00:00	2024-11-08T05:00:00	6	Velocidad del viento	3.2
142370	7	Sololá	701	Sololá	4	Finca Santa Victoria	11	Noviembre	2023-11-15T00:00:00	2024-11-08T05:00:00	7	Dirección del viento	3.22
142371	7	Sololá	701	Sololá	4	Finca Santa Victoria	11	Noviembre	2023-11-15T00:00:00	2024-11-08T05:00:00	1	Precipitación	0
142372	7	Sololá	701	Sololá	4	Finca Santa Victoria	11	Noviembre	2023-11-15T00:00:00	2024-11-08T05:00:00	8	Radiación solar	0
142373	7	Sololá	701	Sololá	4	Finca Santa Victoria	11	Noviembre	2023-11-15T00:00:00	2024-11-08T06:00:00	2	Temperatura media	14.6
142374	7	Sololá	701	Sololá	4	Finca Santa Victoria	11	Noviembre	2023-11-15T00:00:00	2024-11-08T06:00:00	4	Temperatura máxima	14.8
142375	7	Sololá	701	Sololá	4	Finca Santa Victoria	11	Noviembre	2023-11-15T00:00:00	2024-11-08T06:00:00	3	Temperatura mínima	14.6
142376	7	Sololá	701	Sololá	4	Finca Santa Victoria	11	Noviembre	2023-11-15T00:00:00	2024-11-08T06:00:00	5	Humedad	88
142377	7	Sololá	701	Sololá	4	Finca Santa Victoria	11	Noviembre	2023-11-15T00:00:00	2024-11-08T06:00:00	6	Velocidad del viento	3.2
142378	7	Sololá	701	Sololá	4	Finca Santa Victoria	11	Noviembre	2023-11-15T00:00:00	2024-11-08T06:00:00	7	Dirección del viento	3.22
142379	7	Sololá	701	Sololá	4	Finca Santa Victoria	11	Noviembre	2023-11-15T00:00:00	2024-11-08T06:00:00	1	Precipitación	0
142380	7	Sololá	701	Sololá	4	Finca Santa Victoria	11	Noviembre	2023-11-15T00:00:00	2024-11-08T06:00:00	8	Radiación solar	0
142381	7	Sololá	701	Sololá	4	Finca Santa Victoria	11	Noviembre	2023-11-15T00:00:00	2024-11-08T07:00:00	2	Temperatura media	14.8
142382	7	Sololá	701	Sololá	4	Finca Santa Victoria	11	Noviembre	2023-11-15T00:00:00	2024-11-08T07:00:00	4	Temperatura máxima	14.8
142383	7	Sololá	701	Sololá	4	Finca Santa Victoria	11	Noviembre	2023-11-15T00:00:00	2024-11-08T07:00:00	3	Temperatura mínima	14.3
142384	7	Sololá	701	Sololá	4	Finca Santa Victoria	11	Noviembre	2023-11-15T00:00:00	2024-11-08T07:00:00	5	Humedad	87
142385	7	Sololá	701	Sololá	4	Finca Santa Victoria	11	Noviembre	2023-11-15T00:00:00	2024-11-08T07:00:00	6	Velocidad del viento	3.2
142386	7	Sololá	701	Sololá	4	Finca Santa Victoria	11	Noviembre	2023-11-15T00:00:00	2024-11-08T07:00:00	7	Dirección del viento	3.22
142387	7	Sololá	701	Sololá	4	Finca Santa Victoria	11	Noviembre	2023-11-15T00:00:00	2024-11-08T07:00:00	1	Precipitación	0
142388	7	Sololá	701	Sololá	4	Finca Santa Victoria	11	Noviembre	2023-11-15T00:00:00	2024-11-08T07:00:00	8	Radiación solar	13
142389	7	Sololá	701	Sololá	4	Finca Santa Victoria	11	Noviembre	2023-11-15T00:00:00	2024-11-08T08:00:00	2	Temperatura media	15.8
142390	7	Sololá	701	Sololá	4	Finca Santa Victoria	11	Noviembre	2023-11-15T00:00:00	2024-11-08T08:00:00	4	Temperatura máxima	15.8
142391	7	Sololá	701	Sololá	4	Finca Santa Victoria	11	Noviembre	2023-11-15T00:00:00	2024-11-08T08:00:00	3	Temperatura mínima	14.7
142392	7	Sololá	701	Sololá	4	Finca Santa Victoria	11	Noviembre	2023-11-15T00:00:00	2024-11-08T08:00:00	5	Humedad	84
142393	7	Sololá	701	Sololá	4	Finca Santa Victoria	11	Noviembre	2023-11-15T00:00:00	2024-11-08T08:00:00	6	Velocidad del viento	4.8
142394	7	Sololá	701	Sololá	4	Finca Santa Victoria	11	Noviembre	2023-11-15T00:00:00	2024-11-08T08:00:00	7	Dirección del viento	4.83
142395	7	Sololá	701	Sololá	4	Finca Santa Victoria	11	Noviembre	2023-11-15T00:00:00	2024-11-08T08:00:00	1	Precipitación	0
142396	7	Sololá	701	Sololá	4	Finca Santa Victoria	11	Noviembre	2023-11-15T00:00:00	2024-11-08T08:00:00	8	Radiación solar	88
142397	7	Sololá	701	Sololá	4	Finca Santa Victoria	11	Noviembre	2023-11-15T00:00:00	2024-11-08T09:00:00	2	Temperatura media	17.2
142398	7	Sololá	701	Sololá	4	Finca Santa Victoria	11	Noviembre	2023-11-15T00:00:00	2024-11-08T09:00:00	4	Temperatura máxima	17.2
142399	7	Sololá	701	Sololá	4	Finca Santa Victoria	11	Noviembre	2023-11-15T00:00:00	2024-11-08T09:00:00	3	Temperatura mínima	15.8
142400	7	Sololá	701	Sololá	4	Finca Santa Victoria	11	Noviembre	2023-11-15T00:00:00	2024-11-08T09:00:00	5	Humedad	80
142401	7	Sololá	701	Sololá	4	Finca Santa Victoria	11	Noviembre	2023-11-15T00:00:00	2024-11-08T09:00:00	6	Velocidad del viento	4.8
142402	7	Sololá	701	Sololá	4	Finca Santa Victoria	11	Noviembre	2023-11-15T00:00:00	2024-11-08T09:00:00	7	Dirección del viento	4.83
142403	7	Sololá	701	Sololá	4	Finca Santa Victoria	11	Noviembre	2023-11-15T00:00:00	2024-11-08T09:00:00	1	Precipitación	0
142404	7	Sololá	701	Sololá	4	Finca Santa Victoria	11	Noviembre	2023-11-15T00:00:00	2024-11-08T09:00:00	8	Radiación solar	144
142405	7	Sololá	701	Sololá	4	Finca Santa Victoria	11	Noviembre	2023-11-15T00:00:00	2024-11-08T10:00:00	2	Temperatura media	17.2
142406	7	Sololá	701	Sololá	4	Finca Santa Victoria	11	Noviembre	2023-11-15T00:00:00	2024-11-08T10:00:00	4	Temperatura máxima	17.3
142407	7	Sololá	701	Sololá	4	Finca Santa Victoria	11	Noviembre	2023-11-15T00:00:00	2024-11-08T10:00:00	3	Temperatura mínima	16.9
142408	7	Sololá	701	Sololá	4	Finca Santa Victoria	11	Noviembre	2023-11-15T00:00:00	2024-11-08T10:00:00	5	Humedad	80
142409	7	Sololá	701	Sololá	4	Finca Santa Victoria	11	Noviembre	2023-11-15T00:00:00	2024-11-08T10:00:00	6	Velocidad del viento	3.2
142410	7	Sololá	701	Sololá	4	Finca Santa Victoria	11	Noviembre	2023-11-15T00:00:00	2024-11-08T10:00:00	7	Dirección del viento	3.22
142411	7	Sololá	701	Sololá	4	Finca Santa Victoria	11	Noviembre	2023-11-15T00:00:00	2024-11-08T10:00:00	1	Precipitación	0
142412	7	Sololá	701	Sololá	4	Finca Santa Victoria	11	Noviembre	2023-11-15T00:00:00	2024-11-08T10:00:00	8	Radiación solar	168
142413	7	Sololá	701	Sololá	4	Finca Santa Victoria	11	Noviembre	2023-11-15T00:00:00	2024-11-08T11:00:00	2	Temperatura media	18.7
142414	7	Sololá	701	Sololá	4	Finca Santa Victoria	11	Noviembre	2023-11-15T00:00:00	2024-11-08T11:00:00	4	Temperatura máxima	18.7
142415	7	Sololá	701	Sololá	4	Finca Santa Victoria	11	Noviembre	2023-11-15T00:00:00	2024-11-08T11:00:00	3	Temperatura mínima	17.1
142416	7	Sololá	701	Sololá	4	Finca Santa Victoria	11	Noviembre	2023-11-15T00:00:00	2024-11-08T11:00:00	5	Humedad	76
142417	7	Sololá	701	Sololá	4	Finca Santa Victoria	11	Noviembre	2023-11-15T00:00:00	2024-11-08T11:00:00	6	Velocidad del viento	3.2
142418	7	Sololá	701	Sololá	4	Finca Santa Victoria	11	Noviembre	2023-11-15T00:00:00	2024-11-08T11:00:00	7	Dirección del viento	3.22
142419	7	Sololá	701	Sololá	4	Finca Santa Victoria	11	Noviembre	2023-11-15T00:00:00	2024-11-08T11:00:00	1	Precipitación	0
142420	7	Sololá	701	Sololá	4	Finca Santa Victoria	11	Noviembre	2023-11-15T00:00:00	2024-11-08T11:00:00	8	Radiación solar	229
142421	7	Sololá	701	Sololá	4	Finca Santa Victoria	11	Noviembre	2023-11-15T00:00:00	2024-11-08T12:00:00	2	Temperatura media	19.9
142422	7	Sololá	701	Sololá	4	Finca Santa Victoria	11	Noviembre	2023-11-15T00:00:00	2024-11-08T12:00:00	4	Temperatura máxima	20.3
142423	7	Sololá	701	Sololá	4	Finca Santa Victoria	11	Noviembre	2023-11-15T00:00:00	2024-11-08T12:00:00	3	Temperatura mínima	18.7
142424	7	Sololá	701	Sololá	4	Finca Santa Victoria	11	Noviembre	2023-11-15T00:00:00	2024-11-08T12:00:00	5	Humedad	72
142425	7	Sololá	701	Sololá	4	Finca Santa Victoria	11	Noviembre	2023-11-15T00:00:00	2024-11-08T12:00:00	6	Velocidad del viento	3.2
142426	7	Sololá	701	Sololá	4	Finca Santa Victoria	11	Noviembre	2023-11-15T00:00:00	2024-11-08T12:00:00	7	Dirección del viento	3.22
142427	7	Sololá	701	Sololá	4	Finca Santa Victoria	11	Noviembre	2023-11-15T00:00:00	2024-11-08T12:00:00	1	Precipitación	0
142428	7	Sololá	701	Sololá	4	Finca Santa Victoria	11	Noviembre	2023-11-15T00:00:00	2024-11-08T12:00:00	8	Radiación solar	582
142429	7	Sololá	701	Sololá	4	Finca Santa Victoria	11	Noviembre	2023-11-15T00:00:00	2024-11-08T13:00:00	2	Temperatura media	20.6
142430	7	Sololá	701	Sololá	4	Finca Santa Victoria	11	Noviembre	2023-11-15T00:00:00	2024-11-08T13:00:00	4	Temperatura máxima	20.7
142431	7	Sololá	701	Sololá	4	Finca Santa Victoria	11	Noviembre	2023-11-15T00:00:00	2024-11-08T13:00:00	3	Temperatura mínima	18.9
142432	7	Sololá	701	Sololá	4	Finca Santa Victoria	11	Noviembre	2023-11-15T00:00:00	2024-11-08T13:00:00	5	Humedad	74
142433	7	Sololá	701	Sololá	4	Finca Santa Victoria	11	Noviembre	2023-11-15T00:00:00	2024-11-08T13:00:00	6	Velocidad del viento	3.2
142434	7	Sololá	701	Sololá	4	Finca Santa Victoria	11	Noviembre	2023-11-15T00:00:00	2024-11-08T13:00:00	7	Dirección del viento	3.22
142435	7	Sololá	701	Sololá	4	Finca Santa Victoria	11	Noviembre	2023-11-15T00:00:00	2024-11-08T13:00:00	1	Precipitación	0
142436	7	Sololá	701	Sololá	4	Finca Santa Victoria	11	Noviembre	2023-11-15T00:00:00	2024-11-08T13:00:00	8	Radiación solar	253
142437	7	Sololá	701	Sololá	4	Finca Santa Victoria	11	Noviembre	2023-11-15T00:00:00	2024-11-08T14:00:00	2	Temperatura media	20.4
142438	7	Sololá	701	Sololá	4	Finca Santa Victoria	11	Noviembre	2023-11-15T00:00:00	2024-11-08T14:00:00	4	Temperatura máxima	20.9
142439	7	Sololá	701	Sololá	4	Finca Santa Victoria	11	Noviembre	2023-11-15T00:00:00	2024-11-08T14:00:00	3	Temperatura mínima	19.8
142440	7	Sololá	701	Sololá	4	Finca Santa Victoria	11	Noviembre	2023-11-15T00:00:00	2024-11-08T14:00:00	5	Humedad	70
142441	7	Sololá	701	Sololá	4	Finca Santa Victoria	11	Noviembre	2023-11-15T00:00:00	2024-11-08T14:00:00	6	Velocidad del viento	3.2
142442	7	Sololá	701	Sololá	4	Finca Santa Victoria	11	Noviembre	2023-11-15T00:00:00	2024-11-08T14:00:00	7	Dirección del viento	3.22
142443	7	Sololá	701	Sololá	4	Finca Santa Victoria	11	Noviembre	2023-11-15T00:00:00	2024-11-08T14:00:00	1	Precipitación	0
142444	7	Sololá	701	Sololá	4	Finca Santa Victoria	11	Noviembre	2023-11-15T00:00:00	2024-11-08T14:00:00	8	Radiación solar	272
142445	7	Sololá	701	Sololá	4	Finca Santa Victoria	11	Noviembre	2023-11-15T00:00:00	2024-11-08T15:00:00	2	Temperatura media	20.2
142446	7	Sololá	701	Sololá	4	Finca Santa Victoria	11	Noviembre	2023-11-15T00:00:00	2024-11-08T15:00:00	4	Temperatura máxima	20.6
142447	7	Sololá	701	Sololá	4	Finca Santa Victoria	11	Noviembre	2023-11-15T00:00:00	2024-11-08T15:00:00	3	Temperatura mínima	20
142448	7	Sololá	701	Sololá	4	Finca Santa Victoria	11	Noviembre	2023-11-15T00:00:00	2024-11-08T15:00:00	5	Humedad	71
142449	7	Sololá	701	Sololá	4	Finca Santa Victoria	11	Noviembre	2023-11-15T00:00:00	2024-11-08T15:00:00	6	Velocidad del viento	3.2
142450	7	Sololá	701	Sololá	4	Finca Santa Victoria	11	Noviembre	2023-11-15T00:00:00	2024-11-08T15:00:00	7	Dirección del viento	3.22
142451	7	Sololá	701	Sololá	4	Finca Santa Victoria	11	Noviembre	2023-11-15T00:00:00	2024-11-08T15:00:00	1	Precipitación	0
142452	7	Sololá	701	Sololá	4	Finca Santa Victoria	11	Noviembre	2023-11-15T00:00:00	2024-11-08T15:00:00	8	Radiación solar	180
142453	7	Sololá	701	Sololá	4	Finca Santa Victoria	11	Noviembre	2023-11-15T00:00:00	2024-11-08T16:00:00	2	Temperatura media	20.7
142454	7	Sololá	701	Sololá	4	Finca Santa Victoria	11	Noviembre	2023-11-15T00:00:00	2024-11-08T16:00:00	4	Temperatura máxima	20.8
142455	7	Sololá	701	Sololá	4	Finca Santa Victoria	11	Noviembre	2023-11-15T00:00:00	2024-11-08T16:00:00	3	Temperatura mínima	19.7
142456	7	Sololá	701	Sololá	4	Finca Santa Victoria	11	Noviembre	2023-11-15T00:00:00	2024-11-08T16:00:00	5	Humedad	70
142457	7	Sololá	701	Sololá	4	Finca Santa Victoria	11	Noviembre	2023-11-15T00:00:00	2024-11-08T16:00:00	6	Velocidad del viento	3.2
142458	7	Sololá	701	Sololá	4	Finca Santa Victoria	11	Noviembre	2023-11-15T00:00:00	2024-11-08T16:00:00	7	Dirección del viento	3.22
142459	7	Sololá	701	Sololá	4	Finca Santa Victoria	11	Noviembre	2023-11-15T00:00:00	2024-11-08T16:00:00	1	Precipitación	0
142460	7	Sololá	701	Sololá	4	Finca Santa Victoria	11	Noviembre	2023-11-15T00:00:00	2024-11-08T16:00:00	8	Radiación solar	218
142461	7	Sololá	701	Sololá	4	Finca Santa Victoria	11	Noviembre	2023-11-15T00:00:00	2024-11-08T17:00:00	2	Temperatura media	17.3
142462	7	Sololá	701	Sololá	4	Finca Santa Victoria	11	Noviembre	2023-11-15T00:00:00	2024-11-08T17:00:00	4	Temperatura máxima	20.8
142463	7	Sololá	701	Sololá	4	Finca Santa Victoria	11	Noviembre	2023-11-15T00:00:00	2024-11-08T17:00:00	3	Temperatura mínima	17.3
142464	7	Sololá	701	Sololá	4	Finca Santa Victoria	11	Noviembre	2023-11-15T00:00:00	2024-11-08T17:00:00	5	Humedad	76
142465	7	Sololá	701	Sololá	4	Finca Santa Victoria	11	Noviembre	2023-11-15T00:00:00	2024-11-08T17:00:00	6	Velocidad del viento	3.2
142466	7	Sololá	701	Sololá	4	Finca Santa Victoria	11	Noviembre	2023-11-15T00:00:00	2024-11-08T17:00:00	7	Dirección del viento	3.22
142467	7	Sololá	701	Sololá	4	Finca Santa Victoria	11	Noviembre	2023-11-15T00:00:00	2024-11-08T17:00:00	1	Precipitación	0
142468	7	Sololá	701	Sololá	4	Finca Santa Victoria	11	Noviembre	2023-11-15T00:00:00	2024-11-08T17:00:00	8	Radiación solar	145
142469	7	Sololá	701	Sololá	4	Finca Santa Victoria	11	Noviembre	2023-11-15T00:00:00	2024-11-08T18:00:00	2	Temperatura media	15.7
142470	7	Sololá	701	Sololá	4	Finca Santa Victoria	11	Noviembre	2023-11-15T00:00:00	2024-11-08T18:00:00	4	Temperatura máxima	17.3
142471	7	Sololá	701	Sololá	4	Finca Santa Victoria	11	Noviembre	2023-11-15T00:00:00	2024-11-08T18:00:00	3	Temperatura mínima	15.7
142472	7	Sololá	701	Sololá	4	Finca Santa Victoria	11	Noviembre	2023-11-15T00:00:00	2024-11-08T18:00:00	5	Humedad	83
142473	7	Sololá	701	Sololá	4	Finca Santa Victoria	11	Noviembre	2023-11-15T00:00:00	2024-11-08T18:00:00	6	Velocidad del viento	3.2
142474	7	Sololá	701	Sololá	4	Finca Santa Victoria	11	Noviembre	2023-11-15T00:00:00	2024-11-08T18:00:00	7	Dirección del viento	3.22
142475	7	Sololá	701	Sololá	4	Finca Santa Victoria	11	Noviembre	2023-11-15T00:00:00	2024-11-08T18:00:00	1	Precipitación	0
142476	7	Sololá	701	Sololá	4	Finca Santa Victoria	11	Noviembre	2023-11-15T00:00:00	2024-11-08T18:00:00	8	Radiación solar	6
142477	7	Sololá	701	Sololá	4	Finca Santa Victoria	11	Noviembre	2023-11-15T00:00:00	2024-11-08T19:00:00	2	Temperatura media	14.9
142478	7	Sololá	701	Sololá	4	Finca Santa Victoria	11	Noviembre	2023-11-15T00:00:00	2024-11-08T19:00:00	4	Temperatura máxima	15.7
142479	7	Sololá	701	Sololá	4	Finca Santa Victoria	11	Noviembre	2023-11-15T00:00:00	2024-11-08T19:00:00	3	Temperatura mínima	14.9
142480	7	Sololá	701	Sololá	4	Finca Santa Victoria	11	Noviembre	2023-11-15T00:00:00	2024-11-08T19:00:00	5	Humedad	86
142481	7	Sololá	701	Sololá	4	Finca Santa Victoria	11	Noviembre	2023-11-15T00:00:00	2024-11-08T19:00:00	6	Velocidad del viento	3.2
142482	7	Sololá	701	Sololá	4	Finca Santa Victoria	11	Noviembre	2023-11-15T00:00:00	2024-11-08T19:00:00	7	Dirección del viento	3.22
142483	7	Sololá	701	Sololá	4	Finca Santa Victoria	11	Noviembre	2023-11-15T00:00:00	2024-11-08T19:00:00	1	Precipitación	0
142484	7	Sololá	701	Sololá	4	Finca Santa Victoria	11	Noviembre	2023-11-15T00:00:00	2024-11-08T19:00:00	8	Radiación solar	0
142485	7	Sololá	701	Sololá	4	Finca Santa Victoria	11	Noviembre	2023-11-15T00:00:00	2024-11-08T20:00:00	2	Temperatura media	14.7
142486	7	Sololá	701	Sololá	4	Finca Santa Victoria	11	Noviembre	2023-11-15T00:00:00	2024-11-08T20:00:00	4	Temperatura máxima	15
142487	7	Sololá	701	Sololá	4	Finca Santa Victoria	11	Noviembre	2023-11-15T00:00:00	2024-11-08T20:00:00	3	Temperatura mínima	14.6
142488	7	Sololá	701	Sololá	4	Finca Santa Victoria	11	Noviembre	2023-11-15T00:00:00	2024-11-08T20:00:00	5	Humedad	88
142489	7	Sololá	701	Sololá	4	Finca Santa Victoria	11	Noviembre	2023-11-15T00:00:00	2024-11-08T20:00:00	6	Velocidad del viento	3.2
142490	7	Sololá	701	Sololá	4	Finca Santa Victoria	11	Noviembre	2023-11-15T00:00:00	2024-11-08T20:00:00	7	Dirección del viento	3.22
142491	7	Sololá	701	Sololá	4	Finca Santa Victoria	11	Noviembre	2023-11-15T00:00:00	2024-11-08T20:00:00	1	Precipitación	0
142492	7	Sololá	701	Sololá	4	Finca Santa Victoria	11	Noviembre	2023-11-15T00:00:00	2024-11-08T20:00:00	8	Radiación solar	0
142493	7	Sololá	701	Sololá	4	Finca Santa Victoria	11	Noviembre	2023-11-15T00:00:00	2024-11-08T21:00:00	2	Temperatura media	14.3
142494	7	Sololá	701	Sololá	4	Finca Santa Victoria	11	Noviembre	2023-11-15T00:00:00	2024-11-08T21:00:00	4	Temperatura máxima	14.7
142495	7	Sololá	701	Sololá	4	Finca Santa Victoria	11	Noviembre	2023-11-15T00:00:00	2024-11-08T21:00:00	3	Temperatura mínima	14.2
142496	7	Sololá	701	Sololá	4	Finca Santa Victoria	11	Noviembre	2023-11-15T00:00:00	2024-11-08T21:00:00	5	Humedad	87
142497	7	Sololá	701	Sololá	4	Finca Santa Victoria	11	Noviembre	2023-11-15T00:00:00	2024-11-08T21:00:00	6	Velocidad del viento	3.2
142498	7	Sololá	701	Sololá	4	Finca Santa Victoria	11	Noviembre	2023-11-15T00:00:00	2024-11-08T21:00:00	7	Dirección del viento	3.22
142499	7	Sololá	701	Sololá	4	Finca Santa Victoria	11	Noviembre	2023-11-15T00:00:00	2024-11-08T21:00:00	1	Precipitación	0
142500	7	Sololá	701	Sololá	4	Finca Santa Victoria	11	Noviembre	2023-11-15T00:00:00	2024-11-08T21:00:00	8	Radiación solar	0
142501	7	Sololá	701	Sololá	4	Finca Santa Victoria	11	Noviembre	2023-11-15T00:00:00	2024-11-08T22:00:00	2	Temperatura media	14.4
142502	7	Sololá	701	Sololá	4	Finca Santa Victoria	11	Noviembre	2023-11-15T00:00:00	2024-11-08T22:00:00	4	Temperatura máxima	14.6
142503	7	Sololá	701	Sololá	4	Finca Santa Victoria	11	Noviembre	2023-11-15T00:00:00	2024-11-08T22:00:00	3	Temperatura mínima	14.3
142504	7	Sololá	701	Sololá	4	Finca Santa Victoria	11	Noviembre	2023-11-15T00:00:00	2024-11-08T22:00:00	5	Humedad	84
142505	7	Sololá	701	Sololá	4	Finca Santa Victoria	11	Noviembre	2023-11-15T00:00:00	2024-11-08T22:00:00	6	Velocidad del viento	3.2
142506	7	Sololá	701	Sololá	4	Finca Santa Victoria	11	Noviembre	2023-11-15T00:00:00	2024-11-08T22:00:00	7	Dirección del viento	3.22
142507	7	Sololá	701	Sololá	4	Finca Santa Victoria	11	Noviembre	2023-11-15T00:00:00	2024-11-08T22:00:00	1	Precipitación	0
142508	7	Sololá	701	Sololá	4	Finca Santa Victoria	11	Noviembre	2023-11-15T00:00:00	2024-11-08T22:00:00	8	Radiación solar	0
142509	7	Sololá	701	Sololá	4	Finca Santa Victoria	11	Noviembre	2023-11-15T00:00:00	2024-11-08T23:00:00	2	Temperatura media	14.2
142510	7	Sololá	701	Sololá	4	Finca Santa Victoria	11	Noviembre	2023-11-15T00:00:00	2024-11-08T23:00:00	4	Temperatura máxima	14.4
142511	7	Sololá	701	Sololá	4	Finca Santa Victoria	11	Noviembre	2023-11-15T00:00:00	2024-11-08T23:00:00	3	Temperatura mínima	14.2
142512	7	Sololá	701	Sololá	4	Finca Santa Victoria	11	Noviembre	2023-11-15T00:00:00	2024-11-08T23:00:00	5	Humedad	81
142513	7	Sololá	701	Sololá	4	Finca Santa Victoria	11	Noviembre	2023-11-15T00:00:00	2024-11-08T23:00:00	6	Velocidad del viento	3.2
142514	7	Sololá	701	Sololá	4	Finca Santa Victoria	11	Noviembre	2023-11-15T00:00:00	2024-11-08T23:00:00	7	Dirección del viento	3.22
142515	7	Sololá	701	Sololá	4	Finca Santa Victoria	11	Noviembre	2023-11-15T00:00:00	2024-11-08T23:00:00	1	Precipitación	0
142516	7	Sololá	701	Sololá	4	Finca Santa Victoria	11	Noviembre	2023-11-15T00:00:00	2024-11-08T23:00:00	8	Radiación solar	0
142517	7	Sololá	701	Sololá	4	Finca Santa Victoria	11	Noviembre	2023-11-16T00:00:00	2024-11-08T00:00:00	2	Temperatura media	13.8
142518	7	Sololá	701	Sololá	4	Finca Santa Victoria	11	Noviembre	2023-11-16T00:00:00	2024-11-08T00:00:00	4	Temperatura máxima	14.3
142519	7	Sololá	701	Sololá	4	Finca Santa Victoria	11	Noviembre	2023-11-16T00:00:00	2024-11-08T00:00:00	3	Temperatura mínima	13.8
142520	7	Sololá	701	Sololá	4	Finca Santa Victoria	11	Noviembre	2023-11-16T00:00:00	2024-11-08T00:00:00	5	Humedad	83
142521	7	Sololá	701	Sololá	4	Finca Santa Victoria	11	Noviembre	2023-11-16T00:00:00	2024-11-08T00:00:00	6	Velocidad del viento	3.2
142522	7	Sololá	701	Sololá	4	Finca Santa Victoria	11	Noviembre	2023-11-16T00:00:00	2024-11-08T00:00:00	7	Dirección del viento	3.22
142523	7	Sololá	701	Sololá	4	Finca Santa Victoria	11	Noviembre	2023-11-16T00:00:00	2024-11-08T00:00:00	1	Precipitación	0
142524	7	Sololá	701	Sololá	4	Finca Santa Victoria	11	Noviembre	2023-11-16T00:00:00	2024-11-08T00:00:00	8	Radiación solar	0
142525	7	Sololá	701	Sololá	4	Finca Santa Victoria	11	Noviembre	2023-11-16T00:00:00	2024-11-08T01:00:00	2	Temperatura media	13.8
142526	7	Sololá	701	Sololá	4	Finca Santa Victoria	11	Noviembre	2023-11-16T00:00:00	2024-11-08T01:00:00	4	Temperatura máxima	14.2
142527	7	Sololá	701	Sololá	4	Finca Santa Victoria	11	Noviembre	2023-11-16T00:00:00	2024-11-08T01:00:00	3	Temperatura mínima	13.6
142528	7	Sololá	701	Sololá	4	Finca Santa Victoria	11	Noviembre	2023-11-16T00:00:00	2024-11-08T01:00:00	5	Humedad	82
142529	7	Sololá	701	Sololá	4	Finca Santa Victoria	11	Noviembre	2023-11-16T00:00:00	2024-11-08T01:00:00	6	Velocidad del viento	3.2
142530	7	Sololá	701	Sololá	4	Finca Santa Victoria	11	Noviembre	2023-11-16T00:00:00	2024-11-08T01:00:00	7	Dirección del viento	3.22
142531	7	Sololá	701	Sololá	4	Finca Santa Victoria	11	Noviembre	2023-11-16T00:00:00	2024-11-08T01:00:00	1	Precipitación	0
142532	7	Sololá	701	Sololá	4	Finca Santa Victoria	11	Noviembre	2023-11-16T00:00:00	2024-11-08T01:00:00	8	Radiación solar	0
142533	7	Sololá	701	Sololá	4	Finca Santa Victoria	11	Noviembre	2023-11-16T00:00:00	2024-11-08T02:00:00	2	Temperatura media	14.1
142534	7	Sololá	701	Sololá	4	Finca Santa Victoria	11	Noviembre	2023-11-16T00:00:00	2024-11-08T02:00:00	4	Temperatura máxima	14.1
142535	7	Sololá	701	Sololá	4	Finca Santa Victoria	11	Noviembre	2023-11-16T00:00:00	2024-11-08T02:00:00	3	Temperatura mínima	13.8
142536	7	Sololá	701	Sololá	4	Finca Santa Victoria	11	Noviembre	2023-11-16T00:00:00	2024-11-08T02:00:00	5	Humedad	82
142537	7	Sololá	701	Sololá	4	Finca Santa Victoria	11	Noviembre	2023-11-16T00:00:00	2024-11-08T02:00:00	6	Velocidad del viento	3.2
142538	7	Sololá	701	Sololá	4	Finca Santa Victoria	11	Noviembre	2023-11-16T00:00:00	2024-11-08T02:00:00	7	Dirección del viento	3.22
142539	7	Sololá	701	Sololá	4	Finca Santa Victoria	11	Noviembre	2023-11-16T00:00:00	2024-11-08T02:00:00	1	Precipitación	0
142540	7	Sololá	701	Sololá	4	Finca Santa Victoria	11	Noviembre	2023-11-16T00:00:00	2024-11-08T02:00:00	8	Radiación solar	0
142541	7	Sololá	701	Sololá	4	Finca Santa Victoria	11	Noviembre	2023-11-16T00:00:00	2024-11-08T03:00:00	2	Temperatura media	14.6
142542	7	Sololá	701	Sololá	4	Finca Santa Victoria	11	Noviembre	2023-11-16T00:00:00	2024-11-08T03:00:00	4	Temperatura máxima	14.6
142543	7	Sololá	701	Sololá	4	Finca Santa Victoria	11	Noviembre	2023-11-16T00:00:00	2024-11-08T03:00:00	3	Temperatura mínima	13.9
142544	7	Sololá	701	Sololá	4	Finca Santa Victoria	11	Noviembre	2023-11-16T00:00:00	2024-11-08T03:00:00	5	Humedad	81
142545	7	Sololá	701	Sololá	4	Finca Santa Victoria	11	Noviembre	2023-11-16T00:00:00	2024-11-08T03:00:00	6	Velocidad del viento	4.8
142546	7	Sololá	701	Sololá	4	Finca Santa Victoria	11	Noviembre	2023-11-16T00:00:00	2024-11-08T03:00:00	7	Dirección del viento	4.83
142547	7	Sololá	701	Sololá	4	Finca Santa Victoria	11	Noviembre	2023-11-16T00:00:00	2024-11-08T03:00:00	1	Precipitación	0
142548	7	Sololá	701	Sololá	4	Finca Santa Victoria	11	Noviembre	2023-11-16T00:00:00	2024-11-08T03:00:00	8	Radiación solar	0
142549	7	Sololá	701	Sololá	4	Finca Santa Victoria	11	Noviembre	2023-11-16T00:00:00	2024-11-08T04:00:00	2	Temperatura media	14.3
142550	7	Sololá	701	Sololá	4	Finca Santa Victoria	11	Noviembre	2023-11-16T00:00:00	2024-11-08T04:00:00	4	Temperatura máxima	14.6
142551	7	Sololá	701	Sololá	4	Finca Santa Victoria	11	Noviembre	2023-11-16T00:00:00	2024-11-08T04:00:00	3	Temperatura mínima	14.3
142552	7	Sololá	701	Sololá	4	Finca Santa Victoria	11	Noviembre	2023-11-16T00:00:00	2024-11-08T04:00:00	5	Humedad	81
142553	7	Sololá	701	Sololá	4	Finca Santa Victoria	11	Noviembre	2023-11-16T00:00:00	2024-11-08T04:00:00	6	Velocidad del viento	3.2
142554	7	Sololá	701	Sololá	4	Finca Santa Victoria	11	Noviembre	2023-11-16T00:00:00	2024-11-08T04:00:00	7	Dirección del viento	3.22
142555	7	Sololá	701	Sololá	4	Finca Santa Victoria	11	Noviembre	2023-11-16T00:00:00	2024-11-08T04:00:00	1	Precipitación	0
142556	7	Sololá	701	Sololá	4	Finca Santa Victoria	11	Noviembre	2023-11-16T00:00:00	2024-11-08T04:00:00	8	Radiación solar	0
142557	7	Sololá	701	Sololá	4	Finca Santa Victoria	11	Noviembre	2023-11-16T00:00:00	2024-11-08T05:00:00	2	Temperatura media	14.2
142558	7	Sololá	701	Sololá	4	Finca Santa Victoria	11	Noviembre	2023-11-16T00:00:00	2024-11-08T05:00:00	4	Temperatura máxima	14.5
142559	7	Sololá	701	Sololá	4	Finca Santa Victoria	11	Noviembre	2023-11-16T00:00:00	2024-11-08T05:00:00	3	Temperatura mínima	14.2
142560	7	Sololá	701	Sololá	4	Finca Santa Victoria	11	Noviembre	2023-11-16T00:00:00	2024-11-08T05:00:00	5	Humedad	81
142561	7	Sololá	701	Sololá	4	Finca Santa Victoria	11	Noviembre	2023-11-16T00:00:00	2024-11-08T05:00:00	6	Velocidad del viento	3.2
142562	7	Sololá	701	Sololá	4	Finca Santa Victoria	11	Noviembre	2023-11-16T00:00:00	2024-11-08T05:00:00	7	Dirección del viento	3.22
142563	7	Sololá	701	Sololá	4	Finca Santa Victoria	11	Noviembre	2023-11-16T00:00:00	2024-11-08T05:00:00	1	Precipitación	0
142564	7	Sololá	701	Sololá	4	Finca Santa Victoria	11	Noviembre	2023-11-16T00:00:00	2024-11-08T05:00:00	8	Radiación solar	0
142565	7	Sololá	701	Sololá	4	Finca Santa Victoria	11	Noviembre	2023-11-16T00:00:00	2024-11-08T06:00:00	2	Temperatura media	13.7
142566	7	Sololá	701	Sololá	4	Finca Santa Victoria	11	Noviembre	2023-11-16T00:00:00	2024-11-08T06:00:00	4	Temperatura máxima	14.3
142567	7	Sololá	701	Sololá	4	Finca Santa Victoria	11	Noviembre	2023-11-16T00:00:00	2024-11-08T06:00:00	3	Temperatura mínima	13.6
142568	7	Sololá	701	Sololá	4	Finca Santa Victoria	11	Noviembre	2023-11-16T00:00:00	2024-11-08T06:00:00	5	Humedad	83
142569	7	Sololá	701	Sololá	4	Finca Santa Victoria	11	Noviembre	2023-11-16T00:00:00	2024-11-08T06:00:00	6	Velocidad del viento	3.2
142570	7	Sololá	701	Sololá	4	Finca Santa Victoria	11	Noviembre	2023-11-16T00:00:00	2024-11-08T06:00:00	7	Dirección del viento	3.22
142571	7	Sololá	701	Sololá	4	Finca Santa Victoria	11	Noviembre	2023-11-16T00:00:00	2024-11-08T06:00:00	1	Precipitación	0
142572	7	Sololá	701	Sololá	4	Finca Santa Victoria	11	Noviembre	2023-11-16T00:00:00	2024-11-08T06:00:00	8	Radiación solar	0
142573	7	Sololá	701	Sololá	4	Finca Santa Victoria	11	Noviembre	2023-11-16T00:00:00	2024-11-08T07:00:00	2	Temperatura media	13.9
142574	7	Sololá	701	Sololá	4	Finca Santa Victoria	11	Noviembre	2023-11-16T00:00:00	2024-11-08T07:00:00	4	Temperatura máxima	13.9
142575	7	Sololá	701	Sololá	4	Finca Santa Victoria	11	Noviembre	2023-11-16T00:00:00	2024-11-08T07:00:00	3	Temperatura mínima	13.3
142576	7	Sololá	701	Sololá	4	Finca Santa Victoria	11	Noviembre	2023-11-16T00:00:00	2024-11-08T07:00:00	5	Humedad	83
142577	7	Sololá	701	Sololá	4	Finca Santa Victoria	11	Noviembre	2023-11-16T00:00:00	2024-11-08T07:00:00	6	Velocidad del viento	3.2
142578	7	Sololá	701	Sololá	4	Finca Santa Victoria	11	Noviembre	2023-11-16T00:00:00	2024-11-08T07:00:00	7	Dirección del viento	3.22
142579	7	Sololá	701	Sololá	4	Finca Santa Victoria	11	Noviembre	2023-11-16T00:00:00	2024-11-08T07:00:00	1	Precipitación	0
142580	7	Sololá	701	Sololá	4	Finca Santa Victoria	11	Noviembre	2023-11-16T00:00:00	2024-11-08T07:00:00	8	Radiación solar	12
142581	7	Sololá	701	Sololá	4	Finca Santa Victoria	11	Noviembre	2023-11-16T00:00:00	2024-11-08T08:00:00	2	Temperatura media	15.5
142582	7	Sololá	701	Sololá	4	Finca Santa Victoria	11	Noviembre	2023-11-16T00:00:00	2024-11-08T08:00:00	4	Temperatura máxima	15.5
142583	7	Sololá	701	Sololá	4	Finca Santa Victoria	11	Noviembre	2023-11-16T00:00:00	2024-11-08T08:00:00	3	Temperatura mínima	13.9
142584	7	Sololá	701	Sololá	4	Finca Santa Victoria	11	Noviembre	2023-11-16T00:00:00	2024-11-08T08:00:00	5	Humedad	78
142585	7	Sololá	701	Sololá	4	Finca Santa Victoria	11	Noviembre	2023-11-16T00:00:00	2024-11-08T08:00:00	6	Velocidad del viento	4.8
142586	7	Sololá	701	Sololá	4	Finca Santa Victoria	11	Noviembre	2023-11-16T00:00:00	2024-11-08T08:00:00	7	Dirección del viento	4.83
142587	7	Sololá	701	Sololá	4	Finca Santa Victoria	11	Noviembre	2023-11-16T00:00:00	2024-11-08T08:00:00	1	Precipitación	0
142588	7	Sololá	701	Sololá	4	Finca Santa Victoria	11	Noviembre	2023-11-16T00:00:00	2024-11-08T08:00:00	8	Radiación solar	58
142589	7	Sololá	701	Sololá	4	Finca Santa Victoria	11	Noviembre	2023-11-16T00:00:00	2024-11-08T09:00:00	2	Temperatura media	17.2
142590	7	Sololá	701	Sololá	4	Finca Santa Victoria	11	Noviembre	2023-11-16T00:00:00	2024-11-08T09:00:00	4	Temperatura máxima	17.2
142591	7	Sololá	701	Sololá	4	Finca Santa Victoria	11	Noviembre	2023-11-16T00:00:00	2024-11-08T09:00:00	3	Temperatura mínima	15.5
142592	7	Sololá	701	Sololá	4	Finca Santa Victoria	11	Noviembre	2023-11-16T00:00:00	2024-11-08T09:00:00	5	Humedad	74
142593	7	Sololá	701	Sololá	4	Finca Santa Victoria	11	Noviembre	2023-11-16T00:00:00	2024-11-08T09:00:00	6	Velocidad del viento	4.8
142594	7	Sololá	701	Sololá	4	Finca Santa Victoria	11	Noviembre	2023-11-16T00:00:00	2024-11-08T09:00:00	7	Dirección del viento	4.83
142595	7	Sololá	701	Sololá	4	Finca Santa Victoria	11	Noviembre	2023-11-16T00:00:00	2024-11-08T09:00:00	1	Precipitación	0
142596	7	Sololá	701	Sololá	4	Finca Santa Victoria	11	Noviembre	2023-11-16T00:00:00	2024-11-08T09:00:00	8	Radiación solar	92
142597	7	Sololá	701	Sololá	4	Finca Santa Victoria	11	Noviembre	2023-11-16T00:00:00	2024-11-08T10:00:00	2	Temperatura media	18.6
142598	7	Sololá	701	Sololá	4	Finca Santa Victoria	11	Noviembre	2023-11-16T00:00:00	2024-11-08T10:00:00	4	Temperatura máxima	18.6
142599	7	Sololá	701	Sololá	4	Finca Santa Victoria	11	Noviembre	2023-11-16T00:00:00	2024-11-08T10:00:00	3	Temperatura mínima	17.2
142600	7	Sololá	701	Sololá	4	Finca Santa Victoria	11	Noviembre	2023-11-16T00:00:00	2024-11-08T10:00:00	5	Humedad	70
142601	7	Sololá	701	Sololá	4	Finca Santa Victoria	11	Noviembre	2023-11-16T00:00:00	2024-11-08T10:00:00	6	Velocidad del viento	4.8
142602	7	Sololá	701	Sololá	4	Finca Santa Victoria	11	Noviembre	2023-11-16T00:00:00	2024-11-08T10:00:00	7	Dirección del viento	4.83
142603	7	Sololá	701	Sololá	4	Finca Santa Victoria	11	Noviembre	2023-11-16T00:00:00	2024-11-08T10:00:00	1	Precipitación	0
142604	7	Sololá	701	Sololá	4	Finca Santa Victoria	11	Noviembre	2023-11-16T00:00:00	2024-11-08T10:00:00	8	Radiación solar	520
142605	7	Sololá	701	Sololá	4	Finca Santa Victoria	11	Noviembre	2023-11-16T00:00:00	2024-11-08T11:00:00	2	Temperatura media	19.8
142606	7	Sololá	701	Sololá	4	Finca Santa Victoria	11	Noviembre	2023-11-16T00:00:00	2024-11-08T11:00:00	4	Temperatura máxima	19.8
142607	7	Sololá	701	Sololá	4	Finca Santa Victoria	11	Noviembre	2023-11-16T00:00:00	2024-11-08T11:00:00	3	Temperatura mínima	18.6
142608	7	Sololá	701	Sololá	4	Finca Santa Victoria	11	Noviembre	2023-11-16T00:00:00	2024-11-08T11:00:00	5	Humedad	71
142609	7	Sololá	701	Sololá	4	Finca Santa Victoria	11	Noviembre	2023-11-16T00:00:00	2024-11-08T11:00:00	6	Velocidad del viento	4.8
142610	7	Sololá	701	Sololá	4	Finca Santa Victoria	11	Noviembre	2023-11-16T00:00:00	2024-11-08T11:00:00	7	Dirección del viento	4.83
142611	7	Sololá	701	Sololá	4	Finca Santa Victoria	11	Noviembre	2023-11-16T00:00:00	2024-11-08T11:00:00	1	Precipitación	0
142612	7	Sololá	701	Sololá	4	Finca Santa Victoria	11	Noviembre	2023-11-16T00:00:00	2024-11-08T11:00:00	8	Radiación solar	868
142613	7	Sololá	701	Sololá	4	Finca Santa Victoria	11	Noviembre	2023-11-16T00:00:00	2024-11-08T12:00:00	2	Temperatura media	20.4
142614	7	Sololá	701	Sololá	4	Finca Santa Victoria	11	Noviembre	2023-11-16T00:00:00	2024-11-08T12:00:00	4	Temperatura máxima	21.1
142615	7	Sololá	701	Sololá	4	Finca Santa Victoria	11	Noviembre	2023-11-16T00:00:00	2024-11-08T12:00:00	3	Temperatura mínima	19.8
142616	7	Sololá	701	Sololá	4	Finca Santa Victoria	11	Noviembre	2023-11-16T00:00:00	2024-11-08T12:00:00	5	Humedad	65
142617	7	Sololá	701	Sololá	4	Finca Santa Victoria	11	Noviembre	2023-11-16T00:00:00	2024-11-08T12:00:00	6	Velocidad del viento	4.8
142618	7	Sololá	701	Sololá	4	Finca Santa Victoria	11	Noviembre	2023-11-16T00:00:00	2024-11-08T12:00:00	7	Dirección del viento	4.83
142619	7	Sololá	701	Sololá	4	Finca Santa Victoria	11	Noviembre	2023-11-16T00:00:00	2024-11-08T12:00:00	1	Precipitación	0
142620	7	Sololá	701	Sololá	4	Finca Santa Victoria	11	Noviembre	2023-11-16T00:00:00	2024-11-08T12:00:00	8	Radiación solar	921
142621	7	Sololá	701	Sololá	4	Finca Santa Victoria	11	Noviembre	2023-11-16T00:00:00	2024-11-08T13:00:00	2	Temperatura media	21.4
142622	7	Sololá	701	Sololá	4	Finca Santa Victoria	11	Noviembre	2023-11-16T00:00:00	2024-11-08T13:00:00	4	Temperatura máxima	21.6
142623	7	Sololá	701	Sololá	4	Finca Santa Victoria	11	Noviembre	2023-11-16T00:00:00	2024-11-08T13:00:00	3	Temperatura mínima	20.1
142624	7	Sololá	701	Sololá	4	Finca Santa Victoria	11	Noviembre	2023-11-16T00:00:00	2024-11-08T13:00:00	5	Humedad	64
142625	7	Sololá	701	Sololá	4	Finca Santa Victoria	11	Noviembre	2023-11-16T00:00:00	2024-11-08T13:00:00	6	Velocidad del viento	3.2
142626	7	Sololá	701	Sololá	4	Finca Santa Victoria	11	Noviembre	2023-11-16T00:00:00	2024-11-08T13:00:00	7	Dirección del viento	3.22
142627	7	Sololá	701	Sololá	4	Finca Santa Victoria	11	Noviembre	2023-11-16T00:00:00	2024-11-08T13:00:00	1	Precipitación	0
142628	7	Sololá	701	Sololá	4	Finca Santa Victoria	11	Noviembre	2023-11-16T00:00:00	2024-11-08T13:00:00	8	Radiación solar	476
142629	7	Sololá	701	Sololá	4	Finca Santa Victoria	11	Noviembre	2023-11-16T00:00:00	2024-11-08T14:00:00	2	Temperatura media	22.1
142630	7	Sololá	701	Sololá	4	Finca Santa Victoria	11	Noviembre	2023-11-16T00:00:00	2024-11-08T14:00:00	4	Temperatura máxima	22.3
142631	7	Sololá	701	Sololá	4	Finca Santa Victoria	11	Noviembre	2023-11-16T00:00:00	2024-11-08T14:00:00	3	Temperatura mínima	21.4
142632	7	Sololá	701	Sololá	4	Finca Santa Victoria	11	Noviembre	2023-11-16T00:00:00	2024-11-08T14:00:00	5	Humedad	60
142633	7	Sololá	701	Sololá	4	Finca Santa Victoria	11	Noviembre	2023-11-16T00:00:00	2024-11-08T14:00:00	6	Velocidad del viento	3.2
142634	7	Sololá	701	Sololá	4	Finca Santa Victoria	11	Noviembre	2023-11-16T00:00:00	2024-11-08T14:00:00	7	Dirección del viento	3.22
142635	7	Sololá	701	Sololá	4	Finca Santa Victoria	11	Noviembre	2023-11-16T00:00:00	2024-11-08T14:00:00	1	Precipitación	0
142636	7	Sololá	701	Sololá	4	Finca Santa Victoria	11	Noviembre	2023-11-16T00:00:00	2024-11-08T14:00:00	8	Radiación solar	654
142637	7	Sololá	701	Sololá	4	Finca Santa Victoria	11	Noviembre	2023-11-16T00:00:00	2024-11-08T15:00:00	2	Temperatura media	19.3
142638	7	Sololá	701	Sololá	4	Finca Santa Victoria	11	Noviembre	2023-11-16T00:00:00	2024-11-08T15:00:00	4	Temperatura máxima	22.1
142639	7	Sololá	701	Sololá	4	Finca Santa Victoria	11	Noviembre	2023-11-16T00:00:00	2024-11-08T15:00:00	3	Temperatura mínima	19.3
142640	7	Sololá	701	Sololá	4	Finca Santa Victoria	11	Noviembre	2023-11-16T00:00:00	2024-11-08T15:00:00	5	Humedad	85
142641	7	Sololá	701	Sololá	4	Finca Santa Victoria	11	Noviembre	2023-11-16T00:00:00	2024-11-08T15:00:00	6	Velocidad del viento	3.2
142642	7	Sololá	701	Sololá	4	Finca Santa Victoria	11	Noviembre	2023-11-16T00:00:00	2024-11-08T15:00:00	7	Dirección del viento	3.22
142643	7	Sololá	701	Sololá	4	Finca Santa Victoria	11	Noviembre	2023-11-16T00:00:00	2024-11-08T15:00:00	1	Precipitación	0
142644	7	Sololá	701	Sololá	4	Finca Santa Victoria	11	Noviembre	2023-11-16T00:00:00	2024-11-08T15:00:00	8	Radiación solar	201
142645	7	Sololá	701	Sololá	4	Finca Santa Victoria	11	Noviembre	2023-11-16T00:00:00	2024-11-08T16:00:00	2	Temperatura media	17.2
142646	7	Sololá	701	Sololá	4	Finca Santa Victoria	11	Noviembre	2023-11-16T00:00:00	2024-11-08T16:00:00	4	Temperatura máxima	19.3
142647	7	Sololá	701	Sololá	4	Finca Santa Victoria	11	Noviembre	2023-11-16T00:00:00	2024-11-08T16:00:00	3	Temperatura mínima	17.2
142648	7	Sololá	701	Sololá	4	Finca Santa Victoria	11	Noviembre	2023-11-16T00:00:00	2024-11-08T16:00:00	5	Humedad	93
142649	7	Sololá	701	Sololá	4	Finca Santa Victoria	11	Noviembre	2023-11-16T00:00:00	2024-11-08T16:00:00	6	Velocidad del viento	3.2
142650	7	Sololá	701	Sololá	4	Finca Santa Victoria	11	Noviembre	2023-11-16T00:00:00	2024-11-08T16:00:00	7	Dirección del viento	3.22
142651	7	Sololá	701	Sololá	4	Finca Santa Victoria	11	Noviembre	2023-11-16T00:00:00	2024-11-08T16:00:00	1	Precipitación	0
142652	7	Sololá	701	Sololá	4	Finca Santa Victoria	11	Noviembre	2023-11-16T00:00:00	2024-11-08T16:00:00	8	Radiación solar	71
142653	7	Sololá	701	Sololá	4	Finca Santa Victoria	11	Noviembre	2023-11-16T00:00:00	2024-11-08T17:00:00	2	Temperatura media	16.7
142654	7	Sololá	701	Sololá	4	Finca Santa Victoria	11	Noviembre	2023-11-16T00:00:00	2024-11-08T17:00:00	4	Temperatura máxima	17.3
142655	7	Sololá	701	Sololá	4	Finca Santa Victoria	11	Noviembre	2023-11-16T00:00:00	2024-11-08T17:00:00	3	Temperatura mínima	16.7
142656	7	Sololá	701	Sololá	4	Finca Santa Victoria	11	Noviembre	2023-11-16T00:00:00	2024-11-08T17:00:00	5	Humedad	88
142657	7	Sololá	701	Sololá	4	Finca Santa Victoria	11	Noviembre	2023-11-16T00:00:00	2024-11-08T17:00:00	6	Velocidad del viento	1.6
142658	7	Sololá	701	Sololá	4	Finca Santa Victoria	11	Noviembre	2023-11-16T00:00:00	2024-11-08T17:00:00	7	Dirección del viento	1.61
142659	7	Sololá	701	Sololá	4	Finca Santa Victoria	11	Noviembre	2023-11-16T00:00:00	2024-11-08T17:00:00	1	Precipitación	0
142660	7	Sololá	701	Sololá	4	Finca Santa Victoria	11	Noviembre	2023-11-16T00:00:00	2024-11-08T17:00:00	8	Radiación solar	32
142661	7	Sololá	701	Sololá	4	Finca Santa Victoria	11	Noviembre	2023-11-16T00:00:00	2024-11-08T18:00:00	2	Temperatura media	15.7
142662	7	Sololá	701	Sololá	4	Finca Santa Victoria	11	Noviembre	2023-11-16T00:00:00	2024-11-08T18:00:00	4	Temperatura máxima	16.7
142663	7	Sololá	701	Sololá	4	Finca Santa Victoria	11	Noviembre	2023-11-16T00:00:00	2024-11-08T18:00:00	3	Temperatura mínima	15.7
142664	7	Sololá	701	Sololá	4	Finca Santa Victoria	11	Noviembre	2023-11-16T00:00:00	2024-11-08T18:00:00	5	Humedad	84
142665	7	Sololá	701	Sololá	4	Finca Santa Victoria	11	Noviembre	2023-11-16T00:00:00	2024-11-08T18:00:00	6	Velocidad del viento	1.6
142666	7	Sololá	701	Sololá	4	Finca Santa Victoria	11	Noviembre	2023-11-16T00:00:00	2024-11-08T18:00:00	7	Dirección del viento	1.61
142667	7	Sololá	701	Sololá	4	Finca Santa Victoria	11	Noviembre	2023-11-16T00:00:00	2024-11-08T18:00:00	1	Precipitación	0
142668	7	Sololá	701	Sololá	4	Finca Santa Victoria	11	Noviembre	2023-11-16T00:00:00	2024-11-08T18:00:00	8	Radiación solar	4
142669	7	Sololá	701	Sololá	4	Finca Santa Victoria	11	Noviembre	2023-11-16T00:00:00	2024-11-08T19:00:00	2	Temperatura media	15.2
142670	7	Sololá	701	Sololá	4	Finca Santa Victoria	11	Noviembre	2023-11-16T00:00:00	2024-11-08T19:00:00	4	Temperatura máxima	15.7
142671	7	Sololá	701	Sololá	4	Finca Santa Victoria	11	Noviembre	2023-11-16T00:00:00	2024-11-08T19:00:00	3	Temperatura mínima	15.2
142672	7	Sololá	701	Sololá	4	Finca Santa Victoria	11	Noviembre	2023-11-16T00:00:00	2024-11-08T19:00:00	5	Humedad	87
142673	7	Sololá	701	Sololá	4	Finca Santa Victoria	11	Noviembre	2023-11-16T00:00:00	2024-11-08T19:00:00	6	Velocidad del viento	0
142674	7	Sololá	701	Sololá	4	Finca Santa Victoria	11	Noviembre	2023-11-16T00:00:00	2024-11-08T19:00:00	7	Dirección del viento	0
142675	7	Sololá	701	Sololá	4	Finca Santa Victoria	11	Noviembre	2023-11-16T00:00:00	2024-11-08T19:00:00	1	Precipitación	0
142676	7	Sololá	701	Sololá	4	Finca Santa Victoria	11	Noviembre	2023-11-16T00:00:00	2024-11-08T19:00:00	8	Radiación solar	0
142677	7	Sololá	701	Sololá	4	Finca Santa Victoria	11	Noviembre	2023-11-16T00:00:00	2024-11-08T20:00:00	2	Temperatura media	14.4
142678	7	Sololá	701	Sololá	4	Finca Santa Victoria	11	Noviembre	2023-11-16T00:00:00	2024-11-08T20:00:00	4	Temperatura máxima	15.2
142679	7	Sololá	701	Sololá	4	Finca Santa Victoria	11	Noviembre	2023-11-16T00:00:00	2024-11-08T20:00:00	3	Temperatura mínima	14.4
142680	7	Sololá	701	Sololá	4	Finca Santa Victoria	11	Noviembre	2023-11-16T00:00:00	2024-11-08T20:00:00	5	Humedad	89
142681	7	Sololá	701	Sololá	4	Finca Santa Victoria	11	Noviembre	2023-11-16T00:00:00	2024-11-08T20:00:00	6	Velocidad del viento	1.6
142682	7	Sololá	701	Sololá	4	Finca Santa Victoria	11	Noviembre	2023-11-16T00:00:00	2024-11-08T20:00:00	7	Dirección del viento	1.61
142683	7	Sololá	701	Sololá	4	Finca Santa Victoria	11	Noviembre	2023-11-16T00:00:00	2024-11-08T20:00:00	1	Precipitación	0
142684	7	Sololá	701	Sololá	4	Finca Santa Victoria	11	Noviembre	2023-11-16T00:00:00	2024-11-08T20:00:00	8	Radiación solar	0
142685	7	Sololá	701	Sololá	4	Finca Santa Victoria	11	Noviembre	2023-11-16T00:00:00	2024-11-08T21:00:00	2	Temperatura media	13.2
142686	7	Sololá	701	Sololá	4	Finca Santa Victoria	11	Noviembre	2023-11-16T00:00:00	2024-11-08T21:00:00	4	Temperatura máxima	14.4
142687	7	Sololá	701	Sololá	4	Finca Santa Victoria	11	Noviembre	2023-11-16T00:00:00	2024-11-08T21:00:00	3	Temperatura mínima	13.2
142688	7	Sololá	701	Sololá	4	Finca Santa Victoria	11	Noviembre	2023-11-16T00:00:00	2024-11-08T21:00:00	5	Humedad	94
142689	7	Sololá	701	Sololá	4	Finca Santa Victoria	11	Noviembre	2023-11-16T00:00:00	2024-11-08T21:00:00	6	Velocidad del viento	1.6
142690	7	Sololá	701	Sololá	4	Finca Santa Victoria	11	Noviembre	2023-11-16T00:00:00	2024-11-08T21:00:00	7	Dirección del viento	1.61
142691	7	Sololá	701	Sololá	4	Finca Santa Victoria	11	Noviembre	2023-11-16T00:00:00	2024-11-08T21:00:00	1	Precipitación	0
142692	7	Sololá	701	Sololá	4	Finca Santa Victoria	11	Noviembre	2023-11-16T00:00:00	2024-11-08T21:00:00	8	Radiación solar	0
142693	7	Sololá	701	Sololá	4	Finca Santa Victoria	11	Noviembre	2023-11-16T00:00:00	2024-11-08T22:00:00	2	Temperatura media	12.6
142694	7	Sololá	701	Sololá	4	Finca Santa Victoria	11	Noviembre	2023-11-16T00:00:00	2024-11-08T22:00:00	4	Temperatura máxima	13.3
142695	7	Sololá	701	Sololá	4	Finca Santa Victoria	11	Noviembre	2023-11-16T00:00:00	2024-11-08T22:00:00	3	Temperatura mínima	12.6
142696	7	Sololá	701	Sololá	4	Finca Santa Victoria	11	Noviembre	2023-11-16T00:00:00	2024-11-08T22:00:00	5	Humedad	96
142697	7	Sololá	701	Sololá	4	Finca Santa Victoria	11	Noviembre	2023-11-16T00:00:00	2024-11-08T22:00:00	6	Velocidad del viento	1.6
142698	7	Sololá	701	Sololá	4	Finca Santa Victoria	11	Noviembre	2023-11-16T00:00:00	2024-11-08T22:00:00	7	Dirección del viento	1.61
142699	7	Sololá	701	Sololá	4	Finca Santa Victoria	11	Noviembre	2023-11-16T00:00:00	2024-11-08T22:00:00	1	Precipitación	0
142700	7	Sololá	701	Sololá	4	Finca Santa Victoria	11	Noviembre	2023-11-16T00:00:00	2024-11-08T22:00:00	8	Radiación solar	0
142701	7	Sololá	701	Sololá	4	Finca Santa Victoria	11	Noviembre	2023-11-16T00:00:00	2024-11-08T23:00:00	2	Temperatura media	12.6
142702	7	Sololá	701	Sololá	4	Finca Santa Victoria	11	Noviembre	2023-11-16T00:00:00	2024-11-08T23:00:00	4	Temperatura máxima	12.9
142703	7	Sololá	701	Sololá	4	Finca Santa Victoria	11	Noviembre	2023-11-16T00:00:00	2024-11-08T23:00:00	3	Temperatura mínima	12.5
142704	7	Sololá	701	Sololá	4	Finca Santa Victoria	11	Noviembre	2023-11-16T00:00:00	2024-11-08T23:00:00	5	Humedad	96
142705	7	Sololá	701	Sololá	4	Finca Santa Victoria	11	Noviembre	2023-11-16T00:00:00	2024-11-08T23:00:00	6	Velocidad del viento	1.6
142706	7	Sololá	701	Sololá	4	Finca Santa Victoria	11	Noviembre	2023-11-16T00:00:00	2024-11-08T23:00:00	7	Dirección del viento	1.61
142707	7	Sololá	701	Sololá	4	Finca Santa Victoria	11	Noviembre	2023-11-16T00:00:00	2024-11-08T23:00:00	1	Precipitación	0
142708	7	Sololá	701	Sololá	4	Finca Santa Victoria	11	Noviembre	2023-11-16T00:00:00	2024-11-08T23:00:00	8	Radiación solar	0
142709	7	Sololá	701	Sololá	4	Finca Santa Victoria	11	Noviembre	2023-11-17T00:00:00	2024-11-08T00:00:00	2	Temperatura media	13.2
142710	7	Sololá	701	Sololá	4	Finca Santa Victoria	11	Noviembre	2023-11-17T00:00:00	2024-11-08T00:00:00	4	Temperatura máxima	13.2
142711	7	Sololá	701	Sololá	4	Finca Santa Victoria	11	Noviembre	2023-11-17T00:00:00	2024-11-08T00:00:00	3	Temperatura mínima	12.6
142712	7	Sololá	701	Sololá	4	Finca Santa Victoria	11	Noviembre	2023-11-17T00:00:00	2024-11-08T00:00:00	5	Humedad	94
142713	7	Sololá	701	Sololá	4	Finca Santa Victoria	11	Noviembre	2023-11-17T00:00:00	2024-11-08T00:00:00	6	Velocidad del viento	1.6
142714	7	Sololá	701	Sololá	4	Finca Santa Victoria	11	Noviembre	2023-11-17T00:00:00	2024-11-08T00:00:00	7	Dirección del viento	1.61
142715	7	Sololá	701	Sololá	4	Finca Santa Victoria	11	Noviembre	2023-11-17T00:00:00	2024-11-08T00:00:00	1	Precipitación	0
142716	7	Sololá	701	Sololá	4	Finca Santa Victoria	11	Noviembre	2023-11-17T00:00:00	2024-11-08T00:00:00	8	Radiación solar	0
142717	7	Sololá	701	Sololá	4	Finca Santa Victoria	11	Noviembre	2023-11-17T00:00:00	2024-11-08T01:00:00	2	Temperatura media	12.9
142718	7	Sololá	701	Sololá	4	Finca Santa Victoria	11	Noviembre	2023-11-17T00:00:00	2024-11-08T01:00:00	4	Temperatura máxima	13.2
142719	7	Sololá	701	Sololá	4	Finca Santa Victoria	11	Noviembre	2023-11-17T00:00:00	2024-11-08T01:00:00	3	Temperatura mínima	12.9
142720	7	Sololá	701	Sololá	4	Finca Santa Victoria	11	Noviembre	2023-11-17T00:00:00	2024-11-08T01:00:00	5	Humedad	95
142721	7	Sololá	701	Sololá	4	Finca Santa Victoria	11	Noviembre	2023-11-17T00:00:00	2024-11-08T01:00:00	6	Velocidad del viento	0
142722	7	Sololá	701	Sololá	4	Finca Santa Victoria	11	Noviembre	2023-11-17T00:00:00	2024-11-08T01:00:00	7	Dirección del viento	0
142723	7	Sololá	701	Sololá	4	Finca Santa Victoria	11	Noviembre	2023-11-17T00:00:00	2024-11-08T01:00:00	1	Precipitación	0
142724	7	Sololá	701	Sololá	4	Finca Santa Victoria	11	Noviembre	2023-11-17T00:00:00	2024-11-08T01:00:00	8	Radiación solar	0
142725	7	Sololá	701	Sololá	4	Finca Santa Victoria	11	Noviembre	2023-11-17T00:00:00	2024-11-08T02:00:00	2	Temperatura media	12.7
142726	7	Sololá	701	Sololá	4	Finca Santa Victoria	11	Noviembre	2023-11-17T00:00:00	2024-11-08T02:00:00	4	Temperatura máxima	13
142727	7	Sololá	701	Sololá	4	Finca Santa Victoria	11	Noviembre	2023-11-17T00:00:00	2024-11-08T02:00:00	3	Temperatura mínima	12.7
142728	7	Sololá	701	Sololá	4	Finca Santa Victoria	11	Noviembre	2023-11-17T00:00:00	2024-11-08T02:00:00	5	Humedad	97
142729	7	Sololá	701	Sololá	4	Finca Santa Victoria	11	Noviembre	2023-11-17T00:00:00	2024-11-08T02:00:00	6	Velocidad del viento	0
142730	7	Sololá	701	Sololá	4	Finca Santa Victoria	11	Noviembre	2023-11-17T00:00:00	2024-11-08T02:00:00	7	Dirección del viento	0
142731	7	Sololá	701	Sololá	4	Finca Santa Victoria	11	Noviembre	2023-11-17T00:00:00	2024-11-08T02:00:00	1	Precipitación	0
142732	7	Sololá	701	Sololá	4	Finca Santa Victoria	11	Noviembre	2023-11-17T00:00:00	2024-11-08T02:00:00	8	Radiación solar	0
142733	7	Sololá	701	Sololá	4	Finca Santa Victoria	11	Noviembre	2023-11-17T00:00:00	2024-11-08T03:00:00	2	Temperatura media	12.5
142734	7	Sololá	701	Sololá	4	Finca Santa Victoria	11	Noviembre	2023-11-17T00:00:00	2024-11-08T03:00:00	4	Temperatura máxima	12.7
142735	7	Sololá	701	Sololá	4	Finca Santa Victoria	11	Noviembre	2023-11-17T00:00:00	2024-11-08T03:00:00	3	Temperatura mínima	12.5
142736	7	Sololá	701	Sololá	4	Finca Santa Victoria	11	Noviembre	2023-11-17T00:00:00	2024-11-08T03:00:00	5	Humedad	97
142737	7	Sololá	701	Sololá	4	Finca Santa Victoria	11	Noviembre	2023-11-17T00:00:00	2024-11-08T03:00:00	6	Velocidad del viento	0
142738	7	Sololá	701	Sololá	4	Finca Santa Victoria	11	Noviembre	2023-11-17T00:00:00	2024-11-08T03:00:00	7	Dirección del viento	0
142739	7	Sololá	701	Sololá	4	Finca Santa Victoria	11	Noviembre	2023-11-17T00:00:00	2024-11-08T03:00:00	1	Precipitación	0
142740	7	Sololá	701	Sololá	4	Finca Santa Victoria	11	Noviembre	2023-11-17T00:00:00	2024-11-08T03:00:00	8	Radiación solar	0
142741	7	Sololá	701	Sololá	4	Finca Santa Victoria	11	Noviembre	2023-11-17T00:00:00	2024-11-08T04:00:00	2	Temperatura media	12.1
142742	7	Sololá	701	Sololá	4	Finca Santa Victoria	11	Noviembre	2023-11-17T00:00:00	2024-11-08T04:00:00	4	Temperatura máxima	12.5
142743	7	Sololá	701	Sololá	4	Finca Santa Victoria	11	Noviembre	2023-11-17T00:00:00	2024-11-08T04:00:00	3	Temperatura mínima	12.1
142744	7	Sololá	701	Sololá	4	Finca Santa Victoria	11	Noviembre	2023-11-17T00:00:00	2024-11-08T04:00:00	5	Humedad	97
142745	7	Sololá	701	Sololá	4	Finca Santa Victoria	11	Noviembre	2023-11-17T00:00:00	2024-11-08T04:00:00	6	Velocidad del viento	0
142746	7	Sololá	701	Sololá	4	Finca Santa Victoria	11	Noviembre	2023-11-17T00:00:00	2024-11-08T04:00:00	7	Dirección del viento	0
142747	7	Sololá	701	Sololá	4	Finca Santa Victoria	11	Noviembre	2023-11-17T00:00:00	2024-11-08T04:00:00	1	Precipitación	0
142748	7	Sololá	701	Sololá	4	Finca Santa Victoria	11	Noviembre	2023-11-17T00:00:00	2024-11-08T04:00:00	8	Radiación solar	0
142749	7	Sololá	701	Sololá	4	Finca Santa Victoria	11	Noviembre	2023-11-17T00:00:00	2024-11-08T05:00:00	2	Temperatura media	11.3
142750	7	Sololá	701	Sololá	4	Finca Santa Victoria	11	Noviembre	2023-11-17T00:00:00	2024-11-08T05:00:00	4	Temperatura máxima	12.1
142751	7	Sololá	701	Sololá	4	Finca Santa Victoria	11	Noviembre	2023-11-17T00:00:00	2024-11-08T05:00:00	3	Temperatura mínima	11.3
142752	7	Sololá	701	Sololá	4	Finca Santa Victoria	11	Noviembre	2023-11-17T00:00:00	2024-11-08T05:00:00	5	Humedad	96
142753	7	Sololá	701	Sololá	4	Finca Santa Victoria	11	Noviembre	2023-11-17T00:00:00	2024-11-08T05:00:00	6	Velocidad del viento	0
142754	7	Sololá	701	Sololá	4	Finca Santa Victoria	11	Noviembre	2023-11-17T00:00:00	2024-11-08T05:00:00	7	Dirección del viento	0
142755	7	Sololá	701	Sololá	4	Finca Santa Victoria	11	Noviembre	2023-11-17T00:00:00	2024-11-08T05:00:00	1	Precipitación	0
142756	7	Sololá	701	Sololá	4	Finca Santa Victoria	11	Noviembre	2023-11-17T00:00:00	2024-11-08T05:00:00	8	Radiación solar	0
142757	7	Sololá	701	Sololá	4	Finca Santa Victoria	11	Noviembre	2023-11-17T00:00:00	2024-11-08T06:00:00	2	Temperatura media	11.4
142758	7	Sololá	701	Sololá	4	Finca Santa Victoria	11	Noviembre	2023-11-17T00:00:00	2024-11-08T06:00:00	4	Temperatura máxima	11.4
142759	7	Sololá	701	Sololá	4	Finca Santa Victoria	11	Noviembre	2023-11-17T00:00:00	2024-11-08T06:00:00	3	Temperatura mínima	11.3
142760	7	Sololá	701	Sololá	4	Finca Santa Victoria	11	Noviembre	2023-11-17T00:00:00	2024-11-08T06:00:00	5	Humedad	94
142761	7	Sololá	701	Sololá	4	Finca Santa Victoria	11	Noviembre	2023-11-17T00:00:00	2024-11-08T06:00:00	6	Velocidad del viento	1.6
142762	7	Sololá	701	Sololá	4	Finca Santa Victoria	11	Noviembre	2023-11-17T00:00:00	2024-11-08T06:00:00	7	Dirección del viento	1.61
142763	7	Sololá	701	Sololá	4	Finca Santa Victoria	11	Noviembre	2023-11-17T00:00:00	2024-11-08T06:00:00	1	Precipitación	0
142764	7	Sololá	701	Sololá	4	Finca Santa Victoria	11	Noviembre	2023-11-17T00:00:00	2024-11-08T06:00:00	8	Radiación solar	0
142765	7	Sololá	701	Sololá	4	Finca Santa Victoria	11	Noviembre	2023-11-17T00:00:00	2024-11-08T07:00:00	2	Temperatura media	11.8
142766	7	Sololá	701	Sololá	4	Finca Santa Victoria	11	Noviembre	2023-11-17T00:00:00	2024-11-08T07:00:00	4	Temperatura máxima	11.8
142767	7	Sololá	701	Sololá	4	Finca Santa Victoria	11	Noviembre	2023-11-17T00:00:00	2024-11-08T07:00:00	3	Temperatura mínima	11.2
142768	7	Sololá	701	Sololá	4	Finca Santa Victoria	11	Noviembre	2023-11-17T00:00:00	2024-11-08T07:00:00	5	Humedad	88
142769	7	Sololá	701	Sololá	4	Finca Santa Victoria	11	Noviembre	2023-11-17T00:00:00	2024-11-08T07:00:00	6	Velocidad del viento	3.2
142770	7	Sololá	701	Sololá	4	Finca Santa Victoria	11	Noviembre	2023-11-17T00:00:00	2024-11-08T07:00:00	7	Dirección del viento	3.22
142771	7	Sololá	701	Sololá	4	Finca Santa Victoria	11	Noviembre	2023-11-17T00:00:00	2024-11-08T07:00:00	1	Precipitación	0
142772	7	Sololá	701	Sololá	4	Finca Santa Victoria	11	Noviembre	2023-11-17T00:00:00	2024-11-08T07:00:00	8	Radiación solar	14
142773	7	Sololá	701	Sololá	4	Finca Santa Victoria	11	Noviembre	2023-11-17T00:00:00	2024-11-08T08:00:00	2	Temperatura media	14.9
142774	7	Sololá	701	Sololá	4	Finca Santa Victoria	11	Noviembre	2023-11-17T00:00:00	2024-11-08T08:00:00	4	Temperatura máxima	14.9
142775	7	Sololá	701	Sololá	4	Finca Santa Victoria	11	Noviembre	2023-11-17T00:00:00	2024-11-08T08:00:00	3	Temperatura mínima	11.8
142776	7	Sololá	701	Sololá	4	Finca Santa Victoria	11	Noviembre	2023-11-17T00:00:00	2024-11-08T08:00:00	5	Humedad	86
142777	7	Sololá	701	Sololá	4	Finca Santa Victoria	11	Noviembre	2023-11-17T00:00:00	2024-11-08T08:00:00	6	Velocidad del viento	1.6
142778	7	Sololá	701	Sololá	4	Finca Santa Victoria	11	Noviembre	2023-11-17T00:00:00	2024-11-08T08:00:00	7	Dirección del viento	1.61
142779	7	Sololá	701	Sololá	4	Finca Santa Victoria	11	Noviembre	2023-11-17T00:00:00	2024-11-08T08:00:00	1	Precipitación	0
142780	7	Sololá	701	Sololá	4	Finca Santa Victoria	11	Noviembre	2023-11-17T00:00:00	2024-11-08T08:00:00	8	Radiación solar	61
142781	7	Sololá	701	Sololá	4	Finca Santa Victoria	11	Noviembre	2023-11-17T00:00:00	2024-11-08T09:00:00	2	Temperatura media	15.9
142782	7	Sololá	701	Sololá	4	Finca Santa Victoria	11	Noviembre	2023-11-17T00:00:00	2024-11-08T09:00:00	4	Temperatura máxima	15.9
142783	7	Sololá	701	Sololá	4	Finca Santa Victoria	11	Noviembre	2023-11-17T00:00:00	2024-11-08T09:00:00	3	Temperatura mínima	14.9
142784	7	Sololá	701	Sololá	4	Finca Santa Victoria	11	Noviembre	2023-11-17T00:00:00	2024-11-08T09:00:00	5	Humedad	84
142785	7	Sololá	701	Sololá	4	Finca Santa Victoria	11	Noviembre	2023-11-17T00:00:00	2024-11-08T09:00:00	6	Velocidad del viento	1.6
142786	7	Sololá	701	Sololá	4	Finca Santa Victoria	11	Noviembre	2023-11-17T00:00:00	2024-11-08T09:00:00	7	Dirección del viento	1.61
142787	7	Sololá	701	Sololá	4	Finca Santa Victoria	11	Noviembre	2023-11-17T00:00:00	2024-11-08T09:00:00	1	Precipitación	0
142788	7	Sololá	701	Sololá	4	Finca Santa Victoria	11	Noviembre	2023-11-17T00:00:00	2024-11-08T09:00:00	8	Radiación solar	99
142789	7	Sololá	701	Sololá	4	Finca Santa Victoria	11	Noviembre	2023-11-17T00:00:00	2024-11-08T10:00:00	2	Temperatura media	17.4
142790	7	Sololá	701	Sololá	4	Finca Santa Victoria	11	Noviembre	2023-11-17T00:00:00	2024-11-08T10:00:00	4	Temperatura máxima	17.4
142791	7	Sololá	701	Sololá	4	Finca Santa Victoria	11	Noviembre	2023-11-17T00:00:00	2024-11-08T10:00:00	3	Temperatura mínima	15.8
142792	7	Sololá	701	Sololá	4	Finca Santa Victoria	11	Noviembre	2023-11-17T00:00:00	2024-11-08T10:00:00	5	Humedad	80
142793	7	Sololá	701	Sololá	4	Finca Santa Victoria	11	Noviembre	2023-11-17T00:00:00	2024-11-08T10:00:00	6	Velocidad del viento	3.2
142794	7	Sololá	701	Sololá	4	Finca Santa Victoria	11	Noviembre	2023-11-17T00:00:00	2024-11-08T10:00:00	7	Dirección del viento	3.22
142795	7	Sololá	701	Sololá	4	Finca Santa Victoria	11	Noviembre	2023-11-17T00:00:00	2024-11-08T10:00:00	1	Precipitación	0
142796	7	Sololá	701	Sololá	4	Finca Santa Victoria	11	Noviembre	2023-11-17T00:00:00	2024-11-08T10:00:00	8	Radiación solar	531
142797	7	Sololá	701	Sololá	4	Finca Santa Victoria	11	Noviembre	2023-11-17T00:00:00	2024-11-08T11:00:00	2	Temperatura media	18.3
142798	7	Sololá	701	Sololá	4	Finca Santa Victoria	11	Noviembre	2023-11-17T00:00:00	2024-11-08T11:00:00	4	Temperatura máxima	18.4
142799	7	Sololá	701	Sololá	4	Finca Santa Victoria	11	Noviembre	2023-11-17T00:00:00	2024-11-08T11:00:00	3	Temperatura mínima	17.3
142800	7	Sololá	701	Sololá	4	Finca Santa Victoria	11	Noviembre	2023-11-17T00:00:00	2024-11-08T11:00:00	5	Humedad	77
142801	7	Sololá	701	Sololá	4	Finca Santa Victoria	11	Noviembre	2023-11-17T00:00:00	2024-11-08T11:00:00	6	Velocidad del viento	3.2
142802	7	Sololá	701	Sololá	4	Finca Santa Victoria	11	Noviembre	2023-11-17T00:00:00	2024-11-08T11:00:00	7	Dirección del viento	3.22
142803	7	Sololá	701	Sololá	4	Finca Santa Victoria	11	Noviembre	2023-11-17T00:00:00	2024-11-08T11:00:00	1	Precipitación	0
142804	7	Sololá	701	Sololá	4	Finca Santa Victoria	11	Noviembre	2023-11-17T00:00:00	2024-11-08T11:00:00	8	Radiación solar	874
142805	7	Sololá	701	Sololá	4	Finca Santa Victoria	11	Noviembre	2023-11-17T00:00:00	2024-11-08T12:00:00	2	Temperatura media	17.9
142806	7	Sololá	701	Sololá	4	Finca Santa Victoria	11	Noviembre	2023-11-17T00:00:00	2024-11-08T12:00:00	4	Temperatura máxima	18.8
142807	7	Sololá	701	Sololá	4	Finca Santa Victoria	11	Noviembre	2023-11-17T00:00:00	2024-11-08T12:00:00	3	Temperatura mínima	17.9
142808	7	Sololá	701	Sololá	4	Finca Santa Victoria	11	Noviembre	2023-11-17T00:00:00	2024-11-08T12:00:00	5	Humedad	80
142809	7	Sololá	701	Sololá	4	Finca Santa Victoria	11	Noviembre	2023-11-17T00:00:00	2024-11-08T12:00:00	6	Velocidad del viento	4.8
142810	7	Sololá	701	Sololá	4	Finca Santa Victoria	11	Noviembre	2023-11-17T00:00:00	2024-11-08T12:00:00	7	Dirección del viento	4.83
142811	7	Sololá	701	Sololá	4	Finca Santa Victoria	11	Noviembre	2023-11-17T00:00:00	2024-11-08T12:00:00	1	Precipitación	0
142812	7	Sololá	701	Sololá	4	Finca Santa Victoria	11	Noviembre	2023-11-17T00:00:00	2024-11-08T12:00:00	8	Radiación solar	924
142813	7	Sololá	701	Sololá	4	Finca Santa Victoria	11	Noviembre	2023-11-17T00:00:00	2024-11-08T13:00:00	2	Temperatura media	17.2
142814	7	Sololá	701	Sololá	4	Finca Santa Victoria	11	Noviembre	2023-11-17T00:00:00	2024-11-08T13:00:00	4	Temperatura máxima	18.8
142815	7	Sololá	701	Sololá	4	Finca Santa Victoria	11	Noviembre	2023-11-17T00:00:00	2024-11-08T13:00:00	3	Temperatura mínima	17.2
142816	7	Sololá	701	Sololá	4	Finca Santa Victoria	11	Noviembre	2023-11-17T00:00:00	2024-11-08T13:00:00	5	Humedad	86
142817	7	Sololá	701	Sololá	4	Finca Santa Victoria	11	Noviembre	2023-11-17T00:00:00	2024-11-08T13:00:00	6	Velocidad del viento	4.8
142818	7	Sololá	701	Sololá	4	Finca Santa Victoria	11	Noviembre	2023-11-17T00:00:00	2024-11-08T13:00:00	7	Dirección del viento	4.83
142819	7	Sololá	701	Sololá	4	Finca Santa Victoria	11	Noviembre	2023-11-17T00:00:00	2024-11-08T13:00:00	1	Precipitación	0
142820	7	Sololá	701	Sololá	4	Finca Santa Victoria	11	Noviembre	2023-11-17T00:00:00	2024-11-08T13:00:00	8	Radiación solar	349
142821	7	Sololá	701	Sololá	4	Finca Santa Victoria	11	Noviembre	2023-11-17T00:00:00	2024-11-08T14:00:00	2	Temperatura media	16.4
142822	7	Sololá	701	Sololá	4	Finca Santa Victoria	11	Noviembre	2023-11-17T00:00:00	2024-11-08T14:00:00	4	Temperatura máxima	17.2
142823	7	Sololá	701	Sololá	4	Finca Santa Victoria	11	Noviembre	2023-11-17T00:00:00	2024-11-08T14:00:00	3	Temperatura mínima	16.1
142824	7	Sololá	701	Sololá	4	Finca Santa Victoria	11	Noviembre	2023-11-17T00:00:00	2024-11-08T14:00:00	5	Humedad	88
142825	7	Sololá	701	Sololá	4	Finca Santa Victoria	11	Noviembre	2023-11-17T00:00:00	2024-11-08T14:00:00	6	Velocidad del viento	3.2
142826	7	Sololá	701	Sololá	4	Finca Santa Victoria	11	Noviembre	2023-11-17T00:00:00	2024-11-08T14:00:00	7	Dirección del viento	3.22
142827	7	Sololá	701	Sololá	4	Finca Santa Victoria	11	Noviembre	2023-11-17T00:00:00	2024-11-08T14:00:00	1	Precipitación	0
142828	7	Sololá	701	Sololá	4	Finca Santa Victoria	11	Noviembre	2023-11-17T00:00:00	2024-11-08T14:00:00	8	Radiación solar	84
142829	7	Sololá	701	Sololá	4	Finca Santa Victoria	11	Noviembre	2023-11-17T00:00:00	2024-11-08T15:00:00	2	Temperatura media	16.2
142830	7	Sololá	701	Sololá	4	Finca Santa Victoria	11	Noviembre	2023-11-17T00:00:00	2024-11-08T15:00:00	4	Temperatura máxima	16.4
142831	7	Sololá	701	Sololá	4	Finca Santa Victoria	11	Noviembre	2023-11-17T00:00:00	2024-11-08T15:00:00	3	Temperatura mínima	15.9
142832	7	Sololá	701	Sololá	4	Finca Santa Victoria	11	Noviembre	2023-11-17T00:00:00	2024-11-08T15:00:00	5	Humedad	91
142833	7	Sololá	701	Sololá	4	Finca Santa Victoria	11	Noviembre	2023-11-17T00:00:00	2024-11-08T15:00:00	6	Velocidad del viento	3.2
142834	7	Sololá	701	Sololá	4	Finca Santa Victoria	11	Noviembre	2023-11-17T00:00:00	2024-11-08T15:00:00	7	Dirección del viento	3.22
142835	7	Sololá	701	Sololá	4	Finca Santa Victoria	11	Noviembre	2023-11-17T00:00:00	2024-11-08T15:00:00	1	Precipitación	0
142836	7	Sololá	701	Sololá	4	Finca Santa Victoria	11	Noviembre	2023-11-17T00:00:00	2024-11-08T15:00:00	8	Radiación solar	109
142837	7	Sololá	701	Sololá	4	Finca Santa Victoria	11	Noviembre	2023-11-17T00:00:00	2024-11-08T16:00:00	2	Temperatura media	15.3
142838	7	Sololá	701	Sololá	4	Finca Santa Victoria	11	Noviembre	2023-11-17T00:00:00	2024-11-08T16:00:00	4	Temperatura máxima	16.9
142839	7	Sololá	701	Sololá	4	Finca Santa Victoria	11	Noviembre	2023-11-17T00:00:00	2024-11-08T16:00:00	3	Temperatura mínima	15.3
142840	7	Sololá	701	Sololá	4	Finca Santa Victoria	11	Noviembre	2023-11-17T00:00:00	2024-11-08T16:00:00	5	Humedad	94
142841	7	Sololá	701	Sololá	4	Finca Santa Victoria	11	Noviembre	2023-11-17T00:00:00	2024-11-08T16:00:00	6	Velocidad del viento	3.2
142842	7	Sololá	701	Sololá	4	Finca Santa Victoria	11	Noviembre	2023-11-17T00:00:00	2024-11-08T16:00:00	7	Dirección del viento	3.22
142843	7	Sololá	701	Sololá	4	Finca Santa Victoria	11	Noviembre	2023-11-17T00:00:00	2024-11-08T16:00:00	1	Precipitación	0
142844	7	Sololá	701	Sololá	4	Finca Santa Victoria	11	Noviembre	2023-11-17T00:00:00	2024-11-08T16:00:00	8	Radiación solar	82
142845	7	Sololá	701	Sololá	4	Finca Santa Victoria	11	Noviembre	2023-11-17T00:00:00	2024-11-08T17:00:00	2	Temperatura media	15.2
142846	7	Sololá	701	Sololá	4	Finca Santa Victoria	11	Noviembre	2023-11-17T00:00:00	2024-11-08T17:00:00	4	Temperatura máxima	15.3
142847	7	Sololá	701	Sololá	4	Finca Santa Victoria	11	Noviembre	2023-11-17T00:00:00	2024-11-08T17:00:00	3	Temperatura mínima	15.1
142848	7	Sololá	701	Sololá	4	Finca Santa Victoria	11	Noviembre	2023-11-17T00:00:00	2024-11-08T17:00:00	5	Humedad	94
142849	7	Sololá	701	Sololá	4	Finca Santa Victoria	11	Noviembre	2023-11-17T00:00:00	2024-11-08T17:00:00	6	Velocidad del viento	1.6
142850	7	Sololá	701	Sololá	4	Finca Santa Victoria	11	Noviembre	2023-11-17T00:00:00	2024-11-08T17:00:00	7	Dirección del viento	1.61
142851	7	Sololá	701	Sololá	4	Finca Santa Victoria	11	Noviembre	2023-11-17T00:00:00	2024-11-08T17:00:00	1	Precipitación	0
142852	7	Sololá	701	Sololá	4	Finca Santa Victoria	11	Noviembre	2023-11-17T00:00:00	2024-11-08T17:00:00	8	Radiación solar	20
142853	7	Sololá	701	Sololá	4	Finca Santa Victoria	11	Noviembre	2023-11-17T00:00:00	2024-11-08T18:00:00	2	Temperatura media	14.6
142854	7	Sololá	701	Sololá	4	Finca Santa Victoria	11	Noviembre	2023-11-17T00:00:00	2024-11-08T18:00:00	4	Temperatura máxima	15.2
142855	7	Sololá	701	Sololá	4	Finca Santa Victoria	11	Noviembre	2023-11-17T00:00:00	2024-11-08T18:00:00	3	Temperatura mínima	14.5
142856	7	Sololá	701	Sololá	4	Finca Santa Victoria	11	Noviembre	2023-11-17T00:00:00	2024-11-08T18:00:00	5	Humedad	96
142857	7	Sololá	701	Sololá	4	Finca Santa Victoria	11	Noviembre	2023-11-17T00:00:00	2024-11-08T18:00:00	6	Velocidad del viento	0
142858	7	Sololá	701	Sololá	4	Finca Santa Victoria	11	Noviembre	2023-11-17T00:00:00	2024-11-08T18:00:00	7	Dirección del viento	0
142859	7	Sololá	701	Sololá	4	Finca Santa Victoria	11	Noviembre	2023-11-17T00:00:00	2024-11-08T18:00:00	1	Precipitación	0
142860	7	Sololá	701	Sololá	4	Finca Santa Victoria	11	Noviembre	2023-11-17T00:00:00	2024-11-08T18:00:00	8	Radiación solar	1
142861	7	Sololá	701	Sololá	4	Finca Santa Victoria	11	Noviembre	2023-11-17T00:00:00	2024-11-08T19:00:00	2	Temperatura media	14.6
142862	7	Sololá	701	Sololá	4	Finca Santa Victoria	11	Noviembre	2023-11-17T00:00:00	2024-11-08T19:00:00	4	Temperatura máxima	14.6
142863	7	Sololá	701	Sololá	4	Finca Santa Victoria	11	Noviembre	2023-11-17T00:00:00	2024-11-08T19:00:00	3	Temperatura mínima	14.4
142864	7	Sololá	701	Sololá	4	Finca Santa Victoria	11	Noviembre	2023-11-17T00:00:00	2024-11-08T19:00:00	5	Humedad	96
142865	7	Sololá	701	Sololá	4	Finca Santa Victoria	11	Noviembre	2023-11-17T00:00:00	2024-11-08T19:00:00	6	Velocidad del viento	0
142866	7	Sololá	701	Sololá	4	Finca Santa Victoria	11	Noviembre	2023-11-17T00:00:00	2024-11-08T19:00:00	7	Dirección del viento	0
142867	7	Sololá	701	Sololá	4	Finca Santa Victoria	11	Noviembre	2023-11-17T00:00:00	2024-11-08T19:00:00	1	Precipitación	0
142868	7	Sololá	701	Sololá	4	Finca Santa Victoria	11	Noviembre	2023-11-17T00:00:00	2024-11-08T19:00:00	8	Radiación solar	0
142869	7	Sololá	701	Sololá	4	Finca Santa Victoria	11	Noviembre	2023-11-17T00:00:00	2024-11-08T20:00:00	2	Temperatura media	14.7
142870	7	Sololá	701	Sololá	4	Finca Santa Victoria	11	Noviembre	2023-11-17T00:00:00	2024-11-08T20:00:00	4	Temperatura máxima	14.7
142871	7	Sololá	701	Sololá	4	Finca Santa Victoria	11	Noviembre	2023-11-17T00:00:00	2024-11-08T20:00:00	3	Temperatura mínima	14.6
142872	7	Sololá	701	Sololá	4	Finca Santa Victoria	11	Noviembre	2023-11-17T00:00:00	2024-11-08T20:00:00	5	Humedad	96
142873	7	Sololá	701	Sololá	4	Finca Santa Victoria	11	Noviembre	2023-11-17T00:00:00	2024-11-08T20:00:00	6	Velocidad del viento	0
142874	7	Sololá	701	Sololá	4	Finca Santa Victoria	11	Noviembre	2023-11-17T00:00:00	2024-11-08T20:00:00	7	Dirección del viento	0
142875	7	Sololá	701	Sololá	4	Finca Santa Victoria	11	Noviembre	2023-11-17T00:00:00	2024-11-08T20:00:00	1	Precipitación	0
142876	7	Sololá	701	Sololá	4	Finca Santa Victoria	11	Noviembre	2023-11-17T00:00:00	2024-11-08T20:00:00	8	Radiación solar	0
142877	7	Sololá	701	Sololá	4	Finca Santa Victoria	11	Noviembre	2023-11-17T00:00:00	2024-11-08T21:00:00	2	Temperatura media	14.3
142878	7	Sololá	701	Sololá	4	Finca Santa Victoria	11	Noviembre	2023-11-17T00:00:00	2024-11-08T21:00:00	4	Temperatura máxima	14.7
142879	7	Sololá	701	Sololá	4	Finca Santa Victoria	11	Noviembre	2023-11-17T00:00:00	2024-11-08T21:00:00	3	Temperatura mínima	14.3
142880	7	Sololá	701	Sololá	4	Finca Santa Victoria	11	Noviembre	2023-11-17T00:00:00	2024-11-08T21:00:00	5	Humedad	98
142881	7	Sololá	701	Sololá	4	Finca Santa Victoria	11	Noviembre	2023-11-17T00:00:00	2024-11-08T21:00:00	6	Velocidad del viento	0
142882	7	Sololá	701	Sololá	4	Finca Santa Victoria	11	Noviembre	2023-11-17T00:00:00	2024-11-08T21:00:00	7	Dirección del viento	0
142883	7	Sololá	701	Sololá	4	Finca Santa Victoria	11	Noviembre	2023-11-17T00:00:00	2024-11-08T21:00:00	1	Precipitación	0.6
142884	7	Sololá	701	Sololá	4	Finca Santa Victoria	11	Noviembre	2023-11-17T00:00:00	2024-11-08T21:00:00	8	Radiación solar	0
142885	7	Sololá	701	Sololá	4	Finca Santa Victoria	11	Noviembre	2023-11-17T00:00:00	2024-11-08T22:00:00	2	Temperatura media	14.2
142886	7	Sololá	701	Sololá	4	Finca Santa Victoria	11	Noviembre	2023-11-17T00:00:00	2024-11-08T22:00:00	4	Temperatura máxima	14.3
142887	7	Sololá	701	Sololá	4	Finca Santa Victoria	11	Noviembre	2023-11-17T00:00:00	2024-11-08T22:00:00	3	Temperatura mínima	14.2
142888	7	Sololá	701	Sololá	4	Finca Santa Victoria	11	Noviembre	2023-11-17T00:00:00	2024-11-08T22:00:00	5	Humedad	98
142889	7	Sololá	701	Sololá	4	Finca Santa Victoria	11	Noviembre	2023-11-17T00:00:00	2024-11-08T22:00:00	6	Velocidad del viento	0
142890	7	Sololá	701	Sololá	4	Finca Santa Victoria	11	Noviembre	2023-11-17T00:00:00	2024-11-08T22:00:00	7	Dirección del viento	0
142891	7	Sololá	701	Sololá	4	Finca Santa Victoria	11	Noviembre	2023-11-17T00:00:00	2024-11-08T22:00:00	1	Precipitación	0.2
142892	7	Sololá	701	Sololá	4	Finca Santa Victoria	11	Noviembre	2023-11-17T00:00:00	2024-11-08T22:00:00	8	Radiación solar	0
142893	7	Sololá	701	Sololá	4	Finca Santa Victoria	11	Noviembre	2023-11-17T00:00:00	2024-11-08T23:00:00	2	Temperatura media	14.2
142894	7	Sololá	701	Sololá	4	Finca Santa Victoria	11	Noviembre	2023-11-17T00:00:00	2024-11-08T23:00:00	4	Temperatura máxima	14.2
142895	7	Sololá	701	Sololá	4	Finca Santa Victoria	11	Noviembre	2023-11-17T00:00:00	2024-11-08T23:00:00	3	Temperatura mínima	14.1
142896	7	Sololá	701	Sololá	4	Finca Santa Victoria	11	Noviembre	2023-11-17T00:00:00	2024-11-08T23:00:00	5	Humedad	99
142897	7	Sololá	701	Sololá	4	Finca Santa Victoria	11	Noviembre	2023-11-17T00:00:00	2024-11-08T23:00:00	6	Velocidad del viento	0
142898	7	Sololá	701	Sololá	4	Finca Santa Victoria	11	Noviembre	2023-11-17T00:00:00	2024-11-08T23:00:00	7	Dirección del viento	0
142899	7	Sololá	701	Sololá	4	Finca Santa Victoria	11	Noviembre	2023-11-17T00:00:00	2024-11-08T23:00:00	1	Precipitación	0.8
142900	7	Sololá	701	Sololá	4	Finca Santa Victoria	11	Noviembre	2023-11-17T00:00:00	2024-11-08T23:00:00	8	Radiación solar	0
142901	7	Sololá	701	Sololá	4	Finca Santa Victoria	11	Noviembre	2023-11-18T00:00:00	2024-11-08T00:00:00	2	Temperatura media	14.1
142902	7	Sololá	701	Sololá	4	Finca Santa Victoria	11	Noviembre	2023-11-18T00:00:00	2024-11-08T00:00:00	4	Temperatura máxima	14.2
142903	7	Sololá	701	Sololá	4	Finca Santa Victoria	11	Noviembre	2023-11-18T00:00:00	2024-11-08T00:00:00	3	Temperatura mínima	14.1
142904	7	Sololá	701	Sololá	4	Finca Santa Victoria	11	Noviembre	2023-11-18T00:00:00	2024-11-08T00:00:00	5	Humedad	99
142905	7	Sololá	701	Sololá	4	Finca Santa Victoria	11	Noviembre	2023-11-18T00:00:00	2024-11-08T00:00:00	6	Velocidad del viento	0
142906	7	Sololá	701	Sololá	4	Finca Santa Victoria	11	Noviembre	2023-11-18T00:00:00	2024-11-08T00:00:00	7	Dirección del viento	0
142907	7	Sololá	701	Sololá	4	Finca Santa Victoria	11	Noviembre	2023-11-18T00:00:00	2024-11-08T00:00:00	1	Precipitación	0.8
142908	7	Sololá	701	Sololá	4	Finca Santa Victoria	11	Noviembre	2023-11-18T00:00:00	2024-11-08T00:00:00	8	Radiación solar	0
142909	7	Sololá	701	Sololá	4	Finca Santa Victoria	11	Noviembre	2023-11-18T00:00:00	2024-11-08T01:00:00	2	Temperatura media	13.7
142910	7	Sololá	701	Sololá	4	Finca Santa Victoria	11	Noviembre	2023-11-18T00:00:00	2024-11-08T01:00:00	4	Temperatura máxima	14.1
142911	7	Sololá	701	Sololá	4	Finca Santa Victoria	11	Noviembre	2023-11-18T00:00:00	2024-11-08T01:00:00	3	Temperatura mínima	13.7
142912	7	Sololá	701	Sololá	4	Finca Santa Victoria	11	Noviembre	2023-11-18T00:00:00	2024-11-08T01:00:00	5	Humedad	99
142913	7	Sololá	701	Sololá	4	Finca Santa Victoria	11	Noviembre	2023-11-18T00:00:00	2024-11-08T01:00:00	6	Velocidad del viento	1.6
142914	7	Sololá	701	Sololá	4	Finca Santa Victoria	11	Noviembre	2023-11-18T00:00:00	2024-11-08T01:00:00	7	Dirección del viento	1.61
142915	7	Sololá	701	Sololá	4	Finca Santa Victoria	11	Noviembre	2023-11-18T00:00:00	2024-11-08T01:00:00	1	Precipitación	0.2
142916	7	Sololá	701	Sololá	4	Finca Santa Victoria	11	Noviembre	2023-11-18T00:00:00	2024-11-08T01:00:00	8	Radiación solar	0
142917	7	Sololá	701	Sololá	4	Finca Santa Victoria	11	Noviembre	2023-11-18T00:00:00	2024-11-08T02:00:00	2	Temperatura media	13.6
142918	7	Sololá	701	Sololá	4	Finca Santa Victoria	11	Noviembre	2023-11-18T00:00:00	2024-11-08T02:00:00	4	Temperatura máxima	13.7
142919	7	Sololá	701	Sololá	4	Finca Santa Victoria	11	Noviembre	2023-11-18T00:00:00	2024-11-08T02:00:00	3	Temperatura mínima	13.5
142920	7	Sololá	701	Sololá	4	Finca Santa Victoria	11	Noviembre	2023-11-18T00:00:00	2024-11-08T02:00:00	5	Humedad	99
142921	7	Sololá	701	Sololá	4	Finca Santa Victoria	11	Noviembre	2023-11-18T00:00:00	2024-11-08T02:00:00	6	Velocidad del viento	1.6
142922	7	Sololá	701	Sololá	4	Finca Santa Victoria	11	Noviembre	2023-11-18T00:00:00	2024-11-08T02:00:00	7	Dirección del viento	1.61
142923	7	Sololá	701	Sololá	4	Finca Santa Victoria	11	Noviembre	2023-11-18T00:00:00	2024-11-08T02:00:00	1	Precipitación	0.8
142924	7	Sololá	701	Sololá	4	Finca Santa Victoria	11	Noviembre	2023-11-18T00:00:00	2024-11-08T02:00:00	8	Radiación solar	0
142925	7	Sololá	701	Sololá	4	Finca Santa Victoria	11	Noviembre	2023-11-18T00:00:00	2024-11-08T03:00:00	2	Temperatura media	13.4
142926	7	Sololá	701	Sololá	4	Finca Santa Victoria	11	Noviembre	2023-11-18T00:00:00	2024-11-08T03:00:00	4	Temperatura máxima	13.6
142927	7	Sololá	701	Sololá	4	Finca Santa Victoria	11	Noviembre	2023-11-18T00:00:00	2024-11-08T03:00:00	3	Temperatura mínima	13.4
142928	7	Sololá	701	Sololá	4	Finca Santa Victoria	11	Noviembre	2023-11-18T00:00:00	2024-11-08T03:00:00	5	Humedad	99
142929	7	Sololá	701	Sololá	4	Finca Santa Victoria	11	Noviembre	2023-11-18T00:00:00	2024-11-08T03:00:00	6	Velocidad del viento	0
142930	7	Sololá	701	Sololá	4	Finca Santa Victoria	11	Noviembre	2023-11-18T00:00:00	2024-11-08T03:00:00	7	Dirección del viento	0
142931	7	Sololá	701	Sololá	4	Finca Santa Victoria	11	Noviembre	2023-11-18T00:00:00	2024-11-08T03:00:00	1	Precipitación	0.2
142932	7	Sololá	701	Sololá	4	Finca Santa Victoria	11	Noviembre	2023-11-18T00:00:00	2024-11-08T03:00:00	8	Radiación solar	0
142933	7	Sololá	701	Sololá	4	Finca Santa Victoria	11	Noviembre	2023-11-18T00:00:00	2024-11-08T04:00:00	2	Temperatura media	13.3
142934	7	Sololá	701	Sololá	4	Finca Santa Victoria	11	Noviembre	2023-11-18T00:00:00	2024-11-08T04:00:00	4	Temperatura máxima	13.4
142935	7	Sololá	701	Sololá	4	Finca Santa Victoria	11	Noviembre	2023-11-18T00:00:00	2024-11-08T04:00:00	3	Temperatura mínima	13.3
142936	7	Sololá	701	Sololá	4	Finca Santa Victoria	11	Noviembre	2023-11-18T00:00:00	2024-11-08T04:00:00	5	Humedad	99
142937	7	Sololá	701	Sololá	4	Finca Santa Victoria	11	Noviembre	2023-11-18T00:00:00	2024-11-08T04:00:00	6	Velocidad del viento	0
142938	7	Sololá	701	Sololá	4	Finca Santa Victoria	11	Noviembre	2023-11-18T00:00:00	2024-11-08T04:00:00	7	Dirección del viento	0
142939	7	Sololá	701	Sololá	4	Finca Santa Victoria	11	Noviembre	2023-11-18T00:00:00	2024-11-08T04:00:00	1	Precipitación	0
142940	7	Sololá	701	Sololá	4	Finca Santa Victoria	11	Noviembre	2023-11-18T00:00:00	2024-11-08T04:00:00	8	Radiación solar	0
142941	7	Sololá	701	Sololá	4	Finca Santa Victoria	11	Noviembre	2023-11-18T00:00:00	2024-11-08T05:00:00	2	Temperatura media	13.3
142942	7	Sololá	701	Sololá	4	Finca Santa Victoria	11	Noviembre	2023-11-18T00:00:00	2024-11-08T05:00:00	4	Temperatura máxima	13.4
142943	7	Sololá	701	Sololá	4	Finca Santa Victoria	11	Noviembre	2023-11-18T00:00:00	2024-11-08T05:00:00	3	Temperatura mínima	13.3
142944	7	Sololá	701	Sololá	4	Finca Santa Victoria	11	Noviembre	2023-11-18T00:00:00	2024-11-08T05:00:00	5	Humedad	99
142945	7	Sololá	701	Sololá	4	Finca Santa Victoria	11	Noviembre	2023-11-18T00:00:00	2024-11-08T05:00:00	6	Velocidad del viento	0
142946	7	Sololá	701	Sololá	4	Finca Santa Victoria	11	Noviembre	2023-11-18T00:00:00	2024-11-08T05:00:00	7	Dirección del viento	0
142947	7	Sololá	701	Sololá	4	Finca Santa Victoria	11	Noviembre	2023-11-18T00:00:00	2024-11-08T05:00:00	1	Precipitación	0
142948	7	Sololá	701	Sololá	4	Finca Santa Victoria	11	Noviembre	2023-11-18T00:00:00	2024-11-08T05:00:00	8	Radiación solar	0
142949	7	Sololá	701	Sololá	4	Finca Santa Victoria	11	Noviembre	2023-11-18T00:00:00	2024-11-08T06:00:00	2	Temperatura media	12.8
142950	7	Sololá	701	Sololá	4	Finca Santa Victoria	11	Noviembre	2023-11-18T00:00:00	2024-11-08T06:00:00	4	Temperatura máxima	13.3
142951	7	Sololá	701	Sololá	4	Finca Santa Victoria	11	Noviembre	2023-11-18T00:00:00	2024-11-08T06:00:00	3	Temperatura mínima	12.8
142952	7	Sololá	701	Sololá	4	Finca Santa Victoria	11	Noviembre	2023-11-18T00:00:00	2024-11-08T06:00:00	5	Humedad	99
142953	7	Sololá	701	Sololá	4	Finca Santa Victoria	11	Noviembre	2023-11-18T00:00:00	2024-11-08T06:00:00	6	Velocidad del viento	0
142954	7	Sololá	701	Sololá	4	Finca Santa Victoria	11	Noviembre	2023-11-18T00:00:00	2024-11-08T06:00:00	7	Dirección del viento	0
142955	7	Sololá	701	Sololá	4	Finca Santa Victoria	11	Noviembre	2023-11-18T00:00:00	2024-11-08T06:00:00	1	Precipitación	0
142956	7	Sololá	701	Sololá	4	Finca Santa Victoria	11	Noviembre	2023-11-18T00:00:00	2024-11-08T06:00:00	8	Radiación solar	0
142957	7	Sololá	701	Sololá	4	Finca Santa Victoria	11	Noviembre	2023-11-18T00:00:00	2024-11-08T07:00:00	2	Temperatura media	12.5
142958	7	Sololá	701	Sololá	4	Finca Santa Victoria	11	Noviembre	2023-11-18T00:00:00	2024-11-08T07:00:00	4	Temperatura máxima	12.8
142959	7	Sololá	701	Sololá	4	Finca Santa Victoria	11	Noviembre	2023-11-18T00:00:00	2024-11-08T07:00:00	3	Temperatura mínima	12.4
142960	7	Sololá	701	Sololá	4	Finca Santa Victoria	11	Noviembre	2023-11-18T00:00:00	2024-11-08T07:00:00	5	Humedad	99
142961	7	Sololá	701	Sololá	4	Finca Santa Victoria	11	Noviembre	2023-11-18T00:00:00	2024-11-08T07:00:00	6	Velocidad del viento	0
142962	7	Sololá	701	Sololá	4	Finca Santa Victoria	11	Noviembre	2023-11-18T00:00:00	2024-11-08T07:00:00	7	Dirección del viento	0
142963	7	Sololá	701	Sololá	4	Finca Santa Victoria	11	Noviembre	2023-11-18T00:00:00	2024-11-08T07:00:00	1	Precipitación	0
142964	7	Sololá	701	Sololá	4	Finca Santa Victoria	11	Noviembre	2023-11-18T00:00:00	2024-11-08T07:00:00	8	Radiación solar	14
142965	7	Sololá	701	Sololá	4	Finca Santa Victoria	11	Noviembre	2023-11-18T00:00:00	2024-11-08T08:00:00	2	Temperatura media	12.7
142966	7	Sololá	701	Sololá	4	Finca Santa Victoria	11	Noviembre	2023-11-18T00:00:00	2024-11-08T08:00:00	4	Temperatura máxima	12.8
142967	7	Sololá	701	Sololá	4	Finca Santa Victoria	11	Noviembre	2023-11-18T00:00:00	2024-11-08T08:00:00	3	Temperatura mínima	12.5
142968	7	Sololá	701	Sololá	4	Finca Santa Victoria	11	Noviembre	2023-11-18T00:00:00	2024-11-08T08:00:00	5	Humedad	99
142969	7	Sololá	701	Sololá	4	Finca Santa Victoria	11	Noviembre	2023-11-18T00:00:00	2024-11-08T08:00:00	6	Velocidad del viento	0
142970	7	Sololá	701	Sololá	4	Finca Santa Victoria	11	Noviembre	2023-11-18T00:00:00	2024-11-08T08:00:00	7	Dirección del viento	0
142971	7	Sololá	701	Sololá	4	Finca Santa Victoria	11	Noviembre	2023-11-18T00:00:00	2024-11-08T08:00:00	1	Precipitación	0
142972	7	Sololá	701	Sololá	4	Finca Santa Victoria	11	Noviembre	2023-11-18T00:00:00	2024-11-08T08:00:00	8	Radiación solar	39
142973	7	Sololá	701	Sololá	4	Finca Santa Victoria	11	Noviembre	2023-11-18T00:00:00	2024-11-08T09:00:00	2	Temperatura media	13.7
142974	7	Sololá	701	Sololá	4	Finca Santa Victoria	11	Noviembre	2023-11-18T00:00:00	2024-11-08T09:00:00	4	Temperatura máxima	13.8
142975	7	Sololá	701	Sololá	4	Finca Santa Victoria	11	Noviembre	2023-11-18T00:00:00	2024-11-08T09:00:00	3	Temperatura mínima	12.7
142976	7	Sololá	701	Sololá	4	Finca Santa Victoria	11	Noviembre	2023-11-18T00:00:00	2024-11-08T09:00:00	5	Humedad	98
142977	7	Sololá	701	Sololá	4	Finca Santa Victoria	11	Noviembre	2023-11-18T00:00:00	2024-11-08T09:00:00	6	Velocidad del viento	0
142978	7	Sololá	701	Sololá	4	Finca Santa Victoria	11	Noviembre	2023-11-18T00:00:00	2024-11-08T09:00:00	7	Dirección del viento	0
142979	7	Sololá	701	Sololá	4	Finca Santa Victoria	11	Noviembre	2023-11-18T00:00:00	2024-11-08T09:00:00	1	Precipitación	0
142980	7	Sololá	701	Sololá	4	Finca Santa Victoria	11	Noviembre	2023-11-18T00:00:00	2024-11-08T09:00:00	8	Radiación solar	135
142981	7	Sololá	701	Sololá	4	Finca Santa Victoria	11	Noviembre	2023-11-18T00:00:00	2024-11-08T10:00:00	2	Temperatura media	15.3
142982	7	Sololá	701	Sololá	4	Finca Santa Victoria	11	Noviembre	2023-11-18T00:00:00	2024-11-08T10:00:00	4	Temperatura máxima	15.3
142983	7	Sololá	701	Sololá	4	Finca Santa Victoria	11	Noviembre	2023-11-18T00:00:00	2024-11-08T10:00:00	3	Temperatura mínima	13.7
142984	7	Sololá	701	Sololá	4	Finca Santa Victoria	11	Noviembre	2023-11-18T00:00:00	2024-11-08T10:00:00	5	Humedad	89
142985	7	Sololá	701	Sololá	4	Finca Santa Victoria	11	Noviembre	2023-11-18T00:00:00	2024-11-08T10:00:00	6	Velocidad del viento	1.6
142986	7	Sololá	701	Sololá	4	Finca Santa Victoria	11	Noviembre	2023-11-18T00:00:00	2024-11-08T10:00:00	7	Dirección del viento	1.61
142987	7	Sololá	701	Sololá	4	Finca Santa Victoria	11	Noviembre	2023-11-18T00:00:00	2024-11-08T10:00:00	1	Precipitación	0
142988	7	Sololá	701	Sololá	4	Finca Santa Victoria	11	Noviembre	2023-11-18T00:00:00	2024-11-08T10:00:00	8	Radiación solar	241
142989	7	Sololá	701	Sololá	4	Finca Santa Victoria	11	Noviembre	2023-11-18T00:00:00	2024-11-08T11:00:00	2	Temperatura media	16.9
142990	7	Sololá	701	Sololá	4	Finca Santa Victoria	11	Noviembre	2023-11-18T00:00:00	2024-11-08T11:00:00	4	Temperatura máxima	16.9
142991	7	Sololá	701	Sololá	4	Finca Santa Victoria	11	Noviembre	2023-11-18T00:00:00	2024-11-08T11:00:00	3	Temperatura mínima	15.3
142992	7	Sololá	701	Sololá	4	Finca Santa Victoria	11	Noviembre	2023-11-18T00:00:00	2024-11-08T11:00:00	5	Humedad	85
142993	7	Sololá	701	Sololá	4	Finca Santa Victoria	11	Noviembre	2023-11-18T00:00:00	2024-11-08T11:00:00	6	Velocidad del viento	3.2
142994	7	Sololá	701	Sololá	4	Finca Santa Victoria	11	Noviembre	2023-11-18T00:00:00	2024-11-08T11:00:00	7	Dirección del viento	3.22
142995	7	Sololá	701	Sololá	4	Finca Santa Victoria	11	Noviembre	2023-11-18T00:00:00	2024-11-08T11:00:00	1	Precipitación	0
142996	7	Sololá	701	Sololá	4	Finca Santa Victoria	11	Noviembre	2023-11-18T00:00:00	2024-11-08T11:00:00	8	Radiación solar	810
142997	7	Sololá	701	Sololá	4	Finca Santa Victoria	11	Noviembre	2023-11-18T00:00:00	2024-11-08T12:00:00	2	Temperatura media	17.8
142998	7	Sololá	701	Sololá	4	Finca Santa Victoria	11	Noviembre	2023-11-18T00:00:00	2024-11-08T12:00:00	4	Temperatura máxima	17.8
142999	7	Sololá	701	Sololá	4	Finca Santa Victoria	11	Noviembre	2023-11-18T00:00:00	2024-11-08T12:00:00	3	Temperatura mínima	16.9
143000	7	Sololá	701	Sololá	4	Finca Santa Victoria	11	Noviembre	2023-11-18T00:00:00	2024-11-08T12:00:00	5	Humedad	79
143001	7	Sololá	701	Sololá	4	Finca Santa Victoria	11	Noviembre	2023-11-18T00:00:00	2024-11-08T12:00:00	6	Velocidad del viento	3.2
143002	7	Sololá	701	Sololá	4	Finca Santa Victoria	11	Noviembre	2023-11-18T00:00:00	2024-11-08T12:00:00	7	Dirección del viento	3.22
143003	7	Sololá	701	Sololá	4	Finca Santa Victoria	11	Noviembre	2023-11-18T00:00:00	2024-11-08T12:00:00	1	Precipitación	0
143004	7	Sololá	701	Sololá	4	Finca Santa Victoria	11	Noviembre	2023-11-18T00:00:00	2024-11-08T12:00:00	8	Radiación solar	905
143005	7	Sololá	701	Sololá	4	Finca Santa Victoria	11	Noviembre	2023-11-18T00:00:00	2024-11-08T13:00:00	2	Temperatura media	18.3
143006	7	Sololá	701	Sololá	4	Finca Santa Victoria	11	Noviembre	2023-11-18T00:00:00	2024-11-08T13:00:00	4	Temperatura máxima	18.4
143007	7	Sololá	701	Sololá	4	Finca Santa Victoria	11	Noviembre	2023-11-18T00:00:00	2024-11-08T13:00:00	3	Temperatura mínima	17.7
143008	7	Sololá	701	Sololá	4	Finca Santa Victoria	11	Noviembre	2023-11-18T00:00:00	2024-11-08T13:00:00	5	Humedad	79
143009	7	Sololá	701	Sololá	4	Finca Santa Victoria	11	Noviembre	2023-11-18T00:00:00	2024-11-08T13:00:00	6	Velocidad del viento	4.8
143010	7	Sololá	701	Sololá	4	Finca Santa Victoria	11	Noviembre	2023-11-18T00:00:00	2024-11-08T13:00:00	7	Dirección del viento	4.83
143011	7	Sololá	701	Sololá	4	Finca Santa Victoria	11	Noviembre	2023-11-18T00:00:00	2024-11-08T13:00:00	1	Precipitación	0
143012	7	Sololá	701	Sololá	4	Finca Santa Victoria	11	Noviembre	2023-11-18T00:00:00	2024-11-08T13:00:00	8	Radiación solar	711
143013	7	Sololá	701	Sololá	4	Finca Santa Victoria	11	Noviembre	2023-11-18T00:00:00	2024-11-08T14:00:00	2	Temperatura media	17.8
143014	7	Sololá	701	Sololá	4	Finca Santa Victoria	11	Noviembre	2023-11-18T00:00:00	2024-11-08T14:00:00	4	Temperatura máxima	18.5
143015	7	Sololá	701	Sololá	4	Finca Santa Victoria	11	Noviembre	2023-11-18T00:00:00	2024-11-08T14:00:00	3	Temperatura mínima	17.2
143016	7	Sololá	701	Sololá	4	Finca Santa Victoria	11	Noviembre	2023-11-18T00:00:00	2024-11-08T14:00:00	5	Humedad	82
143017	7	Sololá	701	Sololá	4	Finca Santa Victoria	11	Noviembre	2023-11-18T00:00:00	2024-11-08T14:00:00	6	Velocidad del viento	4.8
143018	7	Sololá	701	Sololá	4	Finca Santa Victoria	11	Noviembre	2023-11-18T00:00:00	2024-11-08T14:00:00	7	Dirección del viento	4.83
143019	7	Sololá	701	Sololá	4	Finca Santa Victoria	11	Noviembre	2023-11-18T00:00:00	2024-11-08T14:00:00	1	Precipitación	0
143020	7	Sololá	701	Sololá	4	Finca Santa Victoria	11	Noviembre	2023-11-18T00:00:00	2024-11-08T14:00:00	8	Radiación solar	618
143021	7	Sololá	701	Sololá	4	Finca Santa Victoria	11	Noviembre	2023-11-18T00:00:00	2024-11-08T15:00:00	2	Temperatura media	17.6
143022	7	Sololá	701	Sololá	4	Finca Santa Victoria	11	Noviembre	2023-11-18T00:00:00	2024-11-08T15:00:00	4	Temperatura máxima	18.1
143023	7	Sololá	701	Sololá	4	Finca Santa Victoria	11	Noviembre	2023-11-18T00:00:00	2024-11-08T15:00:00	3	Temperatura mínima	17.5
143024	7	Sololá	701	Sololá	4	Finca Santa Victoria	11	Noviembre	2023-11-18T00:00:00	2024-11-08T15:00:00	5	Humedad	85
143025	7	Sololá	701	Sololá	4	Finca Santa Victoria	11	Noviembre	2023-11-18T00:00:00	2024-11-08T15:00:00	6	Velocidad del viento	4.8
143026	7	Sololá	701	Sololá	4	Finca Santa Victoria	11	Noviembre	2023-11-18T00:00:00	2024-11-08T15:00:00	7	Dirección del viento	4.83
143027	7	Sololá	701	Sololá	4	Finca Santa Victoria	11	Noviembre	2023-11-18T00:00:00	2024-11-08T15:00:00	1	Precipitación	0
143028	7	Sololá	701	Sololá	4	Finca Santa Victoria	11	Noviembre	2023-11-18T00:00:00	2024-11-08T15:00:00	8	Radiación solar	209
143029	7	Sololá	701	Sololá	4	Finca Santa Victoria	11	Noviembre	2023-11-18T00:00:00	2024-11-08T16:00:00	2	Temperatura media	16
143030	7	Sololá	701	Sololá	4	Finca Santa Victoria	11	Noviembre	2023-11-18T00:00:00	2024-11-08T16:00:00	4	Temperatura máxima	17.7
143031	7	Sololá	701	Sololá	4	Finca Santa Victoria	11	Noviembre	2023-11-18T00:00:00	2024-11-08T16:00:00	3	Temperatura mínima	16
143032	7	Sololá	701	Sololá	4	Finca Santa Victoria	11	Noviembre	2023-11-18T00:00:00	2024-11-08T16:00:00	5	Humedad	92
143033	7	Sololá	701	Sololá	4	Finca Santa Victoria	11	Noviembre	2023-11-18T00:00:00	2024-11-08T16:00:00	6	Velocidad del viento	3.2
143034	7	Sololá	701	Sololá	4	Finca Santa Victoria	11	Noviembre	2023-11-18T00:00:00	2024-11-08T16:00:00	7	Dirección del viento	3.22
143035	7	Sololá	701	Sololá	4	Finca Santa Victoria	11	Noviembre	2023-11-18T00:00:00	2024-11-08T16:00:00	1	Precipitación	0
143036	7	Sololá	701	Sololá	4	Finca Santa Victoria	11	Noviembre	2023-11-18T00:00:00	2024-11-08T16:00:00	8	Radiación solar	102
143037	7	Sololá	701	Sololá	4	Finca Santa Victoria	11	Noviembre	2023-11-18T00:00:00	2024-11-08T17:00:00	2	Temperatura media	15.4
143038	7	Sololá	701	Sololá	4	Finca Santa Victoria	11	Noviembre	2023-11-18T00:00:00	2024-11-08T17:00:00	4	Temperatura máxima	16.1
143039	7	Sololá	701	Sololá	4	Finca Santa Victoria	11	Noviembre	2023-11-18T00:00:00	2024-11-08T17:00:00	3	Temperatura mínima	15.3
143040	7	Sololá	701	Sololá	4	Finca Santa Victoria	11	Noviembre	2023-11-18T00:00:00	2024-11-08T17:00:00	5	Humedad	96
143041	7	Sololá	701	Sololá	4	Finca Santa Victoria	11	Noviembre	2023-11-18T00:00:00	2024-11-08T17:00:00	6	Velocidad del viento	1.6
143042	7	Sololá	701	Sololá	4	Finca Santa Victoria	11	Noviembre	2023-11-18T00:00:00	2024-11-08T17:00:00	7	Dirección del viento	1.61
143043	7	Sololá	701	Sololá	4	Finca Santa Victoria	11	Noviembre	2023-11-18T00:00:00	2024-11-08T17:00:00	1	Precipitación	0
143044	7	Sololá	701	Sololá	4	Finca Santa Victoria	11	Noviembre	2023-11-18T00:00:00	2024-11-08T17:00:00	8	Radiación solar	28
143045	7	Sololá	701	Sololá	4	Finca Santa Victoria	11	Noviembre	2023-11-18T00:00:00	2024-11-08T18:00:00	2	Temperatura media	14.9
143046	7	Sololá	701	Sololá	4	Finca Santa Victoria	11	Noviembre	2023-11-18T00:00:00	2024-11-08T18:00:00	4	Temperatura máxima	15.4
143047	7	Sololá	701	Sololá	4	Finca Santa Victoria	11	Noviembre	2023-11-18T00:00:00	2024-11-08T18:00:00	3	Temperatura mínima	14.9
143048	7	Sololá	701	Sololá	4	Finca Santa Victoria	11	Noviembre	2023-11-18T00:00:00	2024-11-08T18:00:00	5	Humedad	97
143049	7	Sololá	701	Sololá	4	Finca Santa Victoria	11	Noviembre	2023-11-18T00:00:00	2024-11-08T18:00:00	6	Velocidad del viento	1.6
143050	7	Sololá	701	Sololá	4	Finca Santa Victoria	11	Noviembre	2023-11-18T00:00:00	2024-11-08T18:00:00	7	Dirección del viento	1.61
143051	7	Sololá	701	Sololá	4	Finca Santa Victoria	11	Noviembre	2023-11-18T00:00:00	2024-11-08T18:00:00	1	Precipitación	0
143052	7	Sololá	701	Sololá	4	Finca Santa Victoria	11	Noviembre	2023-11-18T00:00:00	2024-11-08T18:00:00	8	Radiación solar	3
143053	7	Sololá	701	Sololá	4	Finca Santa Victoria	11	Noviembre	2023-11-18T00:00:00	2024-11-08T19:00:00	2	Temperatura media	14
143054	7	Sololá	701	Sololá	4	Finca Santa Victoria	11	Noviembre	2023-11-18T00:00:00	2024-11-08T19:00:00	4	Temperatura máxima	14.9
143055	7	Sololá	701	Sololá	4	Finca Santa Victoria	11	Noviembre	2023-11-18T00:00:00	2024-11-08T19:00:00	3	Temperatura mínima	14
143056	7	Sololá	701	Sololá	4	Finca Santa Victoria	11	Noviembre	2023-11-18T00:00:00	2024-11-08T19:00:00	5	Humedad	95
143057	7	Sololá	701	Sololá	4	Finca Santa Victoria	11	Noviembre	2023-11-18T00:00:00	2024-11-08T19:00:00	6	Velocidad del viento	0
143058	7	Sololá	701	Sololá	4	Finca Santa Victoria	11	Noviembre	2023-11-18T00:00:00	2024-11-08T19:00:00	7	Dirección del viento	0
143059	7	Sololá	701	Sololá	4	Finca Santa Victoria	11	Noviembre	2023-11-18T00:00:00	2024-11-08T19:00:00	1	Precipitación	0
143060	7	Sololá	701	Sololá	4	Finca Santa Victoria	11	Noviembre	2023-11-18T00:00:00	2024-11-08T19:00:00	8	Radiación solar	0
143061	7	Sololá	701	Sololá	4	Finca Santa Victoria	11	Noviembre	2023-11-18T00:00:00	2024-11-08T20:00:00	2	Temperatura media	12.9
143062	7	Sololá	701	Sololá	4	Finca Santa Victoria	11	Noviembre	2023-11-18T00:00:00	2024-11-08T20:00:00	4	Temperatura máxima	14
143063	7	Sololá	701	Sololá	4	Finca Santa Victoria	11	Noviembre	2023-11-18T00:00:00	2024-11-08T20:00:00	3	Temperatura mínima	12.9
143064	7	Sololá	701	Sololá	4	Finca Santa Victoria	11	Noviembre	2023-11-18T00:00:00	2024-11-08T20:00:00	5	Humedad	94
143065	7	Sololá	701	Sololá	4	Finca Santa Victoria	11	Noviembre	2023-11-18T00:00:00	2024-11-08T20:00:00	6	Velocidad del viento	0
143066	7	Sololá	701	Sololá	4	Finca Santa Victoria	11	Noviembre	2023-11-18T00:00:00	2024-11-08T20:00:00	7	Dirección del viento	0
143067	7	Sololá	701	Sololá	4	Finca Santa Victoria	11	Noviembre	2023-11-18T00:00:00	2024-11-08T20:00:00	1	Precipitación	0
143068	7	Sololá	701	Sololá	4	Finca Santa Victoria	11	Noviembre	2023-11-18T00:00:00	2024-11-08T20:00:00	8	Radiación solar	0
143069	7	Sololá	701	Sololá	4	Finca Santa Victoria	11	Noviembre	2023-11-18T00:00:00	2024-11-08T21:00:00	2	Temperatura media	11.8
143070	7	Sololá	701	Sololá	4	Finca Santa Victoria	11	Noviembre	2023-11-18T00:00:00	2024-11-08T21:00:00	4	Temperatura máxima	12.9
143071	7	Sololá	701	Sololá	4	Finca Santa Victoria	11	Noviembre	2023-11-18T00:00:00	2024-11-08T21:00:00	3	Temperatura mínima	11.7
143072	7	Sololá	701	Sololá	4	Finca Santa Victoria	11	Noviembre	2023-11-18T00:00:00	2024-11-08T21:00:00	5	Humedad	91
143073	7	Sololá	701	Sololá	4	Finca Santa Victoria	11	Noviembre	2023-11-18T00:00:00	2024-11-08T21:00:00	6	Velocidad del viento	1.6
143074	7	Sololá	701	Sololá	4	Finca Santa Victoria	11	Noviembre	2023-11-18T00:00:00	2024-11-08T21:00:00	7	Dirección del viento	1.61
143075	7	Sololá	701	Sololá	4	Finca Santa Victoria	11	Noviembre	2023-11-18T00:00:00	2024-11-08T21:00:00	1	Precipitación	0
143076	7	Sololá	701	Sololá	4	Finca Santa Victoria	11	Noviembre	2023-11-18T00:00:00	2024-11-08T21:00:00	8	Radiación solar	0
143077	7	Sololá	701	Sololá	4	Finca Santa Victoria	11	Noviembre	2023-11-18T00:00:00	2024-11-08T22:00:00	2	Temperatura media	11.8
143078	7	Sololá	701	Sololá	4	Finca Santa Victoria	11	Noviembre	2023-11-18T00:00:00	2024-11-08T22:00:00	4	Temperatura máxima	11.9
143079	7	Sololá	701	Sololá	4	Finca Santa Victoria	11	Noviembre	2023-11-18T00:00:00	2024-11-08T22:00:00	3	Temperatura mínima	11.6
143080	7	Sololá	701	Sololá	4	Finca Santa Victoria	11	Noviembre	2023-11-18T00:00:00	2024-11-08T22:00:00	5	Humedad	90
143081	7	Sololá	701	Sololá	4	Finca Santa Victoria	11	Noviembre	2023-11-18T00:00:00	2024-11-08T22:00:00	6	Velocidad del viento	1.6
143082	7	Sololá	701	Sololá	4	Finca Santa Victoria	11	Noviembre	2023-11-18T00:00:00	2024-11-08T22:00:00	7	Dirección del viento	1.61
143083	7	Sololá	701	Sololá	4	Finca Santa Victoria	11	Noviembre	2023-11-18T00:00:00	2024-11-08T22:00:00	1	Precipitación	0
143084	7	Sololá	701	Sololá	4	Finca Santa Victoria	11	Noviembre	2023-11-18T00:00:00	2024-11-08T22:00:00	8	Radiación solar	0
143085	7	Sololá	701	Sololá	4	Finca Santa Victoria	11	Noviembre	2023-11-18T00:00:00	2024-11-08T23:00:00	2	Temperatura media	11.6
143086	7	Sololá	701	Sololá	4	Finca Santa Victoria	11	Noviembre	2023-11-18T00:00:00	2024-11-08T23:00:00	4	Temperatura máxima	12.1
143087	7	Sololá	701	Sololá	4	Finca Santa Victoria	11	Noviembre	2023-11-18T00:00:00	2024-11-08T23:00:00	3	Temperatura mínima	11.6
143088	7	Sololá	701	Sololá	4	Finca Santa Victoria	11	Noviembre	2023-11-18T00:00:00	2024-11-08T23:00:00	5	Humedad	86
143089	7	Sololá	701	Sololá	4	Finca Santa Victoria	11	Noviembre	2023-11-18T00:00:00	2024-11-08T23:00:00	6	Velocidad del viento	1.6
143090	7	Sololá	701	Sololá	4	Finca Santa Victoria	11	Noviembre	2023-11-18T00:00:00	2024-11-08T23:00:00	7	Dirección del viento	1.61
143091	7	Sololá	701	Sololá	4	Finca Santa Victoria	11	Noviembre	2023-11-18T00:00:00	2024-11-08T23:00:00	1	Precipitación	0
143092	7	Sololá	701	Sololá	4	Finca Santa Victoria	11	Noviembre	2023-11-18T00:00:00	2024-11-08T23:00:00	8	Radiación solar	0
143093	7	Sololá	701	Sololá	4	Finca Santa Victoria	11	Noviembre	2023-11-19T00:00:00	2024-11-08T00:00:00	2	Temperatura media	10.2
143094	7	Sololá	701	Sololá	4	Finca Santa Victoria	11	Noviembre	2023-11-19T00:00:00	2024-11-08T00:00:00	4	Temperatura máxima	11.6
143095	7	Sololá	701	Sololá	4	Finca Santa Victoria	11	Noviembre	2023-11-19T00:00:00	2024-11-08T00:00:00	3	Temperatura mínima	10.1
143096	7	Sololá	701	Sololá	4	Finca Santa Victoria	11	Noviembre	2023-11-19T00:00:00	2024-11-08T00:00:00	5	Humedad	93
143097	7	Sololá	701	Sololá	4	Finca Santa Victoria	11	Noviembre	2023-11-19T00:00:00	2024-11-08T00:00:00	6	Velocidad del viento	1.6
143098	7	Sololá	701	Sololá	4	Finca Santa Victoria	11	Noviembre	2023-11-19T00:00:00	2024-11-08T00:00:00	7	Dirección del viento	1.61
143099	7	Sololá	701	Sololá	4	Finca Santa Victoria	11	Noviembre	2023-11-19T00:00:00	2024-11-08T00:00:00	1	Precipitación	0
143100	7	Sololá	701	Sololá	4	Finca Santa Victoria	11	Noviembre	2023-11-19T00:00:00	2024-11-08T00:00:00	8	Radiación solar	0
143101	7	Sololá	701	Sololá	4	Finca Santa Victoria	11	Noviembre	2023-11-19T00:00:00	2024-11-08T01:00:00	2	Temperatura media	10.8
143102	7	Sololá	701	Sololá	4	Finca Santa Victoria	11	Noviembre	2023-11-19T00:00:00	2024-11-08T01:00:00	4	Temperatura máxima	10.8
143103	7	Sololá	701	Sololá	4	Finca Santa Victoria	11	Noviembre	2023-11-19T00:00:00	2024-11-08T01:00:00	3	Temperatura mínima	10.1
143104	7	Sololá	701	Sololá	4	Finca Santa Victoria	11	Noviembre	2023-11-19T00:00:00	2024-11-08T01:00:00	5	Humedad	90
143105	7	Sololá	701	Sololá	4	Finca Santa Victoria	11	Noviembre	2023-11-19T00:00:00	2024-11-08T01:00:00	6	Velocidad del viento	1.6
143106	7	Sololá	701	Sololá	4	Finca Santa Victoria	11	Noviembre	2023-11-19T00:00:00	2024-11-08T01:00:00	7	Dirección del viento	1.61
143107	7	Sololá	701	Sololá	4	Finca Santa Victoria	11	Noviembre	2023-11-19T00:00:00	2024-11-08T01:00:00	1	Precipitación	0
143108	7	Sololá	701	Sololá	4	Finca Santa Victoria	11	Noviembre	2023-11-19T00:00:00	2024-11-08T01:00:00	8	Radiación solar	0
143109	7	Sololá	701	Sololá	4	Finca Santa Victoria	11	Noviembre	2023-11-19T00:00:00	2024-11-08T02:00:00	2	Temperatura media	10
143110	7	Sololá	701	Sololá	4	Finca Santa Victoria	11	Noviembre	2023-11-19T00:00:00	2024-11-08T02:00:00	4	Temperatura máxima	10.8
143111	7	Sololá	701	Sololá	4	Finca Santa Victoria	11	Noviembre	2023-11-19T00:00:00	2024-11-08T02:00:00	3	Temperatura mínima	9.9
143112	7	Sololá	701	Sololá	4	Finca Santa Victoria	11	Noviembre	2023-11-19T00:00:00	2024-11-08T02:00:00	5	Humedad	92
143113	7	Sololá	701	Sololá	4	Finca Santa Victoria	11	Noviembre	2023-11-19T00:00:00	2024-11-08T02:00:00	6	Velocidad del viento	1.6
143114	7	Sololá	701	Sololá	4	Finca Santa Victoria	11	Noviembre	2023-11-19T00:00:00	2024-11-08T02:00:00	7	Dirección del viento	1.61
143115	7	Sololá	701	Sololá	4	Finca Santa Victoria	11	Noviembre	2023-11-19T00:00:00	2024-11-08T02:00:00	1	Precipitación	0
143116	7	Sololá	701	Sololá	4	Finca Santa Victoria	11	Noviembre	2023-11-19T00:00:00	2024-11-08T02:00:00	8	Radiación solar	0
143117	7	Sololá	701	Sololá	4	Finca Santa Victoria	11	Noviembre	2023-11-19T00:00:00	2024-11-08T03:00:00	2	Temperatura media	10.3
143118	7	Sololá	701	Sololá	4	Finca Santa Victoria	11	Noviembre	2023-11-19T00:00:00	2024-11-08T03:00:00	4	Temperatura máxima	10.4
143119	7	Sololá	701	Sololá	4	Finca Santa Victoria	11	Noviembre	2023-11-19T00:00:00	2024-11-08T03:00:00	3	Temperatura mínima	9.9
143120	7	Sololá	701	Sololá	4	Finca Santa Victoria	11	Noviembre	2023-11-19T00:00:00	2024-11-08T03:00:00	5	Humedad	90
143121	7	Sololá	701	Sololá	4	Finca Santa Victoria	11	Noviembre	2023-11-19T00:00:00	2024-11-08T03:00:00	6	Velocidad del viento	1.6
143122	7	Sololá	701	Sololá	4	Finca Santa Victoria	11	Noviembre	2023-11-19T00:00:00	2024-11-08T03:00:00	7	Dirección del viento	1.61
143123	7	Sololá	701	Sololá	4	Finca Santa Victoria	11	Noviembre	2023-11-19T00:00:00	2024-11-08T03:00:00	1	Precipitación	0
143124	7	Sololá	701	Sololá	4	Finca Santa Victoria	11	Noviembre	2023-11-19T00:00:00	2024-11-08T03:00:00	8	Radiación solar	0
143125	7	Sololá	701	Sololá	4	Finca Santa Victoria	11	Noviembre	2023-11-19T00:00:00	2024-11-08T04:00:00	2	Temperatura media	9.9
143126	7	Sololá	701	Sololá	4	Finca Santa Victoria	11	Noviembre	2023-11-19T00:00:00	2024-11-08T04:00:00	4	Temperatura máxima	10.3
143127	7	Sololá	701	Sololá	4	Finca Santa Victoria	11	Noviembre	2023-11-19T00:00:00	2024-11-08T04:00:00	3	Temperatura mínima	9.7
143128	7	Sololá	701	Sololá	4	Finca Santa Victoria	11	Noviembre	2023-11-19T00:00:00	2024-11-08T04:00:00	5	Humedad	90
143129	7	Sololá	701	Sololá	4	Finca Santa Victoria	11	Noviembre	2023-11-19T00:00:00	2024-11-08T04:00:00	6	Velocidad del viento	1.6
143130	7	Sololá	701	Sololá	4	Finca Santa Victoria	11	Noviembre	2023-11-19T00:00:00	2024-11-08T04:00:00	7	Dirección del viento	1.61
143131	7	Sololá	701	Sololá	4	Finca Santa Victoria	11	Noviembre	2023-11-19T00:00:00	2024-11-08T04:00:00	1	Precipitación	0
143132	7	Sololá	701	Sololá	4	Finca Santa Victoria	11	Noviembre	2023-11-19T00:00:00	2024-11-08T04:00:00	8	Radiación solar	0
143133	7	Sololá	701	Sololá	4	Finca Santa Victoria	11	Noviembre	2023-11-19T00:00:00	2024-11-08T05:00:00	2	Temperatura media	9.8
143134	7	Sololá	701	Sololá	4	Finca Santa Victoria	11	Noviembre	2023-11-19T00:00:00	2024-11-08T05:00:00	4	Temperatura máxima	9.9
143135	7	Sololá	701	Sololá	4	Finca Santa Victoria	11	Noviembre	2023-11-19T00:00:00	2024-11-08T05:00:00	3	Temperatura mínima	9.6
143136	7	Sololá	701	Sololá	4	Finca Santa Victoria	11	Noviembre	2023-11-19T00:00:00	2024-11-08T05:00:00	5	Humedad	92
143137	7	Sololá	701	Sololá	4	Finca Santa Victoria	11	Noviembre	2023-11-19T00:00:00	2024-11-08T05:00:00	6	Velocidad del viento	3.2
143138	7	Sololá	701	Sololá	4	Finca Santa Victoria	11	Noviembre	2023-11-19T00:00:00	2024-11-08T05:00:00	7	Dirección del viento	3.22
143139	7	Sololá	701	Sololá	4	Finca Santa Victoria	11	Noviembre	2023-11-19T00:00:00	2024-11-08T05:00:00	1	Precipitación	0
143140	7	Sololá	701	Sololá	4	Finca Santa Victoria	11	Noviembre	2023-11-19T00:00:00	2024-11-08T05:00:00	8	Radiación solar	0
143141	7	Sololá	701	Sololá	4	Finca Santa Victoria	11	Noviembre	2023-11-19T00:00:00	2024-11-08T06:00:00	2	Temperatura media	10.8
143142	7	Sololá	701	Sololá	4	Finca Santa Victoria	11	Noviembre	2023-11-19T00:00:00	2024-11-08T06:00:00	4	Temperatura máxima	10.8
143143	7	Sololá	701	Sololá	4	Finca Santa Victoria	11	Noviembre	2023-11-19T00:00:00	2024-11-08T06:00:00	3	Temperatura mínima	9.8
143144	7	Sololá	701	Sololá	4	Finca Santa Victoria	11	Noviembre	2023-11-19T00:00:00	2024-11-08T06:00:00	5	Humedad	93
143145	7	Sololá	701	Sololá	4	Finca Santa Victoria	11	Noviembre	2023-11-19T00:00:00	2024-11-08T06:00:00	6	Velocidad del viento	1.6
143146	7	Sololá	701	Sololá	4	Finca Santa Victoria	11	Noviembre	2023-11-19T00:00:00	2024-11-08T06:00:00	7	Dirección del viento	1.61
143147	7	Sololá	701	Sololá	4	Finca Santa Victoria	11	Noviembre	2023-11-19T00:00:00	2024-11-08T06:00:00	1	Precipitación	0
143148	7	Sololá	701	Sololá	4	Finca Santa Victoria	11	Noviembre	2023-11-19T00:00:00	2024-11-08T06:00:00	8	Radiación solar	0
143149	7	Sololá	701	Sololá	4	Finca Santa Victoria	11	Noviembre	2023-11-19T00:00:00	2024-11-08T07:00:00	2	Temperatura media	11.3
143150	7	Sololá	701	Sololá	4	Finca Santa Victoria	11	Noviembre	2023-11-19T00:00:00	2024-11-08T07:00:00	4	Temperatura máxima	11.3
143151	7	Sololá	701	Sololá	4	Finca Santa Victoria	11	Noviembre	2023-11-19T00:00:00	2024-11-08T07:00:00	3	Temperatura mínima	10.4
143152	7	Sololá	701	Sololá	4	Finca Santa Victoria	11	Noviembre	2023-11-19T00:00:00	2024-11-08T07:00:00	5	Humedad	91
143153	7	Sololá	701	Sololá	4	Finca Santa Victoria	11	Noviembre	2023-11-19T00:00:00	2024-11-08T07:00:00	6	Velocidad del viento	1.6
143154	7	Sololá	701	Sololá	4	Finca Santa Victoria	11	Noviembre	2023-11-19T00:00:00	2024-11-08T07:00:00	7	Dirección del viento	1.61
143155	7	Sololá	701	Sololá	4	Finca Santa Victoria	11	Noviembre	2023-11-19T00:00:00	2024-11-08T07:00:00	1	Precipitación	0
143156	7	Sololá	701	Sololá	4	Finca Santa Victoria	11	Noviembre	2023-11-19T00:00:00	2024-11-08T07:00:00	8	Radiación solar	16
143157	7	Sololá	701	Sololá	4	Finca Santa Victoria	11	Noviembre	2023-11-19T00:00:00	2024-11-08T08:00:00	2	Temperatura media	13.3
143158	7	Sololá	701	Sololá	4	Finca Santa Victoria	11	Noviembre	2023-11-19T00:00:00	2024-11-08T08:00:00	4	Temperatura máxima	13.3
143159	7	Sololá	701	Sololá	4	Finca Santa Victoria	11	Noviembre	2023-11-19T00:00:00	2024-11-08T08:00:00	3	Temperatura mínima	11.3
143160	7	Sololá	701	Sololá	4	Finca Santa Victoria	11	Noviembre	2023-11-19T00:00:00	2024-11-08T08:00:00	5	Humedad	86
143161	7	Sololá	701	Sololá	4	Finca Santa Victoria	11	Noviembre	2023-11-19T00:00:00	2024-11-08T08:00:00	6	Velocidad del viento	0
143162	7	Sololá	701	Sololá	4	Finca Santa Victoria	11	Noviembre	2023-11-19T00:00:00	2024-11-08T08:00:00	7	Dirección del viento	0
143163	7	Sololá	701	Sololá	4	Finca Santa Victoria	11	Noviembre	2023-11-19T00:00:00	2024-11-08T08:00:00	1	Precipitación	0
143164	7	Sololá	701	Sololá	4	Finca Santa Victoria	11	Noviembre	2023-11-19T00:00:00	2024-11-08T08:00:00	8	Radiación solar	58
143165	7	Sololá	701	Sololá	4	Finca Santa Victoria	11	Noviembre	2023-11-19T00:00:00	2024-11-08T09:00:00	2	Temperatura media	15.1
143166	7	Sololá	701	Sololá	4	Finca Santa Victoria	11	Noviembre	2023-11-19T00:00:00	2024-11-08T09:00:00	4	Temperatura máxima	15.1
143167	7	Sololá	701	Sololá	4	Finca Santa Victoria	11	Noviembre	2023-11-19T00:00:00	2024-11-08T09:00:00	3	Temperatura mínima	13.3
143168	7	Sololá	701	Sololá	4	Finca Santa Victoria	11	Noviembre	2023-11-19T00:00:00	2024-11-08T09:00:00	5	Humedad	85
143169	7	Sololá	701	Sololá	4	Finca Santa Victoria	11	Noviembre	2023-11-19T00:00:00	2024-11-08T09:00:00	6	Velocidad del viento	1.6
143170	7	Sololá	701	Sololá	4	Finca Santa Victoria	11	Noviembre	2023-11-19T00:00:00	2024-11-08T09:00:00	7	Dirección del viento	1.61
143171	7	Sololá	701	Sololá	4	Finca Santa Victoria	11	Noviembre	2023-11-19T00:00:00	2024-11-08T09:00:00	1	Precipitación	0
143172	7	Sololá	701	Sololá	4	Finca Santa Victoria	11	Noviembre	2023-11-19T00:00:00	2024-11-08T09:00:00	8	Radiación solar	115
143173	7	Sololá	701	Sololá	4	Finca Santa Victoria	11	Noviembre	2023-11-19T00:00:00	2024-11-08T10:00:00	2	Temperatura media	16.6
143174	7	Sololá	701	Sololá	4	Finca Santa Victoria	11	Noviembre	2023-11-19T00:00:00	2024-11-08T10:00:00	4	Temperatura máxima	16.6
143175	7	Sololá	701	Sololá	4	Finca Santa Victoria	11	Noviembre	2023-11-19T00:00:00	2024-11-08T10:00:00	3	Temperatura mínima	15.1
143176	7	Sololá	701	Sololá	4	Finca Santa Victoria	11	Noviembre	2023-11-19T00:00:00	2024-11-08T10:00:00	5	Humedad	81
143177	7	Sololá	701	Sololá	4	Finca Santa Victoria	11	Noviembre	2023-11-19T00:00:00	2024-11-08T10:00:00	6	Velocidad del viento	1.6
143178	7	Sololá	701	Sololá	4	Finca Santa Victoria	11	Noviembre	2023-11-19T00:00:00	2024-11-08T10:00:00	7	Dirección del viento	1.61
143179	7	Sololá	701	Sololá	4	Finca Santa Victoria	11	Noviembre	2023-11-19T00:00:00	2024-11-08T10:00:00	1	Precipitación	0
143180	7	Sololá	701	Sololá	4	Finca Santa Victoria	11	Noviembre	2023-11-19T00:00:00	2024-11-08T10:00:00	8	Radiación solar	559
143181	7	Sololá	701	Sololá	4	Finca Santa Victoria	11	Noviembre	2023-11-19T00:00:00	2024-11-08T11:00:00	2	Temperatura media	17.3
143182	7	Sololá	701	Sololá	4	Finca Santa Victoria	11	Noviembre	2023-11-19T00:00:00	2024-11-08T11:00:00	4	Temperatura máxima	17.4
143183	7	Sololá	701	Sololá	4	Finca Santa Victoria	11	Noviembre	2023-11-19T00:00:00	2024-11-08T11:00:00	3	Temperatura mínima	16.5
143184	7	Sololá	701	Sololá	4	Finca Santa Victoria	11	Noviembre	2023-11-19T00:00:00	2024-11-08T11:00:00	5	Humedad	78
143185	7	Sololá	701	Sololá	4	Finca Santa Victoria	11	Noviembre	2023-11-19T00:00:00	2024-11-08T11:00:00	6	Velocidad del viento	3.2
143186	7	Sololá	701	Sololá	4	Finca Santa Victoria	11	Noviembre	2023-11-19T00:00:00	2024-11-08T11:00:00	7	Dirección del viento	3.22
143187	7	Sololá	701	Sololá	4	Finca Santa Victoria	11	Noviembre	2023-11-19T00:00:00	2024-11-08T11:00:00	1	Precipitación	0
143188	7	Sololá	701	Sololá	4	Finca Santa Victoria	11	Noviembre	2023-11-19T00:00:00	2024-11-08T11:00:00	8	Radiación solar	865
143189	7	Sololá	701	Sololá	4	Finca Santa Victoria	11	Noviembre	2023-11-19T00:00:00	2024-11-08T12:00:00	2	Temperatura media	17.8
143190	7	Sololá	701	Sololá	4	Finca Santa Victoria	11	Noviembre	2023-11-19T00:00:00	2024-11-08T12:00:00	4	Temperatura máxima	18
143191	7	Sololá	701	Sololá	4	Finca Santa Victoria	11	Noviembre	2023-11-19T00:00:00	2024-11-08T12:00:00	3	Temperatura mínima	17.1
143192	7	Sololá	701	Sololá	4	Finca Santa Victoria	11	Noviembre	2023-11-19T00:00:00	2024-11-08T12:00:00	5	Humedad	78
143193	7	Sololá	701	Sololá	4	Finca Santa Victoria	11	Noviembre	2023-11-19T00:00:00	2024-11-08T12:00:00	6	Velocidad del viento	3.2
143194	7	Sololá	701	Sololá	4	Finca Santa Victoria	11	Noviembre	2023-11-19T00:00:00	2024-11-08T12:00:00	7	Dirección del viento	3.22
143195	7	Sololá	701	Sololá	4	Finca Santa Victoria	11	Noviembre	2023-11-19T00:00:00	2024-11-08T12:00:00	1	Precipitación	0
143196	7	Sololá	701	Sololá	4	Finca Santa Victoria	11	Noviembre	2023-11-19T00:00:00	2024-11-08T12:00:00	8	Radiación solar	902
143197	7	Sololá	701	Sololá	4	Finca Santa Victoria	11	Noviembre	2023-11-19T00:00:00	2024-11-08T13:00:00	2	Temperatura media	15.9
143198	7	Sololá	701	Sololá	4	Finca Santa Victoria	11	Noviembre	2023-11-19T00:00:00	2024-11-08T13:00:00	4	Temperatura máxima	18.2
143199	7	Sololá	701	Sololá	4	Finca Santa Victoria	11	Noviembre	2023-11-19T00:00:00	2024-11-08T13:00:00	3	Temperatura mínima	15.9
143200	7	Sololá	701	Sololá	4	Finca Santa Victoria	11	Noviembre	2023-11-19T00:00:00	2024-11-08T13:00:00	5	Humedad	90
143201	7	Sololá	701	Sololá	4	Finca Santa Victoria	11	Noviembre	2023-11-19T00:00:00	2024-11-08T13:00:00	6	Velocidad del viento	4.8
143202	7	Sololá	701	Sololá	4	Finca Santa Victoria	11	Noviembre	2023-11-19T00:00:00	2024-11-08T13:00:00	7	Dirección del viento	4.83
143203	7	Sololá	701	Sololá	4	Finca Santa Victoria	11	Noviembre	2023-11-19T00:00:00	2024-11-08T13:00:00	1	Precipitación	0
143204	7	Sololá	701	Sololá	4	Finca Santa Victoria	11	Noviembre	2023-11-19T00:00:00	2024-11-08T13:00:00	8	Radiación solar	272
143205	7	Sololá	701	Sololá	4	Finca Santa Victoria	11	Noviembre	2023-11-19T00:00:00	2024-11-08T14:00:00	2	Temperatura media	16.3
143206	7	Sololá	701	Sololá	4	Finca Santa Victoria	11	Noviembre	2023-11-19T00:00:00	2024-11-08T14:00:00	4	Temperatura máxima	16.7
143207	7	Sololá	701	Sololá	4	Finca Santa Victoria	11	Noviembre	2023-11-19T00:00:00	2024-11-08T14:00:00	3	Temperatura mínima	15.9
143208	7	Sololá	701	Sololá	4	Finca Santa Victoria	11	Noviembre	2023-11-19T00:00:00	2024-11-08T14:00:00	5	Humedad	89
143209	7	Sololá	701	Sololá	4	Finca Santa Victoria	11	Noviembre	2023-11-19T00:00:00	2024-11-08T14:00:00	6	Velocidad del viento	3.2
143210	7	Sololá	701	Sololá	4	Finca Santa Victoria	11	Noviembre	2023-11-19T00:00:00	2024-11-08T14:00:00	7	Dirección del viento	3.22
143211	7	Sololá	701	Sololá	4	Finca Santa Victoria	11	Noviembre	2023-11-19T00:00:00	2024-11-08T14:00:00	1	Precipitación	0
143212	7	Sololá	701	Sololá	4	Finca Santa Victoria	11	Noviembre	2023-11-19T00:00:00	2024-11-08T14:00:00	8	Radiación solar	208
143213	7	Sololá	701	Sololá	4	Finca Santa Victoria	11	Noviembre	2023-11-19T00:00:00	2024-11-08T15:00:00	2	Temperatura media	15.5
143214	7	Sololá	701	Sololá	4	Finca Santa Victoria	11	Noviembre	2023-11-19T00:00:00	2024-11-08T15:00:00	4	Temperatura máxima	16.3
143215	7	Sololá	701	Sololá	4	Finca Santa Victoria	11	Noviembre	2023-11-19T00:00:00	2024-11-08T15:00:00	3	Temperatura mínima	15.4
143216	7	Sololá	701	Sololá	4	Finca Santa Victoria	11	Noviembre	2023-11-19T00:00:00	2024-11-08T15:00:00	5	Humedad	92
143217	7	Sololá	701	Sololá	4	Finca Santa Victoria	11	Noviembre	2023-11-19T00:00:00	2024-11-08T15:00:00	6	Velocidad del viento	3.2
143218	7	Sololá	701	Sololá	4	Finca Santa Victoria	11	Noviembre	2023-11-19T00:00:00	2024-11-08T15:00:00	7	Dirección del viento	3.22
143219	7	Sololá	701	Sololá	4	Finca Santa Victoria	11	Noviembre	2023-11-19T00:00:00	2024-11-08T15:00:00	1	Precipitación	0
143220	7	Sololá	701	Sololá	4	Finca Santa Victoria	11	Noviembre	2023-11-19T00:00:00	2024-11-08T15:00:00	8	Radiación solar	114
143221	7	Sololá	701	Sololá	4	Finca Santa Victoria	11	Noviembre	2023-11-19T00:00:00	2024-11-08T16:00:00	2	Temperatura media	15.6
143222	7	Sololá	701	Sololá	4	Finca Santa Victoria	11	Noviembre	2023-11-19T00:00:00	2024-11-08T16:00:00	4	Temperatura máxima	15.7
143223	7	Sololá	701	Sololá	4	Finca Santa Victoria	11	Noviembre	2023-11-19T00:00:00	2024-11-08T16:00:00	3	Temperatura mínima	15.2
143224	7	Sololá	701	Sololá	4	Finca Santa Victoria	11	Noviembre	2023-11-19T00:00:00	2024-11-08T16:00:00	5	Humedad	93
143225	7	Sololá	701	Sololá	4	Finca Santa Victoria	11	Noviembre	2023-11-19T00:00:00	2024-11-08T16:00:00	6	Velocidad del viento	3.2
143226	7	Sololá	701	Sololá	4	Finca Santa Victoria	11	Noviembre	2023-11-19T00:00:00	2024-11-08T16:00:00	7	Dirección del viento	3.22
143227	7	Sololá	701	Sololá	4	Finca Santa Victoria	11	Noviembre	2023-11-19T00:00:00	2024-11-08T16:00:00	1	Precipitación	0
143228	7	Sololá	701	Sololá	4	Finca Santa Victoria	11	Noviembre	2023-11-19T00:00:00	2024-11-08T16:00:00	8	Radiación solar	108
143229	7	Sololá	701	Sololá	4	Finca Santa Victoria	11	Noviembre	2023-11-19T00:00:00	2024-11-08T17:00:00	2	Temperatura media	14.6
143230	7	Sololá	701	Sololá	4	Finca Santa Victoria	11	Noviembre	2023-11-19T00:00:00	2024-11-08T17:00:00	4	Temperatura máxima	15.6
143231	7	Sololá	701	Sololá	4	Finca Santa Victoria	11	Noviembre	2023-11-19T00:00:00	2024-11-08T17:00:00	3	Temperatura mínima	14.6
143232	7	Sololá	701	Sololá	4	Finca Santa Victoria	11	Noviembre	2023-11-19T00:00:00	2024-11-08T17:00:00	5	Humedad	94
143233	7	Sololá	701	Sololá	4	Finca Santa Victoria	11	Noviembre	2023-11-19T00:00:00	2024-11-08T17:00:00	6	Velocidad del viento	3.2
143234	7	Sololá	701	Sololá	4	Finca Santa Victoria	11	Noviembre	2023-11-19T00:00:00	2024-11-08T17:00:00	7	Dirección del viento	3.22
143235	7	Sololá	701	Sololá	4	Finca Santa Victoria	11	Noviembre	2023-11-19T00:00:00	2024-11-08T17:00:00	1	Precipitación	0
143236	7	Sololá	701	Sololá	4	Finca Santa Victoria	11	Noviembre	2023-11-19T00:00:00	2024-11-08T17:00:00	8	Radiación solar	50
143237	7	Sololá	701	Sololá	4	Finca Santa Victoria	11	Noviembre	2023-11-19T00:00:00	2024-11-08T18:00:00	2	Temperatura media	13.9
143238	7	Sololá	701	Sololá	4	Finca Santa Victoria	11	Noviembre	2023-11-19T00:00:00	2024-11-08T18:00:00	4	Temperatura máxima	14.6
143239	7	Sololá	701	Sololá	4	Finca Santa Victoria	11	Noviembre	2023-11-19T00:00:00	2024-11-08T18:00:00	3	Temperatura mínima	13.9
143240	7	Sololá	701	Sololá	4	Finca Santa Victoria	11	Noviembre	2023-11-19T00:00:00	2024-11-08T18:00:00	5	Humedad	97
143241	7	Sololá	701	Sololá	4	Finca Santa Victoria	11	Noviembre	2023-11-19T00:00:00	2024-11-08T18:00:00	6	Velocidad del viento	1.6
143242	7	Sololá	701	Sololá	4	Finca Santa Victoria	11	Noviembre	2023-11-19T00:00:00	2024-11-08T18:00:00	7	Dirección del viento	1.61
143243	7	Sololá	701	Sololá	4	Finca Santa Victoria	11	Noviembre	2023-11-19T00:00:00	2024-11-08T18:00:00	1	Precipitación	0
143244	7	Sololá	701	Sololá	4	Finca Santa Victoria	11	Noviembre	2023-11-19T00:00:00	2024-11-08T18:00:00	8	Radiación solar	4
143245	7	Sololá	701	Sololá	4	Finca Santa Victoria	11	Noviembre	2023-11-19T00:00:00	2024-11-08T19:00:00	2	Temperatura media	13.7
143246	7	Sololá	701	Sololá	4	Finca Santa Victoria	11	Noviembre	2023-11-19T00:00:00	2024-11-08T19:00:00	4	Temperatura máxima	13.9
143247	7	Sololá	701	Sololá	4	Finca Santa Victoria	11	Noviembre	2023-11-19T00:00:00	2024-11-08T19:00:00	3	Temperatura mínima	13.7
143248	7	Sololá	701	Sololá	4	Finca Santa Victoria	11	Noviembre	2023-11-19T00:00:00	2024-11-08T19:00:00	5	Humedad	97
143249	7	Sololá	701	Sololá	4	Finca Santa Victoria	11	Noviembre	2023-11-19T00:00:00	2024-11-08T19:00:00	6	Velocidad del viento	1.6
143250	7	Sololá	701	Sololá	4	Finca Santa Victoria	11	Noviembre	2023-11-19T00:00:00	2024-11-08T19:00:00	7	Dirección del viento	1.61
143251	7	Sololá	701	Sololá	4	Finca Santa Victoria	11	Noviembre	2023-11-19T00:00:00	2024-11-08T19:00:00	1	Precipitación	0
143252	7	Sololá	701	Sololá	4	Finca Santa Victoria	11	Noviembre	2023-11-19T00:00:00	2024-11-08T19:00:00	8	Radiación solar	0
143253	7	Sololá	701	Sololá	4	Finca Santa Victoria	11	Noviembre	2023-11-19T00:00:00	2024-11-08T20:00:00	2	Temperatura media	13.6
143254	7	Sololá	701	Sololá	4	Finca Santa Victoria	11	Noviembre	2023-11-19T00:00:00	2024-11-08T20:00:00	4	Temperatura máxima	13.7
143255	7	Sololá	701	Sololá	4	Finca Santa Victoria	11	Noviembre	2023-11-19T00:00:00	2024-11-08T20:00:00	3	Temperatura mínima	13.6
143256	7	Sololá	701	Sololá	4	Finca Santa Victoria	11	Noviembre	2023-11-19T00:00:00	2024-11-08T20:00:00	5	Humedad	97
143257	7	Sololá	701	Sololá	4	Finca Santa Victoria	11	Noviembre	2023-11-19T00:00:00	2024-11-08T20:00:00	6	Velocidad del viento	0
143258	7	Sololá	701	Sololá	4	Finca Santa Victoria	11	Noviembre	2023-11-19T00:00:00	2024-11-08T20:00:00	7	Dirección del viento	0
143259	7	Sololá	701	Sololá	4	Finca Santa Victoria	11	Noviembre	2023-11-19T00:00:00	2024-11-08T20:00:00	1	Precipitación	0
143260	7	Sololá	701	Sololá	4	Finca Santa Victoria	11	Noviembre	2023-11-19T00:00:00	2024-11-08T20:00:00	8	Radiación solar	0
143261	7	Sololá	701	Sololá	4	Finca Santa Victoria	11	Noviembre	2023-11-19T00:00:00	2024-11-08T21:00:00	2	Temperatura media	13.6
143262	7	Sololá	701	Sololá	4	Finca Santa Victoria	11	Noviembre	2023-11-19T00:00:00	2024-11-08T21:00:00	4	Temperatura máxima	13.7
143263	7	Sololá	701	Sololá	4	Finca Santa Victoria	11	Noviembre	2023-11-19T00:00:00	2024-11-08T21:00:00	3	Temperatura mínima	13.5
143264	7	Sololá	701	Sololá	4	Finca Santa Victoria	11	Noviembre	2023-11-19T00:00:00	2024-11-08T21:00:00	5	Humedad	97
143265	7	Sololá	701	Sololá	4	Finca Santa Victoria	11	Noviembre	2023-11-19T00:00:00	2024-11-08T21:00:00	6	Velocidad del viento	1.6
143266	7	Sololá	701	Sololá	4	Finca Santa Victoria	11	Noviembre	2023-11-19T00:00:00	2024-11-08T21:00:00	7	Dirección del viento	1.61
143267	7	Sololá	701	Sololá	4	Finca Santa Victoria	11	Noviembre	2023-11-19T00:00:00	2024-11-08T21:00:00	1	Precipitación	0
143268	7	Sololá	701	Sololá	4	Finca Santa Victoria	11	Noviembre	2023-11-19T00:00:00	2024-11-08T21:00:00	8	Radiación solar	0
143269	7	Sololá	701	Sololá	4	Finca Santa Victoria	11	Noviembre	2023-11-19T00:00:00	2024-11-08T22:00:00	2	Temperatura media	13.1
143270	7	Sololá	701	Sololá	4	Finca Santa Victoria	11	Noviembre	2023-11-19T00:00:00	2024-11-08T22:00:00	4	Temperatura máxima	13.6
143271	7	Sololá	701	Sololá	4	Finca Santa Victoria	11	Noviembre	2023-11-19T00:00:00	2024-11-08T22:00:00	3	Temperatura mínima	13.1
143272	7	Sololá	701	Sololá	4	Finca Santa Victoria	11	Noviembre	2023-11-19T00:00:00	2024-11-08T22:00:00	5	Humedad	98
143273	7	Sololá	701	Sololá	4	Finca Santa Victoria	11	Noviembre	2023-11-19T00:00:00	2024-11-08T22:00:00	6	Velocidad del viento	1.6
143274	7	Sololá	701	Sololá	4	Finca Santa Victoria	11	Noviembre	2023-11-19T00:00:00	2024-11-08T22:00:00	7	Dirección del viento	1.61
143275	7	Sololá	701	Sololá	4	Finca Santa Victoria	11	Noviembre	2023-11-19T00:00:00	2024-11-08T22:00:00	1	Precipitación	0
143276	7	Sololá	701	Sololá	4	Finca Santa Victoria	11	Noviembre	2023-11-19T00:00:00	2024-11-08T22:00:00	8	Radiación solar	0
143277	7	Sololá	701	Sololá	4	Finca Santa Victoria	11	Noviembre	2023-11-19T00:00:00	2024-11-08T23:00:00	2	Temperatura media	12.8
143278	7	Sololá	701	Sololá	4	Finca Santa Victoria	11	Noviembre	2023-11-19T00:00:00	2024-11-08T23:00:00	4	Temperatura máxima	13.2
143279	7	Sololá	701	Sololá	4	Finca Santa Victoria	11	Noviembre	2023-11-19T00:00:00	2024-11-08T23:00:00	3	Temperatura mínima	12.8
143280	7	Sololá	701	Sololá	4	Finca Santa Victoria	11	Noviembre	2023-11-19T00:00:00	2024-11-08T23:00:00	5	Humedad	98
143281	7	Sololá	701	Sololá	4	Finca Santa Victoria	11	Noviembre	2023-11-19T00:00:00	2024-11-08T23:00:00	6	Velocidad del viento	0
143282	7	Sololá	701	Sololá	4	Finca Santa Victoria	11	Noviembre	2023-11-19T00:00:00	2024-11-08T23:00:00	7	Dirección del viento	0
143283	7	Sololá	701	Sololá	4	Finca Santa Victoria	11	Noviembre	2023-11-19T00:00:00	2024-11-08T23:00:00	1	Precipitación	0
143284	7	Sololá	701	Sololá	4	Finca Santa Victoria	11	Noviembre	2023-11-19T00:00:00	2024-11-08T23:00:00	8	Radiación solar	0
143285	7	Sololá	701	Sololá	4	Finca Santa Victoria	11	Noviembre	2023-11-20T00:00:00	2024-11-08T00:00:00	2	Temperatura media	12.5
143286	7	Sololá	701	Sololá	4	Finca Santa Victoria	11	Noviembre	2023-11-20T00:00:00	2024-11-08T00:00:00	4	Temperatura máxima	12.8
143287	7	Sololá	701	Sololá	4	Finca Santa Victoria	11	Noviembre	2023-11-20T00:00:00	2024-11-08T00:00:00	3	Temperatura mínima	12.5
143288	7	Sololá	701	Sololá	4	Finca Santa Victoria	11	Noviembre	2023-11-20T00:00:00	2024-11-08T00:00:00	5	Humedad	98
143289	7	Sololá	701	Sololá	4	Finca Santa Victoria	11	Noviembre	2023-11-20T00:00:00	2024-11-08T00:00:00	6	Velocidad del viento	0
143290	7	Sololá	701	Sololá	4	Finca Santa Victoria	11	Noviembre	2023-11-20T00:00:00	2024-11-08T00:00:00	7	Dirección del viento	0
143291	7	Sololá	701	Sololá	4	Finca Santa Victoria	11	Noviembre	2023-11-20T00:00:00	2024-11-08T00:00:00	1	Precipitación	0
143292	7	Sololá	701	Sololá	4	Finca Santa Victoria	11	Noviembre	2023-11-20T00:00:00	2024-11-08T00:00:00	8	Radiación solar	0
143293	7	Sololá	701	Sololá	4	Finca Santa Victoria	11	Noviembre	2023-11-20T00:00:00	2024-11-08T01:00:00	2	Temperatura media	12.1
143294	7	Sololá	701	Sololá	4	Finca Santa Victoria	11	Noviembre	2023-11-20T00:00:00	2024-11-08T01:00:00	4	Temperatura máxima	12.5
143295	7	Sololá	701	Sololá	4	Finca Santa Victoria	11	Noviembre	2023-11-20T00:00:00	2024-11-08T01:00:00	3	Temperatura mínima	12.1
143296	7	Sololá	701	Sololá	4	Finca Santa Victoria	11	Noviembre	2023-11-20T00:00:00	2024-11-08T01:00:00	5	Humedad	98
143297	7	Sololá	701	Sololá	4	Finca Santa Victoria	11	Noviembre	2023-11-20T00:00:00	2024-11-08T01:00:00	6	Velocidad del viento	0
143298	7	Sololá	701	Sololá	4	Finca Santa Victoria	11	Noviembre	2023-11-20T00:00:00	2024-11-08T01:00:00	7	Dirección del viento	0
143299	7	Sololá	701	Sololá	4	Finca Santa Victoria	11	Noviembre	2023-11-20T00:00:00	2024-11-08T01:00:00	1	Precipitación	0
143300	7	Sololá	701	Sololá	4	Finca Santa Victoria	11	Noviembre	2023-11-20T00:00:00	2024-11-08T01:00:00	8	Radiación solar	0
143301	7	Sololá	701	Sololá	4	Finca Santa Victoria	11	Noviembre	2023-11-20T00:00:00	2024-11-08T02:00:00	2	Temperatura media	11.4
143302	7	Sololá	701	Sololá	4	Finca Santa Victoria	11	Noviembre	2023-11-20T00:00:00	2024-11-08T02:00:00	4	Temperatura máxima	12.1
143303	7	Sololá	701	Sololá	4	Finca Santa Victoria	11	Noviembre	2023-11-20T00:00:00	2024-11-08T02:00:00	3	Temperatura mínima	11.4
143304	7	Sololá	701	Sololá	4	Finca Santa Victoria	11	Noviembre	2023-11-20T00:00:00	2024-11-08T02:00:00	5	Humedad	97
143305	7	Sololá	701	Sololá	4	Finca Santa Victoria	11	Noviembre	2023-11-20T00:00:00	2024-11-08T02:00:00	6	Velocidad del viento	0
143306	7	Sololá	701	Sololá	4	Finca Santa Victoria	11	Noviembre	2023-11-20T00:00:00	2024-11-08T02:00:00	7	Dirección del viento	0
143307	7	Sololá	701	Sololá	4	Finca Santa Victoria	11	Noviembre	2023-11-20T00:00:00	2024-11-08T02:00:00	1	Precipitación	0
143308	7	Sololá	701	Sololá	4	Finca Santa Victoria	11	Noviembre	2023-11-20T00:00:00	2024-11-08T02:00:00	8	Radiación solar	0
143309	7	Sololá	701	Sololá	4	Finca Santa Victoria	11	Noviembre	2023-11-20T00:00:00	2024-11-08T03:00:00	2	Temperatura media	10.7
143310	7	Sololá	701	Sololá	4	Finca Santa Victoria	11	Noviembre	2023-11-20T00:00:00	2024-11-08T03:00:00	4	Temperatura máxima	11.4
143311	7	Sololá	701	Sololá	4	Finca Santa Victoria	11	Noviembre	2023-11-20T00:00:00	2024-11-08T03:00:00	3	Temperatura mínima	10.7
143312	7	Sololá	701	Sololá	4	Finca Santa Victoria	11	Noviembre	2023-11-20T00:00:00	2024-11-08T03:00:00	5	Humedad	96
143313	7	Sololá	701	Sololá	4	Finca Santa Victoria	11	Noviembre	2023-11-20T00:00:00	2024-11-08T03:00:00	6	Velocidad del viento	0
143314	7	Sololá	701	Sololá	4	Finca Santa Victoria	11	Noviembre	2023-11-20T00:00:00	2024-11-08T03:00:00	7	Dirección del viento	0
143315	7	Sololá	701	Sololá	4	Finca Santa Victoria	11	Noviembre	2023-11-20T00:00:00	2024-11-08T03:00:00	1	Precipitación	0
143316	7	Sololá	701	Sololá	4	Finca Santa Victoria	11	Noviembre	2023-11-20T00:00:00	2024-11-08T03:00:00	8	Radiación solar	0
143317	7	Sololá	701	Sololá	4	Finca Santa Victoria	11	Noviembre	2023-11-20T00:00:00	2024-11-08T04:00:00	2	Temperatura media	9.9
143318	7	Sololá	701	Sololá	4	Finca Santa Victoria	11	Noviembre	2023-11-20T00:00:00	2024-11-08T04:00:00	4	Temperatura máxima	10.7
143319	7	Sololá	701	Sololá	4	Finca Santa Victoria	11	Noviembre	2023-11-20T00:00:00	2024-11-08T04:00:00	3	Temperatura mínima	9.9
143320	7	Sololá	701	Sololá	4	Finca Santa Victoria	11	Noviembre	2023-11-20T00:00:00	2024-11-08T04:00:00	5	Humedad	96
143321	7	Sololá	701	Sololá	4	Finca Santa Victoria	11	Noviembre	2023-11-20T00:00:00	2024-11-08T04:00:00	6	Velocidad del viento	0
143322	7	Sololá	701	Sololá	4	Finca Santa Victoria	11	Noviembre	2023-11-20T00:00:00	2024-11-08T04:00:00	7	Dirección del viento	0
143323	7	Sololá	701	Sololá	4	Finca Santa Victoria	11	Noviembre	2023-11-20T00:00:00	2024-11-08T04:00:00	1	Precipitación	0
143324	7	Sololá	701	Sololá	4	Finca Santa Victoria	11	Noviembre	2023-11-20T00:00:00	2024-11-08T04:00:00	8	Radiación solar	0
143325	7	Sololá	701	Sololá	4	Finca Santa Victoria	11	Noviembre	2023-11-20T00:00:00	2024-11-08T05:00:00	2	Temperatura media	10.3
143326	7	Sololá	701	Sololá	4	Finca Santa Victoria	11	Noviembre	2023-11-20T00:00:00	2024-11-08T05:00:00	4	Temperatura máxima	10.3
143327	7	Sololá	701	Sololá	4	Finca Santa Victoria	11	Noviembre	2023-11-20T00:00:00	2024-11-08T05:00:00	3	Temperatura mínima	9.8
143328	7	Sololá	701	Sololá	4	Finca Santa Victoria	11	Noviembre	2023-11-20T00:00:00	2024-11-08T05:00:00	5	Humedad	96
143329	7	Sololá	701	Sololá	4	Finca Santa Victoria	11	Noviembre	2023-11-20T00:00:00	2024-11-08T05:00:00	6	Velocidad del viento	0
143330	7	Sololá	701	Sololá	4	Finca Santa Victoria	11	Noviembre	2023-11-20T00:00:00	2024-11-08T05:00:00	7	Dirección del viento	0
143331	7	Sololá	701	Sololá	4	Finca Santa Victoria	11	Noviembre	2023-11-20T00:00:00	2024-11-08T05:00:00	1	Precipitación	0
143332	7	Sololá	701	Sololá	4	Finca Santa Victoria	11	Noviembre	2023-11-20T00:00:00	2024-11-08T05:00:00	8	Radiación solar	0
143333	7	Sololá	701	Sololá	4	Finca Santa Victoria	11	Noviembre	2023-11-20T00:00:00	2024-11-08T06:00:00	2	Temperatura media	10.8
143334	7	Sololá	701	Sololá	4	Finca Santa Victoria	11	Noviembre	2023-11-20T00:00:00	2024-11-08T06:00:00	4	Temperatura máxima	10.8
143335	7	Sololá	701	Sololá	4	Finca Santa Victoria	11	Noviembre	2023-11-20T00:00:00	2024-11-08T06:00:00	3	Temperatura mínima	10.2
143336	7	Sololá	701	Sololá	4	Finca Santa Victoria	11	Noviembre	2023-11-20T00:00:00	2024-11-08T06:00:00	5	Humedad	92
143337	7	Sololá	701	Sololá	4	Finca Santa Victoria	11	Noviembre	2023-11-20T00:00:00	2024-11-08T06:00:00	6	Velocidad del viento	0
143338	7	Sololá	701	Sololá	4	Finca Santa Victoria	11	Noviembre	2023-11-20T00:00:00	2024-11-08T06:00:00	7	Dirección del viento	0
143339	7	Sololá	701	Sololá	4	Finca Santa Victoria	11	Noviembre	2023-11-20T00:00:00	2024-11-08T06:00:00	1	Precipitación	0
143340	7	Sololá	701	Sololá	4	Finca Santa Victoria	11	Noviembre	2023-11-20T00:00:00	2024-11-08T06:00:00	8	Radiación solar	0
143341	7	Sololá	701	Sololá	4	Finca Santa Victoria	11	Noviembre	2023-11-20T00:00:00	2024-11-08T07:00:00	2	Temperatura media	11.3
143342	7	Sololá	701	Sololá	4	Finca Santa Victoria	11	Noviembre	2023-11-20T00:00:00	2024-11-08T07:00:00	4	Temperatura máxima	11.3
143343	7	Sololá	701	Sololá	4	Finca Santa Victoria	11	Noviembre	2023-11-20T00:00:00	2024-11-08T07:00:00	3	Temperatura mínima	10.4
143344	7	Sololá	701	Sololá	4	Finca Santa Victoria	11	Noviembre	2023-11-20T00:00:00	2024-11-08T07:00:00	5	Humedad	92
143345	7	Sololá	701	Sololá	4	Finca Santa Victoria	11	Noviembre	2023-11-20T00:00:00	2024-11-08T07:00:00	6	Velocidad del viento	0
143346	7	Sololá	701	Sololá	4	Finca Santa Victoria	11	Noviembre	2023-11-20T00:00:00	2024-11-08T07:00:00	7	Dirección del viento	0
143347	7	Sololá	701	Sololá	4	Finca Santa Victoria	11	Noviembre	2023-11-20T00:00:00	2024-11-08T07:00:00	1	Precipitación	0
143348	7	Sololá	701	Sololá	4	Finca Santa Victoria	11	Noviembre	2023-11-20T00:00:00	2024-11-08T07:00:00	8	Radiación solar	15
143349	7	Sololá	701	Sololá	4	Finca Santa Victoria	11	Noviembre	2023-11-20T00:00:00	2024-11-08T08:00:00	2	Temperatura media	13.2
143350	7	Sololá	701	Sololá	4	Finca Santa Victoria	11	Noviembre	2023-11-20T00:00:00	2024-11-08T08:00:00	4	Temperatura máxima	13.2
143351	7	Sololá	701	Sololá	4	Finca Santa Victoria	11	Noviembre	2023-11-20T00:00:00	2024-11-08T08:00:00	3	Temperatura mínima	11.3
143352	7	Sololá	701	Sololá	4	Finca Santa Victoria	11	Noviembre	2023-11-20T00:00:00	2024-11-08T08:00:00	5	Humedad	88
143353	7	Sololá	701	Sololá	4	Finca Santa Victoria	11	Noviembre	2023-11-20T00:00:00	2024-11-08T08:00:00	6	Velocidad del viento	0
143354	7	Sololá	701	Sololá	4	Finca Santa Victoria	11	Noviembre	2023-11-20T00:00:00	2024-11-08T08:00:00	7	Dirección del viento	0
143355	7	Sololá	701	Sololá	4	Finca Santa Victoria	11	Noviembre	2023-11-20T00:00:00	2024-11-08T08:00:00	1	Precipitación	0
143356	7	Sololá	701	Sololá	4	Finca Santa Victoria	11	Noviembre	2023-11-20T00:00:00	2024-11-08T08:00:00	8	Radiación solar	57
143357	7	Sololá	701	Sololá	4	Finca Santa Victoria	11	Noviembre	2023-11-20T00:00:00	2024-11-08T09:00:00	2	Temperatura media	16.2
143358	7	Sololá	701	Sololá	4	Finca Santa Victoria	11	Noviembre	2023-11-20T00:00:00	2024-11-08T09:00:00	4	Temperatura máxima	16.3
143359	7	Sololá	701	Sololá	4	Finca Santa Victoria	11	Noviembre	2023-11-20T00:00:00	2024-11-08T09:00:00	3	Temperatura mínima	13.2
143360	7	Sololá	701	Sololá	4	Finca Santa Victoria	11	Noviembre	2023-11-20T00:00:00	2024-11-08T09:00:00	5	Humedad	70
143361	7	Sololá	701	Sololá	4	Finca Santa Victoria	11	Noviembre	2023-11-20T00:00:00	2024-11-08T09:00:00	6	Velocidad del viento	1.6
143362	7	Sololá	701	Sololá	4	Finca Santa Victoria	11	Noviembre	2023-11-20T00:00:00	2024-11-08T09:00:00	7	Dirección del viento	1.61
143363	7	Sololá	701	Sololá	4	Finca Santa Victoria	11	Noviembre	2023-11-20T00:00:00	2024-11-08T09:00:00	1	Precipitación	0
143364	7	Sololá	701	Sololá	4	Finca Santa Victoria	11	Noviembre	2023-11-20T00:00:00	2024-11-08T09:00:00	8	Radiación solar	143
143365	7	Sololá	701	Sololá	4	Finca Santa Victoria	11	Noviembre	2023-11-20T00:00:00	2024-11-08T10:00:00	2	Temperatura media	16.1
143366	7	Sololá	701	Sololá	4	Finca Santa Victoria	11	Noviembre	2023-11-20T00:00:00	2024-11-08T10:00:00	4	Temperatura máxima	16.7
143367	7	Sololá	701	Sololá	4	Finca Santa Victoria	11	Noviembre	2023-11-20T00:00:00	2024-11-08T10:00:00	3	Temperatura mínima	15.6
143368	7	Sololá	701	Sololá	4	Finca Santa Victoria	11	Noviembre	2023-11-20T00:00:00	2024-11-08T10:00:00	5	Humedad	83
143369	7	Sololá	701	Sololá	4	Finca Santa Victoria	11	Noviembre	2023-11-20T00:00:00	2024-11-08T10:00:00	6	Velocidad del viento	3.2
143370	7	Sololá	701	Sololá	4	Finca Santa Victoria	11	Noviembre	2023-11-20T00:00:00	2024-11-08T10:00:00	7	Dirección del viento	3.22
143371	7	Sololá	701	Sololá	4	Finca Santa Victoria	11	Noviembre	2023-11-20T00:00:00	2024-11-08T10:00:00	1	Precipitación	0
143372	7	Sololá	701	Sololá	4	Finca Santa Victoria	11	Noviembre	2023-11-20T00:00:00	2024-11-08T10:00:00	8	Radiación solar	695
143373	7	Sololá	701	Sololá	4	Finca Santa Victoria	11	Noviembre	2023-11-20T00:00:00	2024-11-08T11:00:00	2	Temperatura media	17.6
143374	7	Sololá	701	Sololá	4	Finca Santa Victoria	11	Noviembre	2023-11-20T00:00:00	2024-11-08T11:00:00	4	Temperatura máxima	17.6
143375	7	Sololá	701	Sololá	4	Finca Santa Victoria	11	Noviembre	2023-11-20T00:00:00	2024-11-08T11:00:00	3	Temperatura mínima	16.1
143376	7	Sololá	701	Sololá	4	Finca Santa Victoria	11	Noviembre	2023-11-20T00:00:00	2024-11-08T11:00:00	5	Humedad	76
143377	7	Sololá	701	Sololá	4	Finca Santa Victoria	11	Noviembre	2023-11-20T00:00:00	2024-11-08T11:00:00	6	Velocidad del viento	3.2
143378	7	Sololá	701	Sololá	4	Finca Santa Victoria	11	Noviembre	2023-11-20T00:00:00	2024-11-08T11:00:00	7	Dirección del viento	3.22
143379	7	Sololá	701	Sololá	4	Finca Santa Victoria	11	Noviembre	2023-11-20T00:00:00	2024-11-08T11:00:00	1	Precipitación	0
143380	7	Sololá	701	Sololá	4	Finca Santa Victoria	11	Noviembre	2023-11-20T00:00:00	2024-11-08T11:00:00	8	Radiación solar	869
143381	7	Sololá	701	Sololá	4	Finca Santa Victoria	11	Noviembre	2023-11-20T00:00:00	2024-11-08T12:00:00	2	Temperatura media	18
143382	7	Sololá	701	Sololá	4	Finca Santa Victoria	11	Noviembre	2023-11-20T00:00:00	2024-11-08T12:00:00	4	Temperatura máxima	18.2
143383	7	Sololá	701	Sololá	4	Finca Santa Victoria	11	Noviembre	2023-11-20T00:00:00	2024-11-08T12:00:00	3	Temperatura mínima	17.6
143384	7	Sololá	701	Sololá	4	Finca Santa Victoria	11	Noviembre	2023-11-20T00:00:00	2024-11-08T12:00:00	5	Humedad	74
143385	7	Sololá	701	Sololá	4	Finca Santa Victoria	11	Noviembre	2023-11-20T00:00:00	2024-11-08T12:00:00	6	Velocidad del viento	3.2
143386	7	Sololá	701	Sololá	4	Finca Santa Victoria	11	Noviembre	2023-11-20T00:00:00	2024-11-08T12:00:00	7	Dirección del viento	3.22
143387	7	Sololá	701	Sololá	4	Finca Santa Victoria	11	Noviembre	2023-11-20T00:00:00	2024-11-08T12:00:00	1	Precipitación	0
143388	7	Sololá	701	Sololá	4	Finca Santa Victoria	11	Noviembre	2023-11-20T00:00:00	2024-11-08T12:00:00	8	Radiación solar	909
143389	7	Sololá	701	Sololá	4	Finca Santa Victoria	11	Noviembre	2023-11-20T00:00:00	2024-11-08T13:00:00	2	Temperatura media	17.8
143390	7	Sololá	701	Sololá	4	Finca Santa Victoria	11	Noviembre	2023-11-20T00:00:00	2024-11-08T13:00:00	4	Temperatura máxima	18.3
143391	7	Sololá	701	Sololá	4	Finca Santa Victoria	11	Noviembre	2023-11-20T00:00:00	2024-11-08T13:00:00	3	Temperatura mínima	17.6
143392	7	Sololá	701	Sololá	4	Finca Santa Victoria	11	Noviembre	2023-11-20T00:00:00	2024-11-08T13:00:00	5	Humedad	80
143393	7	Sololá	701	Sololá	4	Finca Santa Victoria	11	Noviembre	2023-11-20T00:00:00	2024-11-08T13:00:00	6	Velocidad del viento	4.8
143394	7	Sololá	701	Sololá	4	Finca Santa Victoria	11	Noviembre	2023-11-20T00:00:00	2024-11-08T13:00:00	7	Dirección del viento	4.83
143395	7	Sololá	701	Sololá	4	Finca Santa Victoria	11	Noviembre	2023-11-20T00:00:00	2024-11-08T13:00:00	1	Precipitación	0
143396	7	Sololá	701	Sololá	4	Finca Santa Victoria	11	Noviembre	2023-11-20T00:00:00	2024-11-08T13:00:00	8	Radiación solar	809
143397	7	Sololá	701	Sololá	4	Finca Santa Victoria	11	Noviembre	2023-11-20T00:00:00	2024-11-08T14:00:00	2	Temperatura media	16.7
143398	7	Sololá	701	Sololá	4	Finca Santa Victoria	11	Noviembre	2023-11-20T00:00:00	2024-11-08T14:00:00	4	Temperatura máxima	17.8
143399	7	Sololá	701	Sololá	4	Finca Santa Victoria	11	Noviembre	2023-11-20T00:00:00	2024-11-08T14:00:00	3	Temperatura mínima	16.6
143400	7	Sololá	701	Sololá	4	Finca Santa Victoria	11	Noviembre	2023-11-20T00:00:00	2024-11-08T14:00:00	5	Humedad	86
143401	7	Sololá	701	Sololá	4	Finca Santa Victoria	11	Noviembre	2023-11-20T00:00:00	2024-11-08T14:00:00	6	Velocidad del viento	4.8
143402	7	Sololá	701	Sololá	4	Finca Santa Victoria	11	Noviembre	2023-11-20T00:00:00	2024-11-08T14:00:00	7	Dirección del viento	4.83
143403	7	Sololá	701	Sololá	4	Finca Santa Victoria	11	Noviembre	2023-11-20T00:00:00	2024-11-08T14:00:00	1	Precipitación	0
143404	7	Sololá	701	Sololá	4	Finca Santa Victoria	11	Noviembre	2023-11-20T00:00:00	2024-11-08T14:00:00	8	Radiación solar	518
143405	7	Sololá	701	Sololá	4	Finca Santa Victoria	11	Noviembre	2023-11-20T00:00:00	2024-11-08T15:00:00	2	Temperatura media	15.6
143406	7	Sololá	701	Sololá	4	Finca Santa Victoria	11	Noviembre	2023-11-20T00:00:00	2024-11-08T15:00:00	4	Temperatura máxima	17.4
143407	7	Sololá	701	Sololá	4	Finca Santa Victoria	11	Noviembre	2023-11-20T00:00:00	2024-11-08T15:00:00	3	Temperatura mínima	15.6
143408	7	Sololá	701	Sololá	4	Finca Santa Victoria	11	Noviembre	2023-11-20T00:00:00	2024-11-08T15:00:00	5	Humedad	91
143409	7	Sololá	701	Sololá	4	Finca Santa Victoria	11	Noviembre	2023-11-20T00:00:00	2024-11-08T15:00:00	6	Velocidad del viento	3.2
143410	7	Sololá	701	Sololá	4	Finca Santa Victoria	11	Noviembre	2023-11-20T00:00:00	2024-11-08T15:00:00	7	Dirección del viento	3.22
143411	7	Sololá	701	Sololá	4	Finca Santa Victoria	11	Noviembre	2023-11-20T00:00:00	2024-11-08T15:00:00	1	Precipitación	0
143412	7	Sololá	701	Sololá	4	Finca Santa Victoria	11	Noviembre	2023-11-20T00:00:00	2024-11-08T15:00:00	8	Radiación solar	131
143413	7	Sololá	701	Sololá	4	Finca Santa Victoria	11	Noviembre	2023-11-20T00:00:00	2024-11-08T16:00:00	2	Temperatura media	14.6
143414	7	Sololá	701	Sololá	4	Finca Santa Victoria	11	Noviembre	2023-11-20T00:00:00	2024-11-08T16:00:00	4	Temperatura máxima	15.6
143415	7	Sololá	701	Sololá	4	Finca Santa Victoria	11	Noviembre	2023-11-20T00:00:00	2024-11-08T16:00:00	3	Temperatura mínima	14.6
143416	7	Sololá	701	Sololá	4	Finca Santa Victoria	11	Noviembre	2023-11-20T00:00:00	2024-11-08T16:00:00	5	Humedad	96
143417	7	Sololá	701	Sololá	4	Finca Santa Victoria	11	Noviembre	2023-11-20T00:00:00	2024-11-08T16:00:00	6	Velocidad del viento	3.2
143418	7	Sololá	701	Sololá	4	Finca Santa Victoria	11	Noviembre	2023-11-20T00:00:00	2024-11-08T16:00:00	7	Dirección del viento	3.22
143419	7	Sololá	701	Sololá	4	Finca Santa Victoria	11	Noviembre	2023-11-20T00:00:00	2024-11-08T16:00:00	1	Precipitación	0
143420	7	Sololá	701	Sololá	4	Finca Santa Victoria	11	Noviembre	2023-11-20T00:00:00	2024-11-08T16:00:00	8	Radiación solar	43
143421	7	Sololá	701	Sololá	4	Finca Santa Victoria	11	Noviembre	2023-11-20T00:00:00	2024-11-08T17:00:00	2	Temperatura media	14.5
143422	7	Sololá	701	Sololá	4	Finca Santa Victoria	11	Noviembre	2023-11-20T00:00:00	2024-11-08T17:00:00	4	Temperatura máxima	14.7
143423	7	Sololá	701	Sololá	4	Finca Santa Victoria	11	Noviembre	2023-11-20T00:00:00	2024-11-08T17:00:00	3	Temperatura mínima	14.5
143424	7	Sololá	701	Sololá	4	Finca Santa Victoria	11	Noviembre	2023-11-20T00:00:00	2024-11-08T17:00:00	5	Humedad	97
143425	7	Sololá	701	Sololá	4	Finca Santa Victoria	11	Noviembre	2023-11-20T00:00:00	2024-11-08T17:00:00	6	Velocidad del viento	1.6
143426	7	Sololá	701	Sololá	4	Finca Santa Victoria	11	Noviembre	2023-11-20T00:00:00	2024-11-08T17:00:00	7	Dirección del viento	1.61
143427	7	Sololá	701	Sololá	4	Finca Santa Victoria	11	Noviembre	2023-11-20T00:00:00	2024-11-08T17:00:00	1	Precipitación	0
143428	7	Sololá	701	Sololá	4	Finca Santa Victoria	11	Noviembre	2023-11-20T00:00:00	2024-11-08T17:00:00	8	Radiación solar	17
143429	7	Sololá	701	Sololá	4	Finca Santa Victoria	11	Noviembre	2023-11-20T00:00:00	2024-11-08T18:00:00	2	Temperatura media	14.2
143430	7	Sololá	701	Sololá	4	Finca Santa Victoria	11	Noviembre	2023-11-20T00:00:00	2024-11-08T18:00:00	4	Temperatura máxima	14.5
143431	7	Sololá	701	Sololá	4	Finca Santa Victoria	11	Noviembre	2023-11-20T00:00:00	2024-11-08T18:00:00	3	Temperatura mínima	14.1
143432	7	Sololá	701	Sololá	4	Finca Santa Victoria	11	Noviembre	2023-11-20T00:00:00	2024-11-08T18:00:00	5	Humedad	97
143433	7	Sololá	701	Sololá	4	Finca Santa Victoria	11	Noviembre	2023-11-20T00:00:00	2024-11-08T18:00:00	6	Velocidad del viento	1.6
143434	7	Sololá	701	Sololá	4	Finca Santa Victoria	11	Noviembre	2023-11-20T00:00:00	2024-11-08T18:00:00	7	Dirección del viento	1.61
143435	7	Sololá	701	Sololá	4	Finca Santa Victoria	11	Noviembre	2023-11-20T00:00:00	2024-11-08T18:00:00	1	Precipitación	0
143436	7	Sololá	701	Sololá	4	Finca Santa Victoria	11	Noviembre	2023-11-20T00:00:00	2024-11-08T18:00:00	8	Radiación solar	1
143437	7	Sololá	701	Sololá	4	Finca Santa Victoria	11	Noviembre	2023-11-20T00:00:00	2024-11-08T19:00:00	2	Temperatura media	14.1
143438	7	Sololá	701	Sololá	4	Finca Santa Victoria	11	Noviembre	2023-11-20T00:00:00	2024-11-08T19:00:00	4	Temperatura máxima	14.2
143439	7	Sololá	701	Sololá	4	Finca Santa Victoria	11	Noviembre	2023-11-20T00:00:00	2024-11-08T19:00:00	3	Temperatura mínima	14.1
143440	7	Sololá	701	Sololá	4	Finca Santa Victoria	11	Noviembre	2023-11-20T00:00:00	2024-11-08T19:00:00	5	Humedad	96
143441	7	Sololá	701	Sololá	4	Finca Santa Victoria	11	Noviembre	2023-11-20T00:00:00	2024-11-08T19:00:00	6	Velocidad del viento	0
143442	7	Sololá	701	Sololá	4	Finca Santa Victoria	11	Noviembre	2023-11-20T00:00:00	2024-11-08T19:00:00	7	Dirección del viento	0
143443	7	Sololá	701	Sololá	4	Finca Santa Victoria	11	Noviembre	2023-11-20T00:00:00	2024-11-08T19:00:00	1	Precipitación	0
143444	7	Sololá	701	Sololá	4	Finca Santa Victoria	11	Noviembre	2023-11-20T00:00:00	2024-11-08T19:00:00	8	Radiación solar	0
143445	7	Sololá	701	Sololá	4	Finca Santa Victoria	11	Noviembre	2023-11-20T00:00:00	2024-11-08T20:00:00	2	Temperatura media	13.5
143446	7	Sololá	701	Sololá	4	Finca Santa Victoria	11	Noviembre	2023-11-20T00:00:00	2024-11-08T20:00:00	4	Temperatura máxima	14.1
143447	7	Sololá	701	Sololá	4	Finca Santa Victoria	11	Noviembre	2023-11-20T00:00:00	2024-11-08T20:00:00	3	Temperatura mínima	13.4
143448	7	Sololá	701	Sololá	4	Finca Santa Victoria	11	Noviembre	2023-11-20T00:00:00	2024-11-08T20:00:00	5	Humedad	94
143449	7	Sololá	701	Sololá	4	Finca Santa Victoria	11	Noviembre	2023-11-20T00:00:00	2024-11-08T20:00:00	6	Velocidad del viento	0
143450	7	Sololá	701	Sololá	4	Finca Santa Victoria	11	Noviembre	2023-11-20T00:00:00	2024-11-08T20:00:00	7	Dirección del viento	0
143451	7	Sololá	701	Sololá	4	Finca Santa Victoria	11	Noviembre	2023-11-20T00:00:00	2024-11-08T20:00:00	1	Precipitación	0
143452	7	Sololá	701	Sololá	4	Finca Santa Victoria	11	Noviembre	2023-11-20T00:00:00	2024-11-08T20:00:00	8	Radiación solar	0
143453	7	Sololá	701	Sololá	4	Finca Santa Victoria	11	Noviembre	2023-11-20T00:00:00	2024-11-08T21:00:00	2	Temperatura media	12.9
143454	7	Sololá	701	Sololá	4	Finca Santa Victoria	11	Noviembre	2023-11-20T00:00:00	2024-11-08T21:00:00	4	Temperatura máxima	13.5
143455	7	Sololá	701	Sololá	4	Finca Santa Victoria	11	Noviembre	2023-11-20T00:00:00	2024-11-08T21:00:00	3	Temperatura mínima	12.9
143456	7	Sololá	701	Sololá	4	Finca Santa Victoria	11	Noviembre	2023-11-20T00:00:00	2024-11-08T21:00:00	5	Humedad	97
143457	7	Sololá	701	Sololá	4	Finca Santa Victoria	11	Noviembre	2023-11-20T00:00:00	2024-11-08T21:00:00	6	Velocidad del viento	0
143458	7	Sololá	701	Sololá	4	Finca Santa Victoria	11	Noviembre	2023-11-20T00:00:00	2024-11-08T21:00:00	7	Dirección del viento	0
143459	7	Sololá	701	Sololá	4	Finca Santa Victoria	11	Noviembre	2023-11-20T00:00:00	2024-11-08T21:00:00	1	Precipitación	0
143460	7	Sololá	701	Sololá	4	Finca Santa Victoria	11	Noviembre	2023-11-20T00:00:00	2024-11-08T21:00:00	8	Radiación solar	0
143461	7	Sololá	701	Sololá	4	Finca Santa Victoria	11	Noviembre	2023-11-20T00:00:00	2024-11-08T22:00:00	2	Temperatura media	13.1
143462	7	Sololá	701	Sololá	4	Finca Santa Victoria	11	Noviembre	2023-11-20T00:00:00	2024-11-08T22:00:00	4	Temperatura máxima	13.2
143463	7	Sololá	701	Sololá	4	Finca Santa Victoria	11	Noviembre	2023-11-20T00:00:00	2024-11-08T22:00:00	3	Temperatura mínima	12.9
143464	7	Sololá	701	Sololá	4	Finca Santa Victoria	11	Noviembre	2023-11-20T00:00:00	2024-11-08T22:00:00	5	Humedad	97
143465	7	Sololá	701	Sololá	4	Finca Santa Victoria	11	Noviembre	2023-11-20T00:00:00	2024-11-08T22:00:00	6	Velocidad del viento	0
143466	7	Sololá	701	Sololá	4	Finca Santa Victoria	11	Noviembre	2023-11-20T00:00:00	2024-11-08T22:00:00	7	Dirección del viento	0
143467	7	Sololá	701	Sololá	4	Finca Santa Victoria	11	Noviembre	2023-11-20T00:00:00	2024-11-08T22:00:00	1	Precipitación	0
143468	7	Sololá	701	Sololá	4	Finca Santa Victoria	11	Noviembre	2023-11-20T00:00:00	2024-11-08T22:00:00	8	Radiación solar	0
143469	7	Sololá	701	Sololá	4	Finca Santa Victoria	11	Noviembre	2023-11-20T00:00:00	2024-11-08T23:00:00	2	Temperatura media	13.2
143470	7	Sololá	701	Sololá	4	Finca Santa Victoria	11	Noviembre	2023-11-20T00:00:00	2024-11-08T23:00:00	4	Temperatura máxima	13.2
143471	7	Sololá	701	Sololá	4	Finca Santa Victoria	11	Noviembre	2023-11-20T00:00:00	2024-11-08T23:00:00	3	Temperatura mínima	13.1
143472	7	Sololá	701	Sololá	4	Finca Santa Victoria	11	Noviembre	2023-11-20T00:00:00	2024-11-08T23:00:00	5	Humedad	97
143473	7	Sololá	701	Sololá	4	Finca Santa Victoria	11	Noviembre	2023-11-20T00:00:00	2024-11-08T23:00:00	6	Velocidad del viento	0
143474	7	Sololá	701	Sololá	4	Finca Santa Victoria	11	Noviembre	2023-11-20T00:00:00	2024-11-08T23:00:00	7	Dirección del viento	0
143475	7	Sololá	701	Sololá	4	Finca Santa Victoria	11	Noviembre	2023-11-20T00:00:00	2024-11-08T23:00:00	1	Precipitación	0
143476	7	Sololá	701	Sololá	4	Finca Santa Victoria	11	Noviembre	2023-11-20T00:00:00	2024-11-08T23:00:00	8	Radiación solar	0
143477	7	Sololá	701	Sololá	4	Finca Santa Victoria	11	Noviembre	2023-11-21T00:00:00	2024-11-08T00:00:00	2	Temperatura media	13.1
143478	7	Sololá	701	Sololá	4	Finca Santa Victoria	11	Noviembre	2023-11-21T00:00:00	2024-11-08T00:00:00	4	Temperatura máxima	13.2
143479	7	Sololá	701	Sololá	4	Finca Santa Victoria	11	Noviembre	2023-11-21T00:00:00	2024-11-08T00:00:00	3	Temperatura mínima	13
143480	7	Sololá	701	Sololá	4	Finca Santa Victoria	11	Noviembre	2023-11-21T00:00:00	2024-11-08T00:00:00	5	Humedad	97
143481	7	Sololá	701	Sololá	4	Finca Santa Victoria	11	Noviembre	2023-11-21T00:00:00	2024-11-08T00:00:00	6	Velocidad del viento	0
143482	7	Sololá	701	Sololá	4	Finca Santa Victoria	11	Noviembre	2023-11-21T00:00:00	2024-11-08T00:00:00	7	Dirección del viento	0
143483	7	Sololá	701	Sololá	4	Finca Santa Victoria	11	Noviembre	2023-11-21T00:00:00	2024-11-08T00:00:00	1	Precipitación	0
143484	7	Sololá	701	Sololá	4	Finca Santa Victoria	11	Noviembre	2023-11-21T00:00:00	2024-11-08T00:00:00	8	Radiación solar	0
143485	7	Sololá	701	Sololá	4	Finca Santa Victoria	11	Noviembre	2023-11-21T00:00:00	2024-11-08T01:00:00	2	Temperatura media	12.2
143486	7	Sololá	701	Sololá	4	Finca Santa Victoria	11	Noviembre	2023-11-21T00:00:00	2024-11-08T01:00:00	4	Temperatura máxima	13.1
143487	7	Sololá	701	Sololá	4	Finca Santa Victoria	11	Noviembre	2023-11-21T00:00:00	2024-11-08T01:00:00	3	Temperatura mínima	12.2
143488	7	Sololá	701	Sololá	4	Finca Santa Victoria	11	Noviembre	2023-11-21T00:00:00	2024-11-08T01:00:00	5	Humedad	95
143489	7	Sololá	701	Sololá	4	Finca Santa Victoria	11	Noviembre	2023-11-21T00:00:00	2024-11-08T01:00:00	6	Velocidad del viento	0
143490	7	Sololá	701	Sololá	4	Finca Santa Victoria	11	Noviembre	2023-11-21T00:00:00	2024-11-08T01:00:00	7	Dirección del viento	0
143491	7	Sololá	701	Sololá	4	Finca Santa Victoria	11	Noviembre	2023-11-21T00:00:00	2024-11-08T01:00:00	1	Precipitación	0
143492	7	Sololá	701	Sololá	4	Finca Santa Victoria	11	Noviembre	2023-11-21T00:00:00	2024-11-08T01:00:00	8	Radiación solar	0
143493	7	Sololá	701	Sololá	4	Finca Santa Victoria	11	Noviembre	2023-11-21T00:00:00	2024-11-08T02:00:00	2	Temperatura media	11.2
143494	7	Sololá	701	Sololá	4	Finca Santa Victoria	11	Noviembre	2023-11-21T00:00:00	2024-11-08T02:00:00	4	Temperatura máxima	12.2
143495	7	Sololá	701	Sololá	4	Finca Santa Victoria	11	Noviembre	2023-11-21T00:00:00	2024-11-08T02:00:00	3	Temperatura mínima	11.2
143496	7	Sololá	701	Sololá	4	Finca Santa Victoria	11	Noviembre	2023-11-21T00:00:00	2024-11-08T02:00:00	5	Humedad	96
143497	7	Sololá	701	Sololá	4	Finca Santa Victoria	11	Noviembre	2023-11-21T00:00:00	2024-11-08T02:00:00	6	Velocidad del viento	0
143498	7	Sololá	701	Sololá	4	Finca Santa Victoria	11	Noviembre	2023-11-21T00:00:00	2024-11-08T02:00:00	7	Dirección del viento	0
143499	7	Sololá	701	Sololá	4	Finca Santa Victoria	11	Noviembre	2023-11-21T00:00:00	2024-11-08T02:00:00	1	Precipitación	0
143500	7	Sololá	701	Sololá	4	Finca Santa Victoria	11	Noviembre	2023-11-21T00:00:00	2024-11-08T02:00:00	8	Radiación solar	0
143501	7	Sololá	701	Sololá	4	Finca Santa Victoria	11	Noviembre	2023-11-21T00:00:00	2024-11-08T03:00:00	2	Temperatura media	10.7
143502	7	Sololá	701	Sololá	4	Finca Santa Victoria	11	Noviembre	2023-11-21T00:00:00	2024-11-08T03:00:00	4	Temperatura máxima	11.2
143503	7	Sololá	701	Sololá	4	Finca Santa Victoria	11	Noviembre	2023-11-21T00:00:00	2024-11-08T03:00:00	3	Temperatura mínima	10.7
143504	7	Sololá	701	Sololá	4	Finca Santa Victoria	11	Noviembre	2023-11-21T00:00:00	2024-11-08T03:00:00	5	Humedad	97
143505	7	Sololá	701	Sololá	4	Finca Santa Victoria	11	Noviembre	2023-11-21T00:00:00	2024-11-08T03:00:00	6	Velocidad del viento	0
143506	7	Sololá	701	Sololá	4	Finca Santa Victoria	11	Noviembre	2023-11-21T00:00:00	2024-11-08T03:00:00	7	Dirección del viento	0
143507	7	Sololá	701	Sololá	4	Finca Santa Victoria	11	Noviembre	2023-11-21T00:00:00	2024-11-08T03:00:00	1	Precipitación	0
143508	7	Sololá	701	Sololá	4	Finca Santa Victoria	11	Noviembre	2023-11-21T00:00:00	2024-11-08T03:00:00	8	Radiación solar	0
143509	7	Sololá	701	Sololá	4	Finca Santa Victoria	11	Noviembre	2023-11-21T00:00:00	2024-11-08T04:00:00	2	Temperatura media	11.3
143510	7	Sololá	701	Sololá	4	Finca Santa Victoria	11	Noviembre	2023-11-21T00:00:00	2024-11-08T04:00:00	4	Temperatura máxima	11.3
143511	7	Sololá	701	Sololá	4	Finca Santa Victoria	11	Noviembre	2023-11-21T00:00:00	2024-11-08T04:00:00	3	Temperatura mínima	10.7
143512	7	Sololá	701	Sololá	4	Finca Santa Victoria	11	Noviembre	2023-11-21T00:00:00	2024-11-08T04:00:00	5	Humedad	86
143513	7	Sololá	701	Sololá	4	Finca Santa Victoria	11	Noviembre	2023-11-21T00:00:00	2024-11-08T04:00:00	6	Velocidad del viento	1.6
143514	7	Sololá	701	Sololá	4	Finca Santa Victoria	11	Noviembre	2023-11-21T00:00:00	2024-11-08T04:00:00	7	Dirección del viento	1.61
143515	7	Sololá	701	Sololá	4	Finca Santa Victoria	11	Noviembre	2023-11-21T00:00:00	2024-11-08T04:00:00	1	Precipitación	0
143516	7	Sololá	701	Sololá	4	Finca Santa Victoria	11	Noviembre	2023-11-21T00:00:00	2024-11-08T04:00:00	8	Radiación solar	0
143517	7	Sololá	701	Sololá	4	Finca Santa Victoria	11	Noviembre	2023-11-21T00:00:00	2024-11-08T05:00:00	2	Temperatura media	12.1
143518	7	Sololá	701	Sololá	4	Finca Santa Victoria	11	Noviembre	2023-11-21T00:00:00	2024-11-08T05:00:00	4	Temperatura máxima	12.3
143519	7	Sololá	701	Sololá	4	Finca Santa Victoria	11	Noviembre	2023-11-21T00:00:00	2024-11-08T05:00:00	3	Temperatura mínima	11.3
143520	7	Sololá	701	Sololá	4	Finca Santa Victoria	11	Noviembre	2023-11-21T00:00:00	2024-11-08T05:00:00	5	Humedad	84
143521	7	Sololá	701	Sololá	4	Finca Santa Victoria	11	Noviembre	2023-11-21T00:00:00	2024-11-08T05:00:00	6	Velocidad del viento	0
143522	7	Sololá	701	Sololá	4	Finca Santa Victoria	11	Noviembre	2023-11-21T00:00:00	2024-11-08T05:00:00	7	Dirección del viento	0
143523	7	Sololá	701	Sololá	4	Finca Santa Victoria	11	Noviembre	2023-11-21T00:00:00	2024-11-08T05:00:00	1	Precipitación	0
143524	7	Sololá	701	Sololá	4	Finca Santa Victoria	11	Noviembre	2023-11-21T00:00:00	2024-11-08T05:00:00	8	Radiación solar	0
143525	7	Sololá	701	Sololá	4	Finca Santa Victoria	11	Noviembre	2023-11-21T00:00:00	2024-11-08T06:00:00	2	Temperatura media	10.8
143526	7	Sololá	701	Sololá	4	Finca Santa Victoria	11	Noviembre	2023-11-21T00:00:00	2024-11-08T06:00:00	4	Temperatura máxima	12.1
143527	7	Sololá	701	Sololá	4	Finca Santa Victoria	11	Noviembre	2023-11-21T00:00:00	2024-11-08T06:00:00	3	Temperatura mínima	10.7
143528	7	Sololá	701	Sololá	4	Finca Santa Victoria	11	Noviembre	2023-11-21T00:00:00	2024-11-08T06:00:00	5	Humedad	89
143529	7	Sololá	701	Sololá	4	Finca Santa Victoria	11	Noviembre	2023-11-21T00:00:00	2024-11-08T06:00:00	6	Velocidad del viento	0
143530	7	Sololá	701	Sololá	4	Finca Santa Victoria	11	Noviembre	2023-11-21T00:00:00	2024-11-08T06:00:00	7	Dirección del viento	0
143531	7	Sololá	701	Sololá	4	Finca Santa Victoria	11	Noviembre	2023-11-21T00:00:00	2024-11-08T06:00:00	1	Precipitación	0
143532	7	Sololá	701	Sololá	4	Finca Santa Victoria	11	Noviembre	2023-11-21T00:00:00	2024-11-08T06:00:00	8	Radiación solar	0
143533	7	Sololá	701	Sololá	4	Finca Santa Victoria	11	Noviembre	2023-11-21T00:00:00	2024-11-08T07:00:00	2	Temperatura media	12.4
143534	7	Sololá	701	Sololá	4	Finca Santa Victoria	11	Noviembre	2023-11-21T00:00:00	2024-11-08T07:00:00	4	Temperatura máxima	12.4
143535	7	Sololá	701	Sololá	4	Finca Santa Victoria	11	Noviembre	2023-11-21T00:00:00	2024-11-08T07:00:00	3	Temperatura mínima	10.7
143536	7	Sololá	701	Sololá	4	Finca Santa Victoria	11	Noviembre	2023-11-21T00:00:00	2024-11-08T07:00:00	5	Humedad	63
143537	7	Sololá	701	Sololá	4	Finca Santa Victoria	11	Noviembre	2023-11-21T00:00:00	2024-11-08T07:00:00	6	Velocidad del viento	1.6
143538	7	Sololá	701	Sololá	4	Finca Santa Victoria	11	Noviembre	2023-11-21T00:00:00	2024-11-08T07:00:00	7	Dirección del viento	1.61
143539	7	Sololá	701	Sololá	4	Finca Santa Victoria	11	Noviembre	2023-11-21T00:00:00	2024-11-08T07:00:00	1	Precipitación	0
143540	7	Sololá	701	Sololá	4	Finca Santa Victoria	11	Noviembre	2023-11-21T00:00:00	2024-11-08T07:00:00	8	Radiación solar	15
143541	7	Sololá	701	Sololá	4	Finca Santa Victoria	11	Noviembre	2023-11-21T00:00:00	2024-11-08T08:00:00	2	Temperatura media	16.1
143542	7	Sololá	701	Sololá	4	Finca Santa Victoria	11	Noviembre	2023-11-21T00:00:00	2024-11-08T08:00:00	4	Temperatura máxima	16.1
143543	7	Sololá	701	Sololá	4	Finca Santa Victoria	11	Noviembre	2023-11-21T00:00:00	2024-11-08T08:00:00	3	Temperatura mínima	12.4
143544	7	Sololá	701	Sololá	4	Finca Santa Victoria	11	Noviembre	2023-11-21T00:00:00	2024-11-08T08:00:00	5	Humedad	56
143545	7	Sololá	701	Sololá	4	Finca Santa Victoria	11	Noviembre	2023-11-21T00:00:00	2024-11-08T08:00:00	6	Velocidad del viento	1.6
143546	7	Sololá	701	Sololá	4	Finca Santa Victoria	11	Noviembre	2023-11-21T00:00:00	2024-11-08T08:00:00	7	Dirección del viento	1.61
143547	7	Sololá	701	Sololá	4	Finca Santa Victoria	11	Noviembre	2023-11-21T00:00:00	2024-11-08T08:00:00	1	Precipitación	0
143548	7	Sololá	701	Sololá	4	Finca Santa Victoria	11	Noviembre	2023-11-21T00:00:00	2024-11-08T08:00:00	8	Radiación solar	62
143549	7	Sololá	701	Sololá	4	Finca Santa Victoria	11	Noviembre	2023-11-21T00:00:00	2024-11-08T09:00:00	2	Temperatura media	19.7
143550	7	Sololá	701	Sololá	4	Finca Santa Victoria	11	Noviembre	2023-11-21T00:00:00	2024-11-08T09:00:00	4	Temperatura máxima	19.7
143551	7	Sololá	701	Sololá	4	Finca Santa Victoria	11	Noviembre	2023-11-21T00:00:00	2024-11-08T09:00:00	3	Temperatura mínima	16.1
143552	7	Sololá	701	Sololá	4	Finca Santa Victoria	11	Noviembre	2023-11-21T00:00:00	2024-11-08T09:00:00	5	Humedad	43
143553	7	Sololá	701	Sololá	4	Finca Santa Victoria	11	Noviembre	2023-11-21T00:00:00	2024-11-08T09:00:00	6	Velocidad del viento	1.6
143554	7	Sololá	701	Sololá	4	Finca Santa Victoria	11	Noviembre	2023-11-21T00:00:00	2024-11-08T09:00:00	7	Dirección del viento	1.61
143555	7	Sololá	701	Sololá	4	Finca Santa Victoria	11	Noviembre	2023-11-21T00:00:00	2024-11-08T09:00:00	1	Precipitación	0
143556	7	Sololá	701	Sololá	4	Finca Santa Victoria	11	Noviembre	2023-11-21T00:00:00	2024-11-08T09:00:00	8	Radiación solar	153
143557	7	Sololá	701	Sololá	4	Finca Santa Victoria	11	Noviembre	2023-11-21T00:00:00	2024-11-08T10:00:00	2	Temperatura media	22
143558	7	Sololá	701	Sololá	4	Finca Santa Victoria	11	Noviembre	2023-11-21T00:00:00	2024-11-08T10:00:00	4	Temperatura máxima	22
143559	7	Sololá	701	Sololá	4	Finca Santa Victoria	11	Noviembre	2023-11-21T00:00:00	2024-11-08T10:00:00	3	Temperatura mínima	19.7
143560	7	Sololá	701	Sololá	4	Finca Santa Victoria	11	Noviembre	2023-11-21T00:00:00	2024-11-08T10:00:00	5	Humedad	34
143561	7	Sololá	701	Sololá	4	Finca Santa Victoria	11	Noviembre	2023-11-21T00:00:00	2024-11-08T10:00:00	6	Velocidad del viento	1.6
143562	7	Sololá	701	Sololá	4	Finca Santa Victoria	11	Noviembre	2023-11-21T00:00:00	2024-11-08T10:00:00	7	Dirección del viento	1.61
143563	7	Sololá	701	Sololá	4	Finca Santa Victoria	11	Noviembre	2023-11-21T00:00:00	2024-11-08T10:00:00	1	Precipitación	0
143564	7	Sololá	701	Sololá	4	Finca Santa Victoria	11	Noviembre	2023-11-21T00:00:00	2024-11-08T10:00:00	8	Radiación solar	719
143565	7	Sololá	701	Sololá	4	Finca Santa Victoria	11	Noviembre	2023-11-21T00:00:00	2024-11-08T11:00:00	2	Temperatura media	21.3
143566	7	Sololá	701	Sololá	4	Finca Santa Victoria	11	Noviembre	2023-11-21T00:00:00	2024-11-08T11:00:00	4	Temperatura máxima	22.1
143567	7	Sololá	701	Sololá	4	Finca Santa Victoria	11	Noviembre	2023-11-21T00:00:00	2024-11-08T11:00:00	3	Temperatura mínima	20.7
143568	7	Sololá	701	Sololá	4	Finca Santa Victoria	11	Noviembre	2023-11-21T00:00:00	2024-11-08T11:00:00	5	Humedad	45
143569	7	Sololá	701	Sololá	4	Finca Santa Victoria	11	Noviembre	2023-11-21T00:00:00	2024-11-08T11:00:00	6	Velocidad del viento	3.2
143570	7	Sololá	701	Sololá	4	Finca Santa Victoria	11	Noviembre	2023-11-21T00:00:00	2024-11-08T11:00:00	7	Dirección del viento	3.22
143571	7	Sololá	701	Sololá	4	Finca Santa Victoria	11	Noviembre	2023-11-21T00:00:00	2024-11-08T11:00:00	1	Precipitación	0
143572	7	Sololá	701	Sololá	4	Finca Santa Victoria	11	Noviembre	2023-11-21T00:00:00	2024-11-08T11:00:00	8	Radiación solar	888
143573	7	Sololá	701	Sololá	4	Finca Santa Victoria	11	Noviembre	2023-11-21T00:00:00	2024-11-08T12:00:00	2	Temperatura media	20.3
143574	7	Sololá	701	Sololá	4	Finca Santa Victoria	11	Noviembre	2023-11-21T00:00:00	2024-11-08T12:00:00	4	Temperatura máxima	21.7
143575	7	Sololá	701	Sololá	4	Finca Santa Victoria	11	Noviembre	2023-11-21T00:00:00	2024-11-08T12:00:00	3	Temperatura mínima	20.1
143576	7	Sololá	701	Sololá	4	Finca Santa Victoria	11	Noviembre	2023-11-21T00:00:00	2024-11-08T12:00:00	5	Humedad	74
143577	7	Sololá	701	Sololá	4	Finca Santa Victoria	11	Noviembre	2023-11-21T00:00:00	2024-11-08T12:00:00	6	Velocidad del viento	3.2
143578	7	Sololá	701	Sololá	4	Finca Santa Victoria	11	Noviembre	2023-11-21T00:00:00	2024-11-08T12:00:00	7	Dirección del viento	3.22
143579	7	Sololá	701	Sololá	4	Finca Santa Victoria	11	Noviembre	2023-11-21T00:00:00	2024-11-08T12:00:00	1	Precipitación	0
143580	7	Sololá	701	Sololá	4	Finca Santa Victoria	11	Noviembre	2023-11-21T00:00:00	2024-11-08T12:00:00	8	Radiación solar	925
143581	7	Sololá	701	Sololá	4	Finca Santa Victoria	11	Noviembre	2023-11-21T00:00:00	2024-11-08T13:00:00	2	Temperatura media	21.8
143582	7	Sololá	701	Sololá	4	Finca Santa Victoria	11	Noviembre	2023-11-21T00:00:00	2024-11-08T13:00:00	4	Temperatura máxima	21.8
143583	7	Sololá	701	Sololá	4	Finca Santa Victoria	11	Noviembre	2023-11-21T00:00:00	2024-11-08T13:00:00	3	Temperatura mínima	20.3
143584	7	Sololá	701	Sololá	4	Finca Santa Victoria	11	Noviembre	2023-11-21T00:00:00	2024-11-08T13:00:00	5	Humedad	72
143585	7	Sololá	701	Sololá	4	Finca Santa Victoria	11	Noviembre	2023-11-21T00:00:00	2024-11-08T13:00:00	6	Velocidad del viento	3.2
143586	7	Sololá	701	Sololá	4	Finca Santa Victoria	11	Noviembre	2023-11-21T00:00:00	2024-11-08T13:00:00	7	Dirección del viento	3.22
143587	7	Sololá	701	Sololá	4	Finca Santa Victoria	11	Noviembre	2023-11-21T00:00:00	2024-11-08T13:00:00	1	Precipitación	0
143588	7	Sololá	701	Sololá	4	Finca Santa Victoria	11	Noviembre	2023-11-21T00:00:00	2024-11-08T13:00:00	8	Radiación solar	770
143589	7	Sololá	701	Sololá	4	Finca Santa Victoria	11	Noviembre	2023-11-21T00:00:00	2024-11-08T14:00:00	2	Temperatura media	21.4
143590	7	Sololá	701	Sololá	4	Finca Santa Victoria	11	Noviembre	2023-11-21T00:00:00	2024-11-08T14:00:00	4	Temperatura máxima	21.8
143591	7	Sololá	701	Sololá	4	Finca Santa Victoria	11	Noviembre	2023-11-21T00:00:00	2024-11-08T14:00:00	3	Temperatura mínima	20.7
143592	7	Sololá	701	Sololá	4	Finca Santa Victoria	11	Noviembre	2023-11-21T00:00:00	2024-11-08T14:00:00	5	Humedad	76
143593	7	Sololá	701	Sololá	4	Finca Santa Victoria	11	Noviembre	2023-11-21T00:00:00	2024-11-08T14:00:00	6	Velocidad del viento	3.2
143594	7	Sololá	701	Sololá	4	Finca Santa Victoria	11	Noviembre	2023-11-21T00:00:00	2024-11-08T14:00:00	7	Dirección del viento	3.22
143595	7	Sololá	701	Sololá	4	Finca Santa Victoria	11	Noviembre	2023-11-21T00:00:00	2024-11-08T14:00:00	1	Precipitación	0
143596	7	Sololá	701	Sololá	4	Finca Santa Victoria	11	Noviembre	2023-11-21T00:00:00	2024-11-08T14:00:00	8	Radiación solar	662
143597	7	Sololá	701	Sololá	4	Finca Santa Victoria	11	Noviembre	2023-11-21T00:00:00	2024-11-08T15:00:00	2	Temperatura media	22.3
143598	7	Sololá	701	Sololá	4	Finca Santa Victoria	11	Noviembre	2023-11-21T00:00:00	2024-11-08T15:00:00	4	Temperatura máxima	22.4
143599	7	Sololá	701	Sololá	4	Finca Santa Victoria	11	Noviembre	2023-11-21T00:00:00	2024-11-08T15:00:00	3	Temperatura mínima	20.8
143600	7	Sololá	701	Sololá	4	Finca Santa Victoria	11	Noviembre	2023-11-21T00:00:00	2024-11-08T15:00:00	5	Humedad	62
143601	7	Sololá	701	Sololá	4	Finca Santa Victoria	11	Noviembre	2023-11-21T00:00:00	2024-11-08T15:00:00	6	Velocidad del viento	3.2
143602	7	Sololá	701	Sololá	4	Finca Santa Victoria	11	Noviembre	2023-11-21T00:00:00	2024-11-08T15:00:00	7	Dirección del viento	3.22
143603	7	Sololá	701	Sololá	4	Finca Santa Victoria	11	Noviembre	2023-11-21T00:00:00	2024-11-08T15:00:00	1	Precipitación	0
143604	7	Sololá	701	Sololá	4	Finca Santa Victoria	11	Noviembre	2023-11-21T00:00:00	2024-11-08T15:00:00	8	Radiación solar	135
143605	7	Sololá	701	Sololá	4	Finca Santa Victoria	11	Noviembre	2023-11-21T00:00:00	2024-11-08T16:00:00	2	Temperatura media	21.7
143606	7	Sololá	701	Sololá	4	Finca Santa Victoria	11	Noviembre	2023-11-21T00:00:00	2024-11-08T16:00:00	4	Temperatura máxima	22.8
143607	7	Sololá	701	Sololá	4	Finca Santa Victoria	11	Noviembre	2023-11-21T00:00:00	2024-11-08T16:00:00	3	Temperatura mínima	21.7
143608	7	Sololá	701	Sololá	4	Finca Santa Victoria	11	Noviembre	2023-11-21T00:00:00	2024-11-08T16:00:00	5	Humedad	58
143609	7	Sololá	701	Sololá	4	Finca Santa Victoria	11	Noviembre	2023-11-21T00:00:00	2024-11-08T16:00:00	6	Velocidad del viento	3.2
143610	7	Sololá	701	Sololá	4	Finca Santa Victoria	11	Noviembre	2023-11-21T00:00:00	2024-11-08T16:00:00	7	Dirección del viento	3.22
143611	7	Sololá	701	Sololá	4	Finca Santa Victoria	11	Noviembre	2023-11-21T00:00:00	2024-11-08T16:00:00	1	Precipitación	0
143612	7	Sololá	701	Sololá	4	Finca Santa Victoria	11	Noviembre	2023-11-21T00:00:00	2024-11-08T16:00:00	8	Radiación solar	205
143613	7	Sololá	701	Sololá	4	Finca Santa Victoria	11	Noviembre	2023-11-21T00:00:00	2024-11-08T17:00:00	2	Temperatura media	17.9
143614	7	Sololá	701	Sololá	4	Finca Santa Victoria	11	Noviembre	2023-11-21T00:00:00	2024-11-08T17:00:00	4	Temperatura máxima	21.7
143615	7	Sololá	701	Sololá	4	Finca Santa Victoria	11	Noviembre	2023-11-21T00:00:00	2024-11-08T17:00:00	3	Temperatura mínima	17.9
143616	7	Sololá	701	Sololá	4	Finca Santa Victoria	11	Noviembre	2023-11-21T00:00:00	2024-11-08T17:00:00	5	Humedad	63
143617	7	Sololá	701	Sololá	4	Finca Santa Victoria	11	Noviembre	2023-11-21T00:00:00	2024-11-08T17:00:00	6	Velocidad del viento	3.2
143618	7	Sololá	701	Sololá	4	Finca Santa Victoria	11	Noviembre	2023-11-21T00:00:00	2024-11-08T17:00:00	7	Dirección del viento	3.22
143619	7	Sololá	701	Sololá	4	Finca Santa Victoria	11	Noviembre	2023-11-21T00:00:00	2024-11-08T17:00:00	1	Precipitación	0
143620	7	Sololá	701	Sololá	4	Finca Santa Victoria	11	Noviembre	2023-11-21T00:00:00	2024-11-08T17:00:00	8	Radiación solar	146
143621	7	Sololá	701	Sololá	4	Finca Santa Victoria	11	Noviembre	2023-11-21T00:00:00	2024-11-08T18:00:00	2	Temperatura media	14.8
143622	7	Sololá	701	Sololá	4	Finca Santa Victoria	11	Noviembre	2023-11-21T00:00:00	2024-11-08T18:00:00	4	Temperatura máxima	17.9
143623	7	Sololá	701	Sololá	4	Finca Santa Victoria	11	Noviembre	2023-11-21T00:00:00	2024-11-08T18:00:00	3	Temperatura mínima	14.8
143624	7	Sololá	701	Sololá	4	Finca Santa Victoria	11	Noviembre	2023-11-21T00:00:00	2024-11-08T18:00:00	5	Humedad	65
143625	7	Sololá	701	Sololá	4	Finca Santa Victoria	11	Noviembre	2023-11-21T00:00:00	2024-11-08T18:00:00	6	Velocidad del viento	1.6
143626	7	Sololá	701	Sololá	4	Finca Santa Victoria	11	Noviembre	2023-11-21T00:00:00	2024-11-08T18:00:00	7	Dirección del viento	1.61
143627	7	Sololá	701	Sololá	4	Finca Santa Victoria	11	Noviembre	2023-11-21T00:00:00	2024-11-08T18:00:00	1	Precipitación	0
143628	7	Sololá	701	Sololá	4	Finca Santa Victoria	11	Noviembre	2023-11-21T00:00:00	2024-11-08T18:00:00	8	Radiación solar	5
143629	7	Sololá	701	Sololá	4	Finca Santa Victoria	11	Noviembre	2023-11-21T00:00:00	2024-11-08T19:00:00	2	Temperatura media	13.9
143630	7	Sololá	701	Sololá	4	Finca Santa Victoria	11	Noviembre	2023-11-21T00:00:00	2024-11-08T19:00:00	4	Temperatura máxima	14.8
143631	7	Sololá	701	Sololá	4	Finca Santa Victoria	11	Noviembre	2023-11-21T00:00:00	2024-11-08T19:00:00	3	Temperatura mínima	13.9
143632	7	Sololá	701	Sololá	4	Finca Santa Victoria	11	Noviembre	2023-11-21T00:00:00	2024-11-08T19:00:00	5	Humedad	67
143633	7	Sololá	701	Sololá	4	Finca Santa Victoria	11	Noviembre	2023-11-21T00:00:00	2024-11-08T19:00:00	6	Velocidad del viento	1.6
143634	7	Sololá	701	Sololá	4	Finca Santa Victoria	11	Noviembre	2023-11-21T00:00:00	2024-11-08T19:00:00	7	Dirección del viento	1.61
143635	7	Sololá	701	Sololá	4	Finca Santa Victoria	11	Noviembre	2023-11-21T00:00:00	2024-11-08T19:00:00	1	Precipitación	0
143636	7	Sololá	701	Sololá	4	Finca Santa Victoria	11	Noviembre	2023-11-21T00:00:00	2024-11-08T19:00:00	8	Radiación solar	0
143637	7	Sololá	701	Sololá	4	Finca Santa Victoria	11	Noviembre	2023-11-21T00:00:00	2024-11-08T20:00:00	2	Temperatura media	13.3
143638	7	Sololá	701	Sololá	4	Finca Santa Victoria	11	Noviembre	2023-11-21T00:00:00	2024-11-08T20:00:00	4	Temperatura máxima	13.9
143639	7	Sololá	701	Sololá	4	Finca Santa Victoria	11	Noviembre	2023-11-21T00:00:00	2024-11-08T20:00:00	3	Temperatura mínima	13.2
143640	7	Sololá	701	Sololá	4	Finca Santa Victoria	11	Noviembre	2023-11-21T00:00:00	2024-11-08T20:00:00	5	Humedad	75
143641	7	Sololá	701	Sololá	4	Finca Santa Victoria	11	Noviembre	2023-11-21T00:00:00	2024-11-08T20:00:00	6	Velocidad del viento	3.2
143642	7	Sololá	701	Sololá	4	Finca Santa Victoria	11	Noviembre	2023-11-21T00:00:00	2024-11-08T20:00:00	7	Dirección del viento	3.22
143643	7	Sololá	701	Sololá	4	Finca Santa Victoria	11	Noviembre	2023-11-21T00:00:00	2024-11-08T20:00:00	1	Precipitación	0
143644	7	Sololá	701	Sololá	4	Finca Santa Victoria	11	Noviembre	2023-11-21T00:00:00	2024-11-08T20:00:00	8	Radiación solar	0
143645	7	Sololá	701	Sololá	4	Finca Santa Victoria	11	Noviembre	2023-11-21T00:00:00	2024-11-08T21:00:00	2	Temperatura media	12.8
143646	7	Sololá	701	Sololá	4	Finca Santa Victoria	11	Noviembre	2023-11-21T00:00:00	2024-11-08T21:00:00	4	Temperatura máxima	13.4
143647	7	Sololá	701	Sololá	4	Finca Santa Victoria	11	Noviembre	2023-11-21T00:00:00	2024-11-08T21:00:00	3	Temperatura mínima	12.8
143648	7	Sololá	701	Sololá	4	Finca Santa Victoria	11	Noviembre	2023-11-21T00:00:00	2024-11-08T21:00:00	5	Humedad	82
143649	7	Sololá	701	Sololá	4	Finca Santa Victoria	11	Noviembre	2023-11-21T00:00:00	2024-11-08T21:00:00	6	Velocidad del viento	3.2
143650	7	Sololá	701	Sololá	4	Finca Santa Victoria	11	Noviembre	2023-11-21T00:00:00	2024-11-08T21:00:00	7	Dirección del viento	3.22
143651	7	Sololá	701	Sololá	4	Finca Santa Victoria	11	Noviembre	2023-11-21T00:00:00	2024-11-08T21:00:00	1	Precipitación	0
143652	7	Sololá	701	Sololá	4	Finca Santa Victoria	11	Noviembre	2023-11-21T00:00:00	2024-11-08T21:00:00	8	Radiación solar	0
143653	7	Sololá	701	Sololá	4	Finca Santa Victoria	11	Noviembre	2023-11-21T00:00:00	2024-11-08T22:00:00	2	Temperatura media	12.6
143654	7	Sololá	701	Sololá	4	Finca Santa Victoria	11	Noviembre	2023-11-21T00:00:00	2024-11-08T22:00:00	4	Temperatura máxima	12.9
143655	7	Sololá	701	Sololá	4	Finca Santa Victoria	11	Noviembre	2023-11-21T00:00:00	2024-11-08T22:00:00	3	Temperatura mínima	12.6
143656	7	Sololá	701	Sololá	4	Finca Santa Victoria	11	Noviembre	2023-11-21T00:00:00	2024-11-08T22:00:00	5	Humedad	85
143657	7	Sololá	701	Sololá	4	Finca Santa Victoria	11	Noviembre	2023-11-21T00:00:00	2024-11-08T22:00:00	6	Velocidad del viento	3.2
143658	7	Sololá	701	Sololá	4	Finca Santa Victoria	11	Noviembre	2023-11-21T00:00:00	2024-11-08T22:00:00	7	Dirección del viento	3.22
143659	7	Sololá	701	Sololá	4	Finca Santa Victoria	11	Noviembre	2023-11-21T00:00:00	2024-11-08T22:00:00	1	Precipitación	0
143660	7	Sololá	701	Sololá	4	Finca Santa Victoria	11	Noviembre	2023-11-21T00:00:00	2024-11-08T22:00:00	8	Radiación solar	0
143661	7	Sololá	701	Sololá	4	Finca Santa Victoria	11	Noviembre	2023-11-21T00:00:00	2024-11-08T23:00:00	2	Temperatura media	12.7
143662	7	Sololá	701	Sololá	4	Finca Santa Victoria	11	Noviembre	2023-11-21T00:00:00	2024-11-08T23:00:00	4	Temperatura máxima	12.8
143663	7	Sololá	701	Sololá	4	Finca Santa Victoria	11	Noviembre	2023-11-21T00:00:00	2024-11-08T23:00:00	3	Temperatura mínima	12.5
143664	7	Sololá	701	Sololá	4	Finca Santa Victoria	11	Noviembre	2023-11-21T00:00:00	2024-11-08T23:00:00	5	Humedad	83
143665	7	Sololá	701	Sololá	4	Finca Santa Victoria	11	Noviembre	2023-11-21T00:00:00	2024-11-08T23:00:00	6	Velocidad del viento	3.2
143666	7	Sololá	701	Sololá	4	Finca Santa Victoria	11	Noviembre	2023-11-21T00:00:00	2024-11-08T23:00:00	7	Dirección del viento	3.22
143667	7	Sololá	701	Sololá	4	Finca Santa Victoria	11	Noviembre	2023-11-21T00:00:00	2024-11-08T23:00:00	1	Precipitación	0
143668	7	Sololá	701	Sololá	4	Finca Santa Victoria	11	Noviembre	2023-11-21T00:00:00	2024-11-08T23:00:00	8	Radiación solar	0
143669	7	Sololá	701	Sololá	4	Finca Santa Victoria	11	Noviembre	2023-11-22T00:00:00	2024-11-08T00:00:00	2	Temperatura media	12.8
143670	7	Sololá	701	Sololá	4	Finca Santa Victoria	11	Noviembre	2023-11-22T00:00:00	2024-11-08T00:00:00	4	Temperatura máxima	12.8
143671	7	Sololá	701	Sololá	4	Finca Santa Victoria	11	Noviembre	2023-11-22T00:00:00	2024-11-08T00:00:00	3	Temperatura mínima	12.6
143672	7	Sololá	701	Sololá	4	Finca Santa Victoria	11	Noviembre	2023-11-22T00:00:00	2024-11-08T00:00:00	5	Humedad	79
143673	7	Sololá	701	Sololá	4	Finca Santa Victoria	11	Noviembre	2023-11-22T00:00:00	2024-11-08T00:00:00	6	Velocidad del viento	3.2
143674	7	Sololá	701	Sololá	4	Finca Santa Victoria	11	Noviembre	2023-11-22T00:00:00	2024-11-08T00:00:00	7	Dirección del viento	3.22
143675	7	Sololá	701	Sololá	4	Finca Santa Victoria	11	Noviembre	2023-11-22T00:00:00	2024-11-08T00:00:00	1	Precipitación	0
143676	7	Sololá	701	Sololá	4	Finca Santa Victoria	11	Noviembre	2023-11-22T00:00:00	2024-11-08T00:00:00	8	Radiación solar	0
143677	7	Sololá	701	Sololá	4	Finca Santa Victoria	11	Noviembre	2023-11-22T00:00:00	2024-11-08T01:00:00	2	Temperatura media	12.4
143678	7	Sololá	701	Sololá	4	Finca Santa Victoria	11	Noviembre	2023-11-22T00:00:00	2024-11-08T01:00:00	4	Temperatura máxima	12.8
143679	7	Sololá	701	Sololá	4	Finca Santa Victoria	11	Noviembre	2023-11-22T00:00:00	2024-11-08T01:00:00	3	Temperatura mínima	12.3
143680	7	Sololá	701	Sololá	4	Finca Santa Victoria	11	Noviembre	2023-11-22T00:00:00	2024-11-08T01:00:00	5	Humedad	80
143681	7	Sololá	701	Sololá	4	Finca Santa Victoria	11	Noviembre	2023-11-22T00:00:00	2024-11-08T01:00:00	6	Velocidad del viento	4.8
143682	7	Sololá	701	Sololá	4	Finca Santa Victoria	11	Noviembre	2023-11-22T00:00:00	2024-11-08T01:00:00	7	Dirección del viento	4.83
143683	7	Sololá	701	Sololá	4	Finca Santa Victoria	11	Noviembre	2023-11-22T00:00:00	2024-11-08T01:00:00	1	Precipitación	0
143684	7	Sololá	701	Sololá	4	Finca Santa Victoria	11	Noviembre	2023-11-22T00:00:00	2024-11-08T01:00:00	8	Radiación solar	0
143685	7	Sololá	701	Sololá	4	Finca Santa Victoria	11	Noviembre	2023-11-22T00:00:00	2024-11-08T02:00:00	2	Temperatura media	12.4
143686	7	Sololá	701	Sololá	4	Finca Santa Victoria	11	Noviembre	2023-11-22T00:00:00	2024-11-08T02:00:00	4	Temperatura máxima	12.4
143687	7	Sololá	701	Sololá	4	Finca Santa Victoria	11	Noviembre	2023-11-22T00:00:00	2024-11-08T02:00:00	3	Temperatura mínima	11.9
143688	7	Sololá	701	Sololá	4	Finca Santa Victoria	11	Noviembre	2023-11-22T00:00:00	2024-11-08T02:00:00	5	Humedad	78
143689	7	Sololá	701	Sololá	4	Finca Santa Victoria	11	Noviembre	2023-11-22T00:00:00	2024-11-08T02:00:00	6	Velocidad del viento	4.8
143690	7	Sololá	701	Sololá	4	Finca Santa Victoria	11	Noviembre	2023-11-22T00:00:00	2024-11-08T02:00:00	7	Dirección del viento	4.83
143691	7	Sololá	701	Sololá	4	Finca Santa Victoria	11	Noviembre	2023-11-22T00:00:00	2024-11-08T02:00:00	1	Precipitación	0
143692	7	Sololá	701	Sololá	4	Finca Santa Victoria	11	Noviembre	2023-11-22T00:00:00	2024-11-08T02:00:00	8	Radiación solar	0
143693	7	Sololá	701	Sololá	4	Finca Santa Victoria	11	Noviembre	2023-11-22T00:00:00	2024-11-08T03:00:00	2	Temperatura media	12.3
143694	7	Sololá	701	Sololá	4	Finca Santa Victoria	11	Noviembre	2023-11-22T00:00:00	2024-11-08T03:00:00	4	Temperatura máxima	12.6
143695	7	Sololá	701	Sololá	4	Finca Santa Victoria	11	Noviembre	2023-11-22T00:00:00	2024-11-08T03:00:00	3	Temperatura mínima	12.2
143696	7	Sololá	701	Sololá	4	Finca Santa Victoria	11	Noviembre	2023-11-22T00:00:00	2024-11-08T03:00:00	5	Humedad	80
143697	7	Sololá	701	Sololá	4	Finca Santa Victoria	11	Noviembre	2023-11-22T00:00:00	2024-11-08T03:00:00	6	Velocidad del viento	3.2
143698	7	Sololá	701	Sololá	4	Finca Santa Victoria	11	Noviembre	2023-11-22T00:00:00	2024-11-08T03:00:00	7	Dirección del viento	3.22
143699	7	Sololá	701	Sololá	4	Finca Santa Victoria	11	Noviembre	2023-11-22T00:00:00	2024-11-08T03:00:00	1	Precipitación	0
143700	7	Sololá	701	Sololá	4	Finca Santa Victoria	11	Noviembre	2023-11-22T00:00:00	2024-11-08T03:00:00	8	Radiación solar	0
143701	7	Sololá	701	Sololá	4	Finca Santa Victoria	11	Noviembre	2023-11-22T00:00:00	2024-11-08T04:00:00	2	Temperatura media	12.1
143702	7	Sololá	701	Sololá	4	Finca Santa Victoria	11	Noviembre	2023-11-22T00:00:00	2024-11-08T04:00:00	4	Temperatura máxima	12.3
143703	7	Sololá	701	Sololá	4	Finca Santa Victoria	11	Noviembre	2023-11-22T00:00:00	2024-11-08T04:00:00	3	Temperatura mínima	12.1
143704	7	Sololá	701	Sololá	4	Finca Santa Victoria	11	Noviembre	2023-11-22T00:00:00	2024-11-08T04:00:00	5	Humedad	80
143705	7	Sololá	701	Sololá	4	Finca Santa Victoria	11	Noviembre	2023-11-22T00:00:00	2024-11-08T04:00:00	6	Velocidad del viento	3.2
143706	7	Sololá	701	Sololá	4	Finca Santa Victoria	11	Noviembre	2023-11-22T00:00:00	2024-11-08T04:00:00	7	Dirección del viento	3.22
143707	7	Sololá	701	Sololá	4	Finca Santa Victoria	11	Noviembre	2023-11-22T00:00:00	2024-11-08T04:00:00	1	Precipitación	0
143708	7	Sololá	701	Sololá	4	Finca Santa Victoria	11	Noviembre	2023-11-22T00:00:00	2024-11-08T04:00:00	8	Radiación solar	0
143709	7	Sololá	701	Sololá	4	Finca Santa Victoria	11	Noviembre	2023-11-22T00:00:00	2024-11-08T05:00:00	2	Temperatura media	12.8
143710	7	Sololá	701	Sololá	4	Finca Santa Victoria	11	Noviembre	2023-11-22T00:00:00	2024-11-08T05:00:00	4	Temperatura máxima	12.8
143711	7	Sololá	701	Sololá	4	Finca Santa Victoria	11	Noviembre	2023-11-22T00:00:00	2024-11-08T05:00:00	3	Temperatura mínima	12.1
143712	7	Sololá	701	Sololá	4	Finca Santa Victoria	11	Noviembre	2023-11-22T00:00:00	2024-11-08T05:00:00	5	Humedad	77
143713	7	Sololá	701	Sololá	4	Finca Santa Victoria	11	Noviembre	2023-11-22T00:00:00	2024-11-08T05:00:00	6	Velocidad del viento	3.2
143714	7	Sololá	701	Sololá	4	Finca Santa Victoria	11	Noviembre	2023-11-22T00:00:00	2024-11-08T05:00:00	7	Dirección del viento	3.22
143715	7	Sololá	701	Sololá	4	Finca Santa Victoria	11	Noviembre	2023-11-22T00:00:00	2024-11-08T05:00:00	1	Precipitación	0
143716	7	Sololá	701	Sololá	4	Finca Santa Victoria	11	Noviembre	2023-11-22T00:00:00	2024-11-08T05:00:00	8	Radiación solar	0
143717	7	Sololá	701	Sololá	4	Finca Santa Victoria	11	Noviembre	2023-11-22T00:00:00	2024-11-08T06:00:00	2	Temperatura media	12.8
143718	7	Sololá	701	Sololá	4	Finca Santa Victoria	11	Noviembre	2023-11-22T00:00:00	2024-11-08T06:00:00	4	Temperatura máxima	13.1
143719	7	Sololá	701	Sololá	4	Finca Santa Victoria	11	Noviembre	2023-11-22T00:00:00	2024-11-08T06:00:00	3	Temperatura mínima	12.8
143720	7	Sololá	701	Sololá	4	Finca Santa Victoria	11	Noviembre	2023-11-22T00:00:00	2024-11-08T06:00:00	5	Humedad	78
143721	7	Sololá	701	Sololá	4	Finca Santa Victoria	11	Noviembre	2023-11-22T00:00:00	2024-11-08T06:00:00	6	Velocidad del viento	3.2
143722	7	Sololá	701	Sololá	4	Finca Santa Victoria	11	Noviembre	2023-11-22T00:00:00	2024-11-08T06:00:00	7	Dirección del viento	3.22
143723	7	Sololá	701	Sololá	4	Finca Santa Victoria	11	Noviembre	2023-11-22T00:00:00	2024-11-08T06:00:00	1	Precipitación	0
143724	7	Sololá	701	Sololá	4	Finca Santa Victoria	11	Noviembre	2023-11-22T00:00:00	2024-11-08T06:00:00	8	Radiación solar	0
143725	7	Sololá	701	Sololá	4	Finca Santa Victoria	11	Noviembre	2023-11-22T00:00:00	2024-11-08T07:00:00	2	Temperatura media	13.7
143726	7	Sololá	701	Sololá	4	Finca Santa Victoria	11	Noviembre	2023-11-22T00:00:00	2024-11-08T07:00:00	4	Temperatura máxima	13.7
143727	7	Sololá	701	Sololá	4	Finca Santa Victoria	11	Noviembre	2023-11-22T00:00:00	2024-11-08T07:00:00	3	Temperatura mínima	12.8
143728	7	Sololá	701	Sololá	4	Finca Santa Victoria	11	Noviembre	2023-11-22T00:00:00	2024-11-08T07:00:00	5	Humedad	79
143729	7	Sololá	701	Sololá	4	Finca Santa Victoria	11	Noviembre	2023-11-22T00:00:00	2024-11-08T07:00:00	6	Velocidad del viento	3.2
143730	7	Sololá	701	Sololá	4	Finca Santa Victoria	11	Noviembre	2023-11-22T00:00:00	2024-11-08T07:00:00	7	Dirección del viento	3.22
143731	7	Sololá	701	Sololá	4	Finca Santa Victoria	11	Noviembre	2023-11-22T00:00:00	2024-11-08T07:00:00	1	Precipitación	0
143732	7	Sololá	701	Sololá	4	Finca Santa Victoria	11	Noviembre	2023-11-22T00:00:00	2024-11-08T07:00:00	8	Radiación solar	12
143733	7	Sololá	701	Sololá	4	Finca Santa Victoria	11	Noviembre	2023-11-22T00:00:00	2024-11-08T08:00:00	2	Temperatura media	15.4
143734	7	Sololá	701	Sololá	4	Finca Santa Victoria	11	Noviembre	2023-11-22T00:00:00	2024-11-08T08:00:00	4	Temperatura máxima	15.4
143735	7	Sololá	701	Sololá	4	Finca Santa Victoria	11	Noviembre	2023-11-22T00:00:00	2024-11-08T08:00:00	3	Temperatura mínima	13.6
143736	7	Sololá	701	Sololá	4	Finca Santa Victoria	11	Noviembre	2023-11-22T00:00:00	2024-11-08T08:00:00	5	Humedad	76
143737	7	Sololá	701	Sololá	4	Finca Santa Victoria	11	Noviembre	2023-11-22T00:00:00	2024-11-08T08:00:00	6	Velocidad del viento	4.8
143738	7	Sololá	701	Sololá	4	Finca Santa Victoria	11	Noviembre	2023-11-22T00:00:00	2024-11-08T08:00:00	7	Dirección del viento	4.83
143739	7	Sololá	701	Sololá	4	Finca Santa Victoria	11	Noviembre	2023-11-22T00:00:00	2024-11-08T08:00:00	1	Precipitación	0
143740	7	Sololá	701	Sololá	4	Finca Santa Victoria	11	Noviembre	2023-11-22T00:00:00	2024-11-08T08:00:00	8	Radiación solar	57
143741	7	Sololá	701	Sololá	4	Finca Santa Victoria	11	Noviembre	2023-11-22T00:00:00	2024-11-08T09:00:00	2	Temperatura media	16
143742	7	Sololá	701	Sololá	4	Finca Santa Victoria	11	Noviembre	2023-11-22T00:00:00	2024-11-08T09:00:00	4	Temperatura máxima	16.1
143743	7	Sololá	701	Sololá	4	Finca Santa Victoria	11	Noviembre	2023-11-22T00:00:00	2024-11-08T09:00:00	3	Temperatura mínima	15.4
143744	7	Sololá	701	Sololá	4	Finca Santa Victoria	11	Noviembre	2023-11-22T00:00:00	2024-11-08T09:00:00	5	Humedad	78
143745	7	Sololá	701	Sololá	4	Finca Santa Victoria	11	Noviembre	2023-11-22T00:00:00	2024-11-08T09:00:00	6	Velocidad del viento	4.8
143746	7	Sololá	701	Sololá	4	Finca Santa Victoria	11	Noviembre	2023-11-22T00:00:00	2024-11-08T09:00:00	7	Dirección del viento	4.83
143747	7	Sololá	701	Sololá	4	Finca Santa Victoria	11	Noviembre	2023-11-22T00:00:00	2024-11-08T09:00:00	1	Precipitación	0
143748	7	Sololá	701	Sololá	4	Finca Santa Victoria	11	Noviembre	2023-11-22T00:00:00	2024-11-08T09:00:00	8	Radiación solar	120
143749	7	Sololá	701	Sololá	4	Finca Santa Victoria	11	Noviembre	2023-11-22T00:00:00	2024-11-08T10:00:00	2	Temperatura media	17.4
143750	7	Sololá	701	Sololá	4	Finca Santa Victoria	11	Noviembre	2023-11-22T00:00:00	2024-11-08T10:00:00	4	Temperatura máxima	17.4
143751	7	Sololá	701	Sololá	4	Finca Santa Victoria	11	Noviembre	2023-11-22T00:00:00	2024-11-08T10:00:00	3	Temperatura mínima	15.9
143752	7	Sololá	701	Sololá	4	Finca Santa Victoria	11	Noviembre	2023-11-22T00:00:00	2024-11-08T10:00:00	5	Humedad	74
143753	7	Sololá	701	Sololá	4	Finca Santa Victoria	11	Noviembre	2023-11-22T00:00:00	2024-11-08T10:00:00	6	Velocidad del viento	6.4
143754	7	Sololá	701	Sololá	4	Finca Santa Victoria	11	Noviembre	2023-11-22T00:00:00	2024-11-08T10:00:00	7	Dirección del viento	6.44
143755	7	Sololá	701	Sololá	4	Finca Santa Victoria	11	Noviembre	2023-11-22T00:00:00	2024-11-08T10:00:00	1	Precipitación	0
143756	7	Sololá	701	Sololá	4	Finca Santa Victoria	11	Noviembre	2023-11-22T00:00:00	2024-11-08T10:00:00	8	Radiación solar	637
143757	7	Sololá	701	Sololá	4	Finca Santa Victoria	11	Noviembre	2023-11-22T00:00:00	2024-11-08T11:00:00	2	Temperatura media	17.9
143758	7	Sololá	701	Sololá	4	Finca Santa Victoria	11	Noviembre	2023-11-22T00:00:00	2024-11-08T11:00:00	4	Temperatura máxima	18.1
143759	7	Sololá	701	Sololá	4	Finca Santa Victoria	11	Noviembre	2023-11-22T00:00:00	2024-11-08T11:00:00	3	Temperatura mínima	17.4
143760	7	Sololá	701	Sololá	4	Finca Santa Victoria	11	Noviembre	2023-11-22T00:00:00	2024-11-08T11:00:00	5	Humedad	72
143761	7	Sololá	701	Sololá	4	Finca Santa Victoria	11	Noviembre	2023-11-22T00:00:00	2024-11-08T11:00:00	6	Velocidad del viento	6.4
143762	7	Sololá	701	Sololá	4	Finca Santa Victoria	11	Noviembre	2023-11-22T00:00:00	2024-11-08T11:00:00	7	Dirección del viento	6.44
143763	7	Sololá	701	Sololá	4	Finca Santa Victoria	11	Noviembre	2023-11-22T00:00:00	2024-11-08T11:00:00	1	Precipitación	0
143764	7	Sololá	701	Sololá	4	Finca Santa Victoria	11	Noviembre	2023-11-22T00:00:00	2024-11-08T11:00:00	8	Radiación solar	853
143765	7	Sololá	701	Sololá	4	Finca Santa Victoria	11	Noviembre	2023-11-22T00:00:00	2024-11-08T12:00:00	2	Temperatura media	17.1
143766	7	Sololá	701	Sololá	4	Finca Santa Victoria	11	Noviembre	2023-11-22T00:00:00	2024-11-08T12:00:00	4	Temperatura máxima	18.3
143767	7	Sololá	701	Sololá	4	Finca Santa Victoria	11	Noviembre	2023-11-22T00:00:00	2024-11-08T12:00:00	3	Temperatura mínima	17
143768	7	Sololá	701	Sololá	4	Finca Santa Victoria	11	Noviembre	2023-11-22T00:00:00	2024-11-08T12:00:00	5	Humedad	75
143769	7	Sololá	701	Sololá	4	Finca Santa Victoria	11	Noviembre	2023-11-22T00:00:00	2024-11-08T12:00:00	6	Velocidad del viento	6.4
143770	7	Sololá	701	Sololá	4	Finca Santa Victoria	11	Noviembre	2023-11-22T00:00:00	2024-11-08T12:00:00	7	Dirección del viento	6.44
143771	7	Sololá	701	Sololá	4	Finca Santa Victoria	11	Noviembre	2023-11-22T00:00:00	2024-11-08T12:00:00	1	Precipitación	0
143772	7	Sololá	701	Sololá	4	Finca Santa Victoria	11	Noviembre	2023-11-22T00:00:00	2024-11-08T12:00:00	8	Radiación solar	743
143773	7	Sololá	701	Sololá	4	Finca Santa Victoria	11	Noviembre	2023-11-22T00:00:00	2024-11-08T13:00:00	2	Temperatura media	18
143774	7	Sololá	701	Sololá	4	Finca Santa Victoria	11	Noviembre	2023-11-22T00:00:00	2024-11-08T13:00:00	4	Temperatura máxima	18.1
143775	7	Sololá	701	Sololá	4	Finca Santa Victoria	11	Noviembre	2023-11-22T00:00:00	2024-11-08T13:00:00	3	Temperatura mínima	17.2
143776	7	Sololá	701	Sololá	4	Finca Santa Victoria	11	Noviembre	2023-11-22T00:00:00	2024-11-08T13:00:00	5	Humedad	72
143777	7	Sololá	701	Sololá	4	Finca Santa Victoria	11	Noviembre	2023-11-22T00:00:00	2024-11-08T13:00:00	6	Velocidad del viento	4.8
143778	7	Sololá	701	Sololá	4	Finca Santa Victoria	11	Noviembre	2023-11-22T00:00:00	2024-11-08T13:00:00	7	Dirección del viento	4.83
143779	7	Sololá	701	Sololá	4	Finca Santa Victoria	11	Noviembre	2023-11-22T00:00:00	2024-11-08T13:00:00	1	Precipitación	0
143780	7	Sololá	701	Sololá	4	Finca Santa Victoria	11	Noviembre	2023-11-22T00:00:00	2024-11-08T13:00:00	8	Radiación solar	333
143781	7	Sololá	701	Sololá	4	Finca Santa Victoria	11	Noviembre	2023-11-22T00:00:00	2024-11-08T14:00:00	2	Temperatura media	18
143782	7	Sololá	701	Sololá	4	Finca Santa Victoria	11	Noviembre	2023-11-22T00:00:00	2024-11-08T14:00:00	4	Temperatura máxima	18.2
143783	7	Sololá	701	Sololá	4	Finca Santa Victoria	11	Noviembre	2023-11-22T00:00:00	2024-11-08T14:00:00	3	Temperatura mínima	17.7
143784	7	Sololá	701	Sololá	4	Finca Santa Victoria	11	Noviembre	2023-11-22T00:00:00	2024-11-08T14:00:00	5	Humedad	74
143785	7	Sololá	701	Sololá	4	Finca Santa Victoria	11	Noviembre	2023-11-22T00:00:00	2024-11-08T14:00:00	6	Velocidad del viento	3.2
143786	7	Sololá	701	Sololá	4	Finca Santa Victoria	11	Noviembre	2023-11-22T00:00:00	2024-11-08T14:00:00	7	Dirección del viento	3.22
143787	7	Sololá	701	Sololá	4	Finca Santa Victoria	11	Noviembre	2023-11-22T00:00:00	2024-11-08T14:00:00	1	Precipitación	0
143788	7	Sololá	701	Sololá	4	Finca Santa Victoria	11	Noviembre	2023-11-22T00:00:00	2024-11-08T14:00:00	8	Radiación solar	218
143789	7	Sololá	701	Sololá	4	Finca Santa Victoria	11	Noviembre	2023-11-22T00:00:00	2024-11-08T15:00:00	2	Temperatura media	16.7
143790	7	Sololá	701	Sololá	4	Finca Santa Victoria	11	Noviembre	2023-11-22T00:00:00	2024-11-08T15:00:00	4	Temperatura máxima	18.1
143791	7	Sololá	701	Sololá	4	Finca Santa Victoria	11	Noviembre	2023-11-22T00:00:00	2024-11-08T15:00:00	3	Temperatura mínima	16.7
143792	7	Sololá	701	Sololá	4	Finca Santa Victoria	11	Noviembre	2023-11-22T00:00:00	2024-11-08T15:00:00	5	Humedad	78
143793	7	Sololá	701	Sololá	4	Finca Santa Victoria	11	Noviembre	2023-11-22T00:00:00	2024-11-08T15:00:00	6	Velocidad del viento	4.8
143794	7	Sololá	701	Sololá	4	Finca Santa Victoria	11	Noviembre	2023-11-22T00:00:00	2024-11-08T15:00:00	7	Dirección del viento	4.83
143795	7	Sololá	701	Sololá	4	Finca Santa Victoria	11	Noviembre	2023-11-22T00:00:00	2024-11-08T15:00:00	1	Precipitación	0
143796	7	Sololá	701	Sololá	4	Finca Santa Victoria	11	Noviembre	2023-11-22T00:00:00	2024-11-08T15:00:00	8	Radiación solar	148
143797	7	Sololá	701	Sololá	4	Finca Santa Victoria	11	Noviembre	2023-11-22T00:00:00	2024-11-08T16:00:00	2	Temperatura media	16.7
143798	7	Sololá	701	Sololá	4	Finca Santa Victoria	11	Noviembre	2023-11-22T00:00:00	2024-11-08T16:00:00	4	Temperatura máxima	16.8
143799	7	Sololá	701	Sololá	4	Finca Santa Victoria	11	Noviembre	2023-11-22T00:00:00	2024-11-08T16:00:00	3	Temperatura mínima	16.1
143800	7	Sololá	701	Sololá	4	Finca Santa Victoria	11	Noviembre	2023-11-22T00:00:00	2024-11-08T16:00:00	5	Humedad	77
143801	7	Sololá	701	Sololá	4	Finca Santa Victoria	11	Noviembre	2023-11-22T00:00:00	2024-11-08T16:00:00	6	Velocidad del viento	4.8
143802	7	Sololá	701	Sololá	4	Finca Santa Victoria	11	Noviembre	2023-11-22T00:00:00	2024-11-08T16:00:00	7	Dirección del viento	4.83
143803	7	Sololá	701	Sololá	4	Finca Santa Victoria	11	Noviembre	2023-11-22T00:00:00	2024-11-08T16:00:00	1	Precipitación	0
143804	7	Sololá	701	Sololá	4	Finca Santa Victoria	11	Noviembre	2023-11-22T00:00:00	2024-11-08T16:00:00	8	Radiación solar	156
143805	7	Sololá	701	Sololá	4	Finca Santa Victoria	11	Noviembre	2023-11-22T00:00:00	2024-11-08T17:00:00	2	Temperatura media	14.9
143806	7	Sololá	701	Sololá	4	Finca Santa Victoria	11	Noviembre	2023-11-22T00:00:00	2024-11-08T17:00:00	4	Temperatura máxima	16.8
143807	7	Sololá	701	Sololá	4	Finca Santa Victoria	11	Noviembre	2023-11-22T00:00:00	2024-11-08T17:00:00	3	Temperatura mínima	14.9
143808	7	Sololá	701	Sololá	4	Finca Santa Victoria	11	Noviembre	2023-11-22T00:00:00	2024-11-08T17:00:00	5	Humedad	84
143809	7	Sololá	701	Sololá	4	Finca Santa Victoria	11	Noviembre	2023-11-22T00:00:00	2024-11-08T17:00:00	6	Velocidad del viento	4.8
143810	7	Sololá	701	Sololá	4	Finca Santa Victoria	11	Noviembre	2023-11-22T00:00:00	2024-11-08T17:00:00	7	Dirección del viento	4.83
143811	7	Sololá	701	Sololá	4	Finca Santa Victoria	11	Noviembre	2023-11-22T00:00:00	2024-11-08T17:00:00	1	Precipitación	0
143812	7	Sololá	701	Sololá	4	Finca Santa Victoria	11	Noviembre	2023-11-22T00:00:00	2024-11-08T17:00:00	8	Radiación solar	74
143813	7	Sololá	701	Sololá	4	Finca Santa Victoria	11	Noviembre	2023-11-22T00:00:00	2024-11-08T18:00:00	2	Temperatura media	13.6
143814	7	Sololá	701	Sololá	4	Finca Santa Victoria	11	Noviembre	2023-11-22T00:00:00	2024-11-08T18:00:00	4	Temperatura máxima	14.9
143815	7	Sololá	701	Sololá	4	Finca Santa Victoria	11	Noviembre	2023-11-22T00:00:00	2024-11-08T18:00:00	3	Temperatura mínima	13.6
143816	7	Sololá	701	Sololá	4	Finca Santa Victoria	11	Noviembre	2023-11-22T00:00:00	2024-11-08T18:00:00	5	Humedad	90
143817	7	Sololá	701	Sololá	4	Finca Santa Victoria	11	Noviembre	2023-11-22T00:00:00	2024-11-08T18:00:00	6	Velocidad del viento	4.8
143818	7	Sololá	701	Sololá	4	Finca Santa Victoria	11	Noviembre	2023-11-22T00:00:00	2024-11-08T18:00:00	7	Dirección del viento	4.83
143819	7	Sololá	701	Sololá	4	Finca Santa Victoria	11	Noviembre	2023-11-22T00:00:00	2024-11-08T18:00:00	1	Precipitación	0
143820	7	Sololá	701	Sololá	4	Finca Santa Victoria	11	Noviembre	2023-11-22T00:00:00	2024-11-08T18:00:00	8	Radiación solar	10
143821	7	Sololá	701	Sololá	4	Finca Santa Victoria	11	Noviembre	2023-11-22T00:00:00	2024-11-08T19:00:00	2	Temperatura media	13.3
143822	7	Sololá	701	Sololá	4	Finca Santa Victoria	11	Noviembre	2023-11-22T00:00:00	2024-11-08T19:00:00	4	Temperatura máxima	13.6
143823	7	Sololá	701	Sololá	4	Finca Santa Victoria	11	Noviembre	2023-11-22T00:00:00	2024-11-08T19:00:00	3	Temperatura mínima	13.3
143824	7	Sololá	701	Sololá	4	Finca Santa Victoria	11	Noviembre	2023-11-22T00:00:00	2024-11-08T19:00:00	5	Humedad	91
143825	7	Sololá	701	Sololá	4	Finca Santa Victoria	11	Noviembre	2023-11-22T00:00:00	2024-11-08T19:00:00	6	Velocidad del viento	4.8
143826	7	Sololá	701	Sololá	4	Finca Santa Victoria	11	Noviembre	2023-11-22T00:00:00	2024-11-08T19:00:00	7	Dirección del viento	4.83
143827	7	Sololá	701	Sololá	4	Finca Santa Victoria	11	Noviembre	2023-11-22T00:00:00	2024-11-08T19:00:00	1	Precipitación	0
143828	7	Sololá	701	Sololá	4	Finca Santa Victoria	11	Noviembre	2023-11-22T00:00:00	2024-11-08T19:00:00	8	Radiación solar	0
143829	7	Sololá	701	Sololá	4	Finca Santa Victoria	11	Noviembre	2023-11-22T00:00:00	2024-11-08T20:00:00	2	Temperatura media	13.2
143830	7	Sololá	701	Sololá	4	Finca Santa Victoria	11	Noviembre	2023-11-22T00:00:00	2024-11-08T20:00:00	4	Temperatura máxima	13.3
143831	7	Sololá	701	Sololá	4	Finca Santa Victoria	11	Noviembre	2023-11-22T00:00:00	2024-11-08T20:00:00	3	Temperatura mínima	13.2
143832	7	Sololá	701	Sololá	4	Finca Santa Victoria	11	Noviembre	2023-11-22T00:00:00	2024-11-08T20:00:00	5	Humedad	91
143833	7	Sololá	701	Sololá	4	Finca Santa Victoria	11	Noviembre	2023-11-22T00:00:00	2024-11-08T20:00:00	6	Velocidad del viento	3.2
143834	7	Sololá	701	Sololá	4	Finca Santa Victoria	11	Noviembre	2023-11-22T00:00:00	2024-11-08T20:00:00	7	Dirección del viento	3.22
143835	7	Sololá	701	Sololá	4	Finca Santa Victoria	11	Noviembre	2023-11-22T00:00:00	2024-11-08T20:00:00	1	Precipitación	0
143836	7	Sololá	701	Sololá	4	Finca Santa Victoria	11	Noviembre	2023-11-22T00:00:00	2024-11-08T20:00:00	8	Radiación solar	0
143837	7	Sololá	701	Sololá	4	Finca Santa Victoria	11	Noviembre	2023-11-22T00:00:00	2024-11-08T21:00:00	2	Temperatura media	13.2
143838	7	Sololá	701	Sololá	4	Finca Santa Victoria	11	Noviembre	2023-11-22T00:00:00	2024-11-08T21:00:00	4	Temperatura máxima	13.3
143839	7	Sololá	701	Sololá	4	Finca Santa Victoria	11	Noviembre	2023-11-22T00:00:00	2024-11-08T21:00:00	3	Temperatura mínima	13.1
143840	7	Sololá	701	Sololá	4	Finca Santa Victoria	11	Noviembre	2023-11-22T00:00:00	2024-11-08T21:00:00	5	Humedad	91
143841	7	Sololá	701	Sololá	4	Finca Santa Victoria	11	Noviembre	2023-11-22T00:00:00	2024-11-08T21:00:00	6	Velocidad del viento	3.2
143842	7	Sololá	701	Sololá	4	Finca Santa Victoria	11	Noviembre	2023-11-22T00:00:00	2024-11-08T21:00:00	7	Dirección del viento	3.22
143843	7	Sololá	701	Sololá	4	Finca Santa Victoria	11	Noviembre	2023-11-22T00:00:00	2024-11-08T21:00:00	1	Precipitación	0
143844	7	Sololá	701	Sololá	4	Finca Santa Victoria	11	Noviembre	2023-11-22T00:00:00	2024-11-08T21:00:00	8	Radiación solar	0
143845	7	Sololá	701	Sololá	4	Finca Santa Victoria	11	Noviembre	2023-11-22T00:00:00	2024-11-08T22:00:00	2	Temperatura media	13.2
143846	7	Sololá	701	Sololá	4	Finca Santa Victoria	11	Noviembre	2023-11-22T00:00:00	2024-11-08T22:00:00	4	Temperatura máxima	13.4
143847	7	Sololá	701	Sololá	4	Finca Santa Victoria	11	Noviembre	2023-11-22T00:00:00	2024-11-08T22:00:00	3	Temperatura mínima	13.1
143848	7	Sololá	701	Sololá	4	Finca Santa Victoria	11	Noviembre	2023-11-22T00:00:00	2024-11-08T22:00:00	5	Humedad	88
143849	7	Sololá	701	Sololá	4	Finca Santa Victoria	11	Noviembre	2023-11-22T00:00:00	2024-11-08T22:00:00	6	Velocidad del viento	3.2
143850	7	Sololá	701	Sololá	4	Finca Santa Victoria	11	Noviembre	2023-11-22T00:00:00	2024-11-08T22:00:00	7	Dirección del viento	3.22
143851	7	Sololá	701	Sololá	4	Finca Santa Victoria	11	Noviembre	2023-11-22T00:00:00	2024-11-08T22:00:00	1	Precipitación	0
143852	7	Sololá	701	Sololá	4	Finca Santa Victoria	11	Noviembre	2023-11-22T00:00:00	2024-11-08T22:00:00	8	Radiación solar	0
143853	7	Sololá	701	Sololá	4	Finca Santa Victoria	11	Noviembre	2023-11-22T00:00:00	2024-11-08T23:00:00	2	Temperatura media	13.4
143854	7	Sololá	701	Sololá	4	Finca Santa Victoria	11	Noviembre	2023-11-22T00:00:00	2024-11-08T23:00:00	4	Temperatura máxima	13.6
143855	7	Sololá	701	Sololá	4	Finca Santa Victoria	11	Noviembre	2023-11-22T00:00:00	2024-11-08T23:00:00	3	Temperatura mínima	13.2
143856	7	Sololá	701	Sololá	4	Finca Santa Victoria	11	Noviembre	2023-11-22T00:00:00	2024-11-08T23:00:00	5	Humedad	87
143857	7	Sololá	701	Sololá	4	Finca Santa Victoria	11	Noviembre	2023-11-22T00:00:00	2024-11-08T23:00:00	6	Velocidad del viento	3.2
143858	7	Sololá	701	Sololá	4	Finca Santa Victoria	11	Noviembre	2023-11-22T00:00:00	2024-11-08T23:00:00	7	Dirección del viento	3.22
143859	7	Sololá	701	Sololá	4	Finca Santa Victoria	11	Noviembre	2023-11-22T00:00:00	2024-11-08T23:00:00	1	Precipitación	0
143860	7	Sololá	701	Sololá	4	Finca Santa Victoria	11	Noviembre	2023-11-22T00:00:00	2024-11-08T23:00:00	8	Radiación solar	0
143861	7	Sololá	701	Sololá	4	Finca Santa Victoria	11	Noviembre	2023-11-23T00:00:00	2024-11-08T00:00:00	2	Temperatura media	13.6
143862	7	Sololá	701	Sololá	4	Finca Santa Victoria	11	Noviembre	2023-11-23T00:00:00	2024-11-08T00:00:00	4	Temperatura máxima	13.7
143863	7	Sololá	701	Sololá	4	Finca Santa Victoria	11	Noviembre	2023-11-23T00:00:00	2024-11-08T00:00:00	3	Temperatura mínima	13.4
143864	7	Sololá	701	Sololá	4	Finca Santa Victoria	11	Noviembre	2023-11-23T00:00:00	2024-11-08T00:00:00	5	Humedad	86
143865	7	Sololá	701	Sololá	4	Finca Santa Victoria	11	Noviembre	2023-11-23T00:00:00	2024-11-08T00:00:00	6	Velocidad del viento	1.6
143866	7	Sololá	701	Sololá	4	Finca Santa Victoria	11	Noviembre	2023-11-23T00:00:00	2024-11-08T00:00:00	7	Dirección del viento	1.61
143867	7	Sololá	701	Sololá	4	Finca Santa Victoria	11	Noviembre	2023-11-23T00:00:00	2024-11-08T00:00:00	1	Precipitación	0
143868	7	Sololá	701	Sololá	4	Finca Santa Victoria	11	Noviembre	2023-11-23T00:00:00	2024-11-08T00:00:00	8	Radiación solar	0
143869	7	Sololá	701	Sololá	4	Finca Santa Victoria	11	Noviembre	2023-11-23T00:00:00	2024-11-08T01:00:00	2	Temperatura media	13
143870	7	Sololá	701	Sololá	4	Finca Santa Victoria	11	Noviembre	2023-11-23T00:00:00	2024-11-08T01:00:00	4	Temperatura máxima	13.7
143871	7	Sololá	701	Sololá	4	Finca Santa Victoria	11	Noviembre	2023-11-23T00:00:00	2024-11-08T01:00:00	3	Temperatura mínima	13
143872	7	Sololá	701	Sololá	4	Finca Santa Victoria	11	Noviembre	2023-11-23T00:00:00	2024-11-08T01:00:00	5	Humedad	87
143873	7	Sololá	701	Sololá	4	Finca Santa Victoria	11	Noviembre	2023-11-23T00:00:00	2024-11-08T01:00:00	6	Velocidad del viento	1.6
143874	7	Sololá	701	Sololá	4	Finca Santa Victoria	11	Noviembre	2023-11-23T00:00:00	2024-11-08T01:00:00	7	Dirección del viento	1.61
143875	7	Sololá	701	Sololá	4	Finca Santa Victoria	11	Noviembre	2023-11-23T00:00:00	2024-11-08T01:00:00	1	Precipitación	0
143876	7	Sololá	701	Sololá	4	Finca Santa Victoria	11	Noviembre	2023-11-23T00:00:00	2024-11-08T01:00:00	8	Radiación solar	0
143877	7	Sololá	701	Sololá	4	Finca Santa Victoria	11	Noviembre	2023-11-23T00:00:00	2024-11-08T02:00:00	2	Temperatura media	13.1
143878	7	Sololá	701	Sololá	4	Finca Santa Victoria	11	Noviembre	2023-11-23T00:00:00	2024-11-08T02:00:00	4	Temperatura máxima	13.2
143879	7	Sololá	701	Sololá	4	Finca Santa Victoria	11	Noviembre	2023-11-23T00:00:00	2024-11-08T02:00:00	3	Temperatura mínima	12.9
143880	7	Sololá	701	Sololá	4	Finca Santa Victoria	11	Noviembre	2023-11-23T00:00:00	2024-11-08T02:00:00	5	Humedad	88
143881	7	Sololá	701	Sololá	4	Finca Santa Victoria	11	Noviembre	2023-11-23T00:00:00	2024-11-08T02:00:00	6	Velocidad del viento	1.6
143882	7	Sololá	701	Sololá	4	Finca Santa Victoria	11	Noviembre	2023-11-23T00:00:00	2024-11-08T02:00:00	7	Dirección del viento	1.61
143883	7	Sololá	701	Sololá	4	Finca Santa Victoria	11	Noviembre	2023-11-23T00:00:00	2024-11-08T02:00:00	1	Precipitación	0
143884	7	Sololá	701	Sololá	4	Finca Santa Victoria	11	Noviembre	2023-11-23T00:00:00	2024-11-08T02:00:00	8	Radiación solar	0
143885	7	Sololá	701	Sololá	4	Finca Santa Victoria	11	Noviembre	2023-11-23T00:00:00	2024-11-08T03:00:00	2	Temperatura media	12.7
143886	7	Sololá	701	Sololá	4	Finca Santa Victoria	11	Noviembre	2023-11-23T00:00:00	2024-11-08T03:00:00	4	Temperatura máxima	13.1
143887	7	Sololá	701	Sololá	4	Finca Santa Victoria	11	Noviembre	2023-11-23T00:00:00	2024-11-08T03:00:00	3	Temperatura mínima	12.7
143888	7	Sololá	701	Sololá	4	Finca Santa Victoria	11	Noviembre	2023-11-23T00:00:00	2024-11-08T03:00:00	5	Humedad	89
143889	7	Sololá	701	Sololá	4	Finca Santa Victoria	11	Noviembre	2023-11-23T00:00:00	2024-11-08T03:00:00	6	Velocidad del viento	1.6
143890	7	Sololá	701	Sololá	4	Finca Santa Victoria	11	Noviembre	2023-11-23T00:00:00	2024-11-08T03:00:00	7	Dirección del viento	1.61
143891	7	Sololá	701	Sololá	4	Finca Santa Victoria	11	Noviembre	2023-11-23T00:00:00	2024-11-08T03:00:00	1	Precipitación	0
143892	7	Sololá	701	Sololá	4	Finca Santa Victoria	11	Noviembre	2023-11-23T00:00:00	2024-11-08T03:00:00	8	Radiación solar	0
143893	7	Sololá	701	Sololá	4	Finca Santa Victoria	11	Noviembre	2023-11-23T00:00:00	2024-11-08T04:00:00	2	Temperatura media	11.5
143894	7	Sololá	701	Sololá	4	Finca Santa Victoria	11	Noviembre	2023-11-23T00:00:00	2024-11-08T04:00:00	4	Temperatura máxima	12.7
143895	7	Sololá	701	Sololá	4	Finca Santa Victoria	11	Noviembre	2023-11-23T00:00:00	2024-11-08T04:00:00	3	Temperatura mínima	11.4
143896	7	Sololá	701	Sololá	4	Finca Santa Victoria	11	Noviembre	2023-11-23T00:00:00	2024-11-08T04:00:00	5	Humedad	93
143897	7	Sololá	701	Sololá	4	Finca Santa Victoria	11	Noviembre	2023-11-23T00:00:00	2024-11-08T04:00:00	6	Velocidad del viento	0
143898	7	Sololá	701	Sololá	4	Finca Santa Victoria	11	Noviembre	2023-11-23T00:00:00	2024-11-08T04:00:00	7	Dirección del viento	0
143899	7	Sololá	701	Sololá	4	Finca Santa Victoria	11	Noviembre	2023-11-23T00:00:00	2024-11-08T04:00:00	1	Precipitación	0
143900	7	Sololá	701	Sololá	4	Finca Santa Victoria	11	Noviembre	2023-11-23T00:00:00	2024-11-08T04:00:00	8	Radiación solar	0
143901	7	Sololá	701	Sololá	4	Finca Santa Victoria	11	Noviembre	2023-11-23T00:00:00	2024-11-08T05:00:00	2	Temperatura media	11.9
143902	7	Sololá	701	Sololá	4	Finca Santa Victoria	11	Noviembre	2023-11-23T00:00:00	2024-11-08T05:00:00	4	Temperatura máxima	11.9
143903	7	Sololá	701	Sololá	4	Finca Santa Victoria	11	Noviembre	2023-11-23T00:00:00	2024-11-08T05:00:00	3	Temperatura mínima	11.4
143904	7	Sololá	701	Sololá	4	Finca Santa Victoria	11	Noviembre	2023-11-23T00:00:00	2024-11-08T05:00:00	5	Humedad	91
143905	7	Sololá	701	Sololá	4	Finca Santa Victoria	11	Noviembre	2023-11-23T00:00:00	2024-11-08T05:00:00	6	Velocidad del viento	1.6
143906	7	Sololá	701	Sololá	4	Finca Santa Victoria	11	Noviembre	2023-11-23T00:00:00	2024-11-08T05:00:00	7	Dirección del viento	1.61
143907	7	Sololá	701	Sololá	4	Finca Santa Victoria	11	Noviembre	2023-11-23T00:00:00	2024-11-08T05:00:00	1	Precipitación	0
143908	7	Sololá	701	Sololá	4	Finca Santa Victoria	11	Noviembre	2023-11-23T00:00:00	2024-11-08T05:00:00	8	Radiación solar	0
143909	7	Sololá	701	Sololá	4	Finca Santa Victoria	11	Noviembre	2023-11-23T00:00:00	2024-11-08T06:00:00	2	Temperatura media	11.6
143910	7	Sololá	701	Sololá	4	Finca Santa Victoria	11	Noviembre	2023-11-23T00:00:00	2024-11-08T06:00:00	4	Temperatura máxima	11.9
143911	7	Sololá	701	Sololá	4	Finca Santa Victoria	11	Noviembre	2023-11-23T00:00:00	2024-11-08T06:00:00	3	Temperatura mínima	11.5
143912	7	Sololá	701	Sololá	4	Finca Santa Victoria	11	Noviembre	2023-11-23T00:00:00	2024-11-08T06:00:00	5	Humedad	93
143913	7	Sololá	701	Sololá	4	Finca Santa Victoria	11	Noviembre	2023-11-23T00:00:00	2024-11-08T06:00:00	6	Velocidad del viento	1.6
143914	7	Sololá	701	Sololá	4	Finca Santa Victoria	11	Noviembre	2023-11-23T00:00:00	2024-11-08T06:00:00	7	Dirección del viento	1.61
143915	7	Sololá	701	Sololá	4	Finca Santa Victoria	11	Noviembre	2023-11-23T00:00:00	2024-11-08T06:00:00	1	Precipitación	0
143916	7	Sololá	701	Sololá	4	Finca Santa Victoria	11	Noviembre	2023-11-23T00:00:00	2024-11-08T06:00:00	8	Radiación solar	0
143917	7	Sololá	701	Sololá	4	Finca Santa Victoria	11	Noviembre	2023-11-23T00:00:00	2024-11-08T07:00:00	2	Temperatura media	11.9
143918	7	Sololá	701	Sololá	4	Finca Santa Victoria	11	Noviembre	2023-11-23T00:00:00	2024-11-08T07:00:00	4	Temperatura máxima	11.9
143919	7	Sololá	701	Sololá	4	Finca Santa Victoria	11	Noviembre	2023-11-23T00:00:00	2024-11-08T07:00:00	3	Temperatura mínima	11.4
143920	7	Sololá	701	Sololá	4	Finca Santa Victoria	11	Noviembre	2023-11-23T00:00:00	2024-11-08T07:00:00	5	Humedad	94
143921	7	Sololá	701	Sololá	4	Finca Santa Victoria	11	Noviembre	2023-11-23T00:00:00	2024-11-08T07:00:00	6	Velocidad del viento	1.6
143922	7	Sololá	701	Sololá	4	Finca Santa Victoria	11	Noviembre	2023-11-23T00:00:00	2024-11-08T07:00:00	7	Dirección del viento	1.61
143923	7	Sololá	701	Sololá	4	Finca Santa Victoria	11	Noviembre	2023-11-23T00:00:00	2024-11-08T07:00:00	1	Precipitación	0
143924	7	Sololá	701	Sololá	4	Finca Santa Victoria	11	Noviembre	2023-11-23T00:00:00	2024-11-08T07:00:00	8	Radiación solar	14
143925	7	Sololá	701	Sololá	4	Finca Santa Victoria	11	Noviembre	2023-11-23T00:00:00	2024-11-08T08:00:00	2	Temperatura media	13.6
143926	7	Sololá	701	Sololá	4	Finca Santa Victoria	11	Noviembre	2023-11-23T00:00:00	2024-11-08T08:00:00	4	Temperatura máxima	13.6
143927	7	Sololá	701	Sololá	4	Finca Santa Victoria	11	Noviembre	2023-11-23T00:00:00	2024-11-08T08:00:00	3	Temperatura mínima	11.9
143928	7	Sololá	701	Sololá	4	Finca Santa Victoria	11	Noviembre	2023-11-23T00:00:00	2024-11-08T08:00:00	5	Humedad	90
143929	7	Sololá	701	Sololá	4	Finca Santa Victoria	11	Noviembre	2023-11-23T00:00:00	2024-11-08T08:00:00	6	Velocidad del viento	3.2
143930	7	Sololá	701	Sololá	4	Finca Santa Victoria	11	Noviembre	2023-11-23T00:00:00	2024-11-08T08:00:00	7	Dirección del viento	3.22
143931	7	Sololá	701	Sololá	4	Finca Santa Victoria	11	Noviembre	2023-11-23T00:00:00	2024-11-08T08:00:00	1	Precipitación	0
143932	7	Sololá	701	Sololá	4	Finca Santa Victoria	11	Noviembre	2023-11-23T00:00:00	2024-11-08T08:00:00	8	Radiación solar	56
143933	7	Sololá	701	Sololá	4	Finca Santa Victoria	11	Noviembre	2023-11-23T00:00:00	2024-11-08T09:00:00	2	Temperatura media	16.2
143934	7	Sololá	701	Sololá	4	Finca Santa Victoria	11	Noviembre	2023-11-23T00:00:00	2024-11-08T09:00:00	4	Temperatura máxima	16.2
143935	7	Sololá	701	Sololá	4	Finca Santa Victoria	11	Noviembre	2023-11-23T00:00:00	2024-11-08T09:00:00	3	Temperatura mínima	13.6
143936	7	Sololá	701	Sololá	4	Finca Santa Victoria	11	Noviembre	2023-11-23T00:00:00	2024-11-08T09:00:00	5	Humedad	82
143937	7	Sololá	701	Sololá	4	Finca Santa Victoria	11	Noviembre	2023-11-23T00:00:00	2024-11-08T09:00:00	6	Velocidad del viento	1.6
143938	7	Sololá	701	Sololá	4	Finca Santa Victoria	11	Noviembre	2023-11-23T00:00:00	2024-11-08T09:00:00	7	Dirección del viento	1.61
143939	7	Sololá	701	Sololá	4	Finca Santa Victoria	11	Noviembre	2023-11-23T00:00:00	2024-11-08T09:00:00	1	Precipitación	0
143940	7	Sololá	701	Sololá	4	Finca Santa Victoria	11	Noviembre	2023-11-23T00:00:00	2024-11-08T09:00:00	8	Radiación solar	133
143941	7	Sololá	701	Sololá	4	Finca Santa Victoria	11	Noviembre	2023-11-23T00:00:00	2024-11-08T10:00:00	2	Temperatura media	17.3
143942	7	Sololá	701	Sololá	4	Finca Santa Victoria	11	Noviembre	2023-11-23T00:00:00	2024-11-08T10:00:00	4	Temperatura máxima	17.3
143943	7	Sololá	701	Sololá	4	Finca Santa Victoria	11	Noviembre	2023-11-23T00:00:00	2024-11-08T10:00:00	3	Temperatura mínima	16.2
143944	7	Sololá	701	Sololá	4	Finca Santa Victoria	11	Noviembre	2023-11-23T00:00:00	2024-11-08T10:00:00	5	Humedad	78
143945	7	Sololá	701	Sololá	4	Finca Santa Victoria	11	Noviembre	2023-11-23T00:00:00	2024-11-08T10:00:00	6	Velocidad del viento	1.6
143946	7	Sololá	701	Sololá	4	Finca Santa Victoria	11	Noviembre	2023-11-23T00:00:00	2024-11-08T10:00:00	7	Dirección del viento	1.61
143947	7	Sololá	701	Sololá	4	Finca Santa Victoria	11	Noviembre	2023-11-23T00:00:00	2024-11-08T10:00:00	1	Precipitación	0
143948	7	Sololá	701	Sololá	4	Finca Santa Victoria	11	Noviembre	2023-11-23T00:00:00	2024-11-08T10:00:00	8	Radiación solar	411
143949	7	Sololá	701	Sololá	4	Finca Santa Victoria	11	Noviembre	2023-11-23T00:00:00	2024-11-08T11:00:00	2	Temperatura media	19.4
143950	7	Sololá	701	Sololá	4	Finca Santa Victoria	11	Noviembre	2023-11-23T00:00:00	2024-11-08T11:00:00	4	Temperatura máxima	19.5
143951	7	Sololá	701	Sololá	4	Finca Santa Victoria	11	Noviembre	2023-11-23T00:00:00	2024-11-08T11:00:00	3	Temperatura mínima	17.2
143952	7	Sololá	701	Sololá	4	Finca Santa Victoria	11	Noviembre	2023-11-23T00:00:00	2024-11-08T11:00:00	5	Humedad	68
143953	7	Sololá	701	Sololá	4	Finca Santa Victoria	11	Noviembre	2023-11-23T00:00:00	2024-11-08T11:00:00	6	Velocidad del viento	3.2
143954	7	Sololá	701	Sololá	4	Finca Santa Victoria	11	Noviembre	2023-11-23T00:00:00	2024-11-08T11:00:00	7	Dirección del viento	3.22
143955	7	Sololá	701	Sololá	4	Finca Santa Victoria	11	Noviembre	2023-11-23T00:00:00	2024-11-08T11:00:00	1	Precipitación	0
143956	7	Sololá	701	Sololá	4	Finca Santa Victoria	11	Noviembre	2023-11-23T00:00:00	2024-11-08T11:00:00	8	Radiación solar	627
143957	7	Sololá	701	Sololá	4	Finca Santa Victoria	11	Noviembre	2023-11-23T00:00:00	2024-11-08T12:00:00	2	Temperatura media	20.2
143958	7	Sololá	701	Sololá	4	Finca Santa Victoria	11	Noviembre	2023-11-23T00:00:00	2024-11-08T12:00:00	4	Temperatura máxima	20.2
143959	7	Sololá	701	Sololá	4	Finca Santa Victoria	11	Noviembre	2023-11-23T00:00:00	2024-11-08T12:00:00	3	Temperatura mínima	19.3
143960	7	Sololá	701	Sololá	4	Finca Santa Victoria	11	Noviembre	2023-11-23T00:00:00	2024-11-08T12:00:00	5	Humedad	75
143961	7	Sololá	701	Sololá	4	Finca Santa Victoria	11	Noviembre	2023-11-23T00:00:00	2024-11-08T12:00:00	6	Velocidad del viento	4.8
143962	7	Sololá	701	Sololá	4	Finca Santa Victoria	11	Noviembre	2023-11-23T00:00:00	2024-11-08T12:00:00	7	Dirección del viento	4.83
143963	7	Sololá	701	Sololá	4	Finca Santa Victoria	11	Noviembre	2023-11-23T00:00:00	2024-11-08T12:00:00	1	Precipitación	0
143964	7	Sololá	701	Sololá	4	Finca Santa Victoria	11	Noviembre	2023-11-23T00:00:00	2024-11-08T12:00:00	8	Radiación solar	970
143965	7	Sololá	701	Sololá	4	Finca Santa Victoria	11	Noviembre	2023-11-23T00:00:00	2024-11-08T13:00:00	2	Temperatura media	19.8
143966	7	Sololá	701	Sololá	4	Finca Santa Victoria	11	Noviembre	2023-11-23T00:00:00	2024-11-08T13:00:00	4	Temperatura máxima	20.4
143967	7	Sololá	701	Sololá	4	Finca Santa Victoria	11	Noviembre	2023-11-23T00:00:00	2024-11-08T13:00:00	3	Temperatura mínima	18.3
143968	7	Sololá	701	Sololá	4	Finca Santa Victoria	11	Noviembre	2023-11-23T00:00:00	2024-11-08T13:00:00	5	Humedad	79
143969	7	Sololá	701	Sololá	4	Finca Santa Victoria	11	Noviembre	2023-11-23T00:00:00	2024-11-08T13:00:00	6	Velocidad del viento	3.2
143970	7	Sololá	701	Sololá	4	Finca Santa Victoria	11	Noviembre	2023-11-23T00:00:00	2024-11-08T13:00:00	7	Dirección del viento	3.22
143971	7	Sololá	701	Sololá	4	Finca Santa Victoria	11	Noviembre	2023-11-23T00:00:00	2024-11-08T13:00:00	1	Precipitación	0
143972	7	Sololá	701	Sololá	4	Finca Santa Victoria	11	Noviembre	2023-11-23T00:00:00	2024-11-08T13:00:00	8	Radiación solar	665
143973	7	Sololá	701	Sololá	4	Finca Santa Victoria	11	Noviembre	2023-11-23T00:00:00	2024-11-08T14:00:00	2	Temperatura media	17.9
143974	7	Sololá	701	Sololá	4	Finca Santa Victoria	11	Noviembre	2023-11-23T00:00:00	2024-11-08T14:00:00	4	Temperatura máxima	20.3
143975	7	Sololá	701	Sololá	4	Finca Santa Victoria	11	Noviembre	2023-11-23T00:00:00	2024-11-08T14:00:00	3	Temperatura mínima	17.8
143976	7	Sololá	701	Sololá	4	Finca Santa Victoria	11	Noviembre	2023-11-23T00:00:00	2024-11-08T14:00:00	5	Humedad	87
143977	7	Sololá	701	Sololá	4	Finca Santa Victoria	11	Noviembre	2023-11-23T00:00:00	2024-11-08T14:00:00	6	Velocidad del viento	3.2
143978	7	Sololá	701	Sololá	4	Finca Santa Victoria	11	Noviembre	2023-11-23T00:00:00	2024-11-08T14:00:00	7	Dirección del viento	3.22
143979	7	Sololá	701	Sololá	4	Finca Santa Victoria	11	Noviembre	2023-11-23T00:00:00	2024-11-08T14:00:00	1	Precipitación	0
143980	7	Sololá	701	Sololá	4	Finca Santa Victoria	11	Noviembre	2023-11-23T00:00:00	2024-11-08T14:00:00	8	Radiación solar	300
143981	7	Sololá	701	Sololá	4	Finca Santa Victoria	11	Noviembre	2023-11-23T00:00:00	2024-11-08T15:00:00	2	Temperatura media	17
143982	7	Sololá	701	Sololá	4	Finca Santa Victoria	11	Noviembre	2023-11-23T00:00:00	2024-11-08T15:00:00	4	Temperatura máxima	17.9
143983	7	Sololá	701	Sololá	4	Finca Santa Victoria	11	Noviembre	2023-11-23T00:00:00	2024-11-08T15:00:00	3	Temperatura mínima	16.9
143984	7	Sololá	701	Sololá	4	Finca Santa Victoria	11	Noviembre	2023-11-23T00:00:00	2024-11-08T15:00:00	5	Humedad	89
143985	7	Sololá	701	Sololá	4	Finca Santa Victoria	11	Noviembre	2023-11-23T00:00:00	2024-11-08T15:00:00	6	Velocidad del viento	1.6
143986	7	Sololá	701	Sololá	4	Finca Santa Victoria	11	Noviembre	2023-11-23T00:00:00	2024-11-08T15:00:00	7	Dirección del viento	1.61
143987	7	Sololá	701	Sololá	4	Finca Santa Victoria	11	Noviembre	2023-11-23T00:00:00	2024-11-08T15:00:00	1	Precipitación	0
143988	7	Sololá	701	Sololá	4	Finca Santa Victoria	11	Noviembre	2023-11-23T00:00:00	2024-11-08T15:00:00	8	Radiación solar	115
143989	7	Sololá	701	Sololá	4	Finca Santa Victoria	11	Noviembre	2023-11-23T00:00:00	2024-11-08T16:00:00	2	Temperatura media	16.4
143990	7	Sololá	701	Sololá	4	Finca Santa Victoria	11	Noviembre	2023-11-23T00:00:00	2024-11-08T16:00:00	4	Temperatura máxima	17
143991	7	Sololá	701	Sololá	4	Finca Santa Victoria	11	Noviembre	2023-11-23T00:00:00	2024-11-08T16:00:00	3	Temperatura mínima	16.3
143992	7	Sololá	701	Sololá	4	Finca Santa Victoria	11	Noviembre	2023-11-23T00:00:00	2024-11-08T16:00:00	5	Humedad	92
143993	7	Sololá	701	Sololá	4	Finca Santa Victoria	11	Noviembre	2023-11-23T00:00:00	2024-11-08T16:00:00	6	Velocidad del viento	1.6
143994	7	Sololá	701	Sololá	4	Finca Santa Victoria	11	Noviembre	2023-11-23T00:00:00	2024-11-08T16:00:00	7	Dirección del viento	1.61
143995	7	Sololá	701	Sololá	4	Finca Santa Victoria	11	Noviembre	2023-11-23T00:00:00	2024-11-08T16:00:00	1	Precipitación	0
143996	7	Sololá	701	Sololá	4	Finca Santa Victoria	11	Noviembre	2023-11-23T00:00:00	2024-11-08T16:00:00	8	Radiación solar	67
143997	7	Sololá	701	Sololá	4	Finca Santa Victoria	11	Noviembre	2023-11-23T00:00:00	2024-11-08T17:00:00	2	Temperatura media	15.4
143998	7	Sololá	701	Sololá	4	Finca Santa Victoria	11	Noviembre	2023-11-23T00:00:00	2024-11-08T17:00:00	4	Temperatura máxima	16.5
143999	7	Sololá	701	Sololá	4	Finca Santa Victoria	11	Noviembre	2023-11-23T00:00:00	2024-11-08T17:00:00	3	Temperatura mínima	15.4
144000	7	Sololá	701	Sololá	4	Finca Santa Victoria	11	Noviembre	2023-11-23T00:00:00	2024-11-08T17:00:00	5	Humedad	96
144001	7	Sololá	701	Sololá	4	Finca Santa Victoria	11	Noviembre	2023-11-23T00:00:00	2024-11-08T17:00:00	6	Velocidad del viento	1.6
144002	7	Sololá	701	Sololá	4	Finca Santa Victoria	11	Noviembre	2023-11-23T00:00:00	2024-11-08T17:00:00	7	Dirección del viento	1.61
144003	7	Sololá	701	Sololá	4	Finca Santa Victoria	11	Noviembre	2023-11-23T00:00:00	2024-11-08T17:00:00	1	Precipitación	0
144004	7	Sololá	701	Sololá	4	Finca Santa Victoria	11	Noviembre	2023-11-23T00:00:00	2024-11-08T17:00:00	8	Radiación solar	32
144005	7	Sololá	701	Sololá	4	Finca Santa Victoria	11	Noviembre	2023-11-23T00:00:00	2024-11-08T18:00:00	2	Temperatura media	14.4
144006	7	Sololá	701	Sololá	4	Finca Santa Victoria	11	Noviembre	2023-11-23T00:00:00	2024-11-08T18:00:00	4	Temperatura máxima	15.4
144007	7	Sololá	701	Sololá	4	Finca Santa Victoria	11	Noviembre	2023-11-23T00:00:00	2024-11-08T18:00:00	3	Temperatura mínima	14.4
144008	7	Sololá	701	Sololá	4	Finca Santa Victoria	11	Noviembre	2023-11-23T00:00:00	2024-11-08T18:00:00	5	Humedad	94
144009	7	Sololá	701	Sololá	4	Finca Santa Victoria	11	Noviembre	2023-11-23T00:00:00	2024-11-08T18:00:00	6	Velocidad del viento	1.6
144010	7	Sololá	701	Sololá	4	Finca Santa Victoria	11	Noviembre	2023-11-23T00:00:00	2024-11-08T18:00:00	7	Dirección del viento	1.61
144011	7	Sololá	701	Sololá	4	Finca Santa Victoria	11	Noviembre	2023-11-23T00:00:00	2024-11-08T18:00:00	1	Precipitación	0
144012	7	Sololá	701	Sololá	4	Finca Santa Victoria	11	Noviembre	2023-11-23T00:00:00	2024-11-08T18:00:00	8	Radiación solar	2
144013	7	Sololá	701	Sololá	4	Finca Santa Victoria	11	Noviembre	2023-11-23T00:00:00	2024-11-08T19:00:00	2	Temperatura media	13.3
144014	7	Sololá	701	Sololá	4	Finca Santa Victoria	11	Noviembre	2023-11-23T00:00:00	2024-11-08T19:00:00	4	Temperatura máxima	14.4
144015	7	Sololá	701	Sololá	4	Finca Santa Victoria	11	Noviembre	2023-11-23T00:00:00	2024-11-08T19:00:00	3	Temperatura mínima	13.3
144016	7	Sololá	701	Sololá	4	Finca Santa Victoria	11	Noviembre	2023-11-23T00:00:00	2024-11-08T19:00:00	5	Humedad	94
144017	7	Sololá	701	Sololá	4	Finca Santa Victoria	11	Noviembre	2023-11-23T00:00:00	2024-11-08T19:00:00	6	Velocidad del viento	0
144018	7	Sololá	701	Sololá	4	Finca Santa Victoria	11	Noviembre	2023-11-23T00:00:00	2024-11-08T19:00:00	7	Dirección del viento	0
144019	7	Sololá	701	Sololá	4	Finca Santa Victoria	11	Noviembre	2023-11-23T00:00:00	2024-11-08T19:00:00	1	Precipitación	0
144020	7	Sololá	701	Sololá	4	Finca Santa Victoria	11	Noviembre	2023-11-23T00:00:00	2024-11-08T19:00:00	8	Radiación solar	0
144021	7	Sololá	701	Sololá	4	Finca Santa Victoria	11	Noviembre	2023-11-23T00:00:00	2024-11-08T20:00:00	2	Temperatura media	12.8
144022	7	Sololá	701	Sololá	4	Finca Santa Victoria	11	Noviembre	2023-11-23T00:00:00	2024-11-08T20:00:00	4	Temperatura máxima	13.3
144023	7	Sololá	701	Sololá	4	Finca Santa Victoria	11	Noviembre	2023-11-23T00:00:00	2024-11-08T20:00:00	3	Temperatura mínima	12.8
144024	7	Sololá	701	Sololá	4	Finca Santa Victoria	11	Noviembre	2023-11-23T00:00:00	2024-11-08T20:00:00	5	Humedad	94
144025	7	Sololá	701	Sololá	4	Finca Santa Victoria	11	Noviembre	2023-11-23T00:00:00	2024-11-08T20:00:00	6	Velocidad del viento	1.6
144026	7	Sololá	701	Sololá	4	Finca Santa Victoria	11	Noviembre	2023-11-23T00:00:00	2024-11-08T20:00:00	7	Dirección del viento	1.61
144027	7	Sololá	701	Sololá	4	Finca Santa Victoria	11	Noviembre	2023-11-23T00:00:00	2024-11-08T20:00:00	1	Precipitación	0
144028	7	Sololá	701	Sololá	4	Finca Santa Victoria	11	Noviembre	2023-11-23T00:00:00	2024-11-08T20:00:00	8	Radiación solar	0
144029	7	Sololá	701	Sololá	4	Finca Santa Victoria	11	Noviembre	2023-11-23T00:00:00	2024-11-08T21:00:00	2	Temperatura media	12.2
144030	7	Sololá	701	Sololá	4	Finca Santa Victoria	11	Noviembre	2023-11-23T00:00:00	2024-11-08T21:00:00	4	Temperatura máxima	12.9
144031	7	Sololá	701	Sololá	4	Finca Santa Victoria	11	Noviembre	2023-11-23T00:00:00	2024-11-08T21:00:00	3	Temperatura mínima	12.1
144032	7	Sololá	701	Sololá	4	Finca Santa Victoria	11	Noviembre	2023-11-23T00:00:00	2024-11-08T21:00:00	5	Humedad	95
144033	7	Sololá	701	Sololá	4	Finca Santa Victoria	11	Noviembre	2023-11-23T00:00:00	2024-11-08T21:00:00	6	Velocidad del viento	1.6
144034	7	Sololá	701	Sololá	4	Finca Santa Victoria	11	Noviembre	2023-11-23T00:00:00	2024-11-08T21:00:00	7	Dirección del viento	1.61
144035	7	Sololá	701	Sololá	4	Finca Santa Victoria	11	Noviembre	2023-11-23T00:00:00	2024-11-08T21:00:00	1	Precipitación	0
144036	7	Sololá	701	Sololá	4	Finca Santa Victoria	11	Noviembre	2023-11-23T00:00:00	2024-11-08T21:00:00	8	Radiación solar	0
144037	7	Sololá	701	Sololá	4	Finca Santa Victoria	11	Noviembre	2023-11-23T00:00:00	2024-11-08T22:00:00	2	Temperatura media	11.7
144038	7	Sololá	701	Sololá	4	Finca Santa Victoria	11	Noviembre	2023-11-23T00:00:00	2024-11-08T22:00:00	4	Temperatura máxima	12.1
144039	7	Sololá	701	Sololá	4	Finca Santa Victoria	11	Noviembre	2023-11-23T00:00:00	2024-11-08T22:00:00	3	Temperatura mínima	11.7
144040	7	Sololá	701	Sololá	4	Finca Santa Victoria	11	Noviembre	2023-11-23T00:00:00	2024-11-08T22:00:00	5	Humedad	96
144041	7	Sololá	701	Sololá	4	Finca Santa Victoria	11	Noviembre	2023-11-23T00:00:00	2024-11-08T22:00:00	6	Velocidad del viento	1.6
144042	7	Sololá	701	Sololá	4	Finca Santa Victoria	11	Noviembre	2023-11-23T00:00:00	2024-11-08T22:00:00	7	Dirección del viento	1.61
144043	7	Sololá	701	Sololá	4	Finca Santa Victoria	11	Noviembre	2023-11-23T00:00:00	2024-11-08T22:00:00	1	Precipitación	0
144044	7	Sololá	701	Sololá	4	Finca Santa Victoria	11	Noviembre	2023-11-23T00:00:00	2024-11-08T22:00:00	8	Radiación solar	0
144045	7	Sololá	701	Sololá	4	Finca Santa Victoria	11	Noviembre	2023-11-23T00:00:00	2024-11-08T23:00:00	2	Temperatura media	11.4
144046	7	Sololá	701	Sololá	4	Finca Santa Victoria	11	Noviembre	2023-11-23T00:00:00	2024-11-08T23:00:00	4	Temperatura máxima	11.8
144047	7	Sololá	701	Sololá	4	Finca Santa Victoria	11	Noviembre	2023-11-23T00:00:00	2024-11-08T23:00:00	3	Temperatura mínima	11.4
144048	7	Sololá	701	Sololá	4	Finca Santa Victoria	11	Noviembre	2023-11-23T00:00:00	2024-11-08T23:00:00	5	Humedad	96
144049	7	Sololá	701	Sololá	4	Finca Santa Victoria	11	Noviembre	2023-11-23T00:00:00	2024-11-08T23:00:00	6	Velocidad del viento	1.6
144050	7	Sololá	701	Sololá	4	Finca Santa Victoria	11	Noviembre	2023-11-23T00:00:00	2024-11-08T23:00:00	7	Dirección del viento	1.61
144051	7	Sololá	701	Sololá	4	Finca Santa Victoria	11	Noviembre	2023-11-23T00:00:00	2024-11-08T23:00:00	1	Precipitación	0
144052	7	Sololá	701	Sololá	4	Finca Santa Victoria	11	Noviembre	2023-11-23T00:00:00	2024-11-08T23:00:00	8	Radiación solar	0
144053	7	Sololá	701	Sololá	4	Finca Santa Victoria	11	Noviembre	2023-11-24T00:00:00	2024-11-08T00:00:00	2	Temperatura media	11.6
144054	7	Sololá	701	Sololá	4	Finca Santa Victoria	11	Noviembre	2023-11-24T00:00:00	2024-11-08T00:00:00	4	Temperatura máxima	11.6
144055	7	Sololá	701	Sololá	4	Finca Santa Victoria	11	Noviembre	2023-11-24T00:00:00	2024-11-08T00:00:00	3	Temperatura mínima	11.3
144056	7	Sololá	701	Sololá	4	Finca Santa Victoria	11	Noviembre	2023-11-24T00:00:00	2024-11-08T00:00:00	5	Humedad	95
144057	7	Sololá	701	Sololá	4	Finca Santa Victoria	11	Noviembre	2023-11-24T00:00:00	2024-11-08T00:00:00	6	Velocidad del viento	1.6
144058	7	Sololá	701	Sololá	4	Finca Santa Victoria	11	Noviembre	2023-11-24T00:00:00	2024-11-08T00:00:00	7	Dirección del viento	1.61
144059	7	Sololá	701	Sololá	4	Finca Santa Victoria	11	Noviembre	2023-11-24T00:00:00	2024-11-08T00:00:00	1	Precipitación	0
144060	7	Sololá	701	Sololá	4	Finca Santa Victoria	11	Noviembre	2023-11-24T00:00:00	2024-11-08T00:00:00	8	Radiación solar	0
144061	7	Sololá	701	Sololá	4	Finca Santa Victoria	11	Noviembre	2023-11-24T00:00:00	2024-11-08T01:00:00	2	Temperatura media	12.4
144062	7	Sololá	701	Sololá	4	Finca Santa Victoria	11	Noviembre	2023-11-24T00:00:00	2024-11-08T01:00:00	4	Temperatura máxima	12.4
144063	7	Sololá	701	Sololá	4	Finca Santa Victoria	11	Noviembre	2023-11-24T00:00:00	2024-11-08T01:00:00	3	Temperatura mínima	11.6
144064	7	Sololá	701	Sololá	4	Finca Santa Victoria	11	Noviembre	2023-11-24T00:00:00	2024-11-08T01:00:00	5	Humedad	92
144065	7	Sololá	701	Sololá	4	Finca Santa Victoria	11	Noviembre	2023-11-24T00:00:00	2024-11-08T01:00:00	6	Velocidad del viento	1.6
144066	7	Sololá	701	Sololá	4	Finca Santa Victoria	11	Noviembre	2023-11-24T00:00:00	2024-11-08T01:00:00	7	Dirección del viento	1.61
144067	7	Sololá	701	Sololá	4	Finca Santa Victoria	11	Noviembre	2023-11-24T00:00:00	2024-11-08T01:00:00	1	Precipitación	0
144068	7	Sololá	701	Sololá	4	Finca Santa Victoria	11	Noviembre	2023-11-24T00:00:00	2024-11-08T01:00:00	8	Radiación solar	0
144069	7	Sololá	701	Sololá	4	Finca Santa Victoria	11	Noviembre	2023-11-24T00:00:00	2024-11-08T02:00:00	2	Temperatura media	13.1
144070	7	Sololá	701	Sololá	4	Finca Santa Victoria	11	Noviembre	2023-11-24T00:00:00	2024-11-08T02:00:00	4	Temperatura máxima	13.1
144071	7	Sololá	701	Sololá	4	Finca Santa Victoria	11	Noviembre	2023-11-24T00:00:00	2024-11-08T02:00:00	3	Temperatura mínima	12.4
144072	7	Sololá	701	Sololá	4	Finca Santa Victoria	11	Noviembre	2023-11-24T00:00:00	2024-11-08T02:00:00	5	Humedad	91
144073	7	Sololá	701	Sololá	4	Finca Santa Victoria	11	Noviembre	2023-11-24T00:00:00	2024-11-08T02:00:00	6	Velocidad del viento	0
144074	7	Sololá	701	Sololá	4	Finca Santa Victoria	11	Noviembre	2023-11-24T00:00:00	2024-11-08T02:00:00	7	Dirección del viento	0
144075	7	Sololá	701	Sololá	4	Finca Santa Victoria	11	Noviembre	2023-11-24T00:00:00	2024-11-08T02:00:00	1	Precipitación	0
144076	7	Sololá	701	Sololá	4	Finca Santa Victoria	11	Noviembre	2023-11-24T00:00:00	2024-11-08T02:00:00	8	Radiación solar	0
144077	7	Sololá	701	Sololá	4	Finca Santa Victoria	11	Noviembre	2023-11-24T00:00:00	2024-11-08T03:00:00	2	Temperatura media	12.6
144078	7	Sololá	701	Sololá	4	Finca Santa Victoria	11	Noviembre	2023-11-24T00:00:00	2024-11-08T03:00:00	4	Temperatura máxima	13.2
144079	7	Sololá	701	Sololá	4	Finca Santa Victoria	11	Noviembre	2023-11-24T00:00:00	2024-11-08T03:00:00	3	Temperatura mínima	12.5
144080	7	Sololá	701	Sololá	4	Finca Santa Victoria	11	Noviembre	2023-11-24T00:00:00	2024-11-08T03:00:00	5	Humedad	91
144081	7	Sololá	701	Sololá	4	Finca Santa Victoria	11	Noviembre	2023-11-24T00:00:00	2024-11-08T03:00:00	6	Velocidad del viento	0
144082	7	Sololá	701	Sololá	4	Finca Santa Victoria	11	Noviembre	2023-11-24T00:00:00	2024-11-08T03:00:00	7	Dirección del viento	0
144083	7	Sololá	701	Sololá	4	Finca Santa Victoria	11	Noviembre	2023-11-24T00:00:00	2024-11-08T03:00:00	1	Precipitación	0
144084	7	Sololá	701	Sololá	4	Finca Santa Victoria	11	Noviembre	2023-11-24T00:00:00	2024-11-08T03:00:00	8	Radiación solar	0
144085	7	Sololá	701	Sololá	4	Finca Santa Victoria	11	Noviembre	2023-11-24T00:00:00	2024-11-08T04:00:00	2	Temperatura media	12
144086	7	Sololá	701	Sololá	4	Finca Santa Victoria	11	Noviembre	2023-11-24T00:00:00	2024-11-08T04:00:00	4	Temperatura máxima	12.6
144087	7	Sololá	701	Sololá	4	Finca Santa Victoria	11	Noviembre	2023-11-24T00:00:00	2024-11-08T04:00:00	3	Temperatura mínima	11.9
144088	7	Sololá	701	Sololá	4	Finca Santa Victoria	11	Noviembre	2023-11-24T00:00:00	2024-11-08T04:00:00	5	Humedad	93
144089	7	Sololá	701	Sololá	4	Finca Santa Victoria	11	Noviembre	2023-11-24T00:00:00	2024-11-08T04:00:00	6	Velocidad del viento	1.6
144090	7	Sololá	701	Sololá	4	Finca Santa Victoria	11	Noviembre	2023-11-24T00:00:00	2024-11-08T04:00:00	7	Dirección del viento	1.61
144091	7	Sololá	701	Sololá	4	Finca Santa Victoria	11	Noviembre	2023-11-24T00:00:00	2024-11-08T04:00:00	1	Precipitación	0
144092	7	Sololá	701	Sololá	4	Finca Santa Victoria	11	Noviembre	2023-11-24T00:00:00	2024-11-08T04:00:00	8	Radiación solar	0
144093	7	Sololá	701	Sololá	4	Finca Santa Victoria	11	Noviembre	2023-11-24T00:00:00	2024-11-08T05:00:00	2	Temperatura media	12.1
144094	7	Sololá	701	Sololá	4	Finca Santa Victoria	11	Noviembre	2023-11-24T00:00:00	2024-11-08T05:00:00	4	Temperatura máxima	12.1
144095	7	Sololá	701	Sololá	4	Finca Santa Victoria	11	Noviembre	2023-11-24T00:00:00	2024-11-08T05:00:00	3	Temperatura mínima	11.7
144096	7	Sololá	701	Sololá	4	Finca Santa Victoria	11	Noviembre	2023-11-24T00:00:00	2024-11-08T05:00:00	5	Humedad	91
144097	7	Sololá	701	Sololá	4	Finca Santa Victoria	11	Noviembre	2023-11-24T00:00:00	2024-11-08T05:00:00	6	Velocidad del viento	1.6
144098	7	Sololá	701	Sololá	4	Finca Santa Victoria	11	Noviembre	2023-11-24T00:00:00	2024-11-08T05:00:00	7	Dirección del viento	1.61
144099	7	Sololá	701	Sololá	4	Finca Santa Victoria	11	Noviembre	2023-11-24T00:00:00	2024-11-08T05:00:00	1	Precipitación	0
144100	7	Sololá	701	Sololá	4	Finca Santa Victoria	11	Noviembre	2023-11-24T00:00:00	2024-11-08T05:00:00	8	Radiación solar	0
144101	7	Sololá	701	Sololá	4	Finca Santa Victoria	11	Noviembre	2023-11-24T00:00:00	2024-11-08T06:00:00	2	Temperatura media	12.1
144102	7	Sololá	701	Sololá	4	Finca Santa Victoria	11	Noviembre	2023-11-24T00:00:00	2024-11-08T06:00:00	4	Temperatura máxima	12.2
144103	7	Sololá	701	Sololá	4	Finca Santa Victoria	11	Noviembre	2023-11-24T00:00:00	2024-11-08T06:00:00	3	Temperatura mínima	12
144104	7	Sololá	701	Sololá	4	Finca Santa Victoria	11	Noviembre	2023-11-24T00:00:00	2024-11-08T06:00:00	5	Humedad	90
144105	7	Sololá	701	Sololá	4	Finca Santa Victoria	11	Noviembre	2023-11-24T00:00:00	2024-11-08T06:00:00	6	Velocidad del viento	1.6
144106	7	Sololá	701	Sololá	4	Finca Santa Victoria	11	Noviembre	2023-11-24T00:00:00	2024-11-08T06:00:00	7	Dirección del viento	1.61
144107	7	Sololá	701	Sololá	4	Finca Santa Victoria	11	Noviembre	2023-11-24T00:00:00	2024-11-08T06:00:00	1	Precipitación	0
144108	7	Sololá	701	Sololá	4	Finca Santa Victoria	11	Noviembre	2023-11-24T00:00:00	2024-11-08T06:00:00	8	Radiación solar	0
144109	7	Sololá	701	Sololá	4	Finca Santa Victoria	11	Noviembre	2023-11-24T00:00:00	2024-11-08T07:00:00	2	Temperatura media	12.4
144110	7	Sololá	701	Sololá	4	Finca Santa Victoria	11	Noviembre	2023-11-24T00:00:00	2024-11-08T07:00:00	4	Temperatura máxima	12.4
144111	7	Sololá	701	Sololá	4	Finca Santa Victoria	11	Noviembre	2023-11-24T00:00:00	2024-11-08T07:00:00	3	Temperatura mínima	12
144112	7	Sololá	701	Sololá	4	Finca Santa Victoria	11	Noviembre	2023-11-24T00:00:00	2024-11-08T07:00:00	5	Humedad	91
144113	7	Sololá	701	Sololá	4	Finca Santa Victoria	11	Noviembre	2023-11-24T00:00:00	2024-11-08T07:00:00	6	Velocidad del viento	1.6
144114	7	Sololá	701	Sololá	4	Finca Santa Victoria	11	Noviembre	2023-11-24T00:00:00	2024-11-08T07:00:00	7	Dirección del viento	1.61
144115	7	Sololá	701	Sololá	4	Finca Santa Victoria	11	Noviembre	2023-11-24T00:00:00	2024-11-08T07:00:00	1	Precipitación	0
144116	7	Sololá	701	Sololá	4	Finca Santa Victoria	11	Noviembre	2023-11-24T00:00:00	2024-11-08T07:00:00	8	Radiación solar	13
144117	7	Sololá	701	Sololá	4	Finca Santa Victoria	11	Noviembre	2023-11-24T00:00:00	2024-11-08T08:00:00	2	Temperatura media	14.3
144118	7	Sololá	701	Sololá	4	Finca Santa Victoria	11	Noviembre	2023-11-24T00:00:00	2024-11-08T08:00:00	4	Temperatura máxima	14.3
144119	7	Sololá	701	Sololá	4	Finca Santa Victoria	11	Noviembre	2023-11-24T00:00:00	2024-11-08T08:00:00	3	Temperatura mínima	12.4
144120	7	Sololá	701	Sololá	4	Finca Santa Victoria	11	Noviembre	2023-11-24T00:00:00	2024-11-08T08:00:00	5	Humedad	86
144121	7	Sololá	701	Sololá	4	Finca Santa Victoria	11	Noviembre	2023-11-24T00:00:00	2024-11-08T08:00:00	6	Velocidad del viento	1.6
144122	7	Sololá	701	Sololá	4	Finca Santa Victoria	11	Noviembre	2023-11-24T00:00:00	2024-11-08T08:00:00	7	Dirección del viento	1.61
144123	7	Sololá	701	Sololá	4	Finca Santa Victoria	11	Noviembre	2023-11-24T00:00:00	2024-11-08T08:00:00	1	Precipitación	0
144124	7	Sololá	701	Sololá	4	Finca Santa Victoria	11	Noviembre	2023-11-24T00:00:00	2024-11-08T08:00:00	8	Radiación solar	59
144125	7	Sololá	701	Sololá	4	Finca Santa Victoria	11	Noviembre	2023-11-24T00:00:00	2024-11-08T09:00:00	2	Temperatura media	16.7
144126	7	Sololá	701	Sololá	4	Finca Santa Victoria	11	Noviembre	2023-11-24T00:00:00	2024-11-08T09:00:00	4	Temperatura máxima	16.7
144127	7	Sololá	701	Sololá	4	Finca Santa Victoria	11	Noviembre	2023-11-24T00:00:00	2024-11-08T09:00:00	3	Temperatura mínima	14.3
144128	7	Sololá	701	Sololá	4	Finca Santa Victoria	11	Noviembre	2023-11-24T00:00:00	2024-11-08T09:00:00	5	Humedad	79
144129	7	Sololá	701	Sololá	4	Finca Santa Victoria	11	Noviembre	2023-11-24T00:00:00	2024-11-08T09:00:00	6	Velocidad del viento	1.6
144130	7	Sololá	701	Sololá	4	Finca Santa Victoria	11	Noviembre	2023-11-24T00:00:00	2024-11-08T09:00:00	7	Dirección del viento	1.61
144131	7	Sololá	701	Sololá	4	Finca Santa Victoria	11	Noviembre	2023-11-24T00:00:00	2024-11-08T09:00:00	1	Precipitación	0
144132	7	Sololá	701	Sololá	4	Finca Santa Victoria	11	Noviembre	2023-11-24T00:00:00	2024-11-08T09:00:00	8	Radiación solar	131
144133	7	Sololá	701	Sololá	4	Finca Santa Victoria	11	Noviembre	2023-11-24T00:00:00	2024-11-08T10:00:00	2	Temperatura media	20
144134	7	Sololá	701	Sololá	4	Finca Santa Victoria	11	Noviembre	2023-11-24T00:00:00	2024-11-08T10:00:00	4	Temperatura máxima	20
144135	7	Sololá	701	Sololá	4	Finca Santa Victoria	11	Noviembre	2023-11-24T00:00:00	2024-11-08T10:00:00	3	Temperatura mínima	16.7
144136	7	Sololá	701	Sololá	4	Finca Santa Victoria	11	Noviembre	2023-11-24T00:00:00	2024-11-08T10:00:00	5	Humedad	67
144137	7	Sololá	701	Sololá	4	Finca Santa Victoria	11	Noviembre	2023-11-24T00:00:00	2024-11-08T10:00:00	6	Velocidad del viento	1.6
144138	7	Sololá	701	Sololá	4	Finca Santa Victoria	11	Noviembre	2023-11-24T00:00:00	2024-11-08T10:00:00	7	Dirección del viento	1.61
144139	7	Sololá	701	Sololá	4	Finca Santa Victoria	11	Noviembre	2023-11-24T00:00:00	2024-11-08T10:00:00	1	Precipitación	0
144140	7	Sololá	701	Sololá	4	Finca Santa Victoria	11	Noviembre	2023-11-24T00:00:00	2024-11-08T10:00:00	8	Radiación solar	698
144141	7	Sololá	701	Sololá	4	Finca Santa Victoria	11	Noviembre	2023-11-24T00:00:00	2024-11-08T11:00:00	2	Temperatura media	21.1
144142	7	Sololá	701	Sololá	4	Finca Santa Victoria	11	Noviembre	2023-11-24T00:00:00	2024-11-08T11:00:00	4	Temperatura máxima	21.1
144143	7	Sololá	701	Sololá	4	Finca Santa Victoria	11	Noviembre	2023-11-24T00:00:00	2024-11-08T11:00:00	3	Temperatura mínima	20
144144	7	Sololá	701	Sololá	4	Finca Santa Victoria	11	Noviembre	2023-11-24T00:00:00	2024-11-08T11:00:00	5	Humedad	68
144145	7	Sololá	701	Sololá	4	Finca Santa Victoria	11	Noviembre	2023-11-24T00:00:00	2024-11-08T11:00:00	6	Velocidad del viento	3.2
144146	7	Sololá	701	Sololá	4	Finca Santa Victoria	11	Noviembre	2023-11-24T00:00:00	2024-11-08T11:00:00	7	Dirección del viento	3.22
144147	7	Sololá	701	Sololá	4	Finca Santa Victoria	11	Noviembre	2023-11-24T00:00:00	2024-11-08T11:00:00	1	Precipitación	0
144148	7	Sololá	701	Sololá	4	Finca Santa Victoria	11	Noviembre	2023-11-24T00:00:00	2024-11-08T11:00:00	8	Radiación solar	832
144149	7	Sololá	701	Sololá	4	Finca Santa Victoria	11	Noviembre	2023-11-24T00:00:00	2024-11-08T12:00:00	2	Temperatura media	20.7
144150	7	Sololá	701	Sololá	4	Finca Santa Victoria	11	Noviembre	2023-11-24T00:00:00	2024-11-08T12:00:00	4	Temperatura máxima	21.1
144151	7	Sololá	701	Sololá	4	Finca Santa Victoria	11	Noviembre	2023-11-24T00:00:00	2024-11-08T12:00:00	3	Temperatura mínima	20.3
144152	7	Sololá	701	Sololá	4	Finca Santa Victoria	11	Noviembre	2023-11-24T00:00:00	2024-11-08T12:00:00	5	Humedad	69
144153	7	Sololá	701	Sololá	4	Finca Santa Victoria	11	Noviembre	2023-11-24T00:00:00	2024-11-08T12:00:00	6	Velocidad del viento	4.8
144154	7	Sololá	701	Sololá	4	Finca Santa Victoria	11	Noviembre	2023-11-24T00:00:00	2024-11-08T12:00:00	7	Dirección del viento	4.83
144155	7	Sololá	701	Sololá	4	Finca Santa Victoria	11	Noviembre	2023-11-24T00:00:00	2024-11-08T12:00:00	1	Precipitación	0
144156	7	Sololá	701	Sololá	4	Finca Santa Victoria	11	Noviembre	2023-11-24T00:00:00	2024-11-08T12:00:00	8	Radiación solar	881
144157	7	Sololá	701	Sololá	4	Finca Santa Victoria	11	Noviembre	2023-11-24T00:00:00	2024-11-08T13:00:00	2	Temperatura media	19.8
144158	7	Sololá	701	Sololá	4	Finca Santa Victoria	11	Noviembre	2023-11-24T00:00:00	2024-11-08T13:00:00	4	Temperatura máxima	20.7
144159	7	Sololá	701	Sololá	4	Finca Santa Victoria	11	Noviembre	2023-11-24T00:00:00	2024-11-08T13:00:00	3	Temperatura mínima	19.6
144160	7	Sololá	701	Sololá	4	Finca Santa Victoria	11	Noviembre	2023-11-24T00:00:00	2024-11-08T13:00:00	5	Humedad	79
144161	7	Sololá	701	Sololá	4	Finca Santa Victoria	11	Noviembre	2023-11-24T00:00:00	2024-11-08T13:00:00	6	Velocidad del viento	6.4
144162	7	Sololá	701	Sololá	4	Finca Santa Victoria	11	Noviembre	2023-11-24T00:00:00	2024-11-08T13:00:00	7	Dirección del viento	6.44
144163	7	Sololá	701	Sololá	4	Finca Santa Victoria	11	Noviembre	2023-11-24T00:00:00	2024-11-08T13:00:00	1	Precipitación	0
144164	7	Sololá	701	Sololá	4	Finca Santa Victoria	11	Noviembre	2023-11-24T00:00:00	2024-11-08T13:00:00	8	Radiación solar	858
144165	7	Sololá	701	Sololá	4	Finca Santa Victoria	11	Noviembre	2023-11-24T00:00:00	2024-11-08T14:00:00	2	Temperatura media	17
144166	7	Sololá	701	Sololá	4	Finca Santa Victoria	11	Noviembre	2023-11-24T00:00:00	2024-11-08T14:00:00	4	Temperatura máxima	19.8
144167	7	Sololá	701	Sololá	4	Finca Santa Victoria	11	Noviembre	2023-11-24T00:00:00	2024-11-08T14:00:00	3	Temperatura mínima	17
144168	7	Sololá	701	Sololá	4	Finca Santa Victoria	11	Noviembre	2023-11-24T00:00:00	2024-11-08T14:00:00	5	Humedad	92
144169	7	Sololá	701	Sololá	4	Finca Santa Victoria	11	Noviembre	2023-11-24T00:00:00	2024-11-08T14:00:00	6	Velocidad del viento	4.8
144170	7	Sololá	701	Sololá	4	Finca Santa Victoria	11	Noviembre	2023-11-24T00:00:00	2024-11-08T14:00:00	7	Dirección del viento	4.83
144171	7	Sololá	701	Sololá	4	Finca Santa Victoria	11	Noviembre	2023-11-24T00:00:00	2024-11-08T14:00:00	1	Precipitación	0
144172	7	Sololá	701	Sololá	4	Finca Santa Victoria	11	Noviembre	2023-11-24T00:00:00	2024-11-08T14:00:00	8	Radiación solar	159
144173	7	Sololá	701	Sololá	4	Finca Santa Victoria	11	Noviembre	2023-11-24T00:00:00	2024-11-08T15:00:00	2	Temperatura media	18
144174	7	Sololá	701	Sololá	4	Finca Santa Victoria	11	Noviembre	2023-11-24T00:00:00	2024-11-08T15:00:00	4	Temperatura máxima	18.3
144175	7	Sololá	701	Sololá	4	Finca Santa Victoria	11	Noviembre	2023-11-24T00:00:00	2024-11-08T15:00:00	3	Temperatura mínima	16.6
144176	7	Sololá	701	Sololá	4	Finca Santa Victoria	11	Noviembre	2023-11-24T00:00:00	2024-11-08T15:00:00	5	Humedad	88
144177	7	Sololá	701	Sololá	4	Finca Santa Victoria	11	Noviembre	2023-11-24T00:00:00	2024-11-08T15:00:00	6	Velocidad del viento	4.8
144178	7	Sololá	701	Sololá	4	Finca Santa Victoria	11	Noviembre	2023-11-24T00:00:00	2024-11-08T15:00:00	7	Dirección del viento	4.83
144179	7	Sololá	701	Sololá	4	Finca Santa Victoria	11	Noviembre	2023-11-24T00:00:00	2024-11-08T15:00:00	1	Precipitación	0
144180	7	Sololá	701	Sololá	4	Finca Santa Victoria	11	Noviembre	2023-11-24T00:00:00	2024-11-08T15:00:00	8	Radiación solar	169
144181	7	Sololá	701	Sololá	4	Finca Santa Victoria	11	Noviembre	2023-11-24T00:00:00	2024-11-08T16:00:00	2	Temperatura media	17.2
144182	7	Sololá	701	Sololá	4	Finca Santa Victoria	11	Noviembre	2023-11-24T00:00:00	2024-11-08T16:00:00	4	Temperatura máxima	18
144183	7	Sololá	701	Sololá	4	Finca Santa Victoria	11	Noviembre	2023-11-24T00:00:00	2024-11-08T16:00:00	3	Temperatura mínima	17.1
144184	7	Sololá	701	Sololá	4	Finca Santa Victoria	11	Noviembre	2023-11-24T00:00:00	2024-11-08T16:00:00	5	Humedad	91
144185	7	Sololá	701	Sololá	4	Finca Santa Victoria	11	Noviembre	2023-11-24T00:00:00	2024-11-08T16:00:00	6	Velocidad del viento	3.2
144186	7	Sololá	701	Sololá	4	Finca Santa Victoria	11	Noviembre	2023-11-24T00:00:00	2024-11-08T16:00:00	7	Dirección del viento	3.22
144187	7	Sololá	701	Sololá	4	Finca Santa Victoria	11	Noviembre	2023-11-24T00:00:00	2024-11-08T16:00:00	1	Precipitación	0
144188	7	Sololá	701	Sololá	4	Finca Santa Victoria	11	Noviembre	2023-11-24T00:00:00	2024-11-08T16:00:00	8	Radiación solar	148
144189	7	Sololá	701	Sololá	4	Finca Santa Victoria	11	Noviembre	2023-11-24T00:00:00	2024-11-08T17:00:00	2	Temperatura media	16.2
144190	7	Sololá	701	Sololá	4	Finca Santa Victoria	11	Noviembre	2023-11-24T00:00:00	2024-11-08T17:00:00	4	Temperatura máxima	17.2
144191	7	Sololá	701	Sololá	4	Finca Santa Victoria	11	Noviembre	2023-11-24T00:00:00	2024-11-08T17:00:00	3	Temperatura mínima	16.2
144192	7	Sololá	701	Sololá	4	Finca Santa Victoria	11	Noviembre	2023-11-24T00:00:00	2024-11-08T17:00:00	5	Humedad	94
144193	7	Sololá	701	Sololá	4	Finca Santa Victoria	11	Noviembre	2023-11-24T00:00:00	2024-11-08T17:00:00	6	Velocidad del viento	1.6
144194	7	Sololá	701	Sololá	4	Finca Santa Victoria	11	Noviembre	2023-11-24T00:00:00	2024-11-08T17:00:00	7	Dirección del viento	1.61
144195	7	Sololá	701	Sololá	4	Finca Santa Victoria	11	Noviembre	2023-11-24T00:00:00	2024-11-08T17:00:00	1	Precipitación	0
144196	7	Sololá	701	Sololá	4	Finca Santa Victoria	11	Noviembre	2023-11-24T00:00:00	2024-11-08T17:00:00	8	Radiación solar	48
144197	7	Sololá	701	Sololá	4	Finca Santa Victoria	11	Noviembre	2023-11-24T00:00:00	2024-11-08T18:00:00	2	Temperatura media	15.4
144198	7	Sololá	701	Sololá	4	Finca Santa Victoria	11	Noviembre	2023-11-24T00:00:00	2024-11-08T18:00:00	4	Temperatura máxima	16.2
144199	7	Sololá	701	Sololá	4	Finca Santa Victoria	11	Noviembre	2023-11-24T00:00:00	2024-11-08T18:00:00	3	Temperatura mínima	15.4
144200	7	Sololá	701	Sololá	4	Finca Santa Victoria	11	Noviembre	2023-11-24T00:00:00	2024-11-08T18:00:00	5	Humedad	96
144201	7	Sololá	701	Sololá	4	Finca Santa Victoria	11	Noviembre	2023-11-24T00:00:00	2024-11-08T18:00:00	6	Velocidad del viento	0
144202	7	Sololá	701	Sololá	4	Finca Santa Victoria	11	Noviembre	2023-11-24T00:00:00	2024-11-08T18:00:00	7	Dirección del viento	0
144203	7	Sololá	701	Sololá	4	Finca Santa Victoria	11	Noviembre	2023-11-24T00:00:00	2024-11-08T18:00:00	1	Precipitación	0
144204	7	Sololá	701	Sololá	4	Finca Santa Victoria	11	Noviembre	2023-11-24T00:00:00	2024-11-08T18:00:00	8	Radiación solar	1
144205	7	Sololá	701	Sololá	4	Finca Santa Victoria	11	Noviembre	2023-11-24T00:00:00	2024-11-08T19:00:00	2	Temperatura media	14.9
144206	7	Sololá	701	Sololá	4	Finca Santa Victoria	11	Noviembre	2023-11-24T00:00:00	2024-11-08T19:00:00	4	Temperatura máxima	15.4
144207	7	Sololá	701	Sololá	4	Finca Santa Victoria	11	Noviembre	2023-11-24T00:00:00	2024-11-08T19:00:00	3	Temperatura mínima	14.8
144208	7	Sololá	701	Sololá	4	Finca Santa Victoria	11	Noviembre	2023-11-24T00:00:00	2024-11-08T19:00:00	5	Humedad	97
144209	7	Sololá	701	Sololá	4	Finca Santa Victoria	11	Noviembre	2023-11-24T00:00:00	2024-11-08T19:00:00	6	Velocidad del viento	0
144210	7	Sololá	701	Sololá	4	Finca Santa Victoria	11	Noviembre	2023-11-24T00:00:00	2024-11-08T19:00:00	7	Dirección del viento	0
144211	7	Sololá	701	Sololá	4	Finca Santa Victoria	11	Noviembre	2023-11-24T00:00:00	2024-11-08T19:00:00	1	Precipitación	0
144212	7	Sololá	701	Sololá	4	Finca Santa Victoria	11	Noviembre	2023-11-24T00:00:00	2024-11-08T19:00:00	8	Radiación solar	0
144213	7	Sololá	701	Sololá	4	Finca Santa Victoria	11	Noviembre	2023-11-24T00:00:00	2024-11-08T20:00:00	2	Temperatura media	15.1
144214	7	Sololá	701	Sololá	4	Finca Santa Victoria	11	Noviembre	2023-11-24T00:00:00	2024-11-08T20:00:00	4	Temperatura máxima	15.1
144215	7	Sololá	701	Sololá	4	Finca Santa Victoria	11	Noviembre	2023-11-24T00:00:00	2024-11-08T20:00:00	3	Temperatura mínima	14.8
144216	7	Sololá	701	Sololá	4	Finca Santa Victoria	11	Noviembre	2023-11-24T00:00:00	2024-11-08T20:00:00	5	Humedad	96
144217	7	Sololá	701	Sololá	4	Finca Santa Victoria	11	Noviembre	2023-11-24T00:00:00	2024-11-08T20:00:00	6	Velocidad del viento	0
144218	7	Sololá	701	Sololá	4	Finca Santa Victoria	11	Noviembre	2023-11-24T00:00:00	2024-11-08T20:00:00	7	Dirección del viento	0
144219	7	Sololá	701	Sololá	4	Finca Santa Victoria	11	Noviembre	2023-11-24T00:00:00	2024-11-08T20:00:00	1	Precipitación	0
144220	7	Sololá	701	Sololá	4	Finca Santa Victoria	11	Noviembre	2023-11-24T00:00:00	2024-11-08T20:00:00	8	Radiación solar	0
144221	7	Sololá	701	Sololá	4	Finca Santa Victoria	11	Noviembre	2023-11-24T00:00:00	2024-11-08T21:00:00	2	Temperatura media	14.8
144222	7	Sololá	701	Sololá	4	Finca Santa Victoria	11	Noviembre	2023-11-24T00:00:00	2024-11-08T21:00:00	4	Temperatura máxima	15.1
144223	7	Sololá	701	Sololá	4	Finca Santa Victoria	11	Noviembre	2023-11-24T00:00:00	2024-11-08T21:00:00	3	Temperatura mínima	14.7
144224	7	Sololá	701	Sololá	4	Finca Santa Victoria	11	Noviembre	2023-11-24T00:00:00	2024-11-08T21:00:00	5	Humedad	97
144225	7	Sololá	701	Sololá	4	Finca Santa Victoria	11	Noviembre	2023-11-24T00:00:00	2024-11-08T21:00:00	6	Velocidad del viento	0
144226	7	Sololá	701	Sololá	4	Finca Santa Victoria	11	Noviembre	2023-11-24T00:00:00	2024-11-08T21:00:00	7	Dirección del viento	0
144227	7	Sololá	701	Sololá	4	Finca Santa Victoria	11	Noviembre	2023-11-24T00:00:00	2024-11-08T21:00:00	1	Precipitación	0
144228	7	Sololá	701	Sololá	4	Finca Santa Victoria	11	Noviembre	2023-11-24T00:00:00	2024-11-08T21:00:00	8	Radiación solar	0
144229	7	Sololá	701	Sololá	4	Finca Santa Victoria	11	Noviembre	2023-11-24T00:00:00	2024-11-08T22:00:00	2	Temperatura media	14.4
144230	7	Sololá	701	Sololá	4	Finca Santa Victoria	11	Noviembre	2023-11-24T00:00:00	2024-11-08T22:00:00	4	Temperatura máxima	14.8
144231	7	Sololá	701	Sololá	4	Finca Santa Victoria	11	Noviembre	2023-11-24T00:00:00	2024-11-08T22:00:00	3	Temperatura mínima	14.4
144232	7	Sololá	701	Sololá	4	Finca Santa Victoria	11	Noviembre	2023-11-24T00:00:00	2024-11-08T22:00:00	5	Humedad	98
144233	7	Sololá	701	Sololá	4	Finca Santa Victoria	11	Noviembre	2023-11-24T00:00:00	2024-11-08T22:00:00	6	Velocidad del viento	1.6
144234	7	Sololá	701	Sololá	4	Finca Santa Victoria	11	Noviembre	2023-11-24T00:00:00	2024-11-08T22:00:00	7	Dirección del viento	1.61
144235	7	Sololá	701	Sololá	4	Finca Santa Victoria	11	Noviembre	2023-11-24T00:00:00	2024-11-08T22:00:00	1	Precipitación	0
144236	7	Sololá	701	Sololá	4	Finca Santa Victoria	11	Noviembre	2023-11-24T00:00:00	2024-11-08T22:00:00	8	Radiación solar	0
144237	7	Sololá	701	Sololá	4	Finca Santa Victoria	11	Noviembre	2023-11-24T00:00:00	2024-11-08T23:00:00	2	Temperatura media	14.3
144238	7	Sololá	701	Sololá	4	Finca Santa Victoria	11	Noviembre	2023-11-24T00:00:00	2024-11-08T23:00:00	4	Temperatura máxima	14.4
144239	7	Sololá	701	Sololá	4	Finca Santa Victoria	11	Noviembre	2023-11-24T00:00:00	2024-11-08T23:00:00	3	Temperatura mínima	14.3
144240	7	Sololá	701	Sololá	4	Finca Santa Victoria	11	Noviembre	2023-11-24T00:00:00	2024-11-08T23:00:00	5	Humedad	98
144241	7	Sololá	701	Sololá	4	Finca Santa Victoria	11	Noviembre	2023-11-24T00:00:00	2024-11-08T23:00:00	6	Velocidad del viento	0
144242	7	Sololá	701	Sololá	4	Finca Santa Victoria	11	Noviembre	2023-11-24T00:00:00	2024-11-08T23:00:00	7	Dirección del viento	0
144243	7	Sololá	701	Sololá	4	Finca Santa Victoria	11	Noviembre	2023-11-24T00:00:00	2024-11-08T23:00:00	1	Precipitación	0
144244	7	Sololá	701	Sololá	4	Finca Santa Victoria	11	Noviembre	2023-11-24T00:00:00	2024-11-08T23:00:00	8	Radiación solar	0
144245	7	Sololá	701	Sololá	4	Finca Santa Victoria	11	Noviembre	2023-11-25T00:00:00	2024-11-08T00:00:00	2	Temperatura media	13.5
144246	7	Sololá	701	Sololá	4	Finca Santa Victoria	11	Noviembre	2023-11-25T00:00:00	2024-11-08T00:00:00	4	Temperatura máxima	14.3
144247	7	Sololá	701	Sololá	4	Finca Santa Victoria	11	Noviembre	2023-11-25T00:00:00	2024-11-08T00:00:00	3	Temperatura mínima	13.5
144248	7	Sololá	701	Sololá	4	Finca Santa Victoria	11	Noviembre	2023-11-25T00:00:00	2024-11-08T00:00:00	5	Humedad	97
144249	7	Sololá	701	Sololá	4	Finca Santa Victoria	11	Noviembre	2023-11-25T00:00:00	2024-11-08T00:00:00	6	Velocidad del viento	0
144250	7	Sololá	701	Sololá	4	Finca Santa Victoria	11	Noviembre	2023-11-25T00:00:00	2024-11-08T00:00:00	7	Dirección del viento	0
144251	7	Sololá	701	Sololá	4	Finca Santa Victoria	11	Noviembre	2023-11-25T00:00:00	2024-11-08T00:00:00	1	Precipitación	0
144252	7	Sololá	701	Sololá	4	Finca Santa Victoria	11	Noviembre	2023-11-25T00:00:00	2024-11-08T00:00:00	8	Radiación solar	0
144253	7	Sololá	701	Sololá	4	Finca Santa Victoria	11	Noviembre	2023-11-25T00:00:00	2024-11-08T01:00:00	2	Temperatura media	13.3
144254	7	Sololá	701	Sololá	4	Finca Santa Victoria	11	Noviembre	2023-11-25T00:00:00	2024-11-08T01:00:00	4	Temperatura máxima	13.6
144255	7	Sololá	701	Sololá	4	Finca Santa Victoria	11	Noviembre	2023-11-25T00:00:00	2024-11-08T01:00:00	3	Temperatura mínima	13.2
144256	7	Sololá	701	Sololá	4	Finca Santa Victoria	11	Noviembre	2023-11-25T00:00:00	2024-11-08T01:00:00	5	Humedad	98
144257	7	Sololá	701	Sololá	4	Finca Santa Victoria	11	Noviembre	2023-11-25T00:00:00	2024-11-08T01:00:00	6	Velocidad del viento	0
144258	7	Sololá	701	Sololá	4	Finca Santa Victoria	11	Noviembre	2023-11-25T00:00:00	2024-11-08T01:00:00	7	Dirección del viento	0
144259	7	Sololá	701	Sololá	4	Finca Santa Victoria	11	Noviembre	2023-11-25T00:00:00	2024-11-08T01:00:00	1	Precipitación	0
144260	7	Sololá	701	Sololá	4	Finca Santa Victoria	11	Noviembre	2023-11-25T00:00:00	2024-11-08T01:00:00	8	Radiación solar	0
144261	7	Sololá	701	Sololá	4	Finca Santa Victoria	11	Noviembre	2023-11-25T00:00:00	2024-11-08T02:00:00	2	Temperatura media	12.9
144262	7	Sololá	701	Sololá	4	Finca Santa Victoria	11	Noviembre	2023-11-25T00:00:00	2024-11-08T02:00:00	4	Temperatura máxima	13.3
144263	7	Sololá	701	Sololá	4	Finca Santa Victoria	11	Noviembre	2023-11-25T00:00:00	2024-11-08T02:00:00	3	Temperatura mínima	12.7
144264	7	Sololá	701	Sololá	4	Finca Santa Victoria	11	Noviembre	2023-11-25T00:00:00	2024-11-08T02:00:00	5	Humedad	98
144265	7	Sololá	701	Sololá	4	Finca Santa Victoria	11	Noviembre	2023-11-25T00:00:00	2024-11-08T02:00:00	6	Velocidad del viento	1.6
144266	7	Sololá	701	Sololá	4	Finca Santa Victoria	11	Noviembre	2023-11-25T00:00:00	2024-11-08T02:00:00	7	Dirección del viento	1.61
144267	7	Sololá	701	Sololá	4	Finca Santa Victoria	11	Noviembre	2023-11-25T00:00:00	2024-11-08T02:00:00	1	Precipitación	0
144268	7	Sololá	701	Sololá	4	Finca Santa Victoria	11	Noviembre	2023-11-25T00:00:00	2024-11-08T02:00:00	8	Radiación solar	0
144269	7	Sololá	701	Sololá	4	Finca Santa Victoria	11	Noviembre	2023-11-25T00:00:00	2024-11-08T03:00:00	2	Temperatura media	13.1
144270	7	Sololá	701	Sololá	4	Finca Santa Victoria	11	Noviembre	2023-11-25T00:00:00	2024-11-08T03:00:00	4	Temperatura máxima	13.1
144271	7	Sololá	701	Sololá	4	Finca Santa Victoria	11	Noviembre	2023-11-25T00:00:00	2024-11-08T03:00:00	3	Temperatura mínima	12.7
144272	7	Sololá	701	Sololá	4	Finca Santa Victoria	11	Noviembre	2023-11-25T00:00:00	2024-11-08T03:00:00	5	Humedad	98
144273	7	Sololá	701	Sololá	4	Finca Santa Victoria	11	Noviembre	2023-11-25T00:00:00	2024-11-08T03:00:00	6	Velocidad del viento	0
144274	7	Sololá	701	Sololá	4	Finca Santa Victoria	11	Noviembre	2023-11-25T00:00:00	2024-11-08T03:00:00	7	Dirección del viento	0
144275	7	Sololá	701	Sololá	4	Finca Santa Victoria	11	Noviembre	2023-11-25T00:00:00	2024-11-08T03:00:00	1	Precipitación	0
144276	7	Sololá	701	Sololá	4	Finca Santa Victoria	11	Noviembre	2023-11-25T00:00:00	2024-11-08T03:00:00	8	Radiación solar	0
144277	7	Sololá	701	Sololá	4	Finca Santa Victoria	11	Noviembre	2023-11-25T00:00:00	2024-11-08T04:00:00	2	Temperatura media	13.3
144278	7	Sololá	701	Sololá	4	Finca Santa Victoria	11	Noviembre	2023-11-25T00:00:00	2024-11-08T04:00:00	4	Temperatura máxima	13.3
144279	7	Sololá	701	Sololá	4	Finca Santa Victoria	11	Noviembre	2023-11-25T00:00:00	2024-11-08T04:00:00	3	Temperatura mínima	12.9
144280	7	Sololá	701	Sololá	4	Finca Santa Victoria	11	Noviembre	2023-11-25T00:00:00	2024-11-08T04:00:00	5	Humedad	96
144281	7	Sololá	701	Sololá	4	Finca Santa Victoria	11	Noviembre	2023-11-25T00:00:00	2024-11-08T04:00:00	6	Velocidad del viento	0
144282	7	Sololá	701	Sololá	4	Finca Santa Victoria	11	Noviembre	2023-11-25T00:00:00	2024-11-08T04:00:00	7	Dirección del viento	0
144283	7	Sololá	701	Sololá	4	Finca Santa Victoria	11	Noviembre	2023-11-25T00:00:00	2024-11-08T04:00:00	1	Precipitación	0
144284	7	Sololá	701	Sololá	4	Finca Santa Victoria	11	Noviembre	2023-11-25T00:00:00	2024-11-08T04:00:00	8	Radiación solar	0
144285	7	Sololá	701	Sololá	4	Finca Santa Victoria	11	Noviembre	2023-11-25T00:00:00	2024-11-08T05:00:00	2	Temperatura media	13.1
144286	7	Sololá	701	Sololá	4	Finca Santa Victoria	11	Noviembre	2023-11-25T00:00:00	2024-11-08T05:00:00	4	Temperatura máxima	13.4
144287	7	Sololá	701	Sololá	4	Finca Santa Victoria	11	Noviembre	2023-11-25T00:00:00	2024-11-08T05:00:00	3	Temperatura mínima	13.1
144288	7	Sololá	701	Sololá	4	Finca Santa Victoria	11	Noviembre	2023-11-25T00:00:00	2024-11-08T05:00:00	5	Humedad	95
144289	7	Sololá	701	Sololá	4	Finca Santa Victoria	11	Noviembre	2023-11-25T00:00:00	2024-11-08T05:00:00	6	Velocidad del viento	0
144290	7	Sololá	701	Sololá	4	Finca Santa Victoria	11	Noviembre	2023-11-25T00:00:00	2024-11-08T05:00:00	7	Dirección del viento	0
144291	7	Sololá	701	Sololá	4	Finca Santa Victoria	11	Noviembre	2023-11-25T00:00:00	2024-11-08T05:00:00	1	Precipitación	0
144292	7	Sololá	701	Sololá	4	Finca Santa Victoria	11	Noviembre	2023-11-25T00:00:00	2024-11-08T05:00:00	8	Radiación solar	0
144293	7	Sololá	701	Sololá	4	Finca Santa Victoria	11	Noviembre	2023-11-25T00:00:00	2024-11-08T06:00:00	2	Temperatura media	12.8
144294	7	Sololá	701	Sololá	4	Finca Santa Victoria	11	Noviembre	2023-11-25T00:00:00	2024-11-08T06:00:00	4	Temperatura máxima	13.2
144295	7	Sololá	701	Sololá	4	Finca Santa Victoria	11	Noviembre	2023-11-25T00:00:00	2024-11-08T06:00:00	3	Temperatura mínima	12.8
144296	7	Sololá	701	Sololá	4	Finca Santa Victoria	11	Noviembre	2023-11-25T00:00:00	2024-11-08T06:00:00	5	Humedad	97
144297	7	Sololá	701	Sololá	4	Finca Santa Victoria	11	Noviembre	2023-11-25T00:00:00	2024-11-08T06:00:00	6	Velocidad del viento	1.6
144298	7	Sololá	701	Sololá	4	Finca Santa Victoria	11	Noviembre	2023-11-25T00:00:00	2024-11-08T06:00:00	7	Dirección del viento	1.61
144299	7	Sololá	701	Sololá	4	Finca Santa Victoria	11	Noviembre	2023-11-25T00:00:00	2024-11-08T06:00:00	1	Precipitación	0
144300	7	Sololá	701	Sololá	4	Finca Santa Victoria	11	Noviembre	2023-11-25T00:00:00	2024-11-08T06:00:00	8	Radiación solar	0
144301	7	Sololá	701	Sololá	4	Finca Santa Victoria	11	Noviembre	2023-11-25T00:00:00	2024-11-08T07:00:00	2	Temperatura media	12.5
144302	7	Sololá	701	Sololá	4	Finca Santa Victoria	11	Noviembre	2023-11-25T00:00:00	2024-11-08T07:00:00	4	Temperatura máxima	12.8
144303	7	Sololá	701	Sololá	4	Finca Santa Victoria	11	Noviembre	2023-11-25T00:00:00	2024-11-08T07:00:00	3	Temperatura mínima	12.4
144304	7	Sololá	701	Sololá	4	Finca Santa Victoria	11	Noviembre	2023-11-25T00:00:00	2024-11-08T07:00:00	5	Humedad	98
144305	7	Sololá	701	Sololá	4	Finca Santa Victoria	11	Noviembre	2023-11-25T00:00:00	2024-11-08T07:00:00	6	Velocidad del viento	3.2
144306	7	Sololá	701	Sololá	4	Finca Santa Victoria	11	Noviembre	2023-11-25T00:00:00	2024-11-08T07:00:00	7	Dirección del viento	3.22
144307	7	Sololá	701	Sololá	4	Finca Santa Victoria	11	Noviembre	2023-11-25T00:00:00	2024-11-08T07:00:00	1	Precipitación	0
144308	7	Sololá	701	Sololá	4	Finca Santa Victoria	11	Noviembre	2023-11-25T00:00:00	2024-11-08T07:00:00	8	Radiación solar	12
144309	7	Sololá	701	Sololá	4	Finca Santa Victoria	11	Noviembre	2023-11-25T00:00:00	2024-11-08T08:00:00	2	Temperatura media	15.1
144310	7	Sololá	701	Sololá	4	Finca Santa Victoria	11	Noviembre	2023-11-25T00:00:00	2024-11-08T08:00:00	4	Temperatura máxima	15.2
144311	7	Sololá	701	Sololá	4	Finca Santa Victoria	11	Noviembre	2023-11-25T00:00:00	2024-11-08T08:00:00	3	Temperatura mínima	12.5
144312	7	Sololá	701	Sololá	4	Finca Santa Victoria	11	Noviembre	2023-11-25T00:00:00	2024-11-08T08:00:00	5	Humedad	92
144313	7	Sololá	701	Sololá	4	Finca Santa Victoria	11	Noviembre	2023-11-25T00:00:00	2024-11-08T08:00:00	6	Velocidad del viento	1.6
144314	7	Sololá	701	Sololá	4	Finca Santa Victoria	11	Noviembre	2023-11-25T00:00:00	2024-11-08T08:00:00	7	Dirección del viento	1.61
144315	7	Sololá	701	Sololá	4	Finca Santa Victoria	11	Noviembre	2023-11-25T00:00:00	2024-11-08T08:00:00	1	Precipitación	0
144316	7	Sololá	701	Sololá	4	Finca Santa Victoria	11	Noviembre	2023-11-25T00:00:00	2024-11-08T08:00:00	8	Radiación solar	84
144317	7	Sololá	701	Sololá	4	Finca Santa Victoria	11	Noviembre	2023-11-25T00:00:00	2024-11-08T09:00:00	2	Temperatura media	17.6
144318	7	Sololá	701	Sololá	4	Finca Santa Victoria	11	Noviembre	2023-11-25T00:00:00	2024-11-08T09:00:00	4	Temperatura máxima	17.7
144319	7	Sololá	701	Sololá	4	Finca Santa Victoria	11	Noviembre	2023-11-25T00:00:00	2024-11-08T09:00:00	3	Temperatura mínima	15.1
144320	7	Sololá	701	Sololá	4	Finca Santa Victoria	11	Noviembre	2023-11-25T00:00:00	2024-11-08T09:00:00	5	Humedad	80
144321	7	Sololá	701	Sololá	4	Finca Santa Victoria	11	Noviembre	2023-11-25T00:00:00	2024-11-08T09:00:00	6	Velocidad del viento	1.6
144322	7	Sololá	701	Sololá	4	Finca Santa Victoria	11	Noviembre	2023-11-25T00:00:00	2024-11-08T09:00:00	7	Dirección del viento	1.61
144323	7	Sololá	701	Sololá	4	Finca Santa Victoria	11	Noviembre	2023-11-25T00:00:00	2024-11-08T09:00:00	1	Precipitación	0
144324	7	Sololá	701	Sololá	4	Finca Santa Victoria	11	Noviembre	2023-11-25T00:00:00	2024-11-08T09:00:00	8	Radiación solar	152
144325	7	Sololá	701	Sololá	4	Finca Santa Victoria	11	Noviembre	2023-11-25T00:00:00	2024-11-08T10:00:00	2	Temperatura media	19.3
144326	7	Sololá	701	Sololá	4	Finca Santa Victoria	11	Noviembre	2023-11-25T00:00:00	2024-11-08T10:00:00	4	Temperatura máxima	19.4
144327	7	Sololá	701	Sololá	4	Finca Santa Victoria	11	Noviembre	2023-11-25T00:00:00	2024-11-08T10:00:00	3	Temperatura mínima	17.6
144328	7	Sololá	701	Sololá	4	Finca Santa Victoria	11	Noviembre	2023-11-25T00:00:00	2024-11-08T10:00:00	5	Humedad	72
144329	7	Sololá	701	Sololá	4	Finca Santa Victoria	11	Noviembre	2023-11-25T00:00:00	2024-11-08T10:00:00	6	Velocidad del viento	3.2
144330	7	Sololá	701	Sololá	4	Finca Santa Victoria	11	Noviembre	2023-11-25T00:00:00	2024-11-08T10:00:00	7	Dirección del viento	3.22
144331	7	Sololá	701	Sololá	4	Finca Santa Victoria	11	Noviembre	2023-11-25T00:00:00	2024-11-08T10:00:00	1	Precipitación	0
144332	7	Sololá	701	Sololá	4	Finca Santa Victoria	11	Noviembre	2023-11-25T00:00:00	2024-11-08T10:00:00	8	Radiación solar	689
144333	7	Sololá	701	Sololá	4	Finca Santa Victoria	11	Noviembre	2023-11-25T00:00:00	2024-11-08T11:00:00	2	Temperatura media	21.4
144334	7	Sololá	701	Sololá	4	Finca Santa Victoria	11	Noviembre	2023-11-25T00:00:00	2024-11-08T11:00:00	4	Temperatura máxima	21.4
144335	7	Sololá	701	Sololá	4	Finca Santa Victoria	11	Noviembre	2023-11-25T00:00:00	2024-11-08T11:00:00	3	Temperatura mínima	19.3
144336	7	Sololá	701	Sololá	4	Finca Santa Victoria	11	Noviembre	2023-11-25T00:00:00	2024-11-08T11:00:00	5	Humedad	70
144337	7	Sololá	701	Sololá	4	Finca Santa Victoria	11	Noviembre	2023-11-25T00:00:00	2024-11-08T11:00:00	6	Velocidad del viento	3.2
144338	7	Sololá	701	Sololá	4	Finca Santa Victoria	11	Noviembre	2023-11-25T00:00:00	2024-11-08T11:00:00	7	Dirección del viento	3.22
144339	7	Sololá	701	Sololá	4	Finca Santa Victoria	11	Noviembre	2023-11-25T00:00:00	2024-11-08T11:00:00	1	Precipitación	0
144340	7	Sololá	701	Sololá	4	Finca Santa Victoria	11	Noviembre	2023-11-25T00:00:00	2024-11-08T11:00:00	8	Radiación solar	829
144341	7	Sololá	701	Sololá	4	Finca Santa Victoria	11	Noviembre	2023-11-25T00:00:00	2024-11-08T12:00:00	2	Temperatura media	21.7
144342	7	Sololá	701	Sololá	4	Finca Santa Victoria	11	Noviembre	2023-11-25T00:00:00	2024-11-08T12:00:00	4	Temperatura máxima	21.7
144343	7	Sololá	701	Sololá	4	Finca Santa Victoria	11	Noviembre	2023-11-25T00:00:00	2024-11-08T12:00:00	3	Temperatura mínima	20.3
144344	7	Sololá	701	Sololá	4	Finca Santa Victoria	11	Noviembre	2023-11-25T00:00:00	2024-11-08T12:00:00	5	Humedad	71
144345	7	Sololá	701	Sololá	4	Finca Santa Victoria	11	Noviembre	2023-11-25T00:00:00	2024-11-08T12:00:00	6	Velocidad del viento	3.2
144346	7	Sololá	701	Sololá	4	Finca Santa Victoria	11	Noviembre	2023-11-25T00:00:00	2024-11-08T12:00:00	7	Dirección del viento	3.22
144347	7	Sololá	701	Sololá	4	Finca Santa Victoria	11	Noviembre	2023-11-25T00:00:00	2024-11-08T12:00:00	1	Precipitación	0
144348	7	Sololá	701	Sololá	4	Finca Santa Victoria	11	Noviembre	2023-11-25T00:00:00	2024-11-08T12:00:00	8	Radiación solar	519
144349	7	Sololá	701	Sololá	4	Finca Santa Victoria	11	Noviembre	2023-11-25T00:00:00	2024-11-08T13:00:00	2	Temperatura media	18.4
144350	7	Sololá	701	Sololá	4	Finca Santa Victoria	11	Noviembre	2023-11-25T00:00:00	2024-11-08T13:00:00	4	Temperatura máxima	22.1
144351	7	Sololá	701	Sololá	4	Finca Santa Victoria	11	Noviembre	2023-11-25T00:00:00	2024-11-08T13:00:00	3	Temperatura mínima	18.3
144352	7	Sololá	701	Sololá	4	Finca Santa Victoria	11	Noviembre	2023-11-25T00:00:00	2024-11-08T13:00:00	5	Humedad	88
144353	7	Sololá	701	Sololá	4	Finca Santa Victoria	11	Noviembre	2023-11-25T00:00:00	2024-11-08T13:00:00	6	Velocidad del viento	3.2
144354	7	Sololá	701	Sololá	4	Finca Santa Victoria	11	Noviembre	2023-11-25T00:00:00	2024-11-08T13:00:00	7	Dirección del viento	3.22
144355	7	Sololá	701	Sololá	4	Finca Santa Victoria	11	Noviembre	2023-11-25T00:00:00	2024-11-08T13:00:00	1	Precipitación	0
144356	7	Sololá	701	Sololá	4	Finca Santa Victoria	11	Noviembre	2023-11-25T00:00:00	2024-11-08T13:00:00	8	Radiación solar	218
144357	7	Sololá	701	Sololá	4	Finca Santa Victoria	11	Noviembre	2023-11-25T00:00:00	2024-11-08T14:00:00	2	Temperatura media	18
144358	7	Sololá	701	Sololá	4	Finca Santa Victoria	11	Noviembre	2023-11-25T00:00:00	2024-11-08T14:00:00	4	Temperatura máxima	19
144359	7	Sololá	701	Sololá	4	Finca Santa Victoria	11	Noviembre	2023-11-25T00:00:00	2024-11-08T14:00:00	3	Temperatura mínima	18
144360	7	Sololá	701	Sololá	4	Finca Santa Victoria	11	Noviembre	2023-11-25T00:00:00	2024-11-08T14:00:00	5	Humedad	90
144361	7	Sololá	701	Sololá	4	Finca Santa Victoria	11	Noviembre	2023-11-25T00:00:00	2024-11-08T14:00:00	6	Velocidad del viento	3.2
144362	7	Sololá	701	Sololá	4	Finca Santa Victoria	11	Noviembre	2023-11-25T00:00:00	2024-11-08T14:00:00	7	Dirección del viento	3.22
144363	7	Sololá	701	Sololá	4	Finca Santa Victoria	11	Noviembre	2023-11-25T00:00:00	2024-11-08T14:00:00	1	Precipitación	0
144364	7	Sololá	701	Sololá	4	Finca Santa Victoria	11	Noviembre	2023-11-25T00:00:00	2024-11-08T14:00:00	8	Radiación solar	123
144365	7	Sololá	701	Sololá	4	Finca Santa Victoria	11	Noviembre	2023-11-25T00:00:00	2024-11-08T15:00:00	2	Temperatura media	17.4
144366	7	Sololá	701	Sololá	4	Finca Santa Victoria	11	Noviembre	2023-11-25T00:00:00	2024-11-08T15:00:00	4	Temperatura máxima	19.6
144367	7	Sololá	701	Sololá	4	Finca Santa Victoria	11	Noviembre	2023-11-25T00:00:00	2024-11-08T15:00:00	3	Temperatura mínima	17.4
144368	7	Sololá	701	Sololá	4	Finca Santa Victoria	11	Noviembre	2023-11-25T00:00:00	2024-11-08T15:00:00	5	Humedad	93
144369	7	Sololá	701	Sololá	4	Finca Santa Victoria	11	Noviembre	2023-11-25T00:00:00	2024-11-08T15:00:00	6	Velocidad del viento	3.2
144370	7	Sololá	701	Sololá	4	Finca Santa Victoria	11	Noviembre	2023-11-25T00:00:00	2024-11-08T15:00:00	7	Dirección del viento	3.22
144371	7	Sololá	701	Sololá	4	Finca Santa Victoria	11	Noviembre	2023-11-25T00:00:00	2024-11-08T15:00:00	1	Precipitación	0
144372	7	Sololá	701	Sololá	4	Finca Santa Victoria	11	Noviembre	2023-11-25T00:00:00	2024-11-08T15:00:00	8	Radiación solar	159
144373	7	Sololá	701	Sololá	4	Finca Santa Victoria	11	Noviembre	2023-11-25T00:00:00	2024-11-08T16:00:00	2	Temperatura media	17.6
144374	7	Sololá	701	Sololá	4	Finca Santa Victoria	11	Noviembre	2023-11-25T00:00:00	2024-11-08T16:00:00	4	Temperatura máxima	17.6
144375	7	Sololá	701	Sololá	4	Finca Santa Victoria	11	Noviembre	2023-11-25T00:00:00	2024-11-08T16:00:00	3	Temperatura mínima	16.9
144376	7	Sololá	701	Sololá	4	Finca Santa Victoria	11	Noviembre	2023-11-25T00:00:00	2024-11-08T16:00:00	5	Humedad	92
144377	7	Sololá	701	Sololá	4	Finca Santa Victoria	11	Noviembre	2023-11-25T00:00:00	2024-11-08T16:00:00	6	Velocidad del viento	3.2
144378	7	Sololá	701	Sololá	4	Finca Santa Victoria	11	Noviembre	2023-11-25T00:00:00	2024-11-08T16:00:00	7	Dirección del viento	3.22
144379	7	Sololá	701	Sololá	4	Finca Santa Victoria	11	Noviembre	2023-11-25T00:00:00	2024-11-08T16:00:00	1	Precipitación	0
144380	7	Sololá	701	Sololá	4	Finca Santa Victoria	11	Noviembre	2023-11-25T00:00:00	2024-11-08T16:00:00	8	Radiación solar	98
144381	7	Sololá	701	Sololá	4	Finca Santa Victoria	11	Noviembre	2023-11-25T00:00:00	2024-11-08T17:00:00	2	Temperatura media	16.3
144382	7	Sololá	701	Sololá	4	Finca Santa Victoria	11	Noviembre	2023-11-25T00:00:00	2024-11-08T17:00:00	4	Temperatura máxima	17.6
144383	7	Sololá	701	Sololá	4	Finca Santa Victoria	11	Noviembre	2023-11-25T00:00:00	2024-11-08T17:00:00	3	Temperatura mínima	16.3
144384	7	Sololá	701	Sololá	4	Finca Santa Victoria	11	Noviembre	2023-11-25T00:00:00	2024-11-08T17:00:00	5	Humedad	95
144385	7	Sololá	701	Sololá	4	Finca Santa Victoria	11	Noviembre	2023-11-25T00:00:00	2024-11-08T17:00:00	6	Velocidad del viento	1.6
144386	7	Sololá	701	Sololá	4	Finca Santa Victoria	11	Noviembre	2023-11-25T00:00:00	2024-11-08T17:00:00	7	Dirección del viento	1.61
144387	7	Sololá	701	Sololá	4	Finca Santa Victoria	11	Noviembre	2023-11-25T00:00:00	2024-11-08T17:00:00	1	Precipitación	0
144388	7	Sololá	701	Sololá	4	Finca Santa Victoria	11	Noviembre	2023-11-25T00:00:00	2024-11-08T17:00:00	8	Radiación solar	20
144389	7	Sololá	701	Sololá	4	Finca Santa Victoria	11	Noviembre	2023-11-25T00:00:00	2024-11-08T18:00:00	2	Temperatura media	14.7
144390	7	Sololá	701	Sololá	4	Finca Santa Victoria	11	Noviembre	2023-11-25T00:00:00	2024-11-08T18:00:00	4	Temperatura máxima	16.3
144391	7	Sololá	701	Sololá	4	Finca Santa Victoria	11	Noviembre	2023-11-25T00:00:00	2024-11-08T18:00:00	3	Temperatura mínima	14.7
144392	7	Sololá	701	Sololá	4	Finca Santa Victoria	11	Noviembre	2023-11-25T00:00:00	2024-11-08T18:00:00	5	Humedad	90
144393	7	Sololá	701	Sololá	4	Finca Santa Victoria	11	Noviembre	2023-11-25T00:00:00	2024-11-08T18:00:00	6	Velocidad del viento	1.6
144394	7	Sololá	701	Sololá	4	Finca Santa Victoria	11	Noviembre	2023-11-25T00:00:00	2024-11-08T18:00:00	7	Dirección del viento	1.61
144395	7	Sololá	701	Sololá	4	Finca Santa Victoria	11	Noviembre	2023-11-25T00:00:00	2024-11-08T18:00:00	1	Precipitación	0
144396	7	Sololá	701	Sololá	4	Finca Santa Victoria	11	Noviembre	2023-11-25T00:00:00	2024-11-08T18:00:00	8	Radiación solar	4
144397	7	Sololá	701	Sololá	4	Finca Santa Victoria	11	Noviembre	2023-11-25T00:00:00	2024-11-08T19:00:00	2	Temperatura media	14.8
144398	7	Sololá	701	Sololá	4	Finca Santa Victoria	11	Noviembre	2023-11-25T00:00:00	2024-11-08T19:00:00	4	Temperatura máxima	14.9
144399	7	Sololá	701	Sololá	4	Finca Santa Victoria	11	Noviembre	2023-11-25T00:00:00	2024-11-08T19:00:00	3	Temperatura mínima	14.6
144400	7	Sololá	701	Sololá	4	Finca Santa Victoria	11	Noviembre	2023-11-25T00:00:00	2024-11-08T19:00:00	5	Humedad	87
144401	7	Sololá	701	Sololá	4	Finca Santa Victoria	11	Noviembre	2023-11-25T00:00:00	2024-11-08T19:00:00	6	Velocidad del viento	1.6
144402	7	Sololá	701	Sololá	4	Finca Santa Victoria	11	Noviembre	2023-11-25T00:00:00	2024-11-08T19:00:00	7	Dirección del viento	1.61
144403	7	Sololá	701	Sololá	4	Finca Santa Victoria	11	Noviembre	2023-11-25T00:00:00	2024-11-08T19:00:00	1	Precipitación	0
144404	7	Sololá	701	Sololá	4	Finca Santa Victoria	11	Noviembre	2023-11-25T00:00:00	2024-11-08T19:00:00	8	Radiación solar	0
144405	7	Sololá	701	Sololá	4	Finca Santa Victoria	11	Noviembre	2023-11-25T00:00:00	2024-11-08T20:00:00	2	Temperatura media	14.6
144406	7	Sololá	701	Sololá	4	Finca Santa Victoria	11	Noviembre	2023-11-25T00:00:00	2024-11-08T20:00:00	4	Temperatura máxima	15
144407	7	Sololá	701	Sololá	4	Finca Santa Victoria	11	Noviembre	2023-11-25T00:00:00	2024-11-08T20:00:00	3	Temperatura mínima	14.6
144408	7	Sololá	701	Sololá	4	Finca Santa Victoria	11	Noviembre	2023-11-25T00:00:00	2024-11-08T20:00:00	5	Humedad	86
144409	7	Sololá	701	Sololá	4	Finca Santa Victoria	11	Noviembre	2023-11-25T00:00:00	2024-11-08T20:00:00	6	Velocidad del viento	1.6
144410	7	Sololá	701	Sololá	4	Finca Santa Victoria	11	Noviembre	2023-11-25T00:00:00	2024-11-08T20:00:00	7	Dirección del viento	1.61
144411	7	Sololá	701	Sololá	4	Finca Santa Victoria	11	Noviembre	2023-11-25T00:00:00	2024-11-08T20:00:00	1	Precipitación	0
144412	7	Sololá	701	Sololá	4	Finca Santa Victoria	11	Noviembre	2023-11-25T00:00:00	2024-11-08T20:00:00	8	Radiación solar	0
144413	7	Sololá	701	Sololá	4	Finca Santa Victoria	11	Noviembre	2023-11-25T00:00:00	2024-11-08T21:00:00	2	Temperatura media	14.2
144414	7	Sololá	701	Sololá	4	Finca Santa Victoria	11	Noviembre	2023-11-25T00:00:00	2024-11-08T21:00:00	4	Temperatura máxima	14.7
144415	7	Sololá	701	Sololá	4	Finca Santa Victoria	11	Noviembre	2023-11-25T00:00:00	2024-11-08T21:00:00	3	Temperatura mínima	14.2
144416	7	Sololá	701	Sololá	4	Finca Santa Victoria	11	Noviembre	2023-11-25T00:00:00	2024-11-08T21:00:00	5	Humedad	85
144417	7	Sololá	701	Sololá	4	Finca Santa Victoria	11	Noviembre	2023-11-25T00:00:00	2024-11-08T21:00:00	6	Velocidad del viento	3.2
144418	7	Sololá	701	Sololá	4	Finca Santa Victoria	11	Noviembre	2023-11-25T00:00:00	2024-11-08T21:00:00	7	Dirección del viento	3.22
144419	7	Sololá	701	Sololá	4	Finca Santa Victoria	11	Noviembre	2023-11-25T00:00:00	2024-11-08T21:00:00	1	Precipitación	0
144420	7	Sololá	701	Sololá	4	Finca Santa Victoria	11	Noviembre	2023-11-25T00:00:00	2024-11-08T21:00:00	8	Radiación solar	0
144421	7	Sololá	701	Sololá	4	Finca Santa Victoria	11	Noviembre	2023-11-25T00:00:00	2024-11-08T22:00:00	2	Temperatura media	13.3
144422	7	Sololá	701	Sololá	4	Finca Santa Victoria	11	Noviembre	2023-11-25T00:00:00	2024-11-08T22:00:00	4	Temperatura máxima	14.2
144423	7	Sololá	701	Sololá	4	Finca Santa Victoria	11	Noviembre	2023-11-25T00:00:00	2024-11-08T22:00:00	3	Temperatura mínima	13.2
144424	7	Sololá	701	Sololá	4	Finca Santa Victoria	11	Noviembre	2023-11-25T00:00:00	2024-11-08T22:00:00	5	Humedad	89
144425	7	Sololá	701	Sololá	4	Finca Santa Victoria	11	Noviembre	2023-11-25T00:00:00	2024-11-08T22:00:00	6	Velocidad del viento	0
144426	7	Sololá	701	Sololá	4	Finca Santa Victoria	11	Noviembre	2023-11-25T00:00:00	2024-11-08T22:00:00	7	Dirección del viento	0
144427	7	Sololá	701	Sololá	4	Finca Santa Victoria	11	Noviembre	2023-11-25T00:00:00	2024-11-08T22:00:00	1	Precipitación	0
144428	7	Sololá	701	Sololá	4	Finca Santa Victoria	11	Noviembre	2023-11-25T00:00:00	2024-11-08T22:00:00	8	Radiación solar	0
144429	7	Sololá	701	Sololá	4	Finca Santa Victoria	11	Noviembre	2023-11-25T00:00:00	2024-11-08T23:00:00	2	Temperatura media	13.6
144430	7	Sololá	701	Sololá	4	Finca Santa Victoria	11	Noviembre	2023-11-25T00:00:00	2024-11-08T23:00:00	4	Temperatura máxima	13.6
144431	7	Sololá	701	Sololá	4	Finca Santa Victoria	11	Noviembre	2023-11-25T00:00:00	2024-11-08T23:00:00	3	Temperatura mínima	13.2
144432	7	Sololá	701	Sololá	4	Finca Santa Victoria	11	Noviembre	2023-11-25T00:00:00	2024-11-08T23:00:00	5	Humedad	89
144433	7	Sololá	701	Sololá	4	Finca Santa Victoria	11	Noviembre	2023-11-25T00:00:00	2024-11-08T23:00:00	6	Velocidad del viento	0
144434	7	Sololá	701	Sololá	4	Finca Santa Victoria	11	Noviembre	2023-11-25T00:00:00	2024-11-08T23:00:00	7	Dirección del viento	0
144435	7	Sololá	701	Sololá	4	Finca Santa Victoria	11	Noviembre	2023-11-25T00:00:00	2024-11-08T23:00:00	1	Precipitación	0
144436	7	Sololá	701	Sololá	4	Finca Santa Victoria	11	Noviembre	2023-11-25T00:00:00	2024-11-08T23:00:00	8	Radiación solar	0
144437	7	Sololá	701	Sololá	4	Finca Santa Victoria	11	Noviembre	2023-11-26T00:00:00	2024-11-08T00:00:00	2	Temperatura media	13.2
144438	7	Sololá	701	Sololá	4	Finca Santa Victoria	11	Noviembre	2023-11-26T00:00:00	2024-11-08T00:00:00	4	Temperatura máxima	13.6
144439	7	Sololá	701	Sololá	4	Finca Santa Victoria	11	Noviembre	2023-11-26T00:00:00	2024-11-08T00:00:00	3	Temperatura mínima	13.1
144440	7	Sololá	701	Sololá	4	Finca Santa Victoria	11	Noviembre	2023-11-26T00:00:00	2024-11-08T00:00:00	5	Humedad	88
144441	7	Sololá	701	Sololá	4	Finca Santa Victoria	11	Noviembre	2023-11-26T00:00:00	2024-11-08T00:00:00	6	Velocidad del viento	1.6
144442	7	Sololá	701	Sololá	4	Finca Santa Victoria	11	Noviembre	2023-11-26T00:00:00	2024-11-08T00:00:00	7	Dirección del viento	1.61
144443	7	Sololá	701	Sololá	4	Finca Santa Victoria	11	Noviembre	2023-11-26T00:00:00	2024-11-08T00:00:00	1	Precipitación	0
144444	7	Sololá	701	Sololá	4	Finca Santa Victoria	11	Noviembre	2023-11-26T00:00:00	2024-11-08T00:00:00	8	Radiación solar	0
144445	7	Sololá	701	Sololá	4	Finca Santa Victoria	11	Noviembre	2023-11-26T00:00:00	2024-11-08T01:00:00	2	Temperatura media	12.7
144446	7	Sololá	701	Sololá	4	Finca Santa Victoria	11	Noviembre	2023-11-26T00:00:00	2024-11-08T01:00:00	4	Temperatura máxima	13.2
144447	7	Sololá	701	Sololá	4	Finca Santa Victoria	11	Noviembre	2023-11-26T00:00:00	2024-11-08T01:00:00	3	Temperatura mínima	12.4
144448	7	Sololá	701	Sololá	4	Finca Santa Victoria	11	Noviembre	2023-11-26T00:00:00	2024-11-08T01:00:00	5	Humedad	92
144449	7	Sololá	701	Sololá	4	Finca Santa Victoria	11	Noviembre	2023-11-26T00:00:00	2024-11-08T01:00:00	6	Velocidad del viento	1.6
144450	7	Sololá	701	Sololá	4	Finca Santa Victoria	11	Noviembre	2023-11-26T00:00:00	2024-11-08T01:00:00	7	Dirección del viento	1.61
144451	7	Sololá	701	Sololá	4	Finca Santa Victoria	11	Noviembre	2023-11-26T00:00:00	2024-11-08T01:00:00	1	Precipitación	0
144452	7	Sololá	701	Sololá	4	Finca Santa Victoria	11	Noviembre	2023-11-26T00:00:00	2024-11-08T01:00:00	8	Radiación solar	0
144453	7	Sololá	701	Sololá	4	Finca Santa Victoria	11	Noviembre	2023-11-26T00:00:00	2024-11-08T02:00:00	2	Temperatura media	12
144454	7	Sololá	701	Sololá	4	Finca Santa Victoria	11	Noviembre	2023-11-26T00:00:00	2024-11-08T02:00:00	4	Temperatura máxima	12.7
144455	7	Sololá	701	Sololá	4	Finca Santa Victoria	11	Noviembre	2023-11-26T00:00:00	2024-11-08T02:00:00	3	Temperatura mínima	11.9
144456	7	Sololá	701	Sololá	4	Finca Santa Victoria	11	Noviembre	2023-11-26T00:00:00	2024-11-08T02:00:00	5	Humedad	92
144457	7	Sololá	701	Sololá	4	Finca Santa Victoria	11	Noviembre	2023-11-26T00:00:00	2024-11-08T02:00:00	6	Velocidad del viento	1.6
144458	7	Sololá	701	Sololá	4	Finca Santa Victoria	11	Noviembre	2023-11-26T00:00:00	2024-11-08T02:00:00	7	Dirección del viento	1.61
144459	7	Sololá	701	Sololá	4	Finca Santa Victoria	11	Noviembre	2023-11-26T00:00:00	2024-11-08T02:00:00	1	Precipitación	0
144460	7	Sololá	701	Sololá	4	Finca Santa Victoria	11	Noviembre	2023-11-26T00:00:00	2024-11-08T02:00:00	8	Radiación solar	0
144461	7	Sololá	701	Sololá	4	Finca Santa Victoria	11	Noviembre	2023-11-26T00:00:00	2024-11-08T03:00:00	2	Temperatura media	11.7
144462	7	Sololá	701	Sololá	4	Finca Santa Victoria	11	Noviembre	2023-11-26T00:00:00	2024-11-08T03:00:00	4	Temperatura máxima	12.2
144463	7	Sololá	701	Sololá	4	Finca Santa Victoria	11	Noviembre	2023-11-26T00:00:00	2024-11-08T03:00:00	3	Temperatura mínima	11.7
144464	7	Sololá	701	Sololá	4	Finca Santa Victoria	11	Noviembre	2023-11-26T00:00:00	2024-11-08T03:00:00	5	Humedad	93
144465	7	Sololá	701	Sololá	4	Finca Santa Victoria	11	Noviembre	2023-11-26T00:00:00	2024-11-08T03:00:00	6	Velocidad del viento	1.6
144466	7	Sololá	701	Sololá	4	Finca Santa Victoria	11	Noviembre	2023-11-26T00:00:00	2024-11-08T03:00:00	7	Dirección del viento	1.61
144467	7	Sololá	701	Sololá	4	Finca Santa Victoria	11	Noviembre	2023-11-26T00:00:00	2024-11-08T03:00:00	1	Precipitación	0
144468	7	Sololá	701	Sololá	4	Finca Santa Victoria	11	Noviembre	2023-11-26T00:00:00	2024-11-08T03:00:00	8	Radiación solar	0
144469	7	Sololá	701	Sololá	4	Finca Santa Victoria	11	Noviembre	2023-11-26T00:00:00	2024-11-08T04:00:00	2	Temperatura media	11.3
144470	7	Sololá	701	Sololá	4	Finca Santa Victoria	11	Noviembre	2023-11-26T00:00:00	2024-11-08T04:00:00	4	Temperatura máxima	11.8
144471	7	Sololá	701	Sololá	4	Finca Santa Victoria	11	Noviembre	2023-11-26T00:00:00	2024-11-08T04:00:00	3	Temperatura mínima	11.3
144472	7	Sololá	701	Sololá	4	Finca Santa Victoria	11	Noviembre	2023-11-26T00:00:00	2024-11-08T04:00:00	5	Humedad	96
144473	7	Sololá	701	Sololá	4	Finca Santa Victoria	11	Noviembre	2023-11-26T00:00:00	2024-11-08T04:00:00	6	Velocidad del viento	1.6
144474	7	Sololá	701	Sololá	4	Finca Santa Victoria	11	Noviembre	2023-11-26T00:00:00	2024-11-08T04:00:00	7	Dirección del viento	1.61
144475	7	Sololá	701	Sololá	4	Finca Santa Victoria	11	Noviembre	2023-11-26T00:00:00	2024-11-08T04:00:00	1	Precipitación	0
144476	7	Sololá	701	Sololá	4	Finca Santa Victoria	11	Noviembre	2023-11-26T00:00:00	2024-11-08T04:00:00	8	Radiación solar	0
144477	7	Sololá	701	Sololá	4	Finca Santa Victoria	11	Noviembre	2023-11-26T00:00:00	2024-11-08T05:00:00	2	Temperatura media	11.6
144478	7	Sololá	701	Sololá	4	Finca Santa Victoria	11	Noviembre	2023-11-26T00:00:00	2024-11-08T05:00:00	4	Temperatura máxima	11.6
144479	7	Sololá	701	Sololá	4	Finca Santa Victoria	11	Noviembre	2023-11-26T00:00:00	2024-11-08T05:00:00	3	Temperatura mínima	11.1
144480	7	Sololá	701	Sololá	4	Finca Santa Victoria	11	Noviembre	2023-11-26T00:00:00	2024-11-08T05:00:00	5	Humedad	95
144481	7	Sololá	701	Sololá	4	Finca Santa Victoria	11	Noviembre	2023-11-26T00:00:00	2024-11-08T05:00:00	6	Velocidad del viento	1.6
144482	7	Sololá	701	Sololá	4	Finca Santa Victoria	11	Noviembre	2023-11-26T00:00:00	2024-11-08T05:00:00	7	Dirección del viento	1.61
144483	7	Sololá	701	Sololá	4	Finca Santa Victoria	11	Noviembre	2023-11-26T00:00:00	2024-11-08T05:00:00	1	Precipitación	0
144484	7	Sololá	701	Sololá	4	Finca Santa Victoria	11	Noviembre	2023-11-26T00:00:00	2024-11-08T05:00:00	8	Radiación solar	0
144485	7	Sololá	701	Sololá	4	Finca Santa Victoria	11	Noviembre	2023-11-26T00:00:00	2024-11-08T06:00:00	2	Temperatura media	11.2
144486	7	Sololá	701	Sololá	4	Finca Santa Victoria	11	Noviembre	2023-11-26T00:00:00	2024-11-08T06:00:00	4	Temperatura máxima	11.6
144487	7	Sololá	701	Sololá	4	Finca Santa Victoria	11	Noviembre	2023-11-26T00:00:00	2024-11-08T06:00:00	3	Temperatura mínima	11.1
144488	7	Sololá	701	Sololá	4	Finca Santa Victoria	11	Noviembre	2023-11-26T00:00:00	2024-11-08T06:00:00	5	Humedad	94
144489	7	Sololá	701	Sololá	4	Finca Santa Victoria	11	Noviembre	2023-11-26T00:00:00	2024-11-08T06:00:00	6	Velocidad del viento	0
144490	7	Sololá	701	Sololá	4	Finca Santa Victoria	11	Noviembre	2023-11-26T00:00:00	2024-11-08T06:00:00	7	Dirección del viento	0
144491	7	Sololá	701	Sololá	4	Finca Santa Victoria	11	Noviembre	2023-11-26T00:00:00	2024-11-08T06:00:00	1	Precipitación	0
144492	7	Sololá	701	Sololá	4	Finca Santa Victoria	11	Noviembre	2023-11-26T00:00:00	2024-11-08T06:00:00	8	Radiación solar	0
144493	7	Sololá	701	Sololá	4	Finca Santa Victoria	11	Noviembre	2023-11-26T00:00:00	2024-11-08T07:00:00	2	Temperatura media	11.8
144494	7	Sololá	701	Sololá	4	Finca Santa Victoria	11	Noviembre	2023-11-26T00:00:00	2024-11-08T07:00:00	4	Temperatura máxima	11.9
144495	7	Sololá	701	Sololá	4	Finca Santa Victoria	11	Noviembre	2023-11-26T00:00:00	2024-11-08T07:00:00	3	Temperatura mínima	10.8
144496	7	Sololá	701	Sololá	4	Finca Santa Victoria	11	Noviembre	2023-11-26T00:00:00	2024-11-08T07:00:00	5	Humedad	91
144497	7	Sololá	701	Sololá	4	Finca Santa Victoria	11	Noviembre	2023-11-26T00:00:00	2024-11-08T07:00:00	6	Velocidad del viento	0
144498	7	Sololá	701	Sololá	4	Finca Santa Victoria	11	Noviembre	2023-11-26T00:00:00	2024-11-08T07:00:00	7	Dirección del viento	0
144499	7	Sololá	701	Sololá	4	Finca Santa Victoria	11	Noviembre	2023-11-26T00:00:00	2024-11-08T07:00:00	1	Precipitación	0
144500	7	Sololá	701	Sololá	4	Finca Santa Victoria	11	Noviembre	2023-11-26T00:00:00	2024-11-08T07:00:00	8	Radiación solar	11
144501	7	Sololá	701	Sololá	4	Finca Santa Victoria	11	Noviembre	2023-11-26T00:00:00	2024-11-08T08:00:00	2	Temperatura media	14.3
144502	7	Sololá	701	Sololá	4	Finca Santa Victoria	11	Noviembre	2023-11-26T00:00:00	2024-11-08T08:00:00	4	Temperatura máxima	14.3
144503	7	Sololá	701	Sololá	4	Finca Santa Victoria	11	Noviembre	2023-11-26T00:00:00	2024-11-08T08:00:00	3	Temperatura mínima	11.9
144504	7	Sololá	701	Sololá	4	Finca Santa Victoria	11	Noviembre	2023-11-26T00:00:00	2024-11-08T08:00:00	5	Humedad	83
144505	7	Sololá	701	Sololá	4	Finca Santa Victoria	11	Noviembre	2023-11-26T00:00:00	2024-11-08T08:00:00	6	Velocidad del viento	1.6
144506	7	Sololá	701	Sololá	4	Finca Santa Victoria	11	Noviembre	2023-11-26T00:00:00	2024-11-08T08:00:00	7	Dirección del viento	1.61
144507	7	Sololá	701	Sololá	4	Finca Santa Victoria	11	Noviembre	2023-11-26T00:00:00	2024-11-08T08:00:00	1	Precipitación	0
144508	7	Sololá	701	Sololá	4	Finca Santa Victoria	11	Noviembre	2023-11-26T00:00:00	2024-11-08T08:00:00	8	Radiación solar	55
144509	7	Sololá	701	Sololá	4	Finca Santa Victoria	11	Noviembre	2023-11-26T00:00:00	2024-11-08T09:00:00	2	Temperatura media	16.6
144510	7	Sololá	701	Sololá	4	Finca Santa Victoria	11	Noviembre	2023-11-26T00:00:00	2024-11-08T09:00:00	4	Temperatura máxima	16.6
144511	7	Sololá	701	Sololá	4	Finca Santa Victoria	11	Noviembre	2023-11-26T00:00:00	2024-11-08T09:00:00	3	Temperatura mínima	14.3
144512	7	Sololá	701	Sololá	4	Finca Santa Victoria	11	Noviembre	2023-11-26T00:00:00	2024-11-08T09:00:00	5	Humedad	76
144513	7	Sololá	701	Sololá	4	Finca Santa Victoria	11	Noviembre	2023-11-26T00:00:00	2024-11-08T09:00:00	6	Velocidad del viento	1.6
144514	7	Sololá	701	Sololá	4	Finca Santa Victoria	11	Noviembre	2023-11-26T00:00:00	2024-11-08T09:00:00	7	Dirección del viento	1.61
144515	7	Sololá	701	Sololá	4	Finca Santa Victoria	11	Noviembre	2023-11-26T00:00:00	2024-11-08T09:00:00	1	Precipitación	0
144516	7	Sololá	701	Sololá	4	Finca Santa Victoria	11	Noviembre	2023-11-26T00:00:00	2024-11-08T09:00:00	8	Radiación solar	125
144517	7	Sololá	701	Sololá	4	Finca Santa Victoria	11	Noviembre	2023-11-26T00:00:00	2024-11-08T10:00:00	2	Temperatura media	19.2
144518	7	Sololá	701	Sololá	4	Finca Santa Victoria	11	Noviembre	2023-11-26T00:00:00	2024-11-08T10:00:00	4	Temperatura máxima	19.2
144519	7	Sololá	701	Sololá	4	Finca Santa Victoria	11	Noviembre	2023-11-26T00:00:00	2024-11-08T10:00:00	3	Temperatura mínima	16.6
144520	7	Sololá	701	Sololá	4	Finca Santa Victoria	11	Noviembre	2023-11-26T00:00:00	2024-11-08T10:00:00	5	Humedad	67
144521	7	Sololá	701	Sololá	4	Finca Santa Victoria	11	Noviembre	2023-11-26T00:00:00	2024-11-08T10:00:00	6	Velocidad del viento	3.2
144522	7	Sololá	701	Sololá	4	Finca Santa Victoria	11	Noviembre	2023-11-26T00:00:00	2024-11-08T10:00:00	7	Dirección del viento	3.22
144523	7	Sololá	701	Sololá	4	Finca Santa Victoria	11	Noviembre	2023-11-26T00:00:00	2024-11-08T10:00:00	1	Precipitación	0
144524	7	Sololá	701	Sololá	4	Finca Santa Victoria	11	Noviembre	2023-11-26T00:00:00	2024-11-08T10:00:00	8	Radiación solar	711
144525	7	Sololá	701	Sololá	4	Finca Santa Victoria	11	Noviembre	2023-11-26T00:00:00	2024-11-08T11:00:00	2	Temperatura media	20.5
144526	7	Sololá	701	Sololá	4	Finca Santa Victoria	11	Noviembre	2023-11-26T00:00:00	2024-11-08T11:00:00	4	Temperatura máxima	20.9
144527	7	Sololá	701	Sololá	4	Finca Santa Victoria	11	Noviembre	2023-11-26T00:00:00	2024-11-08T11:00:00	3	Temperatura mínima	19.2
144528	7	Sololá	701	Sololá	4	Finca Santa Victoria	11	Noviembre	2023-11-26T00:00:00	2024-11-08T11:00:00	5	Humedad	62
144529	7	Sololá	701	Sololá	4	Finca Santa Victoria	11	Noviembre	2023-11-26T00:00:00	2024-11-08T11:00:00	6	Velocidad del viento	3.2
144530	7	Sololá	701	Sololá	4	Finca Santa Victoria	11	Noviembre	2023-11-26T00:00:00	2024-11-08T11:00:00	7	Dirección del viento	3.22
144531	7	Sololá	701	Sololá	4	Finca Santa Victoria	11	Noviembre	2023-11-26T00:00:00	2024-11-08T11:00:00	1	Precipitación	0
144532	7	Sololá	701	Sololá	4	Finca Santa Victoria	11	Noviembre	2023-11-26T00:00:00	2024-11-08T11:00:00	8	Radiación solar	823
144533	7	Sololá	701	Sololá	4	Finca Santa Victoria	11	Noviembre	2023-11-26T00:00:00	2024-11-08T12:00:00	2	Temperatura media	20.9
144534	7	Sololá	701	Sololá	4	Finca Santa Victoria	11	Noviembre	2023-11-26T00:00:00	2024-11-08T12:00:00	4	Temperatura máxima	21.3
144535	7	Sololá	701	Sololá	4	Finca Santa Victoria	11	Noviembre	2023-11-26T00:00:00	2024-11-08T12:00:00	3	Temperatura mínima	20.5
144536	7	Sololá	701	Sololá	4	Finca Santa Victoria	11	Noviembre	2023-11-26T00:00:00	2024-11-08T12:00:00	5	Humedad	64
144537	7	Sololá	701	Sololá	4	Finca Santa Victoria	11	Noviembre	2023-11-26T00:00:00	2024-11-08T12:00:00	6	Velocidad del viento	3.2
144538	7	Sololá	701	Sololá	4	Finca Santa Victoria	11	Noviembre	2023-11-26T00:00:00	2024-11-08T12:00:00	7	Dirección del viento	3.22
144539	7	Sololá	701	Sololá	4	Finca Santa Victoria	11	Noviembre	2023-11-26T00:00:00	2024-11-08T12:00:00	1	Precipitación	0
144540	7	Sololá	701	Sololá	4	Finca Santa Victoria	11	Noviembre	2023-11-26T00:00:00	2024-11-08T12:00:00	8	Radiación solar	816
144541	7	Sololá	701	Sololá	4	Finca Santa Victoria	11	Noviembre	2023-11-26T00:00:00	2024-11-08T13:00:00	2	Temperatura media	19.5
144542	7	Sololá	701	Sololá	4	Finca Santa Victoria	11	Noviembre	2023-11-26T00:00:00	2024-11-08T13:00:00	4	Temperatura máxima	22.3
144543	7	Sololá	701	Sololá	4	Finca Santa Victoria	11	Noviembre	2023-11-26T00:00:00	2024-11-08T13:00:00	3	Temperatura mínima	19.5
144544	7	Sololá	701	Sololá	4	Finca Santa Victoria	11	Noviembre	2023-11-26T00:00:00	2024-11-08T13:00:00	5	Humedad	67
144545	7	Sololá	701	Sololá	4	Finca Santa Victoria	11	Noviembre	2023-11-26T00:00:00	2024-11-08T13:00:00	6	Velocidad del viento	1.6
144546	7	Sololá	701	Sololá	4	Finca Santa Victoria	11	Noviembre	2023-11-26T00:00:00	2024-11-08T13:00:00	7	Dirección del viento	1.61
144547	7	Sololá	701	Sololá	4	Finca Santa Victoria	11	Noviembre	2023-11-26T00:00:00	2024-11-08T13:00:00	1	Precipitación	0
144548	7	Sololá	701	Sololá	4	Finca Santa Victoria	11	Noviembre	2023-11-26T00:00:00	2024-11-08T13:00:00	8	Radiación solar	412
144549	7	Sololá	701	Sololá	4	Finca Santa Victoria	11	Noviembre	2023-11-26T00:00:00	2024-11-08T14:00:00	2	Temperatura media	19.4
144550	7	Sololá	701	Sololá	4	Finca Santa Victoria	11	Noviembre	2023-11-26T00:00:00	2024-11-08T14:00:00	4	Temperatura máxima	19.6
144551	7	Sololá	701	Sololá	4	Finca Santa Victoria	11	Noviembre	2023-11-26T00:00:00	2024-11-08T14:00:00	3	Temperatura mínima	18.8
144552	7	Sololá	701	Sololá	4	Finca Santa Victoria	11	Noviembre	2023-11-26T00:00:00	2024-11-08T14:00:00	5	Humedad	75
144553	7	Sololá	701	Sololá	4	Finca Santa Victoria	11	Noviembre	2023-11-26T00:00:00	2024-11-08T14:00:00	6	Velocidad del viento	1.6
144554	7	Sololá	701	Sololá	4	Finca Santa Victoria	11	Noviembre	2023-11-26T00:00:00	2024-11-08T14:00:00	7	Dirección del viento	1.61
144555	7	Sololá	701	Sololá	4	Finca Santa Victoria	11	Noviembre	2023-11-26T00:00:00	2024-11-08T14:00:00	1	Precipitación	0
144556	7	Sololá	701	Sololá	4	Finca Santa Victoria	11	Noviembre	2023-11-26T00:00:00	2024-11-08T14:00:00	8	Radiación solar	183
144557	7	Sololá	701	Sololá	4	Finca Santa Victoria	11	Noviembre	2023-11-26T00:00:00	2024-11-08T15:00:00	2	Temperatura media	18.7
144558	7	Sololá	701	Sololá	4	Finca Santa Victoria	11	Noviembre	2023-11-26T00:00:00	2024-11-08T15:00:00	4	Temperatura máxima	21.2
144559	7	Sololá	701	Sololá	4	Finca Santa Victoria	11	Noviembre	2023-11-26T00:00:00	2024-11-08T15:00:00	3	Temperatura mínima	18.7
144560	7	Sololá	701	Sololá	4	Finca Santa Victoria	11	Noviembre	2023-11-26T00:00:00	2024-11-08T15:00:00	5	Humedad	82
144561	7	Sololá	701	Sololá	4	Finca Santa Victoria	11	Noviembre	2023-11-26T00:00:00	2024-11-08T15:00:00	6	Velocidad del viento	3.2
144562	7	Sololá	701	Sololá	4	Finca Santa Victoria	11	Noviembre	2023-11-26T00:00:00	2024-11-08T15:00:00	7	Dirección del viento	3.22
144563	7	Sololá	701	Sololá	4	Finca Santa Victoria	11	Noviembre	2023-11-26T00:00:00	2024-11-08T15:00:00	1	Precipitación	0
144564	7	Sololá	701	Sololá	4	Finca Santa Victoria	11	Noviembre	2023-11-26T00:00:00	2024-11-08T15:00:00	8	Radiación solar	93
144565	7	Sololá	701	Sololá	4	Finca Santa Victoria	11	Noviembre	2023-11-26T00:00:00	2024-11-08T16:00:00	2	Temperatura media	19
144566	7	Sololá	701	Sololá	4	Finca Santa Victoria	11	Noviembre	2023-11-26T00:00:00	2024-11-08T16:00:00	4	Temperatura máxima	19.2
144567	7	Sololá	701	Sololá	4	Finca Santa Victoria	11	Noviembre	2023-11-26T00:00:00	2024-11-08T16:00:00	3	Temperatura mínima	17.8
144568	7	Sololá	701	Sololá	4	Finca Santa Victoria	11	Noviembre	2023-11-26T00:00:00	2024-11-08T16:00:00	5	Humedad	70
144569	7	Sololá	701	Sololá	4	Finca Santa Victoria	11	Noviembre	2023-11-26T00:00:00	2024-11-08T16:00:00	6	Velocidad del viento	1.6
144570	7	Sololá	701	Sololá	4	Finca Santa Victoria	11	Noviembre	2023-11-26T00:00:00	2024-11-08T16:00:00	7	Dirección del viento	1.61
144571	7	Sololá	701	Sololá	4	Finca Santa Victoria	11	Noviembre	2023-11-26T00:00:00	2024-11-08T16:00:00	1	Precipitación	0
144572	7	Sololá	701	Sololá	4	Finca Santa Victoria	11	Noviembre	2023-11-26T00:00:00	2024-11-08T16:00:00	8	Radiación solar	161
144573	7	Sololá	701	Sololá	4	Finca Santa Victoria	11	Noviembre	2023-11-26T00:00:00	2024-11-08T17:00:00	2	Temperatura media	18.3
144574	7	Sololá	701	Sololá	4	Finca Santa Victoria	11	Noviembre	2023-11-26T00:00:00	2024-11-08T17:00:00	4	Temperatura máxima	19.7
144575	7	Sololá	701	Sololá	4	Finca Santa Victoria	11	Noviembre	2023-11-26T00:00:00	2024-11-08T17:00:00	3	Temperatura mínima	18.3
144576	7	Sololá	701	Sololá	4	Finca Santa Victoria	11	Noviembre	2023-11-26T00:00:00	2024-11-08T17:00:00	5	Humedad	66
144577	7	Sololá	701	Sololá	4	Finca Santa Victoria	11	Noviembre	2023-11-26T00:00:00	2024-11-08T17:00:00	6	Velocidad del viento	1.6
144578	7	Sololá	701	Sololá	4	Finca Santa Victoria	11	Noviembre	2023-11-26T00:00:00	2024-11-08T17:00:00	7	Dirección del viento	1.61
144579	7	Sololá	701	Sololá	4	Finca Santa Victoria	11	Noviembre	2023-11-26T00:00:00	2024-11-08T17:00:00	1	Precipitación	0
144580	7	Sololá	701	Sololá	4	Finca Santa Victoria	11	Noviembre	2023-11-26T00:00:00	2024-11-08T17:00:00	8	Radiación solar	129
144581	7	Sololá	701	Sololá	4	Finca Santa Victoria	11	Noviembre	2023-11-26T00:00:00	2024-11-08T18:00:00	2	Temperatura media	15.3
144582	7	Sololá	701	Sololá	4	Finca Santa Victoria	11	Noviembre	2023-11-26T00:00:00	2024-11-08T18:00:00	4	Temperatura máxima	18.3
144583	7	Sololá	701	Sololá	4	Finca Santa Victoria	11	Noviembre	2023-11-26T00:00:00	2024-11-08T18:00:00	3	Temperatura mínima	15.3
144584	7	Sololá	701	Sololá	4	Finca Santa Victoria	11	Noviembre	2023-11-26T00:00:00	2024-11-08T18:00:00	5	Humedad	77
144585	7	Sololá	701	Sololá	4	Finca Santa Victoria	11	Noviembre	2023-11-26T00:00:00	2024-11-08T18:00:00	6	Velocidad del viento	1.6
144586	7	Sololá	701	Sololá	4	Finca Santa Victoria	11	Noviembre	2023-11-26T00:00:00	2024-11-08T18:00:00	7	Dirección del viento	1.61
144587	7	Sololá	701	Sololá	4	Finca Santa Victoria	11	Noviembre	2023-11-26T00:00:00	2024-11-08T18:00:00	1	Precipitación	0
144588	7	Sololá	701	Sololá	4	Finca Santa Victoria	11	Noviembre	2023-11-26T00:00:00	2024-11-08T18:00:00	8	Radiación solar	9
144589	7	Sololá	701	Sololá	4	Finca Santa Victoria	11	Noviembre	2023-11-26T00:00:00	2024-11-08T19:00:00	2	Temperatura media	14.9
144590	7	Sololá	701	Sololá	4	Finca Santa Victoria	11	Noviembre	2023-11-26T00:00:00	2024-11-08T19:00:00	4	Temperatura máxima	15.4
144591	7	Sololá	701	Sololá	4	Finca Santa Victoria	11	Noviembre	2023-11-26T00:00:00	2024-11-08T19:00:00	3	Temperatura mínima	14.6
144592	7	Sololá	701	Sololá	4	Finca Santa Victoria	11	Noviembre	2023-11-26T00:00:00	2024-11-08T19:00:00	5	Humedad	83
144593	7	Sololá	701	Sololá	4	Finca Santa Victoria	11	Noviembre	2023-11-26T00:00:00	2024-11-08T19:00:00	6	Velocidad del viento	1.6
144594	7	Sololá	701	Sololá	4	Finca Santa Victoria	11	Noviembre	2023-11-26T00:00:00	2024-11-08T19:00:00	7	Dirección del viento	1.61
144595	7	Sololá	701	Sololá	4	Finca Santa Victoria	11	Noviembre	2023-11-26T00:00:00	2024-11-08T19:00:00	1	Precipitación	0
144596	7	Sololá	701	Sololá	4	Finca Santa Victoria	11	Noviembre	2023-11-26T00:00:00	2024-11-08T19:00:00	8	Radiación solar	0
144597	7	Sololá	701	Sololá	4	Finca Santa Victoria	11	Noviembre	2023-11-26T00:00:00	2024-11-08T20:00:00	2	Temperatura media	14.9
144598	7	Sololá	701	Sololá	4	Finca Santa Victoria	11	Noviembre	2023-11-26T00:00:00	2024-11-08T20:00:00	4	Temperatura máxima	15.1
144599	7	Sololá	701	Sololá	4	Finca Santa Victoria	11	Noviembre	2023-11-26T00:00:00	2024-11-08T20:00:00	3	Temperatura mínima	14.8
144600	7	Sololá	701	Sololá	4	Finca Santa Victoria	11	Noviembre	2023-11-26T00:00:00	2024-11-08T20:00:00	5	Humedad	85
144601	7	Sololá	701	Sololá	4	Finca Santa Victoria	11	Noviembre	2023-11-26T00:00:00	2024-11-08T20:00:00	6	Velocidad del viento	3.2
144602	7	Sololá	701	Sololá	4	Finca Santa Victoria	11	Noviembre	2023-11-26T00:00:00	2024-11-08T20:00:00	7	Dirección del viento	3.22
144603	7	Sololá	701	Sololá	4	Finca Santa Victoria	11	Noviembre	2023-11-26T00:00:00	2024-11-08T20:00:00	1	Precipitación	0
144604	7	Sololá	701	Sololá	4	Finca Santa Victoria	11	Noviembre	2023-11-26T00:00:00	2024-11-08T20:00:00	8	Radiación solar	0
144605	7	Sololá	701	Sololá	4	Finca Santa Victoria	11	Noviembre	2023-11-26T00:00:00	2024-11-08T21:00:00	2	Temperatura media	14.4
144606	7	Sololá	701	Sololá	4	Finca Santa Victoria	11	Noviembre	2023-11-26T00:00:00	2024-11-08T21:00:00	4	Temperatura máxima	14.9
144607	7	Sololá	701	Sololá	4	Finca Santa Victoria	11	Noviembre	2023-11-26T00:00:00	2024-11-08T21:00:00	3	Temperatura mínima	14.4
144608	7	Sololá	701	Sololá	4	Finca Santa Victoria	11	Noviembre	2023-11-26T00:00:00	2024-11-08T21:00:00	5	Humedad	88
144609	7	Sololá	701	Sololá	4	Finca Santa Victoria	11	Noviembre	2023-11-26T00:00:00	2024-11-08T21:00:00	6	Velocidad del viento	3.2
144610	7	Sololá	701	Sololá	4	Finca Santa Victoria	11	Noviembre	2023-11-26T00:00:00	2024-11-08T21:00:00	7	Dirección del viento	3.22
144611	7	Sololá	701	Sololá	4	Finca Santa Victoria	11	Noviembre	2023-11-26T00:00:00	2024-11-08T21:00:00	1	Precipitación	0
144612	7	Sololá	701	Sololá	4	Finca Santa Victoria	11	Noviembre	2023-11-26T00:00:00	2024-11-08T21:00:00	8	Radiación solar	0
144613	7	Sololá	701	Sololá	4	Finca Santa Victoria	11	Noviembre	2023-11-26T00:00:00	2024-11-08T22:00:00	2	Temperatura media	14.1
144614	7	Sololá	701	Sololá	4	Finca Santa Victoria	11	Noviembre	2023-11-26T00:00:00	2024-11-08T22:00:00	4	Temperatura máxima	14.4
144615	7	Sololá	701	Sololá	4	Finca Santa Victoria	11	Noviembre	2023-11-26T00:00:00	2024-11-08T22:00:00	3	Temperatura mínima	14.1
144616	7	Sololá	701	Sololá	4	Finca Santa Victoria	11	Noviembre	2023-11-26T00:00:00	2024-11-08T22:00:00	5	Humedad	85
144617	7	Sololá	701	Sololá	4	Finca Santa Victoria	11	Noviembre	2023-11-26T00:00:00	2024-11-08T22:00:00	6	Velocidad del viento	3.2
144618	7	Sololá	701	Sololá	4	Finca Santa Victoria	11	Noviembre	2023-11-26T00:00:00	2024-11-08T22:00:00	7	Dirección del viento	3.22
144619	7	Sololá	701	Sololá	4	Finca Santa Victoria	11	Noviembre	2023-11-26T00:00:00	2024-11-08T22:00:00	1	Precipitación	0
144620	7	Sololá	701	Sololá	4	Finca Santa Victoria	11	Noviembre	2023-11-26T00:00:00	2024-11-08T22:00:00	8	Radiación solar	0
144621	7	Sololá	701	Sololá	4	Finca Santa Victoria	11	Noviembre	2023-11-26T00:00:00	2024-11-08T23:00:00	2	Temperatura media	13.6
144622	7	Sololá	701	Sololá	4	Finca Santa Victoria	11	Noviembre	2023-11-26T00:00:00	2024-11-08T23:00:00	4	Temperatura máxima	14.1
144623	7	Sololá	701	Sololá	4	Finca Santa Victoria	11	Noviembre	2023-11-26T00:00:00	2024-11-08T23:00:00	3	Temperatura mínima	13.6
144624	7	Sololá	701	Sololá	4	Finca Santa Victoria	11	Noviembre	2023-11-26T00:00:00	2024-11-08T23:00:00	5	Humedad	85
144625	7	Sololá	701	Sololá	4	Finca Santa Victoria	11	Noviembre	2023-11-26T00:00:00	2024-11-08T23:00:00	6	Velocidad del viento	4.8
144626	7	Sololá	701	Sololá	4	Finca Santa Victoria	11	Noviembre	2023-11-26T00:00:00	2024-11-08T23:00:00	7	Dirección del viento	4.83
144627	7	Sololá	701	Sololá	4	Finca Santa Victoria	11	Noviembre	2023-11-26T00:00:00	2024-11-08T23:00:00	1	Precipitación	0
144628	7	Sololá	701	Sololá	4	Finca Santa Victoria	11	Noviembre	2023-11-26T00:00:00	2024-11-08T23:00:00	8	Radiación solar	0
144629	7	Sololá	701	Sololá	4	Finca Santa Victoria	11	Noviembre	2023-11-27T00:00:00	2024-11-08T00:00:00	2	Temperatura media	13.3
144630	7	Sololá	701	Sololá	4	Finca Santa Victoria	11	Noviembre	2023-11-27T00:00:00	2024-11-08T00:00:00	4	Temperatura máxima	13.6
144631	7	Sololá	701	Sololá	4	Finca Santa Victoria	11	Noviembre	2023-11-27T00:00:00	2024-11-08T00:00:00	3	Temperatura mínima	13.3
144632	7	Sololá	701	Sololá	4	Finca Santa Victoria	11	Noviembre	2023-11-27T00:00:00	2024-11-08T00:00:00	5	Humedad	85
144633	7	Sololá	701	Sololá	4	Finca Santa Victoria	11	Noviembre	2023-11-27T00:00:00	2024-11-08T00:00:00	6	Velocidad del viento	4.8
144634	7	Sololá	701	Sololá	4	Finca Santa Victoria	11	Noviembre	2023-11-27T00:00:00	2024-11-08T00:00:00	7	Dirección del viento	4.83
144635	7	Sololá	701	Sololá	4	Finca Santa Victoria	11	Noviembre	2023-11-27T00:00:00	2024-11-08T00:00:00	1	Precipitación	0
144636	7	Sololá	701	Sololá	4	Finca Santa Victoria	11	Noviembre	2023-11-27T00:00:00	2024-11-08T00:00:00	8	Radiación solar	0
144637	7	Sololá	701	Sololá	4	Finca Santa Victoria	11	Noviembre	2023-11-27T00:00:00	2024-11-08T01:00:00	2	Temperatura media	13.1
144638	7	Sololá	701	Sololá	4	Finca Santa Victoria	11	Noviembre	2023-11-27T00:00:00	2024-11-08T01:00:00	4	Temperatura máxima	13.3
144639	7	Sololá	701	Sololá	4	Finca Santa Victoria	11	Noviembre	2023-11-27T00:00:00	2024-11-08T01:00:00	3	Temperatura mínima	13.1
144640	7	Sololá	701	Sololá	4	Finca Santa Victoria	11	Noviembre	2023-11-27T00:00:00	2024-11-08T01:00:00	5	Humedad	86
144641	7	Sololá	701	Sololá	4	Finca Santa Victoria	11	Noviembre	2023-11-27T00:00:00	2024-11-08T01:00:00	6	Velocidad del viento	4.8
144642	7	Sololá	701	Sololá	4	Finca Santa Victoria	11	Noviembre	2023-11-27T00:00:00	2024-11-08T01:00:00	7	Dirección del viento	4.83
144643	7	Sololá	701	Sololá	4	Finca Santa Victoria	11	Noviembre	2023-11-27T00:00:00	2024-11-08T01:00:00	1	Precipitación	0
144644	7	Sololá	701	Sololá	4	Finca Santa Victoria	11	Noviembre	2023-11-27T00:00:00	2024-11-08T01:00:00	8	Radiación solar	0
144645	7	Sololá	701	Sololá	4	Finca Santa Victoria	11	Noviembre	2023-11-27T00:00:00	2024-11-08T02:00:00	2	Temperatura media	12.9
144646	7	Sololá	701	Sololá	4	Finca Santa Victoria	11	Noviembre	2023-11-27T00:00:00	2024-11-08T02:00:00	4	Temperatura máxima	13.1
144647	7	Sololá	701	Sololá	4	Finca Santa Victoria	11	Noviembre	2023-11-27T00:00:00	2024-11-08T02:00:00	3	Temperatura mínima	12.8
144648	7	Sololá	701	Sololá	4	Finca Santa Victoria	11	Noviembre	2023-11-27T00:00:00	2024-11-08T02:00:00	5	Humedad	85
144649	7	Sololá	701	Sololá	4	Finca Santa Victoria	11	Noviembre	2023-11-27T00:00:00	2024-11-08T02:00:00	6	Velocidad del viento	4.8
144650	7	Sololá	701	Sololá	4	Finca Santa Victoria	11	Noviembre	2023-11-27T00:00:00	2024-11-08T02:00:00	7	Dirección del viento	4.83
144651	7	Sololá	701	Sololá	4	Finca Santa Victoria	11	Noviembre	2023-11-27T00:00:00	2024-11-08T02:00:00	1	Precipitación	0
144652	7	Sololá	701	Sololá	4	Finca Santa Victoria	11	Noviembre	2023-11-27T00:00:00	2024-11-08T02:00:00	8	Radiación solar	0
144653	7	Sololá	701	Sololá	4	Finca Santa Victoria	11	Noviembre	2023-11-27T00:00:00	2024-11-08T03:00:00	2	Temperatura media	12.9
144654	7	Sololá	701	Sololá	4	Finca Santa Victoria	11	Noviembre	2023-11-27T00:00:00	2024-11-08T03:00:00	4	Temperatura máxima	12.9
144655	7	Sololá	701	Sololá	4	Finca Santa Victoria	11	Noviembre	2023-11-27T00:00:00	2024-11-08T03:00:00	3	Temperatura mínima	12.7
144656	7	Sololá	701	Sololá	4	Finca Santa Victoria	11	Noviembre	2023-11-27T00:00:00	2024-11-08T03:00:00	5	Humedad	86
144657	7	Sololá	701	Sololá	4	Finca Santa Victoria	11	Noviembre	2023-11-27T00:00:00	2024-11-08T03:00:00	6	Velocidad del viento	4.8
144658	7	Sololá	701	Sololá	4	Finca Santa Victoria	11	Noviembre	2023-11-27T00:00:00	2024-11-08T03:00:00	7	Dirección del viento	4.83
144659	7	Sololá	701	Sololá	4	Finca Santa Victoria	11	Noviembre	2023-11-27T00:00:00	2024-11-08T03:00:00	1	Precipitación	0
144660	7	Sololá	701	Sololá	4	Finca Santa Victoria	11	Noviembre	2023-11-27T00:00:00	2024-11-08T03:00:00	8	Radiación solar	0
144661	7	Sololá	701	Sololá	4	Finca Santa Victoria	11	Noviembre	2023-11-27T00:00:00	2024-11-08T04:00:00	2	Temperatura media	12.5
144662	7	Sololá	701	Sololá	4	Finca Santa Victoria	11	Noviembre	2023-11-27T00:00:00	2024-11-08T04:00:00	4	Temperatura máxima	13
144663	7	Sololá	701	Sololá	4	Finca Santa Victoria	11	Noviembre	2023-11-27T00:00:00	2024-11-08T04:00:00	3	Temperatura mínima	12.4
144664	7	Sololá	701	Sololá	4	Finca Santa Victoria	11	Noviembre	2023-11-27T00:00:00	2024-11-08T04:00:00	5	Humedad	86
144665	7	Sololá	701	Sololá	4	Finca Santa Victoria	11	Noviembre	2023-11-27T00:00:00	2024-11-08T04:00:00	6	Velocidad del viento	4.8
144666	7	Sololá	701	Sololá	4	Finca Santa Victoria	11	Noviembre	2023-11-27T00:00:00	2024-11-08T04:00:00	7	Dirección del viento	4.83
144667	7	Sololá	701	Sololá	4	Finca Santa Victoria	11	Noviembre	2023-11-27T00:00:00	2024-11-08T04:00:00	1	Precipitación	0
144668	7	Sololá	701	Sololá	4	Finca Santa Victoria	11	Noviembre	2023-11-27T00:00:00	2024-11-08T04:00:00	8	Radiación solar	0
144669	7	Sololá	701	Sololá	4	Finca Santa Victoria	11	Noviembre	2023-11-27T00:00:00	2024-11-08T05:00:00	2	Temperatura media	12.3
144670	7	Sololá	701	Sololá	4	Finca Santa Victoria	11	Noviembre	2023-11-27T00:00:00	2024-11-08T05:00:00	4	Temperatura máxima	12.5
144671	7	Sololá	701	Sololá	4	Finca Santa Victoria	11	Noviembre	2023-11-27T00:00:00	2024-11-08T05:00:00	3	Temperatura mínima	12.3
144672	7	Sololá	701	Sololá	4	Finca Santa Victoria	11	Noviembre	2023-11-27T00:00:00	2024-11-08T05:00:00	5	Humedad	85
144673	7	Sololá	701	Sololá	4	Finca Santa Victoria	11	Noviembre	2023-11-27T00:00:00	2024-11-08T05:00:00	6	Velocidad del viento	6.4
144674	7	Sololá	701	Sololá	4	Finca Santa Victoria	11	Noviembre	2023-11-27T00:00:00	2024-11-08T05:00:00	7	Dirección del viento	6.44
144675	7	Sololá	701	Sololá	4	Finca Santa Victoria	11	Noviembre	2023-11-27T00:00:00	2024-11-08T05:00:00	1	Precipitación	0
144676	7	Sololá	701	Sololá	4	Finca Santa Victoria	11	Noviembre	2023-11-27T00:00:00	2024-11-08T05:00:00	8	Radiación solar	0
144677	7	Sololá	701	Sololá	4	Finca Santa Victoria	11	Noviembre	2023-11-27T00:00:00	2024-11-08T06:00:00	2	Temperatura media	12.2
144678	7	Sololá	701	Sololá	4	Finca Santa Victoria	11	Noviembre	2023-11-27T00:00:00	2024-11-08T06:00:00	4	Temperatura máxima	12.3
144679	7	Sololá	701	Sololá	4	Finca Santa Victoria	11	Noviembre	2023-11-27T00:00:00	2024-11-08T06:00:00	3	Temperatura mínima	12.1
144680	7	Sololá	701	Sololá	4	Finca Santa Victoria	11	Noviembre	2023-11-27T00:00:00	2024-11-08T06:00:00	5	Humedad	84
144681	7	Sololá	701	Sololá	4	Finca Santa Victoria	11	Noviembre	2023-11-27T00:00:00	2024-11-08T06:00:00	6	Velocidad del viento	6.4
144682	7	Sololá	701	Sololá	4	Finca Santa Victoria	11	Noviembre	2023-11-27T00:00:00	2024-11-08T06:00:00	7	Dirección del viento	6.44
144683	7	Sololá	701	Sololá	4	Finca Santa Victoria	11	Noviembre	2023-11-27T00:00:00	2024-11-08T06:00:00	1	Precipitación	0
144684	7	Sololá	701	Sololá	4	Finca Santa Victoria	11	Noviembre	2023-11-27T00:00:00	2024-11-08T06:00:00	8	Radiación solar	0
144685	7	Sololá	701	Sololá	4	Finca Santa Victoria	11	Noviembre	2023-11-27T00:00:00	2024-11-08T07:00:00	2	Temperatura media	12.7
144686	7	Sololá	701	Sololá	4	Finca Santa Victoria	11	Noviembre	2023-11-27T00:00:00	2024-11-08T07:00:00	4	Temperatura máxima	12.7
144687	7	Sololá	701	Sololá	4	Finca Santa Victoria	11	Noviembre	2023-11-27T00:00:00	2024-11-08T07:00:00	3	Temperatura mínima	12.1
144688	7	Sololá	701	Sololá	4	Finca Santa Victoria	11	Noviembre	2023-11-27T00:00:00	2024-11-08T07:00:00	5	Humedad	86
144689	7	Sololá	701	Sololá	4	Finca Santa Victoria	11	Noviembre	2023-11-27T00:00:00	2024-11-08T07:00:00	6	Velocidad del viento	4.8
144690	7	Sololá	701	Sololá	4	Finca Santa Victoria	11	Noviembre	2023-11-27T00:00:00	2024-11-08T07:00:00	7	Dirección del viento	4.83
144691	7	Sololá	701	Sololá	4	Finca Santa Victoria	11	Noviembre	2023-11-27T00:00:00	2024-11-08T07:00:00	1	Precipitación	0
144692	7	Sololá	701	Sololá	4	Finca Santa Victoria	11	Noviembre	2023-11-27T00:00:00	2024-11-08T07:00:00	8	Radiación solar	13
144693	7	Sololá	701	Sololá	4	Finca Santa Victoria	11	Noviembre	2023-11-27T00:00:00	2024-11-08T08:00:00	2	Temperatura media	14.1
144694	7	Sololá	701	Sololá	4	Finca Santa Victoria	11	Noviembre	2023-11-27T00:00:00	2024-11-08T08:00:00	4	Temperatura máxima	14.1
144695	7	Sololá	701	Sololá	4	Finca Santa Victoria	11	Noviembre	2023-11-27T00:00:00	2024-11-08T08:00:00	3	Temperatura mínima	12.7
144696	7	Sololá	701	Sololá	4	Finca Santa Victoria	11	Noviembre	2023-11-27T00:00:00	2024-11-08T08:00:00	5	Humedad	83
144697	7	Sololá	701	Sololá	4	Finca Santa Victoria	11	Noviembre	2023-11-27T00:00:00	2024-11-08T08:00:00	6	Velocidad del viento	4.8
144698	7	Sololá	701	Sololá	4	Finca Santa Victoria	11	Noviembre	2023-11-27T00:00:00	2024-11-08T08:00:00	7	Dirección del viento	4.83
144699	7	Sololá	701	Sololá	4	Finca Santa Victoria	11	Noviembre	2023-11-27T00:00:00	2024-11-08T08:00:00	1	Precipitación	0
144700	7	Sololá	701	Sololá	4	Finca Santa Victoria	11	Noviembre	2023-11-27T00:00:00	2024-11-08T08:00:00	8	Radiación solar	58
144701	7	Sololá	701	Sololá	4	Finca Santa Victoria	11	Noviembre	2023-11-27T00:00:00	2024-11-08T09:00:00	2	Temperatura media	15.4
144702	7	Sololá	701	Sololá	4	Finca Santa Victoria	11	Noviembre	2023-11-27T00:00:00	2024-11-08T09:00:00	4	Temperatura máxima	15.4
144703	7	Sololá	701	Sololá	4	Finca Santa Victoria	11	Noviembre	2023-11-27T00:00:00	2024-11-08T09:00:00	3	Temperatura mínima	14.1
144704	7	Sololá	701	Sololá	4	Finca Santa Victoria	11	Noviembre	2023-11-27T00:00:00	2024-11-08T09:00:00	5	Humedad	80
144705	7	Sololá	701	Sololá	4	Finca Santa Victoria	11	Noviembre	2023-11-27T00:00:00	2024-11-08T09:00:00	6	Velocidad del viento	4.8
144706	7	Sololá	701	Sololá	4	Finca Santa Victoria	11	Noviembre	2023-11-27T00:00:00	2024-11-08T09:00:00	7	Dirección del viento	4.83
144707	7	Sololá	701	Sololá	4	Finca Santa Victoria	11	Noviembre	2023-11-27T00:00:00	2024-11-08T09:00:00	1	Precipitación	0
144708	7	Sololá	701	Sololá	4	Finca Santa Victoria	11	Noviembre	2023-11-27T00:00:00	2024-11-08T09:00:00	8	Radiación solar	117
144709	7	Sololá	701	Sololá	4	Finca Santa Victoria	11	Noviembre	2023-11-27T00:00:00	2024-11-08T10:00:00	2	Temperatura media	17.4
144710	7	Sololá	701	Sololá	4	Finca Santa Victoria	11	Noviembre	2023-11-27T00:00:00	2024-11-08T10:00:00	4	Temperatura máxima	17.4
144711	7	Sololá	701	Sololá	4	Finca Santa Victoria	11	Noviembre	2023-11-27T00:00:00	2024-11-08T10:00:00	3	Temperatura mínima	15.4
144712	7	Sololá	701	Sololá	4	Finca Santa Victoria	11	Noviembre	2023-11-27T00:00:00	2024-11-08T10:00:00	5	Humedad	77
144713	7	Sololá	701	Sololá	4	Finca Santa Victoria	11	Noviembre	2023-11-27T00:00:00	2024-11-08T10:00:00	6	Velocidad del viento	3.2
144714	7	Sololá	701	Sololá	4	Finca Santa Victoria	11	Noviembre	2023-11-27T00:00:00	2024-11-08T10:00:00	7	Dirección del viento	3.22
144715	7	Sololá	701	Sololá	4	Finca Santa Victoria	11	Noviembre	2023-11-27T00:00:00	2024-11-08T10:00:00	1	Precipitación	0
144716	7	Sololá	701	Sololá	4	Finca Santa Victoria	11	Noviembre	2023-11-27T00:00:00	2024-11-08T10:00:00	8	Radiación solar	638
144717	7	Sololá	701	Sololá	4	Finca Santa Victoria	11	Noviembre	2023-11-27T00:00:00	2024-11-08T11:00:00	2	Temperatura media	17.9
144718	7	Sololá	701	Sololá	4	Finca Santa Victoria	11	Noviembre	2023-11-27T00:00:00	2024-11-08T11:00:00	4	Temperatura máxima	18.1
144719	7	Sololá	701	Sololá	4	Finca Santa Victoria	11	Noviembre	2023-11-27T00:00:00	2024-11-08T11:00:00	3	Temperatura mínima	17.2
144720	7	Sololá	701	Sololá	4	Finca Santa Victoria	11	Noviembre	2023-11-27T00:00:00	2024-11-08T11:00:00	5	Humedad	76
144721	7	Sololá	701	Sololá	4	Finca Santa Victoria	11	Noviembre	2023-11-27T00:00:00	2024-11-08T11:00:00	6	Velocidad del viento	4.8
144722	7	Sololá	701	Sololá	4	Finca Santa Victoria	11	Noviembre	2023-11-27T00:00:00	2024-11-08T11:00:00	7	Dirección del viento	4.83
144723	7	Sololá	701	Sololá	4	Finca Santa Victoria	11	Noviembre	2023-11-27T00:00:00	2024-11-08T11:00:00	1	Precipitación	0
144724	7	Sololá	701	Sololá	4	Finca Santa Victoria	11	Noviembre	2023-11-27T00:00:00	2024-11-08T11:00:00	8	Radiación solar	864
144725	7	Sololá	701	Sololá	4	Finca Santa Victoria	11	Noviembre	2023-11-27T00:00:00	2024-11-08T12:00:00	2	Temperatura media	18.6
144726	7	Sololá	701	Sololá	4	Finca Santa Victoria	11	Noviembre	2023-11-27T00:00:00	2024-11-08T12:00:00	4	Temperatura máxima	18.6
144727	7	Sololá	701	Sololá	4	Finca Santa Victoria	11	Noviembre	2023-11-27T00:00:00	2024-11-08T12:00:00	3	Temperatura mínima	17.8
144728	7	Sololá	701	Sololá	4	Finca Santa Victoria	11	Noviembre	2023-11-27T00:00:00	2024-11-08T12:00:00	5	Humedad	74
144729	7	Sololá	701	Sololá	4	Finca Santa Victoria	11	Noviembre	2023-11-27T00:00:00	2024-11-08T12:00:00	6	Velocidad del viento	4.8
144730	7	Sololá	701	Sololá	4	Finca Santa Victoria	11	Noviembre	2023-11-27T00:00:00	2024-11-08T12:00:00	7	Dirección del viento	4.83
144731	7	Sololá	701	Sololá	4	Finca Santa Victoria	11	Noviembre	2023-11-27T00:00:00	2024-11-08T12:00:00	1	Precipitación	0
144732	7	Sololá	701	Sololá	4	Finca Santa Victoria	11	Noviembre	2023-11-27T00:00:00	2024-11-08T12:00:00	8	Radiación solar	774
144733	7	Sololá	701	Sololá	4	Finca Santa Victoria	11	Noviembre	2023-11-27T00:00:00	2024-11-08T13:00:00	2	Temperatura media	18.5
144734	7	Sololá	701	Sololá	4	Finca Santa Victoria	11	Noviembre	2023-11-27T00:00:00	2024-11-08T13:00:00	4	Temperatura máxima	19.3
144735	7	Sololá	701	Sololá	4	Finca Santa Victoria	11	Noviembre	2023-11-27T00:00:00	2024-11-08T13:00:00	3	Temperatura mínima	18.2
144736	7	Sololá	701	Sololá	4	Finca Santa Victoria	11	Noviembre	2023-11-27T00:00:00	2024-11-08T13:00:00	5	Humedad	75
144737	7	Sololá	701	Sololá	4	Finca Santa Victoria	11	Noviembre	2023-11-27T00:00:00	2024-11-08T13:00:00	6	Velocidad del viento	4.8
144738	7	Sololá	701	Sololá	4	Finca Santa Victoria	11	Noviembre	2023-11-27T00:00:00	2024-11-08T13:00:00	7	Dirección del viento	4.83
144739	7	Sololá	701	Sololá	4	Finca Santa Victoria	11	Noviembre	2023-11-27T00:00:00	2024-11-08T13:00:00	1	Precipitación	0
144740	7	Sololá	701	Sololá	4	Finca Santa Victoria	11	Noviembre	2023-11-27T00:00:00	2024-11-08T13:00:00	8	Radiación solar	801
144741	7	Sololá	701	Sololá	4	Finca Santa Victoria	11	Noviembre	2023-11-27T00:00:00	2024-11-08T14:00:00	2	Temperatura media	17.7
144742	7	Sololá	701	Sololá	4	Finca Santa Victoria	11	Noviembre	2023-11-27T00:00:00	2024-11-08T14:00:00	4	Temperatura máxima	18.6
144743	7	Sololá	701	Sololá	4	Finca Santa Victoria	11	Noviembre	2023-11-27T00:00:00	2024-11-08T14:00:00	3	Temperatura mínima	17.7
144744	7	Sololá	701	Sololá	4	Finca Santa Victoria	11	Noviembre	2023-11-27T00:00:00	2024-11-08T14:00:00	5	Humedad	78
144745	7	Sololá	701	Sololá	4	Finca Santa Victoria	11	Noviembre	2023-11-27T00:00:00	2024-11-08T14:00:00	6	Velocidad del viento	4.8
144746	7	Sololá	701	Sololá	4	Finca Santa Victoria	11	Noviembre	2023-11-27T00:00:00	2024-11-08T14:00:00	7	Dirección del viento	4.83
144747	7	Sololá	701	Sololá	4	Finca Santa Victoria	11	Noviembre	2023-11-27T00:00:00	2024-11-08T14:00:00	1	Precipitación	0
144748	7	Sololá	701	Sololá	4	Finca Santa Victoria	11	Noviembre	2023-11-27T00:00:00	2024-11-08T14:00:00	8	Radiación solar	361
144749	7	Sololá	701	Sololá	4	Finca Santa Victoria	11	Noviembre	2023-11-27T00:00:00	2024-11-08T15:00:00	2	Temperatura media	18.4
144750	7	Sololá	701	Sololá	4	Finca Santa Victoria	11	Noviembre	2023-11-27T00:00:00	2024-11-08T15:00:00	4	Temperatura máxima	18.4
144751	7	Sololá	701	Sololá	4	Finca Santa Victoria	11	Noviembre	2023-11-27T00:00:00	2024-11-08T15:00:00	3	Temperatura mínima	16.4
144752	7	Sololá	701	Sololá	4	Finca Santa Victoria	11	Noviembre	2023-11-27T00:00:00	2024-11-08T15:00:00	5	Humedad	74
144753	7	Sololá	701	Sololá	4	Finca Santa Victoria	11	Noviembre	2023-11-27T00:00:00	2024-11-08T15:00:00	6	Velocidad del viento	3.2
144754	7	Sololá	701	Sololá	4	Finca Santa Victoria	11	Noviembre	2023-11-27T00:00:00	2024-11-08T15:00:00	7	Dirección del viento	3.22
144755	7	Sololá	701	Sololá	4	Finca Santa Victoria	11	Noviembre	2023-11-27T00:00:00	2024-11-08T15:00:00	1	Precipitación	0
144756	7	Sololá	701	Sololá	4	Finca Santa Victoria	11	Noviembre	2023-11-27T00:00:00	2024-11-08T15:00:00	8	Radiación solar	130
144757	7	Sololá	701	Sololá	4	Finca Santa Victoria	11	Noviembre	2023-11-27T00:00:00	2024-11-08T16:00:00	2	Temperatura media	19.3
144758	7	Sololá	701	Sololá	4	Finca Santa Victoria	11	Noviembre	2023-11-27T00:00:00	2024-11-08T16:00:00	4	Temperatura máxima	19.5
144759	7	Sololá	701	Sololá	4	Finca Santa Victoria	11	Noviembre	2023-11-27T00:00:00	2024-11-08T16:00:00	3	Temperatura mínima	18.5
144760	7	Sololá	701	Sololá	4	Finca Santa Victoria	11	Noviembre	2023-11-27T00:00:00	2024-11-08T16:00:00	5	Humedad	68
144761	7	Sololá	701	Sololá	4	Finca Santa Victoria	11	Noviembre	2023-11-27T00:00:00	2024-11-08T16:00:00	6	Velocidad del viento	3.2
144762	7	Sololá	701	Sololá	4	Finca Santa Victoria	11	Noviembre	2023-11-27T00:00:00	2024-11-08T16:00:00	7	Dirección del viento	3.22
144763	7	Sololá	701	Sololá	4	Finca Santa Victoria	11	Noviembre	2023-11-27T00:00:00	2024-11-08T16:00:00	1	Precipitación	0
144764	7	Sololá	701	Sololá	4	Finca Santa Victoria	11	Noviembre	2023-11-27T00:00:00	2024-11-08T16:00:00	8	Radiación solar	343
144765	7	Sololá	701	Sololá	4	Finca Santa Victoria	11	Noviembre	2023-11-27T00:00:00	2024-11-08T17:00:00	2	Temperatura media	16.4
144766	7	Sololá	701	Sololá	4	Finca Santa Victoria	11	Noviembre	2023-11-27T00:00:00	2024-11-08T17:00:00	4	Temperatura máxima	19.3
144767	7	Sololá	701	Sololá	4	Finca Santa Victoria	11	Noviembre	2023-11-27T00:00:00	2024-11-08T17:00:00	3	Temperatura mínima	16.4
144768	7	Sololá	701	Sololá	4	Finca Santa Victoria	11	Noviembre	2023-11-27T00:00:00	2024-11-08T17:00:00	5	Humedad	76
144769	7	Sololá	701	Sololá	4	Finca Santa Victoria	11	Noviembre	2023-11-27T00:00:00	2024-11-08T17:00:00	6	Velocidad del viento	3.2
144770	7	Sololá	701	Sololá	4	Finca Santa Victoria	11	Noviembre	2023-11-27T00:00:00	2024-11-08T17:00:00	7	Dirección del viento	3.22
144771	7	Sololá	701	Sololá	4	Finca Santa Victoria	11	Noviembre	2023-11-27T00:00:00	2024-11-08T17:00:00	1	Precipitación	0
144772	7	Sololá	701	Sololá	4	Finca Santa Victoria	11	Noviembre	2023-11-27T00:00:00	2024-11-08T17:00:00	8	Radiación solar	159
144773	7	Sololá	701	Sololá	4	Finca Santa Victoria	11	Noviembre	2023-11-27T00:00:00	2024-11-08T18:00:00	2	Temperatura media	14.3
144774	7	Sololá	701	Sololá	4	Finca Santa Victoria	11	Noviembre	2023-11-27T00:00:00	2024-11-08T18:00:00	4	Temperatura máxima	16.4
144775	7	Sololá	701	Sololá	4	Finca Santa Victoria	11	Noviembre	2023-11-27T00:00:00	2024-11-08T18:00:00	3	Temperatura mínima	14.3
144776	7	Sololá	701	Sololá	4	Finca Santa Victoria	11	Noviembre	2023-11-27T00:00:00	2024-11-08T18:00:00	5	Humedad	85
144777	7	Sololá	701	Sololá	4	Finca Santa Victoria	11	Noviembre	2023-11-27T00:00:00	2024-11-08T18:00:00	6	Velocidad del viento	3.2
144778	7	Sololá	701	Sololá	4	Finca Santa Victoria	11	Noviembre	2023-11-27T00:00:00	2024-11-08T18:00:00	7	Dirección del viento	3.22
144779	7	Sololá	701	Sololá	4	Finca Santa Victoria	11	Noviembre	2023-11-27T00:00:00	2024-11-08T18:00:00	1	Precipitación	0
144780	7	Sololá	701	Sololá	4	Finca Santa Victoria	11	Noviembre	2023-11-27T00:00:00	2024-11-08T18:00:00	8	Radiación solar	6
144781	7	Sololá	701	Sololá	4	Finca Santa Victoria	11	Noviembre	2023-11-27T00:00:00	2024-11-08T19:00:00	2	Temperatura media	14.1
144782	7	Sololá	701	Sololá	4	Finca Santa Victoria	11	Noviembre	2023-11-27T00:00:00	2024-11-08T19:00:00	4	Temperatura máxima	14.3
144783	7	Sololá	701	Sololá	4	Finca Santa Victoria	11	Noviembre	2023-11-27T00:00:00	2024-11-08T19:00:00	3	Temperatura mínima	14.1
144784	7	Sololá	701	Sololá	4	Finca Santa Victoria	11	Noviembre	2023-11-27T00:00:00	2024-11-08T19:00:00	5	Humedad	85
144785	7	Sololá	701	Sololá	4	Finca Santa Victoria	11	Noviembre	2023-11-27T00:00:00	2024-11-08T19:00:00	6	Velocidad del viento	3.2
144786	7	Sololá	701	Sololá	4	Finca Santa Victoria	11	Noviembre	2023-11-27T00:00:00	2024-11-08T19:00:00	7	Dirección del viento	3.22
144787	7	Sololá	701	Sololá	4	Finca Santa Victoria	11	Noviembre	2023-11-27T00:00:00	2024-11-08T19:00:00	1	Precipitación	0
144788	7	Sololá	701	Sololá	4	Finca Santa Victoria	11	Noviembre	2023-11-27T00:00:00	2024-11-08T19:00:00	8	Radiación solar	0
144789	7	Sololá	701	Sololá	4	Finca Santa Victoria	11	Noviembre	2023-11-27T00:00:00	2024-11-08T20:00:00	2	Temperatura media	13.6
144790	7	Sololá	701	Sololá	4	Finca Santa Victoria	11	Noviembre	2023-11-27T00:00:00	2024-11-08T20:00:00	4	Temperatura máxima	14.1
144791	7	Sololá	701	Sololá	4	Finca Santa Victoria	11	Noviembre	2023-11-27T00:00:00	2024-11-08T20:00:00	3	Temperatura mínima	13.6
144792	7	Sololá	701	Sololá	4	Finca Santa Victoria	11	Noviembre	2023-11-27T00:00:00	2024-11-08T20:00:00	5	Humedad	86
144793	7	Sololá	701	Sololá	4	Finca Santa Victoria	11	Noviembre	2023-11-27T00:00:00	2024-11-08T20:00:00	6	Velocidad del viento	3.2
144794	7	Sololá	701	Sololá	4	Finca Santa Victoria	11	Noviembre	2023-11-27T00:00:00	2024-11-08T20:00:00	7	Dirección del viento	3.22
144795	7	Sololá	701	Sololá	4	Finca Santa Victoria	11	Noviembre	2023-11-27T00:00:00	2024-11-08T20:00:00	1	Precipitación	0
144796	7	Sololá	701	Sololá	4	Finca Santa Victoria	11	Noviembre	2023-11-27T00:00:00	2024-11-08T20:00:00	8	Radiación solar	0
144797	7	Sololá	701	Sololá	4	Finca Santa Victoria	11	Noviembre	2023-11-27T00:00:00	2024-11-08T21:00:00	2	Temperatura media	13.3
144798	7	Sololá	701	Sololá	4	Finca Santa Victoria	11	Noviembre	2023-11-27T00:00:00	2024-11-08T21:00:00	4	Temperatura máxima	13.7
144799	7	Sololá	701	Sololá	4	Finca Santa Victoria	11	Noviembre	2023-11-27T00:00:00	2024-11-08T21:00:00	3	Temperatura mínima	13.2
144800	7	Sololá	701	Sololá	4	Finca Santa Victoria	11	Noviembre	2023-11-27T00:00:00	2024-11-08T21:00:00	5	Humedad	87
144801	7	Sololá	701	Sololá	4	Finca Santa Victoria	11	Noviembre	2023-11-27T00:00:00	2024-11-08T21:00:00	6	Velocidad del viento	3.2
144802	7	Sololá	701	Sololá	4	Finca Santa Victoria	11	Noviembre	2023-11-27T00:00:00	2024-11-08T21:00:00	7	Dirección del viento	3.22
144803	7	Sololá	701	Sololá	4	Finca Santa Victoria	11	Noviembre	2023-11-27T00:00:00	2024-11-08T21:00:00	1	Precipitación	0
144804	7	Sololá	701	Sololá	4	Finca Santa Victoria	11	Noviembre	2023-11-27T00:00:00	2024-11-08T21:00:00	8	Radiación solar	0
144805	7	Sololá	701	Sololá	4	Finca Santa Victoria	11	Noviembre	2023-11-27T00:00:00	2024-11-08T22:00:00	2	Temperatura media	13.4
144806	7	Sololá	701	Sololá	4	Finca Santa Victoria	11	Noviembre	2023-11-27T00:00:00	2024-11-08T22:00:00	4	Temperatura máxima	13.5
144807	7	Sololá	701	Sololá	4	Finca Santa Victoria	11	Noviembre	2023-11-27T00:00:00	2024-11-08T22:00:00	3	Temperatura mínima	13.3
144808	7	Sololá	701	Sololá	4	Finca Santa Victoria	11	Noviembre	2023-11-27T00:00:00	2024-11-08T22:00:00	5	Humedad	84
144809	7	Sololá	701	Sololá	4	Finca Santa Victoria	11	Noviembre	2023-11-27T00:00:00	2024-11-08T22:00:00	6	Velocidad del viento	3.2
144810	7	Sololá	701	Sololá	4	Finca Santa Victoria	11	Noviembre	2023-11-27T00:00:00	2024-11-08T22:00:00	7	Dirección del viento	3.22
144811	7	Sololá	701	Sololá	4	Finca Santa Victoria	11	Noviembre	2023-11-27T00:00:00	2024-11-08T22:00:00	1	Precipitación	0
144812	7	Sololá	701	Sololá	4	Finca Santa Victoria	11	Noviembre	2023-11-27T00:00:00	2024-11-08T22:00:00	8	Radiación solar	0
144813	7	Sololá	701	Sololá	4	Finca Santa Victoria	11	Noviembre	2023-11-27T00:00:00	2024-11-08T23:00:00	2	Temperatura media	13.2
144814	7	Sololá	701	Sololá	4	Finca Santa Victoria	11	Noviembre	2023-11-27T00:00:00	2024-11-08T23:00:00	4	Temperatura máxima	13.4
144815	7	Sololá	701	Sololá	4	Finca Santa Victoria	11	Noviembre	2023-11-27T00:00:00	2024-11-08T23:00:00	3	Temperatura mínima	13.1
144816	7	Sololá	701	Sololá	4	Finca Santa Victoria	11	Noviembre	2023-11-27T00:00:00	2024-11-08T23:00:00	5	Humedad	86
144817	7	Sololá	701	Sololá	4	Finca Santa Victoria	11	Noviembre	2023-11-27T00:00:00	2024-11-08T23:00:00	6	Velocidad del viento	3.2
144818	7	Sololá	701	Sololá	4	Finca Santa Victoria	11	Noviembre	2023-11-27T00:00:00	2024-11-08T23:00:00	7	Dirección del viento	3.22
144819	7	Sololá	701	Sololá	4	Finca Santa Victoria	11	Noviembre	2023-11-27T00:00:00	2024-11-08T23:00:00	1	Precipitación	0
144820	7	Sololá	701	Sololá	4	Finca Santa Victoria	11	Noviembre	2023-11-27T00:00:00	2024-11-08T23:00:00	8	Radiación solar	0
144821	7	Sololá	701	Sololá	4	Finca Santa Victoria	11	Noviembre	2023-11-28T00:00:00	2024-11-08T00:00:00	2	Temperatura media	12.9
144822	7	Sololá	701	Sololá	4	Finca Santa Victoria	11	Noviembre	2023-11-28T00:00:00	2024-11-08T00:00:00	4	Temperatura máxima	13.2
144823	7	Sololá	701	Sololá	4	Finca Santa Victoria	11	Noviembre	2023-11-28T00:00:00	2024-11-08T00:00:00	3	Temperatura mínima	12.9
144824	7	Sololá	701	Sololá	4	Finca Santa Victoria	11	Noviembre	2023-11-28T00:00:00	2024-11-08T00:00:00	5	Humedad	87
144825	7	Sololá	701	Sololá	4	Finca Santa Victoria	11	Noviembre	2023-11-28T00:00:00	2024-11-08T00:00:00	6	Velocidad del viento	3.2
144826	7	Sololá	701	Sololá	4	Finca Santa Victoria	11	Noviembre	2023-11-28T00:00:00	2024-11-08T00:00:00	7	Dirección del viento	3.22
144827	7	Sololá	701	Sololá	4	Finca Santa Victoria	11	Noviembre	2023-11-28T00:00:00	2024-11-08T00:00:00	1	Precipitación	0
144828	7	Sololá	701	Sololá	4	Finca Santa Victoria	11	Noviembre	2023-11-28T00:00:00	2024-11-08T00:00:00	8	Radiación solar	0
144829	7	Sololá	701	Sololá	4	Finca Santa Victoria	11	Noviembre	2023-11-28T00:00:00	2024-11-08T01:00:00	2	Temperatura media	12.3
144830	7	Sololá	701	Sololá	4	Finca Santa Victoria	11	Noviembre	2023-11-28T00:00:00	2024-11-08T01:00:00	4	Temperatura máxima	13
144831	7	Sololá	701	Sololá	4	Finca Santa Victoria	11	Noviembre	2023-11-28T00:00:00	2024-11-08T01:00:00	3	Temperatura mínima	12.3
144832	7	Sololá	701	Sololá	4	Finca Santa Victoria	11	Noviembre	2023-11-28T00:00:00	2024-11-08T01:00:00	5	Humedad	89
144833	7	Sololá	701	Sololá	4	Finca Santa Victoria	11	Noviembre	2023-11-28T00:00:00	2024-11-08T01:00:00	6	Velocidad del viento	1.6
144834	7	Sololá	701	Sololá	4	Finca Santa Victoria	11	Noviembre	2023-11-28T00:00:00	2024-11-08T01:00:00	7	Dirección del viento	1.61
144835	7	Sololá	701	Sololá	4	Finca Santa Victoria	11	Noviembre	2023-11-28T00:00:00	2024-11-08T01:00:00	1	Precipitación	0
144836	7	Sololá	701	Sololá	4	Finca Santa Victoria	11	Noviembre	2023-11-28T00:00:00	2024-11-08T01:00:00	8	Radiación solar	0
144837	7	Sololá	701	Sololá	4	Finca Santa Victoria	11	Noviembre	2023-11-28T00:00:00	2024-11-08T02:00:00	2	Temperatura media	12.3
144838	7	Sololá	701	Sololá	4	Finca Santa Victoria	11	Noviembre	2023-11-28T00:00:00	2024-11-08T02:00:00	4	Temperatura máxima	12.4
144839	7	Sololá	701	Sololá	4	Finca Santa Victoria	11	Noviembre	2023-11-28T00:00:00	2024-11-08T02:00:00	3	Temperatura mínima	12.2
144840	7	Sololá	701	Sololá	4	Finca Santa Victoria	11	Noviembre	2023-11-28T00:00:00	2024-11-08T02:00:00	5	Humedad	91
144841	7	Sololá	701	Sololá	4	Finca Santa Victoria	11	Noviembre	2023-11-28T00:00:00	2024-11-08T02:00:00	6	Velocidad del viento	1.6
144842	7	Sololá	701	Sololá	4	Finca Santa Victoria	11	Noviembre	2023-11-28T00:00:00	2024-11-08T02:00:00	7	Dirección del viento	1.61
144843	7	Sololá	701	Sololá	4	Finca Santa Victoria	11	Noviembre	2023-11-28T00:00:00	2024-11-08T02:00:00	1	Precipitación	0
144844	7	Sololá	701	Sololá	4	Finca Santa Victoria	11	Noviembre	2023-11-28T00:00:00	2024-11-08T02:00:00	8	Radiación solar	0
144845	7	Sololá	701	Sololá	4	Finca Santa Victoria	11	Noviembre	2023-11-28T00:00:00	2024-11-08T03:00:00	2	Temperatura media	12.6
144846	7	Sololá	701	Sololá	4	Finca Santa Victoria	11	Noviembre	2023-11-28T00:00:00	2024-11-08T03:00:00	4	Temperatura máxima	12.6
144847	7	Sololá	701	Sololá	4	Finca Santa Victoria	11	Noviembre	2023-11-28T00:00:00	2024-11-08T03:00:00	3	Temperatura mínima	12.3
144848	7	Sololá	701	Sololá	4	Finca Santa Victoria	11	Noviembre	2023-11-28T00:00:00	2024-11-08T03:00:00	5	Humedad	90
144849	7	Sololá	701	Sololá	4	Finca Santa Victoria	11	Noviembre	2023-11-28T00:00:00	2024-11-08T03:00:00	6	Velocidad del viento	1.6
144850	7	Sololá	701	Sololá	4	Finca Santa Victoria	11	Noviembre	2023-11-28T00:00:00	2024-11-08T03:00:00	7	Dirección del viento	1.61
144851	7	Sololá	701	Sololá	4	Finca Santa Victoria	11	Noviembre	2023-11-28T00:00:00	2024-11-08T03:00:00	1	Precipitación	0
144852	7	Sololá	701	Sololá	4	Finca Santa Victoria	11	Noviembre	2023-11-28T00:00:00	2024-11-08T03:00:00	8	Radiación solar	0
144853	7	Sololá	701	Sololá	4	Finca Santa Victoria	11	Noviembre	2023-11-28T00:00:00	2024-11-08T04:00:00	2	Temperatura media	12.9
144854	7	Sololá	701	Sololá	4	Finca Santa Victoria	11	Noviembre	2023-11-28T00:00:00	2024-11-08T04:00:00	4	Temperatura máxima	12.9
144855	7	Sololá	701	Sololá	4	Finca Santa Victoria	11	Noviembre	2023-11-28T00:00:00	2024-11-08T04:00:00	3	Temperatura mínima	12.5
144856	7	Sololá	701	Sololá	4	Finca Santa Victoria	11	Noviembre	2023-11-28T00:00:00	2024-11-08T04:00:00	5	Humedad	91
144857	7	Sololá	701	Sololá	4	Finca Santa Victoria	11	Noviembre	2023-11-28T00:00:00	2024-11-08T04:00:00	6	Velocidad del viento	1.6
144858	7	Sololá	701	Sololá	4	Finca Santa Victoria	11	Noviembre	2023-11-28T00:00:00	2024-11-08T04:00:00	7	Dirección del viento	1.61
144859	7	Sololá	701	Sololá	4	Finca Santa Victoria	11	Noviembre	2023-11-28T00:00:00	2024-11-08T04:00:00	1	Precipitación	0
144860	7	Sololá	701	Sololá	4	Finca Santa Victoria	11	Noviembre	2023-11-28T00:00:00	2024-11-08T04:00:00	8	Radiación solar	0
144861	7	Sololá	701	Sololá	4	Finca Santa Victoria	11	Noviembre	2023-11-28T00:00:00	2024-11-08T05:00:00	2	Temperatura media	13.7
144862	7	Sololá	701	Sololá	4	Finca Santa Victoria	11	Noviembre	2023-11-28T00:00:00	2024-11-08T05:00:00	4	Temperatura máxima	13.7
144863	7	Sololá	701	Sololá	4	Finca Santa Victoria	11	Noviembre	2023-11-28T00:00:00	2024-11-08T05:00:00	3	Temperatura mínima	12.9
144864	7	Sololá	701	Sololá	4	Finca Santa Victoria	11	Noviembre	2023-11-28T00:00:00	2024-11-08T05:00:00	5	Humedad	89
144865	7	Sololá	701	Sololá	4	Finca Santa Victoria	11	Noviembre	2023-11-28T00:00:00	2024-11-08T05:00:00	6	Velocidad del viento	3.2
144866	7	Sololá	701	Sololá	4	Finca Santa Victoria	11	Noviembre	2023-11-28T00:00:00	2024-11-08T05:00:00	7	Dirección del viento	3.22
144867	7	Sololá	701	Sololá	4	Finca Santa Victoria	11	Noviembre	2023-11-28T00:00:00	2024-11-08T05:00:00	1	Precipitación	0
144868	7	Sololá	701	Sololá	4	Finca Santa Victoria	11	Noviembre	2023-11-28T00:00:00	2024-11-08T05:00:00	8	Radiación solar	0
144869	7	Sololá	701	Sololá	4	Finca Santa Victoria	11	Noviembre	2023-11-28T00:00:00	2024-11-08T06:00:00	2	Temperatura media	13.3
144870	7	Sololá	701	Sololá	4	Finca Santa Victoria	11	Noviembre	2023-11-28T00:00:00	2024-11-08T06:00:00	4	Temperatura máxima	13.7
144871	7	Sololá	701	Sololá	4	Finca Santa Victoria	11	Noviembre	2023-11-28T00:00:00	2024-11-08T06:00:00	3	Temperatura mínima	13.3
144872	7	Sololá	701	Sololá	4	Finca Santa Victoria	11	Noviembre	2023-11-28T00:00:00	2024-11-08T06:00:00	5	Humedad	91
144873	7	Sololá	701	Sololá	4	Finca Santa Victoria	11	Noviembre	2023-11-28T00:00:00	2024-11-08T06:00:00	6	Velocidad del viento	3.2
144874	7	Sololá	701	Sololá	4	Finca Santa Victoria	11	Noviembre	2023-11-28T00:00:00	2024-11-08T06:00:00	7	Dirección del viento	3.22
144875	7	Sololá	701	Sololá	4	Finca Santa Victoria	11	Noviembre	2023-11-28T00:00:00	2024-11-08T06:00:00	1	Precipitación	0
144876	7	Sololá	701	Sololá	4	Finca Santa Victoria	11	Noviembre	2023-11-28T00:00:00	2024-11-08T06:00:00	8	Radiación solar	0
144877	7	Sololá	701	Sololá	4	Finca Santa Victoria	11	Noviembre	2023-11-28T00:00:00	2024-11-08T07:00:00	2	Temperatura media	14.1
144878	7	Sololá	701	Sololá	4	Finca Santa Victoria	11	Noviembre	2023-11-28T00:00:00	2024-11-08T07:00:00	4	Temperatura máxima	14.1
144879	7	Sololá	701	Sololá	4	Finca Santa Victoria	11	Noviembre	2023-11-28T00:00:00	2024-11-08T07:00:00	3	Temperatura mínima	13.3
144880	7	Sololá	701	Sololá	4	Finca Santa Victoria	11	Noviembre	2023-11-28T00:00:00	2024-11-08T07:00:00	5	Humedad	88
144881	7	Sololá	701	Sololá	4	Finca Santa Victoria	11	Noviembre	2023-11-28T00:00:00	2024-11-08T07:00:00	6	Velocidad del viento	3.2
144882	7	Sololá	701	Sololá	4	Finca Santa Victoria	11	Noviembre	2023-11-28T00:00:00	2024-11-08T07:00:00	7	Dirección del viento	3.22
144883	7	Sololá	701	Sololá	4	Finca Santa Victoria	11	Noviembre	2023-11-28T00:00:00	2024-11-08T07:00:00	1	Precipitación	0
144884	7	Sololá	701	Sololá	4	Finca Santa Victoria	11	Noviembre	2023-11-28T00:00:00	2024-11-08T07:00:00	8	Radiación solar	21
144885	7	Sololá	701	Sololá	4	Finca Santa Victoria	11	Noviembre	2023-11-28T00:00:00	2024-11-08T08:00:00	2	Temperatura media	14.9
144886	7	Sololá	701	Sololá	4	Finca Santa Victoria	11	Noviembre	2023-11-28T00:00:00	2024-11-08T08:00:00	4	Temperatura máxima	14.9
144887	7	Sololá	701	Sololá	4	Finca Santa Victoria	11	Noviembre	2023-11-28T00:00:00	2024-11-08T08:00:00	3	Temperatura mínima	14.1
144888	7	Sololá	701	Sololá	4	Finca Santa Victoria	11	Noviembre	2023-11-28T00:00:00	2024-11-08T08:00:00	5	Humedad	87
144889	7	Sololá	701	Sololá	4	Finca Santa Victoria	11	Noviembre	2023-11-28T00:00:00	2024-11-08T08:00:00	6	Velocidad del viento	3.2
144890	7	Sololá	701	Sololá	4	Finca Santa Victoria	11	Noviembre	2023-11-28T00:00:00	2024-11-08T08:00:00	7	Dirección del viento	3.22
144891	7	Sololá	701	Sololá	4	Finca Santa Victoria	11	Noviembre	2023-11-28T00:00:00	2024-11-08T08:00:00	1	Precipitación	0
144892	7	Sololá	701	Sololá	4	Finca Santa Victoria	11	Noviembre	2023-11-28T00:00:00	2024-11-08T08:00:00	8	Radiación solar	82
144893	7	Sololá	701	Sololá	4	Finca Santa Victoria	11	Noviembre	2023-11-28T00:00:00	2024-11-08T09:00:00	2	Temperatura media	15.2
144894	7	Sololá	701	Sololá	4	Finca Santa Victoria	11	Noviembre	2023-11-28T00:00:00	2024-11-08T09:00:00	4	Temperatura máxima	15.2
144895	7	Sololá	701	Sololá	4	Finca Santa Victoria	11	Noviembre	2023-11-28T00:00:00	2024-11-08T09:00:00	3	Temperatura mínima	14.3
144896	7	Sololá	701	Sololá	4	Finca Santa Victoria	11	Noviembre	2023-11-28T00:00:00	2024-11-08T09:00:00	5	Humedad	88
144897	7	Sololá	701	Sololá	4	Finca Santa Victoria	11	Noviembre	2023-11-28T00:00:00	2024-11-08T09:00:00	6	Velocidad del viento	6.4
144898	7	Sololá	701	Sololá	4	Finca Santa Victoria	11	Noviembre	2023-11-28T00:00:00	2024-11-08T09:00:00	7	Dirección del viento	6.44
144899	7	Sololá	701	Sololá	4	Finca Santa Victoria	11	Noviembre	2023-11-28T00:00:00	2024-11-08T09:00:00	1	Precipitación	0
144900	7	Sololá	701	Sololá	4	Finca Santa Victoria	11	Noviembre	2023-11-28T00:00:00	2024-11-08T09:00:00	8	Radiación solar	101
144901	7	Sololá	701	Sololá	4	Finca Santa Victoria	11	Noviembre	2023-11-28T00:00:00	2024-11-08T10:00:00	2	Temperatura media	16.5
144902	7	Sololá	701	Sololá	4	Finca Santa Victoria	11	Noviembre	2023-11-28T00:00:00	2024-11-08T10:00:00	4	Temperatura máxima	16.9
144903	7	Sololá	701	Sololá	4	Finca Santa Victoria	11	Noviembre	2023-11-28T00:00:00	2024-11-08T10:00:00	3	Temperatura mínima	15.2
144904	7	Sololá	701	Sololá	4	Finca Santa Victoria	11	Noviembre	2023-11-28T00:00:00	2024-11-08T10:00:00	5	Humedad	83
144905	7	Sololá	701	Sololá	4	Finca Santa Victoria	11	Noviembre	2023-11-28T00:00:00	2024-11-08T10:00:00	6	Velocidad del viento	4.8
144906	7	Sololá	701	Sololá	4	Finca Santa Victoria	11	Noviembre	2023-11-28T00:00:00	2024-11-08T10:00:00	7	Dirección del viento	4.83
144907	7	Sololá	701	Sololá	4	Finca Santa Victoria	11	Noviembre	2023-11-28T00:00:00	2024-11-08T10:00:00	1	Precipitación	0
144908	7	Sololá	701	Sololá	4	Finca Santa Victoria	11	Noviembre	2023-11-28T00:00:00	2024-11-08T10:00:00	8	Radiación solar	304
144909	7	Sololá	701	Sololá	4	Finca Santa Victoria	11	Noviembre	2023-11-28T00:00:00	2024-11-08T11:00:00	2	Temperatura media	17.2
144910	7	Sololá	701	Sololá	4	Finca Santa Victoria	11	Noviembre	2023-11-28T00:00:00	2024-11-08T11:00:00	4	Temperatura máxima	17.5
144911	7	Sololá	701	Sololá	4	Finca Santa Victoria	11	Noviembre	2023-11-28T00:00:00	2024-11-08T11:00:00	3	Temperatura mínima	16.3
144912	7	Sololá	701	Sololá	4	Finca Santa Victoria	11	Noviembre	2023-11-28T00:00:00	2024-11-08T11:00:00	5	Humedad	78
144913	7	Sololá	701	Sololá	4	Finca Santa Victoria	11	Noviembre	2023-11-28T00:00:00	2024-11-08T11:00:00	6	Velocidad del viento	4.8
144914	7	Sololá	701	Sololá	4	Finca Santa Victoria	11	Noviembre	2023-11-28T00:00:00	2024-11-08T11:00:00	7	Dirección del viento	4.83
144915	7	Sololá	701	Sololá	4	Finca Santa Victoria	11	Noviembre	2023-11-28T00:00:00	2024-11-08T11:00:00	1	Precipitación	0
144916	7	Sololá	701	Sololá	4	Finca Santa Victoria	11	Noviembre	2023-11-28T00:00:00	2024-11-08T11:00:00	8	Radiación solar	208
144917	7	Sololá	701	Sololá	4	Finca Santa Victoria	11	Noviembre	2023-11-28T00:00:00	2024-11-08T12:00:00	2	Temperatura media	16.3
144918	7	Sololá	701	Sololá	4	Finca Santa Victoria	11	Noviembre	2023-11-28T00:00:00	2024-11-08T12:00:00	4	Temperatura máxima	17.2
144919	7	Sololá	701	Sololá	4	Finca Santa Victoria	11	Noviembre	2023-11-28T00:00:00	2024-11-08T12:00:00	3	Temperatura mínima	16.2
144920	7	Sololá	701	Sololá	4	Finca Santa Victoria	11	Noviembre	2023-11-28T00:00:00	2024-11-08T12:00:00	5	Humedad	84
144921	7	Sololá	701	Sololá	4	Finca Santa Victoria	11	Noviembre	2023-11-28T00:00:00	2024-11-08T12:00:00	6	Velocidad del viento	3.2
144922	7	Sololá	701	Sololá	4	Finca Santa Victoria	11	Noviembre	2023-11-28T00:00:00	2024-11-08T12:00:00	7	Dirección del viento	3.22
144923	7	Sololá	701	Sololá	4	Finca Santa Victoria	11	Noviembre	2023-11-28T00:00:00	2024-11-08T12:00:00	1	Precipitación	0
144924	7	Sololá	701	Sololá	4	Finca Santa Victoria	11	Noviembre	2023-11-28T00:00:00	2024-11-08T12:00:00	8	Radiación solar	144
144925	7	Sololá	701	Sololá	4	Finca Santa Victoria	11	Noviembre	2023-11-28T00:00:00	2024-11-08T13:00:00	2	Temperatura media	17.7
144926	7	Sololá	701	Sololá	4	Finca Santa Victoria	11	Noviembre	2023-11-28T00:00:00	2024-11-08T13:00:00	4	Temperatura máxima	17.7
144927	7	Sololá	701	Sololá	4	Finca Santa Victoria	11	Noviembre	2023-11-28T00:00:00	2024-11-08T13:00:00	3	Temperatura mínima	16.2
144928	7	Sololá	701	Sololá	4	Finca Santa Victoria	11	Noviembre	2023-11-28T00:00:00	2024-11-08T13:00:00	5	Humedad	80
144929	7	Sololá	701	Sololá	4	Finca Santa Victoria	11	Noviembre	2023-11-28T00:00:00	2024-11-08T13:00:00	6	Velocidad del viento	3.2
144930	7	Sololá	701	Sololá	4	Finca Santa Victoria	11	Noviembre	2023-11-28T00:00:00	2024-11-08T13:00:00	7	Dirección del viento	3.22
144931	7	Sololá	701	Sololá	4	Finca Santa Victoria	11	Noviembre	2023-11-28T00:00:00	2024-11-08T13:00:00	1	Precipitación	0
144932	7	Sololá	701	Sololá	4	Finca Santa Victoria	11	Noviembre	2023-11-28T00:00:00	2024-11-08T13:00:00	8	Radiación solar	178
144933	7	Sololá	701	Sololá	4	Finca Santa Victoria	11	Noviembre	2023-11-28T00:00:00	2024-11-08T14:00:00	2	Temperatura media	18.9
144934	7	Sololá	701	Sololá	4	Finca Santa Victoria	11	Noviembre	2023-11-28T00:00:00	2024-11-08T14:00:00	4	Temperatura máxima	19.8
144935	7	Sololá	701	Sololá	4	Finca Santa Victoria	11	Noviembre	2023-11-28T00:00:00	2024-11-08T14:00:00	3	Temperatura mínima	17.7
144936	7	Sololá	701	Sololá	4	Finca Santa Victoria	11	Noviembre	2023-11-28T00:00:00	2024-11-08T14:00:00	5	Humedad	76
144937	7	Sololá	701	Sololá	4	Finca Santa Victoria	11	Noviembre	2023-11-28T00:00:00	2024-11-08T14:00:00	6	Velocidad del viento	3.2
144938	7	Sololá	701	Sololá	4	Finca Santa Victoria	11	Noviembre	2023-11-28T00:00:00	2024-11-08T14:00:00	7	Dirección del viento	3.22
144939	7	Sololá	701	Sololá	4	Finca Santa Victoria	11	Noviembre	2023-11-28T00:00:00	2024-11-08T14:00:00	1	Precipitación	0
144940	7	Sololá	701	Sololá	4	Finca Santa Victoria	11	Noviembre	2023-11-28T00:00:00	2024-11-08T14:00:00	8	Radiación solar	320
144941	7	Sololá	701	Sololá	4	Finca Santa Victoria	11	Noviembre	2023-11-28T00:00:00	2024-11-08T15:00:00	2	Temperatura media	17.3
144942	7	Sololá	701	Sololá	4	Finca Santa Victoria	11	Noviembre	2023-11-28T00:00:00	2024-11-08T15:00:00	4	Temperatura máxima	19.3
144943	7	Sololá	701	Sololá	4	Finca Santa Victoria	11	Noviembre	2023-11-28T00:00:00	2024-11-08T15:00:00	3	Temperatura mínima	17.3
144944	7	Sololá	701	Sololá	4	Finca Santa Victoria	11	Noviembre	2023-11-28T00:00:00	2024-11-08T15:00:00	5	Humedad	81
144945	7	Sololá	701	Sololá	4	Finca Santa Victoria	11	Noviembre	2023-11-28T00:00:00	2024-11-08T15:00:00	6	Velocidad del viento	3.2
144946	7	Sololá	701	Sololá	4	Finca Santa Victoria	11	Noviembre	2023-11-28T00:00:00	2024-11-08T15:00:00	7	Dirección del viento	3.22
144947	7	Sololá	701	Sololá	4	Finca Santa Victoria	11	Noviembre	2023-11-28T00:00:00	2024-11-08T15:00:00	1	Precipitación	0
144948	7	Sololá	701	Sololá	4	Finca Santa Victoria	11	Noviembre	2023-11-28T00:00:00	2024-11-08T15:00:00	8	Radiación solar	185
144949	7	Sololá	701	Sololá	4	Finca Santa Victoria	11	Noviembre	2023-11-28T00:00:00	2024-11-08T16:00:00	2	Temperatura media	17.2
144950	7	Sololá	701	Sololá	4	Finca Santa Victoria	11	Noviembre	2023-11-28T00:00:00	2024-11-08T16:00:00	4	Temperatura máxima	17.6
144951	7	Sololá	701	Sololá	4	Finca Santa Victoria	11	Noviembre	2023-11-28T00:00:00	2024-11-08T16:00:00	3	Temperatura mínima	16.7
144952	7	Sololá	701	Sololá	4	Finca Santa Victoria	11	Noviembre	2023-11-28T00:00:00	2024-11-08T16:00:00	5	Humedad	81
144953	7	Sololá	701	Sololá	4	Finca Santa Victoria	11	Noviembre	2023-11-28T00:00:00	2024-11-08T16:00:00	6	Velocidad del viento	3.2
144954	7	Sololá	701	Sololá	4	Finca Santa Victoria	11	Noviembre	2023-11-28T00:00:00	2024-11-08T16:00:00	7	Dirección del viento	3.22
144955	7	Sololá	701	Sololá	4	Finca Santa Victoria	11	Noviembre	2023-11-28T00:00:00	2024-11-08T16:00:00	1	Precipitación	0
144956	7	Sololá	701	Sololá	4	Finca Santa Victoria	11	Noviembre	2023-11-28T00:00:00	2024-11-08T16:00:00	8	Radiación solar	159
144957	7	Sololá	701	Sololá	4	Finca Santa Victoria	11	Noviembre	2023-11-28T00:00:00	2024-11-08T17:00:00	2	Temperatura media	16.6
144958	7	Sololá	701	Sololá	4	Finca Santa Victoria	11	Noviembre	2023-11-28T00:00:00	2024-11-08T17:00:00	4	Temperatura máxima	18.2
144959	7	Sololá	701	Sololá	4	Finca Santa Victoria	11	Noviembre	2023-11-28T00:00:00	2024-11-08T17:00:00	3	Temperatura mínima	16.6
144960	7	Sololá	701	Sololá	4	Finca Santa Victoria	11	Noviembre	2023-11-28T00:00:00	2024-11-08T17:00:00	5	Humedad	81
144961	7	Sololá	701	Sololá	4	Finca Santa Victoria	11	Noviembre	2023-11-28T00:00:00	2024-11-08T17:00:00	6	Velocidad del viento	4.8
144962	7	Sololá	701	Sololá	4	Finca Santa Victoria	11	Noviembre	2023-11-28T00:00:00	2024-11-08T17:00:00	7	Dirección del viento	4.83
144963	7	Sololá	701	Sololá	4	Finca Santa Victoria	11	Noviembre	2023-11-28T00:00:00	2024-11-08T17:00:00	1	Precipitación	0
144964	7	Sololá	701	Sololá	4	Finca Santa Victoria	11	Noviembre	2023-11-28T00:00:00	2024-11-08T17:00:00	8	Radiación solar	187
144965	7	Sololá	701	Sololá	4	Finca Santa Victoria	11	Noviembre	2023-11-28T00:00:00	2024-11-08T18:00:00	2	Temperatura media	15.3
144966	7	Sololá	701	Sololá	4	Finca Santa Victoria	11	Noviembre	2023-11-28T00:00:00	2024-11-08T18:00:00	4	Temperatura máxima	16.7
144967	7	Sololá	701	Sololá	4	Finca Santa Victoria	11	Noviembre	2023-11-28T00:00:00	2024-11-08T18:00:00	3	Temperatura mínima	15.3
144968	7	Sololá	701	Sololá	4	Finca Santa Victoria	11	Noviembre	2023-11-28T00:00:00	2024-11-08T18:00:00	5	Humedad	85
144969	7	Sololá	701	Sololá	4	Finca Santa Victoria	11	Noviembre	2023-11-28T00:00:00	2024-11-08T18:00:00	6	Velocidad del viento	4.8
144970	7	Sololá	701	Sololá	4	Finca Santa Victoria	11	Noviembre	2023-11-28T00:00:00	2024-11-08T18:00:00	7	Dirección del viento	4.83
144971	7	Sololá	701	Sololá	4	Finca Santa Victoria	11	Noviembre	2023-11-28T00:00:00	2024-11-08T18:00:00	1	Precipitación	0
144972	7	Sololá	701	Sololá	4	Finca Santa Victoria	11	Noviembre	2023-11-28T00:00:00	2024-11-08T18:00:00	8	Radiación solar	12
144973	7	Sololá	701	Sololá	4	Finca Santa Victoria	11	Noviembre	2023-11-28T00:00:00	2024-11-08T19:00:00	2	Temperatura media	15.1
144974	7	Sololá	701	Sololá	4	Finca Santa Victoria	11	Noviembre	2023-11-28T00:00:00	2024-11-08T19:00:00	4	Temperatura máxima	15.4
144975	7	Sololá	701	Sololá	4	Finca Santa Victoria	11	Noviembre	2023-11-28T00:00:00	2024-11-08T19:00:00	3	Temperatura mínima	15.1
144976	7	Sololá	701	Sololá	4	Finca Santa Victoria	11	Noviembre	2023-11-28T00:00:00	2024-11-08T19:00:00	5	Humedad	86
144977	7	Sololá	701	Sololá	4	Finca Santa Victoria	11	Noviembre	2023-11-28T00:00:00	2024-11-08T19:00:00	6	Velocidad del viento	4.8
144978	7	Sololá	701	Sololá	4	Finca Santa Victoria	11	Noviembre	2023-11-28T00:00:00	2024-11-08T19:00:00	7	Dirección del viento	4.83
144979	7	Sololá	701	Sololá	4	Finca Santa Victoria	11	Noviembre	2023-11-28T00:00:00	2024-11-08T19:00:00	1	Precipitación	0
144980	7	Sololá	701	Sololá	4	Finca Santa Victoria	11	Noviembre	2023-11-28T00:00:00	2024-11-08T19:00:00	8	Radiación solar	0
144981	7	Sololá	701	Sololá	4	Finca Santa Victoria	11	Noviembre	2023-11-28T00:00:00	2024-11-08T20:00:00	2	Temperatura media	14.9
144982	7	Sololá	701	Sololá	4	Finca Santa Victoria	11	Noviembre	2023-11-28T00:00:00	2024-11-08T20:00:00	4	Temperatura máxima	15.1
144983	7	Sololá	701	Sololá	4	Finca Santa Victoria	11	Noviembre	2023-11-28T00:00:00	2024-11-08T20:00:00	3	Temperatura mínima	14.8
144984	7	Sololá	701	Sololá	4	Finca Santa Victoria	11	Noviembre	2023-11-28T00:00:00	2024-11-08T20:00:00	5	Humedad	86
144985	7	Sololá	701	Sololá	4	Finca Santa Victoria	11	Noviembre	2023-11-28T00:00:00	2024-11-08T20:00:00	6	Velocidad del viento	4.8
144986	7	Sololá	701	Sololá	4	Finca Santa Victoria	11	Noviembre	2023-11-28T00:00:00	2024-11-08T20:00:00	7	Dirección del viento	4.83
144987	7	Sololá	701	Sololá	4	Finca Santa Victoria	11	Noviembre	2023-11-28T00:00:00	2024-11-08T20:00:00	1	Precipitación	0
144988	7	Sololá	701	Sololá	4	Finca Santa Victoria	11	Noviembre	2023-11-28T00:00:00	2024-11-08T20:00:00	8	Radiación solar	0
144989	7	Sololá	701	Sololá	4	Finca Santa Victoria	11	Noviembre	2023-11-28T00:00:00	2024-11-08T21:00:00	2	Temperatura media	14
144990	7	Sololá	701	Sololá	4	Finca Santa Victoria	11	Noviembre	2023-11-28T00:00:00	2024-11-08T21:00:00	4	Temperatura máxima	14.9
144991	7	Sololá	701	Sololá	4	Finca Santa Victoria	11	Noviembre	2023-11-28T00:00:00	2024-11-08T21:00:00	3	Temperatura mínima	14
144992	7	Sololá	701	Sololá	4	Finca Santa Victoria	11	Noviembre	2023-11-28T00:00:00	2024-11-08T21:00:00	5	Humedad	90
144993	7	Sololá	701	Sololá	4	Finca Santa Victoria	11	Noviembre	2023-11-28T00:00:00	2024-11-08T21:00:00	6	Velocidad del viento	4.8
144994	7	Sololá	701	Sololá	4	Finca Santa Victoria	11	Noviembre	2023-11-28T00:00:00	2024-11-08T21:00:00	7	Dirección del viento	4.83
144995	7	Sololá	701	Sololá	4	Finca Santa Victoria	11	Noviembre	2023-11-28T00:00:00	2024-11-08T21:00:00	1	Precipitación	0
144996	7	Sololá	701	Sololá	4	Finca Santa Victoria	11	Noviembre	2023-11-28T00:00:00	2024-11-08T21:00:00	8	Radiación solar	0
144997	7	Sololá	701	Sololá	4	Finca Santa Victoria	11	Noviembre	2023-11-28T00:00:00	2024-11-08T22:00:00	2	Temperatura media	13.9
144998	7	Sololá	701	Sololá	4	Finca Santa Victoria	11	Noviembre	2023-11-28T00:00:00	2024-11-08T22:00:00	4	Temperatura máxima	14.1
144999	7	Sololá	701	Sololá	4	Finca Santa Victoria	11	Noviembre	2023-11-28T00:00:00	2024-11-08T22:00:00	3	Temperatura mínima	13.9
145000	7	Sololá	701	Sololá	4	Finca Santa Victoria	11	Noviembre	2023-11-28T00:00:00	2024-11-08T22:00:00	5	Humedad	87
145001	7	Sololá	701	Sololá	4	Finca Santa Victoria	11	Noviembre	2023-11-28T00:00:00	2024-11-08T22:00:00	6	Velocidad del viento	4.8
145002	7	Sololá	701	Sololá	4	Finca Santa Victoria	11	Noviembre	2023-11-28T00:00:00	2024-11-08T22:00:00	7	Dirección del viento	4.83
145003	7	Sololá	701	Sololá	4	Finca Santa Victoria	11	Noviembre	2023-11-28T00:00:00	2024-11-08T22:00:00	1	Precipitación	0
145004	7	Sololá	701	Sololá	4	Finca Santa Victoria	11	Noviembre	2023-11-28T00:00:00	2024-11-08T22:00:00	8	Radiación solar	0
145005	7	Sololá	701	Sololá	4	Finca Santa Victoria	11	Noviembre	2023-11-28T00:00:00	2024-11-08T23:00:00	2	Temperatura media	13.6
145006	7	Sololá	701	Sololá	4	Finca Santa Victoria	11	Noviembre	2023-11-28T00:00:00	2024-11-08T23:00:00	4	Temperatura máxima	13.9
145007	7	Sololá	701	Sololá	4	Finca Santa Victoria	11	Noviembre	2023-11-28T00:00:00	2024-11-08T23:00:00	3	Temperatura mínima	13.5
145008	7	Sololá	701	Sololá	4	Finca Santa Victoria	11	Noviembre	2023-11-28T00:00:00	2024-11-08T23:00:00	5	Humedad	86
145009	7	Sololá	701	Sololá	4	Finca Santa Victoria	11	Noviembre	2023-11-28T00:00:00	2024-11-08T23:00:00	6	Velocidad del viento	3.2
145010	7	Sololá	701	Sololá	4	Finca Santa Victoria	11	Noviembre	2023-11-28T00:00:00	2024-11-08T23:00:00	7	Dirección del viento	3.22
145011	7	Sololá	701	Sololá	4	Finca Santa Victoria	11	Noviembre	2023-11-28T00:00:00	2024-11-08T23:00:00	1	Precipitación	0
145012	7	Sololá	701	Sololá	4	Finca Santa Victoria	11	Noviembre	2023-11-28T00:00:00	2024-11-08T23:00:00	8	Radiación solar	0
145013	7	Sololá	701	Sololá	4	Finca Santa Victoria	11	Noviembre	2023-11-29T00:00:00	2024-11-08T00:00:00	2	Temperatura media	13.2
145014	7	Sololá	701	Sololá	4	Finca Santa Victoria	11	Noviembre	2023-11-29T00:00:00	2024-11-08T00:00:00	4	Temperatura máxima	13.6
145015	7	Sololá	701	Sololá	4	Finca Santa Victoria	11	Noviembre	2023-11-29T00:00:00	2024-11-08T00:00:00	3	Temperatura mínima	13.2
145016	7	Sololá	701	Sololá	4	Finca Santa Victoria	11	Noviembre	2023-11-29T00:00:00	2024-11-08T00:00:00	5	Humedad	87
145017	7	Sololá	701	Sololá	4	Finca Santa Victoria	11	Noviembre	2023-11-29T00:00:00	2024-11-08T00:00:00	6	Velocidad del viento	3.2
145018	7	Sololá	701	Sololá	4	Finca Santa Victoria	11	Noviembre	2023-11-29T00:00:00	2024-11-08T00:00:00	7	Dirección del viento	3.22
145019	7	Sololá	701	Sololá	4	Finca Santa Victoria	11	Noviembre	2023-11-29T00:00:00	2024-11-08T00:00:00	1	Precipitación	0
145020	7	Sololá	701	Sololá	4	Finca Santa Victoria	11	Noviembre	2023-11-29T00:00:00	2024-11-08T00:00:00	8	Radiación solar	0
145021	7	Sololá	701	Sololá	4	Finca Santa Victoria	11	Noviembre	2023-11-29T00:00:00	2024-11-08T01:00:00	2	Temperatura media	12.8
145022	7	Sololá	701	Sololá	4	Finca Santa Victoria	11	Noviembre	2023-11-29T00:00:00	2024-11-08T01:00:00	4	Temperatura máxima	13.3
145023	7	Sololá	701	Sololá	4	Finca Santa Victoria	11	Noviembre	2023-11-29T00:00:00	2024-11-08T01:00:00	3	Temperatura mínima	12.8
145024	7	Sololá	701	Sololá	4	Finca Santa Victoria	11	Noviembre	2023-11-29T00:00:00	2024-11-08T01:00:00	5	Humedad	88
145025	7	Sololá	701	Sololá	4	Finca Santa Victoria	11	Noviembre	2023-11-29T00:00:00	2024-11-08T01:00:00	6	Velocidad del viento	3.2
145026	7	Sololá	701	Sololá	4	Finca Santa Victoria	11	Noviembre	2023-11-29T00:00:00	2024-11-08T01:00:00	7	Dirección del viento	3.22
145027	7	Sololá	701	Sololá	4	Finca Santa Victoria	11	Noviembre	2023-11-29T00:00:00	2024-11-08T01:00:00	1	Precipitación	0
145028	7	Sololá	701	Sololá	4	Finca Santa Victoria	11	Noviembre	2023-11-29T00:00:00	2024-11-08T01:00:00	8	Radiación solar	0
145029	7	Sololá	701	Sololá	4	Finca Santa Victoria	11	Noviembre	2023-11-29T00:00:00	2024-11-08T02:00:00	2	Temperatura media	12.4
145030	7	Sololá	701	Sololá	4	Finca Santa Victoria	11	Noviembre	2023-11-29T00:00:00	2024-11-08T02:00:00	4	Temperatura máxima	12.8
145031	7	Sololá	701	Sololá	4	Finca Santa Victoria	11	Noviembre	2023-11-29T00:00:00	2024-11-08T02:00:00	3	Temperatura mínima	12.3
145032	7	Sololá	701	Sololá	4	Finca Santa Victoria	11	Noviembre	2023-11-29T00:00:00	2024-11-08T02:00:00	5	Humedad	90
145033	7	Sololá	701	Sololá	4	Finca Santa Victoria	11	Noviembre	2023-11-29T00:00:00	2024-11-08T02:00:00	6	Velocidad del viento	1.6
145034	7	Sololá	701	Sololá	4	Finca Santa Victoria	11	Noviembre	2023-11-29T00:00:00	2024-11-08T02:00:00	7	Dirección del viento	1.61
145035	7	Sololá	701	Sololá	4	Finca Santa Victoria	11	Noviembre	2023-11-29T00:00:00	2024-11-08T02:00:00	1	Precipitación	0
145036	7	Sololá	701	Sololá	4	Finca Santa Victoria	11	Noviembre	2023-11-29T00:00:00	2024-11-08T02:00:00	8	Radiación solar	0
145037	7	Sololá	701	Sololá	4	Finca Santa Victoria	11	Noviembre	2023-11-29T00:00:00	2024-11-08T03:00:00	2	Temperatura media	12.4
145038	7	Sololá	701	Sololá	4	Finca Santa Victoria	11	Noviembre	2023-11-29T00:00:00	2024-11-08T03:00:00	4	Temperatura máxima	12.6
145039	7	Sololá	701	Sololá	4	Finca Santa Victoria	11	Noviembre	2023-11-29T00:00:00	2024-11-08T03:00:00	3	Temperatura mínima	12.3
145040	7	Sololá	701	Sololá	4	Finca Santa Victoria	11	Noviembre	2023-11-29T00:00:00	2024-11-08T03:00:00	5	Humedad	88
145041	7	Sololá	701	Sololá	4	Finca Santa Victoria	11	Noviembre	2023-11-29T00:00:00	2024-11-08T03:00:00	6	Velocidad del viento	3.2
145042	7	Sololá	701	Sololá	4	Finca Santa Victoria	11	Noviembre	2023-11-29T00:00:00	2024-11-08T03:00:00	7	Dirección del viento	3.22
145043	7	Sololá	701	Sololá	4	Finca Santa Victoria	11	Noviembre	2023-11-29T00:00:00	2024-11-08T03:00:00	1	Precipitación	0
145044	7	Sololá	701	Sololá	4	Finca Santa Victoria	11	Noviembre	2023-11-29T00:00:00	2024-11-08T03:00:00	8	Radiación solar	0
145045	7	Sololá	701	Sololá	4	Finca Santa Victoria	11	Noviembre	2023-11-29T00:00:00	2024-11-08T04:00:00	2	Temperatura media	12.4
145046	7	Sololá	701	Sololá	4	Finca Santa Victoria	11	Noviembre	2023-11-29T00:00:00	2024-11-08T04:00:00	4	Temperatura máxima	12.7
145047	7	Sololá	701	Sololá	4	Finca Santa Victoria	11	Noviembre	2023-11-29T00:00:00	2024-11-08T04:00:00	3	Temperatura mínima	12.3
145048	7	Sololá	701	Sololá	4	Finca Santa Victoria	11	Noviembre	2023-11-29T00:00:00	2024-11-08T04:00:00	5	Humedad	88
145049	7	Sololá	701	Sololá	4	Finca Santa Victoria	11	Noviembre	2023-11-29T00:00:00	2024-11-08T04:00:00	6	Velocidad del viento	3.2
145050	7	Sololá	701	Sololá	4	Finca Santa Victoria	11	Noviembre	2023-11-29T00:00:00	2024-11-08T04:00:00	7	Dirección del viento	3.22
145051	7	Sololá	701	Sololá	4	Finca Santa Victoria	11	Noviembre	2023-11-29T00:00:00	2024-11-08T04:00:00	1	Precipitación	0
145052	7	Sololá	701	Sololá	4	Finca Santa Victoria	11	Noviembre	2023-11-29T00:00:00	2024-11-08T04:00:00	8	Radiación solar	0
145053	7	Sololá	701	Sololá	4	Finca Santa Victoria	11	Noviembre	2023-11-29T00:00:00	2024-11-08T05:00:00	2	Temperatura media	12.1
145054	7	Sololá	701	Sololá	4	Finca Santa Victoria	11	Noviembre	2023-11-29T00:00:00	2024-11-08T05:00:00	4	Temperatura máxima	12.5
145055	7	Sololá	701	Sololá	4	Finca Santa Victoria	11	Noviembre	2023-11-29T00:00:00	2024-11-08T05:00:00	3	Temperatura mínima	12.1
145056	7	Sololá	701	Sololá	4	Finca Santa Victoria	11	Noviembre	2023-11-29T00:00:00	2024-11-08T05:00:00	5	Humedad	85
145057	7	Sololá	701	Sololá	4	Finca Santa Victoria	11	Noviembre	2023-11-29T00:00:00	2024-11-08T05:00:00	6	Velocidad del viento	3.2
145058	7	Sololá	701	Sololá	4	Finca Santa Victoria	11	Noviembre	2023-11-29T00:00:00	2024-11-08T05:00:00	7	Dirección del viento	3.22
145059	7	Sololá	701	Sololá	4	Finca Santa Victoria	11	Noviembre	2023-11-29T00:00:00	2024-11-08T05:00:00	1	Precipitación	0
145060	7	Sololá	701	Sololá	4	Finca Santa Victoria	11	Noviembre	2023-11-29T00:00:00	2024-11-08T05:00:00	8	Radiación solar	0
145061	7	Sololá	701	Sololá	4	Finca Santa Victoria	11	Noviembre	2023-11-29T00:00:00	2024-11-08T06:00:00	2	Temperatura media	11.9
145062	7	Sololá	701	Sololá	4	Finca Santa Victoria	11	Noviembre	2023-11-29T00:00:00	2024-11-08T06:00:00	4	Temperatura máxima	12.1
145063	7	Sololá	701	Sololá	4	Finca Santa Victoria	11	Noviembre	2023-11-29T00:00:00	2024-11-08T06:00:00	3	Temperatura mínima	11.8
145064	7	Sololá	701	Sololá	4	Finca Santa Victoria	11	Noviembre	2023-11-29T00:00:00	2024-11-08T06:00:00	5	Humedad	85
145065	7	Sololá	701	Sololá	4	Finca Santa Victoria	11	Noviembre	2023-11-29T00:00:00	2024-11-08T06:00:00	6	Velocidad del viento	3.2
145066	7	Sololá	701	Sololá	4	Finca Santa Victoria	11	Noviembre	2023-11-29T00:00:00	2024-11-08T06:00:00	7	Dirección del viento	3.22
145067	7	Sololá	701	Sololá	4	Finca Santa Victoria	11	Noviembre	2023-11-29T00:00:00	2024-11-08T06:00:00	1	Precipitación	0
145068	7	Sololá	701	Sololá	4	Finca Santa Victoria	11	Noviembre	2023-11-29T00:00:00	2024-11-08T06:00:00	8	Radiación solar	0
145069	7	Sololá	701	Sololá	4	Finca Santa Victoria	11	Noviembre	2023-11-29T00:00:00	2024-11-08T07:00:00	2	Temperatura media	12.3
145070	7	Sololá	701	Sololá	4	Finca Santa Victoria	11	Noviembre	2023-11-29T00:00:00	2024-11-08T07:00:00	4	Temperatura máxima	12.3
145071	7	Sololá	701	Sololá	4	Finca Santa Victoria	11	Noviembre	2023-11-29T00:00:00	2024-11-08T07:00:00	3	Temperatura mínima	11.8
145072	7	Sololá	701	Sololá	4	Finca Santa Victoria	11	Noviembre	2023-11-29T00:00:00	2024-11-08T07:00:00	5	Humedad	76
145073	7	Sololá	701	Sololá	4	Finca Santa Victoria	11	Noviembre	2023-11-29T00:00:00	2024-11-08T07:00:00	6	Velocidad del viento	3.2
145074	7	Sololá	701	Sololá	4	Finca Santa Victoria	11	Noviembre	2023-11-29T00:00:00	2024-11-08T07:00:00	7	Dirección del viento	3.22
145075	7	Sololá	701	Sololá	4	Finca Santa Victoria	11	Noviembre	2023-11-29T00:00:00	2024-11-08T07:00:00	1	Precipitación	0
145076	7	Sololá	701	Sololá	4	Finca Santa Victoria	11	Noviembre	2023-11-29T00:00:00	2024-11-08T07:00:00	8	Radiación solar	11
145077	7	Sololá	701	Sololá	4	Finca Santa Victoria	11	Noviembre	2023-11-29T00:00:00	2024-11-08T08:00:00	2	Temperatura media	13.7
145078	7	Sololá	701	Sololá	4	Finca Santa Victoria	11	Noviembre	2023-11-29T00:00:00	2024-11-08T08:00:00	4	Temperatura máxima	13.7
145079	7	Sololá	701	Sololá	4	Finca Santa Victoria	11	Noviembre	2023-11-29T00:00:00	2024-11-08T08:00:00	3	Temperatura mínima	12.3
145080	7	Sololá	701	Sololá	4	Finca Santa Victoria	11	Noviembre	2023-11-29T00:00:00	2024-11-08T08:00:00	5	Humedad	68
145081	7	Sololá	701	Sololá	4	Finca Santa Victoria	11	Noviembre	2023-11-29T00:00:00	2024-11-08T08:00:00	6	Velocidad del viento	3.2
145082	7	Sololá	701	Sololá	4	Finca Santa Victoria	11	Noviembre	2023-11-29T00:00:00	2024-11-08T08:00:00	7	Dirección del viento	3.22
145083	7	Sololá	701	Sololá	4	Finca Santa Victoria	11	Noviembre	2023-11-29T00:00:00	2024-11-08T08:00:00	1	Precipitación	0
145084	7	Sololá	701	Sololá	4	Finca Santa Victoria	11	Noviembre	2023-11-29T00:00:00	2024-11-08T08:00:00	8	Radiación solar	60
145085	7	Sololá	701	Sololá	4	Finca Santa Victoria	11	Noviembre	2023-11-29T00:00:00	2024-11-08T09:00:00	2	Temperatura media	15.8
145086	7	Sololá	701	Sololá	4	Finca Santa Victoria	11	Noviembre	2023-11-29T00:00:00	2024-11-08T09:00:00	4	Temperatura máxima	15.8
145087	7	Sololá	701	Sololá	4	Finca Santa Victoria	11	Noviembre	2023-11-29T00:00:00	2024-11-08T09:00:00	3	Temperatura mínima	13.7
145088	7	Sololá	701	Sololá	4	Finca Santa Victoria	11	Noviembre	2023-11-29T00:00:00	2024-11-08T09:00:00	5	Humedad	65
145089	7	Sololá	701	Sololá	4	Finca Santa Victoria	11	Noviembre	2023-11-29T00:00:00	2024-11-08T09:00:00	6	Velocidad del viento	3.2
145090	7	Sololá	701	Sololá	4	Finca Santa Victoria	11	Noviembre	2023-11-29T00:00:00	2024-11-08T09:00:00	7	Dirección del viento	3.22
145091	7	Sololá	701	Sololá	4	Finca Santa Victoria	11	Noviembre	2023-11-29T00:00:00	2024-11-08T09:00:00	1	Precipitación	0
145092	7	Sololá	701	Sololá	4	Finca Santa Victoria	11	Noviembre	2023-11-29T00:00:00	2024-11-08T09:00:00	8	Radiación solar	131
145093	7	Sololá	701	Sololá	4	Finca Santa Victoria	11	Noviembre	2023-11-29T00:00:00	2024-11-08T10:00:00	2	Temperatura media	17.6
145094	7	Sololá	701	Sololá	4	Finca Santa Victoria	11	Noviembre	2023-11-29T00:00:00	2024-11-08T10:00:00	4	Temperatura máxima	17.6
145095	7	Sololá	701	Sololá	4	Finca Santa Victoria	11	Noviembre	2023-11-29T00:00:00	2024-11-08T10:00:00	3	Temperatura mínima	15.7
145096	7	Sololá	701	Sololá	4	Finca Santa Victoria	11	Noviembre	2023-11-29T00:00:00	2024-11-08T10:00:00	5	Humedad	62
145097	7	Sololá	701	Sololá	4	Finca Santa Victoria	11	Noviembre	2023-11-29T00:00:00	2024-11-08T10:00:00	6	Velocidad del viento	4.8
145098	7	Sololá	701	Sololá	4	Finca Santa Victoria	11	Noviembre	2023-11-29T00:00:00	2024-11-08T10:00:00	7	Dirección del viento	4.83
145099	7	Sololá	701	Sololá	4	Finca Santa Victoria	11	Noviembre	2023-11-29T00:00:00	2024-11-08T10:00:00	1	Precipitación	0
145100	7	Sololá	701	Sololá	4	Finca Santa Victoria	11	Noviembre	2023-11-29T00:00:00	2024-11-08T10:00:00	8	Radiación solar	640
145101	7	Sololá	701	Sololá	4	Finca Santa Victoria	11	Noviembre	2023-11-29T00:00:00	2024-11-08T11:00:00	2	Temperatura media	18.8
145102	7	Sololá	701	Sololá	4	Finca Santa Victoria	11	Noviembre	2023-11-29T00:00:00	2024-11-08T11:00:00	4	Temperatura máxima	18.9
145103	7	Sololá	701	Sololá	4	Finca Santa Victoria	11	Noviembre	2023-11-29T00:00:00	2024-11-08T11:00:00	3	Temperatura mínima	17.4
145104	7	Sololá	701	Sololá	4	Finca Santa Victoria	11	Noviembre	2023-11-29T00:00:00	2024-11-08T11:00:00	5	Humedad	60
145105	7	Sololá	701	Sololá	4	Finca Santa Victoria	11	Noviembre	2023-11-29T00:00:00	2024-11-08T11:00:00	6	Velocidad del viento	6.4
145106	7	Sololá	701	Sololá	4	Finca Santa Victoria	11	Noviembre	2023-11-29T00:00:00	2024-11-08T11:00:00	7	Dirección del viento	6.44
145107	7	Sololá	701	Sololá	4	Finca Santa Victoria	11	Noviembre	2023-11-29T00:00:00	2024-11-08T11:00:00	1	Precipitación	0
145108	7	Sololá	701	Sololá	4	Finca Santa Victoria	11	Noviembre	2023-11-29T00:00:00	2024-11-08T11:00:00	8	Radiación solar	776
145109	7	Sololá	701	Sololá	4	Finca Santa Victoria	11	Noviembre	2023-11-29T00:00:00	2024-11-08T12:00:00	2	Temperatura media	19.7
145110	7	Sololá	701	Sololá	4	Finca Santa Victoria	11	Noviembre	2023-11-29T00:00:00	2024-11-08T12:00:00	4	Temperatura máxima	19.8
145111	7	Sololá	701	Sololá	4	Finca Santa Victoria	11	Noviembre	2023-11-29T00:00:00	2024-11-08T12:00:00	3	Temperatura mínima	18.7
145112	7	Sololá	701	Sololá	4	Finca Santa Victoria	11	Noviembre	2023-11-29T00:00:00	2024-11-08T12:00:00	5	Humedad	63
145113	7	Sololá	701	Sololá	4	Finca Santa Victoria	11	Noviembre	2023-11-29T00:00:00	2024-11-08T12:00:00	6	Velocidad del viento	6.4
145114	7	Sololá	701	Sololá	4	Finca Santa Victoria	11	Noviembre	2023-11-29T00:00:00	2024-11-08T12:00:00	7	Dirección del viento	6.44
145115	7	Sololá	701	Sololá	4	Finca Santa Victoria	11	Noviembre	2023-11-29T00:00:00	2024-11-08T12:00:00	1	Precipitación	0
145116	7	Sololá	701	Sololá	4	Finca Santa Victoria	11	Noviembre	2023-11-29T00:00:00	2024-11-08T12:00:00	8	Radiación solar	860
145117	7	Sololá	701	Sololá	4	Finca Santa Victoria	11	Noviembre	2023-11-29T00:00:00	2024-11-08T13:00:00	2	Temperatura media	19.6
145118	7	Sololá	701	Sololá	4	Finca Santa Victoria	11	Noviembre	2023-11-29T00:00:00	2024-11-08T13:00:00	4	Temperatura máxima	19.9
145119	7	Sololá	701	Sololá	4	Finca Santa Victoria	11	Noviembre	2023-11-29T00:00:00	2024-11-08T13:00:00	3	Temperatura mínima	19.1
145120	7	Sololá	701	Sololá	4	Finca Santa Victoria	11	Noviembre	2023-11-29T00:00:00	2024-11-08T13:00:00	5	Humedad	68
145121	7	Sololá	701	Sololá	4	Finca Santa Victoria	11	Noviembre	2023-11-29T00:00:00	2024-11-08T13:00:00	6	Velocidad del viento	4.8
145122	7	Sololá	701	Sololá	4	Finca Santa Victoria	11	Noviembre	2023-11-29T00:00:00	2024-11-08T13:00:00	7	Dirección del viento	4.83
145123	7	Sololá	701	Sololá	4	Finca Santa Victoria	11	Noviembre	2023-11-29T00:00:00	2024-11-08T13:00:00	1	Precipitación	0
145124	7	Sololá	701	Sololá	4	Finca Santa Victoria	11	Noviembre	2023-11-29T00:00:00	2024-11-08T13:00:00	8	Radiación solar	843
145125	7	Sololá	701	Sololá	4	Finca Santa Victoria	11	Noviembre	2023-11-29T00:00:00	2024-11-08T14:00:00	2	Temperatura media	19.6
145126	7	Sololá	701	Sololá	4	Finca Santa Victoria	11	Noviembre	2023-11-29T00:00:00	2024-11-08T14:00:00	4	Temperatura máxima	20.3
145127	7	Sololá	701	Sololá	4	Finca Santa Victoria	11	Noviembre	2023-11-29T00:00:00	2024-11-08T14:00:00	3	Temperatura mínima	19.6
145128	7	Sololá	701	Sololá	4	Finca Santa Victoria	11	Noviembre	2023-11-29T00:00:00	2024-11-08T14:00:00	5	Humedad	66
145129	7	Sololá	701	Sololá	4	Finca Santa Victoria	11	Noviembre	2023-11-29T00:00:00	2024-11-08T14:00:00	6	Velocidad del viento	4.8
145130	7	Sololá	701	Sololá	4	Finca Santa Victoria	11	Noviembre	2023-11-29T00:00:00	2024-11-08T14:00:00	7	Dirección del viento	4.83
145131	7	Sololá	701	Sololá	4	Finca Santa Victoria	11	Noviembre	2023-11-29T00:00:00	2024-11-08T14:00:00	1	Precipitación	0
145132	7	Sololá	701	Sololá	4	Finca Santa Victoria	11	Noviembre	2023-11-29T00:00:00	2024-11-08T14:00:00	8	Radiación solar	653
145133	7	Sololá	701	Sololá	4	Finca Santa Victoria	11	Noviembre	2023-11-29T00:00:00	2024-11-08T15:00:00	2	Temperatura media	18.6
145134	7	Sololá	701	Sololá	4	Finca Santa Victoria	11	Noviembre	2023-11-29T00:00:00	2024-11-08T15:00:00	4	Temperatura máxima	19.6
145135	7	Sololá	701	Sololá	4	Finca Santa Victoria	11	Noviembre	2023-11-29T00:00:00	2024-11-08T15:00:00	3	Temperatura mínima	18.3
145136	7	Sololá	701	Sololá	4	Finca Santa Victoria	11	Noviembre	2023-11-29T00:00:00	2024-11-08T15:00:00	5	Humedad	67
145137	7	Sololá	701	Sololá	4	Finca Santa Victoria	11	Noviembre	2023-11-29T00:00:00	2024-11-08T15:00:00	6	Velocidad del viento	3.2
145138	7	Sololá	701	Sololá	4	Finca Santa Victoria	11	Noviembre	2023-11-29T00:00:00	2024-11-08T15:00:00	7	Dirección del viento	3.22
145139	7	Sololá	701	Sololá	4	Finca Santa Victoria	11	Noviembre	2023-11-29T00:00:00	2024-11-08T15:00:00	1	Precipitación	0
145140	7	Sololá	701	Sololá	4	Finca Santa Victoria	11	Noviembre	2023-11-29T00:00:00	2024-11-08T15:00:00	8	Radiación solar	144
145141	7	Sololá	701	Sololá	4	Finca Santa Victoria	11	Noviembre	2023-11-29T00:00:00	2024-11-08T16:00:00	2	Temperatura media	19.7
145142	7	Sololá	701	Sololá	4	Finca Santa Victoria	11	Noviembre	2023-11-29T00:00:00	2024-11-08T16:00:00	4	Temperatura máxima	19.7
145143	7	Sololá	701	Sololá	4	Finca Santa Victoria	11	Noviembre	2023-11-29T00:00:00	2024-11-08T16:00:00	3	Temperatura mínima	18.7
145144	7	Sololá	701	Sololá	4	Finca Santa Victoria	11	Noviembre	2023-11-29T00:00:00	2024-11-08T16:00:00	5	Humedad	65
145145	7	Sololá	701	Sololá	4	Finca Santa Victoria	11	Noviembre	2023-11-29T00:00:00	2024-11-08T16:00:00	6	Velocidad del viento	3.2
145146	7	Sololá	701	Sololá	4	Finca Santa Victoria	11	Noviembre	2023-11-29T00:00:00	2024-11-08T16:00:00	7	Dirección del viento	3.22
145147	7	Sololá	701	Sololá	4	Finca Santa Victoria	11	Noviembre	2023-11-29T00:00:00	2024-11-08T16:00:00	1	Precipitación	0
145148	7	Sololá	701	Sololá	4	Finca Santa Victoria	11	Noviembre	2023-11-29T00:00:00	2024-11-08T16:00:00	8	Radiación solar	297
145149	7	Sololá	701	Sololá	4	Finca Santa Victoria	11	Noviembre	2023-11-29T00:00:00	2024-11-08T17:00:00	2	Temperatura media	16.3
145150	7	Sololá	701	Sololá	4	Finca Santa Victoria	11	Noviembre	2023-11-29T00:00:00	2024-11-08T17:00:00	4	Temperatura máxima	19.8
145151	7	Sololá	701	Sololá	4	Finca Santa Victoria	11	Noviembre	2023-11-29T00:00:00	2024-11-08T17:00:00	3	Temperatura mínima	16.3
145152	7	Sololá	701	Sololá	4	Finca Santa Victoria	11	Noviembre	2023-11-29T00:00:00	2024-11-08T17:00:00	5	Humedad	74
145153	7	Sololá	701	Sololá	4	Finca Santa Victoria	11	Noviembre	2023-11-29T00:00:00	2024-11-08T17:00:00	6	Velocidad del viento	3.2
145154	7	Sololá	701	Sololá	4	Finca Santa Victoria	11	Noviembre	2023-11-29T00:00:00	2024-11-08T17:00:00	7	Dirección del viento	3.22
145155	7	Sololá	701	Sololá	4	Finca Santa Victoria	11	Noviembre	2023-11-29T00:00:00	2024-11-08T17:00:00	1	Precipitación	0
145156	7	Sololá	701	Sololá	4	Finca Santa Victoria	11	Noviembre	2023-11-29T00:00:00	2024-11-08T17:00:00	8	Radiación solar	98
145157	7	Sololá	701	Sololá	4	Finca Santa Victoria	11	Noviembre	2023-11-29T00:00:00	2024-11-08T18:00:00	2	Temperatura media	14.3
145158	7	Sololá	701	Sololá	4	Finca Santa Victoria	11	Noviembre	2023-11-29T00:00:00	2024-11-08T18:00:00	4	Temperatura máxima	16.3
145159	7	Sololá	701	Sololá	4	Finca Santa Victoria	11	Noviembre	2023-11-29T00:00:00	2024-11-08T18:00:00	3	Temperatura mínima	14.3
145160	7	Sololá	701	Sololá	4	Finca Santa Victoria	11	Noviembre	2023-11-29T00:00:00	2024-11-08T18:00:00	5	Humedad	82
145161	7	Sololá	701	Sololá	4	Finca Santa Victoria	11	Noviembre	2023-11-29T00:00:00	2024-11-08T18:00:00	6	Velocidad del viento	1.6
145162	7	Sololá	701	Sololá	4	Finca Santa Victoria	11	Noviembre	2023-11-29T00:00:00	2024-11-08T18:00:00	7	Dirección del viento	1.61
145163	7	Sololá	701	Sololá	4	Finca Santa Victoria	11	Noviembre	2023-11-29T00:00:00	2024-11-08T18:00:00	1	Precipitación	0
145164	7	Sololá	701	Sololá	4	Finca Santa Victoria	11	Noviembre	2023-11-29T00:00:00	2024-11-08T18:00:00	8	Radiación solar	7
145165	7	Sololá	701	Sololá	4	Finca Santa Victoria	11	Noviembre	2023-11-29T00:00:00	2024-11-08T19:00:00	2	Temperatura media	13.9
145166	7	Sololá	701	Sololá	4	Finca Santa Victoria	11	Noviembre	2023-11-29T00:00:00	2024-11-08T19:00:00	4	Temperatura máxima	14.2
145167	7	Sololá	701	Sololá	4	Finca Santa Victoria	11	Noviembre	2023-11-29T00:00:00	2024-11-08T19:00:00	3	Temperatura mínima	13.8
145168	7	Sololá	701	Sololá	4	Finca Santa Victoria	11	Noviembre	2023-11-29T00:00:00	2024-11-08T19:00:00	5	Humedad	83
145169	7	Sololá	701	Sololá	4	Finca Santa Victoria	11	Noviembre	2023-11-29T00:00:00	2024-11-08T19:00:00	6	Velocidad del viento	3.2
145170	7	Sololá	701	Sololá	4	Finca Santa Victoria	11	Noviembre	2023-11-29T00:00:00	2024-11-08T19:00:00	7	Dirección del viento	3.22
145171	7	Sololá	701	Sololá	4	Finca Santa Victoria	11	Noviembre	2023-11-29T00:00:00	2024-11-08T19:00:00	1	Precipitación	0
145172	7	Sololá	701	Sololá	4	Finca Santa Victoria	11	Noviembre	2023-11-29T00:00:00	2024-11-08T19:00:00	8	Radiación solar	0
145173	7	Sololá	701	Sololá	4	Finca Santa Victoria	11	Noviembre	2023-11-29T00:00:00	2024-11-08T20:00:00	2	Temperatura media	13.6
145174	7	Sololá	701	Sololá	4	Finca Santa Victoria	11	Noviembre	2023-11-29T00:00:00	2024-11-08T20:00:00	4	Temperatura máxima	14
145175	7	Sololá	701	Sololá	4	Finca Santa Victoria	11	Noviembre	2023-11-29T00:00:00	2024-11-08T20:00:00	3	Temperatura mínima	13.6
145176	7	Sololá	701	Sololá	4	Finca Santa Victoria	11	Noviembre	2023-11-29T00:00:00	2024-11-08T20:00:00	5	Humedad	85
145177	7	Sololá	701	Sololá	4	Finca Santa Victoria	11	Noviembre	2023-11-29T00:00:00	2024-11-08T20:00:00	6	Velocidad del viento	3.2
145178	7	Sololá	701	Sololá	4	Finca Santa Victoria	11	Noviembre	2023-11-29T00:00:00	2024-11-08T20:00:00	7	Dirección del viento	3.22
145179	7	Sololá	701	Sololá	4	Finca Santa Victoria	11	Noviembre	2023-11-29T00:00:00	2024-11-08T20:00:00	1	Precipitación	0
145180	7	Sololá	701	Sololá	4	Finca Santa Victoria	11	Noviembre	2023-11-29T00:00:00	2024-11-08T20:00:00	8	Radiación solar	0
145181	7	Sololá	701	Sololá	4	Finca Santa Victoria	11	Noviembre	2023-11-29T00:00:00	2024-11-08T21:00:00	2	Temperatura media	12.9
145182	7	Sololá	701	Sololá	4	Finca Santa Victoria	11	Noviembre	2023-11-29T00:00:00	2024-11-08T21:00:00	4	Temperatura máxima	13.6
145183	7	Sololá	701	Sololá	4	Finca Santa Victoria	11	Noviembre	2023-11-29T00:00:00	2024-11-08T21:00:00	3	Temperatura mínima	12.9
145184	7	Sololá	701	Sololá	4	Finca Santa Victoria	11	Noviembre	2023-11-29T00:00:00	2024-11-08T21:00:00	5	Humedad	86
145185	7	Sololá	701	Sololá	4	Finca Santa Victoria	11	Noviembre	2023-11-29T00:00:00	2024-11-08T21:00:00	6	Velocidad del viento	1.6
145186	7	Sololá	701	Sololá	4	Finca Santa Victoria	11	Noviembre	2023-11-29T00:00:00	2024-11-08T21:00:00	7	Dirección del viento	1.61
145187	7	Sololá	701	Sololá	4	Finca Santa Victoria	11	Noviembre	2023-11-29T00:00:00	2024-11-08T21:00:00	1	Precipitación	0
145188	7	Sololá	701	Sololá	4	Finca Santa Victoria	11	Noviembre	2023-11-29T00:00:00	2024-11-08T21:00:00	8	Radiación solar	0
145189	7	Sololá	701	Sololá	4	Finca Santa Victoria	11	Noviembre	2023-11-29T00:00:00	2024-11-08T22:00:00	2	Temperatura media	13
145190	7	Sololá	701	Sololá	4	Finca Santa Victoria	11	Noviembre	2023-11-29T00:00:00	2024-11-08T22:00:00	4	Temperatura máxima	13.1
145191	7	Sololá	701	Sololá	4	Finca Santa Victoria	11	Noviembre	2023-11-29T00:00:00	2024-11-08T22:00:00	3	Temperatura mínima	12.9
145192	7	Sololá	701	Sololá	4	Finca Santa Victoria	11	Noviembre	2023-11-29T00:00:00	2024-11-08T22:00:00	5	Humedad	85
145193	7	Sololá	701	Sololá	4	Finca Santa Victoria	11	Noviembre	2023-11-29T00:00:00	2024-11-08T22:00:00	6	Velocidad del viento	3.2
145194	7	Sololá	701	Sololá	4	Finca Santa Victoria	11	Noviembre	2023-11-29T00:00:00	2024-11-08T22:00:00	7	Dirección del viento	3.22
145195	7	Sololá	701	Sololá	4	Finca Santa Victoria	11	Noviembre	2023-11-29T00:00:00	2024-11-08T22:00:00	1	Precipitación	0
145196	7	Sololá	701	Sololá	4	Finca Santa Victoria	11	Noviembre	2023-11-29T00:00:00	2024-11-08T22:00:00	8	Radiación solar	0
145197	7	Sololá	701	Sololá	4	Finca Santa Victoria	11	Noviembre	2023-11-29T00:00:00	2024-11-08T23:00:00	2	Temperatura media	13.2
145198	7	Sololá	701	Sololá	4	Finca Santa Victoria	11	Noviembre	2023-11-29T00:00:00	2024-11-08T23:00:00	4	Temperatura máxima	13.3
145199	7	Sololá	701	Sololá	4	Finca Santa Victoria	11	Noviembre	2023-11-29T00:00:00	2024-11-08T23:00:00	3	Temperatura mínima	13
145200	7	Sololá	701	Sololá	4	Finca Santa Victoria	11	Noviembre	2023-11-29T00:00:00	2024-11-08T23:00:00	5	Humedad	84
145201	7	Sololá	701	Sololá	4	Finca Santa Victoria	11	Noviembre	2023-11-29T00:00:00	2024-11-08T23:00:00	6	Velocidad del viento	3.2
145202	7	Sololá	701	Sololá	4	Finca Santa Victoria	11	Noviembre	2023-11-29T00:00:00	2024-11-08T23:00:00	7	Dirección del viento	3.22
145203	7	Sololá	701	Sololá	4	Finca Santa Victoria	11	Noviembre	2023-11-29T00:00:00	2024-11-08T23:00:00	1	Precipitación	0
145204	7	Sololá	701	Sololá	4	Finca Santa Victoria	11	Noviembre	2023-11-29T00:00:00	2024-11-08T23:00:00	8	Radiación solar	0
145205	7	Sololá	701	Sololá	4	Finca Santa Victoria	11	Noviembre	2023-11-30T00:00:00	2024-11-08T00:00:00	2	Temperatura media	12.8
145206	7	Sololá	701	Sololá	4	Finca Santa Victoria	11	Noviembre	2023-11-30T00:00:00	2024-11-08T00:00:00	4	Temperatura máxima	13.2
145207	7	Sololá	701	Sololá	4	Finca Santa Victoria	11	Noviembre	2023-11-30T00:00:00	2024-11-08T00:00:00	3	Temperatura mínima	12.8
145208	7	Sololá	701	Sololá	4	Finca Santa Victoria	11	Noviembre	2023-11-30T00:00:00	2024-11-08T00:00:00	5	Humedad	87
145209	7	Sololá	701	Sololá	4	Finca Santa Victoria	11	Noviembre	2023-11-30T00:00:00	2024-11-08T00:00:00	6	Velocidad del viento	1.6
145210	7	Sololá	701	Sololá	4	Finca Santa Victoria	11	Noviembre	2023-11-30T00:00:00	2024-11-08T00:00:00	7	Dirección del viento	1.61
145211	7	Sololá	701	Sololá	4	Finca Santa Victoria	11	Noviembre	2023-11-30T00:00:00	2024-11-08T00:00:00	1	Precipitación	0
145212	7	Sololá	701	Sololá	4	Finca Santa Victoria	11	Noviembre	2023-11-30T00:00:00	2024-11-08T00:00:00	8	Radiación solar	0
145213	7	Sololá	701	Sololá	4	Finca Santa Victoria	11	Noviembre	2023-11-30T00:00:00	2024-11-08T01:00:00	2	Temperatura media	12
145214	7	Sololá	701	Sololá	4	Finca Santa Victoria	11	Noviembre	2023-11-30T00:00:00	2024-11-08T01:00:00	4	Temperatura máxima	12.8
145215	7	Sololá	701	Sololá	4	Finca Santa Victoria	11	Noviembre	2023-11-30T00:00:00	2024-11-08T01:00:00	3	Temperatura mínima	12
145216	7	Sololá	701	Sololá	4	Finca Santa Victoria	11	Noviembre	2023-11-30T00:00:00	2024-11-08T01:00:00	5	Humedad	88
145217	7	Sololá	701	Sololá	4	Finca Santa Victoria	11	Noviembre	2023-11-30T00:00:00	2024-11-08T01:00:00	6	Velocidad del viento	1.6
145218	7	Sololá	701	Sololá	4	Finca Santa Victoria	11	Noviembre	2023-11-30T00:00:00	2024-11-08T01:00:00	7	Dirección del viento	1.61
145219	7	Sololá	701	Sololá	4	Finca Santa Victoria	11	Noviembre	2023-11-30T00:00:00	2024-11-08T01:00:00	1	Precipitación	0
145220	7	Sololá	701	Sololá	4	Finca Santa Victoria	11	Noviembre	2023-11-30T00:00:00	2024-11-08T01:00:00	8	Radiación solar	0
145221	7	Sololá	701	Sololá	4	Finca Santa Victoria	11	Noviembre	2023-11-30T00:00:00	2024-11-08T02:00:00	2	Temperatura media	11.7
145222	7	Sololá	701	Sololá	4	Finca Santa Victoria	11	Noviembre	2023-11-30T00:00:00	2024-11-08T02:00:00	4	Temperatura máxima	12
145223	7	Sololá	701	Sololá	4	Finca Santa Victoria	11	Noviembre	2023-11-30T00:00:00	2024-11-08T02:00:00	3	Temperatura mínima	11.3
145224	7	Sololá	701	Sololá	4	Finca Santa Victoria	11	Noviembre	2023-11-30T00:00:00	2024-11-08T02:00:00	5	Humedad	90
145225	7	Sololá	701	Sololá	4	Finca Santa Victoria	11	Noviembre	2023-11-30T00:00:00	2024-11-08T02:00:00	6	Velocidad del viento	0
145226	7	Sololá	701	Sololá	4	Finca Santa Victoria	11	Noviembre	2023-11-30T00:00:00	2024-11-08T02:00:00	7	Dirección del viento	0
145227	7	Sololá	701	Sololá	4	Finca Santa Victoria	11	Noviembre	2023-11-30T00:00:00	2024-11-08T02:00:00	1	Precipitación	0
145228	7	Sololá	701	Sololá	4	Finca Santa Victoria	11	Noviembre	2023-11-30T00:00:00	2024-11-08T02:00:00	8	Radiación solar	0
145229	7	Sololá	701	Sololá	4	Finca Santa Victoria	11	Noviembre	2023-11-30T00:00:00	2024-11-08T03:00:00	2	Temperatura media	11.2
145230	7	Sololá	701	Sololá	4	Finca Santa Victoria	11	Noviembre	2023-11-30T00:00:00	2024-11-08T03:00:00	4	Temperatura máxima	12
145231	7	Sololá	701	Sololá	4	Finca Santa Victoria	11	Noviembre	2023-11-30T00:00:00	2024-11-08T03:00:00	3	Temperatura mínima	11.2
145232	7	Sololá	701	Sololá	4	Finca Santa Victoria	11	Noviembre	2023-11-30T00:00:00	2024-11-08T03:00:00	5	Humedad	94
145233	7	Sololá	701	Sololá	4	Finca Santa Victoria	11	Noviembre	2023-11-30T00:00:00	2024-11-08T03:00:00	6	Velocidad del viento	0
145234	7	Sololá	701	Sololá	4	Finca Santa Victoria	11	Noviembre	2023-11-30T00:00:00	2024-11-08T03:00:00	7	Dirección del viento	0
145235	7	Sololá	701	Sololá	4	Finca Santa Victoria	11	Noviembre	2023-11-30T00:00:00	2024-11-08T03:00:00	1	Precipitación	0
145236	7	Sololá	701	Sololá	4	Finca Santa Victoria	11	Noviembre	2023-11-30T00:00:00	2024-11-08T03:00:00	8	Radiación solar	0
145237	7	Sololá	701	Sololá	4	Finca Santa Victoria	11	Noviembre	2023-11-30T00:00:00	2024-11-08T04:00:00	2	Temperatura media	10.8
145238	7	Sololá	701	Sololá	4	Finca Santa Victoria	11	Noviembre	2023-11-30T00:00:00	2024-11-08T04:00:00	4	Temperatura máxima	11.2
145239	7	Sololá	701	Sololá	4	Finca Santa Victoria	11	Noviembre	2023-11-30T00:00:00	2024-11-08T04:00:00	3	Temperatura mínima	10.8
145240	7	Sololá	701	Sololá	4	Finca Santa Victoria	11	Noviembre	2023-11-30T00:00:00	2024-11-08T04:00:00	5	Humedad	94
145241	7	Sololá	701	Sololá	4	Finca Santa Victoria	11	Noviembre	2023-11-30T00:00:00	2024-11-08T04:00:00	6	Velocidad del viento	0
145242	7	Sololá	701	Sololá	4	Finca Santa Victoria	11	Noviembre	2023-11-30T00:00:00	2024-11-08T04:00:00	7	Dirección del viento	0
145243	7	Sololá	701	Sololá	4	Finca Santa Victoria	11	Noviembre	2023-11-30T00:00:00	2024-11-08T04:00:00	1	Precipitación	0
145244	7	Sololá	701	Sololá	4	Finca Santa Victoria	11	Noviembre	2023-11-30T00:00:00	2024-11-08T04:00:00	8	Radiación solar	0
145245	7	Sololá	701	Sololá	4	Finca Santa Victoria	11	Noviembre	2023-11-30T00:00:00	2024-11-08T05:00:00	2	Temperatura media	10.7
145246	7	Sololá	701	Sololá	4	Finca Santa Victoria	11	Noviembre	2023-11-30T00:00:00	2024-11-08T05:00:00	4	Temperatura máxima	10.8
145247	7	Sololá	701	Sololá	4	Finca Santa Victoria	11	Noviembre	2023-11-30T00:00:00	2024-11-08T05:00:00	3	Temperatura mínima	10.6
145248	7	Sololá	701	Sololá	4	Finca Santa Victoria	11	Noviembre	2023-11-30T00:00:00	2024-11-08T05:00:00	5	Humedad	95
145249	7	Sololá	701	Sololá	4	Finca Santa Victoria	11	Noviembre	2023-11-30T00:00:00	2024-11-08T05:00:00	6	Velocidad del viento	1.6
145250	7	Sololá	701	Sololá	4	Finca Santa Victoria	11	Noviembre	2023-11-30T00:00:00	2024-11-08T05:00:00	7	Dirección del viento	1.61
145251	7	Sololá	701	Sololá	4	Finca Santa Victoria	11	Noviembre	2023-11-30T00:00:00	2024-11-08T05:00:00	1	Precipitación	0
145252	7	Sololá	701	Sololá	4	Finca Santa Victoria	11	Noviembre	2023-11-30T00:00:00	2024-11-08T05:00:00	8	Radiación solar	0
145253	7	Sololá	701	Sololá	4	Finca Santa Victoria	11	Noviembre	2023-11-30T00:00:00	2024-11-08T06:00:00	2	Temperatura media	10.6
145254	7	Sololá	701	Sololá	4	Finca Santa Victoria	11	Noviembre	2023-11-30T00:00:00	2024-11-08T06:00:00	4	Temperatura máxima	10.8
145255	7	Sololá	701	Sololá	4	Finca Santa Victoria	11	Noviembre	2023-11-30T00:00:00	2024-11-08T06:00:00	3	Temperatura mínima	10.5
145256	7	Sololá	701	Sololá	4	Finca Santa Victoria	11	Noviembre	2023-11-30T00:00:00	2024-11-08T06:00:00	5	Humedad	94
145257	7	Sololá	701	Sololá	4	Finca Santa Victoria	11	Noviembre	2023-11-30T00:00:00	2024-11-08T06:00:00	6	Velocidad del viento	0
145258	7	Sololá	701	Sololá	4	Finca Santa Victoria	11	Noviembre	2023-11-30T00:00:00	2024-11-08T06:00:00	7	Dirección del viento	0
145259	7	Sololá	701	Sololá	4	Finca Santa Victoria	11	Noviembre	2023-11-30T00:00:00	2024-11-08T06:00:00	1	Precipitación	0
145260	7	Sololá	701	Sololá	4	Finca Santa Victoria	11	Noviembre	2023-11-30T00:00:00	2024-11-08T06:00:00	8	Radiación solar	0
145261	7	Sololá	701	Sololá	4	Finca Santa Victoria	11	Noviembre	2023-11-30T00:00:00	2024-11-08T07:00:00	2	Temperatura media	10.8
145262	7	Sololá	701	Sololá	4	Finca Santa Victoria	11	Noviembre	2023-11-30T00:00:00	2024-11-08T07:00:00	4	Temperatura máxima	10.8
145263	7	Sololá	701	Sololá	4	Finca Santa Victoria	11	Noviembre	2023-11-30T00:00:00	2024-11-08T07:00:00	3	Temperatura mínima	10.4
145264	7	Sololá	701	Sololá	4	Finca Santa Victoria	11	Noviembre	2023-11-30T00:00:00	2024-11-08T07:00:00	5	Humedad	96
145265	7	Sololá	701	Sololá	4	Finca Santa Victoria	11	Noviembre	2023-11-30T00:00:00	2024-11-08T07:00:00	6	Velocidad del viento	0
145266	7	Sololá	701	Sololá	4	Finca Santa Victoria	11	Noviembre	2023-11-30T00:00:00	2024-11-08T07:00:00	7	Dirección del viento	0
145267	7	Sololá	701	Sololá	4	Finca Santa Victoria	11	Noviembre	2023-11-30T00:00:00	2024-11-08T07:00:00	1	Precipitación	0
145268	7	Sololá	701	Sololá	4	Finca Santa Victoria	11	Noviembre	2023-11-30T00:00:00	2024-11-08T07:00:00	8	Radiación solar	8
145269	7	Sololá	701	Sololá	4	Finca Santa Victoria	11	Noviembre	2023-11-30T00:00:00	2024-11-08T08:00:00	2	Temperatura media	13.4
145270	7	Sololá	701	Sololá	4	Finca Santa Victoria	11	Noviembre	2023-11-30T00:00:00	2024-11-08T08:00:00	4	Temperatura máxima	13.4
145271	7	Sololá	701	Sololá	4	Finca Santa Victoria	11	Noviembre	2023-11-30T00:00:00	2024-11-08T08:00:00	3	Temperatura mínima	10.8
145272	7	Sololá	701	Sololá	4	Finca Santa Victoria	11	Noviembre	2023-11-30T00:00:00	2024-11-08T08:00:00	5	Humedad	89
145273	7	Sololá	701	Sololá	4	Finca Santa Victoria	11	Noviembre	2023-11-30T00:00:00	2024-11-08T08:00:00	6	Velocidad del viento	1.6
145274	7	Sololá	701	Sololá	4	Finca Santa Victoria	11	Noviembre	2023-11-30T00:00:00	2024-11-08T08:00:00	7	Dirección del viento	1.61
145275	7	Sololá	701	Sololá	4	Finca Santa Victoria	11	Noviembre	2023-11-30T00:00:00	2024-11-08T08:00:00	1	Precipitación	0
145276	7	Sololá	701	Sololá	4	Finca Santa Victoria	11	Noviembre	2023-11-30T00:00:00	2024-11-08T08:00:00	8	Radiación solar	46
145277	7	Sololá	701	Sololá	4	Finca Santa Victoria	11	Noviembre	2023-11-30T00:00:00	2024-11-08T09:00:00	2	Temperatura media	15.8
145278	7	Sololá	701	Sololá	4	Finca Santa Victoria	11	Noviembre	2023-11-30T00:00:00	2024-11-08T09:00:00	4	Temperatura máxima	15.8
145279	7	Sololá	701	Sololá	4	Finca Santa Victoria	11	Noviembre	2023-11-30T00:00:00	2024-11-08T09:00:00	3	Temperatura mínima	13.4
145280	7	Sololá	701	Sololá	4	Finca Santa Victoria	11	Noviembre	2023-11-30T00:00:00	2024-11-08T09:00:00	5	Humedad	82
145281	7	Sololá	701	Sololá	4	Finca Santa Victoria	11	Noviembre	2023-11-30T00:00:00	2024-11-08T09:00:00	6	Velocidad del viento	3.2
145282	7	Sololá	701	Sololá	4	Finca Santa Victoria	11	Noviembre	2023-11-30T00:00:00	2024-11-08T09:00:00	7	Dirección del viento	3.22
145283	7	Sololá	701	Sololá	4	Finca Santa Victoria	11	Noviembre	2023-11-30T00:00:00	2024-11-08T09:00:00	1	Precipitación	0
145284	7	Sololá	701	Sololá	4	Finca Santa Victoria	11	Noviembre	2023-11-30T00:00:00	2024-11-08T09:00:00	8	Radiación solar	120
145285	7	Sololá	701	Sololá	4	Finca Santa Victoria	11	Noviembre	2023-11-30T00:00:00	2024-11-08T10:00:00	2	Temperatura media	18.3
145286	7	Sololá	701	Sololá	4	Finca Santa Victoria	11	Noviembre	2023-11-30T00:00:00	2024-11-08T10:00:00	4	Temperatura máxima	18.3
145287	7	Sololá	701	Sololá	4	Finca Santa Victoria	11	Noviembre	2023-11-30T00:00:00	2024-11-08T10:00:00	3	Temperatura mínima	15.8
145288	7	Sololá	701	Sololá	4	Finca Santa Victoria	11	Noviembre	2023-11-30T00:00:00	2024-11-08T10:00:00	5	Humedad	75
145289	7	Sololá	701	Sololá	4	Finca Santa Victoria	11	Noviembre	2023-11-30T00:00:00	2024-11-08T10:00:00	6	Velocidad del viento	3.2
145290	7	Sololá	701	Sololá	4	Finca Santa Victoria	11	Noviembre	2023-11-30T00:00:00	2024-11-08T10:00:00	7	Dirección del viento	3.22
145291	7	Sololá	701	Sololá	4	Finca Santa Victoria	11	Noviembre	2023-11-30T00:00:00	2024-11-08T10:00:00	1	Precipitación	0
145292	7	Sololá	701	Sololá	4	Finca Santa Victoria	11	Noviembre	2023-11-30T00:00:00	2024-11-08T10:00:00	8	Radiación solar	631
145293	7	Sololá	701	Sololá	4	Finca Santa Victoria	11	Noviembre	2023-11-30T00:00:00	2024-11-08T11:00:00	2	Temperatura media	20.1
145294	7	Sololá	701	Sololá	4	Finca Santa Victoria	11	Noviembre	2023-11-30T00:00:00	2024-11-08T11:00:00	4	Temperatura máxima	20.1
145295	7	Sololá	701	Sololá	4	Finca Santa Victoria	11	Noviembre	2023-11-30T00:00:00	2024-11-08T11:00:00	3	Temperatura mínima	18.3
145296	7	Sololá	701	Sololá	4	Finca Santa Victoria	11	Noviembre	2023-11-30T00:00:00	2024-11-08T11:00:00	5	Humedad	67
145297	7	Sololá	701	Sololá	4	Finca Santa Victoria	11	Noviembre	2023-11-30T00:00:00	2024-11-08T11:00:00	6	Velocidad del viento	3.2
145298	7	Sololá	701	Sololá	4	Finca Santa Victoria	11	Noviembre	2023-11-30T00:00:00	2024-11-08T11:00:00	7	Dirección del viento	3.22
145299	7	Sololá	701	Sololá	4	Finca Santa Victoria	11	Noviembre	2023-11-30T00:00:00	2024-11-08T11:00:00	1	Precipitación	0
145300	7	Sololá	701	Sololá	4	Finca Santa Victoria	11	Noviembre	2023-11-30T00:00:00	2024-11-08T11:00:00	8	Radiación solar	833
145301	7	Sololá	701	Sololá	4	Finca Santa Victoria	11	Noviembre	2023-11-30T00:00:00	2024-11-08T12:00:00	2	Temperatura media	20.7
145302	7	Sololá	701	Sololá	4	Finca Santa Victoria	11	Noviembre	2023-11-30T00:00:00	2024-11-08T12:00:00	4	Temperatura máxima	20.8
145303	7	Sololá	701	Sololá	4	Finca Santa Victoria	11	Noviembre	2023-11-30T00:00:00	2024-11-08T12:00:00	3	Temperatura mínima	20
145304	7	Sololá	701	Sololá	4	Finca Santa Victoria	11	Noviembre	2023-11-30T00:00:00	2024-11-08T12:00:00	5	Humedad	68
145305	7	Sololá	701	Sololá	4	Finca Santa Victoria	11	Noviembre	2023-11-30T00:00:00	2024-11-08T12:00:00	6	Velocidad del viento	4.8
145306	7	Sololá	701	Sololá	4	Finca Santa Victoria	11	Noviembre	2023-11-30T00:00:00	2024-11-08T12:00:00	7	Dirección del viento	4.83
145307	7	Sololá	701	Sololá	4	Finca Santa Victoria	11	Noviembre	2023-11-30T00:00:00	2024-11-08T12:00:00	1	Precipitación	0
145308	7	Sololá	701	Sololá	4	Finca Santa Victoria	11	Noviembre	2023-11-30T00:00:00	2024-11-08T12:00:00	8	Radiación solar	893
145309	7	Sololá	701	Sololá	4	Finca Santa Victoria	11	Noviembre	2023-11-30T00:00:00	2024-11-08T13:00:00	2	Temperatura media	21.1
145310	7	Sololá	701	Sololá	4	Finca Santa Victoria	11	Noviembre	2023-11-30T00:00:00	2024-11-08T13:00:00	4	Temperatura máxima	21.9
145311	7	Sololá	701	Sololá	4	Finca Santa Victoria	11	Noviembre	2023-11-30T00:00:00	2024-11-08T13:00:00	3	Temperatura mínima	20.6
145312	7	Sololá	701	Sololá	4	Finca Santa Victoria	11	Noviembre	2023-11-30T00:00:00	2024-11-08T13:00:00	5	Humedad	57
145313	7	Sololá	701	Sololá	4	Finca Santa Victoria	11	Noviembre	2023-11-30T00:00:00	2024-11-08T13:00:00	6	Velocidad del viento	4.8
145314	7	Sololá	701	Sololá	4	Finca Santa Victoria	11	Noviembre	2023-11-30T00:00:00	2024-11-08T13:00:00	7	Dirección del viento	4.83
145315	7	Sololá	701	Sololá	4	Finca Santa Victoria	11	Noviembre	2023-11-30T00:00:00	2024-11-08T13:00:00	1	Precipitación	0
145316	7	Sololá	701	Sololá	4	Finca Santa Victoria	11	Noviembre	2023-11-30T00:00:00	2024-11-08T13:00:00	8	Radiación solar	877
145317	7	Sololá	701	Sololá	4	Finca Santa Victoria	11	Noviembre	2023-11-30T00:00:00	2024-11-08T14:00:00	2	Temperatura media	20.4
145318	7	Sololá	701	Sololá	4	Finca Santa Victoria	11	Noviembre	2023-11-30T00:00:00	2024-11-08T14:00:00	4	Temperatura máxima	21.2
145319	7	Sololá	701	Sololá	4	Finca Santa Victoria	11	Noviembre	2023-11-30T00:00:00	2024-11-08T14:00:00	3	Temperatura mínima	20.4
145320	7	Sololá	701	Sololá	4	Finca Santa Victoria	11	Noviembre	2023-11-30T00:00:00	2024-11-08T14:00:00	5	Humedad	64
145321	7	Sololá	701	Sololá	4	Finca Santa Victoria	11	Noviembre	2023-11-30T00:00:00	2024-11-08T14:00:00	6	Velocidad del viento	4.8
145322	7	Sololá	701	Sololá	4	Finca Santa Victoria	11	Noviembre	2023-11-30T00:00:00	2024-11-08T14:00:00	7	Dirección del viento	4.83
145323	7	Sololá	701	Sololá	4	Finca Santa Victoria	11	Noviembre	2023-11-30T00:00:00	2024-11-08T14:00:00	1	Precipitación	0
145324	7	Sololá	701	Sololá	4	Finca Santa Victoria	11	Noviembre	2023-11-30T00:00:00	2024-11-08T14:00:00	8	Radiación solar	733
145325	7	Sololá	701	Sololá	4	Finca Santa Victoria	11	Noviembre	2023-11-30T00:00:00	2024-11-08T15:00:00	2	Temperatura media	17.1
145326	7	Sololá	701	Sololá	4	Finca Santa Victoria	11	Noviembre	2023-11-30T00:00:00	2024-11-08T15:00:00	4	Temperatura máxima	20.4
145327	7	Sololá	701	Sololá	4	Finca Santa Victoria	11	Noviembre	2023-11-30T00:00:00	2024-11-08T15:00:00	3	Temperatura mínima	17.1
145328	7	Sololá	701	Sololá	4	Finca Santa Victoria	11	Noviembre	2023-11-30T00:00:00	2024-11-08T15:00:00	5	Humedad	88
145329	7	Sololá	701	Sololá	4	Finca Santa Victoria	11	Noviembre	2023-11-30T00:00:00	2024-11-08T15:00:00	6	Velocidad del viento	4.8
145330	7	Sololá	701	Sololá	4	Finca Santa Victoria	11	Noviembre	2023-11-30T00:00:00	2024-11-08T15:00:00	7	Dirección del viento	4.83
145331	7	Sololá	701	Sololá	4	Finca Santa Victoria	11	Noviembre	2023-11-30T00:00:00	2024-11-08T15:00:00	1	Precipitación	0
145332	7	Sololá	701	Sololá	4	Finca Santa Victoria	11	Noviembre	2023-11-30T00:00:00	2024-11-08T15:00:00	8	Radiación solar	85
145333	7	Sololá	701	Sololá	4	Finca Santa Victoria	11	Noviembre	2023-11-30T00:00:00	2024-11-08T16:00:00	2	Temperatura media	17.3
145334	7	Sololá	701	Sololá	4	Finca Santa Victoria	11	Noviembre	2023-11-30T00:00:00	2024-11-08T16:00:00	4	Temperatura máxima	17.6
145335	7	Sololá	701	Sololá	4	Finca Santa Victoria	11	Noviembre	2023-11-30T00:00:00	2024-11-08T16:00:00	3	Temperatura mínima	16.3
145336	7	Sololá	701	Sololá	4	Finca Santa Victoria	11	Noviembre	2023-11-30T00:00:00	2024-11-08T16:00:00	5	Humedad	88
145337	7	Sololá	701	Sololá	4	Finca Santa Victoria	11	Noviembre	2023-11-30T00:00:00	2024-11-08T16:00:00	6	Velocidad del viento	3.2
145338	7	Sololá	701	Sololá	4	Finca Santa Victoria	11	Noviembre	2023-11-30T00:00:00	2024-11-08T16:00:00	7	Dirección del viento	3.22
145339	7	Sololá	701	Sololá	4	Finca Santa Victoria	11	Noviembre	2023-11-30T00:00:00	2024-11-08T16:00:00	1	Precipitación	0
145340	7	Sololá	701	Sololá	4	Finca Santa Victoria	11	Noviembre	2023-11-30T00:00:00	2024-11-08T16:00:00	8	Radiación solar	52
145341	7	Sololá	701	Sololá	4	Finca Santa Victoria	11	Noviembre	2023-11-30T00:00:00	2024-11-08T17:00:00	2	Temperatura media	16
145342	7	Sololá	701	Sololá	4	Finca Santa Victoria	11	Noviembre	2023-11-30T00:00:00	2024-11-08T17:00:00	4	Temperatura máxima	17.2
145343	7	Sololá	701	Sololá	4	Finca Santa Victoria	11	Noviembre	2023-11-30T00:00:00	2024-11-08T17:00:00	3	Temperatura mínima	16
145344	7	Sololá	701	Sololá	4	Finca Santa Victoria	11	Noviembre	2023-11-30T00:00:00	2024-11-08T17:00:00	5	Humedad	92
145345	7	Sololá	701	Sololá	4	Finca Santa Victoria	11	Noviembre	2023-11-30T00:00:00	2024-11-08T17:00:00	6	Velocidad del viento	1.6
145346	7	Sololá	701	Sololá	4	Finca Santa Victoria	11	Noviembre	2023-11-30T00:00:00	2024-11-08T17:00:00	7	Dirección del viento	1.61
145347	7	Sololá	701	Sololá	4	Finca Santa Victoria	11	Noviembre	2023-11-30T00:00:00	2024-11-08T17:00:00	1	Precipitación	0
145348	7	Sololá	701	Sololá	4	Finca Santa Victoria	11	Noviembre	2023-11-30T00:00:00	2024-11-08T17:00:00	8	Radiación solar	32
145349	7	Sololá	701	Sololá	4	Finca Santa Victoria	11	Noviembre	2023-11-30T00:00:00	2024-11-08T18:00:00	2	Temperatura media	15.2
145350	7	Sololá	701	Sololá	4	Finca Santa Victoria	11	Noviembre	2023-11-30T00:00:00	2024-11-08T18:00:00	4	Temperatura máxima	16
145351	7	Sololá	701	Sololá	4	Finca Santa Victoria	11	Noviembre	2023-11-30T00:00:00	2024-11-08T18:00:00	3	Temperatura mínima	15.2
145352	7	Sololá	701	Sololá	4	Finca Santa Victoria	11	Noviembre	2023-11-30T00:00:00	2024-11-08T18:00:00	5	Humedad	95
145353	7	Sololá	701	Sololá	4	Finca Santa Victoria	11	Noviembre	2023-11-30T00:00:00	2024-11-08T18:00:00	6	Velocidad del viento	0
145354	7	Sololá	701	Sololá	4	Finca Santa Victoria	11	Noviembre	2023-11-30T00:00:00	2024-11-08T18:00:00	7	Dirección del viento	0
145355	7	Sololá	701	Sololá	4	Finca Santa Victoria	11	Noviembre	2023-11-30T00:00:00	2024-11-08T18:00:00	1	Precipitación	0
145356	7	Sololá	701	Sololá	4	Finca Santa Victoria	11	Noviembre	2023-11-30T00:00:00	2024-11-08T18:00:00	8	Radiación solar	4
145357	7	Sololá	701	Sololá	4	Finca Santa Victoria	11	Noviembre	2023-11-30T00:00:00	2024-11-08T19:00:00	2	Temperatura media	13.9
145358	7	Sololá	701	Sololá	4	Finca Santa Victoria	11	Noviembre	2023-11-30T00:00:00	2024-11-08T19:00:00	4	Temperatura máxima	15.2
145359	7	Sololá	701	Sololá	4	Finca Santa Victoria	11	Noviembre	2023-11-30T00:00:00	2024-11-08T19:00:00	3	Temperatura mínima	13.9
145360	7	Sololá	701	Sololá	4	Finca Santa Victoria	11	Noviembre	2023-11-30T00:00:00	2024-11-08T19:00:00	5	Humedad	95
145361	7	Sololá	701	Sololá	4	Finca Santa Victoria	11	Noviembre	2023-11-30T00:00:00	2024-11-08T19:00:00	6	Velocidad del viento	0
145362	7	Sololá	701	Sololá	4	Finca Santa Victoria	11	Noviembre	2023-11-30T00:00:00	2024-11-08T19:00:00	7	Dirección del viento	0
145363	7	Sololá	701	Sololá	4	Finca Santa Victoria	11	Noviembre	2023-11-30T00:00:00	2024-11-08T19:00:00	1	Precipitación	0
145364	7	Sololá	701	Sololá	4	Finca Santa Victoria	11	Noviembre	2023-11-30T00:00:00	2024-11-08T19:00:00	8	Radiación solar	0
145365	7	Sololá	701	Sololá	4	Finca Santa Victoria	11	Noviembre	2023-11-30T00:00:00	2024-11-08T20:00:00	2	Temperatura media	13.2
145366	7	Sololá	701	Sololá	4	Finca Santa Victoria	11	Noviembre	2023-11-30T00:00:00	2024-11-08T20:00:00	4	Temperatura máxima	13.9
145367	7	Sololá	701	Sololá	4	Finca Santa Victoria	11	Noviembre	2023-11-30T00:00:00	2024-11-08T20:00:00	3	Temperatura mínima	13.2
145368	7	Sololá	701	Sololá	4	Finca Santa Victoria	11	Noviembre	2023-11-30T00:00:00	2024-11-08T20:00:00	5	Humedad	97
145369	7	Sololá	701	Sololá	4	Finca Santa Victoria	11	Noviembre	2023-11-30T00:00:00	2024-11-08T20:00:00	6	Velocidad del viento	1.6
145370	7	Sololá	701	Sololá	4	Finca Santa Victoria	11	Noviembre	2023-11-30T00:00:00	2024-11-08T20:00:00	7	Dirección del viento	1.61
145371	7	Sololá	701	Sololá	4	Finca Santa Victoria	11	Noviembre	2023-11-30T00:00:00	2024-11-08T20:00:00	1	Precipitación	0
145372	7	Sololá	701	Sololá	4	Finca Santa Victoria	11	Noviembre	2023-11-30T00:00:00	2024-11-08T20:00:00	8	Radiación solar	0
145373	7	Sololá	701	Sololá	4	Finca Santa Victoria	11	Noviembre	2023-11-30T00:00:00	2024-11-08T21:00:00	2	Temperatura media	12.7
145374	7	Sololá	701	Sololá	4	Finca Santa Victoria	11	Noviembre	2023-11-30T00:00:00	2024-11-08T21:00:00	4	Temperatura máxima	13.2
145375	7	Sololá	701	Sololá	4	Finca Santa Victoria	11	Noviembre	2023-11-30T00:00:00	2024-11-08T21:00:00	3	Temperatura mínima	12.7
145376	7	Sololá	701	Sololá	4	Finca Santa Victoria	11	Noviembre	2023-11-30T00:00:00	2024-11-08T21:00:00	5	Humedad	97
145377	7	Sololá	701	Sololá	4	Finca Santa Victoria	11	Noviembre	2023-11-30T00:00:00	2024-11-08T21:00:00	6	Velocidad del viento	1.6
145378	7	Sololá	701	Sololá	4	Finca Santa Victoria	11	Noviembre	2023-11-30T00:00:00	2024-11-08T21:00:00	7	Dirección del viento	1.61
145379	7	Sololá	701	Sololá	4	Finca Santa Victoria	11	Noviembre	2023-11-30T00:00:00	2024-11-08T21:00:00	1	Precipitación	0
145380	7	Sololá	701	Sololá	4	Finca Santa Victoria	11	Noviembre	2023-11-30T00:00:00	2024-11-08T21:00:00	8	Radiación solar	0
145381	7	Sololá	701	Sololá	4	Finca Santa Victoria	11	Noviembre	2023-11-30T00:00:00	2024-11-08T22:00:00	2	Temperatura media	12.2
145382	7	Sololá	701	Sololá	4	Finca Santa Victoria	11	Noviembre	2023-11-30T00:00:00	2024-11-08T22:00:00	4	Temperatura máxima	12.7
145383	7	Sololá	701	Sololá	4	Finca Santa Victoria	11	Noviembre	2023-11-30T00:00:00	2024-11-08T22:00:00	3	Temperatura mínima	12.2
145384	7	Sololá	701	Sololá	4	Finca Santa Victoria	11	Noviembre	2023-11-30T00:00:00	2024-11-08T22:00:00	5	Humedad	97
145385	7	Sololá	701	Sololá	4	Finca Santa Victoria	11	Noviembre	2023-11-30T00:00:00	2024-11-08T22:00:00	6	Velocidad del viento	1.6
145386	7	Sololá	701	Sololá	4	Finca Santa Victoria	11	Noviembre	2023-11-30T00:00:00	2024-11-08T22:00:00	7	Dirección del viento	1.61
145387	7	Sololá	701	Sololá	4	Finca Santa Victoria	11	Noviembre	2023-11-30T00:00:00	2024-11-08T22:00:00	1	Precipitación	0
145388	7	Sololá	701	Sololá	4	Finca Santa Victoria	11	Noviembre	2023-11-30T00:00:00	2024-11-08T22:00:00	8	Radiación solar	0
145389	7	Sololá	701	Sololá	4	Finca Santa Victoria	11	Noviembre	2023-11-30T00:00:00	2024-11-08T23:00:00	2	Temperatura media	12.2
145390	7	Sololá	701	Sololá	4	Finca Santa Victoria	11	Noviembre	2023-11-30T00:00:00	2024-11-08T23:00:00	4	Temperatura máxima	12.3
145391	7	Sololá	701	Sololá	4	Finca Santa Victoria	11	Noviembre	2023-11-30T00:00:00	2024-11-08T23:00:00	3	Temperatura mínima	12.1
145392	7	Sololá	701	Sololá	4	Finca Santa Victoria	11	Noviembre	2023-11-30T00:00:00	2024-11-08T23:00:00	5	Humedad	97
145393	7	Sololá	701	Sololá	4	Finca Santa Victoria	11	Noviembre	2023-11-30T00:00:00	2024-11-08T23:00:00	6	Velocidad del viento	1.6
145394	7	Sololá	701	Sololá	4	Finca Santa Victoria	11	Noviembre	2023-11-30T00:00:00	2024-11-08T23:00:00	7	Dirección del viento	1.61
145395	7	Sololá	701	Sololá	4	Finca Santa Victoria	11	Noviembre	2023-11-30T00:00:00	2024-11-08T23:00:00	1	Precipitación	0
145396	7	Sololá	701	Sololá	4	Finca Santa Victoria	11	Noviembre	2023-11-30T00:00:00	2024-11-08T23:00:00	8	Radiación solar	0
145397	7	Sololá	712	San Antonio Palopó	9	San Antonio Palopo	1	Enero	2023-01-01T00:00:00	2024-11-08T00:00:00	2	Temperatura media	18.7
145398	7	Sololá	712	San Antonio Palopó	9	San Antonio Palopo	1	Enero	2023-01-01T00:00:00	2024-11-08T00:00:00	4	Temperatura máxima	18.7
145399	7	Sololá	712	San Antonio Palopó	9	San Antonio Palopo	1	Enero	2023-01-01T00:00:00	2024-11-08T00:00:00	3	Temperatura mínima	17.9
145400	7	Sololá	712	San Antonio Palopó	9	San Antonio Palopo	1	Enero	2023-01-01T00:00:00	2024-11-08T00:00:00	5	Humedad	74
145401	7	Sololá	712	San Antonio Palopó	9	San Antonio Palopo	1	Enero	2023-01-01T00:00:00	2024-11-08T00:00:00	6	Velocidad del viento	6.4
145402	7	Sololá	712	San Antonio Palopó	9	San Antonio Palopo	1	Enero	2023-01-01T00:00:00	2024-11-08T00:00:00	7	Dirección del viento	6.44
145403	7	Sololá	712	San Antonio Palopó	9	San Antonio Palopo	1	Enero	2023-01-01T00:00:00	2024-11-08T00:00:00	1	Precipitación	0
145404	7	Sololá	712	San Antonio Palopó	9	San Antonio Palopo	1	Enero	2023-01-01T00:00:00	2024-11-08T00:00:00	8	Radiación solar	0
145405	7	Sololá	712	San Antonio Palopó	9	San Antonio Palopo	1	Enero	2023-01-01T00:00:00	2024-11-08T01:00:00	2	Temperatura media	18.7
145406	7	Sololá	712	San Antonio Palopó	9	San Antonio Palopo	1	Enero	2023-01-01T00:00:00	2024-11-08T01:00:00	4	Temperatura máxima	18.9
145407	7	Sololá	712	San Antonio Palopó	9	San Antonio Palopo	1	Enero	2023-01-01T00:00:00	2024-11-08T01:00:00	3	Temperatura mínima	18.5
145408	7	Sololá	712	San Antonio Palopó	9	San Antonio Palopo	1	Enero	2023-01-01T00:00:00	2024-11-08T01:00:00	5	Humedad	73
145409	7	Sololá	712	San Antonio Palopó	9	San Antonio Palopo	1	Enero	2023-01-01T00:00:00	2024-11-08T01:00:00	6	Velocidad del viento	6.4
145410	7	Sololá	712	San Antonio Palopó	9	San Antonio Palopo	1	Enero	2023-01-01T00:00:00	2024-11-08T01:00:00	7	Dirección del viento	6.44
145411	7	Sololá	712	San Antonio Palopó	9	San Antonio Palopo	1	Enero	2023-01-01T00:00:00	2024-11-08T01:00:00	1	Precipitación	0
145412	7	Sololá	712	San Antonio Palopó	9	San Antonio Palopo	1	Enero	2023-01-01T00:00:00	2024-11-08T01:00:00	8	Radiación solar	0
145413	7	Sololá	712	San Antonio Palopó	9	San Antonio Palopo	1	Enero	2023-01-01T00:00:00	2024-11-08T02:00:00	2	Temperatura media	16.8
145414	7	Sololá	712	San Antonio Palopó	9	San Antonio Palopo	1	Enero	2023-01-01T00:00:00	2024-11-08T02:00:00	4	Temperatura máxima	18.7
145415	7	Sololá	712	San Antonio Palopó	9	San Antonio Palopo	1	Enero	2023-01-01T00:00:00	2024-11-08T02:00:00	3	Temperatura mínima	16.7
145416	7	Sololá	712	San Antonio Palopó	9	San Antonio Palopo	1	Enero	2023-01-01T00:00:00	2024-11-08T02:00:00	5	Humedad	84
145417	7	Sololá	712	San Antonio Palopó	9	San Antonio Palopo	1	Enero	2023-01-01T00:00:00	2024-11-08T02:00:00	6	Velocidad del viento	4.8
145418	7	Sololá	712	San Antonio Palopó	9	San Antonio Palopo	1	Enero	2023-01-01T00:00:00	2024-11-08T02:00:00	7	Dirección del viento	4.83
145419	7	Sololá	712	San Antonio Palopó	9	San Antonio Palopo	1	Enero	2023-01-01T00:00:00	2024-11-08T02:00:00	1	Precipitación	0
145420	7	Sololá	712	San Antonio Palopó	9	San Antonio Palopo	1	Enero	2023-01-01T00:00:00	2024-11-08T02:00:00	8	Radiación solar	0
145421	7	Sololá	712	San Antonio Palopó	9	San Antonio Palopo	1	Enero	2023-01-01T00:00:00	2024-11-08T03:00:00	2	Temperatura media	16.7
145422	7	Sololá	712	San Antonio Palopó	9	San Antonio Palopo	1	Enero	2023-01-01T00:00:00	2024-11-08T03:00:00	4	Temperatura máxima	17.1
145423	7	Sololá	712	San Antonio Palopó	9	San Antonio Palopo	1	Enero	2023-01-01T00:00:00	2024-11-08T03:00:00	3	Temperatura mínima	16.6
145424	7	Sololá	712	San Antonio Palopó	9	San Antonio Palopo	1	Enero	2023-01-01T00:00:00	2024-11-08T03:00:00	5	Humedad	81
145425	7	Sololá	712	San Antonio Palopó	9	San Antonio Palopo	1	Enero	2023-01-01T00:00:00	2024-11-08T03:00:00	6	Velocidad del viento	3.2
145426	7	Sololá	712	San Antonio Palopó	9	San Antonio Palopo	1	Enero	2023-01-01T00:00:00	2024-11-08T03:00:00	7	Dirección del viento	3.22
145427	7	Sololá	712	San Antonio Palopó	9	San Antonio Palopo	1	Enero	2023-01-01T00:00:00	2024-11-08T03:00:00	1	Precipitación	0
145428	7	Sololá	712	San Antonio Palopó	9	San Antonio Palopo	1	Enero	2023-01-01T00:00:00	2024-11-08T03:00:00	8	Radiación solar	0
145429	7	Sololá	712	San Antonio Palopó	9	San Antonio Palopo	1	Enero	2023-01-01T00:00:00	2024-11-08T04:00:00	2	Temperatura media	17.1
145430	7	Sololá	712	San Antonio Palopó	9	San Antonio Palopo	1	Enero	2023-01-01T00:00:00	2024-11-08T04:00:00	4	Temperatura máxima	17.8
145431	7	Sololá	712	San Antonio Palopó	9	San Antonio Palopo	1	Enero	2023-01-01T00:00:00	2024-11-08T04:00:00	3	Temperatura mínima	16.8
145432	7	Sololá	712	San Antonio Palopó	9	San Antonio Palopo	1	Enero	2023-01-01T00:00:00	2024-11-08T04:00:00	5	Humedad	77
145433	7	Sololá	712	San Antonio Palopó	9	San Antonio Palopo	1	Enero	2023-01-01T00:00:00	2024-11-08T04:00:00	6	Velocidad del viento	4.8
145434	7	Sololá	712	San Antonio Palopó	9	San Antonio Palopo	1	Enero	2023-01-01T00:00:00	2024-11-08T04:00:00	7	Dirección del viento	4.83
145435	7	Sololá	712	San Antonio Palopó	9	San Antonio Palopo	1	Enero	2023-01-01T00:00:00	2024-11-08T04:00:00	1	Precipitación	0
145436	7	Sololá	712	San Antonio Palopó	9	San Antonio Palopo	1	Enero	2023-01-01T00:00:00	2024-11-08T04:00:00	8	Radiación solar	0
145437	7	Sololá	712	San Antonio Palopó	9	San Antonio Palopo	1	Enero	2023-01-01T00:00:00	2024-11-08T05:00:00	2	Temperatura media	17.2
145438	7	Sololá	712	San Antonio Palopó	9	San Antonio Palopo	1	Enero	2023-01-01T00:00:00	2024-11-08T05:00:00	4	Temperatura máxima	17.5
145439	7	Sololá	712	San Antonio Palopó	9	San Antonio Palopo	1	Enero	2023-01-01T00:00:00	2024-11-08T05:00:00	3	Temperatura mínima	17.1
145440	7	Sololá	712	San Antonio Palopó	9	San Antonio Palopo	1	Enero	2023-01-01T00:00:00	2024-11-08T05:00:00	5	Humedad	76
145441	7	Sololá	712	San Antonio Palopó	9	San Antonio Palopo	1	Enero	2023-01-01T00:00:00	2024-11-08T05:00:00	6	Velocidad del viento	6.4
145442	7	Sololá	712	San Antonio Palopó	9	San Antonio Palopo	1	Enero	2023-01-01T00:00:00	2024-11-08T05:00:00	7	Dirección del viento	6.44
145443	7	Sololá	712	San Antonio Palopó	9	San Antonio Palopo	1	Enero	2023-01-01T00:00:00	2024-11-08T05:00:00	1	Precipitación	0
145444	7	Sololá	712	San Antonio Palopó	9	San Antonio Palopo	1	Enero	2023-01-01T00:00:00	2024-11-08T05:00:00	8	Radiación solar	0
145445	7	Sololá	712	San Antonio Palopó	9	San Antonio Palopo	1	Enero	2023-01-01T00:00:00	2024-11-08T06:00:00	2	Temperatura media	17.4
145446	7	Sololá	712	San Antonio Palopó	9	San Antonio Palopo	1	Enero	2023-01-01T00:00:00	2024-11-08T06:00:00	4	Temperatura máxima	17.4
145447	7	Sololá	712	San Antonio Palopó	9	San Antonio Palopo	1	Enero	2023-01-01T00:00:00	2024-11-08T06:00:00	3	Temperatura mínima	16.9
145448	7	Sololá	712	San Antonio Palopó	9	San Antonio Palopo	1	Enero	2023-01-01T00:00:00	2024-11-08T06:00:00	5	Humedad	75
145449	7	Sololá	712	San Antonio Palopó	9	San Antonio Palopo	1	Enero	2023-01-01T00:00:00	2024-11-08T06:00:00	6	Velocidad del viento	6.4
145450	7	Sololá	712	San Antonio Palopó	9	San Antonio Palopo	1	Enero	2023-01-01T00:00:00	2024-11-08T06:00:00	7	Dirección del viento	6.44
145451	7	Sololá	712	San Antonio Palopó	9	San Antonio Palopo	1	Enero	2023-01-01T00:00:00	2024-11-08T06:00:00	1	Precipitación	0
145452	7	Sololá	712	San Antonio Palopó	9	San Antonio Palopo	1	Enero	2023-01-01T00:00:00	2024-11-08T06:00:00	8	Radiación solar	0
145453	7	Sololá	712	San Antonio Palopó	9	San Antonio Palopo	1	Enero	2023-01-01T00:00:00	2024-11-08T07:00:00	2	Temperatura media	17.2
145454	7	Sololá	712	San Antonio Palopó	9	San Antonio Palopo	1	Enero	2023-01-01T00:00:00	2024-11-08T07:00:00	4	Temperatura máxima	17.4
145455	7	Sololá	712	San Antonio Palopó	9	San Antonio Palopo	1	Enero	2023-01-01T00:00:00	2024-11-08T07:00:00	3	Temperatura mínima	16.6
145456	7	Sololá	712	San Antonio Palopó	9	San Antonio Palopo	1	Enero	2023-01-01T00:00:00	2024-11-08T07:00:00	5	Humedad	77
145457	7	Sololá	712	San Antonio Palopó	9	San Antonio Palopo	1	Enero	2023-01-01T00:00:00	2024-11-08T07:00:00	6	Velocidad del viento	9.7
145458	7	Sololá	712	San Antonio Palopó	9	San Antonio Palopo	1	Enero	2023-01-01T00:00:00	2024-11-08T07:00:00	7	Dirección del viento	9.66
145459	7	Sololá	712	San Antonio Palopó	9	San Antonio Palopo	1	Enero	2023-01-01T00:00:00	2024-11-08T07:00:00	1	Precipitación	0
145460	7	Sololá	712	San Antonio Palopó	9	San Antonio Palopo	1	Enero	2023-01-01T00:00:00	2024-11-08T07:00:00	8	Radiación solar	6
145461	7	Sololá	712	San Antonio Palopó	9	San Antonio Palopo	1	Enero	2023-01-01T00:00:00	2024-11-08T08:00:00	2	Temperatura media	18.1
145462	7	Sololá	712	San Antonio Palopó	9	San Antonio Palopo	1	Enero	2023-01-01T00:00:00	2024-11-08T08:00:00	4	Temperatura máxima	18.1
145463	7	Sololá	712	San Antonio Palopó	9	San Antonio Palopo	1	Enero	2023-01-01T00:00:00	2024-11-08T08:00:00	3	Temperatura mínima	17.2
145464	7	Sololá	712	San Antonio Palopó	9	San Antonio Palopo	1	Enero	2023-01-01T00:00:00	2024-11-08T08:00:00	5	Humedad	74
145465	7	Sololá	712	San Antonio Palopó	9	San Antonio Palopo	1	Enero	2023-01-01T00:00:00	2024-11-08T08:00:00	6	Velocidad del viento	12.9
145466	7	Sololá	712	San Antonio Palopó	9	San Antonio Palopo	1	Enero	2023-01-01T00:00:00	2024-11-08T08:00:00	7	Dirección del viento	12.87
145467	7	Sololá	712	San Antonio Palopó	9	San Antonio Palopo	1	Enero	2023-01-01T00:00:00	2024-11-08T08:00:00	1	Precipitación	0
145468	7	Sololá	712	San Antonio Palopó	9	San Antonio Palopo	1	Enero	2023-01-01T00:00:00	2024-11-08T08:00:00	8	Radiación solar	42
145469	7	Sololá	712	San Antonio Palopó	9	San Antonio Palopo	1	Enero	2023-01-01T00:00:00	2024-11-08T09:00:00	2	Temperatura media	18.1
145470	7	Sololá	712	San Antonio Palopó	9	San Antonio Palopo	1	Enero	2023-01-01T00:00:00	2024-11-08T09:00:00	4	Temperatura máxima	18.2
145471	7	Sololá	712	San Antonio Palopó	9	San Antonio Palopo	1	Enero	2023-01-01T00:00:00	2024-11-08T09:00:00	3	Temperatura mínima	17.4
145472	7	Sololá	712	San Antonio Palopó	9	San Antonio Palopo	1	Enero	2023-01-01T00:00:00	2024-11-08T09:00:00	5	Humedad	78
145473	7	Sololá	712	San Antonio Palopó	9	San Antonio Palopo	1	Enero	2023-01-01T00:00:00	2024-11-08T09:00:00	6	Velocidad del viento	3.2
145474	7	Sololá	712	San Antonio Palopó	9	San Antonio Palopo	1	Enero	2023-01-01T00:00:00	2024-11-08T09:00:00	7	Dirección del viento	3.22
145475	7	Sololá	712	San Antonio Palopó	9	San Antonio Palopo	1	Enero	2023-01-01T00:00:00	2024-11-08T09:00:00	1	Precipitación	0
145476	7	Sololá	712	San Antonio Palopó	9	San Antonio Palopo	1	Enero	2023-01-01T00:00:00	2024-11-08T09:00:00	8	Radiación solar	104
145477	7	Sololá	712	San Antonio Palopó	9	San Antonio Palopo	1	Enero	2023-01-01T00:00:00	2024-11-08T10:00:00	2	Temperatura media	19.9
145478	7	Sololá	712	San Antonio Palopó	9	San Antonio Palopo	1	Enero	2023-01-01T00:00:00	2024-11-08T10:00:00	4	Temperatura máxima	20
145479	7	Sololá	712	San Antonio Palopó	9	San Antonio Palopo	1	Enero	2023-01-01T00:00:00	2024-11-08T10:00:00	3	Temperatura mínima	18.1
145480	7	Sololá	712	San Antonio Palopó	9	San Antonio Palopo	1	Enero	2023-01-01T00:00:00	2024-11-08T10:00:00	5	Humedad	73
145481	7	Sololá	712	San Antonio Palopó	9	San Antonio Palopo	1	Enero	2023-01-01T00:00:00	2024-11-08T10:00:00	6	Velocidad del viento	1.6
145482	7	Sololá	712	San Antonio Palopó	9	San Antonio Palopo	1	Enero	2023-01-01T00:00:00	2024-11-08T10:00:00	7	Dirección del viento	1.61
145483	7	Sololá	712	San Antonio Palopó	9	San Antonio Palopo	1	Enero	2023-01-01T00:00:00	2024-11-08T10:00:00	1	Precipitación	0
145484	7	Sololá	712	San Antonio Palopó	9	San Antonio Palopo	1	Enero	2023-01-01T00:00:00	2024-11-08T10:00:00	8	Radiación solar	476
145485	7	Sololá	712	San Antonio Palopó	9	San Antonio Palopo	1	Enero	2023-01-01T00:00:00	2024-11-08T11:00:00	2	Temperatura media	19.7
145486	7	Sololá	712	San Antonio Palopó	9	San Antonio Palopo	1	Enero	2023-01-01T00:00:00	2024-11-08T11:00:00	4	Temperatura máxima	20.1
145487	7	Sololá	712	San Antonio Palopó	9	San Antonio Palopo	1	Enero	2023-01-01T00:00:00	2024-11-08T11:00:00	3	Temperatura mínima	19.6
145488	7	Sololá	712	San Antonio Palopó	9	San Antonio Palopo	1	Enero	2023-01-01T00:00:00	2024-11-08T11:00:00	5	Humedad	73
145489	7	Sololá	712	San Antonio Palopó	9	San Antonio Palopo	1	Enero	2023-01-01T00:00:00	2024-11-08T11:00:00	6	Velocidad del viento	3.2
145490	7	Sololá	712	San Antonio Palopó	9	San Antonio Palopo	1	Enero	2023-01-01T00:00:00	2024-11-08T11:00:00	7	Dirección del viento	3.22
145491	7	Sololá	712	San Antonio Palopó	9	San Antonio Palopo	1	Enero	2023-01-01T00:00:00	2024-11-08T11:00:00	1	Precipitación	0
145492	7	Sololá	712	San Antonio Palopó	9	San Antonio Palopo	1	Enero	2023-01-01T00:00:00	2024-11-08T11:00:00	8	Radiación solar	347
145493	7	Sololá	712	San Antonio Palopó	9	San Antonio Palopo	1	Enero	2023-01-01T00:00:00	2024-11-08T12:00:00	2	Temperatura media	21.8
145494	7	Sololá	712	San Antonio Palopó	9	San Antonio Palopo	1	Enero	2023-01-01T00:00:00	2024-11-08T12:00:00	4	Temperatura máxima	22.5
145495	7	Sololá	712	San Antonio Palopó	9	San Antonio Palopo	1	Enero	2023-01-01T00:00:00	2024-11-08T12:00:00	3	Temperatura mínima	19.7
145496	7	Sololá	712	San Antonio Palopó	9	San Antonio Palopo	1	Enero	2023-01-01T00:00:00	2024-11-08T12:00:00	5	Humedad	72
145497	7	Sololá	712	San Antonio Palopó	9	San Antonio Palopo	1	Enero	2023-01-01T00:00:00	2024-11-08T12:00:00	6	Velocidad del viento	3.2
145498	7	Sololá	712	San Antonio Palopó	9	San Antonio Palopo	1	Enero	2023-01-01T00:00:00	2024-11-08T12:00:00	7	Dirección del viento	3.22
145499	7	Sololá	712	San Antonio Palopó	9	San Antonio Palopo	1	Enero	2023-01-01T00:00:00	2024-11-08T12:00:00	1	Precipitación	0
145500	7	Sololá	712	San Antonio Palopó	9	San Antonio Palopo	1	Enero	2023-01-01T00:00:00	2024-11-08T12:00:00	8	Radiación solar	367
145501	7	Sololá	712	San Antonio Palopó	9	San Antonio Palopo	1	Enero	2023-01-01T00:00:00	2024-11-08T13:00:00	2	Temperatura media	23.3
145502	7	Sololá	712	San Antonio Palopó	9	San Antonio Palopo	1	Enero	2023-01-01T00:00:00	2024-11-08T13:00:00	4	Temperatura máxima	23.4
145503	7	Sololá	712	San Antonio Palopó	9	San Antonio Palopo	1	Enero	2023-01-01T00:00:00	2024-11-08T13:00:00	3	Temperatura mínima	20.9
145504	7	Sololá	712	San Antonio Palopó	9	San Antonio Palopo	1	Enero	2023-01-01T00:00:00	2024-11-08T13:00:00	5	Humedad	70
145505	7	Sololá	712	San Antonio Palopó	9	San Antonio Palopo	1	Enero	2023-01-01T00:00:00	2024-11-08T13:00:00	6	Velocidad del viento	3.2
145506	7	Sololá	712	San Antonio Palopó	9	San Antonio Palopo	1	Enero	2023-01-01T00:00:00	2024-11-08T13:00:00	7	Dirección del viento	3.22
145507	7	Sololá	712	San Antonio Palopó	9	San Antonio Palopo	1	Enero	2023-01-01T00:00:00	2024-11-08T13:00:00	1	Precipitación	0
145508	7	Sololá	712	San Antonio Palopó	9	San Antonio Palopo	1	Enero	2023-01-01T00:00:00	2024-11-08T13:00:00	8	Radiación solar	488
145509	7	Sololá	712	San Antonio Palopó	9	San Antonio Palopo	1	Enero	2023-01-01T00:00:00	2024-11-08T14:00:00	2	Temperatura media	23.4
145510	7	Sololá	712	San Antonio Palopó	9	San Antonio Palopo	1	Enero	2023-01-01T00:00:00	2024-11-08T14:00:00	4	Temperatura máxima	23.7
145511	7	Sololá	712	San Antonio Palopó	9	San Antonio Palopo	1	Enero	2023-01-01T00:00:00	2024-11-08T14:00:00	3	Temperatura mínima	22.2
145512	7	Sololá	712	San Antonio Palopó	9	San Antonio Palopo	1	Enero	2023-01-01T00:00:00	2024-11-08T14:00:00	5	Humedad	70
145513	7	Sololá	712	San Antonio Palopó	9	San Antonio Palopo	1	Enero	2023-01-01T00:00:00	2024-11-08T14:00:00	6	Velocidad del viento	4.8
145514	7	Sololá	712	San Antonio Palopó	9	San Antonio Palopo	1	Enero	2023-01-01T00:00:00	2024-11-08T14:00:00	7	Dirección del viento	4.83
145515	7	Sololá	712	San Antonio Palopó	9	San Antonio Palopo	1	Enero	2023-01-01T00:00:00	2024-11-08T14:00:00	1	Precipitación	0
145516	7	Sololá	712	San Antonio Palopó	9	San Antonio Palopo	1	Enero	2023-01-01T00:00:00	2024-11-08T14:00:00	8	Radiación solar	440
145517	7	Sololá	712	San Antonio Palopó	9	San Antonio Palopo	1	Enero	2023-01-01T00:00:00	2024-11-08T15:00:00	2	Temperatura media	22.7
145518	7	Sololá	712	San Antonio Palopó	9	San Antonio Palopo	1	Enero	2023-01-01T00:00:00	2024-11-08T15:00:00	4	Temperatura máxima	24.1
145519	7	Sololá	712	San Antonio Palopó	9	San Antonio Palopo	1	Enero	2023-01-01T00:00:00	2024-11-08T15:00:00	3	Temperatura mínima	22.3
145520	7	Sololá	712	San Antonio Palopó	9	San Antonio Palopo	1	Enero	2023-01-01T00:00:00	2024-11-08T15:00:00	5	Humedad	72
145521	7	Sololá	712	San Antonio Palopó	9	San Antonio Palopo	1	Enero	2023-01-01T00:00:00	2024-11-08T15:00:00	6	Velocidad del viento	8
145522	7	Sololá	712	San Antonio Palopó	9	San Antonio Palopo	1	Enero	2023-01-01T00:00:00	2024-11-08T15:00:00	7	Dirección del viento	8.05
145523	7	Sololá	712	San Antonio Palopó	9	San Antonio Palopo	1	Enero	2023-01-01T00:00:00	2024-11-08T15:00:00	1	Precipitación	0
145524	7	Sololá	712	San Antonio Palopó	9	San Antonio Palopo	1	Enero	2023-01-01T00:00:00	2024-11-08T15:00:00	8	Radiación solar	527
145525	7	Sololá	712	San Antonio Palopó	9	San Antonio Palopo	1	Enero	2023-01-01T00:00:00	2024-11-08T16:00:00	2	Temperatura media	22.3
145526	7	Sololá	712	San Antonio Palopó	9	San Antonio Palopo	1	Enero	2023-01-01T00:00:00	2024-11-08T16:00:00	4	Temperatura máxima	22.8
145527	7	Sololá	712	San Antonio Palopó	9	San Antonio Palopo	1	Enero	2023-01-01T00:00:00	2024-11-08T16:00:00	3	Temperatura mínima	21.8
145528	7	Sololá	712	San Antonio Palopó	9	San Antonio Palopo	1	Enero	2023-01-01T00:00:00	2024-11-08T16:00:00	5	Humedad	75
145529	7	Sololá	712	San Antonio Palopó	9	San Antonio Palopo	1	Enero	2023-01-01T00:00:00	2024-11-08T16:00:00	6	Velocidad del viento	8
145530	7	Sololá	712	San Antonio Palopó	9	San Antonio Palopo	1	Enero	2023-01-01T00:00:00	2024-11-08T16:00:00	7	Dirección del viento	8.05
145531	7	Sololá	712	San Antonio Palopó	9	San Antonio Palopo	1	Enero	2023-01-01T00:00:00	2024-11-08T16:00:00	1	Precipitación	0
145532	7	Sololá	712	San Antonio Palopó	9	San Antonio Palopo	1	Enero	2023-01-01T00:00:00	2024-11-08T16:00:00	8	Radiación solar	304
145533	7	Sololá	712	San Antonio Palopó	9	San Antonio Palopo	1	Enero	2023-01-01T00:00:00	2024-11-08T17:00:00	2	Temperatura media	21.6
145534	7	Sololá	712	San Antonio Palopó	9	San Antonio Palopo	1	Enero	2023-01-01T00:00:00	2024-11-08T17:00:00	4	Temperatura máxima	22.3
145535	7	Sololá	712	San Antonio Palopó	9	San Antonio Palopo	1	Enero	2023-01-01T00:00:00	2024-11-08T17:00:00	3	Temperatura mínima	21.5
145536	7	Sololá	712	San Antonio Palopó	9	San Antonio Palopo	1	Enero	2023-01-01T00:00:00	2024-11-08T17:00:00	5	Humedad	76
145537	7	Sololá	712	San Antonio Palopó	9	San Antonio Palopo	1	Enero	2023-01-01T00:00:00	2024-11-08T17:00:00	6	Velocidad del viento	8
145538	7	Sololá	712	San Antonio Palopó	9	San Antonio Palopo	1	Enero	2023-01-01T00:00:00	2024-11-08T17:00:00	7	Dirección del viento	8.05
145539	7	Sololá	712	San Antonio Palopó	9	San Antonio Palopo	1	Enero	2023-01-01T00:00:00	2024-11-08T17:00:00	1	Precipitación	0
145540	7	Sololá	712	San Antonio Palopó	9	San Antonio Palopo	1	Enero	2023-01-01T00:00:00	2024-11-08T17:00:00	8	Radiación solar	218
145541	7	Sololá	712	San Antonio Palopó	9	San Antonio Palopo	1	Enero	2023-01-01T00:00:00	2024-11-08T18:00:00	2	Temperatura media	20.1
145542	7	Sololá	712	San Antonio Palopó	9	San Antonio Palopo	1	Enero	2023-01-01T00:00:00	2024-11-08T18:00:00	4	Temperatura máxima	21.7
145543	7	Sololá	712	San Antonio Palopó	9	San Antonio Palopo	1	Enero	2023-01-01T00:00:00	2024-11-08T18:00:00	3	Temperatura mínima	20.1
145544	7	Sololá	712	San Antonio Palopó	9	San Antonio Palopo	1	Enero	2023-01-01T00:00:00	2024-11-08T18:00:00	5	Humedad	81
145545	7	Sololá	712	San Antonio Palopó	9	San Antonio Palopo	1	Enero	2023-01-01T00:00:00	2024-11-08T18:00:00	6	Velocidad del viento	4.8
145546	7	Sololá	712	San Antonio Palopó	9	San Antonio Palopo	1	Enero	2023-01-01T00:00:00	2024-11-08T18:00:00	7	Dirección del viento	4.83
145547	7	Sololá	712	San Antonio Palopó	9	San Antonio Palopo	1	Enero	2023-01-01T00:00:00	2024-11-08T18:00:00	1	Precipitación	0
145548	7	Sololá	712	San Antonio Palopó	9	San Antonio Palopo	1	Enero	2023-01-01T00:00:00	2024-11-08T18:00:00	8	Radiación solar	33
145549	7	Sololá	712	San Antonio Palopó	9	San Antonio Palopo	1	Enero	2023-01-01T00:00:00	2024-11-08T19:00:00	2	Temperatura media	19.2
145550	7	Sololá	712	San Antonio Palopó	9	San Antonio Palopo	1	Enero	2023-01-01T00:00:00	2024-11-08T19:00:00	4	Temperatura máxima	20.1
145551	7	Sololá	712	San Antonio Palopó	9	San Antonio Palopo	1	Enero	2023-01-01T00:00:00	2024-11-08T19:00:00	3	Temperatura mínima	19.2
145552	7	Sololá	712	San Antonio Palopó	9	San Antonio Palopo	1	Enero	2023-01-01T00:00:00	2024-11-08T19:00:00	5	Humedad	80
145553	7	Sololá	712	San Antonio Palopó	9	San Antonio Palopo	1	Enero	2023-01-01T00:00:00	2024-11-08T19:00:00	6	Velocidad del viento	1.6
145554	7	Sololá	712	San Antonio Palopó	9	San Antonio Palopo	1	Enero	2023-01-01T00:00:00	2024-11-08T19:00:00	7	Dirección del viento	1.61
145555	7	Sololá	712	San Antonio Palopó	9	San Antonio Palopo	1	Enero	2023-01-01T00:00:00	2024-11-08T19:00:00	1	Precipitación	0
145556	7	Sololá	712	San Antonio Palopó	9	San Antonio Palopo	1	Enero	2023-01-01T00:00:00	2024-11-08T19:00:00	8	Radiación solar	0
145557	7	Sololá	712	San Antonio Palopó	9	San Antonio Palopo	1	Enero	2023-01-01T00:00:00	2024-11-08T20:00:00	2	Temperatura media	19.2
145558	7	Sololá	712	San Antonio Palopó	9	San Antonio Palopo	1	Enero	2023-01-01T00:00:00	2024-11-08T20:00:00	4	Temperatura máxima	19.5
145559	7	Sololá	712	San Antonio Palopó	9	San Antonio Palopo	1	Enero	2023-01-01T00:00:00	2024-11-08T20:00:00	3	Temperatura mínima	18.6
145560	7	Sololá	712	San Antonio Palopó	9	San Antonio Palopo	1	Enero	2023-01-01T00:00:00	2024-11-08T20:00:00	5	Humedad	80
145561	7	Sololá	712	San Antonio Palopó	9	San Antonio Palopo	1	Enero	2023-01-01T00:00:00	2024-11-08T20:00:00	6	Velocidad del viento	4.8
145562	7	Sololá	712	San Antonio Palopó	9	San Antonio Palopo	1	Enero	2023-01-01T00:00:00	2024-11-08T20:00:00	7	Dirección del viento	4.83
145563	7	Sololá	712	San Antonio Palopó	9	San Antonio Palopo	1	Enero	2023-01-01T00:00:00	2024-11-08T20:00:00	1	Precipitación	0
145564	7	Sololá	712	San Antonio Palopó	9	San Antonio Palopo	1	Enero	2023-01-01T00:00:00	2024-11-08T20:00:00	8	Radiación solar	0
145565	7	Sololá	712	San Antonio Palopó	9	San Antonio Palopo	1	Enero	2023-01-01T00:00:00	2024-11-08T21:00:00	2	Temperatura media	19.1
145566	7	Sololá	712	San Antonio Palopó	9	San Antonio Palopo	1	Enero	2023-01-01T00:00:00	2024-11-08T21:00:00	4	Temperatura máxima	19.3
145567	7	Sololá	712	San Antonio Palopó	9	San Antonio Palopo	1	Enero	2023-01-01T00:00:00	2024-11-08T21:00:00	3	Temperatura mínima	18.9
145568	7	Sololá	712	San Antonio Palopó	9	San Antonio Palopo	1	Enero	2023-01-01T00:00:00	2024-11-08T21:00:00	5	Humedad	74
145569	7	Sololá	712	San Antonio Palopó	9	San Antonio Palopo	1	Enero	2023-01-01T00:00:00	2024-11-08T21:00:00	6	Velocidad del viento	9.7
145570	7	Sololá	712	San Antonio Palopó	9	San Antonio Palopo	1	Enero	2023-01-01T00:00:00	2024-11-08T21:00:00	7	Dirección del viento	9.66
145571	7	Sololá	712	San Antonio Palopó	9	San Antonio Palopo	1	Enero	2023-01-01T00:00:00	2024-11-08T21:00:00	1	Precipitación	0
145572	7	Sololá	712	San Antonio Palopó	9	San Antonio Palopo	1	Enero	2023-01-01T00:00:00	2024-11-08T21:00:00	8	Radiación solar	0
145573	7	Sololá	712	San Antonio Palopó	9	San Antonio Palopo	1	Enero	2023-01-01T00:00:00	2024-11-08T22:00:00	2	Temperatura media	18.3
145574	7	Sololá	712	San Antonio Palopó	9	San Antonio Palopo	1	Enero	2023-01-01T00:00:00	2024-11-08T22:00:00	4	Temperatura máxima	19.1
145575	7	Sololá	712	San Antonio Palopó	9	San Antonio Palopo	1	Enero	2023-01-01T00:00:00	2024-11-08T22:00:00	3	Temperatura mínima	18.3
145576	7	Sololá	712	San Antonio Palopó	9	San Antonio Palopo	1	Enero	2023-01-01T00:00:00	2024-11-08T22:00:00	5	Humedad	82
145577	7	Sololá	712	San Antonio Palopó	9	San Antonio Palopo	1	Enero	2023-01-01T00:00:00	2024-11-08T22:00:00	6	Velocidad del viento	8
145578	7	Sololá	712	San Antonio Palopó	9	San Antonio Palopo	1	Enero	2023-01-01T00:00:00	2024-11-08T22:00:00	7	Dirección del viento	8.05
145579	7	Sololá	712	San Antonio Palopó	9	San Antonio Palopo	1	Enero	2023-01-01T00:00:00	2024-11-08T22:00:00	1	Precipitación	0
145580	7	Sololá	712	San Antonio Palopó	9	San Antonio Palopo	1	Enero	2023-01-01T00:00:00	2024-11-08T22:00:00	8	Radiación solar	0
145581	7	Sololá	712	San Antonio Palopó	9	San Antonio Palopo	1	Enero	2023-01-01T00:00:00	2024-11-08T23:00:00	2	Temperatura media	17.4
145582	7	Sololá	712	San Antonio Palopó	9	San Antonio Palopo	1	Enero	2023-01-01T00:00:00	2024-11-08T23:00:00	4	Temperatura máxima	18.3
145583	7	Sololá	712	San Antonio Palopó	9	San Antonio Palopo	1	Enero	2023-01-01T00:00:00	2024-11-08T23:00:00	3	Temperatura mínima	17.3
145584	7	Sololá	712	San Antonio Palopó	9	San Antonio Palopo	1	Enero	2023-01-01T00:00:00	2024-11-08T23:00:00	5	Humedad	82
145585	7	Sololá	712	San Antonio Palopó	9	San Antonio Palopo	1	Enero	2023-01-01T00:00:00	2024-11-08T23:00:00	6	Velocidad del viento	3.2
145586	7	Sololá	712	San Antonio Palopó	9	San Antonio Palopo	1	Enero	2023-01-01T00:00:00	2024-11-08T23:00:00	7	Dirección del viento	3.22
145587	7	Sololá	712	San Antonio Palopó	9	San Antonio Palopo	1	Enero	2023-01-01T00:00:00	2024-11-08T23:00:00	1	Precipitación	0
145588	7	Sololá	712	San Antonio Palopó	9	San Antonio Palopo	1	Enero	2023-01-01T00:00:00	2024-11-08T23:00:00	8	Radiación solar	0
145589	7	Sololá	712	San Antonio Palopó	9	San Antonio Palopo	1	Enero	2023-02-01T00:00:00	2024-11-08T00:00:00	2	Temperatura media	17.5
145590	7	Sololá	712	San Antonio Palopó	9	San Antonio Palopo	1	Enero	2023-02-01T00:00:00	2024-11-08T00:00:00	4	Temperatura máxima	17.7
145591	7	Sololá	712	San Antonio Palopó	9	San Antonio Palopo	1	Enero	2023-02-01T00:00:00	2024-11-08T00:00:00	3	Temperatura mínima	17.1
145592	7	Sololá	712	San Antonio Palopó	9	San Antonio Palopo	1	Enero	2023-02-01T00:00:00	2024-11-08T00:00:00	5	Humedad	76
145593	7	Sololá	712	San Antonio Palopó	9	San Antonio Palopo	1	Enero	2023-02-01T00:00:00	2024-11-08T00:00:00	6	Velocidad del viento	4.8
145594	7	Sololá	712	San Antonio Palopó	9	San Antonio Palopo	1	Enero	2023-02-01T00:00:00	2024-11-08T00:00:00	7	Dirección del viento	4.83
145595	7	Sololá	712	San Antonio Palopó	9	San Antonio Palopo	1	Enero	2023-02-01T00:00:00	2024-11-08T00:00:00	1	Precipitación	0
145596	7	Sololá	712	San Antonio Palopó	9	San Antonio Palopo	1	Enero	2023-02-01T00:00:00	2024-11-08T00:00:00	8	Radiación solar	0
145597	7	Sololá	712	San Antonio Palopó	9	San Antonio Palopo	1	Enero	2023-02-01T00:00:00	2024-11-08T01:00:00	2	Temperatura media	17.4
145598	7	Sololá	712	San Antonio Palopó	9	San Antonio Palopo	1	Enero	2023-02-01T00:00:00	2024-11-08T01:00:00	4	Temperatura máxima	17.6
145599	7	Sololá	712	San Antonio Palopó	9	San Antonio Palopo	1	Enero	2023-02-01T00:00:00	2024-11-08T01:00:00	3	Temperatura mínima	17.3
145600	7	Sololá	712	San Antonio Palopó	9	San Antonio Palopo	1	Enero	2023-02-01T00:00:00	2024-11-08T01:00:00	5	Humedad	76
145601	7	Sololá	712	San Antonio Palopó	9	San Antonio Palopo	1	Enero	2023-02-01T00:00:00	2024-11-08T01:00:00	6	Velocidad del viento	4.8
145602	7	Sololá	712	San Antonio Palopó	9	San Antonio Palopo	1	Enero	2023-02-01T00:00:00	2024-11-08T01:00:00	7	Dirección del viento	4.83
145603	7	Sololá	712	San Antonio Palopó	9	San Antonio Palopo	1	Enero	2023-02-01T00:00:00	2024-11-08T01:00:00	1	Precipitación	0
145604	7	Sololá	712	San Antonio Palopó	9	San Antonio Palopo	1	Enero	2023-02-01T00:00:00	2024-11-08T01:00:00	8	Radiación solar	0
145605	7	Sololá	712	San Antonio Palopó	9	San Antonio Palopo	1	Enero	2023-02-01T00:00:00	2024-11-08T02:00:00	2	Temperatura media	16.8
145606	7	Sololá	712	San Antonio Palopó	9	San Antonio Palopo	1	Enero	2023-02-01T00:00:00	2024-11-08T02:00:00	4	Temperatura máxima	17.4
145607	7	Sololá	712	San Antonio Palopó	9	San Antonio Palopo	1	Enero	2023-02-01T00:00:00	2024-11-08T02:00:00	3	Temperatura mínima	16.8
145608	7	Sololá	712	San Antonio Palopó	9	San Antonio Palopo	1	Enero	2023-02-01T00:00:00	2024-11-08T02:00:00	5	Humedad	78
145609	7	Sololá	712	San Antonio Palopó	9	San Antonio Palopo	1	Enero	2023-02-01T00:00:00	2024-11-08T02:00:00	6	Velocidad del viento	4.8
145610	7	Sololá	712	San Antonio Palopó	9	San Antonio Palopo	1	Enero	2023-02-01T00:00:00	2024-11-08T02:00:00	7	Dirección del viento	4.83
145611	7	Sololá	712	San Antonio Palopó	9	San Antonio Palopo	1	Enero	2023-02-01T00:00:00	2024-11-08T02:00:00	1	Precipitación	0
145612	7	Sololá	712	San Antonio Palopó	9	San Antonio Palopo	1	Enero	2023-02-01T00:00:00	2024-11-08T02:00:00	8	Radiación solar	0
145613	7	Sololá	712	San Antonio Palopó	9	San Antonio Palopo	1	Enero	2023-02-01T00:00:00	2024-11-08T03:00:00	2	Temperatura media	16.2
145614	7	Sololá	712	San Antonio Palopó	9	San Antonio Palopo	1	Enero	2023-02-01T00:00:00	2024-11-08T03:00:00	4	Temperatura máxima	17.1
145615	7	Sololá	712	San Antonio Palopó	9	San Antonio Palopo	1	Enero	2023-02-01T00:00:00	2024-11-08T03:00:00	3	Temperatura mínima	16.2
145616	7	Sololá	712	San Antonio Palopó	9	San Antonio Palopo	1	Enero	2023-02-01T00:00:00	2024-11-08T03:00:00	5	Humedad	78
145617	7	Sololá	712	San Antonio Palopó	9	San Antonio Palopo	1	Enero	2023-02-01T00:00:00	2024-11-08T03:00:00	6	Velocidad del viento	8
145618	7	Sololá	712	San Antonio Palopó	9	San Antonio Palopo	1	Enero	2023-02-01T00:00:00	2024-11-08T03:00:00	7	Dirección del viento	8.05
145619	7	Sololá	712	San Antonio Palopó	9	San Antonio Palopo	1	Enero	2023-02-01T00:00:00	2024-11-08T03:00:00	1	Precipitación	0
145620	7	Sololá	712	San Antonio Palopó	9	San Antonio Palopo	1	Enero	2023-02-01T00:00:00	2024-11-08T03:00:00	8	Radiación solar	0
145621	7	Sololá	712	San Antonio Palopó	9	San Antonio Palopo	1	Enero	2023-02-01T00:00:00	2024-11-08T04:00:00	2	Temperatura media	15.9
145622	7	Sololá	712	San Antonio Palopó	9	San Antonio Palopo	1	Enero	2023-02-01T00:00:00	2024-11-08T04:00:00	4	Temperatura máxima	16.2
145623	7	Sololá	712	San Antonio Palopó	9	San Antonio Palopo	1	Enero	2023-02-01T00:00:00	2024-11-08T04:00:00	3	Temperatura mínima	15.6
145624	7	Sololá	712	San Antonio Palopó	9	San Antonio Palopo	1	Enero	2023-02-01T00:00:00	2024-11-08T04:00:00	5	Humedad	79
145625	7	Sololá	712	San Antonio Palopó	9	San Antonio Palopo	1	Enero	2023-02-01T00:00:00	2024-11-08T04:00:00	6	Velocidad del viento	16.1
145626	7	Sololá	712	San Antonio Palopó	9	San Antonio Palopo	1	Enero	2023-02-01T00:00:00	2024-11-08T04:00:00	7	Dirección del viento	16.09
145627	7	Sololá	712	San Antonio Palopó	9	San Antonio Palopo	1	Enero	2023-02-01T00:00:00	2024-11-08T04:00:00	1	Precipitación	0
145628	7	Sololá	712	San Antonio Palopó	9	San Antonio Palopo	1	Enero	2023-02-01T00:00:00	2024-11-08T04:00:00	8	Radiación solar	0
145629	7	Sololá	712	San Antonio Palopó	9	San Antonio Palopo	1	Enero	2023-02-01T00:00:00	2024-11-08T05:00:00	2	Temperatura media	15.8
145630	7	Sololá	712	San Antonio Palopó	9	San Antonio Palopo	1	Enero	2023-02-01T00:00:00	2024-11-08T05:00:00	4	Temperatura máxima	16.2
145631	7	Sololá	712	San Antonio Palopó	9	San Antonio Palopo	1	Enero	2023-02-01T00:00:00	2024-11-08T05:00:00	3	Temperatura mínima	15.8
145632	7	Sololá	712	San Antonio Palopó	9	San Antonio Palopo	1	Enero	2023-02-01T00:00:00	2024-11-08T05:00:00	5	Humedad	77
145633	7	Sololá	712	San Antonio Palopó	9	San Antonio Palopo	1	Enero	2023-02-01T00:00:00	2024-11-08T05:00:00	6	Velocidad del viento	12.9
145634	7	Sololá	712	San Antonio Palopó	9	San Antonio Palopo	1	Enero	2023-02-01T00:00:00	2024-11-08T05:00:00	7	Dirección del viento	12.87
145635	7	Sololá	712	San Antonio Palopó	9	San Antonio Palopo	1	Enero	2023-02-01T00:00:00	2024-11-08T05:00:00	1	Precipitación	0
145636	7	Sololá	712	San Antonio Palopó	9	San Antonio Palopo	1	Enero	2023-02-01T00:00:00	2024-11-08T05:00:00	8	Radiación solar	0
145637	7	Sololá	712	San Antonio Palopó	9	San Antonio Palopo	1	Enero	2023-02-01T00:00:00	2024-11-08T06:00:00	2	Temperatura media	15.8
145638	7	Sololá	712	San Antonio Palopó	9	San Antonio Palopo	1	Enero	2023-02-01T00:00:00	2024-11-08T06:00:00	4	Temperatura máxima	15.9
145639	7	Sololá	712	San Antonio Palopó	9	San Antonio Palopo	1	Enero	2023-02-01T00:00:00	2024-11-08T06:00:00	3	Temperatura mínima	15.6
145640	7	Sololá	712	San Antonio Palopó	9	San Antonio Palopo	1	Enero	2023-02-01T00:00:00	2024-11-08T06:00:00	5	Humedad	77
145641	7	Sololá	712	San Antonio Palopó	9	San Antonio Palopo	1	Enero	2023-02-01T00:00:00	2024-11-08T06:00:00	6	Velocidad del viento	8
145642	7	Sololá	712	San Antonio Palopó	9	San Antonio Palopo	1	Enero	2023-02-01T00:00:00	2024-11-08T06:00:00	7	Dirección del viento	8.05
145643	7	Sololá	712	San Antonio Palopó	9	San Antonio Palopo	1	Enero	2023-02-01T00:00:00	2024-11-08T06:00:00	1	Precipitación	0
145644	7	Sololá	712	San Antonio Palopó	9	San Antonio Palopo	1	Enero	2023-02-01T00:00:00	2024-11-08T06:00:00	8	Radiación solar	0
145645	7	Sololá	712	San Antonio Palopó	9	San Antonio Palopo	1	Enero	2023-02-01T00:00:00	2024-11-08T07:00:00	2	Temperatura media	15.2
145646	7	Sololá	712	San Antonio Palopó	9	San Antonio Palopo	1	Enero	2023-02-01T00:00:00	2024-11-08T07:00:00	4	Temperatura máxima	15.9
145647	7	Sololá	712	San Antonio Palopó	9	San Antonio Palopo	1	Enero	2023-02-01T00:00:00	2024-11-08T07:00:00	3	Temperatura mínima	15.2
145648	7	Sololá	712	San Antonio Palopó	9	San Antonio Palopo	1	Enero	2023-02-01T00:00:00	2024-11-08T07:00:00	5	Humedad	75
145649	7	Sololá	712	San Antonio Palopó	9	San Antonio Palopo	1	Enero	2023-02-01T00:00:00	2024-11-08T07:00:00	6	Velocidad del viento	4.8
145650	7	Sololá	712	San Antonio Palopó	9	San Antonio Palopo	1	Enero	2023-02-01T00:00:00	2024-11-08T07:00:00	7	Dirección del viento	4.83
145651	7	Sololá	712	San Antonio Palopó	9	San Antonio Palopo	1	Enero	2023-02-01T00:00:00	2024-11-08T07:00:00	1	Precipitación	0
145652	7	Sololá	712	San Antonio Palopó	9	San Antonio Palopo	1	Enero	2023-02-01T00:00:00	2024-11-08T07:00:00	8	Radiación solar	4
145653	7	Sololá	712	San Antonio Palopó	9	San Antonio Palopo	1	Enero	2023-02-01T00:00:00	2024-11-08T08:00:00	2	Temperatura media	15.4
145654	7	Sololá	712	San Antonio Palopó	9	San Antonio Palopo	1	Enero	2023-02-01T00:00:00	2024-11-08T08:00:00	4	Temperatura máxima	15.4
145655	7	Sololá	712	San Antonio Palopó	9	San Antonio Palopo	1	Enero	2023-02-01T00:00:00	2024-11-08T08:00:00	3	Temperatura mínima	14.9
145656	7	Sololá	712	San Antonio Palopó	9	San Antonio Palopo	1	Enero	2023-02-01T00:00:00	2024-11-08T08:00:00	5	Humedad	78
145657	7	Sololá	712	San Antonio Palopó	9	San Antonio Palopo	1	Enero	2023-02-01T00:00:00	2024-11-08T08:00:00	6	Velocidad del viento	3.2
145658	7	Sololá	712	San Antonio Palopó	9	San Antonio Palopo	1	Enero	2023-02-01T00:00:00	2024-11-08T08:00:00	7	Dirección del viento	3.22
145659	7	Sololá	712	San Antonio Palopó	9	San Antonio Palopo	1	Enero	2023-02-01T00:00:00	2024-11-08T08:00:00	1	Precipitación	0
145660	7	Sololá	712	San Antonio Palopó	9	San Antonio Palopo	1	Enero	2023-02-01T00:00:00	2024-11-08T08:00:00	8	Radiación solar	33
145661	7	Sololá	712	San Antonio Palopó	9	San Antonio Palopo	1	Enero	2023-02-01T00:00:00	2024-11-08T09:00:00	2	Temperatura media	17.4
145662	7	Sololá	712	San Antonio Palopó	9	San Antonio Palopo	1	Enero	2023-02-01T00:00:00	2024-11-08T09:00:00	4	Temperatura máxima	17.4
145663	7	Sololá	712	San Antonio Palopó	9	San Antonio Palopo	1	Enero	2023-02-01T00:00:00	2024-11-08T09:00:00	3	Temperatura mínima	15.5
145664	7	Sololá	712	San Antonio Palopó	9	San Antonio Palopo	1	Enero	2023-02-01T00:00:00	2024-11-08T09:00:00	5	Humedad	75
145665	7	Sololá	712	San Antonio Palopó	9	San Antonio Palopo	1	Enero	2023-02-01T00:00:00	2024-11-08T09:00:00	6	Velocidad del viento	1.6
145666	7	Sololá	712	San Antonio Palopó	9	San Antonio Palopo	1	Enero	2023-02-01T00:00:00	2024-11-08T09:00:00	7	Dirección del viento	1.61
145667	7	Sololá	712	San Antonio Palopó	9	San Antonio Palopo	1	Enero	2023-02-01T00:00:00	2024-11-08T09:00:00	1	Precipitación	0
145668	7	Sololá	712	San Antonio Palopó	9	San Antonio Palopo	1	Enero	2023-02-01T00:00:00	2024-11-08T09:00:00	8	Radiación solar	129
145669	7	Sololá	712	San Antonio Palopó	9	San Antonio Palopo	1	Enero	2023-02-01T00:00:00	2024-11-08T10:00:00	2	Temperatura media	19.5
145670	7	Sololá	712	San Antonio Palopó	9	San Antonio Palopo	1	Enero	2023-02-01T00:00:00	2024-11-08T10:00:00	4	Temperatura máxima	19.6
145671	7	Sololá	712	San Antonio Palopó	9	San Antonio Palopo	1	Enero	2023-02-01T00:00:00	2024-11-08T10:00:00	3	Temperatura mínima	17.4
145672	7	Sololá	712	San Antonio Palopó	9	San Antonio Palopo	1	Enero	2023-02-01T00:00:00	2024-11-08T10:00:00	5	Humedad	70
145673	7	Sololá	712	San Antonio Palopó	9	San Antonio Palopo	1	Enero	2023-02-01T00:00:00	2024-11-08T10:00:00	6	Velocidad del viento	1.6
145674	7	Sololá	712	San Antonio Palopó	9	San Antonio Palopo	1	Enero	2023-02-01T00:00:00	2024-11-08T10:00:00	7	Dirección del viento	1.61
145675	7	Sololá	712	San Antonio Palopó	9	San Antonio Palopo	1	Enero	2023-02-01T00:00:00	2024-11-08T10:00:00	1	Precipitación	0
145676	7	Sololá	712	San Antonio Palopó	9	San Antonio Palopo	1	Enero	2023-02-01T00:00:00	2024-11-08T10:00:00	8	Radiación solar	486
145677	7	Sololá	712	San Antonio Palopó	9	San Antonio Palopo	1	Enero	2023-02-01T00:00:00	2024-11-08T11:00:00	2	Temperatura media	19.7
145678	7	Sololá	712	San Antonio Palopó	9	San Antonio Palopo	1	Enero	2023-02-01T00:00:00	2024-11-08T11:00:00	4	Temperatura máxima	19.7
145679	7	Sololá	712	San Antonio Palopó	9	San Antonio Palopo	1	Enero	2023-02-01T00:00:00	2024-11-08T11:00:00	3	Temperatura mínima	19.1
145680	7	Sololá	712	San Antonio Palopó	9	San Antonio Palopo	1	Enero	2023-02-01T00:00:00	2024-11-08T11:00:00	5	Humedad	72
145681	7	Sololá	712	San Antonio Palopó	9	San Antonio Palopo	1	Enero	2023-02-01T00:00:00	2024-11-08T11:00:00	6	Velocidad del viento	3.2
145682	7	Sololá	712	San Antonio Palopó	9	San Antonio Palopo	1	Enero	2023-02-01T00:00:00	2024-11-08T11:00:00	7	Dirección del viento	3.22
145683	7	Sololá	712	San Antonio Palopó	9	San Antonio Palopo	1	Enero	2023-02-01T00:00:00	2024-11-08T11:00:00	1	Precipitación	0
145684	7	Sololá	712	San Antonio Palopó	9	San Antonio Palopo	1	Enero	2023-02-01T00:00:00	2024-11-08T11:00:00	8	Radiación solar	518
145685	7	Sololá	712	San Antonio Palopó	9	San Antonio Palopo	1	Enero	2023-02-01T00:00:00	2024-11-08T12:00:00	2	Temperatura media	20.4
145686	7	Sololá	712	San Antonio Palopó	9	San Antonio Palopo	1	Enero	2023-02-01T00:00:00	2024-11-08T12:00:00	4	Temperatura máxima	20.7
145687	7	Sololá	712	San Antonio Palopó	9	San Antonio Palopo	1	Enero	2023-02-01T00:00:00	2024-11-08T12:00:00	3	Temperatura mínima	19.7
145688	7	Sololá	712	San Antonio Palopó	9	San Antonio Palopo	1	Enero	2023-02-01T00:00:00	2024-11-08T12:00:00	5	Humedad	74
145689	7	Sololá	712	San Antonio Palopó	9	San Antonio Palopo	1	Enero	2023-02-01T00:00:00	2024-11-08T12:00:00	6	Velocidad del viento	3.2
145690	7	Sololá	712	San Antonio Palopó	9	San Antonio Palopo	1	Enero	2023-02-01T00:00:00	2024-11-08T12:00:00	7	Dirección del viento	3.22
145691	7	Sololá	712	San Antonio Palopó	9	San Antonio Palopo	1	Enero	2023-02-01T00:00:00	2024-11-08T12:00:00	1	Precipitación	0
145692	7	Sololá	712	San Antonio Palopó	9	San Antonio Palopo	1	Enero	2023-02-01T00:00:00	2024-11-08T12:00:00	8	Radiación solar	605
145693	7	Sololá	712	San Antonio Palopó	9	San Antonio Palopo	1	Enero	2023-02-01T00:00:00	2024-11-08T13:00:00	2	Temperatura media	21.9
145694	7	Sololá	712	San Antonio Palopó	9	San Antonio Palopo	1	Enero	2023-02-01T00:00:00	2024-11-08T13:00:00	4	Temperatura máxima	21.9
145695	7	Sololá	712	San Antonio Palopó	9	San Antonio Palopo	1	Enero	2023-02-01T00:00:00	2024-11-08T13:00:00	3	Temperatura mínima	20.1
145696	7	Sololá	712	San Antonio Palopó	9	San Antonio Palopo	1	Enero	2023-02-01T00:00:00	2024-11-08T13:00:00	5	Humedad	73
145697	7	Sololá	712	San Antonio Palopó	9	San Antonio Palopo	1	Enero	2023-02-01T00:00:00	2024-11-08T13:00:00	6	Velocidad del viento	4.8
145698	7	Sololá	712	San Antonio Palopó	9	San Antonio Palopo	1	Enero	2023-02-01T00:00:00	2024-11-08T13:00:00	7	Dirección del viento	4.83
145699	7	Sololá	712	San Antonio Palopó	9	San Antonio Palopo	1	Enero	2023-02-01T00:00:00	2024-11-08T13:00:00	1	Precipitación	0
145700	7	Sololá	712	San Antonio Palopó	9	San Antonio Palopo	1	Enero	2023-02-01T00:00:00	2024-11-08T13:00:00	8	Radiación solar	563
145701	7	Sololá	712	San Antonio Palopó	9	San Antonio Palopo	1	Enero	2023-02-01T00:00:00	2024-11-08T14:00:00	2	Temperatura media	22.7
145702	7	Sololá	712	San Antonio Palopó	9	San Antonio Palopo	1	Enero	2023-02-01T00:00:00	2024-11-08T14:00:00	4	Temperatura máxima	22.9
145703	7	Sololá	712	San Antonio Palopó	9	San Antonio Palopo	1	Enero	2023-02-01T00:00:00	2024-11-08T14:00:00	3	Temperatura mínima	21.7
145704	7	Sololá	712	San Antonio Palopó	9	San Antonio Palopo	1	Enero	2023-02-01T00:00:00	2024-11-08T14:00:00	5	Humedad	72
145705	7	Sololá	712	San Antonio Palopó	9	San Antonio Palopo	1	Enero	2023-02-01T00:00:00	2024-11-08T14:00:00	6	Velocidad del viento	6.4
145706	7	Sololá	712	San Antonio Palopó	9	San Antonio Palopo	1	Enero	2023-02-01T00:00:00	2024-11-08T14:00:00	7	Dirección del viento	6.44
145707	7	Sololá	712	San Antonio Palopó	9	San Antonio Palopo	1	Enero	2023-02-01T00:00:00	2024-11-08T14:00:00	1	Precipitación	0
145708	7	Sololá	712	San Antonio Palopó	9	San Antonio Palopo	1	Enero	2023-02-01T00:00:00	2024-11-08T14:00:00	8	Radiación solar	674
145709	7	Sololá	712	San Antonio Palopó	9	San Antonio Palopo	1	Enero	2023-02-01T00:00:00	2024-11-08T15:00:00	2	Temperatura media	22.4
145710	7	Sololá	712	San Antonio Palopó	9	San Antonio Palopo	1	Enero	2023-02-01T00:00:00	2024-11-08T15:00:00	4	Temperatura máxima	23.1
145711	7	Sololá	712	San Antonio Palopó	9	San Antonio Palopo	1	Enero	2023-02-01T00:00:00	2024-11-08T15:00:00	3	Temperatura mínima	22.3
145712	7	Sololá	712	San Antonio Palopó	9	San Antonio Palopo	1	Enero	2023-02-01T00:00:00	2024-11-08T15:00:00	5	Humedad	72
145713	7	Sololá	712	San Antonio Palopó	9	San Antonio Palopo	1	Enero	2023-02-01T00:00:00	2024-11-08T15:00:00	6	Velocidad del viento	6.4
145714	7	Sololá	712	San Antonio Palopó	9	San Antonio Palopo	1	Enero	2023-02-01T00:00:00	2024-11-08T15:00:00	7	Dirección del viento	6.44
145715	7	Sololá	712	San Antonio Palopó	9	San Antonio Palopo	1	Enero	2023-02-01T00:00:00	2024-11-08T15:00:00	1	Precipitación	0
145716	7	Sololá	712	San Antonio Palopó	9	San Antonio Palopo	1	Enero	2023-02-01T00:00:00	2024-11-08T15:00:00	8	Radiación solar	537
145717	7	Sololá	712	San Antonio Palopó	9	San Antonio Palopo	1	Enero	2023-02-01T00:00:00	2024-11-08T16:00:00	2	Temperatura media	21.6
145718	7	Sololá	712	San Antonio Palopó	9	San Antonio Palopo	1	Enero	2023-02-01T00:00:00	2024-11-08T16:00:00	4	Temperatura máxima	22.7
145719	7	Sololá	712	San Antonio Palopó	9	San Antonio Palopo	1	Enero	2023-02-01T00:00:00	2024-11-08T16:00:00	3	Temperatura mínima	21.6
145720	7	Sololá	712	San Antonio Palopó	9	San Antonio Palopo	1	Enero	2023-02-01T00:00:00	2024-11-08T16:00:00	5	Humedad	74
145721	7	Sololá	712	San Antonio Palopó	9	San Antonio Palopo	1	Enero	2023-02-01T00:00:00	2024-11-08T16:00:00	6	Velocidad del viento	9.7
145722	7	Sololá	712	San Antonio Palopó	9	San Antonio Palopo	1	Enero	2023-02-01T00:00:00	2024-11-08T16:00:00	7	Dirección del viento	9.66
145723	7	Sololá	712	San Antonio Palopó	9	San Antonio Palopo	1	Enero	2023-02-01T00:00:00	2024-11-08T16:00:00	1	Precipitación	0
145724	7	Sololá	712	San Antonio Palopó	9	San Antonio Palopo	1	Enero	2023-02-01T00:00:00	2024-11-08T16:00:00	8	Radiación solar	381
145725	7	Sololá	712	San Antonio Palopó	9	San Antonio Palopo	1	Enero	2023-02-01T00:00:00	2024-11-08T17:00:00	2	Temperatura media	20.8
145726	7	Sololá	712	San Antonio Palopó	9	San Antonio Palopo	1	Enero	2023-02-01T00:00:00	2024-11-08T17:00:00	4	Temperatura máxima	21.9
145727	7	Sololá	712	San Antonio Palopó	9	San Antonio Palopo	1	Enero	2023-02-01T00:00:00	2024-11-08T17:00:00	3	Temperatura mínima	20.8
145728	7	Sololá	712	San Antonio Palopó	9	San Antonio Palopo	1	Enero	2023-02-01T00:00:00	2024-11-08T17:00:00	5	Humedad	77
145729	7	Sololá	712	San Antonio Palopó	9	San Antonio Palopo	1	Enero	2023-02-01T00:00:00	2024-11-08T17:00:00	6	Velocidad del viento	8
145730	7	Sololá	712	San Antonio Palopó	9	San Antonio Palopo	1	Enero	2023-02-01T00:00:00	2024-11-08T17:00:00	7	Dirección del viento	8.05
145731	7	Sololá	712	San Antonio Palopó	9	San Antonio Palopo	1	Enero	2023-02-01T00:00:00	2024-11-08T17:00:00	1	Precipitación	0
145732	7	Sololá	712	San Antonio Palopó	9	San Antonio Palopo	1	Enero	2023-02-01T00:00:00	2024-11-08T17:00:00	8	Radiación solar	147
145733	7	Sololá	712	San Antonio Palopó	9	San Antonio Palopo	1	Enero	2023-02-01T00:00:00	2024-11-08T18:00:00	2	Temperatura media	19.7
145734	7	Sololá	712	San Antonio Palopó	9	San Antonio Palopo	1	Enero	2023-02-01T00:00:00	2024-11-08T18:00:00	4	Temperatura máxima	20.9
145735	7	Sololá	712	San Antonio Palopó	9	San Antonio Palopo	1	Enero	2023-02-01T00:00:00	2024-11-08T18:00:00	3	Temperatura mínima	19.7
145736	7	Sololá	712	San Antonio Palopó	9	San Antonio Palopo	1	Enero	2023-02-01T00:00:00	2024-11-08T18:00:00	5	Humedad	78
145737	7	Sololá	712	San Antonio Palopó	9	San Antonio Palopo	1	Enero	2023-02-01T00:00:00	2024-11-08T18:00:00	6	Velocidad del viento	4.8
145738	7	Sololá	712	San Antonio Palopó	9	San Antonio Palopo	1	Enero	2023-02-01T00:00:00	2024-11-08T18:00:00	7	Dirección del viento	4.83
145739	7	Sololá	712	San Antonio Palopó	9	San Antonio Palopo	1	Enero	2023-02-01T00:00:00	2024-11-08T18:00:00	1	Precipitación	0
145740	7	Sololá	712	San Antonio Palopó	9	San Antonio Palopo	1	Enero	2023-02-01T00:00:00	2024-11-08T18:00:00	8	Radiación solar	21
145741	7	Sololá	712	San Antonio Palopó	9	San Antonio Palopo	1	Enero	2023-02-01T00:00:00	2024-11-08T19:00:00	2	Temperatura media	18.7
145742	7	Sololá	712	San Antonio Palopó	9	San Antonio Palopo	1	Enero	2023-02-01T00:00:00	2024-11-08T19:00:00	4	Temperatura máxima	19.7
145743	7	Sololá	712	San Antonio Palopó	9	San Antonio Palopo	1	Enero	2023-02-01T00:00:00	2024-11-08T19:00:00	3	Temperatura mínima	18.7
145744	7	Sololá	712	San Antonio Palopó	9	San Antonio Palopo	1	Enero	2023-02-01T00:00:00	2024-11-08T19:00:00	5	Humedad	80
145745	7	Sololá	712	San Antonio Palopó	9	San Antonio Palopo	1	Enero	2023-02-01T00:00:00	2024-11-08T19:00:00	6	Velocidad del viento	1.6
145746	7	Sololá	712	San Antonio Palopó	9	San Antonio Palopo	1	Enero	2023-02-01T00:00:00	2024-11-08T19:00:00	7	Dirección del viento	1.61
145747	7	Sololá	712	San Antonio Palopó	9	San Antonio Palopo	1	Enero	2023-02-01T00:00:00	2024-11-08T19:00:00	1	Precipitación	0
145748	7	Sololá	712	San Antonio Palopó	9	San Antonio Palopo	1	Enero	2023-02-01T00:00:00	2024-11-08T19:00:00	8	Radiación solar	0
145749	7	Sololá	712	San Antonio Palopó	9	San Antonio Palopo	1	Enero	2023-02-01T00:00:00	2024-11-08T20:00:00	2	Temperatura media	18.4
145750	7	Sololá	712	San Antonio Palopó	9	San Antonio Palopo	1	Enero	2023-02-01T00:00:00	2024-11-08T20:00:00	4	Temperatura máxima	18.8
145751	7	Sololá	712	San Antonio Palopó	9	San Antonio Palopo	1	Enero	2023-02-01T00:00:00	2024-11-08T20:00:00	3	Temperatura mínima	18.3
145752	7	Sololá	712	San Antonio Palopó	9	San Antonio Palopo	1	Enero	2023-02-01T00:00:00	2024-11-08T20:00:00	5	Humedad	81
145753	7	Sololá	712	San Antonio Palopó	9	San Antonio Palopo	1	Enero	2023-02-01T00:00:00	2024-11-08T20:00:00	6	Velocidad del viento	3.2
145754	7	Sololá	712	San Antonio Palopó	9	San Antonio Palopo	1	Enero	2023-02-01T00:00:00	2024-11-08T20:00:00	7	Dirección del viento	3.22
145755	7	Sololá	712	San Antonio Palopó	9	San Antonio Palopo	1	Enero	2023-02-01T00:00:00	2024-11-08T20:00:00	1	Precipitación	0
145756	7	Sololá	712	San Antonio Palopó	9	San Antonio Palopo	1	Enero	2023-02-01T00:00:00	2024-11-08T20:00:00	8	Radiación solar	0
145757	7	Sololá	712	San Antonio Palopó	9	San Antonio Palopo	1	Enero	2023-02-01T00:00:00	2024-11-08T21:00:00	2	Temperatura media	17.9
145758	7	Sololá	712	San Antonio Palopó	9	San Antonio Palopo	1	Enero	2023-02-01T00:00:00	2024-11-08T21:00:00	4	Temperatura máxima	18.6
145759	7	Sololá	712	San Antonio Palopó	9	San Antonio Palopo	1	Enero	2023-02-01T00:00:00	2024-11-08T21:00:00	3	Temperatura mínima	17.9
145760	7	Sololá	712	San Antonio Palopó	9	San Antonio Palopo	1	Enero	2023-02-01T00:00:00	2024-11-08T21:00:00	5	Humedad	80
145761	7	Sololá	712	San Antonio Palopó	9	San Antonio Palopo	1	Enero	2023-02-01T00:00:00	2024-11-08T21:00:00	6	Velocidad del viento	3.2
145762	7	Sololá	712	San Antonio Palopó	9	San Antonio Palopo	1	Enero	2023-02-01T00:00:00	2024-11-08T21:00:00	7	Dirección del viento	3.22
145763	7	Sololá	712	San Antonio Palopó	9	San Antonio Palopo	1	Enero	2023-02-01T00:00:00	2024-11-08T21:00:00	1	Precipitación	0
145764	7	Sololá	712	San Antonio Palopó	9	San Antonio Palopo	1	Enero	2023-02-01T00:00:00	2024-11-08T21:00:00	8	Radiación solar	0
145765	7	Sololá	712	San Antonio Palopó	9	San Antonio Palopo	1	Enero	2023-02-01T00:00:00	2024-11-08T22:00:00	2	Temperatura media	17.1
145766	7	Sololá	712	San Antonio Palopó	9	San Antonio Palopo	1	Enero	2023-02-01T00:00:00	2024-11-08T22:00:00	4	Temperatura máxima	17.9
145767	7	Sololá	712	San Antonio Palopó	9	San Antonio Palopo	1	Enero	2023-02-01T00:00:00	2024-11-08T22:00:00	3	Temperatura mínima	17.1
145768	7	Sololá	712	San Antonio Palopó	9	San Antonio Palopo	1	Enero	2023-02-01T00:00:00	2024-11-08T22:00:00	5	Humedad	80
145769	7	Sololá	712	San Antonio Palopó	9	San Antonio Palopo	1	Enero	2023-02-01T00:00:00	2024-11-08T22:00:00	6	Velocidad del viento	4.8
145770	7	Sololá	712	San Antonio Palopó	9	San Antonio Palopo	1	Enero	2023-02-01T00:00:00	2024-11-08T22:00:00	7	Dirección del viento	4.83
145771	7	Sololá	712	San Antonio Palopó	9	San Antonio Palopo	1	Enero	2023-02-01T00:00:00	2024-11-08T22:00:00	1	Precipitación	0
145772	7	Sololá	712	San Antonio Palopó	9	San Antonio Palopo	1	Enero	2023-02-01T00:00:00	2024-11-08T22:00:00	8	Radiación solar	0
145773	7	Sololá	712	San Antonio Palopó	9	San Antonio Palopo	1	Enero	2023-02-01T00:00:00	2024-11-08T23:00:00	2	Temperatura media	17.1
145774	7	Sololá	712	San Antonio Palopó	9	San Antonio Palopo	1	Enero	2023-02-01T00:00:00	2024-11-08T23:00:00	4	Temperatura máxima	17.1
145775	7	Sololá	712	San Antonio Palopó	9	San Antonio Palopo	1	Enero	2023-02-01T00:00:00	2024-11-08T23:00:00	3	Temperatura mínima	16.8
145776	7	Sololá	712	San Antonio Palopó	9	San Antonio Palopo	1	Enero	2023-02-01T00:00:00	2024-11-08T23:00:00	5	Humedad	83
145777	7	Sololá	712	San Antonio Palopó	9	San Antonio Palopo	1	Enero	2023-02-01T00:00:00	2024-11-08T23:00:00	6	Velocidad del viento	3.2
145778	7	Sololá	712	San Antonio Palopó	9	San Antonio Palopo	1	Enero	2023-02-01T00:00:00	2024-11-08T23:00:00	7	Dirección del viento	3.22
145779	7	Sololá	712	San Antonio Palopó	9	San Antonio Palopo	1	Enero	2023-02-01T00:00:00	2024-11-08T23:00:00	1	Precipitación	0
145780	7	Sololá	712	San Antonio Palopó	9	San Antonio Palopo	1	Enero	2023-02-01T00:00:00	2024-11-08T23:00:00	8	Radiación solar	0
145781	7	Sololá	712	San Antonio Palopó	9	San Antonio Palopo	1	Enero	2023-03-01T00:00:00	2024-11-08T00:00:00	2	Temperatura media	17
145782	7	Sololá	712	San Antonio Palopó	9	San Antonio Palopo	1	Enero	2023-03-01T00:00:00	2024-11-08T00:00:00	4	Temperatura máxima	17.1
145783	7	Sololá	712	San Antonio Palopó	9	San Antonio Palopo	1	Enero	2023-03-01T00:00:00	2024-11-08T00:00:00	3	Temperatura mínima	16.8
145784	7	Sololá	712	San Antonio Palopó	9	San Antonio Palopo	1	Enero	2023-03-01T00:00:00	2024-11-08T00:00:00	5	Humedad	82
145785	7	Sololá	712	San Antonio Palopó	9	San Antonio Palopo	1	Enero	2023-03-01T00:00:00	2024-11-08T00:00:00	6	Velocidad del viento	1.6
145786	7	Sololá	712	San Antonio Palopó	9	San Antonio Palopo	1	Enero	2023-03-01T00:00:00	2024-11-08T00:00:00	7	Dirección del viento	1.61
145787	7	Sololá	712	San Antonio Palopó	9	San Antonio Palopo	1	Enero	2023-03-01T00:00:00	2024-11-08T00:00:00	1	Precipitación	0
145788	7	Sololá	712	San Antonio Palopó	9	San Antonio Palopo	1	Enero	2023-03-01T00:00:00	2024-11-08T00:00:00	8	Radiación solar	0
145789	7	Sololá	712	San Antonio Palopó	9	San Antonio Palopo	1	Enero	2023-03-01T00:00:00	2024-11-08T01:00:00	2	Temperatura media	16.6
145790	7	Sololá	712	San Antonio Palopó	9	San Antonio Palopo	1	Enero	2023-03-01T00:00:00	2024-11-08T01:00:00	4	Temperatura máxima	17.1
145791	7	Sololá	712	San Antonio Palopó	9	San Antonio Palopo	1	Enero	2023-03-01T00:00:00	2024-11-08T01:00:00	3	Temperatura mínima	16.6
145792	7	Sololá	712	San Antonio Palopó	9	San Antonio Palopo	1	Enero	2023-03-01T00:00:00	2024-11-08T01:00:00	5	Humedad	78
145793	7	Sololá	712	San Antonio Palopó	9	San Antonio Palopo	1	Enero	2023-03-01T00:00:00	2024-11-08T01:00:00	6	Velocidad del viento	3.2
145794	7	Sololá	712	San Antonio Palopó	9	San Antonio Palopo	1	Enero	2023-03-01T00:00:00	2024-11-08T01:00:00	7	Dirección del viento	3.22
145795	7	Sololá	712	San Antonio Palopó	9	San Antonio Palopo	1	Enero	2023-03-01T00:00:00	2024-11-08T01:00:00	1	Precipitación	0
145796	7	Sololá	712	San Antonio Palopó	9	San Antonio Palopo	1	Enero	2023-03-01T00:00:00	2024-11-08T01:00:00	8	Radiación solar	0
145797	7	Sololá	712	San Antonio Palopó	9	San Antonio Palopo	1	Enero	2023-03-01T00:00:00	2024-11-08T02:00:00	2	Temperatura media	15.9
145798	7	Sololá	712	San Antonio Palopó	9	San Antonio Palopo	1	Enero	2023-03-01T00:00:00	2024-11-08T02:00:00	4	Temperatura máxima	16.7
145799	7	Sololá	712	San Antonio Palopó	9	San Antonio Palopo	1	Enero	2023-03-01T00:00:00	2024-11-08T02:00:00	3	Temperatura mínima	15.9
145800	7	Sololá	712	San Antonio Palopó	9	San Antonio Palopo	1	Enero	2023-03-01T00:00:00	2024-11-08T02:00:00	5	Humedad	81
145801	7	Sololá	712	San Antonio Palopó	9	San Antonio Palopo	1	Enero	2023-03-01T00:00:00	2024-11-08T02:00:00	6	Velocidad del viento	1.6
145802	7	Sololá	712	San Antonio Palopó	9	San Antonio Palopo	1	Enero	2023-03-01T00:00:00	2024-11-08T02:00:00	7	Dirección del viento	1.61
145803	7	Sololá	712	San Antonio Palopó	9	San Antonio Palopo	1	Enero	2023-03-01T00:00:00	2024-11-08T02:00:00	1	Precipitación	0
145804	7	Sololá	712	San Antonio Palopó	9	San Antonio Palopo	1	Enero	2023-03-01T00:00:00	2024-11-08T02:00:00	8	Radiación solar	0
145805	7	Sololá	712	San Antonio Palopó	9	San Antonio Palopo	1	Enero	2023-03-01T00:00:00	2024-11-08T03:00:00	2	Temperatura media	15.5
145806	7	Sololá	712	San Antonio Palopó	9	San Antonio Palopo	1	Enero	2023-03-01T00:00:00	2024-11-08T03:00:00	4	Temperatura máxima	16
145807	7	Sololá	712	San Antonio Palopó	9	San Antonio Palopo	1	Enero	2023-03-01T00:00:00	2024-11-08T03:00:00	3	Temperatura mínima	15.4
145808	7	Sololá	712	San Antonio Palopó	9	San Antonio Palopo	1	Enero	2023-03-01T00:00:00	2024-11-08T03:00:00	5	Humedad	81
145809	7	Sololá	712	San Antonio Palopó	9	San Antonio Palopo	1	Enero	2023-03-01T00:00:00	2024-11-08T03:00:00	6	Velocidad del viento	3.2
145810	7	Sololá	712	San Antonio Palopó	9	San Antonio Palopo	1	Enero	2023-03-01T00:00:00	2024-11-08T03:00:00	7	Dirección del viento	3.22
145811	7	Sololá	712	San Antonio Palopó	9	San Antonio Palopo	1	Enero	2023-03-01T00:00:00	2024-11-08T03:00:00	1	Precipitación	0
145812	7	Sololá	712	San Antonio Palopó	9	San Antonio Palopo	1	Enero	2023-03-01T00:00:00	2024-11-08T03:00:00	8	Radiación solar	0
145813	7	Sololá	712	San Antonio Palopó	9	San Antonio Palopo	1	Enero	2023-03-01T00:00:00	2024-11-08T04:00:00	2	Temperatura media	14.8
145814	7	Sololá	712	San Antonio Palopó	9	San Antonio Palopo	1	Enero	2023-03-01T00:00:00	2024-11-08T04:00:00	4	Temperatura máxima	15.6
145815	7	Sololá	712	San Antonio Palopó	9	San Antonio Palopo	1	Enero	2023-03-01T00:00:00	2024-11-08T04:00:00	3	Temperatura mínima	14.8
145816	7	Sololá	712	San Antonio Palopó	9	San Antonio Palopo	1	Enero	2023-03-01T00:00:00	2024-11-08T04:00:00	5	Humedad	82
145817	7	Sololá	712	San Antonio Palopó	9	San Antonio Palopo	1	Enero	2023-03-01T00:00:00	2024-11-08T04:00:00	6	Velocidad del viento	3.2
145818	7	Sololá	712	San Antonio Palopó	9	San Antonio Palopo	1	Enero	2023-03-01T00:00:00	2024-11-08T04:00:00	7	Dirección del viento	3.22
145819	7	Sololá	712	San Antonio Palopó	9	San Antonio Palopo	1	Enero	2023-03-01T00:00:00	2024-11-08T04:00:00	1	Precipitación	0
145820	7	Sololá	712	San Antonio Palopó	9	San Antonio Palopo	1	Enero	2023-03-01T00:00:00	2024-11-08T04:00:00	8	Radiación solar	0
145821	7	Sololá	712	San Antonio Palopó	9	San Antonio Palopo	1	Enero	2023-03-01T00:00:00	2024-11-08T05:00:00	2	Temperatura media	15.2
145822	7	Sololá	712	San Antonio Palopó	9	San Antonio Palopo	1	Enero	2023-03-01T00:00:00	2024-11-08T05:00:00	4	Temperatura máxima	15.4
145823	7	Sololá	712	San Antonio Palopó	9	San Antonio Palopo	1	Enero	2023-03-01T00:00:00	2024-11-08T05:00:00	3	Temperatura mínima	14.8
145824	7	Sololá	712	San Antonio Palopó	9	San Antonio Palopo	1	Enero	2023-03-01T00:00:00	2024-11-08T05:00:00	5	Humedad	82
145825	7	Sololá	712	San Antonio Palopó	9	San Antonio Palopo	1	Enero	2023-03-01T00:00:00	2024-11-08T05:00:00	6	Velocidad del viento	3.2
145826	7	Sololá	712	San Antonio Palopó	9	San Antonio Palopo	1	Enero	2023-03-01T00:00:00	2024-11-08T05:00:00	7	Dirección del viento	3.22
145827	7	Sololá	712	San Antonio Palopó	9	San Antonio Palopo	1	Enero	2023-03-01T00:00:00	2024-11-08T05:00:00	1	Precipitación	0
145828	7	Sololá	712	San Antonio Palopó	9	San Antonio Palopo	1	Enero	2023-03-01T00:00:00	2024-11-08T05:00:00	8	Radiación solar	0
145829	7	Sololá	712	San Antonio Palopó	9	San Antonio Palopo	1	Enero	2023-03-01T00:00:00	2024-11-08T06:00:00	2	Temperatura media	14.8
145830	7	Sololá	712	San Antonio Palopó	9	San Antonio Palopo	1	Enero	2023-03-01T00:00:00	2024-11-08T06:00:00	4	Temperatura máxima	15.3
145831	7	Sololá	712	San Antonio Palopó	9	San Antonio Palopo	1	Enero	2023-03-01T00:00:00	2024-11-08T06:00:00	3	Temperatura mínima	14.8
145832	7	Sololá	712	San Antonio Palopó	9	San Antonio Palopo	1	Enero	2023-03-01T00:00:00	2024-11-08T06:00:00	5	Humedad	82
145833	7	Sololá	712	San Antonio Palopó	9	San Antonio Palopo	1	Enero	2023-03-01T00:00:00	2024-11-08T06:00:00	6	Velocidad del viento	3.2
145834	7	Sololá	712	San Antonio Palopó	9	San Antonio Palopo	1	Enero	2023-03-01T00:00:00	2024-11-08T06:00:00	7	Dirección del viento	3.22
145835	7	Sololá	712	San Antonio Palopó	9	San Antonio Palopo	1	Enero	2023-03-01T00:00:00	2024-11-08T06:00:00	1	Precipitación	0
145836	7	Sololá	712	San Antonio Palopó	9	San Antonio Palopo	1	Enero	2023-03-01T00:00:00	2024-11-08T06:00:00	8	Radiación solar	0
145837	7	Sololá	712	San Antonio Palopó	9	San Antonio Palopo	1	Enero	2023-03-01T00:00:00	2024-11-08T07:00:00	2	Temperatura media	14.6
145838	7	Sololá	712	San Antonio Palopó	9	San Antonio Palopo	1	Enero	2023-03-01T00:00:00	2024-11-08T07:00:00	4	Temperatura máxima	15.2
145839	7	Sololá	712	San Antonio Palopó	9	San Antonio Palopo	1	Enero	2023-03-01T00:00:00	2024-11-08T07:00:00	3	Temperatura mínima	14.6
145840	7	Sololá	712	San Antonio Palopó	9	San Antonio Palopo	1	Enero	2023-03-01T00:00:00	2024-11-08T07:00:00	5	Humedad	83
145841	7	Sololá	712	San Antonio Palopó	9	San Antonio Palopo	1	Enero	2023-03-01T00:00:00	2024-11-08T07:00:00	6	Velocidad del viento	3.2
145842	7	Sololá	712	San Antonio Palopó	9	San Antonio Palopo	1	Enero	2023-03-01T00:00:00	2024-11-08T07:00:00	7	Dirección del viento	3.22
145843	7	Sololá	712	San Antonio Palopó	9	San Antonio Palopo	1	Enero	2023-03-01T00:00:00	2024-11-08T07:00:00	1	Precipitación	0
145844	7	Sololá	712	San Antonio Palopó	9	San Antonio Palopo	1	Enero	2023-03-01T00:00:00	2024-11-08T07:00:00	8	Radiación solar	6
145845	7	Sololá	712	San Antonio Palopó	9	San Antonio Palopo	1	Enero	2023-03-01T00:00:00	2024-11-08T08:00:00	2	Temperatura media	15.3
145846	7	Sololá	712	San Antonio Palopó	9	San Antonio Palopo	1	Enero	2023-03-01T00:00:00	2024-11-08T08:00:00	4	Temperatura máxima	15.3
145847	7	Sololá	712	San Antonio Palopó	9	San Antonio Palopo	1	Enero	2023-03-01T00:00:00	2024-11-08T08:00:00	3	Temperatura mínima	14.6
145848	7	Sololá	712	San Antonio Palopó	9	San Antonio Palopo	1	Enero	2023-03-01T00:00:00	2024-11-08T08:00:00	5	Humedad	79
145849	7	Sololá	712	San Antonio Palopó	9	San Antonio Palopo	1	Enero	2023-03-01T00:00:00	2024-11-08T08:00:00	6	Velocidad del viento	3.2
145850	7	Sololá	712	San Antonio Palopó	9	San Antonio Palopo	1	Enero	2023-03-01T00:00:00	2024-11-08T08:00:00	7	Dirección del viento	3.22
145851	7	Sololá	712	San Antonio Palopó	9	San Antonio Palopo	1	Enero	2023-03-01T00:00:00	2024-11-08T08:00:00	1	Precipitación	0
145852	7	Sololá	712	San Antonio Palopó	9	San Antonio Palopo	1	Enero	2023-03-01T00:00:00	2024-11-08T08:00:00	8	Radiación solar	40
145853	7	Sololá	712	San Antonio Palopó	9	San Antonio Palopo	1	Enero	2023-03-01T00:00:00	2024-11-08T09:00:00	2	Temperatura media	17.2
145854	7	Sololá	712	San Antonio Palopó	9	San Antonio Palopo	1	Enero	2023-03-01T00:00:00	2024-11-08T09:00:00	4	Temperatura máxima	17.2
145855	7	Sololá	712	San Antonio Palopó	9	San Antonio Palopo	1	Enero	2023-03-01T00:00:00	2024-11-08T09:00:00	3	Temperatura mínima	15.3
145856	7	Sololá	712	San Antonio Palopó	9	San Antonio Palopo	1	Enero	2023-03-01T00:00:00	2024-11-08T09:00:00	5	Humedad	77
145857	7	Sololá	712	San Antonio Palopó	9	San Antonio Palopo	1	Enero	2023-03-01T00:00:00	2024-11-08T09:00:00	6	Velocidad del viento	1.6
145858	7	Sololá	712	San Antonio Palopó	9	San Antonio Palopo	1	Enero	2023-03-01T00:00:00	2024-11-08T09:00:00	7	Dirección del viento	1.61
145859	7	Sololá	712	San Antonio Palopó	9	San Antonio Palopo	1	Enero	2023-03-01T00:00:00	2024-11-08T09:00:00	1	Precipitación	0
145860	7	Sololá	712	San Antonio Palopó	9	San Antonio Palopo	1	Enero	2023-03-01T00:00:00	2024-11-08T09:00:00	8	Radiación solar	131
145861	7	Sololá	712	San Antonio Palopó	9	San Antonio Palopo	1	Enero	2023-03-01T00:00:00	2024-11-08T10:00:00	2	Temperatura media	18.1
145862	7	Sololá	712	San Antonio Palopó	9	San Antonio Palopo	1	Enero	2023-03-01T00:00:00	2024-11-08T10:00:00	4	Temperatura máxima	18.3
145863	7	Sololá	712	San Antonio Palopó	9	San Antonio Palopo	1	Enero	2023-03-01T00:00:00	2024-11-08T10:00:00	3	Temperatura mínima	17.2
145864	7	Sololá	712	San Antonio Palopó	9	San Antonio Palopo	1	Enero	2023-03-01T00:00:00	2024-11-08T10:00:00	5	Humedad	74
145865	7	Sololá	712	San Antonio Palopó	9	San Antonio Palopo	1	Enero	2023-03-01T00:00:00	2024-11-08T10:00:00	6	Velocidad del viento	1.6
145866	7	Sololá	712	San Antonio Palopó	9	San Antonio Palopo	1	Enero	2023-03-01T00:00:00	2024-11-08T10:00:00	7	Dirección del viento	1.61
145867	7	Sololá	712	San Antonio Palopó	9	San Antonio Palopo	1	Enero	2023-03-01T00:00:00	2024-11-08T10:00:00	1	Precipitación	0
145868	7	Sololá	712	San Antonio Palopó	9	San Antonio Palopo	1	Enero	2023-03-01T00:00:00	2024-11-08T10:00:00	8	Radiación solar	285
145869	7	Sololá	712	San Antonio Palopó	9	San Antonio Palopo	1	Enero	2023-03-01T00:00:00	2024-11-08T11:00:00	2	Temperatura media	20.4
145870	7	Sololá	712	San Antonio Palopó	9	San Antonio Palopo	1	Enero	2023-03-01T00:00:00	2024-11-08T11:00:00	4	Temperatura máxima	20.5
145871	7	Sololá	712	San Antonio Palopó	9	San Antonio Palopo	1	Enero	2023-03-01T00:00:00	2024-11-08T11:00:00	3	Temperatura mínima	18.1
145872	7	Sololá	712	San Antonio Palopó	9	San Antonio Palopo	1	Enero	2023-03-01T00:00:00	2024-11-08T11:00:00	5	Humedad	63
145873	7	Sololá	712	San Antonio Palopó	9	San Antonio Palopo	1	Enero	2023-03-01T00:00:00	2024-11-08T11:00:00	6	Velocidad del viento	3.2
145874	7	Sololá	712	San Antonio Palopó	9	San Antonio Palopo	1	Enero	2023-03-01T00:00:00	2024-11-08T11:00:00	7	Dirección del viento	3.22
145875	7	Sololá	712	San Antonio Palopó	9	San Antonio Palopo	1	Enero	2023-03-01T00:00:00	2024-11-08T11:00:00	1	Precipitación	0
145876	7	Sololá	712	San Antonio Palopó	9	San Antonio Palopo	1	Enero	2023-03-01T00:00:00	2024-11-08T11:00:00	8	Radiación solar	684
145877	7	Sololá	712	San Antonio Palopó	9	San Antonio Palopo	1	Enero	2023-03-01T00:00:00	2024-11-08T12:00:00	2	Temperatura media	20.6
145878	7	Sololá	712	San Antonio Palopó	9	San Antonio Palopo	1	Enero	2023-03-01T00:00:00	2024-11-08T12:00:00	4	Temperatura máxima	20.7
145879	7	Sololá	712	San Antonio Palopó	9	San Antonio Palopo	1	Enero	2023-03-01T00:00:00	2024-11-08T12:00:00	3	Temperatura mínima	20
145880	7	Sololá	712	San Antonio Palopó	9	San Antonio Palopo	1	Enero	2023-03-01T00:00:00	2024-11-08T12:00:00	5	Humedad	58
145881	7	Sololá	712	San Antonio Palopó	9	San Antonio Palopo	1	Enero	2023-03-01T00:00:00	2024-11-08T12:00:00	6	Velocidad del viento	3.2
145882	7	Sololá	712	San Antonio Palopó	9	San Antonio Palopo	1	Enero	2023-03-01T00:00:00	2024-11-08T12:00:00	7	Dirección del viento	3.22
145883	7	Sololá	712	San Antonio Palopó	9	San Antonio Palopo	1	Enero	2023-03-01T00:00:00	2024-11-08T12:00:00	1	Precipitación	0
145884	7	Sololá	712	San Antonio Palopó	9	San Antonio Palopo	1	Enero	2023-03-01T00:00:00	2024-11-08T12:00:00	8	Radiación solar	477
145885	7	Sololá	712	San Antonio Palopó	9	San Antonio Palopo	1	Enero	2023-03-01T00:00:00	2024-11-08T13:00:00	2	Temperatura media	21
145886	7	Sololá	712	San Antonio Palopó	9	San Antonio Palopo	1	Enero	2023-03-01T00:00:00	2024-11-08T13:00:00	4	Temperatura máxima	21.1
145887	7	Sololá	712	San Antonio Palopó	9	San Antonio Palopo	1	Enero	2023-03-01T00:00:00	2024-11-08T13:00:00	3	Temperatura mínima	20.6
145888	7	Sololá	712	San Antonio Palopó	9	San Antonio Palopo	1	Enero	2023-03-01T00:00:00	2024-11-08T13:00:00	5	Humedad	70
145889	7	Sololá	712	San Antonio Palopó	9	San Antonio Palopo	1	Enero	2023-03-01T00:00:00	2024-11-08T13:00:00	6	Velocidad del viento	1.6
145890	7	Sololá	712	San Antonio Palopó	9	San Antonio Palopo	1	Enero	2023-03-01T00:00:00	2024-11-08T13:00:00	7	Dirección del viento	1.61
145891	7	Sololá	712	San Antonio Palopó	9	San Antonio Palopo	1	Enero	2023-03-01T00:00:00	2024-11-08T13:00:00	1	Precipitación	0
145892	7	Sololá	712	San Antonio Palopó	9	San Antonio Palopo	1	Enero	2023-03-01T00:00:00	2024-11-08T13:00:00	8	Radiación solar	363
145893	7	Sololá	712	San Antonio Palopó	9	San Antonio Palopo	1	Enero	2023-03-01T00:00:00	2024-11-08T14:00:00	2	Temperatura media	22.4
145894	7	Sololá	712	San Antonio Palopó	9	San Antonio Palopo	1	Enero	2023-03-01T00:00:00	2024-11-08T14:00:00	4	Temperatura máxima	22.9
145895	7	Sololá	712	San Antonio Palopó	9	San Antonio Palopo	1	Enero	2023-03-01T00:00:00	2024-11-08T14:00:00	3	Temperatura mínima	21
145896	7	Sololá	712	San Antonio Palopó	9	San Antonio Palopo	1	Enero	2023-03-01T00:00:00	2024-11-08T14:00:00	5	Humedad	73
145897	7	Sololá	712	San Antonio Palopó	9	San Antonio Palopo	1	Enero	2023-03-01T00:00:00	2024-11-08T14:00:00	6	Velocidad del viento	3.2
145898	7	Sololá	712	San Antonio Palopó	9	San Antonio Palopo	1	Enero	2023-03-01T00:00:00	2024-11-08T14:00:00	7	Dirección del viento	3.22
145899	7	Sololá	712	San Antonio Palopó	9	San Antonio Palopo	1	Enero	2023-03-01T00:00:00	2024-11-08T14:00:00	1	Precipitación	0
145900	7	Sololá	712	San Antonio Palopó	9	San Antonio Palopo	1	Enero	2023-03-01T00:00:00	2024-11-08T14:00:00	8	Radiación solar	503
145901	7	Sololá	712	San Antonio Palopó	9	San Antonio Palopo	1	Enero	2023-03-01T00:00:00	2024-11-08T15:00:00	2	Temperatura media	23.2
145902	7	Sololá	712	San Antonio Palopó	9	San Antonio Palopo	1	Enero	2023-03-01T00:00:00	2024-11-08T15:00:00	4	Temperatura máxima	23.3
145903	7	Sololá	712	San Antonio Palopó	9	San Antonio Palopo	1	Enero	2023-03-01T00:00:00	2024-11-08T15:00:00	3	Temperatura mínima	21.4
145904	7	Sololá	712	San Antonio Palopó	9	San Antonio Palopo	1	Enero	2023-03-01T00:00:00	2024-11-08T15:00:00	5	Humedad	73
145905	7	Sololá	712	San Antonio Palopó	9	San Antonio Palopo	1	Enero	2023-03-01T00:00:00	2024-11-08T15:00:00	6	Velocidad del viento	3.2
145906	7	Sololá	712	San Antonio Palopó	9	San Antonio Palopo	1	Enero	2023-03-01T00:00:00	2024-11-08T15:00:00	7	Dirección del viento	3.22
145907	7	Sololá	712	San Antonio Palopó	9	San Antonio Palopo	1	Enero	2023-03-01T00:00:00	2024-11-08T15:00:00	1	Precipitación	0
145908	7	Sololá	712	San Antonio Palopó	9	San Antonio Palopo	1	Enero	2023-03-01T00:00:00	2024-11-08T15:00:00	8	Radiación solar	451
145909	7	Sololá	712	San Antonio Palopó	9	San Antonio Palopo	1	Enero	2023-03-01T00:00:00	2024-11-08T16:00:00	2	Temperatura media	22.4
145910	7	Sololá	712	San Antonio Palopó	9	San Antonio Palopo	1	Enero	2023-03-01T00:00:00	2024-11-08T16:00:00	4	Temperatura máxima	23.2
145911	7	Sololá	712	San Antonio Palopó	9	San Antonio Palopo	1	Enero	2023-03-01T00:00:00	2024-11-08T16:00:00	3	Temperatura mínima	22.4
145912	7	Sololá	712	San Antonio Palopó	9	San Antonio Palopo	1	Enero	2023-03-01T00:00:00	2024-11-08T16:00:00	5	Humedad	73
145913	7	Sololá	712	San Antonio Palopó	9	San Antonio Palopo	1	Enero	2023-03-01T00:00:00	2024-11-08T16:00:00	6	Velocidad del viento	8
145914	7	Sololá	712	San Antonio Palopó	9	San Antonio Palopo	1	Enero	2023-03-01T00:00:00	2024-11-08T16:00:00	7	Dirección del viento	8.05
145915	7	Sololá	712	San Antonio Palopó	9	San Antonio Palopo	1	Enero	2023-03-01T00:00:00	2024-11-08T16:00:00	1	Precipitación	0
145916	7	Sololá	712	San Antonio Palopó	9	San Antonio Palopo	1	Enero	2023-03-01T00:00:00	2024-11-08T16:00:00	8	Radiación solar	371
145917	7	Sololá	712	San Antonio Palopó	9	San Antonio Palopo	1	Enero	2023-03-01T00:00:00	2024-11-08T17:00:00	2	Temperatura media	20.3
145918	7	Sololá	712	San Antonio Palopó	9	San Antonio Palopo	1	Enero	2023-03-01T00:00:00	2024-11-08T17:00:00	4	Temperatura máxima	22.3
145919	7	Sololá	712	San Antonio Palopó	9	San Antonio Palopo	1	Enero	2023-03-01T00:00:00	2024-11-08T17:00:00	3	Temperatura mínima	20.3
145920	7	Sololá	712	San Antonio Palopó	9	San Antonio Palopo	1	Enero	2023-03-01T00:00:00	2024-11-08T17:00:00	5	Humedad	80
145921	7	Sololá	712	San Antonio Palopó	9	San Antonio Palopo	1	Enero	2023-03-01T00:00:00	2024-11-08T17:00:00	6	Velocidad del viento	8
145922	7	Sololá	712	San Antonio Palopó	9	San Antonio Palopo	1	Enero	2023-03-01T00:00:00	2024-11-08T17:00:00	7	Dirección del viento	8.05
145923	7	Sololá	712	San Antonio Palopó	9	San Antonio Palopo	1	Enero	2023-03-01T00:00:00	2024-11-08T17:00:00	1	Precipitación	0
145924	7	Sololá	712	San Antonio Palopó	9	San Antonio Palopo	1	Enero	2023-03-01T00:00:00	2024-11-08T17:00:00	8	Radiación solar	152
145925	7	Sololá	712	San Antonio Palopó	9	San Antonio Palopo	1	Enero	2023-03-01T00:00:00	2024-11-08T18:00:00	2	Temperatura media	19.7
145926	7	Sololá	712	San Antonio Palopó	9	San Antonio Palopo	1	Enero	2023-03-01T00:00:00	2024-11-08T18:00:00	4	Temperatura máxima	20.3
145927	7	Sololá	712	San Antonio Palopó	9	San Antonio Palopo	1	Enero	2023-03-01T00:00:00	2024-11-08T18:00:00	3	Temperatura mínima	19.7
145928	7	Sololá	712	San Antonio Palopó	9	San Antonio Palopo	1	Enero	2023-03-01T00:00:00	2024-11-08T18:00:00	5	Humedad	81
145929	7	Sololá	712	San Antonio Palopó	9	San Antonio Palopo	1	Enero	2023-03-01T00:00:00	2024-11-08T18:00:00	6	Velocidad del viento	4.8
145930	7	Sololá	712	San Antonio Palopó	9	San Antonio Palopo	1	Enero	2023-03-01T00:00:00	2024-11-08T18:00:00	7	Dirección del viento	4.83
145931	7	Sololá	712	San Antonio Palopó	9	San Antonio Palopo	1	Enero	2023-03-01T00:00:00	2024-11-08T18:00:00	1	Precipitación	0
145932	7	Sololá	712	San Antonio Palopó	9	San Antonio Palopo	1	Enero	2023-03-01T00:00:00	2024-11-08T18:00:00	8	Radiación solar	23
145933	7	Sololá	712	San Antonio Palopó	9	San Antonio Palopo	1	Enero	2023-03-01T00:00:00	2024-11-08T19:00:00	2	Temperatura media	18.7
145934	7	Sololá	712	San Antonio Palopó	9	San Antonio Palopo	1	Enero	2023-03-01T00:00:00	2024-11-08T19:00:00	4	Temperatura máxima	19.7
145935	7	Sololá	712	San Antonio Palopó	9	San Antonio Palopo	1	Enero	2023-03-01T00:00:00	2024-11-08T19:00:00	3	Temperatura mínima	18.7
145936	7	Sololá	712	San Antonio Palopó	9	San Antonio Palopo	1	Enero	2023-03-01T00:00:00	2024-11-08T19:00:00	5	Humedad	86
145937	7	Sololá	712	San Antonio Palopó	9	San Antonio Palopo	1	Enero	2023-03-01T00:00:00	2024-11-08T19:00:00	6	Velocidad del viento	3.2
145938	7	Sololá	712	San Antonio Palopó	9	San Antonio Palopo	1	Enero	2023-03-01T00:00:00	2024-11-08T19:00:00	7	Dirección del viento	3.22
145939	7	Sololá	712	San Antonio Palopó	9	San Antonio Palopo	1	Enero	2023-03-01T00:00:00	2024-11-08T19:00:00	1	Precipitación	0
145940	7	Sololá	712	San Antonio Palopó	9	San Antonio Palopo	1	Enero	2023-03-01T00:00:00	2024-11-08T19:00:00	8	Radiación solar	0
145941	7	Sololá	712	San Antonio Palopó	9	San Antonio Palopo	1	Enero	2023-03-01T00:00:00	2024-11-08T20:00:00	2	Temperatura media	18.4
145942	7	Sololá	712	San Antonio Palopó	9	San Antonio Palopo	1	Enero	2023-03-01T00:00:00	2024-11-08T20:00:00	4	Temperatura máxima	18.7
145943	7	Sololá	712	San Antonio Palopó	9	San Antonio Palopo	1	Enero	2023-03-01T00:00:00	2024-11-08T20:00:00	3	Temperatura mínima	18.3
145944	7	Sololá	712	San Antonio Palopó	9	San Antonio Palopo	1	Enero	2023-03-01T00:00:00	2024-11-08T20:00:00	5	Humedad	82
145945	7	Sololá	712	San Antonio Palopó	9	San Antonio Palopo	1	Enero	2023-03-01T00:00:00	2024-11-08T20:00:00	6	Velocidad del viento	1.6
145946	7	Sololá	712	San Antonio Palopó	9	San Antonio Palopo	1	Enero	2023-03-01T00:00:00	2024-11-08T20:00:00	7	Dirección del viento	1.61
145947	7	Sololá	712	San Antonio Palopó	9	San Antonio Palopo	1	Enero	2023-03-01T00:00:00	2024-11-08T20:00:00	1	Precipitación	0
145948	7	Sololá	712	San Antonio Palopó	9	San Antonio Palopo	1	Enero	2023-03-01T00:00:00	2024-11-08T20:00:00	8	Radiación solar	0
145949	7	Sololá	712	San Antonio Palopó	9	San Antonio Palopo	1	Enero	2023-03-01T00:00:00	2024-11-08T21:00:00	2	Temperatura media	17.8
145950	7	Sololá	712	San Antonio Palopó	9	San Antonio Palopo	1	Enero	2023-03-01T00:00:00	2024-11-08T21:00:00	4	Temperatura máxima	18.4
145951	7	Sololá	712	San Antonio Palopó	9	San Antonio Palopo	1	Enero	2023-03-01T00:00:00	2024-11-08T21:00:00	3	Temperatura mínima	17.6
145952	7	Sololá	712	San Antonio Palopó	9	San Antonio Palopo	1	Enero	2023-03-01T00:00:00	2024-11-08T21:00:00	5	Humedad	86
145953	7	Sololá	712	San Antonio Palopó	9	San Antonio Palopo	1	Enero	2023-03-01T00:00:00	2024-11-08T21:00:00	6	Velocidad del viento	3.2
145954	7	Sololá	712	San Antonio Palopó	9	San Antonio Palopo	1	Enero	2023-03-01T00:00:00	2024-11-08T21:00:00	7	Dirección del viento	3.22
145955	7	Sololá	712	San Antonio Palopó	9	San Antonio Palopo	1	Enero	2023-03-01T00:00:00	2024-11-08T21:00:00	1	Precipitación	0
145956	7	Sololá	712	San Antonio Palopó	9	San Antonio Palopo	1	Enero	2023-03-01T00:00:00	2024-11-08T21:00:00	8	Radiación solar	0
145957	7	Sololá	712	San Antonio Palopó	9	San Antonio Palopo	1	Enero	2023-03-01T00:00:00	2024-11-08T22:00:00	2	Temperatura media	17
145958	7	Sololá	712	San Antonio Palopó	9	San Antonio Palopo	1	Enero	2023-03-01T00:00:00	2024-11-08T22:00:00	4	Temperatura máxima	17.9
145959	7	Sololá	712	San Antonio Palopó	9	San Antonio Palopo	1	Enero	2023-03-01T00:00:00	2024-11-08T22:00:00	3	Temperatura mínima	17
145960	7	Sololá	712	San Antonio Palopó	9	San Antonio Palopo	1	Enero	2023-03-01T00:00:00	2024-11-08T22:00:00	5	Humedad	87
145961	7	Sololá	712	San Antonio Palopó	9	San Antonio Palopo	1	Enero	2023-03-01T00:00:00	2024-11-08T22:00:00	6	Velocidad del viento	3.2
145962	7	Sololá	712	San Antonio Palopó	9	San Antonio Palopo	1	Enero	2023-03-01T00:00:00	2024-11-08T22:00:00	7	Dirección del viento	3.22
145963	7	Sololá	712	San Antonio Palopó	9	San Antonio Palopo	1	Enero	2023-03-01T00:00:00	2024-11-08T22:00:00	1	Precipitación	0
145964	7	Sololá	712	San Antonio Palopó	9	San Antonio Palopo	1	Enero	2023-03-01T00:00:00	2024-11-08T22:00:00	8	Radiación solar	0
145965	7	Sololá	712	San Antonio Palopó	9	San Antonio Palopo	1	Enero	2023-03-01T00:00:00	2024-11-08T23:00:00	2	Temperatura media	16.6
145966	7	Sololá	712	San Antonio Palopó	9	San Antonio Palopo	1	Enero	2023-03-01T00:00:00	2024-11-08T23:00:00	4	Temperatura máxima	17.1
145967	7	Sololá	712	San Antonio Palopó	9	San Antonio Palopo	1	Enero	2023-03-01T00:00:00	2024-11-08T23:00:00	3	Temperatura mínima	16.5
145968	7	Sololá	712	San Antonio Palopó	9	San Antonio Palopo	1	Enero	2023-03-01T00:00:00	2024-11-08T23:00:00	5	Humedad	87
145969	7	Sololá	712	San Antonio Palopó	9	San Antonio Palopo	1	Enero	2023-03-01T00:00:00	2024-11-08T23:00:00	6	Velocidad del viento	3.2
145970	7	Sololá	712	San Antonio Palopó	9	San Antonio Palopo	1	Enero	2023-03-01T00:00:00	2024-11-08T23:00:00	7	Dirección del viento	3.22
145971	7	Sololá	712	San Antonio Palopó	9	San Antonio Palopo	1	Enero	2023-03-01T00:00:00	2024-11-08T23:00:00	1	Precipitación	0
145972	7	Sololá	712	San Antonio Palopó	9	San Antonio Palopo	1	Enero	2023-03-01T00:00:00	2024-11-08T23:00:00	8	Radiación solar	0
145973	7	Sololá	712	San Antonio Palopó	9	San Antonio Palopo	1	Enero	2023-04-01T00:00:00	2024-11-08T00:00:00	2	Temperatura media	16.9
145974	7	Sololá	712	San Antonio Palopó	9	San Antonio Palopo	1	Enero	2023-04-01T00:00:00	2024-11-08T00:00:00	4	Temperatura máxima	18.1
145975	7	Sololá	712	San Antonio Palopó	9	San Antonio Palopo	1	Enero	2023-04-01T00:00:00	2024-11-08T00:00:00	3	Temperatura mínima	16.5
145976	7	Sololá	712	San Antonio Palopó	9	San Antonio Palopo	1	Enero	2023-04-01T00:00:00	2024-11-08T00:00:00	5	Humedad	80
145977	7	Sololá	712	San Antonio Palopó	9	San Antonio Palopo	1	Enero	2023-04-01T00:00:00	2024-11-08T00:00:00	6	Velocidad del viento	4.8
145978	7	Sololá	712	San Antonio Palopó	9	San Antonio Palopo	1	Enero	2023-04-01T00:00:00	2024-11-08T00:00:00	7	Dirección del viento	4.83
145979	7	Sololá	712	San Antonio Palopó	9	San Antonio Palopo	1	Enero	2023-04-01T00:00:00	2024-11-08T00:00:00	1	Precipitación	0
145980	7	Sololá	712	San Antonio Palopó	9	San Antonio Palopo	1	Enero	2023-04-01T00:00:00	2024-11-08T00:00:00	8	Radiación solar	0
145981	7	Sololá	712	San Antonio Palopó	9	San Antonio Palopo	1	Enero	2023-04-01T00:00:00	2024-11-08T01:00:00	2	Temperatura media	17.3
145982	7	Sololá	712	San Antonio Palopó	9	San Antonio Palopo	1	Enero	2023-04-01T00:00:00	2024-11-08T01:00:00	4	Temperatura máxima	17.3
145983	7	Sololá	712	San Antonio Palopó	9	San Antonio Palopo	1	Enero	2023-04-01T00:00:00	2024-11-08T01:00:00	3	Temperatura mínima	16.8
145984	7	Sololá	712	San Antonio Palopó	9	San Antonio Palopo	1	Enero	2023-04-01T00:00:00	2024-11-08T01:00:00	5	Humedad	82
145985	7	Sololá	712	San Antonio Palopó	9	San Antonio Palopo	1	Enero	2023-04-01T00:00:00	2024-11-08T01:00:00	6	Velocidad del viento	1.6
145986	7	Sololá	712	San Antonio Palopó	9	San Antonio Palopo	1	Enero	2023-04-01T00:00:00	2024-11-08T01:00:00	7	Dirección del viento	1.61
145987	7	Sololá	712	San Antonio Palopó	9	San Antonio Palopo	1	Enero	2023-04-01T00:00:00	2024-11-08T01:00:00	1	Precipitación	0
145988	7	Sololá	712	San Antonio Palopó	9	San Antonio Palopo	1	Enero	2023-04-01T00:00:00	2024-11-08T01:00:00	8	Radiación solar	0
145989	7	Sololá	712	San Antonio Palopó	9	San Antonio Palopo	1	Enero	2023-04-01T00:00:00	2024-11-08T02:00:00	2	Temperatura media	16.7
145990	7	Sololá	712	San Antonio Palopó	9	San Antonio Palopo	1	Enero	2023-04-01T00:00:00	2024-11-08T02:00:00	4	Temperatura máxima	17.3
145991	7	Sololá	712	San Antonio Palopó	9	San Antonio Palopo	1	Enero	2023-04-01T00:00:00	2024-11-08T02:00:00	3	Temperatura mínima	16.7
145992	7	Sololá	712	San Antonio Palopó	9	San Antonio Palopo	1	Enero	2023-04-01T00:00:00	2024-11-08T02:00:00	5	Humedad	84
145993	7	Sololá	712	San Antonio Palopó	9	San Antonio Palopo	1	Enero	2023-04-01T00:00:00	2024-11-08T02:00:00	6	Velocidad del viento	3.2
145994	7	Sololá	712	San Antonio Palopó	9	San Antonio Palopo	1	Enero	2023-04-01T00:00:00	2024-11-08T02:00:00	7	Dirección del viento	3.22
145995	7	Sololá	712	San Antonio Palopó	9	San Antonio Palopo	1	Enero	2023-04-01T00:00:00	2024-11-08T02:00:00	1	Precipitación	0
145996	7	Sololá	712	San Antonio Palopó	9	San Antonio Palopo	1	Enero	2023-04-01T00:00:00	2024-11-08T02:00:00	8	Radiación solar	0
145997	7	Sololá	712	San Antonio Palopó	9	San Antonio Palopo	1	Enero	2023-04-01T00:00:00	2024-11-08T03:00:00	2	Temperatura media	16.5
145998	7	Sololá	712	San Antonio Palopó	9	San Antonio Palopo	1	Enero	2023-04-01T00:00:00	2024-11-08T03:00:00	4	Temperatura máxima	16.9
145999	7	Sololá	712	San Antonio Palopó	9	San Antonio Palopo	1	Enero	2023-04-01T00:00:00	2024-11-08T03:00:00	3	Temperatura mínima	16.3
146000	7	Sololá	712	San Antonio Palopó	9	San Antonio Palopo	1	Enero	2023-04-01T00:00:00	2024-11-08T03:00:00	5	Humedad	80
146001	7	Sololá	712	San Antonio Palopó	9	San Antonio Palopo	1	Enero	2023-04-01T00:00:00	2024-11-08T03:00:00	6	Velocidad del viento	3.2
146002	7	Sololá	712	San Antonio Palopó	9	San Antonio Palopo	1	Enero	2023-04-01T00:00:00	2024-11-08T03:00:00	7	Dirección del viento	3.22
146003	7	Sololá	712	San Antonio Palopó	9	San Antonio Palopo	1	Enero	2023-04-01T00:00:00	2024-11-08T03:00:00	1	Precipitación	0
146004	7	Sololá	712	San Antonio Palopó	9	San Antonio Palopo	1	Enero	2023-04-01T00:00:00	2024-11-08T03:00:00	8	Radiación solar	0
146005	7	Sololá	712	San Antonio Palopó	9	San Antonio Palopo	1	Enero	2023-04-01T00:00:00	2024-11-08T04:00:00	2	Temperatura media	16.2
146006	7	Sololá	712	San Antonio Palopó	9	San Antonio Palopo	1	Enero	2023-04-01T00:00:00	2024-11-08T04:00:00	4	Temperatura máxima	16.5
146007	7	Sololá	712	San Antonio Palopó	9	San Antonio Palopo	1	Enero	2023-04-01T00:00:00	2024-11-08T04:00:00	3	Temperatura mínima	15.6
146008	7	Sololá	712	San Antonio Palopó	9	San Antonio Palopo	1	Enero	2023-04-01T00:00:00	2024-11-08T04:00:00	5	Humedad	78
146009	7	Sololá	712	San Antonio Palopó	9	San Antonio Palopo	1	Enero	2023-04-01T00:00:00	2024-11-08T04:00:00	6	Velocidad del viento	4.8
146010	7	Sololá	712	San Antonio Palopó	9	San Antonio Palopo	1	Enero	2023-04-01T00:00:00	2024-11-08T04:00:00	7	Dirección del viento	4.83
146011	7	Sololá	712	San Antonio Palopó	9	San Antonio Palopo	1	Enero	2023-04-01T00:00:00	2024-11-08T04:00:00	1	Precipitación	0
146012	7	Sololá	712	San Antonio Palopó	9	San Antonio Palopo	1	Enero	2023-04-01T00:00:00	2024-11-08T04:00:00	8	Radiación solar	0
146013	7	Sololá	712	San Antonio Palopó	9	San Antonio Palopo	1	Enero	2023-04-01T00:00:00	2024-11-08T05:00:00	2	Temperatura media	15.8
146014	7	Sololá	712	San Antonio Palopó	9	San Antonio Palopo	1	Enero	2023-04-01T00:00:00	2024-11-08T05:00:00	4	Temperatura máxima	16.2
146015	7	Sololá	712	San Antonio Palopó	9	San Antonio Palopo	1	Enero	2023-04-01T00:00:00	2024-11-08T05:00:00	3	Temperatura mínima	15.8
146016	7	Sololá	712	San Antonio Palopó	9	San Antonio Palopo	1	Enero	2023-04-01T00:00:00	2024-11-08T05:00:00	5	Humedad	77
146017	7	Sololá	712	San Antonio Palopó	9	San Antonio Palopo	1	Enero	2023-04-01T00:00:00	2024-11-08T05:00:00	6	Velocidad del viento	4.8
146018	7	Sololá	712	San Antonio Palopó	9	San Antonio Palopo	1	Enero	2023-04-01T00:00:00	2024-11-08T05:00:00	7	Dirección del viento	4.83
146019	7	Sololá	712	San Antonio Palopó	9	San Antonio Palopo	1	Enero	2023-04-01T00:00:00	2024-11-08T05:00:00	1	Precipitación	0
146020	7	Sololá	712	San Antonio Palopó	9	San Antonio Palopo	1	Enero	2023-04-01T00:00:00	2024-11-08T05:00:00	8	Radiación solar	0
146021	7	Sololá	712	San Antonio Palopó	9	San Antonio Palopo	1	Enero	2023-04-01T00:00:00	2024-11-08T06:00:00	2	Temperatura media	16
146022	7	Sololá	712	San Antonio Palopó	9	San Antonio Palopo	1	Enero	2023-04-01T00:00:00	2024-11-08T06:00:00	4	Temperatura máxima	16.3
146023	7	Sololá	712	San Antonio Palopó	9	San Antonio Palopo	1	Enero	2023-04-01T00:00:00	2024-11-08T06:00:00	3	Temperatura mínima	15.8
146024	7	Sololá	712	San Antonio Palopó	9	San Antonio Palopo	1	Enero	2023-04-01T00:00:00	2024-11-08T06:00:00	5	Humedad	76
146025	7	Sololá	712	San Antonio Palopó	9	San Antonio Palopo	1	Enero	2023-04-01T00:00:00	2024-11-08T06:00:00	6	Velocidad del viento	4.8
146026	7	Sololá	712	San Antonio Palopó	9	San Antonio Palopo	1	Enero	2023-04-01T00:00:00	2024-11-08T06:00:00	7	Dirección del viento	4.83
146027	7	Sololá	712	San Antonio Palopó	9	San Antonio Palopo	1	Enero	2023-04-01T00:00:00	2024-11-08T06:00:00	1	Precipitación	0
146028	7	Sololá	712	San Antonio Palopó	9	San Antonio Palopo	1	Enero	2023-04-01T00:00:00	2024-11-08T06:00:00	8	Radiación solar	0
146029	7	Sololá	712	San Antonio Palopó	9	San Antonio Palopo	1	Enero	2023-04-01T00:00:00	2024-11-08T07:00:00	2	Temperatura media	15.6
146030	7	Sololá	712	San Antonio Palopó	9	San Antonio Palopo	1	Enero	2023-04-01T00:00:00	2024-11-08T07:00:00	4	Temperatura máxima	16
146031	7	Sololá	712	San Antonio Palopó	9	San Antonio Palopo	1	Enero	2023-04-01T00:00:00	2024-11-08T07:00:00	3	Temperatura mínima	15.3
146032	7	Sololá	712	San Antonio Palopó	9	San Antonio Palopo	1	Enero	2023-04-01T00:00:00	2024-11-08T07:00:00	5	Humedad	78
146033	7	Sololá	712	San Antonio Palopó	9	San Antonio Palopo	1	Enero	2023-04-01T00:00:00	2024-11-08T07:00:00	6	Velocidad del viento	4.8
146034	7	Sololá	712	San Antonio Palopó	9	San Antonio Palopo	1	Enero	2023-04-01T00:00:00	2024-11-08T07:00:00	7	Dirección del viento	4.83
146035	7	Sololá	712	San Antonio Palopó	9	San Antonio Palopo	1	Enero	2023-04-01T00:00:00	2024-11-08T07:00:00	1	Precipitación	0
146036	7	Sololá	712	San Antonio Palopó	9	San Antonio Palopo	1	Enero	2023-04-01T00:00:00	2024-11-08T07:00:00	8	Radiación solar	4
146037	7	Sololá	712	San Antonio Palopó	9	San Antonio Palopo	1	Enero	2023-04-01T00:00:00	2024-11-08T08:00:00	2	Temperatura media	15.7
146038	7	Sololá	712	San Antonio Palopó	9	San Antonio Palopo	1	Enero	2023-04-01T00:00:00	2024-11-08T08:00:00	4	Temperatura máxima	16.2
146039	7	Sololá	712	San Antonio Palopó	9	San Antonio Palopo	1	Enero	2023-04-01T00:00:00	2024-11-08T08:00:00	3	Temperatura mínima	15.6
146040	7	Sololá	712	San Antonio Palopó	9	San Antonio Palopo	1	Enero	2023-04-01T00:00:00	2024-11-08T08:00:00	5	Humedad	78
146041	7	Sololá	712	San Antonio Palopó	9	San Antonio Palopo	1	Enero	2023-04-01T00:00:00	2024-11-08T08:00:00	6	Velocidad del viento	4.8
146042	7	Sololá	712	San Antonio Palopó	9	San Antonio Palopo	1	Enero	2023-04-01T00:00:00	2024-11-08T08:00:00	7	Dirección del viento	4.83
146043	7	Sololá	712	San Antonio Palopó	9	San Antonio Palopo	1	Enero	2023-04-01T00:00:00	2024-11-08T08:00:00	1	Precipitación	0
146044	7	Sololá	712	San Antonio Palopó	9	San Antonio Palopo	1	Enero	2023-04-01T00:00:00	2024-11-08T08:00:00	8	Radiación solar	18
146045	7	Sololá	712	San Antonio Palopó	9	San Antonio Palopo	1	Enero	2023-04-01T00:00:00	2024-11-08T09:00:00	2	Temperatura media	15.9
146046	7	Sololá	712	San Antonio Palopó	9	San Antonio Palopo	1	Enero	2023-04-01T00:00:00	2024-11-08T09:00:00	4	Temperatura máxima	15.9
146047	7	Sololá	712	San Antonio Palopó	9	San Antonio Palopo	1	Enero	2023-04-01T00:00:00	2024-11-08T09:00:00	3	Temperatura mínima	15.1
146048	7	Sololá	712	San Antonio Palopó	9	San Antonio Palopo	1	Enero	2023-04-01T00:00:00	2024-11-08T09:00:00	5	Humedad	82
146049	7	Sololá	712	San Antonio Palopó	9	San Antonio Palopo	1	Enero	2023-04-01T00:00:00	2024-11-08T09:00:00	6	Velocidad del viento	3.2
146050	7	Sololá	712	San Antonio Palopó	9	San Antonio Palopo	1	Enero	2023-04-01T00:00:00	2024-11-08T09:00:00	7	Dirección del viento	3.22
146051	7	Sololá	712	San Antonio Palopó	9	San Antonio Palopo	1	Enero	2023-04-01T00:00:00	2024-11-08T09:00:00	1	Precipitación	0
146052	7	Sololá	712	San Antonio Palopó	9	San Antonio Palopo	1	Enero	2023-04-01T00:00:00	2024-11-08T09:00:00	8	Radiación solar	89
146053	7	Sololá	712	San Antonio Palopó	9	San Antonio Palopo	1	Enero	2023-04-01T00:00:00	2024-11-08T10:00:00	2	Temperatura media	18.7
146054	7	Sololá	712	San Antonio Palopó	9	San Antonio Palopo	1	Enero	2023-04-01T00:00:00	2024-11-08T10:00:00	4	Temperatura máxima	19
146055	7	Sololá	712	San Antonio Palopó	9	San Antonio Palopo	1	Enero	2023-04-01T00:00:00	2024-11-08T10:00:00	3	Temperatura mínima	15.9
146056	7	Sololá	712	San Antonio Palopó	9	San Antonio Palopo	1	Enero	2023-04-01T00:00:00	2024-11-08T10:00:00	5	Humedad	75
146057	7	Sololá	712	San Antonio Palopó	9	San Antonio Palopo	1	Enero	2023-04-01T00:00:00	2024-11-08T10:00:00	6	Velocidad del viento	3.2
146058	7	Sololá	712	San Antonio Palopó	9	San Antonio Palopo	1	Enero	2023-04-01T00:00:00	2024-11-08T10:00:00	7	Dirección del viento	3.22
146059	7	Sololá	712	San Antonio Palopó	9	San Antonio Palopo	1	Enero	2023-04-01T00:00:00	2024-11-08T10:00:00	1	Precipitación	0
146060	7	Sololá	712	San Antonio Palopó	9	San Antonio Palopo	1	Enero	2023-04-01T00:00:00	2024-11-08T10:00:00	8	Radiación solar	514
146061	7	Sololá	712	San Antonio Palopó	9	San Antonio Palopo	1	Enero	2023-04-01T00:00:00	2024-11-08T11:00:00	2	Temperatura media	19.9
146062	7	Sololá	712	San Antonio Palopó	9	San Antonio Palopo	1	Enero	2023-04-01T00:00:00	2024-11-08T11:00:00	4	Temperatura máxima	20.2
146063	7	Sololá	712	San Antonio Palopó	9	San Antonio Palopo	1	Enero	2023-04-01T00:00:00	2024-11-08T11:00:00	3	Temperatura mínima	18.6
146064	7	Sololá	712	San Antonio Palopó	9	San Antonio Palopo	1	Enero	2023-04-01T00:00:00	2024-11-08T11:00:00	5	Humedad	71
146065	7	Sololá	712	San Antonio Palopó	9	San Antonio Palopo	1	Enero	2023-04-01T00:00:00	2024-11-08T11:00:00	6	Velocidad del viento	3.2
146066	7	Sololá	712	San Antonio Palopó	9	San Antonio Palopo	1	Enero	2023-04-01T00:00:00	2024-11-08T11:00:00	7	Dirección del viento	3.22
146067	7	Sololá	712	San Antonio Palopó	9	San Antonio Palopo	1	Enero	2023-04-01T00:00:00	2024-11-08T11:00:00	1	Precipitación	0
146068	7	Sololá	712	San Antonio Palopó	9	San Antonio Palopo	1	Enero	2023-04-01T00:00:00	2024-11-08T11:00:00	8	Radiación solar	647
146069	7	Sololá	712	San Antonio Palopó	9	San Antonio Palopo	1	Enero	2023-04-01T00:00:00	2024-11-08T12:00:00	2	Temperatura media	22.4
146070	7	Sololá	712	San Antonio Palopó	9	San Antonio Palopo	1	Enero	2023-04-01T00:00:00	2024-11-08T12:00:00	4	Temperatura máxima	22.4
146071	7	Sololá	712	San Antonio Palopó	9	San Antonio Palopo	1	Enero	2023-04-01T00:00:00	2024-11-08T12:00:00	3	Temperatura mínima	19.9
146072	7	Sololá	712	San Antonio Palopó	9	San Antonio Palopo	1	Enero	2023-04-01T00:00:00	2024-11-08T12:00:00	5	Humedad	70
146073	7	Sololá	712	San Antonio Palopó	9	San Antonio Palopo	1	Enero	2023-04-01T00:00:00	2024-11-08T12:00:00	6	Velocidad del viento	3.2
146074	7	Sololá	712	San Antonio Palopó	9	San Antonio Palopo	1	Enero	2023-04-01T00:00:00	2024-11-08T12:00:00	7	Dirección del viento	3.22
146075	7	Sololá	712	San Antonio Palopó	9	San Antonio Palopo	1	Enero	2023-04-01T00:00:00	2024-11-08T12:00:00	1	Precipitación	0
146076	7	Sololá	712	San Antonio Palopó	9	San Antonio Palopo	1	Enero	2023-04-01T00:00:00	2024-11-08T12:00:00	8	Radiación solar	625
146077	7	Sololá	712	San Antonio Palopó	9	San Antonio Palopo	1	Enero	2023-04-01T00:00:00	2024-11-08T13:00:00	2	Temperatura media	22.2
146078	7	Sololá	712	San Antonio Palopó	9	San Antonio Palopo	1	Enero	2023-04-01T00:00:00	2024-11-08T13:00:00	4	Temperatura máxima	22.7
146079	7	Sololá	712	San Antonio Palopó	9	San Antonio Palopo	1	Enero	2023-04-01T00:00:00	2024-11-08T13:00:00	3	Temperatura mínima	21.9
146080	7	Sololá	712	San Antonio Palopó	9	San Antonio Palopo	1	Enero	2023-04-01T00:00:00	2024-11-08T13:00:00	5	Humedad	70
146081	7	Sololá	712	San Antonio Palopó	9	San Antonio Palopo	1	Enero	2023-04-01T00:00:00	2024-11-08T13:00:00	6	Velocidad del viento	9.7
146082	7	Sololá	712	San Antonio Palopó	9	San Antonio Palopo	1	Enero	2023-04-01T00:00:00	2024-11-08T13:00:00	7	Dirección del viento	9.66
146083	7	Sololá	712	San Antonio Palopó	9	San Antonio Palopo	1	Enero	2023-04-01T00:00:00	2024-11-08T13:00:00	1	Precipitación	0
146084	7	Sololá	712	San Antonio Palopó	9	San Antonio Palopo	1	Enero	2023-04-01T00:00:00	2024-11-08T13:00:00	8	Radiación solar	729
146085	7	Sololá	712	San Antonio Palopó	9	San Antonio Palopo	1	Enero	2023-04-01T00:00:00	2024-11-08T14:00:00	2	Temperatura media	23.2
146086	7	Sololá	712	San Antonio Palopó	9	San Antonio Palopo	1	Enero	2023-04-01T00:00:00	2024-11-08T14:00:00	4	Temperatura máxima	23.3
146087	7	Sololá	712	San Antonio Palopó	9	San Antonio Palopo	1	Enero	2023-04-01T00:00:00	2024-11-08T14:00:00	3	Temperatura mínima	22.2
146088	7	Sololá	712	San Antonio Palopó	9	San Antonio Palopo	1	Enero	2023-04-01T00:00:00	2024-11-08T14:00:00	5	Humedad	69
146089	7	Sololá	712	San Antonio Palopó	9	San Antonio Palopo	1	Enero	2023-04-01T00:00:00	2024-11-08T14:00:00	6	Velocidad del viento	8
146090	7	Sololá	712	San Antonio Palopó	9	San Antonio Palopo	1	Enero	2023-04-01T00:00:00	2024-11-08T14:00:00	7	Dirección del viento	8.05
146091	7	Sololá	712	San Antonio Palopó	9	San Antonio Palopo	1	Enero	2023-04-01T00:00:00	2024-11-08T14:00:00	1	Precipitación	0
146092	7	Sololá	712	San Antonio Palopó	9	San Antonio Palopo	1	Enero	2023-04-01T00:00:00	2024-11-08T14:00:00	8	Radiación solar	687
146093	7	Sololá	712	San Antonio Palopó	9	San Antonio Palopo	1	Enero	2023-04-01T00:00:00	2024-11-08T15:00:00	2	Temperatura media	22.6
146094	7	Sololá	712	San Antonio Palopó	9	San Antonio Palopo	1	Enero	2023-04-01T00:00:00	2024-11-08T15:00:00	4	Temperatura máxima	23.3
146095	7	Sololá	712	San Antonio Palopó	9	San Antonio Palopo	1	Enero	2023-04-01T00:00:00	2024-11-08T15:00:00	3	Temperatura mínima	22.4
146096	7	Sololá	712	San Antonio Palopó	9	San Antonio Palopo	1	Enero	2023-04-01T00:00:00	2024-11-08T15:00:00	5	Humedad	71
146097	7	Sololá	712	San Antonio Palopó	9	San Antonio Palopo	1	Enero	2023-04-01T00:00:00	2024-11-08T15:00:00	6	Velocidad del viento	8
146098	7	Sololá	712	San Antonio Palopó	9	San Antonio Palopo	1	Enero	2023-04-01T00:00:00	2024-11-08T15:00:00	7	Dirección del viento	8.05
146099	7	Sololá	712	San Antonio Palopó	9	San Antonio Palopo	1	Enero	2023-04-01T00:00:00	2024-11-08T15:00:00	1	Precipitación	0
146100	7	Sololá	712	San Antonio Palopó	9	San Antonio Palopo	1	Enero	2023-04-01T00:00:00	2024-11-08T15:00:00	8	Radiación solar	560
146101	7	Sololá	712	San Antonio Palopó	9	San Antonio Palopo	1	Enero	2023-04-01T00:00:00	2024-11-08T16:00:00	2	Temperatura media	22.6
146102	7	Sololá	712	San Antonio Palopó	9	San Antonio Palopo	1	Enero	2023-04-01T00:00:00	2024-11-08T16:00:00	4	Temperatura máxima	23
146103	7	Sololá	712	San Antonio Palopó	9	San Antonio Palopo	1	Enero	2023-04-01T00:00:00	2024-11-08T16:00:00	3	Temperatura mínima	22.3
146104	7	Sololá	712	San Antonio Palopó	9	San Antonio Palopo	1	Enero	2023-04-01T00:00:00	2024-11-08T16:00:00	5	Humedad	73
146105	7	Sololá	712	San Antonio Palopó	9	San Antonio Palopo	1	Enero	2023-04-01T00:00:00	2024-11-08T16:00:00	6	Velocidad del viento	6.4
146106	7	Sololá	712	San Antonio Palopó	9	San Antonio Palopo	1	Enero	2023-04-01T00:00:00	2024-11-08T16:00:00	7	Dirección del viento	6.44
146107	7	Sololá	712	San Antonio Palopó	9	San Antonio Palopo	1	Enero	2023-04-01T00:00:00	2024-11-08T16:00:00	1	Precipitación	0
146108	7	Sololá	712	San Antonio Palopó	9	San Antonio Palopo	1	Enero	2023-04-01T00:00:00	2024-11-08T16:00:00	8	Radiación solar	386
146109	7	Sololá	712	San Antonio Palopó	9	San Antonio Palopo	1	Enero	2023-04-01T00:00:00	2024-11-08T17:00:00	2	Temperatura media	21.6
146110	7	Sololá	712	San Antonio Palopó	9	San Antonio Palopo	1	Enero	2023-04-01T00:00:00	2024-11-08T17:00:00	4	Temperatura máxima	22.6
146111	7	Sololá	712	San Antonio Palopó	9	San Antonio Palopo	1	Enero	2023-04-01T00:00:00	2024-11-08T17:00:00	3	Temperatura mínima	21.6
146112	7	Sololá	712	San Antonio Palopó	9	San Antonio Palopo	1	Enero	2023-04-01T00:00:00	2024-11-08T17:00:00	5	Humedad	76
146113	7	Sololá	712	San Antonio Palopó	9	San Antonio Palopo	1	Enero	2023-04-01T00:00:00	2024-11-08T17:00:00	6	Velocidad del viento	6.4
146114	7	Sololá	712	San Antonio Palopó	9	San Antonio Palopo	1	Enero	2023-04-01T00:00:00	2024-11-08T17:00:00	7	Dirección del viento	6.44
146115	7	Sololá	712	San Antonio Palopó	9	San Antonio Palopo	1	Enero	2023-04-01T00:00:00	2024-11-08T17:00:00	1	Precipitación	0
146116	7	Sololá	712	San Antonio Palopó	9	San Antonio Palopo	1	Enero	2023-04-01T00:00:00	2024-11-08T17:00:00	8	Radiación solar	179
146117	7	Sololá	712	San Antonio Palopó	9	San Antonio Palopo	1	Enero	2023-04-01T00:00:00	2024-11-08T18:00:00	2	Temperatura media	19.6
146118	7	Sololá	712	San Antonio Palopó	9	San Antonio Palopo	1	Enero	2023-04-01T00:00:00	2024-11-08T18:00:00	4	Temperatura máxima	21.6
146119	7	Sololá	712	San Antonio Palopó	9	San Antonio Palopo	1	Enero	2023-04-01T00:00:00	2024-11-08T18:00:00	3	Temperatura mínima	19.6
146120	7	Sololá	712	San Antonio Palopó	9	San Antonio Palopo	1	Enero	2023-04-01T00:00:00	2024-11-08T18:00:00	5	Humedad	82
146121	7	Sololá	712	San Antonio Palopó	9	San Antonio Palopo	1	Enero	2023-04-01T00:00:00	2024-11-08T18:00:00	6	Velocidad del viento	4.8
146122	7	Sololá	712	San Antonio Palopó	9	San Antonio Palopo	1	Enero	2023-04-01T00:00:00	2024-11-08T18:00:00	7	Dirección del viento	4.83
146123	7	Sololá	712	San Antonio Palopó	9	San Antonio Palopo	1	Enero	2023-04-01T00:00:00	2024-11-08T18:00:00	1	Precipitación	0
146124	7	Sololá	712	San Antonio Palopó	9	San Antonio Palopo	1	Enero	2023-04-01T00:00:00	2024-11-08T18:00:00	8	Radiación solar	24
146125	7	Sololá	712	San Antonio Palopó	9	San Antonio Palopo	1	Enero	2023-04-01T00:00:00	2024-11-08T19:00:00	2	Temperatura media	17.7
146126	7	Sololá	712	San Antonio Palopó	9	San Antonio Palopo	1	Enero	2023-04-01T00:00:00	2024-11-08T19:00:00	4	Temperatura máxima	19.6
146127	7	Sololá	712	San Antonio Palopó	9	San Antonio Palopo	1	Enero	2023-04-01T00:00:00	2024-11-08T19:00:00	3	Temperatura mínima	17.7
146128	7	Sololá	712	San Antonio Palopó	9	San Antonio Palopo	1	Enero	2023-04-01T00:00:00	2024-11-08T19:00:00	5	Humedad	71
146129	7	Sololá	712	San Antonio Palopó	9	San Antonio Palopo	1	Enero	2023-04-01T00:00:00	2024-11-08T19:00:00	6	Velocidad del viento	3.2
146130	7	Sololá	712	San Antonio Palopó	9	San Antonio Palopo	1	Enero	2023-04-01T00:00:00	2024-11-08T19:00:00	7	Dirección del viento	3.22
146131	7	Sololá	712	San Antonio Palopó	9	San Antonio Palopo	1	Enero	2023-04-01T00:00:00	2024-11-08T19:00:00	1	Precipitación	0
146132	7	Sololá	712	San Antonio Palopó	9	San Antonio Palopo	1	Enero	2023-04-01T00:00:00	2024-11-08T19:00:00	8	Radiación solar	0
146133	7	Sololá	712	San Antonio Palopó	9	San Antonio Palopo	1	Enero	2023-04-01T00:00:00	2024-11-08T20:00:00	2	Temperatura media	19.2
146134	7	Sololá	712	San Antonio Palopó	9	San Antonio Palopo	1	Enero	2023-04-01T00:00:00	2024-11-08T20:00:00	4	Temperatura máxima	19.4
146135	7	Sololá	712	San Antonio Palopó	9	San Antonio Palopo	1	Enero	2023-04-01T00:00:00	2024-11-08T20:00:00	3	Temperatura mínima	17.7
146136	7	Sololá	712	San Antonio Palopó	9	San Antonio Palopo	1	Enero	2023-04-01T00:00:00	2024-11-08T20:00:00	5	Humedad	51
146137	7	Sololá	712	San Antonio Palopó	9	San Antonio Palopo	1	Enero	2023-04-01T00:00:00	2024-11-08T20:00:00	6	Velocidad del viento	9.7
146138	7	Sololá	712	San Antonio Palopó	9	San Antonio Palopo	1	Enero	2023-04-01T00:00:00	2024-11-08T20:00:00	7	Dirección del viento	9.66
146139	7	Sololá	712	San Antonio Palopó	9	San Antonio Palopo	1	Enero	2023-04-01T00:00:00	2024-11-08T20:00:00	1	Precipitación	0
146140	7	Sololá	712	San Antonio Palopó	9	San Antonio Palopo	1	Enero	2023-04-01T00:00:00	2024-11-08T20:00:00	8	Radiación solar	0
146141	7	Sololá	712	San Antonio Palopó	9	San Antonio Palopo	1	Enero	2023-04-01T00:00:00	2024-11-08T21:00:00	2	Temperatura media	18.8
146142	7	Sololá	712	San Antonio Palopó	9	San Antonio Palopo	1	Enero	2023-04-01T00:00:00	2024-11-08T21:00:00	4	Temperatura máxima	19.2
146143	7	Sololá	712	San Antonio Palopó	9	San Antonio Palopo	1	Enero	2023-04-01T00:00:00	2024-11-08T21:00:00	3	Temperatura mínima	18.4
146144	7	Sololá	712	San Antonio Palopó	9	San Antonio Palopo	1	Enero	2023-04-01T00:00:00	2024-11-08T21:00:00	5	Humedad	51
146145	7	Sololá	712	San Antonio Palopó	9	San Antonio Palopo	1	Enero	2023-04-01T00:00:00	2024-11-08T21:00:00	6	Velocidad del viento	8
146146	7	Sololá	712	San Antonio Palopó	9	San Antonio Palopo	1	Enero	2023-04-01T00:00:00	2024-11-08T21:00:00	7	Dirección del viento	8.05
146147	7	Sololá	712	San Antonio Palopó	9	San Antonio Palopo	1	Enero	2023-04-01T00:00:00	2024-11-08T21:00:00	1	Precipitación	0
146148	7	Sololá	712	San Antonio Palopó	9	San Antonio Palopo	1	Enero	2023-04-01T00:00:00	2024-11-08T21:00:00	8	Radiación solar	0
146149	7	Sololá	712	San Antonio Palopó	9	San Antonio Palopo	1	Enero	2023-04-01T00:00:00	2024-11-08T22:00:00	2	Temperatura media	18.3
146150	7	Sololá	712	San Antonio Palopó	9	San Antonio Palopo	1	Enero	2023-04-01T00:00:00	2024-11-08T22:00:00	4	Temperatura máxima	18.8
146151	7	Sololá	712	San Antonio Palopó	9	San Antonio Palopo	1	Enero	2023-04-01T00:00:00	2024-11-08T22:00:00	3	Temperatura mínima	18.1
146152	7	Sololá	712	San Antonio Palopó	9	San Antonio Palopo	1	Enero	2023-04-01T00:00:00	2024-11-08T22:00:00	5	Humedad	53
146153	7	Sololá	712	San Antonio Palopó	9	San Antonio Palopo	1	Enero	2023-04-01T00:00:00	2024-11-08T22:00:00	6	Velocidad del viento	9.7
146154	7	Sololá	712	San Antonio Palopó	9	San Antonio Palopo	1	Enero	2023-04-01T00:00:00	2024-11-08T22:00:00	7	Dirección del viento	9.66
146155	7	Sololá	712	San Antonio Palopó	9	San Antonio Palopo	1	Enero	2023-04-01T00:00:00	2024-11-08T22:00:00	1	Precipitación	0
146156	7	Sololá	712	San Antonio Palopó	9	San Antonio Palopo	1	Enero	2023-04-01T00:00:00	2024-11-08T22:00:00	8	Radiación solar	0
146157	7	Sololá	712	San Antonio Palopó	9	San Antonio Palopo	1	Enero	2023-04-01T00:00:00	2024-11-08T23:00:00	2	Temperatura media	17.8
146158	7	Sololá	712	San Antonio Palopó	9	San Antonio Palopo	1	Enero	2023-04-01T00:00:00	2024-11-08T23:00:00	4	Temperatura máxima	18.6
146159	7	Sololá	712	San Antonio Palopó	9	San Antonio Palopo	1	Enero	2023-04-01T00:00:00	2024-11-08T23:00:00	3	Temperatura mínima	17.8
146160	7	Sololá	712	San Antonio Palopó	9	San Antonio Palopo	1	Enero	2023-04-01T00:00:00	2024-11-08T23:00:00	5	Humedad	55
146161	7	Sololá	712	San Antonio Palopó	9	San Antonio Palopo	1	Enero	2023-04-01T00:00:00	2024-11-08T23:00:00	6	Velocidad del viento	9.7
146162	7	Sololá	712	San Antonio Palopó	9	San Antonio Palopo	1	Enero	2023-04-01T00:00:00	2024-11-08T23:00:00	7	Dirección del viento	9.66
146163	7	Sololá	712	San Antonio Palopó	9	San Antonio Palopo	1	Enero	2023-04-01T00:00:00	2024-11-08T23:00:00	1	Precipitación	0
146164	7	Sololá	712	San Antonio Palopó	9	San Antonio Palopo	1	Enero	2023-04-01T00:00:00	2024-11-08T23:00:00	8	Radiación solar	0
146165	7	Sololá	712	San Antonio Palopó	9	San Antonio Palopo	1	Enero	2023-05-01T00:00:00	2024-11-08T00:00:00	2	Temperatura media	16.9
146166	7	Sololá	712	San Antonio Palopó	9	San Antonio Palopo	1	Enero	2023-05-01T00:00:00	2024-11-08T00:00:00	4	Temperatura máxima	17.8
146167	7	Sololá	712	San Antonio Palopó	9	San Antonio Palopo	1	Enero	2023-05-01T00:00:00	2024-11-08T00:00:00	3	Temperatura mínima	16.9
146168	7	Sololá	712	San Antonio Palopó	9	San Antonio Palopo	1	Enero	2023-05-01T00:00:00	2024-11-08T00:00:00	5	Humedad	54
146169	7	Sololá	712	San Antonio Palopó	9	San Antonio Palopo	1	Enero	2023-05-01T00:00:00	2024-11-08T00:00:00	6	Velocidad del viento	8
146170	7	Sololá	712	San Antonio Palopó	9	San Antonio Palopo	1	Enero	2023-05-01T00:00:00	2024-11-08T00:00:00	7	Dirección del viento	8.05
146171	7	Sololá	712	San Antonio Palopó	9	San Antonio Palopo	1	Enero	2023-05-01T00:00:00	2024-11-08T00:00:00	1	Precipitación	0
146172	7	Sololá	712	San Antonio Palopó	9	San Antonio Palopo	1	Enero	2023-05-01T00:00:00	2024-11-08T00:00:00	8	Radiación solar	0
146173	7	Sololá	712	San Antonio Palopó	9	San Antonio Palopo	1	Enero	2023-05-01T00:00:00	2024-11-08T01:00:00	2	Temperatura media	17.1
146174	7	Sololá	712	San Antonio Palopó	9	San Antonio Palopo	1	Enero	2023-05-01T00:00:00	2024-11-08T01:00:00	4	Temperatura máxima	17.2
146175	7	Sololá	712	San Antonio Palopó	9	San Antonio Palopo	1	Enero	2023-05-01T00:00:00	2024-11-08T01:00:00	3	Temperatura mínima	16.8
146176	7	Sololá	712	San Antonio Palopó	9	San Antonio Palopo	1	Enero	2023-05-01T00:00:00	2024-11-08T01:00:00	5	Humedad	52
146177	7	Sololá	712	San Antonio Palopó	9	San Antonio Palopo	1	Enero	2023-05-01T00:00:00	2024-11-08T01:00:00	6	Velocidad del viento	6.4
146178	7	Sololá	712	San Antonio Palopó	9	San Antonio Palopo	1	Enero	2023-05-01T00:00:00	2024-11-08T01:00:00	7	Dirección del viento	6.44
146179	7	Sololá	712	San Antonio Palopó	9	San Antonio Palopo	1	Enero	2023-05-01T00:00:00	2024-11-08T01:00:00	1	Precipitación	0
146180	7	Sololá	712	San Antonio Palopó	9	San Antonio Palopo	1	Enero	2023-05-01T00:00:00	2024-11-08T01:00:00	8	Radiación solar	0
146181	7	Sololá	712	San Antonio Palopó	9	San Antonio Palopo	1	Enero	2023-05-01T00:00:00	2024-11-08T02:00:00	2	Temperatura media	17.3
146182	7	Sololá	712	San Antonio Palopó	9	San Antonio Palopo	1	Enero	2023-05-01T00:00:00	2024-11-08T02:00:00	4	Temperatura máxima	17.8
146183	7	Sololá	712	San Antonio Palopó	9	San Antonio Palopo	1	Enero	2023-05-01T00:00:00	2024-11-08T02:00:00	3	Temperatura mínima	17.1
146184	7	Sololá	712	San Antonio Palopó	9	San Antonio Palopo	1	Enero	2023-05-01T00:00:00	2024-11-08T02:00:00	5	Humedad	50
146185	7	Sololá	712	San Antonio Palopó	9	San Antonio Palopo	1	Enero	2023-05-01T00:00:00	2024-11-08T02:00:00	6	Velocidad del viento	8
146186	7	Sololá	712	San Antonio Palopó	9	San Antonio Palopo	1	Enero	2023-05-01T00:00:00	2024-11-08T02:00:00	7	Dirección del viento	8.05
146187	7	Sololá	712	San Antonio Palopó	9	San Antonio Palopo	1	Enero	2023-05-01T00:00:00	2024-11-08T02:00:00	1	Precipitación	0
146188	7	Sololá	712	San Antonio Palopó	9	San Antonio Palopo	1	Enero	2023-05-01T00:00:00	2024-11-08T02:00:00	8	Radiación solar	0
146189	7	Sololá	712	San Antonio Palopó	9	San Antonio Palopo	1	Enero	2023-05-01T00:00:00	2024-11-08T03:00:00	2	Temperatura media	17
146190	7	Sololá	712	San Antonio Palopó	9	San Antonio Palopo	1	Enero	2023-05-01T00:00:00	2024-11-08T03:00:00	4	Temperatura máxima	17.5
146191	7	Sololá	712	San Antonio Palopó	9	San Antonio Palopo	1	Enero	2023-05-01T00:00:00	2024-11-08T03:00:00	3	Temperatura mínima	16.9
146192	7	Sololá	712	San Antonio Palopó	9	San Antonio Palopo	1	Enero	2023-05-01T00:00:00	2024-11-08T03:00:00	5	Humedad	53
146193	7	Sololá	712	San Antonio Palopó	9	San Antonio Palopo	1	Enero	2023-05-01T00:00:00	2024-11-08T03:00:00	6	Velocidad del viento	6.4
146194	7	Sololá	712	San Antonio Palopó	9	San Antonio Palopo	1	Enero	2023-05-01T00:00:00	2024-11-08T03:00:00	7	Dirección del viento	6.44
146195	7	Sololá	712	San Antonio Palopó	9	San Antonio Palopo	1	Enero	2023-05-01T00:00:00	2024-11-08T03:00:00	1	Precipitación	0
146196	7	Sololá	712	San Antonio Palopó	9	San Antonio Palopo	1	Enero	2023-05-01T00:00:00	2024-11-08T03:00:00	8	Radiación solar	0
146197	7	Sololá	712	San Antonio Palopó	9	San Antonio Palopo	1	Enero	2023-05-01T00:00:00	2024-11-08T04:00:00	2	Temperatura media	18.3
146198	7	Sololá	712	San Antonio Palopó	9	San Antonio Palopo	1	Enero	2023-05-01T00:00:00	2024-11-08T04:00:00	4	Temperatura máxima	18.3
146199	7	Sololá	712	San Antonio Palopó	9	San Antonio Palopo	1	Enero	2023-05-01T00:00:00	2024-11-08T04:00:00	3	Temperatura mínima	16.8
146200	7	Sololá	712	San Antonio Palopó	9	San Antonio Palopo	1	Enero	2023-05-01T00:00:00	2024-11-08T04:00:00	5	Humedad	48
146201	7	Sololá	712	San Antonio Palopó	9	San Antonio Palopo	1	Enero	2023-05-01T00:00:00	2024-11-08T04:00:00	6	Velocidad del viento	6.4
146202	7	Sololá	712	San Antonio Palopó	9	San Antonio Palopo	1	Enero	2023-05-01T00:00:00	2024-11-08T04:00:00	7	Dirección del viento	6.44
146203	7	Sololá	712	San Antonio Palopó	9	San Antonio Palopo	1	Enero	2023-05-01T00:00:00	2024-11-08T04:00:00	1	Precipitación	0
146204	7	Sololá	712	San Antonio Palopó	9	San Antonio Palopo	1	Enero	2023-05-01T00:00:00	2024-11-08T04:00:00	8	Radiación solar	0
146205	7	Sololá	712	San Antonio Palopó	9	San Antonio Palopo	1	Enero	2023-05-01T00:00:00	2024-11-08T05:00:00	2	Temperatura media	17.9
146206	7	Sololá	712	San Antonio Palopó	9	San Antonio Palopo	1	Enero	2023-05-01T00:00:00	2024-11-08T05:00:00	4	Temperatura máxima	18.3
146207	7	Sololá	712	San Antonio Palopó	9	San Antonio Palopo	1	Enero	2023-05-01T00:00:00	2024-11-08T05:00:00	3	Temperatura mínima	17.6
146208	7	Sololá	712	San Antonio Palopó	9	San Antonio Palopo	1	Enero	2023-05-01T00:00:00	2024-11-08T05:00:00	5	Humedad	52
146209	7	Sololá	712	San Antonio Palopó	9	San Antonio Palopo	1	Enero	2023-05-01T00:00:00	2024-11-08T05:00:00	6	Velocidad del viento	6.4
146210	7	Sololá	712	San Antonio Palopó	9	San Antonio Palopo	1	Enero	2023-05-01T00:00:00	2024-11-08T05:00:00	7	Dirección del viento	6.44
146211	7	Sololá	712	San Antonio Palopó	9	San Antonio Palopo	1	Enero	2023-05-01T00:00:00	2024-11-08T05:00:00	1	Precipitación	0
146212	7	Sololá	712	San Antonio Palopó	9	San Antonio Palopo	1	Enero	2023-05-01T00:00:00	2024-11-08T05:00:00	8	Radiación solar	0
146213	7	Sololá	712	San Antonio Palopó	9	San Antonio Palopo	1	Enero	2023-05-01T00:00:00	2024-11-08T06:00:00	2	Temperatura media	17.8
146214	7	Sololá	712	San Antonio Palopó	9	San Antonio Palopo	1	Enero	2023-05-01T00:00:00	2024-11-08T06:00:00	4	Temperatura máxima	18.2
146215	7	Sololá	712	San Antonio Palopó	9	San Antonio Palopo	1	Enero	2023-05-01T00:00:00	2024-11-08T06:00:00	3	Temperatura mínima	17.6
146216	7	Sololá	712	San Antonio Palopó	9	San Antonio Palopo	1	Enero	2023-05-01T00:00:00	2024-11-08T06:00:00	5	Humedad	59
146217	7	Sololá	712	San Antonio Palopó	9	San Antonio Palopo	1	Enero	2023-05-01T00:00:00	2024-11-08T06:00:00	6	Velocidad del viento	4.8
146218	7	Sololá	712	San Antonio Palopó	9	San Antonio Palopo	1	Enero	2023-05-01T00:00:00	2024-11-08T06:00:00	7	Dirección del viento	4.83
146219	7	Sololá	712	San Antonio Palopó	9	San Antonio Palopo	1	Enero	2023-05-01T00:00:00	2024-11-08T06:00:00	1	Precipitación	0
146220	7	Sololá	712	San Antonio Palopó	9	San Antonio Palopo	1	Enero	2023-05-01T00:00:00	2024-11-08T06:00:00	8	Radiación solar	0
146221	7	Sololá	712	San Antonio Palopó	9	San Antonio Palopo	1	Enero	2023-05-01T00:00:00	2024-11-08T07:00:00	2	Temperatura media	17.7
146222	7	Sololá	712	San Antonio Palopó	9	San Antonio Palopo	1	Enero	2023-05-01T00:00:00	2024-11-08T07:00:00	4	Temperatura máxima	17.8
146223	7	Sololá	712	San Antonio Palopó	9	San Antonio Palopo	1	Enero	2023-05-01T00:00:00	2024-11-08T07:00:00	3	Temperatura mínima	17.3
146224	7	Sololá	712	San Antonio Palopó	9	San Antonio Palopo	1	Enero	2023-05-01T00:00:00	2024-11-08T07:00:00	5	Humedad	66
146225	7	Sololá	712	San Antonio Palopó	9	San Antonio Palopo	1	Enero	2023-05-01T00:00:00	2024-11-08T07:00:00	6	Velocidad del viento	4.8
146226	7	Sololá	712	San Antonio Palopó	9	San Antonio Palopo	1	Enero	2023-05-01T00:00:00	2024-11-08T07:00:00	7	Dirección del viento	4.83
146227	7	Sololá	712	San Antonio Palopó	9	San Antonio Palopo	1	Enero	2023-05-01T00:00:00	2024-11-08T07:00:00	1	Precipitación	0
146228	7	Sololá	712	San Antonio Palopó	9	San Antonio Palopo	1	Enero	2023-05-01T00:00:00	2024-11-08T07:00:00	8	Radiación solar	2
146229	7	Sololá	712	San Antonio Palopó	9	San Antonio Palopo	1	Enero	2023-05-01T00:00:00	2024-11-08T08:00:00	2	Temperatura media	17.6
146230	7	Sololá	712	San Antonio Palopó	9	San Antonio Palopo	1	Enero	2023-05-01T00:00:00	2024-11-08T08:00:00	4	Temperatura máxima	17.8
146231	7	Sololá	712	San Antonio Palopó	9	San Antonio Palopo	1	Enero	2023-05-01T00:00:00	2024-11-08T08:00:00	3	Temperatura mínima	17.4
146232	7	Sololá	712	San Antonio Palopó	9	San Antonio Palopo	1	Enero	2023-05-01T00:00:00	2024-11-08T08:00:00	5	Humedad	71
146233	7	Sololá	712	San Antonio Palopó	9	San Antonio Palopo	1	Enero	2023-05-01T00:00:00	2024-11-08T08:00:00	6	Velocidad del viento	4.8
146234	7	Sololá	712	San Antonio Palopó	9	San Antonio Palopo	1	Enero	2023-05-01T00:00:00	2024-11-08T08:00:00	7	Dirección del viento	4.83
146235	7	Sololá	712	San Antonio Palopó	9	San Antonio Palopo	1	Enero	2023-05-01T00:00:00	2024-11-08T08:00:00	1	Precipitación	0
146236	7	Sololá	712	San Antonio Palopó	9	San Antonio Palopo	1	Enero	2023-05-01T00:00:00	2024-11-08T08:00:00	8	Radiación solar	37
146237	7	Sololá	712	San Antonio Palopó	9	San Antonio Palopo	1	Enero	2023-05-01T00:00:00	2024-11-08T09:00:00	2	Temperatura media	18.2
146238	7	Sololá	712	San Antonio Palopó	9	San Antonio Palopo	1	Enero	2023-05-01T00:00:00	2024-11-08T09:00:00	4	Temperatura máxima	18.2
146239	7	Sololá	712	San Antonio Palopó	9	San Antonio Palopo	1	Enero	2023-05-01T00:00:00	2024-11-08T09:00:00	3	Temperatura mínima	17.6
146240	7	Sololá	712	San Antonio Palopó	9	San Antonio Palopo	1	Enero	2023-05-01T00:00:00	2024-11-08T09:00:00	5	Humedad	70
146241	7	Sololá	712	San Antonio Palopó	9	San Antonio Palopo	1	Enero	2023-05-01T00:00:00	2024-11-08T09:00:00	6	Velocidad del viento	4.8
146242	7	Sololá	712	San Antonio Palopó	9	San Antonio Palopo	1	Enero	2023-05-01T00:00:00	2024-11-08T09:00:00	7	Dirección del viento	4.83
146243	7	Sololá	712	San Antonio Palopó	9	San Antonio Palopo	1	Enero	2023-05-01T00:00:00	2024-11-08T09:00:00	1	Precipitación	0
146244	7	Sololá	712	San Antonio Palopó	9	San Antonio Palopo	1	Enero	2023-05-01T00:00:00	2024-11-08T09:00:00	8	Radiación solar	109
146245	7	Sololá	712	San Antonio Palopó	9	San Antonio Palopo	1	Enero	2023-05-01T00:00:00	2024-11-08T10:00:00	2	Temperatura media	19.2
146246	7	Sololá	712	San Antonio Palopó	9	San Antonio Palopo	1	Enero	2023-05-01T00:00:00	2024-11-08T10:00:00	4	Temperatura máxima	19.2
146247	7	Sololá	712	San Antonio Palopó	9	San Antonio Palopo	1	Enero	2023-05-01T00:00:00	2024-11-08T10:00:00	3	Temperatura mínima	18.2
146248	7	Sololá	712	San Antonio Palopó	9	San Antonio Palopo	1	Enero	2023-05-01T00:00:00	2024-11-08T10:00:00	5	Humedad	61
146249	7	Sololá	712	San Antonio Palopó	9	San Antonio Palopo	1	Enero	2023-05-01T00:00:00	2024-11-08T10:00:00	6	Velocidad del viento	6.4
146250	7	Sololá	712	San Antonio Palopó	9	San Antonio Palopo	1	Enero	2023-05-01T00:00:00	2024-11-08T10:00:00	7	Dirección del viento	6.44
146251	7	Sololá	712	San Antonio Palopó	9	San Antonio Palopo	1	Enero	2023-05-01T00:00:00	2024-11-08T10:00:00	1	Precipitación	0
146252	7	Sololá	712	San Antonio Palopó	9	San Antonio Palopo	1	Enero	2023-05-01T00:00:00	2024-11-08T10:00:00	8	Radiación solar	204
146253	7	Sololá	712	San Antonio Palopó	9	San Antonio Palopo	1	Enero	2023-05-01T00:00:00	2024-11-08T11:00:00	2	Temperatura media	20.8
146254	7	Sololá	712	San Antonio Palopó	9	San Antonio Palopo	1	Enero	2023-05-01T00:00:00	2024-11-08T11:00:00	4	Temperatura máxima	20.8
146255	7	Sololá	712	San Antonio Palopó	9	San Antonio Palopo	1	Enero	2023-05-01T00:00:00	2024-11-08T11:00:00	3	Temperatura mínima	19.2
146256	7	Sololá	712	San Antonio Palopó	9	San Antonio Palopo	1	Enero	2023-05-01T00:00:00	2024-11-08T11:00:00	5	Humedad	56
146257	7	Sololá	712	San Antonio Palopó	9	San Antonio Palopo	1	Enero	2023-05-01T00:00:00	2024-11-08T11:00:00	6	Velocidad del viento	8
146258	7	Sololá	712	San Antonio Palopó	9	San Antonio Palopo	1	Enero	2023-05-01T00:00:00	2024-11-08T11:00:00	7	Dirección del viento	8.05
146259	7	Sololá	712	San Antonio Palopó	9	San Antonio Palopo	1	Enero	2023-05-01T00:00:00	2024-11-08T11:00:00	1	Precipitación	0
146260	7	Sololá	712	San Antonio Palopó	9	San Antonio Palopo	1	Enero	2023-05-01T00:00:00	2024-11-08T11:00:00	8	Radiación solar	640
146261	7	Sololá	712	San Antonio Palopó	9	San Antonio Palopo	1	Enero	2023-05-01T00:00:00	2024-11-08T12:00:00	2	Temperatura media	20.6
146262	7	Sololá	712	San Antonio Palopó	9	San Antonio Palopo	1	Enero	2023-05-01T00:00:00	2024-11-08T12:00:00	4	Temperatura máxima	21.1
146263	7	Sololá	712	San Antonio Palopó	9	San Antonio Palopo	1	Enero	2023-05-01T00:00:00	2024-11-08T12:00:00	3	Temperatura mínima	20.3
146264	7	Sololá	712	San Antonio Palopó	9	San Antonio Palopo	1	Enero	2023-05-01T00:00:00	2024-11-08T12:00:00	5	Humedad	56
146265	7	Sololá	712	San Antonio Palopó	9	San Antonio Palopo	1	Enero	2023-05-01T00:00:00	2024-11-08T12:00:00	6	Velocidad del viento	12.9
146266	7	Sololá	712	San Antonio Palopó	9	San Antonio Palopo	1	Enero	2023-05-01T00:00:00	2024-11-08T12:00:00	7	Dirección del viento	12.87
146267	7	Sololá	712	San Antonio Palopó	9	San Antonio Palopo	1	Enero	2023-05-01T00:00:00	2024-11-08T12:00:00	1	Precipitación	0
146268	7	Sololá	712	San Antonio Palopó	9	San Antonio Palopo	1	Enero	2023-05-01T00:00:00	2024-11-08T12:00:00	8	Radiación solar	413
146269	7	Sololá	712	San Antonio Palopó	9	San Antonio Palopo	1	Enero	2023-05-01T00:00:00	2024-11-08T13:00:00	2	Temperatura media	20.5
146270	7	Sololá	712	San Antonio Palopó	9	San Antonio Palopo	1	Enero	2023-05-01T00:00:00	2024-11-08T13:00:00	4	Temperatura máxima	20.9
146271	7	Sololá	712	San Antonio Palopó	9	San Antonio Palopo	1	Enero	2023-05-01T00:00:00	2024-11-08T13:00:00	3	Temperatura mínima	20.2
146272	7	Sololá	712	San Antonio Palopó	9	San Antonio Palopo	1	Enero	2023-05-01T00:00:00	2024-11-08T13:00:00	5	Humedad	54
146273	7	Sololá	712	San Antonio Palopó	9	San Antonio Palopo	1	Enero	2023-05-01T00:00:00	2024-11-08T13:00:00	6	Velocidad del viento	9.7
146274	7	Sololá	712	San Antonio Palopó	9	San Antonio Palopo	1	Enero	2023-05-01T00:00:00	2024-11-08T13:00:00	7	Dirección del viento	9.66
146275	7	Sololá	712	San Antonio Palopó	9	San Antonio Palopo	1	Enero	2023-05-01T00:00:00	2024-11-08T13:00:00	1	Precipitación	0
146276	7	Sololá	712	San Antonio Palopó	9	San Antonio Palopo	1	Enero	2023-05-01T00:00:00	2024-11-08T13:00:00	8	Radiación solar	294
146277	7	Sololá	712	San Antonio Palopó	9	San Antonio Palopo	1	Enero	2023-05-01T00:00:00	2024-11-08T14:00:00	2	Temperatura media	19.9
146278	7	Sololá	712	San Antonio Palopó	9	San Antonio Palopo	1	Enero	2023-05-01T00:00:00	2024-11-08T14:00:00	4	Temperatura máxima	21.1
146279	7	Sololá	712	San Antonio Palopó	9	San Antonio Palopo	1	Enero	2023-05-01T00:00:00	2024-11-08T14:00:00	3	Temperatura mínima	19.9
146280	7	Sololá	712	San Antonio Palopó	9	San Antonio Palopo	1	Enero	2023-05-01T00:00:00	2024-11-08T14:00:00	5	Humedad	60
146281	7	Sololá	712	San Antonio Palopó	9	San Antonio Palopo	1	Enero	2023-05-01T00:00:00	2024-11-08T14:00:00	6	Velocidad del viento	8
146282	7	Sololá	712	San Antonio Palopó	9	San Antonio Palopo	1	Enero	2023-05-01T00:00:00	2024-11-08T14:00:00	7	Dirección del viento	8.05
146283	7	Sololá	712	San Antonio Palopó	9	San Antonio Palopo	1	Enero	2023-05-01T00:00:00	2024-11-08T14:00:00	1	Precipitación	0
146284	7	Sololá	712	San Antonio Palopó	9	San Antonio Palopo	1	Enero	2023-05-01T00:00:00	2024-11-08T14:00:00	8	Radiación solar	217
146285	7	Sololá	712	San Antonio Palopó	9	San Antonio Palopo	1	Enero	2023-05-01T00:00:00	2024-11-08T15:00:00	2	Temperatura media	19.1
146286	7	Sololá	712	San Antonio Palopó	9	San Antonio Palopo	1	Enero	2023-05-01T00:00:00	2024-11-08T15:00:00	4	Temperatura máxima	20.2
146287	7	Sololá	712	San Antonio Palopó	9	San Antonio Palopo	1	Enero	2023-05-01T00:00:00	2024-11-08T15:00:00	3	Temperatura mínima	19
146288	7	Sololá	712	San Antonio Palopó	9	San Antonio Palopo	1	Enero	2023-05-01T00:00:00	2024-11-08T15:00:00	5	Humedad	62
146289	7	Sololá	712	San Antonio Palopó	9	San Antonio Palopo	1	Enero	2023-05-01T00:00:00	2024-11-08T15:00:00	6	Velocidad del viento	9.7
146290	7	Sololá	712	San Antonio Palopó	9	San Antonio Palopo	1	Enero	2023-05-01T00:00:00	2024-11-08T15:00:00	7	Dirección del viento	9.66
146291	7	Sololá	712	San Antonio Palopó	9	San Antonio Palopo	1	Enero	2023-05-01T00:00:00	2024-11-08T15:00:00	1	Precipitación	0
146292	7	Sololá	712	San Antonio Palopó	9	San Antonio Palopo	1	Enero	2023-05-01T00:00:00	2024-11-08T15:00:00	8	Radiación solar	157
146293	7	Sololá	712	San Antonio Palopó	9	San Antonio Palopo	1	Enero	2023-05-01T00:00:00	2024-11-08T16:00:00	2	Temperatura media	19.5
146294	7	Sololá	712	San Antonio Palopó	9	San Antonio Palopo	1	Enero	2023-05-01T00:00:00	2024-11-08T16:00:00	4	Temperatura máxima	19.6
146295	7	Sololá	712	San Antonio Palopó	9	San Antonio Palopo	1	Enero	2023-05-01T00:00:00	2024-11-08T16:00:00	3	Temperatura mínima	18.9
146296	7	Sololá	712	San Antonio Palopó	9	San Antonio Palopo	1	Enero	2023-05-01T00:00:00	2024-11-08T16:00:00	5	Humedad	64
146297	7	Sololá	712	San Antonio Palopó	9	San Antonio Palopo	1	Enero	2023-05-01T00:00:00	2024-11-08T16:00:00	6	Velocidad del viento	11.3
146298	7	Sololá	712	San Antonio Palopó	9	San Antonio Palopo	1	Enero	2023-05-01T00:00:00	2024-11-08T16:00:00	7	Dirección del viento	11.27
146299	7	Sololá	712	San Antonio Palopó	9	San Antonio Palopo	1	Enero	2023-05-01T00:00:00	2024-11-08T16:00:00	1	Precipitación	0
146300	7	Sololá	712	San Antonio Palopó	9	San Antonio Palopo	1	Enero	2023-05-01T00:00:00	2024-11-08T16:00:00	8	Radiación solar	156
146301	7	Sololá	712	San Antonio Palopó	9	San Antonio Palopo	1	Enero	2023-05-01T00:00:00	2024-11-08T17:00:00	2	Temperatura media	18.2
146302	7	Sololá	712	San Antonio Palopó	9	San Antonio Palopo	1	Enero	2023-05-01T00:00:00	2024-11-08T17:00:00	4	Temperatura máxima	19.4
146303	7	Sololá	712	San Antonio Palopó	9	San Antonio Palopo	1	Enero	2023-05-01T00:00:00	2024-11-08T17:00:00	3	Temperatura mínima	18.2
146304	7	Sololá	712	San Antonio Palopó	9	San Antonio Palopo	1	Enero	2023-05-01T00:00:00	2024-11-08T17:00:00	5	Humedad	68
146305	7	Sololá	712	San Antonio Palopó	9	San Antonio Palopo	1	Enero	2023-05-01T00:00:00	2024-11-08T17:00:00	6	Velocidad del viento	16.1
146306	7	Sololá	712	San Antonio Palopó	9	San Antonio Palopo	1	Enero	2023-05-01T00:00:00	2024-11-08T17:00:00	7	Dirección del viento	16.09
146307	7	Sololá	712	San Antonio Palopó	9	San Antonio Palopo	1	Enero	2023-05-01T00:00:00	2024-11-08T17:00:00	1	Precipitación	0
146308	7	Sololá	712	San Antonio Palopó	9	San Antonio Palopo	1	Enero	2023-05-01T00:00:00	2024-11-08T17:00:00	8	Radiación solar	71
146309	7	Sololá	712	San Antonio Palopó	9	San Antonio Palopo	1	Enero	2023-05-01T00:00:00	2024-11-08T18:00:00	2	Temperatura media	18.1
146310	7	Sololá	712	San Antonio Palopó	9	San Antonio Palopo	1	Enero	2023-05-01T00:00:00	2024-11-08T18:00:00	4	Temperatura máxima	18.2
146311	7	Sololá	712	San Antonio Palopó	9	San Antonio Palopo	1	Enero	2023-05-01T00:00:00	2024-11-08T18:00:00	3	Temperatura mínima	18
146312	7	Sololá	712	San Antonio Palopó	9	San Antonio Palopo	1	Enero	2023-05-01T00:00:00	2024-11-08T18:00:00	5	Humedad	66
146313	7	Sololá	712	San Antonio Palopó	9	San Antonio Palopo	1	Enero	2023-05-01T00:00:00	2024-11-08T18:00:00	6	Velocidad del viento	9.7
146314	7	Sololá	712	San Antonio Palopó	9	San Antonio Palopo	1	Enero	2023-05-01T00:00:00	2024-11-08T18:00:00	7	Dirección del viento	9.66
146315	7	Sololá	712	San Antonio Palopó	9	San Antonio Palopo	1	Enero	2023-05-01T00:00:00	2024-11-08T18:00:00	1	Precipitación	0
146316	7	Sololá	712	San Antonio Palopó	9	San Antonio Palopo	1	Enero	2023-05-01T00:00:00	2024-11-08T18:00:00	8	Radiación solar	9
146317	7	Sololá	712	San Antonio Palopó	9	San Antonio Palopo	1	Enero	2023-05-01T00:00:00	2024-11-08T19:00:00	2	Temperatura media	17.2
146318	7	Sololá	712	San Antonio Palopó	9	San Antonio Palopo	1	Enero	2023-05-01T00:00:00	2024-11-08T19:00:00	4	Temperatura máxima	18.1
146319	7	Sololá	712	San Antonio Palopó	9	San Antonio Palopo	1	Enero	2023-05-01T00:00:00	2024-11-08T19:00:00	3	Temperatura mínima	17.2
146320	7	Sololá	712	San Antonio Palopó	9	San Antonio Palopo	1	Enero	2023-05-01T00:00:00	2024-11-08T19:00:00	5	Humedad	69
146321	7	Sololá	712	San Antonio Palopó	9	San Antonio Palopo	1	Enero	2023-05-01T00:00:00	2024-11-08T19:00:00	6	Velocidad del viento	3.2
146322	7	Sololá	712	San Antonio Palopó	9	San Antonio Palopo	1	Enero	2023-05-01T00:00:00	2024-11-08T19:00:00	7	Dirección del viento	3.22
146323	7	Sololá	712	San Antonio Palopó	9	San Antonio Palopo	1	Enero	2023-05-01T00:00:00	2024-11-08T19:00:00	1	Precipitación	0
146324	7	Sololá	712	San Antonio Palopó	9	San Antonio Palopo	1	Enero	2023-05-01T00:00:00	2024-11-08T19:00:00	8	Radiación solar	0
146325	7	Sololá	712	San Antonio Palopó	9	San Antonio Palopo	1	Enero	2023-05-01T00:00:00	2024-11-08T20:00:00	2	Temperatura media	18.1
146326	7	Sololá	712	San Antonio Palopó	9	San Antonio Palopo	1	Enero	2023-05-01T00:00:00	2024-11-08T20:00:00	4	Temperatura máxima	18.4
146327	7	Sololá	712	San Antonio Palopó	9	San Antonio Palopo	1	Enero	2023-05-01T00:00:00	2024-11-08T20:00:00	3	Temperatura mínima	17.1
146328	7	Sololá	712	San Antonio Palopó	9	San Antonio Palopo	1	Enero	2023-05-01T00:00:00	2024-11-08T20:00:00	5	Humedad	66
146329	7	Sololá	712	San Antonio Palopó	9	San Antonio Palopo	1	Enero	2023-05-01T00:00:00	2024-11-08T20:00:00	6	Velocidad del viento	6.4
146330	7	Sololá	712	San Antonio Palopó	9	San Antonio Palopo	1	Enero	2023-05-01T00:00:00	2024-11-08T20:00:00	7	Dirección del viento	6.44
146331	7	Sololá	712	San Antonio Palopó	9	San Antonio Palopo	1	Enero	2023-05-01T00:00:00	2024-11-08T20:00:00	1	Precipitación	0
146332	7	Sololá	712	San Antonio Palopó	9	San Antonio Palopo	1	Enero	2023-05-01T00:00:00	2024-11-08T20:00:00	8	Radiación solar	0
146333	7	Sololá	712	San Antonio Palopó	9	San Antonio Palopo	1	Enero	2023-05-01T00:00:00	2024-11-08T21:00:00	2	Temperatura media	18
146334	7	Sololá	712	San Antonio Palopó	9	San Antonio Palopo	1	Enero	2023-05-01T00:00:00	2024-11-08T21:00:00	4	Temperatura máxima	18.1
146335	7	Sololá	712	San Antonio Palopó	9	San Antonio Palopo	1	Enero	2023-05-01T00:00:00	2024-11-08T21:00:00	3	Temperatura mínima	17.2
146336	7	Sololá	712	San Antonio Palopó	9	San Antonio Palopo	1	Enero	2023-05-01T00:00:00	2024-11-08T21:00:00	5	Humedad	62
146337	7	Sololá	712	San Antonio Palopó	9	San Antonio Palopo	1	Enero	2023-05-01T00:00:00	2024-11-08T21:00:00	6	Velocidad del viento	4.8
146338	7	Sololá	712	San Antonio Palopó	9	San Antonio Palopo	1	Enero	2023-05-01T00:00:00	2024-11-08T21:00:00	7	Dirección del viento	4.83
146339	7	Sololá	712	San Antonio Palopó	9	San Antonio Palopo	1	Enero	2023-05-01T00:00:00	2024-11-08T21:00:00	1	Precipitación	0
146340	7	Sololá	712	San Antonio Palopó	9	San Antonio Palopo	1	Enero	2023-05-01T00:00:00	2024-11-08T21:00:00	8	Radiación solar	0
146341	7	Sololá	712	San Antonio Palopó	9	San Antonio Palopo	1	Enero	2023-05-01T00:00:00	2024-11-08T22:00:00	2	Temperatura media	17.1
146342	7	Sololá	712	San Antonio Palopó	9	San Antonio Palopo	1	Enero	2023-05-01T00:00:00	2024-11-08T22:00:00	4	Temperatura máxima	18.3
146343	7	Sololá	712	San Antonio Palopó	9	San Antonio Palopo	1	Enero	2023-05-01T00:00:00	2024-11-08T22:00:00	3	Temperatura mínima	17.1
146344	7	Sololá	712	San Antonio Palopó	9	San Antonio Palopo	1	Enero	2023-05-01T00:00:00	2024-11-08T22:00:00	5	Humedad	63
146345	7	Sololá	712	San Antonio Palopó	9	San Antonio Palopo	1	Enero	2023-05-01T00:00:00	2024-11-08T22:00:00	6	Velocidad del viento	4.8
146346	7	Sololá	712	San Antonio Palopó	9	San Antonio Palopo	1	Enero	2023-05-01T00:00:00	2024-11-08T22:00:00	7	Dirección del viento	4.83
146347	7	Sololá	712	San Antonio Palopó	9	San Antonio Palopo	1	Enero	2023-05-01T00:00:00	2024-11-08T22:00:00	1	Precipitación	0
146348	7	Sololá	712	San Antonio Palopó	9	San Antonio Palopo	1	Enero	2023-05-01T00:00:00	2024-11-08T22:00:00	8	Radiación solar	0
146349	7	Sololá	712	San Antonio Palopó	9	San Antonio Palopo	1	Enero	2023-05-01T00:00:00	2024-11-08T23:00:00	2	Temperatura media	15.6
146350	7	Sololá	712	San Antonio Palopó	9	San Antonio Palopo	1	Enero	2023-05-01T00:00:00	2024-11-08T23:00:00	4	Temperatura máxima	17.2
146351	7	Sololá	712	San Antonio Palopó	9	San Antonio Palopo	1	Enero	2023-05-01T00:00:00	2024-11-08T23:00:00	3	Temperatura mínima	15.5
146352	7	Sololá	712	San Antonio Palopó	9	San Antonio Palopo	1	Enero	2023-05-01T00:00:00	2024-11-08T23:00:00	5	Humedad	64
146353	7	Sololá	712	San Antonio Palopó	9	San Antonio Palopo	1	Enero	2023-05-01T00:00:00	2024-11-08T23:00:00	6	Velocidad del viento	4.8
146354	7	Sololá	712	San Antonio Palopó	9	San Antonio Palopo	1	Enero	2023-05-01T00:00:00	2024-11-08T23:00:00	7	Dirección del viento	4.83
146355	7	Sololá	712	San Antonio Palopó	9	San Antonio Palopo	1	Enero	2023-05-01T00:00:00	2024-11-08T23:00:00	1	Precipitación	0
146356	7	Sololá	712	San Antonio Palopó	9	San Antonio Palopo	1	Enero	2023-05-01T00:00:00	2024-11-08T23:00:00	8	Radiación solar	0
146357	7	Sololá	712	San Antonio Palopó	9	San Antonio Palopo	1	Enero	2023-06-01T00:00:00	2024-11-08T00:00:00	2	Temperatura media	16.3
146358	7	Sololá	712	San Antonio Palopó	9	San Antonio Palopo	1	Enero	2023-06-01T00:00:00	2024-11-08T00:00:00	4	Temperatura máxima	16.4
146359	7	Sololá	712	San Antonio Palopó	9	San Antonio Palopo	1	Enero	2023-06-01T00:00:00	2024-11-08T00:00:00	3	Temperatura mínima	15.1
146360	7	Sololá	712	San Antonio Palopó	9	San Antonio Palopo	1	Enero	2023-06-01T00:00:00	2024-11-08T00:00:00	5	Humedad	57
146361	7	Sololá	712	San Antonio Palopó	9	San Antonio Palopo	1	Enero	2023-06-01T00:00:00	2024-11-08T00:00:00	6	Velocidad del viento	4.8
146362	7	Sololá	712	San Antonio Palopó	9	San Antonio Palopo	1	Enero	2023-06-01T00:00:00	2024-11-08T00:00:00	7	Dirección del viento	4.83
146363	7	Sololá	712	San Antonio Palopó	9	San Antonio Palopo	1	Enero	2023-06-01T00:00:00	2024-11-08T00:00:00	1	Precipitación	0
146364	7	Sololá	712	San Antonio Palopó	9	San Antonio Palopo	1	Enero	2023-06-01T00:00:00	2024-11-08T00:00:00	8	Radiación solar	0
146365	7	Sololá	712	San Antonio Palopó	9	San Antonio Palopo	1	Enero	2023-06-01T00:00:00	2024-11-08T01:00:00	2	Temperatura media	15.7
146366	7	Sololá	712	San Antonio Palopó	9	San Antonio Palopo	1	Enero	2023-06-01T00:00:00	2024-11-08T01:00:00	4	Temperatura máxima	16.4
146367	7	Sololá	712	San Antonio Palopó	9	San Antonio Palopo	1	Enero	2023-06-01T00:00:00	2024-11-08T01:00:00	3	Temperatura mínima	15.7
146368	7	Sololá	712	San Antonio Palopó	9	San Antonio Palopo	1	Enero	2023-06-01T00:00:00	2024-11-08T01:00:00	5	Humedad	60
146369	7	Sololá	712	San Antonio Palopó	9	San Antonio Palopo	1	Enero	2023-06-01T00:00:00	2024-11-08T01:00:00	6	Velocidad del viento	6.4
146370	7	Sololá	712	San Antonio Palopó	9	San Antonio Palopo	1	Enero	2023-06-01T00:00:00	2024-11-08T01:00:00	7	Dirección del viento	6.44
146371	7	Sololá	712	San Antonio Palopó	9	San Antonio Palopo	1	Enero	2023-06-01T00:00:00	2024-11-08T01:00:00	1	Precipitación	0
146372	7	Sololá	712	San Antonio Palopó	9	San Antonio Palopo	1	Enero	2023-06-01T00:00:00	2024-11-08T01:00:00	8	Radiación solar	0
146373	7	Sololá	712	San Antonio Palopó	9	San Antonio Palopo	1	Enero	2023-06-01T00:00:00	2024-11-08T02:00:00	2	Temperatura media	15.4
146374	7	Sololá	712	San Antonio Palopó	9	San Antonio Palopo	1	Enero	2023-06-01T00:00:00	2024-11-08T02:00:00	4	Temperatura máxima	16.1
146375	7	Sololá	712	San Antonio Palopó	9	San Antonio Palopo	1	Enero	2023-06-01T00:00:00	2024-11-08T02:00:00	3	Temperatura mínima	14.8
146376	7	Sololá	712	San Antonio Palopó	9	San Antonio Palopo	1	Enero	2023-06-01T00:00:00	2024-11-08T02:00:00	5	Humedad	56
146377	7	Sololá	712	San Antonio Palopó	9	San Antonio Palopo	1	Enero	2023-06-01T00:00:00	2024-11-08T02:00:00	6	Velocidad del viento	6.4
146378	7	Sololá	712	San Antonio Palopó	9	San Antonio Palopo	1	Enero	2023-06-01T00:00:00	2024-11-08T02:00:00	7	Dirección del viento	6.44
146379	7	Sololá	712	San Antonio Palopó	9	San Antonio Palopo	1	Enero	2023-06-01T00:00:00	2024-11-08T02:00:00	1	Precipitación	0
146380	7	Sololá	712	San Antonio Palopó	9	San Antonio Palopo	1	Enero	2023-06-01T00:00:00	2024-11-08T02:00:00	8	Radiación solar	0
146381	7	Sololá	712	San Antonio Palopó	9	San Antonio Palopo	1	Enero	2023-06-01T00:00:00	2024-11-08T03:00:00	2	Temperatura media	15.2
146382	7	Sololá	712	San Antonio Palopó	9	San Antonio Palopo	1	Enero	2023-06-01T00:00:00	2024-11-08T03:00:00	4	Temperatura máxima	15.4
146383	7	Sololá	712	San Antonio Palopó	9	San Antonio Palopo	1	Enero	2023-06-01T00:00:00	2024-11-08T03:00:00	3	Temperatura mínima	14.7
146384	7	Sololá	712	San Antonio Palopó	9	San Antonio Palopo	1	Enero	2023-06-01T00:00:00	2024-11-08T03:00:00	5	Humedad	57
146385	7	Sololá	712	San Antonio Palopó	9	San Antonio Palopo	1	Enero	2023-06-01T00:00:00	2024-11-08T03:00:00	6	Velocidad del viento	6.4
146386	7	Sololá	712	San Antonio Palopó	9	San Antonio Palopo	1	Enero	2023-06-01T00:00:00	2024-11-08T03:00:00	7	Dirección del viento	6.44
146387	7	Sololá	712	San Antonio Palopó	9	San Antonio Palopo	1	Enero	2023-06-01T00:00:00	2024-11-08T03:00:00	1	Precipitación	0
146388	7	Sololá	712	San Antonio Palopó	9	San Antonio Palopo	1	Enero	2023-06-01T00:00:00	2024-11-08T03:00:00	8	Radiación solar	0
146389	7	Sololá	712	San Antonio Palopó	9	San Antonio Palopo	1	Enero	2023-06-01T00:00:00	2024-11-08T04:00:00	2	Temperatura media	14.8
146390	7	Sololá	712	San Antonio Palopó	9	San Antonio Palopo	1	Enero	2023-06-01T00:00:00	2024-11-08T04:00:00	4	Temperatura máxima	15.6
146391	7	Sololá	712	San Antonio Palopó	9	San Antonio Palopo	1	Enero	2023-06-01T00:00:00	2024-11-08T04:00:00	3	Temperatura mínima	14.7
146392	7	Sololá	712	San Antonio Palopó	9	San Antonio Palopo	1	Enero	2023-06-01T00:00:00	2024-11-08T04:00:00	5	Humedad	57
146393	7	Sololá	712	San Antonio Palopó	9	San Antonio Palopo	1	Enero	2023-06-01T00:00:00	2024-11-08T04:00:00	6	Velocidad del viento	12.9
146394	7	Sololá	712	San Antonio Palopó	9	San Antonio Palopo	1	Enero	2023-06-01T00:00:00	2024-11-08T04:00:00	7	Dirección del viento	12.87
146395	7	Sololá	712	San Antonio Palopó	9	San Antonio Palopo	1	Enero	2023-06-01T00:00:00	2024-11-08T04:00:00	1	Precipitación	0
146396	7	Sololá	712	San Antonio Palopó	9	San Antonio Palopo	1	Enero	2023-06-01T00:00:00	2024-11-08T04:00:00	8	Radiación solar	0
146397	7	Sololá	712	San Antonio Palopó	9	San Antonio Palopo	1	Enero	2023-06-01T00:00:00	2024-11-08T05:00:00	2	Temperatura media	15.2
146398	7	Sololá	712	San Antonio Palopó	9	San Antonio Palopo	1	Enero	2023-06-01T00:00:00	2024-11-08T05:00:00	4	Temperatura máxima	15.2
146399	7	Sololá	712	San Antonio Palopó	9	San Antonio Palopo	1	Enero	2023-06-01T00:00:00	2024-11-08T05:00:00	3	Temperatura mínima	14.5
146400	7	Sololá	712	San Antonio Palopó	9	San Antonio Palopo	1	Enero	2023-06-01T00:00:00	2024-11-08T05:00:00	5	Humedad	55
146401	7	Sololá	712	San Antonio Palopó	9	San Antonio Palopo	1	Enero	2023-06-01T00:00:00	2024-11-08T05:00:00	6	Velocidad del viento	17.7
146402	7	Sololá	712	San Antonio Palopó	9	San Antonio Palopo	1	Enero	2023-06-01T00:00:00	2024-11-08T05:00:00	7	Dirección del viento	17.7
146403	7	Sololá	712	San Antonio Palopó	9	San Antonio Palopo	1	Enero	2023-06-01T00:00:00	2024-11-08T05:00:00	1	Precipitación	0
146404	7	Sololá	712	San Antonio Palopó	9	San Antonio Palopo	1	Enero	2023-06-01T00:00:00	2024-11-08T05:00:00	8	Radiación solar	0
146405	7	Sololá	712	San Antonio Palopó	9	San Antonio Palopo	1	Enero	2023-06-01T00:00:00	2024-11-08T06:00:00	2	Temperatura media	15.1
146406	7	Sololá	712	San Antonio Palopó	9	San Antonio Palopo	1	Enero	2023-06-01T00:00:00	2024-11-08T06:00:00	4	Temperatura máxima	15.6
146407	7	Sololá	712	San Antonio Palopó	9	San Antonio Palopo	1	Enero	2023-06-01T00:00:00	2024-11-08T06:00:00	3	Temperatura mínima	15.1
146408	7	Sololá	712	San Antonio Palopó	9	San Antonio Palopo	1	Enero	2023-06-01T00:00:00	2024-11-08T06:00:00	5	Humedad	57
146409	7	Sololá	712	San Antonio Palopó	9	San Antonio Palopo	1	Enero	2023-06-01T00:00:00	2024-11-08T06:00:00	6	Velocidad del viento	9.7
146410	7	Sololá	712	San Antonio Palopó	9	San Antonio Palopo	1	Enero	2023-06-01T00:00:00	2024-11-08T06:00:00	7	Dirección del viento	9.66
146411	7	Sololá	712	San Antonio Palopó	9	San Antonio Palopo	1	Enero	2023-06-01T00:00:00	2024-11-08T06:00:00	1	Precipitación	0
146412	7	Sololá	712	San Antonio Palopó	9	San Antonio Palopo	1	Enero	2023-06-01T00:00:00	2024-11-08T06:00:00	8	Radiación solar	0
146413	7	Sololá	712	San Antonio Palopó	9	San Antonio Palopo	1	Enero	2023-06-01T00:00:00	2024-11-08T07:00:00	2	Temperatura media	14.6
146414	7	Sololá	712	San Antonio Palopó	9	San Antonio Palopo	1	Enero	2023-06-01T00:00:00	2024-11-08T07:00:00	4	Temperatura máxima	15.1
146415	7	Sololá	712	San Antonio Palopó	9	San Antonio Palopo	1	Enero	2023-06-01T00:00:00	2024-11-08T07:00:00	3	Temperatura mínima	14.3
146416	7	Sololá	712	San Antonio Palopó	9	San Antonio Palopo	1	Enero	2023-06-01T00:00:00	2024-11-08T07:00:00	5	Humedad	58
146417	7	Sololá	712	San Antonio Palopó	9	San Antonio Palopo	1	Enero	2023-06-01T00:00:00	2024-11-08T07:00:00	6	Velocidad del viento	6.4
146418	7	Sololá	712	San Antonio Palopó	9	San Antonio Palopo	1	Enero	2023-06-01T00:00:00	2024-11-08T07:00:00	7	Dirección del viento	6.44
146419	7	Sololá	712	San Antonio Palopó	9	San Antonio Palopo	1	Enero	2023-06-01T00:00:00	2024-11-08T07:00:00	1	Precipitación	0
146420	7	Sololá	712	San Antonio Palopó	9	San Antonio Palopo	1	Enero	2023-06-01T00:00:00	2024-11-08T07:00:00	8	Radiación solar	3
146421	7	Sololá	712	San Antonio Palopó	9	San Antonio Palopo	1	Enero	2023-06-01T00:00:00	2024-11-08T08:00:00	2	Temperatura media	14.4
146422	7	Sololá	712	San Antonio Palopó	9	San Antonio Palopo	1	Enero	2023-06-01T00:00:00	2024-11-08T08:00:00	4	Temperatura máxima	15.2
146423	7	Sololá	712	San Antonio Palopó	9	San Antonio Palopo	1	Enero	2023-06-01T00:00:00	2024-11-08T08:00:00	3	Temperatura mínima	14.4
146424	7	Sololá	712	San Antonio Palopó	9	San Antonio Palopo	1	Enero	2023-06-01T00:00:00	2024-11-08T08:00:00	5	Humedad	61
146425	7	Sololá	712	San Antonio Palopó	9	San Antonio Palopo	1	Enero	2023-06-01T00:00:00	2024-11-08T08:00:00	6	Velocidad del viento	6.4
146426	7	Sololá	712	San Antonio Palopó	9	San Antonio Palopo	1	Enero	2023-06-01T00:00:00	2024-11-08T08:00:00	7	Dirección del viento	6.44
146427	7	Sololá	712	San Antonio Palopó	9	San Antonio Palopo	1	Enero	2023-06-01T00:00:00	2024-11-08T08:00:00	1	Precipitación	0
146428	7	Sololá	712	San Antonio Palopó	9	San Antonio Palopo	1	Enero	2023-06-01T00:00:00	2024-11-08T08:00:00	8	Radiación solar	15
146429	7	Sololá	712	San Antonio Palopó	9	San Antonio Palopo	1	Enero	2023-06-01T00:00:00	2024-11-08T09:00:00	2	Temperatura media	15.2
146430	7	Sololá	712	San Antonio Palopó	9	San Antonio Palopo	1	Enero	2023-06-01T00:00:00	2024-11-08T09:00:00	4	Temperatura máxima	15.4
146431	7	Sololá	712	San Antonio Palopó	9	San Antonio Palopo	1	Enero	2023-06-01T00:00:00	2024-11-08T09:00:00	3	Temperatura mínima	14.3
146432	7	Sololá	712	San Antonio Palopó	9	San Antonio Palopo	1	Enero	2023-06-01T00:00:00	2024-11-08T09:00:00	5	Humedad	64
146433	7	Sololá	712	San Antonio Palopó	9	San Antonio Palopo	1	Enero	2023-06-01T00:00:00	2024-11-08T09:00:00	6	Velocidad del viento	4.8
146434	7	Sololá	712	San Antonio Palopó	9	San Antonio Palopo	1	Enero	2023-06-01T00:00:00	2024-11-08T09:00:00	7	Dirección del viento	4.83
146435	7	Sololá	712	San Antonio Palopó	9	San Antonio Palopo	1	Enero	2023-06-01T00:00:00	2024-11-08T09:00:00	1	Precipitación	0
146436	7	Sololá	712	San Antonio Palopó	9	San Antonio Palopo	1	Enero	2023-06-01T00:00:00	2024-11-08T09:00:00	8	Radiación solar	89
146437	7	Sololá	712	San Antonio Palopó	9	San Antonio Palopo	1	Enero	2023-06-01T00:00:00	2024-11-08T10:00:00	2	Temperatura media	19.8
146438	7	Sololá	712	San Antonio Palopó	9	San Antonio Palopo	1	Enero	2023-06-01T00:00:00	2024-11-08T10:00:00	4	Temperatura máxima	19.9
146439	7	Sololá	712	San Antonio Palopó	9	San Antonio Palopo	1	Enero	2023-06-01T00:00:00	2024-11-08T10:00:00	3	Temperatura mínima	15.2
146440	7	Sololá	712	San Antonio Palopó	9	San Antonio Palopo	1	Enero	2023-06-01T00:00:00	2024-11-08T10:00:00	5	Humedad	53
146441	7	Sololá	712	San Antonio Palopó	9	San Antonio Palopo	1	Enero	2023-06-01T00:00:00	2024-11-08T10:00:00	6	Velocidad del viento	3.2
146442	7	Sololá	712	San Antonio Palopó	9	San Antonio Palopo	1	Enero	2023-06-01T00:00:00	2024-11-08T10:00:00	7	Dirección del viento	3.22
146443	7	Sololá	712	San Antonio Palopó	9	San Antonio Palopo	1	Enero	2023-06-01T00:00:00	2024-11-08T10:00:00	1	Precipitación	0
146444	7	Sololá	712	San Antonio Palopó	9	San Antonio Palopo	1	Enero	2023-06-01T00:00:00	2024-11-08T10:00:00	8	Radiación solar	532
146445	7	Sololá	712	San Antonio Palopó	9	San Antonio Palopo	1	Enero	2023-06-01T00:00:00	2024-11-08T11:00:00	2	Temperatura media	20.6
146446	7	Sololá	712	San Antonio Palopó	9	San Antonio Palopo	1	Enero	2023-06-01T00:00:00	2024-11-08T11:00:00	4	Temperatura máxima	20.7
146447	7	Sololá	712	San Antonio Palopó	9	San Antonio Palopo	1	Enero	2023-06-01T00:00:00	2024-11-08T11:00:00	3	Temperatura mínima	19.8
146448	7	Sololá	712	San Antonio Palopó	9	San Antonio Palopo	1	Enero	2023-06-01T00:00:00	2024-11-08T11:00:00	5	Humedad	52
146449	7	Sololá	712	San Antonio Palopó	9	San Antonio Palopo	1	Enero	2023-06-01T00:00:00	2024-11-08T11:00:00	6	Velocidad del viento	4.8
146450	7	Sololá	712	San Antonio Palopó	9	San Antonio Palopo	1	Enero	2023-06-01T00:00:00	2024-11-08T11:00:00	7	Dirección del viento	4.83
146451	7	Sololá	712	San Antonio Palopó	9	San Antonio Palopo	1	Enero	2023-06-01T00:00:00	2024-11-08T11:00:00	1	Precipitación	0
146452	7	Sololá	712	San Antonio Palopó	9	San Antonio Palopo	1	Enero	2023-06-01T00:00:00	2024-11-08T11:00:00	8	Radiación solar	663
146453	7	Sololá	712	San Antonio Palopó	9	San Antonio Palopo	1	Enero	2023-06-01T00:00:00	2024-11-08T12:00:00	2	Temperatura media	22.3
146454	7	Sololá	712	San Antonio Palopó	9	San Antonio Palopo	1	Enero	2023-06-01T00:00:00	2024-11-08T12:00:00	4	Temperatura máxima	22.3
146455	7	Sololá	712	San Antonio Palopó	9	San Antonio Palopo	1	Enero	2023-06-01T00:00:00	2024-11-08T12:00:00	3	Temperatura mínima	20.3
146456	7	Sololá	712	San Antonio Palopó	9	San Antonio Palopo	1	Enero	2023-06-01T00:00:00	2024-11-08T12:00:00	5	Humedad	48
146457	7	Sololá	712	San Antonio Palopó	9	San Antonio Palopo	1	Enero	2023-06-01T00:00:00	2024-11-08T12:00:00	6	Velocidad del viento	8
146458	7	Sololá	712	San Antonio Palopó	9	San Antonio Palopo	1	Enero	2023-06-01T00:00:00	2024-11-08T12:00:00	7	Dirección del viento	8.05
146459	7	Sololá	712	San Antonio Palopó	9	San Antonio Palopo	1	Enero	2023-06-01T00:00:00	2024-11-08T12:00:00	1	Precipitación	0
146460	7	Sololá	712	San Antonio Palopó	9	San Antonio Palopo	1	Enero	2023-06-01T00:00:00	2024-11-08T12:00:00	8	Radiación solar	638
146461	7	Sololá	712	San Antonio Palopó	9	San Antonio Palopo	1	Enero	2023-06-01T00:00:00	2024-11-08T13:00:00	2	Temperatura media	22.5
146462	7	Sololá	712	San Antonio Palopó	9	San Antonio Palopo	1	Enero	2023-06-01T00:00:00	2024-11-08T13:00:00	4	Temperatura máxima	22.9
146463	7	Sololá	712	San Antonio Palopó	9	San Antonio Palopo	1	Enero	2023-06-01T00:00:00	2024-11-08T13:00:00	3	Temperatura mínima	21.8
146464	7	Sololá	712	San Antonio Palopó	9	San Antonio Palopo	1	Enero	2023-06-01T00:00:00	2024-11-08T13:00:00	5	Humedad	46
146465	7	Sololá	712	San Antonio Palopó	9	San Antonio Palopo	1	Enero	2023-06-01T00:00:00	2024-11-08T13:00:00	6	Velocidad del viento	9.7
146466	7	Sololá	712	San Antonio Palopó	9	San Antonio Palopo	1	Enero	2023-06-01T00:00:00	2024-11-08T13:00:00	7	Dirección del viento	9.66
146467	7	Sololá	712	San Antonio Palopó	9	San Antonio Palopo	1	Enero	2023-06-01T00:00:00	2024-11-08T13:00:00	1	Precipitación	0
146468	7	Sololá	712	San Antonio Palopó	9	San Antonio Palopo	1	Enero	2023-06-01T00:00:00	2024-11-08T13:00:00	8	Radiación solar	745
146469	7	Sololá	712	San Antonio Palopó	9	San Antonio Palopo	1	Enero	2023-06-01T00:00:00	2024-11-08T14:00:00	2	Temperatura media	23.7
146470	7	Sololá	712	San Antonio Palopó	9	San Antonio Palopo	1	Enero	2023-06-01T00:00:00	2024-11-08T14:00:00	4	Temperatura máxima	23.9
146471	7	Sololá	712	San Antonio Palopó	9	San Antonio Palopo	1	Enero	2023-06-01T00:00:00	2024-11-08T14:00:00	3	Temperatura mínima	22.4
146472	7	Sololá	712	San Antonio Palopó	9	San Antonio Palopo	1	Enero	2023-06-01T00:00:00	2024-11-08T14:00:00	5	Humedad	42
146473	7	Sololá	712	San Antonio Palopó	9	San Antonio Palopo	1	Enero	2023-06-01T00:00:00	2024-11-08T14:00:00	6	Velocidad del viento	8
146474	7	Sololá	712	San Antonio Palopó	9	San Antonio Palopo	1	Enero	2023-06-01T00:00:00	2024-11-08T14:00:00	7	Dirección del viento	8.05
146475	7	Sololá	712	San Antonio Palopó	9	San Antonio Palopo	1	Enero	2023-06-01T00:00:00	2024-11-08T14:00:00	1	Precipitación	0
146476	7	Sololá	712	San Antonio Palopó	9	San Antonio Palopo	1	Enero	2023-06-01T00:00:00	2024-11-08T14:00:00	8	Radiación solar	693
146477	7	Sololá	712	San Antonio Palopó	9	San Antonio Palopo	1	Enero	2023-06-01T00:00:00	2024-11-08T15:00:00	2	Temperatura media	23.6
146478	7	Sololá	712	San Antonio Palopó	9	San Antonio Palopo	1	Enero	2023-06-01T00:00:00	2024-11-08T15:00:00	4	Temperatura máxima	23.8
146479	7	Sololá	712	San Antonio Palopó	9	San Antonio Palopo	1	Enero	2023-06-01T00:00:00	2024-11-08T15:00:00	3	Temperatura mínima	22.9
146480	7	Sololá	712	San Antonio Palopó	9	San Antonio Palopo	1	Enero	2023-06-01T00:00:00	2024-11-08T15:00:00	5	Humedad	45
146481	7	Sololá	712	San Antonio Palopó	9	San Antonio Palopo	1	Enero	2023-06-01T00:00:00	2024-11-08T15:00:00	6	Velocidad del viento	12.9
146482	7	Sololá	712	San Antonio Palopó	9	San Antonio Palopo	1	Enero	2023-06-01T00:00:00	2024-11-08T15:00:00	7	Dirección del viento	12.87
146483	7	Sololá	712	San Antonio Palopó	9	San Antonio Palopo	1	Enero	2023-06-01T00:00:00	2024-11-08T15:00:00	1	Precipitación	0
146484	7	Sololá	712	San Antonio Palopó	9	San Antonio Palopo	1	Enero	2023-06-01T00:00:00	2024-11-08T15:00:00	8	Radiación solar	592
146485	7	Sololá	712	San Antonio Palopó	9	San Antonio Palopo	1	Enero	2023-06-01T00:00:00	2024-11-08T16:00:00	2	Temperatura media	22.4
146486	7	Sololá	712	San Antonio Palopó	9	San Antonio Palopo	1	Enero	2023-06-01T00:00:00	2024-11-08T16:00:00	4	Temperatura máxima	23.6
146487	7	Sololá	712	San Antonio Palopó	9	San Antonio Palopo	1	Enero	2023-06-01T00:00:00	2024-11-08T16:00:00	3	Temperatura mínima	22.4
146488	7	Sololá	712	San Antonio Palopó	9	San Antonio Palopo	1	Enero	2023-06-01T00:00:00	2024-11-08T16:00:00	5	Humedad	49
146489	7	Sololá	712	San Antonio Palopó	9	San Antonio Palopo	1	Enero	2023-06-01T00:00:00	2024-11-08T16:00:00	6	Velocidad del viento	12.9
146490	7	Sololá	712	San Antonio Palopó	9	San Antonio Palopo	1	Enero	2023-06-01T00:00:00	2024-11-08T16:00:00	7	Dirección del viento	12.87
146491	7	Sololá	712	San Antonio Palopó	9	San Antonio Palopo	1	Enero	2023-06-01T00:00:00	2024-11-08T16:00:00	1	Precipitación	0
146492	7	Sololá	712	San Antonio Palopó	9	San Antonio Palopo	1	Enero	2023-06-01T00:00:00	2024-11-08T16:00:00	8	Radiación solar	442
146493	7	Sololá	712	San Antonio Palopó	9	San Antonio Palopo	1	Enero	2023-06-01T00:00:00	2024-11-08T17:00:00	2	Temperatura media	20.7
146494	7	Sololá	712	San Antonio Palopó	9	San Antonio Palopo	1	Enero	2023-06-01T00:00:00	2024-11-08T17:00:00	4	Temperatura máxima	22.5
146495	7	Sololá	712	San Antonio Palopó	9	San Antonio Palopo	1	Enero	2023-06-01T00:00:00	2024-11-08T17:00:00	3	Temperatura mínima	20.7
146496	7	Sololá	712	San Antonio Palopó	9	San Antonio Palopo	1	Enero	2023-06-01T00:00:00	2024-11-08T17:00:00	5	Humedad	52
146497	7	Sololá	712	San Antonio Palopó	9	San Antonio Palopo	1	Enero	2023-06-01T00:00:00	2024-11-08T17:00:00	6	Velocidad del viento	9.7
146498	7	Sololá	712	San Antonio Palopó	9	San Antonio Palopo	1	Enero	2023-06-01T00:00:00	2024-11-08T17:00:00	7	Dirección del viento	9.66
146499	7	Sololá	712	San Antonio Palopó	9	San Antonio Palopo	1	Enero	2023-06-01T00:00:00	2024-11-08T17:00:00	1	Precipitación	0
146500	7	Sololá	712	San Antonio Palopó	9	San Antonio Palopo	1	Enero	2023-06-01T00:00:00	2024-11-08T17:00:00	8	Radiación solar	152
146501	7	Sololá	712	San Antonio Palopó	9	San Antonio Palopo	1	Enero	2023-06-01T00:00:00	2024-11-08T18:00:00	2	Temperatura media	19.2
146502	7	Sololá	712	San Antonio Palopó	9	San Antonio Palopo	1	Enero	2023-06-01T00:00:00	2024-11-08T18:00:00	4	Temperatura máxima	20.8
146503	7	Sololá	712	San Antonio Palopó	9	San Antonio Palopo	1	Enero	2023-06-01T00:00:00	2024-11-08T18:00:00	3	Temperatura mínima	19.2
146504	7	Sololá	712	San Antonio Palopó	9	San Antonio Palopo	1	Enero	2023-06-01T00:00:00	2024-11-08T18:00:00	5	Humedad	57
146505	7	Sololá	712	San Antonio Palopó	9	San Antonio Palopo	1	Enero	2023-06-01T00:00:00	2024-11-08T18:00:00	6	Velocidad del viento	6.4
146506	7	Sololá	712	San Antonio Palopó	9	San Antonio Palopo	1	Enero	2023-06-01T00:00:00	2024-11-08T18:00:00	7	Dirección del viento	6.44
146507	7	Sololá	712	San Antonio Palopó	9	San Antonio Palopo	1	Enero	2023-06-01T00:00:00	2024-11-08T18:00:00	1	Precipitación	0
146508	7	Sololá	712	San Antonio Palopó	9	San Antonio Palopo	1	Enero	2023-06-01T00:00:00	2024-11-08T18:00:00	8	Radiación solar	16
146509	7	Sololá	712	San Antonio Palopó	9	San Antonio Palopo	1	Enero	2023-06-01T00:00:00	2024-11-08T19:00:00	2	Temperatura media	17.9
146510	7	Sololá	712	San Antonio Palopó	9	San Antonio Palopo	1	Enero	2023-06-01T00:00:00	2024-11-08T19:00:00	4	Temperatura máxima	19.2
146511	7	Sololá	712	San Antonio Palopó	9	San Antonio Palopo	1	Enero	2023-06-01T00:00:00	2024-11-08T19:00:00	3	Temperatura mínima	17.9
146512	7	Sololá	712	San Antonio Palopó	9	San Antonio Palopo	1	Enero	2023-06-01T00:00:00	2024-11-08T19:00:00	5	Humedad	63
146513	7	Sololá	712	San Antonio Palopó	9	San Antonio Palopo	1	Enero	2023-06-01T00:00:00	2024-11-08T19:00:00	6	Velocidad del viento	6.4
146514	7	Sololá	712	San Antonio Palopó	9	San Antonio Palopo	1	Enero	2023-06-01T00:00:00	2024-11-08T19:00:00	7	Dirección del viento	6.44
146515	7	Sololá	712	San Antonio Palopó	9	San Antonio Palopo	1	Enero	2023-06-01T00:00:00	2024-11-08T19:00:00	1	Precipitación	0
146516	7	Sololá	712	San Antonio Palopó	9	San Antonio Palopo	1	Enero	2023-06-01T00:00:00	2024-11-08T19:00:00	8	Radiación solar	0
146517	7	Sololá	712	San Antonio Palopó	9	San Antonio Palopo	1	Enero	2023-06-01T00:00:00	2024-11-08T20:00:00	2	Temperatura media	17
146518	7	Sololá	712	San Antonio Palopó	9	San Antonio Palopo	1	Enero	2023-06-01T00:00:00	2024-11-08T20:00:00	4	Temperatura máxima	17.9
146519	7	Sololá	712	San Antonio Palopó	9	San Antonio Palopo	1	Enero	2023-06-01T00:00:00	2024-11-08T20:00:00	3	Temperatura mínima	17
146520	7	Sololá	712	San Antonio Palopó	9	San Antonio Palopo	1	Enero	2023-06-01T00:00:00	2024-11-08T20:00:00	5	Humedad	66
146521	7	Sololá	712	San Antonio Palopó	9	San Antonio Palopo	1	Enero	2023-06-01T00:00:00	2024-11-08T20:00:00	6	Velocidad del viento	6.4
146522	7	Sololá	712	San Antonio Palopó	9	San Antonio Palopo	1	Enero	2023-06-01T00:00:00	2024-11-08T20:00:00	7	Dirección del viento	6.44
146523	7	Sololá	712	San Antonio Palopó	9	San Antonio Palopo	1	Enero	2023-06-01T00:00:00	2024-11-08T20:00:00	1	Precipitación	0
146524	7	Sololá	712	San Antonio Palopó	9	San Antonio Palopo	1	Enero	2023-06-01T00:00:00	2024-11-08T20:00:00	8	Radiación solar	0
146525	7	Sololá	712	San Antonio Palopó	9	San Antonio Palopo	1	Enero	2023-06-01T00:00:00	2024-11-08T21:00:00	2	Temperatura media	16.6
146526	7	Sololá	712	San Antonio Palopó	9	San Antonio Palopo	1	Enero	2023-06-01T00:00:00	2024-11-08T21:00:00	4	Temperatura máxima	17
146527	7	Sololá	712	San Antonio Palopó	9	San Antonio Palopo	1	Enero	2023-06-01T00:00:00	2024-11-08T21:00:00	3	Temperatura mínima	16.6
146528	7	Sololá	712	San Antonio Palopó	9	San Antonio Palopo	1	Enero	2023-06-01T00:00:00	2024-11-08T21:00:00	5	Humedad	66
146529	7	Sololá	712	San Antonio Palopó	9	San Antonio Palopo	1	Enero	2023-06-01T00:00:00	2024-11-08T21:00:00	6	Velocidad del viento	8
146530	7	Sololá	712	San Antonio Palopó	9	San Antonio Palopo	1	Enero	2023-06-01T00:00:00	2024-11-08T21:00:00	7	Dirección del viento	8.05
146531	7	Sololá	712	San Antonio Palopó	9	San Antonio Palopo	1	Enero	2023-06-01T00:00:00	2024-11-08T21:00:00	1	Precipitación	0
146532	7	Sololá	712	San Antonio Palopó	9	San Antonio Palopo	1	Enero	2023-06-01T00:00:00	2024-11-08T21:00:00	8	Radiación solar	0
146533	7	Sololá	712	San Antonio Palopó	9	San Antonio Palopo	1	Enero	2023-06-01T00:00:00	2024-11-08T22:00:00	2	Temperatura media	16.4
146534	7	Sololá	712	San Antonio Palopó	9	San Antonio Palopo	1	Enero	2023-06-01T00:00:00	2024-11-08T22:00:00	4	Temperatura máxima	16.8
146535	7	Sololá	712	San Antonio Palopó	9	San Antonio Palopo	1	Enero	2023-06-01T00:00:00	2024-11-08T22:00:00	3	Temperatura mínima	16.3
146536	7	Sololá	712	San Antonio Palopó	9	San Antonio Palopo	1	Enero	2023-06-01T00:00:00	2024-11-08T22:00:00	5	Humedad	67
146537	7	Sololá	712	San Antonio Palopó	9	San Antonio Palopo	1	Enero	2023-06-01T00:00:00	2024-11-08T22:00:00	6	Velocidad del viento	6.4
146538	7	Sololá	712	San Antonio Palopó	9	San Antonio Palopo	1	Enero	2023-06-01T00:00:00	2024-11-08T22:00:00	7	Dirección del viento	6.44
146539	7	Sololá	712	San Antonio Palopó	9	San Antonio Palopo	1	Enero	2023-06-01T00:00:00	2024-11-08T22:00:00	1	Precipitación	0
146540	7	Sololá	712	San Antonio Palopó	9	San Antonio Palopo	1	Enero	2023-06-01T00:00:00	2024-11-08T22:00:00	8	Radiación solar	0
146541	7	Sololá	712	San Antonio Palopó	9	San Antonio Palopo	1	Enero	2023-06-01T00:00:00	2024-11-08T23:00:00	2	Temperatura media	16.4
146542	7	Sololá	712	San Antonio Palopó	9	San Antonio Palopo	1	Enero	2023-06-01T00:00:00	2024-11-08T23:00:00	4	Temperatura máxima	16.7
146543	7	Sololá	712	San Antonio Palopó	9	San Antonio Palopo	1	Enero	2023-06-01T00:00:00	2024-11-08T23:00:00	3	Temperatura mínima	16.3
146544	7	Sololá	712	San Antonio Palopó	9	San Antonio Palopo	1	Enero	2023-06-01T00:00:00	2024-11-08T23:00:00	5	Humedad	69
146545	7	Sololá	712	San Antonio Palopó	9	San Antonio Palopo	1	Enero	2023-06-01T00:00:00	2024-11-08T23:00:00	6	Velocidad del viento	6.4
146546	7	Sololá	712	San Antonio Palopó	9	San Antonio Palopo	1	Enero	2023-06-01T00:00:00	2024-11-08T23:00:00	7	Dirección del viento	6.44
146547	7	Sololá	712	San Antonio Palopó	9	San Antonio Palopo	1	Enero	2023-06-01T00:00:00	2024-11-08T23:00:00	1	Precipitación	0
146548	7	Sololá	712	San Antonio Palopó	9	San Antonio Palopo	1	Enero	2023-06-01T00:00:00	2024-11-08T23:00:00	8	Radiación solar	0
146549	7	Sololá	712	San Antonio Palopó	9	San Antonio Palopo	1	Enero	2023-07-01T00:00:00	2024-11-08T00:00:00	2	Temperatura media	16.2
146550	7	Sololá	712	San Antonio Palopó	9	San Antonio Palopo	1	Enero	2023-07-01T00:00:00	2024-11-08T00:00:00	4	Temperatura máxima	16.6
146551	7	Sololá	712	San Antonio Palopó	9	San Antonio Palopo	1	Enero	2023-07-01T00:00:00	2024-11-08T00:00:00	3	Temperatura mínima	16.1
146552	7	Sololá	712	San Antonio Palopó	9	San Antonio Palopo	1	Enero	2023-07-01T00:00:00	2024-11-08T00:00:00	5	Humedad	69
146553	7	Sololá	712	San Antonio Palopó	9	San Antonio Palopo	1	Enero	2023-07-01T00:00:00	2024-11-08T00:00:00	6	Velocidad del viento	4.8
146554	7	Sololá	712	San Antonio Palopó	9	San Antonio Palopo	1	Enero	2023-07-01T00:00:00	2024-11-08T00:00:00	7	Dirección del viento	4.83
146555	7	Sololá	712	San Antonio Palopó	9	San Antonio Palopo	1	Enero	2023-07-01T00:00:00	2024-11-08T00:00:00	1	Precipitación	0
146556	7	Sololá	712	San Antonio Palopó	9	San Antonio Palopo	1	Enero	2023-07-01T00:00:00	2024-11-08T00:00:00	8	Radiación solar	0
146557	7	Sololá	712	San Antonio Palopó	9	San Antonio Palopo	1	Enero	2023-07-01T00:00:00	2024-11-08T01:00:00	2	Temperatura media	16.5
146558	7	Sololá	712	San Antonio Palopó	9	San Antonio Palopo	1	Enero	2023-07-01T00:00:00	2024-11-08T01:00:00	4	Temperatura máxima	16.7
146559	7	Sololá	712	San Antonio Palopó	9	San Antonio Palopo	1	Enero	2023-07-01T00:00:00	2024-11-08T01:00:00	3	Temperatura mínima	16.1
146560	7	Sololá	712	San Antonio Palopó	9	San Antonio Palopo	1	Enero	2023-07-01T00:00:00	2024-11-08T01:00:00	5	Humedad	68
146561	7	Sololá	712	San Antonio Palopó	9	San Antonio Palopo	1	Enero	2023-07-01T00:00:00	2024-11-08T01:00:00	6	Velocidad del viento	4.8
146562	7	Sololá	712	San Antonio Palopó	9	San Antonio Palopo	1	Enero	2023-07-01T00:00:00	2024-11-08T01:00:00	7	Dirección del viento	4.83
146563	7	Sololá	712	San Antonio Palopó	9	San Antonio Palopo	1	Enero	2023-07-01T00:00:00	2024-11-08T01:00:00	1	Precipitación	0
146564	7	Sololá	712	San Antonio Palopó	9	San Antonio Palopo	1	Enero	2023-07-01T00:00:00	2024-11-08T01:00:00	8	Radiación solar	0
146565	7	Sololá	712	San Antonio Palopó	9	San Antonio Palopo	1	Enero	2023-07-01T00:00:00	2024-11-08T02:00:00	2	Temperatura media	16.7
146566	7	Sololá	712	San Antonio Palopó	9	San Antonio Palopo	1	Enero	2023-07-01T00:00:00	2024-11-08T02:00:00	4	Temperatura máxima	17
146567	7	Sololá	712	San Antonio Palopó	9	San Antonio Palopo	1	Enero	2023-07-01T00:00:00	2024-11-08T02:00:00	3	Temperatura mínima	16.5
146568	7	Sololá	712	San Antonio Palopó	9	San Antonio Palopo	1	Enero	2023-07-01T00:00:00	2024-11-08T02:00:00	5	Humedad	68
146569	7	Sololá	712	San Antonio Palopó	9	San Antonio Palopo	1	Enero	2023-07-01T00:00:00	2024-11-08T02:00:00	6	Velocidad del viento	9.7
146570	7	Sololá	712	San Antonio Palopó	9	San Antonio Palopo	1	Enero	2023-07-01T00:00:00	2024-11-08T02:00:00	7	Dirección del viento	9.66
146571	7	Sololá	712	San Antonio Palopó	9	San Antonio Palopo	1	Enero	2023-07-01T00:00:00	2024-11-08T02:00:00	1	Precipitación	0
146572	7	Sololá	712	San Antonio Palopó	9	San Antonio Palopo	1	Enero	2023-07-01T00:00:00	2024-11-08T02:00:00	8	Radiación solar	0
146573	7	Sololá	712	San Antonio Palopó	9	San Antonio Palopo	1	Enero	2023-07-01T00:00:00	2024-11-08T03:00:00	2	Temperatura media	16.6
146574	7	Sololá	712	San Antonio Palopó	9	San Antonio Palopo	1	Enero	2023-07-01T00:00:00	2024-11-08T03:00:00	4	Temperatura máxima	16.7
146575	7	Sololá	712	San Antonio Palopó	9	San Antonio Palopo	1	Enero	2023-07-01T00:00:00	2024-11-08T03:00:00	3	Temperatura mínima	16.4
146576	7	Sololá	712	San Antonio Palopó	9	San Antonio Palopo	1	Enero	2023-07-01T00:00:00	2024-11-08T03:00:00	5	Humedad	70
146577	7	Sololá	712	San Antonio Palopó	9	San Antonio Palopo	1	Enero	2023-07-01T00:00:00	2024-11-08T03:00:00	6	Velocidad del viento	8
146578	7	Sololá	712	San Antonio Palopó	9	San Antonio Palopo	1	Enero	2023-07-01T00:00:00	2024-11-08T03:00:00	7	Dirección del viento	8.05
146579	7	Sololá	712	San Antonio Palopó	9	San Antonio Palopo	1	Enero	2023-07-01T00:00:00	2024-11-08T03:00:00	1	Precipitación	0
146580	7	Sololá	712	San Antonio Palopó	9	San Antonio Palopo	1	Enero	2023-07-01T00:00:00	2024-11-08T03:00:00	8	Radiación solar	0
146581	7	Sololá	712	San Antonio Palopó	9	San Antonio Palopo	1	Enero	2023-07-01T00:00:00	2024-11-08T04:00:00	2	Temperatura media	16.4
146582	7	Sololá	712	San Antonio Palopó	9	San Antonio Palopo	1	Enero	2023-07-01T00:00:00	2024-11-08T04:00:00	4	Temperatura máxima	16.6
146583	7	Sololá	712	San Antonio Palopó	9	San Antonio Palopo	1	Enero	2023-07-01T00:00:00	2024-11-08T04:00:00	3	Temperatura mínima	16.1
146584	7	Sololá	712	San Antonio Palopó	9	San Antonio Palopo	1	Enero	2023-07-01T00:00:00	2024-11-08T04:00:00	5	Humedad	70
146585	7	Sololá	712	San Antonio Palopó	9	San Antonio Palopo	1	Enero	2023-07-01T00:00:00	2024-11-08T04:00:00	6	Velocidad del viento	9.7
146586	7	Sololá	712	San Antonio Palopó	9	San Antonio Palopo	1	Enero	2023-07-01T00:00:00	2024-11-08T04:00:00	7	Dirección del viento	9.66
146587	7	Sololá	712	San Antonio Palopó	9	San Antonio Palopo	1	Enero	2023-07-01T00:00:00	2024-11-08T04:00:00	1	Precipitación	0
146588	7	Sololá	712	San Antonio Palopó	9	San Antonio Palopo	1	Enero	2023-07-01T00:00:00	2024-11-08T04:00:00	8	Radiación solar	0
146589	7	Sololá	712	San Antonio Palopó	9	San Antonio Palopo	1	Enero	2023-07-01T00:00:00	2024-11-08T05:00:00	2	Temperatura media	16.7
146590	7	Sololá	712	San Antonio Palopó	9	San Antonio Palopo	1	Enero	2023-07-01T00:00:00	2024-11-08T05:00:00	4	Temperatura máxima	16.8
146591	7	Sololá	712	San Antonio Palopó	9	San Antonio Palopo	1	Enero	2023-07-01T00:00:00	2024-11-08T05:00:00	3	Temperatura mínima	16.4
146592	7	Sololá	712	San Antonio Palopó	9	San Antonio Palopo	1	Enero	2023-07-01T00:00:00	2024-11-08T05:00:00	5	Humedad	68
146593	7	Sololá	712	San Antonio Palopó	9	San Antonio Palopo	1	Enero	2023-07-01T00:00:00	2024-11-08T05:00:00	6	Velocidad del viento	6.4
146594	7	Sololá	712	San Antonio Palopó	9	San Antonio Palopo	1	Enero	2023-07-01T00:00:00	2024-11-08T05:00:00	7	Dirección del viento	6.44
146595	7	Sololá	712	San Antonio Palopó	9	San Antonio Palopo	1	Enero	2023-07-01T00:00:00	2024-11-08T05:00:00	1	Precipitación	0
146596	7	Sololá	712	San Antonio Palopó	9	San Antonio Palopo	1	Enero	2023-07-01T00:00:00	2024-11-08T05:00:00	8	Radiación solar	0
146597	7	Sololá	712	San Antonio Palopó	9	San Antonio Palopo	1	Enero	2023-07-01T00:00:00	2024-11-08T06:00:00	2	Temperatura media	16.2
146598	7	Sololá	712	San Antonio Palopó	9	San Antonio Palopo	1	Enero	2023-07-01T00:00:00	2024-11-08T06:00:00	4	Temperatura máxima	16.8
146599	7	Sololá	712	San Antonio Palopó	9	San Antonio Palopo	1	Enero	2023-07-01T00:00:00	2024-11-08T06:00:00	3	Temperatura mínima	16.2
146600	7	Sololá	712	San Antonio Palopó	9	San Antonio Palopo	1	Enero	2023-07-01T00:00:00	2024-11-08T06:00:00	5	Humedad	71
146601	7	Sololá	712	San Antonio Palopó	9	San Antonio Palopo	1	Enero	2023-07-01T00:00:00	2024-11-08T06:00:00	6	Velocidad del viento	16.1
146602	7	Sololá	712	San Antonio Palopó	9	San Antonio Palopo	1	Enero	2023-07-01T00:00:00	2024-11-08T06:00:00	7	Dirección del viento	16.09
146603	7	Sololá	712	San Antonio Palopó	9	San Antonio Palopo	1	Enero	2023-07-01T00:00:00	2024-11-08T06:00:00	1	Precipitación	0
146604	7	Sololá	712	San Antonio Palopó	9	San Antonio Palopo	1	Enero	2023-07-01T00:00:00	2024-11-08T06:00:00	8	Radiación solar	0
146605	7	Sololá	712	San Antonio Palopó	9	San Antonio Palopo	1	Enero	2023-07-01T00:00:00	2024-11-08T07:00:00	2	Temperatura media	16.2
146606	7	Sololá	712	San Antonio Palopó	9	San Antonio Palopo	1	Enero	2023-07-01T00:00:00	2024-11-08T07:00:00	4	Temperatura máxima	16.6
146607	7	Sololá	712	San Antonio Palopó	9	San Antonio Palopo	1	Enero	2023-07-01T00:00:00	2024-11-08T07:00:00	3	Temperatura mínima	16.1
146608	7	Sololá	712	San Antonio Palopó	9	San Antonio Palopo	1	Enero	2023-07-01T00:00:00	2024-11-08T07:00:00	5	Humedad	71
146609	7	Sololá	712	San Antonio Palopó	9	San Antonio Palopo	1	Enero	2023-07-01T00:00:00	2024-11-08T07:00:00	6	Velocidad del viento	14.5
146610	7	Sololá	712	San Antonio Palopó	9	San Antonio Palopo	1	Enero	2023-07-01T00:00:00	2024-11-08T07:00:00	7	Dirección del viento	14.48
146611	7	Sololá	712	San Antonio Palopó	9	San Antonio Palopo	1	Enero	2023-07-01T00:00:00	2024-11-08T07:00:00	1	Precipitación	0
146612	7	Sololá	712	San Antonio Palopó	9	San Antonio Palopo	1	Enero	2023-07-01T00:00:00	2024-11-08T07:00:00	8	Radiación solar	5
146613	7	Sololá	712	San Antonio Palopó	9	San Antonio Palopo	1	Enero	2023-07-01T00:00:00	2024-11-08T08:00:00	2	Temperatura media	17.6
146614	7	Sololá	712	San Antonio Palopó	9	San Antonio Palopo	1	Enero	2023-07-01T00:00:00	2024-11-08T08:00:00	4	Temperatura máxima	17.6
146615	7	Sololá	712	San Antonio Palopó	9	San Antonio Palopo	1	Enero	2023-07-01T00:00:00	2024-11-08T08:00:00	3	Temperatura mínima	16.1
146616	7	Sololá	712	San Antonio Palopó	9	San Antonio Palopo	1	Enero	2023-07-01T00:00:00	2024-11-08T08:00:00	5	Humedad	65
146617	7	Sololá	712	San Antonio Palopó	9	San Antonio Palopo	1	Enero	2023-07-01T00:00:00	2024-11-08T08:00:00	6	Velocidad del viento	17.7
146618	7	Sololá	712	San Antonio Palopó	9	San Antonio Palopo	1	Enero	2023-07-01T00:00:00	2024-11-08T08:00:00	7	Dirección del viento	17.7
146619	7	Sololá	712	San Antonio Palopó	9	San Antonio Palopo	1	Enero	2023-07-01T00:00:00	2024-11-08T08:00:00	1	Precipitación	0
146620	7	Sololá	712	San Antonio Palopó	9	San Antonio Palopo	1	Enero	2023-07-01T00:00:00	2024-11-08T08:00:00	8	Radiación solar	36
146621	7	Sololá	712	San Antonio Palopó	9	San Antonio Palopo	1	Enero	2023-07-01T00:00:00	2024-11-08T09:00:00	2	Temperatura media	19.3
146622	7	Sololá	712	San Antonio Palopó	9	San Antonio Palopo	1	Enero	2023-07-01T00:00:00	2024-11-08T09:00:00	4	Temperatura máxima	19.4
146623	7	Sololá	712	San Antonio Palopó	9	San Antonio Palopo	1	Enero	2023-07-01T00:00:00	2024-11-08T09:00:00	3	Temperatura mínima	17.5
146624	7	Sololá	712	San Antonio Palopó	9	San Antonio Palopo	1	Enero	2023-07-01T00:00:00	2024-11-08T09:00:00	5	Humedad	57
146625	7	Sololá	712	San Antonio Palopó	9	San Antonio Palopo	1	Enero	2023-07-01T00:00:00	2024-11-08T09:00:00	6	Velocidad del viento	12.9
146626	7	Sololá	712	San Antonio Palopó	9	San Antonio Palopo	1	Enero	2023-07-01T00:00:00	2024-11-08T09:00:00	7	Dirección del viento	12.87
146627	7	Sololá	712	San Antonio Palopó	9	San Antonio Palopo	1	Enero	2023-07-01T00:00:00	2024-11-08T09:00:00	1	Precipitación	0
146628	7	Sololá	712	San Antonio Palopó	9	San Antonio Palopo	1	Enero	2023-07-01T00:00:00	2024-11-08T09:00:00	8	Radiación solar	130
146629	7	Sololá	712	San Antonio Palopó	9	San Antonio Palopo	1	Enero	2023-07-01T00:00:00	2024-11-08T10:00:00	2	Temperatura media	20.8
146630	7	Sololá	712	San Antonio Palopó	9	San Antonio Palopo	1	Enero	2023-07-01T00:00:00	2024-11-08T10:00:00	4	Temperatura máxima	20.8
146631	7	Sololá	712	San Antonio Palopó	9	San Antonio Palopo	1	Enero	2023-07-01T00:00:00	2024-11-08T10:00:00	3	Temperatura mínima	19.3
146632	7	Sololá	712	San Antonio Palopó	9	San Antonio Palopo	1	Enero	2023-07-01T00:00:00	2024-11-08T10:00:00	5	Humedad	53
146633	7	Sololá	712	San Antonio Palopó	9	San Antonio Palopo	1	Enero	2023-07-01T00:00:00	2024-11-08T10:00:00	6	Velocidad del viento	9.7
146634	7	Sololá	712	San Antonio Palopó	9	San Antonio Palopo	1	Enero	2023-07-01T00:00:00	2024-11-08T10:00:00	7	Dirección del viento	9.66
146635	7	Sololá	712	San Antonio Palopó	9	San Antonio Palopo	1	Enero	2023-07-01T00:00:00	2024-11-08T10:00:00	1	Precipitación	0
146636	7	Sololá	712	San Antonio Palopó	9	San Antonio Palopo	1	Enero	2023-07-01T00:00:00	2024-11-08T10:00:00	8	Radiación solar	511
146637	7	Sololá	712	San Antonio Palopó	9	San Antonio Palopo	1	Enero	2023-07-01T00:00:00	2024-11-08T11:00:00	2	Temperatura media	21
146638	7	Sololá	712	San Antonio Palopó	9	San Antonio Palopo	1	Enero	2023-07-01T00:00:00	2024-11-08T11:00:00	4	Temperatura máxima	21.1
146639	7	Sololá	712	San Antonio Palopó	9	San Antonio Palopo	1	Enero	2023-07-01T00:00:00	2024-11-08T11:00:00	3	Temperatura mínima	20
146640	7	Sololá	712	San Antonio Palopó	9	San Antonio Palopo	1	Enero	2023-07-01T00:00:00	2024-11-08T11:00:00	5	Humedad	55
146641	7	Sololá	712	San Antonio Palopó	9	San Antonio Palopo	1	Enero	2023-07-01T00:00:00	2024-11-08T11:00:00	6	Velocidad del viento	17.7
146642	7	Sololá	712	San Antonio Palopó	9	San Antonio Palopo	1	Enero	2023-07-01T00:00:00	2024-11-08T11:00:00	7	Dirección del viento	17.7
146643	7	Sololá	712	San Antonio Palopó	9	San Antonio Palopo	1	Enero	2023-07-01T00:00:00	2024-11-08T11:00:00	1	Precipitación	0
146644	7	Sololá	712	San Antonio Palopó	9	San Antonio Palopo	1	Enero	2023-07-01T00:00:00	2024-11-08T11:00:00	8	Radiación solar	591
146645	7	Sololá	712	San Antonio Palopó	9	San Antonio Palopo	1	Enero	2023-07-01T00:00:00	2024-11-08T12:00:00	2	Temperatura media	22.3
146646	7	Sololá	712	San Antonio Palopó	9	San Antonio Palopo	1	Enero	2023-07-01T00:00:00	2024-11-08T12:00:00	4	Temperatura máxima	22.3
146647	7	Sololá	712	San Antonio Palopó	9	San Antonio Palopo	1	Enero	2023-07-01T00:00:00	2024-11-08T12:00:00	3	Temperatura mínima	20.7
146648	7	Sololá	712	San Antonio Palopó	9	San Antonio Palopo	1	Enero	2023-07-01T00:00:00	2024-11-08T12:00:00	5	Humedad	53
146649	7	Sololá	712	San Antonio Palopó	9	San Antonio Palopo	1	Enero	2023-07-01T00:00:00	2024-11-08T12:00:00	6	Velocidad del viento	14.5
146650	7	Sololá	712	San Antonio Palopó	9	San Antonio Palopo	1	Enero	2023-07-01T00:00:00	2024-11-08T12:00:00	7	Dirección del viento	14.48
146651	7	Sololá	712	San Antonio Palopó	9	San Antonio Palopo	1	Enero	2023-07-01T00:00:00	2024-11-08T12:00:00	1	Precipitación	0
146652	7	Sololá	712	San Antonio Palopó	9	San Antonio Palopo	1	Enero	2023-07-01T00:00:00	2024-11-08T12:00:00	8	Radiación solar	681
146653	7	Sololá	712	San Antonio Palopó	9	San Antonio Palopo	1	Enero	2023-07-01T00:00:00	2024-11-08T13:00:00	2	Temperatura media	22.7
146654	7	Sololá	712	San Antonio Palopó	9	San Antonio Palopo	1	Enero	2023-07-01T00:00:00	2024-11-08T13:00:00	4	Temperatura máxima	23.2
146655	7	Sololá	712	San Antonio Palopó	9	San Antonio Palopo	1	Enero	2023-07-01T00:00:00	2024-11-08T13:00:00	3	Temperatura mínima	21.7
146656	7	Sololá	712	San Antonio Palopó	9	San Antonio Palopo	1	Enero	2023-07-01T00:00:00	2024-11-08T13:00:00	5	Humedad	50
146657	7	Sololá	712	San Antonio Palopó	9	San Antonio Palopo	1	Enero	2023-07-01T00:00:00	2024-11-08T13:00:00	6	Velocidad del viento	12.9
146658	7	Sololá	712	San Antonio Palopó	9	San Antonio Palopo	1	Enero	2023-07-01T00:00:00	2024-11-08T13:00:00	7	Dirección del viento	12.87
146659	7	Sololá	712	San Antonio Palopó	9	San Antonio Palopo	1	Enero	2023-07-01T00:00:00	2024-11-08T13:00:00	1	Precipitación	0
146660	7	Sololá	712	San Antonio Palopó	9	San Antonio Palopo	1	Enero	2023-07-01T00:00:00	2024-11-08T13:00:00	8	Radiación solar	791
146661	7	Sololá	712	San Antonio Palopó	9	San Antonio Palopo	1	Enero	2023-07-01T00:00:00	2024-11-08T14:00:00	2	Temperatura media	21.4
146662	7	Sololá	712	San Antonio Palopó	9	San Antonio Palopo	1	Enero	2023-07-01T00:00:00	2024-11-08T14:00:00	4	Temperatura máxima	22.8
146663	7	Sololá	712	San Antonio Palopó	9	San Antonio Palopo	1	Enero	2023-07-01T00:00:00	2024-11-08T14:00:00	3	Temperatura mínima	21.3
146664	7	Sololá	712	San Antonio Palopó	9	San Antonio Palopo	1	Enero	2023-07-01T00:00:00	2024-11-08T14:00:00	5	Humedad	53
146665	7	Sololá	712	San Antonio Palopó	9	San Antonio Palopo	1	Enero	2023-07-01T00:00:00	2024-11-08T14:00:00	6	Velocidad del viento	12.9
146666	7	Sololá	712	San Antonio Palopó	9	San Antonio Palopo	1	Enero	2023-07-01T00:00:00	2024-11-08T14:00:00	7	Dirección del viento	12.87
146667	7	Sololá	712	San Antonio Palopó	9	San Antonio Palopo	1	Enero	2023-07-01T00:00:00	2024-11-08T14:00:00	1	Precipitación	0
146668	7	Sololá	712	San Antonio Palopó	9	San Antonio Palopo	1	Enero	2023-07-01T00:00:00	2024-11-08T14:00:00	8	Radiación solar	314
146669	7	Sololá	712	San Antonio Palopó	9	San Antonio Palopo	1	Enero	2023-07-01T00:00:00	2024-11-08T15:00:00	2	Temperatura media	21.4
146670	7	Sololá	712	San Antonio Palopó	9	San Antonio Palopo	1	Enero	2023-07-01T00:00:00	2024-11-08T15:00:00	4	Temperatura máxima	21.8
146671	7	Sololá	712	San Antonio Palopó	9	San Antonio Palopo	1	Enero	2023-07-01T00:00:00	2024-11-08T15:00:00	3	Temperatura mínima	21.3
146672	7	Sololá	712	San Antonio Palopó	9	San Antonio Palopo	1	Enero	2023-07-01T00:00:00	2024-11-08T15:00:00	5	Humedad	54
146673	7	Sololá	712	San Antonio Palopó	9	San Antonio Palopo	1	Enero	2023-07-01T00:00:00	2024-11-08T15:00:00	6	Velocidad del viento	9.7
146674	7	Sololá	712	San Antonio Palopó	9	San Antonio Palopo	1	Enero	2023-07-01T00:00:00	2024-11-08T15:00:00	7	Dirección del viento	9.66
146675	7	Sololá	712	San Antonio Palopó	9	San Antonio Palopo	1	Enero	2023-07-01T00:00:00	2024-11-08T15:00:00	1	Precipitación	0
146676	7	Sololá	712	San Antonio Palopó	9	San Antonio Palopo	1	Enero	2023-07-01T00:00:00	2024-11-08T15:00:00	8	Radiación solar	281
146677	7	Sololá	712	San Antonio Palopó	9	San Antonio Palopo	1	Enero	2023-07-01T00:00:00	2024-11-08T16:00:00	2	Temperatura media	21.3
146678	7	Sololá	712	San Antonio Palopó	9	San Antonio Palopo	1	Enero	2023-07-01T00:00:00	2024-11-08T16:00:00	4	Temperatura máxima	22.3
146679	7	Sololá	712	San Antonio Palopó	9	San Antonio Palopo	1	Enero	2023-07-01T00:00:00	2024-11-08T16:00:00	3	Temperatura mínima	20.8
146680	7	Sololá	712	San Antonio Palopó	9	San Antonio Palopo	1	Enero	2023-07-01T00:00:00	2024-11-08T16:00:00	5	Humedad	55
146681	7	Sololá	712	San Antonio Palopó	9	San Antonio Palopo	1	Enero	2023-07-01T00:00:00	2024-11-08T16:00:00	6	Velocidad del viento	11.3
146682	7	Sololá	712	San Antonio Palopó	9	San Antonio Palopo	1	Enero	2023-07-01T00:00:00	2024-11-08T16:00:00	7	Dirección del viento	11.27
146683	7	Sololá	712	San Antonio Palopó	9	San Antonio Palopo	1	Enero	2023-07-01T00:00:00	2024-11-08T16:00:00	1	Precipitación	0
146684	7	Sololá	712	San Antonio Palopó	9	San Antonio Palopo	1	Enero	2023-07-01T00:00:00	2024-11-08T16:00:00	8	Radiación solar	253
146685	7	Sololá	712	San Antonio Palopó	9	San Antonio Palopo	1	Enero	2023-07-01T00:00:00	2024-11-08T17:00:00	2	Temperatura media	21.1
146686	7	Sololá	712	San Antonio Palopó	9	San Antonio Palopo	1	Enero	2023-07-01T00:00:00	2024-11-08T17:00:00	4	Temperatura máxima	21.6
146687	7	Sololá	712	San Antonio Palopó	9	San Antonio Palopo	1	Enero	2023-07-01T00:00:00	2024-11-08T17:00:00	3	Temperatura mínima	20.6
146688	7	Sololá	712	San Antonio Palopó	9	San Antonio Palopo	1	Enero	2023-07-01T00:00:00	2024-11-08T17:00:00	5	Humedad	57
146689	7	Sololá	712	San Antonio Palopó	9	San Antonio Palopo	1	Enero	2023-07-01T00:00:00	2024-11-08T17:00:00	6	Velocidad del viento	14.5
146690	7	Sololá	712	San Antonio Palopó	9	San Antonio Palopo	1	Enero	2023-07-01T00:00:00	2024-11-08T17:00:00	7	Dirección del viento	14.48
146691	7	Sololá	712	San Antonio Palopó	9	San Antonio Palopo	1	Enero	2023-07-01T00:00:00	2024-11-08T17:00:00	1	Precipitación	0
146692	7	Sololá	712	San Antonio Palopó	9	San Antonio Palopo	1	Enero	2023-07-01T00:00:00	2024-11-08T17:00:00	8	Radiación solar	128
146693	7	Sololá	712	San Antonio Palopó	9	San Antonio Palopo	1	Enero	2023-07-01T00:00:00	2024-11-08T18:00:00	2	Temperatura media	19.7
146694	7	Sololá	712	San Antonio Palopó	9	San Antonio Palopo	1	Enero	2023-07-01T00:00:00	2024-11-08T18:00:00	4	Temperatura máxima	21.5
146695	7	Sololá	712	San Antonio Palopó	9	San Antonio Palopo	1	Enero	2023-07-01T00:00:00	2024-11-08T18:00:00	3	Temperatura mínima	19.7
146696	7	Sololá	712	San Antonio Palopó	9	San Antonio Palopo	1	Enero	2023-07-01T00:00:00	2024-11-08T18:00:00	5	Humedad	61
146697	7	Sololá	712	San Antonio Palopó	9	San Antonio Palopo	1	Enero	2023-07-01T00:00:00	2024-11-08T18:00:00	6	Velocidad del viento	11.3
146698	7	Sololá	712	San Antonio Palopó	9	San Antonio Palopo	1	Enero	2023-07-01T00:00:00	2024-11-08T18:00:00	7	Dirección del viento	11.27
146699	7	Sololá	712	San Antonio Palopó	9	San Antonio Palopo	1	Enero	2023-07-01T00:00:00	2024-11-08T18:00:00	1	Precipitación	0
146700	7	Sololá	712	San Antonio Palopó	9	San Antonio Palopo	1	Enero	2023-07-01T00:00:00	2024-11-08T18:00:00	8	Radiación solar	26
146701	7	Sololá	712	San Antonio Palopó	9	San Antonio Palopo	1	Enero	2023-07-01T00:00:00	2024-11-08T19:00:00	2	Temperatura media	18.3
146702	7	Sololá	712	San Antonio Palopó	9	San Antonio Palopo	1	Enero	2023-07-01T00:00:00	2024-11-08T19:00:00	4	Temperatura máxima	19.7
146703	7	Sololá	712	San Antonio Palopó	9	San Antonio Palopo	1	Enero	2023-07-01T00:00:00	2024-11-08T19:00:00	3	Temperatura mínima	18.3
146704	7	Sololá	712	San Antonio Palopó	9	San Antonio Palopo	1	Enero	2023-07-01T00:00:00	2024-11-08T19:00:00	5	Humedad	66
146705	7	Sololá	712	San Antonio Palopó	9	San Antonio Palopo	1	Enero	2023-07-01T00:00:00	2024-11-08T19:00:00	6	Velocidad del viento	14.5
146706	7	Sololá	712	San Antonio Palopó	9	San Antonio Palopo	1	Enero	2023-07-01T00:00:00	2024-11-08T19:00:00	7	Dirección del viento	14.48
146707	7	Sololá	712	San Antonio Palopó	9	San Antonio Palopo	1	Enero	2023-07-01T00:00:00	2024-11-08T19:00:00	1	Precipitación	0
146708	7	Sololá	712	San Antonio Palopó	9	San Antonio Palopo	1	Enero	2023-07-01T00:00:00	2024-11-08T19:00:00	8	Radiación solar	0
146709	7	Sololá	712	San Antonio Palopó	9	San Antonio Palopo	1	Enero	2023-07-01T00:00:00	2024-11-08T20:00:00	2	Temperatura media	18.1
146710	7	Sololá	712	San Antonio Palopó	9	San Antonio Palopo	1	Enero	2023-07-01T00:00:00	2024-11-08T20:00:00	4	Temperatura máxima	18.3
146711	7	Sololá	712	San Antonio Palopó	9	San Antonio Palopo	1	Enero	2023-07-01T00:00:00	2024-11-08T20:00:00	3	Temperatura mínima	17.9
146712	7	Sololá	712	San Antonio Palopó	9	San Antonio Palopo	1	Enero	2023-07-01T00:00:00	2024-11-08T20:00:00	5	Humedad	67
146713	7	Sololá	712	San Antonio Palopó	9	San Antonio Palopo	1	Enero	2023-07-01T00:00:00	2024-11-08T20:00:00	6	Velocidad del viento	14.5
146714	7	Sololá	712	San Antonio Palopó	9	San Antonio Palopo	1	Enero	2023-07-01T00:00:00	2024-11-08T20:00:00	7	Dirección del viento	14.48
146715	7	Sololá	712	San Antonio Palopó	9	San Antonio Palopo	1	Enero	2023-07-01T00:00:00	2024-11-08T20:00:00	1	Precipitación	0
146716	7	Sololá	712	San Antonio Palopó	9	San Antonio Palopo	1	Enero	2023-07-01T00:00:00	2024-11-08T20:00:00	8	Radiación solar	0
146717	7	Sololá	712	San Antonio Palopó	9	San Antonio Palopo	1	Enero	2023-07-01T00:00:00	2024-11-08T21:00:00	2	Temperatura media	18.2
146718	7	Sololá	712	San Antonio Palopó	9	San Antonio Palopo	1	Enero	2023-07-01T00:00:00	2024-11-08T21:00:00	4	Temperatura máxima	18.2
146719	7	Sololá	712	San Antonio Palopó	9	San Antonio Palopo	1	Enero	2023-07-01T00:00:00	2024-11-08T21:00:00	3	Temperatura mínima	17.8
146720	7	Sololá	712	San Antonio Palopó	9	San Antonio Palopo	1	Enero	2023-07-01T00:00:00	2024-11-08T21:00:00	5	Humedad	64
146721	7	Sololá	712	San Antonio Palopó	9	San Antonio Palopo	1	Enero	2023-07-01T00:00:00	2024-11-08T21:00:00	6	Velocidad del viento	14.5
146722	7	Sololá	712	San Antonio Palopó	9	San Antonio Palopo	1	Enero	2023-07-01T00:00:00	2024-11-08T21:00:00	7	Dirección del viento	14.48
146723	7	Sololá	712	San Antonio Palopó	9	San Antonio Palopo	1	Enero	2023-07-01T00:00:00	2024-11-08T21:00:00	1	Precipitación	0
146724	7	Sololá	712	San Antonio Palopó	9	San Antonio Palopo	1	Enero	2023-07-01T00:00:00	2024-11-08T21:00:00	8	Radiación solar	0
146725	7	Sololá	712	San Antonio Palopó	9	San Antonio Palopo	1	Enero	2023-07-01T00:00:00	2024-11-08T22:00:00	2	Temperatura media	19.2
146726	7	Sololá	712	San Antonio Palopó	9	San Antonio Palopo	1	Enero	2023-07-01T00:00:00	2024-11-08T22:00:00	4	Temperatura máxima	19.2
146727	7	Sololá	712	San Antonio Palopó	9	San Antonio Palopo	1	Enero	2023-07-01T00:00:00	2024-11-08T22:00:00	3	Temperatura mínima	18.3
146728	7	Sololá	712	San Antonio Palopó	9	San Antonio Palopo	1	Enero	2023-07-01T00:00:00	2024-11-08T22:00:00	5	Humedad	60
146729	7	Sololá	712	San Antonio Palopó	9	San Antonio Palopo	1	Enero	2023-07-01T00:00:00	2024-11-08T22:00:00	6	Velocidad del viento	12.9
146730	7	Sololá	712	San Antonio Palopó	9	San Antonio Palopo	1	Enero	2023-07-01T00:00:00	2024-11-08T22:00:00	7	Dirección del viento	12.87
146731	7	Sololá	712	San Antonio Palopó	9	San Antonio Palopo	1	Enero	2023-07-01T00:00:00	2024-11-08T22:00:00	1	Precipitación	0
146732	7	Sololá	712	San Antonio Palopó	9	San Antonio Palopo	1	Enero	2023-07-01T00:00:00	2024-11-08T22:00:00	8	Radiación solar	0
146733	7	Sololá	712	San Antonio Palopó	9	San Antonio Palopo	1	Enero	2023-07-01T00:00:00	2024-11-08T23:00:00	2	Temperatura media	18.2
146734	7	Sololá	712	San Antonio Palopó	9	San Antonio Palopo	1	Enero	2023-07-01T00:00:00	2024-11-08T23:00:00	4	Temperatura máxima	19.3
146735	7	Sololá	712	San Antonio Palopó	9	San Antonio Palopo	1	Enero	2023-07-01T00:00:00	2024-11-08T23:00:00	3	Temperatura mínima	18.1
146736	7	Sololá	712	San Antonio Palopó	9	San Antonio Palopo	1	Enero	2023-07-01T00:00:00	2024-11-08T23:00:00	5	Humedad	64
146737	7	Sololá	712	San Antonio Palopó	9	San Antonio Palopo	1	Enero	2023-07-01T00:00:00	2024-11-08T23:00:00	6	Velocidad del viento	6.4
146738	7	Sololá	712	San Antonio Palopó	9	San Antonio Palopo	1	Enero	2023-07-01T00:00:00	2024-11-08T23:00:00	7	Dirección del viento	6.44
146739	7	Sololá	712	San Antonio Palopó	9	San Antonio Palopo	1	Enero	2023-07-01T00:00:00	2024-11-08T23:00:00	1	Precipitación	0
146740	7	Sololá	712	San Antonio Palopó	9	San Antonio Palopo	1	Enero	2023-07-01T00:00:00	2024-11-08T23:00:00	8	Radiación solar	0
146741	7	Sololá	712	San Antonio Palopó	9	San Antonio Palopo	1	Enero	2023-08-01T00:00:00	2024-11-08T00:00:00	2	Temperatura media	17.8
146742	7	Sololá	712	San Antonio Palopó	9	San Antonio Palopo	1	Enero	2023-08-01T00:00:00	2024-11-08T00:00:00	4	Temperatura máxima	18.1
146743	7	Sololá	712	San Antonio Palopó	9	San Antonio Palopo	1	Enero	2023-08-01T00:00:00	2024-11-08T00:00:00	3	Temperatura mínima	17.6
146744	7	Sololá	712	San Antonio Palopó	9	San Antonio Palopo	1	Enero	2023-08-01T00:00:00	2024-11-08T00:00:00	5	Humedad	66
146745	7	Sololá	712	San Antonio Palopó	9	San Antonio Palopo	1	Enero	2023-08-01T00:00:00	2024-11-08T00:00:00	6	Velocidad del viento	6.4
146746	7	Sololá	712	San Antonio Palopó	9	San Antonio Palopo	1	Enero	2023-08-01T00:00:00	2024-11-08T00:00:00	7	Dirección del viento	6.44
146747	7	Sololá	712	San Antonio Palopó	9	San Antonio Palopo	1	Enero	2023-08-01T00:00:00	2024-11-08T00:00:00	1	Precipitación	0
146748	7	Sololá	712	San Antonio Palopó	9	San Antonio Palopo	1	Enero	2023-08-01T00:00:00	2024-11-08T00:00:00	8	Radiación solar	0
146749	7	Sololá	712	San Antonio Palopó	9	San Antonio Palopo	1	Enero	2023-08-01T00:00:00	2024-11-08T01:00:00	2	Temperatura media	17.5
146750	7	Sololá	712	San Antonio Palopó	9	San Antonio Palopo	1	Enero	2023-08-01T00:00:00	2024-11-08T01:00:00	4	Temperatura máxima	17.9
146751	7	Sololá	712	San Antonio Palopó	9	San Antonio Palopo	1	Enero	2023-08-01T00:00:00	2024-11-08T01:00:00	3	Temperatura mínima	17.5
146752	7	Sololá	712	San Antonio Palopó	9	San Antonio Palopo	1	Enero	2023-08-01T00:00:00	2024-11-08T01:00:00	5	Humedad	67
146753	7	Sololá	712	San Antonio Palopó	9	San Antonio Palopo	1	Enero	2023-08-01T00:00:00	2024-11-08T01:00:00	6	Velocidad del viento	12.9
146754	7	Sololá	712	San Antonio Palopó	9	San Antonio Palopo	1	Enero	2023-08-01T00:00:00	2024-11-08T01:00:00	7	Dirección del viento	12.87
146755	7	Sololá	712	San Antonio Palopó	9	San Antonio Palopo	1	Enero	2023-08-01T00:00:00	2024-11-08T01:00:00	1	Precipitación	0
146756	7	Sololá	712	San Antonio Palopó	9	San Antonio Palopo	1	Enero	2023-08-01T00:00:00	2024-11-08T01:00:00	8	Radiación solar	0
146757	7	Sololá	712	San Antonio Palopó	9	San Antonio Palopo	1	Enero	2023-08-01T00:00:00	2024-11-08T02:00:00	2	Temperatura media	17.1
146758	7	Sololá	712	San Antonio Palopó	9	San Antonio Palopo	1	Enero	2023-08-01T00:00:00	2024-11-08T02:00:00	4	Temperatura máxima	17.5
146759	7	Sololá	712	San Antonio Palopó	9	San Antonio Palopo	1	Enero	2023-08-01T00:00:00	2024-11-08T02:00:00	3	Temperatura mínima	17
146760	7	Sololá	712	San Antonio Palopó	9	San Antonio Palopo	1	Enero	2023-08-01T00:00:00	2024-11-08T02:00:00	5	Humedad	69
146761	7	Sololá	712	San Antonio Palopó	9	San Antonio Palopo	1	Enero	2023-08-01T00:00:00	2024-11-08T02:00:00	6	Velocidad del viento	14.5
146762	7	Sololá	712	San Antonio Palopó	9	San Antonio Palopo	1	Enero	2023-08-01T00:00:00	2024-11-08T02:00:00	7	Dirección del viento	14.48
146763	7	Sololá	712	San Antonio Palopó	9	San Antonio Palopo	1	Enero	2023-08-01T00:00:00	2024-11-08T02:00:00	1	Precipitación	0
146764	7	Sololá	712	San Antonio Palopó	9	San Antonio Palopo	1	Enero	2023-08-01T00:00:00	2024-11-08T02:00:00	8	Radiación solar	0
146765	7	Sololá	712	San Antonio Palopó	9	San Antonio Palopo	1	Enero	2023-08-01T00:00:00	2024-11-08T03:00:00	2	Temperatura media	16.6
146766	7	Sololá	712	San Antonio Palopó	9	San Antonio Palopo	1	Enero	2023-08-01T00:00:00	2024-11-08T03:00:00	4	Temperatura máxima	17.1
146767	7	Sololá	712	San Antonio Palopó	9	San Antonio Palopo	1	Enero	2023-08-01T00:00:00	2024-11-08T03:00:00	3	Temperatura mínima	16.6
146768	7	Sololá	712	San Antonio Palopó	9	San Antonio Palopo	1	Enero	2023-08-01T00:00:00	2024-11-08T03:00:00	5	Humedad	70
146769	7	Sololá	712	San Antonio Palopó	9	San Antonio Palopo	1	Enero	2023-08-01T00:00:00	2024-11-08T03:00:00	6	Velocidad del viento	14.5
146770	7	Sololá	712	San Antonio Palopó	9	San Antonio Palopo	1	Enero	2023-08-01T00:00:00	2024-11-08T03:00:00	7	Dirección del viento	14.48
146771	7	Sololá	712	San Antonio Palopó	9	San Antonio Palopo	1	Enero	2023-08-01T00:00:00	2024-11-08T03:00:00	1	Precipitación	0
146772	7	Sololá	712	San Antonio Palopó	9	San Antonio Palopo	1	Enero	2023-08-01T00:00:00	2024-11-08T03:00:00	8	Radiación solar	0
146773	7	Sololá	712	San Antonio Palopó	9	San Antonio Palopo	1	Enero	2023-08-01T00:00:00	2024-11-08T04:00:00	2	Temperatura media	16.4
146774	7	Sololá	712	San Antonio Palopó	9	San Antonio Palopo	1	Enero	2023-08-01T00:00:00	2024-11-08T04:00:00	4	Temperatura máxima	16.7
146775	7	Sololá	712	San Antonio Palopó	9	San Antonio Palopo	1	Enero	2023-08-01T00:00:00	2024-11-08T04:00:00	3	Temperatura mínima	16.4
146776	7	Sololá	712	San Antonio Palopó	9	San Antonio Palopo	1	Enero	2023-08-01T00:00:00	2024-11-08T04:00:00	5	Humedad	69
146777	7	Sololá	712	San Antonio Palopó	9	San Antonio Palopo	1	Enero	2023-08-01T00:00:00	2024-11-08T04:00:00	6	Velocidad del viento	11.3
146778	7	Sololá	712	San Antonio Palopó	9	San Antonio Palopo	1	Enero	2023-08-01T00:00:00	2024-11-08T04:00:00	7	Dirección del viento	11.27
146779	7	Sololá	712	San Antonio Palopó	9	San Antonio Palopo	1	Enero	2023-08-01T00:00:00	2024-11-08T04:00:00	1	Precipitación	0
146780	7	Sololá	712	San Antonio Palopó	9	San Antonio Palopo	1	Enero	2023-08-01T00:00:00	2024-11-08T04:00:00	8	Radiación solar	0
146781	7	Sololá	712	San Antonio Palopó	9	San Antonio Palopo	1	Enero	2023-08-01T00:00:00	2024-11-08T05:00:00	2	Temperatura media	16.4
146782	7	Sololá	712	San Antonio Palopó	9	San Antonio Palopo	1	Enero	2023-08-01T00:00:00	2024-11-08T05:00:00	4	Temperatura máxima	16.6
146783	7	Sololá	712	San Antonio Palopó	9	San Antonio Palopo	1	Enero	2023-08-01T00:00:00	2024-11-08T05:00:00	3	Temperatura mínima	16.4
146784	7	Sololá	712	San Antonio Palopó	9	San Antonio Palopo	1	Enero	2023-08-01T00:00:00	2024-11-08T05:00:00	5	Humedad	69
146785	7	Sololá	712	San Antonio Palopó	9	San Antonio Palopo	1	Enero	2023-08-01T00:00:00	2024-11-08T05:00:00	6	Velocidad del viento	9.7
146786	7	Sololá	712	San Antonio Palopó	9	San Antonio Palopo	1	Enero	2023-08-01T00:00:00	2024-11-08T05:00:00	7	Dirección del viento	9.66
146787	7	Sololá	712	San Antonio Palopó	9	San Antonio Palopo	1	Enero	2023-08-01T00:00:00	2024-11-08T05:00:00	1	Precipitación	0
146788	7	Sololá	712	San Antonio Palopó	9	San Antonio Palopo	1	Enero	2023-08-01T00:00:00	2024-11-08T05:00:00	8	Radiación solar	0
146789	7	Sololá	712	San Antonio Palopó	9	San Antonio Palopo	1	Enero	2023-08-01T00:00:00	2024-11-08T06:00:00	2	Temperatura media	16.4
146790	7	Sololá	712	San Antonio Palopó	9	San Antonio Palopo	1	Enero	2023-08-01T00:00:00	2024-11-08T06:00:00	4	Temperatura máxima	16.7
146791	7	Sololá	712	San Antonio Palopó	9	San Antonio Palopo	1	Enero	2023-08-01T00:00:00	2024-11-08T06:00:00	3	Temperatura mínima	16.3
146792	7	Sololá	712	San Antonio Palopó	9	San Antonio Palopo	1	Enero	2023-08-01T00:00:00	2024-11-08T06:00:00	5	Humedad	70
146793	7	Sololá	712	San Antonio Palopó	9	San Antonio Palopo	1	Enero	2023-08-01T00:00:00	2024-11-08T06:00:00	6	Velocidad del viento	16.1
146794	7	Sololá	712	San Antonio Palopó	9	San Antonio Palopo	1	Enero	2023-08-01T00:00:00	2024-11-08T06:00:00	7	Dirección del viento	16.09
146795	7	Sololá	712	San Antonio Palopó	9	San Antonio Palopo	1	Enero	2023-08-01T00:00:00	2024-11-08T06:00:00	1	Precipitación	0
146796	7	Sololá	712	San Antonio Palopó	9	San Antonio Palopo	1	Enero	2023-08-01T00:00:00	2024-11-08T06:00:00	8	Radiación solar	0
146797	7	Sololá	712	San Antonio Palopó	9	San Antonio Palopo	1	Enero	2023-08-01T00:00:00	2024-11-08T07:00:00	2	Temperatura media	16.8
146798	7	Sololá	712	San Antonio Palopó	9	San Antonio Palopo	1	Enero	2023-08-01T00:00:00	2024-11-08T07:00:00	4	Temperatura máxima	16.8
146799	7	Sololá	712	San Antonio Palopó	9	San Antonio Palopo	1	Enero	2023-08-01T00:00:00	2024-11-08T07:00:00	3	Temperatura mínima	16.4
146800	7	Sololá	712	San Antonio Palopó	9	San Antonio Palopo	1	Enero	2023-08-01T00:00:00	2024-11-08T07:00:00	5	Humedad	69
146801	7	Sololá	712	San Antonio Palopó	9	San Antonio Palopo	1	Enero	2023-08-01T00:00:00	2024-11-08T07:00:00	6	Velocidad del viento	11.3
146802	7	Sololá	712	San Antonio Palopó	9	San Antonio Palopo	1	Enero	2023-08-01T00:00:00	2024-11-08T07:00:00	7	Dirección del viento	11.27
146803	7	Sololá	712	San Antonio Palopó	9	San Antonio Palopo	1	Enero	2023-08-01T00:00:00	2024-11-08T07:00:00	1	Precipitación	0
146804	7	Sololá	712	San Antonio Palopó	9	San Antonio Palopo	1	Enero	2023-08-01T00:00:00	2024-11-08T07:00:00	8	Radiación solar	3
146805	7	Sololá	712	San Antonio Palopó	9	San Antonio Palopo	1	Enero	2023-08-01T00:00:00	2024-11-08T08:00:00	2	Temperatura media	17.5
146806	7	Sololá	712	San Antonio Palopó	9	San Antonio Palopo	1	Enero	2023-08-01T00:00:00	2024-11-08T08:00:00	4	Temperatura máxima	17.6
146807	7	Sololá	712	San Antonio Palopó	9	San Antonio Palopo	1	Enero	2023-08-01T00:00:00	2024-11-08T08:00:00	3	Temperatura mínima	16.7
146808	7	Sololá	712	San Antonio Palopó	9	San Antonio Palopo	1	Enero	2023-08-01T00:00:00	2024-11-08T08:00:00	5	Humedad	69
146809	7	Sololá	712	San Antonio Palopó	9	San Antonio Palopo	1	Enero	2023-08-01T00:00:00	2024-11-08T08:00:00	6	Velocidad del viento	9.7
146810	7	Sololá	712	San Antonio Palopó	9	San Antonio Palopo	1	Enero	2023-08-01T00:00:00	2024-11-08T08:00:00	7	Dirección del viento	9.66
146811	7	Sololá	712	San Antonio Palopó	9	San Antonio Palopo	1	Enero	2023-08-01T00:00:00	2024-11-08T08:00:00	1	Precipitación	0
146812	7	Sololá	712	San Antonio Palopó	9	San Antonio Palopo	1	Enero	2023-08-01T00:00:00	2024-11-08T08:00:00	8	Radiación solar	16
146813	7	Sololá	712	San Antonio Palopó	9	San Antonio Palopo	1	Enero	2023-08-01T00:00:00	2024-11-08T09:00:00	2	Temperatura media	18.9
146814	7	Sololá	712	San Antonio Palopó	9	San Antonio Palopo	1	Enero	2023-08-01T00:00:00	2024-11-08T09:00:00	4	Temperatura máxima	19
146815	7	Sololá	712	San Antonio Palopó	9	San Antonio Palopo	1	Enero	2023-08-01T00:00:00	2024-11-08T09:00:00	3	Temperatura mínima	17.4
146816	7	Sololá	712	San Antonio Palopó	9	San Antonio Palopo	1	Enero	2023-08-01T00:00:00	2024-11-08T09:00:00	5	Humedad	66
146817	7	Sololá	712	San Antonio Palopó	9	San Antonio Palopo	1	Enero	2023-08-01T00:00:00	2024-11-08T09:00:00	6	Velocidad del viento	4.8
146818	7	Sololá	712	San Antonio Palopó	9	San Antonio Palopo	1	Enero	2023-08-01T00:00:00	2024-11-08T09:00:00	7	Dirección del viento	4.83
146819	7	Sololá	712	San Antonio Palopó	9	San Antonio Palopo	1	Enero	2023-08-01T00:00:00	2024-11-08T09:00:00	1	Precipitación	0
146820	7	Sololá	712	San Antonio Palopó	9	San Antonio Palopo	1	Enero	2023-08-01T00:00:00	2024-11-08T09:00:00	8	Radiación solar	98
146821	7	Sololá	712	San Antonio Palopó	9	San Antonio Palopo	1	Enero	2023-08-01T00:00:00	2024-11-08T10:00:00	2	Temperatura media	20.3
146822	7	Sololá	712	San Antonio Palopó	9	San Antonio Palopo	1	Enero	2023-08-01T00:00:00	2024-11-08T10:00:00	4	Temperatura máxima	20.6
146823	7	Sololá	712	San Antonio Palopó	9	San Antonio Palopo	1	Enero	2023-08-01T00:00:00	2024-11-08T10:00:00	3	Temperatura mínima	19
146824	7	Sololá	712	San Antonio Palopó	9	San Antonio Palopo	1	Enero	2023-08-01T00:00:00	2024-11-08T10:00:00	5	Humedad	66
146825	7	Sololá	712	San Antonio Palopó	9	San Antonio Palopo	1	Enero	2023-08-01T00:00:00	2024-11-08T10:00:00	6	Velocidad del viento	1.6
146826	7	Sololá	712	San Antonio Palopó	9	San Antonio Palopo	1	Enero	2023-08-01T00:00:00	2024-11-08T10:00:00	7	Dirección del viento	1.61
146827	7	Sololá	712	San Antonio Palopó	9	San Antonio Palopo	1	Enero	2023-08-01T00:00:00	2024-11-08T10:00:00	1	Precipitación	0
146828	7	Sololá	712	San Antonio Palopó	9	San Antonio Palopo	1	Enero	2023-08-01T00:00:00	2024-11-08T10:00:00	8	Radiación solar	369
146829	7	Sololá	712	San Antonio Palopó	9	San Antonio Palopo	1	Enero	2023-08-01T00:00:00	2024-11-08T11:00:00	2	Temperatura media	20.6
146830	7	Sololá	712	San Antonio Palopó	9	San Antonio Palopo	1	Enero	2023-08-01T00:00:00	2024-11-08T11:00:00	4	Temperatura máxima	21.3
146831	7	Sololá	712	San Antonio Palopó	9	San Antonio Palopo	1	Enero	2023-08-01T00:00:00	2024-11-08T11:00:00	3	Temperatura mínima	19.8
146832	7	Sololá	712	San Antonio Palopó	9	San Antonio Palopo	1	Enero	2023-08-01T00:00:00	2024-11-08T11:00:00	5	Humedad	68
146833	7	Sololá	712	San Antonio Palopó	9	San Antonio Palopo	1	Enero	2023-08-01T00:00:00	2024-11-08T11:00:00	6	Velocidad del viento	3.2
146834	7	Sololá	712	San Antonio Palopó	9	San Antonio Palopo	1	Enero	2023-08-01T00:00:00	2024-11-08T11:00:00	7	Dirección del viento	3.22
146835	7	Sololá	712	San Antonio Palopó	9	San Antonio Palopo	1	Enero	2023-08-01T00:00:00	2024-11-08T11:00:00	1	Precipitación	0
146836	7	Sololá	712	San Antonio Palopó	9	San Antonio Palopo	1	Enero	2023-08-01T00:00:00	2024-11-08T11:00:00	8	Radiación solar	432
146837	7	Sololá	712	San Antonio Palopó	9	San Antonio Palopo	1	Enero	2023-08-01T00:00:00	2024-11-08T12:00:00	2	Temperatura media	22.2
146838	7	Sololá	712	San Antonio Palopó	9	San Antonio Palopo	1	Enero	2023-08-01T00:00:00	2024-11-08T12:00:00	4	Temperatura máxima	22.2
146839	7	Sololá	712	San Antonio Palopó	9	San Antonio Palopo	1	Enero	2023-08-01T00:00:00	2024-11-08T12:00:00	3	Temperatura mínima	20.6
146840	7	Sololá	712	San Antonio Palopó	9	San Antonio Palopo	1	Enero	2023-08-01T00:00:00	2024-11-08T12:00:00	5	Humedad	64
146841	7	Sololá	712	San Antonio Palopó	9	San Antonio Palopo	1	Enero	2023-08-01T00:00:00	2024-11-08T12:00:00	6	Velocidad del viento	8
146842	7	Sololá	712	San Antonio Palopó	9	San Antonio Palopo	1	Enero	2023-08-01T00:00:00	2024-11-08T12:00:00	7	Dirección del viento	8.05
146843	7	Sololá	712	San Antonio Palopó	9	San Antonio Palopo	1	Enero	2023-08-01T00:00:00	2024-11-08T12:00:00	1	Precipitación	0
146844	7	Sololá	712	San Antonio Palopó	9	San Antonio Palopo	1	Enero	2023-08-01T00:00:00	2024-11-08T12:00:00	8	Radiación solar	462
146845	7	Sololá	712	San Antonio Palopó	9	San Antonio Palopo	1	Enero	2023-08-01T00:00:00	2024-11-08T13:00:00	2	Temperatura media	22.8
146846	7	Sololá	712	San Antonio Palopó	9	San Antonio Palopo	1	Enero	2023-08-01T00:00:00	2024-11-08T13:00:00	4	Temperatura máxima	22.9
146847	7	Sololá	712	San Antonio Palopó	9	San Antonio Palopo	1	Enero	2023-08-01T00:00:00	2024-11-08T13:00:00	3	Temperatura mínima	22.1
146848	7	Sololá	712	San Antonio Palopó	9	San Antonio Palopo	1	Enero	2023-08-01T00:00:00	2024-11-08T13:00:00	5	Humedad	69
146849	7	Sololá	712	San Antonio Palopó	9	San Antonio Palopo	1	Enero	2023-08-01T00:00:00	2024-11-08T13:00:00	6	Velocidad del viento	11.3
146850	7	Sololá	712	San Antonio Palopó	9	San Antonio Palopo	1	Enero	2023-08-01T00:00:00	2024-11-08T13:00:00	7	Dirección del viento	11.27
146851	7	Sololá	712	San Antonio Palopó	9	San Antonio Palopo	1	Enero	2023-08-01T00:00:00	2024-11-08T13:00:00	1	Precipitación	0
146852	7	Sololá	712	San Antonio Palopó	9	San Antonio Palopo	1	Enero	2023-08-01T00:00:00	2024-11-08T13:00:00	8	Radiación solar	664
146853	7	Sololá	712	San Antonio Palopó	9	San Antonio Palopo	1	Enero	2023-08-01T00:00:00	2024-11-08T14:00:00	2	Temperatura media	22.7
146854	7	Sololá	712	San Antonio Palopó	9	San Antonio Palopo	1	Enero	2023-08-01T00:00:00	2024-11-08T14:00:00	4	Temperatura máxima	22.8
146855	7	Sololá	712	San Antonio Palopó	9	San Antonio Palopo	1	Enero	2023-08-01T00:00:00	2024-11-08T14:00:00	3	Temperatura mínima	21.7
146856	7	Sololá	712	San Antonio Palopó	9	San Antonio Palopo	1	Enero	2023-08-01T00:00:00	2024-11-08T14:00:00	5	Humedad	68
146857	7	Sololá	712	San Antonio Palopó	9	San Antonio Palopo	1	Enero	2023-08-01T00:00:00	2024-11-08T14:00:00	6	Velocidad del viento	16.1
146858	7	Sololá	712	San Antonio Palopó	9	San Antonio Palopo	1	Enero	2023-08-01T00:00:00	2024-11-08T14:00:00	7	Dirección del viento	16.09
146859	7	Sololá	712	San Antonio Palopó	9	San Antonio Palopo	1	Enero	2023-08-01T00:00:00	2024-11-08T14:00:00	1	Precipitación	0
146860	7	Sololá	712	San Antonio Palopó	9	San Antonio Palopo	1	Enero	2023-08-01T00:00:00	2024-11-08T14:00:00	8	Radiación solar	556
146861	7	Sololá	712	San Antonio Palopó	9	San Antonio Palopo	1	Enero	2023-08-01T00:00:00	2024-11-08T15:00:00	2	Temperatura media	20.9
146862	7	Sololá	712	San Antonio Palopó	9	San Antonio Palopo	1	Enero	2023-08-01T00:00:00	2024-11-08T15:00:00	4	Temperatura máxima	22.6
146863	7	Sololá	712	San Antonio Palopó	9	San Antonio Palopo	1	Enero	2023-08-01T00:00:00	2024-11-08T15:00:00	3	Temperatura mínima	20.9
146864	7	Sololá	712	San Antonio Palopó	9	San Antonio Palopo	1	Enero	2023-08-01T00:00:00	2024-11-08T15:00:00	5	Humedad	74
146865	7	Sololá	712	San Antonio Palopó	9	San Antonio Palopo	1	Enero	2023-08-01T00:00:00	2024-11-08T15:00:00	6	Velocidad del viento	14.5
146866	7	Sololá	712	San Antonio Palopó	9	San Antonio Palopo	1	Enero	2023-08-01T00:00:00	2024-11-08T15:00:00	7	Dirección del viento	14.48
146867	7	Sololá	712	San Antonio Palopó	9	San Antonio Palopo	1	Enero	2023-08-01T00:00:00	2024-11-08T15:00:00	1	Precipitación	0
146868	7	Sololá	712	San Antonio Palopó	9	San Antonio Palopo	1	Enero	2023-08-01T00:00:00	2024-11-08T15:00:00	8	Radiación solar	186
146869	7	Sololá	712	San Antonio Palopó	9	San Antonio Palopo	1	Enero	2023-08-01T00:00:00	2024-11-08T16:00:00	2	Temperatura media	20.6
146870	7	Sololá	712	San Antonio Palopó	9	San Antonio Palopo	1	Enero	2023-08-01T00:00:00	2024-11-08T16:00:00	4	Temperatura máxima	20.9
146871	7	Sololá	712	San Antonio Palopó	9	San Antonio Palopo	1	Enero	2023-08-01T00:00:00	2024-11-08T16:00:00	3	Temperatura mínima	20.2
146872	7	Sololá	712	San Antonio Palopó	9	San Antonio Palopo	1	Enero	2023-08-01T00:00:00	2024-11-08T16:00:00	5	Humedad	77
146873	7	Sololá	712	San Antonio Palopó	9	San Antonio Palopo	1	Enero	2023-08-01T00:00:00	2024-11-08T16:00:00	6	Velocidad del viento	14.5
146874	7	Sololá	712	San Antonio Palopó	9	San Antonio Palopo	1	Enero	2023-08-01T00:00:00	2024-11-08T16:00:00	7	Dirección del viento	14.48
146875	7	Sololá	712	San Antonio Palopó	9	San Antonio Palopo	1	Enero	2023-08-01T00:00:00	2024-11-08T16:00:00	1	Precipitación	0
146876	7	Sololá	712	San Antonio Palopó	9	San Antonio Palopo	1	Enero	2023-08-01T00:00:00	2024-11-08T16:00:00	8	Radiación solar	131
146877	7	Sololá	712	San Antonio Palopó	9	San Antonio Palopo	1	Enero	2023-08-01T00:00:00	2024-11-08T17:00:00	2	Temperatura media	20.6
146878	7	Sololá	712	San Antonio Palopó	9	San Antonio Palopo	1	Enero	2023-08-01T00:00:00	2024-11-08T17:00:00	4	Temperatura máxima	20.8
146879	7	Sololá	712	San Antonio Palopó	9	San Antonio Palopo	1	Enero	2023-08-01T00:00:00	2024-11-08T17:00:00	3	Temperatura mínima	20.1
146880	7	Sololá	712	San Antonio Palopó	9	San Antonio Palopo	1	Enero	2023-08-01T00:00:00	2024-11-08T17:00:00	5	Humedad	76
146881	7	Sololá	712	San Antonio Palopó	9	San Antonio Palopo	1	Enero	2023-08-01T00:00:00	2024-11-08T17:00:00	6	Velocidad del viento	9.7
146882	7	Sololá	712	San Antonio Palopó	9	San Antonio Palopo	1	Enero	2023-08-01T00:00:00	2024-11-08T17:00:00	7	Dirección del viento	9.66
146883	7	Sololá	712	San Antonio Palopó	9	San Antonio Palopo	1	Enero	2023-08-01T00:00:00	2024-11-08T17:00:00	1	Precipitación	0
146884	7	Sololá	712	San Antonio Palopó	9	San Antonio Palopo	1	Enero	2023-08-01T00:00:00	2024-11-08T17:00:00	8	Radiación solar	91
146885	7	Sololá	712	San Antonio Palopó	9	San Antonio Palopo	1	Enero	2023-08-01T00:00:00	2024-11-08T18:00:00	2	Temperatura media	19.2
146886	7	Sololá	712	San Antonio Palopó	9	San Antonio Palopo	1	Enero	2023-08-01T00:00:00	2024-11-08T18:00:00	4	Temperatura máxima	20.6
146887	7	Sololá	712	San Antonio Palopó	9	San Antonio Palopo	1	Enero	2023-08-01T00:00:00	2024-11-08T18:00:00	3	Temperatura mínima	19.1
146888	7	Sololá	712	San Antonio Palopó	9	San Antonio Palopo	1	Enero	2023-08-01T00:00:00	2024-11-08T18:00:00	5	Humedad	81
146889	7	Sololá	712	San Antonio Palopó	9	San Antonio Palopo	1	Enero	2023-08-01T00:00:00	2024-11-08T18:00:00	6	Velocidad del viento	6.4
146890	7	Sololá	712	San Antonio Palopó	9	San Antonio Palopo	1	Enero	2023-08-01T00:00:00	2024-11-08T18:00:00	7	Dirección del viento	6.44
146891	7	Sololá	712	San Antonio Palopó	9	San Antonio Palopo	1	Enero	2023-08-01T00:00:00	2024-11-08T18:00:00	1	Precipitación	0
146892	7	Sololá	712	San Antonio Palopó	9	San Antonio Palopo	1	Enero	2023-08-01T00:00:00	2024-11-08T18:00:00	8	Radiación solar	10
146893	7	Sololá	712	San Antonio Palopó	9	San Antonio Palopo	1	Enero	2023-08-01T00:00:00	2024-11-08T19:00:00	2	Temperatura media	18.4
146894	7	Sololá	712	San Antonio Palopó	9	San Antonio Palopo	1	Enero	2023-08-01T00:00:00	2024-11-08T19:00:00	4	Temperatura máxima	19.2
146895	7	Sololá	712	San Antonio Palopó	9	San Antonio Palopo	1	Enero	2023-08-01T00:00:00	2024-11-08T19:00:00	3	Temperatura mínima	17.9
146896	7	Sololá	712	San Antonio Palopó	9	San Antonio Palopo	1	Enero	2023-08-01T00:00:00	2024-11-08T19:00:00	5	Humedad	74
146897	7	Sololá	712	San Antonio Palopó	9	San Antonio Palopo	1	Enero	2023-08-01T00:00:00	2024-11-08T19:00:00	6	Velocidad del viento	3.2
146898	7	Sololá	712	San Antonio Palopó	9	San Antonio Palopo	1	Enero	2023-08-01T00:00:00	2024-11-08T19:00:00	7	Dirección del viento	3.22
146899	7	Sololá	712	San Antonio Palopó	9	San Antonio Palopo	1	Enero	2023-08-01T00:00:00	2024-11-08T19:00:00	1	Precipitación	0
146900	7	Sololá	712	San Antonio Palopó	9	San Antonio Palopo	1	Enero	2023-08-01T00:00:00	2024-11-08T19:00:00	8	Radiación solar	0
146901	7	Sololá	712	San Antonio Palopó	9	San Antonio Palopo	1	Enero	2023-08-01T00:00:00	2024-11-08T20:00:00	2	Temperatura media	18.9
146902	7	Sololá	712	San Antonio Palopó	9	San Antonio Palopo	1	Enero	2023-08-01T00:00:00	2024-11-08T20:00:00	4	Temperatura máxima	18.9
146903	7	Sololá	712	San Antonio Palopó	9	San Antonio Palopo	1	Enero	2023-08-01T00:00:00	2024-11-08T20:00:00	3	Temperatura mínima	18.4
146904	7	Sololá	712	San Antonio Palopó	9	San Antonio Palopo	1	Enero	2023-08-01T00:00:00	2024-11-08T20:00:00	5	Humedad	72
146905	7	Sololá	712	San Antonio Palopó	9	San Antonio Palopo	1	Enero	2023-08-01T00:00:00	2024-11-08T20:00:00	6	Velocidad del viento	11.3
146906	7	Sololá	712	San Antonio Palopó	9	San Antonio Palopo	1	Enero	2023-08-01T00:00:00	2024-11-08T20:00:00	7	Dirección del viento	11.27
146907	7	Sololá	712	San Antonio Palopó	9	San Antonio Palopo	1	Enero	2023-08-01T00:00:00	2024-11-08T20:00:00	1	Precipitación	0
146908	7	Sololá	712	San Antonio Palopó	9	San Antonio Palopo	1	Enero	2023-08-01T00:00:00	2024-11-08T20:00:00	8	Radiación solar	0
146909	7	Sololá	712	San Antonio Palopó	9	San Antonio Palopo	1	Enero	2023-08-01T00:00:00	2024-11-08T21:00:00	2	Temperatura media	18.9
146910	7	Sololá	712	San Antonio Palopó	9	San Antonio Palopo	1	Enero	2023-08-01T00:00:00	2024-11-08T21:00:00	4	Temperatura máxima	19
146911	7	Sololá	712	San Antonio Palopó	9	San Antonio Palopo	1	Enero	2023-08-01T00:00:00	2024-11-08T21:00:00	3	Temperatura mínima	18.7
146912	7	Sololá	712	San Antonio Palopó	9	San Antonio Palopo	1	Enero	2023-08-01T00:00:00	2024-11-08T21:00:00	5	Humedad	71
146913	7	Sololá	712	San Antonio Palopó	9	San Antonio Palopo	1	Enero	2023-08-01T00:00:00	2024-11-08T21:00:00	6	Velocidad del viento	17.7
146914	7	Sololá	712	San Antonio Palopó	9	San Antonio Palopo	1	Enero	2023-08-01T00:00:00	2024-11-08T21:00:00	7	Dirección del viento	17.7
146915	7	Sololá	712	San Antonio Palopó	9	San Antonio Palopo	1	Enero	2023-08-01T00:00:00	2024-11-08T21:00:00	1	Precipitación	0
146916	7	Sololá	712	San Antonio Palopó	9	San Antonio Palopo	1	Enero	2023-08-01T00:00:00	2024-11-08T21:00:00	8	Radiación solar	0
146917	7	Sololá	712	San Antonio Palopó	9	San Antonio Palopo	1	Enero	2023-08-01T00:00:00	2024-11-08T22:00:00	2	Temperatura media	18.1
146918	7	Sololá	712	San Antonio Palopó	9	San Antonio Palopo	1	Enero	2023-08-01T00:00:00	2024-11-08T22:00:00	4	Temperatura máxima	18.9
146919	7	Sololá	712	San Antonio Palopó	9	San Antonio Palopo	1	Enero	2023-08-01T00:00:00	2024-11-08T22:00:00	3	Temperatura mínima	18
146920	7	Sololá	712	San Antonio Palopó	9	San Antonio Palopo	1	Enero	2023-08-01T00:00:00	2024-11-08T22:00:00	5	Humedad	73
146921	7	Sololá	712	San Antonio Palopó	9	San Antonio Palopo	1	Enero	2023-08-01T00:00:00	2024-11-08T22:00:00	6	Velocidad del viento	11.3
146922	7	Sololá	712	San Antonio Palopó	9	San Antonio Palopo	1	Enero	2023-08-01T00:00:00	2024-11-08T22:00:00	7	Dirección del viento	11.27
146923	7	Sololá	712	San Antonio Palopó	9	San Antonio Palopo	1	Enero	2023-08-01T00:00:00	2024-11-08T22:00:00	1	Precipitación	0
146924	7	Sololá	712	San Antonio Palopó	9	San Antonio Palopo	1	Enero	2023-08-01T00:00:00	2024-11-08T22:00:00	8	Radiación solar	0
146925	7	Sololá	712	San Antonio Palopó	9	San Antonio Palopo	1	Enero	2023-08-01T00:00:00	2024-11-08T23:00:00	2	Temperatura media	17.9
146926	7	Sololá	712	San Antonio Palopó	9	San Antonio Palopo	1	Enero	2023-08-01T00:00:00	2024-11-08T23:00:00	4	Temperatura máxima	18.2
146927	7	Sololá	712	San Antonio Palopó	9	San Antonio Palopo	1	Enero	2023-08-01T00:00:00	2024-11-08T23:00:00	3	Temperatura mínima	17.9
146928	7	Sololá	712	San Antonio Palopó	9	San Antonio Palopo	1	Enero	2023-08-01T00:00:00	2024-11-08T23:00:00	5	Humedad	71
146929	7	Sololá	712	San Antonio Palopó	9	San Antonio Palopo	1	Enero	2023-08-01T00:00:00	2024-11-08T23:00:00	6	Velocidad del viento	6.4
146930	7	Sololá	712	San Antonio Palopó	9	San Antonio Palopo	1	Enero	2023-08-01T00:00:00	2024-11-08T23:00:00	7	Dirección del viento	6.44
146931	7	Sololá	712	San Antonio Palopó	9	San Antonio Palopo	1	Enero	2023-08-01T00:00:00	2024-11-08T23:00:00	1	Precipitación	0
146932	7	Sololá	712	San Antonio Palopó	9	San Antonio Palopo	1	Enero	2023-08-01T00:00:00	2024-11-08T23:00:00	8	Radiación solar	0
146933	7	Sololá	712	San Antonio Palopó	9	San Antonio Palopo	1	Enero	2023-09-01T00:00:00	2024-11-08T00:00:00	2	Temperatura media	17.6
146934	7	Sololá	712	San Antonio Palopó	9	San Antonio Palopo	1	Enero	2023-09-01T00:00:00	2024-11-08T00:00:00	4	Temperatura máxima	18
146935	7	Sololá	712	San Antonio Palopó	9	San Antonio Palopo	1	Enero	2023-09-01T00:00:00	2024-11-08T00:00:00	3	Temperatura mínima	17.6
146936	7	Sololá	712	San Antonio Palopó	9	San Antonio Palopo	1	Enero	2023-09-01T00:00:00	2024-11-08T00:00:00	5	Humedad	71
146937	7	Sololá	712	San Antonio Palopó	9	San Antonio Palopo	1	Enero	2023-09-01T00:00:00	2024-11-08T00:00:00	6	Velocidad del viento	16.1
146938	7	Sololá	712	San Antonio Palopó	9	San Antonio Palopo	1	Enero	2023-09-01T00:00:00	2024-11-08T00:00:00	7	Dirección del viento	16.09
146939	7	Sololá	712	San Antonio Palopó	9	San Antonio Palopo	1	Enero	2023-09-01T00:00:00	2024-11-08T00:00:00	1	Precipitación	0
146940	7	Sololá	712	San Antonio Palopó	9	San Antonio Palopo	1	Enero	2023-09-01T00:00:00	2024-11-08T00:00:00	8	Radiación solar	0
146941	7	Sololá	712	San Antonio Palopó	9	San Antonio Palopo	1	Enero	2023-09-01T00:00:00	2024-11-08T01:00:00	2	Temperatura media	17.5
146942	7	Sololá	712	San Antonio Palopó	9	San Antonio Palopo	1	Enero	2023-09-01T00:00:00	2024-11-08T01:00:00	4	Temperatura máxima	17.6
146943	7	Sololá	712	San Antonio Palopó	9	San Antonio Palopo	1	Enero	2023-09-01T00:00:00	2024-11-08T01:00:00	3	Temperatura mínima	17.3
146944	7	Sololá	712	San Antonio Palopó	9	San Antonio Palopo	1	Enero	2023-09-01T00:00:00	2024-11-08T01:00:00	5	Humedad	69
146945	7	Sololá	712	San Antonio Palopó	9	San Antonio Palopo	1	Enero	2023-09-01T00:00:00	2024-11-08T01:00:00	6	Velocidad del viento	12.9
146946	7	Sololá	712	San Antonio Palopó	9	San Antonio Palopo	1	Enero	2023-09-01T00:00:00	2024-11-08T01:00:00	7	Dirección del viento	12.87
146947	7	Sololá	712	San Antonio Palopó	9	San Antonio Palopo	1	Enero	2023-09-01T00:00:00	2024-11-08T01:00:00	1	Precipitación	0
146948	7	Sololá	712	San Antonio Palopó	9	San Antonio Palopo	1	Enero	2023-09-01T00:00:00	2024-11-08T01:00:00	8	Radiación solar	0
146949	7	Sololá	712	San Antonio Palopó	9	San Antonio Palopo	1	Enero	2023-09-01T00:00:00	2024-11-08T02:00:00	2	Temperatura media	17.3
146950	7	Sololá	712	San Antonio Palopó	9	San Antonio Palopo	1	Enero	2023-09-01T00:00:00	2024-11-08T02:00:00	4	Temperatura máxima	17.6
146951	7	Sololá	712	San Antonio Palopó	9	San Antonio Palopo	1	Enero	2023-09-01T00:00:00	2024-11-08T02:00:00	3	Temperatura mínima	17.2
146952	7	Sololá	712	San Antonio Palopó	9	San Antonio Palopo	1	Enero	2023-09-01T00:00:00	2024-11-08T02:00:00	5	Humedad	69
146953	7	Sololá	712	San Antonio Palopó	9	San Antonio Palopo	1	Enero	2023-09-01T00:00:00	2024-11-08T02:00:00	6	Velocidad del viento	14.5
146954	7	Sololá	712	San Antonio Palopó	9	San Antonio Palopo	1	Enero	2023-09-01T00:00:00	2024-11-08T02:00:00	7	Dirección del viento	14.48
146955	7	Sololá	712	San Antonio Palopó	9	San Antonio Palopo	1	Enero	2023-09-01T00:00:00	2024-11-08T02:00:00	1	Precipitación	0
146956	7	Sololá	712	San Antonio Palopó	9	San Antonio Palopo	1	Enero	2023-09-01T00:00:00	2024-11-08T02:00:00	8	Radiación solar	0
146957	7	Sololá	712	San Antonio Palopó	9	San Antonio Palopo	1	Enero	2023-09-01T00:00:00	2024-11-08T03:00:00	2	Temperatura media	16.8
146958	7	Sololá	712	San Antonio Palopó	9	San Antonio Palopo	1	Enero	2023-09-01T00:00:00	2024-11-08T03:00:00	4	Temperatura máxima	17.3
146959	7	Sololá	712	San Antonio Palopó	9	San Antonio Palopo	1	Enero	2023-09-01T00:00:00	2024-11-08T03:00:00	3	Temperatura mínima	16.6
146960	7	Sololá	712	San Antonio Palopó	9	San Antonio Palopo	1	Enero	2023-09-01T00:00:00	2024-11-08T03:00:00	5	Humedad	71
146961	7	Sololá	712	San Antonio Palopó	9	San Antonio Palopo	1	Enero	2023-09-01T00:00:00	2024-11-08T03:00:00	6	Velocidad del viento	16.1
146962	7	Sololá	712	San Antonio Palopó	9	San Antonio Palopo	1	Enero	2023-09-01T00:00:00	2024-11-08T03:00:00	7	Dirección del viento	16.09
146963	7	Sololá	712	San Antonio Palopó	9	San Antonio Palopo	1	Enero	2023-09-01T00:00:00	2024-11-08T03:00:00	1	Precipitación	0
146964	7	Sololá	712	San Antonio Palopó	9	San Antonio Palopo	1	Enero	2023-09-01T00:00:00	2024-11-08T03:00:00	8	Radiación solar	0
146965	7	Sololá	712	San Antonio Palopó	9	San Antonio Palopo	1	Enero	2023-09-01T00:00:00	2024-11-08T04:00:00	2	Temperatura media	16
146966	7	Sololá	712	San Antonio Palopó	9	San Antonio Palopo	1	Enero	2023-09-01T00:00:00	2024-11-08T04:00:00	4	Temperatura máxima	16.8
146967	7	Sololá	712	San Antonio Palopó	9	San Antonio Palopo	1	Enero	2023-09-01T00:00:00	2024-11-08T04:00:00	3	Temperatura mínima	15.9
146968	7	Sololá	712	San Antonio Palopó	9	San Antonio Palopo	1	Enero	2023-09-01T00:00:00	2024-11-08T04:00:00	5	Humedad	74
146969	7	Sololá	712	San Antonio Palopó	9	San Antonio Palopo	1	Enero	2023-09-01T00:00:00	2024-11-08T04:00:00	6	Velocidad del viento	14.5
146970	7	Sololá	712	San Antonio Palopó	9	San Antonio Palopo	1	Enero	2023-09-01T00:00:00	2024-11-08T04:00:00	7	Dirección del viento	14.48
146971	7	Sololá	712	San Antonio Palopó	9	San Antonio Palopo	1	Enero	2023-09-01T00:00:00	2024-11-08T04:00:00	1	Precipitación	0
146972	7	Sololá	712	San Antonio Palopó	9	San Antonio Palopo	1	Enero	2023-09-01T00:00:00	2024-11-08T04:00:00	8	Radiación solar	0
146973	7	Sololá	712	San Antonio Palopó	9	San Antonio Palopo	1	Enero	2023-09-01T00:00:00	2024-11-08T05:00:00	2	Temperatura media	16.2
146974	7	Sololá	712	San Antonio Palopó	9	San Antonio Palopo	1	Enero	2023-09-01T00:00:00	2024-11-08T05:00:00	4	Temperatura máxima	16.3
146975	7	Sololá	712	San Antonio Palopó	9	San Antonio Palopo	1	Enero	2023-09-01T00:00:00	2024-11-08T05:00:00	3	Temperatura mínima	15.9
146976	7	Sololá	712	San Antonio Palopó	9	San Antonio Palopo	1	Enero	2023-09-01T00:00:00	2024-11-08T05:00:00	5	Humedad	73
146977	7	Sololá	712	San Antonio Palopó	9	San Antonio Palopo	1	Enero	2023-09-01T00:00:00	2024-11-08T05:00:00	6	Velocidad del viento	12.9
146978	7	Sololá	712	San Antonio Palopó	9	San Antonio Palopo	1	Enero	2023-09-01T00:00:00	2024-11-08T05:00:00	7	Dirección del viento	12.87
146979	7	Sololá	712	San Antonio Palopó	9	San Antonio Palopo	1	Enero	2023-09-01T00:00:00	2024-11-08T05:00:00	1	Precipitación	0
146980	7	Sololá	712	San Antonio Palopó	9	San Antonio Palopo	1	Enero	2023-09-01T00:00:00	2024-11-08T05:00:00	8	Radiación solar	0
146981	7	Sololá	712	San Antonio Palopó	9	San Antonio Palopo	1	Enero	2023-09-01T00:00:00	2024-11-08T06:00:00	2	Temperatura media	16.1
146982	7	Sololá	712	San Antonio Palopó	9	San Antonio Palopo	1	Enero	2023-09-01T00:00:00	2024-11-08T06:00:00	4	Temperatura máxima	16.3
146983	7	Sololá	712	San Antonio Palopó	9	San Antonio Palopo	1	Enero	2023-09-01T00:00:00	2024-11-08T06:00:00	3	Temperatura mínima	16.1
146984	7	Sololá	712	San Antonio Palopó	9	San Antonio Palopo	1	Enero	2023-09-01T00:00:00	2024-11-08T06:00:00	5	Humedad	72
146985	7	Sololá	712	San Antonio Palopó	9	San Antonio Palopo	1	Enero	2023-09-01T00:00:00	2024-11-08T06:00:00	6	Velocidad del viento	12.9
146986	7	Sololá	712	San Antonio Palopó	9	San Antonio Palopo	1	Enero	2023-09-01T00:00:00	2024-11-08T06:00:00	7	Dirección del viento	12.87
146987	7	Sololá	712	San Antonio Palopó	9	San Antonio Palopo	1	Enero	2023-09-01T00:00:00	2024-11-08T06:00:00	1	Precipitación	0
146988	7	Sololá	712	San Antonio Palopó	9	San Antonio Palopo	1	Enero	2023-09-01T00:00:00	2024-11-08T06:00:00	8	Radiación solar	0
146989	7	Sololá	712	San Antonio Palopó	9	San Antonio Palopo	1	Enero	2023-09-01T00:00:00	2024-11-08T07:00:00	2	Temperatura media	16.3
146990	7	Sololá	712	San Antonio Palopó	9	San Antonio Palopo	1	Enero	2023-09-01T00:00:00	2024-11-08T07:00:00	4	Temperatura máxima	16.4
146991	7	Sololá	712	San Antonio Palopó	9	San Antonio Palopo	1	Enero	2023-09-01T00:00:00	2024-11-08T07:00:00	3	Temperatura mínima	15.9
146992	7	Sololá	712	San Antonio Palopó	9	San Antonio Palopo	1	Enero	2023-09-01T00:00:00	2024-11-08T07:00:00	5	Humedad	70
146993	7	Sololá	712	San Antonio Palopó	9	San Antonio Palopo	1	Enero	2023-09-01T00:00:00	2024-11-08T07:00:00	6	Velocidad del viento	9.7
146994	7	Sololá	712	San Antonio Palopó	9	San Antonio Palopo	1	Enero	2023-09-01T00:00:00	2024-11-08T07:00:00	7	Dirección del viento	9.66
146995	7	Sololá	712	San Antonio Palopó	9	San Antonio Palopo	1	Enero	2023-09-01T00:00:00	2024-11-08T07:00:00	1	Precipitación	0
146996	7	Sololá	712	San Antonio Palopó	9	San Antonio Palopo	1	Enero	2023-09-01T00:00:00	2024-11-08T07:00:00	8	Radiación solar	3
146997	7	Sololá	712	San Antonio Palopó	9	San Antonio Palopo	1	Enero	2023-09-01T00:00:00	2024-11-08T08:00:00	2	Temperatura media	16.4
146998	7	Sololá	712	San Antonio Palopó	9	San Antonio Palopo	1	Enero	2023-09-01T00:00:00	2024-11-08T08:00:00	4	Temperatura máxima	16.7
146999	7	Sololá	712	San Antonio Palopó	9	San Antonio Palopo	1	Enero	2023-09-01T00:00:00	2024-11-08T08:00:00	3	Temperatura mínima	16.3
147000	7	Sololá	712	San Antonio Palopó	9	San Antonio Palopo	1	Enero	2023-09-01T00:00:00	2024-11-08T08:00:00	5	Humedad	75
147001	7	Sololá	712	San Antonio Palopó	9	San Antonio Palopo	1	Enero	2023-09-01T00:00:00	2024-11-08T08:00:00	6	Velocidad del viento	8
147002	7	Sololá	712	San Antonio Palopó	9	San Antonio Palopo	1	Enero	2023-09-01T00:00:00	2024-11-08T08:00:00	7	Dirección del viento	8.05
147003	7	Sololá	712	San Antonio Palopó	9	San Antonio Palopo	1	Enero	2023-09-01T00:00:00	2024-11-08T08:00:00	1	Precipitación	0
147004	7	Sololá	712	San Antonio Palopó	9	San Antonio Palopo	1	Enero	2023-09-01T00:00:00	2024-11-08T08:00:00	8	Radiación solar	16
147005	7	Sololá	712	San Antonio Palopó	9	San Antonio Palopo	1	Enero	2023-09-01T00:00:00	2024-11-08T09:00:00	2	Temperatura media	17.6
147006	7	Sololá	712	San Antonio Palopó	9	San Antonio Palopo	1	Enero	2023-09-01T00:00:00	2024-11-08T09:00:00	4	Temperatura máxima	17.6
147007	7	Sololá	712	San Antonio Palopó	9	San Antonio Palopo	1	Enero	2023-09-01T00:00:00	2024-11-08T09:00:00	3	Temperatura mínima	15.7
147008	7	Sololá	712	San Antonio Palopó	9	San Antonio Palopo	1	Enero	2023-09-01T00:00:00	2024-11-08T09:00:00	5	Humedad	72
147009	7	Sololá	712	San Antonio Palopó	9	San Antonio Palopo	1	Enero	2023-09-01T00:00:00	2024-11-08T09:00:00	6	Velocidad del viento	3.2
147010	7	Sololá	712	San Antonio Palopó	9	San Antonio Palopo	1	Enero	2023-09-01T00:00:00	2024-11-08T09:00:00	7	Dirección del viento	3.22
147011	7	Sololá	712	San Antonio Palopó	9	San Antonio Palopo	1	Enero	2023-09-01T00:00:00	2024-11-08T09:00:00	1	Precipitación	0
147012	7	Sololá	712	San Antonio Palopó	9	San Antonio Palopo	1	Enero	2023-09-01T00:00:00	2024-11-08T09:00:00	8	Radiación solar	98
147013	7	Sololá	712	San Antonio Palopó	9	San Antonio Palopo	1	Enero	2023-09-01T00:00:00	2024-11-08T10:00:00	2	Temperatura media	19.3
147014	7	Sololá	712	San Antonio Palopó	9	San Antonio Palopo	1	Enero	2023-09-01T00:00:00	2024-11-08T10:00:00	4	Temperatura máxima	19.7
147015	7	Sololá	712	San Antonio Palopó	9	San Antonio Palopo	1	Enero	2023-09-01T00:00:00	2024-11-08T10:00:00	3	Temperatura mínima	17.6
147016	7	Sololá	712	San Antonio Palopó	9	San Antonio Palopo	1	Enero	2023-09-01T00:00:00	2024-11-08T10:00:00	5	Humedad	69
147017	7	Sololá	712	San Antonio Palopó	9	San Antonio Palopo	1	Enero	2023-09-01T00:00:00	2024-11-08T10:00:00	6	Velocidad del viento	3.2
147018	7	Sololá	712	San Antonio Palopó	9	San Antonio Palopo	1	Enero	2023-09-01T00:00:00	2024-11-08T10:00:00	7	Dirección del viento	3.22
147019	7	Sololá	712	San Antonio Palopó	9	San Antonio Palopo	1	Enero	2023-09-01T00:00:00	2024-11-08T10:00:00	1	Precipitación	0
147020	7	Sololá	712	San Antonio Palopó	9	San Antonio Palopo	1	Enero	2023-09-01T00:00:00	2024-11-08T10:00:00	8	Radiación solar	488
147021	7	Sololá	712	San Antonio Palopó	9	San Antonio Palopo	1	Enero	2023-09-01T00:00:00	2024-11-08T11:00:00	2	Temperatura media	19.6
147022	7	Sololá	712	San Antonio Palopó	9	San Antonio Palopo	1	Enero	2023-09-01T00:00:00	2024-11-08T11:00:00	4	Temperatura máxima	19.9
147023	7	Sololá	712	San Antonio Palopó	9	San Antonio Palopo	1	Enero	2023-09-01T00:00:00	2024-11-08T11:00:00	3	Temperatura mínima	19.2
147024	7	Sololá	712	San Antonio Palopó	9	San Antonio Palopo	1	Enero	2023-09-01T00:00:00	2024-11-08T11:00:00	5	Humedad	71
147025	7	Sololá	712	San Antonio Palopó	9	San Antonio Palopo	1	Enero	2023-09-01T00:00:00	2024-11-08T11:00:00	6	Velocidad del viento	1.6
147026	7	Sololá	712	San Antonio Palopó	9	San Antonio Palopo	1	Enero	2023-09-01T00:00:00	2024-11-08T11:00:00	7	Dirección del viento	1.61
147027	7	Sololá	712	San Antonio Palopó	9	San Antonio Palopo	1	Enero	2023-09-01T00:00:00	2024-11-08T11:00:00	1	Precipitación	0
147028	7	Sololá	712	San Antonio Palopó	9	San Antonio Palopo	1	Enero	2023-09-01T00:00:00	2024-11-08T11:00:00	8	Radiación solar	302
147029	7	Sololá	712	San Antonio Palopó	9	San Antonio Palopo	1	Enero	2023-09-01T00:00:00	2024-11-08T12:00:00	2	Temperatura media	21
147030	7	Sololá	712	San Antonio Palopó	9	San Antonio Palopo	1	Enero	2023-09-01T00:00:00	2024-11-08T12:00:00	4	Temperatura máxima	21.7
147031	7	Sololá	712	San Antonio Palopó	9	San Antonio Palopo	1	Enero	2023-09-01T00:00:00	2024-11-08T12:00:00	3	Temperatura mínima	19.6
147032	7	Sololá	712	San Antonio Palopó	9	San Antonio Palopo	1	Enero	2023-09-01T00:00:00	2024-11-08T12:00:00	5	Humedad	72
147033	7	Sololá	712	San Antonio Palopó	9	San Antonio Palopo	1	Enero	2023-09-01T00:00:00	2024-11-08T12:00:00	6	Velocidad del viento	1.6
147034	7	Sololá	712	San Antonio Palopó	9	San Antonio Palopo	1	Enero	2023-09-01T00:00:00	2024-11-08T12:00:00	7	Dirección del viento	1.61
147035	7	Sololá	712	San Antonio Palopó	9	San Antonio Palopo	1	Enero	2023-09-01T00:00:00	2024-11-08T12:00:00	1	Precipitación	0
147036	7	Sololá	712	San Antonio Palopó	9	San Antonio Palopo	1	Enero	2023-09-01T00:00:00	2024-11-08T12:00:00	8	Radiación solar	245
147037	7	Sololá	712	San Antonio Palopó	9	San Antonio Palopo	1	Enero	2023-09-01T00:00:00	2024-11-08T13:00:00	2	Temperatura media	21.4
147038	7	Sololá	712	San Antonio Palopó	9	San Antonio Palopo	1	Enero	2023-09-01T00:00:00	2024-11-08T13:00:00	4	Temperatura máxima	21.4
147039	7	Sololá	712	San Antonio Palopó	9	San Antonio Palopo	1	Enero	2023-09-01T00:00:00	2024-11-08T13:00:00	3	Temperatura mínima	20.6
147040	7	Sololá	712	San Antonio Palopó	9	San Antonio Palopo	1	Enero	2023-09-01T00:00:00	2024-11-08T13:00:00	5	Humedad	72
147041	7	Sololá	712	San Antonio Palopó	9	San Antonio Palopo	1	Enero	2023-09-01T00:00:00	2024-11-08T13:00:00	6	Velocidad del viento	6.4
147042	7	Sololá	712	San Antonio Palopó	9	San Antonio Palopo	1	Enero	2023-09-01T00:00:00	2024-11-08T13:00:00	7	Dirección del viento	6.44
147043	7	Sololá	712	San Antonio Palopó	9	San Antonio Palopo	1	Enero	2023-09-01T00:00:00	2024-11-08T13:00:00	1	Precipitación	0
147044	7	Sololá	712	San Antonio Palopó	9	San Antonio Palopo	1	Enero	2023-09-01T00:00:00	2024-11-08T13:00:00	8	Radiación solar	197
147045	7	Sololá	712	San Antonio Palopó	9	San Antonio Palopo	1	Enero	2023-09-01T00:00:00	2024-11-08T14:00:00	2	Temperatura media	22.3
147046	7	Sololá	712	San Antonio Palopó	9	San Antonio Palopo	1	Enero	2023-09-01T00:00:00	2024-11-08T14:00:00	4	Temperatura máxima	22.3
147047	7	Sololá	712	San Antonio Palopó	9	San Antonio Palopo	1	Enero	2023-09-01T00:00:00	2024-11-08T14:00:00	3	Temperatura mínima	20.6
147048	7	Sololá	712	San Antonio Palopó	9	San Antonio Palopo	1	Enero	2023-09-01T00:00:00	2024-11-08T14:00:00	5	Humedad	69
147049	7	Sololá	712	San Antonio Palopó	9	San Antonio Palopo	1	Enero	2023-09-01T00:00:00	2024-11-08T14:00:00	6	Velocidad del viento	8
147050	7	Sololá	712	San Antonio Palopó	9	San Antonio Palopo	1	Enero	2023-09-01T00:00:00	2024-11-08T14:00:00	7	Dirección del viento	8.05
147051	7	Sololá	712	San Antonio Palopó	9	San Antonio Palopo	1	Enero	2023-09-01T00:00:00	2024-11-08T14:00:00	1	Precipitación	0
147052	7	Sololá	712	San Antonio Palopó	9	San Antonio Palopo	1	Enero	2023-09-01T00:00:00	2024-11-08T14:00:00	8	Radiación solar	304
147053	7	Sololá	712	San Antonio Palopó	9	San Antonio Palopo	1	Enero	2023-09-01T00:00:00	2024-11-08T15:00:00	2	Temperatura media	21.2
147054	7	Sololá	712	San Antonio Palopó	9	San Antonio Palopo	1	Enero	2023-09-01T00:00:00	2024-11-08T15:00:00	4	Temperatura máxima	22.4
147055	7	Sololá	712	San Antonio Palopó	9	San Antonio Palopo	1	Enero	2023-09-01T00:00:00	2024-11-08T15:00:00	3	Temperatura mínima	20.8
147056	7	Sololá	712	San Antonio Palopó	9	San Antonio Palopo	1	Enero	2023-09-01T00:00:00	2024-11-08T15:00:00	5	Humedad	73
147057	7	Sololá	712	San Antonio Palopó	9	San Antonio Palopo	1	Enero	2023-09-01T00:00:00	2024-11-08T15:00:00	6	Velocidad del viento	8
147058	7	Sololá	712	San Antonio Palopó	9	San Antonio Palopo	1	Enero	2023-09-01T00:00:00	2024-11-08T15:00:00	7	Dirección del viento	8.05
147059	7	Sololá	712	San Antonio Palopó	9	San Antonio Palopo	1	Enero	2023-09-01T00:00:00	2024-11-08T15:00:00	1	Precipitación	0
147060	7	Sololá	712	San Antonio Palopó	9	San Antonio Palopo	1	Enero	2023-09-01T00:00:00	2024-11-08T15:00:00	8	Radiación solar	305
147061	7	Sololá	712	San Antonio Palopó	9	San Antonio Palopo	1	Enero	2023-09-01T00:00:00	2024-11-08T16:00:00	2	Temperatura media	21.7
147062	7	Sololá	712	San Antonio Palopó	9	San Antonio Palopo	1	Enero	2023-09-01T00:00:00	2024-11-08T16:00:00	4	Temperatura máxima	22.6
147063	7	Sololá	712	San Antonio Palopó	9	San Antonio Palopo	1	Enero	2023-09-01T00:00:00	2024-11-08T16:00:00	3	Temperatura mínima	21.2
147064	7	Sololá	712	San Antonio Palopó	9	San Antonio Palopo	1	Enero	2023-09-01T00:00:00	2024-11-08T16:00:00	5	Humedad	73
147065	7	Sololá	712	San Antonio Palopó	9	San Antonio Palopo	1	Enero	2023-09-01T00:00:00	2024-11-08T16:00:00	6	Velocidad del viento	8
147066	7	Sololá	712	San Antonio Palopó	9	San Antonio Palopo	1	Enero	2023-09-01T00:00:00	2024-11-08T16:00:00	7	Dirección del viento	8.05
147067	7	Sololá	712	San Antonio Palopó	9	San Antonio Palopo	1	Enero	2023-09-01T00:00:00	2024-11-08T16:00:00	1	Precipitación	0
147068	7	Sololá	712	San Antonio Palopó	9	San Antonio Palopo	1	Enero	2023-09-01T00:00:00	2024-11-08T16:00:00	8	Radiación solar	377
147069	7	Sololá	712	San Antonio Palopó	9	San Antonio Palopo	1	Enero	2023-09-01T00:00:00	2024-11-08T17:00:00	2	Temperatura media	21.1
147070	7	Sololá	712	San Antonio Palopó	9	San Antonio Palopo	1	Enero	2023-09-01T00:00:00	2024-11-08T17:00:00	4	Temperatura máxima	22.6
147071	7	Sololá	712	San Antonio Palopó	9	San Antonio Palopo	1	Enero	2023-09-01T00:00:00	2024-11-08T17:00:00	3	Temperatura mínima	21
147072	7	Sololá	712	San Antonio Palopó	9	San Antonio Palopo	1	Enero	2023-09-01T00:00:00	2024-11-08T17:00:00	5	Humedad	72
147073	7	Sololá	712	San Antonio Palopó	9	San Antonio Palopo	1	Enero	2023-09-01T00:00:00	2024-11-08T17:00:00	6	Velocidad del viento	8
147074	7	Sololá	712	San Antonio Palopó	9	San Antonio Palopo	1	Enero	2023-09-01T00:00:00	2024-11-08T17:00:00	7	Dirección del viento	8.05
147075	7	Sololá	712	San Antonio Palopó	9	San Antonio Palopo	1	Enero	2023-09-01T00:00:00	2024-11-08T17:00:00	1	Precipitación	0
147076	7	Sololá	712	San Antonio Palopó	9	San Antonio Palopo	1	Enero	2023-09-01T00:00:00	2024-11-08T17:00:00	8	Radiación solar	237
147077	7	Sololá	712	San Antonio Palopó	9	San Antonio Palopo	1	Enero	2023-09-01T00:00:00	2024-11-08T18:00:00	2	Temperatura media	19.6
147078	7	Sololá	712	San Antonio Palopó	9	San Antonio Palopo	1	Enero	2023-09-01T00:00:00	2024-11-08T18:00:00	4	Temperatura máxima	21.4
147079	7	Sololá	712	San Antonio Palopó	9	San Antonio Palopo	1	Enero	2023-09-01T00:00:00	2024-11-08T18:00:00	3	Temperatura mínima	19.6
147080	7	Sololá	712	San Antonio Palopó	9	San Antonio Palopo	1	Enero	2023-09-01T00:00:00	2024-11-08T18:00:00	5	Humedad	74
147081	7	Sololá	712	San Antonio Palopó	9	San Antonio Palopo	1	Enero	2023-09-01T00:00:00	2024-11-08T18:00:00	6	Velocidad del viento	6.4
147082	7	Sololá	712	San Antonio Palopó	9	San Antonio Palopo	1	Enero	2023-09-01T00:00:00	2024-11-08T18:00:00	7	Dirección del viento	6.44
147083	7	Sololá	712	San Antonio Palopó	9	San Antonio Palopo	1	Enero	2023-09-01T00:00:00	2024-11-08T18:00:00	1	Precipitación	0
147084	7	Sololá	712	San Antonio Palopó	9	San Antonio Palopo	1	Enero	2023-09-01T00:00:00	2024-11-08T18:00:00	8	Radiación solar	32
147085	7	Sololá	712	San Antonio Palopó	9	San Antonio Palopo	1	Enero	2023-09-01T00:00:00	2024-11-08T19:00:00	2	Temperatura media	18.4
147086	7	Sololá	712	San Antonio Palopó	9	San Antonio Palopo	1	Enero	2023-09-01T00:00:00	2024-11-08T19:00:00	4	Temperatura máxima	19.6
147087	7	Sololá	712	San Antonio Palopó	9	San Antonio Palopo	1	Enero	2023-09-01T00:00:00	2024-11-08T19:00:00	3	Temperatura mínima	18.3
147088	7	Sololá	712	San Antonio Palopó	9	San Antonio Palopo	1	Enero	2023-09-01T00:00:00	2024-11-08T19:00:00	5	Humedad	79
147089	7	Sololá	712	San Antonio Palopó	9	San Antonio Palopo	1	Enero	2023-09-01T00:00:00	2024-11-08T19:00:00	6	Velocidad del viento	4.8
147090	7	Sololá	712	San Antonio Palopó	9	San Antonio Palopo	1	Enero	2023-09-01T00:00:00	2024-11-08T19:00:00	7	Dirección del viento	4.83
147091	7	Sololá	712	San Antonio Palopó	9	San Antonio Palopo	1	Enero	2023-09-01T00:00:00	2024-11-08T19:00:00	1	Precipitación	0
147092	7	Sololá	712	San Antonio Palopó	9	San Antonio Palopo	1	Enero	2023-09-01T00:00:00	2024-11-08T19:00:00	8	Radiación solar	0
147093	7	Sololá	712	San Antonio Palopó	9	San Antonio Palopo	1	Enero	2023-09-01T00:00:00	2024-11-08T20:00:00	2	Temperatura media	18.4
147094	7	Sololá	712	San Antonio Palopó	9	San Antonio Palopo	1	Enero	2023-09-01T00:00:00	2024-11-08T20:00:00	4	Temperatura máxima	18.4
147095	7	Sololá	712	San Antonio Palopó	9	San Antonio Palopo	1	Enero	2023-09-01T00:00:00	2024-11-08T20:00:00	3	Temperatura mínima	17.4
147096	7	Sololá	712	San Antonio Palopó	9	San Antonio Palopo	1	Enero	2023-09-01T00:00:00	2024-11-08T20:00:00	5	Humedad	71
147097	7	Sololá	712	San Antonio Palopó	9	San Antonio Palopo	1	Enero	2023-09-01T00:00:00	2024-11-08T20:00:00	6	Velocidad del viento	3.2
147098	7	Sololá	712	San Antonio Palopó	9	San Antonio Palopo	1	Enero	2023-09-01T00:00:00	2024-11-08T20:00:00	7	Dirección del viento	3.22
147099	7	Sololá	712	San Antonio Palopó	9	San Antonio Palopo	1	Enero	2023-09-01T00:00:00	2024-11-08T20:00:00	1	Precipitación	0
147100	7	Sololá	712	San Antonio Palopó	9	San Antonio Palopo	1	Enero	2023-09-01T00:00:00	2024-11-08T20:00:00	8	Radiación solar	0
147101	7	Sololá	712	San Antonio Palopó	9	San Antonio Palopo	1	Enero	2023-09-01T00:00:00	2024-11-08T21:00:00	2	Temperatura media	18.2
147102	7	Sololá	712	San Antonio Palopó	9	San Antonio Palopo	1	Enero	2023-09-01T00:00:00	2024-11-08T21:00:00	4	Temperatura máxima	18.6
147103	7	Sololá	712	San Antonio Palopó	9	San Antonio Palopo	1	Enero	2023-09-01T00:00:00	2024-11-08T21:00:00	3	Temperatura mínima	18.1
147104	7	Sololá	712	San Antonio Palopó	9	San Antonio Palopo	1	Enero	2023-09-01T00:00:00	2024-11-08T21:00:00	5	Humedad	73
147105	7	Sololá	712	San Antonio Palopó	9	San Antonio Palopo	1	Enero	2023-09-01T00:00:00	2024-11-08T21:00:00	6	Velocidad del viento	4.8
147106	7	Sololá	712	San Antonio Palopó	9	San Antonio Palopo	1	Enero	2023-09-01T00:00:00	2024-11-08T21:00:00	7	Dirección del viento	4.83
147107	7	Sololá	712	San Antonio Palopó	9	San Antonio Palopo	1	Enero	2023-09-01T00:00:00	2024-11-08T21:00:00	1	Precipitación	0
147108	7	Sololá	712	San Antonio Palopó	9	San Antonio Palopo	1	Enero	2023-09-01T00:00:00	2024-11-08T21:00:00	8	Radiación solar	0
147109	7	Sololá	712	San Antonio Palopó	9	San Antonio Palopo	1	Enero	2023-09-01T00:00:00	2024-11-08T22:00:00	2	Temperatura media	18
147110	7	Sololá	712	San Antonio Palopó	9	San Antonio Palopo	1	Enero	2023-09-01T00:00:00	2024-11-08T22:00:00	4	Temperatura máxima	18.4
147111	7	Sololá	712	San Antonio Palopó	9	San Antonio Palopo	1	Enero	2023-09-01T00:00:00	2024-11-08T22:00:00	3	Temperatura mínima	18
147112	7	Sololá	712	San Antonio Palopó	9	San Antonio Palopo	1	Enero	2023-09-01T00:00:00	2024-11-08T22:00:00	5	Humedad	73
147113	7	Sololá	712	San Antonio Palopó	9	San Antonio Palopo	1	Enero	2023-09-01T00:00:00	2024-11-08T22:00:00	6	Velocidad del viento	9.7
147114	7	Sololá	712	San Antonio Palopó	9	San Antonio Palopo	1	Enero	2023-09-01T00:00:00	2024-11-08T22:00:00	7	Dirección del viento	9.66
147115	7	Sololá	712	San Antonio Palopó	9	San Antonio Palopo	1	Enero	2023-09-01T00:00:00	2024-11-08T22:00:00	1	Precipitación	0
147116	7	Sololá	712	San Antonio Palopó	9	San Antonio Palopo	1	Enero	2023-09-01T00:00:00	2024-11-08T22:00:00	8	Radiación solar	0
147117	7	Sololá	712	San Antonio Palopó	9	San Antonio Palopo	1	Enero	2023-09-01T00:00:00	2024-11-08T23:00:00	2	Temperatura media	17.7
147118	7	Sololá	712	San Antonio Palopó	9	San Antonio Palopo	1	Enero	2023-09-01T00:00:00	2024-11-08T23:00:00	4	Temperatura máxima	18.1
147119	7	Sololá	712	San Antonio Palopó	9	San Antonio Palopo	1	Enero	2023-09-01T00:00:00	2024-11-08T23:00:00	3	Temperatura mínima	17.7
147120	7	Sololá	712	San Antonio Palopó	9	San Antonio Palopo	1	Enero	2023-09-01T00:00:00	2024-11-08T23:00:00	5	Humedad	73
147121	7	Sololá	712	San Antonio Palopó	9	San Antonio Palopo	1	Enero	2023-09-01T00:00:00	2024-11-08T23:00:00	6	Velocidad del viento	8
147122	7	Sololá	712	San Antonio Palopó	9	San Antonio Palopo	1	Enero	2023-09-01T00:00:00	2024-11-08T23:00:00	7	Dirección del viento	8.05
147123	7	Sololá	712	San Antonio Palopó	9	San Antonio Palopo	1	Enero	2023-09-01T00:00:00	2024-11-08T23:00:00	1	Precipitación	0
147124	7	Sololá	712	San Antonio Palopó	9	San Antonio Palopo	1	Enero	2023-09-01T00:00:00	2024-11-08T23:00:00	8	Radiación solar	0
147125	7	Sololá	712	San Antonio Palopó	9	San Antonio Palopo	1	Enero	2023-10-01T00:00:00	2024-11-08T00:00:00	2	Temperatura media	17.4
147126	7	Sololá	712	San Antonio Palopó	9	San Antonio Palopo	1	Enero	2023-10-01T00:00:00	2024-11-08T00:00:00	4	Temperatura máxima	17.8
147127	7	Sololá	712	San Antonio Palopó	9	San Antonio Palopo	1	Enero	2023-10-01T00:00:00	2024-11-08T00:00:00	3	Temperatura mínima	17.2
147128	7	Sololá	712	San Antonio Palopó	9	San Antonio Palopo	1	Enero	2023-10-01T00:00:00	2024-11-08T00:00:00	5	Humedad	73
147129	7	Sololá	712	San Antonio Palopó	9	San Antonio Palopo	1	Enero	2023-10-01T00:00:00	2024-11-08T00:00:00	6	Velocidad del viento	9.7
147130	7	Sololá	712	San Antonio Palopó	9	San Antonio Palopo	1	Enero	2023-10-01T00:00:00	2024-11-08T00:00:00	7	Dirección del viento	9.66
147131	7	Sololá	712	San Antonio Palopó	9	San Antonio Palopo	1	Enero	2023-10-01T00:00:00	2024-11-08T00:00:00	1	Precipitación	0
147132	7	Sololá	712	San Antonio Palopó	9	San Antonio Palopo	1	Enero	2023-10-01T00:00:00	2024-11-08T00:00:00	8	Radiación solar	0
147133	7	Sololá	712	San Antonio Palopó	9	San Antonio Palopo	1	Enero	2023-10-01T00:00:00	2024-11-08T01:00:00	2	Temperatura media	17.4
147134	7	Sololá	712	San Antonio Palopó	9	San Antonio Palopo	1	Enero	2023-10-01T00:00:00	2024-11-08T01:00:00	4	Temperatura máxima	17.9
147135	7	Sololá	712	San Antonio Palopó	9	San Antonio Palopo	1	Enero	2023-10-01T00:00:00	2024-11-08T01:00:00	3	Temperatura mínima	17.2
147136	7	Sololá	712	San Antonio Palopó	9	San Antonio Palopo	1	Enero	2023-10-01T00:00:00	2024-11-08T01:00:00	5	Humedad	73
147137	7	Sololá	712	San Antonio Palopó	9	San Antonio Palopo	1	Enero	2023-10-01T00:00:00	2024-11-08T01:00:00	6	Velocidad del viento	8
147138	7	Sololá	712	San Antonio Palopó	9	San Antonio Palopo	1	Enero	2023-10-01T00:00:00	2024-11-08T01:00:00	7	Dirección del viento	8.05
147139	7	Sololá	712	San Antonio Palopó	9	San Antonio Palopo	1	Enero	2023-10-01T00:00:00	2024-11-08T01:00:00	1	Precipitación	0
147140	7	Sololá	712	San Antonio Palopó	9	San Antonio Palopo	1	Enero	2023-10-01T00:00:00	2024-11-08T01:00:00	8	Radiación solar	0
147141	7	Sololá	712	San Antonio Palopó	9	San Antonio Palopo	1	Enero	2023-10-01T00:00:00	2024-11-08T02:00:00	2	Temperatura media	17.1
147142	7	Sololá	712	San Antonio Palopó	9	San Antonio Palopo	1	Enero	2023-10-01T00:00:00	2024-11-08T02:00:00	4	Temperatura máxima	17.5
147143	7	Sololá	712	San Antonio Palopó	9	San Antonio Palopo	1	Enero	2023-10-01T00:00:00	2024-11-08T02:00:00	3	Temperatura mínima	16.9
147144	7	Sololá	712	San Antonio Palopó	9	San Antonio Palopo	1	Enero	2023-10-01T00:00:00	2024-11-08T02:00:00	5	Humedad	73
147145	7	Sololá	712	San Antonio Palopó	9	San Antonio Palopo	1	Enero	2023-10-01T00:00:00	2024-11-08T02:00:00	6	Velocidad del viento	9.7
147146	7	Sololá	712	San Antonio Palopó	9	San Antonio Palopo	1	Enero	2023-10-01T00:00:00	2024-11-08T02:00:00	7	Dirección del viento	9.66
147147	7	Sololá	712	San Antonio Palopó	9	San Antonio Palopo	1	Enero	2023-10-01T00:00:00	2024-11-08T02:00:00	1	Precipitación	0
147148	7	Sololá	712	San Antonio Palopó	9	San Antonio Palopo	1	Enero	2023-10-01T00:00:00	2024-11-08T02:00:00	8	Radiación solar	0
147149	7	Sololá	712	San Antonio Palopó	9	San Antonio Palopo	1	Enero	2023-10-01T00:00:00	2024-11-08T03:00:00	2	Temperatura media	17.2
147150	7	Sololá	712	San Antonio Palopó	9	San Antonio Palopo	1	Enero	2023-10-01T00:00:00	2024-11-08T03:00:00	4	Temperatura máxima	17.4
147151	7	Sololá	712	San Antonio Palopó	9	San Antonio Palopo	1	Enero	2023-10-01T00:00:00	2024-11-08T03:00:00	3	Temperatura mínima	17
147152	7	Sololá	712	San Antonio Palopó	9	San Antonio Palopo	1	Enero	2023-10-01T00:00:00	2024-11-08T03:00:00	5	Humedad	70
147153	7	Sololá	712	San Antonio Palopó	9	San Antonio Palopo	1	Enero	2023-10-01T00:00:00	2024-11-08T03:00:00	6	Velocidad del viento	11.3
147154	7	Sololá	712	San Antonio Palopó	9	San Antonio Palopo	1	Enero	2023-10-01T00:00:00	2024-11-08T03:00:00	7	Dirección del viento	11.27
147155	7	Sololá	712	San Antonio Palopó	9	San Antonio Palopo	1	Enero	2023-10-01T00:00:00	2024-11-08T03:00:00	1	Precipitación	0
147156	7	Sololá	712	San Antonio Palopó	9	San Antonio Palopo	1	Enero	2023-10-01T00:00:00	2024-11-08T03:00:00	8	Radiación solar	0
147157	7	Sololá	712	San Antonio Palopó	9	San Antonio Palopo	1	Enero	2023-10-01T00:00:00	2024-11-08T04:00:00	2	Temperatura media	16.6
147158	7	Sololá	712	San Antonio Palopó	9	San Antonio Palopo	1	Enero	2023-10-01T00:00:00	2024-11-08T04:00:00	4	Temperatura máxima	17.3
147159	7	Sololá	712	San Antonio Palopó	9	San Antonio Palopo	1	Enero	2023-10-01T00:00:00	2024-11-08T04:00:00	3	Temperatura mínima	16.6
147160	7	Sololá	712	San Antonio Palopó	9	San Antonio Palopo	1	Enero	2023-10-01T00:00:00	2024-11-08T04:00:00	5	Humedad	71
147161	7	Sololá	712	San Antonio Palopó	9	San Antonio Palopo	1	Enero	2023-10-01T00:00:00	2024-11-08T04:00:00	6	Velocidad del viento	12.9
147162	7	Sololá	712	San Antonio Palopó	9	San Antonio Palopo	1	Enero	2023-10-01T00:00:00	2024-11-08T04:00:00	7	Dirección del viento	12.87
147163	7	Sololá	712	San Antonio Palopó	9	San Antonio Palopo	1	Enero	2023-10-01T00:00:00	2024-11-08T04:00:00	1	Precipitación	0
147164	7	Sololá	712	San Antonio Palopó	9	San Antonio Palopo	1	Enero	2023-10-01T00:00:00	2024-11-08T04:00:00	8	Radiación solar	0
147165	7	Sololá	712	San Antonio Palopó	9	San Antonio Palopo	1	Enero	2023-10-01T00:00:00	2024-11-08T05:00:00	2	Temperatura media	16.7
147166	7	Sololá	712	San Antonio Palopó	9	San Antonio Palopo	1	Enero	2023-10-01T00:00:00	2024-11-08T05:00:00	4	Temperatura máxima	16.8
147167	7	Sololá	712	San Antonio Palopó	9	San Antonio Palopo	1	Enero	2023-10-01T00:00:00	2024-11-08T05:00:00	3	Temperatura mínima	16.6
147168	7	Sololá	712	San Antonio Palopó	9	San Antonio Palopo	1	Enero	2023-10-01T00:00:00	2024-11-08T05:00:00	5	Humedad	69
147169	7	Sololá	712	San Antonio Palopó	9	San Antonio Palopo	1	Enero	2023-10-01T00:00:00	2024-11-08T05:00:00	6	Velocidad del viento	12.9
147170	7	Sololá	712	San Antonio Palopó	9	San Antonio Palopo	1	Enero	2023-10-01T00:00:00	2024-11-08T05:00:00	7	Dirección del viento	12.87
147171	7	Sololá	712	San Antonio Palopó	9	San Antonio Palopo	1	Enero	2023-10-01T00:00:00	2024-11-08T05:00:00	1	Precipitación	0
147172	7	Sololá	712	San Antonio Palopó	9	San Antonio Palopo	1	Enero	2023-10-01T00:00:00	2024-11-08T05:00:00	8	Radiación solar	0
147173	7	Sololá	712	San Antonio Palopó	9	San Antonio Palopo	1	Enero	2023-10-01T00:00:00	2024-11-08T06:00:00	2	Temperatura media	16.7
147174	7	Sololá	712	San Antonio Palopó	9	San Antonio Palopo	1	Enero	2023-10-01T00:00:00	2024-11-08T06:00:00	4	Temperatura máxima	16.9
147175	7	Sololá	712	San Antonio Palopó	9	San Antonio Palopo	1	Enero	2023-10-01T00:00:00	2024-11-08T06:00:00	3	Temperatura mínima	16.6
147176	7	Sololá	712	San Antonio Palopó	9	San Antonio Palopo	1	Enero	2023-10-01T00:00:00	2024-11-08T06:00:00	5	Humedad	70
147177	7	Sololá	712	San Antonio Palopó	9	San Antonio Palopo	1	Enero	2023-10-01T00:00:00	2024-11-08T06:00:00	6	Velocidad del viento	9.7
147178	7	Sololá	712	San Antonio Palopó	9	San Antonio Palopo	1	Enero	2023-10-01T00:00:00	2024-11-08T06:00:00	7	Dirección del viento	9.66
147179	7	Sololá	712	San Antonio Palopó	9	San Antonio Palopo	1	Enero	2023-10-01T00:00:00	2024-11-08T06:00:00	1	Precipitación	0
147180	7	Sololá	712	San Antonio Palopó	9	San Antonio Palopo	1	Enero	2023-10-01T00:00:00	2024-11-08T06:00:00	8	Radiación solar	0
147181	7	Sololá	712	San Antonio Palopó	9	San Antonio Palopo	1	Enero	2023-10-01T00:00:00	2024-11-08T07:00:00	2	Temperatura media	16.6
147182	7	Sololá	712	San Antonio Palopó	9	San Antonio Palopo	1	Enero	2023-10-01T00:00:00	2024-11-08T07:00:00	4	Temperatura máxima	16.8
147183	7	Sololá	712	San Antonio Palopó	9	San Antonio Palopo	1	Enero	2023-10-01T00:00:00	2024-11-08T07:00:00	3	Temperatura mínima	16.3
147184	7	Sololá	712	San Antonio Palopó	9	San Antonio Palopo	1	Enero	2023-10-01T00:00:00	2024-11-08T07:00:00	5	Humedad	71
147185	7	Sololá	712	San Antonio Palopó	9	San Antonio Palopo	1	Enero	2023-10-01T00:00:00	2024-11-08T07:00:00	6	Velocidad del viento	12.9
147186	7	Sololá	712	San Antonio Palopó	9	San Antonio Palopo	1	Enero	2023-10-01T00:00:00	2024-11-08T07:00:00	7	Dirección del viento	12.87
147187	7	Sololá	712	San Antonio Palopó	9	San Antonio Palopo	1	Enero	2023-10-01T00:00:00	2024-11-08T07:00:00	1	Precipitación	0
147188	7	Sololá	712	San Antonio Palopó	9	San Antonio Palopo	1	Enero	2023-10-01T00:00:00	2024-11-08T07:00:00	8	Radiación solar	3
147189	7	Sololá	712	San Antonio Palopó	9	San Antonio Palopo	1	Enero	2023-10-01T00:00:00	2024-11-08T08:00:00	2	Temperatura media	17.2
147190	7	Sololá	712	San Antonio Palopó	9	San Antonio Palopo	1	Enero	2023-10-01T00:00:00	2024-11-08T08:00:00	4	Temperatura máxima	17.2
147191	7	Sololá	712	San Antonio Palopó	9	San Antonio Palopo	1	Enero	2023-10-01T00:00:00	2024-11-08T08:00:00	3	Temperatura mínima	16.4
147192	7	Sololá	712	San Antonio Palopó	9	San Antonio Palopo	1	Enero	2023-10-01T00:00:00	2024-11-08T08:00:00	5	Humedad	69
147193	7	Sololá	712	San Antonio Palopó	9	San Antonio Palopo	1	Enero	2023-10-01T00:00:00	2024-11-08T08:00:00	6	Velocidad del viento	9.7
147194	7	Sololá	712	San Antonio Palopó	9	San Antonio Palopo	1	Enero	2023-10-01T00:00:00	2024-11-08T08:00:00	7	Dirección del viento	9.66
147195	7	Sololá	712	San Antonio Palopó	9	San Antonio Palopo	1	Enero	2023-10-01T00:00:00	2024-11-08T08:00:00	1	Precipitación	0
147196	7	Sololá	712	San Antonio Palopó	9	San Antonio Palopo	1	Enero	2023-10-01T00:00:00	2024-11-08T08:00:00	8	Radiación solar	16
147197	7	Sololá	712	San Antonio Palopó	9	San Antonio Palopo	1	Enero	2023-10-01T00:00:00	2024-11-08T09:00:00	2	Temperatura media	17.2
147198	7	Sololá	712	San Antonio Palopó	9	San Antonio Palopo	1	Enero	2023-10-01T00:00:00	2024-11-08T09:00:00	4	Temperatura máxima	17.4
147199	7	Sololá	712	San Antonio Palopó	9	San Antonio Palopo	1	Enero	2023-10-01T00:00:00	2024-11-08T09:00:00	3	Temperatura mínima	16.2
147200	7	Sololá	712	San Antonio Palopó	9	San Antonio Palopo	1	Enero	2023-10-01T00:00:00	2024-11-08T09:00:00	5	Humedad	75
147201	7	Sololá	712	San Antonio Palopó	9	San Antonio Palopo	1	Enero	2023-10-01T00:00:00	2024-11-08T09:00:00	6	Velocidad del viento	1.6
147202	7	Sololá	712	San Antonio Palopó	9	San Antonio Palopo	1	Enero	2023-10-01T00:00:00	2024-11-08T09:00:00	7	Dirección del viento	1.61
147203	7	Sololá	712	San Antonio Palopó	9	San Antonio Palopo	1	Enero	2023-10-01T00:00:00	2024-11-08T09:00:00	1	Precipitación	0
147204	7	Sololá	712	San Antonio Palopó	9	San Antonio Palopo	1	Enero	2023-10-01T00:00:00	2024-11-08T09:00:00	8	Radiación solar	102
147205	7	Sololá	712	San Antonio Palopó	9	San Antonio Palopo	1	Enero	2023-10-01T00:00:00	2024-11-08T10:00:00	2	Temperatura media	19.2
147206	7	Sololá	712	San Antonio Palopó	9	San Antonio Palopo	1	Enero	2023-10-01T00:00:00	2024-11-08T10:00:00	4	Temperatura máxima	19.5
147207	7	Sololá	712	San Antonio Palopó	9	San Antonio Palopo	1	Enero	2023-10-01T00:00:00	2024-11-08T10:00:00	3	Temperatura mínima	17.2
147208	7	Sololá	712	San Antonio Palopó	9	San Antonio Palopo	1	Enero	2023-10-01T00:00:00	2024-11-08T10:00:00	5	Humedad	70
147209	7	Sololá	712	San Antonio Palopó	9	San Antonio Palopo	1	Enero	2023-10-01T00:00:00	2024-11-08T10:00:00	6	Velocidad del viento	3.2
147210	7	Sololá	712	San Antonio Palopó	9	San Antonio Palopo	1	Enero	2023-10-01T00:00:00	2024-11-08T10:00:00	7	Dirección del viento	3.22
147211	7	Sololá	712	San Antonio Palopó	9	San Antonio Palopo	1	Enero	2023-10-01T00:00:00	2024-11-08T10:00:00	1	Precipitación	0
147212	7	Sololá	712	San Antonio Palopó	9	San Antonio Palopo	1	Enero	2023-10-01T00:00:00	2024-11-08T10:00:00	8	Radiación solar	502
147213	7	Sololá	712	San Antonio Palopó	9	San Antonio Palopo	1	Enero	2023-10-01T00:00:00	2024-11-08T11:00:00	2	Temperatura media	20.3
147214	7	Sololá	712	San Antonio Palopó	9	San Antonio Palopo	1	Enero	2023-10-01T00:00:00	2024-11-08T11:00:00	4	Temperatura máxima	20.4
147215	7	Sololá	712	San Antonio Palopó	9	San Antonio Palopo	1	Enero	2023-10-01T00:00:00	2024-11-08T11:00:00	3	Temperatura mínima	19
147216	7	Sololá	712	San Antonio Palopó	9	San Antonio Palopo	1	Enero	2023-10-01T00:00:00	2024-11-08T11:00:00	5	Humedad	65
147217	7	Sololá	712	San Antonio Palopó	9	San Antonio Palopo	1	Enero	2023-10-01T00:00:00	2024-11-08T11:00:00	6	Velocidad del viento	1.6
147218	7	Sololá	712	San Antonio Palopó	9	San Antonio Palopo	1	Enero	2023-10-01T00:00:00	2024-11-08T11:00:00	7	Dirección del viento	1.61
147219	7	Sololá	712	San Antonio Palopó	9	San Antonio Palopo	1	Enero	2023-10-01T00:00:00	2024-11-08T11:00:00	1	Precipitación	0
147220	7	Sololá	712	San Antonio Palopó	9	San Antonio Palopo	1	Enero	2023-10-01T00:00:00	2024-11-08T11:00:00	8	Radiación solar	346
147221	7	Sololá	712	San Antonio Palopó	9	San Antonio Palopo	1	Enero	2023-10-01T00:00:00	2024-11-08T12:00:00	2	Temperatura media	21.6
147222	7	Sololá	712	San Antonio Palopó	9	San Antonio Palopo	1	Enero	2023-10-01T00:00:00	2024-11-08T12:00:00	4	Temperatura máxima	21.6
147223	7	Sololá	712	San Antonio Palopó	9	San Antonio Palopo	1	Enero	2023-10-01T00:00:00	2024-11-08T12:00:00	3	Temperatura mínima	20.4
147224	7	Sololá	712	San Antonio Palopó	9	San Antonio Palopo	1	Enero	2023-10-01T00:00:00	2024-11-08T12:00:00	5	Humedad	68
147225	7	Sololá	712	San Antonio Palopó	9	San Antonio Palopo	1	Enero	2023-10-01T00:00:00	2024-11-08T12:00:00	6	Velocidad del viento	3.2
147226	7	Sololá	712	San Antonio Palopó	9	San Antonio Palopo	1	Enero	2023-10-01T00:00:00	2024-11-08T12:00:00	7	Dirección del viento	3.22
147227	7	Sololá	712	San Antonio Palopó	9	San Antonio Palopo	1	Enero	2023-10-01T00:00:00	2024-11-08T12:00:00	1	Precipitación	0
147228	7	Sololá	712	San Antonio Palopó	9	San Antonio Palopo	1	Enero	2023-10-01T00:00:00	2024-11-08T12:00:00	8	Radiación solar	541
147229	7	Sololá	712	San Antonio Palopó	9	San Antonio Palopo	1	Enero	2023-10-01T00:00:00	2024-11-08T13:00:00	2	Temperatura media	21.7
147230	7	Sololá	712	San Antonio Palopó	9	San Antonio Palopo	1	Enero	2023-10-01T00:00:00	2024-11-08T13:00:00	4	Temperatura máxima	23.1
147231	7	Sololá	712	San Antonio Palopó	9	San Antonio Palopo	1	Enero	2023-10-01T00:00:00	2024-11-08T13:00:00	3	Temperatura mínima	21.6
147232	7	Sololá	712	San Antonio Palopó	9	San Antonio Palopo	1	Enero	2023-10-01T00:00:00	2024-11-08T13:00:00	5	Humedad	71
147233	7	Sololá	712	San Antonio Palopó	9	San Antonio Palopo	1	Enero	2023-10-01T00:00:00	2024-11-08T13:00:00	6	Velocidad del viento	9.7
147234	7	Sololá	712	San Antonio Palopó	9	San Antonio Palopo	1	Enero	2023-10-01T00:00:00	2024-11-08T13:00:00	7	Dirección del viento	9.66
147235	7	Sololá	712	San Antonio Palopó	9	San Antonio Palopo	1	Enero	2023-10-01T00:00:00	2024-11-08T13:00:00	1	Precipitación	0
147236	7	Sololá	712	San Antonio Palopó	9	San Antonio Palopo	1	Enero	2023-10-01T00:00:00	2024-11-08T13:00:00	8	Radiación solar	648
147237	7	Sololá	712	San Antonio Palopó	9	San Antonio Palopo	1	Enero	2023-10-01T00:00:00	2024-11-08T14:00:00	2	Temperatura media	21.1
147238	7	Sololá	712	San Antonio Palopó	9	San Antonio Palopo	1	Enero	2023-10-01T00:00:00	2024-11-08T14:00:00	4	Temperatura máxima	22.1
147239	7	Sololá	712	San Antonio Palopó	9	San Antonio Palopo	1	Enero	2023-10-01T00:00:00	2024-11-08T14:00:00	3	Temperatura mínima	20.8
147240	7	Sololá	712	San Antonio Palopó	9	San Antonio Palopo	1	Enero	2023-10-01T00:00:00	2024-11-08T14:00:00	5	Humedad	77
147241	7	Sololá	712	San Antonio Palopó	9	San Antonio Palopo	1	Enero	2023-10-01T00:00:00	2024-11-08T14:00:00	6	Velocidad del viento	9.7
147242	7	Sololá	712	San Antonio Palopó	9	San Antonio Palopo	1	Enero	2023-10-01T00:00:00	2024-11-08T14:00:00	7	Dirección del viento	9.66
147243	7	Sololá	712	San Antonio Palopó	9	San Antonio Palopo	1	Enero	2023-10-01T00:00:00	2024-11-08T14:00:00	1	Precipitación	0
147244	7	Sololá	712	San Antonio Palopó	9	San Antonio Palopo	1	Enero	2023-10-01T00:00:00	2024-11-08T14:00:00	8	Radiación solar	436
147245	7	Sololá	712	San Antonio Palopó	9	San Antonio Palopo	1	Enero	2023-10-01T00:00:00	2024-11-08T15:00:00	2	Temperatura media	20.7
147246	7	Sololá	712	San Antonio Palopó	9	San Antonio Palopo	1	Enero	2023-10-01T00:00:00	2024-11-08T15:00:00	4	Temperatura máxima	21.4
147247	7	Sololá	712	San Antonio Palopó	9	San Antonio Palopo	1	Enero	2023-10-01T00:00:00	2024-11-08T15:00:00	3	Temperatura mínima	20.5
147248	7	Sololá	712	San Antonio Palopó	9	San Antonio Palopo	1	Enero	2023-10-01T00:00:00	2024-11-08T15:00:00	5	Humedad	77
147249	7	Sololá	712	San Antonio Palopó	9	San Antonio Palopo	1	Enero	2023-10-01T00:00:00	2024-11-08T15:00:00	6	Velocidad del viento	6.4
147250	7	Sololá	712	San Antonio Palopó	9	San Antonio Palopo	1	Enero	2023-10-01T00:00:00	2024-11-08T15:00:00	7	Dirección del viento	6.44
147251	7	Sololá	712	San Antonio Palopó	9	San Antonio Palopo	1	Enero	2023-10-01T00:00:00	2024-11-08T15:00:00	1	Precipitación	0
147252	7	Sololá	712	San Antonio Palopó	9	San Antonio Palopo	1	Enero	2023-10-01T00:00:00	2024-11-08T15:00:00	8	Radiación solar	223
147253	7	Sololá	712	San Antonio Palopó	9	San Antonio Palopo	1	Enero	2023-10-01T00:00:00	2024-11-08T16:00:00	2	Temperatura media	19.8
147254	7	Sololá	712	San Antonio Palopó	9	San Antonio Palopo	1	Enero	2023-10-01T00:00:00	2024-11-08T16:00:00	4	Temperatura máxima	21.4
147255	7	Sololá	712	San Antonio Palopó	9	San Antonio Palopo	1	Enero	2023-10-01T00:00:00	2024-11-08T16:00:00	3	Temperatura mínima	19.7
147256	7	Sololá	712	San Antonio Palopó	9	San Antonio Palopo	1	Enero	2023-10-01T00:00:00	2024-11-08T16:00:00	5	Humedad	81
147257	7	Sololá	712	San Antonio Palopó	9	San Antonio Palopo	1	Enero	2023-10-01T00:00:00	2024-11-08T16:00:00	6	Velocidad del viento	8
147258	7	Sololá	712	San Antonio Palopó	9	San Antonio Palopo	1	Enero	2023-10-01T00:00:00	2024-11-08T16:00:00	7	Dirección del viento	8.05
147259	7	Sololá	712	San Antonio Palopó	9	San Antonio Palopo	1	Enero	2023-10-01T00:00:00	2024-11-08T16:00:00	1	Precipitación	0
147260	7	Sololá	712	San Antonio Palopó	9	San Antonio Palopo	1	Enero	2023-10-01T00:00:00	2024-11-08T16:00:00	8	Radiación solar	157
147261	7	Sololá	712	San Antonio Palopó	9	San Antonio Palopo	1	Enero	2023-10-01T00:00:00	2024-11-08T17:00:00	2	Temperatura media	20.6
147262	7	Sololá	712	San Antonio Palopó	9	San Antonio Palopo	1	Enero	2023-10-01T00:00:00	2024-11-08T17:00:00	4	Temperatura máxima	20.7
147263	7	Sololá	712	San Antonio Palopó	9	San Antonio Palopo	1	Enero	2023-10-01T00:00:00	2024-11-08T17:00:00	3	Temperatura mínima	19.7
147264	7	Sololá	712	San Antonio Palopó	9	San Antonio Palopo	1	Enero	2023-10-01T00:00:00	2024-11-08T17:00:00	5	Humedad	77
147265	7	Sololá	712	San Antonio Palopó	9	San Antonio Palopo	1	Enero	2023-10-01T00:00:00	2024-11-08T17:00:00	6	Velocidad del viento	4.8
147266	7	Sololá	712	San Antonio Palopó	9	San Antonio Palopo	1	Enero	2023-10-01T00:00:00	2024-11-08T17:00:00	7	Dirección del viento	4.83
147267	7	Sololá	712	San Antonio Palopó	9	San Antonio Palopo	1	Enero	2023-10-01T00:00:00	2024-11-08T17:00:00	1	Precipitación	0
147268	7	Sololá	712	San Antonio Palopó	9	San Antonio Palopo	1	Enero	2023-10-01T00:00:00	2024-11-08T17:00:00	8	Radiación solar	90
147269	7	Sololá	712	San Antonio Palopó	9	San Antonio Palopo	1	Enero	2023-10-01T00:00:00	2024-11-08T18:00:00	2	Temperatura media	19.2
147270	7	Sololá	712	San Antonio Palopó	9	San Antonio Palopo	1	Enero	2023-10-01T00:00:00	2024-11-08T18:00:00	4	Temperatura máxima	20.6
147271	7	Sololá	712	San Antonio Palopó	9	San Antonio Palopo	1	Enero	2023-10-01T00:00:00	2024-11-08T18:00:00	3	Temperatura mínima	19.2
147272	7	Sololá	712	San Antonio Palopó	9	San Antonio Palopo	1	Enero	2023-10-01T00:00:00	2024-11-08T18:00:00	5	Humedad	81
147273	7	Sololá	712	San Antonio Palopó	9	San Antonio Palopo	1	Enero	2023-10-01T00:00:00	2024-11-08T18:00:00	6	Velocidad del viento	1.6
147274	7	Sololá	712	San Antonio Palopó	9	San Antonio Palopo	1	Enero	2023-10-01T00:00:00	2024-11-08T18:00:00	7	Dirección del viento	1.61
147275	7	Sololá	712	San Antonio Palopó	9	San Antonio Palopo	1	Enero	2023-10-01T00:00:00	2024-11-08T18:00:00	1	Precipitación	0
147276	7	Sololá	712	San Antonio Palopó	9	San Antonio Palopo	1	Enero	2023-10-01T00:00:00	2024-11-08T18:00:00	8	Radiación solar	21
147277	7	Sololá	712	San Antonio Palopó	9	San Antonio Palopo	1	Enero	2023-10-01T00:00:00	2024-11-08T19:00:00	2	Temperatura media	18.9
147278	7	Sololá	712	San Antonio Palopó	9	San Antonio Palopo	1	Enero	2023-10-01T00:00:00	2024-11-08T19:00:00	4	Temperatura máxima	19.4
147279	7	Sololá	712	San Antonio Palopó	9	San Antonio Palopo	1	Enero	2023-10-01T00:00:00	2024-11-08T19:00:00	3	Temperatura mínima	18.8
147280	7	Sololá	712	San Antonio Palopó	9	San Antonio Palopo	1	Enero	2023-10-01T00:00:00	2024-11-08T19:00:00	5	Humedad	70
147281	7	Sololá	712	San Antonio Palopó	9	San Antonio Palopo	1	Enero	2023-10-01T00:00:00	2024-11-08T19:00:00	6	Velocidad del viento	6.4
147282	7	Sololá	712	San Antonio Palopó	9	San Antonio Palopo	1	Enero	2023-10-01T00:00:00	2024-11-08T19:00:00	7	Dirección del viento	6.44
147283	7	Sololá	712	San Antonio Palopó	9	San Antonio Palopo	1	Enero	2023-10-01T00:00:00	2024-11-08T19:00:00	1	Precipitación	0
147284	7	Sololá	712	San Antonio Palopó	9	San Antonio Palopo	1	Enero	2023-10-01T00:00:00	2024-11-08T19:00:00	8	Radiación solar	0
147285	7	Sololá	712	San Antonio Palopó	9	San Antonio Palopo	1	Enero	2023-10-01T00:00:00	2024-11-08T20:00:00	2	Temperatura media	18.6
147286	7	Sololá	712	San Antonio Palopó	9	San Antonio Palopo	1	Enero	2023-10-01T00:00:00	2024-11-08T20:00:00	4	Temperatura máxima	19
147287	7	Sololá	712	San Antonio Palopó	9	San Antonio Palopo	1	Enero	2023-10-01T00:00:00	2024-11-08T20:00:00	3	Temperatura mínima	18.5
147288	7	Sololá	712	San Antonio Palopó	9	San Antonio Palopo	1	Enero	2023-10-01T00:00:00	2024-11-08T20:00:00	5	Humedad	70
147289	7	Sololá	712	San Antonio Palopó	9	San Antonio Palopo	1	Enero	2023-10-01T00:00:00	2024-11-08T20:00:00	6	Velocidad del viento	6.4
147290	7	Sololá	712	San Antonio Palopó	9	San Antonio Palopo	1	Enero	2023-10-01T00:00:00	2024-11-08T20:00:00	7	Dirección del viento	6.44
147291	7	Sololá	712	San Antonio Palopó	9	San Antonio Palopo	1	Enero	2023-10-01T00:00:00	2024-11-08T20:00:00	1	Precipitación	0
147292	7	Sololá	712	San Antonio Palopó	9	San Antonio Palopo	1	Enero	2023-10-01T00:00:00	2024-11-08T20:00:00	8	Radiación solar	0
147293	7	Sololá	712	San Antonio Palopó	9	San Antonio Palopo	1	Enero	2023-10-01T00:00:00	2024-11-08T21:00:00	2	Temperatura media	18.3
147294	7	Sololá	712	San Antonio Palopó	9	San Antonio Palopo	1	Enero	2023-10-01T00:00:00	2024-11-08T21:00:00	4	Temperatura máxima	18.6
147295	7	Sololá	712	San Antonio Palopó	9	San Antonio Palopo	1	Enero	2023-10-01T00:00:00	2024-11-08T21:00:00	3	Temperatura mínima	18.2
147296	7	Sololá	712	San Antonio Palopó	9	San Antonio Palopo	1	Enero	2023-10-01T00:00:00	2024-11-08T21:00:00	5	Humedad	69
147297	7	Sololá	712	San Antonio Palopó	9	San Antonio Palopo	1	Enero	2023-10-01T00:00:00	2024-11-08T21:00:00	6	Velocidad del viento	9.7
147298	7	Sololá	712	San Antonio Palopó	9	San Antonio Palopo	1	Enero	2023-10-01T00:00:00	2024-11-08T21:00:00	7	Dirección del viento	9.66
147299	7	Sololá	712	San Antonio Palopó	9	San Antonio Palopo	1	Enero	2023-10-01T00:00:00	2024-11-08T21:00:00	1	Precipitación	0
147300	7	Sololá	712	San Antonio Palopó	9	San Antonio Palopo	1	Enero	2023-10-01T00:00:00	2024-11-08T21:00:00	8	Radiación solar	0
147301	7	Sololá	712	San Antonio Palopó	9	San Antonio Palopo	1	Enero	2023-10-01T00:00:00	2024-11-08T22:00:00	2	Temperatura media	18
147302	7	Sololá	712	San Antonio Palopó	9	San Antonio Palopo	1	Enero	2023-10-01T00:00:00	2024-11-08T22:00:00	4	Temperatura máxima	18.3
147303	7	Sololá	712	San Antonio Palopó	9	San Antonio Palopo	1	Enero	2023-10-01T00:00:00	2024-11-08T22:00:00	3	Temperatura mínima	17.8
147304	7	Sololá	712	San Antonio Palopó	9	San Antonio Palopo	1	Enero	2023-10-01T00:00:00	2024-11-08T22:00:00	5	Humedad	69
147305	7	Sololá	712	San Antonio Palopó	9	San Antonio Palopo	1	Enero	2023-10-01T00:00:00	2024-11-08T22:00:00	6	Velocidad del viento	8
147306	7	Sololá	712	San Antonio Palopó	9	San Antonio Palopo	1	Enero	2023-10-01T00:00:00	2024-11-08T22:00:00	7	Dirección del viento	8.05
147307	7	Sololá	712	San Antonio Palopó	9	San Antonio Palopo	1	Enero	2023-10-01T00:00:00	2024-11-08T22:00:00	1	Precipitación	0
147308	7	Sololá	712	San Antonio Palopó	9	San Antonio Palopo	1	Enero	2023-10-01T00:00:00	2024-11-08T22:00:00	8	Radiación solar	0
147309	7	Sololá	712	San Antonio Palopó	9	San Antonio Palopo	1	Enero	2023-10-01T00:00:00	2024-11-08T23:00:00	2	Temperatura media	17.6
147310	7	Sololá	712	San Antonio Palopó	9	San Antonio Palopo	1	Enero	2023-10-01T00:00:00	2024-11-08T23:00:00	4	Temperatura máxima	18.1
147311	7	Sololá	712	San Antonio Palopó	9	San Antonio Palopo	1	Enero	2023-10-01T00:00:00	2024-11-08T23:00:00	3	Temperatura mínima	17.5
147312	7	Sololá	712	San Antonio Palopó	9	San Antonio Palopo	1	Enero	2023-10-01T00:00:00	2024-11-08T23:00:00	5	Humedad	71
147313	7	Sololá	712	San Antonio Palopó	9	San Antonio Palopo	1	Enero	2023-10-01T00:00:00	2024-11-08T23:00:00	6	Velocidad del viento	8
147314	7	Sololá	712	San Antonio Palopó	9	San Antonio Palopo	1	Enero	2023-10-01T00:00:00	2024-11-08T23:00:00	7	Dirección del viento	8.05
147315	7	Sololá	712	San Antonio Palopó	9	San Antonio Palopo	1	Enero	2023-10-01T00:00:00	2024-11-08T23:00:00	1	Precipitación	0
147316	7	Sololá	712	San Antonio Palopó	9	San Antonio Palopo	1	Enero	2023-10-01T00:00:00	2024-11-08T23:00:00	8	Radiación solar	0
147317	7	Sololá	712	San Antonio Palopó	9	San Antonio Palopo	1	Enero	2023-11-01T00:00:00	2024-11-08T00:00:00	2	Temperatura media	17.1
147318	7	Sololá	712	San Antonio Palopó	9	San Antonio Palopo	1	Enero	2023-11-01T00:00:00	2024-11-08T00:00:00	4	Temperatura máxima	17.7
147319	7	Sololá	712	San Antonio Palopó	9	San Antonio Palopo	1	Enero	2023-11-01T00:00:00	2024-11-08T00:00:00	3	Temperatura mínima	17.1
147320	7	Sololá	712	San Antonio Palopó	9	San Antonio Palopo	1	Enero	2023-11-01T00:00:00	2024-11-08T00:00:00	5	Humedad	73
147321	7	Sololá	712	San Antonio Palopó	9	San Antonio Palopo	1	Enero	2023-11-01T00:00:00	2024-11-08T00:00:00	6	Velocidad del viento	6.4
147322	7	Sololá	712	San Antonio Palopó	9	San Antonio Palopo	1	Enero	2023-11-01T00:00:00	2024-11-08T00:00:00	7	Dirección del viento	6.44
147323	7	Sololá	712	San Antonio Palopó	9	San Antonio Palopo	1	Enero	2023-11-01T00:00:00	2024-11-08T00:00:00	1	Precipitación	0
147324	7	Sololá	712	San Antonio Palopó	9	San Antonio Palopo	1	Enero	2023-11-01T00:00:00	2024-11-08T00:00:00	8	Radiación solar	0
147325	7	Sololá	712	San Antonio Palopó	9	San Antonio Palopo	1	Enero	2023-11-01T00:00:00	2024-11-08T01:00:00	2	Temperatura media	17.3
147326	7	Sololá	712	San Antonio Palopó	9	San Antonio Palopo	1	Enero	2023-11-01T00:00:00	2024-11-08T01:00:00	4	Temperatura máxima	17.6
147327	7	Sololá	712	San Antonio Palopó	9	San Antonio Palopo	1	Enero	2023-11-01T00:00:00	2024-11-08T01:00:00	3	Temperatura mínima	17.1
147328	7	Sololá	712	San Antonio Palopó	9	San Antonio Palopo	1	Enero	2023-11-01T00:00:00	2024-11-08T01:00:00	5	Humedad	73
147329	7	Sololá	712	San Antonio Palopó	9	San Antonio Palopo	1	Enero	2023-11-01T00:00:00	2024-11-08T01:00:00	6	Velocidad del viento	6.4
147330	7	Sololá	712	San Antonio Palopó	9	San Antonio Palopo	1	Enero	2023-11-01T00:00:00	2024-11-08T01:00:00	7	Dirección del viento	6.44
147331	7	Sololá	712	San Antonio Palopó	9	San Antonio Palopo	1	Enero	2023-11-01T00:00:00	2024-11-08T01:00:00	1	Precipitación	0
147332	7	Sololá	712	San Antonio Palopó	9	San Antonio Palopo	1	Enero	2023-11-01T00:00:00	2024-11-08T01:00:00	8	Radiación solar	0
147333	7	Sololá	712	San Antonio Palopó	9	San Antonio Palopo	1	Enero	2023-11-01T00:00:00	2024-11-08T02:00:00	2	Temperatura media	17
147334	7	Sololá	712	San Antonio Palopó	9	San Antonio Palopo	1	Enero	2023-11-01T00:00:00	2024-11-08T02:00:00	4	Temperatura máxima	17.4
147335	7	Sololá	712	San Antonio Palopó	9	San Antonio Palopo	1	Enero	2023-11-01T00:00:00	2024-11-08T02:00:00	3	Temperatura mínima	16.8
147336	7	Sololá	712	San Antonio Palopó	9	San Antonio Palopo	1	Enero	2023-11-01T00:00:00	2024-11-08T02:00:00	5	Humedad	73
147337	7	Sololá	712	San Antonio Palopó	9	San Antonio Palopo	1	Enero	2023-11-01T00:00:00	2024-11-08T02:00:00	6	Velocidad del viento	3.2
147338	7	Sololá	712	San Antonio Palopó	9	San Antonio Palopo	1	Enero	2023-11-01T00:00:00	2024-11-08T02:00:00	7	Dirección del viento	3.22
147339	7	Sololá	712	San Antonio Palopó	9	San Antonio Palopo	1	Enero	2023-11-01T00:00:00	2024-11-08T02:00:00	1	Precipitación	0
147340	7	Sololá	712	San Antonio Palopó	9	San Antonio Palopo	1	Enero	2023-11-01T00:00:00	2024-11-08T02:00:00	8	Radiación solar	0
147341	7	Sololá	712	San Antonio Palopó	9	San Antonio Palopo	1	Enero	2023-11-01T00:00:00	2024-11-08T03:00:00	2	Temperatura media	17.1
147342	7	Sololá	712	San Antonio Palopó	9	San Antonio Palopo	1	Enero	2023-11-01T00:00:00	2024-11-08T03:00:00	4	Temperatura máxima	17.4
147343	7	Sololá	712	San Antonio Palopó	9	San Antonio Palopo	1	Enero	2023-11-01T00:00:00	2024-11-08T03:00:00	3	Temperatura mínima	16.9
147344	7	Sololá	712	San Antonio Palopó	9	San Antonio Palopo	1	Enero	2023-11-01T00:00:00	2024-11-08T03:00:00	5	Humedad	74
147345	7	Sololá	712	San Antonio Palopó	9	San Antonio Palopo	1	Enero	2023-11-01T00:00:00	2024-11-08T03:00:00	6	Velocidad del viento	6.4
147346	7	Sololá	712	San Antonio Palopó	9	San Antonio Palopo	1	Enero	2023-11-01T00:00:00	2024-11-08T03:00:00	7	Dirección del viento	6.44
147347	7	Sololá	712	San Antonio Palopó	9	San Antonio Palopo	1	Enero	2023-11-01T00:00:00	2024-11-08T03:00:00	1	Precipitación	0
147348	7	Sololá	712	San Antonio Palopó	9	San Antonio Palopo	1	Enero	2023-11-01T00:00:00	2024-11-08T03:00:00	8	Radiación solar	0
147349	7	Sololá	712	San Antonio Palopó	9	San Antonio Palopo	1	Enero	2023-11-01T00:00:00	2024-11-08T04:00:00	2	Temperatura media	17.3
147350	7	Sololá	712	San Antonio Palopó	9	San Antonio Palopo	1	Enero	2023-11-01T00:00:00	2024-11-08T04:00:00	4	Temperatura máxima	17.3
147351	7	Sololá	712	San Antonio Palopó	9	San Antonio Palopo	1	Enero	2023-11-01T00:00:00	2024-11-08T04:00:00	3	Temperatura mínima	16.9
147352	7	Sololá	712	San Antonio Palopó	9	San Antonio Palopo	1	Enero	2023-11-01T00:00:00	2024-11-08T04:00:00	5	Humedad	74
147353	7	Sololá	712	San Antonio Palopó	9	San Antonio Palopo	1	Enero	2023-11-01T00:00:00	2024-11-08T04:00:00	6	Velocidad del viento	6.4
147354	7	Sololá	712	San Antonio Palopó	9	San Antonio Palopo	1	Enero	2023-11-01T00:00:00	2024-11-08T04:00:00	7	Dirección del viento	6.44
147355	7	Sololá	712	San Antonio Palopó	9	San Antonio Palopo	1	Enero	2023-11-01T00:00:00	2024-11-08T04:00:00	1	Precipitación	0
147356	7	Sololá	712	San Antonio Palopó	9	San Antonio Palopo	1	Enero	2023-11-01T00:00:00	2024-11-08T04:00:00	8	Radiación solar	0
147357	7	Sololá	712	San Antonio Palopó	9	San Antonio Palopo	1	Enero	2023-11-01T00:00:00	2024-11-08T05:00:00	2	Temperatura media	16.7
147358	7	Sololá	712	San Antonio Palopó	9	San Antonio Palopo	1	Enero	2023-11-01T00:00:00	2024-11-08T05:00:00	4	Temperatura máxima	17.3
147359	7	Sololá	712	San Antonio Palopó	9	San Antonio Palopo	1	Enero	2023-11-01T00:00:00	2024-11-08T05:00:00	3	Temperatura mínima	16.7
147360	7	Sololá	712	San Antonio Palopó	9	San Antonio Palopo	1	Enero	2023-11-01T00:00:00	2024-11-08T05:00:00	5	Humedad	75
147361	7	Sololá	712	San Antonio Palopó	9	San Antonio Palopo	1	Enero	2023-11-01T00:00:00	2024-11-08T05:00:00	6	Velocidad del viento	9.7
147362	7	Sololá	712	San Antonio Palopó	9	San Antonio Palopo	1	Enero	2023-11-01T00:00:00	2024-11-08T05:00:00	7	Dirección del viento	9.66
147363	7	Sololá	712	San Antonio Palopó	9	San Antonio Palopo	1	Enero	2023-11-01T00:00:00	2024-11-08T05:00:00	1	Precipitación	0
147364	7	Sololá	712	San Antonio Palopó	9	San Antonio Palopo	1	Enero	2023-11-01T00:00:00	2024-11-08T05:00:00	8	Radiación solar	0
147365	7	Sololá	712	San Antonio Palopó	9	San Antonio Palopo	1	Enero	2023-11-01T00:00:00	2024-11-08T06:00:00	2	Temperatura media	16.9
147366	7	Sololá	712	San Antonio Palopó	9	San Antonio Palopo	1	Enero	2023-11-01T00:00:00	2024-11-08T06:00:00	4	Temperatura máxima	16.9
147367	7	Sololá	712	San Antonio Palopó	9	San Antonio Palopo	1	Enero	2023-11-01T00:00:00	2024-11-08T06:00:00	3	Temperatura mínima	16.6
147368	7	Sololá	712	San Antonio Palopó	9	San Antonio Palopo	1	Enero	2023-11-01T00:00:00	2024-11-08T06:00:00	5	Humedad	74
147369	7	Sololá	712	San Antonio Palopó	9	San Antonio Palopo	1	Enero	2023-11-01T00:00:00	2024-11-08T06:00:00	6	Velocidad del viento	8
147370	7	Sololá	712	San Antonio Palopó	9	San Antonio Palopo	1	Enero	2023-11-01T00:00:00	2024-11-08T06:00:00	7	Dirección del viento	8.05
147371	7	Sololá	712	San Antonio Palopó	9	San Antonio Palopo	1	Enero	2023-11-01T00:00:00	2024-11-08T06:00:00	1	Precipitación	0
147372	7	Sololá	712	San Antonio Palopó	9	San Antonio Palopo	1	Enero	2023-11-01T00:00:00	2024-11-08T06:00:00	8	Radiación solar	0
147373	7	Sololá	712	San Antonio Palopó	9	San Antonio Palopo	1	Enero	2023-11-01T00:00:00	2024-11-08T07:00:00	2	Temperatura media	17.2
147374	7	Sololá	712	San Antonio Palopó	9	San Antonio Palopo	1	Enero	2023-11-01T00:00:00	2024-11-08T07:00:00	4	Temperatura máxima	17.4
147375	7	Sololá	712	San Antonio Palopó	9	San Antonio Palopo	1	Enero	2023-11-01T00:00:00	2024-11-08T07:00:00	3	Temperatura mínima	16.8
147376	7	Sololá	712	San Antonio Palopó	9	San Antonio Palopo	1	Enero	2023-11-01T00:00:00	2024-11-08T07:00:00	5	Humedad	72
147377	7	Sololá	712	San Antonio Palopó	9	San Antonio Palopo	1	Enero	2023-11-01T00:00:00	2024-11-08T07:00:00	6	Velocidad del viento	8
147378	7	Sololá	712	San Antonio Palopó	9	San Antonio Palopo	1	Enero	2023-11-01T00:00:00	2024-11-08T07:00:00	7	Dirección del viento	8.05
147379	7	Sololá	712	San Antonio Palopó	9	San Antonio Palopo	1	Enero	2023-11-01T00:00:00	2024-11-08T07:00:00	1	Precipitación	0
147380	7	Sololá	712	San Antonio Palopó	9	San Antonio Palopo	1	Enero	2023-11-01T00:00:00	2024-11-08T07:00:00	8	Radiación solar	5
147381	7	Sololá	712	San Antonio Palopó	9	San Antonio Palopo	1	Enero	2023-11-01T00:00:00	2024-11-08T08:00:00	2	Temperatura media	17.3
147382	7	Sololá	712	San Antonio Palopó	9	San Antonio Palopo	1	Enero	2023-11-01T00:00:00	2024-11-08T08:00:00	4	Temperatura máxima	17.4
147383	7	Sololá	712	San Antonio Palopó	9	San Antonio Palopo	1	Enero	2023-11-01T00:00:00	2024-11-08T08:00:00	3	Temperatura mínima	16.9
147384	7	Sololá	712	San Antonio Palopó	9	San Antonio Palopo	1	Enero	2023-11-01T00:00:00	2024-11-08T08:00:00	5	Humedad	72
147385	7	Sololá	712	San Antonio Palopó	9	San Antonio Palopo	1	Enero	2023-11-01T00:00:00	2024-11-08T08:00:00	6	Velocidad del viento	4.8
147386	7	Sololá	712	San Antonio Palopó	9	San Antonio Palopo	1	Enero	2023-11-01T00:00:00	2024-11-08T08:00:00	7	Dirección del viento	4.83
147387	7	Sololá	712	San Antonio Palopó	9	San Antonio Palopo	1	Enero	2023-11-01T00:00:00	2024-11-08T08:00:00	1	Precipitación	0
147388	7	Sololá	712	San Antonio Palopó	9	San Antonio Palopo	1	Enero	2023-11-01T00:00:00	2024-11-08T08:00:00	8	Radiación solar	18
147389	7	Sololá	712	San Antonio Palopó	9	San Antonio Palopo	1	Enero	2023-11-01T00:00:00	2024-11-08T09:00:00	2	Temperatura media	18.1
147390	7	Sololá	712	San Antonio Palopó	9	San Antonio Palopo	1	Enero	2023-11-01T00:00:00	2024-11-08T09:00:00	4	Temperatura máxima	18.1
147391	7	Sololá	712	San Antonio Palopó	9	San Antonio Palopo	1	Enero	2023-11-01T00:00:00	2024-11-08T09:00:00	3	Temperatura mínima	16.3
147392	7	Sololá	712	San Antonio Palopó	9	San Antonio Palopo	1	Enero	2023-11-01T00:00:00	2024-11-08T09:00:00	5	Humedad	74
147393	7	Sololá	712	San Antonio Palopó	9	San Antonio Palopo	1	Enero	2023-11-01T00:00:00	2024-11-08T09:00:00	6	Velocidad del viento	3.2
147394	7	Sololá	712	San Antonio Palopó	9	San Antonio Palopo	1	Enero	2023-11-01T00:00:00	2024-11-08T09:00:00	7	Dirección del viento	3.22
147395	7	Sololá	712	San Antonio Palopó	9	San Antonio Palopo	1	Enero	2023-11-01T00:00:00	2024-11-08T09:00:00	1	Precipitación	0
147396	7	Sololá	712	San Antonio Palopó	9	San Antonio Palopo	1	Enero	2023-11-01T00:00:00	2024-11-08T09:00:00	8	Radiación solar	100
147397	7	Sololá	712	San Antonio Palopó	9	San Antonio Palopo	1	Enero	2023-11-01T00:00:00	2024-11-08T10:00:00	2	Temperatura media	20.3
147398	7	Sololá	712	San Antonio Palopó	9	San Antonio Palopo	1	Enero	2023-11-01T00:00:00	2024-11-08T10:00:00	4	Temperatura máxima	20.4
147399	7	Sololá	712	San Antonio Palopó	9	San Antonio Palopo	1	Enero	2023-11-01T00:00:00	2024-11-08T10:00:00	3	Temperatura mínima	18.1
147400	7	Sololá	712	San Antonio Palopó	9	San Antonio Palopo	1	Enero	2023-11-01T00:00:00	2024-11-08T10:00:00	5	Humedad	63
147401	7	Sololá	712	San Antonio Palopó	9	San Antonio Palopo	1	Enero	2023-11-01T00:00:00	2024-11-08T10:00:00	6	Velocidad del viento	1.6
147402	7	Sololá	712	San Antonio Palopó	9	San Antonio Palopo	1	Enero	2023-11-01T00:00:00	2024-11-08T10:00:00	7	Dirección del viento	1.61
147403	7	Sololá	712	San Antonio Palopó	9	San Antonio Palopo	1	Enero	2023-11-01T00:00:00	2024-11-08T10:00:00	1	Precipitación	0
147404	7	Sololá	712	San Antonio Palopó	9	San Antonio Palopo	1	Enero	2023-11-01T00:00:00	2024-11-08T10:00:00	8	Radiación solar	523
147405	7	Sololá	712	San Antonio Palopó	9	San Antonio Palopo	1	Enero	2023-11-01T00:00:00	2024-11-08T11:00:00	2	Temperatura media	21.6
147406	7	Sololá	712	San Antonio Palopó	9	San Antonio Palopo	1	Enero	2023-11-01T00:00:00	2024-11-08T11:00:00	4	Temperatura máxima	21.6
147407	7	Sololá	712	San Antonio Palopó	9	San Antonio Palopo	1	Enero	2023-11-01T00:00:00	2024-11-08T11:00:00	3	Temperatura mínima	20.3
147408	7	Sololá	712	San Antonio Palopó	9	San Antonio Palopo	1	Enero	2023-11-01T00:00:00	2024-11-08T11:00:00	5	Humedad	59
147409	7	Sololá	712	San Antonio Palopó	9	San Antonio Palopo	1	Enero	2023-11-01T00:00:00	2024-11-08T11:00:00	6	Velocidad del viento	3.2
147410	7	Sololá	712	San Antonio Palopó	9	San Antonio Palopo	1	Enero	2023-11-01T00:00:00	2024-11-08T11:00:00	7	Dirección del viento	3.22
147411	7	Sololá	712	San Antonio Palopó	9	San Antonio Palopo	1	Enero	2023-11-01T00:00:00	2024-11-08T11:00:00	1	Precipitación	0
147412	7	Sololá	712	San Antonio Palopó	9	San Antonio Palopo	1	Enero	2023-11-01T00:00:00	2024-11-08T11:00:00	8	Radiación solar	693
147413	7	Sololá	712	San Antonio Palopó	9	San Antonio Palopo	1	Enero	2023-11-01T00:00:00	2024-11-08T12:00:00	2	Temperatura media	22.9
147414	7	Sololá	712	San Antonio Palopó	9	San Antonio Palopo	1	Enero	2023-11-01T00:00:00	2024-11-08T12:00:00	4	Temperatura máxima	22.9
147415	7	Sololá	712	San Antonio Palopó	9	San Antonio Palopo	1	Enero	2023-11-01T00:00:00	2024-11-08T12:00:00	3	Temperatura mínima	21.6
147416	7	Sololá	712	San Antonio Palopó	9	San Antonio Palopo	1	Enero	2023-11-01T00:00:00	2024-11-08T12:00:00	5	Humedad	55
147417	7	Sololá	712	San Antonio Palopó	9	San Antonio Palopo	1	Enero	2023-11-01T00:00:00	2024-11-08T12:00:00	6	Velocidad del viento	4.8
147418	7	Sololá	712	San Antonio Palopó	9	San Antonio Palopo	1	Enero	2023-11-01T00:00:00	2024-11-08T12:00:00	7	Dirección del viento	4.83
147419	7	Sololá	712	San Antonio Palopó	9	San Antonio Palopo	1	Enero	2023-11-01T00:00:00	2024-11-08T12:00:00	1	Precipitación	0
147420	7	Sololá	712	San Antonio Palopó	9	San Antonio Palopo	1	Enero	2023-11-01T00:00:00	2024-11-08T12:00:00	8	Radiación solar	685
147421	7	Sololá	712	San Antonio Palopó	9	San Antonio Palopo	1	Enero	2023-11-01T00:00:00	2024-11-08T13:00:00	2	Temperatura media	23
147422	7	Sololá	712	San Antonio Palopó	9	San Antonio Palopo	1	Enero	2023-11-01T00:00:00	2024-11-08T13:00:00	4	Temperatura máxima	24.1
147423	7	Sololá	712	San Antonio Palopó	9	San Antonio Palopo	1	Enero	2023-11-01T00:00:00	2024-11-08T13:00:00	3	Temperatura mínima	22.8
147424	7	Sololá	712	San Antonio Palopó	9	San Antonio Palopo	1	Enero	2023-11-01T00:00:00	2024-11-08T13:00:00	5	Humedad	66
147425	7	Sololá	712	San Antonio Palopó	9	San Antonio Palopo	1	Enero	2023-11-01T00:00:00	2024-11-08T13:00:00	6	Velocidad del viento	11.3
147426	7	Sololá	712	San Antonio Palopó	9	San Antonio Palopo	1	Enero	2023-11-01T00:00:00	2024-11-08T13:00:00	7	Dirección del viento	11.27
147427	7	Sololá	712	San Antonio Palopó	9	San Antonio Palopo	1	Enero	2023-11-01T00:00:00	2024-11-08T13:00:00	1	Precipitación	0
147428	7	Sololá	712	San Antonio Palopó	9	San Antonio Palopo	1	Enero	2023-11-01T00:00:00	2024-11-08T13:00:00	8	Radiación solar	841
147429	7	Sololá	712	San Antonio Palopó	9	San Antonio Palopo	1	Enero	2023-11-01T00:00:00	2024-11-08T14:00:00	2	Temperatura media	22
147430	7	Sololá	712	San Antonio Palopó	9	San Antonio Palopo	1	Enero	2023-11-01T00:00:00	2024-11-08T14:00:00	4	Temperatura máxima	23.7
147431	7	Sololá	712	San Antonio Palopó	9	San Antonio Palopo	1	Enero	2023-11-01T00:00:00	2024-11-08T14:00:00	3	Temperatura mínima	22
147432	7	Sololá	712	San Antonio Palopó	9	San Antonio Palopo	1	Enero	2023-11-01T00:00:00	2024-11-08T14:00:00	5	Humedad	70
147433	7	Sololá	712	San Antonio Palopó	9	San Antonio Palopo	1	Enero	2023-11-01T00:00:00	2024-11-08T14:00:00	6	Velocidad del viento	12.9
147434	7	Sololá	712	San Antonio Palopó	9	San Antonio Palopo	1	Enero	2023-11-01T00:00:00	2024-11-08T14:00:00	7	Dirección del viento	12.87
147435	7	Sololá	712	San Antonio Palopó	9	San Antonio Palopo	1	Enero	2023-11-01T00:00:00	2024-11-08T14:00:00	1	Precipitación	0
147436	7	Sololá	712	San Antonio Palopó	9	San Antonio Palopo	1	Enero	2023-11-01T00:00:00	2024-11-08T14:00:00	8	Radiación solar	642
147437	7	Sololá	712	San Antonio Palopó	9	San Antonio Palopo	1	Enero	2023-11-01T00:00:00	2024-11-08T15:00:00	2	Temperatura media	20.6
147438	7	Sololá	712	San Antonio Palopó	9	San Antonio Palopo	1	Enero	2023-11-01T00:00:00	2024-11-08T15:00:00	4	Temperatura máxima	22
147439	7	Sololá	712	San Antonio Palopó	9	San Antonio Palopo	1	Enero	2023-11-01T00:00:00	2024-11-08T15:00:00	3	Temperatura mínima	20.4
147440	7	Sololá	712	San Antonio Palopó	9	San Antonio Palopo	1	Enero	2023-11-01T00:00:00	2024-11-08T15:00:00	5	Humedad	77
147441	7	Sololá	712	San Antonio Palopó	9	San Antonio Palopo	1	Enero	2023-11-01T00:00:00	2024-11-08T15:00:00	6	Velocidad del viento	14.5
147442	7	Sololá	712	San Antonio Palopó	9	San Antonio Palopo	1	Enero	2023-11-01T00:00:00	2024-11-08T15:00:00	7	Dirección del viento	14.48
147443	7	Sololá	712	San Antonio Palopó	9	San Antonio Palopo	1	Enero	2023-11-01T00:00:00	2024-11-08T15:00:00	1	Precipitación	0
147444	7	Sololá	712	San Antonio Palopó	9	San Antonio Palopo	1	Enero	2023-11-01T00:00:00	2024-11-08T15:00:00	8	Radiación solar	200
147445	7	Sololá	712	San Antonio Palopó	9	San Antonio Palopo	1	Enero	2023-11-01T00:00:00	2024-11-08T16:00:00	2	Temperatura media	22.5
147446	7	Sololá	712	San Antonio Palopó	9	San Antonio Palopo	1	Enero	2023-11-01T00:00:00	2024-11-08T16:00:00	4	Temperatura máxima	23.1
147447	7	Sololá	712	San Antonio Palopó	9	San Antonio Palopo	1	Enero	2023-11-01T00:00:00	2024-11-08T16:00:00	3	Temperatura mínima	20.4
147448	7	Sololá	712	San Antonio Palopó	9	San Antonio Palopo	1	Enero	2023-11-01T00:00:00	2024-11-08T16:00:00	5	Humedad	56
147449	7	Sololá	712	San Antonio Palopó	9	San Antonio Palopo	1	Enero	2023-11-01T00:00:00	2024-11-08T16:00:00	6	Velocidad del viento	12.9
147450	7	Sololá	712	San Antonio Palopó	9	San Antonio Palopo	1	Enero	2023-11-01T00:00:00	2024-11-08T16:00:00	7	Dirección del viento	12.87
147451	7	Sololá	712	San Antonio Palopó	9	San Antonio Palopo	1	Enero	2023-11-01T00:00:00	2024-11-08T16:00:00	1	Precipitación	0
147452	7	Sololá	712	San Antonio Palopó	9	San Antonio Palopo	1	Enero	2023-11-01T00:00:00	2024-11-08T16:00:00	8	Radiación solar	394
147453	7	Sololá	712	San Antonio Palopó	9	San Antonio Palopo	1	Enero	2023-11-01T00:00:00	2024-11-08T17:00:00	2	Temperatura media	22.9
147454	7	Sololá	712	San Antonio Palopó	9	San Antonio Palopo	1	Enero	2023-11-01T00:00:00	2024-11-08T17:00:00	4	Temperatura máxima	23.2
147455	7	Sololá	712	San Antonio Palopó	9	San Antonio Palopo	1	Enero	2023-11-01T00:00:00	2024-11-08T17:00:00	3	Temperatura mínima	22.5
147456	7	Sololá	712	San Antonio Palopó	9	San Antonio Palopo	1	Enero	2023-11-01T00:00:00	2024-11-08T17:00:00	5	Humedad	52
147457	7	Sololá	712	San Antonio Palopó	9	San Antonio Palopo	1	Enero	2023-11-01T00:00:00	2024-11-08T17:00:00	6	Velocidad del viento	9.7
147458	7	Sololá	712	San Antonio Palopó	9	San Antonio Palopo	1	Enero	2023-11-01T00:00:00	2024-11-08T17:00:00	7	Dirección del viento	9.66
147459	7	Sololá	712	San Antonio Palopó	9	San Antonio Palopo	1	Enero	2023-11-01T00:00:00	2024-11-08T17:00:00	1	Precipitación	0
147460	7	Sololá	712	San Antonio Palopó	9	San Antonio Palopo	1	Enero	2023-11-01T00:00:00	2024-11-08T17:00:00	8	Radiación solar	203
147461	7	Sololá	712	San Antonio Palopó	9	San Antonio Palopo	1	Enero	2023-11-01T00:00:00	2024-11-08T18:00:00	2	Temperatura media	20.6
147462	7	Sololá	712	San Antonio Palopó	9	San Antonio Palopo	1	Enero	2023-11-01T00:00:00	2024-11-08T18:00:00	4	Temperatura máxima	22.9
147463	7	Sololá	712	San Antonio Palopó	9	San Antonio Palopo	1	Enero	2023-11-01T00:00:00	2024-11-08T18:00:00	3	Temperatura mínima	20.6
147464	7	Sololá	712	San Antonio Palopó	9	San Antonio Palopo	1	Enero	2023-11-01T00:00:00	2024-11-08T18:00:00	5	Humedad	61
147465	7	Sololá	712	San Antonio Palopó	9	San Antonio Palopo	1	Enero	2023-11-01T00:00:00	2024-11-08T18:00:00	6	Velocidad del viento	6.4
147466	7	Sololá	712	San Antonio Palopó	9	San Antonio Palopo	1	Enero	2023-11-01T00:00:00	2024-11-08T18:00:00	7	Dirección del viento	6.44
147467	7	Sololá	712	San Antonio Palopó	9	San Antonio Palopo	1	Enero	2023-11-01T00:00:00	2024-11-08T18:00:00	1	Precipitación	0
147468	7	Sololá	712	San Antonio Palopó	9	San Antonio Palopo	1	Enero	2023-11-01T00:00:00	2024-11-08T18:00:00	8	Radiación solar	23
147469	7	Sololá	712	San Antonio Palopó	9	San Antonio Palopo	1	Enero	2023-11-01T00:00:00	2024-11-08T19:00:00	2	Temperatura media	19.7
147470	7	Sololá	712	San Antonio Palopó	9	San Antonio Palopo	1	Enero	2023-11-01T00:00:00	2024-11-08T19:00:00	4	Temperatura máxima	20.6
147471	7	Sololá	712	San Antonio Palopó	9	San Antonio Palopo	1	Enero	2023-11-01T00:00:00	2024-11-08T19:00:00	3	Temperatura mínima	19.7
147472	7	Sololá	712	San Antonio Palopó	9	San Antonio Palopo	1	Enero	2023-11-01T00:00:00	2024-11-08T19:00:00	5	Humedad	65
147473	7	Sololá	712	San Antonio Palopó	9	San Antonio Palopo	1	Enero	2023-11-01T00:00:00	2024-11-08T19:00:00	6	Velocidad del viento	4.8
147474	7	Sololá	712	San Antonio Palopó	9	San Antonio Palopo	1	Enero	2023-11-01T00:00:00	2024-11-08T19:00:00	7	Dirección del viento	4.83
147475	7	Sololá	712	San Antonio Palopó	9	San Antonio Palopo	1	Enero	2023-11-01T00:00:00	2024-11-08T19:00:00	1	Precipitación	0
147476	7	Sololá	712	San Antonio Palopó	9	San Antonio Palopo	1	Enero	2023-11-01T00:00:00	2024-11-08T19:00:00	8	Radiación solar	0
147477	7	Sololá	712	San Antonio Palopó	9	San Antonio Palopo	1	Enero	2023-11-01T00:00:00	2024-11-08T20:00:00	2	Temperatura media	19
147478	7	Sololá	712	San Antonio Palopó	9	San Antonio Palopo	1	Enero	2023-11-01T00:00:00	2024-11-08T20:00:00	4	Temperatura máxima	19.7
147479	7	Sololá	712	San Antonio Palopó	9	San Antonio Palopo	1	Enero	2023-11-01T00:00:00	2024-11-08T20:00:00	3	Temperatura mínima	18.9
147480	7	Sololá	712	San Antonio Palopó	9	San Antonio Palopo	1	Enero	2023-11-01T00:00:00	2024-11-08T20:00:00	5	Humedad	69
147481	7	Sololá	712	San Antonio Palopó	9	San Antonio Palopo	1	Enero	2023-11-01T00:00:00	2024-11-08T20:00:00	6	Velocidad del viento	12.9
147482	7	Sololá	712	San Antonio Palopó	9	San Antonio Palopo	1	Enero	2023-11-01T00:00:00	2024-11-08T20:00:00	7	Dirección del viento	12.87
147483	7	Sololá	712	San Antonio Palopó	9	San Antonio Palopo	1	Enero	2023-11-01T00:00:00	2024-11-08T20:00:00	1	Precipitación	0
147484	7	Sololá	712	San Antonio Palopó	9	San Antonio Palopo	1	Enero	2023-11-01T00:00:00	2024-11-08T20:00:00	8	Radiación solar	0
147485	7	Sololá	712	San Antonio Palopó	9	San Antonio Palopo	1	Enero	2023-11-01T00:00:00	2024-11-08T21:00:00	2	Temperatura media	18.5
147486	7	Sololá	712	San Antonio Palopó	9	San Antonio Palopo	1	Enero	2023-11-01T00:00:00	2024-11-08T21:00:00	4	Temperatura máxima	19.1
147487	7	Sololá	712	San Antonio Palopó	9	San Antonio Palopo	1	Enero	2023-11-01T00:00:00	2024-11-08T21:00:00	3	Temperatura mínima	18.4
147488	7	Sololá	712	San Antonio Palopó	9	San Antonio Palopo	1	Enero	2023-11-01T00:00:00	2024-11-08T21:00:00	5	Humedad	70
147489	7	Sololá	712	San Antonio Palopó	9	San Antonio Palopo	1	Enero	2023-11-01T00:00:00	2024-11-08T21:00:00	6	Velocidad del viento	11.3
147490	7	Sololá	712	San Antonio Palopó	9	San Antonio Palopo	1	Enero	2023-11-01T00:00:00	2024-11-08T21:00:00	7	Dirección del viento	11.27
147491	7	Sololá	712	San Antonio Palopó	9	San Antonio Palopo	1	Enero	2023-11-01T00:00:00	2024-11-08T21:00:00	1	Precipitación	0
147492	7	Sololá	712	San Antonio Palopó	9	San Antonio Palopo	1	Enero	2023-11-01T00:00:00	2024-11-08T21:00:00	8	Radiación solar	0
147493	7	Sololá	712	San Antonio Palopó	9	San Antonio Palopo	1	Enero	2023-11-01T00:00:00	2024-11-08T22:00:00	2	Temperatura media	17.9
147494	7	Sololá	712	San Antonio Palopó	9	San Antonio Palopo	1	Enero	2023-11-01T00:00:00	2024-11-08T22:00:00	4	Temperatura máxima	18.5
147495	7	Sololá	712	San Antonio Palopó	9	San Antonio Palopo	1	Enero	2023-11-01T00:00:00	2024-11-08T22:00:00	3	Temperatura mínima	17.8
147496	7	Sololá	712	San Antonio Palopó	9	San Antonio Palopo	1	Enero	2023-11-01T00:00:00	2024-11-08T22:00:00	5	Humedad	70
147497	7	Sololá	712	San Antonio Palopó	9	San Antonio Palopo	1	Enero	2023-11-01T00:00:00	2024-11-08T22:00:00	6	Velocidad del viento	9.7
147498	7	Sololá	712	San Antonio Palopó	9	San Antonio Palopo	1	Enero	2023-11-01T00:00:00	2024-11-08T22:00:00	7	Dirección del viento	9.66
147499	7	Sololá	712	San Antonio Palopó	9	San Antonio Palopo	1	Enero	2023-11-01T00:00:00	2024-11-08T22:00:00	1	Precipitación	0
147500	7	Sololá	712	San Antonio Palopó	9	San Antonio Palopo	1	Enero	2023-11-01T00:00:00	2024-11-08T22:00:00	8	Radiación solar	0
147501	7	Sololá	712	San Antonio Palopó	9	San Antonio Palopo	1	Enero	2023-11-01T00:00:00	2024-11-08T23:00:00	2	Temperatura media	17.4
147502	7	Sololá	712	San Antonio Palopó	9	San Antonio Palopo	1	Enero	2023-11-01T00:00:00	2024-11-08T23:00:00	4	Temperatura máxima	18.4
147503	7	Sololá	712	San Antonio Palopó	9	San Antonio Palopo	1	Enero	2023-11-01T00:00:00	2024-11-08T23:00:00	3	Temperatura mínima	17.4
147504	7	Sololá	712	San Antonio Palopó	9	San Antonio Palopo	1	Enero	2023-11-01T00:00:00	2024-11-08T23:00:00	5	Humedad	72
147505	7	Sololá	712	San Antonio Palopó	9	San Antonio Palopo	1	Enero	2023-11-01T00:00:00	2024-11-08T23:00:00	6	Velocidad del viento	9.7
147506	7	Sololá	712	San Antonio Palopó	9	San Antonio Palopo	1	Enero	2023-11-01T00:00:00	2024-11-08T23:00:00	7	Dirección del viento	9.66
147507	7	Sololá	712	San Antonio Palopó	9	San Antonio Palopo	1	Enero	2023-11-01T00:00:00	2024-11-08T23:00:00	1	Precipitación	0
147508	7	Sololá	712	San Antonio Palopó	9	San Antonio Palopo	1	Enero	2023-11-01T00:00:00	2024-11-08T23:00:00	8	Radiación solar	0
147509	7	Sololá	712	San Antonio Palopó	9	San Antonio Palopo	1	Enero	2023-12-01T00:00:00	2024-11-08T00:00:00	2	Temperatura media	17
147510	7	Sololá	712	San Antonio Palopó	9	San Antonio Palopo	1	Enero	2023-12-01T00:00:00	2024-11-08T00:00:00	4	Temperatura máxima	17.7
147511	7	Sololá	712	San Antonio Palopó	9	San Antonio Palopo	1	Enero	2023-12-01T00:00:00	2024-11-08T00:00:00	3	Temperatura mínima	17
147512	7	Sololá	712	San Antonio Palopó	9	San Antonio Palopo	1	Enero	2023-12-01T00:00:00	2024-11-08T00:00:00	5	Humedad	72
147513	7	Sololá	712	San Antonio Palopó	9	San Antonio Palopo	1	Enero	2023-12-01T00:00:00	2024-11-08T00:00:00	6	Velocidad del viento	4.8
147514	7	Sololá	712	San Antonio Palopó	9	San Antonio Palopo	1	Enero	2023-12-01T00:00:00	2024-11-08T00:00:00	7	Dirección del viento	4.83
147515	7	Sololá	712	San Antonio Palopó	9	San Antonio Palopo	1	Enero	2023-12-01T00:00:00	2024-11-08T00:00:00	1	Precipitación	0
147516	7	Sololá	712	San Antonio Palopó	9	San Antonio Palopo	1	Enero	2023-12-01T00:00:00	2024-11-08T00:00:00	8	Radiación solar	0
147517	7	Sololá	712	San Antonio Palopó	9	San Antonio Palopo	1	Enero	2023-12-01T00:00:00	2024-11-08T01:00:00	2	Temperatura media	17.2
147518	7	Sololá	712	San Antonio Palopó	9	San Antonio Palopo	1	Enero	2023-12-01T00:00:00	2024-11-08T01:00:00	4	Temperatura máxima	17.4
147519	7	Sololá	712	San Antonio Palopó	9	San Antonio Palopo	1	Enero	2023-12-01T00:00:00	2024-11-08T01:00:00	3	Temperatura mínima	16.9
147520	7	Sololá	712	San Antonio Palopó	9	San Antonio Palopo	1	Enero	2023-12-01T00:00:00	2024-11-08T01:00:00	5	Humedad	72
147521	7	Sololá	712	San Antonio Palopó	9	San Antonio Palopo	1	Enero	2023-12-01T00:00:00	2024-11-08T01:00:00	6	Velocidad del viento	6.4
147522	7	Sololá	712	San Antonio Palopó	9	San Antonio Palopo	1	Enero	2023-12-01T00:00:00	2024-11-08T01:00:00	7	Dirección del viento	6.44
147523	7	Sololá	712	San Antonio Palopó	9	San Antonio Palopo	1	Enero	2023-12-01T00:00:00	2024-11-08T01:00:00	1	Precipitación	0
147524	7	Sololá	712	San Antonio Palopó	9	San Antonio Palopo	1	Enero	2023-12-01T00:00:00	2024-11-08T01:00:00	8	Radiación solar	0
147525	7	Sololá	712	San Antonio Palopó	9	San Antonio Palopo	1	Enero	2023-12-01T00:00:00	2024-11-08T02:00:00	2	Temperatura media	17.6
147526	7	Sololá	712	San Antonio Palopó	9	San Antonio Palopo	1	Enero	2023-12-01T00:00:00	2024-11-08T02:00:00	4	Temperatura máxima	17.7
147527	7	Sololá	712	San Antonio Palopó	9	San Antonio Palopo	1	Enero	2023-12-01T00:00:00	2024-11-08T02:00:00	3	Temperatura mínima	17.1
147528	7	Sololá	712	San Antonio Palopó	9	San Antonio Palopo	1	Enero	2023-12-01T00:00:00	2024-11-08T02:00:00	5	Humedad	67
147529	7	Sololá	712	San Antonio Palopó	9	San Antonio Palopo	1	Enero	2023-12-01T00:00:00	2024-11-08T02:00:00	6	Velocidad del viento	8
147530	7	Sololá	712	San Antonio Palopó	9	San Antonio Palopo	1	Enero	2023-12-01T00:00:00	2024-11-08T02:00:00	7	Dirección del viento	8.05
147531	7	Sololá	712	San Antonio Palopó	9	San Antonio Palopo	1	Enero	2023-12-01T00:00:00	2024-11-08T02:00:00	1	Precipitación	0
147532	7	Sololá	712	San Antonio Palopó	9	San Antonio Palopo	1	Enero	2023-12-01T00:00:00	2024-11-08T02:00:00	8	Radiación solar	0
147533	7	Sololá	712	San Antonio Palopó	9	San Antonio Palopo	1	Enero	2023-12-01T00:00:00	2024-11-08T03:00:00	2	Temperatura media	16.9
147534	7	Sololá	712	San Antonio Palopó	9	San Antonio Palopo	1	Enero	2023-12-01T00:00:00	2024-11-08T03:00:00	4	Temperatura máxima	17.6
147535	7	Sololá	712	San Antonio Palopó	9	San Antonio Palopo	1	Enero	2023-12-01T00:00:00	2024-11-08T03:00:00	3	Temperatura mínima	16.3
147536	7	Sololá	712	San Antonio Palopó	9	San Antonio Palopo	1	Enero	2023-12-01T00:00:00	2024-11-08T03:00:00	5	Humedad	70
147537	7	Sololá	712	San Antonio Palopó	9	San Antonio Palopo	1	Enero	2023-12-01T00:00:00	2024-11-08T03:00:00	6	Velocidad del viento	8
147538	7	Sololá	712	San Antonio Palopó	9	San Antonio Palopo	1	Enero	2023-12-01T00:00:00	2024-11-08T03:00:00	7	Dirección del viento	8.05
147539	7	Sololá	712	San Antonio Palopó	9	San Antonio Palopo	1	Enero	2023-12-01T00:00:00	2024-11-08T03:00:00	1	Precipitación	0
147540	7	Sololá	712	San Antonio Palopó	9	San Antonio Palopo	1	Enero	2023-12-01T00:00:00	2024-11-08T03:00:00	8	Radiación solar	0
147541	7	Sololá	712	San Antonio Palopó	9	San Antonio Palopo	1	Enero	2023-12-01T00:00:00	2024-11-08T04:00:00	2	Temperatura media	16.3
147542	7	Sololá	712	San Antonio Palopó	9	San Antonio Palopo	1	Enero	2023-12-01T00:00:00	2024-11-08T04:00:00	4	Temperatura máxima	17.2
147543	7	Sololá	712	San Antonio Palopó	9	San Antonio Palopo	1	Enero	2023-12-01T00:00:00	2024-11-08T04:00:00	3	Temperatura mínima	16.3
147544	7	Sololá	712	San Antonio Palopó	9	San Antonio Palopo	1	Enero	2023-12-01T00:00:00	2024-11-08T04:00:00	5	Humedad	73
147545	7	Sololá	712	San Antonio Palopó	9	San Antonio Palopo	1	Enero	2023-12-01T00:00:00	2024-11-08T04:00:00	6	Velocidad del viento	11.3
147546	7	Sololá	712	San Antonio Palopó	9	San Antonio Palopo	1	Enero	2023-12-01T00:00:00	2024-11-08T04:00:00	7	Dirección del viento	11.27
147547	7	Sololá	712	San Antonio Palopó	9	San Antonio Palopo	1	Enero	2023-12-01T00:00:00	2024-11-08T04:00:00	1	Precipitación	0
147548	7	Sololá	712	San Antonio Palopó	9	San Antonio Palopo	1	Enero	2023-12-01T00:00:00	2024-11-08T04:00:00	8	Radiación solar	0
147549	7	Sololá	712	San Antonio Palopó	9	San Antonio Palopo	1	Enero	2023-12-01T00:00:00	2024-11-08T05:00:00	2	Temperatura media	16.2
147550	7	Sololá	712	San Antonio Palopó	9	San Antonio Palopo	1	Enero	2023-12-01T00:00:00	2024-11-08T05:00:00	4	Temperatura máxima	16.4
147551	7	Sololá	712	San Antonio Palopó	9	San Antonio Palopo	1	Enero	2023-12-01T00:00:00	2024-11-08T05:00:00	3	Temperatura mínima	16.1
147552	7	Sololá	712	San Antonio Palopó	9	San Antonio Palopo	1	Enero	2023-12-01T00:00:00	2024-11-08T05:00:00	5	Humedad	74
147553	7	Sololá	712	San Antonio Palopó	9	San Antonio Palopo	1	Enero	2023-12-01T00:00:00	2024-11-08T05:00:00	6	Velocidad del viento	9.7
147554	7	Sololá	712	San Antonio Palopó	9	San Antonio Palopo	1	Enero	2023-12-01T00:00:00	2024-11-08T05:00:00	7	Dirección del viento	9.66
147555	7	Sololá	712	San Antonio Palopó	9	San Antonio Palopo	1	Enero	2023-12-01T00:00:00	2024-11-08T05:00:00	1	Precipitación	0
147556	7	Sololá	712	San Antonio Palopó	9	San Antonio Palopo	1	Enero	2023-12-01T00:00:00	2024-11-08T05:00:00	8	Radiación solar	0
147557	7	Sololá	712	San Antonio Palopó	9	San Antonio Palopo	1	Enero	2023-12-01T00:00:00	2024-11-08T06:00:00	2	Temperatura media	15.8
147558	7	Sololá	712	San Antonio Palopó	9	San Antonio Palopo	1	Enero	2023-12-01T00:00:00	2024-11-08T06:00:00	4	Temperatura máxima	16.2
147559	7	Sololá	712	San Antonio Palopó	9	San Antonio Palopo	1	Enero	2023-12-01T00:00:00	2024-11-08T06:00:00	3	Temperatura mínima	15.6
147560	7	Sololá	712	San Antonio Palopó	9	San Antonio Palopo	1	Enero	2023-12-01T00:00:00	2024-11-08T06:00:00	5	Humedad	75
147561	7	Sololá	712	San Antonio Palopó	9	San Antonio Palopo	1	Enero	2023-12-01T00:00:00	2024-11-08T06:00:00	6	Velocidad del viento	6.4
147562	7	Sololá	712	San Antonio Palopó	9	San Antonio Palopo	1	Enero	2023-12-01T00:00:00	2024-11-08T06:00:00	7	Dirección del viento	6.44
147563	7	Sololá	712	San Antonio Palopó	9	San Antonio Palopo	1	Enero	2023-12-01T00:00:00	2024-11-08T06:00:00	1	Precipitación	0
147564	7	Sololá	712	San Antonio Palopó	9	San Antonio Palopo	1	Enero	2023-12-01T00:00:00	2024-11-08T06:00:00	8	Radiación solar	0
147565	7	Sololá	712	San Antonio Palopó	9	San Antonio Palopo	1	Enero	2023-12-01T00:00:00	2024-11-08T07:00:00	2	Temperatura media	15.8
147566	7	Sololá	712	San Antonio Palopó	9	San Antonio Palopo	1	Enero	2023-12-01T00:00:00	2024-11-08T07:00:00	4	Temperatura máxima	15.8
147567	7	Sololá	712	San Antonio Palopó	9	San Antonio Palopo	1	Enero	2023-12-01T00:00:00	2024-11-08T07:00:00	3	Temperatura mínima	15.4
147568	7	Sololá	712	San Antonio Palopó	9	San Antonio Palopo	1	Enero	2023-12-01T00:00:00	2024-11-08T07:00:00	5	Humedad	73
147569	7	Sololá	712	San Antonio Palopó	9	San Antonio Palopo	1	Enero	2023-12-01T00:00:00	2024-11-08T07:00:00	6	Velocidad del viento	8
147570	7	Sololá	712	San Antonio Palopó	9	San Antonio Palopo	1	Enero	2023-12-01T00:00:00	2024-11-08T07:00:00	7	Dirección del viento	8.05
147571	7	Sololá	712	San Antonio Palopó	9	San Antonio Palopo	1	Enero	2023-12-01T00:00:00	2024-11-08T07:00:00	1	Precipitación	0
147572	7	Sololá	712	San Antonio Palopó	9	San Antonio Palopo	1	Enero	2023-12-01T00:00:00	2024-11-08T07:00:00	8	Radiación solar	3
147573	7	Sololá	712	San Antonio Palopó	9	San Antonio Palopo	1	Enero	2023-12-01T00:00:00	2024-11-08T08:00:00	2	Temperatura media	16
147574	7	Sololá	712	San Antonio Palopó	9	San Antonio Palopo	1	Enero	2023-12-01T00:00:00	2024-11-08T08:00:00	4	Temperatura máxima	16.1
147575	7	Sololá	712	San Antonio Palopó	9	San Antonio Palopo	1	Enero	2023-12-01T00:00:00	2024-11-08T08:00:00	3	Temperatura mínima	15.8
147576	7	Sololá	712	San Antonio Palopó	9	San Antonio Palopo	1	Enero	2023-12-01T00:00:00	2024-11-08T08:00:00	5	Humedad	73
147577	7	Sololá	712	San Antonio Palopó	9	San Antonio Palopo	1	Enero	2023-12-01T00:00:00	2024-11-08T08:00:00	6	Velocidad del viento	3.2
147578	7	Sololá	712	San Antonio Palopó	9	San Antonio Palopo	1	Enero	2023-12-01T00:00:00	2024-11-08T08:00:00	7	Dirección del viento	3.22
147579	7	Sololá	712	San Antonio Palopó	9	San Antonio Palopo	1	Enero	2023-12-01T00:00:00	2024-11-08T08:00:00	1	Precipitación	0
147580	7	Sololá	712	San Antonio Palopó	9	San Antonio Palopo	1	Enero	2023-12-01T00:00:00	2024-11-08T08:00:00	8	Radiación solar	16
147581	7	Sololá	712	San Antonio Palopó	9	San Antonio Palopo	1	Enero	2023-12-01T00:00:00	2024-11-08T09:00:00	2	Temperatura media	16.5
147582	7	Sololá	712	San Antonio Palopó	9	San Antonio Palopo	1	Enero	2023-12-01T00:00:00	2024-11-08T09:00:00	4	Temperatura máxima	16.5
147583	7	Sololá	712	San Antonio Palopó	9	San Antonio Palopo	1	Enero	2023-12-01T00:00:00	2024-11-08T09:00:00	3	Temperatura mínima	15.5
147584	7	Sololá	712	San Antonio Palopó	9	San Antonio Palopo	1	Enero	2023-12-01T00:00:00	2024-11-08T09:00:00	5	Humedad	76
147585	7	Sololá	712	San Antonio Palopó	9	San Antonio Palopo	1	Enero	2023-12-01T00:00:00	2024-11-08T09:00:00	6	Velocidad del viento	3.2
147586	7	Sololá	712	San Antonio Palopó	9	San Antonio Palopo	1	Enero	2023-12-01T00:00:00	2024-11-08T09:00:00	7	Dirección del viento	3.22
147587	7	Sololá	712	San Antonio Palopó	9	San Antonio Palopo	1	Enero	2023-12-01T00:00:00	2024-11-08T09:00:00	1	Precipitación	0
147588	7	Sololá	712	San Antonio Palopó	9	San Antonio Palopo	1	Enero	2023-12-01T00:00:00	2024-11-08T09:00:00	8	Radiación solar	100
147589	7	Sololá	712	San Antonio Palopó	9	San Antonio Palopo	1	Enero	2023-12-01T00:00:00	2024-11-08T10:00:00	2	Temperatura media	19.2
147590	7	Sololá	712	San Antonio Palopó	9	San Antonio Palopo	1	Enero	2023-12-01T00:00:00	2024-11-08T10:00:00	4	Temperatura máxima	19.6
147591	7	Sololá	712	San Antonio Palopó	9	San Antonio Palopo	1	Enero	2023-12-01T00:00:00	2024-11-08T10:00:00	3	Temperatura mínima	16.6
147592	7	Sololá	712	San Antonio Palopó	9	San Antonio Palopo	1	Enero	2023-12-01T00:00:00	2024-11-08T10:00:00	5	Humedad	69
147593	7	Sololá	712	San Antonio Palopó	9	San Antonio Palopo	1	Enero	2023-12-01T00:00:00	2024-11-08T10:00:00	6	Velocidad del viento	3.2
147594	7	Sololá	712	San Antonio Palopó	9	San Antonio Palopo	1	Enero	2023-12-01T00:00:00	2024-11-08T10:00:00	7	Dirección del viento	3.22
147595	7	Sololá	712	San Antonio Palopó	9	San Antonio Palopo	1	Enero	2023-12-01T00:00:00	2024-11-08T10:00:00	1	Precipitación	0
147596	7	Sololá	712	San Antonio Palopó	9	San Antonio Palopo	1	Enero	2023-12-01T00:00:00	2024-11-08T10:00:00	8	Radiación solar	514
147597	7	Sololá	712	San Antonio Palopó	9	San Antonio Palopo	1	Enero	2023-12-01T00:00:00	2024-11-08T11:00:00	2	Temperatura media	20.7
147598	7	Sololá	712	San Antonio Palopó	9	San Antonio Palopo	1	Enero	2023-12-01T00:00:00	2024-11-08T11:00:00	4	Temperatura máxima	20.7
147599	7	Sololá	712	San Antonio Palopó	9	San Antonio Palopo	1	Enero	2023-12-01T00:00:00	2024-11-08T11:00:00	3	Temperatura mínima	19.1
147600	7	Sololá	712	San Antonio Palopó	9	San Antonio Palopo	1	Enero	2023-12-01T00:00:00	2024-11-08T11:00:00	5	Humedad	63
147601	7	Sololá	712	San Antonio Palopó	9	San Antonio Palopo	1	Enero	2023-12-01T00:00:00	2024-11-08T11:00:00	6	Velocidad del viento	3.2
147602	7	Sololá	712	San Antonio Palopó	9	San Antonio Palopo	1	Enero	2023-12-01T00:00:00	2024-11-08T11:00:00	7	Dirección del viento	3.22
147603	7	Sololá	712	San Antonio Palopó	9	San Antonio Palopo	1	Enero	2023-12-01T00:00:00	2024-11-08T11:00:00	1	Precipitación	0
147604	7	Sololá	712	San Antonio Palopó	9	San Antonio Palopo	1	Enero	2023-12-01T00:00:00	2024-11-08T11:00:00	8	Radiación solar	648
147605	7	Sololá	712	San Antonio Palopó	9	San Antonio Palopo	1	Enero	2023-12-01T00:00:00	2024-11-08T12:00:00	2	Temperatura media	21.1
147606	7	Sololá	712	San Antonio Palopó	9	San Antonio Palopo	1	Enero	2023-12-01T00:00:00	2024-11-08T12:00:00	4	Temperatura máxima	21.2
147607	7	Sololá	712	San Antonio Palopó	9	San Antonio Palopo	1	Enero	2023-12-01T00:00:00	2024-11-08T12:00:00	3	Temperatura mínima	20.7
147608	7	Sololá	712	San Antonio Palopó	9	San Antonio Palopo	1	Enero	2023-12-01T00:00:00	2024-11-08T12:00:00	5	Humedad	67
147609	7	Sololá	712	San Antonio Palopó	9	San Antonio Palopo	1	Enero	2023-12-01T00:00:00	2024-11-08T12:00:00	6	Velocidad del viento	3.2
147610	7	Sololá	712	San Antonio Palopó	9	San Antonio Palopo	1	Enero	2023-12-01T00:00:00	2024-11-08T12:00:00	7	Dirección del viento	3.22
147611	7	Sololá	712	San Antonio Palopó	9	San Antonio Palopo	1	Enero	2023-12-01T00:00:00	2024-11-08T12:00:00	1	Precipitación	0
147612	7	Sololá	712	San Antonio Palopó	9	San Antonio Palopo	1	Enero	2023-12-01T00:00:00	2024-11-08T12:00:00	8	Radiación solar	633
147613	7	Sololá	712	San Antonio Palopó	9	San Antonio Palopo	1	Enero	2023-12-01T00:00:00	2024-11-08T13:00:00	2	Temperatura media	21.9
147614	7	Sololá	712	San Antonio Palopó	9	San Antonio Palopo	1	Enero	2023-12-01T00:00:00	2024-11-08T13:00:00	4	Temperatura máxima	22.3
147615	7	Sololá	712	San Antonio Palopó	9	San Antonio Palopo	1	Enero	2023-12-01T00:00:00	2024-11-08T13:00:00	3	Temperatura mínima	20.7
147616	7	Sololá	712	San Antonio Palopó	9	San Antonio Palopo	1	Enero	2023-12-01T00:00:00	2024-11-08T13:00:00	5	Humedad	69
147617	7	Sololá	712	San Antonio Palopó	9	San Antonio Palopo	1	Enero	2023-12-01T00:00:00	2024-11-08T13:00:00	6	Velocidad del viento	9.7
147618	7	Sololá	712	San Antonio Palopó	9	San Antonio Palopo	1	Enero	2023-12-01T00:00:00	2024-11-08T13:00:00	7	Dirección del viento	9.66
147619	7	Sololá	712	San Antonio Palopó	9	San Antonio Palopo	1	Enero	2023-12-01T00:00:00	2024-11-08T13:00:00	1	Precipitación	0
147620	7	Sololá	712	San Antonio Palopó	9	San Antonio Palopo	1	Enero	2023-12-01T00:00:00	2024-11-08T13:00:00	8	Radiación solar	757
147621	7	Sololá	712	San Antonio Palopó	9	San Antonio Palopo	1	Enero	2023-12-01T00:00:00	2024-11-08T14:00:00	2	Temperatura media	21.6
147622	7	Sololá	712	San Antonio Palopó	9	San Antonio Palopo	1	Enero	2023-12-01T00:00:00	2024-11-08T14:00:00	4	Temperatura máxima	22.4
147623	7	Sololá	712	San Antonio Palopó	9	San Antonio Palopo	1	Enero	2023-12-01T00:00:00	2024-11-08T14:00:00	3	Temperatura mínima	21.3
147624	7	Sololá	712	San Antonio Palopó	9	San Antonio Palopo	1	Enero	2023-12-01T00:00:00	2024-11-08T14:00:00	5	Humedad	71
147625	7	Sololá	712	San Antonio Palopó	9	San Antonio Palopo	1	Enero	2023-12-01T00:00:00	2024-11-08T14:00:00	6	Velocidad del viento	9.7
147626	7	Sololá	712	San Antonio Palopó	9	San Antonio Palopo	1	Enero	2023-12-01T00:00:00	2024-11-08T14:00:00	7	Dirección del viento	9.66
147627	7	Sololá	712	San Antonio Palopó	9	San Antonio Palopo	1	Enero	2023-12-01T00:00:00	2024-11-08T14:00:00	1	Precipitación	0
147628	7	Sololá	712	San Antonio Palopó	9	San Antonio Palopo	1	Enero	2023-12-01T00:00:00	2024-11-08T14:00:00	8	Radiación solar	705
147629	7	Sololá	712	San Antonio Palopó	9	San Antonio Palopo	1	Enero	2023-12-01T00:00:00	2024-11-08T15:00:00	2	Temperatura media	20.7
147630	7	Sololá	712	San Antonio Palopó	9	San Antonio Palopo	1	Enero	2023-12-01T00:00:00	2024-11-08T15:00:00	4	Temperatura máxima	21.6
147631	7	Sololá	712	San Antonio Palopó	9	San Antonio Palopo	1	Enero	2023-12-01T00:00:00	2024-11-08T15:00:00	3	Temperatura mínima	20.6
147632	7	Sololá	712	San Antonio Palopó	9	San Antonio Palopo	1	Enero	2023-12-01T00:00:00	2024-11-08T15:00:00	5	Humedad	77
147633	7	Sololá	712	San Antonio Palopó	9	San Antonio Palopo	1	Enero	2023-12-01T00:00:00	2024-11-08T15:00:00	6	Velocidad del viento	11.3
147634	7	Sololá	712	San Antonio Palopó	9	San Antonio Palopo	1	Enero	2023-12-01T00:00:00	2024-11-08T15:00:00	7	Dirección del viento	11.27
147635	7	Sololá	712	San Antonio Palopó	9	San Antonio Palopo	1	Enero	2023-12-01T00:00:00	2024-11-08T15:00:00	1	Precipitación	0
147636	7	Sololá	712	San Antonio Palopó	9	San Antonio Palopo	1	Enero	2023-12-01T00:00:00	2024-11-08T15:00:00	8	Radiación solar	331
147637	7	Sololá	712	San Antonio Palopó	9	San Antonio Palopo	1	Enero	2023-12-01T00:00:00	2024-11-08T16:00:00	2	Temperatura media	21.7
147638	7	Sololá	712	San Antonio Palopó	9	San Antonio Palopo	1	Enero	2023-12-01T00:00:00	2024-11-08T16:00:00	4	Temperatura máxima	21.7
147639	7	Sololá	712	San Antonio Palopó	9	San Antonio Palopo	1	Enero	2023-12-01T00:00:00	2024-11-08T16:00:00	3	Temperatura mínima	20.7
147640	7	Sololá	712	San Antonio Palopó	9	San Antonio Palopo	1	Enero	2023-12-01T00:00:00	2024-11-08T16:00:00	5	Humedad	74
147641	7	Sololá	712	San Antonio Palopó	9	San Antonio Palopo	1	Enero	2023-12-01T00:00:00	2024-11-08T16:00:00	6	Velocidad del viento	8
147642	7	Sololá	712	San Antonio Palopó	9	San Antonio Palopo	1	Enero	2023-12-01T00:00:00	2024-11-08T16:00:00	7	Dirección del viento	8.05
147643	7	Sololá	712	San Antonio Palopó	9	San Antonio Palopo	1	Enero	2023-12-01T00:00:00	2024-11-08T16:00:00	1	Precipitación	0
147644	7	Sololá	712	San Antonio Palopó	9	San Antonio Palopo	1	Enero	2023-12-01T00:00:00	2024-11-08T16:00:00	8	Radiación solar	457
147645	7	Sololá	712	San Antonio Palopó	9	San Antonio Palopo	1	Enero	2023-12-01T00:00:00	2024-11-08T17:00:00	2	Temperatura media	20.3
147646	7	Sololá	712	San Antonio Palopó	9	San Antonio Palopo	1	Enero	2023-12-01T00:00:00	2024-11-08T17:00:00	4	Temperatura máxima	21.8
147647	7	Sololá	712	San Antonio Palopó	9	San Antonio Palopo	1	Enero	2023-12-01T00:00:00	2024-11-08T17:00:00	3	Temperatura mínima	20.3
147648	7	Sololá	712	San Antonio Palopó	9	San Antonio Palopo	1	Enero	2023-12-01T00:00:00	2024-11-08T17:00:00	5	Humedad	80
147649	7	Sololá	712	San Antonio Palopó	9	San Antonio Palopo	1	Enero	2023-12-01T00:00:00	2024-11-08T17:00:00	6	Velocidad del viento	6.4
147650	7	Sololá	712	San Antonio Palopó	9	San Antonio Palopo	1	Enero	2023-12-01T00:00:00	2024-11-08T17:00:00	7	Dirección del viento	6.44
147651	7	Sololá	712	San Antonio Palopó	9	San Antonio Palopo	1	Enero	2023-12-01T00:00:00	2024-11-08T17:00:00	1	Precipitación	0
147652	7	Sololá	712	San Antonio Palopó	9	San Antonio Palopo	1	Enero	2023-12-01T00:00:00	2024-11-08T17:00:00	8	Radiación solar	196
147653	7	Sololá	712	San Antonio Palopó	9	San Antonio Palopo	1	Enero	2023-12-01T00:00:00	2024-11-08T18:00:00	2	Temperatura media	19.2
147654	7	Sololá	712	San Antonio Palopó	9	San Antonio Palopo	1	Enero	2023-12-01T00:00:00	2024-11-08T18:00:00	4	Temperatura máxima	20.3
147655	7	Sololá	712	San Antonio Palopó	9	San Antonio Palopo	1	Enero	2023-12-01T00:00:00	2024-11-08T18:00:00	3	Temperatura mínima	19.2
147656	7	Sololá	712	San Antonio Palopó	9	San Antonio Palopo	1	Enero	2023-12-01T00:00:00	2024-11-08T18:00:00	5	Humedad	81
147657	7	Sololá	712	San Antonio Palopó	9	San Antonio Palopo	1	Enero	2023-12-01T00:00:00	2024-11-08T18:00:00	6	Velocidad del viento	4.8
147658	7	Sololá	712	San Antonio Palopó	9	San Antonio Palopo	1	Enero	2023-12-01T00:00:00	2024-11-08T18:00:00	7	Dirección del viento	4.83
147659	7	Sololá	712	San Antonio Palopó	9	San Antonio Palopo	1	Enero	2023-12-01T00:00:00	2024-11-08T18:00:00	1	Precipitación	0
147660	7	Sololá	712	San Antonio Palopó	9	San Antonio Palopo	1	Enero	2023-12-01T00:00:00	2024-11-08T18:00:00	8	Radiación solar	28
147661	7	Sololá	712	San Antonio Palopó	9	San Antonio Palopo	1	Enero	2023-12-01T00:00:00	2024-11-08T19:00:00	2	Temperatura media	18.5
147662	7	Sololá	712	San Antonio Palopó	9	San Antonio Palopo	1	Enero	2023-12-01T00:00:00	2024-11-08T19:00:00	4	Temperatura máxima	19.2
147663	7	Sololá	712	San Antonio Palopó	9	San Antonio Palopo	1	Enero	2023-12-01T00:00:00	2024-11-08T19:00:00	3	Temperatura mínima	18.5
147664	7	Sololá	712	San Antonio Palopó	9	San Antonio Palopo	1	Enero	2023-12-01T00:00:00	2024-11-08T19:00:00	5	Humedad	80
147665	7	Sololá	712	San Antonio Palopó	9	San Antonio Palopo	1	Enero	2023-12-01T00:00:00	2024-11-08T19:00:00	6	Velocidad del viento	1.6
147666	7	Sololá	712	San Antonio Palopó	9	San Antonio Palopo	1	Enero	2023-12-01T00:00:00	2024-11-08T19:00:00	7	Dirección del viento	1.61
147667	7	Sololá	712	San Antonio Palopó	9	San Antonio Palopo	1	Enero	2023-12-01T00:00:00	2024-11-08T19:00:00	1	Precipitación	0
147668	7	Sololá	712	San Antonio Palopó	9	San Antonio Palopo	1	Enero	2023-12-01T00:00:00	2024-11-08T19:00:00	8	Radiación solar	0
147669	7	Sololá	712	San Antonio Palopó	9	San Antonio Palopo	1	Enero	2023-12-01T00:00:00	2024-11-08T20:00:00	2	Temperatura media	18.7
147670	7	Sololá	712	San Antonio Palopó	9	San Antonio Palopo	1	Enero	2023-12-01T00:00:00	2024-11-08T20:00:00	4	Temperatura máxima	18.7
147671	7	Sololá	712	San Antonio Palopó	9	San Antonio Palopo	1	Enero	2023-12-01T00:00:00	2024-11-08T20:00:00	3	Temperatura mínima	18.1
147672	7	Sololá	712	San Antonio Palopó	9	San Antonio Palopo	1	Enero	2023-12-01T00:00:00	2024-11-08T20:00:00	5	Humedad	78
147673	7	Sololá	712	San Antonio Palopó	9	San Antonio Palopo	1	Enero	2023-12-01T00:00:00	2024-11-08T20:00:00	6	Velocidad del viento	3.2
147674	7	Sololá	712	San Antonio Palopó	9	San Antonio Palopo	1	Enero	2023-12-01T00:00:00	2024-11-08T20:00:00	7	Dirección del viento	3.22
147675	7	Sololá	712	San Antonio Palopó	9	San Antonio Palopo	1	Enero	2023-12-01T00:00:00	2024-11-08T20:00:00	1	Precipitación	0
147676	7	Sololá	712	San Antonio Palopó	9	San Antonio Palopo	1	Enero	2023-12-01T00:00:00	2024-11-08T20:00:00	8	Radiación solar	0
147677	7	Sololá	712	San Antonio Palopó	9	San Antonio Palopo	1	Enero	2023-12-01T00:00:00	2024-11-08T21:00:00	2	Temperatura media	19.3
147678	7	Sololá	712	San Antonio Palopó	9	San Antonio Palopo	1	Enero	2023-12-01T00:00:00	2024-11-08T21:00:00	4	Temperatura máxima	19.3
147679	7	Sololá	712	San Antonio Palopó	9	San Antonio Palopo	1	Enero	2023-12-01T00:00:00	2024-11-08T21:00:00	3	Temperatura mínima	18.2
147680	7	Sololá	712	San Antonio Palopó	9	San Antonio Palopo	1	Enero	2023-12-01T00:00:00	2024-11-08T21:00:00	5	Humedad	74
147681	7	Sololá	712	San Antonio Palopó	9	San Antonio Palopo	1	Enero	2023-12-01T00:00:00	2024-11-08T21:00:00	6	Velocidad del viento	4.8
147682	7	Sololá	712	San Antonio Palopó	9	San Antonio Palopo	1	Enero	2023-12-01T00:00:00	2024-11-08T21:00:00	7	Dirección del viento	4.83
147683	7	Sololá	712	San Antonio Palopó	9	San Antonio Palopo	1	Enero	2023-12-01T00:00:00	2024-11-08T21:00:00	1	Precipitación	0
147684	7	Sololá	712	San Antonio Palopó	9	San Antonio Palopo	1	Enero	2023-12-01T00:00:00	2024-11-08T21:00:00	8	Radiación solar	0
147685	7	Sololá	712	San Antonio Palopó	9	San Antonio Palopo	1	Enero	2023-12-01T00:00:00	2024-11-08T22:00:00	2	Temperatura media	18.6
147686	7	Sololá	712	San Antonio Palopó	9	San Antonio Palopo	1	Enero	2023-12-01T00:00:00	2024-11-08T22:00:00	4	Temperatura máxima	19.4
147687	7	Sololá	712	San Antonio Palopó	9	San Antonio Palopo	1	Enero	2023-12-01T00:00:00	2024-11-08T22:00:00	3	Temperatura mínima	18.6
147688	7	Sololá	712	San Antonio Palopó	9	San Antonio Palopo	1	Enero	2023-12-01T00:00:00	2024-11-08T22:00:00	5	Humedad	74
147689	7	Sololá	712	San Antonio Palopó	9	San Antonio Palopo	1	Enero	2023-12-01T00:00:00	2024-11-08T22:00:00	6	Velocidad del viento	4.8
147690	7	Sololá	712	San Antonio Palopó	9	San Antonio Palopo	1	Enero	2023-12-01T00:00:00	2024-11-08T22:00:00	7	Dirección del viento	4.83
147691	7	Sololá	712	San Antonio Palopó	9	San Antonio Palopo	1	Enero	2023-12-01T00:00:00	2024-11-08T22:00:00	1	Precipitación	0
147692	7	Sololá	712	San Antonio Palopó	9	San Antonio Palopo	1	Enero	2023-12-01T00:00:00	2024-11-08T22:00:00	8	Radiación solar	0
147693	7	Sololá	712	San Antonio Palopó	9	San Antonio Palopo	1	Enero	2023-12-01T00:00:00	2024-11-08T23:00:00	2	Temperatura media	18.2
147694	7	Sololá	712	San Antonio Palopó	9	San Antonio Palopo	1	Enero	2023-12-01T00:00:00	2024-11-08T23:00:00	4	Temperatura máxima	18.6
147695	7	Sololá	712	San Antonio Palopó	9	San Antonio Palopo	1	Enero	2023-12-01T00:00:00	2024-11-08T23:00:00	3	Temperatura mínima	18.1
147696	7	Sololá	712	San Antonio Palopó	9	San Antonio Palopo	1	Enero	2023-12-01T00:00:00	2024-11-08T23:00:00	5	Humedad	74
147697	7	Sololá	712	San Antonio Palopó	9	San Antonio Palopo	1	Enero	2023-12-01T00:00:00	2024-11-08T23:00:00	6	Velocidad del viento	6.4
147698	7	Sololá	712	San Antonio Palopó	9	San Antonio Palopo	1	Enero	2023-12-01T00:00:00	2024-11-08T23:00:00	7	Dirección del viento	6.44
147699	7	Sololá	712	San Antonio Palopó	9	San Antonio Palopo	1	Enero	2023-12-01T00:00:00	2024-11-08T23:00:00	1	Precipitación	0
147700	7	Sololá	712	San Antonio Palopó	9	San Antonio Palopo	1	Enero	2023-12-01T00:00:00	2024-11-08T23:00:00	8	Radiación solar	0
147701	7	Sololá	712	San Antonio Palopó	9	San Antonio Palopo	1	Enero	2023-01-13T00:00:00	2024-11-08T00:00:00	2	Temperatura media	17.9
147702	7	Sololá	712	San Antonio Palopó	9	San Antonio Palopo	1	Enero	2023-01-13T00:00:00	2024-11-08T00:00:00	4	Temperatura máxima	18.3
147703	7	Sololá	712	San Antonio Palopó	9	San Antonio Palopo	1	Enero	2023-01-13T00:00:00	2024-11-08T00:00:00	3	Temperatura mínima	17.9
147704	7	Sololá	712	San Antonio Palopó	9	San Antonio Palopo	1	Enero	2023-01-13T00:00:00	2024-11-08T00:00:00	5	Humedad	73
147705	7	Sololá	712	San Antonio Palopó	9	San Antonio Palopo	1	Enero	2023-01-13T00:00:00	2024-11-08T00:00:00	6	Velocidad del viento	8
147706	7	Sololá	712	San Antonio Palopó	9	San Antonio Palopo	1	Enero	2023-01-13T00:00:00	2024-11-08T00:00:00	7	Dirección del viento	8.05
147707	7	Sololá	712	San Antonio Palopó	9	San Antonio Palopo	1	Enero	2023-01-13T00:00:00	2024-11-08T00:00:00	1	Precipitación	0
147708	7	Sololá	712	San Antonio Palopó	9	San Antonio Palopo	1	Enero	2023-01-13T00:00:00	2024-11-08T00:00:00	8	Radiación solar	0
147709	7	Sololá	712	San Antonio Palopó	9	San Antonio Palopo	1	Enero	2023-01-13T00:00:00	2024-11-08T01:00:00	2	Temperatura media	17.6
147710	7	Sololá	712	San Antonio Palopó	9	San Antonio Palopo	1	Enero	2023-01-13T00:00:00	2024-11-08T01:00:00	4	Temperatura máxima	18
147711	7	Sololá	712	San Antonio Palopó	9	San Antonio Palopo	1	Enero	2023-01-13T00:00:00	2024-11-08T01:00:00	3	Temperatura mínima	17.5
147712	7	Sololá	712	San Antonio Palopó	9	San Antonio Palopo	1	Enero	2023-01-13T00:00:00	2024-11-08T01:00:00	5	Humedad	71
147713	7	Sololá	712	San Antonio Palopó	9	San Antonio Palopo	1	Enero	2023-01-13T00:00:00	2024-11-08T01:00:00	6	Velocidad del viento	6.4
147714	7	Sololá	712	San Antonio Palopó	9	San Antonio Palopo	1	Enero	2023-01-13T00:00:00	2024-11-08T01:00:00	7	Dirección del viento	6.44
147715	7	Sololá	712	San Antonio Palopó	9	San Antonio Palopo	1	Enero	2023-01-13T00:00:00	2024-11-08T01:00:00	1	Precipitación	0
147716	7	Sololá	712	San Antonio Palopó	9	San Antonio Palopo	1	Enero	2023-01-13T00:00:00	2024-11-08T01:00:00	8	Radiación solar	0
147717	7	Sololá	712	San Antonio Palopó	9	San Antonio Palopo	1	Enero	2023-01-13T00:00:00	2024-11-08T02:00:00	2	Temperatura media	17
147718	7	Sololá	712	San Antonio Palopó	9	San Antonio Palopo	1	Enero	2023-01-13T00:00:00	2024-11-08T02:00:00	4	Temperatura máxima	17.6
147719	7	Sololá	712	San Antonio Palopó	9	San Antonio Palopo	1	Enero	2023-01-13T00:00:00	2024-11-08T02:00:00	3	Temperatura mínima	16.6
147720	7	Sololá	712	San Antonio Palopó	9	San Antonio Palopo	1	Enero	2023-01-13T00:00:00	2024-11-08T02:00:00	5	Humedad	69
147721	7	Sololá	712	San Antonio Palopó	9	San Antonio Palopo	1	Enero	2023-01-13T00:00:00	2024-11-08T02:00:00	6	Velocidad del viento	4.8
147722	7	Sololá	712	San Antonio Palopó	9	San Antonio Palopo	1	Enero	2023-01-13T00:00:00	2024-11-08T02:00:00	7	Dirección del viento	4.83
147723	7	Sololá	712	San Antonio Palopó	9	San Antonio Palopo	1	Enero	2023-01-13T00:00:00	2024-11-08T02:00:00	1	Precipitación	0
147724	7	Sololá	712	San Antonio Palopó	9	San Antonio Palopo	1	Enero	2023-01-13T00:00:00	2024-11-08T02:00:00	8	Radiación solar	0
147725	7	Sololá	712	San Antonio Palopó	9	San Antonio Palopo	1	Enero	2023-01-13T00:00:00	2024-11-08T03:00:00	2	Temperatura media	17.2
147726	7	Sololá	712	San Antonio Palopó	9	San Antonio Palopo	1	Enero	2023-01-13T00:00:00	2024-11-08T03:00:00	4	Temperatura máxima	17.4
147727	7	Sololá	712	San Antonio Palopó	9	San Antonio Palopo	1	Enero	2023-01-13T00:00:00	2024-11-08T03:00:00	3	Temperatura mínima	16.7
147728	7	Sololá	712	San Antonio Palopó	9	San Antonio Palopo	1	Enero	2023-01-13T00:00:00	2024-11-08T03:00:00	5	Humedad	67
147729	7	Sololá	712	San Antonio Palopó	9	San Antonio Palopo	1	Enero	2023-01-13T00:00:00	2024-11-08T03:00:00	6	Velocidad del viento	6.4
147730	7	Sololá	712	San Antonio Palopó	9	San Antonio Palopo	1	Enero	2023-01-13T00:00:00	2024-11-08T03:00:00	7	Dirección del viento	6.44
147731	7	Sololá	712	San Antonio Palopó	9	San Antonio Palopo	1	Enero	2023-01-13T00:00:00	2024-11-08T03:00:00	1	Precipitación	0
147732	7	Sololá	712	San Antonio Palopó	9	San Antonio Palopo	1	Enero	2023-01-13T00:00:00	2024-11-08T03:00:00	8	Radiación solar	0
147733	7	Sololá	712	San Antonio Palopó	9	San Antonio Palopo	1	Enero	2023-01-13T00:00:00	2024-11-08T04:00:00	2	Temperatura media	17.3
147734	7	Sololá	712	San Antonio Palopó	9	San Antonio Palopo	1	Enero	2023-01-13T00:00:00	2024-11-08T04:00:00	4	Temperatura máxima	17.4
147735	7	Sololá	712	San Antonio Palopó	9	San Antonio Palopo	1	Enero	2023-01-13T00:00:00	2024-11-08T04:00:00	3	Temperatura mínima	16.9
147736	7	Sololá	712	San Antonio Palopó	9	San Antonio Palopo	1	Enero	2023-01-13T00:00:00	2024-11-08T04:00:00	5	Humedad	67
147737	7	Sololá	712	San Antonio Palopó	9	San Antonio Palopo	1	Enero	2023-01-13T00:00:00	2024-11-08T04:00:00	6	Velocidad del viento	4.8
147738	7	Sololá	712	San Antonio Palopó	9	San Antonio Palopo	1	Enero	2023-01-13T00:00:00	2024-11-08T04:00:00	7	Dirección del viento	4.83
147739	7	Sololá	712	San Antonio Palopó	9	San Antonio Palopo	1	Enero	2023-01-13T00:00:00	2024-11-08T04:00:00	1	Precipitación	0
147740	7	Sololá	712	San Antonio Palopó	9	San Antonio Palopo	1	Enero	2023-01-13T00:00:00	2024-11-08T04:00:00	8	Radiación solar	0
147741	7	Sololá	712	San Antonio Palopó	9	San Antonio Palopo	1	Enero	2023-01-13T00:00:00	2024-11-08T05:00:00	2	Temperatura media	18.1
147742	7	Sololá	712	San Antonio Palopó	9	San Antonio Palopo	1	Enero	2023-01-13T00:00:00	2024-11-08T05:00:00	4	Temperatura máxima	18.3
147743	7	Sololá	712	San Antonio Palopó	9	San Antonio Palopo	1	Enero	2023-01-13T00:00:00	2024-11-08T05:00:00	3	Temperatura mínima	17.1
147744	7	Sololá	712	San Antonio Palopó	9	San Antonio Palopo	1	Enero	2023-01-13T00:00:00	2024-11-08T05:00:00	5	Humedad	63
147745	7	Sololá	712	San Antonio Palopó	9	San Antonio Palopo	1	Enero	2023-01-13T00:00:00	2024-11-08T05:00:00	6	Velocidad del viento	6.4
147746	7	Sololá	712	San Antonio Palopó	9	San Antonio Palopo	1	Enero	2023-01-13T00:00:00	2024-11-08T05:00:00	7	Dirección del viento	6.44
147747	7	Sololá	712	San Antonio Palopó	9	San Antonio Palopo	1	Enero	2023-01-13T00:00:00	2024-11-08T05:00:00	1	Precipitación	0
147748	7	Sololá	712	San Antonio Palopó	9	San Antonio Palopo	1	Enero	2023-01-13T00:00:00	2024-11-08T05:00:00	8	Radiación solar	0
147749	7	Sololá	712	San Antonio Palopó	9	San Antonio Palopo	1	Enero	2023-01-13T00:00:00	2024-11-08T06:00:00	2	Temperatura media	16.7
147750	7	Sololá	712	San Antonio Palopó	9	San Antonio Palopo	1	Enero	2023-01-13T00:00:00	2024-11-08T06:00:00	4	Temperatura máxima	18.1
147751	7	Sololá	712	San Antonio Palopó	9	San Antonio Palopo	1	Enero	2023-01-13T00:00:00	2024-11-08T06:00:00	3	Temperatura mínima	16.7
147752	7	Sololá	712	San Antonio Palopó	9	San Antonio Palopo	1	Enero	2023-01-13T00:00:00	2024-11-08T06:00:00	5	Humedad	67
147753	7	Sololá	712	San Antonio Palopó	9	San Antonio Palopo	1	Enero	2023-01-13T00:00:00	2024-11-08T06:00:00	6	Velocidad del viento	6.4
147754	7	Sololá	712	San Antonio Palopó	9	San Antonio Palopo	1	Enero	2023-01-13T00:00:00	2024-11-08T06:00:00	7	Dirección del viento	6.44
147755	7	Sololá	712	San Antonio Palopó	9	San Antonio Palopo	1	Enero	2023-01-13T00:00:00	2024-11-08T06:00:00	1	Precipitación	0
147756	7	Sololá	712	San Antonio Palopó	9	San Antonio Palopo	1	Enero	2023-01-13T00:00:00	2024-11-08T06:00:00	8	Radiación solar	0
147757	7	Sololá	712	San Antonio Palopó	9	San Antonio Palopo	1	Enero	2023-01-13T00:00:00	2024-11-08T07:00:00	2	Temperatura media	18.1
147758	7	Sololá	712	San Antonio Palopó	9	San Antonio Palopo	1	Enero	2023-01-13T00:00:00	2024-11-08T07:00:00	4	Temperatura máxima	18.1
147759	7	Sololá	712	San Antonio Palopó	9	San Antonio Palopo	1	Enero	2023-01-13T00:00:00	2024-11-08T07:00:00	3	Temperatura mínima	16.2
147760	7	Sololá	712	San Antonio Palopó	9	San Antonio Palopo	1	Enero	2023-01-13T00:00:00	2024-11-08T07:00:00	5	Humedad	62
147761	7	Sololá	712	San Antonio Palopó	9	San Antonio Palopo	1	Enero	2023-01-13T00:00:00	2024-11-08T07:00:00	6	Velocidad del viento	8
147762	7	Sololá	712	San Antonio Palopó	9	San Antonio Palopo	1	Enero	2023-01-13T00:00:00	2024-11-08T07:00:00	7	Dirección del viento	8.05
147763	7	Sololá	712	San Antonio Palopó	9	San Antonio Palopo	1	Enero	2023-01-13T00:00:00	2024-11-08T07:00:00	1	Precipitación	0
147764	7	Sololá	712	San Antonio Palopó	9	San Antonio Palopo	1	Enero	2023-01-13T00:00:00	2024-11-08T07:00:00	8	Radiación solar	3
147765	7	Sololá	712	San Antonio Palopó	9	San Antonio Palopo	1	Enero	2023-01-13T00:00:00	2024-11-08T08:00:00	2	Temperatura media	18.6
147766	7	Sololá	712	San Antonio Palopó	9	San Antonio Palopo	1	Enero	2023-01-13T00:00:00	2024-11-08T08:00:00	4	Temperatura máxima	18.6
147767	7	Sololá	712	San Antonio Palopó	9	San Antonio Palopo	1	Enero	2023-01-13T00:00:00	2024-11-08T08:00:00	3	Temperatura mínima	18.1
147768	7	Sololá	712	San Antonio Palopó	9	San Antonio Palopo	1	Enero	2023-01-13T00:00:00	2024-11-08T08:00:00	5	Humedad	62
147769	7	Sololá	712	San Antonio Palopó	9	San Antonio Palopo	1	Enero	2023-01-13T00:00:00	2024-11-08T08:00:00	6	Velocidad del viento	14.5
147770	7	Sololá	712	San Antonio Palopó	9	San Antonio Palopo	1	Enero	2023-01-13T00:00:00	2024-11-08T08:00:00	7	Dirección del viento	14.48
147771	7	Sololá	712	San Antonio Palopó	9	San Antonio Palopo	1	Enero	2023-01-13T00:00:00	2024-11-08T08:00:00	1	Precipitación	0
147772	7	Sololá	712	San Antonio Palopó	9	San Antonio Palopo	1	Enero	2023-01-13T00:00:00	2024-11-08T08:00:00	8	Radiación solar	17
147773	7	Sololá	712	San Antonio Palopó	9	San Antonio Palopo	1	Enero	2023-01-13T00:00:00	2024-11-08T09:00:00	2	Temperatura media	19.5
147774	7	Sololá	712	San Antonio Palopó	9	San Antonio Palopo	1	Enero	2023-01-13T00:00:00	2024-11-08T09:00:00	4	Temperatura máxima	19.5
147775	7	Sololá	712	San Antonio Palopó	9	San Antonio Palopo	1	Enero	2023-01-13T00:00:00	2024-11-08T09:00:00	3	Temperatura mínima	18.6
147776	7	Sololá	712	San Antonio Palopó	9	San Antonio Palopo	1	Enero	2023-01-13T00:00:00	2024-11-08T09:00:00	5	Humedad	63
147777	7	Sololá	712	San Antonio Palopó	9	San Antonio Palopo	1	Enero	2023-01-13T00:00:00	2024-11-08T09:00:00	6	Velocidad del viento	11.3
147778	7	Sololá	712	San Antonio Palopó	9	San Antonio Palopo	1	Enero	2023-01-13T00:00:00	2024-11-08T09:00:00	7	Dirección del viento	11.27
147779	7	Sololá	712	San Antonio Palopó	9	San Antonio Palopo	1	Enero	2023-01-13T00:00:00	2024-11-08T09:00:00	1	Precipitación	0
147780	7	Sololá	712	San Antonio Palopó	9	San Antonio Palopo	1	Enero	2023-01-13T00:00:00	2024-11-08T09:00:00	8	Radiación solar	111
147781	7	Sololá	712	San Antonio Palopó	9	San Antonio Palopo	1	Enero	2023-01-13T00:00:00	2024-11-08T10:00:00	2	Temperatura media	20.3
147782	7	Sololá	712	San Antonio Palopó	9	San Antonio Palopo	1	Enero	2023-01-13T00:00:00	2024-11-08T10:00:00	4	Temperatura máxima	20.5
147783	7	Sololá	712	San Antonio Palopó	9	San Antonio Palopo	1	Enero	2023-01-13T00:00:00	2024-11-08T10:00:00	3	Temperatura mínima	19.5
147784	7	Sololá	712	San Antonio Palopó	9	San Antonio Palopo	1	Enero	2023-01-13T00:00:00	2024-11-08T10:00:00	5	Humedad	59
147785	7	Sololá	712	San Antonio Palopó	9	San Antonio Palopo	1	Enero	2023-01-13T00:00:00	2024-11-08T10:00:00	6	Velocidad del viento	14.5
147786	7	Sololá	712	San Antonio Palopó	9	San Antonio Palopo	1	Enero	2023-01-13T00:00:00	2024-11-08T10:00:00	7	Dirección del viento	14.48
147787	7	Sololá	712	San Antonio Palopó	9	San Antonio Palopo	1	Enero	2023-01-13T00:00:00	2024-11-08T10:00:00	1	Precipitación	0
147788	7	Sololá	712	San Antonio Palopó	9	San Antonio Palopo	1	Enero	2023-01-13T00:00:00	2024-11-08T10:00:00	8	Radiación solar	539
147789	7	Sololá	712	San Antonio Palopó	9	San Antonio Palopo	1	Enero	2023-01-13T00:00:00	2024-11-08T11:00:00	2	Temperatura media	21
147790	7	Sololá	712	San Antonio Palopó	9	San Antonio Palopo	1	Enero	2023-01-13T00:00:00	2024-11-08T11:00:00	4	Temperatura máxima	21.6
147791	7	Sololá	712	San Antonio Palopó	9	San Antonio Palopo	1	Enero	2023-01-13T00:00:00	2024-11-08T11:00:00	3	Temperatura mínima	20.3
147792	7	Sololá	712	San Antonio Palopó	9	San Antonio Palopo	1	Enero	2023-01-13T00:00:00	2024-11-08T11:00:00	5	Humedad	58
147793	7	Sololá	712	San Antonio Palopó	9	San Antonio Palopo	1	Enero	2023-01-13T00:00:00	2024-11-08T11:00:00	6	Velocidad del viento	11.3
147794	7	Sololá	712	San Antonio Palopó	9	San Antonio Palopo	1	Enero	2023-01-13T00:00:00	2024-11-08T11:00:00	7	Dirección del viento	11.27
147795	7	Sololá	712	San Antonio Palopó	9	San Antonio Palopo	1	Enero	2023-01-13T00:00:00	2024-11-08T11:00:00	1	Precipitación	0
147796	7	Sololá	712	San Antonio Palopó	9	San Antonio Palopo	1	Enero	2023-01-13T00:00:00	2024-11-08T11:00:00	8	Radiación solar	699
147797	7	Sololá	712	San Antonio Palopó	9	San Antonio Palopo	1	Enero	2023-01-13T00:00:00	2024-11-08T12:00:00	2	Temperatura media	21.3
147798	7	Sololá	712	San Antonio Palopó	9	San Antonio Palopo	1	Enero	2023-01-13T00:00:00	2024-11-08T12:00:00	4	Temperatura máxima	21.8
147799	7	Sololá	712	San Antonio Palopó	9	San Antonio Palopo	1	Enero	2023-01-13T00:00:00	2024-11-08T12:00:00	3	Temperatura mínima	20.7
147800	7	Sololá	712	San Antonio Palopó	9	San Antonio Palopo	1	Enero	2023-01-13T00:00:00	2024-11-08T12:00:00	5	Humedad	57
147801	7	Sololá	712	San Antonio Palopó	9	San Antonio Palopo	1	Enero	2023-01-13T00:00:00	2024-11-08T12:00:00	6	Velocidad del viento	19.3
147802	7	Sololá	712	San Antonio Palopó	9	San Antonio Palopo	1	Enero	2023-01-13T00:00:00	2024-11-08T12:00:00	7	Dirección del viento	19.31
147803	7	Sololá	712	San Antonio Palopó	9	San Antonio Palopo	1	Enero	2023-01-13T00:00:00	2024-11-08T12:00:00	1	Precipitación	0
147804	7	Sololá	712	San Antonio Palopó	9	San Antonio Palopo	1	Enero	2023-01-13T00:00:00	2024-11-08T12:00:00	8	Radiación solar	661
147805	7	Sololá	712	San Antonio Palopó	9	San Antonio Palopo	1	Enero	2023-01-13T00:00:00	2024-11-08T13:00:00	2	Temperatura media	22.5
147806	7	Sololá	712	San Antonio Palopó	9	San Antonio Palopo	1	Enero	2023-01-13T00:00:00	2024-11-08T13:00:00	4	Temperatura máxima	22.5
147807	7	Sololá	712	San Antonio Palopó	9	San Antonio Palopo	1	Enero	2023-01-13T00:00:00	2024-11-08T13:00:00	3	Temperatura mínima	20.6
147808	7	Sololá	712	San Antonio Palopó	9	San Antonio Palopo	1	Enero	2023-01-13T00:00:00	2024-11-08T13:00:00	5	Humedad	53
147809	7	Sololá	712	San Antonio Palopó	9	San Antonio Palopo	1	Enero	2023-01-13T00:00:00	2024-11-08T13:00:00	6	Velocidad del viento	17.7
147810	7	Sololá	712	San Antonio Palopó	9	San Antonio Palopo	1	Enero	2023-01-13T00:00:00	2024-11-08T13:00:00	7	Dirección del viento	17.7
147811	7	Sololá	712	San Antonio Palopó	9	San Antonio Palopo	1	Enero	2023-01-13T00:00:00	2024-11-08T13:00:00	1	Precipitación	0
147812	7	Sololá	712	San Antonio Palopó	9	San Antonio Palopo	1	Enero	2023-01-13T00:00:00	2024-11-08T13:00:00	8	Radiación solar	739
147813	7	Sololá	712	San Antonio Palopó	9	San Antonio Palopo	1	Enero	2023-01-13T00:00:00	2024-11-08T14:00:00	2	Temperatura media	22
147814	7	Sololá	712	San Antonio Palopó	9	San Antonio Palopo	1	Enero	2023-01-13T00:00:00	2024-11-08T14:00:00	4	Temperatura máxima	23.4
147815	7	Sololá	712	San Antonio Palopó	9	San Antonio Palopo	1	Enero	2023-01-13T00:00:00	2024-11-08T14:00:00	3	Temperatura mínima	21.9
147816	7	Sololá	712	San Antonio Palopó	9	San Antonio Palopo	1	Enero	2023-01-13T00:00:00	2024-11-08T14:00:00	5	Humedad	54
147817	7	Sololá	712	San Antonio Palopó	9	San Antonio Palopo	1	Enero	2023-01-13T00:00:00	2024-11-08T14:00:00	6	Velocidad del viento	16.1
147818	7	Sololá	712	San Antonio Palopó	9	San Antonio Palopo	1	Enero	2023-01-13T00:00:00	2024-11-08T14:00:00	7	Dirección del viento	16.09
147819	7	Sololá	712	San Antonio Palopó	9	San Antonio Palopo	1	Enero	2023-01-13T00:00:00	2024-11-08T14:00:00	1	Precipitación	0
147820	7	Sololá	712	San Antonio Palopó	9	San Antonio Palopo	1	Enero	2023-01-13T00:00:00	2024-11-08T14:00:00	8	Radiación solar	677
147821	7	Sololá	712	San Antonio Palopó	9	San Antonio Palopo	1	Enero	2023-01-13T00:00:00	2024-11-08T15:00:00	2	Temperatura media	21.9
147822	7	Sololá	712	San Antonio Palopó	9	San Antonio Palopo	1	Enero	2023-01-13T00:00:00	2024-11-08T15:00:00	4	Temperatura máxima	22.6
147823	7	Sololá	712	San Antonio Palopó	9	San Antonio Palopo	1	Enero	2023-01-13T00:00:00	2024-11-08T15:00:00	3	Temperatura mínima	21.2
147824	7	Sololá	712	San Antonio Palopó	9	San Antonio Palopo	1	Enero	2023-01-13T00:00:00	2024-11-08T15:00:00	5	Humedad	52
147825	7	Sololá	712	San Antonio Palopó	9	San Antonio Palopo	1	Enero	2023-01-13T00:00:00	2024-11-08T15:00:00	6	Velocidad del viento	16.1
147826	7	Sololá	712	San Antonio Palopó	9	San Antonio Palopo	1	Enero	2023-01-13T00:00:00	2024-11-08T15:00:00	7	Dirección del viento	16.09
147827	7	Sololá	712	San Antonio Palopó	9	San Antonio Palopo	1	Enero	2023-01-13T00:00:00	2024-11-08T15:00:00	1	Precipitación	0
147828	7	Sololá	712	San Antonio Palopó	9	San Antonio Palopo	1	Enero	2023-01-13T00:00:00	2024-11-08T15:00:00	8	Radiación solar	228
147829	7	Sololá	712	San Antonio Palopó	9	San Antonio Palopo	1	Enero	2023-01-13T00:00:00	2024-11-08T16:00:00	2	Temperatura media	23.2
147830	7	Sololá	712	San Antonio Palopó	9	San Antonio Palopo	1	Enero	2023-01-13T00:00:00	2024-11-08T16:00:00	4	Temperatura máxima	23.2
147831	7	Sololá	712	San Antonio Palopó	9	San Antonio Palopo	1	Enero	2023-01-13T00:00:00	2024-11-08T16:00:00	3	Temperatura mínima	21.7
147832	7	Sololá	712	San Antonio Palopó	9	San Antonio Palopo	1	Enero	2023-01-13T00:00:00	2024-11-08T16:00:00	5	Humedad	48
147833	7	Sololá	712	San Antonio Palopó	9	San Antonio Palopo	1	Enero	2023-01-13T00:00:00	2024-11-08T16:00:00	6	Velocidad del viento	11.3
147834	7	Sololá	712	San Antonio Palopó	9	San Antonio Palopo	1	Enero	2023-01-13T00:00:00	2024-11-08T16:00:00	7	Dirección del viento	11.27
147835	7	Sololá	712	San Antonio Palopó	9	San Antonio Palopo	1	Enero	2023-01-13T00:00:00	2024-11-08T16:00:00	1	Precipitación	0
147836	7	Sololá	712	San Antonio Palopó	9	San Antonio Palopo	1	Enero	2023-01-13T00:00:00	2024-11-08T16:00:00	8	Radiación solar	379
147837	7	Sololá	712	San Antonio Palopó	9	San Antonio Palopo	1	Enero	2023-01-13T00:00:00	2024-11-08T17:00:00	2	Temperatura media	20.2
147838	7	Sololá	712	San Antonio Palopó	9	San Antonio Palopo	1	Enero	2023-01-13T00:00:00	2024-11-08T17:00:00	4	Temperatura máxima	23.3
147839	7	Sololá	712	San Antonio Palopó	9	San Antonio Palopo	1	Enero	2023-01-13T00:00:00	2024-11-08T17:00:00	3	Temperatura mínima	20.2
147840	7	Sololá	712	San Antonio Palopó	9	San Antonio Palopo	1	Enero	2023-01-13T00:00:00	2024-11-08T17:00:00	5	Humedad	61
147841	7	Sololá	712	San Antonio Palopó	9	San Antonio Palopo	1	Enero	2023-01-13T00:00:00	2024-11-08T17:00:00	6	Velocidad del viento	9.7
147842	7	Sololá	712	San Antonio Palopó	9	San Antonio Palopo	1	Enero	2023-01-13T00:00:00	2024-11-08T17:00:00	7	Dirección del viento	9.66
147843	7	Sololá	712	San Antonio Palopó	9	San Antonio Palopo	1	Enero	2023-01-13T00:00:00	2024-11-08T17:00:00	1	Precipitación	0
147844	7	Sololá	712	San Antonio Palopó	9	San Antonio Palopo	1	Enero	2023-01-13T00:00:00	2024-11-08T17:00:00	8	Radiación solar	74
147845	7	Sololá	712	San Antonio Palopó	9	San Antonio Palopo	1	Enero	2023-01-13T00:00:00	2024-11-08T18:00:00	2	Temperatura media	19.1
147846	7	Sololá	712	San Antonio Palopó	9	San Antonio Palopo	1	Enero	2023-01-13T00:00:00	2024-11-08T18:00:00	4	Temperatura máxima	20.2
147847	7	Sololá	712	San Antonio Palopó	9	San Antonio Palopo	1	Enero	2023-01-13T00:00:00	2024-11-08T18:00:00	3	Temperatura mínima	19
147848	7	Sololá	712	San Antonio Palopó	9	San Antonio Palopo	1	Enero	2023-01-13T00:00:00	2024-11-08T18:00:00	5	Humedad	63
147849	7	Sololá	712	San Antonio Palopó	9	San Antonio Palopo	1	Enero	2023-01-13T00:00:00	2024-11-08T18:00:00	6	Velocidad del viento	8
147850	7	Sololá	712	San Antonio Palopó	9	San Antonio Palopo	1	Enero	2023-01-13T00:00:00	2024-11-08T18:00:00	7	Dirección del viento	8.05
147851	7	Sololá	712	San Antonio Palopó	9	San Antonio Palopo	1	Enero	2023-01-13T00:00:00	2024-11-08T18:00:00	1	Precipitación	0
147852	7	Sololá	712	San Antonio Palopó	9	San Antonio Palopo	1	Enero	2023-01-13T00:00:00	2024-11-08T18:00:00	8	Radiación solar	11
147853	7	Sololá	712	San Antonio Palopó	9	San Antonio Palopo	1	Enero	2023-01-13T00:00:00	2024-11-08T19:00:00	2	Temperatura media	18.7
147854	7	Sololá	712	San Antonio Palopó	9	San Antonio Palopo	1	Enero	2023-01-13T00:00:00	2024-11-08T19:00:00	4	Temperatura máxima	19.1
147855	7	Sololá	712	San Antonio Palopó	9	San Antonio Palopo	1	Enero	2023-01-13T00:00:00	2024-11-08T19:00:00	3	Temperatura mínima	18.6
147856	7	Sololá	712	San Antonio Palopó	9	San Antonio Palopo	1	Enero	2023-01-13T00:00:00	2024-11-08T19:00:00	5	Humedad	65
147857	7	Sololá	712	San Antonio Palopó	9	San Antonio Palopo	1	Enero	2023-01-13T00:00:00	2024-11-08T19:00:00	6	Velocidad del viento	9.7
147858	7	Sololá	712	San Antonio Palopó	9	San Antonio Palopo	1	Enero	2023-01-13T00:00:00	2024-11-08T19:00:00	7	Dirección del viento	9.66
147859	7	Sololá	712	San Antonio Palopó	9	San Antonio Palopo	1	Enero	2023-01-13T00:00:00	2024-11-08T19:00:00	1	Precipitación	0
147860	7	Sololá	712	San Antonio Palopó	9	San Antonio Palopo	1	Enero	2023-01-13T00:00:00	2024-11-08T19:00:00	8	Radiación solar	0
147861	7	Sololá	712	San Antonio Palopó	9	San Antonio Palopo	1	Enero	2023-01-13T00:00:00	2024-11-08T20:00:00	2	Temperatura media	18.2
147862	7	Sololá	712	San Antonio Palopó	9	San Antonio Palopo	1	Enero	2023-01-13T00:00:00	2024-11-08T20:00:00	4	Temperatura máxima	18.7
147863	7	Sololá	712	San Antonio Palopó	9	San Antonio Palopo	1	Enero	2023-01-13T00:00:00	2024-11-08T20:00:00	3	Temperatura mínima	18.2
147864	7	Sololá	712	San Antonio Palopó	9	San Antonio Palopo	1	Enero	2023-01-13T00:00:00	2024-11-08T20:00:00	5	Humedad	63
147865	7	Sololá	712	San Antonio Palopó	9	San Antonio Palopo	1	Enero	2023-01-13T00:00:00	2024-11-08T20:00:00	6	Velocidad del viento	11.3
147866	7	Sololá	712	San Antonio Palopó	9	San Antonio Palopo	1	Enero	2023-01-13T00:00:00	2024-11-08T20:00:00	7	Dirección del viento	11.27
147867	7	Sololá	712	San Antonio Palopó	9	San Antonio Palopo	1	Enero	2023-01-13T00:00:00	2024-11-08T20:00:00	1	Precipitación	0
147868	7	Sololá	712	San Antonio Palopó	9	San Antonio Palopo	1	Enero	2023-01-13T00:00:00	2024-11-08T20:00:00	8	Radiación solar	0
147869	7	Sololá	712	San Antonio Palopó	9	San Antonio Palopo	1	Enero	2023-01-13T00:00:00	2024-11-08T21:00:00	2	Temperatura media	17.3
147870	7	Sololá	712	San Antonio Palopó	9	San Antonio Palopo	1	Enero	2023-01-13T00:00:00	2024-11-08T21:00:00	4	Temperatura máxima	18.2
147871	7	Sololá	712	San Antonio Palopó	9	San Antonio Palopo	1	Enero	2023-01-13T00:00:00	2024-11-08T21:00:00	3	Temperatura mínima	17.3
147872	7	Sololá	712	San Antonio Palopó	9	San Antonio Palopo	1	Enero	2023-01-13T00:00:00	2024-11-08T21:00:00	5	Humedad	63
147873	7	Sololá	712	San Antonio Palopó	9	San Antonio Palopo	1	Enero	2023-01-13T00:00:00	2024-11-08T21:00:00	6	Velocidad del viento	17.7
147874	7	Sololá	712	San Antonio Palopó	9	San Antonio Palopo	1	Enero	2023-01-13T00:00:00	2024-11-08T21:00:00	7	Dirección del viento	17.7
147875	7	Sololá	712	San Antonio Palopó	9	San Antonio Palopo	1	Enero	2023-01-13T00:00:00	2024-11-08T21:00:00	1	Precipitación	0
147876	7	Sololá	712	San Antonio Palopó	9	San Antonio Palopo	1	Enero	2023-01-13T00:00:00	2024-11-08T21:00:00	8	Radiación solar	0
147877	7	Sololá	712	San Antonio Palopó	9	San Antonio Palopo	1	Enero	2023-01-13T00:00:00	2024-11-08T22:00:00	2	Temperatura media	17.2
147878	7	Sololá	712	San Antonio Palopó	9	San Antonio Palopo	1	Enero	2023-01-13T00:00:00	2024-11-08T22:00:00	4	Temperatura máxima	17.6
147879	7	Sololá	712	San Antonio Palopó	9	San Antonio Palopo	1	Enero	2023-01-13T00:00:00	2024-11-08T22:00:00	3	Temperatura mínima	17.2
147880	7	Sololá	712	San Antonio Palopó	9	San Antonio Palopo	1	Enero	2023-01-13T00:00:00	2024-11-08T22:00:00	5	Humedad	63
147881	7	Sololá	712	San Antonio Palopó	9	San Antonio Palopo	1	Enero	2023-01-13T00:00:00	2024-11-08T22:00:00	6	Velocidad del viento	22.5
147882	7	Sololá	712	San Antonio Palopó	9	San Antonio Palopo	1	Enero	2023-01-13T00:00:00	2024-11-08T22:00:00	7	Dirección del viento	22.53
147883	7	Sololá	712	San Antonio Palopó	9	San Antonio Palopo	1	Enero	2023-01-13T00:00:00	2024-11-08T22:00:00	1	Precipitación	0
147884	7	Sololá	712	San Antonio Palopó	9	San Antonio Palopo	1	Enero	2023-01-13T00:00:00	2024-11-08T22:00:00	8	Radiación solar	0
147885	7	Sololá	712	San Antonio Palopó	9	San Antonio Palopo	1	Enero	2023-01-13T00:00:00	2024-11-08T23:00:00	2	Temperatura media	17.4
147886	7	Sololá	712	San Antonio Palopó	9	San Antonio Palopo	1	Enero	2023-01-13T00:00:00	2024-11-08T23:00:00	4	Temperatura máxima	17.6
147887	7	Sololá	712	San Antonio Palopó	9	San Antonio Palopo	1	Enero	2023-01-13T00:00:00	2024-11-08T23:00:00	3	Temperatura mínima	17.2
147888	7	Sololá	712	San Antonio Palopó	9	San Antonio Palopo	1	Enero	2023-01-13T00:00:00	2024-11-08T23:00:00	5	Humedad	62
147889	7	Sololá	712	San Antonio Palopó	9	San Antonio Palopo	1	Enero	2023-01-13T00:00:00	2024-11-08T23:00:00	6	Velocidad del viento	20.9
147890	7	Sololá	712	San Antonio Palopó	9	San Antonio Palopo	1	Enero	2023-01-13T00:00:00	2024-11-08T23:00:00	7	Dirección del viento	20.92
147891	7	Sololá	712	San Antonio Palopó	9	San Antonio Palopo	1	Enero	2023-01-13T00:00:00	2024-11-08T23:00:00	1	Precipitación	0
147892	7	Sololá	712	San Antonio Palopó	9	San Antonio Palopo	1	Enero	2023-01-13T00:00:00	2024-11-08T23:00:00	8	Radiación solar	0
147893	7	Sololá	712	San Antonio Palopó	9	San Antonio Palopo	1	Enero	2023-01-14T00:00:00	2024-11-08T00:00:00	2	Temperatura media	17.4
147894	7	Sololá	712	San Antonio Palopó	9	San Antonio Palopo	1	Enero	2023-01-14T00:00:00	2024-11-08T00:00:00	4	Temperatura máxima	17.5
147895	7	Sololá	712	San Antonio Palopó	9	San Antonio Palopo	1	Enero	2023-01-14T00:00:00	2024-11-08T00:00:00	3	Temperatura mínima	17.3
147896	7	Sololá	712	San Antonio Palopó	9	San Antonio Palopo	1	Enero	2023-01-14T00:00:00	2024-11-08T00:00:00	5	Humedad	61
147897	7	Sololá	712	San Antonio Palopó	9	San Antonio Palopo	1	Enero	2023-01-14T00:00:00	2024-11-08T00:00:00	6	Velocidad del viento	11.3
147898	7	Sololá	712	San Antonio Palopó	9	San Antonio Palopo	1	Enero	2023-01-14T00:00:00	2024-11-08T00:00:00	7	Dirección del viento	11.27
147899	7	Sololá	712	San Antonio Palopó	9	San Antonio Palopo	1	Enero	2023-01-14T00:00:00	2024-11-08T00:00:00	1	Precipitación	0
147900	7	Sololá	712	San Antonio Palopó	9	San Antonio Palopo	1	Enero	2023-01-14T00:00:00	2024-11-08T00:00:00	8	Radiación solar	0
147901	7	Sololá	712	San Antonio Palopó	9	San Antonio Palopo	1	Enero	2023-01-14T00:00:00	2024-11-08T01:00:00	2	Temperatura media	17.4
147902	7	Sololá	712	San Antonio Palopó	9	San Antonio Palopo	1	Enero	2023-01-14T00:00:00	2024-11-08T01:00:00	4	Temperatura máxima	17.6
147903	7	Sololá	712	San Antonio Palopó	9	San Antonio Palopo	1	Enero	2023-01-14T00:00:00	2024-11-08T01:00:00	3	Temperatura mínima	17.2
147904	7	Sololá	712	San Antonio Palopó	9	San Antonio Palopo	1	Enero	2023-01-14T00:00:00	2024-11-08T01:00:00	5	Humedad	61
147905	7	Sololá	712	San Antonio Palopó	9	San Antonio Palopo	1	Enero	2023-01-14T00:00:00	2024-11-08T01:00:00	6	Velocidad del viento	14.5
147906	7	Sololá	712	San Antonio Palopó	9	San Antonio Palopo	1	Enero	2023-01-14T00:00:00	2024-11-08T01:00:00	7	Dirección del viento	14.48
147907	7	Sololá	712	San Antonio Palopó	9	San Antonio Palopo	1	Enero	2023-01-14T00:00:00	2024-11-08T01:00:00	1	Precipitación	0
147908	7	Sololá	712	San Antonio Palopó	9	San Antonio Palopo	1	Enero	2023-01-14T00:00:00	2024-11-08T01:00:00	8	Radiación solar	0
147909	7	Sololá	712	San Antonio Palopó	9	San Antonio Palopo	1	Enero	2023-01-14T00:00:00	2024-11-08T02:00:00	2	Temperatura media	17.2
147910	7	Sololá	712	San Antonio Palopó	9	San Antonio Palopo	1	Enero	2023-01-14T00:00:00	2024-11-08T02:00:00	4	Temperatura máxima	17.5
147911	7	Sololá	712	San Antonio Palopó	9	San Antonio Palopo	1	Enero	2023-01-14T00:00:00	2024-11-08T02:00:00	3	Temperatura mínima	17.2
147912	7	Sololá	712	San Antonio Palopó	9	San Antonio Palopo	1	Enero	2023-01-14T00:00:00	2024-11-08T02:00:00	5	Humedad	62
147913	7	Sololá	712	San Antonio Palopó	9	San Antonio Palopo	1	Enero	2023-01-14T00:00:00	2024-11-08T02:00:00	6	Velocidad del viento	17.7
147914	7	Sololá	712	San Antonio Palopó	9	San Antonio Palopo	1	Enero	2023-01-14T00:00:00	2024-11-08T02:00:00	7	Dirección del viento	17.7
147915	7	Sololá	712	San Antonio Palopó	9	San Antonio Palopo	1	Enero	2023-01-14T00:00:00	2024-11-08T02:00:00	1	Precipitación	0
147916	7	Sololá	712	San Antonio Palopó	9	San Antonio Palopo	1	Enero	2023-01-14T00:00:00	2024-11-08T02:00:00	8	Radiación solar	0
147917	7	Sololá	712	San Antonio Palopó	9	San Antonio Palopo	1	Enero	2023-01-14T00:00:00	2024-11-08T03:00:00	2	Temperatura media	16.9
147918	7	Sololá	712	San Antonio Palopó	9	San Antonio Palopo	1	Enero	2023-01-14T00:00:00	2024-11-08T03:00:00	4	Temperatura máxima	17.2
147919	7	Sololá	712	San Antonio Palopó	9	San Antonio Palopo	1	Enero	2023-01-14T00:00:00	2024-11-08T03:00:00	3	Temperatura mínima	16.8
147920	7	Sololá	712	San Antonio Palopó	9	San Antonio Palopo	1	Enero	2023-01-14T00:00:00	2024-11-08T03:00:00	5	Humedad	61
147921	7	Sololá	712	San Antonio Palopó	9	San Antonio Palopo	1	Enero	2023-01-14T00:00:00	2024-11-08T03:00:00	6	Velocidad del viento	25.7
147922	7	Sololá	712	San Antonio Palopó	9	San Antonio Palopo	1	Enero	2023-01-14T00:00:00	2024-11-08T03:00:00	7	Dirección del viento	25.75
147923	7	Sololá	712	San Antonio Palopó	9	San Antonio Palopo	1	Enero	2023-01-14T00:00:00	2024-11-08T03:00:00	1	Precipitación	0
147924	7	Sololá	712	San Antonio Palopó	9	San Antonio Palopo	1	Enero	2023-01-14T00:00:00	2024-11-08T03:00:00	8	Radiación solar	0
147925	7	Sololá	712	San Antonio Palopó	9	San Antonio Palopo	1	Enero	2023-01-14T00:00:00	2024-11-08T04:00:00	2	Temperatura media	16.8
147926	7	Sololá	712	San Antonio Palopó	9	San Antonio Palopo	1	Enero	2023-01-14T00:00:00	2024-11-08T04:00:00	4	Temperatura máxima	16.9
147927	7	Sololá	712	San Antonio Palopó	9	San Antonio Palopo	1	Enero	2023-01-14T00:00:00	2024-11-08T04:00:00	3	Temperatura mínima	16.6
147928	7	Sololá	712	San Antonio Palopó	9	San Antonio Palopo	1	Enero	2023-01-14T00:00:00	2024-11-08T04:00:00	5	Humedad	62
147929	7	Sololá	712	San Antonio Palopó	9	San Antonio Palopo	1	Enero	2023-01-14T00:00:00	2024-11-08T04:00:00	6	Velocidad del viento	30.6
147930	7	Sololá	712	San Antonio Palopó	9	San Antonio Palopo	1	Enero	2023-01-14T00:00:00	2024-11-08T04:00:00	7	Dirección del viento	30.58
147931	7	Sololá	712	San Antonio Palopó	9	San Antonio Palopo	1	Enero	2023-01-14T00:00:00	2024-11-08T04:00:00	1	Precipitación	0
147932	7	Sololá	712	San Antonio Palopó	9	San Antonio Palopo	1	Enero	2023-01-14T00:00:00	2024-11-08T04:00:00	8	Radiación solar	0
147933	7	Sololá	712	San Antonio Palopó	9	San Antonio Palopo	1	Enero	2023-01-14T00:00:00	2024-11-08T05:00:00	2	Temperatura media	16.7
147934	7	Sololá	712	San Antonio Palopó	9	San Antonio Palopo	1	Enero	2023-01-14T00:00:00	2024-11-08T05:00:00	4	Temperatura máxima	17.1
147935	7	Sololá	712	San Antonio Palopó	9	San Antonio Palopo	1	Enero	2023-01-14T00:00:00	2024-11-08T05:00:00	3	Temperatura mínima	16.6
147936	7	Sololá	712	San Antonio Palopó	9	San Antonio Palopo	1	Enero	2023-01-14T00:00:00	2024-11-08T05:00:00	5	Humedad	64
147937	7	Sololá	712	San Antonio Palopó	9	San Antonio Palopo	1	Enero	2023-01-14T00:00:00	2024-11-08T05:00:00	6	Velocidad del viento	30.6
147938	7	Sololá	712	San Antonio Palopó	9	San Antonio Palopo	1	Enero	2023-01-14T00:00:00	2024-11-08T05:00:00	7	Dirección del viento	30.58
147939	7	Sololá	712	San Antonio Palopó	9	San Antonio Palopo	1	Enero	2023-01-14T00:00:00	2024-11-08T05:00:00	1	Precipitación	0
147940	7	Sololá	712	San Antonio Palopó	9	San Antonio Palopo	1	Enero	2023-01-14T00:00:00	2024-11-08T05:00:00	8	Radiación solar	0
147941	7	Sololá	712	San Antonio Palopó	9	San Antonio Palopo	1	Enero	2023-01-14T00:00:00	2024-11-08T06:00:00	2	Temperatura media	16.2
147942	7	Sololá	712	San Antonio Palopó	9	San Antonio Palopo	1	Enero	2023-01-14T00:00:00	2024-11-08T06:00:00	4	Temperatura máxima	16.8
147943	7	Sololá	712	San Antonio Palopó	9	San Antonio Palopo	1	Enero	2023-01-14T00:00:00	2024-11-08T06:00:00	3	Temperatura mínima	16.2
147944	7	Sololá	712	San Antonio Palopó	9	San Antonio Palopo	1	Enero	2023-01-14T00:00:00	2024-11-08T06:00:00	5	Humedad	65
147945	7	Sololá	712	San Antonio Palopó	9	San Antonio Palopo	1	Enero	2023-01-14T00:00:00	2024-11-08T06:00:00	6	Velocidad del viento	32.2
147946	7	Sololá	712	San Antonio Palopó	9	San Antonio Palopo	1	Enero	2023-01-14T00:00:00	2024-11-08T06:00:00	7	Dirección del viento	32.19
147947	7	Sololá	712	San Antonio Palopó	9	San Antonio Palopo	1	Enero	2023-01-14T00:00:00	2024-11-08T06:00:00	1	Precipitación	0
147948	7	Sololá	712	San Antonio Palopó	9	San Antonio Palopo	1	Enero	2023-01-14T00:00:00	2024-11-08T06:00:00	8	Radiación solar	0
147949	7	Sololá	712	San Antonio Palopó	9	San Antonio Palopo	1	Enero	2023-01-14T00:00:00	2024-11-08T07:00:00	2	Temperatura media	16
147950	7	Sololá	712	San Antonio Palopó	9	San Antonio Palopo	1	Enero	2023-01-14T00:00:00	2024-11-08T07:00:00	4	Temperatura máxima	16.2
147951	7	Sololá	712	San Antonio Palopó	9	San Antonio Palopo	1	Enero	2023-01-14T00:00:00	2024-11-08T07:00:00	3	Temperatura mínima	15.8
147952	7	Sololá	712	San Antonio Palopó	9	San Antonio Palopo	1	Enero	2023-01-14T00:00:00	2024-11-08T07:00:00	5	Humedad	64
147953	7	Sololá	712	San Antonio Palopó	9	San Antonio Palopo	1	Enero	2023-01-14T00:00:00	2024-11-08T07:00:00	6	Velocidad del viento	30.6
147954	7	Sololá	712	San Antonio Palopó	9	San Antonio Palopo	1	Enero	2023-01-14T00:00:00	2024-11-08T07:00:00	7	Dirección del viento	30.58
147955	7	Sololá	712	San Antonio Palopó	9	San Antonio Palopo	1	Enero	2023-01-14T00:00:00	2024-11-08T07:00:00	1	Precipitación	0
147956	7	Sololá	712	San Antonio Palopó	9	San Antonio Palopo	1	Enero	2023-01-14T00:00:00	2024-11-08T07:00:00	8	Radiación solar	3
147957	7	Sololá	712	San Antonio Palopó	9	San Antonio Palopo	1	Enero	2023-01-14T00:00:00	2024-11-08T08:00:00	2	Temperatura media	16.6
147958	7	Sololá	712	San Antonio Palopó	9	San Antonio Palopo	1	Enero	2023-01-14T00:00:00	2024-11-08T08:00:00	4	Temperatura máxima	16.7
147959	7	Sololá	712	San Antonio Palopó	9	San Antonio Palopo	1	Enero	2023-01-14T00:00:00	2024-11-08T08:00:00	3	Temperatura mínima	16
147960	7	Sololá	712	San Antonio Palopó	9	San Antonio Palopo	1	Enero	2023-01-14T00:00:00	2024-11-08T08:00:00	5	Humedad	62
147961	7	Sololá	712	San Antonio Palopó	9	San Antonio Palopo	1	Enero	2023-01-14T00:00:00	2024-11-08T08:00:00	6	Velocidad del viento	29
147962	7	Sololá	712	San Antonio Palopó	9	San Antonio Palopo	1	Enero	2023-01-14T00:00:00	2024-11-08T08:00:00	7	Dirección del viento	28.97
147963	7	Sololá	712	San Antonio Palopó	9	San Antonio Palopo	1	Enero	2023-01-14T00:00:00	2024-11-08T08:00:00	1	Precipitación	0
147964	7	Sololá	712	San Antonio Palopó	9	San Antonio Palopo	1	Enero	2023-01-14T00:00:00	2024-11-08T08:00:00	8	Radiación solar	15
147965	7	Sololá	712	San Antonio Palopó	9	San Antonio Palopo	1	Enero	2023-01-14T00:00:00	2024-11-08T09:00:00	2	Temperatura media	17.9
147966	7	Sololá	712	San Antonio Palopó	9	San Antonio Palopo	1	Enero	2023-01-14T00:00:00	2024-11-08T09:00:00	4	Temperatura máxima	17.9
147967	7	Sololá	712	San Antonio Palopó	9	San Antonio Palopo	1	Enero	2023-01-14T00:00:00	2024-11-08T09:00:00	3	Temperatura mínima	16.7
147968	7	Sololá	712	San Antonio Palopó	9	San Antonio Palopo	1	Enero	2023-01-14T00:00:00	2024-11-08T09:00:00	5	Humedad	57
147969	7	Sololá	712	San Antonio Palopó	9	San Antonio Palopo	1	Enero	2023-01-14T00:00:00	2024-11-08T09:00:00	6	Velocidad del viento	27.4
147970	7	Sololá	712	San Antonio Palopó	9	San Antonio Palopo	1	Enero	2023-01-14T00:00:00	2024-11-08T09:00:00	7	Dirección del viento	27.36
147971	7	Sololá	712	San Antonio Palopó	9	San Antonio Palopo	1	Enero	2023-01-14T00:00:00	2024-11-08T09:00:00	1	Precipitación	0
147972	7	Sololá	712	San Antonio Palopó	9	San Antonio Palopo	1	Enero	2023-01-14T00:00:00	2024-11-08T09:00:00	8	Radiación solar	103
147973	7	Sololá	712	San Antonio Palopó	9	San Antonio Palopo	1	Enero	2023-01-14T00:00:00	2024-11-08T10:00:00	2	Temperatura media	19.6
147974	7	Sololá	712	San Antonio Palopó	9	San Antonio Palopo	1	Enero	2023-01-14T00:00:00	2024-11-08T10:00:00	4	Temperatura máxima	19.7
147975	7	Sololá	712	San Antonio Palopó	9	San Antonio Palopo	1	Enero	2023-01-14T00:00:00	2024-11-08T10:00:00	3	Temperatura mínima	17.9
147976	7	Sololá	712	San Antonio Palopó	9	San Antonio Palopo	1	Enero	2023-01-14T00:00:00	2024-11-08T10:00:00	5	Humedad	47
147977	7	Sololá	712	San Antonio Palopó	9	San Antonio Palopo	1	Enero	2023-01-14T00:00:00	2024-11-08T10:00:00	6	Velocidad del viento	25.7
147978	7	Sololá	712	San Antonio Palopó	9	San Antonio Palopo	1	Enero	2023-01-14T00:00:00	2024-11-08T10:00:00	7	Dirección del viento	25.75
147979	7	Sololá	712	San Antonio Palopó	9	San Antonio Palopo	1	Enero	2023-01-14T00:00:00	2024-11-08T10:00:00	1	Precipitación	0
147980	7	Sololá	712	San Antonio Palopó	9	San Antonio Palopo	1	Enero	2023-01-14T00:00:00	2024-11-08T10:00:00	8	Radiación solar	530
147981	7	Sololá	712	San Antonio Palopó	9	San Antonio Palopo	1	Enero	2023-01-14T00:00:00	2024-11-08T11:00:00	2	Temperatura media	21.4
147982	7	Sololá	712	San Antonio Palopó	9	San Antonio Palopo	1	Enero	2023-01-14T00:00:00	2024-11-08T11:00:00	4	Temperatura máxima	21.4
147983	7	Sololá	712	San Antonio Palopó	9	San Antonio Palopo	1	Enero	2023-01-14T00:00:00	2024-11-08T11:00:00	3	Temperatura mínima	19.6
147984	7	Sololá	712	San Antonio Palopó	9	San Antonio Palopo	1	Enero	2023-01-14T00:00:00	2024-11-08T11:00:00	5	Humedad	45
147985	7	Sololá	712	San Antonio Palopó	9	San Antonio Palopo	1	Enero	2023-01-14T00:00:00	2024-11-08T11:00:00	6	Velocidad del viento	16.1
147986	7	Sololá	712	San Antonio Palopó	9	San Antonio Palopo	1	Enero	2023-01-14T00:00:00	2024-11-08T11:00:00	7	Dirección del viento	16.09
147987	7	Sololá	712	San Antonio Palopó	9	San Antonio Palopo	1	Enero	2023-01-14T00:00:00	2024-11-08T11:00:00	1	Precipitación	0
147988	7	Sololá	712	San Antonio Palopó	9	San Antonio Palopo	1	Enero	2023-01-14T00:00:00	2024-11-08T11:00:00	8	Radiación solar	670
147989	7	Sololá	712	San Antonio Palopó	9	San Antonio Palopo	1	Enero	2023-01-14T00:00:00	2024-11-08T12:00:00	2	Temperatura media	23.7
147990	7	Sololá	712	San Antonio Palopó	9	San Antonio Palopo	1	Enero	2023-01-14T00:00:00	2024-11-08T12:00:00	4	Temperatura máxima	23.7
147991	7	Sololá	712	San Antonio Palopó	9	San Antonio Palopo	1	Enero	2023-01-14T00:00:00	2024-11-08T12:00:00	3	Temperatura mínima	21.2
147992	7	Sololá	712	San Antonio Palopó	9	San Antonio Palopo	1	Enero	2023-01-14T00:00:00	2024-11-08T12:00:00	5	Humedad	39
147993	7	Sololá	712	San Antonio Palopó	9	San Antonio Palopo	1	Enero	2023-01-14T00:00:00	2024-11-08T12:00:00	6	Velocidad del viento	9.7
147994	7	Sololá	712	San Antonio Palopó	9	San Antonio Palopo	1	Enero	2023-01-14T00:00:00	2024-11-08T12:00:00	7	Dirección del viento	9.66
147995	7	Sololá	712	San Antonio Palopó	9	San Antonio Palopo	1	Enero	2023-01-14T00:00:00	2024-11-08T12:00:00	1	Precipitación	0
147996	7	Sololá	712	San Antonio Palopó	9	San Antonio Palopo	1	Enero	2023-01-14T00:00:00	2024-11-08T12:00:00	8	Radiación solar	654
147997	7	Sololá	712	San Antonio Palopó	9	San Antonio Palopo	1	Enero	2023-01-14T00:00:00	2024-11-08T13:00:00	2	Temperatura media	24.1
147998	7	Sololá	712	San Antonio Palopó	9	San Antonio Palopo	1	Enero	2023-01-14T00:00:00	2024-11-08T13:00:00	4	Temperatura máxima	24.3
147999	7	Sololá	712	San Antonio Palopó	9	San Antonio Palopo	1	Enero	2023-01-14T00:00:00	2024-11-08T13:00:00	3	Temperatura mínima	23.3
148000	7	Sololá	712	San Antonio Palopó	9	San Antonio Palopo	1	Enero	2023-01-14T00:00:00	2024-11-08T13:00:00	5	Humedad	35
148001	7	Sololá	712	San Antonio Palopó	9	San Antonio Palopo	1	Enero	2023-01-14T00:00:00	2024-11-08T13:00:00	6	Velocidad del viento	8
148002	7	Sololá	712	San Antonio Palopó	9	San Antonio Palopo	1	Enero	2023-01-14T00:00:00	2024-11-08T13:00:00	7	Dirección del viento	8.05
148003	7	Sololá	712	San Antonio Palopó	9	San Antonio Palopo	1	Enero	2023-01-14T00:00:00	2024-11-08T13:00:00	1	Precipitación	0
148004	7	Sololá	712	San Antonio Palopó	9	San Antonio Palopo	1	Enero	2023-01-14T00:00:00	2024-11-08T13:00:00	8	Radiación solar	763
148005	7	Sololá	712	San Antonio Palopó	9	San Antonio Palopo	1	Enero	2023-01-14T00:00:00	2024-11-08T14:00:00	2	Temperatura media	24.2
148006	7	Sololá	712	San Antonio Palopó	9	San Antonio Palopo	1	Enero	2023-01-14T00:00:00	2024-11-08T14:00:00	4	Temperatura máxima	24.7
148007	7	Sololá	712	San Antonio Palopó	9	San Antonio Palopo	1	Enero	2023-01-14T00:00:00	2024-11-08T14:00:00	3	Temperatura mínima	23.9
148008	7	Sololá	712	San Antonio Palopó	9	San Antonio Palopo	1	Enero	2023-01-14T00:00:00	2024-11-08T14:00:00	5	Humedad	30
148009	7	Sololá	712	San Antonio Palopó	9	San Antonio Palopo	1	Enero	2023-01-14T00:00:00	2024-11-08T14:00:00	6	Velocidad del viento	9.7
148010	7	Sololá	712	San Antonio Palopó	9	San Antonio Palopo	1	Enero	2023-01-14T00:00:00	2024-11-08T14:00:00	7	Dirección del viento	9.66
148011	7	Sololá	712	San Antonio Palopó	9	San Antonio Palopo	1	Enero	2023-01-14T00:00:00	2024-11-08T14:00:00	1	Precipitación	0
148012	7	Sololá	712	San Antonio Palopó	9	San Antonio Palopo	1	Enero	2023-01-14T00:00:00	2024-11-08T14:00:00	8	Radiación solar	710
148013	7	Sololá	712	San Antonio Palopó	9	San Antonio Palopo	1	Enero	2023-01-14T00:00:00	2024-11-08T15:00:00	2	Temperatura media	22.4
148014	7	Sololá	712	San Antonio Palopó	9	San Antonio Palopo	1	Enero	2023-01-14T00:00:00	2024-11-08T15:00:00	4	Temperatura máxima	24.5
148015	7	Sololá	712	San Antonio Palopó	9	San Antonio Palopo	1	Enero	2023-01-14T00:00:00	2024-11-08T15:00:00	3	Temperatura mínima	22.4
148016	7	Sololá	712	San Antonio Palopó	9	San Antonio Palopo	1	Enero	2023-01-14T00:00:00	2024-11-08T15:00:00	5	Humedad	62
148017	7	Sololá	712	San Antonio Palopó	9	San Antonio Palopo	1	Enero	2023-01-14T00:00:00	2024-11-08T15:00:00	6	Velocidad del viento	11.3
148018	7	Sololá	712	San Antonio Palopó	9	San Antonio Palopo	1	Enero	2023-01-14T00:00:00	2024-11-08T15:00:00	7	Dirección del viento	11.27
148019	7	Sololá	712	San Antonio Palopó	9	San Antonio Palopo	1	Enero	2023-01-14T00:00:00	2024-11-08T15:00:00	1	Precipitación	0
148020	7	Sololá	712	San Antonio Palopó	9	San Antonio Palopo	1	Enero	2023-01-14T00:00:00	2024-11-08T15:00:00	8	Radiación solar	575
148021	7	Sololá	712	San Antonio Palopó	9	San Antonio Palopo	1	Enero	2023-01-14T00:00:00	2024-11-08T16:00:00	2	Temperatura media	22.4
148022	7	Sololá	712	San Antonio Palopó	9	San Antonio Palopo	1	Enero	2023-01-14T00:00:00	2024-11-08T16:00:00	4	Temperatura máxima	22.7
148023	7	Sololá	712	San Antonio Palopó	9	San Antonio Palopo	1	Enero	2023-01-14T00:00:00	2024-11-08T16:00:00	3	Temperatura mínima	21.9
148024	7	Sololá	712	San Antonio Palopó	9	San Antonio Palopo	1	Enero	2023-01-14T00:00:00	2024-11-08T16:00:00	5	Humedad	47
148025	7	Sololá	712	San Antonio Palopó	9	San Antonio Palopo	1	Enero	2023-01-14T00:00:00	2024-11-08T16:00:00	6	Velocidad del viento	12.9
148026	7	Sololá	712	San Antonio Palopó	9	San Antonio Palopo	1	Enero	2023-01-14T00:00:00	2024-11-08T16:00:00	7	Dirección del viento	12.87
148027	7	Sololá	712	San Antonio Palopó	9	San Antonio Palopo	1	Enero	2023-01-14T00:00:00	2024-11-08T16:00:00	1	Precipitación	0
148028	7	Sololá	712	San Antonio Palopó	9	San Antonio Palopo	1	Enero	2023-01-14T00:00:00	2024-11-08T16:00:00	8	Radiación solar	406
148029	7	Sololá	712	San Antonio Palopó	9	San Antonio Palopo	1	Enero	2023-01-14T00:00:00	2024-11-08T17:00:00	2	Temperatura media	23.1
148030	7	Sololá	712	San Antonio Palopó	9	San Antonio Palopo	1	Enero	2023-01-14T00:00:00	2024-11-08T17:00:00	4	Temperatura máxima	23.2
148031	7	Sololá	712	San Antonio Palopó	9	San Antonio Palopo	1	Enero	2023-01-14T00:00:00	2024-11-08T17:00:00	3	Temperatura mínima	22.4
148032	7	Sololá	712	San Antonio Palopó	9	San Antonio Palopo	1	Enero	2023-01-14T00:00:00	2024-11-08T17:00:00	5	Humedad	37
148033	7	Sololá	712	San Antonio Palopó	9	San Antonio Palopo	1	Enero	2023-01-14T00:00:00	2024-11-08T17:00:00	6	Velocidad del viento	11.3
148034	7	Sololá	712	San Antonio Palopó	9	San Antonio Palopo	1	Enero	2023-01-14T00:00:00	2024-11-08T17:00:00	7	Dirección del viento	11.27
148035	7	Sololá	712	San Antonio Palopó	9	San Antonio Palopo	1	Enero	2023-01-14T00:00:00	2024-11-08T17:00:00	1	Precipitación	0
148036	7	Sololá	712	San Antonio Palopó	9	San Antonio Palopo	1	Enero	2023-01-14T00:00:00	2024-11-08T17:00:00	8	Radiación solar	207
148037	7	Sololá	712	San Antonio Palopó	9	San Antonio Palopo	1	Enero	2023-01-14T00:00:00	2024-11-08T18:00:00	2	Temperatura media	19.5
148038	7	Sololá	712	San Antonio Palopó	9	San Antonio Palopo	1	Enero	2023-01-14T00:00:00	2024-11-08T18:00:00	4	Temperatura máxima	23.1
148039	7	Sololá	712	San Antonio Palopó	9	San Antonio Palopo	1	Enero	2023-01-14T00:00:00	2024-11-08T18:00:00	3	Temperatura mínima	19.5
148040	7	Sololá	712	San Antonio Palopó	9	San Antonio Palopo	1	Enero	2023-01-14T00:00:00	2024-11-08T18:00:00	5	Humedad	47
148041	7	Sololá	712	San Antonio Palopó	9	San Antonio Palopo	1	Enero	2023-01-14T00:00:00	2024-11-08T18:00:00	6	Velocidad del viento	12.9
148042	7	Sololá	712	San Antonio Palopó	9	San Antonio Palopo	1	Enero	2023-01-14T00:00:00	2024-11-08T18:00:00	7	Dirección del viento	12.87
148043	7	Sololá	712	San Antonio Palopó	9	San Antonio Palopo	1	Enero	2023-01-14T00:00:00	2024-11-08T18:00:00	1	Precipitación	0
148044	7	Sololá	712	San Antonio Palopó	9	San Antonio Palopo	1	Enero	2023-01-14T00:00:00	2024-11-08T18:00:00	8	Radiación solar	23
148045	7	Sololá	712	San Antonio Palopó	9	San Antonio Palopo	1	Enero	2023-01-14T00:00:00	2024-11-08T19:00:00	2	Temperatura media	17.2
148046	7	Sololá	712	San Antonio Palopó	9	San Antonio Palopo	1	Enero	2023-01-14T00:00:00	2024-11-08T19:00:00	4	Temperatura máxima	19.4
148047	7	Sololá	712	San Antonio Palopó	9	San Antonio Palopo	1	Enero	2023-01-14T00:00:00	2024-11-08T19:00:00	3	Temperatura mínima	17.2
148048	7	Sololá	712	San Antonio Palopó	9	San Antonio Palopo	1	Enero	2023-01-14T00:00:00	2024-11-08T19:00:00	5	Humedad	59
148049	7	Sololá	712	San Antonio Palopó	9	San Antonio Palopo	1	Enero	2023-01-14T00:00:00	2024-11-08T19:00:00	6	Velocidad del viento	17.7
148050	7	Sololá	712	San Antonio Palopó	9	San Antonio Palopo	1	Enero	2023-01-14T00:00:00	2024-11-08T19:00:00	7	Dirección del viento	17.7
148051	7	Sololá	712	San Antonio Palopó	9	San Antonio Palopo	1	Enero	2023-01-14T00:00:00	2024-11-08T19:00:00	1	Precipitación	0
148052	7	Sololá	712	San Antonio Palopó	9	San Antonio Palopo	1	Enero	2023-01-14T00:00:00	2024-11-08T19:00:00	8	Radiación solar	0
148053	7	Sololá	712	San Antonio Palopó	9	San Antonio Palopo	1	Enero	2023-01-14T00:00:00	2024-11-08T20:00:00	2	Temperatura media	15
148054	7	Sololá	712	San Antonio Palopó	9	San Antonio Palopo	1	Enero	2023-01-14T00:00:00	2024-11-08T20:00:00	4	Temperatura máxima	17.2
148055	7	Sololá	712	San Antonio Palopó	9	San Antonio Palopo	1	Enero	2023-01-14T00:00:00	2024-11-08T20:00:00	3	Temperatura mínima	15
148056	7	Sololá	712	San Antonio Palopó	9	San Antonio Palopo	1	Enero	2023-01-14T00:00:00	2024-11-08T20:00:00	5	Humedad	66
148057	7	Sololá	712	San Antonio Palopó	9	San Antonio Palopo	1	Enero	2023-01-14T00:00:00	2024-11-08T20:00:00	6	Velocidad del viento	22.5
148058	7	Sololá	712	San Antonio Palopó	9	San Antonio Palopo	1	Enero	2023-01-14T00:00:00	2024-11-08T20:00:00	7	Dirección del viento	22.53
148059	7	Sololá	712	San Antonio Palopó	9	San Antonio Palopo	1	Enero	2023-01-14T00:00:00	2024-11-08T20:00:00	1	Precipitación	0
148060	7	Sololá	712	San Antonio Palopó	9	San Antonio Palopo	1	Enero	2023-01-14T00:00:00	2024-11-08T20:00:00	8	Radiación solar	0
148061	7	Sololá	712	San Antonio Palopó	9	San Antonio Palopo	1	Enero	2023-01-14T00:00:00	2024-11-08T21:00:00	2	Temperatura media	13.7
148062	7	Sololá	712	San Antonio Palopó	9	San Antonio Palopo	1	Enero	2023-01-14T00:00:00	2024-11-08T21:00:00	4	Temperatura máxima	15
148063	7	Sololá	712	San Antonio Palopó	9	San Antonio Palopo	1	Enero	2023-01-14T00:00:00	2024-11-08T21:00:00	3	Temperatura mínima	13.7
148064	7	Sololá	712	San Antonio Palopó	9	San Antonio Palopo	1	Enero	2023-01-14T00:00:00	2024-11-08T21:00:00	5	Humedad	70
148065	7	Sololá	712	San Antonio Palopó	9	San Antonio Palopo	1	Enero	2023-01-14T00:00:00	2024-11-08T21:00:00	6	Velocidad del viento	24.1
148066	7	Sololá	712	San Antonio Palopó	9	San Antonio Palopo	1	Enero	2023-01-14T00:00:00	2024-11-08T21:00:00	7	Dirección del viento	24.14
148067	7	Sololá	712	San Antonio Palopó	9	San Antonio Palopo	1	Enero	2023-01-14T00:00:00	2024-11-08T21:00:00	1	Precipitación	0
148068	7	Sololá	712	San Antonio Palopó	9	San Antonio Palopo	1	Enero	2023-01-14T00:00:00	2024-11-08T21:00:00	8	Radiación solar	0
148069	7	Sololá	712	San Antonio Palopó	9	San Antonio Palopo	1	Enero	2023-01-14T00:00:00	2024-11-08T22:00:00	2	Temperatura media	13.1
148070	7	Sololá	712	San Antonio Palopó	9	San Antonio Palopo	1	Enero	2023-01-14T00:00:00	2024-11-08T22:00:00	4	Temperatura máxima	13.7
148071	7	Sololá	712	San Antonio Palopó	9	San Antonio Palopo	1	Enero	2023-01-14T00:00:00	2024-11-08T22:00:00	3	Temperatura mínima	13.1
148072	7	Sololá	712	San Antonio Palopó	9	San Antonio Palopo	1	Enero	2023-01-14T00:00:00	2024-11-08T22:00:00	5	Humedad	70
148073	7	Sololá	712	San Antonio Palopó	9	San Antonio Palopo	1	Enero	2023-01-14T00:00:00	2024-11-08T22:00:00	6	Velocidad del viento	24.1
148074	7	Sololá	712	San Antonio Palopó	9	San Antonio Palopo	1	Enero	2023-01-14T00:00:00	2024-11-08T22:00:00	7	Dirección del viento	24.14
148075	7	Sololá	712	San Antonio Palopó	9	San Antonio Palopo	1	Enero	2023-01-14T00:00:00	2024-11-08T22:00:00	1	Precipitación	0
148076	7	Sololá	712	San Antonio Palopó	9	San Antonio Palopo	1	Enero	2023-01-14T00:00:00	2024-11-08T22:00:00	8	Radiación solar	0
148077	7	Sololá	712	San Antonio Palopó	9	San Antonio Palopo	1	Enero	2023-01-14T00:00:00	2024-11-08T23:00:00	2	Temperatura media	12.4
148078	7	Sololá	712	San Antonio Palopó	9	San Antonio Palopo	1	Enero	2023-01-14T00:00:00	2024-11-08T23:00:00	4	Temperatura máxima	13.2
148079	7	Sololá	712	San Antonio Palopó	9	San Antonio Palopo	1	Enero	2023-01-14T00:00:00	2024-11-08T23:00:00	3	Temperatura mínima	12.4
148080	7	Sololá	712	San Antonio Palopó	9	San Antonio Palopo	1	Enero	2023-01-14T00:00:00	2024-11-08T23:00:00	5	Humedad	71
148081	7	Sololá	712	San Antonio Palopó	9	San Antonio Palopo	1	Enero	2023-01-14T00:00:00	2024-11-08T23:00:00	6	Velocidad del viento	16.1
148082	7	Sololá	712	San Antonio Palopó	9	San Antonio Palopo	1	Enero	2023-01-14T00:00:00	2024-11-08T23:00:00	7	Dirección del viento	16.09
148083	7	Sololá	712	San Antonio Palopó	9	San Antonio Palopo	1	Enero	2023-01-14T00:00:00	2024-11-08T23:00:00	1	Precipitación	0
148084	7	Sololá	712	San Antonio Palopó	9	San Antonio Palopo	1	Enero	2023-01-14T00:00:00	2024-11-08T23:00:00	8	Radiación solar	0
148085	7	Sololá	712	San Antonio Palopó	9	San Antonio Palopo	1	Enero	2023-01-15T00:00:00	2024-11-08T00:00:00	2	Temperatura media	12.3
148086	7	Sololá	712	San Antonio Palopó	9	San Antonio Palopo	1	Enero	2023-01-15T00:00:00	2024-11-08T00:00:00	4	Temperatura máxima	12.5
148087	7	Sololá	712	San Antonio Palopó	9	San Antonio Palopo	1	Enero	2023-01-15T00:00:00	2024-11-08T00:00:00	3	Temperatura mínima	12.1
148088	7	Sololá	712	San Antonio Palopó	9	San Antonio Palopo	1	Enero	2023-01-15T00:00:00	2024-11-08T00:00:00	5	Humedad	69
148089	7	Sololá	712	San Antonio Palopó	9	San Antonio Palopo	1	Enero	2023-01-15T00:00:00	2024-11-08T00:00:00	6	Velocidad del viento	19.3
148090	7	Sololá	712	San Antonio Palopó	9	San Antonio Palopo	1	Enero	2023-01-15T00:00:00	2024-11-08T00:00:00	7	Dirección del viento	19.31
148091	7	Sololá	712	San Antonio Palopó	9	San Antonio Palopo	1	Enero	2023-01-15T00:00:00	2024-11-08T00:00:00	1	Precipitación	0
148092	7	Sololá	712	San Antonio Palopó	9	San Antonio Palopo	1	Enero	2023-01-15T00:00:00	2024-11-08T00:00:00	8	Radiación solar	0
148093	7	Sololá	712	San Antonio Palopó	9	San Antonio Palopo	1	Enero	2023-01-15T00:00:00	2024-11-08T01:00:00	2	Temperatura media	12.7
148094	7	Sololá	712	San Antonio Palopó	9	San Antonio Palopo	1	Enero	2023-01-15T00:00:00	2024-11-08T01:00:00	4	Temperatura máxima	12.8
148095	7	Sololá	712	San Antonio Palopó	9	San Antonio Palopo	1	Enero	2023-01-15T00:00:00	2024-11-08T01:00:00	3	Temperatura mínima	12.3
148096	7	Sololá	712	San Antonio Palopó	9	San Antonio Palopo	1	Enero	2023-01-15T00:00:00	2024-11-08T01:00:00	5	Humedad	61
148097	7	Sololá	712	San Antonio Palopó	9	San Antonio Palopo	1	Enero	2023-01-15T00:00:00	2024-11-08T01:00:00	6	Velocidad del viento	12.9
148098	7	Sololá	712	San Antonio Palopó	9	San Antonio Palopo	1	Enero	2023-01-15T00:00:00	2024-11-08T01:00:00	7	Dirección del viento	12.87
148099	7	Sololá	712	San Antonio Palopó	9	San Antonio Palopo	1	Enero	2023-01-15T00:00:00	2024-11-08T01:00:00	1	Precipitación	0
148100	7	Sololá	712	San Antonio Palopó	9	San Antonio Palopo	1	Enero	2023-01-15T00:00:00	2024-11-08T01:00:00	8	Radiación solar	0
148101	7	Sololá	712	San Antonio Palopó	9	San Antonio Palopo	1	Enero	2023-01-15T00:00:00	2024-11-08T02:00:00	2	Temperatura media	13.3
148102	7	Sololá	712	San Antonio Palopó	9	San Antonio Palopo	1	Enero	2023-01-15T00:00:00	2024-11-08T02:00:00	4	Temperatura máxima	13.4
148103	7	Sololá	712	San Antonio Palopó	9	San Antonio Palopo	1	Enero	2023-01-15T00:00:00	2024-11-08T02:00:00	3	Temperatura mínima	12.7
148104	7	Sololá	712	San Antonio Palopó	9	San Antonio Palopo	1	Enero	2023-01-15T00:00:00	2024-11-08T02:00:00	5	Humedad	55
148105	7	Sololá	712	San Antonio Palopó	9	San Antonio Palopo	1	Enero	2023-01-15T00:00:00	2024-11-08T02:00:00	6	Velocidad del viento	8
148106	7	Sololá	712	San Antonio Palopó	9	San Antonio Palopo	1	Enero	2023-01-15T00:00:00	2024-11-08T02:00:00	7	Dirección del viento	8.05
148107	7	Sololá	712	San Antonio Palopó	9	San Antonio Palopo	1	Enero	2023-01-15T00:00:00	2024-11-08T02:00:00	1	Precipitación	0
148108	7	Sololá	712	San Antonio Palopó	9	San Antonio Palopo	1	Enero	2023-01-15T00:00:00	2024-11-08T02:00:00	8	Radiación solar	0
148109	7	Sololá	712	San Antonio Palopó	9	San Antonio Palopo	1	Enero	2023-01-15T00:00:00	2024-11-08T03:00:00	2	Temperatura media	13.1
148110	7	Sololá	712	San Antonio Palopó	9	San Antonio Palopo	1	Enero	2023-01-15T00:00:00	2024-11-08T03:00:00	4	Temperatura máxima	13.8
148111	7	Sololá	712	San Antonio Palopó	9	San Antonio Palopo	1	Enero	2023-01-15T00:00:00	2024-11-08T03:00:00	3	Temperatura mínima	13.1
148112	7	Sololá	712	San Antonio Palopó	9	San Antonio Palopo	1	Enero	2023-01-15T00:00:00	2024-11-08T03:00:00	5	Humedad	50
148113	7	Sololá	712	San Antonio Palopó	9	San Antonio Palopo	1	Enero	2023-01-15T00:00:00	2024-11-08T03:00:00	6	Velocidad del viento	4.8
148114	7	Sololá	712	San Antonio Palopó	9	San Antonio Palopo	1	Enero	2023-01-15T00:00:00	2024-11-08T03:00:00	7	Dirección del viento	4.83
148115	7	Sololá	712	San Antonio Palopó	9	San Antonio Palopo	1	Enero	2023-01-15T00:00:00	2024-11-08T03:00:00	1	Precipitación	0
148116	7	Sololá	712	San Antonio Palopó	9	San Antonio Palopo	1	Enero	2023-01-15T00:00:00	2024-11-08T03:00:00	8	Radiación solar	0
148117	7	Sololá	712	San Antonio Palopó	9	San Antonio Palopo	1	Enero	2023-01-15T00:00:00	2024-11-08T04:00:00	2	Temperatura media	13.8
148118	7	Sololá	712	San Antonio Palopó	9	San Antonio Palopo	1	Enero	2023-01-15T00:00:00	2024-11-08T04:00:00	4	Temperatura máxima	14.1
148119	7	Sololá	712	San Antonio Palopó	9	San Antonio Palopo	1	Enero	2023-01-15T00:00:00	2024-11-08T04:00:00	3	Temperatura mínima	13.2
148120	7	Sololá	712	San Antonio Palopó	9	San Antonio Palopo	1	Enero	2023-01-15T00:00:00	2024-11-08T04:00:00	5	Humedad	46
148121	7	Sololá	712	San Antonio Palopó	9	San Antonio Palopo	1	Enero	2023-01-15T00:00:00	2024-11-08T04:00:00	6	Velocidad del viento	6.4
148122	7	Sololá	712	San Antonio Palopó	9	San Antonio Palopo	1	Enero	2023-01-15T00:00:00	2024-11-08T04:00:00	7	Dirección del viento	6.44
148123	7	Sololá	712	San Antonio Palopó	9	San Antonio Palopo	1	Enero	2023-01-15T00:00:00	2024-11-08T04:00:00	1	Precipitación	0
148124	7	Sololá	712	San Antonio Palopó	9	San Antonio Palopo	1	Enero	2023-01-15T00:00:00	2024-11-08T04:00:00	8	Radiación solar	0
148125	7	Sololá	712	San Antonio Palopó	9	San Antonio Palopo	1	Enero	2023-01-15T00:00:00	2024-11-08T05:00:00	2	Temperatura media	13.7
148126	7	Sololá	712	San Antonio Palopó	9	San Antonio Palopo	1	Enero	2023-01-15T00:00:00	2024-11-08T05:00:00	4	Temperatura máxima	13.8
148127	7	Sololá	712	San Antonio Palopó	9	San Antonio Palopo	1	Enero	2023-01-15T00:00:00	2024-11-08T05:00:00	3	Temperatura mínima	12.7
148128	7	Sololá	712	San Antonio Palopó	9	San Antonio Palopo	1	Enero	2023-01-15T00:00:00	2024-11-08T05:00:00	5	Humedad	42
148129	7	Sololá	712	San Antonio Palopó	9	San Antonio Palopo	1	Enero	2023-01-15T00:00:00	2024-11-08T05:00:00	6	Velocidad del viento	4.8
148130	7	Sololá	712	San Antonio Palopó	9	San Antonio Palopo	1	Enero	2023-01-15T00:00:00	2024-11-08T05:00:00	7	Dirección del viento	4.83
148131	7	Sololá	712	San Antonio Palopó	9	San Antonio Palopo	1	Enero	2023-01-15T00:00:00	2024-11-08T05:00:00	1	Precipitación	0
148132	7	Sololá	712	San Antonio Palopó	9	San Antonio Palopo	1	Enero	2023-01-15T00:00:00	2024-11-08T05:00:00	8	Radiación solar	0
148133	7	Sololá	712	San Antonio Palopó	9	San Antonio Palopo	1	Enero	2023-01-15T00:00:00	2024-11-08T06:00:00	2	Temperatura media	12.7
148134	7	Sololá	712	San Antonio Palopó	9	San Antonio Palopo	1	Enero	2023-01-15T00:00:00	2024-11-08T06:00:00	4	Temperatura máxima	13.7
148135	7	Sololá	712	San Antonio Palopó	9	San Antonio Palopo	1	Enero	2023-01-15T00:00:00	2024-11-08T06:00:00	3	Temperatura mínima	12.3
148136	7	Sololá	712	San Antonio Palopó	9	San Antonio Palopo	1	Enero	2023-01-15T00:00:00	2024-11-08T06:00:00	5	Humedad	48
148137	7	Sololá	712	San Antonio Palopó	9	San Antonio Palopo	1	Enero	2023-01-15T00:00:00	2024-11-08T06:00:00	6	Velocidad del viento	3.2
148138	7	Sololá	712	San Antonio Palopó	9	San Antonio Palopo	1	Enero	2023-01-15T00:00:00	2024-11-08T06:00:00	7	Dirección del viento	3.22
148139	7	Sololá	712	San Antonio Palopó	9	San Antonio Palopo	1	Enero	2023-01-15T00:00:00	2024-11-08T06:00:00	1	Precipitación	0
148140	7	Sololá	712	San Antonio Palopó	9	San Antonio Palopo	1	Enero	2023-01-15T00:00:00	2024-11-08T06:00:00	8	Radiación solar	0
148141	7	Sololá	712	San Antonio Palopó	9	San Antonio Palopo	1	Enero	2023-01-15T00:00:00	2024-11-08T07:00:00	2	Temperatura media	12.4
148142	7	Sololá	712	San Antonio Palopó	9	San Antonio Palopo	1	Enero	2023-01-15T00:00:00	2024-11-08T07:00:00	4	Temperatura máxima	13.2
148143	7	Sololá	712	San Antonio Palopó	9	San Antonio Palopo	1	Enero	2023-01-15T00:00:00	2024-11-08T07:00:00	3	Temperatura mínima	12.4
148144	7	Sololá	712	San Antonio Palopó	9	San Antonio Palopo	1	Enero	2023-01-15T00:00:00	2024-11-08T07:00:00	5	Humedad	57
148145	7	Sololá	712	San Antonio Palopó	9	San Antonio Palopo	1	Enero	2023-01-15T00:00:00	2024-11-08T07:00:00	6	Velocidad del viento	3.2
148146	7	Sololá	712	San Antonio Palopó	9	San Antonio Palopo	1	Enero	2023-01-15T00:00:00	2024-11-08T07:00:00	7	Dirección del viento	3.22
148147	7	Sololá	712	San Antonio Palopó	9	San Antonio Palopo	1	Enero	2023-01-15T00:00:00	2024-11-08T07:00:00	1	Precipitación	0
148148	7	Sololá	712	San Antonio Palopó	9	San Antonio Palopo	1	Enero	2023-01-15T00:00:00	2024-11-08T07:00:00	8	Radiación solar	3
148149	7	Sololá	712	San Antonio Palopó	9	San Antonio Palopo	1	Enero	2023-01-15T00:00:00	2024-11-08T08:00:00	2	Temperatura media	12.6
148150	7	Sololá	712	San Antonio Palopó	9	San Antonio Palopo	1	Enero	2023-01-15T00:00:00	2024-11-08T08:00:00	4	Temperatura máxima	13.2
148151	7	Sololá	712	San Antonio Palopó	9	San Antonio Palopo	1	Enero	2023-01-15T00:00:00	2024-11-08T08:00:00	3	Temperatura mínima	12.4
148152	7	Sololá	712	San Antonio Palopó	9	San Antonio Palopo	1	Enero	2023-01-15T00:00:00	2024-11-08T08:00:00	5	Humedad	61
148153	7	Sololá	712	San Antonio Palopó	9	San Antonio Palopo	1	Enero	2023-01-15T00:00:00	2024-11-08T08:00:00	6	Velocidad del viento	4.8
148154	7	Sololá	712	San Antonio Palopó	9	San Antonio Palopo	1	Enero	2023-01-15T00:00:00	2024-11-08T08:00:00	7	Dirección del viento	4.83
148155	7	Sololá	712	San Antonio Palopó	9	San Antonio Palopo	1	Enero	2023-01-15T00:00:00	2024-11-08T08:00:00	1	Precipitación	0
148156	7	Sololá	712	San Antonio Palopó	9	San Antonio Palopo	1	Enero	2023-01-15T00:00:00	2024-11-08T08:00:00	8	Radiación solar	16
148157	7	Sololá	712	San Antonio Palopó	9	San Antonio Palopo	1	Enero	2023-01-15T00:00:00	2024-11-08T09:00:00	2	Temperatura media	14.5
148158	7	Sololá	712	San Antonio Palopó	9	San Antonio Palopo	1	Enero	2023-01-15T00:00:00	2024-11-08T09:00:00	4	Temperatura máxima	14.5
148159	7	Sololá	712	San Antonio Palopó	9	San Antonio Palopo	1	Enero	2023-01-15T00:00:00	2024-11-08T09:00:00	3	Temperatura mínima	12.5
148160	7	Sololá	712	San Antonio Palopó	9	San Antonio Palopo	1	Enero	2023-01-15T00:00:00	2024-11-08T09:00:00	5	Humedad	58
148161	7	Sololá	712	San Antonio Palopó	9	San Antonio Palopo	1	Enero	2023-01-15T00:00:00	2024-11-08T09:00:00	6	Velocidad del viento	3.2
148162	7	Sololá	712	San Antonio Palopó	9	San Antonio Palopo	1	Enero	2023-01-15T00:00:00	2024-11-08T09:00:00	7	Dirección del viento	3.22
148163	7	Sololá	712	San Antonio Palopó	9	San Antonio Palopo	1	Enero	2023-01-15T00:00:00	2024-11-08T09:00:00	1	Precipitación	0
148164	7	Sololá	712	San Antonio Palopó	9	San Antonio Palopo	1	Enero	2023-01-15T00:00:00	2024-11-08T09:00:00	8	Radiación solar	113
148165	7	Sololá	712	San Antonio Palopó	9	San Antonio Palopo	1	Enero	2023-01-15T00:00:00	2024-11-08T10:00:00	2	Temperatura media	17.2
148166	7	Sololá	712	San Antonio Palopó	9	San Antonio Palopo	1	Enero	2023-01-15T00:00:00	2024-11-08T10:00:00	4	Temperatura máxima	17.3
148167	7	Sololá	712	San Antonio Palopó	9	San Antonio Palopo	1	Enero	2023-01-15T00:00:00	2024-11-08T10:00:00	3	Temperatura mínima	14.6
148168	7	Sololá	712	San Antonio Palopó	9	San Antonio Palopo	1	Enero	2023-01-15T00:00:00	2024-11-08T10:00:00	5	Humedad	53
148169	7	Sololá	712	San Antonio Palopó	9	San Antonio Palopo	1	Enero	2023-01-15T00:00:00	2024-11-08T10:00:00	6	Velocidad del viento	3.2
148170	7	Sololá	712	San Antonio Palopó	9	San Antonio Palopo	1	Enero	2023-01-15T00:00:00	2024-11-08T10:00:00	7	Dirección del viento	3.22
148171	7	Sololá	712	San Antonio Palopó	9	San Antonio Palopo	1	Enero	2023-01-15T00:00:00	2024-11-08T10:00:00	1	Precipitación	0
148172	7	Sololá	712	San Antonio Palopó	9	San Antonio Palopo	1	Enero	2023-01-15T00:00:00	2024-11-08T10:00:00	8	Radiación solar	533
148173	7	Sololá	712	San Antonio Palopó	9	San Antonio Palopo	1	Enero	2023-01-15T00:00:00	2024-11-08T11:00:00	2	Temperatura media	19.3
148174	7	Sololá	712	San Antonio Palopó	9	San Antonio Palopo	1	Enero	2023-01-15T00:00:00	2024-11-08T11:00:00	4	Temperatura máxima	19.4
148175	7	Sololá	712	San Antonio Palopó	9	San Antonio Palopo	1	Enero	2023-01-15T00:00:00	2024-11-08T11:00:00	3	Temperatura mínima	17.1
148176	7	Sololá	712	San Antonio Palopó	9	San Antonio Palopo	1	Enero	2023-01-15T00:00:00	2024-11-08T11:00:00	5	Humedad	43
148177	7	Sololá	712	San Antonio Palopó	9	San Antonio Palopo	1	Enero	2023-01-15T00:00:00	2024-11-08T11:00:00	6	Velocidad del viento	3.2
148178	7	Sololá	712	San Antonio Palopó	9	San Antonio Palopo	1	Enero	2023-01-15T00:00:00	2024-11-08T11:00:00	7	Dirección del viento	3.22
148179	7	Sololá	712	San Antonio Palopó	9	San Antonio Palopo	1	Enero	2023-01-15T00:00:00	2024-11-08T11:00:00	1	Precipitación	0
148180	7	Sololá	712	San Antonio Palopó	9	San Antonio Palopo	1	Enero	2023-01-15T00:00:00	2024-11-08T11:00:00	8	Radiación solar	673
148181	7	Sololá	712	San Antonio Palopó	9	San Antonio Palopo	1	Enero	2023-01-15T00:00:00	2024-11-08T12:00:00	2	Temperatura media	20.8
148182	7	Sololá	712	San Antonio Palopó	9	San Antonio Palopo	1	Enero	2023-01-15T00:00:00	2024-11-08T12:00:00	4	Temperatura máxima	20.8
148183	7	Sololá	712	San Antonio Palopó	9	San Antonio Palopo	1	Enero	2023-01-15T00:00:00	2024-11-08T12:00:00	3	Temperatura mínima	19.3
148184	7	Sololá	712	San Antonio Palopó	9	San Antonio Palopo	1	Enero	2023-01-15T00:00:00	2024-11-08T12:00:00	5	Humedad	45
148185	7	Sololá	712	San Antonio Palopó	9	San Antonio Palopo	1	Enero	2023-01-15T00:00:00	2024-11-08T12:00:00	6	Velocidad del viento	3.2
148186	7	Sololá	712	San Antonio Palopó	9	San Antonio Palopo	1	Enero	2023-01-15T00:00:00	2024-11-08T12:00:00	7	Dirección del viento	3.22
148187	7	Sololá	712	San Antonio Palopó	9	San Antonio Palopo	1	Enero	2023-01-15T00:00:00	2024-11-08T12:00:00	1	Precipitación	0
148188	7	Sololá	712	San Antonio Palopó	9	San Antonio Palopo	1	Enero	2023-01-15T00:00:00	2024-11-08T12:00:00	8	Radiación solar	658
148189	7	Sololá	712	San Antonio Palopó	9	San Antonio Palopo	1	Enero	2023-01-15T00:00:00	2024-11-08T13:00:00	2	Temperatura media	21.3
148190	7	Sololá	712	San Antonio Palopó	9	San Antonio Palopo	1	Enero	2023-01-15T00:00:00	2024-11-08T13:00:00	4	Temperatura máxima	22.1
148191	7	Sololá	712	San Antonio Palopó	9	San Antonio Palopo	1	Enero	2023-01-15T00:00:00	2024-11-08T13:00:00	3	Temperatura mínima	20.8
148192	7	Sololá	712	San Antonio Palopó	9	San Antonio Palopo	1	Enero	2023-01-15T00:00:00	2024-11-08T13:00:00	5	Humedad	54
148193	7	Sololá	712	San Antonio Palopó	9	San Antonio Palopo	1	Enero	2023-01-15T00:00:00	2024-11-08T13:00:00	6	Velocidad del viento	11.3
148194	7	Sololá	712	San Antonio Palopó	9	San Antonio Palopo	1	Enero	2023-01-15T00:00:00	2024-11-08T13:00:00	7	Dirección del viento	11.27
148195	7	Sololá	712	San Antonio Palopó	9	San Antonio Palopo	1	Enero	2023-01-15T00:00:00	2024-11-08T13:00:00	1	Precipitación	0
148196	7	Sololá	712	San Antonio Palopó	9	San Antonio Palopo	1	Enero	2023-01-15T00:00:00	2024-11-08T13:00:00	8	Radiación solar	766
148197	7	Sololá	712	San Antonio Palopó	9	San Antonio Palopo	1	Enero	2023-01-15T00:00:00	2024-11-08T14:00:00	2	Temperatura media	21.3
148198	7	Sololá	712	San Antonio Palopó	9	San Antonio Palopo	1	Enero	2023-01-15T00:00:00	2024-11-08T14:00:00	4	Temperatura máxima	21.4
148199	7	Sololá	712	San Antonio Palopó	9	San Antonio Palopo	1	Enero	2023-01-15T00:00:00	2024-11-08T14:00:00	3	Temperatura mínima	21
148200	7	Sololá	712	San Antonio Palopó	9	San Antonio Palopo	1	Enero	2023-01-15T00:00:00	2024-11-08T14:00:00	5	Humedad	59
148201	7	Sololá	712	San Antonio Palopó	9	San Antonio Palopo	1	Enero	2023-01-15T00:00:00	2024-11-08T14:00:00	6	Velocidad del viento	12.9
148202	7	Sololá	712	San Antonio Palopó	9	San Antonio Palopo	1	Enero	2023-01-15T00:00:00	2024-11-08T14:00:00	7	Dirección del viento	12.87
148203	7	Sololá	712	San Antonio Palopó	9	San Antonio Palopo	1	Enero	2023-01-15T00:00:00	2024-11-08T14:00:00	1	Precipitación	0
148204	7	Sololá	712	San Antonio Palopó	9	San Antonio Palopo	1	Enero	2023-01-15T00:00:00	2024-11-08T14:00:00	8	Radiación solar	702
148205	7	Sololá	712	San Antonio Palopó	9	San Antonio Palopo	1	Enero	2023-01-15T00:00:00	2024-11-08T15:00:00	2	Temperatura media	20.6
148206	7	Sololá	712	San Antonio Palopó	9	San Antonio Palopo	1	Enero	2023-01-15T00:00:00	2024-11-08T15:00:00	4	Temperatura máxima	21.3
148207	7	Sololá	712	San Antonio Palopó	9	San Antonio Palopo	1	Enero	2023-01-15T00:00:00	2024-11-08T15:00:00	3	Temperatura mínima	20.4
148208	7	Sololá	712	San Antonio Palopó	9	San Antonio Palopo	1	Enero	2023-01-15T00:00:00	2024-11-08T15:00:00	5	Humedad	62
148209	7	Sololá	712	San Antonio Palopó	9	San Antonio Palopo	1	Enero	2023-01-15T00:00:00	2024-11-08T15:00:00	6	Velocidad del viento	14.5
148210	7	Sololá	712	San Antonio Palopó	9	San Antonio Palopo	1	Enero	2023-01-15T00:00:00	2024-11-08T15:00:00	7	Dirección del viento	14.48
148211	7	Sololá	712	San Antonio Palopó	9	San Antonio Palopo	1	Enero	2023-01-15T00:00:00	2024-11-08T15:00:00	1	Precipitación	0
148212	7	Sololá	712	San Antonio Palopó	9	San Antonio Palopo	1	Enero	2023-01-15T00:00:00	2024-11-08T15:00:00	8	Radiación solar	447
148213	7	Sololá	712	San Antonio Palopó	9	San Antonio Palopo	1	Enero	2023-01-15T00:00:00	2024-11-08T16:00:00	2	Temperatura media	19.9
148214	7	Sololá	712	San Antonio Palopó	9	San Antonio Palopo	1	Enero	2023-01-15T00:00:00	2024-11-08T16:00:00	4	Temperatura máxima	20.8
148215	7	Sololá	712	San Antonio Palopó	9	San Antonio Palopo	1	Enero	2023-01-15T00:00:00	2024-11-08T16:00:00	3	Temperatura mínima	19.9
148216	7	Sololá	712	San Antonio Palopó	9	San Antonio Palopo	1	Enero	2023-01-15T00:00:00	2024-11-08T16:00:00	5	Humedad	68
148217	7	Sololá	712	San Antonio Palopó	9	San Antonio Palopo	1	Enero	2023-01-15T00:00:00	2024-11-08T16:00:00	6	Velocidad del viento	11.3
148218	7	Sololá	712	San Antonio Palopó	9	San Antonio Palopo	1	Enero	2023-01-15T00:00:00	2024-11-08T16:00:00	7	Dirección del viento	11.27
148219	7	Sololá	712	San Antonio Palopó	9	San Antonio Palopo	1	Enero	2023-01-15T00:00:00	2024-11-08T16:00:00	1	Precipitación	0
148220	7	Sololá	712	San Antonio Palopó	9	San Antonio Palopo	1	Enero	2023-01-15T00:00:00	2024-11-08T16:00:00	8	Radiación solar	223
148221	7	Sololá	712	San Antonio Palopó	9	San Antonio Palopo	1	Enero	2023-01-15T00:00:00	2024-11-08T17:00:00	2	Temperatura media	20.2
148222	7	Sololá	712	San Antonio Palopó	9	San Antonio Palopo	1	Enero	2023-01-15T00:00:00	2024-11-08T17:00:00	4	Temperatura máxima	20.7
148223	7	Sololá	712	San Antonio Palopó	9	San Antonio Palopo	1	Enero	2023-01-15T00:00:00	2024-11-08T17:00:00	3	Temperatura mínima	19.9
148224	7	Sololá	712	San Antonio Palopó	9	San Antonio Palopo	1	Enero	2023-01-15T00:00:00	2024-11-08T17:00:00	5	Humedad	71
148225	7	Sololá	712	San Antonio Palopó	9	San Antonio Palopo	1	Enero	2023-01-15T00:00:00	2024-11-08T17:00:00	6	Velocidad del viento	9.7
148226	7	Sololá	712	San Antonio Palopó	9	San Antonio Palopo	1	Enero	2023-01-15T00:00:00	2024-11-08T17:00:00	7	Dirección del viento	9.66
148227	7	Sololá	712	San Antonio Palopó	9	San Antonio Palopo	1	Enero	2023-01-15T00:00:00	2024-11-08T17:00:00	1	Precipitación	0
148228	7	Sololá	712	San Antonio Palopó	9	San Antonio Palopo	1	Enero	2023-01-15T00:00:00	2024-11-08T17:00:00	8	Radiación solar	156
148229	7	Sololá	712	San Antonio Palopó	9	San Antonio Palopo	1	Enero	2023-01-15T00:00:00	2024-11-08T18:00:00	2	Temperatura media	18.6
148230	7	Sololá	712	San Antonio Palopó	9	San Antonio Palopo	1	Enero	2023-01-15T00:00:00	2024-11-08T18:00:00	4	Temperatura máxima	20.3
148231	7	Sololá	712	San Antonio Palopó	9	San Antonio Palopo	1	Enero	2023-01-15T00:00:00	2024-11-08T18:00:00	3	Temperatura mínima	18.6
148232	7	Sololá	712	San Antonio Palopó	9	San Antonio Palopo	1	Enero	2023-01-15T00:00:00	2024-11-08T18:00:00	5	Humedad	75
148233	7	Sololá	712	San Antonio Palopó	9	San Antonio Palopo	1	Enero	2023-01-15T00:00:00	2024-11-08T18:00:00	6	Velocidad del viento	4.8
148234	7	Sololá	712	San Antonio Palopó	9	San Antonio Palopo	1	Enero	2023-01-15T00:00:00	2024-11-08T18:00:00	7	Dirección del viento	4.83
148235	7	Sololá	712	San Antonio Palopó	9	San Antonio Palopo	1	Enero	2023-01-15T00:00:00	2024-11-08T18:00:00	1	Precipitación	0
148236	7	Sololá	712	San Antonio Palopó	9	San Antonio Palopo	1	Enero	2023-01-15T00:00:00	2024-11-08T18:00:00	8	Radiación solar	21
148237	7	Sololá	712	San Antonio Palopó	9	San Antonio Palopo	1	Enero	2023-01-15T00:00:00	2024-11-08T19:00:00	2	Temperatura media	17.6
148238	7	Sololá	712	San Antonio Palopó	9	San Antonio Palopo	1	Enero	2023-01-15T00:00:00	2024-11-08T19:00:00	4	Temperatura máxima	18.6
148239	7	Sololá	712	San Antonio Palopó	9	San Antonio Palopo	1	Enero	2023-01-15T00:00:00	2024-11-08T19:00:00	3	Temperatura mínima	17.6
148240	7	Sololá	712	San Antonio Palopó	9	San Antonio Palopo	1	Enero	2023-01-15T00:00:00	2024-11-08T19:00:00	5	Humedad	75
148241	7	Sololá	712	San Antonio Palopó	9	San Antonio Palopo	1	Enero	2023-01-15T00:00:00	2024-11-08T19:00:00	6	Velocidad del viento	3.2
148242	7	Sololá	712	San Antonio Palopó	9	San Antonio Palopo	1	Enero	2023-01-15T00:00:00	2024-11-08T19:00:00	7	Dirección del viento	3.22
148243	7	Sololá	712	San Antonio Palopó	9	San Antonio Palopo	1	Enero	2023-01-15T00:00:00	2024-11-08T19:00:00	1	Precipitación	0
148244	7	Sololá	712	San Antonio Palopó	9	San Antonio Palopo	1	Enero	2023-01-15T00:00:00	2024-11-08T19:00:00	8	Radiación solar	0
148245	7	Sololá	712	San Antonio Palopó	9	San Antonio Palopo	1	Enero	2023-01-15T00:00:00	2024-11-08T20:00:00	2	Temperatura media	17.3
148246	7	Sololá	712	San Antonio Palopó	9	San Antonio Palopo	1	Enero	2023-01-15T00:00:00	2024-11-08T20:00:00	4	Temperatura máxima	17.6
148247	7	Sololá	712	San Antonio Palopó	9	San Antonio Palopo	1	Enero	2023-01-15T00:00:00	2024-11-08T20:00:00	3	Temperatura mínima	17.1
148248	7	Sololá	712	San Antonio Palopó	9	San Antonio Palopo	1	Enero	2023-01-15T00:00:00	2024-11-08T20:00:00	5	Humedad	75
148249	7	Sololá	712	San Antonio Palopó	9	San Antonio Palopo	1	Enero	2023-01-15T00:00:00	2024-11-08T20:00:00	6	Velocidad del viento	3.2
148250	7	Sololá	712	San Antonio Palopó	9	San Antonio Palopo	1	Enero	2023-01-15T00:00:00	2024-11-08T20:00:00	7	Dirección del viento	3.22
148251	7	Sololá	712	San Antonio Palopó	9	San Antonio Palopo	1	Enero	2023-01-15T00:00:00	2024-11-08T20:00:00	1	Precipitación	0
148252	7	Sololá	712	San Antonio Palopó	9	San Antonio Palopo	1	Enero	2023-01-15T00:00:00	2024-11-08T20:00:00	8	Radiación solar	0
148253	7	Sololá	712	San Antonio Palopó	9	San Antonio Palopo	1	Enero	2023-01-15T00:00:00	2024-11-08T21:00:00	2	Temperatura media	16.3
148254	7	Sololá	712	San Antonio Palopó	9	San Antonio Palopo	1	Enero	2023-01-15T00:00:00	2024-11-08T21:00:00	4	Temperatura máxima	17.3
148255	7	Sololá	712	San Antonio Palopó	9	San Antonio Palopo	1	Enero	2023-01-15T00:00:00	2024-11-08T21:00:00	3	Temperatura mínima	16.3
148256	7	Sololá	712	San Antonio Palopó	9	San Antonio Palopo	1	Enero	2023-01-15T00:00:00	2024-11-08T21:00:00	5	Humedad	80
148257	7	Sololá	712	San Antonio Palopó	9	San Antonio Palopo	1	Enero	2023-01-15T00:00:00	2024-11-08T21:00:00	6	Velocidad del viento	3.2
148258	7	Sololá	712	San Antonio Palopó	9	San Antonio Palopo	1	Enero	2023-01-15T00:00:00	2024-11-08T21:00:00	7	Dirección del viento	3.22
148259	7	Sololá	712	San Antonio Palopó	9	San Antonio Palopo	1	Enero	2023-01-15T00:00:00	2024-11-08T21:00:00	1	Precipitación	0
148260	7	Sololá	712	San Antonio Palopó	9	San Antonio Palopo	1	Enero	2023-01-15T00:00:00	2024-11-08T21:00:00	8	Radiación solar	0
148261	7	Sololá	712	San Antonio Palopó	9	San Antonio Palopo	1	Enero	2023-01-15T00:00:00	2024-11-08T22:00:00	2	Temperatura media	16.7
148262	7	Sololá	712	San Antonio Palopó	9	San Antonio Palopo	1	Enero	2023-01-15T00:00:00	2024-11-08T22:00:00	4	Temperatura máxima	16.7
148263	7	Sololá	712	San Antonio Palopó	9	San Antonio Palopo	1	Enero	2023-01-15T00:00:00	2024-11-08T22:00:00	3	Temperatura mínima	16.3
148264	7	Sololá	712	San Antonio Palopó	9	San Antonio Palopo	1	Enero	2023-01-15T00:00:00	2024-11-08T22:00:00	5	Humedad	80
148265	7	Sololá	712	San Antonio Palopó	9	San Antonio Palopo	1	Enero	2023-01-15T00:00:00	2024-11-08T22:00:00	6	Velocidad del viento	3.2
148266	7	Sololá	712	San Antonio Palopó	9	San Antonio Palopo	1	Enero	2023-01-15T00:00:00	2024-11-08T22:00:00	7	Dirección del viento	3.22
148267	7	Sololá	712	San Antonio Palopó	9	San Antonio Palopo	1	Enero	2023-01-15T00:00:00	2024-11-08T22:00:00	1	Precipitación	0
148268	7	Sololá	712	San Antonio Palopó	9	San Antonio Palopo	1	Enero	2023-01-15T00:00:00	2024-11-08T22:00:00	8	Radiación solar	0
148269	7	Sololá	712	San Antonio Palopó	9	San Antonio Palopo	1	Enero	2023-01-15T00:00:00	2024-11-08T23:00:00	2	Temperatura media	17.2
148270	7	Sololá	712	San Antonio Palopó	9	San Antonio Palopo	1	Enero	2023-01-15T00:00:00	2024-11-08T23:00:00	4	Temperatura máxima	17.2
148271	7	Sololá	712	San Antonio Palopó	9	San Antonio Palopo	1	Enero	2023-01-15T00:00:00	2024-11-08T23:00:00	3	Temperatura mínima	16.7
148272	7	Sololá	712	San Antonio Palopó	9	San Antonio Palopo	1	Enero	2023-01-15T00:00:00	2024-11-08T23:00:00	5	Humedad	80
148273	7	Sololá	712	San Antonio Palopó	9	San Antonio Palopo	1	Enero	2023-01-15T00:00:00	2024-11-08T23:00:00	6	Velocidad del viento	1.6
148274	7	Sololá	712	San Antonio Palopó	9	San Antonio Palopo	1	Enero	2023-01-15T00:00:00	2024-11-08T23:00:00	7	Dirección del viento	1.61
148275	7	Sololá	712	San Antonio Palopó	9	San Antonio Palopo	1	Enero	2023-01-15T00:00:00	2024-11-08T23:00:00	1	Precipitación	0
148276	7	Sololá	712	San Antonio Palopó	9	San Antonio Palopo	1	Enero	2023-01-15T00:00:00	2024-11-08T23:00:00	8	Radiación solar	0
148277	7	Sololá	712	San Antonio Palopó	9	San Antonio Palopo	1	Enero	2023-01-16T00:00:00	2024-11-08T00:00:00	2	Temperatura media	16.8
148278	7	Sololá	712	San Antonio Palopó	9	San Antonio Palopo	1	Enero	2023-01-16T00:00:00	2024-11-08T00:00:00	4	Temperatura máxima	17.2
148279	7	Sololá	712	San Antonio Palopó	9	San Antonio Palopo	1	Enero	2023-01-16T00:00:00	2024-11-08T00:00:00	3	Temperatura mínima	16.8
148280	7	Sololá	712	San Antonio Palopó	9	San Antonio Palopo	1	Enero	2023-01-16T00:00:00	2024-11-08T00:00:00	5	Humedad	81
148281	7	Sololá	712	San Antonio Palopó	9	San Antonio Palopo	1	Enero	2023-01-16T00:00:00	2024-11-08T00:00:00	6	Velocidad del viento	1.6
148282	7	Sololá	712	San Antonio Palopó	9	San Antonio Palopo	1	Enero	2023-01-16T00:00:00	2024-11-08T00:00:00	7	Dirección del viento	1.61
148283	7	Sololá	712	San Antonio Palopó	9	San Antonio Palopo	1	Enero	2023-01-16T00:00:00	2024-11-08T00:00:00	1	Precipitación	0
148284	7	Sololá	712	San Antonio Palopó	9	San Antonio Palopo	1	Enero	2023-01-16T00:00:00	2024-11-08T00:00:00	8	Radiación solar	0
148285	7	Sololá	712	San Antonio Palopó	9	San Antonio Palopo	1	Enero	2023-01-16T00:00:00	2024-11-08T01:00:00	2	Temperatura media	15.7
148286	7	Sololá	712	San Antonio Palopó	9	San Antonio Palopo	1	Enero	2023-01-16T00:00:00	2024-11-08T01:00:00	4	Temperatura máxima	16.8
148287	7	Sololá	712	San Antonio Palopó	9	San Antonio Palopo	1	Enero	2023-01-16T00:00:00	2024-11-08T01:00:00	3	Temperatura mínima	15.7
148288	7	Sololá	712	San Antonio Palopó	9	San Antonio Palopo	1	Enero	2023-01-16T00:00:00	2024-11-08T01:00:00	5	Humedad	79
148289	7	Sololá	712	San Antonio Palopó	9	San Antonio Palopo	1	Enero	2023-01-16T00:00:00	2024-11-08T01:00:00	6	Velocidad del viento	4.8
148290	7	Sololá	712	San Antonio Palopó	9	San Antonio Palopo	1	Enero	2023-01-16T00:00:00	2024-11-08T01:00:00	7	Dirección del viento	4.83
148291	7	Sololá	712	San Antonio Palopó	9	San Antonio Palopo	1	Enero	2023-01-16T00:00:00	2024-11-08T01:00:00	1	Precipitación	0
148292	7	Sololá	712	San Antonio Palopó	9	San Antonio Palopo	1	Enero	2023-01-16T00:00:00	2024-11-08T01:00:00	8	Radiación solar	0
148293	7	Sololá	712	San Antonio Palopó	9	San Antonio Palopo	1	Enero	2023-01-16T00:00:00	2024-11-08T02:00:00	2	Temperatura media	15.7
148294	7	Sololá	712	San Antonio Palopó	9	San Antonio Palopo	1	Enero	2023-01-16T00:00:00	2024-11-08T02:00:00	4	Temperatura máxima	16.2
148295	7	Sololá	712	San Antonio Palopó	9	San Antonio Palopo	1	Enero	2023-01-16T00:00:00	2024-11-08T02:00:00	3	Temperatura mínima	15.6
148296	7	Sololá	712	San Antonio Palopó	9	San Antonio Palopo	1	Enero	2023-01-16T00:00:00	2024-11-08T02:00:00	5	Humedad	75
148297	7	Sololá	712	San Antonio Palopó	9	San Antonio Palopo	1	Enero	2023-01-16T00:00:00	2024-11-08T02:00:00	6	Velocidad del viento	3.2
148298	7	Sololá	712	San Antonio Palopó	9	San Antonio Palopo	1	Enero	2023-01-16T00:00:00	2024-11-08T02:00:00	7	Dirección del viento	3.22
148299	7	Sololá	712	San Antonio Palopó	9	San Antonio Palopo	1	Enero	2023-01-16T00:00:00	2024-11-08T02:00:00	1	Precipitación	0
148300	7	Sololá	712	San Antonio Palopó	9	San Antonio Palopo	1	Enero	2023-01-16T00:00:00	2024-11-08T02:00:00	8	Radiación solar	0
148301	7	Sololá	712	San Antonio Palopó	9	San Antonio Palopo	1	Enero	2023-01-16T00:00:00	2024-11-08T03:00:00	2	Temperatura media	15.8
148302	7	Sololá	712	San Antonio Palopó	9	San Antonio Palopo	1	Enero	2023-01-16T00:00:00	2024-11-08T03:00:00	4	Temperatura máxima	15.8
148303	7	Sololá	712	San Antonio Palopó	9	San Antonio Palopo	1	Enero	2023-01-16T00:00:00	2024-11-08T03:00:00	3	Temperatura mínima	15.6
148304	7	Sololá	712	San Antonio Palopó	9	San Antonio Palopo	1	Enero	2023-01-16T00:00:00	2024-11-08T03:00:00	5	Humedad	78
148305	7	Sololá	712	San Antonio Palopó	9	San Antonio Palopo	1	Enero	2023-01-16T00:00:00	2024-11-08T03:00:00	6	Velocidad del viento	3.2
148306	7	Sololá	712	San Antonio Palopó	9	San Antonio Palopo	1	Enero	2023-01-16T00:00:00	2024-11-08T03:00:00	7	Dirección del viento	3.22
148307	7	Sololá	712	San Antonio Palopó	9	San Antonio Palopo	1	Enero	2023-01-16T00:00:00	2024-11-08T03:00:00	1	Precipitación	0
148308	7	Sololá	712	San Antonio Palopó	9	San Antonio Palopo	1	Enero	2023-01-16T00:00:00	2024-11-08T03:00:00	8	Radiación solar	0
148309	7	Sololá	712	San Antonio Palopó	9	San Antonio Palopo	1	Enero	2023-01-16T00:00:00	2024-11-08T04:00:00	2	Temperatura media	14.8
148310	7	Sololá	712	San Antonio Palopó	9	San Antonio Palopo	1	Enero	2023-01-16T00:00:00	2024-11-08T04:00:00	4	Temperatura máxima	15.8
148311	7	Sololá	712	San Antonio Palopó	9	San Antonio Palopo	1	Enero	2023-01-16T00:00:00	2024-11-08T04:00:00	3	Temperatura mínima	14.6
148312	7	Sololá	712	San Antonio Palopó	9	San Antonio Palopo	1	Enero	2023-01-16T00:00:00	2024-11-08T04:00:00	5	Humedad	81
148313	7	Sololá	712	San Antonio Palopó	9	San Antonio Palopo	1	Enero	2023-01-16T00:00:00	2024-11-08T04:00:00	6	Velocidad del viento	4.8
148314	7	Sololá	712	San Antonio Palopó	9	San Antonio Palopo	1	Enero	2023-01-16T00:00:00	2024-11-08T04:00:00	7	Dirección del viento	4.83
148315	7	Sololá	712	San Antonio Palopó	9	San Antonio Palopo	1	Enero	2023-01-16T00:00:00	2024-11-08T04:00:00	1	Precipitación	0
148316	7	Sololá	712	San Antonio Palopó	9	San Antonio Palopo	1	Enero	2023-01-16T00:00:00	2024-11-08T04:00:00	8	Radiación solar	0
148317	7	Sololá	712	San Antonio Palopó	9	San Antonio Palopo	1	Enero	2023-01-16T00:00:00	2024-11-08T05:00:00	2	Temperatura media	14.3
148318	7	Sololá	712	San Antonio Palopó	9	San Antonio Palopo	1	Enero	2023-01-16T00:00:00	2024-11-08T05:00:00	4	Temperatura máxima	14.8
148319	7	Sololá	712	San Antonio Palopó	9	San Antonio Palopo	1	Enero	2023-01-16T00:00:00	2024-11-08T05:00:00	3	Temperatura mínima	14.2
148320	7	Sololá	712	San Antonio Palopó	9	San Antonio Palopo	1	Enero	2023-01-16T00:00:00	2024-11-08T05:00:00	5	Humedad	82
148321	7	Sololá	712	San Antonio Palopó	9	San Antonio Palopo	1	Enero	2023-01-16T00:00:00	2024-11-08T05:00:00	6	Velocidad del viento	4.8
148322	7	Sololá	712	San Antonio Palopó	9	San Antonio Palopo	1	Enero	2023-01-16T00:00:00	2024-11-08T05:00:00	7	Dirección del viento	4.83
148323	7	Sololá	712	San Antonio Palopó	9	San Antonio Palopo	1	Enero	2023-01-16T00:00:00	2024-11-08T05:00:00	1	Precipitación	0
148324	7	Sololá	712	San Antonio Palopó	9	San Antonio Palopo	1	Enero	2023-01-16T00:00:00	2024-11-08T05:00:00	8	Radiación solar	0
148325	7	Sololá	712	San Antonio Palopó	9	San Antonio Palopo	1	Enero	2023-01-16T00:00:00	2024-11-08T06:00:00	2	Temperatura media	14.1
148326	7	Sololá	712	San Antonio Palopó	9	San Antonio Palopo	1	Enero	2023-01-16T00:00:00	2024-11-08T06:00:00	4	Temperatura máxima	14.8
148327	7	Sololá	712	San Antonio Palopó	9	San Antonio Palopo	1	Enero	2023-01-16T00:00:00	2024-11-08T06:00:00	3	Temperatura mínima	14.1
148328	7	Sololá	712	San Antonio Palopó	9	San Antonio Palopo	1	Enero	2023-01-16T00:00:00	2024-11-08T06:00:00	5	Humedad	81
148329	7	Sololá	712	San Antonio Palopó	9	San Antonio Palopo	1	Enero	2023-01-16T00:00:00	2024-11-08T06:00:00	6	Velocidad del viento	4.8
148330	7	Sololá	712	San Antonio Palopó	9	San Antonio Palopo	1	Enero	2023-01-16T00:00:00	2024-11-08T06:00:00	7	Dirección del viento	4.83
148331	7	Sololá	712	San Antonio Palopó	9	San Antonio Palopo	1	Enero	2023-01-16T00:00:00	2024-11-08T06:00:00	1	Precipitación	0
148332	7	Sololá	712	San Antonio Palopó	9	San Antonio Palopo	1	Enero	2023-01-16T00:00:00	2024-11-08T06:00:00	8	Radiación solar	0
148333	7	Sololá	712	San Antonio Palopó	9	San Antonio Palopo	1	Enero	2023-01-16T00:00:00	2024-11-08T07:00:00	2	Temperatura media	13.8
148334	7	Sololá	712	San Antonio Palopó	9	San Antonio Palopo	1	Enero	2023-01-16T00:00:00	2024-11-08T07:00:00	4	Temperatura máxima	14.2
148335	7	Sololá	712	San Antonio Palopó	9	San Antonio Palopo	1	Enero	2023-01-16T00:00:00	2024-11-08T07:00:00	3	Temperatura mínima	13.8
148336	7	Sololá	712	San Antonio Palopó	9	San Antonio Palopo	1	Enero	2023-01-16T00:00:00	2024-11-08T07:00:00	5	Humedad	80
148337	7	Sololá	712	San Antonio Palopó	9	San Antonio Palopo	1	Enero	2023-01-16T00:00:00	2024-11-08T07:00:00	6	Velocidad del viento	4.8
148338	7	Sololá	712	San Antonio Palopó	9	San Antonio Palopo	1	Enero	2023-01-16T00:00:00	2024-11-08T07:00:00	7	Dirección del viento	4.83
148339	7	Sololá	712	San Antonio Palopó	9	San Antonio Palopo	1	Enero	2023-01-16T00:00:00	2024-11-08T07:00:00	1	Precipitación	0
148340	7	Sololá	712	San Antonio Palopó	9	San Antonio Palopo	1	Enero	2023-01-16T00:00:00	2024-11-08T07:00:00	8	Radiación solar	4
148341	7	Sololá	712	San Antonio Palopó	9	San Antonio Palopo	1	Enero	2023-01-16T00:00:00	2024-11-08T08:00:00	2	Temperatura media	14.5
148342	7	Sololá	712	San Antonio Palopó	9	San Antonio Palopo	1	Enero	2023-01-16T00:00:00	2024-11-08T08:00:00	4	Temperatura máxima	14.6
148343	7	Sololá	712	San Antonio Palopó	9	San Antonio Palopo	1	Enero	2023-01-16T00:00:00	2024-11-08T08:00:00	3	Temperatura mínima	13.8
148344	7	Sololá	712	San Antonio Palopó	9	San Antonio Palopo	1	Enero	2023-01-16T00:00:00	2024-11-08T08:00:00	5	Humedad	79
148345	7	Sololá	712	San Antonio Palopó	9	San Antonio Palopo	1	Enero	2023-01-16T00:00:00	2024-11-08T08:00:00	6	Velocidad del viento	3.2
148346	7	Sololá	712	San Antonio Palopó	9	San Antonio Palopo	1	Enero	2023-01-16T00:00:00	2024-11-08T08:00:00	7	Dirección del viento	3.22
148347	7	Sololá	712	San Antonio Palopó	9	San Antonio Palopo	1	Enero	2023-01-16T00:00:00	2024-11-08T08:00:00	1	Precipitación	0
148348	7	Sololá	712	San Antonio Palopó	9	San Antonio Palopo	1	Enero	2023-01-16T00:00:00	2024-11-08T08:00:00	8	Radiación solar	21
148349	7	Sololá	712	San Antonio Palopó	9	San Antonio Palopo	1	Enero	2023-01-16T00:00:00	2024-11-08T09:00:00	2	Temperatura media	15.6
148350	7	Sololá	712	San Antonio Palopó	9	San Antonio Palopo	1	Enero	2023-01-16T00:00:00	2024-11-08T09:00:00	4	Temperatura máxima	15.6
148351	7	Sololá	712	San Antonio Palopó	9	San Antonio Palopo	1	Enero	2023-01-16T00:00:00	2024-11-08T09:00:00	3	Temperatura mínima	14.2
148352	7	Sololá	712	San Antonio Palopó	9	San Antonio Palopo	1	Enero	2023-01-16T00:00:00	2024-11-08T09:00:00	5	Humedad	78
148353	7	Sololá	712	San Antonio Palopó	9	San Antonio Palopo	1	Enero	2023-01-16T00:00:00	2024-11-08T09:00:00	6	Velocidad del viento	4.8
148354	7	Sololá	712	San Antonio Palopó	9	San Antonio Palopo	1	Enero	2023-01-16T00:00:00	2024-11-08T09:00:00	7	Dirección del viento	4.83
148355	7	Sololá	712	San Antonio Palopó	9	San Antonio Palopo	1	Enero	2023-01-16T00:00:00	2024-11-08T09:00:00	1	Precipitación	0
148356	7	Sololá	712	San Antonio Palopó	9	San Antonio Palopo	1	Enero	2023-01-16T00:00:00	2024-11-08T09:00:00	8	Radiación solar	122
148357	7	Sololá	712	San Antonio Palopó	9	San Antonio Palopo	1	Enero	2023-01-16T00:00:00	2024-11-08T10:00:00	2	Temperatura media	18.4
148358	7	Sololá	712	San Antonio Palopó	9	San Antonio Palopo	1	Enero	2023-01-16T00:00:00	2024-11-08T10:00:00	4	Temperatura máxima	19.1
148359	7	Sololá	712	San Antonio Palopó	9	San Antonio Palopo	1	Enero	2023-01-16T00:00:00	2024-11-08T10:00:00	3	Temperatura mínima	15.6
148360	7	Sololá	712	San Antonio Palopó	9	San Antonio Palopo	1	Enero	2023-01-16T00:00:00	2024-11-08T10:00:00	5	Humedad	73
148361	7	Sololá	712	San Antonio Palopó	9	San Antonio Palopo	1	Enero	2023-01-16T00:00:00	2024-11-08T10:00:00	6	Velocidad del viento	3.2
148362	7	Sololá	712	San Antonio Palopó	9	San Antonio Palopo	1	Enero	2023-01-16T00:00:00	2024-11-08T10:00:00	7	Dirección del viento	3.22
148363	7	Sololá	712	San Antonio Palopó	9	San Antonio Palopo	1	Enero	2023-01-16T00:00:00	2024-11-08T10:00:00	1	Precipitación	0
148364	7	Sololá	712	San Antonio Palopó	9	San Antonio Palopo	1	Enero	2023-01-16T00:00:00	2024-11-08T10:00:00	8	Radiación solar	522
148365	7	Sololá	712	San Antonio Palopó	9	San Antonio Palopo	1	Enero	2023-01-16T00:00:00	2024-11-08T11:00:00	2	Temperatura media	19.9
148366	7	Sololá	712	San Antonio Palopó	9	San Antonio Palopo	1	Enero	2023-01-16T00:00:00	2024-11-08T11:00:00	4	Temperatura máxima	19.9
148367	7	Sololá	712	San Antonio Palopó	9	San Antonio Palopo	1	Enero	2023-01-16T00:00:00	2024-11-08T11:00:00	3	Temperatura mínima	18.4
148368	7	Sololá	712	San Antonio Palopó	9	San Antonio Palopo	1	Enero	2023-01-16T00:00:00	2024-11-08T11:00:00	5	Humedad	59
148369	7	Sololá	712	San Antonio Palopó	9	San Antonio Palopo	1	Enero	2023-01-16T00:00:00	2024-11-08T11:00:00	6	Velocidad del viento	3.2
148370	7	Sololá	712	San Antonio Palopó	9	San Antonio Palopo	1	Enero	2023-01-16T00:00:00	2024-11-08T11:00:00	7	Dirección del viento	3.22
148371	7	Sololá	712	San Antonio Palopó	9	San Antonio Palopo	1	Enero	2023-01-16T00:00:00	2024-11-08T11:00:00	1	Precipitación	0
148372	7	Sololá	712	San Antonio Palopó	9	San Antonio Palopo	1	Enero	2023-01-16T00:00:00	2024-11-08T11:00:00	8	Radiación solar	665
148373	7	Sololá	712	San Antonio Palopó	9	San Antonio Palopo	1	Enero	2023-01-16T00:00:00	2024-11-08T12:00:00	2	Temperatura media	20.4
148374	7	Sololá	712	San Antonio Palopó	9	San Antonio Palopo	1	Enero	2023-01-16T00:00:00	2024-11-08T12:00:00	4	Temperatura máxima	20.7
148375	7	Sololá	712	San Antonio Palopó	9	San Antonio Palopo	1	Enero	2023-01-16T00:00:00	2024-11-08T12:00:00	3	Temperatura mínima	19.9
148376	7	Sololá	712	San Antonio Palopó	9	San Antonio Palopo	1	Enero	2023-01-16T00:00:00	2024-11-08T12:00:00	5	Humedad	60
148377	7	Sololá	712	San Antonio Palopó	9	San Antonio Palopo	1	Enero	2023-01-16T00:00:00	2024-11-08T12:00:00	6	Velocidad del viento	3.2
148378	7	Sololá	712	San Antonio Palopó	9	San Antonio Palopo	1	Enero	2023-01-16T00:00:00	2024-11-08T12:00:00	7	Dirección del viento	3.22
148379	7	Sololá	712	San Antonio Palopó	9	San Antonio Palopo	1	Enero	2023-01-16T00:00:00	2024-11-08T12:00:00	1	Precipitación	0
148380	7	Sololá	712	San Antonio Palopó	9	San Antonio Palopo	1	Enero	2023-01-16T00:00:00	2024-11-08T12:00:00	8	Radiación solar	647
148381	7	Sololá	712	San Antonio Palopó	9	San Antonio Palopo	1	Enero	2023-01-16T00:00:00	2024-11-08T13:00:00	2	Temperatura media	22.3
148382	7	Sololá	712	San Antonio Palopó	9	San Antonio Palopo	1	Enero	2023-01-16T00:00:00	2024-11-08T13:00:00	4	Temperatura máxima	22.3
148383	7	Sololá	712	San Antonio Palopó	9	San Antonio Palopo	1	Enero	2023-01-16T00:00:00	2024-11-08T13:00:00	3	Temperatura mínima	20.3
148384	7	Sololá	712	San Antonio Palopó	9	San Antonio Palopo	1	Enero	2023-01-16T00:00:00	2024-11-08T13:00:00	5	Humedad	65
148385	7	Sololá	712	San Antonio Palopó	9	San Antonio Palopo	1	Enero	2023-01-16T00:00:00	2024-11-08T13:00:00	6	Velocidad del viento	6.4
148386	7	Sololá	712	San Antonio Palopó	9	San Antonio Palopo	1	Enero	2023-01-16T00:00:00	2024-11-08T13:00:00	7	Dirección del viento	6.44
148387	7	Sololá	712	San Antonio Palopó	9	San Antonio Palopo	1	Enero	2023-01-16T00:00:00	2024-11-08T13:00:00	1	Precipitación	0
148388	7	Sololá	712	San Antonio Palopó	9	San Antonio Palopo	1	Enero	2023-01-16T00:00:00	2024-11-08T13:00:00	8	Radiación solar	740
148389	7	Sololá	712	San Antonio Palopó	9	San Antonio Palopo	1	Enero	2023-01-16T00:00:00	2024-11-08T14:00:00	2	Temperatura media	21.2
148390	7	Sololá	712	San Antonio Palopó	9	San Antonio Palopo	1	Enero	2023-01-16T00:00:00	2024-11-08T14:00:00	4	Temperatura máxima	22.3
148391	7	Sololá	712	San Antonio Palopó	9	San Antonio Palopo	1	Enero	2023-01-16T00:00:00	2024-11-08T14:00:00	3	Temperatura mínima	21.2
148392	7	Sololá	712	San Antonio Palopó	9	San Antonio Palopo	1	Enero	2023-01-16T00:00:00	2024-11-08T14:00:00	5	Humedad	72
148393	7	Sololá	712	San Antonio Palopó	9	San Antonio Palopo	1	Enero	2023-01-16T00:00:00	2024-11-08T14:00:00	6	Velocidad del viento	11.3
148394	7	Sololá	712	San Antonio Palopó	9	San Antonio Palopo	1	Enero	2023-01-16T00:00:00	2024-11-08T14:00:00	7	Dirección del viento	11.27
148395	7	Sololá	712	San Antonio Palopó	9	San Antonio Palopo	1	Enero	2023-01-16T00:00:00	2024-11-08T14:00:00	1	Precipitación	0
148396	7	Sololá	712	San Antonio Palopó	9	San Antonio Palopo	1	Enero	2023-01-16T00:00:00	2024-11-08T14:00:00	8	Radiación solar	724
148397	7	Sololá	712	San Antonio Palopó	9	San Antonio Palopo	1	Enero	2023-01-16T00:00:00	2024-11-08T15:00:00	2	Temperatura media	21.8
148398	7	Sololá	712	San Antonio Palopó	9	San Antonio Palopo	1	Enero	2023-01-16T00:00:00	2024-11-08T15:00:00	4	Temperatura máxima	22.3
148399	7	Sololá	712	San Antonio Palopó	9	San Antonio Palopo	1	Enero	2023-01-16T00:00:00	2024-11-08T15:00:00	3	Temperatura mínima	20.9
148400	7	Sololá	712	San Antonio Palopó	9	San Antonio Palopo	1	Enero	2023-01-16T00:00:00	2024-11-08T15:00:00	5	Humedad	68
148401	7	Sololá	712	San Antonio Palopó	9	San Antonio Palopo	1	Enero	2023-01-16T00:00:00	2024-11-08T15:00:00	6	Velocidad del viento	8
148402	7	Sololá	712	San Antonio Palopó	9	San Antonio Palopo	1	Enero	2023-01-16T00:00:00	2024-11-08T15:00:00	7	Dirección del viento	8.05
148403	7	Sololá	712	San Antonio Palopó	9	San Antonio Palopo	1	Enero	2023-01-16T00:00:00	2024-11-08T15:00:00	1	Precipitación	0
148404	7	Sololá	712	San Antonio Palopó	9	San Antonio Palopo	1	Enero	2023-01-16T00:00:00	2024-11-08T15:00:00	8	Radiación solar	592
148405	7	Sololá	712	San Antonio Palopó	9	San Antonio Palopo	1	Enero	2023-01-16T00:00:00	2024-11-08T16:00:00	2	Temperatura media	20.4
148406	7	Sololá	712	San Antonio Palopó	9	San Antonio Palopo	1	Enero	2023-01-16T00:00:00	2024-11-08T16:00:00	4	Temperatura máxima	21.9
148407	7	Sololá	712	San Antonio Palopó	9	San Antonio Palopo	1	Enero	2023-01-16T00:00:00	2024-11-08T16:00:00	3	Temperatura mínima	20.4
148408	7	Sololá	712	San Antonio Palopó	9	San Antonio Palopo	1	Enero	2023-01-16T00:00:00	2024-11-08T16:00:00	5	Humedad	74
148409	7	Sololá	712	San Antonio Palopó	9	San Antonio Palopo	1	Enero	2023-01-16T00:00:00	2024-11-08T16:00:00	6	Velocidad del viento	9.7
148410	7	Sololá	712	San Antonio Palopó	9	San Antonio Palopo	1	Enero	2023-01-16T00:00:00	2024-11-08T16:00:00	7	Dirección del viento	9.66
148411	7	Sololá	712	San Antonio Palopó	9	San Antonio Palopo	1	Enero	2023-01-16T00:00:00	2024-11-08T16:00:00	1	Precipitación	0
148412	7	Sololá	712	San Antonio Palopó	9	San Antonio Palopo	1	Enero	2023-01-16T00:00:00	2024-11-08T16:00:00	8	Radiación solar	306
148413	7	Sololá	712	San Antonio Palopó	9	San Antonio Palopo	1	Enero	2023-01-16T00:00:00	2024-11-08T17:00:00	2	Temperatura media	19.6
148414	7	Sololá	712	San Antonio Palopó	9	San Antonio Palopo	1	Enero	2023-01-16T00:00:00	2024-11-08T17:00:00	4	Temperatura máxima	20.4
148415	7	Sololá	712	San Antonio Palopó	9	San Antonio Palopo	1	Enero	2023-01-16T00:00:00	2024-11-08T17:00:00	3	Temperatura mínima	19.6
148416	7	Sololá	712	San Antonio Palopó	9	San Antonio Palopo	1	Enero	2023-01-16T00:00:00	2024-11-08T17:00:00	5	Humedad	79
148417	7	Sololá	712	San Antonio Palopó	9	San Antonio Palopo	1	Enero	2023-01-16T00:00:00	2024-11-08T17:00:00	6	Velocidad del viento	6.4
148418	7	Sololá	712	San Antonio Palopó	9	San Antonio Palopo	1	Enero	2023-01-16T00:00:00	2024-11-08T17:00:00	7	Dirección del viento	6.44
148419	7	Sololá	712	San Antonio Palopó	9	San Antonio Palopo	1	Enero	2023-01-16T00:00:00	2024-11-08T17:00:00	1	Precipitación	0
148420	7	Sololá	712	San Antonio Palopó	9	San Antonio Palopo	1	Enero	2023-01-16T00:00:00	2024-11-08T17:00:00	8	Radiación solar	97
148421	7	Sololá	712	San Antonio Palopó	9	San Antonio Palopo	1	Enero	2023-01-16T00:00:00	2024-11-08T18:00:00	2	Temperatura media	18.5
148422	7	Sololá	712	San Antonio Palopó	9	San Antonio Palopo	1	Enero	2023-01-16T00:00:00	2024-11-08T18:00:00	4	Temperatura máxima	19.6
148423	7	Sololá	712	San Antonio Palopó	9	San Antonio Palopo	1	Enero	2023-01-16T00:00:00	2024-11-08T18:00:00	3	Temperatura mínima	18.5
148424	7	Sololá	712	San Antonio Palopó	9	San Antonio Palopo	1	Enero	2023-01-16T00:00:00	2024-11-08T18:00:00	5	Humedad	82
148425	7	Sololá	712	San Antonio Palopó	9	San Antonio Palopo	1	Enero	2023-01-16T00:00:00	2024-11-08T18:00:00	6	Velocidad del viento	4.8
148426	7	Sololá	712	San Antonio Palopó	9	San Antonio Palopo	1	Enero	2023-01-16T00:00:00	2024-11-08T18:00:00	7	Dirección del viento	4.83
148427	7	Sololá	712	San Antonio Palopó	9	San Antonio Palopo	1	Enero	2023-01-16T00:00:00	2024-11-08T18:00:00	1	Precipitación	0
148428	7	Sololá	712	San Antonio Palopó	9	San Antonio Palopo	1	Enero	2023-01-16T00:00:00	2024-11-08T18:00:00	8	Radiación solar	16
148429	7	Sololá	712	San Antonio Palopó	9	San Antonio Palopo	1	Enero	2023-01-16T00:00:00	2024-11-08T19:00:00	2	Temperatura media	18.6
148430	7	Sololá	712	San Antonio Palopó	9	San Antonio Palopo	1	Enero	2023-01-16T00:00:00	2024-11-08T19:00:00	4	Temperatura máxima	18.6
148431	7	Sololá	712	San Antonio Palopó	9	San Antonio Palopo	1	Enero	2023-01-16T00:00:00	2024-11-08T19:00:00	3	Temperatura mínima	18.3
148432	7	Sololá	712	San Antonio Palopó	9	San Antonio Palopo	1	Enero	2023-01-16T00:00:00	2024-11-08T19:00:00	5	Humedad	81
148433	7	Sololá	712	San Antonio Palopó	9	San Antonio Palopo	1	Enero	2023-01-16T00:00:00	2024-11-08T19:00:00	6	Velocidad del viento	3.2
148434	7	Sololá	712	San Antonio Palopó	9	San Antonio Palopo	1	Enero	2023-01-16T00:00:00	2024-11-08T19:00:00	7	Dirección del viento	3.22
148435	7	Sololá	712	San Antonio Palopó	9	San Antonio Palopo	1	Enero	2023-01-16T00:00:00	2024-11-08T19:00:00	1	Precipitación	0
148436	7	Sololá	712	San Antonio Palopó	9	San Antonio Palopo	1	Enero	2023-01-16T00:00:00	2024-11-08T19:00:00	8	Radiación solar	0
148437	7	Sololá	712	San Antonio Palopó	9	San Antonio Palopo	1	Enero	2023-01-16T00:00:00	2024-11-08T20:00:00	2	Temperatura media	18.3
148438	7	Sololá	712	San Antonio Palopó	9	San Antonio Palopo	1	Enero	2023-01-16T00:00:00	2024-11-08T20:00:00	4	Temperatura máxima	18.7
148439	7	Sololá	712	San Antonio Palopó	9	San Antonio Palopo	1	Enero	2023-01-16T00:00:00	2024-11-08T20:00:00	3	Temperatura mínima	18.3
148440	7	Sololá	712	San Antonio Palopó	9	San Antonio Palopo	1	Enero	2023-01-16T00:00:00	2024-11-08T20:00:00	5	Humedad	83
148441	7	Sololá	712	San Antonio Palopó	9	San Antonio Palopo	1	Enero	2023-01-16T00:00:00	2024-11-08T20:00:00	6	Velocidad del viento	1.6
148442	7	Sololá	712	San Antonio Palopó	9	San Antonio Palopo	1	Enero	2023-01-16T00:00:00	2024-11-08T20:00:00	7	Dirección del viento	1.61
148443	7	Sololá	712	San Antonio Palopó	9	San Antonio Palopo	1	Enero	2023-01-16T00:00:00	2024-11-08T20:00:00	1	Precipitación	0
148444	7	Sololá	712	San Antonio Palopó	9	San Antonio Palopo	1	Enero	2023-01-16T00:00:00	2024-11-08T20:00:00	8	Radiación solar	0
148445	7	Sololá	712	San Antonio Palopó	9	San Antonio Palopo	1	Enero	2023-01-16T00:00:00	2024-11-08T21:00:00	2	Temperatura media	18.3
148446	7	Sololá	712	San Antonio Palopó	9	San Antonio Palopo	1	Enero	2023-01-16T00:00:00	2024-11-08T21:00:00	4	Temperatura máxima	18.4
148447	7	Sololá	712	San Antonio Palopó	9	San Antonio Palopo	1	Enero	2023-01-16T00:00:00	2024-11-08T21:00:00	3	Temperatura mínima	18.2
148448	7	Sololá	712	San Antonio Palopó	9	San Antonio Palopo	1	Enero	2023-01-16T00:00:00	2024-11-08T21:00:00	5	Humedad	80
148449	7	Sololá	712	San Antonio Palopó	9	San Antonio Palopo	1	Enero	2023-01-16T00:00:00	2024-11-08T21:00:00	6	Velocidad del viento	0
148450	7	Sololá	712	San Antonio Palopó	9	San Antonio Palopo	1	Enero	2023-01-16T00:00:00	2024-11-08T21:00:00	7	Dirección del viento	0
148451	7	Sololá	712	San Antonio Palopó	9	San Antonio Palopo	1	Enero	2023-01-16T00:00:00	2024-11-08T21:00:00	1	Precipitación	0
148452	7	Sololá	712	San Antonio Palopó	9	San Antonio Palopo	1	Enero	2023-01-16T00:00:00	2024-11-08T21:00:00	8	Radiación solar	0
148453	7	Sololá	712	San Antonio Palopó	9	San Antonio Palopo	1	Enero	2023-01-16T00:00:00	2024-11-08T22:00:00	2	Temperatura media	17.5
148454	7	Sololá	712	San Antonio Palopó	9	San Antonio Palopo	1	Enero	2023-01-16T00:00:00	2024-11-08T22:00:00	4	Temperatura máxima	18.4
148455	7	Sololá	712	San Antonio Palopó	9	San Antonio Palopo	1	Enero	2023-01-16T00:00:00	2024-11-08T22:00:00	3	Temperatura mínima	17.4
148456	7	Sololá	712	San Antonio Palopó	9	San Antonio Palopo	1	Enero	2023-01-16T00:00:00	2024-11-08T22:00:00	5	Humedad	79
148457	7	Sololá	712	San Antonio Palopó	9	San Antonio Palopo	1	Enero	2023-01-16T00:00:00	2024-11-08T22:00:00	6	Velocidad del viento	3.2
148458	7	Sololá	712	San Antonio Palopó	9	San Antonio Palopo	1	Enero	2023-01-16T00:00:00	2024-11-08T22:00:00	7	Dirección del viento	3.22
148459	7	Sololá	712	San Antonio Palopó	9	San Antonio Palopo	1	Enero	2023-01-16T00:00:00	2024-11-08T22:00:00	1	Precipitación	0
148460	7	Sololá	712	San Antonio Palopó	9	San Antonio Palopo	1	Enero	2023-01-16T00:00:00	2024-11-08T22:00:00	8	Radiación solar	0
148461	7	Sololá	712	San Antonio Palopó	9	San Antonio Palopo	1	Enero	2023-01-16T00:00:00	2024-11-08T23:00:00	2	Temperatura media	16.9
148462	7	Sololá	712	San Antonio Palopó	9	San Antonio Palopo	1	Enero	2023-01-16T00:00:00	2024-11-08T23:00:00	4	Temperatura máxima	17.6
148463	7	Sololá	712	San Antonio Palopó	9	San Antonio Palopo	1	Enero	2023-01-16T00:00:00	2024-11-08T23:00:00	3	Temperatura mínima	16.8
148464	7	Sololá	712	San Antonio Palopó	9	San Antonio Palopo	1	Enero	2023-01-16T00:00:00	2024-11-08T23:00:00	5	Humedad	81
148465	7	Sololá	712	San Antonio Palopó	9	San Antonio Palopo	1	Enero	2023-01-16T00:00:00	2024-11-08T23:00:00	6	Velocidad del viento	1.6
148466	7	Sololá	712	San Antonio Palopó	9	San Antonio Palopo	1	Enero	2023-01-16T00:00:00	2024-11-08T23:00:00	7	Dirección del viento	1.61
148467	7	Sololá	712	San Antonio Palopó	9	San Antonio Palopo	1	Enero	2023-01-16T00:00:00	2024-11-08T23:00:00	1	Precipitación	0
148468	7	Sololá	712	San Antonio Palopó	9	San Antonio Palopo	1	Enero	2023-01-16T00:00:00	2024-11-08T23:00:00	8	Radiación solar	0
148469	7	Sololá	712	San Antonio Palopó	9	San Antonio Palopo	1	Enero	2023-01-17T00:00:00	2024-11-08T00:00:00	2	Temperatura media	17.6
148470	7	Sololá	712	San Antonio Palopó	9	San Antonio Palopo	1	Enero	2023-01-17T00:00:00	2024-11-08T00:00:00	4	Temperatura máxima	17.6
148471	7	Sololá	712	San Antonio Palopó	9	San Antonio Palopo	1	Enero	2023-01-17T00:00:00	2024-11-08T00:00:00	3	Temperatura mínima	16.9
148472	7	Sololá	712	San Antonio Palopó	9	San Antonio Palopo	1	Enero	2023-01-17T00:00:00	2024-11-08T00:00:00	5	Humedad	82
148473	7	Sololá	712	San Antonio Palopó	9	San Antonio Palopo	1	Enero	2023-01-17T00:00:00	2024-11-08T00:00:00	6	Velocidad del viento	1.6
148474	7	Sololá	712	San Antonio Palopó	9	San Antonio Palopo	1	Enero	2023-01-17T00:00:00	2024-11-08T00:00:00	7	Dirección del viento	1.61
148475	7	Sololá	712	San Antonio Palopó	9	San Antonio Palopo	1	Enero	2023-01-17T00:00:00	2024-11-08T00:00:00	1	Precipitación	0
148476	7	Sololá	712	San Antonio Palopó	9	San Antonio Palopo	1	Enero	2023-01-17T00:00:00	2024-11-08T00:00:00	8	Radiación solar	0
148477	7	Sololá	712	San Antonio Palopó	9	San Antonio Palopo	1	Enero	2023-01-17T00:00:00	2024-11-08T01:00:00	2	Temperatura media	17.6
148478	7	Sololá	712	San Antonio Palopó	9	San Antonio Palopo	1	Enero	2023-01-17T00:00:00	2024-11-08T01:00:00	4	Temperatura máxima	17.6
148479	7	Sololá	712	San Antonio Palopó	9	San Antonio Palopo	1	Enero	2023-01-17T00:00:00	2024-11-08T01:00:00	3	Temperatura mínima	17.5
148480	7	Sololá	712	San Antonio Palopó	9	San Antonio Palopo	1	Enero	2023-01-17T00:00:00	2024-11-08T01:00:00	5	Humedad	80
148481	7	Sololá	712	San Antonio Palopó	9	San Antonio Palopo	1	Enero	2023-01-17T00:00:00	2024-11-08T01:00:00	6	Velocidad del viento	1.6
148482	7	Sololá	712	San Antonio Palopó	9	San Antonio Palopo	1	Enero	2023-01-17T00:00:00	2024-11-08T01:00:00	7	Dirección del viento	1.61
148483	7	Sololá	712	San Antonio Palopó	9	San Antonio Palopo	1	Enero	2023-01-17T00:00:00	2024-11-08T01:00:00	1	Precipitación	0
148484	7	Sololá	712	San Antonio Palopó	9	San Antonio Palopo	1	Enero	2023-01-17T00:00:00	2024-11-08T01:00:00	8	Radiación solar	0
148485	7	Sololá	712	San Antonio Palopó	9	San Antonio Palopo	1	Enero	2023-01-17T00:00:00	2024-11-08T02:00:00	2	Temperatura media	17.4
148486	7	Sololá	712	San Antonio Palopó	9	San Antonio Palopo	1	Enero	2023-01-17T00:00:00	2024-11-08T02:00:00	4	Temperatura máxima	17.7
148487	7	Sololá	712	San Antonio Palopó	9	San Antonio Palopo	1	Enero	2023-01-17T00:00:00	2024-11-08T02:00:00	3	Temperatura mínima	17.4
148488	7	Sololá	712	San Antonio Palopó	9	San Antonio Palopo	1	Enero	2023-01-17T00:00:00	2024-11-08T02:00:00	5	Humedad	83
148489	7	Sololá	712	San Antonio Palopó	9	San Antonio Palopo	1	Enero	2023-01-17T00:00:00	2024-11-08T02:00:00	6	Velocidad del viento	1.6
148490	7	Sololá	712	San Antonio Palopó	9	San Antonio Palopo	1	Enero	2023-01-17T00:00:00	2024-11-08T02:00:00	7	Dirección del viento	1.61
148491	7	Sololá	712	San Antonio Palopó	9	San Antonio Palopo	1	Enero	2023-01-17T00:00:00	2024-11-08T02:00:00	1	Precipitación	0
148492	7	Sololá	712	San Antonio Palopó	9	San Antonio Palopo	1	Enero	2023-01-17T00:00:00	2024-11-08T02:00:00	8	Radiación solar	0
148493	7	Sololá	712	San Antonio Palopó	9	San Antonio Palopo	1	Enero	2023-01-17T00:00:00	2024-11-08T03:00:00	2	Temperatura media	17.1
148494	7	Sololá	712	San Antonio Palopó	9	San Antonio Palopo	1	Enero	2023-01-17T00:00:00	2024-11-08T03:00:00	4	Temperatura máxima	17.4
148495	7	Sololá	712	San Antonio Palopó	9	San Antonio Palopo	1	Enero	2023-01-17T00:00:00	2024-11-08T03:00:00	3	Temperatura mínima	17.1
148496	7	Sololá	712	San Antonio Palopó	9	San Antonio Palopo	1	Enero	2023-01-17T00:00:00	2024-11-08T03:00:00	5	Humedad	84
148497	7	Sololá	712	San Antonio Palopó	9	San Antonio Palopo	1	Enero	2023-01-17T00:00:00	2024-11-08T03:00:00	6	Velocidad del viento	1.6
148498	7	Sololá	712	San Antonio Palopó	9	San Antonio Palopo	1	Enero	2023-01-17T00:00:00	2024-11-08T03:00:00	7	Dirección del viento	1.61
148499	7	Sololá	712	San Antonio Palopó	9	San Antonio Palopo	1	Enero	2023-01-17T00:00:00	2024-11-08T03:00:00	1	Precipitación	0
148500	7	Sololá	712	San Antonio Palopó	9	San Antonio Palopo	1	Enero	2023-01-17T00:00:00	2024-11-08T03:00:00	8	Radiación solar	0
148501	7	Sololá	712	San Antonio Palopó	9	San Antonio Palopo	1	Enero	2023-01-17T00:00:00	2024-11-08T04:00:00	2	Temperatura media	16.5
148502	7	Sololá	712	San Antonio Palopó	9	San Antonio Palopo	1	Enero	2023-01-17T00:00:00	2024-11-08T04:00:00	4	Temperatura máxima	17.1
148503	7	Sololá	712	San Antonio Palopó	9	San Antonio Palopo	1	Enero	2023-01-17T00:00:00	2024-11-08T04:00:00	3	Temperatura mínima	16.3
148504	7	Sololá	712	San Antonio Palopó	9	San Antonio Palopo	1	Enero	2023-01-17T00:00:00	2024-11-08T04:00:00	5	Humedad	82
148505	7	Sololá	712	San Antonio Palopó	9	San Antonio Palopo	1	Enero	2023-01-17T00:00:00	2024-11-08T04:00:00	6	Velocidad del viento	1.6
148506	7	Sololá	712	San Antonio Palopó	9	San Antonio Palopo	1	Enero	2023-01-17T00:00:00	2024-11-08T04:00:00	7	Dirección del viento	1.61
148507	7	Sololá	712	San Antonio Palopó	9	San Antonio Palopo	1	Enero	2023-01-17T00:00:00	2024-11-08T04:00:00	1	Precipitación	0
148508	7	Sololá	712	San Antonio Palopó	9	San Antonio Palopo	1	Enero	2023-01-17T00:00:00	2024-11-08T04:00:00	8	Radiación solar	0
148509	7	Sololá	712	San Antonio Palopó	9	San Antonio Palopo	1	Enero	2023-01-17T00:00:00	2024-11-08T05:00:00	2	Temperatura media	15.8
148510	7	Sololá	712	San Antonio Palopó	9	San Antonio Palopo	1	Enero	2023-01-17T00:00:00	2024-11-08T05:00:00	4	Temperatura máxima	16.6
148511	7	Sololá	712	San Antonio Palopó	9	San Antonio Palopo	1	Enero	2023-01-17T00:00:00	2024-11-08T05:00:00	3	Temperatura mínima	15.8
148512	7	Sololá	712	San Antonio Palopó	9	San Antonio Palopo	1	Enero	2023-01-17T00:00:00	2024-11-08T05:00:00	5	Humedad	80
148513	7	Sololá	712	San Antonio Palopó	9	San Antonio Palopo	1	Enero	2023-01-17T00:00:00	2024-11-08T05:00:00	6	Velocidad del viento	3.2
148514	7	Sololá	712	San Antonio Palopó	9	San Antonio Palopo	1	Enero	2023-01-17T00:00:00	2024-11-08T05:00:00	7	Dirección del viento	3.22
148515	7	Sololá	712	San Antonio Palopó	9	San Antonio Palopo	1	Enero	2023-01-17T00:00:00	2024-11-08T05:00:00	1	Precipitación	0
148516	7	Sololá	712	San Antonio Palopó	9	San Antonio Palopo	1	Enero	2023-01-17T00:00:00	2024-11-08T05:00:00	8	Radiación solar	0
148517	7	Sololá	712	San Antonio Palopó	9	San Antonio Palopo	1	Enero	2023-01-17T00:00:00	2024-11-08T06:00:00	2	Temperatura media	15.3
148518	7	Sololá	712	San Antonio Palopó	9	San Antonio Palopo	1	Enero	2023-01-17T00:00:00	2024-11-08T06:00:00	4	Temperatura máxima	15.8
148519	7	Sololá	712	San Antonio Palopó	9	San Antonio Palopo	1	Enero	2023-01-17T00:00:00	2024-11-08T06:00:00	3	Temperatura mínima	15.3
148520	7	Sololá	712	San Antonio Palopó	9	San Antonio Palopo	1	Enero	2023-01-17T00:00:00	2024-11-08T06:00:00	5	Humedad	81
148521	7	Sololá	712	San Antonio Palopó	9	San Antonio Palopo	1	Enero	2023-01-17T00:00:00	2024-11-08T06:00:00	6	Velocidad del viento	3.2
148522	7	Sololá	712	San Antonio Palopó	9	San Antonio Palopo	1	Enero	2023-01-17T00:00:00	2024-11-08T06:00:00	7	Dirección del viento	3.22
148523	7	Sololá	712	San Antonio Palopó	9	San Antonio Palopo	1	Enero	2023-01-17T00:00:00	2024-11-08T06:00:00	1	Precipitación	0
148524	7	Sololá	712	San Antonio Palopó	9	San Antonio Palopo	1	Enero	2023-01-17T00:00:00	2024-11-08T06:00:00	8	Radiación solar	0
148525	7	Sololá	712	San Antonio Palopó	9	San Antonio Palopo	1	Enero	2023-01-17T00:00:00	2024-11-08T07:00:00	2	Temperatura media	14.8
148526	7	Sololá	712	San Antonio Palopó	9	San Antonio Palopo	1	Enero	2023-01-17T00:00:00	2024-11-08T07:00:00	4	Temperatura máxima	15.5
148527	7	Sololá	712	San Antonio Palopó	9	San Antonio Palopo	1	Enero	2023-01-17T00:00:00	2024-11-08T07:00:00	3	Temperatura mínima	14.8
148528	7	Sololá	712	San Antonio Palopó	9	San Antonio Palopo	1	Enero	2023-01-17T00:00:00	2024-11-08T07:00:00	5	Humedad	79
148529	7	Sololá	712	San Antonio Palopó	9	San Antonio Palopo	1	Enero	2023-01-17T00:00:00	2024-11-08T07:00:00	6	Velocidad del viento	4.8
148530	7	Sololá	712	San Antonio Palopó	9	San Antonio Palopo	1	Enero	2023-01-17T00:00:00	2024-11-08T07:00:00	7	Dirección del viento	4.83
148531	7	Sololá	712	San Antonio Palopó	9	San Antonio Palopo	1	Enero	2023-01-17T00:00:00	2024-11-08T07:00:00	1	Precipitación	0
148532	7	Sololá	712	San Antonio Palopó	9	San Antonio Palopo	1	Enero	2023-01-17T00:00:00	2024-11-08T07:00:00	8	Radiación solar	4
148533	7	Sololá	712	San Antonio Palopó	9	San Antonio Palopo	1	Enero	2023-01-17T00:00:00	2024-11-08T08:00:00	2	Temperatura media	14.9
148534	7	Sololá	712	San Antonio Palopó	9	San Antonio Palopo	1	Enero	2023-01-17T00:00:00	2024-11-08T08:00:00	4	Temperatura máxima	15.2
148535	7	Sololá	712	San Antonio Palopó	9	San Antonio Palopo	1	Enero	2023-01-17T00:00:00	2024-11-08T08:00:00	3	Temperatura mínima	14.8
148536	7	Sololá	712	San Antonio Palopó	9	San Antonio Palopo	1	Enero	2023-01-17T00:00:00	2024-11-08T08:00:00	5	Humedad	82
148537	7	Sololá	712	San Antonio Palopó	9	San Antonio Palopo	1	Enero	2023-01-17T00:00:00	2024-11-08T08:00:00	6	Velocidad del viento	3.2
148538	7	Sololá	712	San Antonio Palopó	9	San Antonio Palopo	1	Enero	2023-01-17T00:00:00	2024-11-08T08:00:00	7	Dirección del viento	3.22
148539	7	Sololá	712	San Antonio Palopó	9	San Antonio Palopo	1	Enero	2023-01-17T00:00:00	2024-11-08T08:00:00	1	Precipitación	0
148540	7	Sololá	712	San Antonio Palopó	9	San Antonio Palopo	1	Enero	2023-01-17T00:00:00	2024-11-08T08:00:00	8	Radiación solar	31
148541	7	Sololá	712	San Antonio Palopó	9	San Antonio Palopo	1	Enero	2023-01-17T00:00:00	2024-11-08T09:00:00	2	Temperatura media	16.8
148542	7	Sololá	712	San Antonio Palopó	9	San Antonio Palopo	1	Enero	2023-01-17T00:00:00	2024-11-08T09:00:00	4	Temperatura máxima	16.8
148543	7	Sololá	712	San Antonio Palopó	9	San Antonio Palopo	1	Enero	2023-01-17T00:00:00	2024-11-08T09:00:00	3	Temperatura mínima	14.9
148544	7	Sololá	712	San Antonio Palopó	9	San Antonio Palopo	1	Enero	2023-01-17T00:00:00	2024-11-08T09:00:00	5	Humedad	80
148545	7	Sololá	712	San Antonio Palopó	9	San Antonio Palopo	1	Enero	2023-01-17T00:00:00	2024-11-08T09:00:00	6	Velocidad del viento	3.2
148546	7	Sololá	712	San Antonio Palopó	9	San Antonio Palopo	1	Enero	2023-01-17T00:00:00	2024-11-08T09:00:00	7	Dirección del viento	3.22
148547	7	Sololá	712	San Antonio Palopó	9	San Antonio Palopo	1	Enero	2023-01-17T00:00:00	2024-11-08T09:00:00	1	Precipitación	0
148548	7	Sololá	712	San Antonio Palopó	9	San Antonio Palopo	1	Enero	2023-01-17T00:00:00	2024-11-08T09:00:00	8	Radiación solar	137
148549	7	Sololá	712	San Antonio Palopó	9	San Antonio Palopo	1	Enero	2023-01-17T00:00:00	2024-11-08T10:00:00	2	Temperatura media	18.4
148550	7	Sololá	712	San Antonio Palopó	9	San Antonio Palopo	1	Enero	2023-01-17T00:00:00	2024-11-08T10:00:00	4	Temperatura máxima	18.9
148551	7	Sololá	712	San Antonio Palopó	9	San Antonio Palopo	1	Enero	2023-01-17T00:00:00	2024-11-08T10:00:00	3	Temperatura mínima	16.7
148552	7	Sololá	712	San Antonio Palopó	9	San Antonio Palopo	1	Enero	2023-01-17T00:00:00	2024-11-08T10:00:00	5	Humedad	76
148553	7	Sololá	712	San Antonio Palopó	9	San Antonio Palopo	1	Enero	2023-01-17T00:00:00	2024-11-08T10:00:00	6	Velocidad del viento	3.2
148554	7	Sololá	712	San Antonio Palopó	9	San Antonio Palopo	1	Enero	2023-01-17T00:00:00	2024-11-08T10:00:00	7	Dirección del viento	3.22
148555	7	Sololá	712	San Antonio Palopó	9	San Antonio Palopo	1	Enero	2023-01-17T00:00:00	2024-11-08T10:00:00	1	Precipitación	0
148556	7	Sololá	712	San Antonio Palopó	9	San Antonio Palopo	1	Enero	2023-01-17T00:00:00	2024-11-08T10:00:00	8	Radiación solar	472
148557	7	Sololá	712	San Antonio Palopó	9	San Antonio Palopo	1	Enero	2023-01-17T00:00:00	2024-11-08T11:00:00	2	Temperatura media	19.8
148558	7	Sololá	712	San Antonio Palopó	9	San Antonio Palopo	1	Enero	2023-01-17T00:00:00	2024-11-08T11:00:00	4	Temperatura máxima	19.9
148559	7	Sololá	712	San Antonio Palopó	9	San Antonio Palopo	1	Enero	2023-01-17T00:00:00	2024-11-08T11:00:00	3	Temperatura mínima	18.3
148560	7	Sololá	712	San Antonio Palopó	9	San Antonio Palopo	1	Enero	2023-01-17T00:00:00	2024-11-08T11:00:00	5	Humedad	70
148561	7	Sololá	712	San Antonio Palopó	9	San Antonio Palopo	1	Enero	2023-01-17T00:00:00	2024-11-08T11:00:00	6	Velocidad del viento	3.2
148562	7	Sololá	712	San Antonio Palopó	9	San Antonio Palopo	1	Enero	2023-01-17T00:00:00	2024-11-08T11:00:00	7	Dirección del viento	3.22
148563	7	Sololá	712	San Antonio Palopó	9	San Antonio Palopo	1	Enero	2023-01-17T00:00:00	2024-11-08T11:00:00	1	Precipitación	0
148564	7	Sololá	712	San Antonio Palopó	9	San Antonio Palopo	1	Enero	2023-01-17T00:00:00	2024-11-08T11:00:00	8	Radiación solar	627
148565	7	Sololá	712	San Antonio Palopó	9	San Antonio Palopo	1	Enero	2023-01-17T00:00:00	2024-11-08T12:00:00	2	Temperatura media	21.3
148566	7	Sololá	712	San Antonio Palopó	9	San Antonio Palopo	1	Enero	2023-01-17T00:00:00	2024-11-08T12:00:00	4	Temperatura máxima	21.3
148567	7	Sololá	712	San Antonio Palopó	9	San Antonio Palopo	1	Enero	2023-01-17T00:00:00	2024-11-08T12:00:00	3	Temperatura mínima	19.8
148568	7	Sololá	712	San Antonio Palopó	9	San Antonio Palopo	1	Enero	2023-01-17T00:00:00	2024-11-08T12:00:00	5	Humedad	66
148569	7	Sololá	712	San Antonio Palopó	9	San Antonio Palopo	1	Enero	2023-01-17T00:00:00	2024-11-08T12:00:00	6	Velocidad del viento	4.8
148570	7	Sololá	712	San Antonio Palopó	9	San Antonio Palopo	1	Enero	2023-01-17T00:00:00	2024-11-08T12:00:00	7	Dirección del viento	4.83
148571	7	Sololá	712	San Antonio Palopó	9	San Antonio Palopo	1	Enero	2023-01-17T00:00:00	2024-11-08T12:00:00	1	Precipitación	0
148572	7	Sololá	712	San Antonio Palopó	9	San Antonio Palopo	1	Enero	2023-01-17T00:00:00	2024-11-08T12:00:00	8	Radiación solar	635
148573	7	Sololá	712	San Antonio Palopó	9	San Antonio Palopo	1	Enero	2023-01-17T00:00:00	2024-11-08T13:00:00	2	Temperatura media	20.9
148574	7	Sololá	712	San Antonio Palopó	9	San Antonio Palopo	1	Enero	2023-01-17T00:00:00	2024-11-08T13:00:00	4	Temperatura máxima	21.4
148575	7	Sololá	712	San Antonio Palopó	9	San Antonio Palopo	1	Enero	2023-01-17T00:00:00	2024-11-08T13:00:00	3	Temperatura mínima	20.7
148576	7	Sololá	712	San Antonio Palopó	9	San Antonio Palopo	1	Enero	2023-01-17T00:00:00	2024-11-08T13:00:00	5	Humedad	72
148577	7	Sololá	712	San Antonio Palopó	9	San Antonio Palopo	1	Enero	2023-01-17T00:00:00	2024-11-08T13:00:00	6	Velocidad del viento	11.3
148578	7	Sololá	712	San Antonio Palopó	9	San Antonio Palopo	1	Enero	2023-01-17T00:00:00	2024-11-08T13:00:00	7	Dirección del viento	11.27
148579	7	Sololá	712	San Antonio Palopó	9	San Antonio Palopo	1	Enero	2023-01-17T00:00:00	2024-11-08T13:00:00	1	Precipitación	0
148580	7	Sololá	712	San Antonio Palopó	9	San Antonio Palopo	1	Enero	2023-01-17T00:00:00	2024-11-08T13:00:00	8	Radiación solar	621
148581	7	Sololá	712	San Antonio Palopó	9	San Antonio Palopo	1	Enero	2023-01-17T00:00:00	2024-11-08T14:00:00	2	Temperatura media	21.6
148582	7	Sololá	712	San Antonio Palopó	9	San Antonio Palopo	1	Enero	2023-01-17T00:00:00	2024-11-08T14:00:00	4	Temperatura máxima	21.6
148583	7	Sololá	712	San Antonio Palopó	9	San Antonio Palopo	1	Enero	2023-01-17T00:00:00	2024-11-08T14:00:00	3	Temperatura mínima	20.7
148584	7	Sololá	712	San Antonio Palopó	9	San Antonio Palopo	1	Enero	2023-01-17T00:00:00	2024-11-08T14:00:00	5	Humedad	72
148585	7	Sololá	712	San Antonio Palopó	9	San Antonio Palopo	1	Enero	2023-01-17T00:00:00	2024-11-08T14:00:00	6	Velocidad del viento	9.7
148586	7	Sololá	712	San Antonio Palopó	9	San Antonio Palopo	1	Enero	2023-01-17T00:00:00	2024-11-08T14:00:00	7	Dirección del viento	9.66
148587	7	Sololá	712	San Antonio Palopó	9	San Antonio Palopo	1	Enero	2023-01-17T00:00:00	2024-11-08T14:00:00	1	Precipitación	0
148588	7	Sololá	712	San Antonio Palopó	9	San Antonio Palopo	1	Enero	2023-01-17T00:00:00	2024-11-08T14:00:00	8	Radiación solar	515
148589	7	Sololá	712	San Antonio Palopó	9	San Antonio Palopo	1	Enero	2023-01-17T00:00:00	2024-11-08T15:00:00	2	Temperatura media	20.1
148590	7	Sololá	712	San Antonio Palopó	9	San Antonio Palopo	1	Enero	2023-01-17T00:00:00	2024-11-08T15:00:00	4	Temperatura máxima	21.6
148591	7	Sololá	712	San Antonio Palopó	9	San Antonio Palopo	1	Enero	2023-01-17T00:00:00	2024-11-08T15:00:00	3	Temperatura mínima	19.8
148592	7	Sololá	712	San Antonio Palopó	9	San Antonio Palopo	1	Enero	2023-01-17T00:00:00	2024-11-08T15:00:00	5	Humedad	77
148593	7	Sololá	712	San Antonio Palopó	9	San Antonio Palopo	1	Enero	2023-01-17T00:00:00	2024-11-08T15:00:00	6	Velocidad del viento	9.7
148594	7	Sololá	712	San Antonio Palopó	9	San Antonio Palopo	1	Enero	2023-01-17T00:00:00	2024-11-08T15:00:00	7	Dirección del viento	9.66
148595	7	Sololá	712	San Antonio Palopó	9	San Antonio Palopo	1	Enero	2023-01-17T00:00:00	2024-11-08T15:00:00	1	Precipitación	0
148596	7	Sololá	712	San Antonio Palopó	9	San Antonio Palopo	1	Enero	2023-01-17T00:00:00	2024-11-08T15:00:00	8	Radiación solar	315
148597	7	Sololá	712	San Antonio Palopó	9	San Antonio Palopo	1	Enero	2023-01-17T00:00:00	2024-11-08T16:00:00	2	Temperatura media	19.3
148598	7	Sololá	712	San Antonio Palopó	9	San Antonio Palopo	1	Enero	2023-01-17T00:00:00	2024-11-08T16:00:00	4	Temperatura máxima	20.1
148599	7	Sololá	712	San Antonio Palopó	9	San Antonio Palopo	1	Enero	2023-01-17T00:00:00	2024-11-08T16:00:00	3	Temperatura mínima	19.2
148600	7	Sololá	712	San Antonio Palopó	9	San Antonio Palopo	1	Enero	2023-01-17T00:00:00	2024-11-08T16:00:00	5	Humedad	79
148601	7	Sololá	712	San Antonio Palopó	9	San Antonio Palopo	1	Enero	2023-01-17T00:00:00	2024-11-08T16:00:00	6	Velocidad del viento	11.3
148602	7	Sololá	712	San Antonio Palopó	9	San Antonio Palopo	1	Enero	2023-01-17T00:00:00	2024-11-08T16:00:00	7	Dirección del viento	11.27
148603	7	Sololá	712	San Antonio Palopó	9	San Antonio Palopo	1	Enero	2023-01-17T00:00:00	2024-11-08T16:00:00	1	Precipitación	0
148604	7	Sololá	712	San Antonio Palopó	9	San Antonio Palopo	1	Enero	2023-01-17T00:00:00	2024-11-08T16:00:00	8	Radiación solar	167
148605	7	Sololá	712	San Antonio Palopó	9	San Antonio Palopo	1	Enero	2023-01-17T00:00:00	2024-11-08T17:00:00	2	Temperatura media	18.8
148606	7	Sololá	712	San Antonio Palopó	9	San Antonio Palopo	1	Enero	2023-01-17T00:00:00	2024-11-08T17:00:00	4	Temperatura máxima	19.9
148607	7	Sololá	712	San Antonio Palopó	9	San Antonio Palopo	1	Enero	2023-01-17T00:00:00	2024-11-08T17:00:00	3	Temperatura mínima	18.8
148608	7	Sololá	712	San Antonio Palopó	9	San Antonio Palopo	1	Enero	2023-01-17T00:00:00	2024-11-08T17:00:00	5	Humedad	81
148609	7	Sololá	712	San Antonio Palopó	9	San Antonio Palopo	1	Enero	2023-01-17T00:00:00	2024-11-08T17:00:00	6	Velocidad del viento	9.7
148610	7	Sololá	712	San Antonio Palopó	9	San Antonio Palopo	1	Enero	2023-01-17T00:00:00	2024-11-08T17:00:00	7	Dirección del viento	9.66
148611	7	Sololá	712	San Antonio Palopó	9	San Antonio Palopo	1	Enero	2023-01-17T00:00:00	2024-11-08T17:00:00	1	Precipitación	0
148612	7	Sololá	712	San Antonio Palopó	9	San Antonio Palopo	1	Enero	2023-01-17T00:00:00	2024-11-08T17:00:00	8	Radiación solar	178
148613	7	Sololá	712	San Antonio Palopó	9	San Antonio Palopo	1	Enero	2023-01-17T00:00:00	2024-11-08T18:00:00	2	Temperatura media	18.2
148614	7	Sololá	712	San Antonio Palopó	9	San Antonio Palopo	1	Enero	2023-01-17T00:00:00	2024-11-08T18:00:00	4	Temperatura máxima	18.8
148615	7	Sololá	712	San Antonio Palopó	9	San Antonio Palopo	1	Enero	2023-01-17T00:00:00	2024-11-08T18:00:00	3	Temperatura mínima	18.1
148616	7	Sololá	712	San Antonio Palopó	9	San Antonio Palopo	1	Enero	2023-01-17T00:00:00	2024-11-08T18:00:00	5	Humedad	83
148617	7	Sololá	712	San Antonio Palopó	9	San Antonio Palopo	1	Enero	2023-01-17T00:00:00	2024-11-08T18:00:00	6	Velocidad del viento	8
148618	7	Sololá	712	San Antonio Palopó	9	San Antonio Palopo	1	Enero	2023-01-17T00:00:00	2024-11-08T18:00:00	7	Dirección del viento	8.05
148619	7	Sololá	712	San Antonio Palopó	9	San Antonio Palopo	1	Enero	2023-01-17T00:00:00	2024-11-08T18:00:00	1	Precipitación	0
148620	7	Sololá	712	San Antonio Palopó	9	San Antonio Palopo	1	Enero	2023-01-17T00:00:00	2024-11-08T18:00:00	8	Radiación solar	26
148621	7	Sololá	712	San Antonio Palopó	9	San Antonio Palopo	1	Enero	2023-01-17T00:00:00	2024-11-08T19:00:00	2	Temperatura media	17.2
148622	7	Sololá	712	San Antonio Palopó	9	San Antonio Palopo	1	Enero	2023-01-17T00:00:00	2024-11-08T19:00:00	4	Temperatura máxima	18.2
148623	7	Sololá	712	San Antonio Palopó	9	San Antonio Palopo	1	Enero	2023-01-17T00:00:00	2024-11-08T19:00:00	3	Temperatura mínima	17.2
148624	7	Sololá	712	San Antonio Palopó	9	San Antonio Palopo	1	Enero	2023-01-17T00:00:00	2024-11-08T19:00:00	5	Humedad	81
148625	7	Sololá	712	San Antonio Palopó	9	San Antonio Palopo	1	Enero	2023-01-17T00:00:00	2024-11-08T19:00:00	6	Velocidad del viento	3.2
148626	7	Sololá	712	San Antonio Palopó	9	San Antonio Palopo	1	Enero	2023-01-17T00:00:00	2024-11-08T19:00:00	7	Dirección del viento	3.22
148627	7	Sololá	712	San Antonio Palopó	9	San Antonio Palopo	1	Enero	2023-01-17T00:00:00	2024-11-08T19:00:00	1	Precipitación	0
148628	7	Sololá	712	San Antonio Palopó	9	San Antonio Palopo	1	Enero	2023-01-17T00:00:00	2024-11-08T19:00:00	8	Radiación solar	0
148629	7	Sololá	712	San Antonio Palopó	9	San Antonio Palopo	1	Enero	2023-01-17T00:00:00	2024-11-08T20:00:00	2	Temperatura media	16.8
148630	7	Sololá	712	San Antonio Palopó	9	San Antonio Palopo	1	Enero	2023-01-17T00:00:00	2024-11-08T20:00:00	4	Temperatura máxima	17.3
148631	7	Sololá	712	San Antonio Palopó	9	San Antonio Palopo	1	Enero	2023-01-17T00:00:00	2024-11-08T20:00:00	3	Temperatura mínima	16.7
148632	7	Sololá	712	San Antonio Palopó	9	San Antonio Palopo	1	Enero	2023-01-17T00:00:00	2024-11-08T20:00:00	5	Humedad	81
148633	7	Sololá	712	San Antonio Palopó	9	San Antonio Palopo	1	Enero	2023-01-17T00:00:00	2024-11-08T20:00:00	6	Velocidad del viento	3.2
148634	7	Sololá	712	San Antonio Palopó	9	San Antonio Palopo	1	Enero	2023-01-17T00:00:00	2024-11-08T20:00:00	7	Dirección del viento	3.22
148635	7	Sololá	712	San Antonio Palopó	9	San Antonio Palopo	1	Enero	2023-01-17T00:00:00	2024-11-08T20:00:00	1	Precipitación	0
148636	7	Sololá	712	San Antonio Palopó	9	San Antonio Palopo	1	Enero	2023-01-17T00:00:00	2024-11-08T20:00:00	8	Radiación solar	0
148637	7	Sololá	712	San Antonio Palopó	9	San Antonio Palopo	1	Enero	2023-01-17T00:00:00	2024-11-08T21:00:00	2	Temperatura media	16.6
148638	7	Sololá	712	San Antonio Palopó	9	San Antonio Palopo	1	Enero	2023-01-17T00:00:00	2024-11-08T21:00:00	4	Temperatura máxima	16.7
148639	7	Sololá	712	San Antonio Palopó	9	San Antonio Palopo	1	Enero	2023-01-17T00:00:00	2024-11-08T21:00:00	3	Temperatura mínima	16.5
148640	7	Sololá	712	San Antonio Palopó	9	San Antonio Palopo	1	Enero	2023-01-17T00:00:00	2024-11-08T21:00:00	5	Humedad	81
148641	7	Sololá	712	San Antonio Palopó	9	San Antonio Palopo	1	Enero	2023-01-17T00:00:00	2024-11-08T21:00:00	6	Velocidad del viento	3.2
148642	7	Sololá	712	San Antonio Palopó	9	San Antonio Palopo	1	Enero	2023-01-17T00:00:00	2024-11-08T21:00:00	7	Dirección del viento	3.22
148643	7	Sololá	712	San Antonio Palopó	9	San Antonio Palopo	1	Enero	2023-01-17T00:00:00	2024-11-08T21:00:00	1	Precipitación	0
148644	7	Sololá	712	San Antonio Palopó	9	San Antonio Palopo	1	Enero	2023-01-17T00:00:00	2024-11-08T21:00:00	8	Radiación solar	0
148645	7	Sololá	712	San Antonio Palopó	9	San Antonio Palopo	1	Enero	2023-01-17T00:00:00	2024-11-08T22:00:00	2	Temperatura media	15.9
148646	7	Sololá	712	San Antonio Palopó	9	San Antonio Palopo	1	Enero	2023-01-17T00:00:00	2024-11-08T22:00:00	4	Temperatura máxima	16.6
148647	7	Sololá	712	San Antonio Palopó	9	San Antonio Palopo	1	Enero	2023-01-17T00:00:00	2024-11-08T22:00:00	3	Temperatura mínima	15.9
148648	7	Sololá	712	San Antonio Palopó	9	San Antonio Palopo	1	Enero	2023-01-17T00:00:00	2024-11-08T22:00:00	5	Humedad	83
148649	7	Sololá	712	San Antonio Palopó	9	San Antonio Palopo	1	Enero	2023-01-17T00:00:00	2024-11-08T22:00:00	6	Velocidad del viento	3.2
148650	7	Sololá	712	San Antonio Palopó	9	San Antonio Palopo	1	Enero	2023-01-17T00:00:00	2024-11-08T22:00:00	7	Dirección del viento	3.22
148651	7	Sololá	712	San Antonio Palopó	9	San Antonio Palopo	1	Enero	2023-01-17T00:00:00	2024-11-08T22:00:00	1	Precipitación	0
148652	7	Sololá	712	San Antonio Palopó	9	San Antonio Palopo	1	Enero	2023-01-17T00:00:00	2024-11-08T22:00:00	8	Radiación solar	0
148653	7	Sololá	712	San Antonio Palopó	9	San Antonio Palopo	1	Enero	2023-01-17T00:00:00	2024-11-08T23:00:00	2	Temperatura media	16.5
148654	7	Sololá	712	San Antonio Palopó	9	San Antonio Palopo	1	Enero	2023-01-17T00:00:00	2024-11-08T23:00:00	4	Temperatura máxima	16.5
148655	7	Sololá	712	San Antonio Palopó	9	San Antonio Palopo	1	Enero	2023-01-17T00:00:00	2024-11-08T23:00:00	3	Temperatura mínima	15.8
148656	7	Sololá	712	San Antonio Palopó	9	San Antonio Palopo	1	Enero	2023-01-17T00:00:00	2024-11-08T23:00:00	5	Humedad	83
148657	7	Sololá	712	San Antonio Palopó	9	San Antonio Palopo	1	Enero	2023-01-17T00:00:00	2024-11-08T23:00:00	6	Velocidad del viento	3.2
148658	7	Sololá	712	San Antonio Palopó	9	San Antonio Palopo	1	Enero	2023-01-17T00:00:00	2024-11-08T23:00:00	7	Dirección del viento	3.22
148659	7	Sololá	712	San Antonio Palopó	9	San Antonio Palopo	1	Enero	2023-01-17T00:00:00	2024-11-08T23:00:00	1	Precipitación	0
148660	7	Sololá	712	San Antonio Palopó	9	San Antonio Palopo	1	Enero	2023-01-17T00:00:00	2024-11-08T23:00:00	8	Radiación solar	0
148661	7	Sololá	712	San Antonio Palopó	9	San Antonio Palopo	1	Enero	2023-01-18T00:00:00	2024-11-08T00:00:00	2	Temperatura media	17
148662	7	Sololá	712	San Antonio Palopó	9	San Antonio Palopo	1	Enero	2023-01-18T00:00:00	2024-11-08T00:00:00	4	Temperatura máxima	17.1
148663	7	Sololá	712	San Antonio Palopó	9	San Antonio Palopo	1	Enero	2023-01-18T00:00:00	2024-11-08T00:00:00	3	Temperatura mínima	16.5
148664	7	Sololá	712	San Antonio Palopó	9	San Antonio Palopo	1	Enero	2023-01-18T00:00:00	2024-11-08T00:00:00	5	Humedad	86
148665	7	Sololá	712	San Antonio Palopó	9	San Antonio Palopo	1	Enero	2023-01-18T00:00:00	2024-11-08T00:00:00	6	Velocidad del viento	0
148666	7	Sololá	712	San Antonio Palopó	9	San Antonio Palopo	1	Enero	2023-01-18T00:00:00	2024-11-08T00:00:00	7	Dirección del viento	0
148667	7	Sololá	712	San Antonio Palopó	9	San Antonio Palopo	1	Enero	2023-01-18T00:00:00	2024-11-08T00:00:00	1	Precipitación	0
148668	7	Sololá	712	San Antonio Palopó	9	San Antonio Palopo	1	Enero	2023-01-18T00:00:00	2024-11-08T00:00:00	8	Radiación solar	0
148669	7	Sololá	712	San Antonio Palopó	9	San Antonio Palopo	1	Enero	2023-01-18T00:00:00	2024-11-08T01:00:00	2	Temperatura media	16.5
148670	7	Sololá	712	San Antonio Palopó	9	San Antonio Palopo	1	Enero	2023-01-18T00:00:00	2024-11-08T01:00:00	4	Temperatura máxima	17.1
148671	7	Sololá	712	San Antonio Palopó	9	San Antonio Palopo	1	Enero	2023-01-18T00:00:00	2024-11-08T01:00:00	3	Temperatura mínima	16.5
148672	7	Sololá	712	San Antonio Palopó	9	San Antonio Palopo	1	Enero	2023-01-18T00:00:00	2024-11-08T01:00:00	5	Humedad	89
148673	7	Sololá	712	San Antonio Palopó	9	San Antonio Palopo	1	Enero	2023-01-18T00:00:00	2024-11-08T01:00:00	6	Velocidad del viento	3.2
148674	7	Sololá	712	San Antonio Palopó	9	San Antonio Palopo	1	Enero	2023-01-18T00:00:00	2024-11-08T01:00:00	7	Dirección del viento	3.22
148675	7	Sololá	712	San Antonio Palopó	9	San Antonio Palopo	1	Enero	2023-01-18T00:00:00	2024-11-08T01:00:00	1	Precipitación	0
148676	7	Sololá	712	San Antonio Palopó	9	San Antonio Palopo	1	Enero	2023-01-18T00:00:00	2024-11-08T01:00:00	8	Radiación solar	0
148677	7	Sololá	712	San Antonio Palopó	9	San Antonio Palopo	1	Enero	2023-01-18T00:00:00	2024-11-08T02:00:00	2	Temperatura media	15.5
148678	7	Sololá	712	San Antonio Palopó	9	San Antonio Palopo	1	Enero	2023-01-18T00:00:00	2024-11-08T02:00:00	4	Temperatura máxima	16.5
148679	7	Sololá	712	San Antonio Palopó	9	San Antonio Palopo	1	Enero	2023-01-18T00:00:00	2024-11-08T02:00:00	3	Temperatura mínima	15.5
148680	7	Sololá	712	San Antonio Palopó	9	San Antonio Palopo	1	Enero	2023-01-18T00:00:00	2024-11-08T02:00:00	5	Humedad	84
148681	7	Sololá	712	San Antonio Palopó	9	San Antonio Palopo	1	Enero	2023-01-18T00:00:00	2024-11-08T02:00:00	6	Velocidad del viento	3.2
148682	7	Sololá	712	San Antonio Palopó	9	San Antonio Palopo	1	Enero	2023-01-18T00:00:00	2024-11-08T02:00:00	7	Dirección del viento	3.22
148683	7	Sololá	712	San Antonio Palopó	9	San Antonio Palopo	1	Enero	2023-01-18T00:00:00	2024-11-08T02:00:00	1	Precipitación	0
148684	7	Sololá	712	San Antonio Palopó	9	San Antonio Palopo	1	Enero	2023-01-18T00:00:00	2024-11-08T02:00:00	8	Radiación solar	0
148685	7	Sololá	712	San Antonio Palopó	9	San Antonio Palopo	1	Enero	2023-01-18T00:00:00	2024-11-08T03:00:00	2	Temperatura media	14.9
148686	7	Sololá	712	San Antonio Palopó	9	San Antonio Palopo	1	Enero	2023-01-18T00:00:00	2024-11-08T03:00:00	4	Temperatura máxima	15.5
148687	7	Sololá	712	San Antonio Palopó	9	San Antonio Palopo	1	Enero	2023-01-18T00:00:00	2024-11-08T03:00:00	3	Temperatura mínima	14.8
148688	7	Sololá	712	San Antonio Palopó	9	San Antonio Palopo	1	Enero	2023-01-18T00:00:00	2024-11-08T03:00:00	5	Humedad	84
148689	7	Sololá	712	San Antonio Palopó	9	San Antonio Palopo	1	Enero	2023-01-18T00:00:00	2024-11-08T03:00:00	6	Velocidad del viento	3.2
148690	7	Sololá	712	San Antonio Palopó	9	San Antonio Palopo	1	Enero	2023-01-18T00:00:00	2024-11-08T03:00:00	7	Dirección del viento	3.22
148691	7	Sololá	712	San Antonio Palopó	9	San Antonio Palopo	1	Enero	2023-01-18T00:00:00	2024-11-08T03:00:00	1	Precipitación	0
148692	7	Sololá	712	San Antonio Palopó	9	San Antonio Palopo	1	Enero	2023-01-18T00:00:00	2024-11-08T03:00:00	8	Radiación solar	0
148693	7	Sololá	712	San Antonio Palopó	9	San Antonio Palopo	1	Enero	2023-01-18T00:00:00	2024-11-08T04:00:00	2	Temperatura media	15.2
148694	7	Sololá	712	San Antonio Palopó	9	San Antonio Palopo	1	Enero	2023-01-18T00:00:00	2024-11-08T04:00:00	4	Temperatura máxima	15.9
148695	7	Sololá	712	San Antonio Palopó	9	San Antonio Palopo	1	Enero	2023-01-18T00:00:00	2024-11-08T04:00:00	3	Temperatura mínima	14.9
148696	7	Sololá	712	San Antonio Palopó	9	San Antonio Palopo	1	Enero	2023-01-18T00:00:00	2024-11-08T04:00:00	5	Humedad	80
148697	7	Sololá	712	San Antonio Palopó	9	San Antonio Palopo	1	Enero	2023-01-18T00:00:00	2024-11-08T04:00:00	6	Velocidad del viento	4.8
148698	7	Sololá	712	San Antonio Palopó	9	San Antonio Palopo	1	Enero	2023-01-18T00:00:00	2024-11-08T04:00:00	7	Dirección del viento	4.83
148699	7	Sololá	712	San Antonio Palopó	9	San Antonio Palopo	1	Enero	2023-01-18T00:00:00	2024-11-08T04:00:00	1	Precipitación	0
148700	7	Sololá	712	San Antonio Palopó	9	San Antonio Palopo	1	Enero	2023-01-18T00:00:00	2024-11-08T04:00:00	8	Radiación solar	0
148701	7	Sololá	712	San Antonio Palopó	9	San Antonio Palopo	1	Enero	2023-01-18T00:00:00	2024-11-08T05:00:00	2	Temperatura media	14.8
148702	7	Sololá	712	San Antonio Palopó	9	San Antonio Palopo	1	Enero	2023-01-18T00:00:00	2024-11-08T05:00:00	4	Temperatura máxima	15.2
148703	7	Sololá	712	San Antonio Palopó	9	San Antonio Palopo	1	Enero	2023-01-18T00:00:00	2024-11-08T05:00:00	3	Temperatura mínima	14.6
148704	7	Sololá	712	San Antonio Palopó	9	San Antonio Palopo	1	Enero	2023-01-18T00:00:00	2024-11-08T05:00:00	5	Humedad	83
148705	7	Sololá	712	San Antonio Palopó	9	San Antonio Palopo	1	Enero	2023-01-18T00:00:00	2024-11-08T05:00:00	6	Velocidad del viento	4.8
148706	7	Sololá	712	San Antonio Palopó	9	San Antonio Palopo	1	Enero	2023-01-18T00:00:00	2024-11-08T05:00:00	7	Dirección del viento	4.83
148707	7	Sololá	712	San Antonio Palopó	9	San Antonio Palopo	1	Enero	2023-01-18T00:00:00	2024-11-08T05:00:00	1	Precipitación	0
148708	7	Sololá	712	San Antonio Palopó	9	San Antonio Palopo	1	Enero	2023-01-18T00:00:00	2024-11-08T05:00:00	8	Radiación solar	0
148709	7	Sololá	712	San Antonio Palopó	9	San Antonio Palopo	1	Enero	2023-01-18T00:00:00	2024-11-08T06:00:00	2	Temperatura media	14.2
148710	7	Sololá	712	San Antonio Palopó	9	San Antonio Palopo	1	Enero	2023-01-18T00:00:00	2024-11-08T06:00:00	4	Temperatura máxima	15.1
148711	7	Sololá	712	San Antonio Palopó	9	San Antonio Palopo	1	Enero	2023-01-18T00:00:00	2024-11-08T06:00:00	3	Temperatura mínima	14.2
148712	7	Sololá	712	San Antonio Palopó	9	San Antonio Palopo	1	Enero	2023-01-18T00:00:00	2024-11-08T06:00:00	5	Humedad	82
148713	7	Sololá	712	San Antonio Palopó	9	San Antonio Palopo	1	Enero	2023-01-18T00:00:00	2024-11-08T06:00:00	6	Velocidad del viento	3.2
148714	7	Sololá	712	San Antonio Palopó	9	San Antonio Palopo	1	Enero	2023-01-18T00:00:00	2024-11-08T06:00:00	7	Dirección del viento	3.22
148715	7	Sololá	712	San Antonio Palopó	9	San Antonio Palopo	1	Enero	2023-01-18T00:00:00	2024-11-08T06:00:00	1	Precipitación	0
148716	7	Sololá	712	San Antonio Palopó	9	San Antonio Palopo	1	Enero	2023-01-18T00:00:00	2024-11-08T06:00:00	8	Radiación solar	0
148717	7	Sololá	712	San Antonio Palopó	9	San Antonio Palopo	1	Enero	2023-01-18T00:00:00	2024-11-08T07:00:00	2	Temperatura media	14.1
148718	7	Sololá	712	San Antonio Palopó	9	San Antonio Palopo	1	Enero	2023-01-18T00:00:00	2024-11-08T07:00:00	4	Temperatura máxima	14.2
148719	7	Sololá	712	San Antonio Palopó	9	San Antonio Palopo	1	Enero	2023-01-18T00:00:00	2024-11-08T07:00:00	3	Temperatura mínima	13.9
148720	7	Sololá	712	San Antonio Palopó	9	San Antonio Palopo	1	Enero	2023-01-18T00:00:00	2024-11-08T07:00:00	5	Humedad	84
148721	7	Sololá	712	San Antonio Palopó	9	San Antonio Palopo	1	Enero	2023-01-18T00:00:00	2024-11-08T07:00:00	6	Velocidad del viento	4.8
148722	7	Sololá	712	San Antonio Palopó	9	San Antonio Palopo	1	Enero	2023-01-18T00:00:00	2024-11-08T07:00:00	7	Dirección del viento	4.83
148723	7	Sololá	712	San Antonio Palopó	9	San Antonio Palopo	1	Enero	2023-01-18T00:00:00	2024-11-08T07:00:00	1	Precipitación	0
148724	7	Sololá	712	San Antonio Palopó	9	San Antonio Palopo	1	Enero	2023-01-18T00:00:00	2024-11-08T07:00:00	8	Radiación solar	4
148725	7	Sololá	712	San Antonio Palopó	9	San Antonio Palopo	1	Enero	2023-01-18T00:00:00	2024-11-08T08:00:00	2	Temperatura media	14.4
148726	7	Sololá	712	San Antonio Palopó	9	San Antonio Palopo	1	Enero	2023-01-18T00:00:00	2024-11-08T08:00:00	4	Temperatura máxima	14.4
148727	7	Sololá	712	San Antonio Palopó	9	San Antonio Palopo	1	Enero	2023-01-18T00:00:00	2024-11-08T08:00:00	3	Temperatura mínima	14.1
148728	7	Sololá	712	San Antonio Palopó	9	San Antonio Palopo	1	Enero	2023-01-18T00:00:00	2024-11-08T08:00:00	5	Humedad	84
148729	7	Sololá	712	San Antonio Palopó	9	San Antonio Palopo	1	Enero	2023-01-18T00:00:00	2024-11-08T08:00:00	6	Velocidad del viento	3.2
148730	7	Sololá	712	San Antonio Palopó	9	San Antonio Palopo	1	Enero	2023-01-18T00:00:00	2024-11-08T08:00:00	7	Dirección del viento	3.22
148731	7	Sololá	712	San Antonio Palopó	9	San Antonio Palopo	1	Enero	2023-01-18T00:00:00	2024-11-08T08:00:00	1	Precipitación	0
148732	7	Sololá	712	San Antonio Palopó	9	San Antonio Palopo	1	Enero	2023-01-18T00:00:00	2024-11-08T08:00:00	8	Radiación solar	32
148733	7	Sololá	712	San Antonio Palopó	9	San Antonio Palopo	1	Enero	2023-01-18T00:00:00	2024-11-08T09:00:00	2	Temperatura media	16.1
148734	7	Sololá	712	San Antonio Palopó	9	San Antonio Palopo	1	Enero	2023-01-18T00:00:00	2024-11-08T09:00:00	4	Temperatura máxima	16.1
148735	7	Sololá	712	San Antonio Palopó	9	San Antonio Palopo	1	Enero	2023-01-18T00:00:00	2024-11-08T09:00:00	3	Temperatura mínima	14.4
148736	7	Sololá	712	San Antonio Palopó	9	San Antonio Palopo	1	Enero	2023-01-18T00:00:00	2024-11-08T09:00:00	5	Humedad	83
148737	7	Sololá	712	San Antonio Palopó	9	San Antonio Palopo	1	Enero	2023-01-18T00:00:00	2024-11-08T09:00:00	6	Velocidad del viento	3.2
148738	7	Sololá	712	San Antonio Palopó	9	San Antonio Palopo	1	Enero	2023-01-18T00:00:00	2024-11-08T09:00:00	7	Dirección del viento	3.22
148739	7	Sololá	712	San Antonio Palopó	9	San Antonio Palopo	1	Enero	2023-01-18T00:00:00	2024-11-08T09:00:00	1	Precipitación	0
148740	7	Sololá	712	San Antonio Palopó	9	San Antonio Palopo	1	Enero	2023-01-18T00:00:00	2024-11-08T09:00:00	8	Radiación solar	143
148741	7	Sololá	712	San Antonio Palopó	9	San Antonio Palopo	1	Enero	2023-01-18T00:00:00	2024-11-08T10:00:00	2	Temperatura media	17.9
148742	7	Sololá	712	San Antonio Palopó	9	San Antonio Palopo	1	Enero	2023-01-18T00:00:00	2024-11-08T10:00:00	4	Temperatura máxima	18.5
148743	7	Sololá	712	San Antonio Palopó	9	San Antonio Palopo	1	Enero	2023-01-18T00:00:00	2024-11-08T10:00:00	3	Temperatura mínima	16.1
148744	7	Sololá	712	San Antonio Palopó	9	San Antonio Palopo	1	Enero	2023-01-18T00:00:00	2024-11-08T10:00:00	5	Humedad	78
148745	7	Sololá	712	San Antonio Palopó	9	San Antonio Palopo	1	Enero	2023-01-18T00:00:00	2024-11-08T10:00:00	6	Velocidad del viento	3.2
148746	7	Sololá	712	San Antonio Palopó	9	San Antonio Palopo	1	Enero	2023-01-18T00:00:00	2024-11-08T10:00:00	7	Dirección del viento	3.22
148747	7	Sololá	712	San Antonio Palopó	9	San Antonio Palopo	1	Enero	2023-01-18T00:00:00	2024-11-08T10:00:00	1	Precipitación	0
148748	7	Sololá	712	San Antonio Palopó	9	San Antonio Palopo	1	Enero	2023-01-18T00:00:00	2024-11-08T10:00:00	8	Radiación solar	502
148749	7	Sololá	712	San Antonio Palopó	9	San Antonio Palopo	1	Enero	2023-01-18T00:00:00	2024-11-08T11:00:00	2	Temperatura media	19.6
148750	7	Sololá	712	San Antonio Palopó	9	San Antonio Palopo	1	Enero	2023-01-18T00:00:00	2024-11-08T11:00:00	4	Temperatura máxima	19.6
148751	7	Sololá	712	San Antonio Palopó	9	San Antonio Palopo	1	Enero	2023-01-18T00:00:00	2024-11-08T11:00:00	3	Temperatura mínima	17.9
148752	7	Sololá	712	San Antonio Palopó	9	San Antonio Palopo	1	Enero	2023-01-18T00:00:00	2024-11-08T11:00:00	5	Humedad	71
148753	7	Sololá	712	San Antonio Palopó	9	San Antonio Palopo	1	Enero	2023-01-18T00:00:00	2024-11-08T11:00:00	6	Velocidad del viento	1.6
148754	7	Sololá	712	San Antonio Palopó	9	San Antonio Palopo	1	Enero	2023-01-18T00:00:00	2024-11-08T11:00:00	7	Dirección del viento	1.61
148755	7	Sololá	712	San Antonio Palopó	9	San Antonio Palopo	1	Enero	2023-01-18T00:00:00	2024-11-08T11:00:00	1	Precipitación	0
148756	7	Sololá	712	San Antonio Palopó	9	San Antonio Palopo	1	Enero	2023-01-18T00:00:00	2024-11-08T11:00:00	8	Radiación solar	654
148757	7	Sololá	712	San Antonio Palopó	9	San Antonio Palopo	1	Enero	2023-01-18T00:00:00	2024-11-08T12:00:00	2	Temperatura media	21.2
148758	7	Sololá	712	San Antonio Palopó	9	San Antonio Palopo	1	Enero	2023-01-18T00:00:00	2024-11-08T12:00:00	4	Temperatura máxima	21.2
148759	7	Sololá	712	San Antonio Palopó	9	San Antonio Palopo	1	Enero	2023-01-18T00:00:00	2024-11-08T12:00:00	3	Temperatura mínima	19.6
148760	7	Sololá	712	San Antonio Palopó	9	San Antonio Palopo	1	Enero	2023-01-18T00:00:00	2024-11-08T12:00:00	5	Humedad	67
148761	7	Sololá	712	San Antonio Palopó	9	San Antonio Palopo	1	Enero	2023-01-18T00:00:00	2024-11-08T12:00:00	6	Velocidad del viento	3.2
148762	7	Sololá	712	San Antonio Palopó	9	San Antonio Palopo	1	Enero	2023-01-18T00:00:00	2024-11-08T12:00:00	7	Dirección del viento	3.22
148763	7	Sololá	712	San Antonio Palopó	9	San Antonio Palopo	1	Enero	2023-01-18T00:00:00	2024-11-08T12:00:00	1	Precipitación	0
148764	7	Sololá	712	San Antonio Palopó	9	San Antonio Palopo	1	Enero	2023-01-18T00:00:00	2024-11-08T12:00:00	8	Radiación solar	658
148765	7	Sololá	712	San Antonio Palopó	9	San Antonio Palopo	1	Enero	2023-01-18T00:00:00	2024-11-08T13:00:00	2	Temperatura media	21.5
148766	7	Sololá	712	San Antonio Palopó	9	San Antonio Palopo	1	Enero	2023-01-18T00:00:00	2024-11-08T13:00:00	4	Temperatura máxima	21.8
148767	7	Sololá	712	San Antonio Palopó	9	San Antonio Palopo	1	Enero	2023-01-18T00:00:00	2024-11-08T13:00:00	3	Temperatura mínima	21.2
148768	7	Sololá	712	San Antonio Palopó	9	San Antonio Palopo	1	Enero	2023-01-18T00:00:00	2024-11-08T13:00:00	5	Humedad	66
148769	7	Sololá	712	San Antonio Palopó	9	San Antonio Palopo	1	Enero	2023-01-18T00:00:00	2024-11-08T13:00:00	6	Velocidad del viento	8
148770	7	Sololá	712	San Antonio Palopó	9	San Antonio Palopo	1	Enero	2023-01-18T00:00:00	2024-11-08T13:00:00	7	Dirección del viento	8.05
148771	7	Sololá	712	San Antonio Palopó	9	San Antonio Palopo	1	Enero	2023-01-18T00:00:00	2024-11-08T13:00:00	1	Precipitación	0
148772	7	Sololá	712	San Antonio Palopó	9	San Antonio Palopo	1	Enero	2023-01-18T00:00:00	2024-11-08T13:00:00	8	Radiación solar	774
148773	7	Sololá	712	San Antonio Palopó	9	San Antonio Palopo	1	Enero	2023-01-18T00:00:00	2024-11-08T14:00:00	2	Temperatura media	21.2
148774	7	Sololá	712	San Antonio Palopó	9	San Antonio Palopo	1	Enero	2023-01-18T00:00:00	2024-11-08T14:00:00	4	Temperatura máxima	22.1
148775	7	Sololá	712	San Antonio Palopó	9	San Antonio Palopo	1	Enero	2023-01-18T00:00:00	2024-11-08T14:00:00	3	Temperatura mínima	21.2
148776	7	Sololá	712	San Antonio Palopó	9	San Antonio Palopo	1	Enero	2023-01-18T00:00:00	2024-11-08T14:00:00	5	Humedad	68
148777	7	Sololá	712	San Antonio Palopó	9	San Antonio Palopo	1	Enero	2023-01-18T00:00:00	2024-11-08T14:00:00	6	Velocidad del viento	9.7
148778	7	Sololá	712	San Antonio Palopó	9	San Antonio Palopo	1	Enero	2023-01-18T00:00:00	2024-11-08T14:00:00	7	Dirección del viento	9.66
148779	7	Sololá	712	San Antonio Palopó	9	San Antonio Palopo	1	Enero	2023-01-18T00:00:00	2024-11-08T14:00:00	1	Precipitación	0
148780	7	Sololá	712	San Antonio Palopó	9	San Antonio Palopo	1	Enero	2023-01-18T00:00:00	2024-11-08T14:00:00	8	Radiación solar	708
148781	7	Sololá	712	San Antonio Palopó	9	San Antonio Palopo	1	Enero	2023-01-18T00:00:00	2024-11-08T15:00:00	2	Temperatura media	20.4
148782	7	Sololá	712	San Antonio Palopó	9	San Antonio Palopo	1	Enero	2023-01-18T00:00:00	2024-11-08T15:00:00	4	Temperatura máxima	21.2
148783	7	Sololá	712	San Antonio Palopó	9	San Antonio Palopo	1	Enero	2023-01-18T00:00:00	2024-11-08T15:00:00	3	Temperatura mínima	20.4
148784	7	Sololá	712	San Antonio Palopó	9	San Antonio Palopo	1	Enero	2023-01-18T00:00:00	2024-11-08T15:00:00	5	Humedad	73
148785	7	Sololá	712	San Antonio Palopó	9	San Antonio Palopo	1	Enero	2023-01-18T00:00:00	2024-11-08T15:00:00	6	Velocidad del viento	11.3
148786	7	Sololá	712	San Antonio Palopó	9	San Antonio Palopo	1	Enero	2023-01-18T00:00:00	2024-11-08T15:00:00	7	Dirección del viento	11.27
148787	7	Sololá	712	San Antonio Palopó	9	San Antonio Palopo	1	Enero	2023-01-18T00:00:00	2024-11-08T15:00:00	1	Precipitación	0
148788	7	Sololá	712	San Antonio Palopó	9	San Antonio Palopo	1	Enero	2023-01-18T00:00:00	2024-11-08T15:00:00	8	Radiación solar	572
148789	7	Sololá	712	San Antonio Palopó	9	San Antonio Palopo	1	Enero	2023-01-18T00:00:00	2024-11-08T16:00:00	2	Temperatura media	20.3
148790	7	Sololá	712	San Antonio Palopó	9	San Antonio Palopo	1	Enero	2023-01-18T00:00:00	2024-11-08T16:00:00	4	Temperatura máxima	20.4
148791	7	Sololá	712	San Antonio Palopó	9	San Antonio Palopo	1	Enero	2023-01-18T00:00:00	2024-11-08T16:00:00	3	Temperatura mínima	19.6
148792	7	Sololá	712	San Antonio Palopó	9	San Antonio Palopo	1	Enero	2023-01-18T00:00:00	2024-11-08T16:00:00	5	Humedad	72
148793	7	Sololá	712	San Antonio Palopó	9	San Antonio Palopo	1	Enero	2023-01-18T00:00:00	2024-11-08T16:00:00	6	Velocidad del viento	8
148794	7	Sololá	712	San Antonio Palopó	9	San Antonio Palopo	1	Enero	2023-01-18T00:00:00	2024-11-08T16:00:00	7	Dirección del viento	8.05
148795	7	Sololá	712	San Antonio Palopó	9	San Antonio Palopo	1	Enero	2023-01-18T00:00:00	2024-11-08T16:00:00	1	Precipitación	0
148796	7	Sololá	712	San Antonio Palopó	9	San Antonio Palopo	1	Enero	2023-01-18T00:00:00	2024-11-08T16:00:00	8	Radiación solar	212
148797	7	Sololá	712	San Antonio Palopó	9	San Antonio Palopo	1	Enero	2023-01-18T00:00:00	2024-11-08T17:00:00	2	Temperatura media	19.6
148798	7	Sololá	712	San Antonio Palopó	9	San Antonio Palopo	1	Enero	2023-01-18T00:00:00	2024-11-08T17:00:00	4	Temperatura máxima	20.3
148799	7	Sololá	712	San Antonio Palopó	9	San Antonio Palopo	1	Enero	2023-01-18T00:00:00	2024-11-08T17:00:00	3	Temperatura mínima	19.6
148800	7	Sololá	712	San Antonio Palopó	9	San Antonio Palopo	1	Enero	2023-01-18T00:00:00	2024-11-08T17:00:00	5	Humedad	75
148801	7	Sololá	712	San Antonio Palopó	9	San Antonio Palopo	1	Enero	2023-01-18T00:00:00	2024-11-08T17:00:00	6	Velocidad del viento	8
148802	7	Sololá	712	San Antonio Palopó	9	San Antonio Palopo	1	Enero	2023-01-18T00:00:00	2024-11-08T17:00:00	7	Dirección del viento	8.05
148803	7	Sololá	712	San Antonio Palopó	9	San Antonio Palopo	1	Enero	2023-01-18T00:00:00	2024-11-08T17:00:00	1	Precipitación	0
148804	7	Sololá	712	San Antonio Palopó	9	San Antonio Palopo	1	Enero	2023-01-18T00:00:00	2024-11-08T17:00:00	8	Radiación solar	165
148805	7	Sololá	712	San Antonio Palopó	9	San Antonio Palopo	1	Enero	2023-01-18T00:00:00	2024-11-08T18:00:00	2	Temperatura media	18.7
148806	7	Sololá	712	San Antonio Palopó	9	San Antonio Palopo	1	Enero	2023-01-18T00:00:00	2024-11-08T18:00:00	4	Temperatura máxima	19.7
148807	7	Sololá	712	San Antonio Palopó	9	San Antonio Palopo	1	Enero	2023-01-18T00:00:00	2024-11-08T18:00:00	3	Temperatura mínima	18.7
148808	7	Sololá	712	San Antonio Palopó	9	San Antonio Palopo	1	Enero	2023-01-18T00:00:00	2024-11-08T18:00:00	5	Humedad	80
148809	7	Sololá	712	San Antonio Palopó	9	San Antonio Palopo	1	Enero	2023-01-18T00:00:00	2024-11-08T18:00:00	6	Velocidad del viento	6.4
148810	7	Sololá	712	San Antonio Palopó	9	San Antonio Palopo	1	Enero	2023-01-18T00:00:00	2024-11-08T18:00:00	7	Dirección del viento	6.44
148811	7	Sololá	712	San Antonio Palopó	9	San Antonio Palopo	1	Enero	2023-01-18T00:00:00	2024-11-08T18:00:00	1	Precipitación	0
148812	7	Sololá	712	San Antonio Palopó	9	San Antonio Palopo	1	Enero	2023-01-18T00:00:00	2024-11-08T18:00:00	8	Radiación solar	28
148813	7	Sololá	712	San Antonio Palopó	9	San Antonio Palopo	1	Enero	2023-01-18T00:00:00	2024-11-08T19:00:00	2	Temperatura media	17.9
148814	7	Sololá	712	San Antonio Palopó	9	San Antonio Palopo	1	Enero	2023-01-18T00:00:00	2024-11-08T19:00:00	4	Temperatura máxima	18.7
148815	7	Sololá	712	San Antonio Palopó	9	San Antonio Palopo	1	Enero	2023-01-18T00:00:00	2024-11-08T19:00:00	3	Temperatura mínima	17.9
148816	7	Sololá	712	San Antonio Palopó	9	San Antonio Palopo	1	Enero	2023-01-18T00:00:00	2024-11-08T19:00:00	5	Humedad	79
148817	7	Sololá	712	San Antonio Palopó	9	San Antonio Palopo	1	Enero	2023-01-18T00:00:00	2024-11-08T19:00:00	6	Velocidad del viento	3.2
148818	7	Sololá	712	San Antonio Palopó	9	San Antonio Palopo	1	Enero	2023-01-18T00:00:00	2024-11-08T19:00:00	7	Dirección del viento	3.22
148819	7	Sololá	712	San Antonio Palopó	9	San Antonio Palopo	1	Enero	2023-01-18T00:00:00	2024-11-08T19:00:00	1	Precipitación	0
148820	7	Sololá	712	San Antonio Palopó	9	San Antonio Palopo	1	Enero	2023-01-18T00:00:00	2024-11-08T19:00:00	8	Radiación solar	0
148821	7	Sololá	712	San Antonio Palopó	9	San Antonio Palopo	1	Enero	2023-01-18T00:00:00	2024-11-08T20:00:00	2	Temperatura media	18
148822	7	Sololá	712	San Antonio Palopó	9	San Antonio Palopo	1	Enero	2023-01-18T00:00:00	2024-11-08T20:00:00	4	Temperatura máxima	18
148823	7	Sololá	712	San Antonio Palopó	9	San Antonio Palopo	1	Enero	2023-01-18T00:00:00	2024-11-08T20:00:00	3	Temperatura mínima	17.7
148824	7	Sololá	712	San Antonio Palopó	9	San Antonio Palopo	1	Enero	2023-01-18T00:00:00	2024-11-08T20:00:00	5	Humedad	80
148825	7	Sololá	712	San Antonio Palopó	9	San Antonio Palopo	1	Enero	2023-01-18T00:00:00	2024-11-08T20:00:00	6	Velocidad del viento	1.6
148826	7	Sololá	712	San Antonio Palopó	9	San Antonio Palopo	1	Enero	2023-01-18T00:00:00	2024-11-08T20:00:00	7	Dirección del viento	1.61
148827	7	Sololá	712	San Antonio Palopó	9	San Antonio Palopo	1	Enero	2023-01-18T00:00:00	2024-11-08T20:00:00	1	Precipitación	0
148828	7	Sololá	712	San Antonio Palopó	9	San Antonio Palopo	1	Enero	2023-01-18T00:00:00	2024-11-08T20:00:00	8	Radiación solar	0
148829	7	Sololá	712	San Antonio Palopó	9	San Antonio Palopo	1	Enero	2023-01-18T00:00:00	2024-11-08T21:00:00	2	Temperatura media	17.3
148830	7	Sololá	712	San Antonio Palopó	9	San Antonio Palopo	1	Enero	2023-01-18T00:00:00	2024-11-08T21:00:00	4	Temperatura máxima	18
148831	7	Sololá	712	San Antonio Palopó	9	San Antonio Palopo	1	Enero	2023-01-18T00:00:00	2024-11-08T21:00:00	3	Temperatura mínima	17.3
148832	7	Sololá	712	San Antonio Palopó	9	San Antonio Palopo	1	Enero	2023-01-18T00:00:00	2024-11-08T21:00:00	5	Humedad	81
148833	7	Sololá	712	San Antonio Palopó	9	San Antonio Palopo	1	Enero	2023-01-18T00:00:00	2024-11-08T21:00:00	6	Velocidad del viento	1.6
148834	7	Sololá	712	San Antonio Palopó	9	San Antonio Palopo	1	Enero	2023-01-18T00:00:00	2024-11-08T21:00:00	7	Dirección del viento	1.61
148835	7	Sololá	712	San Antonio Palopó	9	San Antonio Palopo	1	Enero	2023-01-18T00:00:00	2024-11-08T21:00:00	1	Precipitación	0
148836	7	Sololá	712	San Antonio Palopó	9	San Antonio Palopo	1	Enero	2023-01-18T00:00:00	2024-11-08T21:00:00	8	Radiación solar	0
148837	7	Sololá	712	San Antonio Palopó	9	San Antonio Palopo	1	Enero	2023-01-18T00:00:00	2024-11-08T22:00:00	2	Temperatura media	16.9
148838	7	Sololá	712	San Antonio Palopó	9	San Antonio Palopo	1	Enero	2023-01-18T00:00:00	2024-11-08T22:00:00	4	Temperatura máxima	17.4
148839	7	Sololá	712	San Antonio Palopó	9	San Antonio Palopo	1	Enero	2023-01-18T00:00:00	2024-11-08T22:00:00	3	Temperatura mínima	16.9
148840	7	Sololá	712	San Antonio Palopó	9	San Antonio Palopo	1	Enero	2023-01-18T00:00:00	2024-11-08T22:00:00	5	Humedad	80
148841	7	Sololá	712	San Antonio Palopó	9	San Antonio Palopo	1	Enero	2023-01-18T00:00:00	2024-11-08T22:00:00	6	Velocidad del viento	3.2
148842	7	Sololá	712	San Antonio Palopó	9	San Antonio Palopo	1	Enero	2023-01-18T00:00:00	2024-11-08T22:00:00	7	Dirección del viento	3.22
148843	7	Sololá	712	San Antonio Palopó	9	San Antonio Palopo	1	Enero	2023-01-18T00:00:00	2024-11-08T22:00:00	1	Precipitación	0
148844	7	Sololá	712	San Antonio Palopó	9	San Antonio Palopo	1	Enero	2023-01-18T00:00:00	2024-11-08T22:00:00	8	Radiación solar	0
148845	7	Sololá	712	San Antonio Palopó	9	San Antonio Palopo	1	Enero	2023-01-18T00:00:00	2024-11-08T23:00:00	2	Temperatura media	16.5
148846	7	Sololá	712	San Antonio Palopó	9	San Antonio Palopo	1	Enero	2023-01-18T00:00:00	2024-11-08T23:00:00	4	Temperatura máxima	17.1
148847	7	Sololá	712	San Antonio Palopó	9	San Antonio Palopo	1	Enero	2023-01-18T00:00:00	2024-11-08T23:00:00	3	Temperatura mínima	16.3
148848	7	Sololá	712	San Antonio Palopó	9	San Antonio Palopo	1	Enero	2023-01-18T00:00:00	2024-11-08T23:00:00	5	Humedad	82
148849	7	Sololá	712	San Antonio Palopó	9	San Antonio Palopo	1	Enero	2023-01-18T00:00:00	2024-11-08T23:00:00	6	Velocidad del viento	3.2
148850	7	Sololá	712	San Antonio Palopó	9	San Antonio Palopo	1	Enero	2023-01-18T00:00:00	2024-11-08T23:00:00	7	Dirección del viento	3.22
148851	7	Sololá	712	San Antonio Palopó	9	San Antonio Palopo	1	Enero	2023-01-18T00:00:00	2024-11-08T23:00:00	1	Precipitación	0
148852	7	Sololá	712	San Antonio Palopó	9	San Antonio Palopo	1	Enero	2023-01-18T00:00:00	2024-11-08T23:00:00	8	Radiación solar	0
148853	7	Sololá	712	San Antonio Palopó	9	San Antonio Palopo	1	Enero	2023-01-19T00:00:00	2024-11-08T00:00:00	2	Temperatura media	16.6
148854	7	Sololá	712	San Antonio Palopó	9	San Antonio Palopo	1	Enero	2023-01-19T00:00:00	2024-11-08T00:00:00	4	Temperatura máxima	16.6
148855	7	Sololá	712	San Antonio Palopó	9	San Antonio Palopo	1	Enero	2023-01-19T00:00:00	2024-11-08T00:00:00	3	Temperatura mínima	16.3
148856	7	Sololá	712	San Antonio Palopó	9	San Antonio Palopo	1	Enero	2023-01-19T00:00:00	2024-11-08T00:00:00	5	Humedad	81
148857	7	Sololá	712	San Antonio Palopó	9	San Antonio Palopo	1	Enero	2023-01-19T00:00:00	2024-11-08T00:00:00	6	Velocidad del viento	3.2
148858	7	Sololá	712	San Antonio Palopó	9	San Antonio Palopo	1	Enero	2023-01-19T00:00:00	2024-11-08T00:00:00	7	Dirección del viento	3.22
148859	7	Sololá	712	San Antonio Palopó	9	San Antonio Palopo	1	Enero	2023-01-19T00:00:00	2024-11-08T00:00:00	1	Precipitación	0
148860	7	Sololá	712	San Antonio Palopó	9	San Antonio Palopo	1	Enero	2023-01-19T00:00:00	2024-11-08T00:00:00	8	Radiación solar	0
148861	7	Sololá	712	San Antonio Palopó	9	San Antonio Palopo	1	Enero	2023-01-19T00:00:00	2024-11-08T01:00:00	2	Temperatura media	15.4
148862	7	Sololá	712	San Antonio Palopó	9	San Antonio Palopo	1	Enero	2023-01-19T00:00:00	2024-11-08T01:00:00	4	Temperatura máxima	16.6
148863	7	Sololá	712	San Antonio Palopó	9	San Antonio Palopo	1	Enero	2023-01-19T00:00:00	2024-11-08T01:00:00	3	Temperatura mínima	15.4
148864	7	Sololá	712	San Antonio Palopó	9	San Antonio Palopo	1	Enero	2023-01-19T00:00:00	2024-11-08T01:00:00	5	Humedad	80
148865	7	Sololá	712	San Antonio Palopó	9	San Antonio Palopo	1	Enero	2023-01-19T00:00:00	2024-11-08T01:00:00	6	Velocidad del viento	4.8
148866	7	Sololá	712	San Antonio Palopó	9	San Antonio Palopo	1	Enero	2023-01-19T00:00:00	2024-11-08T01:00:00	7	Dirección del viento	4.83
148867	7	Sololá	712	San Antonio Palopó	9	San Antonio Palopo	1	Enero	2023-01-19T00:00:00	2024-11-08T01:00:00	1	Precipitación	0
148868	7	Sololá	712	San Antonio Palopó	9	San Antonio Palopo	1	Enero	2023-01-19T00:00:00	2024-11-08T01:00:00	8	Radiación solar	0
148869	7	Sololá	712	San Antonio Palopó	9	San Antonio Palopo	1	Enero	2023-01-19T00:00:00	2024-11-08T02:00:00	2	Temperatura media	14.8
148870	7	Sololá	712	San Antonio Palopó	9	San Antonio Palopo	1	Enero	2023-01-19T00:00:00	2024-11-08T02:00:00	4	Temperatura máxima	15.4
148871	7	Sololá	712	San Antonio Palopó	9	San Antonio Palopo	1	Enero	2023-01-19T00:00:00	2024-11-08T02:00:00	3	Temperatura mínima	14.8
148872	7	Sololá	712	San Antonio Palopó	9	San Antonio Palopo	1	Enero	2023-01-19T00:00:00	2024-11-08T02:00:00	5	Humedad	75
148873	7	Sololá	712	San Antonio Palopó	9	San Antonio Palopo	1	Enero	2023-01-19T00:00:00	2024-11-08T02:00:00	6	Velocidad del viento	3.2
148874	7	Sololá	712	San Antonio Palopó	9	San Antonio Palopo	1	Enero	2023-01-19T00:00:00	2024-11-08T02:00:00	7	Dirección del viento	3.22
148875	7	Sololá	712	San Antonio Palopó	9	San Antonio Palopo	1	Enero	2023-01-19T00:00:00	2024-11-08T02:00:00	1	Precipitación	0
148876	7	Sololá	712	San Antonio Palopó	9	San Antonio Palopo	1	Enero	2023-01-19T00:00:00	2024-11-08T02:00:00	8	Radiación solar	0
148877	7	Sololá	712	San Antonio Palopó	9	San Antonio Palopo	1	Enero	2023-01-19T00:00:00	2024-11-08T03:00:00	2	Temperatura media	14.1
148878	7	Sololá	712	San Antonio Palopó	9	San Antonio Palopo	1	Enero	2023-01-19T00:00:00	2024-11-08T03:00:00	4	Temperatura máxima	14.8
148879	7	Sololá	712	San Antonio Palopó	9	San Antonio Palopo	1	Enero	2023-01-19T00:00:00	2024-11-08T03:00:00	3	Temperatura mínima	14.1
148880	7	Sololá	712	San Antonio Palopó	9	San Antonio Palopo	1	Enero	2023-01-19T00:00:00	2024-11-08T03:00:00	5	Humedad	77
148881	7	Sololá	712	San Antonio Palopó	9	San Antonio Palopo	1	Enero	2023-01-19T00:00:00	2024-11-08T03:00:00	6	Velocidad del viento	4.8
148882	7	Sololá	712	San Antonio Palopó	9	San Antonio Palopo	1	Enero	2023-01-19T00:00:00	2024-11-08T03:00:00	7	Dirección del viento	4.83
148883	7	Sololá	712	San Antonio Palopó	9	San Antonio Palopo	1	Enero	2023-01-19T00:00:00	2024-11-08T03:00:00	1	Precipitación	0
148884	7	Sololá	712	San Antonio Palopó	9	San Antonio Palopo	1	Enero	2023-01-19T00:00:00	2024-11-08T03:00:00	8	Radiación solar	0
148885	7	Sololá	712	San Antonio Palopó	9	San Antonio Palopo	1	Enero	2023-01-19T00:00:00	2024-11-08T04:00:00	2	Temperatura media	13.7
148886	7	Sololá	712	San Antonio Palopó	9	San Antonio Palopo	1	Enero	2023-01-19T00:00:00	2024-11-08T04:00:00	4	Temperatura máxima	14.1
148887	7	Sololá	712	San Antonio Palopó	9	San Antonio Palopo	1	Enero	2023-01-19T00:00:00	2024-11-08T04:00:00	3	Temperatura mínima	13.7
148888	7	Sololá	712	San Antonio Palopó	9	San Antonio Palopo	1	Enero	2023-01-19T00:00:00	2024-11-08T04:00:00	5	Humedad	74
148889	7	Sololá	712	San Antonio Palopó	9	San Antonio Palopo	1	Enero	2023-01-19T00:00:00	2024-11-08T04:00:00	6	Velocidad del viento	4.8
148890	7	Sololá	712	San Antonio Palopó	9	San Antonio Palopo	1	Enero	2023-01-19T00:00:00	2024-11-08T04:00:00	7	Dirección del viento	4.83
148891	7	Sololá	712	San Antonio Palopó	9	San Antonio Palopo	1	Enero	2023-01-19T00:00:00	2024-11-08T04:00:00	1	Precipitación	0
148892	7	Sololá	712	San Antonio Palopó	9	San Antonio Palopo	1	Enero	2023-01-19T00:00:00	2024-11-08T04:00:00	8	Radiación solar	0
148893	7	Sololá	712	San Antonio Palopó	9	San Antonio Palopo	1	Enero	2023-01-19T00:00:00	2024-11-08T05:00:00	2	Temperatura media	13.7
148894	7	Sololá	712	San Antonio Palopó	9	San Antonio Palopo	1	Enero	2023-01-19T00:00:00	2024-11-08T05:00:00	4	Temperatura máxima	14.9
148895	7	Sololá	712	San Antonio Palopó	9	San Antonio Palopo	1	Enero	2023-01-19T00:00:00	2024-11-08T05:00:00	3	Temperatura mínima	13.7
148896	7	Sololá	712	San Antonio Palopó	9	San Antonio Palopo	1	Enero	2023-01-19T00:00:00	2024-11-08T05:00:00	5	Humedad	62
148897	7	Sololá	712	San Antonio Palopó	9	San Antonio Palopo	1	Enero	2023-01-19T00:00:00	2024-11-08T05:00:00	6	Velocidad del viento	6.4
148898	7	Sololá	712	San Antonio Palopó	9	San Antonio Palopo	1	Enero	2023-01-19T00:00:00	2024-11-08T05:00:00	7	Dirección del viento	6.44
148899	7	Sololá	712	San Antonio Palopó	9	San Antonio Palopo	1	Enero	2023-01-19T00:00:00	2024-11-08T05:00:00	1	Precipitación	0
148900	7	Sololá	712	San Antonio Palopó	9	San Antonio Palopo	1	Enero	2023-01-19T00:00:00	2024-11-08T05:00:00	8	Radiación solar	0
148901	7	Sololá	712	San Antonio Palopó	9	San Antonio Palopo	1	Enero	2023-01-19T00:00:00	2024-11-08T06:00:00	2	Temperatura media	12.9
148902	7	Sololá	712	San Antonio Palopó	9	San Antonio Palopo	1	Enero	2023-01-19T00:00:00	2024-11-08T06:00:00	4	Temperatura máxima	14.2
148903	7	Sololá	712	San Antonio Palopó	9	San Antonio Palopo	1	Enero	2023-01-19T00:00:00	2024-11-08T06:00:00	3	Temperatura mínima	12.9
148904	7	Sololá	712	San Antonio Palopó	9	San Antonio Palopo	1	Enero	2023-01-19T00:00:00	2024-11-08T06:00:00	5	Humedad	60
148905	7	Sololá	712	San Antonio Palopó	9	San Antonio Palopo	1	Enero	2023-01-19T00:00:00	2024-11-08T06:00:00	6	Velocidad del viento	6.4
148906	7	Sololá	712	San Antonio Palopó	9	San Antonio Palopo	1	Enero	2023-01-19T00:00:00	2024-11-08T06:00:00	7	Dirección del viento	6.44
148907	7	Sololá	712	San Antonio Palopó	9	San Antonio Palopo	1	Enero	2023-01-19T00:00:00	2024-11-08T06:00:00	1	Precipitación	0
148908	7	Sololá	712	San Antonio Palopó	9	San Antonio Palopo	1	Enero	2023-01-19T00:00:00	2024-11-08T06:00:00	8	Radiación solar	0
148909	7	Sololá	712	San Antonio Palopó	9	San Antonio Palopo	1	Enero	2023-01-19T00:00:00	2024-11-08T07:00:00	2	Temperatura media	12.3
148910	7	Sololá	712	San Antonio Palopó	9	San Antonio Palopo	1	Enero	2023-01-19T00:00:00	2024-11-08T07:00:00	4	Temperatura máxima	13.1
148911	7	Sololá	712	San Antonio Palopó	9	San Antonio Palopo	1	Enero	2023-01-19T00:00:00	2024-11-08T07:00:00	3	Temperatura mínima	12.3
148912	7	Sololá	712	San Antonio Palopó	9	San Antonio Palopo	1	Enero	2023-01-19T00:00:00	2024-11-08T07:00:00	5	Humedad	64
148913	7	Sololá	712	San Antonio Palopó	9	San Antonio Palopo	1	Enero	2023-01-19T00:00:00	2024-11-08T07:00:00	6	Velocidad del viento	4.8
148914	7	Sololá	712	San Antonio Palopó	9	San Antonio Palopo	1	Enero	2023-01-19T00:00:00	2024-11-08T07:00:00	7	Dirección del viento	4.83
148915	7	Sololá	712	San Antonio Palopó	9	San Antonio Palopo	1	Enero	2023-01-19T00:00:00	2024-11-08T07:00:00	1	Precipitación	0
148916	7	Sololá	712	San Antonio Palopó	9	San Antonio Palopo	1	Enero	2023-01-19T00:00:00	2024-11-08T07:00:00	8	Radiación solar	3
148917	7	Sololá	712	San Antonio Palopó	9	San Antonio Palopo	1	Enero	2023-01-19T00:00:00	2024-11-08T08:00:00	2	Temperatura media	12.8
148918	7	Sololá	712	San Antonio Palopó	9	San Antonio Palopo	1	Enero	2023-01-19T00:00:00	2024-11-08T08:00:00	4	Temperatura máxima	12.8
148919	7	Sololá	712	San Antonio Palopó	9	San Antonio Palopo	1	Enero	2023-01-19T00:00:00	2024-11-08T08:00:00	3	Temperatura mínima	12.2
148920	7	Sololá	712	San Antonio Palopó	9	San Antonio Palopo	1	Enero	2023-01-19T00:00:00	2024-11-08T08:00:00	5	Humedad	66
148921	7	Sololá	712	San Antonio Palopó	9	San Antonio Palopo	1	Enero	2023-01-19T00:00:00	2024-11-08T08:00:00	6	Velocidad del viento	6.4
148922	7	Sololá	712	San Antonio Palopó	9	San Antonio Palopo	1	Enero	2023-01-19T00:00:00	2024-11-08T08:00:00	7	Dirección del viento	6.44
148923	7	Sololá	712	San Antonio Palopó	9	San Antonio Palopo	1	Enero	2023-01-19T00:00:00	2024-11-08T08:00:00	1	Precipitación	0
148924	7	Sololá	712	San Antonio Palopó	9	San Antonio Palopo	1	Enero	2023-01-19T00:00:00	2024-11-08T08:00:00	8	Radiación solar	18
148925	7	Sololá	712	San Antonio Palopó	9	San Antonio Palopo	1	Enero	2023-01-19T00:00:00	2024-11-08T09:00:00	2	Temperatura media	14.5
148926	7	Sololá	712	San Antonio Palopó	9	San Antonio Palopo	1	Enero	2023-01-19T00:00:00	2024-11-08T09:00:00	4	Temperatura máxima	14.5
148927	7	Sololá	712	San Antonio Palopó	9	San Antonio Palopo	1	Enero	2023-01-19T00:00:00	2024-11-08T09:00:00	3	Temperatura mínima	12.7
148928	7	Sololá	712	San Antonio Palopó	9	San Antonio Palopo	1	Enero	2023-01-19T00:00:00	2024-11-08T09:00:00	5	Humedad	66
148929	7	Sololá	712	San Antonio Palopó	9	San Antonio Palopo	1	Enero	2023-01-19T00:00:00	2024-11-08T09:00:00	6	Velocidad del viento	4.8
148930	7	Sololá	712	San Antonio Palopó	9	San Antonio Palopo	1	Enero	2023-01-19T00:00:00	2024-11-08T09:00:00	7	Dirección del viento	4.83
148931	7	Sololá	712	San Antonio Palopó	9	San Antonio Palopo	1	Enero	2023-01-19T00:00:00	2024-11-08T09:00:00	1	Precipitación	0
148932	7	Sololá	712	San Antonio Palopó	9	San Antonio Palopo	1	Enero	2023-01-19T00:00:00	2024-11-08T09:00:00	8	Radiación solar	138
148933	7	Sololá	712	San Antonio Palopó	9	San Antonio Palopo	1	Enero	2023-01-19T00:00:00	2024-11-08T10:00:00	2	Temperatura media	18
148934	7	Sololá	712	San Antonio Palopó	9	San Antonio Palopo	1	Enero	2023-01-19T00:00:00	2024-11-08T10:00:00	4	Temperatura máxima	18.2
148935	7	Sololá	712	San Antonio Palopó	9	San Antonio Palopo	1	Enero	2023-01-19T00:00:00	2024-11-08T10:00:00	3	Temperatura mínima	14.5
148936	7	Sololá	712	San Antonio Palopó	9	San Antonio Palopo	1	Enero	2023-01-19T00:00:00	2024-11-08T10:00:00	5	Humedad	55
148937	7	Sololá	712	San Antonio Palopó	9	San Antonio Palopo	1	Enero	2023-01-19T00:00:00	2024-11-08T10:00:00	6	Velocidad del viento	3.2
148938	7	Sololá	712	San Antonio Palopó	9	San Antonio Palopo	1	Enero	2023-01-19T00:00:00	2024-11-08T10:00:00	7	Dirección del viento	3.22
148939	7	Sololá	712	San Antonio Palopó	9	San Antonio Palopo	1	Enero	2023-01-19T00:00:00	2024-11-08T10:00:00	1	Precipitación	0
148940	7	Sololá	712	San Antonio Palopó	9	San Antonio Palopo	1	Enero	2023-01-19T00:00:00	2024-11-08T10:00:00	8	Radiación solar	529
148941	7	Sololá	712	San Antonio Palopó	9	San Antonio Palopo	1	Enero	2023-01-19T00:00:00	2024-11-08T11:00:00	2	Temperatura media	18.6
148942	7	Sololá	712	San Antonio Palopó	9	San Antonio Palopo	1	Enero	2023-01-19T00:00:00	2024-11-08T11:00:00	4	Temperatura máxima	18.6
148943	7	Sololá	712	San Antonio Palopó	9	San Antonio Palopo	1	Enero	2023-01-19T00:00:00	2024-11-08T11:00:00	3	Temperatura mínima	17.6
148944	7	Sololá	712	San Antonio Palopó	9	San Antonio Palopo	1	Enero	2023-01-19T00:00:00	2024-11-08T11:00:00	5	Humedad	56
148945	7	Sololá	712	San Antonio Palopó	9	San Antonio Palopo	1	Enero	2023-01-19T00:00:00	2024-11-08T11:00:00	6	Velocidad del viento	3.2
148946	7	Sololá	712	San Antonio Palopó	9	San Antonio Palopo	1	Enero	2023-01-19T00:00:00	2024-11-08T11:00:00	7	Dirección del viento	3.22
148947	7	Sololá	712	San Antonio Palopó	9	San Antonio Palopo	1	Enero	2023-01-19T00:00:00	2024-11-08T11:00:00	1	Precipitación	0
148948	7	Sololá	712	San Antonio Palopó	9	San Antonio Palopo	1	Enero	2023-01-19T00:00:00	2024-11-08T11:00:00	8	Radiación solar	676
148949	7	Sololá	712	San Antonio Palopó	9	San Antonio Palopo	1	Enero	2023-01-19T00:00:00	2024-11-08T12:00:00	2	Temperatura media	19.6
148950	7	Sololá	712	San Antonio Palopó	9	San Antonio Palopo	1	Enero	2023-01-19T00:00:00	2024-11-08T12:00:00	4	Temperatura máxima	19.6
148951	7	Sololá	712	San Antonio Palopó	9	San Antonio Palopo	1	Enero	2023-01-19T00:00:00	2024-11-08T12:00:00	3	Temperatura mínima	18.5
148952	7	Sololá	712	San Antonio Palopó	9	San Antonio Palopo	1	Enero	2023-01-19T00:00:00	2024-11-08T12:00:00	5	Humedad	58
148953	7	Sololá	712	San Antonio Palopó	9	San Antonio Palopo	1	Enero	2023-01-19T00:00:00	2024-11-08T12:00:00	6	Velocidad del viento	4.8
148954	7	Sololá	712	San Antonio Palopó	9	San Antonio Palopo	1	Enero	2023-01-19T00:00:00	2024-11-08T12:00:00	7	Dirección del viento	4.83
148955	7	Sololá	712	San Antonio Palopó	9	San Antonio Palopo	1	Enero	2023-01-19T00:00:00	2024-11-08T12:00:00	1	Precipitación	0
148956	7	Sololá	712	San Antonio Palopó	9	San Antonio Palopo	1	Enero	2023-01-19T00:00:00	2024-11-08T12:00:00	8	Radiación solar	650
148957	7	Sololá	712	San Antonio Palopó	9	San Antonio Palopo	1	Enero	2023-01-19T00:00:00	2024-11-08T13:00:00	2	Temperatura media	21.9
148958	7	Sololá	712	San Antonio Palopó	9	San Antonio Palopo	1	Enero	2023-01-19T00:00:00	2024-11-08T13:00:00	4	Temperatura máxima	21.9
148959	7	Sololá	712	San Antonio Palopó	9	San Antonio Palopo	1	Enero	2023-01-19T00:00:00	2024-11-08T13:00:00	3	Temperatura mínima	19.6
148960	7	Sololá	712	San Antonio Palopó	9	San Antonio Palopo	1	Enero	2023-01-19T00:00:00	2024-11-08T13:00:00	5	Humedad	60
148961	7	Sololá	712	San Antonio Palopó	9	San Antonio Palopo	1	Enero	2023-01-19T00:00:00	2024-11-08T13:00:00	6	Velocidad del viento	4.8
148962	7	Sololá	712	San Antonio Palopó	9	San Antonio Palopo	1	Enero	2023-01-19T00:00:00	2024-11-08T13:00:00	7	Dirección del viento	4.83
148963	7	Sololá	712	San Antonio Palopó	9	San Antonio Palopo	1	Enero	2023-01-19T00:00:00	2024-11-08T13:00:00	1	Precipitación	0
148964	7	Sololá	712	San Antonio Palopó	9	San Antonio Palopo	1	Enero	2023-01-19T00:00:00	2024-11-08T13:00:00	8	Radiación solar	746
148965	7	Sololá	712	San Antonio Palopó	9	San Antonio Palopo	1	Enero	2023-01-19T00:00:00	2024-11-08T14:00:00	2	Temperatura media	21.1
148966	7	Sololá	712	San Antonio Palopó	9	San Antonio Palopo	1	Enero	2023-01-19T00:00:00	2024-11-08T14:00:00	4	Temperatura máxima	22.1
148967	7	Sololá	712	San Antonio Palopó	9	San Antonio Palopo	1	Enero	2023-01-19T00:00:00	2024-11-08T14:00:00	3	Temperatura mínima	21.1
148968	7	Sololá	712	San Antonio Palopó	9	San Antonio Palopo	1	Enero	2023-01-19T00:00:00	2024-11-08T14:00:00	5	Humedad	64
148969	7	Sololá	712	San Antonio Palopó	9	San Antonio Palopo	1	Enero	2023-01-19T00:00:00	2024-11-08T14:00:00	6	Velocidad del viento	8
148970	7	Sololá	712	San Antonio Palopó	9	San Antonio Palopo	1	Enero	2023-01-19T00:00:00	2024-11-08T14:00:00	7	Dirección del viento	8.05
148971	7	Sololá	712	San Antonio Palopó	9	San Antonio Palopo	1	Enero	2023-01-19T00:00:00	2024-11-08T14:00:00	1	Precipitación	0
148972	7	Sololá	712	San Antonio Palopó	9	San Antonio Palopo	1	Enero	2023-01-19T00:00:00	2024-11-08T14:00:00	8	Radiación solar	698
148973	7	Sololá	712	San Antonio Palopó	9	San Antonio Palopo	1	Enero	2023-01-19T00:00:00	2024-11-08T15:00:00	2	Temperatura media	20.7
148974	7	Sololá	712	San Antonio Palopó	9	San Antonio Palopo	1	Enero	2023-01-19T00:00:00	2024-11-08T15:00:00	4	Temperatura máxima	21.3
148975	7	Sololá	712	San Antonio Palopó	9	San Antonio Palopo	1	Enero	2023-01-19T00:00:00	2024-11-08T15:00:00	3	Temperatura mínima	20.4
148976	7	Sololá	712	San Antonio Palopó	9	San Antonio Palopo	1	Enero	2023-01-19T00:00:00	2024-11-08T15:00:00	5	Humedad	65
148977	7	Sololá	712	San Antonio Palopó	9	San Antonio Palopo	1	Enero	2023-01-19T00:00:00	2024-11-08T15:00:00	6	Velocidad del viento	12.9
148978	7	Sololá	712	San Antonio Palopó	9	San Antonio Palopo	1	Enero	2023-01-19T00:00:00	2024-11-08T15:00:00	7	Dirección del viento	12.87
148979	7	Sololá	712	San Antonio Palopó	9	San Antonio Palopo	1	Enero	2023-01-19T00:00:00	2024-11-08T15:00:00	1	Precipitación	0
148980	7	Sololá	712	San Antonio Palopó	9	San Antonio Palopo	1	Enero	2023-01-19T00:00:00	2024-11-08T15:00:00	8	Radiación solar	591
148981	7	Sololá	712	San Antonio Palopó	9	San Antonio Palopo	1	Enero	2023-01-19T00:00:00	2024-11-08T16:00:00	2	Temperatura media	20.7
148982	7	Sololá	712	San Antonio Palopó	9	San Antonio Palopo	1	Enero	2023-01-19T00:00:00	2024-11-08T16:00:00	4	Temperatura máxima	21.1
148983	7	Sololá	712	San Antonio Palopó	9	San Antonio Palopo	1	Enero	2023-01-19T00:00:00	2024-11-08T16:00:00	3	Temperatura mínima	20.5
148984	7	Sololá	712	San Antonio Palopó	9	San Antonio Palopo	1	Enero	2023-01-19T00:00:00	2024-11-08T16:00:00	5	Humedad	66
148985	7	Sololá	712	San Antonio Palopó	9	San Antonio Palopo	1	Enero	2023-01-19T00:00:00	2024-11-08T16:00:00	6	Velocidad del viento	9.7
148986	7	Sololá	712	San Antonio Palopó	9	San Antonio Palopo	1	Enero	2023-01-19T00:00:00	2024-11-08T16:00:00	7	Dirección del viento	9.66
148987	7	Sololá	712	San Antonio Palopó	9	San Antonio Palopo	1	Enero	2023-01-19T00:00:00	2024-11-08T16:00:00	1	Precipitación	0
148988	7	Sololá	712	San Antonio Palopó	9	San Antonio Palopo	1	Enero	2023-01-19T00:00:00	2024-11-08T16:00:00	8	Radiación solar	424
148989	7	Sololá	712	San Antonio Palopó	9	San Antonio Palopo	1	Enero	2023-01-19T00:00:00	2024-11-08T17:00:00	2	Temperatura media	20.1
148990	7	Sololá	712	San Antonio Palopó	9	San Antonio Palopo	1	Enero	2023-01-19T00:00:00	2024-11-08T17:00:00	4	Temperatura máxima	20.8
148991	7	Sololá	712	San Antonio Palopó	9	San Antonio Palopo	1	Enero	2023-01-19T00:00:00	2024-11-08T17:00:00	3	Temperatura mínima	20
148992	7	Sololá	712	San Antonio Palopó	9	San Antonio Palopo	1	Enero	2023-01-19T00:00:00	2024-11-08T17:00:00	5	Humedad	69
148993	7	Sololá	712	San Antonio Palopó	9	San Antonio Palopo	1	Enero	2023-01-19T00:00:00	2024-11-08T17:00:00	6	Velocidad del viento	9.7
148994	7	Sololá	712	San Antonio Palopó	9	San Antonio Palopo	1	Enero	2023-01-19T00:00:00	2024-11-08T17:00:00	7	Dirección del viento	9.66
148995	7	Sololá	712	San Antonio Palopó	9	San Antonio Palopo	1	Enero	2023-01-19T00:00:00	2024-11-08T17:00:00	1	Precipitación	0
148996	7	Sololá	712	San Antonio Palopó	9	San Antonio Palopo	1	Enero	2023-01-19T00:00:00	2024-11-08T17:00:00	8	Radiación solar	219
148997	7	Sololá	712	San Antonio Palopó	9	San Antonio Palopo	1	Enero	2023-01-19T00:00:00	2024-11-08T18:00:00	2	Temperatura media	18.2
148998	7	Sololá	712	San Antonio Palopó	9	San Antonio Palopo	1	Enero	2023-01-19T00:00:00	2024-11-08T18:00:00	4	Temperatura máxima	20.1
148999	7	Sololá	712	San Antonio Palopó	9	San Antonio Palopo	1	Enero	2023-01-19T00:00:00	2024-11-08T18:00:00	3	Temperatura mínima	18.2
149000	7	Sololá	712	San Antonio Palopó	9	San Antonio Palopo	1	Enero	2023-01-19T00:00:00	2024-11-08T18:00:00	5	Humedad	74
149001	7	Sololá	712	San Antonio Palopó	9	San Antonio Palopo	1	Enero	2023-01-19T00:00:00	2024-11-08T18:00:00	6	Velocidad del viento	9.7
149002	7	Sololá	712	San Antonio Palopó	9	San Antonio Palopo	1	Enero	2023-01-19T00:00:00	2024-11-08T18:00:00	7	Dirección del viento	9.66
149003	7	Sololá	712	San Antonio Palopó	9	San Antonio Palopo	1	Enero	2023-01-19T00:00:00	2024-11-08T18:00:00	1	Precipitación	0
149004	7	Sololá	712	San Antonio Palopó	9	San Antonio Palopo	1	Enero	2023-01-19T00:00:00	2024-11-08T18:00:00	8	Radiación solar	47
149005	7	Sololá	712	San Antonio Palopó	9	San Antonio Palopo	1	Enero	2023-01-19T00:00:00	2024-11-08T19:00:00	2	Temperatura media	17.2
149006	7	Sololá	712	San Antonio Palopó	9	San Antonio Palopo	1	Enero	2023-01-19T00:00:00	2024-11-08T19:00:00	4	Temperatura máxima	18.2
149007	7	Sololá	712	San Antonio Palopó	9	San Antonio Palopo	1	Enero	2023-01-19T00:00:00	2024-11-08T19:00:00	3	Temperatura mínima	17.1
149008	7	Sololá	712	San Antonio Palopó	9	San Antonio Palopo	1	Enero	2023-01-19T00:00:00	2024-11-08T19:00:00	5	Humedad	76
149009	7	Sololá	712	San Antonio Palopó	9	San Antonio Palopo	1	Enero	2023-01-19T00:00:00	2024-11-08T19:00:00	6	Velocidad del viento	3.2
149010	7	Sololá	712	San Antonio Palopó	9	San Antonio Palopo	1	Enero	2023-01-19T00:00:00	2024-11-08T19:00:00	7	Dirección del viento	3.22
149011	7	Sololá	712	San Antonio Palopó	9	San Antonio Palopo	1	Enero	2023-01-19T00:00:00	2024-11-08T19:00:00	1	Precipitación	0
149012	7	Sololá	712	San Antonio Palopó	9	San Antonio Palopo	1	Enero	2023-01-19T00:00:00	2024-11-08T19:00:00	8	Radiación solar	0
149013	7	Sololá	712	San Antonio Palopó	9	San Antonio Palopo	1	Enero	2023-01-19T00:00:00	2024-11-08T20:00:00	2	Temperatura media	17.1
149014	7	Sololá	712	San Antonio Palopó	9	San Antonio Palopo	1	Enero	2023-01-19T00:00:00	2024-11-08T20:00:00	4	Temperatura máxima	17.2
149015	7	Sololá	712	San Antonio Palopó	9	San Antonio Palopo	1	Enero	2023-01-19T00:00:00	2024-11-08T20:00:00	3	Temperatura mínima	16.2
149016	7	Sololá	712	San Antonio Palopó	9	San Antonio Palopo	1	Enero	2023-01-19T00:00:00	2024-11-08T20:00:00	5	Humedad	74
149017	7	Sololá	712	San Antonio Palopó	9	San Antonio Palopo	1	Enero	2023-01-19T00:00:00	2024-11-08T20:00:00	6	Velocidad del viento	4.8
149018	7	Sololá	712	San Antonio Palopó	9	San Antonio Palopo	1	Enero	2023-01-19T00:00:00	2024-11-08T20:00:00	7	Dirección del viento	4.83
149019	7	Sololá	712	San Antonio Palopó	9	San Antonio Palopo	1	Enero	2023-01-19T00:00:00	2024-11-08T20:00:00	1	Precipitación	0
149020	7	Sololá	712	San Antonio Palopó	9	San Antonio Palopo	1	Enero	2023-01-19T00:00:00	2024-11-08T20:00:00	8	Radiación solar	0
149021	7	Sololá	712	San Antonio Palopó	9	San Antonio Palopo	1	Enero	2023-01-19T00:00:00	2024-11-08T21:00:00	2	Temperatura media	17.7
149022	7	Sololá	712	San Antonio Palopó	9	San Antonio Palopo	1	Enero	2023-01-19T00:00:00	2024-11-08T21:00:00	4	Temperatura máxima	17.8
149023	7	Sololá	712	San Antonio Palopó	9	San Antonio Palopo	1	Enero	2023-01-19T00:00:00	2024-11-08T21:00:00	3	Temperatura mínima	17.1
149024	7	Sololá	712	San Antonio Palopó	9	San Antonio Palopo	1	Enero	2023-01-19T00:00:00	2024-11-08T21:00:00	5	Humedad	59
149025	7	Sololá	712	San Antonio Palopó	9	San Antonio Palopo	1	Enero	2023-01-19T00:00:00	2024-11-08T21:00:00	6	Velocidad del viento	8
149026	7	Sololá	712	San Antonio Palopó	9	San Antonio Palopo	1	Enero	2023-01-19T00:00:00	2024-11-08T21:00:00	7	Dirección del viento	8.05
149027	7	Sololá	712	San Antonio Palopó	9	San Antonio Palopo	1	Enero	2023-01-19T00:00:00	2024-11-08T21:00:00	1	Precipitación	0
149028	7	Sololá	712	San Antonio Palopó	9	San Antonio Palopo	1	Enero	2023-01-19T00:00:00	2024-11-08T21:00:00	8	Radiación solar	0
149029	7	Sololá	712	San Antonio Palopó	9	San Antonio Palopo	1	Enero	2023-01-19T00:00:00	2024-11-08T22:00:00	2	Temperatura media	17.7
149030	7	Sololá	712	San Antonio Palopó	9	San Antonio Palopo	1	Enero	2023-01-19T00:00:00	2024-11-08T22:00:00	4	Temperatura máxima	17.9
149031	7	Sololá	712	San Antonio Palopó	9	San Antonio Palopo	1	Enero	2023-01-19T00:00:00	2024-11-08T22:00:00	3	Temperatura mínima	17.5
149032	7	Sololá	712	San Antonio Palopó	9	San Antonio Palopo	1	Enero	2023-01-19T00:00:00	2024-11-08T22:00:00	5	Humedad	60
149033	7	Sololá	712	San Antonio Palopó	9	San Antonio Palopo	1	Enero	2023-01-19T00:00:00	2024-11-08T22:00:00	6	Velocidad del viento	16.1
149034	7	Sololá	712	San Antonio Palopó	9	San Antonio Palopo	1	Enero	2023-01-19T00:00:00	2024-11-08T22:00:00	7	Dirección del viento	16.09
149035	7	Sololá	712	San Antonio Palopó	9	San Antonio Palopo	1	Enero	2023-01-19T00:00:00	2024-11-08T22:00:00	1	Precipitación	0
149036	7	Sololá	712	San Antonio Palopó	9	San Antonio Palopo	1	Enero	2023-01-19T00:00:00	2024-11-08T22:00:00	8	Radiación solar	0
149037	7	Sololá	712	San Antonio Palopó	9	San Antonio Palopo	1	Enero	2023-01-19T00:00:00	2024-11-08T23:00:00	2	Temperatura media	17.4
149038	7	Sololá	712	San Antonio Palopó	9	San Antonio Palopo	1	Enero	2023-01-19T00:00:00	2024-11-08T23:00:00	4	Temperatura máxima	17.9
149039	7	Sololá	712	San Antonio Palopó	9	San Antonio Palopo	1	Enero	2023-01-19T00:00:00	2024-11-08T23:00:00	3	Temperatura mínima	17.4
149040	7	Sololá	712	San Antonio Palopó	9	San Antonio Palopo	1	Enero	2023-01-19T00:00:00	2024-11-08T23:00:00	5	Humedad	71
149041	7	Sololá	712	San Antonio Palopó	9	San Antonio Palopo	1	Enero	2023-01-19T00:00:00	2024-11-08T23:00:00	6	Velocidad del viento	12.9
149042	7	Sololá	712	San Antonio Palopó	9	San Antonio Palopo	1	Enero	2023-01-19T00:00:00	2024-11-08T23:00:00	7	Dirección del viento	12.87
149043	7	Sololá	712	San Antonio Palopó	9	San Antonio Palopo	1	Enero	2023-01-19T00:00:00	2024-11-08T23:00:00	1	Precipitación	0
149044	7	Sololá	712	San Antonio Palopó	9	San Antonio Palopo	1	Enero	2023-01-19T00:00:00	2024-11-08T23:00:00	8	Radiación solar	0
149045	7	Sololá	712	San Antonio Palopó	9	San Antonio Palopo	1	Enero	2023-01-20T00:00:00	2024-11-08T00:00:00	2	Temperatura media	16.3
149046	7	Sololá	712	San Antonio Palopó	9	San Antonio Palopo	1	Enero	2023-01-20T00:00:00	2024-11-08T00:00:00	4	Temperatura máxima	17.4
149047	7	Sololá	712	San Antonio Palopó	9	San Antonio Palopo	1	Enero	2023-01-20T00:00:00	2024-11-08T00:00:00	3	Temperatura mínima	16.3
149048	7	Sololá	712	San Antonio Palopó	9	San Antonio Palopo	1	Enero	2023-01-20T00:00:00	2024-11-08T00:00:00	5	Humedad	67
149049	7	Sololá	712	San Antonio Palopó	9	San Antonio Palopo	1	Enero	2023-01-20T00:00:00	2024-11-08T00:00:00	6	Velocidad del viento	9.7
149050	7	Sololá	712	San Antonio Palopó	9	San Antonio Palopo	1	Enero	2023-01-20T00:00:00	2024-11-08T00:00:00	7	Dirección del viento	9.66
149051	7	Sololá	712	San Antonio Palopó	9	San Antonio Palopo	1	Enero	2023-01-20T00:00:00	2024-11-08T00:00:00	1	Precipitación	0
149052	7	Sololá	712	San Antonio Palopó	9	San Antonio Palopo	1	Enero	2023-01-20T00:00:00	2024-11-08T00:00:00	8	Radiación solar	0
149053	7	Sololá	712	San Antonio Palopó	9	San Antonio Palopo	1	Enero	2023-01-20T00:00:00	2024-11-08T01:00:00	2	Temperatura media	16.2
149054	7	Sololá	712	San Antonio Palopó	9	San Antonio Palopo	1	Enero	2023-01-20T00:00:00	2024-11-08T01:00:00	4	Temperatura máxima	16.3
149055	7	Sololá	712	San Antonio Palopó	9	San Antonio Palopo	1	Enero	2023-01-20T00:00:00	2024-11-08T01:00:00	3	Temperatura mínima	16.2
149056	7	Sololá	712	San Antonio Palopó	9	San Antonio Palopo	1	Enero	2023-01-20T00:00:00	2024-11-08T01:00:00	5	Humedad	71
149057	7	Sololá	712	San Antonio Palopó	9	San Antonio Palopo	1	Enero	2023-01-20T00:00:00	2024-11-08T01:00:00	6	Velocidad del viento	12.9
149058	7	Sololá	712	San Antonio Palopó	9	San Antonio Palopo	1	Enero	2023-01-20T00:00:00	2024-11-08T01:00:00	7	Dirección del viento	12.87
149059	7	Sololá	712	San Antonio Palopó	9	San Antonio Palopo	1	Enero	2023-01-20T00:00:00	2024-11-08T01:00:00	1	Precipitación	0
149060	7	Sololá	712	San Antonio Palopó	9	San Antonio Palopo	1	Enero	2023-01-20T00:00:00	2024-11-08T01:00:00	8	Radiación solar	0
149061	7	Sololá	712	San Antonio Palopó	9	San Antonio Palopo	1	Enero	2023-01-20T00:00:00	2024-11-08T02:00:00	2	Temperatura media	16.2
149062	7	Sololá	712	San Antonio Palopó	9	San Antonio Palopo	1	Enero	2023-01-20T00:00:00	2024-11-08T02:00:00	4	Temperatura máxima	16.7
149063	7	Sololá	712	San Antonio Palopó	9	San Antonio Palopo	1	Enero	2023-01-20T00:00:00	2024-11-08T02:00:00	3	Temperatura mínima	15.9
149064	7	Sololá	712	San Antonio Palopó	9	San Antonio Palopo	1	Enero	2023-01-20T00:00:00	2024-11-08T02:00:00	5	Humedad	71
149065	7	Sololá	712	San Antonio Palopó	9	San Antonio Palopo	1	Enero	2023-01-20T00:00:00	2024-11-08T02:00:00	6	Velocidad del viento	9.7
149066	7	Sololá	712	San Antonio Palopó	9	San Antonio Palopo	1	Enero	2023-01-20T00:00:00	2024-11-08T02:00:00	7	Dirección del viento	9.66
149067	7	Sololá	712	San Antonio Palopó	9	San Antonio Palopo	1	Enero	2023-01-20T00:00:00	2024-11-08T02:00:00	1	Precipitación	0
149068	7	Sololá	712	San Antonio Palopó	9	San Antonio Palopo	1	Enero	2023-01-20T00:00:00	2024-11-08T02:00:00	8	Radiación solar	0
149069	7	Sololá	712	San Antonio Palopó	9	San Antonio Palopo	1	Enero	2023-01-20T00:00:00	2024-11-08T03:00:00	2	Temperatura media	15.9
149070	7	Sololá	712	San Antonio Palopó	9	San Antonio Palopo	1	Enero	2023-01-20T00:00:00	2024-11-08T03:00:00	4	Temperatura máxima	16.3
149071	7	Sololá	712	San Antonio Palopó	9	San Antonio Palopo	1	Enero	2023-01-20T00:00:00	2024-11-08T03:00:00	3	Temperatura mínima	15.9
149072	7	Sololá	712	San Antonio Palopó	9	San Antonio Palopo	1	Enero	2023-01-20T00:00:00	2024-11-08T03:00:00	5	Humedad	71
149073	7	Sololá	712	San Antonio Palopó	9	San Antonio Palopo	1	Enero	2023-01-20T00:00:00	2024-11-08T03:00:00	6	Velocidad del viento	8
149074	7	Sololá	712	San Antonio Palopó	9	San Antonio Palopo	1	Enero	2023-01-20T00:00:00	2024-11-08T03:00:00	7	Dirección del viento	8.05
149075	7	Sololá	712	San Antonio Palopó	9	San Antonio Palopo	1	Enero	2023-01-20T00:00:00	2024-11-08T03:00:00	1	Precipitación	0
149076	7	Sololá	712	San Antonio Palopó	9	San Antonio Palopo	1	Enero	2023-01-20T00:00:00	2024-11-08T03:00:00	8	Radiación solar	0
149077	7	Sololá	712	San Antonio Palopó	9	San Antonio Palopo	1	Enero	2023-01-20T00:00:00	2024-11-08T04:00:00	2	Temperatura media	15.9
149078	7	Sololá	712	San Antonio Palopó	9	San Antonio Palopo	1	Enero	2023-01-20T00:00:00	2024-11-08T04:00:00	4	Temperatura máxima	16
149079	7	Sololá	712	San Antonio Palopó	9	San Antonio Palopo	1	Enero	2023-01-20T00:00:00	2024-11-08T04:00:00	3	Temperatura mínima	15.4
149080	7	Sololá	712	San Antonio Palopó	9	San Antonio Palopo	1	Enero	2023-01-20T00:00:00	2024-11-08T04:00:00	5	Humedad	71
149081	7	Sololá	712	San Antonio Palopó	9	San Antonio Palopo	1	Enero	2023-01-20T00:00:00	2024-11-08T04:00:00	6	Velocidad del viento	8
149082	7	Sololá	712	San Antonio Palopó	9	San Antonio Palopo	1	Enero	2023-01-20T00:00:00	2024-11-08T04:00:00	7	Dirección del viento	8.05
149083	7	Sololá	712	San Antonio Palopó	9	San Antonio Palopo	1	Enero	2023-01-20T00:00:00	2024-11-08T04:00:00	1	Precipitación	0
149084	7	Sololá	712	San Antonio Palopó	9	San Antonio Palopo	1	Enero	2023-01-20T00:00:00	2024-11-08T04:00:00	8	Radiación solar	0
149085	7	Sololá	712	San Antonio Palopó	9	San Antonio Palopo	1	Enero	2023-01-20T00:00:00	2024-11-08T05:00:00	2	Temperatura media	15.4
149086	7	Sololá	712	San Antonio Palopó	9	San Antonio Palopo	1	Enero	2023-01-20T00:00:00	2024-11-08T05:00:00	4	Temperatura máxima	15.9
149087	7	Sololá	712	San Antonio Palopó	9	San Antonio Palopo	1	Enero	2023-01-20T00:00:00	2024-11-08T05:00:00	3	Temperatura mínima	15.3
149088	7	Sololá	712	San Antonio Palopó	9	San Antonio Palopo	1	Enero	2023-01-20T00:00:00	2024-11-08T05:00:00	5	Humedad	70
149089	7	Sololá	712	San Antonio Palopó	9	San Antonio Palopo	1	Enero	2023-01-20T00:00:00	2024-11-08T05:00:00	6	Velocidad del viento	8
149090	7	Sololá	712	San Antonio Palopó	9	San Antonio Palopo	1	Enero	2023-01-20T00:00:00	2024-11-08T05:00:00	7	Dirección del viento	8.05
149091	7	Sololá	712	San Antonio Palopó	9	San Antonio Palopo	1	Enero	2023-01-20T00:00:00	2024-11-08T05:00:00	1	Precipitación	0
149092	7	Sololá	712	San Antonio Palopó	9	San Antonio Palopo	1	Enero	2023-01-20T00:00:00	2024-11-08T05:00:00	8	Radiación solar	0
149093	7	Sololá	712	San Antonio Palopó	9	San Antonio Palopo	1	Enero	2023-01-20T00:00:00	2024-11-08T06:00:00	2	Temperatura media	16
149094	7	Sololá	712	San Antonio Palopó	9	San Antonio Palopo	1	Enero	2023-01-20T00:00:00	2024-11-08T06:00:00	4	Temperatura máxima	16
149095	7	Sololá	712	San Antonio Palopó	9	San Antonio Palopo	1	Enero	2023-01-20T00:00:00	2024-11-08T06:00:00	3	Temperatura mínima	15.3
149096	7	Sololá	712	San Antonio Palopó	9	San Antonio Palopo	1	Enero	2023-01-20T00:00:00	2024-11-08T06:00:00	5	Humedad	64
149097	7	Sololá	712	San Antonio Palopó	9	San Antonio Palopo	1	Enero	2023-01-20T00:00:00	2024-11-08T06:00:00	6	Velocidad del viento	6.4
149098	7	Sololá	712	San Antonio Palopó	9	San Antonio Palopo	1	Enero	2023-01-20T00:00:00	2024-11-08T06:00:00	7	Dirección del viento	6.44
149099	7	Sololá	712	San Antonio Palopó	9	San Antonio Palopo	1	Enero	2023-01-20T00:00:00	2024-11-08T06:00:00	1	Precipitación	0
149100	7	Sololá	712	San Antonio Palopó	9	San Antonio Palopo	1	Enero	2023-01-20T00:00:00	2024-11-08T06:00:00	8	Radiación solar	0
149101	7	Sololá	712	San Antonio Palopó	9	San Antonio Palopo	1	Enero	2023-01-20T00:00:00	2024-11-08T07:00:00	2	Temperatura media	15.9
149102	7	Sololá	712	San Antonio Palopó	9	San Antonio Palopo	1	Enero	2023-01-20T00:00:00	2024-11-08T07:00:00	4	Temperatura máxima	16.4
149103	7	Sololá	712	San Antonio Palopó	9	San Antonio Palopo	1	Enero	2023-01-20T00:00:00	2024-11-08T07:00:00	3	Temperatura mínima	15.8
149104	7	Sololá	712	San Antonio Palopó	9	San Antonio Palopo	1	Enero	2023-01-20T00:00:00	2024-11-08T07:00:00	5	Humedad	65
149105	7	Sololá	712	San Antonio Palopó	9	San Antonio Palopo	1	Enero	2023-01-20T00:00:00	2024-11-08T07:00:00	6	Velocidad del viento	9.7
149106	7	Sololá	712	San Antonio Palopó	9	San Antonio Palopo	1	Enero	2023-01-20T00:00:00	2024-11-08T07:00:00	7	Dirección del viento	9.66
149107	7	Sololá	712	San Antonio Palopó	9	San Antonio Palopo	1	Enero	2023-01-20T00:00:00	2024-11-08T07:00:00	1	Precipitación	0
149108	7	Sololá	712	San Antonio Palopó	9	San Antonio Palopo	1	Enero	2023-01-20T00:00:00	2024-11-08T07:00:00	8	Radiación solar	3
149109	7	Sololá	712	San Antonio Palopó	9	San Antonio Palopo	1	Enero	2023-01-20T00:00:00	2024-11-08T08:00:00	2	Temperatura media	15.5
149110	7	Sololá	712	San Antonio Palopó	9	San Antonio Palopo	1	Enero	2023-01-20T00:00:00	2024-11-08T08:00:00	4	Temperatura máxima	16.1
149111	7	Sololá	712	San Antonio Palopó	9	San Antonio Palopo	1	Enero	2023-01-20T00:00:00	2024-11-08T08:00:00	3	Temperatura mínima	15.4
149112	7	Sololá	712	San Antonio Palopó	9	San Antonio Palopo	1	Enero	2023-01-20T00:00:00	2024-11-08T08:00:00	5	Humedad	71
149113	7	Sololá	712	San Antonio Palopó	9	San Antonio Palopo	1	Enero	2023-01-20T00:00:00	2024-11-08T08:00:00	6	Velocidad del viento	4.8
149114	7	Sololá	712	San Antonio Palopó	9	San Antonio Palopo	1	Enero	2023-01-20T00:00:00	2024-11-08T08:00:00	7	Dirección del viento	4.83
149115	7	Sololá	712	San Antonio Palopó	9	San Antonio Palopo	1	Enero	2023-01-20T00:00:00	2024-11-08T08:00:00	1	Precipitación	0
149116	7	Sololá	712	San Antonio Palopó	9	San Antonio Palopo	1	Enero	2023-01-20T00:00:00	2024-11-08T08:00:00	8	Radiación solar	17
149117	7	Sololá	712	San Antonio Palopó	9	San Antonio Palopo	1	Enero	2023-01-20T00:00:00	2024-11-08T09:00:00	2	Temperatura media	17.2
149118	7	Sololá	712	San Antonio Palopó	9	San Antonio Palopo	1	Enero	2023-01-20T00:00:00	2024-11-08T09:00:00	4	Temperatura máxima	17.2
149119	7	Sololá	712	San Antonio Palopó	9	San Antonio Palopo	1	Enero	2023-01-20T00:00:00	2024-11-08T09:00:00	3	Temperatura mínima	14.8
149120	7	Sololá	712	San Antonio Palopó	9	San Antonio Palopo	1	Enero	2023-01-20T00:00:00	2024-11-08T09:00:00	5	Humedad	67
149121	7	Sololá	712	San Antonio Palopó	9	San Antonio Palopo	1	Enero	2023-01-20T00:00:00	2024-11-08T09:00:00	6	Velocidad del viento	3.2
149122	7	Sololá	712	San Antonio Palopó	9	San Antonio Palopo	1	Enero	2023-01-20T00:00:00	2024-11-08T09:00:00	7	Dirección del viento	3.22
149123	7	Sololá	712	San Antonio Palopó	9	San Antonio Palopo	1	Enero	2023-01-20T00:00:00	2024-11-08T09:00:00	1	Precipitación	0
149124	7	Sololá	712	San Antonio Palopó	9	San Antonio Palopo	1	Enero	2023-01-20T00:00:00	2024-11-08T09:00:00	8	Radiación solar	134
149125	7	Sololá	712	San Antonio Palopó	9	San Antonio Palopo	1	Enero	2023-01-20T00:00:00	2024-11-08T10:00:00	2	Temperatura media	18.8
149126	7	Sololá	712	San Antonio Palopó	9	San Antonio Palopo	1	Enero	2023-01-20T00:00:00	2024-11-08T10:00:00	4	Temperatura máxima	19.6
149127	7	Sololá	712	San Antonio Palopó	9	San Antonio Palopo	1	Enero	2023-01-20T00:00:00	2024-11-08T10:00:00	3	Temperatura mínima	17.2
149128	7	Sololá	712	San Antonio Palopó	9	San Antonio Palopo	1	Enero	2023-01-20T00:00:00	2024-11-08T10:00:00	5	Humedad	67
149129	7	Sololá	712	San Antonio Palopó	9	San Antonio Palopo	1	Enero	2023-01-20T00:00:00	2024-11-08T10:00:00	6	Velocidad del viento	3.2
149130	7	Sololá	712	San Antonio Palopó	9	San Antonio Palopo	1	Enero	2023-01-20T00:00:00	2024-11-08T10:00:00	7	Dirección del viento	3.22
149131	7	Sololá	712	San Antonio Palopó	9	San Antonio Palopo	1	Enero	2023-01-20T00:00:00	2024-11-08T10:00:00	1	Precipitación	0
149132	7	Sololá	712	San Antonio Palopó	9	San Antonio Palopo	1	Enero	2023-01-20T00:00:00	2024-11-08T10:00:00	8	Radiación solar	516
149133	7	Sololá	712	San Antonio Palopó	9	San Antonio Palopo	1	Enero	2023-01-20T00:00:00	2024-11-08T11:00:00	2	Temperatura media	23.2
149134	7	Sololá	712	San Antonio Palopó	9	San Antonio Palopo	1	Enero	2023-01-20T00:00:00	2024-11-08T11:00:00	4	Temperatura máxima	23.2
149135	7	Sololá	712	San Antonio Palopó	9	San Antonio Palopo	1	Enero	2023-01-20T00:00:00	2024-11-08T11:00:00	3	Temperatura mínima	18.8
149136	7	Sololá	712	San Antonio Palopó	9	San Antonio Palopo	1	Enero	2023-01-20T00:00:00	2024-11-08T11:00:00	5	Humedad	46
149137	7	Sololá	712	San Antonio Palopó	9	San Antonio Palopo	1	Enero	2023-01-20T00:00:00	2024-11-08T11:00:00	6	Velocidad del viento	4.8
149138	7	Sololá	712	San Antonio Palopó	9	San Antonio Palopo	1	Enero	2023-01-20T00:00:00	2024-11-08T11:00:00	7	Dirección del viento	4.83
149139	7	Sololá	712	San Antonio Palopó	9	San Antonio Palopo	1	Enero	2023-01-20T00:00:00	2024-11-08T11:00:00	1	Precipitación	0
149140	7	Sololá	712	San Antonio Palopó	9	San Antonio Palopo	1	Enero	2023-01-20T00:00:00	2024-11-08T11:00:00	8	Radiación solar	661
149141	7	Sololá	712	San Antonio Palopó	9	San Antonio Palopo	1	Enero	2023-01-20T00:00:00	2024-11-08T12:00:00	2	Temperatura media	23.8
149142	7	Sololá	712	San Antonio Palopó	9	San Antonio Palopo	1	Enero	2023-01-20T00:00:00	2024-11-08T12:00:00	4	Temperatura máxima	24
149143	7	Sololá	712	San Antonio Palopó	9	San Antonio Palopo	1	Enero	2023-01-20T00:00:00	2024-11-08T12:00:00	3	Temperatura mínima	23
149144	7	Sololá	712	San Antonio Palopó	9	San Antonio Palopo	1	Enero	2023-01-20T00:00:00	2024-11-08T12:00:00	5	Humedad	40
149145	7	Sololá	712	San Antonio Palopó	9	San Antonio Palopo	1	Enero	2023-01-20T00:00:00	2024-11-08T12:00:00	6	Velocidad del viento	12.9
149146	7	Sololá	712	San Antonio Palopó	9	San Antonio Palopo	1	Enero	2023-01-20T00:00:00	2024-11-08T12:00:00	7	Dirección del viento	12.87
149147	7	Sololá	712	San Antonio Palopó	9	San Antonio Palopo	1	Enero	2023-01-20T00:00:00	2024-11-08T12:00:00	1	Precipitación	0
149148	7	Sololá	712	San Antonio Palopó	9	San Antonio Palopo	1	Enero	2023-01-20T00:00:00	2024-11-08T12:00:00	8	Radiación solar	654
149149	7	Sololá	712	San Antonio Palopó	9	San Antonio Palopo	1	Enero	2023-01-20T00:00:00	2024-11-08T13:00:00	2	Temperatura media	22.3
149150	7	Sololá	712	San Antonio Palopó	9	San Antonio Palopo	1	Enero	2023-01-20T00:00:00	2024-11-08T13:00:00	4	Temperatura máxima	25.2
149151	7	Sololá	712	San Antonio Palopó	9	San Antonio Palopo	1	Enero	2023-01-20T00:00:00	2024-11-08T13:00:00	3	Temperatura mínima	22.3
149152	7	Sololá	712	San Antonio Palopó	9	San Antonio Palopo	1	Enero	2023-01-20T00:00:00	2024-11-08T13:00:00	5	Humedad	58
149153	7	Sololá	712	San Antonio Palopó	9	San Antonio Palopo	1	Enero	2023-01-20T00:00:00	2024-11-08T13:00:00	6	Velocidad del viento	11.3
149154	7	Sololá	712	San Antonio Palopó	9	San Antonio Palopo	1	Enero	2023-01-20T00:00:00	2024-11-08T13:00:00	7	Dirección del viento	11.27
149155	7	Sololá	712	San Antonio Palopó	9	San Antonio Palopo	1	Enero	2023-01-20T00:00:00	2024-11-08T13:00:00	1	Precipitación	0
149156	7	Sololá	712	San Antonio Palopó	9	San Antonio Palopo	1	Enero	2023-01-20T00:00:00	2024-11-08T13:00:00	8	Radiación solar	756
149157	7	Sololá	712	San Antonio Palopó	9	San Antonio Palopo	1	Enero	2023-01-20T00:00:00	2024-11-08T14:00:00	2	Temperatura media	21.9
149158	7	Sololá	712	San Antonio Palopó	9	San Antonio Palopo	1	Enero	2023-01-20T00:00:00	2024-11-08T14:00:00	4	Temperatura máxima	22.7
149159	7	Sololá	712	San Antonio Palopó	9	San Antonio Palopo	1	Enero	2023-01-20T00:00:00	2024-11-08T14:00:00	3	Temperatura mínima	21.8
149160	7	Sololá	712	San Antonio Palopó	9	San Antonio Palopo	1	Enero	2023-01-20T00:00:00	2024-11-08T14:00:00	5	Humedad	67
149161	7	Sololá	712	San Antonio Palopó	9	San Antonio Palopo	1	Enero	2023-01-20T00:00:00	2024-11-08T14:00:00	6	Velocidad del viento	17.7
149162	7	Sololá	712	San Antonio Palopó	9	San Antonio Palopo	1	Enero	2023-01-20T00:00:00	2024-11-08T14:00:00	7	Dirección del viento	17.7
149163	7	Sololá	712	San Antonio Palopó	9	San Antonio Palopo	1	Enero	2023-01-20T00:00:00	2024-11-08T14:00:00	1	Precipitación	0
149164	7	Sololá	712	San Antonio Palopó	9	San Antonio Palopo	1	Enero	2023-01-20T00:00:00	2024-11-08T14:00:00	8	Radiación solar	694
149165	7	Sololá	712	San Antonio Palopó	9	San Antonio Palopo	1	Enero	2023-01-20T00:00:00	2024-11-08T15:00:00	2	Temperatura media	22.1
149166	7	Sololá	712	San Antonio Palopó	9	San Antonio Palopo	1	Enero	2023-01-20T00:00:00	2024-11-08T15:00:00	4	Temperatura máxima	22.3
149167	7	Sololá	712	San Antonio Palopó	9	San Antonio Palopo	1	Enero	2023-01-20T00:00:00	2024-11-08T15:00:00	3	Temperatura mínima	21.5
149168	7	Sololá	712	San Antonio Palopó	9	San Antonio Palopo	1	Enero	2023-01-20T00:00:00	2024-11-08T15:00:00	5	Humedad	67
149169	7	Sololá	712	San Antonio Palopó	9	San Antonio Palopo	1	Enero	2023-01-20T00:00:00	2024-11-08T15:00:00	6	Velocidad del viento	20.9
149170	7	Sololá	712	San Antonio Palopó	9	San Antonio Palopo	1	Enero	2023-01-20T00:00:00	2024-11-08T15:00:00	7	Dirección del viento	20.92
149171	7	Sololá	712	San Antonio Palopó	9	San Antonio Palopo	1	Enero	2023-01-20T00:00:00	2024-11-08T15:00:00	1	Precipitación	0
149172	7	Sololá	712	San Antonio Palopó	9	San Antonio Palopo	1	Enero	2023-01-20T00:00:00	2024-11-08T15:00:00	8	Radiación solar	597
149173	7	Sololá	712	San Antonio Palopó	9	San Antonio Palopo	1	Enero	2023-01-20T00:00:00	2024-11-08T16:00:00	2	Temperatura media	21.6
149174	7	Sololá	712	San Antonio Palopó	9	San Antonio Palopo	1	Enero	2023-01-20T00:00:00	2024-11-08T16:00:00	4	Temperatura máxima	22.6
149175	7	Sololá	712	San Antonio Palopó	9	San Antonio Palopo	1	Enero	2023-01-20T00:00:00	2024-11-08T16:00:00	3	Temperatura mínima	21.6
149176	7	Sololá	712	San Antonio Palopó	9	San Antonio Palopo	1	Enero	2023-01-20T00:00:00	2024-11-08T16:00:00	5	Humedad	71
149177	7	Sololá	712	San Antonio Palopó	9	San Antonio Palopo	1	Enero	2023-01-20T00:00:00	2024-11-08T16:00:00	6	Velocidad del viento	11.3
149178	7	Sololá	712	San Antonio Palopó	9	San Antonio Palopo	1	Enero	2023-01-20T00:00:00	2024-11-08T16:00:00	7	Dirección del viento	11.27
149179	7	Sololá	712	San Antonio Palopó	9	San Antonio Palopo	1	Enero	2023-01-20T00:00:00	2024-11-08T16:00:00	1	Precipitación	0
149180	7	Sololá	712	San Antonio Palopó	9	San Antonio Palopo	1	Enero	2023-01-20T00:00:00	2024-11-08T16:00:00	8	Radiación solar	419
149181	7	Sololá	712	San Antonio Palopó	9	San Antonio Palopo	1	Enero	2023-01-20T00:00:00	2024-11-08T17:00:00	2	Temperatura media	20.6
149182	7	Sololá	712	San Antonio Palopó	9	San Antonio Palopo	1	Enero	2023-01-20T00:00:00	2024-11-08T17:00:00	4	Temperatura máxima	21.6
149183	7	Sololá	712	San Antonio Palopó	9	San Antonio Palopo	1	Enero	2023-01-20T00:00:00	2024-11-08T17:00:00	3	Temperatura mínima	20.4
149184	7	Sololá	712	San Antonio Palopó	9	San Antonio Palopo	1	Enero	2023-01-20T00:00:00	2024-11-08T17:00:00	5	Humedad	75
149185	7	Sololá	712	San Antonio Palopó	9	San Antonio Palopo	1	Enero	2023-01-20T00:00:00	2024-11-08T17:00:00	6	Velocidad del viento	11.3
149186	7	Sololá	712	San Antonio Palopó	9	San Antonio Palopo	1	Enero	2023-01-20T00:00:00	2024-11-08T17:00:00	7	Dirección del viento	11.27
149187	7	Sololá	712	San Antonio Palopó	9	San Antonio Palopo	1	Enero	2023-01-20T00:00:00	2024-11-08T17:00:00	1	Precipitación	0
149188	7	Sololá	712	San Antonio Palopó	9	San Antonio Palopo	1	Enero	2023-01-20T00:00:00	2024-11-08T17:00:00	8	Radiación solar	248
149189	7	Sololá	712	San Antonio Palopó	9	San Antonio Palopo	1	Enero	2023-01-20T00:00:00	2024-11-08T18:00:00	2	Temperatura media	19
149190	7	Sololá	712	San Antonio Palopó	9	San Antonio Palopo	1	Enero	2023-01-20T00:00:00	2024-11-08T18:00:00	4	Temperatura máxima	20.7
149191	7	Sololá	712	San Antonio Palopó	9	San Antonio Palopo	1	Enero	2023-01-20T00:00:00	2024-11-08T18:00:00	3	Temperatura mínima	19
149192	7	Sololá	712	San Antonio Palopó	9	San Antonio Palopo	1	Enero	2023-01-20T00:00:00	2024-11-08T18:00:00	5	Humedad	80
149193	7	Sololá	712	San Antonio Palopó	9	San Antonio Palopo	1	Enero	2023-01-20T00:00:00	2024-11-08T18:00:00	6	Velocidad del viento	4.8
149194	7	Sololá	712	San Antonio Palopó	9	San Antonio Palopo	1	Enero	2023-01-20T00:00:00	2024-11-08T18:00:00	7	Dirección del viento	4.83
149195	7	Sololá	712	San Antonio Palopó	9	San Antonio Palopo	1	Enero	2023-01-20T00:00:00	2024-11-08T18:00:00	1	Precipitación	0
149196	7	Sololá	712	San Antonio Palopó	9	San Antonio Palopo	1	Enero	2023-01-20T00:00:00	2024-11-08T18:00:00	8	Radiación solar	45
149197	7	Sololá	712	San Antonio Palopó	9	San Antonio Palopo	1	Enero	2023-01-20T00:00:00	2024-11-08T19:00:00	2	Temperatura media	17.6
149198	7	Sololá	712	San Antonio Palopó	9	San Antonio Palopo	1	Enero	2023-01-20T00:00:00	2024-11-08T19:00:00	4	Temperatura máxima	19
149199	7	Sololá	712	San Antonio Palopó	9	San Antonio Palopo	1	Enero	2023-01-20T00:00:00	2024-11-08T19:00:00	3	Temperatura mínima	17.6
149200	7	Sololá	712	San Antonio Palopó	9	San Antonio Palopo	1	Enero	2023-01-20T00:00:00	2024-11-08T19:00:00	5	Humedad	80
149201	7	Sololá	712	San Antonio Palopó	9	San Antonio Palopo	1	Enero	2023-01-20T00:00:00	2024-11-08T19:00:00	6	Velocidad del viento	3.2
149202	7	Sololá	712	San Antonio Palopó	9	San Antonio Palopo	1	Enero	2023-01-20T00:00:00	2024-11-08T19:00:00	7	Dirección del viento	3.22
149203	7	Sololá	712	San Antonio Palopó	9	San Antonio Palopo	1	Enero	2023-01-20T00:00:00	2024-11-08T19:00:00	1	Precipitación	0
149204	7	Sololá	712	San Antonio Palopó	9	San Antonio Palopo	1	Enero	2023-01-20T00:00:00	2024-11-08T19:00:00	8	Radiación solar	0
149205	7	Sololá	712	San Antonio Palopó	9	San Antonio Palopo	1	Enero	2023-01-20T00:00:00	2024-11-08T20:00:00	2	Temperatura media	17.6
149206	7	Sololá	712	San Antonio Palopó	9	San Antonio Palopo	1	Enero	2023-01-20T00:00:00	2024-11-08T20:00:00	4	Temperatura máxima	17.6
149207	7	Sololá	712	San Antonio Palopó	9	San Antonio Palopo	1	Enero	2023-01-20T00:00:00	2024-11-08T20:00:00	3	Temperatura mínima	17.3
149208	7	Sololá	712	San Antonio Palopó	9	San Antonio Palopo	1	Enero	2023-01-20T00:00:00	2024-11-08T20:00:00	5	Humedad	84
149209	7	Sololá	712	San Antonio Palopó	9	San Antonio Palopo	1	Enero	2023-01-20T00:00:00	2024-11-08T20:00:00	6	Velocidad del viento	3.2
149210	7	Sololá	712	San Antonio Palopó	9	San Antonio Palopo	1	Enero	2023-01-20T00:00:00	2024-11-08T20:00:00	7	Dirección del viento	3.22
149211	7	Sololá	712	San Antonio Palopó	9	San Antonio Palopo	1	Enero	2023-01-20T00:00:00	2024-11-08T20:00:00	1	Precipitación	0
149212	7	Sololá	712	San Antonio Palopó	9	San Antonio Palopo	1	Enero	2023-01-20T00:00:00	2024-11-08T20:00:00	8	Radiación solar	0
149213	7	Sololá	712	San Antonio Palopó	9	San Antonio Palopo	1	Enero	2023-01-20T00:00:00	2024-11-08T21:00:00	2	Temperatura media	18.6
149214	7	Sololá	712	San Antonio Palopó	9	San Antonio Palopo	1	Enero	2023-01-20T00:00:00	2024-11-08T21:00:00	4	Temperatura máxima	18.7
149215	7	Sololá	712	San Antonio Palopó	9	San Antonio Palopo	1	Enero	2023-01-20T00:00:00	2024-11-08T21:00:00	3	Temperatura mínima	17.6
149216	7	Sololá	712	San Antonio Palopó	9	San Antonio Palopo	1	Enero	2023-01-20T00:00:00	2024-11-08T21:00:00	5	Humedad	75
149217	7	Sololá	712	San Antonio Palopó	9	San Antonio Palopo	1	Enero	2023-01-20T00:00:00	2024-11-08T21:00:00	6	Velocidad del viento	3.2
149218	7	Sololá	712	San Antonio Palopó	9	San Antonio Palopo	1	Enero	2023-01-20T00:00:00	2024-11-08T21:00:00	7	Dirección del viento	3.22
149219	7	Sololá	712	San Antonio Palopó	9	San Antonio Palopo	1	Enero	2023-01-20T00:00:00	2024-11-08T21:00:00	1	Precipitación	0
149220	7	Sololá	712	San Antonio Palopó	9	San Antonio Palopo	1	Enero	2023-01-20T00:00:00	2024-11-08T21:00:00	8	Radiación solar	0
149221	7	Sololá	712	San Antonio Palopó	9	San Antonio Palopo	1	Enero	2023-01-20T00:00:00	2024-11-08T22:00:00	2	Temperatura media	18.2
149222	7	Sololá	712	San Antonio Palopó	9	San Antonio Palopo	1	Enero	2023-01-20T00:00:00	2024-11-08T22:00:00	4	Temperatura máxima	18.7
149223	7	Sololá	712	San Antonio Palopó	9	San Antonio Palopo	1	Enero	2023-01-20T00:00:00	2024-11-08T22:00:00	3	Temperatura mínima	18.1
149224	7	Sololá	712	San Antonio Palopó	9	San Antonio Palopo	1	Enero	2023-01-20T00:00:00	2024-11-08T22:00:00	5	Humedad	73
149225	7	Sololá	712	San Antonio Palopó	9	San Antonio Palopo	1	Enero	2023-01-20T00:00:00	2024-11-08T22:00:00	6	Velocidad del viento	4.8
149226	7	Sololá	712	San Antonio Palopó	9	San Antonio Palopo	1	Enero	2023-01-20T00:00:00	2024-11-08T22:00:00	7	Dirección del viento	4.83
149227	7	Sololá	712	San Antonio Palopó	9	San Antonio Palopo	1	Enero	2023-01-20T00:00:00	2024-11-08T22:00:00	1	Precipitación	0
149228	7	Sololá	712	San Antonio Palopó	9	San Antonio Palopo	1	Enero	2023-01-20T00:00:00	2024-11-08T22:00:00	8	Radiación solar	0
149229	7	Sololá	712	San Antonio Palopó	9	San Antonio Palopo	1	Enero	2023-01-20T00:00:00	2024-11-08T23:00:00	2	Temperatura media	18.1
149230	7	Sololá	712	San Antonio Palopó	9	San Antonio Palopo	1	Enero	2023-01-20T00:00:00	2024-11-08T23:00:00	4	Temperatura máxima	18.7
149231	7	Sololá	712	San Antonio Palopó	9	San Antonio Palopo	1	Enero	2023-01-20T00:00:00	2024-11-08T23:00:00	3	Temperatura mínima	17.9
149232	7	Sololá	712	San Antonio Palopó	9	San Antonio Palopo	1	Enero	2023-01-20T00:00:00	2024-11-08T23:00:00	5	Humedad	72
149233	7	Sololá	712	San Antonio Palopó	9	San Antonio Palopo	1	Enero	2023-01-20T00:00:00	2024-11-08T23:00:00	6	Velocidad del viento	6.4
149234	7	Sololá	712	San Antonio Palopó	9	San Antonio Palopo	1	Enero	2023-01-20T00:00:00	2024-11-08T23:00:00	7	Dirección del viento	6.44
149235	7	Sololá	712	San Antonio Palopó	9	San Antonio Palopo	1	Enero	2023-01-20T00:00:00	2024-11-08T23:00:00	1	Precipitación	0
149236	7	Sololá	712	San Antonio Palopó	9	San Antonio Palopo	1	Enero	2023-01-20T00:00:00	2024-11-08T23:00:00	8	Radiación solar	0
149237	7	Sololá	712	San Antonio Palopó	9	San Antonio Palopo	1	Enero	2023-01-21T00:00:00	2024-11-08T00:00:00	2	Temperatura media	17.8
149238	7	Sololá	712	San Antonio Palopó	9	San Antonio Palopo	1	Enero	2023-01-21T00:00:00	2024-11-08T00:00:00	4	Temperatura máxima	18.1
149239	7	Sololá	712	San Antonio Palopó	9	San Antonio Palopo	1	Enero	2023-01-21T00:00:00	2024-11-08T00:00:00	3	Temperatura mínima	17.8
149240	7	Sololá	712	San Antonio Palopó	9	San Antonio Palopo	1	Enero	2023-01-21T00:00:00	2024-11-08T00:00:00	5	Humedad	72
149241	7	Sololá	712	San Antonio Palopó	9	San Antonio Palopo	1	Enero	2023-01-21T00:00:00	2024-11-08T00:00:00	6	Velocidad del viento	8
149242	7	Sololá	712	San Antonio Palopó	9	San Antonio Palopo	1	Enero	2023-01-21T00:00:00	2024-11-08T00:00:00	7	Dirección del viento	8.05
149243	7	Sololá	712	San Antonio Palopó	9	San Antonio Palopo	1	Enero	2023-01-21T00:00:00	2024-11-08T00:00:00	1	Precipitación	0
149244	7	Sololá	712	San Antonio Palopó	9	San Antonio Palopo	1	Enero	2023-01-21T00:00:00	2024-11-08T00:00:00	8	Radiación solar	0
149245	7	Sololá	712	San Antonio Palopó	9	San Antonio Palopo	1	Enero	2023-01-21T00:00:00	2024-11-08T01:00:00	2	Temperatura media	17.4
149246	7	Sololá	712	San Antonio Palopó	9	San Antonio Palopo	1	Enero	2023-01-21T00:00:00	2024-11-08T01:00:00	4	Temperatura máxima	17.8
149247	7	Sololá	712	San Antonio Palopó	9	San Antonio Palopo	1	Enero	2023-01-21T00:00:00	2024-11-08T01:00:00	3	Temperatura mínima	17.4
149248	7	Sololá	712	San Antonio Palopó	9	San Antonio Palopo	1	Enero	2023-01-21T00:00:00	2024-11-08T01:00:00	5	Humedad	72
149249	7	Sololá	712	San Antonio Palopó	9	San Antonio Palopo	1	Enero	2023-01-21T00:00:00	2024-11-08T01:00:00	6	Velocidad del viento	9.7
149250	7	Sololá	712	San Antonio Palopó	9	San Antonio Palopo	1	Enero	2023-01-21T00:00:00	2024-11-08T01:00:00	7	Dirección del viento	9.66
149251	7	Sololá	712	San Antonio Palopó	9	San Antonio Palopo	1	Enero	2023-01-21T00:00:00	2024-11-08T01:00:00	1	Precipitación	0
149252	7	Sololá	712	San Antonio Palopó	9	San Antonio Palopo	1	Enero	2023-01-21T00:00:00	2024-11-08T01:00:00	8	Radiación solar	0
149253	7	Sololá	712	San Antonio Palopó	9	San Antonio Palopo	1	Enero	2023-01-21T00:00:00	2024-11-08T02:00:00	2	Temperatura media	17.2
149254	7	Sololá	712	San Antonio Palopó	9	San Antonio Palopo	1	Enero	2023-01-21T00:00:00	2024-11-08T02:00:00	4	Temperatura máxima	17.4
149255	7	Sololá	712	San Antonio Palopó	9	San Antonio Palopo	1	Enero	2023-01-21T00:00:00	2024-11-08T02:00:00	3	Temperatura mínima	17.1
149256	7	Sololá	712	San Antonio Palopó	9	San Antonio Palopo	1	Enero	2023-01-21T00:00:00	2024-11-08T02:00:00	5	Humedad	72
149257	7	Sololá	712	San Antonio Palopó	9	San Antonio Palopo	1	Enero	2023-01-21T00:00:00	2024-11-08T02:00:00	6	Velocidad del viento	11.3
149258	7	Sololá	712	San Antonio Palopó	9	San Antonio Palopo	1	Enero	2023-01-21T00:00:00	2024-11-08T02:00:00	7	Dirección del viento	11.27
149259	7	Sololá	712	San Antonio Palopó	9	San Antonio Palopo	1	Enero	2023-01-21T00:00:00	2024-11-08T02:00:00	1	Precipitación	0
149260	7	Sololá	712	San Antonio Palopó	9	San Antonio Palopo	1	Enero	2023-01-21T00:00:00	2024-11-08T02:00:00	8	Radiación solar	0
149261	7	Sololá	712	San Antonio Palopó	9	San Antonio Palopo	1	Enero	2023-01-21T00:00:00	2024-11-08T03:00:00	2	Temperatura media	16.6
149262	7	Sololá	712	San Antonio Palopó	9	San Antonio Palopo	1	Enero	2023-01-21T00:00:00	2024-11-08T03:00:00	4	Temperatura máxima	17.2
149263	7	Sololá	712	San Antonio Palopó	9	San Antonio Palopo	1	Enero	2023-01-21T00:00:00	2024-11-08T03:00:00	3	Temperatura mínima	16.6
149264	7	Sololá	712	San Antonio Palopó	9	San Antonio Palopo	1	Enero	2023-01-21T00:00:00	2024-11-08T03:00:00	5	Humedad	74
149265	7	Sololá	712	San Antonio Palopó	9	San Antonio Palopo	1	Enero	2023-01-21T00:00:00	2024-11-08T03:00:00	6	Velocidad del viento	12.9
149266	7	Sololá	712	San Antonio Palopó	9	San Antonio Palopo	1	Enero	2023-01-21T00:00:00	2024-11-08T03:00:00	7	Dirección del viento	12.87
149267	7	Sololá	712	San Antonio Palopó	9	San Antonio Palopo	1	Enero	2023-01-21T00:00:00	2024-11-08T03:00:00	1	Precipitación	0
149268	7	Sololá	712	San Antonio Palopó	9	San Antonio Palopo	1	Enero	2023-01-21T00:00:00	2024-11-08T03:00:00	8	Radiación solar	0
149269	7	Sololá	712	San Antonio Palopó	9	San Antonio Palopo	1	Enero	2023-01-21T00:00:00	2024-11-08T04:00:00	2	Temperatura media	17
149270	7	Sololá	712	San Antonio Palopó	9	San Antonio Palopo	1	Enero	2023-01-21T00:00:00	2024-11-08T04:00:00	4	Temperatura máxima	17.1
149271	7	Sololá	712	San Antonio Palopó	9	San Antonio Palopo	1	Enero	2023-01-21T00:00:00	2024-11-08T04:00:00	3	Temperatura mínima	16.4
149272	7	Sololá	712	San Antonio Palopó	9	San Antonio Palopo	1	Enero	2023-01-21T00:00:00	2024-11-08T04:00:00	5	Humedad	71
149273	7	Sololá	712	San Antonio Palopó	9	San Antonio Palopo	1	Enero	2023-01-21T00:00:00	2024-11-08T04:00:00	6	Velocidad del viento	16.1
149274	7	Sololá	712	San Antonio Palopó	9	San Antonio Palopo	1	Enero	2023-01-21T00:00:00	2024-11-08T04:00:00	7	Dirección del viento	16.09
149275	7	Sololá	712	San Antonio Palopó	9	San Antonio Palopo	1	Enero	2023-01-21T00:00:00	2024-11-08T04:00:00	1	Precipitación	0
149276	7	Sololá	712	San Antonio Palopó	9	San Antonio Palopo	1	Enero	2023-01-21T00:00:00	2024-11-08T04:00:00	8	Radiación solar	0
149277	7	Sololá	712	San Antonio Palopó	9	San Antonio Palopo	1	Enero	2023-01-21T00:00:00	2024-11-08T05:00:00	2	Temperatura media	16.8
149278	7	Sololá	712	San Antonio Palopó	9	San Antonio Palopo	1	Enero	2023-01-21T00:00:00	2024-11-08T05:00:00	4	Temperatura máxima	17.1
149279	7	Sololá	712	San Antonio Palopó	9	San Antonio Palopo	1	Enero	2023-01-21T00:00:00	2024-11-08T05:00:00	3	Temperatura mínima	16.6
149280	7	Sololá	712	San Antonio Palopó	9	San Antonio Palopo	1	Enero	2023-01-21T00:00:00	2024-11-08T05:00:00	5	Humedad	72
149281	7	Sololá	712	San Antonio Palopó	9	San Antonio Palopo	1	Enero	2023-01-21T00:00:00	2024-11-08T05:00:00	6	Velocidad del viento	9.7
149282	7	Sololá	712	San Antonio Palopó	9	San Antonio Palopo	1	Enero	2023-01-21T00:00:00	2024-11-08T05:00:00	7	Dirección del viento	9.66
149283	7	Sololá	712	San Antonio Palopó	9	San Antonio Palopo	1	Enero	2023-01-21T00:00:00	2024-11-08T05:00:00	1	Precipitación	0
149284	7	Sololá	712	San Antonio Palopó	9	San Antonio Palopo	1	Enero	2023-01-21T00:00:00	2024-11-08T05:00:00	8	Radiación solar	0
149285	7	Sololá	712	San Antonio Palopó	9	San Antonio Palopo	1	Enero	2023-01-21T00:00:00	2024-11-08T06:00:00	2	Temperatura media	15.8
149286	7	Sololá	712	San Antonio Palopó	9	San Antonio Palopo	1	Enero	2023-01-21T00:00:00	2024-11-08T06:00:00	4	Temperatura máxima	16.8
149287	7	Sololá	712	San Antonio Palopó	9	San Antonio Palopo	1	Enero	2023-01-21T00:00:00	2024-11-08T06:00:00	3	Temperatura mínima	15.8
149288	7	Sololá	712	San Antonio Palopó	9	San Antonio Palopo	1	Enero	2023-01-21T00:00:00	2024-11-08T06:00:00	5	Humedad	76
149289	7	Sololá	712	San Antonio Palopó	9	San Antonio Palopo	1	Enero	2023-01-21T00:00:00	2024-11-08T06:00:00	6	Velocidad del viento	14.5
149290	7	Sololá	712	San Antonio Palopó	9	San Antonio Palopo	1	Enero	2023-01-21T00:00:00	2024-11-08T06:00:00	7	Dirección del viento	14.48
149291	7	Sololá	712	San Antonio Palopó	9	San Antonio Palopo	1	Enero	2023-01-21T00:00:00	2024-11-08T06:00:00	1	Precipitación	0
149292	7	Sololá	712	San Antonio Palopó	9	San Antonio Palopo	1	Enero	2023-01-21T00:00:00	2024-11-08T06:00:00	8	Radiación solar	0
149293	7	Sololá	712	San Antonio Palopó	9	San Antonio Palopo	1	Enero	2023-01-21T00:00:00	2024-11-08T07:00:00	2	Temperatura media	15.6
149294	7	Sololá	712	San Antonio Palopó	9	San Antonio Palopo	1	Enero	2023-01-21T00:00:00	2024-11-08T07:00:00	4	Temperatura máxima	15.8
149295	7	Sololá	712	San Antonio Palopó	9	San Antonio Palopo	1	Enero	2023-01-21T00:00:00	2024-11-08T07:00:00	3	Temperatura mínima	15.5
149296	7	Sololá	712	San Antonio Palopó	9	San Antonio Palopo	1	Enero	2023-01-21T00:00:00	2024-11-08T07:00:00	5	Humedad	76
149297	7	Sololá	712	San Antonio Palopó	9	San Antonio Palopo	1	Enero	2023-01-21T00:00:00	2024-11-08T07:00:00	6	Velocidad del viento	17.7
149298	7	Sololá	712	San Antonio Palopó	9	San Antonio Palopo	1	Enero	2023-01-21T00:00:00	2024-11-08T07:00:00	7	Dirección del viento	17.7
149299	7	Sololá	712	San Antonio Palopó	9	San Antonio Palopo	1	Enero	2023-01-21T00:00:00	2024-11-08T07:00:00	1	Precipitación	0
149300	7	Sololá	712	San Antonio Palopó	9	San Antonio Palopo	1	Enero	2023-01-21T00:00:00	2024-11-08T07:00:00	8	Radiación solar	3
149301	7	Sololá	712	San Antonio Palopó	9	San Antonio Palopo	1	Enero	2023-01-21T00:00:00	2024-11-08T08:00:00	2	Temperatura media	15.9
149302	7	Sololá	712	San Antonio Palopó	9	San Antonio Palopo	1	Enero	2023-01-21T00:00:00	2024-11-08T08:00:00	4	Temperatura máxima	15.9
149303	7	Sololá	712	San Antonio Palopó	9	San Antonio Palopo	1	Enero	2023-01-21T00:00:00	2024-11-08T08:00:00	3	Temperatura mínima	15.6
149304	7	Sololá	712	San Antonio Palopó	9	San Antonio Palopo	1	Enero	2023-01-21T00:00:00	2024-11-08T08:00:00	5	Humedad	76
149305	7	Sololá	712	San Antonio Palopó	9	San Antonio Palopo	1	Enero	2023-01-21T00:00:00	2024-11-08T08:00:00	6	Velocidad del viento	17.7
149306	7	Sololá	712	San Antonio Palopó	9	San Antonio Palopo	1	Enero	2023-01-21T00:00:00	2024-11-08T08:00:00	7	Dirección del viento	17.7
149307	7	Sololá	712	San Antonio Palopó	9	San Antonio Palopo	1	Enero	2023-01-21T00:00:00	2024-11-08T08:00:00	1	Precipitación	0
149308	7	Sololá	712	San Antonio Palopó	9	San Antonio Palopo	1	Enero	2023-01-21T00:00:00	2024-11-08T08:00:00	8	Radiación solar	17
149309	7	Sololá	712	San Antonio Palopó	9	San Antonio Palopo	1	Enero	2023-01-21T00:00:00	2024-11-08T09:00:00	2	Temperatura media	18.4
149310	7	Sololá	712	San Antonio Palopó	9	San Antonio Palopo	1	Enero	2023-01-21T00:00:00	2024-11-08T09:00:00	4	Temperatura máxima	18.4
149311	7	Sololá	712	San Antonio Palopó	9	San Antonio Palopo	1	Enero	2023-01-21T00:00:00	2024-11-08T09:00:00	3	Temperatura mínima	15.9
149312	7	Sololá	712	San Antonio Palopó	9	San Antonio Palopo	1	Enero	2023-01-21T00:00:00	2024-11-08T09:00:00	5	Humedad	68
149313	7	Sololá	712	San Antonio Palopó	9	San Antonio Palopo	1	Enero	2023-01-21T00:00:00	2024-11-08T09:00:00	6	Velocidad del viento	11.3
149314	7	Sololá	712	San Antonio Palopó	9	San Antonio Palopo	1	Enero	2023-01-21T00:00:00	2024-11-08T09:00:00	7	Dirección del viento	11.27
149315	7	Sololá	712	San Antonio Palopó	9	San Antonio Palopo	1	Enero	2023-01-21T00:00:00	2024-11-08T09:00:00	1	Precipitación	0
149316	7	Sololá	712	San Antonio Palopó	9	San Antonio Palopo	1	Enero	2023-01-21T00:00:00	2024-11-08T09:00:00	8	Radiación solar	140
149317	7	Sololá	712	San Antonio Palopó	9	San Antonio Palopo	1	Enero	2023-01-21T00:00:00	2024-11-08T10:00:00	2	Temperatura media	18.7
149318	7	Sololá	712	San Antonio Palopó	9	San Antonio Palopo	1	Enero	2023-01-21T00:00:00	2024-11-08T10:00:00	4	Temperatura máxima	19.2
149319	7	Sololá	712	San Antonio Palopó	9	San Antonio Palopo	1	Enero	2023-01-21T00:00:00	2024-11-08T10:00:00	3	Temperatura mínima	18.1
149320	7	Sololá	712	San Antonio Palopó	9	San Antonio Palopo	1	Enero	2023-01-21T00:00:00	2024-11-08T10:00:00	5	Humedad	71
149321	7	Sololá	712	San Antonio Palopó	9	San Antonio Palopo	1	Enero	2023-01-21T00:00:00	2024-11-08T10:00:00	6	Velocidad del viento	6.4
149322	7	Sololá	712	San Antonio Palopó	9	San Antonio Palopo	1	Enero	2023-01-21T00:00:00	2024-11-08T10:00:00	7	Dirección del viento	6.44
149323	7	Sololá	712	San Antonio Palopó	9	San Antonio Palopo	1	Enero	2023-01-21T00:00:00	2024-11-08T10:00:00	1	Precipitación	0
149324	7	Sololá	712	San Antonio Palopó	9	San Antonio Palopo	1	Enero	2023-01-21T00:00:00	2024-11-08T10:00:00	8	Radiación solar	512
149325	7	Sololá	712	San Antonio Palopó	9	San Antonio Palopo	1	Enero	2023-01-21T00:00:00	2024-11-08T11:00:00	2	Temperatura media	19.6
149326	7	Sololá	712	San Antonio Palopó	9	San Antonio Palopo	1	Enero	2023-01-21T00:00:00	2024-11-08T11:00:00	4	Temperatura máxima	19.7
149327	7	Sololá	712	San Antonio Palopó	9	San Antonio Palopo	1	Enero	2023-01-21T00:00:00	2024-11-08T11:00:00	3	Temperatura mínima	18.7
149328	7	Sololá	712	San Antonio Palopó	9	San Antonio Palopo	1	Enero	2023-01-21T00:00:00	2024-11-08T11:00:00	5	Humedad	70
149329	7	Sololá	712	San Antonio Palopó	9	San Antonio Palopo	1	Enero	2023-01-21T00:00:00	2024-11-08T11:00:00	6	Velocidad del viento	3.2
149330	7	Sololá	712	San Antonio Palopó	9	San Antonio Palopo	1	Enero	2023-01-21T00:00:00	2024-11-08T11:00:00	7	Dirección del viento	3.22
149331	7	Sololá	712	San Antonio Palopó	9	San Antonio Palopo	1	Enero	2023-01-21T00:00:00	2024-11-08T11:00:00	1	Precipitación	0
149332	7	Sololá	712	San Antonio Palopó	9	San Antonio Palopo	1	Enero	2023-01-21T00:00:00	2024-11-08T11:00:00	8	Radiación solar	641
149333	7	Sololá	712	San Antonio Palopó	9	San Antonio Palopo	1	Enero	2023-01-21T00:00:00	2024-11-08T12:00:00	2	Temperatura media	21.7
149334	7	Sololá	712	San Antonio Palopó	9	San Antonio Palopo	1	Enero	2023-01-21T00:00:00	2024-11-08T12:00:00	4	Temperatura máxima	21.7
149335	7	Sololá	712	San Antonio Palopó	9	San Antonio Palopo	1	Enero	2023-01-21T00:00:00	2024-11-08T12:00:00	3	Temperatura mínima	19.6
149336	7	Sololá	712	San Antonio Palopó	9	San Antonio Palopo	1	Enero	2023-01-21T00:00:00	2024-11-08T12:00:00	5	Humedad	67
149337	7	Sololá	712	San Antonio Palopó	9	San Antonio Palopo	1	Enero	2023-01-21T00:00:00	2024-11-08T12:00:00	6	Velocidad del viento	4.8
149338	7	Sololá	712	San Antonio Palopó	9	San Antonio Palopo	1	Enero	2023-01-21T00:00:00	2024-11-08T12:00:00	7	Dirección del viento	4.83
149339	7	Sololá	712	San Antonio Palopó	9	San Antonio Palopo	1	Enero	2023-01-21T00:00:00	2024-11-08T12:00:00	1	Precipitación	0
149340	7	Sololá	712	San Antonio Palopó	9	San Antonio Palopo	1	Enero	2023-01-21T00:00:00	2024-11-08T12:00:00	8	Radiación solar	653
149341	7	Sololá	712	San Antonio Palopó	9	San Antonio Palopo	1	Enero	2023-01-21T00:00:00	2024-11-08T13:00:00	2	Temperatura media	22
149342	7	Sololá	712	San Antonio Palopó	9	San Antonio Palopo	1	Enero	2023-01-21T00:00:00	2024-11-08T13:00:00	4	Temperatura máxima	22
149343	7	Sololá	712	San Antonio Palopó	9	San Antonio Palopo	1	Enero	2023-01-21T00:00:00	2024-11-08T13:00:00	3	Temperatura mínima	21.3
149344	7	Sololá	712	San Antonio Palopó	9	San Antonio Palopo	1	Enero	2023-01-21T00:00:00	2024-11-08T13:00:00	5	Humedad	70
149345	7	Sololá	712	San Antonio Palopó	9	San Antonio Palopo	1	Enero	2023-01-21T00:00:00	2024-11-08T13:00:00	6	Velocidad del viento	11.3
149346	7	Sololá	712	San Antonio Palopó	9	San Antonio Palopo	1	Enero	2023-01-21T00:00:00	2024-11-08T13:00:00	7	Dirección del viento	11.27
149347	7	Sololá	712	San Antonio Palopó	9	San Antonio Palopo	1	Enero	2023-01-21T00:00:00	2024-11-08T13:00:00	1	Precipitación	0
149348	7	Sololá	712	San Antonio Palopó	9	San Antonio Palopo	1	Enero	2023-01-21T00:00:00	2024-11-08T13:00:00	8	Radiación solar	780
149349	7	Sololá	712	San Antonio Palopó	9	San Antonio Palopo	1	Enero	2023-01-21T00:00:00	2024-11-08T14:00:00	2	Temperatura media	21.6
149350	7	Sololá	712	San Antonio Palopó	9	San Antonio Palopo	1	Enero	2023-01-21T00:00:00	2024-11-08T14:00:00	4	Temperatura máxima	22.1
149351	7	Sololá	712	San Antonio Palopó	9	San Antonio Palopo	1	Enero	2023-01-21T00:00:00	2024-11-08T14:00:00	3	Temperatura mínima	21.5
149352	7	Sololá	712	San Antonio Palopó	9	San Antonio Palopo	1	Enero	2023-01-21T00:00:00	2024-11-08T14:00:00	5	Humedad	70
149353	7	Sololá	712	San Antonio Palopó	9	San Antonio Palopo	1	Enero	2023-01-21T00:00:00	2024-11-08T14:00:00	6	Velocidad del viento	12.9
149354	7	Sololá	712	San Antonio Palopó	9	San Antonio Palopo	1	Enero	2023-01-21T00:00:00	2024-11-08T14:00:00	7	Dirección del viento	12.87
149355	7	Sololá	712	San Antonio Palopó	9	San Antonio Palopo	1	Enero	2023-01-21T00:00:00	2024-11-08T14:00:00	1	Precipitación	0
149356	7	Sololá	712	San Antonio Palopó	9	San Antonio Palopo	1	Enero	2023-01-21T00:00:00	2024-11-08T14:00:00	8	Radiación solar	743
149357	7	Sololá	712	San Antonio Palopó	9	San Antonio Palopo	1	Enero	2023-01-21T00:00:00	2024-11-08T15:00:00	2	Temperatura media	20.9
149358	7	Sololá	712	San Antonio Palopó	9	San Antonio Palopo	1	Enero	2023-01-21T00:00:00	2024-11-08T15:00:00	4	Temperatura máxima	21.6
149359	7	Sololá	712	San Antonio Palopó	9	San Antonio Palopo	1	Enero	2023-01-21T00:00:00	2024-11-08T15:00:00	3	Temperatura mínima	20.6
149360	7	Sololá	712	San Antonio Palopó	9	San Antonio Palopo	1	Enero	2023-01-21T00:00:00	2024-11-08T15:00:00	5	Humedad	72
149361	7	Sololá	712	San Antonio Palopó	9	San Antonio Palopo	1	Enero	2023-01-21T00:00:00	2024-11-08T15:00:00	6	Velocidad del viento	16.1
149362	7	Sololá	712	San Antonio Palopó	9	San Antonio Palopo	1	Enero	2023-01-21T00:00:00	2024-11-08T15:00:00	7	Dirección del viento	16.09
149363	7	Sololá	712	San Antonio Palopó	9	San Antonio Palopo	1	Enero	2023-01-21T00:00:00	2024-11-08T15:00:00	1	Precipitación	0
149364	7	Sololá	712	San Antonio Palopó	9	San Antonio Palopo	1	Enero	2023-01-21T00:00:00	2024-11-08T15:00:00	8	Radiación solar	482
149365	7	Sololá	712	San Antonio Palopó	9	San Antonio Palopo	1	Enero	2023-01-21T00:00:00	2024-11-08T16:00:00	2	Temperatura media	21
149366	7	Sololá	712	San Antonio Palopó	9	San Antonio Palopo	1	Enero	2023-01-21T00:00:00	2024-11-08T16:00:00	4	Temperatura máxima	21.9
149367	7	Sololá	712	San Antonio Palopó	9	San Antonio Palopo	1	Enero	2023-01-21T00:00:00	2024-11-08T16:00:00	3	Temperatura mínima	20.9
149368	7	Sololá	712	San Antonio Palopó	9	San Antonio Palopo	1	Enero	2023-01-21T00:00:00	2024-11-08T16:00:00	5	Humedad	72
149369	7	Sololá	712	San Antonio Palopó	9	San Antonio Palopo	1	Enero	2023-01-21T00:00:00	2024-11-08T16:00:00	6	Velocidad del viento	11.3
149370	7	Sololá	712	San Antonio Palopó	9	San Antonio Palopo	1	Enero	2023-01-21T00:00:00	2024-11-08T16:00:00	7	Dirección del viento	11.27
149371	7	Sololá	712	San Antonio Palopó	9	San Antonio Palopo	1	Enero	2023-01-21T00:00:00	2024-11-08T16:00:00	1	Precipitación	0
149372	7	Sololá	712	San Antonio Palopó	9	San Antonio Palopo	1	Enero	2023-01-21T00:00:00	2024-11-08T16:00:00	8	Radiación solar	436
149373	7	Sololá	712	San Antonio Palopó	9	San Antonio Palopo	1	Enero	2023-01-21T00:00:00	2024-11-08T17:00:00	2	Temperatura media	20.1
149374	7	Sololá	712	San Antonio Palopó	9	San Antonio Palopo	1	Enero	2023-01-21T00:00:00	2024-11-08T17:00:00	4	Temperatura máxima	21.2
149375	7	Sololá	712	San Antonio Palopó	9	San Antonio Palopo	1	Enero	2023-01-21T00:00:00	2024-11-08T17:00:00	3	Temperatura mínima	20.1
149376	7	Sololá	712	San Antonio Palopó	9	San Antonio Palopo	1	Enero	2023-01-21T00:00:00	2024-11-08T17:00:00	5	Humedad	76
149377	7	Sololá	712	San Antonio Palopó	9	San Antonio Palopo	1	Enero	2023-01-21T00:00:00	2024-11-08T17:00:00	6	Velocidad del viento	9.7
149378	7	Sololá	712	San Antonio Palopó	9	San Antonio Palopo	1	Enero	2023-01-21T00:00:00	2024-11-08T17:00:00	7	Dirección del viento	9.66
149379	7	Sololá	712	San Antonio Palopó	9	San Antonio Palopo	1	Enero	2023-01-21T00:00:00	2024-11-08T17:00:00	1	Precipitación	0
149380	7	Sololá	712	San Antonio Palopó	9	San Antonio Palopo	1	Enero	2023-01-21T00:00:00	2024-11-08T17:00:00	8	Radiación solar	227
149381	7	Sololá	712	San Antonio Palopó	9	San Antonio Palopo	1	Enero	2023-01-21T00:00:00	2024-11-08T18:00:00	2	Temperatura media	18.7
149382	7	Sololá	712	San Antonio Palopó	9	San Antonio Palopo	1	Enero	2023-01-21T00:00:00	2024-11-08T18:00:00	4	Temperatura máxima	20.1
149383	7	Sololá	712	San Antonio Palopó	9	San Antonio Palopo	1	Enero	2023-01-21T00:00:00	2024-11-08T18:00:00	3	Temperatura mínima	18.7
149384	7	Sololá	712	San Antonio Palopó	9	San Antonio Palopo	1	Enero	2023-01-21T00:00:00	2024-11-08T18:00:00	5	Humedad	81
149385	7	Sololá	712	San Antonio Palopó	9	San Antonio Palopo	1	Enero	2023-01-21T00:00:00	2024-11-08T18:00:00	6	Velocidad del viento	9.7
149386	7	Sololá	712	San Antonio Palopó	9	San Antonio Palopo	1	Enero	2023-01-21T00:00:00	2024-11-08T18:00:00	7	Dirección del viento	9.66
149387	7	Sololá	712	San Antonio Palopó	9	San Antonio Palopo	1	Enero	2023-01-21T00:00:00	2024-11-08T18:00:00	1	Precipitación	0
149388	7	Sololá	712	San Antonio Palopó	9	San Antonio Palopo	1	Enero	2023-01-21T00:00:00	2024-11-08T18:00:00	8	Radiación solar	46
149389	7	Sololá	712	San Antonio Palopó	9	San Antonio Palopo	1	Enero	2023-01-21T00:00:00	2024-11-08T19:00:00	2	Temperatura media	18.4
149390	7	Sololá	712	San Antonio Palopó	9	San Antonio Palopo	1	Enero	2023-01-21T00:00:00	2024-11-08T19:00:00	4	Temperatura máxima	18.8
149391	7	Sololá	712	San Antonio Palopó	9	San Antonio Palopo	1	Enero	2023-01-21T00:00:00	2024-11-08T19:00:00	3	Temperatura mínima	18.3
149392	7	Sololá	712	San Antonio Palopó	9	San Antonio Palopo	1	Enero	2023-01-21T00:00:00	2024-11-08T19:00:00	5	Humedad	79
149393	7	Sololá	712	San Antonio Palopó	9	San Antonio Palopo	1	Enero	2023-01-21T00:00:00	2024-11-08T19:00:00	6	Velocidad del viento	3.2
149394	7	Sololá	712	San Antonio Palopó	9	San Antonio Palopo	1	Enero	2023-01-21T00:00:00	2024-11-08T19:00:00	7	Dirección del viento	3.22
149395	7	Sololá	712	San Antonio Palopó	9	San Antonio Palopo	1	Enero	2023-01-21T00:00:00	2024-11-08T19:00:00	1	Precipitación	0
149396	7	Sololá	712	San Antonio Palopó	9	San Antonio Palopo	1	Enero	2023-01-21T00:00:00	2024-11-08T19:00:00	8	Radiación solar	0
149397	7	Sololá	712	San Antonio Palopó	9	San Antonio Palopo	1	Enero	2023-01-21T00:00:00	2024-11-08T20:00:00	2	Temperatura media	17.6
149398	7	Sololá	712	San Antonio Palopó	9	San Antonio Palopo	1	Enero	2023-01-21T00:00:00	2024-11-08T20:00:00	4	Temperatura máxima	18.4
149399	7	Sololá	712	San Antonio Palopó	9	San Antonio Palopo	1	Enero	2023-01-21T00:00:00	2024-11-08T20:00:00	3	Temperatura mínima	17.4
149400	7	Sololá	712	San Antonio Palopó	9	San Antonio Palopo	1	Enero	2023-01-21T00:00:00	2024-11-08T20:00:00	5	Humedad	81
149401	7	Sololá	712	San Antonio Palopó	9	San Antonio Palopo	1	Enero	2023-01-21T00:00:00	2024-11-08T20:00:00	6	Velocidad del viento	3.2
149402	7	Sololá	712	San Antonio Palopó	9	San Antonio Palopo	1	Enero	2023-01-21T00:00:00	2024-11-08T20:00:00	7	Dirección del viento	3.22
149403	7	Sololá	712	San Antonio Palopó	9	San Antonio Palopo	1	Enero	2023-01-21T00:00:00	2024-11-08T20:00:00	1	Precipitación	0
149404	7	Sololá	712	San Antonio Palopó	9	San Antonio Palopo	1	Enero	2023-01-21T00:00:00	2024-11-08T20:00:00	8	Radiación solar	0
149405	7	Sololá	712	San Antonio Palopó	9	San Antonio Palopo	1	Enero	2023-01-21T00:00:00	2024-11-08T21:00:00	2	Temperatura media	17.8
149406	7	Sololá	712	San Antonio Palopó	9	San Antonio Palopo	1	Enero	2023-01-21T00:00:00	2024-11-08T21:00:00	4	Temperatura máxima	17.9
149407	7	Sololá	712	San Antonio Palopó	9	San Antonio Palopo	1	Enero	2023-01-21T00:00:00	2024-11-08T21:00:00	3	Temperatura mínima	17.6
149408	7	Sololá	712	San Antonio Palopó	9	San Antonio Palopo	1	Enero	2023-01-21T00:00:00	2024-11-08T21:00:00	5	Humedad	79
149409	7	Sololá	712	San Antonio Palopó	9	San Antonio Palopo	1	Enero	2023-01-21T00:00:00	2024-11-08T21:00:00	6	Velocidad del viento	4.8
149410	7	Sololá	712	San Antonio Palopó	9	San Antonio Palopo	1	Enero	2023-01-21T00:00:00	2024-11-08T21:00:00	7	Dirección del viento	4.83
149411	7	Sololá	712	San Antonio Palopó	9	San Antonio Palopo	1	Enero	2023-01-21T00:00:00	2024-11-08T21:00:00	1	Precipitación	0
149412	7	Sololá	712	San Antonio Palopó	9	San Antonio Palopo	1	Enero	2023-01-21T00:00:00	2024-11-08T21:00:00	8	Radiación solar	0
149413	7	Sololá	712	San Antonio Palopó	9	San Antonio Palopo	1	Enero	2023-01-21T00:00:00	2024-11-08T22:00:00	2	Temperatura media	17.3
149414	7	Sololá	712	San Antonio Palopó	9	San Antonio Palopo	1	Enero	2023-01-21T00:00:00	2024-11-08T22:00:00	4	Temperatura máxima	17.8
149415	7	Sololá	712	San Antonio Palopó	9	San Antonio Palopo	1	Enero	2023-01-21T00:00:00	2024-11-08T22:00:00	3	Temperatura mínima	17.3
149416	7	Sololá	712	San Antonio Palopó	9	San Antonio Palopo	1	Enero	2023-01-21T00:00:00	2024-11-08T22:00:00	5	Humedad	79
149417	7	Sololá	712	San Antonio Palopó	9	San Antonio Palopo	1	Enero	2023-01-21T00:00:00	2024-11-08T22:00:00	6	Velocidad del viento	8
149418	7	Sololá	712	San Antonio Palopó	9	San Antonio Palopo	1	Enero	2023-01-21T00:00:00	2024-11-08T22:00:00	7	Dirección del viento	8.05
149419	7	Sololá	712	San Antonio Palopó	9	San Antonio Palopo	1	Enero	2023-01-21T00:00:00	2024-11-08T22:00:00	1	Precipitación	0
149420	7	Sololá	712	San Antonio Palopó	9	San Antonio Palopo	1	Enero	2023-01-21T00:00:00	2024-11-08T22:00:00	8	Radiación solar	0
149421	7	Sololá	712	San Antonio Palopó	9	San Antonio Palopo	1	Enero	2023-01-21T00:00:00	2024-11-08T23:00:00	2	Temperatura media	16.3
149422	7	Sololá	712	San Antonio Palopó	9	San Antonio Palopo	1	Enero	2023-01-21T00:00:00	2024-11-08T23:00:00	4	Temperatura máxima	17.4
149423	7	Sololá	712	San Antonio Palopó	9	San Antonio Palopo	1	Enero	2023-01-21T00:00:00	2024-11-08T23:00:00	3	Temperatura mínima	16.3
149424	7	Sololá	712	San Antonio Palopó	9	San Antonio Palopo	1	Enero	2023-01-21T00:00:00	2024-11-08T23:00:00	5	Humedad	75
149425	7	Sololá	712	San Antonio Palopó	9	San Antonio Palopo	1	Enero	2023-01-21T00:00:00	2024-11-08T23:00:00	6	Velocidad del viento	3.2
149426	7	Sololá	712	San Antonio Palopó	9	San Antonio Palopo	1	Enero	2023-01-21T00:00:00	2024-11-08T23:00:00	7	Dirección del viento	3.22
149427	7	Sololá	712	San Antonio Palopó	9	San Antonio Palopo	1	Enero	2023-01-21T00:00:00	2024-11-08T23:00:00	1	Precipitación	0
149428	7	Sololá	712	San Antonio Palopó	9	San Antonio Palopo	1	Enero	2023-01-21T00:00:00	2024-11-08T23:00:00	8	Radiación solar	0
149429	7	Sololá	712	San Antonio Palopó	9	San Antonio Palopo	1	Enero	2023-01-22T00:00:00	2024-11-08T00:00:00	2	Temperatura media	15.4
149430	7	Sololá	712	San Antonio Palopó	9	San Antonio Palopo	1	Enero	2023-01-22T00:00:00	2024-11-08T00:00:00	4	Temperatura máxima	16.4
149431	7	Sololá	712	San Antonio Palopó	9	San Antonio Palopo	1	Enero	2023-01-22T00:00:00	2024-11-08T00:00:00	3	Temperatura mínima	15.4
149432	7	Sololá	712	San Antonio Palopó	9	San Antonio Palopo	1	Enero	2023-01-22T00:00:00	2024-11-08T00:00:00	5	Humedad	77
149433	7	Sololá	712	San Antonio Palopó	9	San Antonio Palopo	1	Enero	2023-01-22T00:00:00	2024-11-08T00:00:00	6	Velocidad del viento	4.8
149434	7	Sololá	712	San Antonio Palopó	9	San Antonio Palopo	1	Enero	2023-01-22T00:00:00	2024-11-08T00:00:00	7	Dirección del viento	4.83
149435	7	Sololá	712	San Antonio Palopó	9	San Antonio Palopo	1	Enero	2023-01-22T00:00:00	2024-11-08T00:00:00	1	Precipitación	0
149436	7	Sololá	712	San Antonio Palopó	9	San Antonio Palopo	1	Enero	2023-01-22T00:00:00	2024-11-08T00:00:00	8	Radiación solar	0
149437	7	Sololá	712	San Antonio Palopó	9	San Antonio Palopo	1	Enero	2023-01-22T00:00:00	2024-11-08T01:00:00	2	Temperatura media	15.3
149438	7	Sololá	712	San Antonio Palopó	9	San Antonio Palopo	1	Enero	2023-01-22T00:00:00	2024-11-08T01:00:00	4	Temperatura máxima	15.5
149439	7	Sololá	712	San Antonio Palopó	9	San Antonio Palopo	1	Enero	2023-01-22T00:00:00	2024-11-08T01:00:00	3	Temperatura mínima	15.3
149440	7	Sololá	712	San Antonio Palopó	9	San Antonio Palopo	1	Enero	2023-01-22T00:00:00	2024-11-08T01:00:00	5	Humedad	80
149441	7	Sololá	712	San Antonio Palopó	9	San Antonio Palopo	1	Enero	2023-01-22T00:00:00	2024-11-08T01:00:00	6	Velocidad del viento	4.8
149442	7	Sololá	712	San Antonio Palopó	9	San Antonio Palopo	1	Enero	2023-01-22T00:00:00	2024-11-08T01:00:00	7	Dirección del viento	4.83
149443	7	Sololá	712	San Antonio Palopó	9	San Antonio Palopo	1	Enero	2023-01-22T00:00:00	2024-11-08T01:00:00	1	Precipitación	0
149444	7	Sololá	712	San Antonio Palopó	9	San Antonio Palopo	1	Enero	2023-01-22T00:00:00	2024-11-08T01:00:00	8	Radiación solar	0
149445	7	Sololá	712	San Antonio Palopó	9	San Antonio Palopo	1	Enero	2023-01-22T00:00:00	2024-11-08T02:00:00	2	Temperatura media	15.3
149446	7	Sololá	712	San Antonio Palopó	9	San Antonio Palopo	1	Enero	2023-01-22T00:00:00	2024-11-08T02:00:00	4	Temperatura máxima	15.3
149447	7	Sololá	712	San Antonio Palopó	9	San Antonio Palopo	1	Enero	2023-01-22T00:00:00	2024-11-08T02:00:00	3	Temperatura mínima	15
149448	7	Sololá	712	San Antonio Palopó	9	San Antonio Palopo	1	Enero	2023-01-22T00:00:00	2024-11-08T02:00:00	5	Humedad	78
149449	7	Sololá	712	San Antonio Palopó	9	San Antonio Palopo	1	Enero	2023-01-22T00:00:00	2024-11-08T02:00:00	6	Velocidad del viento	3.2
149450	7	Sololá	712	San Antonio Palopó	9	San Antonio Palopo	1	Enero	2023-01-22T00:00:00	2024-11-08T02:00:00	7	Dirección del viento	3.22
149451	7	Sololá	712	San Antonio Palopó	9	San Antonio Palopo	1	Enero	2023-01-22T00:00:00	2024-11-08T02:00:00	1	Precipitación	0
149452	7	Sololá	712	San Antonio Palopó	9	San Antonio Palopo	1	Enero	2023-01-22T00:00:00	2024-11-08T02:00:00	8	Radiación solar	0
149453	7	Sololá	712	San Antonio Palopó	9	San Antonio Palopo	1	Enero	2023-01-22T00:00:00	2024-11-08T03:00:00	2	Temperatura media	14.4
149454	7	Sololá	712	San Antonio Palopó	9	San Antonio Palopo	1	Enero	2023-01-22T00:00:00	2024-11-08T03:00:00	4	Temperatura máxima	15.3
149455	7	Sololá	712	San Antonio Palopó	9	San Antonio Palopo	1	Enero	2023-01-22T00:00:00	2024-11-08T03:00:00	3	Temperatura mínima	14.3
149456	7	Sololá	712	San Antonio Palopó	9	San Antonio Palopo	1	Enero	2023-01-22T00:00:00	2024-11-08T03:00:00	5	Humedad	76
149457	7	Sololá	712	San Antonio Palopó	9	San Antonio Palopo	1	Enero	2023-01-22T00:00:00	2024-11-08T03:00:00	6	Velocidad del viento	4.8
149458	7	Sololá	712	San Antonio Palopó	9	San Antonio Palopo	1	Enero	2023-01-22T00:00:00	2024-11-08T03:00:00	7	Dirección del viento	4.83
149459	7	Sololá	712	San Antonio Palopó	9	San Antonio Palopo	1	Enero	2023-01-22T00:00:00	2024-11-08T03:00:00	1	Precipitación	0
149460	7	Sololá	712	San Antonio Palopó	9	San Antonio Palopo	1	Enero	2023-01-22T00:00:00	2024-11-08T03:00:00	8	Radiación solar	0
149461	7	Sololá	712	San Antonio Palopó	9	San Antonio Palopo	1	Enero	2023-01-22T00:00:00	2024-11-08T04:00:00	2	Temperatura media	14.1
149462	7	Sololá	712	San Antonio Palopó	9	San Antonio Palopo	1	Enero	2023-01-22T00:00:00	2024-11-08T04:00:00	4	Temperatura máxima	14.4
149463	7	Sololá	712	San Antonio Palopó	9	San Antonio Palopo	1	Enero	2023-01-22T00:00:00	2024-11-08T04:00:00	3	Temperatura mínima	14
149464	7	Sololá	712	San Antonio Palopó	9	San Antonio Palopo	1	Enero	2023-01-22T00:00:00	2024-11-08T04:00:00	5	Humedad	79
149465	7	Sololá	712	San Antonio Palopó	9	San Antonio Palopo	1	Enero	2023-01-22T00:00:00	2024-11-08T04:00:00	6	Velocidad del viento	4.8
149466	7	Sololá	712	San Antonio Palopó	9	San Antonio Palopo	1	Enero	2023-01-22T00:00:00	2024-11-08T04:00:00	7	Dirección del viento	4.83
149467	7	Sololá	712	San Antonio Palopó	9	San Antonio Palopo	1	Enero	2023-01-22T00:00:00	2024-11-08T04:00:00	1	Precipitación	0
149468	7	Sololá	712	San Antonio Palopó	9	San Antonio Palopo	1	Enero	2023-01-22T00:00:00	2024-11-08T04:00:00	8	Radiación solar	0
149469	7	Sololá	712	San Antonio Palopó	9	San Antonio Palopo	1	Enero	2023-01-22T00:00:00	2024-11-08T05:00:00	2	Temperatura media	13.8
149470	7	Sololá	712	San Antonio Palopó	9	San Antonio Palopo	1	Enero	2023-01-22T00:00:00	2024-11-08T05:00:00	4	Temperatura máxima	14.1
149471	7	Sololá	712	San Antonio Palopó	9	San Antonio Palopo	1	Enero	2023-01-22T00:00:00	2024-11-08T05:00:00	3	Temperatura mínima	13.7
149472	7	Sololá	712	San Antonio Palopó	9	San Antonio Palopo	1	Enero	2023-01-22T00:00:00	2024-11-08T05:00:00	5	Humedad	82
149473	7	Sololá	712	San Antonio Palopó	9	San Antonio Palopo	1	Enero	2023-01-22T00:00:00	2024-11-08T05:00:00	6	Velocidad del viento	4.8
149474	7	Sololá	712	San Antonio Palopó	9	San Antonio Palopo	1	Enero	2023-01-22T00:00:00	2024-11-08T05:00:00	7	Dirección del viento	4.83
149475	7	Sololá	712	San Antonio Palopó	9	San Antonio Palopo	1	Enero	2023-01-22T00:00:00	2024-11-08T05:00:00	1	Precipitación	0
149476	7	Sololá	712	San Antonio Palopó	9	San Antonio Palopo	1	Enero	2023-01-22T00:00:00	2024-11-08T05:00:00	8	Radiación solar	0
149477	7	Sololá	712	San Antonio Palopó	9	San Antonio Palopo	1	Enero	2023-01-22T00:00:00	2024-11-08T06:00:00	2	Temperatura media	13.4
149478	7	Sololá	712	San Antonio Palopó	9	San Antonio Palopo	1	Enero	2023-01-22T00:00:00	2024-11-08T06:00:00	4	Temperatura máxima	13.9
149479	7	Sololá	712	San Antonio Palopó	9	San Antonio Palopo	1	Enero	2023-01-22T00:00:00	2024-11-08T06:00:00	3	Temperatura mínima	13.3
149480	7	Sololá	712	San Antonio Palopó	9	San Antonio Palopo	1	Enero	2023-01-22T00:00:00	2024-11-08T06:00:00	5	Humedad	83
149481	7	Sololá	712	San Antonio Palopó	9	San Antonio Palopo	1	Enero	2023-01-22T00:00:00	2024-11-08T06:00:00	6	Velocidad del viento	4.8
149482	7	Sololá	712	San Antonio Palopó	9	San Antonio Palopo	1	Enero	2023-01-22T00:00:00	2024-11-08T06:00:00	7	Dirección del viento	4.83
149483	7	Sololá	712	San Antonio Palopó	9	San Antonio Palopo	1	Enero	2023-01-22T00:00:00	2024-11-08T06:00:00	1	Precipitación	0
149484	7	Sololá	712	San Antonio Palopó	9	San Antonio Palopo	1	Enero	2023-01-22T00:00:00	2024-11-08T06:00:00	8	Radiación solar	0
149485	7	Sololá	712	San Antonio Palopó	9	San Antonio Palopo	1	Enero	2023-01-22T00:00:00	2024-11-08T07:00:00	2	Temperatura media	13.8
149486	7	Sololá	712	San Antonio Palopó	9	San Antonio Palopo	1	Enero	2023-01-22T00:00:00	2024-11-08T07:00:00	4	Temperatura máxima	14.1
149487	7	Sololá	712	San Antonio Palopó	9	San Antonio Palopo	1	Enero	2023-01-22T00:00:00	2024-11-08T07:00:00	3	Temperatura mínima	13.4
149488	7	Sololá	712	San Antonio Palopó	9	San Antonio Palopo	1	Enero	2023-01-22T00:00:00	2024-11-08T07:00:00	5	Humedad	80
149489	7	Sololá	712	San Antonio Palopó	9	San Antonio Palopo	1	Enero	2023-01-22T00:00:00	2024-11-08T07:00:00	6	Velocidad del viento	3.2
149490	7	Sololá	712	San Antonio Palopó	9	San Antonio Palopo	1	Enero	2023-01-22T00:00:00	2024-11-08T07:00:00	7	Dirección del viento	3.22
149491	7	Sololá	712	San Antonio Palopó	9	San Antonio Palopo	1	Enero	2023-01-22T00:00:00	2024-11-08T07:00:00	1	Precipitación	0
149492	7	Sololá	712	San Antonio Palopó	9	San Antonio Palopo	1	Enero	2023-01-22T00:00:00	2024-11-08T07:00:00	8	Radiación solar	3
149493	7	Sololá	712	San Antonio Palopó	9	San Antonio Palopo	1	Enero	2023-01-22T00:00:00	2024-11-08T08:00:00	2	Temperatura media	13.7
149494	7	Sololá	712	San Antonio Palopó	9	San Antonio Palopo	1	Enero	2023-01-22T00:00:00	2024-11-08T08:00:00	4	Temperatura máxima	13.8
149495	7	Sololá	712	San Antonio Palopó	9	San Antonio Palopo	1	Enero	2023-01-22T00:00:00	2024-11-08T08:00:00	3	Temperatura mínima	13.4
149496	7	Sololá	712	San Antonio Palopó	9	San Antonio Palopo	1	Enero	2023-01-22T00:00:00	2024-11-08T08:00:00	5	Humedad	82
149497	7	Sololá	712	San Antonio Palopó	9	San Antonio Palopo	1	Enero	2023-01-22T00:00:00	2024-11-08T08:00:00	6	Velocidad del viento	4.8
149498	7	Sololá	712	San Antonio Palopó	9	San Antonio Palopo	1	Enero	2023-01-22T00:00:00	2024-11-08T08:00:00	7	Dirección del viento	4.83
149499	7	Sololá	712	San Antonio Palopó	9	San Antonio Palopo	1	Enero	2023-01-22T00:00:00	2024-11-08T08:00:00	1	Precipitación	0
149500	7	Sololá	712	San Antonio Palopó	9	San Antonio Palopo	1	Enero	2023-01-22T00:00:00	2024-11-08T08:00:00	8	Radiación solar	24
149501	7	Sololá	712	San Antonio Palopó	9	San Antonio Palopo	1	Enero	2023-01-22T00:00:00	2024-11-08T09:00:00	2	Temperatura media	16.1
149502	7	Sololá	712	San Antonio Palopó	9	San Antonio Palopo	1	Enero	2023-01-22T00:00:00	2024-11-08T09:00:00	4	Temperatura máxima	16.1
149503	7	Sololá	712	San Antonio Palopó	9	San Antonio Palopo	1	Enero	2023-01-22T00:00:00	2024-11-08T09:00:00	3	Temperatura mínima	13.6
149504	7	Sololá	712	San Antonio Palopó	9	San Antonio Palopo	1	Enero	2023-01-22T00:00:00	2024-11-08T09:00:00	5	Humedad	76
149505	7	Sololá	712	San Antonio Palopó	9	San Antonio Palopo	1	Enero	2023-01-22T00:00:00	2024-11-08T09:00:00	6	Velocidad del viento	3.2
149506	7	Sololá	712	San Antonio Palopó	9	San Antonio Palopo	1	Enero	2023-01-22T00:00:00	2024-11-08T09:00:00	7	Dirección del viento	3.22
149507	7	Sololá	712	San Antonio Palopó	9	San Antonio Palopo	1	Enero	2023-01-22T00:00:00	2024-11-08T09:00:00	1	Precipitación	0
149508	7	Sololá	712	San Antonio Palopó	9	San Antonio Palopo	1	Enero	2023-01-22T00:00:00	2024-11-08T09:00:00	8	Radiación solar	148
149509	7	Sololá	712	San Antonio Palopó	9	San Antonio Palopo	1	Enero	2023-01-22T00:00:00	2024-11-08T10:00:00	2	Temperatura media	18.1
149510	7	Sololá	712	San Antonio Palopó	9	San Antonio Palopo	1	Enero	2023-01-22T00:00:00	2024-11-08T10:00:00	4	Temperatura máxima	18.6
149511	7	Sololá	712	San Antonio Palopó	9	San Antonio Palopo	1	Enero	2023-01-22T00:00:00	2024-11-08T10:00:00	3	Temperatura mínima	16.2
149512	7	Sololá	712	San Antonio Palopó	9	San Antonio Palopo	1	Enero	2023-01-22T00:00:00	2024-11-08T10:00:00	5	Humedad	68
149513	7	Sololá	712	San Antonio Palopó	9	San Antonio Palopo	1	Enero	2023-01-22T00:00:00	2024-11-08T10:00:00	6	Velocidad del viento	3.2
149514	7	Sololá	712	San Antonio Palopó	9	San Antonio Palopo	1	Enero	2023-01-22T00:00:00	2024-11-08T10:00:00	7	Dirección del viento	3.22
149515	7	Sololá	712	San Antonio Palopó	9	San Antonio Palopo	1	Enero	2023-01-22T00:00:00	2024-11-08T10:00:00	1	Precipitación	0
149516	7	Sololá	712	San Antonio Palopó	9	San Antonio Palopo	1	Enero	2023-01-22T00:00:00	2024-11-08T10:00:00	8	Radiación solar	530
149517	7	Sololá	712	San Antonio Palopó	9	San Antonio Palopo	1	Enero	2023-01-22T00:00:00	2024-11-08T11:00:00	2	Temperatura media	19.2
149518	7	Sololá	712	San Antonio Palopó	9	San Antonio Palopo	1	Enero	2023-01-22T00:00:00	2024-11-08T11:00:00	4	Temperatura máxima	19.2
149519	7	Sololá	712	San Antonio Palopó	9	San Antonio Palopo	1	Enero	2023-01-22T00:00:00	2024-11-08T11:00:00	3	Temperatura mínima	17.9
149520	7	Sololá	712	San Antonio Palopó	9	San Antonio Palopo	1	Enero	2023-01-22T00:00:00	2024-11-08T11:00:00	5	Humedad	64
149521	7	Sololá	712	San Antonio Palopó	9	San Antonio Palopo	1	Enero	2023-01-22T00:00:00	2024-11-08T11:00:00	6	Velocidad del viento	3.2
149522	7	Sololá	712	San Antonio Palopó	9	San Antonio Palopo	1	Enero	2023-01-22T00:00:00	2024-11-08T11:00:00	7	Dirección del viento	3.22
149523	7	Sololá	712	San Antonio Palopó	9	San Antonio Palopo	1	Enero	2023-01-22T00:00:00	2024-11-08T11:00:00	1	Precipitación	0
149524	7	Sololá	712	San Antonio Palopó	9	San Antonio Palopo	1	Enero	2023-01-22T00:00:00	2024-11-08T11:00:00	8	Radiación solar	676
149525	7	Sololá	712	San Antonio Palopó	9	San Antonio Palopo	1	Enero	2023-01-22T00:00:00	2024-11-08T12:00:00	2	Temperatura media	20.3
149526	7	Sololá	712	San Antonio Palopó	9	San Antonio Palopo	1	Enero	2023-01-22T00:00:00	2024-11-08T12:00:00	4	Temperatura máxima	20.3
149527	7	Sololá	712	San Antonio Palopó	9	San Antonio Palopo	1	Enero	2023-01-22T00:00:00	2024-11-08T12:00:00	3	Temperatura mínima	19.2
149528	7	Sololá	712	San Antonio Palopó	9	San Antonio Palopo	1	Enero	2023-01-22T00:00:00	2024-11-08T12:00:00	5	Humedad	58
149529	7	Sololá	712	San Antonio Palopó	9	San Antonio Palopo	1	Enero	2023-01-22T00:00:00	2024-11-08T12:00:00	6	Velocidad del viento	3.2
149530	7	Sololá	712	San Antonio Palopó	9	San Antonio Palopo	1	Enero	2023-01-22T00:00:00	2024-11-08T12:00:00	7	Dirección del viento	3.22
149531	7	Sololá	712	San Antonio Palopó	9	San Antonio Palopo	1	Enero	2023-01-22T00:00:00	2024-11-08T12:00:00	1	Precipitación	0
149532	7	Sololá	712	San Antonio Palopó	9	San Antonio Palopo	1	Enero	2023-01-22T00:00:00	2024-11-08T12:00:00	8	Radiación solar	673
149533	7	Sololá	712	San Antonio Palopó	9	San Antonio Palopo	1	Enero	2023-01-22T00:00:00	2024-11-08T13:00:00	2	Temperatura media	21.1
149534	7	Sololá	712	San Antonio Palopó	9	San Antonio Palopo	1	Enero	2023-01-22T00:00:00	2024-11-08T13:00:00	4	Temperatura máxima	21.3
149535	7	Sololá	712	San Antonio Palopó	9	San Antonio Palopo	1	Enero	2023-01-22T00:00:00	2024-11-08T13:00:00	3	Temperatura mínima	20.3
149536	7	Sololá	712	San Antonio Palopó	9	San Antonio Palopo	1	Enero	2023-01-22T00:00:00	2024-11-08T13:00:00	5	Humedad	58
149537	7	Sololá	712	San Antonio Palopó	9	San Antonio Palopo	1	Enero	2023-01-22T00:00:00	2024-11-08T13:00:00	6	Velocidad del viento	4.8
149538	7	Sololá	712	San Antonio Palopó	9	San Antonio Palopo	1	Enero	2023-01-22T00:00:00	2024-11-08T13:00:00	7	Dirección del viento	4.83
149539	7	Sololá	712	San Antonio Palopó	9	San Antonio Palopo	1	Enero	2023-01-22T00:00:00	2024-11-08T13:00:00	1	Precipitación	0
149540	7	Sololá	712	San Antonio Palopó	9	San Antonio Palopo	1	Enero	2023-01-22T00:00:00	2024-11-08T13:00:00	8	Radiación solar	770
149541	7	Sololá	712	San Antonio Palopó	9	San Antonio Palopo	1	Enero	2023-01-22T00:00:00	2024-11-08T14:00:00	2	Temperatura media	22.2
149542	7	Sololá	712	San Antonio Palopó	9	San Antonio Palopo	1	Enero	2023-01-22T00:00:00	2024-11-08T14:00:00	4	Temperatura máxima	22.3
149543	7	Sololá	712	San Antonio Palopó	9	San Antonio Palopo	1	Enero	2023-01-22T00:00:00	2024-11-08T14:00:00	3	Temperatura mínima	21.2
149544	7	Sololá	712	San Antonio Palopó	9	San Antonio Palopo	1	Enero	2023-01-22T00:00:00	2024-11-08T14:00:00	5	Humedad	59
149545	7	Sololá	712	San Antonio Palopó	9	San Antonio Palopo	1	Enero	2023-01-22T00:00:00	2024-11-08T14:00:00	6	Velocidad del viento	11.3
149546	7	Sololá	712	San Antonio Palopó	9	San Antonio Palopo	1	Enero	2023-01-22T00:00:00	2024-11-08T14:00:00	7	Dirección del viento	11.27
149547	7	Sololá	712	San Antonio Palopó	9	San Antonio Palopo	1	Enero	2023-01-22T00:00:00	2024-11-08T14:00:00	1	Precipitación	0
149548	7	Sololá	712	San Antonio Palopó	9	San Antonio Palopo	1	Enero	2023-01-22T00:00:00	2024-11-08T14:00:00	8	Radiación solar	715
149549	7	Sololá	712	San Antonio Palopó	9	San Antonio Palopo	1	Enero	2023-01-22T00:00:00	2024-11-08T15:00:00	2	Temperatura media	21.3
149550	7	Sololá	712	San Antonio Palopó	9	San Antonio Palopo	1	Enero	2023-01-22T00:00:00	2024-11-08T15:00:00	4	Temperatura máxima	22.2
149551	7	Sololá	712	San Antonio Palopó	9	San Antonio Palopo	1	Enero	2023-01-22T00:00:00	2024-11-08T15:00:00	3	Temperatura mínima	21.2
149552	7	Sololá	712	San Antonio Palopó	9	San Antonio Palopo	1	Enero	2023-01-22T00:00:00	2024-11-08T15:00:00	5	Humedad	66
149553	7	Sololá	712	San Antonio Palopó	9	San Antonio Palopo	1	Enero	2023-01-22T00:00:00	2024-11-08T15:00:00	6	Velocidad del viento	16.1
149554	7	Sololá	712	San Antonio Palopó	9	San Antonio Palopo	1	Enero	2023-01-22T00:00:00	2024-11-08T15:00:00	7	Dirección del viento	16.09
149555	7	Sololá	712	San Antonio Palopó	9	San Antonio Palopo	1	Enero	2023-01-22T00:00:00	2024-11-08T15:00:00	1	Precipitación	0
149556	7	Sololá	712	San Antonio Palopó	9	San Antonio Palopo	1	Enero	2023-01-22T00:00:00	2024-11-08T15:00:00	8	Radiación solar	599
149557	7	Sololá	712	San Antonio Palopó	9	San Antonio Palopo	1	Enero	2023-01-22T00:00:00	2024-11-08T16:00:00	2	Temperatura media	20.5
149558	7	Sololá	712	San Antonio Palopó	9	San Antonio Palopo	1	Enero	2023-01-22T00:00:00	2024-11-08T16:00:00	4	Temperatura máxima	21.3
149559	7	Sololá	712	San Antonio Palopó	9	San Antonio Palopo	1	Enero	2023-01-22T00:00:00	2024-11-08T16:00:00	3	Temperatura mínima	20.4
149560	7	Sololá	712	San Antonio Palopó	9	San Antonio Palopo	1	Enero	2023-01-22T00:00:00	2024-11-08T16:00:00	5	Humedad	71
149561	7	Sololá	712	San Antonio Palopó	9	San Antonio Palopo	1	Enero	2023-01-22T00:00:00	2024-11-08T16:00:00	6	Velocidad del viento	16.1
149562	7	Sololá	712	San Antonio Palopó	9	San Antonio Palopo	1	Enero	2023-01-22T00:00:00	2024-11-08T16:00:00	7	Dirección del viento	16.09
149563	7	Sololá	712	San Antonio Palopó	9	San Antonio Palopo	1	Enero	2023-01-22T00:00:00	2024-11-08T16:00:00	1	Precipitación	0
149564	7	Sololá	712	San Antonio Palopó	9	San Antonio Palopo	1	Enero	2023-01-22T00:00:00	2024-11-08T16:00:00	8	Radiación solar	457
149565	7	Sololá	712	San Antonio Palopó	9	San Antonio Palopo	1	Enero	2023-01-22T00:00:00	2024-11-08T17:00:00	2	Temperatura media	19.1
149566	7	Sololá	712	San Antonio Palopó	9	San Antonio Palopo	1	Enero	2023-01-22T00:00:00	2024-11-08T17:00:00	4	Temperatura máxima	20.6
149567	7	Sololá	712	San Antonio Palopó	9	San Antonio Palopo	1	Enero	2023-01-22T00:00:00	2024-11-08T17:00:00	3	Temperatura mínima	19.1
149568	7	Sololá	712	San Antonio Palopó	9	San Antonio Palopo	1	Enero	2023-01-22T00:00:00	2024-11-08T17:00:00	5	Humedad	79
149569	7	Sololá	712	San Antonio Palopó	9	San Antonio Palopo	1	Enero	2023-01-22T00:00:00	2024-11-08T17:00:00	6	Velocidad del viento	12.9
149570	7	Sololá	712	San Antonio Palopó	9	San Antonio Palopo	1	Enero	2023-01-22T00:00:00	2024-11-08T17:00:00	7	Dirección del viento	12.87
149571	7	Sololá	712	San Antonio Palopó	9	San Antonio Palopo	1	Enero	2023-01-22T00:00:00	2024-11-08T17:00:00	1	Precipitación	0
149572	7	Sololá	712	San Antonio Palopó	9	San Antonio Palopo	1	Enero	2023-01-22T00:00:00	2024-11-08T17:00:00	8	Radiación solar	192
149573	7	Sololá	712	San Antonio Palopó	9	San Antonio Palopo	1	Enero	2023-01-22T00:00:00	2024-11-08T18:00:00	2	Temperatura media	18.3
149574	7	Sololá	712	San Antonio Palopó	9	San Antonio Palopo	1	Enero	2023-01-22T00:00:00	2024-11-08T18:00:00	4	Temperatura máxima	19.1
149575	7	Sololá	712	San Antonio Palopó	9	San Antonio Palopo	1	Enero	2023-01-22T00:00:00	2024-11-08T18:00:00	3	Temperatura mínima	18.3
149576	7	Sololá	712	San Antonio Palopó	9	San Antonio Palopo	1	Enero	2023-01-22T00:00:00	2024-11-08T18:00:00	5	Humedad	81
149577	7	Sololá	712	San Antonio Palopó	9	San Antonio Palopo	1	Enero	2023-01-22T00:00:00	2024-11-08T18:00:00	6	Velocidad del viento	9.7
149578	7	Sololá	712	San Antonio Palopó	9	San Antonio Palopo	1	Enero	2023-01-22T00:00:00	2024-11-08T18:00:00	7	Dirección del viento	9.66
149579	7	Sololá	712	San Antonio Palopó	9	San Antonio Palopo	1	Enero	2023-01-22T00:00:00	2024-11-08T18:00:00	1	Precipitación	0
149580	7	Sololá	712	San Antonio Palopó	9	San Antonio Palopo	1	Enero	2023-01-22T00:00:00	2024-11-08T18:00:00	8	Radiación solar	36
149581	7	Sololá	712	San Antonio Palopó	9	San Antonio Palopo	1	Enero	2023-01-22T00:00:00	2024-11-08T19:00:00	2	Temperatura media	18
149582	7	Sololá	712	San Antonio Palopó	9	San Antonio Palopo	1	Enero	2023-01-22T00:00:00	2024-11-08T19:00:00	4	Temperatura máxima	18.4
149583	7	Sololá	712	San Antonio Palopó	9	San Antonio Palopo	1	Enero	2023-01-22T00:00:00	2024-11-08T19:00:00	3	Temperatura mínima	18
149584	7	Sololá	712	San Antonio Palopó	9	San Antonio Palopo	1	Enero	2023-01-22T00:00:00	2024-11-08T19:00:00	5	Humedad	78
149585	7	Sololá	712	San Antonio Palopó	9	San Antonio Palopo	1	Enero	2023-01-22T00:00:00	2024-11-08T19:00:00	6	Velocidad del viento	1.6
149586	7	Sololá	712	San Antonio Palopó	9	San Antonio Palopo	1	Enero	2023-01-22T00:00:00	2024-11-08T19:00:00	7	Dirección del viento	1.61
149587	7	Sololá	712	San Antonio Palopó	9	San Antonio Palopo	1	Enero	2023-01-22T00:00:00	2024-11-08T19:00:00	1	Precipitación	0
149588	7	Sololá	712	San Antonio Palopó	9	San Antonio Palopo	1	Enero	2023-01-22T00:00:00	2024-11-08T19:00:00	8	Radiación solar	0
149589	7	Sololá	712	San Antonio Palopó	9	San Antonio Palopo	1	Enero	2023-01-22T00:00:00	2024-11-08T20:00:00	2	Temperatura media	17.3
149590	7	Sololá	712	San Antonio Palopó	9	San Antonio Palopo	1	Enero	2023-01-22T00:00:00	2024-11-08T20:00:00	4	Temperatura máxima	18
149591	7	Sololá	712	San Antonio Palopó	9	San Antonio Palopo	1	Enero	2023-01-22T00:00:00	2024-11-08T20:00:00	3	Temperatura mínima	17.1
149592	7	Sololá	712	San Antonio Palopó	9	San Antonio Palopo	1	Enero	2023-01-22T00:00:00	2024-11-08T20:00:00	5	Humedad	78
149593	7	Sololá	712	San Antonio Palopó	9	San Antonio Palopo	1	Enero	2023-01-22T00:00:00	2024-11-08T20:00:00	6	Velocidad del viento	3.2
149594	7	Sololá	712	San Antonio Palopó	9	San Antonio Palopo	1	Enero	2023-01-22T00:00:00	2024-11-08T20:00:00	7	Dirección del viento	3.22
149595	7	Sololá	712	San Antonio Palopó	9	San Antonio Palopo	1	Enero	2023-01-22T00:00:00	2024-11-08T20:00:00	1	Precipitación	0
149596	7	Sololá	712	San Antonio Palopó	9	San Antonio Palopo	1	Enero	2023-01-22T00:00:00	2024-11-08T20:00:00	8	Radiación solar	0
149597	7	Sololá	712	San Antonio Palopó	9	San Antonio Palopo	1	Enero	2023-01-22T00:00:00	2024-11-08T21:00:00	2	Temperatura media	17.7
149598	7	Sololá	712	San Antonio Palopó	9	San Antonio Palopo	1	Enero	2023-01-22T00:00:00	2024-11-08T21:00:00	4	Temperatura máxima	17.7
149599	7	Sololá	712	San Antonio Palopó	9	San Antonio Palopo	1	Enero	2023-01-22T00:00:00	2024-11-08T21:00:00	3	Temperatura mínima	17.2
149600	7	Sololá	712	San Antonio Palopó	9	San Antonio Palopo	1	Enero	2023-01-22T00:00:00	2024-11-08T21:00:00	5	Humedad	75
149601	7	Sololá	712	San Antonio Palopó	9	San Antonio Palopo	1	Enero	2023-01-22T00:00:00	2024-11-08T21:00:00	6	Velocidad del viento	6.4
149602	7	Sololá	712	San Antonio Palopó	9	San Antonio Palopo	1	Enero	2023-01-22T00:00:00	2024-11-08T21:00:00	7	Dirección del viento	6.44
149603	7	Sololá	712	San Antonio Palopó	9	San Antonio Palopo	1	Enero	2023-01-22T00:00:00	2024-11-08T21:00:00	1	Precipitación	0
149604	7	Sololá	712	San Antonio Palopó	9	San Antonio Palopo	1	Enero	2023-01-22T00:00:00	2024-11-08T21:00:00	8	Radiación solar	0
149605	7	Sololá	712	San Antonio Palopó	9	San Antonio Palopo	1	Enero	2023-01-22T00:00:00	2024-11-08T22:00:00	2	Temperatura media	17.7
149606	7	Sololá	712	San Antonio Palopó	9	San Antonio Palopo	1	Enero	2023-01-22T00:00:00	2024-11-08T22:00:00	4	Temperatura máxima	17.9
149607	7	Sololá	712	San Antonio Palopó	9	San Antonio Palopo	1	Enero	2023-01-22T00:00:00	2024-11-08T22:00:00	3	Temperatura mínima	17.7
149608	7	Sololá	712	San Antonio Palopó	9	San Antonio Palopo	1	Enero	2023-01-22T00:00:00	2024-11-08T22:00:00	5	Humedad	73
149609	7	Sololá	712	San Antonio Palopó	9	San Antonio Palopo	1	Enero	2023-01-22T00:00:00	2024-11-08T22:00:00	6	Velocidad del viento	8
149610	7	Sololá	712	San Antonio Palopó	9	San Antonio Palopo	1	Enero	2023-01-22T00:00:00	2024-11-08T22:00:00	7	Dirección del viento	8.05
149611	7	Sololá	712	San Antonio Palopó	9	San Antonio Palopo	1	Enero	2023-01-22T00:00:00	2024-11-08T22:00:00	1	Precipitación	0
149612	7	Sololá	712	San Antonio Palopó	9	San Antonio Palopo	1	Enero	2023-01-22T00:00:00	2024-11-08T22:00:00	8	Radiación solar	0
149613	7	Sololá	712	San Antonio Palopó	9	San Antonio Palopo	1	Enero	2023-01-22T00:00:00	2024-11-08T23:00:00	2	Temperatura media	17.8
149614	7	Sololá	712	San Antonio Palopó	9	San Antonio Palopo	1	Enero	2023-01-22T00:00:00	2024-11-08T23:00:00	4	Temperatura máxima	17.9
149615	7	Sololá	712	San Antonio Palopó	9	San Antonio Palopo	1	Enero	2023-01-22T00:00:00	2024-11-08T23:00:00	3	Temperatura mínima	17.7
149616	7	Sololá	712	San Antonio Palopó	9	San Antonio Palopo	1	Enero	2023-01-22T00:00:00	2024-11-08T23:00:00	5	Humedad	67
149617	7	Sololá	712	San Antonio Palopó	9	San Antonio Palopo	1	Enero	2023-01-22T00:00:00	2024-11-08T23:00:00	6	Velocidad del viento	8
149618	7	Sololá	712	San Antonio Palopó	9	San Antonio Palopo	1	Enero	2023-01-22T00:00:00	2024-11-08T23:00:00	7	Dirección del viento	8.05
149619	7	Sololá	712	San Antonio Palopó	9	San Antonio Palopo	1	Enero	2023-01-22T00:00:00	2024-11-08T23:00:00	1	Precipitación	0
149620	7	Sololá	712	San Antonio Palopó	9	San Antonio Palopo	1	Enero	2023-01-22T00:00:00	2024-11-08T23:00:00	8	Radiación solar	0
149621	7	Sololá	712	San Antonio Palopó	9	San Antonio Palopo	1	Enero	2023-01-23T00:00:00	2024-11-08T00:00:00	2	Temperatura media	17.6
149622	7	Sololá	712	San Antonio Palopó	9	San Antonio Palopo	1	Enero	2023-01-23T00:00:00	2024-11-08T00:00:00	4	Temperatura máxima	17.8
149623	7	Sololá	712	San Antonio Palopó	9	San Antonio Palopo	1	Enero	2023-01-23T00:00:00	2024-11-08T00:00:00	3	Temperatura mínima	17.3
149624	7	Sololá	712	San Antonio Palopó	9	San Antonio Palopo	1	Enero	2023-01-23T00:00:00	2024-11-08T00:00:00	5	Humedad	69
149625	7	Sololá	712	San Antonio Palopó	9	San Antonio Palopo	1	Enero	2023-01-23T00:00:00	2024-11-08T00:00:00	6	Velocidad del viento	14.5
149626	7	Sololá	712	San Antonio Palopó	9	San Antonio Palopo	1	Enero	2023-01-23T00:00:00	2024-11-08T00:00:00	7	Dirección del viento	14.48
149627	7	Sololá	712	San Antonio Palopó	9	San Antonio Palopo	1	Enero	2023-01-23T00:00:00	2024-11-08T00:00:00	1	Precipitación	0
149628	7	Sololá	712	San Antonio Palopó	9	San Antonio Palopo	1	Enero	2023-01-23T00:00:00	2024-11-08T00:00:00	8	Radiación solar	0
149629	7	Sololá	712	San Antonio Palopó	9	San Antonio Palopo	1	Enero	2023-01-23T00:00:00	2024-11-08T01:00:00	2	Temperatura media	16.8
149630	7	Sololá	712	San Antonio Palopó	9	San Antonio Palopo	1	Enero	2023-01-23T00:00:00	2024-11-08T01:00:00	4	Temperatura máxima	17.6
149631	7	Sololá	712	San Antonio Palopó	9	San Antonio Palopo	1	Enero	2023-01-23T00:00:00	2024-11-08T01:00:00	3	Temperatura mínima	16.8
149632	7	Sololá	712	San Antonio Palopó	9	San Antonio Palopo	1	Enero	2023-01-23T00:00:00	2024-11-08T01:00:00	5	Humedad	72
149633	7	Sololá	712	San Antonio Palopó	9	San Antonio Palopo	1	Enero	2023-01-23T00:00:00	2024-11-08T01:00:00	6	Velocidad del viento	14.5
149634	7	Sololá	712	San Antonio Palopó	9	San Antonio Palopo	1	Enero	2023-01-23T00:00:00	2024-11-08T01:00:00	7	Dirección del viento	14.48
149635	7	Sololá	712	San Antonio Palopó	9	San Antonio Palopo	1	Enero	2023-01-23T00:00:00	2024-11-08T01:00:00	1	Precipitación	0
149636	7	Sololá	712	San Antonio Palopó	9	San Antonio Palopo	1	Enero	2023-01-23T00:00:00	2024-11-08T01:00:00	8	Radiación solar	0
149637	7	Sololá	712	San Antonio Palopó	9	San Antonio Palopo	1	Enero	2023-01-23T00:00:00	2024-11-08T02:00:00	2	Temperatura media	16.7
149638	7	Sololá	712	San Antonio Palopó	9	San Antonio Palopo	1	Enero	2023-01-23T00:00:00	2024-11-08T02:00:00	4	Temperatura máxima	17.1
149639	7	Sololá	712	San Antonio Palopó	9	San Antonio Palopo	1	Enero	2023-01-23T00:00:00	2024-11-08T02:00:00	3	Temperatura mínima	16.7
149640	7	Sololá	712	San Antonio Palopó	9	San Antonio Palopo	1	Enero	2023-01-23T00:00:00	2024-11-08T02:00:00	5	Humedad	73
149641	7	Sololá	712	San Antonio Palopó	9	San Antonio Palopo	1	Enero	2023-01-23T00:00:00	2024-11-08T02:00:00	6	Velocidad del viento	12.9
149642	7	Sololá	712	San Antonio Palopó	9	San Antonio Palopo	1	Enero	2023-01-23T00:00:00	2024-11-08T02:00:00	7	Dirección del viento	12.87
149643	7	Sololá	712	San Antonio Palopó	9	San Antonio Palopo	1	Enero	2023-01-23T00:00:00	2024-11-08T02:00:00	1	Precipitación	0
149644	7	Sololá	712	San Antonio Palopó	9	San Antonio Palopo	1	Enero	2023-01-23T00:00:00	2024-11-08T02:00:00	8	Radiación solar	0
149645	7	Sololá	712	San Antonio Palopó	9	San Antonio Palopo	1	Enero	2023-01-23T00:00:00	2024-11-08T03:00:00	2	Temperatura media	16.2
149646	7	Sololá	712	San Antonio Palopó	9	San Antonio Palopo	1	Enero	2023-01-23T00:00:00	2024-11-08T03:00:00	4	Temperatura máxima	16.7
149647	7	Sololá	712	San Antonio Palopó	9	San Antonio Palopo	1	Enero	2023-01-23T00:00:00	2024-11-08T03:00:00	3	Temperatura mínima	16.2
149648	7	Sololá	712	San Antonio Palopó	9	San Antonio Palopo	1	Enero	2023-01-23T00:00:00	2024-11-08T03:00:00	5	Humedad	72
149649	7	Sololá	712	San Antonio Palopó	9	San Antonio Palopo	1	Enero	2023-01-23T00:00:00	2024-11-08T03:00:00	6	Velocidad del viento	12.9
149650	7	Sololá	712	San Antonio Palopó	9	San Antonio Palopo	1	Enero	2023-01-23T00:00:00	2024-11-08T03:00:00	7	Dirección del viento	12.87
149651	7	Sololá	712	San Antonio Palopó	9	San Antonio Palopo	1	Enero	2023-01-23T00:00:00	2024-11-08T03:00:00	1	Precipitación	0
149652	7	Sololá	712	San Antonio Palopó	9	San Antonio Palopo	1	Enero	2023-01-23T00:00:00	2024-11-08T03:00:00	8	Radiación solar	0
149653	7	Sololá	712	San Antonio Palopó	9	San Antonio Palopo	1	Enero	2023-01-23T00:00:00	2024-11-08T04:00:00	2	Temperatura media	16.1
149654	7	Sololá	712	San Antonio Palopó	9	San Antonio Palopo	1	Enero	2023-01-23T00:00:00	2024-11-08T04:00:00	4	Temperatura máxima	16.6
149655	7	Sololá	712	San Antonio Palopó	9	San Antonio Palopo	1	Enero	2023-01-23T00:00:00	2024-11-08T04:00:00	3	Temperatura mínima	16.1
149656	7	Sololá	712	San Antonio Palopó	9	San Antonio Palopo	1	Enero	2023-01-23T00:00:00	2024-11-08T04:00:00	5	Humedad	70
149657	7	Sololá	712	San Antonio Palopó	9	San Antonio Palopo	1	Enero	2023-01-23T00:00:00	2024-11-08T04:00:00	6	Velocidad del viento	9.7
149658	7	Sololá	712	San Antonio Palopó	9	San Antonio Palopo	1	Enero	2023-01-23T00:00:00	2024-11-08T04:00:00	7	Dirección del viento	9.66
149659	7	Sololá	712	San Antonio Palopó	9	San Antonio Palopo	1	Enero	2023-01-23T00:00:00	2024-11-08T04:00:00	1	Precipitación	0
149660	7	Sololá	712	San Antonio Palopó	9	San Antonio Palopo	1	Enero	2023-01-23T00:00:00	2024-11-08T04:00:00	8	Radiación solar	0
149661	7	Sololá	712	San Antonio Palopó	9	San Antonio Palopo	1	Enero	2023-01-23T00:00:00	2024-11-08T05:00:00	2	Temperatura media	16.1
149662	7	Sololá	712	San Antonio Palopó	9	San Antonio Palopo	1	Enero	2023-01-23T00:00:00	2024-11-08T05:00:00	4	Temperatura máxima	16.2
149663	7	Sololá	712	San Antonio Palopó	9	San Antonio Palopo	1	Enero	2023-01-23T00:00:00	2024-11-08T05:00:00	3	Temperatura mínima	15.8
149664	7	Sololá	712	San Antonio Palopó	9	San Antonio Palopo	1	Enero	2023-01-23T00:00:00	2024-11-08T05:00:00	5	Humedad	68
149665	7	Sololá	712	San Antonio Palopó	9	San Antonio Palopo	1	Enero	2023-01-23T00:00:00	2024-11-08T05:00:00	6	Velocidad del viento	9.7
149666	7	Sololá	712	San Antonio Palopó	9	San Antonio Palopo	1	Enero	2023-01-23T00:00:00	2024-11-08T05:00:00	7	Dirección del viento	9.66
149667	7	Sololá	712	San Antonio Palopó	9	San Antonio Palopo	1	Enero	2023-01-23T00:00:00	2024-11-08T05:00:00	1	Precipitación	0
149668	7	Sololá	712	San Antonio Palopó	9	San Antonio Palopo	1	Enero	2023-01-23T00:00:00	2024-11-08T05:00:00	8	Radiación solar	0
149669	7	Sololá	712	San Antonio Palopó	9	San Antonio Palopo	1	Enero	2023-01-23T00:00:00	2024-11-08T06:00:00	2	Temperatura media	15.9
149670	7	Sololá	712	San Antonio Palopó	9	San Antonio Palopo	1	Enero	2023-01-23T00:00:00	2024-11-08T06:00:00	4	Temperatura máxima	16.3
149671	7	Sololá	712	San Antonio Palopó	9	San Antonio Palopo	1	Enero	2023-01-23T00:00:00	2024-11-08T06:00:00	3	Temperatura mínima	15.9
149672	7	Sololá	712	San Antonio Palopó	9	San Antonio Palopo	1	Enero	2023-01-23T00:00:00	2024-11-08T06:00:00	5	Humedad	67
149673	7	Sololá	712	San Antonio Palopó	9	San Antonio Palopo	1	Enero	2023-01-23T00:00:00	2024-11-08T06:00:00	6	Velocidad del viento	12.9
149674	7	Sololá	712	San Antonio Palopó	9	San Antonio Palopo	1	Enero	2023-01-23T00:00:00	2024-11-08T06:00:00	7	Dirección del viento	12.87
149675	7	Sololá	712	San Antonio Palopó	9	San Antonio Palopo	1	Enero	2023-01-23T00:00:00	2024-11-08T06:00:00	1	Precipitación	0
149676	7	Sololá	712	San Antonio Palopó	9	San Antonio Palopo	1	Enero	2023-01-23T00:00:00	2024-11-08T06:00:00	8	Radiación solar	0
149677	7	Sololá	712	San Antonio Palopó	9	San Antonio Palopo	1	Enero	2023-01-23T00:00:00	2024-11-08T07:00:00	2	Temperatura media	15.9
149678	7	Sololá	712	San Antonio Palopó	9	San Antonio Palopo	1	Enero	2023-01-23T00:00:00	2024-11-08T07:00:00	4	Temperatura máxima	15.9
149679	7	Sololá	712	San Antonio Palopó	9	San Antonio Palopo	1	Enero	2023-01-23T00:00:00	2024-11-08T07:00:00	3	Temperatura mínima	15.7
149680	7	Sololá	712	San Antonio Palopó	9	San Antonio Palopo	1	Enero	2023-01-23T00:00:00	2024-11-08T07:00:00	5	Humedad	68
149681	7	Sololá	712	San Antonio Palopó	9	San Antonio Palopo	1	Enero	2023-01-23T00:00:00	2024-11-08T07:00:00	6	Velocidad del viento	14.5
149682	7	Sololá	712	San Antonio Palopó	9	San Antonio Palopo	1	Enero	2023-01-23T00:00:00	2024-11-08T07:00:00	7	Dirección del viento	14.48
149683	7	Sololá	712	San Antonio Palopó	9	San Antonio Palopo	1	Enero	2023-01-23T00:00:00	2024-11-08T07:00:00	1	Precipitación	0
149684	7	Sololá	712	San Antonio Palopó	9	San Antonio Palopo	1	Enero	2023-01-23T00:00:00	2024-11-08T07:00:00	8	Radiación solar	3
149685	7	Sololá	712	San Antonio Palopó	9	San Antonio Palopo	1	Enero	2023-01-23T00:00:00	2024-11-08T08:00:00	2	Temperatura media	16.8
149686	7	Sololá	712	San Antonio Palopó	9	San Antonio Palopo	1	Enero	2023-01-23T00:00:00	2024-11-08T08:00:00	4	Temperatura máxima	16.8
149687	7	Sololá	712	San Antonio Palopó	9	San Antonio Palopo	1	Enero	2023-01-23T00:00:00	2024-11-08T08:00:00	3	Temperatura mínima	15.9
149688	7	Sololá	712	San Antonio Palopó	9	San Antonio Palopo	1	Enero	2023-01-23T00:00:00	2024-11-08T08:00:00	5	Humedad	65
149689	7	Sololá	712	San Antonio Palopó	9	San Antonio Palopo	1	Enero	2023-01-23T00:00:00	2024-11-08T08:00:00	6	Velocidad del viento	11.3
149690	7	Sololá	712	San Antonio Palopó	9	San Antonio Palopo	1	Enero	2023-01-23T00:00:00	2024-11-08T08:00:00	7	Dirección del viento	11.27
149691	7	Sololá	712	San Antonio Palopó	9	San Antonio Palopo	1	Enero	2023-01-23T00:00:00	2024-11-08T08:00:00	1	Precipitación	0
149692	7	Sololá	712	San Antonio Palopó	9	San Antonio Palopo	1	Enero	2023-01-23T00:00:00	2024-11-08T08:00:00	8	Radiación solar	17
149693	7	Sololá	712	San Antonio Palopó	9	San Antonio Palopo	1	Enero	2023-01-23T00:00:00	2024-11-08T09:00:00	2	Temperatura media	17.7
149694	7	Sololá	712	San Antonio Palopó	9	San Antonio Palopo	1	Enero	2023-01-23T00:00:00	2024-11-08T09:00:00	4	Temperatura máxima	17.8
149695	7	Sololá	712	San Antonio Palopó	9	San Antonio Palopo	1	Enero	2023-01-23T00:00:00	2024-11-08T09:00:00	3	Temperatura mínima	16.8
149696	7	Sololá	712	San Antonio Palopó	9	San Antonio Palopo	1	Enero	2023-01-23T00:00:00	2024-11-08T09:00:00	5	Humedad	66
149697	7	Sololá	712	San Antonio Palopó	9	San Antonio Palopo	1	Enero	2023-01-23T00:00:00	2024-11-08T09:00:00	6	Velocidad del viento	4.8
149698	7	Sololá	712	San Antonio Palopó	9	San Antonio Palopo	1	Enero	2023-01-23T00:00:00	2024-11-08T09:00:00	7	Dirección del viento	4.83
149699	7	Sololá	712	San Antonio Palopó	9	San Antonio Palopo	1	Enero	2023-01-23T00:00:00	2024-11-08T09:00:00	1	Precipitación	0
149700	7	Sololá	712	San Antonio Palopó	9	San Antonio Palopo	1	Enero	2023-01-23T00:00:00	2024-11-08T09:00:00	8	Radiación solar	149
149701	7	Sololá	712	San Antonio Palopó	9	San Antonio Palopo	1	Enero	2023-01-23T00:00:00	2024-11-08T10:00:00	2	Temperatura media	21.2
149702	7	Sololá	712	San Antonio Palopó	9	San Antonio Palopo	1	Enero	2023-01-23T00:00:00	2024-11-08T10:00:00	4	Temperatura máxima	21.2
149703	7	Sololá	712	San Antonio Palopó	9	San Antonio Palopo	1	Enero	2023-01-23T00:00:00	2024-11-08T10:00:00	3	Temperatura mínima	17.7
149704	7	Sololá	712	San Antonio Palopó	9	San Antonio Palopo	1	Enero	2023-01-23T00:00:00	2024-11-08T10:00:00	5	Humedad	55
149705	7	Sololá	712	San Antonio Palopó	9	San Antonio Palopo	1	Enero	2023-01-23T00:00:00	2024-11-08T10:00:00	6	Velocidad del viento	3.2
149706	7	Sololá	712	San Antonio Palopó	9	San Antonio Palopo	1	Enero	2023-01-23T00:00:00	2024-11-08T10:00:00	7	Dirección del viento	3.22
149707	7	Sololá	712	San Antonio Palopó	9	San Antonio Palopo	1	Enero	2023-01-23T00:00:00	2024-11-08T10:00:00	1	Precipitación	0
149708	7	Sololá	712	San Antonio Palopó	9	San Antonio Palopo	1	Enero	2023-01-23T00:00:00	2024-11-08T10:00:00	8	Radiación solar	531
149709	7	Sololá	712	San Antonio Palopó	9	San Antonio Palopo	1	Enero	2023-01-23T00:00:00	2024-11-08T11:00:00	2	Temperatura media	22.5
149710	7	Sololá	712	San Antonio Palopó	9	San Antonio Palopo	1	Enero	2023-01-23T00:00:00	2024-11-08T11:00:00	4	Temperatura máxima	22.6
149711	7	Sololá	712	San Antonio Palopó	9	San Antonio Palopo	1	Enero	2023-01-23T00:00:00	2024-11-08T11:00:00	3	Temperatura mínima	21.2
149712	7	Sololá	712	San Antonio Palopó	9	San Antonio Palopo	1	Enero	2023-01-23T00:00:00	2024-11-08T11:00:00	5	Humedad	48
149713	7	Sololá	712	San Antonio Palopó	9	San Antonio Palopo	1	Enero	2023-01-23T00:00:00	2024-11-08T11:00:00	6	Velocidad del viento	3.2
149714	7	Sololá	712	San Antonio Palopó	9	San Antonio Palopo	1	Enero	2023-01-23T00:00:00	2024-11-08T11:00:00	7	Dirección del viento	3.22
149715	7	Sololá	712	San Antonio Palopó	9	San Antonio Palopo	1	Enero	2023-01-23T00:00:00	2024-11-08T11:00:00	1	Precipitación	0
149716	7	Sololá	712	San Antonio Palopó	9	San Antonio Palopo	1	Enero	2023-01-23T00:00:00	2024-11-08T11:00:00	8	Radiación solar	678
149717	7	Sololá	712	San Antonio Palopó	9	San Antonio Palopo	1	Enero	2023-01-23T00:00:00	2024-11-08T12:00:00	2	Temperatura media	23.2
149718	7	Sololá	712	San Antonio Palopó	9	San Antonio Palopo	1	Enero	2023-01-23T00:00:00	2024-11-08T12:00:00	4	Temperatura máxima	23.2
149719	7	Sololá	712	San Antonio Palopó	9	San Antonio Palopo	1	Enero	2023-01-23T00:00:00	2024-11-08T12:00:00	3	Temperatura mínima	22.1
149720	7	Sololá	712	San Antonio Palopó	9	San Antonio Palopo	1	Enero	2023-01-23T00:00:00	2024-11-08T12:00:00	5	Humedad	41
149721	7	Sololá	712	San Antonio Palopó	9	San Antonio Palopo	1	Enero	2023-01-23T00:00:00	2024-11-08T12:00:00	6	Velocidad del viento	4.8
149722	7	Sololá	712	San Antonio Palopó	9	San Antonio Palopo	1	Enero	2023-01-23T00:00:00	2024-11-08T12:00:00	7	Dirección del viento	4.83
149723	7	Sololá	712	San Antonio Palopó	9	San Antonio Palopo	1	Enero	2023-01-23T00:00:00	2024-11-08T12:00:00	1	Precipitación	0
149724	7	Sololá	712	San Antonio Palopó	9	San Antonio Palopo	1	Enero	2023-01-23T00:00:00	2024-11-08T12:00:00	8	Radiación solar	670
149725	7	Sololá	712	San Antonio Palopó	9	San Antonio Palopo	1	Enero	2023-01-23T00:00:00	2024-11-08T13:00:00	2	Temperatura media	24.3
149726	7	Sololá	712	San Antonio Palopó	9	San Antonio Palopo	1	Enero	2023-01-23T00:00:00	2024-11-08T13:00:00	4	Temperatura máxima	25
149727	7	Sololá	712	San Antonio Palopó	9	San Antonio Palopo	1	Enero	2023-01-23T00:00:00	2024-11-08T13:00:00	3	Temperatura mínima	22.9
149728	7	Sololá	712	San Antonio Palopó	9	San Antonio Palopo	1	Enero	2023-01-23T00:00:00	2024-11-08T13:00:00	5	Humedad	36
149729	7	Sololá	712	San Antonio Palopó	9	San Antonio Palopo	1	Enero	2023-01-23T00:00:00	2024-11-08T13:00:00	6	Velocidad del viento	12.9
149730	7	Sololá	712	San Antonio Palopó	9	San Antonio Palopo	1	Enero	2023-01-23T00:00:00	2024-11-08T13:00:00	7	Dirección del viento	12.87
149731	7	Sololá	712	San Antonio Palopó	9	San Antonio Palopo	1	Enero	2023-01-23T00:00:00	2024-11-08T13:00:00	1	Precipitación	0
149732	7	Sololá	712	San Antonio Palopó	9	San Antonio Palopo	1	Enero	2023-01-23T00:00:00	2024-11-08T13:00:00	8	Radiación solar	786
149733	7	Sololá	712	San Antonio Palopó	9	San Antonio Palopo	1	Enero	2023-01-23T00:00:00	2024-11-08T14:00:00	2	Temperatura media	24.8
149734	7	Sololá	712	San Antonio Palopó	9	San Antonio Palopo	1	Enero	2023-01-23T00:00:00	2024-11-08T14:00:00	4	Temperatura máxima	24.8
149735	7	Sololá	712	San Antonio Palopó	9	San Antonio Palopo	1	Enero	2023-01-23T00:00:00	2024-11-08T14:00:00	3	Temperatura mínima	23.1
149736	7	Sololá	712	San Antonio Palopó	9	San Antonio Palopo	1	Enero	2023-01-23T00:00:00	2024-11-08T14:00:00	5	Humedad	38
149737	7	Sololá	712	San Antonio Palopó	9	San Antonio Palopo	1	Enero	2023-01-23T00:00:00	2024-11-08T14:00:00	6	Velocidad del viento	14.5
149738	7	Sololá	712	San Antonio Palopó	9	San Antonio Palopo	1	Enero	2023-01-23T00:00:00	2024-11-08T14:00:00	7	Dirección del viento	14.48
149739	7	Sololá	712	San Antonio Palopó	9	San Antonio Palopo	1	Enero	2023-01-23T00:00:00	2024-11-08T14:00:00	1	Precipitación	0
149740	7	Sololá	712	San Antonio Palopó	9	San Antonio Palopo	1	Enero	2023-01-23T00:00:00	2024-11-08T14:00:00	8	Radiación solar	730
149741	7	Sololá	712	San Antonio Palopó	9	San Antonio Palopo	1	Enero	2023-01-23T00:00:00	2024-11-08T15:00:00	2	Temperatura media	24.9
149742	7	Sololá	712	San Antonio Palopó	9	San Antonio Palopo	1	Enero	2023-01-23T00:00:00	2024-11-08T15:00:00	4	Temperatura máxima	25.1
149743	7	Sololá	712	San Antonio Palopó	9	San Antonio Palopo	1	Enero	2023-01-23T00:00:00	2024-11-08T15:00:00	3	Temperatura mínima	24.1
149744	7	Sololá	712	San Antonio Palopó	9	San Antonio Palopo	1	Enero	2023-01-23T00:00:00	2024-11-08T15:00:00	5	Humedad	39
149745	7	Sololá	712	San Antonio Palopó	9	San Antonio Palopo	1	Enero	2023-01-23T00:00:00	2024-11-08T15:00:00	6	Velocidad del viento	12.9
149746	7	Sololá	712	San Antonio Palopó	9	San Antonio Palopo	1	Enero	2023-01-23T00:00:00	2024-11-08T15:00:00	7	Dirección del viento	12.87
149747	7	Sololá	712	San Antonio Palopó	9	San Antonio Palopo	1	Enero	2023-01-23T00:00:00	2024-11-08T15:00:00	1	Precipitación	0
149748	7	Sololá	712	San Antonio Palopó	9	San Antonio Palopo	1	Enero	2023-01-23T00:00:00	2024-11-08T15:00:00	8	Radiación solar	618
149749	7	Sololá	712	San Antonio Palopó	9	San Antonio Palopo	1	Enero	2023-01-23T00:00:00	2024-11-08T16:00:00	2	Temperatura media	25.3
149750	7	Sololá	712	San Antonio Palopó	9	San Antonio Palopo	1	Enero	2023-01-23T00:00:00	2024-11-08T16:00:00	4	Temperatura máxima	26
149751	7	Sololá	712	San Antonio Palopó	9	San Antonio Palopo	1	Enero	2023-01-23T00:00:00	2024-11-08T16:00:00	3	Temperatura mínima	24.8
149752	7	Sololá	712	San Antonio Palopó	9	San Antonio Palopo	1	Enero	2023-01-23T00:00:00	2024-11-08T16:00:00	5	Humedad	34
149753	7	Sololá	712	San Antonio Palopó	9	San Antonio Palopo	1	Enero	2023-01-23T00:00:00	2024-11-08T16:00:00	6	Velocidad del viento	11.3
149754	7	Sololá	712	San Antonio Palopó	9	San Antonio Palopo	1	Enero	2023-01-23T00:00:00	2024-11-08T16:00:00	7	Dirección del viento	11.27
149755	7	Sololá	712	San Antonio Palopó	9	San Antonio Palopo	1	Enero	2023-01-23T00:00:00	2024-11-08T16:00:00	1	Precipitación	0
149756	7	Sololá	712	San Antonio Palopó	9	San Antonio Palopo	1	Enero	2023-01-23T00:00:00	2024-11-08T16:00:00	8	Radiación solar	451
149757	7	Sololá	712	San Antonio Palopó	9	San Antonio Palopo	1	Enero	2023-01-23T00:00:00	2024-11-08T17:00:00	2	Temperatura media	24.4
149758	7	Sololá	712	San Antonio Palopó	9	San Antonio Palopo	1	Enero	2023-01-23T00:00:00	2024-11-08T17:00:00	4	Temperatura máxima	25.3
149759	7	Sololá	712	San Antonio Palopó	9	San Antonio Palopo	1	Enero	2023-01-23T00:00:00	2024-11-08T17:00:00	3	Temperatura mínima	24.3
149760	7	Sololá	712	San Antonio Palopó	9	San Antonio Palopo	1	Enero	2023-01-23T00:00:00	2024-11-08T17:00:00	5	Humedad	45
149761	7	Sololá	712	San Antonio Palopó	9	San Antonio Palopo	1	Enero	2023-01-23T00:00:00	2024-11-08T17:00:00	6	Velocidad del viento	11.3
149762	7	Sololá	712	San Antonio Palopó	9	San Antonio Palopo	1	Enero	2023-01-23T00:00:00	2024-11-08T17:00:00	7	Dirección del viento	11.27
149763	7	Sololá	712	San Antonio Palopó	9	San Antonio Palopo	1	Enero	2023-01-23T00:00:00	2024-11-08T17:00:00	1	Precipitación	0
149764	7	Sololá	712	San Antonio Palopó	9	San Antonio Palopo	1	Enero	2023-01-23T00:00:00	2024-11-08T17:00:00	8	Radiación solar	247
149765	7	Sololá	712	San Antonio Palopó	9	San Antonio Palopo	1	Enero	2023-01-23T00:00:00	2024-11-08T18:00:00	2	Temperatura media	22
149766	7	Sololá	712	San Antonio Palopó	9	San Antonio Palopo	1	Enero	2023-01-23T00:00:00	2024-11-08T18:00:00	4	Temperatura máxima	24.4
149767	7	Sololá	712	San Antonio Palopó	9	San Antonio Palopo	1	Enero	2023-01-23T00:00:00	2024-11-08T18:00:00	3	Temperatura mínima	22
149768	7	Sololá	712	San Antonio Palopó	9	San Antonio Palopo	1	Enero	2023-01-23T00:00:00	2024-11-08T18:00:00	5	Humedad	51
149769	7	Sololá	712	San Antonio Palopó	9	San Antonio Palopo	1	Enero	2023-01-23T00:00:00	2024-11-08T18:00:00	6	Velocidad del viento	6.4
149770	7	Sololá	712	San Antonio Palopó	9	San Antonio Palopo	1	Enero	2023-01-23T00:00:00	2024-11-08T18:00:00	7	Dirección del viento	6.44
149771	7	Sololá	712	San Antonio Palopó	9	San Antonio Palopo	1	Enero	2023-01-23T00:00:00	2024-11-08T18:00:00	1	Precipitación	0
149772	7	Sololá	712	San Antonio Palopó	9	San Antonio Palopo	1	Enero	2023-01-23T00:00:00	2024-11-08T18:00:00	8	Radiación solar	40
149773	7	Sololá	712	San Antonio Palopó	9	San Antonio Palopo	1	Enero	2023-01-23T00:00:00	2024-11-08T19:00:00	2	Temperatura media	20.3
149774	7	Sololá	712	San Antonio Palopó	9	San Antonio Palopo	1	Enero	2023-01-23T00:00:00	2024-11-08T19:00:00	4	Temperatura máxima	22
149775	7	Sololá	712	San Antonio Palopó	9	San Antonio Palopo	1	Enero	2023-01-23T00:00:00	2024-11-08T19:00:00	3	Temperatura mínima	20.2
149776	7	Sololá	712	San Antonio Palopó	9	San Antonio Palopo	1	Enero	2023-01-23T00:00:00	2024-11-08T19:00:00	5	Humedad	58
149777	7	Sololá	712	San Antonio Palopó	9	San Antonio Palopo	1	Enero	2023-01-23T00:00:00	2024-11-08T19:00:00	6	Velocidad del viento	3.2
149778	7	Sololá	712	San Antonio Palopó	9	San Antonio Palopo	1	Enero	2023-01-23T00:00:00	2024-11-08T19:00:00	7	Dirección del viento	3.22
149779	7	Sololá	712	San Antonio Palopó	9	San Antonio Palopo	1	Enero	2023-01-23T00:00:00	2024-11-08T19:00:00	1	Precipitación	0
149780	7	Sololá	712	San Antonio Palopó	9	San Antonio Palopo	1	Enero	2023-01-23T00:00:00	2024-11-08T19:00:00	8	Radiación solar	0
149781	7	Sololá	712	San Antonio Palopó	9	San Antonio Palopo	1	Enero	2023-01-23T00:00:00	2024-11-08T20:00:00	2	Temperatura media	19.2
149782	7	Sololá	712	San Antonio Palopó	9	San Antonio Palopo	1	Enero	2023-01-23T00:00:00	2024-11-08T20:00:00	4	Temperatura máxima	20.3
149783	7	Sololá	712	San Antonio Palopó	9	San Antonio Palopo	1	Enero	2023-01-23T00:00:00	2024-11-08T20:00:00	3	Temperatura mínima	19.2
149784	7	Sololá	712	San Antonio Palopó	9	San Antonio Palopo	1	Enero	2023-01-23T00:00:00	2024-11-08T20:00:00	5	Humedad	63
149785	7	Sololá	712	San Antonio Palopó	9	San Antonio Palopo	1	Enero	2023-01-23T00:00:00	2024-11-08T20:00:00	6	Velocidad del viento	8
149786	7	Sololá	712	San Antonio Palopó	9	San Antonio Palopo	1	Enero	2023-01-23T00:00:00	2024-11-08T20:00:00	7	Dirección del viento	8.05
149787	7	Sololá	712	San Antonio Palopó	9	San Antonio Palopo	1	Enero	2023-01-23T00:00:00	2024-11-08T20:00:00	1	Precipitación	0
149788	7	Sololá	712	San Antonio Palopó	9	San Antonio Palopo	1	Enero	2023-01-23T00:00:00	2024-11-08T20:00:00	8	Radiación solar	0
149789	7	Sololá	712	San Antonio Palopó	9	San Antonio Palopo	1	Enero	2023-01-23T00:00:00	2024-11-08T21:00:00	2	Temperatura media	18.3
149790	7	Sololá	712	San Antonio Palopó	9	San Antonio Palopo	1	Enero	2023-01-23T00:00:00	2024-11-08T21:00:00	4	Temperatura máxima	19.2
149791	7	Sololá	712	San Antonio Palopó	9	San Antonio Palopo	1	Enero	2023-01-23T00:00:00	2024-11-08T21:00:00	3	Temperatura mínima	18.3
149792	7	Sololá	712	San Antonio Palopó	9	San Antonio Palopo	1	Enero	2023-01-23T00:00:00	2024-11-08T21:00:00	5	Humedad	65
149793	7	Sololá	712	San Antonio Palopó	9	San Antonio Palopo	1	Enero	2023-01-23T00:00:00	2024-11-08T21:00:00	6	Velocidad del viento	22.5
149794	7	Sololá	712	San Antonio Palopó	9	San Antonio Palopo	1	Enero	2023-01-23T00:00:00	2024-11-08T21:00:00	7	Dirección del viento	22.53
149795	7	Sololá	712	San Antonio Palopó	9	San Antonio Palopo	1	Enero	2023-01-23T00:00:00	2024-11-08T21:00:00	1	Precipitación	0
149796	7	Sololá	712	San Antonio Palopó	9	San Antonio Palopo	1	Enero	2023-01-23T00:00:00	2024-11-08T21:00:00	8	Radiación solar	0
149797	7	Sololá	712	San Antonio Palopó	9	San Antonio Palopo	1	Enero	2023-01-23T00:00:00	2024-11-08T22:00:00	2	Temperatura media	17.9
149798	7	Sololá	712	San Antonio Palopó	9	San Antonio Palopo	1	Enero	2023-01-23T00:00:00	2024-11-08T22:00:00	4	Temperatura máxima	18.3
149799	7	Sololá	712	San Antonio Palopó	9	San Antonio Palopo	1	Enero	2023-01-23T00:00:00	2024-11-08T22:00:00	3	Temperatura mínima	17.8
149800	7	Sololá	712	San Antonio Palopó	9	San Antonio Palopo	1	Enero	2023-01-23T00:00:00	2024-11-08T22:00:00	5	Humedad	65
149801	7	Sololá	712	San Antonio Palopó	9	San Antonio Palopo	1	Enero	2023-01-23T00:00:00	2024-11-08T22:00:00	6	Velocidad del viento	20.9
149802	7	Sololá	712	San Antonio Palopó	9	San Antonio Palopo	1	Enero	2023-01-23T00:00:00	2024-11-08T22:00:00	7	Dirección del viento	20.92
149803	7	Sololá	712	San Antonio Palopó	9	San Antonio Palopo	1	Enero	2023-01-23T00:00:00	2024-11-08T22:00:00	1	Precipitación	0
149804	7	Sololá	712	San Antonio Palopó	9	San Antonio Palopo	1	Enero	2023-01-23T00:00:00	2024-11-08T22:00:00	8	Radiación solar	0
149805	7	Sololá	712	San Antonio Palopó	9	San Antonio Palopo	1	Enero	2023-01-23T00:00:00	2024-11-08T23:00:00	2	Temperatura media	17.1
149806	7	Sololá	712	San Antonio Palopó	9	San Antonio Palopo	1	Enero	2023-01-23T00:00:00	2024-11-08T23:00:00	4	Temperatura máxima	17.9
149807	7	Sololá	712	San Antonio Palopó	9	San Antonio Palopo	1	Enero	2023-01-23T00:00:00	2024-11-08T23:00:00	3	Temperatura mínima	17.1
149808	7	Sololá	712	San Antonio Palopó	9	San Antonio Palopo	1	Enero	2023-01-23T00:00:00	2024-11-08T23:00:00	5	Humedad	67
149809	7	Sololá	712	San Antonio Palopó	9	San Antonio Palopo	1	Enero	2023-01-23T00:00:00	2024-11-08T23:00:00	6	Velocidad del viento	12.9
149810	7	Sololá	712	San Antonio Palopó	9	San Antonio Palopo	1	Enero	2023-01-23T00:00:00	2024-11-08T23:00:00	7	Dirección del viento	12.87
149811	7	Sololá	712	San Antonio Palopó	9	San Antonio Palopo	1	Enero	2023-01-23T00:00:00	2024-11-08T23:00:00	1	Precipitación	0
149812	7	Sololá	712	San Antonio Palopó	9	San Antonio Palopo	1	Enero	2023-01-23T00:00:00	2024-11-08T23:00:00	8	Radiación solar	0
149813	7	Sololá	712	San Antonio Palopó	9	San Antonio Palopo	1	Enero	2023-01-24T00:00:00	2024-11-08T00:00:00	2	Temperatura media	16.8
149814	7	Sololá	712	San Antonio Palopó	9	San Antonio Palopo	1	Enero	2023-01-24T00:00:00	2024-11-08T00:00:00	4	Temperatura máxima	17.1
149815	7	Sololá	712	San Antonio Palopó	9	San Antonio Palopo	1	Enero	2023-01-24T00:00:00	2024-11-08T00:00:00	3	Temperatura mínima	16.6
149816	7	Sololá	712	San Antonio Palopó	9	San Antonio Palopo	1	Enero	2023-01-24T00:00:00	2024-11-08T00:00:00	5	Humedad	60
149817	7	Sololá	712	San Antonio Palopó	9	San Antonio Palopo	1	Enero	2023-01-24T00:00:00	2024-11-08T00:00:00	6	Velocidad del viento	11.3
149818	7	Sololá	712	San Antonio Palopó	9	San Antonio Palopo	1	Enero	2023-01-24T00:00:00	2024-11-08T00:00:00	7	Dirección del viento	11.27
149819	7	Sololá	712	San Antonio Palopó	9	San Antonio Palopo	1	Enero	2023-01-24T00:00:00	2024-11-08T00:00:00	1	Precipitación	0
149820	7	Sololá	712	San Antonio Palopó	9	San Antonio Palopo	1	Enero	2023-01-24T00:00:00	2024-11-08T00:00:00	8	Radiación solar	0
149821	7	Sololá	712	San Antonio Palopó	9	San Antonio Palopo	1	Enero	2023-01-24T00:00:00	2024-11-08T01:00:00	2	Temperatura media	16.4
149822	7	Sololá	712	San Antonio Palopó	9	San Antonio Palopo	1	Enero	2023-01-24T00:00:00	2024-11-08T01:00:00	4	Temperatura máxima	16.9
149823	7	Sololá	712	San Antonio Palopó	9	San Antonio Palopo	1	Enero	2023-01-24T00:00:00	2024-11-08T01:00:00	3	Temperatura mínima	16.4
149824	7	Sololá	712	San Antonio Palopó	9	San Antonio Palopo	1	Enero	2023-01-24T00:00:00	2024-11-08T01:00:00	5	Humedad	53
149825	7	Sololá	712	San Antonio Palopó	9	San Antonio Palopo	1	Enero	2023-01-24T00:00:00	2024-11-08T01:00:00	6	Velocidad del viento	12.9
149826	7	Sololá	712	San Antonio Palopó	9	San Antonio Palopo	1	Enero	2023-01-24T00:00:00	2024-11-08T01:00:00	7	Dirección del viento	12.87
149827	7	Sololá	712	San Antonio Palopó	9	San Antonio Palopo	1	Enero	2023-01-24T00:00:00	2024-11-08T01:00:00	1	Precipitación	0
149828	7	Sololá	712	San Antonio Palopó	9	San Antonio Palopo	1	Enero	2023-01-24T00:00:00	2024-11-08T01:00:00	8	Radiación solar	0
149829	7	Sololá	712	San Antonio Palopó	9	San Antonio Palopo	1	Enero	2023-01-24T00:00:00	2024-11-08T02:00:00	2	Temperatura media	15.9
149830	7	Sololá	712	San Antonio Palopó	9	San Antonio Palopo	1	Enero	2023-01-24T00:00:00	2024-11-08T02:00:00	4	Temperatura máxima	16.8
149831	7	Sololá	712	San Antonio Palopó	9	San Antonio Palopo	1	Enero	2023-01-24T00:00:00	2024-11-08T02:00:00	3	Temperatura mínima	15.9
149832	7	Sololá	712	San Antonio Palopó	9	San Antonio Palopo	1	Enero	2023-01-24T00:00:00	2024-11-08T02:00:00	5	Humedad	53
149833	7	Sololá	712	San Antonio Palopó	9	San Antonio Palopo	1	Enero	2023-01-24T00:00:00	2024-11-08T02:00:00	6	Velocidad del viento	17.7
149834	7	Sololá	712	San Antonio Palopó	9	San Antonio Palopo	1	Enero	2023-01-24T00:00:00	2024-11-08T02:00:00	7	Dirección del viento	17.7
149835	7	Sololá	712	San Antonio Palopó	9	San Antonio Palopo	1	Enero	2023-01-24T00:00:00	2024-11-08T02:00:00	1	Precipitación	0
149836	7	Sololá	712	San Antonio Palopó	9	San Antonio Palopo	1	Enero	2023-01-24T00:00:00	2024-11-08T02:00:00	8	Radiación solar	0
149837	7	Sololá	712	San Antonio Palopó	9	San Antonio Palopo	1	Enero	2023-01-24T00:00:00	2024-11-08T03:00:00	2	Temperatura media	16.2
149838	7	Sololá	712	San Antonio Palopó	9	San Antonio Palopo	1	Enero	2023-01-24T00:00:00	2024-11-08T03:00:00	4	Temperatura máxima	16.2
149839	7	Sololá	712	San Antonio Palopó	9	San Antonio Palopo	1	Enero	2023-01-24T00:00:00	2024-11-08T03:00:00	3	Temperatura mínima	15.8
149840	7	Sololá	712	San Antonio Palopó	9	San Antonio Palopo	1	Enero	2023-01-24T00:00:00	2024-11-08T03:00:00	5	Humedad	49
149841	7	Sololá	712	San Antonio Palopó	9	San Antonio Palopo	1	Enero	2023-01-24T00:00:00	2024-11-08T03:00:00	6	Velocidad del viento	17.7
149842	7	Sololá	712	San Antonio Palopó	9	San Antonio Palopo	1	Enero	2023-01-24T00:00:00	2024-11-08T03:00:00	7	Dirección del viento	17.7
149843	7	Sololá	712	San Antonio Palopó	9	San Antonio Palopo	1	Enero	2023-01-24T00:00:00	2024-11-08T03:00:00	1	Precipitación	0
149844	7	Sololá	712	San Antonio Palopó	9	San Antonio Palopo	1	Enero	2023-01-24T00:00:00	2024-11-08T03:00:00	8	Radiación solar	0
149845	7	Sololá	712	San Antonio Palopó	9	San Antonio Palopo	1	Enero	2023-01-24T00:00:00	2024-11-08T04:00:00	2	Temperatura media	16.2
149846	7	Sololá	712	San Antonio Palopó	9	San Antonio Palopo	1	Enero	2023-01-24T00:00:00	2024-11-08T04:00:00	4	Temperatura máxima	16.3
149847	7	Sololá	712	San Antonio Palopó	9	San Antonio Palopo	1	Enero	2023-01-24T00:00:00	2024-11-08T04:00:00	3	Temperatura mínima	15.8
149848	7	Sololá	712	San Antonio Palopó	9	San Antonio Palopo	1	Enero	2023-01-24T00:00:00	2024-11-08T04:00:00	5	Humedad	49
149849	7	Sololá	712	San Antonio Palopó	9	San Antonio Palopo	1	Enero	2023-01-24T00:00:00	2024-11-08T04:00:00	6	Velocidad del viento	20.9
149850	7	Sololá	712	San Antonio Palopó	9	San Antonio Palopo	1	Enero	2023-01-24T00:00:00	2024-11-08T04:00:00	7	Dirección del viento	20.92
149851	7	Sololá	712	San Antonio Palopó	9	San Antonio Palopo	1	Enero	2023-01-24T00:00:00	2024-11-08T04:00:00	1	Precipitación	0
149852	7	Sololá	712	San Antonio Palopó	9	San Antonio Palopo	1	Enero	2023-01-24T00:00:00	2024-11-08T04:00:00	8	Radiación solar	0
149853	7	Sololá	712	San Antonio Palopó	9	San Antonio Palopo	1	Enero	2023-01-24T00:00:00	2024-11-08T05:00:00	2	Temperatura media	16.1
149854	7	Sololá	712	San Antonio Palopó	9	San Antonio Palopo	1	Enero	2023-01-24T00:00:00	2024-11-08T05:00:00	4	Temperatura máxima	16.2
149855	7	Sololá	712	San Antonio Palopó	9	San Antonio Palopo	1	Enero	2023-01-24T00:00:00	2024-11-08T05:00:00	3	Temperatura mínima	15.9
149856	7	Sololá	712	San Antonio Palopó	9	San Antonio Palopo	1	Enero	2023-01-24T00:00:00	2024-11-08T05:00:00	5	Humedad	45
149857	7	Sololá	712	San Antonio Palopó	9	San Antonio Palopo	1	Enero	2023-01-24T00:00:00	2024-11-08T05:00:00	6	Velocidad del viento	16.1
149858	7	Sololá	712	San Antonio Palopó	9	San Antonio Palopo	1	Enero	2023-01-24T00:00:00	2024-11-08T05:00:00	7	Dirección del viento	16.09
149859	7	Sololá	712	San Antonio Palopó	9	San Antonio Palopo	1	Enero	2023-01-24T00:00:00	2024-11-08T05:00:00	1	Precipitación	0
149860	7	Sololá	712	San Antonio Palopó	9	San Antonio Palopo	1	Enero	2023-01-24T00:00:00	2024-11-08T05:00:00	8	Radiación solar	0
149861	7	Sololá	712	San Antonio Palopó	9	San Antonio Palopo	1	Enero	2023-01-24T00:00:00	2024-11-08T06:00:00	2	Temperatura media	15.8
149862	7	Sololá	712	San Antonio Palopó	9	San Antonio Palopo	1	Enero	2023-01-24T00:00:00	2024-11-08T06:00:00	4	Temperatura máxima	16.9
149863	7	Sololá	712	San Antonio Palopó	9	San Antonio Palopo	1	Enero	2023-01-24T00:00:00	2024-11-08T06:00:00	3	Temperatura mínima	15.8
149864	7	Sololá	712	San Antonio Palopó	9	San Antonio Palopo	1	Enero	2023-01-24T00:00:00	2024-11-08T06:00:00	5	Humedad	47
149865	7	Sololá	712	San Antonio Palopó	9	San Antonio Palopo	1	Enero	2023-01-24T00:00:00	2024-11-08T06:00:00	6	Velocidad del viento	14.5
149866	7	Sololá	712	San Antonio Palopó	9	San Antonio Palopo	1	Enero	2023-01-24T00:00:00	2024-11-08T06:00:00	7	Dirección del viento	14.48
149867	7	Sololá	712	San Antonio Palopó	9	San Antonio Palopo	1	Enero	2023-01-24T00:00:00	2024-11-08T06:00:00	1	Precipitación	0
149868	7	Sololá	712	San Antonio Palopó	9	San Antonio Palopo	1	Enero	2023-01-24T00:00:00	2024-11-08T06:00:00	8	Radiación solar	0
149869	7	Sololá	712	San Antonio Palopó	9	San Antonio Palopo	1	Enero	2023-01-24T00:00:00	2024-11-08T07:00:00	2	Temperatura media	16.3
149870	7	Sololá	712	San Antonio Palopó	9	San Antonio Palopo	1	Enero	2023-01-24T00:00:00	2024-11-08T07:00:00	4	Temperatura máxima	16.4
149871	7	Sololá	712	San Antonio Palopó	9	San Antonio Palopo	1	Enero	2023-01-24T00:00:00	2024-11-08T07:00:00	3	Temperatura mínima	15.6
149872	7	Sololá	712	San Antonio Palopó	9	San Antonio Palopo	1	Enero	2023-01-24T00:00:00	2024-11-08T07:00:00	5	Humedad	49
149873	7	Sololá	712	San Antonio Palopó	9	San Antonio Palopo	1	Enero	2023-01-24T00:00:00	2024-11-08T07:00:00	6	Velocidad del viento	16.1
149874	7	Sololá	712	San Antonio Palopó	9	San Antonio Palopo	1	Enero	2023-01-24T00:00:00	2024-11-08T07:00:00	7	Dirección del viento	16.09
149875	7	Sololá	712	San Antonio Palopó	9	San Antonio Palopo	1	Enero	2023-01-24T00:00:00	2024-11-08T07:00:00	1	Precipitación	0
149876	7	Sololá	712	San Antonio Palopó	9	San Antonio Palopo	1	Enero	2023-01-24T00:00:00	2024-11-08T07:00:00	8	Radiación solar	3
149877	7	Sololá	712	San Antonio Palopó	9	San Antonio Palopo	1	Enero	2023-01-24T00:00:00	2024-11-08T08:00:00	2	Temperatura media	17.2
149878	7	Sololá	712	San Antonio Palopó	9	San Antonio Palopo	1	Enero	2023-01-24T00:00:00	2024-11-08T08:00:00	4	Temperatura máxima	17.2
149879	7	Sololá	712	San Antonio Palopó	9	San Antonio Palopo	1	Enero	2023-01-24T00:00:00	2024-11-08T08:00:00	3	Temperatura mínima	15.9
149880	7	Sololá	712	San Antonio Palopó	9	San Antonio Palopo	1	Enero	2023-01-24T00:00:00	2024-11-08T08:00:00	5	Humedad	52
149881	7	Sololá	712	San Antonio Palopó	9	San Antonio Palopo	1	Enero	2023-01-24T00:00:00	2024-11-08T08:00:00	6	Velocidad del viento	14.5
149882	7	Sololá	712	San Antonio Palopó	9	San Antonio Palopo	1	Enero	2023-01-24T00:00:00	2024-11-08T08:00:00	7	Dirección del viento	14.48
149883	7	Sololá	712	San Antonio Palopó	9	San Antonio Palopo	1	Enero	2023-01-24T00:00:00	2024-11-08T08:00:00	1	Precipitación	0
149884	7	Sololá	712	San Antonio Palopó	9	San Antonio Palopo	1	Enero	2023-01-24T00:00:00	2024-11-08T08:00:00	8	Radiación solar	14
149885	7	Sololá	712	San Antonio Palopó	9	San Antonio Palopo	1	Enero	2023-01-24T00:00:00	2024-11-08T09:00:00	2	Temperatura media	18.7
149886	7	Sololá	712	San Antonio Palopó	9	San Antonio Palopo	1	Enero	2023-01-24T00:00:00	2024-11-08T09:00:00	4	Temperatura máxima	18.9
149887	7	Sololá	712	San Antonio Palopó	9	San Antonio Palopo	1	Enero	2023-01-24T00:00:00	2024-11-08T09:00:00	3	Temperatura mínima	17.2
149888	7	Sololá	712	San Antonio Palopó	9	San Antonio Palopo	1	Enero	2023-01-24T00:00:00	2024-11-08T09:00:00	5	Humedad	53
149889	7	Sololá	712	San Antonio Palopó	9	San Antonio Palopo	1	Enero	2023-01-24T00:00:00	2024-11-08T09:00:00	6	Velocidad del viento	4.8
149890	7	Sololá	712	San Antonio Palopó	9	San Antonio Palopo	1	Enero	2023-01-24T00:00:00	2024-11-08T09:00:00	7	Dirección del viento	4.83
149891	7	Sololá	712	San Antonio Palopó	9	San Antonio Palopo	1	Enero	2023-01-24T00:00:00	2024-11-08T09:00:00	1	Precipitación	0
149892	7	Sololá	712	San Antonio Palopó	9	San Antonio Palopo	1	Enero	2023-01-24T00:00:00	2024-11-08T09:00:00	8	Radiación solar	148
149893	7	Sololá	712	San Antonio Palopó	9	San Antonio Palopo	1	Enero	2023-01-24T00:00:00	2024-11-08T10:00:00	2	Temperatura media	19.2
149894	7	Sololá	712	San Antonio Palopó	9	San Antonio Palopo	1	Enero	2023-01-24T00:00:00	2024-11-08T10:00:00	4	Temperatura máxima	20.4
149895	7	Sololá	712	San Antonio Palopó	9	San Antonio Palopo	1	Enero	2023-01-24T00:00:00	2024-11-08T10:00:00	3	Temperatura mínima	18.6
149896	7	Sololá	712	San Antonio Palopó	9	San Antonio Palopo	1	Enero	2023-01-24T00:00:00	2024-11-08T10:00:00	5	Humedad	56
149897	7	Sololá	712	San Antonio Palopó	9	San Antonio Palopo	1	Enero	2023-01-24T00:00:00	2024-11-08T10:00:00	6	Velocidad del viento	4.8
149898	7	Sololá	712	San Antonio Palopó	9	San Antonio Palopo	1	Enero	2023-01-24T00:00:00	2024-11-08T10:00:00	7	Dirección del viento	4.83
149899	7	Sololá	712	San Antonio Palopó	9	San Antonio Palopo	1	Enero	2023-01-24T00:00:00	2024-11-08T10:00:00	1	Precipitación	0
149900	7	Sololá	712	San Antonio Palopó	9	San Antonio Palopo	1	Enero	2023-01-24T00:00:00	2024-11-08T10:00:00	8	Radiación solar	544
149901	7	Sololá	712	San Antonio Palopó	9	San Antonio Palopo	1	Enero	2023-01-24T00:00:00	2024-11-08T11:00:00	2	Temperatura media	20.4
149902	7	Sololá	712	San Antonio Palopó	9	San Antonio Palopo	1	Enero	2023-01-24T00:00:00	2024-11-08T11:00:00	4	Temperatura máxima	20.4
149903	7	Sololá	712	San Antonio Palopó	9	San Antonio Palopo	1	Enero	2023-01-24T00:00:00	2024-11-08T11:00:00	3	Temperatura mínima	19.2
149904	7	Sololá	712	San Antonio Palopó	9	San Antonio Palopo	1	Enero	2023-01-24T00:00:00	2024-11-08T11:00:00	5	Humedad	51
149905	7	Sololá	712	San Antonio Palopó	9	San Antonio Palopo	1	Enero	2023-01-24T00:00:00	2024-11-08T11:00:00	6	Velocidad del viento	4.8
149906	7	Sololá	712	San Antonio Palopó	9	San Antonio Palopo	1	Enero	2023-01-24T00:00:00	2024-11-08T11:00:00	7	Dirección del viento	4.83
149907	7	Sololá	712	San Antonio Palopó	9	San Antonio Palopo	1	Enero	2023-01-24T00:00:00	2024-11-08T11:00:00	1	Precipitación	0
149908	7	Sololá	712	San Antonio Palopó	9	San Antonio Palopo	1	Enero	2023-01-24T00:00:00	2024-11-08T11:00:00	8	Radiación solar	687
149909	7	Sololá	712	San Antonio Palopó	9	San Antonio Palopo	1	Enero	2023-01-24T00:00:00	2024-11-08T12:00:00	2	Temperatura media	21.6
149910	7	Sololá	712	San Antonio Palopó	9	San Antonio Palopo	1	Enero	2023-01-24T00:00:00	2024-11-08T12:00:00	4	Temperatura máxima	21.6
149911	7	Sololá	712	San Antonio Palopó	9	San Antonio Palopo	1	Enero	2023-01-24T00:00:00	2024-11-08T12:00:00	3	Temperatura mínima	20.4
149912	7	Sololá	712	San Antonio Palopó	9	San Antonio Palopo	1	Enero	2023-01-24T00:00:00	2024-11-08T12:00:00	5	Humedad	55
149913	7	Sololá	712	San Antonio Palopó	9	San Antonio Palopo	1	Enero	2023-01-24T00:00:00	2024-11-08T12:00:00	6	Velocidad del viento	3.2
149914	7	Sololá	712	San Antonio Palopó	9	San Antonio Palopo	1	Enero	2023-01-24T00:00:00	2024-11-08T12:00:00	7	Dirección del viento	3.22
149915	7	Sololá	712	San Antonio Palopó	9	San Antonio Palopo	1	Enero	2023-01-24T00:00:00	2024-11-08T12:00:00	1	Precipitación	0
149916	7	Sololá	712	San Antonio Palopó	9	San Antonio Palopo	1	Enero	2023-01-24T00:00:00	2024-11-08T12:00:00	8	Radiación solar	679
149917	7	Sololá	712	San Antonio Palopó	9	San Antonio Palopo	1	Enero	2023-01-24T00:00:00	2024-11-08T13:00:00	2	Temperatura media	22.8
149918	7	Sololá	712	San Antonio Palopó	9	San Antonio Palopo	1	Enero	2023-01-24T00:00:00	2024-11-08T13:00:00	4	Temperatura máxima	22.9
149919	7	Sololá	712	San Antonio Palopó	9	San Antonio Palopo	1	Enero	2023-01-24T00:00:00	2024-11-08T13:00:00	3	Temperatura mínima	21.7
149920	7	Sololá	712	San Antonio Palopó	9	San Antonio Palopo	1	Enero	2023-01-24T00:00:00	2024-11-08T13:00:00	5	Humedad	57
149921	7	Sololá	712	San Antonio Palopó	9	San Antonio Palopo	1	Enero	2023-01-24T00:00:00	2024-11-08T13:00:00	6	Velocidad del viento	4.8
149922	7	Sololá	712	San Antonio Palopó	9	San Antonio Palopo	1	Enero	2023-01-24T00:00:00	2024-11-08T13:00:00	7	Dirección del viento	4.83
149923	7	Sololá	712	San Antonio Palopó	9	San Antonio Palopo	1	Enero	2023-01-24T00:00:00	2024-11-08T13:00:00	1	Precipitación	0
149924	7	Sololá	712	San Antonio Palopó	9	San Antonio Palopo	1	Enero	2023-01-24T00:00:00	2024-11-08T13:00:00	8	Radiación solar	777
149925	7	Sololá	712	San Antonio Palopó	9	San Antonio Palopo	1	Enero	2023-01-24T00:00:00	2024-11-08T14:00:00	2	Temperatura media	22.3
149926	7	Sololá	712	San Antonio Palopó	9	San Antonio Palopo	1	Enero	2023-01-24T00:00:00	2024-11-08T14:00:00	4	Temperatura máxima	23.8
149927	7	Sololá	712	San Antonio Palopó	9	San Antonio Palopo	1	Enero	2023-01-24T00:00:00	2024-11-08T14:00:00	3	Temperatura mínima	22.3
149928	7	Sololá	712	San Antonio Palopó	9	San Antonio Palopo	1	Enero	2023-01-24T00:00:00	2024-11-08T14:00:00	5	Humedad	65
149929	7	Sololá	712	San Antonio Palopó	9	San Antonio Palopo	1	Enero	2023-01-24T00:00:00	2024-11-08T14:00:00	6	Velocidad del viento	11.3
149930	7	Sololá	712	San Antonio Palopó	9	San Antonio Palopo	1	Enero	2023-01-24T00:00:00	2024-11-08T14:00:00	7	Dirección del viento	11.27
149931	7	Sololá	712	San Antonio Palopó	9	San Antonio Palopo	1	Enero	2023-01-24T00:00:00	2024-11-08T14:00:00	1	Precipitación	0
149932	7	Sololá	712	San Antonio Palopó	9	San Antonio Palopo	1	Enero	2023-01-24T00:00:00	2024-11-08T14:00:00	8	Radiación solar	721
149933	7	Sololá	712	San Antonio Palopó	9	San Antonio Palopo	1	Enero	2023-01-24T00:00:00	2024-11-08T15:00:00	2	Temperatura media	21.7
149934	7	Sololá	712	San Antonio Palopó	9	San Antonio Palopo	1	Enero	2023-01-24T00:00:00	2024-11-08T15:00:00	4	Temperatura máxima	22.3
149935	7	Sololá	712	San Antonio Palopó	9	San Antonio Palopo	1	Enero	2023-01-24T00:00:00	2024-11-08T15:00:00	3	Temperatura mínima	21.5
149936	7	Sololá	712	San Antonio Palopó	9	San Antonio Palopo	1	Enero	2023-01-24T00:00:00	2024-11-08T15:00:00	5	Humedad	69
149937	7	Sololá	712	San Antonio Palopó	9	San Antonio Palopo	1	Enero	2023-01-24T00:00:00	2024-11-08T15:00:00	6	Velocidad del viento	16.1
149938	7	Sololá	712	San Antonio Palopó	9	San Antonio Palopo	1	Enero	2023-01-24T00:00:00	2024-11-08T15:00:00	7	Dirección del viento	16.09
149939	7	Sololá	712	San Antonio Palopó	9	San Antonio Palopo	1	Enero	2023-01-24T00:00:00	2024-11-08T15:00:00	1	Precipitación	0
149940	7	Sololá	712	San Antonio Palopó	9	San Antonio Palopo	1	Enero	2023-01-24T00:00:00	2024-11-08T15:00:00	8	Radiación solar	593
149941	7	Sololá	712	San Antonio Palopó	9	San Antonio Palopo	1	Enero	2023-01-24T00:00:00	2024-11-08T16:00:00	2	Temperatura media	20.9
149942	7	Sololá	712	San Antonio Palopó	9	San Antonio Palopo	1	Enero	2023-01-24T00:00:00	2024-11-08T16:00:00	4	Temperatura máxima	21.8
149943	7	Sololá	712	San Antonio Palopó	9	San Antonio Palopo	1	Enero	2023-01-24T00:00:00	2024-11-08T16:00:00	3	Temperatura mínima	20.8
149944	7	Sololá	712	San Antonio Palopó	9	San Antonio Palopo	1	Enero	2023-01-24T00:00:00	2024-11-08T16:00:00	5	Humedad	69
149945	7	Sololá	712	San Antonio Palopó	9	San Antonio Palopo	1	Enero	2023-01-24T00:00:00	2024-11-08T16:00:00	6	Velocidad del viento	12.9
149946	7	Sololá	712	San Antonio Palopó	9	San Antonio Palopo	1	Enero	2023-01-24T00:00:00	2024-11-08T16:00:00	7	Dirección del viento	12.87
149947	7	Sololá	712	San Antonio Palopó	9	San Antonio Palopo	1	Enero	2023-01-24T00:00:00	2024-11-08T16:00:00	1	Precipitación	0
149948	7	Sololá	712	San Antonio Palopó	9	San Antonio Palopo	1	Enero	2023-01-24T00:00:00	2024-11-08T16:00:00	8	Radiación solar	304
149949	7	Sololá	712	San Antonio Palopó	9	San Antonio Palopo	1	Enero	2023-01-24T00:00:00	2024-11-08T17:00:00	2	Temperatura media	20.2
149950	7	Sololá	712	San Antonio Palopó	9	San Antonio Palopo	1	Enero	2023-01-24T00:00:00	2024-11-08T17:00:00	4	Temperatura máxima	20.9
149951	7	Sololá	712	San Antonio Palopó	9	San Antonio Palopo	1	Enero	2023-01-24T00:00:00	2024-11-08T17:00:00	3	Temperatura mínima	20.2
149952	7	Sololá	712	San Antonio Palopó	9	San Antonio Palopo	1	Enero	2023-01-24T00:00:00	2024-11-08T17:00:00	5	Humedad	74
149953	7	Sololá	712	San Antonio Palopó	9	San Antonio Palopo	1	Enero	2023-01-24T00:00:00	2024-11-08T17:00:00	6	Velocidad del viento	11.3
149954	7	Sololá	712	San Antonio Palopó	9	San Antonio Palopo	1	Enero	2023-01-24T00:00:00	2024-11-08T17:00:00	7	Dirección del viento	11.27
149955	7	Sololá	712	San Antonio Palopó	9	San Antonio Palopo	1	Enero	2023-01-24T00:00:00	2024-11-08T17:00:00	1	Precipitación	0
149956	7	Sololá	712	San Antonio Palopó	9	San Antonio Palopo	1	Enero	2023-01-24T00:00:00	2024-11-08T17:00:00	8	Radiación solar	126
149957	7	Sololá	712	San Antonio Palopó	9	San Antonio Palopo	1	Enero	2023-01-24T00:00:00	2024-11-08T18:00:00	2	Temperatura media	19.4
149958	7	Sololá	712	San Antonio Palopó	9	San Antonio Palopo	1	Enero	2023-01-24T00:00:00	2024-11-08T18:00:00	4	Temperatura máxima	20.3
149959	7	Sololá	712	San Antonio Palopó	9	San Antonio Palopo	1	Enero	2023-01-24T00:00:00	2024-11-08T18:00:00	3	Temperatura mínima	19.4
149960	7	Sololá	712	San Antonio Palopó	9	San Antonio Palopo	1	Enero	2023-01-24T00:00:00	2024-11-08T18:00:00	5	Humedad	75
149961	7	Sololá	712	San Antonio Palopó	9	San Antonio Palopo	1	Enero	2023-01-24T00:00:00	2024-11-08T18:00:00	6	Velocidad del viento	4.8
149962	7	Sololá	712	San Antonio Palopó	9	San Antonio Palopo	1	Enero	2023-01-24T00:00:00	2024-11-08T18:00:00	7	Dirección del viento	4.83
149963	7	Sololá	712	San Antonio Palopó	9	San Antonio Palopo	1	Enero	2023-01-24T00:00:00	2024-11-08T18:00:00	1	Precipitación	0
149964	7	Sololá	712	San Antonio Palopó	9	San Antonio Palopo	1	Enero	2023-01-24T00:00:00	2024-11-08T18:00:00	8	Radiación solar	41
149965	7	Sololá	712	San Antonio Palopó	9	San Antonio Palopo	1	Enero	2023-01-24T00:00:00	2024-11-08T19:00:00	2	Temperatura media	18.1
149966	7	Sololá	712	San Antonio Palopó	9	San Antonio Palopo	1	Enero	2023-01-24T00:00:00	2024-11-08T19:00:00	4	Temperatura máxima	19.4
149967	7	Sololá	712	San Antonio Palopó	9	San Antonio Palopo	1	Enero	2023-01-24T00:00:00	2024-11-08T19:00:00	3	Temperatura mínima	18.1
149968	7	Sololá	712	San Antonio Palopó	9	San Antonio Palopo	1	Enero	2023-01-24T00:00:00	2024-11-08T19:00:00	5	Humedad	77
149969	7	Sololá	712	San Antonio Palopó	9	San Antonio Palopo	1	Enero	2023-01-24T00:00:00	2024-11-08T19:00:00	6	Velocidad del viento	1.6
149970	7	Sololá	712	San Antonio Palopó	9	San Antonio Palopo	1	Enero	2023-01-24T00:00:00	2024-11-08T19:00:00	7	Dirección del viento	1.61
149971	7	Sololá	712	San Antonio Palopó	9	San Antonio Palopo	1	Enero	2023-01-24T00:00:00	2024-11-08T19:00:00	1	Precipitación	0
149972	7	Sololá	712	San Antonio Palopó	9	San Antonio Palopo	1	Enero	2023-01-24T00:00:00	2024-11-08T19:00:00	8	Radiación solar	0
149973	7	Sololá	712	San Antonio Palopó	9	San Antonio Palopo	1	Enero	2023-01-24T00:00:00	2024-11-08T20:00:00	2	Temperatura media	17.6
149974	7	Sololá	712	San Antonio Palopó	9	San Antonio Palopo	1	Enero	2023-01-24T00:00:00	2024-11-08T20:00:00	4	Temperatura máxima	18.1
149975	7	Sololá	712	San Antonio Palopó	9	San Antonio Palopo	1	Enero	2023-01-24T00:00:00	2024-11-08T20:00:00	3	Temperatura mínima	17.6
149976	7	Sololá	712	San Antonio Palopó	9	San Antonio Palopo	1	Enero	2023-01-24T00:00:00	2024-11-08T20:00:00	5	Humedad	76
149977	7	Sololá	712	San Antonio Palopó	9	San Antonio Palopo	1	Enero	2023-01-24T00:00:00	2024-11-08T20:00:00	6	Velocidad del viento	3.2
149978	7	Sololá	712	San Antonio Palopó	9	San Antonio Palopo	1	Enero	2023-01-24T00:00:00	2024-11-08T20:00:00	7	Dirección del viento	3.22
149979	7	Sololá	712	San Antonio Palopó	9	San Antonio Palopo	1	Enero	2023-01-24T00:00:00	2024-11-08T20:00:00	1	Precipitación	0
149980	7	Sololá	712	San Antonio Palopó	9	San Antonio Palopo	1	Enero	2023-01-24T00:00:00	2024-11-08T20:00:00	8	Radiación solar	0
149981	7	Sololá	712	San Antonio Palopó	9	San Antonio Palopo	1	Enero	2023-01-24T00:00:00	2024-11-08T21:00:00	2	Temperatura media	17.2
149982	7	Sololá	712	San Antonio Palopó	9	San Antonio Palopo	1	Enero	2023-01-24T00:00:00	2024-11-08T21:00:00	4	Temperatura máxima	17.6
149983	7	Sololá	712	San Antonio Palopó	9	San Antonio Palopo	1	Enero	2023-01-24T00:00:00	2024-11-08T21:00:00	3	Temperatura mínima	17.2
149984	7	Sololá	712	San Antonio Palopó	9	San Antonio Palopo	1	Enero	2023-01-24T00:00:00	2024-11-08T21:00:00	5	Humedad	76
149985	7	Sololá	712	San Antonio Palopó	9	San Antonio Palopo	1	Enero	2023-01-24T00:00:00	2024-11-08T21:00:00	6	Velocidad del viento	1.6
149986	7	Sololá	712	San Antonio Palopó	9	San Antonio Palopo	1	Enero	2023-01-24T00:00:00	2024-11-08T21:00:00	7	Dirección del viento	1.61
149987	7	Sololá	712	San Antonio Palopó	9	San Antonio Palopo	1	Enero	2023-01-24T00:00:00	2024-11-08T21:00:00	1	Precipitación	0
149988	7	Sololá	712	San Antonio Palopó	9	San Antonio Palopo	1	Enero	2023-01-24T00:00:00	2024-11-08T21:00:00	8	Radiación solar	0
149989	7	Sololá	712	San Antonio Palopó	9	San Antonio Palopo	1	Enero	2023-01-24T00:00:00	2024-11-08T22:00:00	2	Temperatura media	16.7
149990	7	Sololá	712	San Antonio Palopó	9	San Antonio Palopo	1	Enero	2023-01-24T00:00:00	2024-11-08T22:00:00	4	Temperatura máxima	17.2
149991	7	Sololá	712	San Antonio Palopó	9	San Antonio Palopo	1	Enero	2023-01-24T00:00:00	2024-11-08T22:00:00	3	Temperatura mínima	16.3
149992	7	Sololá	712	San Antonio Palopó	9	San Antonio Palopo	1	Enero	2023-01-24T00:00:00	2024-11-08T22:00:00	5	Humedad	77
149993	7	Sololá	712	San Antonio Palopó	9	San Antonio Palopo	1	Enero	2023-01-24T00:00:00	2024-11-08T22:00:00	6	Velocidad del viento	3.2
149994	7	Sololá	712	San Antonio Palopó	9	San Antonio Palopo	1	Enero	2023-01-24T00:00:00	2024-11-08T22:00:00	7	Dirección del viento	3.22
149995	7	Sololá	712	San Antonio Palopó	9	San Antonio Palopo	1	Enero	2023-01-24T00:00:00	2024-11-08T22:00:00	1	Precipitación	0
149996	7	Sololá	712	San Antonio Palopó	9	San Antonio Palopo	1	Enero	2023-01-24T00:00:00	2024-11-08T22:00:00	8	Radiación solar	0
149997	7	Sololá	712	San Antonio Palopó	9	San Antonio Palopo	1	Enero	2023-01-24T00:00:00	2024-11-08T23:00:00	2	Temperatura media	15.7
149998	7	Sololá	712	San Antonio Palopó	9	San Antonio Palopo	1	Enero	2023-01-24T00:00:00	2024-11-08T23:00:00	4	Temperatura máxima	16.9
149999	7	Sololá	712	San Antonio Palopó	9	San Antonio Palopo	1	Enero	2023-01-24T00:00:00	2024-11-08T23:00:00	3	Temperatura mínima	15.7
150000	7	Sololá	712	San Antonio Palopó	9	San Antonio Palopo	1	Enero	2023-01-24T00:00:00	2024-11-08T23:00:00	5	Humedad	78
150001	7	Sololá	712	San Antonio Palopó	9	San Antonio Palopo	1	Enero	2023-01-24T00:00:00	2024-11-08T23:00:00	6	Velocidad del viento	4.8
150002	7	Sololá	712	San Antonio Palopó	9	San Antonio Palopo	1	Enero	2023-01-24T00:00:00	2024-11-08T23:00:00	7	Dirección del viento	4.83
150003	7	Sololá	712	San Antonio Palopó	9	San Antonio Palopo	1	Enero	2023-01-24T00:00:00	2024-11-08T23:00:00	1	Precipitación	0
150004	7	Sololá	712	San Antonio Palopó	9	San Antonio Palopo	1	Enero	2023-01-24T00:00:00	2024-11-08T23:00:00	8	Radiación solar	0
150005	7	Sololá	712	San Antonio Palopó	9	San Antonio Palopo	1	Enero	2023-01-25T00:00:00	2024-11-08T00:00:00	2	Temperatura media	15.2
150006	7	Sololá	712	San Antonio Palopó	9	San Antonio Palopo	1	Enero	2023-01-25T00:00:00	2024-11-08T00:00:00	4	Temperatura máxima	15.7
150007	7	Sololá	712	San Antonio Palopó	9	San Antonio Palopo	1	Enero	2023-01-25T00:00:00	2024-11-08T00:00:00	3	Temperatura mínima	15.2
150008	7	Sololá	712	San Antonio Palopó	9	San Antonio Palopo	1	Enero	2023-01-25T00:00:00	2024-11-08T00:00:00	5	Humedad	80
150009	7	Sololá	712	San Antonio Palopó	9	San Antonio Palopo	1	Enero	2023-01-25T00:00:00	2024-11-08T00:00:00	6	Velocidad del viento	3.2
150010	7	Sololá	712	San Antonio Palopó	9	San Antonio Palopo	1	Enero	2023-01-25T00:00:00	2024-11-08T00:00:00	7	Dirección del viento	3.22
150011	7	Sololá	712	San Antonio Palopó	9	San Antonio Palopo	1	Enero	2023-01-25T00:00:00	2024-11-08T00:00:00	1	Precipitación	0
150012	7	Sololá	712	San Antonio Palopó	9	San Antonio Palopo	1	Enero	2023-01-25T00:00:00	2024-11-08T00:00:00	8	Radiación solar	0
150013	7	Sololá	712	San Antonio Palopó	9	San Antonio Palopo	1	Enero	2023-01-25T00:00:00	2024-11-08T01:00:00	2	Temperatura media	14.9
150014	7	Sololá	712	San Antonio Palopó	9	San Antonio Palopo	1	Enero	2023-01-25T00:00:00	2024-11-08T01:00:00	4	Temperatura máxima	15.2
150015	7	Sololá	712	San Antonio Palopó	9	San Antonio Palopo	1	Enero	2023-01-25T00:00:00	2024-11-08T01:00:00	3	Temperatura mínima	14.8
150016	7	Sololá	712	San Antonio Palopó	9	San Antonio Palopo	1	Enero	2023-01-25T00:00:00	2024-11-08T01:00:00	5	Humedad	83
150017	7	Sololá	712	San Antonio Palopó	9	San Antonio Palopo	1	Enero	2023-01-25T00:00:00	2024-11-08T01:00:00	6	Velocidad del viento	3.2
150018	7	Sololá	712	San Antonio Palopó	9	San Antonio Palopo	1	Enero	2023-01-25T00:00:00	2024-11-08T01:00:00	7	Dirección del viento	3.22
150019	7	Sololá	712	San Antonio Palopó	9	San Antonio Palopo	1	Enero	2023-01-25T00:00:00	2024-11-08T01:00:00	1	Precipitación	0
150020	7	Sololá	712	San Antonio Palopó	9	San Antonio Palopo	1	Enero	2023-01-25T00:00:00	2024-11-08T01:00:00	8	Radiación solar	0
150021	7	Sololá	712	San Antonio Palopó	9	San Antonio Palopo	1	Enero	2023-01-25T00:00:00	2024-11-08T02:00:00	2	Temperatura media	14.6
150022	7	Sololá	712	San Antonio Palopó	9	San Antonio Palopo	1	Enero	2023-01-25T00:00:00	2024-11-08T02:00:00	4	Temperatura máxima	15.1
150023	7	Sololá	712	San Antonio Palopó	9	San Antonio Palopo	1	Enero	2023-01-25T00:00:00	2024-11-08T02:00:00	3	Temperatura mínima	14.5
150024	7	Sololá	712	San Antonio Palopó	9	San Antonio Palopo	1	Enero	2023-01-25T00:00:00	2024-11-08T02:00:00	5	Humedad	83
150025	7	Sololá	712	San Antonio Palopó	9	San Antonio Palopo	1	Enero	2023-01-25T00:00:00	2024-11-08T02:00:00	6	Velocidad del viento	3.2
150026	7	Sololá	712	San Antonio Palopó	9	San Antonio Palopo	1	Enero	2023-01-25T00:00:00	2024-11-08T02:00:00	7	Dirección del viento	3.22
150027	7	Sololá	712	San Antonio Palopó	9	San Antonio Palopo	1	Enero	2023-01-25T00:00:00	2024-11-08T02:00:00	1	Precipitación	0
150028	7	Sololá	712	San Antonio Palopó	9	San Antonio Palopo	1	Enero	2023-01-25T00:00:00	2024-11-08T02:00:00	8	Radiación solar	0
150029	7	Sololá	712	San Antonio Palopó	9	San Antonio Palopo	1	Enero	2023-01-25T00:00:00	2024-11-08T03:00:00	2	Temperatura media	14.4
150030	7	Sololá	712	San Antonio Palopó	9	San Antonio Palopo	1	Enero	2023-01-25T00:00:00	2024-11-08T03:00:00	4	Temperatura máxima	14.6
150031	7	Sololá	712	San Antonio Palopó	9	San Antonio Palopo	1	Enero	2023-01-25T00:00:00	2024-11-08T03:00:00	3	Temperatura mínima	14.3
150032	7	Sololá	712	San Antonio Palopó	9	San Antonio Palopo	1	Enero	2023-01-25T00:00:00	2024-11-08T03:00:00	5	Humedad	83
150033	7	Sololá	712	San Antonio Palopó	9	San Antonio Palopo	1	Enero	2023-01-25T00:00:00	2024-11-08T03:00:00	6	Velocidad del viento	3.2
150034	7	Sololá	712	San Antonio Palopó	9	San Antonio Palopo	1	Enero	2023-01-25T00:00:00	2024-11-08T03:00:00	7	Dirección del viento	3.22
150035	7	Sololá	712	San Antonio Palopó	9	San Antonio Palopo	1	Enero	2023-01-25T00:00:00	2024-11-08T03:00:00	1	Precipitación	0
150036	7	Sololá	712	San Antonio Palopó	9	San Antonio Palopo	1	Enero	2023-01-25T00:00:00	2024-11-08T03:00:00	8	Radiación solar	0
150037	7	Sololá	712	San Antonio Palopó	9	San Antonio Palopo	1	Enero	2023-01-25T00:00:00	2024-11-08T04:00:00	2	Temperatura media	14.3
150038	7	Sololá	712	San Antonio Palopó	9	San Antonio Palopo	1	Enero	2023-01-25T00:00:00	2024-11-08T04:00:00	4	Temperatura máxima	14.4
150039	7	Sololá	712	San Antonio Palopó	9	San Antonio Palopo	1	Enero	2023-01-25T00:00:00	2024-11-08T04:00:00	3	Temperatura mínima	14.2
150040	7	Sololá	712	San Antonio Palopó	9	San Antonio Palopo	1	Enero	2023-01-25T00:00:00	2024-11-08T04:00:00	5	Humedad	82
150041	7	Sololá	712	San Antonio Palopó	9	San Antonio Palopo	1	Enero	2023-01-25T00:00:00	2024-11-08T04:00:00	6	Velocidad del viento	4.8
150042	7	Sololá	712	San Antonio Palopó	9	San Antonio Palopo	1	Enero	2023-01-25T00:00:00	2024-11-08T04:00:00	7	Dirección del viento	4.83
150043	7	Sololá	712	San Antonio Palopó	9	San Antonio Palopo	1	Enero	2023-01-25T00:00:00	2024-11-08T04:00:00	1	Precipitación	0
150044	7	Sololá	712	San Antonio Palopó	9	San Antonio Palopo	1	Enero	2023-01-25T00:00:00	2024-11-08T04:00:00	8	Radiación solar	0
150045	7	Sololá	712	San Antonio Palopó	9	San Antonio Palopo	1	Enero	2023-01-25T00:00:00	2024-11-08T05:00:00	2	Temperatura media	14.5
150046	7	Sololá	712	San Antonio Palopó	9	San Antonio Palopo	1	Enero	2023-01-25T00:00:00	2024-11-08T05:00:00	4	Temperatura máxima	14.6
150047	7	Sololá	712	San Antonio Palopó	9	San Antonio Palopo	1	Enero	2023-01-25T00:00:00	2024-11-08T05:00:00	3	Temperatura mínima	14.1
150048	7	Sololá	712	San Antonio Palopó	9	San Antonio Palopo	1	Enero	2023-01-25T00:00:00	2024-11-08T05:00:00	5	Humedad	82
150049	7	Sololá	712	San Antonio Palopó	9	San Antonio Palopo	1	Enero	2023-01-25T00:00:00	2024-11-08T05:00:00	6	Velocidad del viento	4.8
150050	7	Sololá	712	San Antonio Palopó	9	San Antonio Palopo	1	Enero	2023-01-25T00:00:00	2024-11-08T05:00:00	7	Dirección del viento	4.83
150051	7	Sololá	712	San Antonio Palopó	9	San Antonio Palopo	1	Enero	2023-01-25T00:00:00	2024-11-08T05:00:00	1	Precipitación	0
150052	7	Sololá	712	San Antonio Palopó	9	San Antonio Palopo	1	Enero	2023-01-25T00:00:00	2024-11-08T05:00:00	8	Radiación solar	0
150053	7	Sololá	712	San Antonio Palopó	9	San Antonio Palopo	1	Enero	2023-01-25T00:00:00	2024-11-08T06:00:00	2	Temperatura media	13.9
150054	7	Sololá	712	San Antonio Palopó	9	San Antonio Palopo	1	Enero	2023-01-25T00:00:00	2024-11-08T06:00:00	4	Temperatura máxima	14.8
150055	7	Sololá	712	San Antonio Palopó	9	San Antonio Palopo	1	Enero	2023-01-25T00:00:00	2024-11-08T06:00:00	3	Temperatura mínima	13.9
150056	7	Sololá	712	San Antonio Palopó	9	San Antonio Palopo	1	Enero	2023-01-25T00:00:00	2024-11-08T06:00:00	5	Humedad	81
150057	7	Sololá	712	San Antonio Palopó	9	San Antonio Palopo	1	Enero	2023-01-25T00:00:00	2024-11-08T06:00:00	6	Velocidad del viento	3.2
150058	7	Sololá	712	San Antonio Palopó	9	San Antonio Palopo	1	Enero	2023-01-25T00:00:00	2024-11-08T06:00:00	7	Dirección del viento	3.22
150059	7	Sololá	712	San Antonio Palopó	9	San Antonio Palopo	1	Enero	2023-01-25T00:00:00	2024-11-08T06:00:00	1	Precipitación	0
150060	7	Sololá	712	San Antonio Palopó	9	San Antonio Palopo	1	Enero	2023-01-25T00:00:00	2024-11-08T06:00:00	8	Radiación solar	0
150061	7	Sololá	712	San Antonio Palopó	9	San Antonio Palopo	1	Enero	2023-01-25T00:00:00	2024-11-08T07:00:00	2	Temperatura media	13.9
150062	7	Sololá	712	San Antonio Palopó	9	San Antonio Palopo	1	Enero	2023-01-25T00:00:00	2024-11-08T07:00:00	4	Temperatura máxima	14.1
150063	7	Sololá	712	San Antonio Palopó	9	San Antonio Palopo	1	Enero	2023-01-25T00:00:00	2024-11-08T07:00:00	3	Temperatura mínima	13.7
150064	7	Sololá	712	San Antonio Palopó	9	San Antonio Palopo	1	Enero	2023-01-25T00:00:00	2024-11-08T07:00:00	5	Humedad	81
150065	7	Sololá	712	San Antonio Palopó	9	San Antonio Palopo	1	Enero	2023-01-25T00:00:00	2024-11-08T07:00:00	6	Velocidad del viento	4.8
150066	7	Sololá	712	San Antonio Palopó	9	San Antonio Palopo	1	Enero	2023-01-25T00:00:00	2024-11-08T07:00:00	7	Dirección del viento	4.83
150067	7	Sololá	712	San Antonio Palopó	9	San Antonio Palopo	1	Enero	2023-01-25T00:00:00	2024-11-08T07:00:00	1	Precipitación	0
150068	7	Sololá	712	San Antonio Palopó	9	San Antonio Palopo	1	Enero	2023-01-25T00:00:00	2024-11-08T07:00:00	8	Radiación solar	3
150069	7	Sololá	712	San Antonio Palopó	9	San Antonio Palopo	1	Enero	2023-01-25T00:00:00	2024-11-08T08:00:00	2	Temperatura media	14.1
150070	7	Sololá	712	San Antonio Palopó	9	San Antonio Palopo	1	Enero	2023-01-25T00:00:00	2024-11-08T08:00:00	4	Temperatura máxima	14.3
150071	7	Sololá	712	San Antonio Palopó	9	San Antonio Palopo	1	Enero	2023-01-25T00:00:00	2024-11-08T08:00:00	3	Temperatura mínima	13.9
150072	7	Sololá	712	San Antonio Palopó	9	San Antonio Palopo	1	Enero	2023-01-25T00:00:00	2024-11-08T08:00:00	5	Humedad	83
150073	7	Sololá	712	San Antonio Palopó	9	San Antonio Palopo	1	Enero	2023-01-25T00:00:00	2024-11-08T08:00:00	6	Velocidad del viento	4.8
150074	7	Sololá	712	San Antonio Palopó	9	San Antonio Palopo	1	Enero	2023-01-25T00:00:00	2024-11-08T08:00:00	7	Dirección del viento	4.83
150075	7	Sololá	712	San Antonio Palopó	9	San Antonio Palopo	1	Enero	2023-01-25T00:00:00	2024-11-08T08:00:00	1	Precipitación	0
150076	7	Sololá	712	San Antonio Palopó	9	San Antonio Palopo	1	Enero	2023-01-25T00:00:00	2024-11-08T08:00:00	8	Radiación solar	16
150077	7	Sololá	712	San Antonio Palopó	9	San Antonio Palopo	1	Enero	2023-01-25T00:00:00	2024-11-08T09:00:00	2	Temperatura media	16.3
150078	7	Sololá	712	San Antonio Palopó	9	San Antonio Palopo	1	Enero	2023-01-25T00:00:00	2024-11-08T09:00:00	4	Temperatura máxima	16.3
150079	7	Sololá	712	San Antonio Palopó	9	San Antonio Palopo	1	Enero	2023-01-25T00:00:00	2024-11-08T09:00:00	3	Temperatura mínima	14
150080	7	Sololá	712	San Antonio Palopó	9	San Antonio Palopo	1	Enero	2023-01-25T00:00:00	2024-11-08T09:00:00	5	Humedad	79
150081	7	Sololá	712	San Antonio Palopó	9	San Antonio Palopo	1	Enero	2023-01-25T00:00:00	2024-11-08T09:00:00	6	Velocidad del viento	3.2
150082	7	Sololá	712	San Antonio Palopó	9	San Antonio Palopo	1	Enero	2023-01-25T00:00:00	2024-11-08T09:00:00	7	Dirección del viento	3.22
150083	7	Sololá	712	San Antonio Palopó	9	San Antonio Palopo	1	Enero	2023-01-25T00:00:00	2024-11-08T09:00:00	1	Precipitación	0
150084	7	Sololá	712	San Antonio Palopó	9	San Antonio Palopo	1	Enero	2023-01-25T00:00:00	2024-11-08T09:00:00	8	Radiación solar	145
150085	7	Sololá	712	San Antonio Palopó	9	San Antonio Palopo	1	Enero	2023-01-25T00:00:00	2024-11-08T10:00:00	2	Temperatura media	18.1
150086	7	Sololá	712	San Antonio Palopó	9	San Antonio Palopo	1	Enero	2023-01-25T00:00:00	2024-11-08T10:00:00	4	Temperatura máxima	18.5
150087	7	Sololá	712	San Antonio Palopó	9	San Antonio Palopo	1	Enero	2023-01-25T00:00:00	2024-11-08T10:00:00	3	Temperatura mínima	16.3
150088	7	Sololá	712	San Antonio Palopó	9	San Antonio Palopo	1	Enero	2023-01-25T00:00:00	2024-11-08T10:00:00	5	Humedad	76
150089	7	Sololá	712	San Antonio Palopó	9	San Antonio Palopo	1	Enero	2023-01-25T00:00:00	2024-11-08T10:00:00	6	Velocidad del viento	3.2
150090	7	Sololá	712	San Antonio Palopó	9	San Antonio Palopo	1	Enero	2023-01-25T00:00:00	2024-11-08T10:00:00	7	Dirección del viento	3.22
150091	7	Sololá	712	San Antonio Palopó	9	San Antonio Palopo	1	Enero	2023-01-25T00:00:00	2024-11-08T10:00:00	1	Precipitación	0
150092	7	Sololá	712	San Antonio Palopó	9	San Antonio Palopo	1	Enero	2023-01-25T00:00:00	2024-11-08T10:00:00	8	Radiación solar	531
150093	7	Sololá	712	San Antonio Palopó	9	San Antonio Palopo	1	Enero	2023-01-25T00:00:00	2024-11-08T11:00:00	2	Temperatura media	19.5
150094	7	Sololá	712	San Antonio Palopó	9	San Antonio Palopo	1	Enero	2023-01-25T00:00:00	2024-11-08T11:00:00	4	Temperatura máxima	19.5
150095	7	Sololá	712	San Antonio Palopó	9	San Antonio Palopo	1	Enero	2023-01-25T00:00:00	2024-11-08T11:00:00	3	Temperatura mínima	18.1
150096	7	Sololá	712	San Antonio Palopó	9	San Antonio Palopo	1	Enero	2023-01-25T00:00:00	2024-11-08T11:00:00	5	Humedad	72
150097	7	Sololá	712	San Antonio Palopó	9	San Antonio Palopo	1	Enero	2023-01-25T00:00:00	2024-11-08T11:00:00	6	Velocidad del viento	3.2
150098	7	Sololá	712	San Antonio Palopó	9	San Antonio Palopo	1	Enero	2023-01-25T00:00:00	2024-11-08T11:00:00	7	Dirección del viento	3.22
150099	7	Sololá	712	San Antonio Palopó	9	San Antonio Palopo	1	Enero	2023-01-25T00:00:00	2024-11-08T11:00:00	1	Precipitación	0
150100	7	Sololá	712	San Antonio Palopó	9	San Antonio Palopo	1	Enero	2023-01-25T00:00:00	2024-11-08T11:00:00	8	Radiación solar	680
150101	7	Sololá	712	San Antonio Palopó	9	San Antonio Palopo	1	Enero	2023-01-25T00:00:00	2024-11-08T12:00:00	2	Temperatura media	20.9
150102	7	Sololá	712	San Antonio Palopó	9	San Antonio Palopo	1	Enero	2023-01-25T00:00:00	2024-11-08T12:00:00	4	Temperatura máxima	21.2
150103	7	Sololá	712	San Antonio Palopó	9	San Antonio Palopo	1	Enero	2023-01-25T00:00:00	2024-11-08T12:00:00	3	Temperatura mínima	19.4
150104	7	Sololá	712	San Antonio Palopó	9	San Antonio Palopo	1	Enero	2023-01-25T00:00:00	2024-11-08T12:00:00	5	Humedad	67
150105	7	Sololá	712	San Antonio Palopó	9	San Antonio Palopo	1	Enero	2023-01-25T00:00:00	2024-11-08T12:00:00	6	Velocidad del viento	3.2
150106	7	Sololá	712	San Antonio Palopó	9	San Antonio Palopo	1	Enero	2023-01-25T00:00:00	2024-11-08T12:00:00	7	Dirección del viento	3.22
150107	7	Sololá	712	San Antonio Palopó	9	San Antonio Palopo	1	Enero	2023-01-25T00:00:00	2024-11-08T12:00:00	1	Precipitación	0
150108	7	Sololá	712	San Antonio Palopó	9	San Antonio Palopo	1	Enero	2023-01-25T00:00:00	2024-11-08T12:00:00	8	Radiación solar	683
150109	7	Sololá	712	San Antonio Palopó	9	San Antonio Palopo	1	Enero	2023-01-25T00:00:00	2024-11-08T13:00:00	2	Temperatura media	21.7
150110	7	Sololá	712	San Antonio Palopó	9	San Antonio Palopo	1	Enero	2023-01-25T00:00:00	2024-11-08T13:00:00	4	Temperatura máxima	21.9
150111	7	Sololá	712	San Antonio Palopó	9	San Antonio Palopo	1	Enero	2023-01-25T00:00:00	2024-11-08T13:00:00	3	Temperatura mínima	20.9
150112	7	Sololá	712	San Antonio Palopó	9	San Antonio Palopo	1	Enero	2023-01-25T00:00:00	2024-11-08T13:00:00	5	Humedad	65
150113	7	Sololá	712	San Antonio Palopó	9	San Antonio Palopo	1	Enero	2023-01-25T00:00:00	2024-11-08T13:00:00	6	Velocidad del viento	4.8
150114	7	Sololá	712	San Antonio Palopó	9	San Antonio Palopo	1	Enero	2023-01-25T00:00:00	2024-11-08T13:00:00	7	Dirección del viento	4.83
150115	7	Sololá	712	San Antonio Palopó	9	San Antonio Palopo	1	Enero	2023-01-25T00:00:00	2024-11-08T13:00:00	1	Precipitación	0
150116	7	Sololá	712	San Antonio Palopó	9	San Antonio Palopo	1	Enero	2023-01-25T00:00:00	2024-11-08T13:00:00	8	Radiación solar	764
150117	7	Sololá	712	San Antonio Palopó	9	San Antonio Palopo	1	Enero	2023-01-25T00:00:00	2024-11-08T14:00:00	2	Temperatura media	24.1
150118	7	Sololá	712	San Antonio Palopó	9	San Antonio Palopo	1	Enero	2023-01-25T00:00:00	2024-11-08T14:00:00	4	Temperatura máxima	24.4
150119	7	Sololá	712	San Antonio Palopó	9	San Antonio Palopo	1	Enero	2023-01-25T00:00:00	2024-11-08T14:00:00	3	Temperatura mínima	21.6
150120	7	Sololá	712	San Antonio Palopó	9	San Antonio Palopo	1	Enero	2023-01-25T00:00:00	2024-11-08T14:00:00	5	Humedad	66
150121	7	Sololá	712	San Antonio Palopó	9	San Antonio Palopo	1	Enero	2023-01-25T00:00:00	2024-11-08T14:00:00	6	Velocidad del viento	6.4
150122	7	Sololá	712	San Antonio Palopó	9	San Antonio Palopo	1	Enero	2023-01-25T00:00:00	2024-11-08T14:00:00	7	Dirección del viento	6.44
150123	7	Sololá	712	San Antonio Palopó	9	San Antonio Palopo	1	Enero	2023-01-25T00:00:00	2024-11-08T14:00:00	1	Precipitación	0
150124	7	Sololá	712	San Antonio Palopó	9	San Antonio Palopo	1	Enero	2023-01-25T00:00:00	2024-11-08T14:00:00	8	Radiación solar	720
150125	7	Sololá	712	San Antonio Palopó	9	San Antonio Palopo	1	Enero	2023-01-25T00:00:00	2024-11-08T15:00:00	2	Temperatura media	23.8
150126	7	Sololá	712	San Antonio Palopó	9	San Antonio Palopo	1	Enero	2023-01-25T00:00:00	2024-11-08T15:00:00	4	Temperatura máxima	24.3
150127	7	Sololá	712	San Antonio Palopó	9	San Antonio Palopo	1	Enero	2023-01-25T00:00:00	2024-11-08T15:00:00	3	Temperatura mínima	23.4
150128	7	Sololá	712	San Antonio Palopó	9	San Antonio Palopo	1	Enero	2023-01-25T00:00:00	2024-11-08T15:00:00	5	Humedad	65
150129	7	Sololá	712	San Antonio Palopó	9	San Antonio Palopo	1	Enero	2023-01-25T00:00:00	2024-11-08T15:00:00	6	Velocidad del viento	8
150130	7	Sololá	712	San Antonio Palopó	9	San Antonio Palopo	1	Enero	2023-01-25T00:00:00	2024-11-08T15:00:00	7	Dirección del viento	8.05
150131	7	Sololá	712	San Antonio Palopó	9	San Antonio Palopo	1	Enero	2023-01-25T00:00:00	2024-11-08T15:00:00	1	Precipitación	0
150132	7	Sololá	712	San Antonio Palopó	9	San Antonio Palopo	1	Enero	2023-01-25T00:00:00	2024-11-08T15:00:00	8	Radiación solar	609
150133	7	Sololá	712	San Antonio Palopó	9	San Antonio Palopo	1	Enero	2023-01-25T00:00:00	2024-11-08T16:00:00	2	Temperatura media	23.6
150134	7	Sololá	712	San Antonio Palopó	9	San Antonio Palopo	1	Enero	2023-01-25T00:00:00	2024-11-08T16:00:00	4	Temperatura máxima	24.3
150135	7	Sololá	712	San Antonio Palopó	9	San Antonio Palopo	1	Enero	2023-01-25T00:00:00	2024-11-08T16:00:00	3	Temperatura mínima	23.3
150136	7	Sololá	712	San Antonio Palopó	9	San Antonio Palopo	1	Enero	2023-01-25T00:00:00	2024-11-08T16:00:00	5	Humedad	66
150137	7	Sololá	712	San Antonio Palopó	9	San Antonio Palopo	1	Enero	2023-01-25T00:00:00	2024-11-08T16:00:00	6	Velocidad del viento	6.4
150138	7	Sololá	712	San Antonio Palopó	9	San Antonio Palopo	1	Enero	2023-01-25T00:00:00	2024-11-08T16:00:00	7	Dirección del viento	6.44
150139	7	Sololá	712	San Antonio Palopó	9	San Antonio Palopo	1	Enero	2023-01-25T00:00:00	2024-11-08T16:00:00	1	Precipitación	0
150140	7	Sololá	712	San Antonio Palopó	9	San Antonio Palopo	1	Enero	2023-01-25T00:00:00	2024-11-08T16:00:00	8	Radiación solar	509
150141	7	Sololá	712	San Antonio Palopó	9	San Antonio Palopo	1	Enero	2023-01-25T00:00:00	2024-11-08T17:00:00	2	Temperatura media	22.5
150142	7	Sololá	712	San Antonio Palopó	9	San Antonio Palopo	1	Enero	2023-01-25T00:00:00	2024-11-08T17:00:00	4	Temperatura máxima	23.8
150143	7	Sololá	712	San Antonio Palopó	9	San Antonio Palopo	1	Enero	2023-01-25T00:00:00	2024-11-08T17:00:00	3	Temperatura mínima	22.5
150144	7	Sololá	712	San Antonio Palopó	9	San Antonio Palopo	1	Enero	2023-01-25T00:00:00	2024-11-08T17:00:00	5	Humedad	71
150145	7	Sololá	712	San Antonio Palopó	9	San Antonio Palopo	1	Enero	2023-01-25T00:00:00	2024-11-08T17:00:00	6	Velocidad del viento	6.4
150146	7	Sololá	712	San Antonio Palopó	9	San Antonio Palopo	1	Enero	2023-01-25T00:00:00	2024-11-08T17:00:00	7	Dirección del viento	6.44
150147	7	Sololá	712	San Antonio Palopó	9	San Antonio Palopo	1	Enero	2023-01-25T00:00:00	2024-11-08T17:00:00	1	Precipitación	0
150148	7	Sololá	712	San Antonio Palopó	9	San Antonio Palopo	1	Enero	2023-01-25T00:00:00	2024-11-08T17:00:00	8	Radiación solar	275
150149	7	Sololá	712	San Antonio Palopó	9	San Antonio Palopo	1	Enero	2023-01-25T00:00:00	2024-11-08T18:00:00	2	Temperatura media	20.8
150150	7	Sololá	712	San Antonio Palopó	9	San Antonio Palopo	1	Enero	2023-01-25T00:00:00	2024-11-08T18:00:00	4	Temperatura máxima	22.5
150151	7	Sololá	712	San Antonio Palopó	9	San Antonio Palopo	1	Enero	2023-01-25T00:00:00	2024-11-08T18:00:00	3	Temperatura mínima	20.7
150152	7	Sololá	712	San Antonio Palopó	9	San Antonio Palopo	1	Enero	2023-01-25T00:00:00	2024-11-08T18:00:00	5	Humedad	78
150153	7	Sololá	712	San Antonio Palopó	9	San Antonio Palopo	1	Enero	2023-01-25T00:00:00	2024-11-08T18:00:00	6	Velocidad del viento	4.8
150154	7	Sololá	712	San Antonio Palopó	9	San Antonio Palopo	1	Enero	2023-01-25T00:00:00	2024-11-08T18:00:00	7	Dirección del viento	4.83
150155	7	Sololá	712	San Antonio Palopó	9	San Antonio Palopo	1	Enero	2023-01-25T00:00:00	2024-11-08T18:00:00	1	Precipitación	0
150156	7	Sololá	712	San Antonio Palopó	9	San Antonio Palopo	1	Enero	2023-01-25T00:00:00	2024-11-08T18:00:00	8	Radiación solar	63
150157	7	Sololá	712	San Antonio Palopó	9	San Antonio Palopo	1	Enero	2023-01-25T00:00:00	2024-11-08T19:00:00	2	Temperatura media	19.4
150158	7	Sololá	712	San Antonio Palopó	9	San Antonio Palopo	1	Enero	2023-01-25T00:00:00	2024-11-08T19:00:00	4	Temperatura máxima	20.8
150159	7	Sololá	712	San Antonio Palopó	9	San Antonio Palopo	1	Enero	2023-01-25T00:00:00	2024-11-08T19:00:00	3	Temperatura mínima	19.4
150160	7	Sololá	712	San Antonio Palopó	9	San Antonio Palopo	1	Enero	2023-01-25T00:00:00	2024-11-08T19:00:00	5	Humedad	83
150161	7	Sololá	712	San Antonio Palopó	9	San Antonio Palopo	1	Enero	2023-01-25T00:00:00	2024-11-08T19:00:00	6	Velocidad del viento	3.2
150162	7	Sololá	712	San Antonio Palopó	9	San Antonio Palopo	1	Enero	2023-01-25T00:00:00	2024-11-08T19:00:00	7	Dirección del viento	3.22
150163	7	Sololá	712	San Antonio Palopó	9	San Antonio Palopo	1	Enero	2023-01-25T00:00:00	2024-11-08T19:00:00	1	Precipitación	0
150164	7	Sololá	712	San Antonio Palopó	9	San Antonio Palopo	1	Enero	2023-01-25T00:00:00	2024-11-08T19:00:00	8	Radiación solar	0
150165	7	Sololá	712	San Antonio Palopó	9	San Antonio Palopo	1	Enero	2023-01-25T00:00:00	2024-11-08T20:00:00	2	Temperatura media	18.6
150166	7	Sololá	712	San Antonio Palopó	9	San Antonio Palopo	1	Enero	2023-01-25T00:00:00	2024-11-08T20:00:00	4	Temperatura máxima	19.4
150167	7	Sololá	712	San Antonio Palopó	9	San Antonio Palopo	1	Enero	2023-01-25T00:00:00	2024-11-08T20:00:00	3	Temperatura mínima	18.6
150168	7	Sololá	712	San Antonio Palopó	9	San Antonio Palopo	1	Enero	2023-01-25T00:00:00	2024-11-08T20:00:00	5	Humedad	82
150169	7	Sololá	712	San Antonio Palopó	9	San Antonio Palopo	1	Enero	2023-01-25T00:00:00	2024-11-08T20:00:00	6	Velocidad del viento	1.6
150170	7	Sololá	712	San Antonio Palopó	9	San Antonio Palopo	1	Enero	2023-01-25T00:00:00	2024-11-08T20:00:00	7	Dirección del viento	1.61
150171	7	Sololá	712	San Antonio Palopó	9	San Antonio Palopo	1	Enero	2023-01-25T00:00:00	2024-11-08T20:00:00	1	Precipitación	0
150172	7	Sololá	712	San Antonio Palopó	9	San Antonio Palopo	1	Enero	2023-01-25T00:00:00	2024-11-08T20:00:00	8	Radiación solar	0
150173	7	Sololá	712	San Antonio Palopó	9	San Antonio Palopo	1	Enero	2023-01-25T00:00:00	2024-11-08T21:00:00	2	Temperatura media	18.6
150174	7	Sololá	712	San Antonio Palopó	9	San Antonio Palopo	1	Enero	2023-01-25T00:00:00	2024-11-08T21:00:00	4	Temperatura máxima	18.9
150175	7	Sololá	712	San Antonio Palopó	9	San Antonio Palopo	1	Enero	2023-01-25T00:00:00	2024-11-08T21:00:00	3	Temperatura mínima	18.1
150176	7	Sololá	712	San Antonio Palopó	9	San Antonio Palopo	1	Enero	2023-01-25T00:00:00	2024-11-08T21:00:00	5	Humedad	56
150177	7	Sololá	712	San Antonio Palopó	9	San Antonio Palopo	1	Enero	2023-01-25T00:00:00	2024-11-08T21:00:00	6	Velocidad del viento	3.2
150178	7	Sololá	712	San Antonio Palopó	9	San Antonio Palopo	1	Enero	2023-01-25T00:00:00	2024-11-08T21:00:00	7	Dirección del viento	3.22
150179	7	Sololá	712	San Antonio Palopó	9	San Antonio Palopo	1	Enero	2023-01-25T00:00:00	2024-11-08T21:00:00	1	Precipitación	0
150180	7	Sololá	712	San Antonio Palopó	9	San Antonio Palopo	1	Enero	2023-01-25T00:00:00	2024-11-08T21:00:00	8	Radiación solar	0
150181	7	Sololá	712	San Antonio Palopó	9	San Antonio Palopo	1	Enero	2023-01-25T00:00:00	2024-11-08T22:00:00	2	Temperatura media	18.3
150182	7	Sololá	712	San Antonio Palopó	9	San Antonio Palopo	1	Enero	2023-01-25T00:00:00	2024-11-08T22:00:00	4	Temperatura máxima	18.6
150183	7	Sololá	712	San Antonio Palopó	9	San Antonio Palopo	1	Enero	2023-01-25T00:00:00	2024-11-08T22:00:00	3	Temperatura mínima	18.3
150184	7	Sololá	712	San Antonio Palopó	9	San Antonio Palopo	1	Enero	2023-01-25T00:00:00	2024-11-08T22:00:00	5	Humedad	54
150185	7	Sololá	712	San Antonio Palopó	9	San Antonio Palopo	1	Enero	2023-01-25T00:00:00	2024-11-08T22:00:00	6	Velocidad del viento	6.4
150186	7	Sololá	712	San Antonio Palopó	9	San Antonio Palopo	1	Enero	2023-01-25T00:00:00	2024-11-08T22:00:00	7	Dirección del viento	6.44
150187	7	Sololá	712	San Antonio Palopó	9	San Antonio Palopo	1	Enero	2023-01-25T00:00:00	2024-11-08T22:00:00	1	Precipitación	0
150188	7	Sololá	712	San Antonio Palopó	9	San Antonio Palopo	1	Enero	2023-01-25T00:00:00	2024-11-08T22:00:00	8	Radiación solar	0
150189	7	Sololá	712	San Antonio Palopó	9	San Antonio Palopo	1	Enero	2023-01-25T00:00:00	2024-11-08T23:00:00	2	Temperatura media	18
150190	7	Sololá	712	San Antonio Palopó	9	San Antonio Palopo	1	Enero	2023-01-25T00:00:00	2024-11-08T23:00:00	4	Temperatura máxima	18.3
150191	7	Sololá	712	San Antonio Palopó	9	San Antonio Palopo	1	Enero	2023-01-25T00:00:00	2024-11-08T23:00:00	3	Temperatura mínima	17.9
150192	7	Sololá	712	San Antonio Palopó	9	San Antonio Palopo	1	Enero	2023-01-25T00:00:00	2024-11-08T23:00:00	5	Humedad	55
150193	7	Sololá	712	San Antonio Palopó	9	San Antonio Palopo	1	Enero	2023-01-25T00:00:00	2024-11-08T23:00:00	6	Velocidad del viento	11.3
150194	7	Sololá	712	San Antonio Palopó	9	San Antonio Palopo	1	Enero	2023-01-25T00:00:00	2024-11-08T23:00:00	7	Dirección del viento	11.27
150195	7	Sololá	712	San Antonio Palopó	9	San Antonio Palopo	1	Enero	2023-01-25T00:00:00	2024-11-08T23:00:00	1	Precipitación	0
150196	7	Sololá	712	San Antonio Palopó	9	San Antonio Palopo	1	Enero	2023-01-25T00:00:00	2024-11-08T23:00:00	8	Radiación solar	0
150197	7	Sololá	712	San Antonio Palopó	9	San Antonio Palopo	1	Enero	2023-01-26T00:00:00	2024-11-08T00:00:00	2	Temperatura media	17.9
150198	7	Sololá	712	San Antonio Palopó	9	San Antonio Palopo	1	Enero	2023-01-26T00:00:00	2024-11-08T00:00:00	4	Temperatura máxima	18.2
150199	7	Sololá	712	San Antonio Palopó	9	San Antonio Palopo	1	Enero	2023-01-26T00:00:00	2024-11-08T00:00:00	3	Temperatura mínima	17.7
150200	7	Sololá	712	San Antonio Palopó	9	San Antonio Palopo	1	Enero	2023-01-26T00:00:00	2024-11-08T00:00:00	5	Humedad	59
150201	7	Sololá	712	San Antonio Palopó	9	San Antonio Palopo	1	Enero	2023-01-26T00:00:00	2024-11-08T00:00:00	6	Velocidad del viento	11.3
150202	7	Sololá	712	San Antonio Palopó	9	San Antonio Palopo	1	Enero	2023-01-26T00:00:00	2024-11-08T00:00:00	7	Dirección del viento	11.27
150203	7	Sololá	712	San Antonio Palopó	9	San Antonio Palopo	1	Enero	2023-01-26T00:00:00	2024-11-08T00:00:00	1	Precipitación	0
150204	7	Sololá	712	San Antonio Palopó	9	San Antonio Palopo	1	Enero	2023-01-26T00:00:00	2024-11-08T00:00:00	8	Radiación solar	0
150205	7	Sololá	712	San Antonio Palopó	9	San Antonio Palopo	1	Enero	2023-01-26T00:00:00	2024-11-08T01:00:00	2	Temperatura media	17.3
150206	7	Sololá	712	San Antonio Palopó	9	San Antonio Palopo	1	Enero	2023-01-26T00:00:00	2024-11-08T01:00:00	4	Temperatura máxima	17.8
150207	7	Sololá	712	San Antonio Palopó	9	San Antonio Palopo	1	Enero	2023-01-26T00:00:00	2024-11-08T01:00:00	3	Temperatura mínima	17.3
150208	7	Sololá	712	San Antonio Palopó	9	San Antonio Palopo	1	Enero	2023-01-26T00:00:00	2024-11-08T01:00:00	5	Humedad	64
150209	7	Sololá	712	San Antonio Palopó	9	San Antonio Palopo	1	Enero	2023-01-26T00:00:00	2024-11-08T01:00:00	6	Velocidad del viento	9.7
150210	7	Sololá	712	San Antonio Palopó	9	San Antonio Palopo	1	Enero	2023-01-26T00:00:00	2024-11-08T01:00:00	7	Dirección del viento	9.66
150211	7	Sololá	712	San Antonio Palopó	9	San Antonio Palopo	1	Enero	2023-01-26T00:00:00	2024-11-08T01:00:00	1	Precipitación	0
150212	7	Sololá	712	San Antonio Palopó	9	San Antonio Palopo	1	Enero	2023-01-26T00:00:00	2024-11-08T01:00:00	8	Radiación solar	0
150213	7	Sololá	712	San Antonio Palopó	9	San Antonio Palopo	1	Enero	2023-01-26T00:00:00	2024-11-08T02:00:00	2	Temperatura media	17.2
150214	7	Sololá	712	San Antonio Palopó	9	San Antonio Palopo	1	Enero	2023-01-26T00:00:00	2024-11-08T02:00:00	4	Temperatura máxima	17.4
150215	7	Sololá	712	San Antonio Palopó	9	San Antonio Palopo	1	Enero	2023-01-26T00:00:00	2024-11-08T02:00:00	3	Temperatura mínima	17.1
150216	7	Sololá	712	San Antonio Palopó	9	San Antonio Palopo	1	Enero	2023-01-26T00:00:00	2024-11-08T02:00:00	5	Humedad	65
150217	7	Sololá	712	San Antonio Palopó	9	San Antonio Palopo	1	Enero	2023-01-26T00:00:00	2024-11-08T02:00:00	6	Velocidad del viento	8
150218	7	Sololá	712	San Antonio Palopó	9	San Antonio Palopo	1	Enero	2023-01-26T00:00:00	2024-11-08T02:00:00	7	Dirección del viento	8.05
150219	7	Sololá	712	San Antonio Palopó	9	San Antonio Palopo	1	Enero	2023-01-26T00:00:00	2024-11-08T02:00:00	1	Precipitación	0
150220	7	Sololá	712	San Antonio Palopó	9	San Antonio Palopo	1	Enero	2023-01-26T00:00:00	2024-11-08T02:00:00	8	Radiación solar	0
150221	7	Sololá	712	San Antonio Palopó	9	San Antonio Palopo	1	Enero	2023-01-26T00:00:00	2024-11-08T03:00:00	2	Temperatura media	17.3
150222	7	Sololá	712	San Antonio Palopó	9	San Antonio Palopo	1	Enero	2023-01-26T00:00:00	2024-11-08T03:00:00	4	Temperatura máxima	17.7
150223	7	Sololá	712	San Antonio Palopó	9	San Antonio Palopo	1	Enero	2023-01-26T00:00:00	2024-11-08T03:00:00	3	Temperatura mínima	17.2
150224	7	Sololá	712	San Antonio Palopó	9	San Antonio Palopo	1	Enero	2023-01-26T00:00:00	2024-11-08T03:00:00	5	Humedad	65
150225	7	Sololá	712	San Antonio Palopó	9	San Antonio Palopo	1	Enero	2023-01-26T00:00:00	2024-11-08T03:00:00	6	Velocidad del viento	9.7
150226	7	Sololá	712	San Antonio Palopó	9	San Antonio Palopo	1	Enero	2023-01-26T00:00:00	2024-11-08T03:00:00	7	Dirección del viento	9.66
150227	7	Sololá	712	San Antonio Palopó	9	San Antonio Palopo	1	Enero	2023-01-26T00:00:00	2024-11-08T03:00:00	1	Precipitación	0
150228	7	Sololá	712	San Antonio Palopó	9	San Antonio Palopo	1	Enero	2023-01-26T00:00:00	2024-11-08T03:00:00	8	Radiación solar	0
150229	7	Sololá	712	San Antonio Palopó	9	San Antonio Palopo	1	Enero	2023-01-26T00:00:00	2024-11-08T04:00:00	2	Temperatura media	17.1
150230	7	Sololá	712	San Antonio Palopó	9	San Antonio Palopo	1	Enero	2023-01-26T00:00:00	2024-11-08T04:00:00	4	Temperatura máxima	17.4
150231	7	Sololá	712	San Antonio Palopó	9	San Antonio Palopo	1	Enero	2023-01-26T00:00:00	2024-11-08T04:00:00	3	Temperatura mínima	16.9
150232	7	Sololá	712	San Antonio Palopó	9	San Antonio Palopo	1	Enero	2023-01-26T00:00:00	2024-11-08T04:00:00	5	Humedad	68
150233	7	Sololá	712	San Antonio Palopó	9	San Antonio Palopo	1	Enero	2023-01-26T00:00:00	2024-11-08T04:00:00	6	Velocidad del viento	8
150234	7	Sololá	712	San Antonio Palopó	9	San Antonio Palopo	1	Enero	2023-01-26T00:00:00	2024-11-08T04:00:00	7	Dirección del viento	8.05
150235	7	Sololá	712	San Antonio Palopó	9	San Antonio Palopo	1	Enero	2023-01-26T00:00:00	2024-11-08T04:00:00	1	Precipitación	0
150236	7	Sololá	712	San Antonio Palopó	9	San Antonio Palopo	1	Enero	2023-01-26T00:00:00	2024-11-08T04:00:00	8	Radiación solar	0
150237	7	Sololá	712	San Antonio Palopó	9	San Antonio Palopo	1	Enero	2023-01-26T00:00:00	2024-11-08T05:00:00	2	Temperatura media	17.7
150238	7	Sololá	712	San Antonio Palopó	9	San Antonio Palopo	1	Enero	2023-01-26T00:00:00	2024-11-08T05:00:00	4	Temperatura máxima	17.7
150239	7	Sololá	712	San Antonio Palopó	9	San Antonio Palopo	1	Enero	2023-01-26T00:00:00	2024-11-08T05:00:00	3	Temperatura mínima	17.1
150240	7	Sololá	712	San Antonio Palopó	9	San Antonio Palopo	1	Enero	2023-01-26T00:00:00	2024-11-08T05:00:00	5	Humedad	66
150241	7	Sololá	712	San Antonio Palopó	9	San Antonio Palopo	1	Enero	2023-01-26T00:00:00	2024-11-08T05:00:00	6	Velocidad del viento	4.8
150242	7	Sololá	712	San Antonio Palopó	9	San Antonio Palopo	1	Enero	2023-01-26T00:00:00	2024-11-08T05:00:00	7	Dirección del viento	4.83
150243	7	Sololá	712	San Antonio Palopó	9	San Antonio Palopo	1	Enero	2023-01-26T00:00:00	2024-11-08T05:00:00	1	Precipitación	0
150244	7	Sololá	712	San Antonio Palopó	9	San Antonio Palopo	1	Enero	2023-01-26T00:00:00	2024-11-08T05:00:00	8	Radiación solar	0
150245	7	Sololá	712	San Antonio Palopó	9	San Antonio Palopo	1	Enero	2023-01-26T00:00:00	2024-11-08T06:00:00	2	Temperatura media	18.2
150246	7	Sololá	712	San Antonio Palopó	9	San Antonio Palopo	1	Enero	2023-01-26T00:00:00	2024-11-08T06:00:00	4	Temperatura máxima	18.2
150247	7	Sololá	712	San Antonio Palopó	9	San Antonio Palopo	1	Enero	2023-01-26T00:00:00	2024-11-08T06:00:00	3	Temperatura mínima	17.3
150248	7	Sololá	712	San Antonio Palopó	9	San Antonio Palopo	1	Enero	2023-01-26T00:00:00	2024-11-08T06:00:00	5	Humedad	65
150249	7	Sololá	712	San Antonio Palopó	9	San Antonio Palopo	1	Enero	2023-01-26T00:00:00	2024-11-08T06:00:00	6	Velocidad del viento	6.4
150250	7	Sololá	712	San Antonio Palopó	9	San Antonio Palopo	1	Enero	2023-01-26T00:00:00	2024-11-08T06:00:00	7	Dirección del viento	6.44
150251	7	Sololá	712	San Antonio Palopó	9	San Antonio Palopo	1	Enero	2023-01-26T00:00:00	2024-11-08T06:00:00	1	Precipitación	0
150252	7	Sololá	712	San Antonio Palopó	9	San Antonio Palopo	1	Enero	2023-01-26T00:00:00	2024-11-08T06:00:00	8	Radiación solar	0
150253	7	Sololá	712	San Antonio Palopó	9	San Antonio Palopo	1	Enero	2023-01-26T00:00:00	2024-11-08T07:00:00	2	Temperatura media	18.7
150254	7	Sololá	712	San Antonio Palopó	9	San Antonio Palopo	1	Enero	2023-01-26T00:00:00	2024-11-08T07:00:00	4	Temperatura máxima	18.8
150255	7	Sololá	712	San Antonio Palopó	9	San Antonio Palopo	1	Enero	2023-01-26T00:00:00	2024-11-08T07:00:00	3	Temperatura mínima	18.2
150256	7	Sololá	712	San Antonio Palopó	9	San Antonio Palopo	1	Enero	2023-01-26T00:00:00	2024-11-08T07:00:00	5	Humedad	64
150257	7	Sololá	712	San Antonio Palopó	9	San Antonio Palopo	1	Enero	2023-01-26T00:00:00	2024-11-08T07:00:00	6	Velocidad del viento	11.3
150258	7	Sololá	712	San Antonio Palopó	9	San Antonio Palopo	1	Enero	2023-01-26T00:00:00	2024-11-08T07:00:00	7	Dirección del viento	11.27
150259	7	Sololá	712	San Antonio Palopó	9	San Antonio Palopo	1	Enero	2023-01-26T00:00:00	2024-11-08T07:00:00	1	Precipitación	0
150260	7	Sololá	712	San Antonio Palopó	9	San Antonio Palopo	1	Enero	2023-01-26T00:00:00	2024-11-08T07:00:00	8	Radiación solar	3
150261	7	Sololá	712	San Antonio Palopó	9	San Antonio Palopo	1	Enero	2023-01-26T00:00:00	2024-11-08T08:00:00	2	Temperatura media	19
150262	7	Sololá	712	San Antonio Palopó	9	San Antonio Palopo	1	Enero	2023-01-26T00:00:00	2024-11-08T08:00:00	4	Temperatura máxima	19.3
150263	7	Sololá	712	San Antonio Palopó	9	San Antonio Palopo	1	Enero	2023-01-26T00:00:00	2024-11-08T08:00:00	3	Temperatura mínima	18.7
150264	7	Sololá	712	San Antonio Palopó	9	San Antonio Palopo	1	Enero	2023-01-26T00:00:00	2024-11-08T08:00:00	5	Humedad	64
150265	7	Sololá	712	San Antonio Palopó	9	San Antonio Palopo	1	Enero	2023-01-26T00:00:00	2024-11-08T08:00:00	6	Velocidad del viento	17.7
150266	7	Sololá	712	San Antonio Palopó	9	San Antonio Palopo	1	Enero	2023-01-26T00:00:00	2024-11-08T08:00:00	7	Dirección del viento	17.7
150267	7	Sololá	712	San Antonio Palopó	9	San Antonio Palopo	1	Enero	2023-01-26T00:00:00	2024-11-08T08:00:00	1	Precipitación	0
150268	7	Sololá	712	San Antonio Palopó	9	San Antonio Palopo	1	Enero	2023-01-26T00:00:00	2024-11-08T08:00:00	8	Radiación solar	18
150269	7	Sololá	712	San Antonio Palopó	9	San Antonio Palopo	1	Enero	2023-01-26T00:00:00	2024-11-08T09:00:00	2	Temperatura media	20.8
150270	7	Sololá	712	San Antonio Palopó	9	San Antonio Palopo	1	Enero	2023-01-26T00:00:00	2024-11-08T09:00:00	4	Temperatura máxima	20.8
150271	7	Sololá	712	San Antonio Palopó	9	San Antonio Palopo	1	Enero	2023-01-26T00:00:00	2024-11-08T09:00:00	3	Temperatura mínima	19
150272	7	Sololá	712	San Antonio Palopó	9	San Antonio Palopo	1	Enero	2023-01-26T00:00:00	2024-11-08T09:00:00	5	Humedad	58
150273	7	Sololá	712	San Antonio Palopó	9	San Antonio Palopo	1	Enero	2023-01-26T00:00:00	2024-11-08T09:00:00	6	Velocidad del viento	11.3
150274	7	Sololá	712	San Antonio Palopó	9	San Antonio Palopo	1	Enero	2023-01-26T00:00:00	2024-11-08T09:00:00	7	Dirección del viento	11.27
150275	7	Sololá	712	San Antonio Palopó	9	San Antonio Palopo	1	Enero	2023-01-26T00:00:00	2024-11-08T09:00:00	1	Precipitación	0
150276	7	Sololá	712	San Antonio Palopó	9	San Antonio Palopo	1	Enero	2023-01-26T00:00:00	2024-11-08T09:00:00	8	Radiación solar	154
150277	7	Sololá	712	San Antonio Palopó	9	San Antonio Palopo	1	Enero	2023-01-26T00:00:00	2024-11-08T10:00:00	2	Temperatura media	22.4
150278	7	Sololá	712	San Antonio Palopó	9	San Antonio Palopo	1	Enero	2023-01-26T00:00:00	2024-11-08T10:00:00	4	Temperatura máxima	22.4
150279	7	Sololá	712	San Antonio Palopó	9	San Antonio Palopo	1	Enero	2023-01-26T00:00:00	2024-11-08T10:00:00	3	Temperatura mínima	20.8
150280	7	Sololá	712	San Antonio Palopó	9	San Antonio Palopo	1	Enero	2023-01-26T00:00:00	2024-11-08T10:00:00	5	Humedad	51
150281	7	Sololá	712	San Antonio Palopó	9	San Antonio Palopo	1	Enero	2023-01-26T00:00:00	2024-11-08T10:00:00	6	Velocidad del viento	16.1
150282	7	Sololá	712	San Antonio Palopó	9	San Antonio Palopo	1	Enero	2023-01-26T00:00:00	2024-11-08T10:00:00	7	Dirección del viento	16.09
150283	7	Sololá	712	San Antonio Palopó	9	San Antonio Palopo	1	Enero	2023-01-26T00:00:00	2024-11-08T10:00:00	1	Precipitación	0
150284	7	Sololá	712	San Antonio Palopó	9	San Antonio Palopo	1	Enero	2023-01-26T00:00:00	2024-11-08T10:00:00	8	Radiación solar	537
150285	7	Sololá	712	San Antonio Palopó	9	San Antonio Palopo	1	Enero	2023-01-26T00:00:00	2024-11-08T11:00:00	2	Temperatura media	23.4
150286	7	Sololá	712	San Antonio Palopó	9	San Antonio Palopo	1	Enero	2023-01-26T00:00:00	2024-11-08T11:00:00	4	Temperatura máxima	23.9
150287	7	Sololá	712	San Antonio Palopó	9	San Antonio Palopo	1	Enero	2023-01-26T00:00:00	2024-11-08T11:00:00	3	Temperatura mínima	22.4
150288	7	Sololá	712	San Antonio Palopó	9	San Antonio Palopo	1	Enero	2023-01-26T00:00:00	2024-11-08T11:00:00	5	Humedad	48
150289	7	Sololá	712	San Antonio Palopó	9	San Antonio Palopo	1	Enero	2023-01-26T00:00:00	2024-11-08T11:00:00	6	Velocidad del viento	9.7
150290	7	Sololá	712	San Antonio Palopó	9	San Antonio Palopo	1	Enero	2023-01-26T00:00:00	2024-11-08T11:00:00	7	Dirección del viento	9.66
150291	7	Sololá	712	San Antonio Palopó	9	San Antonio Palopo	1	Enero	2023-01-26T00:00:00	2024-11-08T11:00:00	1	Precipitación	0
150292	7	Sololá	712	San Antonio Palopó	9	San Antonio Palopo	1	Enero	2023-01-26T00:00:00	2024-11-08T11:00:00	8	Radiación solar	682
150293	7	Sololá	712	San Antonio Palopó	9	San Antonio Palopo	1	Enero	2023-01-26T00:00:00	2024-11-08T12:00:00	2	Temperatura media	24
150294	7	Sololá	712	San Antonio Palopó	9	San Antonio Palopo	1	Enero	2023-01-26T00:00:00	2024-11-08T12:00:00	4	Temperatura máxima	24.6
150295	7	Sololá	712	San Antonio Palopó	9	San Antonio Palopo	1	Enero	2023-01-26T00:00:00	2024-11-08T12:00:00	3	Temperatura mínima	23.2
150296	7	Sololá	712	San Antonio Palopó	9	San Antonio Palopo	1	Enero	2023-01-26T00:00:00	2024-11-08T12:00:00	5	Humedad	45
150297	7	Sololá	712	San Antonio Palopó	9	San Antonio Palopo	1	Enero	2023-01-26T00:00:00	2024-11-08T12:00:00	6	Velocidad del viento	11.3
150298	7	Sololá	712	San Antonio Palopó	9	San Antonio Palopo	1	Enero	2023-01-26T00:00:00	2024-11-08T12:00:00	7	Dirección del viento	11.27
150299	7	Sololá	712	San Antonio Palopó	9	San Antonio Palopo	1	Enero	2023-01-26T00:00:00	2024-11-08T12:00:00	1	Precipitación	0
150300	7	Sololá	712	San Antonio Palopó	9	San Antonio Palopo	1	Enero	2023-01-26T00:00:00	2024-11-08T12:00:00	8	Radiación solar	679
150301	7	Sololá	712	San Antonio Palopó	9	San Antonio Palopo	1	Enero	2023-01-26T00:00:00	2024-11-08T13:00:00	2	Temperatura media	24.6
150302	7	Sololá	712	San Antonio Palopó	9	San Antonio Palopo	1	Enero	2023-01-26T00:00:00	2024-11-08T13:00:00	4	Temperatura máxima	25.2
150303	7	Sololá	712	San Antonio Palopó	9	San Antonio Palopo	1	Enero	2023-01-26T00:00:00	2024-11-08T13:00:00	3	Temperatura mínima	23.9
150304	7	Sololá	712	San Antonio Palopó	9	San Antonio Palopo	1	Enero	2023-01-26T00:00:00	2024-11-08T13:00:00	5	Humedad	47
150305	7	Sololá	712	San Antonio Palopó	9	San Antonio Palopo	1	Enero	2023-01-26T00:00:00	2024-11-08T13:00:00	6	Velocidad del viento	6.4
150306	7	Sololá	712	San Antonio Palopó	9	San Antonio Palopo	1	Enero	2023-01-26T00:00:00	2024-11-08T13:00:00	7	Dirección del viento	6.44
150307	7	Sololá	712	San Antonio Palopó	9	San Antonio Palopo	1	Enero	2023-01-26T00:00:00	2024-11-08T13:00:00	1	Precipitación	0
150308	7	Sololá	712	San Antonio Palopó	9	San Antonio Palopo	1	Enero	2023-01-26T00:00:00	2024-11-08T13:00:00	8	Radiación solar	782
150309	7	Sololá	712	San Antonio Palopó	9	San Antonio Palopo	1	Enero	2023-01-26T00:00:00	2024-11-08T14:00:00	2	Temperatura media	24.3
150310	7	Sololá	712	San Antonio Palopó	9	San Antonio Palopo	1	Enero	2023-01-26T00:00:00	2024-11-08T14:00:00	4	Temperatura máxima	25.6
150311	7	Sololá	712	San Antonio Palopó	9	San Antonio Palopo	1	Enero	2023-01-26T00:00:00	2024-11-08T14:00:00	3	Temperatura mínima	24.2
150312	7	Sololá	712	San Antonio Palopó	9	San Antonio Palopo	1	Enero	2023-01-26T00:00:00	2024-11-08T14:00:00	5	Humedad	46
150313	7	Sololá	712	San Antonio Palopó	9	San Antonio Palopo	1	Enero	2023-01-26T00:00:00	2024-11-08T14:00:00	6	Velocidad del viento	8
150314	7	Sololá	712	San Antonio Palopó	9	San Antonio Palopo	1	Enero	2023-01-26T00:00:00	2024-11-08T14:00:00	7	Dirección del viento	8.05
150315	7	Sololá	712	San Antonio Palopó	9	San Antonio Palopo	1	Enero	2023-01-26T00:00:00	2024-11-08T14:00:00	1	Precipitación	0
150316	7	Sololá	712	San Antonio Palopó	9	San Antonio Palopo	1	Enero	2023-01-26T00:00:00	2024-11-08T14:00:00	8	Radiación solar	702
150317	7	Sololá	712	San Antonio Palopó	9	San Antonio Palopo	1	Enero	2023-01-26T00:00:00	2024-11-08T15:00:00	2	Temperatura media	24.2
150318	7	Sololá	712	San Antonio Palopó	9	San Antonio Palopo	1	Enero	2023-01-26T00:00:00	2024-11-08T15:00:00	4	Temperatura máxima	25.2
150319	7	Sololá	712	San Antonio Palopó	9	San Antonio Palopo	1	Enero	2023-01-26T00:00:00	2024-11-08T15:00:00	3	Temperatura mínima	23.9
150320	7	Sololá	712	San Antonio Palopó	9	San Antonio Palopo	1	Enero	2023-01-26T00:00:00	2024-11-08T15:00:00	5	Humedad	42
150321	7	Sololá	712	San Antonio Palopó	9	San Antonio Palopo	1	Enero	2023-01-26T00:00:00	2024-11-08T15:00:00	6	Velocidad del viento	11.3
150322	7	Sololá	712	San Antonio Palopó	9	San Antonio Palopo	1	Enero	2023-01-26T00:00:00	2024-11-08T15:00:00	7	Dirección del viento	11.27
150323	7	Sololá	712	San Antonio Palopó	9	San Antonio Palopo	1	Enero	2023-01-26T00:00:00	2024-11-08T15:00:00	1	Precipitación	0
150324	7	Sololá	712	San Antonio Palopó	9	San Antonio Palopo	1	Enero	2023-01-26T00:00:00	2024-11-08T15:00:00	8	Radiación solar	598
150325	7	Sololá	712	San Antonio Palopó	9	San Antonio Palopo	1	Enero	2023-01-26T00:00:00	2024-11-08T16:00:00	2	Temperatura media	23.1
150326	7	Sololá	712	San Antonio Palopó	9	San Antonio Palopo	1	Enero	2023-01-26T00:00:00	2024-11-08T16:00:00	4	Temperatura máxima	24.2
150327	7	Sololá	712	San Antonio Palopó	9	San Antonio Palopo	1	Enero	2023-01-26T00:00:00	2024-11-08T16:00:00	3	Temperatura mínima	23.1
150328	7	Sololá	712	San Antonio Palopó	9	San Antonio Palopo	1	Enero	2023-01-26T00:00:00	2024-11-08T16:00:00	5	Humedad	50
150329	7	Sololá	712	San Antonio Palopó	9	San Antonio Palopo	1	Enero	2023-01-26T00:00:00	2024-11-08T16:00:00	6	Velocidad del viento	11.3
150330	7	Sololá	712	San Antonio Palopó	9	San Antonio Palopo	1	Enero	2023-01-26T00:00:00	2024-11-08T16:00:00	7	Dirección del viento	11.27
150331	7	Sololá	712	San Antonio Palopó	9	San Antonio Palopo	1	Enero	2023-01-26T00:00:00	2024-11-08T16:00:00	1	Precipitación	0
150332	7	Sololá	712	San Antonio Palopó	9	San Antonio Palopo	1	Enero	2023-01-26T00:00:00	2024-11-08T16:00:00	8	Radiación solar	280
150333	7	Sololá	712	San Antonio Palopó	9	San Antonio Palopo	1	Enero	2023-01-26T00:00:00	2024-11-08T17:00:00	2	Temperatura media	22.6
150334	7	Sololá	712	San Antonio Palopó	9	San Antonio Palopo	1	Enero	2023-01-26T00:00:00	2024-11-08T17:00:00	4	Temperatura máxima	23.8
150335	7	Sololá	712	San Antonio Palopó	9	San Antonio Palopo	1	Enero	2023-01-26T00:00:00	2024-11-08T17:00:00	3	Temperatura mínima	22.6
150336	7	Sololá	712	San Antonio Palopó	9	San Antonio Palopo	1	Enero	2023-01-26T00:00:00	2024-11-08T17:00:00	5	Humedad	47
150337	7	Sololá	712	San Antonio Palopó	9	San Antonio Palopo	1	Enero	2023-01-26T00:00:00	2024-11-08T17:00:00	6	Velocidad del viento	8
150338	7	Sololá	712	San Antonio Palopó	9	San Antonio Palopo	1	Enero	2023-01-26T00:00:00	2024-11-08T17:00:00	7	Dirección del viento	8.05
150339	7	Sololá	712	San Antonio Palopó	9	San Antonio Palopo	1	Enero	2023-01-26T00:00:00	2024-11-08T17:00:00	1	Precipitación	0
150340	7	Sololá	712	San Antonio Palopó	9	San Antonio Palopo	1	Enero	2023-01-26T00:00:00	2024-11-08T17:00:00	8	Radiación solar	186
150341	7	Sololá	712	San Antonio Palopó	9	San Antonio Palopo	1	Enero	2023-01-26T00:00:00	2024-11-08T18:00:00	2	Temperatura media	20.3
150342	7	Sololá	712	San Antonio Palopó	9	San Antonio Palopo	1	Enero	2023-01-26T00:00:00	2024-11-08T18:00:00	4	Temperatura máxima	22.6
150343	7	Sololá	712	San Antonio Palopó	9	San Antonio Palopo	1	Enero	2023-01-26T00:00:00	2024-11-08T18:00:00	3	Temperatura mínima	20.3
150344	7	Sololá	712	San Antonio Palopó	9	San Antonio Palopo	1	Enero	2023-01-26T00:00:00	2024-11-08T18:00:00	5	Humedad	54
150345	7	Sololá	712	San Antonio Palopó	9	San Antonio Palopo	1	Enero	2023-01-26T00:00:00	2024-11-08T18:00:00	6	Velocidad del viento	17.7
150346	7	Sololá	712	San Antonio Palopó	9	San Antonio Palopo	1	Enero	2023-01-26T00:00:00	2024-11-08T18:00:00	7	Dirección del viento	17.7
150347	7	Sololá	712	San Antonio Palopó	9	San Antonio Palopo	1	Enero	2023-01-26T00:00:00	2024-11-08T18:00:00	1	Precipitación	0
150348	7	Sololá	712	San Antonio Palopó	9	San Antonio Palopo	1	Enero	2023-01-26T00:00:00	2024-11-08T18:00:00	8	Radiación solar	27
150349	7	Sololá	712	San Antonio Palopó	9	San Antonio Palopo	1	Enero	2023-01-26T00:00:00	2024-11-08T19:00:00	2	Temperatura media	19.7
150350	7	Sololá	712	San Antonio Palopó	9	San Antonio Palopo	1	Enero	2023-01-26T00:00:00	2024-11-08T19:00:00	4	Temperatura máxima	20.3
150351	7	Sololá	712	San Antonio Palopó	9	San Antonio Palopo	1	Enero	2023-01-26T00:00:00	2024-11-08T19:00:00	3	Temperatura mínima	19.7
150352	7	Sololá	712	San Antonio Palopó	9	San Antonio Palopo	1	Enero	2023-01-26T00:00:00	2024-11-08T19:00:00	5	Humedad	55
150353	7	Sololá	712	San Antonio Palopó	9	San Antonio Palopo	1	Enero	2023-01-26T00:00:00	2024-11-08T19:00:00	6	Velocidad del viento	16.1
150354	7	Sololá	712	San Antonio Palopó	9	San Antonio Palopo	1	Enero	2023-01-26T00:00:00	2024-11-08T19:00:00	7	Dirección del viento	16.09
150355	7	Sololá	712	San Antonio Palopó	9	San Antonio Palopo	1	Enero	2023-01-26T00:00:00	2024-11-08T19:00:00	1	Precipitación	0
150356	7	Sololá	712	San Antonio Palopó	9	San Antonio Palopo	1	Enero	2023-01-26T00:00:00	2024-11-08T19:00:00	8	Radiación solar	0
150357	7	Sololá	712	San Antonio Palopó	9	San Antonio Palopo	1	Enero	2023-01-26T00:00:00	2024-11-08T20:00:00	2	Temperatura media	19.3
150358	7	Sololá	712	San Antonio Palopó	9	San Antonio Palopo	1	Enero	2023-01-26T00:00:00	2024-11-08T20:00:00	4	Temperatura máxima	19.7
150359	7	Sololá	712	San Antonio Palopó	9	San Antonio Palopo	1	Enero	2023-01-26T00:00:00	2024-11-08T20:00:00	3	Temperatura mínima	19.3
150360	7	Sololá	712	San Antonio Palopó	9	San Antonio Palopo	1	Enero	2023-01-26T00:00:00	2024-11-08T20:00:00	5	Humedad	56
150361	7	Sololá	712	San Antonio Palopó	9	San Antonio Palopo	1	Enero	2023-01-26T00:00:00	2024-11-08T20:00:00	6	Velocidad del viento	9.7
150362	7	Sololá	712	San Antonio Palopó	9	San Antonio Palopo	1	Enero	2023-01-26T00:00:00	2024-11-08T20:00:00	7	Dirección del viento	9.66
150363	7	Sololá	712	San Antonio Palopó	9	San Antonio Palopo	1	Enero	2023-01-26T00:00:00	2024-11-08T20:00:00	1	Precipitación	0
150364	7	Sololá	712	San Antonio Palopó	9	San Antonio Palopo	1	Enero	2023-01-26T00:00:00	2024-11-08T20:00:00	8	Radiación solar	0
150365	7	Sololá	712	San Antonio Palopó	9	San Antonio Palopo	1	Enero	2023-01-26T00:00:00	2024-11-08T21:00:00	2	Temperatura media	18.6
150366	7	Sololá	712	San Antonio Palopó	9	San Antonio Palopo	1	Enero	2023-01-26T00:00:00	2024-11-08T21:00:00	4	Temperatura máxima	19.3
150367	7	Sololá	712	San Antonio Palopó	9	San Antonio Palopo	1	Enero	2023-01-26T00:00:00	2024-11-08T21:00:00	3	Temperatura mínima	18.5
150368	7	Sololá	712	San Antonio Palopó	9	San Antonio Palopo	1	Enero	2023-01-26T00:00:00	2024-11-08T21:00:00	5	Humedad	57
150369	7	Sololá	712	San Antonio Palopó	9	San Antonio Palopo	1	Enero	2023-01-26T00:00:00	2024-11-08T21:00:00	6	Velocidad del viento	8
150370	7	Sololá	712	San Antonio Palopó	9	San Antonio Palopo	1	Enero	2023-01-26T00:00:00	2024-11-08T21:00:00	7	Dirección del viento	8.05
150371	7	Sololá	712	San Antonio Palopó	9	San Antonio Palopo	1	Enero	2023-01-26T00:00:00	2024-11-08T21:00:00	1	Precipitación	0
150372	7	Sololá	712	San Antonio Palopó	9	San Antonio Palopo	1	Enero	2023-01-26T00:00:00	2024-11-08T21:00:00	8	Radiación solar	0
150373	7	Sololá	712	San Antonio Palopó	9	San Antonio Palopo	1	Enero	2023-01-26T00:00:00	2024-11-08T22:00:00	2	Temperatura media	18.8
150374	7	Sololá	712	San Antonio Palopó	9	San Antonio Palopo	1	Enero	2023-01-26T00:00:00	2024-11-08T22:00:00	4	Temperatura máxima	19
150375	7	Sololá	712	San Antonio Palopó	9	San Antonio Palopo	1	Enero	2023-01-26T00:00:00	2024-11-08T22:00:00	3	Temperatura mínima	18.6
150376	7	Sololá	712	San Antonio Palopó	9	San Antonio Palopo	1	Enero	2023-01-26T00:00:00	2024-11-08T22:00:00	5	Humedad	60
150377	7	Sololá	712	San Antonio Palopó	9	San Antonio Palopo	1	Enero	2023-01-26T00:00:00	2024-11-08T22:00:00	6	Velocidad del viento	11.3
150378	7	Sololá	712	San Antonio Palopó	9	San Antonio Palopo	1	Enero	2023-01-26T00:00:00	2024-11-08T22:00:00	7	Dirección del viento	11.27
150379	7	Sololá	712	San Antonio Palopó	9	San Antonio Palopo	1	Enero	2023-01-26T00:00:00	2024-11-08T22:00:00	1	Precipitación	0
150380	7	Sololá	712	San Antonio Palopó	9	San Antonio Palopo	1	Enero	2023-01-26T00:00:00	2024-11-08T22:00:00	8	Radiación solar	0
150381	7	Sololá	712	San Antonio Palopó	9	San Antonio Palopo	1	Enero	2023-01-26T00:00:00	2024-11-08T23:00:00	2	Temperatura media	18.2
150382	7	Sololá	712	San Antonio Palopó	9	San Antonio Palopo	1	Enero	2023-01-26T00:00:00	2024-11-08T23:00:00	4	Temperatura máxima	18.8
150383	7	Sololá	712	San Antonio Palopó	9	San Antonio Palopo	1	Enero	2023-01-26T00:00:00	2024-11-08T23:00:00	3	Temperatura mínima	18.2
150384	7	Sololá	712	San Antonio Palopó	9	San Antonio Palopo	1	Enero	2023-01-26T00:00:00	2024-11-08T23:00:00	5	Humedad	62
150385	7	Sololá	712	San Antonio Palopó	9	San Antonio Palopo	1	Enero	2023-01-26T00:00:00	2024-11-08T23:00:00	6	Velocidad del viento	8
150386	7	Sololá	712	San Antonio Palopó	9	San Antonio Palopo	1	Enero	2023-01-26T00:00:00	2024-11-08T23:00:00	7	Dirección del viento	8.05
150387	7	Sololá	712	San Antonio Palopó	9	San Antonio Palopo	1	Enero	2023-01-26T00:00:00	2024-11-08T23:00:00	1	Precipitación	0
150388	7	Sololá	712	San Antonio Palopó	9	San Antonio Palopo	1	Enero	2023-01-26T00:00:00	2024-11-08T23:00:00	8	Radiación solar	0
150389	7	Sololá	712	San Antonio Palopó	9	San Antonio Palopo	1	Enero	2023-01-27T00:00:00	2024-11-08T00:00:00	2	Temperatura media	18.5
150390	7	Sololá	712	San Antonio Palopó	9	San Antonio Palopo	1	Enero	2023-01-27T00:00:00	2024-11-08T00:00:00	4	Temperatura máxima	18.6
150391	7	Sololá	712	San Antonio Palopó	9	San Antonio Palopo	1	Enero	2023-01-27T00:00:00	2024-11-08T00:00:00	3	Temperatura mínima	17.7
150392	7	Sololá	712	San Antonio Palopó	9	San Antonio Palopo	1	Enero	2023-01-27T00:00:00	2024-11-08T00:00:00	5	Humedad	62
150393	7	Sololá	712	San Antonio Palopó	9	San Antonio Palopo	1	Enero	2023-01-27T00:00:00	2024-11-08T00:00:00	6	Velocidad del viento	6.4
150394	7	Sololá	712	San Antonio Palopó	9	San Antonio Palopo	1	Enero	2023-01-27T00:00:00	2024-11-08T00:00:00	7	Dirección del viento	6.44
150395	7	Sololá	712	San Antonio Palopó	9	San Antonio Palopo	1	Enero	2023-01-27T00:00:00	2024-11-08T00:00:00	1	Precipitación	0
150396	7	Sololá	712	San Antonio Palopó	9	San Antonio Palopo	1	Enero	2023-01-27T00:00:00	2024-11-08T00:00:00	8	Radiación solar	0
150397	7	Sololá	712	San Antonio Palopó	9	San Antonio Palopo	1	Enero	2023-01-27T00:00:00	2024-11-08T01:00:00	2	Temperatura media	18.6
150398	7	Sololá	712	San Antonio Palopó	9	San Antonio Palopo	1	Enero	2023-01-27T00:00:00	2024-11-08T01:00:00	4	Temperatura máxima	18.6
150399	7	Sololá	712	San Antonio Palopó	9	San Antonio Palopo	1	Enero	2023-01-27T00:00:00	2024-11-08T01:00:00	3	Temperatura mínima	18.3
150400	7	Sololá	712	San Antonio Palopó	9	San Antonio Palopo	1	Enero	2023-01-27T00:00:00	2024-11-08T01:00:00	5	Humedad	64
150401	7	Sololá	712	San Antonio Palopó	9	San Antonio Palopo	1	Enero	2023-01-27T00:00:00	2024-11-08T01:00:00	6	Velocidad del viento	12.9
150402	7	Sololá	712	San Antonio Palopó	9	San Antonio Palopo	1	Enero	2023-01-27T00:00:00	2024-11-08T01:00:00	7	Dirección del viento	12.87
150403	7	Sololá	712	San Antonio Palopó	9	San Antonio Palopo	1	Enero	2023-01-27T00:00:00	2024-11-08T01:00:00	1	Precipitación	0
150404	7	Sololá	712	San Antonio Palopó	9	San Antonio Palopo	1	Enero	2023-01-27T00:00:00	2024-11-08T01:00:00	8	Radiación solar	0
150405	7	Sololá	712	San Antonio Palopó	9	San Antonio Palopo	1	Enero	2023-01-27T00:00:00	2024-11-08T02:00:00	2	Temperatura media	18.8
150406	7	Sololá	712	San Antonio Palopó	9	San Antonio Palopo	1	Enero	2023-01-27T00:00:00	2024-11-08T02:00:00	4	Temperatura máxima	19.2
150407	7	Sololá	712	San Antonio Palopó	9	San Antonio Palopo	1	Enero	2023-01-27T00:00:00	2024-11-08T02:00:00	3	Temperatura mínima	18.6
150408	7	Sololá	712	San Antonio Palopó	9	San Antonio Palopo	1	Enero	2023-01-27T00:00:00	2024-11-08T02:00:00	5	Humedad	64
150409	7	Sololá	712	San Antonio Palopó	9	San Antonio Palopo	1	Enero	2023-01-27T00:00:00	2024-11-08T02:00:00	6	Velocidad del viento	12.9
150410	7	Sololá	712	San Antonio Palopó	9	San Antonio Palopo	1	Enero	2023-01-27T00:00:00	2024-11-08T02:00:00	7	Dirección del viento	12.87
150411	7	Sololá	712	San Antonio Palopó	9	San Antonio Palopo	1	Enero	2023-01-27T00:00:00	2024-11-08T02:00:00	1	Precipitación	0
150412	7	Sololá	712	San Antonio Palopó	9	San Antonio Palopo	1	Enero	2023-01-27T00:00:00	2024-11-08T02:00:00	8	Radiación solar	0
150413	7	Sololá	712	San Antonio Palopó	9	San Antonio Palopo	1	Enero	2023-01-27T00:00:00	2024-11-08T03:00:00	2	Temperatura media	18.6
150414	7	Sololá	712	San Antonio Palopó	9	San Antonio Palopo	1	Enero	2023-01-27T00:00:00	2024-11-08T03:00:00	4	Temperatura máxima	19.2
150415	7	Sololá	712	San Antonio Palopó	9	San Antonio Palopo	1	Enero	2023-01-27T00:00:00	2024-11-08T03:00:00	3	Temperatura mínima	18.4
150416	7	Sololá	712	San Antonio Palopó	9	San Antonio Palopo	1	Enero	2023-01-27T00:00:00	2024-11-08T03:00:00	5	Humedad	66
150417	7	Sololá	712	San Antonio Palopó	9	San Antonio Palopo	1	Enero	2023-01-27T00:00:00	2024-11-08T03:00:00	6	Velocidad del viento	16.1
150418	7	Sololá	712	San Antonio Palopó	9	San Antonio Palopo	1	Enero	2023-01-27T00:00:00	2024-11-08T03:00:00	7	Dirección del viento	16.09
150419	7	Sololá	712	San Antonio Palopó	9	San Antonio Palopo	1	Enero	2023-01-27T00:00:00	2024-11-08T03:00:00	1	Precipitación	0
150420	7	Sololá	712	San Antonio Palopó	9	San Antonio Palopo	1	Enero	2023-01-27T00:00:00	2024-11-08T03:00:00	8	Radiación solar	0
150421	7	Sololá	712	San Antonio Palopó	9	San Antonio Palopo	1	Enero	2023-01-27T00:00:00	2024-11-08T04:00:00	2	Temperatura media	18.7
150422	7	Sololá	712	San Antonio Palopó	9	San Antonio Palopo	1	Enero	2023-01-27T00:00:00	2024-11-08T04:00:00	4	Temperatura máxima	18.8
150423	7	Sololá	712	San Antonio Palopó	9	San Antonio Palopo	1	Enero	2023-01-27T00:00:00	2024-11-08T04:00:00	3	Temperatura mínima	18.5
150424	7	Sololá	712	San Antonio Palopó	9	San Antonio Palopo	1	Enero	2023-01-27T00:00:00	2024-11-08T04:00:00	5	Humedad	66
150425	7	Sololá	712	San Antonio Palopó	9	San Antonio Palopo	1	Enero	2023-01-27T00:00:00	2024-11-08T04:00:00	6	Velocidad del viento	12.9
150426	7	Sololá	712	San Antonio Palopó	9	San Antonio Palopo	1	Enero	2023-01-27T00:00:00	2024-11-08T04:00:00	7	Dirección del viento	12.87
150427	7	Sololá	712	San Antonio Palopó	9	San Antonio Palopo	1	Enero	2023-01-27T00:00:00	2024-11-08T04:00:00	1	Precipitación	0
150428	7	Sololá	712	San Antonio Palopó	9	San Antonio Palopo	1	Enero	2023-01-27T00:00:00	2024-11-08T04:00:00	8	Radiación solar	0
150429	7	Sololá	712	San Antonio Palopó	9	San Antonio Palopo	1	Enero	2023-01-27T00:00:00	2024-11-08T05:00:00	2	Temperatura media	18.6
150430	7	Sololá	712	San Antonio Palopó	9	San Antonio Palopo	1	Enero	2023-01-27T00:00:00	2024-11-08T05:00:00	4	Temperatura máxima	18.7
150431	7	Sololá	712	San Antonio Palopó	9	San Antonio Palopo	1	Enero	2023-01-27T00:00:00	2024-11-08T05:00:00	3	Temperatura mínima	18.2
150432	7	Sololá	712	San Antonio Palopó	9	San Antonio Palopo	1	Enero	2023-01-27T00:00:00	2024-11-08T05:00:00	5	Humedad	65
150433	7	Sololá	712	San Antonio Palopó	9	San Antonio Palopo	1	Enero	2023-01-27T00:00:00	2024-11-08T05:00:00	6	Velocidad del viento	8
150434	7	Sololá	712	San Antonio Palopó	9	San Antonio Palopo	1	Enero	2023-01-27T00:00:00	2024-11-08T05:00:00	7	Dirección del viento	8.05
150435	7	Sololá	712	San Antonio Palopó	9	San Antonio Palopo	1	Enero	2023-01-27T00:00:00	2024-11-08T05:00:00	1	Precipitación	0
150436	7	Sololá	712	San Antonio Palopó	9	San Antonio Palopo	1	Enero	2023-01-27T00:00:00	2024-11-08T05:00:00	8	Radiación solar	0
150437	7	Sololá	712	San Antonio Palopó	9	San Antonio Palopo	1	Enero	2023-01-27T00:00:00	2024-11-08T06:00:00	2	Temperatura media	16.9
150438	7	Sololá	712	San Antonio Palopó	9	San Antonio Palopo	1	Enero	2023-01-27T00:00:00	2024-11-08T06:00:00	4	Temperatura máxima	18.6
150439	7	Sololá	712	San Antonio Palopó	9	San Antonio Palopo	1	Enero	2023-01-27T00:00:00	2024-11-08T06:00:00	3	Temperatura mínima	16.9
150440	7	Sololá	712	San Antonio Palopó	9	San Antonio Palopo	1	Enero	2023-01-27T00:00:00	2024-11-08T06:00:00	5	Humedad	70
150441	7	Sololá	712	San Antonio Palopó	9	San Antonio Palopo	1	Enero	2023-01-27T00:00:00	2024-11-08T06:00:00	6	Velocidad del viento	6.4
150442	7	Sololá	712	San Antonio Palopó	9	San Antonio Palopo	1	Enero	2023-01-27T00:00:00	2024-11-08T06:00:00	7	Dirección del viento	6.44
150443	7	Sololá	712	San Antonio Palopó	9	San Antonio Palopo	1	Enero	2023-01-27T00:00:00	2024-11-08T06:00:00	1	Precipitación	0
150444	7	Sololá	712	San Antonio Palopó	9	San Antonio Palopo	1	Enero	2023-01-27T00:00:00	2024-11-08T06:00:00	8	Radiación solar	0
150445	7	Sololá	712	San Antonio Palopó	9	San Antonio Palopo	1	Enero	2023-01-27T00:00:00	2024-11-08T07:00:00	2	Temperatura media	18.9
150446	7	Sololá	712	San Antonio Palopó	9	San Antonio Palopo	1	Enero	2023-01-27T00:00:00	2024-11-08T07:00:00	4	Temperatura máxima	19.1
150447	7	Sololá	712	San Antonio Palopó	9	San Antonio Palopo	1	Enero	2023-01-27T00:00:00	2024-11-08T07:00:00	3	Temperatura mínima	16.8
150448	7	Sololá	712	San Antonio Palopó	9	San Antonio Palopo	1	Enero	2023-01-27T00:00:00	2024-11-08T07:00:00	5	Humedad	61
150449	7	Sololá	712	San Antonio Palopó	9	San Antonio Palopo	1	Enero	2023-01-27T00:00:00	2024-11-08T07:00:00	6	Velocidad del viento	6.4
150450	7	Sololá	712	San Antonio Palopó	9	San Antonio Palopo	1	Enero	2023-01-27T00:00:00	2024-11-08T07:00:00	7	Dirección del viento	6.44
150451	7	Sololá	712	San Antonio Palopó	9	San Antonio Palopo	1	Enero	2023-01-27T00:00:00	2024-11-08T07:00:00	1	Precipitación	0
150452	7	Sololá	712	San Antonio Palopó	9	San Antonio Palopo	1	Enero	2023-01-27T00:00:00	2024-11-08T07:00:00	8	Radiación solar	4
150453	7	Sololá	712	San Antonio Palopó	9	San Antonio Palopo	1	Enero	2023-01-27T00:00:00	2024-11-08T08:00:00	2	Temperatura media	19
150454	7	Sololá	712	San Antonio Palopó	9	San Antonio Palopo	1	Enero	2023-01-27T00:00:00	2024-11-08T08:00:00	4	Temperatura máxima	19
150455	7	Sololá	712	San Antonio Palopó	9	San Antonio Palopo	1	Enero	2023-01-27T00:00:00	2024-11-08T08:00:00	3	Temperatura mínima	18.5
150456	7	Sololá	712	San Antonio Palopó	9	San Antonio Palopo	1	Enero	2023-01-27T00:00:00	2024-11-08T08:00:00	5	Humedad	63
150457	7	Sololá	712	San Antonio Palopó	9	San Antonio Palopo	1	Enero	2023-01-27T00:00:00	2024-11-08T08:00:00	6	Velocidad del viento	8
150458	7	Sololá	712	San Antonio Palopó	9	San Antonio Palopo	1	Enero	2023-01-27T00:00:00	2024-11-08T08:00:00	7	Dirección del viento	8.05
150459	7	Sololá	712	San Antonio Palopó	9	San Antonio Palopo	1	Enero	2023-01-27T00:00:00	2024-11-08T08:00:00	1	Precipitación	0
150460	7	Sololá	712	San Antonio Palopó	9	San Antonio Palopo	1	Enero	2023-01-27T00:00:00	2024-11-08T08:00:00	8	Radiación solar	24
150461	7	Sololá	712	San Antonio Palopó	9	San Antonio Palopo	1	Enero	2023-01-27T00:00:00	2024-11-08T09:00:00	2	Temperatura media	20.5
150462	7	Sololá	712	San Antonio Palopó	9	San Antonio Palopo	1	Enero	2023-01-27T00:00:00	2024-11-08T09:00:00	4	Temperatura máxima	20.5
150463	7	Sololá	712	San Antonio Palopó	9	San Antonio Palopo	1	Enero	2023-01-27T00:00:00	2024-11-08T09:00:00	3	Temperatura mínima	19
150464	7	Sololá	712	San Antonio Palopó	9	San Antonio Palopo	1	Enero	2023-01-27T00:00:00	2024-11-08T09:00:00	5	Humedad	59
150465	7	Sololá	712	San Antonio Palopó	9	San Antonio Palopo	1	Enero	2023-01-27T00:00:00	2024-11-08T09:00:00	6	Velocidad del viento	12.9
150466	7	Sololá	712	San Antonio Palopó	9	San Antonio Palopo	1	Enero	2023-01-27T00:00:00	2024-11-08T09:00:00	7	Dirección del viento	12.87
150467	7	Sololá	712	San Antonio Palopó	9	San Antonio Palopo	1	Enero	2023-01-27T00:00:00	2024-11-08T09:00:00	1	Precipitación	0
150468	7	Sololá	712	San Antonio Palopó	9	San Antonio Palopo	1	Enero	2023-01-27T00:00:00	2024-11-08T09:00:00	8	Radiación solar	172
150469	7	Sololá	712	San Antonio Palopó	9	San Antonio Palopo	1	Enero	2023-01-27T00:00:00	2024-11-08T10:00:00	2	Temperatura media	20.4
150470	7	Sololá	712	San Antonio Palopó	9	San Antonio Palopo	1	Enero	2023-01-27T00:00:00	2024-11-08T10:00:00	4	Temperatura máxima	20.8
150471	7	Sololá	712	San Antonio Palopó	9	San Antonio Palopo	1	Enero	2023-01-27T00:00:00	2024-11-08T10:00:00	3	Temperatura mínima	20.1
150472	7	Sololá	712	San Antonio Palopó	9	San Antonio Palopo	1	Enero	2023-01-27T00:00:00	2024-11-08T10:00:00	5	Humedad	60
150473	7	Sololá	712	San Antonio Palopó	9	San Antonio Palopo	1	Enero	2023-01-27T00:00:00	2024-11-08T10:00:00	6	Velocidad del viento	17.7
150474	7	Sololá	712	San Antonio Palopó	9	San Antonio Palopo	1	Enero	2023-01-27T00:00:00	2024-11-08T10:00:00	7	Dirección del viento	17.7
150475	7	Sololá	712	San Antonio Palopó	9	San Antonio Palopo	1	Enero	2023-01-27T00:00:00	2024-11-08T10:00:00	1	Precipitación	0
150476	7	Sololá	712	San Antonio Palopó	9	San Antonio Palopo	1	Enero	2023-01-27T00:00:00	2024-11-08T10:00:00	8	Radiación solar	551
150477	7	Sololá	712	San Antonio Palopó	9	San Antonio Palopo	1	Enero	2023-01-27T00:00:00	2024-11-08T11:00:00	2	Temperatura media	21
150478	7	Sololá	712	San Antonio Palopó	9	San Antonio Palopo	1	Enero	2023-01-27T00:00:00	2024-11-08T11:00:00	4	Temperatura máxima	21.2
150479	7	Sololá	712	San Antonio Palopó	9	San Antonio Palopo	1	Enero	2023-01-27T00:00:00	2024-11-08T11:00:00	3	Temperatura mínima	20.1
150480	7	Sololá	712	San Antonio Palopó	9	San Antonio Palopo	1	Enero	2023-01-27T00:00:00	2024-11-08T11:00:00	5	Humedad	60
150481	7	Sololá	712	San Antonio Palopó	9	San Antonio Palopo	1	Enero	2023-01-27T00:00:00	2024-11-08T11:00:00	6	Velocidad del viento	20.9
150482	7	Sololá	712	San Antonio Palopó	9	San Antonio Palopo	1	Enero	2023-01-27T00:00:00	2024-11-08T11:00:00	7	Dirección del viento	20.92
150483	7	Sololá	712	San Antonio Palopó	9	San Antonio Palopo	1	Enero	2023-01-27T00:00:00	2024-11-08T11:00:00	1	Precipitación	0
150484	7	Sololá	712	San Antonio Palopó	9	San Antonio Palopo	1	Enero	2023-01-27T00:00:00	2024-11-08T11:00:00	8	Radiación solar	723
150485	7	Sololá	712	San Antonio Palopó	9	San Antonio Palopo	1	Enero	2023-01-27T00:00:00	2024-11-08T12:00:00	2	Temperatura media	21.3
150486	7	Sololá	712	San Antonio Palopó	9	San Antonio Palopo	1	Enero	2023-01-27T00:00:00	2024-11-08T12:00:00	4	Temperatura máxima	21.7
150487	7	Sololá	712	San Antonio Palopó	9	San Antonio Palopo	1	Enero	2023-01-27T00:00:00	2024-11-08T12:00:00	3	Temperatura mínima	20.9
150488	7	Sololá	712	San Antonio Palopó	9	San Antonio Palopo	1	Enero	2023-01-27T00:00:00	2024-11-08T12:00:00	5	Humedad	60
150489	7	Sololá	712	San Antonio Palopó	9	San Antonio Palopo	1	Enero	2023-01-27T00:00:00	2024-11-08T12:00:00	6	Velocidad del viento	16.1
150490	7	Sololá	712	San Antonio Palopó	9	San Antonio Palopo	1	Enero	2023-01-27T00:00:00	2024-11-08T12:00:00	7	Dirección del viento	16.09
150491	7	Sololá	712	San Antonio Palopó	9	San Antonio Palopo	1	Enero	2023-01-27T00:00:00	2024-11-08T12:00:00	1	Precipitación	0
150492	7	Sololá	712	San Antonio Palopó	9	San Antonio Palopo	1	Enero	2023-01-27T00:00:00	2024-11-08T12:00:00	8	Radiación solar	378
150493	7	Sololá	712	San Antonio Palopó	9	San Antonio Palopo	1	Enero	2023-01-27T00:00:00	2024-11-08T13:00:00	2	Temperatura media	20.9
150494	7	Sololá	712	San Antonio Palopó	9	San Antonio Palopo	1	Enero	2023-01-27T00:00:00	2024-11-08T13:00:00	4	Temperatura máxima	21.4
150495	7	Sololá	712	San Antonio Palopó	9	San Antonio Palopo	1	Enero	2023-01-27T00:00:00	2024-11-08T13:00:00	3	Temperatura mínima	20.9
150496	7	Sololá	712	San Antonio Palopó	9	San Antonio Palopo	1	Enero	2023-01-27T00:00:00	2024-11-08T13:00:00	5	Humedad	61
150497	7	Sololá	712	San Antonio Palopó	9	San Antonio Palopo	1	Enero	2023-01-27T00:00:00	2024-11-08T13:00:00	6	Velocidad del viento	17.7
150498	7	Sololá	712	San Antonio Palopó	9	San Antonio Palopo	1	Enero	2023-01-27T00:00:00	2024-11-08T13:00:00	7	Dirección del viento	17.7
150499	7	Sololá	712	San Antonio Palopó	9	San Antonio Palopo	1	Enero	2023-01-27T00:00:00	2024-11-08T13:00:00	1	Precipitación	0
150500	7	Sololá	712	San Antonio Palopó	9	San Antonio Palopo	1	Enero	2023-01-27T00:00:00	2024-11-08T13:00:00	8	Radiación solar	280
150501	7	Sololá	712	San Antonio Palopó	9	San Antonio Palopo	1	Enero	2023-01-27T00:00:00	2024-11-08T14:00:00	2	Temperatura media	20.6
150502	7	Sololá	712	San Antonio Palopó	9	San Antonio Palopo	1	Enero	2023-01-27T00:00:00	2024-11-08T14:00:00	4	Temperatura máxima	21.3
150503	7	Sololá	712	San Antonio Palopó	9	San Antonio Palopo	1	Enero	2023-01-27T00:00:00	2024-11-08T14:00:00	3	Temperatura mínima	20.6
150504	7	Sololá	712	San Antonio Palopó	9	San Antonio Palopo	1	Enero	2023-01-27T00:00:00	2024-11-08T14:00:00	5	Humedad	63
150505	7	Sololá	712	San Antonio Palopó	9	San Antonio Palopo	1	Enero	2023-01-27T00:00:00	2024-11-08T14:00:00	6	Velocidad del viento	14.5
150506	7	Sololá	712	San Antonio Palopó	9	San Antonio Palopo	1	Enero	2023-01-27T00:00:00	2024-11-08T14:00:00	7	Dirección del viento	14.48
150507	7	Sololá	712	San Antonio Palopó	9	San Antonio Palopo	1	Enero	2023-01-27T00:00:00	2024-11-08T14:00:00	1	Precipitación	0
150508	7	Sololá	712	San Antonio Palopó	9	San Antonio Palopo	1	Enero	2023-01-27T00:00:00	2024-11-08T14:00:00	8	Radiación solar	224
150509	7	Sololá	712	San Antonio Palopó	9	San Antonio Palopo	1	Enero	2023-01-27T00:00:00	2024-11-08T15:00:00	2	Temperatura media	21.2
150510	7	Sololá	712	San Antonio Palopó	9	San Antonio Palopo	1	Enero	2023-01-27T00:00:00	2024-11-08T15:00:00	4	Temperatura máxima	21.2
150511	7	Sololá	712	San Antonio Palopó	9	San Antonio Palopo	1	Enero	2023-01-27T00:00:00	2024-11-08T15:00:00	3	Temperatura mínima	20.6
150512	7	Sololá	712	San Antonio Palopó	9	San Antonio Palopo	1	Enero	2023-01-27T00:00:00	2024-11-08T15:00:00	5	Humedad	60
150513	7	Sololá	712	San Antonio Palopó	9	San Antonio Palopo	1	Enero	2023-01-27T00:00:00	2024-11-08T15:00:00	6	Velocidad del viento	14.5
150514	7	Sololá	712	San Antonio Palopó	9	San Antonio Palopo	1	Enero	2023-01-27T00:00:00	2024-11-08T15:00:00	7	Dirección del viento	14.48
150515	7	Sololá	712	San Antonio Palopó	9	San Antonio Palopo	1	Enero	2023-01-27T00:00:00	2024-11-08T15:00:00	1	Precipitación	0
150516	7	Sololá	712	San Antonio Palopó	9	San Antonio Palopo	1	Enero	2023-01-27T00:00:00	2024-11-08T15:00:00	8	Radiación solar	212
150517	7	Sololá	712	San Antonio Palopó	9	San Antonio Palopo	1	Enero	2023-01-27T00:00:00	2024-11-08T16:00:00	2	Temperatura media	20.6
150518	7	Sololá	712	San Antonio Palopó	9	San Antonio Palopo	1	Enero	2023-01-27T00:00:00	2024-11-08T16:00:00	4	Temperatura máxima	21.2
150519	7	Sololá	712	San Antonio Palopó	9	San Antonio Palopo	1	Enero	2023-01-27T00:00:00	2024-11-08T16:00:00	3	Temperatura mínima	20.5
150520	7	Sololá	712	San Antonio Palopó	9	San Antonio Palopo	1	Enero	2023-01-27T00:00:00	2024-11-08T16:00:00	5	Humedad	63
150521	7	Sololá	712	San Antonio Palopó	9	San Antonio Palopo	1	Enero	2023-01-27T00:00:00	2024-11-08T16:00:00	6	Velocidad del viento	12.9
150522	7	Sololá	712	San Antonio Palopó	9	San Antonio Palopo	1	Enero	2023-01-27T00:00:00	2024-11-08T16:00:00	7	Dirección del viento	12.87
150523	7	Sololá	712	San Antonio Palopó	9	San Antonio Palopo	1	Enero	2023-01-27T00:00:00	2024-11-08T16:00:00	1	Precipitación	0
150524	7	Sololá	712	San Antonio Palopó	9	San Antonio Palopo	1	Enero	2023-01-27T00:00:00	2024-11-08T16:00:00	8	Radiación solar	191
150525	7	Sololá	712	San Antonio Palopó	9	San Antonio Palopo	1	Enero	2023-01-27T00:00:00	2024-11-08T17:00:00	2	Temperatura media	21.6
150526	7	Sololá	712	San Antonio Palopó	9	San Antonio Palopo	1	Enero	2023-01-27T00:00:00	2024-11-08T17:00:00	4	Temperatura máxima	22.4
150527	7	Sololá	712	San Antonio Palopó	9	San Antonio Palopo	1	Enero	2023-01-27T00:00:00	2024-11-08T17:00:00	3	Temperatura mínima	20.6
150528	7	Sololá	712	San Antonio Palopó	9	San Antonio Palopo	1	Enero	2023-01-27T00:00:00	2024-11-08T17:00:00	5	Humedad	60
150529	7	Sololá	712	San Antonio Palopó	9	San Antonio Palopo	1	Enero	2023-01-27T00:00:00	2024-11-08T17:00:00	6	Velocidad del viento	6.4
150530	7	Sololá	712	San Antonio Palopó	9	San Antonio Palopo	1	Enero	2023-01-27T00:00:00	2024-11-08T17:00:00	7	Dirección del viento	6.44
150531	7	Sololá	712	San Antonio Palopó	9	San Antonio Palopo	1	Enero	2023-01-27T00:00:00	2024-11-08T17:00:00	1	Precipitación	0
150532	7	Sololá	712	San Antonio Palopó	9	San Antonio Palopo	1	Enero	2023-01-27T00:00:00	2024-11-08T17:00:00	8	Radiación solar	167
150533	7	Sololá	712	San Antonio Palopó	9	San Antonio Palopo	1	Enero	2023-01-27T00:00:00	2024-11-08T18:00:00	2	Temperatura media	19.4
150534	7	Sololá	712	San Antonio Palopó	9	San Antonio Palopo	1	Enero	2023-01-27T00:00:00	2024-11-08T18:00:00	4	Temperatura máxima	21.6
150535	7	Sololá	712	San Antonio Palopó	9	San Antonio Palopo	1	Enero	2023-01-27T00:00:00	2024-11-08T18:00:00	3	Temperatura mínima	19.4
150536	7	Sololá	712	San Antonio Palopó	9	San Antonio Palopo	1	Enero	2023-01-27T00:00:00	2024-11-08T18:00:00	5	Humedad	66
150537	7	Sololá	712	San Antonio Palopó	9	San Antonio Palopo	1	Enero	2023-01-27T00:00:00	2024-11-08T18:00:00	6	Velocidad del viento	9.7
150538	7	Sololá	712	San Antonio Palopó	9	San Antonio Palopo	1	Enero	2023-01-27T00:00:00	2024-11-08T18:00:00	7	Dirección del viento	9.66
150539	7	Sololá	712	San Antonio Palopó	9	San Antonio Palopo	1	Enero	2023-01-27T00:00:00	2024-11-08T18:00:00	1	Precipitación	0
150540	7	Sololá	712	San Antonio Palopó	9	San Antonio Palopo	1	Enero	2023-01-27T00:00:00	2024-11-08T18:00:00	8	Radiación solar	27
150541	7	Sololá	712	San Antonio Palopó	9	San Antonio Palopo	1	Enero	2023-01-27T00:00:00	2024-11-08T19:00:00	2	Temperatura media	18.3
150542	7	Sololá	712	San Antonio Palopó	9	San Antonio Palopo	1	Enero	2023-01-27T00:00:00	2024-11-08T19:00:00	4	Temperatura máxima	19.5
150543	7	Sololá	712	San Antonio Palopó	9	San Antonio Palopo	1	Enero	2023-01-27T00:00:00	2024-11-08T19:00:00	3	Temperatura mínima	18.2
150544	7	Sololá	712	San Antonio Palopó	9	San Antonio Palopo	1	Enero	2023-01-27T00:00:00	2024-11-08T19:00:00	5	Humedad	71
150545	7	Sololá	712	San Antonio Palopó	9	San Antonio Palopo	1	Enero	2023-01-27T00:00:00	2024-11-08T19:00:00	6	Velocidad del viento	9.7
150546	7	Sololá	712	San Antonio Palopó	9	San Antonio Palopo	1	Enero	2023-01-27T00:00:00	2024-11-08T19:00:00	7	Dirección del viento	9.66
150547	7	Sololá	712	San Antonio Palopó	9	San Antonio Palopo	1	Enero	2023-01-27T00:00:00	2024-11-08T19:00:00	1	Precipitación	0
150548	7	Sololá	712	San Antonio Palopó	9	San Antonio Palopo	1	Enero	2023-01-27T00:00:00	2024-11-08T19:00:00	8	Radiación solar	0
150549	7	Sololá	712	San Antonio Palopó	9	San Antonio Palopo	1	Enero	2023-01-27T00:00:00	2024-11-08T20:00:00	2	Temperatura media	17.8
150550	7	Sololá	712	San Antonio Palopó	9	San Antonio Palopo	1	Enero	2023-01-27T00:00:00	2024-11-08T20:00:00	4	Temperatura máxima	18.3
150551	7	Sololá	712	San Antonio Palopó	9	San Antonio Palopo	1	Enero	2023-01-27T00:00:00	2024-11-08T20:00:00	3	Temperatura mínima	17.8
150552	7	Sololá	712	San Antonio Palopó	9	San Antonio Palopo	1	Enero	2023-01-27T00:00:00	2024-11-08T20:00:00	5	Humedad	73
150553	7	Sololá	712	San Antonio Palopó	9	San Antonio Palopo	1	Enero	2023-01-27T00:00:00	2024-11-08T20:00:00	6	Velocidad del viento	6.4
150554	7	Sololá	712	San Antonio Palopó	9	San Antonio Palopo	1	Enero	2023-01-27T00:00:00	2024-11-08T20:00:00	7	Dirección del viento	6.44
150555	7	Sololá	712	San Antonio Palopó	9	San Antonio Palopo	1	Enero	2023-01-27T00:00:00	2024-11-08T20:00:00	1	Precipitación	0
150556	7	Sololá	712	San Antonio Palopó	9	San Antonio Palopo	1	Enero	2023-01-27T00:00:00	2024-11-08T20:00:00	8	Radiación solar	0
150557	7	Sololá	712	San Antonio Palopó	9	San Antonio Palopo	1	Enero	2023-01-27T00:00:00	2024-11-08T21:00:00	2	Temperatura media	17.3
150558	7	Sololá	712	San Antonio Palopó	9	San Antonio Palopo	1	Enero	2023-01-27T00:00:00	2024-11-08T21:00:00	4	Temperatura máxima	17.8
150559	7	Sololá	712	San Antonio Palopó	9	San Antonio Palopo	1	Enero	2023-01-27T00:00:00	2024-11-08T21:00:00	3	Temperatura mínima	17.3
150560	7	Sololá	712	San Antonio Palopó	9	San Antonio Palopo	1	Enero	2023-01-27T00:00:00	2024-11-08T21:00:00	5	Humedad	73
150561	7	Sololá	712	San Antonio Palopó	9	San Antonio Palopo	1	Enero	2023-01-27T00:00:00	2024-11-08T21:00:00	6	Velocidad del viento	8
150562	7	Sololá	712	San Antonio Palopó	9	San Antonio Palopo	1	Enero	2023-01-27T00:00:00	2024-11-08T21:00:00	7	Dirección del viento	8.05
150563	7	Sololá	712	San Antonio Palopó	9	San Antonio Palopo	1	Enero	2023-01-27T00:00:00	2024-11-08T21:00:00	1	Precipitación	0
150564	7	Sololá	712	San Antonio Palopó	9	San Antonio Palopo	1	Enero	2023-01-27T00:00:00	2024-11-08T21:00:00	8	Radiación solar	0
150565	7	Sololá	712	San Antonio Palopó	9	San Antonio Palopo	1	Enero	2023-01-27T00:00:00	2024-11-08T22:00:00	2	Temperatura media	17.7
150566	7	Sololá	712	San Antonio Palopó	9	San Antonio Palopo	1	Enero	2023-01-27T00:00:00	2024-11-08T22:00:00	4	Temperatura máxima	17.8
150567	7	Sololá	712	San Antonio Palopó	9	San Antonio Palopo	1	Enero	2023-01-27T00:00:00	2024-11-08T22:00:00	3	Temperatura mínima	17.3
150568	7	Sololá	712	San Antonio Palopó	9	San Antonio Palopo	1	Enero	2023-01-27T00:00:00	2024-11-08T22:00:00	5	Humedad	64
150569	7	Sololá	712	San Antonio Palopó	9	San Antonio Palopo	1	Enero	2023-01-27T00:00:00	2024-11-08T22:00:00	6	Velocidad del viento	6.4
150570	7	Sololá	712	San Antonio Palopó	9	San Antonio Palopo	1	Enero	2023-01-27T00:00:00	2024-11-08T22:00:00	7	Dirección del viento	6.44
150571	7	Sololá	712	San Antonio Palopó	9	San Antonio Palopo	1	Enero	2023-01-27T00:00:00	2024-11-08T22:00:00	1	Precipitación	0
150572	7	Sololá	712	San Antonio Palopó	9	San Antonio Palopo	1	Enero	2023-01-27T00:00:00	2024-11-08T22:00:00	8	Radiación solar	0
150573	7	Sololá	712	San Antonio Palopó	9	San Antonio Palopo	1	Enero	2023-01-27T00:00:00	2024-11-08T23:00:00	2	Temperatura media	17.7
150574	7	Sololá	712	San Antonio Palopó	9	San Antonio Palopo	1	Enero	2023-01-27T00:00:00	2024-11-08T23:00:00	4	Temperatura máxima	17.9
150575	7	Sololá	712	San Antonio Palopó	9	San Antonio Palopo	1	Enero	2023-01-27T00:00:00	2024-11-08T23:00:00	3	Temperatura mínima	17.1
150576	7	Sololá	712	San Antonio Palopó	9	San Antonio Palopo	1	Enero	2023-01-27T00:00:00	2024-11-08T23:00:00	5	Humedad	48
150577	7	Sololá	712	San Antonio Palopó	9	San Antonio Palopo	1	Enero	2023-01-27T00:00:00	2024-11-08T23:00:00	6	Velocidad del viento	6.4
150578	7	Sololá	712	San Antonio Palopó	9	San Antonio Palopo	1	Enero	2023-01-27T00:00:00	2024-11-08T23:00:00	7	Dirección del viento	6.44
150579	7	Sololá	712	San Antonio Palopó	9	San Antonio Palopo	1	Enero	2023-01-27T00:00:00	2024-11-08T23:00:00	1	Precipitación	0
150580	7	Sololá	712	San Antonio Palopó	9	San Antonio Palopo	1	Enero	2023-01-27T00:00:00	2024-11-08T23:00:00	8	Radiación solar	0
150581	7	Sololá	712	San Antonio Palopó	9	San Antonio Palopo	1	Enero	2023-01-28T00:00:00	2024-11-08T00:00:00	2	Temperatura media	15.9
150582	7	Sololá	712	San Antonio Palopó	9	San Antonio Palopo	1	Enero	2023-01-28T00:00:00	2024-11-08T00:00:00	4	Temperatura máxima	17.7
150583	7	Sololá	712	San Antonio Palopó	9	San Antonio Palopo	1	Enero	2023-01-28T00:00:00	2024-11-08T00:00:00	3	Temperatura mínima	15.9
150584	7	Sololá	712	San Antonio Palopó	9	San Antonio Palopo	1	Enero	2023-01-28T00:00:00	2024-11-08T00:00:00	5	Humedad	60
150585	7	Sololá	712	San Antonio Palopó	9	San Antonio Palopo	1	Enero	2023-01-28T00:00:00	2024-11-08T00:00:00	6	Velocidad del viento	17.7
150586	7	Sololá	712	San Antonio Palopó	9	San Antonio Palopo	1	Enero	2023-01-28T00:00:00	2024-11-08T00:00:00	7	Dirección del viento	17.7
150587	7	Sololá	712	San Antonio Palopó	9	San Antonio Palopo	1	Enero	2023-01-28T00:00:00	2024-11-08T00:00:00	1	Precipitación	0
150588	7	Sololá	712	San Antonio Palopó	9	San Antonio Palopo	1	Enero	2023-01-28T00:00:00	2024-11-08T00:00:00	8	Radiación solar	0
150589	7	Sololá	712	San Antonio Palopó	9	San Antonio Palopo	1	Enero	2023-01-28T00:00:00	2024-11-08T01:00:00	2	Temperatura media	15.6
150590	7	Sololá	712	San Antonio Palopó	9	San Antonio Palopo	1	Enero	2023-01-28T00:00:00	2024-11-08T01:00:00	4	Temperatura máxima	15.9
150591	7	Sololá	712	San Antonio Palopó	9	San Antonio Palopo	1	Enero	2023-01-28T00:00:00	2024-11-08T01:00:00	3	Temperatura mínima	15.3
150592	7	Sololá	712	San Antonio Palopó	9	San Antonio Palopo	1	Enero	2023-01-28T00:00:00	2024-11-08T01:00:00	5	Humedad	56
150593	7	Sololá	712	San Antonio Palopó	9	San Antonio Palopo	1	Enero	2023-01-28T00:00:00	2024-11-08T01:00:00	6	Velocidad del viento	17.7
150594	7	Sololá	712	San Antonio Palopó	9	San Antonio Palopo	1	Enero	2023-01-28T00:00:00	2024-11-08T01:00:00	7	Dirección del viento	17.7
150595	7	Sololá	712	San Antonio Palopó	9	San Antonio Palopo	1	Enero	2023-01-28T00:00:00	2024-11-08T01:00:00	1	Precipitación	0
150596	7	Sololá	712	San Antonio Palopó	9	San Antonio Palopo	1	Enero	2023-01-28T00:00:00	2024-11-08T01:00:00	8	Radiación solar	0
150597	7	Sololá	712	San Antonio Palopó	9	San Antonio Palopo	1	Enero	2023-01-28T00:00:00	2024-11-08T02:00:00	2	Temperatura media	16.4
150598	7	Sololá	712	San Antonio Palopó	9	San Antonio Palopo	1	Enero	2023-01-28T00:00:00	2024-11-08T02:00:00	4	Temperatura máxima	16.6
150599	7	Sololá	712	San Antonio Palopó	9	San Antonio Palopo	1	Enero	2023-01-28T00:00:00	2024-11-08T02:00:00	3	Temperatura mínima	15.6
150600	7	Sololá	712	San Antonio Palopó	9	San Antonio Palopo	1	Enero	2023-01-28T00:00:00	2024-11-08T02:00:00	5	Humedad	53
150601	7	Sololá	712	San Antonio Palopó	9	San Antonio Palopo	1	Enero	2023-01-28T00:00:00	2024-11-08T02:00:00	6	Velocidad del viento	20.9
150602	7	Sololá	712	San Antonio Palopó	9	San Antonio Palopo	1	Enero	2023-01-28T00:00:00	2024-11-08T02:00:00	7	Dirección del viento	20.92
150603	7	Sololá	712	San Antonio Palopó	9	San Antonio Palopo	1	Enero	2023-01-28T00:00:00	2024-11-08T02:00:00	1	Precipitación	0
150604	7	Sololá	712	San Antonio Palopó	9	San Antonio Palopo	1	Enero	2023-01-28T00:00:00	2024-11-08T02:00:00	8	Radiación solar	0
150605	7	Sololá	712	San Antonio Palopó	9	San Antonio Palopo	1	Enero	2023-01-28T00:00:00	2024-11-08T03:00:00	2	Temperatura media	15.9
150606	7	Sololá	712	San Antonio Palopó	9	San Antonio Palopo	1	Enero	2023-01-28T00:00:00	2024-11-08T03:00:00	4	Temperatura máxima	16.5
150607	7	Sololá	712	San Antonio Palopó	9	San Antonio Palopo	1	Enero	2023-01-28T00:00:00	2024-11-08T03:00:00	3	Temperatura mínima	15.8
150608	7	Sololá	712	San Antonio Palopó	9	San Antonio Palopo	1	Enero	2023-01-28T00:00:00	2024-11-08T03:00:00	5	Humedad	55
150609	7	Sololá	712	San Antonio Palopó	9	San Antonio Palopo	1	Enero	2023-01-28T00:00:00	2024-11-08T03:00:00	6	Velocidad del viento	17.7
150610	7	Sololá	712	San Antonio Palopó	9	San Antonio Palopo	1	Enero	2023-01-28T00:00:00	2024-11-08T03:00:00	7	Dirección del viento	17.7
150611	7	Sololá	712	San Antonio Palopó	9	San Antonio Palopo	1	Enero	2023-01-28T00:00:00	2024-11-08T03:00:00	1	Precipitación	0
150612	7	Sololá	712	San Antonio Palopó	9	San Antonio Palopo	1	Enero	2023-01-28T00:00:00	2024-11-08T03:00:00	8	Radiación solar	0
150613	7	Sololá	712	San Antonio Palopó	9	San Antonio Palopo	1	Enero	2023-01-28T00:00:00	2024-11-08T04:00:00	2	Temperatura media	17.1
150614	7	Sololá	712	San Antonio Palopó	9	San Antonio Palopo	1	Enero	2023-01-28T00:00:00	2024-11-08T04:00:00	4	Temperatura máxima	17.1
150615	7	Sololá	712	San Antonio Palopó	9	San Antonio Palopo	1	Enero	2023-01-28T00:00:00	2024-11-08T04:00:00	3	Temperatura mínima	15.9
150616	7	Sololá	712	San Antonio Palopó	9	San Antonio Palopo	1	Enero	2023-01-28T00:00:00	2024-11-08T04:00:00	5	Humedad	62
150617	7	Sololá	712	San Antonio Palopó	9	San Antonio Palopo	1	Enero	2023-01-28T00:00:00	2024-11-08T04:00:00	6	Velocidad del viento	11.3
150618	7	Sololá	712	San Antonio Palopó	9	San Antonio Palopo	1	Enero	2023-01-28T00:00:00	2024-11-08T04:00:00	7	Dirección del viento	11.27
150619	7	Sololá	712	San Antonio Palopó	9	San Antonio Palopo	1	Enero	2023-01-28T00:00:00	2024-11-08T04:00:00	1	Precipitación	0
150620	7	Sololá	712	San Antonio Palopó	9	San Antonio Palopo	1	Enero	2023-01-28T00:00:00	2024-11-08T04:00:00	8	Radiación solar	0
150621	7	Sololá	712	San Antonio Palopó	9	San Antonio Palopo	1	Enero	2023-01-28T00:00:00	2024-11-08T05:00:00	2	Temperatura media	17.1
150622	7	Sololá	712	San Antonio Palopó	9	San Antonio Palopo	1	Enero	2023-01-28T00:00:00	2024-11-08T05:00:00	4	Temperatura máxima	17.3
150623	7	Sololá	712	San Antonio Palopó	9	San Antonio Palopo	1	Enero	2023-01-28T00:00:00	2024-11-08T05:00:00	3	Temperatura mínima	16.9
150624	7	Sololá	712	San Antonio Palopó	9	San Antonio Palopo	1	Enero	2023-01-28T00:00:00	2024-11-08T05:00:00	5	Humedad	67
150625	7	Sololá	712	San Antonio Palopó	9	San Antonio Palopo	1	Enero	2023-01-28T00:00:00	2024-11-08T05:00:00	6	Velocidad del viento	22.5
150626	7	Sololá	712	San Antonio Palopó	9	San Antonio Palopo	1	Enero	2023-01-28T00:00:00	2024-11-08T05:00:00	7	Dirección del viento	22.53
150627	7	Sololá	712	San Antonio Palopó	9	San Antonio Palopo	1	Enero	2023-01-28T00:00:00	2024-11-08T05:00:00	1	Precipitación	0
150628	7	Sololá	712	San Antonio Palopó	9	San Antonio Palopo	1	Enero	2023-01-28T00:00:00	2024-11-08T05:00:00	8	Radiación solar	0
150629	7	Sololá	712	San Antonio Palopó	9	San Antonio Palopo	1	Enero	2023-01-28T00:00:00	2024-11-08T06:00:00	2	Temperatura media	17.3
150630	7	Sololá	712	San Antonio Palopó	9	San Antonio Palopo	1	Enero	2023-01-28T00:00:00	2024-11-08T06:00:00	4	Temperatura máxima	17.4
150631	7	Sololá	712	San Antonio Palopó	9	San Antonio Palopo	1	Enero	2023-01-28T00:00:00	2024-11-08T06:00:00	3	Temperatura mínima	17
150632	7	Sololá	712	San Antonio Palopó	9	San Antonio Palopo	1	Enero	2023-01-28T00:00:00	2024-11-08T06:00:00	5	Humedad	67
150633	7	Sololá	712	San Antonio Palopó	9	San Antonio Palopo	1	Enero	2023-01-28T00:00:00	2024-11-08T06:00:00	6	Velocidad del viento	27.4
150634	7	Sololá	712	San Antonio Palopó	9	San Antonio Palopo	1	Enero	2023-01-28T00:00:00	2024-11-08T06:00:00	7	Dirección del viento	27.36
150635	7	Sololá	712	San Antonio Palopó	9	San Antonio Palopo	1	Enero	2023-01-28T00:00:00	2024-11-08T06:00:00	1	Precipitación	0
150636	7	Sololá	712	San Antonio Palopó	9	San Antonio Palopo	1	Enero	2023-01-28T00:00:00	2024-11-08T06:00:00	8	Radiación solar	0
150637	7	Sololá	712	San Antonio Palopó	9	San Antonio Palopo	1	Enero	2023-01-28T00:00:00	2024-11-08T07:00:00	2	Temperatura media	17.7
150638	7	Sololá	712	San Antonio Palopó	9	San Antonio Palopo	1	Enero	2023-01-28T00:00:00	2024-11-08T07:00:00	4	Temperatura máxima	17.7
150639	7	Sololá	712	San Antonio Palopó	9	San Antonio Palopo	1	Enero	2023-01-28T00:00:00	2024-11-08T07:00:00	3	Temperatura mínima	17.3
150640	7	Sololá	712	San Antonio Palopó	9	San Antonio Palopo	1	Enero	2023-01-28T00:00:00	2024-11-08T07:00:00	5	Humedad	68
150641	7	Sololá	712	San Antonio Palopó	9	San Antonio Palopo	1	Enero	2023-01-28T00:00:00	2024-11-08T07:00:00	6	Velocidad del viento	20.9
150642	7	Sololá	712	San Antonio Palopó	9	San Antonio Palopo	1	Enero	2023-01-28T00:00:00	2024-11-08T07:00:00	7	Dirección del viento	20.92
150643	7	Sololá	712	San Antonio Palopó	9	San Antonio Palopo	1	Enero	2023-01-28T00:00:00	2024-11-08T07:00:00	1	Precipitación	0
150644	7	Sololá	712	San Antonio Palopó	9	San Antonio Palopo	1	Enero	2023-01-28T00:00:00	2024-11-08T07:00:00	8	Radiación solar	3
150645	7	Sololá	712	San Antonio Palopó	9	San Antonio Palopo	1	Enero	2023-01-28T00:00:00	2024-11-08T08:00:00	2	Temperatura media	17.8
150646	7	Sololá	712	San Antonio Palopó	9	San Antonio Palopo	1	Enero	2023-01-28T00:00:00	2024-11-08T08:00:00	4	Temperatura máxima	17.9
150647	7	Sololá	712	San Antonio Palopó	9	San Antonio Palopo	1	Enero	2023-01-28T00:00:00	2024-11-08T08:00:00	3	Temperatura mínima	17.6
150648	7	Sololá	712	San Antonio Palopó	9	San Antonio Palopo	1	Enero	2023-01-28T00:00:00	2024-11-08T08:00:00	5	Humedad	68
150649	7	Sololá	712	San Antonio Palopó	9	San Antonio Palopo	1	Enero	2023-01-28T00:00:00	2024-11-08T08:00:00	6	Velocidad del viento	16.1
150650	7	Sololá	712	San Antonio Palopó	9	San Antonio Palopo	1	Enero	2023-01-28T00:00:00	2024-11-08T08:00:00	7	Dirección del viento	16.09
150651	7	Sololá	712	San Antonio Palopó	9	San Antonio Palopo	1	Enero	2023-01-28T00:00:00	2024-11-08T08:00:00	1	Precipitación	0
150652	7	Sololá	712	San Antonio Palopó	9	San Antonio Palopo	1	Enero	2023-01-28T00:00:00	2024-11-08T08:00:00	8	Radiación solar	17
150653	7	Sololá	712	San Antonio Palopó	9	San Antonio Palopo	1	Enero	2023-01-28T00:00:00	2024-11-08T09:00:00	2	Temperatura media	19.3
150654	7	Sololá	712	San Antonio Palopó	9	San Antonio Palopo	1	Enero	2023-01-28T00:00:00	2024-11-08T09:00:00	4	Temperatura máxima	19.3
150655	7	Sololá	712	San Antonio Palopó	9	San Antonio Palopo	1	Enero	2023-01-28T00:00:00	2024-11-08T09:00:00	3	Temperatura mínima	17.8
150656	7	Sololá	712	San Antonio Palopó	9	San Antonio Palopo	1	Enero	2023-01-28T00:00:00	2024-11-08T09:00:00	5	Humedad	56
150657	7	Sololá	712	San Antonio Palopó	9	San Antonio Palopo	1	Enero	2023-01-28T00:00:00	2024-11-08T09:00:00	6	Velocidad del viento	14.5
150658	7	Sololá	712	San Antonio Palopó	9	San Antonio Palopo	1	Enero	2023-01-28T00:00:00	2024-11-08T09:00:00	7	Dirección del viento	14.48
150659	7	Sololá	712	San Antonio Palopó	9	San Antonio Palopo	1	Enero	2023-01-28T00:00:00	2024-11-08T09:00:00	1	Precipitación	0
150660	7	Sololá	712	San Antonio Palopó	9	San Antonio Palopo	1	Enero	2023-01-28T00:00:00	2024-11-08T09:00:00	8	Radiación solar	167
150661	7	Sololá	712	San Antonio Palopó	9	San Antonio Palopo	1	Enero	2023-01-28T00:00:00	2024-11-08T10:00:00	2	Temperatura media	21.2
150662	7	Sololá	712	San Antonio Palopó	9	San Antonio Palopo	1	Enero	2023-01-28T00:00:00	2024-11-08T10:00:00	4	Temperatura máxima	21.2
150663	7	Sololá	712	San Antonio Palopó	9	San Antonio Palopo	1	Enero	2023-01-28T00:00:00	2024-11-08T10:00:00	3	Temperatura mínima	19.3
150664	7	Sololá	712	San Antonio Palopó	9	San Antonio Palopo	1	Enero	2023-01-28T00:00:00	2024-11-08T10:00:00	5	Humedad	36
150665	7	Sololá	712	San Antonio Palopó	9	San Antonio Palopo	1	Enero	2023-01-28T00:00:00	2024-11-08T10:00:00	6	Velocidad del viento	12.9
150666	7	Sololá	712	San Antonio Palopó	9	San Antonio Palopo	1	Enero	2023-01-28T00:00:00	2024-11-08T10:00:00	7	Dirección del viento	12.87
150667	7	Sololá	712	San Antonio Palopó	9	San Antonio Palopo	1	Enero	2023-01-28T00:00:00	2024-11-08T10:00:00	1	Precipitación	0
150668	7	Sololá	712	San Antonio Palopó	9	San Antonio Palopo	1	Enero	2023-01-28T00:00:00	2024-11-08T10:00:00	8	Radiación solar	564
150669	7	Sololá	712	San Antonio Palopó	9	San Antonio Palopo	1	Enero	2023-01-28T00:00:00	2024-11-08T11:00:00	2	Temperatura media	22.1
150670	7	Sololá	712	San Antonio Palopó	9	San Antonio Palopo	1	Enero	2023-01-28T00:00:00	2024-11-08T11:00:00	4	Temperatura máxima	22.2
150671	7	Sololá	712	San Antonio Palopó	9	San Antonio Palopo	1	Enero	2023-01-28T00:00:00	2024-11-08T11:00:00	3	Temperatura mínima	21.2
150672	7	Sololá	712	San Antonio Palopó	9	San Antonio Palopo	1	Enero	2023-01-28T00:00:00	2024-11-08T11:00:00	5	Humedad	34
150673	7	Sololá	712	San Antonio Palopó	9	San Antonio Palopo	1	Enero	2023-01-28T00:00:00	2024-11-08T11:00:00	6	Velocidad del viento	16.1
150674	7	Sololá	712	San Antonio Palopó	9	San Antonio Palopo	1	Enero	2023-01-28T00:00:00	2024-11-08T11:00:00	7	Dirección del viento	16.09
150675	7	Sololá	712	San Antonio Palopó	9	San Antonio Palopo	1	Enero	2023-01-28T00:00:00	2024-11-08T11:00:00	1	Precipitación	0
150676	7	Sololá	712	San Antonio Palopó	9	San Antonio Palopo	1	Enero	2023-01-28T00:00:00	2024-11-08T11:00:00	8	Radiación solar	718
150677	7	Sololá	712	San Antonio Palopó	9	San Antonio Palopo	1	Enero	2023-01-28T00:00:00	2024-11-08T12:00:00	2	Temperatura media	23.5
150678	7	Sololá	712	San Antonio Palopó	9	San Antonio Palopo	1	Enero	2023-01-28T00:00:00	2024-11-08T12:00:00	4	Temperatura máxima	23.6
150679	7	Sololá	712	San Antonio Palopó	9	San Antonio Palopo	1	Enero	2023-01-28T00:00:00	2024-11-08T12:00:00	3	Temperatura mínima	22.1
150680	7	Sololá	712	San Antonio Palopó	9	San Antonio Palopo	1	Enero	2023-01-28T00:00:00	2024-11-08T12:00:00	5	Humedad	31
150681	7	Sololá	712	San Antonio Palopó	9	San Antonio Palopo	1	Enero	2023-01-28T00:00:00	2024-11-08T12:00:00	6	Velocidad del viento	16.1
150682	7	Sololá	712	San Antonio Palopó	9	San Antonio Palopo	1	Enero	2023-01-28T00:00:00	2024-11-08T12:00:00	7	Dirección del viento	16.09
150683	7	Sololá	712	San Antonio Palopó	9	San Antonio Palopo	1	Enero	2023-01-28T00:00:00	2024-11-08T12:00:00	1	Precipitación	0
150684	7	Sololá	712	San Antonio Palopó	9	San Antonio Palopo	1	Enero	2023-01-28T00:00:00	2024-11-08T12:00:00	8	Radiación solar	707
150685	7	Sololá	712	San Antonio Palopó	9	San Antonio Palopo	1	Enero	2023-01-28T00:00:00	2024-11-08T13:00:00	2	Temperatura media	23.8
150686	7	Sololá	712	San Antonio Palopó	9	San Antonio Palopo	1	Enero	2023-01-28T00:00:00	2024-11-08T13:00:00	4	Temperatura máxima	24.3
150687	7	Sololá	712	San Antonio Palopó	9	San Antonio Palopo	1	Enero	2023-01-28T00:00:00	2024-11-08T13:00:00	3	Temperatura mínima	23.4
150688	7	Sololá	712	San Antonio Palopó	9	San Antonio Palopo	1	Enero	2023-01-28T00:00:00	2024-11-08T13:00:00	5	Humedad	29
150689	7	Sololá	712	San Antonio Palopó	9	San Antonio Palopo	1	Enero	2023-01-28T00:00:00	2024-11-08T13:00:00	6	Velocidad del viento	17.7
150690	7	Sololá	712	San Antonio Palopó	9	San Antonio Palopo	1	Enero	2023-01-28T00:00:00	2024-11-08T13:00:00	7	Dirección del viento	17.7
150691	7	Sololá	712	San Antonio Palopó	9	San Antonio Palopo	1	Enero	2023-01-28T00:00:00	2024-11-08T13:00:00	1	Precipitación	0
150692	7	Sololá	712	San Antonio Palopó	9	San Antonio Palopo	1	Enero	2023-01-28T00:00:00	2024-11-08T13:00:00	8	Radiación solar	819
150693	7	Sololá	712	San Antonio Palopó	9	San Antonio Palopo	1	Enero	2023-01-28T00:00:00	2024-11-08T14:00:00	2	Temperatura media	25.3
150694	7	Sololá	712	San Antonio Palopó	9	San Antonio Palopo	1	Enero	2023-01-28T00:00:00	2024-11-08T14:00:00	4	Temperatura máxima	25.4
150695	7	Sololá	712	San Antonio Palopó	9	San Antonio Palopo	1	Enero	2023-01-28T00:00:00	2024-11-08T14:00:00	3	Temperatura mínima	23.7
150696	7	Sololá	712	San Antonio Palopó	9	San Antonio Palopo	1	Enero	2023-01-28T00:00:00	2024-11-08T14:00:00	5	Humedad	25
150697	7	Sololá	712	San Antonio Palopó	9	San Antonio Palopo	1	Enero	2023-01-28T00:00:00	2024-11-08T14:00:00	6	Velocidad del viento	12.9
150698	7	Sololá	712	San Antonio Palopó	9	San Antonio Palopo	1	Enero	2023-01-28T00:00:00	2024-11-08T14:00:00	7	Dirección del viento	12.87
150699	7	Sololá	712	San Antonio Palopó	9	San Antonio Palopo	1	Enero	2023-01-28T00:00:00	2024-11-08T14:00:00	1	Precipitación	0
150700	7	Sololá	712	San Antonio Palopó	9	San Antonio Palopo	1	Enero	2023-01-28T00:00:00	2024-11-08T14:00:00	8	Radiación solar	765
150701	7	Sololá	712	San Antonio Palopó	9	San Antonio Palopo	1	Enero	2023-01-28T00:00:00	2024-11-08T15:00:00	2	Temperatura media	25.4
150702	7	Sololá	712	San Antonio Palopó	9	San Antonio Palopo	1	Enero	2023-01-28T00:00:00	2024-11-08T15:00:00	4	Temperatura máxima	25.8
150703	7	Sololá	712	San Antonio Palopó	9	San Antonio Palopo	1	Enero	2023-01-28T00:00:00	2024-11-08T15:00:00	3	Temperatura mínima	25.1
150704	7	Sololá	712	San Antonio Palopó	9	San Antonio Palopo	1	Enero	2023-01-28T00:00:00	2024-11-08T15:00:00	5	Humedad	25
150705	7	Sololá	712	San Antonio Palopó	9	San Antonio Palopo	1	Enero	2023-01-28T00:00:00	2024-11-08T15:00:00	6	Velocidad del viento	9.7
150706	7	Sololá	712	San Antonio Palopó	9	San Antonio Palopo	1	Enero	2023-01-28T00:00:00	2024-11-08T15:00:00	7	Dirección del viento	9.66
150707	7	Sololá	712	San Antonio Palopó	9	San Antonio Palopo	1	Enero	2023-01-28T00:00:00	2024-11-08T15:00:00	1	Precipitación	0
150708	7	Sololá	712	San Antonio Palopó	9	San Antonio Palopo	1	Enero	2023-01-28T00:00:00	2024-11-08T15:00:00	8	Radiación solar	645
150709	7	Sololá	712	San Antonio Palopó	9	San Antonio Palopo	1	Enero	2023-01-28T00:00:00	2024-11-08T16:00:00	2	Temperatura media	24.3
150710	7	Sololá	712	San Antonio Palopó	9	San Antonio Palopo	1	Enero	2023-01-28T00:00:00	2024-11-08T16:00:00	4	Temperatura máxima	26
150711	7	Sololá	712	San Antonio Palopó	9	San Antonio Palopo	1	Enero	2023-01-28T00:00:00	2024-11-08T16:00:00	3	Temperatura mínima	24.1
150712	7	Sololá	712	San Antonio Palopó	9	San Antonio Palopo	1	Enero	2023-01-28T00:00:00	2024-11-08T16:00:00	5	Humedad	34
150713	7	Sololá	712	San Antonio Palopó	9	San Antonio Palopo	1	Enero	2023-01-28T00:00:00	2024-11-08T16:00:00	6	Velocidad del viento	12.9
150714	7	Sololá	712	San Antonio Palopó	9	San Antonio Palopo	1	Enero	2023-01-28T00:00:00	2024-11-08T16:00:00	7	Dirección del viento	12.87
150715	7	Sololá	712	San Antonio Palopó	9	San Antonio Palopo	1	Enero	2023-01-28T00:00:00	2024-11-08T16:00:00	1	Precipitación	0
150716	7	Sololá	712	San Antonio Palopó	9	San Antonio Palopo	1	Enero	2023-01-28T00:00:00	2024-11-08T16:00:00	8	Radiación solar	465
150717	7	Sololá	712	San Antonio Palopó	9	San Antonio Palopo	1	Enero	2023-01-28T00:00:00	2024-11-08T17:00:00	2	Temperatura media	24.4
150718	7	Sololá	712	San Antonio Palopó	9	San Antonio Palopo	1	Enero	2023-01-28T00:00:00	2024-11-08T17:00:00	4	Temperatura máxima	25
150719	7	Sololá	712	San Antonio Palopó	9	San Antonio Palopo	1	Enero	2023-01-28T00:00:00	2024-11-08T17:00:00	3	Temperatura mínima	24.3
150720	7	Sololá	712	San Antonio Palopó	9	San Antonio Palopo	1	Enero	2023-01-28T00:00:00	2024-11-08T17:00:00	5	Humedad	36
150721	7	Sololá	712	San Antonio Palopó	9	San Antonio Palopo	1	Enero	2023-01-28T00:00:00	2024-11-08T17:00:00	6	Velocidad del viento	11.3
150722	7	Sololá	712	San Antonio Palopó	9	San Antonio Palopo	1	Enero	2023-01-28T00:00:00	2024-11-08T17:00:00	7	Dirección del viento	11.27
150723	7	Sololá	712	San Antonio Palopó	9	San Antonio Palopo	1	Enero	2023-01-28T00:00:00	2024-11-08T17:00:00	1	Precipitación	0
150724	7	Sololá	712	San Antonio Palopó	9	San Antonio Palopo	1	Enero	2023-01-28T00:00:00	2024-11-08T17:00:00	8	Radiación solar	258
150725	7	Sololá	712	San Antonio Palopó	9	San Antonio Palopo	1	Enero	2023-01-28T00:00:00	2024-11-08T18:00:00	2	Temperatura media	21.6
150726	7	Sololá	712	San Antonio Palopó	9	San Antonio Palopo	1	Enero	2023-01-28T00:00:00	2024-11-08T18:00:00	4	Temperatura máxima	24.6
150727	7	Sololá	712	San Antonio Palopó	9	San Antonio Palopo	1	Enero	2023-01-28T00:00:00	2024-11-08T18:00:00	3	Temperatura mínima	21.6
150728	7	Sololá	712	San Antonio Palopó	9	San Antonio Palopo	1	Enero	2023-01-28T00:00:00	2024-11-08T18:00:00	5	Humedad	39
150729	7	Sololá	712	San Antonio Palopó	9	San Antonio Palopo	1	Enero	2023-01-28T00:00:00	2024-11-08T18:00:00	6	Velocidad del viento	9.7
150730	7	Sololá	712	San Antonio Palopó	9	San Antonio Palopo	1	Enero	2023-01-28T00:00:00	2024-11-08T18:00:00	7	Dirección del viento	9.66
150731	7	Sololá	712	San Antonio Palopó	9	San Antonio Palopo	1	Enero	2023-01-28T00:00:00	2024-11-08T18:00:00	1	Precipitación	0
150732	7	Sololá	712	San Antonio Palopó	9	San Antonio Palopo	1	Enero	2023-01-28T00:00:00	2024-11-08T18:00:00	8	Radiación solar	45
150733	7	Sololá	712	San Antonio Palopó	9	San Antonio Palopo	1	Enero	2023-01-28T00:00:00	2024-11-08T19:00:00	2	Temperatura media	20
150734	7	Sololá	712	San Antonio Palopó	9	San Antonio Palopo	1	Enero	2023-01-28T00:00:00	2024-11-08T19:00:00	4	Temperatura máxima	21.6
150735	7	Sololá	712	San Antonio Palopó	9	San Antonio Palopo	1	Enero	2023-01-28T00:00:00	2024-11-08T19:00:00	3	Temperatura mínima	20
150736	7	Sololá	712	San Antonio Palopó	9	San Antonio Palopo	1	Enero	2023-01-28T00:00:00	2024-11-08T19:00:00	5	Humedad	46
150737	7	Sololá	712	San Antonio Palopó	9	San Antonio Palopo	1	Enero	2023-01-28T00:00:00	2024-11-08T19:00:00	6	Velocidad del viento	9.7
150738	7	Sololá	712	San Antonio Palopó	9	San Antonio Palopo	1	Enero	2023-01-28T00:00:00	2024-11-08T19:00:00	7	Dirección del viento	9.66
150739	7	Sololá	712	San Antonio Palopó	9	San Antonio Palopo	1	Enero	2023-01-28T00:00:00	2024-11-08T19:00:00	1	Precipitación	0
150740	7	Sololá	712	San Antonio Palopó	9	San Antonio Palopo	1	Enero	2023-01-28T00:00:00	2024-11-08T19:00:00	8	Radiación solar	0
150741	7	Sololá	712	San Antonio Palopó	9	San Antonio Palopo	1	Enero	2023-01-28T00:00:00	2024-11-08T20:00:00	2	Temperatura media	19.1
150742	7	Sololá	712	San Antonio Palopó	9	San Antonio Palopo	1	Enero	2023-01-28T00:00:00	2024-11-08T20:00:00	4	Temperatura máxima	20
150743	7	Sololá	712	San Antonio Palopó	9	San Antonio Palopo	1	Enero	2023-01-28T00:00:00	2024-11-08T20:00:00	3	Temperatura mínima	19
150744	7	Sololá	712	San Antonio Palopó	9	San Antonio Palopo	1	Enero	2023-01-28T00:00:00	2024-11-08T20:00:00	5	Humedad	52
150745	7	Sololá	712	San Antonio Palopó	9	San Antonio Palopo	1	Enero	2023-01-28T00:00:00	2024-11-08T20:00:00	6	Velocidad del viento	9.7
150746	7	Sololá	712	San Antonio Palopó	9	San Antonio Palopo	1	Enero	2023-01-28T00:00:00	2024-11-08T20:00:00	7	Dirección del viento	9.66
150747	7	Sololá	712	San Antonio Palopó	9	San Antonio Palopo	1	Enero	2023-01-28T00:00:00	2024-11-08T20:00:00	1	Precipitación	0
150748	7	Sololá	712	San Antonio Palopó	9	San Antonio Palopo	1	Enero	2023-01-28T00:00:00	2024-11-08T20:00:00	8	Radiación solar	0
150749	7	Sololá	712	San Antonio Palopó	9	San Antonio Palopo	1	Enero	2023-01-28T00:00:00	2024-11-08T21:00:00	2	Temperatura media	18.1
150750	7	Sololá	712	San Antonio Palopó	9	San Antonio Palopo	1	Enero	2023-01-28T00:00:00	2024-11-08T21:00:00	4	Temperatura máxima	19.2
150751	7	Sololá	712	San Antonio Palopó	9	San Antonio Palopo	1	Enero	2023-01-28T00:00:00	2024-11-08T21:00:00	3	Temperatura mínima	18.1
150752	7	Sololá	712	San Antonio Palopó	9	San Antonio Palopo	1	Enero	2023-01-28T00:00:00	2024-11-08T21:00:00	5	Humedad	54
150753	7	Sololá	712	San Antonio Palopó	9	San Antonio Palopo	1	Enero	2023-01-28T00:00:00	2024-11-08T21:00:00	6	Velocidad del viento	8
150754	7	Sololá	712	San Antonio Palopó	9	San Antonio Palopo	1	Enero	2023-01-28T00:00:00	2024-11-08T21:00:00	7	Dirección del viento	8.05
150755	7	Sololá	712	San Antonio Palopó	9	San Antonio Palopo	1	Enero	2023-01-28T00:00:00	2024-11-08T21:00:00	1	Precipitación	0
150756	7	Sololá	712	San Antonio Palopó	9	San Antonio Palopo	1	Enero	2023-01-28T00:00:00	2024-11-08T21:00:00	8	Radiación solar	0
150757	7	Sololá	712	San Antonio Palopó	9	San Antonio Palopo	1	Enero	2023-01-28T00:00:00	2024-11-08T22:00:00	2	Temperatura media	18.4
150758	7	Sololá	712	San Antonio Palopó	9	San Antonio Palopo	1	Enero	2023-01-28T00:00:00	2024-11-08T22:00:00	4	Temperatura máxima	18.4
150759	7	Sololá	712	San Antonio Palopó	9	San Antonio Palopo	1	Enero	2023-01-28T00:00:00	2024-11-08T22:00:00	3	Temperatura mínima	18.1
150760	7	Sololá	712	San Antonio Palopó	9	San Antonio Palopo	1	Enero	2023-01-28T00:00:00	2024-11-08T22:00:00	5	Humedad	50
150761	7	Sololá	712	San Antonio Palopó	9	San Antonio Palopo	1	Enero	2023-01-28T00:00:00	2024-11-08T22:00:00	6	Velocidad del viento	6.4
150762	7	Sololá	712	San Antonio Palopó	9	San Antonio Palopo	1	Enero	2023-01-28T00:00:00	2024-11-08T22:00:00	7	Dirección del viento	6.44
150763	7	Sololá	712	San Antonio Palopó	9	San Antonio Palopo	1	Enero	2023-01-28T00:00:00	2024-11-08T22:00:00	1	Precipitación	0
150764	7	Sololá	712	San Antonio Palopó	9	San Antonio Palopo	1	Enero	2023-01-28T00:00:00	2024-11-08T22:00:00	8	Radiación solar	0
150765	7	Sololá	712	San Antonio Palopó	9	San Antonio Palopo	1	Enero	2023-01-28T00:00:00	2024-11-08T23:00:00	2	Temperatura media	17.6
150766	7	Sololá	712	San Antonio Palopó	9	San Antonio Palopo	1	Enero	2023-01-28T00:00:00	2024-11-08T23:00:00	4	Temperatura máxima	18.4
150767	7	Sololá	712	San Antonio Palopó	9	San Antonio Palopo	1	Enero	2023-01-28T00:00:00	2024-11-08T23:00:00	3	Temperatura mínima	17.4
150768	7	Sololá	712	San Antonio Palopó	9	San Antonio Palopo	1	Enero	2023-01-28T00:00:00	2024-11-08T23:00:00	5	Humedad	51
150769	7	Sololá	712	San Antonio Palopó	9	San Antonio Palopo	1	Enero	2023-01-28T00:00:00	2024-11-08T23:00:00	6	Velocidad del viento	8
150770	7	Sololá	712	San Antonio Palopó	9	San Antonio Palopo	1	Enero	2023-01-28T00:00:00	2024-11-08T23:00:00	7	Dirección del viento	8.05
150771	7	Sololá	712	San Antonio Palopó	9	San Antonio Palopo	1	Enero	2023-01-28T00:00:00	2024-11-08T23:00:00	1	Precipitación	0
150772	7	Sololá	712	San Antonio Palopó	9	San Antonio Palopo	1	Enero	2023-01-28T00:00:00	2024-11-08T23:00:00	8	Radiación solar	0
150773	7	Sololá	712	San Antonio Palopó	9	San Antonio Palopo	1	Enero	2023-01-29T00:00:00	2024-11-08T00:00:00	2	Temperatura media	17.9
150774	7	Sololá	712	San Antonio Palopó	9	San Antonio Palopo	1	Enero	2023-01-29T00:00:00	2024-11-08T00:00:00	4	Temperatura máxima	17.9
150775	7	Sololá	712	San Antonio Palopó	9	San Antonio Palopo	1	Enero	2023-01-29T00:00:00	2024-11-08T00:00:00	3	Temperatura mínima	16.9
150776	7	Sololá	712	San Antonio Palopó	9	San Antonio Palopo	1	Enero	2023-01-29T00:00:00	2024-11-08T00:00:00	5	Humedad	36
150777	7	Sololá	712	San Antonio Palopó	9	San Antonio Palopo	1	Enero	2023-01-29T00:00:00	2024-11-08T00:00:00	6	Velocidad del viento	6.4
150778	7	Sololá	712	San Antonio Palopó	9	San Antonio Palopo	1	Enero	2023-01-29T00:00:00	2024-11-08T00:00:00	7	Dirección del viento	6.44
150779	7	Sololá	712	San Antonio Palopó	9	San Antonio Palopo	1	Enero	2023-01-29T00:00:00	2024-11-08T00:00:00	1	Precipitación	0
150780	7	Sololá	712	San Antonio Palopó	9	San Antonio Palopo	1	Enero	2023-01-29T00:00:00	2024-11-08T00:00:00	8	Radiación solar	0
150781	7	Sololá	712	San Antonio Palopó	9	San Antonio Palopo	1	Enero	2023-01-29T00:00:00	2024-11-08T01:00:00	2	Temperatura media	17.5
150782	7	Sololá	712	San Antonio Palopó	9	San Antonio Palopo	1	Enero	2023-01-29T00:00:00	2024-11-08T01:00:00	4	Temperatura máxima	17.9
150783	7	Sololá	712	San Antonio Palopó	9	San Antonio Palopo	1	Enero	2023-01-29T00:00:00	2024-11-08T01:00:00	3	Temperatura mínima	17.2
150784	7	Sololá	712	San Antonio Palopó	9	San Antonio Palopo	1	Enero	2023-01-29T00:00:00	2024-11-08T01:00:00	5	Humedad	35
150785	7	Sololá	712	San Antonio Palopó	9	San Antonio Palopo	1	Enero	2023-01-29T00:00:00	2024-11-08T01:00:00	6	Velocidad del viento	9.7
150786	7	Sololá	712	San Antonio Palopó	9	San Antonio Palopo	1	Enero	2023-01-29T00:00:00	2024-11-08T01:00:00	7	Dirección del viento	9.66
150787	7	Sololá	712	San Antonio Palopó	9	San Antonio Palopo	1	Enero	2023-01-29T00:00:00	2024-11-08T01:00:00	1	Precipitación	0
150788	7	Sololá	712	San Antonio Palopó	9	San Antonio Palopo	1	Enero	2023-01-29T00:00:00	2024-11-08T01:00:00	8	Radiación solar	0
150789	7	Sololá	712	San Antonio Palopó	9	San Antonio Palopo	1	Enero	2023-01-29T00:00:00	2024-11-08T02:00:00	2	Temperatura media	17.5
150790	7	Sololá	712	San Antonio Palopó	9	San Antonio Palopo	1	Enero	2023-01-29T00:00:00	2024-11-08T02:00:00	4	Temperatura máxima	17.6
150791	7	Sololá	712	San Antonio Palopó	9	San Antonio Palopo	1	Enero	2023-01-29T00:00:00	2024-11-08T02:00:00	3	Temperatura mínima	17.2
150792	7	Sololá	712	San Antonio Palopó	9	San Antonio Palopo	1	Enero	2023-01-29T00:00:00	2024-11-08T02:00:00	5	Humedad	34
150793	7	Sololá	712	San Antonio Palopó	9	San Antonio Palopo	1	Enero	2023-01-29T00:00:00	2024-11-08T02:00:00	6	Velocidad del viento	16.1
150794	7	Sololá	712	San Antonio Palopó	9	San Antonio Palopo	1	Enero	2023-01-29T00:00:00	2024-11-08T02:00:00	7	Dirección del viento	16.09
150795	7	Sololá	712	San Antonio Palopó	9	San Antonio Palopo	1	Enero	2023-01-29T00:00:00	2024-11-08T02:00:00	1	Precipitación	0
150796	7	Sololá	712	San Antonio Palopó	9	San Antonio Palopo	1	Enero	2023-01-29T00:00:00	2024-11-08T02:00:00	8	Radiación solar	0
150797	7	Sololá	712	San Antonio Palopó	9	San Antonio Palopo	1	Enero	2023-01-29T00:00:00	2024-11-08T03:00:00	2	Temperatura media	16.3
150798	7	Sololá	712	San Antonio Palopó	9	San Antonio Palopo	1	Enero	2023-01-29T00:00:00	2024-11-08T03:00:00	4	Temperatura máxima	17.6
150799	7	Sololá	712	San Antonio Palopó	9	San Antonio Palopo	1	Enero	2023-01-29T00:00:00	2024-11-08T03:00:00	3	Temperatura mínima	16.2
150800	7	Sololá	712	San Antonio Palopó	9	San Antonio Palopo	1	Enero	2023-01-29T00:00:00	2024-11-08T03:00:00	5	Humedad	38
150801	7	Sololá	712	San Antonio Palopó	9	San Antonio Palopo	1	Enero	2023-01-29T00:00:00	2024-11-08T03:00:00	6	Velocidad del viento	19.3
150802	7	Sololá	712	San Antonio Palopó	9	San Antonio Palopo	1	Enero	2023-01-29T00:00:00	2024-11-08T03:00:00	7	Dirección del viento	19.31
150803	7	Sololá	712	San Antonio Palopó	9	San Antonio Palopo	1	Enero	2023-01-29T00:00:00	2024-11-08T03:00:00	1	Precipitación	0
150804	7	Sololá	712	San Antonio Palopó	9	San Antonio Palopo	1	Enero	2023-01-29T00:00:00	2024-11-08T03:00:00	8	Radiación solar	0
150805	7	Sololá	712	San Antonio Palopó	9	San Antonio Palopo	1	Enero	2023-01-29T00:00:00	2024-11-08T04:00:00	2	Temperatura media	16.2
150806	7	Sololá	712	San Antonio Palopó	9	San Antonio Palopo	1	Enero	2023-01-29T00:00:00	2024-11-08T04:00:00	4	Temperatura máxima	16.7
150807	7	Sololá	712	San Antonio Palopó	9	San Antonio Palopo	1	Enero	2023-01-29T00:00:00	2024-11-08T04:00:00	3	Temperatura mínima	16.1
150808	7	Sololá	712	San Antonio Palopó	9	San Antonio Palopo	1	Enero	2023-01-29T00:00:00	2024-11-08T04:00:00	5	Humedad	41
150809	7	Sololá	712	San Antonio Palopó	9	San Antonio Palopo	1	Enero	2023-01-29T00:00:00	2024-11-08T04:00:00	6	Velocidad del viento	19.3
150810	7	Sololá	712	San Antonio Palopó	9	San Antonio Palopo	1	Enero	2023-01-29T00:00:00	2024-11-08T04:00:00	7	Dirección del viento	19.31
150811	7	Sololá	712	San Antonio Palopó	9	San Antonio Palopo	1	Enero	2023-01-29T00:00:00	2024-11-08T04:00:00	1	Precipitación	0
150812	7	Sololá	712	San Antonio Palopó	9	San Antonio Palopo	1	Enero	2023-01-29T00:00:00	2024-11-08T04:00:00	8	Radiación solar	0
150813	7	Sololá	712	San Antonio Palopó	9	San Antonio Palopo	1	Enero	2023-01-29T00:00:00	2024-11-08T05:00:00	2	Temperatura media	16.3
150814	7	Sololá	712	San Antonio Palopó	9	San Antonio Palopo	1	Enero	2023-01-29T00:00:00	2024-11-08T05:00:00	4	Temperatura máxima	16.8
150815	7	Sololá	712	San Antonio Palopó	9	San Antonio Palopo	1	Enero	2023-01-29T00:00:00	2024-11-08T05:00:00	3	Temperatura mínima	16
150816	7	Sololá	712	San Antonio Palopó	9	San Antonio Palopo	1	Enero	2023-01-29T00:00:00	2024-11-08T05:00:00	5	Humedad	35
150817	7	Sololá	712	San Antonio Palopó	9	San Antonio Palopo	1	Enero	2023-01-29T00:00:00	2024-11-08T05:00:00	6	Velocidad del viento	12.9
150818	7	Sololá	712	San Antonio Palopó	9	San Antonio Palopo	1	Enero	2023-01-29T00:00:00	2024-11-08T05:00:00	7	Dirección del viento	12.87
150819	7	Sololá	712	San Antonio Palopó	9	San Antonio Palopo	1	Enero	2023-01-29T00:00:00	2024-11-08T05:00:00	1	Precipitación	0
150820	7	Sololá	712	San Antonio Palopó	9	San Antonio Palopo	1	Enero	2023-01-29T00:00:00	2024-11-08T05:00:00	8	Radiación solar	0
150821	7	Sololá	712	San Antonio Palopó	9	San Antonio Palopo	1	Enero	2023-01-29T00:00:00	2024-11-08T06:00:00	2	Temperatura media	15
150822	7	Sololá	712	San Antonio Palopó	9	San Antonio Palopo	1	Enero	2023-01-29T00:00:00	2024-11-08T06:00:00	4	Temperatura máxima	16.4
150823	7	Sololá	712	San Antonio Palopó	9	San Antonio Palopo	1	Enero	2023-01-29T00:00:00	2024-11-08T06:00:00	3	Temperatura mínima	14.9
150824	7	Sololá	712	San Antonio Palopó	9	San Antonio Palopo	1	Enero	2023-01-29T00:00:00	2024-11-08T06:00:00	5	Humedad	39
150825	7	Sololá	712	San Antonio Palopó	9	San Antonio Palopo	1	Enero	2023-01-29T00:00:00	2024-11-08T06:00:00	6	Velocidad del viento	8
150826	7	Sololá	712	San Antonio Palopó	9	San Antonio Palopo	1	Enero	2023-01-29T00:00:00	2024-11-08T06:00:00	7	Dirección del viento	8.05
150827	7	Sololá	712	San Antonio Palopó	9	San Antonio Palopo	1	Enero	2023-01-29T00:00:00	2024-11-08T06:00:00	1	Precipitación	0
150828	7	Sololá	712	San Antonio Palopó	9	San Antonio Palopo	1	Enero	2023-01-29T00:00:00	2024-11-08T06:00:00	8	Radiación solar	0
150829	7	Sololá	712	San Antonio Palopó	9	San Antonio Palopo	1	Enero	2023-01-29T00:00:00	2024-11-08T07:00:00	2	Temperatura media	15.2
150830	7	Sololá	712	San Antonio Palopó	9	San Antonio Palopo	1	Enero	2023-01-29T00:00:00	2024-11-08T07:00:00	4	Temperatura máxima	15.2
150831	7	Sololá	712	San Antonio Palopó	9	San Antonio Palopo	1	Enero	2023-01-29T00:00:00	2024-11-08T07:00:00	3	Temperatura mínima	14.6
150832	7	Sololá	712	San Antonio Palopó	9	San Antonio Palopo	1	Enero	2023-01-29T00:00:00	2024-11-08T07:00:00	5	Humedad	38
150833	7	Sololá	712	San Antonio Palopó	9	San Antonio Palopo	1	Enero	2023-01-29T00:00:00	2024-11-08T07:00:00	6	Velocidad del viento	9.7
150834	7	Sololá	712	San Antonio Palopó	9	San Antonio Palopo	1	Enero	2023-01-29T00:00:00	2024-11-08T07:00:00	7	Dirección del viento	9.66
150835	7	Sololá	712	San Antonio Palopó	9	San Antonio Palopo	1	Enero	2023-01-29T00:00:00	2024-11-08T07:00:00	1	Precipitación	0
150836	7	Sololá	712	San Antonio Palopó	9	San Antonio Palopo	1	Enero	2023-01-29T00:00:00	2024-11-08T07:00:00	8	Radiación solar	3
150837	7	Sololá	712	San Antonio Palopó	9	San Antonio Palopo	1	Enero	2023-01-29T00:00:00	2024-11-08T08:00:00	2	Temperatura media	15.3
150838	7	Sololá	712	San Antonio Palopó	9	San Antonio Palopo	1	Enero	2023-01-29T00:00:00	2024-11-08T08:00:00	4	Temperatura máxima	15.7
150839	7	Sololá	712	San Antonio Palopó	9	San Antonio Palopo	1	Enero	2023-01-29T00:00:00	2024-11-08T08:00:00	3	Temperatura mínima	15.2
150840	7	Sololá	712	San Antonio Palopó	9	San Antonio Palopo	1	Enero	2023-01-29T00:00:00	2024-11-08T08:00:00	5	Humedad	43
150841	7	Sololá	712	San Antonio Palopó	9	San Antonio Palopo	1	Enero	2023-01-29T00:00:00	2024-11-08T08:00:00	6	Velocidad del viento	6.4
150842	7	Sololá	712	San Antonio Palopó	9	San Antonio Palopo	1	Enero	2023-01-29T00:00:00	2024-11-08T08:00:00	7	Dirección del viento	6.44
150843	7	Sololá	712	San Antonio Palopó	9	San Antonio Palopo	1	Enero	2023-01-29T00:00:00	2024-11-08T08:00:00	1	Precipitación	0
150844	7	Sololá	712	San Antonio Palopó	9	San Antonio Palopo	1	Enero	2023-01-29T00:00:00	2024-11-08T08:00:00	8	Radiación solar	15
150845	7	Sololá	712	San Antonio Palopó	9	San Antonio Palopo	1	Enero	2023-01-29T00:00:00	2024-11-08T09:00:00	2	Temperatura media	19.3
150846	7	Sololá	712	San Antonio Palopó	9	San Antonio Palopo	1	Enero	2023-01-29T00:00:00	2024-11-08T09:00:00	4	Temperatura máxima	19.3
150847	7	Sololá	712	San Antonio Palopó	9	San Antonio Palopo	1	Enero	2023-01-29T00:00:00	2024-11-08T09:00:00	3	Temperatura mínima	15.2
150848	7	Sololá	712	San Antonio Palopó	9	San Antonio Palopo	1	Enero	2023-01-29T00:00:00	2024-11-08T09:00:00	5	Humedad	41
150849	7	Sololá	712	San Antonio Palopó	9	San Antonio Palopo	1	Enero	2023-01-29T00:00:00	2024-11-08T09:00:00	6	Velocidad del viento	4.8
150850	7	Sololá	712	San Antonio Palopó	9	San Antonio Palopo	1	Enero	2023-01-29T00:00:00	2024-11-08T09:00:00	7	Dirección del viento	4.83
150851	7	Sololá	712	San Antonio Palopó	9	San Antonio Palopo	1	Enero	2023-01-29T00:00:00	2024-11-08T09:00:00	1	Precipitación	0
150852	7	Sololá	712	San Antonio Palopó	9	San Antonio Palopo	1	Enero	2023-01-29T00:00:00	2024-11-08T09:00:00	8	Radiación solar	172
150853	7	Sololá	712	San Antonio Palopó	9	San Antonio Palopo	1	Enero	2023-01-29T00:00:00	2024-11-08T10:00:00	2	Temperatura media	21.9
150854	7	Sololá	712	San Antonio Palopó	9	San Antonio Palopo	1	Enero	2023-01-29T00:00:00	2024-11-08T10:00:00	4	Temperatura máxima	21.9
150855	7	Sololá	712	San Antonio Palopó	9	San Antonio Palopo	1	Enero	2023-01-29T00:00:00	2024-11-08T10:00:00	3	Temperatura mínima	19.3
150856	7	Sololá	712	San Antonio Palopó	9	San Antonio Palopo	1	Enero	2023-01-29T00:00:00	2024-11-08T10:00:00	5	Humedad	33
150857	7	Sololá	712	San Antonio Palopó	9	San Antonio Palopo	1	Enero	2023-01-29T00:00:00	2024-11-08T10:00:00	6	Velocidad del viento	6.4
150858	7	Sololá	712	San Antonio Palopó	9	San Antonio Palopo	1	Enero	2023-01-29T00:00:00	2024-11-08T10:00:00	7	Dirección del viento	6.44
150859	7	Sololá	712	San Antonio Palopó	9	San Antonio Palopo	1	Enero	2023-01-29T00:00:00	2024-11-08T10:00:00	1	Precipitación	0
150860	7	Sololá	712	San Antonio Palopó	9	San Antonio Palopo	1	Enero	2023-01-29T00:00:00	2024-11-08T10:00:00	8	Radiación solar	565
150861	7	Sololá	712	San Antonio Palopó	9	San Antonio Palopo	1	Enero	2023-01-29T00:00:00	2024-11-08T11:00:00	2	Temperatura media	23.2
150862	7	Sololá	712	San Antonio Palopó	9	San Antonio Palopo	1	Enero	2023-01-29T00:00:00	2024-11-08T11:00:00	4	Temperatura máxima	23.3
150863	7	Sololá	712	San Antonio Palopó	9	San Antonio Palopo	1	Enero	2023-01-29T00:00:00	2024-11-08T11:00:00	3	Temperatura mínima	22
150864	7	Sololá	712	San Antonio Palopó	9	San Antonio Palopo	1	Enero	2023-01-29T00:00:00	2024-11-08T11:00:00	5	Humedad	27
150865	7	Sololá	712	San Antonio Palopó	9	San Antonio Palopo	1	Enero	2023-01-29T00:00:00	2024-11-08T11:00:00	6	Velocidad del viento	9.7
150866	7	Sololá	712	San Antonio Palopó	9	San Antonio Palopo	1	Enero	2023-01-29T00:00:00	2024-11-08T11:00:00	7	Dirección del viento	9.66
150867	7	Sololá	712	San Antonio Palopó	9	San Antonio Palopo	1	Enero	2023-01-29T00:00:00	2024-11-08T11:00:00	1	Precipitación	0
150868	7	Sololá	712	San Antonio Palopó	9	San Antonio Palopo	1	Enero	2023-01-29T00:00:00	2024-11-08T11:00:00	8	Radiación solar	723
150869	7	Sololá	712	San Antonio Palopó	9	San Antonio Palopo	1	Enero	2023-01-29T00:00:00	2024-11-08T12:00:00	2	Temperatura media	24.4
150870	7	Sololá	712	San Antonio Palopó	9	San Antonio Palopo	1	Enero	2023-01-29T00:00:00	2024-11-08T12:00:00	4	Temperatura máxima	24.4
150871	7	Sololá	712	San Antonio Palopó	9	San Antonio Palopo	1	Enero	2023-01-29T00:00:00	2024-11-08T12:00:00	3	Temperatura mínima	23.2
150872	7	Sololá	712	San Antonio Palopó	9	San Antonio Palopo	1	Enero	2023-01-29T00:00:00	2024-11-08T12:00:00	5	Humedad	28
150873	7	Sololá	712	San Antonio Palopó	9	San Antonio Palopo	1	Enero	2023-01-29T00:00:00	2024-11-08T12:00:00	6	Velocidad del viento	9.7
150874	7	Sololá	712	San Antonio Palopó	9	San Antonio Palopo	1	Enero	2023-01-29T00:00:00	2024-11-08T12:00:00	7	Dirección del viento	9.66
150875	7	Sololá	712	San Antonio Palopó	9	San Antonio Palopo	1	Enero	2023-01-29T00:00:00	2024-11-08T12:00:00	1	Precipitación	0
150876	7	Sololá	712	San Antonio Palopó	9	San Antonio Palopo	1	Enero	2023-01-29T00:00:00	2024-11-08T12:00:00	8	Radiación solar	713
150877	7	Sololá	712	San Antonio Palopó	9	San Antonio Palopo	1	Enero	2023-01-29T00:00:00	2024-11-08T13:00:00	2	Temperatura media	24.6
150878	7	Sololá	712	San Antonio Palopó	9	San Antonio Palopo	1	Enero	2023-01-29T00:00:00	2024-11-08T13:00:00	4	Temperatura máxima	24.9
150879	7	Sololá	712	San Antonio Palopó	9	San Antonio Palopo	1	Enero	2023-01-29T00:00:00	2024-11-08T13:00:00	3	Temperatura mínima	23.9
150880	7	Sololá	712	San Antonio Palopó	9	San Antonio Palopo	1	Enero	2023-01-29T00:00:00	2024-11-08T13:00:00	5	Humedad	31
150881	7	Sololá	712	San Antonio Palopó	9	San Antonio Palopo	1	Enero	2023-01-29T00:00:00	2024-11-08T13:00:00	6	Velocidad del viento	12.9
150882	7	Sololá	712	San Antonio Palopó	9	San Antonio Palopo	1	Enero	2023-01-29T00:00:00	2024-11-08T13:00:00	7	Dirección del viento	12.87
150883	7	Sololá	712	San Antonio Palopó	9	San Antonio Palopo	1	Enero	2023-01-29T00:00:00	2024-11-08T13:00:00	1	Precipitación	0
150884	7	Sololá	712	San Antonio Palopó	9	San Antonio Palopo	1	Enero	2023-01-29T00:00:00	2024-11-08T13:00:00	8	Radiación solar	814
150885	7	Sololá	712	San Antonio Palopó	9	San Antonio Palopo	1	Enero	2023-01-29T00:00:00	2024-11-08T14:00:00	2	Temperatura media	22.8
150886	7	Sololá	712	San Antonio Palopó	9	San Antonio Palopo	1	Enero	2023-01-29T00:00:00	2024-11-08T14:00:00	4	Temperatura máxima	25
150887	7	Sololá	712	San Antonio Palopó	9	San Antonio Palopo	1	Enero	2023-01-29T00:00:00	2024-11-08T14:00:00	3	Temperatura mínima	22.8
150888	7	Sololá	712	San Antonio Palopó	9	San Antonio Palopo	1	Enero	2023-01-29T00:00:00	2024-11-08T14:00:00	5	Humedad	51
150889	7	Sololá	712	San Antonio Palopó	9	San Antonio Palopo	1	Enero	2023-01-29T00:00:00	2024-11-08T14:00:00	6	Velocidad del viento	16.1
150890	7	Sololá	712	San Antonio Palopó	9	San Antonio Palopo	1	Enero	2023-01-29T00:00:00	2024-11-08T14:00:00	7	Dirección del viento	16.09
150891	7	Sololá	712	San Antonio Palopó	9	San Antonio Palopo	1	Enero	2023-01-29T00:00:00	2024-11-08T14:00:00	1	Precipitación	0
150892	7	Sololá	712	San Antonio Palopó	9	San Antonio Palopo	1	Enero	2023-01-29T00:00:00	2024-11-08T14:00:00	8	Radiación solar	750
150893	7	Sololá	712	San Antonio Palopó	9	San Antonio Palopo	1	Enero	2023-01-29T00:00:00	2024-11-08T15:00:00	2	Temperatura media	22.5
150894	7	Sololá	712	San Antonio Palopó	9	San Antonio Palopo	1	Enero	2023-01-29T00:00:00	2024-11-08T15:00:00	4	Temperatura máxima	23.3
150895	7	Sololá	712	San Antonio Palopó	9	San Antonio Palopo	1	Enero	2023-01-29T00:00:00	2024-11-08T15:00:00	3	Temperatura mínima	22.1
150896	7	Sololá	712	San Antonio Palopó	9	San Antonio Palopo	1	Enero	2023-01-29T00:00:00	2024-11-08T15:00:00	5	Humedad	57
150897	7	Sololá	712	San Antonio Palopó	9	San Antonio Palopo	1	Enero	2023-01-29T00:00:00	2024-11-08T15:00:00	6	Velocidad del viento	19.3
150898	7	Sololá	712	San Antonio Palopó	9	San Antonio Palopo	1	Enero	2023-01-29T00:00:00	2024-11-08T15:00:00	7	Dirección del viento	19.31
150899	7	Sololá	712	San Antonio Palopó	9	San Antonio Palopo	1	Enero	2023-01-29T00:00:00	2024-11-08T15:00:00	1	Precipitación	0
150900	7	Sololá	712	San Antonio Palopó	9	San Antonio Palopo	1	Enero	2023-01-29T00:00:00	2024-11-08T15:00:00	8	Radiación solar	628
150901	7	Sololá	712	San Antonio Palopó	9	San Antonio Palopo	1	Enero	2023-01-29T00:00:00	2024-11-08T16:00:00	2	Temperatura media	22.6
150902	7	Sololá	712	San Antonio Palopó	9	San Antonio Palopo	1	Enero	2023-01-29T00:00:00	2024-11-08T16:00:00	4	Temperatura máxima	22.8
150903	7	Sololá	712	San Antonio Palopó	9	San Antonio Palopo	1	Enero	2023-01-29T00:00:00	2024-11-08T16:00:00	3	Temperatura mínima	22.4
150904	7	Sololá	712	San Antonio Palopó	9	San Antonio Palopo	1	Enero	2023-01-29T00:00:00	2024-11-08T16:00:00	5	Humedad	54
150905	7	Sololá	712	San Antonio Palopó	9	San Antonio Palopo	1	Enero	2023-01-29T00:00:00	2024-11-08T16:00:00	6	Velocidad del viento	12.9
150906	7	Sololá	712	San Antonio Palopó	9	San Antonio Palopo	1	Enero	2023-01-29T00:00:00	2024-11-08T16:00:00	7	Dirección del viento	12.87
150907	7	Sololá	712	San Antonio Palopó	9	San Antonio Palopo	1	Enero	2023-01-29T00:00:00	2024-11-08T16:00:00	1	Precipitación	0
150908	7	Sololá	712	San Antonio Palopó	9	San Antonio Palopo	1	Enero	2023-01-29T00:00:00	2024-11-08T16:00:00	8	Radiación solar	449
150909	7	Sololá	712	San Antonio Palopó	9	San Antonio Palopo	1	Enero	2023-01-29T00:00:00	2024-11-08T17:00:00	2	Temperatura media	23.2
150910	7	Sololá	712	San Antonio Palopó	9	San Antonio Palopo	1	Enero	2023-01-29T00:00:00	2024-11-08T17:00:00	4	Temperatura máxima	23.4
150911	7	Sololá	712	San Antonio Palopó	9	San Antonio Palopo	1	Enero	2023-01-29T00:00:00	2024-11-08T17:00:00	3	Temperatura mínima	22.4
150912	7	Sololá	712	San Antonio Palopó	9	San Antonio Palopo	1	Enero	2023-01-29T00:00:00	2024-11-08T17:00:00	5	Humedad	58
150913	7	Sololá	712	San Antonio Palopó	9	San Antonio Palopo	1	Enero	2023-01-29T00:00:00	2024-11-08T17:00:00	6	Velocidad del viento	8
150914	7	Sololá	712	San Antonio Palopó	9	San Antonio Palopo	1	Enero	2023-01-29T00:00:00	2024-11-08T17:00:00	7	Dirección del viento	8.05
150915	7	Sololá	712	San Antonio Palopó	9	San Antonio Palopo	1	Enero	2023-01-29T00:00:00	2024-11-08T17:00:00	1	Precipitación	0
150916	7	Sololá	712	San Antonio Palopó	9	San Antonio Palopo	1	Enero	2023-01-29T00:00:00	2024-11-08T17:00:00	8	Radiación solar	242
150917	7	Sololá	712	San Antonio Palopó	9	San Antonio Palopo	1	Enero	2023-01-29T00:00:00	2024-11-08T18:00:00	2	Temperatura media	20.7
150918	7	Sololá	712	San Antonio Palopó	9	San Antonio Palopo	1	Enero	2023-01-29T00:00:00	2024-11-08T18:00:00	4	Temperatura máxima	23.3
150919	7	Sololá	712	San Antonio Palopó	9	San Antonio Palopo	1	Enero	2023-01-29T00:00:00	2024-11-08T18:00:00	3	Temperatura mínima	20.7
150920	7	Sololá	712	San Antonio Palopó	9	San Antonio Palopo	1	Enero	2023-01-29T00:00:00	2024-11-08T18:00:00	5	Humedad	72
150921	7	Sololá	712	San Antonio Palopó	9	San Antonio Palopo	1	Enero	2023-01-29T00:00:00	2024-11-08T18:00:00	6	Velocidad del viento	4.8
150922	7	Sololá	712	San Antonio Palopó	9	San Antonio Palopo	1	Enero	2023-01-29T00:00:00	2024-11-08T18:00:00	7	Dirección del viento	4.83
150923	7	Sololá	712	San Antonio Palopó	9	San Antonio Palopo	1	Enero	2023-01-29T00:00:00	2024-11-08T18:00:00	1	Precipitación	0
150924	7	Sololá	712	San Antonio Palopó	9	San Antonio Palopo	1	Enero	2023-01-29T00:00:00	2024-11-08T18:00:00	8	Radiación solar	47
150925	7	Sololá	712	San Antonio Palopó	9	San Antonio Palopo	1	Enero	2023-01-29T00:00:00	2024-11-08T19:00:00	2	Temperatura media	20.1
150926	7	Sololá	712	San Antonio Palopó	9	San Antonio Palopo	1	Enero	2023-01-29T00:00:00	2024-11-08T19:00:00	4	Temperatura máxima	20.7
150927	7	Sololá	712	San Antonio Palopó	9	San Antonio Palopo	1	Enero	2023-01-29T00:00:00	2024-11-08T19:00:00	3	Temperatura mínima	20.1
150928	7	Sololá	712	San Antonio Palopó	9	San Antonio Palopo	1	Enero	2023-01-29T00:00:00	2024-11-08T19:00:00	5	Humedad	55
150929	7	Sololá	712	San Antonio Palopó	9	San Antonio Palopo	1	Enero	2023-01-29T00:00:00	2024-11-08T19:00:00	6	Velocidad del viento	8
150930	7	Sololá	712	San Antonio Palopó	9	San Antonio Palopo	1	Enero	2023-01-29T00:00:00	2024-11-08T19:00:00	7	Dirección del viento	8.05
150931	7	Sololá	712	San Antonio Palopó	9	San Antonio Palopo	1	Enero	2023-01-29T00:00:00	2024-11-08T19:00:00	1	Precipitación	0
150932	7	Sololá	712	San Antonio Palopó	9	San Antonio Palopo	1	Enero	2023-01-29T00:00:00	2024-11-08T19:00:00	8	Radiación solar	0
150933	7	Sololá	712	San Antonio Palopó	9	San Antonio Palopo	1	Enero	2023-01-29T00:00:00	2024-11-08T20:00:00	2	Temperatura media	18.7
150934	7	Sololá	712	San Antonio Palopó	9	San Antonio Palopo	1	Enero	2023-01-29T00:00:00	2024-11-08T20:00:00	4	Temperatura máxima	20.1
150935	7	Sololá	712	San Antonio Palopó	9	San Antonio Palopo	1	Enero	2023-01-29T00:00:00	2024-11-08T20:00:00	3	Temperatura mínima	18.7
150936	7	Sololá	712	San Antonio Palopó	9	San Antonio Palopo	1	Enero	2023-01-29T00:00:00	2024-11-08T20:00:00	5	Humedad	62
150937	7	Sololá	712	San Antonio Palopó	9	San Antonio Palopo	1	Enero	2023-01-29T00:00:00	2024-11-08T20:00:00	6	Velocidad del viento	17.7
150938	7	Sololá	712	San Antonio Palopó	9	San Antonio Palopo	1	Enero	2023-01-29T00:00:00	2024-11-08T20:00:00	7	Dirección del viento	17.7
150939	7	Sololá	712	San Antonio Palopó	9	San Antonio Palopo	1	Enero	2023-01-29T00:00:00	2024-11-08T20:00:00	1	Precipitación	0
150940	7	Sololá	712	San Antonio Palopó	9	San Antonio Palopo	1	Enero	2023-01-29T00:00:00	2024-11-08T20:00:00	8	Radiación solar	0
150941	7	Sololá	712	San Antonio Palopó	9	San Antonio Palopo	1	Enero	2023-01-29T00:00:00	2024-11-08T21:00:00	2	Temperatura media	17.3
150942	7	Sololá	712	San Antonio Palopó	9	San Antonio Palopo	1	Enero	2023-01-29T00:00:00	2024-11-08T21:00:00	4	Temperatura máxima	18.7
150943	7	Sololá	712	San Antonio Palopó	9	San Antonio Palopo	1	Enero	2023-01-29T00:00:00	2024-11-08T21:00:00	3	Temperatura mínima	17.3
150944	7	Sololá	712	San Antonio Palopó	9	San Antonio Palopo	1	Enero	2023-01-29T00:00:00	2024-11-08T21:00:00	5	Humedad	67
150945	7	Sololá	712	San Antonio Palopó	9	San Antonio Palopo	1	Enero	2023-01-29T00:00:00	2024-11-08T21:00:00	6	Velocidad del viento	17.7
150946	7	Sololá	712	San Antonio Palopó	9	San Antonio Palopo	1	Enero	2023-01-29T00:00:00	2024-11-08T21:00:00	7	Dirección del viento	17.7
150947	7	Sololá	712	San Antonio Palopó	9	San Antonio Palopo	1	Enero	2023-01-29T00:00:00	2024-11-08T21:00:00	1	Precipitación	0
150948	7	Sololá	712	San Antonio Palopó	9	San Antonio Palopo	1	Enero	2023-01-29T00:00:00	2024-11-08T21:00:00	8	Radiación solar	0
150949	7	Sololá	712	San Antonio Palopó	9	San Antonio Palopo	1	Enero	2023-01-29T00:00:00	2024-11-08T22:00:00	2	Temperatura media	17.1
150950	7	Sololá	712	San Antonio Palopó	9	San Antonio Palopo	1	Enero	2023-01-29T00:00:00	2024-11-08T22:00:00	4	Temperatura máxima	17.3
150951	7	Sololá	712	San Antonio Palopó	9	San Antonio Palopo	1	Enero	2023-01-29T00:00:00	2024-11-08T22:00:00	3	Temperatura mínima	17
150952	7	Sololá	712	San Antonio Palopó	9	San Antonio Palopo	1	Enero	2023-01-29T00:00:00	2024-11-08T22:00:00	5	Humedad	66
150953	7	Sololá	712	San Antonio Palopó	9	San Antonio Palopo	1	Enero	2023-01-29T00:00:00	2024-11-08T22:00:00	6	Velocidad del viento	19.3
150954	7	Sololá	712	San Antonio Palopó	9	San Antonio Palopo	1	Enero	2023-01-29T00:00:00	2024-11-08T22:00:00	7	Dirección del viento	19.31
150955	7	Sololá	712	San Antonio Palopó	9	San Antonio Palopo	1	Enero	2023-01-29T00:00:00	2024-11-08T22:00:00	1	Precipitación	0
150956	7	Sololá	712	San Antonio Palopó	9	San Antonio Palopo	1	Enero	2023-01-29T00:00:00	2024-11-08T22:00:00	8	Radiación solar	0
150957	7	Sololá	712	San Antonio Palopó	9	San Antonio Palopo	1	Enero	2023-01-29T00:00:00	2024-11-08T23:00:00	2	Temperatura media	16.3
150958	7	Sololá	712	San Antonio Palopó	9	San Antonio Palopo	1	Enero	2023-01-29T00:00:00	2024-11-08T23:00:00	4	Temperatura máxima	17.1
150959	7	Sololá	712	San Antonio Palopó	9	San Antonio Palopo	1	Enero	2023-01-29T00:00:00	2024-11-08T23:00:00	3	Temperatura mínima	16.3
150960	7	Sololá	712	San Antonio Palopó	9	San Antonio Palopo	1	Enero	2023-01-29T00:00:00	2024-11-08T23:00:00	5	Humedad	68
150961	7	Sololá	712	San Antonio Palopó	9	San Antonio Palopo	1	Enero	2023-01-29T00:00:00	2024-11-08T23:00:00	6	Velocidad del viento	17.7
150962	7	Sololá	712	San Antonio Palopó	9	San Antonio Palopo	1	Enero	2023-01-29T00:00:00	2024-11-08T23:00:00	7	Dirección del viento	17.7
150963	7	Sololá	712	San Antonio Palopó	9	San Antonio Palopo	1	Enero	2023-01-29T00:00:00	2024-11-08T23:00:00	1	Precipitación	0
150964	7	Sololá	712	San Antonio Palopó	9	San Antonio Palopo	1	Enero	2023-01-29T00:00:00	2024-11-08T23:00:00	8	Radiación solar	0
150965	7	Sololá	712	San Antonio Palopó	9	San Antonio Palopo	1	Enero	2023-01-30T00:00:00	2024-11-08T00:00:00	2	Temperatura media	15.7
150966	7	Sololá	712	San Antonio Palopó	9	San Antonio Palopo	1	Enero	2023-01-30T00:00:00	2024-11-08T00:00:00	4	Temperatura máxima	16.3
150967	7	Sololá	712	San Antonio Palopó	9	San Antonio Palopo	1	Enero	2023-01-30T00:00:00	2024-11-08T00:00:00	3	Temperatura mínima	15.7
150968	7	Sololá	712	San Antonio Palopó	9	San Antonio Palopo	1	Enero	2023-01-30T00:00:00	2024-11-08T00:00:00	5	Humedad	70
150969	7	Sololá	712	San Antonio Palopó	9	San Antonio Palopo	1	Enero	2023-01-30T00:00:00	2024-11-08T00:00:00	6	Velocidad del viento	19.3
150970	7	Sololá	712	San Antonio Palopó	9	San Antonio Palopo	1	Enero	2023-01-30T00:00:00	2024-11-08T00:00:00	7	Dirección del viento	19.31
150971	7	Sololá	712	San Antonio Palopó	9	San Antonio Palopo	1	Enero	2023-01-30T00:00:00	2024-11-08T00:00:00	1	Precipitación	0
150972	7	Sololá	712	San Antonio Palopó	9	San Antonio Palopo	1	Enero	2023-01-30T00:00:00	2024-11-08T00:00:00	8	Radiación solar	0
150973	7	Sololá	712	San Antonio Palopó	9	San Antonio Palopo	1	Enero	2023-01-30T00:00:00	2024-11-08T01:00:00	2	Temperatura media	15.6
150974	7	Sololá	712	San Antonio Palopó	9	San Antonio Palopo	1	Enero	2023-01-30T00:00:00	2024-11-08T01:00:00	4	Temperatura máxima	15.8
150975	7	Sololá	712	San Antonio Palopó	9	San Antonio Palopo	1	Enero	2023-01-30T00:00:00	2024-11-08T01:00:00	3	Temperatura mínima	15.4
150976	7	Sololá	712	San Antonio Palopó	9	San Antonio Palopo	1	Enero	2023-01-30T00:00:00	2024-11-08T01:00:00	5	Humedad	69
150977	7	Sololá	712	San Antonio Palopó	9	San Antonio Palopo	1	Enero	2023-01-30T00:00:00	2024-11-08T01:00:00	6	Velocidad del viento	17.7
150978	7	Sololá	712	San Antonio Palopó	9	San Antonio Palopo	1	Enero	2023-01-30T00:00:00	2024-11-08T01:00:00	7	Dirección del viento	17.7
150979	7	Sololá	712	San Antonio Palopó	9	San Antonio Palopo	1	Enero	2023-01-30T00:00:00	2024-11-08T01:00:00	1	Precipitación	0
150980	7	Sololá	712	San Antonio Palopó	9	San Antonio Palopo	1	Enero	2023-01-30T00:00:00	2024-11-08T01:00:00	8	Radiación solar	0
150981	7	Sololá	712	San Antonio Palopó	9	San Antonio Palopo	1	Enero	2023-01-30T00:00:00	2024-11-08T02:00:00	2	Temperatura media	15.6
150982	7	Sololá	712	San Antonio Palopó	9	San Antonio Palopo	1	Enero	2023-01-30T00:00:00	2024-11-08T02:00:00	4	Temperatura máxima	15.7
150983	7	Sololá	712	San Antonio Palopó	9	San Antonio Palopo	1	Enero	2023-01-30T00:00:00	2024-11-08T02:00:00	3	Temperatura mínima	15.5
150984	7	Sololá	712	San Antonio Palopó	9	San Antonio Palopo	1	Enero	2023-01-30T00:00:00	2024-11-08T02:00:00	5	Humedad	68
150985	7	Sololá	712	San Antonio Palopó	9	San Antonio Palopo	1	Enero	2023-01-30T00:00:00	2024-11-08T02:00:00	6	Velocidad del viento	14.5
150986	7	Sololá	712	San Antonio Palopó	9	San Antonio Palopo	1	Enero	2023-01-30T00:00:00	2024-11-08T02:00:00	7	Dirección del viento	14.48
150987	7	Sololá	712	San Antonio Palopó	9	San Antonio Palopo	1	Enero	2023-01-30T00:00:00	2024-11-08T02:00:00	1	Precipitación	0
150988	7	Sololá	712	San Antonio Palopó	9	San Antonio Palopo	1	Enero	2023-01-30T00:00:00	2024-11-08T02:00:00	8	Radiación solar	0
150989	7	Sololá	712	San Antonio Palopó	9	San Antonio Palopo	1	Enero	2023-01-30T00:00:00	2024-11-08T03:00:00	2	Temperatura media	15.4
150990	7	Sololá	712	San Antonio Palopó	9	San Antonio Palopo	1	Enero	2023-01-30T00:00:00	2024-11-08T03:00:00	4	Temperatura máxima	15.6
150991	7	Sololá	712	San Antonio Palopó	9	San Antonio Palopo	1	Enero	2023-01-30T00:00:00	2024-11-08T03:00:00	3	Temperatura mínima	15.4
150992	7	Sololá	712	San Antonio Palopó	9	San Antonio Palopo	1	Enero	2023-01-30T00:00:00	2024-11-08T03:00:00	5	Humedad	66
150993	7	Sololá	712	San Antonio Palopó	9	San Antonio Palopo	1	Enero	2023-01-30T00:00:00	2024-11-08T03:00:00	6	Velocidad del viento	8
150994	7	Sololá	712	San Antonio Palopó	9	San Antonio Palopo	1	Enero	2023-01-30T00:00:00	2024-11-08T03:00:00	7	Dirección del viento	8.05
150995	7	Sololá	712	San Antonio Palopó	9	San Antonio Palopo	1	Enero	2023-01-30T00:00:00	2024-11-08T03:00:00	1	Precipitación	0
150996	7	Sololá	712	San Antonio Palopó	9	San Antonio Palopo	1	Enero	2023-01-30T00:00:00	2024-11-08T03:00:00	8	Radiación solar	0
150997	7	Sololá	712	San Antonio Palopó	9	San Antonio Palopo	1	Enero	2023-01-30T00:00:00	2024-11-08T04:00:00	2	Temperatura media	14.4
150998	7	Sololá	712	San Antonio Palopó	9	San Antonio Palopo	1	Enero	2023-01-30T00:00:00	2024-11-08T04:00:00	4	Temperatura máxima	15.4
150999	7	Sololá	712	San Antonio Palopó	9	San Antonio Palopo	1	Enero	2023-01-30T00:00:00	2024-11-08T04:00:00	3	Temperatura mínima	14.4
151000	7	Sololá	712	San Antonio Palopó	9	San Antonio Palopo	1	Enero	2023-01-30T00:00:00	2024-11-08T04:00:00	5	Humedad	62
151001	7	Sololá	712	San Antonio Palopó	9	San Antonio Palopo	1	Enero	2023-01-30T00:00:00	2024-11-08T04:00:00	6	Velocidad del viento	3.2
151002	7	Sololá	712	San Antonio Palopó	9	San Antonio Palopo	1	Enero	2023-01-30T00:00:00	2024-11-08T04:00:00	7	Dirección del viento	3.22
151003	7	Sololá	712	San Antonio Palopó	9	San Antonio Palopo	1	Enero	2023-01-30T00:00:00	2024-11-08T04:00:00	1	Precipitación	0
151004	7	Sololá	712	San Antonio Palopó	9	San Antonio Palopo	1	Enero	2023-01-30T00:00:00	2024-11-08T04:00:00	8	Radiación solar	0
151005	7	Sololá	712	San Antonio Palopó	9	San Antonio Palopo	1	Enero	2023-01-30T00:00:00	2024-11-08T05:00:00	2	Temperatura media	13.9
151006	7	Sololá	712	San Antonio Palopó	9	San Antonio Palopo	1	Enero	2023-01-30T00:00:00	2024-11-08T05:00:00	4	Temperatura máxima	14.6
151007	7	Sololá	712	San Antonio Palopó	9	San Antonio Palopo	1	Enero	2023-01-30T00:00:00	2024-11-08T05:00:00	3	Temperatura mínima	13.8
151008	7	Sololá	712	San Antonio Palopó	9	San Antonio Palopo	1	Enero	2023-01-30T00:00:00	2024-11-08T05:00:00	5	Humedad	66
151009	7	Sololá	712	San Antonio Palopó	9	San Antonio Palopo	1	Enero	2023-01-30T00:00:00	2024-11-08T05:00:00	6	Velocidad del viento	3.2
151010	7	Sololá	712	San Antonio Palopó	9	San Antonio Palopo	1	Enero	2023-01-30T00:00:00	2024-11-08T05:00:00	7	Dirección del viento	3.22
151011	7	Sololá	712	San Antonio Palopó	9	San Antonio Palopo	1	Enero	2023-01-30T00:00:00	2024-11-08T05:00:00	1	Precipitación	0
151012	7	Sololá	712	San Antonio Palopó	9	San Antonio Palopo	1	Enero	2023-01-30T00:00:00	2024-11-08T05:00:00	8	Radiación solar	0
151013	7	Sololá	712	San Antonio Palopó	9	San Antonio Palopo	1	Enero	2023-01-30T00:00:00	2024-11-08T06:00:00	2	Temperatura media	14.4
151014	7	Sololá	712	San Antonio Palopó	9	San Antonio Palopo	1	Enero	2023-01-30T00:00:00	2024-11-08T06:00:00	4	Temperatura máxima	14.4
151015	7	Sololá	712	San Antonio Palopó	9	San Antonio Palopo	1	Enero	2023-01-30T00:00:00	2024-11-08T06:00:00	3	Temperatura mínima	13.6
151016	7	Sololá	712	San Antonio Palopó	9	San Antonio Palopo	1	Enero	2023-01-30T00:00:00	2024-11-08T06:00:00	5	Humedad	61
151017	7	Sololá	712	San Antonio Palopó	9	San Antonio Palopo	1	Enero	2023-01-30T00:00:00	2024-11-08T06:00:00	6	Velocidad del viento	4.8
151018	7	Sololá	712	San Antonio Palopó	9	San Antonio Palopo	1	Enero	2023-01-30T00:00:00	2024-11-08T06:00:00	7	Dirección del viento	4.83
151019	7	Sololá	712	San Antonio Palopó	9	San Antonio Palopo	1	Enero	2023-01-30T00:00:00	2024-11-08T06:00:00	1	Precipitación	0
151020	7	Sololá	712	San Antonio Palopó	9	San Antonio Palopo	1	Enero	2023-01-30T00:00:00	2024-11-08T06:00:00	8	Radiación solar	0
151021	7	Sololá	712	San Antonio Palopó	9	San Antonio Palopo	1	Enero	2023-01-30T00:00:00	2024-11-08T07:00:00	2	Temperatura media	14.8
151022	7	Sololá	712	San Antonio Palopó	9	San Antonio Palopo	1	Enero	2023-01-30T00:00:00	2024-11-08T07:00:00	4	Temperatura máxima	14.8
151023	7	Sololá	712	San Antonio Palopó	9	San Antonio Palopo	1	Enero	2023-01-30T00:00:00	2024-11-08T07:00:00	3	Temperatura mínima	14.4
151024	7	Sololá	712	San Antonio Palopó	9	San Antonio Palopo	1	Enero	2023-01-30T00:00:00	2024-11-08T07:00:00	5	Humedad	67
151025	7	Sololá	712	San Antonio Palopó	9	San Antonio Palopo	1	Enero	2023-01-30T00:00:00	2024-11-08T07:00:00	6	Velocidad del viento	3.2
151026	7	Sololá	712	San Antonio Palopó	9	San Antonio Palopo	1	Enero	2023-01-30T00:00:00	2024-11-08T07:00:00	7	Dirección del viento	3.22
151027	7	Sololá	712	San Antonio Palopó	9	San Antonio Palopo	1	Enero	2023-01-30T00:00:00	2024-11-08T07:00:00	1	Precipitación	0
151028	7	Sololá	712	San Antonio Palopó	9	San Antonio Palopo	1	Enero	2023-01-30T00:00:00	2024-11-08T07:00:00	8	Radiación solar	3
151029	7	Sololá	712	San Antonio Palopó	9	San Antonio Palopo	1	Enero	2023-01-30T00:00:00	2024-11-08T08:00:00	2	Temperatura media	15.3
151030	7	Sololá	712	San Antonio Palopó	9	San Antonio Palopo	1	Enero	2023-01-30T00:00:00	2024-11-08T08:00:00	4	Temperatura máxima	15.3
151031	7	Sololá	712	San Antonio Palopó	9	San Antonio Palopo	1	Enero	2023-01-30T00:00:00	2024-11-08T08:00:00	3	Temperatura mínima	14.4
151032	7	Sololá	712	San Antonio Palopó	9	San Antonio Palopo	1	Enero	2023-01-30T00:00:00	2024-11-08T08:00:00	5	Humedad	65
151033	7	Sololá	712	San Antonio Palopó	9	San Antonio Palopo	1	Enero	2023-01-30T00:00:00	2024-11-08T08:00:00	6	Velocidad del viento	4.8
151034	7	Sololá	712	San Antonio Palopó	9	San Antonio Palopo	1	Enero	2023-01-30T00:00:00	2024-11-08T08:00:00	7	Dirección del viento	4.83
151035	7	Sololá	712	San Antonio Palopó	9	San Antonio Palopo	1	Enero	2023-01-30T00:00:00	2024-11-08T08:00:00	1	Precipitación	0
151036	7	Sololá	712	San Antonio Palopó	9	San Antonio Palopo	1	Enero	2023-01-30T00:00:00	2024-11-08T08:00:00	8	Radiación solar	16
151037	7	Sololá	712	San Antonio Palopó	9	San Antonio Palopo	1	Enero	2023-01-30T00:00:00	2024-11-08T09:00:00	2	Temperatura media	16.8
151038	7	Sololá	712	San Antonio Palopó	9	San Antonio Palopo	1	Enero	2023-01-30T00:00:00	2024-11-08T09:00:00	4	Temperatura máxima	16.8
151039	7	Sololá	712	San Antonio Palopó	9	San Antonio Palopo	1	Enero	2023-01-30T00:00:00	2024-11-08T09:00:00	3	Temperatura mínima	15.3
151040	7	Sololá	712	San Antonio Palopó	9	San Antonio Palopo	1	Enero	2023-01-30T00:00:00	2024-11-08T09:00:00	5	Humedad	66
151041	7	Sololá	712	San Antonio Palopó	9	San Antonio Palopo	1	Enero	2023-01-30T00:00:00	2024-11-08T09:00:00	6	Velocidad del viento	4.8
151042	7	Sololá	712	San Antonio Palopó	9	San Antonio Palopo	1	Enero	2023-01-30T00:00:00	2024-11-08T09:00:00	7	Dirección del viento	4.83
151043	7	Sololá	712	San Antonio Palopó	9	San Antonio Palopo	1	Enero	2023-01-30T00:00:00	2024-11-08T09:00:00	1	Precipitación	0
151044	7	Sololá	712	San Antonio Palopó	9	San Antonio Palopo	1	Enero	2023-01-30T00:00:00	2024-11-08T09:00:00	8	Radiación solar	171
151045	7	Sololá	712	San Antonio Palopó	9	San Antonio Palopo	1	Enero	2023-01-30T00:00:00	2024-11-08T10:00:00	2	Temperatura media	18.1
151046	7	Sololá	712	San Antonio Palopó	9	San Antonio Palopo	1	Enero	2023-01-30T00:00:00	2024-11-08T10:00:00	4	Temperatura máxima	18.4
151047	7	Sololá	712	San Antonio Palopó	9	San Antonio Palopo	1	Enero	2023-01-30T00:00:00	2024-11-08T10:00:00	3	Temperatura mínima	16.8
151048	7	Sololá	712	San Antonio Palopó	9	San Antonio Palopo	1	Enero	2023-01-30T00:00:00	2024-11-08T10:00:00	5	Humedad	64
151049	7	Sololá	712	San Antonio Palopó	9	San Antonio Palopo	1	Enero	2023-01-30T00:00:00	2024-11-08T10:00:00	6	Velocidad del viento	3.2
151050	7	Sololá	712	San Antonio Palopó	9	San Antonio Palopo	1	Enero	2023-01-30T00:00:00	2024-11-08T10:00:00	7	Dirección del viento	3.22
151051	7	Sololá	712	San Antonio Palopó	9	San Antonio Palopo	1	Enero	2023-01-30T00:00:00	2024-11-08T10:00:00	1	Precipitación	0
151052	7	Sololá	712	San Antonio Palopó	9	San Antonio Palopo	1	Enero	2023-01-30T00:00:00	2024-11-08T10:00:00	8	Radiación solar	550
151053	7	Sololá	712	San Antonio Palopó	9	San Antonio Palopo	1	Enero	2023-01-30T00:00:00	2024-11-08T11:00:00	2	Temperatura media	19.1
151054	7	Sololá	712	San Antonio Palopó	9	San Antonio Palopo	1	Enero	2023-01-30T00:00:00	2024-11-08T11:00:00	4	Temperatura máxima	19.1
151055	7	Sololá	712	San Antonio Palopó	9	San Antonio Palopo	1	Enero	2023-01-30T00:00:00	2024-11-08T11:00:00	3	Temperatura mínima	18
151056	7	Sololá	712	San Antonio Palopó	9	San Antonio Palopo	1	Enero	2023-01-30T00:00:00	2024-11-08T11:00:00	5	Humedad	64
151057	7	Sololá	712	San Antonio Palopó	9	San Antonio Palopo	1	Enero	2023-01-30T00:00:00	2024-11-08T11:00:00	6	Velocidad del viento	3.2
151058	7	Sololá	712	San Antonio Palopó	9	San Antonio Palopo	1	Enero	2023-01-30T00:00:00	2024-11-08T11:00:00	7	Dirección del viento	3.22
151059	7	Sololá	712	San Antonio Palopó	9	San Antonio Palopo	1	Enero	2023-01-30T00:00:00	2024-11-08T11:00:00	1	Precipitación	0
151060	7	Sololá	712	San Antonio Palopó	9	San Antonio Palopo	1	Enero	2023-01-30T00:00:00	2024-11-08T11:00:00	8	Radiación solar	689
151061	7	Sololá	712	San Antonio Palopó	9	San Antonio Palopo	1	Enero	2023-01-30T00:00:00	2024-11-08T12:00:00	2	Temperatura media	21.8
151062	7	Sololá	712	San Antonio Palopó	9	San Antonio Palopo	1	Enero	2023-01-30T00:00:00	2024-11-08T12:00:00	4	Temperatura máxima	21.8
151063	7	Sololá	712	San Antonio Palopó	9	San Antonio Palopo	1	Enero	2023-01-30T00:00:00	2024-11-08T12:00:00	3	Temperatura mínima	19.1
151064	7	Sololá	712	San Antonio Palopó	9	San Antonio Palopo	1	Enero	2023-01-30T00:00:00	2024-11-08T12:00:00	5	Humedad	50
151065	7	Sololá	712	San Antonio Palopó	9	San Antonio Palopo	1	Enero	2023-01-30T00:00:00	2024-11-08T12:00:00	6	Velocidad del viento	3.2
151066	7	Sololá	712	San Antonio Palopó	9	San Antonio Palopo	1	Enero	2023-01-30T00:00:00	2024-11-08T12:00:00	7	Dirección del viento	3.22
151067	7	Sololá	712	San Antonio Palopó	9	San Antonio Palopo	1	Enero	2023-01-30T00:00:00	2024-11-08T12:00:00	1	Precipitación	0
151068	7	Sololá	712	San Antonio Palopó	9	San Antonio Palopo	1	Enero	2023-01-30T00:00:00	2024-11-08T12:00:00	8	Radiación solar	692
151069	7	Sololá	712	San Antonio Palopó	9	San Antonio Palopo	1	Enero	2023-01-30T00:00:00	2024-11-08T13:00:00	2	Temperatura media	21.8
151070	7	Sololá	712	San Antonio Palopó	9	San Antonio Palopo	1	Enero	2023-01-30T00:00:00	2024-11-08T13:00:00	4	Temperatura máxima	22.6
151071	7	Sololá	712	San Antonio Palopó	9	San Antonio Palopo	1	Enero	2023-01-30T00:00:00	2024-11-08T13:00:00	3	Temperatura mínima	21.7
151072	7	Sololá	712	San Antonio Palopó	9	San Antonio Palopo	1	Enero	2023-01-30T00:00:00	2024-11-08T13:00:00	5	Humedad	58
151073	7	Sololá	712	San Antonio Palopó	9	San Antonio Palopo	1	Enero	2023-01-30T00:00:00	2024-11-08T13:00:00	6	Velocidad del viento	3.2
151074	7	Sololá	712	San Antonio Palopó	9	San Antonio Palopo	1	Enero	2023-01-30T00:00:00	2024-11-08T13:00:00	7	Dirección del viento	3.22
151075	7	Sololá	712	San Antonio Palopó	9	San Antonio Palopo	1	Enero	2023-01-30T00:00:00	2024-11-08T13:00:00	1	Precipitación	0
151076	7	Sololá	712	San Antonio Palopó	9	San Antonio Palopo	1	Enero	2023-01-30T00:00:00	2024-11-08T13:00:00	8	Radiación solar	790
151077	7	Sololá	712	San Antonio Palopó	9	San Antonio Palopo	1	Enero	2023-01-30T00:00:00	2024-11-08T14:00:00	2	Temperatura media	23.9
151078	7	Sololá	712	San Antonio Palopó	9	San Antonio Palopo	1	Enero	2023-01-30T00:00:00	2024-11-08T14:00:00	4	Temperatura máxima	24.1
151079	7	Sololá	712	San Antonio Palopó	9	San Antonio Palopo	1	Enero	2023-01-30T00:00:00	2024-11-08T14:00:00	3	Temperatura mínima	21.7
151080	7	Sololá	712	San Antonio Palopó	9	San Antonio Palopo	1	Enero	2023-01-30T00:00:00	2024-11-08T14:00:00	5	Humedad	53
151081	7	Sololá	712	San Antonio Palopó	9	San Antonio Palopo	1	Enero	2023-01-30T00:00:00	2024-11-08T14:00:00	6	Velocidad del viento	6.4
151082	7	Sololá	712	San Antonio Palopó	9	San Antonio Palopo	1	Enero	2023-01-30T00:00:00	2024-11-08T14:00:00	7	Dirección del viento	6.44
151083	7	Sololá	712	San Antonio Palopó	9	San Antonio Palopo	1	Enero	2023-01-30T00:00:00	2024-11-08T14:00:00	1	Precipitación	0
151084	7	Sololá	712	San Antonio Palopó	9	San Antonio Palopo	1	Enero	2023-01-30T00:00:00	2024-11-08T14:00:00	8	Radiación solar	738
151085	7	Sololá	712	San Antonio Palopó	9	San Antonio Palopo	1	Enero	2023-01-30T00:00:00	2024-11-08T15:00:00	2	Temperatura media	23.5
151086	7	Sololá	712	San Antonio Palopó	9	San Antonio Palopo	1	Enero	2023-01-30T00:00:00	2024-11-08T15:00:00	4	Temperatura máxima	24.1
151087	7	Sololá	712	San Antonio Palopó	9	San Antonio Palopo	1	Enero	2023-01-30T00:00:00	2024-11-08T15:00:00	3	Temperatura mínima	23.4
151088	7	Sololá	712	San Antonio Palopó	9	San Antonio Palopo	1	Enero	2023-01-30T00:00:00	2024-11-08T15:00:00	5	Humedad	54
151089	7	Sololá	712	San Antonio Palopó	9	San Antonio Palopo	1	Enero	2023-01-30T00:00:00	2024-11-08T15:00:00	6	Velocidad del viento	8
151090	7	Sololá	712	San Antonio Palopó	9	San Antonio Palopo	1	Enero	2023-01-30T00:00:00	2024-11-08T15:00:00	7	Dirección del viento	8.05
151091	7	Sololá	712	San Antonio Palopó	9	San Antonio Palopo	1	Enero	2023-01-30T00:00:00	2024-11-08T15:00:00	1	Precipitación	0
151092	7	Sololá	712	San Antonio Palopó	9	San Antonio Palopo	1	Enero	2023-01-30T00:00:00	2024-11-08T15:00:00	8	Radiación solar	616
151093	7	Sololá	712	San Antonio Palopó	9	San Antonio Palopo	1	Enero	2023-01-30T00:00:00	2024-11-08T16:00:00	2	Temperatura media	23.1
151094	7	Sololá	712	San Antonio Palopó	9	San Antonio Palopo	1	Enero	2023-01-30T00:00:00	2024-11-08T16:00:00	4	Temperatura máxima	23.7
151095	7	Sololá	712	San Antonio Palopó	9	San Antonio Palopo	1	Enero	2023-01-30T00:00:00	2024-11-08T16:00:00	3	Temperatura mínima	22.9
151096	7	Sololá	712	San Antonio Palopó	9	San Antonio Palopo	1	Enero	2023-01-30T00:00:00	2024-11-08T16:00:00	5	Humedad	59
151097	7	Sololá	712	San Antonio Palopó	9	San Antonio Palopo	1	Enero	2023-01-30T00:00:00	2024-11-08T16:00:00	6	Velocidad del viento	9.7
151098	7	Sololá	712	San Antonio Palopó	9	San Antonio Palopo	1	Enero	2023-01-30T00:00:00	2024-11-08T16:00:00	7	Dirección del viento	9.66
151099	7	Sololá	712	San Antonio Palopó	9	San Antonio Palopo	1	Enero	2023-01-30T00:00:00	2024-11-08T16:00:00	1	Precipitación	0
151100	7	Sololá	712	San Antonio Palopó	9	San Antonio Palopo	1	Enero	2023-01-30T00:00:00	2024-11-08T16:00:00	8	Radiación solar	442
151101	7	Sololá	712	San Antonio Palopó	9	San Antonio Palopo	1	Enero	2023-01-30T00:00:00	2024-11-08T17:00:00	2	Temperatura media	22.6
151102	7	Sololá	712	San Antonio Palopó	9	San Antonio Palopo	1	Enero	2023-01-30T00:00:00	2024-11-08T17:00:00	4	Temperatura máxima	23.2
151103	7	Sololá	712	San Antonio Palopó	9	San Antonio Palopo	1	Enero	2023-01-30T00:00:00	2024-11-08T17:00:00	3	Temperatura mínima	22.6
151104	7	Sololá	712	San Antonio Palopó	9	San Antonio Palopo	1	Enero	2023-01-30T00:00:00	2024-11-08T17:00:00	5	Humedad	60
151105	7	Sololá	712	San Antonio Palopó	9	San Antonio Palopo	1	Enero	2023-01-30T00:00:00	2024-11-08T17:00:00	6	Velocidad del viento	8
151106	7	Sololá	712	San Antonio Palopó	9	San Antonio Palopo	1	Enero	2023-01-30T00:00:00	2024-11-08T17:00:00	7	Dirección del viento	8.05
151107	7	Sololá	712	San Antonio Palopó	9	San Antonio Palopo	1	Enero	2023-01-30T00:00:00	2024-11-08T17:00:00	1	Precipitación	0
151108	7	Sololá	712	San Antonio Palopó	9	San Antonio Palopo	1	Enero	2023-01-30T00:00:00	2024-11-08T17:00:00	8	Radiación solar	238
151109	7	Sololá	712	San Antonio Palopó	9	San Antonio Palopo	1	Enero	2023-01-30T00:00:00	2024-11-08T18:00:00	2	Temperatura media	21.2
151110	7	Sololá	712	San Antonio Palopó	9	San Antonio Palopo	1	Enero	2023-01-30T00:00:00	2024-11-08T18:00:00	4	Temperatura máxima	22.6
151111	7	Sololá	712	San Antonio Palopó	9	San Antonio Palopo	1	Enero	2023-01-30T00:00:00	2024-11-08T18:00:00	3	Temperatura mínima	21.2
151112	7	Sololá	712	San Antonio Palopó	9	San Antonio Palopo	1	Enero	2023-01-30T00:00:00	2024-11-08T18:00:00	5	Humedad	62
151113	7	Sololá	712	San Antonio Palopó	9	San Antonio Palopo	1	Enero	2023-01-30T00:00:00	2024-11-08T18:00:00	6	Velocidad del viento	4.8
151114	7	Sololá	712	San Antonio Palopó	9	San Antonio Palopo	1	Enero	2023-01-30T00:00:00	2024-11-08T18:00:00	7	Dirección del viento	4.83
151115	7	Sololá	712	San Antonio Palopó	9	San Antonio Palopo	1	Enero	2023-01-30T00:00:00	2024-11-08T18:00:00	1	Precipitación	0
151116	7	Sololá	712	San Antonio Palopó	9	San Antonio Palopo	1	Enero	2023-01-30T00:00:00	2024-11-08T18:00:00	8	Radiación solar	46
151117	7	Sololá	712	San Antonio Palopó	9	San Antonio Palopo	1	Enero	2023-01-30T00:00:00	2024-11-08T19:00:00	2	Temperatura media	19.3
151118	7	Sololá	712	San Antonio Palopó	9	San Antonio Palopo	1	Enero	2023-01-30T00:00:00	2024-11-08T19:00:00	4	Temperatura máxima	21.2
151119	7	Sololá	712	San Antonio Palopó	9	San Antonio Palopo	1	Enero	2023-01-30T00:00:00	2024-11-08T19:00:00	3	Temperatura mínima	19.1
151120	7	Sololá	712	San Antonio Palopó	9	San Antonio Palopo	1	Enero	2023-01-30T00:00:00	2024-11-08T19:00:00	5	Humedad	64
151121	7	Sololá	712	San Antonio Palopó	9	San Antonio Palopo	1	Enero	2023-01-30T00:00:00	2024-11-08T19:00:00	6	Velocidad del viento	1.6
151122	7	Sololá	712	San Antonio Palopó	9	San Antonio Palopo	1	Enero	2023-01-30T00:00:00	2024-11-08T19:00:00	7	Dirección del viento	1.61
151123	7	Sololá	712	San Antonio Palopó	9	San Antonio Palopo	1	Enero	2023-01-30T00:00:00	2024-11-08T19:00:00	1	Precipitación	0
151124	7	Sololá	712	San Antonio Palopó	9	San Antonio Palopo	1	Enero	2023-01-30T00:00:00	2024-11-08T19:00:00	8	Radiación solar	0
151125	7	Sololá	712	San Antonio Palopó	9	San Antonio Palopo	1	Enero	2023-01-30T00:00:00	2024-11-08T20:00:00	2	Temperatura media	19.2
151126	7	Sololá	712	San Antonio Palopó	9	San Antonio Palopo	1	Enero	2023-01-30T00:00:00	2024-11-08T20:00:00	4	Temperatura máxima	19.6
151127	7	Sololá	712	San Antonio Palopó	9	San Antonio Palopo	1	Enero	2023-01-30T00:00:00	2024-11-08T20:00:00	3	Temperatura mínima	18.9
151128	7	Sololá	712	San Antonio Palopó	9	San Antonio Palopo	1	Enero	2023-01-30T00:00:00	2024-11-08T20:00:00	5	Humedad	65
151129	7	Sololá	712	San Antonio Palopó	9	San Antonio Palopo	1	Enero	2023-01-30T00:00:00	2024-11-08T20:00:00	6	Velocidad del viento	6.4
151130	7	Sololá	712	San Antonio Palopó	9	San Antonio Palopo	1	Enero	2023-01-30T00:00:00	2024-11-08T20:00:00	7	Dirección del viento	6.44
151131	7	Sololá	712	San Antonio Palopó	9	San Antonio Palopo	1	Enero	2023-01-30T00:00:00	2024-11-08T20:00:00	1	Precipitación	0
151132	7	Sololá	712	San Antonio Palopó	9	San Antonio Palopo	1	Enero	2023-01-30T00:00:00	2024-11-08T20:00:00	8	Radiación solar	0
151133	7	Sololá	712	San Antonio Palopó	9	San Antonio Palopo	1	Enero	2023-01-30T00:00:00	2024-11-08T21:00:00	2	Temperatura media	18.7
151134	7	Sololá	712	San Antonio Palopó	9	San Antonio Palopo	1	Enero	2023-01-30T00:00:00	2024-11-08T21:00:00	4	Temperatura máxima	19.2
151135	7	Sololá	712	San Antonio Palopó	9	San Antonio Palopo	1	Enero	2023-01-30T00:00:00	2024-11-08T21:00:00	3	Temperatura mínima	18.7
151136	7	Sololá	712	San Antonio Palopó	9	San Antonio Palopo	1	Enero	2023-01-30T00:00:00	2024-11-08T21:00:00	5	Humedad	67
151137	7	Sololá	712	San Antonio Palopó	9	San Antonio Palopo	1	Enero	2023-01-30T00:00:00	2024-11-08T21:00:00	6	Velocidad del viento	8
151138	7	Sololá	712	San Antonio Palopó	9	San Antonio Palopo	1	Enero	2023-01-30T00:00:00	2024-11-08T21:00:00	7	Dirección del viento	8.05
151139	7	Sololá	712	San Antonio Palopó	9	San Antonio Palopo	1	Enero	2023-01-30T00:00:00	2024-11-08T21:00:00	1	Precipitación	0
151140	7	Sololá	712	San Antonio Palopó	9	San Antonio Palopo	1	Enero	2023-01-30T00:00:00	2024-11-08T21:00:00	8	Radiación solar	0
151141	7	Sololá	712	San Antonio Palopó	9	San Antonio Palopo	1	Enero	2023-01-30T00:00:00	2024-11-08T22:00:00	2	Temperatura media	17.9
151142	7	Sololá	712	San Antonio Palopó	9	San Antonio Palopo	1	Enero	2023-01-30T00:00:00	2024-11-08T22:00:00	4	Temperatura máxima	18.8
151143	7	Sololá	712	San Antonio Palopó	9	San Antonio Palopo	1	Enero	2023-01-30T00:00:00	2024-11-08T22:00:00	3	Temperatura mínima	17.9
151144	7	Sololá	712	San Antonio Palopó	9	San Antonio Palopo	1	Enero	2023-01-30T00:00:00	2024-11-08T22:00:00	5	Humedad	69
151145	7	Sololá	712	San Antonio Palopó	9	San Antonio Palopo	1	Enero	2023-01-30T00:00:00	2024-11-08T22:00:00	6	Velocidad del viento	4.8
151146	7	Sololá	712	San Antonio Palopó	9	San Antonio Palopo	1	Enero	2023-01-30T00:00:00	2024-11-08T22:00:00	7	Dirección del viento	4.83
151147	7	Sololá	712	San Antonio Palopó	9	San Antonio Palopo	1	Enero	2023-01-30T00:00:00	2024-11-08T22:00:00	1	Precipitación	0
151148	7	Sololá	712	San Antonio Palopó	9	San Antonio Palopo	1	Enero	2023-01-30T00:00:00	2024-11-08T22:00:00	8	Radiación solar	0
151149	7	Sololá	712	San Antonio Palopó	9	San Antonio Palopo	1	Enero	2023-01-30T00:00:00	2024-11-08T23:00:00	2	Temperatura media	17.7
151150	7	Sololá	712	San Antonio Palopó	9	San Antonio Palopo	1	Enero	2023-01-30T00:00:00	2024-11-08T23:00:00	4	Temperatura máxima	18.1
151151	7	Sololá	712	San Antonio Palopó	9	San Antonio Palopo	1	Enero	2023-01-30T00:00:00	2024-11-08T23:00:00	3	Temperatura mínima	17.6
151152	7	Sololá	712	San Antonio Palopó	9	San Antonio Palopo	1	Enero	2023-01-30T00:00:00	2024-11-08T23:00:00	5	Humedad	69
151153	7	Sololá	712	San Antonio Palopó	9	San Antonio Palopo	1	Enero	2023-01-30T00:00:00	2024-11-08T23:00:00	6	Velocidad del viento	8
151154	7	Sololá	712	San Antonio Palopó	9	San Antonio Palopo	1	Enero	2023-01-30T00:00:00	2024-11-08T23:00:00	7	Dirección del viento	8.05
151155	7	Sololá	712	San Antonio Palopó	9	San Antonio Palopo	1	Enero	2023-01-30T00:00:00	2024-11-08T23:00:00	1	Precipitación	0
151156	7	Sololá	712	San Antonio Palopó	9	San Antonio Palopo	1	Enero	2023-01-30T00:00:00	2024-11-08T23:00:00	8	Radiación solar	0
151157	7	Sololá	712	San Antonio Palopó	9	San Antonio Palopo	1	Enero	2023-01-31T00:00:00	2024-11-08T00:00:00	2	Temperatura media	17.2
151158	7	Sololá	712	San Antonio Palopó	9	San Antonio Palopo	1	Enero	2023-01-31T00:00:00	2024-11-08T00:00:00	4	Temperatura máxima	17.7
151159	7	Sololá	712	San Antonio Palopó	9	San Antonio Palopo	1	Enero	2023-01-31T00:00:00	2024-11-08T00:00:00	3	Temperatura mínima	17.2
151160	7	Sololá	712	San Antonio Palopó	9	San Antonio Palopo	1	Enero	2023-01-31T00:00:00	2024-11-08T00:00:00	5	Humedad	69
151161	7	Sololá	712	San Antonio Palopó	9	San Antonio Palopo	1	Enero	2023-01-31T00:00:00	2024-11-08T00:00:00	6	Velocidad del viento	8
151162	7	Sololá	712	San Antonio Palopó	9	San Antonio Palopo	1	Enero	2023-01-31T00:00:00	2024-11-08T00:00:00	7	Dirección del viento	8.05
151163	7	Sololá	712	San Antonio Palopó	9	San Antonio Palopo	1	Enero	2023-01-31T00:00:00	2024-11-08T00:00:00	1	Precipitación	0
151164	7	Sololá	712	San Antonio Palopó	9	San Antonio Palopo	1	Enero	2023-01-31T00:00:00	2024-11-08T00:00:00	8	Radiación solar	0
151165	7	Sololá	712	San Antonio Palopó	9	San Antonio Palopo	1	Enero	2023-01-31T00:00:00	2024-11-08T01:00:00	2	Temperatura media	16.6
151166	7	Sololá	712	San Antonio Palopó	9	San Antonio Palopo	1	Enero	2023-01-31T00:00:00	2024-11-08T01:00:00	4	Temperatura máxima	17.2
151167	7	Sololá	712	San Antonio Palopó	9	San Antonio Palopo	1	Enero	2023-01-31T00:00:00	2024-11-08T01:00:00	3	Temperatura mínima	16.3
151168	7	Sololá	712	San Antonio Palopó	9	San Antonio Palopo	1	Enero	2023-01-31T00:00:00	2024-11-08T01:00:00	5	Humedad	69
151169	7	Sololá	712	San Antonio Palopó	9	San Antonio Palopo	1	Enero	2023-01-31T00:00:00	2024-11-08T01:00:00	6	Velocidad del viento	6.4
151170	7	Sololá	712	San Antonio Palopó	9	San Antonio Palopo	1	Enero	2023-01-31T00:00:00	2024-11-08T01:00:00	7	Dirección del viento	6.44
151171	7	Sololá	712	San Antonio Palopó	9	San Antonio Palopo	1	Enero	2023-01-31T00:00:00	2024-11-08T01:00:00	1	Precipitación	0
151172	7	Sololá	712	San Antonio Palopó	9	San Antonio Palopo	1	Enero	2023-01-31T00:00:00	2024-11-08T01:00:00	8	Radiación solar	0
151173	7	Sololá	712	San Antonio Palopó	9	San Antonio Palopo	1	Enero	2023-01-31T00:00:00	2024-11-08T02:00:00	2	Temperatura media	16.2
151174	7	Sololá	712	San Antonio Palopó	9	San Antonio Palopo	1	Enero	2023-01-31T00:00:00	2024-11-08T02:00:00	4	Temperatura máxima	16.8
151175	7	Sololá	712	San Antonio Palopó	9	San Antonio Palopo	1	Enero	2023-01-31T00:00:00	2024-11-08T02:00:00	3	Temperatura mínima	16.1
151176	7	Sololá	712	San Antonio Palopó	9	San Antonio Palopo	1	Enero	2023-01-31T00:00:00	2024-11-08T02:00:00	5	Humedad	67
151177	7	Sololá	712	San Antonio Palopó	9	San Antonio Palopo	1	Enero	2023-01-31T00:00:00	2024-11-08T02:00:00	6	Velocidad del viento	9.7
151178	7	Sololá	712	San Antonio Palopó	9	San Antonio Palopo	1	Enero	2023-01-31T00:00:00	2024-11-08T02:00:00	7	Dirección del viento	9.66
151179	7	Sololá	712	San Antonio Palopó	9	San Antonio Palopo	1	Enero	2023-01-31T00:00:00	2024-11-08T02:00:00	1	Precipitación	0
151180	7	Sololá	712	San Antonio Palopó	9	San Antonio Palopo	1	Enero	2023-01-31T00:00:00	2024-11-08T02:00:00	8	Radiación solar	0
151181	7	Sololá	712	San Antonio Palopó	9	San Antonio Palopo	1	Enero	2023-01-31T00:00:00	2024-11-08T03:00:00	2	Temperatura media	16.2
151182	7	Sololá	712	San Antonio Palopó	9	San Antonio Palopo	1	Enero	2023-01-31T00:00:00	2024-11-08T03:00:00	4	Temperatura máxima	16.3
151183	7	Sololá	712	San Antonio Palopó	9	San Antonio Palopo	1	Enero	2023-01-31T00:00:00	2024-11-08T03:00:00	3	Temperatura mínima	16.1
151184	7	Sololá	712	San Antonio Palopó	9	San Antonio Palopo	1	Enero	2023-01-31T00:00:00	2024-11-08T03:00:00	5	Humedad	65
151185	7	Sololá	712	San Antonio Palopó	9	San Antonio Palopo	1	Enero	2023-01-31T00:00:00	2024-11-08T03:00:00	6	Velocidad del viento	12.9
151186	7	Sololá	712	San Antonio Palopó	9	San Antonio Palopo	1	Enero	2023-01-31T00:00:00	2024-11-08T03:00:00	7	Dirección del viento	12.87
151187	7	Sololá	712	San Antonio Palopó	9	San Antonio Palopo	1	Enero	2023-01-31T00:00:00	2024-11-08T03:00:00	1	Precipitación	0
151188	7	Sololá	712	San Antonio Palopó	9	San Antonio Palopo	1	Enero	2023-01-31T00:00:00	2024-11-08T03:00:00	8	Radiación solar	0
151189	7	Sololá	712	San Antonio Palopó	9	San Antonio Palopo	1	Enero	2023-01-31T00:00:00	2024-11-08T04:00:00	2	Temperatura media	15.4
151190	7	Sololá	712	San Antonio Palopó	9	San Antonio Palopo	1	Enero	2023-01-31T00:00:00	2024-11-08T04:00:00	4	Temperatura máxima	16.2
151191	7	Sololá	712	San Antonio Palopó	9	San Antonio Palopo	1	Enero	2023-01-31T00:00:00	2024-11-08T04:00:00	3	Temperatura mínima	15.4
151192	7	Sololá	712	San Antonio Palopó	9	San Antonio Palopo	1	Enero	2023-01-31T00:00:00	2024-11-08T04:00:00	5	Humedad	70
151193	7	Sololá	712	San Antonio Palopó	9	San Antonio Palopo	1	Enero	2023-01-31T00:00:00	2024-11-08T04:00:00	6	Velocidad del viento	16.1
151194	7	Sololá	712	San Antonio Palopó	9	San Antonio Palopo	1	Enero	2023-01-31T00:00:00	2024-11-08T04:00:00	7	Dirección del viento	16.09
151195	7	Sololá	712	San Antonio Palopó	9	San Antonio Palopo	1	Enero	2023-01-31T00:00:00	2024-11-08T04:00:00	1	Precipitación	0
151196	7	Sololá	712	San Antonio Palopó	9	San Antonio Palopo	1	Enero	2023-01-31T00:00:00	2024-11-08T04:00:00	8	Radiación solar	0
151197	7	Sololá	712	San Antonio Palopó	9	San Antonio Palopo	1	Enero	2023-01-31T00:00:00	2024-11-08T05:00:00	2	Temperatura media	15.2
151198	7	Sololá	712	San Antonio Palopó	9	San Antonio Palopo	1	Enero	2023-01-31T00:00:00	2024-11-08T05:00:00	4	Temperatura máxima	15.4
151199	7	Sololá	712	San Antonio Palopó	9	San Antonio Palopo	1	Enero	2023-01-31T00:00:00	2024-11-08T05:00:00	3	Temperatura mínima	14.9
151200	7	Sololá	712	San Antonio Palopó	9	San Antonio Palopo	1	Enero	2023-01-31T00:00:00	2024-11-08T05:00:00	5	Humedad	71
151201	7	Sololá	712	San Antonio Palopó	9	San Antonio Palopo	1	Enero	2023-01-31T00:00:00	2024-11-08T05:00:00	6	Velocidad del viento	22.5
151202	7	Sololá	712	San Antonio Palopó	9	San Antonio Palopo	1	Enero	2023-01-31T00:00:00	2024-11-08T05:00:00	7	Dirección del viento	22.53
151203	7	Sololá	712	San Antonio Palopó	9	San Antonio Palopo	1	Enero	2023-01-31T00:00:00	2024-11-08T05:00:00	1	Precipitación	0
151204	7	Sololá	712	San Antonio Palopó	9	San Antonio Palopo	1	Enero	2023-01-31T00:00:00	2024-11-08T05:00:00	8	Radiación solar	0
151205	7	Sololá	712	San Antonio Palopó	9	San Antonio Palopo	1	Enero	2023-01-31T00:00:00	2024-11-08T06:00:00	2	Temperatura media	15.7
151206	7	Sololá	712	San Antonio Palopó	9	San Antonio Palopo	1	Enero	2023-01-31T00:00:00	2024-11-08T06:00:00	4	Temperatura máxima	15.8
151207	7	Sololá	712	San Antonio Palopó	9	San Antonio Palopo	1	Enero	2023-01-31T00:00:00	2024-11-08T06:00:00	3	Temperatura mínima	15.1
151208	7	Sololá	712	San Antonio Palopó	9	San Antonio Palopo	1	Enero	2023-01-31T00:00:00	2024-11-08T06:00:00	5	Humedad	68
151209	7	Sololá	712	San Antonio Palopó	9	San Antonio Palopo	1	Enero	2023-01-31T00:00:00	2024-11-08T06:00:00	6	Velocidad del viento	20.9
151210	7	Sololá	712	San Antonio Palopó	9	San Antonio Palopo	1	Enero	2023-01-31T00:00:00	2024-11-08T06:00:00	7	Dirección del viento	20.92
151211	7	Sololá	712	San Antonio Palopó	9	San Antonio Palopo	1	Enero	2023-01-31T00:00:00	2024-11-08T06:00:00	1	Precipitación	0
151212	7	Sololá	712	San Antonio Palopó	9	San Antonio Palopo	1	Enero	2023-01-31T00:00:00	2024-11-08T06:00:00	8	Radiación solar	0
151213	7	Sololá	712	San Antonio Palopó	9	San Antonio Palopo	1	Enero	2023-01-31T00:00:00	2024-11-08T07:00:00	2	Temperatura media	16.6
151214	7	Sololá	712	San Antonio Palopó	9	San Antonio Palopo	1	Enero	2023-01-31T00:00:00	2024-11-08T07:00:00	4	Temperatura máxima	16.6
151215	7	Sololá	712	San Antonio Palopó	9	San Antonio Palopo	1	Enero	2023-01-31T00:00:00	2024-11-08T07:00:00	3	Temperatura mínima	15.7
151216	7	Sololá	712	San Antonio Palopó	9	San Antonio Palopo	1	Enero	2023-01-31T00:00:00	2024-11-08T07:00:00	5	Humedad	65
151217	7	Sololá	712	San Antonio Palopó	9	San Antonio Palopo	1	Enero	2023-01-31T00:00:00	2024-11-08T07:00:00	6	Velocidad del viento	20.9
151218	7	Sololá	712	San Antonio Palopó	9	San Antonio Palopo	1	Enero	2023-01-31T00:00:00	2024-11-08T07:00:00	7	Dirección del viento	20.92
151219	7	Sololá	712	San Antonio Palopó	9	San Antonio Palopo	1	Enero	2023-01-31T00:00:00	2024-11-08T07:00:00	1	Precipitación	0
151220	7	Sololá	712	San Antonio Palopó	9	San Antonio Palopo	1	Enero	2023-01-31T00:00:00	2024-11-08T07:00:00	8	Radiación solar	3
151221	7	Sololá	712	San Antonio Palopó	9	San Antonio Palopo	1	Enero	2023-01-31T00:00:00	2024-11-08T08:00:00	2	Temperatura media	15.8
151222	7	Sololá	712	San Antonio Palopó	9	San Antonio Palopo	1	Enero	2023-01-31T00:00:00	2024-11-08T08:00:00	4	Temperatura máxima	16.6
151223	7	Sololá	712	San Antonio Palopó	9	San Antonio Palopo	1	Enero	2023-01-31T00:00:00	2024-11-08T08:00:00	3	Temperatura mínima	15.1
151224	7	Sololá	712	San Antonio Palopó	9	San Antonio Palopo	1	Enero	2023-01-31T00:00:00	2024-11-08T08:00:00	5	Humedad	69
151225	7	Sololá	712	San Antonio Palopó	9	San Antonio Palopo	1	Enero	2023-01-31T00:00:00	2024-11-08T08:00:00	6	Velocidad del viento	11.3
151226	7	Sololá	712	San Antonio Palopó	9	San Antonio Palopo	1	Enero	2023-01-31T00:00:00	2024-11-08T08:00:00	7	Dirección del viento	11.27
151227	7	Sololá	712	San Antonio Palopó	9	San Antonio Palopo	1	Enero	2023-01-31T00:00:00	2024-11-08T08:00:00	1	Precipitación	0
151228	7	Sololá	712	San Antonio Palopó	9	San Antonio Palopo	1	Enero	2023-01-31T00:00:00	2024-11-08T08:00:00	8	Radiación solar	16
151229	7	Sololá	712	San Antonio Palopó	9	San Antonio Palopo	1	Enero	2023-01-31T00:00:00	2024-11-08T09:00:00	2	Temperatura media	18.5
151230	7	Sololá	712	San Antonio Palopó	9	San Antonio Palopo	1	Enero	2023-01-31T00:00:00	2024-11-08T09:00:00	4	Temperatura máxima	18.5
151231	7	Sololá	712	San Antonio Palopó	9	San Antonio Palopo	1	Enero	2023-01-31T00:00:00	2024-11-08T09:00:00	3	Temperatura mínima	15.8
151232	7	Sololá	712	San Antonio Palopó	9	San Antonio Palopo	1	Enero	2023-01-31T00:00:00	2024-11-08T09:00:00	5	Humedad	59
151233	7	Sololá	712	San Antonio Palopó	9	San Antonio Palopo	1	Enero	2023-01-31T00:00:00	2024-11-08T09:00:00	6	Velocidad del viento	4.8
151234	7	Sololá	712	San Antonio Palopó	9	San Antonio Palopo	1	Enero	2023-01-31T00:00:00	2024-11-08T09:00:00	7	Dirección del viento	4.83
151235	7	Sololá	712	San Antonio Palopó	9	San Antonio Palopo	1	Enero	2023-01-31T00:00:00	2024-11-08T09:00:00	1	Precipitación	0
151236	7	Sololá	712	San Antonio Palopó	9	San Antonio Palopo	1	Enero	2023-01-31T00:00:00	2024-11-08T09:00:00	8	Radiación solar	172
151237	7	Sololá	712	San Antonio Palopó	9	San Antonio Palopo	1	Enero	2023-01-31T00:00:00	2024-11-08T10:00:00	2	Temperatura media	20.7
151238	7	Sololá	712	San Antonio Palopó	9	San Antonio Palopo	1	Enero	2023-01-31T00:00:00	2024-11-08T10:00:00	4	Temperatura máxima	20.7
151239	7	Sololá	712	San Antonio Palopó	9	San Antonio Palopo	1	Enero	2023-01-31T00:00:00	2024-11-08T10:00:00	3	Temperatura mínima	18.5
151240	7	Sololá	712	San Antonio Palopó	9	San Antonio Palopo	1	Enero	2023-01-31T00:00:00	2024-11-08T10:00:00	5	Humedad	52
151241	7	Sololá	712	San Antonio Palopó	9	San Antonio Palopo	1	Enero	2023-01-31T00:00:00	2024-11-08T10:00:00	6	Velocidad del viento	9.7
151242	7	Sololá	712	San Antonio Palopó	9	San Antonio Palopo	1	Enero	2023-01-31T00:00:00	2024-11-08T10:00:00	7	Dirección del viento	9.66
151243	7	Sololá	712	San Antonio Palopó	9	San Antonio Palopo	1	Enero	2023-01-31T00:00:00	2024-11-08T10:00:00	1	Precipitación	0
151244	7	Sololá	712	San Antonio Palopó	9	San Antonio Palopo	1	Enero	2023-01-31T00:00:00	2024-11-08T10:00:00	8	Radiación solar	559
151245	7	Sololá	712	San Antonio Palopó	9	San Antonio Palopo	1	Enero	2023-01-31T00:00:00	2024-11-08T11:00:00	2	Temperatura media	21.3
151246	7	Sololá	712	San Antonio Palopó	9	San Antonio Palopo	1	Enero	2023-01-31T00:00:00	2024-11-08T11:00:00	4	Temperatura máxima	22.3
151247	7	Sololá	712	San Antonio Palopó	9	San Antonio Palopo	1	Enero	2023-01-31T00:00:00	2024-11-08T11:00:00	3	Temperatura mínima	20.3
151248	7	Sololá	712	San Antonio Palopó	9	San Antonio Palopo	1	Enero	2023-01-31T00:00:00	2024-11-08T11:00:00	5	Humedad	50
151249	7	Sololá	712	San Antonio Palopó	9	San Antonio Palopo	1	Enero	2023-01-31T00:00:00	2024-11-08T11:00:00	6	Velocidad del viento	8
151250	7	Sololá	712	San Antonio Palopó	9	San Antonio Palopo	1	Enero	2023-01-31T00:00:00	2024-11-08T11:00:00	7	Dirección del viento	8.05
151251	7	Sololá	712	San Antonio Palopó	9	San Antonio Palopo	1	Enero	2023-01-31T00:00:00	2024-11-08T11:00:00	1	Precipitación	0
151252	7	Sololá	712	San Antonio Palopó	9	San Antonio Palopo	1	Enero	2023-01-31T00:00:00	2024-11-08T11:00:00	8	Radiación solar	703
151253	7	Sololá	712	San Antonio Palopó	9	San Antonio Palopo	1	Enero	2023-01-31T00:00:00	2024-11-08T12:00:00	2	Temperatura media	23.8
151254	7	Sololá	712	San Antonio Palopó	9	San Antonio Palopo	1	Enero	2023-01-31T00:00:00	2024-11-08T12:00:00	4	Temperatura máxima	23.8
151255	7	Sololá	712	San Antonio Palopó	9	San Antonio Palopo	1	Enero	2023-01-31T00:00:00	2024-11-08T12:00:00	3	Temperatura mínima	20.4
151256	7	Sololá	712	San Antonio Palopó	9	San Antonio Palopo	1	Enero	2023-01-31T00:00:00	2024-11-08T12:00:00	5	Humedad	35
151257	7	Sololá	712	San Antonio Palopó	9	San Antonio Palopo	1	Enero	2023-01-31T00:00:00	2024-11-08T12:00:00	6	Velocidad del viento	11.3
151258	7	Sololá	712	San Antonio Palopó	9	San Antonio Palopo	1	Enero	2023-01-31T00:00:00	2024-11-08T12:00:00	7	Dirección del viento	11.27
151259	7	Sololá	712	San Antonio Palopó	9	San Antonio Palopo	1	Enero	2023-01-31T00:00:00	2024-11-08T12:00:00	1	Precipitación	0
151260	7	Sololá	712	San Antonio Palopó	9	San Antonio Palopo	1	Enero	2023-01-31T00:00:00	2024-11-08T12:00:00	8	Radiación solar	703
151261	7	Sololá	712	San Antonio Palopó	9	San Antonio Palopo	1	Enero	2023-01-31T00:00:00	2024-11-08T13:00:00	2	Temperatura media	24.4
151262	7	Sololá	712	San Antonio Palopó	9	San Antonio Palopo	1	Enero	2023-01-31T00:00:00	2024-11-08T13:00:00	4	Temperatura máxima	25.3
151263	7	Sololá	712	San Antonio Palopó	9	San Antonio Palopo	1	Enero	2023-01-31T00:00:00	2024-11-08T13:00:00	3	Temperatura mínima	22.1
151264	7	Sololá	712	San Antonio Palopó	9	San Antonio Palopo	1	Enero	2023-01-31T00:00:00	2024-11-08T13:00:00	5	Humedad	53
151265	7	Sololá	712	San Antonio Palopó	9	San Antonio Palopo	1	Enero	2023-01-31T00:00:00	2024-11-08T13:00:00	6	Velocidad del viento	12.9
151266	7	Sololá	712	San Antonio Palopó	9	San Antonio Palopo	1	Enero	2023-01-31T00:00:00	2024-11-08T13:00:00	7	Dirección del viento	12.87
151267	7	Sololá	712	San Antonio Palopó	9	San Antonio Palopo	1	Enero	2023-01-31T00:00:00	2024-11-08T13:00:00	1	Precipitación	0
151268	7	Sololá	712	San Antonio Palopó	9	San Antonio Palopo	1	Enero	2023-01-31T00:00:00	2024-11-08T13:00:00	8	Radiación solar	810
151269	7	Sololá	712	San Antonio Palopó	9	San Antonio Palopo	1	Enero	2023-01-31T00:00:00	2024-11-08T14:00:00	2	Temperatura media	24.1
151270	7	Sololá	712	San Antonio Palopó	9	San Antonio Palopo	1	Enero	2023-01-31T00:00:00	2024-11-08T14:00:00	4	Temperatura máxima	25.2
151271	7	Sololá	712	San Antonio Palopó	9	San Antonio Palopo	1	Enero	2023-01-31T00:00:00	2024-11-08T14:00:00	3	Temperatura mínima	23.9
151272	7	Sololá	712	San Antonio Palopó	9	San Antonio Palopo	1	Enero	2023-01-31T00:00:00	2024-11-08T14:00:00	5	Humedad	36
151273	7	Sololá	712	San Antonio Palopó	9	San Antonio Palopo	1	Enero	2023-01-31T00:00:00	2024-11-08T14:00:00	6	Velocidad del viento	11.3
151274	7	Sololá	712	San Antonio Palopó	9	San Antonio Palopo	1	Enero	2023-01-31T00:00:00	2024-11-08T14:00:00	7	Dirección del viento	11.27
151275	7	Sololá	712	San Antonio Palopó	9	San Antonio Palopo	1	Enero	2023-01-31T00:00:00	2024-11-08T14:00:00	1	Precipitación	0
151276	7	Sololá	712	San Antonio Palopó	9	San Antonio Palopo	1	Enero	2023-01-31T00:00:00	2024-11-08T14:00:00	8	Radiación solar	757
151277	7	Sololá	712	San Antonio Palopó	9	San Antonio Palopo	1	Enero	2023-01-31T00:00:00	2024-11-08T15:00:00	2	Temperatura media	23.1
151278	7	Sololá	712	San Antonio Palopó	9	San Antonio Palopo	1	Enero	2023-01-31T00:00:00	2024-11-08T15:00:00	4	Temperatura máxima	24.9
151279	7	Sololá	712	San Antonio Palopó	9	San Antonio Palopo	1	Enero	2023-01-31T00:00:00	2024-11-08T15:00:00	3	Temperatura mínima	23.1
151280	7	Sololá	712	San Antonio Palopó	9	San Antonio Palopo	1	Enero	2023-01-31T00:00:00	2024-11-08T15:00:00	5	Humedad	60
151281	7	Sololá	712	San Antonio Palopó	9	San Antonio Palopo	1	Enero	2023-01-31T00:00:00	2024-11-08T15:00:00	6	Velocidad del viento	16.1
151282	7	Sololá	712	San Antonio Palopó	9	San Antonio Palopo	1	Enero	2023-01-31T00:00:00	2024-11-08T15:00:00	7	Dirección del viento	16.09
151283	7	Sololá	712	San Antonio Palopó	9	San Antonio Palopo	1	Enero	2023-01-31T00:00:00	2024-11-08T15:00:00	1	Precipitación	0
151284	7	Sololá	712	San Antonio Palopó	9	San Antonio Palopo	1	Enero	2023-01-31T00:00:00	2024-11-08T15:00:00	8	Radiación solar	620
151285	7	Sololá	712	San Antonio Palopó	9	San Antonio Palopo	1	Enero	2023-01-31T00:00:00	2024-11-08T16:00:00	2	Temperatura media	22.8
151286	7	Sololá	712	San Antonio Palopó	9	San Antonio Palopo	1	Enero	2023-01-31T00:00:00	2024-11-08T16:00:00	4	Temperatura máxima	23.1
151287	7	Sololá	712	San Antonio Palopó	9	San Antonio Palopo	1	Enero	2023-01-31T00:00:00	2024-11-08T16:00:00	3	Temperatura mínima	22.7
151288	7	Sololá	712	San Antonio Palopó	9	San Antonio Palopo	1	Enero	2023-01-31T00:00:00	2024-11-08T16:00:00	5	Humedad	63
151289	7	Sololá	712	San Antonio Palopó	9	San Antonio Palopo	1	Enero	2023-01-31T00:00:00	2024-11-08T16:00:00	6	Velocidad del viento	20.9
151290	7	Sololá	712	San Antonio Palopó	9	San Antonio Palopo	1	Enero	2023-01-31T00:00:00	2024-11-08T16:00:00	7	Dirección del viento	20.92
151291	7	Sololá	712	San Antonio Palopó	9	San Antonio Palopo	1	Enero	2023-01-31T00:00:00	2024-11-08T16:00:00	1	Precipitación	0
151292	7	Sololá	712	San Antonio Palopó	9	San Antonio Palopo	1	Enero	2023-01-31T00:00:00	2024-11-08T16:00:00	8	Radiación solar	446
151293	7	Sololá	712	San Antonio Palopó	9	San Antonio Palopo	1	Enero	2023-01-31T00:00:00	2024-11-08T17:00:00	2	Temperatura media	22.3
151294	7	Sololá	712	San Antonio Palopó	9	San Antonio Palopo	1	Enero	2023-01-31T00:00:00	2024-11-08T17:00:00	4	Temperatura máxima	23.4
151295	7	Sololá	712	San Antonio Palopó	9	San Antonio Palopo	1	Enero	2023-01-31T00:00:00	2024-11-08T17:00:00	3	Temperatura mínima	22.2
151296	7	Sololá	712	San Antonio Palopó	9	San Antonio Palopo	1	Enero	2023-01-31T00:00:00	2024-11-08T17:00:00	5	Humedad	66
151297	7	Sololá	712	San Antonio Palopó	9	San Antonio Palopo	1	Enero	2023-01-31T00:00:00	2024-11-08T17:00:00	6	Velocidad del viento	14.5
151298	7	Sololá	712	San Antonio Palopó	9	San Antonio Palopo	1	Enero	2023-01-31T00:00:00	2024-11-08T17:00:00	7	Dirección del viento	14.48
151299	7	Sololá	712	San Antonio Palopó	9	San Antonio Palopo	1	Enero	2023-01-31T00:00:00	2024-11-08T17:00:00	1	Precipitación	0
151300	7	Sololá	712	San Antonio Palopó	9	San Antonio Palopo	1	Enero	2023-01-31T00:00:00	2024-11-08T17:00:00	8	Radiación solar	241
151301	7	Sololá	712	San Antonio Palopó	9	San Antonio Palopo	1	Enero	2023-01-31T00:00:00	2024-11-08T18:00:00	2	Temperatura media	21.3
151302	7	Sololá	712	San Antonio Palopó	9	San Antonio Palopo	1	Enero	2023-01-31T00:00:00	2024-11-08T18:00:00	4	Temperatura máxima	22.4
151303	7	Sololá	712	San Antonio Palopó	9	San Antonio Palopo	1	Enero	2023-01-31T00:00:00	2024-11-08T18:00:00	3	Temperatura mínima	21.3
151304	7	Sololá	712	San Antonio Palopó	9	San Antonio Palopo	1	Enero	2023-01-31T00:00:00	2024-11-08T18:00:00	5	Humedad	71
151305	7	Sololá	712	San Antonio Palopó	9	San Antonio Palopo	1	Enero	2023-01-31T00:00:00	2024-11-08T18:00:00	6	Velocidad del viento	6.4
151306	7	Sololá	712	San Antonio Palopó	9	San Antonio Palopo	1	Enero	2023-01-31T00:00:00	2024-11-08T18:00:00	7	Dirección del viento	6.44
151307	7	Sololá	712	San Antonio Palopó	9	San Antonio Palopo	1	Enero	2023-01-31T00:00:00	2024-11-08T18:00:00	1	Precipitación	0
151308	7	Sololá	712	San Antonio Palopó	9	San Antonio Palopo	1	Enero	2023-01-31T00:00:00	2024-11-08T18:00:00	8	Radiación solar	48
151309	7	Sololá	712	San Antonio Palopó	9	San Antonio Palopo	1	Enero	2023-01-31T00:00:00	2024-11-08T19:00:00	2	Temperatura media	19.7
151310	7	Sololá	712	San Antonio Palopó	9	San Antonio Palopo	1	Enero	2023-01-31T00:00:00	2024-11-08T19:00:00	4	Temperatura máxima	21.3
151311	7	Sololá	712	San Antonio Palopó	9	San Antonio Palopo	1	Enero	2023-01-31T00:00:00	2024-11-08T19:00:00	3	Temperatura mínima	19.7
151312	7	Sololá	712	San Antonio Palopó	9	San Antonio Palopo	1	Enero	2023-01-31T00:00:00	2024-11-08T19:00:00	5	Humedad	72
151313	7	Sololá	712	San Antonio Palopó	9	San Antonio Palopo	1	Enero	2023-01-31T00:00:00	2024-11-08T19:00:00	6	Velocidad del viento	3.2
151314	7	Sololá	712	San Antonio Palopó	9	San Antonio Palopo	1	Enero	2023-01-31T00:00:00	2024-11-08T19:00:00	7	Dirección del viento	3.22
151315	7	Sololá	712	San Antonio Palopó	9	San Antonio Palopo	1	Enero	2023-01-31T00:00:00	2024-11-08T19:00:00	1	Precipitación	0
151316	7	Sololá	712	San Antonio Palopó	9	San Antonio Palopo	1	Enero	2023-01-31T00:00:00	2024-11-08T19:00:00	8	Radiación solar	0
151317	7	Sololá	712	San Antonio Palopó	9	San Antonio Palopo	1	Enero	2023-01-31T00:00:00	2024-11-08T20:00:00	2	Temperatura media	19.7
151318	7	Sololá	712	San Antonio Palopó	9	San Antonio Palopo	1	Enero	2023-01-31T00:00:00	2024-11-08T20:00:00	4	Temperatura máxima	20.2
151319	7	Sololá	712	San Antonio Palopó	9	San Antonio Palopo	1	Enero	2023-01-31T00:00:00	2024-11-08T20:00:00	3	Temperatura mínima	19.5
151320	7	Sololá	712	San Antonio Palopó	9	San Antonio Palopo	1	Enero	2023-01-31T00:00:00	2024-11-08T20:00:00	5	Humedad	65
151321	7	Sololá	712	San Antonio Palopó	9	San Antonio Palopo	1	Enero	2023-01-31T00:00:00	2024-11-08T20:00:00	6	Velocidad del viento	8
151322	7	Sololá	712	San Antonio Palopó	9	San Antonio Palopo	1	Enero	2023-01-31T00:00:00	2024-11-08T20:00:00	7	Dirección del viento	8.05
151323	7	Sololá	712	San Antonio Palopó	9	San Antonio Palopo	1	Enero	2023-01-31T00:00:00	2024-11-08T20:00:00	1	Precipitación	0
151324	7	Sololá	712	San Antonio Palopó	9	San Antonio Palopo	1	Enero	2023-01-31T00:00:00	2024-11-08T20:00:00	8	Radiación solar	0
151325	7	Sololá	712	San Antonio Palopó	9	San Antonio Palopo	1	Enero	2023-01-31T00:00:00	2024-11-08T21:00:00	2	Temperatura media	18.7
151326	7	Sololá	712	San Antonio Palopó	9	San Antonio Palopo	1	Enero	2023-01-31T00:00:00	2024-11-08T21:00:00	4	Temperatura máxima	19.7
151327	7	Sololá	712	San Antonio Palopó	9	San Antonio Palopo	1	Enero	2023-01-31T00:00:00	2024-11-08T21:00:00	3	Temperatura mínima	18.7
151328	7	Sololá	712	San Antonio Palopó	9	San Antonio Palopo	1	Enero	2023-01-31T00:00:00	2024-11-08T21:00:00	5	Humedad	70
151329	7	Sololá	712	San Antonio Palopó	9	San Antonio Palopo	1	Enero	2023-01-31T00:00:00	2024-11-08T21:00:00	6	Velocidad del viento	11.3
151330	7	Sololá	712	San Antonio Palopó	9	San Antonio Palopo	1	Enero	2023-01-31T00:00:00	2024-11-08T21:00:00	7	Dirección del viento	11.27
151331	7	Sololá	712	San Antonio Palopó	9	San Antonio Palopo	1	Enero	2023-01-31T00:00:00	2024-11-08T21:00:00	1	Precipitación	0
151332	7	Sololá	712	San Antonio Palopó	9	San Antonio Palopo	1	Enero	2023-01-31T00:00:00	2024-11-08T21:00:00	8	Radiación solar	0
151333	7	Sololá	712	San Antonio Palopó	9	San Antonio Palopo	1	Enero	2023-01-31T00:00:00	2024-11-08T22:00:00	2	Temperatura media	18.3
151334	7	Sololá	712	San Antonio Palopó	9	San Antonio Palopo	1	Enero	2023-01-31T00:00:00	2024-11-08T22:00:00	4	Temperatura máxima	18.7
151335	7	Sololá	712	San Antonio Palopó	9	San Antonio Palopo	1	Enero	2023-01-31T00:00:00	2024-11-08T22:00:00	3	Temperatura mínima	18.3
151336	7	Sololá	712	San Antonio Palopó	9	San Antonio Palopo	1	Enero	2023-01-31T00:00:00	2024-11-08T22:00:00	5	Humedad	69
151337	7	Sololá	712	San Antonio Palopó	9	San Antonio Palopo	1	Enero	2023-01-31T00:00:00	2024-11-08T22:00:00	6	Velocidad del viento	12.9
151338	7	Sololá	712	San Antonio Palopó	9	San Antonio Palopo	1	Enero	2023-01-31T00:00:00	2024-11-08T22:00:00	7	Dirección del viento	12.87
151339	7	Sololá	712	San Antonio Palopó	9	San Antonio Palopo	1	Enero	2023-01-31T00:00:00	2024-11-08T22:00:00	1	Precipitación	0
151340	7	Sololá	712	San Antonio Palopó	9	San Antonio Palopo	1	Enero	2023-01-31T00:00:00	2024-11-08T22:00:00	8	Radiación solar	0
151341	7	Sololá	712	San Antonio Palopó	9	San Antonio Palopo	1	Enero	2023-01-31T00:00:00	2024-11-08T23:00:00	2	Temperatura media	17.9
151342	7	Sololá	712	San Antonio Palopó	9	San Antonio Palopo	1	Enero	2023-01-31T00:00:00	2024-11-08T23:00:00	4	Temperatura máxima	18.7
151343	7	Sololá	712	San Antonio Palopó	9	San Antonio Palopo	1	Enero	2023-01-31T00:00:00	2024-11-08T23:00:00	3	Temperatura mínima	17.9
151344	7	Sololá	712	San Antonio Palopó	9	San Antonio Palopo	1	Enero	2023-01-31T00:00:00	2024-11-08T23:00:00	5	Humedad	68
151345	7	Sololá	712	San Antonio Palopó	9	San Antonio Palopo	1	Enero	2023-01-31T00:00:00	2024-11-08T23:00:00	6	Velocidad del viento	11.3
151346	7	Sololá	712	San Antonio Palopó	9	San Antonio Palopo	1	Enero	2023-01-31T00:00:00	2024-11-08T23:00:00	7	Dirección del viento	11.27
151347	7	Sololá	712	San Antonio Palopó	9	San Antonio Palopo	1	Enero	2023-01-31T00:00:00	2024-11-08T23:00:00	1	Precipitación	0
151348	7	Sololá	712	San Antonio Palopó	9	San Antonio Palopo	1	Enero	2023-01-31T00:00:00	2024-11-08T23:00:00	8	Radiación solar	0
151349	7	Sololá	712	San Antonio Palopó	9	San Antonio Palopo	2	Febrero	2023-01-02T00:00:00	2024-11-08T00:00:00	2	Temperatura media	17.2
151350	7	Sololá	712	San Antonio Palopó	9	San Antonio Palopo	2	Febrero	2023-01-02T00:00:00	2024-11-08T00:00:00	4	Temperatura máxima	17.9
151351	7	Sololá	712	San Antonio Palopó	9	San Antonio Palopo	2	Febrero	2023-01-02T00:00:00	2024-11-08T00:00:00	3	Temperatura mínima	17.1
151352	7	Sololá	712	San Antonio Palopó	9	San Antonio Palopo	2	Febrero	2023-01-02T00:00:00	2024-11-08T00:00:00	5	Humedad	69
151353	7	Sololá	712	San Antonio Palopó	9	San Antonio Palopo	2	Febrero	2023-01-02T00:00:00	2024-11-08T00:00:00	6	Velocidad del viento	14.5
151354	7	Sololá	712	San Antonio Palopó	9	San Antonio Palopo	2	Febrero	2023-01-02T00:00:00	2024-11-08T00:00:00	7	Dirección del viento	14.48
151355	7	Sololá	712	San Antonio Palopó	9	San Antonio Palopo	2	Febrero	2023-01-02T00:00:00	2024-11-08T00:00:00	1	Precipitación	0
151356	7	Sololá	712	San Antonio Palopó	9	San Antonio Palopo	2	Febrero	2023-01-02T00:00:00	2024-11-08T00:00:00	8	Radiación solar	0
151357	7	Sololá	712	San Antonio Palopó	9	San Antonio Palopo	2	Febrero	2023-01-02T00:00:00	2024-11-08T01:00:00	2	Temperatura media	16.7
151358	7	Sololá	712	San Antonio Palopó	9	San Antonio Palopo	2	Febrero	2023-01-02T00:00:00	2024-11-08T01:00:00	4	Temperatura máxima	17.4
151359	7	Sololá	712	San Antonio Palopó	9	San Antonio Palopo	2	Febrero	2023-01-02T00:00:00	2024-11-08T01:00:00	3	Temperatura mínima	16.7
151360	7	Sololá	712	San Antonio Palopó	9	San Antonio Palopo	2	Febrero	2023-01-02T00:00:00	2024-11-08T01:00:00	5	Humedad	71
151361	7	Sololá	712	San Antonio Palopó	9	San Antonio Palopo	2	Febrero	2023-01-02T00:00:00	2024-11-08T01:00:00	6	Velocidad del viento	16.1
151362	7	Sololá	712	San Antonio Palopó	9	San Antonio Palopo	2	Febrero	2023-01-02T00:00:00	2024-11-08T01:00:00	7	Dirección del viento	16.09
151363	7	Sololá	712	San Antonio Palopó	9	San Antonio Palopo	2	Febrero	2023-01-02T00:00:00	2024-11-08T01:00:00	1	Precipitación	0
151364	7	Sololá	712	San Antonio Palopó	9	San Antonio Palopo	2	Febrero	2023-01-02T00:00:00	2024-11-08T01:00:00	8	Radiación solar	0
151365	7	Sololá	712	San Antonio Palopó	9	San Antonio Palopo	2	Febrero	2023-01-02T00:00:00	2024-11-08T02:00:00	2	Temperatura media	16.5
151366	7	Sololá	712	San Antonio Palopó	9	San Antonio Palopo	2	Febrero	2023-01-02T00:00:00	2024-11-08T02:00:00	4	Temperatura máxima	16.8
151367	7	Sololá	712	San Antonio Palopó	9	San Antonio Palopo	2	Febrero	2023-01-02T00:00:00	2024-11-08T02:00:00	3	Temperatura mínima	16.5
151368	7	Sololá	712	San Antonio Palopó	9	San Antonio Palopo	2	Febrero	2023-01-02T00:00:00	2024-11-08T02:00:00	5	Humedad	72
151369	7	Sololá	712	San Antonio Palopó	9	San Antonio Palopo	2	Febrero	2023-01-02T00:00:00	2024-11-08T02:00:00	6	Velocidad del viento	19.3
151370	7	Sololá	712	San Antonio Palopó	9	San Antonio Palopo	2	Febrero	2023-01-02T00:00:00	2024-11-08T02:00:00	7	Dirección del viento	19.31
151371	7	Sololá	712	San Antonio Palopó	9	San Antonio Palopo	2	Febrero	2023-01-02T00:00:00	2024-11-08T02:00:00	1	Precipitación	0
151372	7	Sololá	712	San Antonio Palopó	9	San Antonio Palopo	2	Febrero	2023-01-02T00:00:00	2024-11-08T02:00:00	8	Radiación solar	0
151373	7	Sololá	712	San Antonio Palopó	9	San Antonio Palopo	2	Febrero	2023-01-02T00:00:00	2024-11-08T03:00:00	2	Temperatura media	16.3
151374	7	Sololá	712	San Antonio Palopó	9	San Antonio Palopo	2	Febrero	2023-01-02T00:00:00	2024-11-08T03:00:00	4	Temperatura máxima	16.6
151375	7	Sololá	712	San Antonio Palopó	9	San Antonio Palopo	2	Febrero	2023-01-02T00:00:00	2024-11-08T03:00:00	3	Temperatura mínima	16.3
151376	7	Sololá	712	San Antonio Palopó	9	San Antonio Palopo	2	Febrero	2023-01-02T00:00:00	2024-11-08T03:00:00	5	Humedad	71
151377	7	Sololá	712	San Antonio Palopó	9	San Antonio Palopo	2	Febrero	2023-01-02T00:00:00	2024-11-08T03:00:00	6	Velocidad del viento	17.7
151378	7	Sololá	712	San Antonio Palopó	9	San Antonio Palopo	2	Febrero	2023-01-02T00:00:00	2024-11-08T03:00:00	7	Dirección del viento	17.7
151379	7	Sololá	712	San Antonio Palopó	9	San Antonio Palopo	2	Febrero	2023-01-02T00:00:00	2024-11-08T03:00:00	1	Precipitación	0
151380	7	Sololá	712	San Antonio Palopó	9	San Antonio Palopo	2	Febrero	2023-01-02T00:00:00	2024-11-08T03:00:00	8	Radiación solar	0
151381	7	Sololá	712	San Antonio Palopó	9	San Antonio Palopo	2	Febrero	2023-01-02T00:00:00	2024-11-08T04:00:00	2	Temperatura media	16.3
151382	7	Sololá	712	San Antonio Palopó	9	San Antonio Palopo	2	Febrero	2023-01-02T00:00:00	2024-11-08T04:00:00	4	Temperatura máxima	16.3
151383	7	Sololá	712	San Antonio Palopó	9	San Antonio Palopo	2	Febrero	2023-01-02T00:00:00	2024-11-08T04:00:00	3	Temperatura mínima	16.1
151384	7	Sololá	712	San Antonio Palopó	9	San Antonio Palopo	2	Febrero	2023-01-02T00:00:00	2024-11-08T04:00:00	5	Humedad	68
151385	7	Sololá	712	San Antonio Palopó	9	San Antonio Palopo	2	Febrero	2023-01-02T00:00:00	2024-11-08T04:00:00	6	Velocidad del viento	12.9
151386	7	Sololá	712	San Antonio Palopó	9	San Antonio Palopo	2	Febrero	2023-01-02T00:00:00	2024-11-08T04:00:00	7	Dirección del viento	12.87
151387	7	Sololá	712	San Antonio Palopó	9	San Antonio Palopo	2	Febrero	2023-01-02T00:00:00	2024-11-08T04:00:00	1	Precipitación	0
151388	7	Sololá	712	San Antonio Palopó	9	San Antonio Palopo	2	Febrero	2023-01-02T00:00:00	2024-11-08T04:00:00	8	Radiación solar	0
151389	7	Sololá	712	San Antonio Palopó	9	San Antonio Palopo	2	Febrero	2023-01-02T00:00:00	2024-11-08T05:00:00	2	Temperatura media	16.2
151390	7	Sololá	712	San Antonio Palopó	9	San Antonio Palopo	2	Febrero	2023-01-02T00:00:00	2024-11-08T05:00:00	4	Temperatura máxima	16.4
151391	7	Sololá	712	San Antonio Palopó	9	San Antonio Palopo	2	Febrero	2023-01-02T00:00:00	2024-11-08T05:00:00	3	Temperatura mínima	16.2
151392	7	Sololá	712	San Antonio Palopó	9	San Antonio Palopo	2	Febrero	2023-01-02T00:00:00	2024-11-08T05:00:00	5	Humedad	68
151393	7	Sololá	712	San Antonio Palopó	9	San Antonio Palopo	2	Febrero	2023-01-02T00:00:00	2024-11-08T05:00:00	6	Velocidad del viento	11.3
151394	7	Sololá	712	San Antonio Palopó	9	San Antonio Palopo	2	Febrero	2023-01-02T00:00:00	2024-11-08T05:00:00	7	Dirección del viento	11.27
151395	7	Sololá	712	San Antonio Palopó	9	San Antonio Palopo	2	Febrero	2023-01-02T00:00:00	2024-11-08T05:00:00	1	Precipitación	0
151396	7	Sololá	712	San Antonio Palopó	9	San Antonio Palopo	2	Febrero	2023-01-02T00:00:00	2024-11-08T05:00:00	8	Radiación solar	0
151397	7	Sololá	712	San Antonio Palopó	9	San Antonio Palopo	2	Febrero	2023-01-02T00:00:00	2024-11-08T06:00:00	2	Temperatura media	16.1
151398	7	Sololá	712	San Antonio Palopó	9	San Antonio Palopo	2	Febrero	2023-01-02T00:00:00	2024-11-08T06:00:00	4	Temperatura máxima	16.4
151399	7	Sololá	712	San Antonio Palopó	9	San Antonio Palopo	2	Febrero	2023-01-02T00:00:00	2024-11-08T06:00:00	3	Temperatura mínima	16.1
151400	7	Sololá	712	San Antonio Palopó	9	San Antonio Palopo	2	Febrero	2023-01-02T00:00:00	2024-11-08T06:00:00	5	Humedad	68
151401	7	Sololá	712	San Antonio Palopó	9	San Antonio Palopo	2	Febrero	2023-01-02T00:00:00	2024-11-08T06:00:00	6	Velocidad del viento	17.7
151402	7	Sololá	712	San Antonio Palopó	9	San Antonio Palopo	2	Febrero	2023-01-02T00:00:00	2024-11-08T06:00:00	7	Dirección del viento	17.7
151403	7	Sololá	712	San Antonio Palopó	9	San Antonio Palopo	2	Febrero	2023-01-02T00:00:00	2024-11-08T06:00:00	1	Precipitación	0
151404	7	Sololá	712	San Antonio Palopó	9	San Antonio Palopo	2	Febrero	2023-01-02T00:00:00	2024-11-08T06:00:00	8	Radiación solar	0
151405	7	Sololá	712	San Antonio Palopó	9	San Antonio Palopo	2	Febrero	2023-01-02T00:00:00	2024-11-08T07:00:00	2	Temperatura media	16.2
151406	7	Sololá	712	San Antonio Palopó	9	San Antonio Palopo	2	Febrero	2023-01-02T00:00:00	2024-11-08T07:00:00	4	Temperatura máxima	16.2
151407	7	Sololá	712	San Antonio Palopó	9	San Antonio Palopo	2	Febrero	2023-01-02T00:00:00	2024-11-08T07:00:00	3	Temperatura mínima	15.9
151408	7	Sololá	712	San Antonio Palopó	9	San Antonio Palopo	2	Febrero	2023-01-02T00:00:00	2024-11-08T07:00:00	5	Humedad	68
151409	7	Sololá	712	San Antonio Palopó	9	San Antonio Palopo	2	Febrero	2023-01-02T00:00:00	2024-11-08T07:00:00	6	Velocidad del viento	16.1
151410	7	Sololá	712	San Antonio Palopó	9	San Antonio Palopo	2	Febrero	2023-01-02T00:00:00	2024-11-08T07:00:00	7	Dirección del viento	16.09
151411	7	Sololá	712	San Antonio Palopó	9	San Antonio Palopo	2	Febrero	2023-01-02T00:00:00	2024-11-08T07:00:00	1	Precipitación	0
151412	7	Sololá	712	San Antonio Palopó	9	San Antonio Palopo	2	Febrero	2023-01-02T00:00:00	2024-11-08T07:00:00	8	Radiación solar	3
151413	7	Sololá	712	San Antonio Palopó	9	San Antonio Palopo	2	Febrero	2023-01-02T00:00:00	2024-11-08T08:00:00	2	Temperatura media	17.3
151414	7	Sololá	712	San Antonio Palopó	9	San Antonio Palopo	2	Febrero	2023-01-02T00:00:00	2024-11-08T08:00:00	4	Temperatura máxima	17.3
151415	7	Sololá	712	San Antonio Palopó	9	San Antonio Palopo	2	Febrero	2023-01-02T00:00:00	2024-11-08T08:00:00	3	Temperatura mínima	16.1
151416	7	Sololá	712	San Antonio Palopó	9	San Antonio Palopo	2	Febrero	2023-01-02T00:00:00	2024-11-08T08:00:00	5	Humedad	66
151417	7	Sololá	712	San Antonio Palopó	9	San Antonio Palopo	2	Febrero	2023-01-02T00:00:00	2024-11-08T08:00:00	6	Velocidad del viento	8
151418	7	Sololá	712	San Antonio Palopó	9	San Antonio Palopo	2	Febrero	2023-01-02T00:00:00	2024-11-08T08:00:00	7	Dirección del viento	8.05
151419	7	Sololá	712	San Antonio Palopó	9	San Antonio Palopo	2	Febrero	2023-01-02T00:00:00	2024-11-08T08:00:00	1	Precipitación	0
151420	7	Sololá	712	San Antonio Palopó	9	San Antonio Palopo	2	Febrero	2023-01-02T00:00:00	2024-11-08T08:00:00	8	Radiación solar	15
151421	7	Sololá	712	San Antonio Palopó	9	San Antonio Palopo	2	Febrero	2023-01-02T00:00:00	2024-11-08T09:00:00	2	Temperatura media	18.7
151422	7	Sololá	712	San Antonio Palopó	9	San Antonio Palopo	2	Febrero	2023-01-02T00:00:00	2024-11-08T09:00:00	4	Temperatura máxima	18.7
151423	7	Sololá	712	San Antonio Palopó	9	San Antonio Palopo	2	Febrero	2023-01-02T00:00:00	2024-11-08T09:00:00	3	Temperatura mínima	17.1
151424	7	Sololá	712	San Antonio Palopó	9	San Antonio Palopo	2	Febrero	2023-01-02T00:00:00	2024-11-08T09:00:00	5	Humedad	61
151425	7	Sololá	712	San Antonio Palopó	9	San Antonio Palopo	2	Febrero	2023-01-02T00:00:00	2024-11-08T09:00:00	6	Velocidad del viento	4.8
151426	7	Sololá	712	San Antonio Palopó	9	San Antonio Palopo	2	Febrero	2023-01-02T00:00:00	2024-11-08T09:00:00	7	Dirección del viento	4.83
151427	7	Sololá	712	San Antonio Palopó	9	San Antonio Palopo	2	Febrero	2023-01-02T00:00:00	2024-11-08T09:00:00	1	Precipitación	0
151428	7	Sololá	712	San Antonio Palopó	9	San Antonio Palopo	2	Febrero	2023-01-02T00:00:00	2024-11-08T09:00:00	8	Radiación solar	175
151429	7	Sololá	712	San Antonio Palopó	9	San Antonio Palopo	2	Febrero	2023-01-02T00:00:00	2024-11-08T10:00:00	2	Temperatura media	19.8
151430	7	Sololá	712	San Antonio Palopó	9	San Antonio Palopo	2	Febrero	2023-01-02T00:00:00	2024-11-08T10:00:00	4	Temperatura máxima	20.1
151431	7	Sololá	712	San Antonio Palopó	9	San Antonio Palopo	2	Febrero	2023-01-02T00:00:00	2024-11-08T10:00:00	3	Temperatura mínima	18.7
151432	7	Sololá	712	San Antonio Palopó	9	San Antonio Palopo	2	Febrero	2023-01-02T00:00:00	2024-11-08T10:00:00	5	Humedad	62
151433	7	Sololá	712	San Antonio Palopó	9	San Antonio Palopo	2	Febrero	2023-01-02T00:00:00	2024-11-08T10:00:00	6	Velocidad del viento	3.2
151434	7	Sololá	712	San Antonio Palopó	9	San Antonio Palopo	2	Febrero	2023-01-02T00:00:00	2024-11-08T10:00:00	7	Dirección del viento	3.22
151435	7	Sololá	712	San Antonio Palopó	9	San Antonio Palopo	2	Febrero	2023-01-02T00:00:00	2024-11-08T10:00:00	1	Precipitación	0
151436	7	Sololá	712	San Antonio Palopó	9	San Antonio Palopo	2	Febrero	2023-01-02T00:00:00	2024-11-08T10:00:00	8	Radiación solar	552
151437	7	Sololá	712	San Antonio Palopó	9	San Antonio Palopo	2	Febrero	2023-01-02T00:00:00	2024-11-08T11:00:00	2	Temperatura media	22.2
151438	7	Sololá	712	San Antonio Palopó	9	San Antonio Palopo	2	Febrero	2023-01-02T00:00:00	2024-11-08T11:00:00	4	Temperatura máxima	22.3
151439	7	Sololá	712	San Antonio Palopó	9	San Antonio Palopo	2	Febrero	2023-01-02T00:00:00	2024-11-08T11:00:00	3	Temperatura mínima	19.8
151440	7	Sololá	712	San Antonio Palopó	9	San Antonio Palopo	2	Febrero	2023-01-02T00:00:00	2024-11-08T11:00:00	5	Humedad	52
151441	7	Sololá	712	San Antonio Palopó	9	San Antonio Palopo	2	Febrero	2023-01-02T00:00:00	2024-11-08T11:00:00	6	Velocidad del viento	8
151442	7	Sololá	712	San Antonio Palopó	9	San Antonio Palopo	2	Febrero	2023-01-02T00:00:00	2024-11-08T11:00:00	7	Dirección del viento	8.05
151443	7	Sololá	712	San Antonio Palopó	9	San Antonio Palopo	2	Febrero	2023-01-02T00:00:00	2024-11-08T11:00:00	1	Precipitación	0
151444	7	Sololá	712	San Antonio Palopó	9	San Antonio Palopo	2	Febrero	2023-01-02T00:00:00	2024-11-08T11:00:00	8	Radiación solar	701
151445	7	Sololá	712	San Antonio Palopó	9	San Antonio Palopo	2	Febrero	2023-01-02T00:00:00	2024-11-08T12:00:00	2	Temperatura media	23.9
151446	7	Sololá	712	San Antonio Palopó	9	San Antonio Palopo	2	Febrero	2023-01-02T00:00:00	2024-11-08T12:00:00	4	Temperatura máxima	24.6
151447	7	Sololá	712	San Antonio Palopó	9	San Antonio Palopo	2	Febrero	2023-01-02T00:00:00	2024-11-08T12:00:00	3	Temperatura mínima	21.8
151448	7	Sololá	712	San Antonio Palopó	9	San Antonio Palopo	2	Febrero	2023-01-02T00:00:00	2024-11-08T12:00:00	5	Humedad	44
151449	7	Sololá	712	San Antonio Palopó	9	San Antonio Palopo	2	Febrero	2023-01-02T00:00:00	2024-11-08T12:00:00	6	Velocidad del viento	9.7
151450	7	Sololá	712	San Antonio Palopó	9	San Antonio Palopo	2	Febrero	2023-01-02T00:00:00	2024-11-08T12:00:00	7	Dirección del viento	9.66
151451	7	Sololá	712	San Antonio Palopó	9	San Antonio Palopo	2	Febrero	2023-01-02T00:00:00	2024-11-08T12:00:00	1	Precipitación	0
151452	7	Sololá	712	San Antonio Palopó	9	San Antonio Palopo	2	Febrero	2023-01-02T00:00:00	2024-11-08T12:00:00	8	Radiación solar	702
151453	7	Sololá	712	San Antonio Palopó	9	San Antonio Palopo	2	Febrero	2023-01-02T00:00:00	2024-11-08T13:00:00	2	Temperatura media	24
151454	7	Sololá	712	San Antonio Palopó	9	San Antonio Palopo	2	Febrero	2023-01-02T00:00:00	2024-11-08T13:00:00	4	Temperatura máxima	25.3
151455	7	Sololá	712	San Antonio Palopó	9	San Antonio Palopo	2	Febrero	2023-01-02T00:00:00	2024-11-08T13:00:00	3	Temperatura mínima	23.6
151456	7	Sololá	712	San Antonio Palopó	9	San Antonio Palopo	2	Febrero	2023-01-02T00:00:00	2024-11-08T13:00:00	5	Humedad	54
151457	7	Sololá	712	San Antonio Palopó	9	San Antonio Palopo	2	Febrero	2023-01-02T00:00:00	2024-11-08T13:00:00	6	Velocidad del viento	9.7
151458	7	Sololá	712	San Antonio Palopó	9	San Antonio Palopo	2	Febrero	2023-01-02T00:00:00	2024-11-08T13:00:00	7	Dirección del viento	9.66
151459	7	Sololá	712	San Antonio Palopó	9	San Antonio Palopo	2	Febrero	2023-01-02T00:00:00	2024-11-08T13:00:00	1	Precipitación	0
151460	7	Sololá	712	San Antonio Palopó	9	San Antonio Palopo	2	Febrero	2023-01-02T00:00:00	2024-11-08T13:00:00	8	Radiación solar	798
151461	7	Sololá	712	San Antonio Palopó	9	San Antonio Palopo	2	Febrero	2023-01-02T00:00:00	2024-11-08T14:00:00	2	Temperatura media	24.3
151462	7	Sololá	712	San Antonio Palopó	9	San Antonio Palopo	2	Febrero	2023-01-02T00:00:00	2024-11-08T14:00:00	4	Temperatura máxima	24.8
151463	7	Sololá	712	San Antonio Palopó	9	San Antonio Palopo	2	Febrero	2023-01-02T00:00:00	2024-11-08T14:00:00	3	Temperatura mínima	23.4
151464	7	Sololá	712	San Antonio Palopó	9	San Antonio Palopo	2	Febrero	2023-01-02T00:00:00	2024-11-08T14:00:00	5	Humedad	55
151465	7	Sololá	712	San Antonio Palopó	9	San Antonio Palopo	2	Febrero	2023-01-02T00:00:00	2024-11-08T14:00:00	6	Velocidad del viento	16.1
151466	7	Sololá	712	San Antonio Palopó	9	San Antonio Palopo	2	Febrero	2023-01-02T00:00:00	2024-11-08T14:00:00	7	Dirección del viento	16.09
151467	7	Sololá	712	San Antonio Palopó	9	San Antonio Palopo	2	Febrero	2023-01-02T00:00:00	2024-11-08T14:00:00	1	Precipitación	0
151468	7	Sololá	712	San Antonio Palopó	9	San Antonio Palopo	2	Febrero	2023-01-02T00:00:00	2024-11-08T14:00:00	8	Radiación solar	752
151469	7	Sololá	712	San Antonio Palopó	9	San Antonio Palopo	2	Febrero	2023-01-02T00:00:00	2024-11-08T15:00:00	2	Temperatura media	22.8
151470	7	Sololá	712	San Antonio Palopó	9	San Antonio Palopo	2	Febrero	2023-01-02T00:00:00	2024-11-08T15:00:00	4	Temperatura máxima	24.3
151471	7	Sololá	712	San Antonio Palopó	9	San Antonio Palopo	2	Febrero	2023-01-02T00:00:00	2024-11-08T15:00:00	3	Temperatura mínima	22.8
151472	7	Sololá	712	San Antonio Palopó	9	San Antonio Palopo	2	Febrero	2023-01-02T00:00:00	2024-11-08T15:00:00	5	Humedad	64
151473	7	Sololá	712	San Antonio Palopó	9	San Antonio Palopo	2	Febrero	2023-01-02T00:00:00	2024-11-08T15:00:00	6	Velocidad del viento	20.9
151474	7	Sololá	712	San Antonio Palopó	9	San Antonio Palopo	2	Febrero	2023-01-02T00:00:00	2024-11-08T15:00:00	7	Dirección del viento	20.92
151475	7	Sololá	712	San Antonio Palopó	9	San Antonio Palopo	2	Febrero	2023-01-02T00:00:00	2024-11-08T15:00:00	1	Precipitación	0
151476	7	Sololá	712	San Antonio Palopó	9	San Antonio Palopo	2	Febrero	2023-01-02T00:00:00	2024-11-08T15:00:00	8	Radiación solar	631
151477	7	Sololá	712	San Antonio Palopó	9	San Antonio Palopo	2	Febrero	2023-01-02T00:00:00	2024-11-08T16:00:00	2	Temperatura media	22.8
151478	7	Sololá	712	San Antonio Palopó	9	San Antonio Palopo	2	Febrero	2023-01-02T00:00:00	2024-11-08T16:00:00	4	Temperatura máxima	22.9
151479	7	Sololá	712	San Antonio Palopó	9	San Antonio Palopo	2	Febrero	2023-01-02T00:00:00	2024-11-08T16:00:00	3	Temperatura mínima	22.4
151480	7	Sololá	712	San Antonio Palopó	9	San Antonio Palopo	2	Febrero	2023-01-02T00:00:00	2024-11-08T16:00:00	5	Humedad	65
151481	7	Sololá	712	San Antonio Palopó	9	San Antonio Palopo	2	Febrero	2023-01-02T00:00:00	2024-11-08T16:00:00	6	Velocidad del viento	17.7
151482	7	Sololá	712	San Antonio Palopó	9	San Antonio Palopo	2	Febrero	2023-01-02T00:00:00	2024-11-08T16:00:00	7	Dirección del viento	17.7
151483	7	Sololá	712	San Antonio Palopó	9	San Antonio Palopo	2	Febrero	2023-01-02T00:00:00	2024-11-08T16:00:00	1	Precipitación	0
151484	7	Sololá	712	San Antonio Palopó	9	San Antonio Palopo	2	Febrero	2023-01-02T00:00:00	2024-11-08T16:00:00	8	Radiación solar	451
151485	7	Sololá	712	San Antonio Palopó	9	San Antonio Palopo	2	Febrero	2023-01-02T00:00:00	2024-11-08T17:00:00	2	Temperatura media	22.3
151486	7	Sololá	712	San Antonio Palopó	9	San Antonio Palopo	2	Febrero	2023-01-02T00:00:00	2024-11-08T17:00:00	4	Temperatura máxima	22.9
151487	7	Sololá	712	San Antonio Palopó	9	San Antonio Palopo	2	Febrero	2023-01-02T00:00:00	2024-11-08T17:00:00	3	Temperatura mínima	22.2
151488	7	Sololá	712	San Antonio Palopó	9	San Antonio Palopo	2	Febrero	2023-01-02T00:00:00	2024-11-08T17:00:00	5	Humedad	69
151489	7	Sololá	712	San Antonio Palopó	9	San Antonio Palopo	2	Febrero	2023-01-02T00:00:00	2024-11-08T17:00:00	6	Velocidad del viento	14.5
151490	7	Sololá	712	San Antonio Palopó	9	San Antonio Palopo	2	Febrero	2023-01-02T00:00:00	2024-11-08T17:00:00	7	Dirección del viento	14.48
151491	7	Sololá	712	San Antonio Palopó	9	San Antonio Palopo	2	Febrero	2023-01-02T00:00:00	2024-11-08T17:00:00	1	Precipitación	0
151492	7	Sololá	712	San Antonio Palopó	9	San Antonio Palopo	2	Febrero	2023-01-02T00:00:00	2024-11-08T17:00:00	8	Radiación solar	245
151493	7	Sololá	712	San Antonio Palopó	9	San Antonio Palopo	2	Febrero	2023-01-02T00:00:00	2024-11-08T18:00:00	2	Temperatura media	20.2
151494	7	Sololá	712	San Antonio Palopó	9	San Antonio Palopo	2	Febrero	2023-01-02T00:00:00	2024-11-08T18:00:00	4	Temperatura máxima	22.4
151495	7	Sololá	712	San Antonio Palopó	9	San Antonio Palopo	2	Febrero	2023-01-02T00:00:00	2024-11-08T18:00:00	3	Temperatura mínima	20.2
151496	7	Sololá	712	San Antonio Palopó	9	San Antonio Palopo	2	Febrero	2023-01-02T00:00:00	2024-11-08T18:00:00	5	Humedad	78
151497	7	Sololá	712	San Antonio Palopó	9	San Antonio Palopo	2	Febrero	2023-01-02T00:00:00	2024-11-08T18:00:00	6	Velocidad del viento	8
151498	7	Sololá	712	San Antonio Palopó	9	San Antonio Palopo	2	Febrero	2023-01-02T00:00:00	2024-11-08T18:00:00	7	Dirección del viento	8.05
151499	7	Sololá	712	San Antonio Palopó	9	San Antonio Palopo	2	Febrero	2023-01-02T00:00:00	2024-11-08T18:00:00	1	Precipitación	0
151500	7	Sololá	712	San Antonio Palopó	9	San Antonio Palopo	2	Febrero	2023-01-02T00:00:00	2024-11-08T18:00:00	8	Radiación solar	53
151501	7	Sololá	712	San Antonio Palopó	9	San Antonio Palopo	2	Febrero	2023-01-02T00:00:00	2024-11-08T19:00:00	2	Temperatura media	19.9
151502	7	Sololá	712	San Antonio Palopó	9	San Antonio Palopo	2	Febrero	2023-01-02T00:00:00	2024-11-08T19:00:00	4	Temperatura máxima	20.3
151503	7	Sololá	712	San Antonio Palopó	9	San Antonio Palopo	2	Febrero	2023-01-02T00:00:00	2024-11-08T19:00:00	3	Temperatura mínima	19.7
151504	7	Sololá	712	San Antonio Palopó	9	San Antonio Palopo	2	Febrero	2023-01-02T00:00:00	2024-11-08T19:00:00	5	Humedad	73
151505	7	Sololá	712	San Antonio Palopó	9	San Antonio Palopo	2	Febrero	2023-01-02T00:00:00	2024-11-08T19:00:00	6	Velocidad del viento	1.6
151506	7	Sololá	712	San Antonio Palopó	9	San Antonio Palopo	2	Febrero	2023-01-02T00:00:00	2024-11-08T19:00:00	7	Dirección del viento	1.61
151507	7	Sololá	712	San Antonio Palopó	9	San Antonio Palopo	2	Febrero	2023-01-02T00:00:00	2024-11-08T19:00:00	1	Precipitación	0
151508	7	Sololá	712	San Antonio Palopó	9	San Antonio Palopo	2	Febrero	2023-01-02T00:00:00	2024-11-08T19:00:00	8	Radiación solar	0
151509	7	Sololá	712	San Antonio Palopó	9	San Antonio Palopo	2	Febrero	2023-01-02T00:00:00	2024-11-08T20:00:00	2	Temperatura media	19.4
151510	7	Sololá	712	San Antonio Palopó	9	San Antonio Palopo	2	Febrero	2023-01-02T00:00:00	2024-11-08T20:00:00	4	Temperatura máxima	20.3
151511	7	Sololá	712	San Antonio Palopó	9	San Antonio Palopo	2	Febrero	2023-01-02T00:00:00	2024-11-08T20:00:00	3	Temperatura mínima	19.4
151512	7	Sololá	712	San Antonio Palopó	9	San Antonio Palopo	2	Febrero	2023-01-02T00:00:00	2024-11-08T20:00:00	5	Humedad	65
151513	7	Sololá	712	San Antonio Palopó	9	San Antonio Palopo	2	Febrero	2023-01-02T00:00:00	2024-11-08T20:00:00	6	Velocidad del viento	12.9
151514	7	Sololá	712	San Antonio Palopó	9	San Antonio Palopo	2	Febrero	2023-01-02T00:00:00	2024-11-08T20:00:00	7	Dirección del viento	12.87
151515	7	Sololá	712	San Antonio Palopó	9	San Antonio Palopo	2	Febrero	2023-01-02T00:00:00	2024-11-08T20:00:00	1	Precipitación	0
151516	7	Sololá	712	San Antonio Palopó	9	San Antonio Palopo	2	Febrero	2023-01-02T00:00:00	2024-11-08T20:00:00	8	Radiación solar	0
151517	7	Sololá	712	San Antonio Palopó	9	San Antonio Palopo	2	Febrero	2023-01-02T00:00:00	2024-11-08T21:00:00	2	Temperatura media	18.9
151518	7	Sololá	712	San Antonio Palopó	9	San Antonio Palopo	2	Febrero	2023-01-02T00:00:00	2024-11-08T21:00:00	4	Temperatura máxima	19.4
151519	7	Sololá	712	San Antonio Palopó	9	San Antonio Palopo	2	Febrero	2023-01-02T00:00:00	2024-11-08T21:00:00	3	Temperatura mínima	18.9
151520	7	Sololá	712	San Antonio Palopó	9	San Antonio Palopo	2	Febrero	2023-01-02T00:00:00	2024-11-08T21:00:00	5	Humedad	66
151521	7	Sololá	712	San Antonio Palopó	9	San Antonio Palopo	2	Febrero	2023-01-02T00:00:00	2024-11-08T21:00:00	6	Velocidad del viento	14.5
151522	7	Sololá	712	San Antonio Palopó	9	San Antonio Palopo	2	Febrero	2023-01-02T00:00:00	2024-11-08T21:00:00	7	Dirección del viento	14.48
151523	7	Sololá	712	San Antonio Palopó	9	San Antonio Palopo	2	Febrero	2023-01-02T00:00:00	2024-11-08T21:00:00	1	Precipitación	0
151524	7	Sololá	712	San Antonio Palopó	9	San Antonio Palopo	2	Febrero	2023-01-02T00:00:00	2024-11-08T21:00:00	8	Radiación solar	0
151525	7	Sololá	712	San Antonio Palopó	9	San Antonio Palopo	2	Febrero	2023-01-02T00:00:00	2024-11-08T22:00:00	2	Temperatura media	17.9
151526	7	Sololá	712	San Antonio Palopó	9	San Antonio Palopo	2	Febrero	2023-01-02T00:00:00	2024-11-08T22:00:00	4	Temperatura máxima	18.9
151527	7	Sololá	712	San Antonio Palopó	9	San Antonio Palopo	2	Febrero	2023-01-02T00:00:00	2024-11-08T22:00:00	3	Temperatura mínima	17.9
151528	7	Sololá	712	San Antonio Palopó	9	San Antonio Palopo	2	Febrero	2023-01-02T00:00:00	2024-11-08T22:00:00	5	Humedad	69
151529	7	Sololá	712	San Antonio Palopó	9	San Antonio Palopo	2	Febrero	2023-01-02T00:00:00	2024-11-08T22:00:00	6	Velocidad del viento	14.5
151530	7	Sololá	712	San Antonio Palopó	9	San Antonio Palopo	2	Febrero	2023-01-02T00:00:00	2024-11-08T22:00:00	7	Dirección del viento	14.48
151531	7	Sololá	712	San Antonio Palopó	9	San Antonio Palopo	2	Febrero	2023-01-02T00:00:00	2024-11-08T22:00:00	1	Precipitación	0
151532	7	Sololá	712	San Antonio Palopó	9	San Antonio Palopo	2	Febrero	2023-01-02T00:00:00	2024-11-08T22:00:00	8	Radiación solar	0
151533	7	Sololá	712	San Antonio Palopó	9	San Antonio Palopo	2	Febrero	2023-01-02T00:00:00	2024-11-08T23:00:00	2	Temperatura media	17.5
151534	7	Sololá	712	San Antonio Palopó	9	San Antonio Palopo	2	Febrero	2023-01-02T00:00:00	2024-11-08T23:00:00	4	Temperatura máxima	18
151535	7	Sololá	712	San Antonio Palopó	9	San Antonio Palopo	2	Febrero	2023-01-02T00:00:00	2024-11-08T23:00:00	3	Temperatura mínima	17.5
151536	7	Sololá	712	San Antonio Palopó	9	San Antonio Palopo	2	Febrero	2023-01-02T00:00:00	2024-11-08T23:00:00	5	Humedad	70
151537	7	Sololá	712	San Antonio Palopó	9	San Antonio Palopo	2	Febrero	2023-01-02T00:00:00	2024-11-08T23:00:00	6	Velocidad del viento	12.9
151538	7	Sololá	712	San Antonio Palopó	9	San Antonio Palopo	2	Febrero	2023-01-02T00:00:00	2024-11-08T23:00:00	7	Dirección del viento	12.87
151539	7	Sololá	712	San Antonio Palopó	9	San Antonio Palopo	2	Febrero	2023-01-02T00:00:00	2024-11-08T23:00:00	1	Precipitación	0
151540	7	Sololá	712	San Antonio Palopó	9	San Antonio Palopo	2	Febrero	2023-01-02T00:00:00	2024-11-08T23:00:00	8	Radiación solar	0
151541	7	Sololá	712	San Antonio Palopó	9	San Antonio Palopo	2	Febrero	2023-02-02T00:00:00	2024-11-08T00:00:00	2	Temperatura media	17.1
151542	7	Sololá	712	San Antonio Palopó	9	San Antonio Palopo	2	Febrero	2023-02-02T00:00:00	2024-11-08T00:00:00	4	Temperatura máxima	17.5
151543	7	Sololá	712	San Antonio Palopó	9	San Antonio Palopo	2	Febrero	2023-02-02T00:00:00	2024-11-08T00:00:00	3	Temperatura mínima	17.1
151544	7	Sololá	712	San Antonio Palopó	9	San Antonio Palopo	2	Febrero	2023-02-02T00:00:00	2024-11-08T00:00:00	5	Humedad	69
151545	7	Sololá	712	San Antonio Palopó	9	San Antonio Palopo	2	Febrero	2023-02-02T00:00:00	2024-11-08T00:00:00	6	Velocidad del viento	8
151546	7	Sololá	712	San Antonio Palopó	9	San Antonio Palopo	2	Febrero	2023-02-02T00:00:00	2024-11-08T00:00:00	7	Dirección del viento	8.05
151547	7	Sololá	712	San Antonio Palopó	9	San Antonio Palopo	2	Febrero	2023-02-02T00:00:00	2024-11-08T00:00:00	1	Precipitación	0
151548	7	Sololá	712	San Antonio Palopó	9	San Antonio Palopo	2	Febrero	2023-02-02T00:00:00	2024-11-08T00:00:00	8	Radiación solar	0
151549	7	Sololá	712	San Antonio Palopó	9	San Antonio Palopo	2	Febrero	2023-02-02T00:00:00	2024-11-08T01:00:00	2	Temperatura media	16.9
151550	7	Sololá	712	San Antonio Palopó	9	San Antonio Palopo	2	Febrero	2023-02-02T00:00:00	2024-11-08T01:00:00	4	Temperatura máxima	17.1
151551	7	Sololá	712	San Antonio Palopó	9	San Antonio Palopo	2	Febrero	2023-02-02T00:00:00	2024-11-08T01:00:00	3	Temperatura mínima	16.7
151552	7	Sololá	712	San Antonio Palopó	9	San Antonio Palopo	2	Febrero	2023-02-02T00:00:00	2024-11-08T01:00:00	5	Humedad	68
151553	7	Sololá	712	San Antonio Palopó	9	San Antonio Palopo	2	Febrero	2023-02-02T00:00:00	2024-11-08T01:00:00	6	Velocidad del viento	9.7
151554	7	Sololá	712	San Antonio Palopó	9	San Antonio Palopo	2	Febrero	2023-02-02T00:00:00	2024-11-08T01:00:00	7	Dirección del viento	9.66
151555	7	Sololá	712	San Antonio Palopó	9	San Antonio Palopo	2	Febrero	2023-02-02T00:00:00	2024-11-08T01:00:00	1	Precipitación	0
151556	7	Sololá	712	San Antonio Palopó	9	San Antonio Palopo	2	Febrero	2023-02-02T00:00:00	2024-11-08T01:00:00	8	Radiación solar	0
151557	7	Sololá	712	San Antonio Palopó	9	San Antonio Palopo	2	Febrero	2023-02-02T00:00:00	2024-11-08T02:00:00	2	Temperatura media	16.7
151558	7	Sololá	712	San Antonio Palopó	9	San Antonio Palopo	2	Febrero	2023-02-02T00:00:00	2024-11-08T02:00:00	4	Temperatura máxima	16.9
151559	7	Sololá	712	San Antonio Palopó	9	San Antonio Palopo	2	Febrero	2023-02-02T00:00:00	2024-11-08T02:00:00	3	Temperatura mínima	16.4
151560	7	Sololá	712	San Antonio Palopó	9	San Antonio Palopo	2	Febrero	2023-02-02T00:00:00	2024-11-08T02:00:00	5	Humedad	67
151561	7	Sololá	712	San Antonio Palopó	9	San Antonio Palopo	2	Febrero	2023-02-02T00:00:00	2024-11-08T02:00:00	6	Velocidad del viento	8
151562	7	Sololá	712	San Antonio Palopó	9	San Antonio Palopo	2	Febrero	2023-02-02T00:00:00	2024-11-08T02:00:00	7	Dirección del viento	8.05
151563	7	Sololá	712	San Antonio Palopó	9	San Antonio Palopo	2	Febrero	2023-02-02T00:00:00	2024-11-08T02:00:00	1	Precipitación	0
151564	7	Sololá	712	San Antonio Palopó	9	San Antonio Palopo	2	Febrero	2023-02-02T00:00:00	2024-11-08T02:00:00	8	Radiación solar	0
151565	7	Sololá	712	San Antonio Palopó	9	San Antonio Palopo	2	Febrero	2023-02-02T00:00:00	2024-11-08T03:00:00	2	Temperatura media	16.1
151566	7	Sololá	712	San Antonio Palopó	9	San Antonio Palopo	2	Febrero	2023-02-02T00:00:00	2024-11-08T03:00:00	4	Temperatura máxima	16.7
151567	7	Sololá	712	San Antonio Palopó	9	San Antonio Palopo	2	Febrero	2023-02-02T00:00:00	2024-11-08T03:00:00	3	Temperatura mínima	16
151568	7	Sololá	712	San Antonio Palopó	9	San Antonio Palopo	2	Febrero	2023-02-02T00:00:00	2024-11-08T03:00:00	5	Humedad	68
151569	7	Sololá	712	San Antonio Palopó	9	San Antonio Palopo	2	Febrero	2023-02-02T00:00:00	2024-11-08T03:00:00	6	Velocidad del viento	8
151570	7	Sololá	712	San Antonio Palopó	9	San Antonio Palopo	2	Febrero	2023-02-02T00:00:00	2024-11-08T03:00:00	7	Dirección del viento	8.05
151571	7	Sololá	712	San Antonio Palopó	9	San Antonio Palopo	2	Febrero	2023-02-02T00:00:00	2024-11-08T03:00:00	1	Precipitación	0
151572	7	Sololá	712	San Antonio Palopó	9	San Antonio Palopo	2	Febrero	2023-02-02T00:00:00	2024-11-08T03:00:00	8	Radiación solar	0
151573	7	Sololá	712	San Antonio Palopó	9	San Antonio Palopo	2	Febrero	2023-02-02T00:00:00	2024-11-08T04:00:00	2	Temperatura media	16
151574	7	Sololá	712	San Antonio Palopó	9	San Antonio Palopo	2	Febrero	2023-02-02T00:00:00	2024-11-08T04:00:00	4	Temperatura máxima	16.1
151575	7	Sololá	712	San Antonio Palopó	9	San Antonio Palopo	2	Febrero	2023-02-02T00:00:00	2024-11-08T04:00:00	3	Temperatura mínima	15.7
151576	7	Sololá	712	San Antonio Palopó	9	San Antonio Palopo	2	Febrero	2023-02-02T00:00:00	2024-11-08T04:00:00	5	Humedad	67
151577	7	Sololá	712	San Antonio Palopó	9	San Antonio Palopo	2	Febrero	2023-02-02T00:00:00	2024-11-08T04:00:00	6	Velocidad del viento	14.5
151578	7	Sololá	712	San Antonio Palopó	9	San Antonio Palopo	2	Febrero	2023-02-02T00:00:00	2024-11-08T04:00:00	7	Dirección del viento	14.48
151579	7	Sololá	712	San Antonio Palopó	9	San Antonio Palopo	2	Febrero	2023-02-02T00:00:00	2024-11-08T04:00:00	1	Precipitación	0
151580	7	Sololá	712	San Antonio Palopó	9	San Antonio Palopo	2	Febrero	2023-02-02T00:00:00	2024-11-08T04:00:00	8	Radiación solar	0
151581	7	Sololá	712	San Antonio Palopó	9	San Antonio Palopo	2	Febrero	2023-02-02T00:00:00	2024-11-08T05:00:00	2	Temperatura media	15.7
151582	7	Sololá	712	San Antonio Palopó	9	San Antonio Palopo	2	Febrero	2023-02-02T00:00:00	2024-11-08T05:00:00	4	Temperatura máxima	16.1
151583	7	Sololá	712	San Antonio Palopó	9	San Antonio Palopo	2	Febrero	2023-02-02T00:00:00	2024-11-08T05:00:00	3	Temperatura mínima	15.6
151584	7	Sololá	712	San Antonio Palopó	9	San Antonio Palopo	2	Febrero	2023-02-02T00:00:00	2024-11-08T05:00:00	5	Humedad	64
151585	7	Sololá	712	San Antonio Palopó	9	San Antonio Palopo	2	Febrero	2023-02-02T00:00:00	2024-11-08T05:00:00	6	Velocidad del viento	16.1
151586	7	Sololá	712	San Antonio Palopó	9	San Antonio Palopo	2	Febrero	2023-02-02T00:00:00	2024-11-08T05:00:00	7	Dirección del viento	16.09
151587	7	Sololá	712	San Antonio Palopó	9	San Antonio Palopo	2	Febrero	2023-02-02T00:00:00	2024-11-08T05:00:00	1	Precipitación	0
151588	7	Sololá	712	San Antonio Palopó	9	San Antonio Palopo	2	Febrero	2023-02-02T00:00:00	2024-11-08T05:00:00	8	Radiación solar	0
151589	7	Sololá	712	San Antonio Palopó	9	San Antonio Palopo	2	Febrero	2023-02-02T00:00:00	2024-11-08T06:00:00	2	Temperatura media	15.6
151590	7	Sololá	712	San Antonio Palopó	9	San Antonio Palopo	2	Febrero	2023-02-02T00:00:00	2024-11-08T06:00:00	4	Temperatura máxima	16.1
151591	7	Sololá	712	San Antonio Palopó	9	San Antonio Palopo	2	Febrero	2023-02-02T00:00:00	2024-11-08T06:00:00	3	Temperatura mínima	15.5
151592	7	Sololá	712	San Antonio Palopó	9	San Antonio Palopo	2	Febrero	2023-02-02T00:00:00	2024-11-08T06:00:00	5	Humedad	60
151593	7	Sololá	712	San Antonio Palopó	9	San Antonio Palopo	2	Febrero	2023-02-02T00:00:00	2024-11-08T06:00:00	6	Velocidad del viento	14.5
151594	7	Sololá	712	San Antonio Palopó	9	San Antonio Palopo	2	Febrero	2023-02-02T00:00:00	2024-11-08T06:00:00	7	Dirección del viento	14.48
151595	7	Sololá	712	San Antonio Palopó	9	San Antonio Palopo	2	Febrero	2023-02-02T00:00:00	2024-11-08T06:00:00	1	Precipitación	0
151596	7	Sololá	712	San Antonio Palopó	9	San Antonio Palopo	2	Febrero	2023-02-02T00:00:00	2024-11-08T06:00:00	8	Radiación solar	0
151597	7	Sololá	712	San Antonio Palopó	9	San Antonio Palopo	2	Febrero	2023-02-02T00:00:00	2024-11-08T07:00:00	2	Temperatura media	15.9
151598	7	Sololá	712	San Antonio Palopó	9	San Antonio Palopo	2	Febrero	2023-02-02T00:00:00	2024-11-08T07:00:00	4	Temperatura máxima	15.9
151599	7	Sololá	712	San Antonio Palopó	9	San Antonio Palopo	2	Febrero	2023-02-02T00:00:00	2024-11-08T07:00:00	3	Temperatura mínima	15.4
151600	7	Sololá	712	San Antonio Palopó	9	San Antonio Palopo	2	Febrero	2023-02-02T00:00:00	2024-11-08T07:00:00	5	Humedad	59
151601	7	Sololá	712	San Antonio Palopó	9	San Antonio Palopo	2	Febrero	2023-02-02T00:00:00	2024-11-08T07:00:00	6	Velocidad del viento	14.5
151602	7	Sololá	712	San Antonio Palopó	9	San Antonio Palopo	2	Febrero	2023-02-02T00:00:00	2024-11-08T07:00:00	7	Dirección del viento	14.48
151603	7	Sololá	712	San Antonio Palopó	9	San Antonio Palopo	2	Febrero	2023-02-02T00:00:00	2024-11-08T07:00:00	1	Precipitación	0
151604	7	Sololá	712	San Antonio Palopó	9	San Antonio Palopo	2	Febrero	2023-02-02T00:00:00	2024-11-08T07:00:00	8	Radiación solar	3
151605	7	Sololá	712	San Antonio Palopó	9	San Antonio Palopo	2	Febrero	2023-02-02T00:00:00	2024-11-08T08:00:00	2	Temperatura media	16.3
151606	7	Sololá	712	San Antonio Palopó	9	San Antonio Palopo	2	Febrero	2023-02-02T00:00:00	2024-11-08T08:00:00	4	Temperatura máxima	16.4
151607	7	Sololá	712	San Antonio Palopó	9	San Antonio Palopo	2	Febrero	2023-02-02T00:00:00	2024-11-08T08:00:00	3	Temperatura mínima	15.9
151608	7	Sololá	712	San Antonio Palopó	9	San Antonio Palopo	2	Febrero	2023-02-02T00:00:00	2024-11-08T08:00:00	5	Humedad	58
151609	7	Sololá	712	San Antonio Palopó	9	San Antonio Palopo	2	Febrero	2023-02-02T00:00:00	2024-11-08T08:00:00	6	Velocidad del viento	8
151610	7	Sololá	712	San Antonio Palopó	9	San Antonio Palopo	2	Febrero	2023-02-02T00:00:00	2024-11-08T08:00:00	7	Dirección del viento	8.05
151611	7	Sololá	712	San Antonio Palopó	9	San Antonio Palopo	2	Febrero	2023-02-02T00:00:00	2024-11-08T08:00:00	1	Precipitación	0
151612	7	Sololá	712	San Antonio Palopó	9	San Antonio Palopo	2	Febrero	2023-02-02T00:00:00	2024-11-08T08:00:00	8	Radiación solar	15
151613	7	Sololá	712	San Antonio Palopó	9	San Antonio Palopo	2	Febrero	2023-02-02T00:00:00	2024-11-08T09:00:00	2	Temperatura media	18.7
151614	7	Sololá	712	San Antonio Palopó	9	San Antonio Palopo	2	Febrero	2023-02-02T00:00:00	2024-11-08T09:00:00	4	Temperatura máxima	18.7
151615	7	Sololá	712	San Antonio Palopó	9	San Antonio Palopo	2	Febrero	2023-02-02T00:00:00	2024-11-08T09:00:00	3	Temperatura mínima	16.3
151616	7	Sololá	712	San Antonio Palopó	9	San Antonio Palopo	2	Febrero	2023-02-02T00:00:00	2024-11-08T09:00:00	5	Humedad	54
151617	7	Sololá	712	San Antonio Palopó	9	San Antonio Palopo	2	Febrero	2023-02-02T00:00:00	2024-11-08T09:00:00	6	Velocidad del viento	4.8
151618	7	Sololá	712	San Antonio Palopó	9	San Antonio Palopo	2	Febrero	2023-02-02T00:00:00	2024-11-08T09:00:00	7	Dirección del viento	4.83
151619	7	Sololá	712	San Antonio Palopó	9	San Antonio Palopo	2	Febrero	2023-02-02T00:00:00	2024-11-08T09:00:00	1	Precipitación	0
151620	7	Sololá	712	San Antonio Palopó	9	San Antonio Palopo	2	Febrero	2023-02-02T00:00:00	2024-11-08T09:00:00	8	Radiación solar	184
151621	7	Sololá	712	San Antonio Palopó	9	San Antonio Palopo	2	Febrero	2023-02-02T00:00:00	2024-11-08T10:00:00	2	Temperatura media	21.9
151622	7	Sololá	712	San Antonio Palopó	9	San Antonio Palopo	2	Febrero	2023-02-02T00:00:00	2024-11-08T10:00:00	4	Temperatura máxima	22.1
151623	7	Sololá	712	San Antonio Palopó	9	San Antonio Palopo	2	Febrero	2023-02-02T00:00:00	2024-11-08T10:00:00	3	Temperatura mínima	18.6
151624	7	Sololá	712	San Antonio Palopó	9	San Antonio Palopo	2	Febrero	2023-02-02T00:00:00	2024-11-08T10:00:00	5	Humedad	39
151625	7	Sololá	712	San Antonio Palopó	9	San Antonio Palopo	2	Febrero	2023-02-02T00:00:00	2024-11-08T10:00:00	6	Velocidad del viento	3.2
151626	7	Sololá	712	San Antonio Palopó	9	San Antonio Palopo	2	Febrero	2023-02-02T00:00:00	2024-11-08T10:00:00	7	Dirección del viento	3.22
151627	7	Sololá	712	San Antonio Palopó	9	San Antonio Palopo	2	Febrero	2023-02-02T00:00:00	2024-11-08T10:00:00	1	Precipitación	0
151628	7	Sololá	712	San Antonio Palopó	9	San Antonio Palopo	2	Febrero	2023-02-02T00:00:00	2024-11-08T10:00:00	8	Radiación solar	566
151629	7	Sololá	712	San Antonio Palopó	9	San Antonio Palopo	2	Febrero	2023-02-02T00:00:00	2024-11-08T11:00:00	2	Temperatura media	22.6
151630	7	Sololá	712	San Antonio Palopó	9	San Antonio Palopo	2	Febrero	2023-02-02T00:00:00	2024-11-08T11:00:00	4	Temperatura máxima	22.6
151631	7	Sololá	712	San Antonio Palopó	9	San Antonio Palopo	2	Febrero	2023-02-02T00:00:00	2024-11-08T11:00:00	3	Temperatura mínima	19.3
151632	7	Sololá	712	San Antonio Palopó	9	San Antonio Palopo	2	Febrero	2023-02-02T00:00:00	2024-11-08T11:00:00	5	Humedad	35
151633	7	Sololá	712	San Antonio Palopó	9	San Antonio Palopo	2	Febrero	2023-02-02T00:00:00	2024-11-08T11:00:00	6	Velocidad del viento	9.7
151634	7	Sololá	712	San Antonio Palopó	9	San Antonio Palopo	2	Febrero	2023-02-02T00:00:00	2024-11-08T11:00:00	7	Dirección del viento	9.66
151635	7	Sololá	712	San Antonio Palopó	9	San Antonio Palopo	2	Febrero	2023-02-02T00:00:00	2024-11-08T11:00:00	1	Precipitación	0
151636	7	Sololá	712	San Antonio Palopó	9	San Antonio Palopo	2	Febrero	2023-02-02T00:00:00	2024-11-08T11:00:00	8	Radiación solar	716
151637	7	Sololá	712	San Antonio Palopó	9	San Antonio Palopo	2	Febrero	2023-02-02T00:00:00	2024-11-08T12:00:00	2	Temperatura media	23.5
151638	7	Sololá	712	San Antonio Palopó	9	San Antonio Palopo	2	Febrero	2023-02-02T00:00:00	2024-11-08T12:00:00	4	Temperatura máxima	24.1
151639	7	Sololá	712	San Antonio Palopó	9	San Antonio Palopo	2	Febrero	2023-02-02T00:00:00	2024-11-08T12:00:00	3	Temperatura mínima	22.6
151640	7	Sololá	712	San Antonio Palopó	9	San Antonio Palopo	2	Febrero	2023-02-02T00:00:00	2024-11-08T12:00:00	5	Humedad	47
151641	7	Sololá	712	San Antonio Palopó	9	San Antonio Palopo	2	Febrero	2023-02-02T00:00:00	2024-11-08T12:00:00	6	Velocidad del viento	9.7
151642	7	Sololá	712	San Antonio Palopó	9	San Antonio Palopo	2	Febrero	2023-02-02T00:00:00	2024-11-08T12:00:00	7	Dirección del viento	9.66
151643	7	Sololá	712	San Antonio Palopó	9	San Antonio Palopo	2	Febrero	2023-02-02T00:00:00	2024-11-08T12:00:00	1	Precipitación	0
151644	7	Sololá	712	San Antonio Palopó	9	San Antonio Palopo	2	Febrero	2023-02-02T00:00:00	2024-11-08T12:00:00	8	Radiación solar	713
151645	7	Sololá	712	San Antonio Palopó	9	San Antonio Palopo	2	Febrero	2023-02-02T00:00:00	2024-11-08T13:00:00	2	Temperatura media	23.7
151646	7	Sololá	712	San Antonio Palopó	9	San Antonio Palopo	2	Febrero	2023-02-02T00:00:00	2024-11-08T13:00:00	4	Temperatura máxima	24.1
151647	7	Sololá	712	San Antonio Palopó	9	San Antonio Palopo	2	Febrero	2023-02-02T00:00:00	2024-11-08T13:00:00	3	Temperatura mínima	23.4
151648	7	Sololá	712	San Antonio Palopó	9	San Antonio Palopo	2	Febrero	2023-02-02T00:00:00	2024-11-08T13:00:00	5	Humedad	46
151649	7	Sololá	712	San Antonio Palopó	9	San Antonio Palopo	2	Febrero	2023-02-02T00:00:00	2024-11-08T13:00:00	6	Velocidad del viento	9.7
151650	7	Sololá	712	San Antonio Palopó	9	San Antonio Palopo	2	Febrero	2023-02-02T00:00:00	2024-11-08T13:00:00	7	Dirección del viento	9.66
151651	7	Sololá	712	San Antonio Palopó	9	San Antonio Palopo	2	Febrero	2023-02-02T00:00:00	2024-11-08T13:00:00	1	Precipitación	0
151652	7	Sololá	712	San Antonio Palopó	9	San Antonio Palopo	2	Febrero	2023-02-02T00:00:00	2024-11-08T13:00:00	8	Radiación solar	807
151653	7	Sololá	712	San Antonio Palopó	9	San Antonio Palopo	2	Febrero	2023-02-02T00:00:00	2024-11-08T14:00:00	2	Temperatura media	23.1
151654	7	Sololá	712	San Antonio Palopó	9	San Antonio Palopo	2	Febrero	2023-02-02T00:00:00	2024-11-08T14:00:00	4	Temperatura máxima	24.1
151655	7	Sololá	712	San Antonio Palopó	9	San Antonio Palopo	2	Febrero	2023-02-02T00:00:00	2024-11-08T14:00:00	3	Temperatura mínima	23.1
151656	7	Sololá	712	San Antonio Palopó	9	San Antonio Palopo	2	Febrero	2023-02-02T00:00:00	2024-11-08T14:00:00	5	Humedad	55
151657	7	Sololá	712	San Antonio Palopó	9	San Antonio Palopo	2	Febrero	2023-02-02T00:00:00	2024-11-08T14:00:00	6	Velocidad del viento	16.1
151658	7	Sololá	712	San Antonio Palopó	9	San Antonio Palopo	2	Febrero	2023-02-02T00:00:00	2024-11-08T14:00:00	7	Dirección del viento	16.09
151659	7	Sololá	712	San Antonio Palopó	9	San Antonio Palopo	2	Febrero	2023-02-02T00:00:00	2024-11-08T14:00:00	1	Precipitación	0
151660	7	Sololá	712	San Antonio Palopó	9	San Antonio Palopo	2	Febrero	2023-02-02T00:00:00	2024-11-08T14:00:00	8	Radiación solar	749
151661	7	Sololá	712	San Antonio Palopó	9	San Antonio Palopo	2	Febrero	2023-02-02T00:00:00	2024-11-08T15:00:00	2	Temperatura media	23.8
151662	7	Sololá	712	San Antonio Palopó	9	San Antonio Palopo	2	Febrero	2023-02-02T00:00:00	2024-11-08T15:00:00	4	Temperatura máxima	23.9
151663	7	Sololá	712	San Antonio Palopó	9	San Antonio Palopo	2	Febrero	2023-02-02T00:00:00	2024-11-08T15:00:00	3	Temperatura mínima	23.1
151664	7	Sololá	712	San Antonio Palopó	9	San Antonio Palopo	2	Febrero	2023-02-02T00:00:00	2024-11-08T15:00:00	5	Humedad	57
151665	7	Sololá	712	San Antonio Palopó	9	San Antonio Palopo	2	Febrero	2023-02-02T00:00:00	2024-11-08T15:00:00	6	Velocidad del viento	11.3
151666	7	Sololá	712	San Antonio Palopó	9	San Antonio Palopo	2	Febrero	2023-02-02T00:00:00	2024-11-08T15:00:00	7	Dirección del viento	11.27
151667	7	Sololá	712	San Antonio Palopó	9	San Antonio Palopo	2	Febrero	2023-02-02T00:00:00	2024-11-08T15:00:00	1	Precipitación	0
151668	7	Sololá	712	San Antonio Palopó	9	San Antonio Palopo	2	Febrero	2023-02-02T00:00:00	2024-11-08T15:00:00	8	Radiación solar	630
151669	7	Sololá	712	San Antonio Palopó	9	San Antonio Palopo	2	Febrero	2023-02-02T00:00:00	2024-11-08T16:00:00	2	Temperatura media	22.9
151670	7	Sololá	712	San Antonio Palopó	9	San Antonio Palopo	2	Febrero	2023-02-02T00:00:00	2024-11-08T16:00:00	4	Temperatura máxima	23.8
151671	7	Sololá	712	San Antonio Palopó	9	San Antonio Palopo	2	Febrero	2023-02-02T00:00:00	2024-11-08T16:00:00	3	Temperatura mínima	22.8
151672	7	Sololá	712	San Antonio Palopó	9	San Antonio Palopo	2	Febrero	2023-02-02T00:00:00	2024-11-08T16:00:00	5	Humedad	61
151673	7	Sololá	712	San Antonio Palopó	9	San Antonio Palopo	2	Febrero	2023-02-02T00:00:00	2024-11-08T16:00:00	6	Velocidad del viento	12.9
151674	7	Sololá	712	San Antonio Palopó	9	San Antonio Palopo	2	Febrero	2023-02-02T00:00:00	2024-11-08T16:00:00	7	Dirección del viento	12.87
151675	7	Sololá	712	San Antonio Palopó	9	San Antonio Palopo	2	Febrero	2023-02-02T00:00:00	2024-11-08T16:00:00	1	Precipitación	0
151676	7	Sololá	712	San Antonio Palopó	9	San Antonio Palopo	2	Febrero	2023-02-02T00:00:00	2024-11-08T16:00:00	8	Radiación solar	465
151677	7	Sololá	712	San Antonio Palopó	9	San Antonio Palopo	2	Febrero	2023-02-02T00:00:00	2024-11-08T17:00:00	2	Temperatura media	23.2
151678	7	Sololá	712	San Antonio Palopó	9	San Antonio Palopo	2	Febrero	2023-02-02T00:00:00	2024-11-08T17:00:00	4	Temperatura máxima	23.3
151679	7	Sololá	712	San Antonio Palopó	9	San Antonio Palopo	2	Febrero	2023-02-02T00:00:00	2024-11-08T17:00:00	3	Temperatura mínima	22.9
151680	7	Sololá	712	San Antonio Palopó	9	San Antonio Palopo	2	Febrero	2023-02-02T00:00:00	2024-11-08T17:00:00	5	Humedad	63
151681	7	Sololá	712	San Antonio Palopó	9	San Antonio Palopo	2	Febrero	2023-02-02T00:00:00	2024-11-08T17:00:00	6	Velocidad del viento	6.4
151682	7	Sololá	712	San Antonio Palopó	9	San Antonio Palopo	2	Febrero	2023-02-02T00:00:00	2024-11-08T17:00:00	7	Dirección del viento	6.44
151683	7	Sololá	712	San Antonio Palopó	9	San Antonio Palopo	2	Febrero	2023-02-02T00:00:00	2024-11-08T17:00:00	1	Precipitación	0
151684	7	Sololá	712	San Antonio Palopó	9	San Antonio Palopo	2	Febrero	2023-02-02T00:00:00	2024-11-08T17:00:00	8	Radiación solar	252
151685	7	Sololá	712	San Antonio Palopó	9	San Antonio Palopo	2	Febrero	2023-02-02T00:00:00	2024-11-08T18:00:00	2	Temperatura media	20.3
151686	7	Sololá	712	San Antonio Palopó	9	San Antonio Palopo	2	Febrero	2023-02-02T00:00:00	2024-11-08T18:00:00	4	Temperatura máxima	23.2
151687	7	Sololá	712	San Antonio Palopó	9	San Antonio Palopo	2	Febrero	2023-02-02T00:00:00	2024-11-08T18:00:00	3	Temperatura mínima	20.3
151688	7	Sololá	712	San Antonio Palopó	9	San Antonio Palopo	2	Febrero	2023-02-02T00:00:00	2024-11-08T18:00:00	5	Humedad	77
151689	7	Sololá	712	San Antonio Palopó	9	San Antonio Palopo	2	Febrero	2023-02-02T00:00:00	2024-11-08T18:00:00	6	Velocidad del viento	4.8
151690	7	Sololá	712	San Antonio Palopó	9	San Antonio Palopo	2	Febrero	2023-02-02T00:00:00	2024-11-08T18:00:00	7	Dirección del viento	4.83
151691	7	Sololá	712	San Antonio Palopó	9	San Antonio Palopo	2	Febrero	2023-02-02T00:00:00	2024-11-08T18:00:00	1	Precipitación	0
151692	7	Sololá	712	San Antonio Palopó	9	San Antonio Palopo	2	Febrero	2023-02-02T00:00:00	2024-11-08T18:00:00	8	Radiación solar	51
151693	7	Sololá	712	San Antonio Palopó	9	San Antonio Palopo	2	Febrero	2023-02-02T00:00:00	2024-11-08T19:00:00	2	Temperatura media	19.2
151694	7	Sololá	712	San Antonio Palopó	9	San Antonio Palopo	2	Febrero	2023-02-02T00:00:00	2024-11-08T19:00:00	4	Temperatura máxima	20.4
151695	7	Sololá	712	San Antonio Palopó	9	San Antonio Palopo	2	Febrero	2023-02-02T00:00:00	2024-11-08T19:00:00	3	Temperatura mínima	19.2
151696	7	Sololá	712	San Antonio Palopó	9	San Antonio Palopo	2	Febrero	2023-02-02T00:00:00	2024-11-08T19:00:00	5	Humedad	81
151697	7	Sololá	712	San Antonio Palopó	9	San Antonio Palopo	2	Febrero	2023-02-02T00:00:00	2024-11-08T19:00:00	6	Velocidad del viento	1.6
151698	7	Sololá	712	San Antonio Palopó	9	San Antonio Palopo	2	Febrero	2023-02-02T00:00:00	2024-11-08T19:00:00	7	Dirección del viento	1.61
151699	7	Sololá	712	San Antonio Palopó	9	San Antonio Palopo	2	Febrero	2023-02-02T00:00:00	2024-11-08T19:00:00	1	Precipitación	0
151700	7	Sololá	712	San Antonio Palopó	9	San Antonio Palopo	2	Febrero	2023-02-02T00:00:00	2024-11-08T19:00:00	8	Radiación solar	0
151701	7	Sololá	712	San Antonio Palopó	9	San Antonio Palopo	2	Febrero	2023-02-02T00:00:00	2024-11-08T20:00:00	2	Temperatura media	19.2
151702	7	Sololá	712	San Antonio Palopó	9	San Antonio Palopo	2	Febrero	2023-02-02T00:00:00	2024-11-08T20:00:00	4	Temperatura máxima	19.6
151703	7	Sololá	712	San Antonio Palopó	9	San Antonio Palopo	2	Febrero	2023-02-02T00:00:00	2024-11-08T20:00:00	3	Temperatura mínima	19.1
151704	7	Sololá	712	San Antonio Palopó	9	San Antonio Palopo	2	Febrero	2023-02-02T00:00:00	2024-11-08T20:00:00	5	Humedad	64
151705	7	Sololá	712	San Antonio Palopó	9	San Antonio Palopo	2	Febrero	2023-02-02T00:00:00	2024-11-08T20:00:00	6	Velocidad del viento	6.4
151706	7	Sololá	712	San Antonio Palopó	9	San Antonio Palopo	2	Febrero	2023-02-02T00:00:00	2024-11-08T20:00:00	7	Dirección del viento	6.44
151707	7	Sololá	712	San Antonio Palopó	9	San Antonio Palopo	2	Febrero	2023-02-02T00:00:00	2024-11-08T20:00:00	1	Precipitación	0
151708	7	Sololá	712	San Antonio Palopó	9	San Antonio Palopo	2	Febrero	2023-02-02T00:00:00	2024-11-08T20:00:00	8	Radiación solar	0
151709	7	Sololá	712	San Antonio Palopó	9	San Antonio Palopo	2	Febrero	2023-02-02T00:00:00	2024-11-08T21:00:00	2	Temperatura media	17.9
151710	7	Sololá	712	San Antonio Palopó	9	San Antonio Palopo	2	Febrero	2023-02-02T00:00:00	2024-11-08T21:00:00	4	Temperatura máxima	19.2
151711	7	Sololá	712	San Antonio Palopó	9	San Antonio Palopo	2	Febrero	2023-02-02T00:00:00	2024-11-08T21:00:00	3	Temperatura mínima	17.9
151712	7	Sololá	712	San Antonio Palopó	9	San Antonio Palopo	2	Febrero	2023-02-02T00:00:00	2024-11-08T21:00:00	5	Humedad	67
151713	7	Sololá	712	San Antonio Palopó	9	San Antonio Palopo	2	Febrero	2023-02-02T00:00:00	2024-11-08T21:00:00	6	Velocidad del viento	4.8
151714	7	Sololá	712	San Antonio Palopó	9	San Antonio Palopo	2	Febrero	2023-02-02T00:00:00	2024-11-08T21:00:00	7	Dirección del viento	4.83
151715	7	Sololá	712	San Antonio Palopó	9	San Antonio Palopo	2	Febrero	2023-02-02T00:00:00	2024-11-08T21:00:00	1	Precipitación	0
151716	7	Sololá	712	San Antonio Palopó	9	San Antonio Palopo	2	Febrero	2023-02-02T00:00:00	2024-11-08T21:00:00	8	Radiación solar	0
151717	7	Sololá	712	San Antonio Palopó	9	San Antonio Palopo	2	Febrero	2023-02-02T00:00:00	2024-11-08T22:00:00	2	Temperatura media	17.4
151718	7	Sololá	712	San Antonio Palopó	9	San Antonio Palopo	2	Febrero	2023-02-02T00:00:00	2024-11-08T22:00:00	4	Temperatura máxima	18
151719	7	Sololá	712	San Antonio Palopó	9	San Antonio Palopo	2	Febrero	2023-02-02T00:00:00	2024-11-08T22:00:00	3	Temperatura mínima	17.4
151720	7	Sololá	712	San Antonio Palopó	9	San Antonio Palopo	2	Febrero	2023-02-02T00:00:00	2024-11-08T22:00:00	5	Humedad	68
151721	7	Sololá	712	San Antonio Palopó	9	San Antonio Palopo	2	Febrero	2023-02-02T00:00:00	2024-11-08T22:00:00	6	Velocidad del viento	6.4
151722	7	Sololá	712	San Antonio Palopó	9	San Antonio Palopo	2	Febrero	2023-02-02T00:00:00	2024-11-08T22:00:00	7	Dirección del viento	6.44
151723	7	Sololá	712	San Antonio Palopó	9	San Antonio Palopo	2	Febrero	2023-02-02T00:00:00	2024-11-08T22:00:00	1	Precipitación	0
151724	7	Sololá	712	San Antonio Palopó	9	San Antonio Palopo	2	Febrero	2023-02-02T00:00:00	2024-11-08T22:00:00	8	Radiación solar	0
151725	7	Sololá	712	San Antonio Palopó	9	San Antonio Palopo	2	Febrero	2023-02-02T00:00:00	2024-11-08T23:00:00	2	Temperatura media	17.6
151726	7	Sololá	712	San Antonio Palopó	9	San Antonio Palopo	2	Febrero	2023-02-02T00:00:00	2024-11-08T23:00:00	4	Temperatura máxima	17.6
151727	7	Sololá	712	San Antonio Palopó	9	San Antonio Palopo	2	Febrero	2023-02-02T00:00:00	2024-11-08T23:00:00	3	Temperatura mínima	17.2
151728	7	Sololá	712	San Antonio Palopó	9	San Antonio Palopo	2	Febrero	2023-02-02T00:00:00	2024-11-08T23:00:00	5	Humedad	64
151729	7	Sololá	712	San Antonio Palopó	9	San Antonio Palopo	2	Febrero	2023-02-02T00:00:00	2024-11-08T23:00:00	6	Velocidad del viento	6.4
151730	7	Sololá	712	San Antonio Palopó	9	San Antonio Palopo	2	Febrero	2023-02-02T00:00:00	2024-11-08T23:00:00	7	Dirección del viento	6.44
151731	7	Sololá	712	San Antonio Palopó	9	San Antonio Palopo	2	Febrero	2023-02-02T00:00:00	2024-11-08T23:00:00	1	Precipitación	0
151732	7	Sololá	712	San Antonio Palopó	9	San Antonio Palopo	2	Febrero	2023-02-02T00:00:00	2024-11-08T23:00:00	8	Radiación solar	0
151733	7	Sololá	712	San Antonio Palopó	9	San Antonio Palopo	2	Febrero	2023-03-02T00:00:00	2024-11-08T00:00:00	2	Temperatura media	17.7
151734	7	Sololá	712	San Antonio Palopó	9	San Antonio Palopo	2	Febrero	2023-03-02T00:00:00	2024-11-08T00:00:00	4	Temperatura máxima	17.8
151735	7	Sololá	712	San Antonio Palopó	9	San Antonio Palopo	2	Febrero	2023-03-02T00:00:00	2024-11-08T00:00:00	3	Temperatura mínima	17.2
151736	7	Sololá	712	San Antonio Palopó	9	San Antonio Palopo	2	Febrero	2023-03-02T00:00:00	2024-11-08T00:00:00	5	Humedad	60
151737	7	Sololá	712	San Antonio Palopó	9	San Antonio Palopo	2	Febrero	2023-03-02T00:00:00	2024-11-08T00:00:00	6	Velocidad del viento	4.8
151738	7	Sololá	712	San Antonio Palopó	9	San Antonio Palopo	2	Febrero	2023-03-02T00:00:00	2024-11-08T00:00:00	7	Dirección del viento	4.83
151739	7	Sololá	712	San Antonio Palopó	9	San Antonio Palopo	2	Febrero	2023-03-02T00:00:00	2024-11-08T00:00:00	1	Precipitación	0
151740	7	Sololá	712	San Antonio Palopó	9	San Antonio Palopo	2	Febrero	2023-03-02T00:00:00	2024-11-08T00:00:00	8	Radiación solar	0
151741	7	Sololá	712	San Antonio Palopó	9	San Antonio Palopo	2	Febrero	2023-03-02T00:00:00	2024-11-08T01:00:00	2	Temperatura media	16.2
151742	7	Sololá	712	San Antonio Palopó	9	San Antonio Palopo	2	Febrero	2023-03-02T00:00:00	2024-11-08T01:00:00	4	Temperatura máxima	17.8
151743	7	Sololá	712	San Antonio Palopó	9	San Antonio Palopo	2	Febrero	2023-03-02T00:00:00	2024-11-08T01:00:00	3	Temperatura mínima	16.1
151744	7	Sololá	712	San Antonio Palopó	9	San Antonio Palopo	2	Febrero	2023-03-02T00:00:00	2024-11-08T01:00:00	5	Humedad	65
151745	7	Sololá	712	San Antonio Palopó	9	San Antonio Palopo	2	Febrero	2023-03-02T00:00:00	2024-11-08T01:00:00	6	Velocidad del viento	9.7
151746	7	Sololá	712	San Antonio Palopó	9	San Antonio Palopo	2	Febrero	2023-03-02T00:00:00	2024-11-08T01:00:00	7	Dirección del viento	9.66
151747	7	Sololá	712	San Antonio Palopó	9	San Antonio Palopo	2	Febrero	2023-03-02T00:00:00	2024-11-08T01:00:00	1	Precipitación	0
151748	7	Sololá	712	San Antonio Palopó	9	San Antonio Palopo	2	Febrero	2023-03-02T00:00:00	2024-11-08T01:00:00	8	Radiación solar	0
151749	7	Sololá	712	San Antonio Palopó	9	San Antonio Palopo	2	Febrero	2023-03-02T00:00:00	2024-11-08T02:00:00	2	Temperatura media	15.7
151750	7	Sololá	712	San Antonio Palopó	9	San Antonio Palopo	2	Febrero	2023-03-02T00:00:00	2024-11-08T02:00:00	4	Temperatura máxima	16.3
151751	7	Sololá	712	San Antonio Palopó	9	San Antonio Palopo	2	Febrero	2023-03-02T00:00:00	2024-11-08T02:00:00	3	Temperatura mínima	15.6
151752	7	Sololá	712	San Antonio Palopó	9	San Antonio Palopo	2	Febrero	2023-03-02T00:00:00	2024-11-08T02:00:00	5	Humedad	62
151753	7	Sololá	712	San Antonio Palopó	9	San Antonio Palopo	2	Febrero	2023-03-02T00:00:00	2024-11-08T02:00:00	6	Velocidad del viento	12.9
151754	7	Sololá	712	San Antonio Palopó	9	San Antonio Palopo	2	Febrero	2023-03-02T00:00:00	2024-11-08T02:00:00	7	Dirección del viento	12.87
151755	7	Sololá	712	San Antonio Palopó	9	San Antonio Palopo	2	Febrero	2023-03-02T00:00:00	2024-11-08T02:00:00	1	Precipitación	0
151756	7	Sololá	712	San Antonio Palopó	9	San Antonio Palopo	2	Febrero	2023-03-02T00:00:00	2024-11-08T02:00:00	8	Radiación solar	0
151757	7	Sololá	712	San Antonio Palopó	9	San Antonio Palopo	2	Febrero	2023-03-02T00:00:00	2024-11-08T03:00:00	2	Temperatura media	15.4
151758	7	Sololá	712	San Antonio Palopó	9	San Antonio Palopo	2	Febrero	2023-03-02T00:00:00	2024-11-08T03:00:00	4	Temperatura máxima	15.8
151759	7	Sololá	712	San Antonio Palopó	9	San Antonio Palopo	2	Febrero	2023-03-02T00:00:00	2024-11-08T03:00:00	3	Temperatura mínima	15.3
151760	7	Sololá	712	San Antonio Palopó	9	San Antonio Palopo	2	Febrero	2023-03-02T00:00:00	2024-11-08T03:00:00	5	Humedad	63
151761	7	Sololá	712	San Antonio Palopó	9	San Antonio Palopo	2	Febrero	2023-03-02T00:00:00	2024-11-08T03:00:00	6	Velocidad del viento	8
151762	7	Sololá	712	San Antonio Palopó	9	San Antonio Palopo	2	Febrero	2023-03-02T00:00:00	2024-11-08T03:00:00	7	Dirección del viento	8.05
151763	7	Sololá	712	San Antonio Palopó	9	San Antonio Palopo	2	Febrero	2023-03-02T00:00:00	2024-11-08T03:00:00	1	Precipitación	0
151764	7	Sololá	712	San Antonio Palopó	9	San Antonio Palopo	2	Febrero	2023-03-02T00:00:00	2024-11-08T03:00:00	8	Radiación solar	0
151765	7	Sololá	712	San Antonio Palopó	9	San Antonio Palopo	2	Febrero	2023-03-02T00:00:00	2024-11-08T04:00:00	2	Temperatura media	15.7
151766	7	Sololá	712	San Antonio Palopó	9	San Antonio Palopo	2	Febrero	2023-03-02T00:00:00	2024-11-08T04:00:00	4	Temperatura máxima	15.9
151767	7	Sololá	712	San Antonio Palopó	9	San Antonio Palopo	2	Febrero	2023-03-02T00:00:00	2024-11-08T04:00:00	3	Temperatura mínima	15.2
151768	7	Sololá	712	San Antonio Palopó	9	San Antonio Palopo	2	Febrero	2023-03-02T00:00:00	2024-11-08T04:00:00	5	Humedad	62
151769	7	Sololá	712	San Antonio Palopó	9	San Antonio Palopo	2	Febrero	2023-03-02T00:00:00	2024-11-08T04:00:00	6	Velocidad del viento	8
151770	7	Sololá	712	San Antonio Palopó	9	San Antonio Palopo	2	Febrero	2023-03-02T00:00:00	2024-11-08T04:00:00	7	Dirección del viento	8.05
151771	7	Sololá	712	San Antonio Palopó	9	San Antonio Palopo	2	Febrero	2023-03-02T00:00:00	2024-11-08T04:00:00	1	Precipitación	0
151772	7	Sololá	712	San Antonio Palopó	9	San Antonio Palopo	2	Febrero	2023-03-02T00:00:00	2024-11-08T04:00:00	8	Radiación solar	0
151773	7	Sololá	712	San Antonio Palopó	9	San Antonio Palopo	2	Febrero	2023-03-02T00:00:00	2024-11-08T05:00:00	2	Temperatura media	16.9
151774	7	Sololá	712	San Antonio Palopó	9	San Antonio Palopo	2	Febrero	2023-03-02T00:00:00	2024-11-08T05:00:00	4	Temperatura máxima	16.9
151775	7	Sololá	712	San Antonio Palopó	9	San Antonio Palopo	2	Febrero	2023-03-02T00:00:00	2024-11-08T05:00:00	3	Temperatura mínima	15.7
151776	7	Sololá	712	San Antonio Palopó	9	San Antonio Palopo	2	Febrero	2023-03-02T00:00:00	2024-11-08T05:00:00	5	Humedad	59
151777	7	Sololá	712	San Antonio Palopó	9	San Antonio Palopo	2	Febrero	2023-03-02T00:00:00	2024-11-08T05:00:00	6	Velocidad del viento	6.4
151778	7	Sololá	712	San Antonio Palopó	9	San Antonio Palopo	2	Febrero	2023-03-02T00:00:00	2024-11-08T05:00:00	7	Dirección del viento	6.44
151779	7	Sololá	712	San Antonio Palopó	9	San Antonio Palopo	2	Febrero	2023-03-02T00:00:00	2024-11-08T05:00:00	1	Precipitación	0
151780	7	Sololá	712	San Antonio Palopó	9	San Antonio Palopo	2	Febrero	2023-03-02T00:00:00	2024-11-08T05:00:00	8	Radiación solar	0
151781	7	Sololá	712	San Antonio Palopó	9	San Antonio Palopo	2	Febrero	2023-03-02T00:00:00	2024-11-08T06:00:00	2	Temperatura media	16.8
151782	7	Sololá	712	San Antonio Palopó	9	San Antonio Palopo	2	Febrero	2023-03-02T00:00:00	2024-11-08T06:00:00	4	Temperatura máxima	17.3
151783	7	Sololá	712	San Antonio Palopó	9	San Antonio Palopo	2	Febrero	2023-03-02T00:00:00	2024-11-08T06:00:00	3	Temperatura mínima	16.8
151784	7	Sololá	712	San Antonio Palopó	9	San Antonio Palopo	2	Febrero	2023-03-02T00:00:00	2024-11-08T06:00:00	5	Humedad	61
151785	7	Sololá	712	San Antonio Palopó	9	San Antonio Palopo	2	Febrero	2023-03-02T00:00:00	2024-11-08T06:00:00	6	Velocidad del viento	8
151786	7	Sololá	712	San Antonio Palopó	9	San Antonio Palopo	2	Febrero	2023-03-02T00:00:00	2024-11-08T06:00:00	7	Dirección del viento	8.05
151787	7	Sololá	712	San Antonio Palopó	9	San Antonio Palopo	2	Febrero	2023-03-02T00:00:00	2024-11-08T06:00:00	1	Precipitación	0
151788	7	Sololá	712	San Antonio Palopó	9	San Antonio Palopo	2	Febrero	2023-03-02T00:00:00	2024-11-08T06:00:00	8	Radiación solar	0
151789	7	Sololá	712	San Antonio Palopó	9	San Antonio Palopo	2	Febrero	2023-03-02T00:00:00	2024-11-08T07:00:00	2	Temperatura media	16.9
151790	7	Sololá	712	San Antonio Palopó	9	San Antonio Palopo	2	Febrero	2023-03-02T00:00:00	2024-11-08T07:00:00	4	Temperatura máxima	17
151791	7	Sololá	712	San Antonio Palopó	9	San Antonio Palopo	2	Febrero	2023-03-02T00:00:00	2024-11-08T07:00:00	3	Temperatura mínima	16.3
151792	7	Sololá	712	San Antonio Palopó	9	San Antonio Palopo	2	Febrero	2023-03-02T00:00:00	2024-11-08T07:00:00	5	Humedad	62
151793	7	Sololá	712	San Antonio Palopó	9	San Antonio Palopo	2	Febrero	2023-03-02T00:00:00	2024-11-08T07:00:00	6	Velocidad del viento	9.7
151794	7	Sololá	712	San Antonio Palopó	9	San Antonio Palopo	2	Febrero	2023-03-02T00:00:00	2024-11-08T07:00:00	7	Dirección del viento	9.66
151795	7	Sololá	712	San Antonio Palopó	9	San Antonio Palopo	2	Febrero	2023-03-02T00:00:00	2024-11-08T07:00:00	1	Precipitación	0
151796	7	Sololá	712	San Antonio Palopó	9	San Antonio Palopo	2	Febrero	2023-03-02T00:00:00	2024-11-08T07:00:00	8	Radiación solar	3
151797	7	Sololá	712	San Antonio Palopó	9	San Antonio Palopo	2	Febrero	2023-03-02T00:00:00	2024-11-08T08:00:00	2	Temperatura media	17.8
151798	7	Sololá	712	San Antonio Palopó	9	San Antonio Palopo	2	Febrero	2023-03-02T00:00:00	2024-11-08T08:00:00	4	Temperatura máxima	17.8
151799	7	Sololá	712	San Antonio Palopó	9	San Antonio Palopo	2	Febrero	2023-03-02T00:00:00	2024-11-08T08:00:00	3	Temperatura mínima	16.9
151800	7	Sololá	712	San Antonio Palopó	9	San Antonio Palopo	2	Febrero	2023-03-02T00:00:00	2024-11-08T08:00:00	5	Humedad	59
151801	7	Sololá	712	San Antonio Palopó	9	San Antonio Palopo	2	Febrero	2023-03-02T00:00:00	2024-11-08T08:00:00	6	Velocidad del viento	9.7
151802	7	Sololá	712	San Antonio Palopó	9	San Antonio Palopo	2	Febrero	2023-03-02T00:00:00	2024-11-08T08:00:00	7	Dirección del viento	9.66
151803	7	Sololá	712	San Antonio Palopó	9	San Antonio Palopo	2	Febrero	2023-03-02T00:00:00	2024-11-08T08:00:00	1	Precipitación	0
151804	7	Sololá	712	San Antonio Palopó	9	San Antonio Palopo	2	Febrero	2023-03-02T00:00:00	2024-11-08T08:00:00	8	Radiación solar	16
151805	7	Sololá	712	San Antonio Palopó	9	San Antonio Palopo	2	Febrero	2023-03-02T00:00:00	2024-11-08T09:00:00	2	Temperatura media	19.6
151806	7	Sololá	712	San Antonio Palopó	9	San Antonio Palopo	2	Febrero	2023-03-02T00:00:00	2024-11-08T09:00:00	4	Temperatura máxima	19.6
151807	7	Sololá	712	San Antonio Palopó	9	San Antonio Palopo	2	Febrero	2023-03-02T00:00:00	2024-11-08T09:00:00	3	Temperatura mínima	17.8
151808	7	Sololá	712	San Antonio Palopó	9	San Antonio Palopo	2	Febrero	2023-03-02T00:00:00	2024-11-08T09:00:00	5	Humedad	56
151809	7	Sololá	712	San Antonio Palopó	9	San Antonio Palopo	2	Febrero	2023-03-02T00:00:00	2024-11-08T09:00:00	6	Velocidad del viento	12.9
151810	7	Sololá	712	San Antonio Palopó	9	San Antonio Palopo	2	Febrero	2023-03-02T00:00:00	2024-11-08T09:00:00	7	Dirección del viento	12.87
151811	7	Sololá	712	San Antonio Palopó	9	San Antonio Palopo	2	Febrero	2023-03-02T00:00:00	2024-11-08T09:00:00	1	Precipitación	0
151812	7	Sololá	712	San Antonio Palopó	9	San Antonio Palopo	2	Febrero	2023-03-02T00:00:00	2024-11-08T09:00:00	8	Radiación solar	192
151813	7	Sololá	712	San Antonio Palopó	9	San Antonio Palopo	2	Febrero	2023-03-02T00:00:00	2024-11-08T10:00:00	2	Temperatura media	19.2
151814	7	Sololá	712	San Antonio Palopó	9	San Antonio Palopo	2	Febrero	2023-03-02T00:00:00	2024-11-08T10:00:00	4	Temperatura máxima	19.9
151815	7	Sololá	712	San Antonio Palopó	9	San Antonio Palopo	2	Febrero	2023-03-02T00:00:00	2024-11-08T10:00:00	3	Temperatura mínima	19.2
151816	7	Sololá	712	San Antonio Palopó	9	San Antonio Palopo	2	Febrero	2023-03-02T00:00:00	2024-11-08T10:00:00	5	Humedad	60
151817	7	Sololá	712	San Antonio Palopó	9	San Antonio Palopo	2	Febrero	2023-03-02T00:00:00	2024-11-08T10:00:00	6	Velocidad del viento	19.3
151818	7	Sololá	712	San Antonio Palopó	9	San Antonio Palopo	2	Febrero	2023-03-02T00:00:00	2024-11-08T10:00:00	7	Dirección del viento	19.31
151819	7	Sololá	712	San Antonio Palopó	9	San Antonio Palopo	2	Febrero	2023-03-02T00:00:00	2024-11-08T10:00:00	1	Precipitación	0
151820	7	Sololá	712	San Antonio Palopó	9	San Antonio Palopo	2	Febrero	2023-03-02T00:00:00	2024-11-08T10:00:00	8	Radiación solar	578
151821	7	Sololá	712	San Antonio Palopó	9	San Antonio Palopo	2	Febrero	2023-03-02T00:00:00	2024-11-08T11:00:00	2	Temperatura media	19.5
151822	7	Sololá	712	San Antonio Palopó	9	San Antonio Palopo	2	Febrero	2023-03-02T00:00:00	2024-11-08T11:00:00	4	Temperatura máxima	19.8
151823	7	Sololá	712	San Antonio Palopó	9	San Antonio Palopo	2	Febrero	2023-03-02T00:00:00	2024-11-08T11:00:00	3	Temperatura mínima	19.1
151824	7	Sololá	712	San Antonio Palopó	9	San Antonio Palopo	2	Febrero	2023-03-02T00:00:00	2024-11-08T11:00:00	5	Humedad	61
151825	7	Sololá	712	San Antonio Palopó	9	San Antonio Palopo	2	Febrero	2023-03-02T00:00:00	2024-11-08T11:00:00	6	Velocidad del viento	24.1
151826	7	Sololá	712	San Antonio Palopó	9	San Antonio Palopo	2	Febrero	2023-03-02T00:00:00	2024-11-08T11:00:00	7	Dirección del viento	24.14
151827	7	Sololá	712	San Antonio Palopó	9	San Antonio Palopo	2	Febrero	2023-03-02T00:00:00	2024-11-08T11:00:00	1	Precipitación	0
151828	7	Sololá	712	San Antonio Palopó	9	San Antonio Palopo	2	Febrero	2023-03-02T00:00:00	2024-11-08T11:00:00	8	Radiación solar	747
151829	7	Sololá	712	San Antonio Palopó	9	San Antonio Palopo	2	Febrero	2023-03-02T00:00:00	2024-11-08T12:00:00	2	Temperatura media	20.3
151830	7	Sololá	712	San Antonio Palopó	9	San Antonio Palopo	2	Febrero	2023-03-02T00:00:00	2024-11-08T12:00:00	4	Temperatura máxima	20.4
151831	7	Sololá	712	San Antonio Palopó	9	San Antonio Palopo	2	Febrero	2023-03-02T00:00:00	2024-11-08T12:00:00	3	Temperatura mínima	19.3
151832	7	Sololá	712	San Antonio Palopó	9	San Antonio Palopo	2	Febrero	2023-03-02T00:00:00	2024-11-08T12:00:00	5	Humedad	59
151833	7	Sololá	712	San Antonio Palopó	9	San Antonio Palopo	2	Febrero	2023-03-02T00:00:00	2024-11-08T12:00:00	6	Velocidad del viento	29
151834	7	Sololá	712	San Antonio Palopó	9	San Antonio Palopo	2	Febrero	2023-03-02T00:00:00	2024-11-08T12:00:00	7	Dirección del viento	28.97
151835	7	Sololá	712	San Antonio Palopó	9	San Antonio Palopo	2	Febrero	2023-03-02T00:00:00	2024-11-08T12:00:00	1	Precipitación	0
151836	7	Sololá	712	San Antonio Palopó	9	San Antonio Palopo	2	Febrero	2023-03-02T00:00:00	2024-11-08T12:00:00	8	Radiación solar	742
151837	7	Sololá	712	San Antonio Palopó	9	San Antonio Palopo	2	Febrero	2023-03-02T00:00:00	2024-11-08T13:00:00	2	Temperatura media	20.1
151838	7	Sololá	712	San Antonio Palopó	9	San Antonio Palopo	2	Febrero	2023-03-02T00:00:00	2024-11-08T13:00:00	4	Temperatura máxima	20.3
151839	7	Sololá	712	San Antonio Palopó	9	San Antonio Palopo	2	Febrero	2023-03-02T00:00:00	2024-11-08T13:00:00	3	Temperatura mínima	19.6
151840	7	Sololá	712	San Antonio Palopó	9	San Antonio Palopo	2	Febrero	2023-03-02T00:00:00	2024-11-08T13:00:00	5	Humedad	61
151841	7	Sololá	712	San Antonio Palopó	9	San Antonio Palopo	2	Febrero	2023-03-02T00:00:00	2024-11-08T13:00:00	6	Velocidad del viento	27.4
151842	7	Sololá	712	San Antonio Palopó	9	San Antonio Palopo	2	Febrero	2023-03-02T00:00:00	2024-11-08T13:00:00	7	Dirección del viento	27.36
151843	7	Sololá	712	San Antonio Palopó	9	San Antonio Palopo	2	Febrero	2023-03-02T00:00:00	2024-11-08T13:00:00	1	Precipitación	0
151844	7	Sololá	712	San Antonio Palopó	9	San Antonio Palopo	2	Febrero	2023-03-02T00:00:00	2024-11-08T13:00:00	8	Radiación solar	893
151845	7	Sololá	712	San Antonio Palopó	9	San Antonio Palopo	2	Febrero	2023-03-02T00:00:00	2024-11-08T14:00:00	2	Temperatura media	19.2
151846	7	Sololá	712	San Antonio Palopó	9	San Antonio Palopo	2	Febrero	2023-03-02T00:00:00	2024-11-08T14:00:00	4	Temperatura máxima	20.6
151847	7	Sololá	712	San Antonio Palopó	9	San Antonio Palopo	2	Febrero	2023-03-02T00:00:00	2024-11-08T14:00:00	3	Temperatura mínima	19.1
151848	7	Sololá	712	San Antonio Palopó	9	San Antonio Palopo	2	Febrero	2023-03-02T00:00:00	2024-11-08T14:00:00	5	Humedad	61
151849	7	Sololá	712	San Antonio Palopó	9	San Antonio Palopo	2	Febrero	2023-03-02T00:00:00	2024-11-08T14:00:00	6	Velocidad del viento	14.5
151850	7	Sololá	712	San Antonio Palopó	9	San Antonio Palopo	2	Febrero	2023-03-02T00:00:00	2024-11-08T14:00:00	7	Dirección del viento	14.48
151851	7	Sololá	712	San Antonio Palopó	9	San Antonio Palopo	2	Febrero	2023-03-02T00:00:00	2024-11-08T14:00:00	1	Precipitación	0
151852	7	Sololá	712	San Antonio Palopó	9	San Antonio Palopo	2	Febrero	2023-03-02T00:00:00	2024-11-08T14:00:00	8	Radiación solar	690
151853	7	Sololá	712	San Antonio Palopó	9	San Antonio Palopo	2	Febrero	2023-03-02T00:00:00	2024-11-08T15:00:00	2	Temperatura media	18.7
151854	7	Sololá	712	San Antonio Palopó	9	San Antonio Palopo	2	Febrero	2023-03-02T00:00:00	2024-11-08T15:00:00	4	Temperatura máxima	19.4
151855	7	Sololá	712	San Antonio Palopó	9	San Antonio Palopo	2	Febrero	2023-03-02T00:00:00	2024-11-08T15:00:00	3	Temperatura mínima	18.3
151856	7	Sololá	712	San Antonio Palopó	9	San Antonio Palopo	2	Febrero	2023-03-02T00:00:00	2024-11-08T15:00:00	5	Humedad	62
151857	7	Sololá	712	San Antonio Palopó	9	San Antonio Palopo	2	Febrero	2023-03-02T00:00:00	2024-11-08T15:00:00	6	Velocidad del viento	12.9
151858	7	Sololá	712	San Antonio Palopó	9	San Antonio Palopo	2	Febrero	2023-03-02T00:00:00	2024-11-08T15:00:00	7	Dirección del viento	12.87
151859	7	Sololá	712	San Antonio Palopó	9	San Antonio Palopo	2	Febrero	2023-03-02T00:00:00	2024-11-08T15:00:00	1	Precipitación	0
151860	7	Sololá	712	San Antonio Palopó	9	San Antonio Palopo	2	Febrero	2023-03-02T00:00:00	2024-11-08T15:00:00	8	Radiación solar	304
151861	7	Sololá	712	San Antonio Palopó	9	San Antonio Palopo	2	Febrero	2023-03-02T00:00:00	2024-11-08T16:00:00	2	Temperatura media	18.5
151862	7	Sololá	712	San Antonio Palopó	9	San Antonio Palopo	2	Febrero	2023-03-02T00:00:00	2024-11-08T16:00:00	4	Temperatura máxima	19.4
151863	7	Sololá	712	San Antonio Palopó	9	San Antonio Palopo	2	Febrero	2023-03-02T00:00:00	2024-11-08T16:00:00	3	Temperatura mínima	18.4
151864	7	Sololá	712	San Antonio Palopó	9	San Antonio Palopo	2	Febrero	2023-03-02T00:00:00	2024-11-08T16:00:00	5	Humedad	62
151865	7	Sololá	712	San Antonio Palopó	9	San Antonio Palopo	2	Febrero	2023-03-02T00:00:00	2024-11-08T16:00:00	6	Velocidad del viento	12.9
151866	7	Sololá	712	San Antonio Palopó	9	San Antonio Palopo	2	Febrero	2023-03-02T00:00:00	2024-11-08T16:00:00	7	Dirección del viento	12.87
151867	7	Sololá	712	San Antonio Palopó	9	San Antonio Palopo	2	Febrero	2023-03-02T00:00:00	2024-11-08T16:00:00	1	Precipitación	0
151868	7	Sololá	712	San Antonio Palopó	9	San Antonio Palopo	2	Febrero	2023-03-02T00:00:00	2024-11-08T16:00:00	8	Radiación solar	339
151869	7	Sololá	712	San Antonio Palopó	9	San Antonio Palopo	2	Febrero	2023-03-02T00:00:00	2024-11-08T17:00:00	2	Temperatura media	18.6
151870	7	Sololá	712	San Antonio Palopó	9	San Antonio Palopo	2	Febrero	2023-03-02T00:00:00	2024-11-08T17:00:00	4	Temperatura máxima	18.8
151871	7	Sololá	712	San Antonio Palopó	9	San Antonio Palopo	2	Febrero	2023-03-02T00:00:00	2024-11-08T17:00:00	3	Temperatura mínima	18.4
151872	7	Sololá	712	San Antonio Palopó	9	San Antonio Palopo	2	Febrero	2023-03-02T00:00:00	2024-11-08T17:00:00	5	Humedad	59
151873	7	Sololá	712	San Antonio Palopó	9	San Antonio Palopo	2	Febrero	2023-03-02T00:00:00	2024-11-08T17:00:00	6	Velocidad del viento	12.9
151874	7	Sololá	712	San Antonio Palopó	9	San Antonio Palopo	2	Febrero	2023-03-02T00:00:00	2024-11-08T17:00:00	7	Dirección del viento	12.87
151875	7	Sololá	712	San Antonio Palopó	9	San Antonio Palopo	2	Febrero	2023-03-02T00:00:00	2024-11-08T17:00:00	1	Precipitación	0
151876	7	Sololá	712	San Antonio Palopó	9	San Antonio Palopo	2	Febrero	2023-03-02T00:00:00	2024-11-08T17:00:00	8	Radiación solar	90
151877	7	Sololá	712	San Antonio Palopó	9	San Antonio Palopo	2	Febrero	2023-03-02T00:00:00	2024-11-08T18:00:00	2	Temperatura media	17.7
151878	7	Sololá	712	San Antonio Palopó	9	San Antonio Palopo	2	Febrero	2023-03-02T00:00:00	2024-11-08T18:00:00	4	Temperatura máxima	18.6
151879	7	Sololá	712	San Antonio Palopó	9	San Antonio Palopo	2	Febrero	2023-03-02T00:00:00	2024-11-08T18:00:00	3	Temperatura mínima	17.7
151880	7	Sololá	712	San Antonio Palopó	9	San Antonio Palopo	2	Febrero	2023-03-02T00:00:00	2024-11-08T18:00:00	5	Humedad	63
151881	7	Sololá	712	San Antonio Palopó	9	San Antonio Palopo	2	Febrero	2023-03-02T00:00:00	2024-11-08T18:00:00	6	Velocidad del viento	16.1
151882	7	Sololá	712	San Antonio Palopó	9	San Antonio Palopo	2	Febrero	2023-03-02T00:00:00	2024-11-08T18:00:00	7	Dirección del viento	16.09
151883	7	Sololá	712	San Antonio Palopó	9	San Antonio Palopo	2	Febrero	2023-03-02T00:00:00	2024-11-08T18:00:00	1	Precipitación	0
151884	7	Sololá	712	San Antonio Palopó	9	San Antonio Palopo	2	Febrero	2023-03-02T00:00:00	2024-11-08T18:00:00	8	Radiación solar	23
151885	7	Sololá	712	San Antonio Palopó	9	San Antonio Palopo	2	Febrero	2023-03-02T00:00:00	2024-11-08T19:00:00	2	Temperatura media	17.9
151886	7	Sololá	712	San Antonio Palopó	9	San Antonio Palopo	2	Febrero	2023-03-02T00:00:00	2024-11-08T19:00:00	4	Temperatura máxima	18
151887	7	Sololá	712	San Antonio Palopó	9	San Antonio Palopo	2	Febrero	2023-03-02T00:00:00	2024-11-08T19:00:00	3	Temperatura mínima	17.4
151888	7	Sololá	712	San Antonio Palopó	9	San Antonio Palopo	2	Febrero	2023-03-02T00:00:00	2024-11-08T19:00:00	5	Humedad	61
151889	7	Sololá	712	San Antonio Palopó	9	San Antonio Palopo	2	Febrero	2023-03-02T00:00:00	2024-11-08T19:00:00	6	Velocidad del viento	17.7
151890	7	Sololá	712	San Antonio Palopó	9	San Antonio Palopo	2	Febrero	2023-03-02T00:00:00	2024-11-08T19:00:00	7	Dirección del viento	17.7
151891	7	Sololá	712	San Antonio Palopó	9	San Antonio Palopo	2	Febrero	2023-03-02T00:00:00	2024-11-08T19:00:00	1	Precipitación	0
151892	7	Sololá	712	San Antonio Palopó	9	San Antonio Palopo	2	Febrero	2023-03-02T00:00:00	2024-11-08T19:00:00	8	Radiación solar	0
151893	7	Sololá	712	San Antonio Palopó	9	San Antonio Palopo	2	Febrero	2023-03-02T00:00:00	2024-11-08T20:00:00	2	Temperatura media	17.4
151894	7	Sololá	712	San Antonio Palopó	9	San Antonio Palopo	2	Febrero	2023-03-02T00:00:00	2024-11-08T20:00:00	4	Temperatura máxima	18
151895	7	Sololá	712	San Antonio Palopó	9	San Antonio Palopo	2	Febrero	2023-03-02T00:00:00	2024-11-08T20:00:00	3	Temperatura mínima	17.4
151896	7	Sololá	712	San Antonio Palopó	9	San Antonio Palopo	2	Febrero	2023-03-02T00:00:00	2024-11-08T20:00:00	5	Humedad	63
151897	7	Sololá	712	San Antonio Palopó	9	San Antonio Palopo	2	Febrero	2023-03-02T00:00:00	2024-11-08T20:00:00	6	Velocidad del viento	22.5
151898	7	Sololá	712	San Antonio Palopó	9	San Antonio Palopo	2	Febrero	2023-03-02T00:00:00	2024-11-08T20:00:00	7	Dirección del viento	22.53
151899	7	Sololá	712	San Antonio Palopó	9	San Antonio Palopo	2	Febrero	2023-03-02T00:00:00	2024-11-08T20:00:00	1	Precipitación	0
151900	7	Sololá	712	San Antonio Palopó	9	San Antonio Palopo	2	Febrero	2023-03-02T00:00:00	2024-11-08T20:00:00	8	Radiación solar	0
151901	7	Sololá	712	San Antonio Palopó	9	San Antonio Palopo	2	Febrero	2023-03-02T00:00:00	2024-11-08T21:00:00	2	Temperatura media	17.6
151902	7	Sololá	712	San Antonio Palopó	9	San Antonio Palopo	2	Febrero	2023-03-02T00:00:00	2024-11-08T21:00:00	4	Temperatura máxima	17.7
151903	7	Sololá	712	San Antonio Palopó	9	San Antonio Palopo	2	Febrero	2023-03-02T00:00:00	2024-11-08T21:00:00	3	Temperatura mínima	17.4
151904	7	Sololá	712	San Antonio Palopó	9	San Antonio Palopo	2	Febrero	2023-03-02T00:00:00	2024-11-08T21:00:00	5	Humedad	64
151905	7	Sololá	712	San Antonio Palopó	9	San Antonio Palopo	2	Febrero	2023-03-02T00:00:00	2024-11-08T21:00:00	6	Velocidad del viento	24.1
151906	7	Sololá	712	San Antonio Palopó	9	San Antonio Palopo	2	Febrero	2023-03-02T00:00:00	2024-11-08T21:00:00	7	Dirección del viento	24.14
151907	7	Sololá	712	San Antonio Palopó	9	San Antonio Palopo	2	Febrero	2023-03-02T00:00:00	2024-11-08T21:00:00	1	Precipitación	0
151908	7	Sololá	712	San Antonio Palopó	9	San Antonio Palopo	2	Febrero	2023-03-02T00:00:00	2024-11-08T21:00:00	8	Radiación solar	0
151909	7	Sololá	712	San Antonio Palopó	9	San Antonio Palopo	2	Febrero	2023-03-02T00:00:00	2024-11-08T22:00:00	2	Temperatura media	17.4
151910	7	Sololá	712	San Antonio Palopó	9	San Antonio Palopo	2	Febrero	2023-03-02T00:00:00	2024-11-08T22:00:00	4	Temperatura máxima	17.7
151911	7	Sololá	712	San Antonio Palopó	9	San Antonio Palopo	2	Febrero	2023-03-02T00:00:00	2024-11-08T22:00:00	3	Temperatura mínima	17.4
151912	7	Sololá	712	San Antonio Palopó	9	San Antonio Palopo	2	Febrero	2023-03-02T00:00:00	2024-11-08T22:00:00	5	Humedad	66
151913	7	Sololá	712	San Antonio Palopó	9	San Antonio Palopo	2	Febrero	2023-03-02T00:00:00	2024-11-08T22:00:00	6	Velocidad del viento	14.5
151914	7	Sololá	712	San Antonio Palopó	9	San Antonio Palopo	2	Febrero	2023-03-02T00:00:00	2024-11-08T22:00:00	7	Dirección del viento	14.48
151915	7	Sololá	712	San Antonio Palopó	9	San Antonio Palopo	2	Febrero	2023-03-02T00:00:00	2024-11-08T22:00:00	1	Precipitación	0
151916	7	Sololá	712	San Antonio Palopó	9	San Antonio Palopo	2	Febrero	2023-03-02T00:00:00	2024-11-08T22:00:00	8	Radiación solar	0
151917	7	Sololá	712	San Antonio Palopó	9	San Antonio Palopo	2	Febrero	2023-03-02T00:00:00	2024-11-08T23:00:00	2	Temperatura media	17.3
151918	7	Sololá	712	San Antonio Palopó	9	San Antonio Palopo	2	Febrero	2023-03-02T00:00:00	2024-11-08T23:00:00	4	Temperatura máxima	17.4
151919	7	Sololá	712	San Antonio Palopó	9	San Antonio Palopo	2	Febrero	2023-03-02T00:00:00	2024-11-08T23:00:00	3	Temperatura mínima	17.1
151920	7	Sololá	712	San Antonio Palopó	9	San Antonio Palopo	2	Febrero	2023-03-02T00:00:00	2024-11-08T23:00:00	5	Humedad	67
151921	7	Sololá	712	San Antonio Palopó	9	San Antonio Palopo	2	Febrero	2023-03-02T00:00:00	2024-11-08T23:00:00	6	Velocidad del viento	4.8
151922	7	Sololá	712	San Antonio Palopó	9	San Antonio Palopo	2	Febrero	2023-03-02T00:00:00	2024-11-08T23:00:00	7	Dirección del viento	4.83
151923	7	Sololá	712	San Antonio Palopó	9	San Antonio Palopo	2	Febrero	2023-03-02T00:00:00	2024-11-08T23:00:00	1	Precipitación	0
151924	7	Sololá	712	San Antonio Palopó	9	San Antonio Palopo	2	Febrero	2023-03-02T00:00:00	2024-11-08T23:00:00	8	Radiación solar	0
151925	7	Sololá	712	San Antonio Palopó	9	San Antonio Palopo	2	Febrero	2023-04-02T00:00:00	2024-11-08T00:00:00	2	Temperatura media	17.5
151926	7	Sololá	712	San Antonio Palopó	9	San Antonio Palopo	2	Febrero	2023-04-02T00:00:00	2024-11-08T00:00:00	4	Temperatura máxima	17.6
151927	7	Sololá	712	San Antonio Palopó	9	San Antonio Palopo	2	Febrero	2023-04-02T00:00:00	2024-11-08T00:00:00	3	Temperatura mínima	17.2
151928	7	Sololá	712	San Antonio Palopó	9	San Antonio Palopo	2	Febrero	2023-04-02T00:00:00	2024-11-08T00:00:00	5	Humedad	68
151929	7	Sololá	712	San Antonio Palopó	9	San Antonio Palopo	2	Febrero	2023-04-02T00:00:00	2024-11-08T00:00:00	6	Velocidad del viento	8
151930	7	Sololá	712	San Antonio Palopó	9	San Antonio Palopo	2	Febrero	2023-04-02T00:00:00	2024-11-08T00:00:00	7	Dirección del viento	8.05
151931	7	Sololá	712	San Antonio Palopó	9	San Antonio Palopo	2	Febrero	2023-04-02T00:00:00	2024-11-08T00:00:00	1	Precipitación	0
151932	7	Sololá	712	San Antonio Palopó	9	San Antonio Palopo	2	Febrero	2023-04-02T00:00:00	2024-11-08T00:00:00	8	Radiación solar	0
151933	7	Sololá	712	San Antonio Palopó	9	San Antonio Palopo	2	Febrero	2023-04-02T00:00:00	2024-11-08T01:00:00	2	Temperatura media	17.7
151934	7	Sololá	712	San Antonio Palopó	9	San Antonio Palopo	2	Febrero	2023-04-02T00:00:00	2024-11-08T01:00:00	4	Temperatura máxima	17.9
151935	7	Sololá	712	San Antonio Palopó	9	San Antonio Palopo	2	Febrero	2023-04-02T00:00:00	2024-11-08T01:00:00	3	Temperatura mínima	17.4
151936	7	Sololá	712	San Antonio Palopó	9	San Antonio Palopo	2	Febrero	2023-04-02T00:00:00	2024-11-08T01:00:00	5	Humedad	68
151937	7	Sololá	712	San Antonio Palopó	9	San Antonio Palopo	2	Febrero	2023-04-02T00:00:00	2024-11-08T01:00:00	6	Velocidad del viento	14.5
151938	7	Sololá	712	San Antonio Palopó	9	San Antonio Palopo	2	Febrero	2023-04-02T00:00:00	2024-11-08T01:00:00	7	Dirección del viento	14.48
151939	7	Sololá	712	San Antonio Palopó	9	San Antonio Palopo	2	Febrero	2023-04-02T00:00:00	2024-11-08T01:00:00	1	Precipitación	0
151940	7	Sololá	712	San Antonio Palopó	9	San Antonio Palopo	2	Febrero	2023-04-02T00:00:00	2024-11-08T01:00:00	8	Radiación solar	0
151941	7	Sololá	712	San Antonio Palopó	9	San Antonio Palopo	2	Febrero	2023-04-02T00:00:00	2024-11-08T02:00:00	2	Temperatura media	17.6
151942	7	Sololá	712	San Antonio Palopó	9	San Antonio Palopo	2	Febrero	2023-04-02T00:00:00	2024-11-08T02:00:00	4	Temperatura máxima	17.8
151943	7	Sololá	712	San Antonio Palopó	9	San Antonio Palopo	2	Febrero	2023-04-02T00:00:00	2024-11-08T02:00:00	3	Temperatura mínima	17.4
151944	7	Sololá	712	San Antonio Palopó	9	San Antonio Palopo	2	Febrero	2023-04-02T00:00:00	2024-11-08T02:00:00	5	Humedad	69
151945	7	Sololá	712	San Antonio Palopó	9	San Antonio Palopo	2	Febrero	2023-04-02T00:00:00	2024-11-08T02:00:00	6	Velocidad del viento	17.7
151946	7	Sololá	712	San Antonio Palopó	9	San Antonio Palopo	2	Febrero	2023-04-02T00:00:00	2024-11-08T02:00:00	7	Dirección del viento	17.7
151947	7	Sololá	712	San Antonio Palopó	9	San Antonio Palopo	2	Febrero	2023-04-02T00:00:00	2024-11-08T02:00:00	1	Precipitación	0
151948	7	Sololá	712	San Antonio Palopó	9	San Antonio Palopo	2	Febrero	2023-04-02T00:00:00	2024-11-08T02:00:00	8	Radiación solar	0
151949	7	Sololá	712	San Antonio Palopó	9	San Antonio Palopo	2	Febrero	2023-04-02T00:00:00	2024-11-08T03:00:00	2	Temperatura media	17.4
151950	7	Sololá	712	San Antonio Palopó	9	San Antonio Palopo	2	Febrero	2023-04-02T00:00:00	2024-11-08T03:00:00	4	Temperatura máxima	17.8
151951	7	Sololá	712	San Antonio Palopó	9	San Antonio Palopo	2	Febrero	2023-04-02T00:00:00	2024-11-08T03:00:00	3	Temperatura mínima	17.1
151952	7	Sololá	712	San Antonio Palopó	9	San Antonio Palopo	2	Febrero	2023-04-02T00:00:00	2024-11-08T03:00:00	5	Humedad	68
151953	7	Sololá	712	San Antonio Palopó	9	San Antonio Palopo	2	Febrero	2023-04-02T00:00:00	2024-11-08T03:00:00	6	Velocidad del viento	8
151954	7	Sololá	712	San Antonio Palopó	9	San Antonio Palopo	2	Febrero	2023-04-02T00:00:00	2024-11-08T03:00:00	7	Dirección del viento	8.05
151955	7	Sololá	712	San Antonio Palopó	9	San Antonio Palopo	2	Febrero	2023-04-02T00:00:00	2024-11-08T03:00:00	1	Precipitación	0
151956	7	Sololá	712	San Antonio Palopó	9	San Antonio Palopo	2	Febrero	2023-04-02T00:00:00	2024-11-08T03:00:00	8	Radiación solar	0
151957	7	Sololá	712	San Antonio Palopó	9	San Antonio Palopo	2	Febrero	2023-04-02T00:00:00	2024-11-08T04:00:00	2	Temperatura media	17.6
151958	7	Sololá	712	San Antonio Palopó	9	San Antonio Palopo	2	Febrero	2023-04-02T00:00:00	2024-11-08T04:00:00	4	Temperatura máxima	17.8
151959	7	Sololá	712	San Antonio Palopó	9	San Antonio Palopo	2	Febrero	2023-04-02T00:00:00	2024-11-08T04:00:00	3	Temperatura mínima	17.3
151960	7	Sololá	712	San Antonio Palopó	9	San Antonio Palopo	2	Febrero	2023-04-02T00:00:00	2024-11-08T04:00:00	5	Humedad	67
151961	7	Sololá	712	San Antonio Palopó	9	San Antonio Palopo	2	Febrero	2023-04-02T00:00:00	2024-11-08T04:00:00	6	Velocidad del viento	6.4
151962	7	Sololá	712	San Antonio Palopó	9	San Antonio Palopo	2	Febrero	2023-04-02T00:00:00	2024-11-08T04:00:00	7	Dirección del viento	6.44
151963	7	Sololá	712	San Antonio Palopó	9	San Antonio Palopo	2	Febrero	2023-04-02T00:00:00	2024-11-08T04:00:00	1	Precipitación	0
151964	7	Sololá	712	San Antonio Palopó	9	San Antonio Palopo	2	Febrero	2023-04-02T00:00:00	2024-11-08T04:00:00	8	Radiación solar	0
151965	7	Sololá	712	San Antonio Palopó	9	San Antonio Palopo	2	Febrero	2023-04-02T00:00:00	2024-11-08T05:00:00	2	Temperatura media	17.5
151966	7	Sololá	712	San Antonio Palopó	9	San Antonio Palopo	2	Febrero	2023-04-02T00:00:00	2024-11-08T05:00:00	4	Temperatura máxima	18
151967	7	Sololá	712	San Antonio Palopó	9	San Antonio Palopo	2	Febrero	2023-04-02T00:00:00	2024-11-08T05:00:00	3	Temperatura mínima	17.4
151968	7	Sololá	712	San Antonio Palopó	9	San Antonio Palopo	2	Febrero	2023-04-02T00:00:00	2024-11-08T05:00:00	5	Humedad	67
151969	7	Sololá	712	San Antonio Palopó	9	San Antonio Palopo	2	Febrero	2023-04-02T00:00:00	2024-11-08T05:00:00	6	Velocidad del viento	6.4
151970	7	Sololá	712	San Antonio Palopó	9	San Antonio Palopo	2	Febrero	2023-04-02T00:00:00	2024-11-08T05:00:00	7	Dirección del viento	6.44
151971	7	Sololá	712	San Antonio Palopó	9	San Antonio Palopo	2	Febrero	2023-04-02T00:00:00	2024-11-08T05:00:00	1	Precipitación	0
151972	7	Sololá	712	San Antonio Palopó	9	San Antonio Palopo	2	Febrero	2023-04-02T00:00:00	2024-11-08T05:00:00	8	Radiación solar	0
151973	7	Sololá	712	San Antonio Palopó	9	San Antonio Palopo	2	Febrero	2023-04-02T00:00:00	2024-11-08T06:00:00	2	Temperatura media	17.2
151974	7	Sololá	712	San Antonio Palopó	9	San Antonio Palopo	2	Febrero	2023-04-02T00:00:00	2024-11-08T06:00:00	4	Temperatura máxima	17.6
151975	7	Sololá	712	San Antonio Palopó	9	San Antonio Palopo	2	Febrero	2023-04-02T00:00:00	2024-11-08T06:00:00	3	Temperatura mínima	17.1
151976	7	Sololá	712	San Antonio Palopó	9	San Antonio Palopo	2	Febrero	2023-04-02T00:00:00	2024-11-08T06:00:00	5	Humedad	67
151977	7	Sololá	712	San Antonio Palopó	9	San Antonio Palopo	2	Febrero	2023-04-02T00:00:00	2024-11-08T06:00:00	6	Velocidad del viento	6.4
151978	7	Sololá	712	San Antonio Palopó	9	San Antonio Palopo	2	Febrero	2023-04-02T00:00:00	2024-11-08T06:00:00	7	Dirección del viento	6.44
151979	7	Sololá	712	San Antonio Palopó	9	San Antonio Palopo	2	Febrero	2023-04-02T00:00:00	2024-11-08T06:00:00	1	Precipitación	0
151980	7	Sololá	712	San Antonio Palopó	9	San Antonio Palopo	2	Febrero	2023-04-02T00:00:00	2024-11-08T06:00:00	8	Radiación solar	0
151981	7	Sololá	712	San Antonio Palopó	9	San Antonio Palopo	2	Febrero	2023-04-02T00:00:00	2024-11-08T07:00:00	2	Temperatura media	16.6
151982	7	Sololá	712	San Antonio Palopó	9	San Antonio Palopo	2	Febrero	2023-04-02T00:00:00	2024-11-08T07:00:00	4	Temperatura máxima	17.2
151983	7	Sololá	712	San Antonio Palopó	9	San Antonio Palopo	2	Febrero	2023-04-02T00:00:00	2024-11-08T07:00:00	3	Temperatura mínima	16.6
151984	7	Sololá	712	San Antonio Palopó	9	San Antonio Palopo	2	Febrero	2023-04-02T00:00:00	2024-11-08T07:00:00	5	Humedad	72
151985	7	Sololá	712	San Antonio Palopó	9	San Antonio Palopo	2	Febrero	2023-04-02T00:00:00	2024-11-08T07:00:00	6	Velocidad del viento	9.7
151986	7	Sololá	712	San Antonio Palopó	9	San Antonio Palopo	2	Febrero	2023-04-02T00:00:00	2024-11-08T07:00:00	7	Dirección del viento	9.66
151987	7	Sololá	712	San Antonio Palopó	9	San Antonio Palopo	2	Febrero	2023-04-02T00:00:00	2024-11-08T07:00:00	1	Precipitación	0
151988	7	Sololá	712	San Antonio Palopó	9	San Antonio Palopo	2	Febrero	2023-04-02T00:00:00	2024-11-08T07:00:00	8	Radiación solar	3
151989	7	Sololá	712	San Antonio Palopó	9	San Antonio Palopo	2	Febrero	2023-04-02T00:00:00	2024-11-08T08:00:00	2	Temperatura media	16.9
151990	7	Sololá	712	San Antonio Palopó	9	San Antonio Palopo	2	Febrero	2023-04-02T00:00:00	2024-11-08T08:00:00	4	Temperatura máxima	17
151991	7	Sololá	712	San Antonio Palopó	9	San Antonio Palopo	2	Febrero	2023-04-02T00:00:00	2024-11-08T08:00:00	3	Temperatura mínima	16.4
151992	7	Sololá	712	San Antonio Palopó	9	San Antonio Palopo	2	Febrero	2023-04-02T00:00:00	2024-11-08T08:00:00	5	Humedad	70
151993	7	Sololá	712	San Antonio Palopó	9	San Antonio Palopo	2	Febrero	2023-04-02T00:00:00	2024-11-08T08:00:00	6	Velocidad del viento	6.4
151994	7	Sololá	712	San Antonio Palopó	9	San Antonio Palopo	2	Febrero	2023-04-02T00:00:00	2024-11-08T08:00:00	7	Dirección del viento	6.44
151995	7	Sololá	712	San Antonio Palopó	9	San Antonio Palopo	2	Febrero	2023-04-02T00:00:00	2024-11-08T08:00:00	1	Precipitación	0
151996	7	Sololá	712	San Antonio Palopó	9	San Antonio Palopo	2	Febrero	2023-04-02T00:00:00	2024-11-08T08:00:00	8	Radiación solar	22
151997	7	Sololá	712	San Antonio Palopó	9	San Antonio Palopo	2	Febrero	2023-04-02T00:00:00	2024-11-08T09:00:00	2	Temperatura media	18.2
151998	7	Sololá	712	San Antonio Palopó	9	San Antonio Palopo	2	Febrero	2023-04-02T00:00:00	2024-11-08T09:00:00	4	Temperatura máxima	18.2
151999	7	Sololá	712	San Antonio Palopó	9	San Antonio Palopo	2	Febrero	2023-04-02T00:00:00	2024-11-08T09:00:00	3	Temperatura mínima	17
152000	7	Sololá	712	San Antonio Palopó	9	San Antonio Palopo	2	Febrero	2023-04-02T00:00:00	2024-11-08T09:00:00	5	Humedad	58
152001	7	Sololá	712	San Antonio Palopó	9	San Antonio Palopo	2	Febrero	2023-04-02T00:00:00	2024-11-08T09:00:00	6	Velocidad del viento	14.5
152002	7	Sololá	712	San Antonio Palopó	9	San Antonio Palopo	2	Febrero	2023-04-02T00:00:00	2024-11-08T09:00:00	7	Dirección del viento	14.48
152003	7	Sololá	712	San Antonio Palopó	9	San Antonio Palopo	2	Febrero	2023-04-02T00:00:00	2024-11-08T09:00:00	1	Precipitación	0
152004	7	Sololá	712	San Antonio Palopó	9	San Antonio Palopo	2	Febrero	2023-04-02T00:00:00	2024-11-08T09:00:00	8	Radiación solar	154
152005	7	Sololá	712	San Antonio Palopó	9	San Antonio Palopo	2	Febrero	2023-04-02T00:00:00	2024-11-08T10:00:00	2	Temperatura media	19.9
152006	7	Sololá	712	San Antonio Palopó	9	San Antonio Palopo	2	Febrero	2023-04-02T00:00:00	2024-11-08T10:00:00	4	Temperatura máxima	19.9
152007	7	Sololá	712	San Antonio Palopó	9	San Antonio Palopo	2	Febrero	2023-04-02T00:00:00	2024-11-08T10:00:00	3	Temperatura mínima	18.2
152008	7	Sololá	712	San Antonio Palopó	9	San Antonio Palopo	2	Febrero	2023-04-02T00:00:00	2024-11-08T10:00:00	5	Humedad	52
152009	7	Sololá	712	San Antonio Palopó	9	San Antonio Palopo	2	Febrero	2023-04-02T00:00:00	2024-11-08T10:00:00	6	Velocidad del viento	22.5
152010	7	Sololá	712	San Antonio Palopó	9	San Antonio Palopo	2	Febrero	2023-04-02T00:00:00	2024-11-08T10:00:00	7	Dirección del viento	22.53
152011	7	Sololá	712	San Antonio Palopó	9	San Antonio Palopo	2	Febrero	2023-04-02T00:00:00	2024-11-08T10:00:00	1	Precipitación	0
152012	7	Sololá	712	San Antonio Palopó	9	San Antonio Palopo	2	Febrero	2023-04-02T00:00:00	2024-11-08T10:00:00	8	Radiación solar	566
152013	7	Sololá	712	San Antonio Palopó	9	San Antonio Palopo	2	Febrero	2023-04-02T00:00:00	2024-11-08T11:00:00	2	Temperatura media	21.3
152014	7	Sololá	712	San Antonio Palopó	9	San Antonio Palopo	2	Febrero	2023-04-02T00:00:00	2024-11-08T11:00:00	4	Temperatura máxima	21.3
152015	7	Sololá	712	San Antonio Palopó	9	San Antonio Palopo	2	Febrero	2023-04-02T00:00:00	2024-11-08T11:00:00	3	Temperatura mínima	19.8
152016	7	Sololá	712	San Antonio Palopó	9	San Antonio Palopo	2	Febrero	2023-04-02T00:00:00	2024-11-08T11:00:00	5	Humedad	53
152017	7	Sololá	712	San Antonio Palopó	9	San Antonio Palopo	2	Febrero	2023-04-02T00:00:00	2024-11-08T11:00:00	6	Velocidad del viento	22.5
152018	7	Sololá	712	San Antonio Palopó	9	San Antonio Palopo	2	Febrero	2023-04-02T00:00:00	2024-11-08T11:00:00	7	Dirección del viento	22.53
152019	7	Sololá	712	San Antonio Palopó	9	San Antonio Palopo	2	Febrero	2023-04-02T00:00:00	2024-11-08T11:00:00	1	Precipitación	0
152020	7	Sololá	712	San Antonio Palopó	9	San Antonio Palopo	2	Febrero	2023-04-02T00:00:00	2024-11-08T11:00:00	8	Radiación solar	723
152021	7	Sololá	712	San Antonio Palopó	9	San Antonio Palopo	2	Febrero	2023-04-02T00:00:00	2024-11-08T12:00:00	2	Temperatura media	21.9
152022	7	Sololá	712	San Antonio Palopó	9	San Antonio Palopo	2	Febrero	2023-04-02T00:00:00	2024-11-08T12:00:00	4	Temperatura máxima	22.1
152023	7	Sololá	712	San Antonio Palopó	9	San Antonio Palopo	2	Febrero	2023-04-02T00:00:00	2024-11-08T12:00:00	3	Temperatura mínima	21.2
152024	7	Sololá	712	San Antonio Palopó	9	San Antonio Palopo	2	Febrero	2023-04-02T00:00:00	2024-11-08T12:00:00	5	Humedad	52
152025	7	Sololá	712	San Antonio Palopó	9	San Antonio Palopo	2	Febrero	2023-04-02T00:00:00	2024-11-08T12:00:00	6	Velocidad del viento	12.9
152026	7	Sololá	712	San Antonio Palopó	9	San Antonio Palopo	2	Febrero	2023-04-02T00:00:00	2024-11-08T12:00:00	7	Dirección del viento	12.87
152027	7	Sololá	712	San Antonio Palopó	9	San Antonio Palopo	2	Febrero	2023-04-02T00:00:00	2024-11-08T12:00:00	1	Precipitación	0
152028	7	Sololá	712	San Antonio Palopó	9	San Antonio Palopo	2	Febrero	2023-04-02T00:00:00	2024-11-08T12:00:00	8	Radiación solar	704
152029	7	Sololá	712	San Antonio Palopó	9	San Antonio Palopo	2	Febrero	2023-04-02T00:00:00	2024-11-08T13:00:00	2	Temperatura media	22.7
152030	7	Sololá	712	San Antonio Palopó	9	San Antonio Palopo	2	Febrero	2023-04-02T00:00:00	2024-11-08T13:00:00	4	Temperatura máxima	23
152031	7	Sololá	712	San Antonio Palopó	9	San Antonio Palopo	2	Febrero	2023-04-02T00:00:00	2024-11-08T13:00:00	3	Temperatura mínima	21.6
152032	7	Sololá	712	San Antonio Palopó	9	San Antonio Palopo	2	Febrero	2023-04-02T00:00:00	2024-11-08T13:00:00	5	Humedad	50
152033	7	Sololá	712	San Antonio Palopó	9	San Antonio Palopo	2	Febrero	2023-04-02T00:00:00	2024-11-08T13:00:00	6	Velocidad del viento	14.5
152034	7	Sololá	712	San Antonio Palopó	9	San Antonio Palopo	2	Febrero	2023-04-02T00:00:00	2024-11-08T13:00:00	7	Dirección del viento	14.48
152035	7	Sololá	712	San Antonio Palopó	9	San Antonio Palopo	2	Febrero	2023-04-02T00:00:00	2024-11-08T13:00:00	1	Precipitación	0
152036	7	Sololá	712	San Antonio Palopó	9	San Antonio Palopo	2	Febrero	2023-04-02T00:00:00	2024-11-08T13:00:00	8	Radiación solar	803
152037	7	Sololá	712	San Antonio Palopó	9	San Antonio Palopo	2	Febrero	2023-04-02T00:00:00	2024-11-08T14:00:00	2	Temperatura media	22.4
152038	7	Sololá	712	San Antonio Palopó	9	San Antonio Palopo	2	Febrero	2023-04-02T00:00:00	2024-11-08T14:00:00	4	Temperatura máxima	23.3
152039	7	Sololá	712	San Antonio Palopó	9	San Antonio Palopo	2	Febrero	2023-04-02T00:00:00	2024-11-08T14:00:00	3	Temperatura mínima	22.1
152040	7	Sololá	712	San Antonio Palopó	9	San Antonio Palopo	2	Febrero	2023-04-02T00:00:00	2024-11-08T14:00:00	5	Humedad	51
152041	7	Sololá	712	San Antonio Palopó	9	San Antonio Palopo	2	Febrero	2023-04-02T00:00:00	2024-11-08T14:00:00	6	Velocidad del viento	11.3
152042	7	Sololá	712	San Antonio Palopó	9	San Antonio Palopo	2	Febrero	2023-04-02T00:00:00	2024-11-08T14:00:00	7	Dirección del viento	11.27
152043	7	Sololá	712	San Antonio Palopó	9	San Antonio Palopo	2	Febrero	2023-04-02T00:00:00	2024-11-08T14:00:00	1	Precipitación	0
152044	7	Sololá	712	San Antonio Palopó	9	San Antonio Palopo	2	Febrero	2023-04-02T00:00:00	2024-11-08T14:00:00	8	Radiación solar	417
152045	7	Sololá	712	San Antonio Palopó	9	San Antonio Palopo	2	Febrero	2023-04-02T00:00:00	2024-11-08T15:00:00	2	Temperatura media	22.6
152046	7	Sololá	712	San Antonio Palopó	9	San Antonio Palopo	2	Febrero	2023-04-02T00:00:00	2024-11-08T15:00:00	4	Temperatura máxima	23.6
152047	7	Sololá	712	San Antonio Palopó	9	San Antonio Palopo	2	Febrero	2023-04-02T00:00:00	2024-11-08T15:00:00	3	Temperatura mínima	22.2
152048	7	Sololá	712	San Antonio Palopó	9	San Antonio Palopo	2	Febrero	2023-04-02T00:00:00	2024-11-08T15:00:00	5	Humedad	51
152049	7	Sololá	712	San Antonio Palopó	9	San Antonio Palopo	2	Febrero	2023-04-02T00:00:00	2024-11-08T15:00:00	6	Velocidad del viento	12.9
152050	7	Sololá	712	San Antonio Palopó	9	San Antonio Palopo	2	Febrero	2023-04-02T00:00:00	2024-11-08T15:00:00	7	Dirección del viento	12.87
152051	7	Sololá	712	San Antonio Palopó	9	San Antonio Palopo	2	Febrero	2023-04-02T00:00:00	2024-11-08T15:00:00	1	Precipitación	0
152052	7	Sololá	712	San Antonio Palopó	9	San Antonio Palopo	2	Febrero	2023-04-02T00:00:00	2024-11-08T15:00:00	8	Radiación solar	394
152053	7	Sololá	712	San Antonio Palopó	9	San Antonio Palopo	2	Febrero	2023-04-02T00:00:00	2024-11-08T16:00:00	2	Temperatura media	22.8
152054	7	Sololá	712	San Antonio Palopó	9	San Antonio Palopo	2	Febrero	2023-04-02T00:00:00	2024-11-08T16:00:00	4	Temperatura máxima	23.5
152055	7	Sololá	712	San Antonio Palopó	9	San Antonio Palopo	2	Febrero	2023-04-02T00:00:00	2024-11-08T16:00:00	3	Temperatura mínima	22.3
152056	7	Sololá	712	San Antonio Palopó	9	San Antonio Palopo	2	Febrero	2023-04-02T00:00:00	2024-11-08T16:00:00	5	Humedad	52
152057	7	Sololá	712	San Antonio Palopó	9	San Antonio Palopo	2	Febrero	2023-04-02T00:00:00	2024-11-08T16:00:00	6	Velocidad del viento	9.7
152058	7	Sololá	712	San Antonio Palopó	9	San Antonio Palopo	2	Febrero	2023-04-02T00:00:00	2024-11-08T16:00:00	7	Dirección del viento	9.66
152059	7	Sololá	712	San Antonio Palopó	9	San Antonio Palopo	2	Febrero	2023-04-02T00:00:00	2024-11-08T16:00:00	1	Precipitación	0
152060	7	Sololá	712	San Antonio Palopó	9	San Antonio Palopo	2	Febrero	2023-04-02T00:00:00	2024-11-08T16:00:00	8	Radiación solar	223
152061	7	Sololá	712	San Antonio Palopó	9	San Antonio Palopo	2	Febrero	2023-04-02T00:00:00	2024-11-08T17:00:00	2	Temperatura media	22.2
152062	7	Sololá	712	San Antonio Palopó	9	San Antonio Palopo	2	Febrero	2023-04-02T00:00:00	2024-11-08T17:00:00	4	Temperatura máxima	23.4
152063	7	Sololá	712	San Antonio Palopó	9	San Antonio Palopo	2	Febrero	2023-04-02T00:00:00	2024-11-08T17:00:00	3	Temperatura mínima	22.2
152064	7	Sololá	712	San Antonio Palopó	9	San Antonio Palopo	2	Febrero	2023-04-02T00:00:00	2024-11-08T17:00:00	5	Humedad	50
152065	7	Sololá	712	San Antonio Palopó	9	San Antonio Palopo	2	Febrero	2023-04-02T00:00:00	2024-11-08T17:00:00	6	Velocidad del viento	12.9
152066	7	Sololá	712	San Antonio Palopó	9	San Antonio Palopo	2	Febrero	2023-04-02T00:00:00	2024-11-08T17:00:00	7	Dirección del viento	12.87
152067	7	Sololá	712	San Antonio Palopó	9	San Antonio Palopo	2	Febrero	2023-04-02T00:00:00	2024-11-08T17:00:00	1	Precipitación	0
152068	7	Sololá	712	San Antonio Palopó	9	San Antonio Palopo	2	Febrero	2023-04-02T00:00:00	2024-11-08T17:00:00	8	Radiación solar	262
152069	7	Sololá	712	San Antonio Palopó	9	San Antonio Palopo	2	Febrero	2023-04-02T00:00:00	2024-11-08T18:00:00	2	Temperatura media	20.8
152070	7	Sololá	712	San Antonio Palopó	9	San Antonio Palopo	2	Febrero	2023-04-02T00:00:00	2024-11-08T18:00:00	4	Temperatura máxima	22.2
152071	7	Sololá	712	San Antonio Palopó	9	San Antonio Palopo	2	Febrero	2023-04-02T00:00:00	2024-11-08T18:00:00	3	Temperatura mínima	20.8
152072	7	Sololá	712	San Antonio Palopó	9	San Antonio Palopo	2	Febrero	2023-04-02T00:00:00	2024-11-08T18:00:00	5	Humedad	56
152073	7	Sololá	712	San Antonio Palopó	9	San Antonio Palopo	2	Febrero	2023-04-02T00:00:00	2024-11-08T18:00:00	6	Velocidad del viento	11.3
152074	7	Sololá	712	San Antonio Palopó	9	San Antonio Palopo	2	Febrero	2023-04-02T00:00:00	2024-11-08T18:00:00	7	Dirección del viento	11.27
152075	7	Sololá	712	San Antonio Palopó	9	San Antonio Palopo	2	Febrero	2023-04-02T00:00:00	2024-11-08T18:00:00	1	Precipitación	0
152076	7	Sololá	712	San Antonio Palopó	9	San Antonio Palopo	2	Febrero	2023-04-02T00:00:00	2024-11-08T18:00:00	8	Radiación solar	31
152077	7	Sololá	712	San Antonio Palopó	9	San Antonio Palopo	2	Febrero	2023-04-02T00:00:00	2024-11-08T19:00:00	2	Temperatura media	18.6
152078	7	Sololá	712	San Antonio Palopó	9	San Antonio Palopo	2	Febrero	2023-04-02T00:00:00	2024-11-08T19:00:00	4	Temperatura máxima	20.8
152079	7	Sololá	712	San Antonio Palopó	9	San Antonio Palopo	2	Febrero	2023-04-02T00:00:00	2024-11-08T19:00:00	3	Temperatura mínima	18.6
152080	7	Sololá	712	San Antonio Palopó	9	San Antonio Palopo	2	Febrero	2023-04-02T00:00:00	2024-11-08T19:00:00	5	Humedad	66
152081	7	Sololá	712	San Antonio Palopó	9	San Antonio Palopo	2	Febrero	2023-04-02T00:00:00	2024-11-08T19:00:00	6	Velocidad del viento	11.3
152082	7	Sololá	712	San Antonio Palopó	9	San Antonio Palopo	2	Febrero	2023-04-02T00:00:00	2024-11-08T19:00:00	7	Dirección del viento	11.27
152083	7	Sololá	712	San Antonio Palopó	9	San Antonio Palopo	2	Febrero	2023-04-02T00:00:00	2024-11-08T19:00:00	1	Precipitación	0
152084	7	Sololá	712	San Antonio Palopó	9	San Antonio Palopo	2	Febrero	2023-04-02T00:00:00	2024-11-08T19:00:00	8	Radiación solar	0
152085	7	Sololá	712	San Antonio Palopó	9	San Antonio Palopo	2	Febrero	2023-04-02T00:00:00	2024-11-08T20:00:00	2	Temperatura media	18.2
152086	7	Sololá	712	San Antonio Palopó	9	San Antonio Palopo	2	Febrero	2023-04-02T00:00:00	2024-11-08T20:00:00	4	Temperatura máxima	19.4
152087	7	Sololá	712	San Antonio Palopó	9	San Antonio Palopo	2	Febrero	2023-04-02T00:00:00	2024-11-08T20:00:00	3	Temperatura mínima	18.2
152088	7	Sololá	712	San Antonio Palopó	9	San Antonio Palopo	2	Febrero	2023-04-02T00:00:00	2024-11-08T20:00:00	5	Humedad	67
152089	7	Sololá	712	San Antonio Palopó	9	San Antonio Palopo	2	Febrero	2023-04-02T00:00:00	2024-11-08T20:00:00	6	Velocidad del viento	14.5
152090	7	Sololá	712	San Antonio Palopó	9	San Antonio Palopo	2	Febrero	2023-04-02T00:00:00	2024-11-08T20:00:00	7	Dirección del viento	14.48
152091	7	Sololá	712	San Antonio Palopó	9	San Antonio Palopo	2	Febrero	2023-04-02T00:00:00	2024-11-08T20:00:00	1	Precipitación	0
152092	7	Sololá	712	San Antonio Palopó	9	San Antonio Palopo	2	Febrero	2023-04-02T00:00:00	2024-11-08T20:00:00	8	Radiación solar	0
152093	7	Sololá	712	San Antonio Palopó	9	San Antonio Palopo	2	Febrero	2023-04-02T00:00:00	2024-11-08T21:00:00	2	Temperatura media	18.2
152094	7	Sololá	712	San Antonio Palopó	9	San Antonio Palopo	2	Febrero	2023-04-02T00:00:00	2024-11-08T21:00:00	4	Temperatura máxima	18.3
152095	7	Sololá	712	San Antonio Palopó	9	San Antonio Palopo	2	Febrero	2023-04-02T00:00:00	2024-11-08T21:00:00	3	Temperatura mínima	18.2
152096	7	Sololá	712	San Antonio Palopó	9	San Antonio Palopo	2	Febrero	2023-04-02T00:00:00	2024-11-08T21:00:00	5	Humedad	65
152097	7	Sololá	712	San Antonio Palopó	9	San Antonio Palopo	2	Febrero	2023-04-02T00:00:00	2024-11-08T21:00:00	6	Velocidad del viento	9.7
152098	7	Sololá	712	San Antonio Palopó	9	San Antonio Palopo	2	Febrero	2023-04-02T00:00:00	2024-11-08T21:00:00	7	Dirección del viento	9.66
152099	7	Sololá	712	San Antonio Palopó	9	San Antonio Palopo	2	Febrero	2023-04-02T00:00:00	2024-11-08T21:00:00	1	Precipitación	0
152100	7	Sololá	712	San Antonio Palopó	9	San Antonio Palopo	2	Febrero	2023-04-02T00:00:00	2024-11-08T21:00:00	8	Radiación solar	0
152101	7	Sololá	712	San Antonio Palopó	9	San Antonio Palopo	2	Febrero	2023-04-02T00:00:00	2024-11-08T22:00:00	2	Temperatura media	17.9
152102	7	Sololá	712	San Antonio Palopó	9	San Antonio Palopo	2	Febrero	2023-04-02T00:00:00	2024-11-08T22:00:00	4	Temperatura máxima	18.3
152103	7	Sololá	712	San Antonio Palopó	9	San Antonio Palopo	2	Febrero	2023-04-02T00:00:00	2024-11-08T22:00:00	3	Temperatura mínima	17.8
152104	7	Sololá	712	San Antonio Palopó	9	San Antonio Palopo	2	Febrero	2023-04-02T00:00:00	2024-11-08T22:00:00	5	Humedad	65
152105	7	Sololá	712	San Antonio Palopó	9	San Antonio Palopo	2	Febrero	2023-04-02T00:00:00	2024-11-08T22:00:00	6	Velocidad del viento	6.4
152106	7	Sololá	712	San Antonio Palopó	9	San Antonio Palopo	2	Febrero	2023-04-02T00:00:00	2024-11-08T22:00:00	7	Dirección del viento	6.44
152107	7	Sololá	712	San Antonio Palopó	9	San Antonio Palopo	2	Febrero	2023-04-02T00:00:00	2024-11-08T22:00:00	1	Precipitación	0
152108	7	Sololá	712	San Antonio Palopó	9	San Antonio Palopo	2	Febrero	2023-04-02T00:00:00	2024-11-08T22:00:00	8	Radiación solar	0
152109	7	Sololá	712	San Antonio Palopó	9	San Antonio Palopo	2	Febrero	2023-04-02T00:00:00	2024-11-08T23:00:00	2	Temperatura media	17.3
152110	7	Sololá	712	San Antonio Palopó	9	San Antonio Palopo	2	Febrero	2023-04-02T00:00:00	2024-11-08T23:00:00	4	Temperatura máxima	18
152111	7	Sololá	712	San Antonio Palopó	9	San Antonio Palopo	2	Febrero	2023-04-02T00:00:00	2024-11-08T23:00:00	3	Temperatura mínima	17.3
152112	7	Sololá	712	San Antonio Palopó	9	San Antonio Palopo	2	Febrero	2023-04-02T00:00:00	2024-11-08T23:00:00	5	Humedad	65
152113	7	Sololá	712	San Antonio Palopó	9	San Antonio Palopo	2	Febrero	2023-04-02T00:00:00	2024-11-08T23:00:00	6	Velocidad del viento	4.8
152114	7	Sololá	712	San Antonio Palopó	9	San Antonio Palopo	2	Febrero	2023-04-02T00:00:00	2024-11-08T23:00:00	7	Dirección del viento	4.83
152115	7	Sololá	712	San Antonio Palopó	9	San Antonio Palopo	2	Febrero	2023-04-02T00:00:00	2024-11-08T23:00:00	1	Precipitación	0
152116	7	Sololá	712	San Antonio Palopó	9	San Antonio Palopo	2	Febrero	2023-04-02T00:00:00	2024-11-08T23:00:00	8	Radiación solar	0
152117	7	Sololá	712	San Antonio Palopó	9	San Antonio Palopo	2	Febrero	2023-05-02T00:00:00	2024-11-08T00:00:00	2	Temperatura media	17.4
152118	7	Sololá	712	San Antonio Palopó	9	San Antonio Palopo	2	Febrero	2023-05-02T00:00:00	2024-11-08T00:00:00	4	Temperatura máxima	17.9
152119	7	Sololá	712	San Antonio Palopó	9	San Antonio Palopo	2	Febrero	2023-05-02T00:00:00	2024-11-08T00:00:00	3	Temperatura mínima	17.4
152120	7	Sololá	712	San Antonio Palopó	9	San Antonio Palopo	2	Febrero	2023-05-02T00:00:00	2024-11-08T00:00:00	5	Humedad	69
152121	7	Sololá	712	San Antonio Palopó	9	San Antonio Palopo	2	Febrero	2023-05-02T00:00:00	2024-11-08T00:00:00	6	Velocidad del viento	4.8
152122	7	Sololá	712	San Antonio Palopó	9	San Antonio Palopo	2	Febrero	2023-05-02T00:00:00	2024-11-08T00:00:00	7	Dirección del viento	4.83
152123	7	Sololá	712	San Antonio Palopó	9	San Antonio Palopo	2	Febrero	2023-05-02T00:00:00	2024-11-08T00:00:00	1	Precipitación	0
152124	7	Sololá	712	San Antonio Palopó	9	San Antonio Palopo	2	Febrero	2023-05-02T00:00:00	2024-11-08T00:00:00	8	Radiación solar	0
152125	7	Sololá	712	San Antonio Palopó	9	San Antonio Palopo	2	Febrero	2023-05-02T00:00:00	2024-11-08T01:00:00	2	Temperatura media	17.2
152126	7	Sololá	712	San Antonio Palopó	9	San Antonio Palopo	2	Febrero	2023-05-02T00:00:00	2024-11-08T01:00:00	4	Temperatura máxima	17.5
152127	7	Sololá	712	San Antonio Palopó	9	San Antonio Palopo	2	Febrero	2023-05-02T00:00:00	2024-11-08T01:00:00	3	Temperatura mínima	16.5
152128	7	Sololá	712	San Antonio Palopó	9	San Antonio Palopo	2	Febrero	2023-05-02T00:00:00	2024-11-08T01:00:00	5	Humedad	69
152129	7	Sololá	712	San Antonio Palopó	9	San Antonio Palopo	2	Febrero	2023-05-02T00:00:00	2024-11-08T01:00:00	6	Velocidad del viento	3.2
152130	7	Sololá	712	San Antonio Palopó	9	San Antonio Palopo	2	Febrero	2023-05-02T00:00:00	2024-11-08T01:00:00	7	Dirección del viento	3.22
152131	7	Sololá	712	San Antonio Palopó	9	San Antonio Palopo	2	Febrero	2023-05-02T00:00:00	2024-11-08T01:00:00	1	Precipitación	0
152132	7	Sololá	712	San Antonio Palopó	9	San Antonio Palopo	2	Febrero	2023-05-02T00:00:00	2024-11-08T01:00:00	8	Radiación solar	0
152133	7	Sololá	712	San Antonio Palopó	9	San Antonio Palopo	2	Febrero	2023-05-02T00:00:00	2024-11-08T02:00:00	2	Temperatura media	17.4
152134	7	Sololá	712	San Antonio Palopó	9	San Antonio Palopo	2	Febrero	2023-05-02T00:00:00	2024-11-08T02:00:00	4	Temperatura máxima	17.9
152135	7	Sololá	712	San Antonio Palopó	9	San Antonio Palopo	2	Febrero	2023-05-02T00:00:00	2024-11-08T02:00:00	3	Temperatura mínima	16.7
152136	7	Sololá	712	San Antonio Palopó	9	San Antonio Palopo	2	Febrero	2023-05-02T00:00:00	2024-11-08T02:00:00	5	Humedad	68
152137	7	Sololá	712	San Antonio Palopó	9	San Antonio Palopo	2	Febrero	2023-05-02T00:00:00	2024-11-08T02:00:00	6	Velocidad del viento	8
152138	7	Sololá	712	San Antonio Palopó	9	San Antonio Palopo	2	Febrero	2023-05-02T00:00:00	2024-11-08T02:00:00	7	Dirección del viento	8.05
152139	7	Sololá	712	San Antonio Palopó	9	San Antonio Palopo	2	Febrero	2023-05-02T00:00:00	2024-11-08T02:00:00	1	Precipitación	0
152140	7	Sololá	712	San Antonio Palopó	9	San Antonio Palopo	2	Febrero	2023-05-02T00:00:00	2024-11-08T02:00:00	8	Radiación solar	0
152141	7	Sololá	712	San Antonio Palopó	9	San Antonio Palopo	2	Febrero	2023-05-02T00:00:00	2024-11-08T03:00:00	2	Temperatura media	18.1
152142	7	Sololá	712	San Antonio Palopó	9	San Antonio Palopo	2	Febrero	2023-05-02T00:00:00	2024-11-08T03:00:00	4	Temperatura máxima	18.2
152143	7	Sololá	712	San Antonio Palopó	9	San Antonio Palopo	2	Febrero	2023-05-02T00:00:00	2024-11-08T03:00:00	3	Temperatura mínima	16.9
152144	7	Sololá	712	San Antonio Palopó	9	San Antonio Palopo	2	Febrero	2023-05-02T00:00:00	2024-11-08T03:00:00	5	Humedad	66
152145	7	Sololá	712	San Antonio Palopó	9	San Antonio Palopo	2	Febrero	2023-05-02T00:00:00	2024-11-08T03:00:00	6	Velocidad del viento	8
152146	7	Sololá	712	San Antonio Palopó	9	San Antonio Palopo	2	Febrero	2023-05-02T00:00:00	2024-11-08T03:00:00	7	Dirección del viento	8.05
152147	7	Sololá	712	San Antonio Palopó	9	San Antonio Palopo	2	Febrero	2023-05-02T00:00:00	2024-11-08T03:00:00	1	Precipitación	0
152148	7	Sololá	712	San Antonio Palopó	9	San Antonio Palopo	2	Febrero	2023-05-02T00:00:00	2024-11-08T03:00:00	8	Radiación solar	0
152149	7	Sololá	712	San Antonio Palopó	9	San Antonio Palopo	2	Febrero	2023-05-02T00:00:00	2024-11-08T04:00:00	2	Temperatura media	17.9
152150	7	Sololá	712	San Antonio Palopó	9	San Antonio Palopo	2	Febrero	2023-05-02T00:00:00	2024-11-08T04:00:00	4	Temperatura máxima	18.1
152151	7	Sololá	712	San Antonio Palopó	9	San Antonio Palopo	2	Febrero	2023-05-02T00:00:00	2024-11-08T04:00:00	3	Temperatura mínima	17.5
152152	7	Sololá	712	San Antonio Palopó	9	San Antonio Palopo	2	Febrero	2023-05-02T00:00:00	2024-11-08T04:00:00	5	Humedad	66
152153	7	Sololá	712	San Antonio Palopó	9	San Antonio Palopo	2	Febrero	2023-05-02T00:00:00	2024-11-08T04:00:00	6	Velocidad del viento	6.4
152154	7	Sololá	712	San Antonio Palopó	9	San Antonio Palopo	2	Febrero	2023-05-02T00:00:00	2024-11-08T04:00:00	7	Dirección del viento	6.44
152155	7	Sololá	712	San Antonio Palopó	9	San Antonio Palopo	2	Febrero	2023-05-02T00:00:00	2024-11-08T04:00:00	1	Precipitación	0
152156	7	Sololá	712	San Antonio Palopó	9	San Antonio Palopo	2	Febrero	2023-05-02T00:00:00	2024-11-08T04:00:00	8	Radiación solar	0
152157	7	Sololá	712	San Antonio Palopó	9	San Antonio Palopo	2	Febrero	2023-05-02T00:00:00	2024-11-08T05:00:00	2	Temperatura media	17.8
152158	7	Sololá	712	San Antonio Palopó	9	San Antonio Palopo	2	Febrero	2023-05-02T00:00:00	2024-11-08T05:00:00	4	Temperatura máxima	18.3
152159	7	Sololá	712	San Antonio Palopó	9	San Antonio Palopo	2	Febrero	2023-05-02T00:00:00	2024-11-08T05:00:00	3	Temperatura mínima	17.7
152160	7	Sololá	712	San Antonio Palopó	9	San Antonio Palopo	2	Febrero	2023-05-02T00:00:00	2024-11-08T05:00:00	5	Humedad	66
152161	7	Sololá	712	San Antonio Palopó	9	San Antonio Palopo	2	Febrero	2023-05-02T00:00:00	2024-11-08T05:00:00	6	Velocidad del viento	11.3
152162	7	Sololá	712	San Antonio Palopó	9	San Antonio Palopo	2	Febrero	2023-05-02T00:00:00	2024-11-08T05:00:00	7	Dirección del viento	11.27
152163	7	Sololá	712	San Antonio Palopó	9	San Antonio Palopo	2	Febrero	2023-05-02T00:00:00	2024-11-08T05:00:00	1	Precipitación	0
152164	7	Sololá	712	San Antonio Palopó	9	San Antonio Palopo	2	Febrero	2023-05-02T00:00:00	2024-11-08T05:00:00	8	Radiación solar	0
152165	7	Sololá	712	San Antonio Palopó	9	San Antonio Palopo	2	Febrero	2023-05-02T00:00:00	2024-11-08T06:00:00	2	Temperatura media	16.6
152166	7	Sololá	712	San Antonio Palopó	9	San Antonio Palopo	2	Febrero	2023-05-02T00:00:00	2024-11-08T06:00:00	4	Temperatura máxima	17.8
152167	7	Sololá	712	San Antonio Palopó	9	San Antonio Palopo	2	Febrero	2023-05-02T00:00:00	2024-11-08T06:00:00	3	Temperatura mínima	16.6
152168	7	Sololá	712	San Antonio Palopó	9	San Antonio Palopo	2	Febrero	2023-05-02T00:00:00	2024-11-08T06:00:00	5	Humedad	69
152169	7	Sololá	712	San Antonio Palopó	9	San Antonio Palopo	2	Febrero	2023-05-02T00:00:00	2024-11-08T06:00:00	6	Velocidad del viento	9.7
152170	7	Sololá	712	San Antonio Palopó	9	San Antonio Palopo	2	Febrero	2023-05-02T00:00:00	2024-11-08T06:00:00	7	Dirección del viento	9.66
152171	7	Sololá	712	San Antonio Palopó	9	San Antonio Palopo	2	Febrero	2023-05-02T00:00:00	2024-11-08T06:00:00	1	Precipitación	0
152172	7	Sololá	712	San Antonio Palopó	9	San Antonio Palopo	2	Febrero	2023-05-02T00:00:00	2024-11-08T06:00:00	8	Radiación solar	0
152173	7	Sololá	712	San Antonio Palopó	9	San Antonio Palopo	2	Febrero	2023-05-02T00:00:00	2024-11-08T07:00:00	2	Temperatura media	16.4
152174	7	Sololá	712	San Antonio Palopó	9	San Antonio Palopo	2	Febrero	2023-05-02T00:00:00	2024-11-08T07:00:00	4	Temperatura máxima	16.7
152175	7	Sololá	712	San Antonio Palopó	9	San Antonio Palopo	2	Febrero	2023-05-02T00:00:00	2024-11-08T07:00:00	3	Temperatura mínima	16.2
152176	7	Sololá	712	San Antonio Palopó	9	San Antonio Palopo	2	Febrero	2023-05-02T00:00:00	2024-11-08T07:00:00	5	Humedad	71
152177	7	Sololá	712	San Antonio Palopó	9	San Antonio Palopo	2	Febrero	2023-05-02T00:00:00	2024-11-08T07:00:00	6	Velocidad del viento	4.8
152178	7	Sololá	712	San Antonio Palopó	9	San Antonio Palopo	2	Febrero	2023-05-02T00:00:00	2024-11-08T07:00:00	7	Dirección del viento	4.83
152179	7	Sololá	712	San Antonio Palopó	9	San Antonio Palopo	2	Febrero	2023-05-02T00:00:00	2024-11-08T07:00:00	1	Precipitación	0
152180	7	Sololá	712	San Antonio Palopó	9	San Antonio Palopo	2	Febrero	2023-05-02T00:00:00	2024-11-08T07:00:00	8	Radiación solar	3
152181	7	Sololá	712	San Antonio Palopó	9	San Antonio Palopo	2	Febrero	2023-05-02T00:00:00	2024-11-08T08:00:00	2	Temperatura media	16.7
152182	7	Sololá	712	San Antonio Palopó	9	San Antonio Palopo	2	Febrero	2023-05-02T00:00:00	2024-11-08T08:00:00	4	Temperatura máxima	16.7
152183	7	Sololá	712	San Antonio Palopó	9	San Antonio Palopo	2	Febrero	2023-05-02T00:00:00	2024-11-08T08:00:00	3	Temperatura mínima	16.2
152184	7	Sololá	712	San Antonio Palopó	9	San Antonio Palopo	2	Febrero	2023-05-02T00:00:00	2024-11-08T08:00:00	5	Humedad	69
152185	7	Sololá	712	San Antonio Palopó	9	San Antonio Palopo	2	Febrero	2023-05-02T00:00:00	2024-11-08T08:00:00	6	Velocidad del viento	6.4
152186	7	Sololá	712	San Antonio Palopó	9	San Antonio Palopo	2	Febrero	2023-05-02T00:00:00	2024-11-08T08:00:00	7	Dirección del viento	6.44
152187	7	Sololá	712	San Antonio Palopó	9	San Antonio Palopo	2	Febrero	2023-05-02T00:00:00	2024-11-08T08:00:00	1	Precipitación	0
152188	7	Sololá	712	San Antonio Palopó	9	San Antonio Palopo	2	Febrero	2023-05-02T00:00:00	2024-11-08T08:00:00	8	Radiación solar	17
152189	7	Sololá	712	San Antonio Palopó	9	San Antonio Palopo	2	Febrero	2023-05-02T00:00:00	2024-11-08T09:00:00	2	Temperatura media	19.3
152190	7	Sololá	712	San Antonio Palopó	9	San Antonio Palopo	2	Febrero	2023-05-02T00:00:00	2024-11-08T09:00:00	4	Temperatura máxima	19.3
152191	7	Sololá	712	San Antonio Palopó	9	San Antonio Palopo	2	Febrero	2023-05-02T00:00:00	2024-11-08T09:00:00	3	Temperatura mínima	16.7
152192	7	Sololá	712	San Antonio Palopó	9	San Antonio Palopo	2	Febrero	2023-05-02T00:00:00	2024-11-08T09:00:00	5	Humedad	60
152193	7	Sololá	712	San Antonio Palopó	9	San Antonio Palopo	2	Febrero	2023-05-02T00:00:00	2024-11-08T09:00:00	6	Velocidad del viento	6.4
152194	7	Sololá	712	San Antonio Palopó	9	San Antonio Palopo	2	Febrero	2023-05-02T00:00:00	2024-11-08T09:00:00	7	Dirección del viento	6.44
152195	7	Sololá	712	San Antonio Palopó	9	San Antonio Palopo	2	Febrero	2023-05-02T00:00:00	2024-11-08T09:00:00	1	Precipitación	0
152196	7	Sololá	712	San Antonio Palopó	9	San Antonio Palopo	2	Febrero	2023-05-02T00:00:00	2024-11-08T09:00:00	8	Radiación solar	205
152197	7	Sololá	712	San Antonio Palopó	9	San Antonio Palopo	2	Febrero	2023-05-02T00:00:00	2024-11-08T10:00:00	2	Temperatura media	19.2
152198	7	Sololá	712	San Antonio Palopó	9	San Antonio Palopo	2	Febrero	2023-05-02T00:00:00	2024-11-08T10:00:00	4	Temperatura máxima	19.3
152199	7	Sololá	712	San Antonio Palopó	9	San Antonio Palopo	2	Febrero	2023-05-02T00:00:00	2024-11-08T10:00:00	3	Temperatura mínima	19.1
152200	7	Sololá	712	San Antonio Palopó	9	San Antonio Palopo	2	Febrero	2023-05-02T00:00:00	2024-11-08T10:00:00	5	Humedad	60
152201	7	Sololá	712	San Antonio Palopó	9	San Antonio Palopo	2	Febrero	2023-05-02T00:00:00	2024-11-08T10:00:00	6	Velocidad del viento	4.8
152202	7	Sololá	712	San Antonio Palopó	9	San Antonio Palopo	2	Febrero	2023-05-02T00:00:00	2024-11-08T10:00:00	7	Dirección del viento	4.83
152203	7	Sololá	712	San Antonio Palopó	9	San Antonio Palopo	2	Febrero	2023-05-02T00:00:00	2024-11-08T10:00:00	1	Precipitación	0
152204	7	Sololá	712	San Antonio Palopó	9	San Antonio Palopo	2	Febrero	2023-05-02T00:00:00	2024-11-08T10:00:00	8	Radiación solar	482
152205	7	Sololá	712	San Antonio Palopó	9	San Antonio Palopo	2	Febrero	2023-05-02T00:00:00	2024-11-08T11:00:00	2	Temperatura media	22.3
152206	7	Sololá	712	San Antonio Palopó	9	San Antonio Palopo	2	Febrero	2023-05-02T00:00:00	2024-11-08T11:00:00	4	Temperatura máxima	22.3
152207	7	Sololá	712	San Antonio Palopó	9	San Antonio Palopo	2	Febrero	2023-05-02T00:00:00	2024-11-08T11:00:00	3	Temperatura mínima	21.5
152208	7	Sololá	712	San Antonio Palopó	9	San Antonio Palopo	2	Febrero	2023-05-02T00:00:00	2024-11-08T11:00:00	5	Humedad	50
152209	7	Sololá	712	San Antonio Palopó	9	San Antonio Palopo	2	Febrero	2023-05-02T00:00:00	2024-11-08T11:00:00	6	Velocidad del viento	6.4
152210	7	Sololá	712	San Antonio Palopó	9	San Antonio Palopo	2	Febrero	2023-05-02T00:00:00	2024-11-08T11:00:00	7	Dirección del viento	6.44
152211	7	Sololá	712	San Antonio Palopó	9	San Antonio Palopo	2	Febrero	2023-05-02T00:00:00	2024-11-08T11:00:00	1	Precipitación	0
152212	7	Sololá	712	San Antonio Palopó	9	San Antonio Palopo	2	Febrero	2023-05-02T00:00:00	2024-11-08T11:00:00	8	Radiación solar	755
152213	7	Sololá	712	San Antonio Palopó	9	San Antonio Palopo	2	Febrero	2023-05-02T00:00:00	2024-11-08T12:00:00	2	Temperatura media	23.4
152214	7	Sololá	712	San Antonio Palopó	9	San Antonio Palopo	2	Febrero	2023-05-02T00:00:00	2024-11-08T12:00:00	4	Temperatura máxima	23.4
152215	7	Sololá	712	San Antonio Palopó	9	San Antonio Palopo	2	Febrero	2023-05-02T00:00:00	2024-11-08T12:00:00	3	Temperatura mínima	22.3
152216	7	Sololá	712	San Antonio Palopó	9	San Antonio Palopo	2	Febrero	2023-05-02T00:00:00	2024-11-08T12:00:00	5	Humedad	43
152217	7	Sololá	712	San Antonio Palopó	9	San Antonio Palopo	2	Febrero	2023-05-02T00:00:00	2024-11-08T12:00:00	6	Velocidad del viento	6.4
152218	7	Sololá	712	San Antonio Palopó	9	San Antonio Palopo	2	Febrero	2023-05-02T00:00:00	2024-11-08T12:00:00	7	Dirección del viento	6.44
152219	7	Sololá	712	San Antonio Palopó	9	San Antonio Palopo	2	Febrero	2023-05-02T00:00:00	2024-11-08T12:00:00	1	Precipitación	0
152220	7	Sololá	712	San Antonio Palopó	9	San Antonio Palopo	2	Febrero	2023-05-02T00:00:00	2024-11-08T12:00:00	8	Radiación solar	722
152221	7	Sololá	712	San Antonio Palopó	9	San Antonio Palopo	2	Febrero	2023-05-02T00:00:00	2024-11-08T13:00:00	2	Temperatura media	22.2
152222	7	Sololá	712	San Antonio Palopó	9	San Antonio Palopo	2	Febrero	2023-05-02T00:00:00	2024-11-08T13:00:00	4	Temperatura máxima	24
152223	7	Sololá	712	San Antonio Palopó	9	San Antonio Palopo	2	Febrero	2023-05-02T00:00:00	2024-11-08T13:00:00	3	Temperatura mínima	22.2
152224	7	Sololá	712	San Antonio Palopó	9	San Antonio Palopo	2	Febrero	2023-05-02T00:00:00	2024-11-08T13:00:00	5	Humedad	69
152225	7	Sololá	712	San Antonio Palopó	9	San Antonio Palopo	2	Febrero	2023-05-02T00:00:00	2024-11-08T13:00:00	6	Velocidad del viento	6.4
152226	7	Sololá	712	San Antonio Palopó	9	San Antonio Palopo	2	Febrero	2023-05-02T00:00:00	2024-11-08T13:00:00	7	Dirección del viento	6.44
152227	7	Sololá	712	San Antonio Palopó	9	San Antonio Palopo	2	Febrero	2023-05-02T00:00:00	2024-11-08T13:00:00	1	Precipitación	0
152228	7	Sololá	712	San Antonio Palopó	9	San Antonio Palopo	2	Febrero	2023-05-02T00:00:00	2024-11-08T13:00:00	8	Radiación solar	783
152229	7	Sololá	712	San Antonio Palopó	9	San Antonio Palopo	2	Febrero	2023-05-02T00:00:00	2024-11-08T14:00:00	2	Temperatura media	23.1
152230	7	Sololá	712	San Antonio Palopó	9	San Antonio Palopo	2	Febrero	2023-05-02T00:00:00	2024-11-08T14:00:00	4	Temperatura máxima	23.3
152231	7	Sololá	712	San Antonio Palopó	9	San Antonio Palopo	2	Febrero	2023-05-02T00:00:00	2024-11-08T14:00:00	3	Temperatura mínima	22.2
152232	7	Sololá	712	San Antonio Palopó	9	San Antonio Palopo	2	Febrero	2023-05-02T00:00:00	2024-11-08T14:00:00	5	Humedad	66
152233	7	Sololá	712	San Antonio Palopó	9	San Antonio Palopo	2	Febrero	2023-05-02T00:00:00	2024-11-08T14:00:00	6	Velocidad del viento	8
152234	7	Sololá	712	San Antonio Palopó	9	San Antonio Palopo	2	Febrero	2023-05-02T00:00:00	2024-11-08T14:00:00	7	Dirección del viento	8.05
152235	7	Sololá	712	San Antonio Palopó	9	San Antonio Palopo	2	Febrero	2023-05-02T00:00:00	2024-11-08T14:00:00	1	Precipitación	0
152236	7	Sololá	712	San Antonio Palopó	9	San Antonio Palopo	2	Febrero	2023-05-02T00:00:00	2024-11-08T14:00:00	8	Radiación solar	787
152237	7	Sololá	712	San Antonio Palopó	9	San Antonio Palopo	2	Febrero	2023-05-02T00:00:00	2024-11-08T15:00:00	2	Temperatura media	23.8
152238	7	Sololá	712	San Antonio Palopó	9	San Antonio Palopo	2	Febrero	2023-05-02T00:00:00	2024-11-08T15:00:00	4	Temperatura máxima	24.3
152239	7	Sololá	712	San Antonio Palopó	9	San Antonio Palopo	2	Febrero	2023-05-02T00:00:00	2024-11-08T15:00:00	3	Temperatura mínima	23
152240	7	Sololá	712	San Antonio Palopó	9	San Antonio Palopo	2	Febrero	2023-05-02T00:00:00	2024-11-08T15:00:00	5	Humedad	63
152241	7	Sololá	712	San Antonio Palopó	9	San Antonio Palopo	2	Febrero	2023-05-02T00:00:00	2024-11-08T15:00:00	6	Velocidad del viento	6.4
152242	7	Sololá	712	San Antonio Palopó	9	San Antonio Palopo	2	Febrero	2023-05-02T00:00:00	2024-11-08T15:00:00	7	Dirección del viento	6.44
152243	7	Sololá	712	San Antonio Palopó	9	San Antonio Palopo	2	Febrero	2023-05-02T00:00:00	2024-11-08T15:00:00	1	Precipitación	0
152244	7	Sololá	712	San Antonio Palopó	9	San Antonio Palopo	2	Febrero	2023-05-02T00:00:00	2024-11-08T15:00:00	8	Radiación solar	652
152245	7	Sololá	712	San Antonio Palopó	9	San Antonio Palopo	2	Febrero	2023-05-02T00:00:00	2024-11-08T16:00:00	2	Temperatura media	24.3
152246	7	Sololá	712	San Antonio Palopó	9	San Antonio Palopo	2	Febrero	2023-05-02T00:00:00	2024-11-08T16:00:00	4	Temperatura máxima	25.1
152247	7	Sololá	712	San Antonio Palopó	9	San Antonio Palopo	2	Febrero	2023-05-02T00:00:00	2024-11-08T16:00:00	3	Temperatura mínima	23.3
152248	7	Sololá	712	San Antonio Palopó	9	San Antonio Palopo	2	Febrero	2023-05-02T00:00:00	2024-11-08T16:00:00	5	Humedad	37
152249	7	Sololá	712	San Antonio Palopó	9	San Antonio Palopo	2	Febrero	2023-05-02T00:00:00	2024-11-08T16:00:00	6	Velocidad del viento	11.3
152250	7	Sololá	712	San Antonio Palopó	9	San Antonio Palopo	2	Febrero	2023-05-02T00:00:00	2024-11-08T16:00:00	7	Dirección del viento	11.27
152251	7	Sololá	712	San Antonio Palopó	9	San Antonio Palopo	2	Febrero	2023-05-02T00:00:00	2024-11-08T16:00:00	1	Precipitación	0
152252	7	Sololá	712	San Antonio Palopó	9	San Antonio Palopo	2	Febrero	2023-05-02T00:00:00	2024-11-08T16:00:00	8	Radiación solar	498
152253	7	Sololá	712	San Antonio Palopó	9	San Antonio Palopo	2	Febrero	2023-05-02T00:00:00	2024-11-08T17:00:00	2	Temperatura media	24.2
152254	7	Sololá	712	San Antonio Palopó	9	San Antonio Palopo	2	Febrero	2023-05-02T00:00:00	2024-11-08T17:00:00	4	Temperatura máxima	25.3
152255	7	Sololá	712	San Antonio Palopó	9	San Antonio Palopo	2	Febrero	2023-05-02T00:00:00	2024-11-08T17:00:00	3	Temperatura mínima	24.2
152256	7	Sololá	712	San Antonio Palopó	9	San Antonio Palopo	2	Febrero	2023-05-02T00:00:00	2024-11-08T17:00:00	5	Humedad	43
152257	7	Sololá	712	San Antonio Palopó	9	San Antonio Palopo	2	Febrero	2023-05-02T00:00:00	2024-11-08T17:00:00	6	Velocidad del viento	9.7
152258	7	Sololá	712	San Antonio Palopó	9	San Antonio Palopo	2	Febrero	2023-05-02T00:00:00	2024-11-08T17:00:00	7	Dirección del viento	9.66
152259	7	Sololá	712	San Antonio Palopó	9	San Antonio Palopo	2	Febrero	2023-05-02T00:00:00	2024-11-08T17:00:00	1	Precipitación	0
152260	7	Sololá	712	San Antonio Palopó	9	San Antonio Palopo	2	Febrero	2023-05-02T00:00:00	2024-11-08T17:00:00	8	Radiación solar	271
152261	7	Sololá	712	San Antonio Palopó	9	San Antonio Palopo	2	Febrero	2023-05-02T00:00:00	2024-11-08T18:00:00	2	Temperatura media	20.9
152262	7	Sololá	712	San Antonio Palopó	9	San Antonio Palopo	2	Febrero	2023-05-02T00:00:00	2024-11-08T18:00:00	4	Temperatura máxima	24.2
152263	7	Sololá	712	San Antonio Palopó	9	San Antonio Palopo	2	Febrero	2023-05-02T00:00:00	2024-11-08T18:00:00	3	Temperatura mínima	20.9
152264	7	Sololá	712	San Antonio Palopó	9	San Antonio Palopo	2	Febrero	2023-05-02T00:00:00	2024-11-08T18:00:00	5	Humedad	55
152265	7	Sololá	712	San Antonio Palopó	9	San Antonio Palopo	2	Febrero	2023-05-02T00:00:00	2024-11-08T18:00:00	6	Velocidad del viento	8
152266	7	Sololá	712	San Antonio Palopó	9	San Antonio Palopo	2	Febrero	2023-05-02T00:00:00	2024-11-08T18:00:00	7	Dirección del viento	8.05
152267	7	Sololá	712	San Antonio Palopó	9	San Antonio Palopo	2	Febrero	2023-05-02T00:00:00	2024-11-08T18:00:00	1	Precipitación	0
152268	7	Sololá	712	San Antonio Palopó	9	San Antonio Palopo	2	Febrero	2023-05-02T00:00:00	2024-11-08T18:00:00	8	Radiación solar	50
152269	7	Sololá	712	San Antonio Palopó	9	San Antonio Palopo	2	Febrero	2023-05-02T00:00:00	2024-11-08T19:00:00	2	Temperatura media	18.7
152270	7	Sololá	712	San Antonio Palopó	9	San Antonio Palopo	2	Febrero	2023-05-02T00:00:00	2024-11-08T19:00:00	4	Temperatura máxima	20.9
152271	7	Sololá	712	San Antonio Palopó	9	San Antonio Palopo	2	Febrero	2023-05-02T00:00:00	2024-11-08T19:00:00	3	Temperatura mínima	18.7
152272	7	Sololá	712	San Antonio Palopó	9	San Antonio Palopo	2	Febrero	2023-05-02T00:00:00	2024-11-08T19:00:00	5	Humedad	62
152273	7	Sololá	712	San Antonio Palopó	9	San Antonio Palopo	2	Febrero	2023-05-02T00:00:00	2024-11-08T19:00:00	6	Velocidad del viento	12.9
152274	7	Sololá	712	San Antonio Palopó	9	San Antonio Palopo	2	Febrero	2023-05-02T00:00:00	2024-11-08T19:00:00	7	Dirección del viento	12.87
152275	7	Sololá	712	San Antonio Palopó	9	San Antonio Palopo	2	Febrero	2023-05-02T00:00:00	2024-11-08T19:00:00	1	Precipitación	0
152276	7	Sololá	712	San Antonio Palopó	9	San Antonio Palopo	2	Febrero	2023-05-02T00:00:00	2024-11-08T19:00:00	8	Radiación solar	0
152277	7	Sololá	712	San Antonio Palopó	9	San Antonio Palopo	2	Febrero	2023-05-02T00:00:00	2024-11-08T20:00:00	2	Temperatura media	17.9
152278	7	Sololá	712	San Antonio Palopó	9	San Antonio Palopo	2	Febrero	2023-05-02T00:00:00	2024-11-08T20:00:00	4	Temperatura máxima	18.7
152279	7	Sololá	712	San Antonio Palopó	9	San Antonio Palopo	2	Febrero	2023-05-02T00:00:00	2024-11-08T20:00:00	3	Temperatura mínima	17.9
152280	7	Sololá	712	San Antonio Palopó	9	San Antonio Palopo	2	Febrero	2023-05-02T00:00:00	2024-11-08T20:00:00	5	Humedad	64
152281	7	Sololá	712	San Antonio Palopó	9	San Antonio Palopo	2	Febrero	2023-05-02T00:00:00	2024-11-08T20:00:00	6	Velocidad del viento	17.7
152282	7	Sololá	712	San Antonio Palopó	9	San Antonio Palopo	2	Febrero	2023-05-02T00:00:00	2024-11-08T20:00:00	7	Dirección del viento	17.7
152283	7	Sololá	712	San Antonio Palopó	9	San Antonio Palopo	2	Febrero	2023-05-02T00:00:00	2024-11-08T20:00:00	1	Precipitación	0
152284	7	Sololá	712	San Antonio Palopó	9	San Antonio Palopo	2	Febrero	2023-05-02T00:00:00	2024-11-08T20:00:00	8	Radiación solar	0
152285	7	Sololá	712	San Antonio Palopó	9	San Antonio Palopo	2	Febrero	2023-05-02T00:00:00	2024-11-08T21:00:00	2	Temperatura media	17.3
152286	7	Sololá	712	San Antonio Palopó	9	San Antonio Palopo	2	Febrero	2023-05-02T00:00:00	2024-11-08T21:00:00	4	Temperatura máxima	17.9
152287	7	Sololá	712	San Antonio Palopó	9	San Antonio Palopo	2	Febrero	2023-05-02T00:00:00	2024-11-08T21:00:00	3	Temperatura mínima	17.3
152288	7	Sololá	712	San Antonio Palopó	9	San Antonio Palopo	2	Febrero	2023-05-02T00:00:00	2024-11-08T21:00:00	5	Humedad	64
152289	7	Sololá	712	San Antonio Palopó	9	San Antonio Palopo	2	Febrero	2023-05-02T00:00:00	2024-11-08T21:00:00	6	Velocidad del viento	16.1
152290	7	Sololá	712	San Antonio Palopó	9	San Antonio Palopo	2	Febrero	2023-05-02T00:00:00	2024-11-08T21:00:00	7	Dirección del viento	16.09
152291	7	Sololá	712	San Antonio Palopó	9	San Antonio Palopo	2	Febrero	2023-05-02T00:00:00	2024-11-08T21:00:00	1	Precipitación	0
152292	7	Sololá	712	San Antonio Palopó	9	San Antonio Palopo	2	Febrero	2023-05-02T00:00:00	2024-11-08T21:00:00	8	Radiación solar	0
152293	7	Sololá	712	San Antonio Palopó	9	San Antonio Palopo	2	Febrero	2023-05-02T00:00:00	2024-11-08T22:00:00	2	Temperatura media	16.7
152294	7	Sololá	712	San Antonio Palopó	9	San Antonio Palopo	2	Febrero	2023-05-02T00:00:00	2024-11-08T22:00:00	4	Temperatura máxima	17.3
152295	7	Sololá	712	San Antonio Palopó	9	San Antonio Palopo	2	Febrero	2023-05-02T00:00:00	2024-11-08T22:00:00	3	Temperatura mínima	16.7
152296	7	Sololá	712	San Antonio Palopó	9	San Antonio Palopo	2	Febrero	2023-05-02T00:00:00	2024-11-08T22:00:00	5	Humedad	65
152297	7	Sololá	712	San Antonio Palopó	9	San Antonio Palopo	2	Febrero	2023-05-02T00:00:00	2024-11-08T22:00:00	6	Velocidad del viento	8
152298	7	Sololá	712	San Antonio Palopó	9	San Antonio Palopo	2	Febrero	2023-05-02T00:00:00	2024-11-08T22:00:00	7	Dirección del viento	8.05
152299	7	Sololá	712	San Antonio Palopó	9	San Antonio Palopo	2	Febrero	2023-05-02T00:00:00	2024-11-08T22:00:00	1	Precipitación	0
152300	7	Sololá	712	San Antonio Palopó	9	San Antonio Palopo	2	Febrero	2023-05-02T00:00:00	2024-11-08T22:00:00	8	Radiación solar	0
152301	7	Sololá	712	San Antonio Palopó	9	San Antonio Palopo	2	Febrero	2023-05-02T00:00:00	2024-11-08T23:00:00	2	Temperatura media	16.8
152302	7	Sololá	712	San Antonio Palopó	9	San Antonio Palopo	2	Febrero	2023-05-02T00:00:00	2024-11-08T23:00:00	4	Temperatura máxima	16.8
152303	7	Sololá	712	San Antonio Palopó	9	San Antonio Palopo	2	Febrero	2023-05-02T00:00:00	2024-11-08T23:00:00	3	Temperatura mínima	16.4
152304	7	Sololá	712	San Antonio Palopó	9	San Antonio Palopo	2	Febrero	2023-05-02T00:00:00	2024-11-08T23:00:00	5	Humedad	61
152305	7	Sololá	712	San Antonio Palopó	9	San Antonio Palopo	2	Febrero	2023-05-02T00:00:00	2024-11-08T23:00:00	6	Velocidad del viento	4.8
152306	7	Sololá	712	San Antonio Palopó	9	San Antonio Palopo	2	Febrero	2023-05-02T00:00:00	2024-11-08T23:00:00	7	Dirección del viento	4.83
152307	7	Sololá	712	San Antonio Palopó	9	San Antonio Palopo	2	Febrero	2023-05-02T00:00:00	2024-11-08T23:00:00	1	Precipitación	0
152308	7	Sololá	712	San Antonio Palopó	9	San Antonio Palopo	2	Febrero	2023-05-02T00:00:00	2024-11-08T23:00:00	8	Radiación solar	0
152309	7	Sololá	712	San Antonio Palopó	9	San Antonio Palopo	2	Febrero	2023-06-02T00:00:00	2024-11-08T00:00:00	2	Temperatura media	16.3
152310	7	Sololá	712	San Antonio Palopó	9	San Antonio Palopo	2	Febrero	2023-06-02T00:00:00	2024-11-08T00:00:00	4	Temperatura máxima	16.9
152311	7	Sololá	712	San Antonio Palopó	9	San Antonio Palopo	2	Febrero	2023-06-02T00:00:00	2024-11-08T00:00:00	3	Temperatura mínima	15.9
152312	7	Sololá	712	San Antonio Palopó	9	San Antonio Palopo	2	Febrero	2023-06-02T00:00:00	2024-11-08T00:00:00	5	Humedad	62
152313	7	Sololá	712	San Antonio Palopó	9	San Antonio Palopo	2	Febrero	2023-06-02T00:00:00	2024-11-08T00:00:00	6	Velocidad del viento	4.8
152314	7	Sololá	712	San Antonio Palopó	9	San Antonio Palopo	2	Febrero	2023-06-02T00:00:00	2024-11-08T00:00:00	7	Dirección del viento	4.83
152315	7	Sololá	712	San Antonio Palopó	9	San Antonio Palopo	2	Febrero	2023-06-02T00:00:00	2024-11-08T00:00:00	1	Precipitación	0
152316	7	Sololá	712	San Antonio Palopó	9	San Antonio Palopo	2	Febrero	2023-06-02T00:00:00	2024-11-08T00:00:00	8	Radiación solar	0
152317	7	Sololá	712	San Antonio Palopó	9	San Antonio Palopo	2	Febrero	2023-06-02T00:00:00	2024-11-08T01:00:00	2	Temperatura media	16.1
152318	7	Sololá	712	San Antonio Palopó	9	San Antonio Palopo	2	Febrero	2023-06-02T00:00:00	2024-11-08T01:00:00	4	Temperatura máxima	16.6
152319	7	Sololá	712	San Antonio Palopó	9	San Antonio Palopo	2	Febrero	2023-06-02T00:00:00	2024-11-08T01:00:00	3	Temperatura mínima	15.5
152320	7	Sololá	712	San Antonio Palopó	9	San Antonio Palopo	2	Febrero	2023-06-02T00:00:00	2024-11-08T01:00:00	5	Humedad	64
152321	7	Sololá	712	San Antonio Palopó	9	San Antonio Palopo	2	Febrero	2023-06-02T00:00:00	2024-11-08T01:00:00	6	Velocidad del viento	4.8
152322	7	Sololá	712	San Antonio Palopó	9	San Antonio Palopo	2	Febrero	2023-06-02T00:00:00	2024-11-08T01:00:00	7	Dirección del viento	4.83
152323	7	Sololá	712	San Antonio Palopó	9	San Antonio Palopo	2	Febrero	2023-06-02T00:00:00	2024-11-08T01:00:00	1	Precipitación	0
152324	7	Sololá	712	San Antonio Palopó	9	San Antonio Palopo	2	Febrero	2023-06-02T00:00:00	2024-11-08T01:00:00	8	Radiación solar	0
152325	7	Sololá	712	San Antonio Palopó	9	San Antonio Palopo	2	Febrero	2023-06-02T00:00:00	2024-11-08T02:00:00	2	Temperatura media	15.8
152326	7	Sololá	712	San Antonio Palopó	9	San Antonio Palopo	2	Febrero	2023-06-02T00:00:00	2024-11-08T02:00:00	4	Temperatura máxima	16.1
152327	7	Sololá	712	San Antonio Palopó	9	San Antonio Palopo	2	Febrero	2023-06-02T00:00:00	2024-11-08T02:00:00	3	Temperatura mínima	15.8
152328	7	Sololá	712	San Antonio Palopó	9	San Antonio Palopo	2	Febrero	2023-06-02T00:00:00	2024-11-08T02:00:00	5	Humedad	61
152329	7	Sololá	712	San Antonio Palopó	9	San Antonio Palopo	2	Febrero	2023-06-02T00:00:00	2024-11-08T02:00:00	6	Velocidad del viento	6.4
152330	7	Sololá	712	San Antonio Palopó	9	San Antonio Palopo	2	Febrero	2023-06-02T00:00:00	2024-11-08T02:00:00	7	Dirección del viento	6.44
152331	7	Sololá	712	San Antonio Palopó	9	San Antonio Palopo	2	Febrero	2023-06-02T00:00:00	2024-11-08T02:00:00	1	Precipitación	0
152332	7	Sololá	712	San Antonio Palopó	9	San Antonio Palopo	2	Febrero	2023-06-02T00:00:00	2024-11-08T02:00:00	8	Radiación solar	0
152333	7	Sololá	712	San Antonio Palopó	9	San Antonio Palopo	2	Febrero	2023-06-02T00:00:00	2024-11-08T03:00:00	2	Temperatura media	15.5
152334	7	Sololá	712	San Antonio Palopó	9	San Antonio Palopo	2	Febrero	2023-06-02T00:00:00	2024-11-08T03:00:00	4	Temperatura máxima	15.8
152335	7	Sololá	712	San Antonio Palopó	9	San Antonio Palopo	2	Febrero	2023-06-02T00:00:00	2024-11-08T03:00:00	3	Temperatura mínima	15.4
152336	7	Sololá	712	San Antonio Palopó	9	San Antonio Palopo	2	Febrero	2023-06-02T00:00:00	2024-11-08T03:00:00	5	Humedad	64
152337	7	Sololá	712	San Antonio Palopó	9	San Antonio Palopo	2	Febrero	2023-06-02T00:00:00	2024-11-08T03:00:00	6	Velocidad del viento	3.2
152338	7	Sololá	712	San Antonio Palopó	9	San Antonio Palopo	2	Febrero	2023-06-02T00:00:00	2024-11-08T03:00:00	7	Dirección del viento	3.22
152339	7	Sololá	712	San Antonio Palopó	9	San Antonio Palopo	2	Febrero	2023-06-02T00:00:00	2024-11-08T03:00:00	1	Precipitación	0
152340	7	Sololá	712	San Antonio Palopó	9	San Antonio Palopo	2	Febrero	2023-06-02T00:00:00	2024-11-08T03:00:00	8	Radiación solar	0
152341	7	Sololá	712	San Antonio Palopó	9	San Antonio Palopo	2	Febrero	2023-06-02T00:00:00	2024-11-08T04:00:00	2	Temperatura media	14.9
152342	7	Sololá	712	San Antonio Palopó	9	San Antonio Palopo	2	Febrero	2023-06-02T00:00:00	2024-11-08T04:00:00	4	Temperatura máxima	15.6
152343	7	Sololá	712	San Antonio Palopó	9	San Antonio Palopo	2	Febrero	2023-06-02T00:00:00	2024-11-08T04:00:00	3	Temperatura mínima	14.9
152344	7	Sololá	712	San Antonio Palopó	9	San Antonio Palopo	2	Febrero	2023-06-02T00:00:00	2024-11-08T04:00:00	5	Humedad	60
152345	7	Sololá	712	San Antonio Palopó	9	San Antonio Palopo	2	Febrero	2023-06-02T00:00:00	2024-11-08T04:00:00	6	Velocidad del viento	8
152346	7	Sololá	712	San Antonio Palopó	9	San Antonio Palopo	2	Febrero	2023-06-02T00:00:00	2024-11-08T04:00:00	7	Dirección del viento	8.05
152347	7	Sololá	712	San Antonio Palopó	9	San Antonio Palopo	2	Febrero	2023-06-02T00:00:00	2024-11-08T04:00:00	1	Precipitación	0
152348	7	Sololá	712	San Antonio Palopó	9	San Antonio Palopo	2	Febrero	2023-06-02T00:00:00	2024-11-08T04:00:00	8	Radiación solar	0
152349	7	Sololá	712	San Antonio Palopó	9	San Antonio Palopo	2	Febrero	2023-06-02T00:00:00	2024-11-08T05:00:00	2	Temperatura media	15.2
152350	7	Sololá	712	San Antonio Palopó	9	San Antonio Palopo	2	Febrero	2023-06-02T00:00:00	2024-11-08T05:00:00	4	Temperatura máxima	15.4
152351	7	Sololá	712	San Antonio Palopó	9	San Antonio Palopo	2	Febrero	2023-06-02T00:00:00	2024-11-08T05:00:00	3	Temperatura mínima	14.9
152352	7	Sololá	712	San Antonio Palopó	9	San Antonio Palopo	2	Febrero	2023-06-02T00:00:00	2024-11-08T05:00:00	5	Humedad	59
152353	7	Sololá	712	San Antonio Palopó	9	San Antonio Palopo	2	Febrero	2023-06-02T00:00:00	2024-11-08T05:00:00	6	Velocidad del viento	6.4
152354	7	Sololá	712	San Antonio Palopó	9	San Antonio Palopo	2	Febrero	2023-06-02T00:00:00	2024-11-08T05:00:00	7	Dirección del viento	6.44
152355	7	Sololá	712	San Antonio Palopó	9	San Antonio Palopo	2	Febrero	2023-06-02T00:00:00	2024-11-08T05:00:00	1	Precipitación	0
152356	7	Sololá	712	San Antonio Palopó	9	San Antonio Palopo	2	Febrero	2023-06-02T00:00:00	2024-11-08T05:00:00	8	Radiación solar	0
152357	7	Sololá	712	San Antonio Palopó	9	San Antonio Palopo	2	Febrero	2023-06-02T00:00:00	2024-11-08T06:00:00	2	Temperatura media	16.3
152358	7	Sololá	712	San Antonio Palopó	9	San Antonio Palopo	2	Febrero	2023-06-02T00:00:00	2024-11-08T06:00:00	4	Temperatura máxima	16.6
152359	7	Sololá	712	San Antonio Palopó	9	San Antonio Palopo	2	Febrero	2023-06-02T00:00:00	2024-11-08T06:00:00	3	Temperatura mínima	15.2
152360	7	Sololá	712	San Antonio Palopó	9	San Antonio Palopo	2	Febrero	2023-06-02T00:00:00	2024-11-08T06:00:00	5	Humedad	53
152361	7	Sololá	712	San Antonio Palopó	9	San Antonio Palopo	2	Febrero	2023-06-02T00:00:00	2024-11-08T06:00:00	6	Velocidad del viento	8
152362	7	Sololá	712	San Antonio Palopó	9	San Antonio Palopo	2	Febrero	2023-06-02T00:00:00	2024-11-08T06:00:00	7	Dirección del viento	8.05
152363	7	Sololá	712	San Antonio Palopó	9	San Antonio Palopo	2	Febrero	2023-06-02T00:00:00	2024-11-08T06:00:00	1	Precipitación	0
152364	7	Sololá	712	San Antonio Palopó	9	San Antonio Palopo	2	Febrero	2023-06-02T00:00:00	2024-11-08T06:00:00	8	Radiación solar	0
152365	7	Sololá	712	San Antonio Palopó	9	San Antonio Palopo	2	Febrero	2023-06-02T00:00:00	2024-11-08T07:00:00	2	Temperatura media	15.7
152366	7	Sololá	712	San Antonio Palopó	9	San Antonio Palopo	2	Febrero	2023-06-02T00:00:00	2024-11-08T07:00:00	4	Temperatura máxima	16.3
152367	7	Sololá	712	San Antonio Palopó	9	San Antonio Palopo	2	Febrero	2023-06-02T00:00:00	2024-11-08T07:00:00	3	Temperatura mínima	15.2
152368	7	Sololá	712	San Antonio Palopó	9	San Antonio Palopo	2	Febrero	2023-06-02T00:00:00	2024-11-08T07:00:00	5	Humedad	51
152369	7	Sololá	712	San Antonio Palopó	9	San Antonio Palopo	2	Febrero	2023-06-02T00:00:00	2024-11-08T07:00:00	6	Velocidad del viento	6.4
152370	7	Sololá	712	San Antonio Palopó	9	San Antonio Palopo	2	Febrero	2023-06-02T00:00:00	2024-11-08T07:00:00	7	Dirección del viento	6.44
152371	7	Sololá	712	San Antonio Palopó	9	San Antonio Palopo	2	Febrero	2023-06-02T00:00:00	2024-11-08T07:00:00	1	Precipitación	0
152372	7	Sololá	712	San Antonio Palopó	9	San Antonio Palopo	2	Febrero	2023-06-02T00:00:00	2024-11-08T07:00:00	8	Radiación solar	3
152373	7	Sololá	712	San Antonio Palopó	9	San Antonio Palopo	2	Febrero	2023-06-02T00:00:00	2024-11-08T08:00:00	2	Temperatura media	16.9
152374	7	Sololá	712	San Antonio Palopó	9	San Antonio Palopo	2	Febrero	2023-06-02T00:00:00	2024-11-08T08:00:00	4	Temperatura máxima	16.9
152375	7	Sololá	712	San Antonio Palopó	9	San Antonio Palopo	2	Febrero	2023-06-02T00:00:00	2024-11-08T08:00:00	3	Temperatura mínima	15.6
152376	7	Sololá	712	San Antonio Palopó	9	San Antonio Palopo	2	Febrero	2023-06-02T00:00:00	2024-11-08T08:00:00	5	Humedad	57
152377	7	Sololá	712	San Antonio Palopó	9	San Antonio Palopo	2	Febrero	2023-06-02T00:00:00	2024-11-08T08:00:00	6	Velocidad del viento	9.7
152378	7	Sololá	712	San Antonio Palopó	9	San Antonio Palopo	2	Febrero	2023-06-02T00:00:00	2024-11-08T08:00:00	7	Dirección del viento	9.66
152379	7	Sololá	712	San Antonio Palopó	9	San Antonio Palopo	2	Febrero	2023-06-02T00:00:00	2024-11-08T08:00:00	1	Precipitación	0
152380	7	Sololá	712	San Antonio Palopó	9	San Antonio Palopo	2	Febrero	2023-06-02T00:00:00	2024-11-08T08:00:00	8	Radiación solar	17
152381	7	Sololá	712	San Antonio Palopó	9	San Antonio Palopo	2	Febrero	2023-06-02T00:00:00	2024-11-08T09:00:00	2	Temperatura media	18.4
152382	7	Sololá	712	San Antonio Palopó	9	San Antonio Palopo	2	Febrero	2023-06-02T00:00:00	2024-11-08T09:00:00	4	Temperatura máxima	18.4
152383	7	Sololá	712	San Antonio Palopó	9	San Antonio Palopo	2	Febrero	2023-06-02T00:00:00	2024-11-08T09:00:00	3	Temperatura mínima	16.8
152384	7	Sololá	712	San Antonio Palopó	9	San Antonio Palopo	2	Febrero	2023-06-02T00:00:00	2024-11-08T09:00:00	5	Humedad	57
152385	7	Sololá	712	San Antonio Palopó	9	San Antonio Palopo	2	Febrero	2023-06-02T00:00:00	2024-11-08T09:00:00	6	Velocidad del viento	8
152386	7	Sololá	712	San Antonio Palopó	9	San Antonio Palopo	2	Febrero	2023-06-02T00:00:00	2024-11-08T09:00:00	7	Dirección del viento	8.05
152387	7	Sololá	712	San Antonio Palopó	9	San Antonio Palopo	2	Febrero	2023-06-02T00:00:00	2024-11-08T09:00:00	1	Precipitación	0
152388	7	Sololá	712	San Antonio Palopó	9	San Antonio Palopo	2	Febrero	2023-06-02T00:00:00	2024-11-08T09:00:00	8	Radiación solar	209
152389	7	Sololá	712	San Antonio Palopó	9	San Antonio Palopo	2	Febrero	2023-06-02T00:00:00	2024-11-08T10:00:00	2	Temperatura media	20.2
152390	7	Sololá	712	San Antonio Palopó	9	San Antonio Palopo	2	Febrero	2023-06-02T00:00:00	2024-11-08T10:00:00	4	Temperatura máxima	20.2
152391	7	Sololá	712	San Antonio Palopó	9	San Antonio Palopo	2	Febrero	2023-06-02T00:00:00	2024-11-08T10:00:00	3	Temperatura mínima	18.4
152392	7	Sololá	712	San Antonio Palopó	9	San Antonio Palopo	2	Febrero	2023-06-02T00:00:00	2024-11-08T10:00:00	5	Humedad	55
152393	7	Sololá	712	San Antonio Palopó	9	San Antonio Palopo	2	Febrero	2023-06-02T00:00:00	2024-11-08T10:00:00	6	Velocidad del viento	9.7
152394	7	Sololá	712	San Antonio Palopó	9	San Antonio Palopo	2	Febrero	2023-06-02T00:00:00	2024-11-08T10:00:00	7	Dirección del viento	9.66
152395	7	Sololá	712	San Antonio Palopó	9	San Antonio Palopo	2	Febrero	2023-06-02T00:00:00	2024-11-08T10:00:00	1	Precipitación	0
152396	7	Sololá	712	San Antonio Palopó	9	San Antonio Palopo	2	Febrero	2023-06-02T00:00:00	2024-11-08T10:00:00	8	Radiación solar	568
152397	7	Sololá	712	San Antonio Palopó	9	San Antonio Palopo	2	Febrero	2023-06-02T00:00:00	2024-11-08T11:00:00	2	Temperatura media	21.8
152398	7	Sololá	712	San Antonio Palopó	9	San Antonio Palopo	2	Febrero	2023-06-02T00:00:00	2024-11-08T11:00:00	4	Temperatura máxima	21.8
152399	7	Sololá	712	San Antonio Palopó	9	San Antonio Palopo	2	Febrero	2023-06-02T00:00:00	2024-11-08T11:00:00	3	Temperatura mínima	20.1
152400	7	Sololá	712	San Antonio Palopó	9	San Antonio Palopo	2	Febrero	2023-06-02T00:00:00	2024-11-08T11:00:00	5	Humedad	45
152401	7	Sololá	712	San Antonio Palopó	9	San Antonio Palopo	2	Febrero	2023-06-02T00:00:00	2024-11-08T11:00:00	6	Velocidad del viento	8
152402	7	Sololá	712	San Antonio Palopó	9	San Antonio Palopo	2	Febrero	2023-06-02T00:00:00	2024-11-08T11:00:00	7	Dirección del viento	8.05
152403	7	Sololá	712	San Antonio Palopó	9	San Antonio Palopo	2	Febrero	2023-06-02T00:00:00	2024-11-08T11:00:00	1	Precipitación	0
152404	7	Sololá	712	San Antonio Palopó	9	San Antonio Palopo	2	Febrero	2023-06-02T00:00:00	2024-11-08T11:00:00	8	Radiación solar	729
152405	7	Sololá	712	San Antonio Palopó	9	San Antonio Palopo	2	Febrero	2023-06-02T00:00:00	2024-11-08T12:00:00	2	Temperatura media	22.7
152406	7	Sololá	712	San Antonio Palopó	9	San Antonio Palopo	2	Febrero	2023-06-02T00:00:00	2024-11-08T12:00:00	4	Temperatura máxima	22.7
152407	7	Sololá	712	San Antonio Palopó	9	San Antonio Palopo	2	Febrero	2023-06-02T00:00:00	2024-11-08T12:00:00	3	Temperatura mínima	21.8
152408	7	Sololá	712	San Antonio Palopó	9	San Antonio Palopo	2	Febrero	2023-06-02T00:00:00	2024-11-08T12:00:00	5	Humedad	45
152409	7	Sololá	712	San Antonio Palopó	9	San Antonio Palopo	2	Febrero	2023-06-02T00:00:00	2024-11-08T12:00:00	6	Velocidad del viento	11.3
152410	7	Sololá	712	San Antonio Palopó	9	San Antonio Palopo	2	Febrero	2023-06-02T00:00:00	2024-11-08T12:00:00	7	Dirección del viento	11.27
152411	7	Sololá	712	San Antonio Palopó	9	San Antonio Palopo	2	Febrero	2023-06-02T00:00:00	2024-11-08T12:00:00	1	Precipitación	0
152412	7	Sololá	712	San Antonio Palopó	9	San Antonio Palopo	2	Febrero	2023-06-02T00:00:00	2024-11-08T12:00:00	8	Radiación solar	734
152413	7	Sololá	712	San Antonio Palopó	9	San Antonio Palopo	2	Febrero	2023-06-02T00:00:00	2024-11-08T13:00:00	2	Temperatura media	23.5
152414	7	Sololá	712	San Antonio Palopó	9	San Antonio Palopo	2	Febrero	2023-06-02T00:00:00	2024-11-08T13:00:00	4	Temperatura máxima	23.6
152415	7	Sololá	712	San Antonio Palopó	9	San Antonio Palopo	2	Febrero	2023-06-02T00:00:00	2024-11-08T13:00:00	3	Temperatura mínima	22.6
152416	7	Sololá	712	San Antonio Palopó	9	San Antonio Palopo	2	Febrero	2023-06-02T00:00:00	2024-11-08T13:00:00	5	Humedad	44
152417	7	Sololá	712	San Antonio Palopó	9	San Antonio Palopo	2	Febrero	2023-06-02T00:00:00	2024-11-08T13:00:00	6	Velocidad del viento	11.3
152418	7	Sololá	712	San Antonio Palopó	9	San Antonio Palopo	2	Febrero	2023-06-02T00:00:00	2024-11-08T13:00:00	7	Dirección del viento	11.27
152419	7	Sololá	712	San Antonio Palopó	9	San Antonio Palopo	2	Febrero	2023-06-02T00:00:00	2024-11-08T13:00:00	1	Precipitación	0
152420	7	Sololá	712	San Antonio Palopó	9	San Antonio Palopo	2	Febrero	2023-06-02T00:00:00	2024-11-08T13:00:00	8	Radiación solar	826
152421	7	Sololá	712	San Antonio Palopó	9	San Antonio Palopo	2	Febrero	2023-06-02T00:00:00	2024-11-08T14:00:00	2	Temperatura media	23.7
152422	7	Sololá	712	San Antonio Palopó	9	San Antonio Palopo	2	Febrero	2023-06-02T00:00:00	2024-11-08T14:00:00	4	Temperatura máxima	24.6
152423	7	Sololá	712	San Antonio Palopó	9	San Antonio Palopo	2	Febrero	2023-06-02T00:00:00	2024-11-08T14:00:00	3	Temperatura mínima	23.3
152424	7	Sololá	712	San Antonio Palopó	9	San Antonio Palopo	2	Febrero	2023-06-02T00:00:00	2024-11-08T14:00:00	5	Humedad	42
152425	7	Sololá	712	San Antonio Palopó	9	San Antonio Palopo	2	Febrero	2023-06-02T00:00:00	2024-11-08T14:00:00	6	Velocidad del viento	9.7
152426	7	Sololá	712	San Antonio Palopó	9	San Antonio Palopo	2	Febrero	2023-06-02T00:00:00	2024-11-08T14:00:00	7	Dirección del viento	9.66
152427	7	Sololá	712	San Antonio Palopó	9	San Antonio Palopo	2	Febrero	2023-06-02T00:00:00	2024-11-08T14:00:00	1	Precipitación	0
152428	7	Sololá	712	San Antonio Palopó	9	San Antonio Palopo	2	Febrero	2023-06-02T00:00:00	2024-11-08T14:00:00	8	Radiación solar	773
152429	7	Sololá	712	San Antonio Palopó	9	San Antonio Palopo	2	Febrero	2023-06-02T00:00:00	2024-11-08T15:00:00	2	Temperatura media	24.3
152430	7	Sololá	712	San Antonio Palopó	9	San Antonio Palopo	2	Febrero	2023-06-02T00:00:00	2024-11-08T15:00:00	4	Temperatura máxima	24.3
152431	7	Sololá	712	San Antonio Palopó	9	San Antonio Palopo	2	Febrero	2023-06-02T00:00:00	2024-11-08T15:00:00	3	Temperatura mínima	23.6
152432	7	Sololá	712	San Antonio Palopó	9	San Antonio Palopo	2	Febrero	2023-06-02T00:00:00	2024-11-08T15:00:00	5	Humedad	43
152433	7	Sololá	712	San Antonio Palopó	9	San Antonio Palopo	2	Febrero	2023-06-02T00:00:00	2024-11-08T15:00:00	6	Velocidad del viento	9.7
152434	7	Sololá	712	San Antonio Palopó	9	San Antonio Palopo	2	Febrero	2023-06-02T00:00:00	2024-11-08T15:00:00	7	Dirección del viento	9.66
152435	7	Sololá	712	San Antonio Palopó	9	San Antonio Palopo	2	Febrero	2023-06-02T00:00:00	2024-11-08T15:00:00	1	Precipitación	0
152436	7	Sololá	712	San Antonio Palopó	9	San Antonio Palopo	2	Febrero	2023-06-02T00:00:00	2024-11-08T15:00:00	8	Radiación solar	634
152437	7	Sololá	712	San Antonio Palopó	9	San Antonio Palopo	2	Febrero	2023-06-02T00:00:00	2024-11-08T16:00:00	2	Temperatura media	23.9
152438	7	Sololá	712	San Antonio Palopó	9	San Antonio Palopo	2	Febrero	2023-06-02T00:00:00	2024-11-08T16:00:00	4	Temperatura máxima	24.4
152439	7	Sololá	712	San Antonio Palopó	9	San Antonio Palopo	2	Febrero	2023-06-02T00:00:00	2024-11-08T16:00:00	3	Temperatura mínima	23.6
152440	7	Sololá	712	San Antonio Palopó	9	San Antonio Palopo	2	Febrero	2023-06-02T00:00:00	2024-11-08T16:00:00	5	Humedad	41
152441	7	Sololá	712	San Antonio Palopó	9	San Antonio Palopo	2	Febrero	2023-06-02T00:00:00	2024-11-08T16:00:00	6	Velocidad del viento	9.7
152442	7	Sololá	712	San Antonio Palopó	9	San Antonio Palopo	2	Febrero	2023-06-02T00:00:00	2024-11-08T16:00:00	7	Dirección del viento	9.66
152443	7	Sololá	712	San Antonio Palopó	9	San Antonio Palopo	2	Febrero	2023-06-02T00:00:00	2024-11-08T16:00:00	1	Precipitación	0
152444	7	Sololá	712	San Antonio Palopó	9	San Antonio Palopo	2	Febrero	2023-06-02T00:00:00	2024-11-08T16:00:00	8	Radiación solar	481
152445	7	Sololá	712	San Antonio Palopó	9	San Antonio Palopo	2	Febrero	2023-06-02T00:00:00	2024-11-08T17:00:00	2	Temperatura media	22.9
152446	7	Sololá	712	San Antonio Palopó	9	San Antonio Palopo	2	Febrero	2023-06-02T00:00:00	2024-11-08T17:00:00	4	Temperatura máxima	24.5
152447	7	Sololá	712	San Antonio Palopó	9	San Antonio Palopo	2	Febrero	2023-06-02T00:00:00	2024-11-08T17:00:00	3	Temperatura mínima	22.9
152448	7	Sololá	712	San Antonio Palopó	9	San Antonio Palopo	2	Febrero	2023-06-02T00:00:00	2024-11-08T17:00:00	5	Humedad	47
152449	7	Sololá	712	San Antonio Palopó	9	San Antonio Palopo	2	Febrero	2023-06-02T00:00:00	2024-11-08T17:00:00	6	Velocidad del viento	8
152450	7	Sololá	712	San Antonio Palopó	9	San Antonio Palopo	2	Febrero	2023-06-02T00:00:00	2024-11-08T17:00:00	7	Dirección del viento	8.05
152451	7	Sololá	712	San Antonio Palopó	9	San Antonio Palopo	2	Febrero	2023-06-02T00:00:00	2024-11-08T17:00:00	1	Precipitación	0
152452	7	Sololá	712	San Antonio Palopó	9	San Antonio Palopo	2	Febrero	2023-06-02T00:00:00	2024-11-08T17:00:00	8	Radiación solar	270
152453	7	Sololá	712	San Antonio Palopó	9	San Antonio Palopo	2	Febrero	2023-06-02T00:00:00	2024-11-08T18:00:00	2	Temperatura media	19.8
152454	7	Sololá	712	San Antonio Palopó	9	San Antonio Palopo	2	Febrero	2023-06-02T00:00:00	2024-11-08T18:00:00	4	Temperatura máxima	22.9
152455	7	Sololá	712	San Antonio Palopó	9	San Antonio Palopo	2	Febrero	2023-06-02T00:00:00	2024-11-08T18:00:00	3	Temperatura mínima	19.8
152456	7	Sololá	712	San Antonio Palopó	9	San Antonio Palopo	2	Febrero	2023-06-02T00:00:00	2024-11-08T18:00:00	5	Humedad	57
152457	7	Sololá	712	San Antonio Palopó	9	San Antonio Palopo	2	Febrero	2023-06-02T00:00:00	2024-11-08T18:00:00	6	Velocidad del viento	14.5
152458	7	Sololá	712	San Antonio Palopó	9	San Antonio Palopo	2	Febrero	2023-06-02T00:00:00	2024-11-08T18:00:00	7	Dirección del viento	14.48
152459	7	Sololá	712	San Antonio Palopó	9	San Antonio Palopo	2	Febrero	2023-06-02T00:00:00	2024-11-08T18:00:00	1	Precipitación	0
152460	7	Sololá	712	San Antonio Palopó	9	San Antonio Palopo	2	Febrero	2023-06-02T00:00:00	2024-11-08T18:00:00	8	Radiación solar	56
152461	7	Sololá	712	San Antonio Palopó	9	San Antonio Palopo	2	Febrero	2023-06-02T00:00:00	2024-11-08T19:00:00	2	Temperatura media	17.9
152462	7	Sololá	712	San Antonio Palopó	9	San Antonio Palopo	2	Febrero	2023-06-02T00:00:00	2024-11-08T19:00:00	4	Temperatura máxima	19.8
152463	7	Sololá	712	San Antonio Palopó	9	San Antonio Palopo	2	Febrero	2023-06-02T00:00:00	2024-11-08T19:00:00	3	Temperatura mínima	17.9
152464	7	Sololá	712	San Antonio Palopó	9	San Antonio Palopo	2	Febrero	2023-06-02T00:00:00	2024-11-08T19:00:00	5	Humedad	65
152465	7	Sololá	712	San Antonio Palopó	9	San Antonio Palopo	2	Febrero	2023-06-02T00:00:00	2024-11-08T19:00:00	6	Velocidad del viento	14.5
152466	7	Sololá	712	San Antonio Palopó	9	San Antonio Palopo	2	Febrero	2023-06-02T00:00:00	2024-11-08T19:00:00	7	Dirección del viento	14.48
152467	7	Sololá	712	San Antonio Palopó	9	San Antonio Palopo	2	Febrero	2023-06-02T00:00:00	2024-11-08T19:00:00	1	Precipitación	0
152468	7	Sololá	712	San Antonio Palopó	9	San Antonio Palopo	2	Febrero	2023-06-02T00:00:00	2024-11-08T19:00:00	8	Radiación solar	0
152469	7	Sololá	712	San Antonio Palopó	9	San Antonio Palopo	2	Febrero	2023-06-02T00:00:00	2024-11-08T20:00:00	2	Temperatura media	17.3
152470	7	Sololá	712	San Antonio Palopó	9	San Antonio Palopo	2	Febrero	2023-06-02T00:00:00	2024-11-08T20:00:00	4	Temperatura máxima	17.9
152471	7	Sololá	712	San Antonio Palopó	9	San Antonio Palopo	2	Febrero	2023-06-02T00:00:00	2024-11-08T20:00:00	3	Temperatura mínima	17.3
152472	7	Sololá	712	San Antonio Palopó	9	San Antonio Palopo	2	Febrero	2023-06-02T00:00:00	2024-11-08T20:00:00	5	Humedad	66
152473	7	Sololá	712	San Antonio Palopó	9	San Antonio Palopo	2	Febrero	2023-06-02T00:00:00	2024-11-08T20:00:00	6	Velocidad del viento	19.3
152474	7	Sololá	712	San Antonio Palopó	9	San Antonio Palopo	2	Febrero	2023-06-02T00:00:00	2024-11-08T20:00:00	7	Dirección del viento	19.31
152475	7	Sololá	712	San Antonio Palopó	9	San Antonio Palopo	2	Febrero	2023-06-02T00:00:00	2024-11-08T20:00:00	1	Precipitación	0
152476	7	Sololá	712	San Antonio Palopó	9	San Antonio Palopo	2	Febrero	2023-06-02T00:00:00	2024-11-08T20:00:00	8	Radiación solar	0
152477	7	Sololá	712	San Antonio Palopó	9	San Antonio Palopo	2	Febrero	2023-06-02T00:00:00	2024-11-08T21:00:00	2	Temperatura media	16.7
152478	7	Sololá	712	San Antonio Palopó	9	San Antonio Palopo	2	Febrero	2023-06-02T00:00:00	2024-11-08T21:00:00	4	Temperatura máxima	17.3
152479	7	Sololá	712	San Antonio Palopó	9	San Antonio Palopo	2	Febrero	2023-06-02T00:00:00	2024-11-08T21:00:00	3	Temperatura mínima	16.7
152480	7	Sololá	712	San Antonio Palopó	9	San Antonio Palopo	2	Febrero	2023-06-02T00:00:00	2024-11-08T21:00:00	5	Humedad	64
152481	7	Sololá	712	San Antonio Palopó	9	San Antonio Palopo	2	Febrero	2023-06-02T00:00:00	2024-11-08T21:00:00	6	Velocidad del viento	19.3
152482	7	Sololá	712	San Antonio Palopó	9	San Antonio Palopo	2	Febrero	2023-06-02T00:00:00	2024-11-08T21:00:00	7	Dirección del viento	19.31
152483	7	Sololá	712	San Antonio Palopó	9	San Antonio Palopo	2	Febrero	2023-06-02T00:00:00	2024-11-08T21:00:00	1	Precipitación	0
152484	7	Sololá	712	San Antonio Palopó	9	San Antonio Palopo	2	Febrero	2023-06-02T00:00:00	2024-11-08T21:00:00	8	Radiación solar	0
152485	7	Sololá	712	San Antonio Palopó	9	San Antonio Palopo	2	Febrero	2023-06-02T00:00:00	2024-11-08T22:00:00	2	Temperatura media	16.2
152486	7	Sololá	712	San Antonio Palopó	9	San Antonio Palopo	2	Febrero	2023-06-02T00:00:00	2024-11-08T22:00:00	4	Temperatura máxima	16.7
152487	7	Sololá	712	San Antonio Palopó	9	San Antonio Palopo	2	Febrero	2023-06-02T00:00:00	2024-11-08T22:00:00	3	Temperatura mínima	16.2
152488	7	Sololá	712	San Antonio Palopó	9	San Antonio Palopo	2	Febrero	2023-06-02T00:00:00	2024-11-08T22:00:00	5	Humedad	66
152489	7	Sololá	712	San Antonio Palopó	9	San Antonio Palopo	2	Febrero	2023-06-02T00:00:00	2024-11-08T22:00:00	6	Velocidad del viento	19.3
152490	7	Sololá	712	San Antonio Palopó	9	San Antonio Palopo	2	Febrero	2023-06-02T00:00:00	2024-11-08T22:00:00	7	Dirección del viento	19.31
152491	7	Sololá	712	San Antonio Palopó	9	San Antonio Palopo	2	Febrero	2023-06-02T00:00:00	2024-11-08T22:00:00	1	Precipitación	0
152492	7	Sololá	712	San Antonio Palopó	9	San Antonio Palopo	2	Febrero	2023-06-02T00:00:00	2024-11-08T22:00:00	8	Radiación solar	0
152493	7	Sololá	712	San Antonio Palopó	9	San Antonio Palopo	2	Febrero	2023-06-02T00:00:00	2024-11-08T23:00:00	2	Temperatura media	15.8
152494	7	Sololá	712	San Antonio Palopó	9	San Antonio Palopo	2	Febrero	2023-06-02T00:00:00	2024-11-08T23:00:00	4	Temperatura máxima	16.2
152495	7	Sololá	712	San Antonio Palopó	9	San Antonio Palopo	2	Febrero	2023-06-02T00:00:00	2024-11-08T23:00:00	3	Temperatura mínima	15.7
152496	7	Sololá	712	San Antonio Palopó	9	San Antonio Palopo	2	Febrero	2023-06-02T00:00:00	2024-11-08T23:00:00	5	Humedad	65
152497	7	Sololá	712	San Antonio Palopó	9	San Antonio Palopo	2	Febrero	2023-06-02T00:00:00	2024-11-08T23:00:00	6	Velocidad del viento	19.3
152498	7	Sololá	712	San Antonio Palopó	9	San Antonio Palopo	2	Febrero	2023-06-02T00:00:00	2024-11-08T23:00:00	7	Dirección del viento	19.31
152499	7	Sololá	712	San Antonio Palopó	9	San Antonio Palopo	2	Febrero	2023-06-02T00:00:00	2024-11-08T23:00:00	1	Precipitación	0
152500	7	Sololá	712	San Antonio Palopó	9	San Antonio Palopo	2	Febrero	2023-06-02T00:00:00	2024-11-08T23:00:00	8	Radiación solar	0
152501	7	Sololá	712	San Antonio Palopó	9	San Antonio Palopo	2	Febrero	2023-07-02T00:00:00	2024-11-08T00:00:00	2	Temperatura media	15.3
152502	7	Sololá	712	San Antonio Palopó	9	San Antonio Palopo	2	Febrero	2023-07-02T00:00:00	2024-11-08T00:00:00	4	Temperatura máxima	15.8
152503	7	Sololá	712	San Antonio Palopó	9	San Antonio Palopo	2	Febrero	2023-07-02T00:00:00	2024-11-08T00:00:00	3	Temperatura mínima	15.3
152504	7	Sololá	712	San Antonio Palopó	9	San Antonio Palopo	2	Febrero	2023-07-02T00:00:00	2024-11-08T00:00:00	5	Humedad	68
152505	7	Sololá	712	San Antonio Palopó	9	San Antonio Palopo	2	Febrero	2023-07-02T00:00:00	2024-11-08T00:00:00	6	Velocidad del viento	19.3
152506	7	Sololá	712	San Antonio Palopó	9	San Antonio Palopo	2	Febrero	2023-07-02T00:00:00	2024-11-08T00:00:00	7	Dirección del viento	19.31
152507	7	Sololá	712	San Antonio Palopó	9	San Antonio Palopo	2	Febrero	2023-07-02T00:00:00	2024-11-08T00:00:00	1	Precipitación	0
152508	7	Sololá	712	San Antonio Palopó	9	San Antonio Palopo	2	Febrero	2023-07-02T00:00:00	2024-11-08T00:00:00	8	Radiación solar	0
152509	7	Sololá	712	San Antonio Palopó	9	San Antonio Palopo	2	Febrero	2023-07-02T00:00:00	2024-11-08T01:00:00	2	Temperatura media	14.8
152510	7	Sololá	712	San Antonio Palopó	9	San Antonio Palopo	2	Febrero	2023-07-02T00:00:00	2024-11-08T01:00:00	4	Temperatura máxima	15.3
152511	7	Sololá	712	San Antonio Palopó	9	San Antonio Palopo	2	Febrero	2023-07-02T00:00:00	2024-11-08T01:00:00	3	Temperatura mínima	14.7
152512	7	Sololá	712	San Antonio Palopó	9	San Antonio Palopo	2	Febrero	2023-07-02T00:00:00	2024-11-08T01:00:00	5	Humedad	69
152513	7	Sololá	712	San Antonio Palopó	9	San Antonio Palopo	2	Febrero	2023-07-02T00:00:00	2024-11-08T01:00:00	6	Velocidad del viento	19.3
152514	7	Sololá	712	San Antonio Palopó	9	San Antonio Palopo	2	Febrero	2023-07-02T00:00:00	2024-11-08T01:00:00	7	Dirección del viento	19.31
152515	7	Sololá	712	San Antonio Palopó	9	San Antonio Palopo	2	Febrero	2023-07-02T00:00:00	2024-11-08T01:00:00	1	Precipitación	0
152516	7	Sololá	712	San Antonio Palopó	9	San Antonio Palopo	2	Febrero	2023-07-02T00:00:00	2024-11-08T01:00:00	8	Radiación solar	0
152517	7	Sololá	712	San Antonio Palopó	9	San Antonio Palopo	2	Febrero	2023-07-02T00:00:00	2024-11-08T02:00:00	2	Temperatura media	14.6
152518	7	Sololá	712	San Antonio Palopó	9	San Antonio Palopo	2	Febrero	2023-07-02T00:00:00	2024-11-08T02:00:00	4	Temperatura máxima	14.9
152519	7	Sololá	712	San Antonio Palopó	9	San Antonio Palopo	2	Febrero	2023-07-02T00:00:00	2024-11-08T02:00:00	3	Temperatura mínima	14.6
152520	7	Sololá	712	San Antonio Palopó	9	San Antonio Palopo	2	Febrero	2023-07-02T00:00:00	2024-11-08T02:00:00	5	Humedad	68
152521	7	Sololá	712	San Antonio Palopó	9	San Antonio Palopo	2	Febrero	2023-07-02T00:00:00	2024-11-08T02:00:00	6	Velocidad del viento	17.7
152522	7	Sololá	712	San Antonio Palopó	9	San Antonio Palopo	2	Febrero	2023-07-02T00:00:00	2024-11-08T02:00:00	7	Dirección del viento	17.7
152523	7	Sololá	712	San Antonio Palopó	9	San Antonio Palopo	2	Febrero	2023-07-02T00:00:00	2024-11-08T02:00:00	1	Precipitación	0
152524	7	Sololá	712	San Antonio Palopó	9	San Antonio Palopo	2	Febrero	2023-07-02T00:00:00	2024-11-08T02:00:00	8	Radiación solar	0
152525	7	Sololá	712	San Antonio Palopó	9	San Antonio Palopo	2	Febrero	2023-07-02T00:00:00	2024-11-08T03:00:00	2	Temperatura media	14.3
152526	7	Sololá	712	San Antonio Palopó	9	San Antonio Palopo	2	Febrero	2023-07-02T00:00:00	2024-11-08T03:00:00	4	Temperatura máxima	14.7
152527	7	Sololá	712	San Antonio Palopó	9	San Antonio Palopo	2	Febrero	2023-07-02T00:00:00	2024-11-08T03:00:00	3	Temperatura mínima	14.3
152528	7	Sololá	712	San Antonio Palopó	9	San Antonio Palopo	2	Febrero	2023-07-02T00:00:00	2024-11-08T03:00:00	5	Humedad	69
152529	7	Sololá	712	San Antonio Palopó	9	San Antonio Palopo	2	Febrero	2023-07-02T00:00:00	2024-11-08T03:00:00	6	Velocidad del viento	19.3
152530	7	Sololá	712	San Antonio Palopó	9	San Antonio Palopo	2	Febrero	2023-07-02T00:00:00	2024-11-08T03:00:00	7	Dirección del viento	19.31
152531	7	Sololá	712	San Antonio Palopó	9	San Antonio Palopo	2	Febrero	2023-07-02T00:00:00	2024-11-08T03:00:00	1	Precipitación	0
152532	7	Sololá	712	San Antonio Palopó	9	San Antonio Palopo	2	Febrero	2023-07-02T00:00:00	2024-11-08T03:00:00	8	Radiación solar	0
152533	7	Sololá	712	San Antonio Palopó	9	San Antonio Palopo	2	Febrero	2023-07-02T00:00:00	2024-11-08T04:00:00	2	Temperatura media	14.3
152534	7	Sololá	712	San Antonio Palopó	9	San Antonio Palopo	2	Febrero	2023-07-02T00:00:00	2024-11-08T04:00:00	4	Temperatura máxima	14.3
152535	7	Sololá	712	San Antonio Palopó	9	San Antonio Palopo	2	Febrero	2023-07-02T00:00:00	2024-11-08T04:00:00	3	Temperatura mínima	14.1
152536	7	Sololá	712	San Antonio Palopó	9	San Antonio Palopo	2	Febrero	2023-07-02T00:00:00	2024-11-08T04:00:00	5	Humedad	67
152537	7	Sololá	712	San Antonio Palopó	9	San Antonio Palopo	2	Febrero	2023-07-02T00:00:00	2024-11-08T04:00:00	6	Velocidad del viento	19.3
152538	7	Sololá	712	San Antonio Palopó	9	San Antonio Palopo	2	Febrero	2023-07-02T00:00:00	2024-11-08T04:00:00	7	Dirección del viento	19.31
152539	7	Sololá	712	San Antonio Palopó	9	San Antonio Palopo	2	Febrero	2023-07-02T00:00:00	2024-11-08T04:00:00	1	Precipitación	0
152540	7	Sololá	712	San Antonio Palopó	9	San Antonio Palopo	2	Febrero	2023-07-02T00:00:00	2024-11-08T04:00:00	8	Radiación solar	0
152541	7	Sololá	712	San Antonio Palopó	9	San Antonio Palopo	2	Febrero	2023-07-02T00:00:00	2024-11-08T05:00:00	2	Temperatura media	14
152542	7	Sololá	712	San Antonio Palopó	9	San Antonio Palopo	2	Febrero	2023-07-02T00:00:00	2024-11-08T05:00:00	4	Temperatura máxima	14.3
152543	7	Sololá	712	San Antonio Palopó	9	San Antonio Palopo	2	Febrero	2023-07-02T00:00:00	2024-11-08T05:00:00	3	Temperatura mínima	13.9
152544	7	Sololá	712	San Antonio Palopó	9	San Antonio Palopo	2	Febrero	2023-07-02T00:00:00	2024-11-08T05:00:00	5	Humedad	65
152545	7	Sololá	712	San Antonio Palopó	9	San Antonio Palopo	2	Febrero	2023-07-02T00:00:00	2024-11-08T05:00:00	6	Velocidad del viento	17.7
152546	7	Sololá	712	San Antonio Palopó	9	San Antonio Palopo	2	Febrero	2023-07-02T00:00:00	2024-11-08T05:00:00	7	Dirección del viento	17.7
152547	7	Sololá	712	San Antonio Palopó	9	San Antonio Palopo	2	Febrero	2023-07-02T00:00:00	2024-11-08T05:00:00	1	Precipitación	0
152548	7	Sololá	712	San Antonio Palopó	9	San Antonio Palopo	2	Febrero	2023-07-02T00:00:00	2024-11-08T05:00:00	8	Radiación solar	0
152549	7	Sololá	712	San Antonio Palopó	9	San Antonio Palopo	2	Febrero	2023-07-02T00:00:00	2024-11-08T06:00:00	2	Temperatura media	13.8
152550	7	Sololá	712	San Antonio Palopó	9	San Antonio Palopo	2	Febrero	2023-07-02T00:00:00	2024-11-08T06:00:00	4	Temperatura máxima	14
152551	7	Sololá	712	San Antonio Palopó	9	San Antonio Palopo	2	Febrero	2023-07-02T00:00:00	2024-11-08T06:00:00	3	Temperatura mínima	13.7
152552	7	Sololá	712	San Antonio Palopó	9	San Antonio Palopo	2	Febrero	2023-07-02T00:00:00	2024-11-08T06:00:00	5	Humedad	65
152553	7	Sololá	712	San Antonio Palopó	9	San Antonio Palopo	2	Febrero	2023-07-02T00:00:00	2024-11-08T06:00:00	6	Velocidad del viento	17.7
152554	7	Sololá	712	San Antonio Palopó	9	San Antonio Palopo	2	Febrero	2023-07-02T00:00:00	2024-11-08T06:00:00	7	Dirección del viento	17.7
152555	7	Sololá	712	San Antonio Palopó	9	San Antonio Palopo	2	Febrero	2023-07-02T00:00:00	2024-11-08T06:00:00	1	Precipitación	0
152556	7	Sololá	712	San Antonio Palopó	9	San Antonio Palopo	2	Febrero	2023-07-02T00:00:00	2024-11-08T06:00:00	8	Radiación solar	0
152557	7	Sololá	712	San Antonio Palopó	9	San Antonio Palopo	2	Febrero	2023-07-02T00:00:00	2024-11-08T07:00:00	2	Temperatura media	14.8
152558	7	Sololá	712	San Antonio Palopó	9	San Antonio Palopo	2	Febrero	2023-07-02T00:00:00	2024-11-08T07:00:00	4	Temperatura máxima	15.1
152559	7	Sololá	712	San Antonio Palopó	9	San Antonio Palopo	2	Febrero	2023-07-02T00:00:00	2024-11-08T07:00:00	3	Temperatura mínima	13.8
152560	7	Sololá	712	San Antonio Palopó	9	San Antonio Palopo	2	Febrero	2023-07-02T00:00:00	2024-11-08T07:00:00	5	Humedad	62
152561	7	Sololá	712	San Antonio Palopó	9	San Antonio Palopo	2	Febrero	2023-07-02T00:00:00	2024-11-08T07:00:00	6	Velocidad del viento	17.7
152562	7	Sololá	712	San Antonio Palopó	9	San Antonio Palopo	2	Febrero	2023-07-02T00:00:00	2024-11-08T07:00:00	7	Dirección del viento	17.7
152563	7	Sololá	712	San Antonio Palopó	9	San Antonio Palopo	2	Febrero	2023-07-02T00:00:00	2024-11-08T07:00:00	1	Precipitación	0
152564	7	Sololá	712	San Antonio Palopó	9	San Antonio Palopo	2	Febrero	2023-07-02T00:00:00	2024-11-08T07:00:00	8	Radiación solar	3
152565	7	Sololá	712	San Antonio Palopó	9	San Antonio Palopo	2	Febrero	2023-07-02T00:00:00	2024-11-08T08:00:00	2	Temperatura media	16.1
152566	7	Sololá	712	San Antonio Palopó	9	San Antonio Palopo	2	Febrero	2023-07-02T00:00:00	2024-11-08T08:00:00	4	Temperatura máxima	16.1
152567	7	Sololá	712	San Antonio Palopó	9	San Antonio Palopo	2	Febrero	2023-07-02T00:00:00	2024-11-08T08:00:00	3	Temperatura mínima	14.7
152568	7	Sololá	712	San Antonio Palopó	9	San Antonio Palopo	2	Febrero	2023-07-02T00:00:00	2024-11-08T08:00:00	5	Humedad	60
152569	7	Sololá	712	San Antonio Palopó	9	San Antonio Palopo	2	Febrero	2023-07-02T00:00:00	2024-11-08T08:00:00	6	Velocidad del viento	16.1
152570	7	Sololá	712	San Antonio Palopó	9	San Antonio Palopo	2	Febrero	2023-07-02T00:00:00	2024-11-08T08:00:00	7	Dirección del viento	16.09
152571	7	Sololá	712	San Antonio Palopó	9	San Antonio Palopo	2	Febrero	2023-07-02T00:00:00	2024-11-08T08:00:00	1	Precipitación	0
152572	7	Sololá	712	San Antonio Palopó	9	San Antonio Palopo	2	Febrero	2023-07-02T00:00:00	2024-11-08T08:00:00	8	Radiación solar	15
152573	7	Sololá	712	San Antonio Palopó	9	San Antonio Palopo	2	Febrero	2023-07-02T00:00:00	2024-11-08T09:00:00	2	Temperatura media	18.8
152574	7	Sololá	712	San Antonio Palopó	9	San Antonio Palopo	2	Febrero	2023-07-02T00:00:00	2024-11-08T09:00:00	4	Temperatura máxima	18.8
152575	7	Sololá	712	San Antonio Palopó	9	San Antonio Palopo	2	Febrero	2023-07-02T00:00:00	2024-11-08T09:00:00	3	Temperatura mínima	16.1
152576	7	Sololá	712	San Antonio Palopó	9	San Antonio Palopo	2	Febrero	2023-07-02T00:00:00	2024-11-08T09:00:00	5	Humedad	54
152577	7	Sololá	712	San Antonio Palopó	9	San Antonio Palopo	2	Febrero	2023-07-02T00:00:00	2024-11-08T09:00:00	6	Velocidad del viento	12.9
152578	7	Sololá	712	San Antonio Palopó	9	San Antonio Palopo	2	Febrero	2023-07-02T00:00:00	2024-11-08T09:00:00	7	Dirección del viento	12.87
152579	7	Sololá	712	San Antonio Palopó	9	San Antonio Palopo	2	Febrero	2023-07-02T00:00:00	2024-11-08T09:00:00	1	Precipitación	0
152580	7	Sololá	712	San Antonio Palopó	9	San Antonio Palopo	2	Febrero	2023-07-02T00:00:00	2024-11-08T09:00:00	8	Radiación solar	224
152581	7	Sololá	712	San Antonio Palopó	9	San Antonio Palopo	2	Febrero	2023-07-02T00:00:00	2024-11-08T10:00:00	2	Temperatura media	17.8
152582	7	Sololá	712	San Antonio Palopó	9	San Antonio Palopo	2	Febrero	2023-07-02T00:00:00	2024-11-08T10:00:00	4	Temperatura máxima	19.3
152583	7	Sololá	712	San Antonio Palopó	9	San Antonio Palopo	2	Febrero	2023-07-02T00:00:00	2024-11-08T10:00:00	3	Temperatura mínima	17.7
152584	7	Sololá	712	San Antonio Palopó	9	San Antonio Palopo	2	Febrero	2023-07-02T00:00:00	2024-11-08T10:00:00	5	Humedad	65
152585	7	Sololá	712	San Antonio Palopó	9	San Antonio Palopo	2	Febrero	2023-07-02T00:00:00	2024-11-08T10:00:00	6	Velocidad del viento	12.9
152586	7	Sololá	712	San Antonio Palopó	9	San Antonio Palopo	2	Febrero	2023-07-02T00:00:00	2024-11-08T10:00:00	7	Dirección del viento	12.87
152587	7	Sololá	712	San Antonio Palopó	9	San Antonio Palopo	2	Febrero	2023-07-02T00:00:00	2024-11-08T10:00:00	1	Precipitación	0
152588	7	Sololá	712	San Antonio Palopó	9	San Antonio Palopo	2	Febrero	2023-07-02T00:00:00	2024-11-08T10:00:00	8	Radiación solar	574
152589	7	Sololá	712	San Antonio Palopó	9	San Antonio Palopo	2	Febrero	2023-07-02T00:00:00	2024-11-08T11:00:00	2	Temperatura media	19.4
152590	7	Sololá	712	San Antonio Palopó	9	San Antonio Palopo	2	Febrero	2023-07-02T00:00:00	2024-11-08T11:00:00	4	Temperatura máxima	20.1
152591	7	Sololá	712	San Antonio Palopó	9	San Antonio Palopo	2	Febrero	2023-07-02T00:00:00	2024-11-08T11:00:00	3	Temperatura mínima	17.8
152592	7	Sololá	712	San Antonio Palopó	9	San Antonio Palopo	2	Febrero	2023-07-02T00:00:00	2024-11-08T11:00:00	5	Humedad	60
152593	7	Sololá	712	San Antonio Palopó	9	San Antonio Palopo	2	Febrero	2023-07-02T00:00:00	2024-11-08T11:00:00	6	Velocidad del viento	4.8
152594	7	Sololá	712	San Antonio Palopó	9	San Antonio Palopo	2	Febrero	2023-07-02T00:00:00	2024-11-08T11:00:00	7	Dirección del viento	4.83
152595	7	Sololá	712	San Antonio Palopó	9	San Antonio Palopo	2	Febrero	2023-07-02T00:00:00	2024-11-08T11:00:00	1	Precipitación	0
152596	7	Sololá	712	San Antonio Palopó	9	San Antonio Palopo	2	Febrero	2023-07-02T00:00:00	2024-11-08T11:00:00	8	Radiación solar	722
152597	7	Sololá	712	San Antonio Palopó	9	San Antonio Palopo	2	Febrero	2023-07-02T00:00:00	2024-11-08T12:00:00	2	Temperatura media	22.2
152598	7	Sololá	712	San Antonio Palopó	9	San Antonio Palopo	2	Febrero	2023-07-02T00:00:00	2024-11-08T12:00:00	4	Temperatura máxima	22.2
152599	7	Sololá	712	San Antonio Palopó	9	San Antonio Palopo	2	Febrero	2023-07-02T00:00:00	2024-11-08T12:00:00	3	Temperatura mínima	19.3
152600	7	Sololá	712	San Antonio Palopó	9	San Antonio Palopo	2	Febrero	2023-07-02T00:00:00	2024-11-08T12:00:00	5	Humedad	54
152601	7	Sololá	712	San Antonio Palopó	9	San Antonio Palopo	2	Febrero	2023-07-02T00:00:00	2024-11-08T12:00:00	6	Velocidad del viento	3.2
152602	7	Sololá	712	San Antonio Palopó	9	San Antonio Palopo	2	Febrero	2023-07-02T00:00:00	2024-11-08T12:00:00	7	Dirección del viento	3.22
152603	7	Sololá	712	San Antonio Palopó	9	San Antonio Palopo	2	Febrero	2023-07-02T00:00:00	2024-11-08T12:00:00	1	Precipitación	0
152604	7	Sololá	712	San Antonio Palopó	9	San Antonio Palopo	2	Febrero	2023-07-02T00:00:00	2024-11-08T12:00:00	8	Radiación solar	725
152605	7	Sololá	712	San Antonio Palopó	9	San Antonio Palopo	2	Febrero	2023-07-02T00:00:00	2024-11-08T13:00:00	2	Temperatura media	22.2
152606	7	Sololá	712	San Antonio Palopó	9	San Antonio Palopo	2	Febrero	2023-07-02T00:00:00	2024-11-08T13:00:00	4	Temperatura máxima	22.2
152607	7	Sololá	712	San Antonio Palopó	9	San Antonio Palopo	2	Febrero	2023-07-02T00:00:00	2024-11-08T13:00:00	3	Temperatura mínima	21
152608	7	Sololá	712	San Antonio Palopó	9	San Antonio Palopo	2	Febrero	2023-07-02T00:00:00	2024-11-08T13:00:00	5	Humedad	52
152609	7	Sololá	712	San Antonio Palopó	9	San Antonio Palopo	2	Febrero	2023-07-02T00:00:00	2024-11-08T13:00:00	6	Velocidad del viento	4.8
152610	7	Sololá	712	San Antonio Palopó	9	San Antonio Palopo	2	Febrero	2023-07-02T00:00:00	2024-11-08T13:00:00	7	Dirección del viento	4.83
152611	7	Sololá	712	San Antonio Palopó	9	San Antonio Palopo	2	Febrero	2023-07-02T00:00:00	2024-11-08T13:00:00	1	Precipitación	0
152612	7	Sololá	712	San Antonio Palopó	9	San Antonio Palopo	2	Febrero	2023-07-02T00:00:00	2024-11-08T13:00:00	8	Radiación solar	813
152613	7	Sololá	712	San Antonio Palopó	9	San Antonio Palopo	2	Febrero	2023-07-02T00:00:00	2024-11-08T14:00:00	2	Temperatura media	22.9
152614	7	Sololá	712	San Antonio Palopó	9	San Antonio Palopo	2	Febrero	2023-07-02T00:00:00	2024-11-08T14:00:00	4	Temperatura máxima	23.6
152615	7	Sololá	712	San Antonio Palopó	9	San Antonio Palopo	2	Febrero	2023-07-02T00:00:00	2024-11-08T14:00:00	3	Temperatura mínima	22
152616	7	Sololá	712	San Antonio Palopó	9	San Antonio Palopo	2	Febrero	2023-07-02T00:00:00	2024-11-08T14:00:00	5	Humedad	53
152617	7	Sololá	712	San Antonio Palopó	9	San Antonio Palopo	2	Febrero	2023-07-02T00:00:00	2024-11-08T14:00:00	6	Velocidad del viento	9.7
152618	7	Sololá	712	San Antonio Palopó	9	San Antonio Palopo	2	Febrero	2023-07-02T00:00:00	2024-11-08T14:00:00	7	Dirección del viento	9.66
152619	7	Sololá	712	San Antonio Palopó	9	San Antonio Palopo	2	Febrero	2023-07-02T00:00:00	2024-11-08T14:00:00	1	Precipitación	0
152620	7	Sololá	712	San Antonio Palopó	9	San Antonio Palopo	2	Febrero	2023-07-02T00:00:00	2024-11-08T14:00:00	8	Radiación solar	763
152621	7	Sololá	712	San Antonio Palopó	9	San Antonio Palopo	2	Febrero	2023-07-02T00:00:00	2024-11-08T15:00:00	2	Temperatura media	22.7
152622	7	Sololá	712	San Antonio Palopó	9	San Antonio Palopo	2	Febrero	2023-07-02T00:00:00	2024-11-08T15:00:00	4	Temperatura máxima	23.2
152623	7	Sololá	712	San Antonio Palopó	9	San Antonio Palopo	2	Febrero	2023-07-02T00:00:00	2024-11-08T15:00:00	3	Temperatura mínima	22.6
152624	7	Sololá	712	San Antonio Palopó	9	San Antonio Palopo	2	Febrero	2023-07-02T00:00:00	2024-11-08T15:00:00	5	Humedad	55
152625	7	Sololá	712	San Antonio Palopó	9	San Antonio Palopo	2	Febrero	2023-07-02T00:00:00	2024-11-08T15:00:00	6	Velocidad del viento	14.5
152626	7	Sololá	712	San Antonio Palopó	9	San Antonio Palopo	2	Febrero	2023-07-02T00:00:00	2024-11-08T15:00:00	7	Dirección del viento	14.48
152627	7	Sololá	712	San Antonio Palopó	9	San Antonio Palopo	2	Febrero	2023-07-02T00:00:00	2024-11-08T15:00:00	1	Precipitación	0
152628	7	Sololá	712	San Antonio Palopó	9	San Antonio Palopo	2	Febrero	2023-07-02T00:00:00	2024-11-08T15:00:00	8	Radiación solar	641
152629	7	Sololá	712	San Antonio Palopó	9	San Antonio Palopo	2	Febrero	2023-07-02T00:00:00	2024-11-08T16:00:00	2	Temperatura media	22.4
152630	7	Sololá	712	San Antonio Palopó	9	San Antonio Palopo	2	Febrero	2023-07-02T00:00:00	2024-11-08T16:00:00	4	Temperatura máxima	23
152631	7	Sololá	712	San Antonio Palopó	9	San Antonio Palopo	2	Febrero	2023-07-02T00:00:00	2024-11-08T16:00:00	3	Temperatura mínima	22.4
152632	7	Sololá	712	San Antonio Palopó	9	San Antonio Palopo	2	Febrero	2023-07-02T00:00:00	2024-11-08T16:00:00	5	Humedad	58
152633	7	Sololá	712	San Antonio Palopó	9	San Antonio Palopo	2	Febrero	2023-07-02T00:00:00	2024-11-08T16:00:00	6	Velocidad del viento	12.9
152634	7	Sololá	712	San Antonio Palopó	9	San Antonio Palopo	2	Febrero	2023-07-02T00:00:00	2024-11-08T16:00:00	7	Dirección del viento	12.87
152635	7	Sololá	712	San Antonio Palopó	9	San Antonio Palopo	2	Febrero	2023-07-02T00:00:00	2024-11-08T16:00:00	1	Precipitación	0
152636	7	Sololá	712	San Antonio Palopó	9	San Antonio Palopo	2	Febrero	2023-07-02T00:00:00	2024-11-08T16:00:00	8	Radiación solar	466
152637	7	Sololá	712	San Antonio Palopó	9	San Antonio Palopo	2	Febrero	2023-07-02T00:00:00	2024-11-08T17:00:00	2	Temperatura media	22.2
152638	7	Sololá	712	San Antonio Palopó	9	San Antonio Palopo	2	Febrero	2023-07-02T00:00:00	2024-11-08T17:00:00	4	Temperatura máxima	22.6
152639	7	Sololá	712	San Antonio Palopó	9	San Antonio Palopo	2	Febrero	2023-07-02T00:00:00	2024-11-08T17:00:00	3	Temperatura mínima	22
152640	7	Sololá	712	San Antonio Palopó	9	San Antonio Palopo	2	Febrero	2023-07-02T00:00:00	2024-11-08T17:00:00	5	Humedad	65
152641	7	Sololá	712	San Antonio Palopó	9	San Antonio Palopo	2	Febrero	2023-07-02T00:00:00	2024-11-08T17:00:00	6	Velocidad del viento	9.7
152642	7	Sololá	712	San Antonio Palopó	9	San Antonio Palopo	2	Febrero	2023-07-02T00:00:00	2024-11-08T17:00:00	7	Dirección del viento	9.66
152643	7	Sololá	712	San Antonio Palopó	9	San Antonio Palopo	2	Febrero	2023-07-02T00:00:00	2024-11-08T17:00:00	1	Precipitación	0
152644	7	Sololá	712	San Antonio Palopó	9	San Antonio Palopo	2	Febrero	2023-07-02T00:00:00	2024-11-08T17:00:00	8	Radiación solar	260
152645	7	Sololá	712	San Antonio Palopó	9	San Antonio Palopo	2	Febrero	2023-07-02T00:00:00	2024-11-08T18:00:00	2	Temperatura media	20.2
152646	7	Sololá	712	San Antonio Palopó	9	San Antonio Palopo	2	Febrero	2023-07-02T00:00:00	2024-11-08T18:00:00	4	Temperatura máxima	22.2
152647	7	Sololá	712	San Antonio Palopó	9	San Antonio Palopo	2	Febrero	2023-07-02T00:00:00	2024-11-08T18:00:00	3	Temperatura mínima	20.2
152648	7	Sololá	712	San Antonio Palopó	9	San Antonio Palopo	2	Febrero	2023-07-02T00:00:00	2024-11-08T18:00:00	5	Humedad	75
152649	7	Sololá	712	San Antonio Palopó	9	San Antonio Palopo	2	Febrero	2023-07-02T00:00:00	2024-11-08T18:00:00	6	Velocidad del viento	8
152650	7	Sololá	712	San Antonio Palopó	9	San Antonio Palopo	2	Febrero	2023-07-02T00:00:00	2024-11-08T18:00:00	7	Dirección del viento	8.05
152651	7	Sololá	712	San Antonio Palopó	9	San Antonio Palopo	2	Febrero	2023-07-02T00:00:00	2024-11-08T18:00:00	1	Precipitación	0
152652	7	Sololá	712	San Antonio Palopó	9	San Antonio Palopo	2	Febrero	2023-07-02T00:00:00	2024-11-08T18:00:00	8	Radiación solar	64
152653	7	Sololá	712	San Antonio Palopó	9	San Antonio Palopo	2	Febrero	2023-07-02T00:00:00	2024-11-08T19:00:00	2	Temperatura media	19.3
152654	7	Sololá	712	San Antonio Palopó	9	San Antonio Palopo	2	Febrero	2023-07-02T00:00:00	2024-11-08T19:00:00	4	Temperatura máxima	20.2
152655	7	Sololá	712	San Antonio Palopó	9	San Antonio Palopo	2	Febrero	2023-07-02T00:00:00	2024-11-08T19:00:00	3	Temperatura mínima	19.2
152656	7	Sololá	712	San Antonio Palopó	9	San Antonio Palopo	2	Febrero	2023-07-02T00:00:00	2024-11-08T19:00:00	5	Humedad	76
152657	7	Sololá	712	San Antonio Palopó	9	San Antonio Palopo	2	Febrero	2023-07-02T00:00:00	2024-11-08T19:00:00	6	Velocidad del viento	3.2
152658	7	Sololá	712	San Antonio Palopó	9	San Antonio Palopo	2	Febrero	2023-07-02T00:00:00	2024-11-08T19:00:00	7	Dirección del viento	3.22
152659	7	Sololá	712	San Antonio Palopó	9	San Antonio Palopo	2	Febrero	2023-07-02T00:00:00	2024-11-08T19:00:00	1	Precipitación	0
152660	7	Sololá	712	San Antonio Palopó	9	San Antonio Palopo	2	Febrero	2023-07-02T00:00:00	2024-11-08T19:00:00	8	Radiación solar	0
152661	7	Sololá	712	San Antonio Palopó	9	San Antonio Palopo	2	Febrero	2023-07-02T00:00:00	2024-11-08T20:00:00	2	Temperatura media	18.8
152662	7	Sololá	712	San Antonio Palopó	9	San Antonio Palopo	2	Febrero	2023-07-02T00:00:00	2024-11-08T20:00:00	4	Temperatura máxima	19.3
152663	7	Sololá	712	San Antonio Palopó	9	San Antonio Palopo	2	Febrero	2023-07-02T00:00:00	2024-11-08T20:00:00	3	Temperatura mínima	18.8
152664	7	Sololá	712	San Antonio Palopó	9	San Antonio Palopo	2	Febrero	2023-07-02T00:00:00	2024-11-08T20:00:00	5	Humedad	76
152665	7	Sololá	712	San Antonio Palopó	9	San Antonio Palopo	2	Febrero	2023-07-02T00:00:00	2024-11-08T20:00:00	6	Velocidad del viento	1.6
152666	7	Sololá	712	San Antonio Palopó	9	San Antonio Palopo	2	Febrero	2023-07-02T00:00:00	2024-11-08T20:00:00	7	Dirección del viento	1.61
152667	7	Sololá	712	San Antonio Palopó	9	San Antonio Palopo	2	Febrero	2023-07-02T00:00:00	2024-11-08T20:00:00	1	Precipitación	0
152668	7	Sololá	712	San Antonio Palopó	9	San Antonio Palopo	2	Febrero	2023-07-02T00:00:00	2024-11-08T20:00:00	8	Radiación solar	0
152669	7	Sololá	712	San Antonio Palopó	9	San Antonio Palopo	2	Febrero	2023-07-02T00:00:00	2024-11-08T21:00:00	2	Temperatura media	18.9
152670	7	Sololá	712	San Antonio Palopó	9	San Antonio Palopo	2	Febrero	2023-07-02T00:00:00	2024-11-08T21:00:00	4	Temperatura máxima	19
152671	7	Sololá	712	San Antonio Palopó	9	San Antonio Palopo	2	Febrero	2023-07-02T00:00:00	2024-11-08T21:00:00	3	Temperatura mínima	18.4
152672	7	Sololá	712	San Antonio Palopó	9	San Antonio Palopo	2	Febrero	2023-07-02T00:00:00	2024-11-08T21:00:00	5	Humedad	69
152673	7	Sololá	712	San Antonio Palopó	9	San Antonio Palopo	2	Febrero	2023-07-02T00:00:00	2024-11-08T21:00:00	6	Velocidad del viento	8
152674	7	Sololá	712	San Antonio Palopó	9	San Antonio Palopo	2	Febrero	2023-07-02T00:00:00	2024-11-08T21:00:00	7	Dirección del viento	8.05
152675	7	Sololá	712	San Antonio Palopó	9	San Antonio Palopo	2	Febrero	2023-07-02T00:00:00	2024-11-08T21:00:00	1	Precipitación	0
152676	7	Sololá	712	San Antonio Palopó	9	San Antonio Palopo	2	Febrero	2023-07-02T00:00:00	2024-11-08T21:00:00	8	Radiación solar	0
152677	7	Sololá	712	San Antonio Palopó	9	San Antonio Palopo	2	Febrero	2023-07-02T00:00:00	2024-11-08T22:00:00	2	Temperatura media	18.6
152678	7	Sololá	712	San Antonio Palopó	9	San Antonio Palopo	2	Febrero	2023-07-02T00:00:00	2024-11-08T22:00:00	4	Temperatura máxima	18.9
152679	7	Sololá	712	San Antonio Palopó	9	San Antonio Palopo	2	Febrero	2023-07-02T00:00:00	2024-11-08T22:00:00	3	Temperatura mínima	18.6
152680	7	Sololá	712	San Antonio Palopó	9	San Antonio Palopo	2	Febrero	2023-07-02T00:00:00	2024-11-08T22:00:00	5	Humedad	68
152681	7	Sololá	712	San Antonio Palopó	9	San Antonio Palopo	2	Febrero	2023-07-02T00:00:00	2024-11-08T22:00:00	6	Velocidad del viento	16.1
152682	7	Sololá	712	San Antonio Palopó	9	San Antonio Palopo	2	Febrero	2023-07-02T00:00:00	2024-11-08T22:00:00	7	Dirección del viento	16.09
152683	7	Sololá	712	San Antonio Palopó	9	San Antonio Palopo	2	Febrero	2023-07-02T00:00:00	2024-11-08T22:00:00	1	Precipitación	0
152684	7	Sololá	712	San Antonio Palopó	9	San Antonio Palopo	2	Febrero	2023-07-02T00:00:00	2024-11-08T22:00:00	8	Radiación solar	0
152685	7	Sololá	712	San Antonio Palopó	9	San Antonio Palopo	2	Febrero	2023-07-02T00:00:00	2024-11-08T23:00:00	2	Temperatura media	17.7
152686	7	Sololá	712	San Antonio Palopó	9	San Antonio Palopo	2	Febrero	2023-07-02T00:00:00	2024-11-08T23:00:00	4	Temperatura máxima	18.6
152687	7	Sololá	712	San Antonio Palopó	9	San Antonio Palopo	2	Febrero	2023-07-02T00:00:00	2024-11-08T23:00:00	3	Temperatura mínima	17.6
152688	7	Sololá	712	San Antonio Palopó	9	San Antonio Palopo	2	Febrero	2023-07-02T00:00:00	2024-11-08T23:00:00	5	Humedad	72
152689	7	Sololá	712	San Antonio Palopó	9	San Antonio Palopo	2	Febrero	2023-07-02T00:00:00	2024-11-08T23:00:00	6	Velocidad del viento	19.3
152690	7	Sololá	712	San Antonio Palopó	9	San Antonio Palopo	2	Febrero	2023-07-02T00:00:00	2024-11-08T23:00:00	7	Dirección del viento	19.31
152691	7	Sololá	712	San Antonio Palopó	9	San Antonio Palopo	2	Febrero	2023-07-02T00:00:00	2024-11-08T23:00:00	1	Precipitación	0
152692	7	Sololá	712	San Antonio Palopó	9	San Antonio Palopo	2	Febrero	2023-07-02T00:00:00	2024-11-08T23:00:00	8	Radiación solar	0
152693	7	Sololá	712	San Antonio Palopó	9	San Antonio Palopo	2	Febrero	2023-08-02T00:00:00	2024-11-08T00:00:00	2	Temperatura media	17.6
152694	7	Sololá	712	San Antonio Palopó	9	San Antonio Palopo	2	Febrero	2023-08-02T00:00:00	2024-11-08T00:00:00	4	Temperatura máxima	17.9
152695	7	Sololá	712	San Antonio Palopó	9	San Antonio Palopo	2	Febrero	2023-08-02T00:00:00	2024-11-08T00:00:00	3	Temperatura mínima	17.6
152696	7	Sololá	712	San Antonio Palopó	9	San Antonio Palopo	2	Febrero	2023-08-02T00:00:00	2024-11-08T00:00:00	5	Humedad	72
152697	7	Sololá	712	San Antonio Palopó	9	San Antonio Palopo	2	Febrero	2023-08-02T00:00:00	2024-11-08T00:00:00	6	Velocidad del viento	20.9
152698	7	Sololá	712	San Antonio Palopó	9	San Antonio Palopo	2	Febrero	2023-08-02T00:00:00	2024-11-08T00:00:00	7	Dirección del viento	20.92
152699	7	Sololá	712	San Antonio Palopó	9	San Antonio Palopo	2	Febrero	2023-08-02T00:00:00	2024-11-08T00:00:00	1	Precipitación	0
152700	7	Sololá	712	San Antonio Palopó	9	San Antonio Palopo	2	Febrero	2023-08-02T00:00:00	2024-11-08T00:00:00	8	Radiación solar	0
152701	7	Sololá	712	San Antonio Palopó	9	San Antonio Palopo	2	Febrero	2023-08-02T00:00:00	2024-11-08T01:00:00	2	Temperatura media	17.4
152702	7	Sololá	712	San Antonio Palopó	9	San Antonio Palopo	2	Febrero	2023-08-02T00:00:00	2024-11-08T01:00:00	4	Temperatura máxima	17.6
152703	7	Sololá	712	San Antonio Palopó	9	San Antonio Palopo	2	Febrero	2023-08-02T00:00:00	2024-11-08T01:00:00	3	Temperatura mínima	17.4
152704	7	Sololá	712	San Antonio Palopó	9	San Antonio Palopo	2	Febrero	2023-08-02T00:00:00	2024-11-08T01:00:00	5	Humedad	73
152705	7	Sololá	712	San Antonio Palopó	9	San Antonio Palopo	2	Febrero	2023-08-02T00:00:00	2024-11-08T01:00:00	6	Velocidad del viento	17.7
152706	7	Sololá	712	San Antonio Palopó	9	San Antonio Palopo	2	Febrero	2023-08-02T00:00:00	2024-11-08T01:00:00	7	Dirección del viento	17.7
152707	7	Sololá	712	San Antonio Palopó	9	San Antonio Palopo	2	Febrero	2023-08-02T00:00:00	2024-11-08T01:00:00	1	Precipitación	0
152708	7	Sololá	712	San Antonio Palopó	9	San Antonio Palopo	2	Febrero	2023-08-02T00:00:00	2024-11-08T01:00:00	8	Radiación solar	0
152709	7	Sololá	712	San Antonio Palopó	9	San Antonio Palopo	2	Febrero	2023-08-02T00:00:00	2024-11-08T02:00:00	2	Temperatura media	17.2
152710	7	Sololá	712	San Antonio Palopó	9	San Antonio Palopo	2	Febrero	2023-08-02T00:00:00	2024-11-08T02:00:00	4	Temperatura máxima	17.4
152711	7	Sololá	712	San Antonio Palopó	9	San Antonio Palopo	2	Febrero	2023-08-02T00:00:00	2024-11-08T02:00:00	3	Temperatura mínima	17.1
152712	7	Sololá	712	San Antonio Palopó	9	San Antonio Palopo	2	Febrero	2023-08-02T00:00:00	2024-11-08T02:00:00	5	Humedad	72
152713	7	Sololá	712	San Antonio Palopó	9	San Antonio Palopo	2	Febrero	2023-08-02T00:00:00	2024-11-08T02:00:00	6	Velocidad del viento	17.7
152714	7	Sololá	712	San Antonio Palopó	9	San Antonio Palopo	2	Febrero	2023-08-02T00:00:00	2024-11-08T02:00:00	7	Dirección del viento	17.7
152715	7	Sololá	712	San Antonio Palopó	9	San Antonio Palopo	2	Febrero	2023-08-02T00:00:00	2024-11-08T02:00:00	1	Precipitación	0
152716	7	Sololá	712	San Antonio Palopó	9	San Antonio Palopo	2	Febrero	2023-08-02T00:00:00	2024-11-08T02:00:00	8	Radiación solar	0
152717	7	Sololá	712	San Antonio Palopó	9	San Antonio Palopo	2	Febrero	2023-08-02T00:00:00	2024-11-08T03:00:00	2	Temperatura media	16.8
152718	7	Sololá	712	San Antonio Palopó	9	San Antonio Palopo	2	Febrero	2023-08-02T00:00:00	2024-11-08T03:00:00	4	Temperatura máxima	17.3
152719	7	Sololá	712	San Antonio Palopó	9	San Antonio Palopo	2	Febrero	2023-08-02T00:00:00	2024-11-08T03:00:00	3	Temperatura mínima	16.8
152720	7	Sololá	712	San Antonio Palopó	9	San Antonio Palopo	2	Febrero	2023-08-02T00:00:00	2024-11-08T03:00:00	5	Humedad	74
152721	7	Sololá	712	San Antonio Palopó	9	San Antonio Palopo	2	Febrero	2023-08-02T00:00:00	2024-11-08T03:00:00	6	Velocidad del viento	16.1
152722	7	Sololá	712	San Antonio Palopó	9	San Antonio Palopo	2	Febrero	2023-08-02T00:00:00	2024-11-08T03:00:00	7	Dirección del viento	16.09
152723	7	Sololá	712	San Antonio Palopó	9	San Antonio Palopo	2	Febrero	2023-08-02T00:00:00	2024-11-08T03:00:00	1	Precipitación	0
152724	7	Sololá	712	San Antonio Palopó	9	San Antonio Palopo	2	Febrero	2023-08-02T00:00:00	2024-11-08T03:00:00	8	Radiación solar	0
152725	7	Sololá	712	San Antonio Palopó	9	San Antonio Palopo	2	Febrero	2023-08-02T00:00:00	2024-11-08T04:00:00	2	Temperatura media	16.4
152726	7	Sololá	712	San Antonio Palopó	9	San Antonio Palopo	2	Febrero	2023-08-02T00:00:00	2024-11-08T04:00:00	4	Temperatura máxima	16.8
152727	7	Sololá	712	San Antonio Palopó	9	San Antonio Palopo	2	Febrero	2023-08-02T00:00:00	2024-11-08T04:00:00	3	Temperatura mínima	16.3
152728	7	Sololá	712	San Antonio Palopó	9	San Antonio Palopo	2	Febrero	2023-08-02T00:00:00	2024-11-08T04:00:00	5	Humedad	73
152729	7	Sololá	712	San Antonio Palopó	9	San Antonio Palopo	2	Febrero	2023-08-02T00:00:00	2024-11-08T04:00:00	6	Velocidad del viento	11.3
152730	7	Sololá	712	San Antonio Palopó	9	San Antonio Palopo	2	Febrero	2023-08-02T00:00:00	2024-11-08T04:00:00	7	Dirección del viento	11.27
152731	7	Sololá	712	San Antonio Palopó	9	San Antonio Palopo	2	Febrero	2023-08-02T00:00:00	2024-11-08T04:00:00	1	Precipitación	0
152732	7	Sololá	712	San Antonio Palopó	9	San Antonio Palopo	2	Febrero	2023-08-02T00:00:00	2024-11-08T04:00:00	8	Radiación solar	0
152733	7	Sololá	712	San Antonio Palopó	9	San Antonio Palopo	2	Febrero	2023-08-02T00:00:00	2024-11-08T05:00:00	2	Temperatura media	16
152734	7	Sololá	712	San Antonio Palopó	9	San Antonio Palopo	2	Febrero	2023-08-02T00:00:00	2024-11-08T05:00:00	4	Temperatura máxima	16.6
152735	7	Sololá	712	San Antonio Palopó	9	San Antonio Palopo	2	Febrero	2023-08-02T00:00:00	2024-11-08T05:00:00	3	Temperatura mínima	15.9
152736	7	Sololá	712	San Antonio Palopó	9	San Antonio Palopo	2	Febrero	2023-08-02T00:00:00	2024-11-08T05:00:00	5	Humedad	73
152737	7	Sololá	712	San Antonio Palopó	9	San Antonio Palopo	2	Febrero	2023-08-02T00:00:00	2024-11-08T05:00:00	6	Velocidad del viento	14.5
152738	7	Sololá	712	San Antonio Palopó	9	San Antonio Palopo	2	Febrero	2023-08-02T00:00:00	2024-11-08T05:00:00	7	Dirección del viento	14.48
152739	7	Sololá	712	San Antonio Palopó	9	San Antonio Palopo	2	Febrero	2023-08-02T00:00:00	2024-11-08T05:00:00	1	Precipitación	0
152740	7	Sololá	712	San Antonio Palopó	9	San Antonio Palopo	2	Febrero	2023-08-02T00:00:00	2024-11-08T05:00:00	8	Radiación solar	0
152741	7	Sololá	712	San Antonio Palopó	9	San Antonio Palopo	2	Febrero	2023-08-02T00:00:00	2024-11-08T06:00:00	2	Temperatura media	16.1
152742	7	Sololá	712	San Antonio Palopó	9	San Antonio Palopo	2	Febrero	2023-08-02T00:00:00	2024-11-08T06:00:00	4	Temperatura máxima	16.1
152743	7	Sololá	712	San Antonio Palopó	9	San Antonio Palopo	2	Febrero	2023-08-02T00:00:00	2024-11-08T06:00:00	3	Temperatura mínima	15.8
152744	7	Sololá	712	San Antonio Palopó	9	San Antonio Palopo	2	Febrero	2023-08-02T00:00:00	2024-11-08T06:00:00	5	Humedad	71
152745	7	Sololá	712	San Antonio Palopó	9	San Antonio Palopo	2	Febrero	2023-08-02T00:00:00	2024-11-08T06:00:00	6	Velocidad del viento	19.3
152746	7	Sololá	712	San Antonio Palopó	9	San Antonio Palopo	2	Febrero	2023-08-02T00:00:00	2024-11-08T06:00:00	7	Dirección del viento	19.31
152747	7	Sololá	712	San Antonio Palopó	9	San Antonio Palopo	2	Febrero	2023-08-02T00:00:00	2024-11-08T06:00:00	1	Precipitación	0
152748	7	Sololá	712	San Antonio Palopó	9	San Antonio Palopo	2	Febrero	2023-08-02T00:00:00	2024-11-08T06:00:00	8	Radiación solar	0
152749	7	Sololá	712	San Antonio Palopó	9	San Antonio Palopo	2	Febrero	2023-08-02T00:00:00	2024-11-08T07:00:00	2	Temperatura media	16.4
152750	7	Sololá	712	San Antonio Palopó	9	San Antonio Palopo	2	Febrero	2023-08-02T00:00:00	2024-11-08T07:00:00	4	Temperatura máxima	16.5
152751	7	Sololá	712	San Antonio Palopó	9	San Antonio Palopo	2	Febrero	2023-08-02T00:00:00	2024-11-08T07:00:00	3	Temperatura mínima	15.9
152752	7	Sololá	712	San Antonio Palopó	9	San Antonio Palopo	2	Febrero	2023-08-02T00:00:00	2024-11-08T07:00:00	5	Humedad	72
152753	7	Sololá	712	San Antonio Palopó	9	San Antonio Palopo	2	Febrero	2023-08-02T00:00:00	2024-11-08T07:00:00	6	Velocidad del viento	8
152754	7	Sololá	712	San Antonio Palopó	9	San Antonio Palopo	2	Febrero	2023-08-02T00:00:00	2024-11-08T07:00:00	7	Dirección del viento	8.05
152755	7	Sololá	712	San Antonio Palopó	9	San Antonio Palopo	2	Febrero	2023-08-02T00:00:00	2024-11-08T07:00:00	1	Precipitación	0
152756	7	Sololá	712	San Antonio Palopó	9	San Antonio Palopo	2	Febrero	2023-08-02T00:00:00	2024-11-08T07:00:00	8	Radiación solar	3
152757	7	Sololá	712	San Antonio Palopó	9	San Antonio Palopo	2	Febrero	2023-08-02T00:00:00	2024-11-08T08:00:00	2	Temperatura media	15.2
152758	7	Sololá	712	San Antonio Palopó	9	San Antonio Palopo	2	Febrero	2023-08-02T00:00:00	2024-11-08T08:00:00	4	Temperatura máxima	16.3
152759	7	Sololá	712	San Antonio Palopó	9	San Antonio Palopo	2	Febrero	2023-08-02T00:00:00	2024-11-08T08:00:00	3	Temperatura mínima	15.1
152760	7	Sololá	712	San Antonio Palopó	9	San Antonio Palopo	2	Febrero	2023-08-02T00:00:00	2024-11-08T08:00:00	5	Humedad	78
152761	7	Sololá	712	San Antonio Palopó	9	San Antonio Palopo	2	Febrero	2023-08-02T00:00:00	2024-11-08T08:00:00	6	Velocidad del viento	3.2
152762	7	Sololá	712	San Antonio Palopó	9	San Antonio Palopo	2	Febrero	2023-08-02T00:00:00	2024-11-08T08:00:00	7	Dirección del viento	3.22
152763	7	Sololá	712	San Antonio Palopó	9	San Antonio Palopo	2	Febrero	2023-08-02T00:00:00	2024-11-08T08:00:00	1	Precipitación	0
152764	7	Sololá	712	San Antonio Palopó	9	San Antonio Palopo	2	Febrero	2023-08-02T00:00:00	2024-11-08T08:00:00	8	Radiación solar	18
152765	7	Sololá	712	San Antonio Palopó	9	San Antonio Palopo	2	Febrero	2023-08-02T00:00:00	2024-11-08T09:00:00	2	Temperatura media	18.3
152766	7	Sololá	712	San Antonio Palopó	9	San Antonio Palopo	2	Febrero	2023-08-02T00:00:00	2024-11-08T09:00:00	4	Temperatura máxima	18.3
152767	7	Sololá	712	San Antonio Palopó	9	San Antonio Palopo	2	Febrero	2023-08-02T00:00:00	2024-11-08T09:00:00	3	Temperatura mínima	15.2
152768	7	Sololá	712	San Antonio Palopó	9	San Antonio Palopo	2	Febrero	2023-08-02T00:00:00	2024-11-08T09:00:00	5	Humedad	68
152769	7	Sololá	712	San Antonio Palopó	9	San Antonio Palopo	2	Febrero	2023-08-02T00:00:00	2024-11-08T09:00:00	6	Velocidad del viento	1.6
152770	7	Sololá	712	San Antonio Palopó	9	San Antonio Palopo	2	Febrero	2023-08-02T00:00:00	2024-11-08T09:00:00	7	Dirección del viento	1.61
152771	7	Sololá	712	San Antonio Palopó	9	San Antonio Palopo	2	Febrero	2023-08-02T00:00:00	2024-11-08T09:00:00	1	Precipitación	0
152772	7	Sololá	712	San Antonio Palopó	9	San Antonio Palopo	2	Febrero	2023-08-02T00:00:00	2024-11-08T09:00:00	8	Radiación solar	223
152773	7	Sololá	712	San Antonio Palopó	9	San Antonio Palopo	2	Febrero	2023-08-02T00:00:00	2024-11-08T10:00:00	2	Temperatura media	19
152774	7	Sololá	712	San Antonio Palopó	9	San Antonio Palopo	2	Febrero	2023-08-02T00:00:00	2024-11-08T10:00:00	4	Temperatura máxima	19.7
152775	7	Sololá	712	San Antonio Palopó	9	San Antonio Palopo	2	Febrero	2023-08-02T00:00:00	2024-11-08T10:00:00	3	Temperatura mínima	18.4
152776	7	Sololá	712	San Antonio Palopó	9	San Antonio Palopo	2	Febrero	2023-08-02T00:00:00	2024-11-08T10:00:00	5	Humedad	67
152777	7	Sololá	712	San Antonio Palopó	9	San Antonio Palopo	2	Febrero	2023-08-02T00:00:00	2024-11-08T10:00:00	6	Velocidad del viento	1.6
152778	7	Sololá	712	San Antonio Palopó	9	San Antonio Palopo	2	Febrero	2023-08-02T00:00:00	2024-11-08T10:00:00	7	Dirección del viento	1.61
152779	7	Sololá	712	San Antonio Palopó	9	San Antonio Palopo	2	Febrero	2023-08-02T00:00:00	2024-11-08T10:00:00	1	Precipitación	0
152780	7	Sololá	712	San Antonio Palopó	9	San Antonio Palopo	2	Febrero	2023-08-02T00:00:00	2024-11-08T10:00:00	8	Radiación solar	555
152781	7	Sololá	712	San Antonio Palopó	9	San Antonio Palopo	2	Febrero	2023-08-02T00:00:00	2024-11-08T11:00:00	2	Temperatura media	20.4
152782	7	Sololá	712	San Antonio Palopó	9	San Antonio Palopo	2	Febrero	2023-08-02T00:00:00	2024-11-08T11:00:00	4	Temperatura máxima	20.4
152783	7	Sololá	712	San Antonio Palopó	9	San Antonio Palopo	2	Febrero	2023-08-02T00:00:00	2024-11-08T11:00:00	3	Temperatura mínima	18.9
152784	7	Sololá	712	San Antonio Palopó	9	San Antonio Palopo	2	Febrero	2023-08-02T00:00:00	2024-11-08T11:00:00	5	Humedad	65
152785	7	Sololá	712	San Antonio Palopó	9	San Antonio Palopo	2	Febrero	2023-08-02T00:00:00	2024-11-08T11:00:00	6	Velocidad del viento	1.6
152786	7	Sololá	712	San Antonio Palopó	9	San Antonio Palopo	2	Febrero	2023-08-02T00:00:00	2024-11-08T11:00:00	7	Dirección del viento	1.61
152787	7	Sololá	712	San Antonio Palopó	9	San Antonio Palopo	2	Febrero	2023-08-02T00:00:00	2024-11-08T11:00:00	1	Precipitación	0
152788	7	Sololá	712	San Antonio Palopó	9	San Antonio Palopo	2	Febrero	2023-08-02T00:00:00	2024-11-08T11:00:00	8	Radiación solar	708
152789	7	Sololá	712	San Antonio Palopó	9	San Antonio Palopo	2	Febrero	2023-08-02T00:00:00	2024-11-08T12:00:00	2	Temperatura media	21.2
152790	7	Sololá	712	San Antonio Palopó	9	San Antonio Palopo	2	Febrero	2023-08-02T00:00:00	2024-11-08T12:00:00	4	Temperatura máxima	21.5
152791	7	Sololá	712	San Antonio Palopó	9	San Antonio Palopo	2	Febrero	2023-08-02T00:00:00	2024-11-08T12:00:00	3	Temperatura mínima	20.4
152792	7	Sololá	712	San Antonio Palopó	9	San Antonio Palopo	2	Febrero	2023-08-02T00:00:00	2024-11-08T12:00:00	5	Humedad	66
152793	7	Sololá	712	San Antonio Palopó	9	San Antonio Palopo	2	Febrero	2023-08-02T00:00:00	2024-11-08T12:00:00	6	Velocidad del viento	3.2
152794	7	Sololá	712	San Antonio Palopó	9	San Antonio Palopo	2	Febrero	2023-08-02T00:00:00	2024-11-08T12:00:00	7	Dirección del viento	3.22
152795	7	Sololá	712	San Antonio Palopó	9	San Antonio Palopo	2	Febrero	2023-08-02T00:00:00	2024-11-08T12:00:00	1	Precipitación	0
152796	7	Sololá	712	San Antonio Palopó	9	San Antonio Palopo	2	Febrero	2023-08-02T00:00:00	2024-11-08T12:00:00	8	Radiación solar	724
152797	7	Sololá	712	San Antonio Palopó	9	San Antonio Palopo	2	Febrero	2023-08-02T00:00:00	2024-11-08T13:00:00	2	Temperatura media	23.6
152798	7	Sololá	712	San Antonio Palopó	9	San Antonio Palopo	2	Febrero	2023-08-02T00:00:00	2024-11-08T13:00:00	4	Temperatura máxima	23.8
152799	7	Sololá	712	San Antonio Palopó	9	San Antonio Palopo	2	Febrero	2023-08-02T00:00:00	2024-11-08T13:00:00	3	Temperatura mínima	21.1
152800	7	Sololá	712	San Antonio Palopó	9	San Antonio Palopo	2	Febrero	2023-08-02T00:00:00	2024-11-08T13:00:00	5	Humedad	61
152801	7	Sololá	712	San Antonio Palopó	9	San Antonio Palopo	2	Febrero	2023-08-02T00:00:00	2024-11-08T13:00:00	6	Velocidad del viento	6.4
152802	7	Sololá	712	San Antonio Palopó	9	San Antonio Palopo	2	Febrero	2023-08-02T00:00:00	2024-11-08T13:00:00	7	Dirección del viento	6.44
152803	7	Sololá	712	San Antonio Palopó	9	San Antonio Palopo	2	Febrero	2023-08-02T00:00:00	2024-11-08T13:00:00	1	Precipitación	0
152804	7	Sololá	712	San Antonio Palopó	9	San Antonio Palopo	2	Febrero	2023-08-02T00:00:00	2024-11-08T13:00:00	8	Radiación solar	844
152805	7	Sololá	712	San Antonio Palopó	9	San Antonio Palopo	2	Febrero	2023-08-02T00:00:00	2024-11-08T14:00:00	2	Temperatura media	23.6
152806	7	Sololá	712	San Antonio Palopó	9	San Antonio Palopo	2	Febrero	2023-08-02T00:00:00	2024-11-08T14:00:00	4	Temperatura máxima	24.1
152807	7	Sololá	712	San Antonio Palopó	9	San Antonio Palopo	2	Febrero	2023-08-02T00:00:00	2024-11-08T14:00:00	3	Temperatura mínima	22.7
152808	7	Sololá	712	San Antonio Palopó	9	San Antonio Palopo	2	Febrero	2023-08-02T00:00:00	2024-11-08T14:00:00	5	Humedad	62
152809	7	Sololá	712	San Antonio Palopó	9	San Antonio Palopo	2	Febrero	2023-08-02T00:00:00	2024-11-08T14:00:00	6	Velocidad del viento	6.4
152810	7	Sololá	712	San Antonio Palopó	9	San Antonio Palopo	2	Febrero	2023-08-02T00:00:00	2024-11-08T14:00:00	7	Dirección del viento	6.44
152811	7	Sololá	712	San Antonio Palopó	9	San Antonio Palopo	2	Febrero	2023-08-02T00:00:00	2024-11-08T14:00:00	1	Precipitación	0
152812	7	Sololá	712	San Antonio Palopó	9	San Antonio Palopo	2	Febrero	2023-08-02T00:00:00	2024-11-08T14:00:00	8	Radiación solar	648
152813	7	Sololá	712	San Antonio Palopó	9	San Antonio Palopo	2	Febrero	2023-08-02T00:00:00	2024-11-08T15:00:00	2	Temperatura media	22.9
152814	7	Sololá	712	San Antonio Palopó	9	San Antonio Palopo	2	Febrero	2023-08-02T00:00:00	2024-11-08T15:00:00	4	Temperatura máxima	23.8
152815	7	Sololá	712	San Antonio Palopó	9	San Antonio Palopo	2	Febrero	2023-08-02T00:00:00	2024-11-08T15:00:00	3	Temperatura mínima	22.7
152816	7	Sololá	712	San Antonio Palopó	9	San Antonio Palopo	2	Febrero	2023-08-02T00:00:00	2024-11-08T15:00:00	5	Humedad	65
152817	7	Sololá	712	San Antonio Palopó	9	San Antonio Palopo	2	Febrero	2023-08-02T00:00:00	2024-11-08T15:00:00	6	Velocidad del viento	8
152818	7	Sololá	712	San Antonio Palopó	9	San Antonio Palopo	2	Febrero	2023-08-02T00:00:00	2024-11-08T15:00:00	7	Dirección del viento	8.05
152819	7	Sololá	712	San Antonio Palopó	9	San Antonio Palopo	2	Febrero	2023-08-02T00:00:00	2024-11-08T15:00:00	1	Precipitación	0
152820	7	Sololá	712	San Antonio Palopó	9	San Antonio Palopo	2	Febrero	2023-08-02T00:00:00	2024-11-08T15:00:00	8	Radiación solar	539
152821	7	Sololá	712	San Antonio Palopó	9	San Antonio Palopo	2	Febrero	2023-08-02T00:00:00	2024-11-08T16:00:00	2	Temperatura media	23.1
152822	7	Sololá	712	San Antonio Palopó	9	San Antonio Palopo	2	Febrero	2023-08-02T00:00:00	2024-11-08T16:00:00	4	Temperatura máxima	23.6
152823	7	Sololá	712	San Antonio Palopó	9	San Antonio Palopo	2	Febrero	2023-08-02T00:00:00	2024-11-08T16:00:00	3	Temperatura mínima	22.9
152824	7	Sololá	712	San Antonio Palopó	9	San Antonio Palopo	2	Febrero	2023-08-02T00:00:00	2024-11-08T16:00:00	5	Humedad	64
152825	7	Sololá	712	San Antonio Palopó	9	San Antonio Palopo	2	Febrero	2023-08-02T00:00:00	2024-11-08T16:00:00	6	Velocidad del viento	8
152826	7	Sololá	712	San Antonio Palopó	9	San Antonio Palopo	2	Febrero	2023-08-02T00:00:00	2024-11-08T16:00:00	7	Dirección del viento	8.05
152827	7	Sololá	712	San Antonio Palopó	9	San Antonio Palopo	2	Febrero	2023-08-02T00:00:00	2024-11-08T16:00:00	1	Precipitación	0
152828	7	Sololá	712	San Antonio Palopó	9	San Antonio Palopo	2	Febrero	2023-08-02T00:00:00	2024-11-08T16:00:00	8	Radiación solar	437
152829	7	Sololá	712	San Antonio Palopó	9	San Antonio Palopo	2	Febrero	2023-08-02T00:00:00	2024-11-08T17:00:00	2	Temperatura media	21.9
152830	7	Sololá	712	San Antonio Palopó	9	San Antonio Palopo	2	Febrero	2023-08-02T00:00:00	2024-11-08T17:00:00	4	Temperatura máxima	23.1
152831	7	Sololá	712	San Antonio Palopó	9	San Antonio Palopo	2	Febrero	2023-08-02T00:00:00	2024-11-08T17:00:00	3	Temperatura mínima	21.8
152832	7	Sololá	712	San Antonio Palopó	9	San Antonio Palopo	2	Febrero	2023-08-02T00:00:00	2024-11-08T17:00:00	5	Humedad	69
152833	7	Sololá	712	San Antonio Palopó	9	San Antonio Palopo	2	Febrero	2023-08-02T00:00:00	2024-11-08T17:00:00	6	Velocidad del viento	6.4
152834	7	Sololá	712	San Antonio Palopó	9	San Antonio Palopo	2	Febrero	2023-08-02T00:00:00	2024-11-08T17:00:00	7	Dirección del viento	6.44
152835	7	Sololá	712	San Antonio Palopó	9	San Antonio Palopo	2	Febrero	2023-08-02T00:00:00	2024-11-08T17:00:00	1	Precipitación	0
152836	7	Sololá	712	San Antonio Palopó	9	San Antonio Palopo	2	Febrero	2023-08-02T00:00:00	2024-11-08T17:00:00	8	Radiación solar	132
152837	7	Sololá	712	San Antonio Palopó	9	San Antonio Palopo	2	Febrero	2023-08-02T00:00:00	2024-11-08T18:00:00	2	Temperatura media	21.1
152838	7	Sololá	712	San Antonio Palopó	9	San Antonio Palopo	2	Febrero	2023-08-02T00:00:00	2024-11-08T18:00:00	4	Temperatura máxima	22.5
152839	7	Sololá	712	San Antonio Palopó	9	San Antonio Palopo	2	Febrero	2023-08-02T00:00:00	2024-11-08T18:00:00	3	Temperatura mínima	21.1
152840	7	Sololá	712	San Antonio Palopó	9	San Antonio Palopo	2	Febrero	2023-08-02T00:00:00	2024-11-08T18:00:00	5	Humedad	73
152841	7	Sololá	712	San Antonio Palopó	9	San Antonio Palopo	2	Febrero	2023-08-02T00:00:00	2024-11-08T18:00:00	6	Velocidad del viento	3.2
152842	7	Sololá	712	San Antonio Palopó	9	San Antonio Palopo	2	Febrero	2023-08-02T00:00:00	2024-11-08T18:00:00	7	Dirección del viento	3.22
152843	7	Sololá	712	San Antonio Palopó	9	San Antonio Palopo	2	Febrero	2023-08-02T00:00:00	2024-11-08T18:00:00	1	Precipitación	0
152844	7	Sololá	712	San Antonio Palopó	9	San Antonio Palopo	2	Febrero	2023-08-02T00:00:00	2024-11-08T18:00:00	8	Radiación solar	51
152845	7	Sololá	712	San Antonio Palopó	9	San Antonio Palopo	2	Febrero	2023-08-02T00:00:00	2024-11-08T19:00:00	2	Temperatura media	19.7
152846	7	Sololá	712	San Antonio Palopó	9	San Antonio Palopo	2	Febrero	2023-08-02T00:00:00	2024-11-08T19:00:00	4	Temperatura máxima	21.1
152847	7	Sololá	712	San Antonio Palopó	9	San Antonio Palopo	2	Febrero	2023-08-02T00:00:00	2024-11-08T19:00:00	3	Temperatura mínima	19.7
152848	7	Sololá	712	San Antonio Palopó	9	San Antonio Palopo	2	Febrero	2023-08-02T00:00:00	2024-11-08T19:00:00	5	Humedad	79
152849	7	Sololá	712	San Antonio Palopó	9	San Antonio Palopo	2	Febrero	2023-08-02T00:00:00	2024-11-08T19:00:00	6	Velocidad del viento	3.2
152850	7	Sololá	712	San Antonio Palopó	9	San Antonio Palopo	2	Febrero	2023-08-02T00:00:00	2024-11-08T19:00:00	7	Dirección del viento	3.22
152851	7	Sololá	712	San Antonio Palopó	9	San Antonio Palopo	2	Febrero	2023-08-02T00:00:00	2024-11-08T19:00:00	1	Precipitación	0
152852	7	Sololá	712	San Antonio Palopó	9	San Antonio Palopo	2	Febrero	2023-08-02T00:00:00	2024-11-08T19:00:00	8	Radiación solar	0
152853	7	Sololá	712	San Antonio Palopó	9	San Antonio Palopo	2	Febrero	2023-08-02T00:00:00	2024-11-08T20:00:00	2	Temperatura media	20.3
152854	7	Sololá	712	San Antonio Palopó	9	San Antonio Palopo	2	Febrero	2023-08-02T00:00:00	2024-11-08T20:00:00	4	Temperatura máxima	20.3
152855	7	Sololá	712	San Antonio Palopó	9	San Antonio Palopo	2	Febrero	2023-08-02T00:00:00	2024-11-08T20:00:00	3	Temperatura mínima	19.3
152856	7	Sololá	712	San Antonio Palopó	9	San Antonio Palopo	2	Febrero	2023-08-02T00:00:00	2024-11-08T20:00:00	5	Humedad	68
152857	7	Sololá	712	San Antonio Palopó	9	San Antonio Palopo	2	Febrero	2023-08-02T00:00:00	2024-11-08T20:00:00	6	Velocidad del viento	8
152858	7	Sololá	712	San Antonio Palopó	9	San Antonio Palopo	2	Febrero	2023-08-02T00:00:00	2024-11-08T20:00:00	7	Dirección del viento	8.05
152859	7	Sololá	712	San Antonio Palopó	9	San Antonio Palopo	2	Febrero	2023-08-02T00:00:00	2024-11-08T20:00:00	1	Precipitación	0
152860	7	Sololá	712	San Antonio Palopó	9	San Antonio Palopo	2	Febrero	2023-08-02T00:00:00	2024-11-08T20:00:00	8	Radiación solar	0
152861	7	Sololá	712	San Antonio Palopó	9	San Antonio Palopo	2	Febrero	2023-08-02T00:00:00	2024-11-08T21:00:00	2	Temperatura media	19.9
152862	7	Sololá	712	San Antonio Palopó	9	San Antonio Palopo	2	Febrero	2023-08-02T00:00:00	2024-11-08T21:00:00	4	Temperatura máxima	20.3
152863	7	Sololá	712	San Antonio Palopó	9	San Antonio Palopo	2	Febrero	2023-08-02T00:00:00	2024-11-08T21:00:00	3	Temperatura mínima	19.9
152864	7	Sololá	712	San Antonio Palopó	9	San Antonio Palopo	2	Febrero	2023-08-02T00:00:00	2024-11-08T21:00:00	5	Humedad	70
152865	7	Sololá	712	San Antonio Palopó	9	San Antonio Palopo	2	Febrero	2023-08-02T00:00:00	2024-11-08T21:00:00	6	Velocidad del viento	17.7
152866	7	Sololá	712	San Antonio Palopó	9	San Antonio Palopo	2	Febrero	2023-08-02T00:00:00	2024-11-08T21:00:00	7	Dirección del viento	17.7
152867	7	Sololá	712	San Antonio Palopó	9	San Antonio Palopo	2	Febrero	2023-08-02T00:00:00	2024-11-08T21:00:00	1	Precipitación	0
152868	7	Sololá	712	San Antonio Palopó	9	San Antonio Palopo	2	Febrero	2023-08-02T00:00:00	2024-11-08T21:00:00	8	Radiación solar	0
152869	7	Sololá	712	San Antonio Palopó	9	San Antonio Palopo	2	Febrero	2023-08-02T00:00:00	2024-11-08T22:00:00	2	Temperatura media	19.7
152870	7	Sololá	712	San Antonio Palopó	9	San Antonio Palopo	2	Febrero	2023-08-02T00:00:00	2024-11-08T22:00:00	4	Temperatura máxima	19.9
152871	7	Sololá	712	San Antonio Palopó	9	San Antonio Palopo	2	Febrero	2023-08-02T00:00:00	2024-11-08T22:00:00	3	Temperatura mínima	19.6
152872	7	Sololá	712	San Antonio Palopó	9	San Antonio Palopo	2	Febrero	2023-08-02T00:00:00	2024-11-08T22:00:00	5	Humedad	70
152873	7	Sololá	712	San Antonio Palopó	9	San Antonio Palopo	2	Febrero	2023-08-02T00:00:00	2024-11-08T22:00:00	6	Velocidad del viento	20.9
152874	7	Sololá	712	San Antonio Palopó	9	San Antonio Palopo	2	Febrero	2023-08-02T00:00:00	2024-11-08T22:00:00	7	Dirección del viento	20.92
152875	7	Sololá	712	San Antonio Palopó	9	San Antonio Palopo	2	Febrero	2023-08-02T00:00:00	2024-11-08T22:00:00	1	Precipitación	0
152876	7	Sololá	712	San Antonio Palopó	9	San Antonio Palopo	2	Febrero	2023-08-02T00:00:00	2024-11-08T22:00:00	8	Radiación solar	0
152877	7	Sololá	712	San Antonio Palopó	9	San Antonio Palopo	2	Febrero	2023-08-02T00:00:00	2024-11-08T23:00:00	2	Temperatura media	19.3
152878	7	Sololá	712	San Antonio Palopó	9	San Antonio Palopo	2	Febrero	2023-08-02T00:00:00	2024-11-08T23:00:00	4	Temperatura máxima	19.7
152879	7	Sololá	712	San Antonio Palopó	9	San Antonio Palopo	2	Febrero	2023-08-02T00:00:00	2024-11-08T23:00:00	3	Temperatura mínima	19.2
152880	7	Sololá	712	San Antonio Palopó	9	San Antonio Palopo	2	Febrero	2023-08-02T00:00:00	2024-11-08T23:00:00	5	Humedad	70
152881	7	Sololá	712	San Antonio Palopó	9	San Antonio Palopo	2	Febrero	2023-08-02T00:00:00	2024-11-08T23:00:00	6	Velocidad del viento	19.3
152882	7	Sololá	712	San Antonio Palopó	9	San Antonio Palopo	2	Febrero	2023-08-02T00:00:00	2024-11-08T23:00:00	7	Dirección del viento	19.31
152883	7	Sololá	712	San Antonio Palopó	9	San Antonio Palopo	2	Febrero	2023-08-02T00:00:00	2024-11-08T23:00:00	1	Precipitación	0
152884	7	Sololá	712	San Antonio Palopó	9	San Antonio Palopo	2	Febrero	2023-08-02T00:00:00	2024-11-08T23:00:00	8	Radiación solar	0
152885	7	Sololá	712	San Antonio Palopó	9	San Antonio Palopo	2	Febrero	2023-09-02T00:00:00	2024-11-08T00:00:00	2	Temperatura media	18.4
152886	7	Sololá	712	San Antonio Palopó	9	San Antonio Palopo	2	Febrero	2023-09-02T00:00:00	2024-11-08T00:00:00	4	Temperatura máxima	19.3
152887	7	Sololá	712	San Antonio Palopó	9	San Antonio Palopo	2	Febrero	2023-09-02T00:00:00	2024-11-08T00:00:00	3	Temperatura mínima	18.4
152888	7	Sololá	712	San Antonio Palopó	9	San Antonio Palopo	2	Febrero	2023-09-02T00:00:00	2024-11-08T00:00:00	5	Humedad	72
152889	7	Sololá	712	San Antonio Palopó	9	San Antonio Palopo	2	Febrero	2023-09-02T00:00:00	2024-11-08T00:00:00	6	Velocidad del viento	16.1
152890	7	Sololá	712	San Antonio Palopó	9	San Antonio Palopo	2	Febrero	2023-09-02T00:00:00	2024-11-08T00:00:00	7	Dirección del viento	16.09
152891	7	Sololá	712	San Antonio Palopó	9	San Antonio Palopo	2	Febrero	2023-09-02T00:00:00	2024-11-08T00:00:00	1	Precipitación	0
152892	7	Sololá	712	San Antonio Palopó	9	San Antonio Palopo	2	Febrero	2023-09-02T00:00:00	2024-11-08T00:00:00	8	Radiación solar	0
152893	7	Sololá	712	San Antonio Palopó	9	San Antonio Palopo	2	Febrero	2023-09-02T00:00:00	2024-11-08T01:00:00	2	Temperatura media	18
152894	7	Sololá	712	San Antonio Palopó	9	San Antonio Palopo	2	Febrero	2023-09-02T00:00:00	2024-11-08T01:00:00	4	Temperatura máxima	18.4
152895	7	Sololá	712	San Antonio Palopó	9	San Antonio Palopo	2	Febrero	2023-09-02T00:00:00	2024-11-08T01:00:00	3	Temperatura mínima	18
152896	7	Sololá	712	San Antonio Palopó	9	San Antonio Palopo	2	Febrero	2023-09-02T00:00:00	2024-11-08T01:00:00	5	Humedad	71
152897	7	Sololá	712	San Antonio Palopó	9	San Antonio Palopo	2	Febrero	2023-09-02T00:00:00	2024-11-08T01:00:00	6	Velocidad del viento	9.7
152898	7	Sololá	712	San Antonio Palopó	9	San Antonio Palopo	2	Febrero	2023-09-02T00:00:00	2024-11-08T01:00:00	7	Dirección del viento	9.66
152899	7	Sololá	712	San Antonio Palopó	9	San Antonio Palopo	2	Febrero	2023-09-02T00:00:00	2024-11-08T01:00:00	1	Precipitación	0
152900	7	Sololá	712	San Antonio Palopó	9	San Antonio Palopo	2	Febrero	2023-09-02T00:00:00	2024-11-08T01:00:00	8	Radiación solar	0
152901	7	Sololá	712	San Antonio Palopó	9	San Antonio Palopo	2	Febrero	2023-09-02T00:00:00	2024-11-08T02:00:00	2	Temperatura media	17.7
152902	7	Sololá	712	San Antonio Palopó	9	San Antonio Palopo	2	Febrero	2023-09-02T00:00:00	2024-11-08T02:00:00	4	Temperatura máxima	18.1
152903	7	Sololá	712	San Antonio Palopó	9	San Antonio Palopo	2	Febrero	2023-09-02T00:00:00	2024-11-08T02:00:00	3	Temperatura mínima	17.7
152904	7	Sololá	712	San Antonio Palopó	9	San Antonio Palopo	2	Febrero	2023-09-02T00:00:00	2024-11-08T02:00:00	5	Humedad	69
152905	7	Sololá	712	San Antonio Palopó	9	San Antonio Palopo	2	Febrero	2023-09-02T00:00:00	2024-11-08T02:00:00	6	Velocidad del viento	6.4
152906	7	Sololá	712	San Antonio Palopó	9	San Antonio Palopo	2	Febrero	2023-09-02T00:00:00	2024-11-08T02:00:00	7	Dirección del viento	6.44
152907	7	Sololá	712	San Antonio Palopó	9	San Antonio Palopo	2	Febrero	2023-09-02T00:00:00	2024-11-08T02:00:00	1	Precipitación	0
152908	7	Sololá	712	San Antonio Palopó	9	San Antonio Palopo	2	Febrero	2023-09-02T00:00:00	2024-11-08T02:00:00	8	Radiación solar	0
152909	7	Sololá	712	San Antonio Palopó	9	San Antonio Palopo	2	Febrero	2023-09-02T00:00:00	2024-11-08T03:00:00	2	Temperatura media	16.9
152910	7	Sololá	712	San Antonio Palopó	9	San Antonio Palopo	2	Febrero	2023-09-02T00:00:00	2024-11-08T03:00:00	4	Temperatura máxima	17.9
152911	7	Sololá	712	San Antonio Palopó	9	San Antonio Palopo	2	Febrero	2023-09-02T00:00:00	2024-11-08T03:00:00	3	Temperatura mínima	16.7
152912	7	Sololá	712	San Antonio Palopó	9	San Antonio Palopo	2	Febrero	2023-09-02T00:00:00	2024-11-08T03:00:00	5	Humedad	68
152913	7	Sololá	712	San Antonio Palopó	9	San Antonio Palopo	2	Febrero	2023-09-02T00:00:00	2024-11-08T03:00:00	6	Velocidad del viento	4.8
152914	7	Sololá	712	San Antonio Palopó	9	San Antonio Palopo	2	Febrero	2023-09-02T00:00:00	2024-11-08T03:00:00	7	Dirección del viento	4.83
152915	7	Sololá	712	San Antonio Palopó	9	San Antonio Palopo	2	Febrero	2023-09-02T00:00:00	2024-11-08T03:00:00	1	Precipitación	0
152916	7	Sololá	712	San Antonio Palopó	9	San Antonio Palopo	2	Febrero	2023-09-02T00:00:00	2024-11-08T03:00:00	8	Radiación solar	0
152917	7	Sololá	712	San Antonio Palopó	9	San Antonio Palopo	2	Febrero	2023-09-02T00:00:00	2024-11-08T04:00:00	2	Temperatura media	16.8
152918	7	Sololá	712	San Antonio Palopó	9	San Antonio Palopo	2	Febrero	2023-09-02T00:00:00	2024-11-08T04:00:00	4	Temperatura máxima	17.4
152919	7	Sololá	712	San Antonio Palopó	9	San Antonio Palopo	2	Febrero	2023-09-02T00:00:00	2024-11-08T04:00:00	3	Temperatura mínima	16.8
152920	7	Sololá	712	San Antonio Palopó	9	San Antonio Palopo	2	Febrero	2023-09-02T00:00:00	2024-11-08T04:00:00	5	Humedad	66
152921	7	Sololá	712	San Antonio Palopó	9	San Antonio Palopo	2	Febrero	2023-09-02T00:00:00	2024-11-08T04:00:00	6	Velocidad del viento	6.4
152922	7	Sololá	712	San Antonio Palopó	9	San Antonio Palopo	2	Febrero	2023-09-02T00:00:00	2024-11-08T04:00:00	7	Dirección del viento	6.44
152923	7	Sololá	712	San Antonio Palopó	9	San Antonio Palopo	2	Febrero	2023-09-02T00:00:00	2024-11-08T04:00:00	1	Precipitación	0
152924	7	Sololá	712	San Antonio Palopó	9	San Antonio Palopo	2	Febrero	2023-09-02T00:00:00	2024-11-08T04:00:00	8	Radiación solar	0
152925	7	Sololá	712	San Antonio Palopó	9	San Antonio Palopo	2	Febrero	2023-09-02T00:00:00	2024-11-08T05:00:00	2	Temperatura media	15.8
152926	7	Sololá	712	San Antonio Palopó	9	San Antonio Palopo	2	Febrero	2023-09-02T00:00:00	2024-11-08T05:00:00	4	Temperatura máxima	16.8
152927	7	Sololá	712	San Antonio Palopó	9	San Antonio Palopo	2	Febrero	2023-09-02T00:00:00	2024-11-08T05:00:00	3	Temperatura mínima	15.8
152928	7	Sololá	712	San Antonio Palopó	9	San Antonio Palopo	2	Febrero	2023-09-02T00:00:00	2024-11-08T05:00:00	5	Humedad	70
152929	7	Sololá	712	San Antonio Palopó	9	San Antonio Palopo	2	Febrero	2023-09-02T00:00:00	2024-11-08T05:00:00	6	Velocidad del viento	16.1
152930	7	Sololá	712	San Antonio Palopó	9	San Antonio Palopo	2	Febrero	2023-09-02T00:00:00	2024-11-08T05:00:00	7	Dirección del viento	16.09
152931	7	Sololá	712	San Antonio Palopó	9	San Antonio Palopo	2	Febrero	2023-09-02T00:00:00	2024-11-08T05:00:00	1	Precipitación	0
152932	7	Sololá	712	San Antonio Palopó	9	San Antonio Palopo	2	Febrero	2023-09-02T00:00:00	2024-11-08T05:00:00	8	Radiación solar	0
152933	7	Sololá	712	San Antonio Palopó	9	San Antonio Palopo	2	Febrero	2023-09-02T00:00:00	2024-11-08T06:00:00	2	Temperatura media	15.3
152934	7	Sololá	712	San Antonio Palopó	9	San Antonio Palopo	2	Febrero	2023-09-02T00:00:00	2024-11-08T06:00:00	4	Temperatura máxima	15.8
152935	7	Sololá	712	San Antonio Palopó	9	San Antonio Palopo	2	Febrero	2023-09-02T00:00:00	2024-11-08T06:00:00	3	Temperatura mínima	15.2
152936	7	Sololá	712	San Antonio Palopó	9	San Antonio Palopo	2	Febrero	2023-09-02T00:00:00	2024-11-08T06:00:00	5	Humedad	73
152937	7	Sololá	712	San Antonio Palopó	9	San Antonio Palopo	2	Febrero	2023-09-02T00:00:00	2024-11-08T06:00:00	6	Velocidad del viento	16.1
152938	7	Sololá	712	San Antonio Palopó	9	San Antonio Palopo	2	Febrero	2023-09-02T00:00:00	2024-11-08T06:00:00	7	Dirección del viento	16.09
152939	7	Sololá	712	San Antonio Palopó	9	San Antonio Palopo	2	Febrero	2023-09-02T00:00:00	2024-11-08T06:00:00	1	Precipitación	0
152940	7	Sololá	712	San Antonio Palopó	9	San Antonio Palopo	2	Febrero	2023-09-02T00:00:00	2024-11-08T06:00:00	8	Radiación solar	0
152941	7	Sololá	712	San Antonio Palopó	9	San Antonio Palopo	2	Febrero	2023-09-02T00:00:00	2024-11-08T07:00:00	2	Temperatura media	15.3
152942	7	Sololá	712	San Antonio Palopó	9	San Antonio Palopo	2	Febrero	2023-09-02T00:00:00	2024-11-08T07:00:00	4	Temperatura máxima	15.6
152943	7	Sololá	712	San Antonio Palopó	9	San Antonio Palopo	2	Febrero	2023-09-02T00:00:00	2024-11-08T07:00:00	3	Temperatura mínima	15.3
152944	7	Sololá	712	San Antonio Palopó	9	San Antonio Palopo	2	Febrero	2023-09-02T00:00:00	2024-11-08T07:00:00	5	Humedad	73
152945	7	Sololá	712	San Antonio Palopó	9	San Antonio Palopo	2	Febrero	2023-09-02T00:00:00	2024-11-08T07:00:00	6	Velocidad del viento	11.3
152946	7	Sololá	712	San Antonio Palopó	9	San Antonio Palopo	2	Febrero	2023-09-02T00:00:00	2024-11-08T07:00:00	7	Dirección del viento	11.27
152947	7	Sololá	712	San Antonio Palopó	9	San Antonio Palopo	2	Febrero	2023-09-02T00:00:00	2024-11-08T07:00:00	1	Precipitación	0
152948	7	Sololá	712	San Antonio Palopó	9	San Antonio Palopo	2	Febrero	2023-09-02T00:00:00	2024-11-08T07:00:00	8	Radiación solar	4
152949	7	Sololá	712	San Antonio Palopó	9	San Antonio Palopo	2	Febrero	2023-09-02T00:00:00	2024-11-08T08:00:00	2	Temperatura media	16.2
152950	7	Sololá	712	San Antonio Palopó	9	San Antonio Palopo	2	Febrero	2023-09-02T00:00:00	2024-11-08T08:00:00	4	Temperatura máxima	16.2
152951	7	Sololá	712	San Antonio Palopó	9	San Antonio Palopo	2	Febrero	2023-09-02T00:00:00	2024-11-08T08:00:00	3	Temperatura mínima	15.1
152952	7	Sololá	712	San Antonio Palopó	9	San Antonio Palopo	2	Febrero	2023-09-02T00:00:00	2024-11-08T08:00:00	5	Humedad	70
152953	7	Sololá	712	San Antonio Palopó	9	San Antonio Palopo	2	Febrero	2023-09-02T00:00:00	2024-11-08T08:00:00	6	Velocidad del viento	11.3
152954	7	Sololá	712	San Antonio Palopó	9	San Antonio Palopo	2	Febrero	2023-09-02T00:00:00	2024-11-08T08:00:00	7	Dirección del viento	11.27
152955	7	Sololá	712	San Antonio Palopó	9	San Antonio Palopo	2	Febrero	2023-09-02T00:00:00	2024-11-08T08:00:00	1	Precipitación	0
152956	7	Sololá	712	San Antonio Palopó	9	San Antonio Palopo	2	Febrero	2023-09-02T00:00:00	2024-11-08T08:00:00	8	Radiación solar	20
152957	7	Sololá	712	San Antonio Palopó	9	San Antonio Palopo	2	Febrero	2023-09-02T00:00:00	2024-11-08T09:00:00	2	Temperatura media	18.4
152958	7	Sololá	712	San Antonio Palopó	9	San Antonio Palopo	2	Febrero	2023-09-02T00:00:00	2024-11-08T09:00:00	4	Temperatura máxima	18.4
152959	7	Sololá	712	San Antonio Palopó	9	San Antonio Palopo	2	Febrero	2023-09-02T00:00:00	2024-11-08T09:00:00	3	Temperatura mínima	16.2
152960	7	Sololá	712	San Antonio Palopó	9	San Antonio Palopo	2	Febrero	2023-09-02T00:00:00	2024-11-08T09:00:00	5	Humedad	66
152961	7	Sololá	712	San Antonio Palopó	9	San Antonio Palopo	2	Febrero	2023-09-02T00:00:00	2024-11-08T09:00:00	6	Velocidad del viento	3.2
152962	7	Sololá	712	San Antonio Palopó	9	San Antonio Palopo	2	Febrero	2023-09-02T00:00:00	2024-11-08T09:00:00	7	Dirección del viento	3.22
152963	7	Sololá	712	San Antonio Palopó	9	San Antonio Palopo	2	Febrero	2023-09-02T00:00:00	2024-11-08T09:00:00	1	Precipitación	0
152964	7	Sololá	712	San Antonio Palopó	9	San Antonio Palopo	2	Febrero	2023-09-02T00:00:00	2024-11-08T09:00:00	8	Radiación solar	227
152965	7	Sololá	712	San Antonio Palopó	9	San Antonio Palopo	2	Febrero	2023-09-02T00:00:00	2024-11-08T10:00:00	2	Temperatura media	19.7
152966	7	Sololá	712	San Antonio Palopó	9	San Antonio Palopo	2	Febrero	2023-09-02T00:00:00	2024-11-08T10:00:00	4	Temperatura máxima	19.8
152967	7	Sololá	712	San Antonio Palopó	9	San Antonio Palopo	2	Febrero	2023-09-02T00:00:00	2024-11-08T10:00:00	3	Temperatura mínima	18.4
152968	7	Sololá	712	San Antonio Palopó	9	San Antonio Palopo	2	Febrero	2023-09-02T00:00:00	2024-11-08T10:00:00	5	Humedad	67
152969	7	Sololá	712	San Antonio Palopó	9	San Antonio Palopo	2	Febrero	2023-09-02T00:00:00	2024-11-08T10:00:00	6	Velocidad del viento	3.2
152970	7	Sololá	712	San Antonio Palopó	9	San Antonio Palopo	2	Febrero	2023-09-02T00:00:00	2024-11-08T10:00:00	7	Dirección del viento	3.22
152971	7	Sololá	712	San Antonio Palopó	9	San Antonio Palopo	2	Febrero	2023-09-02T00:00:00	2024-11-08T10:00:00	1	Precipitación	0
152972	7	Sololá	712	San Antonio Palopó	9	San Antonio Palopo	2	Febrero	2023-09-02T00:00:00	2024-11-08T10:00:00	8	Radiación solar	566
152973	7	Sololá	712	San Antonio Palopó	9	San Antonio Palopo	2	Febrero	2023-09-02T00:00:00	2024-11-08T11:00:00	2	Temperatura media	20.1
152974	7	Sololá	712	San Antonio Palopó	9	San Antonio Palopo	2	Febrero	2023-09-02T00:00:00	2024-11-08T11:00:00	4	Temperatura máxima	20.1
152975	7	Sololá	712	San Antonio Palopó	9	San Antonio Palopo	2	Febrero	2023-09-02T00:00:00	2024-11-08T11:00:00	3	Temperatura mínima	19.4
152976	7	Sololá	712	San Antonio Palopó	9	San Antonio Palopo	2	Febrero	2023-09-02T00:00:00	2024-11-08T11:00:00	5	Humedad	71
152977	7	Sololá	712	San Antonio Palopó	9	San Antonio Palopo	2	Febrero	2023-09-02T00:00:00	2024-11-08T11:00:00	6	Velocidad del viento	3.2
152978	7	Sololá	712	San Antonio Palopó	9	San Antonio Palopo	2	Febrero	2023-09-02T00:00:00	2024-11-08T11:00:00	7	Dirección del viento	3.22
152979	7	Sololá	712	San Antonio Palopó	9	San Antonio Palopo	2	Febrero	2023-09-02T00:00:00	2024-11-08T11:00:00	1	Precipitación	0
152980	7	Sololá	712	San Antonio Palopó	9	San Antonio Palopo	2	Febrero	2023-09-02T00:00:00	2024-11-08T11:00:00	8	Radiación solar	716
152981	7	Sololá	712	San Antonio Palopó	9	San Antonio Palopo	2	Febrero	2023-09-02T00:00:00	2024-11-08T12:00:00	2	Temperatura media	22.7
152982	7	Sololá	712	San Antonio Palopó	9	San Antonio Palopo	2	Febrero	2023-09-02T00:00:00	2024-11-08T12:00:00	4	Temperatura máxima	23.6
152983	7	Sololá	712	San Antonio Palopó	9	San Antonio Palopo	2	Febrero	2023-09-02T00:00:00	2024-11-08T12:00:00	3	Temperatura mínima	20.1
152984	7	Sololá	712	San Antonio Palopó	9	San Antonio Palopo	2	Febrero	2023-09-02T00:00:00	2024-11-08T12:00:00	5	Humedad	57
152985	7	Sololá	712	San Antonio Palopó	9	San Antonio Palopo	2	Febrero	2023-09-02T00:00:00	2024-11-08T12:00:00	6	Velocidad del viento	8
152986	7	Sololá	712	San Antonio Palopó	9	San Antonio Palopo	2	Febrero	2023-09-02T00:00:00	2024-11-08T12:00:00	7	Dirección del viento	8.05
152987	7	Sololá	712	San Antonio Palopó	9	San Antonio Palopo	2	Febrero	2023-09-02T00:00:00	2024-11-08T12:00:00	1	Precipitación	0
152988	7	Sololá	712	San Antonio Palopó	9	San Antonio Palopo	2	Febrero	2023-09-02T00:00:00	2024-11-08T12:00:00	8	Radiación solar	732
152989	7	Sololá	712	San Antonio Palopó	9	San Antonio Palopo	2	Febrero	2023-09-02T00:00:00	2024-11-08T13:00:00	2	Temperatura media	23.3
152990	7	Sololá	712	San Antonio Palopó	9	San Antonio Palopo	2	Febrero	2023-09-02T00:00:00	2024-11-08T13:00:00	4	Temperatura máxima	23.6
152991	7	Sololá	712	San Antonio Palopó	9	San Antonio Palopo	2	Febrero	2023-09-02T00:00:00	2024-11-08T13:00:00	3	Temperatura mínima	22.7
152992	7	Sololá	712	San Antonio Palopó	9	San Antonio Palopo	2	Febrero	2023-09-02T00:00:00	2024-11-08T13:00:00	5	Humedad	62
152993	7	Sololá	712	San Antonio Palopó	9	San Antonio Palopo	2	Febrero	2023-09-02T00:00:00	2024-11-08T13:00:00	6	Velocidad del viento	12.9
152994	7	Sololá	712	San Antonio Palopó	9	San Antonio Palopo	2	Febrero	2023-09-02T00:00:00	2024-11-08T13:00:00	7	Dirección del viento	12.87
152995	7	Sololá	712	San Antonio Palopó	9	San Antonio Palopo	2	Febrero	2023-09-02T00:00:00	2024-11-08T13:00:00	1	Precipitación	0
152996	7	Sololá	712	San Antonio Palopó	9	San Antonio Palopo	2	Febrero	2023-09-02T00:00:00	2024-11-08T13:00:00	8	Radiación solar	841
152997	7	Sololá	712	San Antonio Palopó	9	San Antonio Palopo	2	Febrero	2023-09-02T00:00:00	2024-11-08T14:00:00	2	Temperatura media	22.6
152998	7	Sololá	712	San Antonio Palopó	9	San Antonio Palopo	2	Febrero	2023-09-02T00:00:00	2024-11-08T14:00:00	4	Temperatura máxima	23.4
152999	7	Sololá	712	San Antonio Palopó	9	San Antonio Palopo	2	Febrero	2023-09-02T00:00:00	2024-11-08T14:00:00	3	Temperatura mínima	22.4
153000	7	Sololá	712	San Antonio Palopó	9	San Antonio Palopo	2	Febrero	2023-09-02T00:00:00	2024-11-08T14:00:00	5	Humedad	69
153001	7	Sololá	712	San Antonio Palopó	9	San Antonio Palopo	2	Febrero	2023-09-02T00:00:00	2024-11-08T14:00:00	6	Velocidad del viento	12.9
153002	7	Sololá	712	San Antonio Palopó	9	San Antonio Palopo	2	Febrero	2023-09-02T00:00:00	2024-11-08T14:00:00	7	Dirección del viento	12.87
153003	7	Sololá	712	San Antonio Palopó	9	San Antonio Palopo	2	Febrero	2023-09-02T00:00:00	2024-11-08T14:00:00	1	Precipitación	0
153004	7	Sololá	712	San Antonio Palopó	9	San Antonio Palopo	2	Febrero	2023-09-02T00:00:00	2024-11-08T14:00:00	8	Radiación solar	796
153005	7	Sololá	712	San Antonio Palopó	9	San Antonio Palopo	2	Febrero	2023-09-02T00:00:00	2024-11-08T15:00:00	2	Temperatura media	22.6
153006	7	Sololá	712	San Antonio Palopó	9	San Antonio Palopo	2	Febrero	2023-09-02T00:00:00	2024-11-08T15:00:00	4	Temperatura máxima	23.1
153007	7	Sololá	712	San Antonio Palopó	9	San Antonio Palopo	2	Febrero	2023-09-02T00:00:00	2024-11-08T15:00:00	3	Temperatura mínima	22.1
153008	7	Sololá	712	San Antonio Palopó	9	San Antonio Palopo	2	Febrero	2023-09-02T00:00:00	2024-11-08T15:00:00	5	Humedad	68
153009	7	Sololá	712	San Antonio Palopó	9	San Antonio Palopo	2	Febrero	2023-09-02T00:00:00	2024-11-08T15:00:00	6	Velocidad del viento	9.7
153010	7	Sololá	712	San Antonio Palopó	9	San Antonio Palopo	2	Febrero	2023-09-02T00:00:00	2024-11-08T15:00:00	7	Dirección del viento	9.66
153011	7	Sololá	712	San Antonio Palopó	9	San Antonio Palopo	2	Febrero	2023-09-02T00:00:00	2024-11-08T15:00:00	1	Precipitación	0
153012	7	Sololá	712	San Antonio Palopó	9	San Antonio Palopo	2	Febrero	2023-09-02T00:00:00	2024-11-08T15:00:00	8	Radiación solar	389
153013	7	Sololá	712	San Antonio Palopó	9	San Antonio Palopo	2	Febrero	2023-09-02T00:00:00	2024-11-08T16:00:00	2	Temperatura media	22.4
153014	7	Sololá	712	San Antonio Palopó	9	San Antonio Palopo	2	Febrero	2023-09-02T00:00:00	2024-11-08T16:00:00	4	Temperatura máxima	22.8
153015	7	Sololá	712	San Antonio Palopó	9	San Antonio Palopo	2	Febrero	2023-09-02T00:00:00	2024-11-08T16:00:00	3	Temperatura mínima	22.2
153016	7	Sololá	712	San Antonio Palopó	9	San Antonio Palopo	2	Febrero	2023-09-02T00:00:00	2024-11-08T16:00:00	5	Humedad	70
153017	7	Sololá	712	San Antonio Palopó	9	San Antonio Palopo	2	Febrero	2023-09-02T00:00:00	2024-11-08T16:00:00	6	Velocidad del viento	6.4
153018	7	Sololá	712	San Antonio Palopó	9	San Antonio Palopo	2	Febrero	2023-09-02T00:00:00	2024-11-08T16:00:00	7	Dirección del viento	6.44
153019	7	Sololá	712	San Antonio Palopó	9	San Antonio Palopo	2	Febrero	2023-09-02T00:00:00	2024-11-08T16:00:00	1	Precipitación	0
153020	7	Sololá	712	San Antonio Palopó	9	San Antonio Palopo	2	Febrero	2023-09-02T00:00:00	2024-11-08T16:00:00	8	Radiación solar	265
153021	7	Sololá	712	San Antonio Palopó	9	San Antonio Palopo	2	Febrero	2023-09-02T00:00:00	2024-11-08T17:00:00	2	Temperatura media	22.2
153022	7	Sololá	712	San Antonio Palopó	9	San Antonio Palopo	2	Febrero	2023-09-02T00:00:00	2024-11-08T17:00:00	4	Temperatura máxima	22.9
153023	7	Sololá	712	San Antonio Palopó	9	San Antonio Palopo	2	Febrero	2023-09-02T00:00:00	2024-11-08T17:00:00	3	Temperatura mínima	21.7
153024	7	Sololá	712	San Antonio Palopó	9	San Antonio Palopo	2	Febrero	2023-09-02T00:00:00	2024-11-08T17:00:00	5	Humedad	78
153025	7	Sololá	712	San Antonio Palopó	9	San Antonio Palopo	2	Febrero	2023-09-02T00:00:00	2024-11-08T17:00:00	6	Velocidad del viento	6.4
153026	7	Sololá	712	San Antonio Palopó	9	San Antonio Palopo	2	Febrero	2023-09-02T00:00:00	2024-11-08T17:00:00	7	Dirección del viento	6.44
153027	7	Sololá	712	San Antonio Palopó	9	San Antonio Palopo	2	Febrero	2023-09-02T00:00:00	2024-11-08T17:00:00	1	Precipitación	0
153028	7	Sololá	712	San Antonio Palopó	9	San Antonio Palopo	2	Febrero	2023-09-02T00:00:00	2024-11-08T17:00:00	8	Radiación solar	168
153029	7	Sololá	712	San Antonio Palopó	9	San Antonio Palopo	2	Febrero	2023-09-02T00:00:00	2024-11-08T18:00:00	2	Temperatura media	21
153030	7	Sololá	712	San Antonio Palopó	9	San Antonio Palopo	2	Febrero	2023-09-02T00:00:00	2024-11-08T18:00:00	4	Temperatura máxima	22.3
153031	7	Sololá	712	San Antonio Palopó	9	San Antonio Palopo	2	Febrero	2023-09-02T00:00:00	2024-11-08T18:00:00	3	Temperatura mínima	20.8
153032	7	Sololá	712	San Antonio Palopó	9	San Antonio Palopo	2	Febrero	2023-09-02T00:00:00	2024-11-08T18:00:00	5	Humedad	77
153033	7	Sololá	712	San Antonio Palopó	9	San Antonio Palopo	2	Febrero	2023-09-02T00:00:00	2024-11-08T18:00:00	6	Velocidad del viento	4.8
153034	7	Sololá	712	San Antonio Palopó	9	San Antonio Palopo	2	Febrero	2023-09-02T00:00:00	2024-11-08T18:00:00	7	Dirección del viento	4.83
153035	7	Sololá	712	San Antonio Palopó	9	San Antonio Palopo	2	Febrero	2023-09-02T00:00:00	2024-11-08T18:00:00	1	Precipitación	0
153036	7	Sololá	712	San Antonio Palopó	9	San Antonio Palopo	2	Febrero	2023-09-02T00:00:00	2024-11-08T18:00:00	8	Radiación solar	46
153037	7	Sololá	712	San Antonio Palopó	9	San Antonio Palopo	2	Febrero	2023-09-02T00:00:00	2024-11-08T19:00:00	2	Temperatura media	20.6
153038	7	Sololá	712	San Antonio Palopó	9	San Antonio Palopo	2	Febrero	2023-09-02T00:00:00	2024-11-08T19:00:00	4	Temperatura máxima	21
153039	7	Sololá	712	San Antonio Palopó	9	San Antonio Palopo	2	Febrero	2023-09-02T00:00:00	2024-11-08T19:00:00	3	Temperatura mínima	20
153040	7	Sololá	712	San Antonio Palopó	9	San Antonio Palopo	2	Febrero	2023-09-02T00:00:00	2024-11-08T19:00:00	5	Humedad	62
153041	7	Sololá	712	San Antonio Palopó	9	San Antonio Palopo	2	Febrero	2023-09-02T00:00:00	2024-11-08T19:00:00	6	Velocidad del viento	3.2
153042	7	Sololá	712	San Antonio Palopó	9	San Antonio Palopo	2	Febrero	2023-09-02T00:00:00	2024-11-08T19:00:00	7	Dirección del viento	3.22
153043	7	Sololá	712	San Antonio Palopó	9	San Antonio Palopo	2	Febrero	2023-09-02T00:00:00	2024-11-08T19:00:00	1	Precipitación	0
153044	7	Sololá	712	San Antonio Palopó	9	San Antonio Palopo	2	Febrero	2023-09-02T00:00:00	2024-11-08T19:00:00	8	Radiación solar	0
153045	7	Sololá	712	San Antonio Palopó	9	San Antonio Palopo	2	Febrero	2023-09-02T00:00:00	2024-11-08T20:00:00	2	Temperatura media	19.7
153046	7	Sololá	712	San Antonio Palopó	9	San Antonio Palopo	2	Febrero	2023-09-02T00:00:00	2024-11-08T20:00:00	4	Temperatura máxima	20.6
153047	7	Sololá	712	San Antonio Palopó	9	San Antonio Palopo	2	Febrero	2023-09-02T00:00:00	2024-11-08T20:00:00	3	Temperatura mínima	19.7
153048	7	Sololá	712	San Antonio Palopó	9	San Antonio Palopo	2	Febrero	2023-09-02T00:00:00	2024-11-08T20:00:00	5	Humedad	63
153049	7	Sololá	712	San Antonio Palopó	9	San Antonio Palopo	2	Febrero	2023-09-02T00:00:00	2024-11-08T20:00:00	6	Velocidad del viento	6.4
153050	7	Sololá	712	San Antonio Palopó	9	San Antonio Palopo	2	Febrero	2023-09-02T00:00:00	2024-11-08T20:00:00	7	Dirección del viento	6.44
153051	7	Sololá	712	San Antonio Palopó	9	San Antonio Palopo	2	Febrero	2023-09-02T00:00:00	2024-11-08T20:00:00	1	Precipitación	0
153052	7	Sololá	712	San Antonio Palopó	9	San Antonio Palopo	2	Febrero	2023-09-02T00:00:00	2024-11-08T20:00:00	8	Radiación solar	0
153053	7	Sololá	712	San Antonio Palopó	9	San Antonio Palopo	2	Febrero	2023-09-02T00:00:00	2024-11-08T21:00:00	2	Temperatura media	19.1
153054	7	Sololá	712	San Antonio Palopó	9	San Antonio Palopo	2	Febrero	2023-09-02T00:00:00	2024-11-08T21:00:00	4	Temperatura máxima	19.7
153055	7	Sololá	712	San Antonio Palopó	9	San Antonio Palopo	2	Febrero	2023-09-02T00:00:00	2024-11-08T21:00:00	3	Temperatura mínima	19
153056	7	Sololá	712	San Antonio Palopó	9	San Antonio Palopo	2	Febrero	2023-09-02T00:00:00	2024-11-08T21:00:00	5	Humedad	64
153057	7	Sololá	712	San Antonio Palopó	9	San Antonio Palopo	2	Febrero	2023-09-02T00:00:00	2024-11-08T21:00:00	6	Velocidad del viento	4.8
153058	7	Sololá	712	San Antonio Palopó	9	San Antonio Palopo	2	Febrero	2023-09-02T00:00:00	2024-11-08T21:00:00	7	Dirección del viento	4.83
153059	7	Sololá	712	San Antonio Palopó	9	San Antonio Palopo	2	Febrero	2023-09-02T00:00:00	2024-11-08T21:00:00	1	Precipitación	0
153060	7	Sololá	712	San Antonio Palopó	9	San Antonio Palopo	2	Febrero	2023-09-02T00:00:00	2024-11-08T21:00:00	8	Radiación solar	0
153061	7	Sololá	712	San Antonio Palopó	9	San Antonio Palopo	2	Febrero	2023-09-02T00:00:00	2024-11-08T22:00:00	2	Temperatura media	18.7
153062	7	Sololá	712	San Antonio Palopó	9	San Antonio Palopo	2	Febrero	2023-09-02T00:00:00	2024-11-08T22:00:00	4	Temperatura máxima	19.3
153063	7	Sololá	712	San Antonio Palopó	9	San Antonio Palopo	2	Febrero	2023-09-02T00:00:00	2024-11-08T22:00:00	3	Temperatura mínima	18.6
153064	7	Sololá	712	San Antonio Palopó	9	San Antonio Palopo	2	Febrero	2023-09-02T00:00:00	2024-11-08T22:00:00	5	Humedad	66
153065	7	Sololá	712	San Antonio Palopó	9	San Antonio Palopo	2	Febrero	2023-09-02T00:00:00	2024-11-08T22:00:00	6	Velocidad del viento	11.3
153066	7	Sololá	712	San Antonio Palopó	9	San Antonio Palopo	2	Febrero	2023-09-02T00:00:00	2024-11-08T22:00:00	7	Dirección del viento	11.27
153067	7	Sololá	712	San Antonio Palopó	9	San Antonio Palopo	2	Febrero	2023-09-02T00:00:00	2024-11-08T22:00:00	1	Precipitación	0
153068	7	Sololá	712	San Antonio Palopó	9	San Antonio Palopo	2	Febrero	2023-09-02T00:00:00	2024-11-08T22:00:00	8	Radiación solar	0
153069	7	Sololá	712	San Antonio Palopó	9	San Antonio Palopo	2	Febrero	2023-09-02T00:00:00	2024-11-08T23:00:00	2	Temperatura media	18.2
153070	7	Sololá	712	San Antonio Palopó	9	San Antonio Palopo	2	Febrero	2023-09-02T00:00:00	2024-11-08T23:00:00	4	Temperatura máxima	18.7
153071	7	Sololá	712	San Antonio Palopó	9	San Antonio Palopo	2	Febrero	2023-09-02T00:00:00	2024-11-08T23:00:00	3	Temperatura mínima	18.1
153072	7	Sololá	712	San Antonio Palopó	9	San Antonio Palopo	2	Febrero	2023-09-02T00:00:00	2024-11-08T23:00:00	5	Humedad	67
153073	7	Sololá	712	San Antonio Palopó	9	San Antonio Palopo	2	Febrero	2023-09-02T00:00:00	2024-11-08T23:00:00	6	Velocidad del viento	11.3
153074	7	Sololá	712	San Antonio Palopó	9	San Antonio Palopo	2	Febrero	2023-09-02T00:00:00	2024-11-08T23:00:00	7	Dirección del viento	11.27
153075	7	Sololá	712	San Antonio Palopó	9	San Antonio Palopo	2	Febrero	2023-09-02T00:00:00	2024-11-08T23:00:00	1	Precipitación	0
153076	7	Sololá	712	San Antonio Palopó	9	San Antonio Palopo	2	Febrero	2023-09-02T00:00:00	2024-11-08T23:00:00	8	Radiación solar	0
153077	7	Sololá	712	San Antonio Palopó	9	San Antonio Palopo	2	Febrero	2023-10-02T00:00:00	2024-11-08T00:00:00	2	Temperatura media	17.5
153078	7	Sololá	712	San Antonio Palopó	9	San Antonio Palopo	2	Febrero	2023-10-02T00:00:00	2024-11-08T00:00:00	4	Temperatura máxima	18.3
153079	7	Sololá	712	San Antonio Palopó	9	San Antonio Palopo	2	Febrero	2023-10-02T00:00:00	2024-11-08T00:00:00	3	Temperatura mínima	17.5
153080	7	Sololá	712	San Antonio Palopó	9	San Antonio Palopo	2	Febrero	2023-10-02T00:00:00	2024-11-08T00:00:00	5	Humedad	70
153081	7	Sololá	712	San Antonio Palopó	9	San Antonio Palopo	2	Febrero	2023-10-02T00:00:00	2024-11-08T00:00:00	6	Velocidad del viento	12.9
153082	7	Sololá	712	San Antonio Palopó	9	San Antonio Palopo	2	Febrero	2023-10-02T00:00:00	2024-11-08T00:00:00	7	Dirección del viento	12.87
153083	7	Sololá	712	San Antonio Palopó	9	San Antonio Palopo	2	Febrero	2023-10-02T00:00:00	2024-11-08T00:00:00	1	Precipitación	0
153084	7	Sololá	712	San Antonio Palopó	9	San Antonio Palopo	2	Febrero	2023-10-02T00:00:00	2024-11-08T00:00:00	8	Radiación solar	0
153085	7	Sololá	712	San Antonio Palopó	9	San Antonio Palopo	2	Febrero	2023-10-02T00:00:00	2024-11-08T01:00:00	2	Temperatura media	17.8
153086	7	Sololá	712	San Antonio Palopó	9	San Antonio Palopo	2	Febrero	2023-10-02T00:00:00	2024-11-08T01:00:00	4	Temperatura máxima	17.8
153087	7	Sololá	712	San Antonio Palopó	9	San Antonio Palopo	2	Febrero	2023-10-02T00:00:00	2024-11-08T01:00:00	3	Temperatura mínima	17.4
153088	7	Sololá	712	San Antonio Palopó	9	San Antonio Palopo	2	Febrero	2023-10-02T00:00:00	2024-11-08T01:00:00	5	Humedad	68
153089	7	Sololá	712	San Antonio Palopó	9	San Antonio Palopo	2	Febrero	2023-10-02T00:00:00	2024-11-08T01:00:00	6	Velocidad del viento	11.3
153090	7	Sololá	712	San Antonio Palopó	9	San Antonio Palopo	2	Febrero	2023-10-02T00:00:00	2024-11-08T01:00:00	7	Dirección del viento	11.27
153091	7	Sololá	712	San Antonio Palopó	9	San Antonio Palopo	2	Febrero	2023-10-02T00:00:00	2024-11-08T01:00:00	1	Precipitación	0
153092	7	Sololá	712	San Antonio Palopó	9	San Antonio Palopo	2	Febrero	2023-10-02T00:00:00	2024-11-08T01:00:00	8	Radiación solar	0
153093	7	Sololá	712	San Antonio Palopó	9	San Antonio Palopo	2	Febrero	2023-10-02T00:00:00	2024-11-08T02:00:00	2	Temperatura media	17.1
153094	7	Sololá	712	San Antonio Palopó	9	San Antonio Palopo	2	Febrero	2023-10-02T00:00:00	2024-11-08T02:00:00	4	Temperatura máxima	17.8
153095	7	Sololá	712	San Antonio Palopó	9	San Antonio Palopo	2	Febrero	2023-10-02T00:00:00	2024-11-08T02:00:00	3	Temperatura mínima	17
153096	7	Sololá	712	San Antonio Palopó	9	San Antonio Palopo	2	Febrero	2023-10-02T00:00:00	2024-11-08T02:00:00	5	Humedad	71
153097	7	Sololá	712	San Antonio Palopó	9	San Antonio Palopo	2	Febrero	2023-10-02T00:00:00	2024-11-08T02:00:00	6	Velocidad del viento	6.4
153098	7	Sololá	712	San Antonio Palopó	9	San Antonio Palopo	2	Febrero	2023-10-02T00:00:00	2024-11-08T02:00:00	7	Dirección del viento	6.44
153099	7	Sololá	712	San Antonio Palopó	9	San Antonio Palopo	2	Febrero	2023-10-02T00:00:00	2024-11-08T02:00:00	1	Precipitación	0
153100	7	Sololá	712	San Antonio Palopó	9	San Antonio Palopo	2	Febrero	2023-10-02T00:00:00	2024-11-08T02:00:00	8	Radiación solar	0
153101	7	Sololá	712	San Antonio Palopó	9	San Antonio Palopo	2	Febrero	2023-10-02T00:00:00	2024-11-08T03:00:00	2	Temperatura media	16.8
153102	7	Sololá	712	San Antonio Palopó	9	San Antonio Palopo	2	Febrero	2023-10-02T00:00:00	2024-11-08T03:00:00	4	Temperatura máxima	17.1
153103	7	Sololá	712	San Antonio Palopó	9	San Antonio Palopo	2	Febrero	2023-10-02T00:00:00	2024-11-08T03:00:00	3	Temperatura mínima	16.7
153104	7	Sololá	712	San Antonio Palopó	9	San Antonio Palopo	2	Febrero	2023-10-02T00:00:00	2024-11-08T03:00:00	5	Humedad	72
153105	7	Sololá	712	San Antonio Palopó	9	San Antonio Palopo	2	Febrero	2023-10-02T00:00:00	2024-11-08T03:00:00	6	Velocidad del viento	9.7
153106	7	Sololá	712	San Antonio Palopó	9	San Antonio Palopo	2	Febrero	2023-10-02T00:00:00	2024-11-08T03:00:00	7	Dirección del viento	9.66
153107	7	Sololá	712	San Antonio Palopó	9	San Antonio Palopo	2	Febrero	2023-10-02T00:00:00	2024-11-08T03:00:00	1	Precipitación	0
153108	7	Sololá	712	San Antonio Palopó	9	San Antonio Palopo	2	Febrero	2023-10-02T00:00:00	2024-11-08T03:00:00	8	Radiación solar	0
153109	7	Sololá	712	San Antonio Palopó	9	San Antonio Palopo	2	Febrero	2023-10-02T00:00:00	2024-11-08T04:00:00	2	Temperatura media	16.1
153110	7	Sololá	712	San Antonio Palopó	9	San Antonio Palopo	2	Febrero	2023-10-02T00:00:00	2024-11-08T04:00:00	4	Temperatura máxima	16.8
153111	7	Sololá	712	San Antonio Palopó	9	San Antonio Palopo	2	Febrero	2023-10-02T00:00:00	2024-11-08T04:00:00	3	Temperatura mínima	16
153112	7	Sololá	712	San Antonio Palopó	9	San Antonio Palopo	2	Febrero	2023-10-02T00:00:00	2024-11-08T04:00:00	5	Humedad	74
153113	7	Sololá	712	San Antonio Palopó	9	San Antonio Palopo	2	Febrero	2023-10-02T00:00:00	2024-11-08T04:00:00	6	Velocidad del viento	16.1
153114	7	Sololá	712	San Antonio Palopó	9	San Antonio Palopo	2	Febrero	2023-10-02T00:00:00	2024-11-08T04:00:00	7	Dirección del viento	16.09
153115	7	Sololá	712	San Antonio Palopó	9	San Antonio Palopo	2	Febrero	2023-10-02T00:00:00	2024-11-08T04:00:00	1	Precipitación	0
153116	7	Sololá	712	San Antonio Palopó	9	San Antonio Palopo	2	Febrero	2023-10-02T00:00:00	2024-11-08T04:00:00	8	Radiación solar	0
153117	7	Sololá	712	San Antonio Palopó	9	San Antonio Palopo	2	Febrero	2023-10-02T00:00:00	2024-11-08T05:00:00	2	Temperatura media	16.1
153118	7	Sololá	712	San Antonio Palopó	9	San Antonio Palopo	2	Febrero	2023-10-02T00:00:00	2024-11-08T05:00:00	4	Temperatura máxima	16.3
153119	7	Sololá	712	San Antonio Palopó	9	San Antonio Palopo	2	Febrero	2023-10-02T00:00:00	2024-11-08T05:00:00	3	Temperatura mínima	15.9
153120	7	Sololá	712	San Antonio Palopó	9	San Antonio Palopo	2	Febrero	2023-10-02T00:00:00	2024-11-08T05:00:00	5	Humedad	74
153121	7	Sololá	712	San Antonio Palopó	9	San Antonio Palopo	2	Febrero	2023-10-02T00:00:00	2024-11-08T05:00:00	6	Velocidad del viento	14.5
153122	7	Sololá	712	San Antonio Palopó	9	San Antonio Palopo	2	Febrero	2023-10-02T00:00:00	2024-11-08T05:00:00	7	Dirección del viento	14.48
153123	7	Sololá	712	San Antonio Palopó	9	San Antonio Palopo	2	Febrero	2023-10-02T00:00:00	2024-11-08T05:00:00	1	Precipitación	0
153124	7	Sololá	712	San Antonio Palopó	9	San Antonio Palopo	2	Febrero	2023-10-02T00:00:00	2024-11-08T05:00:00	8	Radiación solar	0
153125	7	Sololá	712	San Antonio Palopó	9	San Antonio Palopo	2	Febrero	2023-10-02T00:00:00	2024-11-08T06:00:00	2	Temperatura media	15.7
153126	7	Sololá	712	San Antonio Palopó	9	San Antonio Palopo	2	Febrero	2023-10-02T00:00:00	2024-11-08T06:00:00	4	Temperatura máxima	16.1
153127	7	Sololá	712	San Antonio Palopó	9	San Antonio Palopo	2	Febrero	2023-10-02T00:00:00	2024-11-08T06:00:00	3	Temperatura mínima	15.7
153128	7	Sololá	712	San Antonio Palopó	9	San Antonio Palopo	2	Febrero	2023-10-02T00:00:00	2024-11-08T06:00:00	5	Humedad	73
153129	7	Sololá	712	San Antonio Palopó	9	San Antonio Palopo	2	Febrero	2023-10-02T00:00:00	2024-11-08T06:00:00	6	Velocidad del viento	14.5
153130	7	Sololá	712	San Antonio Palopó	9	San Antonio Palopo	2	Febrero	2023-10-02T00:00:00	2024-11-08T06:00:00	7	Dirección del viento	14.48
153131	7	Sololá	712	San Antonio Palopó	9	San Antonio Palopo	2	Febrero	2023-10-02T00:00:00	2024-11-08T06:00:00	1	Precipitación	0
153132	7	Sololá	712	San Antonio Palopó	9	San Antonio Palopo	2	Febrero	2023-10-02T00:00:00	2024-11-08T06:00:00	8	Radiación solar	0
153133	7	Sololá	712	San Antonio Palopó	9	San Antonio Palopo	2	Febrero	2023-10-02T00:00:00	2024-11-08T07:00:00	2	Temperatura media	15.9
153134	7	Sololá	712	San Antonio Palopó	9	San Antonio Palopo	2	Febrero	2023-10-02T00:00:00	2024-11-08T07:00:00	4	Temperatura máxima	16.1
153135	7	Sololá	712	San Antonio Palopó	9	San Antonio Palopo	2	Febrero	2023-10-02T00:00:00	2024-11-08T07:00:00	3	Temperatura mínima	15.7
153136	7	Sololá	712	San Antonio Palopó	9	San Antonio Palopo	2	Febrero	2023-10-02T00:00:00	2024-11-08T07:00:00	5	Humedad	71
153137	7	Sololá	712	San Antonio Palopó	9	San Antonio Palopo	2	Febrero	2023-10-02T00:00:00	2024-11-08T07:00:00	6	Velocidad del viento	11.3
153138	7	Sololá	712	San Antonio Palopó	9	San Antonio Palopo	2	Febrero	2023-10-02T00:00:00	2024-11-08T07:00:00	7	Dirección del viento	11.27
153139	7	Sololá	712	San Antonio Palopó	9	San Antonio Palopo	2	Febrero	2023-10-02T00:00:00	2024-11-08T07:00:00	1	Precipitación	0
153140	7	Sololá	712	San Antonio Palopó	9	San Antonio Palopo	2	Febrero	2023-10-02T00:00:00	2024-11-08T07:00:00	8	Radiación solar	4
153141	7	Sololá	712	San Antonio Palopó	9	San Antonio Palopo	2	Febrero	2023-10-02T00:00:00	2024-11-08T08:00:00	2	Temperatura media	16.6
153142	7	Sololá	712	San Antonio Palopó	9	San Antonio Palopo	2	Febrero	2023-10-02T00:00:00	2024-11-08T08:00:00	4	Temperatura máxima	16.6
153143	7	Sololá	712	San Antonio Palopó	9	San Antonio Palopo	2	Febrero	2023-10-02T00:00:00	2024-11-08T08:00:00	3	Temperatura mínima	15.8
153144	7	Sololá	712	San Antonio Palopó	9	San Antonio Palopo	2	Febrero	2023-10-02T00:00:00	2024-11-08T08:00:00	5	Humedad	69
153145	7	Sololá	712	San Antonio Palopó	9	San Antonio Palopo	2	Febrero	2023-10-02T00:00:00	2024-11-08T08:00:00	6	Velocidad del viento	8
153146	7	Sololá	712	San Antonio Palopó	9	San Antonio Palopo	2	Febrero	2023-10-02T00:00:00	2024-11-08T08:00:00	7	Dirección del viento	8.05
153147	7	Sololá	712	San Antonio Palopó	9	San Antonio Palopo	2	Febrero	2023-10-02T00:00:00	2024-11-08T08:00:00	1	Precipitación	0
153148	7	Sololá	712	San Antonio Palopó	9	San Antonio Palopo	2	Febrero	2023-10-02T00:00:00	2024-11-08T08:00:00	8	Radiación solar	18
153149	7	Sololá	712	San Antonio Palopó	9	San Antonio Palopo	2	Febrero	2023-10-02T00:00:00	2024-11-08T09:00:00	2	Temperatura media	18.4
153150	7	Sololá	712	San Antonio Palopó	9	San Antonio Palopo	2	Febrero	2023-10-02T00:00:00	2024-11-08T09:00:00	4	Temperatura máxima	18.4
153151	7	Sololá	712	San Antonio Palopó	9	San Antonio Palopo	2	Febrero	2023-10-02T00:00:00	2024-11-08T09:00:00	3	Temperatura mínima	16.3
153152	7	Sololá	712	San Antonio Palopó	9	San Antonio Palopo	2	Febrero	2023-10-02T00:00:00	2024-11-08T09:00:00	5	Humedad	64
153153	7	Sololá	712	San Antonio Palopó	9	San Antonio Palopo	2	Febrero	2023-10-02T00:00:00	2024-11-08T09:00:00	6	Velocidad del viento	3.2
153154	7	Sololá	712	San Antonio Palopó	9	San Antonio Palopo	2	Febrero	2023-10-02T00:00:00	2024-11-08T09:00:00	7	Dirección del viento	3.22
153155	7	Sololá	712	San Antonio Palopó	9	San Antonio Palopo	2	Febrero	2023-10-02T00:00:00	2024-11-08T09:00:00	1	Precipitación	0
153156	7	Sololá	712	San Antonio Palopó	9	San Antonio Palopo	2	Febrero	2023-10-02T00:00:00	2024-11-08T09:00:00	8	Radiación solar	229
153157	7	Sololá	712	San Antonio Palopó	9	San Antonio Palopo	2	Febrero	2023-10-02T00:00:00	2024-11-08T10:00:00	2	Temperatura media	19.3
153158	7	Sololá	712	San Antonio Palopó	9	San Antonio Palopo	2	Febrero	2023-10-02T00:00:00	2024-11-08T10:00:00	4	Temperatura máxima	19.9
153159	7	Sololá	712	San Antonio Palopó	9	San Antonio Palopo	2	Febrero	2023-10-02T00:00:00	2024-11-08T10:00:00	3	Temperatura mínima	18.4
153160	7	Sololá	712	San Antonio Palopó	9	San Antonio Palopo	2	Febrero	2023-10-02T00:00:00	2024-11-08T10:00:00	5	Humedad	66
153161	7	Sololá	712	San Antonio Palopó	9	San Antonio Palopo	2	Febrero	2023-10-02T00:00:00	2024-11-08T10:00:00	6	Velocidad del viento	1.6
153162	7	Sololá	712	San Antonio Palopó	9	San Antonio Palopo	2	Febrero	2023-10-02T00:00:00	2024-11-08T10:00:00	7	Dirección del viento	1.61
153163	7	Sololá	712	San Antonio Palopó	9	San Antonio Palopo	2	Febrero	2023-10-02T00:00:00	2024-11-08T10:00:00	1	Precipitación	0
153164	7	Sololá	712	San Antonio Palopó	9	San Antonio Palopo	2	Febrero	2023-10-02T00:00:00	2024-11-08T10:00:00	8	Radiación solar	569
153165	7	Sololá	712	San Antonio Palopó	9	San Antonio Palopo	2	Febrero	2023-10-02T00:00:00	2024-11-08T11:00:00	2	Temperatura media	20.7
153166	7	Sololá	712	San Antonio Palopó	9	San Antonio Palopo	2	Febrero	2023-10-02T00:00:00	2024-11-08T11:00:00	4	Temperatura máxima	20.9
153167	7	Sololá	712	San Antonio Palopó	9	San Antonio Palopo	2	Febrero	2023-10-02T00:00:00	2024-11-08T11:00:00	3	Temperatura mínima	19.3
153168	7	Sololá	712	San Antonio Palopó	9	San Antonio Palopo	2	Febrero	2023-10-02T00:00:00	2024-11-08T11:00:00	5	Humedad	63
153169	7	Sololá	712	San Antonio Palopó	9	San Antonio Palopo	2	Febrero	2023-10-02T00:00:00	2024-11-08T11:00:00	6	Velocidad del viento	3.2
153170	7	Sololá	712	San Antonio Palopó	9	San Antonio Palopo	2	Febrero	2023-10-02T00:00:00	2024-11-08T11:00:00	7	Dirección del viento	3.22
153171	7	Sololá	712	San Antonio Palopó	9	San Antonio Palopo	2	Febrero	2023-10-02T00:00:00	2024-11-08T11:00:00	1	Precipitación	0
153172	7	Sololá	712	San Antonio Palopó	9	San Antonio Palopo	2	Febrero	2023-10-02T00:00:00	2024-11-08T11:00:00	8	Radiación solar	722
153173	7	Sololá	712	San Antonio Palopó	9	San Antonio Palopo	2	Febrero	2023-10-02T00:00:00	2024-11-08T12:00:00	2	Temperatura media	21.8
153174	7	Sololá	712	San Antonio Palopó	9	San Antonio Palopo	2	Febrero	2023-10-02T00:00:00	2024-11-08T12:00:00	4	Temperatura máxima	22.2
153175	7	Sololá	712	San Antonio Palopó	9	San Antonio Palopo	2	Febrero	2023-10-02T00:00:00	2024-11-08T12:00:00	3	Temperatura mínima	20.6
153176	7	Sololá	712	San Antonio Palopó	9	San Antonio Palopo	2	Febrero	2023-10-02T00:00:00	2024-11-08T12:00:00	5	Humedad	62
153177	7	Sololá	712	San Antonio Palopó	9	San Antonio Palopo	2	Febrero	2023-10-02T00:00:00	2024-11-08T12:00:00	6	Velocidad del viento	4.8
153178	7	Sololá	712	San Antonio Palopó	9	San Antonio Palopo	2	Febrero	2023-10-02T00:00:00	2024-11-08T12:00:00	7	Dirección del viento	4.83
153179	7	Sololá	712	San Antonio Palopó	9	San Antonio Palopo	2	Febrero	2023-10-02T00:00:00	2024-11-08T12:00:00	1	Precipitación	0
153180	7	Sololá	712	San Antonio Palopó	9	San Antonio Palopo	2	Febrero	2023-10-02T00:00:00	2024-11-08T12:00:00	8	Radiación solar	737
153181	7	Sololá	712	San Antonio Palopó	9	San Antonio Palopo	2	Febrero	2023-10-02T00:00:00	2024-11-08T13:00:00	2	Temperatura media	22.3
153182	7	Sololá	712	San Antonio Palopó	9	San Antonio Palopo	2	Febrero	2023-10-02T00:00:00	2024-11-08T13:00:00	4	Temperatura máxima	23
153183	7	Sololá	712	San Antonio Palopó	9	San Antonio Palopo	2	Febrero	2023-10-02T00:00:00	2024-11-08T13:00:00	3	Temperatura mínima	21.8
153184	7	Sololá	712	San Antonio Palopó	9	San Antonio Palopo	2	Febrero	2023-10-02T00:00:00	2024-11-08T13:00:00	5	Humedad	68
153185	7	Sololá	712	San Antonio Palopó	9	San Antonio Palopo	2	Febrero	2023-10-02T00:00:00	2024-11-08T13:00:00	6	Velocidad del viento	9.7
153186	7	Sololá	712	San Antonio Palopó	9	San Antonio Palopo	2	Febrero	2023-10-02T00:00:00	2024-11-08T13:00:00	7	Dirección del viento	9.66
153187	7	Sololá	712	San Antonio Palopó	9	San Antonio Palopo	2	Febrero	2023-10-02T00:00:00	2024-11-08T13:00:00	1	Precipitación	0
153188	7	Sololá	712	San Antonio Palopó	9	San Antonio Palopo	2	Febrero	2023-10-02T00:00:00	2024-11-08T13:00:00	8	Radiación solar	821
153189	7	Sololá	712	San Antonio Palopó	9	San Antonio Palopo	2	Febrero	2023-10-02T00:00:00	2024-11-08T14:00:00	2	Temperatura media	22.4
153190	7	Sololá	712	San Antonio Palopó	9	San Antonio Palopo	2	Febrero	2023-10-02T00:00:00	2024-11-08T14:00:00	4	Temperatura máxima	22.7
153191	7	Sololá	712	San Antonio Palopó	9	San Antonio Palopo	2	Febrero	2023-10-02T00:00:00	2024-11-08T14:00:00	3	Temperatura mínima	22.1
153192	7	Sololá	712	San Antonio Palopó	9	San Antonio Palopo	2	Febrero	2023-10-02T00:00:00	2024-11-08T14:00:00	5	Humedad	68
153193	7	Sololá	712	San Antonio Palopó	9	San Antonio Palopo	2	Febrero	2023-10-02T00:00:00	2024-11-08T14:00:00	6	Velocidad del viento	12.9
153194	7	Sololá	712	San Antonio Palopó	9	San Antonio Palopo	2	Febrero	2023-10-02T00:00:00	2024-11-08T14:00:00	7	Dirección del viento	12.87
153195	7	Sololá	712	San Antonio Palopó	9	San Antonio Palopo	2	Febrero	2023-10-02T00:00:00	2024-11-08T14:00:00	1	Precipitación	0
153196	7	Sololá	712	San Antonio Palopó	9	San Antonio Palopo	2	Febrero	2023-10-02T00:00:00	2024-11-08T14:00:00	8	Radiación solar	794
153197	7	Sololá	712	San Antonio Palopó	9	San Antonio Palopo	2	Febrero	2023-10-02T00:00:00	2024-11-08T15:00:00	2	Temperatura media	23.2
153198	7	Sololá	712	San Antonio Palopó	9	San Antonio Palopo	2	Febrero	2023-10-02T00:00:00	2024-11-08T15:00:00	4	Temperatura máxima	24.4
153199	7	Sololá	712	San Antonio Palopó	9	San Antonio Palopo	2	Febrero	2023-10-02T00:00:00	2024-11-08T15:00:00	3	Temperatura mínima	22.2
153200	7	Sololá	712	San Antonio Palopó	9	San Antonio Palopo	2	Febrero	2023-10-02T00:00:00	2024-11-08T15:00:00	5	Humedad	66
153201	7	Sololá	712	San Antonio Palopó	9	San Antonio Palopo	2	Febrero	2023-10-02T00:00:00	2024-11-08T15:00:00	6	Velocidad del viento	8
153202	7	Sololá	712	San Antonio Palopó	9	San Antonio Palopo	2	Febrero	2023-10-02T00:00:00	2024-11-08T15:00:00	7	Dirección del viento	8.05
153203	7	Sololá	712	San Antonio Palopó	9	San Antonio Palopo	2	Febrero	2023-10-02T00:00:00	2024-11-08T15:00:00	1	Precipitación	0
153204	7	Sololá	712	San Antonio Palopó	9	San Antonio Palopo	2	Febrero	2023-10-02T00:00:00	2024-11-08T15:00:00	8	Radiación solar	548
153205	7	Sololá	712	San Antonio Palopó	9	San Antonio Palopo	2	Febrero	2023-10-02T00:00:00	2024-11-08T16:00:00	2	Temperatura media	23.6
153206	7	Sololá	712	San Antonio Palopó	9	San Antonio Palopo	2	Febrero	2023-10-02T00:00:00	2024-11-08T16:00:00	4	Temperatura máxima	24.2
153207	7	Sololá	712	San Antonio Palopó	9	San Antonio Palopo	2	Febrero	2023-10-02T00:00:00	2024-11-08T16:00:00	3	Temperatura mínima	23.2
153208	7	Sololá	712	San Antonio Palopó	9	San Antonio Palopo	2	Febrero	2023-10-02T00:00:00	2024-11-08T16:00:00	5	Humedad	68
153209	7	Sololá	712	San Antonio Palopó	9	San Antonio Palopo	2	Febrero	2023-10-02T00:00:00	2024-11-08T16:00:00	6	Velocidad del viento	4.8
153210	7	Sololá	712	San Antonio Palopó	9	San Antonio Palopo	2	Febrero	2023-10-02T00:00:00	2024-11-08T16:00:00	7	Dirección del viento	4.83
153211	7	Sololá	712	San Antonio Palopó	9	San Antonio Palopo	2	Febrero	2023-10-02T00:00:00	2024-11-08T16:00:00	1	Precipitación	0
153212	7	Sololá	712	San Antonio Palopó	9	San Antonio Palopo	2	Febrero	2023-10-02T00:00:00	2024-11-08T16:00:00	8	Radiación solar	535
153213	7	Sololá	712	San Antonio Palopó	9	San Antonio Palopo	2	Febrero	2023-10-02T00:00:00	2024-11-08T17:00:00	2	Temperatura media	22.5
153214	7	Sololá	712	San Antonio Palopó	9	San Antonio Palopo	2	Febrero	2023-10-02T00:00:00	2024-11-08T17:00:00	4	Temperatura máxima	24.2
153215	7	Sololá	712	San Antonio Palopó	9	San Antonio Palopo	2	Febrero	2023-10-02T00:00:00	2024-11-08T17:00:00	3	Temperatura mínima	22.5
153216	7	Sololá	712	San Antonio Palopó	9	San Antonio Palopo	2	Febrero	2023-10-02T00:00:00	2024-11-08T17:00:00	5	Humedad	71
153217	7	Sololá	712	San Antonio Palopó	9	San Antonio Palopo	2	Febrero	2023-10-02T00:00:00	2024-11-08T17:00:00	6	Velocidad del viento	6.4
153218	7	Sololá	712	San Antonio Palopó	9	San Antonio Palopo	2	Febrero	2023-10-02T00:00:00	2024-11-08T17:00:00	7	Dirección del viento	6.44
153219	7	Sololá	712	San Antonio Palopó	9	San Antonio Palopo	2	Febrero	2023-10-02T00:00:00	2024-11-08T17:00:00	1	Precipitación	0
153220	7	Sololá	712	San Antonio Palopó	9	San Antonio Palopo	2	Febrero	2023-10-02T00:00:00	2024-11-08T17:00:00	8	Radiación solar	309
153221	7	Sololá	712	San Antonio Palopó	9	San Antonio Palopo	2	Febrero	2023-10-02T00:00:00	2024-11-08T18:00:00	2	Temperatura media	20.9
153222	7	Sololá	712	San Antonio Palopó	9	San Antonio Palopo	2	Febrero	2023-10-02T00:00:00	2024-11-08T18:00:00	4	Temperatura máxima	22.5
153223	7	Sololá	712	San Antonio Palopó	9	San Antonio Palopo	2	Febrero	2023-10-02T00:00:00	2024-11-08T18:00:00	3	Temperatura mínima	20.9
153224	7	Sololá	712	San Antonio Palopó	9	San Antonio Palopo	2	Febrero	2023-10-02T00:00:00	2024-11-08T18:00:00	5	Humedad	74
153225	7	Sololá	712	San Antonio Palopó	9	San Antonio Palopo	2	Febrero	2023-10-02T00:00:00	2024-11-08T18:00:00	6	Velocidad del viento	8
153226	7	Sololá	712	San Antonio Palopó	9	San Antonio Palopo	2	Febrero	2023-10-02T00:00:00	2024-11-08T18:00:00	7	Dirección del viento	8.05
153227	7	Sololá	712	San Antonio Palopó	9	San Antonio Palopo	2	Febrero	2023-10-02T00:00:00	2024-11-08T18:00:00	1	Precipitación	0
153228	7	Sololá	712	San Antonio Palopó	9	San Antonio Palopo	2	Febrero	2023-10-02T00:00:00	2024-11-08T18:00:00	8	Radiación solar	60
153229	7	Sololá	712	San Antonio Palopó	9	San Antonio Palopo	2	Febrero	2023-10-02T00:00:00	2024-11-08T19:00:00	2	Temperatura media	19.7
153230	7	Sololá	712	San Antonio Palopó	9	San Antonio Palopo	2	Febrero	2023-10-02T00:00:00	2024-11-08T19:00:00	4	Temperatura máxima	20.9
153231	7	Sololá	712	San Antonio Palopó	9	San Antonio Palopo	2	Febrero	2023-10-02T00:00:00	2024-11-08T19:00:00	3	Temperatura mínima	19.7
153232	7	Sololá	712	San Antonio Palopó	9	San Antonio Palopo	2	Febrero	2023-10-02T00:00:00	2024-11-08T19:00:00	5	Humedad	77
153233	7	Sololá	712	San Antonio Palopó	9	San Antonio Palopo	2	Febrero	2023-10-02T00:00:00	2024-11-08T19:00:00	6	Velocidad del viento	3.2
153234	7	Sololá	712	San Antonio Palopó	9	San Antonio Palopo	2	Febrero	2023-10-02T00:00:00	2024-11-08T19:00:00	7	Dirección del viento	3.22
153235	7	Sololá	712	San Antonio Palopó	9	San Antonio Palopo	2	Febrero	2023-10-02T00:00:00	2024-11-08T19:00:00	1	Precipitación	0
153236	7	Sololá	712	San Antonio Palopó	9	San Antonio Palopo	2	Febrero	2023-10-02T00:00:00	2024-11-08T19:00:00	8	Radiación solar	0
153237	7	Sololá	712	San Antonio Palopó	9	San Antonio Palopo	2	Febrero	2023-10-02T00:00:00	2024-11-08T20:00:00	2	Temperatura media	19.5
153238	7	Sololá	712	San Antonio Palopó	9	San Antonio Palopo	2	Febrero	2023-10-02T00:00:00	2024-11-08T20:00:00	4	Temperatura máxima	19.8
153239	7	Sololá	712	San Antonio Palopó	9	San Antonio Palopo	2	Febrero	2023-10-02T00:00:00	2024-11-08T20:00:00	3	Temperatura mínima	19.1
153240	7	Sololá	712	San Antonio Palopó	9	San Antonio Palopo	2	Febrero	2023-10-02T00:00:00	2024-11-08T20:00:00	5	Humedad	69
153241	7	Sololá	712	San Antonio Palopó	9	San Antonio Palopo	2	Febrero	2023-10-02T00:00:00	2024-11-08T20:00:00	6	Velocidad del viento	3.2
153242	7	Sololá	712	San Antonio Palopó	9	San Antonio Palopo	2	Febrero	2023-10-02T00:00:00	2024-11-08T20:00:00	7	Dirección del viento	3.22
153243	7	Sololá	712	San Antonio Palopó	9	San Antonio Palopo	2	Febrero	2023-10-02T00:00:00	2024-11-08T20:00:00	1	Precipitación	0
153244	7	Sololá	712	San Antonio Palopó	9	San Antonio Palopo	2	Febrero	2023-10-02T00:00:00	2024-11-08T20:00:00	8	Radiación solar	0
153245	7	Sololá	712	San Antonio Palopó	9	San Antonio Palopo	2	Febrero	2023-10-02T00:00:00	2024-11-08T21:00:00	2	Temperatura media	18.9
153246	7	Sololá	712	San Antonio Palopó	9	San Antonio Palopo	2	Febrero	2023-10-02T00:00:00	2024-11-08T21:00:00	4	Temperatura máxima	19.6
153247	7	Sololá	712	San Antonio Palopó	9	San Antonio Palopo	2	Febrero	2023-10-02T00:00:00	2024-11-08T21:00:00	3	Temperatura mínima	18.9
153248	7	Sololá	712	San Antonio Palopó	9	San Antonio Palopo	2	Febrero	2023-10-02T00:00:00	2024-11-08T21:00:00	5	Humedad	69
153249	7	Sololá	712	San Antonio Palopó	9	San Antonio Palopo	2	Febrero	2023-10-02T00:00:00	2024-11-08T21:00:00	6	Velocidad del viento	3.2
153250	7	Sololá	712	San Antonio Palopó	9	San Antonio Palopo	2	Febrero	2023-10-02T00:00:00	2024-11-08T21:00:00	7	Dirección del viento	3.22
153251	7	Sololá	712	San Antonio Palopó	9	San Antonio Palopo	2	Febrero	2023-10-02T00:00:00	2024-11-08T21:00:00	1	Precipitación	0
153252	7	Sololá	712	San Antonio Palopó	9	San Antonio Palopo	2	Febrero	2023-10-02T00:00:00	2024-11-08T21:00:00	8	Radiación solar	0
153253	7	Sololá	712	San Antonio Palopó	9	San Antonio Palopo	2	Febrero	2023-10-02T00:00:00	2024-11-08T22:00:00	2	Temperatura media	18.4
153254	7	Sololá	712	San Antonio Palopó	9	San Antonio Palopo	2	Febrero	2023-10-02T00:00:00	2024-11-08T22:00:00	4	Temperatura máxima	18.9
153255	7	Sololá	712	San Antonio Palopó	9	San Antonio Palopo	2	Febrero	2023-10-02T00:00:00	2024-11-08T22:00:00	3	Temperatura mínima	18.4
153256	7	Sololá	712	San Antonio Palopó	9	San Antonio Palopo	2	Febrero	2023-10-02T00:00:00	2024-11-08T22:00:00	5	Humedad	69
153257	7	Sololá	712	San Antonio Palopó	9	San Antonio Palopo	2	Febrero	2023-10-02T00:00:00	2024-11-08T22:00:00	6	Velocidad del viento	9.7
153258	7	Sololá	712	San Antonio Palopó	9	San Antonio Palopo	2	Febrero	2023-10-02T00:00:00	2024-11-08T22:00:00	7	Dirección del viento	9.66
153259	7	Sololá	712	San Antonio Palopó	9	San Antonio Palopo	2	Febrero	2023-10-02T00:00:00	2024-11-08T22:00:00	1	Precipitación	0
153260	7	Sololá	712	San Antonio Palopó	9	San Antonio Palopo	2	Febrero	2023-10-02T00:00:00	2024-11-08T22:00:00	8	Radiación solar	0
153261	7	Sololá	712	San Antonio Palopó	9	San Antonio Palopo	2	Febrero	2023-10-02T00:00:00	2024-11-08T23:00:00	2	Temperatura media	18.2
153262	7	Sololá	712	San Antonio Palopó	9	San Antonio Palopo	2	Febrero	2023-10-02T00:00:00	2024-11-08T23:00:00	4	Temperatura máxima	18.4
153263	7	Sololá	712	San Antonio Palopó	9	San Antonio Palopo	2	Febrero	2023-10-02T00:00:00	2024-11-08T23:00:00	3	Temperatura mínima	18.2
153264	7	Sololá	712	San Antonio Palopó	9	San Antonio Palopo	2	Febrero	2023-10-02T00:00:00	2024-11-08T23:00:00	5	Humedad	66
153265	7	Sololá	712	San Antonio Palopó	9	San Antonio Palopo	2	Febrero	2023-10-02T00:00:00	2024-11-08T23:00:00	6	Velocidad del viento	8
153266	7	Sololá	712	San Antonio Palopó	9	San Antonio Palopo	2	Febrero	2023-10-02T00:00:00	2024-11-08T23:00:00	7	Dirección del viento	8.05
153267	7	Sololá	712	San Antonio Palopó	9	San Antonio Palopo	2	Febrero	2023-10-02T00:00:00	2024-11-08T23:00:00	1	Precipitación	0
153268	7	Sololá	712	San Antonio Palopó	9	San Antonio Palopo	2	Febrero	2023-10-02T00:00:00	2024-11-08T23:00:00	8	Radiación solar	0
153269	7	Sololá	712	San Antonio Palopó	9	San Antonio Palopo	2	Febrero	2023-11-02T00:00:00	2024-11-08T00:00:00	2	Temperatura media	17.4
153270	7	Sololá	712	San Antonio Palopó	9	San Antonio Palopo	2	Febrero	2023-11-02T00:00:00	2024-11-08T00:00:00	4	Temperatura máxima	18.2
153271	7	Sololá	712	San Antonio Palopó	9	San Antonio Palopo	2	Febrero	2023-11-02T00:00:00	2024-11-08T00:00:00	3	Temperatura mínima	17.4
153272	7	Sololá	712	San Antonio Palopó	9	San Antonio Palopo	2	Febrero	2023-11-02T00:00:00	2024-11-08T00:00:00	5	Humedad	68
153273	7	Sololá	712	San Antonio Palopó	9	San Antonio Palopo	2	Febrero	2023-11-02T00:00:00	2024-11-08T00:00:00	6	Velocidad del viento	8
153274	7	Sololá	712	San Antonio Palopó	9	San Antonio Palopo	2	Febrero	2023-11-02T00:00:00	2024-11-08T00:00:00	7	Dirección del viento	8.05
153275	7	Sololá	712	San Antonio Palopó	9	San Antonio Palopo	2	Febrero	2023-11-02T00:00:00	2024-11-08T00:00:00	1	Precipitación	0
153276	7	Sololá	712	San Antonio Palopó	9	San Antonio Palopo	2	Febrero	2023-11-02T00:00:00	2024-11-08T00:00:00	8	Radiación solar	0
153277	7	Sololá	712	San Antonio Palopó	9	San Antonio Palopo	2	Febrero	2023-11-02T00:00:00	2024-11-08T01:00:00	2	Temperatura media	17.4
153278	7	Sololá	712	San Antonio Palopó	9	San Antonio Palopo	2	Febrero	2023-11-02T00:00:00	2024-11-08T01:00:00	4	Temperatura máxima	17.9
153279	7	Sololá	712	San Antonio Palopó	9	San Antonio Palopo	2	Febrero	2023-11-02T00:00:00	2024-11-08T01:00:00	3	Temperatura mínima	17.2
153280	7	Sololá	712	San Antonio Palopó	9	San Antonio Palopo	2	Febrero	2023-11-02T00:00:00	2024-11-08T01:00:00	5	Humedad	68
153281	7	Sololá	712	San Antonio Palopó	9	San Antonio Palopo	2	Febrero	2023-11-02T00:00:00	2024-11-08T01:00:00	6	Velocidad del viento	6.4
153282	7	Sololá	712	San Antonio Palopó	9	San Antonio Palopo	2	Febrero	2023-11-02T00:00:00	2024-11-08T01:00:00	7	Dirección del viento	6.44
153283	7	Sololá	712	San Antonio Palopó	9	San Antonio Palopo	2	Febrero	2023-11-02T00:00:00	2024-11-08T01:00:00	1	Precipitación	0
153284	7	Sololá	712	San Antonio Palopó	9	San Antonio Palopo	2	Febrero	2023-11-02T00:00:00	2024-11-08T01:00:00	8	Radiación solar	0
153285	7	Sololá	712	San Antonio Palopó	9	San Antonio Palopo	2	Febrero	2023-11-02T00:00:00	2024-11-08T02:00:00	2	Temperatura media	18.2
153286	7	Sololá	712	San Antonio Palopó	9	San Antonio Palopo	2	Febrero	2023-11-02T00:00:00	2024-11-08T02:00:00	4	Temperatura máxima	18.6
153287	7	Sololá	712	San Antonio Palopó	9	San Antonio Palopo	2	Febrero	2023-11-02T00:00:00	2024-11-08T02:00:00	3	Temperatura mínima	16.9
153288	7	Sololá	712	San Antonio Palopó	9	San Antonio Palopo	2	Febrero	2023-11-02T00:00:00	2024-11-08T02:00:00	5	Humedad	65
153289	7	Sololá	712	San Antonio Palopó	9	San Antonio Palopo	2	Febrero	2023-11-02T00:00:00	2024-11-08T02:00:00	6	Velocidad del viento	6.4
153290	7	Sololá	712	San Antonio Palopó	9	San Antonio Palopo	2	Febrero	2023-11-02T00:00:00	2024-11-08T02:00:00	7	Dirección del viento	6.44
153291	7	Sololá	712	San Antonio Palopó	9	San Antonio Palopo	2	Febrero	2023-11-02T00:00:00	2024-11-08T02:00:00	1	Precipitación	0
153292	7	Sololá	712	San Antonio Palopó	9	San Antonio Palopo	2	Febrero	2023-11-02T00:00:00	2024-11-08T02:00:00	8	Radiación solar	0
153293	7	Sololá	712	San Antonio Palopó	9	San Antonio Palopo	2	Febrero	2023-11-02T00:00:00	2024-11-08T03:00:00	2	Temperatura media	17.2
153294	7	Sololá	712	San Antonio Palopó	9	San Antonio Palopo	2	Febrero	2023-11-02T00:00:00	2024-11-08T03:00:00	4	Temperatura máxima	18.1
153295	7	Sololá	712	San Antonio Palopó	9	San Antonio Palopo	2	Febrero	2023-11-02T00:00:00	2024-11-08T03:00:00	3	Temperatura mínima	17.2
153296	7	Sololá	712	San Antonio Palopó	9	San Antonio Palopo	2	Febrero	2023-11-02T00:00:00	2024-11-08T03:00:00	5	Humedad	63
153297	7	Sololá	712	San Antonio Palopó	9	San Antonio Palopo	2	Febrero	2023-11-02T00:00:00	2024-11-08T03:00:00	6	Velocidad del viento	4.8
153298	7	Sololá	712	San Antonio Palopó	9	San Antonio Palopo	2	Febrero	2023-11-02T00:00:00	2024-11-08T03:00:00	7	Dirección del viento	4.83
153299	7	Sololá	712	San Antonio Palopó	9	San Antonio Palopo	2	Febrero	2023-11-02T00:00:00	2024-11-08T03:00:00	1	Precipitación	0
153300	7	Sololá	712	San Antonio Palopó	9	San Antonio Palopo	2	Febrero	2023-11-02T00:00:00	2024-11-08T03:00:00	8	Radiación solar	0
153301	7	Sololá	712	San Antonio Palopó	9	San Antonio Palopo	2	Febrero	2023-11-02T00:00:00	2024-11-08T04:00:00	2	Temperatura media	16.3
153302	7	Sololá	712	San Antonio Palopó	9	San Antonio Palopo	2	Febrero	2023-11-02T00:00:00	2024-11-08T04:00:00	4	Temperatura máxima	17.2
153303	7	Sololá	712	San Antonio Palopó	9	San Antonio Palopo	2	Febrero	2023-11-02T00:00:00	2024-11-08T04:00:00	3	Temperatura mínima	16.3
153304	7	Sololá	712	San Antonio Palopó	9	San Antonio Palopo	2	Febrero	2023-11-02T00:00:00	2024-11-08T04:00:00	5	Humedad	61
153305	7	Sololá	712	San Antonio Palopó	9	San Antonio Palopo	2	Febrero	2023-11-02T00:00:00	2024-11-08T04:00:00	6	Velocidad del viento	8
153306	7	Sololá	712	San Antonio Palopó	9	San Antonio Palopo	2	Febrero	2023-11-02T00:00:00	2024-11-08T04:00:00	7	Dirección del viento	8.05
153307	7	Sololá	712	San Antonio Palopó	9	San Antonio Palopo	2	Febrero	2023-11-02T00:00:00	2024-11-08T04:00:00	1	Precipitación	0
153308	7	Sololá	712	San Antonio Palopó	9	San Antonio Palopo	2	Febrero	2023-11-02T00:00:00	2024-11-08T04:00:00	8	Radiación solar	0
153309	7	Sololá	712	San Antonio Palopó	9	San Antonio Palopo	2	Febrero	2023-11-02T00:00:00	2024-11-08T05:00:00	2	Temperatura media	16.3
153310	7	Sololá	712	San Antonio Palopó	9	San Antonio Palopo	2	Febrero	2023-11-02T00:00:00	2024-11-08T05:00:00	4	Temperatura máxima	16.8
153311	7	Sololá	712	San Antonio Palopó	9	San Antonio Palopo	2	Febrero	2023-11-02T00:00:00	2024-11-08T05:00:00	3	Temperatura mínima	15.9
153312	7	Sololá	712	San Antonio Palopó	9	San Antonio Palopo	2	Febrero	2023-11-02T00:00:00	2024-11-08T05:00:00	5	Humedad	60
153313	7	Sololá	712	San Antonio Palopó	9	San Antonio Palopo	2	Febrero	2023-11-02T00:00:00	2024-11-08T05:00:00	6	Velocidad del viento	8
153314	7	Sololá	712	San Antonio Palopó	9	San Antonio Palopo	2	Febrero	2023-11-02T00:00:00	2024-11-08T05:00:00	7	Dirección del viento	8.05
153315	7	Sololá	712	San Antonio Palopó	9	San Antonio Palopo	2	Febrero	2023-11-02T00:00:00	2024-11-08T05:00:00	1	Precipitación	0
153316	7	Sololá	712	San Antonio Palopó	9	San Antonio Palopo	2	Febrero	2023-11-02T00:00:00	2024-11-08T05:00:00	8	Radiación solar	0
153317	7	Sololá	712	San Antonio Palopó	9	San Antonio Palopo	2	Febrero	2023-11-02T00:00:00	2024-11-08T06:00:00	2	Temperatura media	16.5
153318	7	Sololá	712	San Antonio Palopó	9	San Antonio Palopo	2	Febrero	2023-11-02T00:00:00	2024-11-08T06:00:00	4	Temperatura máxima	17
153319	7	Sololá	712	San Antonio Palopó	9	San Antonio Palopo	2	Febrero	2023-11-02T00:00:00	2024-11-08T06:00:00	3	Temperatura mínima	16.1
153320	7	Sololá	712	San Antonio Palopó	9	San Antonio Palopo	2	Febrero	2023-11-02T00:00:00	2024-11-08T06:00:00	5	Humedad	55
153321	7	Sololá	712	San Antonio Palopó	9	San Antonio Palopo	2	Febrero	2023-11-02T00:00:00	2024-11-08T06:00:00	6	Velocidad del viento	6.4
153322	7	Sololá	712	San Antonio Palopó	9	San Antonio Palopo	2	Febrero	2023-11-02T00:00:00	2024-11-08T06:00:00	7	Dirección del viento	6.44
153323	7	Sololá	712	San Antonio Palopó	9	San Antonio Palopo	2	Febrero	2023-11-02T00:00:00	2024-11-08T06:00:00	1	Precipitación	0
153324	7	Sololá	712	San Antonio Palopó	9	San Antonio Palopo	2	Febrero	2023-11-02T00:00:00	2024-11-08T06:00:00	8	Radiación solar	0
153325	7	Sololá	712	San Antonio Palopó	9	San Antonio Palopo	2	Febrero	2023-11-02T00:00:00	2024-11-08T07:00:00	2	Temperatura media	16.7
153326	7	Sololá	712	San Antonio Palopó	9	San Antonio Palopo	2	Febrero	2023-11-02T00:00:00	2024-11-08T07:00:00	4	Temperatura máxima	16.9
153327	7	Sololá	712	San Antonio Palopó	9	San Antonio Palopo	2	Febrero	2023-11-02T00:00:00	2024-11-08T07:00:00	3	Temperatura mínima	16.3
153328	7	Sololá	712	San Antonio Palopó	9	San Antonio Palopo	2	Febrero	2023-11-02T00:00:00	2024-11-08T07:00:00	5	Humedad	53
153329	7	Sololá	712	San Antonio Palopó	9	San Antonio Palopo	2	Febrero	2023-11-02T00:00:00	2024-11-08T07:00:00	6	Velocidad del viento	4.8
153330	7	Sololá	712	San Antonio Palopó	9	San Antonio Palopo	2	Febrero	2023-11-02T00:00:00	2024-11-08T07:00:00	7	Dirección del viento	4.83
153331	7	Sololá	712	San Antonio Palopó	9	San Antonio Palopo	2	Febrero	2023-11-02T00:00:00	2024-11-08T07:00:00	1	Precipitación	0
153332	7	Sololá	712	San Antonio Palopó	9	San Antonio Palopo	2	Febrero	2023-11-02T00:00:00	2024-11-08T07:00:00	8	Radiación solar	4
153333	7	Sololá	712	San Antonio Palopó	9	San Antonio Palopo	2	Febrero	2023-11-02T00:00:00	2024-11-08T08:00:00	2	Temperatura media	18.5
153334	7	Sololá	712	San Antonio Palopó	9	San Antonio Palopo	2	Febrero	2023-11-02T00:00:00	2024-11-08T08:00:00	4	Temperatura máxima	18.6
153335	7	Sololá	712	San Antonio Palopó	9	San Antonio Palopo	2	Febrero	2023-11-02T00:00:00	2024-11-08T08:00:00	3	Temperatura mínima	16.4
153336	7	Sololá	712	San Antonio Palopó	9	San Antonio Palopo	2	Febrero	2023-11-02T00:00:00	2024-11-08T08:00:00	5	Humedad	47
153337	7	Sololá	712	San Antonio Palopó	9	San Antonio Palopo	2	Febrero	2023-11-02T00:00:00	2024-11-08T08:00:00	6	Velocidad del viento	6.4
153338	7	Sololá	712	San Antonio Palopó	9	San Antonio Palopo	2	Febrero	2023-11-02T00:00:00	2024-11-08T08:00:00	7	Dirección del viento	6.44
153339	7	Sololá	712	San Antonio Palopó	9	San Antonio Palopo	2	Febrero	2023-11-02T00:00:00	2024-11-08T08:00:00	1	Precipitación	0
153340	7	Sololá	712	San Antonio Palopó	9	San Antonio Palopo	2	Febrero	2023-11-02T00:00:00	2024-11-08T08:00:00	8	Radiación solar	16
153341	7	Sololá	712	San Antonio Palopó	9	San Antonio Palopo	2	Febrero	2023-11-02T00:00:00	2024-11-08T09:00:00	2	Temperatura media	20.7
153342	7	Sololá	712	San Antonio Palopó	9	San Antonio Palopo	2	Febrero	2023-11-02T00:00:00	2024-11-08T09:00:00	4	Temperatura máxima	20.7
153343	7	Sololá	712	San Antonio Palopó	9	San Antonio Palopo	2	Febrero	2023-11-02T00:00:00	2024-11-08T09:00:00	3	Temperatura mínima	18.5
153344	7	Sololá	712	San Antonio Palopó	9	San Antonio Palopo	2	Febrero	2023-11-02T00:00:00	2024-11-08T09:00:00	5	Humedad	39
153345	7	Sololá	712	San Antonio Palopó	9	San Antonio Palopo	2	Febrero	2023-11-02T00:00:00	2024-11-08T09:00:00	6	Velocidad del viento	9.7
153346	7	Sololá	712	San Antonio Palopó	9	San Antonio Palopo	2	Febrero	2023-11-02T00:00:00	2024-11-08T09:00:00	7	Dirección del viento	9.66
153347	7	Sololá	712	San Antonio Palopó	9	San Antonio Palopo	2	Febrero	2023-11-02T00:00:00	2024-11-08T09:00:00	1	Precipitación	0
153348	7	Sololá	712	San Antonio Palopó	9	San Antonio Palopo	2	Febrero	2023-11-02T00:00:00	2024-11-08T09:00:00	8	Radiación solar	250
153349	7	Sololá	712	San Antonio Palopó	9	San Antonio Palopo	2	Febrero	2023-11-02T00:00:00	2024-11-08T10:00:00	2	Temperatura media	22.4
153350	7	Sololá	712	San Antonio Palopó	9	San Antonio Palopo	2	Febrero	2023-11-02T00:00:00	2024-11-08T10:00:00	4	Temperatura máxima	22.4
153351	7	Sololá	712	San Antonio Palopó	9	San Antonio Palopo	2	Febrero	2023-11-02T00:00:00	2024-11-08T10:00:00	3	Temperatura mínima	20.7
153352	7	Sololá	712	San Antonio Palopó	9	San Antonio Palopo	2	Febrero	2023-11-02T00:00:00	2024-11-08T10:00:00	5	Humedad	29
153353	7	Sololá	712	San Antonio Palopó	9	San Antonio Palopo	2	Febrero	2023-11-02T00:00:00	2024-11-08T10:00:00	6	Velocidad del viento	9.7
153354	7	Sololá	712	San Antonio Palopó	9	San Antonio Palopo	2	Febrero	2023-11-02T00:00:00	2024-11-08T10:00:00	7	Dirección del viento	9.66
153355	7	Sololá	712	San Antonio Palopó	9	San Antonio Palopo	2	Febrero	2023-11-02T00:00:00	2024-11-08T10:00:00	1	Precipitación	0
153356	7	Sololá	712	San Antonio Palopó	9	San Antonio Palopo	2	Febrero	2023-11-02T00:00:00	2024-11-08T10:00:00	8	Radiación solar	610
153357	7	Sololá	712	San Antonio Palopó	9	San Antonio Palopo	2	Febrero	2023-11-02T00:00:00	2024-11-08T11:00:00	2	Temperatura media	23.2
153358	7	Sololá	712	San Antonio Palopó	9	San Antonio Palopo	2	Febrero	2023-11-02T00:00:00	2024-11-08T11:00:00	4	Temperatura máxima	23.6
153359	7	Sololá	712	San Antonio Palopó	9	San Antonio Palopo	2	Febrero	2023-11-02T00:00:00	2024-11-08T11:00:00	3	Temperatura mínima	22.3
153360	7	Sololá	712	San Antonio Palopó	9	San Antonio Palopo	2	Febrero	2023-11-02T00:00:00	2024-11-08T11:00:00	5	Humedad	35
153361	7	Sololá	712	San Antonio Palopó	9	San Antonio Palopo	2	Febrero	2023-11-02T00:00:00	2024-11-08T11:00:00	6	Velocidad del viento	12.9
153362	7	Sololá	712	San Antonio Palopó	9	San Antonio Palopo	2	Febrero	2023-11-02T00:00:00	2024-11-08T11:00:00	7	Dirección del viento	12.87
153363	7	Sololá	712	San Antonio Palopó	9	San Antonio Palopo	2	Febrero	2023-11-02T00:00:00	2024-11-08T11:00:00	1	Precipitación	0
153364	7	Sololá	712	San Antonio Palopó	9	San Antonio Palopo	2	Febrero	2023-11-02T00:00:00	2024-11-08T11:00:00	8	Radiación solar	762
153365	7	Sololá	712	San Antonio Palopó	9	San Antonio Palopo	2	Febrero	2023-11-02T00:00:00	2024-11-08T12:00:00	2	Temperatura media	23.9
153366	7	Sololá	712	San Antonio Palopó	9	San Antonio Palopo	2	Febrero	2023-11-02T00:00:00	2024-11-08T12:00:00	4	Temperatura máxima	23.9
153367	7	Sololá	712	San Antonio Palopó	9	San Antonio Palopo	2	Febrero	2023-11-02T00:00:00	2024-11-08T12:00:00	3	Temperatura mínima	23.2
153368	7	Sololá	712	San Antonio Palopó	9	San Antonio Palopo	2	Febrero	2023-11-02T00:00:00	2024-11-08T12:00:00	5	Humedad	32
153369	7	Sololá	712	San Antonio Palopó	9	San Antonio Palopo	2	Febrero	2023-11-02T00:00:00	2024-11-08T12:00:00	6	Velocidad del viento	16.1
153370	7	Sololá	712	San Antonio Palopó	9	San Antonio Palopo	2	Febrero	2023-11-02T00:00:00	2024-11-08T12:00:00	7	Dirección del viento	16.09
153371	7	Sololá	712	San Antonio Palopó	9	San Antonio Palopo	2	Febrero	2023-11-02T00:00:00	2024-11-08T12:00:00	1	Precipitación	0
153372	7	Sololá	712	San Antonio Palopó	9	San Antonio Palopo	2	Febrero	2023-11-02T00:00:00	2024-11-08T12:00:00	8	Radiación solar	758
153373	7	Sololá	712	San Antonio Palopó	9	San Antonio Palopo	2	Febrero	2023-11-02T00:00:00	2024-11-08T13:00:00	2	Temperatura media	24.2
153374	7	Sololá	712	San Antonio Palopó	9	San Antonio Palopo	2	Febrero	2023-11-02T00:00:00	2024-11-08T13:00:00	4	Temperatura máxima	24.3
153375	7	Sololá	712	San Antonio Palopó	9	San Antonio Palopo	2	Febrero	2023-11-02T00:00:00	2024-11-08T13:00:00	3	Temperatura mínima	23.6
153376	7	Sololá	712	San Antonio Palopó	9	San Antonio Palopo	2	Febrero	2023-11-02T00:00:00	2024-11-08T13:00:00	5	Humedad	38
153377	7	Sololá	712	San Antonio Palopó	9	San Antonio Palopo	2	Febrero	2023-11-02T00:00:00	2024-11-08T13:00:00	6	Velocidad del viento	16.1
153378	7	Sololá	712	San Antonio Palopó	9	San Antonio Palopo	2	Febrero	2023-11-02T00:00:00	2024-11-08T13:00:00	7	Dirección del viento	16.09
153379	7	Sololá	712	San Antonio Palopó	9	San Antonio Palopo	2	Febrero	2023-11-02T00:00:00	2024-11-08T13:00:00	1	Precipitación	0
153380	7	Sololá	712	San Antonio Palopó	9	San Antonio Palopo	2	Febrero	2023-11-02T00:00:00	2024-11-08T13:00:00	8	Radiación solar	851
153381	7	Sololá	712	San Antonio Palopó	9	San Antonio Palopo	2	Febrero	2023-11-02T00:00:00	2024-11-08T14:00:00	2	Temperatura media	24.8
153382	7	Sololá	712	San Antonio Palopó	9	San Antonio Palopo	2	Febrero	2023-11-02T00:00:00	2024-11-08T14:00:00	4	Temperatura máxima	25.4
153383	7	Sololá	712	San Antonio Palopó	9	San Antonio Palopo	2	Febrero	2023-11-02T00:00:00	2024-11-08T14:00:00	3	Temperatura mínima	24.1
153384	7	Sololá	712	San Antonio Palopó	9	San Antonio Palopo	2	Febrero	2023-11-02T00:00:00	2024-11-08T14:00:00	5	Humedad	37
153385	7	Sololá	712	San Antonio Palopó	9	San Antonio Palopo	2	Febrero	2023-11-02T00:00:00	2024-11-08T14:00:00	6	Velocidad del viento	14.5
153386	7	Sololá	712	San Antonio Palopó	9	San Antonio Palopo	2	Febrero	2023-11-02T00:00:00	2024-11-08T14:00:00	7	Dirección del viento	14.48
153387	7	Sololá	712	San Antonio Palopó	9	San Antonio Palopo	2	Febrero	2023-11-02T00:00:00	2024-11-08T14:00:00	1	Precipitación	0
153388	7	Sololá	712	San Antonio Palopó	9	San Antonio Palopo	2	Febrero	2023-11-02T00:00:00	2024-11-08T14:00:00	8	Radiación solar	806
153389	7	Sololá	712	San Antonio Palopó	9	San Antonio Palopo	2	Febrero	2023-11-02T00:00:00	2024-11-08T15:00:00	2	Temperatura media	24.7
153390	7	Sololá	712	San Antonio Palopó	9	San Antonio Palopo	2	Febrero	2023-11-02T00:00:00	2024-11-08T15:00:00	4	Temperatura máxima	24.8
153391	7	Sololá	712	San Antonio Palopó	9	San Antonio Palopo	2	Febrero	2023-11-02T00:00:00	2024-11-08T15:00:00	3	Temperatura mínima	24.2
153392	7	Sololá	712	San Antonio Palopó	9	San Antonio Palopo	2	Febrero	2023-11-02T00:00:00	2024-11-08T15:00:00	5	Humedad	41
153393	7	Sololá	712	San Antonio Palopó	9	San Antonio Palopo	2	Febrero	2023-11-02T00:00:00	2024-11-08T15:00:00	6	Velocidad del viento	16.1
153394	7	Sololá	712	San Antonio Palopó	9	San Antonio Palopo	2	Febrero	2023-11-02T00:00:00	2024-11-08T15:00:00	7	Dirección del viento	16.09
153395	7	Sololá	712	San Antonio Palopó	9	San Antonio Palopo	2	Febrero	2023-11-02T00:00:00	2024-11-08T15:00:00	1	Precipitación	0
153396	7	Sololá	712	San Antonio Palopó	9	San Antonio Palopo	2	Febrero	2023-11-02T00:00:00	2024-11-08T15:00:00	8	Radiación solar	688
153397	7	Sololá	712	San Antonio Palopó	9	San Antonio Palopo	2	Febrero	2023-11-02T00:00:00	2024-11-08T16:00:00	2	Temperatura media	23.3
153398	7	Sololá	712	San Antonio Palopó	9	San Antonio Palopo	2	Febrero	2023-11-02T00:00:00	2024-11-08T16:00:00	4	Temperatura máxima	24.6
153399	7	Sololá	712	San Antonio Palopó	9	San Antonio Palopo	2	Febrero	2023-11-02T00:00:00	2024-11-08T16:00:00	3	Temperatura mínima	23.3
153400	7	Sololá	712	San Antonio Palopó	9	San Antonio Palopo	2	Febrero	2023-11-02T00:00:00	2024-11-08T16:00:00	5	Humedad	43
153401	7	Sololá	712	San Antonio Palopó	9	San Antonio Palopo	2	Febrero	2023-11-02T00:00:00	2024-11-08T16:00:00	6	Velocidad del viento	17.7
153402	7	Sololá	712	San Antonio Palopó	9	San Antonio Palopo	2	Febrero	2023-11-02T00:00:00	2024-11-08T16:00:00	7	Dirección del viento	17.7
153403	7	Sololá	712	San Antonio Palopó	9	San Antonio Palopo	2	Febrero	2023-11-02T00:00:00	2024-11-08T16:00:00	1	Precipitación	0
153404	7	Sololá	712	San Antonio Palopó	9	San Antonio Palopo	2	Febrero	2023-11-02T00:00:00	2024-11-08T16:00:00	8	Radiación solar	465
153405	7	Sololá	712	San Antonio Palopó	9	San Antonio Palopo	2	Febrero	2023-11-02T00:00:00	2024-11-08T17:00:00	2	Temperatura media	22.2
153406	7	Sololá	712	San Antonio Palopó	9	San Antonio Palopo	2	Febrero	2023-11-02T00:00:00	2024-11-08T17:00:00	4	Temperatura máxima	23.7
153407	7	Sololá	712	San Antonio Palopó	9	San Antonio Palopo	2	Febrero	2023-11-02T00:00:00	2024-11-08T17:00:00	3	Temperatura mínima	22.1
153408	7	Sololá	712	San Antonio Palopó	9	San Antonio Palopo	2	Febrero	2023-11-02T00:00:00	2024-11-08T17:00:00	5	Humedad	48
153409	7	Sololá	712	San Antonio Palopó	9	San Antonio Palopo	2	Febrero	2023-11-02T00:00:00	2024-11-08T17:00:00	6	Velocidad del viento	12.9
153410	7	Sololá	712	San Antonio Palopó	9	San Antonio Palopo	2	Febrero	2023-11-02T00:00:00	2024-11-08T17:00:00	7	Dirección del viento	12.87
153411	7	Sololá	712	San Antonio Palopó	9	San Antonio Palopo	2	Febrero	2023-11-02T00:00:00	2024-11-08T17:00:00	1	Precipitación	0
153412	7	Sololá	712	San Antonio Palopó	9	San Antonio Palopo	2	Febrero	2023-11-02T00:00:00	2024-11-08T17:00:00	8	Radiación solar	156
153413	7	Sololá	712	San Antonio Palopó	9	San Antonio Palopo	2	Febrero	2023-11-02T00:00:00	2024-11-08T18:00:00	2	Temperatura media	20.9
153414	7	Sololá	712	San Antonio Palopó	9	San Antonio Palopo	2	Febrero	2023-11-02T00:00:00	2024-11-08T18:00:00	4	Temperatura máxima	23
153415	7	Sololá	712	San Antonio Palopó	9	San Antonio Palopo	2	Febrero	2023-11-02T00:00:00	2024-11-08T18:00:00	3	Temperatura mínima	20.9
153416	7	Sololá	712	San Antonio Palopó	9	San Antonio Palopo	2	Febrero	2023-11-02T00:00:00	2024-11-08T18:00:00	5	Humedad	53
153417	7	Sololá	712	San Antonio Palopó	9	San Antonio Palopo	2	Febrero	2023-11-02T00:00:00	2024-11-08T18:00:00	6	Velocidad del viento	9.7
153418	7	Sololá	712	San Antonio Palopó	9	San Antonio Palopo	2	Febrero	2023-11-02T00:00:00	2024-11-08T18:00:00	7	Dirección del viento	9.66
153419	7	Sololá	712	San Antonio Palopó	9	San Antonio Palopo	2	Febrero	2023-11-02T00:00:00	2024-11-08T18:00:00	1	Precipitación	0
153420	7	Sololá	712	San Antonio Palopó	9	San Antonio Palopo	2	Febrero	2023-11-02T00:00:00	2024-11-08T18:00:00	8	Radiación solar	72
153421	7	Sololá	712	San Antonio Palopó	9	San Antonio Palopo	2	Febrero	2023-11-02T00:00:00	2024-11-08T19:00:00	2	Temperatura media	20.2
153422	7	Sololá	712	San Antonio Palopó	9	San Antonio Palopo	2	Febrero	2023-11-02T00:00:00	2024-11-08T19:00:00	4	Temperatura máxima	20.9
153423	7	Sololá	712	San Antonio Palopó	9	San Antonio Palopo	2	Febrero	2023-11-02T00:00:00	2024-11-08T19:00:00	3	Temperatura mínima	20.2
153424	7	Sololá	712	San Antonio Palopó	9	San Antonio Palopo	2	Febrero	2023-11-02T00:00:00	2024-11-08T19:00:00	5	Humedad	58
153425	7	Sololá	712	San Antonio Palopó	9	San Antonio Palopo	2	Febrero	2023-11-02T00:00:00	2024-11-08T19:00:00	6	Velocidad del viento	9.7
153426	7	Sololá	712	San Antonio Palopó	9	San Antonio Palopo	2	Febrero	2023-11-02T00:00:00	2024-11-08T19:00:00	7	Dirección del viento	9.66
153427	7	Sololá	712	San Antonio Palopó	9	San Antonio Palopo	2	Febrero	2023-11-02T00:00:00	2024-11-08T19:00:00	1	Precipitación	0
153428	7	Sololá	712	San Antonio Palopó	9	San Antonio Palopo	2	Febrero	2023-11-02T00:00:00	2024-11-08T19:00:00	8	Radiación solar	0
153429	7	Sololá	712	San Antonio Palopó	9	San Antonio Palopo	2	Febrero	2023-11-02T00:00:00	2024-11-08T20:00:00	2	Temperatura media	19.4
153430	7	Sololá	712	San Antonio Palopó	9	San Antonio Palopo	2	Febrero	2023-11-02T00:00:00	2024-11-08T20:00:00	4	Temperatura máxima	20.2
153431	7	Sololá	712	San Antonio Palopó	9	San Antonio Palopo	2	Febrero	2023-11-02T00:00:00	2024-11-08T20:00:00	3	Temperatura mínima	19.4
153432	7	Sololá	712	San Antonio Palopó	9	San Antonio Palopo	2	Febrero	2023-11-02T00:00:00	2024-11-08T20:00:00	5	Humedad	65
153433	7	Sololá	712	San Antonio Palopó	9	San Antonio Palopo	2	Febrero	2023-11-02T00:00:00	2024-11-08T20:00:00	6	Velocidad del viento	11.3
153434	7	Sololá	712	San Antonio Palopó	9	San Antonio Palopo	2	Febrero	2023-11-02T00:00:00	2024-11-08T20:00:00	7	Dirección del viento	11.27
153435	7	Sololá	712	San Antonio Palopó	9	San Antonio Palopo	2	Febrero	2023-11-02T00:00:00	2024-11-08T20:00:00	1	Precipitación	0
153436	7	Sololá	712	San Antonio Palopó	9	San Antonio Palopo	2	Febrero	2023-11-02T00:00:00	2024-11-08T20:00:00	8	Radiación solar	0
153437	7	Sololá	712	San Antonio Palopó	9	San Antonio Palopo	2	Febrero	2023-11-02T00:00:00	2024-11-08T21:00:00	2	Temperatura media	19.3
153438	7	Sololá	712	San Antonio Palopó	9	San Antonio Palopo	2	Febrero	2023-11-02T00:00:00	2024-11-08T21:00:00	4	Temperatura máxima	19.6
153439	7	Sololá	712	San Antonio Palopó	9	San Antonio Palopo	2	Febrero	2023-11-02T00:00:00	2024-11-08T21:00:00	3	Temperatura mínima	19.3
153440	7	Sololá	712	San Antonio Palopó	9	San Antonio Palopo	2	Febrero	2023-11-02T00:00:00	2024-11-08T21:00:00	5	Humedad	66
153441	7	Sololá	712	San Antonio Palopó	9	San Antonio Palopo	2	Febrero	2023-11-02T00:00:00	2024-11-08T21:00:00	6	Velocidad del viento	12.9
153442	7	Sololá	712	San Antonio Palopó	9	San Antonio Palopo	2	Febrero	2023-11-02T00:00:00	2024-11-08T21:00:00	7	Dirección del viento	12.87
153443	7	Sololá	712	San Antonio Palopó	9	San Antonio Palopo	2	Febrero	2023-11-02T00:00:00	2024-11-08T21:00:00	1	Precipitación	0
153444	7	Sololá	712	San Antonio Palopó	9	San Antonio Palopo	2	Febrero	2023-11-02T00:00:00	2024-11-08T21:00:00	8	Radiación solar	0
153445	7	Sololá	712	San Antonio Palopó	9	San Antonio Palopo	2	Febrero	2023-11-02T00:00:00	2024-11-08T22:00:00	2	Temperatura media	19.9
153446	7	Sololá	712	San Antonio Palopó	9	San Antonio Palopo	2	Febrero	2023-11-02T00:00:00	2024-11-08T22:00:00	4	Temperatura máxima	19.9
153447	7	Sololá	712	San Antonio Palopó	9	San Antonio Palopo	2	Febrero	2023-11-02T00:00:00	2024-11-08T22:00:00	3	Temperatura mínima	19.3
153448	7	Sololá	712	San Antonio Palopó	9	San Antonio Palopo	2	Febrero	2023-11-02T00:00:00	2024-11-08T22:00:00	5	Humedad	62
153449	7	Sololá	712	San Antonio Palopó	9	San Antonio Palopo	2	Febrero	2023-11-02T00:00:00	2024-11-08T22:00:00	6	Velocidad del viento	11.3
153450	7	Sololá	712	San Antonio Palopó	9	San Antonio Palopo	2	Febrero	2023-11-02T00:00:00	2024-11-08T22:00:00	7	Dirección del viento	11.27
153451	7	Sololá	712	San Antonio Palopó	9	San Antonio Palopo	2	Febrero	2023-11-02T00:00:00	2024-11-08T22:00:00	1	Precipitación	0
153452	7	Sololá	712	San Antonio Palopó	9	San Antonio Palopo	2	Febrero	2023-11-02T00:00:00	2024-11-08T22:00:00	8	Radiación solar	0
153453	7	Sololá	712	San Antonio Palopó	9	San Antonio Palopo	2	Febrero	2023-11-02T00:00:00	2024-11-08T23:00:00	2	Temperatura media	19.1
153454	7	Sololá	712	San Antonio Palopó	9	San Antonio Palopo	2	Febrero	2023-11-02T00:00:00	2024-11-08T23:00:00	4	Temperatura máxima	19.9
153455	7	Sololá	712	San Antonio Palopó	9	San Antonio Palopo	2	Febrero	2023-11-02T00:00:00	2024-11-08T23:00:00	3	Temperatura mínima	19.1
153456	7	Sololá	712	San Antonio Palopó	9	San Antonio Palopo	2	Febrero	2023-11-02T00:00:00	2024-11-08T23:00:00	5	Humedad	66
153457	7	Sololá	712	San Antonio Palopó	9	San Antonio Palopo	2	Febrero	2023-11-02T00:00:00	2024-11-08T23:00:00	6	Velocidad del viento	11.3
153458	7	Sololá	712	San Antonio Palopó	9	San Antonio Palopo	2	Febrero	2023-11-02T00:00:00	2024-11-08T23:00:00	7	Dirección del viento	11.27
153459	7	Sololá	712	San Antonio Palopó	9	San Antonio Palopo	2	Febrero	2023-11-02T00:00:00	2024-11-08T23:00:00	1	Precipitación	0
153460	7	Sololá	712	San Antonio Palopó	9	San Antonio Palopo	2	Febrero	2023-11-02T00:00:00	2024-11-08T23:00:00	8	Radiación solar	0
153461	7	Sololá	712	San Antonio Palopó	9	San Antonio Palopo	2	Febrero	2023-12-02T00:00:00	2024-11-08T00:00:00	2	Temperatura media	19.4
153462	7	Sololá	712	San Antonio Palopó	9	San Antonio Palopo	2	Febrero	2023-12-02T00:00:00	2024-11-08T00:00:00	4	Temperatura máxima	19.5
153463	7	Sololá	712	San Antonio Palopó	9	San Antonio Palopo	2	Febrero	2023-12-02T00:00:00	2024-11-08T00:00:00	3	Temperatura mínima	19
153464	7	Sololá	712	San Antonio Palopó	9	San Antonio Palopo	2	Febrero	2023-12-02T00:00:00	2024-11-08T00:00:00	5	Humedad	63
153465	7	Sololá	712	San Antonio Palopó	9	San Antonio Palopo	2	Febrero	2023-12-02T00:00:00	2024-11-08T00:00:00	6	Velocidad del viento	9.7
153466	7	Sololá	712	San Antonio Palopó	9	San Antonio Palopo	2	Febrero	2023-12-02T00:00:00	2024-11-08T00:00:00	7	Dirección del viento	9.66
153467	7	Sololá	712	San Antonio Palopó	9	San Antonio Palopo	2	Febrero	2023-12-02T00:00:00	2024-11-08T00:00:00	1	Precipitación	0
153468	7	Sololá	712	San Antonio Palopó	9	San Antonio Palopo	2	Febrero	2023-12-02T00:00:00	2024-11-08T00:00:00	8	Radiación solar	0
153469	7	Sololá	712	San Antonio Palopó	9	San Antonio Palopo	2	Febrero	2023-12-02T00:00:00	2024-11-08T01:00:00	2	Temperatura media	18.4
153470	7	Sololá	712	San Antonio Palopó	9	San Antonio Palopo	2	Febrero	2023-12-02T00:00:00	2024-11-08T01:00:00	4	Temperatura máxima	19.4
153471	7	Sololá	712	San Antonio Palopó	9	San Antonio Palopo	2	Febrero	2023-12-02T00:00:00	2024-11-08T01:00:00	3	Temperatura mínima	18.4
153472	7	Sololá	712	San Antonio Palopó	9	San Antonio Palopo	2	Febrero	2023-12-02T00:00:00	2024-11-08T01:00:00	5	Humedad	64
153473	7	Sololá	712	San Antonio Palopó	9	San Antonio Palopo	2	Febrero	2023-12-02T00:00:00	2024-11-08T01:00:00	6	Velocidad del viento	12.9
153474	7	Sololá	712	San Antonio Palopó	9	San Antonio Palopo	2	Febrero	2023-12-02T00:00:00	2024-11-08T01:00:00	7	Dirección del viento	12.87
153475	7	Sololá	712	San Antonio Palopó	9	San Antonio Palopo	2	Febrero	2023-12-02T00:00:00	2024-11-08T01:00:00	1	Precipitación	0
153476	7	Sololá	712	San Antonio Palopó	9	San Antonio Palopo	2	Febrero	2023-12-02T00:00:00	2024-11-08T01:00:00	8	Radiación solar	0
153477	7	Sololá	712	San Antonio Palopó	9	San Antonio Palopo	2	Febrero	2023-12-02T00:00:00	2024-11-08T02:00:00	2	Temperatura media	17.8
153478	7	Sololá	712	San Antonio Palopó	9	San Antonio Palopo	2	Febrero	2023-12-02T00:00:00	2024-11-08T02:00:00	4	Temperatura máxima	18.4
153479	7	Sololá	712	San Antonio Palopó	9	San Antonio Palopo	2	Febrero	2023-12-02T00:00:00	2024-11-08T02:00:00	3	Temperatura mínima	17.8
153480	7	Sololá	712	San Antonio Palopó	9	San Antonio Palopo	2	Febrero	2023-12-02T00:00:00	2024-11-08T02:00:00	5	Humedad	64
153481	7	Sololá	712	San Antonio Palopó	9	San Antonio Palopo	2	Febrero	2023-12-02T00:00:00	2024-11-08T02:00:00	6	Velocidad del viento	12.9
153482	7	Sololá	712	San Antonio Palopó	9	San Antonio Palopo	2	Febrero	2023-12-02T00:00:00	2024-11-08T02:00:00	7	Dirección del viento	12.87
153483	7	Sololá	712	San Antonio Palopó	9	San Antonio Palopo	2	Febrero	2023-12-02T00:00:00	2024-11-08T02:00:00	1	Precipitación	0
153484	7	Sololá	712	San Antonio Palopó	9	San Antonio Palopo	2	Febrero	2023-12-02T00:00:00	2024-11-08T02:00:00	8	Radiación solar	0
153485	7	Sololá	712	San Antonio Palopó	9	San Antonio Palopo	2	Febrero	2023-12-02T00:00:00	2024-11-08T03:00:00	2	Temperatura media	17.2
153486	7	Sololá	712	San Antonio Palopó	9	San Antonio Palopo	2	Febrero	2023-12-02T00:00:00	2024-11-08T03:00:00	4	Temperatura máxima	17.8
153487	7	Sololá	712	San Antonio Palopó	9	San Antonio Palopo	2	Febrero	2023-12-02T00:00:00	2024-11-08T03:00:00	3	Temperatura mínima	17.2
153488	7	Sololá	712	San Antonio Palopó	9	San Antonio Palopo	2	Febrero	2023-12-02T00:00:00	2024-11-08T03:00:00	5	Humedad	64
153489	7	Sololá	712	San Antonio Palopó	9	San Antonio Palopo	2	Febrero	2023-12-02T00:00:00	2024-11-08T03:00:00	6	Velocidad del viento	9.7
153490	7	Sololá	712	San Antonio Palopó	9	San Antonio Palopo	2	Febrero	2023-12-02T00:00:00	2024-11-08T03:00:00	7	Dirección del viento	9.66
153491	7	Sololá	712	San Antonio Palopó	9	San Antonio Palopo	2	Febrero	2023-12-02T00:00:00	2024-11-08T03:00:00	1	Precipitación	0
153492	7	Sololá	712	San Antonio Palopó	9	San Antonio Palopo	2	Febrero	2023-12-02T00:00:00	2024-11-08T03:00:00	8	Radiación solar	0
153493	7	Sololá	712	San Antonio Palopó	9	San Antonio Palopo	2	Febrero	2023-12-02T00:00:00	2024-11-08T04:00:00	2	Temperatura media	17
153494	7	Sololá	712	San Antonio Palopó	9	San Antonio Palopo	2	Febrero	2023-12-02T00:00:00	2024-11-08T04:00:00	4	Temperatura máxima	17.6
153495	7	Sololá	712	San Antonio Palopó	9	San Antonio Palopo	2	Febrero	2023-12-02T00:00:00	2024-11-08T04:00:00	3	Temperatura mínima	17
153496	7	Sololá	712	San Antonio Palopó	9	San Antonio Palopo	2	Febrero	2023-12-02T00:00:00	2024-11-08T04:00:00	5	Humedad	62
153497	7	Sololá	712	San Antonio Palopó	9	San Antonio Palopo	2	Febrero	2023-12-02T00:00:00	2024-11-08T04:00:00	6	Velocidad del viento	20.9
153498	7	Sololá	712	San Antonio Palopó	9	San Antonio Palopo	2	Febrero	2023-12-02T00:00:00	2024-11-08T04:00:00	7	Dirección del viento	20.92
153499	7	Sololá	712	San Antonio Palopó	9	San Antonio Palopo	2	Febrero	2023-12-02T00:00:00	2024-11-08T04:00:00	1	Precipitación	0
153500	7	Sololá	712	San Antonio Palopó	9	San Antonio Palopo	2	Febrero	2023-12-02T00:00:00	2024-11-08T04:00:00	8	Radiación solar	0
153501	7	Sololá	712	San Antonio Palopó	9	San Antonio Palopo	2	Febrero	2023-12-02T00:00:00	2024-11-08T05:00:00	2	Temperatura media	16.7
153502	7	Sololá	712	San Antonio Palopó	9	San Antonio Palopo	2	Febrero	2023-12-02T00:00:00	2024-11-08T05:00:00	4	Temperatura máxima	17
153503	7	Sololá	712	San Antonio Palopó	9	San Antonio Palopo	2	Febrero	2023-12-02T00:00:00	2024-11-08T05:00:00	3	Temperatura mínima	16.7
153504	7	Sololá	712	San Antonio Palopó	9	San Antonio Palopo	2	Febrero	2023-12-02T00:00:00	2024-11-08T05:00:00	5	Humedad	63
153505	7	Sololá	712	San Antonio Palopó	9	San Antonio Palopo	2	Febrero	2023-12-02T00:00:00	2024-11-08T05:00:00	6	Velocidad del viento	24.1
153506	7	Sololá	712	San Antonio Palopó	9	San Antonio Palopo	2	Febrero	2023-12-02T00:00:00	2024-11-08T05:00:00	7	Dirección del viento	24.14
153507	7	Sololá	712	San Antonio Palopó	9	San Antonio Palopo	2	Febrero	2023-12-02T00:00:00	2024-11-08T05:00:00	1	Precipitación	0
153508	7	Sololá	712	San Antonio Palopó	9	San Antonio Palopo	2	Febrero	2023-12-02T00:00:00	2024-11-08T05:00:00	8	Radiación solar	0
153509	7	Sololá	712	San Antonio Palopó	9	San Antonio Palopo	2	Febrero	2023-12-02T00:00:00	2024-11-08T06:00:00	2	Temperatura media	16.6
153510	7	Sololá	712	San Antonio Palopó	9	San Antonio Palopo	2	Febrero	2023-12-02T00:00:00	2024-11-08T06:00:00	4	Temperatura máxima	16.8
153511	7	Sololá	712	San Antonio Palopó	9	San Antonio Palopo	2	Febrero	2023-12-02T00:00:00	2024-11-08T06:00:00	3	Temperatura mínima	16.6
153512	7	Sololá	712	San Antonio Palopó	9	San Antonio Palopo	2	Febrero	2023-12-02T00:00:00	2024-11-08T06:00:00	5	Humedad	63
153513	7	Sololá	712	San Antonio Palopó	9	San Antonio Palopo	2	Febrero	2023-12-02T00:00:00	2024-11-08T06:00:00	6	Velocidad del viento	24.1
153514	7	Sololá	712	San Antonio Palopó	9	San Antonio Palopo	2	Febrero	2023-12-02T00:00:00	2024-11-08T06:00:00	7	Dirección del viento	24.14
153515	7	Sololá	712	San Antonio Palopó	9	San Antonio Palopo	2	Febrero	2023-12-02T00:00:00	2024-11-08T06:00:00	1	Precipitación	0
153516	7	Sololá	712	San Antonio Palopó	9	San Antonio Palopo	2	Febrero	2023-12-02T00:00:00	2024-11-08T06:00:00	8	Radiación solar	0
153517	7	Sololá	712	San Antonio Palopó	9	San Antonio Palopo	2	Febrero	2023-12-02T00:00:00	2024-11-08T07:00:00	2	Temperatura media	16.8
153518	7	Sololá	712	San Antonio Palopó	9	San Antonio Palopo	2	Febrero	2023-12-02T00:00:00	2024-11-08T07:00:00	4	Temperatura máxima	16.8
153519	7	Sololá	712	San Antonio Palopó	9	San Antonio Palopo	2	Febrero	2023-12-02T00:00:00	2024-11-08T07:00:00	3	Temperatura mínima	16.5
153520	7	Sololá	712	San Antonio Palopó	9	San Antonio Palopo	2	Febrero	2023-12-02T00:00:00	2024-11-08T07:00:00	5	Humedad	61
153521	7	Sololá	712	San Antonio Palopó	9	San Antonio Palopo	2	Febrero	2023-12-02T00:00:00	2024-11-08T07:00:00	6	Velocidad del viento	27.4
153522	7	Sololá	712	San Antonio Palopó	9	San Antonio Palopo	2	Febrero	2023-12-02T00:00:00	2024-11-08T07:00:00	7	Dirección del viento	27.36
153523	7	Sololá	712	San Antonio Palopó	9	San Antonio Palopo	2	Febrero	2023-12-02T00:00:00	2024-11-08T07:00:00	1	Precipitación	0
153524	7	Sololá	712	San Antonio Palopó	9	San Antonio Palopo	2	Febrero	2023-12-02T00:00:00	2024-11-08T07:00:00	8	Radiación solar	4
153525	7	Sololá	712	San Antonio Palopó	9	San Antonio Palopo	2	Febrero	2023-12-02T00:00:00	2024-11-08T08:00:00	2	Temperatura media	17.4
153526	7	Sololá	712	San Antonio Palopó	9	San Antonio Palopo	2	Febrero	2023-12-02T00:00:00	2024-11-08T08:00:00	4	Temperatura máxima	17.5
153527	7	Sololá	712	San Antonio Palopó	9	San Antonio Palopo	2	Febrero	2023-12-02T00:00:00	2024-11-08T08:00:00	3	Temperatura mínima	16.7
153528	7	Sololá	712	San Antonio Palopó	9	San Antonio Palopo	2	Febrero	2023-12-02T00:00:00	2024-11-08T08:00:00	5	Humedad	58
153529	7	Sololá	712	San Antonio Palopó	9	San Antonio Palopo	2	Febrero	2023-12-02T00:00:00	2024-11-08T08:00:00	6	Velocidad del viento	29
153530	7	Sololá	712	San Antonio Palopó	9	San Antonio Palopo	2	Febrero	2023-12-02T00:00:00	2024-11-08T08:00:00	7	Dirección del viento	28.97
153531	7	Sololá	712	San Antonio Palopó	9	San Antonio Palopo	2	Febrero	2023-12-02T00:00:00	2024-11-08T08:00:00	1	Precipitación	0
153532	7	Sololá	712	San Antonio Palopó	9	San Antonio Palopo	2	Febrero	2023-12-02T00:00:00	2024-11-08T08:00:00	8	Radiación solar	16
153533	7	Sololá	712	San Antonio Palopó	9	San Antonio Palopo	2	Febrero	2023-12-02T00:00:00	2024-11-08T09:00:00	2	Temperatura media	18.6
153534	7	Sololá	712	San Antonio Palopó	9	San Antonio Palopo	2	Febrero	2023-12-02T00:00:00	2024-11-08T09:00:00	4	Temperatura máxima	18.6
153535	7	Sololá	712	San Antonio Palopó	9	San Antonio Palopo	2	Febrero	2023-12-02T00:00:00	2024-11-08T09:00:00	3	Temperatura mínima	17.4
153536	7	Sololá	712	San Antonio Palopó	9	San Antonio Palopo	2	Febrero	2023-12-02T00:00:00	2024-11-08T09:00:00	5	Humedad	55
153537	7	Sololá	712	San Antonio Palopó	9	San Antonio Palopo	2	Febrero	2023-12-02T00:00:00	2024-11-08T09:00:00	6	Velocidad del viento	25.7
153538	7	Sololá	712	San Antonio Palopó	9	San Antonio Palopo	2	Febrero	2023-12-02T00:00:00	2024-11-08T09:00:00	7	Dirección del viento	25.75
153539	7	Sololá	712	San Antonio Palopó	9	San Antonio Palopo	2	Febrero	2023-12-02T00:00:00	2024-11-08T09:00:00	1	Precipitación	0
153540	7	Sololá	712	San Antonio Palopó	9	San Antonio Palopo	2	Febrero	2023-12-02T00:00:00	2024-11-08T09:00:00	8	Radiación solar	252
153541	7	Sololá	712	San Antonio Palopó	9	San Antonio Palopo	2	Febrero	2023-12-02T00:00:00	2024-11-08T10:00:00	2	Temperatura media	20.2
153542	7	Sololá	712	San Antonio Palopó	9	San Antonio Palopo	2	Febrero	2023-12-02T00:00:00	2024-11-08T10:00:00	4	Temperatura máxima	20.2
153543	7	Sololá	712	San Antonio Palopó	9	San Antonio Palopo	2	Febrero	2023-12-02T00:00:00	2024-11-08T10:00:00	3	Temperatura mínima	18.6
153544	7	Sololá	712	San Antonio Palopó	9	San Antonio Palopo	2	Febrero	2023-12-02T00:00:00	2024-11-08T10:00:00	5	Humedad	52
153545	7	Sololá	712	San Antonio Palopó	9	San Antonio Palopo	2	Febrero	2023-12-02T00:00:00	2024-11-08T10:00:00	6	Velocidad del viento	24.1
153546	7	Sololá	712	San Antonio Palopó	9	San Antonio Palopo	2	Febrero	2023-12-02T00:00:00	2024-11-08T10:00:00	7	Dirección del viento	24.14
153547	7	Sololá	712	San Antonio Palopó	9	San Antonio Palopo	2	Febrero	2023-12-02T00:00:00	2024-11-08T10:00:00	1	Precipitación	0
153548	7	Sololá	712	San Antonio Palopó	9	San Antonio Palopo	2	Febrero	2023-12-02T00:00:00	2024-11-08T10:00:00	8	Radiación solar	600
153549	7	Sololá	712	San Antonio Palopó	9	San Antonio Palopo	2	Febrero	2023-12-02T00:00:00	2024-11-08T11:00:00	2	Temperatura media	20.9
153550	7	Sololá	712	San Antonio Palopó	9	San Antonio Palopo	2	Febrero	2023-12-02T00:00:00	2024-11-08T11:00:00	4	Temperatura máxima	20.9
153551	7	Sololá	712	San Antonio Palopó	9	San Antonio Palopo	2	Febrero	2023-12-02T00:00:00	2024-11-08T11:00:00	3	Temperatura mínima	20.2
153552	7	Sololá	712	San Antonio Palopó	9	San Antonio Palopo	2	Febrero	2023-12-02T00:00:00	2024-11-08T11:00:00	5	Humedad	51
153553	7	Sololá	712	San Antonio Palopó	9	San Antonio Palopo	2	Febrero	2023-12-02T00:00:00	2024-11-08T11:00:00	6	Velocidad del viento	30.6
153554	7	Sololá	712	San Antonio Palopó	9	San Antonio Palopo	2	Febrero	2023-12-02T00:00:00	2024-11-08T11:00:00	7	Dirección del viento	30.58
153555	7	Sololá	712	San Antonio Palopó	9	San Antonio Palopo	2	Febrero	2023-12-02T00:00:00	2024-11-08T11:00:00	1	Precipitación	0
153556	7	Sololá	712	San Antonio Palopó	9	San Antonio Palopo	2	Febrero	2023-12-02T00:00:00	2024-11-08T11:00:00	8	Radiación solar	753
153557	7	Sololá	712	San Antonio Palopó	9	San Antonio Palopo	2	Febrero	2023-12-02T00:00:00	2024-11-08T12:00:00	2	Temperatura media	22.1
153558	7	Sololá	712	San Antonio Palopó	9	San Antonio Palopo	2	Febrero	2023-12-02T00:00:00	2024-11-08T12:00:00	4	Temperatura máxima	22.2
153559	7	Sololá	712	San Antonio Palopó	9	San Antonio Palopo	2	Febrero	2023-12-02T00:00:00	2024-11-08T12:00:00	3	Temperatura mínima	20.9
153560	7	Sololá	712	San Antonio Palopó	9	San Antonio Palopo	2	Febrero	2023-12-02T00:00:00	2024-11-08T12:00:00	5	Humedad	49
153561	7	Sololá	712	San Antonio Palopó	9	San Antonio Palopo	2	Febrero	2023-12-02T00:00:00	2024-11-08T12:00:00	6	Velocidad del viento	19.3
153562	7	Sololá	712	San Antonio Palopó	9	San Antonio Palopo	2	Febrero	2023-12-02T00:00:00	2024-11-08T12:00:00	7	Dirección del viento	19.31
153563	7	Sololá	712	San Antonio Palopó	9	San Antonio Palopo	2	Febrero	2023-12-02T00:00:00	2024-11-08T12:00:00	1	Precipitación	0
153564	7	Sololá	712	San Antonio Palopó	9	San Antonio Palopo	2	Febrero	2023-12-02T00:00:00	2024-11-08T12:00:00	8	Radiación solar	768
153565	7	Sololá	712	San Antonio Palopó	9	San Antonio Palopo	2	Febrero	2023-12-02T00:00:00	2024-11-08T13:00:00	2	Temperatura media	23.3
153566	7	Sololá	712	San Antonio Palopó	9	San Antonio Palopo	2	Febrero	2023-12-02T00:00:00	2024-11-08T13:00:00	4	Temperatura máxima	23.3
153567	7	Sololá	712	San Antonio Palopó	9	San Antonio Palopo	2	Febrero	2023-12-02T00:00:00	2024-11-08T13:00:00	3	Temperatura mínima	22
153568	7	Sololá	712	San Antonio Palopó	9	San Antonio Palopo	2	Febrero	2023-12-02T00:00:00	2024-11-08T13:00:00	5	Humedad	45
153569	7	Sololá	712	San Antonio Palopó	9	San Antonio Palopo	2	Febrero	2023-12-02T00:00:00	2024-11-08T13:00:00	6	Velocidad del viento	12.9
153570	7	Sololá	712	San Antonio Palopó	9	San Antonio Palopo	2	Febrero	2023-12-02T00:00:00	2024-11-08T13:00:00	7	Dirección del viento	12.87
153571	7	Sololá	712	San Antonio Palopó	9	San Antonio Palopo	2	Febrero	2023-12-02T00:00:00	2024-11-08T13:00:00	1	Precipitación	0
153572	7	Sololá	712	San Antonio Palopó	9	San Antonio Palopo	2	Febrero	2023-12-02T00:00:00	2024-11-08T13:00:00	8	Radiación solar	849
153573	7	Sololá	712	San Antonio Palopó	9	San Antonio Palopo	2	Febrero	2023-12-02T00:00:00	2024-11-08T14:00:00	2	Temperatura media	23.9
153574	7	Sololá	712	San Antonio Palopó	9	San Antonio Palopo	2	Febrero	2023-12-02T00:00:00	2024-11-08T14:00:00	4	Temperatura máxima	24
153575	7	Sololá	712	San Antonio Palopó	9	San Antonio Palopo	2	Febrero	2023-12-02T00:00:00	2024-11-08T14:00:00	3	Temperatura mínima	22.9
153576	7	Sololá	712	San Antonio Palopó	9	San Antonio Palopo	2	Febrero	2023-12-02T00:00:00	2024-11-08T14:00:00	5	Humedad	46
153577	7	Sololá	712	San Antonio Palopó	9	San Antonio Palopo	2	Febrero	2023-12-02T00:00:00	2024-11-08T14:00:00	6	Velocidad del viento	12.9
153578	7	Sololá	712	San Antonio Palopó	9	San Antonio Palopo	2	Febrero	2023-12-02T00:00:00	2024-11-08T14:00:00	7	Dirección del viento	12.87
153579	7	Sololá	712	San Antonio Palopó	9	San Antonio Palopo	2	Febrero	2023-12-02T00:00:00	2024-11-08T14:00:00	1	Precipitación	0
153580	7	Sololá	712	San Antonio Palopó	9	San Antonio Palopo	2	Febrero	2023-12-02T00:00:00	2024-11-08T14:00:00	8	Radiación solar	806
153581	7	Sololá	712	San Antonio Palopó	9	San Antonio Palopo	2	Febrero	2023-12-02T00:00:00	2024-11-08T15:00:00	2	Temperatura media	25.7
153582	7	Sololá	712	San Antonio Palopó	9	San Antonio Palopo	2	Febrero	2023-12-02T00:00:00	2024-11-08T15:00:00	4	Temperatura máxima	25.8
153583	7	Sololá	712	San Antonio Palopó	9	San Antonio Palopo	2	Febrero	2023-12-02T00:00:00	2024-11-08T15:00:00	3	Temperatura mínima	23.8
153584	7	Sololá	712	San Antonio Palopó	9	San Antonio Palopo	2	Febrero	2023-12-02T00:00:00	2024-11-08T15:00:00	5	Humedad	41
153585	7	Sololá	712	San Antonio Palopó	9	San Antonio Palopo	2	Febrero	2023-12-02T00:00:00	2024-11-08T15:00:00	6	Velocidad del viento	12.9
153586	7	Sololá	712	San Antonio Palopó	9	San Antonio Palopo	2	Febrero	2023-12-02T00:00:00	2024-11-08T15:00:00	7	Dirección del viento	12.87
153587	7	Sololá	712	San Antonio Palopó	9	San Antonio Palopo	2	Febrero	2023-12-02T00:00:00	2024-11-08T15:00:00	1	Precipitación	0
153588	7	Sololá	712	San Antonio Palopó	9	San Antonio Palopo	2	Febrero	2023-12-02T00:00:00	2024-11-08T15:00:00	8	Radiación solar	701
153589	7	Sololá	712	San Antonio Palopó	9	San Antonio Palopo	2	Febrero	2023-12-02T00:00:00	2024-11-08T16:00:00	2	Temperatura media	25.7
153590	7	Sololá	712	San Antonio Palopó	9	San Antonio Palopo	2	Febrero	2023-12-02T00:00:00	2024-11-08T16:00:00	4	Temperatura máxima	25.8
153591	7	Sololá	712	San Antonio Palopó	9	San Antonio Palopo	2	Febrero	2023-12-02T00:00:00	2024-11-08T16:00:00	3	Temperatura mínima	24.7
153592	7	Sololá	712	San Antonio Palopó	9	San Antonio Palopo	2	Febrero	2023-12-02T00:00:00	2024-11-08T16:00:00	5	Humedad	42
153593	7	Sololá	712	San Antonio Palopó	9	San Antonio Palopo	2	Febrero	2023-12-02T00:00:00	2024-11-08T16:00:00	6	Velocidad del viento	11.3
153594	7	Sololá	712	San Antonio Palopó	9	San Antonio Palopo	2	Febrero	2023-12-02T00:00:00	2024-11-08T16:00:00	7	Dirección del viento	11.27
153595	7	Sololá	712	San Antonio Palopó	9	San Antonio Palopo	2	Febrero	2023-12-02T00:00:00	2024-11-08T16:00:00	1	Precipitación	0
153596	7	Sololá	712	San Antonio Palopó	9	San Antonio Palopo	2	Febrero	2023-12-02T00:00:00	2024-11-08T16:00:00	8	Radiación solar	524
153597	7	Sololá	712	San Antonio Palopó	9	San Antonio Palopo	2	Febrero	2023-12-02T00:00:00	2024-11-08T17:00:00	2	Temperatura media	24.5
153598	7	Sololá	712	San Antonio Palopó	9	San Antonio Palopo	2	Febrero	2023-12-02T00:00:00	2024-11-08T17:00:00	4	Temperatura máxima	25.8
153599	7	Sololá	712	San Antonio Palopó	9	San Antonio Palopo	2	Febrero	2023-12-02T00:00:00	2024-11-08T17:00:00	3	Temperatura mínima	24.3
153600	7	Sololá	712	San Antonio Palopó	9	San Antonio Palopo	2	Febrero	2023-12-02T00:00:00	2024-11-08T17:00:00	5	Humedad	43
153601	7	Sololá	712	San Antonio Palopó	9	San Antonio Palopo	2	Febrero	2023-12-02T00:00:00	2024-11-08T17:00:00	6	Velocidad del viento	9.7
153602	7	Sololá	712	San Antonio Palopó	9	San Antonio Palopo	2	Febrero	2023-12-02T00:00:00	2024-11-08T17:00:00	7	Dirección del viento	9.66
153603	7	Sololá	712	San Antonio Palopó	9	San Antonio Palopo	2	Febrero	2023-12-02T00:00:00	2024-11-08T17:00:00	1	Precipitación	0
153604	7	Sololá	712	San Antonio Palopó	9	San Antonio Palopo	2	Febrero	2023-12-02T00:00:00	2024-11-08T17:00:00	8	Radiación solar	296
153605	7	Sololá	712	San Antonio Palopó	9	San Antonio Palopo	2	Febrero	2023-12-02T00:00:00	2024-11-08T18:00:00	2	Temperatura media	21.6
153606	7	Sololá	712	San Antonio Palopó	9	San Antonio Palopo	2	Febrero	2023-12-02T00:00:00	2024-11-08T18:00:00	4	Temperatura máxima	24.6
153607	7	Sololá	712	San Antonio Palopó	9	San Antonio Palopo	2	Febrero	2023-12-02T00:00:00	2024-11-08T18:00:00	3	Temperatura mínima	21.6
153608	7	Sololá	712	San Antonio Palopó	9	San Antonio Palopo	2	Febrero	2023-12-02T00:00:00	2024-11-08T18:00:00	5	Humedad	50
153609	7	Sololá	712	San Antonio Palopó	9	San Antonio Palopo	2	Febrero	2023-12-02T00:00:00	2024-11-08T18:00:00	6	Velocidad del viento	8
153610	7	Sololá	712	San Antonio Palopó	9	San Antonio Palopo	2	Febrero	2023-12-02T00:00:00	2024-11-08T18:00:00	7	Dirección del viento	8.05
153611	7	Sololá	712	San Antonio Palopó	9	San Antonio Palopo	2	Febrero	2023-12-02T00:00:00	2024-11-08T18:00:00	1	Precipitación	0
153612	7	Sololá	712	San Antonio Palopó	9	San Antonio Palopo	2	Febrero	2023-12-02T00:00:00	2024-11-08T18:00:00	8	Radiación solar	63
153613	7	Sololá	712	San Antonio Palopó	9	San Antonio Palopo	2	Febrero	2023-12-02T00:00:00	2024-11-08T19:00:00	2	Temperatura media	19
153614	7	Sololá	712	San Antonio Palopó	9	San Antonio Palopo	2	Febrero	2023-12-02T00:00:00	2024-11-08T19:00:00	4	Temperatura máxima	21.6
153615	7	Sololá	712	San Antonio Palopó	9	San Antonio Palopo	2	Febrero	2023-12-02T00:00:00	2024-11-08T19:00:00	3	Temperatura mínima	19
153616	7	Sololá	712	San Antonio Palopó	9	San Antonio Palopo	2	Febrero	2023-12-02T00:00:00	2024-11-08T19:00:00	5	Humedad	59
153617	7	Sololá	712	San Antonio Palopó	9	San Antonio Palopo	2	Febrero	2023-12-02T00:00:00	2024-11-08T19:00:00	6	Velocidad del viento	8
153618	7	Sololá	712	San Antonio Palopó	9	San Antonio Palopo	2	Febrero	2023-12-02T00:00:00	2024-11-08T19:00:00	7	Dirección del viento	8.05
153619	7	Sololá	712	San Antonio Palopó	9	San Antonio Palopo	2	Febrero	2023-12-02T00:00:00	2024-11-08T19:00:00	1	Precipitación	0
153620	7	Sololá	712	San Antonio Palopó	9	San Antonio Palopo	2	Febrero	2023-12-02T00:00:00	2024-11-08T19:00:00	8	Radiación solar	0
153621	7	Sololá	712	San Antonio Palopó	9	San Antonio Palopo	2	Febrero	2023-12-02T00:00:00	2024-11-08T20:00:00	2	Temperatura media	17.7
153622	7	Sololá	712	San Antonio Palopó	9	San Antonio Palopo	2	Febrero	2023-12-02T00:00:00	2024-11-08T20:00:00	4	Temperatura máxima	19
153623	7	Sololá	712	San Antonio Palopó	9	San Antonio Palopo	2	Febrero	2023-12-02T00:00:00	2024-11-08T20:00:00	3	Temperatura mínima	17.7
153624	7	Sololá	712	San Antonio Palopó	9	San Antonio Palopo	2	Febrero	2023-12-02T00:00:00	2024-11-08T20:00:00	5	Humedad	60
153625	7	Sololá	712	San Antonio Palopó	9	San Antonio Palopo	2	Febrero	2023-12-02T00:00:00	2024-11-08T20:00:00	6	Velocidad del viento	9.7
153626	7	Sololá	712	San Antonio Palopó	9	San Antonio Palopo	2	Febrero	2023-12-02T00:00:00	2024-11-08T20:00:00	7	Dirección del viento	9.66
153627	7	Sololá	712	San Antonio Palopó	9	San Antonio Palopo	2	Febrero	2023-12-02T00:00:00	2024-11-08T20:00:00	1	Precipitación	0
153628	7	Sololá	712	San Antonio Palopó	9	San Antonio Palopo	2	Febrero	2023-12-02T00:00:00	2024-11-08T20:00:00	8	Radiación solar	0
153629	7	Sololá	712	San Antonio Palopó	9	San Antonio Palopo	2	Febrero	2023-12-02T00:00:00	2024-11-08T21:00:00	2	Temperatura media	16.6
153630	7	Sololá	712	San Antonio Palopó	9	San Antonio Palopo	2	Febrero	2023-12-02T00:00:00	2024-11-08T21:00:00	4	Temperatura máxima	17.7
153631	7	Sololá	712	San Antonio Palopó	9	San Antonio Palopo	2	Febrero	2023-12-02T00:00:00	2024-11-08T21:00:00	3	Temperatura mínima	16.6
153632	7	Sololá	712	San Antonio Palopó	9	San Antonio Palopo	2	Febrero	2023-12-02T00:00:00	2024-11-08T21:00:00	5	Humedad	64
153633	7	Sololá	712	San Antonio Palopó	9	San Antonio Palopo	2	Febrero	2023-12-02T00:00:00	2024-11-08T21:00:00	6	Velocidad del viento	12.9
153634	7	Sololá	712	San Antonio Palopó	9	San Antonio Palopo	2	Febrero	2023-12-02T00:00:00	2024-11-08T21:00:00	7	Dirección del viento	12.87
153635	7	Sololá	712	San Antonio Palopó	9	San Antonio Palopo	2	Febrero	2023-12-02T00:00:00	2024-11-08T21:00:00	1	Precipitación	0
153636	7	Sololá	712	San Antonio Palopó	9	San Antonio Palopo	2	Febrero	2023-12-02T00:00:00	2024-11-08T21:00:00	8	Radiación solar	0
153637	7	Sololá	712	San Antonio Palopó	9	San Antonio Palopo	2	Febrero	2023-12-02T00:00:00	2024-11-08T22:00:00	2	Temperatura media	16.9
153638	7	Sololá	712	San Antonio Palopó	9	San Antonio Palopo	2	Febrero	2023-12-02T00:00:00	2024-11-08T22:00:00	4	Temperatura máxima	17
153639	7	Sololá	712	San Antonio Palopó	9	San Antonio Palopo	2	Febrero	2023-12-02T00:00:00	2024-11-08T22:00:00	3	Temperatura mínima	16.6
153640	7	Sololá	712	San Antonio Palopó	9	San Antonio Palopo	2	Febrero	2023-12-02T00:00:00	2024-11-08T22:00:00	5	Humedad	65
153641	7	Sololá	712	San Antonio Palopó	9	San Antonio Palopo	2	Febrero	2023-12-02T00:00:00	2024-11-08T22:00:00	6	Velocidad del viento	12.9
153642	7	Sololá	712	San Antonio Palopó	9	San Antonio Palopo	2	Febrero	2023-12-02T00:00:00	2024-11-08T22:00:00	7	Dirección del viento	12.87
153643	7	Sololá	712	San Antonio Palopó	9	San Antonio Palopo	2	Febrero	2023-12-02T00:00:00	2024-11-08T22:00:00	1	Precipitación	0
153644	7	Sololá	712	San Antonio Palopó	9	San Antonio Palopo	2	Febrero	2023-12-02T00:00:00	2024-11-08T22:00:00	8	Radiación solar	0
153645	7	Sololá	712	San Antonio Palopó	9	San Antonio Palopo	2	Febrero	2023-12-02T00:00:00	2024-11-08T23:00:00	2	Temperatura media	16.7
153646	7	Sololá	712	San Antonio Palopó	9	San Antonio Palopo	2	Febrero	2023-12-02T00:00:00	2024-11-08T23:00:00	4	Temperatura máxima	17.1
153647	7	Sololá	712	San Antonio Palopó	9	San Antonio Palopo	2	Febrero	2023-12-02T00:00:00	2024-11-08T23:00:00	3	Temperatura mínima	16.7
153648	7	Sololá	712	San Antonio Palopó	9	San Antonio Palopo	2	Febrero	2023-12-02T00:00:00	2024-11-08T23:00:00	5	Humedad	66
153649	7	Sololá	712	San Antonio Palopó	9	San Antonio Palopo	2	Febrero	2023-12-02T00:00:00	2024-11-08T23:00:00	6	Velocidad del viento	11.3
153650	7	Sololá	712	San Antonio Palopó	9	San Antonio Palopo	2	Febrero	2023-12-02T00:00:00	2024-11-08T23:00:00	7	Dirección del viento	11.27
153651	7	Sololá	712	San Antonio Palopó	9	San Antonio Palopo	2	Febrero	2023-12-02T00:00:00	2024-11-08T23:00:00	1	Precipitación	0
153652	7	Sololá	712	San Antonio Palopó	9	San Antonio Palopo	2	Febrero	2023-12-02T00:00:00	2024-11-08T23:00:00	8	Radiación solar	0
153653	7	Sololá	712	San Antonio Palopó	9	San Antonio Palopo	2	Febrero	2023-02-13T00:00:00	2024-11-08T00:00:00	2	Temperatura media	17
153654	7	Sololá	712	San Antonio Palopó	9	San Antonio Palopo	2	Febrero	2023-02-13T00:00:00	2024-11-08T00:00:00	4	Temperatura máxima	17.3
153655	7	Sololá	712	San Antonio Palopó	9	San Antonio Palopo	2	Febrero	2023-02-13T00:00:00	2024-11-08T00:00:00	3	Temperatura mínima	16.7
153656	7	Sololá	712	San Antonio Palopó	9	San Antonio Palopo	2	Febrero	2023-02-13T00:00:00	2024-11-08T00:00:00	5	Humedad	66
153657	7	Sololá	712	San Antonio Palopó	9	San Antonio Palopo	2	Febrero	2023-02-13T00:00:00	2024-11-08T00:00:00	6	Velocidad del viento	8
153658	7	Sololá	712	San Antonio Palopó	9	San Antonio Palopo	2	Febrero	2023-02-13T00:00:00	2024-11-08T00:00:00	7	Dirección del viento	8.05
153659	7	Sololá	712	San Antonio Palopó	9	San Antonio Palopo	2	Febrero	2023-02-13T00:00:00	2024-11-08T00:00:00	1	Precipitación	0
153660	7	Sololá	712	San Antonio Palopó	9	San Antonio Palopo	2	Febrero	2023-02-13T00:00:00	2024-11-08T00:00:00	8	Radiación solar	0
153661	7	Sololá	712	San Antonio Palopó	9	San Antonio Palopo	2	Febrero	2023-02-13T00:00:00	2024-11-08T01:00:00	2	Temperatura media	16.6
153662	7	Sololá	712	San Antonio Palopó	9	San Antonio Palopo	2	Febrero	2023-02-13T00:00:00	2024-11-08T01:00:00	4	Temperatura máxima	17
153663	7	Sololá	712	San Antonio Palopó	9	San Antonio Palopo	2	Febrero	2023-02-13T00:00:00	2024-11-08T01:00:00	3	Temperatura mínima	16.3
153664	7	Sololá	712	San Antonio Palopó	9	San Antonio Palopo	2	Febrero	2023-02-13T00:00:00	2024-11-08T01:00:00	5	Humedad	67
153665	7	Sololá	712	San Antonio Palopó	9	San Antonio Palopo	2	Febrero	2023-02-13T00:00:00	2024-11-08T01:00:00	6	Velocidad del viento	3.2
153666	7	Sololá	712	San Antonio Palopó	9	San Antonio Palopo	2	Febrero	2023-02-13T00:00:00	2024-11-08T01:00:00	7	Dirección del viento	3.22
153667	7	Sololá	712	San Antonio Palopó	9	San Antonio Palopo	2	Febrero	2023-02-13T00:00:00	2024-11-08T01:00:00	1	Precipitación	0
153668	7	Sololá	712	San Antonio Palopó	9	San Antonio Palopo	2	Febrero	2023-02-13T00:00:00	2024-11-08T01:00:00	8	Radiación solar	0
153669	7	Sololá	712	San Antonio Palopó	9	San Antonio Palopo	2	Febrero	2023-02-13T00:00:00	2024-11-08T02:00:00	2	Temperatura media	16.8
153670	7	Sololá	712	San Antonio Palopó	9	San Antonio Palopo	2	Febrero	2023-02-13T00:00:00	2024-11-08T02:00:00	4	Temperatura máxima	16.9
153671	7	Sololá	712	San Antonio Palopó	9	San Antonio Palopo	2	Febrero	2023-02-13T00:00:00	2024-11-08T02:00:00	3	Temperatura mínima	16.6
153672	7	Sololá	712	San Antonio Palopó	9	San Antonio Palopo	2	Febrero	2023-02-13T00:00:00	2024-11-08T02:00:00	5	Humedad	66
153673	7	Sololá	712	San Antonio Palopó	9	San Antonio Palopo	2	Febrero	2023-02-13T00:00:00	2024-11-08T02:00:00	6	Velocidad del viento	4.8
153674	7	Sololá	712	San Antonio Palopó	9	San Antonio Palopo	2	Febrero	2023-02-13T00:00:00	2024-11-08T02:00:00	7	Dirección del viento	4.83
153675	7	Sololá	712	San Antonio Palopó	9	San Antonio Palopo	2	Febrero	2023-02-13T00:00:00	2024-11-08T02:00:00	1	Precipitación	0
153676	7	Sololá	712	San Antonio Palopó	9	San Antonio Palopo	2	Febrero	2023-02-13T00:00:00	2024-11-08T02:00:00	8	Radiación solar	0
153677	7	Sololá	712	San Antonio Palopó	9	San Antonio Palopo	2	Febrero	2023-02-13T00:00:00	2024-11-08T03:00:00	2	Temperatura media	16.6
153678	7	Sololá	712	San Antonio Palopó	9	San Antonio Palopo	2	Febrero	2023-02-13T00:00:00	2024-11-08T03:00:00	4	Temperatura máxima	16.8
153679	7	Sololá	712	San Antonio Palopó	9	San Antonio Palopo	2	Febrero	2023-02-13T00:00:00	2024-11-08T03:00:00	3	Temperatura mínima	16.3
153680	7	Sololá	712	San Antonio Palopó	9	San Antonio Palopo	2	Febrero	2023-02-13T00:00:00	2024-11-08T03:00:00	5	Humedad	66
153681	7	Sololá	712	San Antonio Palopó	9	San Antonio Palopo	2	Febrero	2023-02-13T00:00:00	2024-11-08T03:00:00	6	Velocidad del viento	9.7
153682	7	Sololá	712	San Antonio Palopó	9	San Antonio Palopo	2	Febrero	2023-02-13T00:00:00	2024-11-08T03:00:00	7	Dirección del viento	9.66
153683	7	Sololá	712	San Antonio Palopó	9	San Antonio Palopo	2	Febrero	2023-02-13T00:00:00	2024-11-08T03:00:00	1	Precipitación	0
153684	7	Sololá	712	San Antonio Palopó	9	San Antonio Palopo	2	Febrero	2023-02-13T00:00:00	2024-11-08T03:00:00	8	Radiación solar	0
153685	7	Sololá	712	San Antonio Palopó	9	San Antonio Palopo	2	Febrero	2023-02-13T00:00:00	2024-11-08T04:00:00	2	Temperatura media	16.5
153686	7	Sololá	712	San Antonio Palopó	9	San Antonio Palopo	2	Febrero	2023-02-13T00:00:00	2024-11-08T04:00:00	4	Temperatura máxima	16.7
153687	7	Sololá	712	San Antonio Palopó	9	San Antonio Palopo	2	Febrero	2023-02-13T00:00:00	2024-11-08T04:00:00	3	Temperatura mínima	16.2
153688	7	Sololá	712	San Antonio Palopó	9	San Antonio Palopo	2	Febrero	2023-02-13T00:00:00	2024-11-08T04:00:00	5	Humedad	68
153689	7	Sololá	712	San Antonio Palopó	9	San Antonio Palopo	2	Febrero	2023-02-13T00:00:00	2024-11-08T04:00:00	6	Velocidad del viento	6.4
153690	7	Sololá	712	San Antonio Palopó	9	San Antonio Palopo	2	Febrero	2023-02-13T00:00:00	2024-11-08T04:00:00	7	Dirección del viento	6.44
153691	7	Sololá	712	San Antonio Palopó	9	San Antonio Palopo	2	Febrero	2023-02-13T00:00:00	2024-11-08T04:00:00	1	Precipitación	0
153692	7	Sololá	712	San Antonio Palopó	9	San Antonio Palopo	2	Febrero	2023-02-13T00:00:00	2024-11-08T04:00:00	8	Radiación solar	0
153693	7	Sololá	712	San Antonio Palopó	9	San Antonio Palopo	2	Febrero	2023-02-13T00:00:00	2024-11-08T05:00:00	2	Temperatura media	17
153694	7	Sololá	712	San Antonio Palopó	9	San Antonio Palopo	2	Febrero	2023-02-13T00:00:00	2024-11-08T05:00:00	4	Temperatura máxima	17.2
153695	7	Sololá	712	San Antonio Palopó	9	San Antonio Palopo	2	Febrero	2023-02-13T00:00:00	2024-11-08T05:00:00	3	Temperatura mínima	16.4
153696	7	Sololá	712	San Antonio Palopó	9	San Antonio Palopo	2	Febrero	2023-02-13T00:00:00	2024-11-08T05:00:00	5	Humedad	66
153697	7	Sololá	712	San Antonio Palopó	9	San Antonio Palopo	2	Febrero	2023-02-13T00:00:00	2024-11-08T05:00:00	6	Velocidad del viento	8
153698	7	Sololá	712	San Antonio Palopó	9	San Antonio Palopo	2	Febrero	2023-02-13T00:00:00	2024-11-08T05:00:00	7	Dirección del viento	8.05
153699	7	Sololá	712	San Antonio Palopó	9	San Antonio Palopo	2	Febrero	2023-02-13T00:00:00	2024-11-08T05:00:00	1	Precipitación	0
153700	7	Sololá	712	San Antonio Palopó	9	San Antonio Palopo	2	Febrero	2023-02-13T00:00:00	2024-11-08T05:00:00	8	Radiación solar	0
153701	7	Sololá	712	San Antonio Palopó	9	San Antonio Palopo	2	Febrero	2023-02-13T00:00:00	2024-11-08T06:00:00	2	Temperatura media	17.1
153702	7	Sololá	712	San Antonio Palopó	9	San Antonio Palopo	2	Febrero	2023-02-13T00:00:00	2024-11-08T06:00:00	4	Temperatura máxima	17.1
153703	7	Sololá	712	San Antonio Palopó	9	San Antonio Palopo	2	Febrero	2023-02-13T00:00:00	2024-11-08T06:00:00	3	Temperatura mínima	16.8
153704	7	Sololá	712	San Antonio Palopó	9	San Antonio Palopo	2	Febrero	2023-02-13T00:00:00	2024-11-08T06:00:00	5	Humedad	66
153705	7	Sololá	712	San Antonio Palopó	9	San Antonio Palopo	2	Febrero	2023-02-13T00:00:00	2024-11-08T06:00:00	6	Velocidad del viento	17.7
153706	7	Sololá	712	San Antonio Palopó	9	San Antonio Palopo	2	Febrero	2023-02-13T00:00:00	2024-11-08T06:00:00	7	Dirección del viento	17.7
153707	7	Sololá	712	San Antonio Palopó	9	San Antonio Palopo	2	Febrero	2023-02-13T00:00:00	2024-11-08T06:00:00	1	Precipitación	0
153708	7	Sololá	712	San Antonio Palopó	9	San Antonio Palopo	2	Febrero	2023-02-13T00:00:00	2024-11-08T06:00:00	8	Radiación solar	0
153709	7	Sololá	712	San Antonio Palopó	9	San Antonio Palopo	2	Febrero	2023-02-13T00:00:00	2024-11-08T07:00:00	2	Temperatura media	16.7
153710	7	Sololá	712	San Antonio Palopó	9	San Antonio Palopo	2	Febrero	2023-02-13T00:00:00	2024-11-08T07:00:00	4	Temperatura máxima	17.2
153711	7	Sololá	712	San Antonio Palopó	9	San Antonio Palopo	2	Febrero	2023-02-13T00:00:00	2024-11-08T07:00:00	3	Temperatura mínima	16.7
153712	7	Sololá	712	San Antonio Palopó	9	San Antonio Palopo	2	Febrero	2023-02-13T00:00:00	2024-11-08T07:00:00	5	Humedad	68
153713	7	Sololá	712	San Antonio Palopó	9	San Antonio Palopo	2	Febrero	2023-02-13T00:00:00	2024-11-08T07:00:00	6	Velocidad del viento	12.9
153714	7	Sololá	712	San Antonio Palopó	9	San Antonio Palopo	2	Febrero	2023-02-13T00:00:00	2024-11-08T07:00:00	7	Dirección del viento	12.87
153715	7	Sololá	712	San Antonio Palopó	9	San Antonio Palopo	2	Febrero	2023-02-13T00:00:00	2024-11-08T07:00:00	1	Precipitación	0
153716	7	Sololá	712	San Antonio Palopó	9	San Antonio Palopo	2	Febrero	2023-02-13T00:00:00	2024-11-08T07:00:00	8	Radiación solar	4
153717	7	Sololá	712	San Antonio Palopó	9	San Antonio Palopo	2	Febrero	2023-02-13T00:00:00	2024-11-08T08:00:00	2	Temperatura media	17.2
153718	7	Sololá	712	San Antonio Palopó	9	San Antonio Palopo	2	Febrero	2023-02-13T00:00:00	2024-11-08T08:00:00	4	Temperatura máxima	17.3
153719	7	Sololá	712	San Antonio Palopó	9	San Antonio Palopo	2	Febrero	2023-02-13T00:00:00	2024-11-08T08:00:00	3	Temperatura mínima	16.6
153720	7	Sololá	712	San Antonio Palopó	9	San Antonio Palopo	2	Febrero	2023-02-13T00:00:00	2024-11-08T08:00:00	5	Humedad	66
153721	7	Sololá	712	San Antonio Palopó	9	San Antonio Palopo	2	Febrero	2023-02-13T00:00:00	2024-11-08T08:00:00	6	Velocidad del viento	12.9
153722	7	Sololá	712	San Antonio Palopó	9	San Antonio Palopo	2	Febrero	2023-02-13T00:00:00	2024-11-08T08:00:00	7	Dirección del viento	12.87
153723	7	Sololá	712	San Antonio Palopó	9	San Antonio Palopo	2	Febrero	2023-02-13T00:00:00	2024-11-08T08:00:00	1	Precipitación	0
153724	7	Sololá	712	San Antonio Palopó	9	San Antonio Palopo	2	Febrero	2023-02-13T00:00:00	2024-11-08T08:00:00	8	Radiación solar	21
153725	7	Sololá	712	San Antonio Palopó	9	San Antonio Palopo	2	Febrero	2023-02-13T00:00:00	2024-11-08T09:00:00	2	Temperatura media	19.2
153726	7	Sololá	712	San Antonio Palopó	9	San Antonio Palopo	2	Febrero	2023-02-13T00:00:00	2024-11-08T09:00:00	4	Temperatura máxima	19.2
153727	7	Sololá	712	San Antonio Palopó	9	San Antonio Palopo	2	Febrero	2023-02-13T00:00:00	2024-11-08T09:00:00	3	Temperatura mínima	17.2
153728	7	Sololá	712	San Antonio Palopó	9	San Antonio Palopo	2	Febrero	2023-02-13T00:00:00	2024-11-08T09:00:00	5	Humedad	62
153729	7	Sololá	712	San Antonio Palopó	9	San Antonio Palopo	2	Febrero	2023-02-13T00:00:00	2024-11-08T09:00:00	6	Velocidad del viento	6.4
153730	7	Sololá	712	San Antonio Palopó	9	San Antonio Palopo	2	Febrero	2023-02-13T00:00:00	2024-11-08T09:00:00	7	Dirección del viento	6.44
153731	7	Sololá	712	San Antonio Palopó	9	San Antonio Palopo	2	Febrero	2023-02-13T00:00:00	2024-11-08T09:00:00	1	Precipitación	0
153732	7	Sololá	712	San Antonio Palopó	9	San Antonio Palopo	2	Febrero	2023-02-13T00:00:00	2024-11-08T09:00:00	8	Radiación solar	261
153733	7	Sololá	712	San Antonio Palopó	9	San Antonio Palopo	2	Febrero	2023-02-13T00:00:00	2024-11-08T10:00:00	2	Temperatura media	20.8
153734	7	Sololá	712	San Antonio Palopó	9	San Antonio Palopo	2	Febrero	2023-02-13T00:00:00	2024-11-08T10:00:00	4	Temperatura máxima	21.3
153735	7	Sololá	712	San Antonio Palopó	9	San Antonio Palopo	2	Febrero	2023-02-13T00:00:00	2024-11-08T10:00:00	3	Temperatura mínima	19.2
153736	7	Sololá	712	San Antonio Palopó	9	San Antonio Palopo	2	Febrero	2023-02-13T00:00:00	2024-11-08T10:00:00	5	Humedad	54
153737	7	Sololá	712	San Antonio Palopó	9	San Antonio Palopo	2	Febrero	2023-02-13T00:00:00	2024-11-08T10:00:00	6	Velocidad del viento	6.4
153738	7	Sololá	712	San Antonio Palopó	9	San Antonio Palopo	2	Febrero	2023-02-13T00:00:00	2024-11-08T10:00:00	7	Dirección del viento	6.44
153739	7	Sololá	712	San Antonio Palopó	9	San Antonio Palopo	2	Febrero	2023-02-13T00:00:00	2024-11-08T10:00:00	1	Precipitación	0
153740	7	Sololá	712	San Antonio Palopó	9	San Antonio Palopo	2	Febrero	2023-02-13T00:00:00	2024-11-08T10:00:00	8	Radiación solar	612
153741	7	Sololá	712	San Antonio Palopó	9	San Antonio Palopo	2	Febrero	2023-02-13T00:00:00	2024-11-08T11:00:00	2	Temperatura media	22.6
153742	7	Sololá	712	San Antonio Palopó	9	San Antonio Palopo	2	Febrero	2023-02-13T00:00:00	2024-11-08T11:00:00	4	Temperatura máxima	22.6
153743	7	Sololá	712	San Antonio Palopó	9	San Antonio Palopo	2	Febrero	2023-02-13T00:00:00	2024-11-08T11:00:00	3	Temperatura mínima	20.8
153744	7	Sololá	712	San Antonio Palopó	9	San Antonio Palopo	2	Febrero	2023-02-13T00:00:00	2024-11-08T11:00:00	5	Humedad	52
153745	7	Sololá	712	San Antonio Palopó	9	San Antonio Palopo	2	Febrero	2023-02-13T00:00:00	2024-11-08T11:00:00	6	Velocidad del viento	14.5
153746	7	Sololá	712	San Antonio Palopó	9	San Antonio Palopo	2	Febrero	2023-02-13T00:00:00	2024-11-08T11:00:00	7	Dirección del viento	14.48
153747	7	Sololá	712	San Antonio Palopó	9	San Antonio Palopo	2	Febrero	2023-02-13T00:00:00	2024-11-08T11:00:00	1	Precipitación	0
153748	7	Sololá	712	San Antonio Palopó	9	San Antonio Palopo	2	Febrero	2023-02-13T00:00:00	2024-11-08T11:00:00	8	Radiación solar	759
153749	7	Sololá	712	San Antonio Palopó	9	San Antonio Palopo	2	Febrero	2023-02-13T00:00:00	2024-11-08T12:00:00	2	Temperatura media	22.6
153750	7	Sololá	712	San Antonio Palopó	9	San Antonio Palopo	2	Febrero	2023-02-13T00:00:00	2024-11-08T12:00:00	4	Temperatura máxima	23.9
153751	7	Sololá	712	San Antonio Palopó	9	San Antonio Palopo	2	Febrero	2023-02-13T00:00:00	2024-11-08T12:00:00	3	Temperatura mínima	22.4
153752	7	Sololá	712	San Antonio Palopó	9	San Antonio Palopo	2	Febrero	2023-02-13T00:00:00	2024-11-08T12:00:00	5	Humedad	50
153753	7	Sololá	712	San Antonio Palopó	9	San Antonio Palopo	2	Febrero	2023-02-13T00:00:00	2024-11-08T12:00:00	6	Velocidad del viento	11.3
153754	7	Sololá	712	San Antonio Palopó	9	San Antonio Palopo	2	Febrero	2023-02-13T00:00:00	2024-11-08T12:00:00	7	Dirección del viento	11.27
153755	7	Sololá	712	San Antonio Palopó	9	San Antonio Palopo	2	Febrero	2023-02-13T00:00:00	2024-11-08T12:00:00	1	Precipitación	0
153756	7	Sololá	712	San Antonio Palopó	9	San Antonio Palopo	2	Febrero	2023-02-13T00:00:00	2024-11-08T12:00:00	8	Radiación solar	783
153757	7	Sololá	712	San Antonio Palopó	9	San Antonio Palopo	2	Febrero	2023-02-13T00:00:00	2024-11-08T13:00:00	2	Temperatura media	23.8
153758	7	Sololá	712	San Antonio Palopó	9	San Antonio Palopo	2	Febrero	2023-02-13T00:00:00	2024-11-08T13:00:00	4	Temperatura máxima	24.2
153759	7	Sololá	712	San Antonio Palopó	9	San Antonio Palopo	2	Febrero	2023-02-13T00:00:00	2024-11-08T13:00:00	3	Temperatura mínima	22.6
153760	7	Sololá	712	San Antonio Palopó	9	San Antonio Palopo	2	Febrero	2023-02-13T00:00:00	2024-11-08T13:00:00	5	Humedad	46
153761	7	Sololá	712	San Antonio Palopó	9	San Antonio Palopo	2	Febrero	2023-02-13T00:00:00	2024-11-08T13:00:00	6	Velocidad del viento	16.1
153762	7	Sololá	712	San Antonio Palopó	9	San Antonio Palopo	2	Febrero	2023-02-13T00:00:00	2024-11-08T13:00:00	7	Dirección del viento	16.09
153763	7	Sololá	712	San Antonio Palopó	9	San Antonio Palopo	2	Febrero	2023-02-13T00:00:00	2024-11-08T13:00:00	1	Precipitación	0
153764	7	Sololá	712	San Antonio Palopó	9	San Antonio Palopo	2	Febrero	2023-02-13T00:00:00	2024-11-08T13:00:00	8	Radiación solar	879
153765	7	Sololá	712	San Antonio Palopó	9	San Antonio Palopo	2	Febrero	2023-02-13T00:00:00	2024-11-08T14:00:00	2	Temperatura media	23.8
153766	7	Sololá	712	San Antonio Palopó	9	San Antonio Palopo	2	Febrero	2023-02-13T00:00:00	2024-11-08T14:00:00	4	Temperatura máxima	24.4
153767	7	Sololá	712	San Antonio Palopó	9	San Antonio Palopo	2	Febrero	2023-02-13T00:00:00	2024-11-08T14:00:00	3	Temperatura mínima	23.3
153768	7	Sololá	712	San Antonio Palopó	9	San Antonio Palopo	2	Febrero	2023-02-13T00:00:00	2024-11-08T14:00:00	5	Humedad	46
153769	7	Sololá	712	San Antonio Palopó	9	San Antonio Palopo	2	Febrero	2023-02-13T00:00:00	2024-11-08T14:00:00	6	Velocidad del viento	17.7
153770	7	Sololá	712	San Antonio Palopó	9	San Antonio Palopo	2	Febrero	2023-02-13T00:00:00	2024-11-08T14:00:00	7	Dirección del viento	17.7
153771	7	Sololá	712	San Antonio Palopó	9	San Antonio Palopo	2	Febrero	2023-02-13T00:00:00	2024-11-08T14:00:00	1	Precipitación	0
153772	7	Sololá	712	San Antonio Palopó	9	San Antonio Palopo	2	Febrero	2023-02-13T00:00:00	2024-11-08T14:00:00	8	Radiación solar	862
153773	7	Sololá	712	San Antonio Palopó	9	San Antonio Palopo	2	Febrero	2023-02-13T00:00:00	2024-11-08T15:00:00	2	Temperatura media	23.8
153774	7	Sololá	712	San Antonio Palopó	9	San Antonio Palopo	2	Febrero	2023-02-13T00:00:00	2024-11-08T15:00:00	4	Temperatura máxima	24.2
153775	7	Sololá	712	San Antonio Palopó	9	San Antonio Palopo	2	Febrero	2023-02-13T00:00:00	2024-11-08T15:00:00	3	Temperatura mínima	23.4
153776	7	Sololá	712	San Antonio Palopó	9	San Antonio Palopo	2	Febrero	2023-02-13T00:00:00	2024-11-08T15:00:00	5	Humedad	42
153777	7	Sololá	712	San Antonio Palopó	9	San Antonio Palopo	2	Febrero	2023-02-13T00:00:00	2024-11-08T15:00:00	6	Velocidad del viento	19.3
153778	7	Sololá	712	San Antonio Palopó	9	San Antonio Palopo	2	Febrero	2023-02-13T00:00:00	2024-11-08T15:00:00	7	Dirección del viento	19.31
153779	7	Sololá	712	San Antonio Palopó	9	San Antonio Palopo	2	Febrero	2023-02-13T00:00:00	2024-11-08T15:00:00	1	Precipitación	0
153780	7	Sololá	712	San Antonio Palopó	9	San Antonio Palopo	2	Febrero	2023-02-13T00:00:00	2024-11-08T15:00:00	8	Radiación solar	728
153781	7	Sololá	712	San Antonio Palopó	9	San Antonio Palopo	2	Febrero	2023-02-13T00:00:00	2024-11-08T16:00:00	2	Temperatura media	24.7
153782	7	Sololá	712	San Antonio Palopó	9	San Antonio Palopo	2	Febrero	2023-02-13T00:00:00	2024-11-08T16:00:00	4	Temperatura máxima	25.3
153783	7	Sololá	712	San Antonio Palopó	9	San Antonio Palopo	2	Febrero	2023-02-13T00:00:00	2024-11-08T16:00:00	3	Temperatura mínima	23.6
153784	7	Sololá	712	San Antonio Palopó	9	San Antonio Palopo	2	Febrero	2023-02-13T00:00:00	2024-11-08T16:00:00	5	Humedad	39
153785	7	Sololá	712	San Antonio Palopó	9	San Antonio Palopo	2	Febrero	2023-02-13T00:00:00	2024-11-08T16:00:00	6	Velocidad del viento	12.9
153786	7	Sololá	712	San Antonio Palopó	9	San Antonio Palopo	2	Febrero	2023-02-13T00:00:00	2024-11-08T16:00:00	7	Dirección del viento	12.87
153787	7	Sololá	712	San Antonio Palopó	9	San Antonio Palopo	2	Febrero	2023-02-13T00:00:00	2024-11-08T16:00:00	1	Precipitación	0
153788	7	Sololá	712	San Antonio Palopó	9	San Antonio Palopo	2	Febrero	2023-02-13T00:00:00	2024-11-08T16:00:00	8	Radiación solar	536
153789	7	Sololá	712	San Antonio Palopó	9	San Antonio Palopo	2	Febrero	2023-02-13T00:00:00	2024-11-08T17:00:00	2	Temperatura media	24.2
153790	7	Sololá	712	San Antonio Palopó	9	San Antonio Palopo	2	Febrero	2023-02-13T00:00:00	2024-11-08T17:00:00	4	Temperatura máxima	25.2
153791	7	Sololá	712	San Antonio Palopó	9	San Antonio Palopo	2	Febrero	2023-02-13T00:00:00	2024-11-08T17:00:00	3	Temperatura mínima	23.9
153792	7	Sololá	712	San Antonio Palopó	9	San Antonio Palopo	2	Febrero	2023-02-13T00:00:00	2024-11-08T17:00:00	5	Humedad	46
153793	7	Sololá	712	San Antonio Palopó	9	San Antonio Palopo	2	Febrero	2023-02-13T00:00:00	2024-11-08T17:00:00	6	Velocidad del viento	9.7
153794	7	Sololá	712	San Antonio Palopó	9	San Antonio Palopo	2	Febrero	2023-02-13T00:00:00	2024-11-08T17:00:00	7	Dirección del viento	9.66
153795	7	Sololá	712	San Antonio Palopó	9	San Antonio Palopo	2	Febrero	2023-02-13T00:00:00	2024-11-08T17:00:00	1	Precipitación	0
153796	7	Sololá	712	San Antonio Palopó	9	San Antonio Palopo	2	Febrero	2023-02-13T00:00:00	2024-11-08T17:00:00	8	Radiación solar	287
153797	7	Sololá	712	San Antonio Palopó	9	San Antonio Palopo	2	Febrero	2023-02-13T00:00:00	2024-11-08T18:00:00	2	Temperatura media	21.9
153798	7	Sololá	712	San Antonio Palopó	9	San Antonio Palopo	2	Febrero	2023-02-13T00:00:00	2024-11-08T18:00:00	4	Temperatura máxima	24.5
153799	7	Sololá	712	San Antonio Palopó	9	San Antonio Palopo	2	Febrero	2023-02-13T00:00:00	2024-11-08T18:00:00	3	Temperatura mínima	21.9
153800	7	Sololá	712	San Antonio Palopó	9	San Antonio Palopo	2	Febrero	2023-02-13T00:00:00	2024-11-08T18:00:00	5	Humedad	53
153801	7	Sololá	712	San Antonio Palopó	9	San Antonio Palopo	2	Febrero	2023-02-13T00:00:00	2024-11-08T18:00:00	6	Velocidad del viento	6.4
153802	7	Sololá	712	San Antonio Palopó	9	San Antonio Palopo	2	Febrero	2023-02-13T00:00:00	2024-11-08T18:00:00	7	Dirección del viento	6.44
153803	7	Sololá	712	San Antonio Palopó	9	San Antonio Palopo	2	Febrero	2023-02-13T00:00:00	2024-11-08T18:00:00	1	Precipitación	0
153804	7	Sololá	712	San Antonio Palopó	9	San Antonio Palopo	2	Febrero	2023-02-13T00:00:00	2024-11-08T18:00:00	8	Radiación solar	73
153805	7	Sololá	712	San Antonio Palopó	9	San Antonio Palopo	2	Febrero	2023-02-13T00:00:00	2024-11-08T19:00:00	2	Temperatura media	20.4
153806	7	Sololá	712	San Antonio Palopó	9	San Antonio Palopo	2	Febrero	2023-02-13T00:00:00	2024-11-08T19:00:00	4	Temperatura máxima	21.9
153807	7	Sololá	712	San Antonio Palopó	9	San Antonio Palopo	2	Febrero	2023-02-13T00:00:00	2024-11-08T19:00:00	3	Temperatura mínima	20.4
153808	7	Sololá	712	San Antonio Palopó	9	San Antonio Palopo	2	Febrero	2023-02-13T00:00:00	2024-11-08T19:00:00	5	Humedad	59
153809	7	Sololá	712	San Antonio Palopó	9	San Antonio Palopo	2	Febrero	2023-02-13T00:00:00	2024-11-08T19:00:00	6	Velocidad del viento	4.8
153810	7	Sololá	712	San Antonio Palopó	9	San Antonio Palopo	2	Febrero	2023-02-13T00:00:00	2024-11-08T19:00:00	7	Dirección del viento	4.83
153811	7	Sololá	712	San Antonio Palopó	9	San Antonio Palopo	2	Febrero	2023-02-13T00:00:00	2024-11-08T19:00:00	1	Precipitación	0
153812	7	Sololá	712	San Antonio Palopó	9	San Antonio Palopo	2	Febrero	2023-02-13T00:00:00	2024-11-08T19:00:00	8	Radiación solar	0
153813	7	Sololá	712	San Antonio Palopó	9	San Antonio Palopo	2	Febrero	2023-02-13T00:00:00	2024-11-08T20:00:00	2	Temperatura media	19.4
153814	7	Sololá	712	San Antonio Palopó	9	San Antonio Palopo	2	Febrero	2023-02-13T00:00:00	2024-11-08T20:00:00	4	Temperatura máxima	20.4
153815	7	Sololá	712	San Antonio Palopó	9	San Antonio Palopo	2	Febrero	2023-02-13T00:00:00	2024-11-08T20:00:00	3	Temperatura mínima	19.3
153816	7	Sololá	712	San Antonio Palopó	9	San Antonio Palopo	2	Febrero	2023-02-13T00:00:00	2024-11-08T20:00:00	5	Humedad	64
153817	7	Sololá	712	San Antonio Palopó	9	San Antonio Palopo	2	Febrero	2023-02-13T00:00:00	2024-11-08T20:00:00	6	Velocidad del viento	11.3
153818	7	Sololá	712	San Antonio Palopó	9	San Antonio Palopo	2	Febrero	2023-02-13T00:00:00	2024-11-08T20:00:00	7	Dirección del viento	11.27
153819	7	Sololá	712	San Antonio Palopó	9	San Antonio Palopo	2	Febrero	2023-02-13T00:00:00	2024-11-08T20:00:00	1	Precipitación	0
153820	7	Sololá	712	San Antonio Palopó	9	San Antonio Palopo	2	Febrero	2023-02-13T00:00:00	2024-11-08T20:00:00	8	Radiación solar	0
153821	7	Sololá	712	San Antonio Palopó	9	San Antonio Palopo	2	Febrero	2023-02-13T00:00:00	2024-11-08T21:00:00	2	Temperatura media	19.2
153822	7	Sololá	712	San Antonio Palopó	9	San Antonio Palopo	2	Febrero	2023-02-13T00:00:00	2024-11-08T21:00:00	4	Temperatura máxima	19.4
153823	7	Sololá	712	San Antonio Palopó	9	San Antonio Palopo	2	Febrero	2023-02-13T00:00:00	2024-11-08T21:00:00	3	Temperatura mínima	19.1
153824	7	Sololá	712	San Antonio Palopó	9	San Antonio Palopo	2	Febrero	2023-02-13T00:00:00	2024-11-08T21:00:00	5	Humedad	62
153825	7	Sololá	712	San Antonio Palopó	9	San Antonio Palopo	2	Febrero	2023-02-13T00:00:00	2024-11-08T21:00:00	6	Velocidad del viento	11.3
153826	7	Sololá	712	San Antonio Palopó	9	San Antonio Palopo	2	Febrero	2023-02-13T00:00:00	2024-11-08T21:00:00	7	Dirección del viento	11.27
153827	7	Sololá	712	San Antonio Palopó	9	San Antonio Palopo	2	Febrero	2023-02-13T00:00:00	2024-11-08T21:00:00	1	Precipitación	0
153828	7	Sololá	712	San Antonio Palopó	9	San Antonio Palopo	2	Febrero	2023-02-13T00:00:00	2024-11-08T21:00:00	8	Radiación solar	0
153829	7	Sololá	712	San Antonio Palopó	9	San Antonio Palopo	2	Febrero	2023-02-13T00:00:00	2024-11-08T22:00:00	2	Temperatura media	18.3
153830	7	Sololá	712	San Antonio Palopó	9	San Antonio Palopo	2	Febrero	2023-02-13T00:00:00	2024-11-08T22:00:00	4	Temperatura máxima	19.2
153831	7	Sololá	712	San Antonio Palopó	9	San Antonio Palopo	2	Febrero	2023-02-13T00:00:00	2024-11-08T22:00:00	3	Temperatura mínima	18.2
153832	7	Sololá	712	San Antonio Palopó	9	San Antonio Palopo	2	Febrero	2023-02-13T00:00:00	2024-11-08T22:00:00	5	Humedad	66
153833	7	Sololá	712	San Antonio Palopó	9	San Antonio Palopo	2	Febrero	2023-02-13T00:00:00	2024-11-08T22:00:00	6	Velocidad del viento	17.7
153834	7	Sololá	712	San Antonio Palopó	9	San Antonio Palopo	2	Febrero	2023-02-13T00:00:00	2024-11-08T22:00:00	7	Dirección del viento	17.7
153835	7	Sololá	712	San Antonio Palopó	9	San Antonio Palopo	2	Febrero	2023-02-13T00:00:00	2024-11-08T22:00:00	1	Precipitación	0
153836	7	Sololá	712	San Antonio Palopó	9	San Antonio Palopo	2	Febrero	2023-02-13T00:00:00	2024-11-08T22:00:00	8	Radiación solar	0
153837	7	Sololá	712	San Antonio Palopó	9	San Antonio Palopo	2	Febrero	2023-02-13T00:00:00	2024-11-08T23:00:00	2	Temperatura media	18.1
153838	7	Sololá	712	San Antonio Palopó	9	San Antonio Palopo	2	Febrero	2023-02-13T00:00:00	2024-11-08T23:00:00	4	Temperatura máxima	18.3
153839	7	Sololá	712	San Antonio Palopó	9	San Antonio Palopo	2	Febrero	2023-02-13T00:00:00	2024-11-08T23:00:00	3	Temperatura mínima	18.1
153840	7	Sololá	712	San Antonio Palopó	9	San Antonio Palopo	2	Febrero	2023-02-13T00:00:00	2024-11-08T23:00:00	5	Humedad	66
153841	7	Sololá	712	San Antonio Palopó	9	San Antonio Palopo	2	Febrero	2023-02-13T00:00:00	2024-11-08T23:00:00	6	Velocidad del viento	19.3
153842	7	Sololá	712	San Antonio Palopó	9	San Antonio Palopo	2	Febrero	2023-02-13T00:00:00	2024-11-08T23:00:00	7	Dirección del viento	19.31
153843	7	Sololá	712	San Antonio Palopó	9	San Antonio Palopo	2	Febrero	2023-02-13T00:00:00	2024-11-08T23:00:00	1	Precipitación	0
153844	7	Sololá	712	San Antonio Palopó	9	San Antonio Palopo	2	Febrero	2023-02-13T00:00:00	2024-11-08T23:00:00	8	Radiación solar	0
153845	7	Sololá	712	San Antonio Palopó	9	San Antonio Palopo	2	Febrero	2023-02-14T00:00:00	2024-11-08T00:00:00	2	Temperatura media	17.7
153846	7	Sololá	712	San Antonio Palopó	9	San Antonio Palopo	2	Febrero	2023-02-14T00:00:00	2024-11-08T00:00:00	4	Temperatura máxima	18.1
153847	7	Sololá	712	San Antonio Palopó	9	San Antonio Palopo	2	Febrero	2023-02-14T00:00:00	2024-11-08T00:00:00	3	Temperatura mínima	17.7
153848	7	Sololá	712	San Antonio Palopó	9	San Antonio Palopo	2	Febrero	2023-02-14T00:00:00	2024-11-08T00:00:00	5	Humedad	67
153849	7	Sololá	712	San Antonio Palopó	9	San Antonio Palopo	2	Febrero	2023-02-14T00:00:00	2024-11-08T00:00:00	6	Velocidad del viento	16.1
153850	7	Sololá	712	San Antonio Palopó	9	San Antonio Palopo	2	Febrero	2023-02-14T00:00:00	2024-11-08T00:00:00	7	Dirección del viento	16.09
153851	7	Sololá	712	San Antonio Palopó	9	San Antonio Palopo	2	Febrero	2023-02-14T00:00:00	2024-11-08T00:00:00	1	Precipitación	0
153852	7	Sololá	712	San Antonio Palopó	9	San Antonio Palopo	2	Febrero	2023-02-14T00:00:00	2024-11-08T00:00:00	8	Radiación solar	0
153853	7	Sololá	712	San Antonio Palopó	9	San Antonio Palopo	2	Febrero	2023-02-14T00:00:00	2024-11-08T01:00:00	2	Temperatura media	16.8
153854	7	Sololá	712	San Antonio Palopó	9	San Antonio Palopo	2	Febrero	2023-02-14T00:00:00	2024-11-08T01:00:00	4	Temperatura máxima	17.7
153855	7	Sololá	712	San Antonio Palopó	9	San Antonio Palopo	2	Febrero	2023-02-14T00:00:00	2024-11-08T01:00:00	3	Temperatura mínima	16.8
153856	7	Sololá	712	San Antonio Palopó	9	San Antonio Palopo	2	Febrero	2023-02-14T00:00:00	2024-11-08T01:00:00	5	Humedad	69
153857	7	Sololá	712	San Antonio Palopó	9	San Antonio Palopo	2	Febrero	2023-02-14T00:00:00	2024-11-08T01:00:00	6	Velocidad del viento	12.9
153858	7	Sololá	712	San Antonio Palopó	9	San Antonio Palopo	2	Febrero	2023-02-14T00:00:00	2024-11-08T01:00:00	7	Dirección del viento	12.87
153859	7	Sololá	712	San Antonio Palopó	9	San Antonio Palopo	2	Febrero	2023-02-14T00:00:00	2024-11-08T01:00:00	1	Precipitación	0
153860	7	Sololá	712	San Antonio Palopó	9	San Antonio Palopo	2	Febrero	2023-02-14T00:00:00	2024-11-08T01:00:00	8	Radiación solar	0
153861	7	Sololá	712	San Antonio Palopó	9	San Antonio Palopo	2	Febrero	2023-02-14T00:00:00	2024-11-08T02:00:00	2	Temperatura media	16.4
153862	7	Sololá	712	San Antonio Palopó	9	San Antonio Palopo	2	Febrero	2023-02-14T00:00:00	2024-11-08T02:00:00	4	Temperatura máxima	16.8
153863	7	Sololá	712	San Antonio Palopó	9	San Antonio Palopo	2	Febrero	2023-02-14T00:00:00	2024-11-08T02:00:00	3	Temperatura mínima	16.4
153864	7	Sololá	712	San Antonio Palopó	9	San Antonio Palopo	2	Febrero	2023-02-14T00:00:00	2024-11-08T02:00:00	5	Humedad	70
153865	7	Sololá	712	San Antonio Palopó	9	San Antonio Palopo	2	Febrero	2023-02-14T00:00:00	2024-11-08T02:00:00	6	Velocidad del viento	11.3
153866	7	Sololá	712	San Antonio Palopó	9	San Antonio Palopo	2	Febrero	2023-02-14T00:00:00	2024-11-08T02:00:00	7	Dirección del viento	11.27
153867	7	Sololá	712	San Antonio Palopó	9	San Antonio Palopo	2	Febrero	2023-02-14T00:00:00	2024-11-08T02:00:00	1	Precipitación	0
153868	7	Sololá	712	San Antonio Palopó	9	San Antonio Palopo	2	Febrero	2023-02-14T00:00:00	2024-11-08T02:00:00	8	Radiación solar	0
153869	7	Sololá	712	San Antonio Palopó	9	San Antonio Palopo	2	Febrero	2023-02-14T00:00:00	2024-11-08T03:00:00	2	Temperatura media	16.8
153870	7	Sololá	712	San Antonio Palopó	9	San Antonio Palopo	2	Febrero	2023-02-14T00:00:00	2024-11-08T03:00:00	4	Temperatura máxima	16.8
153871	7	Sololá	712	San Antonio Palopó	9	San Antonio Palopo	2	Febrero	2023-02-14T00:00:00	2024-11-08T03:00:00	3	Temperatura mínima	16.2
153872	7	Sololá	712	San Antonio Palopó	9	San Antonio Palopo	2	Febrero	2023-02-14T00:00:00	2024-11-08T03:00:00	5	Humedad	69
153873	7	Sololá	712	San Antonio Palopó	9	San Antonio Palopo	2	Febrero	2023-02-14T00:00:00	2024-11-08T03:00:00	6	Velocidad del viento	6.4
153874	7	Sololá	712	San Antonio Palopó	9	San Antonio Palopo	2	Febrero	2023-02-14T00:00:00	2024-11-08T03:00:00	7	Dirección del viento	6.44
153875	7	Sololá	712	San Antonio Palopó	9	San Antonio Palopo	2	Febrero	2023-02-14T00:00:00	2024-11-08T03:00:00	1	Precipitación	0
153876	7	Sololá	712	San Antonio Palopó	9	San Antonio Palopo	2	Febrero	2023-02-14T00:00:00	2024-11-08T03:00:00	8	Radiación solar	0
153877	7	Sololá	712	San Antonio Palopó	9	San Antonio Palopo	2	Febrero	2023-02-14T00:00:00	2024-11-08T04:00:00	2	Temperatura media	15.9
153878	7	Sololá	712	San Antonio Palopó	9	San Antonio Palopo	2	Febrero	2023-02-14T00:00:00	2024-11-08T04:00:00	4	Temperatura máxima	16.8
153879	7	Sololá	712	San Antonio Palopó	9	San Antonio Palopo	2	Febrero	2023-02-14T00:00:00	2024-11-08T04:00:00	3	Temperatura mínima	15.8
153880	7	Sololá	712	San Antonio Palopó	9	San Antonio Palopo	2	Febrero	2023-02-14T00:00:00	2024-11-08T04:00:00	5	Humedad	70
153881	7	Sololá	712	San Antonio Palopó	9	San Antonio Palopo	2	Febrero	2023-02-14T00:00:00	2024-11-08T04:00:00	6	Velocidad del viento	3.2
153882	7	Sololá	712	San Antonio Palopó	9	San Antonio Palopo	2	Febrero	2023-02-14T00:00:00	2024-11-08T04:00:00	7	Dirección del viento	3.22
153883	7	Sololá	712	San Antonio Palopó	9	San Antonio Palopo	2	Febrero	2023-02-14T00:00:00	2024-11-08T04:00:00	1	Precipitación	0
153884	7	Sololá	712	San Antonio Palopó	9	San Antonio Palopo	2	Febrero	2023-02-14T00:00:00	2024-11-08T04:00:00	8	Radiación solar	0
153885	7	Sololá	712	San Antonio Palopó	9	San Antonio Palopo	2	Febrero	2023-02-14T00:00:00	2024-11-08T05:00:00	2	Temperatura media	15.5
153886	7	Sololá	712	San Antonio Palopó	9	San Antonio Palopo	2	Febrero	2023-02-14T00:00:00	2024-11-08T05:00:00	4	Temperatura máxima	16
153887	7	Sololá	712	San Antonio Palopó	9	San Antonio Palopo	2	Febrero	2023-02-14T00:00:00	2024-11-08T05:00:00	3	Temperatura mínima	15.4
153888	7	Sololá	712	San Antonio Palopó	9	San Antonio Palopo	2	Febrero	2023-02-14T00:00:00	2024-11-08T05:00:00	5	Humedad	67
153889	7	Sololá	712	San Antonio Palopó	9	San Antonio Palopo	2	Febrero	2023-02-14T00:00:00	2024-11-08T05:00:00	6	Velocidad del viento	1.6
153890	7	Sololá	712	San Antonio Palopó	9	San Antonio Palopo	2	Febrero	2023-02-14T00:00:00	2024-11-08T05:00:00	7	Dirección del viento	1.61
153891	7	Sololá	712	San Antonio Palopó	9	San Antonio Palopo	2	Febrero	2023-02-14T00:00:00	2024-11-08T05:00:00	1	Precipitación	0
153892	7	Sololá	712	San Antonio Palopó	9	San Antonio Palopo	2	Febrero	2023-02-14T00:00:00	2024-11-08T05:00:00	8	Radiación solar	0
153893	7	Sololá	712	San Antonio Palopó	9	San Antonio Palopo	2	Febrero	2023-02-14T00:00:00	2024-11-08T06:00:00	2	Temperatura media	15.2
153894	7	Sololá	712	San Antonio Palopó	9	San Antonio Palopo	2	Febrero	2023-02-14T00:00:00	2024-11-08T06:00:00	4	Temperatura máxima	15.6
153895	7	Sololá	712	San Antonio Palopó	9	San Antonio Palopo	2	Febrero	2023-02-14T00:00:00	2024-11-08T06:00:00	3	Temperatura mínima	15.2
153896	7	Sololá	712	San Antonio Palopó	9	San Antonio Palopo	2	Febrero	2023-02-14T00:00:00	2024-11-08T06:00:00	5	Humedad	66
153897	7	Sololá	712	San Antonio Palopó	9	San Antonio Palopo	2	Febrero	2023-02-14T00:00:00	2024-11-08T06:00:00	6	Velocidad del viento	1.6
153898	7	Sololá	712	San Antonio Palopó	9	San Antonio Palopo	2	Febrero	2023-02-14T00:00:00	2024-11-08T06:00:00	7	Dirección del viento	1.61
153899	7	Sololá	712	San Antonio Palopó	9	San Antonio Palopo	2	Febrero	2023-02-14T00:00:00	2024-11-08T06:00:00	1	Precipitación	0
153900	7	Sololá	712	San Antonio Palopó	9	San Antonio Palopo	2	Febrero	2023-02-14T00:00:00	2024-11-08T06:00:00	8	Radiación solar	0
153901	7	Sololá	712	San Antonio Palopó	9	San Antonio Palopo	2	Febrero	2023-02-14T00:00:00	2024-11-08T07:00:00	2	Temperatura media	14.9
153902	7	Sololá	712	San Antonio Palopó	9	San Antonio Palopo	2	Febrero	2023-02-14T00:00:00	2024-11-08T07:00:00	4	Temperatura máxima	15.2
153903	7	Sololá	712	San Antonio Palopó	9	San Antonio Palopo	2	Febrero	2023-02-14T00:00:00	2024-11-08T07:00:00	3	Temperatura mínima	14.9
153904	7	Sololá	712	San Antonio Palopó	9	San Antonio Palopo	2	Febrero	2023-02-14T00:00:00	2024-11-08T07:00:00	5	Humedad	69
153905	7	Sololá	712	San Antonio Palopó	9	San Antonio Palopo	2	Febrero	2023-02-14T00:00:00	2024-11-08T07:00:00	6	Velocidad del viento	1.6
153906	7	Sololá	712	San Antonio Palopó	9	San Antonio Palopo	2	Febrero	2023-02-14T00:00:00	2024-11-08T07:00:00	7	Dirección del viento	1.61
153907	7	Sololá	712	San Antonio Palopó	9	San Antonio Palopo	2	Febrero	2023-02-14T00:00:00	2024-11-08T07:00:00	1	Precipitación	0
153908	7	Sololá	712	San Antonio Palopó	9	San Antonio Palopo	2	Febrero	2023-02-14T00:00:00	2024-11-08T07:00:00	8	Radiación solar	4
153909	7	Sololá	712	San Antonio Palopó	9	San Antonio Palopo	2	Febrero	2023-02-14T00:00:00	2024-11-08T08:00:00	2	Temperatura media	14.9
153910	7	Sololá	712	San Antonio Palopó	9	San Antonio Palopo	2	Febrero	2023-02-14T00:00:00	2024-11-08T08:00:00	4	Temperatura máxima	15.2
153911	7	Sololá	712	San Antonio Palopó	9	San Antonio Palopo	2	Febrero	2023-02-14T00:00:00	2024-11-08T08:00:00	3	Temperatura mínima	14.9
153912	7	Sololá	712	San Antonio Palopó	9	San Antonio Palopo	2	Febrero	2023-02-14T00:00:00	2024-11-08T08:00:00	5	Humedad	73
153913	7	Sololá	712	San Antonio Palopó	9	San Antonio Palopo	2	Febrero	2023-02-14T00:00:00	2024-11-08T08:00:00	6	Velocidad del viento	3.2
153914	7	Sololá	712	San Antonio Palopó	9	San Antonio Palopo	2	Febrero	2023-02-14T00:00:00	2024-11-08T08:00:00	7	Dirección del viento	3.22
153915	7	Sololá	712	San Antonio Palopó	9	San Antonio Palopo	2	Febrero	2023-02-14T00:00:00	2024-11-08T08:00:00	1	Precipitación	0
153916	7	Sololá	712	San Antonio Palopó	9	San Antonio Palopo	2	Febrero	2023-02-14T00:00:00	2024-11-08T08:00:00	8	Radiación solar	18
153917	7	Sololá	712	San Antonio Palopó	9	San Antonio Palopo	2	Febrero	2023-02-14T00:00:00	2024-11-08T09:00:00	2	Temperatura media	18.4
153918	7	Sololá	712	San Antonio Palopó	9	San Antonio Palopo	2	Febrero	2023-02-14T00:00:00	2024-11-08T09:00:00	4	Temperatura máxima	18.4
153919	7	Sololá	712	San Antonio Palopó	9	San Antonio Palopo	2	Febrero	2023-02-14T00:00:00	2024-11-08T09:00:00	3	Temperatura mínima	14.9
153920	7	Sololá	712	San Antonio Palopó	9	San Antonio Palopo	2	Febrero	2023-02-14T00:00:00	2024-11-08T09:00:00	5	Humedad	63
153921	7	Sololá	712	San Antonio Palopó	9	San Antonio Palopo	2	Febrero	2023-02-14T00:00:00	2024-11-08T09:00:00	6	Velocidad del viento	3.2
153922	7	Sololá	712	San Antonio Palopó	9	San Antonio Palopo	2	Febrero	2023-02-14T00:00:00	2024-11-08T09:00:00	7	Dirección del viento	3.22
153923	7	Sololá	712	San Antonio Palopó	9	San Antonio Palopo	2	Febrero	2023-02-14T00:00:00	2024-11-08T09:00:00	1	Precipitación	0
153924	7	Sololá	712	San Antonio Palopó	9	San Antonio Palopo	2	Febrero	2023-02-14T00:00:00	2024-11-08T09:00:00	8	Radiación solar	262
153925	7	Sololá	712	San Antonio Palopó	9	San Antonio Palopo	2	Febrero	2023-02-14T00:00:00	2024-11-08T10:00:00	2	Temperatura media	19.2
153926	7	Sololá	712	San Antonio Palopó	9	San Antonio Palopo	2	Febrero	2023-02-14T00:00:00	2024-11-08T10:00:00	4	Temperatura máxima	19.4
153927	7	Sololá	712	San Antonio Palopó	9	San Antonio Palopo	2	Febrero	2023-02-14T00:00:00	2024-11-08T10:00:00	3	Temperatura mínima	18.4
153928	7	Sololá	712	San Antonio Palopó	9	San Antonio Palopo	2	Febrero	2023-02-14T00:00:00	2024-11-08T10:00:00	5	Humedad	67
153929	7	Sololá	712	San Antonio Palopó	9	San Antonio Palopo	2	Febrero	2023-02-14T00:00:00	2024-11-08T10:00:00	6	Velocidad del viento	3.2
153930	7	Sololá	712	San Antonio Palopó	9	San Antonio Palopo	2	Febrero	2023-02-14T00:00:00	2024-11-08T10:00:00	7	Dirección del viento	3.22
153931	7	Sololá	712	San Antonio Palopó	9	San Antonio Palopo	2	Febrero	2023-02-14T00:00:00	2024-11-08T10:00:00	1	Precipitación	0
153932	7	Sololá	712	San Antonio Palopó	9	San Antonio Palopo	2	Febrero	2023-02-14T00:00:00	2024-11-08T10:00:00	8	Radiación solar	599
153933	7	Sololá	712	San Antonio Palopó	9	San Antonio Palopo	2	Febrero	2023-02-14T00:00:00	2024-11-08T11:00:00	2	Temperatura media	20.3
153934	7	Sololá	712	San Antonio Palopó	9	San Antonio Palopo	2	Febrero	2023-02-14T00:00:00	2024-11-08T11:00:00	4	Temperatura máxima	20.3
153935	7	Sololá	712	San Antonio Palopó	9	San Antonio Palopo	2	Febrero	2023-02-14T00:00:00	2024-11-08T11:00:00	3	Temperatura mínima	19.2
153936	7	Sololá	712	San Antonio Palopó	9	San Antonio Palopo	2	Febrero	2023-02-14T00:00:00	2024-11-08T11:00:00	5	Humedad	64
153937	7	Sololá	712	San Antonio Palopó	9	San Antonio Palopo	2	Febrero	2023-02-14T00:00:00	2024-11-08T11:00:00	6	Velocidad del viento	3.2
153938	7	Sololá	712	San Antonio Palopó	9	San Antonio Palopo	2	Febrero	2023-02-14T00:00:00	2024-11-08T11:00:00	7	Dirección del viento	3.22
153939	7	Sololá	712	San Antonio Palopó	9	San Antonio Palopo	2	Febrero	2023-02-14T00:00:00	2024-11-08T11:00:00	1	Precipitación	0
153940	7	Sololá	712	San Antonio Palopó	9	San Antonio Palopo	2	Febrero	2023-02-14T00:00:00	2024-11-08T11:00:00	8	Radiación solar	754
153941	7	Sololá	712	San Antonio Palopó	9	San Antonio Palopo	2	Febrero	2023-02-14T00:00:00	2024-11-08T12:00:00	2	Temperatura media	22.1
153942	7	Sololá	712	San Antonio Palopó	9	San Antonio Palopo	2	Febrero	2023-02-14T00:00:00	2024-11-08T12:00:00	4	Temperatura máxima	22.1
153943	7	Sololá	712	San Antonio Palopó	9	San Antonio Palopo	2	Febrero	2023-02-14T00:00:00	2024-11-08T12:00:00	3	Temperatura mínima	20.3
153944	7	Sololá	712	San Antonio Palopó	9	San Antonio Palopo	2	Febrero	2023-02-14T00:00:00	2024-11-08T12:00:00	5	Humedad	61
153945	7	Sololá	712	San Antonio Palopó	9	San Antonio Palopo	2	Febrero	2023-02-14T00:00:00	2024-11-08T12:00:00	6	Velocidad del viento	3.2
153946	7	Sololá	712	San Antonio Palopó	9	San Antonio Palopo	2	Febrero	2023-02-14T00:00:00	2024-11-08T12:00:00	7	Dirección del viento	3.22
153947	7	Sololá	712	San Antonio Palopó	9	San Antonio Palopo	2	Febrero	2023-02-14T00:00:00	2024-11-08T12:00:00	1	Precipitación	0
153948	7	Sololá	712	San Antonio Palopó	9	San Antonio Palopo	2	Febrero	2023-02-14T00:00:00	2024-11-08T12:00:00	8	Radiación solar	774
153949	7	Sololá	712	San Antonio Palopó	9	San Antonio Palopo	2	Febrero	2023-02-14T00:00:00	2024-11-08T13:00:00	2	Temperatura media	22.9
153950	7	Sololá	712	San Antonio Palopó	9	San Antonio Palopo	2	Febrero	2023-02-14T00:00:00	2024-11-08T13:00:00	4	Temperatura máxima	23.8
153951	7	Sololá	712	San Antonio Palopó	9	San Antonio Palopo	2	Febrero	2023-02-14T00:00:00	2024-11-08T13:00:00	3	Temperatura mínima	21.8
153952	7	Sololá	712	San Antonio Palopó	9	San Antonio Palopo	2	Febrero	2023-02-14T00:00:00	2024-11-08T13:00:00	5	Humedad	61
153953	7	Sololá	712	San Antonio Palopó	9	San Antonio Palopo	2	Febrero	2023-02-14T00:00:00	2024-11-08T13:00:00	6	Velocidad del viento	4.8
153954	7	Sololá	712	San Antonio Palopó	9	San Antonio Palopo	2	Febrero	2023-02-14T00:00:00	2024-11-08T13:00:00	7	Dirección del viento	4.83
153955	7	Sololá	712	San Antonio Palopó	9	San Antonio Palopo	2	Febrero	2023-02-14T00:00:00	2024-11-08T13:00:00	1	Precipitación	0
153956	7	Sololá	712	San Antonio Palopó	9	San Antonio Palopo	2	Febrero	2023-02-14T00:00:00	2024-11-08T13:00:00	8	Radiación solar	853
153957	7	Sololá	712	San Antonio Palopó	9	San Antonio Palopo	2	Febrero	2023-02-14T00:00:00	2024-11-08T14:00:00	2	Temperatura media	24.2
153958	7	Sololá	712	San Antonio Palopó	9	San Antonio Palopo	2	Febrero	2023-02-14T00:00:00	2024-11-08T14:00:00	4	Temperatura máxima	24.6
153959	7	Sololá	712	San Antonio Palopó	9	San Antonio Palopo	2	Febrero	2023-02-14T00:00:00	2024-11-08T14:00:00	3	Temperatura mínima	22.5
153960	7	Sololá	712	San Antonio Palopó	9	San Antonio Palopo	2	Febrero	2023-02-14T00:00:00	2024-11-08T14:00:00	5	Humedad	59
153961	7	Sololá	712	San Antonio Palopó	9	San Antonio Palopo	2	Febrero	2023-02-14T00:00:00	2024-11-08T14:00:00	6	Velocidad del viento	6.4
153962	7	Sololá	712	San Antonio Palopó	9	San Antonio Palopo	2	Febrero	2023-02-14T00:00:00	2024-11-08T14:00:00	7	Dirección del viento	6.44
153963	7	Sololá	712	San Antonio Palopó	9	San Antonio Palopo	2	Febrero	2023-02-14T00:00:00	2024-11-08T14:00:00	1	Precipitación	0
153964	7	Sololá	712	San Antonio Palopó	9	San Antonio Palopo	2	Febrero	2023-02-14T00:00:00	2024-11-08T14:00:00	8	Radiación solar	847
153965	7	Sololá	712	San Antonio Palopó	9	San Antonio Palopo	2	Febrero	2023-02-14T00:00:00	2024-11-08T15:00:00	2	Temperatura media	22.9
153966	7	Sololá	712	San Antonio Palopó	9	San Antonio Palopo	2	Febrero	2023-02-14T00:00:00	2024-11-08T15:00:00	4	Temperatura máxima	24.2
153967	7	Sololá	712	San Antonio Palopó	9	San Antonio Palopo	2	Febrero	2023-02-14T00:00:00	2024-11-08T15:00:00	3	Temperatura mínima	22.8
153968	7	Sololá	712	San Antonio Palopó	9	San Antonio Palopo	2	Febrero	2023-02-14T00:00:00	2024-11-08T15:00:00	5	Humedad	64
153969	7	Sololá	712	San Antonio Palopó	9	San Antonio Palopo	2	Febrero	2023-02-14T00:00:00	2024-11-08T15:00:00	6	Velocidad del viento	9.7
153970	7	Sololá	712	San Antonio Palopó	9	San Antonio Palopo	2	Febrero	2023-02-14T00:00:00	2024-11-08T15:00:00	7	Dirección del viento	9.66
153971	7	Sololá	712	San Antonio Palopó	9	San Antonio Palopo	2	Febrero	2023-02-14T00:00:00	2024-11-08T15:00:00	1	Precipitación	0
153972	7	Sololá	712	San Antonio Palopó	9	San Antonio Palopo	2	Febrero	2023-02-14T00:00:00	2024-11-08T15:00:00	8	Radiación solar	735
153973	7	Sololá	712	San Antonio Palopó	9	San Antonio Palopo	2	Febrero	2023-02-14T00:00:00	2024-11-08T16:00:00	2	Temperatura media	22.6
153974	7	Sololá	712	San Antonio Palopó	9	San Antonio Palopo	2	Febrero	2023-02-14T00:00:00	2024-11-08T16:00:00	4	Temperatura máxima	23.1
153975	7	Sololá	712	San Antonio Palopó	9	San Antonio Palopo	2	Febrero	2023-02-14T00:00:00	2024-11-08T16:00:00	3	Temperatura mínima	22.6
153976	7	Sololá	712	San Antonio Palopó	9	San Antonio Palopo	2	Febrero	2023-02-14T00:00:00	2024-11-08T16:00:00	5	Humedad	67
153977	7	Sololá	712	San Antonio Palopó	9	San Antonio Palopo	2	Febrero	2023-02-14T00:00:00	2024-11-08T16:00:00	6	Velocidad del viento	11.3
153978	7	Sololá	712	San Antonio Palopó	9	San Antonio Palopo	2	Febrero	2023-02-14T00:00:00	2024-11-08T16:00:00	7	Dirección del viento	11.27
153979	7	Sololá	712	San Antonio Palopó	9	San Antonio Palopo	2	Febrero	2023-02-14T00:00:00	2024-11-08T16:00:00	1	Precipitación	0
153980	7	Sololá	712	San Antonio Palopó	9	San Antonio Palopo	2	Febrero	2023-02-14T00:00:00	2024-11-08T16:00:00	8	Radiación solar	540
153981	7	Sololá	712	San Antonio Palopó	9	San Antonio Palopo	2	Febrero	2023-02-14T00:00:00	2024-11-08T17:00:00	2	Temperatura media	21.6
153982	7	Sololá	712	San Antonio Palopó	9	San Antonio Palopo	2	Febrero	2023-02-14T00:00:00	2024-11-08T17:00:00	4	Temperatura máxima	22.9
153983	7	Sololá	712	San Antonio Palopó	9	San Antonio Palopo	2	Febrero	2023-02-14T00:00:00	2024-11-08T17:00:00	3	Temperatura mínima	21.6
153984	7	Sololá	712	San Antonio Palopó	9	San Antonio Palopo	2	Febrero	2023-02-14T00:00:00	2024-11-08T17:00:00	5	Humedad	69
153985	7	Sololá	712	San Antonio Palopó	9	San Antonio Palopo	2	Febrero	2023-02-14T00:00:00	2024-11-08T17:00:00	6	Velocidad del viento	9.7
153986	7	Sololá	712	San Antonio Palopó	9	San Antonio Palopo	2	Febrero	2023-02-14T00:00:00	2024-11-08T17:00:00	7	Dirección del viento	9.66
153987	7	Sololá	712	San Antonio Palopó	9	San Antonio Palopo	2	Febrero	2023-02-14T00:00:00	2024-11-08T17:00:00	1	Precipitación	0
153988	7	Sololá	712	San Antonio Palopó	9	San Antonio Palopo	2	Febrero	2023-02-14T00:00:00	2024-11-08T17:00:00	8	Radiación solar	301
153989	7	Sololá	712	San Antonio Palopó	9	San Antonio Palopo	2	Febrero	2023-02-14T00:00:00	2024-11-08T18:00:00	2	Temperatura media	20.4
153990	7	Sololá	712	San Antonio Palopó	9	San Antonio Palopo	2	Febrero	2023-02-14T00:00:00	2024-11-08T18:00:00	4	Temperatura máxima	21.9
153991	7	Sololá	712	San Antonio Palopó	9	San Antonio Palopo	2	Febrero	2023-02-14T00:00:00	2024-11-08T18:00:00	3	Temperatura mínima	20.4
153992	7	Sololá	712	San Antonio Palopó	9	San Antonio Palopo	2	Febrero	2023-02-14T00:00:00	2024-11-08T18:00:00	5	Humedad	76
153993	7	Sololá	712	San Antonio Palopó	9	San Antonio Palopo	2	Febrero	2023-02-14T00:00:00	2024-11-08T18:00:00	6	Velocidad del viento	6.4
153994	7	Sololá	712	San Antonio Palopó	9	San Antonio Palopo	2	Febrero	2023-02-14T00:00:00	2024-11-08T18:00:00	7	Dirección del viento	6.44
153995	7	Sololá	712	San Antonio Palopó	9	San Antonio Palopo	2	Febrero	2023-02-14T00:00:00	2024-11-08T18:00:00	1	Precipitación	0
153996	7	Sololá	712	San Antonio Palopó	9	San Antonio Palopo	2	Febrero	2023-02-14T00:00:00	2024-11-08T18:00:00	8	Radiación solar	77
153997	7	Sololá	712	San Antonio Palopó	9	San Antonio Palopo	2	Febrero	2023-02-14T00:00:00	2024-11-08T19:00:00	2	Temperatura media	19.6
153998	7	Sololá	712	San Antonio Palopó	9	San Antonio Palopo	2	Febrero	2023-02-14T00:00:00	2024-11-08T19:00:00	4	Temperatura máxima	20.5
153999	7	Sololá	712	San Antonio Palopó	9	San Antonio Palopo	2	Febrero	2023-02-14T00:00:00	2024-11-08T19:00:00	3	Temperatura mínima	19.6
154000	7	Sololá	712	San Antonio Palopó	9	San Antonio Palopo	2	Febrero	2023-02-14T00:00:00	2024-11-08T19:00:00	5	Humedad	77
154001	7	Sololá	712	San Antonio Palopó	9	San Antonio Palopo	2	Febrero	2023-02-14T00:00:00	2024-11-08T19:00:00	6	Velocidad del viento	3.2
154002	7	Sololá	712	San Antonio Palopó	9	San Antonio Palopo	2	Febrero	2023-02-14T00:00:00	2024-11-08T19:00:00	7	Dirección del viento	3.22
154003	7	Sololá	712	San Antonio Palopó	9	San Antonio Palopo	2	Febrero	2023-02-14T00:00:00	2024-11-08T19:00:00	1	Precipitación	0
154004	7	Sololá	712	San Antonio Palopó	9	San Antonio Palopo	2	Febrero	2023-02-14T00:00:00	2024-11-08T19:00:00	8	Radiación solar	0
154005	7	Sololá	712	San Antonio Palopó	9	San Antonio Palopo	2	Febrero	2023-02-14T00:00:00	2024-11-08T20:00:00	2	Temperatura media	18.7
154006	7	Sololá	712	San Antonio Palopó	9	San Antonio Palopo	2	Febrero	2023-02-14T00:00:00	2024-11-08T20:00:00	4	Temperatura máxima	19.6
154007	7	Sololá	712	San Antonio Palopó	9	San Antonio Palopo	2	Febrero	2023-02-14T00:00:00	2024-11-08T20:00:00	3	Temperatura mínima	18.5
154008	7	Sololá	712	San Antonio Palopó	9	San Antonio Palopo	2	Febrero	2023-02-14T00:00:00	2024-11-08T20:00:00	5	Humedad	81
154009	7	Sololá	712	San Antonio Palopó	9	San Antonio Palopo	2	Febrero	2023-02-14T00:00:00	2024-11-08T20:00:00	6	Velocidad del viento	1.6
154010	7	Sololá	712	San Antonio Palopó	9	San Antonio Palopo	2	Febrero	2023-02-14T00:00:00	2024-11-08T20:00:00	7	Dirección del viento	1.61
154011	7	Sololá	712	San Antonio Palopó	9	San Antonio Palopo	2	Febrero	2023-02-14T00:00:00	2024-11-08T20:00:00	1	Precipitación	0
154012	7	Sololá	712	San Antonio Palopó	9	San Antonio Palopo	2	Febrero	2023-02-14T00:00:00	2024-11-08T20:00:00	8	Radiación solar	0
154013	7	Sololá	712	San Antonio Palopó	9	San Antonio Palopo	2	Febrero	2023-02-14T00:00:00	2024-11-08T21:00:00	2	Temperatura media	18.7
154014	7	Sololá	712	San Antonio Palopó	9	San Antonio Palopo	2	Febrero	2023-02-14T00:00:00	2024-11-08T21:00:00	4	Temperatura máxima	18.8
154015	7	Sololá	712	San Antonio Palopó	9	San Antonio Palopo	2	Febrero	2023-02-14T00:00:00	2024-11-08T21:00:00	3	Temperatura mínima	18.6
154016	7	Sololá	712	San Antonio Palopó	9	San Antonio Palopo	2	Febrero	2023-02-14T00:00:00	2024-11-08T21:00:00	5	Humedad	78
154017	7	Sololá	712	San Antonio Palopó	9	San Antonio Palopo	2	Febrero	2023-02-14T00:00:00	2024-11-08T21:00:00	6	Velocidad del viento	1.6
154018	7	Sololá	712	San Antonio Palopó	9	San Antonio Palopo	2	Febrero	2023-02-14T00:00:00	2024-11-08T21:00:00	7	Dirección del viento	1.61
154019	7	Sololá	712	San Antonio Palopó	9	San Antonio Palopo	2	Febrero	2023-02-14T00:00:00	2024-11-08T21:00:00	1	Precipitación	0
154020	7	Sololá	712	San Antonio Palopó	9	San Antonio Palopo	2	Febrero	2023-02-14T00:00:00	2024-11-08T21:00:00	8	Radiación solar	0
154021	7	Sololá	712	San Antonio Palopó	9	San Antonio Palopo	2	Febrero	2023-02-14T00:00:00	2024-11-08T22:00:00	2	Temperatura media	18.3
154022	7	Sololá	712	San Antonio Palopó	9	San Antonio Palopo	2	Febrero	2023-02-14T00:00:00	2024-11-08T22:00:00	4	Temperatura máxima	18.7
154023	7	Sololá	712	San Antonio Palopó	9	San Antonio Palopo	2	Febrero	2023-02-14T00:00:00	2024-11-08T22:00:00	3	Temperatura mínima	18
154024	7	Sololá	712	San Antonio Palopó	9	San Antonio Palopo	2	Febrero	2023-02-14T00:00:00	2024-11-08T22:00:00	5	Humedad	76
154025	7	Sololá	712	San Antonio Palopó	9	San Antonio Palopo	2	Febrero	2023-02-14T00:00:00	2024-11-08T22:00:00	6	Velocidad del viento	3.2
154026	7	Sololá	712	San Antonio Palopó	9	San Antonio Palopo	2	Febrero	2023-02-14T00:00:00	2024-11-08T22:00:00	7	Dirección del viento	3.22
154027	7	Sololá	712	San Antonio Palopó	9	San Antonio Palopo	2	Febrero	2023-02-14T00:00:00	2024-11-08T22:00:00	1	Precipitación	0
154028	7	Sololá	712	San Antonio Palopó	9	San Antonio Palopo	2	Febrero	2023-02-14T00:00:00	2024-11-08T22:00:00	8	Radiación solar	0
154029	7	Sololá	712	San Antonio Palopó	9	San Antonio Palopo	2	Febrero	2023-02-14T00:00:00	2024-11-08T23:00:00	2	Temperatura media	17.2
154030	7	Sololá	712	San Antonio Palopó	9	San Antonio Palopo	2	Febrero	2023-02-14T00:00:00	2024-11-08T23:00:00	4	Temperatura máxima	18.3
154031	7	Sololá	712	San Antonio Palopó	9	San Antonio Palopo	2	Febrero	2023-02-14T00:00:00	2024-11-08T23:00:00	3	Temperatura mínima	17.2
154032	7	Sololá	712	San Antonio Palopó	9	San Antonio Palopo	2	Febrero	2023-02-14T00:00:00	2024-11-08T23:00:00	5	Humedad	79
154033	7	Sololá	712	San Antonio Palopó	9	San Antonio Palopo	2	Febrero	2023-02-14T00:00:00	2024-11-08T23:00:00	6	Velocidad del viento	3.2
154034	7	Sololá	712	San Antonio Palopó	9	San Antonio Palopo	2	Febrero	2023-02-14T00:00:00	2024-11-08T23:00:00	7	Dirección del viento	3.22
154035	7	Sololá	712	San Antonio Palopó	9	San Antonio Palopo	2	Febrero	2023-02-14T00:00:00	2024-11-08T23:00:00	1	Precipitación	0
154036	7	Sololá	712	San Antonio Palopó	9	San Antonio Palopo	2	Febrero	2023-02-14T00:00:00	2024-11-08T23:00:00	8	Radiación solar	0
154037	7	Sololá	712	San Antonio Palopó	9	San Antonio Palopo	2	Febrero	2023-02-15T00:00:00	2024-11-08T00:00:00	2	Temperatura media	16.7
154038	7	Sololá	712	San Antonio Palopó	9	San Antonio Palopo	2	Febrero	2023-02-15T00:00:00	2024-11-08T00:00:00	4	Temperatura máxima	17.2
154039	7	Sololá	712	San Antonio Palopó	9	San Antonio Palopo	2	Febrero	2023-02-15T00:00:00	2024-11-08T00:00:00	3	Temperatura mínima	16.6
154040	7	Sololá	712	San Antonio Palopó	9	San Antonio Palopo	2	Febrero	2023-02-15T00:00:00	2024-11-08T00:00:00	5	Humedad	78
154041	7	Sololá	712	San Antonio Palopó	9	San Antonio Palopo	2	Febrero	2023-02-15T00:00:00	2024-11-08T00:00:00	6	Velocidad del viento	3.2
154042	7	Sololá	712	San Antonio Palopó	9	San Antonio Palopo	2	Febrero	2023-02-15T00:00:00	2024-11-08T00:00:00	7	Dirección del viento	3.22
154043	7	Sololá	712	San Antonio Palopó	9	San Antonio Palopo	2	Febrero	2023-02-15T00:00:00	2024-11-08T00:00:00	1	Precipitación	0
154044	7	Sololá	712	San Antonio Palopó	9	San Antonio Palopo	2	Febrero	2023-02-15T00:00:00	2024-11-08T00:00:00	8	Radiación solar	0
154045	7	Sololá	712	San Antonio Palopó	9	San Antonio Palopo	2	Febrero	2023-02-15T00:00:00	2024-11-08T01:00:00	2	Temperatura media	16.2
154046	7	Sololá	712	San Antonio Palopó	9	San Antonio Palopo	2	Febrero	2023-02-15T00:00:00	2024-11-08T01:00:00	4	Temperatura máxima	16.8
154047	7	Sololá	712	San Antonio Palopó	9	San Antonio Palopo	2	Febrero	2023-02-15T00:00:00	2024-11-08T01:00:00	3	Temperatura mínima	16.2
154048	7	Sololá	712	San Antonio Palopó	9	San Antonio Palopo	2	Febrero	2023-02-15T00:00:00	2024-11-08T01:00:00	5	Humedad	79
154049	7	Sololá	712	San Antonio Palopó	9	San Antonio Palopo	2	Febrero	2023-02-15T00:00:00	2024-11-08T01:00:00	6	Velocidad del viento	3.2
154050	7	Sololá	712	San Antonio Palopó	9	San Antonio Palopo	2	Febrero	2023-02-15T00:00:00	2024-11-08T01:00:00	7	Dirección del viento	3.22
154051	7	Sololá	712	San Antonio Palopó	9	San Antonio Palopo	2	Febrero	2023-02-15T00:00:00	2024-11-08T01:00:00	1	Precipitación	0
154052	7	Sololá	712	San Antonio Palopó	9	San Antonio Palopo	2	Febrero	2023-02-15T00:00:00	2024-11-08T01:00:00	8	Radiación solar	0
154053	7	Sololá	712	San Antonio Palopó	9	San Antonio Palopo	2	Febrero	2023-02-15T00:00:00	2024-11-08T02:00:00	2	Temperatura media	15.8
154054	7	Sololá	712	San Antonio Palopó	9	San Antonio Palopo	2	Febrero	2023-02-15T00:00:00	2024-11-08T02:00:00	4	Temperatura máxima	16.2
154055	7	Sololá	712	San Antonio Palopó	9	San Antonio Palopo	2	Febrero	2023-02-15T00:00:00	2024-11-08T02:00:00	3	Temperatura mínima	15.8
154056	7	Sololá	712	San Antonio Palopó	9	San Antonio Palopo	2	Febrero	2023-02-15T00:00:00	2024-11-08T02:00:00	5	Humedad	77
154057	7	Sololá	712	San Antonio Palopó	9	San Antonio Palopo	2	Febrero	2023-02-15T00:00:00	2024-11-08T02:00:00	6	Velocidad del viento	3.2
154058	7	Sololá	712	San Antonio Palopó	9	San Antonio Palopo	2	Febrero	2023-02-15T00:00:00	2024-11-08T02:00:00	7	Dirección del viento	3.22
154059	7	Sololá	712	San Antonio Palopó	9	San Antonio Palopo	2	Febrero	2023-02-15T00:00:00	2024-11-08T02:00:00	1	Precipitación	0
154060	7	Sololá	712	San Antonio Palopó	9	San Antonio Palopo	2	Febrero	2023-02-15T00:00:00	2024-11-08T02:00:00	8	Radiación solar	0
154061	7	Sololá	712	San Antonio Palopó	9	San Antonio Palopo	2	Febrero	2023-02-15T00:00:00	2024-11-08T03:00:00	2	Temperatura media	15.3
154062	7	Sololá	712	San Antonio Palopó	9	San Antonio Palopo	2	Febrero	2023-02-15T00:00:00	2024-11-08T03:00:00	4	Temperatura máxima	15.9
154063	7	Sololá	712	San Antonio Palopó	9	San Antonio Palopo	2	Febrero	2023-02-15T00:00:00	2024-11-08T03:00:00	3	Temperatura mínima	15.3
154064	7	Sololá	712	San Antonio Palopó	9	San Antonio Palopo	2	Febrero	2023-02-15T00:00:00	2024-11-08T03:00:00	5	Humedad	79
154065	7	Sololá	712	San Antonio Palopó	9	San Antonio Palopo	2	Febrero	2023-02-15T00:00:00	2024-11-08T03:00:00	6	Velocidad del viento	3.2
154066	7	Sololá	712	San Antonio Palopó	9	San Antonio Palopo	2	Febrero	2023-02-15T00:00:00	2024-11-08T03:00:00	7	Dirección del viento	3.22
154067	7	Sololá	712	San Antonio Palopó	9	San Antonio Palopo	2	Febrero	2023-02-15T00:00:00	2024-11-08T03:00:00	1	Precipitación	0
154068	7	Sololá	712	San Antonio Palopó	9	San Antonio Palopo	2	Febrero	2023-02-15T00:00:00	2024-11-08T03:00:00	8	Radiación solar	0
154069	7	Sololá	712	San Antonio Palopó	9	San Antonio Palopo	2	Febrero	2023-02-15T00:00:00	2024-11-08T04:00:00	2	Temperatura media	14.9
154070	7	Sololá	712	San Antonio Palopó	9	San Antonio Palopo	2	Febrero	2023-02-15T00:00:00	2024-11-08T04:00:00	4	Temperatura máxima	15.3
154071	7	Sololá	712	San Antonio Palopó	9	San Antonio Palopo	2	Febrero	2023-02-15T00:00:00	2024-11-08T04:00:00	3	Temperatura mínima	14.9
154072	7	Sololá	712	San Antonio Palopó	9	San Antonio Palopo	2	Febrero	2023-02-15T00:00:00	2024-11-08T04:00:00	5	Humedad	81
154073	7	Sololá	712	San Antonio Palopó	9	San Antonio Palopo	2	Febrero	2023-02-15T00:00:00	2024-11-08T04:00:00	6	Velocidad del viento	3.2
154074	7	Sololá	712	San Antonio Palopó	9	San Antonio Palopo	2	Febrero	2023-02-15T00:00:00	2024-11-08T04:00:00	7	Dirección del viento	3.22
154075	7	Sololá	712	San Antonio Palopó	9	San Antonio Palopo	2	Febrero	2023-02-15T00:00:00	2024-11-08T04:00:00	1	Precipitación	0
154076	7	Sololá	712	San Antonio Palopó	9	San Antonio Palopo	2	Febrero	2023-02-15T00:00:00	2024-11-08T04:00:00	8	Radiación solar	0
154077	7	Sololá	712	San Antonio Palopó	9	San Antonio Palopo	2	Febrero	2023-02-15T00:00:00	2024-11-08T05:00:00	2	Temperatura media	14.6
154078	7	Sololá	712	San Antonio Palopó	9	San Antonio Palopo	2	Febrero	2023-02-15T00:00:00	2024-11-08T05:00:00	4	Temperatura máxima	15.1
154079	7	Sololá	712	San Antonio Palopó	9	San Antonio Palopo	2	Febrero	2023-02-15T00:00:00	2024-11-08T05:00:00	3	Temperatura mínima	14.6
154080	7	Sololá	712	San Antonio Palopó	9	San Antonio Palopo	2	Febrero	2023-02-15T00:00:00	2024-11-08T05:00:00	5	Humedad	82
154081	7	Sololá	712	San Antonio Palopó	9	San Antonio Palopo	2	Febrero	2023-02-15T00:00:00	2024-11-08T05:00:00	6	Velocidad del viento	3.2
154082	7	Sololá	712	San Antonio Palopó	9	San Antonio Palopo	2	Febrero	2023-02-15T00:00:00	2024-11-08T05:00:00	7	Dirección del viento	3.22
154083	7	Sololá	712	San Antonio Palopó	9	San Antonio Palopo	2	Febrero	2023-02-15T00:00:00	2024-11-08T05:00:00	1	Precipitación	0
154084	7	Sololá	712	San Antonio Palopó	9	San Antonio Palopo	2	Febrero	2023-02-15T00:00:00	2024-11-08T05:00:00	8	Radiación solar	0
154085	7	Sololá	712	San Antonio Palopó	9	San Antonio Palopo	2	Febrero	2023-02-15T00:00:00	2024-11-08T06:00:00	2	Temperatura media	14.3
154086	7	Sololá	712	San Antonio Palopó	9	San Antonio Palopo	2	Febrero	2023-02-15T00:00:00	2024-11-08T06:00:00	4	Temperatura máxima	14.6
154087	7	Sololá	712	San Antonio Palopó	9	San Antonio Palopo	2	Febrero	2023-02-15T00:00:00	2024-11-08T06:00:00	3	Temperatura mínima	14.3
154088	7	Sololá	712	San Antonio Palopó	9	San Antonio Palopo	2	Febrero	2023-02-15T00:00:00	2024-11-08T06:00:00	5	Humedad	82
154089	7	Sololá	712	San Antonio Palopó	9	San Antonio Palopo	2	Febrero	2023-02-15T00:00:00	2024-11-08T06:00:00	6	Velocidad del viento	4.8
154090	7	Sololá	712	San Antonio Palopó	9	San Antonio Palopo	2	Febrero	2023-02-15T00:00:00	2024-11-08T06:00:00	7	Dirección del viento	4.83
154091	7	Sololá	712	San Antonio Palopó	9	San Antonio Palopo	2	Febrero	2023-02-15T00:00:00	2024-11-08T06:00:00	1	Precipitación	0
154092	7	Sololá	712	San Antonio Palopó	9	San Antonio Palopo	2	Febrero	2023-02-15T00:00:00	2024-11-08T06:00:00	8	Radiación solar	0
154093	7	Sololá	712	San Antonio Palopó	9	San Antonio Palopo	2	Febrero	2023-02-15T00:00:00	2024-11-08T07:00:00	2	Temperatura media	14.2
154094	7	Sololá	712	San Antonio Palopó	9	San Antonio Palopo	2	Febrero	2023-02-15T00:00:00	2024-11-08T07:00:00	4	Temperatura máxima	14.3
154095	7	Sololá	712	San Antonio Palopó	9	San Antonio Palopo	2	Febrero	2023-02-15T00:00:00	2024-11-08T07:00:00	3	Temperatura mínima	14.1
154096	7	Sololá	712	San Antonio Palopó	9	San Antonio Palopo	2	Febrero	2023-02-15T00:00:00	2024-11-08T07:00:00	5	Humedad	81
154097	7	Sololá	712	San Antonio Palopó	9	San Antonio Palopo	2	Febrero	2023-02-15T00:00:00	2024-11-08T07:00:00	6	Velocidad del viento	4.8
154098	7	Sololá	712	San Antonio Palopó	9	San Antonio Palopo	2	Febrero	2023-02-15T00:00:00	2024-11-08T07:00:00	7	Dirección del viento	4.83
154099	7	Sololá	712	San Antonio Palopó	9	San Antonio Palopo	2	Febrero	2023-02-15T00:00:00	2024-11-08T07:00:00	1	Precipitación	0
154100	7	Sololá	712	San Antonio Palopó	9	San Antonio Palopo	2	Febrero	2023-02-15T00:00:00	2024-11-08T07:00:00	8	Radiación solar	5
154101	7	Sololá	712	San Antonio Palopó	9	San Antonio Palopo	2	Febrero	2023-02-15T00:00:00	2024-11-08T08:00:00	2	Temperatura media	14.6
154102	7	Sololá	712	San Antonio Palopó	9	San Antonio Palopo	2	Febrero	2023-02-15T00:00:00	2024-11-08T08:00:00	4	Temperatura máxima	14.6
154103	7	Sololá	712	San Antonio Palopó	9	San Antonio Palopo	2	Febrero	2023-02-15T00:00:00	2024-11-08T08:00:00	3	Temperatura mínima	14.2
154104	7	Sololá	712	San Antonio Palopó	9	San Antonio Palopo	2	Febrero	2023-02-15T00:00:00	2024-11-08T08:00:00	5	Humedad	82
154105	7	Sololá	712	San Antonio Palopó	9	San Antonio Palopo	2	Febrero	2023-02-15T00:00:00	2024-11-08T08:00:00	6	Velocidad del viento	3.2
154106	7	Sololá	712	San Antonio Palopó	9	San Antonio Palopo	2	Febrero	2023-02-15T00:00:00	2024-11-08T08:00:00	7	Dirección del viento	3.22
154107	7	Sololá	712	San Antonio Palopó	9	San Antonio Palopo	2	Febrero	2023-02-15T00:00:00	2024-11-08T08:00:00	1	Precipitación	0
154108	7	Sololá	712	San Antonio Palopó	9	San Antonio Palopo	2	Febrero	2023-02-15T00:00:00	2024-11-08T08:00:00	8	Radiación solar	23
154109	7	Sololá	712	San Antonio Palopó	9	San Antonio Palopo	2	Febrero	2023-02-15T00:00:00	2024-11-08T09:00:00	2	Temperatura media	17.6
154110	7	Sololá	712	San Antonio Palopó	9	San Antonio Palopo	2	Febrero	2023-02-15T00:00:00	2024-11-08T09:00:00	4	Temperatura máxima	17.6
154111	7	Sololá	712	San Antonio Palopó	9	San Antonio Palopo	2	Febrero	2023-02-15T00:00:00	2024-11-08T09:00:00	3	Temperatura mínima	14.4
154112	7	Sololá	712	San Antonio Palopó	9	San Antonio Palopo	2	Febrero	2023-02-15T00:00:00	2024-11-08T09:00:00	5	Humedad	74
154113	7	Sololá	712	San Antonio Palopó	9	San Antonio Palopo	2	Febrero	2023-02-15T00:00:00	2024-11-08T09:00:00	6	Velocidad del viento	3.2
154114	7	Sololá	712	San Antonio Palopó	9	San Antonio Palopo	2	Febrero	2023-02-15T00:00:00	2024-11-08T09:00:00	7	Dirección del viento	3.22
154115	7	Sololá	712	San Antonio Palopó	9	San Antonio Palopo	2	Febrero	2023-02-15T00:00:00	2024-11-08T09:00:00	1	Precipitación	0
154116	7	Sololá	712	San Antonio Palopó	9	San Antonio Palopo	2	Febrero	2023-02-15T00:00:00	2024-11-08T09:00:00	8	Radiación solar	272
154117	7	Sololá	712	San Antonio Palopó	9	San Antonio Palopo	2	Febrero	2023-02-15T00:00:00	2024-11-08T10:00:00	2	Temperatura media	18.6
154118	7	Sololá	712	San Antonio Palopó	9	San Antonio Palopo	2	Febrero	2023-02-15T00:00:00	2024-11-08T10:00:00	4	Temperatura máxima	18.6
154119	7	Sololá	712	San Antonio Palopó	9	San Antonio Palopo	2	Febrero	2023-02-15T00:00:00	2024-11-08T10:00:00	3	Temperatura mínima	17.6
154120	7	Sololá	712	San Antonio Palopó	9	San Antonio Palopo	2	Febrero	2023-02-15T00:00:00	2024-11-08T10:00:00	5	Humedad	73
154121	7	Sololá	712	San Antonio Palopó	9	San Antonio Palopo	2	Febrero	2023-02-15T00:00:00	2024-11-08T10:00:00	6	Velocidad del viento	3.2
154122	7	Sololá	712	San Antonio Palopó	9	San Antonio Palopo	2	Febrero	2023-02-15T00:00:00	2024-11-08T10:00:00	7	Dirección del viento	3.22
154123	7	Sololá	712	San Antonio Palopó	9	San Antonio Palopo	2	Febrero	2023-02-15T00:00:00	2024-11-08T10:00:00	1	Precipitación	0
154124	7	Sololá	712	San Antonio Palopó	9	San Antonio Palopo	2	Febrero	2023-02-15T00:00:00	2024-11-08T10:00:00	8	Radiación solar	598
154125	7	Sololá	712	San Antonio Palopó	9	San Antonio Palopo	2	Febrero	2023-02-15T00:00:00	2024-11-08T11:00:00	2	Temperatura media	20.2
154126	7	Sololá	712	San Antonio Palopó	9	San Antonio Palopo	2	Febrero	2023-02-15T00:00:00	2024-11-08T11:00:00	4	Temperatura máxima	20.2
154127	7	Sololá	712	San Antonio Palopó	9	San Antonio Palopo	2	Febrero	2023-02-15T00:00:00	2024-11-08T11:00:00	3	Temperatura mínima	18.6
154128	7	Sololá	712	San Antonio Palopó	9	San Antonio Palopo	2	Febrero	2023-02-15T00:00:00	2024-11-08T11:00:00	5	Humedad	66
154129	7	Sololá	712	San Antonio Palopó	9	San Antonio Palopo	2	Febrero	2023-02-15T00:00:00	2024-11-08T11:00:00	6	Velocidad del viento	1.6
154130	7	Sololá	712	San Antonio Palopó	9	San Antonio Palopo	2	Febrero	2023-02-15T00:00:00	2024-11-08T11:00:00	7	Dirección del viento	1.61
154131	7	Sololá	712	San Antonio Palopó	9	San Antonio Palopo	2	Febrero	2023-02-15T00:00:00	2024-11-08T11:00:00	1	Precipitación	0
154132	7	Sololá	712	San Antonio Palopó	9	San Antonio Palopo	2	Febrero	2023-02-15T00:00:00	2024-11-08T11:00:00	8	Radiación solar	749
154133	7	Sololá	712	San Antonio Palopó	9	San Antonio Palopo	2	Febrero	2023-02-15T00:00:00	2024-11-08T12:00:00	2	Temperatura media	21.7
154134	7	Sololá	712	San Antonio Palopó	9	San Antonio Palopo	2	Febrero	2023-02-15T00:00:00	2024-11-08T12:00:00	4	Temperatura máxima	22.2
154135	7	Sololá	712	San Antonio Palopó	9	San Antonio Palopo	2	Febrero	2023-02-15T00:00:00	2024-11-08T12:00:00	3	Temperatura mínima	20.2
154136	7	Sololá	712	San Antonio Palopó	9	San Antonio Palopo	2	Febrero	2023-02-15T00:00:00	2024-11-08T12:00:00	5	Humedad	70
154137	7	Sololá	712	San Antonio Palopó	9	San Antonio Palopo	2	Febrero	2023-02-15T00:00:00	2024-11-08T12:00:00	6	Velocidad del viento	3.2
154138	7	Sololá	712	San Antonio Palopó	9	San Antonio Palopo	2	Febrero	2023-02-15T00:00:00	2024-11-08T12:00:00	7	Dirección del viento	3.22
154139	7	Sololá	712	San Antonio Palopó	9	San Antonio Palopo	2	Febrero	2023-02-15T00:00:00	2024-11-08T12:00:00	1	Precipitación	0
154140	7	Sololá	712	San Antonio Palopó	9	San Antonio Palopo	2	Febrero	2023-02-15T00:00:00	2024-11-08T12:00:00	8	Radiación solar	771
154141	7	Sololá	712	San Antonio Palopó	9	San Antonio Palopo	2	Febrero	2023-02-15T00:00:00	2024-11-08T13:00:00	2	Temperatura media	22.5
154142	7	Sololá	712	San Antonio Palopó	9	San Antonio Palopo	2	Febrero	2023-02-15T00:00:00	2024-11-08T13:00:00	4	Temperatura máxima	22.7
154143	7	Sololá	712	San Antonio Palopó	9	San Antonio Palopo	2	Febrero	2023-02-15T00:00:00	2024-11-08T13:00:00	3	Temperatura mínima	21.8
154144	7	Sololá	712	San Antonio Palopó	9	San Antonio Palopo	2	Febrero	2023-02-15T00:00:00	2024-11-08T13:00:00	5	Humedad	67
154145	7	Sololá	712	San Antonio Palopó	9	San Antonio Palopo	2	Febrero	2023-02-15T00:00:00	2024-11-08T13:00:00	6	Velocidad del viento	8
154146	7	Sololá	712	San Antonio Palopó	9	San Antonio Palopo	2	Febrero	2023-02-15T00:00:00	2024-11-08T13:00:00	7	Dirección del viento	8.05
154147	7	Sololá	712	San Antonio Palopó	9	San Antonio Palopo	2	Febrero	2023-02-15T00:00:00	2024-11-08T13:00:00	1	Precipitación	0
154148	7	Sololá	712	San Antonio Palopó	9	San Antonio Palopo	2	Febrero	2023-02-15T00:00:00	2024-11-08T13:00:00	8	Radiación solar	849
154149	7	Sololá	712	San Antonio Palopó	9	San Antonio Palopo	2	Febrero	2023-02-15T00:00:00	2024-11-08T14:00:00	2	Temperatura media	22.1
154150	7	Sololá	712	San Antonio Palopó	9	San Antonio Palopo	2	Febrero	2023-02-15T00:00:00	2024-11-08T14:00:00	4	Temperatura máxima	22.6
154151	7	Sololá	712	San Antonio Palopó	9	San Antonio Palopo	2	Febrero	2023-02-15T00:00:00	2024-11-08T14:00:00	3	Temperatura mínima	21.9
154152	7	Sololá	712	San Antonio Palopó	9	San Antonio Palopo	2	Febrero	2023-02-15T00:00:00	2024-11-08T14:00:00	5	Humedad	69
154153	7	Sololá	712	San Antonio Palopó	9	San Antonio Palopo	2	Febrero	2023-02-15T00:00:00	2024-11-08T14:00:00	6	Velocidad del viento	9.7
154154	7	Sololá	712	San Antonio Palopó	9	San Antonio Palopo	2	Febrero	2023-02-15T00:00:00	2024-11-08T14:00:00	7	Dirección del viento	9.66
154155	7	Sololá	712	San Antonio Palopó	9	San Antonio Palopo	2	Febrero	2023-02-15T00:00:00	2024-11-08T14:00:00	1	Precipitación	0
154156	7	Sololá	712	San Antonio Palopó	9	San Antonio Palopo	2	Febrero	2023-02-15T00:00:00	2024-11-08T14:00:00	8	Radiación solar	754
154157	7	Sololá	712	San Antonio Palopó	9	San Antonio Palopo	2	Febrero	2023-02-15T00:00:00	2024-11-08T15:00:00	2	Temperatura media	22.5
154158	7	Sololá	712	San Antonio Palopó	9	San Antonio Palopo	2	Febrero	2023-02-15T00:00:00	2024-11-08T15:00:00	4	Temperatura máxima	23.1
154159	7	Sololá	712	San Antonio Palopó	9	San Antonio Palopo	2	Febrero	2023-02-15T00:00:00	2024-11-08T15:00:00	3	Temperatura mínima	22.1
154160	7	Sololá	712	San Antonio Palopó	9	San Antonio Palopo	2	Febrero	2023-02-15T00:00:00	2024-11-08T15:00:00	5	Humedad	69
154161	7	Sololá	712	San Antonio Palopó	9	San Antonio Palopo	2	Febrero	2023-02-15T00:00:00	2024-11-08T15:00:00	6	Velocidad del viento	8
154162	7	Sololá	712	San Antonio Palopó	9	San Antonio Palopo	2	Febrero	2023-02-15T00:00:00	2024-11-08T15:00:00	7	Dirección del viento	8.05
154163	7	Sololá	712	San Antonio Palopó	9	San Antonio Palopo	2	Febrero	2023-02-15T00:00:00	2024-11-08T15:00:00	1	Precipitación	0
154164	7	Sololá	712	San Antonio Palopó	9	San Antonio Palopo	2	Febrero	2023-02-15T00:00:00	2024-11-08T15:00:00	8	Radiación solar	718
154165	7	Sololá	712	San Antonio Palopó	9	San Antonio Palopo	2	Febrero	2023-02-15T00:00:00	2024-11-08T16:00:00	2	Temperatura media	22.4
154166	7	Sololá	712	San Antonio Palopó	9	San Antonio Palopo	2	Febrero	2023-02-15T00:00:00	2024-11-08T16:00:00	4	Temperatura máxima	23.1
154167	7	Sololá	712	San Antonio Palopó	9	San Antonio Palopo	2	Febrero	2023-02-15T00:00:00	2024-11-08T16:00:00	3	Temperatura mínima	22.2
154168	7	Sololá	712	San Antonio Palopó	9	San Antonio Palopo	2	Febrero	2023-02-15T00:00:00	2024-11-08T16:00:00	5	Humedad	72
154169	7	Sololá	712	San Antonio Palopó	9	San Antonio Palopo	2	Febrero	2023-02-15T00:00:00	2024-11-08T16:00:00	6	Velocidad del viento	6.4
154170	7	Sololá	712	San Antonio Palopó	9	San Antonio Palopo	2	Febrero	2023-02-15T00:00:00	2024-11-08T16:00:00	7	Dirección del viento	6.44
154171	7	Sololá	712	San Antonio Palopó	9	San Antonio Palopo	2	Febrero	2023-02-15T00:00:00	2024-11-08T16:00:00	1	Precipitación	0
154172	7	Sololá	712	San Antonio Palopó	9	San Antonio Palopo	2	Febrero	2023-02-15T00:00:00	2024-11-08T16:00:00	8	Radiación solar	548
154173	7	Sololá	712	San Antonio Palopó	9	San Antonio Palopo	2	Febrero	2023-02-15T00:00:00	2024-11-08T17:00:00	2	Temperatura media	22.2
154174	7	Sololá	712	San Antonio Palopó	9	San Antonio Palopo	2	Febrero	2023-02-15T00:00:00	2024-11-08T17:00:00	4	Temperatura máxima	23.2
154175	7	Sololá	712	San Antonio Palopó	9	San Antonio Palopo	2	Febrero	2023-02-15T00:00:00	2024-11-08T17:00:00	3	Temperatura mínima	21.9
154176	7	Sololá	712	San Antonio Palopó	9	San Antonio Palopo	2	Febrero	2023-02-15T00:00:00	2024-11-08T17:00:00	5	Humedad	73
154177	7	Sololá	712	San Antonio Palopó	9	San Antonio Palopo	2	Febrero	2023-02-15T00:00:00	2024-11-08T17:00:00	6	Velocidad del viento	6.4
154178	7	Sololá	712	San Antonio Palopó	9	San Antonio Palopo	2	Febrero	2023-02-15T00:00:00	2024-11-08T17:00:00	7	Dirección del viento	6.44
154179	7	Sololá	712	San Antonio Palopó	9	San Antonio Palopo	2	Febrero	2023-02-15T00:00:00	2024-11-08T17:00:00	1	Precipitación	0
154180	7	Sololá	712	San Antonio Palopó	9	San Antonio Palopo	2	Febrero	2023-02-15T00:00:00	2024-11-08T17:00:00	8	Radiación solar	338
154181	7	Sololá	712	San Antonio Palopó	9	San Antonio Palopo	2	Febrero	2023-02-15T00:00:00	2024-11-08T18:00:00	2	Temperatura media	19.4
154182	7	Sololá	712	San Antonio Palopó	9	San Antonio Palopo	2	Febrero	2023-02-15T00:00:00	2024-11-08T18:00:00	4	Temperatura máxima	22.3
154183	7	Sololá	712	San Antonio Palopó	9	San Antonio Palopo	2	Febrero	2023-02-15T00:00:00	2024-11-08T18:00:00	3	Temperatura mínima	19.4
154184	7	Sololá	712	San Antonio Palopó	9	San Antonio Palopo	2	Febrero	2023-02-15T00:00:00	2024-11-08T18:00:00	5	Humedad	83
154185	7	Sololá	712	San Antonio Palopó	9	San Antonio Palopo	2	Febrero	2023-02-15T00:00:00	2024-11-08T18:00:00	6	Velocidad del viento	4.8
154186	7	Sololá	712	San Antonio Palopó	9	San Antonio Palopo	2	Febrero	2023-02-15T00:00:00	2024-11-08T18:00:00	7	Dirección del viento	4.83
154187	7	Sololá	712	San Antonio Palopó	9	San Antonio Palopo	2	Febrero	2023-02-15T00:00:00	2024-11-08T18:00:00	1	Precipitación	0
154188	7	Sololá	712	San Antonio Palopó	9	San Antonio Palopo	2	Febrero	2023-02-15T00:00:00	2024-11-08T18:00:00	8	Radiación solar	78
154189	7	Sololá	712	San Antonio Palopó	9	San Antonio Palopo	2	Febrero	2023-02-15T00:00:00	2024-11-08T19:00:00	2	Temperatura media	18.6
154190	7	Sololá	712	San Antonio Palopó	9	San Antonio Palopo	2	Febrero	2023-02-15T00:00:00	2024-11-08T19:00:00	4	Temperatura máxima	19.4
154191	7	Sololá	712	San Antonio Palopó	9	San Antonio Palopo	2	Febrero	2023-02-15T00:00:00	2024-11-08T19:00:00	3	Temperatura mínima	18.5
154192	7	Sololá	712	San Antonio Palopó	9	San Antonio Palopo	2	Febrero	2023-02-15T00:00:00	2024-11-08T19:00:00	5	Humedad	88
154193	7	Sololá	712	San Antonio Palopó	9	San Antonio Palopo	2	Febrero	2023-02-15T00:00:00	2024-11-08T19:00:00	6	Velocidad del viento	4.8
154194	7	Sololá	712	San Antonio Palopó	9	San Antonio Palopo	2	Febrero	2023-02-15T00:00:00	2024-11-08T19:00:00	7	Dirección del viento	4.83
154195	7	Sololá	712	San Antonio Palopó	9	San Antonio Palopo	2	Febrero	2023-02-15T00:00:00	2024-11-08T19:00:00	1	Precipitación	0
154196	7	Sololá	712	San Antonio Palopó	9	San Antonio Palopo	2	Febrero	2023-02-15T00:00:00	2024-11-08T19:00:00	8	Radiación solar	0
154197	7	Sololá	712	San Antonio Palopó	9	San Antonio Palopo	2	Febrero	2023-02-15T00:00:00	2024-11-08T20:00:00	2	Temperatura media	18.2
154198	7	Sololá	712	San Antonio Palopó	9	San Antonio Palopo	2	Febrero	2023-02-15T00:00:00	2024-11-08T20:00:00	4	Temperatura máxima	18.6
154199	7	Sololá	712	San Antonio Palopó	9	San Antonio Palopo	2	Febrero	2023-02-15T00:00:00	2024-11-08T20:00:00	3	Temperatura mínima	18.2
154200	7	Sololá	712	San Antonio Palopó	9	San Antonio Palopo	2	Febrero	2023-02-15T00:00:00	2024-11-08T20:00:00	5	Humedad	91
154201	7	Sololá	712	San Antonio Palopó	9	San Antonio Palopo	2	Febrero	2023-02-15T00:00:00	2024-11-08T20:00:00	6	Velocidad del viento	3.2
154202	7	Sololá	712	San Antonio Palopó	9	San Antonio Palopo	2	Febrero	2023-02-15T00:00:00	2024-11-08T20:00:00	7	Dirección del viento	3.22
154203	7	Sololá	712	San Antonio Palopó	9	San Antonio Palopo	2	Febrero	2023-02-15T00:00:00	2024-11-08T20:00:00	1	Precipitación	0
154204	7	Sololá	712	San Antonio Palopó	9	San Antonio Palopo	2	Febrero	2023-02-15T00:00:00	2024-11-08T20:00:00	8	Radiación solar	0
154205	7	Sololá	712	San Antonio Palopó	9	San Antonio Palopo	2	Febrero	2023-02-15T00:00:00	2024-11-08T21:00:00	2	Temperatura media	17.9
154206	7	Sololá	712	San Antonio Palopó	9	San Antonio Palopo	2	Febrero	2023-02-15T00:00:00	2024-11-08T21:00:00	4	Temperatura máxima	18.2
154207	7	Sololá	712	San Antonio Palopó	9	San Antonio Palopo	2	Febrero	2023-02-15T00:00:00	2024-11-08T21:00:00	3	Temperatura mínima	17.8
154208	7	Sololá	712	San Antonio Palopó	9	San Antonio Palopo	2	Febrero	2023-02-15T00:00:00	2024-11-08T21:00:00	5	Humedad	91
154209	7	Sololá	712	San Antonio Palopó	9	San Antonio Palopo	2	Febrero	2023-02-15T00:00:00	2024-11-08T21:00:00	6	Velocidad del viento	0
154210	7	Sololá	712	San Antonio Palopó	9	San Antonio Palopo	2	Febrero	2023-02-15T00:00:00	2024-11-08T21:00:00	7	Dirección del viento	0
154211	7	Sololá	712	San Antonio Palopó	9	San Antonio Palopo	2	Febrero	2023-02-15T00:00:00	2024-11-08T21:00:00	1	Precipitación	0
154212	7	Sololá	712	San Antonio Palopó	9	San Antonio Palopo	2	Febrero	2023-02-15T00:00:00	2024-11-08T21:00:00	8	Radiación solar	0
154213	7	Sololá	712	San Antonio Palopó	9	San Antonio Palopo	2	Febrero	2023-02-15T00:00:00	2024-11-08T22:00:00	2	Temperatura media	17.4
154214	7	Sololá	712	San Antonio Palopó	9	San Antonio Palopo	2	Febrero	2023-02-15T00:00:00	2024-11-08T22:00:00	4	Temperatura máxima	17.9
154215	7	Sololá	712	San Antonio Palopó	9	San Antonio Palopo	2	Febrero	2023-02-15T00:00:00	2024-11-08T22:00:00	3	Temperatura mínima	17.4
154216	7	Sololá	712	San Antonio Palopó	9	San Antonio Palopo	2	Febrero	2023-02-15T00:00:00	2024-11-08T22:00:00	5	Humedad	82
154217	7	Sololá	712	San Antonio Palopó	9	San Antonio Palopo	2	Febrero	2023-02-15T00:00:00	2024-11-08T22:00:00	6	Velocidad del viento	1.6
154218	7	Sololá	712	San Antonio Palopó	9	San Antonio Palopo	2	Febrero	2023-02-15T00:00:00	2024-11-08T22:00:00	7	Dirección del viento	1.61
154219	7	Sololá	712	San Antonio Palopó	9	San Antonio Palopo	2	Febrero	2023-02-15T00:00:00	2024-11-08T22:00:00	1	Precipitación	0
154220	7	Sololá	712	San Antonio Palopó	9	San Antonio Palopo	2	Febrero	2023-02-15T00:00:00	2024-11-08T22:00:00	8	Radiación solar	0
154221	7	Sololá	712	San Antonio Palopó	9	San Antonio Palopo	2	Febrero	2023-02-15T00:00:00	2024-11-08T23:00:00	2	Temperatura media	16.8
154222	7	Sololá	712	San Antonio Palopó	9	San Antonio Palopo	2	Febrero	2023-02-15T00:00:00	2024-11-08T23:00:00	4	Temperatura máxima	17.5
154223	7	Sololá	712	San Antonio Palopó	9	San Antonio Palopo	2	Febrero	2023-02-15T00:00:00	2024-11-08T23:00:00	3	Temperatura mínima	16.8
154224	7	Sololá	712	San Antonio Palopó	9	San Antonio Palopo	2	Febrero	2023-02-15T00:00:00	2024-11-08T23:00:00	5	Humedad	86
154225	7	Sololá	712	San Antonio Palopó	9	San Antonio Palopo	2	Febrero	2023-02-15T00:00:00	2024-11-08T23:00:00	6	Velocidad del viento	1.6
154226	7	Sololá	712	San Antonio Palopó	9	San Antonio Palopo	2	Febrero	2023-02-15T00:00:00	2024-11-08T23:00:00	7	Dirección del viento	1.61
154227	7	Sololá	712	San Antonio Palopó	9	San Antonio Palopo	2	Febrero	2023-02-15T00:00:00	2024-11-08T23:00:00	1	Precipitación	0
154228	7	Sololá	712	San Antonio Palopó	9	San Antonio Palopo	2	Febrero	2023-02-15T00:00:00	2024-11-08T23:00:00	8	Radiación solar	0
154229	7	Sololá	712	San Antonio Palopó	9	San Antonio Palopo	2	Febrero	2023-02-16T00:00:00	2024-11-08T00:00:00	2	Temperatura media	16.8
154230	7	Sololá	712	San Antonio Palopó	9	San Antonio Palopo	2	Febrero	2023-02-16T00:00:00	2024-11-08T00:00:00	4	Temperatura máxima	16.9
154231	7	Sololá	712	San Antonio Palopó	9	San Antonio Palopo	2	Febrero	2023-02-16T00:00:00	2024-11-08T00:00:00	3	Temperatura mínima	16.7
154232	7	Sololá	712	San Antonio Palopó	9	San Antonio Palopo	2	Febrero	2023-02-16T00:00:00	2024-11-08T00:00:00	5	Humedad	92
154233	7	Sololá	712	San Antonio Palopó	9	San Antonio Palopo	2	Febrero	2023-02-16T00:00:00	2024-11-08T00:00:00	6	Velocidad del viento	4.8
154234	7	Sololá	712	San Antonio Palopó	9	San Antonio Palopo	2	Febrero	2023-02-16T00:00:00	2024-11-08T00:00:00	7	Dirección del viento	4.83
154235	7	Sololá	712	San Antonio Palopó	9	San Antonio Palopo	2	Febrero	2023-02-16T00:00:00	2024-11-08T00:00:00	1	Precipitación	0
154236	7	Sololá	712	San Antonio Palopó	9	San Antonio Palopo	2	Febrero	2023-02-16T00:00:00	2024-11-08T00:00:00	8	Radiación solar	0
154237	7	Sololá	712	San Antonio Palopó	9	San Antonio Palopo	2	Febrero	2023-02-16T00:00:00	2024-11-08T01:00:00	2	Temperatura media	16.3
154238	7	Sololá	712	San Antonio Palopó	9	San Antonio Palopo	2	Febrero	2023-02-16T00:00:00	2024-11-08T01:00:00	4	Temperatura máxima	16.9
154239	7	Sololá	712	San Antonio Palopó	9	San Antonio Palopo	2	Febrero	2023-02-16T00:00:00	2024-11-08T01:00:00	3	Temperatura mínima	16.3
154240	7	Sololá	712	San Antonio Palopó	9	San Antonio Palopo	2	Febrero	2023-02-16T00:00:00	2024-11-08T01:00:00	5	Humedad	86
154241	7	Sololá	712	San Antonio Palopó	9	San Antonio Palopo	2	Febrero	2023-02-16T00:00:00	2024-11-08T01:00:00	6	Velocidad del viento	4.8
154242	7	Sololá	712	San Antonio Palopó	9	San Antonio Palopo	2	Febrero	2023-02-16T00:00:00	2024-11-08T01:00:00	7	Dirección del viento	4.83
154243	7	Sololá	712	San Antonio Palopó	9	San Antonio Palopo	2	Febrero	2023-02-16T00:00:00	2024-11-08T01:00:00	1	Precipitación	0
154244	7	Sololá	712	San Antonio Palopó	9	San Antonio Palopo	2	Febrero	2023-02-16T00:00:00	2024-11-08T01:00:00	8	Radiación solar	0
154245	7	Sololá	712	San Antonio Palopó	9	San Antonio Palopo	2	Febrero	2023-02-16T00:00:00	2024-11-08T02:00:00	2	Temperatura media	15.6
154246	7	Sololá	712	San Antonio Palopó	9	San Antonio Palopo	2	Febrero	2023-02-16T00:00:00	2024-11-08T02:00:00	4	Temperatura máxima	16.3
154247	7	Sololá	712	San Antonio Palopó	9	San Antonio Palopo	2	Febrero	2023-02-16T00:00:00	2024-11-08T02:00:00	3	Temperatura mínima	15.6
154248	7	Sololá	712	San Antonio Palopó	9	San Antonio Palopo	2	Febrero	2023-02-16T00:00:00	2024-11-08T02:00:00	5	Humedad	83
154249	7	Sololá	712	San Antonio Palopó	9	San Antonio Palopo	2	Febrero	2023-02-16T00:00:00	2024-11-08T02:00:00	6	Velocidad del viento	3.2
154250	7	Sololá	712	San Antonio Palopó	9	San Antonio Palopo	2	Febrero	2023-02-16T00:00:00	2024-11-08T02:00:00	7	Dirección del viento	3.22
154251	7	Sololá	712	San Antonio Palopó	9	San Antonio Palopo	2	Febrero	2023-02-16T00:00:00	2024-11-08T02:00:00	1	Precipitación	0
154252	7	Sololá	712	San Antonio Palopó	9	San Antonio Palopo	2	Febrero	2023-02-16T00:00:00	2024-11-08T02:00:00	8	Radiación solar	0
154253	7	Sololá	712	San Antonio Palopó	9	San Antonio Palopo	2	Febrero	2023-02-16T00:00:00	2024-11-08T03:00:00	2	Temperatura media	16.2
154254	7	Sololá	712	San Antonio Palopó	9	San Antonio Palopo	2	Febrero	2023-02-16T00:00:00	2024-11-08T03:00:00	4	Temperatura máxima	16.3
154255	7	Sololá	712	San Antonio Palopó	9	San Antonio Palopo	2	Febrero	2023-02-16T00:00:00	2024-11-08T03:00:00	3	Temperatura mínima	15.6
154256	7	Sololá	712	San Antonio Palopó	9	San Antonio Palopo	2	Febrero	2023-02-16T00:00:00	2024-11-08T03:00:00	5	Humedad	78
154257	7	Sololá	712	San Antonio Palopó	9	San Antonio Palopo	2	Febrero	2023-02-16T00:00:00	2024-11-08T03:00:00	6	Velocidad del viento	4.8
154258	7	Sololá	712	San Antonio Palopó	9	San Antonio Palopo	2	Febrero	2023-02-16T00:00:00	2024-11-08T03:00:00	7	Dirección del viento	4.83
154259	7	Sololá	712	San Antonio Palopó	9	San Antonio Palopo	2	Febrero	2023-02-16T00:00:00	2024-11-08T03:00:00	1	Precipitación	0
154260	7	Sololá	712	San Antonio Palopó	9	San Antonio Palopo	2	Febrero	2023-02-16T00:00:00	2024-11-08T03:00:00	8	Radiación solar	0
154261	7	Sololá	712	San Antonio Palopó	9	San Antonio Palopo	2	Febrero	2023-02-16T00:00:00	2024-11-08T04:00:00	2	Temperatura media	15.8
154262	7	Sololá	712	San Antonio Palopó	9	San Antonio Palopo	2	Febrero	2023-02-16T00:00:00	2024-11-08T04:00:00	4	Temperatura máxima	16.2
154263	7	Sololá	712	San Antonio Palopó	9	San Antonio Palopo	2	Febrero	2023-02-16T00:00:00	2024-11-08T04:00:00	3	Temperatura mínima	15.7
154264	7	Sololá	712	San Antonio Palopó	9	San Antonio Palopo	2	Febrero	2023-02-16T00:00:00	2024-11-08T04:00:00	5	Humedad	77
154265	7	Sololá	712	San Antonio Palopó	9	San Antonio Palopo	2	Febrero	2023-02-16T00:00:00	2024-11-08T04:00:00	6	Velocidad del viento	4.8
154266	7	Sololá	712	San Antonio Palopó	9	San Antonio Palopo	2	Febrero	2023-02-16T00:00:00	2024-11-08T04:00:00	7	Dirección del viento	4.83
154267	7	Sololá	712	San Antonio Palopó	9	San Antonio Palopo	2	Febrero	2023-02-16T00:00:00	2024-11-08T04:00:00	1	Precipitación	0
154268	7	Sololá	712	San Antonio Palopó	9	San Antonio Palopo	2	Febrero	2023-02-16T00:00:00	2024-11-08T04:00:00	8	Radiación solar	0
154269	7	Sololá	712	San Antonio Palopó	9	San Antonio Palopo	2	Febrero	2023-02-16T00:00:00	2024-11-08T05:00:00	2	Temperatura media	15.8
154270	7	Sololá	712	San Antonio Palopó	9	San Antonio Palopo	2	Febrero	2023-02-16T00:00:00	2024-11-08T05:00:00	4	Temperatura máxima	15.8
154271	7	Sololá	712	San Antonio Palopó	9	San Antonio Palopo	2	Febrero	2023-02-16T00:00:00	2024-11-08T05:00:00	3	Temperatura mínima	15.7
154272	7	Sololá	712	San Antonio Palopó	9	San Antonio Palopo	2	Febrero	2023-02-16T00:00:00	2024-11-08T05:00:00	5	Humedad	78
154273	7	Sololá	712	San Antonio Palopó	9	San Antonio Palopo	2	Febrero	2023-02-16T00:00:00	2024-11-08T05:00:00	6	Velocidad del viento	3.2
154274	7	Sololá	712	San Antonio Palopó	9	San Antonio Palopo	2	Febrero	2023-02-16T00:00:00	2024-11-08T05:00:00	7	Dirección del viento	3.22
154275	7	Sololá	712	San Antonio Palopó	9	San Antonio Palopo	2	Febrero	2023-02-16T00:00:00	2024-11-08T05:00:00	1	Precipitación	0
154276	7	Sololá	712	San Antonio Palopó	9	San Antonio Palopo	2	Febrero	2023-02-16T00:00:00	2024-11-08T05:00:00	8	Radiación solar	0
154277	7	Sololá	712	San Antonio Palopó	9	San Antonio Palopo	2	Febrero	2023-02-16T00:00:00	2024-11-08T06:00:00	2	Temperatura media	15.4
154278	7	Sololá	712	San Antonio Palopó	9	San Antonio Palopo	2	Febrero	2023-02-16T00:00:00	2024-11-08T06:00:00	4	Temperatura máxima	15.8
154279	7	Sololá	712	San Antonio Palopó	9	San Antonio Palopo	2	Febrero	2023-02-16T00:00:00	2024-11-08T06:00:00	3	Temperatura mínima	15.2
154280	7	Sololá	712	San Antonio Palopó	9	San Antonio Palopo	2	Febrero	2023-02-16T00:00:00	2024-11-08T06:00:00	5	Humedad	78
154281	7	Sololá	712	San Antonio Palopó	9	San Antonio Palopo	2	Febrero	2023-02-16T00:00:00	2024-11-08T06:00:00	6	Velocidad del viento	3.2
154282	7	Sololá	712	San Antonio Palopó	9	San Antonio Palopo	2	Febrero	2023-02-16T00:00:00	2024-11-08T06:00:00	7	Dirección del viento	3.22
154283	7	Sololá	712	San Antonio Palopó	9	San Antonio Palopo	2	Febrero	2023-02-16T00:00:00	2024-11-08T06:00:00	1	Precipitación	0
154284	7	Sololá	712	San Antonio Palopó	9	San Antonio Palopo	2	Febrero	2023-02-16T00:00:00	2024-11-08T06:00:00	8	Radiación solar	0
154285	7	Sololá	712	San Antonio Palopó	9	San Antonio Palopo	2	Febrero	2023-02-16T00:00:00	2024-11-08T07:00:00	2	Temperatura media	15.2
154286	7	Sololá	712	San Antonio Palopó	9	San Antonio Palopo	2	Febrero	2023-02-16T00:00:00	2024-11-08T07:00:00	4	Temperatura máxima	15.5
154287	7	Sololá	712	San Antonio Palopó	9	San Antonio Palopo	2	Febrero	2023-02-16T00:00:00	2024-11-08T07:00:00	3	Temperatura mínima	15.1
154288	7	Sololá	712	San Antonio Palopó	9	San Antonio Palopo	2	Febrero	2023-02-16T00:00:00	2024-11-08T07:00:00	5	Humedad	79
154289	7	Sololá	712	San Antonio Palopó	9	San Antonio Palopo	2	Febrero	2023-02-16T00:00:00	2024-11-08T07:00:00	6	Velocidad del viento	1.6
154290	7	Sololá	712	San Antonio Palopó	9	San Antonio Palopo	2	Febrero	2023-02-16T00:00:00	2024-11-08T07:00:00	7	Dirección del viento	1.61
154291	7	Sololá	712	San Antonio Palopó	9	San Antonio Palopo	2	Febrero	2023-02-16T00:00:00	2024-11-08T07:00:00	1	Precipitación	0
154292	7	Sololá	712	San Antonio Palopó	9	San Antonio Palopo	2	Febrero	2023-02-16T00:00:00	2024-11-08T07:00:00	8	Radiación solar	8
154293	7	Sololá	712	San Antonio Palopó	9	San Antonio Palopo	2	Febrero	2023-02-16T00:00:00	2024-11-08T08:00:00	2	Temperatura media	14.8
154294	7	Sololá	712	San Antonio Palopó	9	San Antonio Palopo	2	Febrero	2023-02-16T00:00:00	2024-11-08T08:00:00	4	Temperatura máxima	15.3
154295	7	Sololá	712	San Antonio Palopó	9	San Antonio Palopo	2	Febrero	2023-02-16T00:00:00	2024-11-08T08:00:00	3	Temperatura mínima	14.8
154296	7	Sololá	712	San Antonio Palopó	9	San Antonio Palopo	2	Febrero	2023-02-16T00:00:00	2024-11-08T08:00:00	5	Humedad	79
154297	7	Sololá	712	San Antonio Palopó	9	San Antonio Palopo	2	Febrero	2023-02-16T00:00:00	2024-11-08T08:00:00	6	Velocidad del viento	1.6
154298	7	Sololá	712	San Antonio Palopó	9	San Antonio Palopo	2	Febrero	2023-02-16T00:00:00	2024-11-08T08:00:00	7	Dirección del viento	1.61
154299	7	Sololá	712	San Antonio Palopó	9	San Antonio Palopo	2	Febrero	2023-02-16T00:00:00	2024-11-08T08:00:00	1	Precipitación	0
154300	7	Sololá	712	San Antonio Palopó	9	San Antonio Palopo	2	Febrero	2023-02-16T00:00:00	2024-11-08T08:00:00	8	Radiación solar	30
154301	7	Sololá	712	San Antonio Palopó	9	San Antonio Palopo	2	Febrero	2023-02-16T00:00:00	2024-11-08T09:00:00	2	Temperatura media	17.8
154302	7	Sololá	712	San Antonio Palopó	9	San Antonio Palopo	2	Febrero	2023-02-16T00:00:00	2024-11-08T09:00:00	4	Temperatura máxima	17.8
154303	7	Sololá	712	San Antonio Palopó	9	San Antonio Palopo	2	Febrero	2023-02-16T00:00:00	2024-11-08T09:00:00	3	Temperatura mínima	14.7
154304	7	Sololá	712	San Antonio Palopó	9	San Antonio Palopo	2	Febrero	2023-02-16T00:00:00	2024-11-08T09:00:00	5	Humedad	75
154305	7	Sololá	712	San Antonio Palopó	9	San Antonio Palopo	2	Febrero	2023-02-16T00:00:00	2024-11-08T09:00:00	6	Velocidad del viento	1.6
154306	7	Sololá	712	San Antonio Palopó	9	San Antonio Palopo	2	Febrero	2023-02-16T00:00:00	2024-11-08T09:00:00	7	Dirección del viento	1.61
154307	7	Sololá	712	San Antonio Palopó	9	San Antonio Palopo	2	Febrero	2023-02-16T00:00:00	2024-11-08T09:00:00	1	Precipitación	0
154308	7	Sololá	712	San Antonio Palopó	9	San Antonio Palopo	2	Febrero	2023-02-16T00:00:00	2024-11-08T09:00:00	8	Radiación solar	219
154309	7	Sololá	712	San Antonio Palopó	9	San Antonio Palopo	2	Febrero	2023-02-16T00:00:00	2024-11-08T10:00:00	2	Temperatura media	18.4
154310	7	Sololá	712	San Antonio Palopó	9	San Antonio Palopo	2	Febrero	2023-02-16T00:00:00	2024-11-08T10:00:00	4	Temperatura máxima	18.9
154311	7	Sololá	712	San Antonio Palopó	9	San Antonio Palopo	2	Febrero	2023-02-16T00:00:00	2024-11-08T10:00:00	3	Temperatura mínima	17.8
154312	7	Sololá	712	San Antonio Palopó	9	San Antonio Palopo	2	Febrero	2023-02-16T00:00:00	2024-11-08T10:00:00	5	Humedad	74
154313	7	Sololá	712	San Antonio Palopó	9	San Antonio Palopo	2	Febrero	2023-02-16T00:00:00	2024-11-08T10:00:00	6	Velocidad del viento	3.2
154314	7	Sololá	712	San Antonio Palopó	9	San Antonio Palopo	2	Febrero	2023-02-16T00:00:00	2024-11-08T10:00:00	7	Dirección del viento	3.22
154315	7	Sololá	712	San Antonio Palopó	9	San Antonio Palopo	2	Febrero	2023-02-16T00:00:00	2024-11-08T10:00:00	1	Precipitación	0
154316	7	Sololá	712	San Antonio Palopó	9	San Antonio Palopo	2	Febrero	2023-02-16T00:00:00	2024-11-08T10:00:00	8	Radiación solar	585
154317	7	Sololá	712	San Antonio Palopó	9	San Antonio Palopo	2	Febrero	2023-02-16T00:00:00	2024-11-08T11:00:00	2	Temperatura media	19.6
154318	7	Sololá	712	San Antonio Palopó	9	San Antonio Palopo	2	Febrero	2023-02-16T00:00:00	2024-11-08T11:00:00	4	Temperatura máxima	19.6
154319	7	Sololá	712	San Antonio Palopó	9	San Antonio Palopo	2	Febrero	2023-02-16T00:00:00	2024-11-08T11:00:00	3	Temperatura mínima	18.4
154320	7	Sololá	712	San Antonio Palopó	9	San Antonio Palopo	2	Febrero	2023-02-16T00:00:00	2024-11-08T11:00:00	5	Humedad	70
154321	7	Sololá	712	San Antonio Palopó	9	San Antonio Palopo	2	Febrero	2023-02-16T00:00:00	2024-11-08T11:00:00	6	Velocidad del viento	3.2
154322	7	Sololá	712	San Antonio Palopó	9	San Antonio Palopo	2	Febrero	2023-02-16T00:00:00	2024-11-08T11:00:00	7	Dirección del viento	3.22
154323	7	Sololá	712	San Antonio Palopó	9	San Antonio Palopo	2	Febrero	2023-02-16T00:00:00	2024-11-08T11:00:00	1	Precipitación	0
154324	7	Sololá	712	San Antonio Palopó	9	San Antonio Palopo	2	Febrero	2023-02-16T00:00:00	2024-11-08T11:00:00	8	Radiación solar	756
154325	7	Sololá	712	San Antonio Palopó	9	San Antonio Palopo	2	Febrero	2023-02-16T00:00:00	2024-11-08T12:00:00	2	Temperatura media	21.2
154326	7	Sololá	712	San Antonio Palopó	9	San Antonio Palopo	2	Febrero	2023-02-16T00:00:00	2024-11-08T12:00:00	4	Temperatura máxima	21.2
154327	7	Sololá	712	San Antonio Palopó	9	San Antonio Palopo	2	Febrero	2023-02-16T00:00:00	2024-11-08T12:00:00	3	Temperatura mínima	19.6
154328	7	Sololá	712	San Antonio Palopó	9	San Antonio Palopo	2	Febrero	2023-02-16T00:00:00	2024-11-08T12:00:00	5	Humedad	71
154329	7	Sololá	712	San Antonio Palopó	9	San Antonio Palopo	2	Febrero	2023-02-16T00:00:00	2024-11-08T12:00:00	6	Velocidad del viento	3.2
154330	7	Sololá	712	San Antonio Palopó	9	San Antonio Palopo	2	Febrero	2023-02-16T00:00:00	2024-11-08T12:00:00	7	Dirección del viento	3.22
154331	7	Sololá	712	San Antonio Palopó	9	San Antonio Palopo	2	Febrero	2023-02-16T00:00:00	2024-11-08T12:00:00	1	Precipitación	0
154332	7	Sololá	712	San Antonio Palopó	9	San Antonio Palopo	2	Febrero	2023-02-16T00:00:00	2024-11-08T12:00:00	8	Radiación solar	767
154333	7	Sololá	712	San Antonio Palopó	9	San Antonio Palopo	2	Febrero	2023-02-16T00:00:00	2024-11-08T13:00:00	2	Temperatura media	21.4
154334	7	Sololá	712	San Antonio Palopó	9	San Antonio Palopo	2	Febrero	2023-02-16T00:00:00	2024-11-08T13:00:00	4	Temperatura máxima	21.6
154335	7	Sololá	712	San Antonio Palopó	9	San Antonio Palopo	2	Febrero	2023-02-16T00:00:00	2024-11-08T13:00:00	3	Temperatura mínima	20.7
154336	7	Sololá	712	San Antonio Palopó	9	San Antonio Palopo	2	Febrero	2023-02-16T00:00:00	2024-11-08T13:00:00	5	Humedad	71
154337	7	Sololá	712	San Antonio Palopó	9	San Antonio Palopo	2	Febrero	2023-02-16T00:00:00	2024-11-08T13:00:00	6	Velocidad del viento	8
154338	7	Sololá	712	San Antonio Palopó	9	San Antonio Palopo	2	Febrero	2023-02-16T00:00:00	2024-11-08T13:00:00	7	Dirección del viento	8.05
154339	7	Sololá	712	San Antonio Palopó	9	San Antonio Palopo	2	Febrero	2023-02-16T00:00:00	2024-11-08T13:00:00	1	Precipitación	0
154340	7	Sololá	712	San Antonio Palopó	9	San Antonio Palopo	2	Febrero	2023-02-16T00:00:00	2024-11-08T13:00:00	8	Radiación solar	845
154341	7	Sololá	712	San Antonio Palopó	9	San Antonio Palopo	2	Febrero	2023-02-16T00:00:00	2024-11-08T14:00:00	2	Temperatura media	21.3
154342	7	Sololá	712	San Antonio Palopó	9	San Antonio Palopo	2	Febrero	2023-02-16T00:00:00	2024-11-08T14:00:00	4	Temperatura máxima	21.4
154343	7	Sololá	712	San Antonio Palopó	9	San Antonio Palopo	2	Febrero	2023-02-16T00:00:00	2024-11-08T14:00:00	3	Temperatura mínima	20.9
154344	7	Sololá	712	San Antonio Palopó	9	San Antonio Palopo	2	Febrero	2023-02-16T00:00:00	2024-11-08T14:00:00	5	Humedad	73
154345	7	Sololá	712	San Antonio Palopó	9	San Antonio Palopo	2	Febrero	2023-02-16T00:00:00	2024-11-08T14:00:00	6	Velocidad del viento	9.7
154346	7	Sololá	712	San Antonio Palopó	9	San Antonio Palopo	2	Febrero	2023-02-16T00:00:00	2024-11-08T14:00:00	7	Dirección del viento	9.66
154347	7	Sololá	712	San Antonio Palopó	9	San Antonio Palopo	2	Febrero	2023-02-16T00:00:00	2024-11-08T14:00:00	1	Precipitación	0
154348	7	Sololá	712	San Antonio Palopó	9	San Antonio Palopo	2	Febrero	2023-02-16T00:00:00	2024-11-08T14:00:00	8	Radiación solar	817
154349	7	Sololá	712	San Antonio Palopó	9	San Antonio Palopo	2	Febrero	2023-02-16T00:00:00	2024-11-08T15:00:00	2	Temperatura media	22.1
154350	7	Sololá	712	San Antonio Palopó	9	San Antonio Palopo	2	Febrero	2023-02-16T00:00:00	2024-11-08T15:00:00	4	Temperatura máxima	22.1
154351	7	Sololá	712	San Antonio Palopó	9	San Antonio Palopo	2	Febrero	2023-02-16T00:00:00	2024-11-08T15:00:00	3	Temperatura mínima	21.3
154352	7	Sololá	712	San Antonio Palopó	9	San Antonio Palopo	2	Febrero	2023-02-16T00:00:00	2024-11-08T15:00:00	5	Humedad	71
154353	7	Sololá	712	San Antonio Palopó	9	San Antonio Palopo	2	Febrero	2023-02-16T00:00:00	2024-11-08T15:00:00	6	Velocidad del viento	6.4
154354	7	Sololá	712	San Antonio Palopó	9	San Antonio Palopo	2	Febrero	2023-02-16T00:00:00	2024-11-08T15:00:00	7	Dirección del viento	6.44
154355	7	Sololá	712	San Antonio Palopó	9	San Antonio Palopo	2	Febrero	2023-02-16T00:00:00	2024-11-08T15:00:00	1	Precipitación	0
154356	7	Sololá	712	San Antonio Palopó	9	San Antonio Palopo	2	Febrero	2023-02-16T00:00:00	2024-11-08T15:00:00	8	Radiación solar	671
154357	7	Sololá	712	San Antonio Palopó	9	San Antonio Palopo	2	Febrero	2023-02-16T00:00:00	2024-11-08T16:00:00	2	Temperatura media	21.1
154358	7	Sololá	712	San Antonio Palopó	9	San Antonio Palopo	2	Febrero	2023-02-16T00:00:00	2024-11-08T16:00:00	4	Temperatura máxima	22.2
154359	7	Sololá	712	San Antonio Palopó	9	San Antonio Palopo	2	Febrero	2023-02-16T00:00:00	2024-11-08T16:00:00	3	Temperatura mínima	21.1
154360	7	Sololá	712	San Antonio Palopó	9	San Antonio Palopo	2	Febrero	2023-02-16T00:00:00	2024-11-08T16:00:00	5	Humedad	73
154361	7	Sololá	712	San Antonio Palopó	9	San Antonio Palopo	2	Febrero	2023-02-16T00:00:00	2024-11-08T16:00:00	6	Velocidad del viento	6.4
154362	7	Sololá	712	San Antonio Palopó	9	San Antonio Palopo	2	Febrero	2023-02-16T00:00:00	2024-11-08T16:00:00	7	Dirección del viento	6.44
154363	7	Sololá	712	San Antonio Palopó	9	San Antonio Palopo	2	Febrero	2023-02-16T00:00:00	2024-11-08T16:00:00	1	Precipitación	0
154364	7	Sololá	712	San Antonio Palopó	9	San Antonio Palopo	2	Febrero	2023-02-16T00:00:00	2024-11-08T16:00:00	8	Radiación solar	472
154365	7	Sololá	712	San Antonio Palopó	9	San Antonio Palopo	2	Febrero	2023-02-16T00:00:00	2024-11-08T17:00:00	2	Temperatura media	19.7
154366	7	Sololá	712	San Antonio Palopó	9	San Antonio Palopo	2	Febrero	2023-02-16T00:00:00	2024-11-08T17:00:00	4	Temperatura máxima	21.1
154367	7	Sololá	712	San Antonio Palopó	9	San Antonio Palopo	2	Febrero	2023-02-16T00:00:00	2024-11-08T17:00:00	3	Temperatura mínima	19.7
154368	7	Sololá	712	San Antonio Palopó	9	San Antonio Palopo	2	Febrero	2023-02-16T00:00:00	2024-11-08T17:00:00	5	Humedad	78
154369	7	Sololá	712	San Antonio Palopó	9	San Antonio Palopo	2	Febrero	2023-02-16T00:00:00	2024-11-08T17:00:00	6	Velocidad del viento	4.8
154370	7	Sololá	712	San Antonio Palopó	9	San Antonio Palopo	2	Febrero	2023-02-16T00:00:00	2024-11-08T17:00:00	7	Dirección del viento	4.83
154371	7	Sololá	712	San Antonio Palopó	9	San Antonio Palopo	2	Febrero	2023-02-16T00:00:00	2024-11-08T17:00:00	1	Precipitación	0
154372	7	Sololá	712	San Antonio Palopó	9	San Antonio Palopo	2	Febrero	2023-02-16T00:00:00	2024-11-08T17:00:00	8	Radiación solar	153
154373	7	Sololá	712	San Antonio Palopó	9	San Antonio Palopo	2	Febrero	2023-02-16T00:00:00	2024-11-08T18:00:00	2	Temperatura media	19.3
154374	7	Sololá	712	San Antonio Palopó	9	San Antonio Palopo	2	Febrero	2023-02-16T00:00:00	2024-11-08T18:00:00	4	Temperatura máxima	19.7
154375	7	Sololá	712	San Antonio Palopó	9	San Antonio Palopo	2	Febrero	2023-02-16T00:00:00	2024-11-08T18:00:00	3	Temperatura mínima	19.3
154376	7	Sololá	712	San Antonio Palopó	9	San Antonio Palopo	2	Febrero	2023-02-16T00:00:00	2024-11-08T18:00:00	5	Humedad	81
154377	7	Sololá	712	San Antonio Palopó	9	San Antonio Palopo	2	Febrero	2023-02-16T00:00:00	2024-11-08T18:00:00	6	Velocidad del viento	3.2
154378	7	Sololá	712	San Antonio Palopó	9	San Antonio Palopo	2	Febrero	2023-02-16T00:00:00	2024-11-08T18:00:00	7	Dirección del viento	3.22
154379	7	Sololá	712	San Antonio Palopó	9	San Antonio Palopo	2	Febrero	2023-02-16T00:00:00	2024-11-08T18:00:00	1	Precipitación	0
154380	7	Sololá	712	San Antonio Palopó	9	San Antonio Palopo	2	Febrero	2023-02-16T00:00:00	2024-11-08T18:00:00	8	Radiación solar	28
154381	7	Sololá	712	San Antonio Palopó	9	San Antonio Palopo	2	Febrero	2023-02-16T00:00:00	2024-11-08T19:00:00	2	Temperatura media	18.8
154382	7	Sololá	712	San Antonio Palopó	9	San Antonio Palopo	2	Febrero	2023-02-16T00:00:00	2024-11-08T19:00:00	4	Temperatura máxima	19.4
154383	7	Sololá	712	San Antonio Palopó	9	San Antonio Palopo	2	Febrero	2023-02-16T00:00:00	2024-11-08T19:00:00	3	Temperatura mínima	18.8
154384	7	Sololá	712	San Antonio Palopó	9	San Antonio Palopo	2	Febrero	2023-02-16T00:00:00	2024-11-08T19:00:00	5	Humedad	83
154385	7	Sololá	712	San Antonio Palopó	9	San Antonio Palopo	2	Febrero	2023-02-16T00:00:00	2024-11-08T19:00:00	6	Velocidad del viento	3.2
154386	7	Sololá	712	San Antonio Palopó	9	San Antonio Palopo	2	Febrero	2023-02-16T00:00:00	2024-11-08T19:00:00	7	Dirección del viento	3.22
154387	7	Sololá	712	San Antonio Palopó	9	San Antonio Palopo	2	Febrero	2023-02-16T00:00:00	2024-11-08T19:00:00	1	Precipitación	0
154388	7	Sololá	712	San Antonio Palopó	9	San Antonio Palopo	2	Febrero	2023-02-16T00:00:00	2024-11-08T19:00:00	8	Radiación solar	0
154389	7	Sololá	712	San Antonio Palopó	9	San Antonio Palopo	2	Febrero	2023-02-16T00:00:00	2024-11-08T20:00:00	2	Temperatura media	18.4
154390	7	Sololá	712	San Antonio Palopó	9	San Antonio Palopo	2	Febrero	2023-02-16T00:00:00	2024-11-08T20:00:00	4	Temperatura máxima	18.8
154391	7	Sololá	712	San Antonio Palopó	9	San Antonio Palopo	2	Febrero	2023-02-16T00:00:00	2024-11-08T20:00:00	3	Temperatura mínima	18.4
154392	7	Sololá	712	San Antonio Palopó	9	San Antonio Palopo	2	Febrero	2023-02-16T00:00:00	2024-11-08T20:00:00	5	Humedad	81
154393	7	Sololá	712	San Antonio Palopó	9	San Antonio Palopo	2	Febrero	2023-02-16T00:00:00	2024-11-08T20:00:00	6	Velocidad del viento	3.2
154394	7	Sololá	712	San Antonio Palopó	9	San Antonio Palopo	2	Febrero	2023-02-16T00:00:00	2024-11-08T20:00:00	7	Dirección del viento	3.22
154395	7	Sololá	712	San Antonio Palopó	9	San Antonio Palopo	2	Febrero	2023-02-16T00:00:00	2024-11-08T20:00:00	1	Precipitación	0
154396	7	Sololá	712	San Antonio Palopó	9	San Antonio Palopo	2	Febrero	2023-02-16T00:00:00	2024-11-08T20:00:00	8	Radiación solar	0
154397	7	Sololá	712	San Antonio Palopó	9	San Antonio Palopo	2	Febrero	2023-02-16T00:00:00	2024-11-08T21:00:00	2	Temperatura media	17.3
154398	7	Sololá	712	San Antonio Palopó	9	San Antonio Palopo	2	Febrero	2023-02-16T00:00:00	2024-11-08T21:00:00	4	Temperatura máxima	18.4
154399	7	Sololá	712	San Antonio Palopó	9	San Antonio Palopo	2	Febrero	2023-02-16T00:00:00	2024-11-08T21:00:00	3	Temperatura mínima	17.3
154400	7	Sololá	712	San Antonio Palopó	9	San Antonio Palopo	2	Febrero	2023-02-16T00:00:00	2024-11-08T21:00:00	5	Humedad	81
154401	7	Sololá	712	San Antonio Palopó	9	San Antonio Palopo	2	Febrero	2023-02-16T00:00:00	2024-11-08T21:00:00	6	Velocidad del viento	3.2
154402	7	Sololá	712	San Antonio Palopó	9	San Antonio Palopo	2	Febrero	2023-02-16T00:00:00	2024-11-08T21:00:00	7	Dirección del viento	3.22
154403	7	Sololá	712	San Antonio Palopó	9	San Antonio Palopo	2	Febrero	2023-02-16T00:00:00	2024-11-08T21:00:00	1	Precipitación	0
154404	7	Sololá	712	San Antonio Palopó	9	San Antonio Palopo	2	Febrero	2023-02-16T00:00:00	2024-11-08T21:00:00	8	Radiación solar	0
154405	7	Sololá	712	San Antonio Palopó	9	San Antonio Palopo	2	Febrero	2023-02-16T00:00:00	2024-11-08T22:00:00	2	Temperatura media	16.8
154406	7	Sololá	712	San Antonio Palopó	9	San Antonio Palopo	2	Febrero	2023-02-16T00:00:00	2024-11-08T22:00:00	4	Temperatura máxima	17.4
154407	7	Sololá	712	San Antonio Palopó	9	San Antonio Palopo	2	Febrero	2023-02-16T00:00:00	2024-11-08T22:00:00	3	Temperatura mínima	16.8
154408	7	Sololá	712	San Antonio Palopó	9	San Antonio Palopo	2	Febrero	2023-02-16T00:00:00	2024-11-08T22:00:00	5	Humedad	82
154409	7	Sololá	712	San Antonio Palopó	9	San Antonio Palopo	2	Febrero	2023-02-16T00:00:00	2024-11-08T22:00:00	6	Velocidad del viento	1.6
154410	7	Sololá	712	San Antonio Palopó	9	San Antonio Palopo	2	Febrero	2023-02-16T00:00:00	2024-11-08T22:00:00	7	Dirección del viento	1.61
154411	7	Sololá	712	San Antonio Palopó	9	San Antonio Palopo	2	Febrero	2023-02-16T00:00:00	2024-11-08T22:00:00	1	Precipitación	0
154412	7	Sololá	712	San Antonio Palopó	9	San Antonio Palopo	2	Febrero	2023-02-16T00:00:00	2024-11-08T22:00:00	8	Radiación solar	0
154413	7	Sololá	712	San Antonio Palopó	9	San Antonio Palopo	2	Febrero	2023-02-16T00:00:00	2024-11-08T23:00:00	2	Temperatura media	16.4
154414	7	Sololá	712	San Antonio Palopó	9	San Antonio Palopo	2	Febrero	2023-02-16T00:00:00	2024-11-08T23:00:00	4	Temperatura máxima	16.8
154415	7	Sololá	712	San Antonio Palopó	9	San Antonio Palopo	2	Febrero	2023-02-16T00:00:00	2024-11-08T23:00:00	3	Temperatura mínima	16.2
154416	7	Sololá	712	San Antonio Palopó	9	San Antonio Palopo	2	Febrero	2023-02-16T00:00:00	2024-11-08T23:00:00	5	Humedad	86
154417	7	Sololá	712	San Antonio Palopó	9	San Antonio Palopo	2	Febrero	2023-02-16T00:00:00	2024-11-08T23:00:00	6	Velocidad del viento	3.2
154418	7	Sololá	712	San Antonio Palopó	9	San Antonio Palopo	2	Febrero	2023-02-16T00:00:00	2024-11-08T23:00:00	7	Dirección del viento	3.22
154419	7	Sololá	712	San Antonio Palopó	9	San Antonio Palopo	2	Febrero	2023-02-16T00:00:00	2024-11-08T23:00:00	1	Precipitación	0
154420	7	Sololá	712	San Antonio Palopó	9	San Antonio Palopo	2	Febrero	2023-02-16T00:00:00	2024-11-08T23:00:00	8	Radiación solar	0
154421	7	Sololá	712	San Antonio Palopó	9	San Antonio Palopo	2	Febrero	2023-02-17T00:00:00	2024-11-08T00:00:00	2	Temperatura media	15.8
154422	7	Sololá	712	San Antonio Palopó	9	San Antonio Palopo	2	Febrero	2023-02-17T00:00:00	2024-11-08T00:00:00	4	Temperatura máxima	16.7
154423	7	Sololá	712	San Antonio Palopó	9	San Antonio Palopo	2	Febrero	2023-02-17T00:00:00	2024-11-08T00:00:00	3	Temperatura mínima	15.8
154424	7	Sololá	712	San Antonio Palopó	9	San Antonio Palopo	2	Febrero	2023-02-17T00:00:00	2024-11-08T00:00:00	5	Humedad	88
154425	7	Sololá	712	San Antonio Palopó	9	San Antonio Palopo	2	Febrero	2023-02-17T00:00:00	2024-11-08T00:00:00	6	Velocidad del viento	3.2
154426	7	Sololá	712	San Antonio Palopó	9	San Antonio Palopo	2	Febrero	2023-02-17T00:00:00	2024-11-08T00:00:00	7	Dirección del viento	3.22
154427	7	Sololá	712	San Antonio Palopó	9	San Antonio Palopo	2	Febrero	2023-02-17T00:00:00	2024-11-08T00:00:00	1	Precipitación	0
154428	7	Sololá	712	San Antonio Palopó	9	San Antonio Palopo	2	Febrero	2023-02-17T00:00:00	2024-11-08T00:00:00	8	Radiación solar	0
154429	7	Sololá	712	San Antonio Palopó	9	San Antonio Palopo	2	Febrero	2023-02-17T00:00:00	2024-11-08T01:00:00	2	Temperatura media	15.9
154430	7	Sololá	712	San Antonio Palopó	9	San Antonio Palopo	2	Febrero	2023-02-17T00:00:00	2024-11-08T01:00:00	4	Temperatura máxima	15.9
154431	7	Sololá	712	San Antonio Palopó	9	San Antonio Palopo	2	Febrero	2023-02-17T00:00:00	2024-11-08T01:00:00	3	Temperatura mínima	15.5
154432	7	Sololá	712	San Antonio Palopó	9	San Antonio Palopo	2	Febrero	2023-02-17T00:00:00	2024-11-08T01:00:00	5	Humedad	90
154433	7	Sololá	712	San Antonio Palopó	9	San Antonio Palopo	2	Febrero	2023-02-17T00:00:00	2024-11-08T01:00:00	6	Velocidad del viento	3.2
154434	7	Sololá	712	San Antonio Palopó	9	San Antonio Palopo	2	Febrero	2023-02-17T00:00:00	2024-11-08T01:00:00	7	Dirección del viento	3.22
154435	7	Sololá	712	San Antonio Palopó	9	San Antonio Palopo	2	Febrero	2023-02-17T00:00:00	2024-11-08T01:00:00	1	Precipitación	0
154436	7	Sololá	712	San Antonio Palopó	9	San Antonio Palopo	2	Febrero	2023-02-17T00:00:00	2024-11-08T01:00:00	8	Radiación solar	0
154437	7	Sololá	712	San Antonio Palopó	9	San Antonio Palopo	2	Febrero	2023-02-17T00:00:00	2024-11-08T02:00:00	2	Temperatura media	15.5
154438	7	Sololá	712	San Antonio Palopó	9	San Antonio Palopo	2	Febrero	2023-02-17T00:00:00	2024-11-08T02:00:00	4	Temperatura máxima	16.2
154439	7	Sololá	712	San Antonio Palopó	9	San Antonio Palopo	2	Febrero	2023-02-17T00:00:00	2024-11-08T02:00:00	3	Temperatura mínima	15.4
154440	7	Sololá	712	San Antonio Palopó	9	San Antonio Palopo	2	Febrero	2023-02-17T00:00:00	2024-11-08T02:00:00	5	Humedad	88
154441	7	Sololá	712	San Antonio Palopó	9	San Antonio Palopo	2	Febrero	2023-02-17T00:00:00	2024-11-08T02:00:00	6	Velocidad del viento	3.2
154442	7	Sololá	712	San Antonio Palopó	9	San Antonio Palopo	2	Febrero	2023-02-17T00:00:00	2024-11-08T02:00:00	7	Dirección del viento	3.22
154443	7	Sololá	712	San Antonio Palopó	9	San Antonio Palopo	2	Febrero	2023-02-17T00:00:00	2024-11-08T02:00:00	1	Precipitación	0
154444	7	Sololá	712	San Antonio Palopó	9	San Antonio Palopo	2	Febrero	2023-02-17T00:00:00	2024-11-08T02:00:00	8	Radiación solar	0
154445	7	Sololá	712	San Antonio Palopó	9	San Antonio Palopo	2	Febrero	2023-02-17T00:00:00	2024-11-08T03:00:00	2	Temperatura media	15.1
154446	7	Sololá	712	San Antonio Palopó	9	San Antonio Palopo	2	Febrero	2023-02-17T00:00:00	2024-11-08T03:00:00	4	Temperatura máxima	15.4
154447	7	Sololá	712	San Antonio Palopó	9	San Antonio Palopo	2	Febrero	2023-02-17T00:00:00	2024-11-08T03:00:00	3	Temperatura mínima	15.1
154448	7	Sololá	712	San Antonio Palopó	9	San Antonio Palopo	2	Febrero	2023-02-17T00:00:00	2024-11-08T03:00:00	5	Humedad	87
154449	7	Sololá	712	San Antonio Palopó	9	San Antonio Palopo	2	Febrero	2023-02-17T00:00:00	2024-11-08T03:00:00	6	Velocidad del viento	3.2
154450	7	Sololá	712	San Antonio Palopó	9	San Antonio Palopo	2	Febrero	2023-02-17T00:00:00	2024-11-08T03:00:00	7	Dirección del viento	3.22
154451	7	Sololá	712	San Antonio Palopó	9	San Antonio Palopo	2	Febrero	2023-02-17T00:00:00	2024-11-08T03:00:00	1	Precipitación	0
154452	7	Sololá	712	San Antonio Palopó	9	San Antonio Palopo	2	Febrero	2023-02-17T00:00:00	2024-11-08T03:00:00	8	Radiación solar	0
154453	7	Sololá	712	San Antonio Palopó	9	San Antonio Palopo	2	Febrero	2023-02-17T00:00:00	2024-11-08T04:00:00	2	Temperatura media	15.2
154454	7	Sololá	712	San Antonio Palopó	9	San Antonio Palopo	2	Febrero	2023-02-17T00:00:00	2024-11-08T04:00:00	4	Temperatura máxima	15.2
154455	7	Sololá	712	San Antonio Palopó	9	San Antonio Palopo	2	Febrero	2023-02-17T00:00:00	2024-11-08T04:00:00	3	Temperatura mínima	14.7
154456	7	Sololá	712	San Antonio Palopó	9	San Antonio Palopo	2	Febrero	2023-02-17T00:00:00	2024-11-08T04:00:00	5	Humedad	88
154457	7	Sololá	712	San Antonio Palopó	9	San Antonio Palopo	2	Febrero	2023-02-17T00:00:00	2024-11-08T04:00:00	6	Velocidad del viento	4.8
154458	7	Sololá	712	San Antonio Palopó	9	San Antonio Palopo	2	Febrero	2023-02-17T00:00:00	2024-11-08T04:00:00	7	Dirección del viento	4.83
154459	7	Sololá	712	San Antonio Palopó	9	San Antonio Palopo	2	Febrero	2023-02-17T00:00:00	2024-11-08T04:00:00	1	Precipitación	0
154460	7	Sololá	712	San Antonio Palopó	9	San Antonio Palopo	2	Febrero	2023-02-17T00:00:00	2024-11-08T04:00:00	8	Radiación solar	0
154461	7	Sololá	712	San Antonio Palopó	9	San Antonio Palopo	2	Febrero	2023-02-17T00:00:00	2024-11-08T05:00:00	2	Temperatura media	15.8
154462	7	Sololá	712	San Antonio Palopó	9	San Antonio Palopo	2	Febrero	2023-02-17T00:00:00	2024-11-08T05:00:00	4	Temperatura máxima	15.8
154463	7	Sololá	712	San Antonio Palopó	9	San Antonio Palopo	2	Febrero	2023-02-17T00:00:00	2024-11-08T05:00:00	3	Temperatura mínima	14.8
154464	7	Sololá	712	San Antonio Palopó	9	San Antonio Palopo	2	Febrero	2023-02-17T00:00:00	2024-11-08T05:00:00	5	Humedad	79
154465	7	Sololá	712	San Antonio Palopó	9	San Antonio Palopo	2	Febrero	2023-02-17T00:00:00	2024-11-08T05:00:00	6	Velocidad del viento	4.8
154466	7	Sololá	712	San Antonio Palopó	9	San Antonio Palopo	2	Febrero	2023-02-17T00:00:00	2024-11-08T05:00:00	7	Dirección del viento	4.83
154467	7	Sololá	712	San Antonio Palopó	9	San Antonio Palopo	2	Febrero	2023-02-17T00:00:00	2024-11-08T05:00:00	1	Precipitación	0
154468	7	Sololá	712	San Antonio Palopó	9	San Antonio Palopo	2	Febrero	2023-02-17T00:00:00	2024-11-08T05:00:00	8	Radiación solar	0
154469	7	Sololá	712	San Antonio Palopó	9	San Antonio Palopo	2	Febrero	2023-02-17T00:00:00	2024-11-08T06:00:00	2	Temperatura media	15.7
154470	7	Sololá	712	San Antonio Palopó	9	San Antonio Palopo	2	Febrero	2023-02-17T00:00:00	2024-11-08T06:00:00	4	Temperatura máxima	15.9
154471	7	Sololá	712	San Antonio Palopó	9	San Antonio Palopo	2	Febrero	2023-02-17T00:00:00	2024-11-08T06:00:00	3	Temperatura mínima	15.3
154472	7	Sololá	712	San Antonio Palopó	9	San Antonio Palopo	2	Febrero	2023-02-17T00:00:00	2024-11-08T06:00:00	5	Humedad	78
154473	7	Sololá	712	San Antonio Palopó	9	San Antonio Palopo	2	Febrero	2023-02-17T00:00:00	2024-11-08T06:00:00	6	Velocidad del viento	9.7
154474	7	Sololá	712	San Antonio Palopó	9	San Antonio Palopo	2	Febrero	2023-02-17T00:00:00	2024-11-08T06:00:00	7	Dirección del viento	9.66
154475	7	Sololá	712	San Antonio Palopó	9	San Antonio Palopo	2	Febrero	2023-02-17T00:00:00	2024-11-08T06:00:00	1	Precipitación	0
154476	7	Sololá	712	San Antonio Palopó	9	San Antonio Palopo	2	Febrero	2023-02-17T00:00:00	2024-11-08T06:00:00	8	Radiación solar	0
154477	7	Sololá	712	San Antonio Palopó	9	San Antonio Palopo	2	Febrero	2023-02-17T00:00:00	2024-11-08T07:00:00	2	Temperatura media	15.6
154478	7	Sololá	712	San Antonio Palopó	9	San Antonio Palopo	2	Febrero	2023-02-17T00:00:00	2024-11-08T07:00:00	4	Temperatura máxima	15.7
154479	7	Sololá	712	San Antonio Palopó	9	San Antonio Palopo	2	Febrero	2023-02-17T00:00:00	2024-11-08T07:00:00	3	Temperatura mínima	15.5
154480	7	Sololá	712	San Antonio Palopó	9	San Antonio Palopo	2	Febrero	2023-02-17T00:00:00	2024-11-08T07:00:00	5	Humedad	76
154481	7	Sololá	712	San Antonio Palopó	9	San Antonio Palopo	2	Febrero	2023-02-17T00:00:00	2024-11-08T07:00:00	6	Velocidad del viento	11.3
154482	7	Sololá	712	San Antonio Palopó	9	San Antonio Palopo	2	Febrero	2023-02-17T00:00:00	2024-11-08T07:00:00	7	Dirección del viento	11.27
154483	7	Sololá	712	San Antonio Palopó	9	San Antonio Palopo	2	Febrero	2023-02-17T00:00:00	2024-11-08T07:00:00	1	Precipitación	0
154484	7	Sololá	712	San Antonio Palopó	9	San Antonio Palopo	2	Febrero	2023-02-17T00:00:00	2024-11-08T07:00:00	8	Radiación solar	4
154485	7	Sololá	712	San Antonio Palopó	9	San Antonio Palopo	2	Febrero	2023-02-17T00:00:00	2024-11-08T08:00:00	2	Temperatura media	14.6
154486	7	Sololá	712	San Antonio Palopó	9	San Antonio Palopo	2	Febrero	2023-02-17T00:00:00	2024-11-08T08:00:00	4	Temperatura máxima	15.8
154487	7	Sololá	712	San Antonio Palopó	9	San Antonio Palopo	2	Febrero	2023-02-17T00:00:00	2024-11-08T08:00:00	3	Temperatura mínima	14.6
154488	7	Sololá	712	San Antonio Palopó	9	San Antonio Palopo	2	Febrero	2023-02-17T00:00:00	2024-11-08T08:00:00	5	Humedad	82
154489	7	Sololá	712	San Antonio Palopó	9	San Antonio Palopo	2	Febrero	2023-02-17T00:00:00	2024-11-08T08:00:00	6	Velocidad del viento	6.4
154490	7	Sololá	712	San Antonio Palopó	9	San Antonio Palopo	2	Febrero	2023-02-17T00:00:00	2024-11-08T08:00:00	7	Dirección del viento	6.44
154491	7	Sololá	712	San Antonio Palopó	9	San Antonio Palopo	2	Febrero	2023-02-17T00:00:00	2024-11-08T08:00:00	1	Precipitación	0
154492	7	Sololá	712	San Antonio Palopó	9	San Antonio Palopo	2	Febrero	2023-02-17T00:00:00	2024-11-08T08:00:00	8	Radiación solar	29
154493	7	Sololá	712	San Antonio Palopó	9	San Antonio Palopo	2	Febrero	2023-02-17T00:00:00	2024-11-08T09:00:00	2	Temperatura media	18
154494	7	Sololá	712	San Antonio Palopó	9	San Antonio Palopo	2	Febrero	2023-02-17T00:00:00	2024-11-08T09:00:00	4	Temperatura máxima	18
154495	7	Sololá	712	San Antonio Palopó	9	San Antonio Palopo	2	Febrero	2023-02-17T00:00:00	2024-11-08T09:00:00	3	Temperatura mínima	14.6
154496	7	Sololá	712	San Antonio Palopó	9	San Antonio Palopo	2	Febrero	2023-02-17T00:00:00	2024-11-08T09:00:00	5	Humedad	77
154497	7	Sololá	712	San Antonio Palopó	9	San Antonio Palopo	2	Febrero	2023-02-17T00:00:00	2024-11-08T09:00:00	6	Velocidad del viento	3.2
154498	7	Sololá	712	San Antonio Palopó	9	San Antonio Palopo	2	Febrero	2023-02-17T00:00:00	2024-11-08T09:00:00	7	Dirección del viento	3.22
154499	7	Sololá	712	San Antonio Palopó	9	San Antonio Palopo	2	Febrero	2023-02-17T00:00:00	2024-11-08T09:00:00	1	Precipitación	0
154500	7	Sololá	712	San Antonio Palopó	9	San Antonio Palopo	2	Febrero	2023-02-17T00:00:00	2024-11-08T09:00:00	8	Radiación solar	281
154501	7	Sololá	712	San Antonio Palopó	9	San Antonio Palopo	2	Febrero	2023-02-17T00:00:00	2024-11-08T10:00:00	2	Temperatura media	18.2
154502	7	Sololá	712	San Antonio Palopó	9	San Antonio Palopo	2	Febrero	2023-02-17T00:00:00	2024-11-08T10:00:00	4	Temperatura máxima	18.3
154503	7	Sololá	712	San Antonio Palopó	9	San Antonio Palopo	2	Febrero	2023-02-17T00:00:00	2024-11-08T10:00:00	3	Temperatura mínima	17.7
154504	7	Sololá	712	San Antonio Palopó	9	San Antonio Palopo	2	Febrero	2023-02-17T00:00:00	2024-11-08T10:00:00	5	Humedad	76
154505	7	Sololá	712	San Antonio Palopó	9	San Antonio Palopo	2	Febrero	2023-02-17T00:00:00	2024-11-08T10:00:00	6	Velocidad del viento	3.2
154506	7	Sololá	712	San Antonio Palopó	9	San Antonio Palopo	2	Febrero	2023-02-17T00:00:00	2024-11-08T10:00:00	7	Dirección del viento	3.22
154507	7	Sololá	712	San Antonio Palopó	9	San Antonio Palopo	2	Febrero	2023-02-17T00:00:00	2024-11-08T10:00:00	1	Precipitación	0
154508	7	Sololá	712	San Antonio Palopó	9	San Antonio Palopo	2	Febrero	2023-02-17T00:00:00	2024-11-08T10:00:00	8	Radiación solar	583
154509	7	Sololá	712	San Antonio Palopó	9	San Antonio Palopo	2	Febrero	2023-02-17T00:00:00	2024-11-08T11:00:00	2	Temperatura media	20.5
154510	7	Sololá	712	San Antonio Palopó	9	San Antonio Palopo	2	Febrero	2023-02-17T00:00:00	2024-11-08T11:00:00	4	Temperatura máxima	20.5
154511	7	Sololá	712	San Antonio Palopó	9	San Antonio Palopo	2	Febrero	2023-02-17T00:00:00	2024-11-08T11:00:00	3	Temperatura mínima	18.2
154512	7	Sololá	712	San Antonio Palopó	9	San Antonio Palopo	2	Febrero	2023-02-17T00:00:00	2024-11-08T11:00:00	5	Humedad	70
154513	7	Sololá	712	San Antonio Palopó	9	San Antonio Palopo	2	Febrero	2023-02-17T00:00:00	2024-11-08T11:00:00	6	Velocidad del viento	3.2
154514	7	Sololá	712	San Antonio Palopó	9	San Antonio Palopo	2	Febrero	2023-02-17T00:00:00	2024-11-08T11:00:00	7	Dirección del viento	3.22
154515	7	Sololá	712	San Antonio Palopó	9	San Antonio Palopo	2	Febrero	2023-02-17T00:00:00	2024-11-08T11:00:00	1	Precipitación	0
154516	7	Sololá	712	San Antonio Palopó	9	San Antonio Palopo	2	Febrero	2023-02-17T00:00:00	2024-11-08T11:00:00	8	Radiación solar	736
154517	7	Sololá	712	San Antonio Palopó	9	San Antonio Palopo	2	Febrero	2023-02-17T00:00:00	2024-11-08T12:00:00	2	Temperatura media	24.4
154518	7	Sololá	712	San Antonio Palopó	9	San Antonio Palopo	2	Febrero	2023-02-17T00:00:00	2024-11-08T12:00:00	4	Temperatura máxima	24.4
154519	7	Sololá	712	San Antonio Palopó	9	San Antonio Palopo	2	Febrero	2023-02-17T00:00:00	2024-11-08T12:00:00	3	Temperatura mínima	20.6
154520	7	Sololá	712	San Antonio Palopó	9	San Antonio Palopo	2	Febrero	2023-02-17T00:00:00	2024-11-08T12:00:00	5	Humedad	39
154521	7	Sololá	712	San Antonio Palopó	9	San Antonio Palopo	2	Febrero	2023-02-17T00:00:00	2024-11-08T12:00:00	6	Velocidad del viento	9.7
154522	7	Sololá	712	San Antonio Palopó	9	San Antonio Palopo	2	Febrero	2023-02-17T00:00:00	2024-11-08T12:00:00	7	Dirección del viento	9.66
154523	7	Sololá	712	San Antonio Palopó	9	San Antonio Palopo	2	Febrero	2023-02-17T00:00:00	2024-11-08T12:00:00	1	Precipitación	0
154524	7	Sololá	712	San Antonio Palopó	9	San Antonio Palopo	2	Febrero	2023-02-17T00:00:00	2024-11-08T12:00:00	8	Radiación solar	773
154525	7	Sololá	712	San Antonio Palopó	9	San Antonio Palopo	2	Febrero	2023-02-17T00:00:00	2024-11-08T13:00:00	2	Temperatura media	23.9
154526	7	Sololá	712	San Antonio Palopó	9	San Antonio Palopo	2	Febrero	2023-02-17T00:00:00	2024-11-08T13:00:00	4	Temperatura máxima	25.1
154527	7	Sololá	712	San Antonio Palopó	9	San Antonio Palopo	2	Febrero	2023-02-17T00:00:00	2024-11-08T13:00:00	3	Temperatura mínima	23.7
154528	7	Sololá	712	San Antonio Palopó	9	San Antonio Palopo	2	Febrero	2023-02-17T00:00:00	2024-11-08T13:00:00	5	Humedad	41
154529	7	Sololá	712	San Antonio Palopó	9	San Antonio Palopo	2	Febrero	2023-02-17T00:00:00	2024-11-08T13:00:00	6	Velocidad del viento	17.7
154530	7	Sololá	712	San Antonio Palopó	9	San Antonio Palopo	2	Febrero	2023-02-17T00:00:00	2024-11-08T13:00:00	7	Dirección del viento	17.7
154531	7	Sololá	712	San Antonio Palopó	9	San Antonio Palopo	2	Febrero	2023-02-17T00:00:00	2024-11-08T13:00:00	1	Precipitación	0
154532	7	Sololá	712	San Antonio Palopó	9	San Antonio Palopo	2	Febrero	2023-02-17T00:00:00	2024-11-08T13:00:00	8	Radiación solar	880
154533	7	Sololá	712	San Antonio Palopó	9	San Antonio Palopo	2	Febrero	2023-02-17T00:00:00	2024-11-08T14:00:00	2	Temperatura media	25.2
154534	7	Sololá	712	San Antonio Palopó	9	San Antonio Palopo	2	Febrero	2023-02-17T00:00:00	2024-11-08T14:00:00	4	Temperatura máxima	25.2
154535	7	Sololá	712	San Antonio Palopó	9	San Antonio Palopo	2	Febrero	2023-02-17T00:00:00	2024-11-08T14:00:00	3	Temperatura mínima	24
154536	7	Sololá	712	San Antonio Palopó	9	San Antonio Palopo	2	Febrero	2023-02-17T00:00:00	2024-11-08T14:00:00	5	Humedad	41
154537	7	Sololá	712	San Antonio Palopó	9	San Antonio Palopo	2	Febrero	2023-02-17T00:00:00	2024-11-08T14:00:00	6	Velocidad del viento	19.3
154538	7	Sololá	712	San Antonio Palopó	9	San Antonio Palopo	2	Febrero	2023-02-17T00:00:00	2024-11-08T14:00:00	7	Dirección del viento	19.31
154539	7	Sololá	712	San Antonio Palopó	9	San Antonio Palopo	2	Febrero	2023-02-17T00:00:00	2024-11-08T14:00:00	1	Precipitación	0
154540	7	Sololá	712	San Antonio Palopó	9	San Antonio Palopo	2	Febrero	2023-02-17T00:00:00	2024-11-08T14:00:00	8	Radiación solar	855
154541	7	Sololá	712	San Antonio Palopó	9	San Antonio Palopo	2	Febrero	2023-02-17T00:00:00	2024-11-08T15:00:00	2	Temperatura media	24.3
154542	7	Sololá	712	San Antonio Palopó	9	San Antonio Palopo	2	Febrero	2023-02-17T00:00:00	2024-11-08T15:00:00	4	Temperatura máxima	25.4
154543	7	Sololá	712	San Antonio Palopó	9	San Antonio Palopo	2	Febrero	2023-02-17T00:00:00	2024-11-08T15:00:00	3	Temperatura mínima	24.1
154544	7	Sololá	712	San Antonio Palopó	9	San Antonio Palopo	2	Febrero	2023-02-17T00:00:00	2024-11-08T15:00:00	5	Humedad	40
154545	7	Sololá	712	San Antonio Palopó	9	San Antonio Palopo	2	Febrero	2023-02-17T00:00:00	2024-11-08T15:00:00	6	Velocidad del viento	19.3
154546	7	Sololá	712	San Antonio Palopó	9	San Antonio Palopo	2	Febrero	2023-02-17T00:00:00	2024-11-08T15:00:00	7	Dirección del viento	19.31
154547	7	Sololá	712	San Antonio Palopó	9	San Antonio Palopo	2	Febrero	2023-02-17T00:00:00	2024-11-08T15:00:00	1	Precipitación	0
154548	7	Sololá	712	San Antonio Palopó	9	San Antonio Palopo	2	Febrero	2023-02-17T00:00:00	2024-11-08T15:00:00	8	Radiación solar	714
154549	7	Sololá	712	San Antonio Palopó	9	San Antonio Palopo	2	Febrero	2023-02-17T00:00:00	2024-11-08T16:00:00	2	Temperatura media	23.4
154550	7	Sololá	712	San Antonio Palopó	9	San Antonio Palopo	2	Febrero	2023-02-17T00:00:00	2024-11-08T16:00:00	4	Temperatura máxima	24.8
154551	7	Sololá	712	San Antonio Palopó	9	San Antonio Palopo	2	Febrero	2023-02-17T00:00:00	2024-11-08T16:00:00	3	Temperatura mínima	23.4
154552	7	Sololá	712	San Antonio Palopó	9	San Antonio Palopo	2	Febrero	2023-02-17T00:00:00	2024-11-08T16:00:00	5	Humedad	44
154553	7	Sololá	712	San Antonio Palopó	9	San Antonio Palopo	2	Febrero	2023-02-17T00:00:00	2024-11-08T16:00:00	6	Velocidad del viento	17.7
154554	7	Sololá	712	San Antonio Palopó	9	San Antonio Palopo	2	Febrero	2023-02-17T00:00:00	2024-11-08T16:00:00	7	Dirección del viento	17.7
154555	7	Sololá	712	San Antonio Palopó	9	San Antonio Palopo	2	Febrero	2023-02-17T00:00:00	2024-11-08T16:00:00	1	Precipitación	0
154556	7	Sololá	712	San Antonio Palopó	9	San Antonio Palopo	2	Febrero	2023-02-17T00:00:00	2024-11-08T16:00:00	8	Radiación solar	586
154557	7	Sololá	712	San Antonio Palopó	9	San Antonio Palopo	2	Febrero	2023-02-17T00:00:00	2024-11-08T17:00:00	2	Temperatura media	24.2
154558	7	Sololá	712	San Antonio Palopó	9	San Antonio Palopo	2	Febrero	2023-02-17T00:00:00	2024-11-08T17:00:00	4	Temperatura máxima	24.7
154559	7	Sololá	712	San Antonio Palopó	9	San Antonio Palopo	2	Febrero	2023-02-17T00:00:00	2024-11-08T17:00:00	3	Temperatura mínima	23.3
154560	7	Sololá	712	San Antonio Palopó	9	San Antonio Palopo	2	Febrero	2023-02-17T00:00:00	2024-11-08T17:00:00	5	Humedad	44
154561	7	Sololá	712	San Antonio Palopó	9	San Antonio Palopo	2	Febrero	2023-02-17T00:00:00	2024-11-08T17:00:00	6	Velocidad del viento	11.3
154562	7	Sololá	712	San Antonio Palopó	9	San Antonio Palopo	2	Febrero	2023-02-17T00:00:00	2024-11-08T17:00:00	7	Dirección del viento	11.27
154563	7	Sololá	712	San Antonio Palopó	9	San Antonio Palopo	2	Febrero	2023-02-17T00:00:00	2024-11-08T17:00:00	1	Precipitación	0
154564	7	Sololá	712	San Antonio Palopó	9	San Antonio Palopo	2	Febrero	2023-02-17T00:00:00	2024-11-08T17:00:00	8	Radiación solar	320
154565	7	Sololá	712	San Antonio Palopó	9	San Antonio Palopo	2	Febrero	2023-02-17T00:00:00	2024-11-08T18:00:00	2	Temperatura media	21.2
154566	7	Sololá	712	San Antonio Palopó	9	San Antonio Palopo	2	Febrero	2023-02-17T00:00:00	2024-11-08T18:00:00	4	Temperatura máxima	24.2
154567	7	Sololá	712	San Antonio Palopó	9	San Antonio Palopo	2	Febrero	2023-02-17T00:00:00	2024-11-08T18:00:00	3	Temperatura mínima	21.2
154568	7	Sololá	712	San Antonio Palopó	9	San Antonio Palopo	2	Febrero	2023-02-17T00:00:00	2024-11-08T18:00:00	5	Humedad	49
154569	7	Sololá	712	San Antonio Palopó	9	San Antonio Palopo	2	Febrero	2023-02-17T00:00:00	2024-11-08T18:00:00	6	Velocidad del viento	11.3
154570	7	Sololá	712	San Antonio Palopó	9	San Antonio Palopo	2	Febrero	2023-02-17T00:00:00	2024-11-08T18:00:00	7	Dirección del viento	11.27
154571	7	Sololá	712	San Antonio Palopó	9	San Antonio Palopo	2	Febrero	2023-02-17T00:00:00	2024-11-08T18:00:00	1	Precipitación	0
154572	7	Sololá	712	San Antonio Palopó	9	San Antonio Palopo	2	Febrero	2023-02-17T00:00:00	2024-11-08T18:00:00	8	Radiación solar	78
154573	7	Sololá	712	San Antonio Palopó	9	San Antonio Palopo	2	Febrero	2023-02-17T00:00:00	2024-11-08T19:00:00	2	Temperatura media	19.7
154574	7	Sololá	712	San Antonio Palopó	9	San Antonio Palopo	2	Febrero	2023-02-17T00:00:00	2024-11-08T19:00:00	4	Temperatura máxima	21.2
154575	7	Sololá	712	San Antonio Palopó	9	San Antonio Palopo	2	Febrero	2023-02-17T00:00:00	2024-11-08T19:00:00	3	Temperatura mínima	19.7
154576	7	Sololá	712	San Antonio Palopó	9	San Antonio Palopo	2	Febrero	2023-02-17T00:00:00	2024-11-08T19:00:00	5	Humedad	56
154577	7	Sololá	712	San Antonio Palopó	9	San Antonio Palopo	2	Febrero	2023-02-17T00:00:00	2024-11-08T19:00:00	6	Velocidad del viento	9.7
154578	7	Sololá	712	San Antonio Palopó	9	San Antonio Palopo	2	Febrero	2023-02-17T00:00:00	2024-11-08T19:00:00	7	Dirección del viento	9.66
154579	7	Sololá	712	San Antonio Palopó	9	San Antonio Palopo	2	Febrero	2023-02-17T00:00:00	2024-11-08T19:00:00	1	Precipitación	0
154580	7	Sololá	712	San Antonio Palopó	9	San Antonio Palopo	2	Febrero	2023-02-17T00:00:00	2024-11-08T19:00:00	8	Radiación solar	0
154581	7	Sololá	712	San Antonio Palopó	9	San Antonio Palopo	2	Febrero	2023-02-17T00:00:00	2024-11-08T20:00:00	2	Temperatura media	19.6
154582	7	Sololá	712	San Antonio Palopó	9	San Antonio Palopo	2	Febrero	2023-02-17T00:00:00	2024-11-08T20:00:00	4	Temperatura máxima	19.7
154583	7	Sololá	712	San Antonio Palopó	9	San Antonio Palopo	2	Febrero	2023-02-17T00:00:00	2024-11-08T20:00:00	3	Temperatura mínima	19.4
154584	7	Sololá	712	San Antonio Palopó	9	San Antonio Palopo	2	Febrero	2023-02-17T00:00:00	2024-11-08T20:00:00	5	Humedad	58
154585	7	Sololá	712	San Antonio Palopó	9	San Antonio Palopo	2	Febrero	2023-02-17T00:00:00	2024-11-08T20:00:00	6	Velocidad del viento	9.7
154586	7	Sololá	712	San Antonio Palopó	9	San Antonio Palopo	2	Febrero	2023-02-17T00:00:00	2024-11-08T20:00:00	7	Dirección del viento	9.66
154587	7	Sololá	712	San Antonio Palopó	9	San Antonio Palopo	2	Febrero	2023-02-17T00:00:00	2024-11-08T20:00:00	1	Precipitación	0
154588	7	Sololá	712	San Antonio Palopó	9	San Antonio Palopo	2	Febrero	2023-02-17T00:00:00	2024-11-08T20:00:00	8	Radiación solar	0
154589	7	Sololá	712	San Antonio Palopó	9	San Antonio Palopo	2	Febrero	2023-02-17T00:00:00	2024-11-08T21:00:00	2	Temperatura media	19.2
154590	7	Sololá	712	San Antonio Palopó	9	San Antonio Palopo	2	Febrero	2023-02-17T00:00:00	2024-11-08T21:00:00	4	Temperatura máxima	19.6
154591	7	Sololá	712	San Antonio Palopó	9	San Antonio Palopo	2	Febrero	2023-02-17T00:00:00	2024-11-08T21:00:00	3	Temperatura mínima	19.1
154592	7	Sololá	712	San Antonio Palopó	9	San Antonio Palopo	2	Febrero	2023-02-17T00:00:00	2024-11-08T21:00:00	5	Humedad	60
154593	7	Sololá	712	San Antonio Palopó	9	San Antonio Palopo	2	Febrero	2023-02-17T00:00:00	2024-11-08T21:00:00	6	Velocidad del viento	9.7
154594	7	Sololá	712	San Antonio Palopó	9	San Antonio Palopo	2	Febrero	2023-02-17T00:00:00	2024-11-08T21:00:00	7	Dirección del viento	9.66
154595	7	Sololá	712	San Antonio Palopó	9	San Antonio Palopo	2	Febrero	2023-02-17T00:00:00	2024-11-08T21:00:00	1	Precipitación	0
154596	7	Sololá	712	San Antonio Palopó	9	San Antonio Palopo	2	Febrero	2023-02-17T00:00:00	2024-11-08T21:00:00	8	Radiación solar	0
154597	7	Sololá	712	San Antonio Palopó	9	San Antonio Palopo	2	Febrero	2023-02-17T00:00:00	2024-11-08T22:00:00	2	Temperatura media	19.2
154598	7	Sololá	712	San Antonio Palopó	9	San Antonio Palopo	2	Febrero	2023-02-17T00:00:00	2024-11-08T22:00:00	4	Temperatura máxima	19.3
154599	7	Sololá	712	San Antonio Palopó	9	San Antonio Palopo	2	Febrero	2023-02-17T00:00:00	2024-11-08T22:00:00	3	Temperatura mínima	19.1
154600	7	Sololá	712	San Antonio Palopó	9	San Antonio Palopo	2	Febrero	2023-02-17T00:00:00	2024-11-08T22:00:00	5	Humedad	60
154601	7	Sololá	712	San Antonio Palopó	9	San Antonio Palopo	2	Febrero	2023-02-17T00:00:00	2024-11-08T22:00:00	6	Velocidad del viento	14.5
154602	7	Sololá	712	San Antonio Palopó	9	San Antonio Palopo	2	Febrero	2023-02-17T00:00:00	2024-11-08T22:00:00	7	Dirección del viento	14.48
154603	7	Sololá	712	San Antonio Palopó	9	San Antonio Palopo	2	Febrero	2023-02-17T00:00:00	2024-11-08T22:00:00	1	Precipitación	0
154604	7	Sololá	712	San Antonio Palopó	9	San Antonio Palopo	2	Febrero	2023-02-17T00:00:00	2024-11-08T22:00:00	8	Radiación solar	0
154605	7	Sololá	712	San Antonio Palopó	9	San Antonio Palopo	2	Febrero	2023-02-17T00:00:00	2024-11-08T23:00:00	2	Temperatura media	19.2
154606	7	Sololá	712	San Antonio Palopó	9	San Antonio Palopo	2	Febrero	2023-02-17T00:00:00	2024-11-08T23:00:00	4	Temperatura máxima	19.2
154607	7	Sololá	712	San Antonio Palopó	9	San Antonio Palopo	2	Febrero	2023-02-17T00:00:00	2024-11-08T23:00:00	3	Temperatura mínima	19
154608	7	Sololá	712	San Antonio Palopó	9	San Antonio Palopo	2	Febrero	2023-02-17T00:00:00	2024-11-08T23:00:00	5	Humedad	63
154609	7	Sololá	712	San Antonio Palopó	9	San Antonio Palopo	2	Febrero	2023-02-17T00:00:00	2024-11-08T23:00:00	6	Velocidad del viento	17.7
154610	7	Sololá	712	San Antonio Palopó	9	San Antonio Palopo	2	Febrero	2023-02-17T00:00:00	2024-11-08T23:00:00	7	Dirección del viento	17.7
154611	7	Sololá	712	San Antonio Palopó	9	San Antonio Palopo	2	Febrero	2023-02-17T00:00:00	2024-11-08T23:00:00	1	Precipitación	0
154612	7	Sololá	712	San Antonio Palopó	9	San Antonio Palopo	2	Febrero	2023-02-17T00:00:00	2024-11-08T23:00:00	8	Radiación solar	0
154613	7	Sololá	712	San Antonio Palopó	9	San Antonio Palopo	2	Febrero	2023-02-18T00:00:00	2024-11-08T00:00:00	2	Temperatura media	19.2
154614	7	Sololá	712	San Antonio Palopó	9	San Antonio Palopo	2	Febrero	2023-02-18T00:00:00	2024-11-08T00:00:00	4	Temperatura máxima	19.4
154615	7	Sololá	712	San Antonio Palopó	9	San Antonio Palopo	2	Febrero	2023-02-18T00:00:00	2024-11-08T00:00:00	3	Temperatura mínima	19
154616	7	Sololá	712	San Antonio Palopó	9	San Antonio Palopo	2	Febrero	2023-02-18T00:00:00	2024-11-08T00:00:00	5	Humedad	65
154617	7	Sololá	712	San Antonio Palopó	9	San Antonio Palopo	2	Febrero	2023-02-18T00:00:00	2024-11-08T00:00:00	6	Velocidad del viento	17.7
154618	7	Sololá	712	San Antonio Palopó	9	San Antonio Palopo	2	Febrero	2023-02-18T00:00:00	2024-11-08T00:00:00	7	Dirección del viento	17.7
154619	7	Sololá	712	San Antonio Palopó	9	San Antonio Palopo	2	Febrero	2023-02-18T00:00:00	2024-11-08T00:00:00	1	Precipitación	0
154620	7	Sololá	712	San Antonio Palopó	9	San Antonio Palopo	2	Febrero	2023-02-18T00:00:00	2024-11-08T00:00:00	8	Radiación solar	0
154621	7	Sololá	712	San Antonio Palopó	9	San Antonio Palopo	2	Febrero	2023-02-18T00:00:00	2024-11-08T01:00:00	2	Temperatura media	19.2
154622	7	Sololá	712	San Antonio Palopó	9	San Antonio Palopo	2	Febrero	2023-02-18T00:00:00	2024-11-08T01:00:00	4	Temperatura máxima	19.3
154623	7	Sololá	712	San Antonio Palopó	9	San Antonio Palopo	2	Febrero	2023-02-18T00:00:00	2024-11-08T01:00:00	3	Temperatura mínima	19.1
154624	7	Sololá	712	San Antonio Palopó	9	San Antonio Palopo	2	Febrero	2023-02-18T00:00:00	2024-11-08T01:00:00	5	Humedad	67
154625	7	Sololá	712	San Antonio Palopó	9	San Antonio Palopo	2	Febrero	2023-02-18T00:00:00	2024-11-08T01:00:00	6	Velocidad del viento	16.1
154626	7	Sololá	712	San Antonio Palopó	9	San Antonio Palopo	2	Febrero	2023-02-18T00:00:00	2024-11-08T01:00:00	7	Dirección del viento	16.09
154627	7	Sololá	712	San Antonio Palopó	9	San Antonio Palopo	2	Febrero	2023-02-18T00:00:00	2024-11-08T01:00:00	1	Precipitación	0
154628	7	Sololá	712	San Antonio Palopó	9	San Antonio Palopo	2	Febrero	2023-02-18T00:00:00	2024-11-08T01:00:00	8	Radiación solar	0
154629	7	Sololá	712	San Antonio Palopó	9	San Antonio Palopo	2	Febrero	2023-02-18T00:00:00	2024-11-08T02:00:00	2	Temperatura media	19.1
154630	7	Sololá	712	San Antonio Palopó	9	San Antonio Palopo	2	Febrero	2023-02-18T00:00:00	2024-11-08T02:00:00	4	Temperatura máxima	19.2
154631	7	Sololá	712	San Antonio Palopó	9	San Antonio Palopo	2	Febrero	2023-02-18T00:00:00	2024-11-08T02:00:00	3	Temperatura mínima	19
154632	7	Sololá	712	San Antonio Palopó	9	San Antonio Palopo	2	Febrero	2023-02-18T00:00:00	2024-11-08T02:00:00	5	Humedad	65
154633	7	Sololá	712	San Antonio Palopó	9	San Antonio Palopo	2	Febrero	2023-02-18T00:00:00	2024-11-08T02:00:00	6	Velocidad del viento	14.5
154634	7	Sololá	712	San Antonio Palopó	9	San Antonio Palopo	2	Febrero	2023-02-18T00:00:00	2024-11-08T02:00:00	7	Dirección del viento	14.48
154635	7	Sololá	712	San Antonio Palopó	9	San Antonio Palopo	2	Febrero	2023-02-18T00:00:00	2024-11-08T02:00:00	1	Precipitación	0
154636	7	Sololá	712	San Antonio Palopó	9	San Antonio Palopo	2	Febrero	2023-02-18T00:00:00	2024-11-08T02:00:00	8	Radiación solar	0
154637	7	Sololá	712	San Antonio Palopó	9	San Antonio Palopo	2	Febrero	2023-02-18T00:00:00	2024-11-08T03:00:00	2	Temperatura media	18.6
154638	7	Sololá	712	San Antonio Palopó	9	San Antonio Palopo	2	Febrero	2023-02-18T00:00:00	2024-11-08T03:00:00	4	Temperatura máxima	19.2
154639	7	Sololá	712	San Antonio Palopó	9	San Antonio Palopo	2	Febrero	2023-02-18T00:00:00	2024-11-08T03:00:00	3	Temperatura mínima	18.6
154640	7	Sololá	712	San Antonio Palopó	9	San Antonio Palopo	2	Febrero	2023-02-18T00:00:00	2024-11-08T03:00:00	5	Humedad	63
154641	7	Sololá	712	San Antonio Palopó	9	San Antonio Palopo	2	Febrero	2023-02-18T00:00:00	2024-11-08T03:00:00	6	Velocidad del viento	17.7
154642	7	Sololá	712	San Antonio Palopó	9	San Antonio Palopo	2	Febrero	2023-02-18T00:00:00	2024-11-08T03:00:00	7	Dirección del viento	17.7
154643	7	Sololá	712	San Antonio Palopó	9	San Antonio Palopo	2	Febrero	2023-02-18T00:00:00	2024-11-08T03:00:00	1	Precipitación	0
154644	7	Sololá	712	San Antonio Palopó	9	San Antonio Palopo	2	Febrero	2023-02-18T00:00:00	2024-11-08T03:00:00	8	Radiación solar	0
154645	7	Sololá	712	San Antonio Palopó	9	San Antonio Palopo	2	Febrero	2023-02-18T00:00:00	2024-11-08T04:00:00	2	Temperatura media	17.9
154646	7	Sololá	712	San Antonio Palopó	9	San Antonio Palopo	2	Febrero	2023-02-18T00:00:00	2024-11-08T04:00:00	4	Temperatura máxima	18.6
154647	7	Sololá	712	San Antonio Palopó	9	San Antonio Palopo	2	Febrero	2023-02-18T00:00:00	2024-11-08T04:00:00	3	Temperatura mínima	17.9
154648	7	Sololá	712	San Antonio Palopó	9	San Antonio Palopo	2	Febrero	2023-02-18T00:00:00	2024-11-08T04:00:00	5	Humedad	59
154649	7	Sololá	712	San Antonio Palopó	9	San Antonio Palopo	2	Febrero	2023-02-18T00:00:00	2024-11-08T04:00:00	6	Velocidad del viento	16.1
154650	7	Sololá	712	San Antonio Palopó	9	San Antonio Palopo	2	Febrero	2023-02-18T00:00:00	2024-11-08T04:00:00	7	Dirección del viento	16.09
154651	7	Sololá	712	San Antonio Palopó	9	San Antonio Palopo	2	Febrero	2023-02-18T00:00:00	2024-11-08T04:00:00	1	Precipitación	0
154652	7	Sololá	712	San Antonio Palopó	9	San Antonio Palopo	2	Febrero	2023-02-18T00:00:00	2024-11-08T04:00:00	8	Radiación solar	0
154653	7	Sololá	712	San Antonio Palopó	9	San Antonio Palopo	2	Febrero	2023-02-18T00:00:00	2024-11-08T05:00:00	2	Temperatura media	17.4
154654	7	Sololá	712	San Antonio Palopó	9	San Antonio Palopo	2	Febrero	2023-02-18T00:00:00	2024-11-08T05:00:00	4	Temperatura máxima	17.9
154655	7	Sololá	712	San Antonio Palopó	9	San Antonio Palopo	2	Febrero	2023-02-18T00:00:00	2024-11-08T05:00:00	3	Temperatura mínima	17.4
154656	7	Sololá	712	San Antonio Palopó	9	San Antonio Palopo	2	Febrero	2023-02-18T00:00:00	2024-11-08T05:00:00	5	Humedad	60
154657	7	Sololá	712	San Antonio Palopó	9	San Antonio Palopo	2	Febrero	2023-02-18T00:00:00	2024-11-08T05:00:00	6	Velocidad del viento	12.9
154658	7	Sololá	712	San Antonio Palopó	9	San Antonio Palopo	2	Febrero	2023-02-18T00:00:00	2024-11-08T05:00:00	7	Dirección del viento	12.87
154659	7	Sololá	712	San Antonio Palopó	9	San Antonio Palopo	2	Febrero	2023-02-18T00:00:00	2024-11-08T05:00:00	1	Precipitación	0
154660	7	Sololá	712	San Antonio Palopó	9	San Antonio Palopo	2	Febrero	2023-02-18T00:00:00	2024-11-08T05:00:00	8	Radiación solar	0
154661	7	Sololá	712	San Antonio Palopó	9	San Antonio Palopo	2	Febrero	2023-02-18T00:00:00	2024-11-08T06:00:00	2	Temperatura media	17.3
154662	7	Sololá	712	San Antonio Palopó	9	San Antonio Palopo	2	Febrero	2023-02-18T00:00:00	2024-11-08T06:00:00	4	Temperatura máxima	17.6
154663	7	Sololá	712	San Antonio Palopó	9	San Antonio Palopo	2	Febrero	2023-02-18T00:00:00	2024-11-08T06:00:00	3	Temperatura mínima	17.2
154664	7	Sololá	712	San Antonio Palopó	9	San Antonio Palopo	2	Febrero	2023-02-18T00:00:00	2024-11-08T06:00:00	5	Humedad	60
154665	7	Sololá	712	San Antonio Palopó	9	San Antonio Palopo	2	Febrero	2023-02-18T00:00:00	2024-11-08T06:00:00	6	Velocidad del viento	14.5
154666	7	Sololá	712	San Antonio Palopó	9	San Antonio Palopo	2	Febrero	2023-02-18T00:00:00	2024-11-08T06:00:00	7	Dirección del viento	14.48
154667	7	Sololá	712	San Antonio Palopó	9	San Antonio Palopo	2	Febrero	2023-02-18T00:00:00	2024-11-08T06:00:00	1	Precipitación	0
154668	7	Sololá	712	San Antonio Palopó	9	San Antonio Palopo	2	Febrero	2023-02-18T00:00:00	2024-11-08T06:00:00	8	Radiación solar	0
154669	7	Sololá	712	San Antonio Palopó	9	San Antonio Palopo	2	Febrero	2023-02-18T00:00:00	2024-11-08T07:00:00	2	Temperatura media	17
154670	7	Sololá	712	San Antonio Palopó	9	San Antonio Palopo	2	Febrero	2023-02-18T00:00:00	2024-11-08T07:00:00	4	Temperatura máxima	17.3
154671	7	Sololá	712	San Antonio Palopó	9	San Antonio Palopo	2	Febrero	2023-02-18T00:00:00	2024-11-08T07:00:00	3	Temperatura mínima	17
154672	7	Sololá	712	San Antonio Palopó	9	San Antonio Palopo	2	Febrero	2023-02-18T00:00:00	2024-11-08T07:00:00	5	Humedad	59
154673	7	Sololá	712	San Antonio Palopó	9	San Antonio Palopo	2	Febrero	2023-02-18T00:00:00	2024-11-08T07:00:00	6	Velocidad del viento	12.9
154674	7	Sololá	712	San Antonio Palopó	9	San Antonio Palopo	2	Febrero	2023-02-18T00:00:00	2024-11-08T07:00:00	7	Dirección del viento	12.87
154675	7	Sololá	712	San Antonio Palopó	9	San Antonio Palopo	2	Febrero	2023-02-18T00:00:00	2024-11-08T07:00:00	1	Precipitación	0
154676	7	Sololá	712	San Antonio Palopó	9	San Antonio Palopo	2	Febrero	2023-02-18T00:00:00	2024-11-08T07:00:00	8	Radiación solar	4
154677	7	Sololá	712	San Antonio Palopó	9	San Antonio Palopo	2	Febrero	2023-02-18T00:00:00	2024-11-08T08:00:00	2	Temperatura media	17.2
154678	7	Sololá	712	San Antonio Palopó	9	San Antonio Palopo	2	Febrero	2023-02-18T00:00:00	2024-11-08T08:00:00	4	Temperatura máxima	17.2
154679	7	Sololá	712	San Antonio Palopó	9	San Antonio Palopo	2	Febrero	2023-02-18T00:00:00	2024-11-08T08:00:00	3	Temperatura mínima	16.9
154680	7	Sololá	712	San Antonio Palopó	9	San Antonio Palopo	2	Febrero	2023-02-18T00:00:00	2024-11-08T08:00:00	5	Humedad	58
154681	7	Sololá	712	San Antonio Palopó	9	San Antonio Palopo	2	Febrero	2023-02-18T00:00:00	2024-11-08T08:00:00	6	Velocidad del viento	14.5
154682	7	Sololá	712	San Antonio Palopó	9	San Antonio Palopo	2	Febrero	2023-02-18T00:00:00	2024-11-08T08:00:00	7	Dirección del viento	14.48
154683	7	Sololá	712	San Antonio Palopó	9	San Antonio Palopo	2	Febrero	2023-02-18T00:00:00	2024-11-08T08:00:00	1	Precipitación	0
154684	7	Sololá	712	San Antonio Palopó	9	San Antonio Palopo	2	Febrero	2023-02-18T00:00:00	2024-11-08T08:00:00	8	Radiación solar	19
154685	7	Sololá	712	San Antonio Palopó	9	San Antonio Palopo	2	Febrero	2023-02-18T00:00:00	2024-11-08T09:00:00	2	Temperatura media	18.4
154686	7	Sololá	712	San Antonio Palopó	9	San Antonio Palopo	2	Febrero	2023-02-18T00:00:00	2024-11-08T09:00:00	4	Temperatura máxima	18.4
154687	7	Sololá	712	San Antonio Palopó	9	San Antonio Palopo	2	Febrero	2023-02-18T00:00:00	2024-11-08T09:00:00	3	Temperatura mínima	17.2
154688	7	Sololá	712	San Antonio Palopó	9	San Antonio Palopo	2	Febrero	2023-02-18T00:00:00	2024-11-08T09:00:00	5	Humedad	58
154689	7	Sololá	712	San Antonio Palopó	9	San Antonio Palopo	2	Febrero	2023-02-18T00:00:00	2024-11-08T09:00:00	6	Velocidad del viento	16.1
154690	7	Sololá	712	San Antonio Palopó	9	San Antonio Palopo	2	Febrero	2023-02-18T00:00:00	2024-11-08T09:00:00	7	Dirección del viento	16.09
154691	7	Sololá	712	San Antonio Palopó	9	San Antonio Palopo	2	Febrero	2023-02-18T00:00:00	2024-11-08T09:00:00	1	Precipitación	0
154692	7	Sololá	712	San Antonio Palopó	9	San Antonio Palopo	2	Febrero	2023-02-18T00:00:00	2024-11-08T09:00:00	8	Radiación solar	298
154693	7	Sololá	712	San Antonio Palopó	9	San Antonio Palopo	2	Febrero	2023-02-18T00:00:00	2024-11-08T10:00:00	2	Temperatura media	19.4
154694	7	Sololá	712	San Antonio Palopó	9	San Antonio Palopo	2	Febrero	2023-02-18T00:00:00	2024-11-08T10:00:00	4	Temperatura máxima	19.6
154695	7	Sololá	712	San Antonio Palopó	9	San Antonio Palopo	2	Febrero	2023-02-18T00:00:00	2024-11-08T10:00:00	3	Temperatura mínima	18.4
154696	7	Sololá	712	San Antonio Palopó	9	San Antonio Palopo	2	Febrero	2023-02-18T00:00:00	2024-11-08T10:00:00	5	Humedad	60
154697	7	Sololá	712	San Antonio Palopó	9	San Antonio Palopo	2	Febrero	2023-02-18T00:00:00	2024-11-08T10:00:00	6	Velocidad del viento	16.1
154698	7	Sololá	712	San Antonio Palopó	9	San Antonio Palopo	2	Febrero	2023-02-18T00:00:00	2024-11-08T10:00:00	7	Dirección del viento	16.09
154699	7	Sololá	712	San Antonio Palopó	9	San Antonio Palopo	2	Febrero	2023-02-18T00:00:00	2024-11-08T10:00:00	1	Precipitación	0
154700	7	Sololá	712	San Antonio Palopó	9	San Antonio Palopo	2	Febrero	2023-02-18T00:00:00	2024-11-08T10:00:00	8	Radiación solar	610
154701	7	Sololá	712	San Antonio Palopó	9	San Antonio Palopo	2	Febrero	2023-02-18T00:00:00	2024-11-08T11:00:00	2	Temperatura media	19.8
154702	7	Sololá	712	San Antonio Palopó	9	San Antonio Palopo	2	Febrero	2023-02-18T00:00:00	2024-11-08T11:00:00	4	Temperatura máxima	19.9
154703	7	Sololá	712	San Antonio Palopó	9	San Antonio Palopo	2	Febrero	2023-02-18T00:00:00	2024-11-08T11:00:00	3	Temperatura mínima	19.2
154704	7	Sololá	712	San Antonio Palopó	9	San Antonio Palopo	2	Febrero	2023-02-18T00:00:00	2024-11-08T11:00:00	5	Humedad	59
154705	7	Sololá	712	San Antonio Palopó	9	San Antonio Palopo	2	Febrero	2023-02-18T00:00:00	2024-11-08T11:00:00	6	Velocidad del viento	24.1
154706	7	Sololá	712	San Antonio Palopó	9	San Antonio Palopo	2	Febrero	2023-02-18T00:00:00	2024-11-08T11:00:00	7	Dirección del viento	24.14
154707	7	Sololá	712	San Antonio Palopó	9	San Antonio Palopo	2	Febrero	2023-02-18T00:00:00	2024-11-08T11:00:00	1	Precipitación	0
154708	7	Sololá	712	San Antonio Palopó	9	San Antonio Palopo	2	Febrero	2023-02-18T00:00:00	2024-11-08T11:00:00	8	Radiación solar	778
154709	7	Sololá	712	San Antonio Palopó	9	San Antonio Palopo	2	Febrero	2023-02-18T00:00:00	2024-11-08T12:00:00	2	Temperatura media	21.2
154710	7	Sololá	712	San Antonio Palopó	9	San Antonio Palopo	2	Febrero	2023-02-18T00:00:00	2024-11-08T12:00:00	4	Temperatura máxima	21.3
154711	7	Sololá	712	San Antonio Palopó	9	San Antonio Palopo	2	Febrero	2023-02-18T00:00:00	2024-11-08T12:00:00	3	Temperatura mínima	19.7
154712	7	Sololá	712	San Antonio Palopó	9	San Antonio Palopo	2	Febrero	2023-02-18T00:00:00	2024-11-08T12:00:00	5	Humedad	56
154713	7	Sololá	712	San Antonio Palopó	9	San Antonio Palopo	2	Febrero	2023-02-18T00:00:00	2024-11-08T12:00:00	6	Velocidad del viento	22.5
154714	7	Sololá	712	San Antonio Palopó	9	San Antonio Palopo	2	Febrero	2023-02-18T00:00:00	2024-11-08T12:00:00	7	Dirección del viento	22.53
154715	7	Sololá	712	San Antonio Palopó	9	San Antonio Palopo	2	Febrero	2023-02-18T00:00:00	2024-11-08T12:00:00	1	Precipitación	0
154716	7	Sololá	712	San Antonio Palopó	9	San Antonio Palopo	2	Febrero	2023-02-18T00:00:00	2024-11-08T12:00:00	8	Radiación solar	847
154717	7	Sololá	712	San Antonio Palopó	9	San Antonio Palopo	2	Febrero	2023-02-18T00:00:00	2024-11-08T13:00:00	2	Temperatura media	20.9
154718	7	Sololá	712	San Antonio Palopó	9	San Antonio Palopo	2	Febrero	2023-02-18T00:00:00	2024-11-08T13:00:00	4	Temperatura máxima	21.9
154719	7	Sololá	712	San Antonio Palopó	9	San Antonio Palopo	2	Febrero	2023-02-18T00:00:00	2024-11-08T13:00:00	3	Temperatura mínima	20.9
154720	7	Sololá	712	San Antonio Palopó	9	San Antonio Palopo	2	Febrero	2023-02-18T00:00:00	2024-11-08T13:00:00	5	Humedad	58
154721	7	Sololá	712	San Antonio Palopó	9	San Antonio Palopo	2	Febrero	2023-02-18T00:00:00	2024-11-08T13:00:00	6	Velocidad del viento	17.7
154722	7	Sololá	712	San Antonio Palopó	9	San Antonio Palopo	2	Febrero	2023-02-18T00:00:00	2024-11-08T13:00:00	7	Dirección del viento	17.7
154723	7	Sololá	712	San Antonio Palopó	9	San Antonio Palopo	2	Febrero	2023-02-18T00:00:00	2024-11-08T13:00:00	1	Precipitación	0
154724	7	Sololá	712	San Antonio Palopó	9	San Antonio Palopo	2	Febrero	2023-02-18T00:00:00	2024-11-08T13:00:00	8	Radiación solar	941
154725	7	Sololá	712	San Antonio Palopó	9	San Antonio Palopo	2	Febrero	2023-02-18T00:00:00	2024-11-08T14:00:00	2	Temperatura media	21.1
154726	7	Sololá	712	San Antonio Palopó	9	San Antonio Palopo	2	Febrero	2023-02-18T00:00:00	2024-11-08T14:00:00	4	Temperatura máxima	21.6
154727	7	Sololá	712	San Antonio Palopó	9	San Antonio Palopo	2	Febrero	2023-02-18T00:00:00	2024-11-08T14:00:00	3	Temperatura mínima	20.7
154728	7	Sololá	712	San Antonio Palopó	9	San Antonio Palopo	2	Febrero	2023-02-18T00:00:00	2024-11-08T14:00:00	5	Humedad	58
154729	7	Sololá	712	San Antonio Palopó	9	San Antonio Palopo	2	Febrero	2023-02-18T00:00:00	2024-11-08T14:00:00	6	Velocidad del viento	17.7
154730	7	Sololá	712	San Antonio Palopó	9	San Antonio Palopo	2	Febrero	2023-02-18T00:00:00	2024-11-08T14:00:00	7	Dirección del viento	17.7
154731	7	Sololá	712	San Antonio Palopó	9	San Antonio Palopo	2	Febrero	2023-02-18T00:00:00	2024-11-08T14:00:00	1	Precipitación	0
154732	7	Sololá	712	San Antonio Palopó	9	San Antonio Palopo	2	Febrero	2023-02-18T00:00:00	2024-11-08T14:00:00	8	Radiación solar	893
154733	7	Sololá	712	San Antonio Palopó	9	San Antonio Palopo	2	Febrero	2023-02-18T00:00:00	2024-11-08T15:00:00	2	Temperatura media	20.9
154734	7	Sololá	712	San Antonio Palopó	9	San Antonio Palopo	2	Febrero	2023-02-18T00:00:00	2024-11-08T15:00:00	4	Temperatura máxima	21.2
154735	7	Sololá	712	San Antonio Palopó	9	San Antonio Palopo	2	Febrero	2023-02-18T00:00:00	2024-11-08T15:00:00	3	Temperatura mínima	20.3
154736	7	Sololá	712	San Antonio Palopó	9	San Antonio Palopo	2	Febrero	2023-02-18T00:00:00	2024-11-08T15:00:00	5	Humedad	59
154737	7	Sololá	712	San Antonio Palopó	9	San Antonio Palopo	2	Febrero	2023-02-18T00:00:00	2024-11-08T15:00:00	6	Velocidad del viento	24.1
154738	7	Sololá	712	San Antonio Palopó	9	San Antonio Palopo	2	Febrero	2023-02-18T00:00:00	2024-11-08T15:00:00	7	Dirección del viento	24.14
154739	7	Sololá	712	San Antonio Palopó	9	San Antonio Palopo	2	Febrero	2023-02-18T00:00:00	2024-11-08T15:00:00	1	Precipitación	0
154740	7	Sololá	712	San Antonio Palopó	9	San Antonio Palopo	2	Febrero	2023-02-18T00:00:00	2024-11-08T15:00:00	8	Radiación solar	757
154741	7	Sololá	712	San Antonio Palopó	9	San Antonio Palopo	2	Febrero	2023-02-18T00:00:00	2024-11-08T16:00:00	2	Temperatura media	20.5
154742	7	Sololá	712	San Antonio Palopó	9	San Antonio Palopo	2	Febrero	2023-02-18T00:00:00	2024-11-08T16:00:00	4	Temperatura máxima	22
154743	7	Sololá	712	San Antonio Palopó	9	San Antonio Palopo	2	Febrero	2023-02-18T00:00:00	2024-11-08T16:00:00	3	Temperatura mínima	20.5
154744	7	Sololá	712	San Antonio Palopó	9	San Antonio Palopo	2	Febrero	2023-02-18T00:00:00	2024-11-08T16:00:00	5	Humedad	62
154745	7	Sololá	712	San Antonio Palopó	9	San Antonio Palopo	2	Febrero	2023-02-18T00:00:00	2024-11-08T16:00:00	6	Velocidad del viento	11.3
154746	7	Sololá	712	San Antonio Palopó	9	San Antonio Palopo	2	Febrero	2023-02-18T00:00:00	2024-11-08T16:00:00	7	Dirección del viento	11.27
154747	7	Sololá	712	San Antonio Palopó	9	San Antonio Palopo	2	Febrero	2023-02-18T00:00:00	2024-11-08T16:00:00	1	Precipitación	0
154748	7	Sololá	712	San Antonio Palopó	9	San Antonio Palopo	2	Febrero	2023-02-18T00:00:00	2024-11-08T16:00:00	8	Radiación solar	215
154749	7	Sololá	712	San Antonio Palopó	9	San Antonio Palopo	2	Febrero	2023-02-18T00:00:00	2024-11-08T17:00:00	2	Temperatura media	20.4
154750	7	Sololá	712	San Antonio Palopó	9	San Antonio Palopo	2	Febrero	2023-02-18T00:00:00	2024-11-08T17:00:00	4	Temperatura máxima	21.5
154751	7	Sololá	712	San Antonio Palopó	9	San Antonio Palopo	2	Febrero	2023-02-18T00:00:00	2024-11-08T17:00:00	3	Temperatura mínima	19.9
154752	7	Sololá	712	San Antonio Palopó	9	San Antonio Palopo	2	Febrero	2023-02-18T00:00:00	2024-11-08T17:00:00	5	Humedad	62
154753	7	Sololá	712	San Antonio Palopó	9	San Antonio Palopo	2	Febrero	2023-02-18T00:00:00	2024-11-08T17:00:00	6	Velocidad del viento	11.3
154754	7	Sololá	712	San Antonio Palopó	9	San Antonio Palopo	2	Febrero	2023-02-18T00:00:00	2024-11-08T17:00:00	7	Dirección del viento	11.27
154755	7	Sololá	712	San Antonio Palopó	9	San Antonio Palopo	2	Febrero	2023-02-18T00:00:00	2024-11-08T17:00:00	1	Precipitación	0
154756	7	Sololá	712	San Antonio Palopó	9	San Antonio Palopo	2	Febrero	2023-02-18T00:00:00	2024-11-08T17:00:00	8	Radiación solar	215
154757	7	Sololá	712	San Antonio Palopó	9	San Antonio Palopo	2	Febrero	2023-02-18T00:00:00	2024-11-08T18:00:00	2	Temperatura media	18.9
154758	7	Sololá	712	San Antonio Palopó	9	San Antonio Palopo	2	Febrero	2023-02-18T00:00:00	2024-11-08T18:00:00	4	Temperatura máxima	20.6
154759	7	Sololá	712	San Antonio Palopó	9	San Antonio Palopo	2	Febrero	2023-02-18T00:00:00	2024-11-08T18:00:00	3	Temperatura mínima	18.9
154760	7	Sololá	712	San Antonio Palopó	9	San Antonio Palopo	2	Febrero	2023-02-18T00:00:00	2024-11-08T18:00:00	5	Humedad	61
154761	7	Sololá	712	San Antonio Palopó	9	San Antonio Palopo	2	Febrero	2023-02-18T00:00:00	2024-11-08T18:00:00	6	Velocidad del viento	11.3
154762	7	Sololá	712	San Antonio Palopó	9	San Antonio Palopo	2	Febrero	2023-02-18T00:00:00	2024-11-08T18:00:00	7	Dirección del viento	11.27
154763	7	Sololá	712	San Antonio Palopó	9	San Antonio Palopo	2	Febrero	2023-02-18T00:00:00	2024-11-08T18:00:00	1	Precipitación	0
154764	7	Sololá	712	San Antonio Palopó	9	San Antonio Palopo	2	Febrero	2023-02-18T00:00:00	2024-11-08T18:00:00	8	Radiación solar	44
154765	7	Sololá	712	San Antonio Palopó	9	San Antonio Palopo	2	Febrero	2023-02-18T00:00:00	2024-11-08T19:00:00	2	Temperatura media	18.4
154766	7	Sololá	712	San Antonio Palopó	9	San Antonio Palopo	2	Febrero	2023-02-18T00:00:00	2024-11-08T19:00:00	4	Temperatura máxima	18.9
154767	7	Sololá	712	San Antonio Palopó	9	San Antonio Palopo	2	Febrero	2023-02-18T00:00:00	2024-11-08T19:00:00	3	Temperatura mínima	18.3
154768	7	Sololá	712	San Antonio Palopó	9	San Antonio Palopo	2	Febrero	2023-02-18T00:00:00	2024-11-08T19:00:00	5	Humedad	57
154769	7	Sololá	712	San Antonio Palopó	9	San Antonio Palopo	2	Febrero	2023-02-18T00:00:00	2024-11-08T19:00:00	6	Velocidad del viento	19.3
154770	7	Sololá	712	San Antonio Palopó	9	San Antonio Palopo	2	Febrero	2023-02-18T00:00:00	2024-11-08T19:00:00	7	Dirección del viento	19.31
154771	7	Sololá	712	San Antonio Palopó	9	San Antonio Palopo	2	Febrero	2023-02-18T00:00:00	2024-11-08T19:00:00	1	Precipitación	0
154772	7	Sololá	712	San Antonio Palopó	9	San Antonio Palopo	2	Febrero	2023-02-18T00:00:00	2024-11-08T19:00:00	8	Radiación solar	0
154773	7	Sololá	712	San Antonio Palopó	9	San Antonio Palopo	2	Febrero	2023-02-18T00:00:00	2024-11-08T20:00:00	2	Temperatura media	17.9
154774	7	Sololá	712	San Antonio Palopó	9	San Antonio Palopo	2	Febrero	2023-02-18T00:00:00	2024-11-08T20:00:00	4	Temperatura máxima	18.4
154775	7	Sololá	712	San Antonio Palopó	9	San Antonio Palopo	2	Febrero	2023-02-18T00:00:00	2024-11-08T20:00:00	3	Temperatura mínima	17.8
154776	7	Sololá	712	San Antonio Palopó	9	San Antonio Palopo	2	Febrero	2023-02-18T00:00:00	2024-11-08T20:00:00	5	Humedad	60
154777	7	Sololá	712	San Antonio Palopó	9	San Antonio Palopo	2	Febrero	2023-02-18T00:00:00	2024-11-08T20:00:00	6	Velocidad del viento	9.7
154778	7	Sololá	712	San Antonio Palopó	9	San Antonio Palopo	2	Febrero	2023-02-18T00:00:00	2024-11-08T20:00:00	7	Dirección del viento	9.66
154779	7	Sololá	712	San Antonio Palopó	9	San Antonio Palopo	2	Febrero	2023-02-18T00:00:00	2024-11-08T20:00:00	1	Precipitación	0
154780	7	Sololá	712	San Antonio Palopó	9	San Antonio Palopo	2	Febrero	2023-02-18T00:00:00	2024-11-08T20:00:00	8	Radiación solar	0
154781	7	Sololá	712	San Antonio Palopó	9	San Antonio Palopo	2	Febrero	2023-02-18T00:00:00	2024-11-08T21:00:00	2	Temperatura media	17.8
154782	7	Sololá	712	San Antonio Palopó	9	San Antonio Palopo	2	Febrero	2023-02-18T00:00:00	2024-11-08T21:00:00	4	Temperatura máxima	18
154783	7	Sololá	712	San Antonio Palopó	9	San Antonio Palopo	2	Febrero	2023-02-18T00:00:00	2024-11-08T21:00:00	3	Temperatura mínima	17.7
154784	7	Sololá	712	San Antonio Palopó	9	San Antonio Palopo	2	Febrero	2023-02-18T00:00:00	2024-11-08T21:00:00	5	Humedad	63
154785	7	Sololá	712	San Antonio Palopó	9	San Antonio Palopo	2	Febrero	2023-02-18T00:00:00	2024-11-08T21:00:00	6	Velocidad del viento	12.9
154786	7	Sololá	712	San Antonio Palopó	9	San Antonio Palopo	2	Febrero	2023-02-18T00:00:00	2024-11-08T21:00:00	7	Dirección del viento	12.87
154787	7	Sololá	712	San Antonio Palopó	9	San Antonio Palopo	2	Febrero	2023-02-18T00:00:00	2024-11-08T21:00:00	1	Precipitación	0
154788	7	Sololá	712	San Antonio Palopó	9	San Antonio Palopo	2	Febrero	2023-02-18T00:00:00	2024-11-08T21:00:00	8	Radiación solar	0
154789	7	Sololá	712	San Antonio Palopó	9	San Antonio Palopo	2	Febrero	2023-02-18T00:00:00	2024-11-08T22:00:00	2	Temperatura media	17.6
154790	7	Sololá	712	San Antonio Palopó	9	San Antonio Palopo	2	Febrero	2023-02-18T00:00:00	2024-11-08T22:00:00	4	Temperatura máxima	17.8
154791	7	Sololá	712	San Antonio Palopó	9	San Antonio Palopo	2	Febrero	2023-02-18T00:00:00	2024-11-08T22:00:00	3	Temperatura mínima	17.5
154792	7	Sololá	712	San Antonio Palopó	9	San Antonio Palopo	2	Febrero	2023-02-18T00:00:00	2024-11-08T22:00:00	5	Humedad	65
154793	7	Sololá	712	San Antonio Palopó	9	San Antonio Palopo	2	Febrero	2023-02-18T00:00:00	2024-11-08T22:00:00	6	Velocidad del viento	16.1
154794	7	Sololá	712	San Antonio Palopó	9	San Antonio Palopo	2	Febrero	2023-02-18T00:00:00	2024-11-08T22:00:00	7	Dirección del viento	16.09
154795	7	Sololá	712	San Antonio Palopó	9	San Antonio Palopo	2	Febrero	2023-02-18T00:00:00	2024-11-08T22:00:00	1	Precipitación	0
154796	7	Sololá	712	San Antonio Palopó	9	San Antonio Palopo	2	Febrero	2023-02-18T00:00:00	2024-11-08T22:00:00	8	Radiación solar	0
154797	7	Sololá	712	San Antonio Palopó	9	San Antonio Palopo	2	Febrero	2023-02-18T00:00:00	2024-11-08T23:00:00	2	Temperatura media	17.7
154798	7	Sololá	712	San Antonio Palopó	9	San Antonio Palopo	2	Febrero	2023-02-18T00:00:00	2024-11-08T23:00:00	4	Temperatura máxima	17.8
154799	7	Sololá	712	San Antonio Palopó	9	San Antonio Palopo	2	Febrero	2023-02-18T00:00:00	2024-11-08T23:00:00	3	Temperatura mínima	17.4
154800	7	Sololá	712	San Antonio Palopó	9	San Antonio Palopo	2	Febrero	2023-02-18T00:00:00	2024-11-08T23:00:00	5	Humedad	66
154801	7	Sololá	712	San Antonio Palopó	9	San Antonio Palopo	2	Febrero	2023-02-18T00:00:00	2024-11-08T23:00:00	6	Velocidad del viento	16.1
154802	7	Sololá	712	San Antonio Palopó	9	San Antonio Palopo	2	Febrero	2023-02-18T00:00:00	2024-11-08T23:00:00	7	Dirección del viento	16.09
154803	7	Sololá	712	San Antonio Palopó	9	San Antonio Palopo	2	Febrero	2023-02-18T00:00:00	2024-11-08T23:00:00	1	Precipitación	0
154804	7	Sololá	712	San Antonio Palopó	9	San Antonio Palopo	2	Febrero	2023-02-18T00:00:00	2024-11-08T23:00:00	8	Radiación solar	0
154805	7	Sololá	712	San Antonio Palopó	9	San Antonio Palopo	2	Febrero	2023-02-19T00:00:00	2024-11-08T00:00:00	2	Temperatura media	17.6
154806	7	Sololá	712	San Antonio Palopó	9	San Antonio Palopo	2	Febrero	2023-02-19T00:00:00	2024-11-08T00:00:00	4	Temperatura máxima	17.7
154807	7	Sololá	712	San Antonio Palopó	9	San Antonio Palopo	2	Febrero	2023-02-19T00:00:00	2024-11-08T00:00:00	3	Temperatura mínima	17.4
154808	7	Sololá	712	San Antonio Palopó	9	San Antonio Palopo	2	Febrero	2023-02-19T00:00:00	2024-11-08T00:00:00	5	Humedad	67
154809	7	Sololá	712	San Antonio Palopó	9	San Antonio Palopo	2	Febrero	2023-02-19T00:00:00	2024-11-08T00:00:00	6	Velocidad del viento	14.5
154810	7	Sololá	712	San Antonio Palopó	9	San Antonio Palopo	2	Febrero	2023-02-19T00:00:00	2024-11-08T00:00:00	7	Dirección del viento	14.48
154811	7	Sololá	712	San Antonio Palopó	9	San Antonio Palopo	2	Febrero	2023-02-19T00:00:00	2024-11-08T00:00:00	1	Precipitación	0
154812	7	Sololá	712	San Antonio Palopó	9	San Antonio Palopo	2	Febrero	2023-02-19T00:00:00	2024-11-08T00:00:00	8	Radiación solar	0
154813	7	Sololá	712	San Antonio Palopó	9	San Antonio Palopo	2	Febrero	2023-02-19T00:00:00	2024-11-08T01:00:00	2	Temperatura media	17.2
154814	7	Sololá	712	San Antonio Palopó	9	San Antonio Palopo	2	Febrero	2023-02-19T00:00:00	2024-11-08T01:00:00	4	Temperatura máxima	17.7
154815	7	Sololá	712	San Antonio Palopó	9	San Antonio Palopo	2	Febrero	2023-02-19T00:00:00	2024-11-08T01:00:00	3	Temperatura mínima	17.2
154816	7	Sololá	712	San Antonio Palopó	9	San Antonio Palopo	2	Febrero	2023-02-19T00:00:00	2024-11-08T01:00:00	5	Humedad	68
154817	7	Sololá	712	San Antonio Palopó	9	San Antonio Palopo	2	Febrero	2023-02-19T00:00:00	2024-11-08T01:00:00	6	Velocidad del viento	12.9
154818	7	Sololá	712	San Antonio Palopó	9	San Antonio Palopo	2	Febrero	2023-02-19T00:00:00	2024-11-08T01:00:00	7	Dirección del viento	12.87
154819	7	Sololá	712	San Antonio Palopó	9	San Antonio Palopo	2	Febrero	2023-02-19T00:00:00	2024-11-08T01:00:00	1	Precipitación	0
154820	7	Sololá	712	San Antonio Palopó	9	San Antonio Palopo	2	Febrero	2023-02-19T00:00:00	2024-11-08T01:00:00	8	Radiación solar	0
154821	7	Sololá	712	San Antonio Palopó	9	San Antonio Palopo	2	Febrero	2023-02-19T00:00:00	2024-11-08T02:00:00	2	Temperatura media	17.3
154822	7	Sololá	712	San Antonio Palopó	9	San Antonio Palopo	2	Febrero	2023-02-19T00:00:00	2024-11-08T02:00:00	4	Temperatura máxima	17.6
154823	7	Sololá	712	San Antonio Palopó	9	San Antonio Palopo	2	Febrero	2023-02-19T00:00:00	2024-11-08T02:00:00	3	Temperatura mínima	17.2
154824	7	Sololá	712	San Antonio Palopó	9	San Antonio Palopo	2	Febrero	2023-02-19T00:00:00	2024-11-08T02:00:00	5	Humedad	68
154825	7	Sololá	712	San Antonio Palopó	9	San Antonio Palopo	2	Febrero	2023-02-19T00:00:00	2024-11-08T02:00:00	6	Velocidad del viento	20.9
154826	7	Sololá	712	San Antonio Palopó	9	San Antonio Palopo	2	Febrero	2023-02-19T00:00:00	2024-11-08T02:00:00	7	Dirección del viento	20.92
154827	7	Sololá	712	San Antonio Palopó	9	San Antonio Palopo	2	Febrero	2023-02-19T00:00:00	2024-11-08T02:00:00	1	Precipitación	0
154828	7	Sololá	712	San Antonio Palopó	9	San Antonio Palopo	2	Febrero	2023-02-19T00:00:00	2024-11-08T02:00:00	8	Radiación solar	0
154829	7	Sololá	712	San Antonio Palopó	9	San Antonio Palopo	2	Febrero	2023-02-19T00:00:00	2024-11-08T03:00:00	2	Temperatura media	17.1
154830	7	Sololá	712	San Antonio Palopó	9	San Antonio Palopo	2	Febrero	2023-02-19T00:00:00	2024-11-08T03:00:00	4	Temperatura máxima	17.3
154831	7	Sololá	712	San Antonio Palopó	9	San Antonio Palopo	2	Febrero	2023-02-19T00:00:00	2024-11-08T03:00:00	3	Temperatura mínima	17
154832	7	Sololá	712	San Antonio Palopó	9	San Antonio Palopo	2	Febrero	2023-02-19T00:00:00	2024-11-08T03:00:00	5	Humedad	68
154833	7	Sololá	712	San Antonio Palopó	9	San Antonio Palopo	2	Febrero	2023-02-19T00:00:00	2024-11-08T03:00:00	6	Velocidad del viento	12.9
154834	7	Sololá	712	San Antonio Palopó	9	San Antonio Palopo	2	Febrero	2023-02-19T00:00:00	2024-11-08T03:00:00	7	Dirección del viento	12.87
154835	7	Sololá	712	San Antonio Palopó	9	San Antonio Palopo	2	Febrero	2023-02-19T00:00:00	2024-11-08T03:00:00	1	Precipitación	0
154836	7	Sololá	712	San Antonio Palopó	9	San Antonio Palopo	2	Febrero	2023-02-19T00:00:00	2024-11-08T03:00:00	8	Radiación solar	0
154837	7	Sololá	712	San Antonio Palopó	9	San Antonio Palopo	2	Febrero	2023-02-19T00:00:00	2024-11-08T04:00:00	2	Temperatura media	17.1
154838	7	Sololá	712	San Antonio Palopó	9	San Antonio Palopo	2	Febrero	2023-02-19T00:00:00	2024-11-08T04:00:00	4	Temperatura máxima	17.3
154839	7	Sololá	712	San Antonio Palopó	9	San Antonio Palopo	2	Febrero	2023-02-19T00:00:00	2024-11-08T04:00:00	3	Temperatura mínima	17
154840	7	Sololá	712	San Antonio Palopó	9	San Antonio Palopo	2	Febrero	2023-02-19T00:00:00	2024-11-08T04:00:00	5	Humedad	68
154841	7	Sololá	712	San Antonio Palopó	9	San Antonio Palopo	2	Febrero	2023-02-19T00:00:00	2024-11-08T04:00:00	6	Velocidad del viento	14.5
154842	7	Sololá	712	San Antonio Palopó	9	San Antonio Palopo	2	Febrero	2023-02-19T00:00:00	2024-11-08T04:00:00	7	Dirección del viento	14.48
154843	7	Sololá	712	San Antonio Palopó	9	San Antonio Palopo	2	Febrero	2023-02-19T00:00:00	2024-11-08T04:00:00	1	Precipitación	0
154844	7	Sololá	712	San Antonio Palopó	9	San Antonio Palopo	2	Febrero	2023-02-19T00:00:00	2024-11-08T04:00:00	8	Radiación solar	0
154845	7	Sololá	712	San Antonio Palopó	9	San Antonio Palopo	2	Febrero	2023-02-19T00:00:00	2024-11-08T05:00:00	2	Temperatura media	16.8
154846	7	Sololá	712	San Antonio Palopó	9	San Antonio Palopo	2	Febrero	2023-02-19T00:00:00	2024-11-08T05:00:00	4	Temperatura máxima	17.2
154847	7	Sololá	712	San Antonio Palopó	9	San Antonio Palopo	2	Febrero	2023-02-19T00:00:00	2024-11-08T05:00:00	3	Temperatura mínima	16.7
154848	7	Sololá	712	San Antonio Palopó	9	San Antonio Palopo	2	Febrero	2023-02-19T00:00:00	2024-11-08T05:00:00	5	Humedad	68
154849	7	Sololá	712	San Antonio Palopó	9	San Antonio Palopo	2	Febrero	2023-02-19T00:00:00	2024-11-08T05:00:00	6	Velocidad del viento	17.7
154850	7	Sololá	712	San Antonio Palopó	9	San Antonio Palopo	2	Febrero	2023-02-19T00:00:00	2024-11-08T05:00:00	7	Dirección del viento	17.7
154851	7	Sololá	712	San Antonio Palopó	9	San Antonio Palopo	2	Febrero	2023-02-19T00:00:00	2024-11-08T05:00:00	1	Precipitación	0
154852	7	Sololá	712	San Antonio Palopó	9	San Antonio Palopo	2	Febrero	2023-02-19T00:00:00	2024-11-08T05:00:00	8	Radiación solar	0
154853	7	Sololá	712	San Antonio Palopó	9	San Antonio Palopo	2	Febrero	2023-02-19T00:00:00	2024-11-08T06:00:00	2	Temperatura media	17.1
154854	7	Sololá	712	San Antonio Palopó	9	San Antonio Palopo	2	Febrero	2023-02-19T00:00:00	2024-11-08T06:00:00	4	Temperatura máxima	17.1
154855	7	Sololá	712	San Antonio Palopó	9	San Antonio Palopo	2	Febrero	2023-02-19T00:00:00	2024-11-08T06:00:00	3	Temperatura mínima	16.8
154856	7	Sololá	712	San Antonio Palopó	9	San Antonio Palopo	2	Febrero	2023-02-19T00:00:00	2024-11-08T06:00:00	5	Humedad	68
154857	7	Sololá	712	San Antonio Palopó	9	San Antonio Palopo	2	Febrero	2023-02-19T00:00:00	2024-11-08T06:00:00	6	Velocidad del viento	11.3
154858	7	Sololá	712	San Antonio Palopó	9	San Antonio Palopo	2	Febrero	2023-02-19T00:00:00	2024-11-08T06:00:00	7	Dirección del viento	11.27
154859	7	Sololá	712	San Antonio Palopó	9	San Antonio Palopo	2	Febrero	2023-02-19T00:00:00	2024-11-08T06:00:00	1	Precipitación	0
154860	7	Sololá	712	San Antonio Palopó	9	San Antonio Palopo	2	Febrero	2023-02-19T00:00:00	2024-11-08T06:00:00	8	Radiación solar	0
154861	7	Sololá	712	San Antonio Palopó	9	San Antonio Palopo	2	Febrero	2023-02-19T00:00:00	2024-11-08T07:00:00	2	Temperatura media	17.1
154862	7	Sololá	712	San Antonio Palopó	9	San Antonio Palopo	2	Febrero	2023-02-19T00:00:00	2024-11-08T07:00:00	4	Temperatura máxima	17.3
154863	7	Sololá	712	San Antonio Palopó	9	San Antonio Palopo	2	Febrero	2023-02-19T00:00:00	2024-11-08T07:00:00	3	Temperatura mínima	16.9
154864	7	Sololá	712	San Antonio Palopó	9	San Antonio Palopo	2	Febrero	2023-02-19T00:00:00	2024-11-08T07:00:00	5	Humedad	69
154865	7	Sololá	712	San Antonio Palopó	9	San Antonio Palopo	2	Febrero	2023-02-19T00:00:00	2024-11-08T07:00:00	6	Velocidad del viento	14.5
154866	7	Sololá	712	San Antonio Palopó	9	San Antonio Palopo	2	Febrero	2023-02-19T00:00:00	2024-11-08T07:00:00	7	Dirección del viento	14.48
154867	7	Sololá	712	San Antonio Palopó	9	San Antonio Palopo	2	Febrero	2023-02-19T00:00:00	2024-11-08T07:00:00	1	Precipitación	0
154868	7	Sololá	712	San Antonio Palopó	9	San Antonio Palopo	2	Febrero	2023-02-19T00:00:00	2024-11-08T07:00:00	8	Radiación solar	5
154869	7	Sololá	712	San Antonio Palopó	9	San Antonio Palopo	2	Febrero	2023-02-19T00:00:00	2024-11-08T08:00:00	2	Temperatura media	17.8
154870	7	Sololá	712	San Antonio Palopó	9	San Antonio Palopo	2	Febrero	2023-02-19T00:00:00	2024-11-08T08:00:00	4	Temperatura máxima	17.9
154871	7	Sololá	712	San Antonio Palopó	9	San Antonio Palopo	2	Febrero	2023-02-19T00:00:00	2024-11-08T08:00:00	3	Temperatura mínima	16.8
154872	7	Sololá	712	San Antonio Palopó	9	San Antonio Palopo	2	Febrero	2023-02-19T00:00:00	2024-11-08T08:00:00	5	Humedad	64
154873	7	Sololá	712	San Antonio Palopó	9	San Antonio Palopo	2	Febrero	2023-02-19T00:00:00	2024-11-08T08:00:00	6	Velocidad del viento	11.3
154874	7	Sololá	712	San Antonio Palopó	9	San Antonio Palopo	2	Febrero	2023-02-19T00:00:00	2024-11-08T08:00:00	7	Dirección del viento	11.27
154875	7	Sololá	712	San Antonio Palopó	9	San Antonio Palopo	2	Febrero	2023-02-19T00:00:00	2024-11-08T08:00:00	1	Precipitación	0
154876	7	Sololá	712	San Antonio Palopó	9	San Antonio Palopo	2	Febrero	2023-02-19T00:00:00	2024-11-08T08:00:00	8	Radiación solar	24
154877	7	Sololá	712	San Antonio Palopó	9	San Antonio Palopo	2	Febrero	2023-02-19T00:00:00	2024-11-08T09:00:00	2	Temperatura media	19.6
154878	7	Sololá	712	San Antonio Palopó	9	San Antonio Palopo	2	Febrero	2023-02-19T00:00:00	2024-11-08T09:00:00	4	Temperatura máxima	19.8
154879	7	Sololá	712	San Antonio Palopó	9	San Antonio Palopo	2	Febrero	2023-02-19T00:00:00	2024-11-08T09:00:00	3	Temperatura mínima	17.8
154880	7	Sololá	712	San Antonio Palopó	9	San Antonio Palopo	2	Febrero	2023-02-19T00:00:00	2024-11-08T09:00:00	5	Humedad	62
154881	7	Sololá	712	San Antonio Palopó	9	San Antonio Palopo	2	Febrero	2023-02-19T00:00:00	2024-11-08T09:00:00	6	Velocidad del viento	12.9
154882	7	Sololá	712	San Antonio Palopó	9	San Antonio Palopo	2	Febrero	2023-02-19T00:00:00	2024-11-08T09:00:00	7	Dirección del viento	12.87
154883	7	Sololá	712	San Antonio Palopó	9	San Antonio Palopo	2	Febrero	2023-02-19T00:00:00	2024-11-08T09:00:00	1	Precipitación	0
154884	7	Sololá	712	San Antonio Palopó	9	San Antonio Palopo	2	Febrero	2023-02-19T00:00:00	2024-11-08T09:00:00	8	Radiación solar	356
154885	7	Sololá	712	San Antonio Palopó	9	San Antonio Palopo	2	Febrero	2023-02-19T00:00:00	2024-11-08T10:00:00	2	Temperatura media	18.9
154886	7	Sololá	712	San Antonio Palopó	9	San Antonio Palopo	2	Febrero	2023-02-19T00:00:00	2024-11-08T10:00:00	4	Temperatura máxima	19.6
154887	7	Sololá	712	San Antonio Palopó	9	San Antonio Palopo	2	Febrero	2023-02-19T00:00:00	2024-11-08T10:00:00	3	Temperatura mínima	18
154888	7	Sololá	712	San Antonio Palopó	9	San Antonio Palopo	2	Febrero	2023-02-19T00:00:00	2024-11-08T10:00:00	5	Humedad	63
154889	7	Sololá	712	San Antonio Palopó	9	San Antonio Palopo	2	Febrero	2023-02-19T00:00:00	2024-11-08T10:00:00	6	Velocidad del viento	14.5
154890	7	Sololá	712	San Antonio Palopó	9	San Antonio Palopo	2	Febrero	2023-02-19T00:00:00	2024-11-08T10:00:00	7	Dirección del viento	14.48
154891	7	Sololá	712	San Antonio Palopó	9	San Antonio Palopo	2	Febrero	2023-02-19T00:00:00	2024-11-08T10:00:00	1	Precipitación	0
154892	7	Sololá	712	San Antonio Palopó	9	San Antonio Palopo	2	Febrero	2023-02-19T00:00:00	2024-11-08T10:00:00	8	Radiación solar	168
154893	7	Sololá	712	San Antonio Palopó	9	San Antonio Palopo	2	Febrero	2023-02-19T00:00:00	2024-11-08T11:00:00	2	Temperatura media	19.9
154894	7	Sololá	712	San Antonio Palopó	9	San Antonio Palopo	2	Febrero	2023-02-19T00:00:00	2024-11-08T11:00:00	4	Temperatura máxima	20
154895	7	Sololá	712	San Antonio Palopó	9	San Antonio Palopo	2	Febrero	2023-02-19T00:00:00	2024-11-08T11:00:00	3	Temperatura mínima	18.9
154896	7	Sololá	712	San Antonio Palopó	9	San Antonio Palopo	2	Febrero	2023-02-19T00:00:00	2024-11-08T11:00:00	5	Humedad	60
154897	7	Sololá	712	San Antonio Palopó	9	San Antonio Palopo	2	Febrero	2023-02-19T00:00:00	2024-11-08T11:00:00	6	Velocidad del viento	16.1
154898	7	Sololá	712	San Antonio Palopó	9	San Antonio Palopo	2	Febrero	2023-02-19T00:00:00	2024-11-08T11:00:00	7	Dirección del viento	16.09
154899	7	Sololá	712	San Antonio Palopó	9	San Antonio Palopo	2	Febrero	2023-02-19T00:00:00	2024-11-08T11:00:00	1	Precipitación	0
154900	7	Sololá	712	San Antonio Palopó	9	San Antonio Palopo	2	Febrero	2023-02-19T00:00:00	2024-11-08T11:00:00	8	Radiación solar	429
154901	7	Sololá	712	San Antonio Palopó	9	San Antonio Palopo	2	Febrero	2023-02-19T00:00:00	2024-11-08T12:00:00	2	Temperatura media	20.1
154902	7	Sololá	712	San Antonio Palopó	9	San Antonio Palopo	2	Febrero	2023-02-19T00:00:00	2024-11-08T12:00:00	4	Temperatura máxima	20.6
154903	7	Sololá	712	San Antonio Palopó	9	San Antonio Palopo	2	Febrero	2023-02-19T00:00:00	2024-11-08T12:00:00	3	Temperatura mínima	19.9
154904	7	Sololá	712	San Antonio Palopó	9	San Antonio Palopo	2	Febrero	2023-02-19T00:00:00	2024-11-08T12:00:00	5	Humedad	61
154905	7	Sololá	712	San Antonio Palopó	9	San Antonio Palopo	2	Febrero	2023-02-19T00:00:00	2024-11-08T12:00:00	6	Velocidad del viento	19.3
154906	7	Sololá	712	San Antonio Palopó	9	San Antonio Palopo	2	Febrero	2023-02-19T00:00:00	2024-11-08T12:00:00	7	Dirección del viento	19.31
154907	7	Sololá	712	San Antonio Palopó	9	San Antonio Palopo	2	Febrero	2023-02-19T00:00:00	2024-11-08T12:00:00	1	Precipitación	0
154908	7	Sololá	712	San Antonio Palopó	9	San Antonio Palopo	2	Febrero	2023-02-19T00:00:00	2024-11-08T12:00:00	8	Radiación solar	847
154909	7	Sololá	712	San Antonio Palopó	9	San Antonio Palopo	2	Febrero	2023-02-19T00:00:00	2024-11-08T13:00:00	2	Temperatura media	21.1
154910	7	Sololá	712	San Antonio Palopó	9	San Antonio Palopo	2	Febrero	2023-02-19T00:00:00	2024-11-08T13:00:00	4	Temperatura máxima	21.1
154911	7	Sololá	712	San Antonio Palopó	9	San Antonio Palopo	2	Febrero	2023-02-19T00:00:00	2024-11-08T13:00:00	3	Temperatura mínima	19.8
154912	7	Sololá	712	San Antonio Palopó	9	San Antonio Palopo	2	Febrero	2023-02-19T00:00:00	2024-11-08T13:00:00	5	Humedad	58
154913	7	Sololá	712	San Antonio Palopó	9	San Antonio Palopo	2	Febrero	2023-02-19T00:00:00	2024-11-08T13:00:00	6	Velocidad del viento	17.7
154914	7	Sololá	712	San Antonio Palopó	9	San Antonio Palopo	2	Febrero	2023-02-19T00:00:00	2024-11-08T13:00:00	7	Dirección del viento	17.7
154915	7	Sololá	712	San Antonio Palopó	9	San Antonio Palopo	2	Febrero	2023-02-19T00:00:00	2024-11-08T13:00:00	1	Precipitación	0
154916	7	Sololá	712	San Antonio Palopó	9	San Antonio Palopo	2	Febrero	2023-02-19T00:00:00	2024-11-08T13:00:00	8	Radiación solar	976
154917	7	Sololá	712	San Antonio Palopó	9	San Antonio Palopo	2	Febrero	2023-02-19T00:00:00	2024-11-08T14:00:00	2	Temperatura media	20.3
154918	7	Sololá	712	San Antonio Palopó	9	San Antonio Palopo	2	Febrero	2023-02-19T00:00:00	2024-11-08T14:00:00	4	Temperatura máxima	21.3
154919	7	Sololá	712	San Antonio Palopó	9	San Antonio Palopo	2	Febrero	2023-02-19T00:00:00	2024-11-08T14:00:00	3	Temperatura mínima	20.1
154920	7	Sololá	712	San Antonio Palopó	9	San Antonio Palopo	2	Febrero	2023-02-19T00:00:00	2024-11-08T14:00:00	5	Humedad	61
154921	7	Sololá	712	San Antonio Palopó	9	San Antonio Palopo	2	Febrero	2023-02-19T00:00:00	2024-11-08T14:00:00	6	Velocidad del viento	20.9
154922	7	Sololá	712	San Antonio Palopó	9	San Antonio Palopo	2	Febrero	2023-02-19T00:00:00	2024-11-08T14:00:00	7	Dirección del viento	20.92
154923	7	Sololá	712	San Antonio Palopó	9	San Antonio Palopo	2	Febrero	2023-02-19T00:00:00	2024-11-08T14:00:00	1	Precipitación	0
154924	7	Sololá	712	San Antonio Palopó	9	San Antonio Palopo	2	Febrero	2023-02-19T00:00:00	2024-11-08T14:00:00	8	Radiación solar	898
154925	7	Sololá	712	San Antonio Palopó	9	San Antonio Palopo	2	Febrero	2023-02-19T00:00:00	2024-11-08T15:00:00	2	Temperatura media	23.6
154926	7	Sololá	712	San Antonio Palopó	9	San Antonio Palopo	2	Febrero	2023-02-19T00:00:00	2024-11-08T15:00:00	4	Temperatura máxima	24.1
154927	7	Sololá	712	San Antonio Palopó	9	San Antonio Palopo	2	Febrero	2023-02-19T00:00:00	2024-11-08T15:00:00	3	Temperatura mínima	20.3
154928	7	Sololá	712	San Antonio Palopó	9	San Antonio Palopo	2	Febrero	2023-02-19T00:00:00	2024-11-08T15:00:00	5	Humedad	49
154929	7	Sololá	712	San Antonio Palopó	9	San Antonio Palopo	2	Febrero	2023-02-19T00:00:00	2024-11-08T15:00:00	6	Velocidad del viento	12.9
154930	7	Sololá	712	San Antonio Palopó	9	San Antonio Palopo	2	Febrero	2023-02-19T00:00:00	2024-11-08T15:00:00	7	Dirección del viento	12.87
154931	7	Sololá	712	San Antonio Palopó	9	San Antonio Palopo	2	Febrero	2023-02-19T00:00:00	2024-11-08T15:00:00	1	Precipitación	0
154932	7	Sololá	712	San Antonio Palopó	9	San Antonio Palopo	2	Febrero	2023-02-19T00:00:00	2024-11-08T15:00:00	8	Radiación solar	713
154933	7	Sololá	712	San Antonio Palopó	9	San Antonio Palopo	2	Febrero	2023-02-19T00:00:00	2024-11-08T16:00:00	2	Temperatura media	22.7
154934	7	Sololá	712	San Antonio Palopó	9	San Antonio Palopo	2	Febrero	2023-02-19T00:00:00	2024-11-08T16:00:00	4	Temperatura máxima	23.7
154935	7	Sololá	712	San Antonio Palopó	9	San Antonio Palopo	2	Febrero	2023-02-19T00:00:00	2024-11-08T16:00:00	3	Temperatura mínima	22.2
154936	7	Sololá	712	San Antonio Palopó	9	San Antonio Palopo	2	Febrero	2023-02-19T00:00:00	2024-11-08T16:00:00	5	Humedad	50
154937	7	Sololá	712	San Antonio Palopó	9	San Antonio Palopo	2	Febrero	2023-02-19T00:00:00	2024-11-08T16:00:00	6	Velocidad del viento	16.1
154938	7	Sololá	712	San Antonio Palopó	9	San Antonio Palopo	2	Febrero	2023-02-19T00:00:00	2024-11-08T16:00:00	7	Dirección del viento	16.09
154939	7	Sololá	712	San Antonio Palopó	9	San Antonio Palopo	2	Febrero	2023-02-19T00:00:00	2024-11-08T16:00:00	1	Precipitación	0
154940	7	Sololá	712	San Antonio Palopó	9	San Antonio Palopo	2	Febrero	2023-02-19T00:00:00	2024-11-08T16:00:00	8	Radiación solar	535
154941	7	Sololá	712	San Antonio Palopó	9	San Antonio Palopo	2	Febrero	2023-02-19T00:00:00	2024-11-08T17:00:00	2	Temperatura media	22.1
154942	7	Sololá	712	San Antonio Palopó	9	San Antonio Palopo	2	Febrero	2023-02-19T00:00:00	2024-11-08T17:00:00	4	Temperatura máxima	23.9
154943	7	Sololá	712	San Antonio Palopó	9	San Antonio Palopo	2	Febrero	2023-02-19T00:00:00	2024-11-08T17:00:00	3	Temperatura mínima	21.9
154944	7	Sololá	712	San Antonio Palopó	9	San Antonio Palopo	2	Febrero	2023-02-19T00:00:00	2024-11-08T17:00:00	5	Humedad	52
154945	7	Sololá	712	San Antonio Palopó	9	San Antonio Palopo	2	Febrero	2023-02-19T00:00:00	2024-11-08T17:00:00	6	Velocidad del viento	12.9
154946	7	Sololá	712	San Antonio Palopó	9	San Antonio Palopo	2	Febrero	2023-02-19T00:00:00	2024-11-08T17:00:00	7	Dirección del viento	12.87
154947	7	Sololá	712	San Antonio Palopó	9	San Antonio Palopo	2	Febrero	2023-02-19T00:00:00	2024-11-08T17:00:00	1	Precipitación	0
154948	7	Sololá	712	San Antonio Palopó	9	San Antonio Palopo	2	Febrero	2023-02-19T00:00:00	2024-11-08T17:00:00	8	Radiación solar	252
154949	7	Sololá	712	San Antonio Palopó	9	San Antonio Palopo	2	Febrero	2023-02-19T00:00:00	2024-11-08T18:00:00	2	Temperatura media	20.3
154950	7	Sololá	712	San Antonio Palopó	9	San Antonio Palopo	2	Febrero	2023-02-19T00:00:00	2024-11-08T18:00:00	4	Temperatura máxima	22.1
154951	7	Sololá	712	San Antonio Palopó	9	San Antonio Palopo	2	Febrero	2023-02-19T00:00:00	2024-11-08T18:00:00	3	Temperatura mínima	20.3
154952	7	Sololá	712	San Antonio Palopó	9	San Antonio Palopo	2	Febrero	2023-02-19T00:00:00	2024-11-08T18:00:00	5	Humedad	57
154953	7	Sololá	712	San Antonio Palopó	9	San Antonio Palopo	2	Febrero	2023-02-19T00:00:00	2024-11-08T18:00:00	6	Velocidad del viento	9.7
154954	7	Sololá	712	San Antonio Palopó	9	San Antonio Palopo	2	Febrero	2023-02-19T00:00:00	2024-11-08T18:00:00	7	Dirección del viento	9.66
154955	7	Sololá	712	San Antonio Palopó	9	San Antonio Palopo	2	Febrero	2023-02-19T00:00:00	2024-11-08T18:00:00	1	Precipitación	0
154956	7	Sololá	712	San Antonio Palopó	9	San Antonio Palopo	2	Febrero	2023-02-19T00:00:00	2024-11-08T18:00:00	8	Radiación solar	21
154957	7	Sololá	712	San Antonio Palopó	9	San Antonio Palopo	2	Febrero	2023-02-19T00:00:00	2024-11-08T19:00:00	2	Temperatura media	18.9
154958	7	Sololá	712	San Antonio Palopó	9	San Antonio Palopo	2	Febrero	2023-02-19T00:00:00	2024-11-08T19:00:00	4	Temperatura máxima	20.3
154959	7	Sololá	712	San Antonio Palopó	9	San Antonio Palopo	2	Febrero	2023-02-19T00:00:00	2024-11-08T19:00:00	3	Temperatura mínima	18.9
154960	7	Sololá	712	San Antonio Palopó	9	San Antonio Palopo	2	Febrero	2023-02-19T00:00:00	2024-11-08T19:00:00	5	Humedad	64
154961	7	Sololá	712	San Antonio Palopó	9	San Antonio Palopo	2	Febrero	2023-02-19T00:00:00	2024-11-08T19:00:00	6	Velocidad del viento	11.3
154962	7	Sololá	712	San Antonio Palopó	9	San Antonio Palopo	2	Febrero	2023-02-19T00:00:00	2024-11-08T19:00:00	7	Dirección del viento	11.27
154963	7	Sololá	712	San Antonio Palopó	9	San Antonio Palopo	2	Febrero	2023-02-19T00:00:00	2024-11-08T19:00:00	1	Precipitación	0
154964	7	Sololá	712	San Antonio Palopó	9	San Antonio Palopo	2	Febrero	2023-02-19T00:00:00	2024-11-08T19:00:00	8	Radiación solar	0
154965	7	Sololá	712	San Antonio Palopó	9	San Antonio Palopo	2	Febrero	2023-02-19T00:00:00	2024-11-08T20:00:00	2	Temperatura media	18.4
154966	7	Sololá	712	San Antonio Palopó	9	San Antonio Palopo	2	Febrero	2023-02-19T00:00:00	2024-11-08T20:00:00	4	Temperatura máxima	18.9
154967	7	Sololá	712	San Antonio Palopó	9	San Antonio Palopo	2	Febrero	2023-02-19T00:00:00	2024-11-08T20:00:00	3	Temperatura mínima	18.3
154968	7	Sololá	712	San Antonio Palopó	9	San Antonio Palopo	2	Febrero	2023-02-19T00:00:00	2024-11-08T20:00:00	5	Humedad	64
154969	7	Sololá	712	San Antonio Palopó	9	San Antonio Palopo	2	Febrero	2023-02-19T00:00:00	2024-11-08T20:00:00	6	Velocidad del viento	16.1
154970	7	Sololá	712	San Antonio Palopó	9	San Antonio Palopo	2	Febrero	2023-02-19T00:00:00	2024-11-08T20:00:00	7	Dirección del viento	16.09
154971	7	Sololá	712	San Antonio Palopó	9	San Antonio Palopo	2	Febrero	2023-02-19T00:00:00	2024-11-08T20:00:00	1	Precipitación	0
154972	7	Sololá	712	San Antonio Palopó	9	San Antonio Palopo	2	Febrero	2023-02-19T00:00:00	2024-11-08T20:00:00	8	Radiación solar	0
154973	7	Sololá	712	San Antonio Palopó	9	San Antonio Palopo	2	Febrero	2023-02-19T00:00:00	2024-11-08T21:00:00	2	Temperatura media	17.9
154974	7	Sololá	712	San Antonio Palopó	9	San Antonio Palopo	2	Febrero	2023-02-19T00:00:00	2024-11-08T21:00:00	4	Temperatura máxima	18.4
154975	7	Sololá	712	San Antonio Palopó	9	San Antonio Palopo	2	Febrero	2023-02-19T00:00:00	2024-11-08T21:00:00	3	Temperatura mínima	17.8
154976	7	Sololá	712	San Antonio Palopó	9	San Antonio Palopo	2	Febrero	2023-02-19T00:00:00	2024-11-08T21:00:00	5	Humedad	67
154977	7	Sololá	712	San Antonio Palopó	9	San Antonio Palopo	2	Febrero	2023-02-19T00:00:00	2024-11-08T21:00:00	6	Velocidad del viento	11.3
154978	7	Sololá	712	San Antonio Palopó	9	San Antonio Palopo	2	Febrero	2023-02-19T00:00:00	2024-11-08T21:00:00	7	Dirección del viento	11.27
154979	7	Sololá	712	San Antonio Palopó	9	San Antonio Palopo	2	Febrero	2023-02-19T00:00:00	2024-11-08T21:00:00	1	Precipitación	0
154980	7	Sololá	712	San Antonio Palopó	9	San Antonio Palopo	2	Febrero	2023-02-19T00:00:00	2024-11-08T21:00:00	8	Radiación solar	0
154981	7	Sololá	712	San Antonio Palopó	9	San Antonio Palopo	2	Febrero	2023-02-19T00:00:00	2024-11-08T22:00:00	2	Temperatura media	17.9
154982	7	Sololá	712	San Antonio Palopó	9	San Antonio Palopo	2	Febrero	2023-02-19T00:00:00	2024-11-08T22:00:00	4	Temperatura máxima	17.9
154983	7	Sololá	712	San Antonio Palopó	9	San Antonio Palopo	2	Febrero	2023-02-19T00:00:00	2024-11-08T22:00:00	3	Temperatura mínima	17.6
154984	7	Sololá	712	San Antonio Palopó	9	San Antonio Palopo	2	Febrero	2023-02-19T00:00:00	2024-11-08T22:00:00	5	Humedad	59
154985	7	Sololá	712	San Antonio Palopó	9	San Antonio Palopo	2	Febrero	2023-02-19T00:00:00	2024-11-08T22:00:00	6	Velocidad del viento	17.7
154986	7	Sololá	712	San Antonio Palopó	9	San Antonio Palopo	2	Febrero	2023-02-19T00:00:00	2024-11-08T22:00:00	7	Dirección del viento	17.7
154987	7	Sololá	712	San Antonio Palopó	9	San Antonio Palopo	2	Febrero	2023-02-19T00:00:00	2024-11-08T22:00:00	1	Precipitación	0
154988	7	Sololá	712	San Antonio Palopó	9	San Antonio Palopo	2	Febrero	2023-02-19T00:00:00	2024-11-08T22:00:00	8	Radiación solar	0
154989	7	Sololá	712	San Antonio Palopó	9	San Antonio Palopo	2	Febrero	2023-02-19T00:00:00	2024-11-08T23:00:00	2	Temperatura media	17.2
154990	7	Sololá	712	San Antonio Palopó	9	San Antonio Palopo	2	Febrero	2023-02-19T00:00:00	2024-11-08T23:00:00	4	Temperatura máxima	17.9
154991	7	Sololá	712	San Antonio Palopó	9	San Antonio Palopo	2	Febrero	2023-02-19T00:00:00	2024-11-08T23:00:00	3	Temperatura mínima	17.2
154992	7	Sololá	712	San Antonio Palopó	9	San Antonio Palopo	2	Febrero	2023-02-19T00:00:00	2024-11-08T23:00:00	5	Humedad	60
154993	7	Sololá	712	San Antonio Palopó	9	San Antonio Palopo	2	Febrero	2023-02-19T00:00:00	2024-11-08T23:00:00	6	Velocidad del viento	9.7
154994	7	Sololá	712	San Antonio Palopó	9	San Antonio Palopo	2	Febrero	2023-02-19T00:00:00	2024-11-08T23:00:00	7	Dirección del viento	9.66
154995	7	Sololá	712	San Antonio Palopó	9	San Antonio Palopo	2	Febrero	2023-02-19T00:00:00	2024-11-08T23:00:00	1	Precipitación	0
154996	7	Sololá	712	San Antonio Palopó	9	San Antonio Palopo	2	Febrero	2023-02-19T00:00:00	2024-11-08T23:00:00	8	Radiación solar	0
154997	7	Sololá	712	San Antonio Palopó	9	San Antonio Palopo	2	Febrero	2023-02-20T00:00:00	2024-11-08T00:00:00	2	Temperatura media	15.8
154998	7	Sololá	712	San Antonio Palopó	9	San Antonio Palopo	2	Febrero	2023-02-20T00:00:00	2024-11-08T00:00:00	4	Temperatura máxima	17.6
154999	7	Sololá	712	San Antonio Palopó	9	San Antonio Palopo	2	Febrero	2023-02-20T00:00:00	2024-11-08T00:00:00	3	Temperatura mínima	15.8
155000	7	Sololá	712	San Antonio Palopó	9	San Antonio Palopo	2	Febrero	2023-02-20T00:00:00	2024-11-08T00:00:00	5	Humedad	60
155001	7	Sololá	712	San Antonio Palopó	9	San Antonio Palopo	2	Febrero	2023-02-20T00:00:00	2024-11-08T00:00:00	6	Velocidad del viento	4.8
155002	7	Sololá	712	San Antonio Palopó	9	San Antonio Palopo	2	Febrero	2023-02-20T00:00:00	2024-11-08T00:00:00	7	Dirección del viento	4.83
155003	7	Sololá	712	San Antonio Palopó	9	San Antonio Palopo	2	Febrero	2023-02-20T00:00:00	2024-11-08T00:00:00	1	Precipitación	0
155004	7	Sololá	712	San Antonio Palopó	9	San Antonio Palopo	2	Febrero	2023-02-20T00:00:00	2024-11-08T00:00:00	8	Radiación solar	0
155005	7	Sololá	712	San Antonio Palopó	9	San Antonio Palopo	2	Febrero	2023-02-20T00:00:00	2024-11-08T01:00:00	2	Temperatura media	16.8
155006	7	Sololá	712	San Antonio Palopó	9	San Antonio Palopo	2	Febrero	2023-02-20T00:00:00	2024-11-08T01:00:00	4	Temperatura máxima	17.1
155007	7	Sololá	712	San Antonio Palopó	9	San Antonio Palopo	2	Febrero	2023-02-20T00:00:00	2024-11-08T01:00:00	3	Temperatura mínima	15.8
155008	7	Sololá	712	San Antonio Palopó	9	San Antonio Palopo	2	Febrero	2023-02-20T00:00:00	2024-11-08T01:00:00	5	Humedad	56
155009	7	Sololá	712	San Antonio Palopó	9	San Antonio Palopo	2	Febrero	2023-02-20T00:00:00	2024-11-08T01:00:00	6	Velocidad del viento	4.8
155010	7	Sololá	712	San Antonio Palopó	9	San Antonio Palopo	2	Febrero	2023-02-20T00:00:00	2024-11-08T01:00:00	7	Dirección del viento	4.83
155011	7	Sololá	712	San Antonio Palopó	9	San Antonio Palopo	2	Febrero	2023-02-20T00:00:00	2024-11-08T01:00:00	1	Precipitación	0
155012	7	Sololá	712	San Antonio Palopó	9	San Antonio Palopo	2	Febrero	2023-02-20T00:00:00	2024-11-08T01:00:00	8	Radiación solar	0
155013	7	Sololá	712	San Antonio Palopó	9	San Antonio Palopo	2	Febrero	2023-02-20T00:00:00	2024-11-08T02:00:00	2	Temperatura media	16.9
155014	7	Sololá	712	San Antonio Palopó	9	San Antonio Palopo	2	Febrero	2023-02-20T00:00:00	2024-11-08T02:00:00	4	Temperatura máxima	17.3
155015	7	Sololá	712	San Antonio Palopó	9	San Antonio Palopo	2	Febrero	2023-02-20T00:00:00	2024-11-08T02:00:00	3	Temperatura mínima	16.6
155016	7	Sololá	712	San Antonio Palopó	9	San Antonio Palopo	2	Febrero	2023-02-20T00:00:00	2024-11-08T02:00:00	5	Humedad	58
155017	7	Sololá	712	San Antonio Palopó	9	San Antonio Palopo	2	Febrero	2023-02-20T00:00:00	2024-11-08T02:00:00	6	Velocidad del viento	11.3
155018	7	Sololá	712	San Antonio Palopó	9	San Antonio Palopo	2	Febrero	2023-02-20T00:00:00	2024-11-08T02:00:00	7	Dirección del viento	11.27
155019	7	Sololá	712	San Antonio Palopó	9	San Antonio Palopo	2	Febrero	2023-02-20T00:00:00	2024-11-08T02:00:00	1	Precipitación	0
155020	7	Sololá	712	San Antonio Palopó	9	San Antonio Palopo	2	Febrero	2023-02-20T00:00:00	2024-11-08T02:00:00	8	Radiación solar	0
155021	7	Sololá	712	San Antonio Palopó	9	San Antonio Palopo	2	Febrero	2023-02-20T00:00:00	2024-11-08T03:00:00	2	Temperatura media	16.7
155022	7	Sololá	712	San Antonio Palopó	9	San Antonio Palopo	2	Febrero	2023-02-20T00:00:00	2024-11-08T03:00:00	4	Temperatura máxima	17.2
155023	7	Sololá	712	San Antonio Palopó	9	San Antonio Palopo	2	Febrero	2023-02-20T00:00:00	2024-11-08T03:00:00	3	Temperatura mínima	16.4
155024	7	Sololá	712	San Antonio Palopó	9	San Antonio Palopo	2	Febrero	2023-02-20T00:00:00	2024-11-08T03:00:00	5	Humedad	59
155025	7	Sololá	712	San Antonio Palopó	9	San Antonio Palopo	2	Febrero	2023-02-20T00:00:00	2024-11-08T03:00:00	6	Velocidad del viento	6.4
155026	7	Sololá	712	San Antonio Palopó	9	San Antonio Palopo	2	Febrero	2023-02-20T00:00:00	2024-11-08T03:00:00	7	Dirección del viento	6.44
155027	7	Sololá	712	San Antonio Palopó	9	San Antonio Palopo	2	Febrero	2023-02-20T00:00:00	2024-11-08T03:00:00	1	Precipitación	0
155028	7	Sololá	712	San Antonio Palopó	9	San Antonio Palopo	2	Febrero	2023-02-20T00:00:00	2024-11-08T03:00:00	8	Radiación solar	0
155029	7	Sololá	712	San Antonio Palopó	9	San Antonio Palopo	2	Febrero	2023-02-20T00:00:00	2024-11-08T04:00:00	2	Temperatura media	15.9
155030	7	Sololá	712	San Antonio Palopó	9	San Antonio Palopo	2	Febrero	2023-02-20T00:00:00	2024-11-08T04:00:00	4	Temperatura máxima	16.8
155031	7	Sololá	712	San Antonio Palopó	9	San Antonio Palopo	2	Febrero	2023-02-20T00:00:00	2024-11-08T04:00:00	3	Temperatura mínima	15.7
155032	7	Sololá	712	San Antonio Palopó	9	San Antonio Palopo	2	Febrero	2023-02-20T00:00:00	2024-11-08T04:00:00	5	Humedad	61
155033	7	Sololá	712	San Antonio Palopó	9	San Antonio Palopo	2	Febrero	2023-02-20T00:00:00	2024-11-08T04:00:00	6	Velocidad del viento	3.2
155034	7	Sololá	712	San Antonio Palopó	9	San Antonio Palopo	2	Febrero	2023-02-20T00:00:00	2024-11-08T04:00:00	7	Dirección del viento	3.22
155035	7	Sololá	712	San Antonio Palopó	9	San Antonio Palopo	2	Febrero	2023-02-20T00:00:00	2024-11-08T04:00:00	1	Precipitación	0
155036	7	Sololá	712	San Antonio Palopó	9	San Antonio Palopo	2	Febrero	2023-02-20T00:00:00	2024-11-08T04:00:00	8	Radiación solar	0
155037	7	Sololá	712	San Antonio Palopó	9	San Antonio Palopo	2	Febrero	2023-02-20T00:00:00	2024-11-08T05:00:00	2	Temperatura media	17.1
155038	7	Sololá	712	San Antonio Palopó	9	San Antonio Palopo	2	Febrero	2023-02-20T00:00:00	2024-11-08T05:00:00	4	Temperatura máxima	17.1
155039	7	Sololá	712	San Antonio Palopó	9	San Antonio Palopo	2	Febrero	2023-02-20T00:00:00	2024-11-08T05:00:00	3	Temperatura mínima	15.8
155040	7	Sololá	712	San Antonio Palopó	9	San Antonio Palopo	2	Febrero	2023-02-20T00:00:00	2024-11-08T05:00:00	5	Humedad	58
155041	7	Sololá	712	San Antonio Palopó	9	San Antonio Palopo	2	Febrero	2023-02-20T00:00:00	2024-11-08T05:00:00	6	Velocidad del viento	8
155042	7	Sololá	712	San Antonio Palopó	9	San Antonio Palopo	2	Febrero	2023-02-20T00:00:00	2024-11-08T05:00:00	7	Dirección del viento	8.05
155043	7	Sololá	712	San Antonio Palopó	9	San Antonio Palopo	2	Febrero	2023-02-20T00:00:00	2024-11-08T05:00:00	1	Precipitación	0
155044	7	Sololá	712	San Antonio Palopó	9	San Antonio Palopo	2	Febrero	2023-02-20T00:00:00	2024-11-08T05:00:00	8	Radiación solar	0
155045	7	Sololá	712	San Antonio Palopó	9	San Antonio Palopo	2	Febrero	2023-02-20T00:00:00	2024-11-08T06:00:00	2	Temperatura media	16.9
155046	7	Sololá	712	San Antonio Palopó	9	San Antonio Palopo	2	Febrero	2023-02-20T00:00:00	2024-11-08T06:00:00	4	Temperatura máxima	17.3
155047	7	Sololá	712	San Antonio Palopó	9	San Antonio Palopo	2	Febrero	2023-02-20T00:00:00	2024-11-08T06:00:00	3	Temperatura mínima	16.8
155048	7	Sololá	712	San Antonio Palopó	9	San Antonio Palopo	2	Febrero	2023-02-20T00:00:00	2024-11-08T06:00:00	5	Humedad	58
155049	7	Sololá	712	San Antonio Palopó	9	San Antonio Palopo	2	Febrero	2023-02-20T00:00:00	2024-11-08T06:00:00	6	Velocidad del viento	17.7
155050	7	Sololá	712	San Antonio Palopó	9	San Antonio Palopo	2	Febrero	2023-02-20T00:00:00	2024-11-08T06:00:00	7	Dirección del viento	17.7
155051	7	Sololá	712	San Antonio Palopó	9	San Antonio Palopo	2	Febrero	2023-02-20T00:00:00	2024-11-08T06:00:00	1	Precipitación	0
155052	7	Sololá	712	San Antonio Palopó	9	San Antonio Palopo	2	Febrero	2023-02-20T00:00:00	2024-11-08T06:00:00	8	Radiación solar	0
155053	7	Sololá	712	San Antonio Palopó	9	San Antonio Palopo	2	Febrero	2023-02-20T00:00:00	2024-11-08T07:00:00	2	Temperatura media	16.9
155054	7	Sololá	712	San Antonio Palopó	9	San Antonio Palopo	2	Febrero	2023-02-20T00:00:00	2024-11-08T07:00:00	4	Temperatura máxima	17.2
155055	7	Sololá	712	San Antonio Palopó	9	San Antonio Palopo	2	Febrero	2023-02-20T00:00:00	2024-11-08T07:00:00	3	Temperatura mínima	16.8
155056	7	Sololá	712	San Antonio Palopó	9	San Antonio Palopo	2	Febrero	2023-02-20T00:00:00	2024-11-08T07:00:00	5	Humedad	57
155057	7	Sololá	712	San Antonio Palopó	9	San Antonio Palopo	2	Febrero	2023-02-20T00:00:00	2024-11-08T07:00:00	6	Velocidad del viento	24.1
155058	7	Sololá	712	San Antonio Palopó	9	San Antonio Palopo	2	Febrero	2023-02-20T00:00:00	2024-11-08T07:00:00	7	Dirección del viento	24.14
155059	7	Sololá	712	San Antonio Palopó	9	San Antonio Palopo	2	Febrero	2023-02-20T00:00:00	2024-11-08T07:00:00	1	Precipitación	0
155060	7	Sololá	712	San Antonio Palopó	9	San Antonio Palopo	2	Febrero	2023-02-20T00:00:00	2024-11-08T07:00:00	8	Radiación solar	4
155061	7	Sololá	712	San Antonio Palopó	9	San Antonio Palopo	2	Febrero	2023-02-20T00:00:00	2024-11-08T08:00:00	2	Temperatura media	16.6
155062	7	Sololá	712	San Antonio Palopó	9	San Antonio Palopo	2	Febrero	2023-02-20T00:00:00	2024-11-08T08:00:00	4	Temperatura máxima	17.1
155063	7	Sololá	712	San Antonio Palopó	9	San Antonio Palopo	2	Febrero	2023-02-20T00:00:00	2024-11-08T08:00:00	3	Temperatura mínima	16.6
155064	7	Sololá	712	San Antonio Palopó	9	San Antonio Palopo	2	Febrero	2023-02-20T00:00:00	2024-11-08T08:00:00	5	Humedad	60
155065	7	Sololá	712	San Antonio Palopó	9	San Antonio Palopo	2	Febrero	2023-02-20T00:00:00	2024-11-08T08:00:00	6	Velocidad del viento	4.8
155066	7	Sololá	712	San Antonio Palopó	9	San Antonio Palopo	2	Febrero	2023-02-20T00:00:00	2024-11-08T08:00:00	7	Dirección del viento	4.83
155067	7	Sololá	712	San Antonio Palopó	9	San Antonio Palopo	2	Febrero	2023-02-20T00:00:00	2024-11-08T08:00:00	1	Precipitación	0
155068	7	Sololá	712	San Antonio Palopó	9	San Antonio Palopo	2	Febrero	2023-02-20T00:00:00	2024-11-08T08:00:00	8	Radiación solar	18
155069	7	Sololá	712	San Antonio Palopó	9	San Antonio Palopo	2	Febrero	2023-02-20T00:00:00	2024-11-08T09:00:00	2	Temperatura media	19.7
155070	7	Sololá	712	San Antonio Palopó	9	San Antonio Palopo	2	Febrero	2023-02-20T00:00:00	2024-11-08T09:00:00	4	Temperatura máxima	19.7
155071	7	Sololá	712	San Antonio Palopó	9	San Antonio Palopo	2	Febrero	2023-02-20T00:00:00	2024-11-08T09:00:00	3	Temperatura mínima	16.4
155072	7	Sololá	712	San Antonio Palopó	9	San Antonio Palopo	2	Febrero	2023-02-20T00:00:00	2024-11-08T09:00:00	5	Humedad	52
155073	7	Sololá	712	San Antonio Palopó	9	San Antonio Palopo	2	Febrero	2023-02-20T00:00:00	2024-11-08T09:00:00	6	Velocidad del viento	3.2
155074	7	Sololá	712	San Antonio Palopó	9	San Antonio Palopo	2	Febrero	2023-02-20T00:00:00	2024-11-08T09:00:00	7	Dirección del viento	3.22
155075	7	Sololá	712	San Antonio Palopó	9	San Antonio Palopo	2	Febrero	2023-02-20T00:00:00	2024-11-08T09:00:00	1	Precipitación	0
155076	7	Sololá	712	San Antonio Palopó	9	San Antonio Palopo	2	Febrero	2023-02-20T00:00:00	2024-11-08T09:00:00	8	Radiación solar	326
155077	7	Sololá	712	San Antonio Palopó	9	San Antonio Palopo	2	Febrero	2023-02-20T00:00:00	2024-11-08T10:00:00	2	Temperatura media	20
155078	7	Sololá	712	San Antonio Palopó	9	San Antonio Palopo	2	Febrero	2023-02-20T00:00:00	2024-11-08T10:00:00	4	Temperatura máxima	20.3
155079	7	Sololá	712	San Antonio Palopó	9	San Antonio Palopo	2	Febrero	2023-02-20T00:00:00	2024-11-08T10:00:00	3	Temperatura mínima	19.7
155080	7	Sololá	712	San Antonio Palopó	9	San Antonio Palopo	2	Febrero	2023-02-20T00:00:00	2024-11-08T10:00:00	5	Humedad	49
155081	7	Sololá	712	San Antonio Palopó	9	San Antonio Palopo	2	Febrero	2023-02-20T00:00:00	2024-11-08T10:00:00	6	Velocidad del viento	11.3
155082	7	Sololá	712	San Antonio Palopó	9	San Antonio Palopo	2	Febrero	2023-02-20T00:00:00	2024-11-08T10:00:00	7	Dirección del viento	11.27
155083	7	Sololá	712	San Antonio Palopó	9	San Antonio Palopo	2	Febrero	2023-02-20T00:00:00	2024-11-08T10:00:00	1	Precipitación	0
155084	7	Sololá	712	San Antonio Palopó	9	San Antonio Palopo	2	Febrero	2023-02-20T00:00:00	2024-11-08T10:00:00	8	Radiación solar	634
155085	7	Sololá	712	San Antonio Palopó	9	San Antonio Palopo	2	Febrero	2023-02-20T00:00:00	2024-11-08T11:00:00	2	Temperatura media	21.4
155086	7	Sololá	712	San Antonio Palopó	9	San Antonio Palopo	2	Febrero	2023-02-20T00:00:00	2024-11-08T11:00:00	4	Temperatura máxima	21.4
155087	7	Sololá	712	San Antonio Palopó	9	San Antonio Palopo	2	Febrero	2023-02-20T00:00:00	2024-11-08T11:00:00	3	Temperatura mínima	20
155088	7	Sololá	712	San Antonio Palopó	9	San Antonio Palopo	2	Febrero	2023-02-20T00:00:00	2024-11-08T11:00:00	5	Humedad	45
155089	7	Sololá	712	San Antonio Palopó	9	San Antonio Palopo	2	Febrero	2023-02-20T00:00:00	2024-11-08T11:00:00	6	Velocidad del viento	17.7
155090	7	Sololá	712	San Antonio Palopó	9	San Antonio Palopo	2	Febrero	2023-02-20T00:00:00	2024-11-08T11:00:00	7	Dirección del viento	17.7
155091	7	Sololá	712	San Antonio Palopó	9	San Antonio Palopo	2	Febrero	2023-02-20T00:00:00	2024-11-08T11:00:00	1	Precipitación	0
155092	7	Sololá	712	San Antonio Palopó	9	San Antonio Palopo	2	Febrero	2023-02-20T00:00:00	2024-11-08T11:00:00	8	Radiación solar	782
155093	7	Sololá	712	San Antonio Palopó	9	San Antonio Palopo	2	Febrero	2023-02-20T00:00:00	2024-11-08T12:00:00	2	Temperatura media	23.2
155094	7	Sololá	712	San Antonio Palopó	9	San Antonio Palopo	2	Febrero	2023-02-20T00:00:00	2024-11-08T12:00:00	4	Temperatura máxima	23.4
155095	7	Sololá	712	San Antonio Palopó	9	San Antonio Palopo	2	Febrero	2023-02-20T00:00:00	2024-11-08T12:00:00	3	Temperatura mínima	21.3
155096	7	Sololá	712	San Antonio Palopó	9	San Antonio Palopo	2	Febrero	2023-02-20T00:00:00	2024-11-08T12:00:00	5	Humedad	40
155097	7	Sololá	712	San Antonio Palopó	9	San Antonio Palopo	2	Febrero	2023-02-20T00:00:00	2024-11-08T12:00:00	6	Velocidad del viento	12.9
155098	7	Sololá	712	San Antonio Palopó	9	San Antonio Palopo	2	Febrero	2023-02-20T00:00:00	2024-11-08T12:00:00	7	Dirección del viento	12.87
155099	7	Sololá	712	San Antonio Palopó	9	San Antonio Palopo	2	Febrero	2023-02-20T00:00:00	2024-11-08T12:00:00	1	Precipitación	0
155100	7	Sololá	712	San Antonio Palopó	9	San Antonio Palopo	2	Febrero	2023-02-20T00:00:00	2024-11-08T12:00:00	8	Radiación solar	801
155101	7	Sololá	712	San Antonio Palopó	9	San Antonio Palopo	2	Febrero	2023-02-20T00:00:00	2024-11-08T13:00:00	2	Temperatura media	23.8
155102	7	Sololá	712	San Antonio Palopó	9	San Antonio Palopo	2	Febrero	2023-02-20T00:00:00	2024-11-08T13:00:00	4	Temperatura máxima	24.3
155103	7	Sololá	712	San Antonio Palopó	9	San Antonio Palopo	2	Febrero	2023-02-20T00:00:00	2024-11-08T13:00:00	3	Temperatura mínima	23.1
155104	7	Sololá	712	San Antonio Palopó	9	San Antonio Palopo	2	Febrero	2023-02-20T00:00:00	2024-11-08T13:00:00	5	Humedad	39
155105	7	Sololá	712	San Antonio Palopó	9	San Antonio Palopo	2	Febrero	2023-02-20T00:00:00	2024-11-08T13:00:00	6	Velocidad del viento	14.5
155106	7	Sololá	712	San Antonio Palopó	9	San Antonio Palopo	2	Febrero	2023-02-20T00:00:00	2024-11-08T13:00:00	7	Dirección del viento	14.48
155107	7	Sololá	712	San Antonio Palopó	9	San Antonio Palopo	2	Febrero	2023-02-20T00:00:00	2024-11-08T13:00:00	1	Precipitación	0
155108	7	Sololá	712	San Antonio Palopó	9	San Antonio Palopo	2	Febrero	2023-02-20T00:00:00	2024-11-08T13:00:00	8	Radiación solar	893
155109	7	Sololá	712	San Antonio Palopó	9	San Antonio Palopo	2	Febrero	2023-02-20T00:00:00	2024-11-08T14:00:00	2	Temperatura media	23.2
155110	7	Sololá	712	San Antonio Palopó	9	San Antonio Palopo	2	Febrero	2023-02-20T00:00:00	2024-11-08T14:00:00	4	Temperatura máxima	24.1
155111	7	Sololá	712	San Antonio Palopó	9	San Antonio Palopo	2	Febrero	2023-02-20T00:00:00	2024-11-08T14:00:00	3	Temperatura mínima	23.2
155112	7	Sololá	712	San Antonio Palopó	9	San Antonio Palopo	2	Febrero	2023-02-20T00:00:00	2024-11-08T14:00:00	5	Humedad	42
155113	7	Sololá	712	San Antonio Palopó	9	San Antonio Palopo	2	Febrero	2023-02-20T00:00:00	2024-11-08T14:00:00	6	Velocidad del viento	17.7
155114	7	Sololá	712	San Antonio Palopó	9	San Antonio Palopo	2	Febrero	2023-02-20T00:00:00	2024-11-08T14:00:00	7	Dirección del viento	17.7
155115	7	Sololá	712	San Antonio Palopó	9	San Antonio Palopo	2	Febrero	2023-02-20T00:00:00	2024-11-08T14:00:00	1	Precipitación	0
155116	7	Sololá	712	San Antonio Palopó	9	San Antonio Palopo	2	Febrero	2023-02-20T00:00:00	2024-11-08T14:00:00	8	Radiación solar	835
155117	7	Sololá	712	San Antonio Palopó	9	San Antonio Palopo	2	Febrero	2023-02-20T00:00:00	2024-11-08T15:00:00	2	Temperatura media	23.9
155118	7	Sololá	712	San Antonio Palopó	9	San Antonio Palopo	2	Febrero	2023-02-20T00:00:00	2024-11-08T15:00:00	4	Temperatura máxima	24.3
155119	7	Sololá	712	San Antonio Palopó	9	San Antonio Palopo	2	Febrero	2023-02-20T00:00:00	2024-11-08T15:00:00	3	Temperatura mínima	22.9
155120	7	Sololá	712	San Antonio Palopó	9	San Antonio Palopo	2	Febrero	2023-02-20T00:00:00	2024-11-08T15:00:00	5	Humedad	39
155121	7	Sololá	712	San Antonio Palopó	9	San Antonio Palopo	2	Febrero	2023-02-20T00:00:00	2024-11-08T15:00:00	6	Velocidad del viento	22.5
155122	7	Sololá	712	San Antonio Palopó	9	San Antonio Palopo	2	Febrero	2023-02-20T00:00:00	2024-11-08T15:00:00	7	Dirección del viento	22.53
155123	7	Sololá	712	San Antonio Palopó	9	San Antonio Palopo	2	Febrero	2023-02-20T00:00:00	2024-11-08T15:00:00	1	Precipitación	0
155124	7	Sololá	712	San Antonio Palopó	9	San Antonio Palopo	2	Febrero	2023-02-20T00:00:00	2024-11-08T15:00:00	8	Radiación solar	711
155125	7	Sololá	712	San Antonio Palopó	9	San Antonio Palopo	2	Febrero	2023-02-20T00:00:00	2024-11-08T16:00:00	2	Temperatura media	23.8
155126	7	Sololá	712	San Antonio Palopó	9	San Antonio Palopo	2	Febrero	2023-02-20T00:00:00	2024-11-08T16:00:00	4	Temperatura máxima	24.7
155127	7	Sololá	712	San Antonio Palopó	9	San Antonio Palopo	2	Febrero	2023-02-20T00:00:00	2024-11-08T16:00:00	3	Temperatura mínima	23.3
155128	7	Sololá	712	San Antonio Palopó	9	San Antonio Palopo	2	Febrero	2023-02-20T00:00:00	2024-11-08T16:00:00	5	Humedad	38
155129	7	Sololá	712	San Antonio Palopó	9	San Antonio Palopo	2	Febrero	2023-02-20T00:00:00	2024-11-08T16:00:00	6	Velocidad del viento	14.5
155130	7	Sololá	712	San Antonio Palopó	9	San Antonio Palopo	2	Febrero	2023-02-20T00:00:00	2024-11-08T16:00:00	7	Dirección del viento	14.48
155131	7	Sololá	712	San Antonio Palopó	9	San Antonio Palopo	2	Febrero	2023-02-20T00:00:00	2024-11-08T16:00:00	1	Precipitación	0
155132	7	Sololá	712	San Antonio Palopó	9	San Antonio Palopo	2	Febrero	2023-02-20T00:00:00	2024-11-08T16:00:00	8	Radiación solar	529
155133	7	Sololá	712	San Antonio Palopó	9	San Antonio Palopo	2	Febrero	2023-02-20T00:00:00	2024-11-08T17:00:00	2	Temperatura media	23.5
155134	7	Sololá	712	San Antonio Palopó	9	San Antonio Palopo	2	Febrero	2023-02-20T00:00:00	2024-11-08T17:00:00	4	Temperatura máxima	24.5
155135	7	Sololá	712	San Antonio Palopó	9	San Antonio Palopo	2	Febrero	2023-02-20T00:00:00	2024-11-08T17:00:00	3	Temperatura mínima	23.2
155136	7	Sololá	712	San Antonio Palopó	9	San Antonio Palopo	2	Febrero	2023-02-20T00:00:00	2024-11-08T17:00:00	5	Humedad	41
155137	7	Sololá	712	San Antonio Palopó	9	San Antonio Palopo	2	Febrero	2023-02-20T00:00:00	2024-11-08T17:00:00	6	Velocidad del viento	11.3
155138	7	Sololá	712	San Antonio Palopó	9	San Antonio Palopo	2	Febrero	2023-02-20T00:00:00	2024-11-08T17:00:00	7	Dirección del viento	11.27
155139	7	Sololá	712	San Antonio Palopó	9	San Antonio Palopo	2	Febrero	2023-02-20T00:00:00	2024-11-08T17:00:00	1	Precipitación	0
155140	7	Sololá	712	San Antonio Palopó	9	San Antonio Palopo	2	Febrero	2023-02-20T00:00:00	2024-11-08T17:00:00	8	Radiación solar	298
155141	7	Sololá	712	San Antonio Palopó	9	San Antonio Palopo	2	Febrero	2023-02-20T00:00:00	2024-11-08T18:00:00	2	Temperatura media	20.9
155142	7	Sololá	712	San Antonio Palopó	9	San Antonio Palopo	2	Febrero	2023-02-20T00:00:00	2024-11-08T18:00:00	4	Temperatura máxima	23.6
155143	7	Sololá	712	San Antonio Palopó	9	San Antonio Palopo	2	Febrero	2023-02-20T00:00:00	2024-11-08T18:00:00	3	Temperatura mínima	20.9
155144	7	Sololá	712	San Antonio Palopó	9	San Antonio Palopo	2	Febrero	2023-02-20T00:00:00	2024-11-08T18:00:00	5	Humedad	51
155145	7	Sololá	712	San Antonio Palopó	9	San Antonio Palopo	2	Febrero	2023-02-20T00:00:00	2024-11-08T18:00:00	6	Velocidad del viento	11.3
155146	7	Sololá	712	San Antonio Palopó	9	San Antonio Palopo	2	Febrero	2023-02-20T00:00:00	2024-11-08T18:00:00	7	Dirección del viento	11.27
155147	7	Sololá	712	San Antonio Palopó	9	San Antonio Palopo	2	Febrero	2023-02-20T00:00:00	2024-11-08T18:00:00	1	Precipitación	0
155148	7	Sololá	712	San Antonio Palopó	9	San Antonio Palopo	2	Febrero	2023-02-20T00:00:00	2024-11-08T18:00:00	8	Radiación solar	69
155149	7	Sololá	712	San Antonio Palopó	9	San Antonio Palopo	2	Febrero	2023-02-20T00:00:00	2024-11-08T19:00:00	2	Temperatura media	19.1
155150	7	Sololá	712	San Antonio Palopó	9	San Antonio Palopo	2	Febrero	2023-02-20T00:00:00	2024-11-08T19:00:00	4	Temperatura máxima	21
155151	7	Sololá	712	San Antonio Palopó	9	San Antonio Palopo	2	Febrero	2023-02-20T00:00:00	2024-11-08T19:00:00	3	Temperatura mínima	19.1
155152	7	Sololá	712	San Antonio Palopó	9	San Antonio Palopo	2	Febrero	2023-02-20T00:00:00	2024-11-08T19:00:00	5	Humedad	57
155153	7	Sololá	712	San Antonio Palopó	9	San Antonio Palopo	2	Febrero	2023-02-20T00:00:00	2024-11-08T19:00:00	6	Velocidad del viento	16.1
155154	7	Sololá	712	San Antonio Palopó	9	San Antonio Palopo	2	Febrero	2023-02-20T00:00:00	2024-11-08T19:00:00	7	Dirección del viento	16.09
155155	7	Sololá	712	San Antonio Palopó	9	San Antonio Palopo	2	Febrero	2023-02-20T00:00:00	2024-11-08T19:00:00	1	Precipitación	0
155156	7	Sololá	712	San Antonio Palopó	9	San Antonio Palopo	2	Febrero	2023-02-20T00:00:00	2024-11-08T19:00:00	8	Radiación solar	0
155157	7	Sololá	712	San Antonio Palopó	9	San Antonio Palopo	2	Febrero	2023-02-20T00:00:00	2024-11-08T20:00:00	2	Temperatura media	18.2
155158	7	Sololá	712	San Antonio Palopó	9	San Antonio Palopo	2	Febrero	2023-02-20T00:00:00	2024-11-08T20:00:00	4	Temperatura máxima	19.1
155159	7	Sololá	712	San Antonio Palopó	9	San Antonio Palopo	2	Febrero	2023-02-20T00:00:00	2024-11-08T20:00:00	3	Temperatura mínima	18.2
155160	7	Sololá	712	San Antonio Palopó	9	San Antonio Palopo	2	Febrero	2023-02-20T00:00:00	2024-11-08T20:00:00	5	Humedad	61
155161	7	Sololá	712	San Antonio Palopó	9	San Antonio Palopo	2	Febrero	2023-02-20T00:00:00	2024-11-08T20:00:00	6	Velocidad del viento	16.1
155162	7	Sololá	712	San Antonio Palopó	9	San Antonio Palopo	2	Febrero	2023-02-20T00:00:00	2024-11-08T20:00:00	7	Dirección del viento	16.09
155163	7	Sololá	712	San Antonio Palopó	9	San Antonio Palopo	2	Febrero	2023-02-20T00:00:00	2024-11-08T20:00:00	1	Precipitación	0
155164	7	Sololá	712	San Antonio Palopó	9	San Antonio Palopo	2	Febrero	2023-02-20T00:00:00	2024-11-08T20:00:00	8	Radiación solar	0
155165	7	Sololá	712	San Antonio Palopó	9	San Antonio Palopo	2	Febrero	2023-02-20T00:00:00	2024-11-08T21:00:00	2	Temperatura media	17.6
155166	7	Sololá	712	San Antonio Palopó	9	San Antonio Palopo	2	Febrero	2023-02-20T00:00:00	2024-11-08T21:00:00	4	Temperatura máxima	18.2
155167	7	Sololá	712	San Antonio Palopó	9	San Antonio Palopo	2	Febrero	2023-02-20T00:00:00	2024-11-08T21:00:00	3	Temperatura mínima	17.6
155168	7	Sololá	712	San Antonio Palopó	9	San Antonio Palopo	2	Febrero	2023-02-20T00:00:00	2024-11-08T21:00:00	5	Humedad	65
155169	7	Sololá	712	San Antonio Palopó	9	San Antonio Palopo	2	Febrero	2023-02-20T00:00:00	2024-11-08T21:00:00	6	Velocidad del viento	17.7
155170	7	Sololá	712	San Antonio Palopó	9	San Antonio Palopo	2	Febrero	2023-02-20T00:00:00	2024-11-08T21:00:00	7	Dirección del viento	17.7
155171	7	Sololá	712	San Antonio Palopó	9	San Antonio Palopo	2	Febrero	2023-02-20T00:00:00	2024-11-08T21:00:00	1	Precipitación	0
155172	7	Sololá	712	San Antonio Palopó	9	San Antonio Palopo	2	Febrero	2023-02-20T00:00:00	2024-11-08T21:00:00	8	Radiación solar	0
155173	7	Sololá	712	San Antonio Palopó	9	San Antonio Palopo	2	Febrero	2023-02-20T00:00:00	2024-11-08T22:00:00	2	Temperatura media	16.8
155174	7	Sololá	712	San Antonio Palopó	9	San Antonio Palopo	2	Febrero	2023-02-20T00:00:00	2024-11-08T22:00:00	4	Temperatura máxima	17.7
155175	7	Sololá	712	San Antonio Palopó	9	San Antonio Palopo	2	Febrero	2023-02-20T00:00:00	2024-11-08T22:00:00	3	Temperatura mínima	16.7
155176	7	Sololá	712	San Antonio Palopó	9	San Antonio Palopo	2	Febrero	2023-02-20T00:00:00	2024-11-08T22:00:00	5	Humedad	67
155177	7	Sololá	712	San Antonio Palopó	9	San Antonio Palopo	2	Febrero	2023-02-20T00:00:00	2024-11-08T22:00:00	6	Velocidad del viento	17.7
155178	7	Sololá	712	San Antonio Palopó	9	San Antonio Palopo	2	Febrero	2023-02-20T00:00:00	2024-11-08T22:00:00	7	Dirección del viento	17.7
155179	7	Sololá	712	San Antonio Palopó	9	San Antonio Palopo	2	Febrero	2023-02-20T00:00:00	2024-11-08T22:00:00	1	Precipitación	0
155180	7	Sololá	712	San Antonio Palopó	9	San Antonio Palopo	2	Febrero	2023-02-20T00:00:00	2024-11-08T22:00:00	8	Radiación solar	0
155181	7	Sololá	712	San Antonio Palopó	9	San Antonio Palopo	2	Febrero	2023-02-20T00:00:00	2024-11-08T23:00:00	2	Temperatura media	16.7
155182	7	Sololá	712	San Antonio Palopó	9	San Antonio Palopo	2	Febrero	2023-02-20T00:00:00	2024-11-08T23:00:00	4	Temperatura máxima	17.3
155183	7	Sololá	712	San Antonio Palopó	9	San Antonio Palopo	2	Febrero	2023-02-20T00:00:00	2024-11-08T23:00:00	3	Temperatura mínima	16.7
155184	7	Sololá	712	San Antonio Palopó	9	San Antonio Palopo	2	Febrero	2023-02-20T00:00:00	2024-11-08T23:00:00	5	Humedad	65
155185	7	Sololá	712	San Antonio Palopó	9	San Antonio Palopo	2	Febrero	2023-02-20T00:00:00	2024-11-08T23:00:00	6	Velocidad del viento	14.5
155186	7	Sololá	712	San Antonio Palopó	9	San Antonio Palopo	2	Febrero	2023-02-20T00:00:00	2024-11-08T23:00:00	7	Dirección del viento	14.48
155187	7	Sololá	712	San Antonio Palopó	9	San Antonio Palopo	2	Febrero	2023-02-20T00:00:00	2024-11-08T23:00:00	1	Precipitación	0
155188	7	Sololá	712	San Antonio Palopó	9	San Antonio Palopo	2	Febrero	2023-02-20T00:00:00	2024-11-08T23:00:00	8	Radiación solar	0
155189	7	Sololá	712	San Antonio Palopó	9	San Antonio Palopo	2	Febrero	2023-02-21T00:00:00	2024-11-08T00:00:00	2	Temperatura media	16.9
155190	7	Sololá	712	San Antonio Palopó	9	San Antonio Palopo	2	Febrero	2023-02-21T00:00:00	2024-11-08T00:00:00	4	Temperatura máxima	17.1
155191	7	Sololá	712	San Antonio Palopó	9	San Antonio Palopo	2	Febrero	2023-02-21T00:00:00	2024-11-08T00:00:00	3	Temperatura mínima	16.7
155192	7	Sololá	712	San Antonio Palopó	9	San Antonio Palopo	2	Febrero	2023-02-21T00:00:00	2024-11-08T00:00:00	5	Humedad	63
155193	7	Sololá	712	San Antonio Palopó	9	San Antonio Palopo	2	Febrero	2023-02-21T00:00:00	2024-11-08T00:00:00	6	Velocidad del viento	11.3
155194	7	Sololá	712	San Antonio Palopó	9	San Antonio Palopo	2	Febrero	2023-02-21T00:00:00	2024-11-08T00:00:00	7	Dirección del viento	11.27
155195	7	Sololá	712	San Antonio Palopó	9	San Antonio Palopo	2	Febrero	2023-02-21T00:00:00	2024-11-08T00:00:00	1	Precipitación	0
155196	7	Sololá	712	San Antonio Palopó	9	San Antonio Palopo	2	Febrero	2023-02-21T00:00:00	2024-11-08T00:00:00	8	Radiación solar	0
155197	7	Sololá	712	San Antonio Palopó	9	San Antonio Palopo	2	Febrero	2023-02-21T00:00:00	2024-11-08T01:00:00	2	Temperatura media	15.9
155198	7	Sololá	712	San Antonio Palopó	9	San Antonio Palopo	2	Febrero	2023-02-21T00:00:00	2024-11-08T01:00:00	4	Temperatura máxima	16.9
155199	7	Sololá	712	San Antonio Palopó	9	San Antonio Palopo	2	Febrero	2023-02-21T00:00:00	2024-11-08T01:00:00	3	Temperatura mínima	15.9
155200	7	Sololá	712	San Antonio Palopó	9	San Antonio Palopo	2	Febrero	2023-02-21T00:00:00	2024-11-08T01:00:00	5	Humedad	69
155201	7	Sololá	712	San Antonio Palopó	9	San Antonio Palopo	2	Febrero	2023-02-21T00:00:00	2024-11-08T01:00:00	6	Velocidad del viento	16.1
155202	7	Sololá	712	San Antonio Palopó	9	San Antonio Palopo	2	Febrero	2023-02-21T00:00:00	2024-11-08T01:00:00	7	Dirección del viento	16.09
155203	7	Sololá	712	San Antonio Palopó	9	San Antonio Palopo	2	Febrero	2023-02-21T00:00:00	2024-11-08T01:00:00	1	Precipitación	0
155204	7	Sololá	712	San Antonio Palopó	9	San Antonio Palopo	2	Febrero	2023-02-21T00:00:00	2024-11-08T01:00:00	8	Radiación solar	0
155205	7	Sololá	712	San Antonio Palopó	9	San Antonio Palopo	2	Febrero	2023-02-21T00:00:00	2024-11-08T02:00:00	2	Temperatura media	15.6
155206	7	Sololá	712	San Antonio Palopó	9	San Antonio Palopo	2	Febrero	2023-02-21T00:00:00	2024-11-08T02:00:00	4	Temperatura máxima	16.1
155207	7	Sololá	712	San Antonio Palopó	9	San Antonio Palopo	2	Febrero	2023-02-21T00:00:00	2024-11-08T02:00:00	3	Temperatura mínima	15.6
155208	7	Sololá	712	San Antonio Palopó	9	San Antonio Palopo	2	Febrero	2023-02-21T00:00:00	2024-11-08T02:00:00	5	Humedad	68
155209	7	Sololá	712	San Antonio Palopó	9	San Antonio Palopo	2	Febrero	2023-02-21T00:00:00	2024-11-08T02:00:00	6	Velocidad del viento	16.1
155210	7	Sololá	712	San Antonio Palopó	9	San Antonio Palopo	2	Febrero	2023-02-21T00:00:00	2024-11-08T02:00:00	7	Dirección del viento	16.09
155211	7	Sololá	712	San Antonio Palopó	9	San Antonio Palopo	2	Febrero	2023-02-21T00:00:00	2024-11-08T02:00:00	1	Precipitación	0
155212	7	Sololá	712	San Antonio Palopó	9	San Antonio Palopo	2	Febrero	2023-02-21T00:00:00	2024-11-08T02:00:00	8	Radiación solar	0
155213	7	Sololá	712	San Antonio Palopó	9	San Antonio Palopo	2	Febrero	2023-02-21T00:00:00	2024-11-08T03:00:00	2	Temperatura media	15.3
155214	7	Sololá	712	San Antonio Palopó	9	San Antonio Palopo	2	Febrero	2023-02-21T00:00:00	2024-11-08T03:00:00	4	Temperatura máxima	15.7
155215	7	Sololá	712	San Antonio Palopó	9	San Antonio Palopo	2	Febrero	2023-02-21T00:00:00	2024-11-08T03:00:00	3	Temperatura mínima	15.1
155216	7	Sololá	712	San Antonio Palopó	9	San Antonio Palopo	2	Febrero	2023-02-21T00:00:00	2024-11-08T03:00:00	5	Humedad	69
155217	7	Sololá	712	San Antonio Palopó	9	San Antonio Palopo	2	Febrero	2023-02-21T00:00:00	2024-11-08T03:00:00	6	Velocidad del viento	14.5
155218	7	Sololá	712	San Antonio Palopó	9	San Antonio Palopo	2	Febrero	2023-02-21T00:00:00	2024-11-08T03:00:00	7	Dirección del viento	14.48
155219	7	Sololá	712	San Antonio Palopó	9	San Antonio Palopo	2	Febrero	2023-02-21T00:00:00	2024-11-08T03:00:00	1	Precipitación	0
155220	7	Sololá	712	San Antonio Palopó	9	San Antonio Palopo	2	Febrero	2023-02-21T00:00:00	2024-11-08T03:00:00	8	Radiación solar	0
155221	7	Sololá	712	San Antonio Palopó	9	San Antonio Palopo	2	Febrero	2023-02-21T00:00:00	2024-11-08T04:00:00	2	Temperatura media	15.4
155222	7	Sololá	712	San Antonio Palopó	9	San Antonio Palopo	2	Febrero	2023-02-21T00:00:00	2024-11-08T04:00:00	4	Temperatura máxima	15.5
155223	7	Sololá	712	San Antonio Palopó	9	San Antonio Palopo	2	Febrero	2023-02-21T00:00:00	2024-11-08T04:00:00	3	Temperatura mínima	15
155224	7	Sololá	712	San Antonio Palopó	9	San Antonio Palopo	2	Febrero	2023-02-21T00:00:00	2024-11-08T04:00:00	5	Humedad	67
155225	7	Sololá	712	San Antonio Palopó	9	San Antonio Palopo	2	Febrero	2023-02-21T00:00:00	2024-11-08T04:00:00	6	Velocidad del viento	12.9
155226	7	Sololá	712	San Antonio Palopó	9	San Antonio Palopo	2	Febrero	2023-02-21T00:00:00	2024-11-08T04:00:00	7	Dirección del viento	12.87
155227	7	Sololá	712	San Antonio Palopó	9	San Antonio Palopo	2	Febrero	2023-02-21T00:00:00	2024-11-08T04:00:00	1	Precipitación	0
155228	7	Sololá	712	San Antonio Palopó	9	San Antonio Palopo	2	Febrero	2023-02-21T00:00:00	2024-11-08T04:00:00	8	Radiación solar	0
155229	7	Sololá	712	San Antonio Palopó	9	San Antonio Palopo	2	Febrero	2023-02-21T00:00:00	2024-11-08T05:00:00	2	Temperatura media	16.2
155230	7	Sololá	712	San Antonio Palopó	9	San Antonio Palopo	2	Febrero	2023-02-21T00:00:00	2024-11-08T05:00:00	4	Temperatura máxima	16.3
155231	7	Sololá	712	San Antonio Palopó	9	San Antonio Palopo	2	Febrero	2023-02-21T00:00:00	2024-11-08T05:00:00	3	Temperatura mínima	15.4
155232	7	Sololá	712	San Antonio Palopó	9	San Antonio Palopo	2	Febrero	2023-02-21T00:00:00	2024-11-08T05:00:00	5	Humedad	63
155233	7	Sololá	712	San Antonio Palopó	9	San Antonio Palopo	2	Febrero	2023-02-21T00:00:00	2024-11-08T05:00:00	6	Velocidad del viento	11.3
155234	7	Sololá	712	San Antonio Palopó	9	San Antonio Palopo	2	Febrero	2023-02-21T00:00:00	2024-11-08T05:00:00	7	Dirección del viento	11.27
155235	7	Sololá	712	San Antonio Palopó	9	San Antonio Palopo	2	Febrero	2023-02-21T00:00:00	2024-11-08T05:00:00	1	Precipitación	0
155236	7	Sololá	712	San Antonio Palopó	9	San Antonio Palopo	2	Febrero	2023-02-21T00:00:00	2024-11-08T05:00:00	8	Radiación solar	0
155237	7	Sololá	712	San Antonio Palopó	9	San Antonio Palopo	2	Febrero	2023-02-21T00:00:00	2024-11-08T06:00:00	2	Temperatura media	15.8
155238	7	Sololá	712	San Antonio Palopó	9	San Antonio Palopo	2	Febrero	2023-02-21T00:00:00	2024-11-08T06:00:00	4	Temperatura máxima	16.3
155239	7	Sololá	712	San Antonio Palopó	9	San Antonio Palopo	2	Febrero	2023-02-21T00:00:00	2024-11-08T06:00:00	3	Temperatura mínima	15.3
155240	7	Sololá	712	San Antonio Palopó	9	San Antonio Palopo	2	Febrero	2023-02-21T00:00:00	2024-11-08T06:00:00	5	Humedad	66
155241	7	Sololá	712	San Antonio Palopó	9	San Antonio Palopo	2	Febrero	2023-02-21T00:00:00	2024-11-08T06:00:00	6	Velocidad del viento	4.8
155242	7	Sololá	712	San Antonio Palopó	9	San Antonio Palopo	2	Febrero	2023-02-21T00:00:00	2024-11-08T06:00:00	7	Dirección del viento	4.83
155243	7	Sololá	712	San Antonio Palopó	9	San Antonio Palopo	2	Febrero	2023-02-21T00:00:00	2024-11-08T06:00:00	1	Precipitación	0
155244	7	Sololá	712	San Antonio Palopó	9	San Antonio Palopo	2	Febrero	2023-02-21T00:00:00	2024-11-08T06:00:00	8	Radiación solar	0
155245	7	Sololá	712	San Antonio Palopó	9	San Antonio Palopo	2	Febrero	2023-02-21T00:00:00	2024-11-08T07:00:00	2	Temperatura media	16.7
155246	7	Sololá	712	San Antonio Palopó	9	San Antonio Palopo	2	Febrero	2023-02-21T00:00:00	2024-11-08T07:00:00	4	Temperatura máxima	16.7
155247	7	Sololá	712	San Antonio Palopó	9	San Antonio Palopo	2	Febrero	2023-02-21T00:00:00	2024-11-08T07:00:00	3	Temperatura mínima	15.7
155248	7	Sololá	712	San Antonio Palopó	9	San Antonio Palopo	2	Febrero	2023-02-21T00:00:00	2024-11-08T07:00:00	5	Humedad	62
155249	7	Sololá	712	San Antonio Palopó	9	San Antonio Palopo	2	Febrero	2023-02-21T00:00:00	2024-11-08T07:00:00	6	Velocidad del viento	4.8
155250	7	Sololá	712	San Antonio Palopó	9	San Antonio Palopo	2	Febrero	2023-02-21T00:00:00	2024-11-08T07:00:00	7	Dirección del viento	4.83
155251	7	Sololá	712	San Antonio Palopó	9	San Antonio Palopo	2	Febrero	2023-02-21T00:00:00	2024-11-08T07:00:00	1	Precipitación	0
155252	7	Sololá	712	San Antonio Palopó	9	San Antonio Palopo	2	Febrero	2023-02-21T00:00:00	2024-11-08T07:00:00	8	Radiación solar	11
155253	7	Sololá	712	San Antonio Palopó	9	San Antonio Palopo	2	Febrero	2023-02-21T00:00:00	2024-11-08T08:00:00	2	Temperatura media	16.7
155254	7	Sololá	712	San Antonio Palopó	9	San Antonio Palopo	2	Febrero	2023-02-21T00:00:00	2024-11-08T08:00:00	4	Temperatura máxima	16.8
155255	7	Sololá	712	San Antonio Palopó	9	San Antonio Palopo	2	Febrero	2023-02-21T00:00:00	2024-11-08T08:00:00	3	Temperatura mínima	16.5
155256	7	Sololá	712	San Antonio Palopó	9	San Antonio Palopo	2	Febrero	2023-02-21T00:00:00	2024-11-08T08:00:00	5	Humedad	70
155257	7	Sololá	712	San Antonio Palopó	9	San Antonio Palopo	2	Febrero	2023-02-21T00:00:00	2024-11-08T08:00:00	6	Velocidad del viento	3.2
155258	7	Sololá	712	San Antonio Palopó	9	San Antonio Palopo	2	Febrero	2023-02-21T00:00:00	2024-11-08T08:00:00	7	Dirección del viento	3.22
155259	7	Sololá	712	San Antonio Palopó	9	San Antonio Palopo	2	Febrero	2023-02-21T00:00:00	2024-11-08T08:00:00	1	Precipitación	0
155260	7	Sololá	712	San Antonio Palopó	9	San Antonio Palopo	2	Febrero	2023-02-21T00:00:00	2024-11-08T08:00:00	8	Radiación solar	52
155261	7	Sololá	712	San Antonio Palopó	9	San Antonio Palopo	2	Febrero	2023-02-21T00:00:00	2024-11-08T09:00:00	2	Temperatura media	18.4
155262	7	Sololá	712	San Antonio Palopó	9	San Antonio Palopo	2	Febrero	2023-02-21T00:00:00	2024-11-08T09:00:00	4	Temperatura máxima	18.4
155263	7	Sololá	712	San Antonio Palopó	9	San Antonio Palopo	2	Febrero	2023-02-21T00:00:00	2024-11-08T09:00:00	3	Temperatura mínima	16.7
155264	7	Sololá	712	San Antonio Palopó	9	San Antonio Palopo	2	Febrero	2023-02-21T00:00:00	2024-11-08T09:00:00	5	Humedad	69
155265	7	Sololá	712	San Antonio Palopó	9	San Antonio Palopo	2	Febrero	2023-02-21T00:00:00	2024-11-08T09:00:00	6	Velocidad del viento	3.2
155266	7	Sololá	712	San Antonio Palopó	9	San Antonio Palopo	2	Febrero	2023-02-21T00:00:00	2024-11-08T09:00:00	7	Dirección del viento	3.22
155267	7	Sololá	712	San Antonio Palopó	9	San Antonio Palopo	2	Febrero	2023-02-21T00:00:00	2024-11-08T09:00:00	1	Precipitación	0
155268	7	Sololá	712	San Antonio Palopó	9	San Antonio Palopo	2	Febrero	2023-02-21T00:00:00	2024-11-08T09:00:00	8	Radiación solar	278
155269	7	Sololá	712	San Antonio Palopó	9	San Antonio Palopo	2	Febrero	2023-02-21T00:00:00	2024-11-08T10:00:00	2	Temperatura media	18.7
155270	7	Sololá	712	San Antonio Palopó	9	San Antonio Palopo	2	Febrero	2023-02-21T00:00:00	2024-11-08T10:00:00	4	Temperatura máxima	18.8
155271	7	Sololá	712	San Antonio Palopó	9	San Antonio Palopo	2	Febrero	2023-02-21T00:00:00	2024-11-08T10:00:00	3	Temperatura mínima	18.3
155272	7	Sololá	712	San Antonio Palopó	9	San Antonio Palopo	2	Febrero	2023-02-21T00:00:00	2024-11-08T10:00:00	5	Humedad	67
155273	7	Sololá	712	San Antonio Palopó	9	San Antonio Palopo	2	Febrero	2023-02-21T00:00:00	2024-11-08T10:00:00	6	Velocidad del viento	4.8
155274	7	Sololá	712	San Antonio Palopó	9	San Antonio Palopo	2	Febrero	2023-02-21T00:00:00	2024-11-08T10:00:00	7	Dirección del viento	4.83
155275	7	Sololá	712	San Antonio Palopó	9	San Antonio Palopo	2	Febrero	2023-02-21T00:00:00	2024-11-08T10:00:00	1	Precipitación	0
155276	7	Sololá	712	San Antonio Palopó	9	San Antonio Palopo	2	Febrero	2023-02-21T00:00:00	2024-11-08T10:00:00	8	Radiación solar	547
155277	7	Sololá	712	San Antonio Palopó	9	San Antonio Palopo	2	Febrero	2023-02-21T00:00:00	2024-11-08T11:00:00	2	Temperatura media	19.9
155278	7	Sololá	712	San Antonio Palopó	9	San Antonio Palopo	2	Febrero	2023-02-21T00:00:00	2024-11-08T11:00:00	4	Temperatura máxima	19.9
155279	7	Sololá	712	San Antonio Palopó	9	San Antonio Palopo	2	Febrero	2023-02-21T00:00:00	2024-11-08T11:00:00	3	Temperatura mínima	18.7
155280	7	Sololá	712	San Antonio Palopó	9	San Antonio Palopo	2	Febrero	2023-02-21T00:00:00	2024-11-08T11:00:00	5	Humedad	67
155281	7	Sololá	712	San Antonio Palopó	9	San Antonio Palopo	2	Febrero	2023-02-21T00:00:00	2024-11-08T11:00:00	6	Velocidad del viento	3.2
155282	7	Sololá	712	San Antonio Palopó	9	San Antonio Palopo	2	Febrero	2023-02-21T00:00:00	2024-11-08T11:00:00	7	Dirección del viento	3.22
155283	7	Sololá	712	San Antonio Palopó	9	San Antonio Palopo	2	Febrero	2023-02-21T00:00:00	2024-11-08T11:00:00	1	Precipitación	0
155284	7	Sololá	712	San Antonio Palopó	9	San Antonio Palopo	2	Febrero	2023-02-21T00:00:00	2024-11-08T11:00:00	8	Radiación solar	665
155285	7	Sololá	712	San Antonio Palopó	9	San Antonio Palopo	2	Febrero	2023-02-21T00:00:00	2024-11-08T12:00:00	2	Temperatura media	23.4
155286	7	Sololá	712	San Antonio Palopó	9	San Antonio Palopo	2	Febrero	2023-02-21T00:00:00	2024-11-08T12:00:00	4	Temperatura máxima	23.9
155287	7	Sololá	712	San Antonio Palopó	9	San Antonio Palopo	2	Febrero	2023-02-21T00:00:00	2024-11-08T12:00:00	3	Temperatura mínima	19.8
155288	7	Sololá	712	San Antonio Palopó	9	San Antonio Palopo	2	Febrero	2023-02-21T00:00:00	2024-11-08T12:00:00	5	Humedad	54
155289	7	Sololá	712	San Antonio Palopó	9	San Antonio Palopo	2	Febrero	2023-02-21T00:00:00	2024-11-08T12:00:00	6	Velocidad del viento	3.2
155290	7	Sololá	712	San Antonio Palopó	9	San Antonio Palopo	2	Febrero	2023-02-21T00:00:00	2024-11-08T12:00:00	7	Dirección del viento	3.22
155291	7	Sololá	712	San Antonio Palopó	9	San Antonio Palopo	2	Febrero	2023-02-21T00:00:00	2024-11-08T12:00:00	1	Precipitación	0
155292	7	Sololá	712	San Antonio Palopó	9	San Antonio Palopo	2	Febrero	2023-02-21T00:00:00	2024-11-08T12:00:00	8	Radiación solar	719
155293	7	Sololá	712	San Antonio Palopó	9	San Antonio Palopo	2	Febrero	2023-02-21T00:00:00	2024-11-08T13:00:00	2	Temperatura media	22.2
155294	7	Sololá	712	San Antonio Palopó	9	San Antonio Palopo	2	Febrero	2023-02-21T00:00:00	2024-11-08T13:00:00	4	Temperatura máxima	24
155295	7	Sololá	712	San Antonio Palopó	9	San Antonio Palopo	2	Febrero	2023-02-21T00:00:00	2024-11-08T13:00:00	3	Temperatura mínima	22.2
155296	7	Sololá	712	San Antonio Palopó	9	San Antonio Palopo	2	Febrero	2023-02-21T00:00:00	2024-11-08T13:00:00	5	Humedad	58
155297	7	Sololá	712	San Antonio Palopó	9	San Antonio Palopo	2	Febrero	2023-02-21T00:00:00	2024-11-08T13:00:00	6	Velocidad del viento	4.8
155298	7	Sololá	712	San Antonio Palopó	9	San Antonio Palopo	2	Febrero	2023-02-21T00:00:00	2024-11-08T13:00:00	7	Dirección del viento	4.83
155299	7	Sololá	712	San Antonio Palopó	9	San Antonio Palopo	2	Febrero	2023-02-21T00:00:00	2024-11-08T13:00:00	1	Precipitación	0
155300	7	Sololá	712	San Antonio Palopó	9	San Antonio Palopo	2	Febrero	2023-02-21T00:00:00	2024-11-08T13:00:00	8	Radiación solar	897
155301	7	Sololá	712	San Antonio Palopó	9	San Antonio Palopo	2	Febrero	2023-02-21T00:00:00	2024-11-08T14:00:00	2	Temperatura media	23.1
155302	7	Sololá	712	San Antonio Palopó	9	San Antonio Palopo	2	Febrero	2023-02-21T00:00:00	2024-11-08T14:00:00	4	Temperatura máxima	23.8
155303	7	Sololá	712	San Antonio Palopó	9	San Antonio Palopo	2	Febrero	2023-02-21T00:00:00	2024-11-08T14:00:00	3	Temperatura mínima	22.2
155304	7	Sololá	712	San Antonio Palopó	9	San Antonio Palopo	2	Febrero	2023-02-21T00:00:00	2024-11-08T14:00:00	5	Humedad	56
155305	7	Sololá	712	San Antonio Palopó	9	San Antonio Palopo	2	Febrero	2023-02-21T00:00:00	2024-11-08T14:00:00	6	Velocidad del viento	16.1
155306	7	Sololá	712	San Antonio Palopó	9	San Antonio Palopo	2	Febrero	2023-02-21T00:00:00	2024-11-08T14:00:00	7	Dirección del viento	16.09
155307	7	Sololá	712	San Antonio Palopó	9	San Antonio Palopo	2	Febrero	2023-02-21T00:00:00	2024-11-08T14:00:00	1	Precipitación	0
155308	7	Sololá	712	San Antonio Palopó	9	San Antonio Palopo	2	Febrero	2023-02-21T00:00:00	2024-11-08T14:00:00	8	Radiación solar	736
155309	7	Sololá	712	San Antonio Palopó	9	San Antonio Palopo	2	Febrero	2023-02-21T00:00:00	2024-11-08T15:00:00	2	Temperatura media	23.1
155310	7	Sololá	712	San Antonio Palopó	9	San Antonio Palopo	2	Febrero	2023-02-21T00:00:00	2024-11-08T15:00:00	4	Temperatura máxima	23.4
155311	7	Sololá	712	San Antonio Palopó	9	San Antonio Palopo	2	Febrero	2023-02-21T00:00:00	2024-11-08T15:00:00	3	Temperatura mínima	22.8
155312	7	Sololá	712	San Antonio Palopó	9	San Antonio Palopo	2	Febrero	2023-02-21T00:00:00	2024-11-08T15:00:00	5	Humedad	59
155313	7	Sololá	712	San Antonio Palopó	9	San Antonio Palopo	2	Febrero	2023-02-21T00:00:00	2024-11-08T15:00:00	6	Velocidad del viento	17.7
155314	7	Sololá	712	San Antonio Palopó	9	San Antonio Palopo	2	Febrero	2023-02-21T00:00:00	2024-11-08T15:00:00	7	Dirección del viento	17.7
155315	7	Sololá	712	San Antonio Palopó	9	San Antonio Palopo	2	Febrero	2023-02-21T00:00:00	2024-11-08T15:00:00	1	Precipitación	0
155316	7	Sololá	712	San Antonio Palopó	9	San Antonio Palopo	2	Febrero	2023-02-21T00:00:00	2024-11-08T15:00:00	8	Radiación solar	730
155317	7	Sololá	712	San Antonio Palopó	9	San Antonio Palopo	2	Febrero	2023-02-21T00:00:00	2024-11-08T16:00:00	2	Temperatura media	23.6
155318	7	Sololá	712	San Antonio Palopó	9	San Antonio Palopo	2	Febrero	2023-02-21T00:00:00	2024-11-08T16:00:00	4	Temperatura máxima	24.2
155319	7	Sololá	712	San Antonio Palopó	9	San Antonio Palopo	2	Febrero	2023-02-21T00:00:00	2024-11-08T16:00:00	3	Temperatura mínima	23.1
155320	7	Sololá	712	San Antonio Palopó	9	San Antonio Palopo	2	Febrero	2023-02-21T00:00:00	2024-11-08T16:00:00	5	Humedad	60
155321	7	Sololá	712	San Antonio Palopó	9	San Antonio Palopo	2	Febrero	2023-02-21T00:00:00	2024-11-08T16:00:00	6	Velocidad del viento	9.7
155322	7	Sololá	712	San Antonio Palopó	9	San Antonio Palopo	2	Febrero	2023-02-21T00:00:00	2024-11-08T16:00:00	7	Dirección del viento	9.66
155323	7	Sololá	712	San Antonio Palopó	9	San Antonio Palopo	2	Febrero	2023-02-21T00:00:00	2024-11-08T16:00:00	1	Precipitación	0
155324	7	Sololá	712	San Antonio Palopó	9	San Antonio Palopo	2	Febrero	2023-02-21T00:00:00	2024-11-08T16:00:00	8	Radiación solar	550
155325	7	Sololá	712	San Antonio Palopó	9	San Antonio Palopo	2	Febrero	2023-02-21T00:00:00	2024-11-08T17:00:00	2	Temperatura media	22.6
155326	7	Sololá	712	San Antonio Palopó	9	San Antonio Palopo	2	Febrero	2023-02-21T00:00:00	2024-11-08T17:00:00	4	Temperatura máxima	23.7
155327	7	Sololá	712	San Antonio Palopó	9	San Antonio Palopo	2	Febrero	2023-02-21T00:00:00	2024-11-08T17:00:00	3	Temperatura mínima	22.6
155328	7	Sololá	712	San Antonio Palopó	9	San Antonio Palopo	2	Febrero	2023-02-21T00:00:00	2024-11-08T17:00:00	5	Humedad	69
155329	7	Sololá	712	San Antonio Palopó	9	San Antonio Palopo	2	Febrero	2023-02-21T00:00:00	2024-11-08T17:00:00	6	Velocidad del viento	8
155330	7	Sololá	712	San Antonio Palopó	9	San Antonio Palopo	2	Febrero	2023-02-21T00:00:00	2024-11-08T17:00:00	7	Dirección del viento	8.05
155331	7	Sololá	712	San Antonio Palopó	9	San Antonio Palopo	2	Febrero	2023-02-21T00:00:00	2024-11-08T17:00:00	1	Precipitación	0
155332	7	Sololá	712	San Antonio Palopó	9	San Antonio Palopo	2	Febrero	2023-02-21T00:00:00	2024-11-08T17:00:00	8	Radiación solar	308
155333	7	Sololá	712	San Antonio Palopó	9	San Antonio Palopo	2	Febrero	2023-02-21T00:00:00	2024-11-08T18:00:00	2	Temperatura media	20.6
155334	7	Sololá	712	San Antonio Palopó	9	San Antonio Palopo	2	Febrero	2023-02-21T00:00:00	2024-11-08T18:00:00	4	Temperatura máxima	22.6
155335	7	Sololá	712	San Antonio Palopó	9	San Antonio Palopo	2	Febrero	2023-02-21T00:00:00	2024-11-08T18:00:00	3	Temperatura mínima	20.6
155336	7	Sololá	712	San Antonio Palopó	9	San Antonio Palopo	2	Febrero	2023-02-21T00:00:00	2024-11-08T18:00:00	5	Humedad	74
155337	7	Sololá	712	San Antonio Palopó	9	San Antonio Palopo	2	Febrero	2023-02-21T00:00:00	2024-11-08T18:00:00	6	Velocidad del viento	8
155338	7	Sololá	712	San Antonio Palopó	9	San Antonio Palopo	2	Febrero	2023-02-21T00:00:00	2024-11-08T18:00:00	7	Dirección del viento	8.05
155339	7	Sololá	712	San Antonio Palopó	9	San Antonio Palopo	2	Febrero	2023-02-21T00:00:00	2024-11-08T18:00:00	1	Precipitación	0
155340	7	Sololá	712	San Antonio Palopó	9	San Antonio Palopo	2	Febrero	2023-02-21T00:00:00	2024-11-08T18:00:00	8	Radiación solar	88
155341	7	Sololá	712	San Antonio Palopó	9	San Antonio Palopo	2	Febrero	2023-02-21T00:00:00	2024-11-08T19:00:00	2	Temperatura media	19.3
155342	7	Sololá	712	San Antonio Palopó	9	San Antonio Palopo	2	Febrero	2023-02-21T00:00:00	2024-11-08T19:00:00	4	Temperatura máxima	20.6
155343	7	Sololá	712	San Antonio Palopó	9	San Antonio Palopo	2	Febrero	2023-02-21T00:00:00	2024-11-08T19:00:00	3	Temperatura mínima	19.3
155344	7	Sololá	712	San Antonio Palopó	9	San Antonio Palopo	2	Febrero	2023-02-21T00:00:00	2024-11-08T19:00:00	5	Humedad	79
155345	7	Sololá	712	San Antonio Palopó	9	San Antonio Palopo	2	Febrero	2023-02-21T00:00:00	2024-11-08T19:00:00	6	Velocidad del viento	3.2
155346	7	Sololá	712	San Antonio Palopó	9	San Antonio Palopo	2	Febrero	2023-02-21T00:00:00	2024-11-08T19:00:00	7	Dirección del viento	3.22
155347	7	Sololá	712	San Antonio Palopó	9	San Antonio Palopo	2	Febrero	2023-02-21T00:00:00	2024-11-08T19:00:00	1	Precipitación	0
155348	7	Sololá	712	San Antonio Palopó	9	San Antonio Palopo	2	Febrero	2023-02-21T00:00:00	2024-11-08T19:00:00	8	Radiación solar	0
155349	7	Sololá	712	San Antonio Palopó	9	San Antonio Palopo	2	Febrero	2023-02-21T00:00:00	2024-11-08T20:00:00	2	Temperatura media	18.8
155350	7	Sololá	712	San Antonio Palopó	9	San Antonio Palopo	2	Febrero	2023-02-21T00:00:00	2024-11-08T20:00:00	4	Temperatura máxima	19.3
155351	7	Sololá	712	San Antonio Palopó	9	San Antonio Palopo	2	Febrero	2023-02-21T00:00:00	2024-11-08T20:00:00	3	Temperatura mínima	18.8
155352	7	Sololá	712	San Antonio Palopó	9	San Antonio Palopo	2	Febrero	2023-02-21T00:00:00	2024-11-08T20:00:00	5	Humedad	79
155353	7	Sololá	712	San Antonio Palopó	9	San Antonio Palopo	2	Febrero	2023-02-21T00:00:00	2024-11-08T20:00:00	6	Velocidad del viento	3.2
155354	7	Sololá	712	San Antonio Palopó	9	San Antonio Palopo	2	Febrero	2023-02-21T00:00:00	2024-11-08T20:00:00	7	Dirección del viento	3.22
155355	7	Sololá	712	San Antonio Palopó	9	San Antonio Palopo	2	Febrero	2023-02-21T00:00:00	2024-11-08T20:00:00	1	Precipitación	0
155356	7	Sololá	712	San Antonio Palopó	9	San Antonio Palopo	2	Febrero	2023-02-21T00:00:00	2024-11-08T20:00:00	8	Radiación solar	0
155357	7	Sololá	712	San Antonio Palopó	9	San Antonio Palopo	2	Febrero	2023-02-21T00:00:00	2024-11-08T21:00:00	2	Temperatura media	18.3
155358	7	Sololá	712	San Antonio Palopó	9	San Antonio Palopo	2	Febrero	2023-02-21T00:00:00	2024-11-08T21:00:00	4	Temperatura máxima	18.8
155359	7	Sololá	712	San Antonio Palopó	9	San Antonio Palopo	2	Febrero	2023-02-21T00:00:00	2024-11-08T21:00:00	3	Temperatura mínima	18.3
155360	7	Sololá	712	San Antonio Palopó	9	San Antonio Palopo	2	Febrero	2023-02-21T00:00:00	2024-11-08T21:00:00	5	Humedad	82
155361	7	Sololá	712	San Antonio Palopó	9	San Antonio Palopo	2	Febrero	2023-02-21T00:00:00	2024-11-08T21:00:00	6	Velocidad del viento	1.6
155362	7	Sololá	712	San Antonio Palopó	9	San Antonio Palopo	2	Febrero	2023-02-21T00:00:00	2024-11-08T21:00:00	7	Dirección del viento	1.61
155363	7	Sololá	712	San Antonio Palopó	9	San Antonio Palopo	2	Febrero	2023-02-21T00:00:00	2024-11-08T21:00:00	1	Precipitación	0
155364	7	Sololá	712	San Antonio Palopó	9	San Antonio Palopo	2	Febrero	2023-02-21T00:00:00	2024-11-08T21:00:00	8	Radiación solar	0
155365	7	Sololá	712	San Antonio Palopó	9	San Antonio Palopo	2	Febrero	2023-02-21T00:00:00	2024-11-08T22:00:00	2	Temperatura media	17.7
155366	7	Sololá	712	San Antonio Palopó	9	San Antonio Palopo	2	Febrero	2023-02-21T00:00:00	2024-11-08T22:00:00	4	Temperatura máxima	18.3
155367	7	Sololá	712	San Antonio Palopó	9	San Antonio Palopo	2	Febrero	2023-02-21T00:00:00	2024-11-08T22:00:00	3	Temperatura mínima	17.7
155368	7	Sololá	712	San Antonio Palopó	9	San Antonio Palopo	2	Febrero	2023-02-21T00:00:00	2024-11-08T22:00:00	5	Humedad	81
155369	7	Sololá	712	San Antonio Palopó	9	San Antonio Palopo	2	Febrero	2023-02-21T00:00:00	2024-11-08T22:00:00	6	Velocidad del viento	1.6
155370	7	Sololá	712	San Antonio Palopó	9	San Antonio Palopo	2	Febrero	2023-02-21T00:00:00	2024-11-08T22:00:00	7	Dirección del viento	1.61
155371	7	Sololá	712	San Antonio Palopó	9	San Antonio Palopo	2	Febrero	2023-02-21T00:00:00	2024-11-08T22:00:00	1	Precipitación	0
155372	7	Sololá	712	San Antonio Palopó	9	San Antonio Palopo	2	Febrero	2023-02-21T00:00:00	2024-11-08T22:00:00	8	Radiación solar	0
155373	7	Sololá	712	San Antonio Palopó	9	San Antonio Palopo	2	Febrero	2023-02-21T00:00:00	2024-11-08T23:00:00	2	Temperatura media	17.2
155374	7	Sololá	712	San Antonio Palopó	9	San Antonio Palopo	2	Febrero	2023-02-21T00:00:00	2024-11-08T23:00:00	4	Temperatura máxima	17.7
155375	7	Sololá	712	San Antonio Palopó	9	San Antonio Palopo	2	Febrero	2023-02-21T00:00:00	2024-11-08T23:00:00	3	Temperatura mínima	17.1
155376	7	Sololá	712	San Antonio Palopó	9	San Antonio Palopo	2	Febrero	2023-02-21T00:00:00	2024-11-08T23:00:00	5	Humedad	80
155377	7	Sololá	712	San Antonio Palopó	9	San Antonio Palopo	2	Febrero	2023-02-21T00:00:00	2024-11-08T23:00:00	6	Velocidad del viento	3.2
155378	7	Sololá	712	San Antonio Palopó	9	San Antonio Palopo	2	Febrero	2023-02-21T00:00:00	2024-11-08T23:00:00	7	Dirección del viento	3.22
155379	7	Sololá	712	San Antonio Palopó	9	San Antonio Palopo	2	Febrero	2023-02-21T00:00:00	2024-11-08T23:00:00	1	Precipitación	0
155380	7	Sololá	712	San Antonio Palopó	9	San Antonio Palopo	2	Febrero	2023-02-21T00:00:00	2024-11-08T23:00:00	8	Radiación solar	0
155381	7	Sololá	712	San Antonio Palopó	9	San Antonio Palopo	2	Febrero	2023-02-22T00:00:00	2024-11-08T00:00:00	2	Temperatura media	17
155382	7	Sololá	712	San Antonio Palopó	9	San Antonio Palopo	2	Febrero	2023-02-22T00:00:00	2024-11-08T00:00:00	4	Temperatura máxima	17.2
155383	7	Sololá	712	San Antonio Palopó	9	San Antonio Palopo	2	Febrero	2023-02-22T00:00:00	2024-11-08T00:00:00	3	Temperatura mínima	16.9
155384	7	Sololá	712	San Antonio Palopó	9	San Antonio Palopo	2	Febrero	2023-02-22T00:00:00	2024-11-08T00:00:00	5	Humedad	82
155385	7	Sololá	712	San Antonio Palopó	9	San Antonio Palopo	2	Febrero	2023-02-22T00:00:00	2024-11-08T00:00:00	6	Velocidad del viento	3.2
155386	7	Sololá	712	San Antonio Palopó	9	San Antonio Palopo	2	Febrero	2023-02-22T00:00:00	2024-11-08T00:00:00	7	Dirección del viento	3.22
155387	7	Sololá	712	San Antonio Palopó	9	San Antonio Palopo	2	Febrero	2023-02-22T00:00:00	2024-11-08T00:00:00	1	Precipitación	0
155388	7	Sololá	712	San Antonio Palopó	9	San Antonio Palopo	2	Febrero	2023-02-22T00:00:00	2024-11-08T00:00:00	8	Radiación solar	0
155389	7	Sololá	712	San Antonio Palopó	9	San Antonio Palopo	2	Febrero	2023-02-22T00:00:00	2024-11-08T01:00:00	2	Temperatura media	16.6
155390	7	Sololá	712	San Antonio Palopó	9	San Antonio Palopo	2	Febrero	2023-02-22T00:00:00	2024-11-08T01:00:00	4	Temperatura máxima	17
155391	7	Sololá	712	San Antonio Palopó	9	San Antonio Palopo	2	Febrero	2023-02-22T00:00:00	2024-11-08T01:00:00	3	Temperatura mínima	16.6
155392	7	Sololá	712	San Antonio Palopó	9	San Antonio Palopo	2	Febrero	2023-02-22T00:00:00	2024-11-08T01:00:00	5	Humedad	83
155393	7	Sololá	712	San Antonio Palopó	9	San Antonio Palopo	2	Febrero	2023-02-22T00:00:00	2024-11-08T01:00:00	6	Velocidad del viento	3.2
155394	7	Sololá	712	San Antonio Palopó	9	San Antonio Palopo	2	Febrero	2023-02-22T00:00:00	2024-11-08T01:00:00	7	Dirección del viento	3.22
155395	7	Sololá	712	San Antonio Palopó	9	San Antonio Palopo	2	Febrero	2023-02-22T00:00:00	2024-11-08T01:00:00	1	Precipitación	0
155396	7	Sololá	712	San Antonio Palopó	9	San Antonio Palopo	2	Febrero	2023-02-22T00:00:00	2024-11-08T01:00:00	8	Radiación solar	0
155397	7	Sololá	712	San Antonio Palopó	9	San Antonio Palopo	2	Febrero	2023-02-22T00:00:00	2024-11-08T02:00:00	2	Temperatura media	16.7
155398	7	Sololá	712	San Antonio Palopó	9	San Antonio Palopo	2	Febrero	2023-02-22T00:00:00	2024-11-08T02:00:00	4	Temperatura máxima	16.7
155399	7	Sololá	712	San Antonio Palopó	9	San Antonio Palopo	2	Febrero	2023-02-22T00:00:00	2024-11-08T02:00:00	3	Temperatura mínima	16.4
155400	7	Sololá	712	San Antonio Palopó	9	San Antonio Palopo	2	Febrero	2023-02-22T00:00:00	2024-11-08T02:00:00	5	Humedad	83
155401	7	Sololá	712	San Antonio Palopó	9	San Antonio Palopo	2	Febrero	2023-02-22T00:00:00	2024-11-08T02:00:00	6	Velocidad del viento	3.2
155402	7	Sololá	712	San Antonio Palopó	9	San Antonio Palopo	2	Febrero	2023-02-22T00:00:00	2024-11-08T02:00:00	7	Dirección del viento	3.22
155403	7	Sololá	712	San Antonio Palopó	9	San Antonio Palopo	2	Febrero	2023-02-22T00:00:00	2024-11-08T02:00:00	1	Precipitación	0
155404	7	Sololá	712	San Antonio Palopó	9	San Antonio Palopo	2	Febrero	2023-02-22T00:00:00	2024-11-08T02:00:00	8	Radiación solar	0
155405	7	Sololá	712	San Antonio Palopó	9	San Antonio Palopo	2	Febrero	2023-02-22T00:00:00	2024-11-08T03:00:00	2	Temperatura media	17.3
155406	7	Sololá	712	San Antonio Palopó	9	San Antonio Palopo	2	Febrero	2023-02-22T00:00:00	2024-11-08T03:00:00	4	Temperatura máxima	17.3
155407	7	Sololá	712	San Antonio Palopó	9	San Antonio Palopo	2	Febrero	2023-02-22T00:00:00	2024-11-08T03:00:00	3	Temperatura mínima	16.7
155408	7	Sololá	712	San Antonio Palopó	9	San Antonio Palopo	2	Febrero	2023-02-22T00:00:00	2024-11-08T03:00:00	5	Humedad	82
155409	7	Sololá	712	San Antonio Palopó	9	San Antonio Palopo	2	Febrero	2023-02-22T00:00:00	2024-11-08T03:00:00	6	Velocidad del viento	1.6
155410	7	Sololá	712	San Antonio Palopó	9	San Antonio Palopo	2	Febrero	2023-02-22T00:00:00	2024-11-08T03:00:00	7	Dirección del viento	1.61
155411	7	Sololá	712	San Antonio Palopó	9	San Antonio Palopo	2	Febrero	2023-02-22T00:00:00	2024-11-08T03:00:00	1	Precipitación	0
155412	7	Sololá	712	San Antonio Palopó	9	San Antonio Palopo	2	Febrero	2023-02-22T00:00:00	2024-11-08T03:00:00	8	Radiación solar	0
155413	7	Sololá	712	San Antonio Palopó	9	San Antonio Palopo	2	Febrero	2023-02-22T00:00:00	2024-11-08T04:00:00	2	Temperatura media	17.3
155414	7	Sololá	712	San Antonio Palopó	9	San Antonio Palopo	2	Febrero	2023-02-22T00:00:00	2024-11-08T04:00:00	4	Temperatura máxima	17.5
155415	7	Sololá	712	San Antonio Palopó	9	San Antonio Palopo	2	Febrero	2023-02-22T00:00:00	2024-11-08T04:00:00	3	Temperatura mínima	17.3
155416	7	Sololá	712	San Antonio Palopó	9	San Antonio Palopo	2	Febrero	2023-02-22T00:00:00	2024-11-08T04:00:00	5	Humedad	83
155417	7	Sololá	712	San Antonio Palopó	9	San Antonio Palopo	2	Febrero	2023-02-22T00:00:00	2024-11-08T04:00:00	6	Velocidad del viento	1.6
155418	7	Sololá	712	San Antonio Palopó	9	San Antonio Palopo	2	Febrero	2023-02-22T00:00:00	2024-11-08T04:00:00	7	Dirección del viento	1.61
155419	7	Sololá	712	San Antonio Palopó	9	San Antonio Palopo	2	Febrero	2023-02-22T00:00:00	2024-11-08T04:00:00	1	Precipitación	0
155420	7	Sololá	712	San Antonio Palopó	9	San Antonio Palopo	2	Febrero	2023-02-22T00:00:00	2024-11-08T04:00:00	8	Radiación solar	0
155421	7	Sololá	712	San Antonio Palopó	9	San Antonio Palopo	2	Febrero	2023-02-22T00:00:00	2024-11-08T05:00:00	2	Temperatura media	17.6
155422	7	Sololá	712	San Antonio Palopó	9	San Antonio Palopo	2	Febrero	2023-02-22T00:00:00	2024-11-08T05:00:00	4	Temperatura máxima	17.6
155423	7	Sololá	712	San Antonio Palopó	9	San Antonio Palopo	2	Febrero	2023-02-22T00:00:00	2024-11-08T05:00:00	3	Temperatura mínima	17.2
155424	7	Sololá	712	San Antonio Palopó	9	San Antonio Palopo	2	Febrero	2023-02-22T00:00:00	2024-11-08T05:00:00	5	Humedad	87
155425	7	Sololá	712	San Antonio Palopó	9	San Antonio Palopo	2	Febrero	2023-02-22T00:00:00	2024-11-08T05:00:00	6	Velocidad del viento	1.6
155426	7	Sololá	712	San Antonio Palopó	9	San Antonio Palopo	2	Febrero	2023-02-22T00:00:00	2024-11-08T05:00:00	7	Dirección del viento	1.61
155427	7	Sololá	712	San Antonio Palopó	9	San Antonio Palopo	2	Febrero	2023-02-22T00:00:00	2024-11-08T05:00:00	1	Precipitación	0
155428	7	Sololá	712	San Antonio Palopó	9	San Antonio Palopo	2	Febrero	2023-02-22T00:00:00	2024-11-08T05:00:00	8	Radiación solar	0
155429	7	Sololá	712	San Antonio Palopó	9	San Antonio Palopo	2	Febrero	2023-02-22T00:00:00	2024-11-08T06:00:00	2	Temperatura media	17.2
155430	7	Sololá	712	San Antonio Palopó	9	San Antonio Palopo	2	Febrero	2023-02-22T00:00:00	2024-11-08T06:00:00	4	Temperatura máxima	17.6
155431	7	Sololá	712	San Antonio Palopó	9	San Antonio Palopo	2	Febrero	2023-02-22T00:00:00	2024-11-08T06:00:00	3	Temperatura mínima	17.1
155432	7	Sololá	712	San Antonio Palopó	9	San Antonio Palopo	2	Febrero	2023-02-22T00:00:00	2024-11-08T06:00:00	5	Humedad	84
155433	7	Sololá	712	San Antonio Palopó	9	San Antonio Palopo	2	Febrero	2023-02-22T00:00:00	2024-11-08T06:00:00	6	Velocidad del viento	1.6
155434	7	Sololá	712	San Antonio Palopó	9	San Antonio Palopo	2	Febrero	2023-02-22T00:00:00	2024-11-08T06:00:00	7	Dirección del viento	1.61
155435	7	Sololá	712	San Antonio Palopó	9	San Antonio Palopo	2	Febrero	2023-02-22T00:00:00	2024-11-08T06:00:00	1	Precipitación	0
155436	7	Sololá	712	San Antonio Palopó	9	San Antonio Palopo	2	Febrero	2023-02-22T00:00:00	2024-11-08T06:00:00	8	Radiación solar	0
155437	7	Sololá	712	San Antonio Palopó	9	San Antonio Palopo	2	Febrero	2023-02-22T00:00:00	2024-11-08T07:00:00	2	Temperatura media	17.2
155438	7	Sololá	712	San Antonio Palopó	9	San Antonio Palopo	2	Febrero	2023-02-22T00:00:00	2024-11-08T07:00:00	4	Temperatura máxima	17.2
155439	7	Sololá	712	San Antonio Palopó	9	San Antonio Palopo	2	Febrero	2023-02-22T00:00:00	2024-11-08T07:00:00	3	Temperatura mínima	16.8
155440	7	Sololá	712	San Antonio Palopó	9	San Antonio Palopo	2	Febrero	2023-02-22T00:00:00	2024-11-08T07:00:00	5	Humedad	83
155441	7	Sololá	712	San Antonio Palopó	9	San Antonio Palopo	2	Febrero	2023-02-22T00:00:00	2024-11-08T07:00:00	6	Velocidad del viento	1.6
155442	7	Sololá	712	San Antonio Palopó	9	San Antonio Palopo	2	Febrero	2023-02-22T00:00:00	2024-11-08T07:00:00	7	Dirección del viento	1.61
155443	7	Sololá	712	San Antonio Palopó	9	San Antonio Palopo	2	Febrero	2023-02-22T00:00:00	2024-11-08T07:00:00	1	Precipitación	0
155444	7	Sololá	712	San Antonio Palopó	9	San Antonio Palopo	2	Febrero	2023-02-22T00:00:00	2024-11-08T07:00:00	8	Radiación solar	9
155445	7	Sololá	712	San Antonio Palopó	9	San Antonio Palopo	2	Febrero	2023-02-22T00:00:00	2024-11-08T08:00:00	2	Temperatura media	18.1
155446	7	Sololá	712	San Antonio Palopó	9	San Antonio Palopo	2	Febrero	2023-02-22T00:00:00	2024-11-08T08:00:00	4	Temperatura máxima	18.1
155447	7	Sololá	712	San Antonio Palopó	9	San Antonio Palopo	2	Febrero	2023-02-22T00:00:00	2024-11-08T08:00:00	3	Temperatura mínima	17.2
155448	7	Sololá	712	San Antonio Palopó	9	San Antonio Palopo	2	Febrero	2023-02-22T00:00:00	2024-11-08T08:00:00	5	Humedad	85
155449	7	Sololá	712	San Antonio Palopó	9	San Antonio Palopo	2	Febrero	2023-02-22T00:00:00	2024-11-08T08:00:00	6	Velocidad del viento	1.6
155450	7	Sololá	712	San Antonio Palopó	9	San Antonio Palopo	2	Febrero	2023-02-22T00:00:00	2024-11-08T08:00:00	7	Dirección del viento	1.61
155451	7	Sololá	712	San Antonio Palopó	9	San Antonio Palopo	2	Febrero	2023-02-22T00:00:00	2024-11-08T08:00:00	1	Precipitación	0
155452	7	Sololá	712	San Antonio Palopó	9	San Antonio Palopo	2	Febrero	2023-02-22T00:00:00	2024-11-08T08:00:00	8	Radiación solar	79
155453	7	Sololá	712	San Antonio Palopó	9	San Antonio Palopo	2	Febrero	2023-02-22T00:00:00	2024-11-08T09:00:00	2	Temperatura media	18.4
155454	7	Sololá	712	San Antonio Palopó	9	San Antonio Palopo	2	Febrero	2023-02-22T00:00:00	2024-11-08T09:00:00	4	Temperatura máxima	18.6
155455	7	Sololá	712	San Antonio Palopó	9	San Antonio Palopo	2	Febrero	2023-02-22T00:00:00	2024-11-08T09:00:00	3	Temperatura mínima	18.1
155456	7	Sololá	712	San Antonio Palopó	9	San Antonio Palopo	2	Febrero	2023-02-22T00:00:00	2024-11-08T09:00:00	5	Humedad	85
155457	7	Sololá	712	San Antonio Palopó	9	San Antonio Palopo	2	Febrero	2023-02-22T00:00:00	2024-11-08T09:00:00	6	Velocidad del viento	3.2
155458	7	Sololá	712	San Antonio Palopó	9	San Antonio Palopo	2	Febrero	2023-02-22T00:00:00	2024-11-08T09:00:00	7	Dirección del viento	3.22
155459	7	Sololá	712	San Antonio Palopó	9	San Antonio Palopo	2	Febrero	2023-02-22T00:00:00	2024-11-08T09:00:00	1	Precipitación	0
155460	7	Sololá	712	San Antonio Palopó	9	San Antonio Palopo	2	Febrero	2023-02-22T00:00:00	2024-11-08T09:00:00	8	Radiación solar	151
155461	7	Sololá	712	San Antonio Palopó	9	San Antonio Palopo	2	Febrero	2023-02-22T00:00:00	2024-11-08T10:00:00	2	Temperatura media	19.6
155462	7	Sololá	712	San Antonio Palopó	9	San Antonio Palopo	2	Febrero	2023-02-22T00:00:00	2024-11-08T10:00:00	4	Temperatura máxima	19.7
155463	7	Sololá	712	San Antonio Palopó	9	San Antonio Palopo	2	Febrero	2023-02-22T00:00:00	2024-11-08T10:00:00	3	Temperatura mínima	18.5
155464	7	Sololá	712	San Antonio Palopó	9	San Antonio Palopo	2	Febrero	2023-02-22T00:00:00	2024-11-08T10:00:00	5	Humedad	79
155465	7	Sololá	712	San Antonio Palopó	9	San Antonio Palopo	2	Febrero	2023-02-22T00:00:00	2024-11-08T10:00:00	6	Velocidad del viento	3.2
155466	7	Sololá	712	San Antonio Palopó	9	San Antonio Palopo	2	Febrero	2023-02-22T00:00:00	2024-11-08T10:00:00	7	Dirección del viento	3.22
155467	7	Sololá	712	San Antonio Palopó	9	San Antonio Palopo	2	Febrero	2023-02-22T00:00:00	2024-11-08T10:00:00	1	Precipitación	0
155468	7	Sololá	712	San Antonio Palopó	9	San Antonio Palopo	2	Febrero	2023-02-22T00:00:00	2024-11-08T10:00:00	8	Radiación solar	446
155469	7	Sololá	712	San Antonio Palopó	9	San Antonio Palopo	2	Febrero	2023-02-22T00:00:00	2024-11-08T11:00:00	2	Temperatura media	20.4
155470	7	Sololá	712	San Antonio Palopó	9	San Antonio Palopo	2	Febrero	2023-02-22T00:00:00	2024-11-08T11:00:00	4	Temperatura máxima	20.4
155471	7	Sololá	712	San Antonio Palopó	9	San Antonio Palopo	2	Febrero	2023-02-22T00:00:00	2024-11-08T11:00:00	3	Temperatura mínima	19.6
155472	7	Sololá	712	San Antonio Palopó	9	San Antonio Palopo	2	Febrero	2023-02-22T00:00:00	2024-11-08T11:00:00	5	Humedad	74
155473	7	Sololá	712	San Antonio Palopó	9	San Antonio Palopo	2	Febrero	2023-02-22T00:00:00	2024-11-08T11:00:00	6	Velocidad del viento	3.2
155474	7	Sololá	712	San Antonio Palopó	9	San Antonio Palopo	2	Febrero	2023-02-22T00:00:00	2024-11-08T11:00:00	7	Dirección del viento	3.22
155475	7	Sololá	712	San Antonio Palopó	9	San Antonio Palopo	2	Febrero	2023-02-22T00:00:00	2024-11-08T11:00:00	1	Precipitación	0
155476	7	Sololá	712	San Antonio Palopó	9	San Antonio Palopo	2	Febrero	2023-02-22T00:00:00	2024-11-08T11:00:00	8	Radiación solar	619
155477	7	Sololá	712	San Antonio Palopó	9	San Antonio Palopo	2	Febrero	2023-02-22T00:00:00	2024-11-08T12:00:00	2	Temperatura media	22.2
155478	7	Sololá	712	San Antonio Palopó	9	San Antonio Palopo	2	Febrero	2023-02-22T00:00:00	2024-11-08T12:00:00	4	Temperatura máxima	22.2
155479	7	Sololá	712	San Antonio Palopó	9	San Antonio Palopo	2	Febrero	2023-02-22T00:00:00	2024-11-08T12:00:00	3	Temperatura mínima	20.3
155480	7	Sololá	712	San Antonio Palopó	9	San Antonio Palopo	2	Febrero	2023-02-22T00:00:00	2024-11-08T12:00:00	5	Humedad	68
155481	7	Sololá	712	San Antonio Palopó	9	San Antonio Palopo	2	Febrero	2023-02-22T00:00:00	2024-11-08T12:00:00	6	Velocidad del viento	3.2
155482	7	Sololá	712	San Antonio Palopó	9	San Antonio Palopo	2	Febrero	2023-02-22T00:00:00	2024-11-08T12:00:00	7	Dirección del viento	3.22
155483	7	Sololá	712	San Antonio Palopó	9	San Antonio Palopo	2	Febrero	2023-02-22T00:00:00	2024-11-08T12:00:00	1	Precipitación	0
155484	7	Sololá	712	San Antonio Palopó	9	San Antonio Palopo	2	Febrero	2023-02-22T00:00:00	2024-11-08T12:00:00	8	Radiación solar	617
155485	7	Sololá	712	San Antonio Palopó	9	San Antonio Palopo	2	Febrero	2023-02-22T00:00:00	2024-11-08T13:00:00	2	Temperatura media	22.3
155486	7	Sololá	712	San Antonio Palopó	9	San Antonio Palopo	2	Febrero	2023-02-22T00:00:00	2024-11-08T13:00:00	4	Temperatura máxima	22.7
155487	7	Sololá	712	San Antonio Palopó	9	San Antonio Palopo	2	Febrero	2023-02-22T00:00:00	2024-11-08T13:00:00	3	Temperatura mínima	21.1
155488	7	Sololá	712	San Antonio Palopó	9	San Antonio Palopo	2	Febrero	2023-02-22T00:00:00	2024-11-08T13:00:00	5	Humedad	63
155489	7	Sololá	712	San Antonio Palopó	9	San Antonio Palopo	2	Febrero	2023-02-22T00:00:00	2024-11-08T13:00:00	6	Velocidad del viento	8
155490	7	Sololá	712	San Antonio Palopó	9	San Antonio Palopo	2	Febrero	2023-02-22T00:00:00	2024-11-08T13:00:00	7	Dirección del viento	8.05
155491	7	Sololá	712	San Antonio Palopó	9	San Antonio Palopo	2	Febrero	2023-02-22T00:00:00	2024-11-08T13:00:00	1	Precipitación	0
155492	7	Sololá	712	San Antonio Palopó	9	San Antonio Palopo	2	Febrero	2023-02-22T00:00:00	2024-11-08T13:00:00	8	Radiación solar	919
155493	7	Sololá	712	San Antonio Palopó	9	San Antonio Palopo	2	Febrero	2023-02-22T00:00:00	2024-11-08T14:00:00	2	Temperatura media	23.2
155494	7	Sololá	712	San Antonio Palopó	9	San Antonio Palopo	2	Febrero	2023-02-22T00:00:00	2024-11-08T14:00:00	4	Temperatura máxima	23.3
155495	7	Sololá	712	San Antonio Palopó	9	San Antonio Palopo	2	Febrero	2023-02-22T00:00:00	2024-11-08T14:00:00	3	Temperatura mínima	22
155496	7	Sololá	712	San Antonio Palopó	9	San Antonio Palopo	2	Febrero	2023-02-22T00:00:00	2024-11-08T14:00:00	5	Humedad	59
155497	7	Sololá	712	San Antonio Palopó	9	San Antonio Palopo	2	Febrero	2023-02-22T00:00:00	2024-11-08T14:00:00	6	Velocidad del viento	11.3
155498	7	Sololá	712	San Antonio Palopó	9	San Antonio Palopo	2	Febrero	2023-02-22T00:00:00	2024-11-08T14:00:00	7	Dirección del viento	11.27
155499	7	Sololá	712	San Antonio Palopó	9	San Antonio Palopo	2	Febrero	2023-02-22T00:00:00	2024-11-08T14:00:00	1	Precipitación	0
155500	7	Sololá	712	San Antonio Palopó	9	San Antonio Palopo	2	Febrero	2023-02-22T00:00:00	2024-11-08T14:00:00	8	Radiación solar	856
155501	7	Sololá	712	San Antonio Palopó	9	San Antonio Palopo	2	Febrero	2023-02-22T00:00:00	2024-11-08T15:00:00	2	Temperatura media	22.2
155502	7	Sololá	712	San Antonio Palopó	9	San Antonio Palopo	2	Febrero	2023-02-22T00:00:00	2024-11-08T15:00:00	4	Temperatura máxima	23.2
155503	7	Sololá	712	San Antonio Palopó	9	San Antonio Palopo	2	Febrero	2023-02-22T00:00:00	2024-11-08T15:00:00	3	Temperatura mínima	22.1
155504	7	Sololá	712	San Antonio Palopó	9	San Antonio Palopo	2	Febrero	2023-02-22T00:00:00	2024-11-08T15:00:00	5	Humedad	67
155505	7	Sololá	712	San Antonio Palopó	9	San Antonio Palopo	2	Febrero	2023-02-22T00:00:00	2024-11-08T15:00:00	6	Velocidad del viento	12.9
155506	7	Sololá	712	San Antonio Palopó	9	San Antonio Palopo	2	Febrero	2023-02-22T00:00:00	2024-11-08T15:00:00	7	Dirección del viento	12.87
155507	7	Sololá	712	San Antonio Palopó	9	San Antonio Palopo	2	Febrero	2023-02-22T00:00:00	2024-11-08T15:00:00	1	Precipitación	0
155508	7	Sololá	712	San Antonio Palopó	9	San Antonio Palopo	2	Febrero	2023-02-22T00:00:00	2024-11-08T15:00:00	8	Radiación solar	564
155509	7	Sololá	712	San Antonio Palopó	9	San Antonio Palopo	2	Febrero	2023-02-22T00:00:00	2024-11-08T16:00:00	2	Temperatura media	21.7
155510	7	Sololá	712	San Antonio Palopó	9	San Antonio Palopo	2	Febrero	2023-02-22T00:00:00	2024-11-08T16:00:00	4	Temperatura máxima	22.3
155511	7	Sololá	712	San Antonio Palopó	9	San Antonio Palopo	2	Febrero	2023-02-22T00:00:00	2024-11-08T16:00:00	3	Temperatura mínima	21.3
155512	7	Sololá	712	San Antonio Palopó	9	San Antonio Palopo	2	Febrero	2023-02-22T00:00:00	2024-11-08T16:00:00	5	Humedad	70
155513	7	Sololá	712	San Antonio Palopó	9	San Antonio Palopo	2	Febrero	2023-02-22T00:00:00	2024-11-08T16:00:00	6	Velocidad del viento	14.5
155514	7	Sololá	712	San Antonio Palopó	9	San Antonio Palopo	2	Febrero	2023-02-22T00:00:00	2024-11-08T16:00:00	7	Dirección del viento	14.48
155515	7	Sololá	712	San Antonio Palopó	9	San Antonio Palopo	2	Febrero	2023-02-22T00:00:00	2024-11-08T16:00:00	1	Precipitación	0
155516	7	Sololá	712	San Antonio Palopó	9	San Antonio Palopo	2	Febrero	2023-02-22T00:00:00	2024-11-08T16:00:00	8	Radiación solar	334
155517	7	Sololá	712	San Antonio Palopó	9	San Antonio Palopo	2	Febrero	2023-02-22T00:00:00	2024-11-08T17:00:00	2	Temperatura media	20.4
155518	7	Sololá	712	San Antonio Palopó	9	San Antonio Palopo	2	Febrero	2023-02-22T00:00:00	2024-11-08T17:00:00	4	Temperatura máxima	21.8
155519	7	Sololá	712	San Antonio Palopó	9	San Antonio Palopo	2	Febrero	2023-02-22T00:00:00	2024-11-08T17:00:00	3	Temperatura mínima	20.3
155520	7	Sololá	712	San Antonio Palopó	9	San Antonio Palopo	2	Febrero	2023-02-22T00:00:00	2024-11-08T17:00:00	5	Humedad	74
155521	7	Sololá	712	San Antonio Palopó	9	San Antonio Palopo	2	Febrero	2023-02-22T00:00:00	2024-11-08T17:00:00	6	Velocidad del viento	11.3
155522	7	Sololá	712	San Antonio Palopó	9	San Antonio Palopo	2	Febrero	2023-02-22T00:00:00	2024-11-08T17:00:00	7	Dirección del viento	11.27
155523	7	Sololá	712	San Antonio Palopó	9	San Antonio Palopo	2	Febrero	2023-02-22T00:00:00	2024-11-08T17:00:00	1	Precipitación	0
155524	7	Sololá	712	San Antonio Palopó	9	San Antonio Palopo	2	Febrero	2023-02-22T00:00:00	2024-11-08T17:00:00	8	Radiación solar	197
155525	7	Sololá	712	San Antonio Palopó	9	San Antonio Palopo	2	Febrero	2023-02-22T00:00:00	2024-11-08T18:00:00	2	Temperatura media	19.7
155526	7	Sololá	712	San Antonio Palopó	9	San Antonio Palopo	2	Febrero	2023-02-22T00:00:00	2024-11-08T18:00:00	4	Temperatura máxima	21.1
155527	7	Sololá	712	San Antonio Palopó	9	San Antonio Palopo	2	Febrero	2023-02-22T00:00:00	2024-11-08T18:00:00	3	Temperatura mínima	19.7
155528	7	Sololá	712	San Antonio Palopó	9	San Antonio Palopo	2	Febrero	2023-02-22T00:00:00	2024-11-08T18:00:00	5	Humedad	80
155529	7	Sololá	712	San Antonio Palopó	9	San Antonio Palopo	2	Febrero	2023-02-22T00:00:00	2024-11-08T18:00:00	6	Velocidad del viento	8
155530	7	Sololá	712	San Antonio Palopó	9	San Antonio Palopo	2	Febrero	2023-02-22T00:00:00	2024-11-08T18:00:00	7	Dirección del viento	8.05
155531	7	Sololá	712	San Antonio Palopó	9	San Antonio Palopo	2	Febrero	2023-02-22T00:00:00	2024-11-08T18:00:00	1	Precipitación	0
155532	7	Sololá	712	San Antonio Palopó	9	San Antonio Palopo	2	Febrero	2023-02-22T00:00:00	2024-11-08T18:00:00	8	Radiación solar	64
155533	7	Sololá	712	San Antonio Palopó	9	San Antonio Palopo	2	Febrero	2023-02-22T00:00:00	2024-11-08T19:00:00	2	Temperatura media	19.3
155534	7	Sololá	712	San Antonio Palopó	9	San Antonio Palopo	2	Febrero	2023-02-22T00:00:00	2024-11-08T19:00:00	4	Temperatura máxima	19.8
155535	7	Sololá	712	San Antonio Palopó	9	San Antonio Palopo	2	Febrero	2023-02-22T00:00:00	2024-11-08T19:00:00	3	Temperatura mínima	19.2
155536	7	Sololá	712	San Antonio Palopó	9	San Antonio Palopo	2	Febrero	2023-02-22T00:00:00	2024-11-08T19:00:00	5	Humedad	77
155537	7	Sololá	712	San Antonio Palopó	9	San Antonio Palopo	2	Febrero	2023-02-22T00:00:00	2024-11-08T19:00:00	6	Velocidad del viento	4.8
155538	7	Sololá	712	San Antonio Palopó	9	San Antonio Palopo	2	Febrero	2023-02-22T00:00:00	2024-11-08T19:00:00	7	Dirección del viento	4.83
155539	7	Sololá	712	San Antonio Palopó	9	San Antonio Palopo	2	Febrero	2023-02-22T00:00:00	2024-11-08T19:00:00	1	Precipitación	0
155540	7	Sololá	712	San Antonio Palopó	9	San Antonio Palopo	2	Febrero	2023-02-22T00:00:00	2024-11-08T19:00:00	8	Radiación solar	0
155541	7	Sololá	712	San Antonio Palopó	9	San Antonio Palopo	2	Febrero	2023-02-22T00:00:00	2024-11-08T20:00:00	2	Temperatura media	19.2
155542	7	Sololá	712	San Antonio Palopó	9	San Antonio Palopo	2	Febrero	2023-02-22T00:00:00	2024-11-08T20:00:00	4	Temperatura máxima	19.4
155543	7	Sololá	712	San Antonio Palopó	9	San Antonio Palopo	2	Febrero	2023-02-22T00:00:00	2024-11-08T20:00:00	3	Temperatura mínima	19.2
155544	7	Sololá	712	San Antonio Palopó	9	San Antonio Palopo	2	Febrero	2023-02-22T00:00:00	2024-11-08T20:00:00	5	Humedad	79
155545	7	Sololá	712	San Antonio Palopó	9	San Antonio Palopo	2	Febrero	2023-02-22T00:00:00	2024-11-08T20:00:00	6	Velocidad del viento	3.2
155546	7	Sololá	712	San Antonio Palopó	9	San Antonio Palopo	2	Febrero	2023-02-22T00:00:00	2024-11-08T20:00:00	7	Dirección del viento	3.22
155547	7	Sololá	712	San Antonio Palopó	9	San Antonio Palopo	2	Febrero	2023-02-22T00:00:00	2024-11-08T20:00:00	1	Precipitación	0
155548	7	Sololá	712	San Antonio Palopó	9	San Antonio Palopo	2	Febrero	2023-02-22T00:00:00	2024-11-08T20:00:00	8	Radiación solar	0
155549	7	Sololá	712	San Antonio Palopó	9	San Antonio Palopo	2	Febrero	2023-02-22T00:00:00	2024-11-08T21:00:00	2	Temperatura media	18.7
155550	7	Sololá	712	San Antonio Palopó	9	San Antonio Palopo	2	Febrero	2023-02-22T00:00:00	2024-11-08T21:00:00	4	Temperatura máxima	19.2
155551	7	Sololá	712	San Antonio Palopó	9	San Antonio Palopo	2	Febrero	2023-02-22T00:00:00	2024-11-08T21:00:00	3	Temperatura mínima	18.7
155552	7	Sololá	712	San Antonio Palopó	9	San Antonio Palopo	2	Febrero	2023-02-22T00:00:00	2024-11-08T21:00:00	5	Humedad	84
155553	7	Sololá	712	San Antonio Palopó	9	San Antonio Palopo	2	Febrero	2023-02-22T00:00:00	2024-11-08T21:00:00	6	Velocidad del viento	1.6
155554	7	Sololá	712	San Antonio Palopó	9	San Antonio Palopo	2	Febrero	2023-02-22T00:00:00	2024-11-08T21:00:00	7	Dirección del viento	1.61
155555	7	Sololá	712	San Antonio Palopó	9	San Antonio Palopo	2	Febrero	2023-02-22T00:00:00	2024-11-08T21:00:00	1	Precipitación	0
155556	7	Sololá	712	San Antonio Palopó	9	San Antonio Palopo	2	Febrero	2023-02-22T00:00:00	2024-11-08T21:00:00	8	Radiación solar	0
155557	7	Sololá	712	San Antonio Palopó	9	San Antonio Palopo	2	Febrero	2023-02-22T00:00:00	2024-11-08T22:00:00	2	Temperatura media	17.9
155558	7	Sololá	712	San Antonio Palopó	9	San Antonio Palopo	2	Febrero	2023-02-22T00:00:00	2024-11-08T22:00:00	4	Temperatura máxima	18.7
155559	7	Sololá	712	San Antonio Palopó	9	San Antonio Palopo	2	Febrero	2023-02-22T00:00:00	2024-11-08T22:00:00	3	Temperatura mínima	17.9
155560	7	Sololá	712	San Antonio Palopó	9	San Antonio Palopo	2	Febrero	2023-02-22T00:00:00	2024-11-08T22:00:00	5	Humedad	79
155561	7	Sololá	712	San Antonio Palopó	9	San Antonio Palopo	2	Febrero	2023-02-22T00:00:00	2024-11-08T22:00:00	6	Velocidad del viento	1.6
155562	7	Sololá	712	San Antonio Palopó	9	San Antonio Palopo	2	Febrero	2023-02-22T00:00:00	2024-11-08T22:00:00	7	Dirección del viento	1.61
155563	7	Sololá	712	San Antonio Palopó	9	San Antonio Palopo	2	Febrero	2023-02-22T00:00:00	2024-11-08T22:00:00	1	Precipitación	0
155564	7	Sololá	712	San Antonio Palopó	9	San Antonio Palopo	2	Febrero	2023-02-22T00:00:00	2024-11-08T22:00:00	8	Radiación solar	0
155565	7	Sololá	712	San Antonio Palopó	9	San Antonio Palopo	2	Febrero	2023-02-22T00:00:00	2024-11-08T23:00:00	2	Temperatura media	18.1
155566	7	Sololá	712	San Antonio Palopó	9	San Antonio Palopo	2	Febrero	2023-02-22T00:00:00	2024-11-08T23:00:00	4	Temperatura máxima	18.2
155567	7	Sololá	712	San Antonio Palopó	9	San Antonio Palopo	2	Febrero	2023-02-22T00:00:00	2024-11-08T23:00:00	3	Temperatura mínima	17.9
155568	7	Sololá	712	San Antonio Palopó	9	San Antonio Palopo	2	Febrero	2023-02-22T00:00:00	2024-11-08T23:00:00	5	Humedad	83
155569	7	Sololá	712	San Antonio Palopó	9	San Antonio Palopo	2	Febrero	2023-02-22T00:00:00	2024-11-08T23:00:00	6	Velocidad del viento	1.6
155570	7	Sololá	712	San Antonio Palopó	9	San Antonio Palopo	2	Febrero	2023-02-22T00:00:00	2024-11-08T23:00:00	7	Dirección del viento	1.61
155571	7	Sololá	712	San Antonio Palopó	9	San Antonio Palopo	2	Febrero	2023-02-22T00:00:00	2024-11-08T23:00:00	1	Precipitación	0
155572	7	Sololá	712	San Antonio Palopó	9	San Antonio Palopo	2	Febrero	2023-02-22T00:00:00	2024-11-08T23:00:00	8	Radiación solar	0
155573	7	Sololá	712	San Antonio Palopó	9	San Antonio Palopo	2	Febrero	2023-02-23T00:00:00	2024-11-08T00:00:00	2	Temperatura media	17.6
155574	7	Sololá	712	San Antonio Palopó	9	San Antonio Palopo	2	Febrero	2023-02-23T00:00:00	2024-11-08T00:00:00	4	Temperatura máxima	18.1
155575	7	Sololá	712	San Antonio Palopó	9	San Antonio Palopo	2	Febrero	2023-02-23T00:00:00	2024-11-08T00:00:00	3	Temperatura mínima	17.6
155576	7	Sololá	712	San Antonio Palopó	9	San Antonio Palopo	2	Febrero	2023-02-23T00:00:00	2024-11-08T00:00:00	5	Humedad	82
155577	7	Sololá	712	San Antonio Palopó	9	San Antonio Palopo	2	Febrero	2023-02-23T00:00:00	2024-11-08T00:00:00	6	Velocidad del viento	1.6
155578	7	Sololá	712	San Antonio Palopó	9	San Antonio Palopo	2	Febrero	2023-02-23T00:00:00	2024-11-08T00:00:00	7	Dirección del viento	1.61
155579	7	Sololá	712	San Antonio Palopó	9	San Antonio Palopo	2	Febrero	2023-02-23T00:00:00	2024-11-08T00:00:00	1	Precipitación	0
155580	7	Sololá	712	San Antonio Palopó	9	San Antonio Palopo	2	Febrero	2023-02-23T00:00:00	2024-11-08T00:00:00	8	Radiación solar	0
155581	7	Sololá	712	San Antonio Palopó	9	San Antonio Palopo	2	Febrero	2023-02-23T00:00:00	2024-11-08T01:00:00	2	Temperatura media	17.3
155582	7	Sololá	712	San Antonio Palopó	9	San Antonio Palopo	2	Febrero	2023-02-23T00:00:00	2024-11-08T01:00:00	4	Temperatura máxima	17.6
155583	7	Sololá	712	San Antonio Palopó	9	San Antonio Palopo	2	Febrero	2023-02-23T00:00:00	2024-11-08T01:00:00	3	Temperatura mínima	17.3
155584	7	Sololá	712	San Antonio Palopó	9	San Antonio Palopo	2	Febrero	2023-02-23T00:00:00	2024-11-08T01:00:00	5	Humedad	82
155585	7	Sololá	712	San Antonio Palopó	9	San Antonio Palopo	2	Febrero	2023-02-23T00:00:00	2024-11-08T01:00:00	6	Velocidad del viento	1.6
155586	7	Sololá	712	San Antonio Palopó	9	San Antonio Palopo	2	Febrero	2023-02-23T00:00:00	2024-11-08T01:00:00	7	Dirección del viento	1.61
155587	7	Sololá	712	San Antonio Palopó	9	San Antonio Palopo	2	Febrero	2023-02-23T00:00:00	2024-11-08T01:00:00	1	Precipitación	0
155588	7	Sololá	712	San Antonio Palopó	9	San Antonio Palopo	2	Febrero	2023-02-23T00:00:00	2024-11-08T01:00:00	8	Radiación solar	0
155589	7	Sololá	712	San Antonio Palopó	9	San Antonio Palopo	2	Febrero	2023-02-23T00:00:00	2024-11-08T02:00:00	2	Temperatura media	17.2
155590	7	Sololá	712	San Antonio Palopó	9	San Antonio Palopo	2	Febrero	2023-02-23T00:00:00	2024-11-08T02:00:00	4	Temperatura máxima	17.7
155591	7	Sololá	712	San Antonio Palopó	9	San Antonio Palopo	2	Febrero	2023-02-23T00:00:00	2024-11-08T02:00:00	3	Temperatura mínima	17.2
155592	7	Sololá	712	San Antonio Palopó	9	San Antonio Palopo	2	Febrero	2023-02-23T00:00:00	2024-11-08T02:00:00	5	Humedad	82
155593	7	Sololá	712	San Antonio Palopó	9	San Antonio Palopo	2	Febrero	2023-02-23T00:00:00	2024-11-08T02:00:00	6	Velocidad del viento	1.6
155594	7	Sololá	712	San Antonio Palopó	9	San Antonio Palopo	2	Febrero	2023-02-23T00:00:00	2024-11-08T02:00:00	7	Dirección del viento	1.61
155595	7	Sololá	712	San Antonio Palopó	9	San Antonio Palopo	2	Febrero	2023-02-23T00:00:00	2024-11-08T02:00:00	1	Precipitación	0
155596	7	Sololá	712	San Antonio Palopó	9	San Antonio Palopo	2	Febrero	2023-02-23T00:00:00	2024-11-08T02:00:00	8	Radiación solar	0
155597	7	Sololá	712	San Antonio Palopó	9	San Antonio Palopo	2	Febrero	2023-02-23T00:00:00	2024-11-08T03:00:00	2	Temperatura media	16.9
155598	7	Sololá	712	San Antonio Palopó	9	San Antonio Palopo	2	Febrero	2023-02-23T00:00:00	2024-11-08T03:00:00	4	Temperatura máxima	17.2
155599	7	Sololá	712	San Antonio Palopó	9	San Antonio Palopo	2	Febrero	2023-02-23T00:00:00	2024-11-08T03:00:00	3	Temperatura mínima	16.6
155600	7	Sololá	712	San Antonio Palopó	9	San Antonio Palopo	2	Febrero	2023-02-23T00:00:00	2024-11-08T03:00:00	5	Humedad	79
155601	7	Sololá	712	San Antonio Palopó	9	San Antonio Palopo	2	Febrero	2023-02-23T00:00:00	2024-11-08T03:00:00	6	Velocidad del viento	3.2
155602	7	Sololá	712	San Antonio Palopó	9	San Antonio Palopo	2	Febrero	2023-02-23T00:00:00	2024-11-08T03:00:00	7	Dirección del viento	3.22
155603	7	Sololá	712	San Antonio Palopó	9	San Antonio Palopo	2	Febrero	2023-02-23T00:00:00	2024-11-08T03:00:00	1	Precipitación	0
155604	7	Sololá	712	San Antonio Palopó	9	San Antonio Palopo	2	Febrero	2023-02-23T00:00:00	2024-11-08T03:00:00	8	Radiación solar	0
155605	7	Sololá	712	San Antonio Palopó	9	San Antonio Palopo	2	Febrero	2023-02-23T00:00:00	2024-11-08T04:00:00	2	Temperatura media	16.6
155606	7	Sololá	712	San Antonio Palopó	9	San Antonio Palopo	2	Febrero	2023-02-23T00:00:00	2024-11-08T04:00:00	4	Temperatura máxima	16.9
155607	7	Sololá	712	San Antonio Palopó	9	San Antonio Palopo	2	Febrero	2023-02-23T00:00:00	2024-11-08T04:00:00	3	Temperatura mínima	16.5
155608	7	Sololá	712	San Antonio Palopó	9	San Antonio Palopo	2	Febrero	2023-02-23T00:00:00	2024-11-08T04:00:00	5	Humedad	80
155609	7	Sololá	712	San Antonio Palopó	9	San Antonio Palopo	2	Febrero	2023-02-23T00:00:00	2024-11-08T04:00:00	6	Velocidad del viento	4.8
155610	7	Sololá	712	San Antonio Palopó	9	San Antonio Palopo	2	Febrero	2023-02-23T00:00:00	2024-11-08T04:00:00	7	Dirección del viento	4.83
155611	7	Sololá	712	San Antonio Palopó	9	San Antonio Palopo	2	Febrero	2023-02-23T00:00:00	2024-11-08T04:00:00	1	Precipitación	0
155612	7	Sololá	712	San Antonio Palopó	9	San Antonio Palopo	2	Febrero	2023-02-23T00:00:00	2024-11-08T04:00:00	8	Radiación solar	0
155613	7	Sololá	712	San Antonio Palopó	9	San Antonio Palopo	2	Febrero	2023-02-23T00:00:00	2024-11-08T05:00:00	2	Temperatura media	16.8
155614	7	Sololá	712	San Antonio Palopó	9	San Antonio Palopo	2	Febrero	2023-02-23T00:00:00	2024-11-08T05:00:00	4	Temperatura máxima	16.9
155615	7	Sololá	712	San Antonio Palopó	9	San Antonio Palopo	2	Febrero	2023-02-23T00:00:00	2024-11-08T05:00:00	3	Temperatura mínima	16.4
155616	7	Sololá	712	San Antonio Palopó	9	San Antonio Palopo	2	Febrero	2023-02-23T00:00:00	2024-11-08T05:00:00	5	Humedad	80
155617	7	Sololá	712	San Antonio Palopó	9	San Antonio Palopo	2	Febrero	2023-02-23T00:00:00	2024-11-08T05:00:00	6	Velocidad del viento	3.2
155618	7	Sololá	712	San Antonio Palopó	9	San Antonio Palopo	2	Febrero	2023-02-23T00:00:00	2024-11-08T05:00:00	7	Dirección del viento	3.22
155619	7	Sololá	712	San Antonio Palopó	9	San Antonio Palopo	2	Febrero	2023-02-23T00:00:00	2024-11-08T05:00:00	1	Precipitación	0
155620	7	Sololá	712	San Antonio Palopó	9	San Antonio Palopo	2	Febrero	2023-02-23T00:00:00	2024-11-08T05:00:00	8	Radiación solar	0
155621	7	Sololá	712	San Antonio Palopó	9	San Antonio Palopo	2	Febrero	2023-02-23T00:00:00	2024-11-08T06:00:00	2	Temperatura media	16.5
155622	7	Sololá	712	San Antonio Palopó	9	San Antonio Palopo	2	Febrero	2023-02-23T00:00:00	2024-11-08T06:00:00	4	Temperatura máxima	17
155623	7	Sololá	712	San Antonio Palopó	9	San Antonio Palopo	2	Febrero	2023-02-23T00:00:00	2024-11-08T06:00:00	3	Temperatura mínima	16.5
155624	7	Sololá	712	San Antonio Palopó	9	San Antonio Palopo	2	Febrero	2023-02-23T00:00:00	2024-11-08T06:00:00	5	Humedad	74
155625	7	Sololá	712	San Antonio Palopó	9	San Antonio Palopo	2	Febrero	2023-02-23T00:00:00	2024-11-08T06:00:00	6	Velocidad del viento	3.2
155626	7	Sololá	712	San Antonio Palopó	9	San Antonio Palopo	2	Febrero	2023-02-23T00:00:00	2024-11-08T06:00:00	7	Dirección del viento	3.22
155627	7	Sololá	712	San Antonio Palopó	9	San Antonio Palopo	2	Febrero	2023-02-23T00:00:00	2024-11-08T06:00:00	1	Precipitación	0
155628	7	Sololá	712	San Antonio Palopó	9	San Antonio Palopo	2	Febrero	2023-02-23T00:00:00	2024-11-08T06:00:00	8	Radiación solar	0
155629	7	Sololá	712	San Antonio Palopó	9	San Antonio Palopo	2	Febrero	2023-02-23T00:00:00	2024-11-08T07:00:00	2	Temperatura media	16.1
155630	7	Sololá	712	San Antonio Palopó	9	San Antonio Palopo	2	Febrero	2023-02-23T00:00:00	2024-11-08T07:00:00	4	Temperatura máxima	16.5
155631	7	Sololá	712	San Antonio Palopó	9	San Antonio Palopo	2	Febrero	2023-02-23T00:00:00	2024-11-08T07:00:00	3	Temperatura mínima	16.1
155632	7	Sololá	712	San Antonio Palopó	9	San Antonio Palopo	2	Febrero	2023-02-23T00:00:00	2024-11-08T07:00:00	5	Humedad	73
155633	7	Sololá	712	San Antonio Palopó	9	San Antonio Palopo	2	Febrero	2023-02-23T00:00:00	2024-11-08T07:00:00	6	Velocidad del viento	3.2
155634	7	Sololá	712	San Antonio Palopó	9	San Antonio Palopo	2	Febrero	2023-02-23T00:00:00	2024-11-08T07:00:00	7	Dirección del viento	3.22
155635	7	Sololá	712	San Antonio Palopó	9	San Antonio Palopo	2	Febrero	2023-02-23T00:00:00	2024-11-08T07:00:00	1	Precipitación	0
155636	7	Sololá	712	San Antonio Palopó	9	San Antonio Palopo	2	Febrero	2023-02-23T00:00:00	2024-11-08T07:00:00	8	Radiación solar	9
155637	7	Sololá	712	San Antonio Palopó	9	San Antonio Palopo	2	Febrero	2023-02-23T00:00:00	2024-11-08T08:00:00	2	Temperatura media	17.1
155638	7	Sololá	712	San Antonio Palopó	9	San Antonio Palopo	2	Febrero	2023-02-23T00:00:00	2024-11-08T08:00:00	4	Temperatura máxima	17.1
155639	7	Sololá	712	San Antonio Palopó	9	San Antonio Palopo	2	Febrero	2023-02-23T00:00:00	2024-11-08T08:00:00	3	Temperatura mínima	16.1
155640	7	Sololá	712	San Antonio Palopó	9	San Antonio Palopo	2	Febrero	2023-02-23T00:00:00	2024-11-08T08:00:00	5	Humedad	70
155641	7	Sololá	712	San Antonio Palopó	9	San Antonio Palopo	2	Febrero	2023-02-23T00:00:00	2024-11-08T08:00:00	6	Velocidad del viento	1.6
155642	7	Sololá	712	San Antonio Palopó	9	San Antonio Palopo	2	Febrero	2023-02-23T00:00:00	2024-11-08T08:00:00	7	Dirección del viento	1.61
155643	7	Sololá	712	San Antonio Palopó	9	San Antonio Palopo	2	Febrero	2023-02-23T00:00:00	2024-11-08T08:00:00	1	Precipitación	0
155644	7	Sololá	712	San Antonio Palopó	9	San Antonio Palopo	2	Febrero	2023-02-23T00:00:00	2024-11-08T08:00:00	8	Radiación solar	67
155645	7	Sololá	712	San Antonio Palopó	9	San Antonio Palopo	2	Febrero	2023-02-23T00:00:00	2024-11-08T09:00:00	2	Temperatura media	17.7
155646	7	Sololá	712	San Antonio Palopó	9	San Antonio Palopo	2	Febrero	2023-02-23T00:00:00	2024-11-08T09:00:00	4	Temperatura máxima	17.7
155647	7	Sololá	712	San Antonio Palopó	9	San Antonio Palopo	2	Febrero	2023-02-23T00:00:00	2024-11-08T09:00:00	3	Temperatura mínima	16.5
155648	7	Sololá	712	San Antonio Palopó	9	San Antonio Palopo	2	Febrero	2023-02-23T00:00:00	2024-11-08T09:00:00	5	Humedad	69
155649	7	Sololá	712	San Antonio Palopó	9	San Antonio Palopo	2	Febrero	2023-02-23T00:00:00	2024-11-08T09:00:00	6	Velocidad del viento	1.6
155650	7	Sololá	712	San Antonio Palopó	9	San Antonio Palopo	2	Febrero	2023-02-23T00:00:00	2024-11-08T09:00:00	7	Dirección del viento	1.61
155651	7	Sololá	712	San Antonio Palopó	9	San Antonio Palopo	2	Febrero	2023-02-23T00:00:00	2024-11-08T09:00:00	1	Precipitación	0
155652	7	Sololá	712	San Antonio Palopó	9	San Antonio Palopo	2	Febrero	2023-02-23T00:00:00	2024-11-08T09:00:00	8	Radiación solar	109
155653	7	Sololá	712	San Antonio Palopó	9	San Antonio Palopo	2	Febrero	2023-02-23T00:00:00	2024-11-08T10:00:00	2	Temperatura media	18.8
155654	7	Sololá	712	San Antonio Palopó	9	San Antonio Palopo	2	Febrero	2023-02-23T00:00:00	2024-11-08T10:00:00	4	Temperatura máxima	18.8
155655	7	Sololá	712	San Antonio Palopó	9	San Antonio Palopo	2	Febrero	2023-02-23T00:00:00	2024-11-08T10:00:00	3	Temperatura mínima	17.7
155656	7	Sololá	712	San Antonio Palopó	9	San Antonio Palopo	2	Febrero	2023-02-23T00:00:00	2024-11-08T10:00:00	5	Humedad	65
155657	7	Sololá	712	San Antonio Palopó	9	San Antonio Palopo	2	Febrero	2023-02-23T00:00:00	2024-11-08T10:00:00	6	Velocidad del viento	1.6
155658	7	Sololá	712	San Antonio Palopó	9	San Antonio Palopo	2	Febrero	2023-02-23T00:00:00	2024-11-08T10:00:00	7	Dirección del viento	1.61
155659	7	Sololá	712	San Antonio Palopó	9	San Antonio Palopo	2	Febrero	2023-02-23T00:00:00	2024-11-08T10:00:00	1	Precipitación	0
155660	7	Sololá	712	San Antonio Palopó	9	San Antonio Palopo	2	Febrero	2023-02-23T00:00:00	2024-11-08T10:00:00	8	Radiación solar	526
155661	7	Sololá	712	San Antonio Palopó	9	San Antonio Palopo	2	Febrero	2023-02-23T00:00:00	2024-11-08T11:00:00	2	Temperatura media	19.6
155662	7	Sololá	712	San Antonio Palopó	9	San Antonio Palopo	2	Febrero	2023-02-23T00:00:00	2024-11-08T11:00:00	4	Temperatura máxima	19.6
155663	7	Sololá	712	San Antonio Palopó	9	San Antonio Palopo	2	Febrero	2023-02-23T00:00:00	2024-11-08T11:00:00	3	Temperatura mínima	18.8
155664	7	Sololá	712	San Antonio Palopó	9	San Antonio Palopo	2	Febrero	2023-02-23T00:00:00	2024-11-08T11:00:00	5	Humedad	65
155665	7	Sololá	712	San Antonio Palopó	9	San Antonio Palopo	2	Febrero	2023-02-23T00:00:00	2024-11-08T11:00:00	6	Velocidad del viento	3.2
155666	7	Sololá	712	San Antonio Palopó	9	San Antonio Palopo	2	Febrero	2023-02-23T00:00:00	2024-11-08T11:00:00	7	Dirección del viento	3.22
155667	7	Sololá	712	San Antonio Palopó	9	San Antonio Palopo	2	Febrero	2023-02-23T00:00:00	2024-11-08T11:00:00	1	Precipitación	0
155668	7	Sololá	712	San Antonio Palopó	9	San Antonio Palopo	2	Febrero	2023-02-23T00:00:00	2024-11-08T11:00:00	8	Radiación solar	759
155669	7	Sololá	712	San Antonio Palopó	9	San Antonio Palopo	2	Febrero	2023-02-23T00:00:00	2024-11-08T12:00:00	2	Temperatura media	20.8
155670	7	Sololá	712	San Antonio Palopó	9	San Antonio Palopo	2	Febrero	2023-02-23T00:00:00	2024-11-08T12:00:00	4	Temperatura máxima	20.9
155671	7	Sololá	712	San Antonio Palopó	9	San Antonio Palopo	2	Febrero	2023-02-23T00:00:00	2024-11-08T12:00:00	3	Temperatura mínima	19.5
155672	7	Sololá	712	San Antonio Palopó	9	San Antonio Palopo	2	Febrero	2023-02-23T00:00:00	2024-11-08T12:00:00	5	Humedad	65
155673	7	Sololá	712	San Antonio Palopó	9	San Antonio Palopo	2	Febrero	2023-02-23T00:00:00	2024-11-08T12:00:00	6	Velocidad del viento	4.8
155674	7	Sololá	712	San Antonio Palopó	9	San Antonio Palopo	2	Febrero	2023-02-23T00:00:00	2024-11-08T12:00:00	7	Dirección del viento	4.83
155675	7	Sololá	712	San Antonio Palopó	9	San Antonio Palopo	2	Febrero	2023-02-23T00:00:00	2024-11-08T12:00:00	1	Precipitación	0
155676	7	Sololá	712	San Antonio Palopó	9	San Antonio Palopo	2	Febrero	2023-02-23T00:00:00	2024-11-08T12:00:00	8	Radiación solar	771
155677	7	Sololá	712	San Antonio Palopó	9	San Antonio Palopo	2	Febrero	2023-02-23T00:00:00	2024-11-08T13:00:00	2	Temperatura media	21.3
155678	7	Sololá	712	San Antonio Palopó	9	San Antonio Palopo	2	Febrero	2023-02-23T00:00:00	2024-11-08T13:00:00	4	Temperatura máxima	21.5
155679	7	Sololá	712	San Antonio Palopó	9	San Antonio Palopo	2	Febrero	2023-02-23T00:00:00	2024-11-08T13:00:00	3	Temperatura mínima	20.6
155680	7	Sololá	712	San Antonio Palopó	9	San Antonio Palopo	2	Febrero	2023-02-23T00:00:00	2024-11-08T13:00:00	5	Humedad	70
155681	7	Sololá	712	San Antonio Palopó	9	San Antonio Palopo	2	Febrero	2023-02-23T00:00:00	2024-11-08T13:00:00	6	Velocidad del viento	12.9
155682	7	Sololá	712	San Antonio Palopó	9	San Antonio Palopo	2	Febrero	2023-02-23T00:00:00	2024-11-08T13:00:00	7	Dirección del viento	12.87
155683	7	Sololá	712	San Antonio Palopó	9	San Antonio Palopo	2	Febrero	2023-02-23T00:00:00	2024-11-08T13:00:00	1	Precipitación	0
155684	7	Sololá	712	San Antonio Palopó	9	San Antonio Palopo	2	Febrero	2023-02-23T00:00:00	2024-11-08T13:00:00	8	Radiación solar	888
155685	7	Sololá	712	San Antonio Palopó	9	San Antonio Palopo	2	Febrero	2023-02-23T00:00:00	2024-11-08T14:00:00	2	Temperatura media	21.6
155686	7	Sololá	712	San Antonio Palopó	9	San Antonio Palopo	2	Febrero	2023-02-23T00:00:00	2024-11-08T14:00:00	4	Temperatura máxima	21.8
155687	7	Sololá	712	San Antonio Palopó	9	San Antonio Palopo	2	Febrero	2023-02-23T00:00:00	2024-11-08T14:00:00	3	Temperatura mínima	20.8
155688	7	Sololá	712	San Antonio Palopó	9	San Antonio Palopo	2	Febrero	2023-02-23T00:00:00	2024-11-08T14:00:00	5	Humedad	71
155689	7	Sololá	712	San Antonio Palopó	9	San Antonio Palopo	2	Febrero	2023-02-23T00:00:00	2024-11-08T14:00:00	6	Velocidad del viento	14.5
155690	7	Sololá	712	San Antonio Palopó	9	San Antonio Palopo	2	Febrero	2023-02-23T00:00:00	2024-11-08T14:00:00	7	Dirección del viento	14.48
155691	7	Sololá	712	San Antonio Palopó	9	San Antonio Palopo	2	Febrero	2023-02-23T00:00:00	2024-11-08T14:00:00	1	Precipitación	0
155692	7	Sololá	712	San Antonio Palopó	9	San Antonio Palopo	2	Febrero	2023-02-23T00:00:00	2024-11-08T14:00:00	8	Radiación solar	826
155693	7	Sololá	712	San Antonio Palopó	9	San Antonio Palopo	2	Febrero	2023-02-23T00:00:00	2024-11-08T15:00:00	2	Temperatura media	21.5
155694	7	Sololá	712	San Antonio Palopó	9	San Antonio Palopo	2	Febrero	2023-02-23T00:00:00	2024-11-08T15:00:00	4	Temperatura máxima	21.7
155695	7	Sololá	712	San Antonio Palopó	9	San Antonio Palopo	2	Febrero	2023-02-23T00:00:00	2024-11-08T15:00:00	3	Temperatura mínima	21.2
155696	7	Sololá	712	San Antonio Palopó	9	San Antonio Palopo	2	Febrero	2023-02-23T00:00:00	2024-11-08T15:00:00	5	Humedad	71
155697	7	Sololá	712	San Antonio Palopó	9	San Antonio Palopo	2	Febrero	2023-02-23T00:00:00	2024-11-08T15:00:00	6	Velocidad del viento	12.9
155698	7	Sololá	712	San Antonio Palopó	9	San Antonio Palopo	2	Febrero	2023-02-23T00:00:00	2024-11-08T15:00:00	7	Dirección del viento	12.87
155699	7	Sololá	712	San Antonio Palopó	9	San Antonio Palopo	2	Febrero	2023-02-23T00:00:00	2024-11-08T15:00:00	1	Precipitación	0
155700	7	Sololá	712	San Antonio Palopó	9	San Antonio Palopo	2	Febrero	2023-02-23T00:00:00	2024-11-08T15:00:00	8	Radiación solar	731
155701	7	Sololá	712	San Antonio Palopó	9	San Antonio Palopo	2	Febrero	2023-02-23T00:00:00	2024-11-08T16:00:00	2	Temperatura media	20.7
155702	7	Sololá	712	San Antonio Palopó	9	San Antonio Palopo	2	Febrero	2023-02-23T00:00:00	2024-11-08T16:00:00	4	Temperatura máxima	21.6
155703	7	Sololá	712	San Antonio Palopó	9	San Antonio Palopo	2	Febrero	2023-02-23T00:00:00	2024-11-08T16:00:00	3	Temperatura mínima	20.7
155704	7	Sololá	712	San Antonio Palopó	9	San Antonio Palopo	2	Febrero	2023-02-23T00:00:00	2024-11-08T16:00:00	5	Humedad	75
155705	7	Sololá	712	San Antonio Palopó	9	San Antonio Palopo	2	Febrero	2023-02-23T00:00:00	2024-11-08T16:00:00	6	Velocidad del viento	12.9
155706	7	Sololá	712	San Antonio Palopó	9	San Antonio Palopo	2	Febrero	2023-02-23T00:00:00	2024-11-08T16:00:00	7	Dirección del viento	12.87
155707	7	Sololá	712	San Antonio Palopó	9	San Antonio Palopo	2	Febrero	2023-02-23T00:00:00	2024-11-08T16:00:00	1	Precipitación	0
155708	7	Sololá	712	San Antonio Palopó	9	San Antonio Palopo	2	Febrero	2023-02-23T00:00:00	2024-11-08T16:00:00	8	Radiación solar	542
155709	7	Sololá	712	San Antonio Palopó	9	San Antonio Palopo	2	Febrero	2023-02-23T00:00:00	2024-11-08T17:00:00	2	Temperatura media	20.2
155710	7	Sololá	712	San Antonio Palopó	9	San Antonio Palopo	2	Febrero	2023-02-23T00:00:00	2024-11-08T17:00:00	4	Temperatura máxima	21.2
155711	7	Sololá	712	San Antonio Palopó	9	San Antonio Palopo	2	Febrero	2023-02-23T00:00:00	2024-11-08T17:00:00	3	Temperatura mínima	20.2
155712	7	Sololá	712	San Antonio Palopó	9	San Antonio Palopo	2	Febrero	2023-02-23T00:00:00	2024-11-08T17:00:00	5	Humedad	77
155713	7	Sololá	712	San Antonio Palopó	9	San Antonio Palopo	2	Febrero	2023-02-23T00:00:00	2024-11-08T17:00:00	6	Velocidad del viento	9.7
155714	7	Sololá	712	San Antonio Palopó	9	San Antonio Palopo	2	Febrero	2023-02-23T00:00:00	2024-11-08T17:00:00	7	Dirección del viento	9.66
155715	7	Sololá	712	San Antonio Palopó	9	San Antonio Palopo	2	Febrero	2023-02-23T00:00:00	2024-11-08T17:00:00	1	Precipitación	0
155716	7	Sololá	712	San Antonio Palopó	9	San Antonio Palopo	2	Febrero	2023-02-23T00:00:00	2024-11-08T17:00:00	8	Radiación solar	299
155717	7	Sololá	712	San Antonio Palopó	9	San Antonio Palopo	2	Febrero	2023-02-23T00:00:00	2024-11-08T18:00:00	2	Temperatura media	19.6
155718	7	Sololá	712	San Antonio Palopó	9	San Antonio Palopo	2	Febrero	2023-02-23T00:00:00	2024-11-08T18:00:00	4	Temperatura máxima	20.2
155719	7	Sololá	712	San Antonio Palopó	9	San Antonio Palopo	2	Febrero	2023-02-23T00:00:00	2024-11-08T18:00:00	3	Temperatura mínima	19.4
155720	7	Sololá	712	San Antonio Palopó	9	San Antonio Palopo	2	Febrero	2023-02-23T00:00:00	2024-11-08T18:00:00	5	Humedad	78
155721	7	Sololá	712	San Antonio Palopó	9	San Antonio Palopo	2	Febrero	2023-02-23T00:00:00	2024-11-08T18:00:00	6	Velocidad del viento	6.4
155722	7	Sololá	712	San Antonio Palopó	9	San Antonio Palopo	2	Febrero	2023-02-23T00:00:00	2024-11-08T18:00:00	7	Dirección del viento	6.44
155723	7	Sololá	712	San Antonio Palopó	9	San Antonio Palopo	2	Febrero	2023-02-23T00:00:00	2024-11-08T18:00:00	1	Precipitación	0
155724	7	Sololá	712	San Antonio Palopó	9	San Antonio Palopo	2	Febrero	2023-02-23T00:00:00	2024-11-08T18:00:00	8	Radiación solar	51
155725	7	Sololá	712	San Antonio Palopó	9	San Antonio Palopo	2	Febrero	2023-02-23T00:00:00	2024-11-08T19:00:00	2	Temperatura media	18.7
155726	7	Sololá	712	San Antonio Palopó	9	San Antonio Palopo	2	Febrero	2023-02-23T00:00:00	2024-11-08T19:00:00	4	Temperatura máxima	19.6
155727	7	Sololá	712	San Antonio Palopó	9	San Antonio Palopo	2	Febrero	2023-02-23T00:00:00	2024-11-08T19:00:00	3	Temperatura mínima	18.7
155728	7	Sololá	712	San Antonio Palopó	9	San Antonio Palopo	2	Febrero	2023-02-23T00:00:00	2024-11-08T19:00:00	5	Humedad	83
155729	7	Sololá	712	San Antonio Palopó	9	San Antonio Palopo	2	Febrero	2023-02-23T00:00:00	2024-11-08T19:00:00	6	Velocidad del viento	4.8
155730	7	Sololá	712	San Antonio Palopó	9	San Antonio Palopo	2	Febrero	2023-02-23T00:00:00	2024-11-08T19:00:00	7	Dirección del viento	4.83
155731	7	Sololá	712	San Antonio Palopó	9	San Antonio Palopo	2	Febrero	2023-02-23T00:00:00	2024-11-08T19:00:00	1	Precipitación	0
155732	7	Sololá	712	San Antonio Palopó	9	San Antonio Palopo	2	Febrero	2023-02-23T00:00:00	2024-11-08T19:00:00	8	Radiación solar	0
155733	7	Sololá	712	San Antonio Palopó	9	San Antonio Palopo	2	Febrero	2023-02-23T00:00:00	2024-11-08T20:00:00	2	Temperatura media	18.4
155734	7	Sololá	712	San Antonio Palopó	9	San Antonio Palopo	2	Febrero	2023-02-23T00:00:00	2024-11-08T20:00:00	4	Temperatura máxima	18.8
155735	7	Sololá	712	San Antonio Palopó	9	San Antonio Palopo	2	Febrero	2023-02-23T00:00:00	2024-11-08T20:00:00	3	Temperatura mínima	18.4
155736	7	Sololá	712	San Antonio Palopó	9	San Antonio Palopo	2	Febrero	2023-02-23T00:00:00	2024-11-08T20:00:00	5	Humedad	81
155737	7	Sololá	712	San Antonio Palopó	9	San Antonio Palopo	2	Febrero	2023-02-23T00:00:00	2024-11-08T20:00:00	6	Velocidad del viento	1.6
155738	7	Sololá	712	San Antonio Palopó	9	San Antonio Palopo	2	Febrero	2023-02-23T00:00:00	2024-11-08T20:00:00	7	Dirección del viento	1.61
155739	7	Sololá	712	San Antonio Palopó	9	San Antonio Palopo	2	Febrero	2023-02-23T00:00:00	2024-11-08T20:00:00	1	Precipitación	0
155740	7	Sololá	712	San Antonio Palopó	9	San Antonio Palopo	2	Febrero	2023-02-23T00:00:00	2024-11-08T20:00:00	8	Radiación solar	0
155741	7	Sololá	712	San Antonio Palopó	9	San Antonio Palopo	2	Febrero	2023-02-23T00:00:00	2024-11-08T21:00:00	2	Temperatura media	18.1
155742	7	Sololá	712	San Antonio Palopó	9	San Antonio Palopo	2	Febrero	2023-02-23T00:00:00	2024-11-08T21:00:00	4	Temperatura máxima	18.5
155743	7	Sololá	712	San Antonio Palopó	9	San Antonio Palopo	2	Febrero	2023-02-23T00:00:00	2024-11-08T21:00:00	3	Temperatura mínima	18.1
155744	7	Sololá	712	San Antonio Palopó	9	San Antonio Palopo	2	Febrero	2023-02-23T00:00:00	2024-11-08T21:00:00	5	Humedad	81
155745	7	Sololá	712	San Antonio Palopó	9	San Antonio Palopo	2	Febrero	2023-02-23T00:00:00	2024-11-08T21:00:00	6	Velocidad del viento	1.6
155746	7	Sololá	712	San Antonio Palopó	9	San Antonio Palopo	2	Febrero	2023-02-23T00:00:00	2024-11-08T21:00:00	7	Dirección del viento	1.61
155747	7	Sololá	712	San Antonio Palopó	9	San Antonio Palopo	2	Febrero	2023-02-23T00:00:00	2024-11-08T21:00:00	1	Precipitación	0
155748	7	Sololá	712	San Antonio Palopó	9	San Antonio Palopo	2	Febrero	2023-02-23T00:00:00	2024-11-08T21:00:00	8	Radiación solar	0
155749	7	Sololá	712	San Antonio Palopó	9	San Antonio Palopo	2	Febrero	2023-02-23T00:00:00	2024-11-08T22:00:00	2	Temperatura media	17.8
155750	7	Sololá	712	San Antonio Palopó	9	San Antonio Palopo	2	Febrero	2023-02-23T00:00:00	2024-11-08T22:00:00	4	Temperatura máxima	18.1
155751	7	Sololá	712	San Antonio Palopó	9	San Antonio Palopo	2	Febrero	2023-02-23T00:00:00	2024-11-08T22:00:00	3	Temperatura mínima	17.6
155752	7	Sololá	712	San Antonio Palopó	9	San Antonio Palopo	2	Febrero	2023-02-23T00:00:00	2024-11-08T22:00:00	5	Humedad	77
155753	7	Sololá	712	San Antonio Palopó	9	San Antonio Palopo	2	Febrero	2023-02-23T00:00:00	2024-11-08T22:00:00	6	Velocidad del viento	3.2
155754	7	Sololá	712	San Antonio Palopó	9	San Antonio Palopo	2	Febrero	2023-02-23T00:00:00	2024-11-08T22:00:00	7	Dirección del viento	3.22
155755	7	Sololá	712	San Antonio Palopó	9	San Antonio Palopo	2	Febrero	2023-02-23T00:00:00	2024-11-08T22:00:00	1	Precipitación	0
155756	7	Sololá	712	San Antonio Palopó	9	San Antonio Palopo	2	Febrero	2023-02-23T00:00:00	2024-11-08T22:00:00	8	Radiación solar	0
155757	7	Sololá	712	San Antonio Palopó	9	San Antonio Palopo	2	Febrero	2023-02-23T00:00:00	2024-11-08T23:00:00	2	Temperatura media	17.6
155758	7	Sololá	712	San Antonio Palopó	9	San Antonio Palopo	2	Febrero	2023-02-23T00:00:00	2024-11-08T23:00:00	4	Temperatura máxima	18.1
155759	7	Sololá	712	San Antonio Palopó	9	San Antonio Palopo	2	Febrero	2023-02-23T00:00:00	2024-11-08T23:00:00	3	Temperatura mínima	17.6
155760	7	Sololá	712	San Antonio Palopó	9	San Antonio Palopo	2	Febrero	2023-02-23T00:00:00	2024-11-08T23:00:00	5	Humedad	71
155761	7	Sololá	712	San Antonio Palopó	9	San Antonio Palopo	2	Febrero	2023-02-23T00:00:00	2024-11-08T23:00:00	6	Velocidad del viento	9.7
155762	7	Sololá	712	San Antonio Palopó	9	San Antonio Palopo	2	Febrero	2023-02-23T00:00:00	2024-11-08T23:00:00	7	Dirección del viento	9.66
155763	7	Sololá	712	San Antonio Palopó	9	San Antonio Palopo	2	Febrero	2023-02-23T00:00:00	2024-11-08T23:00:00	1	Precipitación	0
155764	7	Sololá	712	San Antonio Palopó	9	San Antonio Palopo	2	Febrero	2023-02-23T00:00:00	2024-11-08T23:00:00	8	Radiación solar	0
155765	7	Sololá	712	San Antonio Palopó	9	San Antonio Palopo	2	Febrero	2023-02-24T00:00:00	2024-11-08T00:00:00	2	Temperatura media	17.4
155766	7	Sololá	712	San Antonio Palopó	9	San Antonio Palopo	2	Febrero	2023-02-24T00:00:00	2024-11-08T00:00:00	4	Temperatura máxima	17.8
155767	7	Sololá	712	San Antonio Palopó	9	San Antonio Palopo	2	Febrero	2023-02-24T00:00:00	2024-11-08T00:00:00	3	Temperatura mínima	17.4
155768	7	Sololá	712	San Antonio Palopó	9	San Antonio Palopo	2	Febrero	2023-02-24T00:00:00	2024-11-08T00:00:00	5	Humedad	73
155769	7	Sololá	712	San Antonio Palopó	9	San Antonio Palopo	2	Febrero	2023-02-24T00:00:00	2024-11-08T00:00:00	6	Velocidad del viento	4.8
155770	7	Sololá	712	San Antonio Palopó	9	San Antonio Palopo	2	Febrero	2023-02-24T00:00:00	2024-11-08T00:00:00	7	Dirección del viento	4.83
155771	7	Sololá	712	San Antonio Palopó	9	San Antonio Palopo	2	Febrero	2023-02-24T00:00:00	2024-11-08T00:00:00	1	Precipitación	0
155772	7	Sololá	712	San Antonio Palopó	9	San Antonio Palopo	2	Febrero	2023-02-24T00:00:00	2024-11-08T00:00:00	8	Radiación solar	0
155773	7	Sololá	712	San Antonio Palopó	9	San Antonio Palopo	2	Febrero	2023-02-24T00:00:00	2024-11-08T01:00:00	2	Temperatura media	16.9
155774	7	Sololá	712	San Antonio Palopó	9	San Antonio Palopo	2	Febrero	2023-02-24T00:00:00	2024-11-08T01:00:00	4	Temperatura máxima	17.6
155775	7	Sololá	712	San Antonio Palopó	9	San Antonio Palopo	2	Febrero	2023-02-24T00:00:00	2024-11-08T01:00:00	3	Temperatura mínima	16.9
155776	7	Sololá	712	San Antonio Palopó	9	San Antonio Palopo	2	Febrero	2023-02-24T00:00:00	2024-11-08T01:00:00	5	Humedad	75
155777	7	Sololá	712	San Antonio Palopó	9	San Antonio Palopo	2	Febrero	2023-02-24T00:00:00	2024-11-08T01:00:00	6	Velocidad del viento	3.2
155778	7	Sololá	712	San Antonio Palopó	9	San Antonio Palopo	2	Febrero	2023-02-24T00:00:00	2024-11-08T01:00:00	7	Dirección del viento	3.22
155779	7	Sololá	712	San Antonio Palopó	9	San Antonio Palopo	2	Febrero	2023-02-24T00:00:00	2024-11-08T01:00:00	1	Precipitación	0
155780	7	Sololá	712	San Antonio Palopó	9	San Antonio Palopo	2	Febrero	2023-02-24T00:00:00	2024-11-08T01:00:00	8	Radiación solar	0
155781	7	Sololá	712	San Antonio Palopó	9	San Antonio Palopo	2	Febrero	2023-02-24T00:00:00	2024-11-08T02:00:00	2	Temperatura media	17.9
155782	7	Sololá	712	San Antonio Palopó	9	San Antonio Palopo	2	Febrero	2023-02-24T00:00:00	2024-11-08T02:00:00	4	Temperatura máxima	17.9
155783	7	Sololá	712	San Antonio Palopó	9	San Antonio Palopo	2	Febrero	2023-02-24T00:00:00	2024-11-08T02:00:00	3	Temperatura mínima	16.7
155784	7	Sololá	712	San Antonio Palopó	9	San Antonio Palopo	2	Febrero	2023-02-24T00:00:00	2024-11-08T02:00:00	5	Humedad	70
155785	7	Sololá	712	San Antonio Palopó	9	San Antonio Palopo	2	Febrero	2023-02-24T00:00:00	2024-11-08T02:00:00	6	Velocidad del viento	4.8
155786	7	Sololá	712	San Antonio Palopó	9	San Antonio Palopo	2	Febrero	2023-02-24T00:00:00	2024-11-08T02:00:00	7	Dirección del viento	4.83
155787	7	Sololá	712	San Antonio Palopó	9	San Antonio Palopo	2	Febrero	2023-02-24T00:00:00	2024-11-08T02:00:00	1	Precipitación	0
155788	7	Sololá	712	San Antonio Palopó	9	San Antonio Palopo	2	Febrero	2023-02-24T00:00:00	2024-11-08T02:00:00	8	Radiación solar	0
155789	7	Sololá	712	San Antonio Palopó	9	San Antonio Palopo	2	Febrero	2023-02-24T00:00:00	2024-11-08T03:00:00	2	Temperatura media	17.1
155790	7	Sololá	712	San Antonio Palopó	9	San Antonio Palopo	2	Febrero	2023-02-24T00:00:00	2024-11-08T03:00:00	4	Temperatura máxima	17.9
155791	7	Sololá	712	San Antonio Palopó	9	San Antonio Palopo	2	Febrero	2023-02-24T00:00:00	2024-11-08T03:00:00	3	Temperatura mínima	17
155792	7	Sololá	712	San Antonio Palopó	9	San Antonio Palopo	2	Febrero	2023-02-24T00:00:00	2024-11-08T03:00:00	5	Humedad	72
155793	7	Sololá	712	San Antonio Palopó	9	San Antonio Palopo	2	Febrero	2023-02-24T00:00:00	2024-11-08T03:00:00	6	Velocidad del viento	4.8
155794	7	Sololá	712	San Antonio Palopó	9	San Antonio Palopo	2	Febrero	2023-02-24T00:00:00	2024-11-08T03:00:00	7	Dirección del viento	4.83
155795	7	Sololá	712	San Antonio Palopó	9	San Antonio Palopo	2	Febrero	2023-02-24T00:00:00	2024-11-08T03:00:00	1	Precipitación	0
155796	7	Sololá	712	San Antonio Palopó	9	San Antonio Palopo	2	Febrero	2023-02-24T00:00:00	2024-11-08T03:00:00	8	Radiación solar	0
155797	7	Sololá	712	San Antonio Palopó	9	San Antonio Palopo	2	Febrero	2023-02-24T00:00:00	2024-11-08T04:00:00	2	Temperatura media	16.9
155798	7	Sololá	712	San Antonio Palopó	9	San Antonio Palopo	2	Febrero	2023-02-24T00:00:00	2024-11-08T04:00:00	4	Temperatura máxima	17.3
155799	7	Sololá	712	San Antonio Palopó	9	San Antonio Palopo	2	Febrero	2023-02-24T00:00:00	2024-11-08T04:00:00	3	Temperatura mínima	16.8
155800	7	Sololá	712	San Antonio Palopó	9	San Antonio Palopo	2	Febrero	2023-02-24T00:00:00	2024-11-08T04:00:00	5	Humedad	72
155801	7	Sololá	712	San Antonio Palopó	9	San Antonio Palopo	2	Febrero	2023-02-24T00:00:00	2024-11-08T04:00:00	6	Velocidad del viento	6.4
155802	7	Sololá	712	San Antonio Palopó	9	San Antonio Palopo	2	Febrero	2023-02-24T00:00:00	2024-11-08T04:00:00	7	Dirección del viento	6.44
155803	7	Sololá	712	San Antonio Palopó	9	San Antonio Palopo	2	Febrero	2023-02-24T00:00:00	2024-11-08T04:00:00	1	Precipitación	0
155804	7	Sololá	712	San Antonio Palopó	9	San Antonio Palopo	2	Febrero	2023-02-24T00:00:00	2024-11-08T04:00:00	8	Radiación solar	0
155805	7	Sololá	712	San Antonio Palopó	9	San Antonio Palopo	2	Febrero	2023-02-24T00:00:00	2024-11-08T05:00:00	2	Temperatura media	16.6
155806	7	Sololá	712	San Antonio Palopó	9	San Antonio Palopo	2	Febrero	2023-02-24T00:00:00	2024-11-08T05:00:00	4	Temperatura máxima	17.2
155807	7	Sololá	712	San Antonio Palopó	9	San Antonio Palopo	2	Febrero	2023-02-24T00:00:00	2024-11-08T05:00:00	3	Temperatura mínima	16.6
155808	7	Sololá	712	San Antonio Palopó	9	San Antonio Palopo	2	Febrero	2023-02-24T00:00:00	2024-11-08T05:00:00	5	Humedad	69
155809	7	Sololá	712	San Antonio Palopó	9	San Antonio Palopo	2	Febrero	2023-02-24T00:00:00	2024-11-08T05:00:00	6	Velocidad del viento	9.7
155810	7	Sololá	712	San Antonio Palopó	9	San Antonio Palopo	2	Febrero	2023-02-24T00:00:00	2024-11-08T05:00:00	7	Dirección del viento	9.66
155811	7	Sololá	712	San Antonio Palopó	9	San Antonio Palopo	2	Febrero	2023-02-24T00:00:00	2024-11-08T05:00:00	1	Precipitación	0
155812	7	Sololá	712	San Antonio Palopó	9	San Antonio Palopo	2	Febrero	2023-02-24T00:00:00	2024-11-08T05:00:00	8	Radiación solar	0
155813	7	Sololá	712	San Antonio Palopó	9	San Antonio Palopo	2	Febrero	2023-02-24T00:00:00	2024-11-08T06:00:00	2	Temperatura media	16.1
155814	7	Sololá	712	San Antonio Palopó	9	San Antonio Palopo	2	Febrero	2023-02-24T00:00:00	2024-11-08T06:00:00	4	Temperatura máxima	16.6
155815	7	Sololá	712	San Antonio Palopó	9	San Antonio Palopo	2	Febrero	2023-02-24T00:00:00	2024-11-08T06:00:00	3	Temperatura mínima	16
155816	7	Sololá	712	San Antonio Palopó	9	San Antonio Palopo	2	Febrero	2023-02-24T00:00:00	2024-11-08T06:00:00	5	Humedad	69
155817	7	Sololá	712	San Antonio Palopó	9	San Antonio Palopo	2	Febrero	2023-02-24T00:00:00	2024-11-08T06:00:00	6	Velocidad del viento	8
155818	7	Sololá	712	San Antonio Palopó	9	San Antonio Palopo	2	Febrero	2023-02-24T00:00:00	2024-11-08T06:00:00	7	Dirección del viento	8.05
155819	7	Sololá	712	San Antonio Palopó	9	San Antonio Palopo	2	Febrero	2023-02-24T00:00:00	2024-11-08T06:00:00	1	Precipitación	0
155820	7	Sololá	712	San Antonio Palopó	9	San Antonio Palopo	2	Febrero	2023-02-24T00:00:00	2024-11-08T06:00:00	8	Radiación solar	0
155821	7	Sololá	712	San Antonio Palopó	9	San Antonio Palopo	2	Febrero	2023-02-24T00:00:00	2024-11-08T07:00:00	2	Temperatura media	15.9
155822	7	Sololá	712	San Antonio Palopó	9	San Antonio Palopo	2	Febrero	2023-02-24T00:00:00	2024-11-08T07:00:00	4	Temperatura máxima	16.1
155823	7	Sololá	712	San Antonio Palopó	9	San Antonio Palopo	2	Febrero	2023-02-24T00:00:00	2024-11-08T07:00:00	3	Temperatura mínima	15.1
155824	7	Sololá	712	San Antonio Palopó	9	San Antonio Palopo	2	Febrero	2023-02-24T00:00:00	2024-11-08T07:00:00	5	Humedad	65
155825	7	Sololá	712	San Antonio Palopó	9	San Antonio Palopo	2	Febrero	2023-02-24T00:00:00	2024-11-08T07:00:00	6	Velocidad del viento	4.8
155826	7	Sololá	712	San Antonio Palopó	9	San Antonio Palopo	2	Febrero	2023-02-24T00:00:00	2024-11-08T07:00:00	7	Dirección del viento	4.83
155827	7	Sololá	712	San Antonio Palopó	9	San Antonio Palopo	2	Febrero	2023-02-24T00:00:00	2024-11-08T07:00:00	1	Precipitación	0
155828	7	Sololá	712	San Antonio Palopó	9	San Antonio Palopo	2	Febrero	2023-02-24T00:00:00	2024-11-08T07:00:00	8	Radiación solar	6
155829	7	Sololá	712	San Antonio Palopó	9	San Antonio Palopo	2	Febrero	2023-02-24T00:00:00	2024-11-08T08:00:00	2	Temperatura media	17.4
155830	7	Sololá	712	San Antonio Palopó	9	San Antonio Palopo	2	Febrero	2023-02-24T00:00:00	2024-11-08T08:00:00	4	Temperatura máxima	17.4
155831	7	Sololá	712	San Antonio Palopó	9	San Antonio Palopo	2	Febrero	2023-02-24T00:00:00	2024-11-08T08:00:00	3	Temperatura mínima	15.9
155832	7	Sololá	712	San Antonio Palopó	9	San Antonio Palopo	2	Febrero	2023-02-24T00:00:00	2024-11-08T08:00:00	5	Humedad	61
155833	7	Sololá	712	San Antonio Palopó	9	San Antonio Palopo	2	Febrero	2023-02-24T00:00:00	2024-11-08T08:00:00	6	Velocidad del viento	4.8
155834	7	Sololá	712	San Antonio Palopó	9	San Antonio Palopo	2	Febrero	2023-02-24T00:00:00	2024-11-08T08:00:00	7	Dirección del viento	4.83
155835	7	Sololá	712	San Antonio Palopó	9	San Antonio Palopo	2	Febrero	2023-02-24T00:00:00	2024-11-08T08:00:00	1	Precipitación	0
155836	7	Sololá	712	San Antonio Palopó	9	San Antonio Palopo	2	Febrero	2023-02-24T00:00:00	2024-11-08T08:00:00	8	Radiación solar	22
155837	7	Sololá	712	San Antonio Palopó	9	San Antonio Palopo	2	Febrero	2023-02-24T00:00:00	2024-11-08T09:00:00	2	Temperatura media	20.8
155838	7	Sololá	712	San Antonio Palopó	9	San Antonio Palopo	2	Febrero	2023-02-24T00:00:00	2024-11-08T09:00:00	4	Temperatura máxima	20.8
155839	7	Sololá	712	San Antonio Palopó	9	San Antonio Palopo	2	Febrero	2023-02-24T00:00:00	2024-11-08T09:00:00	3	Temperatura mínima	17.4
155840	7	Sololá	712	San Antonio Palopó	9	San Antonio Palopo	2	Febrero	2023-02-24T00:00:00	2024-11-08T09:00:00	5	Humedad	44
155841	7	Sololá	712	San Antonio Palopó	9	San Antonio Palopo	2	Febrero	2023-02-24T00:00:00	2024-11-08T09:00:00	6	Velocidad del viento	4.8
155842	7	Sololá	712	San Antonio Palopó	9	San Antonio Palopo	2	Febrero	2023-02-24T00:00:00	2024-11-08T09:00:00	7	Dirección del viento	4.83
155843	7	Sololá	712	San Antonio Palopó	9	San Antonio Palopo	2	Febrero	2023-02-24T00:00:00	2024-11-08T09:00:00	1	Precipitación	0
155844	7	Sololá	712	San Antonio Palopó	9	San Antonio Palopo	2	Febrero	2023-02-24T00:00:00	2024-11-08T09:00:00	8	Radiación solar	347
155845	7	Sololá	712	San Antonio Palopó	9	San Antonio Palopo	2	Febrero	2023-02-24T00:00:00	2024-11-08T10:00:00	2	Temperatura media	22.8
155846	7	Sololá	712	San Antonio Palopó	9	San Antonio Palopo	2	Febrero	2023-02-24T00:00:00	2024-11-08T10:00:00	4	Temperatura máxima	22.9
155847	7	Sololá	712	San Antonio Palopó	9	San Antonio Palopo	2	Febrero	2023-02-24T00:00:00	2024-11-08T10:00:00	3	Temperatura mínima	20.8
155848	7	Sololá	712	San Antonio Palopó	9	San Antonio Palopo	2	Febrero	2023-02-24T00:00:00	2024-11-08T10:00:00	5	Humedad	38
155849	7	Sololá	712	San Antonio Palopó	9	San Antonio Palopo	2	Febrero	2023-02-24T00:00:00	2024-11-08T10:00:00	6	Velocidad del viento	6.4
155850	7	Sololá	712	San Antonio Palopó	9	San Antonio Palopo	2	Febrero	2023-02-24T00:00:00	2024-11-08T10:00:00	7	Dirección del viento	6.44
155851	7	Sololá	712	San Antonio Palopó	9	San Antonio Palopo	2	Febrero	2023-02-24T00:00:00	2024-11-08T10:00:00	1	Precipitación	0
155852	7	Sololá	712	San Antonio Palopó	9	San Antonio Palopo	2	Febrero	2023-02-24T00:00:00	2024-11-08T10:00:00	8	Radiación solar	619
155853	7	Sololá	712	San Antonio Palopó	9	San Antonio Palopo	2	Febrero	2023-02-24T00:00:00	2024-11-08T11:00:00	2	Temperatura media	22.3
155854	7	Sololá	712	San Antonio Palopó	9	San Antonio Palopo	2	Febrero	2023-02-24T00:00:00	2024-11-08T11:00:00	4	Temperatura máxima	23.6
155855	7	Sololá	712	San Antonio Palopó	9	San Antonio Palopo	2	Febrero	2023-02-24T00:00:00	2024-11-08T11:00:00	3	Temperatura mínima	22.1
155856	7	Sololá	712	San Antonio Palopó	9	San Antonio Palopo	2	Febrero	2023-02-24T00:00:00	2024-11-08T11:00:00	5	Humedad	58
155857	7	Sololá	712	San Antonio Palopó	9	San Antonio Palopo	2	Febrero	2023-02-24T00:00:00	2024-11-08T11:00:00	6	Velocidad del viento	9.7
155858	7	Sololá	712	San Antonio Palopó	9	San Antonio Palopo	2	Febrero	2023-02-24T00:00:00	2024-11-08T11:00:00	7	Dirección del viento	9.66
155859	7	Sololá	712	San Antonio Palopó	9	San Antonio Palopo	2	Febrero	2023-02-24T00:00:00	2024-11-08T11:00:00	1	Precipitación	0
155860	7	Sololá	712	San Antonio Palopó	9	San Antonio Palopo	2	Febrero	2023-02-24T00:00:00	2024-11-08T11:00:00	8	Radiación solar	768
155861	7	Sololá	712	San Antonio Palopó	9	San Antonio Palopo	2	Febrero	2023-02-24T00:00:00	2024-11-08T12:00:00	2	Temperatura media	22.7
155862	7	Sololá	712	San Antonio Palopó	9	San Antonio Palopo	2	Febrero	2023-02-24T00:00:00	2024-11-08T12:00:00	4	Temperatura máxima	22.8
155863	7	Sololá	712	San Antonio Palopó	9	San Antonio Palopo	2	Febrero	2023-02-24T00:00:00	2024-11-08T12:00:00	3	Temperatura mínima	22.3
155864	7	Sololá	712	San Antonio Palopó	9	San Antonio Palopo	2	Febrero	2023-02-24T00:00:00	2024-11-08T12:00:00	5	Humedad	49
155865	7	Sololá	712	San Antonio Palopó	9	San Antonio Palopo	2	Febrero	2023-02-24T00:00:00	2024-11-08T12:00:00	6	Velocidad del viento	12.9
155866	7	Sololá	712	San Antonio Palopó	9	San Antonio Palopo	2	Febrero	2023-02-24T00:00:00	2024-11-08T12:00:00	7	Dirección del viento	12.87
155867	7	Sololá	712	San Antonio Palopó	9	San Antonio Palopo	2	Febrero	2023-02-24T00:00:00	2024-11-08T12:00:00	1	Precipitación	0
155868	7	Sololá	712	San Antonio Palopó	9	San Antonio Palopo	2	Febrero	2023-02-24T00:00:00	2024-11-08T12:00:00	8	Radiación solar	786
155869	7	Sololá	712	San Antonio Palopó	9	San Antonio Palopo	2	Febrero	2023-02-24T00:00:00	2024-11-08T13:00:00	2	Temperatura media	22.3
155870	7	Sololá	712	San Antonio Palopó	9	San Antonio Palopo	2	Febrero	2023-02-24T00:00:00	2024-11-08T13:00:00	4	Temperatura máxima	23.3
155871	7	Sololá	712	San Antonio Palopó	9	San Antonio Palopo	2	Febrero	2023-02-24T00:00:00	2024-11-08T13:00:00	3	Temperatura mínima	22.3
155872	7	Sololá	712	San Antonio Palopó	9	San Antonio Palopo	2	Febrero	2023-02-24T00:00:00	2024-11-08T13:00:00	5	Humedad	59
155873	7	Sololá	712	San Antonio Palopó	9	San Antonio Palopo	2	Febrero	2023-02-24T00:00:00	2024-11-08T13:00:00	6	Velocidad del viento	11.3
155874	7	Sololá	712	San Antonio Palopó	9	San Antonio Palopo	2	Febrero	2023-02-24T00:00:00	2024-11-08T13:00:00	7	Dirección del viento	11.27
155875	7	Sololá	712	San Antonio Palopó	9	San Antonio Palopo	2	Febrero	2023-02-24T00:00:00	2024-11-08T13:00:00	1	Precipitación	0
155876	7	Sololá	712	San Antonio Palopó	9	San Antonio Palopo	2	Febrero	2023-02-24T00:00:00	2024-11-08T13:00:00	8	Radiación solar	861
155877	7	Sololá	712	San Antonio Palopó	9	San Antonio Palopo	2	Febrero	2023-02-24T00:00:00	2024-11-08T14:00:00	2	Temperatura media	22.7
155878	7	Sololá	712	San Antonio Palopó	9	San Antonio Palopo	2	Febrero	2023-02-24T00:00:00	2024-11-08T14:00:00	4	Temperatura máxima	22.8
155879	7	Sololá	712	San Antonio Palopó	9	San Antonio Palopo	2	Febrero	2023-02-24T00:00:00	2024-11-08T14:00:00	3	Temperatura mínima	22.2
155880	7	Sololá	712	San Antonio Palopó	9	San Antonio Palopo	2	Febrero	2023-02-24T00:00:00	2024-11-08T14:00:00	5	Humedad	65
155881	7	Sololá	712	San Antonio Palopó	9	San Antonio Palopo	2	Febrero	2023-02-24T00:00:00	2024-11-08T14:00:00	6	Velocidad del viento	12.9
155882	7	Sololá	712	San Antonio Palopó	9	San Antonio Palopo	2	Febrero	2023-02-24T00:00:00	2024-11-08T14:00:00	7	Dirección del viento	12.87
155883	7	Sololá	712	San Antonio Palopó	9	San Antonio Palopo	2	Febrero	2023-02-24T00:00:00	2024-11-08T14:00:00	1	Precipitación	0
155884	7	Sololá	712	San Antonio Palopó	9	San Antonio Palopo	2	Febrero	2023-02-24T00:00:00	2024-11-08T14:00:00	8	Radiación solar	811
155885	7	Sololá	712	San Antonio Palopó	9	San Antonio Palopo	2	Febrero	2023-02-24T00:00:00	2024-11-08T15:00:00	2	Temperatura media	23.6
155886	7	Sololá	712	San Antonio Palopó	9	San Antonio Palopo	2	Febrero	2023-02-24T00:00:00	2024-11-08T15:00:00	4	Temperatura máxima	23.6
155887	7	Sololá	712	San Antonio Palopó	9	San Antonio Palopo	2	Febrero	2023-02-24T00:00:00	2024-11-08T15:00:00	3	Temperatura mínima	22.6
155888	7	Sololá	712	San Antonio Palopó	9	San Antonio Palopo	2	Febrero	2023-02-24T00:00:00	2024-11-08T15:00:00	5	Humedad	63
155889	7	Sololá	712	San Antonio Palopó	9	San Antonio Palopo	2	Febrero	2023-02-24T00:00:00	2024-11-08T15:00:00	6	Velocidad del viento	8
155890	7	Sololá	712	San Antonio Palopó	9	San Antonio Palopo	2	Febrero	2023-02-24T00:00:00	2024-11-08T15:00:00	7	Dirección del viento	8.05
155891	7	Sololá	712	San Antonio Palopó	9	San Antonio Palopo	2	Febrero	2023-02-24T00:00:00	2024-11-08T15:00:00	1	Precipitación	0
155892	7	Sololá	712	San Antonio Palopó	9	San Antonio Palopo	2	Febrero	2023-02-24T00:00:00	2024-11-08T15:00:00	8	Radiación solar	677
155893	7	Sololá	712	San Antonio Palopó	9	San Antonio Palopo	2	Febrero	2023-02-24T00:00:00	2024-11-08T16:00:00	2	Temperatura media	22.7
155894	7	Sololá	712	San Antonio Palopó	9	San Antonio Palopo	2	Febrero	2023-02-24T00:00:00	2024-11-08T16:00:00	4	Temperatura máxima	23.6
155895	7	Sololá	712	San Antonio Palopó	9	San Antonio Palopo	2	Febrero	2023-02-24T00:00:00	2024-11-08T16:00:00	3	Temperatura mínima	22.7
155896	7	Sololá	712	San Antonio Palopó	9	San Antonio Palopo	2	Febrero	2023-02-24T00:00:00	2024-11-08T16:00:00	5	Humedad	67
155897	7	Sololá	712	San Antonio Palopó	9	San Antonio Palopo	2	Febrero	2023-02-24T00:00:00	2024-11-08T16:00:00	6	Velocidad del viento	9.7
155898	7	Sololá	712	San Antonio Palopó	9	San Antonio Palopo	2	Febrero	2023-02-24T00:00:00	2024-11-08T16:00:00	7	Dirección del viento	9.66
155899	7	Sololá	712	San Antonio Palopó	9	San Antonio Palopo	2	Febrero	2023-02-24T00:00:00	2024-11-08T16:00:00	1	Precipitación	0
155900	7	Sololá	712	San Antonio Palopó	9	San Antonio Palopo	2	Febrero	2023-02-24T00:00:00	2024-11-08T16:00:00	8	Radiación solar	506
155901	7	Sololá	712	San Antonio Palopó	9	San Antonio Palopo	2	Febrero	2023-02-24T00:00:00	2024-11-08T17:00:00	2	Temperatura media	22.3
155902	7	Sololá	712	San Antonio Palopó	9	San Antonio Palopo	2	Febrero	2023-02-24T00:00:00	2024-11-08T17:00:00	4	Temperatura máxima	22.8
155903	7	Sololá	712	San Antonio Palopó	9	San Antonio Palopo	2	Febrero	2023-02-24T00:00:00	2024-11-08T17:00:00	3	Temperatura mínima	21.4
155904	7	Sololá	712	San Antonio Palopó	9	San Antonio Palopo	2	Febrero	2023-02-24T00:00:00	2024-11-08T17:00:00	5	Humedad	71
155905	7	Sololá	712	San Antonio Palopó	9	San Antonio Palopo	2	Febrero	2023-02-24T00:00:00	2024-11-08T17:00:00	6	Velocidad del viento	8
155906	7	Sololá	712	San Antonio Palopó	9	San Antonio Palopo	2	Febrero	2023-02-24T00:00:00	2024-11-08T17:00:00	7	Dirección del viento	8.05
155907	7	Sololá	712	San Antonio Palopó	9	San Antonio Palopo	2	Febrero	2023-02-24T00:00:00	2024-11-08T17:00:00	1	Precipitación	0
155908	7	Sololá	712	San Antonio Palopó	9	San Antonio Palopo	2	Febrero	2023-02-24T00:00:00	2024-11-08T17:00:00	8	Radiación solar	280
155909	7	Sololá	712	San Antonio Palopó	9	San Antonio Palopo	2	Febrero	2023-02-24T00:00:00	2024-11-08T18:00:00	2	Temperatura media	20.3
155910	7	Sololá	712	San Antonio Palopó	9	San Antonio Palopo	2	Febrero	2023-02-24T00:00:00	2024-11-08T18:00:00	4	Temperatura máxima	22.5
155911	7	Sololá	712	San Antonio Palopó	9	San Antonio Palopo	2	Febrero	2023-02-24T00:00:00	2024-11-08T18:00:00	3	Temperatura mínima	20.3
155912	7	Sololá	712	San Antonio Palopó	9	San Antonio Palopo	2	Febrero	2023-02-24T00:00:00	2024-11-08T18:00:00	5	Humedad	80
155913	7	Sololá	712	San Antonio Palopó	9	San Antonio Palopo	2	Febrero	2023-02-24T00:00:00	2024-11-08T18:00:00	6	Velocidad del viento	4.8
155914	7	Sololá	712	San Antonio Palopó	9	San Antonio Palopo	2	Febrero	2023-02-24T00:00:00	2024-11-08T18:00:00	7	Dirección del viento	4.83
155915	7	Sololá	712	San Antonio Palopó	9	San Antonio Palopo	2	Febrero	2023-02-24T00:00:00	2024-11-08T18:00:00	1	Precipitación	0
155916	7	Sololá	712	San Antonio Palopó	9	San Antonio Palopo	2	Febrero	2023-02-24T00:00:00	2024-11-08T18:00:00	8	Radiación solar	102
155917	7	Sololá	712	San Antonio Palopó	9	San Antonio Palopo	2	Febrero	2023-02-24T00:00:00	2024-11-08T19:00:00	2	Temperatura media	19.2
155918	7	Sololá	712	San Antonio Palopó	9	San Antonio Palopo	2	Febrero	2023-02-24T00:00:00	2024-11-08T19:00:00	4	Temperatura máxima	20.3
155919	7	Sololá	712	San Antonio Palopó	9	San Antonio Palopo	2	Febrero	2023-02-24T00:00:00	2024-11-08T19:00:00	3	Temperatura mínima	19.2
155920	7	Sololá	712	San Antonio Palopó	9	San Antonio Palopo	2	Febrero	2023-02-24T00:00:00	2024-11-08T19:00:00	5	Humedad	80
155921	7	Sololá	712	San Antonio Palopó	9	San Antonio Palopo	2	Febrero	2023-02-24T00:00:00	2024-11-08T19:00:00	6	Velocidad del viento	3.2
155922	7	Sololá	712	San Antonio Palopó	9	San Antonio Palopo	2	Febrero	2023-02-24T00:00:00	2024-11-08T19:00:00	7	Dirección del viento	3.22
155923	7	Sololá	712	San Antonio Palopó	9	San Antonio Palopo	2	Febrero	2023-02-24T00:00:00	2024-11-08T19:00:00	1	Precipitación	0
155924	7	Sololá	712	San Antonio Palopó	9	San Antonio Palopo	2	Febrero	2023-02-24T00:00:00	2024-11-08T19:00:00	8	Radiación solar	0
155925	7	Sololá	712	San Antonio Palopó	9	San Antonio Palopo	2	Febrero	2023-02-24T00:00:00	2024-11-08T20:00:00	2	Temperatura media	20.3
155926	7	Sololá	712	San Antonio Palopó	9	San Antonio Palopo	2	Febrero	2023-02-24T00:00:00	2024-11-08T20:00:00	4	Temperatura máxima	20.3
155927	7	Sololá	712	San Antonio Palopó	9	San Antonio Palopo	2	Febrero	2023-02-24T00:00:00	2024-11-08T20:00:00	3	Temperatura mínima	18.8
155928	7	Sololá	712	San Antonio Palopó	9	San Antonio Palopo	2	Febrero	2023-02-24T00:00:00	2024-11-08T20:00:00	5	Humedad	64
155929	7	Sololá	712	San Antonio Palopó	9	San Antonio Palopo	2	Febrero	2023-02-24T00:00:00	2024-11-08T20:00:00	6	Velocidad del viento	3.2
155930	7	Sololá	712	San Antonio Palopó	9	San Antonio Palopo	2	Febrero	2023-02-24T00:00:00	2024-11-08T20:00:00	7	Dirección del viento	3.22
155931	7	Sololá	712	San Antonio Palopó	9	San Antonio Palopo	2	Febrero	2023-02-24T00:00:00	2024-11-08T20:00:00	1	Precipitación	0
155932	7	Sololá	712	San Antonio Palopó	9	San Antonio Palopo	2	Febrero	2023-02-24T00:00:00	2024-11-08T20:00:00	8	Radiación solar	0
155933	7	Sololá	712	San Antonio Palopó	9	San Antonio Palopo	2	Febrero	2023-02-24T00:00:00	2024-11-08T21:00:00	2	Temperatura media	19.5
155934	7	Sololá	712	San Antonio Palopó	9	San Antonio Palopo	2	Febrero	2023-02-24T00:00:00	2024-11-08T21:00:00	4	Temperatura máxima	20.3
155935	7	Sololá	712	San Antonio Palopó	9	San Antonio Palopo	2	Febrero	2023-02-24T00:00:00	2024-11-08T21:00:00	3	Temperatura mínima	19.5
155936	7	Sololá	712	San Antonio Palopó	9	San Antonio Palopo	2	Febrero	2023-02-24T00:00:00	2024-11-08T21:00:00	5	Humedad	69
155937	7	Sololá	712	San Antonio Palopó	9	San Antonio Palopo	2	Febrero	2023-02-24T00:00:00	2024-11-08T21:00:00	6	Velocidad del viento	14.5
155938	7	Sololá	712	San Antonio Palopó	9	San Antonio Palopo	2	Febrero	2023-02-24T00:00:00	2024-11-08T21:00:00	7	Dirección del viento	14.48
155939	7	Sololá	712	San Antonio Palopó	9	San Antonio Palopo	2	Febrero	2023-02-24T00:00:00	2024-11-08T21:00:00	1	Precipitación	0
155940	7	Sololá	712	San Antonio Palopó	9	San Antonio Palopo	2	Febrero	2023-02-24T00:00:00	2024-11-08T21:00:00	8	Radiación solar	0
155941	7	Sololá	712	San Antonio Palopó	9	San Antonio Palopo	2	Febrero	2023-02-24T00:00:00	2024-11-08T22:00:00	2	Temperatura media	19
155942	7	Sololá	712	San Antonio Palopó	9	San Antonio Palopo	2	Febrero	2023-02-24T00:00:00	2024-11-08T22:00:00	4	Temperatura máxima	19.5
155943	7	Sololá	712	San Antonio Palopó	9	San Antonio Palopo	2	Febrero	2023-02-24T00:00:00	2024-11-08T22:00:00	3	Temperatura mínima	18.9
155944	7	Sololá	712	San Antonio Palopó	9	San Antonio Palopo	2	Febrero	2023-02-24T00:00:00	2024-11-08T22:00:00	5	Humedad	69
155945	7	Sololá	712	San Antonio Palopó	9	San Antonio Palopo	2	Febrero	2023-02-24T00:00:00	2024-11-08T22:00:00	6	Velocidad del viento	14.5
155946	7	Sololá	712	San Antonio Palopó	9	San Antonio Palopo	2	Febrero	2023-02-24T00:00:00	2024-11-08T22:00:00	7	Dirección del viento	14.48
155947	7	Sololá	712	San Antonio Palopó	9	San Antonio Palopo	2	Febrero	2023-02-24T00:00:00	2024-11-08T22:00:00	1	Precipitación	0
155948	7	Sololá	712	San Antonio Palopó	9	San Antonio Palopo	2	Febrero	2023-02-24T00:00:00	2024-11-08T22:00:00	8	Radiación solar	0
155949	7	Sololá	712	San Antonio Palopó	9	San Antonio Palopo	2	Febrero	2023-02-24T00:00:00	2024-11-08T23:00:00	2	Temperatura media	18.3
155950	7	Sololá	712	San Antonio Palopó	9	San Antonio Palopo	2	Febrero	2023-02-24T00:00:00	2024-11-08T23:00:00	4	Temperatura máxima	19.1
155951	7	Sololá	712	San Antonio Palopó	9	San Antonio Palopo	2	Febrero	2023-02-24T00:00:00	2024-11-08T23:00:00	3	Temperatura mínima	18.3
155952	7	Sololá	712	San Antonio Palopó	9	San Antonio Palopo	2	Febrero	2023-02-24T00:00:00	2024-11-08T23:00:00	5	Humedad	69
155953	7	Sololá	712	San Antonio Palopó	9	San Antonio Palopo	2	Febrero	2023-02-24T00:00:00	2024-11-08T23:00:00	6	Velocidad del viento	9.7
155954	7	Sololá	712	San Antonio Palopó	9	San Antonio Palopo	2	Febrero	2023-02-24T00:00:00	2024-11-08T23:00:00	7	Dirección del viento	9.66
155955	7	Sololá	712	San Antonio Palopó	9	San Antonio Palopo	2	Febrero	2023-02-24T00:00:00	2024-11-08T23:00:00	1	Precipitación	0
155956	7	Sololá	712	San Antonio Palopó	9	San Antonio Palopo	2	Febrero	2023-02-24T00:00:00	2024-11-08T23:00:00	8	Radiación solar	0
155957	7	Sololá	712	San Antonio Palopó	9	San Antonio Palopo	2	Febrero	2023-02-25T00:00:00	2024-11-08T00:00:00	2	Temperatura media	18.3
155958	7	Sololá	712	San Antonio Palopó	9	San Antonio Palopo	2	Febrero	2023-02-25T00:00:00	2024-11-08T00:00:00	4	Temperatura máxima	18.4
155959	7	Sololá	712	San Antonio Palopó	9	San Antonio Palopo	2	Febrero	2023-02-25T00:00:00	2024-11-08T00:00:00	3	Temperatura mínima	18.2
155960	7	Sololá	712	San Antonio Palopó	9	San Antonio Palopo	2	Febrero	2023-02-25T00:00:00	2024-11-08T00:00:00	5	Humedad	68
155961	7	Sololá	712	San Antonio Palopó	9	San Antonio Palopo	2	Febrero	2023-02-25T00:00:00	2024-11-08T00:00:00	6	Velocidad del viento	11.3
155962	7	Sololá	712	San Antonio Palopó	9	San Antonio Palopo	2	Febrero	2023-02-25T00:00:00	2024-11-08T00:00:00	7	Dirección del viento	11.27
155963	7	Sololá	712	San Antonio Palopó	9	San Antonio Palopo	2	Febrero	2023-02-25T00:00:00	2024-11-08T00:00:00	1	Precipitación	0
155964	7	Sololá	712	San Antonio Palopó	9	San Antonio Palopo	2	Febrero	2023-02-25T00:00:00	2024-11-08T00:00:00	8	Radiación solar	0
155965	7	Sololá	712	San Antonio Palopó	9	San Antonio Palopo	2	Febrero	2023-02-25T00:00:00	2024-11-08T01:00:00	2	Temperatura media	17.5
155966	7	Sololá	712	San Antonio Palopó	9	San Antonio Palopo	2	Febrero	2023-02-25T00:00:00	2024-11-08T01:00:00	4	Temperatura máxima	18.4
155967	7	Sololá	712	San Antonio Palopó	9	San Antonio Palopo	2	Febrero	2023-02-25T00:00:00	2024-11-08T01:00:00	3	Temperatura mínima	17.5
155968	7	Sololá	712	San Antonio Palopó	9	San Antonio Palopo	2	Febrero	2023-02-25T00:00:00	2024-11-08T01:00:00	5	Humedad	70
155969	7	Sololá	712	San Antonio Palopó	9	San Antonio Palopo	2	Febrero	2023-02-25T00:00:00	2024-11-08T01:00:00	6	Velocidad del viento	12.9
155970	7	Sololá	712	San Antonio Palopó	9	San Antonio Palopo	2	Febrero	2023-02-25T00:00:00	2024-11-08T01:00:00	7	Dirección del viento	12.87
155971	7	Sololá	712	San Antonio Palopó	9	San Antonio Palopo	2	Febrero	2023-02-25T00:00:00	2024-11-08T01:00:00	1	Precipitación	0
155972	7	Sololá	712	San Antonio Palopó	9	San Antonio Palopo	2	Febrero	2023-02-25T00:00:00	2024-11-08T01:00:00	8	Radiación solar	0
155973	7	Sololá	712	San Antonio Palopó	9	San Antonio Palopo	2	Febrero	2023-02-25T00:00:00	2024-11-08T02:00:00	2	Temperatura media	17
155974	7	Sololá	712	San Antonio Palopó	9	San Antonio Palopo	2	Febrero	2023-02-25T00:00:00	2024-11-08T02:00:00	4	Temperatura máxima	17.6
155975	7	Sololá	712	San Antonio Palopó	9	San Antonio Palopo	2	Febrero	2023-02-25T00:00:00	2024-11-08T02:00:00	3	Temperatura mínima	16.8
155976	7	Sololá	712	San Antonio Palopó	9	San Antonio Palopo	2	Febrero	2023-02-25T00:00:00	2024-11-08T02:00:00	5	Humedad	72
155977	7	Sololá	712	San Antonio Palopó	9	San Antonio Palopo	2	Febrero	2023-02-25T00:00:00	2024-11-08T02:00:00	6	Velocidad del viento	16.1
155978	7	Sololá	712	San Antonio Palopó	9	San Antonio Palopo	2	Febrero	2023-02-25T00:00:00	2024-11-08T02:00:00	7	Dirección del viento	16.09
155979	7	Sololá	712	San Antonio Palopó	9	San Antonio Palopo	2	Febrero	2023-02-25T00:00:00	2024-11-08T02:00:00	1	Precipitación	0
155980	7	Sololá	712	San Antonio Palopó	9	San Antonio Palopo	2	Febrero	2023-02-25T00:00:00	2024-11-08T02:00:00	8	Radiación solar	0
155981	7	Sololá	712	San Antonio Palopó	9	San Antonio Palopo	2	Febrero	2023-02-25T00:00:00	2024-11-08T03:00:00	2	Temperatura media	16.9
155982	7	Sololá	712	San Antonio Palopó	9	San Antonio Palopo	2	Febrero	2023-02-25T00:00:00	2024-11-08T03:00:00	4	Temperatura máxima	17.3
155983	7	Sololá	712	San Antonio Palopó	9	San Antonio Palopo	2	Febrero	2023-02-25T00:00:00	2024-11-08T03:00:00	3	Temperatura mínima	16.9
155984	7	Sololá	712	San Antonio Palopó	9	San Antonio Palopo	2	Febrero	2023-02-25T00:00:00	2024-11-08T03:00:00	5	Humedad	71
155985	7	Sololá	712	San Antonio Palopó	9	San Antonio Palopo	2	Febrero	2023-02-25T00:00:00	2024-11-08T03:00:00	6	Velocidad del viento	14.5
155986	7	Sololá	712	San Antonio Palopó	9	San Antonio Palopo	2	Febrero	2023-02-25T00:00:00	2024-11-08T03:00:00	7	Dirección del viento	14.48
155987	7	Sololá	712	San Antonio Palopó	9	San Antonio Palopo	2	Febrero	2023-02-25T00:00:00	2024-11-08T03:00:00	1	Precipitación	0
155988	7	Sololá	712	San Antonio Palopó	9	San Antonio Palopo	2	Febrero	2023-02-25T00:00:00	2024-11-08T03:00:00	8	Radiación solar	0
155989	7	Sololá	712	San Antonio Palopó	9	San Antonio Palopo	2	Febrero	2023-02-25T00:00:00	2024-11-08T04:00:00	2	Temperatura media	16.1
155990	7	Sololá	712	San Antonio Palopó	9	San Antonio Palopo	2	Febrero	2023-02-25T00:00:00	2024-11-08T04:00:00	4	Temperatura máxima	17
155991	7	Sololá	712	San Antonio Palopó	9	San Antonio Palopo	2	Febrero	2023-02-25T00:00:00	2024-11-08T04:00:00	3	Temperatura mínima	16
155992	7	Sololá	712	San Antonio Palopó	9	San Antonio Palopo	2	Febrero	2023-02-25T00:00:00	2024-11-08T04:00:00	5	Humedad	73
155993	7	Sololá	712	San Antonio Palopó	9	San Antonio Palopo	2	Febrero	2023-02-25T00:00:00	2024-11-08T04:00:00	6	Velocidad del viento	17.7
155994	7	Sololá	712	San Antonio Palopó	9	San Antonio Palopo	2	Febrero	2023-02-25T00:00:00	2024-11-08T04:00:00	7	Dirección del viento	17.7
155995	7	Sololá	712	San Antonio Palopó	9	San Antonio Palopo	2	Febrero	2023-02-25T00:00:00	2024-11-08T04:00:00	1	Precipitación	0
155996	7	Sololá	712	San Antonio Palopó	9	San Antonio Palopo	2	Febrero	2023-02-25T00:00:00	2024-11-08T04:00:00	8	Radiación solar	0
155997	7	Sololá	712	San Antonio Palopó	9	San Antonio Palopo	2	Febrero	2023-02-25T00:00:00	2024-11-08T05:00:00	2	Temperatura media	16.1
155998	7	Sololá	712	San Antonio Palopó	9	San Antonio Palopo	2	Febrero	2023-02-25T00:00:00	2024-11-08T05:00:00	4	Temperatura máxima	16.3
155999	7	Sololá	712	San Antonio Palopó	9	San Antonio Palopo	2	Febrero	2023-02-25T00:00:00	2024-11-08T05:00:00	3	Temperatura mínima	16
156000	7	Sololá	712	San Antonio Palopó	9	San Antonio Palopo	2	Febrero	2023-02-25T00:00:00	2024-11-08T05:00:00	5	Humedad	73
156001	7	Sololá	712	San Antonio Palopó	9	San Antonio Palopo	2	Febrero	2023-02-25T00:00:00	2024-11-08T05:00:00	6	Velocidad del viento	14.5
156002	7	Sololá	712	San Antonio Palopó	9	San Antonio Palopo	2	Febrero	2023-02-25T00:00:00	2024-11-08T05:00:00	7	Dirección del viento	14.48
156003	7	Sololá	712	San Antonio Palopó	9	San Antonio Palopo	2	Febrero	2023-02-25T00:00:00	2024-11-08T05:00:00	1	Precipitación	0
156004	7	Sololá	712	San Antonio Palopó	9	San Antonio Palopo	2	Febrero	2023-02-25T00:00:00	2024-11-08T05:00:00	8	Radiación solar	0
156005	7	Sololá	712	San Antonio Palopó	9	San Antonio Palopo	2	Febrero	2023-02-25T00:00:00	2024-11-08T06:00:00	2	Temperatura media	16.1
156006	7	Sololá	712	San Antonio Palopó	9	San Antonio Palopo	2	Febrero	2023-02-25T00:00:00	2024-11-08T06:00:00	4	Temperatura máxima	16.3
156007	7	Sololá	712	San Antonio Palopó	9	San Antonio Palopo	2	Febrero	2023-02-25T00:00:00	2024-11-08T06:00:00	3	Temperatura mínima	15.9
156008	7	Sololá	712	San Antonio Palopó	9	San Antonio Palopo	2	Febrero	2023-02-25T00:00:00	2024-11-08T06:00:00	5	Humedad	72
156009	7	Sololá	712	San Antonio Palopó	9	San Antonio Palopo	2	Febrero	2023-02-25T00:00:00	2024-11-08T06:00:00	6	Velocidad del viento	17.7
156010	7	Sololá	712	San Antonio Palopó	9	San Antonio Palopo	2	Febrero	2023-02-25T00:00:00	2024-11-08T06:00:00	7	Dirección del viento	17.7
156011	7	Sololá	712	San Antonio Palopó	9	San Antonio Palopo	2	Febrero	2023-02-25T00:00:00	2024-11-08T06:00:00	1	Precipitación	0
156012	7	Sololá	712	San Antonio Palopó	9	San Antonio Palopo	2	Febrero	2023-02-25T00:00:00	2024-11-08T06:00:00	8	Radiación solar	0
156013	7	Sololá	712	San Antonio Palopó	9	San Antonio Palopo	2	Febrero	2023-02-25T00:00:00	2024-11-08T07:00:00	2	Temperatura media	16.4
156014	7	Sololá	712	San Antonio Palopó	9	San Antonio Palopo	2	Febrero	2023-02-25T00:00:00	2024-11-08T07:00:00	4	Temperatura máxima	16.4
156015	7	Sololá	712	San Antonio Palopó	9	San Antonio Palopo	2	Febrero	2023-02-25T00:00:00	2024-11-08T07:00:00	3	Temperatura mínima	15.6
156016	7	Sololá	712	San Antonio Palopó	9	San Antonio Palopo	2	Febrero	2023-02-25T00:00:00	2024-11-08T07:00:00	5	Humedad	67
156017	7	Sololá	712	San Antonio Palopó	9	San Antonio Palopo	2	Febrero	2023-02-25T00:00:00	2024-11-08T07:00:00	6	Velocidad del viento	12.9
156018	7	Sololá	712	San Antonio Palopó	9	San Antonio Palopo	2	Febrero	2023-02-25T00:00:00	2024-11-08T07:00:00	7	Dirección del viento	12.87
156019	7	Sololá	712	San Antonio Palopó	9	San Antonio Palopo	2	Febrero	2023-02-25T00:00:00	2024-11-08T07:00:00	1	Precipitación	0
156020	7	Sololá	712	San Antonio Palopó	9	San Antonio Palopo	2	Febrero	2023-02-25T00:00:00	2024-11-08T07:00:00	8	Radiación solar	5
156021	7	Sololá	712	San Antonio Palopó	9	San Antonio Palopo	2	Febrero	2023-02-25T00:00:00	2024-11-08T08:00:00	2	Temperatura media	17.7
156022	7	Sololá	712	San Antonio Palopó	9	San Antonio Palopo	2	Febrero	2023-02-25T00:00:00	2024-11-08T08:00:00	4	Temperatura máxima	17.7
156023	7	Sololá	712	San Antonio Palopó	9	San Antonio Palopo	2	Febrero	2023-02-25T00:00:00	2024-11-08T08:00:00	3	Temperatura mínima	16.4
156024	7	Sololá	712	San Antonio Palopó	9	San Antonio Palopo	2	Febrero	2023-02-25T00:00:00	2024-11-08T08:00:00	5	Humedad	62
156025	7	Sololá	712	San Antonio Palopó	9	San Antonio Palopo	2	Febrero	2023-02-25T00:00:00	2024-11-08T08:00:00	6	Velocidad del viento	8
156026	7	Sololá	712	San Antonio Palopó	9	San Antonio Palopo	2	Febrero	2023-02-25T00:00:00	2024-11-08T08:00:00	7	Dirección del viento	8.05
156027	7	Sololá	712	San Antonio Palopó	9	San Antonio Palopo	2	Febrero	2023-02-25T00:00:00	2024-11-08T08:00:00	1	Precipitación	0
156028	7	Sololá	712	San Antonio Palopó	9	San Antonio Palopo	2	Febrero	2023-02-25T00:00:00	2024-11-08T08:00:00	8	Radiación solar	20
156029	7	Sololá	712	San Antonio Palopó	9	San Antonio Palopo	2	Febrero	2023-02-25T00:00:00	2024-11-08T09:00:00	2	Temperatura media	19.3
156030	7	Sololá	712	San Antonio Palopó	9	San Antonio Palopo	2	Febrero	2023-02-25T00:00:00	2024-11-08T09:00:00	4	Temperatura máxima	19.4
156031	7	Sololá	712	San Antonio Palopó	9	San Antonio Palopo	2	Febrero	2023-02-25T00:00:00	2024-11-08T09:00:00	3	Temperatura mínima	17.3
156032	7	Sololá	712	San Antonio Palopó	9	San Antonio Palopo	2	Febrero	2023-02-25T00:00:00	2024-11-08T09:00:00	5	Humedad	60
156033	7	Sololá	712	San Antonio Palopó	9	San Antonio Palopo	2	Febrero	2023-02-25T00:00:00	2024-11-08T09:00:00	6	Velocidad del viento	4.8
156034	7	Sololá	712	San Antonio Palopó	9	San Antonio Palopo	2	Febrero	2023-02-25T00:00:00	2024-11-08T09:00:00	7	Dirección del viento	4.83
156035	7	Sololá	712	San Antonio Palopó	9	San Antonio Palopo	2	Febrero	2023-02-25T00:00:00	2024-11-08T09:00:00	1	Precipitación	0
156036	7	Sololá	712	San Antonio Palopó	9	San Antonio Palopo	2	Febrero	2023-02-25T00:00:00	2024-11-08T09:00:00	8	Radiación solar	372
156037	7	Sololá	712	San Antonio Palopó	9	San Antonio Palopo	2	Febrero	2023-02-25T00:00:00	2024-11-08T10:00:00	2	Temperatura media	19.8
156038	7	Sololá	712	San Antonio Palopó	9	San Antonio Palopo	2	Febrero	2023-02-25T00:00:00	2024-11-08T10:00:00	4	Temperatura máxima	20.5
156039	7	Sololá	712	San Antonio Palopó	9	San Antonio Palopo	2	Febrero	2023-02-25T00:00:00	2024-11-08T10:00:00	3	Temperatura mínima	19.3
156040	7	Sololá	712	San Antonio Palopó	9	San Antonio Palopo	2	Febrero	2023-02-25T00:00:00	2024-11-08T10:00:00	5	Humedad	63
156041	7	Sololá	712	San Antonio Palopó	9	San Antonio Palopo	2	Febrero	2023-02-25T00:00:00	2024-11-08T10:00:00	6	Velocidad del viento	4.8
156042	7	Sololá	712	San Antonio Palopó	9	San Antonio Palopo	2	Febrero	2023-02-25T00:00:00	2024-11-08T10:00:00	7	Dirección del viento	4.83
156043	7	Sololá	712	San Antonio Palopó	9	San Antonio Palopo	2	Febrero	2023-02-25T00:00:00	2024-11-08T10:00:00	1	Precipitación	0
156044	7	Sololá	712	San Antonio Palopó	9	San Antonio Palopo	2	Febrero	2023-02-25T00:00:00	2024-11-08T10:00:00	8	Radiación solar	620
156045	7	Sololá	712	San Antonio Palopó	9	San Antonio Palopo	2	Febrero	2023-02-25T00:00:00	2024-11-08T11:00:00	2	Temperatura media	20.8
156046	7	Sololá	712	San Antonio Palopó	9	San Antonio Palopo	2	Febrero	2023-02-25T00:00:00	2024-11-08T11:00:00	4	Temperatura máxima	21
156047	7	Sololá	712	San Antonio Palopó	9	San Antonio Palopo	2	Febrero	2023-02-25T00:00:00	2024-11-08T11:00:00	3	Temperatura mínima	19.7
156048	7	Sololá	712	San Antonio Palopó	9	San Antonio Palopo	2	Febrero	2023-02-25T00:00:00	2024-11-08T11:00:00	5	Humedad	59
156049	7	Sololá	712	San Antonio Palopó	9	San Antonio Palopo	2	Febrero	2023-02-25T00:00:00	2024-11-08T11:00:00	6	Velocidad del viento	4.8
156050	7	Sololá	712	San Antonio Palopó	9	San Antonio Palopo	2	Febrero	2023-02-25T00:00:00	2024-11-08T11:00:00	7	Dirección del viento	4.83
156051	7	Sololá	712	San Antonio Palopó	9	San Antonio Palopo	2	Febrero	2023-02-25T00:00:00	2024-11-08T11:00:00	1	Precipitación	0
156052	7	Sololá	712	San Antonio Palopó	9	San Antonio Palopo	2	Febrero	2023-02-25T00:00:00	2024-11-08T11:00:00	8	Radiación solar	777
156053	7	Sololá	712	San Antonio Palopó	9	San Antonio Palopo	2	Febrero	2023-02-25T00:00:00	2024-11-08T12:00:00	2	Temperatura media	23.2
156054	7	Sololá	712	San Antonio Palopó	9	San Antonio Palopo	2	Febrero	2023-02-25T00:00:00	2024-11-08T12:00:00	4	Temperatura máxima	23.2
156055	7	Sololá	712	San Antonio Palopó	9	San Antonio Palopo	2	Febrero	2023-02-25T00:00:00	2024-11-08T12:00:00	3	Temperatura mínima	20.6
156056	7	Sololá	712	San Antonio Palopó	9	San Antonio Palopo	2	Febrero	2023-02-25T00:00:00	2024-11-08T12:00:00	5	Humedad	53
156057	7	Sololá	712	San Antonio Palopó	9	San Antonio Palopo	2	Febrero	2023-02-25T00:00:00	2024-11-08T12:00:00	6	Velocidad del viento	4.8
156058	7	Sololá	712	San Antonio Palopó	9	San Antonio Palopo	2	Febrero	2023-02-25T00:00:00	2024-11-08T12:00:00	7	Dirección del viento	4.83
156059	7	Sololá	712	San Antonio Palopó	9	San Antonio Palopo	2	Febrero	2023-02-25T00:00:00	2024-11-08T12:00:00	1	Precipitación	0
156060	7	Sololá	712	San Antonio Palopó	9	San Antonio Palopo	2	Febrero	2023-02-25T00:00:00	2024-11-08T12:00:00	8	Radiación solar	802
156061	7	Sololá	712	San Antonio Palopó	9	San Antonio Palopo	2	Febrero	2023-02-25T00:00:00	2024-11-08T13:00:00	2	Temperatura media	24.3
156062	7	Sololá	712	San Antonio Palopó	9	San Antonio Palopo	2	Febrero	2023-02-25T00:00:00	2024-11-08T13:00:00	4	Temperatura máxima	24.3
156063	7	Sololá	712	San Antonio Palopó	9	San Antonio Palopo	2	Febrero	2023-02-25T00:00:00	2024-11-08T13:00:00	3	Temperatura mínima	22.9
156064	7	Sololá	712	San Antonio Palopó	9	San Antonio Palopo	2	Febrero	2023-02-25T00:00:00	2024-11-08T13:00:00	5	Humedad	58
156065	7	Sololá	712	San Antonio Palopó	9	San Antonio Palopo	2	Febrero	2023-02-25T00:00:00	2024-11-08T13:00:00	6	Velocidad del viento	6.4
156066	7	Sololá	712	San Antonio Palopó	9	San Antonio Palopo	2	Febrero	2023-02-25T00:00:00	2024-11-08T13:00:00	7	Dirección del viento	6.44
156067	7	Sololá	712	San Antonio Palopó	9	San Antonio Palopo	2	Febrero	2023-02-25T00:00:00	2024-11-08T13:00:00	1	Precipitación	0
156068	7	Sololá	712	San Antonio Palopó	9	San Antonio Palopo	2	Febrero	2023-02-25T00:00:00	2024-11-08T13:00:00	8	Radiación solar	868
156069	7	Sololá	712	San Antonio Palopó	9	San Antonio Palopo	2	Febrero	2023-02-25T00:00:00	2024-11-08T14:00:00	2	Temperatura media	23.8
156070	7	Sololá	712	San Antonio Palopó	9	San Antonio Palopo	2	Febrero	2023-02-25T00:00:00	2024-11-08T14:00:00	4	Temperatura máxima	24.9
156071	7	Sololá	712	San Antonio Palopó	9	San Antonio Palopo	2	Febrero	2023-02-25T00:00:00	2024-11-08T14:00:00	3	Temperatura mínima	23.6
156072	7	Sololá	712	San Antonio Palopó	9	San Antonio Palopo	2	Febrero	2023-02-25T00:00:00	2024-11-08T14:00:00	5	Humedad	62
156073	7	Sololá	712	San Antonio Palopó	9	San Antonio Palopo	2	Febrero	2023-02-25T00:00:00	2024-11-08T14:00:00	6	Velocidad del viento	11.3
156074	7	Sololá	712	San Antonio Palopó	9	San Antonio Palopo	2	Febrero	2023-02-25T00:00:00	2024-11-08T14:00:00	7	Dirección del viento	11.27
156075	7	Sololá	712	San Antonio Palopó	9	San Antonio Palopo	2	Febrero	2023-02-25T00:00:00	2024-11-08T14:00:00	1	Precipitación	0
156076	7	Sololá	712	San Antonio Palopó	9	San Antonio Palopo	2	Febrero	2023-02-25T00:00:00	2024-11-08T14:00:00	8	Radiación solar	808
156077	7	Sololá	712	San Antonio Palopó	9	San Antonio Palopo	2	Febrero	2023-02-25T00:00:00	2024-11-08T15:00:00	2	Temperatura media	24.4
156078	7	Sololá	712	San Antonio Palopó	9	San Antonio Palopo	2	Febrero	2023-02-25T00:00:00	2024-11-08T15:00:00	4	Temperatura máxima	24.6
156079	7	Sololá	712	San Antonio Palopó	9	San Antonio Palopo	2	Febrero	2023-02-25T00:00:00	2024-11-08T15:00:00	3	Temperatura mínima	23.8
156080	7	Sololá	712	San Antonio Palopó	9	San Antonio Palopo	2	Febrero	2023-02-25T00:00:00	2024-11-08T15:00:00	5	Humedad	61
156081	7	Sololá	712	San Antonio Palopó	9	San Antonio Palopo	2	Febrero	2023-02-25T00:00:00	2024-11-08T15:00:00	6	Velocidad del viento	9.7
156082	7	Sololá	712	San Antonio Palopó	9	San Antonio Palopo	2	Febrero	2023-02-25T00:00:00	2024-11-08T15:00:00	7	Dirección del viento	9.66
156083	7	Sololá	712	San Antonio Palopó	9	San Antonio Palopo	2	Febrero	2023-02-25T00:00:00	2024-11-08T15:00:00	1	Precipitación	0
156084	7	Sololá	712	San Antonio Palopó	9	San Antonio Palopo	2	Febrero	2023-02-25T00:00:00	2024-11-08T15:00:00	8	Radiación solar	688
156085	7	Sololá	712	San Antonio Palopó	9	San Antonio Palopo	2	Febrero	2023-02-25T00:00:00	2024-11-08T16:00:00	2	Temperatura media	24.2
156086	7	Sololá	712	San Antonio Palopó	9	San Antonio Palopo	2	Febrero	2023-02-25T00:00:00	2024-11-08T16:00:00	4	Temperatura máxima	24.6
156087	7	Sololá	712	San Antonio Palopó	9	San Antonio Palopo	2	Febrero	2023-02-25T00:00:00	2024-11-08T16:00:00	3	Temperatura mínima	23.8
156088	7	Sololá	712	San Antonio Palopó	9	San Antonio Palopo	2	Febrero	2023-02-25T00:00:00	2024-11-08T16:00:00	5	Humedad	64
156089	7	Sololá	712	San Antonio Palopó	9	San Antonio Palopo	2	Febrero	2023-02-25T00:00:00	2024-11-08T16:00:00	6	Velocidad del viento	9.7
156090	7	Sololá	712	San Antonio Palopó	9	San Antonio Palopo	2	Febrero	2023-02-25T00:00:00	2024-11-08T16:00:00	7	Dirección del viento	9.66
156091	7	Sololá	712	San Antonio Palopó	9	San Antonio Palopo	2	Febrero	2023-02-25T00:00:00	2024-11-08T16:00:00	1	Precipitación	0
156092	7	Sololá	712	San Antonio Palopó	9	San Antonio Palopo	2	Febrero	2023-02-25T00:00:00	2024-11-08T16:00:00	8	Radiación solar	507
156093	7	Sololá	712	San Antonio Palopó	9	San Antonio Palopo	2	Febrero	2023-02-25T00:00:00	2024-11-08T17:00:00	2	Temperatura media	23.5
156094	7	Sololá	712	San Antonio Palopó	9	San Antonio Palopo	2	Febrero	2023-02-25T00:00:00	2024-11-08T17:00:00	4	Temperatura máxima	24.2
156095	7	Sololá	712	San Antonio Palopó	9	San Antonio Palopo	2	Febrero	2023-02-25T00:00:00	2024-11-08T17:00:00	3	Temperatura mínima	23.4
156096	7	Sololá	712	San Antonio Palopó	9	San Antonio Palopo	2	Febrero	2023-02-25T00:00:00	2024-11-08T17:00:00	5	Humedad	68
156097	7	Sololá	712	San Antonio Palopó	9	San Antonio Palopo	2	Febrero	2023-02-25T00:00:00	2024-11-08T17:00:00	6	Velocidad del viento	9.7
156098	7	Sololá	712	San Antonio Palopó	9	San Antonio Palopo	2	Febrero	2023-02-25T00:00:00	2024-11-08T17:00:00	7	Dirección del viento	9.66
156099	7	Sololá	712	San Antonio Palopó	9	San Antonio Palopo	2	Febrero	2023-02-25T00:00:00	2024-11-08T17:00:00	1	Precipitación	0
156100	7	Sololá	712	San Antonio Palopó	9	San Antonio Palopo	2	Febrero	2023-02-25T00:00:00	2024-11-08T17:00:00	8	Radiación solar	293
156101	7	Sololá	712	San Antonio Palopó	9	San Antonio Palopo	2	Febrero	2023-02-25T00:00:00	2024-11-08T18:00:00	2	Temperatura media	21.1
156102	7	Sololá	712	San Antonio Palopó	9	San Antonio Palopo	2	Febrero	2023-02-25T00:00:00	2024-11-08T18:00:00	4	Temperatura máxima	23.6
156103	7	Sololá	712	San Antonio Palopó	9	San Antonio Palopo	2	Febrero	2023-02-25T00:00:00	2024-11-08T18:00:00	3	Temperatura mínima	21.1
156104	7	Sololá	712	San Antonio Palopó	9	San Antonio Palopo	2	Febrero	2023-02-25T00:00:00	2024-11-08T18:00:00	5	Humedad	79
156105	7	Sololá	712	San Antonio Palopó	9	San Antonio Palopo	2	Febrero	2023-02-25T00:00:00	2024-11-08T18:00:00	6	Velocidad del viento	6.4
156106	7	Sololá	712	San Antonio Palopó	9	San Antonio Palopo	2	Febrero	2023-02-25T00:00:00	2024-11-08T18:00:00	7	Dirección del viento	6.44
156107	7	Sololá	712	San Antonio Palopó	9	San Antonio Palopo	2	Febrero	2023-02-25T00:00:00	2024-11-08T18:00:00	1	Precipitación	0
156108	7	Sololá	712	San Antonio Palopó	9	San Antonio Palopo	2	Febrero	2023-02-25T00:00:00	2024-11-08T18:00:00	8	Radiación solar	73
156109	7	Sololá	712	San Antonio Palopó	9	San Antonio Palopo	2	Febrero	2023-02-25T00:00:00	2024-11-08T19:00:00	2	Temperatura media	20.6
156110	7	Sololá	712	San Antonio Palopó	9	San Antonio Palopo	2	Febrero	2023-02-25T00:00:00	2024-11-08T19:00:00	4	Temperatura máxima	21.1
156111	7	Sololá	712	San Antonio Palopó	9	San Antonio Palopo	2	Febrero	2023-02-25T00:00:00	2024-11-08T19:00:00	3	Temperatura mínima	20.1
156112	7	Sololá	712	San Antonio Palopó	9	San Antonio Palopo	2	Febrero	2023-02-25T00:00:00	2024-11-08T19:00:00	5	Humedad	66
156113	7	Sololá	712	San Antonio Palopó	9	San Antonio Palopo	2	Febrero	2023-02-25T00:00:00	2024-11-08T19:00:00	6	Velocidad del viento	3.2
156114	7	Sololá	712	San Antonio Palopó	9	San Antonio Palopo	2	Febrero	2023-02-25T00:00:00	2024-11-08T19:00:00	7	Dirección del viento	3.22
156115	7	Sololá	712	San Antonio Palopó	9	San Antonio Palopo	2	Febrero	2023-02-25T00:00:00	2024-11-08T19:00:00	1	Precipitación	0
156116	7	Sololá	712	San Antonio Palopó	9	San Antonio Palopo	2	Febrero	2023-02-25T00:00:00	2024-11-08T19:00:00	8	Radiación solar	0
156117	7	Sololá	712	San Antonio Palopó	9	San Antonio Palopo	2	Febrero	2023-02-25T00:00:00	2024-11-08T20:00:00	2	Temperatura media	19.8
156118	7	Sololá	712	San Antonio Palopó	9	San Antonio Palopo	2	Febrero	2023-02-25T00:00:00	2024-11-08T20:00:00	4	Temperatura máxima	20.8
156119	7	Sololá	712	San Antonio Palopó	9	San Antonio Palopo	2	Febrero	2023-02-25T00:00:00	2024-11-08T20:00:00	3	Temperatura mínima	19.8
156120	7	Sololá	712	San Antonio Palopó	9	San Antonio Palopo	2	Febrero	2023-02-25T00:00:00	2024-11-08T20:00:00	5	Humedad	62
156121	7	Sololá	712	San Antonio Palopó	9	San Antonio Palopo	2	Febrero	2023-02-25T00:00:00	2024-11-08T20:00:00	6	Velocidad del viento	4.8
156122	7	Sololá	712	San Antonio Palopó	9	San Antonio Palopo	2	Febrero	2023-02-25T00:00:00	2024-11-08T20:00:00	7	Dirección del viento	4.83
156123	7	Sololá	712	San Antonio Palopó	9	San Antonio Palopo	2	Febrero	2023-02-25T00:00:00	2024-11-08T20:00:00	1	Precipitación	0
156124	7	Sololá	712	San Antonio Palopó	9	San Antonio Palopo	2	Febrero	2023-02-25T00:00:00	2024-11-08T20:00:00	8	Radiación solar	0
156125	7	Sololá	712	San Antonio Palopó	9	San Antonio Palopo	2	Febrero	2023-02-25T00:00:00	2024-11-08T21:00:00	2	Temperatura media	19
156126	7	Sololá	712	San Antonio Palopó	9	San Antonio Palopo	2	Febrero	2023-02-25T00:00:00	2024-11-08T21:00:00	4	Temperatura máxima	19.8
156127	7	Sololá	712	San Antonio Palopó	9	San Antonio Palopo	2	Febrero	2023-02-25T00:00:00	2024-11-08T21:00:00	3	Temperatura mínima	19
156128	7	Sololá	712	San Antonio Palopó	9	San Antonio Palopo	2	Febrero	2023-02-25T00:00:00	2024-11-08T21:00:00	5	Humedad	65
156129	7	Sololá	712	San Antonio Palopó	9	San Antonio Palopo	2	Febrero	2023-02-25T00:00:00	2024-11-08T21:00:00	6	Velocidad del viento	6.4
156130	7	Sololá	712	San Antonio Palopó	9	San Antonio Palopo	2	Febrero	2023-02-25T00:00:00	2024-11-08T21:00:00	7	Dirección del viento	6.44
156131	7	Sololá	712	San Antonio Palopó	9	San Antonio Palopo	2	Febrero	2023-02-25T00:00:00	2024-11-08T21:00:00	1	Precipitación	0
156132	7	Sololá	712	San Antonio Palopó	9	San Antonio Palopo	2	Febrero	2023-02-25T00:00:00	2024-11-08T21:00:00	8	Radiación solar	0
156133	7	Sololá	712	San Antonio Palopó	9	San Antonio Palopo	2	Febrero	2023-02-25T00:00:00	2024-11-08T22:00:00	2	Temperatura media	18.2
156134	7	Sololá	712	San Antonio Palopó	9	San Antonio Palopo	2	Febrero	2023-02-25T00:00:00	2024-11-08T22:00:00	4	Temperatura máxima	19.1
156135	7	Sololá	712	San Antonio Palopó	9	San Antonio Palopo	2	Febrero	2023-02-25T00:00:00	2024-11-08T22:00:00	3	Temperatura mínima	18.2
156136	7	Sololá	712	San Antonio Palopó	9	San Antonio Palopo	2	Febrero	2023-02-25T00:00:00	2024-11-08T22:00:00	5	Humedad	68
156137	7	Sololá	712	San Antonio Palopó	9	San Antonio Palopo	2	Febrero	2023-02-25T00:00:00	2024-11-08T22:00:00	6	Velocidad del viento	8
156138	7	Sololá	712	San Antonio Palopó	9	San Antonio Palopo	2	Febrero	2023-02-25T00:00:00	2024-11-08T22:00:00	7	Dirección del viento	8.05
156139	7	Sololá	712	San Antonio Palopó	9	San Antonio Palopo	2	Febrero	2023-02-25T00:00:00	2024-11-08T22:00:00	1	Precipitación	0
156140	7	Sololá	712	San Antonio Palopó	9	San Antonio Palopo	2	Febrero	2023-02-25T00:00:00	2024-11-08T22:00:00	8	Radiación solar	0
156141	7	Sololá	712	San Antonio Palopó	9	San Antonio Palopo	2	Febrero	2023-02-25T00:00:00	2024-11-08T23:00:00	2	Temperatura media	18
156142	7	Sololá	712	San Antonio Palopó	9	San Antonio Palopo	2	Febrero	2023-02-25T00:00:00	2024-11-08T23:00:00	4	Temperatura máxima	18.4
156143	7	Sololá	712	San Antonio Palopó	9	San Antonio Palopo	2	Febrero	2023-02-25T00:00:00	2024-11-08T23:00:00	3	Temperatura mínima	17.9
156144	7	Sololá	712	San Antonio Palopó	9	San Antonio Palopo	2	Febrero	2023-02-25T00:00:00	2024-11-08T23:00:00	5	Humedad	66
156145	7	Sololá	712	San Antonio Palopó	9	San Antonio Palopo	2	Febrero	2023-02-25T00:00:00	2024-11-08T23:00:00	6	Velocidad del viento	4.8
156146	7	Sololá	712	San Antonio Palopó	9	San Antonio Palopo	2	Febrero	2023-02-25T00:00:00	2024-11-08T23:00:00	7	Dirección del viento	4.83
156147	7	Sololá	712	San Antonio Palopó	9	San Antonio Palopo	2	Febrero	2023-02-25T00:00:00	2024-11-08T23:00:00	1	Precipitación	0
156148	7	Sololá	712	San Antonio Palopó	9	San Antonio Palopo	2	Febrero	2023-02-25T00:00:00	2024-11-08T23:00:00	8	Radiación solar	0
156149	7	Sololá	712	San Antonio Palopó	9	San Antonio Palopo	2	Febrero	2023-02-26T00:00:00	2024-11-08T00:00:00	2	Temperatura media	17.6
156150	7	Sololá	712	San Antonio Palopó	9	San Antonio Palopo	2	Febrero	2023-02-26T00:00:00	2024-11-08T00:00:00	4	Temperatura máxima	18
156151	7	Sololá	712	San Antonio Palopó	9	San Antonio Palopo	2	Febrero	2023-02-26T00:00:00	2024-11-08T00:00:00	3	Temperatura mínima	17.3
156152	7	Sololá	712	San Antonio Palopó	9	San Antonio Palopo	2	Febrero	2023-02-26T00:00:00	2024-11-08T00:00:00	5	Humedad	68
156153	7	Sololá	712	San Antonio Palopó	9	San Antonio Palopo	2	Febrero	2023-02-26T00:00:00	2024-11-08T00:00:00	6	Velocidad del viento	8
156154	7	Sololá	712	San Antonio Palopó	9	San Antonio Palopo	2	Febrero	2023-02-26T00:00:00	2024-11-08T00:00:00	7	Dirección del viento	8.05
156155	7	Sololá	712	San Antonio Palopó	9	San Antonio Palopo	2	Febrero	2023-02-26T00:00:00	2024-11-08T00:00:00	1	Precipitación	0
156156	7	Sololá	712	San Antonio Palopó	9	San Antonio Palopo	2	Febrero	2023-02-26T00:00:00	2024-11-08T00:00:00	8	Radiación solar	0
156157	7	Sololá	712	San Antonio Palopó	9	San Antonio Palopo	2	Febrero	2023-02-26T00:00:00	2024-11-08T01:00:00	2	Temperatura media	16.8
156158	7	Sololá	712	San Antonio Palopó	9	San Antonio Palopo	2	Febrero	2023-02-26T00:00:00	2024-11-08T01:00:00	4	Temperatura máxima	17.6
156159	7	Sololá	712	San Antonio Palopó	9	San Antonio Palopo	2	Febrero	2023-02-26T00:00:00	2024-11-08T01:00:00	3	Temperatura mínima	16.8
156160	7	Sololá	712	San Antonio Palopó	9	San Antonio Palopo	2	Febrero	2023-02-26T00:00:00	2024-11-08T01:00:00	5	Humedad	69
156161	7	Sololá	712	San Antonio Palopó	9	San Antonio Palopo	2	Febrero	2023-02-26T00:00:00	2024-11-08T01:00:00	6	Velocidad del viento	14.5
156162	7	Sololá	712	San Antonio Palopó	9	San Antonio Palopo	2	Febrero	2023-02-26T00:00:00	2024-11-08T01:00:00	7	Dirección del viento	14.48
156163	7	Sololá	712	San Antonio Palopó	9	San Antonio Palopo	2	Febrero	2023-02-26T00:00:00	2024-11-08T01:00:00	1	Precipitación	0
156164	7	Sololá	712	San Antonio Palopó	9	San Antonio Palopo	2	Febrero	2023-02-26T00:00:00	2024-11-08T01:00:00	8	Radiación solar	0
156165	7	Sololá	712	San Antonio Palopó	9	San Antonio Palopo	2	Febrero	2023-02-26T00:00:00	2024-11-08T02:00:00	2	Temperatura media	16.7
156166	7	Sololá	712	San Antonio Palopó	9	San Antonio Palopo	2	Febrero	2023-02-26T00:00:00	2024-11-08T02:00:00	4	Temperatura máxima	17
156167	7	Sololá	712	San Antonio Palopó	9	San Antonio Palopo	2	Febrero	2023-02-26T00:00:00	2024-11-08T02:00:00	3	Temperatura mínima	16.7
156168	7	Sololá	712	San Antonio Palopó	9	San Antonio Palopo	2	Febrero	2023-02-26T00:00:00	2024-11-08T02:00:00	5	Humedad	67
156169	7	Sololá	712	San Antonio Palopó	9	San Antonio Palopo	2	Febrero	2023-02-26T00:00:00	2024-11-08T02:00:00	6	Velocidad del viento	12.9
156170	7	Sololá	712	San Antonio Palopó	9	San Antonio Palopo	2	Febrero	2023-02-26T00:00:00	2024-11-08T02:00:00	7	Dirección del viento	12.87
156171	7	Sololá	712	San Antonio Palopó	9	San Antonio Palopo	2	Febrero	2023-02-26T00:00:00	2024-11-08T02:00:00	1	Precipitación	0
156172	7	Sololá	712	San Antonio Palopó	9	San Antonio Palopo	2	Febrero	2023-02-26T00:00:00	2024-11-08T02:00:00	8	Radiación solar	0
156173	7	Sololá	712	San Antonio Palopó	9	San Antonio Palopo	2	Febrero	2023-02-26T00:00:00	2024-11-08T03:00:00	2	Temperatura media	16.2
156174	7	Sololá	712	San Antonio Palopó	9	San Antonio Palopo	2	Febrero	2023-02-26T00:00:00	2024-11-08T03:00:00	4	Temperatura máxima	16.7
156175	7	Sololá	712	San Antonio Palopó	9	San Antonio Palopo	2	Febrero	2023-02-26T00:00:00	2024-11-08T03:00:00	3	Temperatura mínima	16.2
156176	7	Sololá	712	San Antonio Palopó	9	San Antonio Palopo	2	Febrero	2023-02-26T00:00:00	2024-11-08T03:00:00	5	Humedad	70
156177	7	Sololá	712	San Antonio Palopó	9	San Antonio Palopo	2	Febrero	2023-02-26T00:00:00	2024-11-08T03:00:00	6	Velocidad del viento	12.9
156178	7	Sololá	712	San Antonio Palopó	9	San Antonio Palopo	2	Febrero	2023-02-26T00:00:00	2024-11-08T03:00:00	7	Dirección del viento	12.87
156179	7	Sololá	712	San Antonio Palopó	9	San Antonio Palopo	2	Febrero	2023-02-26T00:00:00	2024-11-08T03:00:00	1	Precipitación	0
156180	7	Sololá	712	San Antonio Palopó	9	San Antonio Palopo	2	Febrero	2023-02-26T00:00:00	2024-11-08T03:00:00	8	Radiación solar	0
156181	7	Sololá	712	San Antonio Palopó	9	San Antonio Palopo	2	Febrero	2023-02-26T00:00:00	2024-11-08T04:00:00	2	Temperatura media	15.9
156182	7	Sololá	712	San Antonio Palopó	9	San Antonio Palopo	2	Febrero	2023-02-26T00:00:00	2024-11-08T04:00:00	4	Temperatura máxima	16.3
156183	7	Sololá	712	San Antonio Palopó	9	San Antonio Palopo	2	Febrero	2023-02-26T00:00:00	2024-11-08T04:00:00	3	Temperatura mínima	15.7
156184	7	Sololá	712	San Antonio Palopó	9	San Antonio Palopo	2	Febrero	2023-02-26T00:00:00	2024-11-08T04:00:00	5	Humedad	70
156185	7	Sololá	712	San Antonio Palopó	9	San Antonio Palopo	2	Febrero	2023-02-26T00:00:00	2024-11-08T04:00:00	6	Velocidad del viento	14.5
156186	7	Sololá	712	San Antonio Palopó	9	San Antonio Palopo	2	Febrero	2023-02-26T00:00:00	2024-11-08T04:00:00	7	Dirección del viento	14.48
156187	7	Sololá	712	San Antonio Palopó	9	San Antonio Palopo	2	Febrero	2023-02-26T00:00:00	2024-11-08T04:00:00	1	Precipitación	0
156188	7	Sololá	712	San Antonio Palopó	9	San Antonio Palopo	2	Febrero	2023-02-26T00:00:00	2024-11-08T04:00:00	8	Radiación solar	0
156189	7	Sololá	712	San Antonio Palopó	9	San Antonio Palopo	2	Febrero	2023-02-26T00:00:00	2024-11-08T05:00:00	2	Temperatura media	15.7
156190	7	Sololá	712	San Antonio Palopó	9	San Antonio Palopo	2	Febrero	2023-02-26T00:00:00	2024-11-08T05:00:00	4	Temperatura máxima	16.1
156191	7	Sololá	712	San Antonio Palopó	9	San Antonio Palopo	2	Febrero	2023-02-26T00:00:00	2024-11-08T05:00:00	3	Temperatura mínima	15.7
156192	7	Sololá	712	San Antonio Palopó	9	San Antonio Palopo	2	Febrero	2023-02-26T00:00:00	2024-11-08T05:00:00	5	Humedad	67
156193	7	Sololá	712	San Antonio Palopó	9	San Antonio Palopo	2	Febrero	2023-02-26T00:00:00	2024-11-08T05:00:00	6	Velocidad del viento	16.1
156194	7	Sololá	712	San Antonio Palopó	9	San Antonio Palopo	2	Febrero	2023-02-26T00:00:00	2024-11-08T05:00:00	7	Dirección del viento	16.09
156195	7	Sololá	712	San Antonio Palopó	9	San Antonio Palopo	2	Febrero	2023-02-26T00:00:00	2024-11-08T05:00:00	1	Precipitación	0
156196	7	Sololá	712	San Antonio Palopó	9	San Antonio Palopo	2	Febrero	2023-02-26T00:00:00	2024-11-08T05:00:00	8	Radiación solar	0
156197	7	Sololá	712	San Antonio Palopó	9	San Antonio Palopo	2	Febrero	2023-02-26T00:00:00	2024-11-08T06:00:00	2	Temperatura media	15.8
156198	7	Sololá	712	San Antonio Palopó	9	San Antonio Palopo	2	Febrero	2023-02-26T00:00:00	2024-11-08T06:00:00	4	Temperatura máxima	15.8
156199	7	Sololá	712	San Antonio Palopó	9	San Antonio Palopo	2	Febrero	2023-02-26T00:00:00	2024-11-08T06:00:00	3	Temperatura mínima	15.3
156200	7	Sololá	712	San Antonio Palopó	9	San Antonio Palopo	2	Febrero	2023-02-26T00:00:00	2024-11-08T06:00:00	5	Humedad	63
156201	7	Sololá	712	San Antonio Palopó	9	San Antonio Palopo	2	Febrero	2023-02-26T00:00:00	2024-11-08T06:00:00	6	Velocidad del viento	14.5
156202	7	Sololá	712	San Antonio Palopó	9	San Antonio Palopo	2	Febrero	2023-02-26T00:00:00	2024-11-08T06:00:00	7	Dirección del viento	14.48
156203	7	Sololá	712	San Antonio Palopó	9	San Antonio Palopo	2	Febrero	2023-02-26T00:00:00	2024-11-08T06:00:00	1	Precipitación	0
156204	7	Sololá	712	San Antonio Palopó	9	San Antonio Palopo	2	Febrero	2023-02-26T00:00:00	2024-11-08T06:00:00	8	Radiación solar	0
156205	7	Sololá	712	San Antonio Palopó	9	San Antonio Palopo	2	Febrero	2023-02-26T00:00:00	2024-11-08T07:00:00	2	Temperatura media	16
156206	7	Sololá	712	San Antonio Palopó	9	San Antonio Palopo	2	Febrero	2023-02-26T00:00:00	2024-11-08T07:00:00	4	Temperatura máxima	16
156207	7	Sololá	712	San Antonio Palopó	9	San Antonio Palopo	2	Febrero	2023-02-26T00:00:00	2024-11-08T07:00:00	3	Temperatura mínima	15.5
156208	7	Sololá	712	San Antonio Palopó	9	San Antonio Palopo	2	Febrero	2023-02-26T00:00:00	2024-11-08T07:00:00	5	Humedad	63
156209	7	Sololá	712	San Antonio Palopó	9	San Antonio Palopo	2	Febrero	2023-02-26T00:00:00	2024-11-08T07:00:00	6	Velocidad del viento	16.1
156210	7	Sololá	712	San Antonio Palopó	9	San Antonio Palopo	2	Febrero	2023-02-26T00:00:00	2024-11-08T07:00:00	7	Dirección del viento	16.09
156211	7	Sololá	712	San Antonio Palopó	9	San Antonio Palopo	2	Febrero	2023-02-26T00:00:00	2024-11-08T07:00:00	1	Precipitación	0
156212	7	Sololá	712	San Antonio Palopó	9	San Antonio Palopo	2	Febrero	2023-02-26T00:00:00	2024-11-08T07:00:00	8	Radiación solar	5
156213	7	Sololá	712	San Antonio Palopó	9	San Antonio Palopo	2	Febrero	2023-02-26T00:00:00	2024-11-08T08:00:00	2	Temperatura media	16.7
156214	7	Sololá	712	San Antonio Palopó	9	San Antonio Palopo	2	Febrero	2023-02-26T00:00:00	2024-11-08T08:00:00	4	Temperatura máxima	16.7
156215	7	Sololá	712	San Antonio Palopó	9	San Antonio Palopo	2	Febrero	2023-02-26T00:00:00	2024-11-08T08:00:00	3	Temperatura mínima	15.9
156216	7	Sololá	712	San Antonio Palopó	9	San Antonio Palopo	2	Febrero	2023-02-26T00:00:00	2024-11-08T08:00:00	5	Humedad	63
156217	7	Sololá	712	San Antonio Palopó	9	San Antonio Palopo	2	Febrero	2023-02-26T00:00:00	2024-11-08T08:00:00	6	Velocidad del viento	12.9
156218	7	Sololá	712	San Antonio Palopó	9	San Antonio Palopo	2	Febrero	2023-02-26T00:00:00	2024-11-08T08:00:00	7	Dirección del viento	12.87
156219	7	Sololá	712	San Antonio Palopó	9	San Antonio Palopo	2	Febrero	2023-02-26T00:00:00	2024-11-08T08:00:00	1	Precipitación	0
156220	7	Sololá	712	San Antonio Palopó	9	San Antonio Palopo	2	Febrero	2023-02-26T00:00:00	2024-11-08T08:00:00	8	Radiación solar	19
156221	7	Sololá	712	San Antonio Palopó	9	San Antonio Palopo	2	Febrero	2023-02-26T00:00:00	2024-11-08T09:00:00	2	Temperatura media	18.3
156222	7	Sololá	712	San Antonio Palopó	9	San Antonio Palopo	2	Febrero	2023-02-26T00:00:00	2024-11-08T09:00:00	4	Temperatura máxima	18.7
156223	7	Sololá	712	San Antonio Palopó	9	San Antonio Palopo	2	Febrero	2023-02-26T00:00:00	2024-11-08T09:00:00	3	Temperatura mínima	16.7
156224	7	Sololá	712	San Antonio Palopó	9	San Antonio Palopo	2	Febrero	2023-02-26T00:00:00	2024-11-08T09:00:00	5	Humedad	60
156225	7	Sololá	712	San Antonio Palopó	9	San Antonio Palopo	2	Febrero	2023-02-26T00:00:00	2024-11-08T09:00:00	6	Velocidad del viento	11.3
156226	7	Sololá	712	San Antonio Palopó	9	San Antonio Palopo	2	Febrero	2023-02-26T00:00:00	2024-11-08T09:00:00	7	Dirección del viento	11.27
156227	7	Sololá	712	San Antonio Palopó	9	San Antonio Palopo	2	Febrero	2023-02-26T00:00:00	2024-11-08T09:00:00	1	Precipitación	0
156228	7	Sololá	712	San Antonio Palopó	9	San Antonio Palopo	2	Febrero	2023-02-26T00:00:00	2024-11-08T09:00:00	8	Radiación solar	389
156229	7	Sololá	712	San Antonio Palopó	9	San Antonio Palopo	2	Febrero	2023-02-26T00:00:00	2024-11-08T10:00:00	2	Temperatura media	20.2
156230	7	Sololá	712	San Antonio Palopó	9	San Antonio Palopo	2	Febrero	2023-02-26T00:00:00	2024-11-08T10:00:00	4	Temperatura máxima	20.4
156231	7	Sololá	712	San Antonio Palopó	9	San Antonio Palopo	2	Febrero	2023-02-26T00:00:00	2024-11-08T10:00:00	3	Temperatura mínima	18.3
156232	7	Sololá	712	San Antonio Palopó	9	San Antonio Palopo	2	Febrero	2023-02-26T00:00:00	2024-11-08T10:00:00	5	Humedad	58
156233	7	Sololá	712	San Antonio Palopó	9	San Antonio Palopo	2	Febrero	2023-02-26T00:00:00	2024-11-08T10:00:00	6	Velocidad del viento	6.4
156234	7	Sololá	712	San Antonio Palopó	9	San Antonio Palopo	2	Febrero	2023-02-26T00:00:00	2024-11-08T10:00:00	7	Dirección del viento	6.44
156235	7	Sololá	712	San Antonio Palopó	9	San Antonio Palopo	2	Febrero	2023-02-26T00:00:00	2024-11-08T10:00:00	1	Precipitación	0
156236	7	Sololá	712	San Antonio Palopó	9	San Antonio Palopo	2	Febrero	2023-02-26T00:00:00	2024-11-08T10:00:00	8	Radiación solar	641
156237	7	Sololá	712	San Antonio Palopó	9	San Antonio Palopo	2	Febrero	2023-02-26T00:00:00	2024-11-08T11:00:00	2	Temperatura media	21.1
156238	7	Sololá	712	San Antonio Palopó	9	San Antonio Palopo	2	Febrero	2023-02-26T00:00:00	2024-11-08T11:00:00	4	Temperatura máxima	21.1
156239	7	Sololá	712	San Antonio Palopó	9	San Antonio Palopo	2	Febrero	2023-02-26T00:00:00	2024-11-08T11:00:00	3	Temperatura mínima	20.2
156240	7	Sololá	712	San Antonio Palopó	9	San Antonio Palopo	2	Febrero	2023-02-26T00:00:00	2024-11-08T11:00:00	5	Humedad	54
156241	7	Sololá	712	San Antonio Palopó	9	San Antonio Palopo	2	Febrero	2023-02-26T00:00:00	2024-11-08T11:00:00	6	Velocidad del viento	3.2
156242	7	Sololá	712	San Antonio Palopó	9	San Antonio Palopo	2	Febrero	2023-02-26T00:00:00	2024-11-08T11:00:00	7	Dirección del viento	3.22
156243	7	Sololá	712	San Antonio Palopó	9	San Antonio Palopo	2	Febrero	2023-02-26T00:00:00	2024-11-08T11:00:00	1	Precipitación	0
156244	7	Sololá	712	San Antonio Palopó	9	San Antonio Palopo	2	Febrero	2023-02-26T00:00:00	2024-11-08T11:00:00	8	Radiación solar	790
156245	7	Sololá	712	San Antonio Palopó	9	San Antonio Palopo	2	Febrero	2023-02-26T00:00:00	2024-11-08T12:00:00	2	Temperatura media	22.7
156246	7	Sololá	712	San Antonio Palopó	9	San Antonio Palopo	2	Febrero	2023-02-26T00:00:00	2024-11-08T12:00:00	4	Temperatura máxima	22.7
156247	7	Sololá	712	San Antonio Palopó	9	San Antonio Palopo	2	Febrero	2023-02-26T00:00:00	2024-11-08T12:00:00	3	Temperatura mínima	21
156248	7	Sololá	712	San Antonio Palopó	9	San Antonio Palopo	2	Febrero	2023-02-26T00:00:00	2024-11-08T12:00:00	5	Humedad	66
156249	7	Sololá	712	San Antonio Palopó	9	San Antonio Palopo	2	Febrero	2023-02-26T00:00:00	2024-11-08T12:00:00	6	Velocidad del viento	4.8
156250	7	Sololá	712	San Antonio Palopó	9	San Antonio Palopo	2	Febrero	2023-02-26T00:00:00	2024-11-08T12:00:00	7	Dirección del viento	4.83
156251	7	Sololá	712	San Antonio Palopó	9	San Antonio Palopo	2	Febrero	2023-02-26T00:00:00	2024-11-08T12:00:00	1	Precipitación	0
156252	7	Sololá	712	San Antonio Palopó	9	San Antonio Palopo	2	Febrero	2023-02-26T00:00:00	2024-11-08T12:00:00	8	Radiación solar	804
156253	7	Sololá	712	San Antonio Palopó	9	San Antonio Palopo	2	Febrero	2023-02-26T00:00:00	2024-11-08T13:00:00	2	Temperatura media	23.2
156254	7	Sololá	712	San Antonio Palopó	9	San Antonio Palopo	2	Febrero	2023-02-26T00:00:00	2024-11-08T13:00:00	4	Temperatura máxima	23.3
156255	7	Sololá	712	San Antonio Palopó	9	San Antonio Palopo	2	Febrero	2023-02-26T00:00:00	2024-11-08T13:00:00	3	Temperatura mínima	22.6
156256	7	Sololá	712	San Antonio Palopó	9	San Antonio Palopo	2	Febrero	2023-02-26T00:00:00	2024-11-08T13:00:00	5	Humedad	60
156257	7	Sololá	712	San Antonio Palopó	9	San Antonio Palopo	2	Febrero	2023-02-26T00:00:00	2024-11-08T13:00:00	6	Velocidad del viento	9.7
156258	7	Sololá	712	San Antonio Palopó	9	San Antonio Palopo	2	Febrero	2023-02-26T00:00:00	2024-11-08T13:00:00	7	Dirección del viento	9.66
156259	7	Sololá	712	San Antonio Palopó	9	San Antonio Palopo	2	Febrero	2023-02-26T00:00:00	2024-11-08T13:00:00	1	Precipitación	0
156260	7	Sololá	712	San Antonio Palopó	9	San Antonio Palopo	2	Febrero	2023-02-26T00:00:00	2024-11-08T13:00:00	8	Radiación solar	871
156261	7	Sololá	712	San Antonio Palopó	9	San Antonio Palopo	2	Febrero	2023-02-26T00:00:00	2024-11-08T14:00:00	2	Temperatura media	23.8
156262	7	Sololá	712	San Antonio Palopó	9	San Antonio Palopo	2	Febrero	2023-02-26T00:00:00	2024-11-08T14:00:00	4	Temperatura máxima	24
156263	7	Sololá	712	San Antonio Palopó	9	San Antonio Palopo	2	Febrero	2023-02-26T00:00:00	2024-11-08T14:00:00	3	Temperatura mínima	23.1
156264	7	Sololá	712	San Antonio Palopó	9	San Antonio Palopo	2	Febrero	2023-02-26T00:00:00	2024-11-08T14:00:00	5	Humedad	61
156265	7	Sololá	712	San Antonio Palopó	9	San Antonio Palopo	2	Febrero	2023-02-26T00:00:00	2024-11-08T14:00:00	6	Velocidad del viento	8
156266	7	Sololá	712	San Antonio Palopó	9	San Antonio Palopo	2	Febrero	2023-02-26T00:00:00	2024-11-08T14:00:00	7	Dirección del viento	8.05
156267	7	Sololá	712	San Antonio Palopó	9	San Antonio Palopo	2	Febrero	2023-02-26T00:00:00	2024-11-08T14:00:00	1	Precipitación	0
156268	7	Sololá	712	San Antonio Palopó	9	San Antonio Palopo	2	Febrero	2023-02-26T00:00:00	2024-11-08T14:00:00	8	Radiación solar	844
156269	7	Sololá	712	San Antonio Palopó	9	San Antonio Palopo	2	Febrero	2023-02-26T00:00:00	2024-11-08T15:00:00	2	Temperatura media	22.8
156270	7	Sololá	712	San Antonio Palopó	9	San Antonio Palopo	2	Febrero	2023-02-26T00:00:00	2024-11-08T15:00:00	4	Temperatura máxima	23.8
156271	7	Sololá	712	San Antonio Palopó	9	San Antonio Palopo	2	Febrero	2023-02-26T00:00:00	2024-11-08T15:00:00	3	Temperatura mínima	22.4
156272	7	Sololá	712	San Antonio Palopó	9	San Antonio Palopo	2	Febrero	2023-02-26T00:00:00	2024-11-08T15:00:00	5	Humedad	65
156273	7	Sololá	712	San Antonio Palopó	9	San Antonio Palopo	2	Febrero	2023-02-26T00:00:00	2024-11-08T15:00:00	6	Velocidad del viento	12.9
156274	7	Sololá	712	San Antonio Palopó	9	San Antonio Palopo	2	Febrero	2023-02-26T00:00:00	2024-11-08T15:00:00	7	Dirección del viento	12.87
156275	7	Sololá	712	San Antonio Palopó	9	San Antonio Palopo	2	Febrero	2023-02-26T00:00:00	2024-11-08T15:00:00	1	Precipitación	0
156276	7	Sololá	712	San Antonio Palopó	9	San Antonio Palopo	2	Febrero	2023-02-26T00:00:00	2024-11-08T15:00:00	8	Radiación solar	735
156277	7	Sololá	712	San Antonio Palopó	9	San Antonio Palopo	2	Febrero	2023-02-26T00:00:00	2024-11-08T16:00:00	2	Temperatura media	22.4
156278	7	Sololá	712	San Antonio Palopó	9	San Antonio Palopo	2	Febrero	2023-02-26T00:00:00	2024-11-08T16:00:00	4	Temperatura máxima	23.1
156279	7	Sololá	712	San Antonio Palopó	9	San Antonio Palopo	2	Febrero	2023-02-26T00:00:00	2024-11-08T16:00:00	3	Temperatura mínima	22.4
156280	7	Sololá	712	San Antonio Palopó	9	San Antonio Palopo	2	Febrero	2023-02-26T00:00:00	2024-11-08T16:00:00	5	Humedad	67
156281	7	Sololá	712	San Antonio Palopó	9	San Antonio Palopo	2	Febrero	2023-02-26T00:00:00	2024-11-08T16:00:00	6	Velocidad del viento	11.3
156282	7	Sololá	712	San Antonio Palopó	9	San Antonio Palopo	2	Febrero	2023-02-26T00:00:00	2024-11-08T16:00:00	7	Dirección del viento	11.27
156283	7	Sololá	712	San Antonio Palopó	9	San Antonio Palopo	2	Febrero	2023-02-26T00:00:00	2024-11-08T16:00:00	1	Precipitación	0
156284	7	Sololá	712	San Antonio Palopó	9	San Antonio Palopo	2	Febrero	2023-02-26T00:00:00	2024-11-08T16:00:00	8	Radiación solar	566
156285	7	Sololá	712	San Antonio Palopó	9	San Antonio Palopo	2	Febrero	2023-02-26T00:00:00	2024-11-08T17:00:00	2	Temperatura media	20.9
156286	7	Sololá	712	San Antonio Palopó	9	San Antonio Palopo	2	Febrero	2023-02-26T00:00:00	2024-11-08T17:00:00	4	Temperatura máxima	22.7
156287	7	Sololá	712	San Antonio Palopó	9	San Antonio Palopo	2	Febrero	2023-02-26T00:00:00	2024-11-08T17:00:00	3	Temperatura mínima	20.9
156288	7	Sololá	712	San Antonio Palopó	9	San Antonio Palopo	2	Febrero	2023-02-26T00:00:00	2024-11-08T17:00:00	5	Humedad	76
156289	7	Sololá	712	San Antonio Palopó	9	San Antonio Palopo	2	Febrero	2023-02-26T00:00:00	2024-11-08T17:00:00	6	Velocidad del viento	12.9
156290	7	Sololá	712	San Antonio Palopó	9	San Antonio Palopo	2	Febrero	2023-02-26T00:00:00	2024-11-08T17:00:00	7	Dirección del viento	12.87
156291	7	Sololá	712	San Antonio Palopó	9	San Antonio Palopo	2	Febrero	2023-02-26T00:00:00	2024-11-08T17:00:00	1	Precipitación	0
156292	7	Sololá	712	San Antonio Palopó	9	San Antonio Palopo	2	Febrero	2023-02-26T00:00:00	2024-11-08T17:00:00	8	Radiación solar	327
156293	7	Sololá	712	San Antonio Palopó	9	San Antonio Palopo	2	Febrero	2023-02-26T00:00:00	2024-11-08T18:00:00	2	Temperatura media	19.9
156294	7	Sololá	712	San Antonio Palopó	9	San Antonio Palopo	2	Febrero	2023-02-26T00:00:00	2024-11-08T18:00:00	4	Temperatura máxima	20.9
156295	7	Sololá	712	San Antonio Palopó	9	San Antonio Palopo	2	Febrero	2023-02-26T00:00:00	2024-11-08T18:00:00	3	Temperatura mínima	19.9
156296	7	Sololá	712	San Antonio Palopó	9	San Antonio Palopo	2	Febrero	2023-02-26T00:00:00	2024-11-08T18:00:00	5	Humedad	76
156297	7	Sololá	712	San Antonio Palopó	9	San Antonio Palopo	2	Febrero	2023-02-26T00:00:00	2024-11-08T18:00:00	6	Velocidad del viento	8
156298	7	Sololá	712	San Antonio Palopó	9	San Antonio Palopo	2	Febrero	2023-02-26T00:00:00	2024-11-08T18:00:00	7	Dirección del viento	8.05
156299	7	Sololá	712	San Antonio Palopó	9	San Antonio Palopo	2	Febrero	2023-02-26T00:00:00	2024-11-08T18:00:00	1	Precipitación	0
156300	7	Sololá	712	San Antonio Palopó	9	San Antonio Palopo	2	Febrero	2023-02-26T00:00:00	2024-11-08T18:00:00	8	Radiación solar	89
156301	7	Sololá	712	San Antonio Palopó	9	San Antonio Palopo	2	Febrero	2023-02-26T00:00:00	2024-11-08T19:00:00	2	Temperatura media	19.3
156302	7	Sololá	712	San Antonio Palopó	9	San Antonio Palopo	2	Febrero	2023-02-26T00:00:00	2024-11-08T19:00:00	4	Temperatura máxima	19.9
156303	7	Sololá	712	San Antonio Palopó	9	San Antonio Palopo	2	Febrero	2023-02-26T00:00:00	2024-11-08T19:00:00	3	Temperatura mínima	19.3
156304	7	Sololá	712	San Antonio Palopó	9	San Antonio Palopo	2	Febrero	2023-02-26T00:00:00	2024-11-08T19:00:00	5	Humedad	79
156305	7	Sololá	712	San Antonio Palopó	9	San Antonio Palopo	2	Febrero	2023-02-26T00:00:00	2024-11-08T19:00:00	6	Velocidad del viento	3.2
156306	7	Sololá	712	San Antonio Palopó	9	San Antonio Palopo	2	Febrero	2023-02-26T00:00:00	2024-11-08T19:00:00	7	Dirección del viento	3.22
156307	7	Sololá	712	San Antonio Palopó	9	San Antonio Palopo	2	Febrero	2023-02-26T00:00:00	2024-11-08T19:00:00	1	Precipitación	0
156308	7	Sololá	712	San Antonio Palopó	9	San Antonio Palopo	2	Febrero	2023-02-26T00:00:00	2024-11-08T19:00:00	8	Radiación solar	0
156309	7	Sololá	712	San Antonio Palopó	9	San Antonio Palopo	2	Febrero	2023-02-26T00:00:00	2024-11-08T20:00:00	2	Temperatura media	18.6
156310	7	Sololá	712	San Antonio Palopó	9	San Antonio Palopo	2	Febrero	2023-02-26T00:00:00	2024-11-08T20:00:00	4	Temperatura máxima	19.3
156311	7	Sololá	712	San Antonio Palopó	9	San Antonio Palopo	2	Febrero	2023-02-26T00:00:00	2024-11-08T20:00:00	3	Temperatura mínima	18.6
156312	7	Sololá	712	San Antonio Palopó	9	San Antonio Palopo	2	Febrero	2023-02-26T00:00:00	2024-11-08T20:00:00	5	Humedad	77
156313	7	Sololá	712	San Antonio Palopó	9	San Antonio Palopo	2	Febrero	2023-02-26T00:00:00	2024-11-08T20:00:00	6	Velocidad del viento	3.2
156314	7	Sololá	712	San Antonio Palopó	9	San Antonio Palopo	2	Febrero	2023-02-26T00:00:00	2024-11-08T20:00:00	7	Dirección del viento	3.22
156315	7	Sololá	712	San Antonio Palopó	9	San Antonio Palopo	2	Febrero	2023-02-26T00:00:00	2024-11-08T20:00:00	1	Precipitación	0
156316	7	Sololá	712	San Antonio Palopó	9	San Antonio Palopo	2	Febrero	2023-02-26T00:00:00	2024-11-08T20:00:00	8	Radiación solar	0
156317	7	Sololá	712	San Antonio Palopó	9	San Antonio Palopo	2	Febrero	2023-02-26T00:00:00	2024-11-08T21:00:00	2	Temperatura media	18.3
156318	7	Sololá	712	San Antonio Palopó	9	San Antonio Palopo	2	Febrero	2023-02-26T00:00:00	2024-11-08T21:00:00	4	Temperatura máxima	18.6
156319	7	Sololá	712	San Antonio Palopó	9	San Antonio Palopo	2	Febrero	2023-02-26T00:00:00	2024-11-08T21:00:00	3	Temperatura mínima	17.8
156320	7	Sololá	712	San Antonio Palopó	9	San Antonio Palopo	2	Febrero	2023-02-26T00:00:00	2024-11-08T21:00:00	5	Humedad	63
156321	7	Sololá	712	San Antonio Palopó	9	San Antonio Palopo	2	Febrero	2023-02-26T00:00:00	2024-11-08T21:00:00	6	Velocidad del viento	6.4
156322	7	Sololá	712	San Antonio Palopó	9	San Antonio Palopo	2	Febrero	2023-02-26T00:00:00	2024-11-08T21:00:00	7	Dirección del viento	6.44
156323	7	Sololá	712	San Antonio Palopó	9	San Antonio Palopo	2	Febrero	2023-02-26T00:00:00	2024-11-08T21:00:00	1	Precipitación	0
156324	7	Sololá	712	San Antonio Palopó	9	San Antonio Palopo	2	Febrero	2023-02-26T00:00:00	2024-11-08T21:00:00	8	Radiación solar	0
156325	7	Sololá	712	San Antonio Palopó	9	San Antonio Palopo	2	Febrero	2023-02-26T00:00:00	2024-11-08T22:00:00	2	Temperatura media	17.6
156326	7	Sololá	712	San Antonio Palopó	9	San Antonio Palopo	2	Febrero	2023-02-26T00:00:00	2024-11-08T22:00:00	4	Temperatura máxima	18.3
156327	7	Sololá	712	San Antonio Palopó	9	San Antonio Palopo	2	Febrero	2023-02-26T00:00:00	2024-11-08T22:00:00	3	Temperatura mínima	17.6
156328	7	Sololá	712	San Antonio Palopó	9	San Antonio Palopo	2	Febrero	2023-02-26T00:00:00	2024-11-08T22:00:00	5	Humedad	66
156329	7	Sololá	712	San Antonio Palopó	9	San Antonio Palopo	2	Febrero	2023-02-26T00:00:00	2024-11-08T22:00:00	6	Velocidad del viento	16.1
156330	7	Sololá	712	San Antonio Palopó	9	San Antonio Palopo	2	Febrero	2023-02-26T00:00:00	2024-11-08T22:00:00	7	Dirección del viento	16.09
156331	7	Sololá	712	San Antonio Palopó	9	San Antonio Palopo	2	Febrero	2023-02-26T00:00:00	2024-11-08T22:00:00	1	Precipitación	0
156332	7	Sololá	712	San Antonio Palopó	9	San Antonio Palopo	2	Febrero	2023-02-26T00:00:00	2024-11-08T22:00:00	8	Radiación solar	0
156333	7	Sololá	712	San Antonio Palopó	9	San Antonio Palopo	2	Febrero	2023-02-26T00:00:00	2024-11-08T23:00:00	2	Temperatura media	16.9
156334	7	Sololá	712	San Antonio Palopó	9	San Antonio Palopo	2	Febrero	2023-02-26T00:00:00	2024-11-08T23:00:00	4	Temperatura máxima	17.6
156335	7	Sololá	712	San Antonio Palopó	9	San Antonio Palopo	2	Febrero	2023-02-26T00:00:00	2024-11-08T23:00:00	3	Temperatura mínima	16.9
156336	7	Sololá	712	San Antonio Palopó	9	San Antonio Palopo	2	Febrero	2023-02-26T00:00:00	2024-11-08T23:00:00	5	Humedad	68
156337	7	Sololá	712	San Antonio Palopó	9	San Antonio Palopo	2	Febrero	2023-02-26T00:00:00	2024-11-08T23:00:00	6	Velocidad del viento	14.5
156338	7	Sololá	712	San Antonio Palopó	9	San Antonio Palopo	2	Febrero	2023-02-26T00:00:00	2024-11-08T23:00:00	7	Dirección del viento	14.48
156339	7	Sololá	712	San Antonio Palopó	9	San Antonio Palopo	2	Febrero	2023-02-26T00:00:00	2024-11-08T23:00:00	1	Precipitación	0
156340	7	Sololá	712	San Antonio Palopó	9	San Antonio Palopo	2	Febrero	2023-02-26T00:00:00	2024-11-08T23:00:00	8	Radiación solar	0
156341	7	Sololá	712	San Antonio Palopó	9	San Antonio Palopo	2	Febrero	2023-02-27T00:00:00	2024-11-08T00:00:00	2	Temperatura media	16.3
156342	7	Sololá	712	San Antonio Palopó	9	San Antonio Palopo	2	Febrero	2023-02-27T00:00:00	2024-11-08T00:00:00	4	Temperatura máxima	17
156343	7	Sololá	712	San Antonio Palopó	9	San Antonio Palopo	2	Febrero	2023-02-27T00:00:00	2024-11-08T00:00:00	3	Temperatura mínima	16.2
156344	7	Sololá	712	San Antonio Palopó	9	San Antonio Palopo	2	Febrero	2023-02-27T00:00:00	2024-11-08T00:00:00	5	Humedad	70
156345	7	Sololá	712	San Antonio Palopó	9	San Antonio Palopo	2	Febrero	2023-02-27T00:00:00	2024-11-08T00:00:00	6	Velocidad del viento	12.9
156346	7	Sololá	712	San Antonio Palopó	9	San Antonio Palopo	2	Febrero	2023-02-27T00:00:00	2024-11-08T00:00:00	7	Dirección del viento	12.87
156347	7	Sololá	712	San Antonio Palopó	9	San Antonio Palopo	2	Febrero	2023-02-27T00:00:00	2024-11-08T00:00:00	1	Precipitación	0
156348	7	Sololá	712	San Antonio Palopó	9	San Antonio Palopo	2	Febrero	2023-02-27T00:00:00	2024-11-08T00:00:00	8	Radiación solar	0
156349	7	Sololá	712	San Antonio Palopó	9	San Antonio Palopo	2	Febrero	2023-02-27T00:00:00	2024-11-08T01:00:00	2	Temperatura media	15.9
156350	7	Sololá	712	San Antonio Palopó	9	San Antonio Palopo	2	Febrero	2023-02-27T00:00:00	2024-11-08T01:00:00	4	Temperatura máxima	16.3
156351	7	Sololá	712	San Antonio Palopó	9	San Antonio Palopo	2	Febrero	2023-02-27T00:00:00	2024-11-08T01:00:00	3	Temperatura mínima	15.9
156352	7	Sololá	712	San Antonio Palopó	9	San Antonio Palopo	2	Febrero	2023-02-27T00:00:00	2024-11-08T01:00:00	5	Humedad	71
156353	7	Sololá	712	San Antonio Palopó	9	San Antonio Palopo	2	Febrero	2023-02-27T00:00:00	2024-11-08T01:00:00	6	Velocidad del viento	9.7
156354	7	Sololá	712	San Antonio Palopó	9	San Antonio Palopo	2	Febrero	2023-02-27T00:00:00	2024-11-08T01:00:00	7	Dirección del viento	9.66
156355	7	Sololá	712	San Antonio Palopó	9	San Antonio Palopo	2	Febrero	2023-02-27T00:00:00	2024-11-08T01:00:00	1	Precipitación	0
156356	7	Sololá	712	San Antonio Palopó	9	San Antonio Palopo	2	Febrero	2023-02-27T00:00:00	2024-11-08T01:00:00	8	Radiación solar	0
156357	7	Sololá	712	San Antonio Palopó	9	San Antonio Palopo	2	Febrero	2023-02-27T00:00:00	2024-11-08T02:00:00	2	Temperatura media	16
156358	7	Sololá	712	San Antonio Palopó	9	San Antonio Palopo	2	Febrero	2023-02-27T00:00:00	2024-11-08T02:00:00	4	Temperatura máxima	16.1
156359	7	Sololá	712	San Antonio Palopó	9	San Antonio Palopo	2	Febrero	2023-02-27T00:00:00	2024-11-08T02:00:00	3	Temperatura mínima	15.9
156360	7	Sololá	712	San Antonio Palopó	9	San Antonio Palopo	2	Febrero	2023-02-27T00:00:00	2024-11-08T02:00:00	5	Humedad	70
156361	7	Sololá	712	San Antonio Palopó	9	San Antonio Palopo	2	Febrero	2023-02-27T00:00:00	2024-11-08T02:00:00	6	Velocidad del viento	8
156362	7	Sololá	712	San Antonio Palopó	9	San Antonio Palopo	2	Febrero	2023-02-27T00:00:00	2024-11-08T02:00:00	7	Dirección del viento	8.05
156363	7	Sololá	712	San Antonio Palopó	9	San Antonio Palopo	2	Febrero	2023-02-27T00:00:00	2024-11-08T02:00:00	1	Precipitación	0
156364	7	Sololá	712	San Antonio Palopó	9	San Antonio Palopo	2	Febrero	2023-02-27T00:00:00	2024-11-08T02:00:00	8	Radiación solar	0
156365	7	Sololá	712	San Antonio Palopó	9	San Antonio Palopo	2	Febrero	2023-02-27T00:00:00	2024-11-08T03:00:00	2	Temperatura media	15.9
156366	7	Sololá	712	San Antonio Palopó	9	San Antonio Palopo	2	Febrero	2023-02-27T00:00:00	2024-11-08T03:00:00	4	Temperatura máxima	16.1
156367	7	Sololá	712	San Antonio Palopó	9	San Antonio Palopo	2	Febrero	2023-02-27T00:00:00	2024-11-08T03:00:00	3	Temperatura mínima	15.8
156368	7	Sololá	712	San Antonio Palopó	9	San Antonio Palopo	2	Febrero	2023-02-27T00:00:00	2024-11-08T03:00:00	5	Humedad	68
156369	7	Sololá	712	San Antonio Palopó	9	San Antonio Palopo	2	Febrero	2023-02-27T00:00:00	2024-11-08T03:00:00	6	Velocidad del viento	8
156370	7	Sololá	712	San Antonio Palopó	9	San Antonio Palopo	2	Febrero	2023-02-27T00:00:00	2024-11-08T03:00:00	7	Dirección del viento	8.05
156371	7	Sololá	712	San Antonio Palopó	9	San Antonio Palopo	2	Febrero	2023-02-27T00:00:00	2024-11-08T03:00:00	1	Precipitación	0
156372	7	Sololá	712	San Antonio Palopó	9	San Antonio Palopo	2	Febrero	2023-02-27T00:00:00	2024-11-08T03:00:00	8	Radiación solar	0
156373	7	Sololá	712	San Antonio Palopó	9	San Antonio Palopo	2	Febrero	2023-02-27T00:00:00	2024-11-08T04:00:00	2	Temperatura media	14.6
156374	7	Sololá	712	San Antonio Palopó	9	San Antonio Palopo	2	Febrero	2023-02-27T00:00:00	2024-11-08T04:00:00	4	Temperatura máxima	16.1
156375	7	Sololá	712	San Antonio Palopó	9	San Antonio Palopo	2	Febrero	2023-02-27T00:00:00	2024-11-08T04:00:00	3	Temperatura mínima	14.6
156376	7	Sololá	712	San Antonio Palopó	9	San Antonio Palopo	2	Febrero	2023-02-27T00:00:00	2024-11-08T04:00:00	5	Humedad	71
156377	7	Sololá	712	San Antonio Palopó	9	San Antonio Palopo	2	Febrero	2023-02-27T00:00:00	2024-11-08T04:00:00	6	Velocidad del viento	3.2
156378	7	Sololá	712	San Antonio Palopó	9	San Antonio Palopo	2	Febrero	2023-02-27T00:00:00	2024-11-08T04:00:00	7	Dirección del viento	3.22
156379	7	Sololá	712	San Antonio Palopó	9	San Antonio Palopo	2	Febrero	2023-02-27T00:00:00	2024-11-08T04:00:00	1	Precipitación	0
156380	7	Sololá	712	San Antonio Palopó	9	San Antonio Palopo	2	Febrero	2023-02-27T00:00:00	2024-11-08T04:00:00	8	Radiación solar	0
156381	7	Sololá	712	San Antonio Palopó	9	San Antonio Palopo	2	Febrero	2023-02-27T00:00:00	2024-11-08T05:00:00	2	Temperatura media	14.1
156382	7	Sololá	712	San Antonio Palopó	9	San Antonio Palopo	2	Febrero	2023-02-27T00:00:00	2024-11-08T05:00:00	4	Temperatura máxima	14.5
156383	7	Sololá	712	San Antonio Palopó	9	San Antonio Palopo	2	Febrero	2023-02-27T00:00:00	2024-11-08T05:00:00	3	Temperatura mínima	13.9
156384	7	Sololá	712	San Antonio Palopó	9	San Antonio Palopo	2	Febrero	2023-02-27T00:00:00	2024-11-08T05:00:00	5	Humedad	72
156385	7	Sololá	712	San Antonio Palopó	9	San Antonio Palopo	2	Febrero	2023-02-27T00:00:00	2024-11-08T05:00:00	6	Velocidad del viento	4.8
156386	7	Sololá	712	San Antonio Palopó	9	San Antonio Palopo	2	Febrero	2023-02-27T00:00:00	2024-11-08T05:00:00	7	Dirección del viento	4.83
156387	7	Sololá	712	San Antonio Palopó	9	San Antonio Palopo	2	Febrero	2023-02-27T00:00:00	2024-11-08T05:00:00	1	Precipitación	0
156388	7	Sololá	712	San Antonio Palopó	9	San Antonio Palopo	2	Febrero	2023-02-27T00:00:00	2024-11-08T05:00:00	8	Radiación solar	0
156389	7	Sololá	712	San Antonio Palopó	9	San Antonio Palopo	2	Febrero	2023-02-27T00:00:00	2024-11-08T06:00:00	2	Temperatura media	13.6
156390	7	Sololá	712	San Antonio Palopó	9	San Antonio Palopo	2	Febrero	2023-02-27T00:00:00	2024-11-08T06:00:00	4	Temperatura máxima	14.1
156391	7	Sololá	712	San Antonio Palopó	9	San Antonio Palopo	2	Febrero	2023-02-27T00:00:00	2024-11-08T06:00:00	3	Temperatura mínima	13.4
156392	7	Sololá	712	San Antonio Palopó	9	San Antonio Palopo	2	Febrero	2023-02-27T00:00:00	2024-11-08T06:00:00	5	Humedad	76
156393	7	Sololá	712	San Antonio Palopó	9	San Antonio Palopo	2	Febrero	2023-02-27T00:00:00	2024-11-08T06:00:00	6	Velocidad del viento	4.8
156394	7	Sololá	712	San Antonio Palopó	9	San Antonio Palopo	2	Febrero	2023-02-27T00:00:00	2024-11-08T06:00:00	7	Dirección del viento	4.83
156395	7	Sololá	712	San Antonio Palopó	9	San Antonio Palopo	2	Febrero	2023-02-27T00:00:00	2024-11-08T06:00:00	1	Precipitación	0
156396	7	Sololá	712	San Antonio Palopó	9	San Antonio Palopo	2	Febrero	2023-02-27T00:00:00	2024-11-08T06:00:00	8	Radiación solar	0
156397	7	Sololá	712	San Antonio Palopó	9	San Antonio Palopo	2	Febrero	2023-02-27T00:00:00	2024-11-08T07:00:00	2	Temperatura media	13.7
156398	7	Sololá	712	San Antonio Palopó	9	San Antonio Palopo	2	Febrero	2023-02-27T00:00:00	2024-11-08T07:00:00	4	Temperatura máxima	13.7
156399	7	Sololá	712	San Antonio Palopó	9	San Antonio Palopo	2	Febrero	2023-02-27T00:00:00	2024-11-08T07:00:00	3	Temperatura mínima	13.4
156400	7	Sololá	712	San Antonio Palopó	9	San Antonio Palopo	2	Febrero	2023-02-27T00:00:00	2024-11-08T07:00:00	5	Humedad	74
156401	7	Sololá	712	San Antonio Palopó	9	San Antonio Palopo	2	Febrero	2023-02-27T00:00:00	2024-11-08T07:00:00	6	Velocidad del viento	4.8
156402	7	Sololá	712	San Antonio Palopó	9	San Antonio Palopo	2	Febrero	2023-02-27T00:00:00	2024-11-08T07:00:00	7	Dirección del viento	4.83
156403	7	Sololá	712	San Antonio Palopó	9	San Antonio Palopo	2	Febrero	2023-02-27T00:00:00	2024-11-08T07:00:00	1	Precipitación	0
156404	7	Sololá	712	San Antonio Palopó	9	San Antonio Palopo	2	Febrero	2023-02-27T00:00:00	2024-11-08T07:00:00	8	Radiación solar	7
156405	7	Sololá	712	San Antonio Palopó	9	San Antonio Palopo	2	Febrero	2023-02-27T00:00:00	2024-11-08T08:00:00	2	Temperatura media	14
156406	7	Sololá	712	San Antonio Palopó	9	San Antonio Palopo	2	Febrero	2023-02-27T00:00:00	2024-11-08T08:00:00	4	Temperatura máxima	14.1
156407	7	Sololá	712	San Antonio Palopó	9	San Antonio Palopo	2	Febrero	2023-02-27T00:00:00	2024-11-08T08:00:00	3	Temperatura mínima	13.6
156408	7	Sololá	712	San Antonio Palopó	9	San Antonio Palopo	2	Febrero	2023-02-27T00:00:00	2024-11-08T08:00:00	5	Humedad	77
156409	7	Sololá	712	San Antonio Palopó	9	San Antonio Palopo	2	Febrero	2023-02-27T00:00:00	2024-11-08T08:00:00	6	Velocidad del viento	4.8
156410	7	Sololá	712	San Antonio Palopó	9	San Antonio Palopo	2	Febrero	2023-02-27T00:00:00	2024-11-08T08:00:00	7	Dirección del viento	4.83
156411	7	Sololá	712	San Antonio Palopó	9	San Antonio Palopo	2	Febrero	2023-02-27T00:00:00	2024-11-08T08:00:00	1	Precipitación	0
156412	7	Sololá	712	San Antonio Palopó	9	San Antonio Palopo	2	Febrero	2023-02-27T00:00:00	2024-11-08T08:00:00	8	Radiación solar	26
156413	7	Sololá	712	San Antonio Palopó	9	San Antonio Palopo	2	Febrero	2023-02-27T00:00:00	2024-11-08T09:00:00	2	Temperatura media	17.8
156414	7	Sololá	712	San Antonio Palopó	9	San Antonio Palopo	2	Febrero	2023-02-27T00:00:00	2024-11-08T09:00:00	4	Temperatura máxima	17.8
156415	7	Sololá	712	San Antonio Palopó	9	San Antonio Palopo	2	Febrero	2023-02-27T00:00:00	2024-11-08T09:00:00	3	Temperatura mínima	13.9
156416	7	Sololá	712	San Antonio Palopó	9	San Antonio Palopo	2	Febrero	2023-02-27T00:00:00	2024-11-08T09:00:00	5	Humedad	67
156417	7	Sololá	712	San Antonio Palopó	9	San Antonio Palopo	2	Febrero	2023-02-27T00:00:00	2024-11-08T09:00:00	6	Velocidad del viento	3.2
156418	7	Sololá	712	San Antonio Palopó	9	San Antonio Palopo	2	Febrero	2023-02-27T00:00:00	2024-11-08T09:00:00	7	Dirección del viento	3.22
156419	7	Sololá	712	San Antonio Palopó	9	San Antonio Palopo	2	Febrero	2023-02-27T00:00:00	2024-11-08T09:00:00	1	Precipitación	0
156420	7	Sololá	712	San Antonio Palopó	9	San Antonio Palopo	2	Febrero	2023-02-27T00:00:00	2024-11-08T09:00:00	8	Radiación solar	383
156421	7	Sololá	712	San Antonio Palopó	9	San Antonio Palopo	2	Febrero	2023-02-27T00:00:00	2024-11-08T10:00:00	2	Temperatura media	18.3
156422	7	Sololá	712	San Antonio Palopó	9	San Antonio Palopo	2	Febrero	2023-02-27T00:00:00	2024-11-08T10:00:00	4	Temperatura máxima	18.3
156423	7	Sololá	712	San Antonio Palopó	9	San Antonio Palopo	2	Febrero	2023-02-27T00:00:00	2024-11-08T10:00:00	3	Temperatura mínima	17.4
156424	7	Sololá	712	San Antonio Palopó	9	San Antonio Palopo	2	Febrero	2023-02-27T00:00:00	2024-11-08T10:00:00	5	Humedad	69
156425	7	Sololá	712	San Antonio Palopó	9	San Antonio Palopo	2	Febrero	2023-02-27T00:00:00	2024-11-08T10:00:00	6	Velocidad del viento	3.2
156426	7	Sololá	712	San Antonio Palopó	9	San Antonio Palopo	2	Febrero	2023-02-27T00:00:00	2024-11-08T10:00:00	7	Dirección del viento	3.22
156427	7	Sololá	712	San Antonio Palopó	9	San Antonio Palopo	2	Febrero	2023-02-27T00:00:00	2024-11-08T10:00:00	1	Precipitación	0
156428	7	Sololá	712	San Antonio Palopó	9	San Antonio Palopo	2	Febrero	2023-02-27T00:00:00	2024-11-08T10:00:00	8	Radiación solar	634
156429	7	Sololá	712	San Antonio Palopó	9	San Antonio Palopo	2	Febrero	2023-02-27T00:00:00	2024-11-08T11:00:00	2	Temperatura media	20.8
156430	7	Sololá	712	San Antonio Palopó	9	San Antonio Palopo	2	Febrero	2023-02-27T00:00:00	2024-11-08T11:00:00	4	Temperatura máxima	20.9
156431	7	Sololá	712	San Antonio Palopó	9	San Antonio Palopo	2	Febrero	2023-02-27T00:00:00	2024-11-08T11:00:00	3	Temperatura mínima	18.3
156432	7	Sololá	712	San Antonio Palopó	9	San Antonio Palopo	2	Febrero	2023-02-27T00:00:00	2024-11-08T11:00:00	5	Humedad	55
156433	7	Sololá	712	San Antonio Palopó	9	San Antonio Palopo	2	Febrero	2023-02-27T00:00:00	2024-11-08T11:00:00	6	Velocidad del viento	3.2
156434	7	Sololá	712	San Antonio Palopó	9	San Antonio Palopo	2	Febrero	2023-02-27T00:00:00	2024-11-08T11:00:00	7	Dirección del viento	3.22
156435	7	Sololá	712	San Antonio Palopó	9	San Antonio Palopo	2	Febrero	2023-02-27T00:00:00	2024-11-08T11:00:00	1	Precipitación	0
156436	7	Sololá	712	San Antonio Palopó	9	San Antonio Palopo	2	Febrero	2023-02-27T00:00:00	2024-11-08T11:00:00	8	Radiación solar	790
156437	7	Sololá	712	San Antonio Palopó	9	San Antonio Palopo	2	Febrero	2023-02-27T00:00:00	2024-11-08T12:00:00	2	Temperatura media	22.2
156438	7	Sololá	712	San Antonio Palopó	9	San Antonio Palopo	2	Febrero	2023-02-27T00:00:00	2024-11-08T12:00:00	4	Temperatura máxima	22.2
156439	7	Sololá	712	San Antonio Palopó	9	San Antonio Palopo	2	Febrero	2023-02-27T00:00:00	2024-11-08T12:00:00	3	Temperatura mínima	20.8
156440	7	Sololá	712	San Antonio Palopó	9	San Antonio Palopo	2	Febrero	2023-02-27T00:00:00	2024-11-08T12:00:00	5	Humedad	58
156441	7	Sololá	712	San Antonio Palopó	9	San Antonio Palopo	2	Febrero	2023-02-27T00:00:00	2024-11-08T12:00:00	6	Velocidad del viento	3.2
156442	7	Sololá	712	San Antonio Palopó	9	San Antonio Palopo	2	Febrero	2023-02-27T00:00:00	2024-11-08T12:00:00	7	Dirección del viento	3.22
156443	7	Sololá	712	San Antonio Palopó	9	San Antonio Palopo	2	Febrero	2023-02-27T00:00:00	2024-11-08T12:00:00	1	Precipitación	0
156444	7	Sololá	712	San Antonio Palopó	9	San Antonio Palopo	2	Febrero	2023-02-27T00:00:00	2024-11-08T12:00:00	8	Radiación solar	813
156445	7	Sololá	712	San Antonio Palopó	9	San Antonio Palopo	2	Febrero	2023-02-27T00:00:00	2024-11-08T13:00:00	2	Temperatura media	22.2
156446	7	Sololá	712	San Antonio Palopó	9	San Antonio Palopo	2	Febrero	2023-02-27T00:00:00	2024-11-08T13:00:00	4	Temperatura máxima	23.3
156447	7	Sololá	712	San Antonio Palopó	9	San Antonio Palopo	2	Febrero	2023-02-27T00:00:00	2024-11-08T13:00:00	3	Temperatura mínima	22.1
156448	7	Sololá	712	San Antonio Palopó	9	San Antonio Palopo	2	Febrero	2023-02-27T00:00:00	2024-11-08T13:00:00	5	Humedad	59
156449	7	Sololá	712	San Antonio Palopó	9	San Antonio Palopo	2	Febrero	2023-02-27T00:00:00	2024-11-08T13:00:00	6	Velocidad del viento	4.8
156450	7	Sololá	712	San Antonio Palopó	9	San Antonio Palopo	2	Febrero	2023-02-27T00:00:00	2024-11-08T13:00:00	7	Dirección del viento	4.83
156451	7	Sololá	712	San Antonio Palopó	9	San Antonio Palopo	2	Febrero	2023-02-27T00:00:00	2024-11-08T13:00:00	1	Precipitación	0
156452	7	Sololá	712	San Antonio Palopó	9	San Antonio Palopo	2	Febrero	2023-02-27T00:00:00	2024-11-08T13:00:00	8	Radiación solar	886
156453	7	Sololá	712	San Antonio Palopó	9	San Antonio Palopo	2	Febrero	2023-02-27T00:00:00	2024-11-08T14:00:00	2	Temperatura media	23.4
156454	7	Sololá	712	San Antonio Palopó	9	San Antonio Palopo	2	Febrero	2023-02-27T00:00:00	2024-11-08T14:00:00	4	Temperatura máxima	23.8
156455	7	Sololá	712	San Antonio Palopó	9	San Antonio Palopo	2	Febrero	2023-02-27T00:00:00	2024-11-08T14:00:00	3	Temperatura mínima	21.9
156456	7	Sololá	712	San Antonio Palopó	9	San Antonio Palopo	2	Febrero	2023-02-27T00:00:00	2024-11-08T14:00:00	5	Humedad	55
156457	7	Sololá	712	San Antonio Palopó	9	San Antonio Palopo	2	Febrero	2023-02-27T00:00:00	2024-11-08T14:00:00	6	Velocidad del viento	8
156458	7	Sololá	712	San Antonio Palopó	9	San Antonio Palopo	2	Febrero	2023-02-27T00:00:00	2024-11-08T14:00:00	7	Dirección del viento	8.05
156459	7	Sololá	712	San Antonio Palopó	9	San Antonio Palopo	2	Febrero	2023-02-27T00:00:00	2024-11-08T14:00:00	1	Precipitación	0
156460	7	Sololá	712	San Antonio Palopó	9	San Antonio Palopo	2	Febrero	2023-02-27T00:00:00	2024-11-08T14:00:00	8	Radiación solar	827
156461	7	Sololá	712	San Antonio Palopó	9	San Antonio Palopo	2	Febrero	2023-02-27T00:00:00	2024-11-08T15:00:00	2	Temperatura media	22.7
156462	7	Sololá	712	San Antonio Palopó	9	San Antonio Palopo	2	Febrero	2023-02-27T00:00:00	2024-11-08T15:00:00	4	Temperatura máxima	23.4
156463	7	Sololá	712	San Antonio Palopó	9	San Antonio Palopo	2	Febrero	2023-02-27T00:00:00	2024-11-08T15:00:00	3	Temperatura mínima	22.7
156464	7	Sololá	712	San Antonio Palopó	9	San Antonio Palopo	2	Febrero	2023-02-27T00:00:00	2024-11-08T15:00:00	5	Humedad	62
156465	7	Sololá	712	San Antonio Palopó	9	San Antonio Palopo	2	Febrero	2023-02-27T00:00:00	2024-11-08T15:00:00	6	Velocidad del viento	12.9
156466	7	Sololá	712	San Antonio Palopó	9	San Antonio Palopo	2	Febrero	2023-02-27T00:00:00	2024-11-08T15:00:00	7	Dirección del viento	12.87
156467	7	Sololá	712	San Antonio Palopó	9	San Antonio Palopo	2	Febrero	2023-02-27T00:00:00	2024-11-08T15:00:00	1	Precipitación	0
156468	7	Sololá	712	San Antonio Palopó	9	San Antonio Palopo	2	Febrero	2023-02-27T00:00:00	2024-11-08T15:00:00	8	Radiación solar	706
156469	7	Sololá	712	San Antonio Palopó	9	San Antonio Palopo	2	Febrero	2023-02-27T00:00:00	2024-11-08T16:00:00	2	Temperatura media	22.4
156470	7	Sololá	712	San Antonio Palopó	9	San Antonio Palopo	2	Febrero	2023-02-27T00:00:00	2024-11-08T16:00:00	4	Temperatura máxima	23.2
156471	7	Sololá	712	San Antonio Palopó	9	San Antonio Palopo	2	Febrero	2023-02-27T00:00:00	2024-11-08T16:00:00	3	Temperatura mínima	22.2
156472	7	Sololá	712	San Antonio Palopó	9	San Antonio Palopo	2	Febrero	2023-02-27T00:00:00	2024-11-08T16:00:00	5	Humedad	65
156473	7	Sololá	712	San Antonio Palopó	9	San Antonio Palopo	2	Febrero	2023-02-27T00:00:00	2024-11-08T16:00:00	6	Velocidad del viento	12.9
156474	7	Sololá	712	San Antonio Palopó	9	San Antonio Palopo	2	Febrero	2023-02-27T00:00:00	2024-11-08T16:00:00	7	Dirección del viento	12.87
156475	7	Sololá	712	San Antonio Palopó	9	San Antonio Palopo	2	Febrero	2023-02-27T00:00:00	2024-11-08T16:00:00	1	Precipitación	0
156476	7	Sololá	712	San Antonio Palopó	9	San Antonio Palopo	2	Febrero	2023-02-27T00:00:00	2024-11-08T16:00:00	8	Radiación solar	520
156477	7	Sololá	712	San Antonio Palopó	9	San Antonio Palopo	2	Febrero	2023-02-27T00:00:00	2024-11-08T17:00:00	2	Temperatura media	21.9
156478	7	Sololá	712	San Antonio Palopó	9	San Antonio Palopo	2	Febrero	2023-02-27T00:00:00	2024-11-08T17:00:00	4	Temperatura máxima	22.6
156479	7	Sololá	712	San Antonio Palopó	9	San Antonio Palopo	2	Febrero	2023-02-27T00:00:00	2024-11-08T17:00:00	3	Temperatura mínima	21.5
156480	7	Sololá	712	San Antonio Palopó	9	San Antonio Palopo	2	Febrero	2023-02-27T00:00:00	2024-11-08T17:00:00	5	Humedad	70
156481	7	Sololá	712	San Antonio Palopó	9	San Antonio Palopo	2	Febrero	2023-02-27T00:00:00	2024-11-08T17:00:00	6	Velocidad del viento	12.9
156482	7	Sololá	712	San Antonio Palopó	9	San Antonio Palopo	2	Febrero	2023-02-27T00:00:00	2024-11-08T17:00:00	7	Dirección del viento	12.87
156483	7	Sololá	712	San Antonio Palopó	9	San Antonio Palopo	2	Febrero	2023-02-27T00:00:00	2024-11-08T17:00:00	1	Precipitación	0
156484	7	Sololá	712	San Antonio Palopó	9	San Antonio Palopo	2	Febrero	2023-02-27T00:00:00	2024-11-08T17:00:00	8	Radiación solar	261
156485	7	Sololá	712	San Antonio Palopó	9	San Antonio Palopo	2	Febrero	2023-02-27T00:00:00	2024-11-08T18:00:00	2	Temperatura media	20.3
156486	7	Sololá	712	San Antonio Palopó	9	San Antonio Palopo	2	Febrero	2023-02-27T00:00:00	2024-11-08T18:00:00	4	Temperatura máxima	22
156487	7	Sololá	712	San Antonio Palopó	9	San Antonio Palopo	2	Febrero	2023-02-27T00:00:00	2024-11-08T18:00:00	3	Temperatura mínima	20.3
156488	7	Sololá	712	San Antonio Palopó	9	San Antonio Palopo	2	Febrero	2023-02-27T00:00:00	2024-11-08T18:00:00	5	Humedad	77
156489	7	Sololá	712	San Antonio Palopó	9	San Antonio Palopo	2	Febrero	2023-02-27T00:00:00	2024-11-08T18:00:00	6	Velocidad del viento	6.4
156490	7	Sololá	712	San Antonio Palopó	9	San Antonio Palopo	2	Febrero	2023-02-27T00:00:00	2024-11-08T18:00:00	7	Dirección del viento	6.44
156491	7	Sololá	712	San Antonio Palopó	9	San Antonio Palopo	2	Febrero	2023-02-27T00:00:00	2024-11-08T18:00:00	1	Precipitación	0
156492	7	Sololá	712	San Antonio Palopó	9	San Antonio Palopo	2	Febrero	2023-02-27T00:00:00	2024-11-08T18:00:00	8	Radiación solar	80
156493	7	Sololá	712	San Antonio Palopó	9	San Antonio Palopo	2	Febrero	2023-02-27T00:00:00	2024-11-08T19:00:00	2	Temperatura media	19.6
156494	7	Sololá	712	San Antonio Palopó	9	San Antonio Palopo	2	Febrero	2023-02-27T00:00:00	2024-11-08T19:00:00	4	Temperatura máxima	20.4
156495	7	Sololá	712	San Antonio Palopó	9	San Antonio Palopo	2	Febrero	2023-02-27T00:00:00	2024-11-08T19:00:00	3	Temperatura mínima	19.6
156496	7	Sololá	712	San Antonio Palopó	9	San Antonio Palopo	2	Febrero	2023-02-27T00:00:00	2024-11-08T19:00:00	5	Humedad	78
156497	7	Sololá	712	San Antonio Palopó	9	San Antonio Palopo	2	Febrero	2023-02-27T00:00:00	2024-11-08T19:00:00	6	Velocidad del viento	3.2
156498	7	Sololá	712	San Antonio Palopó	9	San Antonio Palopo	2	Febrero	2023-02-27T00:00:00	2024-11-08T19:00:00	7	Dirección del viento	3.22
156499	7	Sololá	712	San Antonio Palopó	9	San Antonio Palopo	2	Febrero	2023-02-27T00:00:00	2024-11-08T19:00:00	1	Precipitación	0
156500	7	Sololá	712	San Antonio Palopó	9	San Antonio Palopo	2	Febrero	2023-02-27T00:00:00	2024-11-08T19:00:00	8	Radiación solar	0
156501	7	Sololá	712	San Antonio Palopó	9	San Antonio Palopo	2	Febrero	2023-02-27T00:00:00	2024-11-08T20:00:00	2	Temperatura media	18.9
156502	7	Sololá	712	San Antonio Palopó	9	San Antonio Palopo	2	Febrero	2023-02-27T00:00:00	2024-11-08T20:00:00	4	Temperatura máxima	19.6
156503	7	Sololá	712	San Antonio Palopó	9	San Antonio Palopo	2	Febrero	2023-02-27T00:00:00	2024-11-08T20:00:00	3	Temperatura mínima	18.8
156504	7	Sololá	712	San Antonio Palopó	9	San Antonio Palopo	2	Febrero	2023-02-27T00:00:00	2024-11-08T20:00:00	5	Humedad	78
156505	7	Sololá	712	San Antonio Palopó	9	San Antonio Palopo	2	Febrero	2023-02-27T00:00:00	2024-11-08T20:00:00	6	Velocidad del viento	1.6
156506	7	Sololá	712	San Antonio Palopó	9	San Antonio Palopo	2	Febrero	2023-02-27T00:00:00	2024-11-08T20:00:00	7	Dirección del viento	1.61
156507	7	Sololá	712	San Antonio Palopó	9	San Antonio Palopo	2	Febrero	2023-02-27T00:00:00	2024-11-08T20:00:00	1	Precipitación	0
156508	7	Sololá	712	San Antonio Palopó	9	San Antonio Palopo	2	Febrero	2023-02-27T00:00:00	2024-11-08T20:00:00	8	Radiación solar	0
156509	7	Sololá	712	San Antonio Palopó	9	San Antonio Palopo	2	Febrero	2023-02-27T00:00:00	2024-11-08T21:00:00	2	Temperatura media	18.1
156510	7	Sololá	712	San Antonio Palopó	9	San Antonio Palopo	2	Febrero	2023-02-27T00:00:00	2024-11-08T21:00:00	4	Temperatura máxima	19.1
156511	7	Sololá	712	San Antonio Palopó	9	San Antonio Palopo	2	Febrero	2023-02-27T00:00:00	2024-11-08T21:00:00	3	Temperatura mínima	18.1
156512	7	Sololá	712	San Antonio Palopó	9	San Antonio Palopo	2	Febrero	2023-02-27T00:00:00	2024-11-08T21:00:00	5	Humedad	77
156513	7	Sololá	712	San Antonio Palopó	9	San Antonio Palopo	2	Febrero	2023-02-27T00:00:00	2024-11-08T21:00:00	6	Velocidad del viento	3.2
156514	7	Sololá	712	San Antonio Palopó	9	San Antonio Palopo	2	Febrero	2023-02-27T00:00:00	2024-11-08T21:00:00	7	Dirección del viento	3.22
156515	7	Sololá	712	San Antonio Palopó	9	San Antonio Palopo	2	Febrero	2023-02-27T00:00:00	2024-11-08T21:00:00	1	Precipitación	0
156516	7	Sololá	712	San Antonio Palopó	9	San Antonio Palopo	2	Febrero	2023-02-27T00:00:00	2024-11-08T21:00:00	8	Radiación solar	0
156517	7	Sololá	712	San Antonio Palopó	9	San Antonio Palopo	2	Febrero	2023-02-27T00:00:00	2024-11-08T22:00:00	2	Temperatura media	17.9
156518	7	Sololá	712	San Antonio Palopó	9	San Antonio Palopo	2	Febrero	2023-02-27T00:00:00	2024-11-08T22:00:00	4	Temperatura máxima	18.3
156519	7	Sololá	712	San Antonio Palopó	9	San Antonio Palopo	2	Febrero	2023-02-27T00:00:00	2024-11-08T22:00:00	3	Temperatura mínima	17.9
156520	7	Sololá	712	San Antonio Palopó	9	San Antonio Palopo	2	Febrero	2023-02-27T00:00:00	2024-11-08T22:00:00	5	Humedad	78
156521	7	Sololá	712	San Antonio Palopó	9	San Antonio Palopo	2	Febrero	2023-02-27T00:00:00	2024-11-08T22:00:00	6	Velocidad del viento	6.4
156522	7	Sololá	712	San Antonio Palopó	9	San Antonio Palopo	2	Febrero	2023-02-27T00:00:00	2024-11-08T22:00:00	7	Dirección del viento	6.44
156523	7	Sololá	712	San Antonio Palopó	9	San Antonio Palopo	2	Febrero	2023-02-27T00:00:00	2024-11-08T22:00:00	1	Precipitación	0
156524	7	Sololá	712	San Antonio Palopó	9	San Antonio Palopo	2	Febrero	2023-02-27T00:00:00	2024-11-08T22:00:00	8	Radiación solar	0
156525	7	Sololá	712	San Antonio Palopó	9	San Antonio Palopo	2	Febrero	2023-02-27T00:00:00	2024-11-08T23:00:00	2	Temperatura media	18.1
156526	7	Sololá	712	San Antonio Palopó	9	San Antonio Palopo	2	Febrero	2023-02-27T00:00:00	2024-11-08T23:00:00	4	Temperatura máxima	18.3
156527	7	Sololá	712	San Antonio Palopó	9	San Antonio Palopo	2	Febrero	2023-02-27T00:00:00	2024-11-08T23:00:00	3	Temperatura mínima	17.8
156528	7	Sololá	712	San Antonio Palopó	9	San Antonio Palopo	2	Febrero	2023-02-27T00:00:00	2024-11-08T23:00:00	5	Humedad	80
156529	7	Sololá	712	San Antonio Palopó	9	San Antonio Palopo	2	Febrero	2023-02-27T00:00:00	2024-11-08T23:00:00	6	Velocidad del viento	3.2
156530	7	Sololá	712	San Antonio Palopó	9	San Antonio Palopo	2	Febrero	2023-02-27T00:00:00	2024-11-08T23:00:00	7	Dirección del viento	3.22
156531	7	Sololá	712	San Antonio Palopó	9	San Antonio Palopo	2	Febrero	2023-02-27T00:00:00	2024-11-08T23:00:00	1	Precipitación	0
156532	7	Sololá	712	San Antonio Palopó	9	San Antonio Palopo	2	Febrero	2023-02-27T00:00:00	2024-11-08T23:00:00	8	Radiación solar	0
156533	7	Sololá	712	San Antonio Palopó	9	San Antonio Palopo	2	Febrero	2023-02-28T00:00:00	2024-11-08T00:00:00	2	Temperatura media	17.6
156534	7	Sololá	712	San Antonio Palopó	9	San Antonio Palopo	2	Febrero	2023-02-28T00:00:00	2024-11-08T00:00:00	4	Temperatura máxima	18.1
156535	7	Sololá	712	San Antonio Palopó	9	San Antonio Palopo	2	Febrero	2023-02-28T00:00:00	2024-11-08T00:00:00	3	Temperatura mínima	17.3
156536	7	Sololá	712	San Antonio Palopó	9	San Antonio Palopo	2	Febrero	2023-02-28T00:00:00	2024-11-08T00:00:00	5	Humedad	73
156537	7	Sololá	712	San Antonio Palopó	9	San Antonio Palopo	2	Febrero	2023-02-28T00:00:00	2024-11-08T00:00:00	6	Velocidad del viento	3.2
156538	7	Sololá	712	San Antonio Palopó	9	San Antonio Palopo	2	Febrero	2023-02-28T00:00:00	2024-11-08T00:00:00	7	Dirección del viento	3.22
156539	7	Sololá	712	San Antonio Palopó	9	San Antonio Palopo	2	Febrero	2023-02-28T00:00:00	2024-11-08T00:00:00	1	Precipitación	0
156540	7	Sololá	712	San Antonio Palopó	9	San Antonio Palopo	2	Febrero	2023-02-28T00:00:00	2024-11-08T00:00:00	8	Radiación solar	0
156541	7	Sololá	712	San Antonio Palopó	9	San Antonio Palopo	2	Febrero	2023-02-28T00:00:00	2024-11-08T01:00:00	2	Temperatura media	16.3
156542	7	Sololá	712	San Antonio Palopó	9	San Antonio Palopo	2	Febrero	2023-02-28T00:00:00	2024-11-08T01:00:00	4	Temperatura máxima	17.7
156543	7	Sololá	712	San Antonio Palopó	9	San Antonio Palopo	2	Febrero	2023-02-28T00:00:00	2024-11-08T01:00:00	3	Temperatura mínima	16.3
156544	7	Sololá	712	San Antonio Palopó	9	San Antonio Palopo	2	Febrero	2023-02-28T00:00:00	2024-11-08T01:00:00	5	Humedad	81
156545	7	Sololá	712	San Antonio Palopó	9	San Antonio Palopo	2	Febrero	2023-02-28T00:00:00	2024-11-08T01:00:00	6	Velocidad del viento	3.2
156546	7	Sololá	712	San Antonio Palopó	9	San Antonio Palopo	2	Febrero	2023-02-28T00:00:00	2024-11-08T01:00:00	7	Dirección del viento	3.22
156547	7	Sololá	712	San Antonio Palopó	9	San Antonio Palopo	2	Febrero	2023-02-28T00:00:00	2024-11-08T01:00:00	1	Precipitación	0
156548	7	Sololá	712	San Antonio Palopó	9	San Antonio Palopo	2	Febrero	2023-02-28T00:00:00	2024-11-08T01:00:00	8	Radiación solar	0
156549	7	Sololá	712	San Antonio Palopó	9	San Antonio Palopo	2	Febrero	2023-02-28T00:00:00	2024-11-08T02:00:00	2	Temperatura media	16.5
156550	7	Sololá	712	San Antonio Palopó	9	San Antonio Palopo	2	Febrero	2023-02-28T00:00:00	2024-11-08T02:00:00	4	Temperatura máxima	16.6
156551	7	Sololá	712	San Antonio Palopó	9	San Antonio Palopo	2	Febrero	2023-02-28T00:00:00	2024-11-08T02:00:00	3	Temperatura mínima	16.1
156552	7	Sololá	712	San Antonio Palopó	9	San Antonio Palopo	2	Febrero	2023-02-28T00:00:00	2024-11-08T02:00:00	5	Humedad	74
156553	7	Sololá	712	San Antonio Palopó	9	San Antonio Palopo	2	Febrero	2023-02-28T00:00:00	2024-11-08T02:00:00	6	Velocidad del viento	3.2
156554	7	Sololá	712	San Antonio Palopó	9	San Antonio Palopo	2	Febrero	2023-02-28T00:00:00	2024-11-08T02:00:00	7	Dirección del viento	3.22
156555	7	Sololá	712	San Antonio Palopó	9	San Antonio Palopo	2	Febrero	2023-02-28T00:00:00	2024-11-08T02:00:00	1	Precipitación	0
156556	7	Sololá	712	San Antonio Palopó	9	San Antonio Palopo	2	Febrero	2023-02-28T00:00:00	2024-11-08T02:00:00	8	Radiación solar	0
156557	7	Sololá	712	San Antonio Palopó	9	San Antonio Palopo	2	Febrero	2023-02-28T00:00:00	2024-11-08T03:00:00	2	Temperatura media	15.6
156558	7	Sololá	712	San Antonio Palopó	9	San Antonio Palopo	2	Febrero	2023-02-28T00:00:00	2024-11-08T03:00:00	4	Temperatura máxima	16.6
156559	7	Sololá	712	San Antonio Palopó	9	San Antonio Palopo	2	Febrero	2023-02-28T00:00:00	2024-11-08T03:00:00	3	Temperatura mínima	15.6
156560	7	Sololá	712	San Antonio Palopó	9	San Antonio Palopo	2	Febrero	2023-02-28T00:00:00	2024-11-08T03:00:00	5	Humedad	80
156561	7	Sololá	712	San Antonio Palopó	9	San Antonio Palopo	2	Febrero	2023-02-28T00:00:00	2024-11-08T03:00:00	6	Velocidad del viento	3.2
156562	7	Sololá	712	San Antonio Palopó	9	San Antonio Palopo	2	Febrero	2023-02-28T00:00:00	2024-11-08T03:00:00	7	Dirección del viento	3.22
156563	7	Sololá	712	San Antonio Palopó	9	San Antonio Palopo	2	Febrero	2023-02-28T00:00:00	2024-11-08T03:00:00	1	Precipitación	0
156564	7	Sololá	712	San Antonio Palopó	9	San Antonio Palopo	2	Febrero	2023-02-28T00:00:00	2024-11-08T03:00:00	8	Radiación solar	0
156565	7	Sololá	712	San Antonio Palopó	9	San Antonio Palopo	2	Febrero	2023-02-28T00:00:00	2024-11-08T04:00:00	2	Temperatura media	15.9
156566	7	Sololá	712	San Antonio Palopó	9	San Antonio Palopo	2	Febrero	2023-02-28T00:00:00	2024-11-08T04:00:00	4	Temperatura máxima	16
156567	7	Sololá	712	San Antonio Palopó	9	San Antonio Palopo	2	Febrero	2023-02-28T00:00:00	2024-11-08T04:00:00	3	Temperatura mínima	15.4
156568	7	Sololá	712	San Antonio Palopó	9	San Antonio Palopo	2	Febrero	2023-02-28T00:00:00	2024-11-08T04:00:00	5	Humedad	76
156569	7	Sololá	712	San Antonio Palopó	9	San Antonio Palopo	2	Febrero	2023-02-28T00:00:00	2024-11-08T04:00:00	6	Velocidad del viento	3.2
156570	7	Sololá	712	San Antonio Palopó	9	San Antonio Palopo	2	Febrero	2023-02-28T00:00:00	2024-11-08T04:00:00	7	Dirección del viento	3.22
156571	7	Sololá	712	San Antonio Palopó	9	San Antonio Palopo	2	Febrero	2023-02-28T00:00:00	2024-11-08T04:00:00	1	Precipitación	0
156572	7	Sololá	712	San Antonio Palopó	9	San Antonio Palopo	2	Febrero	2023-02-28T00:00:00	2024-11-08T04:00:00	8	Radiación solar	0
156573	7	Sololá	712	San Antonio Palopó	9	San Antonio Palopo	2	Febrero	2023-02-28T00:00:00	2024-11-08T05:00:00	2	Temperatura media	15.6
156574	7	Sololá	712	San Antonio Palopó	9	San Antonio Palopo	2	Febrero	2023-02-28T00:00:00	2024-11-08T05:00:00	4	Temperatura máxima	15.9
156575	7	Sololá	712	San Antonio Palopó	9	San Antonio Palopo	2	Febrero	2023-02-28T00:00:00	2024-11-08T05:00:00	3	Temperatura mínima	15.6
156576	7	Sololá	712	San Antonio Palopó	9	San Antonio Palopo	2	Febrero	2023-02-28T00:00:00	2024-11-08T05:00:00	5	Humedad	75
156577	7	Sololá	712	San Antonio Palopó	9	San Antonio Palopo	2	Febrero	2023-02-28T00:00:00	2024-11-08T05:00:00	6	Velocidad del viento	6.4
156578	7	Sololá	712	San Antonio Palopó	9	San Antonio Palopo	2	Febrero	2023-02-28T00:00:00	2024-11-08T05:00:00	7	Dirección del viento	6.44
156579	7	Sololá	712	San Antonio Palopó	9	San Antonio Palopo	2	Febrero	2023-02-28T00:00:00	2024-11-08T05:00:00	1	Precipitación	0
156580	7	Sololá	712	San Antonio Palopó	9	San Antonio Palopo	2	Febrero	2023-02-28T00:00:00	2024-11-08T05:00:00	8	Radiación solar	0
156581	7	Sololá	712	San Antonio Palopó	9	San Antonio Palopo	2	Febrero	2023-02-28T00:00:00	2024-11-08T06:00:00	2	Temperatura media	15.1
156582	7	Sololá	712	San Antonio Palopó	9	San Antonio Palopo	2	Febrero	2023-02-28T00:00:00	2024-11-08T06:00:00	4	Temperatura máxima	15.6
156583	7	Sololá	712	San Antonio Palopó	9	San Antonio Palopo	2	Febrero	2023-02-28T00:00:00	2024-11-08T06:00:00	3	Temperatura mínima	15.1
156584	7	Sololá	712	San Antonio Palopó	9	San Antonio Palopo	2	Febrero	2023-02-28T00:00:00	2024-11-08T06:00:00	5	Humedad	77
156585	7	Sololá	712	San Antonio Palopó	9	San Antonio Palopo	2	Febrero	2023-02-28T00:00:00	2024-11-08T06:00:00	6	Velocidad del viento	3.2
156586	7	Sololá	712	San Antonio Palopó	9	San Antonio Palopo	2	Febrero	2023-02-28T00:00:00	2024-11-08T06:00:00	7	Dirección del viento	3.22
156587	7	Sololá	712	San Antonio Palopó	9	San Antonio Palopo	2	Febrero	2023-02-28T00:00:00	2024-11-08T06:00:00	1	Precipitación	0
156588	7	Sololá	712	San Antonio Palopó	9	San Antonio Palopo	2	Febrero	2023-02-28T00:00:00	2024-11-08T06:00:00	8	Radiación solar	0
156589	7	Sololá	712	San Antonio Palopó	9	San Antonio Palopo	2	Febrero	2023-02-28T00:00:00	2024-11-08T07:00:00	2	Temperatura media	14.7
156590	7	Sololá	712	San Antonio Palopó	9	San Antonio Palopo	2	Febrero	2023-02-28T00:00:00	2024-11-08T07:00:00	4	Temperatura máxima	15.1
156591	7	Sololá	712	San Antonio Palopó	9	San Antonio Palopo	2	Febrero	2023-02-28T00:00:00	2024-11-08T07:00:00	3	Temperatura mínima	14.3
156592	7	Sololá	712	San Antonio Palopó	9	San Antonio Palopo	2	Febrero	2023-02-28T00:00:00	2024-11-08T07:00:00	5	Humedad	79
156593	7	Sololá	712	San Antonio Palopó	9	San Antonio Palopo	2	Febrero	2023-02-28T00:00:00	2024-11-08T07:00:00	6	Velocidad del viento	4.8
156594	7	Sololá	712	San Antonio Palopó	9	San Antonio Palopo	2	Febrero	2023-02-28T00:00:00	2024-11-08T07:00:00	7	Dirección del viento	4.83
156595	7	Sololá	712	San Antonio Palopó	9	San Antonio Palopo	2	Febrero	2023-02-28T00:00:00	2024-11-08T07:00:00	1	Precipitación	0
156596	7	Sololá	712	San Antonio Palopó	9	San Antonio Palopo	2	Febrero	2023-02-28T00:00:00	2024-11-08T07:00:00	8	Radiación solar	7
156597	7	Sololá	712	San Antonio Palopó	9	San Antonio Palopo	2	Febrero	2023-02-28T00:00:00	2024-11-08T08:00:00	2	Temperatura media	14.8
156598	7	Sololá	712	San Antonio Palopó	9	San Antonio Palopo	2	Febrero	2023-02-28T00:00:00	2024-11-08T08:00:00	4	Temperatura máxima	14.8
156599	7	Sololá	712	San Antonio Palopó	9	San Antonio Palopo	2	Febrero	2023-02-28T00:00:00	2024-11-08T08:00:00	3	Temperatura mínima	14.4
156600	7	Sololá	712	San Antonio Palopó	9	San Antonio Palopo	2	Febrero	2023-02-28T00:00:00	2024-11-08T08:00:00	5	Humedad	83
156601	7	Sololá	712	San Antonio Palopó	9	San Antonio Palopo	2	Febrero	2023-02-28T00:00:00	2024-11-08T08:00:00	6	Velocidad del viento	3.2
156602	7	Sololá	712	San Antonio Palopó	9	San Antonio Palopo	2	Febrero	2023-02-28T00:00:00	2024-11-08T08:00:00	7	Dirección del viento	3.22
156603	7	Sololá	712	San Antonio Palopó	9	San Antonio Palopo	2	Febrero	2023-02-28T00:00:00	2024-11-08T08:00:00	1	Precipitación	0
156604	7	Sololá	712	San Antonio Palopó	9	San Antonio Palopo	2	Febrero	2023-02-28T00:00:00	2024-11-08T08:00:00	8	Radiación solar	35
156605	7	Sololá	712	San Antonio Palopó	9	San Antonio Palopo	2	Febrero	2023-02-28T00:00:00	2024-11-08T09:00:00	2	Temperatura media	18.4
156606	7	Sololá	712	San Antonio Palopó	9	San Antonio Palopo	2	Febrero	2023-02-28T00:00:00	2024-11-08T09:00:00	4	Temperatura máxima	18.4
156607	7	Sololá	712	San Antonio Palopó	9	San Antonio Palopo	2	Febrero	2023-02-28T00:00:00	2024-11-08T09:00:00	3	Temperatura mínima	14.8
156608	7	Sololá	712	San Antonio Palopó	9	San Antonio Palopo	2	Febrero	2023-02-28T00:00:00	2024-11-08T09:00:00	5	Humedad	72
156609	7	Sololá	712	San Antonio Palopó	9	San Antonio Palopo	2	Febrero	2023-02-28T00:00:00	2024-11-08T09:00:00	6	Velocidad del viento	3.2
156610	7	Sololá	712	San Antonio Palopó	9	San Antonio Palopo	2	Febrero	2023-02-28T00:00:00	2024-11-08T09:00:00	7	Dirección del viento	3.22
156611	7	Sololá	712	San Antonio Palopó	9	San Antonio Palopo	2	Febrero	2023-02-28T00:00:00	2024-11-08T09:00:00	1	Precipitación	0
156612	7	Sololá	712	San Antonio Palopó	9	San Antonio Palopo	2	Febrero	2023-02-28T00:00:00	2024-11-08T09:00:00	8	Radiación solar	374
156613	7	Sololá	712	San Antonio Palopó	9	San Antonio Palopo	2	Febrero	2023-02-28T00:00:00	2024-11-08T10:00:00	2	Temperatura media	18.8
156614	7	Sololá	712	San Antonio Palopó	9	San Antonio Palopo	2	Febrero	2023-02-28T00:00:00	2024-11-08T10:00:00	4	Temperatura máxima	18.8
156615	7	Sololá	712	San Antonio Palopó	9	San Antonio Palopo	2	Febrero	2023-02-28T00:00:00	2024-11-08T10:00:00	3	Temperatura mínima	18.1
156616	7	Sololá	712	San Antonio Palopó	9	San Antonio Palopo	2	Febrero	2023-02-28T00:00:00	2024-11-08T10:00:00	5	Humedad	73
156617	7	Sololá	712	San Antonio Palopó	9	San Antonio Palopo	2	Febrero	2023-02-28T00:00:00	2024-11-08T10:00:00	6	Velocidad del viento	3.2
156618	7	Sololá	712	San Antonio Palopó	9	San Antonio Palopo	2	Febrero	2023-02-28T00:00:00	2024-11-08T10:00:00	7	Dirección del viento	3.22
156619	7	Sololá	712	San Antonio Palopó	9	San Antonio Palopo	2	Febrero	2023-02-28T00:00:00	2024-11-08T10:00:00	1	Precipitación	0
156620	7	Sololá	712	San Antonio Palopó	9	San Antonio Palopo	2	Febrero	2023-02-28T00:00:00	2024-11-08T10:00:00	8	Radiación solar	623
156621	7	Sololá	712	San Antonio Palopó	9	San Antonio Palopo	2	Febrero	2023-02-28T00:00:00	2024-11-08T11:00:00	2	Temperatura media	20.8
156622	7	Sololá	712	San Antonio Palopó	9	San Antonio Palopo	2	Febrero	2023-02-28T00:00:00	2024-11-08T11:00:00	4	Temperatura máxima	20.8
156623	7	Sololá	712	San Antonio Palopó	9	San Antonio Palopo	2	Febrero	2023-02-28T00:00:00	2024-11-08T11:00:00	3	Temperatura mínima	18.8
156624	7	Sololá	712	San Antonio Palopó	9	San Antonio Palopo	2	Febrero	2023-02-28T00:00:00	2024-11-08T11:00:00	5	Humedad	69
156625	7	Sololá	712	San Antonio Palopó	9	San Antonio Palopo	2	Febrero	2023-02-28T00:00:00	2024-11-08T11:00:00	6	Velocidad del viento	3.2
156626	7	Sololá	712	San Antonio Palopó	9	San Antonio Palopo	2	Febrero	2023-02-28T00:00:00	2024-11-08T11:00:00	7	Dirección del viento	3.22
156627	7	Sololá	712	San Antonio Palopó	9	San Antonio Palopo	2	Febrero	2023-02-28T00:00:00	2024-11-08T11:00:00	1	Precipitación	0
156628	7	Sololá	712	San Antonio Palopó	9	San Antonio Palopo	2	Febrero	2023-02-28T00:00:00	2024-11-08T11:00:00	8	Radiación solar	781
156629	7	Sololá	712	San Antonio Palopó	9	San Antonio Palopo	2	Febrero	2023-02-28T00:00:00	2024-11-08T12:00:00	2	Temperatura media	22.7
156630	7	Sololá	712	San Antonio Palopó	9	San Antonio Palopo	2	Febrero	2023-02-28T00:00:00	2024-11-08T12:00:00	4	Temperatura máxima	22.7
156631	7	Sololá	712	San Antonio Palopó	9	San Antonio Palopo	2	Febrero	2023-02-28T00:00:00	2024-11-08T12:00:00	3	Temperatura mínima	20.8
156632	7	Sololá	712	San Antonio Palopó	9	San Antonio Palopo	2	Febrero	2023-02-28T00:00:00	2024-11-08T12:00:00	5	Humedad	66
156633	7	Sololá	712	San Antonio Palopó	9	San Antonio Palopo	2	Febrero	2023-02-28T00:00:00	2024-11-08T12:00:00	6	Velocidad del viento	4.8
156634	7	Sololá	712	San Antonio Palopó	9	San Antonio Palopo	2	Febrero	2023-02-28T00:00:00	2024-11-08T12:00:00	7	Dirección del viento	4.83
156635	7	Sololá	712	San Antonio Palopó	9	San Antonio Palopo	2	Febrero	2023-02-28T00:00:00	2024-11-08T12:00:00	1	Precipitación	0
156636	7	Sololá	712	San Antonio Palopó	9	San Antonio Palopo	2	Febrero	2023-02-28T00:00:00	2024-11-08T12:00:00	8	Radiación solar	809
156637	7	Sololá	712	San Antonio Palopó	9	San Antonio Palopo	2	Febrero	2023-02-28T00:00:00	2024-11-08T13:00:00	2	Temperatura media	23.3
156638	7	Sololá	712	San Antonio Palopó	9	San Antonio Palopo	2	Febrero	2023-02-28T00:00:00	2024-11-08T13:00:00	4	Temperatura máxima	23.3
156639	7	Sololá	712	San Antonio Palopó	9	San Antonio Palopo	2	Febrero	2023-02-28T00:00:00	2024-11-08T13:00:00	3	Temperatura mínima	21.8
156640	7	Sololá	712	San Antonio Palopó	9	San Antonio Palopo	2	Febrero	2023-02-28T00:00:00	2024-11-08T13:00:00	5	Humedad	65
156641	7	Sololá	712	San Antonio Palopó	9	San Antonio Palopo	2	Febrero	2023-02-28T00:00:00	2024-11-08T13:00:00	6	Velocidad del viento	8
156642	7	Sololá	712	San Antonio Palopó	9	San Antonio Palopo	2	Febrero	2023-02-28T00:00:00	2024-11-08T13:00:00	7	Dirección del viento	8.05
156643	7	Sololá	712	San Antonio Palopó	9	San Antonio Palopo	2	Febrero	2023-02-28T00:00:00	2024-11-08T13:00:00	1	Precipitación	0
156644	7	Sololá	712	San Antonio Palopó	9	San Antonio Palopo	2	Febrero	2023-02-28T00:00:00	2024-11-08T13:00:00	8	Radiación solar	843
156645	7	Sololá	712	San Antonio Palopó	9	San Antonio Palopo	2	Febrero	2023-02-28T00:00:00	2024-11-08T14:00:00	2	Temperatura media	23.7
156646	7	Sololá	712	San Antonio Palopó	9	San Antonio Palopo	2	Febrero	2023-02-28T00:00:00	2024-11-08T14:00:00	4	Temperatura máxima	23.8
156647	7	Sololá	712	San Antonio Palopó	9	San Antonio Palopo	2	Febrero	2023-02-28T00:00:00	2024-11-08T14:00:00	3	Temperatura mínima	23.1
156648	7	Sololá	712	San Antonio Palopó	9	San Antonio Palopo	2	Febrero	2023-02-28T00:00:00	2024-11-08T14:00:00	5	Humedad	70
156649	7	Sololá	712	San Antonio Palopó	9	San Antonio Palopo	2	Febrero	2023-02-28T00:00:00	2024-11-08T14:00:00	6	Velocidad del viento	6.4
156650	7	Sololá	712	San Antonio Palopó	9	San Antonio Palopo	2	Febrero	2023-02-28T00:00:00	2024-11-08T14:00:00	7	Dirección del viento	6.44
156651	7	Sololá	712	San Antonio Palopó	9	San Antonio Palopo	2	Febrero	2023-02-28T00:00:00	2024-11-08T14:00:00	1	Precipitación	0
156652	7	Sololá	712	San Antonio Palopó	9	San Antonio Palopo	2	Febrero	2023-02-28T00:00:00	2024-11-08T14:00:00	8	Radiación solar	774
156653	7	Sololá	712	San Antonio Palopó	9	San Antonio Palopo	2	Febrero	2023-02-28T00:00:00	2024-11-08T15:00:00	2	Temperatura media	23.3
156654	7	Sololá	712	San Antonio Palopó	9	San Antonio Palopo	2	Febrero	2023-02-28T00:00:00	2024-11-08T15:00:00	4	Temperatura máxima	24.1
156655	7	Sololá	712	San Antonio Palopó	9	San Antonio Palopo	2	Febrero	2023-02-28T00:00:00	2024-11-08T15:00:00	3	Temperatura mínima	23.1
156656	7	Sololá	712	San Antonio Palopó	9	San Antonio Palopo	2	Febrero	2023-02-28T00:00:00	2024-11-08T15:00:00	5	Humedad	70
156657	7	Sololá	712	San Antonio Palopó	9	San Antonio Palopo	2	Febrero	2023-02-28T00:00:00	2024-11-08T15:00:00	6	Velocidad del viento	8
156658	7	Sololá	712	San Antonio Palopó	9	San Antonio Palopo	2	Febrero	2023-02-28T00:00:00	2024-11-08T15:00:00	7	Dirección del viento	8.05
156659	7	Sololá	712	San Antonio Palopó	9	San Antonio Palopo	2	Febrero	2023-02-28T00:00:00	2024-11-08T15:00:00	1	Precipitación	0
156660	7	Sololá	712	San Antonio Palopó	9	San Antonio Palopo	2	Febrero	2023-02-28T00:00:00	2024-11-08T15:00:00	8	Radiación solar	658
156661	7	Sololá	712	San Antonio Palopó	9	San Antonio Palopo	2	Febrero	2023-02-28T00:00:00	2024-11-08T16:00:00	2	Temperatura media	21.8
156662	7	Sololá	712	San Antonio Palopó	9	San Antonio Palopo	2	Febrero	2023-02-28T00:00:00	2024-11-08T16:00:00	4	Temperatura máxima	23.3
156663	7	Sololá	712	San Antonio Palopó	9	San Antonio Palopo	2	Febrero	2023-02-28T00:00:00	2024-11-08T16:00:00	3	Temperatura mínima	21.8
156664	7	Sololá	712	San Antonio Palopó	9	San Antonio Palopo	2	Febrero	2023-02-28T00:00:00	2024-11-08T16:00:00	5	Humedad	77
156665	7	Sololá	712	San Antonio Palopó	9	San Antonio Palopo	2	Febrero	2023-02-28T00:00:00	2024-11-08T16:00:00	6	Velocidad del viento	9.7
156666	7	Sololá	712	San Antonio Palopó	9	San Antonio Palopo	2	Febrero	2023-02-28T00:00:00	2024-11-08T16:00:00	7	Dirección del viento	9.66
156667	7	Sololá	712	San Antonio Palopó	9	San Antonio Palopo	2	Febrero	2023-02-28T00:00:00	2024-11-08T16:00:00	1	Precipitación	0
156668	7	Sololá	712	San Antonio Palopó	9	San Antonio Palopo	2	Febrero	2023-02-28T00:00:00	2024-11-08T16:00:00	8	Radiación solar	470
156669	7	Sololá	712	San Antonio Palopó	9	San Antonio Palopo	2	Febrero	2023-02-28T00:00:00	2024-11-08T17:00:00	2	Temperatura media	21
156670	7	Sololá	712	San Antonio Palopó	9	San Antonio Palopo	2	Febrero	2023-02-28T00:00:00	2024-11-08T17:00:00	4	Temperatura máxima	21.8
156671	7	Sololá	712	San Antonio Palopó	9	San Antonio Palopo	2	Febrero	2023-02-28T00:00:00	2024-11-08T17:00:00	3	Temperatura mínima	21
156672	7	Sololá	712	San Antonio Palopó	9	San Antonio Palopo	2	Febrero	2023-02-28T00:00:00	2024-11-08T17:00:00	5	Humedad	80
156673	7	Sololá	712	San Antonio Palopó	9	San Antonio Palopo	2	Febrero	2023-02-28T00:00:00	2024-11-08T17:00:00	6	Velocidad del viento	4.8
156674	7	Sololá	712	San Antonio Palopó	9	San Antonio Palopo	2	Febrero	2023-02-28T00:00:00	2024-11-08T17:00:00	7	Dirección del viento	4.83
156675	7	Sololá	712	San Antonio Palopó	9	San Antonio Palopo	2	Febrero	2023-02-28T00:00:00	2024-11-08T17:00:00	1	Precipitación	0
156676	7	Sololá	712	San Antonio Palopó	9	San Antonio Palopo	2	Febrero	2023-02-28T00:00:00	2024-11-08T17:00:00	8	Radiación solar	140
156677	7	Sololá	712	San Antonio Palopó	9	San Antonio Palopo	2	Febrero	2023-02-28T00:00:00	2024-11-08T18:00:00	2	Temperatura media	20.4
156678	7	Sololá	712	San Antonio Palopó	9	San Antonio Palopo	2	Febrero	2023-02-28T00:00:00	2024-11-08T18:00:00	4	Temperatura máxima	21.1
156679	7	Sololá	712	San Antonio Palopó	9	San Antonio Palopo	2	Febrero	2023-02-28T00:00:00	2024-11-08T18:00:00	3	Temperatura mínima	20.4
156680	7	Sololá	712	San Antonio Palopó	9	San Antonio Palopo	2	Febrero	2023-02-28T00:00:00	2024-11-08T18:00:00	5	Humedad	82
156681	7	Sololá	712	San Antonio Palopó	9	San Antonio Palopo	2	Febrero	2023-02-28T00:00:00	2024-11-08T18:00:00	6	Velocidad del viento	4.8
156682	7	Sololá	712	San Antonio Palopó	9	San Antonio Palopo	2	Febrero	2023-02-28T00:00:00	2024-11-08T18:00:00	7	Dirección del viento	4.83
156683	7	Sololá	712	San Antonio Palopó	9	San Antonio Palopo	2	Febrero	2023-02-28T00:00:00	2024-11-08T18:00:00	1	Precipitación	0
156684	7	Sololá	712	San Antonio Palopó	9	San Antonio Palopo	2	Febrero	2023-02-28T00:00:00	2024-11-08T18:00:00	8	Radiación solar	36
156685	7	Sololá	712	San Antonio Palopó	9	San Antonio Palopo	2	Febrero	2023-02-28T00:00:00	2024-11-08T19:00:00	2	Temperatura media	20.1
156686	7	Sololá	712	San Antonio Palopó	9	San Antonio Palopo	2	Febrero	2023-02-28T00:00:00	2024-11-08T19:00:00	4	Temperatura máxima	20.4
156687	7	Sololá	712	San Antonio Palopó	9	San Antonio Palopo	2	Febrero	2023-02-28T00:00:00	2024-11-08T19:00:00	3	Temperatura mínima	20
156688	7	Sololá	712	San Antonio Palopó	9	San Antonio Palopo	2	Febrero	2023-02-28T00:00:00	2024-11-08T19:00:00	5	Humedad	83
156689	7	Sololá	712	San Antonio Palopó	9	San Antonio Palopo	2	Febrero	2023-02-28T00:00:00	2024-11-08T19:00:00	6	Velocidad del viento	3.2
156690	7	Sololá	712	San Antonio Palopó	9	San Antonio Palopo	2	Febrero	2023-02-28T00:00:00	2024-11-08T19:00:00	7	Dirección del viento	3.22
156691	7	Sololá	712	San Antonio Palopó	9	San Antonio Palopo	2	Febrero	2023-02-28T00:00:00	2024-11-08T19:00:00	1	Precipitación	0
156692	7	Sololá	712	San Antonio Palopó	9	San Antonio Palopo	2	Febrero	2023-02-28T00:00:00	2024-11-08T19:00:00	8	Radiación solar	0
156693	7	Sololá	712	San Antonio Palopó	9	San Antonio Palopo	2	Febrero	2023-02-28T00:00:00	2024-11-08T20:00:00	2	Temperatura media	19.6
156694	7	Sololá	712	San Antonio Palopó	9	San Antonio Palopo	2	Febrero	2023-02-28T00:00:00	2024-11-08T20:00:00	4	Temperatura máxima	20.1
156695	7	Sololá	712	San Antonio Palopó	9	San Antonio Palopo	2	Febrero	2023-02-28T00:00:00	2024-11-08T20:00:00	3	Temperatura mínima	19.6
156696	7	Sololá	712	San Antonio Palopó	9	San Antonio Palopo	2	Febrero	2023-02-28T00:00:00	2024-11-08T20:00:00	5	Humedad	85
156697	7	Sololá	712	San Antonio Palopó	9	San Antonio Palopo	2	Febrero	2023-02-28T00:00:00	2024-11-08T20:00:00	6	Velocidad del viento	1.6
156698	7	Sololá	712	San Antonio Palopó	9	San Antonio Palopo	2	Febrero	2023-02-28T00:00:00	2024-11-08T20:00:00	7	Dirección del viento	1.61
156699	7	Sololá	712	San Antonio Palopó	9	San Antonio Palopo	2	Febrero	2023-02-28T00:00:00	2024-11-08T20:00:00	1	Precipitación	0
156700	7	Sololá	712	San Antonio Palopó	9	San Antonio Palopo	2	Febrero	2023-02-28T00:00:00	2024-11-08T20:00:00	8	Radiación solar	0
156701	7	Sololá	712	San Antonio Palopó	9	San Antonio Palopo	2	Febrero	2023-02-28T00:00:00	2024-11-08T21:00:00	2	Temperatura media	19
156702	7	Sololá	712	San Antonio Palopó	9	San Antonio Palopo	2	Febrero	2023-02-28T00:00:00	2024-11-08T21:00:00	4	Temperatura máxima	19.6
156703	7	Sololá	712	San Antonio Palopó	9	San Antonio Palopo	2	Febrero	2023-02-28T00:00:00	2024-11-08T21:00:00	3	Temperatura mínima	18.9
156704	7	Sololá	712	San Antonio Palopó	9	San Antonio Palopo	2	Febrero	2023-02-28T00:00:00	2024-11-08T21:00:00	5	Humedad	85
156705	7	Sololá	712	San Antonio Palopó	9	San Antonio Palopo	2	Febrero	2023-02-28T00:00:00	2024-11-08T21:00:00	6	Velocidad del viento	1.6
156706	7	Sololá	712	San Antonio Palopó	9	San Antonio Palopo	2	Febrero	2023-02-28T00:00:00	2024-11-08T21:00:00	7	Dirección del viento	1.61
156707	7	Sololá	712	San Antonio Palopó	9	San Antonio Palopo	2	Febrero	2023-02-28T00:00:00	2024-11-08T21:00:00	1	Precipitación	0
156708	7	Sololá	712	San Antonio Palopó	9	San Antonio Palopo	2	Febrero	2023-02-28T00:00:00	2024-11-08T21:00:00	8	Radiación solar	0
156709	7	Sololá	712	San Antonio Palopó	9	San Antonio Palopo	2	Febrero	2023-02-28T00:00:00	2024-11-08T22:00:00	2	Temperatura media	18.8
156710	7	Sololá	712	San Antonio Palopó	9	San Antonio Palopo	2	Febrero	2023-02-28T00:00:00	2024-11-08T22:00:00	4	Temperatura máxima	19
156711	7	Sololá	712	San Antonio Palopó	9	San Antonio Palopo	2	Febrero	2023-02-28T00:00:00	2024-11-08T22:00:00	3	Temperatura mínima	18.8
156712	7	Sololá	712	San Antonio Palopó	9	San Antonio Palopo	2	Febrero	2023-02-28T00:00:00	2024-11-08T22:00:00	5	Humedad	82
156713	7	Sololá	712	San Antonio Palopó	9	San Antonio Palopo	2	Febrero	2023-02-28T00:00:00	2024-11-08T22:00:00	6	Velocidad del viento	1.6
156714	7	Sololá	712	San Antonio Palopó	9	San Antonio Palopo	2	Febrero	2023-02-28T00:00:00	2024-11-08T22:00:00	7	Dirección del viento	1.61
156715	7	Sololá	712	San Antonio Palopó	9	San Antonio Palopo	2	Febrero	2023-02-28T00:00:00	2024-11-08T22:00:00	1	Precipitación	0
156716	7	Sololá	712	San Antonio Palopó	9	San Antonio Palopo	2	Febrero	2023-02-28T00:00:00	2024-11-08T22:00:00	8	Radiación solar	0
156717	7	Sololá	712	San Antonio Palopó	9	San Antonio Palopo	2	Febrero	2023-02-28T00:00:00	2024-11-08T23:00:00	2	Temperatura media	18.2
156718	7	Sololá	712	San Antonio Palopó	9	San Antonio Palopo	2	Febrero	2023-02-28T00:00:00	2024-11-08T23:00:00	4	Temperatura máxima	18.8
156719	7	Sololá	712	San Antonio Palopó	9	San Antonio Palopo	2	Febrero	2023-02-28T00:00:00	2024-11-08T23:00:00	3	Temperatura mínima	18.2
156720	7	Sololá	712	San Antonio Palopó	9	San Antonio Palopo	2	Febrero	2023-02-28T00:00:00	2024-11-08T23:00:00	5	Humedad	78
156721	7	Sololá	712	San Antonio Palopó	9	San Antonio Palopo	2	Febrero	2023-02-28T00:00:00	2024-11-08T23:00:00	6	Velocidad del viento	4.8
156722	7	Sololá	712	San Antonio Palopó	9	San Antonio Palopo	2	Febrero	2023-02-28T00:00:00	2024-11-08T23:00:00	7	Dirección del viento	4.83
156723	7	Sololá	712	San Antonio Palopó	9	San Antonio Palopo	2	Febrero	2023-02-28T00:00:00	2024-11-08T23:00:00	1	Precipitación	0
156724	7	Sololá	712	San Antonio Palopó	9	San Antonio Palopo	2	Febrero	2023-02-28T00:00:00	2024-11-08T23:00:00	8	Radiación solar	0
156725	7	Sololá	712	San Antonio Palopó	9	San Antonio Palopo	3	Marzo	2023-01-03T00:00:00	2024-11-08T00:00:00	2	Temperatura media	18
156726	7	Sololá	712	San Antonio Palopó	9	San Antonio Palopo	3	Marzo	2023-01-03T00:00:00	2024-11-08T00:00:00	4	Temperatura máxima	18.3
156727	7	Sololá	712	San Antonio Palopó	9	San Antonio Palopo	3	Marzo	2023-01-03T00:00:00	2024-11-08T00:00:00	3	Temperatura mínima	17.8
156728	7	Sololá	712	San Antonio Palopó	9	San Antonio Palopo	3	Marzo	2023-01-03T00:00:00	2024-11-08T00:00:00	5	Humedad	82
156729	7	Sololá	712	San Antonio Palopó	9	San Antonio Palopo	3	Marzo	2023-01-03T00:00:00	2024-11-08T00:00:00	6	Velocidad del viento	3.2
156730	7	Sololá	712	San Antonio Palopó	9	San Antonio Palopo	3	Marzo	2023-01-03T00:00:00	2024-11-08T00:00:00	7	Dirección del viento	3.22
156731	7	Sololá	712	San Antonio Palopó	9	San Antonio Palopo	3	Marzo	2023-01-03T00:00:00	2024-11-08T00:00:00	1	Precipitación	0
156732	7	Sololá	712	San Antonio Palopó	9	San Antonio Palopo	3	Marzo	2023-01-03T00:00:00	2024-11-08T00:00:00	8	Radiación solar	0
156733	7	Sololá	712	San Antonio Palopó	9	San Antonio Palopo	3	Marzo	2023-01-03T00:00:00	2024-11-08T01:00:00	2	Temperatura media	17.8
156734	7	Sololá	712	San Antonio Palopó	9	San Antonio Palopo	3	Marzo	2023-01-03T00:00:00	2024-11-08T01:00:00	4	Temperatura máxima	18.3
156735	7	Sololá	712	San Antonio Palopó	9	San Antonio Palopo	3	Marzo	2023-01-03T00:00:00	2024-11-08T01:00:00	3	Temperatura mínima	17.5
156736	7	Sololá	712	San Antonio Palopó	9	San Antonio Palopo	3	Marzo	2023-01-03T00:00:00	2024-11-08T01:00:00	5	Humedad	75
156737	7	Sololá	712	San Antonio Palopó	9	San Antonio Palopo	3	Marzo	2023-01-03T00:00:00	2024-11-08T01:00:00	6	Velocidad del viento	4.8
156738	7	Sololá	712	San Antonio Palopó	9	San Antonio Palopo	3	Marzo	2023-01-03T00:00:00	2024-11-08T01:00:00	7	Dirección del viento	4.83
156739	7	Sololá	712	San Antonio Palopó	9	San Antonio Palopo	3	Marzo	2023-01-03T00:00:00	2024-11-08T01:00:00	1	Precipitación	0
156740	7	Sololá	712	San Antonio Palopó	9	San Antonio Palopo	3	Marzo	2023-01-03T00:00:00	2024-11-08T01:00:00	8	Radiación solar	0
156741	7	Sololá	712	San Antonio Palopó	9	San Antonio Palopo	3	Marzo	2023-01-03T00:00:00	2024-11-08T02:00:00	2	Temperatura media	15.9
156742	7	Sololá	712	San Antonio Palopó	9	San Antonio Palopo	3	Marzo	2023-01-03T00:00:00	2024-11-08T02:00:00	4	Temperatura máxima	18
156743	7	Sololá	712	San Antonio Palopó	9	San Antonio Palopo	3	Marzo	2023-01-03T00:00:00	2024-11-08T02:00:00	3	Temperatura mínima	15.8
156744	7	Sololá	712	San Antonio Palopó	9	San Antonio Palopo	3	Marzo	2023-01-03T00:00:00	2024-11-08T02:00:00	5	Humedad	82
156745	7	Sololá	712	San Antonio Palopó	9	San Antonio Palopo	3	Marzo	2023-01-03T00:00:00	2024-11-08T02:00:00	6	Velocidad del viento	4.8
156746	7	Sololá	712	San Antonio Palopó	9	San Antonio Palopo	3	Marzo	2023-01-03T00:00:00	2024-11-08T02:00:00	7	Dirección del viento	4.83
156747	7	Sololá	712	San Antonio Palopó	9	San Antonio Palopo	3	Marzo	2023-01-03T00:00:00	2024-11-08T02:00:00	1	Precipitación	0
156748	7	Sololá	712	San Antonio Palopó	9	San Antonio Palopo	3	Marzo	2023-01-03T00:00:00	2024-11-08T02:00:00	8	Radiación solar	0
156749	7	Sololá	712	San Antonio Palopó	9	San Antonio Palopo	3	Marzo	2023-01-03T00:00:00	2024-11-08T03:00:00	2	Temperatura media	15.7
156750	7	Sololá	712	San Antonio Palopó	9	San Antonio Palopo	3	Marzo	2023-01-03T00:00:00	2024-11-08T03:00:00	4	Temperatura máxima	16.1
156751	7	Sololá	712	San Antonio Palopó	9	San Antonio Palopo	3	Marzo	2023-01-03T00:00:00	2024-11-08T03:00:00	3	Temperatura mínima	15.7
156752	7	Sololá	712	San Antonio Palopó	9	San Antonio Palopo	3	Marzo	2023-01-03T00:00:00	2024-11-08T03:00:00	5	Humedad	77
156753	7	Sololá	712	San Antonio Palopó	9	San Antonio Palopo	3	Marzo	2023-01-03T00:00:00	2024-11-08T03:00:00	6	Velocidad del viento	3.2
156754	7	Sololá	712	San Antonio Palopó	9	San Antonio Palopo	3	Marzo	2023-01-03T00:00:00	2024-11-08T03:00:00	7	Dirección del viento	3.22
156755	7	Sololá	712	San Antonio Palopó	9	San Antonio Palopo	3	Marzo	2023-01-03T00:00:00	2024-11-08T03:00:00	1	Precipitación	0
156756	7	Sololá	712	San Antonio Palopó	9	San Antonio Palopo	3	Marzo	2023-01-03T00:00:00	2024-11-08T03:00:00	8	Radiación solar	0
156757	7	Sololá	712	San Antonio Palopó	9	San Antonio Palopo	3	Marzo	2023-01-03T00:00:00	2024-11-08T04:00:00	2	Temperatura media	15.4
156758	7	Sololá	712	San Antonio Palopó	9	San Antonio Palopo	3	Marzo	2023-01-03T00:00:00	2024-11-08T04:00:00	4	Temperatura máxima	15.9
156759	7	Sololá	712	San Antonio Palopó	9	San Antonio Palopo	3	Marzo	2023-01-03T00:00:00	2024-11-08T04:00:00	3	Temperatura mínima	15.4
156760	7	Sololá	712	San Antonio Palopó	9	San Antonio Palopo	3	Marzo	2023-01-03T00:00:00	2024-11-08T04:00:00	5	Humedad	76
156761	7	Sololá	712	San Antonio Palopó	9	San Antonio Palopo	3	Marzo	2023-01-03T00:00:00	2024-11-08T04:00:00	6	Velocidad del viento	3.2
156762	7	Sololá	712	San Antonio Palopó	9	San Antonio Palopo	3	Marzo	2023-01-03T00:00:00	2024-11-08T04:00:00	7	Dirección del viento	3.22
156763	7	Sololá	712	San Antonio Palopó	9	San Antonio Palopo	3	Marzo	2023-01-03T00:00:00	2024-11-08T04:00:00	1	Precipitación	0
156764	7	Sololá	712	San Antonio Palopó	9	San Antonio Palopo	3	Marzo	2023-01-03T00:00:00	2024-11-08T04:00:00	8	Radiación solar	0
156765	7	Sololá	712	San Antonio Palopó	9	San Antonio Palopo	3	Marzo	2023-01-03T00:00:00	2024-11-08T05:00:00	2	Temperatura media	14.9
156766	7	Sololá	712	San Antonio Palopó	9	San Antonio Palopo	3	Marzo	2023-01-03T00:00:00	2024-11-08T05:00:00	4	Temperatura máxima	15.4
156767	7	Sololá	712	San Antonio Palopó	9	San Antonio Palopo	3	Marzo	2023-01-03T00:00:00	2024-11-08T05:00:00	3	Temperatura mínima	14.9
156768	7	Sololá	712	San Antonio Palopó	9	San Antonio Palopo	3	Marzo	2023-01-03T00:00:00	2024-11-08T05:00:00	5	Humedad	76
156769	7	Sololá	712	San Antonio Palopó	9	San Antonio Palopo	3	Marzo	2023-01-03T00:00:00	2024-11-08T05:00:00	6	Velocidad del viento	4.8
156770	7	Sololá	712	San Antonio Palopó	9	San Antonio Palopo	3	Marzo	2023-01-03T00:00:00	2024-11-08T05:00:00	7	Dirección del viento	4.83
156771	7	Sololá	712	San Antonio Palopó	9	San Antonio Palopo	3	Marzo	2023-01-03T00:00:00	2024-11-08T05:00:00	1	Precipitación	0
156772	7	Sololá	712	San Antonio Palopó	9	San Antonio Palopo	3	Marzo	2023-01-03T00:00:00	2024-11-08T05:00:00	8	Radiación solar	0
156773	7	Sololá	712	San Antonio Palopó	9	San Antonio Palopo	3	Marzo	2023-01-03T00:00:00	2024-11-08T06:00:00	2	Temperatura media	14.5
156774	7	Sololá	712	San Antonio Palopó	9	San Antonio Palopo	3	Marzo	2023-01-03T00:00:00	2024-11-08T06:00:00	4	Temperatura máxima	15
156775	7	Sololá	712	San Antonio Palopó	9	San Antonio Palopo	3	Marzo	2023-01-03T00:00:00	2024-11-08T06:00:00	3	Temperatura mínima	14.5
156776	7	Sololá	712	San Antonio Palopó	9	San Antonio Palopo	3	Marzo	2023-01-03T00:00:00	2024-11-08T06:00:00	5	Humedad	77
156777	7	Sololá	712	San Antonio Palopó	9	San Antonio Palopo	3	Marzo	2023-01-03T00:00:00	2024-11-08T06:00:00	6	Velocidad del viento	4.8
156778	7	Sololá	712	San Antonio Palopó	9	San Antonio Palopo	3	Marzo	2023-01-03T00:00:00	2024-11-08T06:00:00	7	Dirección del viento	4.83
156779	7	Sololá	712	San Antonio Palopó	9	San Antonio Palopo	3	Marzo	2023-01-03T00:00:00	2024-11-08T06:00:00	1	Precipitación	0
156780	7	Sololá	712	San Antonio Palopó	9	San Antonio Palopo	3	Marzo	2023-01-03T00:00:00	2024-11-08T06:00:00	8	Radiación solar	0
156781	7	Sololá	712	San Antonio Palopó	9	San Antonio Palopo	3	Marzo	2023-01-03T00:00:00	2024-11-08T07:00:00	2	Temperatura media	14.6
156782	7	Sololá	712	San Antonio Palopó	9	San Antonio Palopo	3	Marzo	2023-01-03T00:00:00	2024-11-08T07:00:00	4	Temperatura máxima	14.6
156783	7	Sololá	712	San Antonio Palopó	9	San Antonio Palopo	3	Marzo	2023-01-03T00:00:00	2024-11-08T07:00:00	3	Temperatura mínima	14.3
156784	7	Sololá	712	San Antonio Palopó	9	San Antonio Palopo	3	Marzo	2023-01-03T00:00:00	2024-11-08T07:00:00	5	Humedad	79
156785	7	Sololá	712	San Antonio Palopó	9	San Antonio Palopo	3	Marzo	2023-01-03T00:00:00	2024-11-08T07:00:00	6	Velocidad del viento	4.8
156786	7	Sololá	712	San Antonio Palopó	9	San Antonio Palopo	3	Marzo	2023-01-03T00:00:00	2024-11-08T07:00:00	7	Dirección del viento	4.83
156787	7	Sololá	712	San Antonio Palopó	9	San Antonio Palopo	3	Marzo	2023-01-03T00:00:00	2024-11-08T07:00:00	1	Precipitación	0
156788	7	Sololá	712	San Antonio Palopó	9	San Antonio Palopo	3	Marzo	2023-01-03T00:00:00	2024-11-08T07:00:00	8	Radiación solar	6
156789	7	Sololá	712	San Antonio Palopó	9	San Antonio Palopo	3	Marzo	2023-01-03T00:00:00	2024-11-08T08:00:00	2	Temperatura media	14.7
156790	7	Sololá	712	San Antonio Palopó	9	San Antonio Palopo	3	Marzo	2023-01-03T00:00:00	2024-11-08T08:00:00	4	Temperatura máxima	14.9
156791	7	Sololá	712	San Antonio Palopó	9	San Antonio Palopo	3	Marzo	2023-01-03T00:00:00	2024-11-08T08:00:00	3	Temperatura mínima	14.6
156792	7	Sololá	712	San Antonio Palopó	9	San Antonio Palopo	3	Marzo	2023-01-03T00:00:00	2024-11-08T08:00:00	5	Humedad	80
156793	7	Sololá	712	San Antonio Palopó	9	San Antonio Palopo	3	Marzo	2023-01-03T00:00:00	2024-11-08T08:00:00	6	Velocidad del viento	3.2
156794	7	Sololá	712	San Antonio Palopó	9	San Antonio Palopo	3	Marzo	2023-01-03T00:00:00	2024-11-08T08:00:00	7	Dirección del viento	3.22
156795	7	Sololá	712	San Antonio Palopó	9	San Antonio Palopo	3	Marzo	2023-01-03T00:00:00	2024-11-08T08:00:00	1	Precipitación	0
156796	7	Sololá	712	San Antonio Palopó	9	San Antonio Palopo	3	Marzo	2023-01-03T00:00:00	2024-11-08T08:00:00	8	Radiación solar	23
156797	7	Sololá	712	San Antonio Palopó	9	San Antonio Palopo	3	Marzo	2023-01-03T00:00:00	2024-11-08T09:00:00	2	Temperatura media	18.8
156798	7	Sololá	712	San Antonio Palopó	9	San Antonio Palopo	3	Marzo	2023-01-03T00:00:00	2024-11-08T09:00:00	4	Temperatura máxima	18.8
156799	7	Sololá	712	San Antonio Palopó	9	San Antonio Palopo	3	Marzo	2023-01-03T00:00:00	2024-11-08T09:00:00	3	Temperatura mínima	14.8
156800	7	Sololá	712	San Antonio Palopó	9	San Antonio Palopo	3	Marzo	2023-01-03T00:00:00	2024-11-08T09:00:00	5	Humedad	69
156801	7	Sololá	712	San Antonio Palopó	9	San Antonio Palopo	3	Marzo	2023-01-03T00:00:00	2024-11-08T09:00:00	6	Velocidad del viento	3.2
156802	7	Sololá	712	San Antonio Palopó	9	San Antonio Palopo	3	Marzo	2023-01-03T00:00:00	2024-11-08T09:00:00	7	Dirección del viento	3.22
156803	7	Sololá	712	San Antonio Palopó	9	San Antonio Palopo	3	Marzo	2023-01-03T00:00:00	2024-11-08T09:00:00	1	Precipitación	0
156804	7	Sololá	712	San Antonio Palopó	9	San Antonio Palopo	3	Marzo	2023-01-03T00:00:00	2024-11-08T09:00:00	8	Radiación solar	403
156805	7	Sololá	712	San Antonio Palopó	9	San Antonio Palopo	3	Marzo	2023-01-03T00:00:00	2024-11-08T10:00:00	2	Temperatura media	19.3
156806	7	Sololá	712	San Antonio Palopó	9	San Antonio Palopo	3	Marzo	2023-01-03T00:00:00	2024-11-08T10:00:00	4	Temperatura máxima	19.3
156807	7	Sololá	712	San Antonio Palopó	9	San Antonio Palopo	3	Marzo	2023-01-03T00:00:00	2024-11-08T10:00:00	3	Temperatura mínima	18.3
156808	7	Sololá	712	San Antonio Palopó	9	San Antonio Palopo	3	Marzo	2023-01-03T00:00:00	2024-11-08T10:00:00	5	Humedad	68
156809	7	Sololá	712	San Antonio Palopó	9	San Antonio Palopo	3	Marzo	2023-01-03T00:00:00	2024-11-08T10:00:00	6	Velocidad del viento	3.2
156810	7	Sololá	712	San Antonio Palopó	9	San Antonio Palopo	3	Marzo	2023-01-03T00:00:00	2024-11-08T10:00:00	7	Dirección del viento	3.22
156811	7	Sololá	712	San Antonio Palopó	9	San Antonio Palopo	3	Marzo	2023-01-03T00:00:00	2024-11-08T10:00:00	1	Precipitación	0
156812	7	Sololá	712	San Antonio Palopó	9	San Antonio Palopo	3	Marzo	2023-01-03T00:00:00	2024-11-08T10:00:00	8	Radiación solar	632
156813	7	Sololá	712	San Antonio Palopó	9	San Antonio Palopo	3	Marzo	2023-01-03T00:00:00	2024-11-08T11:00:00	2	Temperatura media	21.2
156814	7	Sololá	712	San Antonio Palopó	9	San Antonio Palopo	3	Marzo	2023-01-03T00:00:00	2024-11-08T11:00:00	4	Temperatura máxima	21.2
156815	7	Sololá	712	San Antonio Palopó	9	San Antonio Palopo	3	Marzo	2023-01-03T00:00:00	2024-11-08T11:00:00	3	Temperatura mínima	19.3
156816	7	Sololá	712	San Antonio Palopó	9	San Antonio Palopo	3	Marzo	2023-01-03T00:00:00	2024-11-08T11:00:00	5	Humedad	65
156817	7	Sololá	712	San Antonio Palopó	9	San Antonio Palopo	3	Marzo	2023-01-03T00:00:00	2024-11-08T11:00:00	6	Velocidad del viento	3.2
156818	7	Sololá	712	San Antonio Palopó	9	San Antonio Palopo	3	Marzo	2023-01-03T00:00:00	2024-11-08T11:00:00	7	Dirección del viento	3.22
156819	7	Sololá	712	San Antonio Palopó	9	San Antonio Palopo	3	Marzo	2023-01-03T00:00:00	2024-11-08T11:00:00	1	Precipitación	0
156820	7	Sololá	712	San Antonio Palopó	9	San Antonio Palopo	3	Marzo	2023-01-03T00:00:00	2024-11-08T11:00:00	8	Radiación solar	780
156821	7	Sololá	712	San Antonio Palopó	9	San Antonio Palopo	3	Marzo	2023-01-03T00:00:00	2024-11-08T12:00:00	2	Temperatura media	22.5
156822	7	Sololá	712	San Antonio Palopó	9	San Antonio Palopo	3	Marzo	2023-01-03T00:00:00	2024-11-08T12:00:00	4	Temperatura máxima	23.1
156823	7	Sololá	712	San Antonio Palopó	9	San Antonio Palopo	3	Marzo	2023-01-03T00:00:00	2024-11-08T12:00:00	3	Temperatura mínima	21.2
156824	7	Sololá	712	San Antonio Palopó	9	San Antonio Palopo	3	Marzo	2023-01-03T00:00:00	2024-11-08T12:00:00	5	Humedad	66
156825	7	Sololá	712	San Antonio Palopó	9	San Antonio Palopo	3	Marzo	2023-01-03T00:00:00	2024-11-08T12:00:00	6	Velocidad del viento	6.4
156826	7	Sololá	712	San Antonio Palopó	9	San Antonio Palopo	3	Marzo	2023-01-03T00:00:00	2024-11-08T12:00:00	7	Dirección del viento	6.44
156827	7	Sololá	712	San Antonio Palopó	9	San Antonio Palopo	3	Marzo	2023-01-03T00:00:00	2024-11-08T12:00:00	1	Precipitación	0
156828	7	Sololá	712	San Antonio Palopó	9	San Antonio Palopo	3	Marzo	2023-01-03T00:00:00	2024-11-08T12:00:00	8	Radiación solar	813
156829	7	Sololá	712	San Antonio Palopó	9	San Antonio Palopo	3	Marzo	2023-01-03T00:00:00	2024-11-08T13:00:00	2	Temperatura media	22.6
156830	7	Sololá	712	San Antonio Palopó	9	San Antonio Palopo	3	Marzo	2023-01-03T00:00:00	2024-11-08T13:00:00	4	Temperatura máxima	22.7
156831	7	Sololá	712	San Antonio Palopó	9	San Antonio Palopo	3	Marzo	2023-01-03T00:00:00	2024-11-08T13:00:00	3	Temperatura mínima	22.2
156832	7	Sololá	712	San Antonio Palopó	9	San Antonio Palopo	3	Marzo	2023-01-03T00:00:00	2024-11-08T13:00:00	5	Humedad	70
156833	7	Sololá	712	San Antonio Palopó	9	San Antonio Palopo	3	Marzo	2023-01-03T00:00:00	2024-11-08T13:00:00	6	Velocidad del viento	9.7
156834	7	Sololá	712	San Antonio Palopó	9	San Antonio Palopo	3	Marzo	2023-01-03T00:00:00	2024-11-08T13:00:00	7	Dirección del viento	9.66
156835	7	Sololá	712	San Antonio Palopó	9	San Antonio Palopo	3	Marzo	2023-01-03T00:00:00	2024-11-08T13:00:00	1	Precipitación	0
156836	7	Sololá	712	San Antonio Palopó	9	San Antonio Palopo	3	Marzo	2023-01-03T00:00:00	2024-11-08T13:00:00	8	Radiación solar	856
156837	7	Sololá	712	San Antonio Palopó	9	San Antonio Palopo	3	Marzo	2023-01-03T00:00:00	2024-11-08T14:00:00	2	Temperatura media	23.3
156838	7	Sololá	712	San Antonio Palopó	9	San Antonio Palopo	3	Marzo	2023-01-03T00:00:00	2024-11-08T14:00:00	4	Temperatura máxima	23.3
156839	7	Sololá	712	San Antonio Palopó	9	San Antonio Palopo	3	Marzo	2023-01-03T00:00:00	2024-11-08T14:00:00	3	Temperatura mínima	22.5
156840	7	Sololá	712	San Antonio Palopó	9	San Antonio Palopo	3	Marzo	2023-01-03T00:00:00	2024-11-08T14:00:00	5	Humedad	69
156841	7	Sololá	712	San Antonio Palopó	9	San Antonio Palopo	3	Marzo	2023-01-03T00:00:00	2024-11-08T14:00:00	6	Velocidad del viento	8
156842	7	Sololá	712	San Antonio Palopó	9	San Antonio Palopo	3	Marzo	2023-01-03T00:00:00	2024-11-08T14:00:00	7	Dirección del viento	8.05
156843	7	Sololá	712	San Antonio Palopó	9	San Antonio Palopo	3	Marzo	2023-01-03T00:00:00	2024-11-08T14:00:00	1	Precipitación	0
156844	7	Sololá	712	San Antonio Palopó	9	San Antonio Palopo	3	Marzo	2023-01-03T00:00:00	2024-11-08T14:00:00	8	Radiación solar	686
156845	7	Sololá	712	San Antonio Palopó	9	San Antonio Palopo	3	Marzo	2023-01-03T00:00:00	2024-11-08T15:00:00	2	Temperatura media	22.3
156846	7	Sololá	712	San Antonio Palopó	9	San Antonio Palopo	3	Marzo	2023-01-03T00:00:00	2024-11-08T15:00:00	4	Temperatura máxima	23.4
156847	7	Sololá	712	San Antonio Palopó	9	San Antonio Palopo	3	Marzo	2023-01-03T00:00:00	2024-11-08T15:00:00	3	Temperatura mínima	22.2
156848	7	Sololá	712	San Antonio Palopó	9	San Antonio Palopo	3	Marzo	2023-01-03T00:00:00	2024-11-08T15:00:00	5	Humedad	76
156849	7	Sololá	712	San Antonio Palopó	9	San Antonio Palopo	3	Marzo	2023-01-03T00:00:00	2024-11-08T15:00:00	6	Velocidad del viento	9.7
156850	7	Sololá	712	San Antonio Palopó	9	San Antonio Palopo	3	Marzo	2023-01-03T00:00:00	2024-11-08T15:00:00	7	Dirección del viento	9.66
156851	7	Sololá	712	San Antonio Palopó	9	San Antonio Palopo	3	Marzo	2023-01-03T00:00:00	2024-11-08T15:00:00	1	Precipitación	0
156852	7	Sololá	712	San Antonio Palopó	9	San Antonio Palopo	3	Marzo	2023-01-03T00:00:00	2024-11-08T15:00:00	8	Radiación solar	575
156853	7	Sololá	712	San Antonio Palopó	9	San Antonio Palopo	3	Marzo	2023-01-03T00:00:00	2024-11-08T16:00:00	2	Temperatura media	21.9
156854	7	Sololá	712	San Antonio Palopó	9	San Antonio Palopo	3	Marzo	2023-01-03T00:00:00	2024-11-08T16:00:00	4	Temperatura máxima	22.5
156855	7	Sololá	712	San Antonio Palopó	9	San Antonio Palopo	3	Marzo	2023-01-03T00:00:00	2024-11-08T16:00:00	3	Temperatura mínima	21.6
156856	7	Sololá	712	San Antonio Palopó	9	San Antonio Palopo	3	Marzo	2023-01-03T00:00:00	2024-11-08T16:00:00	5	Humedad	77
156857	7	Sololá	712	San Antonio Palopó	9	San Antonio Palopo	3	Marzo	2023-01-03T00:00:00	2024-11-08T16:00:00	6	Velocidad del viento	8
156858	7	Sololá	712	San Antonio Palopó	9	San Antonio Palopo	3	Marzo	2023-01-03T00:00:00	2024-11-08T16:00:00	7	Dirección del viento	8.05
156859	7	Sololá	712	San Antonio Palopó	9	San Antonio Palopo	3	Marzo	2023-01-03T00:00:00	2024-11-08T16:00:00	1	Precipitación	0
156860	7	Sololá	712	San Antonio Palopó	9	San Antonio Palopo	3	Marzo	2023-01-03T00:00:00	2024-11-08T16:00:00	8	Radiación solar	327
156861	7	Sololá	712	San Antonio Palopó	9	San Antonio Palopo	3	Marzo	2023-01-03T00:00:00	2024-11-08T17:00:00	2	Temperatura media	20.7
156862	7	Sololá	712	San Antonio Palopó	9	San Antonio Palopo	3	Marzo	2023-01-03T00:00:00	2024-11-08T17:00:00	4	Temperatura máxima	21.9
156863	7	Sololá	712	San Antonio Palopó	9	San Antonio Palopo	3	Marzo	2023-01-03T00:00:00	2024-11-08T17:00:00	3	Temperatura mínima	20.7
156864	7	Sololá	712	San Antonio Palopó	9	San Antonio Palopo	3	Marzo	2023-01-03T00:00:00	2024-11-08T17:00:00	5	Humedad	79
156865	7	Sololá	712	San Antonio Palopó	9	San Antonio Palopo	3	Marzo	2023-01-03T00:00:00	2024-11-08T17:00:00	6	Velocidad del viento	8
156866	7	Sololá	712	San Antonio Palopó	9	San Antonio Palopo	3	Marzo	2023-01-03T00:00:00	2024-11-08T17:00:00	7	Dirección del viento	8.05
156867	7	Sololá	712	San Antonio Palopó	9	San Antonio Palopo	3	Marzo	2023-01-03T00:00:00	2024-11-08T17:00:00	1	Precipitación	0
156868	7	Sololá	712	San Antonio Palopó	9	San Antonio Palopo	3	Marzo	2023-01-03T00:00:00	2024-11-08T17:00:00	8	Radiación solar	128
156869	7	Sololá	712	San Antonio Palopó	9	San Antonio Palopo	3	Marzo	2023-01-03T00:00:00	2024-11-08T18:00:00	2	Temperatura media	20.4
156870	7	Sololá	712	San Antonio Palopó	9	San Antonio Palopo	3	Marzo	2023-01-03T00:00:00	2024-11-08T18:00:00	4	Temperatura máxima	20.8
156871	7	Sololá	712	San Antonio Palopó	9	San Antonio Palopo	3	Marzo	2023-01-03T00:00:00	2024-11-08T18:00:00	3	Temperatura mínima	20.2
156872	7	Sololá	712	San Antonio Palopó	9	San Antonio Palopo	3	Marzo	2023-01-03T00:00:00	2024-11-08T18:00:00	5	Humedad	81
156873	7	Sololá	712	San Antonio Palopó	9	San Antonio Palopo	3	Marzo	2023-01-03T00:00:00	2024-11-08T18:00:00	6	Velocidad del viento	4.8
156874	7	Sololá	712	San Antonio Palopó	9	San Antonio Palopo	3	Marzo	2023-01-03T00:00:00	2024-11-08T18:00:00	7	Dirección del viento	4.83
156875	7	Sololá	712	San Antonio Palopó	9	San Antonio Palopo	3	Marzo	2023-01-03T00:00:00	2024-11-08T18:00:00	1	Precipitación	0
156876	7	Sololá	712	San Antonio Palopó	9	San Antonio Palopo	3	Marzo	2023-01-03T00:00:00	2024-11-08T18:00:00	8	Radiación solar	28
156877	7	Sololá	712	San Antonio Palopó	9	San Antonio Palopo	3	Marzo	2023-01-03T00:00:00	2024-11-08T19:00:00	2	Temperatura media	20.1
156878	7	Sololá	712	San Antonio Palopó	9	San Antonio Palopo	3	Marzo	2023-01-03T00:00:00	2024-11-08T19:00:00	4	Temperatura máxima	20.5
156879	7	Sololá	712	San Antonio Palopó	9	San Antonio Palopo	3	Marzo	2023-01-03T00:00:00	2024-11-08T19:00:00	3	Temperatura mínima	20.1
156880	7	Sololá	712	San Antonio Palopó	9	San Antonio Palopo	3	Marzo	2023-01-03T00:00:00	2024-11-08T19:00:00	5	Humedad	87
156881	7	Sololá	712	San Antonio Palopó	9	San Antonio Palopo	3	Marzo	2023-01-03T00:00:00	2024-11-08T19:00:00	6	Velocidad del viento	1.6
156882	7	Sololá	712	San Antonio Palopó	9	San Antonio Palopo	3	Marzo	2023-01-03T00:00:00	2024-11-08T19:00:00	7	Dirección del viento	1.61
156883	7	Sololá	712	San Antonio Palopó	9	San Antonio Palopo	3	Marzo	2023-01-03T00:00:00	2024-11-08T19:00:00	1	Precipitación	0
156884	7	Sololá	712	San Antonio Palopó	9	San Antonio Palopo	3	Marzo	2023-01-03T00:00:00	2024-11-08T19:00:00	8	Radiación solar	0
156885	7	Sololá	712	San Antonio Palopó	9	San Antonio Palopo	3	Marzo	2023-01-03T00:00:00	2024-11-08T20:00:00	2	Temperatura media	19.2
156886	7	Sololá	712	San Antonio Palopó	9	San Antonio Palopo	3	Marzo	2023-01-03T00:00:00	2024-11-08T20:00:00	4	Temperatura máxima	20.1
156887	7	Sololá	712	San Antonio Palopó	9	San Antonio Palopo	3	Marzo	2023-01-03T00:00:00	2024-11-08T20:00:00	3	Temperatura mínima	19.2
156888	7	Sololá	712	San Antonio Palopó	9	San Antonio Palopo	3	Marzo	2023-01-03T00:00:00	2024-11-08T20:00:00	5	Humedad	87
156889	7	Sololá	712	San Antonio Palopó	9	San Antonio Palopo	3	Marzo	2023-01-03T00:00:00	2024-11-08T20:00:00	6	Velocidad del viento	4.8
156890	7	Sololá	712	San Antonio Palopó	9	San Antonio Palopo	3	Marzo	2023-01-03T00:00:00	2024-11-08T20:00:00	7	Dirección del viento	4.83
156891	7	Sololá	712	San Antonio Palopó	9	San Antonio Palopo	3	Marzo	2023-01-03T00:00:00	2024-11-08T20:00:00	1	Precipitación	0
156892	7	Sololá	712	San Antonio Palopó	9	San Antonio Palopo	3	Marzo	2023-01-03T00:00:00	2024-11-08T20:00:00	8	Radiación solar	0
156893	7	Sololá	712	San Antonio Palopó	9	San Antonio Palopo	3	Marzo	2023-01-03T00:00:00	2024-11-08T21:00:00	2	Temperatura media	18.7
156894	7	Sololá	712	San Antonio Palopó	9	San Antonio Palopo	3	Marzo	2023-01-03T00:00:00	2024-11-08T21:00:00	4	Temperatura máxima	19.2
156895	7	Sololá	712	San Antonio Palopó	9	San Antonio Palopo	3	Marzo	2023-01-03T00:00:00	2024-11-08T21:00:00	3	Temperatura mínima	18.7
156896	7	Sololá	712	San Antonio Palopó	9	San Antonio Palopo	3	Marzo	2023-01-03T00:00:00	2024-11-08T21:00:00	5	Humedad	82
156897	7	Sololá	712	San Antonio Palopó	9	San Antonio Palopo	3	Marzo	2023-01-03T00:00:00	2024-11-08T21:00:00	6	Velocidad del viento	1.6
156898	7	Sololá	712	San Antonio Palopó	9	San Antonio Palopo	3	Marzo	2023-01-03T00:00:00	2024-11-08T21:00:00	7	Dirección del viento	1.61
156899	7	Sololá	712	San Antonio Palopó	9	San Antonio Palopo	3	Marzo	2023-01-03T00:00:00	2024-11-08T21:00:00	1	Precipitación	0
156900	7	Sololá	712	San Antonio Palopó	9	San Antonio Palopo	3	Marzo	2023-01-03T00:00:00	2024-11-08T21:00:00	8	Radiación solar	0
156901	7	Sololá	712	San Antonio Palopó	9	San Antonio Palopo	3	Marzo	2023-01-03T00:00:00	2024-11-08T22:00:00	2	Temperatura media	18.8
156902	7	Sololá	712	San Antonio Palopó	9	San Antonio Palopo	3	Marzo	2023-01-03T00:00:00	2024-11-08T22:00:00	4	Temperatura máxima	18.8
156903	7	Sololá	712	San Antonio Palopó	9	San Antonio Palopo	3	Marzo	2023-01-03T00:00:00	2024-11-08T22:00:00	3	Temperatura mínima	18.5
156904	7	Sololá	712	San Antonio Palopó	9	San Antonio Palopo	3	Marzo	2023-01-03T00:00:00	2024-11-08T22:00:00	5	Humedad	81
156905	7	Sololá	712	San Antonio Palopó	9	San Antonio Palopo	3	Marzo	2023-01-03T00:00:00	2024-11-08T22:00:00	6	Velocidad del viento	1.6
156906	7	Sololá	712	San Antonio Palopó	9	San Antonio Palopo	3	Marzo	2023-01-03T00:00:00	2024-11-08T22:00:00	7	Dirección del viento	1.61
156907	7	Sololá	712	San Antonio Palopó	9	San Antonio Palopo	3	Marzo	2023-01-03T00:00:00	2024-11-08T22:00:00	1	Precipitación	0
156908	7	Sololá	712	San Antonio Palopó	9	San Antonio Palopo	3	Marzo	2023-01-03T00:00:00	2024-11-08T22:00:00	8	Radiación solar	0
156909	7	Sololá	712	San Antonio Palopó	9	San Antonio Palopo	3	Marzo	2023-01-03T00:00:00	2024-11-08T23:00:00	2	Temperatura media	18.7
156910	7	Sololá	712	San Antonio Palopó	9	San Antonio Palopo	3	Marzo	2023-01-03T00:00:00	2024-11-08T23:00:00	4	Temperatura máxima	18.8
156911	7	Sololá	712	San Antonio Palopó	9	San Antonio Palopo	3	Marzo	2023-01-03T00:00:00	2024-11-08T23:00:00	3	Temperatura mínima	18.7
156912	7	Sololá	712	San Antonio Palopó	9	San Antonio Palopo	3	Marzo	2023-01-03T00:00:00	2024-11-08T23:00:00	5	Humedad	80
156913	7	Sololá	712	San Antonio Palopó	9	San Antonio Palopo	3	Marzo	2023-01-03T00:00:00	2024-11-08T23:00:00	6	Velocidad del viento	3.2
156914	7	Sololá	712	San Antonio Palopó	9	San Antonio Palopo	3	Marzo	2023-01-03T00:00:00	2024-11-08T23:00:00	7	Dirección del viento	3.22
156915	7	Sololá	712	San Antonio Palopó	9	San Antonio Palopo	3	Marzo	2023-01-03T00:00:00	2024-11-08T23:00:00	1	Precipitación	0
156916	7	Sololá	712	San Antonio Palopó	9	San Antonio Palopo	3	Marzo	2023-01-03T00:00:00	2024-11-08T23:00:00	8	Radiación solar	0
156917	7	Sololá	712	San Antonio Palopó	9	San Antonio Palopo	3	Marzo	2023-02-03T00:00:00	2024-11-08T00:00:00	2	Temperatura media	18.1
156918	7	Sololá	712	San Antonio Palopó	9	San Antonio Palopo	3	Marzo	2023-02-03T00:00:00	2024-11-08T00:00:00	4	Temperatura máxima	18.7
156919	7	Sololá	712	San Antonio Palopó	9	San Antonio Palopo	3	Marzo	2023-02-03T00:00:00	2024-11-08T00:00:00	3	Temperatura mínima	18.1
156920	7	Sololá	712	San Antonio Palopó	9	San Antonio Palopo	3	Marzo	2023-02-03T00:00:00	2024-11-08T00:00:00	5	Humedad	82
156921	7	Sololá	712	San Antonio Palopó	9	San Antonio Palopo	3	Marzo	2023-02-03T00:00:00	2024-11-08T00:00:00	6	Velocidad del viento	3.2
156922	7	Sololá	712	San Antonio Palopó	9	San Antonio Palopo	3	Marzo	2023-02-03T00:00:00	2024-11-08T00:00:00	7	Dirección del viento	3.22
156923	7	Sololá	712	San Antonio Palopó	9	San Antonio Palopo	3	Marzo	2023-02-03T00:00:00	2024-11-08T00:00:00	1	Precipitación	0
156924	7	Sololá	712	San Antonio Palopó	9	San Antonio Palopo	3	Marzo	2023-02-03T00:00:00	2024-11-08T00:00:00	8	Radiación solar	0
156925	7	Sololá	712	San Antonio Palopó	9	San Antonio Palopo	3	Marzo	2023-02-03T00:00:00	2024-11-08T01:00:00	2	Temperatura media	18.3
156926	7	Sololá	712	San Antonio Palopó	9	San Antonio Palopo	3	Marzo	2023-02-03T00:00:00	2024-11-08T01:00:00	4	Temperatura máxima	18.4
156927	7	Sololá	712	San Antonio Palopó	9	San Antonio Palopo	3	Marzo	2023-02-03T00:00:00	2024-11-08T01:00:00	3	Temperatura mínima	18.1
156928	7	Sololá	712	San Antonio Palopó	9	San Antonio Palopo	3	Marzo	2023-02-03T00:00:00	2024-11-08T01:00:00	5	Humedad	87
156929	7	Sololá	712	San Antonio Palopó	9	San Antonio Palopo	3	Marzo	2023-02-03T00:00:00	2024-11-08T01:00:00	6	Velocidad del viento	1.6
156930	7	Sololá	712	San Antonio Palopó	9	San Antonio Palopo	3	Marzo	2023-02-03T00:00:00	2024-11-08T01:00:00	7	Dirección del viento	1.61
156931	7	Sololá	712	San Antonio Palopó	9	San Antonio Palopo	3	Marzo	2023-02-03T00:00:00	2024-11-08T01:00:00	1	Precipitación	0
156932	7	Sololá	712	San Antonio Palopó	9	San Antonio Palopo	3	Marzo	2023-02-03T00:00:00	2024-11-08T01:00:00	8	Radiación solar	0
156933	7	Sololá	712	San Antonio Palopó	9	San Antonio Palopo	3	Marzo	2023-02-03T00:00:00	2024-11-08T02:00:00	2	Temperatura media	18.3
156934	7	Sololá	712	San Antonio Palopó	9	San Antonio Palopo	3	Marzo	2023-02-03T00:00:00	2024-11-08T02:00:00	4	Temperatura máxima	18.5
156935	7	Sololá	712	San Antonio Palopó	9	San Antonio Palopo	3	Marzo	2023-02-03T00:00:00	2024-11-08T02:00:00	3	Temperatura mínima	18.3
156936	7	Sololá	712	San Antonio Palopó	9	San Antonio Palopo	3	Marzo	2023-02-03T00:00:00	2024-11-08T02:00:00	5	Humedad	84
156937	7	Sololá	712	San Antonio Palopó	9	San Antonio Palopo	3	Marzo	2023-02-03T00:00:00	2024-11-08T02:00:00	6	Velocidad del viento	0
156938	7	Sololá	712	San Antonio Palopó	9	San Antonio Palopo	3	Marzo	2023-02-03T00:00:00	2024-11-08T02:00:00	7	Dirección del viento	0
156939	7	Sololá	712	San Antonio Palopó	9	San Antonio Palopo	3	Marzo	2023-02-03T00:00:00	2024-11-08T02:00:00	1	Precipitación	0
156940	7	Sololá	712	San Antonio Palopó	9	San Antonio Palopo	3	Marzo	2023-02-03T00:00:00	2024-11-08T02:00:00	8	Radiación solar	0
156941	7	Sololá	712	San Antonio Palopó	9	San Antonio Palopo	3	Marzo	2023-02-03T00:00:00	2024-11-08T03:00:00	2	Temperatura media	18
156942	7	Sololá	712	San Antonio Palopó	9	San Antonio Palopo	3	Marzo	2023-02-03T00:00:00	2024-11-08T03:00:00	4	Temperatura máxima	18.4
156943	7	Sololá	712	San Antonio Palopó	9	San Antonio Palopo	3	Marzo	2023-02-03T00:00:00	2024-11-08T03:00:00	3	Temperatura mínima	18
156944	7	Sololá	712	San Antonio Palopó	9	San Antonio Palopo	3	Marzo	2023-02-03T00:00:00	2024-11-08T03:00:00	5	Humedad	86
156945	7	Sololá	712	San Antonio Palopó	9	San Antonio Palopo	3	Marzo	2023-02-03T00:00:00	2024-11-08T03:00:00	6	Velocidad del viento	1.6
156946	7	Sololá	712	San Antonio Palopó	9	San Antonio Palopo	3	Marzo	2023-02-03T00:00:00	2024-11-08T03:00:00	7	Dirección del viento	1.61
156947	7	Sololá	712	San Antonio Palopó	9	San Antonio Palopo	3	Marzo	2023-02-03T00:00:00	2024-11-08T03:00:00	1	Precipitación	0
156948	7	Sololá	712	San Antonio Palopó	9	San Antonio Palopo	3	Marzo	2023-02-03T00:00:00	2024-11-08T03:00:00	8	Radiación solar	0
156949	7	Sololá	712	San Antonio Palopó	9	San Antonio Palopo	3	Marzo	2023-02-03T00:00:00	2024-11-08T04:00:00	2	Temperatura media	17.7
156950	7	Sololá	712	San Antonio Palopó	9	San Antonio Palopo	3	Marzo	2023-02-03T00:00:00	2024-11-08T04:00:00	4	Temperatura máxima	18.1
156951	7	Sololá	712	San Antonio Palopó	9	San Antonio Palopo	3	Marzo	2023-02-03T00:00:00	2024-11-08T04:00:00	3	Temperatura mínima	17.7
156952	7	Sololá	712	San Antonio Palopó	9	San Antonio Palopo	3	Marzo	2023-02-03T00:00:00	2024-11-08T04:00:00	5	Humedad	81
156953	7	Sololá	712	San Antonio Palopó	9	San Antonio Palopo	3	Marzo	2023-02-03T00:00:00	2024-11-08T04:00:00	6	Velocidad del viento	3.2
156954	7	Sololá	712	San Antonio Palopó	9	San Antonio Palopo	3	Marzo	2023-02-03T00:00:00	2024-11-08T04:00:00	7	Dirección del viento	3.22
156955	7	Sololá	712	San Antonio Palopó	9	San Antonio Palopo	3	Marzo	2023-02-03T00:00:00	2024-11-08T04:00:00	1	Precipitación	0
156956	7	Sololá	712	San Antonio Palopó	9	San Antonio Palopo	3	Marzo	2023-02-03T00:00:00	2024-11-08T04:00:00	8	Radiación solar	0
156957	7	Sololá	712	San Antonio Palopó	9	San Antonio Palopo	3	Marzo	2023-02-03T00:00:00	2024-11-08T05:00:00	2	Temperatura media	17.1
156958	7	Sololá	712	San Antonio Palopó	9	San Antonio Palopo	3	Marzo	2023-02-03T00:00:00	2024-11-08T05:00:00	4	Temperatura máxima	17.7
156959	7	Sololá	712	San Antonio Palopó	9	San Antonio Palopo	3	Marzo	2023-02-03T00:00:00	2024-11-08T05:00:00	3	Temperatura mínima	17
156960	7	Sololá	712	San Antonio Palopó	9	San Antonio Palopo	3	Marzo	2023-02-03T00:00:00	2024-11-08T05:00:00	5	Humedad	81
156961	7	Sololá	712	San Antonio Palopó	9	San Antonio Palopo	3	Marzo	2023-02-03T00:00:00	2024-11-08T05:00:00	6	Velocidad del viento	1.6
156962	7	Sololá	712	San Antonio Palopó	9	San Antonio Palopo	3	Marzo	2023-02-03T00:00:00	2024-11-08T05:00:00	7	Dirección del viento	1.61
156963	7	Sololá	712	San Antonio Palopó	9	San Antonio Palopo	3	Marzo	2023-02-03T00:00:00	2024-11-08T05:00:00	1	Precipitación	0
156964	7	Sololá	712	San Antonio Palopó	9	San Antonio Palopo	3	Marzo	2023-02-03T00:00:00	2024-11-08T05:00:00	8	Radiación solar	0
156965	7	Sololá	712	San Antonio Palopó	9	San Antonio Palopo	3	Marzo	2023-02-03T00:00:00	2024-11-08T06:00:00	2	Temperatura media	17
156966	7	Sololá	712	San Antonio Palopó	9	San Antonio Palopo	3	Marzo	2023-02-03T00:00:00	2024-11-08T06:00:00	4	Temperatura máxima	17.1
156967	7	Sololá	712	San Antonio Palopó	9	San Antonio Palopo	3	Marzo	2023-02-03T00:00:00	2024-11-08T06:00:00	3	Temperatura mínima	16.8
156968	7	Sololá	712	San Antonio Palopó	9	San Antonio Palopo	3	Marzo	2023-02-03T00:00:00	2024-11-08T06:00:00	5	Humedad	80
156969	7	Sololá	712	San Antonio Palopó	9	San Antonio Palopo	3	Marzo	2023-02-03T00:00:00	2024-11-08T06:00:00	6	Velocidad del viento	3.2
156970	7	Sololá	712	San Antonio Palopó	9	San Antonio Palopo	3	Marzo	2023-02-03T00:00:00	2024-11-08T06:00:00	7	Dirección del viento	3.22
156971	7	Sololá	712	San Antonio Palopó	9	San Antonio Palopo	3	Marzo	2023-02-03T00:00:00	2024-11-08T06:00:00	1	Precipitación	0
156972	7	Sololá	712	San Antonio Palopó	9	San Antonio Palopo	3	Marzo	2023-02-03T00:00:00	2024-11-08T06:00:00	8	Radiación solar	0
156973	7	Sololá	712	San Antonio Palopó	9	San Antonio Palopo	3	Marzo	2023-02-03T00:00:00	2024-11-08T07:00:00	2	Temperatura media	16.4
156974	7	Sololá	712	San Antonio Palopó	9	San Antonio Palopo	3	Marzo	2023-02-03T00:00:00	2024-11-08T07:00:00	4	Temperatura máxima	17.1
156975	7	Sololá	712	San Antonio Palopó	9	San Antonio Palopo	3	Marzo	2023-02-03T00:00:00	2024-11-08T07:00:00	3	Temperatura mínima	16.4
156976	7	Sololá	712	San Antonio Palopó	9	San Antonio Palopo	3	Marzo	2023-02-03T00:00:00	2024-11-08T07:00:00	5	Humedad	80
156977	7	Sololá	712	San Antonio Palopó	9	San Antonio Palopo	3	Marzo	2023-02-03T00:00:00	2024-11-08T07:00:00	6	Velocidad del viento	1.6
156978	7	Sololá	712	San Antonio Palopó	9	San Antonio Palopo	3	Marzo	2023-02-03T00:00:00	2024-11-08T07:00:00	7	Dirección del viento	1.61
156979	7	Sololá	712	San Antonio Palopó	9	San Antonio Palopo	3	Marzo	2023-02-03T00:00:00	2024-11-08T07:00:00	1	Precipitación	0
156980	7	Sololá	712	San Antonio Palopó	9	San Antonio Palopo	3	Marzo	2023-02-03T00:00:00	2024-11-08T07:00:00	8	Radiación solar	10
156981	7	Sololá	712	San Antonio Palopó	9	San Antonio Palopo	3	Marzo	2023-02-03T00:00:00	2024-11-08T08:00:00	2	Temperatura media	17.4
156982	7	Sololá	712	San Antonio Palopó	9	San Antonio Palopo	3	Marzo	2023-02-03T00:00:00	2024-11-08T08:00:00	4	Temperatura máxima	17.4
156983	7	Sololá	712	San Antonio Palopó	9	San Antonio Palopo	3	Marzo	2023-02-03T00:00:00	2024-11-08T08:00:00	3	Temperatura mínima	16.4
156984	7	Sololá	712	San Antonio Palopó	9	San Antonio Palopo	3	Marzo	2023-02-03T00:00:00	2024-11-08T08:00:00	5	Humedad	80
156985	7	Sololá	712	San Antonio Palopó	9	San Antonio Palopo	3	Marzo	2023-02-03T00:00:00	2024-11-08T08:00:00	6	Velocidad del viento	1.6
156986	7	Sololá	712	San Antonio Palopó	9	San Antonio Palopo	3	Marzo	2023-02-03T00:00:00	2024-11-08T08:00:00	7	Dirección del viento	1.61
156987	7	Sololá	712	San Antonio Palopó	9	San Antonio Palopo	3	Marzo	2023-02-03T00:00:00	2024-11-08T08:00:00	1	Precipitación	0
156988	7	Sololá	712	San Antonio Palopó	9	San Antonio Palopo	3	Marzo	2023-02-03T00:00:00	2024-11-08T08:00:00	8	Radiación solar	65
156989	7	Sololá	712	San Antonio Palopó	9	San Antonio Palopo	3	Marzo	2023-02-03T00:00:00	2024-11-08T09:00:00	2	Temperatura media	19.6
156990	7	Sololá	712	San Antonio Palopó	9	San Antonio Palopo	3	Marzo	2023-02-03T00:00:00	2024-11-08T09:00:00	4	Temperatura máxima	19.7
156991	7	Sololá	712	San Antonio Palopó	9	San Antonio Palopo	3	Marzo	2023-02-03T00:00:00	2024-11-08T09:00:00	3	Temperatura mínima	17.4
156992	7	Sololá	712	San Antonio Palopó	9	San Antonio Palopo	3	Marzo	2023-02-03T00:00:00	2024-11-08T09:00:00	5	Humedad	73
156993	7	Sololá	712	San Antonio Palopó	9	San Antonio Palopo	3	Marzo	2023-02-03T00:00:00	2024-11-08T09:00:00	6	Velocidad del viento	3.2
156994	7	Sololá	712	San Antonio Palopó	9	San Antonio Palopo	3	Marzo	2023-02-03T00:00:00	2024-11-08T09:00:00	7	Dirección del viento	3.22
156995	7	Sololá	712	San Antonio Palopó	9	San Antonio Palopo	3	Marzo	2023-02-03T00:00:00	2024-11-08T09:00:00	1	Precipitación	0
156996	7	Sololá	712	San Antonio Palopó	9	San Antonio Palopo	3	Marzo	2023-02-03T00:00:00	2024-11-08T09:00:00	8	Radiación solar	331
156997	7	Sololá	712	San Antonio Palopó	9	San Antonio Palopo	3	Marzo	2023-02-03T00:00:00	2024-11-08T10:00:00	2	Temperatura media	20
156998	7	Sololá	712	San Antonio Palopó	9	San Antonio Palopo	3	Marzo	2023-02-03T00:00:00	2024-11-08T10:00:00	4	Temperatura máxima	20.1
156999	7	Sololá	712	San Antonio Palopó	9	San Antonio Palopo	3	Marzo	2023-02-03T00:00:00	2024-11-08T10:00:00	3	Temperatura mínima	19.3
157000	7	Sololá	712	San Antonio Palopó	9	San Antonio Palopo	3	Marzo	2023-02-03T00:00:00	2024-11-08T10:00:00	5	Humedad	69
157001	7	Sololá	712	San Antonio Palopó	9	San Antonio Palopo	3	Marzo	2023-02-03T00:00:00	2024-11-08T10:00:00	6	Velocidad del viento	3.2
157002	7	Sololá	712	San Antonio Palopó	9	San Antonio Palopo	3	Marzo	2023-02-03T00:00:00	2024-11-08T10:00:00	7	Dirección del viento	3.22
157003	7	Sololá	712	San Antonio Palopó	9	San Antonio Palopo	3	Marzo	2023-02-03T00:00:00	2024-11-08T10:00:00	1	Precipitación	0
157004	7	Sololá	712	San Antonio Palopó	9	San Antonio Palopo	3	Marzo	2023-02-03T00:00:00	2024-11-08T10:00:00	8	Radiación solar	592
157005	7	Sololá	712	San Antonio Palopó	9	San Antonio Palopo	3	Marzo	2023-02-03T00:00:00	2024-11-08T11:00:00	2	Temperatura media	21.6
157006	7	Sololá	712	San Antonio Palopó	9	San Antonio Palopo	3	Marzo	2023-02-03T00:00:00	2024-11-08T11:00:00	4	Temperatura máxima	21.6
157007	7	Sololá	712	San Antonio Palopó	9	San Antonio Palopo	3	Marzo	2023-02-03T00:00:00	2024-11-08T11:00:00	3	Temperatura mínima	19.9
157008	7	Sololá	712	San Antonio Palopó	9	San Antonio Palopo	3	Marzo	2023-02-03T00:00:00	2024-11-08T11:00:00	5	Humedad	61
157009	7	Sololá	712	San Antonio Palopó	9	San Antonio Palopo	3	Marzo	2023-02-03T00:00:00	2024-11-08T11:00:00	6	Velocidad del viento	3.2
157010	7	Sololá	712	San Antonio Palopó	9	San Antonio Palopo	3	Marzo	2023-02-03T00:00:00	2024-11-08T11:00:00	7	Dirección del viento	3.22
157011	7	Sololá	712	San Antonio Palopó	9	San Antonio Palopo	3	Marzo	2023-02-03T00:00:00	2024-11-08T11:00:00	1	Precipitación	0
157012	7	Sololá	712	San Antonio Palopó	9	San Antonio Palopo	3	Marzo	2023-02-03T00:00:00	2024-11-08T11:00:00	8	Radiación solar	767
157013	7	Sololá	712	San Antonio Palopó	9	San Antonio Palopo	3	Marzo	2023-02-03T00:00:00	2024-11-08T12:00:00	2	Temperatura media	22.6
157014	7	Sololá	712	San Antonio Palopó	9	San Antonio Palopo	3	Marzo	2023-02-03T00:00:00	2024-11-08T12:00:00	4	Temperatura máxima	22.6
157015	7	Sololá	712	San Antonio Palopó	9	San Antonio Palopo	3	Marzo	2023-02-03T00:00:00	2024-11-08T12:00:00	3	Temperatura mínima	21.5
157016	7	Sololá	712	San Antonio Palopó	9	San Antonio Palopo	3	Marzo	2023-02-03T00:00:00	2024-11-08T12:00:00	5	Humedad	62
157017	7	Sololá	712	San Antonio Palopó	9	San Antonio Palopo	3	Marzo	2023-02-03T00:00:00	2024-11-08T12:00:00	6	Velocidad del viento	3.2
157018	7	Sololá	712	San Antonio Palopó	9	San Antonio Palopo	3	Marzo	2023-02-03T00:00:00	2024-11-08T12:00:00	7	Dirección del viento	3.22
157019	7	Sololá	712	San Antonio Palopó	9	San Antonio Palopo	3	Marzo	2023-02-03T00:00:00	2024-11-08T12:00:00	1	Precipitación	0
157020	7	Sololá	712	San Antonio Palopó	9	San Antonio Palopo	3	Marzo	2023-02-03T00:00:00	2024-11-08T12:00:00	8	Radiación solar	837
157021	7	Sololá	712	San Antonio Palopó	9	San Antonio Palopo	3	Marzo	2023-02-03T00:00:00	2024-11-08T13:00:00	2	Temperatura media	24.1
157022	7	Sololá	712	San Antonio Palopó	9	San Antonio Palopo	3	Marzo	2023-02-03T00:00:00	2024-11-08T13:00:00	4	Temperatura máxima	24.3
157023	7	Sololá	712	San Antonio Palopó	9	San Antonio Palopo	3	Marzo	2023-02-03T00:00:00	2024-11-08T13:00:00	3	Temperatura mínima	22.5
157024	7	Sololá	712	San Antonio Palopó	9	San Antonio Palopo	3	Marzo	2023-02-03T00:00:00	2024-11-08T13:00:00	5	Humedad	46
157025	7	Sololá	712	San Antonio Palopó	9	San Antonio Palopo	3	Marzo	2023-02-03T00:00:00	2024-11-08T13:00:00	6	Velocidad del viento	8
157026	7	Sololá	712	San Antonio Palopó	9	San Antonio Palopo	3	Marzo	2023-02-03T00:00:00	2024-11-08T13:00:00	7	Dirección del viento	8.05
157027	7	Sololá	712	San Antonio Palopó	9	San Antonio Palopo	3	Marzo	2023-02-03T00:00:00	2024-11-08T13:00:00	1	Precipitación	0
157028	7	Sololá	712	San Antonio Palopó	9	San Antonio Palopo	3	Marzo	2023-02-03T00:00:00	2024-11-08T13:00:00	8	Radiación solar	856
157029	7	Sololá	712	San Antonio Palopó	9	San Antonio Palopo	3	Marzo	2023-02-03T00:00:00	2024-11-08T14:00:00	2	Temperatura media	23.5
157030	7	Sololá	712	San Antonio Palopó	9	San Antonio Palopo	3	Marzo	2023-02-03T00:00:00	2024-11-08T14:00:00	4	Temperatura máxima	24.2
157031	7	Sololá	712	San Antonio Palopó	9	San Antonio Palopo	3	Marzo	2023-02-03T00:00:00	2024-11-08T14:00:00	3	Temperatura mínima	23.3
157032	7	Sololá	712	San Antonio Palopó	9	San Antonio Palopo	3	Marzo	2023-02-03T00:00:00	2024-11-08T14:00:00	5	Humedad	56
157033	7	Sololá	712	San Antonio Palopó	9	San Antonio Palopo	3	Marzo	2023-02-03T00:00:00	2024-11-08T14:00:00	6	Velocidad del viento	14.5
157034	7	Sololá	712	San Antonio Palopó	9	San Antonio Palopo	3	Marzo	2023-02-03T00:00:00	2024-11-08T14:00:00	7	Dirección del viento	14.48
157035	7	Sololá	712	San Antonio Palopó	9	San Antonio Palopo	3	Marzo	2023-02-03T00:00:00	2024-11-08T14:00:00	1	Precipitación	0
157036	7	Sololá	712	San Antonio Palopó	9	San Antonio Palopo	3	Marzo	2023-02-03T00:00:00	2024-11-08T14:00:00	8	Radiación solar	826
157037	7	Sololá	712	San Antonio Palopó	9	San Antonio Palopo	3	Marzo	2023-02-03T00:00:00	2024-11-08T15:00:00	2	Temperatura media	22.9
157038	7	Sololá	712	San Antonio Palopó	9	San Antonio Palopo	3	Marzo	2023-02-03T00:00:00	2024-11-08T15:00:00	4	Temperatura máxima	23.4
157039	7	Sololá	712	San Antonio Palopó	9	San Antonio Palopo	3	Marzo	2023-02-03T00:00:00	2024-11-08T15:00:00	3	Temperatura mínima	22.9
157040	7	Sololá	712	San Antonio Palopó	9	San Antonio Palopo	3	Marzo	2023-02-03T00:00:00	2024-11-08T15:00:00	5	Humedad	64
157041	7	Sololá	712	San Antonio Palopó	9	San Antonio Palopo	3	Marzo	2023-02-03T00:00:00	2024-11-08T15:00:00	6	Velocidad del viento	14.5
157042	7	Sololá	712	San Antonio Palopó	9	San Antonio Palopo	3	Marzo	2023-02-03T00:00:00	2024-11-08T15:00:00	7	Dirección del viento	14.48
157043	7	Sololá	712	San Antonio Palopó	9	San Antonio Palopo	3	Marzo	2023-02-03T00:00:00	2024-11-08T15:00:00	1	Precipitación	0
157044	7	Sololá	712	San Antonio Palopó	9	San Antonio Palopo	3	Marzo	2023-02-03T00:00:00	2024-11-08T15:00:00	8	Radiación solar	673
157045	7	Sololá	712	San Antonio Palopó	9	San Antonio Palopo	3	Marzo	2023-02-03T00:00:00	2024-11-08T16:00:00	2	Temperatura media	22.1
157046	7	Sololá	712	San Antonio Palopó	9	San Antonio Palopo	3	Marzo	2023-02-03T00:00:00	2024-11-08T16:00:00	4	Temperatura máxima	23.1
157047	7	Sololá	712	San Antonio Palopó	9	San Antonio Palopo	3	Marzo	2023-02-03T00:00:00	2024-11-08T16:00:00	3	Temperatura mínima	22.1
157048	7	Sololá	712	San Antonio Palopó	9	San Antonio Palopo	3	Marzo	2023-02-03T00:00:00	2024-11-08T16:00:00	5	Humedad	68
157049	7	Sololá	712	San Antonio Palopó	9	San Antonio Palopo	3	Marzo	2023-02-03T00:00:00	2024-11-08T16:00:00	6	Velocidad del viento	14.5
157050	7	Sololá	712	San Antonio Palopó	9	San Antonio Palopo	3	Marzo	2023-02-03T00:00:00	2024-11-08T16:00:00	7	Dirección del viento	14.48
157051	7	Sololá	712	San Antonio Palopó	9	San Antonio Palopo	3	Marzo	2023-02-03T00:00:00	2024-11-08T16:00:00	1	Precipitación	0
157052	7	Sololá	712	San Antonio Palopó	9	San Antonio Palopo	3	Marzo	2023-02-03T00:00:00	2024-11-08T16:00:00	8	Radiación solar	452
157053	7	Sololá	712	San Antonio Palopó	9	San Antonio Palopo	3	Marzo	2023-02-03T00:00:00	2024-11-08T17:00:00	2	Temperatura media	21.9
157054	7	Sololá	712	San Antonio Palopó	9	San Antonio Palopo	3	Marzo	2023-02-03T00:00:00	2024-11-08T17:00:00	4	Temperatura máxima	22.2
157055	7	Sololá	712	San Antonio Palopó	9	San Antonio Palopo	3	Marzo	2023-02-03T00:00:00	2024-11-08T17:00:00	3	Temperatura mínima	21.3
157056	7	Sololá	712	San Antonio Palopó	9	San Antonio Palopo	3	Marzo	2023-02-03T00:00:00	2024-11-08T17:00:00	5	Humedad	70
157057	7	Sololá	712	San Antonio Palopó	9	San Antonio Palopo	3	Marzo	2023-02-03T00:00:00	2024-11-08T17:00:00	6	Velocidad del viento	12.9
157058	7	Sololá	712	San Antonio Palopó	9	San Antonio Palopo	3	Marzo	2023-02-03T00:00:00	2024-11-08T17:00:00	7	Dirección del viento	12.87
157059	7	Sololá	712	San Antonio Palopó	9	San Antonio Palopo	3	Marzo	2023-02-03T00:00:00	2024-11-08T17:00:00	1	Precipitación	0
157060	7	Sololá	712	San Antonio Palopó	9	San Antonio Palopo	3	Marzo	2023-02-03T00:00:00	2024-11-08T17:00:00	8	Radiación solar	237
157061	7	Sololá	712	San Antonio Palopó	9	San Antonio Palopo	3	Marzo	2023-02-03T00:00:00	2024-11-08T18:00:00	2	Temperatura media	20.3
157062	7	Sololá	712	San Antonio Palopó	9	San Antonio Palopo	3	Marzo	2023-02-03T00:00:00	2024-11-08T18:00:00	4	Temperatura máxima	21.9
157063	7	Sololá	712	San Antonio Palopó	9	San Antonio Palopo	3	Marzo	2023-02-03T00:00:00	2024-11-08T18:00:00	3	Temperatura mínima	20.2
157064	7	Sololá	712	San Antonio Palopó	9	San Antonio Palopo	3	Marzo	2023-02-03T00:00:00	2024-11-08T18:00:00	5	Humedad	79
157065	7	Sololá	712	San Antonio Palopó	9	San Antonio Palopo	3	Marzo	2023-02-03T00:00:00	2024-11-08T18:00:00	6	Velocidad del viento	9.7
157066	7	Sololá	712	San Antonio Palopó	9	San Antonio Palopo	3	Marzo	2023-02-03T00:00:00	2024-11-08T18:00:00	7	Dirección del viento	9.66
157067	7	Sololá	712	San Antonio Palopó	9	San Antonio Palopo	3	Marzo	2023-02-03T00:00:00	2024-11-08T18:00:00	1	Precipitación	0
157068	7	Sololá	712	San Antonio Palopó	9	San Antonio Palopo	3	Marzo	2023-02-03T00:00:00	2024-11-08T18:00:00	8	Radiación solar	73
157069	7	Sololá	712	San Antonio Palopó	9	San Antonio Palopo	3	Marzo	2023-02-03T00:00:00	2024-11-08T19:00:00	2	Temperatura media	19.3
157070	7	Sololá	712	San Antonio Palopó	9	San Antonio Palopo	3	Marzo	2023-02-03T00:00:00	2024-11-08T19:00:00	4	Temperatura máxima	20.3
157071	7	Sololá	712	San Antonio Palopó	9	San Antonio Palopo	3	Marzo	2023-02-03T00:00:00	2024-11-08T19:00:00	3	Temperatura mínima	19.2
157072	7	Sololá	712	San Antonio Palopó	9	San Antonio Palopo	3	Marzo	2023-02-03T00:00:00	2024-11-08T19:00:00	5	Humedad	76
157073	7	Sololá	712	San Antonio Palopó	9	San Antonio Palopo	3	Marzo	2023-02-03T00:00:00	2024-11-08T19:00:00	6	Velocidad del viento	6.4
157074	7	Sololá	712	San Antonio Palopó	9	San Antonio Palopo	3	Marzo	2023-02-03T00:00:00	2024-11-08T19:00:00	7	Dirección del viento	6.44
157075	7	Sololá	712	San Antonio Palopó	9	San Antonio Palopo	3	Marzo	2023-02-03T00:00:00	2024-11-08T19:00:00	1	Precipitación	0
157076	7	Sololá	712	San Antonio Palopó	9	San Antonio Palopo	3	Marzo	2023-02-03T00:00:00	2024-11-08T19:00:00	8	Radiación solar	0
157077	7	Sololá	712	San Antonio Palopó	9	San Antonio Palopo	3	Marzo	2023-02-03T00:00:00	2024-11-08T20:00:00	2	Temperatura media	19
157078	7	Sololá	712	San Antonio Palopó	9	San Antonio Palopo	3	Marzo	2023-02-03T00:00:00	2024-11-08T20:00:00	4	Temperatura máxima	19.4
157079	7	Sololá	712	San Antonio Palopó	9	San Antonio Palopo	3	Marzo	2023-02-03T00:00:00	2024-11-08T20:00:00	3	Temperatura mínima	19
157080	7	Sololá	712	San Antonio Palopó	9	San Antonio Palopo	3	Marzo	2023-02-03T00:00:00	2024-11-08T20:00:00	5	Humedad	78
157081	7	Sololá	712	San Antonio Palopó	9	San Antonio Palopo	3	Marzo	2023-02-03T00:00:00	2024-11-08T20:00:00	6	Velocidad del viento	3.2
157082	7	Sololá	712	San Antonio Palopó	9	San Antonio Palopo	3	Marzo	2023-02-03T00:00:00	2024-11-08T20:00:00	7	Dirección del viento	3.22
157083	7	Sololá	712	San Antonio Palopó	9	San Antonio Palopo	3	Marzo	2023-02-03T00:00:00	2024-11-08T20:00:00	1	Precipitación	0
157084	7	Sololá	712	San Antonio Palopó	9	San Antonio Palopo	3	Marzo	2023-02-03T00:00:00	2024-11-08T20:00:00	8	Radiación solar	0
157085	7	Sololá	712	San Antonio Palopó	9	San Antonio Palopo	3	Marzo	2023-02-03T00:00:00	2024-11-08T21:00:00	2	Temperatura media	18.2
157086	7	Sololá	712	San Antonio Palopó	9	San Antonio Palopo	3	Marzo	2023-02-03T00:00:00	2024-11-08T21:00:00	4	Temperatura máxima	19.1
157087	7	Sololá	712	San Antonio Palopó	9	San Antonio Palopo	3	Marzo	2023-02-03T00:00:00	2024-11-08T21:00:00	3	Temperatura mínima	18.2
157088	7	Sololá	712	San Antonio Palopó	9	San Antonio Palopo	3	Marzo	2023-02-03T00:00:00	2024-11-08T21:00:00	5	Humedad	81
157089	7	Sololá	712	San Antonio Palopó	9	San Antonio Palopo	3	Marzo	2023-02-03T00:00:00	2024-11-08T21:00:00	6	Velocidad del viento	1.6
157090	7	Sololá	712	San Antonio Palopó	9	San Antonio Palopo	3	Marzo	2023-02-03T00:00:00	2024-11-08T21:00:00	7	Dirección del viento	1.61
157091	7	Sololá	712	San Antonio Palopó	9	San Antonio Palopo	3	Marzo	2023-02-03T00:00:00	2024-11-08T21:00:00	1	Precipitación	0
157092	7	Sololá	712	San Antonio Palopó	9	San Antonio Palopo	3	Marzo	2023-02-03T00:00:00	2024-11-08T21:00:00	8	Radiación solar	0
157093	7	Sololá	712	San Antonio Palopó	9	San Antonio Palopo	3	Marzo	2023-02-03T00:00:00	2024-11-08T22:00:00	2	Temperatura media	17.8
157094	7	Sololá	712	San Antonio Palopó	9	San Antonio Palopo	3	Marzo	2023-02-03T00:00:00	2024-11-08T22:00:00	4	Temperatura máxima	18.3
157095	7	Sololá	712	San Antonio Palopó	9	San Antonio Palopo	3	Marzo	2023-02-03T00:00:00	2024-11-08T22:00:00	3	Temperatura mínima	17.8
157096	7	Sololá	712	San Antonio Palopó	9	San Antonio Palopo	3	Marzo	2023-02-03T00:00:00	2024-11-08T22:00:00	5	Humedad	82
157097	7	Sololá	712	San Antonio Palopó	9	San Antonio Palopo	3	Marzo	2023-02-03T00:00:00	2024-11-08T22:00:00	6	Velocidad del viento	1.6
157098	7	Sololá	712	San Antonio Palopó	9	San Antonio Palopo	3	Marzo	2023-02-03T00:00:00	2024-11-08T22:00:00	7	Dirección del viento	1.61
157099	7	Sololá	712	San Antonio Palopó	9	San Antonio Palopo	3	Marzo	2023-02-03T00:00:00	2024-11-08T22:00:00	1	Precipitación	0
157100	7	Sololá	712	San Antonio Palopó	9	San Antonio Palopo	3	Marzo	2023-02-03T00:00:00	2024-11-08T22:00:00	8	Radiación solar	0
157101	7	Sololá	712	San Antonio Palopó	9	San Antonio Palopo	3	Marzo	2023-02-03T00:00:00	2024-11-08T23:00:00	2	Temperatura media	16.2
157102	7	Sololá	712	San Antonio Palopó	9	San Antonio Palopo	3	Marzo	2023-02-03T00:00:00	2024-11-08T23:00:00	4	Temperatura máxima	17.8
157103	7	Sololá	712	San Antonio Palopó	9	San Antonio Palopo	3	Marzo	2023-02-03T00:00:00	2024-11-08T23:00:00	3	Temperatura mínima	16.2
157104	7	Sololá	712	San Antonio Palopó	9	San Antonio Palopo	3	Marzo	2023-02-03T00:00:00	2024-11-08T23:00:00	5	Humedad	81
157105	7	Sololá	712	San Antonio Palopó	9	San Antonio Palopo	3	Marzo	2023-02-03T00:00:00	2024-11-08T23:00:00	6	Velocidad del viento	3.2
157106	7	Sololá	712	San Antonio Palopó	9	San Antonio Palopo	3	Marzo	2023-02-03T00:00:00	2024-11-08T23:00:00	7	Dirección del viento	3.22
157107	7	Sololá	712	San Antonio Palopó	9	San Antonio Palopo	3	Marzo	2023-02-03T00:00:00	2024-11-08T23:00:00	1	Precipitación	0
157108	7	Sololá	712	San Antonio Palopó	9	San Antonio Palopo	3	Marzo	2023-02-03T00:00:00	2024-11-08T23:00:00	8	Radiación solar	0
157109	7	Sololá	712	San Antonio Palopó	9	San Antonio Palopo	3	Marzo	2023-03-03T00:00:00	2024-11-08T00:00:00	2	Temperatura media	15.6
157110	7	Sololá	712	San Antonio Palopó	9	San Antonio Palopo	3	Marzo	2023-03-03T00:00:00	2024-11-08T00:00:00	4	Temperatura máxima	16.2
157111	7	Sololá	712	San Antonio Palopó	9	San Antonio Palopo	3	Marzo	2023-03-03T00:00:00	2024-11-08T00:00:00	3	Temperatura mínima	15.6
157112	7	Sololá	712	San Antonio Palopó	9	San Antonio Palopo	3	Marzo	2023-03-03T00:00:00	2024-11-08T00:00:00	5	Humedad	82
157113	7	Sololá	712	San Antonio Palopó	9	San Antonio Palopo	3	Marzo	2023-03-03T00:00:00	2024-11-08T00:00:00	6	Velocidad del viento	4.8
157114	7	Sololá	712	San Antonio Palopó	9	San Antonio Palopo	3	Marzo	2023-03-03T00:00:00	2024-11-08T00:00:00	7	Dirección del viento	4.83
157115	7	Sololá	712	San Antonio Palopó	9	San Antonio Palopo	3	Marzo	2023-03-03T00:00:00	2024-11-08T00:00:00	1	Precipitación	0
157116	7	Sololá	712	San Antonio Palopó	9	San Antonio Palopo	3	Marzo	2023-03-03T00:00:00	2024-11-08T00:00:00	8	Radiación solar	0
157117	7	Sololá	712	San Antonio Palopó	9	San Antonio Palopo	3	Marzo	2023-03-03T00:00:00	2024-11-08T01:00:00	2	Temperatura media	15
157118	7	Sololá	712	San Antonio Palopó	9	San Antonio Palopo	3	Marzo	2023-03-03T00:00:00	2024-11-08T01:00:00	4	Temperatura máxima	15.7
157119	7	Sololá	712	San Antonio Palopó	9	San Antonio Palopo	3	Marzo	2023-03-03T00:00:00	2024-11-08T01:00:00	3	Temperatura mínima	14.9
157120	7	Sololá	712	San Antonio Palopó	9	San Antonio Palopo	3	Marzo	2023-03-03T00:00:00	2024-11-08T01:00:00	5	Humedad	79
157121	7	Sololá	712	San Antonio Palopó	9	San Antonio Palopo	3	Marzo	2023-03-03T00:00:00	2024-11-08T01:00:00	6	Velocidad del viento	4.8
157122	7	Sololá	712	San Antonio Palopó	9	San Antonio Palopo	3	Marzo	2023-03-03T00:00:00	2024-11-08T01:00:00	7	Dirección del viento	4.83
157123	7	Sololá	712	San Antonio Palopó	9	San Antonio Palopo	3	Marzo	2023-03-03T00:00:00	2024-11-08T01:00:00	1	Precipitación	0
157124	7	Sololá	712	San Antonio Palopó	9	San Antonio Palopo	3	Marzo	2023-03-03T00:00:00	2024-11-08T01:00:00	8	Radiación solar	0
157125	7	Sololá	712	San Antonio Palopó	9	San Antonio Palopo	3	Marzo	2023-03-03T00:00:00	2024-11-08T02:00:00	2	Temperatura media	14.4
157126	7	Sololá	712	San Antonio Palopó	9	San Antonio Palopo	3	Marzo	2023-03-03T00:00:00	2024-11-08T02:00:00	4	Temperatura máxima	15.1
157127	7	Sololá	712	San Antonio Palopó	9	San Antonio Palopo	3	Marzo	2023-03-03T00:00:00	2024-11-08T02:00:00	3	Temperatura mínima	14.3
157128	7	Sololá	712	San Antonio Palopó	9	San Antonio Palopo	3	Marzo	2023-03-03T00:00:00	2024-11-08T02:00:00	5	Humedad	68
157129	7	Sololá	712	San Antonio Palopó	9	San Antonio Palopo	3	Marzo	2023-03-03T00:00:00	2024-11-08T02:00:00	6	Velocidad del viento	6.4
157130	7	Sololá	712	San Antonio Palopó	9	San Antonio Palopo	3	Marzo	2023-03-03T00:00:00	2024-11-08T02:00:00	7	Dirección del viento	6.44
157131	7	Sololá	712	San Antonio Palopó	9	San Antonio Palopo	3	Marzo	2023-03-03T00:00:00	2024-11-08T02:00:00	1	Precipitación	0
157132	7	Sololá	712	San Antonio Palopó	9	San Antonio Palopo	3	Marzo	2023-03-03T00:00:00	2024-11-08T02:00:00	8	Radiación solar	0
157133	7	Sololá	712	San Antonio Palopó	9	San Antonio Palopo	3	Marzo	2023-03-03T00:00:00	2024-11-08T03:00:00	2	Temperatura media	14.2
157134	7	Sololá	712	San Antonio Palopó	9	San Antonio Palopo	3	Marzo	2023-03-03T00:00:00	2024-11-08T03:00:00	4	Temperatura máxima	14.5
157135	7	Sololá	712	San Antonio Palopó	9	San Antonio Palopo	3	Marzo	2023-03-03T00:00:00	2024-11-08T03:00:00	3	Temperatura mínima	14.2
157136	7	Sololá	712	San Antonio Palopó	9	San Antonio Palopo	3	Marzo	2023-03-03T00:00:00	2024-11-08T03:00:00	5	Humedad	67
157137	7	Sololá	712	San Antonio Palopó	9	San Antonio Palopo	3	Marzo	2023-03-03T00:00:00	2024-11-08T03:00:00	6	Velocidad del viento	4.8
157138	7	Sololá	712	San Antonio Palopó	9	San Antonio Palopo	3	Marzo	2023-03-03T00:00:00	2024-11-08T03:00:00	7	Dirección del viento	4.83
157139	7	Sololá	712	San Antonio Palopó	9	San Antonio Palopo	3	Marzo	2023-03-03T00:00:00	2024-11-08T03:00:00	1	Precipitación	0
157140	7	Sololá	712	San Antonio Palopó	9	San Antonio Palopo	3	Marzo	2023-03-03T00:00:00	2024-11-08T03:00:00	8	Radiación solar	0
157141	7	Sololá	712	San Antonio Palopó	9	San Antonio Palopo	3	Marzo	2023-03-03T00:00:00	2024-11-08T04:00:00	2	Temperatura media	14.2
157142	7	Sololá	712	San Antonio Palopó	9	San Antonio Palopo	3	Marzo	2023-03-03T00:00:00	2024-11-08T04:00:00	4	Temperatura máxima	14.3
157143	7	Sololá	712	San Antonio Palopó	9	San Antonio Palopo	3	Marzo	2023-03-03T00:00:00	2024-11-08T04:00:00	3	Temperatura mínima	14.1
157144	7	Sololá	712	San Antonio Palopó	9	San Antonio Palopo	3	Marzo	2023-03-03T00:00:00	2024-11-08T04:00:00	5	Humedad	70
157145	7	Sololá	712	San Antonio Palopó	9	San Antonio Palopo	3	Marzo	2023-03-03T00:00:00	2024-11-08T04:00:00	6	Velocidad del viento	4.8
157146	7	Sololá	712	San Antonio Palopó	9	San Antonio Palopo	3	Marzo	2023-03-03T00:00:00	2024-11-08T04:00:00	7	Dirección del viento	4.83
157147	7	Sololá	712	San Antonio Palopó	9	San Antonio Palopo	3	Marzo	2023-03-03T00:00:00	2024-11-08T04:00:00	1	Precipitación	0
157148	7	Sololá	712	San Antonio Palopó	9	San Antonio Palopo	3	Marzo	2023-03-03T00:00:00	2024-11-08T04:00:00	8	Radiación solar	0
157149	7	Sololá	712	San Antonio Palopó	9	San Antonio Palopo	3	Marzo	2023-03-03T00:00:00	2024-11-08T05:00:00	2	Temperatura media	14.3
157150	7	Sololá	712	San Antonio Palopó	9	San Antonio Palopo	3	Marzo	2023-03-03T00:00:00	2024-11-08T05:00:00	4	Temperatura máxima	14.6
157151	7	Sololá	712	San Antonio Palopó	9	San Antonio Palopo	3	Marzo	2023-03-03T00:00:00	2024-11-08T05:00:00	3	Temperatura mínima	14
157152	7	Sololá	712	San Antonio Palopó	9	San Antonio Palopo	3	Marzo	2023-03-03T00:00:00	2024-11-08T05:00:00	5	Humedad	70
157153	7	Sololá	712	San Antonio Palopó	9	San Antonio Palopo	3	Marzo	2023-03-03T00:00:00	2024-11-08T05:00:00	6	Velocidad del viento	4.8
157154	7	Sololá	712	San Antonio Palopó	9	San Antonio Palopo	3	Marzo	2023-03-03T00:00:00	2024-11-08T05:00:00	7	Dirección del viento	4.83
157155	7	Sololá	712	San Antonio Palopó	9	San Antonio Palopo	3	Marzo	2023-03-03T00:00:00	2024-11-08T05:00:00	1	Precipitación	0
157156	7	Sololá	712	San Antonio Palopó	9	San Antonio Palopo	3	Marzo	2023-03-03T00:00:00	2024-11-08T05:00:00	8	Radiación solar	0
157157	7	Sololá	712	San Antonio Palopó	9	San Antonio Palopo	3	Marzo	2023-03-03T00:00:00	2024-11-08T06:00:00	2	Temperatura media	14.2
157158	7	Sololá	712	San Antonio Palopó	9	San Antonio Palopo	3	Marzo	2023-03-03T00:00:00	2024-11-08T06:00:00	4	Temperatura máxima	14.4
157159	7	Sololá	712	San Antonio Palopó	9	San Antonio Palopo	3	Marzo	2023-03-03T00:00:00	2024-11-08T06:00:00	3	Temperatura mínima	13.9
157160	7	Sololá	712	San Antonio Palopó	9	San Antonio Palopo	3	Marzo	2023-03-03T00:00:00	2024-11-08T06:00:00	5	Humedad	63
157161	7	Sololá	712	San Antonio Palopó	9	San Antonio Palopo	3	Marzo	2023-03-03T00:00:00	2024-11-08T06:00:00	6	Velocidad del viento	4.8
157162	7	Sololá	712	San Antonio Palopó	9	San Antonio Palopo	3	Marzo	2023-03-03T00:00:00	2024-11-08T06:00:00	7	Dirección del viento	4.83
157163	7	Sololá	712	San Antonio Palopó	9	San Antonio Palopo	3	Marzo	2023-03-03T00:00:00	2024-11-08T06:00:00	1	Precipitación	0
157164	7	Sololá	712	San Antonio Palopó	9	San Antonio Palopo	3	Marzo	2023-03-03T00:00:00	2024-11-08T06:00:00	8	Radiación solar	0
157165	7	Sololá	712	San Antonio Palopó	9	San Antonio Palopo	3	Marzo	2023-03-03T00:00:00	2024-11-08T07:00:00	2	Temperatura media	14.1
157166	7	Sololá	712	San Antonio Palopó	9	San Antonio Palopo	3	Marzo	2023-03-03T00:00:00	2024-11-08T07:00:00	4	Temperatura máxima	14.2
157167	7	Sololá	712	San Antonio Palopó	9	San Antonio Palopo	3	Marzo	2023-03-03T00:00:00	2024-11-08T07:00:00	3	Temperatura mínima	14
157168	7	Sololá	712	San Antonio Palopó	9	San Antonio Palopo	3	Marzo	2023-03-03T00:00:00	2024-11-08T07:00:00	5	Humedad	59
157169	7	Sololá	712	San Antonio Palopó	9	San Antonio Palopo	3	Marzo	2023-03-03T00:00:00	2024-11-08T07:00:00	6	Velocidad del viento	4.8
157170	7	Sololá	712	San Antonio Palopó	9	San Antonio Palopo	3	Marzo	2023-03-03T00:00:00	2024-11-08T07:00:00	7	Dirección del viento	4.83
157171	7	Sololá	712	San Antonio Palopó	9	San Antonio Palopo	3	Marzo	2023-03-03T00:00:00	2024-11-08T07:00:00	1	Precipitación	0
157172	7	Sololá	712	San Antonio Palopó	9	San Antonio Palopo	3	Marzo	2023-03-03T00:00:00	2024-11-08T07:00:00	8	Radiación solar	6
157173	7	Sololá	712	San Antonio Palopó	9	San Antonio Palopo	3	Marzo	2023-03-03T00:00:00	2024-11-08T08:00:00	2	Temperatura media	14.2
157174	7	Sololá	712	San Antonio Palopó	9	San Antonio Palopo	3	Marzo	2023-03-03T00:00:00	2024-11-08T08:00:00	4	Temperatura máxima	14.3
157175	7	Sololá	712	San Antonio Palopó	9	San Antonio Palopo	3	Marzo	2023-03-03T00:00:00	2024-11-08T08:00:00	3	Temperatura mínima	14.1
157176	7	Sololá	712	San Antonio Palopó	9	San Antonio Palopo	3	Marzo	2023-03-03T00:00:00	2024-11-08T08:00:00	5	Humedad	67
157177	7	Sololá	712	San Antonio Palopó	9	San Antonio Palopo	3	Marzo	2023-03-03T00:00:00	2024-11-08T08:00:00	6	Velocidad del viento	4.8
157178	7	Sololá	712	San Antonio Palopó	9	San Antonio Palopo	3	Marzo	2023-03-03T00:00:00	2024-11-08T08:00:00	7	Dirección del viento	4.83
157179	7	Sololá	712	San Antonio Palopó	9	San Antonio Palopo	3	Marzo	2023-03-03T00:00:00	2024-11-08T08:00:00	1	Precipitación	0
157180	7	Sololá	712	San Antonio Palopó	9	San Antonio Palopo	3	Marzo	2023-03-03T00:00:00	2024-11-08T08:00:00	8	Radiación solar	18
157181	7	Sololá	712	San Antonio Palopó	9	San Antonio Palopo	3	Marzo	2023-03-03T00:00:00	2024-11-08T09:00:00	2	Temperatura media	19.1
157182	7	Sololá	712	San Antonio Palopó	9	San Antonio Palopo	3	Marzo	2023-03-03T00:00:00	2024-11-08T09:00:00	4	Temperatura máxima	19.1
157183	7	Sololá	712	San Antonio Palopó	9	San Antonio Palopo	3	Marzo	2023-03-03T00:00:00	2024-11-08T09:00:00	3	Temperatura mínima	14.2
157184	7	Sololá	712	San Antonio Palopó	9	San Antonio Palopo	3	Marzo	2023-03-03T00:00:00	2024-11-08T09:00:00	5	Humedad	50
157185	7	Sololá	712	San Antonio Palopó	9	San Antonio Palopo	3	Marzo	2023-03-03T00:00:00	2024-11-08T09:00:00	6	Velocidad del viento	3.2
157186	7	Sololá	712	San Antonio Palopó	9	San Antonio Palopo	3	Marzo	2023-03-03T00:00:00	2024-11-08T09:00:00	7	Dirección del viento	3.22
157187	7	Sololá	712	San Antonio Palopó	9	San Antonio Palopo	3	Marzo	2023-03-03T00:00:00	2024-11-08T09:00:00	1	Precipitación	0
157188	7	Sololá	712	San Antonio Palopó	9	San Antonio Palopo	3	Marzo	2023-03-03T00:00:00	2024-11-08T09:00:00	8	Radiación solar	432
157189	7	Sololá	712	San Antonio Palopó	9	San Antonio Palopo	3	Marzo	2023-03-03T00:00:00	2024-11-08T10:00:00	2	Temperatura media	19.8
157190	7	Sololá	712	San Antonio Palopó	9	San Antonio Palopo	3	Marzo	2023-03-03T00:00:00	2024-11-08T10:00:00	4	Temperatura máxima	19.9
157191	7	Sololá	712	San Antonio Palopó	9	San Antonio Palopo	3	Marzo	2023-03-03T00:00:00	2024-11-08T10:00:00	3	Temperatura mínima	18.8
157192	7	Sololá	712	San Antonio Palopó	9	San Antonio Palopo	3	Marzo	2023-03-03T00:00:00	2024-11-08T10:00:00	5	Humedad	57
157193	7	Sololá	712	San Antonio Palopó	9	San Antonio Palopo	3	Marzo	2023-03-03T00:00:00	2024-11-08T10:00:00	6	Velocidad del viento	3.2
157194	7	Sololá	712	San Antonio Palopó	9	San Antonio Palopo	3	Marzo	2023-03-03T00:00:00	2024-11-08T10:00:00	7	Dirección del viento	3.22
157195	7	Sololá	712	San Antonio Palopó	9	San Antonio Palopo	3	Marzo	2023-03-03T00:00:00	2024-11-08T10:00:00	1	Precipitación	0
157196	7	Sololá	712	San Antonio Palopó	9	San Antonio Palopo	3	Marzo	2023-03-03T00:00:00	2024-11-08T10:00:00	8	Radiación solar	651
157197	7	Sololá	712	San Antonio Palopó	9	San Antonio Palopo	3	Marzo	2023-03-03T00:00:00	2024-11-08T11:00:00	2	Temperatura media	21.6
157198	7	Sololá	712	San Antonio Palopó	9	San Antonio Palopo	3	Marzo	2023-03-03T00:00:00	2024-11-08T11:00:00	4	Temperatura máxima	21.8
157199	7	Sololá	712	San Antonio Palopó	9	San Antonio Palopo	3	Marzo	2023-03-03T00:00:00	2024-11-08T11:00:00	3	Temperatura mínima	19.8
157200	7	Sololá	712	San Antonio Palopó	9	San Antonio Palopo	3	Marzo	2023-03-03T00:00:00	2024-11-08T11:00:00	5	Humedad	47
157201	7	Sololá	712	San Antonio Palopó	9	San Antonio Palopo	3	Marzo	2023-03-03T00:00:00	2024-11-08T11:00:00	6	Velocidad del viento	3.2
157202	7	Sololá	712	San Antonio Palopó	9	San Antonio Palopo	3	Marzo	2023-03-03T00:00:00	2024-11-08T11:00:00	7	Dirección del viento	3.22
157203	7	Sololá	712	San Antonio Palopó	9	San Antonio Palopo	3	Marzo	2023-03-03T00:00:00	2024-11-08T11:00:00	1	Precipitación	0
157204	7	Sololá	712	San Antonio Palopó	9	San Antonio Palopo	3	Marzo	2023-03-03T00:00:00	2024-11-08T11:00:00	8	Radiación solar	803
157205	7	Sololá	712	San Antonio Palopó	9	San Antonio Palopo	3	Marzo	2023-03-03T00:00:00	2024-11-08T12:00:00	2	Temperatura media	23.6
157206	7	Sololá	712	San Antonio Palopó	9	San Antonio Palopo	3	Marzo	2023-03-03T00:00:00	2024-11-08T12:00:00	4	Temperatura máxima	23.7
157207	7	Sololá	712	San Antonio Palopó	9	San Antonio Palopo	3	Marzo	2023-03-03T00:00:00	2024-11-08T12:00:00	3	Temperatura mínima	21.4
157208	7	Sololá	712	San Antonio Palopó	9	San Antonio Palopo	3	Marzo	2023-03-03T00:00:00	2024-11-08T12:00:00	5	Humedad	46
157209	7	Sololá	712	San Antonio Palopó	9	San Antonio Palopo	3	Marzo	2023-03-03T00:00:00	2024-11-08T12:00:00	6	Velocidad del viento	6.4
157210	7	Sololá	712	San Antonio Palopó	9	San Antonio Palopo	3	Marzo	2023-03-03T00:00:00	2024-11-08T12:00:00	7	Dirección del viento	6.44
157211	7	Sololá	712	San Antonio Palopó	9	San Antonio Palopo	3	Marzo	2023-03-03T00:00:00	2024-11-08T12:00:00	1	Precipitación	0
157212	7	Sololá	712	San Antonio Palopó	9	San Antonio Palopo	3	Marzo	2023-03-03T00:00:00	2024-11-08T12:00:00	8	Radiación solar	847
157213	7	Sololá	712	San Antonio Palopó	9	San Antonio Palopo	3	Marzo	2023-03-03T00:00:00	2024-11-08T13:00:00	2	Temperatura media	24.1
157214	7	Sololá	712	San Antonio Palopó	9	San Antonio Palopo	3	Marzo	2023-03-03T00:00:00	2024-11-08T13:00:00	4	Temperatura máxima	24.2
157215	7	Sololá	712	San Antonio Palopó	9	San Antonio Palopo	3	Marzo	2023-03-03T00:00:00	2024-11-08T13:00:00	3	Temperatura mínima	23.6
157216	7	Sololá	712	San Antonio Palopó	9	San Antonio Palopo	3	Marzo	2023-03-03T00:00:00	2024-11-08T13:00:00	5	Humedad	48
157217	7	Sololá	712	San Antonio Palopó	9	San Antonio Palopo	3	Marzo	2023-03-03T00:00:00	2024-11-08T13:00:00	6	Velocidad del viento	6.4
157218	7	Sololá	712	San Antonio Palopó	9	San Antonio Palopo	3	Marzo	2023-03-03T00:00:00	2024-11-08T13:00:00	7	Dirección del viento	6.44
157219	7	Sololá	712	San Antonio Palopó	9	San Antonio Palopo	3	Marzo	2023-03-03T00:00:00	2024-11-08T13:00:00	1	Precipitación	0
157220	7	Sololá	712	San Antonio Palopó	9	San Antonio Palopo	3	Marzo	2023-03-03T00:00:00	2024-11-08T13:00:00	8	Radiación solar	894
157221	7	Sololá	712	San Antonio Palopó	9	San Antonio Palopo	3	Marzo	2023-03-03T00:00:00	2024-11-08T14:00:00	2	Temperatura media	23.6
157222	7	Sololá	712	San Antonio Palopó	9	San Antonio Palopo	3	Marzo	2023-03-03T00:00:00	2024-11-08T14:00:00	4	Temperatura máxima	24.6
157223	7	Sololá	712	San Antonio Palopó	9	San Antonio Palopo	3	Marzo	2023-03-03T00:00:00	2024-11-08T14:00:00	3	Temperatura mínima	23.6
157224	7	Sololá	712	San Antonio Palopó	9	San Antonio Palopo	3	Marzo	2023-03-03T00:00:00	2024-11-08T14:00:00	5	Humedad	59
157225	7	Sololá	712	San Antonio Palopó	9	San Antonio Palopo	3	Marzo	2023-03-03T00:00:00	2024-11-08T14:00:00	6	Velocidad del viento	8
157226	7	Sololá	712	San Antonio Palopó	9	San Antonio Palopo	3	Marzo	2023-03-03T00:00:00	2024-11-08T14:00:00	7	Dirección del viento	8.05
157227	7	Sololá	712	San Antonio Palopó	9	San Antonio Palopo	3	Marzo	2023-03-03T00:00:00	2024-11-08T14:00:00	1	Precipitación	0
157228	7	Sololá	712	San Antonio Palopó	9	San Antonio Palopo	3	Marzo	2023-03-03T00:00:00	2024-11-08T14:00:00	8	Radiación solar	832
157229	7	Sololá	712	San Antonio Palopó	9	San Antonio Palopo	3	Marzo	2023-03-03T00:00:00	2024-11-08T15:00:00	2	Temperatura media	22.7
157230	7	Sololá	712	San Antonio Palopó	9	San Antonio Palopo	3	Marzo	2023-03-03T00:00:00	2024-11-08T15:00:00	4	Temperatura máxima	23.6
157231	7	Sololá	712	San Antonio Palopó	9	San Antonio Palopo	3	Marzo	2023-03-03T00:00:00	2024-11-08T15:00:00	3	Temperatura mínima	22.7
157232	7	Sololá	712	San Antonio Palopó	9	San Antonio Palopo	3	Marzo	2023-03-03T00:00:00	2024-11-08T15:00:00	5	Humedad	63
157233	7	Sololá	712	San Antonio Palopó	9	San Antonio Palopo	3	Marzo	2023-03-03T00:00:00	2024-11-08T15:00:00	6	Velocidad del viento	12.9
157234	7	Sololá	712	San Antonio Palopó	9	San Antonio Palopo	3	Marzo	2023-03-03T00:00:00	2024-11-08T15:00:00	7	Dirección del viento	12.87
157235	7	Sololá	712	San Antonio Palopó	9	San Antonio Palopo	3	Marzo	2023-03-03T00:00:00	2024-11-08T15:00:00	1	Precipitación	0
157236	7	Sololá	712	San Antonio Palopó	9	San Antonio Palopo	3	Marzo	2023-03-03T00:00:00	2024-11-08T15:00:00	8	Radiación solar	703
157237	7	Sololá	712	San Antonio Palopó	9	San Antonio Palopo	3	Marzo	2023-03-03T00:00:00	2024-11-08T16:00:00	2	Temperatura media	23.1
157238	7	Sololá	712	San Antonio Palopó	9	San Antonio Palopo	3	Marzo	2023-03-03T00:00:00	2024-11-08T16:00:00	4	Temperatura máxima	23.1
157239	7	Sololá	712	San Antonio Palopó	9	San Antonio Palopo	3	Marzo	2023-03-03T00:00:00	2024-11-08T16:00:00	3	Temperatura mínima	22.2
157240	7	Sololá	712	San Antonio Palopó	9	San Antonio Palopo	3	Marzo	2023-03-03T00:00:00	2024-11-08T16:00:00	5	Humedad	65
157241	7	Sololá	712	San Antonio Palopó	9	San Antonio Palopo	3	Marzo	2023-03-03T00:00:00	2024-11-08T16:00:00	6	Velocidad del viento	12.9
157242	7	Sololá	712	San Antonio Palopó	9	San Antonio Palopo	3	Marzo	2023-03-03T00:00:00	2024-11-08T16:00:00	7	Dirección del viento	12.87
157243	7	Sololá	712	San Antonio Palopó	9	San Antonio Palopo	3	Marzo	2023-03-03T00:00:00	2024-11-08T16:00:00	1	Precipitación	0
157244	7	Sololá	712	San Antonio Palopó	9	San Antonio Palopo	3	Marzo	2023-03-03T00:00:00	2024-11-08T16:00:00	8	Radiación solar	543
157245	7	Sololá	712	San Antonio Palopó	9	San Antonio Palopo	3	Marzo	2023-03-03T00:00:00	2024-11-08T17:00:00	2	Temperatura media	21.7
157246	7	Sololá	712	San Antonio Palopó	9	San Antonio Palopo	3	Marzo	2023-03-03T00:00:00	2024-11-08T17:00:00	4	Temperatura máxima	23.3
157247	7	Sololá	712	San Antonio Palopó	9	San Antonio Palopo	3	Marzo	2023-03-03T00:00:00	2024-11-08T17:00:00	3	Temperatura mínima	21.7
157248	7	Sololá	712	San Antonio Palopó	9	San Antonio Palopo	3	Marzo	2023-03-03T00:00:00	2024-11-08T17:00:00	5	Humedad	69
157249	7	Sololá	712	San Antonio Palopó	9	San Antonio Palopo	3	Marzo	2023-03-03T00:00:00	2024-11-08T17:00:00	6	Velocidad del viento	8
157250	7	Sololá	712	San Antonio Palopó	9	San Antonio Palopo	3	Marzo	2023-03-03T00:00:00	2024-11-08T17:00:00	7	Dirección del viento	8.05
157251	7	Sololá	712	San Antonio Palopó	9	San Antonio Palopo	3	Marzo	2023-03-03T00:00:00	2024-11-08T17:00:00	1	Precipitación	0
157252	7	Sololá	712	San Antonio Palopó	9	San Antonio Palopo	3	Marzo	2023-03-03T00:00:00	2024-11-08T17:00:00	8	Radiación solar	327
157253	7	Sololá	712	San Antonio Palopó	9	San Antonio Palopo	3	Marzo	2023-03-03T00:00:00	2024-11-08T18:00:00	2	Temperatura media	20.7
157254	7	Sololá	712	San Antonio Palopó	9	San Antonio Palopo	3	Marzo	2023-03-03T00:00:00	2024-11-08T18:00:00	4	Temperatura máxima	21.6
157255	7	Sololá	712	San Antonio Palopó	9	San Antonio Palopo	3	Marzo	2023-03-03T00:00:00	2024-11-08T18:00:00	3	Temperatura mínima	20.7
157256	7	Sololá	712	San Antonio Palopó	9	San Antonio Palopo	3	Marzo	2023-03-03T00:00:00	2024-11-08T18:00:00	5	Humedad	74
157257	7	Sololá	712	San Antonio Palopó	9	San Antonio Palopo	3	Marzo	2023-03-03T00:00:00	2024-11-08T18:00:00	6	Velocidad del viento	6.4
157258	7	Sololá	712	San Antonio Palopó	9	San Antonio Palopo	3	Marzo	2023-03-03T00:00:00	2024-11-08T18:00:00	7	Dirección del viento	6.44
157259	7	Sololá	712	San Antonio Palopó	9	San Antonio Palopo	3	Marzo	2023-03-03T00:00:00	2024-11-08T18:00:00	1	Precipitación	0
157260	7	Sololá	712	San Antonio Palopó	9	San Antonio Palopo	3	Marzo	2023-03-03T00:00:00	2024-11-08T18:00:00	8	Radiación solar	53
157261	7	Sololá	712	San Antonio Palopó	9	San Antonio Palopo	3	Marzo	2023-03-03T00:00:00	2024-11-08T19:00:00	2	Temperatura media	19.9
157262	7	Sololá	712	San Antonio Palopó	9	San Antonio Palopo	3	Marzo	2023-03-03T00:00:00	2024-11-08T19:00:00	4	Temperatura máxima	20.7
157263	7	Sololá	712	San Antonio Palopó	9	San Antonio Palopo	3	Marzo	2023-03-03T00:00:00	2024-11-08T19:00:00	3	Temperatura mínima	19.9
157264	7	Sololá	712	San Antonio Palopó	9	San Antonio Palopo	3	Marzo	2023-03-03T00:00:00	2024-11-08T19:00:00	5	Humedad	77
157265	7	Sololá	712	San Antonio Palopó	9	San Antonio Palopo	3	Marzo	2023-03-03T00:00:00	2024-11-08T19:00:00	6	Velocidad del viento	3.2
157266	7	Sololá	712	San Antonio Palopó	9	San Antonio Palopo	3	Marzo	2023-03-03T00:00:00	2024-11-08T19:00:00	7	Dirección del viento	3.22
157267	7	Sololá	712	San Antonio Palopó	9	San Antonio Palopo	3	Marzo	2023-03-03T00:00:00	2024-11-08T19:00:00	1	Precipitación	0
157268	7	Sololá	712	San Antonio Palopó	9	San Antonio Palopo	3	Marzo	2023-03-03T00:00:00	2024-11-08T19:00:00	8	Radiación solar	0
157269	7	Sololá	712	San Antonio Palopó	9	San Antonio Palopo	3	Marzo	2023-03-03T00:00:00	2024-11-08T20:00:00	2	Temperatura media	19.7
157270	7	Sololá	712	San Antonio Palopó	9	San Antonio Palopo	3	Marzo	2023-03-03T00:00:00	2024-11-08T20:00:00	4	Temperatura máxima	20.1
157271	7	Sololá	712	San Antonio Palopó	9	San Antonio Palopo	3	Marzo	2023-03-03T00:00:00	2024-11-08T20:00:00	3	Temperatura mínima	19.7
157272	7	Sololá	712	San Antonio Palopó	9	San Antonio Palopo	3	Marzo	2023-03-03T00:00:00	2024-11-08T20:00:00	5	Humedad	75
157273	7	Sololá	712	San Antonio Palopó	9	San Antonio Palopo	3	Marzo	2023-03-03T00:00:00	2024-11-08T20:00:00	6	Velocidad del viento	1.6
157274	7	Sololá	712	San Antonio Palopó	9	San Antonio Palopo	3	Marzo	2023-03-03T00:00:00	2024-11-08T20:00:00	7	Dirección del viento	1.61
157275	7	Sololá	712	San Antonio Palopó	9	San Antonio Palopo	3	Marzo	2023-03-03T00:00:00	2024-11-08T20:00:00	1	Precipitación	0
157276	7	Sololá	712	San Antonio Palopó	9	San Antonio Palopo	3	Marzo	2023-03-03T00:00:00	2024-11-08T20:00:00	8	Radiación solar	0
157277	7	Sololá	712	San Antonio Palopó	9	San Antonio Palopo	3	Marzo	2023-03-03T00:00:00	2024-11-08T21:00:00	2	Temperatura media	18.7
157278	7	Sololá	712	San Antonio Palopó	9	San Antonio Palopo	3	Marzo	2023-03-03T00:00:00	2024-11-08T21:00:00	4	Temperatura máxima	19.7
157279	7	Sololá	712	San Antonio Palopó	9	San Antonio Palopo	3	Marzo	2023-03-03T00:00:00	2024-11-08T21:00:00	3	Temperatura mínima	18.7
157280	7	Sololá	712	San Antonio Palopó	9	San Antonio Palopo	3	Marzo	2023-03-03T00:00:00	2024-11-08T21:00:00	5	Humedad	78
157281	7	Sololá	712	San Antonio Palopó	9	San Antonio Palopo	3	Marzo	2023-03-03T00:00:00	2024-11-08T21:00:00	6	Velocidad del viento	1.6
157282	7	Sololá	712	San Antonio Palopó	9	San Antonio Palopo	3	Marzo	2023-03-03T00:00:00	2024-11-08T21:00:00	7	Dirección del viento	1.61
157283	7	Sololá	712	San Antonio Palopó	9	San Antonio Palopo	3	Marzo	2023-03-03T00:00:00	2024-11-08T21:00:00	1	Precipitación	0
157284	7	Sololá	712	San Antonio Palopó	9	San Antonio Palopo	3	Marzo	2023-03-03T00:00:00	2024-11-08T21:00:00	8	Radiación solar	0
157285	7	Sololá	712	San Antonio Palopó	9	San Antonio Palopo	3	Marzo	2023-03-03T00:00:00	2024-11-08T22:00:00	2	Temperatura media	17.9
157286	7	Sololá	712	San Antonio Palopó	9	San Antonio Palopo	3	Marzo	2023-03-03T00:00:00	2024-11-08T22:00:00	4	Temperatura máxima	18.8
157287	7	Sololá	712	San Antonio Palopó	9	San Antonio Palopo	3	Marzo	2023-03-03T00:00:00	2024-11-08T22:00:00	3	Temperatura mínima	17.8
157288	7	Sololá	712	San Antonio Palopó	9	San Antonio Palopo	3	Marzo	2023-03-03T00:00:00	2024-11-08T22:00:00	5	Humedad	81
157289	7	Sololá	712	San Antonio Palopó	9	San Antonio Palopo	3	Marzo	2023-03-03T00:00:00	2024-11-08T22:00:00	6	Velocidad del viento	1.6
157290	7	Sololá	712	San Antonio Palopó	9	San Antonio Palopo	3	Marzo	2023-03-03T00:00:00	2024-11-08T22:00:00	7	Dirección del viento	1.61
157291	7	Sololá	712	San Antonio Palopó	9	San Antonio Palopo	3	Marzo	2023-03-03T00:00:00	2024-11-08T22:00:00	1	Precipitación	0
157292	7	Sololá	712	San Antonio Palopó	9	San Antonio Palopo	3	Marzo	2023-03-03T00:00:00	2024-11-08T22:00:00	8	Radiación solar	0
157293	7	Sololá	712	San Antonio Palopó	9	San Antonio Palopo	3	Marzo	2023-03-03T00:00:00	2024-11-08T23:00:00	2	Temperatura media	17.7
157294	7	Sololá	712	San Antonio Palopó	9	San Antonio Palopo	3	Marzo	2023-03-03T00:00:00	2024-11-08T23:00:00	4	Temperatura máxima	18.1
157295	7	Sololá	712	San Antonio Palopó	9	San Antonio Palopo	3	Marzo	2023-03-03T00:00:00	2024-11-08T23:00:00	3	Temperatura mínima	17.6
157296	7	Sololá	712	San Antonio Palopó	9	San Antonio Palopo	3	Marzo	2023-03-03T00:00:00	2024-11-08T23:00:00	5	Humedad	86
157297	7	Sololá	712	San Antonio Palopó	9	San Antonio Palopo	3	Marzo	2023-03-03T00:00:00	2024-11-08T23:00:00	6	Velocidad del viento	1.6
157298	7	Sololá	712	San Antonio Palopó	9	San Antonio Palopo	3	Marzo	2023-03-03T00:00:00	2024-11-08T23:00:00	7	Dirección del viento	1.61
157299	7	Sololá	712	San Antonio Palopó	9	San Antonio Palopo	3	Marzo	2023-03-03T00:00:00	2024-11-08T23:00:00	1	Precipitación	0
157300	7	Sololá	712	San Antonio Palopó	9	San Antonio Palopo	3	Marzo	2023-03-03T00:00:00	2024-11-08T23:00:00	8	Radiación solar	0
157301	7	Sololá	712	San Antonio Palopó	9	San Antonio Palopo	3	Marzo	2023-04-03T00:00:00	2024-11-08T00:00:00	2	Temperatura media	17.5
157302	7	Sololá	712	San Antonio Palopó	9	San Antonio Palopo	3	Marzo	2023-04-03T00:00:00	2024-11-08T00:00:00	4	Temperatura máxima	17.8
157303	7	Sololá	712	San Antonio Palopó	9	San Antonio Palopo	3	Marzo	2023-04-03T00:00:00	2024-11-08T00:00:00	3	Temperatura mínima	17.4
157304	7	Sololá	712	San Antonio Palopó	9	San Antonio Palopo	3	Marzo	2023-04-03T00:00:00	2024-11-08T00:00:00	5	Humedad	81
157305	7	Sololá	712	San Antonio Palopó	9	San Antonio Palopo	3	Marzo	2023-04-03T00:00:00	2024-11-08T00:00:00	6	Velocidad del viento	3.2
157306	7	Sololá	712	San Antonio Palopó	9	San Antonio Palopo	3	Marzo	2023-04-03T00:00:00	2024-11-08T00:00:00	7	Dirección del viento	3.22
157307	7	Sololá	712	San Antonio Palopó	9	San Antonio Palopo	3	Marzo	2023-04-03T00:00:00	2024-11-08T00:00:00	1	Precipitación	0
157308	7	Sololá	712	San Antonio Palopó	9	San Antonio Palopo	3	Marzo	2023-04-03T00:00:00	2024-11-08T00:00:00	8	Radiación solar	0
157309	7	Sololá	712	San Antonio Palopó	9	San Antonio Palopo	3	Marzo	2023-04-03T00:00:00	2024-11-08T01:00:00	2	Temperatura media	17.4
157310	7	Sololá	712	San Antonio Palopó	9	San Antonio Palopo	3	Marzo	2023-04-03T00:00:00	2024-11-08T01:00:00	4	Temperatura máxima	17.5
157311	7	Sololá	712	San Antonio Palopó	9	San Antonio Palopo	3	Marzo	2023-04-03T00:00:00	2024-11-08T01:00:00	3	Temperatura mínima	17.3
157312	7	Sololá	712	San Antonio Palopó	9	San Antonio Palopo	3	Marzo	2023-04-03T00:00:00	2024-11-08T01:00:00	5	Humedad	78
157313	7	Sololá	712	San Antonio Palopó	9	San Antonio Palopo	3	Marzo	2023-04-03T00:00:00	2024-11-08T01:00:00	6	Velocidad del viento	1.6
157314	7	Sololá	712	San Antonio Palopó	9	San Antonio Palopo	3	Marzo	2023-04-03T00:00:00	2024-11-08T01:00:00	7	Dirección del viento	1.61
157315	7	Sololá	712	San Antonio Palopó	9	San Antonio Palopo	3	Marzo	2023-04-03T00:00:00	2024-11-08T01:00:00	1	Precipitación	0
157316	7	Sololá	712	San Antonio Palopó	9	San Antonio Palopo	3	Marzo	2023-04-03T00:00:00	2024-11-08T01:00:00	8	Radiación solar	0
157317	7	Sololá	712	San Antonio Palopó	9	San Antonio Palopo	3	Marzo	2023-04-03T00:00:00	2024-11-08T02:00:00	2	Temperatura media	17.1
157318	7	Sololá	712	San Antonio Palopó	9	San Antonio Palopo	3	Marzo	2023-04-03T00:00:00	2024-11-08T02:00:00	4	Temperatura máxima	17.4
157319	7	Sololá	712	San Antonio Palopó	9	San Antonio Palopo	3	Marzo	2023-04-03T00:00:00	2024-11-08T02:00:00	3	Temperatura mínima	17
157320	7	Sololá	712	San Antonio Palopó	9	San Antonio Palopo	3	Marzo	2023-04-03T00:00:00	2024-11-08T02:00:00	5	Humedad	78
157321	7	Sololá	712	San Antonio Palopó	9	San Antonio Palopo	3	Marzo	2023-04-03T00:00:00	2024-11-08T02:00:00	6	Velocidad del viento	3.2
157322	7	Sololá	712	San Antonio Palopó	9	San Antonio Palopo	3	Marzo	2023-04-03T00:00:00	2024-11-08T02:00:00	7	Dirección del viento	3.22
157323	7	Sololá	712	San Antonio Palopó	9	San Antonio Palopo	3	Marzo	2023-04-03T00:00:00	2024-11-08T02:00:00	1	Precipitación	0
157324	7	Sololá	712	San Antonio Palopó	9	San Antonio Palopo	3	Marzo	2023-04-03T00:00:00	2024-11-08T02:00:00	8	Radiación solar	0
157325	7	Sololá	712	San Antonio Palopó	9	San Antonio Palopo	3	Marzo	2023-04-03T00:00:00	2024-11-08T03:00:00	2	Temperatura media	15.6
157326	7	Sololá	712	San Antonio Palopó	9	San Antonio Palopo	3	Marzo	2023-04-03T00:00:00	2024-11-08T03:00:00	4	Temperatura máxima	17.1
157327	7	Sololá	712	San Antonio Palopó	9	San Antonio Palopo	3	Marzo	2023-04-03T00:00:00	2024-11-08T03:00:00	3	Temperatura mínima	15.5
157328	7	Sololá	712	San Antonio Palopó	9	San Antonio Palopo	3	Marzo	2023-04-03T00:00:00	2024-11-08T03:00:00	5	Humedad	80
157329	7	Sololá	712	San Antonio Palopó	9	San Antonio Palopo	3	Marzo	2023-04-03T00:00:00	2024-11-08T03:00:00	6	Velocidad del viento	3.2
157330	7	Sololá	712	San Antonio Palopó	9	San Antonio Palopo	3	Marzo	2023-04-03T00:00:00	2024-11-08T03:00:00	7	Dirección del viento	3.22
157331	7	Sololá	712	San Antonio Palopó	9	San Antonio Palopo	3	Marzo	2023-04-03T00:00:00	2024-11-08T03:00:00	1	Precipitación	0
157332	7	Sololá	712	San Antonio Palopó	9	San Antonio Palopo	3	Marzo	2023-04-03T00:00:00	2024-11-08T03:00:00	8	Radiación solar	0
157333	7	Sololá	712	San Antonio Palopó	9	San Antonio Palopo	3	Marzo	2023-04-03T00:00:00	2024-11-08T04:00:00	2	Temperatura media	15.6
157334	7	Sololá	712	San Antonio Palopó	9	San Antonio Palopo	3	Marzo	2023-04-03T00:00:00	2024-11-08T04:00:00	4	Temperatura máxima	15.6
157335	7	Sololá	712	San Antonio Palopó	9	San Antonio Palopo	3	Marzo	2023-04-03T00:00:00	2024-11-08T04:00:00	3	Temperatura mínima	15.4
157336	7	Sololá	712	San Antonio Palopó	9	San Antonio Palopo	3	Marzo	2023-04-03T00:00:00	2024-11-08T04:00:00	5	Humedad	83
157337	7	Sololá	712	San Antonio Palopó	9	San Antonio Palopo	3	Marzo	2023-04-03T00:00:00	2024-11-08T04:00:00	6	Velocidad del viento	4.8
157338	7	Sololá	712	San Antonio Palopó	9	San Antonio Palopo	3	Marzo	2023-04-03T00:00:00	2024-11-08T04:00:00	7	Dirección del viento	4.83
157339	7	Sololá	712	San Antonio Palopó	9	San Antonio Palopo	3	Marzo	2023-04-03T00:00:00	2024-11-08T04:00:00	1	Precipitación	0
157340	7	Sololá	712	San Antonio Palopó	9	San Antonio Palopo	3	Marzo	2023-04-03T00:00:00	2024-11-08T04:00:00	8	Radiación solar	0
157341	7	Sololá	712	San Antonio Palopó	9	San Antonio Palopo	3	Marzo	2023-04-03T00:00:00	2024-11-08T05:00:00	2	Temperatura media	15.6
157342	7	Sololá	712	San Antonio Palopó	9	San Antonio Palopo	3	Marzo	2023-04-03T00:00:00	2024-11-08T05:00:00	4	Temperatura máxima	15.6
157343	7	Sololá	712	San Antonio Palopó	9	San Antonio Palopo	3	Marzo	2023-04-03T00:00:00	2024-11-08T05:00:00	3	Temperatura mínima	15.2
157344	7	Sololá	712	San Antonio Palopó	9	San Antonio Palopo	3	Marzo	2023-04-03T00:00:00	2024-11-08T05:00:00	5	Humedad	83
157345	7	Sololá	712	San Antonio Palopó	9	San Antonio Palopo	3	Marzo	2023-04-03T00:00:00	2024-11-08T05:00:00	6	Velocidad del viento	4.8
157346	7	Sololá	712	San Antonio Palopó	9	San Antonio Palopo	3	Marzo	2023-04-03T00:00:00	2024-11-08T05:00:00	7	Dirección del viento	4.83
157347	7	Sololá	712	San Antonio Palopó	9	San Antonio Palopo	3	Marzo	2023-04-03T00:00:00	2024-11-08T05:00:00	1	Precipitación	0
157348	7	Sololá	712	San Antonio Palopó	9	San Antonio Palopo	3	Marzo	2023-04-03T00:00:00	2024-11-08T05:00:00	8	Radiación solar	0
157349	7	Sololá	712	San Antonio Palopó	9	San Antonio Palopo	3	Marzo	2023-04-03T00:00:00	2024-11-08T06:00:00	2	Temperatura media	15.6
157350	7	Sololá	712	San Antonio Palopó	9	San Antonio Palopo	3	Marzo	2023-04-03T00:00:00	2024-11-08T06:00:00	4	Temperatura máxima	15.9
157351	7	Sololá	712	San Antonio Palopó	9	San Antonio Palopo	3	Marzo	2023-04-03T00:00:00	2024-11-08T06:00:00	3	Temperatura mínima	15.6
157352	7	Sololá	712	San Antonio Palopó	9	San Antonio Palopo	3	Marzo	2023-04-03T00:00:00	2024-11-08T06:00:00	5	Humedad	85
157353	7	Sololá	712	San Antonio Palopó	9	San Antonio Palopo	3	Marzo	2023-04-03T00:00:00	2024-11-08T06:00:00	6	Velocidad del viento	3.2
157354	7	Sololá	712	San Antonio Palopó	9	San Antonio Palopo	3	Marzo	2023-04-03T00:00:00	2024-11-08T06:00:00	7	Dirección del viento	3.22
157355	7	Sololá	712	San Antonio Palopó	9	San Antonio Palopo	3	Marzo	2023-04-03T00:00:00	2024-11-08T06:00:00	1	Precipitación	0
157356	7	Sololá	712	San Antonio Palopó	9	San Antonio Palopo	3	Marzo	2023-04-03T00:00:00	2024-11-08T06:00:00	8	Radiación solar	0
157357	7	Sololá	712	San Antonio Palopó	9	San Antonio Palopo	3	Marzo	2023-04-03T00:00:00	2024-11-08T07:00:00	2	Temperatura media	15.4
157358	7	Sololá	712	San Antonio Palopó	9	San Antonio Palopo	3	Marzo	2023-04-03T00:00:00	2024-11-08T07:00:00	4	Temperatura máxima	15.7
157359	7	Sololá	712	San Antonio Palopó	9	San Antonio Palopo	3	Marzo	2023-04-03T00:00:00	2024-11-08T07:00:00	3	Temperatura mínima	15.1
157360	7	Sololá	712	San Antonio Palopó	9	San Antonio Palopo	3	Marzo	2023-04-03T00:00:00	2024-11-08T07:00:00	5	Humedad	86
157361	7	Sololá	712	San Antonio Palopó	9	San Antonio Palopo	3	Marzo	2023-04-03T00:00:00	2024-11-08T07:00:00	6	Velocidad del viento	4.8
157362	7	Sololá	712	San Antonio Palopó	9	San Antonio Palopo	3	Marzo	2023-04-03T00:00:00	2024-11-08T07:00:00	7	Dirección del viento	4.83
157363	7	Sololá	712	San Antonio Palopó	9	San Antonio Palopo	3	Marzo	2023-04-03T00:00:00	2024-11-08T07:00:00	1	Precipitación	0
157364	7	Sololá	712	San Antonio Palopó	9	San Antonio Palopo	3	Marzo	2023-04-03T00:00:00	2024-11-08T07:00:00	8	Radiación solar	9
157365	7	Sololá	712	San Antonio Palopó	9	San Antonio Palopo	3	Marzo	2023-04-03T00:00:00	2024-11-08T08:00:00	2	Temperatura media	16.1
157366	7	Sololá	712	San Antonio Palopó	9	San Antonio Palopo	3	Marzo	2023-04-03T00:00:00	2024-11-08T08:00:00	4	Temperatura máxima	16.1
157367	7	Sololá	712	San Antonio Palopó	9	San Antonio Palopo	3	Marzo	2023-04-03T00:00:00	2024-11-08T08:00:00	3	Temperatura mínima	15.4
157368	7	Sololá	712	San Antonio Palopó	9	San Antonio Palopo	3	Marzo	2023-04-03T00:00:00	2024-11-08T08:00:00	5	Humedad	86
157369	7	Sololá	712	San Antonio Palopó	9	San Antonio Palopo	3	Marzo	2023-04-03T00:00:00	2024-11-08T08:00:00	6	Velocidad del viento	3.2
157370	7	Sololá	712	San Antonio Palopó	9	San Antonio Palopo	3	Marzo	2023-04-03T00:00:00	2024-11-08T08:00:00	7	Dirección del viento	3.22
157371	7	Sololá	712	San Antonio Palopó	9	San Antonio Palopo	3	Marzo	2023-04-03T00:00:00	2024-11-08T08:00:00	1	Precipitación	0
157372	7	Sololá	712	San Antonio Palopó	9	San Antonio Palopo	3	Marzo	2023-04-03T00:00:00	2024-11-08T08:00:00	8	Radiación solar	42
157373	7	Sololá	712	San Antonio Palopó	9	San Antonio Palopo	3	Marzo	2023-04-03T00:00:00	2024-11-08T09:00:00	2	Temperatura media	18.9
157374	7	Sololá	712	San Antonio Palopó	9	San Antonio Palopo	3	Marzo	2023-04-03T00:00:00	2024-11-08T09:00:00	4	Temperatura máxima	19.2
157375	7	Sololá	712	San Antonio Palopó	9	San Antonio Palopo	3	Marzo	2023-04-03T00:00:00	2024-11-08T09:00:00	3	Temperatura mínima	16.1
157376	7	Sololá	712	San Antonio Palopó	9	San Antonio Palopo	3	Marzo	2023-04-03T00:00:00	2024-11-08T09:00:00	5	Humedad	79
157377	7	Sololá	712	San Antonio Palopó	9	San Antonio Palopo	3	Marzo	2023-04-03T00:00:00	2024-11-08T09:00:00	6	Velocidad del viento	3.2
157378	7	Sololá	712	San Antonio Palopó	9	San Antonio Palopo	3	Marzo	2023-04-03T00:00:00	2024-11-08T09:00:00	7	Dirección del viento	3.22
157379	7	Sololá	712	San Antonio Palopó	9	San Antonio Palopo	3	Marzo	2023-04-03T00:00:00	2024-11-08T09:00:00	1	Precipitación	0
157380	7	Sololá	712	San Antonio Palopó	9	San Antonio Palopo	3	Marzo	2023-04-03T00:00:00	2024-11-08T09:00:00	8	Radiación solar	376
157381	7	Sololá	712	San Antonio Palopó	9	San Antonio Palopo	3	Marzo	2023-04-03T00:00:00	2024-11-08T10:00:00	2	Temperatura media	19.8
157382	7	Sololá	712	San Antonio Palopó	9	San Antonio Palopo	3	Marzo	2023-04-03T00:00:00	2024-11-08T10:00:00	4	Temperatura máxima	19.8
157383	7	Sololá	712	San Antonio Palopó	9	San Antonio Palopo	3	Marzo	2023-04-03T00:00:00	2024-11-08T10:00:00	3	Temperatura mínima	18.6
157384	7	Sololá	712	San Antonio Palopó	9	San Antonio Palopo	3	Marzo	2023-04-03T00:00:00	2024-11-08T10:00:00	5	Humedad	76
157385	7	Sololá	712	San Antonio Palopó	9	San Antonio Palopo	3	Marzo	2023-04-03T00:00:00	2024-11-08T10:00:00	6	Velocidad del viento	3.2
157386	7	Sololá	712	San Antonio Palopó	9	San Antonio Palopo	3	Marzo	2023-04-03T00:00:00	2024-11-08T10:00:00	7	Dirección del viento	3.22
157387	7	Sololá	712	San Antonio Palopó	9	San Antonio Palopo	3	Marzo	2023-04-03T00:00:00	2024-11-08T10:00:00	1	Precipitación	0
157388	7	Sololá	712	San Antonio Palopó	9	San Antonio Palopo	3	Marzo	2023-04-03T00:00:00	2024-11-08T10:00:00	8	Radiación solar	594
157389	7	Sololá	712	San Antonio Palopó	9	San Antonio Palopo	3	Marzo	2023-04-03T00:00:00	2024-11-08T11:00:00	2	Temperatura media	21.9
157390	7	Sololá	712	San Antonio Palopó	9	San Antonio Palopo	3	Marzo	2023-04-03T00:00:00	2024-11-08T11:00:00	4	Temperatura máxima	21.9
157391	7	Sololá	712	San Antonio Palopó	9	San Antonio Palopo	3	Marzo	2023-04-03T00:00:00	2024-11-08T11:00:00	3	Temperatura mínima	19.8
157392	7	Sololá	712	San Antonio Palopó	9	San Antonio Palopo	3	Marzo	2023-04-03T00:00:00	2024-11-08T11:00:00	5	Humedad	69
157393	7	Sololá	712	San Antonio Palopó	9	San Antonio Palopo	3	Marzo	2023-04-03T00:00:00	2024-11-08T11:00:00	6	Velocidad del viento	3.2
157394	7	Sololá	712	San Antonio Palopó	9	San Antonio Palopo	3	Marzo	2023-04-03T00:00:00	2024-11-08T11:00:00	7	Dirección del viento	3.22
157395	7	Sololá	712	San Antonio Palopó	9	San Antonio Palopo	3	Marzo	2023-04-03T00:00:00	2024-11-08T11:00:00	1	Precipitación	0
157396	7	Sololá	712	San Antonio Palopó	9	San Antonio Palopo	3	Marzo	2023-04-03T00:00:00	2024-11-08T11:00:00	8	Radiación solar	778
157397	7	Sololá	712	San Antonio Palopó	9	San Antonio Palopo	3	Marzo	2023-04-03T00:00:00	2024-11-08T12:00:00	2	Temperatura media	23.2
157398	7	Sololá	712	San Antonio Palopó	9	San Antonio Palopo	3	Marzo	2023-04-03T00:00:00	2024-11-08T12:00:00	4	Temperatura máxima	23.3
157399	7	Sololá	712	San Antonio Palopó	9	San Antonio Palopo	3	Marzo	2023-04-03T00:00:00	2024-11-08T12:00:00	3	Temperatura mínima	21.6
157400	7	Sololá	712	San Antonio Palopó	9	San Antonio Palopo	3	Marzo	2023-04-03T00:00:00	2024-11-08T12:00:00	5	Humedad	68
157401	7	Sololá	712	San Antonio Palopó	9	San Antonio Palopo	3	Marzo	2023-04-03T00:00:00	2024-11-08T12:00:00	6	Velocidad del viento	6.4
157402	7	Sololá	712	San Antonio Palopó	9	San Antonio Palopo	3	Marzo	2023-04-03T00:00:00	2024-11-08T12:00:00	7	Dirección del viento	6.44
157403	7	Sololá	712	San Antonio Palopó	9	San Antonio Palopo	3	Marzo	2023-04-03T00:00:00	2024-11-08T12:00:00	1	Precipitación	0
157404	7	Sololá	712	San Antonio Palopó	9	San Antonio Palopo	3	Marzo	2023-04-03T00:00:00	2024-11-08T12:00:00	8	Radiación solar	802
157405	7	Sololá	712	San Antonio Palopó	9	San Antonio Palopo	3	Marzo	2023-04-03T00:00:00	2024-11-08T13:00:00	2	Temperatura media	23.8
157406	7	Sololá	712	San Antonio Palopó	9	San Antonio Palopo	3	Marzo	2023-04-03T00:00:00	2024-11-08T13:00:00	4	Temperatura máxima	24.4
157407	7	Sololá	712	San Antonio Palopó	9	San Antonio Palopo	3	Marzo	2023-04-03T00:00:00	2024-11-08T13:00:00	3	Temperatura mínima	23.1
157408	7	Sololá	712	San Antonio Palopó	9	San Antonio Palopo	3	Marzo	2023-04-03T00:00:00	2024-11-08T13:00:00	5	Humedad	64
157409	7	Sololá	712	San Antonio Palopó	9	San Antonio Palopo	3	Marzo	2023-04-03T00:00:00	2024-11-08T13:00:00	6	Velocidad del viento	8
157410	7	Sololá	712	San Antonio Palopó	9	San Antonio Palopo	3	Marzo	2023-04-03T00:00:00	2024-11-08T13:00:00	7	Dirección del viento	8.05
157411	7	Sololá	712	San Antonio Palopó	9	San Antonio Palopo	3	Marzo	2023-04-03T00:00:00	2024-11-08T13:00:00	1	Precipitación	0
157412	7	Sololá	712	San Antonio Palopó	9	San Antonio Palopo	3	Marzo	2023-04-03T00:00:00	2024-11-08T13:00:00	8	Radiación solar	864
157413	7	Sololá	712	San Antonio Palopó	9	San Antonio Palopo	3	Marzo	2023-04-03T00:00:00	2024-11-08T14:00:00	2	Temperatura media	24.2
157414	7	Sololá	712	San Antonio Palopó	9	San Antonio Palopo	3	Marzo	2023-04-03T00:00:00	2024-11-08T14:00:00	4	Temperatura máxima	24.7
157415	7	Sololá	712	San Antonio Palopó	9	San Antonio Palopo	3	Marzo	2023-04-03T00:00:00	2024-11-08T14:00:00	3	Temperatura mínima	23.3
157416	7	Sololá	712	San Antonio Palopó	9	San Antonio Palopo	3	Marzo	2023-04-03T00:00:00	2024-11-08T14:00:00	5	Humedad	65
157417	7	Sololá	712	San Antonio Palopó	9	San Antonio Palopo	3	Marzo	2023-04-03T00:00:00	2024-11-08T14:00:00	6	Velocidad del viento	8
157418	7	Sololá	712	San Antonio Palopó	9	San Antonio Palopo	3	Marzo	2023-04-03T00:00:00	2024-11-08T14:00:00	7	Dirección del viento	8.05
157419	7	Sololá	712	San Antonio Palopó	9	San Antonio Palopo	3	Marzo	2023-04-03T00:00:00	2024-11-08T14:00:00	1	Precipitación	0
157420	7	Sololá	712	San Antonio Palopó	9	San Antonio Palopo	3	Marzo	2023-04-03T00:00:00	2024-11-08T14:00:00	8	Radiación solar	632
157421	7	Sololá	712	San Antonio Palopó	9	San Antonio Palopo	3	Marzo	2023-04-03T00:00:00	2024-11-08T15:00:00	2	Temperatura media	24.2
157422	7	Sololá	712	San Antonio Palopó	9	San Antonio Palopo	3	Marzo	2023-04-03T00:00:00	2024-11-08T15:00:00	4	Temperatura máxima	25.1
157423	7	Sololá	712	San Antonio Palopó	9	San Antonio Palopo	3	Marzo	2023-04-03T00:00:00	2024-11-08T15:00:00	3	Temperatura mínima	23.7
157424	7	Sololá	712	San Antonio Palopó	9	San Antonio Palopo	3	Marzo	2023-04-03T00:00:00	2024-11-08T15:00:00	5	Humedad	63
157425	7	Sololá	712	San Antonio Palopó	9	San Antonio Palopo	3	Marzo	2023-04-03T00:00:00	2024-11-08T15:00:00	6	Velocidad del viento	6.4
157426	7	Sololá	712	San Antonio Palopó	9	San Antonio Palopo	3	Marzo	2023-04-03T00:00:00	2024-11-08T15:00:00	7	Dirección del viento	6.44
157427	7	Sololá	712	San Antonio Palopó	9	San Antonio Palopo	3	Marzo	2023-04-03T00:00:00	2024-11-08T15:00:00	1	Precipitación	0
157428	7	Sololá	712	San Antonio Palopó	9	San Antonio Palopo	3	Marzo	2023-04-03T00:00:00	2024-11-08T15:00:00	8	Radiación solar	574
157429	7	Sololá	712	San Antonio Palopó	9	San Antonio Palopo	3	Marzo	2023-04-03T00:00:00	2024-11-08T16:00:00	2	Temperatura media	22.9
157430	7	Sololá	712	San Antonio Palopó	9	San Antonio Palopo	3	Marzo	2023-04-03T00:00:00	2024-11-08T16:00:00	4	Temperatura máxima	24.2
157431	7	Sololá	712	San Antonio Palopó	9	San Antonio Palopo	3	Marzo	2023-04-03T00:00:00	2024-11-08T16:00:00	3	Temperatura mínima	22.4
157432	7	Sololá	712	San Antonio Palopó	9	San Antonio Palopo	3	Marzo	2023-04-03T00:00:00	2024-11-08T16:00:00	5	Humedad	70
157433	7	Sololá	712	San Antonio Palopó	9	San Antonio Palopo	3	Marzo	2023-04-03T00:00:00	2024-11-08T16:00:00	6	Velocidad del viento	9.7
157434	7	Sololá	712	San Antonio Palopó	9	San Antonio Palopo	3	Marzo	2023-04-03T00:00:00	2024-11-08T16:00:00	7	Dirección del viento	9.66
157435	7	Sololá	712	San Antonio Palopó	9	San Antonio Palopo	3	Marzo	2023-04-03T00:00:00	2024-11-08T16:00:00	1	Precipitación	0
157436	7	Sololá	712	San Antonio Palopó	9	San Antonio Palopo	3	Marzo	2023-04-03T00:00:00	2024-11-08T16:00:00	8	Radiación solar	235
157437	7	Sololá	712	San Antonio Palopó	9	San Antonio Palopo	3	Marzo	2023-04-03T00:00:00	2024-11-08T17:00:00	2	Temperatura media	22.3
157438	7	Sololá	712	San Antonio Palopó	9	San Antonio Palopo	3	Marzo	2023-04-03T00:00:00	2024-11-08T17:00:00	4	Temperatura máxima	22.9
157439	7	Sololá	712	San Antonio Palopó	9	San Antonio Palopo	3	Marzo	2023-04-03T00:00:00	2024-11-08T17:00:00	3	Temperatura mínima	22.2
157440	7	Sololá	712	San Antonio Palopó	9	San Antonio Palopo	3	Marzo	2023-04-03T00:00:00	2024-11-08T17:00:00	5	Humedad	71
157441	7	Sololá	712	San Antonio Palopó	9	San Antonio Palopo	3	Marzo	2023-04-03T00:00:00	2024-11-08T17:00:00	6	Velocidad del viento	6.4
157442	7	Sololá	712	San Antonio Palopó	9	San Antonio Palopo	3	Marzo	2023-04-03T00:00:00	2024-11-08T17:00:00	7	Dirección del viento	6.44
157443	7	Sololá	712	San Antonio Palopó	9	San Antonio Palopo	3	Marzo	2023-04-03T00:00:00	2024-11-08T17:00:00	1	Precipitación	0
157444	7	Sololá	712	San Antonio Palopó	9	San Antonio Palopo	3	Marzo	2023-04-03T00:00:00	2024-11-08T17:00:00	8	Radiación solar	163
157445	7	Sololá	712	San Antonio Palopó	9	San Antonio Palopo	3	Marzo	2023-04-03T00:00:00	2024-11-08T18:00:00	2	Temperatura media	21.3
157446	7	Sololá	712	San Antonio Palopó	9	San Antonio Palopo	3	Marzo	2023-04-03T00:00:00	2024-11-08T18:00:00	4	Temperatura máxima	22.3
157447	7	Sololá	712	San Antonio Palopó	9	San Antonio Palopo	3	Marzo	2023-04-03T00:00:00	2024-11-08T18:00:00	3	Temperatura mínima	21.2
157448	7	Sololá	712	San Antonio Palopó	9	San Antonio Palopo	3	Marzo	2023-04-03T00:00:00	2024-11-08T18:00:00	5	Humedad	75
157449	7	Sololá	712	San Antonio Palopó	9	San Antonio Palopo	3	Marzo	2023-04-03T00:00:00	2024-11-08T18:00:00	6	Velocidad del viento	4.8
157450	7	Sololá	712	San Antonio Palopó	9	San Antonio Palopo	3	Marzo	2023-04-03T00:00:00	2024-11-08T18:00:00	7	Dirección del viento	4.83
157451	7	Sololá	712	San Antonio Palopó	9	San Antonio Palopo	3	Marzo	2023-04-03T00:00:00	2024-11-08T18:00:00	1	Precipitación	0
157452	7	Sololá	712	San Antonio Palopó	9	San Antonio Palopo	3	Marzo	2023-04-03T00:00:00	2024-11-08T18:00:00	8	Radiación solar	57
157453	7	Sololá	712	San Antonio Palopó	9	San Antonio Palopo	3	Marzo	2023-04-03T00:00:00	2024-11-08T19:00:00	2	Temperatura media	20.2
157454	7	Sololá	712	San Antonio Palopó	9	San Antonio Palopo	3	Marzo	2023-04-03T00:00:00	2024-11-08T19:00:00	4	Temperatura máxima	21.3
157455	7	Sololá	712	San Antonio Palopó	9	San Antonio Palopo	3	Marzo	2023-04-03T00:00:00	2024-11-08T19:00:00	3	Temperatura mínima	20.2
157456	7	Sololá	712	San Antonio Palopó	9	San Antonio Palopo	3	Marzo	2023-04-03T00:00:00	2024-11-08T19:00:00	5	Humedad	79
157457	7	Sololá	712	San Antonio Palopó	9	San Antonio Palopo	3	Marzo	2023-04-03T00:00:00	2024-11-08T19:00:00	6	Velocidad del viento	1.6
157458	7	Sololá	712	San Antonio Palopó	9	San Antonio Palopo	3	Marzo	2023-04-03T00:00:00	2024-11-08T19:00:00	7	Dirección del viento	1.61
157459	7	Sololá	712	San Antonio Palopó	9	San Antonio Palopo	3	Marzo	2023-04-03T00:00:00	2024-11-08T19:00:00	1	Precipitación	0
157460	7	Sololá	712	San Antonio Palopó	9	San Antonio Palopo	3	Marzo	2023-04-03T00:00:00	2024-11-08T19:00:00	8	Radiación solar	0
157461	7	Sololá	712	San Antonio Palopó	9	San Antonio Palopo	3	Marzo	2023-04-03T00:00:00	2024-11-08T20:00:00	2	Temperatura media	19.5
157462	7	Sololá	712	San Antonio Palopó	9	San Antonio Palopo	3	Marzo	2023-04-03T00:00:00	2024-11-08T20:00:00	4	Temperatura máxima	20.2
157463	7	Sololá	712	San Antonio Palopó	9	San Antonio Palopo	3	Marzo	2023-04-03T00:00:00	2024-11-08T20:00:00	3	Temperatura mínima	19.5
157464	7	Sololá	712	San Antonio Palopó	9	San Antonio Palopo	3	Marzo	2023-04-03T00:00:00	2024-11-08T20:00:00	5	Humedad	79
157465	7	Sololá	712	San Antonio Palopó	9	San Antonio Palopo	3	Marzo	2023-04-03T00:00:00	2024-11-08T20:00:00	6	Velocidad del viento	1.6
157466	7	Sololá	712	San Antonio Palopó	9	San Antonio Palopo	3	Marzo	2023-04-03T00:00:00	2024-11-08T20:00:00	7	Dirección del viento	1.61
157467	7	Sololá	712	San Antonio Palopó	9	San Antonio Palopo	3	Marzo	2023-04-03T00:00:00	2024-11-08T20:00:00	1	Precipitación	0
157468	7	Sololá	712	San Antonio Palopó	9	San Antonio Palopo	3	Marzo	2023-04-03T00:00:00	2024-11-08T20:00:00	8	Radiación solar	0
157469	7	Sololá	712	San Antonio Palopó	9	San Antonio Palopo	3	Marzo	2023-04-03T00:00:00	2024-11-08T21:00:00	2	Temperatura media	19.8
157470	7	Sololá	712	San Antonio Palopó	9	San Antonio Palopo	3	Marzo	2023-04-03T00:00:00	2024-11-08T21:00:00	4	Temperatura máxima	19.9
157471	7	Sololá	712	San Antonio Palopó	9	San Antonio Palopo	3	Marzo	2023-04-03T00:00:00	2024-11-08T21:00:00	3	Temperatura mínima	19.4
157472	7	Sololá	712	San Antonio Palopó	9	San Antonio Palopo	3	Marzo	2023-04-03T00:00:00	2024-11-08T21:00:00	5	Humedad	80
157473	7	Sololá	712	San Antonio Palopó	9	San Antonio Palopo	3	Marzo	2023-04-03T00:00:00	2024-11-08T21:00:00	6	Velocidad del viento	1.6
157474	7	Sololá	712	San Antonio Palopó	9	San Antonio Palopo	3	Marzo	2023-04-03T00:00:00	2024-11-08T21:00:00	7	Dirección del viento	1.61
157475	7	Sololá	712	San Antonio Palopó	9	San Antonio Palopo	3	Marzo	2023-04-03T00:00:00	2024-11-08T21:00:00	1	Precipitación	0
157476	7	Sololá	712	San Antonio Palopó	9	San Antonio Palopo	3	Marzo	2023-04-03T00:00:00	2024-11-08T21:00:00	8	Radiación solar	0
157477	7	Sololá	712	San Antonio Palopó	9	San Antonio Palopo	3	Marzo	2023-04-03T00:00:00	2024-11-08T22:00:00	2	Temperatura media	20.6
157478	7	Sololá	712	San Antonio Palopó	9	San Antonio Palopo	3	Marzo	2023-04-03T00:00:00	2024-11-08T22:00:00	4	Temperatura máxima	20.6
157479	7	Sololá	712	San Antonio Palopó	9	San Antonio Palopo	3	Marzo	2023-04-03T00:00:00	2024-11-08T22:00:00	3	Temperatura mínima	19.4
157480	7	Sololá	712	San Antonio Palopó	9	San Antonio Palopo	3	Marzo	2023-04-03T00:00:00	2024-11-08T22:00:00	5	Humedad	70
157481	7	Sololá	712	San Antonio Palopó	9	San Antonio Palopo	3	Marzo	2023-04-03T00:00:00	2024-11-08T22:00:00	6	Velocidad del viento	3.2
157482	7	Sololá	712	San Antonio Palopó	9	San Antonio Palopo	3	Marzo	2023-04-03T00:00:00	2024-11-08T22:00:00	7	Dirección del viento	3.22
157483	7	Sololá	712	San Antonio Palopó	9	San Antonio Palopo	3	Marzo	2023-04-03T00:00:00	2024-11-08T22:00:00	1	Precipitación	0
157484	7	Sololá	712	San Antonio Palopó	9	San Antonio Palopo	3	Marzo	2023-04-03T00:00:00	2024-11-08T22:00:00	8	Radiación solar	0
157485	7	Sololá	712	San Antonio Palopó	9	San Antonio Palopo	3	Marzo	2023-04-03T00:00:00	2024-11-08T23:00:00	2	Temperatura media	20.8
157486	7	Sololá	712	San Antonio Palopó	9	San Antonio Palopo	3	Marzo	2023-04-03T00:00:00	2024-11-08T23:00:00	4	Temperatura máxima	21
157487	7	Sololá	712	San Antonio Palopó	9	San Antonio Palopo	3	Marzo	2023-04-03T00:00:00	2024-11-08T23:00:00	3	Temperatura mínima	20.6
157488	7	Sololá	712	San Antonio Palopó	9	San Antonio Palopo	3	Marzo	2023-04-03T00:00:00	2024-11-08T23:00:00	5	Humedad	68
157489	7	Sololá	712	San Antonio Palopó	9	San Antonio Palopo	3	Marzo	2023-04-03T00:00:00	2024-11-08T23:00:00	6	Velocidad del viento	17.7
157490	7	Sololá	712	San Antonio Palopó	9	San Antonio Palopo	3	Marzo	2023-04-03T00:00:00	2024-11-08T23:00:00	7	Dirección del viento	17.7
157491	7	Sololá	712	San Antonio Palopó	9	San Antonio Palopo	3	Marzo	2023-04-03T00:00:00	2024-11-08T23:00:00	1	Precipitación	0
157492	7	Sololá	712	San Antonio Palopó	9	San Antonio Palopo	3	Marzo	2023-04-03T00:00:00	2024-11-08T23:00:00	8	Radiación solar	0
157493	7	Sololá	712	San Antonio Palopó	9	San Antonio Palopo	3	Marzo	2023-05-03T00:00:00	2024-11-08T00:00:00	2	Temperatura media	19.9
157494	7	Sololá	712	San Antonio Palopó	9	San Antonio Palopo	3	Marzo	2023-05-03T00:00:00	2024-11-08T00:00:00	4	Temperatura máxima	20.9
157495	7	Sololá	712	San Antonio Palopó	9	San Antonio Palopo	3	Marzo	2023-05-03T00:00:00	2024-11-08T00:00:00	3	Temperatura mínima	19.9
157496	7	Sololá	712	San Antonio Palopó	9	San Antonio Palopo	3	Marzo	2023-05-03T00:00:00	2024-11-08T00:00:00	5	Humedad	72
157497	7	Sololá	712	San Antonio Palopó	9	San Antonio Palopo	3	Marzo	2023-05-03T00:00:00	2024-11-08T00:00:00	6	Velocidad del viento	17.7
157498	7	Sololá	712	San Antonio Palopó	9	San Antonio Palopo	3	Marzo	2023-05-03T00:00:00	2024-11-08T00:00:00	7	Dirección del viento	17.7
157499	7	Sololá	712	San Antonio Palopó	9	San Antonio Palopo	3	Marzo	2023-05-03T00:00:00	2024-11-08T00:00:00	1	Precipitación	0
157500	7	Sololá	712	San Antonio Palopó	9	San Antonio Palopo	3	Marzo	2023-05-03T00:00:00	2024-11-08T00:00:00	8	Radiación solar	0
157501	7	Sololá	712	San Antonio Palopó	9	San Antonio Palopo	3	Marzo	2023-05-03T00:00:00	2024-11-08T01:00:00	2	Temperatura media	19.2
157502	7	Sololá	712	San Antonio Palopó	9	San Antonio Palopo	3	Marzo	2023-05-03T00:00:00	2024-11-08T01:00:00	4	Temperatura máxima	19.9
157503	7	Sololá	712	San Antonio Palopó	9	San Antonio Palopo	3	Marzo	2023-05-03T00:00:00	2024-11-08T01:00:00	3	Temperatura mínima	19.1
157504	7	Sololá	712	San Antonio Palopó	9	San Antonio Palopo	3	Marzo	2023-05-03T00:00:00	2024-11-08T01:00:00	5	Humedad	74
157505	7	Sololá	712	San Antonio Palopó	9	San Antonio Palopo	3	Marzo	2023-05-03T00:00:00	2024-11-08T01:00:00	6	Velocidad del viento	19.3
157506	7	Sololá	712	San Antonio Palopó	9	San Antonio Palopo	3	Marzo	2023-05-03T00:00:00	2024-11-08T01:00:00	7	Dirección del viento	19.31
157507	7	Sololá	712	San Antonio Palopó	9	San Antonio Palopo	3	Marzo	2023-05-03T00:00:00	2024-11-08T01:00:00	1	Precipitación	0
157508	7	Sololá	712	San Antonio Palopó	9	San Antonio Palopo	3	Marzo	2023-05-03T00:00:00	2024-11-08T01:00:00	8	Radiación solar	0
157509	7	Sololá	712	San Antonio Palopó	9	San Antonio Palopo	3	Marzo	2023-05-03T00:00:00	2024-11-08T02:00:00	2	Temperatura media	19
157510	7	Sololá	712	San Antonio Palopó	9	San Antonio Palopo	3	Marzo	2023-05-03T00:00:00	2024-11-08T02:00:00	4	Temperatura máxima	19.2
157511	7	Sololá	712	San Antonio Palopó	9	San Antonio Palopo	3	Marzo	2023-05-03T00:00:00	2024-11-08T02:00:00	3	Temperatura mínima	18.8
157512	7	Sololá	712	San Antonio Palopó	9	San Antonio Palopo	3	Marzo	2023-05-03T00:00:00	2024-11-08T02:00:00	5	Humedad	74
157513	7	Sololá	712	San Antonio Palopó	9	San Antonio Palopo	3	Marzo	2023-05-03T00:00:00	2024-11-08T02:00:00	6	Velocidad del viento	19.3
157514	7	Sololá	712	San Antonio Palopó	9	San Antonio Palopo	3	Marzo	2023-05-03T00:00:00	2024-11-08T02:00:00	7	Dirección del viento	19.31
157515	7	Sololá	712	San Antonio Palopó	9	San Antonio Palopo	3	Marzo	2023-05-03T00:00:00	2024-11-08T02:00:00	1	Precipitación	0
157516	7	Sololá	712	San Antonio Palopó	9	San Antonio Palopo	3	Marzo	2023-05-03T00:00:00	2024-11-08T02:00:00	8	Radiación solar	0
157517	7	Sololá	712	San Antonio Palopó	9	San Antonio Palopo	3	Marzo	2023-05-03T00:00:00	2024-11-08T03:00:00	2	Temperatura media	18.6
157518	7	Sololá	712	San Antonio Palopó	9	San Antonio Palopo	3	Marzo	2023-05-03T00:00:00	2024-11-08T03:00:00	4	Temperatura máxima	19
157519	7	Sololá	712	San Antonio Palopó	9	San Antonio Palopo	3	Marzo	2023-05-03T00:00:00	2024-11-08T03:00:00	3	Temperatura mínima	18.6
157520	7	Sololá	712	San Antonio Palopó	9	San Antonio Palopo	3	Marzo	2023-05-03T00:00:00	2024-11-08T03:00:00	5	Humedad	74
157521	7	Sololá	712	San Antonio Palopó	9	San Antonio Palopo	3	Marzo	2023-05-03T00:00:00	2024-11-08T03:00:00	6	Velocidad del viento	14.5
157522	7	Sololá	712	San Antonio Palopó	9	San Antonio Palopo	3	Marzo	2023-05-03T00:00:00	2024-11-08T03:00:00	7	Dirección del viento	14.48
157523	7	Sololá	712	San Antonio Palopó	9	San Antonio Palopo	3	Marzo	2023-05-03T00:00:00	2024-11-08T03:00:00	1	Precipitación	0
157524	7	Sololá	712	San Antonio Palopó	9	San Antonio Palopo	3	Marzo	2023-05-03T00:00:00	2024-11-08T03:00:00	8	Radiación solar	0
157525	7	Sololá	712	San Antonio Palopó	9	San Antonio Palopo	3	Marzo	2023-05-03T00:00:00	2024-11-08T04:00:00	2	Temperatura media	18.3
157526	7	Sololá	712	San Antonio Palopó	9	San Antonio Palopo	3	Marzo	2023-05-03T00:00:00	2024-11-08T04:00:00	4	Temperatura máxima	18.6
157527	7	Sololá	712	San Antonio Palopó	9	San Antonio Palopo	3	Marzo	2023-05-03T00:00:00	2024-11-08T04:00:00	3	Temperatura mínima	18.3
157528	7	Sololá	712	San Antonio Palopó	9	San Antonio Palopo	3	Marzo	2023-05-03T00:00:00	2024-11-08T04:00:00	5	Humedad	74
157529	7	Sololá	712	San Antonio Palopó	9	San Antonio Palopo	3	Marzo	2023-05-03T00:00:00	2024-11-08T04:00:00	6	Velocidad del viento	14.5
157530	7	Sololá	712	San Antonio Palopó	9	San Antonio Palopo	3	Marzo	2023-05-03T00:00:00	2024-11-08T04:00:00	7	Dirección del viento	14.48
157531	7	Sololá	712	San Antonio Palopó	9	San Antonio Palopo	3	Marzo	2023-05-03T00:00:00	2024-11-08T04:00:00	1	Precipitación	0
157532	7	Sololá	712	San Antonio Palopó	9	San Antonio Palopo	3	Marzo	2023-05-03T00:00:00	2024-11-08T04:00:00	8	Radiación solar	0
157533	7	Sololá	712	San Antonio Palopó	9	San Antonio Palopo	3	Marzo	2023-05-03T00:00:00	2024-11-08T05:00:00	2	Temperatura media	18.1
157534	7	Sololá	712	San Antonio Palopó	9	San Antonio Palopo	3	Marzo	2023-05-03T00:00:00	2024-11-08T05:00:00	4	Temperatura máxima	18.3
157535	7	Sololá	712	San Antonio Palopó	9	San Antonio Palopo	3	Marzo	2023-05-03T00:00:00	2024-11-08T05:00:00	3	Temperatura mínima	18
157536	7	Sololá	712	San Antonio Palopó	9	San Antonio Palopo	3	Marzo	2023-05-03T00:00:00	2024-11-08T05:00:00	5	Humedad	73
157537	7	Sololá	712	San Antonio Palopó	9	San Antonio Palopo	3	Marzo	2023-05-03T00:00:00	2024-11-08T05:00:00	6	Velocidad del viento	16.1
157538	7	Sololá	712	San Antonio Palopó	9	San Antonio Palopo	3	Marzo	2023-05-03T00:00:00	2024-11-08T05:00:00	7	Dirección del viento	16.09
157539	7	Sololá	712	San Antonio Palopó	9	San Antonio Palopo	3	Marzo	2023-05-03T00:00:00	2024-11-08T05:00:00	1	Precipitación	0
157540	7	Sololá	712	San Antonio Palopó	9	San Antonio Palopo	3	Marzo	2023-05-03T00:00:00	2024-11-08T05:00:00	8	Radiación solar	0
157541	7	Sololá	712	San Antonio Palopó	9	San Antonio Palopo	3	Marzo	2023-05-03T00:00:00	2024-11-08T06:00:00	2	Temperatura media	17.8
157542	7	Sololá	712	San Antonio Palopó	9	San Antonio Palopo	3	Marzo	2023-05-03T00:00:00	2024-11-08T06:00:00	4	Temperatura máxima	18.1
157543	7	Sololá	712	San Antonio Palopó	9	San Antonio Palopo	3	Marzo	2023-05-03T00:00:00	2024-11-08T06:00:00	3	Temperatura mínima	17.8
157544	7	Sololá	712	San Antonio Palopó	9	San Antonio Palopo	3	Marzo	2023-05-03T00:00:00	2024-11-08T06:00:00	5	Humedad	73
157545	7	Sololá	712	San Antonio Palopó	9	San Antonio Palopo	3	Marzo	2023-05-03T00:00:00	2024-11-08T06:00:00	6	Velocidad del viento	16.1
157546	7	Sololá	712	San Antonio Palopó	9	San Antonio Palopo	3	Marzo	2023-05-03T00:00:00	2024-11-08T06:00:00	7	Dirección del viento	16.09
157547	7	Sololá	712	San Antonio Palopó	9	San Antonio Palopo	3	Marzo	2023-05-03T00:00:00	2024-11-08T06:00:00	1	Precipitación	0
157548	7	Sololá	712	San Antonio Palopó	9	San Antonio Palopo	3	Marzo	2023-05-03T00:00:00	2024-11-08T06:00:00	8	Radiación solar	0
157549	7	Sololá	712	San Antonio Palopó	9	San Antonio Palopo	3	Marzo	2023-05-03T00:00:00	2024-11-08T07:00:00	2	Temperatura media	17.8
157550	7	Sololá	712	San Antonio Palopó	9	San Antonio Palopo	3	Marzo	2023-05-03T00:00:00	2024-11-08T07:00:00	4	Temperatura máxima	17.8
157551	7	Sololá	712	San Antonio Palopó	9	San Antonio Palopo	3	Marzo	2023-05-03T00:00:00	2024-11-08T07:00:00	3	Temperatura mínima	17.6
157552	7	Sololá	712	San Antonio Palopó	9	San Antonio Palopo	3	Marzo	2023-05-03T00:00:00	2024-11-08T07:00:00	5	Humedad	73
157553	7	Sololá	712	San Antonio Palopó	9	San Antonio Palopo	3	Marzo	2023-05-03T00:00:00	2024-11-08T07:00:00	6	Velocidad del viento	14.5
157554	7	Sololá	712	San Antonio Palopó	9	San Antonio Palopo	3	Marzo	2023-05-03T00:00:00	2024-11-08T07:00:00	7	Dirección del viento	14.48
157555	7	Sololá	712	San Antonio Palopó	9	San Antonio Palopo	3	Marzo	2023-05-03T00:00:00	2024-11-08T07:00:00	1	Precipitación	0
157556	7	Sololá	712	San Antonio Palopó	9	San Antonio Palopo	3	Marzo	2023-05-03T00:00:00	2024-11-08T07:00:00	8	Radiación solar	9
157557	7	Sololá	712	San Antonio Palopó	9	San Antonio Palopo	3	Marzo	2023-05-03T00:00:00	2024-11-08T08:00:00	2	Temperatura media	18.7
157558	7	Sololá	712	San Antonio Palopó	9	San Antonio Palopo	3	Marzo	2023-05-03T00:00:00	2024-11-08T08:00:00	4	Temperatura máxima	18.7
157559	7	Sololá	712	San Antonio Palopó	9	San Antonio Palopo	3	Marzo	2023-05-03T00:00:00	2024-11-08T08:00:00	3	Temperatura mínima	17.8
157560	7	Sololá	712	San Antonio Palopó	9	San Antonio Palopo	3	Marzo	2023-05-03T00:00:00	2024-11-08T08:00:00	5	Humedad	70
157561	7	Sololá	712	San Antonio Palopó	9	San Antonio Palopo	3	Marzo	2023-05-03T00:00:00	2024-11-08T08:00:00	6	Velocidad del viento	12.9
157562	7	Sololá	712	San Antonio Palopó	9	San Antonio Palopo	3	Marzo	2023-05-03T00:00:00	2024-11-08T08:00:00	7	Dirección del viento	12.87
157563	7	Sololá	712	San Antonio Palopó	9	San Antonio Palopo	3	Marzo	2023-05-03T00:00:00	2024-11-08T08:00:00	1	Precipitación	0
157564	7	Sololá	712	San Antonio Palopó	9	San Antonio Palopo	3	Marzo	2023-05-03T00:00:00	2024-11-08T08:00:00	8	Radiación solar	34
157565	7	Sololá	712	San Antonio Palopó	9	San Antonio Palopo	3	Marzo	2023-05-03T00:00:00	2024-11-08T09:00:00	2	Temperatura media	21.6
157566	7	Sololá	712	San Antonio Palopó	9	San Antonio Palopo	3	Marzo	2023-05-03T00:00:00	2024-11-08T09:00:00	4	Temperatura máxima	21.6
157567	7	Sololá	712	San Antonio Palopó	9	San Antonio Palopo	3	Marzo	2023-05-03T00:00:00	2024-11-08T09:00:00	3	Temperatura mínima	18.7
157568	7	Sololá	712	San Antonio Palopó	9	San Antonio Palopo	3	Marzo	2023-05-03T00:00:00	2024-11-08T09:00:00	5	Humedad	63
157569	7	Sololá	712	San Antonio Palopó	9	San Antonio Palopo	3	Marzo	2023-05-03T00:00:00	2024-11-08T09:00:00	6	Velocidad del viento	3.2
157570	7	Sololá	712	San Antonio Palopó	9	San Antonio Palopo	3	Marzo	2023-05-03T00:00:00	2024-11-08T09:00:00	7	Dirección del viento	3.22
157571	7	Sololá	712	San Antonio Palopó	9	San Antonio Palopo	3	Marzo	2023-05-03T00:00:00	2024-11-08T09:00:00	1	Precipitación	0
157572	7	Sololá	712	San Antonio Palopó	9	San Antonio Palopo	3	Marzo	2023-05-03T00:00:00	2024-11-08T09:00:00	8	Radiación solar	412
157573	7	Sololá	712	San Antonio Palopó	9	San Antonio Palopo	3	Marzo	2023-05-03T00:00:00	2024-11-08T10:00:00	2	Temperatura media	20.8
157574	7	Sololá	712	San Antonio Palopó	9	San Antonio Palopo	3	Marzo	2023-05-03T00:00:00	2024-11-08T10:00:00	4	Temperatura máxima	21.6
157575	7	Sololá	712	San Antonio Palopó	9	San Antonio Palopo	3	Marzo	2023-05-03T00:00:00	2024-11-08T10:00:00	3	Temperatura mínima	20.6
157576	7	Sololá	712	San Antonio Palopó	9	San Antonio Palopo	3	Marzo	2023-05-03T00:00:00	2024-11-08T10:00:00	5	Humedad	68
157577	7	Sololá	712	San Antonio Palopó	9	San Antonio Palopo	3	Marzo	2023-05-03T00:00:00	2024-11-08T10:00:00	6	Velocidad del viento	3.2
157578	7	Sololá	712	San Antonio Palopó	9	San Antonio Palopo	3	Marzo	2023-05-03T00:00:00	2024-11-08T10:00:00	7	Dirección del viento	3.22
157579	7	Sololá	712	San Antonio Palopó	9	San Antonio Palopo	3	Marzo	2023-05-03T00:00:00	2024-11-08T10:00:00	1	Precipitación	0
157580	7	Sololá	712	San Antonio Palopó	9	San Antonio Palopo	3	Marzo	2023-05-03T00:00:00	2024-11-08T10:00:00	8	Radiación solar	614
157581	7	Sololá	712	San Antonio Palopó	9	San Antonio Palopo	3	Marzo	2023-05-03T00:00:00	2024-11-08T11:00:00	2	Temperatura media	22.7
157582	7	Sololá	712	San Antonio Palopó	9	San Antonio Palopo	3	Marzo	2023-05-03T00:00:00	2024-11-08T11:00:00	4	Temperatura máxima	22.7
157583	7	Sololá	712	San Antonio Palopó	9	San Antonio Palopo	3	Marzo	2023-05-03T00:00:00	2024-11-08T11:00:00	3	Temperatura mínima	20.8
157584	7	Sololá	712	San Antonio Palopó	9	San Antonio Palopo	3	Marzo	2023-05-03T00:00:00	2024-11-08T11:00:00	5	Humedad	64
157585	7	Sololá	712	San Antonio Palopó	9	San Antonio Palopo	3	Marzo	2023-05-03T00:00:00	2024-11-08T11:00:00	6	Velocidad del viento	3.2
157586	7	Sololá	712	San Antonio Palopó	9	San Antonio Palopo	3	Marzo	2023-05-03T00:00:00	2024-11-08T11:00:00	7	Dirección del viento	3.22
157587	7	Sololá	712	San Antonio Palopó	9	San Antonio Palopo	3	Marzo	2023-05-03T00:00:00	2024-11-08T11:00:00	1	Precipitación	0
157588	7	Sololá	712	San Antonio Palopó	9	San Antonio Palopo	3	Marzo	2023-05-03T00:00:00	2024-11-08T11:00:00	8	Radiación solar	748
157589	7	Sololá	712	San Antonio Palopó	9	San Antonio Palopo	3	Marzo	2023-05-03T00:00:00	2024-11-08T12:00:00	2	Temperatura media	24.2
157590	7	Sololá	712	San Antonio Palopó	9	San Antonio Palopo	3	Marzo	2023-05-03T00:00:00	2024-11-08T12:00:00	4	Temperatura máxima	24.2
157591	7	Sololá	712	San Antonio Palopó	9	San Antonio Palopo	3	Marzo	2023-05-03T00:00:00	2024-11-08T12:00:00	3	Temperatura mínima	22.7
157592	7	Sololá	712	San Antonio Palopó	9	San Antonio Palopo	3	Marzo	2023-05-03T00:00:00	2024-11-08T12:00:00	5	Humedad	60
157593	7	Sololá	712	San Antonio Palopó	9	San Antonio Palopo	3	Marzo	2023-05-03T00:00:00	2024-11-08T12:00:00	6	Velocidad del viento	3.2
157594	7	Sololá	712	San Antonio Palopó	9	San Antonio Palopo	3	Marzo	2023-05-03T00:00:00	2024-11-08T12:00:00	7	Dirección del viento	3.22
157595	7	Sololá	712	San Antonio Palopó	9	San Antonio Palopo	3	Marzo	2023-05-03T00:00:00	2024-11-08T12:00:00	1	Precipitación	0
157596	7	Sololá	712	San Antonio Palopó	9	San Antonio Palopo	3	Marzo	2023-05-03T00:00:00	2024-11-08T12:00:00	8	Radiación solar	812
157597	7	Sololá	712	San Antonio Palopó	9	San Antonio Palopo	3	Marzo	2023-05-03T00:00:00	2024-11-08T13:00:00	2	Temperatura media	24.1
157598	7	Sololá	712	San Antonio Palopó	9	San Antonio Palopo	3	Marzo	2023-05-03T00:00:00	2024-11-08T13:00:00	4	Temperatura máxima	25.3
157599	7	Sololá	712	San Antonio Palopó	9	San Antonio Palopo	3	Marzo	2023-05-03T00:00:00	2024-11-08T13:00:00	3	Temperatura mínima	23.9
157600	7	Sololá	712	San Antonio Palopó	9	San Antonio Palopo	3	Marzo	2023-05-03T00:00:00	2024-11-08T13:00:00	5	Humedad	68
157601	7	Sololá	712	San Antonio Palopó	9	San Antonio Palopo	3	Marzo	2023-05-03T00:00:00	2024-11-08T13:00:00	6	Velocidad del viento	11.3
157602	7	Sololá	712	San Antonio Palopó	9	San Antonio Palopo	3	Marzo	2023-05-03T00:00:00	2024-11-08T13:00:00	7	Dirección del viento	11.27
157603	7	Sololá	712	San Antonio Palopó	9	San Antonio Palopo	3	Marzo	2023-05-03T00:00:00	2024-11-08T13:00:00	1	Precipitación	0
157604	7	Sololá	712	San Antonio Palopó	9	San Antonio Palopo	3	Marzo	2023-05-03T00:00:00	2024-11-08T13:00:00	8	Radiación solar	890
157605	7	Sololá	712	San Antonio Palopó	9	San Antonio Palopo	3	Marzo	2023-05-03T00:00:00	2024-11-08T14:00:00	2	Temperatura media	24.2
157606	7	Sololá	712	San Antonio Palopó	9	San Antonio Palopo	3	Marzo	2023-05-03T00:00:00	2024-11-08T14:00:00	4	Temperatura máxima	25
157607	7	Sololá	712	San Antonio Palopó	9	San Antonio Palopo	3	Marzo	2023-05-03T00:00:00	2024-11-08T14:00:00	3	Temperatura mínima	23.9
157608	7	Sololá	712	San Antonio Palopó	9	San Antonio Palopo	3	Marzo	2023-05-03T00:00:00	2024-11-08T14:00:00	5	Humedad	68
157609	7	Sololá	712	San Antonio Palopó	9	San Antonio Palopo	3	Marzo	2023-05-03T00:00:00	2024-11-08T14:00:00	6	Velocidad del viento	9.7
157610	7	Sololá	712	San Antonio Palopó	9	San Antonio Palopo	3	Marzo	2023-05-03T00:00:00	2024-11-08T14:00:00	7	Dirección del viento	9.66
157611	7	Sololá	712	San Antonio Palopó	9	San Antonio Palopo	3	Marzo	2023-05-03T00:00:00	2024-11-08T14:00:00	1	Precipitación	0
157612	7	Sololá	712	San Antonio Palopó	9	San Antonio Palopo	3	Marzo	2023-05-03T00:00:00	2024-11-08T14:00:00	8	Radiación solar	816
157613	7	Sololá	712	San Antonio Palopó	9	San Antonio Palopo	3	Marzo	2023-05-03T00:00:00	2024-11-08T15:00:00	2	Temperatura media	22.9
157614	7	Sololá	712	San Antonio Palopó	9	San Antonio Palopo	3	Marzo	2023-05-03T00:00:00	2024-11-08T15:00:00	4	Temperatura máxima	24.1
157615	7	Sololá	712	San Antonio Palopó	9	San Antonio Palopo	3	Marzo	2023-05-03T00:00:00	2024-11-08T15:00:00	3	Temperatura mínima	22.9
157616	7	Sololá	712	San Antonio Palopó	9	San Antonio Palopo	3	Marzo	2023-05-03T00:00:00	2024-11-08T15:00:00	5	Humedad	72
157617	7	Sololá	712	San Antonio Palopó	9	San Antonio Palopo	3	Marzo	2023-05-03T00:00:00	2024-11-08T15:00:00	6	Velocidad del viento	17.7
157618	7	Sololá	712	San Antonio Palopó	9	San Antonio Palopo	3	Marzo	2023-05-03T00:00:00	2024-11-08T15:00:00	7	Dirección del viento	17.7
157619	7	Sololá	712	San Antonio Palopó	9	San Antonio Palopo	3	Marzo	2023-05-03T00:00:00	2024-11-08T15:00:00	1	Precipitación	0
157620	7	Sololá	712	San Antonio Palopó	9	San Antonio Palopo	3	Marzo	2023-05-03T00:00:00	2024-11-08T15:00:00	8	Radiación solar	704
157621	7	Sololá	712	San Antonio Palopó	9	San Antonio Palopo	3	Marzo	2023-05-03T00:00:00	2024-11-08T16:00:00	2	Temperatura media	23.1
157622	7	Sololá	712	San Antonio Palopó	9	San Antonio Palopo	3	Marzo	2023-05-03T00:00:00	2024-11-08T16:00:00	4	Temperatura máxima	23.3
157623	7	Sololá	712	San Antonio Palopó	9	San Antonio Palopo	3	Marzo	2023-05-03T00:00:00	2024-11-08T16:00:00	3	Temperatura mínima	22.7
157624	7	Sololá	712	San Antonio Palopó	9	San Antonio Palopo	3	Marzo	2023-05-03T00:00:00	2024-11-08T16:00:00	5	Humedad	72
157625	7	Sololá	712	San Antonio Palopó	9	San Antonio Palopo	3	Marzo	2023-05-03T00:00:00	2024-11-08T16:00:00	6	Velocidad del viento	16.1
157626	7	Sololá	712	San Antonio Palopó	9	San Antonio Palopo	3	Marzo	2023-05-03T00:00:00	2024-11-08T16:00:00	7	Dirección del viento	16.09
157627	7	Sololá	712	San Antonio Palopó	9	San Antonio Palopo	3	Marzo	2023-05-03T00:00:00	2024-11-08T16:00:00	1	Precipitación	0
157628	7	Sololá	712	San Antonio Palopó	9	San Antonio Palopo	3	Marzo	2023-05-03T00:00:00	2024-11-08T16:00:00	8	Radiación solar	498
157629	7	Sololá	712	San Antonio Palopó	9	San Antonio Palopo	3	Marzo	2023-05-03T00:00:00	2024-11-08T17:00:00	2	Temperatura media	21.7
157630	7	Sololá	712	San Antonio Palopó	9	San Antonio Palopo	3	Marzo	2023-05-03T00:00:00	2024-11-08T17:00:00	4	Temperatura máxima	23.6
157631	7	Sololá	712	San Antonio Palopó	9	San Antonio Palopo	3	Marzo	2023-05-03T00:00:00	2024-11-08T17:00:00	3	Temperatura mínima	21.6
157632	7	Sololá	712	San Antonio Palopó	9	San Antonio Palopo	3	Marzo	2023-05-03T00:00:00	2024-11-08T17:00:00	5	Humedad	76
157633	7	Sololá	712	San Antonio Palopó	9	San Antonio Palopo	3	Marzo	2023-05-03T00:00:00	2024-11-08T17:00:00	6	Velocidad del viento	12.9
157634	7	Sololá	712	San Antonio Palopó	9	San Antonio Palopo	3	Marzo	2023-05-03T00:00:00	2024-11-08T17:00:00	7	Dirección del viento	12.87
157635	7	Sololá	712	San Antonio Palopó	9	San Antonio Palopo	3	Marzo	2023-05-03T00:00:00	2024-11-08T17:00:00	1	Precipitación	0
157636	7	Sololá	712	San Antonio Palopó	9	San Antonio Palopo	3	Marzo	2023-05-03T00:00:00	2024-11-08T17:00:00	8	Radiación solar	262
157637	7	Sololá	712	San Antonio Palopó	9	San Antonio Palopo	3	Marzo	2023-05-03T00:00:00	2024-11-08T18:00:00	2	Temperatura media	20.1
157638	7	Sololá	712	San Antonio Palopó	9	San Antonio Palopo	3	Marzo	2023-05-03T00:00:00	2024-11-08T18:00:00	4	Temperatura máxima	21.7
157639	7	Sololá	712	San Antonio Palopó	9	San Antonio Palopo	3	Marzo	2023-05-03T00:00:00	2024-11-08T18:00:00	3	Temperatura mínima	19.9
157640	7	Sololá	712	San Antonio Palopó	9	San Antonio Palopo	3	Marzo	2023-05-03T00:00:00	2024-11-08T18:00:00	5	Humedad	81
157641	7	Sololá	712	San Antonio Palopó	9	San Antonio Palopo	3	Marzo	2023-05-03T00:00:00	2024-11-08T18:00:00	6	Velocidad del viento	12.9
157642	7	Sololá	712	San Antonio Palopó	9	San Antonio Palopo	3	Marzo	2023-05-03T00:00:00	2024-11-08T18:00:00	7	Dirección del viento	12.87
157643	7	Sololá	712	San Antonio Palopó	9	San Antonio Palopo	3	Marzo	2023-05-03T00:00:00	2024-11-08T18:00:00	1	Precipitación	0
157644	7	Sololá	712	San Antonio Palopó	9	San Antonio Palopo	3	Marzo	2023-05-03T00:00:00	2024-11-08T18:00:00	8	Radiación solar	63
157645	7	Sololá	712	San Antonio Palopó	9	San Antonio Palopo	3	Marzo	2023-05-03T00:00:00	2024-11-08T19:00:00	2	Temperatura media	19.4
157646	7	Sololá	712	San Antonio Palopó	9	San Antonio Palopo	3	Marzo	2023-05-03T00:00:00	2024-11-08T19:00:00	4	Temperatura máxima	20.2
157647	7	Sololá	712	San Antonio Palopó	9	San Antonio Palopo	3	Marzo	2023-05-03T00:00:00	2024-11-08T19:00:00	3	Temperatura mínima	19.4
157648	7	Sololá	712	San Antonio Palopó	9	San Antonio Palopo	3	Marzo	2023-05-03T00:00:00	2024-11-08T19:00:00	5	Humedad	83
157649	7	Sololá	712	San Antonio Palopó	9	San Antonio Palopo	3	Marzo	2023-05-03T00:00:00	2024-11-08T19:00:00	6	Velocidad del viento	4.8
157650	7	Sololá	712	San Antonio Palopó	9	San Antonio Palopo	3	Marzo	2023-05-03T00:00:00	2024-11-08T19:00:00	7	Dirección del viento	4.83
157651	7	Sololá	712	San Antonio Palopó	9	San Antonio Palopo	3	Marzo	2023-05-03T00:00:00	2024-11-08T19:00:00	1	Precipitación	0
157652	7	Sololá	712	San Antonio Palopó	9	San Antonio Palopo	3	Marzo	2023-05-03T00:00:00	2024-11-08T19:00:00	8	Radiación solar	0
157653	7	Sololá	712	San Antonio Palopó	9	San Antonio Palopo	3	Marzo	2023-05-03T00:00:00	2024-11-08T20:00:00	2	Temperatura media	18.8
157654	7	Sololá	712	San Antonio Palopó	9	San Antonio Palopo	3	Marzo	2023-05-03T00:00:00	2024-11-08T20:00:00	4	Temperatura máxima	19.6
157655	7	Sololá	712	San Antonio Palopó	9	San Antonio Palopo	3	Marzo	2023-05-03T00:00:00	2024-11-08T20:00:00	3	Temperatura mínima	18.7
157656	7	Sololá	712	San Antonio Palopó	9	San Antonio Palopo	3	Marzo	2023-05-03T00:00:00	2024-11-08T20:00:00	5	Humedad	86
157657	7	Sololá	712	San Antonio Palopó	9	San Antonio Palopo	3	Marzo	2023-05-03T00:00:00	2024-11-08T20:00:00	6	Velocidad del viento	4.8
157658	7	Sololá	712	San Antonio Palopó	9	San Antonio Palopo	3	Marzo	2023-05-03T00:00:00	2024-11-08T20:00:00	7	Dirección del viento	4.83
157659	7	Sololá	712	San Antonio Palopó	9	San Antonio Palopo	3	Marzo	2023-05-03T00:00:00	2024-11-08T20:00:00	1	Precipitación	0
157660	7	Sololá	712	San Antonio Palopó	9	San Antonio Palopo	3	Marzo	2023-05-03T00:00:00	2024-11-08T20:00:00	8	Radiación solar	0
157661	7	Sololá	712	San Antonio Palopó	9	San Antonio Palopo	3	Marzo	2023-05-03T00:00:00	2024-11-08T21:00:00	2	Temperatura media	18.3
157662	7	Sololá	712	San Antonio Palopó	9	San Antonio Palopo	3	Marzo	2023-05-03T00:00:00	2024-11-08T21:00:00	4	Temperatura máxima	18.8
157663	7	Sololá	712	San Antonio Palopó	9	San Antonio Palopo	3	Marzo	2023-05-03T00:00:00	2024-11-08T21:00:00	3	Temperatura mínima	18.3
157664	7	Sololá	712	San Antonio Palopó	9	San Antonio Palopo	3	Marzo	2023-05-03T00:00:00	2024-11-08T21:00:00	5	Humedad	86
157665	7	Sololá	712	San Antonio Palopó	9	San Antonio Palopo	3	Marzo	2023-05-03T00:00:00	2024-11-08T21:00:00	6	Velocidad del viento	3.2
157666	7	Sololá	712	San Antonio Palopó	9	San Antonio Palopo	3	Marzo	2023-05-03T00:00:00	2024-11-08T21:00:00	7	Dirección del viento	3.22
157667	7	Sololá	712	San Antonio Palopó	9	San Antonio Palopo	3	Marzo	2023-05-03T00:00:00	2024-11-08T21:00:00	1	Precipitación	0
157668	7	Sololá	712	San Antonio Palopó	9	San Antonio Palopo	3	Marzo	2023-05-03T00:00:00	2024-11-08T21:00:00	8	Radiación solar	0
157669	7	Sololá	712	San Antonio Palopó	9	San Antonio Palopo	3	Marzo	2023-05-03T00:00:00	2024-11-08T22:00:00	2	Temperatura media	18
157670	7	Sololá	712	San Antonio Palopó	9	San Antonio Palopo	3	Marzo	2023-05-03T00:00:00	2024-11-08T22:00:00	4	Temperatura máxima	18.3
157671	7	Sololá	712	San Antonio Palopó	9	San Antonio Palopo	3	Marzo	2023-05-03T00:00:00	2024-11-08T22:00:00	3	Temperatura mínima	18
157672	7	Sololá	712	San Antonio Palopó	9	San Antonio Palopo	3	Marzo	2023-05-03T00:00:00	2024-11-08T22:00:00	5	Humedad	86
157673	7	Sololá	712	San Antonio Palopó	9	San Antonio Palopo	3	Marzo	2023-05-03T00:00:00	2024-11-08T22:00:00	6	Velocidad del viento	1.6
157674	7	Sololá	712	San Antonio Palopó	9	San Antonio Palopo	3	Marzo	2023-05-03T00:00:00	2024-11-08T22:00:00	7	Dirección del viento	1.61
157675	7	Sololá	712	San Antonio Palopó	9	San Antonio Palopo	3	Marzo	2023-05-03T00:00:00	2024-11-08T22:00:00	1	Precipitación	0
157676	7	Sololá	712	San Antonio Palopó	9	San Antonio Palopo	3	Marzo	2023-05-03T00:00:00	2024-11-08T22:00:00	8	Radiación solar	0
157677	7	Sololá	712	San Antonio Palopó	9	San Antonio Palopo	3	Marzo	2023-05-03T00:00:00	2024-11-08T23:00:00	2	Temperatura media	18.1
157678	7	Sololá	712	San Antonio Palopó	9	San Antonio Palopo	3	Marzo	2023-05-03T00:00:00	2024-11-08T23:00:00	4	Temperatura máxima	18.1
157679	7	Sololá	712	San Antonio Palopó	9	San Antonio Palopo	3	Marzo	2023-05-03T00:00:00	2024-11-08T23:00:00	3	Temperatura mínima	17.4
157680	7	Sololá	712	San Antonio Palopó	9	San Antonio Palopo	3	Marzo	2023-05-03T00:00:00	2024-11-08T23:00:00	5	Humedad	77
157681	7	Sololá	712	San Antonio Palopó	9	San Antonio Palopo	3	Marzo	2023-05-03T00:00:00	2024-11-08T23:00:00	6	Velocidad del viento	3.2
157682	7	Sololá	712	San Antonio Palopó	9	San Antonio Palopo	3	Marzo	2023-05-03T00:00:00	2024-11-08T23:00:00	7	Dirección del viento	3.22
157683	7	Sololá	712	San Antonio Palopó	9	San Antonio Palopo	3	Marzo	2023-05-03T00:00:00	2024-11-08T23:00:00	1	Precipitación	0
157684	7	Sololá	712	San Antonio Palopó	9	San Antonio Palopo	3	Marzo	2023-05-03T00:00:00	2024-11-08T23:00:00	8	Radiación solar	0
157685	7	Sololá	712	San Antonio Palopó	9	San Antonio Palopo	3	Marzo	2023-06-03T00:00:00	2024-11-08T00:00:00	2	Temperatura media	18.6
157686	7	Sololá	712	San Antonio Palopó	9	San Antonio Palopo	3	Marzo	2023-06-03T00:00:00	2024-11-08T00:00:00	4	Temperatura máxima	18.8
157687	7	Sololá	712	San Antonio Palopó	9	San Antonio Palopo	3	Marzo	2023-06-03T00:00:00	2024-11-08T00:00:00	3	Temperatura mínima	18.1
157688	7	Sololá	712	San Antonio Palopó	9	San Antonio Palopo	3	Marzo	2023-06-03T00:00:00	2024-11-08T00:00:00	5	Humedad	72
157689	7	Sololá	712	San Antonio Palopó	9	San Antonio Palopo	3	Marzo	2023-06-03T00:00:00	2024-11-08T00:00:00	6	Velocidad del viento	6.4
157690	7	Sololá	712	San Antonio Palopó	9	San Antonio Palopo	3	Marzo	2023-06-03T00:00:00	2024-11-08T00:00:00	7	Dirección del viento	6.44
157691	7	Sololá	712	San Antonio Palopó	9	San Antonio Palopo	3	Marzo	2023-06-03T00:00:00	2024-11-08T00:00:00	1	Precipitación	0
157692	7	Sololá	712	San Antonio Palopó	9	San Antonio Palopo	3	Marzo	2023-06-03T00:00:00	2024-11-08T00:00:00	8	Radiación solar	0
157693	7	Sololá	712	San Antonio Palopó	9	San Antonio Palopo	3	Marzo	2023-06-03T00:00:00	2024-11-08T01:00:00	2	Temperatura media	18.2
157694	7	Sololá	712	San Antonio Palopó	9	San Antonio Palopo	3	Marzo	2023-06-03T00:00:00	2024-11-08T01:00:00	4	Temperatura máxima	18.7
157695	7	Sololá	712	San Antonio Palopó	9	San Antonio Palopo	3	Marzo	2023-06-03T00:00:00	2024-11-08T01:00:00	3	Temperatura mínima	18.1
157696	7	Sololá	712	San Antonio Palopó	9	San Antonio Palopo	3	Marzo	2023-06-03T00:00:00	2024-11-08T01:00:00	5	Humedad	71
157697	7	Sololá	712	San Antonio Palopó	9	San Antonio Palopo	3	Marzo	2023-06-03T00:00:00	2024-11-08T01:00:00	6	Velocidad del viento	11.3
157698	7	Sololá	712	San Antonio Palopó	9	San Antonio Palopo	3	Marzo	2023-06-03T00:00:00	2024-11-08T01:00:00	7	Dirección del viento	11.27
157699	7	Sololá	712	San Antonio Palopó	9	San Antonio Palopo	3	Marzo	2023-06-03T00:00:00	2024-11-08T01:00:00	1	Precipitación	0
157700	7	Sololá	712	San Antonio Palopó	9	San Antonio Palopo	3	Marzo	2023-06-03T00:00:00	2024-11-08T01:00:00	8	Radiación solar	0
157701	7	Sololá	712	San Antonio Palopó	9	San Antonio Palopo	3	Marzo	2023-06-03T00:00:00	2024-11-08T02:00:00	2	Temperatura media	18.2
157702	7	Sololá	712	San Antonio Palopó	9	San Antonio Palopo	3	Marzo	2023-06-03T00:00:00	2024-11-08T02:00:00	4	Temperatura máxima	18.3
157703	7	Sololá	712	San Antonio Palopó	9	San Antonio Palopo	3	Marzo	2023-06-03T00:00:00	2024-11-08T02:00:00	3	Temperatura mínima	18
157704	7	Sololá	712	San Antonio Palopó	9	San Antonio Palopo	3	Marzo	2023-06-03T00:00:00	2024-11-08T02:00:00	5	Humedad	70
157705	7	Sololá	712	San Antonio Palopó	9	San Antonio Palopo	3	Marzo	2023-06-03T00:00:00	2024-11-08T02:00:00	6	Velocidad del viento	11.3
157706	7	Sololá	712	San Antonio Palopó	9	San Antonio Palopo	3	Marzo	2023-06-03T00:00:00	2024-11-08T02:00:00	7	Dirección del viento	11.27
157707	7	Sololá	712	San Antonio Palopó	9	San Antonio Palopo	3	Marzo	2023-06-03T00:00:00	2024-11-08T02:00:00	1	Precipitación	0
157708	7	Sololá	712	San Antonio Palopó	9	San Antonio Palopo	3	Marzo	2023-06-03T00:00:00	2024-11-08T02:00:00	8	Radiación solar	0
157709	7	Sololá	712	San Antonio Palopó	9	San Antonio Palopo	3	Marzo	2023-06-03T00:00:00	2024-11-08T03:00:00	2	Temperatura media	17.8
157710	7	Sololá	712	San Antonio Palopó	9	San Antonio Palopo	3	Marzo	2023-06-03T00:00:00	2024-11-08T03:00:00	4	Temperatura máxima	18.2
157711	7	Sololá	712	San Antonio Palopó	9	San Antonio Palopo	3	Marzo	2023-06-03T00:00:00	2024-11-08T03:00:00	3	Temperatura mínima	17.8
157712	7	Sololá	712	San Antonio Palopó	9	San Antonio Palopo	3	Marzo	2023-06-03T00:00:00	2024-11-08T03:00:00	5	Humedad	71
157713	7	Sololá	712	San Antonio Palopó	9	San Antonio Palopo	3	Marzo	2023-06-03T00:00:00	2024-11-08T03:00:00	6	Velocidad del viento	16.1
157714	7	Sololá	712	San Antonio Palopó	9	San Antonio Palopo	3	Marzo	2023-06-03T00:00:00	2024-11-08T03:00:00	7	Dirección del viento	16.09
157715	7	Sololá	712	San Antonio Palopó	9	San Antonio Palopo	3	Marzo	2023-06-03T00:00:00	2024-11-08T03:00:00	1	Precipitación	0
157716	7	Sololá	712	San Antonio Palopó	9	San Antonio Palopo	3	Marzo	2023-06-03T00:00:00	2024-11-08T03:00:00	8	Radiación solar	0
157717	7	Sololá	712	San Antonio Palopó	9	San Antonio Palopo	3	Marzo	2023-06-03T00:00:00	2024-11-08T04:00:00	2	Temperatura media	17.3
157718	7	Sololá	712	San Antonio Palopó	9	San Antonio Palopo	3	Marzo	2023-06-03T00:00:00	2024-11-08T04:00:00	4	Temperatura máxima	17.8
157719	7	Sololá	712	San Antonio Palopó	9	San Antonio Palopo	3	Marzo	2023-06-03T00:00:00	2024-11-08T04:00:00	3	Temperatura mínima	17.3
157720	7	Sololá	712	San Antonio Palopó	9	San Antonio Palopo	3	Marzo	2023-06-03T00:00:00	2024-11-08T04:00:00	5	Humedad	72
157721	7	Sololá	712	San Antonio Palopó	9	San Antonio Palopo	3	Marzo	2023-06-03T00:00:00	2024-11-08T04:00:00	6	Velocidad del viento	16.1
157722	7	Sololá	712	San Antonio Palopó	9	San Antonio Palopo	3	Marzo	2023-06-03T00:00:00	2024-11-08T04:00:00	7	Dirección del viento	16.09
157723	7	Sololá	712	San Antonio Palopó	9	San Antonio Palopo	3	Marzo	2023-06-03T00:00:00	2024-11-08T04:00:00	1	Precipitación	0
157724	7	Sololá	712	San Antonio Palopó	9	San Antonio Palopo	3	Marzo	2023-06-03T00:00:00	2024-11-08T04:00:00	8	Radiación solar	0
157725	7	Sololá	712	San Antonio Palopó	9	San Antonio Palopo	3	Marzo	2023-06-03T00:00:00	2024-11-08T05:00:00	2	Temperatura media	17.1
157726	7	Sololá	712	San Antonio Palopó	9	San Antonio Palopo	3	Marzo	2023-06-03T00:00:00	2024-11-08T05:00:00	4	Temperatura máxima	17.3
157727	7	Sololá	712	San Antonio Palopó	9	San Antonio Palopo	3	Marzo	2023-06-03T00:00:00	2024-11-08T05:00:00	3	Temperatura mínima	17.1
157728	7	Sololá	712	San Antonio Palopó	9	San Antonio Palopo	3	Marzo	2023-06-03T00:00:00	2024-11-08T05:00:00	5	Humedad	71
157729	7	Sololá	712	San Antonio Palopó	9	San Antonio Palopo	3	Marzo	2023-06-03T00:00:00	2024-11-08T05:00:00	6	Velocidad del viento	14.5
157730	7	Sololá	712	San Antonio Palopó	9	San Antonio Palopo	3	Marzo	2023-06-03T00:00:00	2024-11-08T05:00:00	7	Dirección del viento	14.48
157731	7	Sololá	712	San Antonio Palopó	9	San Antonio Palopo	3	Marzo	2023-06-03T00:00:00	2024-11-08T05:00:00	1	Precipitación	0
157732	7	Sololá	712	San Antonio Palopó	9	San Antonio Palopo	3	Marzo	2023-06-03T00:00:00	2024-11-08T05:00:00	8	Radiación solar	0
157733	7	Sololá	712	San Antonio Palopó	9	San Antonio Palopo	3	Marzo	2023-06-03T00:00:00	2024-11-08T06:00:00	2	Temperatura media	16.7
157734	7	Sololá	712	San Antonio Palopó	9	San Antonio Palopo	3	Marzo	2023-06-03T00:00:00	2024-11-08T06:00:00	4	Temperatura máxima	17.1
157735	7	Sololá	712	San Antonio Palopó	9	San Antonio Palopo	3	Marzo	2023-06-03T00:00:00	2024-11-08T06:00:00	3	Temperatura mínima	16.7
157736	7	Sololá	712	San Antonio Palopó	9	San Antonio Palopo	3	Marzo	2023-06-03T00:00:00	2024-11-08T06:00:00	5	Humedad	72
157737	7	Sololá	712	San Antonio Palopó	9	San Antonio Palopo	3	Marzo	2023-06-03T00:00:00	2024-11-08T06:00:00	6	Velocidad del viento	14.5
157738	7	Sololá	712	San Antonio Palopó	9	San Antonio Palopo	3	Marzo	2023-06-03T00:00:00	2024-11-08T06:00:00	7	Dirección del viento	14.48
157739	7	Sololá	712	San Antonio Palopó	9	San Antonio Palopo	3	Marzo	2023-06-03T00:00:00	2024-11-08T06:00:00	1	Precipitación	0
157740	7	Sololá	712	San Antonio Palopó	9	San Antonio Palopo	3	Marzo	2023-06-03T00:00:00	2024-11-08T06:00:00	8	Radiación solar	0
157741	7	Sololá	712	San Antonio Palopó	9	San Antonio Palopo	3	Marzo	2023-06-03T00:00:00	2024-11-08T07:00:00	2	Temperatura media	16.9
157742	7	Sololá	712	San Antonio Palopó	9	San Antonio Palopo	3	Marzo	2023-06-03T00:00:00	2024-11-08T07:00:00	4	Temperatura máxima	16.9
157743	7	Sololá	712	San Antonio Palopó	9	San Antonio Palopo	3	Marzo	2023-06-03T00:00:00	2024-11-08T07:00:00	3	Temperatura mínima	16.6
157744	7	Sololá	712	San Antonio Palopó	9	San Antonio Palopo	3	Marzo	2023-06-03T00:00:00	2024-11-08T07:00:00	5	Humedad	71
157745	7	Sololá	712	San Antonio Palopó	9	San Antonio Palopo	3	Marzo	2023-06-03T00:00:00	2024-11-08T07:00:00	6	Velocidad del viento	16.1
157746	7	Sololá	712	San Antonio Palopó	9	San Antonio Palopo	3	Marzo	2023-06-03T00:00:00	2024-11-08T07:00:00	7	Dirección del viento	16.09
157747	7	Sololá	712	San Antonio Palopó	9	San Antonio Palopo	3	Marzo	2023-06-03T00:00:00	2024-11-08T07:00:00	1	Precipitación	0
157748	7	Sololá	712	San Antonio Palopó	9	San Antonio Palopo	3	Marzo	2023-06-03T00:00:00	2024-11-08T07:00:00	8	Radiación solar	8
157749	7	Sololá	712	San Antonio Palopó	9	San Antonio Palopo	3	Marzo	2023-06-03T00:00:00	2024-11-08T08:00:00	2	Temperatura media	17.8
157750	7	Sololá	712	San Antonio Palopó	9	San Antonio Palopo	3	Marzo	2023-06-03T00:00:00	2024-11-08T08:00:00	4	Temperatura máxima	17.8
157751	7	Sololá	712	San Antonio Palopó	9	San Antonio Palopo	3	Marzo	2023-06-03T00:00:00	2024-11-08T08:00:00	3	Temperatura mínima	16.8
157752	7	Sololá	712	San Antonio Palopó	9	San Antonio Palopo	3	Marzo	2023-06-03T00:00:00	2024-11-08T08:00:00	5	Humedad	68
157753	7	Sololá	712	San Antonio Palopó	9	San Antonio Palopo	3	Marzo	2023-06-03T00:00:00	2024-11-08T08:00:00	6	Velocidad del viento	8
157754	7	Sololá	712	San Antonio Palopó	9	San Antonio Palopo	3	Marzo	2023-06-03T00:00:00	2024-11-08T08:00:00	7	Dirección del viento	8.05
157755	7	Sololá	712	San Antonio Palopó	9	San Antonio Palopo	3	Marzo	2023-06-03T00:00:00	2024-11-08T08:00:00	1	Precipitación	0
157756	7	Sololá	712	San Antonio Palopó	9	San Antonio Palopo	3	Marzo	2023-06-03T00:00:00	2024-11-08T08:00:00	8	Radiación solar	34
157757	7	Sololá	712	San Antonio Palopó	9	San Antonio Palopo	3	Marzo	2023-06-03T00:00:00	2024-11-08T09:00:00	2	Temperatura media	20.6
157758	7	Sololá	712	San Antonio Palopó	9	San Antonio Palopo	3	Marzo	2023-06-03T00:00:00	2024-11-08T09:00:00	4	Temperatura máxima	20.6
157759	7	Sololá	712	San Antonio Palopó	9	San Antonio Palopo	3	Marzo	2023-06-03T00:00:00	2024-11-08T09:00:00	3	Temperatura mínima	17.8
157760	7	Sololá	712	San Antonio Palopó	9	San Antonio Palopo	3	Marzo	2023-06-03T00:00:00	2024-11-08T09:00:00	5	Humedad	62
157761	7	Sololá	712	San Antonio Palopó	9	San Antonio Palopo	3	Marzo	2023-06-03T00:00:00	2024-11-08T09:00:00	6	Velocidad del viento	1.6
157762	7	Sololá	712	San Antonio Palopó	9	San Antonio Palopo	3	Marzo	2023-06-03T00:00:00	2024-11-08T09:00:00	7	Dirección del viento	1.61
157763	7	Sololá	712	San Antonio Palopó	9	San Antonio Palopo	3	Marzo	2023-06-03T00:00:00	2024-11-08T09:00:00	1	Precipitación	0
157764	7	Sololá	712	San Antonio Palopó	9	San Antonio Palopo	3	Marzo	2023-06-03T00:00:00	2024-11-08T09:00:00	8	Radiación solar	399
157765	7	Sololá	712	San Antonio Palopó	9	San Antonio Palopo	3	Marzo	2023-06-03T00:00:00	2024-11-08T10:00:00	2	Temperatura media	20
157766	7	Sololá	712	San Antonio Palopó	9	San Antonio Palopo	3	Marzo	2023-06-03T00:00:00	2024-11-08T10:00:00	4	Temperatura máxima	20.9
157767	7	Sololá	712	San Antonio Palopó	9	San Antonio Palopo	3	Marzo	2023-06-03T00:00:00	2024-11-08T10:00:00	3	Temperatura mínima	19.6
157768	7	Sololá	712	San Antonio Palopó	9	San Antonio Palopo	3	Marzo	2023-06-03T00:00:00	2024-11-08T10:00:00	5	Humedad	65
157769	7	Sololá	712	San Antonio Palopó	9	San Antonio Palopo	3	Marzo	2023-06-03T00:00:00	2024-11-08T10:00:00	6	Velocidad del viento	3.2
157770	7	Sololá	712	San Antonio Palopó	9	San Antonio Palopo	3	Marzo	2023-06-03T00:00:00	2024-11-08T10:00:00	7	Dirección del viento	3.22
157771	7	Sololá	712	San Antonio Palopó	9	San Antonio Palopo	3	Marzo	2023-06-03T00:00:00	2024-11-08T10:00:00	1	Precipitación	0
157772	7	Sololá	712	San Antonio Palopó	9	San Antonio Palopo	3	Marzo	2023-06-03T00:00:00	2024-11-08T10:00:00	8	Radiación solar	630
157773	7	Sololá	712	San Antonio Palopó	9	San Antonio Palopo	3	Marzo	2023-06-03T00:00:00	2024-11-08T11:00:00	2	Temperatura media	22.4
157774	7	Sololá	712	San Antonio Palopó	9	San Antonio Palopo	3	Marzo	2023-06-03T00:00:00	2024-11-08T11:00:00	4	Temperatura máxima	22.4
157775	7	Sololá	712	San Antonio Palopó	9	San Antonio Palopo	3	Marzo	2023-06-03T00:00:00	2024-11-08T11:00:00	3	Temperatura mínima	20
157776	7	Sololá	712	San Antonio Palopó	9	San Antonio Palopo	3	Marzo	2023-06-03T00:00:00	2024-11-08T11:00:00	5	Humedad	55
157777	7	Sololá	712	San Antonio Palopó	9	San Antonio Palopo	3	Marzo	2023-06-03T00:00:00	2024-11-08T11:00:00	6	Velocidad del viento	3.2
157778	7	Sololá	712	San Antonio Palopó	9	San Antonio Palopo	3	Marzo	2023-06-03T00:00:00	2024-11-08T11:00:00	7	Dirección del viento	3.22
157779	7	Sololá	712	San Antonio Palopó	9	San Antonio Palopo	3	Marzo	2023-06-03T00:00:00	2024-11-08T11:00:00	1	Precipitación	0
157780	7	Sololá	712	San Antonio Palopó	9	San Antonio Palopo	3	Marzo	2023-06-03T00:00:00	2024-11-08T11:00:00	8	Radiación solar	776
157781	7	Sololá	712	San Antonio Palopó	9	San Antonio Palopo	3	Marzo	2023-06-03T00:00:00	2024-11-08T12:00:00	2	Temperatura media	24.7
157782	7	Sololá	712	San Antonio Palopó	9	San Antonio Palopo	3	Marzo	2023-06-03T00:00:00	2024-11-08T12:00:00	4	Temperatura máxima	24.7
157783	7	Sololá	712	San Antonio Palopó	9	San Antonio Palopo	3	Marzo	2023-06-03T00:00:00	2024-11-08T12:00:00	3	Temperatura mínima	22.4
157784	7	Sololá	712	San Antonio Palopó	9	San Antonio Palopo	3	Marzo	2023-06-03T00:00:00	2024-11-08T12:00:00	5	Humedad	56
157785	7	Sololá	712	San Antonio Palopó	9	San Antonio Palopo	3	Marzo	2023-06-03T00:00:00	2024-11-08T12:00:00	6	Velocidad del viento	4.8
157786	7	Sololá	712	San Antonio Palopó	9	San Antonio Palopo	3	Marzo	2023-06-03T00:00:00	2024-11-08T12:00:00	7	Dirección del viento	4.83
157787	7	Sololá	712	San Antonio Palopó	9	San Antonio Palopo	3	Marzo	2023-06-03T00:00:00	2024-11-08T12:00:00	1	Precipitación	0
157788	7	Sololá	712	San Antonio Palopó	9	San Antonio Palopo	3	Marzo	2023-06-03T00:00:00	2024-11-08T12:00:00	8	Radiación solar	829
157789	7	Sololá	712	San Antonio Palopó	9	San Antonio Palopo	3	Marzo	2023-06-03T00:00:00	2024-11-08T13:00:00	2	Temperatura media	24.1
157790	7	Sololá	712	San Antonio Palopó	9	San Antonio Palopo	3	Marzo	2023-06-03T00:00:00	2024-11-08T13:00:00	4	Temperatura máxima	25.1
157791	7	Sololá	712	San Antonio Palopó	9	San Antonio Palopo	3	Marzo	2023-06-03T00:00:00	2024-11-08T13:00:00	3	Temperatura mínima	23.9
157792	7	Sololá	712	San Antonio Palopó	9	San Antonio Palopo	3	Marzo	2023-06-03T00:00:00	2024-11-08T13:00:00	5	Humedad	63
157793	7	Sololá	712	San Antonio Palopó	9	San Antonio Palopo	3	Marzo	2023-06-03T00:00:00	2024-11-08T13:00:00	6	Velocidad del viento	8
157794	7	Sololá	712	San Antonio Palopó	9	San Antonio Palopo	3	Marzo	2023-06-03T00:00:00	2024-11-08T13:00:00	7	Dirección del viento	8.05
157795	7	Sololá	712	San Antonio Palopó	9	San Antonio Palopo	3	Marzo	2023-06-03T00:00:00	2024-11-08T13:00:00	1	Precipitación	0
157796	7	Sololá	712	San Antonio Palopó	9	San Antonio Palopo	3	Marzo	2023-06-03T00:00:00	2024-11-08T13:00:00	8	Radiación solar	856
157797	7	Sololá	712	San Antonio Palopó	9	San Antonio Palopo	3	Marzo	2023-06-03T00:00:00	2024-11-08T14:00:00	2	Temperatura media	24.2
157798	7	Sololá	712	San Antonio Palopó	9	San Antonio Palopo	3	Marzo	2023-06-03T00:00:00	2024-11-08T14:00:00	4	Temperatura máxima	24.8
157799	7	Sololá	712	San Antonio Palopó	9	San Antonio Palopo	3	Marzo	2023-06-03T00:00:00	2024-11-08T14:00:00	3	Temperatura mínima	24.1
157800	7	Sololá	712	San Antonio Palopó	9	San Antonio Palopo	3	Marzo	2023-06-03T00:00:00	2024-11-08T14:00:00	5	Humedad	62
157801	7	Sololá	712	San Antonio Palopó	9	San Antonio Palopo	3	Marzo	2023-06-03T00:00:00	2024-11-08T14:00:00	6	Velocidad del viento	8
157802	7	Sololá	712	San Antonio Palopó	9	San Antonio Palopo	3	Marzo	2023-06-03T00:00:00	2024-11-08T14:00:00	7	Dirección del viento	8.05
157803	7	Sololá	712	San Antonio Palopó	9	San Antonio Palopo	3	Marzo	2023-06-03T00:00:00	2024-11-08T14:00:00	1	Precipitación	0
157804	7	Sololá	712	San Antonio Palopó	9	San Antonio Palopo	3	Marzo	2023-06-03T00:00:00	2024-11-08T14:00:00	8	Radiación solar	803
157805	7	Sololá	712	San Antonio Palopó	9	San Antonio Palopo	3	Marzo	2023-06-03T00:00:00	2024-11-08T15:00:00	2	Temperatura media	23.6
157806	7	Sololá	712	San Antonio Palopó	9	San Antonio Palopo	3	Marzo	2023-06-03T00:00:00	2024-11-08T15:00:00	4	Temperatura máxima	24.3
157807	7	Sololá	712	San Antonio Palopó	9	San Antonio Palopo	3	Marzo	2023-06-03T00:00:00	2024-11-08T15:00:00	3	Temperatura mínima	23.2
157808	7	Sololá	712	San Antonio Palopó	9	San Antonio Palopo	3	Marzo	2023-06-03T00:00:00	2024-11-08T15:00:00	5	Humedad	65
157809	7	Sololá	712	San Antonio Palopó	9	San Antonio Palopo	3	Marzo	2023-06-03T00:00:00	2024-11-08T15:00:00	6	Velocidad del viento	14.5
157810	7	Sololá	712	San Antonio Palopó	9	San Antonio Palopo	3	Marzo	2023-06-03T00:00:00	2024-11-08T15:00:00	7	Dirección del viento	14.48
157811	7	Sololá	712	San Antonio Palopó	9	San Antonio Palopo	3	Marzo	2023-06-03T00:00:00	2024-11-08T15:00:00	1	Precipitación	0
157812	7	Sololá	712	San Antonio Palopó	9	San Antonio Palopo	3	Marzo	2023-06-03T00:00:00	2024-11-08T15:00:00	8	Radiación solar	685
157813	7	Sololá	712	San Antonio Palopó	9	San Antonio Palopo	3	Marzo	2023-06-03T00:00:00	2024-11-08T16:00:00	2	Temperatura media	23.8
157814	7	Sololá	712	San Antonio Palopó	9	San Antonio Palopo	3	Marzo	2023-06-03T00:00:00	2024-11-08T16:00:00	4	Temperatura máxima	24.1
157815	7	Sololá	712	San Antonio Palopó	9	San Antonio Palopo	3	Marzo	2023-06-03T00:00:00	2024-11-08T16:00:00	3	Temperatura mínima	23.4
157816	7	Sololá	712	San Antonio Palopó	9	San Antonio Palopo	3	Marzo	2023-06-03T00:00:00	2024-11-08T16:00:00	5	Humedad	65
157817	7	Sololá	712	San Antonio Palopó	9	San Antonio Palopo	3	Marzo	2023-06-03T00:00:00	2024-11-08T16:00:00	6	Velocidad del viento	11.3
157818	7	Sololá	712	San Antonio Palopó	9	San Antonio Palopo	3	Marzo	2023-06-03T00:00:00	2024-11-08T16:00:00	7	Dirección del viento	11.27
157819	7	Sololá	712	San Antonio Palopó	9	San Antonio Palopo	3	Marzo	2023-06-03T00:00:00	2024-11-08T16:00:00	1	Precipitación	0
157820	7	Sololá	712	San Antonio Palopó	9	San Antonio Palopo	3	Marzo	2023-06-03T00:00:00	2024-11-08T16:00:00	8	Radiación solar	515
157821	7	Sololá	712	San Antonio Palopó	9	San Antonio Palopo	3	Marzo	2023-06-03T00:00:00	2024-11-08T17:00:00	2	Temperatura media	22.5
157822	7	Sololá	712	San Antonio Palopó	9	San Antonio Palopo	3	Marzo	2023-06-03T00:00:00	2024-11-08T17:00:00	4	Temperatura máxima	23.8
157823	7	Sololá	712	San Antonio Palopó	9	San Antonio Palopo	3	Marzo	2023-06-03T00:00:00	2024-11-08T17:00:00	3	Temperatura mínima	22.5
157824	7	Sololá	712	San Antonio Palopó	9	San Antonio Palopo	3	Marzo	2023-06-03T00:00:00	2024-11-08T17:00:00	5	Humedad	72
157825	7	Sololá	712	San Antonio Palopó	9	San Antonio Palopo	3	Marzo	2023-06-03T00:00:00	2024-11-08T17:00:00	6	Velocidad del viento	14.5
157826	7	Sololá	712	San Antonio Palopó	9	San Antonio Palopo	3	Marzo	2023-06-03T00:00:00	2024-11-08T17:00:00	7	Dirección del viento	14.48
157827	7	Sololá	712	San Antonio Palopó	9	San Antonio Palopo	3	Marzo	2023-06-03T00:00:00	2024-11-08T17:00:00	1	Precipitación	0
157828	7	Sololá	712	San Antonio Palopó	9	San Antonio Palopo	3	Marzo	2023-06-03T00:00:00	2024-11-08T17:00:00	8	Radiación solar	310
157829	7	Sololá	712	San Antonio Palopó	9	San Antonio Palopo	3	Marzo	2023-06-03T00:00:00	2024-11-08T18:00:00	2	Temperatura media	21.7
157830	7	Sololá	712	San Antonio Palopó	9	San Antonio Palopo	3	Marzo	2023-06-03T00:00:00	2024-11-08T18:00:00	4	Temperatura máxima	22.7
157831	7	Sololá	712	San Antonio Palopó	9	San Antonio Palopo	3	Marzo	2023-06-03T00:00:00	2024-11-08T18:00:00	3	Temperatura mínima	21.7
157832	7	Sololá	712	San Antonio Palopó	9	San Antonio Palopo	3	Marzo	2023-06-03T00:00:00	2024-11-08T18:00:00	5	Humedad	75
157833	7	Sololá	712	San Antonio Palopó	9	San Antonio Palopo	3	Marzo	2023-06-03T00:00:00	2024-11-08T18:00:00	6	Velocidad del viento	8
157834	7	Sololá	712	San Antonio Palopó	9	San Antonio Palopo	3	Marzo	2023-06-03T00:00:00	2024-11-08T18:00:00	7	Dirección del viento	8.05
157835	7	Sololá	712	San Antonio Palopó	9	San Antonio Palopo	3	Marzo	2023-06-03T00:00:00	2024-11-08T18:00:00	1	Precipitación	0
157836	7	Sololá	712	San Antonio Palopó	9	San Antonio Palopo	3	Marzo	2023-06-03T00:00:00	2024-11-08T18:00:00	8	Radiación solar	99
157837	7	Sololá	712	San Antonio Palopó	9	San Antonio Palopo	3	Marzo	2023-06-03T00:00:00	2024-11-08T19:00:00	2	Temperatura media	20.1
157838	7	Sololá	712	San Antonio Palopó	9	San Antonio Palopo	3	Marzo	2023-06-03T00:00:00	2024-11-08T19:00:00	4	Temperatura máxima	21.7
157839	7	Sololá	712	San Antonio Palopó	9	San Antonio Palopo	3	Marzo	2023-06-03T00:00:00	2024-11-08T19:00:00	3	Temperatura mínima	19.9
157840	7	Sololá	712	San Antonio Palopó	9	San Antonio Palopo	3	Marzo	2023-06-03T00:00:00	2024-11-08T19:00:00	5	Humedad	80
157841	7	Sololá	712	San Antonio Palopó	9	San Antonio Palopo	3	Marzo	2023-06-03T00:00:00	2024-11-08T19:00:00	6	Velocidad del viento	8
157842	7	Sololá	712	San Antonio Palopó	9	San Antonio Palopo	3	Marzo	2023-06-03T00:00:00	2024-11-08T19:00:00	7	Dirección del viento	8.05
157843	7	Sololá	712	San Antonio Palopó	9	San Antonio Palopo	3	Marzo	2023-06-03T00:00:00	2024-11-08T19:00:00	1	Precipitación	0
157844	7	Sololá	712	San Antonio Palopó	9	San Antonio Palopo	3	Marzo	2023-06-03T00:00:00	2024-11-08T19:00:00	8	Radiación solar	0
157845	7	Sololá	712	San Antonio Palopó	9	San Antonio Palopo	3	Marzo	2023-06-03T00:00:00	2024-11-08T20:00:00	2	Temperatura media	19.4
157846	7	Sololá	712	San Antonio Palopó	9	San Antonio Palopo	3	Marzo	2023-06-03T00:00:00	2024-11-08T20:00:00	4	Temperatura máxima	20.1
157847	7	Sololá	712	San Antonio Palopó	9	San Antonio Palopo	3	Marzo	2023-06-03T00:00:00	2024-11-08T20:00:00	3	Temperatura mínima	19.3
157848	7	Sololá	712	San Antonio Palopó	9	San Antonio Palopo	3	Marzo	2023-06-03T00:00:00	2024-11-08T20:00:00	5	Humedad	82
157849	7	Sololá	712	San Antonio Palopó	9	San Antonio Palopo	3	Marzo	2023-06-03T00:00:00	2024-11-08T20:00:00	6	Velocidad del viento	3.2
157850	7	Sololá	712	San Antonio Palopó	9	San Antonio Palopo	3	Marzo	2023-06-03T00:00:00	2024-11-08T20:00:00	7	Dirección del viento	3.22
157851	7	Sololá	712	San Antonio Palopó	9	San Antonio Palopo	3	Marzo	2023-06-03T00:00:00	2024-11-08T20:00:00	1	Precipitación	0
157852	7	Sololá	712	San Antonio Palopó	9	San Antonio Palopo	3	Marzo	2023-06-03T00:00:00	2024-11-08T20:00:00	8	Radiación solar	0
157853	7	Sololá	712	San Antonio Palopó	9	San Antonio Palopo	3	Marzo	2023-06-03T00:00:00	2024-11-08T21:00:00	2	Temperatura media	18.3
157854	7	Sololá	712	San Antonio Palopó	9	San Antonio Palopo	3	Marzo	2023-06-03T00:00:00	2024-11-08T21:00:00	4	Temperatura máxima	19.4
157855	7	Sololá	712	San Antonio Palopó	9	San Antonio Palopo	3	Marzo	2023-06-03T00:00:00	2024-11-08T21:00:00	3	Temperatura mínima	18.3
157856	7	Sololá	712	San Antonio Palopó	9	San Antonio Palopo	3	Marzo	2023-06-03T00:00:00	2024-11-08T21:00:00	5	Humedad	83
157857	7	Sololá	712	San Antonio Palopó	9	San Antonio Palopo	3	Marzo	2023-06-03T00:00:00	2024-11-08T21:00:00	6	Velocidad del viento	1.6
157858	7	Sololá	712	San Antonio Palopó	9	San Antonio Palopo	3	Marzo	2023-06-03T00:00:00	2024-11-08T21:00:00	7	Dirección del viento	1.61
157859	7	Sololá	712	San Antonio Palopó	9	San Antonio Palopo	3	Marzo	2023-06-03T00:00:00	2024-11-08T21:00:00	1	Precipitación	0
157860	7	Sololá	712	San Antonio Palopó	9	San Antonio Palopo	3	Marzo	2023-06-03T00:00:00	2024-11-08T21:00:00	8	Radiación solar	0
157861	7	Sololá	712	San Antonio Palopó	9	San Antonio Palopo	3	Marzo	2023-06-03T00:00:00	2024-11-08T22:00:00	2	Temperatura media	18.9
157862	7	Sololá	712	San Antonio Palopó	9	San Antonio Palopo	3	Marzo	2023-06-03T00:00:00	2024-11-08T22:00:00	4	Temperatura máxima	19.2
157863	7	Sololá	712	San Antonio Palopó	9	San Antonio Palopo	3	Marzo	2023-06-03T00:00:00	2024-11-08T22:00:00	3	Temperatura mínima	18.3
157864	7	Sololá	712	San Antonio Palopó	9	San Antonio Palopo	3	Marzo	2023-06-03T00:00:00	2024-11-08T22:00:00	5	Humedad	69
157865	7	Sololá	712	San Antonio Palopó	9	San Antonio Palopo	3	Marzo	2023-06-03T00:00:00	2024-11-08T22:00:00	6	Velocidad del viento	6.4
157866	7	Sololá	712	San Antonio Palopó	9	San Antonio Palopo	3	Marzo	2023-06-03T00:00:00	2024-11-08T22:00:00	7	Dirección del viento	6.44
157867	7	Sololá	712	San Antonio Palopó	9	San Antonio Palopo	3	Marzo	2023-06-03T00:00:00	2024-11-08T22:00:00	1	Precipitación	0
157868	7	Sololá	712	San Antonio Palopó	9	San Antonio Palopo	3	Marzo	2023-06-03T00:00:00	2024-11-08T22:00:00	8	Radiación solar	0
157869	7	Sololá	712	San Antonio Palopó	9	San Antonio Palopo	3	Marzo	2023-06-03T00:00:00	2024-11-08T23:00:00	2	Temperatura media	18.2
157870	7	Sololá	712	San Antonio Palopó	9	San Antonio Palopo	3	Marzo	2023-06-03T00:00:00	2024-11-08T23:00:00	4	Temperatura máxima	18.9
157871	7	Sololá	712	San Antonio Palopó	9	San Antonio Palopo	3	Marzo	2023-06-03T00:00:00	2024-11-08T23:00:00	3	Temperatura mínima	18.1
157872	7	Sololá	712	San Antonio Palopó	9	San Antonio Palopo	3	Marzo	2023-06-03T00:00:00	2024-11-08T23:00:00	5	Humedad	70
157873	7	Sololá	712	San Antonio Palopó	9	San Antonio Palopo	3	Marzo	2023-06-03T00:00:00	2024-11-08T23:00:00	6	Velocidad del viento	11.3
157874	7	Sololá	712	San Antonio Palopó	9	San Antonio Palopo	3	Marzo	2023-06-03T00:00:00	2024-11-08T23:00:00	7	Dirección del viento	11.27
157875	7	Sololá	712	San Antonio Palopó	9	San Antonio Palopo	3	Marzo	2023-06-03T00:00:00	2024-11-08T23:00:00	1	Precipitación	0
157876	7	Sololá	712	San Antonio Palopó	9	San Antonio Palopo	3	Marzo	2023-06-03T00:00:00	2024-11-08T23:00:00	8	Radiación solar	0
157877	7	Sololá	712	San Antonio Palopó	9	San Antonio Palopo	3	Marzo	2023-07-03T00:00:00	2024-11-08T00:00:00	2	Temperatura media	17.6
157878	7	Sololá	712	San Antonio Palopó	9	San Antonio Palopo	3	Marzo	2023-07-03T00:00:00	2024-11-08T00:00:00	4	Temperatura máxima	18.2
157879	7	Sololá	712	San Antonio Palopó	9	San Antonio Palopo	3	Marzo	2023-07-03T00:00:00	2024-11-08T00:00:00	3	Temperatura mínima	17.6
157880	7	Sololá	712	San Antonio Palopó	9	San Antonio Palopo	3	Marzo	2023-07-03T00:00:00	2024-11-08T00:00:00	5	Humedad	71
157881	7	Sololá	712	San Antonio Palopó	9	San Antonio Palopo	3	Marzo	2023-07-03T00:00:00	2024-11-08T00:00:00	6	Velocidad del viento	12.9
157882	7	Sololá	712	San Antonio Palopó	9	San Antonio Palopo	3	Marzo	2023-07-03T00:00:00	2024-11-08T00:00:00	7	Dirección del viento	12.87
157883	7	Sololá	712	San Antonio Palopó	9	San Antonio Palopo	3	Marzo	2023-07-03T00:00:00	2024-11-08T00:00:00	1	Precipitación	0
157884	7	Sololá	712	San Antonio Palopó	9	San Antonio Palopo	3	Marzo	2023-07-03T00:00:00	2024-11-08T00:00:00	8	Radiación solar	0
157885	7	Sololá	712	San Antonio Palopó	9	San Antonio Palopo	3	Marzo	2023-07-03T00:00:00	2024-11-08T01:00:00	2	Temperatura media	17.1
157886	7	Sololá	712	San Antonio Palopó	9	San Antonio Palopo	3	Marzo	2023-07-03T00:00:00	2024-11-08T01:00:00	4	Temperatura máxima	17.7
157887	7	Sololá	712	San Antonio Palopó	9	San Antonio Palopo	3	Marzo	2023-07-03T00:00:00	2024-11-08T01:00:00	3	Temperatura mínima	17.1
157888	7	Sololá	712	San Antonio Palopó	9	San Antonio Palopo	3	Marzo	2023-07-03T00:00:00	2024-11-08T01:00:00	5	Humedad	72
157889	7	Sololá	712	San Antonio Palopó	9	San Antonio Palopo	3	Marzo	2023-07-03T00:00:00	2024-11-08T01:00:00	6	Velocidad del viento	9.7
157890	7	Sololá	712	San Antonio Palopó	9	San Antonio Palopo	3	Marzo	2023-07-03T00:00:00	2024-11-08T01:00:00	7	Dirección del viento	9.66
157891	7	Sololá	712	San Antonio Palopó	9	San Antonio Palopo	3	Marzo	2023-07-03T00:00:00	2024-11-08T01:00:00	1	Precipitación	0
157892	7	Sololá	712	San Antonio Palopó	9	San Antonio Palopo	3	Marzo	2023-07-03T00:00:00	2024-11-08T01:00:00	8	Radiación solar	0
157893	7	Sololá	712	San Antonio Palopó	9	San Antonio Palopo	3	Marzo	2023-07-03T00:00:00	2024-11-08T02:00:00	2	Temperatura media	16.4
157894	7	Sololá	712	San Antonio Palopó	9	San Antonio Palopo	3	Marzo	2023-07-03T00:00:00	2024-11-08T02:00:00	4	Temperatura máxima	17.1
157895	7	Sololá	712	San Antonio Palopó	9	San Antonio Palopo	3	Marzo	2023-07-03T00:00:00	2024-11-08T02:00:00	3	Temperatura mínima	16.4
157896	7	Sololá	712	San Antonio Palopó	9	San Antonio Palopo	3	Marzo	2023-07-03T00:00:00	2024-11-08T02:00:00	5	Humedad	75
157897	7	Sololá	712	San Antonio Palopó	9	San Antonio Palopo	3	Marzo	2023-07-03T00:00:00	2024-11-08T02:00:00	6	Velocidad del viento	8
157898	7	Sololá	712	San Antonio Palopó	9	San Antonio Palopo	3	Marzo	2023-07-03T00:00:00	2024-11-08T02:00:00	7	Dirección del viento	8.05
157899	7	Sololá	712	San Antonio Palopó	9	San Antonio Palopo	3	Marzo	2023-07-03T00:00:00	2024-11-08T02:00:00	1	Precipitación	0
157900	7	Sololá	712	San Antonio Palopó	9	San Antonio Palopo	3	Marzo	2023-07-03T00:00:00	2024-11-08T02:00:00	8	Radiación solar	0
157901	7	Sololá	712	San Antonio Palopó	9	San Antonio Palopo	3	Marzo	2023-07-03T00:00:00	2024-11-08T03:00:00	2	Temperatura media	15.8
157902	7	Sololá	712	San Antonio Palopó	9	San Antonio Palopo	3	Marzo	2023-07-03T00:00:00	2024-11-08T03:00:00	4	Temperatura máxima	16.4
157903	7	Sololá	712	San Antonio Palopó	9	San Antonio Palopo	3	Marzo	2023-07-03T00:00:00	2024-11-08T03:00:00	3	Temperatura mínima	15.8
157904	7	Sololá	712	San Antonio Palopó	9	San Antonio Palopo	3	Marzo	2023-07-03T00:00:00	2024-11-08T03:00:00	5	Humedad	76
157905	7	Sololá	712	San Antonio Palopó	9	San Antonio Palopo	3	Marzo	2023-07-03T00:00:00	2024-11-08T03:00:00	6	Velocidad del viento	8
157906	7	Sololá	712	San Antonio Palopó	9	San Antonio Palopo	3	Marzo	2023-07-03T00:00:00	2024-11-08T03:00:00	7	Dirección del viento	8.05
157907	7	Sololá	712	San Antonio Palopó	9	San Antonio Palopo	3	Marzo	2023-07-03T00:00:00	2024-11-08T03:00:00	1	Precipitación	0
157908	7	Sololá	712	San Antonio Palopó	9	San Antonio Palopo	3	Marzo	2023-07-03T00:00:00	2024-11-08T03:00:00	8	Radiación solar	0
157909	7	Sololá	712	San Antonio Palopó	9	San Antonio Palopo	3	Marzo	2023-07-03T00:00:00	2024-11-08T04:00:00	2	Temperatura media	15.7
157910	7	Sololá	712	San Antonio Palopó	9	San Antonio Palopo	3	Marzo	2023-07-03T00:00:00	2024-11-08T04:00:00	4	Temperatura máxima	15.8
157911	7	Sololá	712	San Antonio Palopó	9	San Antonio Palopo	3	Marzo	2023-07-03T00:00:00	2024-11-08T04:00:00	3	Temperatura mínima	15.6
157912	7	Sololá	712	San Antonio Palopó	9	San Antonio Palopo	3	Marzo	2023-07-03T00:00:00	2024-11-08T04:00:00	5	Humedad	76
157913	7	Sololá	712	San Antonio Palopó	9	San Antonio Palopo	3	Marzo	2023-07-03T00:00:00	2024-11-08T04:00:00	6	Velocidad del viento	9.7
157914	7	Sololá	712	San Antonio Palopó	9	San Antonio Palopo	3	Marzo	2023-07-03T00:00:00	2024-11-08T04:00:00	7	Dirección del viento	9.66
157915	7	Sololá	712	San Antonio Palopó	9	San Antonio Palopo	3	Marzo	2023-07-03T00:00:00	2024-11-08T04:00:00	1	Precipitación	0
157916	7	Sololá	712	San Antonio Palopó	9	San Antonio Palopo	3	Marzo	2023-07-03T00:00:00	2024-11-08T04:00:00	8	Radiación solar	0
157917	7	Sololá	712	San Antonio Palopó	9	San Antonio Palopo	3	Marzo	2023-07-03T00:00:00	2024-11-08T05:00:00	2	Temperatura media	15.7
157918	7	Sololá	712	San Antonio Palopó	9	San Antonio Palopo	3	Marzo	2023-07-03T00:00:00	2024-11-08T05:00:00	4	Temperatura máxima	15.9
157919	7	Sololá	712	San Antonio Palopó	9	San Antonio Palopo	3	Marzo	2023-07-03T00:00:00	2024-11-08T05:00:00	3	Temperatura mínima	15.7
157920	7	Sololá	712	San Antonio Palopó	9	San Antonio Palopo	3	Marzo	2023-07-03T00:00:00	2024-11-08T05:00:00	5	Humedad	74
157921	7	Sololá	712	San Antonio Palopó	9	San Antonio Palopo	3	Marzo	2023-07-03T00:00:00	2024-11-08T05:00:00	6	Velocidad del viento	6.4
157922	7	Sololá	712	San Antonio Palopó	9	San Antonio Palopo	3	Marzo	2023-07-03T00:00:00	2024-11-08T05:00:00	7	Dirección del viento	6.44
157923	7	Sololá	712	San Antonio Palopó	9	San Antonio Palopo	3	Marzo	2023-07-03T00:00:00	2024-11-08T05:00:00	1	Precipitación	0
157924	7	Sololá	712	San Antonio Palopó	9	San Antonio Palopo	3	Marzo	2023-07-03T00:00:00	2024-11-08T05:00:00	8	Radiación solar	0
157925	7	Sololá	712	San Antonio Palopó	9	San Antonio Palopo	3	Marzo	2023-07-03T00:00:00	2024-11-08T06:00:00	2	Temperatura media	15.8
157926	7	Sololá	712	San Antonio Palopó	9	San Antonio Palopo	3	Marzo	2023-07-03T00:00:00	2024-11-08T06:00:00	4	Temperatura máxima	15.8
157927	7	Sololá	712	San Antonio Palopó	9	San Antonio Palopo	3	Marzo	2023-07-03T00:00:00	2024-11-08T06:00:00	3	Temperatura mínima	15.6
157928	7	Sololá	712	San Antonio Palopó	9	San Antonio Palopo	3	Marzo	2023-07-03T00:00:00	2024-11-08T06:00:00	5	Humedad	70
157929	7	Sololá	712	San Antonio Palopó	9	San Antonio Palopo	3	Marzo	2023-07-03T00:00:00	2024-11-08T06:00:00	6	Velocidad del viento	4.8
157930	7	Sololá	712	San Antonio Palopó	9	San Antonio Palopo	3	Marzo	2023-07-03T00:00:00	2024-11-08T06:00:00	7	Dirección del viento	4.83
157931	7	Sololá	712	San Antonio Palopó	9	San Antonio Palopo	3	Marzo	2023-07-03T00:00:00	2024-11-08T06:00:00	1	Precipitación	0
157932	7	Sololá	712	San Antonio Palopó	9	San Antonio Palopo	3	Marzo	2023-07-03T00:00:00	2024-11-08T06:00:00	8	Radiación solar	0
157933	7	Sololá	712	San Antonio Palopó	9	San Antonio Palopo	3	Marzo	2023-07-03T00:00:00	2024-11-08T07:00:00	2	Temperatura media	16.4
157934	7	Sololá	712	San Antonio Palopó	9	San Antonio Palopo	3	Marzo	2023-07-03T00:00:00	2024-11-08T07:00:00	4	Temperatura máxima	16.4
157935	7	Sololá	712	San Antonio Palopó	9	San Antonio Palopo	3	Marzo	2023-07-03T00:00:00	2024-11-08T07:00:00	3	Temperatura mínima	15.7
157936	7	Sololá	712	San Antonio Palopó	9	San Antonio Palopo	3	Marzo	2023-07-03T00:00:00	2024-11-08T07:00:00	5	Humedad	69
157937	7	Sololá	712	San Antonio Palopó	9	San Antonio Palopo	3	Marzo	2023-07-03T00:00:00	2024-11-08T07:00:00	6	Velocidad del viento	4.8
157938	7	Sololá	712	San Antonio Palopó	9	San Antonio Palopo	3	Marzo	2023-07-03T00:00:00	2024-11-08T07:00:00	7	Dirección del viento	4.83
157939	7	Sololá	712	San Antonio Palopó	9	San Antonio Palopo	3	Marzo	2023-07-03T00:00:00	2024-11-08T07:00:00	1	Precipitación	0
157940	7	Sololá	712	San Antonio Palopó	9	San Antonio Palopo	3	Marzo	2023-07-03T00:00:00	2024-11-08T07:00:00	8	Radiación solar	14
157941	7	Sololá	712	San Antonio Palopó	9	San Antonio Palopo	3	Marzo	2023-07-03T00:00:00	2024-11-08T08:00:00	2	Temperatura media	17.2
157942	7	Sololá	712	San Antonio Palopó	9	San Antonio Palopo	3	Marzo	2023-07-03T00:00:00	2024-11-08T08:00:00	4	Temperatura máxima	17.2
157943	7	Sololá	712	San Antonio Palopó	9	San Antonio Palopo	3	Marzo	2023-07-03T00:00:00	2024-11-08T08:00:00	3	Temperatura mínima	16.3
157944	7	Sololá	712	San Antonio Palopó	9	San Antonio Palopo	3	Marzo	2023-07-03T00:00:00	2024-11-08T08:00:00	5	Humedad	71
157945	7	Sololá	712	San Antonio Palopó	9	San Antonio Palopo	3	Marzo	2023-07-03T00:00:00	2024-11-08T08:00:00	6	Velocidad del viento	1.6
157946	7	Sololá	712	San Antonio Palopó	9	San Antonio Palopo	3	Marzo	2023-07-03T00:00:00	2024-11-08T08:00:00	7	Dirección del viento	1.61
157947	7	Sololá	712	San Antonio Palopó	9	San Antonio Palopo	3	Marzo	2023-07-03T00:00:00	2024-11-08T08:00:00	1	Precipitación	0
157948	7	Sololá	712	San Antonio Palopó	9	San Antonio Palopo	3	Marzo	2023-07-03T00:00:00	2024-11-08T08:00:00	8	Radiación solar	99
157949	7	Sololá	712	San Antonio Palopó	9	San Antonio Palopo	3	Marzo	2023-07-03T00:00:00	2024-11-08T09:00:00	2	Temperatura media	18.4
157950	7	Sololá	712	San Antonio Palopó	9	San Antonio Palopo	3	Marzo	2023-07-03T00:00:00	2024-11-08T09:00:00	4	Temperatura máxima	18.4
157951	7	Sololá	712	San Antonio Palopó	9	San Antonio Palopo	3	Marzo	2023-07-03T00:00:00	2024-11-08T09:00:00	3	Temperatura mínima	17.2
157952	7	Sololá	712	San Antonio Palopó	9	San Antonio Palopo	3	Marzo	2023-07-03T00:00:00	2024-11-08T09:00:00	5	Humedad	69
157953	7	Sololá	712	San Antonio Palopó	9	San Antonio Palopo	3	Marzo	2023-07-03T00:00:00	2024-11-08T09:00:00	6	Velocidad del viento	3.2
157954	7	Sololá	712	San Antonio Palopó	9	San Antonio Palopo	3	Marzo	2023-07-03T00:00:00	2024-11-08T09:00:00	7	Dirección del viento	3.22
157955	7	Sololá	712	San Antonio Palopó	9	San Antonio Palopo	3	Marzo	2023-07-03T00:00:00	2024-11-08T09:00:00	1	Precipitación	0
157956	7	Sololá	712	San Antonio Palopó	9	San Antonio Palopo	3	Marzo	2023-07-03T00:00:00	2024-11-08T09:00:00	8	Radiación solar	240
157957	7	Sololá	712	San Antonio Palopó	9	San Antonio Palopo	3	Marzo	2023-07-03T00:00:00	2024-11-08T10:00:00	2	Temperatura media	19.3
157958	7	Sololá	712	San Antonio Palopó	9	San Antonio Palopo	3	Marzo	2023-07-03T00:00:00	2024-11-08T10:00:00	4	Temperatura máxima	19.3
157959	7	Sololá	712	San Antonio Palopó	9	San Antonio Palopo	3	Marzo	2023-07-03T00:00:00	2024-11-08T10:00:00	3	Temperatura mínima	18.2
157960	7	Sololá	712	San Antonio Palopó	9	San Antonio Palopo	3	Marzo	2023-07-03T00:00:00	2024-11-08T10:00:00	5	Humedad	68
157961	7	Sololá	712	San Antonio Palopó	9	San Antonio Palopo	3	Marzo	2023-07-03T00:00:00	2024-11-08T10:00:00	6	Velocidad del viento	3.2
157962	7	Sololá	712	San Antonio Palopó	9	San Antonio Palopo	3	Marzo	2023-07-03T00:00:00	2024-11-08T10:00:00	7	Dirección del viento	3.22
157963	7	Sololá	712	San Antonio Palopó	9	San Antonio Palopo	3	Marzo	2023-07-03T00:00:00	2024-11-08T10:00:00	1	Precipitación	0
157964	7	Sololá	712	San Antonio Palopó	9	San Antonio Palopo	3	Marzo	2023-07-03T00:00:00	2024-11-08T10:00:00	8	Radiación solar	526
157965	7	Sololá	712	San Antonio Palopó	9	San Antonio Palopo	3	Marzo	2023-07-03T00:00:00	2024-11-08T11:00:00	2	Temperatura media	20.7
157966	7	Sololá	712	San Antonio Palopó	9	San Antonio Palopo	3	Marzo	2023-07-03T00:00:00	2024-11-08T11:00:00	4	Temperatura máxima	20.7
157967	7	Sololá	712	San Antonio Palopó	9	San Antonio Palopo	3	Marzo	2023-07-03T00:00:00	2024-11-08T11:00:00	3	Temperatura mínima	19.3
157968	7	Sololá	712	San Antonio Palopó	9	San Antonio Palopo	3	Marzo	2023-07-03T00:00:00	2024-11-08T11:00:00	5	Humedad	67
157969	7	Sololá	712	San Antonio Palopó	9	San Antonio Palopo	3	Marzo	2023-07-03T00:00:00	2024-11-08T11:00:00	6	Velocidad del viento	3.2
157970	7	Sololá	712	San Antonio Palopó	9	San Antonio Palopo	3	Marzo	2023-07-03T00:00:00	2024-11-08T11:00:00	7	Dirección del viento	3.22
157971	7	Sololá	712	San Antonio Palopó	9	San Antonio Palopo	3	Marzo	2023-07-03T00:00:00	2024-11-08T11:00:00	1	Precipitación	0
157972	7	Sololá	712	San Antonio Palopó	9	San Antonio Palopo	3	Marzo	2023-07-03T00:00:00	2024-11-08T11:00:00	8	Radiación solar	699
157973	7	Sololá	712	San Antonio Palopó	9	San Antonio Palopo	3	Marzo	2023-07-03T00:00:00	2024-11-08T12:00:00	2	Temperatura media	20.8
157974	7	Sololá	712	San Antonio Palopó	9	San Antonio Palopo	3	Marzo	2023-07-03T00:00:00	2024-11-08T12:00:00	4	Temperatura máxima	21.3
157975	7	Sololá	712	San Antonio Palopó	9	San Antonio Palopo	3	Marzo	2023-07-03T00:00:00	2024-11-08T12:00:00	3	Temperatura mínima	20.6
157976	7	Sololá	712	San Antonio Palopó	9	San Antonio Palopo	3	Marzo	2023-07-03T00:00:00	2024-11-08T12:00:00	5	Humedad	66
157977	7	Sololá	712	San Antonio Palopó	9	San Antonio Palopo	3	Marzo	2023-07-03T00:00:00	2024-11-08T12:00:00	6	Velocidad del viento	4.8
157978	7	Sololá	712	San Antonio Palopó	9	San Antonio Palopo	3	Marzo	2023-07-03T00:00:00	2024-11-08T12:00:00	7	Dirección del viento	4.83
157979	7	Sololá	712	San Antonio Palopó	9	San Antonio Palopo	3	Marzo	2023-07-03T00:00:00	2024-11-08T12:00:00	1	Precipitación	0
157980	7	Sololá	712	San Antonio Palopó	9	San Antonio Palopo	3	Marzo	2023-07-03T00:00:00	2024-11-08T12:00:00	8	Radiación solar	739
157981	7	Sololá	712	San Antonio Palopó	9	San Antonio Palopo	3	Marzo	2023-07-03T00:00:00	2024-11-08T13:00:00	2	Temperatura media	22.6
157982	7	Sololá	712	San Antonio Palopó	9	San Antonio Palopo	3	Marzo	2023-07-03T00:00:00	2024-11-08T13:00:00	4	Temperatura máxima	22.7
157983	7	Sololá	712	San Antonio Palopó	9	San Antonio Palopo	3	Marzo	2023-07-03T00:00:00	2024-11-08T13:00:00	3	Temperatura mínima	20.7
157984	7	Sololá	712	San Antonio Palopó	9	San Antonio Palopo	3	Marzo	2023-07-03T00:00:00	2024-11-08T13:00:00	5	Humedad	63
157985	7	Sololá	712	San Antonio Palopó	9	San Antonio Palopo	3	Marzo	2023-07-03T00:00:00	2024-11-08T13:00:00	6	Velocidad del viento	6.4
157986	7	Sololá	712	San Antonio Palopó	9	San Antonio Palopo	3	Marzo	2023-07-03T00:00:00	2024-11-08T13:00:00	7	Dirección del viento	6.44
157987	7	Sololá	712	San Antonio Palopó	9	San Antonio Palopo	3	Marzo	2023-07-03T00:00:00	2024-11-08T13:00:00	1	Precipitación	0
157988	7	Sololá	712	San Antonio Palopó	9	San Antonio Palopo	3	Marzo	2023-07-03T00:00:00	2024-11-08T13:00:00	8	Radiación solar	683
157989	7	Sololá	712	San Antonio Palopó	9	San Antonio Palopo	3	Marzo	2023-07-03T00:00:00	2024-11-08T14:00:00	2	Temperatura media	22.6
157990	7	Sololá	712	San Antonio Palopó	9	San Antonio Palopo	3	Marzo	2023-07-03T00:00:00	2024-11-08T14:00:00	4	Temperatura máxima	22.9
157991	7	Sololá	712	San Antonio Palopó	9	San Antonio Palopo	3	Marzo	2023-07-03T00:00:00	2024-11-08T14:00:00	3	Temperatura mínima	22.1
157992	7	Sololá	712	San Antonio Palopó	9	San Antonio Palopo	3	Marzo	2023-07-03T00:00:00	2024-11-08T14:00:00	5	Humedad	65
157993	7	Sololá	712	San Antonio Palopó	9	San Antonio Palopo	3	Marzo	2023-07-03T00:00:00	2024-11-08T14:00:00	6	Velocidad del viento	8
157994	7	Sololá	712	San Antonio Palopó	9	San Antonio Palopo	3	Marzo	2023-07-03T00:00:00	2024-11-08T14:00:00	7	Dirección del viento	8.05
157995	7	Sololá	712	San Antonio Palopó	9	San Antonio Palopo	3	Marzo	2023-07-03T00:00:00	2024-11-08T14:00:00	1	Precipitación	0
157996	7	Sololá	712	San Antonio Palopó	9	San Antonio Palopo	3	Marzo	2023-07-03T00:00:00	2024-11-08T14:00:00	8	Radiación solar	619
157997	7	Sololá	712	San Antonio Palopó	9	San Antonio Palopo	3	Marzo	2023-07-03T00:00:00	2024-11-08T15:00:00	2	Temperatura media	22.5
157998	7	Sololá	712	San Antonio Palopó	9	San Antonio Palopo	3	Marzo	2023-07-03T00:00:00	2024-11-08T15:00:00	4	Temperatura máxima	23.1
157999	7	Sololá	712	San Antonio Palopó	9	San Antonio Palopo	3	Marzo	2023-07-03T00:00:00	2024-11-08T15:00:00	3	Temperatura mínima	21.6
158000	7	Sololá	712	San Antonio Palopó	9	San Antonio Palopo	3	Marzo	2023-07-03T00:00:00	2024-11-08T15:00:00	5	Humedad	68
158001	7	Sololá	712	San Antonio Palopó	9	San Antonio Palopo	3	Marzo	2023-07-03T00:00:00	2024-11-08T15:00:00	6	Velocidad del viento	8
158002	7	Sololá	712	San Antonio Palopó	9	San Antonio Palopo	3	Marzo	2023-07-03T00:00:00	2024-11-08T15:00:00	7	Dirección del viento	8.05
158003	7	Sololá	712	San Antonio Palopó	9	San Antonio Palopo	3	Marzo	2023-07-03T00:00:00	2024-11-08T15:00:00	1	Precipitación	0
158004	7	Sololá	712	San Antonio Palopó	9	San Antonio Palopo	3	Marzo	2023-07-03T00:00:00	2024-11-08T15:00:00	8	Radiación solar	560
158005	7	Sololá	712	San Antonio Palopó	9	San Antonio Palopo	3	Marzo	2023-07-03T00:00:00	2024-11-08T16:00:00	2	Temperatura media	21.1
158006	7	Sololá	712	San Antonio Palopó	9	San Antonio Palopo	3	Marzo	2023-07-03T00:00:00	2024-11-08T16:00:00	4	Temperatura máxima	22.5
158007	7	Sololá	712	San Antonio Palopó	9	San Antonio Palopo	3	Marzo	2023-07-03T00:00:00	2024-11-08T16:00:00	3	Temperatura mínima	21.1
158008	7	Sololá	712	San Antonio Palopó	9	San Antonio Palopo	3	Marzo	2023-07-03T00:00:00	2024-11-08T16:00:00	5	Humedad	75
158009	7	Sololá	712	San Antonio Palopó	9	San Antonio Palopo	3	Marzo	2023-07-03T00:00:00	2024-11-08T16:00:00	6	Velocidad del viento	9.7
158010	7	Sololá	712	San Antonio Palopó	9	San Antonio Palopo	3	Marzo	2023-07-03T00:00:00	2024-11-08T16:00:00	7	Dirección del viento	9.66
158011	7	Sololá	712	San Antonio Palopó	9	San Antonio Palopo	3	Marzo	2023-07-03T00:00:00	2024-11-08T16:00:00	1	Precipitación	0
158012	7	Sololá	712	San Antonio Palopó	9	San Antonio Palopo	3	Marzo	2023-07-03T00:00:00	2024-11-08T16:00:00	8	Radiación solar	416
158013	7	Sololá	712	San Antonio Palopó	9	San Antonio Palopo	3	Marzo	2023-07-03T00:00:00	2024-11-08T17:00:00	2	Temperatura media	20.1
158014	7	Sololá	712	San Antonio Palopó	9	San Antonio Palopo	3	Marzo	2023-07-03T00:00:00	2024-11-08T17:00:00	4	Temperatura máxima	21.1
158015	7	Sololá	712	San Antonio Palopó	9	San Antonio Palopo	3	Marzo	2023-07-03T00:00:00	2024-11-08T17:00:00	3	Temperatura mínima	20
158016	7	Sololá	712	San Antonio Palopó	9	San Antonio Palopo	3	Marzo	2023-07-03T00:00:00	2024-11-08T17:00:00	5	Humedad	79
158017	7	Sololá	712	San Antonio Palopó	9	San Antonio Palopo	3	Marzo	2023-07-03T00:00:00	2024-11-08T17:00:00	6	Velocidad del viento	6.4
158018	7	Sololá	712	San Antonio Palopó	9	San Antonio Palopo	3	Marzo	2023-07-03T00:00:00	2024-11-08T17:00:00	7	Dirección del viento	6.44
158019	7	Sololá	712	San Antonio Palopó	9	San Antonio Palopo	3	Marzo	2023-07-03T00:00:00	2024-11-08T17:00:00	1	Precipitación	0
158020	7	Sololá	712	San Antonio Palopó	9	San Antonio Palopo	3	Marzo	2023-07-03T00:00:00	2024-11-08T17:00:00	8	Radiación solar	90
158021	7	Sololá	712	San Antonio Palopó	9	San Antonio Palopo	3	Marzo	2023-07-03T00:00:00	2024-11-08T18:00:00	2	Temperatura media	19.7
158022	7	Sololá	712	San Antonio Palopó	9	San Antonio Palopo	3	Marzo	2023-07-03T00:00:00	2024-11-08T18:00:00	4	Temperatura máxima	20.2
158023	7	Sololá	712	San Antonio Palopó	9	San Antonio Palopo	3	Marzo	2023-07-03T00:00:00	2024-11-08T18:00:00	3	Temperatura mínima	19.7
158024	7	Sololá	712	San Antonio Palopó	9	San Antonio Palopo	3	Marzo	2023-07-03T00:00:00	2024-11-08T18:00:00	5	Humedad	81
158025	7	Sololá	712	San Antonio Palopó	9	San Antonio Palopo	3	Marzo	2023-07-03T00:00:00	2024-11-08T18:00:00	6	Velocidad del viento	4.8
158026	7	Sololá	712	San Antonio Palopó	9	San Antonio Palopo	3	Marzo	2023-07-03T00:00:00	2024-11-08T18:00:00	7	Dirección del viento	4.83
158027	7	Sololá	712	San Antonio Palopó	9	San Antonio Palopo	3	Marzo	2023-07-03T00:00:00	2024-11-08T18:00:00	1	Precipitación	0
158028	7	Sololá	712	San Antonio Palopó	9	San Antonio Palopo	3	Marzo	2023-07-03T00:00:00	2024-11-08T18:00:00	8	Radiación solar	51
158029	7	Sololá	712	San Antonio Palopó	9	San Antonio Palopo	3	Marzo	2023-07-03T00:00:00	2024-11-08T19:00:00	2	Temperatura media	19.2
158030	7	Sololá	712	San Antonio Palopó	9	San Antonio Palopo	3	Marzo	2023-07-03T00:00:00	2024-11-08T19:00:00	4	Temperatura máxima	19.7
158031	7	Sololá	712	San Antonio Palopó	9	San Antonio Palopo	3	Marzo	2023-07-03T00:00:00	2024-11-08T19:00:00	3	Temperatura mínima	19.2
158032	7	Sololá	712	San Antonio Palopó	9	San Antonio Palopo	3	Marzo	2023-07-03T00:00:00	2024-11-08T19:00:00	5	Humedad	84
158033	7	Sololá	712	San Antonio Palopó	9	San Antonio Palopo	3	Marzo	2023-07-03T00:00:00	2024-11-08T19:00:00	6	Velocidad del viento	4.8
158034	7	Sololá	712	San Antonio Palopó	9	San Antonio Palopo	3	Marzo	2023-07-03T00:00:00	2024-11-08T19:00:00	7	Dirección del viento	4.83
158035	7	Sololá	712	San Antonio Palopó	9	San Antonio Palopo	3	Marzo	2023-07-03T00:00:00	2024-11-08T19:00:00	1	Precipitación	0
158036	7	Sololá	712	San Antonio Palopó	9	San Antonio Palopo	3	Marzo	2023-07-03T00:00:00	2024-11-08T19:00:00	8	Radiación solar	0
158037	7	Sololá	712	San Antonio Palopó	9	San Antonio Palopo	3	Marzo	2023-07-03T00:00:00	2024-11-08T20:00:00	2	Temperatura media	19.2
158038	7	Sololá	712	San Antonio Palopó	9	San Antonio Palopo	3	Marzo	2023-07-03T00:00:00	2024-11-08T20:00:00	4	Temperatura máxima	19.2
158039	7	Sololá	712	San Antonio Palopó	9	San Antonio Palopo	3	Marzo	2023-07-03T00:00:00	2024-11-08T20:00:00	3	Temperatura mínima	19.1
158040	7	Sololá	712	San Antonio Palopó	9	San Antonio Palopo	3	Marzo	2023-07-03T00:00:00	2024-11-08T20:00:00	5	Humedad	81
158041	7	Sololá	712	San Antonio Palopó	9	San Antonio Palopo	3	Marzo	2023-07-03T00:00:00	2024-11-08T20:00:00	6	Velocidad del viento	3.2
158042	7	Sololá	712	San Antonio Palopó	9	San Antonio Palopo	3	Marzo	2023-07-03T00:00:00	2024-11-08T20:00:00	7	Dirección del viento	3.22
158043	7	Sololá	712	San Antonio Palopó	9	San Antonio Palopo	3	Marzo	2023-07-03T00:00:00	2024-11-08T20:00:00	1	Precipitación	0
158044	7	Sololá	712	San Antonio Palopó	9	San Antonio Palopo	3	Marzo	2023-07-03T00:00:00	2024-11-08T20:00:00	8	Radiación solar	0
158045	7	Sololá	712	San Antonio Palopó	9	San Antonio Palopo	3	Marzo	2023-07-03T00:00:00	2024-11-08T21:00:00	2	Temperatura media	19.2
158046	7	Sololá	712	San Antonio Palopó	9	San Antonio Palopo	3	Marzo	2023-07-03T00:00:00	2024-11-08T21:00:00	4	Temperatura máxima	19.3
158047	7	Sololá	712	San Antonio Palopó	9	San Antonio Palopo	3	Marzo	2023-07-03T00:00:00	2024-11-08T21:00:00	3	Temperatura mínima	18.9
158048	7	Sololá	712	San Antonio Palopó	9	San Antonio Palopo	3	Marzo	2023-07-03T00:00:00	2024-11-08T21:00:00	5	Humedad	70
158049	7	Sololá	712	San Antonio Palopó	9	San Antonio Palopo	3	Marzo	2023-07-03T00:00:00	2024-11-08T21:00:00	6	Velocidad del viento	3.2
158050	7	Sololá	712	San Antonio Palopó	9	San Antonio Palopo	3	Marzo	2023-07-03T00:00:00	2024-11-08T21:00:00	7	Dirección del viento	3.22
158051	7	Sololá	712	San Antonio Palopó	9	San Antonio Palopo	3	Marzo	2023-07-03T00:00:00	2024-11-08T21:00:00	1	Precipitación	0
158052	7	Sololá	712	San Antonio Palopó	9	San Antonio Palopo	3	Marzo	2023-07-03T00:00:00	2024-11-08T21:00:00	8	Radiación solar	0
158053	7	Sololá	712	San Antonio Palopó	9	San Antonio Palopo	3	Marzo	2023-07-03T00:00:00	2024-11-08T22:00:00	2	Temperatura media	19
158054	7	Sololá	712	San Antonio Palopó	9	San Antonio Palopo	3	Marzo	2023-07-03T00:00:00	2024-11-08T22:00:00	4	Temperatura máxima	19.4
158055	7	Sololá	712	San Antonio Palopó	9	San Antonio Palopo	3	Marzo	2023-07-03T00:00:00	2024-11-08T22:00:00	3	Temperatura mínima	19
158056	7	Sololá	712	San Antonio Palopó	9	San Antonio Palopo	3	Marzo	2023-07-03T00:00:00	2024-11-08T22:00:00	5	Humedad	69
158057	7	Sololá	712	San Antonio Palopó	9	San Antonio Palopo	3	Marzo	2023-07-03T00:00:00	2024-11-08T22:00:00	6	Velocidad del viento	8
158058	7	Sololá	712	San Antonio Palopó	9	San Antonio Palopo	3	Marzo	2023-07-03T00:00:00	2024-11-08T22:00:00	7	Dirección del viento	8.05
158059	7	Sololá	712	San Antonio Palopó	9	San Antonio Palopo	3	Marzo	2023-07-03T00:00:00	2024-11-08T22:00:00	1	Precipitación	0
158060	7	Sololá	712	San Antonio Palopó	9	San Antonio Palopo	3	Marzo	2023-07-03T00:00:00	2024-11-08T22:00:00	8	Radiación solar	0
158061	7	Sololá	712	San Antonio Palopó	9	San Antonio Palopo	3	Marzo	2023-07-03T00:00:00	2024-11-08T23:00:00	2	Temperatura media	18.8
158062	7	Sololá	712	San Antonio Palopó	9	San Antonio Palopo	3	Marzo	2023-07-03T00:00:00	2024-11-08T23:00:00	4	Temperatura máxima	19.1
158063	7	Sololá	712	San Antonio Palopó	9	San Antonio Palopo	3	Marzo	2023-07-03T00:00:00	2024-11-08T23:00:00	3	Temperatura mínima	18.7
158064	7	Sololá	712	San Antonio Palopó	9	San Antonio Palopo	3	Marzo	2023-07-03T00:00:00	2024-11-08T23:00:00	5	Humedad	69
158065	7	Sololá	712	San Antonio Palopó	9	San Antonio Palopo	3	Marzo	2023-07-03T00:00:00	2024-11-08T23:00:00	6	Velocidad del viento	14.5
158066	7	Sololá	712	San Antonio Palopó	9	San Antonio Palopo	3	Marzo	2023-07-03T00:00:00	2024-11-08T23:00:00	7	Dirección del viento	14.48
158067	7	Sololá	712	San Antonio Palopó	9	San Antonio Palopo	3	Marzo	2023-07-03T00:00:00	2024-11-08T23:00:00	1	Precipitación	0
158068	7	Sololá	712	San Antonio Palopó	9	San Antonio Palopo	3	Marzo	2023-07-03T00:00:00	2024-11-08T23:00:00	8	Radiación solar	0
158069	7	Sololá	712	San Antonio Palopó	9	San Antonio Palopo	3	Marzo	2023-08-03T00:00:00	2024-11-08T00:00:00	2	Temperatura media	18.7
158070	7	Sololá	712	San Antonio Palopó	9	San Antonio Palopo	3	Marzo	2023-08-03T00:00:00	2024-11-08T00:00:00	4	Temperatura máxima	18.9
158071	7	Sololá	712	San Antonio Palopó	9	San Antonio Palopo	3	Marzo	2023-08-03T00:00:00	2024-11-08T00:00:00	3	Temperatura mínima	18.6
158072	7	Sololá	712	San Antonio Palopó	9	San Antonio Palopo	3	Marzo	2023-08-03T00:00:00	2024-11-08T00:00:00	5	Humedad	70
158073	7	Sololá	712	San Antonio Palopó	9	San Antonio Palopo	3	Marzo	2023-08-03T00:00:00	2024-11-08T00:00:00	6	Velocidad del viento	14.5
158074	7	Sololá	712	San Antonio Palopó	9	San Antonio Palopo	3	Marzo	2023-08-03T00:00:00	2024-11-08T00:00:00	7	Dirección del viento	14.48
158075	7	Sololá	712	San Antonio Palopó	9	San Antonio Palopo	3	Marzo	2023-08-03T00:00:00	2024-11-08T00:00:00	1	Precipitación	0
158076	7	Sololá	712	San Antonio Palopó	9	San Antonio Palopo	3	Marzo	2023-08-03T00:00:00	2024-11-08T00:00:00	8	Radiación solar	0
158077	7	Sololá	712	San Antonio Palopó	9	San Antonio Palopo	3	Marzo	2023-08-03T00:00:00	2024-11-08T01:00:00	2	Temperatura media	17.9
158078	7	Sololá	712	San Antonio Palopó	9	San Antonio Palopo	3	Marzo	2023-08-03T00:00:00	2024-11-08T01:00:00	4	Temperatura máxima	18.6
158079	7	Sololá	712	San Antonio Palopó	9	San Antonio Palopo	3	Marzo	2023-08-03T00:00:00	2024-11-08T01:00:00	3	Temperatura mínima	17.9
158080	7	Sololá	712	San Antonio Palopó	9	San Antonio Palopo	3	Marzo	2023-08-03T00:00:00	2024-11-08T01:00:00	5	Humedad	71
158081	7	Sololá	712	San Antonio Palopó	9	San Antonio Palopo	3	Marzo	2023-08-03T00:00:00	2024-11-08T01:00:00	6	Velocidad del viento	9.7
158082	7	Sololá	712	San Antonio Palopó	9	San Antonio Palopo	3	Marzo	2023-08-03T00:00:00	2024-11-08T01:00:00	7	Dirección del viento	9.66
158083	7	Sololá	712	San Antonio Palopó	9	San Antonio Palopo	3	Marzo	2023-08-03T00:00:00	2024-11-08T01:00:00	1	Precipitación	0
158084	7	Sololá	712	San Antonio Palopó	9	San Antonio Palopo	3	Marzo	2023-08-03T00:00:00	2024-11-08T01:00:00	8	Radiación solar	0
158085	7	Sololá	712	San Antonio Palopó	9	San Antonio Palopo	3	Marzo	2023-08-03T00:00:00	2024-11-08T02:00:00	2	Temperatura media	17.8
158086	7	Sololá	712	San Antonio Palopó	9	San Antonio Palopo	3	Marzo	2023-08-03T00:00:00	2024-11-08T02:00:00	4	Temperatura máxima	18.1
158087	7	Sololá	712	San Antonio Palopó	9	San Antonio Palopo	3	Marzo	2023-08-03T00:00:00	2024-11-08T02:00:00	3	Temperatura mínima	17.8
158088	7	Sololá	712	San Antonio Palopó	9	San Antonio Palopo	3	Marzo	2023-08-03T00:00:00	2024-11-08T02:00:00	5	Humedad	72
158089	7	Sololá	712	San Antonio Palopó	9	San Antonio Palopo	3	Marzo	2023-08-03T00:00:00	2024-11-08T02:00:00	6	Velocidad del viento	4.8
158090	7	Sololá	712	San Antonio Palopó	9	San Antonio Palopo	3	Marzo	2023-08-03T00:00:00	2024-11-08T02:00:00	7	Dirección del viento	4.83
158091	7	Sololá	712	San Antonio Palopó	9	San Antonio Palopo	3	Marzo	2023-08-03T00:00:00	2024-11-08T02:00:00	1	Precipitación	0
158092	7	Sololá	712	San Antonio Palopó	9	San Antonio Palopo	3	Marzo	2023-08-03T00:00:00	2024-11-08T02:00:00	8	Radiación solar	0
158093	7	Sololá	712	San Antonio Palopó	9	San Antonio Palopo	3	Marzo	2023-08-03T00:00:00	2024-11-08T03:00:00	2	Temperatura media	17.7
158094	7	Sololá	712	San Antonio Palopó	9	San Antonio Palopo	3	Marzo	2023-08-03T00:00:00	2024-11-08T03:00:00	4	Temperatura máxima	17.9
158095	7	Sololá	712	San Antonio Palopó	9	San Antonio Palopo	3	Marzo	2023-08-03T00:00:00	2024-11-08T03:00:00	3	Temperatura mínima	17.7
158096	7	Sololá	712	San Antonio Palopó	9	San Antonio Palopo	3	Marzo	2023-08-03T00:00:00	2024-11-08T03:00:00	5	Humedad	72
158097	7	Sololá	712	San Antonio Palopó	9	San Antonio Palopo	3	Marzo	2023-08-03T00:00:00	2024-11-08T03:00:00	6	Velocidad del viento	3.2
158098	7	Sololá	712	San Antonio Palopó	9	San Antonio Palopo	3	Marzo	2023-08-03T00:00:00	2024-11-08T03:00:00	7	Dirección del viento	3.22
158099	7	Sololá	712	San Antonio Palopó	9	San Antonio Palopo	3	Marzo	2023-08-03T00:00:00	2024-11-08T03:00:00	1	Precipitación	0
158100	7	Sololá	712	San Antonio Palopó	9	San Antonio Palopo	3	Marzo	2023-08-03T00:00:00	2024-11-08T03:00:00	8	Radiación solar	0
158101	7	Sololá	712	San Antonio Palopó	9	San Antonio Palopo	3	Marzo	2023-08-03T00:00:00	2024-11-08T04:00:00	2	Temperatura media	17.4
158102	7	Sololá	712	San Antonio Palopó	9	San Antonio Palopo	3	Marzo	2023-08-03T00:00:00	2024-11-08T04:00:00	4	Temperatura máxima	17.7
158103	7	Sololá	712	San Antonio Palopó	9	San Antonio Palopo	3	Marzo	2023-08-03T00:00:00	2024-11-08T04:00:00	3	Temperatura mínima	17.4
158104	7	Sololá	712	San Antonio Palopó	9	San Antonio Palopo	3	Marzo	2023-08-03T00:00:00	2024-11-08T04:00:00	5	Humedad	75
158105	7	Sololá	712	San Antonio Palopó	9	San Antonio Palopo	3	Marzo	2023-08-03T00:00:00	2024-11-08T04:00:00	6	Velocidad del viento	3.2
158106	7	Sololá	712	San Antonio Palopó	9	San Antonio Palopo	3	Marzo	2023-08-03T00:00:00	2024-11-08T04:00:00	7	Dirección del viento	3.22
158107	7	Sololá	712	San Antonio Palopó	9	San Antonio Palopo	3	Marzo	2023-08-03T00:00:00	2024-11-08T04:00:00	1	Precipitación	0
158108	7	Sololá	712	San Antonio Palopó	9	San Antonio Palopo	3	Marzo	2023-08-03T00:00:00	2024-11-08T04:00:00	8	Radiación solar	0
158109	7	Sololá	712	San Antonio Palopó	9	San Antonio Palopo	3	Marzo	2023-08-03T00:00:00	2024-11-08T05:00:00	2	Temperatura media	17.5
158110	7	Sololá	712	San Antonio Palopó	9	San Antonio Palopo	3	Marzo	2023-08-03T00:00:00	2024-11-08T05:00:00	4	Temperatura máxima	17.6
158111	7	Sololá	712	San Antonio Palopó	9	San Antonio Palopo	3	Marzo	2023-08-03T00:00:00	2024-11-08T05:00:00	3	Temperatura mínima	17.3
158112	7	Sololá	712	San Antonio Palopó	9	San Antonio Palopo	3	Marzo	2023-08-03T00:00:00	2024-11-08T05:00:00	5	Humedad	75
158113	7	Sololá	712	San Antonio Palopó	9	San Antonio Palopo	3	Marzo	2023-08-03T00:00:00	2024-11-08T05:00:00	6	Velocidad del viento	1.6
158114	7	Sololá	712	San Antonio Palopó	9	San Antonio Palopo	3	Marzo	2023-08-03T00:00:00	2024-11-08T05:00:00	7	Dirección del viento	1.61
158115	7	Sololá	712	San Antonio Palopó	9	San Antonio Palopo	3	Marzo	2023-08-03T00:00:00	2024-11-08T05:00:00	1	Precipitación	0
158116	7	Sololá	712	San Antonio Palopó	9	San Antonio Palopo	3	Marzo	2023-08-03T00:00:00	2024-11-08T05:00:00	8	Radiación solar	0
158117	7	Sololá	712	San Antonio Palopó	9	San Antonio Palopo	3	Marzo	2023-08-03T00:00:00	2024-11-08T06:00:00	2	Temperatura media	17.1
158118	7	Sololá	712	San Antonio Palopó	9	San Antonio Palopo	3	Marzo	2023-08-03T00:00:00	2024-11-08T06:00:00	4	Temperatura máxima	17.6
158119	7	Sololá	712	San Antonio Palopó	9	San Antonio Palopo	3	Marzo	2023-08-03T00:00:00	2024-11-08T06:00:00	3	Temperatura mínima	17.1
158120	7	Sololá	712	San Antonio Palopó	9	San Antonio Palopo	3	Marzo	2023-08-03T00:00:00	2024-11-08T06:00:00	5	Humedad	74
158121	7	Sololá	712	San Antonio Palopó	9	San Antonio Palopo	3	Marzo	2023-08-03T00:00:00	2024-11-08T06:00:00	6	Velocidad del viento	4.8
158122	7	Sololá	712	San Antonio Palopó	9	San Antonio Palopo	3	Marzo	2023-08-03T00:00:00	2024-11-08T06:00:00	7	Dirección del viento	4.83
158123	7	Sololá	712	San Antonio Palopó	9	San Antonio Palopo	3	Marzo	2023-08-03T00:00:00	2024-11-08T06:00:00	1	Precipitación	0
158124	7	Sololá	712	San Antonio Palopó	9	San Antonio Palopo	3	Marzo	2023-08-03T00:00:00	2024-11-08T06:00:00	8	Radiación solar	0
158125	7	Sololá	712	San Antonio Palopó	9	San Antonio Palopo	3	Marzo	2023-08-03T00:00:00	2024-11-08T07:00:00	2	Temperatura media	16.8
158126	7	Sololá	712	San Antonio Palopó	9	San Antonio Palopo	3	Marzo	2023-08-03T00:00:00	2024-11-08T07:00:00	4	Temperatura máxima	17.1
158127	7	Sololá	712	San Antonio Palopó	9	San Antonio Palopo	3	Marzo	2023-08-03T00:00:00	2024-11-08T07:00:00	3	Temperatura mínima	16.7
158128	7	Sololá	712	San Antonio Palopó	9	San Antonio Palopo	3	Marzo	2023-08-03T00:00:00	2024-11-08T07:00:00	5	Humedad	74
158129	7	Sololá	712	San Antonio Palopó	9	San Antonio Palopo	3	Marzo	2023-08-03T00:00:00	2024-11-08T07:00:00	6	Velocidad del viento	4.8
158130	7	Sololá	712	San Antonio Palopó	9	San Antonio Palopo	3	Marzo	2023-08-03T00:00:00	2024-11-08T07:00:00	7	Dirección del viento	4.83
158131	7	Sololá	712	San Antonio Palopó	9	San Antonio Palopo	3	Marzo	2023-08-03T00:00:00	2024-11-08T07:00:00	1	Precipitación	0
158132	7	Sololá	712	San Antonio Palopó	9	San Antonio Palopo	3	Marzo	2023-08-03T00:00:00	2024-11-08T07:00:00	8	Radiación solar	4
158133	7	Sololá	712	San Antonio Palopó	9	San Antonio Palopo	3	Marzo	2023-08-03T00:00:00	2024-11-08T08:00:00	2	Temperatura media	17.6
158134	7	Sololá	712	San Antonio Palopó	9	San Antonio Palopo	3	Marzo	2023-08-03T00:00:00	2024-11-08T08:00:00	4	Temperatura máxima	17.6
158135	7	Sololá	712	San Antonio Palopó	9	San Antonio Palopo	3	Marzo	2023-08-03T00:00:00	2024-11-08T08:00:00	3	Temperatura mínima	16.8
158136	7	Sololá	712	San Antonio Palopó	9	San Antonio Palopo	3	Marzo	2023-08-03T00:00:00	2024-11-08T08:00:00	5	Humedad	71
158137	7	Sololá	712	San Antonio Palopó	9	San Antonio Palopo	3	Marzo	2023-08-03T00:00:00	2024-11-08T08:00:00	6	Velocidad del viento	8
158138	7	Sololá	712	San Antonio Palopó	9	San Antonio Palopo	3	Marzo	2023-08-03T00:00:00	2024-11-08T08:00:00	7	Dirección del viento	8.05
158139	7	Sololá	712	San Antonio Palopó	9	San Antonio Palopo	3	Marzo	2023-08-03T00:00:00	2024-11-08T08:00:00	1	Precipitación	0
158140	7	Sololá	712	San Antonio Palopó	9	San Antonio Palopo	3	Marzo	2023-08-03T00:00:00	2024-11-08T08:00:00	8	Radiación solar	80
158141	7	Sololá	712	San Antonio Palopó	9	San Antonio Palopo	3	Marzo	2023-08-03T00:00:00	2024-11-08T09:00:00	2	Temperatura media	19.4
158142	7	Sololá	712	San Antonio Palopó	9	San Antonio Palopo	3	Marzo	2023-08-03T00:00:00	2024-11-08T09:00:00	4	Temperatura máxima	19.6
158143	7	Sololá	712	San Antonio Palopó	9	San Antonio Palopo	3	Marzo	2023-08-03T00:00:00	2024-11-08T09:00:00	3	Temperatura mínima	17.6
158144	7	Sololá	712	San Antonio Palopó	9	San Antonio Palopo	3	Marzo	2023-08-03T00:00:00	2024-11-08T09:00:00	5	Humedad	72
158145	7	Sololá	712	San Antonio Palopó	9	San Antonio Palopo	3	Marzo	2023-08-03T00:00:00	2024-11-08T09:00:00	6	Velocidad del viento	3.2
158146	7	Sololá	712	San Antonio Palopó	9	San Antonio Palopo	3	Marzo	2023-08-03T00:00:00	2024-11-08T09:00:00	7	Dirección del viento	3.22
158147	7	Sololá	712	San Antonio Palopó	9	San Antonio Palopo	3	Marzo	2023-08-03T00:00:00	2024-11-08T09:00:00	1	Precipitación	0
158148	7	Sololá	712	San Antonio Palopó	9	San Antonio Palopo	3	Marzo	2023-08-03T00:00:00	2024-11-08T09:00:00	8	Radiación solar	193
158149	7	Sololá	712	San Antonio Palopó	9	San Antonio Palopo	3	Marzo	2023-08-03T00:00:00	2024-11-08T10:00:00	2	Temperatura media	20.3
158150	7	Sololá	712	San Antonio Palopó	9	San Antonio Palopo	3	Marzo	2023-08-03T00:00:00	2024-11-08T10:00:00	4	Temperatura máxima	20.4
158151	7	Sololá	712	San Antonio Palopó	9	San Antonio Palopo	3	Marzo	2023-08-03T00:00:00	2024-11-08T10:00:00	3	Temperatura mínima	19.3
158152	7	Sololá	712	San Antonio Palopó	9	San Antonio Palopo	3	Marzo	2023-08-03T00:00:00	2024-11-08T10:00:00	5	Humedad	72
158153	7	Sololá	712	San Antonio Palopó	9	San Antonio Palopo	3	Marzo	2023-08-03T00:00:00	2024-11-08T10:00:00	6	Velocidad del viento	3.2
158154	7	Sololá	712	San Antonio Palopó	9	San Antonio Palopo	3	Marzo	2023-08-03T00:00:00	2024-11-08T10:00:00	7	Dirección del viento	3.22
158155	7	Sololá	712	San Antonio Palopó	9	San Antonio Palopo	3	Marzo	2023-08-03T00:00:00	2024-11-08T10:00:00	1	Precipitación	0
158156	7	Sololá	712	San Antonio Palopó	9	San Antonio Palopo	3	Marzo	2023-08-03T00:00:00	2024-11-08T10:00:00	8	Radiación solar	583
158157	7	Sololá	712	San Antonio Palopó	9	San Antonio Palopo	3	Marzo	2023-08-03T00:00:00	2024-11-08T11:00:00	2	Temperatura media	20.9
158158	7	Sololá	712	San Antonio Palopó	9	San Antonio Palopo	3	Marzo	2023-08-03T00:00:00	2024-11-08T11:00:00	4	Temperatura máxima	21.1
158159	7	Sololá	712	San Antonio Palopó	9	San Antonio Palopo	3	Marzo	2023-08-03T00:00:00	2024-11-08T11:00:00	3	Temperatura mínima	20.3
158160	7	Sololá	712	San Antonio Palopó	9	San Antonio Palopo	3	Marzo	2023-08-03T00:00:00	2024-11-08T11:00:00	5	Humedad	71
158161	7	Sololá	712	San Antonio Palopó	9	San Antonio Palopo	3	Marzo	2023-08-03T00:00:00	2024-11-08T11:00:00	6	Velocidad del viento	4.8
158162	7	Sololá	712	San Antonio Palopó	9	San Antonio Palopo	3	Marzo	2023-08-03T00:00:00	2024-11-08T11:00:00	7	Dirección del viento	4.83
158163	7	Sololá	712	San Antonio Palopó	9	San Antonio Palopo	3	Marzo	2023-08-03T00:00:00	2024-11-08T11:00:00	1	Precipitación	0
158164	7	Sololá	712	San Antonio Palopó	9	San Antonio Palopo	3	Marzo	2023-08-03T00:00:00	2024-11-08T11:00:00	8	Radiación solar	764
158165	7	Sololá	712	San Antonio Palopó	9	San Antonio Palopo	3	Marzo	2023-08-03T00:00:00	2024-11-08T12:00:00	2	Temperatura media	22.1
158166	7	Sololá	712	San Antonio Palopó	9	San Antonio Palopo	3	Marzo	2023-08-03T00:00:00	2024-11-08T12:00:00	4	Temperatura máxima	22.2
158167	7	Sololá	712	San Antonio Palopó	9	San Antonio Palopo	3	Marzo	2023-08-03T00:00:00	2024-11-08T12:00:00	3	Temperatura mínima	20.9
158168	7	Sololá	712	San Antonio Palopó	9	San Antonio Palopo	3	Marzo	2023-08-03T00:00:00	2024-11-08T12:00:00	5	Humedad	65
158169	7	Sololá	712	San Antonio Palopó	9	San Antonio Palopo	3	Marzo	2023-08-03T00:00:00	2024-11-08T12:00:00	6	Velocidad del viento	8
158170	7	Sololá	712	San Antonio Palopó	9	San Antonio Palopo	3	Marzo	2023-08-03T00:00:00	2024-11-08T12:00:00	7	Dirección del viento	8.05
158171	7	Sololá	712	San Antonio Palopó	9	San Antonio Palopo	3	Marzo	2023-08-03T00:00:00	2024-11-08T12:00:00	1	Precipitación	0
158172	7	Sololá	712	San Antonio Palopó	9	San Antonio Palopo	3	Marzo	2023-08-03T00:00:00	2024-11-08T12:00:00	8	Radiación solar	849
158173	7	Sololá	712	San Antonio Palopó	9	San Antonio Palopo	3	Marzo	2023-08-03T00:00:00	2024-11-08T13:00:00	2	Temperatura media	21.8
158174	7	Sololá	712	San Antonio Palopó	9	San Antonio Palopo	3	Marzo	2023-08-03T00:00:00	2024-11-08T13:00:00	4	Temperatura máxima	22.1
158175	7	Sololá	712	San Antonio Palopó	9	San Antonio Palopo	3	Marzo	2023-08-03T00:00:00	2024-11-08T13:00:00	3	Temperatura mínima	21.4
158176	7	Sololá	712	San Antonio Palopó	9	San Antonio Palopo	3	Marzo	2023-08-03T00:00:00	2024-11-08T13:00:00	5	Humedad	65
158177	7	Sololá	712	San Antonio Palopó	9	San Antonio Palopo	3	Marzo	2023-08-03T00:00:00	2024-11-08T13:00:00	6	Velocidad del viento	11.3
158178	7	Sololá	712	San Antonio Palopó	9	San Antonio Palopo	3	Marzo	2023-08-03T00:00:00	2024-11-08T13:00:00	7	Dirección del viento	11.27
158179	7	Sololá	712	San Antonio Palopó	9	San Antonio Palopo	3	Marzo	2023-08-03T00:00:00	2024-11-08T13:00:00	1	Precipitación	0
158180	7	Sololá	712	San Antonio Palopó	9	San Antonio Palopo	3	Marzo	2023-08-03T00:00:00	2024-11-08T13:00:00	8	Radiación solar	863
158181	7	Sololá	712	San Antonio Palopó	9	San Antonio Palopo	3	Marzo	2023-08-03T00:00:00	2024-11-08T14:00:00	2	Temperatura media	20.8
158182	7	Sololá	712	San Antonio Palopó	9	San Antonio Palopo	3	Marzo	2023-08-03T00:00:00	2024-11-08T14:00:00	4	Temperatura máxima	21.8
158183	7	Sololá	712	San Antonio Palopó	9	San Antonio Palopo	3	Marzo	2023-08-03T00:00:00	2024-11-08T14:00:00	3	Temperatura mínima	20.8
158184	7	Sololá	712	San Antonio Palopó	9	San Antonio Palopo	3	Marzo	2023-08-03T00:00:00	2024-11-08T14:00:00	5	Humedad	70
158185	7	Sololá	712	San Antonio Palopó	9	San Antonio Palopo	3	Marzo	2023-08-03T00:00:00	2024-11-08T14:00:00	6	Velocidad del viento	12.9
158186	7	Sololá	712	San Antonio Palopó	9	San Antonio Palopo	3	Marzo	2023-08-03T00:00:00	2024-11-08T14:00:00	7	Dirección del viento	12.87
158187	7	Sololá	712	San Antonio Palopó	9	San Antonio Palopo	3	Marzo	2023-08-03T00:00:00	2024-11-08T14:00:00	1	Precipitación	0
158188	7	Sololá	712	San Antonio Palopó	9	San Antonio Palopo	3	Marzo	2023-08-03T00:00:00	2024-11-08T14:00:00	8	Radiación solar	572
158189	7	Sololá	712	San Antonio Palopó	9	San Antonio Palopo	3	Marzo	2023-08-03T00:00:00	2024-11-08T15:00:00	2	Temperatura media	20.6
158190	7	Sololá	712	San Antonio Palopó	9	San Antonio Palopo	3	Marzo	2023-08-03T00:00:00	2024-11-08T15:00:00	4	Temperatura máxima	20.8
158191	7	Sololá	712	San Antonio Palopó	9	San Antonio Palopo	3	Marzo	2023-08-03T00:00:00	2024-11-08T15:00:00	3	Temperatura mínima	20.3
158192	7	Sololá	712	San Antonio Palopó	9	San Antonio Palopo	3	Marzo	2023-08-03T00:00:00	2024-11-08T15:00:00	5	Humedad	72
158193	7	Sololá	712	San Antonio Palopó	9	San Antonio Palopo	3	Marzo	2023-08-03T00:00:00	2024-11-08T15:00:00	6	Velocidad del viento	11.3
158194	7	Sololá	712	San Antonio Palopó	9	San Antonio Palopo	3	Marzo	2023-08-03T00:00:00	2024-11-08T15:00:00	7	Dirección del viento	11.27
158195	7	Sololá	712	San Antonio Palopó	9	San Antonio Palopo	3	Marzo	2023-08-03T00:00:00	2024-11-08T15:00:00	1	Precipitación	0
158196	7	Sololá	712	San Antonio Palopó	9	San Antonio Palopo	3	Marzo	2023-08-03T00:00:00	2024-11-08T15:00:00	8	Radiación solar	364
158197	7	Sololá	712	San Antonio Palopó	9	San Antonio Palopo	3	Marzo	2023-08-03T00:00:00	2024-11-08T16:00:00	2	Temperatura media	20.3
158198	7	Sololá	712	San Antonio Palopó	9	San Antonio Palopo	3	Marzo	2023-08-03T00:00:00	2024-11-08T16:00:00	4	Temperatura máxima	20.8
158199	7	Sololá	712	San Antonio Palopó	9	San Antonio Palopo	3	Marzo	2023-08-03T00:00:00	2024-11-08T16:00:00	3	Temperatura mínima	20.1
158200	7	Sololá	712	San Antonio Palopó	9	San Antonio Palopo	3	Marzo	2023-08-03T00:00:00	2024-11-08T16:00:00	5	Humedad	72
158201	7	Sololá	712	San Antonio Palopó	9	San Antonio Palopo	3	Marzo	2023-08-03T00:00:00	2024-11-08T16:00:00	6	Velocidad del viento	6.4
158202	7	Sololá	712	San Antonio Palopó	9	San Antonio Palopo	3	Marzo	2023-08-03T00:00:00	2024-11-08T16:00:00	7	Dirección del viento	6.44
158203	7	Sololá	712	San Antonio Palopó	9	San Antonio Palopo	3	Marzo	2023-08-03T00:00:00	2024-11-08T16:00:00	1	Precipitación	0
158204	7	Sololá	712	San Antonio Palopó	9	San Antonio Palopo	3	Marzo	2023-08-03T00:00:00	2024-11-08T16:00:00	8	Radiación solar	193
158205	7	Sololá	712	San Antonio Palopó	9	San Antonio Palopo	3	Marzo	2023-08-03T00:00:00	2024-11-08T17:00:00	2	Temperatura media	19.3
158206	7	Sololá	712	San Antonio Palopó	9	San Antonio Palopo	3	Marzo	2023-08-03T00:00:00	2024-11-08T17:00:00	4	Temperatura máxima	21.1
158207	7	Sololá	712	San Antonio Palopó	9	San Antonio Palopo	3	Marzo	2023-08-03T00:00:00	2024-11-08T17:00:00	3	Temperatura mínima	19.3
158208	7	Sololá	712	San Antonio Palopó	9	San Antonio Palopo	3	Marzo	2023-08-03T00:00:00	2024-11-08T17:00:00	5	Humedad	78
158209	7	Sololá	712	San Antonio Palopó	9	San Antonio Palopo	3	Marzo	2023-08-03T00:00:00	2024-11-08T17:00:00	6	Velocidad del viento	6.4
158210	7	Sololá	712	San Antonio Palopó	9	San Antonio Palopo	3	Marzo	2023-08-03T00:00:00	2024-11-08T17:00:00	7	Dirección del viento	6.44
158211	7	Sololá	712	San Antonio Palopó	9	San Antonio Palopo	3	Marzo	2023-08-03T00:00:00	2024-11-08T17:00:00	1	Precipitación	0
158212	7	Sololá	712	San Antonio Palopó	9	San Antonio Palopo	3	Marzo	2023-08-03T00:00:00	2024-11-08T17:00:00	8	Radiación solar	136
158213	7	Sololá	712	San Antonio Palopó	9	San Antonio Palopo	3	Marzo	2023-08-03T00:00:00	2024-11-08T18:00:00	2	Temperatura media	19.2
158214	7	Sololá	712	San Antonio Palopó	9	San Antonio Palopo	3	Marzo	2023-08-03T00:00:00	2024-11-08T18:00:00	4	Temperatura máxima	19.4
158215	7	Sololá	712	San Antonio Palopó	9	San Antonio Palopo	3	Marzo	2023-08-03T00:00:00	2024-11-08T18:00:00	3	Temperatura mínima	19.2
158216	7	Sololá	712	San Antonio Palopó	9	San Antonio Palopo	3	Marzo	2023-08-03T00:00:00	2024-11-08T18:00:00	5	Humedad	78
158217	7	Sololá	712	San Antonio Palopó	9	San Antonio Palopo	3	Marzo	2023-08-03T00:00:00	2024-11-08T18:00:00	6	Velocidad del viento	4.8
158218	7	Sololá	712	San Antonio Palopó	9	San Antonio Palopo	3	Marzo	2023-08-03T00:00:00	2024-11-08T18:00:00	7	Dirección del viento	4.83
158219	7	Sololá	712	San Antonio Palopó	9	San Antonio Palopo	3	Marzo	2023-08-03T00:00:00	2024-11-08T18:00:00	1	Precipitación	0
158220	7	Sololá	712	San Antonio Palopó	9	San Antonio Palopo	3	Marzo	2023-08-03T00:00:00	2024-11-08T18:00:00	8	Radiación solar	50
158221	7	Sololá	712	San Antonio Palopó	9	San Antonio Palopo	3	Marzo	2023-08-03T00:00:00	2024-11-08T19:00:00	2	Temperatura media	18.8
158222	7	Sololá	712	San Antonio Palopó	9	San Antonio Palopo	3	Marzo	2023-08-03T00:00:00	2024-11-08T19:00:00	4	Temperatura máxima	19.3
158223	7	Sololá	712	San Antonio Palopó	9	San Antonio Palopo	3	Marzo	2023-08-03T00:00:00	2024-11-08T19:00:00	3	Temperatura mínima	18.8
158224	7	Sololá	712	San Antonio Palopó	9	San Antonio Palopo	3	Marzo	2023-08-03T00:00:00	2024-11-08T19:00:00	5	Humedad	80
158225	7	Sololá	712	San Antonio Palopó	9	San Antonio Palopo	3	Marzo	2023-08-03T00:00:00	2024-11-08T19:00:00	6	Velocidad del viento	3.2
158226	7	Sololá	712	San Antonio Palopó	9	San Antonio Palopo	3	Marzo	2023-08-03T00:00:00	2024-11-08T19:00:00	7	Dirección del viento	3.22
158227	7	Sololá	712	San Antonio Palopó	9	San Antonio Palopo	3	Marzo	2023-08-03T00:00:00	2024-11-08T19:00:00	1	Precipitación	0
158228	7	Sololá	712	San Antonio Palopó	9	San Antonio Palopo	3	Marzo	2023-08-03T00:00:00	2024-11-08T19:00:00	8	Radiación solar	0
158229	7	Sololá	712	San Antonio Palopó	9	San Antonio Palopo	3	Marzo	2023-08-03T00:00:00	2024-11-08T20:00:00	2	Temperatura media	18.3
158230	7	Sololá	712	San Antonio Palopó	9	San Antonio Palopo	3	Marzo	2023-08-03T00:00:00	2024-11-08T20:00:00	4	Temperatura máxima	18.9
158231	7	Sololá	712	San Antonio Palopó	9	San Antonio Palopo	3	Marzo	2023-08-03T00:00:00	2024-11-08T20:00:00	3	Temperatura mínima	18.3
158232	7	Sololá	712	San Antonio Palopó	9	San Antonio Palopo	3	Marzo	2023-08-03T00:00:00	2024-11-08T20:00:00	5	Humedad	80
158233	7	Sololá	712	San Antonio Palopó	9	San Antonio Palopo	3	Marzo	2023-08-03T00:00:00	2024-11-08T20:00:00	6	Velocidad del viento	1.6
158234	7	Sololá	712	San Antonio Palopó	9	San Antonio Palopo	3	Marzo	2023-08-03T00:00:00	2024-11-08T20:00:00	7	Dirección del viento	1.61
158235	7	Sololá	712	San Antonio Palopó	9	San Antonio Palopo	3	Marzo	2023-08-03T00:00:00	2024-11-08T20:00:00	1	Precipitación	0
158236	7	Sololá	712	San Antonio Palopó	9	San Antonio Palopo	3	Marzo	2023-08-03T00:00:00	2024-11-08T20:00:00	8	Radiación solar	0
158237	7	Sololá	712	San Antonio Palopó	9	San Antonio Palopo	3	Marzo	2023-08-03T00:00:00	2024-11-08T21:00:00	2	Temperatura media	18
158238	7	Sololá	712	San Antonio Palopó	9	San Antonio Palopo	3	Marzo	2023-08-03T00:00:00	2024-11-08T21:00:00	4	Temperatura máxima	18.4
158239	7	Sololá	712	San Antonio Palopó	9	San Antonio Palopo	3	Marzo	2023-08-03T00:00:00	2024-11-08T21:00:00	3	Temperatura mínima	18
158240	7	Sololá	712	San Antonio Palopó	9	San Antonio Palopo	3	Marzo	2023-08-03T00:00:00	2024-11-08T21:00:00	5	Humedad	80
158241	7	Sololá	712	San Antonio Palopó	9	San Antonio Palopo	3	Marzo	2023-08-03T00:00:00	2024-11-08T21:00:00	6	Velocidad del viento	3.2
158242	7	Sololá	712	San Antonio Palopó	9	San Antonio Palopo	3	Marzo	2023-08-03T00:00:00	2024-11-08T21:00:00	7	Dirección del viento	3.22
158243	7	Sololá	712	San Antonio Palopó	9	San Antonio Palopo	3	Marzo	2023-08-03T00:00:00	2024-11-08T21:00:00	1	Precipitación	0
158244	7	Sololá	712	San Antonio Palopó	9	San Antonio Palopo	3	Marzo	2023-08-03T00:00:00	2024-11-08T21:00:00	8	Radiación solar	0
158245	7	Sololá	712	San Antonio Palopó	9	San Antonio Palopo	3	Marzo	2023-08-03T00:00:00	2024-11-08T22:00:00	2	Temperatura media	18.2
158246	7	Sololá	712	San Antonio Palopó	9	San Antonio Palopo	3	Marzo	2023-08-03T00:00:00	2024-11-08T22:00:00	4	Temperatura máxima	18.3
158247	7	Sololá	712	San Antonio Palopó	9	San Antonio Palopo	3	Marzo	2023-08-03T00:00:00	2024-11-08T22:00:00	3	Temperatura mínima	18
158248	7	Sololá	712	San Antonio Palopó	9	San Antonio Palopo	3	Marzo	2023-08-03T00:00:00	2024-11-08T22:00:00	5	Humedad	82
158249	7	Sololá	712	San Antonio Palopó	9	San Antonio Palopo	3	Marzo	2023-08-03T00:00:00	2024-11-08T22:00:00	6	Velocidad del viento	1.6
158250	7	Sololá	712	San Antonio Palopó	9	San Antonio Palopo	3	Marzo	2023-08-03T00:00:00	2024-11-08T22:00:00	7	Dirección del viento	1.61
158251	7	Sololá	712	San Antonio Palopó	9	San Antonio Palopo	3	Marzo	2023-08-03T00:00:00	2024-11-08T22:00:00	1	Precipitación	0
158252	7	Sololá	712	San Antonio Palopó	9	San Antonio Palopo	3	Marzo	2023-08-03T00:00:00	2024-11-08T22:00:00	8	Radiación solar	0
158253	7	Sololá	712	San Antonio Palopó	9	San Antonio Palopo	3	Marzo	2023-08-03T00:00:00	2024-11-08T23:00:00	2	Temperatura media	17.9
158254	7	Sololá	712	San Antonio Palopó	9	San Antonio Palopo	3	Marzo	2023-08-03T00:00:00	2024-11-08T23:00:00	4	Temperatura máxima	18.2
158255	7	Sololá	712	San Antonio Palopó	9	San Antonio Palopo	3	Marzo	2023-08-03T00:00:00	2024-11-08T23:00:00	3	Temperatura mínima	17.8
158256	7	Sololá	712	San Antonio Palopó	9	San Antonio Palopo	3	Marzo	2023-08-03T00:00:00	2024-11-08T23:00:00	5	Humedad	83
158257	7	Sololá	712	San Antonio Palopó	9	San Antonio Palopo	3	Marzo	2023-08-03T00:00:00	2024-11-08T23:00:00	6	Velocidad del viento	3.2
158258	7	Sololá	712	San Antonio Palopó	9	San Antonio Palopo	3	Marzo	2023-08-03T00:00:00	2024-11-08T23:00:00	7	Dirección del viento	3.22
158259	7	Sololá	712	San Antonio Palopó	9	San Antonio Palopo	3	Marzo	2023-08-03T00:00:00	2024-11-08T23:00:00	1	Precipitación	0
158260	7	Sololá	712	San Antonio Palopó	9	San Antonio Palopo	3	Marzo	2023-08-03T00:00:00	2024-11-08T23:00:00	8	Radiación solar	0
158261	7	Sololá	712	San Antonio Palopó	9	San Antonio Palopo	3	Marzo	2023-09-03T00:00:00	2024-11-08T00:00:00	2	Temperatura media	17.7
158262	7	Sololá	712	San Antonio Palopó	9	San Antonio Palopo	3	Marzo	2023-09-03T00:00:00	2024-11-08T00:00:00	4	Temperatura máxima	17.9
158263	7	Sololá	712	San Antonio Palopó	9	San Antonio Palopo	3	Marzo	2023-09-03T00:00:00	2024-11-08T00:00:00	3	Temperatura mínima	17.7
158264	7	Sololá	712	San Antonio Palopó	9	San Antonio Palopo	3	Marzo	2023-09-03T00:00:00	2024-11-08T00:00:00	5	Humedad	74
158265	7	Sololá	712	San Antonio Palopó	9	San Antonio Palopo	3	Marzo	2023-09-03T00:00:00	2024-11-08T00:00:00	6	Velocidad del viento	8
158266	7	Sololá	712	San Antonio Palopó	9	San Antonio Palopo	3	Marzo	2023-09-03T00:00:00	2024-11-08T00:00:00	7	Dirección del viento	8.05
158267	7	Sololá	712	San Antonio Palopó	9	San Antonio Palopo	3	Marzo	2023-09-03T00:00:00	2024-11-08T00:00:00	1	Precipitación	0
158268	7	Sololá	712	San Antonio Palopó	9	San Antonio Palopo	3	Marzo	2023-09-03T00:00:00	2024-11-08T00:00:00	8	Radiación solar	0
158269	7	Sololá	712	San Antonio Palopó	9	San Antonio Palopo	3	Marzo	2023-09-03T00:00:00	2024-11-08T01:00:00	2	Temperatura media	17.3
158270	7	Sololá	712	San Antonio Palopó	9	San Antonio Palopo	3	Marzo	2023-09-03T00:00:00	2024-11-08T01:00:00	4	Temperatura máxima	17.8
158271	7	Sololá	712	San Antonio Palopó	9	San Antonio Palopo	3	Marzo	2023-09-03T00:00:00	2024-11-08T01:00:00	3	Temperatura mínima	17.3
158272	7	Sololá	712	San Antonio Palopó	9	San Antonio Palopo	3	Marzo	2023-09-03T00:00:00	2024-11-08T01:00:00	5	Humedad	74
158273	7	Sololá	712	San Antonio Palopó	9	San Antonio Palopo	3	Marzo	2023-09-03T00:00:00	2024-11-08T01:00:00	6	Velocidad del viento	9.7
158274	7	Sololá	712	San Antonio Palopó	9	San Antonio Palopo	3	Marzo	2023-09-03T00:00:00	2024-11-08T01:00:00	7	Dirección del viento	9.66
158275	7	Sololá	712	San Antonio Palopó	9	San Antonio Palopo	3	Marzo	2023-09-03T00:00:00	2024-11-08T01:00:00	1	Precipitación	0
158276	7	Sololá	712	San Antonio Palopó	9	San Antonio Palopo	3	Marzo	2023-09-03T00:00:00	2024-11-08T01:00:00	8	Radiación solar	0
158277	7	Sololá	712	San Antonio Palopó	9	San Antonio Palopo	3	Marzo	2023-09-03T00:00:00	2024-11-08T02:00:00	2	Temperatura media	17
158278	7	Sololá	712	San Antonio Palopó	9	San Antonio Palopo	3	Marzo	2023-09-03T00:00:00	2024-11-08T02:00:00	4	Temperatura máxima	17.3
158279	7	Sololá	712	San Antonio Palopó	9	San Antonio Palopo	3	Marzo	2023-09-03T00:00:00	2024-11-08T02:00:00	3	Temperatura mínima	16.9
158280	7	Sololá	712	San Antonio Palopó	9	San Antonio Palopo	3	Marzo	2023-09-03T00:00:00	2024-11-08T02:00:00	5	Humedad	71
158281	7	Sololá	712	San Antonio Palopó	9	San Antonio Palopo	3	Marzo	2023-09-03T00:00:00	2024-11-08T02:00:00	6	Velocidad del viento	11.3
158282	7	Sololá	712	San Antonio Palopó	9	San Antonio Palopo	3	Marzo	2023-09-03T00:00:00	2024-11-08T02:00:00	7	Dirección del viento	11.27
158283	7	Sololá	712	San Antonio Palopó	9	San Antonio Palopo	3	Marzo	2023-09-03T00:00:00	2024-11-08T02:00:00	1	Precipitación	0
158284	7	Sololá	712	San Antonio Palopó	9	San Antonio Palopo	3	Marzo	2023-09-03T00:00:00	2024-11-08T02:00:00	8	Radiación solar	0
158285	7	Sololá	712	San Antonio Palopó	9	San Antonio Palopo	3	Marzo	2023-09-03T00:00:00	2024-11-08T03:00:00	2	Temperatura media	16.8
158286	7	Sololá	712	San Antonio Palopó	9	San Antonio Palopo	3	Marzo	2023-09-03T00:00:00	2024-11-08T03:00:00	4	Temperatura máxima	17
158287	7	Sololá	712	San Antonio Palopó	9	San Antonio Palopo	3	Marzo	2023-09-03T00:00:00	2024-11-08T03:00:00	3	Temperatura mínima	16.7
158288	7	Sololá	712	San Antonio Palopó	9	San Antonio Palopo	3	Marzo	2023-09-03T00:00:00	2024-11-08T03:00:00	5	Humedad	67
158289	7	Sololá	712	San Antonio Palopó	9	San Antonio Palopo	3	Marzo	2023-09-03T00:00:00	2024-11-08T03:00:00	6	Velocidad del viento	11.3
158290	7	Sololá	712	San Antonio Palopó	9	San Antonio Palopo	3	Marzo	2023-09-03T00:00:00	2024-11-08T03:00:00	7	Dirección del viento	11.27
158291	7	Sololá	712	San Antonio Palopó	9	San Antonio Palopo	3	Marzo	2023-09-03T00:00:00	2024-11-08T03:00:00	1	Precipitación	0
158292	7	Sololá	712	San Antonio Palopó	9	San Antonio Palopo	3	Marzo	2023-09-03T00:00:00	2024-11-08T03:00:00	8	Radiación solar	0
158293	7	Sololá	712	San Antonio Palopó	9	San Antonio Palopo	3	Marzo	2023-09-03T00:00:00	2024-11-08T04:00:00	2	Temperatura media	16.2
158294	7	Sololá	712	San Antonio Palopó	9	San Antonio Palopo	3	Marzo	2023-09-03T00:00:00	2024-11-08T04:00:00	4	Temperatura máxima	16.9
158295	7	Sololá	712	San Antonio Palopó	9	San Antonio Palopo	3	Marzo	2023-09-03T00:00:00	2024-11-08T04:00:00	3	Temperatura mínima	16.2
158296	7	Sololá	712	San Antonio Palopó	9	San Antonio Palopo	3	Marzo	2023-09-03T00:00:00	2024-11-08T04:00:00	5	Humedad	68
158297	7	Sololá	712	San Antonio Palopó	9	San Antonio Palopo	3	Marzo	2023-09-03T00:00:00	2024-11-08T04:00:00	6	Velocidad del viento	6.4
158298	7	Sololá	712	San Antonio Palopó	9	San Antonio Palopo	3	Marzo	2023-09-03T00:00:00	2024-11-08T04:00:00	7	Dirección del viento	6.44
158299	7	Sololá	712	San Antonio Palopó	9	San Antonio Palopo	3	Marzo	2023-09-03T00:00:00	2024-11-08T04:00:00	1	Precipitación	0
158300	7	Sololá	712	San Antonio Palopó	9	San Antonio Palopo	3	Marzo	2023-09-03T00:00:00	2024-11-08T04:00:00	8	Radiación solar	0
158301	7	Sololá	712	San Antonio Palopó	9	San Antonio Palopo	3	Marzo	2023-09-03T00:00:00	2024-11-08T05:00:00	2	Temperatura media	16
158302	7	Sololá	712	San Antonio Palopó	9	San Antonio Palopo	3	Marzo	2023-09-03T00:00:00	2024-11-08T05:00:00	4	Temperatura máxima	16.2
158303	7	Sololá	712	San Antonio Palopó	9	San Antonio Palopo	3	Marzo	2023-09-03T00:00:00	2024-11-08T05:00:00	3	Temperatura mínima	15.8
158304	7	Sololá	712	San Antonio Palopó	9	San Antonio Palopo	3	Marzo	2023-09-03T00:00:00	2024-11-08T05:00:00	5	Humedad	68
158305	7	Sololá	712	San Antonio Palopó	9	San Antonio Palopo	3	Marzo	2023-09-03T00:00:00	2024-11-08T05:00:00	6	Velocidad del viento	6.4
158306	7	Sololá	712	San Antonio Palopó	9	San Antonio Palopo	3	Marzo	2023-09-03T00:00:00	2024-11-08T05:00:00	7	Dirección del viento	6.44
158307	7	Sololá	712	San Antonio Palopó	9	San Antonio Palopo	3	Marzo	2023-09-03T00:00:00	2024-11-08T05:00:00	1	Precipitación	0
158308	7	Sololá	712	San Antonio Palopó	9	San Antonio Palopo	3	Marzo	2023-09-03T00:00:00	2024-11-08T05:00:00	8	Radiación solar	0
158309	7	Sololá	712	San Antonio Palopó	9	San Antonio Palopo	3	Marzo	2023-09-03T00:00:00	2024-11-08T06:00:00	2	Temperatura media	15.8
158310	7	Sololá	712	San Antonio Palopó	9	San Antonio Palopo	3	Marzo	2023-09-03T00:00:00	2024-11-08T06:00:00	4	Temperatura máxima	15.9
158311	7	Sololá	712	San Antonio Palopó	9	San Antonio Palopo	3	Marzo	2023-09-03T00:00:00	2024-11-08T06:00:00	3	Temperatura mínima	15.7
158312	7	Sololá	712	San Antonio Palopó	9	San Antonio Palopo	3	Marzo	2023-09-03T00:00:00	2024-11-08T06:00:00	5	Humedad	67
158313	7	Sololá	712	San Antonio Palopó	9	San Antonio Palopo	3	Marzo	2023-09-03T00:00:00	2024-11-08T06:00:00	6	Velocidad del viento	6.4
158314	7	Sololá	712	San Antonio Palopó	9	San Antonio Palopo	3	Marzo	2023-09-03T00:00:00	2024-11-08T06:00:00	7	Dirección del viento	6.44
158315	7	Sololá	712	San Antonio Palopó	9	San Antonio Palopo	3	Marzo	2023-09-03T00:00:00	2024-11-08T06:00:00	1	Precipitación	0
158316	7	Sololá	712	San Antonio Palopó	9	San Antonio Palopo	3	Marzo	2023-09-03T00:00:00	2024-11-08T06:00:00	8	Radiación solar	0
158317	7	Sololá	712	San Antonio Palopó	9	San Antonio Palopo	3	Marzo	2023-09-03T00:00:00	2024-11-08T07:00:00	2	Temperatura media	16.3
158318	7	Sololá	712	San Antonio Palopó	9	San Antonio Palopo	3	Marzo	2023-09-03T00:00:00	2024-11-08T07:00:00	4	Temperatura máxima	16.3
158319	7	Sololá	712	San Antonio Palopó	9	San Antonio Palopo	3	Marzo	2023-09-03T00:00:00	2024-11-08T07:00:00	3	Temperatura mínima	15.8
158320	7	Sololá	712	San Antonio Palopó	9	San Antonio Palopo	3	Marzo	2023-09-03T00:00:00	2024-11-08T07:00:00	5	Humedad	66
158321	7	Sololá	712	San Antonio Palopó	9	San Antonio Palopo	3	Marzo	2023-09-03T00:00:00	2024-11-08T07:00:00	6	Velocidad del viento	4.8
158322	7	Sololá	712	San Antonio Palopó	9	San Antonio Palopo	3	Marzo	2023-09-03T00:00:00	2024-11-08T07:00:00	7	Dirección del viento	4.83
158323	7	Sololá	712	San Antonio Palopó	9	San Antonio Palopo	3	Marzo	2023-09-03T00:00:00	2024-11-08T07:00:00	1	Precipitación	0
158324	7	Sololá	712	San Antonio Palopó	9	San Antonio Palopo	3	Marzo	2023-09-03T00:00:00	2024-11-08T07:00:00	8	Radiación solar	19
158325	7	Sololá	712	San Antonio Palopó	9	San Antonio Palopo	3	Marzo	2023-09-03T00:00:00	2024-11-08T08:00:00	2	Temperatura media	17.4
158326	7	Sololá	712	San Antonio Palopó	9	San Antonio Palopo	3	Marzo	2023-09-03T00:00:00	2024-11-08T08:00:00	4	Temperatura máxima	17.4
158327	7	Sololá	712	San Antonio Palopó	9	San Antonio Palopo	3	Marzo	2023-09-03T00:00:00	2024-11-08T08:00:00	3	Temperatura mínima	16.3
158328	7	Sololá	712	San Antonio Palopó	9	San Antonio Palopo	3	Marzo	2023-09-03T00:00:00	2024-11-08T08:00:00	5	Humedad	70
158329	7	Sololá	712	San Antonio Palopó	9	San Antonio Palopo	3	Marzo	2023-09-03T00:00:00	2024-11-08T08:00:00	6	Velocidad del viento	3.2
158330	7	Sololá	712	San Antonio Palopó	9	San Antonio Palopo	3	Marzo	2023-09-03T00:00:00	2024-11-08T08:00:00	7	Dirección del viento	3.22
158331	7	Sololá	712	San Antonio Palopó	9	San Antonio Palopo	3	Marzo	2023-09-03T00:00:00	2024-11-08T08:00:00	1	Precipitación	0
158332	7	Sololá	712	San Antonio Palopó	9	San Antonio Palopo	3	Marzo	2023-09-03T00:00:00	2024-11-08T08:00:00	8	Radiación solar	82
158333	7	Sololá	712	San Antonio Palopó	9	San Antonio Palopo	3	Marzo	2023-09-03T00:00:00	2024-11-08T09:00:00	2	Temperatura media	18.9
158334	7	Sololá	712	San Antonio Palopó	9	San Antonio Palopo	3	Marzo	2023-09-03T00:00:00	2024-11-08T09:00:00	4	Temperatura máxima	18.9
158335	7	Sololá	712	San Antonio Palopó	9	San Antonio Palopo	3	Marzo	2023-09-03T00:00:00	2024-11-08T09:00:00	3	Temperatura mínima	17.4
158336	7	Sololá	712	San Antonio Palopó	9	San Antonio Palopo	3	Marzo	2023-09-03T00:00:00	2024-11-08T09:00:00	5	Humedad	68
158337	7	Sololá	712	San Antonio Palopó	9	San Antonio Palopo	3	Marzo	2023-09-03T00:00:00	2024-11-08T09:00:00	6	Velocidad del viento	1.6
158338	7	Sololá	712	San Antonio Palopó	9	San Antonio Palopo	3	Marzo	2023-09-03T00:00:00	2024-11-08T09:00:00	7	Dirección del viento	1.61
158339	7	Sololá	712	San Antonio Palopó	9	San Antonio Palopo	3	Marzo	2023-09-03T00:00:00	2024-11-08T09:00:00	1	Precipitación	0
158340	7	Sololá	712	San Antonio Palopó	9	San Antonio Palopo	3	Marzo	2023-09-03T00:00:00	2024-11-08T09:00:00	8	Radiación solar	291
158341	7	Sololá	712	San Antonio Palopó	9	San Antonio Palopo	3	Marzo	2023-09-03T00:00:00	2024-11-08T10:00:00	2	Temperatura media	20.3
158342	7	Sololá	712	San Antonio Palopó	9	San Antonio Palopo	3	Marzo	2023-09-03T00:00:00	2024-11-08T10:00:00	4	Temperatura máxima	20.3
158343	7	Sololá	712	San Antonio Palopó	9	San Antonio Palopo	3	Marzo	2023-09-03T00:00:00	2024-11-08T10:00:00	3	Temperatura mínima	18.8
158344	7	Sololá	712	San Antonio Palopó	9	San Antonio Palopo	3	Marzo	2023-09-03T00:00:00	2024-11-08T10:00:00	5	Humedad	63
158345	7	Sololá	712	San Antonio Palopó	9	San Antonio Palopo	3	Marzo	2023-09-03T00:00:00	2024-11-08T10:00:00	6	Velocidad del viento	3.2
158346	7	Sololá	712	San Antonio Palopó	9	San Antonio Palopo	3	Marzo	2023-09-03T00:00:00	2024-11-08T10:00:00	7	Dirección del viento	3.22
158347	7	Sololá	712	San Antonio Palopó	9	San Antonio Palopo	3	Marzo	2023-09-03T00:00:00	2024-11-08T10:00:00	1	Precipitación	0
158348	7	Sololá	712	San Antonio Palopó	9	San Antonio Palopo	3	Marzo	2023-09-03T00:00:00	2024-11-08T10:00:00	8	Radiación solar	558
158349	7	Sololá	712	San Antonio Palopó	9	San Antonio Palopo	3	Marzo	2023-09-03T00:00:00	2024-11-08T11:00:00	2	Temperatura media	21.3
158350	7	Sololá	712	San Antonio Palopó	9	San Antonio Palopo	3	Marzo	2023-09-03T00:00:00	2024-11-08T11:00:00	4	Temperatura máxima	21.3
158351	7	Sololá	712	San Antonio Palopó	9	San Antonio Palopo	3	Marzo	2023-09-03T00:00:00	2024-11-08T11:00:00	3	Temperatura mínima	20.2
158352	7	Sololá	712	San Antonio Palopó	9	San Antonio Palopo	3	Marzo	2023-09-03T00:00:00	2024-11-08T11:00:00	5	Humedad	69
158353	7	Sololá	712	San Antonio Palopó	9	San Antonio Palopo	3	Marzo	2023-09-03T00:00:00	2024-11-08T11:00:00	6	Velocidad del viento	3.2
158354	7	Sololá	712	San Antonio Palopó	9	San Antonio Palopo	3	Marzo	2023-09-03T00:00:00	2024-11-08T11:00:00	7	Dirección del viento	3.22
158355	7	Sololá	712	San Antonio Palopó	9	San Antonio Palopo	3	Marzo	2023-09-03T00:00:00	2024-11-08T11:00:00	1	Precipitación	0
158356	7	Sololá	712	San Antonio Palopó	9	San Antonio Palopo	3	Marzo	2023-09-03T00:00:00	2024-11-08T11:00:00	8	Radiación solar	723
158357	7	Sololá	712	San Antonio Palopó	9	San Antonio Palopo	3	Marzo	2023-09-03T00:00:00	2024-11-08T12:00:00	2	Temperatura media	22.4
158358	7	Sololá	712	San Antonio Palopó	9	San Antonio Palopo	3	Marzo	2023-09-03T00:00:00	2024-11-08T12:00:00	4	Temperatura máxima	22.4
158359	7	Sololá	712	San Antonio Palopó	9	San Antonio Palopo	3	Marzo	2023-09-03T00:00:00	2024-11-08T12:00:00	3	Temperatura mínima	21.1
158360	7	Sololá	712	San Antonio Palopó	9	San Antonio Palopo	3	Marzo	2023-09-03T00:00:00	2024-11-08T12:00:00	5	Humedad	67
158361	7	Sololá	712	San Antonio Palopó	9	San Antonio Palopo	3	Marzo	2023-09-03T00:00:00	2024-11-08T12:00:00	6	Velocidad del viento	6.4
158362	7	Sololá	712	San Antonio Palopó	9	San Antonio Palopo	3	Marzo	2023-09-03T00:00:00	2024-11-08T12:00:00	7	Dirección del viento	6.44
158363	7	Sololá	712	San Antonio Palopó	9	San Antonio Palopo	3	Marzo	2023-09-03T00:00:00	2024-11-08T12:00:00	1	Precipitación	0
158364	7	Sololá	712	San Antonio Palopó	9	San Antonio Palopo	3	Marzo	2023-09-03T00:00:00	2024-11-08T12:00:00	8	Radiación solar	828
158365	7	Sololá	712	San Antonio Palopó	9	San Antonio Palopo	3	Marzo	2023-09-03T00:00:00	2024-11-08T13:00:00	2	Temperatura media	21.6
158366	7	Sololá	712	San Antonio Palopó	9	San Antonio Palopo	3	Marzo	2023-09-03T00:00:00	2024-11-08T13:00:00	4	Temperatura máxima	23.2
158367	7	Sololá	712	San Antonio Palopó	9	San Antonio Palopo	3	Marzo	2023-09-03T00:00:00	2024-11-08T13:00:00	3	Temperatura mínima	21.5
158368	7	Sololá	712	San Antonio Palopó	9	San Antonio Palopo	3	Marzo	2023-09-03T00:00:00	2024-11-08T13:00:00	5	Humedad	70
158369	7	Sololá	712	San Antonio Palopó	9	San Antonio Palopo	3	Marzo	2023-09-03T00:00:00	2024-11-08T13:00:00	6	Velocidad del viento	11.3
158370	7	Sololá	712	San Antonio Palopó	9	San Antonio Palopo	3	Marzo	2023-09-03T00:00:00	2024-11-08T13:00:00	7	Dirección del viento	11.27
158371	7	Sololá	712	San Antonio Palopó	9	San Antonio Palopo	3	Marzo	2023-09-03T00:00:00	2024-11-08T13:00:00	1	Precipitación	0
158372	7	Sololá	712	San Antonio Palopó	9	San Antonio Palopo	3	Marzo	2023-09-03T00:00:00	2024-11-08T13:00:00	8	Radiación solar	844
158373	7	Sololá	712	San Antonio Palopó	9	San Antonio Palopo	3	Marzo	2023-09-03T00:00:00	2024-11-08T14:00:00	2	Temperatura media	21.1
158374	7	Sololá	712	San Antonio Palopó	9	San Antonio Palopo	3	Marzo	2023-09-03T00:00:00	2024-11-08T14:00:00	4	Temperatura máxima	21.6
158375	7	Sololá	712	San Antonio Palopó	9	San Antonio Palopo	3	Marzo	2023-09-03T00:00:00	2024-11-08T14:00:00	3	Temperatura mínima	20.6
158376	7	Sololá	712	San Antonio Palopó	9	San Antonio Palopo	3	Marzo	2023-09-03T00:00:00	2024-11-08T14:00:00	5	Humedad	74
158377	7	Sololá	712	San Antonio Palopó	9	San Antonio Palopo	3	Marzo	2023-09-03T00:00:00	2024-11-08T14:00:00	6	Velocidad del viento	16.1
158378	7	Sololá	712	San Antonio Palopó	9	San Antonio Palopo	3	Marzo	2023-09-03T00:00:00	2024-11-08T14:00:00	7	Dirección del viento	16.09
158379	7	Sololá	712	San Antonio Palopó	9	San Antonio Palopo	3	Marzo	2023-09-03T00:00:00	2024-11-08T14:00:00	1	Precipitación	0
158380	7	Sololá	712	San Antonio Palopó	9	San Antonio Palopo	3	Marzo	2023-09-03T00:00:00	2024-11-08T14:00:00	8	Radiación solar	703
158381	7	Sololá	712	San Antonio Palopó	9	San Antonio Palopo	3	Marzo	2023-09-03T00:00:00	2024-11-08T15:00:00	2	Temperatura media	21.5
158382	7	Sololá	712	San Antonio Palopó	9	San Antonio Palopo	3	Marzo	2023-09-03T00:00:00	2024-11-08T15:00:00	4	Temperatura máxima	21.8
158383	7	Sololá	712	San Antonio Palopó	9	San Antonio Palopo	3	Marzo	2023-09-03T00:00:00	2024-11-08T15:00:00	3	Temperatura mínima	20.8
158384	7	Sololá	712	San Antonio Palopó	9	San Antonio Palopo	3	Marzo	2023-09-03T00:00:00	2024-11-08T15:00:00	5	Humedad	73
158385	7	Sololá	712	San Antonio Palopó	9	San Antonio Palopo	3	Marzo	2023-09-03T00:00:00	2024-11-08T15:00:00	6	Velocidad del viento	12.9
158386	7	Sololá	712	San Antonio Palopó	9	San Antonio Palopo	3	Marzo	2023-09-03T00:00:00	2024-11-08T15:00:00	7	Dirección del viento	12.87
158387	7	Sololá	712	San Antonio Palopó	9	San Antonio Palopo	3	Marzo	2023-09-03T00:00:00	2024-11-08T15:00:00	1	Precipitación	0
158388	7	Sololá	712	San Antonio Palopó	9	San Antonio Palopo	3	Marzo	2023-09-03T00:00:00	2024-11-08T15:00:00	8	Radiación solar	612
158389	7	Sololá	712	San Antonio Palopó	9	San Antonio Palopo	3	Marzo	2023-09-03T00:00:00	2024-11-08T16:00:00	2	Temperatura media	21.8
158390	7	Sololá	712	San Antonio Palopó	9	San Antonio Palopo	3	Marzo	2023-09-03T00:00:00	2024-11-08T16:00:00	4	Temperatura máxima	22
158391	7	Sololá	712	San Antonio Palopó	9	San Antonio Palopo	3	Marzo	2023-09-03T00:00:00	2024-11-08T16:00:00	3	Temperatura mínima	21.3
158392	7	Sololá	712	San Antonio Palopó	9	San Antonio Palopo	3	Marzo	2023-09-03T00:00:00	2024-11-08T16:00:00	5	Humedad	72
158393	7	Sololá	712	San Antonio Palopó	9	San Antonio Palopo	3	Marzo	2023-09-03T00:00:00	2024-11-08T16:00:00	6	Velocidad del viento	11.3
158394	7	Sololá	712	San Antonio Palopó	9	San Antonio Palopo	3	Marzo	2023-09-03T00:00:00	2024-11-08T16:00:00	7	Dirección del viento	11.27
158395	7	Sololá	712	San Antonio Palopó	9	San Antonio Palopo	3	Marzo	2023-09-03T00:00:00	2024-11-08T16:00:00	1	Precipitación	0
158396	7	Sololá	712	San Antonio Palopó	9	San Antonio Palopo	3	Marzo	2023-09-03T00:00:00	2024-11-08T16:00:00	8	Radiación solar	463
158397	7	Sololá	712	San Antonio Palopó	9	San Antonio Palopo	3	Marzo	2023-09-03T00:00:00	2024-11-08T17:00:00	2	Temperatura media	21.3
158398	7	Sololá	712	San Antonio Palopó	9	San Antonio Palopo	3	Marzo	2023-09-03T00:00:00	2024-11-08T17:00:00	4	Temperatura máxima	22
158399	7	Sololá	712	San Antonio Palopó	9	San Antonio Palopo	3	Marzo	2023-09-03T00:00:00	2024-11-08T17:00:00	3	Temperatura mínima	21.3
158400	7	Sololá	712	San Antonio Palopó	9	San Antonio Palopo	3	Marzo	2023-09-03T00:00:00	2024-11-08T17:00:00	5	Humedad	75
158401	7	Sololá	712	San Antonio Palopó	9	San Antonio Palopo	3	Marzo	2023-09-03T00:00:00	2024-11-08T17:00:00	6	Velocidad del viento	6.4
158402	7	Sololá	712	San Antonio Palopó	9	San Antonio Palopo	3	Marzo	2023-09-03T00:00:00	2024-11-08T17:00:00	7	Dirección del viento	6.44
158403	7	Sololá	712	San Antonio Palopó	9	San Antonio Palopo	3	Marzo	2023-09-03T00:00:00	2024-11-08T17:00:00	1	Precipitación	0
158404	7	Sololá	712	San Antonio Palopó	9	San Antonio Palopo	3	Marzo	2023-09-03T00:00:00	2024-11-08T17:00:00	8	Radiación solar	251
158405	7	Sololá	712	San Antonio Palopó	9	San Antonio Palopo	3	Marzo	2023-09-03T00:00:00	2024-11-08T18:00:00	2	Temperatura media	20.1
158406	7	Sololá	712	San Antonio Palopó	9	San Antonio Palopo	3	Marzo	2023-09-03T00:00:00	2024-11-08T18:00:00	4	Temperatura máxima	21.3
158407	7	Sololá	712	San Antonio Palopó	9	San Antonio Palopo	3	Marzo	2023-09-03T00:00:00	2024-11-08T18:00:00	3	Temperatura mínima	20
158408	7	Sololá	712	San Antonio Palopó	9	San Antonio Palopo	3	Marzo	2023-09-03T00:00:00	2024-11-08T18:00:00	5	Humedad	81
158409	7	Sololá	712	San Antonio Palopó	9	San Antonio Palopo	3	Marzo	2023-09-03T00:00:00	2024-11-08T18:00:00	6	Velocidad del viento	6.4
158410	7	Sololá	712	San Antonio Palopó	9	San Antonio Palopo	3	Marzo	2023-09-03T00:00:00	2024-11-08T18:00:00	7	Dirección del viento	6.44
158411	7	Sololá	712	San Antonio Palopó	9	San Antonio Palopo	3	Marzo	2023-09-03T00:00:00	2024-11-08T18:00:00	1	Precipitación	0
158412	7	Sololá	712	San Antonio Palopó	9	San Antonio Palopo	3	Marzo	2023-09-03T00:00:00	2024-11-08T18:00:00	8	Radiación solar	78
158413	7	Sololá	712	San Antonio Palopó	9	San Antonio Palopo	3	Marzo	2023-09-03T00:00:00	2024-11-08T19:00:00	2	Temperatura media	19.6
158414	7	Sololá	712	San Antonio Palopó	9	San Antonio Palopo	3	Marzo	2023-09-03T00:00:00	2024-11-08T19:00:00	4	Temperatura máxima	20.1
158415	7	Sololá	712	San Antonio Palopó	9	San Antonio Palopo	3	Marzo	2023-09-03T00:00:00	2024-11-08T19:00:00	3	Temperatura mínima	19.6
158416	7	Sololá	712	San Antonio Palopó	9	San Antonio Palopo	3	Marzo	2023-09-03T00:00:00	2024-11-08T19:00:00	5	Humedad	81
158417	7	Sololá	712	San Antonio Palopó	9	San Antonio Palopo	3	Marzo	2023-09-03T00:00:00	2024-11-08T19:00:00	6	Velocidad del viento	4.8
158418	7	Sololá	712	San Antonio Palopó	9	San Antonio Palopo	3	Marzo	2023-09-03T00:00:00	2024-11-08T19:00:00	7	Dirección del viento	4.83
158419	7	Sololá	712	San Antonio Palopó	9	San Antonio Palopo	3	Marzo	2023-09-03T00:00:00	2024-11-08T19:00:00	1	Precipitación	0
158420	7	Sololá	712	San Antonio Palopó	9	San Antonio Palopo	3	Marzo	2023-09-03T00:00:00	2024-11-08T19:00:00	8	Radiación solar	0
158421	7	Sololá	712	San Antonio Palopó	9	San Antonio Palopo	3	Marzo	2023-09-03T00:00:00	2024-11-08T20:00:00	2	Temperatura media	19.2
158422	7	Sololá	712	San Antonio Palopó	9	San Antonio Palopo	3	Marzo	2023-09-03T00:00:00	2024-11-08T20:00:00	4	Temperatura máxima	19.7
158423	7	Sololá	712	San Antonio Palopó	9	San Antonio Palopo	3	Marzo	2023-09-03T00:00:00	2024-11-08T20:00:00	3	Temperatura mínima	19.2
158424	7	Sololá	712	San Antonio Palopó	9	San Antonio Palopo	3	Marzo	2023-09-03T00:00:00	2024-11-08T20:00:00	5	Humedad	82
158425	7	Sololá	712	San Antonio Palopó	9	San Antonio Palopo	3	Marzo	2023-09-03T00:00:00	2024-11-08T20:00:00	6	Velocidad del viento	3.2
158426	7	Sololá	712	San Antonio Palopó	9	San Antonio Palopo	3	Marzo	2023-09-03T00:00:00	2024-11-08T20:00:00	7	Dirección del viento	3.22
158427	7	Sololá	712	San Antonio Palopó	9	San Antonio Palopo	3	Marzo	2023-09-03T00:00:00	2024-11-08T20:00:00	1	Precipitación	0
158428	7	Sololá	712	San Antonio Palopó	9	San Antonio Palopo	3	Marzo	2023-09-03T00:00:00	2024-11-08T20:00:00	8	Radiación solar	0
158429	7	Sololá	712	San Antonio Palopó	9	San Antonio Palopo	3	Marzo	2023-09-03T00:00:00	2024-11-08T21:00:00	2	Temperatura media	18
158430	7	Sololá	712	San Antonio Palopó	9	San Antonio Palopo	3	Marzo	2023-09-03T00:00:00	2024-11-08T21:00:00	4	Temperatura máxima	19.2
158431	7	Sololá	712	San Antonio Palopó	9	San Antonio Palopo	3	Marzo	2023-09-03T00:00:00	2024-11-08T21:00:00	3	Temperatura mínima	17.9
158432	7	Sololá	712	San Antonio Palopó	9	San Antonio Palopo	3	Marzo	2023-09-03T00:00:00	2024-11-08T21:00:00	5	Humedad	86
158433	7	Sololá	712	San Antonio Palopó	9	San Antonio Palopo	3	Marzo	2023-09-03T00:00:00	2024-11-08T21:00:00	6	Velocidad del viento	6.4
158434	7	Sololá	712	San Antonio Palopó	9	San Antonio Palopo	3	Marzo	2023-09-03T00:00:00	2024-11-08T21:00:00	7	Dirección del viento	6.44
158435	7	Sololá	712	San Antonio Palopó	9	San Antonio Palopo	3	Marzo	2023-09-03T00:00:00	2024-11-08T21:00:00	1	Precipitación	0
158436	7	Sololá	712	San Antonio Palopó	9	San Antonio Palopo	3	Marzo	2023-09-03T00:00:00	2024-11-08T21:00:00	8	Radiación solar	0
158437	7	Sololá	712	San Antonio Palopó	9	San Antonio Palopo	3	Marzo	2023-09-03T00:00:00	2024-11-08T22:00:00	2	Temperatura media	18.2
158438	7	Sololá	712	San Antonio Palopó	9	San Antonio Palopo	3	Marzo	2023-09-03T00:00:00	2024-11-08T22:00:00	4	Temperatura máxima	18.2
158439	7	Sololá	712	San Antonio Palopó	9	San Antonio Palopo	3	Marzo	2023-09-03T00:00:00	2024-11-08T22:00:00	3	Temperatura mínima	18.1
158440	7	Sololá	712	San Antonio Palopó	9	San Antonio Palopo	3	Marzo	2023-09-03T00:00:00	2024-11-08T22:00:00	5	Humedad	82
158441	7	Sololá	712	San Antonio Palopó	9	San Antonio Palopo	3	Marzo	2023-09-03T00:00:00	2024-11-08T22:00:00	6	Velocidad del viento	3.2
158442	7	Sololá	712	San Antonio Palopó	9	San Antonio Palopo	3	Marzo	2023-09-03T00:00:00	2024-11-08T22:00:00	7	Dirección del viento	3.22
158443	7	Sololá	712	San Antonio Palopó	9	San Antonio Palopo	3	Marzo	2023-09-03T00:00:00	2024-11-08T22:00:00	1	Precipitación	0
158444	7	Sololá	712	San Antonio Palopó	9	San Antonio Palopo	3	Marzo	2023-09-03T00:00:00	2024-11-08T22:00:00	8	Radiación solar	0
158445	7	Sololá	712	San Antonio Palopó	9	San Antonio Palopo	3	Marzo	2023-09-03T00:00:00	2024-11-08T23:00:00	2	Temperatura media	18.3
158446	7	Sololá	712	San Antonio Palopó	9	San Antonio Palopo	3	Marzo	2023-09-03T00:00:00	2024-11-08T23:00:00	4	Temperatura máxima	18.6
158447	7	Sololá	712	San Antonio Palopó	9	San Antonio Palopo	3	Marzo	2023-09-03T00:00:00	2024-11-08T23:00:00	3	Temperatura mínima	18.2
158448	7	Sololá	712	San Antonio Palopó	9	San Antonio Palopo	3	Marzo	2023-09-03T00:00:00	2024-11-08T23:00:00	5	Humedad	72
158449	7	Sololá	712	San Antonio Palopó	9	San Antonio Palopo	3	Marzo	2023-09-03T00:00:00	2024-11-08T23:00:00	6	Velocidad del viento	6.4
158450	7	Sololá	712	San Antonio Palopó	9	San Antonio Palopo	3	Marzo	2023-09-03T00:00:00	2024-11-08T23:00:00	7	Dirección del viento	6.44
158451	7	Sololá	712	San Antonio Palopó	9	San Antonio Palopo	3	Marzo	2023-09-03T00:00:00	2024-11-08T23:00:00	1	Precipitación	0
158452	7	Sololá	712	San Antonio Palopó	9	San Antonio Palopo	3	Marzo	2023-09-03T00:00:00	2024-11-08T23:00:00	8	Radiación solar	0
158453	7	Sololá	712	San Antonio Palopó	9	San Antonio Palopo	3	Marzo	2023-10-03T00:00:00	2024-11-08T00:00:00	2	Temperatura media	17.7
158454	7	Sololá	712	San Antonio Palopó	9	San Antonio Palopo	3	Marzo	2023-10-03T00:00:00	2024-11-08T00:00:00	4	Temperatura máxima	18.3
158455	7	Sololá	712	San Antonio Palopó	9	San Antonio Palopo	3	Marzo	2023-10-03T00:00:00	2024-11-08T00:00:00	3	Temperatura mínima	17.7
158456	7	Sololá	712	San Antonio Palopó	9	San Antonio Palopo	3	Marzo	2023-10-03T00:00:00	2024-11-08T00:00:00	5	Humedad	73
158457	7	Sololá	712	San Antonio Palopó	9	San Antonio Palopo	3	Marzo	2023-10-03T00:00:00	2024-11-08T00:00:00	6	Velocidad del viento	11.3
158458	7	Sololá	712	San Antonio Palopó	9	San Antonio Palopo	3	Marzo	2023-10-03T00:00:00	2024-11-08T00:00:00	7	Dirección del viento	11.27
158459	7	Sololá	712	San Antonio Palopó	9	San Antonio Palopo	3	Marzo	2023-10-03T00:00:00	2024-11-08T00:00:00	1	Precipitación	0
158460	7	Sololá	712	San Antonio Palopó	9	San Antonio Palopo	3	Marzo	2023-10-03T00:00:00	2024-11-08T00:00:00	8	Radiación solar	0
158461	7	Sololá	712	San Antonio Palopó	9	San Antonio Palopo	3	Marzo	2023-10-03T00:00:00	2024-11-08T01:00:00	2	Temperatura media	17.2
158462	7	Sololá	712	San Antonio Palopó	9	San Antonio Palopo	3	Marzo	2023-10-03T00:00:00	2024-11-08T01:00:00	4	Temperatura máxima	17.8
158463	7	Sololá	712	San Antonio Palopó	9	San Antonio Palopo	3	Marzo	2023-10-03T00:00:00	2024-11-08T01:00:00	3	Temperatura mínima	17.2
158464	7	Sololá	712	San Antonio Palopó	9	San Antonio Palopo	3	Marzo	2023-10-03T00:00:00	2024-11-08T01:00:00	5	Humedad	74
158465	7	Sololá	712	San Antonio Palopó	9	San Antonio Palopo	3	Marzo	2023-10-03T00:00:00	2024-11-08T01:00:00	6	Velocidad del viento	9.7
158466	7	Sololá	712	San Antonio Palopó	9	San Antonio Palopo	3	Marzo	2023-10-03T00:00:00	2024-11-08T01:00:00	7	Dirección del viento	9.66
158467	7	Sololá	712	San Antonio Palopó	9	San Antonio Palopo	3	Marzo	2023-10-03T00:00:00	2024-11-08T01:00:00	1	Precipitación	0
158468	7	Sololá	712	San Antonio Palopó	9	San Antonio Palopo	3	Marzo	2023-10-03T00:00:00	2024-11-08T01:00:00	8	Radiación solar	0
158469	7	Sololá	712	San Antonio Palopó	9	San Antonio Palopo	3	Marzo	2023-10-03T00:00:00	2024-11-08T02:00:00	2	Temperatura media	16.9
158470	7	Sololá	712	San Antonio Palopó	9	San Antonio Palopo	3	Marzo	2023-10-03T00:00:00	2024-11-08T02:00:00	4	Temperatura máxima	17.2
158471	7	Sololá	712	San Antonio Palopó	9	San Antonio Palopo	3	Marzo	2023-10-03T00:00:00	2024-11-08T02:00:00	3	Temperatura mínima	16.8
158472	7	Sololá	712	San Antonio Palopó	9	San Antonio Palopo	3	Marzo	2023-10-03T00:00:00	2024-11-08T02:00:00	5	Humedad	75
158473	7	Sololá	712	San Antonio Palopó	9	San Antonio Palopo	3	Marzo	2023-10-03T00:00:00	2024-11-08T02:00:00	6	Velocidad del viento	6.4
158474	7	Sololá	712	San Antonio Palopó	9	San Antonio Palopo	3	Marzo	2023-10-03T00:00:00	2024-11-08T02:00:00	7	Dirección del viento	6.44
158475	7	Sololá	712	San Antonio Palopó	9	San Antonio Palopo	3	Marzo	2023-10-03T00:00:00	2024-11-08T02:00:00	1	Precipitación	0
158476	7	Sololá	712	San Antonio Palopó	9	San Antonio Palopo	3	Marzo	2023-10-03T00:00:00	2024-11-08T02:00:00	8	Radiación solar	0
158477	7	Sololá	712	San Antonio Palopó	9	San Antonio Palopo	3	Marzo	2023-10-03T00:00:00	2024-11-08T03:00:00	2	Temperatura media	16.9
158478	7	Sololá	712	San Antonio Palopó	9	San Antonio Palopo	3	Marzo	2023-10-03T00:00:00	2024-11-08T03:00:00	4	Temperatura máxima	17
158479	7	Sololá	712	San Antonio Palopó	9	San Antonio Palopo	3	Marzo	2023-10-03T00:00:00	2024-11-08T03:00:00	3	Temperatura mínima	16.8
158480	7	Sololá	712	San Antonio Palopó	9	San Antonio Palopo	3	Marzo	2023-10-03T00:00:00	2024-11-08T03:00:00	5	Humedad	75
158481	7	Sololá	712	San Antonio Palopó	9	San Antonio Palopo	3	Marzo	2023-10-03T00:00:00	2024-11-08T03:00:00	6	Velocidad del viento	11.3
158482	7	Sololá	712	San Antonio Palopó	9	San Antonio Palopo	3	Marzo	2023-10-03T00:00:00	2024-11-08T03:00:00	7	Dirección del viento	11.27
158483	7	Sololá	712	San Antonio Palopó	9	San Antonio Palopo	3	Marzo	2023-10-03T00:00:00	2024-11-08T03:00:00	1	Precipitación	0
158484	7	Sololá	712	San Antonio Palopó	9	San Antonio Palopo	3	Marzo	2023-10-03T00:00:00	2024-11-08T03:00:00	8	Radiación solar	0
158485	7	Sololá	712	San Antonio Palopó	9	San Antonio Palopo	3	Marzo	2023-10-03T00:00:00	2024-11-08T04:00:00	2	Temperatura media	16.7
158486	7	Sololá	712	San Antonio Palopó	9	San Antonio Palopo	3	Marzo	2023-10-03T00:00:00	2024-11-08T04:00:00	4	Temperatura máxima	17
158487	7	Sololá	712	San Antonio Palopó	9	San Antonio Palopo	3	Marzo	2023-10-03T00:00:00	2024-11-08T04:00:00	3	Temperatura mínima	16.7
158488	7	Sololá	712	San Antonio Palopó	9	San Antonio Palopo	3	Marzo	2023-10-03T00:00:00	2024-11-08T04:00:00	5	Humedad	75
158489	7	Sololá	712	San Antonio Palopó	9	San Antonio Palopo	3	Marzo	2023-10-03T00:00:00	2024-11-08T04:00:00	6	Velocidad del viento	9.7
158490	7	Sololá	712	San Antonio Palopó	9	San Antonio Palopo	3	Marzo	2023-10-03T00:00:00	2024-11-08T04:00:00	7	Dirección del viento	9.66
158491	7	Sololá	712	San Antonio Palopó	9	San Antonio Palopo	3	Marzo	2023-10-03T00:00:00	2024-11-08T04:00:00	1	Precipitación	0
158492	7	Sololá	712	San Antonio Palopó	9	San Antonio Palopo	3	Marzo	2023-10-03T00:00:00	2024-11-08T04:00:00	8	Radiación solar	0
158493	7	Sololá	712	San Antonio Palopó	9	San Antonio Palopo	3	Marzo	2023-10-03T00:00:00	2024-11-08T05:00:00	2	Temperatura media	16.2
158494	7	Sololá	712	San Antonio Palopó	9	San Antonio Palopo	3	Marzo	2023-10-03T00:00:00	2024-11-08T05:00:00	4	Temperatura máxima	16.7
158495	7	Sololá	712	San Antonio Palopó	9	San Antonio Palopo	3	Marzo	2023-10-03T00:00:00	2024-11-08T05:00:00	3	Temperatura mínima	16.2
158496	7	Sololá	712	San Antonio Palopó	9	San Antonio Palopo	3	Marzo	2023-10-03T00:00:00	2024-11-08T05:00:00	5	Humedad	76
158497	7	Sololá	712	San Antonio Palopó	9	San Antonio Palopo	3	Marzo	2023-10-03T00:00:00	2024-11-08T05:00:00	6	Velocidad del viento	9.7
158498	7	Sololá	712	San Antonio Palopó	9	San Antonio Palopo	3	Marzo	2023-10-03T00:00:00	2024-11-08T05:00:00	7	Dirección del viento	9.66
158499	7	Sololá	712	San Antonio Palopó	9	San Antonio Palopo	3	Marzo	2023-10-03T00:00:00	2024-11-08T05:00:00	1	Precipitación	0
158500	7	Sololá	712	San Antonio Palopó	9	San Antonio Palopo	3	Marzo	2023-10-03T00:00:00	2024-11-08T05:00:00	8	Radiación solar	0
158501	7	Sololá	712	San Antonio Palopó	9	San Antonio Palopo	3	Marzo	2023-10-03T00:00:00	2024-11-08T06:00:00	2	Temperatura media	16.4
158502	7	Sololá	712	San Antonio Palopó	9	San Antonio Palopo	3	Marzo	2023-10-03T00:00:00	2024-11-08T06:00:00	4	Temperatura máxima	16.6
158503	7	Sololá	712	San Antonio Palopó	9	San Antonio Palopo	3	Marzo	2023-10-03T00:00:00	2024-11-08T06:00:00	3	Temperatura mínima	16.2
158504	7	Sololá	712	San Antonio Palopó	9	San Antonio Palopo	3	Marzo	2023-10-03T00:00:00	2024-11-08T06:00:00	5	Humedad	75
158505	7	Sololá	712	San Antonio Palopó	9	San Antonio Palopo	3	Marzo	2023-10-03T00:00:00	2024-11-08T06:00:00	6	Velocidad del viento	8
158506	7	Sololá	712	San Antonio Palopó	9	San Antonio Palopo	3	Marzo	2023-10-03T00:00:00	2024-11-08T06:00:00	7	Dirección del viento	8.05
158507	7	Sololá	712	San Antonio Palopó	9	San Antonio Palopo	3	Marzo	2023-10-03T00:00:00	2024-11-08T06:00:00	1	Precipitación	0
158508	7	Sololá	712	San Antonio Palopó	9	San Antonio Palopo	3	Marzo	2023-10-03T00:00:00	2024-11-08T06:00:00	8	Radiación solar	0
158509	7	Sololá	712	San Antonio Palopó	9	San Antonio Palopo	3	Marzo	2023-10-03T00:00:00	2024-11-08T07:00:00	2	Temperatura media	16.5
158510	7	Sololá	712	San Antonio Palopó	9	San Antonio Palopo	3	Marzo	2023-10-03T00:00:00	2024-11-08T07:00:00	4	Temperatura máxima	16.6
158511	7	Sololá	712	San Antonio Palopó	9	San Antonio Palopo	3	Marzo	2023-10-03T00:00:00	2024-11-08T07:00:00	3	Temperatura mínima	16.3
158512	7	Sololá	712	San Antonio Palopó	9	San Antonio Palopo	3	Marzo	2023-10-03T00:00:00	2024-11-08T07:00:00	5	Humedad	74
158513	7	Sololá	712	San Antonio Palopó	9	San Antonio Palopo	3	Marzo	2023-10-03T00:00:00	2024-11-08T07:00:00	6	Velocidad del viento	8
158514	7	Sololá	712	San Antonio Palopó	9	San Antonio Palopo	3	Marzo	2023-10-03T00:00:00	2024-11-08T07:00:00	7	Dirección del viento	8.05
158515	7	Sololá	712	San Antonio Palopó	9	San Antonio Palopo	3	Marzo	2023-10-03T00:00:00	2024-11-08T07:00:00	1	Precipitación	0
158516	7	Sololá	712	San Antonio Palopó	9	San Antonio Palopo	3	Marzo	2023-10-03T00:00:00	2024-11-08T07:00:00	8	Radiación solar	13
158517	7	Sololá	712	San Antonio Palopó	9	San Antonio Palopo	3	Marzo	2023-10-03T00:00:00	2024-11-08T08:00:00	2	Temperatura media	17.9
158518	7	Sololá	712	San Antonio Palopó	9	San Antonio Palopo	3	Marzo	2023-10-03T00:00:00	2024-11-08T08:00:00	4	Temperatura máxima	18
158519	7	Sololá	712	San Antonio Palopó	9	San Antonio Palopo	3	Marzo	2023-10-03T00:00:00	2024-11-08T08:00:00	3	Temperatura mínima	16.5
158520	7	Sololá	712	San Antonio Palopó	9	San Antonio Palopo	3	Marzo	2023-10-03T00:00:00	2024-11-08T08:00:00	5	Humedad	74
158521	7	Sololá	712	San Antonio Palopó	9	San Antonio Palopo	3	Marzo	2023-10-03T00:00:00	2024-11-08T08:00:00	6	Velocidad del viento	1.6
158522	7	Sololá	712	San Antonio Palopó	9	San Antonio Palopo	3	Marzo	2023-10-03T00:00:00	2024-11-08T08:00:00	7	Dirección del viento	1.61
158523	7	Sololá	712	San Antonio Palopó	9	San Antonio Palopo	3	Marzo	2023-10-03T00:00:00	2024-11-08T08:00:00	1	Precipitación	0
158524	7	Sololá	712	San Antonio Palopó	9	San Antonio Palopo	3	Marzo	2023-10-03T00:00:00	2024-11-08T08:00:00	8	Radiación solar	89
158525	7	Sololá	712	San Antonio Palopó	9	San Antonio Palopo	3	Marzo	2023-10-03T00:00:00	2024-11-08T09:00:00	2	Temperatura media	18.3
158526	7	Sololá	712	San Antonio Palopó	9	San Antonio Palopo	3	Marzo	2023-10-03T00:00:00	2024-11-08T09:00:00	4	Temperatura máxima	18.3
158527	7	Sololá	712	San Antonio Palopó	9	San Antonio Palopo	3	Marzo	2023-10-03T00:00:00	2024-11-08T09:00:00	3	Temperatura mínima	17.9
158528	7	Sololá	712	San Antonio Palopó	9	San Antonio Palopo	3	Marzo	2023-10-03T00:00:00	2024-11-08T09:00:00	5	Humedad	75
158529	7	Sololá	712	San Antonio Palopó	9	San Antonio Palopo	3	Marzo	2023-10-03T00:00:00	2024-11-08T09:00:00	6	Velocidad del viento	1.6
158530	7	Sololá	712	San Antonio Palopó	9	San Antonio Palopo	3	Marzo	2023-10-03T00:00:00	2024-11-08T09:00:00	7	Dirección del viento	1.61
158531	7	Sololá	712	San Antonio Palopó	9	San Antonio Palopo	3	Marzo	2023-10-03T00:00:00	2024-11-08T09:00:00	1	Precipitación	0
158532	7	Sololá	712	San Antonio Palopó	9	San Antonio Palopo	3	Marzo	2023-10-03T00:00:00	2024-11-08T09:00:00	8	Radiación solar	108
158533	7	Sololá	712	San Antonio Palopó	9	San Antonio Palopo	3	Marzo	2023-10-03T00:00:00	2024-11-08T10:00:00	2	Temperatura media	18.9
158534	7	Sololá	712	San Antonio Palopó	9	San Antonio Palopo	3	Marzo	2023-10-03T00:00:00	2024-11-08T10:00:00	4	Temperatura máxima	18.9
158535	7	Sololá	712	San Antonio Palopó	9	San Antonio Palopo	3	Marzo	2023-10-03T00:00:00	2024-11-08T10:00:00	3	Temperatura mínima	18.3
158536	7	Sololá	712	San Antonio Palopó	9	San Antonio Palopo	3	Marzo	2023-10-03T00:00:00	2024-11-08T10:00:00	5	Humedad	71
158537	7	Sololá	712	San Antonio Palopó	9	San Antonio Palopo	3	Marzo	2023-10-03T00:00:00	2024-11-08T10:00:00	6	Velocidad del viento	3.2
158538	7	Sololá	712	San Antonio Palopó	9	San Antonio Palopo	3	Marzo	2023-10-03T00:00:00	2024-11-08T10:00:00	7	Dirección del viento	3.22
158539	7	Sololá	712	San Antonio Palopó	9	San Antonio Palopo	3	Marzo	2023-10-03T00:00:00	2024-11-08T10:00:00	1	Precipitación	0
158540	7	Sololá	712	San Antonio Palopó	9	San Antonio Palopo	3	Marzo	2023-10-03T00:00:00	2024-11-08T10:00:00	8	Radiación solar	208
158541	7	Sololá	712	San Antonio Palopó	9	San Antonio Palopo	3	Marzo	2023-10-03T00:00:00	2024-11-08T11:00:00	2	Temperatura media	19.4
158542	7	Sololá	712	San Antonio Palopó	9	San Antonio Palopo	3	Marzo	2023-10-03T00:00:00	2024-11-08T11:00:00	4	Temperatura máxima	19.4
158543	7	Sololá	712	San Antonio Palopó	9	San Antonio Palopo	3	Marzo	2023-10-03T00:00:00	2024-11-08T11:00:00	3	Temperatura mínima	18.8
158544	7	Sololá	712	San Antonio Palopó	9	San Antonio Palopo	3	Marzo	2023-10-03T00:00:00	2024-11-08T11:00:00	5	Humedad	70
158545	7	Sololá	712	San Antonio Palopó	9	San Antonio Palopo	3	Marzo	2023-10-03T00:00:00	2024-11-08T11:00:00	6	Velocidad del viento	4.8
158546	7	Sololá	712	San Antonio Palopó	9	San Antonio Palopo	3	Marzo	2023-10-03T00:00:00	2024-11-08T11:00:00	7	Dirección del viento	4.83
158547	7	Sololá	712	San Antonio Palopó	9	San Antonio Palopo	3	Marzo	2023-10-03T00:00:00	2024-11-08T11:00:00	1	Precipitación	0
158548	7	Sololá	712	San Antonio Palopó	9	San Antonio Palopo	3	Marzo	2023-10-03T00:00:00	2024-11-08T11:00:00	8	Radiación solar	329
158549	7	Sololá	712	San Antonio Palopó	9	San Antonio Palopo	3	Marzo	2023-10-03T00:00:00	2024-11-08T12:00:00	2	Temperatura media	19.3
158550	7	Sololá	712	San Antonio Palopó	9	San Antonio Palopo	3	Marzo	2023-10-03T00:00:00	2024-11-08T12:00:00	4	Temperatura máxima	19.4
158551	7	Sololá	712	San Antonio Palopó	9	San Antonio Palopo	3	Marzo	2023-10-03T00:00:00	2024-11-08T12:00:00	3	Temperatura mínima	18.8
158552	7	Sololá	712	San Antonio Palopó	9	San Antonio Palopo	3	Marzo	2023-10-03T00:00:00	2024-11-08T12:00:00	5	Humedad	74
158553	7	Sololá	712	San Antonio Palopó	9	San Antonio Palopo	3	Marzo	2023-10-03T00:00:00	2024-11-08T12:00:00	6	Velocidad del viento	9.7
158554	7	Sololá	712	San Antonio Palopó	9	San Antonio Palopo	3	Marzo	2023-10-03T00:00:00	2024-11-08T12:00:00	7	Dirección del viento	9.66
158555	7	Sololá	712	San Antonio Palopó	9	San Antonio Palopo	3	Marzo	2023-10-03T00:00:00	2024-11-08T12:00:00	1	Precipitación	0
158556	7	Sololá	712	San Antonio Palopó	9	San Antonio Palopo	3	Marzo	2023-10-03T00:00:00	2024-11-08T12:00:00	8	Radiación solar	352
158557	7	Sololá	712	San Antonio Palopó	9	San Antonio Palopo	3	Marzo	2023-10-03T00:00:00	2024-11-08T13:00:00	2	Temperatura media	20.2
158558	7	Sololá	712	San Antonio Palopó	9	San Antonio Palopo	3	Marzo	2023-10-03T00:00:00	2024-11-08T13:00:00	4	Temperatura máxima	20.4
158559	7	Sololá	712	San Antonio Palopó	9	San Antonio Palopo	3	Marzo	2023-10-03T00:00:00	2024-11-08T13:00:00	3	Temperatura mínima	19.2
158560	7	Sololá	712	San Antonio Palopó	9	San Antonio Palopo	3	Marzo	2023-10-03T00:00:00	2024-11-08T13:00:00	5	Humedad	71
158561	7	Sololá	712	San Antonio Palopó	9	San Antonio Palopo	3	Marzo	2023-10-03T00:00:00	2024-11-08T13:00:00	6	Velocidad del viento	4.8
158562	7	Sololá	712	San Antonio Palopó	9	San Antonio Palopo	3	Marzo	2023-10-03T00:00:00	2024-11-08T13:00:00	7	Dirección del viento	4.83
158563	7	Sololá	712	San Antonio Palopó	9	San Antonio Palopo	3	Marzo	2023-10-03T00:00:00	2024-11-08T13:00:00	1	Precipitación	0
158564	7	Sololá	712	San Antonio Palopó	9	San Antonio Palopo	3	Marzo	2023-10-03T00:00:00	2024-11-08T13:00:00	8	Radiación solar	618
158565	7	Sololá	712	San Antonio Palopó	9	San Antonio Palopo	3	Marzo	2023-10-03T00:00:00	2024-11-08T14:00:00	2	Temperatura media	21.6
158566	7	Sololá	712	San Antonio Palopó	9	San Antonio Palopo	3	Marzo	2023-10-03T00:00:00	2024-11-08T14:00:00	4	Temperatura máxima	21.7
158567	7	Sololá	712	San Antonio Palopó	9	San Antonio Palopo	3	Marzo	2023-10-03T00:00:00	2024-11-08T14:00:00	3	Temperatura mínima	20.2
158568	7	Sololá	712	San Antonio Palopó	9	San Antonio Palopo	3	Marzo	2023-10-03T00:00:00	2024-11-08T14:00:00	5	Humedad	68
158569	7	Sololá	712	San Antonio Palopó	9	San Antonio Palopo	3	Marzo	2023-10-03T00:00:00	2024-11-08T14:00:00	6	Velocidad del viento	4.8
158570	7	Sololá	712	San Antonio Palopó	9	San Antonio Palopo	3	Marzo	2023-10-03T00:00:00	2024-11-08T14:00:00	7	Dirección del viento	4.83
158571	7	Sololá	712	San Antonio Palopó	9	San Antonio Palopo	3	Marzo	2023-10-03T00:00:00	2024-11-08T14:00:00	1	Precipitación	0
158572	7	Sololá	712	San Antonio Palopó	9	San Antonio Palopo	3	Marzo	2023-10-03T00:00:00	2024-11-08T14:00:00	8	Radiación solar	753
158573	7	Sololá	712	San Antonio Palopó	9	San Antonio Palopo	3	Marzo	2023-10-03T00:00:00	2024-11-08T15:00:00	2	Temperatura media	21.9
158574	7	Sololá	712	San Antonio Palopó	9	San Antonio Palopo	3	Marzo	2023-10-03T00:00:00	2024-11-08T15:00:00	4	Temperatura máxima	22
158575	7	Sololá	712	San Antonio Palopó	9	San Antonio Palopo	3	Marzo	2023-10-03T00:00:00	2024-11-08T15:00:00	3	Temperatura mínima	20.3
158576	7	Sololá	712	San Antonio Palopó	9	San Antonio Palopo	3	Marzo	2023-10-03T00:00:00	2024-11-08T15:00:00	5	Humedad	70
158577	7	Sololá	712	San Antonio Palopó	9	San Antonio Palopo	3	Marzo	2023-10-03T00:00:00	2024-11-08T15:00:00	6	Velocidad del viento	4.8
158578	7	Sololá	712	San Antonio Palopó	9	San Antonio Palopo	3	Marzo	2023-10-03T00:00:00	2024-11-08T15:00:00	7	Dirección del viento	4.83
158579	7	Sololá	712	San Antonio Palopó	9	San Antonio Palopo	3	Marzo	2023-10-03T00:00:00	2024-11-08T15:00:00	1	Precipitación	0
158580	7	Sololá	712	San Antonio Palopó	9	San Antonio Palopo	3	Marzo	2023-10-03T00:00:00	2024-11-08T15:00:00	8	Radiación solar	548
158581	7	Sololá	712	San Antonio Palopó	9	San Antonio Palopo	3	Marzo	2023-10-03T00:00:00	2024-11-08T16:00:00	2	Temperatura media	21.1
158582	7	Sololá	712	San Antonio Palopó	9	San Antonio Palopo	3	Marzo	2023-10-03T00:00:00	2024-11-08T16:00:00	4	Temperatura máxima	22
158583	7	Sololá	712	San Antonio Palopó	9	San Antonio Palopo	3	Marzo	2023-10-03T00:00:00	2024-11-08T16:00:00	3	Temperatura mínima	20.8
158584	7	Sololá	712	San Antonio Palopó	9	San Antonio Palopo	3	Marzo	2023-10-03T00:00:00	2024-11-08T16:00:00	5	Humedad	72
158585	7	Sololá	712	San Antonio Palopó	9	San Antonio Palopo	3	Marzo	2023-10-03T00:00:00	2024-11-08T16:00:00	6	Velocidad del viento	4.8
158586	7	Sololá	712	San Antonio Palopó	9	San Antonio Palopo	3	Marzo	2023-10-03T00:00:00	2024-11-08T16:00:00	7	Dirección del viento	4.83
158587	7	Sololá	712	San Antonio Palopó	9	San Antonio Palopo	3	Marzo	2023-10-03T00:00:00	2024-11-08T16:00:00	1	Precipitación	0
158588	7	Sololá	712	San Antonio Palopó	9	San Antonio Palopo	3	Marzo	2023-10-03T00:00:00	2024-11-08T16:00:00	8	Radiación solar	288
158589	7	Sololá	712	San Antonio Palopó	9	San Antonio Palopo	3	Marzo	2023-10-03T00:00:00	2024-11-08T17:00:00	2	Temperatura media	20
158590	7	Sololá	712	San Antonio Palopó	9	San Antonio Palopo	3	Marzo	2023-10-03T00:00:00	2024-11-08T17:00:00	4	Temperatura máxima	21.3
158591	7	Sololá	712	San Antonio Palopó	9	San Antonio Palopo	3	Marzo	2023-10-03T00:00:00	2024-11-08T17:00:00	3	Temperatura mínima	19.9
158592	7	Sololá	712	San Antonio Palopó	9	San Antonio Palopo	3	Marzo	2023-10-03T00:00:00	2024-11-08T17:00:00	5	Humedad	77
158593	7	Sololá	712	San Antonio Palopó	9	San Antonio Palopo	3	Marzo	2023-10-03T00:00:00	2024-11-08T17:00:00	6	Velocidad del viento	4.8
158594	7	Sololá	712	San Antonio Palopó	9	San Antonio Palopo	3	Marzo	2023-10-03T00:00:00	2024-11-08T17:00:00	7	Dirección del viento	4.83
158595	7	Sololá	712	San Antonio Palopó	9	San Antonio Palopo	3	Marzo	2023-10-03T00:00:00	2024-11-08T17:00:00	1	Precipitación	0
158596	7	Sololá	712	San Antonio Palopó	9	San Antonio Palopo	3	Marzo	2023-10-03T00:00:00	2024-11-08T17:00:00	8	Radiación solar	200
158597	7	Sololá	712	San Antonio Palopó	9	San Antonio Palopo	3	Marzo	2023-10-03T00:00:00	2024-11-08T18:00:00	2	Temperatura media	19.6
158598	7	Sololá	712	San Antonio Palopó	9	San Antonio Palopo	3	Marzo	2023-10-03T00:00:00	2024-11-08T18:00:00	4	Temperatura máxima	20.2
158599	7	Sololá	712	San Antonio Palopó	9	San Antonio Palopo	3	Marzo	2023-10-03T00:00:00	2024-11-08T18:00:00	3	Temperatura mínima	19.6
158600	7	Sololá	712	San Antonio Palopó	9	San Antonio Palopo	3	Marzo	2023-10-03T00:00:00	2024-11-08T18:00:00	5	Humedad	78
158601	7	Sololá	712	San Antonio Palopó	9	San Antonio Palopo	3	Marzo	2023-10-03T00:00:00	2024-11-08T18:00:00	6	Velocidad del viento	3.2
158602	7	Sololá	712	San Antonio Palopó	9	San Antonio Palopo	3	Marzo	2023-10-03T00:00:00	2024-11-08T18:00:00	7	Dirección del viento	3.22
158603	7	Sololá	712	San Antonio Palopó	9	San Antonio Palopo	3	Marzo	2023-10-03T00:00:00	2024-11-08T18:00:00	1	Precipitación	0
158604	7	Sololá	712	San Antonio Palopó	9	San Antonio Palopo	3	Marzo	2023-10-03T00:00:00	2024-11-08T18:00:00	8	Radiación solar	69
158605	7	Sololá	712	San Antonio Palopó	9	San Antonio Palopo	3	Marzo	2023-10-03T00:00:00	2024-11-08T19:00:00	2	Temperatura media	19.3
158606	7	Sololá	712	San Antonio Palopó	9	San Antonio Palopo	3	Marzo	2023-10-03T00:00:00	2024-11-08T19:00:00	4	Temperatura máxima	19.6
158607	7	Sololá	712	San Antonio Palopó	9	San Antonio Palopo	3	Marzo	2023-10-03T00:00:00	2024-11-08T19:00:00	3	Temperatura mínima	19.1
158608	7	Sololá	712	San Antonio Palopó	9	San Antonio Palopo	3	Marzo	2023-10-03T00:00:00	2024-11-08T19:00:00	5	Humedad	77
158609	7	Sololá	712	San Antonio Palopó	9	San Antonio Palopo	3	Marzo	2023-10-03T00:00:00	2024-11-08T19:00:00	6	Velocidad del viento	1.6
158610	7	Sololá	712	San Antonio Palopó	9	San Antonio Palopo	3	Marzo	2023-10-03T00:00:00	2024-11-08T19:00:00	7	Dirección del viento	1.61
158611	7	Sololá	712	San Antonio Palopó	9	San Antonio Palopo	3	Marzo	2023-10-03T00:00:00	2024-11-08T19:00:00	1	Precipitación	0
158612	7	Sololá	712	San Antonio Palopó	9	San Antonio Palopo	3	Marzo	2023-10-03T00:00:00	2024-11-08T19:00:00	8	Radiación solar	0
158613	7	Sololá	712	San Antonio Palopó	9	San Antonio Palopo	3	Marzo	2023-10-03T00:00:00	2024-11-08T20:00:00	2	Temperatura media	18.6
158614	7	Sololá	712	San Antonio Palopó	9	San Antonio Palopo	3	Marzo	2023-10-03T00:00:00	2024-11-08T20:00:00	4	Temperatura máxima	19.3
158615	7	Sololá	712	San Antonio Palopó	9	San Antonio Palopo	3	Marzo	2023-10-03T00:00:00	2024-11-08T20:00:00	3	Temperatura mínima	18.6
158616	7	Sololá	712	San Antonio Palopó	9	San Antonio Palopo	3	Marzo	2023-10-03T00:00:00	2024-11-08T20:00:00	5	Humedad	82
158617	7	Sololá	712	San Antonio Palopó	9	San Antonio Palopo	3	Marzo	2023-10-03T00:00:00	2024-11-08T20:00:00	6	Velocidad del viento	3.2
158618	7	Sololá	712	San Antonio Palopó	9	San Antonio Palopo	3	Marzo	2023-10-03T00:00:00	2024-11-08T20:00:00	7	Dirección del viento	3.22
158619	7	Sololá	712	San Antonio Palopó	9	San Antonio Palopo	3	Marzo	2023-10-03T00:00:00	2024-11-08T20:00:00	1	Precipitación	0
158620	7	Sololá	712	San Antonio Palopó	9	San Antonio Palopo	3	Marzo	2023-10-03T00:00:00	2024-11-08T20:00:00	8	Radiación solar	0
158621	7	Sololá	712	San Antonio Palopó	9	San Antonio Palopo	3	Marzo	2023-10-03T00:00:00	2024-11-08T21:00:00	2	Temperatura media	18.3
158622	7	Sololá	712	San Antonio Palopó	9	San Antonio Palopo	3	Marzo	2023-10-03T00:00:00	2024-11-08T21:00:00	4	Temperatura máxima	18.7
158623	7	Sololá	712	San Antonio Palopó	9	San Antonio Palopo	3	Marzo	2023-10-03T00:00:00	2024-11-08T21:00:00	3	Temperatura mínima	18.3
158624	7	Sololá	712	San Antonio Palopó	9	San Antonio Palopo	3	Marzo	2023-10-03T00:00:00	2024-11-08T21:00:00	5	Humedad	79
158625	7	Sololá	712	San Antonio Palopó	9	San Antonio Palopo	3	Marzo	2023-10-03T00:00:00	2024-11-08T21:00:00	6	Velocidad del viento	1.6
158626	7	Sololá	712	San Antonio Palopó	9	San Antonio Palopo	3	Marzo	2023-10-03T00:00:00	2024-11-08T21:00:00	7	Dirección del viento	1.61
158627	7	Sololá	712	San Antonio Palopó	9	San Antonio Palopo	3	Marzo	2023-10-03T00:00:00	2024-11-08T21:00:00	1	Precipitación	0
158628	7	Sololá	712	San Antonio Palopó	9	San Antonio Palopo	3	Marzo	2023-10-03T00:00:00	2024-11-08T21:00:00	8	Radiación solar	0
158629	7	Sololá	712	San Antonio Palopó	9	San Antonio Palopo	3	Marzo	2023-10-03T00:00:00	2024-11-08T22:00:00	2	Temperatura media	17.8
158630	7	Sololá	712	San Antonio Palopó	9	San Antonio Palopo	3	Marzo	2023-10-03T00:00:00	2024-11-08T22:00:00	4	Temperatura máxima	18.4
158631	7	Sololá	712	San Antonio Palopó	9	San Antonio Palopo	3	Marzo	2023-10-03T00:00:00	2024-11-08T22:00:00	3	Temperatura mínima	17.8
158632	7	Sololá	712	San Antonio Palopó	9	San Antonio Palopo	3	Marzo	2023-10-03T00:00:00	2024-11-08T22:00:00	5	Humedad	82
158633	7	Sololá	712	San Antonio Palopó	9	San Antonio Palopo	3	Marzo	2023-10-03T00:00:00	2024-11-08T22:00:00	6	Velocidad del viento	1.6
158634	7	Sololá	712	San Antonio Palopó	9	San Antonio Palopo	3	Marzo	2023-10-03T00:00:00	2024-11-08T22:00:00	7	Dirección del viento	1.61
158635	7	Sololá	712	San Antonio Palopó	9	San Antonio Palopo	3	Marzo	2023-10-03T00:00:00	2024-11-08T22:00:00	1	Precipitación	0
158636	7	Sololá	712	San Antonio Palopó	9	San Antonio Palopo	3	Marzo	2023-10-03T00:00:00	2024-11-08T22:00:00	8	Radiación solar	0
158637	7	Sololá	712	San Antonio Palopó	9	San Antonio Palopo	3	Marzo	2023-10-03T00:00:00	2024-11-08T23:00:00	2	Temperatura media	18.1
158638	7	Sololá	712	San Antonio Palopó	9	San Antonio Palopo	3	Marzo	2023-10-03T00:00:00	2024-11-08T23:00:00	4	Temperatura máxima	18.1
158639	7	Sololá	712	San Antonio Palopó	9	San Antonio Palopo	3	Marzo	2023-10-03T00:00:00	2024-11-08T23:00:00	3	Temperatura mínima	17.4
158640	7	Sololá	712	San Antonio Palopó	9	San Antonio Palopo	3	Marzo	2023-10-03T00:00:00	2024-11-08T23:00:00	5	Humedad	82
158641	7	Sololá	712	San Antonio Palopó	9	San Antonio Palopo	3	Marzo	2023-10-03T00:00:00	2024-11-08T23:00:00	6	Velocidad del viento	3.2
158642	7	Sololá	712	San Antonio Palopó	9	San Antonio Palopo	3	Marzo	2023-10-03T00:00:00	2024-11-08T23:00:00	7	Dirección del viento	3.22
158643	7	Sololá	712	San Antonio Palopó	9	San Antonio Palopo	3	Marzo	2023-10-03T00:00:00	2024-11-08T23:00:00	1	Precipitación	0
158644	7	Sololá	712	San Antonio Palopó	9	San Antonio Palopo	3	Marzo	2023-10-03T00:00:00	2024-11-08T23:00:00	8	Radiación solar	0
158645	7	Sololá	712	San Antonio Palopó	9	San Antonio Palopo	3	Marzo	2023-11-03T00:00:00	2024-11-08T00:00:00	2	Temperatura media	17.8
158646	7	Sololá	712	San Antonio Palopó	9	San Antonio Palopo	3	Marzo	2023-11-03T00:00:00	2024-11-08T00:00:00	4	Temperatura máxima	18.2
158647	7	Sololá	712	San Antonio Palopó	9	San Antonio Palopo	3	Marzo	2023-11-03T00:00:00	2024-11-08T00:00:00	3	Temperatura mínima	17.8
158648	7	Sololá	712	San Antonio Palopó	9	San Antonio Palopo	3	Marzo	2023-11-03T00:00:00	2024-11-08T00:00:00	5	Humedad	85
158649	7	Sololá	712	San Antonio Palopó	9	San Antonio Palopo	3	Marzo	2023-11-03T00:00:00	2024-11-08T00:00:00	6	Velocidad del viento	3.2
158650	7	Sololá	712	San Antonio Palopó	9	San Antonio Palopo	3	Marzo	2023-11-03T00:00:00	2024-11-08T00:00:00	7	Dirección del viento	3.22
158651	7	Sololá	712	San Antonio Palopó	9	San Antonio Palopo	3	Marzo	2023-11-03T00:00:00	2024-11-08T00:00:00	1	Precipitación	0
158652	7	Sololá	712	San Antonio Palopó	9	San Antonio Palopo	3	Marzo	2023-11-03T00:00:00	2024-11-08T00:00:00	8	Radiación solar	0
158653	7	Sololá	712	San Antonio Palopó	9	San Antonio Palopo	3	Marzo	2023-11-03T00:00:00	2024-11-08T01:00:00	2	Temperatura media	18.3
158654	7	Sololá	712	San Antonio Palopó	9	San Antonio Palopo	3	Marzo	2023-11-03T00:00:00	2024-11-08T01:00:00	4	Temperatura máxima	18.3
158655	7	Sololá	712	San Antonio Palopó	9	San Antonio Palopo	3	Marzo	2023-11-03T00:00:00	2024-11-08T01:00:00	3	Temperatura mínima	17.7
158656	7	Sololá	712	San Antonio Palopó	9	San Antonio Palopo	3	Marzo	2023-11-03T00:00:00	2024-11-08T01:00:00	5	Humedad	78
158657	7	Sololá	712	San Antonio Palopó	9	San Antonio Palopo	3	Marzo	2023-11-03T00:00:00	2024-11-08T01:00:00	6	Velocidad del viento	1.6
158658	7	Sololá	712	San Antonio Palopó	9	San Antonio Palopo	3	Marzo	2023-11-03T00:00:00	2024-11-08T01:00:00	7	Dirección del viento	1.61
158659	7	Sololá	712	San Antonio Palopó	9	San Antonio Palopo	3	Marzo	2023-11-03T00:00:00	2024-11-08T01:00:00	1	Precipitación	0
158660	7	Sololá	712	San Antonio Palopó	9	San Antonio Palopo	3	Marzo	2023-11-03T00:00:00	2024-11-08T01:00:00	8	Radiación solar	0
158661	7	Sololá	712	San Antonio Palopó	9	San Antonio Palopo	3	Marzo	2023-11-03T00:00:00	2024-11-08T02:00:00	2	Temperatura media	17.9
158662	7	Sololá	712	San Antonio Palopó	9	San Antonio Palopo	3	Marzo	2023-11-03T00:00:00	2024-11-08T02:00:00	4	Temperatura máxima	18.3
158663	7	Sololá	712	San Antonio Palopó	9	San Antonio Palopo	3	Marzo	2023-11-03T00:00:00	2024-11-08T02:00:00	3	Temperatura mínima	17.7
158664	7	Sololá	712	San Antonio Palopó	9	San Antonio Palopo	3	Marzo	2023-11-03T00:00:00	2024-11-08T02:00:00	5	Humedad	77
158665	7	Sololá	712	San Antonio Palopó	9	San Antonio Palopo	3	Marzo	2023-11-03T00:00:00	2024-11-08T02:00:00	6	Velocidad del viento	3.2
158666	7	Sololá	712	San Antonio Palopó	9	San Antonio Palopo	3	Marzo	2023-11-03T00:00:00	2024-11-08T02:00:00	7	Dirección del viento	3.22
158667	7	Sololá	712	San Antonio Palopó	9	San Antonio Palopo	3	Marzo	2023-11-03T00:00:00	2024-11-08T02:00:00	1	Precipitación	0
158668	7	Sololá	712	San Antonio Palopó	9	San Antonio Palopo	3	Marzo	2023-11-03T00:00:00	2024-11-08T02:00:00	8	Radiación solar	0
158669	7	Sololá	712	San Antonio Palopó	9	San Antonio Palopo	3	Marzo	2023-11-03T00:00:00	2024-11-08T03:00:00	2	Temperatura media	17.3
158670	7	Sololá	712	San Antonio Palopó	9	San Antonio Palopo	3	Marzo	2023-11-03T00:00:00	2024-11-08T03:00:00	4	Temperatura máxima	17.9
158671	7	Sololá	712	San Antonio Palopó	9	San Antonio Palopo	3	Marzo	2023-11-03T00:00:00	2024-11-08T03:00:00	3	Temperatura mínima	17.3
158672	7	Sololá	712	San Antonio Palopó	9	San Antonio Palopo	3	Marzo	2023-11-03T00:00:00	2024-11-08T03:00:00	5	Humedad	77
158673	7	Sololá	712	San Antonio Palopó	9	San Antonio Palopo	3	Marzo	2023-11-03T00:00:00	2024-11-08T03:00:00	6	Velocidad del viento	6.4
158674	7	Sololá	712	San Antonio Palopó	9	San Antonio Palopo	3	Marzo	2023-11-03T00:00:00	2024-11-08T03:00:00	7	Dirección del viento	6.44
158675	7	Sololá	712	San Antonio Palopó	9	San Antonio Palopo	3	Marzo	2023-11-03T00:00:00	2024-11-08T03:00:00	1	Precipitación	0
158676	7	Sololá	712	San Antonio Palopó	9	San Antonio Palopo	3	Marzo	2023-11-03T00:00:00	2024-11-08T03:00:00	8	Radiación solar	0
158677	7	Sololá	712	San Antonio Palopó	9	San Antonio Palopo	3	Marzo	2023-11-03T00:00:00	2024-11-08T04:00:00	2	Temperatura media	16.9
158678	7	Sololá	712	San Antonio Palopó	9	San Antonio Palopo	3	Marzo	2023-11-03T00:00:00	2024-11-08T04:00:00	4	Temperatura máxima	17.3
158679	7	Sololá	712	San Antonio Palopó	9	San Antonio Palopo	3	Marzo	2023-11-03T00:00:00	2024-11-08T04:00:00	3	Temperatura mínima	16.9
158680	7	Sololá	712	San Antonio Palopó	9	San Antonio Palopo	3	Marzo	2023-11-03T00:00:00	2024-11-08T04:00:00	5	Humedad	78
158681	7	Sololá	712	San Antonio Palopó	9	San Antonio Palopo	3	Marzo	2023-11-03T00:00:00	2024-11-08T04:00:00	6	Velocidad del viento	3.2
158682	7	Sololá	712	San Antonio Palopó	9	San Antonio Palopo	3	Marzo	2023-11-03T00:00:00	2024-11-08T04:00:00	7	Dirección del viento	3.22
158683	7	Sololá	712	San Antonio Palopó	9	San Antonio Palopo	3	Marzo	2023-11-03T00:00:00	2024-11-08T04:00:00	1	Precipitación	0
158684	7	Sololá	712	San Antonio Palopó	9	San Antonio Palopo	3	Marzo	2023-11-03T00:00:00	2024-11-08T04:00:00	8	Radiación solar	0
158685	7	Sololá	712	San Antonio Palopó	9	San Antonio Palopo	3	Marzo	2023-11-03T00:00:00	2024-11-08T05:00:00	2	Temperatura media	16.9
158686	7	Sololá	712	San Antonio Palopó	9	San Antonio Palopo	3	Marzo	2023-11-03T00:00:00	2024-11-08T05:00:00	4	Temperatura máxima	16.9
158687	7	Sololá	712	San Antonio Palopó	9	San Antonio Palopo	3	Marzo	2023-11-03T00:00:00	2024-11-08T05:00:00	3	Temperatura mínima	16.6
158688	7	Sololá	712	San Antonio Palopó	9	San Antonio Palopo	3	Marzo	2023-11-03T00:00:00	2024-11-08T05:00:00	5	Humedad	78
158689	7	Sololá	712	San Antonio Palopó	9	San Antonio Palopo	3	Marzo	2023-11-03T00:00:00	2024-11-08T05:00:00	6	Velocidad del viento	3.2
158690	7	Sololá	712	San Antonio Palopó	9	San Antonio Palopo	3	Marzo	2023-11-03T00:00:00	2024-11-08T05:00:00	7	Dirección del viento	3.22
158691	7	Sololá	712	San Antonio Palopó	9	San Antonio Palopo	3	Marzo	2023-11-03T00:00:00	2024-11-08T05:00:00	1	Precipitación	0
158692	7	Sololá	712	San Antonio Palopó	9	San Antonio Palopo	3	Marzo	2023-11-03T00:00:00	2024-11-08T05:00:00	8	Radiación solar	0
158693	7	Sololá	712	San Antonio Palopó	9	San Antonio Palopo	3	Marzo	2023-11-03T00:00:00	2024-11-08T06:00:00	2	Temperatura media	17.2
158694	7	Sololá	712	San Antonio Palopó	9	San Antonio Palopo	3	Marzo	2023-11-03T00:00:00	2024-11-08T06:00:00	4	Temperatura máxima	17.3
158695	7	Sololá	712	San Antonio Palopó	9	San Antonio Palopo	3	Marzo	2023-11-03T00:00:00	2024-11-08T06:00:00	3	Temperatura mínima	16.9
158696	7	Sololá	712	San Antonio Palopó	9	San Antonio Palopo	3	Marzo	2023-11-03T00:00:00	2024-11-08T06:00:00	5	Humedad	79
158697	7	Sololá	712	San Antonio Palopó	9	San Antonio Palopo	3	Marzo	2023-11-03T00:00:00	2024-11-08T06:00:00	6	Velocidad del viento	1.6
158698	7	Sololá	712	San Antonio Palopó	9	San Antonio Palopo	3	Marzo	2023-11-03T00:00:00	2024-11-08T06:00:00	7	Dirección del viento	1.61
158699	7	Sololá	712	San Antonio Palopó	9	San Antonio Palopo	3	Marzo	2023-11-03T00:00:00	2024-11-08T06:00:00	1	Precipitación	0
158700	7	Sololá	712	San Antonio Palopó	9	San Antonio Palopo	3	Marzo	2023-11-03T00:00:00	2024-11-08T06:00:00	8	Radiación solar	0
158701	7	Sololá	712	San Antonio Palopó	9	San Antonio Palopo	3	Marzo	2023-11-03T00:00:00	2024-11-08T07:00:00	2	Temperatura media	17.2
158702	7	Sololá	712	San Antonio Palopó	9	San Antonio Palopo	3	Marzo	2023-11-03T00:00:00	2024-11-08T07:00:00	4	Temperatura máxima	17.3
158703	7	Sololá	712	San Antonio Palopó	9	San Antonio Palopo	3	Marzo	2023-11-03T00:00:00	2024-11-08T07:00:00	3	Temperatura mínima	17.1
158704	7	Sololá	712	San Antonio Palopó	9	San Antonio Palopo	3	Marzo	2023-11-03T00:00:00	2024-11-08T07:00:00	5	Humedad	83
158705	7	Sololá	712	San Antonio Palopó	9	San Antonio Palopo	3	Marzo	2023-11-03T00:00:00	2024-11-08T07:00:00	6	Velocidad del viento	3.2
158706	7	Sololá	712	San Antonio Palopó	9	San Antonio Palopo	3	Marzo	2023-11-03T00:00:00	2024-11-08T07:00:00	7	Dirección del viento	3.22
158707	7	Sololá	712	San Antonio Palopó	9	San Antonio Palopo	3	Marzo	2023-11-03T00:00:00	2024-11-08T07:00:00	1	Precipitación	0
158708	7	Sololá	712	San Antonio Palopó	9	San Antonio Palopo	3	Marzo	2023-11-03T00:00:00	2024-11-08T07:00:00	8	Radiación solar	12
158709	7	Sololá	712	San Antonio Palopó	9	San Antonio Palopo	3	Marzo	2023-11-03T00:00:00	2024-11-08T08:00:00	2	Temperatura media	17.8
158710	7	Sololá	712	San Antonio Palopó	9	San Antonio Palopo	3	Marzo	2023-11-03T00:00:00	2024-11-08T08:00:00	4	Temperatura máxima	17.8
158711	7	Sololá	712	San Antonio Palopó	9	San Antonio Palopo	3	Marzo	2023-11-03T00:00:00	2024-11-08T08:00:00	3	Temperatura mínima	17.2
158712	7	Sololá	712	San Antonio Palopó	9	San Antonio Palopo	3	Marzo	2023-11-03T00:00:00	2024-11-08T08:00:00	5	Humedad	81
158713	7	Sololá	712	San Antonio Palopó	9	San Antonio Palopo	3	Marzo	2023-11-03T00:00:00	2024-11-08T08:00:00	6	Velocidad del viento	1.6
158714	7	Sololá	712	San Antonio Palopó	9	San Antonio Palopo	3	Marzo	2023-11-03T00:00:00	2024-11-08T08:00:00	7	Dirección del viento	1.61
158715	7	Sololá	712	San Antonio Palopó	9	San Antonio Palopo	3	Marzo	2023-11-03T00:00:00	2024-11-08T08:00:00	1	Precipitación	0
158716	7	Sololá	712	San Antonio Palopó	9	San Antonio Palopo	3	Marzo	2023-11-03T00:00:00	2024-11-08T08:00:00	8	Radiación solar	83
158717	7	Sololá	712	San Antonio Palopó	9	San Antonio Palopo	3	Marzo	2023-11-03T00:00:00	2024-11-08T09:00:00	2	Temperatura media	18.4
158718	7	Sololá	712	San Antonio Palopó	9	San Antonio Palopo	3	Marzo	2023-11-03T00:00:00	2024-11-08T09:00:00	4	Temperatura máxima	18.4
158719	7	Sololá	712	San Antonio Palopó	9	San Antonio Palopo	3	Marzo	2023-11-03T00:00:00	2024-11-08T09:00:00	3	Temperatura mínima	17.8
158720	7	Sololá	712	San Antonio Palopó	9	San Antonio Palopo	3	Marzo	2023-11-03T00:00:00	2024-11-08T09:00:00	5	Humedad	81
158721	7	Sololá	712	San Antonio Palopó	9	San Antonio Palopo	3	Marzo	2023-11-03T00:00:00	2024-11-08T09:00:00	6	Velocidad del viento	3.2
158722	7	Sololá	712	San Antonio Palopó	9	San Antonio Palopo	3	Marzo	2023-11-03T00:00:00	2024-11-08T09:00:00	7	Dirección del viento	3.22
158723	7	Sololá	712	San Antonio Palopó	9	San Antonio Palopo	3	Marzo	2023-11-03T00:00:00	2024-11-08T09:00:00	1	Precipitación	0
158724	7	Sololá	712	San Antonio Palopó	9	San Antonio Palopo	3	Marzo	2023-11-03T00:00:00	2024-11-08T09:00:00	8	Radiación solar	170
158725	7	Sololá	712	San Antonio Palopó	9	San Antonio Palopo	3	Marzo	2023-11-03T00:00:00	2024-11-08T10:00:00	2	Temperatura media	19.4
158726	7	Sololá	712	San Antonio Palopó	9	San Antonio Palopo	3	Marzo	2023-11-03T00:00:00	2024-11-08T10:00:00	4	Temperatura máxima	19.5
158727	7	Sololá	712	San Antonio Palopó	9	San Antonio Palopo	3	Marzo	2023-11-03T00:00:00	2024-11-08T10:00:00	3	Temperatura mínima	18.3
158728	7	Sololá	712	San Antonio Palopó	9	San Antonio Palopo	3	Marzo	2023-11-03T00:00:00	2024-11-08T10:00:00	5	Humedad	76
158729	7	Sololá	712	San Antonio Palopó	9	San Antonio Palopo	3	Marzo	2023-11-03T00:00:00	2024-11-08T10:00:00	6	Velocidad del viento	4.8
158730	7	Sololá	712	San Antonio Palopó	9	San Antonio Palopo	3	Marzo	2023-11-03T00:00:00	2024-11-08T10:00:00	7	Dirección del viento	4.83
158731	7	Sololá	712	San Antonio Palopó	9	San Antonio Palopo	3	Marzo	2023-11-03T00:00:00	2024-11-08T10:00:00	1	Precipitación	0
158732	7	Sololá	712	San Antonio Palopó	9	San Antonio Palopo	3	Marzo	2023-11-03T00:00:00	2024-11-08T10:00:00	8	Radiación solar	294
158733	7	Sololá	712	San Antonio Palopó	9	San Antonio Palopo	3	Marzo	2023-11-03T00:00:00	2024-11-08T11:00:00	2	Temperatura media	20.3
158734	7	Sololá	712	San Antonio Palopó	9	San Antonio Palopo	3	Marzo	2023-11-03T00:00:00	2024-11-08T11:00:00	4	Temperatura máxima	20.6
158735	7	Sololá	712	San Antonio Palopó	9	San Antonio Palopo	3	Marzo	2023-11-03T00:00:00	2024-11-08T11:00:00	3	Temperatura mínima	19.4
158736	7	Sololá	712	San Antonio Palopó	9	San Antonio Palopo	3	Marzo	2023-11-03T00:00:00	2024-11-08T11:00:00	5	Humedad	76
158737	7	Sololá	712	San Antonio Palopó	9	San Antonio Palopo	3	Marzo	2023-11-03T00:00:00	2024-11-08T11:00:00	6	Velocidad del viento	6.4
158738	7	Sololá	712	San Antonio Palopó	9	San Antonio Palopo	3	Marzo	2023-11-03T00:00:00	2024-11-08T11:00:00	7	Dirección del viento	6.44
158739	7	Sololá	712	San Antonio Palopó	9	San Antonio Palopo	3	Marzo	2023-11-03T00:00:00	2024-11-08T11:00:00	1	Precipitación	0
158740	7	Sololá	712	San Antonio Palopó	9	San Antonio Palopo	3	Marzo	2023-11-03T00:00:00	2024-11-08T11:00:00	8	Radiación solar	714
158741	7	Sololá	712	San Antonio Palopó	9	San Antonio Palopo	3	Marzo	2023-11-03T00:00:00	2024-11-08T12:00:00	2	Temperatura media	20.7
158742	7	Sololá	712	San Antonio Palopó	9	San Antonio Palopo	3	Marzo	2023-11-03T00:00:00	2024-11-08T12:00:00	4	Temperatura máxima	21.7
158743	7	Sololá	712	San Antonio Palopó	9	San Antonio Palopo	3	Marzo	2023-11-03T00:00:00	2024-11-08T12:00:00	3	Temperatura mínima	20.1
158744	7	Sololá	712	San Antonio Palopó	9	San Antonio Palopo	3	Marzo	2023-11-03T00:00:00	2024-11-08T12:00:00	5	Humedad	76
158745	7	Sololá	712	San Antonio Palopó	9	San Antonio Palopo	3	Marzo	2023-11-03T00:00:00	2024-11-08T12:00:00	6	Velocidad del viento	8
158746	7	Sololá	712	San Antonio Palopó	9	San Antonio Palopo	3	Marzo	2023-11-03T00:00:00	2024-11-08T12:00:00	7	Dirección del viento	8.05
158747	7	Sololá	712	San Antonio Palopó	9	San Antonio Palopo	3	Marzo	2023-11-03T00:00:00	2024-11-08T12:00:00	1	Precipitación	0
158748	7	Sololá	712	San Antonio Palopó	9	San Antonio Palopo	3	Marzo	2023-11-03T00:00:00	2024-11-08T12:00:00	8	Radiación solar	712
158749	7	Sololá	712	San Antonio Palopó	9	San Antonio Palopo	3	Marzo	2023-11-03T00:00:00	2024-11-08T13:00:00	2	Temperatura media	21.3
158750	7	Sololá	712	San Antonio Palopó	9	San Antonio Palopo	3	Marzo	2023-11-03T00:00:00	2024-11-08T13:00:00	4	Temperatura máxima	21.9
158751	7	Sololá	712	San Antonio Palopó	9	San Antonio Palopo	3	Marzo	2023-11-03T00:00:00	2024-11-08T13:00:00	3	Temperatura mínima	20.2
158752	7	Sololá	712	San Antonio Palopó	9	San Antonio Palopo	3	Marzo	2023-11-03T00:00:00	2024-11-08T13:00:00	5	Humedad	71
158753	7	Sololá	712	San Antonio Palopó	9	San Antonio Palopo	3	Marzo	2023-11-03T00:00:00	2024-11-08T13:00:00	6	Velocidad del viento	8
158754	7	Sololá	712	San Antonio Palopó	9	San Antonio Palopo	3	Marzo	2023-11-03T00:00:00	2024-11-08T13:00:00	7	Dirección del viento	8.05
158755	7	Sololá	712	San Antonio Palopó	9	San Antonio Palopo	3	Marzo	2023-11-03T00:00:00	2024-11-08T13:00:00	1	Precipitación	0
158756	7	Sololá	712	San Antonio Palopó	9	San Antonio Palopo	3	Marzo	2023-11-03T00:00:00	2024-11-08T13:00:00	8	Radiación solar	740
158757	7	Sololá	712	San Antonio Palopó	9	San Antonio Palopo	3	Marzo	2023-11-03T00:00:00	2024-11-08T14:00:00	2	Temperatura media	20.5
158758	7	Sololá	712	San Antonio Palopó	9	San Antonio Palopo	3	Marzo	2023-11-03T00:00:00	2024-11-08T14:00:00	4	Temperatura máxima	21.7
158759	7	Sololá	712	San Antonio Palopó	9	San Antonio Palopo	3	Marzo	2023-11-03T00:00:00	2024-11-08T14:00:00	3	Temperatura mínima	20.5
158760	7	Sololá	712	San Antonio Palopó	9	San Antonio Palopo	3	Marzo	2023-11-03T00:00:00	2024-11-08T14:00:00	5	Humedad	74
158761	7	Sololá	712	San Antonio Palopó	9	San Antonio Palopo	3	Marzo	2023-11-03T00:00:00	2024-11-08T14:00:00	6	Velocidad del viento	9.7
158762	7	Sololá	712	San Antonio Palopó	9	San Antonio Palopo	3	Marzo	2023-11-03T00:00:00	2024-11-08T14:00:00	7	Dirección del viento	9.66
158763	7	Sololá	712	San Antonio Palopó	9	San Antonio Palopo	3	Marzo	2023-11-03T00:00:00	2024-11-08T14:00:00	1	Precipitación	0
158764	7	Sololá	712	San Antonio Palopó	9	San Antonio Palopo	3	Marzo	2023-11-03T00:00:00	2024-11-08T14:00:00	8	Radiación solar	439
158765	7	Sololá	712	San Antonio Palopó	9	San Antonio Palopo	3	Marzo	2023-11-03T00:00:00	2024-11-08T15:00:00	2	Temperatura media	20.4
158766	7	Sololá	712	San Antonio Palopó	9	San Antonio Palopo	3	Marzo	2023-11-03T00:00:00	2024-11-08T15:00:00	4	Temperatura máxima	21.6
158767	7	Sololá	712	San Antonio Palopó	9	San Antonio Palopo	3	Marzo	2023-11-03T00:00:00	2024-11-08T15:00:00	3	Temperatura mínima	20.3
158768	7	Sololá	712	San Antonio Palopó	9	San Antonio Palopo	3	Marzo	2023-11-03T00:00:00	2024-11-08T15:00:00	5	Humedad	76
158769	7	Sololá	712	San Antonio Palopó	9	San Antonio Palopo	3	Marzo	2023-11-03T00:00:00	2024-11-08T15:00:00	6	Velocidad del viento	11.3
158770	7	Sololá	712	San Antonio Palopó	9	San Antonio Palopo	3	Marzo	2023-11-03T00:00:00	2024-11-08T15:00:00	7	Dirección del viento	11.27
158771	7	Sololá	712	San Antonio Palopó	9	San Antonio Palopo	3	Marzo	2023-11-03T00:00:00	2024-11-08T15:00:00	1	Precipitación	0
158772	7	Sololá	712	San Antonio Palopó	9	San Antonio Palopo	3	Marzo	2023-11-03T00:00:00	2024-11-08T15:00:00	8	Radiación solar	522
158773	7	Sololá	712	San Antonio Palopó	9	San Antonio Palopo	3	Marzo	2023-11-03T00:00:00	2024-11-08T16:00:00	2	Temperatura media	20.4
158774	7	Sololá	712	San Antonio Palopó	9	San Antonio Palopo	3	Marzo	2023-11-03T00:00:00	2024-11-08T16:00:00	4	Temperatura máxima	20.7
158775	7	Sololá	712	San Antonio Palopó	9	San Antonio Palopo	3	Marzo	2023-11-03T00:00:00	2024-11-08T16:00:00	3	Temperatura mínima	20
158776	7	Sololá	712	San Antonio Palopó	9	San Antonio Palopo	3	Marzo	2023-11-03T00:00:00	2024-11-08T16:00:00	5	Humedad	77
158777	7	Sololá	712	San Antonio Palopó	9	San Antonio Palopo	3	Marzo	2023-11-03T00:00:00	2024-11-08T16:00:00	6	Velocidad del viento	11.3
158778	7	Sololá	712	San Antonio Palopó	9	San Antonio Palopo	3	Marzo	2023-11-03T00:00:00	2024-11-08T16:00:00	7	Dirección del viento	11.27
158779	7	Sololá	712	San Antonio Palopó	9	San Antonio Palopo	3	Marzo	2023-11-03T00:00:00	2024-11-08T16:00:00	1	Precipitación	0
158780	7	Sololá	712	San Antonio Palopó	9	San Antonio Palopo	3	Marzo	2023-11-03T00:00:00	2024-11-08T16:00:00	8	Radiación solar	462
158781	7	Sololá	712	San Antonio Palopó	9	San Antonio Palopo	3	Marzo	2023-11-03T00:00:00	2024-11-08T17:00:00	2	Temperatura media	21.1
158782	7	Sololá	712	San Antonio Palopó	9	San Antonio Palopo	3	Marzo	2023-11-03T00:00:00	2024-11-08T17:00:00	4	Temperatura máxima	21.3
158783	7	Sololá	712	San Antonio Palopó	9	San Antonio Palopo	3	Marzo	2023-11-03T00:00:00	2024-11-08T17:00:00	3	Temperatura mínima	20.3
158784	7	Sololá	712	San Antonio Palopó	9	San Antonio Palopo	3	Marzo	2023-11-03T00:00:00	2024-11-08T17:00:00	5	Humedad	75
158785	7	Sololá	712	San Antonio Palopó	9	San Antonio Palopo	3	Marzo	2023-11-03T00:00:00	2024-11-08T17:00:00	6	Velocidad del viento	4.8
158786	7	Sololá	712	San Antonio Palopó	9	San Antonio Palopo	3	Marzo	2023-11-03T00:00:00	2024-11-08T17:00:00	7	Dirección del viento	4.83
158787	7	Sololá	712	San Antonio Palopó	9	San Antonio Palopo	3	Marzo	2023-11-03T00:00:00	2024-11-08T17:00:00	1	Precipitación	0
158788	7	Sololá	712	San Antonio Palopó	9	San Antonio Palopo	3	Marzo	2023-11-03T00:00:00	2024-11-08T17:00:00	8	Radiación solar	297
158789	7	Sololá	712	San Antonio Palopó	9	San Antonio Palopo	3	Marzo	2023-11-03T00:00:00	2024-11-08T18:00:00	2	Temperatura media	19.7
158790	7	Sololá	712	San Antonio Palopó	9	San Antonio Palopo	3	Marzo	2023-11-03T00:00:00	2024-11-08T18:00:00	4	Temperatura máxima	21.2
158791	7	Sololá	712	San Antonio Palopó	9	San Antonio Palopo	3	Marzo	2023-11-03T00:00:00	2024-11-08T18:00:00	3	Temperatura mínima	19.7
158792	7	Sololá	712	San Antonio Palopó	9	San Antonio Palopo	3	Marzo	2023-11-03T00:00:00	2024-11-08T18:00:00	5	Humedad	81
158793	7	Sololá	712	San Antonio Palopó	9	San Antonio Palopo	3	Marzo	2023-11-03T00:00:00	2024-11-08T18:00:00	6	Velocidad del viento	4.8
158794	7	Sololá	712	San Antonio Palopó	9	San Antonio Palopo	3	Marzo	2023-11-03T00:00:00	2024-11-08T18:00:00	7	Dirección del viento	4.83
158795	7	Sololá	712	San Antonio Palopó	9	San Antonio Palopo	3	Marzo	2023-11-03T00:00:00	2024-11-08T18:00:00	1	Precipitación	0
158796	7	Sololá	712	San Antonio Palopó	9	San Antonio Palopo	3	Marzo	2023-11-03T00:00:00	2024-11-08T18:00:00	8	Radiación solar	79
158797	7	Sololá	712	San Antonio Palopó	9	San Antonio Palopo	3	Marzo	2023-11-03T00:00:00	2024-11-08T19:00:00	2	Temperatura media	19
158798	7	Sololá	712	San Antonio Palopó	9	San Antonio Palopo	3	Marzo	2023-11-03T00:00:00	2024-11-08T19:00:00	4	Temperatura máxima	19.8
158799	7	Sololá	712	San Antonio Palopó	9	San Antonio Palopo	3	Marzo	2023-11-03T00:00:00	2024-11-08T19:00:00	3	Temperatura mínima	19
158800	7	Sololá	712	San Antonio Palopó	9	San Antonio Palopo	3	Marzo	2023-11-03T00:00:00	2024-11-08T19:00:00	5	Humedad	83
158801	7	Sololá	712	San Antonio Palopó	9	San Antonio Palopo	3	Marzo	2023-11-03T00:00:00	2024-11-08T19:00:00	6	Velocidad del viento	6.4
158802	7	Sololá	712	San Antonio Palopó	9	San Antonio Palopo	3	Marzo	2023-11-03T00:00:00	2024-11-08T19:00:00	7	Dirección del viento	6.44
158803	7	Sololá	712	San Antonio Palopó	9	San Antonio Palopo	3	Marzo	2023-11-03T00:00:00	2024-11-08T19:00:00	1	Precipitación	0
158804	7	Sololá	712	San Antonio Palopó	9	San Antonio Palopo	3	Marzo	2023-11-03T00:00:00	2024-11-08T19:00:00	8	Radiación solar	0
158805	7	Sololá	712	San Antonio Palopó	9	San Antonio Palopo	3	Marzo	2023-11-03T00:00:00	2024-11-08T20:00:00	2	Temperatura media	19.2
158806	7	Sololá	712	San Antonio Palopó	9	San Antonio Palopo	3	Marzo	2023-11-03T00:00:00	2024-11-08T20:00:00	4	Temperatura máxima	19.2
158807	7	Sololá	712	San Antonio Palopó	9	San Antonio Palopo	3	Marzo	2023-11-03T00:00:00	2024-11-08T20:00:00	3	Temperatura mínima	18.8
158808	7	Sololá	712	San Antonio Palopó	9	San Antonio Palopo	3	Marzo	2023-11-03T00:00:00	2024-11-08T20:00:00	5	Humedad	79
158809	7	Sololá	712	San Antonio Palopó	9	San Antonio Palopo	3	Marzo	2023-11-03T00:00:00	2024-11-08T20:00:00	6	Velocidad del viento	3.2
158810	7	Sololá	712	San Antonio Palopó	9	San Antonio Palopo	3	Marzo	2023-11-03T00:00:00	2024-11-08T20:00:00	7	Dirección del viento	3.22
158811	7	Sololá	712	San Antonio Palopó	9	San Antonio Palopo	3	Marzo	2023-11-03T00:00:00	2024-11-08T20:00:00	1	Precipitación	0
158812	7	Sololá	712	San Antonio Palopó	9	San Antonio Palopo	3	Marzo	2023-11-03T00:00:00	2024-11-08T20:00:00	8	Radiación solar	0
158813	7	Sololá	712	San Antonio Palopó	9	San Antonio Palopo	3	Marzo	2023-11-03T00:00:00	2024-11-08T21:00:00	2	Temperatura media	17.7
158814	7	Sololá	712	San Antonio Palopó	9	San Antonio Palopo	3	Marzo	2023-11-03T00:00:00	2024-11-08T21:00:00	4	Temperatura máxima	19.2
158815	7	Sololá	712	San Antonio Palopó	9	San Antonio Palopo	3	Marzo	2023-11-03T00:00:00	2024-11-08T21:00:00	3	Temperatura mínima	17.7
158816	7	Sololá	712	San Antonio Palopó	9	San Antonio Palopo	3	Marzo	2023-11-03T00:00:00	2024-11-08T21:00:00	5	Humedad	87
158817	7	Sololá	712	San Antonio Palopó	9	San Antonio Palopo	3	Marzo	2023-11-03T00:00:00	2024-11-08T21:00:00	6	Velocidad del viento	4.8
158818	7	Sololá	712	San Antonio Palopó	9	San Antonio Palopo	3	Marzo	2023-11-03T00:00:00	2024-11-08T21:00:00	7	Dirección del viento	4.83
158819	7	Sololá	712	San Antonio Palopó	9	San Antonio Palopo	3	Marzo	2023-11-03T00:00:00	2024-11-08T21:00:00	1	Precipitación	0
158820	7	Sololá	712	San Antonio Palopó	9	San Antonio Palopo	3	Marzo	2023-11-03T00:00:00	2024-11-08T21:00:00	8	Radiación solar	0
158821	7	Sololá	712	San Antonio Palopó	9	San Antonio Palopo	3	Marzo	2023-11-03T00:00:00	2024-11-08T22:00:00	2	Temperatura media	17.3
158822	7	Sololá	712	San Antonio Palopó	9	San Antonio Palopo	3	Marzo	2023-11-03T00:00:00	2024-11-08T22:00:00	4	Temperatura máxima	17.7
158823	7	Sololá	712	San Antonio Palopó	9	San Antonio Palopo	3	Marzo	2023-11-03T00:00:00	2024-11-08T22:00:00	3	Temperatura mínima	17.1
158824	7	Sololá	712	San Antonio Palopó	9	San Antonio Palopo	3	Marzo	2023-11-03T00:00:00	2024-11-08T22:00:00	5	Humedad	88
158825	7	Sololá	712	San Antonio Palopó	9	San Antonio Palopo	3	Marzo	2023-11-03T00:00:00	2024-11-08T22:00:00	6	Velocidad del viento	4.8
158826	7	Sololá	712	San Antonio Palopó	9	San Antonio Palopo	3	Marzo	2023-11-03T00:00:00	2024-11-08T22:00:00	7	Dirección del viento	4.83
158827	7	Sololá	712	San Antonio Palopó	9	San Antonio Palopo	3	Marzo	2023-11-03T00:00:00	2024-11-08T22:00:00	1	Precipitación	0
158828	7	Sololá	712	San Antonio Palopó	9	San Antonio Palopo	3	Marzo	2023-11-03T00:00:00	2024-11-08T22:00:00	8	Radiación solar	0
158829	7	Sololá	712	San Antonio Palopó	9	San Antonio Palopo	3	Marzo	2023-11-03T00:00:00	2024-11-08T23:00:00	2	Temperatura media	17.7
158830	7	Sololá	712	San Antonio Palopó	9	San Antonio Palopo	3	Marzo	2023-11-03T00:00:00	2024-11-08T23:00:00	4	Temperatura máxima	17.7
158831	7	Sololá	712	San Antonio Palopó	9	San Antonio Palopo	3	Marzo	2023-11-03T00:00:00	2024-11-08T23:00:00	3	Temperatura mínima	17.3
158832	7	Sololá	712	San Antonio Palopó	9	San Antonio Palopo	3	Marzo	2023-11-03T00:00:00	2024-11-08T23:00:00	5	Humedad	85
158833	7	Sololá	712	San Antonio Palopó	9	San Antonio Palopo	3	Marzo	2023-11-03T00:00:00	2024-11-08T23:00:00	6	Velocidad del viento	1.6
158834	7	Sololá	712	San Antonio Palopó	9	San Antonio Palopo	3	Marzo	2023-11-03T00:00:00	2024-11-08T23:00:00	7	Dirección del viento	1.61
158835	7	Sololá	712	San Antonio Palopó	9	San Antonio Palopo	3	Marzo	2023-11-03T00:00:00	2024-11-08T23:00:00	1	Precipitación	0
158836	7	Sololá	712	San Antonio Palopó	9	San Antonio Palopo	3	Marzo	2023-11-03T00:00:00	2024-11-08T23:00:00	8	Radiación solar	0
158837	7	Sololá	712	San Antonio Palopó	9	San Antonio Palopo	3	Marzo	2023-12-03T00:00:00	2024-11-08T00:00:00	2	Temperatura media	17.3
158838	7	Sololá	712	San Antonio Palopó	9	San Antonio Palopo	3	Marzo	2023-12-03T00:00:00	2024-11-08T00:00:00	4	Temperatura máxima	17.8
158839	7	Sololá	712	San Antonio Palopó	9	San Antonio Palopo	3	Marzo	2023-12-03T00:00:00	2024-11-08T00:00:00	3	Temperatura mínima	17.3
158840	7	Sololá	712	San Antonio Palopó	9	San Antonio Palopo	3	Marzo	2023-12-03T00:00:00	2024-11-08T00:00:00	5	Humedad	87
158841	7	Sololá	712	San Antonio Palopó	9	San Antonio Palopo	3	Marzo	2023-12-03T00:00:00	2024-11-08T00:00:00	6	Velocidad del viento	1.6
158842	7	Sololá	712	San Antonio Palopó	9	San Antonio Palopo	3	Marzo	2023-12-03T00:00:00	2024-11-08T00:00:00	7	Dirección del viento	1.61
158843	7	Sololá	712	San Antonio Palopó	9	San Antonio Palopo	3	Marzo	2023-12-03T00:00:00	2024-11-08T00:00:00	1	Precipitación	0
158844	7	Sololá	712	San Antonio Palopó	9	San Antonio Palopo	3	Marzo	2023-12-03T00:00:00	2024-11-08T00:00:00	8	Radiación solar	0
158845	7	Sololá	712	San Antonio Palopó	9	San Antonio Palopo	3	Marzo	2023-12-03T00:00:00	2024-11-08T01:00:00	2	Temperatura media	17.6
158846	7	Sololá	712	San Antonio Palopó	9	San Antonio Palopo	3	Marzo	2023-12-03T00:00:00	2024-11-08T01:00:00	4	Temperatura máxima	17.6
158847	7	Sololá	712	San Antonio Palopó	9	San Antonio Palopo	3	Marzo	2023-12-03T00:00:00	2024-11-08T01:00:00	3	Temperatura mínima	17.2
158848	7	Sololá	712	San Antonio Palopó	9	San Antonio Palopo	3	Marzo	2023-12-03T00:00:00	2024-11-08T01:00:00	5	Humedad	86
158849	7	Sololá	712	San Antonio Palopó	9	San Antonio Palopo	3	Marzo	2023-12-03T00:00:00	2024-11-08T01:00:00	6	Velocidad del viento	1.6
158850	7	Sololá	712	San Antonio Palopó	9	San Antonio Palopo	3	Marzo	2023-12-03T00:00:00	2024-11-08T01:00:00	7	Dirección del viento	1.61
158851	7	Sololá	712	San Antonio Palopó	9	San Antonio Palopo	3	Marzo	2023-12-03T00:00:00	2024-11-08T01:00:00	1	Precipitación	0
158852	7	Sololá	712	San Antonio Palopó	9	San Antonio Palopo	3	Marzo	2023-12-03T00:00:00	2024-11-08T01:00:00	8	Radiación solar	0
158853	7	Sololá	712	San Antonio Palopó	9	San Antonio Palopo	3	Marzo	2023-12-03T00:00:00	2024-11-08T02:00:00	2	Temperatura media	17.7
158854	7	Sololá	712	San Antonio Palopó	9	San Antonio Palopo	3	Marzo	2023-12-03T00:00:00	2024-11-08T02:00:00	4	Temperatura máxima	17.7
158855	7	Sololá	712	San Antonio Palopó	9	San Antonio Palopo	3	Marzo	2023-12-03T00:00:00	2024-11-08T02:00:00	3	Temperatura mínima	17.5
158856	7	Sololá	712	San Antonio Palopó	9	San Antonio Palopo	3	Marzo	2023-12-03T00:00:00	2024-11-08T02:00:00	5	Humedad	84
158857	7	Sololá	712	San Antonio Palopó	9	San Antonio Palopo	3	Marzo	2023-12-03T00:00:00	2024-11-08T02:00:00	6	Velocidad del viento	1.6
158858	7	Sololá	712	San Antonio Palopó	9	San Antonio Palopo	3	Marzo	2023-12-03T00:00:00	2024-11-08T02:00:00	7	Dirección del viento	1.61
158859	7	Sololá	712	San Antonio Palopó	9	San Antonio Palopo	3	Marzo	2023-12-03T00:00:00	2024-11-08T02:00:00	1	Precipitación	0
158860	7	Sololá	712	San Antonio Palopó	9	San Antonio Palopo	3	Marzo	2023-12-03T00:00:00	2024-11-08T02:00:00	8	Radiación solar	0
158861	7	Sololá	712	San Antonio Palopó	9	San Antonio Palopo	3	Marzo	2023-12-03T00:00:00	2024-11-08T03:00:00	2	Temperatura media	17.7
158862	7	Sololá	712	San Antonio Palopó	9	San Antonio Palopo	3	Marzo	2023-12-03T00:00:00	2024-11-08T03:00:00	4	Temperatura máxima	17.8
158863	7	Sololá	712	San Antonio Palopó	9	San Antonio Palopo	3	Marzo	2023-12-03T00:00:00	2024-11-08T03:00:00	3	Temperatura mínima	17.7
158864	7	Sololá	712	San Antonio Palopó	9	San Antonio Palopo	3	Marzo	2023-12-03T00:00:00	2024-11-08T03:00:00	5	Humedad	82
158865	7	Sololá	712	San Antonio Palopó	9	San Antonio Palopo	3	Marzo	2023-12-03T00:00:00	2024-11-08T03:00:00	6	Velocidad del viento	3.2
158866	7	Sololá	712	San Antonio Palopó	9	San Antonio Palopo	3	Marzo	2023-12-03T00:00:00	2024-11-08T03:00:00	7	Dirección del viento	3.22
158867	7	Sololá	712	San Antonio Palopó	9	San Antonio Palopo	3	Marzo	2023-12-03T00:00:00	2024-11-08T03:00:00	1	Precipitación	0
158868	7	Sololá	712	San Antonio Palopó	9	San Antonio Palopo	3	Marzo	2023-12-03T00:00:00	2024-11-08T03:00:00	8	Radiación solar	0
158869	7	Sololá	712	San Antonio Palopó	9	San Antonio Palopo	3	Marzo	2023-12-03T00:00:00	2024-11-08T04:00:00	2	Temperatura media	17.8
158870	7	Sololá	712	San Antonio Palopó	9	San Antonio Palopo	3	Marzo	2023-12-03T00:00:00	2024-11-08T04:00:00	4	Temperatura máxima	17.8
158871	7	Sololá	712	San Antonio Palopó	9	San Antonio Palopo	3	Marzo	2023-12-03T00:00:00	2024-11-08T04:00:00	3	Temperatura mínima	17.7
158872	7	Sololá	712	San Antonio Palopó	9	San Antonio Palopo	3	Marzo	2023-12-03T00:00:00	2024-11-08T04:00:00	5	Humedad	82
158873	7	Sololá	712	San Antonio Palopó	9	San Antonio Palopo	3	Marzo	2023-12-03T00:00:00	2024-11-08T04:00:00	6	Velocidad del viento	1.6
158874	7	Sololá	712	San Antonio Palopó	9	San Antonio Palopo	3	Marzo	2023-12-03T00:00:00	2024-11-08T04:00:00	7	Dirección del viento	1.61
158875	7	Sololá	712	San Antonio Palopó	9	San Antonio Palopo	3	Marzo	2023-12-03T00:00:00	2024-11-08T04:00:00	1	Precipitación	0
158876	7	Sololá	712	San Antonio Palopó	9	San Antonio Palopo	3	Marzo	2023-12-03T00:00:00	2024-11-08T04:00:00	8	Radiación solar	0
158877	7	Sololá	712	San Antonio Palopó	9	San Antonio Palopo	3	Marzo	2023-12-03T00:00:00	2024-11-08T05:00:00	2	Temperatura media	17.8
158878	7	Sololá	712	San Antonio Palopó	9	San Antonio Palopo	3	Marzo	2023-12-03T00:00:00	2024-11-08T05:00:00	4	Temperatura máxima	17.8
158879	7	Sololá	712	San Antonio Palopó	9	San Antonio Palopo	3	Marzo	2023-12-03T00:00:00	2024-11-08T05:00:00	3	Temperatura mínima	17.7
158880	7	Sololá	712	San Antonio Palopó	9	San Antonio Palopo	3	Marzo	2023-12-03T00:00:00	2024-11-08T05:00:00	5	Humedad	80
158881	7	Sololá	712	San Antonio Palopó	9	San Antonio Palopo	3	Marzo	2023-12-03T00:00:00	2024-11-08T05:00:00	6	Velocidad del viento	1.6
158882	7	Sololá	712	San Antonio Palopó	9	San Antonio Palopo	3	Marzo	2023-12-03T00:00:00	2024-11-08T05:00:00	7	Dirección del viento	1.61
158883	7	Sololá	712	San Antonio Palopó	9	San Antonio Palopo	3	Marzo	2023-12-03T00:00:00	2024-11-08T05:00:00	1	Precipitación	0
158884	7	Sololá	712	San Antonio Palopó	9	San Antonio Palopo	3	Marzo	2023-12-03T00:00:00	2024-11-08T05:00:00	8	Radiación solar	0
158885	7	Sololá	712	San Antonio Palopó	9	San Antonio Palopo	3	Marzo	2023-12-03T00:00:00	2024-11-08T06:00:00	2	Temperatura media	17.3
158886	7	Sololá	712	San Antonio Palopó	9	San Antonio Palopo	3	Marzo	2023-12-03T00:00:00	2024-11-08T06:00:00	4	Temperatura máxima	17.8
158887	7	Sololá	712	San Antonio Palopó	9	San Antonio Palopo	3	Marzo	2023-12-03T00:00:00	2024-11-08T06:00:00	3	Temperatura mínima	17.3
158888	7	Sololá	712	San Antonio Palopó	9	San Antonio Palopo	3	Marzo	2023-12-03T00:00:00	2024-11-08T06:00:00	5	Humedad	81
158889	7	Sololá	712	San Antonio Palopó	9	San Antonio Palopo	3	Marzo	2023-12-03T00:00:00	2024-11-08T06:00:00	6	Velocidad del viento	3.2
158890	7	Sololá	712	San Antonio Palopó	9	San Antonio Palopo	3	Marzo	2023-12-03T00:00:00	2024-11-08T06:00:00	7	Dirección del viento	3.22
158891	7	Sololá	712	San Antonio Palopó	9	San Antonio Palopo	3	Marzo	2023-12-03T00:00:00	2024-11-08T06:00:00	1	Precipitación	0
158892	7	Sololá	712	San Antonio Palopó	9	San Antonio Palopo	3	Marzo	2023-12-03T00:00:00	2024-11-08T06:00:00	8	Radiación solar	0
158893	7	Sololá	712	San Antonio Palopó	9	San Antonio Palopo	3	Marzo	2023-12-03T00:00:00	2024-11-08T07:00:00	2	Temperatura media	17.6
158894	7	Sololá	712	San Antonio Palopó	9	San Antonio Palopo	3	Marzo	2023-12-03T00:00:00	2024-11-08T07:00:00	4	Temperatura máxima	17.6
158895	7	Sololá	712	San Antonio Palopó	9	San Antonio Palopo	3	Marzo	2023-12-03T00:00:00	2024-11-08T07:00:00	3	Temperatura mínima	17.3
158896	7	Sololá	712	San Antonio Palopó	9	San Antonio Palopo	3	Marzo	2023-12-03T00:00:00	2024-11-08T07:00:00	5	Humedad	78
158897	7	Sololá	712	San Antonio Palopó	9	San Antonio Palopo	3	Marzo	2023-12-03T00:00:00	2024-11-08T07:00:00	6	Velocidad del viento	3.2
158898	7	Sololá	712	San Antonio Palopó	9	San Antonio Palopo	3	Marzo	2023-12-03T00:00:00	2024-11-08T07:00:00	7	Dirección del viento	3.22
158899	7	Sololá	712	San Antonio Palopó	9	San Antonio Palopo	3	Marzo	2023-12-03T00:00:00	2024-11-08T07:00:00	1	Precipitación	0
158900	7	Sololá	712	San Antonio Palopó	9	San Antonio Palopo	3	Marzo	2023-12-03T00:00:00	2024-11-08T07:00:00	8	Radiación solar	2
158901	7	Sololá	712	San Antonio Palopó	9	San Antonio Palopo	3	Marzo	2023-12-03T00:00:00	2024-11-08T08:00:00	2	Temperatura media	17.8
158902	7	Sololá	712	San Antonio Palopó	9	San Antonio Palopo	3	Marzo	2023-12-03T00:00:00	2024-11-08T08:00:00	4	Temperatura máxima	17.8
158903	7	Sololá	712	San Antonio Palopó	9	San Antonio Palopo	3	Marzo	2023-12-03T00:00:00	2024-11-08T08:00:00	3	Temperatura mínima	17.6
158904	7	Sololá	712	San Antonio Palopó	9	San Antonio Palopo	3	Marzo	2023-12-03T00:00:00	2024-11-08T08:00:00	5	Humedad	78
158905	7	Sololá	712	San Antonio Palopó	9	San Antonio Palopo	3	Marzo	2023-12-03T00:00:00	2024-11-08T08:00:00	6	Velocidad del viento	1.6
158906	7	Sololá	712	San Antonio Palopó	9	San Antonio Palopo	3	Marzo	2023-12-03T00:00:00	2024-11-08T08:00:00	7	Dirección del viento	1.61
158907	7	Sololá	712	San Antonio Palopó	9	San Antonio Palopo	3	Marzo	2023-12-03T00:00:00	2024-11-08T08:00:00	1	Precipitación	0
158908	7	Sololá	712	San Antonio Palopó	9	San Antonio Palopo	3	Marzo	2023-12-03T00:00:00	2024-11-08T08:00:00	8	Radiación solar	36
158909	7	Sololá	712	San Antonio Palopó	9	San Antonio Palopo	3	Marzo	2023-12-03T00:00:00	2024-11-08T09:00:00	2	Temperatura media	18.4
158910	7	Sololá	712	San Antonio Palopó	9	San Antonio Palopo	3	Marzo	2023-12-03T00:00:00	2024-11-08T09:00:00	4	Temperatura máxima	18.4
158911	7	Sololá	712	San Antonio Palopó	9	San Antonio Palopo	3	Marzo	2023-12-03T00:00:00	2024-11-08T09:00:00	3	Temperatura mínima	17.8
158912	7	Sololá	712	San Antonio Palopó	9	San Antonio Palopo	3	Marzo	2023-12-03T00:00:00	2024-11-08T09:00:00	5	Humedad	78
158913	7	Sololá	712	San Antonio Palopó	9	San Antonio Palopo	3	Marzo	2023-12-03T00:00:00	2024-11-08T09:00:00	6	Velocidad del viento	3.2
158914	7	Sololá	712	San Antonio Palopó	9	San Antonio Palopo	3	Marzo	2023-12-03T00:00:00	2024-11-08T09:00:00	7	Dirección del viento	3.22
158915	7	Sololá	712	San Antonio Palopó	9	San Antonio Palopo	3	Marzo	2023-12-03T00:00:00	2024-11-08T09:00:00	1	Precipitación	0
158916	7	Sololá	712	San Antonio Palopó	9	San Antonio Palopo	3	Marzo	2023-12-03T00:00:00	2024-11-08T09:00:00	8	Radiación solar	105
158917	7	Sololá	712	San Antonio Palopó	9	San Antonio Palopo	3	Marzo	2023-12-03T00:00:00	2024-11-08T10:00:00	2	Temperatura media	19.3
158918	7	Sololá	712	San Antonio Palopó	9	San Antonio Palopo	3	Marzo	2023-12-03T00:00:00	2024-11-08T10:00:00	4	Temperatura máxima	19.4
158919	7	Sololá	712	San Antonio Palopó	9	San Antonio Palopo	3	Marzo	2023-12-03T00:00:00	2024-11-08T10:00:00	3	Temperatura mínima	18.4
158920	7	Sololá	712	San Antonio Palopó	9	San Antonio Palopo	3	Marzo	2023-12-03T00:00:00	2024-11-08T10:00:00	5	Humedad	76
158921	7	Sololá	712	San Antonio Palopó	9	San Antonio Palopo	3	Marzo	2023-12-03T00:00:00	2024-11-08T10:00:00	6	Velocidad del viento	3.2
158922	7	Sololá	712	San Antonio Palopó	9	San Antonio Palopo	3	Marzo	2023-12-03T00:00:00	2024-11-08T10:00:00	7	Dirección del viento	3.22
158923	7	Sololá	712	San Antonio Palopó	9	San Antonio Palopo	3	Marzo	2023-12-03T00:00:00	2024-11-08T10:00:00	1	Precipitación	0
158924	7	Sololá	712	San Antonio Palopó	9	San Antonio Palopo	3	Marzo	2023-12-03T00:00:00	2024-11-08T10:00:00	8	Radiación solar	314
158925	7	Sololá	712	San Antonio Palopó	9	San Antonio Palopo	3	Marzo	2023-12-03T00:00:00	2024-11-08T11:00:00	2	Temperatura media	19.8
158926	7	Sololá	712	San Antonio Palopó	9	San Antonio Palopo	3	Marzo	2023-12-03T00:00:00	2024-11-08T11:00:00	4	Temperatura máxima	20
158927	7	Sololá	712	San Antonio Palopó	9	San Antonio Palopo	3	Marzo	2023-12-03T00:00:00	2024-11-08T11:00:00	3	Temperatura mínima	19.3
158928	7	Sololá	712	San Antonio Palopó	9	San Antonio Palopo	3	Marzo	2023-12-03T00:00:00	2024-11-08T11:00:00	5	Humedad	74
158929	7	Sololá	712	San Antonio Palopó	9	San Antonio Palopo	3	Marzo	2023-12-03T00:00:00	2024-11-08T11:00:00	6	Velocidad del viento	4.8
158930	7	Sololá	712	San Antonio Palopó	9	San Antonio Palopo	3	Marzo	2023-12-03T00:00:00	2024-11-08T11:00:00	7	Dirección del viento	4.83
158931	7	Sololá	712	San Antonio Palopó	9	San Antonio Palopo	3	Marzo	2023-12-03T00:00:00	2024-11-08T11:00:00	1	Precipitación	0
158932	7	Sololá	712	San Antonio Palopó	9	San Antonio Palopo	3	Marzo	2023-12-03T00:00:00	2024-11-08T11:00:00	8	Radiación solar	683
158933	7	Sololá	712	San Antonio Palopó	9	San Antonio Palopo	3	Marzo	2023-12-03T00:00:00	2024-11-08T12:00:00	2	Temperatura media	19.4
158934	7	Sololá	712	San Antonio Palopó	9	San Antonio Palopo	3	Marzo	2023-12-03T00:00:00	2024-11-08T12:00:00	4	Temperatura máxima	20.2
158935	7	Sololá	712	San Antonio Palopó	9	San Antonio Palopo	3	Marzo	2023-12-03T00:00:00	2024-11-08T12:00:00	3	Temperatura mínima	19.4
158936	7	Sololá	712	San Antonio Palopó	9	San Antonio Palopo	3	Marzo	2023-12-03T00:00:00	2024-11-08T12:00:00	5	Humedad	75
158937	7	Sololá	712	San Antonio Palopó	9	San Antonio Palopo	3	Marzo	2023-12-03T00:00:00	2024-11-08T12:00:00	6	Velocidad del viento	4.8
158938	7	Sololá	712	San Antonio Palopó	9	San Antonio Palopo	3	Marzo	2023-12-03T00:00:00	2024-11-08T12:00:00	7	Dirección del viento	4.83
158939	7	Sololá	712	San Antonio Palopó	9	San Antonio Palopo	3	Marzo	2023-12-03T00:00:00	2024-11-08T12:00:00	1	Precipitación	0
158940	7	Sololá	712	San Antonio Palopó	9	San Antonio Palopo	3	Marzo	2023-12-03T00:00:00	2024-11-08T12:00:00	8	Radiación solar	353
158941	7	Sololá	712	San Antonio Palopó	9	San Antonio Palopo	3	Marzo	2023-12-03T00:00:00	2024-11-08T13:00:00	2	Temperatura media	19.6
158942	7	Sololá	712	San Antonio Palopó	9	San Antonio Palopo	3	Marzo	2023-12-03T00:00:00	2024-11-08T13:00:00	4	Temperatura máxima	20.3
158943	7	Sololá	712	San Antonio Palopó	9	San Antonio Palopo	3	Marzo	2023-12-03T00:00:00	2024-11-08T13:00:00	3	Temperatura mínima	19.3
158944	7	Sololá	712	San Antonio Palopó	9	San Antonio Palopo	3	Marzo	2023-12-03T00:00:00	2024-11-08T13:00:00	5	Humedad	78
158945	7	Sololá	712	San Antonio Palopó	9	San Antonio Palopo	3	Marzo	2023-12-03T00:00:00	2024-11-08T13:00:00	6	Velocidad del viento	4.8
158946	7	Sololá	712	San Antonio Palopó	9	San Antonio Palopo	3	Marzo	2023-12-03T00:00:00	2024-11-08T13:00:00	7	Dirección del viento	4.83
158947	7	Sololá	712	San Antonio Palopó	9	San Antonio Palopo	3	Marzo	2023-12-03T00:00:00	2024-11-08T13:00:00	1	Precipitación	0
158948	7	Sololá	712	San Antonio Palopó	9	San Antonio Palopo	3	Marzo	2023-12-03T00:00:00	2024-11-08T13:00:00	8	Radiación solar	283
158949	7	Sololá	712	San Antonio Palopó	9	San Antonio Palopo	3	Marzo	2023-12-03T00:00:00	2024-11-08T14:00:00	2	Temperatura media	19.4
158950	7	Sololá	712	San Antonio Palopó	9	San Antonio Palopo	3	Marzo	2023-12-03T00:00:00	2024-11-08T14:00:00	4	Temperatura máxima	19.9
158951	7	Sololá	712	San Antonio Palopó	9	San Antonio Palopo	3	Marzo	2023-12-03T00:00:00	2024-11-08T14:00:00	3	Temperatura mínima	19.4
158952	7	Sololá	712	San Antonio Palopó	9	San Antonio Palopo	3	Marzo	2023-12-03T00:00:00	2024-11-08T14:00:00	5	Humedad	79
158953	7	Sololá	712	San Antonio Palopó	9	San Antonio Palopo	3	Marzo	2023-12-03T00:00:00	2024-11-08T14:00:00	6	Velocidad del viento	6.4
158954	7	Sololá	712	San Antonio Palopó	9	San Antonio Palopo	3	Marzo	2023-12-03T00:00:00	2024-11-08T14:00:00	7	Dirección del viento	6.44
158955	7	Sololá	712	San Antonio Palopó	9	San Antonio Palopo	3	Marzo	2023-12-03T00:00:00	2024-11-08T14:00:00	1	Precipitación	0
158956	7	Sololá	712	San Antonio Palopó	9	San Antonio Palopo	3	Marzo	2023-12-03T00:00:00	2024-11-08T14:00:00	8	Radiación solar	183
158957	7	Sololá	712	San Antonio Palopó	9	San Antonio Palopo	3	Marzo	2023-12-03T00:00:00	2024-11-08T15:00:00	2	Temperatura media	19.9
158958	7	Sololá	712	San Antonio Palopó	9	San Antonio Palopo	3	Marzo	2023-12-03T00:00:00	2024-11-08T15:00:00	4	Temperatura máxima	20.3
158959	7	Sololá	712	San Antonio Palopó	9	San Antonio Palopo	3	Marzo	2023-12-03T00:00:00	2024-11-08T15:00:00	3	Temperatura mínima	19.4
158960	7	Sololá	712	San Antonio Palopó	9	San Antonio Palopo	3	Marzo	2023-12-03T00:00:00	2024-11-08T15:00:00	5	Humedad	76
158961	7	Sololá	712	San Antonio Palopó	9	San Antonio Palopo	3	Marzo	2023-12-03T00:00:00	2024-11-08T15:00:00	6	Velocidad del viento	6.4
158962	7	Sololá	712	San Antonio Palopó	9	San Antonio Palopo	3	Marzo	2023-12-03T00:00:00	2024-11-08T15:00:00	7	Dirección del viento	6.44
158963	7	Sololá	712	San Antonio Palopó	9	San Antonio Palopo	3	Marzo	2023-12-03T00:00:00	2024-11-08T15:00:00	1	Precipitación	0
158964	7	Sololá	712	San Antonio Palopó	9	San Antonio Palopo	3	Marzo	2023-12-03T00:00:00	2024-11-08T15:00:00	8	Radiación solar	282
158965	7	Sololá	712	San Antonio Palopó	9	San Antonio Palopo	3	Marzo	2023-12-03T00:00:00	2024-11-08T16:00:00	2	Temperatura media	19.3
158966	7	Sololá	712	San Antonio Palopó	9	San Antonio Palopo	3	Marzo	2023-12-03T00:00:00	2024-11-08T16:00:00	4	Temperatura máxima	19.9
158967	7	Sololá	712	San Antonio Palopó	9	San Antonio Palopo	3	Marzo	2023-12-03T00:00:00	2024-11-08T16:00:00	3	Temperatura mínima	19.3
158968	7	Sololá	712	San Antonio Palopó	9	San Antonio Palopo	3	Marzo	2023-12-03T00:00:00	2024-11-08T16:00:00	5	Humedad	76
158969	7	Sololá	712	San Antonio Palopó	9	San Antonio Palopo	3	Marzo	2023-12-03T00:00:00	2024-11-08T16:00:00	6	Velocidad del viento	6.4
158970	7	Sololá	712	San Antonio Palopó	9	San Antonio Palopo	3	Marzo	2023-12-03T00:00:00	2024-11-08T16:00:00	7	Dirección del viento	6.44
158971	7	Sololá	712	San Antonio Palopó	9	San Antonio Palopo	3	Marzo	2023-12-03T00:00:00	2024-11-08T16:00:00	1	Precipitación	0
158972	7	Sololá	712	San Antonio Palopó	9	San Antonio Palopo	3	Marzo	2023-12-03T00:00:00	2024-11-08T16:00:00	8	Radiación solar	64
158973	7	Sololá	712	San Antonio Palopó	9	San Antonio Palopo	3	Marzo	2023-12-03T00:00:00	2024-11-08T17:00:00	2	Temperatura media	19.1
158974	7	Sololá	712	San Antonio Palopó	9	San Antonio Palopo	3	Marzo	2023-12-03T00:00:00	2024-11-08T17:00:00	4	Temperatura máxima	19.3
158975	7	Sololá	712	San Antonio Palopó	9	San Antonio Palopo	3	Marzo	2023-12-03T00:00:00	2024-11-08T17:00:00	3	Temperatura mínima	19.1
158976	7	Sololá	712	San Antonio Palopó	9	San Antonio Palopo	3	Marzo	2023-12-03T00:00:00	2024-11-08T17:00:00	5	Humedad	81
158977	7	Sololá	712	San Antonio Palopó	9	San Antonio Palopo	3	Marzo	2023-12-03T00:00:00	2024-11-08T17:00:00	6	Velocidad del viento	3.2
158978	7	Sololá	712	San Antonio Palopó	9	San Antonio Palopo	3	Marzo	2023-12-03T00:00:00	2024-11-08T17:00:00	7	Dirección del viento	3.22
158979	7	Sololá	712	San Antonio Palopó	9	San Antonio Palopo	3	Marzo	2023-12-03T00:00:00	2024-11-08T17:00:00	1	Precipitación	0
158980	7	Sololá	712	San Antonio Palopó	9	San Antonio Palopo	3	Marzo	2023-12-03T00:00:00	2024-11-08T17:00:00	8	Radiación solar	32
158981	7	Sololá	712	San Antonio Palopó	9	San Antonio Palopo	3	Marzo	2023-12-03T00:00:00	2024-11-08T18:00:00	2	Temperatura media	18.9
158982	7	Sololá	712	San Antonio Palopó	9	San Antonio Palopo	3	Marzo	2023-12-03T00:00:00	2024-11-08T18:00:00	4	Temperatura máxima	19.1
158983	7	Sololá	712	San Antonio Palopó	9	San Antonio Palopo	3	Marzo	2023-12-03T00:00:00	2024-11-08T18:00:00	3	Temperatura mínima	18.7
158984	7	Sololá	712	San Antonio Palopó	9	San Antonio Palopo	3	Marzo	2023-12-03T00:00:00	2024-11-08T18:00:00	5	Humedad	82
158985	7	Sololá	712	San Antonio Palopó	9	San Antonio Palopo	3	Marzo	2023-12-03T00:00:00	2024-11-08T18:00:00	6	Velocidad del viento	1.6
158986	7	Sololá	712	San Antonio Palopó	9	San Antonio Palopo	3	Marzo	2023-12-03T00:00:00	2024-11-08T18:00:00	7	Dirección del viento	1.61
158987	7	Sololá	712	San Antonio Palopó	9	San Antonio Palopo	3	Marzo	2023-12-03T00:00:00	2024-11-08T18:00:00	1	Precipitación	0
158988	7	Sololá	712	San Antonio Palopó	9	San Antonio Palopo	3	Marzo	2023-12-03T00:00:00	2024-11-08T18:00:00	8	Radiación solar	31
158989	7	Sololá	712	San Antonio Palopó	9	San Antonio Palopo	3	Marzo	2023-12-03T00:00:00	2024-11-08T19:00:00	2	Temperatura media	18.9
158990	7	Sololá	712	San Antonio Palopó	9	San Antonio Palopo	3	Marzo	2023-12-03T00:00:00	2024-11-08T19:00:00	4	Temperatura máxima	19.2
158991	7	Sololá	712	San Antonio Palopó	9	San Antonio Palopo	3	Marzo	2023-12-03T00:00:00	2024-11-08T19:00:00	3	Temperatura mínima	18.9
158992	7	Sololá	712	San Antonio Palopó	9	San Antonio Palopo	3	Marzo	2023-12-03T00:00:00	2024-11-08T19:00:00	5	Humedad	82
158993	7	Sololá	712	San Antonio Palopó	9	San Antonio Palopo	3	Marzo	2023-12-03T00:00:00	2024-11-08T19:00:00	6	Velocidad del viento	1.6
158994	7	Sololá	712	San Antonio Palopó	9	San Antonio Palopo	3	Marzo	2023-12-03T00:00:00	2024-11-08T19:00:00	7	Dirección del viento	1.61
158995	7	Sololá	712	San Antonio Palopó	9	San Antonio Palopo	3	Marzo	2023-12-03T00:00:00	2024-11-08T19:00:00	1	Precipitación	0
158996	7	Sololá	712	San Antonio Palopó	9	San Antonio Palopo	3	Marzo	2023-12-03T00:00:00	2024-11-08T19:00:00	8	Radiación solar	0
158997	7	Sololá	712	San Antonio Palopó	9	San Antonio Palopo	3	Marzo	2023-12-03T00:00:00	2024-11-08T20:00:00	2	Temperatura media	18.8
158998	7	Sololá	712	San Antonio Palopó	9	San Antonio Palopo	3	Marzo	2023-12-03T00:00:00	2024-11-08T20:00:00	4	Temperatura máxima	18.9
158999	7	Sololá	712	San Antonio Palopó	9	San Antonio Palopo	3	Marzo	2023-12-03T00:00:00	2024-11-08T20:00:00	3	Temperatura mínima	18.6
159000	7	Sololá	712	San Antonio Palopó	9	San Antonio Palopo	3	Marzo	2023-12-03T00:00:00	2024-11-08T20:00:00	5	Humedad	83
159001	7	Sololá	712	San Antonio Palopó	9	San Antonio Palopo	3	Marzo	2023-12-03T00:00:00	2024-11-08T20:00:00	6	Velocidad del viento	1.6
159002	7	Sololá	712	San Antonio Palopó	9	San Antonio Palopo	3	Marzo	2023-12-03T00:00:00	2024-11-08T20:00:00	7	Dirección del viento	1.61
159003	7	Sololá	712	San Antonio Palopó	9	San Antonio Palopo	3	Marzo	2023-12-03T00:00:00	2024-11-08T20:00:00	1	Precipitación	0
159004	7	Sololá	712	San Antonio Palopó	9	San Antonio Palopo	3	Marzo	2023-12-03T00:00:00	2024-11-08T20:00:00	8	Radiación solar	0
159005	7	Sololá	712	San Antonio Palopó	9	San Antonio Palopo	3	Marzo	2023-12-03T00:00:00	2024-11-08T21:00:00	2	Temperatura media	18.8
159006	7	Sololá	712	San Antonio Palopó	9	San Antonio Palopo	3	Marzo	2023-12-03T00:00:00	2024-11-08T21:00:00	4	Temperatura máxima	18.9
159007	7	Sololá	712	San Antonio Palopó	9	San Antonio Palopo	3	Marzo	2023-12-03T00:00:00	2024-11-08T21:00:00	3	Temperatura mínima	18.7
159008	7	Sololá	712	San Antonio Palopó	9	San Antonio Palopo	3	Marzo	2023-12-03T00:00:00	2024-11-08T21:00:00	5	Humedad	81
159009	7	Sololá	712	San Antonio Palopó	9	San Antonio Palopo	3	Marzo	2023-12-03T00:00:00	2024-11-08T21:00:00	6	Velocidad del viento	1.6
159010	7	Sololá	712	San Antonio Palopó	9	San Antonio Palopo	3	Marzo	2023-12-03T00:00:00	2024-11-08T21:00:00	7	Dirección del viento	1.61
159011	7	Sololá	712	San Antonio Palopó	9	San Antonio Palopo	3	Marzo	2023-12-03T00:00:00	2024-11-08T21:00:00	1	Precipitación	0
159012	7	Sololá	712	San Antonio Palopó	9	San Antonio Palopo	3	Marzo	2023-12-03T00:00:00	2024-11-08T21:00:00	8	Radiación solar	0
159013	7	Sololá	712	San Antonio Palopó	9	San Antonio Palopo	3	Marzo	2023-12-03T00:00:00	2024-11-08T22:00:00	2	Temperatura media	18.1
159014	7	Sololá	712	San Antonio Palopó	9	San Antonio Palopo	3	Marzo	2023-12-03T00:00:00	2024-11-08T22:00:00	4	Temperatura máxima	18.8
159015	7	Sololá	712	San Antonio Palopó	9	San Antonio Palopo	3	Marzo	2023-12-03T00:00:00	2024-11-08T22:00:00	3	Temperatura mínima	18.1
159016	7	Sololá	712	San Antonio Palopó	9	San Antonio Palopo	3	Marzo	2023-12-03T00:00:00	2024-11-08T22:00:00	5	Humedad	87
159017	7	Sololá	712	San Antonio Palopó	9	San Antonio Palopo	3	Marzo	2023-12-03T00:00:00	2024-11-08T22:00:00	6	Velocidad del viento	4.8
159018	7	Sololá	712	San Antonio Palopó	9	San Antonio Palopo	3	Marzo	2023-12-03T00:00:00	2024-11-08T22:00:00	7	Dirección del viento	4.83
159019	7	Sololá	712	San Antonio Palopó	9	San Antonio Palopo	3	Marzo	2023-12-03T00:00:00	2024-11-08T22:00:00	1	Precipitación	0
159020	7	Sololá	712	San Antonio Palopó	9	San Antonio Palopo	3	Marzo	2023-12-03T00:00:00	2024-11-08T22:00:00	8	Radiación solar	0
159021	7	Sololá	712	San Antonio Palopó	9	San Antonio Palopo	3	Marzo	2023-12-03T00:00:00	2024-11-08T23:00:00	2	Temperatura media	18.2
159022	7	Sololá	712	San Antonio Palopó	9	San Antonio Palopo	3	Marzo	2023-12-03T00:00:00	2024-11-08T23:00:00	4	Temperatura máxima	18.2
159023	7	Sololá	712	San Antonio Palopó	9	San Antonio Palopo	3	Marzo	2023-12-03T00:00:00	2024-11-08T23:00:00	3	Temperatura mínima	17.9
159024	7	Sololá	712	San Antonio Palopó	9	San Antonio Palopo	3	Marzo	2023-12-03T00:00:00	2024-11-08T23:00:00	5	Humedad	85
159025	7	Sololá	712	San Antonio Palopó	9	San Antonio Palopo	3	Marzo	2023-12-03T00:00:00	2024-11-08T23:00:00	6	Velocidad del viento	1.6
159026	7	Sololá	712	San Antonio Palopó	9	San Antonio Palopo	3	Marzo	2023-12-03T00:00:00	2024-11-08T23:00:00	7	Dirección del viento	1.61
159027	7	Sololá	712	San Antonio Palopó	9	San Antonio Palopo	3	Marzo	2023-12-03T00:00:00	2024-11-08T23:00:00	1	Precipitación	0
159028	7	Sololá	712	San Antonio Palopó	9	San Antonio Palopo	3	Marzo	2023-12-03T00:00:00	2024-11-08T23:00:00	8	Radiación solar	0
159029	7	Sololá	712	San Antonio Palopó	9	San Antonio Palopo	3	Marzo	2023-03-13T00:00:00	2024-11-08T00:00:00	2	Temperatura media	18.5
159030	7	Sololá	712	San Antonio Palopó	9	San Antonio Palopo	3	Marzo	2023-03-13T00:00:00	2024-11-08T00:00:00	4	Temperatura máxima	18.6
159031	7	Sololá	712	San Antonio Palopó	9	San Antonio Palopo	3	Marzo	2023-03-13T00:00:00	2024-11-08T00:00:00	3	Temperatura mínima	18.1
159032	7	Sololá	712	San Antonio Palopó	9	San Antonio Palopo	3	Marzo	2023-03-13T00:00:00	2024-11-08T00:00:00	5	Humedad	78
159033	7	Sololá	712	San Antonio Palopó	9	San Antonio Palopo	3	Marzo	2023-03-13T00:00:00	2024-11-08T00:00:00	6	Velocidad del viento	1.6
159034	7	Sololá	712	San Antonio Palopó	9	San Antonio Palopo	3	Marzo	2023-03-13T00:00:00	2024-11-08T00:00:00	7	Dirección del viento	1.61
159035	7	Sololá	712	San Antonio Palopó	9	San Antonio Palopo	3	Marzo	2023-03-13T00:00:00	2024-11-08T00:00:00	1	Precipitación	0
159036	7	Sololá	712	San Antonio Palopó	9	San Antonio Palopo	3	Marzo	2023-03-13T00:00:00	2024-11-08T00:00:00	8	Radiación solar	0
159037	7	Sololá	712	San Antonio Palopó	9	San Antonio Palopo	3	Marzo	2023-03-13T00:00:00	2024-11-08T01:00:00	2	Temperatura media	17.9
159038	7	Sololá	712	San Antonio Palopó	9	San Antonio Palopo	3	Marzo	2023-03-13T00:00:00	2024-11-08T01:00:00	4	Temperatura máxima	18.6
159039	7	Sololá	712	San Antonio Palopó	9	San Antonio Palopo	3	Marzo	2023-03-13T00:00:00	2024-11-08T01:00:00	3	Temperatura mínima	17.9
159040	7	Sololá	712	San Antonio Palopó	9	San Antonio Palopo	3	Marzo	2023-03-13T00:00:00	2024-11-08T01:00:00	5	Humedad	78
159041	7	Sololá	712	San Antonio Palopó	9	San Antonio Palopo	3	Marzo	2023-03-13T00:00:00	2024-11-08T01:00:00	6	Velocidad del viento	3.2
159042	7	Sololá	712	San Antonio Palopó	9	San Antonio Palopo	3	Marzo	2023-03-13T00:00:00	2024-11-08T01:00:00	7	Dirección del viento	3.22
159043	7	Sololá	712	San Antonio Palopó	9	San Antonio Palopo	3	Marzo	2023-03-13T00:00:00	2024-11-08T01:00:00	1	Precipitación	0
159044	7	Sololá	712	San Antonio Palopó	9	San Antonio Palopo	3	Marzo	2023-03-13T00:00:00	2024-11-08T01:00:00	8	Radiación solar	0
159045	7	Sololá	712	San Antonio Palopó	9	San Antonio Palopo	3	Marzo	2023-03-13T00:00:00	2024-11-08T02:00:00	2	Temperatura media	17
159046	7	Sololá	712	San Antonio Palopó	9	San Antonio Palopo	3	Marzo	2023-03-13T00:00:00	2024-11-08T02:00:00	4	Temperatura máxima	17.9
159047	7	Sololá	712	San Antonio Palopó	9	San Antonio Palopo	3	Marzo	2023-03-13T00:00:00	2024-11-08T02:00:00	3	Temperatura mínima	17
159048	7	Sololá	712	San Antonio Palopó	9	San Antonio Palopo	3	Marzo	2023-03-13T00:00:00	2024-11-08T02:00:00	5	Humedad	80
159049	7	Sololá	712	San Antonio Palopó	9	San Antonio Palopo	3	Marzo	2023-03-13T00:00:00	2024-11-08T02:00:00	6	Velocidad del viento	3.2
159050	7	Sololá	712	San Antonio Palopó	9	San Antonio Palopo	3	Marzo	2023-03-13T00:00:00	2024-11-08T02:00:00	7	Dirección del viento	3.22
159051	7	Sololá	712	San Antonio Palopó	9	San Antonio Palopo	3	Marzo	2023-03-13T00:00:00	2024-11-08T02:00:00	1	Precipitación	0
159052	7	Sololá	712	San Antonio Palopó	9	San Antonio Palopo	3	Marzo	2023-03-13T00:00:00	2024-11-08T02:00:00	8	Radiación solar	0
159053	7	Sololá	712	San Antonio Palopó	9	San Antonio Palopo	3	Marzo	2023-03-13T00:00:00	2024-11-08T03:00:00	2	Temperatura media	16.1
159054	7	Sololá	712	San Antonio Palopó	9	San Antonio Palopo	3	Marzo	2023-03-13T00:00:00	2024-11-08T03:00:00	4	Temperatura máxima	17.1
159055	7	Sololá	712	San Antonio Palopó	9	San Antonio Palopo	3	Marzo	2023-03-13T00:00:00	2024-11-08T03:00:00	3	Temperatura mínima	16.1
159056	7	Sololá	712	San Antonio Palopó	9	San Antonio Palopo	3	Marzo	2023-03-13T00:00:00	2024-11-08T03:00:00	5	Humedad	82
159057	7	Sololá	712	San Antonio Palopó	9	San Antonio Palopo	3	Marzo	2023-03-13T00:00:00	2024-11-08T03:00:00	6	Velocidad del viento	3.2
159058	7	Sololá	712	San Antonio Palopó	9	San Antonio Palopo	3	Marzo	2023-03-13T00:00:00	2024-11-08T03:00:00	7	Dirección del viento	3.22
159059	7	Sololá	712	San Antonio Palopó	9	San Antonio Palopo	3	Marzo	2023-03-13T00:00:00	2024-11-08T03:00:00	1	Precipitación	0
159060	7	Sololá	712	San Antonio Palopó	9	San Antonio Palopo	3	Marzo	2023-03-13T00:00:00	2024-11-08T03:00:00	8	Radiación solar	0
159061	7	Sololá	712	San Antonio Palopó	9	San Antonio Palopo	3	Marzo	2023-03-13T00:00:00	2024-11-08T04:00:00	2	Temperatura media	15.7
159062	7	Sololá	712	San Antonio Palopó	9	San Antonio Palopo	3	Marzo	2023-03-13T00:00:00	2024-11-08T04:00:00	4	Temperatura máxima	16.1
159063	7	Sololá	712	San Antonio Palopó	9	San Antonio Palopo	3	Marzo	2023-03-13T00:00:00	2024-11-08T04:00:00	3	Temperatura mínima	15.6
159064	7	Sololá	712	San Antonio Palopó	9	San Antonio Palopo	3	Marzo	2023-03-13T00:00:00	2024-11-08T04:00:00	5	Humedad	84
159065	7	Sololá	712	San Antonio Palopó	9	San Antonio Palopo	3	Marzo	2023-03-13T00:00:00	2024-11-08T04:00:00	6	Velocidad del viento	4.8
159066	7	Sololá	712	San Antonio Palopó	9	San Antonio Palopo	3	Marzo	2023-03-13T00:00:00	2024-11-08T04:00:00	7	Dirección del viento	4.83
159067	7	Sololá	712	San Antonio Palopó	9	San Antonio Palopo	3	Marzo	2023-03-13T00:00:00	2024-11-08T04:00:00	1	Precipitación	0
159068	7	Sololá	712	San Antonio Palopó	9	San Antonio Palopo	3	Marzo	2023-03-13T00:00:00	2024-11-08T04:00:00	8	Radiación solar	0
159069	7	Sololá	712	San Antonio Palopó	9	San Antonio Palopo	3	Marzo	2023-03-13T00:00:00	2024-11-08T05:00:00	2	Temperatura media	15.7
159070	7	Sololá	712	San Antonio Palopó	9	San Antonio Palopo	3	Marzo	2023-03-13T00:00:00	2024-11-08T05:00:00	4	Temperatura máxima	15.7
159071	7	Sololá	712	San Antonio Palopó	9	San Antonio Palopo	3	Marzo	2023-03-13T00:00:00	2024-11-08T05:00:00	3	Temperatura mínima	15.5
159072	7	Sololá	712	San Antonio Palopó	9	San Antonio Palopo	3	Marzo	2023-03-13T00:00:00	2024-11-08T05:00:00	5	Humedad	84
159073	7	Sololá	712	San Antonio Palopó	9	San Antonio Palopo	3	Marzo	2023-03-13T00:00:00	2024-11-08T05:00:00	6	Velocidad del viento	4.8
159074	7	Sololá	712	San Antonio Palopó	9	San Antonio Palopo	3	Marzo	2023-03-13T00:00:00	2024-11-08T05:00:00	7	Dirección del viento	4.83
159075	7	Sololá	712	San Antonio Palopó	9	San Antonio Palopo	3	Marzo	2023-03-13T00:00:00	2024-11-08T05:00:00	1	Precipitación	0
159076	7	Sololá	712	San Antonio Palopó	9	San Antonio Palopo	3	Marzo	2023-03-13T00:00:00	2024-11-08T05:00:00	8	Radiación solar	0
159077	7	Sololá	712	San Antonio Palopó	9	San Antonio Palopo	3	Marzo	2023-03-13T00:00:00	2024-11-08T06:00:00	2	Temperatura media	15.3
159078	7	Sololá	712	San Antonio Palopó	9	San Antonio Palopo	3	Marzo	2023-03-13T00:00:00	2024-11-08T06:00:00	4	Temperatura máxima	16.2
159079	7	Sololá	712	San Antonio Palopó	9	San Antonio Palopo	3	Marzo	2023-03-13T00:00:00	2024-11-08T06:00:00	3	Temperatura mínima	15.3
159080	7	Sololá	712	San Antonio Palopó	9	San Antonio Palopo	3	Marzo	2023-03-13T00:00:00	2024-11-08T06:00:00	5	Humedad	84
159081	7	Sololá	712	San Antonio Palopó	9	San Antonio Palopo	3	Marzo	2023-03-13T00:00:00	2024-11-08T06:00:00	6	Velocidad del viento	3.2
159082	7	Sololá	712	San Antonio Palopó	9	San Antonio Palopo	3	Marzo	2023-03-13T00:00:00	2024-11-08T06:00:00	7	Dirección del viento	3.22
159083	7	Sololá	712	San Antonio Palopó	9	San Antonio Palopo	3	Marzo	2023-03-13T00:00:00	2024-11-08T06:00:00	1	Precipitación	0
159084	7	Sololá	712	San Antonio Palopó	9	San Antonio Palopo	3	Marzo	2023-03-13T00:00:00	2024-11-08T06:00:00	8	Radiación solar	0
159085	7	Sololá	712	San Antonio Palopó	9	San Antonio Palopo	3	Marzo	2023-03-13T00:00:00	2024-11-08T07:00:00	2	Temperatura media	15.8
159086	7	Sololá	712	San Antonio Palopó	9	San Antonio Palopo	3	Marzo	2023-03-13T00:00:00	2024-11-08T07:00:00	4	Temperatura máxima	15.8
159087	7	Sololá	712	San Antonio Palopó	9	San Antonio Palopo	3	Marzo	2023-03-13T00:00:00	2024-11-08T07:00:00	3	Temperatura mínima	15.2
159088	7	Sololá	712	San Antonio Palopó	9	San Antonio Palopo	3	Marzo	2023-03-13T00:00:00	2024-11-08T07:00:00	5	Humedad	83
159089	7	Sololá	712	San Antonio Palopó	9	San Antonio Palopo	3	Marzo	2023-03-13T00:00:00	2024-11-08T07:00:00	6	Velocidad del viento	3.2
159090	7	Sololá	712	San Antonio Palopó	9	San Antonio Palopo	3	Marzo	2023-03-13T00:00:00	2024-11-08T07:00:00	7	Dirección del viento	3.22
159091	7	Sololá	712	San Antonio Palopó	9	San Antonio Palopo	3	Marzo	2023-03-13T00:00:00	2024-11-08T07:00:00	1	Precipitación	0
159092	7	Sololá	712	San Antonio Palopó	9	San Antonio Palopo	3	Marzo	2023-03-13T00:00:00	2024-11-08T07:00:00	8	Radiación solar	15
159093	7	Sololá	712	San Antonio Palopó	9	San Antonio Palopo	3	Marzo	2023-03-13T00:00:00	2024-11-08T08:00:00	2	Temperatura media	16.4
159094	7	Sololá	712	San Antonio Palopó	9	San Antonio Palopo	3	Marzo	2023-03-13T00:00:00	2024-11-08T08:00:00	4	Temperatura máxima	16.4
159095	7	Sololá	712	San Antonio Palopó	9	San Antonio Palopo	3	Marzo	2023-03-13T00:00:00	2024-11-08T08:00:00	3	Temperatura mínima	15.8
159096	7	Sololá	712	San Antonio Palopó	9	San Antonio Palopo	3	Marzo	2023-03-13T00:00:00	2024-11-08T08:00:00	5	Humedad	84
159097	7	Sololá	712	San Antonio Palopó	9	San Antonio Palopo	3	Marzo	2023-03-13T00:00:00	2024-11-08T08:00:00	6	Velocidad del viento	3.2
159098	7	Sololá	712	San Antonio Palopó	9	San Antonio Palopo	3	Marzo	2023-03-13T00:00:00	2024-11-08T08:00:00	7	Dirección del viento	3.22
159099	7	Sololá	712	San Antonio Palopó	9	San Antonio Palopo	3	Marzo	2023-03-13T00:00:00	2024-11-08T08:00:00	1	Precipitación	0
159100	7	Sololá	712	San Antonio Palopó	9	San Antonio Palopo	3	Marzo	2023-03-13T00:00:00	2024-11-08T08:00:00	8	Radiación solar	58
159101	7	Sololá	712	San Antonio Palopó	9	San Antonio Palopo	3	Marzo	2023-03-13T00:00:00	2024-11-08T09:00:00	2	Temperatura media	19.1
159102	7	Sololá	712	San Antonio Palopó	9	San Antonio Palopo	3	Marzo	2023-03-13T00:00:00	2024-11-08T09:00:00	4	Temperatura máxima	19.3
159103	7	Sololá	712	San Antonio Palopó	9	San Antonio Palopo	3	Marzo	2023-03-13T00:00:00	2024-11-08T09:00:00	3	Temperatura mínima	16.4
159104	7	Sololá	712	San Antonio Palopó	9	San Antonio Palopo	3	Marzo	2023-03-13T00:00:00	2024-11-08T09:00:00	5	Humedad	77
159105	7	Sololá	712	San Antonio Palopó	9	San Antonio Palopo	3	Marzo	2023-03-13T00:00:00	2024-11-08T09:00:00	6	Velocidad del viento	3.2
159106	7	Sololá	712	San Antonio Palopó	9	San Antonio Palopo	3	Marzo	2023-03-13T00:00:00	2024-11-08T09:00:00	7	Dirección del viento	3.22
159107	7	Sololá	712	San Antonio Palopó	9	San Antonio Palopo	3	Marzo	2023-03-13T00:00:00	2024-11-08T09:00:00	1	Precipitación	0
159108	7	Sololá	712	San Antonio Palopó	9	San Antonio Palopo	3	Marzo	2023-03-13T00:00:00	2024-11-08T09:00:00	8	Radiación solar	372
159109	7	Sololá	712	San Antonio Palopó	9	San Antonio Palopo	3	Marzo	2023-03-13T00:00:00	2024-11-08T10:00:00	2	Temperatura media	20
159110	7	Sololá	712	San Antonio Palopó	9	San Antonio Palopo	3	Marzo	2023-03-13T00:00:00	2024-11-08T10:00:00	4	Temperatura máxima	20
159111	7	Sololá	712	San Antonio Palopó	9	San Antonio Palopo	3	Marzo	2023-03-13T00:00:00	2024-11-08T10:00:00	3	Temperatura mínima	18.7
159112	7	Sololá	712	San Antonio Palopó	9	San Antonio Palopo	3	Marzo	2023-03-13T00:00:00	2024-11-08T10:00:00	5	Humedad	73
159113	7	Sololá	712	San Antonio Palopó	9	San Antonio Palopo	3	Marzo	2023-03-13T00:00:00	2024-11-08T10:00:00	6	Velocidad del viento	1.6
159114	7	Sololá	712	San Antonio Palopó	9	San Antonio Palopo	3	Marzo	2023-03-13T00:00:00	2024-11-08T10:00:00	7	Dirección del viento	1.61
159115	7	Sololá	712	San Antonio Palopó	9	San Antonio Palopo	3	Marzo	2023-03-13T00:00:00	2024-11-08T10:00:00	1	Precipitación	0
159116	7	Sololá	712	San Antonio Palopó	9	San Antonio Palopo	3	Marzo	2023-03-13T00:00:00	2024-11-08T10:00:00	8	Radiación solar	622
159117	7	Sololá	712	San Antonio Palopó	9	San Antonio Palopo	3	Marzo	2023-03-13T00:00:00	2024-11-08T11:00:00	2	Temperatura media	21.1
159118	7	Sololá	712	San Antonio Palopó	9	San Antonio Palopo	3	Marzo	2023-03-13T00:00:00	2024-11-08T11:00:00	4	Temperatura máxima	21.1
159119	7	Sololá	712	San Antonio Palopó	9	San Antonio Palopo	3	Marzo	2023-03-13T00:00:00	2024-11-08T11:00:00	3	Temperatura mínima	20
159120	7	Sololá	712	San Antonio Palopó	9	San Antonio Palopo	3	Marzo	2023-03-13T00:00:00	2024-11-08T11:00:00	5	Humedad	71
159121	7	Sololá	712	San Antonio Palopó	9	San Antonio Palopo	3	Marzo	2023-03-13T00:00:00	2024-11-08T11:00:00	6	Velocidad del viento	3.2
159122	7	Sololá	712	San Antonio Palopó	9	San Antonio Palopo	3	Marzo	2023-03-13T00:00:00	2024-11-08T11:00:00	7	Dirección del viento	3.22
159123	7	Sololá	712	San Antonio Palopó	9	San Antonio Palopo	3	Marzo	2023-03-13T00:00:00	2024-11-08T11:00:00	1	Precipitación	0
159124	7	Sololá	712	San Antonio Palopó	9	San Antonio Palopo	3	Marzo	2023-03-13T00:00:00	2024-11-08T11:00:00	8	Radiación solar	788
159125	7	Sololá	712	San Antonio Palopó	9	San Antonio Palopo	3	Marzo	2023-03-13T00:00:00	2024-11-08T12:00:00	2	Temperatura media	22.1
159126	7	Sololá	712	San Antonio Palopó	9	San Antonio Palopo	3	Marzo	2023-03-13T00:00:00	2024-11-08T12:00:00	4	Temperatura máxima	22.5
159127	7	Sololá	712	San Antonio Palopó	9	San Antonio Palopo	3	Marzo	2023-03-13T00:00:00	2024-11-08T12:00:00	3	Temperatura mínima	20.9
159128	7	Sololá	712	San Antonio Palopó	9	San Antonio Palopo	3	Marzo	2023-03-13T00:00:00	2024-11-08T12:00:00	5	Humedad	72
159129	7	Sololá	712	San Antonio Palopó	9	San Antonio Palopo	3	Marzo	2023-03-13T00:00:00	2024-11-08T12:00:00	6	Velocidad del viento	8
159130	7	Sololá	712	San Antonio Palopó	9	San Antonio Palopo	3	Marzo	2023-03-13T00:00:00	2024-11-08T12:00:00	7	Dirección del viento	8.05
159131	7	Sololá	712	San Antonio Palopó	9	San Antonio Palopo	3	Marzo	2023-03-13T00:00:00	2024-11-08T12:00:00	1	Precipitación	0
159132	7	Sololá	712	San Antonio Palopó	9	San Antonio Palopo	3	Marzo	2023-03-13T00:00:00	2024-11-08T12:00:00	8	Radiación solar	894
159133	7	Sololá	712	San Antonio Palopó	9	San Antonio Palopo	3	Marzo	2023-03-13T00:00:00	2024-11-08T13:00:00	2	Temperatura media	21.8
159134	7	Sololá	712	San Antonio Palopó	9	San Antonio Palopo	3	Marzo	2023-03-13T00:00:00	2024-11-08T13:00:00	4	Temperatura máxima	22.5
159135	7	Sololá	712	San Antonio Palopó	9	San Antonio Palopo	3	Marzo	2023-03-13T00:00:00	2024-11-08T13:00:00	3	Temperatura mínima	21.7
159136	7	Sololá	712	San Antonio Palopó	9	San Antonio Palopo	3	Marzo	2023-03-13T00:00:00	2024-11-08T13:00:00	5	Humedad	71
159137	7	Sololá	712	San Antonio Palopó	9	San Antonio Palopo	3	Marzo	2023-03-13T00:00:00	2024-11-08T13:00:00	6	Velocidad del viento	9.7
159138	7	Sololá	712	San Antonio Palopó	9	San Antonio Palopo	3	Marzo	2023-03-13T00:00:00	2024-11-08T13:00:00	7	Dirección del viento	9.66
159139	7	Sololá	712	San Antonio Palopó	9	San Antonio Palopo	3	Marzo	2023-03-13T00:00:00	2024-11-08T13:00:00	1	Precipitación	0
159140	7	Sololá	712	San Antonio Palopó	9	San Antonio Palopo	3	Marzo	2023-03-13T00:00:00	2024-11-08T13:00:00	8	Radiación solar	685
159141	7	Sololá	712	San Antonio Palopó	9	San Antonio Palopo	3	Marzo	2023-03-13T00:00:00	2024-11-08T14:00:00	2	Temperatura media	21.9
159142	7	Sololá	712	San Antonio Palopó	9	San Antonio Palopo	3	Marzo	2023-03-13T00:00:00	2024-11-08T14:00:00	4	Temperatura máxima	22.2
159143	7	Sololá	712	San Antonio Palopó	9	San Antonio Palopo	3	Marzo	2023-03-13T00:00:00	2024-11-08T14:00:00	3	Temperatura mínima	21.6
159144	7	Sololá	712	San Antonio Palopó	9	San Antonio Palopo	3	Marzo	2023-03-13T00:00:00	2024-11-08T14:00:00	5	Humedad	72
159145	7	Sololá	712	San Antonio Palopó	9	San Antonio Palopo	3	Marzo	2023-03-13T00:00:00	2024-11-08T14:00:00	6	Velocidad del viento	11.3
159146	7	Sololá	712	San Antonio Palopó	9	San Antonio Palopo	3	Marzo	2023-03-13T00:00:00	2024-11-08T14:00:00	7	Dirección del viento	11.27
159147	7	Sololá	712	San Antonio Palopó	9	San Antonio Palopo	3	Marzo	2023-03-13T00:00:00	2024-11-08T14:00:00	1	Precipitación	0
159148	7	Sololá	712	San Antonio Palopó	9	San Antonio Palopo	3	Marzo	2023-03-13T00:00:00	2024-11-08T14:00:00	8	Radiación solar	685
159149	7	Sololá	712	San Antonio Palopó	9	San Antonio Palopo	3	Marzo	2023-03-13T00:00:00	2024-11-08T15:00:00	2	Temperatura media	21.2
159150	7	Sololá	712	San Antonio Palopó	9	San Antonio Palopo	3	Marzo	2023-03-13T00:00:00	2024-11-08T15:00:00	4	Temperatura máxima	21.9
159151	7	Sololá	712	San Antonio Palopó	9	San Antonio Palopo	3	Marzo	2023-03-13T00:00:00	2024-11-08T15:00:00	3	Temperatura mínima	21.2
159152	7	Sololá	712	San Antonio Palopó	9	San Antonio Palopo	3	Marzo	2023-03-13T00:00:00	2024-11-08T15:00:00	5	Humedad	75
159153	7	Sololá	712	San Antonio Palopó	9	San Antonio Palopo	3	Marzo	2023-03-13T00:00:00	2024-11-08T15:00:00	6	Velocidad del viento	11.3
159154	7	Sololá	712	San Antonio Palopó	9	San Antonio Palopo	3	Marzo	2023-03-13T00:00:00	2024-11-08T15:00:00	7	Dirección del viento	11.27
159155	7	Sololá	712	San Antonio Palopó	9	San Antonio Palopo	3	Marzo	2023-03-13T00:00:00	2024-11-08T15:00:00	1	Precipitación	0
159156	7	Sololá	712	San Antonio Palopó	9	San Antonio Palopo	3	Marzo	2023-03-13T00:00:00	2024-11-08T15:00:00	8	Radiación solar	398
159157	7	Sololá	712	San Antonio Palopó	9	San Antonio Palopo	3	Marzo	2023-03-13T00:00:00	2024-11-08T16:00:00	2	Temperatura media	20.2
159158	7	Sololá	712	San Antonio Palopó	9	San Antonio Palopo	3	Marzo	2023-03-13T00:00:00	2024-11-08T16:00:00	4	Temperatura máxima	21.8
159159	7	Sololá	712	San Antonio Palopó	9	San Antonio Palopo	3	Marzo	2023-03-13T00:00:00	2024-11-08T16:00:00	3	Temperatura mínima	20.2
159160	7	Sololá	712	San Antonio Palopó	9	San Antonio Palopo	3	Marzo	2023-03-13T00:00:00	2024-11-08T16:00:00	5	Humedad	80
159161	7	Sololá	712	San Antonio Palopó	9	San Antonio Palopo	3	Marzo	2023-03-13T00:00:00	2024-11-08T16:00:00	6	Velocidad del viento	9.7
159162	7	Sololá	712	San Antonio Palopó	9	San Antonio Palopo	3	Marzo	2023-03-13T00:00:00	2024-11-08T16:00:00	7	Dirección del viento	9.66
159163	7	Sololá	712	San Antonio Palopó	9	San Antonio Palopo	3	Marzo	2023-03-13T00:00:00	2024-11-08T16:00:00	1	Precipitación	0
159164	7	Sololá	712	San Antonio Palopó	9	San Antonio Palopo	3	Marzo	2023-03-13T00:00:00	2024-11-08T16:00:00	8	Radiación solar	314
159165	7	Sololá	712	San Antonio Palopó	9	San Antonio Palopo	3	Marzo	2023-03-13T00:00:00	2024-11-08T17:00:00	2	Temperatura media	19.9
159166	7	Sololá	712	San Antonio Palopó	9	San Antonio Palopo	3	Marzo	2023-03-13T00:00:00	2024-11-08T17:00:00	4	Temperatura máxima	20.8
159167	7	Sololá	712	San Antonio Palopó	9	San Antonio Palopo	3	Marzo	2023-03-13T00:00:00	2024-11-08T17:00:00	3	Temperatura mínima	19.8
159168	7	Sololá	712	San Antonio Palopó	9	San Antonio Palopo	3	Marzo	2023-03-13T00:00:00	2024-11-08T17:00:00	5	Humedad	79
159169	7	Sololá	712	San Antonio Palopó	9	San Antonio Palopo	3	Marzo	2023-03-13T00:00:00	2024-11-08T17:00:00	6	Velocidad del viento	8
159170	7	Sololá	712	San Antonio Palopó	9	San Antonio Palopo	3	Marzo	2023-03-13T00:00:00	2024-11-08T17:00:00	7	Dirección del viento	8.05
159171	7	Sololá	712	San Antonio Palopó	9	San Antonio Palopo	3	Marzo	2023-03-13T00:00:00	2024-11-08T17:00:00	1	Precipitación	0
159172	7	Sololá	712	San Antonio Palopó	9	San Antonio Palopo	3	Marzo	2023-03-13T00:00:00	2024-11-08T17:00:00	8	Radiación solar	72
159173	7	Sololá	712	San Antonio Palopó	9	San Antonio Palopo	3	Marzo	2023-03-13T00:00:00	2024-11-08T18:00:00	2	Temperatura media	19.7
159174	7	Sololá	712	San Antonio Palopó	9	San Antonio Palopo	3	Marzo	2023-03-13T00:00:00	2024-11-08T18:00:00	4	Temperatura máxima	20
159175	7	Sololá	712	San Antonio Palopó	9	San Antonio Palopo	3	Marzo	2023-03-13T00:00:00	2024-11-08T18:00:00	3	Temperatura mínima	19.7
159176	7	Sololá	712	San Antonio Palopó	9	San Antonio Palopo	3	Marzo	2023-03-13T00:00:00	2024-11-08T18:00:00	5	Humedad	82
159177	7	Sololá	712	San Antonio Palopó	9	San Antonio Palopo	3	Marzo	2023-03-13T00:00:00	2024-11-08T18:00:00	6	Velocidad del viento	4.8
159178	7	Sololá	712	San Antonio Palopó	9	San Antonio Palopo	3	Marzo	2023-03-13T00:00:00	2024-11-08T18:00:00	7	Dirección del viento	4.83
159179	7	Sololá	712	San Antonio Palopó	9	San Antonio Palopo	3	Marzo	2023-03-13T00:00:00	2024-11-08T18:00:00	1	Precipitación	0
159180	7	Sololá	712	San Antonio Palopó	9	San Antonio Palopo	3	Marzo	2023-03-13T00:00:00	2024-11-08T18:00:00	8	Radiación solar	46
159181	7	Sololá	712	San Antonio Palopó	9	San Antonio Palopo	3	Marzo	2023-03-13T00:00:00	2024-11-08T19:00:00	2	Temperatura media	19.5
159182	7	Sololá	712	San Antonio Palopó	9	San Antonio Palopo	3	Marzo	2023-03-13T00:00:00	2024-11-08T19:00:00	4	Temperatura máxima	19.7
159183	7	Sololá	712	San Antonio Palopó	9	San Antonio Palopo	3	Marzo	2023-03-13T00:00:00	2024-11-08T19:00:00	3	Temperatura mínima	19.4
159184	7	Sololá	712	San Antonio Palopó	9	San Antonio Palopo	3	Marzo	2023-03-13T00:00:00	2024-11-08T19:00:00	5	Humedad	82
159185	7	Sololá	712	San Antonio Palopó	9	San Antonio Palopo	3	Marzo	2023-03-13T00:00:00	2024-11-08T19:00:00	6	Velocidad del viento	1.6
159186	7	Sololá	712	San Antonio Palopó	9	San Antonio Palopo	3	Marzo	2023-03-13T00:00:00	2024-11-08T19:00:00	7	Dirección del viento	1.61
159187	7	Sololá	712	San Antonio Palopó	9	San Antonio Palopo	3	Marzo	2023-03-13T00:00:00	2024-11-08T19:00:00	1	Precipitación	0
159188	7	Sololá	712	San Antonio Palopó	9	San Antonio Palopo	3	Marzo	2023-03-13T00:00:00	2024-11-08T19:00:00	8	Radiación solar	0
159189	7	Sololá	712	San Antonio Palopó	9	San Antonio Palopo	3	Marzo	2023-03-13T00:00:00	2024-11-08T20:00:00	2	Temperatura media	19.2
159190	7	Sololá	712	San Antonio Palopó	9	San Antonio Palopo	3	Marzo	2023-03-13T00:00:00	2024-11-08T20:00:00	4	Temperatura máxima	19.5
159191	7	Sololá	712	San Antonio Palopó	9	San Antonio Palopo	3	Marzo	2023-03-13T00:00:00	2024-11-08T20:00:00	3	Temperatura mínima	19.2
159192	7	Sololá	712	San Antonio Palopó	9	San Antonio Palopo	3	Marzo	2023-03-13T00:00:00	2024-11-08T20:00:00	5	Humedad	84
159193	7	Sololá	712	San Antonio Palopó	9	San Antonio Palopo	3	Marzo	2023-03-13T00:00:00	2024-11-08T20:00:00	6	Velocidad del viento	1.6
159194	7	Sololá	712	San Antonio Palopó	9	San Antonio Palopo	3	Marzo	2023-03-13T00:00:00	2024-11-08T20:00:00	7	Dirección del viento	1.61
159195	7	Sololá	712	San Antonio Palopó	9	San Antonio Palopo	3	Marzo	2023-03-13T00:00:00	2024-11-08T20:00:00	1	Precipitación	0
159196	7	Sololá	712	San Antonio Palopó	9	San Antonio Palopo	3	Marzo	2023-03-13T00:00:00	2024-11-08T20:00:00	8	Radiación solar	0
159197	7	Sololá	712	San Antonio Palopó	9	San Antonio Palopo	3	Marzo	2023-03-13T00:00:00	2024-11-08T21:00:00	2	Temperatura media	18.7
159198	7	Sololá	712	San Antonio Palopó	9	San Antonio Palopo	3	Marzo	2023-03-13T00:00:00	2024-11-08T21:00:00	4	Temperatura máxima	19.2
159199	7	Sololá	712	San Antonio Palopó	9	San Antonio Palopo	3	Marzo	2023-03-13T00:00:00	2024-11-08T21:00:00	3	Temperatura mínima	18.7
159200	7	Sololá	712	San Antonio Palopó	9	San Antonio Palopo	3	Marzo	2023-03-13T00:00:00	2024-11-08T21:00:00	5	Humedad	85
159201	7	Sololá	712	San Antonio Palopó	9	San Antonio Palopo	3	Marzo	2023-03-13T00:00:00	2024-11-08T21:00:00	6	Velocidad del viento	3.2
159202	7	Sololá	712	San Antonio Palopó	9	San Antonio Palopo	3	Marzo	2023-03-13T00:00:00	2024-11-08T21:00:00	7	Dirección del viento	3.22
159203	7	Sololá	712	San Antonio Palopó	9	San Antonio Palopo	3	Marzo	2023-03-13T00:00:00	2024-11-08T21:00:00	1	Precipitación	0
159204	7	Sololá	712	San Antonio Palopó	9	San Antonio Palopo	3	Marzo	2023-03-13T00:00:00	2024-11-08T21:00:00	8	Radiación solar	0
159205	7	Sololá	712	San Antonio Palopó	9	San Antonio Palopo	3	Marzo	2023-03-13T00:00:00	2024-11-08T22:00:00	2	Temperatura media	18.7
159206	7	Sololá	712	San Antonio Palopó	9	San Antonio Palopo	3	Marzo	2023-03-13T00:00:00	2024-11-08T22:00:00	4	Temperatura máxima	18.8
159207	7	Sololá	712	San Antonio Palopó	9	San Antonio Palopo	3	Marzo	2023-03-13T00:00:00	2024-11-08T22:00:00	3	Temperatura mínima	18.4
159208	7	Sololá	712	San Antonio Palopó	9	San Antonio Palopo	3	Marzo	2023-03-13T00:00:00	2024-11-08T22:00:00	5	Humedad	84
159209	7	Sololá	712	San Antonio Palopó	9	San Antonio Palopo	3	Marzo	2023-03-13T00:00:00	2024-11-08T22:00:00	6	Velocidad del viento	3.2
159210	7	Sololá	712	San Antonio Palopó	9	San Antonio Palopo	3	Marzo	2023-03-13T00:00:00	2024-11-08T22:00:00	7	Dirección del viento	3.22
159211	7	Sololá	712	San Antonio Palopó	9	San Antonio Palopo	3	Marzo	2023-03-13T00:00:00	2024-11-08T22:00:00	1	Precipitación	0
159212	7	Sololá	712	San Antonio Palopó	9	San Antonio Palopo	3	Marzo	2023-03-13T00:00:00	2024-11-08T22:00:00	8	Radiación solar	0
159213	7	Sololá	712	San Antonio Palopó	9	San Antonio Palopo	3	Marzo	2023-03-13T00:00:00	2024-11-08T23:00:00	2	Temperatura media	18.2
159214	7	Sololá	712	San Antonio Palopó	9	San Antonio Palopo	3	Marzo	2023-03-13T00:00:00	2024-11-08T23:00:00	4	Temperatura máxima	18.7
159215	7	Sololá	712	San Antonio Palopó	9	San Antonio Palopo	3	Marzo	2023-03-13T00:00:00	2024-11-08T23:00:00	3	Temperatura mínima	18.1
159216	7	Sololá	712	San Antonio Palopó	9	San Antonio Palopo	3	Marzo	2023-03-13T00:00:00	2024-11-08T23:00:00	5	Humedad	84
159217	7	Sololá	712	San Antonio Palopó	9	San Antonio Palopo	3	Marzo	2023-03-13T00:00:00	2024-11-08T23:00:00	6	Velocidad del viento	3.2
159218	7	Sololá	712	San Antonio Palopó	9	San Antonio Palopo	3	Marzo	2023-03-13T00:00:00	2024-11-08T23:00:00	7	Dirección del viento	3.22
159219	7	Sololá	712	San Antonio Palopó	9	San Antonio Palopo	3	Marzo	2023-03-13T00:00:00	2024-11-08T23:00:00	1	Precipitación	0
159220	7	Sololá	712	San Antonio Palopó	9	San Antonio Palopo	3	Marzo	2023-03-13T00:00:00	2024-11-08T23:00:00	8	Radiación solar	0
159221	7	Sololá	712	San Antonio Palopó	9	San Antonio Palopo	3	Marzo	2023-03-14T00:00:00	2024-11-08T00:00:00	2	Temperatura media	18.3
159222	7	Sololá	712	San Antonio Palopó	9	San Antonio Palopo	3	Marzo	2023-03-14T00:00:00	2024-11-08T00:00:00	4	Temperatura máxima	18.3
159223	7	Sololá	712	San Antonio Palopó	9	San Antonio Palopo	3	Marzo	2023-03-14T00:00:00	2024-11-08T00:00:00	3	Temperatura mínima	18
159224	7	Sololá	712	San Antonio Palopó	9	San Antonio Palopo	3	Marzo	2023-03-14T00:00:00	2024-11-08T00:00:00	5	Humedad	82
159225	7	Sololá	712	San Antonio Palopó	9	San Antonio Palopo	3	Marzo	2023-03-14T00:00:00	2024-11-08T00:00:00	6	Velocidad del viento	1.6
159226	7	Sololá	712	San Antonio Palopó	9	San Antonio Palopo	3	Marzo	2023-03-14T00:00:00	2024-11-08T00:00:00	7	Dirección del viento	1.61
159227	7	Sololá	712	San Antonio Palopó	9	San Antonio Palopo	3	Marzo	2023-03-14T00:00:00	2024-11-08T00:00:00	1	Precipitación	0
159228	7	Sololá	712	San Antonio Palopó	9	San Antonio Palopo	3	Marzo	2023-03-14T00:00:00	2024-11-08T00:00:00	8	Radiación solar	0
159229	7	Sololá	712	San Antonio Palopó	9	San Antonio Palopo	3	Marzo	2023-03-14T00:00:00	2024-11-08T01:00:00	2	Temperatura media	17.8
159230	7	Sololá	712	San Antonio Palopó	9	San Antonio Palopo	3	Marzo	2023-03-14T00:00:00	2024-11-08T01:00:00	4	Temperatura máxima	18.3
159231	7	Sololá	712	San Antonio Palopó	9	San Antonio Palopo	3	Marzo	2023-03-14T00:00:00	2024-11-08T01:00:00	3	Temperatura mínima	17.6
159232	7	Sololá	712	San Antonio Palopó	9	San Antonio Palopo	3	Marzo	2023-03-14T00:00:00	2024-11-08T01:00:00	5	Humedad	82
159233	7	Sololá	712	San Antonio Palopó	9	San Antonio Palopo	3	Marzo	2023-03-14T00:00:00	2024-11-08T01:00:00	6	Velocidad del viento	3.2
159234	7	Sololá	712	San Antonio Palopó	9	San Antonio Palopo	3	Marzo	2023-03-14T00:00:00	2024-11-08T01:00:00	7	Dirección del viento	3.22
159235	7	Sololá	712	San Antonio Palopó	9	San Antonio Palopo	3	Marzo	2023-03-14T00:00:00	2024-11-08T01:00:00	1	Precipitación	0
159236	7	Sololá	712	San Antonio Palopó	9	San Antonio Palopo	3	Marzo	2023-03-14T00:00:00	2024-11-08T01:00:00	8	Radiación solar	0
159237	7	Sololá	712	San Antonio Palopó	9	San Antonio Palopo	3	Marzo	2023-03-14T00:00:00	2024-11-08T02:00:00	2	Temperatura media	17.8
159238	7	Sololá	712	San Antonio Palopó	9	San Antonio Palopo	3	Marzo	2023-03-14T00:00:00	2024-11-08T02:00:00	4	Temperatura máxima	18.3
159239	7	Sololá	712	San Antonio Palopó	9	San Antonio Palopo	3	Marzo	2023-03-14T00:00:00	2024-11-08T02:00:00	3	Temperatura mínima	17.8
159240	7	Sololá	712	San Antonio Palopó	9	San Antonio Palopo	3	Marzo	2023-03-14T00:00:00	2024-11-08T02:00:00	5	Humedad	78
159241	7	Sololá	712	San Antonio Palopó	9	San Antonio Palopo	3	Marzo	2023-03-14T00:00:00	2024-11-08T02:00:00	6	Velocidad del viento	3.2
159242	7	Sololá	712	San Antonio Palopó	9	San Antonio Palopo	3	Marzo	2023-03-14T00:00:00	2024-11-08T02:00:00	7	Dirección del viento	3.22
159243	7	Sololá	712	San Antonio Palopó	9	San Antonio Palopo	3	Marzo	2023-03-14T00:00:00	2024-11-08T02:00:00	1	Precipitación	0
159244	7	Sololá	712	San Antonio Palopó	9	San Antonio Palopo	3	Marzo	2023-03-14T00:00:00	2024-11-08T02:00:00	8	Radiación solar	0
159245	7	Sololá	712	San Antonio Palopó	9	San Antonio Palopo	3	Marzo	2023-03-14T00:00:00	2024-11-08T03:00:00	2	Temperatura media	17.4
159246	7	Sololá	712	San Antonio Palopó	9	San Antonio Palopo	3	Marzo	2023-03-14T00:00:00	2024-11-08T03:00:00	4	Temperatura máxima	17.8
159247	7	Sololá	712	San Antonio Palopó	9	San Antonio Palopo	3	Marzo	2023-03-14T00:00:00	2024-11-08T03:00:00	3	Temperatura mínima	17.3
159248	7	Sololá	712	San Antonio Palopó	9	San Antonio Palopo	3	Marzo	2023-03-14T00:00:00	2024-11-08T03:00:00	5	Humedad	78
159249	7	Sololá	712	San Antonio Palopó	9	San Antonio Palopo	3	Marzo	2023-03-14T00:00:00	2024-11-08T03:00:00	6	Velocidad del viento	1.6
159250	7	Sololá	712	San Antonio Palopó	9	San Antonio Palopo	3	Marzo	2023-03-14T00:00:00	2024-11-08T03:00:00	7	Dirección del viento	1.61
159251	7	Sololá	712	San Antonio Palopó	9	San Antonio Palopo	3	Marzo	2023-03-14T00:00:00	2024-11-08T03:00:00	1	Precipitación	0
159252	7	Sololá	712	San Antonio Palopó	9	San Antonio Palopo	3	Marzo	2023-03-14T00:00:00	2024-11-08T03:00:00	8	Radiación solar	0
159253	7	Sololá	712	San Antonio Palopó	9	San Antonio Palopo	3	Marzo	2023-03-14T00:00:00	2024-11-08T04:00:00	2	Temperatura media	17.6
159254	7	Sololá	712	San Antonio Palopó	9	San Antonio Palopo	3	Marzo	2023-03-14T00:00:00	2024-11-08T04:00:00	4	Temperatura máxima	17.6
159255	7	Sololá	712	San Antonio Palopó	9	San Antonio Palopo	3	Marzo	2023-03-14T00:00:00	2024-11-08T04:00:00	3	Temperatura mínima	17.3
159256	7	Sololá	712	San Antonio Palopó	9	San Antonio Palopo	3	Marzo	2023-03-14T00:00:00	2024-11-08T04:00:00	5	Humedad	81
159257	7	Sololá	712	San Antonio Palopó	9	San Antonio Palopo	3	Marzo	2023-03-14T00:00:00	2024-11-08T04:00:00	6	Velocidad del viento	1.6
159258	7	Sololá	712	San Antonio Palopó	9	San Antonio Palopo	3	Marzo	2023-03-14T00:00:00	2024-11-08T04:00:00	7	Dirección del viento	1.61
159259	7	Sololá	712	San Antonio Palopó	9	San Antonio Palopo	3	Marzo	2023-03-14T00:00:00	2024-11-08T04:00:00	1	Precipitación	0
159260	7	Sololá	712	San Antonio Palopó	9	San Antonio Palopo	3	Marzo	2023-03-14T00:00:00	2024-11-08T04:00:00	8	Radiación solar	0
159261	7	Sololá	712	San Antonio Palopó	9	San Antonio Palopo	3	Marzo	2023-03-14T00:00:00	2024-11-08T05:00:00	2	Temperatura media	18
159262	7	Sololá	712	San Antonio Palopó	9	San Antonio Palopo	3	Marzo	2023-03-14T00:00:00	2024-11-08T05:00:00	4	Temperatura máxima	18
159263	7	Sololá	712	San Antonio Palopó	9	San Antonio Palopo	3	Marzo	2023-03-14T00:00:00	2024-11-08T05:00:00	3	Temperatura mínima	17.6
159264	7	Sololá	712	San Antonio Palopó	9	San Antonio Palopo	3	Marzo	2023-03-14T00:00:00	2024-11-08T05:00:00	5	Humedad	86
159265	7	Sololá	712	San Antonio Palopó	9	San Antonio Palopo	3	Marzo	2023-03-14T00:00:00	2024-11-08T05:00:00	6	Velocidad del viento	1.6
159266	7	Sololá	712	San Antonio Palopó	9	San Antonio Palopo	3	Marzo	2023-03-14T00:00:00	2024-11-08T05:00:00	7	Dirección del viento	1.61
159267	7	Sololá	712	San Antonio Palopó	9	San Antonio Palopo	3	Marzo	2023-03-14T00:00:00	2024-11-08T05:00:00	1	Precipitación	0
159268	7	Sololá	712	San Antonio Palopó	9	San Antonio Palopo	3	Marzo	2023-03-14T00:00:00	2024-11-08T05:00:00	8	Radiación solar	0
159269	7	Sololá	712	San Antonio Palopó	9	San Antonio Palopo	3	Marzo	2023-03-14T00:00:00	2024-11-08T06:00:00	2	Temperatura media	17.7
159270	7	Sololá	712	San Antonio Palopó	9	San Antonio Palopo	3	Marzo	2023-03-14T00:00:00	2024-11-08T06:00:00	4	Temperatura máxima	18.1
159271	7	Sololá	712	San Antonio Palopó	9	San Antonio Palopo	3	Marzo	2023-03-14T00:00:00	2024-11-08T06:00:00	3	Temperatura mínima	17.6
159272	7	Sololá	712	San Antonio Palopó	9	San Antonio Palopo	3	Marzo	2023-03-14T00:00:00	2024-11-08T06:00:00	5	Humedad	86
159273	7	Sololá	712	San Antonio Palopó	9	San Antonio Palopo	3	Marzo	2023-03-14T00:00:00	2024-11-08T06:00:00	6	Velocidad del viento	1.6
159274	7	Sololá	712	San Antonio Palopó	9	San Antonio Palopo	3	Marzo	2023-03-14T00:00:00	2024-11-08T06:00:00	7	Dirección del viento	1.61
159275	7	Sololá	712	San Antonio Palopó	9	San Antonio Palopo	3	Marzo	2023-03-14T00:00:00	2024-11-08T06:00:00	1	Precipitación	0
159276	7	Sololá	712	San Antonio Palopó	9	San Antonio Palopo	3	Marzo	2023-03-14T00:00:00	2024-11-08T06:00:00	8	Radiación solar	0
159277	7	Sololá	712	San Antonio Palopó	9	San Antonio Palopo	3	Marzo	2023-03-14T00:00:00	2024-11-08T07:00:00	2	Temperatura media	17.9
159278	7	Sololá	712	San Antonio Palopó	9	San Antonio Palopo	3	Marzo	2023-03-14T00:00:00	2024-11-08T07:00:00	4	Temperatura máxima	17.9
159279	7	Sololá	712	San Antonio Palopó	9	San Antonio Palopo	3	Marzo	2023-03-14T00:00:00	2024-11-08T07:00:00	3	Temperatura mínima	17.6
159280	7	Sololá	712	San Antonio Palopó	9	San Antonio Palopo	3	Marzo	2023-03-14T00:00:00	2024-11-08T07:00:00	5	Humedad	87
159281	7	Sololá	712	San Antonio Palopó	9	San Antonio Palopo	3	Marzo	2023-03-14T00:00:00	2024-11-08T07:00:00	6	Velocidad del viento	1.6
159282	7	Sololá	712	San Antonio Palopó	9	San Antonio Palopo	3	Marzo	2023-03-14T00:00:00	2024-11-08T07:00:00	7	Dirección del viento	1.61
159283	7	Sololá	712	San Antonio Palopó	9	San Antonio Palopo	3	Marzo	2023-03-14T00:00:00	2024-11-08T07:00:00	1	Precipitación	0
159284	7	Sololá	712	San Antonio Palopó	9	San Antonio Palopo	3	Marzo	2023-03-14T00:00:00	2024-11-08T07:00:00	8	Radiación solar	17
159285	7	Sololá	712	San Antonio Palopó	9	San Antonio Palopo	3	Marzo	2023-03-14T00:00:00	2024-11-08T08:00:00	2	Temperatura media	18.3
159286	7	Sololá	712	San Antonio Palopó	9	San Antonio Palopo	3	Marzo	2023-03-14T00:00:00	2024-11-08T08:00:00	4	Temperatura máxima	18.3
159287	7	Sololá	712	San Antonio Palopó	9	San Antonio Palopo	3	Marzo	2023-03-14T00:00:00	2024-11-08T08:00:00	3	Temperatura mínima	17.9
159288	7	Sololá	712	San Antonio Palopó	9	San Antonio Palopo	3	Marzo	2023-03-14T00:00:00	2024-11-08T08:00:00	5	Humedad	83
159289	7	Sololá	712	San Antonio Palopó	9	San Antonio Palopo	3	Marzo	2023-03-14T00:00:00	2024-11-08T08:00:00	6	Velocidad del viento	1.6
159290	7	Sololá	712	San Antonio Palopó	9	San Antonio Palopo	3	Marzo	2023-03-14T00:00:00	2024-11-08T08:00:00	7	Dirección del viento	1.61
159291	7	Sololá	712	San Antonio Palopó	9	San Antonio Palopo	3	Marzo	2023-03-14T00:00:00	2024-11-08T08:00:00	1	Precipitación	0
159292	7	Sololá	712	San Antonio Palopó	9	San Antonio Palopo	3	Marzo	2023-03-14T00:00:00	2024-11-08T08:00:00	8	Radiación solar	70
159293	7	Sololá	712	San Antonio Palopó	9	San Antonio Palopo	3	Marzo	2023-03-14T00:00:00	2024-11-08T09:00:00	2	Temperatura media	20.1
159294	7	Sololá	712	San Antonio Palopó	9	San Antonio Palopo	3	Marzo	2023-03-14T00:00:00	2024-11-08T09:00:00	4	Temperatura máxima	20.8
159295	7	Sololá	712	San Antonio Palopó	9	San Antonio Palopo	3	Marzo	2023-03-14T00:00:00	2024-11-08T09:00:00	3	Temperatura mínima	18.3
159296	7	Sololá	712	San Antonio Palopó	9	San Antonio Palopo	3	Marzo	2023-03-14T00:00:00	2024-11-08T09:00:00	5	Humedad	76
159297	7	Sololá	712	San Antonio Palopó	9	San Antonio Palopo	3	Marzo	2023-03-14T00:00:00	2024-11-08T09:00:00	6	Velocidad del viento	1.6
159298	7	Sololá	712	San Antonio Palopó	9	San Antonio Palopo	3	Marzo	2023-03-14T00:00:00	2024-11-08T09:00:00	7	Dirección del viento	1.61
159299	7	Sololá	712	San Antonio Palopó	9	San Antonio Palopo	3	Marzo	2023-03-14T00:00:00	2024-11-08T09:00:00	1	Precipitación	0
159300	7	Sololá	712	San Antonio Palopó	9	San Antonio Palopo	3	Marzo	2023-03-14T00:00:00	2024-11-08T09:00:00	8	Radiación solar	353
159301	7	Sololá	712	San Antonio Palopó	9	San Antonio Palopo	3	Marzo	2023-03-14T00:00:00	2024-11-08T10:00:00	2	Temperatura media	20.8
159302	7	Sololá	712	San Antonio Palopó	9	San Antonio Palopo	3	Marzo	2023-03-14T00:00:00	2024-11-08T10:00:00	4	Temperatura máxima	20.8
159303	7	Sololá	712	San Antonio Palopó	9	San Antonio Palopo	3	Marzo	2023-03-14T00:00:00	2024-11-08T10:00:00	3	Temperatura mínima	20.1
159304	7	Sololá	712	San Antonio Palopó	9	San Antonio Palopo	3	Marzo	2023-03-14T00:00:00	2024-11-08T10:00:00	5	Humedad	73
159305	7	Sololá	712	San Antonio Palopó	9	San Antonio Palopo	3	Marzo	2023-03-14T00:00:00	2024-11-08T10:00:00	6	Velocidad del viento	3.2
159306	7	Sololá	712	San Antonio Palopó	9	San Antonio Palopo	3	Marzo	2023-03-14T00:00:00	2024-11-08T10:00:00	7	Dirección del viento	3.22
159307	7	Sololá	712	San Antonio Palopó	9	San Antonio Palopo	3	Marzo	2023-03-14T00:00:00	2024-11-08T10:00:00	1	Precipitación	0
159308	7	Sololá	712	San Antonio Palopó	9	San Antonio Palopo	3	Marzo	2023-03-14T00:00:00	2024-11-08T10:00:00	8	Radiación solar	562
159309	7	Sololá	712	San Antonio Palopó	9	San Antonio Palopo	3	Marzo	2023-03-14T00:00:00	2024-11-08T11:00:00	2	Temperatura media	21.9
159310	7	Sololá	712	San Antonio Palopó	9	San Antonio Palopo	3	Marzo	2023-03-14T00:00:00	2024-11-08T11:00:00	4	Temperatura máxima	22.2
159311	7	Sololá	712	San Antonio Palopó	9	San Antonio Palopo	3	Marzo	2023-03-14T00:00:00	2024-11-08T11:00:00	3	Temperatura mínima	20.8
159312	7	Sololá	712	San Antonio Palopó	9	San Antonio Palopo	3	Marzo	2023-03-14T00:00:00	2024-11-08T11:00:00	5	Humedad	73
159313	7	Sololá	712	San Antonio Palopó	9	San Antonio Palopo	3	Marzo	2023-03-14T00:00:00	2024-11-08T11:00:00	6	Velocidad del viento	3.2
159314	7	Sololá	712	San Antonio Palopó	9	San Antonio Palopo	3	Marzo	2023-03-14T00:00:00	2024-11-08T11:00:00	7	Dirección del viento	3.22
159315	7	Sololá	712	San Antonio Palopó	9	San Antonio Palopo	3	Marzo	2023-03-14T00:00:00	2024-11-08T11:00:00	1	Precipitación	0
159316	7	Sololá	712	San Antonio Palopó	9	San Antonio Palopo	3	Marzo	2023-03-14T00:00:00	2024-11-08T11:00:00	8	Radiación solar	780
159317	7	Sololá	712	San Antonio Palopó	9	San Antonio Palopo	3	Marzo	2023-03-14T00:00:00	2024-11-08T12:00:00	2	Temperatura media	23.6
159318	7	Sololá	712	San Antonio Palopó	9	San Antonio Palopo	3	Marzo	2023-03-14T00:00:00	2024-11-08T12:00:00	4	Temperatura máxima	23.8
159319	7	Sololá	712	San Antonio Palopó	9	San Antonio Palopo	3	Marzo	2023-03-14T00:00:00	2024-11-08T12:00:00	3	Temperatura mínima	21.9
159320	7	Sololá	712	San Antonio Palopó	9	San Antonio Palopo	3	Marzo	2023-03-14T00:00:00	2024-11-08T12:00:00	5	Humedad	65
159321	7	Sololá	712	San Antonio Palopó	9	San Antonio Palopo	3	Marzo	2023-03-14T00:00:00	2024-11-08T12:00:00	6	Velocidad del viento	8
159322	7	Sololá	712	San Antonio Palopó	9	San Antonio Palopo	3	Marzo	2023-03-14T00:00:00	2024-11-08T12:00:00	7	Dirección del viento	8.05
159323	7	Sololá	712	San Antonio Palopó	9	San Antonio Palopo	3	Marzo	2023-03-14T00:00:00	2024-11-08T12:00:00	1	Precipitación	0
159324	7	Sololá	712	San Antonio Palopó	9	San Antonio Palopo	3	Marzo	2023-03-14T00:00:00	2024-11-08T12:00:00	8	Radiación solar	868
159325	7	Sololá	712	San Antonio Palopó	9	San Antonio Palopo	3	Marzo	2023-03-14T00:00:00	2024-11-08T13:00:00	2	Temperatura media	23.2
159326	7	Sololá	712	San Antonio Palopó	9	San Antonio Palopo	3	Marzo	2023-03-14T00:00:00	2024-11-08T13:00:00	4	Temperatura máxima	23.8
159327	7	Sololá	712	San Antonio Palopó	9	San Antonio Palopo	3	Marzo	2023-03-14T00:00:00	2024-11-08T13:00:00	3	Temperatura mínima	23.1
159328	7	Sololá	712	San Antonio Palopó	9	San Antonio Palopo	3	Marzo	2023-03-14T00:00:00	2024-11-08T13:00:00	5	Humedad	71
159329	7	Sololá	712	San Antonio Palopó	9	San Antonio Palopo	3	Marzo	2023-03-14T00:00:00	2024-11-08T13:00:00	6	Velocidad del viento	11.3
159330	7	Sololá	712	San Antonio Palopó	9	San Antonio Palopo	3	Marzo	2023-03-14T00:00:00	2024-11-08T13:00:00	7	Dirección del viento	11.27
159331	7	Sololá	712	San Antonio Palopó	9	San Antonio Palopo	3	Marzo	2023-03-14T00:00:00	2024-11-08T13:00:00	1	Precipitación	0
159332	7	Sololá	712	San Antonio Palopó	9	San Antonio Palopo	3	Marzo	2023-03-14T00:00:00	2024-11-08T13:00:00	8	Radiación solar	886
159333	7	Sololá	712	San Antonio Palopó	9	San Antonio Palopo	3	Marzo	2023-03-14T00:00:00	2024-11-08T14:00:00	2	Temperatura media	22.9
159334	7	Sololá	712	San Antonio Palopó	9	San Antonio Palopo	3	Marzo	2023-03-14T00:00:00	2024-11-08T14:00:00	4	Temperatura máxima	23.6
159335	7	Sololá	712	San Antonio Palopó	9	San Antonio Palopo	3	Marzo	2023-03-14T00:00:00	2024-11-08T14:00:00	3	Temperatura mínima	22.6
159336	7	Sololá	712	San Antonio Palopó	9	San Antonio Palopo	3	Marzo	2023-03-14T00:00:00	2024-11-08T14:00:00	5	Humedad	75
159337	7	Sololá	712	San Antonio Palopó	9	San Antonio Palopo	3	Marzo	2023-03-14T00:00:00	2024-11-08T14:00:00	6	Velocidad del viento	14.5
159338	7	Sololá	712	San Antonio Palopó	9	San Antonio Palopo	3	Marzo	2023-03-14T00:00:00	2024-11-08T14:00:00	7	Dirección del viento	14.48
159339	7	Sololá	712	San Antonio Palopó	9	San Antonio Palopo	3	Marzo	2023-03-14T00:00:00	2024-11-08T14:00:00	1	Precipitación	0
159340	7	Sololá	712	San Antonio Palopó	9	San Antonio Palopo	3	Marzo	2023-03-14T00:00:00	2024-11-08T14:00:00	8	Radiación solar	844
159341	7	Sololá	712	San Antonio Palopó	9	San Antonio Palopo	3	Marzo	2023-03-14T00:00:00	2024-11-08T15:00:00	2	Temperatura media	21.8
159342	7	Sololá	712	San Antonio Palopó	9	San Antonio Palopo	3	Marzo	2023-03-14T00:00:00	2024-11-08T15:00:00	4	Temperatura máxima	22.9
159343	7	Sololá	712	San Antonio Palopó	9	San Antonio Palopo	3	Marzo	2023-03-14T00:00:00	2024-11-08T15:00:00	3	Temperatura mínima	21.6
159344	7	Sololá	712	San Antonio Palopó	9	San Antonio Palopo	3	Marzo	2023-03-14T00:00:00	2024-11-08T15:00:00	5	Humedad	77
159345	7	Sololá	712	San Antonio Palopó	9	San Antonio Palopo	3	Marzo	2023-03-14T00:00:00	2024-11-08T15:00:00	6	Velocidad del viento	14.5
159346	7	Sololá	712	San Antonio Palopó	9	San Antonio Palopo	3	Marzo	2023-03-14T00:00:00	2024-11-08T15:00:00	7	Dirección del viento	14.48
159347	7	Sololá	712	San Antonio Palopó	9	San Antonio Palopo	3	Marzo	2023-03-14T00:00:00	2024-11-08T15:00:00	1	Precipitación	0
159348	7	Sololá	712	San Antonio Palopó	9	San Antonio Palopo	3	Marzo	2023-03-14T00:00:00	2024-11-08T15:00:00	8	Radiación solar	496
159349	7	Sololá	712	San Antonio Palopó	9	San Antonio Palopo	3	Marzo	2023-03-14T00:00:00	2024-11-08T16:00:00	2	Temperatura media	21.7
159350	7	Sololá	712	San Antonio Palopó	9	San Antonio Palopo	3	Marzo	2023-03-14T00:00:00	2024-11-08T16:00:00	4	Temperatura máxima	21.8
159351	7	Sololá	712	San Antonio Palopó	9	San Antonio Palopo	3	Marzo	2023-03-14T00:00:00	2024-11-08T16:00:00	3	Temperatura mínima	20.8
159352	7	Sololá	712	San Antonio Palopó	9	San Antonio Palopo	3	Marzo	2023-03-14T00:00:00	2024-11-08T16:00:00	5	Humedad	78
159353	7	Sololá	712	San Antonio Palopó	9	San Antonio Palopo	3	Marzo	2023-03-14T00:00:00	2024-11-08T16:00:00	6	Velocidad del viento	11.3
159354	7	Sololá	712	San Antonio Palopó	9	San Antonio Palopo	3	Marzo	2023-03-14T00:00:00	2024-11-08T16:00:00	7	Dirección del viento	11.27
159355	7	Sololá	712	San Antonio Palopó	9	San Antonio Palopo	3	Marzo	2023-03-14T00:00:00	2024-11-08T16:00:00	1	Precipitación	0
159356	7	Sololá	712	San Antonio Palopó	9	San Antonio Palopo	3	Marzo	2023-03-14T00:00:00	2024-11-08T16:00:00	8	Radiación solar	182
159357	7	Sololá	712	San Antonio Palopó	9	San Antonio Palopo	3	Marzo	2023-03-14T00:00:00	2024-11-08T17:00:00	2	Temperatura media	21.8
159358	7	Sololá	712	San Antonio Palopó	9	San Antonio Palopo	3	Marzo	2023-03-14T00:00:00	2024-11-08T17:00:00	4	Temperatura máxima	22.5
159359	7	Sololá	712	San Antonio Palopó	9	San Antonio Palopo	3	Marzo	2023-03-14T00:00:00	2024-11-08T17:00:00	3	Temperatura mínima	21.7
159360	7	Sololá	712	San Antonio Palopó	9	San Antonio Palopo	3	Marzo	2023-03-14T00:00:00	2024-11-08T17:00:00	5	Humedad	80
159361	7	Sololá	712	San Antonio Palopó	9	San Antonio Palopo	3	Marzo	2023-03-14T00:00:00	2024-11-08T17:00:00	6	Velocidad del viento	4.8
159362	7	Sololá	712	San Antonio Palopó	9	San Antonio Palopo	3	Marzo	2023-03-14T00:00:00	2024-11-08T17:00:00	7	Dirección del viento	4.83
159363	7	Sololá	712	San Antonio Palopó	9	San Antonio Palopo	3	Marzo	2023-03-14T00:00:00	2024-11-08T17:00:00	1	Precipitación	0
159364	7	Sololá	712	San Antonio Palopó	9	San Antonio Palopo	3	Marzo	2023-03-14T00:00:00	2024-11-08T17:00:00	8	Radiación solar	278
159365	7	Sololá	712	San Antonio Palopó	9	San Antonio Palopo	3	Marzo	2023-03-14T00:00:00	2024-11-08T18:00:00	2	Temperatura media	20.6
159366	7	Sololá	712	San Antonio Palopó	9	San Antonio Palopo	3	Marzo	2023-03-14T00:00:00	2024-11-08T18:00:00	4	Temperatura máxima	21.8
159367	7	Sololá	712	San Antonio Palopó	9	San Antonio Palopo	3	Marzo	2023-03-14T00:00:00	2024-11-08T18:00:00	3	Temperatura mínima	20.6
159368	7	Sololá	712	San Antonio Palopó	9	San Antonio Palopo	3	Marzo	2023-03-14T00:00:00	2024-11-08T18:00:00	5	Humedad	80
159369	7	Sololá	712	San Antonio Palopó	9	San Antonio Palopo	3	Marzo	2023-03-14T00:00:00	2024-11-08T18:00:00	6	Velocidad del viento	4.8
159370	7	Sololá	712	San Antonio Palopó	9	San Antonio Palopo	3	Marzo	2023-03-14T00:00:00	2024-11-08T18:00:00	7	Dirección del viento	4.83
159371	7	Sololá	712	San Antonio Palopó	9	San Antonio Palopo	3	Marzo	2023-03-14T00:00:00	2024-11-08T18:00:00	1	Precipitación	0
159372	7	Sololá	712	San Antonio Palopó	9	San Antonio Palopo	3	Marzo	2023-03-14T00:00:00	2024-11-08T18:00:00	8	Radiación solar	72
159373	7	Sololá	712	San Antonio Palopó	9	San Antonio Palopo	3	Marzo	2023-03-14T00:00:00	2024-11-08T19:00:00	2	Temperatura media	20.3
159374	7	Sololá	712	San Antonio Palopó	9	San Antonio Palopo	3	Marzo	2023-03-14T00:00:00	2024-11-08T19:00:00	4	Temperatura máxima	20.7
159375	7	Sololá	712	San Antonio Palopó	9	San Antonio Palopo	3	Marzo	2023-03-14T00:00:00	2024-11-08T19:00:00	3	Temperatura mínima	20.3
159376	7	Sololá	712	San Antonio Palopó	9	San Antonio Palopo	3	Marzo	2023-03-14T00:00:00	2024-11-08T19:00:00	5	Humedad	80
159377	7	Sololá	712	San Antonio Palopó	9	San Antonio Palopo	3	Marzo	2023-03-14T00:00:00	2024-11-08T19:00:00	6	Velocidad del viento	3.2
159378	7	Sololá	712	San Antonio Palopó	9	San Antonio Palopo	3	Marzo	2023-03-14T00:00:00	2024-11-08T19:00:00	7	Dirección del viento	3.22
159379	7	Sololá	712	San Antonio Palopó	9	San Antonio Palopo	3	Marzo	2023-03-14T00:00:00	2024-11-08T19:00:00	1	Precipitación	0
159380	7	Sololá	712	San Antonio Palopó	9	San Antonio Palopo	3	Marzo	2023-03-14T00:00:00	2024-11-08T19:00:00	8	Radiación solar	0
159381	7	Sololá	712	San Antonio Palopó	9	San Antonio Palopo	3	Marzo	2023-03-14T00:00:00	2024-11-08T20:00:00	2	Temperatura media	19.9
159382	7	Sololá	712	San Antonio Palopó	9	San Antonio Palopo	3	Marzo	2023-03-14T00:00:00	2024-11-08T20:00:00	4	Temperatura máxima	20.3
159383	7	Sololá	712	San Antonio Palopó	9	San Antonio Palopo	3	Marzo	2023-03-14T00:00:00	2024-11-08T20:00:00	3	Temperatura mínima	19.9
159384	7	Sololá	712	San Antonio Palopó	9	San Antonio Palopo	3	Marzo	2023-03-14T00:00:00	2024-11-08T20:00:00	5	Humedad	81
159385	7	Sololá	712	San Antonio Palopó	9	San Antonio Palopo	3	Marzo	2023-03-14T00:00:00	2024-11-08T20:00:00	6	Velocidad del viento	3.2
159386	7	Sololá	712	San Antonio Palopó	9	San Antonio Palopo	3	Marzo	2023-03-14T00:00:00	2024-11-08T20:00:00	7	Dirección del viento	3.22
159387	7	Sololá	712	San Antonio Palopó	9	San Antonio Palopo	3	Marzo	2023-03-14T00:00:00	2024-11-08T20:00:00	1	Precipitación	0
159388	7	Sololá	712	San Antonio Palopó	9	San Antonio Palopo	3	Marzo	2023-03-14T00:00:00	2024-11-08T20:00:00	8	Radiación solar	0
159389	7	Sololá	712	San Antonio Palopó	9	San Antonio Palopo	3	Marzo	2023-03-14T00:00:00	2024-11-08T21:00:00	2	Temperatura media	19.2
159390	7	Sololá	712	San Antonio Palopó	9	San Antonio Palopo	3	Marzo	2023-03-14T00:00:00	2024-11-08T21:00:00	4	Temperatura máxima	19.9
159391	7	Sololá	712	San Antonio Palopó	9	San Antonio Palopo	3	Marzo	2023-03-14T00:00:00	2024-11-08T21:00:00	3	Temperatura mínima	19.2
159392	7	Sololá	712	San Antonio Palopó	9	San Antonio Palopo	3	Marzo	2023-03-14T00:00:00	2024-11-08T21:00:00	5	Humedad	83
159393	7	Sololá	712	San Antonio Palopó	9	San Antonio Palopo	3	Marzo	2023-03-14T00:00:00	2024-11-08T21:00:00	6	Velocidad del viento	1.6
159394	7	Sololá	712	San Antonio Palopó	9	San Antonio Palopo	3	Marzo	2023-03-14T00:00:00	2024-11-08T21:00:00	7	Dirección del viento	1.61
159395	7	Sololá	712	San Antonio Palopó	9	San Antonio Palopo	3	Marzo	2023-03-14T00:00:00	2024-11-08T21:00:00	1	Precipitación	0
159396	7	Sololá	712	San Antonio Palopó	9	San Antonio Palopo	3	Marzo	2023-03-14T00:00:00	2024-11-08T21:00:00	8	Radiación solar	0
159397	7	Sololá	712	San Antonio Palopó	9	San Antonio Palopo	3	Marzo	2023-03-14T00:00:00	2024-11-08T22:00:00	2	Temperatura media	19.2
159398	7	Sololá	712	San Antonio Palopó	9	San Antonio Palopo	3	Marzo	2023-03-14T00:00:00	2024-11-08T22:00:00	4	Temperatura máxima	19.2
159399	7	Sololá	712	San Antonio Palopó	9	San Antonio Palopo	3	Marzo	2023-03-14T00:00:00	2024-11-08T22:00:00	3	Temperatura mínima	18.6
159400	7	Sololá	712	San Antonio Palopó	9	San Antonio Palopo	3	Marzo	2023-03-14T00:00:00	2024-11-08T22:00:00	5	Humedad	80
159401	7	Sololá	712	San Antonio Palopó	9	San Antonio Palopo	3	Marzo	2023-03-14T00:00:00	2024-11-08T22:00:00	6	Velocidad del viento	3.2
159402	7	Sololá	712	San Antonio Palopó	9	San Antonio Palopo	3	Marzo	2023-03-14T00:00:00	2024-11-08T22:00:00	7	Dirección del viento	3.22
159403	7	Sololá	712	San Antonio Palopó	9	San Antonio Palopo	3	Marzo	2023-03-14T00:00:00	2024-11-08T22:00:00	1	Precipitación	0
159404	7	Sololá	712	San Antonio Palopó	9	San Antonio Palopo	3	Marzo	2023-03-14T00:00:00	2024-11-08T22:00:00	8	Radiación solar	0
159405	7	Sololá	712	San Antonio Palopó	9	San Antonio Palopo	3	Marzo	2023-03-14T00:00:00	2024-11-08T23:00:00	2	Temperatura media	18.8
159406	7	Sololá	712	San Antonio Palopó	9	San Antonio Palopo	3	Marzo	2023-03-14T00:00:00	2024-11-08T23:00:00	4	Temperatura máxima	19.4
159407	7	Sololá	712	San Antonio Palopó	9	San Antonio Palopo	3	Marzo	2023-03-14T00:00:00	2024-11-08T23:00:00	3	Temperatura mínima	18.7
159408	7	Sololá	712	San Antonio Palopó	9	San Antonio Palopo	3	Marzo	2023-03-14T00:00:00	2024-11-08T23:00:00	5	Humedad	85
159409	7	Sololá	712	San Antonio Palopó	9	San Antonio Palopo	3	Marzo	2023-03-14T00:00:00	2024-11-08T23:00:00	6	Velocidad del viento	3.2
159410	7	Sololá	712	San Antonio Palopó	9	San Antonio Palopo	3	Marzo	2023-03-14T00:00:00	2024-11-08T23:00:00	7	Dirección del viento	3.22
159411	7	Sololá	712	San Antonio Palopó	9	San Antonio Palopo	3	Marzo	2023-03-14T00:00:00	2024-11-08T23:00:00	1	Precipitación	0
159412	7	Sololá	712	San Antonio Palopó	9	San Antonio Palopo	3	Marzo	2023-03-14T00:00:00	2024-11-08T23:00:00	8	Radiación solar	0
159413	7	Sololá	712	San Antonio Palopó	9	San Antonio Palopo	3	Marzo	2023-03-15T00:00:00	2024-11-08T00:00:00	2	Temperatura media	18.3
159414	7	Sololá	712	San Antonio Palopó	9	San Antonio Palopo	3	Marzo	2023-03-15T00:00:00	2024-11-08T00:00:00	4	Temperatura máxima	18.8
159415	7	Sololá	712	San Antonio Palopó	9	San Antonio Palopo	3	Marzo	2023-03-15T00:00:00	2024-11-08T00:00:00	3	Temperatura mínima	18.3
159416	7	Sololá	712	San Antonio Palopó	9	San Antonio Palopo	3	Marzo	2023-03-15T00:00:00	2024-11-08T00:00:00	5	Humedad	80
159417	7	Sololá	712	San Antonio Palopó	9	San Antonio Palopo	3	Marzo	2023-03-15T00:00:00	2024-11-08T00:00:00	6	Velocidad del viento	1.6
159418	7	Sololá	712	San Antonio Palopó	9	San Antonio Palopo	3	Marzo	2023-03-15T00:00:00	2024-11-08T00:00:00	7	Dirección del viento	1.61
159419	7	Sololá	712	San Antonio Palopó	9	San Antonio Palopo	3	Marzo	2023-03-15T00:00:00	2024-11-08T00:00:00	1	Precipitación	0
159420	7	Sololá	712	San Antonio Palopó	9	San Antonio Palopo	3	Marzo	2023-03-15T00:00:00	2024-11-08T00:00:00	8	Radiación solar	0
159421	7	Sololá	712	San Antonio Palopó	9	San Antonio Palopo	3	Marzo	2023-03-15T00:00:00	2024-11-08T01:00:00	2	Temperatura media	18.3
159422	7	Sololá	712	San Antonio Palopó	9	San Antonio Palopo	3	Marzo	2023-03-15T00:00:00	2024-11-08T01:00:00	4	Temperatura máxima	18.9
159423	7	Sololá	712	San Antonio Palopó	9	San Antonio Palopo	3	Marzo	2023-03-15T00:00:00	2024-11-08T01:00:00	3	Temperatura mínima	18.3
159424	7	Sololá	712	San Antonio Palopó	9	San Antonio Palopo	3	Marzo	2023-03-15T00:00:00	2024-11-08T01:00:00	5	Humedad	75
159425	7	Sololá	712	San Antonio Palopó	9	San Antonio Palopo	3	Marzo	2023-03-15T00:00:00	2024-11-08T01:00:00	6	Velocidad del viento	3.2
159426	7	Sololá	712	San Antonio Palopó	9	San Antonio Palopo	3	Marzo	2023-03-15T00:00:00	2024-11-08T01:00:00	7	Dirección del viento	3.22
159427	7	Sololá	712	San Antonio Palopó	9	San Antonio Palopo	3	Marzo	2023-03-15T00:00:00	2024-11-08T01:00:00	1	Precipitación	0
159428	7	Sololá	712	San Antonio Palopó	9	San Antonio Palopo	3	Marzo	2023-03-15T00:00:00	2024-11-08T01:00:00	8	Radiación solar	0
159429	7	Sololá	712	San Antonio Palopó	9	San Antonio Palopo	3	Marzo	2023-03-15T00:00:00	2024-11-08T02:00:00	2	Temperatura media	18.2
159430	7	Sololá	712	San Antonio Palopó	9	San Antonio Palopo	3	Marzo	2023-03-15T00:00:00	2024-11-08T02:00:00	4	Temperatura máxima	18.3
159431	7	Sololá	712	San Antonio Palopó	9	San Antonio Palopo	3	Marzo	2023-03-15T00:00:00	2024-11-08T02:00:00	3	Temperatura mínima	18.1
159432	7	Sololá	712	San Antonio Palopó	9	San Antonio Palopo	3	Marzo	2023-03-15T00:00:00	2024-11-08T02:00:00	5	Humedad	73
159433	7	Sololá	712	San Antonio Palopó	9	San Antonio Palopo	3	Marzo	2023-03-15T00:00:00	2024-11-08T02:00:00	6	Velocidad del viento	3.2
159434	7	Sololá	712	San Antonio Palopó	9	San Antonio Palopo	3	Marzo	2023-03-15T00:00:00	2024-11-08T02:00:00	7	Dirección del viento	3.22
159435	7	Sololá	712	San Antonio Palopó	9	San Antonio Palopo	3	Marzo	2023-03-15T00:00:00	2024-11-08T02:00:00	1	Precipitación	0
159436	7	Sololá	712	San Antonio Palopó	9	San Antonio Palopo	3	Marzo	2023-03-15T00:00:00	2024-11-08T02:00:00	8	Radiación solar	0
159437	7	Sololá	712	San Antonio Palopó	9	San Antonio Palopo	3	Marzo	2023-03-15T00:00:00	2024-11-08T03:00:00	2	Temperatura media	17.9
159438	7	Sololá	712	San Antonio Palopó	9	San Antonio Palopo	3	Marzo	2023-03-15T00:00:00	2024-11-08T03:00:00	4	Temperatura máxima	18.3
159439	7	Sololá	712	San Antonio Palopó	9	San Antonio Palopo	3	Marzo	2023-03-15T00:00:00	2024-11-08T03:00:00	3	Temperatura mínima	17.8
159440	7	Sololá	712	San Antonio Palopó	9	San Antonio Palopo	3	Marzo	2023-03-15T00:00:00	2024-11-08T03:00:00	5	Humedad	70
159441	7	Sololá	712	San Antonio Palopó	9	San Antonio Palopo	3	Marzo	2023-03-15T00:00:00	2024-11-08T03:00:00	6	Velocidad del viento	3.2
159442	7	Sololá	712	San Antonio Palopó	9	San Antonio Palopo	3	Marzo	2023-03-15T00:00:00	2024-11-08T03:00:00	7	Dirección del viento	3.22
159443	7	Sololá	712	San Antonio Palopó	9	San Antonio Palopo	3	Marzo	2023-03-15T00:00:00	2024-11-08T03:00:00	1	Precipitación	0
159444	7	Sololá	712	San Antonio Palopó	9	San Antonio Palopo	3	Marzo	2023-03-15T00:00:00	2024-11-08T03:00:00	8	Radiación solar	0
159445	7	Sololá	712	San Antonio Palopó	9	San Antonio Palopo	3	Marzo	2023-03-15T00:00:00	2024-11-08T04:00:00	2	Temperatura media	18.3
159446	7	Sololá	712	San Antonio Palopó	9	San Antonio Palopo	3	Marzo	2023-03-15T00:00:00	2024-11-08T04:00:00	4	Temperatura máxima	18.4
159447	7	Sololá	712	San Antonio Palopó	9	San Antonio Palopo	3	Marzo	2023-03-15T00:00:00	2024-11-08T04:00:00	3	Temperatura mínima	17.9
159448	7	Sololá	712	San Antonio Palopó	9	San Antonio Palopo	3	Marzo	2023-03-15T00:00:00	2024-11-08T04:00:00	5	Humedad	71
159449	7	Sololá	712	San Antonio Palopó	9	San Antonio Palopo	3	Marzo	2023-03-15T00:00:00	2024-11-08T04:00:00	6	Velocidad del viento	12.9
159450	7	Sololá	712	San Antonio Palopó	9	San Antonio Palopo	3	Marzo	2023-03-15T00:00:00	2024-11-08T04:00:00	7	Dirección del viento	12.87
159451	7	Sololá	712	San Antonio Palopó	9	San Antonio Palopo	3	Marzo	2023-03-15T00:00:00	2024-11-08T04:00:00	1	Precipitación	0
159452	7	Sololá	712	San Antonio Palopó	9	San Antonio Palopo	3	Marzo	2023-03-15T00:00:00	2024-11-08T04:00:00	8	Radiación solar	0
159453	7	Sololá	712	San Antonio Palopó	9	San Antonio Palopo	3	Marzo	2023-03-15T00:00:00	2024-11-08T05:00:00	2	Temperatura media	18.2
159454	7	Sololá	712	San Antonio Palopó	9	San Antonio Palopo	3	Marzo	2023-03-15T00:00:00	2024-11-08T05:00:00	4	Temperatura máxima	18.4
159455	7	Sololá	712	San Antonio Palopó	9	San Antonio Palopo	3	Marzo	2023-03-15T00:00:00	2024-11-08T05:00:00	3	Temperatura mínima	17.8
159456	7	Sololá	712	San Antonio Palopó	9	San Antonio Palopo	3	Marzo	2023-03-15T00:00:00	2024-11-08T05:00:00	5	Humedad	72
159457	7	Sololá	712	San Antonio Palopó	9	San Antonio Palopo	3	Marzo	2023-03-15T00:00:00	2024-11-08T05:00:00	6	Velocidad del viento	4.8
159458	7	Sololá	712	San Antonio Palopó	9	San Antonio Palopo	3	Marzo	2023-03-15T00:00:00	2024-11-08T05:00:00	7	Dirección del viento	4.83
159459	7	Sololá	712	San Antonio Palopó	9	San Antonio Palopo	3	Marzo	2023-03-15T00:00:00	2024-11-08T05:00:00	1	Precipitación	0
159460	7	Sololá	712	San Antonio Palopó	9	San Antonio Palopo	3	Marzo	2023-03-15T00:00:00	2024-11-08T05:00:00	8	Radiación solar	0
159461	7	Sololá	712	San Antonio Palopó	9	San Antonio Palopo	3	Marzo	2023-03-15T00:00:00	2024-11-08T06:00:00	2	Temperatura media	17.8
159462	7	Sololá	712	San Antonio Palopó	9	San Antonio Palopo	3	Marzo	2023-03-15T00:00:00	2024-11-08T06:00:00	4	Temperatura máxima	18.3
159463	7	Sololá	712	San Antonio Palopó	9	San Antonio Palopo	3	Marzo	2023-03-15T00:00:00	2024-11-08T06:00:00	3	Temperatura mínima	17.8
159464	7	Sololá	712	San Antonio Palopó	9	San Antonio Palopo	3	Marzo	2023-03-15T00:00:00	2024-11-08T06:00:00	5	Humedad	77
159465	7	Sololá	712	San Antonio Palopó	9	San Antonio Palopo	3	Marzo	2023-03-15T00:00:00	2024-11-08T06:00:00	6	Velocidad del viento	4.8
159466	7	Sololá	712	San Antonio Palopó	9	San Antonio Palopo	3	Marzo	2023-03-15T00:00:00	2024-11-08T06:00:00	7	Dirección del viento	4.83
159467	7	Sololá	712	San Antonio Palopó	9	San Antonio Palopo	3	Marzo	2023-03-15T00:00:00	2024-11-08T06:00:00	1	Precipitación	0
159468	7	Sololá	712	San Antonio Palopó	9	San Antonio Palopo	3	Marzo	2023-03-15T00:00:00	2024-11-08T06:00:00	8	Radiación solar	0
159469	7	Sololá	712	San Antonio Palopó	9	San Antonio Palopo	3	Marzo	2023-03-15T00:00:00	2024-11-08T07:00:00	2	Temperatura media	17.9
159470	7	Sololá	712	San Antonio Palopó	9	San Antonio Palopo	3	Marzo	2023-03-15T00:00:00	2024-11-08T07:00:00	4	Temperatura máxima	18
159471	7	Sololá	712	San Antonio Palopó	9	San Antonio Palopo	3	Marzo	2023-03-15T00:00:00	2024-11-08T07:00:00	3	Temperatura mínima	17.6
159472	7	Sololá	712	San Antonio Palopó	9	San Antonio Palopo	3	Marzo	2023-03-15T00:00:00	2024-11-08T07:00:00	5	Humedad	75
159473	7	Sololá	712	San Antonio Palopó	9	San Antonio Palopo	3	Marzo	2023-03-15T00:00:00	2024-11-08T07:00:00	6	Velocidad del viento	4.8
159474	7	Sololá	712	San Antonio Palopó	9	San Antonio Palopo	3	Marzo	2023-03-15T00:00:00	2024-11-08T07:00:00	7	Dirección del viento	4.83
159475	7	Sololá	712	San Antonio Palopó	9	San Antonio Palopo	3	Marzo	2023-03-15T00:00:00	2024-11-08T07:00:00	1	Precipitación	0
159476	7	Sololá	712	San Antonio Palopó	9	San Antonio Palopo	3	Marzo	2023-03-15T00:00:00	2024-11-08T07:00:00	8	Radiación solar	10
159477	7	Sololá	712	San Antonio Palopó	9	San Antonio Palopo	3	Marzo	2023-03-15T00:00:00	2024-11-08T08:00:00	2	Temperatura media	17.8
159478	7	Sololá	712	San Antonio Palopó	9	San Antonio Palopo	3	Marzo	2023-03-15T00:00:00	2024-11-08T08:00:00	4	Temperatura máxima	18.1
159479	7	Sololá	712	San Antonio Palopó	9	San Antonio Palopo	3	Marzo	2023-03-15T00:00:00	2024-11-08T08:00:00	3	Temperatura mínima	17.6
159480	7	Sololá	712	San Antonio Palopó	9	San Antonio Palopo	3	Marzo	2023-03-15T00:00:00	2024-11-08T08:00:00	5	Humedad	78
159481	7	Sololá	712	San Antonio Palopó	9	San Antonio Palopo	3	Marzo	2023-03-15T00:00:00	2024-11-08T08:00:00	6	Velocidad del viento	3.2
159482	7	Sololá	712	San Antonio Palopó	9	San Antonio Palopo	3	Marzo	2023-03-15T00:00:00	2024-11-08T08:00:00	7	Dirección del viento	3.22
159483	7	Sololá	712	San Antonio Palopó	9	San Antonio Palopo	3	Marzo	2023-03-15T00:00:00	2024-11-08T08:00:00	1	Precipitación	0
159484	7	Sololá	712	San Antonio Palopó	9	San Antonio Palopo	3	Marzo	2023-03-15T00:00:00	2024-11-08T08:00:00	8	Radiación solar	58
159485	7	Sololá	712	San Antonio Palopó	9	San Antonio Palopo	3	Marzo	2023-03-15T00:00:00	2024-11-08T09:00:00	2	Temperatura media	21.4
159486	7	Sololá	712	San Antonio Palopó	9	San Antonio Palopo	3	Marzo	2023-03-15T00:00:00	2024-11-08T09:00:00	4	Temperatura máxima	21.4
159487	7	Sololá	712	San Antonio Palopó	9	San Antonio Palopo	3	Marzo	2023-03-15T00:00:00	2024-11-08T09:00:00	3	Temperatura mínima	17.8
159488	7	Sololá	712	San Antonio Palopó	9	San Antonio Palopo	3	Marzo	2023-03-15T00:00:00	2024-11-08T09:00:00	5	Humedad	64
159489	7	Sololá	712	San Antonio Palopó	9	San Antonio Palopo	3	Marzo	2023-03-15T00:00:00	2024-11-08T09:00:00	6	Velocidad del viento	1.6
159490	7	Sololá	712	San Antonio Palopó	9	San Antonio Palopo	3	Marzo	2023-03-15T00:00:00	2024-11-08T09:00:00	7	Dirección del viento	1.61
159491	7	Sololá	712	San Antonio Palopó	9	San Antonio Palopo	3	Marzo	2023-03-15T00:00:00	2024-11-08T09:00:00	1	Precipitación	0
159492	7	Sololá	712	San Antonio Palopó	9	San Antonio Palopo	3	Marzo	2023-03-15T00:00:00	2024-11-08T09:00:00	8	Radiación solar	383
159493	7	Sololá	712	San Antonio Palopó	9	San Antonio Palopo	3	Marzo	2023-03-15T00:00:00	2024-11-08T10:00:00	2	Temperatura media	21.5
159494	7	Sololá	712	San Antonio Palopó	9	San Antonio Palopo	3	Marzo	2023-03-15T00:00:00	2024-11-08T10:00:00	4	Temperatura máxima	21.7
159495	7	Sololá	712	San Antonio Palopó	9	San Antonio Palopo	3	Marzo	2023-03-15T00:00:00	2024-11-08T10:00:00	3	Temperatura mínima	21
159496	7	Sololá	712	San Antonio Palopó	9	San Antonio Palopo	3	Marzo	2023-03-15T00:00:00	2024-11-08T10:00:00	5	Humedad	64
159497	7	Sololá	712	San Antonio Palopó	9	San Antonio Palopo	3	Marzo	2023-03-15T00:00:00	2024-11-08T10:00:00	6	Velocidad del viento	3.2
159498	7	Sololá	712	San Antonio Palopó	9	San Antonio Palopo	3	Marzo	2023-03-15T00:00:00	2024-11-08T10:00:00	7	Dirección del viento	3.22
159499	7	Sololá	712	San Antonio Palopó	9	San Antonio Palopo	3	Marzo	2023-03-15T00:00:00	2024-11-08T10:00:00	1	Precipitación	0
159500	7	Sololá	712	San Antonio Palopó	9	San Antonio Palopo	3	Marzo	2023-03-15T00:00:00	2024-11-08T10:00:00	8	Radiación solar	412
159501	7	Sololá	712	San Antonio Palopó	9	San Antonio Palopo	3	Marzo	2023-03-15T00:00:00	2024-11-08T11:00:00	2	Temperatura media	23.2
159502	7	Sololá	712	San Antonio Palopó	9	San Antonio Palopo	3	Marzo	2023-03-15T00:00:00	2024-11-08T11:00:00	4	Temperatura máxima	23.8
159503	7	Sololá	712	San Antonio Palopó	9	San Antonio Palopo	3	Marzo	2023-03-15T00:00:00	2024-11-08T11:00:00	3	Temperatura mínima	21.5
159504	7	Sololá	712	San Antonio Palopó	9	San Antonio Palopo	3	Marzo	2023-03-15T00:00:00	2024-11-08T11:00:00	5	Humedad	57
159505	7	Sololá	712	San Antonio Palopó	9	San Antonio Palopo	3	Marzo	2023-03-15T00:00:00	2024-11-08T11:00:00	6	Velocidad del viento	3.2
159506	7	Sololá	712	San Antonio Palopó	9	San Antonio Palopo	3	Marzo	2023-03-15T00:00:00	2024-11-08T11:00:00	7	Dirección del viento	3.22
159507	7	Sololá	712	San Antonio Palopó	9	San Antonio Palopo	3	Marzo	2023-03-15T00:00:00	2024-11-08T11:00:00	1	Precipitación	0
159508	7	Sololá	712	San Antonio Palopó	9	San Antonio Palopo	3	Marzo	2023-03-15T00:00:00	2024-11-08T11:00:00	8	Radiación solar	510
159509	7	Sololá	712	San Antonio Palopó	9	San Antonio Palopo	3	Marzo	2023-03-15T00:00:00	2024-11-08T12:00:00	2	Temperatura media	22.7
159510	7	Sololá	712	San Antonio Palopó	9	San Antonio Palopo	3	Marzo	2023-03-15T00:00:00	2024-11-08T12:00:00	4	Temperatura máxima	23.7
159511	7	Sololá	712	San Antonio Palopó	9	San Antonio Palopo	3	Marzo	2023-03-15T00:00:00	2024-11-08T12:00:00	3	Temperatura mínima	22.6
159512	7	Sololá	712	San Antonio Palopó	9	San Antonio Palopo	3	Marzo	2023-03-15T00:00:00	2024-11-08T12:00:00	5	Humedad	70
159513	7	Sololá	712	San Antonio Palopó	9	San Antonio Palopo	3	Marzo	2023-03-15T00:00:00	2024-11-08T12:00:00	6	Velocidad del viento	6.4
159514	7	Sololá	712	San Antonio Palopó	9	San Antonio Palopo	3	Marzo	2023-03-15T00:00:00	2024-11-08T12:00:00	7	Dirección del viento	6.44
159515	7	Sololá	712	San Antonio Palopó	9	San Antonio Palopo	3	Marzo	2023-03-15T00:00:00	2024-11-08T12:00:00	1	Precipitación	0
159516	7	Sololá	712	San Antonio Palopó	9	San Antonio Palopo	3	Marzo	2023-03-15T00:00:00	2024-11-08T12:00:00	8	Radiación solar	420
159517	7	Sololá	712	San Antonio Palopó	9	San Antonio Palopo	3	Marzo	2023-03-15T00:00:00	2024-11-08T13:00:00	2	Temperatura media	23.3
159518	7	Sololá	712	San Antonio Palopó	9	San Antonio Palopo	3	Marzo	2023-03-15T00:00:00	2024-11-08T13:00:00	4	Temperatura máxima	24.4
159519	7	Sololá	712	San Antonio Palopó	9	San Antonio Palopo	3	Marzo	2023-03-15T00:00:00	2024-11-08T13:00:00	3	Temperatura mínima	22.7
159520	7	Sololá	712	San Antonio Palopó	9	San Antonio Palopo	3	Marzo	2023-03-15T00:00:00	2024-11-08T13:00:00	5	Humedad	71
159521	7	Sololá	712	San Antonio Palopó	9	San Antonio Palopo	3	Marzo	2023-03-15T00:00:00	2024-11-08T13:00:00	6	Velocidad del viento	9.7
159522	7	Sololá	712	San Antonio Palopó	9	San Antonio Palopo	3	Marzo	2023-03-15T00:00:00	2024-11-08T13:00:00	7	Dirección del viento	9.66
159523	7	Sololá	712	San Antonio Palopó	9	San Antonio Palopo	3	Marzo	2023-03-15T00:00:00	2024-11-08T13:00:00	1	Precipitación	0
159524	7	Sololá	712	San Antonio Palopó	9	San Antonio Palopo	3	Marzo	2023-03-15T00:00:00	2024-11-08T13:00:00	8	Radiación solar	876
159525	7	Sololá	712	San Antonio Palopó	9	San Antonio Palopo	3	Marzo	2023-03-15T00:00:00	2024-11-08T14:00:00	2	Temperatura media	22.1
159526	7	Sololá	712	San Antonio Palopó	9	San Antonio Palopo	3	Marzo	2023-03-15T00:00:00	2024-11-08T14:00:00	4	Temperatura máxima	23.9
159527	7	Sololá	712	San Antonio Palopó	9	San Antonio Palopo	3	Marzo	2023-03-15T00:00:00	2024-11-08T14:00:00	3	Temperatura mínima	22.1
159528	7	Sololá	712	San Antonio Palopó	9	San Antonio Palopo	3	Marzo	2023-03-15T00:00:00	2024-11-08T14:00:00	5	Humedad	74
159529	7	Sololá	712	San Antonio Palopó	9	San Antonio Palopo	3	Marzo	2023-03-15T00:00:00	2024-11-08T14:00:00	6	Velocidad del viento	12.9
159530	7	Sololá	712	San Antonio Palopó	9	San Antonio Palopo	3	Marzo	2023-03-15T00:00:00	2024-11-08T14:00:00	7	Dirección del viento	12.87
159531	7	Sololá	712	San Antonio Palopó	9	San Antonio Palopo	3	Marzo	2023-03-15T00:00:00	2024-11-08T14:00:00	1	Precipitación	0
159532	7	Sololá	712	San Antonio Palopó	9	San Antonio Palopo	3	Marzo	2023-03-15T00:00:00	2024-11-08T14:00:00	8	Radiación solar	449
159533	7	Sololá	712	San Antonio Palopó	9	San Antonio Palopo	3	Marzo	2023-03-15T00:00:00	2024-11-08T15:00:00	2	Temperatura media	20.8
159534	7	Sololá	712	San Antonio Palopó	9	San Antonio Palopo	3	Marzo	2023-03-15T00:00:00	2024-11-08T15:00:00	4	Temperatura máxima	22.4
159535	7	Sololá	712	San Antonio Palopó	9	San Antonio Palopo	3	Marzo	2023-03-15T00:00:00	2024-11-08T15:00:00	3	Temperatura mínima	20.8
159536	7	Sololá	712	San Antonio Palopó	9	San Antonio Palopo	3	Marzo	2023-03-15T00:00:00	2024-11-08T15:00:00	5	Humedad	86
159537	7	Sololá	712	San Antonio Palopó	9	San Antonio Palopo	3	Marzo	2023-03-15T00:00:00	2024-11-08T15:00:00	6	Velocidad del viento	4.8
159538	7	Sololá	712	San Antonio Palopó	9	San Antonio Palopo	3	Marzo	2023-03-15T00:00:00	2024-11-08T15:00:00	7	Dirección del viento	4.83
159539	7	Sololá	712	San Antonio Palopó	9	San Antonio Palopo	3	Marzo	2023-03-15T00:00:00	2024-11-08T15:00:00	1	Precipitación	2.2
159540	7	Sololá	712	San Antonio Palopó	9	San Antonio Palopo	3	Marzo	2023-03-15T00:00:00	2024-11-08T15:00:00	8	Radiación solar	232
159541	7	Sololá	712	San Antonio Palopó	9	San Antonio Palopo	3	Marzo	2023-03-15T00:00:00	2024-11-08T16:00:00	2	Temperatura media	19.9
159542	7	Sololá	712	San Antonio Palopó	9	San Antonio Palopo	3	Marzo	2023-03-15T00:00:00	2024-11-08T16:00:00	4	Temperatura máxima	20.8
159543	7	Sololá	712	San Antonio Palopó	9	San Antonio Palopo	3	Marzo	2023-03-15T00:00:00	2024-11-08T16:00:00	3	Temperatura mínima	19.9
159544	7	Sololá	712	San Antonio Palopó	9	San Antonio Palopo	3	Marzo	2023-03-15T00:00:00	2024-11-08T16:00:00	5	Humedad	84
159545	7	Sololá	712	San Antonio Palopó	9	San Antonio Palopo	3	Marzo	2023-03-15T00:00:00	2024-11-08T16:00:00	6	Velocidad del viento	4.8
159546	7	Sololá	712	San Antonio Palopó	9	San Antonio Palopo	3	Marzo	2023-03-15T00:00:00	2024-11-08T16:00:00	7	Dirección del viento	4.83
159547	7	Sololá	712	San Antonio Palopó	9	San Antonio Palopo	3	Marzo	2023-03-15T00:00:00	2024-11-08T16:00:00	1	Precipitación	0.4
159548	7	Sololá	712	San Antonio Palopó	9	San Antonio Palopo	3	Marzo	2023-03-15T00:00:00	2024-11-08T16:00:00	8	Radiación solar	89
159549	7	Sololá	712	San Antonio Palopó	9	San Antonio Palopo	3	Marzo	2023-03-15T00:00:00	2024-11-08T17:00:00	2	Temperatura media	19.4
159550	7	Sololá	712	San Antonio Palopó	9	San Antonio Palopo	3	Marzo	2023-03-15T00:00:00	2024-11-08T17:00:00	4	Temperatura máxima	19.9
159551	7	Sololá	712	San Antonio Palopó	9	San Antonio Palopo	3	Marzo	2023-03-15T00:00:00	2024-11-08T17:00:00	3	Temperatura mínima	19.4
159552	7	Sololá	712	San Antonio Palopó	9	San Antonio Palopo	3	Marzo	2023-03-15T00:00:00	2024-11-08T17:00:00	5	Humedad	88
159553	7	Sololá	712	San Antonio Palopó	9	San Antonio Palopo	3	Marzo	2023-03-15T00:00:00	2024-11-08T17:00:00	6	Velocidad del viento	3.2
159554	7	Sololá	712	San Antonio Palopó	9	San Antonio Palopo	3	Marzo	2023-03-15T00:00:00	2024-11-08T17:00:00	7	Dirección del viento	3.22
159555	7	Sololá	712	San Antonio Palopó	9	San Antonio Palopo	3	Marzo	2023-03-15T00:00:00	2024-11-08T17:00:00	1	Precipitación	0.8
159556	7	Sololá	712	San Antonio Palopó	9	San Antonio Palopo	3	Marzo	2023-03-15T00:00:00	2024-11-08T17:00:00	8	Radiación solar	21
159557	7	Sololá	712	San Antonio Palopó	9	San Antonio Palopo	3	Marzo	2023-03-15T00:00:00	2024-11-08T18:00:00	2	Temperatura media	17.8
159558	7	Sololá	712	San Antonio Palopó	9	San Antonio Palopo	3	Marzo	2023-03-15T00:00:00	2024-11-08T18:00:00	4	Temperatura máxima	19.4
159559	7	Sololá	712	San Antonio Palopó	9	San Antonio Palopo	3	Marzo	2023-03-15T00:00:00	2024-11-08T18:00:00	3	Temperatura mínima	17.8
159560	7	Sololá	712	San Antonio Palopó	9	San Antonio Palopo	3	Marzo	2023-03-15T00:00:00	2024-11-08T18:00:00	5	Humedad	90
159561	7	Sololá	712	San Antonio Palopó	9	San Antonio Palopo	3	Marzo	2023-03-15T00:00:00	2024-11-08T18:00:00	6	Velocidad del viento	3.2
159562	7	Sololá	712	San Antonio Palopó	9	San Antonio Palopo	3	Marzo	2023-03-15T00:00:00	2024-11-08T18:00:00	7	Dirección del viento	3.22
159563	7	Sololá	712	San Antonio Palopó	9	San Antonio Palopo	3	Marzo	2023-03-15T00:00:00	2024-11-08T18:00:00	1	Precipitación	2.4
159564	7	Sololá	712	San Antonio Palopó	9	San Antonio Palopo	3	Marzo	2023-03-15T00:00:00	2024-11-08T18:00:00	8	Radiación solar	3
159565	7	Sololá	712	San Antonio Palopó	9	San Antonio Palopo	3	Marzo	2023-03-15T00:00:00	2024-11-08T19:00:00	2	Temperatura media	18.4
159566	7	Sololá	712	San Antonio Palopó	9	San Antonio Palopo	3	Marzo	2023-03-15T00:00:00	2024-11-08T19:00:00	4	Temperatura máxima	18.6
159567	7	Sololá	712	San Antonio Palopó	9	San Antonio Palopo	3	Marzo	2023-03-15T00:00:00	2024-11-08T19:00:00	3	Temperatura mínima	17.3
159568	7	Sololá	712	San Antonio Palopó	9	San Antonio Palopo	3	Marzo	2023-03-15T00:00:00	2024-11-08T19:00:00	5	Humedad	80
159569	7	Sololá	712	San Antonio Palopó	9	San Antonio Palopo	3	Marzo	2023-03-15T00:00:00	2024-11-08T19:00:00	6	Velocidad del viento	6.4
159570	7	Sololá	712	San Antonio Palopó	9	San Antonio Palopo	3	Marzo	2023-03-15T00:00:00	2024-11-08T19:00:00	7	Dirección del viento	6.44
159571	7	Sololá	712	San Antonio Palopó	9	San Antonio Palopo	3	Marzo	2023-03-15T00:00:00	2024-11-08T19:00:00	1	Precipitación	0.6
159572	7	Sololá	712	San Antonio Palopó	9	San Antonio Palopo	3	Marzo	2023-03-15T00:00:00	2024-11-08T19:00:00	8	Radiación solar	0
159573	7	Sololá	712	San Antonio Palopó	9	San Antonio Palopo	3	Marzo	2023-03-15T00:00:00	2024-11-08T20:00:00	2	Temperatura media	17.9
159574	7	Sololá	712	San Antonio Palopó	9	San Antonio Palopo	3	Marzo	2023-03-15T00:00:00	2024-11-08T20:00:00	4	Temperatura máxima	18.4
159575	7	Sololá	712	San Antonio Palopó	9	San Antonio Palopo	3	Marzo	2023-03-15T00:00:00	2024-11-08T20:00:00	3	Temperatura mínima	17.8
159576	7	Sololá	712	San Antonio Palopó	9	San Antonio Palopo	3	Marzo	2023-03-15T00:00:00	2024-11-08T20:00:00	5	Humedad	78
159577	7	Sololá	712	San Antonio Palopó	9	San Antonio Palopo	3	Marzo	2023-03-15T00:00:00	2024-11-08T20:00:00	6	Velocidad del viento	4.8
159578	7	Sololá	712	San Antonio Palopó	9	San Antonio Palopo	3	Marzo	2023-03-15T00:00:00	2024-11-08T20:00:00	7	Dirección del viento	4.83
159579	7	Sololá	712	San Antonio Palopó	9	San Antonio Palopo	3	Marzo	2023-03-15T00:00:00	2024-11-08T20:00:00	1	Precipitación	0
159580	7	Sololá	712	San Antonio Palopó	9	San Antonio Palopo	3	Marzo	2023-03-15T00:00:00	2024-11-08T20:00:00	8	Radiación solar	0
159581	7	Sololá	712	San Antonio Palopó	9	San Antonio Palopo	3	Marzo	2023-03-15T00:00:00	2024-11-08T21:00:00	2	Temperatura media	17.2
159582	7	Sololá	712	San Antonio Palopó	9	San Antonio Palopo	3	Marzo	2023-03-15T00:00:00	2024-11-08T21:00:00	4	Temperatura máxima	18.1
159583	7	Sololá	712	San Antonio Palopó	9	San Antonio Palopo	3	Marzo	2023-03-15T00:00:00	2024-11-08T21:00:00	3	Temperatura mínima	16.9
159584	7	Sololá	712	San Antonio Palopó	9	San Antonio Palopo	3	Marzo	2023-03-15T00:00:00	2024-11-08T21:00:00	5	Humedad	77
159585	7	Sololá	712	San Antonio Palopó	9	San Antonio Palopo	3	Marzo	2023-03-15T00:00:00	2024-11-08T21:00:00	6	Velocidad del viento	4.8
159586	7	Sololá	712	San Antonio Palopó	9	San Antonio Palopo	3	Marzo	2023-03-15T00:00:00	2024-11-08T21:00:00	7	Dirección del viento	4.83
159587	7	Sololá	712	San Antonio Palopó	9	San Antonio Palopo	3	Marzo	2023-03-15T00:00:00	2024-11-08T21:00:00	1	Precipitación	0
159588	7	Sololá	712	San Antonio Palopó	9	San Antonio Palopo	3	Marzo	2023-03-15T00:00:00	2024-11-08T21:00:00	8	Radiación solar	0
159589	7	Sololá	712	San Antonio Palopó	9	San Antonio Palopo	3	Marzo	2023-03-15T00:00:00	2024-11-08T22:00:00	2	Temperatura media	17.3
159590	7	Sololá	712	San Antonio Palopó	9	San Antonio Palopo	3	Marzo	2023-03-15T00:00:00	2024-11-08T22:00:00	4	Temperatura máxima	17.4
159591	7	Sololá	712	San Antonio Palopó	9	San Antonio Palopo	3	Marzo	2023-03-15T00:00:00	2024-11-08T22:00:00	3	Temperatura mínima	16.6
159592	7	Sololá	712	San Antonio Palopó	9	San Antonio Palopo	3	Marzo	2023-03-15T00:00:00	2024-11-08T22:00:00	5	Humedad	77
159593	7	Sololá	712	San Antonio Palopó	9	San Antonio Palopo	3	Marzo	2023-03-15T00:00:00	2024-11-08T22:00:00	6	Velocidad del viento	3.2
159594	7	Sololá	712	San Antonio Palopó	9	San Antonio Palopo	3	Marzo	2023-03-15T00:00:00	2024-11-08T22:00:00	7	Dirección del viento	3.22
159595	7	Sololá	712	San Antonio Palopó	9	San Antonio Palopo	3	Marzo	2023-03-15T00:00:00	2024-11-08T22:00:00	1	Precipitación	0
159596	7	Sololá	712	San Antonio Palopó	9	San Antonio Palopo	3	Marzo	2023-03-15T00:00:00	2024-11-08T22:00:00	8	Radiación solar	0
159597	7	Sololá	712	San Antonio Palopó	9	San Antonio Palopo	3	Marzo	2023-03-15T00:00:00	2024-11-08T23:00:00	2	Temperatura media	17.7
159598	7	Sololá	712	San Antonio Palopó	9	San Antonio Palopo	3	Marzo	2023-03-15T00:00:00	2024-11-08T23:00:00	4	Temperatura máxima	17.7
159599	7	Sololá	712	San Antonio Palopó	9	San Antonio Palopo	3	Marzo	2023-03-15T00:00:00	2024-11-08T23:00:00	3	Temperatura mínima	17.2
159600	7	Sololá	712	San Antonio Palopó	9	San Antonio Palopo	3	Marzo	2023-03-15T00:00:00	2024-11-08T23:00:00	5	Humedad	73
159601	7	Sololá	712	San Antonio Palopó	9	San Antonio Palopo	3	Marzo	2023-03-15T00:00:00	2024-11-08T23:00:00	6	Velocidad del viento	6.4
159602	7	Sololá	712	San Antonio Palopó	9	San Antonio Palopo	3	Marzo	2023-03-15T00:00:00	2024-11-08T23:00:00	7	Dirección del viento	6.44
159603	7	Sololá	712	San Antonio Palopó	9	San Antonio Palopo	3	Marzo	2023-03-15T00:00:00	2024-11-08T23:00:00	1	Precipitación	0
159604	7	Sololá	712	San Antonio Palopó	9	San Antonio Palopo	3	Marzo	2023-03-15T00:00:00	2024-11-08T23:00:00	8	Radiación solar	0
159605	7	Sololá	712	San Antonio Palopó	9	San Antonio Palopo	3	Marzo	2023-03-16T00:00:00	2024-11-08T00:00:00	2	Temperatura media	17.3
159606	7	Sololá	712	San Antonio Palopó	9	San Antonio Palopo	3	Marzo	2023-03-16T00:00:00	2024-11-08T00:00:00	4	Temperatura máxima	17.8
159607	7	Sololá	712	San Antonio Palopó	9	San Antonio Palopo	3	Marzo	2023-03-16T00:00:00	2024-11-08T00:00:00	3	Temperatura mínima	17.3
159608	7	Sololá	712	San Antonio Palopó	9	San Antonio Palopo	3	Marzo	2023-03-16T00:00:00	2024-11-08T00:00:00	5	Humedad	72
159609	7	Sololá	712	San Antonio Palopó	9	San Antonio Palopo	3	Marzo	2023-03-16T00:00:00	2024-11-08T00:00:00	6	Velocidad del viento	12.9
159610	7	Sololá	712	San Antonio Palopó	9	San Antonio Palopo	3	Marzo	2023-03-16T00:00:00	2024-11-08T00:00:00	7	Dirección del viento	12.87
159611	7	Sololá	712	San Antonio Palopó	9	San Antonio Palopo	3	Marzo	2023-03-16T00:00:00	2024-11-08T00:00:00	1	Precipitación	0
159612	7	Sololá	712	San Antonio Palopó	9	San Antonio Palopo	3	Marzo	2023-03-16T00:00:00	2024-11-08T00:00:00	8	Radiación solar	0
159613	7	Sololá	712	San Antonio Palopó	9	San Antonio Palopo	3	Marzo	2023-03-16T00:00:00	2024-11-08T01:00:00	2	Temperatura media	17.1
159614	7	Sololá	712	San Antonio Palopó	9	San Antonio Palopo	3	Marzo	2023-03-16T00:00:00	2024-11-08T01:00:00	4	Temperatura máxima	17.4
159615	7	Sololá	712	San Antonio Palopó	9	San Antonio Palopo	3	Marzo	2023-03-16T00:00:00	2024-11-08T01:00:00	3	Temperatura mínima	17
159616	7	Sololá	712	San Antonio Palopó	9	San Antonio Palopo	3	Marzo	2023-03-16T00:00:00	2024-11-08T01:00:00	5	Humedad	73
159617	7	Sololá	712	San Antonio Palopó	9	San Antonio Palopo	3	Marzo	2023-03-16T00:00:00	2024-11-08T01:00:00	6	Velocidad del viento	11.3
159618	7	Sololá	712	San Antonio Palopó	9	San Antonio Palopo	3	Marzo	2023-03-16T00:00:00	2024-11-08T01:00:00	7	Dirección del viento	11.27
159619	7	Sololá	712	San Antonio Palopó	9	San Antonio Palopo	3	Marzo	2023-03-16T00:00:00	2024-11-08T01:00:00	1	Precipitación	0
159620	7	Sololá	712	San Antonio Palopó	9	San Antonio Palopo	3	Marzo	2023-03-16T00:00:00	2024-11-08T01:00:00	8	Radiación solar	0
159621	7	Sololá	712	San Antonio Palopó	9	San Antonio Palopo	3	Marzo	2023-03-16T00:00:00	2024-11-08T02:00:00	2	Temperatura media	17.1
159622	7	Sololá	712	San Antonio Palopó	9	San Antonio Palopo	3	Marzo	2023-03-16T00:00:00	2024-11-08T02:00:00	4	Temperatura máxima	17.3
159623	7	Sololá	712	San Antonio Palopó	9	San Antonio Palopo	3	Marzo	2023-03-16T00:00:00	2024-11-08T02:00:00	3	Temperatura mínima	16.6
159624	7	Sololá	712	San Antonio Palopó	9	San Antonio Palopo	3	Marzo	2023-03-16T00:00:00	2024-11-08T02:00:00	5	Humedad	72
159625	7	Sololá	712	San Antonio Palopó	9	San Antonio Palopo	3	Marzo	2023-03-16T00:00:00	2024-11-08T02:00:00	6	Velocidad del viento	6.4
159626	7	Sololá	712	San Antonio Palopó	9	San Antonio Palopo	3	Marzo	2023-03-16T00:00:00	2024-11-08T02:00:00	7	Dirección del viento	6.44
159627	7	Sololá	712	San Antonio Palopó	9	San Antonio Palopo	3	Marzo	2023-03-16T00:00:00	2024-11-08T02:00:00	1	Precipitación	0
159628	7	Sololá	712	San Antonio Palopó	9	San Antonio Palopo	3	Marzo	2023-03-16T00:00:00	2024-11-08T02:00:00	8	Radiación solar	0
159629	7	Sololá	712	San Antonio Palopó	9	San Antonio Palopo	3	Marzo	2023-03-16T00:00:00	2024-11-08T03:00:00	2	Temperatura media	16.6
159630	7	Sololá	712	San Antonio Palopó	9	San Antonio Palopo	3	Marzo	2023-03-16T00:00:00	2024-11-08T03:00:00	4	Temperatura máxima	17.2
159631	7	Sololá	712	San Antonio Palopó	9	San Antonio Palopo	3	Marzo	2023-03-16T00:00:00	2024-11-08T03:00:00	3	Temperatura mínima	16.6
159632	7	Sololá	712	San Antonio Palopó	9	San Antonio Palopo	3	Marzo	2023-03-16T00:00:00	2024-11-08T03:00:00	5	Humedad	73
159633	7	Sololá	712	San Antonio Palopó	9	San Antonio Palopo	3	Marzo	2023-03-16T00:00:00	2024-11-08T03:00:00	6	Velocidad del viento	6.4
159634	7	Sololá	712	San Antonio Palopó	9	San Antonio Palopo	3	Marzo	2023-03-16T00:00:00	2024-11-08T03:00:00	7	Dirección del viento	6.44
159635	7	Sololá	712	San Antonio Palopó	9	San Antonio Palopo	3	Marzo	2023-03-16T00:00:00	2024-11-08T03:00:00	1	Precipitación	0
159636	7	Sololá	712	San Antonio Palopó	9	San Antonio Palopo	3	Marzo	2023-03-16T00:00:00	2024-11-08T03:00:00	8	Radiación solar	0
159637	7	Sololá	712	San Antonio Palopó	9	San Antonio Palopo	3	Marzo	2023-03-16T00:00:00	2024-11-08T04:00:00	2	Temperatura media	16.7
159638	7	Sololá	712	San Antonio Palopó	9	San Antonio Palopo	3	Marzo	2023-03-16T00:00:00	2024-11-08T04:00:00	4	Temperatura máxima	17
159639	7	Sololá	712	San Antonio Palopó	9	San Antonio Palopo	3	Marzo	2023-03-16T00:00:00	2024-11-08T04:00:00	3	Temperatura mínima	16.6
159640	7	Sololá	712	San Antonio Palopó	9	San Antonio Palopo	3	Marzo	2023-03-16T00:00:00	2024-11-08T04:00:00	5	Humedad	72
159641	7	Sololá	712	San Antonio Palopó	9	San Antonio Palopo	3	Marzo	2023-03-16T00:00:00	2024-11-08T04:00:00	6	Velocidad del viento	11.3
159642	7	Sololá	712	San Antonio Palopó	9	San Antonio Palopo	3	Marzo	2023-03-16T00:00:00	2024-11-08T04:00:00	7	Dirección del viento	11.27
159643	7	Sololá	712	San Antonio Palopó	9	San Antonio Palopo	3	Marzo	2023-03-16T00:00:00	2024-11-08T04:00:00	1	Precipitación	0
159644	7	Sololá	712	San Antonio Palopó	9	San Antonio Palopo	3	Marzo	2023-03-16T00:00:00	2024-11-08T04:00:00	8	Radiación solar	0
159645	7	Sololá	712	San Antonio Palopó	9	San Antonio Palopo	3	Marzo	2023-03-16T00:00:00	2024-11-08T05:00:00	2	Temperatura media	16.7
159646	7	Sololá	712	San Antonio Palopó	9	San Antonio Palopo	3	Marzo	2023-03-16T00:00:00	2024-11-08T05:00:00	4	Temperatura máxima	16.7
159647	7	Sololá	712	San Antonio Palopó	9	San Antonio Palopo	3	Marzo	2023-03-16T00:00:00	2024-11-08T05:00:00	3	Temperatura mínima	16.5
159648	7	Sololá	712	San Antonio Palopó	9	San Antonio Palopo	3	Marzo	2023-03-16T00:00:00	2024-11-08T05:00:00	5	Humedad	73
159649	7	Sololá	712	San Antonio Palopó	9	San Antonio Palopo	3	Marzo	2023-03-16T00:00:00	2024-11-08T05:00:00	6	Velocidad del viento	12.9
159650	7	Sololá	712	San Antonio Palopó	9	San Antonio Palopo	3	Marzo	2023-03-16T00:00:00	2024-11-08T05:00:00	7	Dirección del viento	12.87
159651	7	Sololá	712	San Antonio Palopó	9	San Antonio Palopo	3	Marzo	2023-03-16T00:00:00	2024-11-08T05:00:00	1	Precipitación	0
159652	7	Sololá	712	San Antonio Palopó	9	San Antonio Palopo	3	Marzo	2023-03-16T00:00:00	2024-11-08T05:00:00	8	Radiación solar	0
159653	7	Sololá	712	San Antonio Palopó	9	San Antonio Palopo	3	Marzo	2023-03-16T00:00:00	2024-11-08T06:00:00	2	Temperatura media	16.5
159654	7	Sololá	712	San Antonio Palopó	9	San Antonio Palopo	3	Marzo	2023-03-16T00:00:00	2024-11-08T06:00:00	4	Temperatura máxima	16.8
159655	7	Sololá	712	San Antonio Palopó	9	San Antonio Palopo	3	Marzo	2023-03-16T00:00:00	2024-11-08T06:00:00	3	Temperatura mínima	16.3
159656	7	Sololá	712	San Antonio Palopó	9	San Antonio Palopo	3	Marzo	2023-03-16T00:00:00	2024-11-08T06:00:00	5	Humedad	74
159657	7	Sololá	712	San Antonio Palopó	9	San Antonio Palopo	3	Marzo	2023-03-16T00:00:00	2024-11-08T06:00:00	6	Velocidad del viento	8
159658	7	Sololá	712	San Antonio Palopó	9	San Antonio Palopo	3	Marzo	2023-03-16T00:00:00	2024-11-08T06:00:00	7	Dirección del viento	8.05
159659	7	Sololá	712	San Antonio Palopó	9	San Antonio Palopo	3	Marzo	2023-03-16T00:00:00	2024-11-08T06:00:00	1	Precipitación	0
159660	7	Sololá	712	San Antonio Palopó	9	San Antonio Palopo	3	Marzo	2023-03-16T00:00:00	2024-11-08T06:00:00	8	Radiación solar	0
159661	7	Sololá	712	San Antonio Palopó	9	San Antonio Palopo	3	Marzo	2023-03-16T00:00:00	2024-11-08T07:00:00	2	Temperatura media	16.6
159662	7	Sololá	712	San Antonio Palopó	9	San Antonio Palopo	3	Marzo	2023-03-16T00:00:00	2024-11-08T07:00:00	4	Temperatura máxima	16.6
159663	7	Sololá	712	San Antonio Palopó	9	San Antonio Palopo	3	Marzo	2023-03-16T00:00:00	2024-11-08T07:00:00	3	Temperatura mínima	15.9
159664	7	Sololá	712	San Antonio Palopó	9	San Antonio Palopo	3	Marzo	2023-03-16T00:00:00	2024-11-08T07:00:00	5	Humedad	77
159665	7	Sololá	712	San Antonio Palopó	9	San Antonio Palopo	3	Marzo	2023-03-16T00:00:00	2024-11-08T07:00:00	6	Velocidad del viento	4.8
159666	7	Sololá	712	San Antonio Palopó	9	San Antonio Palopo	3	Marzo	2023-03-16T00:00:00	2024-11-08T07:00:00	7	Dirección del viento	4.83
159667	7	Sololá	712	San Antonio Palopó	9	San Antonio Palopo	3	Marzo	2023-03-16T00:00:00	2024-11-08T07:00:00	1	Precipitación	0
159668	7	Sololá	712	San Antonio Palopó	9	San Antonio Palopo	3	Marzo	2023-03-16T00:00:00	2024-11-08T07:00:00	8	Radiación solar	12
159669	7	Sololá	712	San Antonio Palopó	9	San Antonio Palopo	3	Marzo	2023-03-16T00:00:00	2024-11-08T08:00:00	2	Temperatura media	16.6
159670	7	Sololá	712	San Antonio Palopó	9	San Antonio Palopo	3	Marzo	2023-03-16T00:00:00	2024-11-08T08:00:00	4	Temperatura máxima	17.1
159671	7	Sololá	712	San Antonio Palopó	9	San Antonio Palopo	3	Marzo	2023-03-16T00:00:00	2024-11-08T08:00:00	3	Temperatura mínima	16.2
159672	7	Sololá	712	San Antonio Palopó	9	San Antonio Palopo	3	Marzo	2023-03-16T00:00:00	2024-11-08T08:00:00	5	Humedad	79
159673	7	Sololá	712	San Antonio Palopó	9	San Antonio Palopo	3	Marzo	2023-03-16T00:00:00	2024-11-08T08:00:00	6	Velocidad del viento	3.2
159674	7	Sololá	712	San Antonio Palopó	9	San Antonio Palopo	3	Marzo	2023-03-16T00:00:00	2024-11-08T08:00:00	7	Dirección del viento	3.22
159675	7	Sololá	712	San Antonio Palopó	9	San Antonio Palopo	3	Marzo	2023-03-16T00:00:00	2024-11-08T08:00:00	1	Precipitación	0
159676	7	Sololá	712	San Antonio Palopó	9	San Antonio Palopo	3	Marzo	2023-03-16T00:00:00	2024-11-08T08:00:00	8	Radiación solar	60
159677	7	Sololá	712	San Antonio Palopó	9	San Antonio Palopo	3	Marzo	2023-03-16T00:00:00	2024-11-08T09:00:00	2	Temperatura media	18.9
159678	7	Sololá	712	San Antonio Palopó	9	San Antonio Palopo	3	Marzo	2023-03-16T00:00:00	2024-11-08T09:00:00	4	Temperatura máxima	19.5
159679	7	Sololá	712	San Antonio Palopó	9	San Antonio Palopo	3	Marzo	2023-03-16T00:00:00	2024-11-08T09:00:00	3	Temperatura mínima	16.6
159680	7	Sololá	712	San Antonio Palopó	9	San Antonio Palopo	3	Marzo	2023-03-16T00:00:00	2024-11-08T09:00:00	5	Humedad	73
159681	7	Sololá	712	San Antonio Palopó	9	San Antonio Palopo	3	Marzo	2023-03-16T00:00:00	2024-11-08T09:00:00	6	Velocidad del viento	3.2
159682	7	Sololá	712	San Antonio Palopó	9	San Antonio Palopo	3	Marzo	2023-03-16T00:00:00	2024-11-08T09:00:00	7	Dirección del viento	3.22
159683	7	Sololá	712	San Antonio Palopó	9	San Antonio Palopo	3	Marzo	2023-03-16T00:00:00	2024-11-08T09:00:00	1	Precipitación	0
159684	7	Sololá	712	San Antonio Palopó	9	San Antonio Palopo	3	Marzo	2023-03-16T00:00:00	2024-11-08T09:00:00	8	Radiación solar	393
159685	7	Sololá	712	San Antonio Palopó	9	San Antonio Palopo	3	Marzo	2023-03-16T00:00:00	2024-11-08T10:00:00	2	Temperatura media	19.6
159686	7	Sololá	712	San Antonio Palopó	9	San Antonio Palopo	3	Marzo	2023-03-16T00:00:00	2024-11-08T10:00:00	4	Temperatura máxima	19.6
159687	7	Sololá	712	San Antonio Palopó	9	San Antonio Palopo	3	Marzo	2023-03-16T00:00:00	2024-11-08T10:00:00	3	Temperatura mínima	18.7
159688	7	Sololá	712	San Antonio Palopó	9	San Antonio Palopo	3	Marzo	2023-03-16T00:00:00	2024-11-08T10:00:00	5	Humedad	72
159689	7	Sololá	712	San Antonio Palopó	9	San Antonio Palopo	3	Marzo	2023-03-16T00:00:00	2024-11-08T10:00:00	6	Velocidad del viento	3.2
159690	7	Sololá	712	San Antonio Palopó	9	San Antonio Palopo	3	Marzo	2023-03-16T00:00:00	2024-11-08T10:00:00	7	Dirección del viento	3.22
159691	7	Sololá	712	San Antonio Palopó	9	San Antonio Palopo	3	Marzo	2023-03-16T00:00:00	2024-11-08T10:00:00	1	Precipitación	0
159692	7	Sololá	712	San Antonio Palopó	9	San Antonio Palopo	3	Marzo	2023-03-16T00:00:00	2024-11-08T10:00:00	8	Radiación solar	640
159693	7	Sololá	712	San Antonio Palopó	9	San Antonio Palopo	3	Marzo	2023-03-16T00:00:00	2024-11-08T11:00:00	2	Temperatura media	20.7
159694	7	Sololá	712	San Antonio Palopó	9	San Antonio Palopo	3	Marzo	2023-03-16T00:00:00	2024-11-08T11:00:00	4	Temperatura máxima	20.8
159695	7	Sololá	712	San Antonio Palopó	9	San Antonio Palopo	3	Marzo	2023-03-16T00:00:00	2024-11-08T11:00:00	3	Temperatura mínima	19.6
159696	7	Sololá	712	San Antonio Palopó	9	San Antonio Palopo	3	Marzo	2023-03-16T00:00:00	2024-11-08T11:00:00	5	Humedad	73
159697	7	Sololá	712	San Antonio Palopó	9	San Antonio Palopo	3	Marzo	2023-03-16T00:00:00	2024-11-08T11:00:00	6	Velocidad del viento	3.2
159698	7	Sololá	712	San Antonio Palopó	9	San Antonio Palopo	3	Marzo	2023-03-16T00:00:00	2024-11-08T11:00:00	7	Dirección del viento	3.22
159699	7	Sololá	712	San Antonio Palopó	9	San Antonio Palopo	3	Marzo	2023-03-16T00:00:00	2024-11-08T11:00:00	1	Precipitación	0
159700	7	Sololá	712	San Antonio Palopó	9	San Antonio Palopo	3	Marzo	2023-03-16T00:00:00	2024-11-08T11:00:00	8	Radiación solar	805
159701	7	Sololá	712	San Antonio Palopó	9	San Antonio Palopo	3	Marzo	2023-03-16T00:00:00	2024-11-08T12:00:00	2	Temperatura media	21.6
159702	7	Sololá	712	San Antonio Palopó	9	San Antonio Palopo	3	Marzo	2023-03-16T00:00:00	2024-11-08T12:00:00	4	Temperatura máxima	21.6
159703	7	Sololá	712	San Antonio Palopó	9	San Antonio Palopo	3	Marzo	2023-03-16T00:00:00	2024-11-08T12:00:00	3	Temperatura mínima	20.3
159704	7	Sololá	712	San Antonio Palopó	9	San Antonio Palopo	3	Marzo	2023-03-16T00:00:00	2024-11-08T12:00:00	5	Humedad	74
159705	7	Sololá	712	San Antonio Palopó	9	San Antonio Palopo	3	Marzo	2023-03-16T00:00:00	2024-11-08T12:00:00	6	Velocidad del viento	9.7
159706	7	Sololá	712	San Antonio Palopó	9	San Antonio Palopo	3	Marzo	2023-03-16T00:00:00	2024-11-08T12:00:00	7	Dirección del viento	9.66
159707	7	Sololá	712	San Antonio Palopó	9	San Antonio Palopo	3	Marzo	2023-03-16T00:00:00	2024-11-08T12:00:00	1	Precipitación	0
159708	7	Sololá	712	San Antonio Palopó	9	San Antonio Palopo	3	Marzo	2023-03-16T00:00:00	2024-11-08T12:00:00	8	Radiación solar	893
159709	7	Sololá	712	San Antonio Palopó	9	San Antonio Palopo	3	Marzo	2023-03-16T00:00:00	2024-11-08T13:00:00	2	Temperatura media	23
159710	7	Sololá	712	San Antonio Palopó	9	San Antonio Palopo	3	Marzo	2023-03-16T00:00:00	2024-11-08T13:00:00	4	Temperatura máxima	23.1
159711	7	Sololá	712	San Antonio Palopó	9	San Antonio Palopo	3	Marzo	2023-03-16T00:00:00	2024-11-08T13:00:00	3	Temperatura mínima	21.6
159712	7	Sololá	712	San Antonio Palopó	9	San Antonio Palopo	3	Marzo	2023-03-16T00:00:00	2024-11-08T13:00:00	5	Humedad	67
159713	7	Sololá	712	San Antonio Palopó	9	San Antonio Palopo	3	Marzo	2023-03-16T00:00:00	2024-11-08T13:00:00	6	Velocidad del viento	8
159714	7	Sololá	712	San Antonio Palopó	9	San Antonio Palopo	3	Marzo	2023-03-16T00:00:00	2024-11-08T13:00:00	7	Dirección del viento	8.05
159715	7	Sololá	712	San Antonio Palopó	9	San Antonio Palopo	3	Marzo	2023-03-16T00:00:00	2024-11-08T13:00:00	1	Precipitación	0
159716	7	Sololá	712	San Antonio Palopó	9	San Antonio Palopo	3	Marzo	2023-03-16T00:00:00	2024-11-08T13:00:00	8	Radiación solar	944
159717	7	Sololá	712	San Antonio Palopó	9	San Antonio Palopo	3	Marzo	2023-03-16T00:00:00	2024-11-08T14:00:00	2	Temperatura media	23.6
159718	7	Sololá	712	San Antonio Palopó	9	San Antonio Palopo	3	Marzo	2023-03-16T00:00:00	2024-11-08T14:00:00	4	Temperatura máxima	23.7
159719	7	Sololá	712	San Antonio Palopó	9	San Antonio Palopo	3	Marzo	2023-03-16T00:00:00	2024-11-08T14:00:00	3	Temperatura mínima	22.6
159720	7	Sololá	712	San Antonio Palopó	9	San Antonio Palopo	3	Marzo	2023-03-16T00:00:00	2024-11-08T14:00:00	5	Humedad	67
159721	7	Sololá	712	San Antonio Palopó	9	San Antonio Palopo	3	Marzo	2023-03-16T00:00:00	2024-11-08T14:00:00	6	Velocidad del viento	6.4
159722	7	Sololá	712	San Antonio Palopó	9	San Antonio Palopo	3	Marzo	2023-03-16T00:00:00	2024-11-08T14:00:00	7	Dirección del viento	6.44
159723	7	Sololá	712	San Antonio Palopó	9	San Antonio Palopo	3	Marzo	2023-03-16T00:00:00	2024-11-08T14:00:00	1	Precipitación	0
159724	7	Sololá	712	San Antonio Palopó	9	San Antonio Palopo	3	Marzo	2023-03-16T00:00:00	2024-11-08T14:00:00	8	Radiación solar	886
159725	7	Sololá	712	San Antonio Palopó	9	San Antonio Palopo	3	Marzo	2023-03-16T00:00:00	2024-11-08T15:00:00	2	Temperatura media	21.4
159726	7	Sololá	712	San Antonio Palopó	9	San Antonio Palopo	3	Marzo	2023-03-16T00:00:00	2024-11-08T15:00:00	4	Temperatura máxima	23.8
159727	7	Sololá	712	San Antonio Palopó	9	San Antonio Palopo	3	Marzo	2023-03-16T00:00:00	2024-11-08T15:00:00	3	Temperatura mínima	21.4
159728	7	Sololá	712	San Antonio Palopó	9	San Antonio Palopo	3	Marzo	2023-03-16T00:00:00	2024-11-08T15:00:00	5	Humedad	75
159729	7	Sololá	712	San Antonio Palopó	9	San Antonio Palopo	3	Marzo	2023-03-16T00:00:00	2024-11-08T15:00:00	6	Velocidad del viento	9.7
159730	7	Sololá	712	San Antonio Palopó	9	San Antonio Palopo	3	Marzo	2023-03-16T00:00:00	2024-11-08T15:00:00	7	Dirección del viento	9.66
159731	7	Sololá	712	San Antonio Palopó	9	San Antonio Palopo	3	Marzo	2023-03-16T00:00:00	2024-11-08T15:00:00	1	Precipitación	0
159732	7	Sololá	712	San Antonio Palopó	9	San Antonio Palopo	3	Marzo	2023-03-16T00:00:00	2024-11-08T15:00:00	8	Radiación solar	545
159733	7	Sololá	712	San Antonio Palopó	9	San Antonio Palopo	3	Marzo	2023-03-16T00:00:00	2024-11-08T16:00:00	2	Temperatura media	20.6
159734	7	Sololá	712	San Antonio Palopó	9	San Antonio Palopo	3	Marzo	2023-03-16T00:00:00	2024-11-08T16:00:00	4	Temperatura máxima	21.4
159735	7	Sololá	712	San Antonio Palopó	9	San Antonio Palopo	3	Marzo	2023-03-16T00:00:00	2024-11-08T16:00:00	3	Temperatura mínima	20.3
159736	7	Sololá	712	San Antonio Palopó	9	San Antonio Palopo	3	Marzo	2023-03-16T00:00:00	2024-11-08T16:00:00	5	Humedad	77
159737	7	Sololá	712	San Antonio Palopó	9	San Antonio Palopo	3	Marzo	2023-03-16T00:00:00	2024-11-08T16:00:00	6	Velocidad del viento	11.3
159738	7	Sololá	712	San Antonio Palopó	9	San Antonio Palopo	3	Marzo	2023-03-16T00:00:00	2024-11-08T16:00:00	7	Dirección del viento	11.27
159739	7	Sololá	712	San Antonio Palopó	9	San Antonio Palopo	3	Marzo	2023-03-16T00:00:00	2024-11-08T16:00:00	1	Precipitación	0
159740	7	Sololá	712	San Antonio Palopó	9	San Antonio Palopo	3	Marzo	2023-03-16T00:00:00	2024-11-08T16:00:00	8	Radiación solar	159
159741	7	Sololá	712	San Antonio Palopó	9	San Antonio Palopo	3	Marzo	2023-03-16T00:00:00	2024-11-08T17:00:00	2	Temperatura media	20.4
159742	7	Sololá	712	San Antonio Palopó	9	San Antonio Palopo	3	Marzo	2023-03-16T00:00:00	2024-11-08T17:00:00	4	Temperatura máxima	20.7
159743	7	Sololá	712	San Antonio Palopó	9	San Antonio Palopo	3	Marzo	2023-03-16T00:00:00	2024-11-08T17:00:00	3	Temperatura mínima	20.2
159744	7	Sololá	712	San Antonio Palopó	9	San Antonio Palopo	3	Marzo	2023-03-16T00:00:00	2024-11-08T17:00:00	5	Humedad	78
159745	7	Sololá	712	San Antonio Palopó	9	San Antonio Palopo	3	Marzo	2023-03-16T00:00:00	2024-11-08T17:00:00	6	Velocidad del viento	6.4
159746	7	Sololá	712	San Antonio Palopó	9	San Antonio Palopo	3	Marzo	2023-03-16T00:00:00	2024-11-08T17:00:00	7	Dirección del viento	6.44
159747	7	Sololá	712	San Antonio Palopó	9	San Antonio Palopo	3	Marzo	2023-03-16T00:00:00	2024-11-08T17:00:00	1	Precipitación	0
159748	7	Sololá	712	San Antonio Palopó	9	San Antonio Palopo	3	Marzo	2023-03-16T00:00:00	2024-11-08T17:00:00	8	Radiación solar	119
159749	7	Sololá	712	San Antonio Palopó	9	San Antonio Palopo	3	Marzo	2023-03-16T00:00:00	2024-11-08T18:00:00	2	Temperatura media	19.4
159750	7	Sololá	712	San Antonio Palopó	9	San Antonio Palopo	3	Marzo	2023-03-16T00:00:00	2024-11-08T18:00:00	4	Temperatura máxima	20.4
159751	7	Sololá	712	San Antonio Palopó	9	San Antonio Palopo	3	Marzo	2023-03-16T00:00:00	2024-11-08T18:00:00	3	Temperatura mínima	19.4
159752	7	Sololá	712	San Antonio Palopó	9	San Antonio Palopo	3	Marzo	2023-03-16T00:00:00	2024-11-08T18:00:00	5	Humedad	85
159753	7	Sololá	712	San Antonio Palopó	9	San Antonio Palopo	3	Marzo	2023-03-16T00:00:00	2024-11-08T18:00:00	6	Velocidad del viento	4.8
159754	7	Sololá	712	San Antonio Palopó	9	San Antonio Palopo	3	Marzo	2023-03-16T00:00:00	2024-11-08T18:00:00	7	Dirección del viento	4.83
159755	7	Sololá	712	San Antonio Palopó	9	San Antonio Palopo	3	Marzo	2023-03-16T00:00:00	2024-11-08T18:00:00	1	Precipitación	0
159756	7	Sololá	712	San Antonio Palopó	9	San Antonio Palopo	3	Marzo	2023-03-16T00:00:00	2024-11-08T18:00:00	8	Radiación solar	13
159757	7	Sololá	712	San Antonio Palopó	9	San Antonio Palopo	3	Marzo	2023-03-16T00:00:00	2024-11-08T19:00:00	2	Temperatura media	18.7
159758	7	Sololá	712	San Antonio Palopó	9	San Antonio Palopo	3	Marzo	2023-03-16T00:00:00	2024-11-08T19:00:00	4	Temperatura máxima	19.4
159759	7	Sololá	712	San Antonio Palopó	9	San Antonio Palopo	3	Marzo	2023-03-16T00:00:00	2024-11-08T19:00:00	3	Temperatura mínima	18.7
159760	7	Sololá	712	San Antonio Palopó	9	San Antonio Palopo	3	Marzo	2023-03-16T00:00:00	2024-11-08T19:00:00	5	Humedad	87
159761	7	Sololá	712	San Antonio Palopó	9	San Antonio Palopo	3	Marzo	2023-03-16T00:00:00	2024-11-08T19:00:00	6	Velocidad del viento	3.2
159762	7	Sololá	712	San Antonio Palopó	9	San Antonio Palopo	3	Marzo	2023-03-16T00:00:00	2024-11-08T19:00:00	7	Dirección del viento	3.22
159763	7	Sololá	712	San Antonio Palopó	9	San Antonio Palopo	3	Marzo	2023-03-16T00:00:00	2024-11-08T19:00:00	1	Precipitación	0.6
159764	7	Sololá	712	San Antonio Palopó	9	San Antonio Palopo	3	Marzo	2023-03-16T00:00:00	2024-11-08T19:00:00	8	Radiación solar	0
159765	7	Sololá	712	San Antonio Palopó	9	San Antonio Palopo	3	Marzo	2023-03-16T00:00:00	2024-11-08T20:00:00	2	Temperatura media	17.8
159766	7	Sololá	712	San Antonio Palopó	9	San Antonio Palopo	3	Marzo	2023-03-16T00:00:00	2024-11-08T20:00:00	4	Temperatura máxima	18.7
159767	7	Sololá	712	San Antonio Palopó	9	San Antonio Palopo	3	Marzo	2023-03-16T00:00:00	2024-11-08T20:00:00	3	Temperatura mínima	17.8
159768	7	Sololá	712	San Antonio Palopó	9	San Antonio Palopo	3	Marzo	2023-03-16T00:00:00	2024-11-08T20:00:00	5	Humedad	82
159769	7	Sololá	712	San Antonio Palopó	9	San Antonio Palopo	3	Marzo	2023-03-16T00:00:00	2024-11-08T20:00:00	6	Velocidad del viento	3.2
159770	7	Sololá	712	San Antonio Palopó	9	San Antonio Palopo	3	Marzo	2023-03-16T00:00:00	2024-11-08T20:00:00	7	Dirección del viento	3.22
159771	7	Sololá	712	San Antonio Palopó	9	San Antonio Palopo	3	Marzo	2023-03-16T00:00:00	2024-11-08T20:00:00	1	Precipitación	0
159772	7	Sololá	712	San Antonio Palopó	9	San Antonio Palopo	3	Marzo	2023-03-16T00:00:00	2024-11-08T20:00:00	8	Radiación solar	0
159773	7	Sololá	712	San Antonio Palopó	9	San Antonio Palopo	3	Marzo	2023-03-16T00:00:00	2024-11-08T21:00:00	2	Temperatura media	17.6
159774	7	Sololá	712	San Antonio Palopó	9	San Antonio Palopo	3	Marzo	2023-03-16T00:00:00	2024-11-08T21:00:00	4	Temperatura máxima	17.8
159775	7	Sololá	712	San Antonio Palopó	9	San Antonio Palopo	3	Marzo	2023-03-16T00:00:00	2024-11-08T21:00:00	3	Temperatura mínima	16.9
159776	7	Sololá	712	San Antonio Palopó	9	San Antonio Palopo	3	Marzo	2023-03-16T00:00:00	2024-11-08T21:00:00	5	Humedad	79
159777	7	Sololá	712	San Antonio Palopó	9	San Antonio Palopo	3	Marzo	2023-03-16T00:00:00	2024-11-08T21:00:00	6	Velocidad del viento	4.8
159778	7	Sololá	712	San Antonio Palopó	9	San Antonio Palopo	3	Marzo	2023-03-16T00:00:00	2024-11-08T21:00:00	7	Dirección del viento	4.83
159779	7	Sololá	712	San Antonio Palopó	9	San Antonio Palopo	3	Marzo	2023-03-16T00:00:00	2024-11-08T21:00:00	1	Precipitación	0
159780	7	Sololá	712	San Antonio Palopó	9	San Antonio Palopo	3	Marzo	2023-03-16T00:00:00	2024-11-08T21:00:00	8	Radiación solar	0
159781	7	Sololá	712	San Antonio Palopó	9	San Antonio Palopo	3	Marzo	2023-03-16T00:00:00	2024-11-08T22:00:00	2	Temperatura media	17.3
159782	7	Sololá	712	San Antonio Palopó	9	San Antonio Palopo	3	Marzo	2023-03-16T00:00:00	2024-11-08T22:00:00	4	Temperatura máxima	18.1
159783	7	Sololá	712	San Antonio Palopó	9	San Antonio Palopo	3	Marzo	2023-03-16T00:00:00	2024-11-08T22:00:00	3	Temperatura mínima	17.3
159784	7	Sololá	712	San Antonio Palopó	9	San Antonio Palopo	3	Marzo	2023-03-16T00:00:00	2024-11-08T22:00:00	5	Humedad	82
159785	7	Sololá	712	San Antonio Palopó	9	San Antonio Palopo	3	Marzo	2023-03-16T00:00:00	2024-11-08T22:00:00	6	Velocidad del viento	3.2
159786	7	Sololá	712	San Antonio Palopó	9	San Antonio Palopo	3	Marzo	2023-03-16T00:00:00	2024-11-08T22:00:00	7	Dirección del viento	3.22
159787	7	Sololá	712	San Antonio Palopó	9	San Antonio Palopo	3	Marzo	2023-03-16T00:00:00	2024-11-08T22:00:00	1	Precipitación	0
159788	7	Sololá	712	San Antonio Palopó	9	San Antonio Palopo	3	Marzo	2023-03-16T00:00:00	2024-11-08T22:00:00	8	Radiación solar	0
159789	7	Sololá	712	San Antonio Palopó	9	San Antonio Palopo	3	Marzo	2023-03-16T00:00:00	2024-11-08T23:00:00	2	Temperatura media	17.2
159790	7	Sololá	712	San Antonio Palopó	9	San Antonio Palopo	3	Marzo	2023-03-16T00:00:00	2024-11-08T23:00:00	4	Temperatura máxima	17.3
159791	7	Sololá	712	San Antonio Palopó	9	San Antonio Palopo	3	Marzo	2023-03-16T00:00:00	2024-11-08T23:00:00	3	Temperatura mínima	16.8
159792	7	Sololá	712	San Antonio Palopó	9	San Antonio Palopo	3	Marzo	2023-03-16T00:00:00	2024-11-08T23:00:00	5	Humedad	83
159793	7	Sololá	712	San Antonio Palopó	9	San Antonio Palopo	3	Marzo	2023-03-16T00:00:00	2024-11-08T23:00:00	6	Velocidad del viento	3.2
159794	7	Sololá	712	San Antonio Palopó	9	San Antonio Palopo	3	Marzo	2023-03-16T00:00:00	2024-11-08T23:00:00	7	Dirección del viento	3.22
159795	7	Sololá	712	San Antonio Palopó	9	San Antonio Palopo	3	Marzo	2023-03-16T00:00:00	2024-11-08T23:00:00	1	Precipitación	0
159796	7	Sololá	712	San Antonio Palopó	9	San Antonio Palopo	3	Marzo	2023-03-16T00:00:00	2024-11-08T23:00:00	8	Radiación solar	0
159797	7	Sololá	712	San Antonio Palopó	9	San Antonio Palopo	3	Marzo	2023-03-17T00:00:00	2024-11-08T00:00:00	2	Temperatura media	17.2
159798	7	Sololá	712	San Antonio Palopó	9	San Antonio Palopo	3	Marzo	2023-03-17T00:00:00	2024-11-08T00:00:00	4	Temperatura máxima	17.3
159799	7	Sololá	712	San Antonio Palopó	9	San Antonio Palopo	3	Marzo	2023-03-17T00:00:00	2024-11-08T00:00:00	3	Temperatura mínima	16.9
159800	7	Sololá	712	San Antonio Palopó	9	San Antonio Palopo	3	Marzo	2023-03-17T00:00:00	2024-11-08T00:00:00	5	Humedad	84
159801	7	Sololá	712	San Antonio Palopó	9	San Antonio Palopo	3	Marzo	2023-03-17T00:00:00	2024-11-08T00:00:00	6	Velocidad del viento	3.2
159802	7	Sololá	712	San Antonio Palopó	9	San Antonio Palopo	3	Marzo	2023-03-17T00:00:00	2024-11-08T00:00:00	7	Dirección del viento	3.22
159803	7	Sololá	712	San Antonio Palopó	9	San Antonio Palopo	3	Marzo	2023-03-17T00:00:00	2024-11-08T00:00:00	1	Precipitación	0
159804	7	Sololá	712	San Antonio Palopó	9	San Antonio Palopo	3	Marzo	2023-03-17T00:00:00	2024-11-08T00:00:00	8	Radiación solar	0
159805	7	Sololá	712	San Antonio Palopó	9	San Antonio Palopo	3	Marzo	2023-03-17T00:00:00	2024-11-08T01:00:00	2	Temperatura media	16.8
159806	7	Sololá	712	San Antonio Palopó	9	San Antonio Palopo	3	Marzo	2023-03-17T00:00:00	2024-11-08T01:00:00	4	Temperatura máxima	17.2
159807	7	Sololá	712	San Antonio Palopó	9	San Antonio Palopo	3	Marzo	2023-03-17T00:00:00	2024-11-08T01:00:00	3	Temperatura mínima	16.7
159808	7	Sololá	712	San Antonio Palopó	9	San Antonio Palopo	3	Marzo	2023-03-17T00:00:00	2024-11-08T01:00:00	5	Humedad	84
159809	7	Sololá	712	San Antonio Palopó	9	San Antonio Palopo	3	Marzo	2023-03-17T00:00:00	2024-11-08T01:00:00	6	Velocidad del viento	3.2
159810	7	Sololá	712	San Antonio Palopó	9	San Antonio Palopo	3	Marzo	2023-03-17T00:00:00	2024-11-08T01:00:00	7	Dirección del viento	3.22
159811	7	Sololá	712	San Antonio Palopó	9	San Antonio Palopo	3	Marzo	2023-03-17T00:00:00	2024-11-08T01:00:00	1	Precipitación	0
159812	7	Sololá	712	San Antonio Palopó	9	San Antonio Palopo	3	Marzo	2023-03-17T00:00:00	2024-11-08T01:00:00	8	Radiación solar	0
159813	7	Sololá	712	San Antonio Palopó	9	San Antonio Palopo	3	Marzo	2023-03-17T00:00:00	2024-11-08T02:00:00	2	Temperatura media	16.4
159814	7	Sololá	712	San Antonio Palopó	9	San Antonio Palopo	3	Marzo	2023-03-17T00:00:00	2024-11-08T02:00:00	4	Temperatura máxima	16.8
159815	7	Sololá	712	San Antonio Palopó	9	San Antonio Palopo	3	Marzo	2023-03-17T00:00:00	2024-11-08T02:00:00	3	Temperatura mínima	16.2
159816	7	Sololá	712	San Antonio Palopó	9	San Antonio Palopo	3	Marzo	2023-03-17T00:00:00	2024-11-08T02:00:00	5	Humedad	85
159817	7	Sololá	712	San Antonio Palopó	9	San Antonio Palopo	3	Marzo	2023-03-17T00:00:00	2024-11-08T02:00:00	6	Velocidad del viento	3.2
159818	7	Sololá	712	San Antonio Palopó	9	San Antonio Palopo	3	Marzo	2023-03-17T00:00:00	2024-11-08T02:00:00	7	Dirección del viento	3.22
159819	7	Sololá	712	San Antonio Palopó	9	San Antonio Palopo	3	Marzo	2023-03-17T00:00:00	2024-11-08T02:00:00	1	Precipitación	0
159820	7	Sololá	712	San Antonio Palopó	9	San Antonio Palopo	3	Marzo	2023-03-17T00:00:00	2024-11-08T02:00:00	8	Radiación solar	0
159821	7	Sololá	712	San Antonio Palopó	9	San Antonio Palopo	3	Marzo	2023-03-17T00:00:00	2024-11-08T03:00:00	2	Temperatura media	16.2
159822	7	Sololá	712	San Antonio Palopó	9	San Antonio Palopo	3	Marzo	2023-03-17T00:00:00	2024-11-08T03:00:00	4	Temperatura máxima	17.1
159823	7	Sololá	712	San Antonio Palopó	9	San Antonio Palopo	3	Marzo	2023-03-17T00:00:00	2024-11-08T03:00:00	3	Temperatura mínima	16.2
159824	7	Sololá	712	San Antonio Palopó	9	San Antonio Palopo	3	Marzo	2023-03-17T00:00:00	2024-11-08T03:00:00	5	Humedad	84
159825	7	Sololá	712	San Antonio Palopó	9	San Antonio Palopo	3	Marzo	2023-03-17T00:00:00	2024-11-08T03:00:00	6	Velocidad del viento	4.8
159826	7	Sololá	712	San Antonio Palopó	9	San Antonio Palopo	3	Marzo	2023-03-17T00:00:00	2024-11-08T03:00:00	7	Dirección del viento	4.83
159827	7	Sololá	712	San Antonio Palopó	9	San Antonio Palopo	3	Marzo	2023-03-17T00:00:00	2024-11-08T03:00:00	1	Precipitación	0
159828	7	Sololá	712	San Antonio Palopó	9	San Antonio Palopo	3	Marzo	2023-03-17T00:00:00	2024-11-08T03:00:00	8	Radiación solar	0
159829	7	Sololá	712	San Antonio Palopó	9	San Antonio Palopo	3	Marzo	2023-03-17T00:00:00	2024-11-08T04:00:00	2	Temperatura media	16.2
159830	7	Sololá	712	San Antonio Palopó	9	San Antonio Palopo	3	Marzo	2023-03-17T00:00:00	2024-11-08T04:00:00	4	Temperatura máxima	16.3
159831	7	Sololá	712	San Antonio Palopó	9	San Antonio Palopo	3	Marzo	2023-03-17T00:00:00	2024-11-08T04:00:00	3	Temperatura mínima	15.9
159832	7	Sololá	712	San Antonio Palopó	9	San Antonio Palopo	3	Marzo	2023-03-17T00:00:00	2024-11-08T04:00:00	5	Humedad	85
159833	7	Sololá	712	San Antonio Palopó	9	San Antonio Palopo	3	Marzo	2023-03-17T00:00:00	2024-11-08T04:00:00	6	Velocidad del viento	4.8
159834	7	Sololá	712	San Antonio Palopó	9	San Antonio Palopo	3	Marzo	2023-03-17T00:00:00	2024-11-08T04:00:00	7	Dirección del viento	4.83
159835	7	Sololá	712	San Antonio Palopó	9	San Antonio Palopo	3	Marzo	2023-03-17T00:00:00	2024-11-08T04:00:00	1	Precipitación	0
159836	7	Sololá	712	San Antonio Palopó	9	San Antonio Palopo	3	Marzo	2023-03-17T00:00:00	2024-11-08T04:00:00	8	Radiación solar	0
159837	7	Sololá	712	San Antonio Palopó	9	San Antonio Palopo	3	Marzo	2023-03-17T00:00:00	2024-11-08T05:00:00	2	Temperatura media	16.3
159838	7	Sololá	712	San Antonio Palopó	9	San Antonio Palopo	3	Marzo	2023-03-17T00:00:00	2024-11-08T05:00:00	4	Temperatura máxima	16.5
159839	7	Sololá	712	San Antonio Palopó	9	San Antonio Palopo	3	Marzo	2023-03-17T00:00:00	2024-11-08T05:00:00	3	Temperatura mínima	16.1
159840	7	Sololá	712	San Antonio Palopó	9	San Antonio Palopo	3	Marzo	2023-03-17T00:00:00	2024-11-08T05:00:00	5	Humedad	79
159841	7	Sololá	712	San Antonio Palopó	9	San Antonio Palopo	3	Marzo	2023-03-17T00:00:00	2024-11-08T05:00:00	6	Velocidad del viento	4.8
159842	7	Sololá	712	San Antonio Palopó	9	San Antonio Palopo	3	Marzo	2023-03-17T00:00:00	2024-11-08T05:00:00	7	Dirección del viento	4.83
159843	7	Sololá	712	San Antonio Palopó	9	San Antonio Palopo	3	Marzo	2023-03-17T00:00:00	2024-11-08T05:00:00	1	Precipitación	0
159844	7	Sololá	712	San Antonio Palopó	9	San Antonio Palopo	3	Marzo	2023-03-17T00:00:00	2024-11-08T05:00:00	8	Radiación solar	0
159845	7	Sololá	712	San Antonio Palopó	9	San Antonio Palopo	3	Marzo	2023-03-17T00:00:00	2024-11-08T06:00:00	2	Temperatura media	15.6
159846	7	Sololá	712	San Antonio Palopó	9	San Antonio Palopo	3	Marzo	2023-03-17T00:00:00	2024-11-08T06:00:00	4	Temperatura máxima	16.4
159847	7	Sololá	712	San Antonio Palopó	9	San Antonio Palopo	3	Marzo	2023-03-17T00:00:00	2024-11-08T06:00:00	3	Temperatura mínima	15.5
159848	7	Sololá	712	San Antonio Palopó	9	San Antonio Palopo	3	Marzo	2023-03-17T00:00:00	2024-11-08T06:00:00	5	Humedad	83
159849	7	Sololá	712	San Antonio Palopó	9	San Antonio Palopo	3	Marzo	2023-03-17T00:00:00	2024-11-08T06:00:00	6	Velocidad del viento	4.8
159850	7	Sololá	712	San Antonio Palopó	9	San Antonio Palopo	3	Marzo	2023-03-17T00:00:00	2024-11-08T06:00:00	7	Dirección del viento	4.83
159851	7	Sololá	712	San Antonio Palopó	9	San Antonio Palopo	3	Marzo	2023-03-17T00:00:00	2024-11-08T06:00:00	1	Precipitación	0
159852	7	Sololá	712	San Antonio Palopó	9	San Antonio Palopo	3	Marzo	2023-03-17T00:00:00	2024-11-08T06:00:00	8	Radiación solar	0
159853	7	Sololá	712	San Antonio Palopó	9	San Antonio Palopo	3	Marzo	2023-03-17T00:00:00	2024-11-08T07:00:00	2	Temperatura media	15.9
159854	7	Sololá	712	San Antonio Palopó	9	San Antonio Palopo	3	Marzo	2023-03-17T00:00:00	2024-11-08T07:00:00	4	Temperatura máxima	16.1
159855	7	Sololá	712	San Antonio Palopó	9	San Antonio Palopo	3	Marzo	2023-03-17T00:00:00	2024-11-08T07:00:00	3	Temperatura mínima	15.6
159856	7	Sololá	712	San Antonio Palopó	9	San Antonio Palopo	3	Marzo	2023-03-17T00:00:00	2024-11-08T07:00:00	5	Humedad	84
159857	7	Sololá	712	San Antonio Palopó	9	San Antonio Palopo	3	Marzo	2023-03-17T00:00:00	2024-11-08T07:00:00	6	Velocidad del viento	3.2
159858	7	Sololá	712	San Antonio Palopó	9	San Antonio Palopo	3	Marzo	2023-03-17T00:00:00	2024-11-08T07:00:00	7	Dirección del viento	3.22
159859	7	Sololá	712	San Antonio Palopó	9	San Antonio Palopo	3	Marzo	2023-03-17T00:00:00	2024-11-08T07:00:00	1	Precipitación	0
159860	7	Sololá	712	San Antonio Palopó	9	San Antonio Palopo	3	Marzo	2023-03-17T00:00:00	2024-11-08T07:00:00	8	Radiación solar	18
159861	7	Sololá	712	San Antonio Palopó	9	San Antonio Palopo	3	Marzo	2023-03-17T00:00:00	2024-11-08T08:00:00	2	Temperatura media	17.2
159862	7	Sololá	712	San Antonio Palopó	9	San Antonio Palopo	3	Marzo	2023-03-17T00:00:00	2024-11-08T08:00:00	4	Temperatura máxima	17.2
159863	7	Sololá	712	San Antonio Palopó	9	San Antonio Palopo	3	Marzo	2023-03-17T00:00:00	2024-11-08T08:00:00	3	Temperatura mínima	15.9
159864	7	Sololá	712	San Antonio Palopó	9	San Antonio Palopo	3	Marzo	2023-03-17T00:00:00	2024-11-08T08:00:00	5	Humedad	84
159865	7	Sololá	712	San Antonio Palopó	9	San Antonio Palopo	3	Marzo	2023-03-17T00:00:00	2024-11-08T08:00:00	6	Velocidad del viento	3.2
159866	7	Sololá	712	San Antonio Palopó	9	San Antonio Palopo	3	Marzo	2023-03-17T00:00:00	2024-11-08T08:00:00	7	Dirección del viento	3.22
159867	7	Sololá	712	San Antonio Palopó	9	San Antonio Palopo	3	Marzo	2023-03-17T00:00:00	2024-11-08T08:00:00	1	Precipitación	0
159868	7	Sololá	712	San Antonio Palopó	9	San Antonio Palopo	3	Marzo	2023-03-17T00:00:00	2024-11-08T08:00:00	8	Radiación solar	89
159869	7	Sololá	712	San Antonio Palopó	9	San Antonio Palopo	3	Marzo	2023-03-17T00:00:00	2024-11-08T09:00:00	2	Temperatura media	19
159870	7	Sololá	712	San Antonio Palopó	9	San Antonio Palopo	3	Marzo	2023-03-17T00:00:00	2024-11-08T09:00:00	4	Temperatura máxima	19.3
159871	7	Sololá	712	San Antonio Palopó	9	San Antonio Palopo	3	Marzo	2023-03-17T00:00:00	2024-11-08T09:00:00	3	Temperatura mínima	17.2
159872	7	Sololá	712	San Antonio Palopó	9	San Antonio Palopo	3	Marzo	2023-03-17T00:00:00	2024-11-08T09:00:00	5	Humedad	79
159873	7	Sololá	712	San Antonio Palopó	9	San Antonio Palopo	3	Marzo	2023-03-17T00:00:00	2024-11-08T09:00:00	6	Velocidad del viento	1.6
159874	7	Sololá	712	San Antonio Palopó	9	San Antonio Palopo	3	Marzo	2023-03-17T00:00:00	2024-11-08T09:00:00	7	Dirección del viento	1.61
159875	7	Sololá	712	San Antonio Palopó	9	San Antonio Palopo	3	Marzo	2023-03-17T00:00:00	2024-11-08T09:00:00	1	Precipitación	0
159876	7	Sololá	712	San Antonio Palopó	9	San Antonio Palopo	3	Marzo	2023-03-17T00:00:00	2024-11-08T09:00:00	8	Radiación solar	365
159877	7	Sololá	712	San Antonio Palopó	9	San Antonio Palopo	3	Marzo	2023-03-17T00:00:00	2024-11-08T10:00:00	2	Temperatura media	19.8
159878	7	Sololá	712	San Antonio Palopó	9	San Antonio Palopo	3	Marzo	2023-03-17T00:00:00	2024-11-08T10:00:00	4	Temperatura máxima	20.1
159879	7	Sololá	712	San Antonio Palopó	9	San Antonio Palopo	3	Marzo	2023-03-17T00:00:00	2024-11-08T10:00:00	3	Temperatura mínima	19
159880	7	Sololá	712	San Antonio Palopó	9	San Antonio Palopo	3	Marzo	2023-03-17T00:00:00	2024-11-08T10:00:00	5	Humedad	75
159881	7	Sololá	712	San Antonio Palopó	9	San Antonio Palopo	3	Marzo	2023-03-17T00:00:00	2024-11-08T10:00:00	6	Velocidad del viento	3.2
159882	7	Sololá	712	San Antonio Palopó	9	San Antonio Palopo	3	Marzo	2023-03-17T00:00:00	2024-11-08T10:00:00	7	Dirección del viento	3.22
159883	7	Sololá	712	San Antonio Palopó	9	San Antonio Palopo	3	Marzo	2023-03-17T00:00:00	2024-11-08T10:00:00	1	Precipitación	0
159884	7	Sololá	712	San Antonio Palopó	9	San Antonio Palopo	3	Marzo	2023-03-17T00:00:00	2024-11-08T10:00:00	8	Radiación solar	646
159885	7	Sololá	712	San Antonio Palopó	9	San Antonio Palopo	3	Marzo	2023-03-17T00:00:00	2024-11-08T11:00:00	2	Temperatura media	21.1
159886	7	Sololá	712	San Antonio Palopó	9	San Antonio Palopo	3	Marzo	2023-03-17T00:00:00	2024-11-08T11:00:00	4	Temperatura máxima	21.1
159887	7	Sololá	712	San Antonio Palopó	9	San Antonio Palopo	3	Marzo	2023-03-17T00:00:00	2024-11-08T11:00:00	3	Temperatura mínima	19.7
159888	7	Sololá	712	San Antonio Palopó	9	San Antonio Palopo	3	Marzo	2023-03-17T00:00:00	2024-11-08T11:00:00	5	Humedad	74
159889	7	Sololá	712	San Antonio Palopó	9	San Antonio Palopo	3	Marzo	2023-03-17T00:00:00	2024-11-08T11:00:00	6	Velocidad del viento	3.2
159890	7	Sololá	712	San Antonio Palopó	9	San Antonio Palopo	3	Marzo	2023-03-17T00:00:00	2024-11-08T11:00:00	7	Dirección del viento	3.22
159891	7	Sololá	712	San Antonio Palopó	9	San Antonio Palopo	3	Marzo	2023-03-17T00:00:00	2024-11-08T11:00:00	1	Precipitación	0
159892	7	Sololá	712	San Antonio Palopó	9	San Antonio Palopo	3	Marzo	2023-03-17T00:00:00	2024-11-08T11:00:00	8	Radiación solar	812
159893	7	Sololá	712	San Antonio Palopó	9	San Antonio Palopo	3	Marzo	2023-03-17T00:00:00	2024-11-08T12:00:00	2	Temperatura media	22.7
159894	7	Sololá	712	San Antonio Palopó	9	San Antonio Palopo	3	Marzo	2023-03-17T00:00:00	2024-11-08T12:00:00	4	Temperatura máxima	22.7
159895	7	Sololá	712	San Antonio Palopó	9	San Antonio Palopo	3	Marzo	2023-03-17T00:00:00	2024-11-08T12:00:00	3	Temperatura mínima	21.1
159896	7	Sololá	712	San Antonio Palopó	9	San Antonio Palopo	3	Marzo	2023-03-17T00:00:00	2024-11-08T12:00:00	5	Humedad	72
159897	7	Sololá	712	San Antonio Palopó	9	San Antonio Palopo	3	Marzo	2023-03-17T00:00:00	2024-11-08T12:00:00	6	Velocidad del viento	4.8
159898	7	Sololá	712	San Antonio Palopó	9	San Antonio Palopo	3	Marzo	2023-03-17T00:00:00	2024-11-08T12:00:00	7	Dirección del viento	4.83
159899	7	Sololá	712	San Antonio Palopó	9	San Antonio Palopo	3	Marzo	2023-03-17T00:00:00	2024-11-08T12:00:00	1	Precipitación	0
159900	7	Sololá	712	San Antonio Palopó	9	San Antonio Palopo	3	Marzo	2023-03-17T00:00:00	2024-11-08T12:00:00	8	Radiación solar	912
159901	7	Sololá	712	San Antonio Palopó	9	San Antonio Palopo	3	Marzo	2023-03-17T00:00:00	2024-11-08T13:00:00	2	Temperatura media	22.4
159902	7	Sololá	712	San Antonio Palopó	9	San Antonio Palopo	3	Marzo	2023-03-17T00:00:00	2024-11-08T13:00:00	4	Temperatura máxima	23.1
159903	7	Sololá	712	San Antonio Palopó	9	San Antonio Palopo	3	Marzo	2023-03-17T00:00:00	2024-11-08T13:00:00	3	Temperatura mínima	22.4
159904	7	Sololá	712	San Antonio Palopó	9	San Antonio Palopo	3	Marzo	2023-03-17T00:00:00	2024-11-08T13:00:00	5	Humedad	70
159905	7	Sololá	712	San Antonio Palopó	9	San Antonio Palopo	3	Marzo	2023-03-17T00:00:00	2024-11-08T13:00:00	6	Velocidad del viento	9.7
159906	7	Sololá	712	San Antonio Palopó	9	San Antonio Palopo	3	Marzo	2023-03-17T00:00:00	2024-11-08T13:00:00	7	Dirección del viento	9.66
159907	7	Sololá	712	San Antonio Palopó	9	San Antonio Palopo	3	Marzo	2023-03-17T00:00:00	2024-11-08T13:00:00	1	Precipitación	0
159908	7	Sololá	712	San Antonio Palopó	9	San Antonio Palopo	3	Marzo	2023-03-17T00:00:00	2024-11-08T13:00:00	8	Radiación solar	927
159909	7	Sololá	712	San Antonio Palopó	9	San Antonio Palopo	3	Marzo	2023-03-17T00:00:00	2024-11-08T14:00:00	2	Temperatura media	21.8
159910	7	Sololá	712	San Antonio Palopó	9	San Antonio Palopo	3	Marzo	2023-03-17T00:00:00	2024-11-08T14:00:00	4	Temperatura máxima	23.1
159911	7	Sololá	712	San Antonio Palopó	9	San Antonio Palopo	3	Marzo	2023-03-17T00:00:00	2024-11-08T14:00:00	3	Temperatura mínima	21.8
159912	7	Sololá	712	San Antonio Palopó	9	San Antonio Palopo	3	Marzo	2023-03-17T00:00:00	2024-11-08T14:00:00	5	Humedad	75
159913	7	Sololá	712	San Antonio Palopó	9	San Antonio Palopo	3	Marzo	2023-03-17T00:00:00	2024-11-08T14:00:00	6	Velocidad del viento	11.3
159914	7	Sololá	712	San Antonio Palopó	9	San Antonio Palopo	3	Marzo	2023-03-17T00:00:00	2024-11-08T14:00:00	7	Dirección del viento	11.27
159915	7	Sololá	712	San Antonio Palopó	9	San Antonio Palopo	3	Marzo	2023-03-17T00:00:00	2024-11-08T14:00:00	1	Precipitación	0
159916	7	Sololá	712	San Antonio Palopó	9	San Antonio Palopo	3	Marzo	2023-03-17T00:00:00	2024-11-08T14:00:00	8	Radiación solar	837
159917	7	Sololá	712	San Antonio Palopó	9	San Antonio Palopo	3	Marzo	2023-03-17T00:00:00	2024-11-08T15:00:00	2	Temperatura media	20.8
159918	7	Sololá	712	San Antonio Palopó	9	San Antonio Palopo	3	Marzo	2023-03-17T00:00:00	2024-11-08T15:00:00	4	Temperatura máxima	21.8
159919	7	Sololá	712	San Antonio Palopó	9	San Antonio Palopo	3	Marzo	2023-03-17T00:00:00	2024-11-08T15:00:00	3	Temperatura mínima	20.5
159920	7	Sololá	712	San Antonio Palopó	9	San Antonio Palopo	3	Marzo	2023-03-17T00:00:00	2024-11-08T15:00:00	5	Humedad	77
159921	7	Sololá	712	San Antonio Palopó	9	San Antonio Palopo	3	Marzo	2023-03-17T00:00:00	2024-11-08T15:00:00	6	Velocidad del viento	8
159922	7	Sololá	712	San Antonio Palopó	9	San Antonio Palopo	3	Marzo	2023-03-17T00:00:00	2024-11-08T15:00:00	7	Dirección del viento	8.05
159923	7	Sololá	712	San Antonio Palopó	9	San Antonio Palopo	3	Marzo	2023-03-17T00:00:00	2024-11-08T15:00:00	1	Precipitación	0
159924	7	Sololá	712	San Antonio Palopó	9	San Antonio Palopo	3	Marzo	2023-03-17T00:00:00	2024-11-08T15:00:00	8	Radiación solar	208
159925	7	Sololá	712	San Antonio Palopó	9	San Antonio Palopo	3	Marzo	2023-03-17T00:00:00	2024-11-08T16:00:00	2	Temperatura media	19.6
159926	7	Sololá	712	San Antonio Palopó	9	San Antonio Palopo	3	Marzo	2023-03-17T00:00:00	2024-11-08T16:00:00	4	Temperatura máxima	20.8
159927	7	Sololá	712	San Antonio Palopó	9	San Antonio Palopo	3	Marzo	2023-03-17T00:00:00	2024-11-08T16:00:00	3	Temperatura mínima	18.7
159928	7	Sololá	712	San Antonio Palopó	9	San Antonio Palopo	3	Marzo	2023-03-17T00:00:00	2024-11-08T16:00:00	5	Humedad	76
159929	7	Sololá	712	San Antonio Palopó	9	San Antonio Palopo	3	Marzo	2023-03-17T00:00:00	2024-11-08T16:00:00	6	Velocidad del viento	8
159930	7	Sololá	712	San Antonio Palopó	9	San Antonio Palopo	3	Marzo	2023-03-17T00:00:00	2024-11-08T16:00:00	7	Dirección del viento	8.05
159931	7	Sololá	712	San Antonio Palopó	9	San Antonio Palopo	3	Marzo	2023-03-17T00:00:00	2024-11-08T16:00:00	1	Precipitación	0.2
159932	7	Sololá	712	San Antonio Palopó	9	San Antonio Palopo	3	Marzo	2023-03-17T00:00:00	2024-11-08T16:00:00	8	Radiación solar	122
159933	7	Sololá	712	San Antonio Palopó	9	San Antonio Palopo	3	Marzo	2023-03-17T00:00:00	2024-11-08T17:00:00	2	Temperatura media	19.3
159934	7	Sololá	712	San Antonio Palopó	9	San Antonio Palopo	3	Marzo	2023-03-17T00:00:00	2024-11-08T17:00:00	4	Temperatura máxima	19.9
159935	7	Sololá	712	San Antonio Palopó	9	San Antonio Palopo	3	Marzo	2023-03-17T00:00:00	2024-11-08T17:00:00	3	Temperatura mínima	19.3
159936	7	Sololá	712	San Antonio Palopó	9	San Antonio Palopo	3	Marzo	2023-03-17T00:00:00	2024-11-08T17:00:00	5	Humedad	80
159937	7	Sololá	712	San Antonio Palopó	9	San Antonio Palopo	3	Marzo	2023-03-17T00:00:00	2024-11-08T17:00:00	6	Velocidad del viento	4.8
159938	7	Sololá	712	San Antonio Palopó	9	San Antonio Palopo	3	Marzo	2023-03-17T00:00:00	2024-11-08T17:00:00	7	Dirección del viento	4.83
159939	7	Sololá	712	San Antonio Palopó	9	San Antonio Palopo	3	Marzo	2023-03-17T00:00:00	2024-11-08T17:00:00	1	Precipitación	0
159940	7	Sololá	712	San Antonio Palopó	9	San Antonio Palopo	3	Marzo	2023-03-17T00:00:00	2024-11-08T17:00:00	8	Radiación solar	43
159941	7	Sololá	712	San Antonio Palopó	9	San Antonio Palopo	3	Marzo	2023-03-17T00:00:00	2024-11-08T18:00:00	2	Temperatura media	18.6
159942	7	Sololá	712	San Antonio Palopó	9	San Antonio Palopo	3	Marzo	2023-03-17T00:00:00	2024-11-08T18:00:00	4	Temperatura máxima	19.4
159943	7	Sololá	712	San Antonio Palopó	9	San Antonio Palopo	3	Marzo	2023-03-17T00:00:00	2024-11-08T18:00:00	3	Temperatura mínima	18.6
159944	7	Sololá	712	San Antonio Palopó	9	San Antonio Palopo	3	Marzo	2023-03-17T00:00:00	2024-11-08T18:00:00	5	Humedad	85
159945	7	Sololá	712	San Antonio Palopó	9	San Antonio Palopo	3	Marzo	2023-03-17T00:00:00	2024-11-08T18:00:00	6	Velocidad del viento	4.8
159946	7	Sololá	712	San Antonio Palopó	9	San Antonio Palopo	3	Marzo	2023-03-17T00:00:00	2024-11-08T18:00:00	7	Dirección del viento	4.83
159947	7	Sololá	712	San Antonio Palopó	9	San Antonio Palopo	3	Marzo	2023-03-17T00:00:00	2024-11-08T18:00:00	1	Precipitación	0
159948	7	Sololá	712	San Antonio Palopó	9	San Antonio Palopo	3	Marzo	2023-03-17T00:00:00	2024-11-08T18:00:00	8	Radiación solar	37
159949	7	Sololá	712	San Antonio Palopó	9	San Antonio Palopo	3	Marzo	2023-03-17T00:00:00	2024-11-08T19:00:00	2	Temperatura media	18.4
159950	7	Sololá	712	San Antonio Palopó	9	San Antonio Palopo	3	Marzo	2023-03-17T00:00:00	2024-11-08T19:00:00	4	Temperatura máxima	18.8
159951	7	Sololá	712	San Antonio Palopó	9	San Antonio Palopo	3	Marzo	2023-03-17T00:00:00	2024-11-08T19:00:00	3	Temperatura mínima	18.4
159952	7	Sololá	712	San Antonio Palopó	9	San Antonio Palopo	3	Marzo	2023-03-17T00:00:00	2024-11-08T19:00:00	5	Humedad	86
159953	7	Sololá	712	San Antonio Palopó	9	San Antonio Palopo	3	Marzo	2023-03-17T00:00:00	2024-11-08T19:00:00	6	Velocidad del viento	4.8
159954	7	Sololá	712	San Antonio Palopó	9	San Antonio Palopo	3	Marzo	2023-03-17T00:00:00	2024-11-08T19:00:00	7	Dirección del viento	4.83
159955	7	Sololá	712	San Antonio Palopó	9	San Antonio Palopo	3	Marzo	2023-03-17T00:00:00	2024-11-08T19:00:00	1	Precipitación	0
159956	7	Sololá	712	San Antonio Palopó	9	San Antonio Palopo	3	Marzo	2023-03-17T00:00:00	2024-11-08T19:00:00	8	Radiación solar	0
159957	7	Sololá	712	San Antonio Palopó	9	San Antonio Palopo	3	Marzo	2023-03-17T00:00:00	2024-11-08T20:00:00	2	Temperatura media	18.2
159958	7	Sololá	712	San Antonio Palopó	9	San Antonio Palopo	3	Marzo	2023-03-17T00:00:00	2024-11-08T20:00:00	4	Temperatura máxima	18.6
159959	7	Sololá	712	San Antonio Palopó	9	San Antonio Palopo	3	Marzo	2023-03-17T00:00:00	2024-11-08T20:00:00	3	Temperatura mínima	18.2
159960	7	Sololá	712	San Antonio Palopó	9	San Antonio Palopo	3	Marzo	2023-03-17T00:00:00	2024-11-08T20:00:00	5	Humedad	86
159961	7	Sololá	712	San Antonio Palopó	9	San Antonio Palopo	3	Marzo	2023-03-17T00:00:00	2024-11-08T20:00:00	6	Velocidad del viento	3.2
159962	7	Sololá	712	San Antonio Palopó	9	San Antonio Palopo	3	Marzo	2023-03-17T00:00:00	2024-11-08T20:00:00	7	Dirección del viento	3.22
159963	7	Sololá	712	San Antonio Palopó	9	San Antonio Palopo	3	Marzo	2023-03-17T00:00:00	2024-11-08T20:00:00	1	Precipitación	0
159964	7	Sololá	712	San Antonio Palopó	9	San Antonio Palopo	3	Marzo	2023-03-17T00:00:00	2024-11-08T20:00:00	8	Radiación solar	0
159965	7	Sololá	712	San Antonio Palopó	9	San Antonio Palopo	3	Marzo	2023-03-17T00:00:00	2024-11-08T21:00:00	2	Temperatura media	18.2
159966	7	Sololá	712	San Antonio Palopó	9	San Antonio Palopo	3	Marzo	2023-03-17T00:00:00	2024-11-08T21:00:00	4	Temperatura máxima	18.2
159967	7	Sololá	712	San Antonio Palopó	9	San Antonio Palopo	3	Marzo	2023-03-17T00:00:00	2024-11-08T21:00:00	3	Temperatura mínima	18
159968	7	Sololá	712	San Antonio Palopó	9	San Antonio Palopo	3	Marzo	2023-03-17T00:00:00	2024-11-08T21:00:00	5	Humedad	85
159969	7	Sololá	712	San Antonio Palopó	9	San Antonio Palopo	3	Marzo	2023-03-17T00:00:00	2024-11-08T21:00:00	6	Velocidad del viento	3.2
159970	7	Sololá	712	San Antonio Palopó	9	San Antonio Palopo	3	Marzo	2023-03-17T00:00:00	2024-11-08T21:00:00	7	Dirección del viento	3.22
159971	7	Sololá	712	San Antonio Palopó	9	San Antonio Palopo	3	Marzo	2023-03-17T00:00:00	2024-11-08T21:00:00	1	Precipitación	0
159972	7	Sololá	712	San Antonio Palopó	9	San Antonio Palopo	3	Marzo	2023-03-17T00:00:00	2024-11-08T21:00:00	8	Radiación solar	0
159973	7	Sololá	712	San Antonio Palopó	9	San Antonio Palopo	3	Marzo	2023-03-17T00:00:00	2024-11-08T22:00:00	2	Temperatura media	17.6
159974	7	Sololá	712	San Antonio Palopó	9	San Antonio Palopo	3	Marzo	2023-03-17T00:00:00	2024-11-08T22:00:00	4	Temperatura máxima	18.2
159975	7	Sololá	712	San Antonio Palopó	9	San Antonio Palopo	3	Marzo	2023-03-17T00:00:00	2024-11-08T22:00:00	3	Temperatura mínima	17.4
159976	7	Sololá	712	San Antonio Palopó	9	San Antonio Palopo	3	Marzo	2023-03-17T00:00:00	2024-11-08T22:00:00	5	Humedad	87
159977	7	Sololá	712	San Antonio Palopó	9	San Antonio Palopo	3	Marzo	2023-03-17T00:00:00	2024-11-08T22:00:00	6	Velocidad del viento	1.6
159978	7	Sololá	712	San Antonio Palopó	9	San Antonio Palopo	3	Marzo	2023-03-17T00:00:00	2024-11-08T22:00:00	7	Dirección del viento	1.61
159979	7	Sololá	712	San Antonio Palopó	9	San Antonio Palopo	3	Marzo	2023-03-17T00:00:00	2024-11-08T22:00:00	1	Precipitación	0
159980	7	Sololá	712	San Antonio Palopó	9	San Antonio Palopo	3	Marzo	2023-03-17T00:00:00	2024-11-08T22:00:00	8	Radiación solar	0
159981	7	Sololá	712	San Antonio Palopó	9	San Antonio Palopo	3	Marzo	2023-03-17T00:00:00	2024-11-08T23:00:00	2	Temperatura media	17
159982	7	Sololá	712	San Antonio Palopó	9	San Antonio Palopo	3	Marzo	2023-03-17T00:00:00	2024-11-08T23:00:00	4	Temperatura máxima	17.7
159983	7	Sololá	712	San Antonio Palopó	9	San Antonio Palopo	3	Marzo	2023-03-17T00:00:00	2024-11-08T23:00:00	3	Temperatura mínima	17
159984	7	Sololá	712	San Antonio Palopó	9	San Antonio Palopo	3	Marzo	2023-03-17T00:00:00	2024-11-08T23:00:00	5	Humedad	86
159985	7	Sololá	712	San Antonio Palopó	9	San Antonio Palopo	3	Marzo	2023-03-17T00:00:00	2024-11-08T23:00:00	6	Velocidad del viento	1.6
159986	7	Sololá	712	San Antonio Palopó	9	San Antonio Palopo	3	Marzo	2023-03-17T00:00:00	2024-11-08T23:00:00	7	Dirección del viento	1.61
159987	7	Sololá	712	San Antonio Palopó	9	San Antonio Palopo	3	Marzo	2023-03-17T00:00:00	2024-11-08T23:00:00	1	Precipitación	0
159988	7	Sololá	712	San Antonio Palopó	9	San Antonio Palopo	3	Marzo	2023-03-17T00:00:00	2024-11-08T23:00:00	8	Radiación solar	0
159989	7	Sololá	712	San Antonio Palopó	9	San Antonio Palopo	3	Marzo	2023-03-18T00:00:00	2024-11-08T00:00:00	2	Temperatura media	17
159990	7	Sololá	712	San Antonio Palopó	9	San Antonio Palopo	3	Marzo	2023-03-18T00:00:00	2024-11-08T00:00:00	4	Temperatura máxima	17.1
159991	7	Sololá	712	San Antonio Palopó	9	San Antonio Palopo	3	Marzo	2023-03-18T00:00:00	2024-11-08T00:00:00	3	Temperatura mínima	16.8
159992	7	Sololá	712	San Antonio Palopó	9	San Antonio Palopo	3	Marzo	2023-03-18T00:00:00	2024-11-08T00:00:00	5	Humedad	84
159993	7	Sololá	712	San Antonio Palopó	9	San Antonio Palopo	3	Marzo	2023-03-18T00:00:00	2024-11-08T00:00:00	6	Velocidad del viento	3.2
159994	7	Sololá	712	San Antonio Palopó	9	San Antonio Palopo	3	Marzo	2023-03-18T00:00:00	2024-11-08T00:00:00	7	Dirección del viento	3.22
159995	7	Sololá	712	San Antonio Palopó	9	San Antonio Palopo	3	Marzo	2023-03-18T00:00:00	2024-11-08T00:00:00	1	Precipitación	0
159996	7	Sololá	712	San Antonio Palopó	9	San Antonio Palopo	3	Marzo	2023-03-18T00:00:00	2024-11-08T00:00:00	8	Radiación solar	0
159997	7	Sololá	712	San Antonio Palopó	9	San Antonio Palopo	3	Marzo	2023-03-18T00:00:00	2024-11-08T01:00:00	2	Temperatura media	17.5
159998	7	Sololá	712	San Antonio Palopó	9	San Antonio Palopo	3	Marzo	2023-03-18T00:00:00	2024-11-08T01:00:00	4	Temperatura máxima	17.6
159999	7	Sololá	712	San Antonio Palopó	9	San Antonio Palopo	3	Marzo	2023-03-18T00:00:00	2024-11-08T01:00:00	3	Temperatura mínima	17
160000	7	Sololá	712	San Antonio Palopó	9	San Antonio Palopo	3	Marzo	2023-03-18T00:00:00	2024-11-08T01:00:00	5	Humedad	86
160001	7	Sololá	712	San Antonio Palopó	9	San Antonio Palopo	3	Marzo	2023-03-18T00:00:00	2024-11-08T01:00:00	6	Velocidad del viento	0
160002	7	Sololá	712	San Antonio Palopó	9	San Antonio Palopo	3	Marzo	2023-03-18T00:00:00	2024-11-08T01:00:00	7	Dirección del viento	0
160003	7	Sololá	712	San Antonio Palopó	9	San Antonio Palopo	3	Marzo	2023-03-18T00:00:00	2024-11-08T01:00:00	1	Precipitación	0
160004	7	Sololá	712	San Antonio Palopó	9	San Antonio Palopo	3	Marzo	2023-03-18T00:00:00	2024-11-08T01:00:00	8	Radiación solar	0
160005	7	Sololá	712	San Antonio Palopó	9	San Antonio Palopo	3	Marzo	2023-03-18T00:00:00	2024-11-08T02:00:00	2	Temperatura media	17.7
160006	7	Sololá	712	San Antonio Palopó	9	San Antonio Palopo	3	Marzo	2023-03-18T00:00:00	2024-11-08T02:00:00	4	Temperatura máxima	17.7
160007	7	Sololá	712	San Antonio Palopó	9	San Antonio Palopo	3	Marzo	2023-03-18T00:00:00	2024-11-08T02:00:00	3	Temperatura mínima	17.4
160008	7	Sololá	712	San Antonio Palopó	9	San Antonio Palopo	3	Marzo	2023-03-18T00:00:00	2024-11-08T02:00:00	5	Humedad	86
160009	7	Sololá	712	San Antonio Palopó	9	San Antonio Palopo	3	Marzo	2023-03-18T00:00:00	2024-11-08T02:00:00	6	Velocidad del viento	1.6
160010	7	Sololá	712	San Antonio Palopó	9	San Antonio Palopo	3	Marzo	2023-03-18T00:00:00	2024-11-08T02:00:00	7	Dirección del viento	1.61
160011	7	Sololá	712	San Antonio Palopó	9	San Antonio Palopo	3	Marzo	2023-03-18T00:00:00	2024-11-08T02:00:00	1	Precipitación	0
160012	7	Sololá	712	San Antonio Palopó	9	San Antonio Palopo	3	Marzo	2023-03-18T00:00:00	2024-11-08T02:00:00	8	Radiación solar	0
160013	7	Sololá	712	San Antonio Palopó	9	San Antonio Palopo	3	Marzo	2023-03-18T00:00:00	2024-11-08T03:00:00	2	Temperatura media	17.7
160014	7	Sololá	712	San Antonio Palopó	9	San Antonio Palopo	3	Marzo	2023-03-18T00:00:00	2024-11-08T03:00:00	4	Temperatura máxima	17.8
160015	7	Sololá	712	San Antonio Palopó	9	San Antonio Palopo	3	Marzo	2023-03-18T00:00:00	2024-11-08T03:00:00	3	Temperatura mínima	17.7
160016	7	Sololá	712	San Antonio Palopó	9	San Antonio Palopo	3	Marzo	2023-03-18T00:00:00	2024-11-08T03:00:00	5	Humedad	81
160017	7	Sololá	712	San Antonio Palopó	9	San Antonio Palopo	3	Marzo	2023-03-18T00:00:00	2024-11-08T03:00:00	6	Velocidad del viento	4.8
160018	7	Sololá	712	San Antonio Palopó	9	San Antonio Palopo	3	Marzo	2023-03-18T00:00:00	2024-11-08T03:00:00	7	Dirección del viento	4.83
160019	7	Sololá	712	San Antonio Palopó	9	San Antonio Palopo	3	Marzo	2023-03-18T00:00:00	2024-11-08T03:00:00	1	Precipitación	0
160020	7	Sololá	712	San Antonio Palopó	9	San Antonio Palopo	3	Marzo	2023-03-18T00:00:00	2024-11-08T03:00:00	8	Radiación solar	0
160021	7	Sololá	712	San Antonio Palopó	9	San Antonio Palopo	3	Marzo	2023-03-18T00:00:00	2024-11-08T04:00:00	2	Temperatura media	16.8
160022	7	Sololá	712	San Antonio Palopó	9	San Antonio Palopo	3	Marzo	2023-03-18T00:00:00	2024-11-08T04:00:00	4	Temperatura máxima	17.7
160023	7	Sololá	712	San Antonio Palopó	9	San Antonio Palopo	3	Marzo	2023-03-18T00:00:00	2024-11-08T04:00:00	3	Temperatura mínima	16.7
160024	7	Sololá	712	San Antonio Palopó	9	San Antonio Palopo	3	Marzo	2023-03-18T00:00:00	2024-11-08T04:00:00	5	Humedad	83
160025	7	Sololá	712	San Antonio Palopó	9	San Antonio Palopo	3	Marzo	2023-03-18T00:00:00	2024-11-08T04:00:00	6	Velocidad del viento	1.6
160026	7	Sololá	712	San Antonio Palopó	9	San Antonio Palopo	3	Marzo	2023-03-18T00:00:00	2024-11-08T04:00:00	7	Dirección del viento	1.61
160027	7	Sololá	712	San Antonio Palopó	9	San Antonio Palopo	3	Marzo	2023-03-18T00:00:00	2024-11-08T04:00:00	1	Precipitación	0
160028	7	Sololá	712	San Antonio Palopó	9	San Antonio Palopo	3	Marzo	2023-03-18T00:00:00	2024-11-08T04:00:00	8	Radiación solar	0
160029	7	Sololá	712	San Antonio Palopó	9	San Antonio Palopo	3	Marzo	2023-03-18T00:00:00	2024-11-08T05:00:00	2	Temperatura media	16.2
160030	7	Sololá	712	San Antonio Palopó	9	San Antonio Palopo	3	Marzo	2023-03-18T00:00:00	2024-11-08T05:00:00	4	Temperatura máxima	16.8
160031	7	Sololá	712	San Antonio Palopó	9	San Antonio Palopo	3	Marzo	2023-03-18T00:00:00	2024-11-08T05:00:00	3	Temperatura mínima	16.2
160032	7	Sololá	712	San Antonio Palopó	9	San Antonio Palopo	3	Marzo	2023-03-18T00:00:00	2024-11-08T05:00:00	5	Humedad	80
160033	7	Sololá	712	San Antonio Palopó	9	San Antonio Palopo	3	Marzo	2023-03-18T00:00:00	2024-11-08T05:00:00	6	Velocidad del viento	4.8
160034	7	Sololá	712	San Antonio Palopó	9	San Antonio Palopo	3	Marzo	2023-03-18T00:00:00	2024-11-08T05:00:00	7	Dirección del viento	4.83
160035	7	Sololá	712	San Antonio Palopó	9	San Antonio Palopo	3	Marzo	2023-03-18T00:00:00	2024-11-08T05:00:00	1	Precipitación	0
160036	7	Sololá	712	San Antonio Palopó	9	San Antonio Palopo	3	Marzo	2023-03-18T00:00:00	2024-11-08T05:00:00	8	Radiación solar	0
160037	7	Sololá	712	San Antonio Palopó	9	San Antonio Palopo	3	Marzo	2023-03-18T00:00:00	2024-11-08T06:00:00	2	Temperatura media	16.1
160038	7	Sololá	712	San Antonio Palopó	9	San Antonio Palopo	3	Marzo	2023-03-18T00:00:00	2024-11-08T06:00:00	4	Temperatura máxima	16.3
160039	7	Sololá	712	San Antonio Palopó	9	San Antonio Palopo	3	Marzo	2023-03-18T00:00:00	2024-11-08T06:00:00	3	Temperatura mínima	15.9
160040	7	Sololá	712	San Antonio Palopó	9	San Antonio Palopo	3	Marzo	2023-03-18T00:00:00	2024-11-08T06:00:00	5	Humedad	78
160041	7	Sololá	712	San Antonio Palopó	9	San Antonio Palopo	3	Marzo	2023-03-18T00:00:00	2024-11-08T06:00:00	6	Velocidad del viento	6.4
160042	7	Sololá	712	San Antonio Palopó	9	San Antonio Palopo	3	Marzo	2023-03-18T00:00:00	2024-11-08T06:00:00	7	Dirección del viento	6.44
160043	7	Sololá	712	San Antonio Palopó	9	San Antonio Palopo	3	Marzo	2023-03-18T00:00:00	2024-11-08T06:00:00	1	Precipitación	0
160044	7	Sololá	712	San Antonio Palopó	9	San Antonio Palopo	3	Marzo	2023-03-18T00:00:00	2024-11-08T06:00:00	8	Radiación solar	0
160045	7	Sololá	712	San Antonio Palopó	9	San Antonio Palopo	3	Marzo	2023-03-18T00:00:00	2024-11-08T07:00:00	2	Temperatura media	15.6
160046	7	Sololá	712	San Antonio Palopó	9	San Antonio Palopo	3	Marzo	2023-03-18T00:00:00	2024-11-08T07:00:00	4	Temperatura máxima	16.1
160047	7	Sololá	712	San Antonio Palopó	9	San Antonio Palopo	3	Marzo	2023-03-18T00:00:00	2024-11-08T07:00:00	3	Temperatura mínima	15.6
160048	7	Sololá	712	San Antonio Palopó	9	San Antonio Palopo	3	Marzo	2023-03-18T00:00:00	2024-11-08T07:00:00	5	Humedad	74
160049	7	Sololá	712	San Antonio Palopó	9	San Antonio Palopo	3	Marzo	2023-03-18T00:00:00	2024-11-08T07:00:00	6	Velocidad del viento	6.4
160050	7	Sololá	712	San Antonio Palopó	9	San Antonio Palopo	3	Marzo	2023-03-18T00:00:00	2024-11-08T07:00:00	7	Dirección del viento	6.44
160051	7	Sololá	712	San Antonio Palopó	9	San Antonio Palopo	3	Marzo	2023-03-18T00:00:00	2024-11-08T07:00:00	1	Precipitación	0
160052	7	Sololá	712	San Antonio Palopó	9	San Antonio Palopo	3	Marzo	2023-03-18T00:00:00	2024-11-08T07:00:00	8	Radiación solar	11
160053	7	Sololá	712	San Antonio Palopó	9	San Antonio Palopo	3	Marzo	2023-03-18T00:00:00	2024-11-08T08:00:00	2	Temperatura media	16.1
160054	7	Sololá	712	San Antonio Palopó	9	San Antonio Palopo	3	Marzo	2023-03-18T00:00:00	2024-11-08T08:00:00	4	Temperatura máxima	16.3
160055	7	Sololá	712	San Antonio Palopó	9	San Antonio Palopo	3	Marzo	2023-03-18T00:00:00	2024-11-08T08:00:00	3	Temperatura mínima	15.6
160056	7	Sololá	712	San Antonio Palopó	9	San Antonio Palopo	3	Marzo	2023-03-18T00:00:00	2024-11-08T08:00:00	5	Humedad	78
160057	7	Sololá	712	San Antonio Palopó	9	San Antonio Palopo	3	Marzo	2023-03-18T00:00:00	2024-11-08T08:00:00	6	Velocidad del viento	3.2
160058	7	Sololá	712	San Antonio Palopó	9	San Antonio Palopo	3	Marzo	2023-03-18T00:00:00	2024-11-08T08:00:00	7	Dirección del viento	3.22
160059	7	Sololá	712	San Antonio Palopó	9	San Antonio Palopo	3	Marzo	2023-03-18T00:00:00	2024-11-08T08:00:00	1	Precipitación	0
160060	7	Sololá	712	San Antonio Palopó	9	San Antonio Palopo	3	Marzo	2023-03-18T00:00:00	2024-11-08T08:00:00	8	Radiación solar	58
160061	7	Sololá	712	San Antonio Palopó	9	San Antonio Palopo	3	Marzo	2023-03-18T00:00:00	2024-11-08T09:00:00	2	Temperatura media	18.9
160062	7	Sololá	712	San Antonio Palopó	9	San Antonio Palopo	3	Marzo	2023-03-18T00:00:00	2024-11-08T09:00:00	4	Temperatura máxima	19.4
160063	7	Sololá	712	San Antonio Palopó	9	San Antonio Palopo	3	Marzo	2023-03-18T00:00:00	2024-11-08T09:00:00	3	Temperatura mínima	16.1
160064	7	Sololá	712	San Antonio Palopó	9	San Antonio Palopo	3	Marzo	2023-03-18T00:00:00	2024-11-08T09:00:00	5	Humedad	74
160065	7	Sololá	712	San Antonio Palopó	9	San Antonio Palopo	3	Marzo	2023-03-18T00:00:00	2024-11-08T09:00:00	6	Velocidad del viento	1.6
160066	7	Sololá	712	San Antonio Palopó	9	San Antonio Palopo	3	Marzo	2023-03-18T00:00:00	2024-11-08T09:00:00	7	Dirección del viento	1.61
160067	7	Sololá	712	San Antonio Palopó	9	San Antonio Palopo	3	Marzo	2023-03-18T00:00:00	2024-11-08T09:00:00	1	Precipitación	0
160068	7	Sololá	712	San Antonio Palopó	9	San Antonio Palopo	3	Marzo	2023-03-18T00:00:00	2024-11-08T09:00:00	8	Radiación solar	384
160069	7	Sololá	712	San Antonio Palopó	9	San Antonio Palopo	3	Marzo	2023-03-18T00:00:00	2024-11-08T10:00:00	2	Temperatura media	19.8
160070	7	Sololá	712	San Antonio Palopó	9	San Antonio Palopo	3	Marzo	2023-03-18T00:00:00	2024-11-08T10:00:00	4	Temperatura máxima	19.8
160071	7	Sololá	712	San Antonio Palopó	9	San Antonio Palopo	3	Marzo	2023-03-18T00:00:00	2024-11-08T10:00:00	3	Temperatura mínima	18.6
160072	7	Sololá	712	San Antonio Palopó	9	San Antonio Palopo	3	Marzo	2023-03-18T00:00:00	2024-11-08T10:00:00	5	Humedad	70
160073	7	Sololá	712	San Antonio Palopó	9	San Antonio Palopo	3	Marzo	2023-03-18T00:00:00	2024-11-08T10:00:00	6	Velocidad del viento	3.2
160074	7	Sololá	712	San Antonio Palopó	9	San Antonio Palopo	3	Marzo	2023-03-18T00:00:00	2024-11-08T10:00:00	7	Dirección del viento	3.22
160075	7	Sololá	712	San Antonio Palopó	9	San Antonio Palopo	3	Marzo	2023-03-18T00:00:00	2024-11-08T10:00:00	1	Precipitación	0
160076	7	Sololá	712	San Antonio Palopó	9	San Antonio Palopo	3	Marzo	2023-03-18T00:00:00	2024-11-08T10:00:00	8	Radiación solar	629
160077	7	Sololá	712	San Antonio Palopó	9	San Antonio Palopo	3	Marzo	2023-03-18T00:00:00	2024-11-08T11:00:00	2	Temperatura media	20.4
160078	7	Sololá	712	San Antonio Palopó	9	San Antonio Palopo	3	Marzo	2023-03-18T00:00:00	2024-11-08T11:00:00	4	Temperatura máxima	20.6
160079	7	Sololá	712	San Antonio Palopó	9	San Antonio Palopo	3	Marzo	2023-03-18T00:00:00	2024-11-08T11:00:00	3	Temperatura mínima	19.8
160080	7	Sololá	712	San Antonio Palopó	9	San Antonio Palopo	3	Marzo	2023-03-18T00:00:00	2024-11-08T11:00:00	5	Humedad	74
160081	7	Sololá	712	San Antonio Palopó	9	San Antonio Palopo	3	Marzo	2023-03-18T00:00:00	2024-11-08T11:00:00	6	Velocidad del viento	3.2
160082	7	Sololá	712	San Antonio Palopó	9	San Antonio Palopo	3	Marzo	2023-03-18T00:00:00	2024-11-08T11:00:00	7	Dirección del viento	3.22
160083	7	Sololá	712	San Antonio Palopó	9	San Antonio Palopo	3	Marzo	2023-03-18T00:00:00	2024-11-08T11:00:00	1	Precipitación	0
160084	7	Sololá	712	San Antonio Palopó	9	San Antonio Palopo	3	Marzo	2023-03-18T00:00:00	2024-11-08T11:00:00	8	Radiación solar	809
160085	7	Sololá	712	San Antonio Palopó	9	San Antonio Palopo	3	Marzo	2023-03-18T00:00:00	2024-11-08T12:00:00	2	Temperatura media	22.7
160086	7	Sololá	712	San Antonio Palopó	9	San Antonio Palopo	3	Marzo	2023-03-18T00:00:00	2024-11-08T12:00:00	4	Temperatura máxima	22.8
160087	7	Sololá	712	San Antonio Palopó	9	San Antonio Palopo	3	Marzo	2023-03-18T00:00:00	2024-11-08T12:00:00	3	Temperatura mínima	20.4
160088	7	Sololá	712	San Antonio Palopó	9	San Antonio Palopo	3	Marzo	2023-03-18T00:00:00	2024-11-08T12:00:00	5	Humedad	67
160089	7	Sololá	712	San Antonio Palopó	9	San Antonio Palopo	3	Marzo	2023-03-18T00:00:00	2024-11-08T12:00:00	6	Velocidad del viento	6.4
160090	7	Sololá	712	San Antonio Palopó	9	San Antonio Palopo	3	Marzo	2023-03-18T00:00:00	2024-11-08T12:00:00	7	Dirección del viento	6.44
160091	7	Sololá	712	San Antonio Palopó	9	San Antonio Palopo	3	Marzo	2023-03-18T00:00:00	2024-11-08T12:00:00	1	Precipitación	0
160092	7	Sololá	712	San Antonio Palopó	9	San Antonio Palopo	3	Marzo	2023-03-18T00:00:00	2024-11-08T12:00:00	8	Radiación solar	911
160093	7	Sololá	712	San Antonio Palopó	9	San Antonio Palopo	3	Marzo	2023-03-18T00:00:00	2024-11-08T13:00:00	2	Temperatura media	22.8
160094	7	Sololá	712	San Antonio Palopó	9	San Antonio Palopo	3	Marzo	2023-03-18T00:00:00	2024-11-08T13:00:00	4	Temperatura máxima	23.3
160095	7	Sololá	712	San Antonio Palopó	9	San Antonio Palopo	3	Marzo	2023-03-18T00:00:00	2024-11-08T13:00:00	3	Temperatura mínima	22.4
160096	7	Sololá	712	San Antonio Palopó	9	San Antonio Palopo	3	Marzo	2023-03-18T00:00:00	2024-11-08T13:00:00	5	Humedad	69
160097	7	Sololá	712	San Antonio Palopó	9	San Antonio Palopo	3	Marzo	2023-03-18T00:00:00	2024-11-08T13:00:00	6	Velocidad del viento	9.7
160098	7	Sololá	712	San Antonio Palopó	9	San Antonio Palopo	3	Marzo	2023-03-18T00:00:00	2024-11-08T13:00:00	7	Dirección del viento	9.66
160099	7	Sololá	712	San Antonio Palopó	9	San Antonio Palopo	3	Marzo	2023-03-18T00:00:00	2024-11-08T13:00:00	1	Precipitación	0
160100	7	Sololá	712	San Antonio Palopó	9	San Antonio Palopo	3	Marzo	2023-03-18T00:00:00	2024-11-08T13:00:00	8	Radiación solar	1000
160101	7	Sololá	712	San Antonio Palopó	9	San Antonio Palopo	3	Marzo	2023-03-18T00:00:00	2024-11-08T14:00:00	2	Temperatura media	22.7
160102	7	Sololá	712	San Antonio Palopó	9	San Antonio Palopo	3	Marzo	2023-03-18T00:00:00	2024-11-08T14:00:00	4	Temperatura máxima	23.2
160103	7	Sololá	712	San Antonio Palopó	9	San Antonio Palopo	3	Marzo	2023-03-18T00:00:00	2024-11-08T14:00:00	3	Temperatura mínima	22.4
160104	7	Sololá	712	San Antonio Palopó	9	San Antonio Palopo	3	Marzo	2023-03-18T00:00:00	2024-11-08T14:00:00	5	Humedad	70
160105	7	Sololá	712	San Antonio Palopó	9	San Antonio Palopo	3	Marzo	2023-03-18T00:00:00	2024-11-08T14:00:00	6	Velocidad del viento	11.3
160106	7	Sololá	712	San Antonio Palopó	9	San Antonio Palopo	3	Marzo	2023-03-18T00:00:00	2024-11-08T14:00:00	7	Dirección del viento	11.27
160107	7	Sololá	712	San Antonio Palopó	9	San Antonio Palopo	3	Marzo	2023-03-18T00:00:00	2024-11-08T14:00:00	1	Precipitación	0
160108	7	Sololá	712	San Antonio Palopó	9	San Antonio Palopo	3	Marzo	2023-03-18T00:00:00	2024-11-08T14:00:00	8	Radiación solar	835
160109	7	Sololá	712	San Antonio Palopó	9	San Antonio Palopo	3	Marzo	2023-03-18T00:00:00	2024-11-08T15:00:00	2	Temperatura media	22.3
160110	7	Sololá	712	San Antonio Palopó	9	San Antonio Palopo	3	Marzo	2023-03-18T00:00:00	2024-11-08T15:00:00	4	Temperatura máxima	22.7
160111	7	Sololá	712	San Antonio Palopó	9	San Antonio Palopo	3	Marzo	2023-03-18T00:00:00	2024-11-08T15:00:00	3	Temperatura mínima	21.8
160112	7	Sololá	712	San Antonio Palopó	9	San Antonio Palopo	3	Marzo	2023-03-18T00:00:00	2024-11-08T15:00:00	5	Humedad	71
160113	7	Sololá	712	San Antonio Palopó	9	San Antonio Palopo	3	Marzo	2023-03-18T00:00:00	2024-11-08T15:00:00	6	Velocidad del viento	9.7
160114	7	Sololá	712	San Antonio Palopó	9	San Antonio Palopo	3	Marzo	2023-03-18T00:00:00	2024-11-08T15:00:00	7	Dirección del viento	9.66
160115	7	Sololá	712	San Antonio Palopó	9	San Antonio Palopo	3	Marzo	2023-03-18T00:00:00	2024-11-08T15:00:00	1	Precipitación	0
160116	7	Sololá	712	San Antonio Palopó	9	San Antonio Palopo	3	Marzo	2023-03-18T00:00:00	2024-11-08T15:00:00	8	Radiación solar	412
160117	7	Sololá	712	San Antonio Palopó	9	San Antonio Palopo	3	Marzo	2023-03-18T00:00:00	2024-11-08T16:00:00	2	Temperatura media	22.4
160118	7	Sololá	712	San Antonio Palopó	9	San Antonio Palopo	3	Marzo	2023-03-18T00:00:00	2024-11-08T16:00:00	4	Temperatura máxima	22.4
160119	7	Sololá	712	San Antonio Palopó	9	San Antonio Palopo	3	Marzo	2023-03-18T00:00:00	2024-11-08T16:00:00	3	Temperatura mínima	21.7
160120	7	Sololá	712	San Antonio Palopó	9	San Antonio Palopo	3	Marzo	2023-03-18T00:00:00	2024-11-08T16:00:00	5	Humedad	72
160121	7	Sololá	712	San Antonio Palopó	9	San Antonio Palopo	3	Marzo	2023-03-18T00:00:00	2024-11-08T16:00:00	6	Velocidad del viento	6.4
160122	7	Sololá	712	San Antonio Palopó	9	San Antonio Palopo	3	Marzo	2023-03-18T00:00:00	2024-11-08T16:00:00	7	Dirección del viento	6.44
160123	7	Sololá	712	San Antonio Palopó	9	San Antonio Palopo	3	Marzo	2023-03-18T00:00:00	2024-11-08T16:00:00	1	Precipitación	0
160124	7	Sololá	712	San Antonio Palopó	9	San Antonio Palopo	3	Marzo	2023-03-18T00:00:00	2024-11-08T16:00:00	8	Radiación solar	267
160125	7	Sololá	712	San Antonio Palopó	9	San Antonio Palopo	3	Marzo	2023-03-18T00:00:00	2024-11-08T17:00:00	2	Temperatura media	20.3
160126	7	Sololá	712	San Antonio Palopó	9	San Antonio Palopo	3	Marzo	2023-03-18T00:00:00	2024-11-08T17:00:00	4	Temperatura máxima	22.4
160127	7	Sololá	712	San Antonio Palopó	9	San Antonio Palopo	3	Marzo	2023-03-18T00:00:00	2024-11-08T17:00:00	3	Temperatura mínima	20.3
160128	7	Sololá	712	San Antonio Palopó	9	San Antonio Palopo	3	Marzo	2023-03-18T00:00:00	2024-11-08T17:00:00	5	Humedad	78
160129	7	Sololá	712	San Antonio Palopó	9	San Antonio Palopo	3	Marzo	2023-03-18T00:00:00	2024-11-08T17:00:00	6	Velocidad del viento	4.8
160130	7	Sololá	712	San Antonio Palopó	9	San Antonio Palopo	3	Marzo	2023-03-18T00:00:00	2024-11-08T17:00:00	7	Dirección del viento	4.83
160131	7	Sololá	712	San Antonio Palopó	9	San Antonio Palopo	3	Marzo	2023-03-18T00:00:00	2024-11-08T17:00:00	1	Precipitación	0
160132	7	Sololá	712	San Antonio Palopó	9	San Antonio Palopo	3	Marzo	2023-03-18T00:00:00	2024-11-08T17:00:00	8	Radiación solar	62
160133	7	Sololá	712	San Antonio Palopó	9	San Antonio Palopo	3	Marzo	2023-03-18T00:00:00	2024-11-08T18:00:00	2	Temperatura media	17.7
160134	7	Sololá	712	San Antonio Palopó	9	San Antonio Palopo	3	Marzo	2023-03-18T00:00:00	2024-11-08T18:00:00	4	Temperatura máxima	20.3
160135	7	Sololá	712	San Antonio Palopó	9	San Antonio Palopo	3	Marzo	2023-03-18T00:00:00	2024-11-08T18:00:00	3	Temperatura mínima	17.7
160136	7	Sololá	712	San Antonio Palopó	9	San Antonio Palopo	3	Marzo	2023-03-18T00:00:00	2024-11-08T18:00:00	5	Humedad	84
160137	7	Sololá	712	San Antonio Palopó	9	San Antonio Palopo	3	Marzo	2023-03-18T00:00:00	2024-11-08T18:00:00	6	Velocidad del viento	9.7
160138	7	Sololá	712	San Antonio Palopó	9	San Antonio Palopo	3	Marzo	2023-03-18T00:00:00	2024-11-08T18:00:00	7	Dirección del viento	9.66
160139	7	Sololá	712	San Antonio Palopó	9	San Antonio Palopo	3	Marzo	2023-03-18T00:00:00	2024-11-08T18:00:00	1	Precipitación	0.6
160140	7	Sololá	712	San Antonio Palopó	9	San Antonio Palopo	3	Marzo	2023-03-18T00:00:00	2024-11-08T18:00:00	8	Radiación solar	10
160141	7	Sololá	712	San Antonio Palopó	9	San Antonio Palopo	3	Marzo	2023-03-18T00:00:00	2024-11-08T19:00:00	2	Temperatura media	17.2
160142	7	Sololá	712	San Antonio Palopó	9	San Antonio Palopo	3	Marzo	2023-03-18T00:00:00	2024-11-08T19:00:00	4	Temperatura máxima	17.7
160143	7	Sololá	712	San Antonio Palopó	9	San Antonio Palopo	3	Marzo	2023-03-18T00:00:00	2024-11-08T19:00:00	3	Temperatura mínima	17.2
160144	7	Sololá	712	San Antonio Palopó	9	San Antonio Palopo	3	Marzo	2023-03-18T00:00:00	2024-11-08T19:00:00	5	Humedad	87
160145	7	Sololá	712	San Antonio Palopó	9	San Antonio Palopo	3	Marzo	2023-03-18T00:00:00	2024-11-08T19:00:00	6	Velocidad del viento	4.8
160146	7	Sololá	712	San Antonio Palopó	9	San Antonio Palopo	3	Marzo	2023-03-18T00:00:00	2024-11-08T19:00:00	7	Dirección del viento	4.83
160147	7	Sololá	712	San Antonio Palopó	9	San Antonio Palopo	3	Marzo	2023-03-18T00:00:00	2024-11-08T19:00:00	1	Precipitación	0
160148	7	Sololá	712	San Antonio Palopó	9	San Antonio Palopo	3	Marzo	2023-03-18T00:00:00	2024-11-08T19:00:00	8	Radiación solar	0
160149	7	Sololá	712	San Antonio Palopó	9	San Antonio Palopo	3	Marzo	2023-03-18T00:00:00	2024-11-08T20:00:00	2	Temperatura media	16.8
160150	7	Sololá	712	San Antonio Palopó	9	San Antonio Palopo	3	Marzo	2023-03-18T00:00:00	2024-11-08T20:00:00	4	Temperatura máxima	17.3
160151	7	Sololá	712	San Antonio Palopó	9	San Antonio Palopo	3	Marzo	2023-03-18T00:00:00	2024-11-08T20:00:00	3	Temperatura mínima	16.8
160152	7	Sololá	712	San Antonio Palopó	9	San Antonio Palopo	3	Marzo	2023-03-18T00:00:00	2024-11-08T20:00:00	5	Humedad	86
160153	7	Sololá	712	San Antonio Palopó	9	San Antonio Palopo	3	Marzo	2023-03-18T00:00:00	2024-11-08T20:00:00	6	Velocidad del viento	1.6
160154	7	Sololá	712	San Antonio Palopó	9	San Antonio Palopo	3	Marzo	2023-03-18T00:00:00	2024-11-08T20:00:00	7	Dirección del viento	1.61
160155	7	Sololá	712	San Antonio Palopó	9	San Antonio Palopo	3	Marzo	2023-03-18T00:00:00	2024-11-08T20:00:00	1	Precipitación	0
160156	7	Sololá	712	San Antonio Palopó	9	San Antonio Palopo	3	Marzo	2023-03-18T00:00:00	2024-11-08T20:00:00	8	Radiación solar	0
160157	7	Sololá	712	San Antonio Palopó	9	San Antonio Palopo	3	Marzo	2023-03-18T00:00:00	2024-11-08T21:00:00	2	Temperatura media	16.4
160158	7	Sololá	712	San Antonio Palopó	9	San Antonio Palopo	3	Marzo	2023-03-18T00:00:00	2024-11-08T21:00:00	4	Temperatura máxima	16.9
160159	7	Sololá	712	San Antonio Palopó	9	San Antonio Palopo	3	Marzo	2023-03-18T00:00:00	2024-11-08T21:00:00	3	Temperatura mínima	16.4
160160	7	Sololá	712	San Antonio Palopó	9	San Antonio Palopo	3	Marzo	2023-03-18T00:00:00	2024-11-08T21:00:00	5	Humedad	87
160161	7	Sololá	712	San Antonio Palopó	9	San Antonio Palopo	3	Marzo	2023-03-18T00:00:00	2024-11-08T21:00:00	6	Velocidad del viento	3.2
160162	7	Sololá	712	San Antonio Palopó	9	San Antonio Palopo	3	Marzo	2023-03-18T00:00:00	2024-11-08T21:00:00	7	Dirección del viento	3.22
160163	7	Sololá	712	San Antonio Palopó	9	San Antonio Palopo	3	Marzo	2023-03-18T00:00:00	2024-11-08T21:00:00	1	Precipitación	0
160164	7	Sololá	712	San Antonio Palopó	9	San Antonio Palopo	3	Marzo	2023-03-18T00:00:00	2024-11-08T21:00:00	8	Radiación solar	0
160165	7	Sololá	712	San Antonio Palopó	9	San Antonio Palopo	3	Marzo	2023-03-18T00:00:00	2024-11-08T22:00:00	2	Temperatura media	16.6
160166	7	Sololá	712	San Antonio Palopó	9	San Antonio Palopo	3	Marzo	2023-03-18T00:00:00	2024-11-08T22:00:00	4	Temperatura máxima	16.6
160167	7	Sololá	712	San Antonio Palopó	9	San Antonio Palopo	3	Marzo	2023-03-18T00:00:00	2024-11-08T22:00:00	3	Temperatura mínima	16.2
160168	7	Sololá	712	San Antonio Palopó	9	San Antonio Palopo	3	Marzo	2023-03-18T00:00:00	2024-11-08T22:00:00	5	Humedad	87
160169	7	Sololá	712	San Antonio Palopó	9	San Antonio Palopo	3	Marzo	2023-03-18T00:00:00	2024-11-08T22:00:00	6	Velocidad del viento	3.2
160170	7	Sololá	712	San Antonio Palopó	9	San Antonio Palopo	3	Marzo	2023-03-18T00:00:00	2024-11-08T22:00:00	7	Dirección del viento	3.22
160171	7	Sololá	712	San Antonio Palopó	9	San Antonio Palopo	3	Marzo	2023-03-18T00:00:00	2024-11-08T22:00:00	1	Precipitación	0
160172	7	Sololá	712	San Antonio Palopó	9	San Antonio Palopo	3	Marzo	2023-03-18T00:00:00	2024-11-08T22:00:00	8	Radiación solar	0
160173	7	Sololá	712	San Antonio Palopó	9	San Antonio Palopo	3	Marzo	2023-03-18T00:00:00	2024-11-08T23:00:00	2	Temperatura media	17.1
160174	7	Sololá	712	San Antonio Palopó	9	San Antonio Palopo	3	Marzo	2023-03-18T00:00:00	2024-11-08T23:00:00	4	Temperatura máxima	17.4
160175	7	Sololá	712	San Antonio Palopó	9	San Antonio Palopo	3	Marzo	2023-03-18T00:00:00	2024-11-08T23:00:00	3	Temperatura mínima	16.6
160176	7	Sololá	712	San Antonio Palopó	9	San Antonio Palopo	3	Marzo	2023-03-18T00:00:00	2024-11-08T23:00:00	5	Humedad	86
160177	7	Sololá	712	San Antonio Palopó	9	San Antonio Palopo	3	Marzo	2023-03-18T00:00:00	2024-11-08T23:00:00	6	Velocidad del viento	1.6
160178	7	Sololá	712	San Antonio Palopó	9	San Antonio Palopo	3	Marzo	2023-03-18T00:00:00	2024-11-08T23:00:00	7	Dirección del viento	1.61
160179	7	Sololá	712	San Antonio Palopó	9	San Antonio Palopo	3	Marzo	2023-03-18T00:00:00	2024-11-08T23:00:00	1	Precipitación	0
160180	7	Sololá	712	San Antonio Palopó	9	San Antonio Palopo	3	Marzo	2023-03-18T00:00:00	2024-11-08T23:00:00	8	Radiación solar	0
160181	7	Sololá	712	San Antonio Palopó	9	San Antonio Palopo	3	Marzo	2023-03-19T00:00:00	2024-11-08T00:00:00	2	Temperatura media	17.1
160182	7	Sololá	712	San Antonio Palopó	9	San Antonio Palopo	3	Marzo	2023-03-19T00:00:00	2024-11-08T00:00:00	4	Temperatura máxima	17.3
160183	7	Sololá	712	San Antonio Palopó	9	San Antonio Palopo	3	Marzo	2023-03-19T00:00:00	2024-11-08T00:00:00	3	Temperatura mínima	17
160184	7	Sololá	712	San Antonio Palopó	9	San Antonio Palopo	3	Marzo	2023-03-19T00:00:00	2024-11-08T00:00:00	5	Humedad	88
160185	7	Sololá	712	San Antonio Palopó	9	San Antonio Palopo	3	Marzo	2023-03-19T00:00:00	2024-11-08T00:00:00	6	Velocidad del viento	1.6
160186	7	Sololá	712	San Antonio Palopó	9	San Antonio Palopo	3	Marzo	2023-03-19T00:00:00	2024-11-08T00:00:00	7	Dirección del viento	1.61
160187	7	Sololá	712	San Antonio Palopó	9	San Antonio Palopo	3	Marzo	2023-03-19T00:00:00	2024-11-08T00:00:00	1	Precipitación	0
160188	7	Sololá	712	San Antonio Palopó	9	San Antonio Palopo	3	Marzo	2023-03-19T00:00:00	2024-11-08T00:00:00	8	Radiación solar	0
160189	7	Sololá	712	San Antonio Palopó	9	San Antonio Palopo	3	Marzo	2023-03-19T00:00:00	2024-11-08T01:00:00	2	Temperatura media	16.9
160190	7	Sololá	712	San Antonio Palopó	9	San Antonio Palopo	3	Marzo	2023-03-19T00:00:00	2024-11-08T01:00:00	4	Temperatura máxima	17.2
160191	7	Sololá	712	San Antonio Palopó	9	San Antonio Palopo	3	Marzo	2023-03-19T00:00:00	2024-11-08T01:00:00	3	Temperatura mínima	16.8
160192	7	Sololá	712	San Antonio Palopó	9	San Antonio Palopo	3	Marzo	2023-03-19T00:00:00	2024-11-08T01:00:00	5	Humedad	90
160193	7	Sololá	712	San Antonio Palopó	9	San Antonio Palopo	3	Marzo	2023-03-19T00:00:00	2024-11-08T01:00:00	6	Velocidad del viento	1.6
160194	7	Sololá	712	San Antonio Palopó	9	San Antonio Palopo	3	Marzo	2023-03-19T00:00:00	2024-11-08T01:00:00	7	Dirección del viento	1.61
160195	7	Sololá	712	San Antonio Palopó	9	San Antonio Palopo	3	Marzo	2023-03-19T00:00:00	2024-11-08T01:00:00	1	Precipitación	0
160196	7	Sololá	712	San Antonio Palopó	9	San Antonio Palopo	3	Marzo	2023-03-19T00:00:00	2024-11-08T01:00:00	8	Radiación solar	0
160197	7	Sololá	712	San Antonio Palopó	9	San Antonio Palopo	3	Marzo	2023-03-19T00:00:00	2024-11-08T02:00:00	2	Temperatura media	17.2
160198	7	Sololá	712	San Antonio Palopó	9	San Antonio Palopo	3	Marzo	2023-03-19T00:00:00	2024-11-08T02:00:00	4	Temperatura máxima	17.2
160199	7	Sololá	712	San Antonio Palopó	9	San Antonio Palopo	3	Marzo	2023-03-19T00:00:00	2024-11-08T02:00:00	3	Temperatura mínima	16.8
160200	7	Sololá	712	San Antonio Palopó	9	San Antonio Palopo	3	Marzo	2023-03-19T00:00:00	2024-11-08T02:00:00	5	Humedad	90
160201	7	Sololá	712	San Antonio Palopó	9	San Antonio Palopo	3	Marzo	2023-03-19T00:00:00	2024-11-08T02:00:00	6	Velocidad del viento	1.6
160202	7	Sololá	712	San Antonio Palopó	9	San Antonio Palopo	3	Marzo	2023-03-19T00:00:00	2024-11-08T02:00:00	7	Dirección del viento	1.61
160203	7	Sololá	712	San Antonio Palopó	9	San Antonio Palopo	3	Marzo	2023-03-19T00:00:00	2024-11-08T02:00:00	1	Precipitación	0
160204	7	Sololá	712	San Antonio Palopó	9	San Antonio Palopo	3	Marzo	2023-03-19T00:00:00	2024-11-08T02:00:00	8	Radiación solar	0
160205	7	Sololá	712	San Antonio Palopó	9	San Antonio Palopo	3	Marzo	2023-03-19T00:00:00	2024-11-08T03:00:00	2	Temperatura media	17.3
160206	7	Sololá	712	San Antonio Palopó	9	San Antonio Palopo	3	Marzo	2023-03-19T00:00:00	2024-11-08T03:00:00	4	Temperatura máxima	17.5
160207	7	Sololá	712	San Antonio Palopó	9	San Antonio Palopo	3	Marzo	2023-03-19T00:00:00	2024-11-08T03:00:00	3	Temperatura mínima	17.2
160208	7	Sololá	712	San Antonio Palopó	9	San Antonio Palopo	3	Marzo	2023-03-19T00:00:00	2024-11-08T03:00:00	5	Humedad	89
160209	7	Sololá	712	San Antonio Palopó	9	San Antonio Palopo	3	Marzo	2023-03-19T00:00:00	2024-11-08T03:00:00	6	Velocidad del viento	1.6
160210	7	Sololá	712	San Antonio Palopó	9	San Antonio Palopo	3	Marzo	2023-03-19T00:00:00	2024-11-08T03:00:00	7	Dirección del viento	1.61
160211	7	Sololá	712	San Antonio Palopó	9	San Antonio Palopo	3	Marzo	2023-03-19T00:00:00	2024-11-08T03:00:00	1	Precipitación	0
160212	7	Sololá	712	San Antonio Palopó	9	San Antonio Palopo	3	Marzo	2023-03-19T00:00:00	2024-11-08T03:00:00	8	Radiación solar	0
160213	7	Sololá	712	San Antonio Palopó	9	San Antonio Palopo	3	Marzo	2023-03-19T00:00:00	2024-11-08T04:00:00	2	Temperatura media	17.4
160214	7	Sololá	712	San Antonio Palopó	9	San Antonio Palopo	3	Marzo	2023-03-19T00:00:00	2024-11-08T04:00:00	4	Temperatura máxima	17.6
160215	7	Sololá	712	San Antonio Palopó	9	San Antonio Palopo	3	Marzo	2023-03-19T00:00:00	2024-11-08T04:00:00	3	Temperatura mínima	17.3
160216	7	Sololá	712	San Antonio Palopó	9	San Antonio Palopo	3	Marzo	2023-03-19T00:00:00	2024-11-08T04:00:00	5	Humedad	87
160217	7	Sololá	712	San Antonio Palopó	9	San Antonio Palopo	3	Marzo	2023-03-19T00:00:00	2024-11-08T04:00:00	6	Velocidad del viento	3.2
160218	7	Sololá	712	San Antonio Palopó	9	San Antonio Palopo	3	Marzo	2023-03-19T00:00:00	2024-11-08T04:00:00	7	Dirección del viento	3.22
160219	7	Sololá	712	San Antonio Palopó	9	San Antonio Palopo	3	Marzo	2023-03-19T00:00:00	2024-11-08T04:00:00	1	Precipitación	0
160220	7	Sololá	712	San Antonio Palopó	9	San Antonio Palopo	3	Marzo	2023-03-19T00:00:00	2024-11-08T04:00:00	8	Radiación solar	0
160221	7	Sololá	712	San Antonio Palopó	9	San Antonio Palopo	3	Marzo	2023-03-19T00:00:00	2024-11-08T05:00:00	2	Temperatura media	17.4
160222	7	Sololá	712	San Antonio Palopó	9	San Antonio Palopo	3	Marzo	2023-03-19T00:00:00	2024-11-08T05:00:00	4	Temperatura máxima	17.4
160223	7	Sololá	712	San Antonio Palopó	9	San Antonio Palopo	3	Marzo	2023-03-19T00:00:00	2024-11-08T05:00:00	3	Temperatura mínima	17
160224	7	Sololá	712	San Antonio Palopó	9	San Antonio Palopo	3	Marzo	2023-03-19T00:00:00	2024-11-08T05:00:00	5	Humedad	85
160225	7	Sololá	712	San Antonio Palopó	9	San Antonio Palopo	3	Marzo	2023-03-19T00:00:00	2024-11-08T05:00:00	6	Velocidad del viento	3.2
160226	7	Sololá	712	San Antonio Palopó	9	San Antonio Palopo	3	Marzo	2023-03-19T00:00:00	2024-11-08T05:00:00	7	Dirección del viento	3.22
160227	7	Sololá	712	San Antonio Palopó	9	San Antonio Palopo	3	Marzo	2023-03-19T00:00:00	2024-11-08T05:00:00	1	Precipitación	0
160228	7	Sololá	712	San Antonio Palopó	9	San Antonio Palopo	3	Marzo	2023-03-19T00:00:00	2024-11-08T05:00:00	8	Radiación solar	0
160229	7	Sololá	712	San Antonio Palopó	9	San Antonio Palopo	3	Marzo	2023-03-19T00:00:00	2024-11-08T06:00:00	2	Temperatura media	17.6
160230	7	Sololá	712	San Antonio Palopó	9	San Antonio Palopo	3	Marzo	2023-03-19T00:00:00	2024-11-08T06:00:00	4	Temperatura máxima	17.8
160231	7	Sololá	712	San Antonio Palopó	9	San Antonio Palopo	3	Marzo	2023-03-19T00:00:00	2024-11-08T06:00:00	3	Temperatura mínima	17.3
160232	7	Sololá	712	San Antonio Palopó	9	San Antonio Palopo	3	Marzo	2023-03-19T00:00:00	2024-11-08T06:00:00	5	Humedad	79
160233	7	Sololá	712	San Antonio Palopó	9	San Antonio Palopo	3	Marzo	2023-03-19T00:00:00	2024-11-08T06:00:00	6	Velocidad del viento	4.8
160234	7	Sololá	712	San Antonio Palopó	9	San Antonio Palopo	3	Marzo	2023-03-19T00:00:00	2024-11-08T06:00:00	7	Dirección del viento	4.83
160235	7	Sololá	712	San Antonio Palopó	9	San Antonio Palopo	3	Marzo	2023-03-19T00:00:00	2024-11-08T06:00:00	1	Precipitación	0
160236	7	Sololá	712	San Antonio Palopó	9	San Antonio Palopo	3	Marzo	2023-03-19T00:00:00	2024-11-08T06:00:00	8	Radiación solar	0
160237	7	Sololá	712	San Antonio Palopó	9	San Antonio Palopo	3	Marzo	2023-03-19T00:00:00	2024-11-08T07:00:00	2	Temperatura media	17.8
160238	7	Sololá	712	San Antonio Palopó	9	San Antonio Palopo	3	Marzo	2023-03-19T00:00:00	2024-11-08T07:00:00	4	Temperatura máxima	17.8
160239	7	Sololá	712	San Antonio Palopó	9	San Antonio Palopo	3	Marzo	2023-03-19T00:00:00	2024-11-08T07:00:00	3	Temperatura mínima	17.3
160240	7	Sololá	712	San Antonio Palopó	9	San Antonio Palopo	3	Marzo	2023-03-19T00:00:00	2024-11-08T07:00:00	5	Humedad	76
160241	7	Sololá	712	San Antonio Palopó	9	San Antonio Palopo	3	Marzo	2023-03-19T00:00:00	2024-11-08T07:00:00	6	Velocidad del viento	4.8
160242	7	Sololá	712	San Antonio Palopó	9	San Antonio Palopo	3	Marzo	2023-03-19T00:00:00	2024-11-08T07:00:00	7	Dirección del viento	4.83
160243	7	Sololá	712	San Antonio Palopó	9	San Antonio Palopo	3	Marzo	2023-03-19T00:00:00	2024-11-08T07:00:00	1	Precipitación	0
160244	7	Sololá	712	San Antonio Palopó	9	San Antonio Palopo	3	Marzo	2023-03-19T00:00:00	2024-11-08T07:00:00	8	Radiación solar	14
160245	7	Sololá	712	San Antonio Palopó	9	San Antonio Palopo	3	Marzo	2023-03-19T00:00:00	2024-11-08T08:00:00	2	Temperatura media	17.5
160246	7	Sololá	712	San Antonio Palopó	9	San Antonio Palopo	3	Marzo	2023-03-19T00:00:00	2024-11-08T08:00:00	4	Temperatura máxima	18.2
160247	7	Sololá	712	San Antonio Palopó	9	San Antonio Palopo	3	Marzo	2023-03-19T00:00:00	2024-11-08T08:00:00	3	Temperatura mínima	17.2
160248	7	Sololá	712	San Antonio Palopó	9	San Antonio Palopo	3	Marzo	2023-03-19T00:00:00	2024-11-08T08:00:00	5	Humedad	84
160249	7	Sololá	712	San Antonio Palopó	9	San Antonio Palopo	3	Marzo	2023-03-19T00:00:00	2024-11-08T08:00:00	6	Velocidad del viento	3.2
160250	7	Sololá	712	San Antonio Palopó	9	San Antonio Palopo	3	Marzo	2023-03-19T00:00:00	2024-11-08T08:00:00	7	Dirección del viento	3.22
160251	7	Sololá	712	San Antonio Palopó	9	San Antonio Palopo	3	Marzo	2023-03-19T00:00:00	2024-11-08T08:00:00	1	Precipitación	0
160252	7	Sololá	712	San Antonio Palopó	9	San Antonio Palopo	3	Marzo	2023-03-19T00:00:00	2024-11-08T08:00:00	8	Radiación solar	72
160253	7	Sololá	712	San Antonio Palopó	9	San Antonio Palopo	3	Marzo	2023-03-19T00:00:00	2024-11-08T09:00:00	2	Temperatura media	19.8
160254	7	Sololá	712	San Antonio Palopó	9	San Antonio Palopo	3	Marzo	2023-03-19T00:00:00	2024-11-08T09:00:00	4	Temperatura máxima	19.8
160255	7	Sololá	712	San Antonio Palopó	9	San Antonio Palopo	3	Marzo	2023-03-19T00:00:00	2024-11-08T09:00:00	3	Temperatura mínima	17.5
160256	7	Sololá	712	San Antonio Palopó	9	San Antonio Palopo	3	Marzo	2023-03-19T00:00:00	2024-11-08T09:00:00	5	Humedad	80
160257	7	Sololá	712	San Antonio Palopó	9	San Antonio Palopo	3	Marzo	2023-03-19T00:00:00	2024-11-08T09:00:00	6	Velocidad del viento	1.6
160258	7	Sololá	712	San Antonio Palopó	9	San Antonio Palopo	3	Marzo	2023-03-19T00:00:00	2024-11-08T09:00:00	7	Dirección del viento	1.61
160259	7	Sololá	712	San Antonio Palopó	9	San Antonio Palopo	3	Marzo	2023-03-19T00:00:00	2024-11-08T09:00:00	1	Precipitación	0
160260	7	Sololá	712	San Antonio Palopó	9	San Antonio Palopo	3	Marzo	2023-03-19T00:00:00	2024-11-08T09:00:00	8	Radiación solar	372
160261	7	Sololá	712	San Antonio Palopó	9	San Antonio Palopo	3	Marzo	2023-03-19T00:00:00	2024-11-08T10:00:00	2	Temperatura media	19.9
160262	7	Sololá	712	San Antonio Palopó	9	San Antonio Palopo	3	Marzo	2023-03-19T00:00:00	2024-11-08T10:00:00	4	Temperatura máxima	19.9
160263	7	Sololá	712	San Antonio Palopó	9	San Antonio Palopo	3	Marzo	2023-03-19T00:00:00	2024-11-08T10:00:00	3	Temperatura mínima	19.3
160264	7	Sololá	712	San Antonio Palopó	9	San Antonio Palopo	3	Marzo	2023-03-19T00:00:00	2024-11-08T10:00:00	5	Humedad	76
160265	7	Sololá	712	San Antonio Palopó	9	San Antonio Palopo	3	Marzo	2023-03-19T00:00:00	2024-11-08T10:00:00	6	Velocidad del viento	0
160266	7	Sololá	712	San Antonio Palopó	9	San Antonio Palopo	3	Marzo	2023-03-19T00:00:00	2024-11-08T10:00:00	7	Dirección del viento	0
160267	7	Sololá	712	San Antonio Palopó	9	San Antonio Palopo	3	Marzo	2023-03-19T00:00:00	2024-11-08T10:00:00	1	Precipitación	0
160268	7	Sololá	712	San Antonio Palopó	9	San Antonio Palopo	3	Marzo	2023-03-19T00:00:00	2024-11-08T10:00:00	8	Radiación solar	167
160269	7	Sololá	712	San Antonio Palopó	9	San Antonio Palopo	3	Marzo	2023-03-19T00:00:00	2024-11-08T11:00:00	2	Temperatura media	21.4
160270	7	Sololá	712	San Antonio Palopó	9	San Antonio Palopo	3	Marzo	2023-03-19T00:00:00	2024-11-08T11:00:00	4	Temperatura máxima	21.4
160271	7	Sololá	712	San Antonio Palopó	9	San Antonio Palopo	3	Marzo	2023-03-19T00:00:00	2024-11-08T11:00:00	3	Temperatura mínima	19.9
160272	7	Sololá	712	San Antonio Palopó	9	San Antonio Palopo	3	Marzo	2023-03-19T00:00:00	2024-11-08T11:00:00	5	Humedad	73
160273	7	Sololá	712	San Antonio Palopó	9	San Antonio Palopo	3	Marzo	2023-03-19T00:00:00	2024-11-08T11:00:00	6	Velocidad del viento	1.6
160274	7	Sololá	712	San Antonio Palopó	9	San Antonio Palopo	3	Marzo	2023-03-19T00:00:00	2024-11-08T11:00:00	7	Dirección del viento	1.61
160275	7	Sololá	712	San Antonio Palopó	9	San Antonio Palopo	3	Marzo	2023-03-19T00:00:00	2024-11-08T11:00:00	1	Precipitación	0
160276	7	Sololá	712	San Antonio Palopó	9	San Antonio Palopo	3	Marzo	2023-03-19T00:00:00	2024-11-08T11:00:00	8	Radiación solar	588
160277	7	Sololá	712	San Antonio Palopó	9	San Antonio Palopo	3	Marzo	2023-03-19T00:00:00	2024-11-08T12:00:00	2	Temperatura media	22.3
160278	7	Sololá	712	San Antonio Palopó	9	San Antonio Palopo	3	Marzo	2023-03-19T00:00:00	2024-11-08T12:00:00	4	Temperatura máxima	22.3
160279	7	Sololá	712	San Antonio Palopó	9	San Antonio Palopo	3	Marzo	2023-03-19T00:00:00	2024-11-08T12:00:00	3	Temperatura mínima	21.4
160280	7	Sololá	712	San Antonio Palopó	9	San Antonio Palopo	3	Marzo	2023-03-19T00:00:00	2024-11-08T12:00:00	5	Humedad	76
160281	7	Sololá	712	San Antonio Palopó	9	San Antonio Palopo	3	Marzo	2023-03-19T00:00:00	2024-11-08T12:00:00	6	Velocidad del viento	4.8
160282	7	Sololá	712	San Antonio Palopó	9	San Antonio Palopo	3	Marzo	2023-03-19T00:00:00	2024-11-08T12:00:00	7	Dirección del viento	4.83
160283	7	Sololá	712	San Antonio Palopó	9	San Antonio Palopo	3	Marzo	2023-03-19T00:00:00	2024-11-08T12:00:00	1	Precipitación	0
160284	7	Sololá	712	San Antonio Palopó	9	San Antonio Palopo	3	Marzo	2023-03-19T00:00:00	2024-11-08T12:00:00	8	Radiación solar	770
160285	7	Sololá	712	San Antonio Palopó	9	San Antonio Palopo	3	Marzo	2023-03-19T00:00:00	2024-11-08T13:00:00	2	Temperatura media	22.3
160286	7	Sololá	712	San Antonio Palopó	9	San Antonio Palopo	3	Marzo	2023-03-19T00:00:00	2024-11-08T13:00:00	4	Temperatura máxima	22.8
160287	7	Sololá	712	San Antonio Palopó	9	San Antonio Palopo	3	Marzo	2023-03-19T00:00:00	2024-11-08T13:00:00	3	Temperatura mínima	21.6
160288	7	Sololá	712	San Antonio Palopó	9	San Antonio Palopo	3	Marzo	2023-03-19T00:00:00	2024-11-08T13:00:00	5	Humedad	73
160289	7	Sololá	712	San Antonio Palopó	9	San Antonio Palopo	3	Marzo	2023-03-19T00:00:00	2024-11-08T13:00:00	6	Velocidad del viento	9.7
160290	7	Sololá	712	San Antonio Palopó	9	San Antonio Palopo	3	Marzo	2023-03-19T00:00:00	2024-11-08T13:00:00	7	Dirección del viento	9.66
160291	7	Sololá	712	San Antonio Palopó	9	San Antonio Palopo	3	Marzo	2023-03-19T00:00:00	2024-11-08T13:00:00	1	Precipitación	0
160292	7	Sololá	712	San Antonio Palopó	9	San Antonio Palopo	3	Marzo	2023-03-19T00:00:00	2024-11-08T13:00:00	8	Radiación solar	509
160293	7	Sololá	712	San Antonio Palopó	9	San Antonio Palopo	3	Marzo	2023-03-19T00:00:00	2024-11-08T14:00:00	2	Temperatura media	20.4
160294	7	Sololá	712	San Antonio Palopó	9	San Antonio Palopo	3	Marzo	2023-03-19T00:00:00	2024-11-08T14:00:00	4	Temperatura máxima	22.4
160295	7	Sololá	712	San Antonio Palopó	9	San Antonio Palopo	3	Marzo	2023-03-19T00:00:00	2024-11-08T14:00:00	3	Temperatura mínima	20.4
160296	7	Sololá	712	San Antonio Palopó	9	San Antonio Palopo	3	Marzo	2023-03-19T00:00:00	2024-11-08T14:00:00	5	Humedad	82
160297	7	Sololá	712	San Antonio Palopó	9	San Antonio Palopo	3	Marzo	2023-03-19T00:00:00	2024-11-08T14:00:00	6	Velocidad del viento	9.7
160298	7	Sololá	712	San Antonio Palopó	9	San Antonio Palopo	3	Marzo	2023-03-19T00:00:00	2024-11-08T14:00:00	7	Dirección del viento	9.66
160299	7	Sololá	712	San Antonio Palopó	9	San Antonio Palopo	3	Marzo	2023-03-19T00:00:00	2024-11-08T14:00:00	1	Precipitación	0.2
160300	7	Sololá	712	San Antonio Palopó	9	San Antonio Palopo	3	Marzo	2023-03-19T00:00:00	2024-11-08T14:00:00	8	Radiación solar	115
160301	7	Sololá	712	San Antonio Palopó	9	San Antonio Palopo	3	Marzo	2023-03-19T00:00:00	2024-11-08T15:00:00	2	Temperatura media	21.3
160302	7	Sololá	712	San Antonio Palopó	9	San Antonio Palopo	3	Marzo	2023-03-19T00:00:00	2024-11-08T15:00:00	4	Temperatura máxima	21.3
160303	7	Sololá	712	San Antonio Palopó	9	San Antonio Palopo	3	Marzo	2023-03-19T00:00:00	2024-11-08T15:00:00	3	Temperatura mínima	19.9
160304	7	Sololá	712	San Antonio Palopó	9	San Antonio Palopo	3	Marzo	2023-03-19T00:00:00	2024-11-08T15:00:00	5	Humedad	76
160305	7	Sololá	712	San Antonio Palopó	9	San Antonio Palopo	3	Marzo	2023-03-19T00:00:00	2024-11-08T15:00:00	6	Velocidad del viento	4.8
160306	7	Sololá	712	San Antonio Palopó	9	San Antonio Palopo	3	Marzo	2023-03-19T00:00:00	2024-11-08T15:00:00	7	Dirección del viento	4.83
160307	7	Sololá	712	San Antonio Palopó	9	San Antonio Palopo	3	Marzo	2023-03-19T00:00:00	2024-11-08T15:00:00	1	Precipitación	1.2
160308	7	Sololá	712	San Antonio Palopó	9	San Antonio Palopo	3	Marzo	2023-03-19T00:00:00	2024-11-08T15:00:00	8	Radiación solar	197
160309	7	Sololá	712	San Antonio Palopó	9	San Antonio Palopo	3	Marzo	2023-03-19T00:00:00	2024-11-08T16:00:00	2	Temperatura media	20.2
160310	7	Sololá	712	San Antonio Palopó	9	San Antonio Palopo	3	Marzo	2023-03-19T00:00:00	2024-11-08T16:00:00	4	Temperatura máxima	21.4
160311	7	Sololá	712	San Antonio Palopó	9	San Antonio Palopo	3	Marzo	2023-03-19T00:00:00	2024-11-08T16:00:00	3	Temperatura mínima	20.2
160312	7	Sololá	712	San Antonio Palopó	9	San Antonio Palopo	3	Marzo	2023-03-19T00:00:00	2024-11-08T16:00:00	5	Humedad	74
160313	7	Sololá	712	San Antonio Palopó	9	San Antonio Palopo	3	Marzo	2023-03-19T00:00:00	2024-11-08T16:00:00	6	Velocidad del viento	4.8
160314	7	Sololá	712	San Antonio Palopó	9	San Antonio Palopo	3	Marzo	2023-03-19T00:00:00	2024-11-08T16:00:00	7	Dirección del viento	4.83
160315	7	Sololá	712	San Antonio Palopó	9	San Antonio Palopo	3	Marzo	2023-03-19T00:00:00	2024-11-08T16:00:00	1	Precipitación	0
160316	7	Sololá	712	San Antonio Palopó	9	San Antonio Palopo	3	Marzo	2023-03-19T00:00:00	2024-11-08T16:00:00	8	Radiación solar	94
160317	7	Sololá	712	San Antonio Palopó	9	San Antonio Palopo	3	Marzo	2023-03-19T00:00:00	2024-11-08T17:00:00	2	Temperatura media	19.7
160318	7	Sololá	712	San Antonio Palopó	9	San Antonio Palopo	3	Marzo	2023-03-19T00:00:00	2024-11-08T17:00:00	4	Temperatura máxima	20.2
160319	7	Sololá	712	San Antonio Palopó	9	San Antonio Palopo	3	Marzo	2023-03-19T00:00:00	2024-11-08T17:00:00	3	Temperatura mínima	18.9
160320	7	Sololá	712	San Antonio Palopó	9	San Antonio Palopo	3	Marzo	2023-03-19T00:00:00	2024-11-08T17:00:00	5	Humedad	77
160321	7	Sololá	712	San Antonio Palopó	9	San Antonio Palopo	3	Marzo	2023-03-19T00:00:00	2024-11-08T17:00:00	6	Velocidad del viento	6.4
160322	7	Sololá	712	San Antonio Palopó	9	San Antonio Palopo	3	Marzo	2023-03-19T00:00:00	2024-11-08T17:00:00	7	Dirección del viento	6.44
160323	7	Sololá	712	San Antonio Palopó	9	San Antonio Palopo	3	Marzo	2023-03-19T00:00:00	2024-11-08T17:00:00	1	Precipitación	0.2
160324	7	Sololá	712	San Antonio Palopó	9	San Antonio Palopo	3	Marzo	2023-03-19T00:00:00	2024-11-08T17:00:00	8	Radiación solar	61
160325	7	Sololá	712	San Antonio Palopó	9	San Antonio Palopo	3	Marzo	2023-03-19T00:00:00	2024-11-08T18:00:00	2	Temperatura media	19.6
160326	7	Sololá	712	San Antonio Palopó	9	San Antonio Palopo	3	Marzo	2023-03-19T00:00:00	2024-11-08T18:00:00	4	Temperatura máxima	19.9
160327	7	Sololá	712	San Antonio Palopó	9	San Antonio Palopo	3	Marzo	2023-03-19T00:00:00	2024-11-08T18:00:00	3	Temperatura mínima	19.5
160328	7	Sololá	712	San Antonio Palopó	9	San Antonio Palopo	3	Marzo	2023-03-19T00:00:00	2024-11-08T18:00:00	5	Humedad	82
160329	7	Sololá	712	San Antonio Palopó	9	San Antonio Palopo	3	Marzo	2023-03-19T00:00:00	2024-11-08T18:00:00	6	Velocidad del viento	3.2
160330	7	Sololá	712	San Antonio Palopó	9	San Antonio Palopo	3	Marzo	2023-03-19T00:00:00	2024-11-08T18:00:00	7	Dirección del viento	3.22
160331	7	Sololá	712	San Antonio Palopó	9	San Antonio Palopo	3	Marzo	2023-03-19T00:00:00	2024-11-08T18:00:00	1	Precipitación	0
160332	7	Sololá	712	San Antonio Palopó	9	San Antonio Palopo	3	Marzo	2023-03-19T00:00:00	2024-11-08T18:00:00	8	Radiación solar	68
160333	7	Sololá	712	San Antonio Palopó	9	San Antonio Palopo	3	Marzo	2023-03-19T00:00:00	2024-11-08T19:00:00	2	Temperatura media	18.6
160334	7	Sololá	712	San Antonio Palopó	9	San Antonio Palopo	3	Marzo	2023-03-19T00:00:00	2024-11-08T19:00:00	4	Temperatura máxima	19.6
160335	7	Sololá	712	San Antonio Palopó	9	San Antonio Palopo	3	Marzo	2023-03-19T00:00:00	2024-11-08T19:00:00	3	Temperatura mínima	18.3
160336	7	Sololá	712	San Antonio Palopó	9	San Antonio Palopo	3	Marzo	2023-03-19T00:00:00	2024-11-08T19:00:00	5	Humedad	84
160337	7	Sololá	712	San Antonio Palopó	9	San Antonio Palopo	3	Marzo	2023-03-19T00:00:00	2024-11-08T19:00:00	6	Velocidad del viento	3.2
160338	7	Sololá	712	San Antonio Palopó	9	San Antonio Palopo	3	Marzo	2023-03-19T00:00:00	2024-11-08T19:00:00	7	Dirección del viento	3.22
160339	7	Sololá	712	San Antonio Palopó	9	San Antonio Palopo	3	Marzo	2023-03-19T00:00:00	2024-11-08T19:00:00	1	Precipitación	0
160340	7	Sololá	712	San Antonio Palopó	9	San Antonio Palopo	3	Marzo	2023-03-19T00:00:00	2024-11-08T19:00:00	8	Radiación solar	0
160341	7	Sololá	712	San Antonio Palopó	9	San Antonio Palopo	3	Marzo	2023-03-19T00:00:00	2024-11-08T20:00:00	2	Temperatura media	18.9
160342	7	Sololá	712	San Antonio Palopó	9	San Antonio Palopo	3	Marzo	2023-03-19T00:00:00	2024-11-08T20:00:00	4	Temperatura máxima	19.2
160343	7	Sololá	712	San Antonio Palopó	9	San Antonio Palopo	3	Marzo	2023-03-19T00:00:00	2024-11-08T20:00:00	3	Temperatura mínima	18.7
160344	7	Sololá	712	San Antonio Palopó	9	San Antonio Palopo	3	Marzo	2023-03-19T00:00:00	2024-11-08T20:00:00	5	Humedad	74
160345	7	Sololá	712	San Antonio Palopó	9	San Antonio Palopo	3	Marzo	2023-03-19T00:00:00	2024-11-08T20:00:00	6	Velocidad del viento	14.5
160346	7	Sololá	712	San Antonio Palopó	9	San Antonio Palopo	3	Marzo	2023-03-19T00:00:00	2024-11-08T20:00:00	7	Dirección del viento	14.48
160347	7	Sololá	712	San Antonio Palopó	9	San Antonio Palopo	3	Marzo	2023-03-19T00:00:00	2024-11-08T20:00:00	1	Precipitación	0
160348	7	Sololá	712	San Antonio Palopó	9	San Antonio Palopo	3	Marzo	2023-03-19T00:00:00	2024-11-08T20:00:00	8	Radiación solar	0
160349	7	Sololá	712	San Antonio Palopó	9	San Antonio Palopo	3	Marzo	2023-03-19T00:00:00	2024-11-08T21:00:00	2	Temperatura media	18.7
160350	7	Sololá	712	San Antonio Palopó	9	San Antonio Palopo	3	Marzo	2023-03-19T00:00:00	2024-11-08T21:00:00	4	Temperatura máxima	19.1
160351	7	Sololá	712	San Antonio Palopó	9	San Antonio Palopo	3	Marzo	2023-03-19T00:00:00	2024-11-08T21:00:00	3	Temperatura mínima	18.6
160352	7	Sololá	712	San Antonio Palopó	9	San Antonio Palopo	3	Marzo	2023-03-19T00:00:00	2024-11-08T21:00:00	5	Humedad	75
160353	7	Sololá	712	San Antonio Palopó	9	San Antonio Palopo	3	Marzo	2023-03-19T00:00:00	2024-11-08T21:00:00	6	Velocidad del viento	14.5
160354	7	Sololá	712	San Antonio Palopó	9	San Antonio Palopo	3	Marzo	2023-03-19T00:00:00	2024-11-08T21:00:00	7	Dirección del viento	14.48
160355	7	Sololá	712	San Antonio Palopó	9	San Antonio Palopo	3	Marzo	2023-03-19T00:00:00	2024-11-08T21:00:00	1	Precipitación	0
160356	7	Sololá	712	San Antonio Palopó	9	San Antonio Palopo	3	Marzo	2023-03-19T00:00:00	2024-11-08T21:00:00	8	Radiación solar	0
160357	7	Sololá	712	San Antonio Palopó	9	San Antonio Palopo	3	Marzo	2023-03-19T00:00:00	2024-11-08T22:00:00	2	Temperatura media	18.6
160358	7	Sololá	712	San Antonio Palopó	9	San Antonio Palopo	3	Marzo	2023-03-19T00:00:00	2024-11-08T22:00:00	4	Temperatura máxima	19.1
160359	7	Sololá	712	San Antonio Palopó	9	San Antonio Palopo	3	Marzo	2023-03-19T00:00:00	2024-11-08T22:00:00	3	Temperatura mínima	18.4
160360	7	Sololá	712	San Antonio Palopó	9	San Antonio Palopo	3	Marzo	2023-03-19T00:00:00	2024-11-08T22:00:00	5	Humedad	75
160361	7	Sololá	712	San Antonio Palopó	9	San Antonio Palopo	3	Marzo	2023-03-19T00:00:00	2024-11-08T22:00:00	6	Velocidad del viento	11.3
160362	7	Sololá	712	San Antonio Palopó	9	San Antonio Palopo	3	Marzo	2023-03-19T00:00:00	2024-11-08T22:00:00	7	Dirección del viento	11.27
160363	7	Sololá	712	San Antonio Palopó	9	San Antonio Palopo	3	Marzo	2023-03-19T00:00:00	2024-11-08T22:00:00	1	Precipitación	0
160364	7	Sololá	712	San Antonio Palopó	9	San Antonio Palopo	3	Marzo	2023-03-19T00:00:00	2024-11-08T22:00:00	8	Radiación solar	0
160365	7	Sololá	712	San Antonio Palopó	9	San Antonio Palopo	3	Marzo	2023-03-19T00:00:00	2024-11-08T23:00:00	2	Temperatura media	18.6
160366	7	Sololá	712	San Antonio Palopó	9	San Antonio Palopo	3	Marzo	2023-03-19T00:00:00	2024-11-08T23:00:00	4	Temperatura máxima	18.8
160367	7	Sololá	712	San Antonio Palopó	9	San Antonio Palopo	3	Marzo	2023-03-19T00:00:00	2024-11-08T23:00:00	3	Temperatura mínima	18.3
160368	7	Sololá	712	San Antonio Palopó	9	San Antonio Palopo	3	Marzo	2023-03-19T00:00:00	2024-11-08T23:00:00	5	Humedad	73
160369	7	Sololá	712	San Antonio Palopó	9	San Antonio Palopo	3	Marzo	2023-03-19T00:00:00	2024-11-08T23:00:00	6	Velocidad del viento	6.4
160370	7	Sololá	712	San Antonio Palopó	9	San Antonio Palopo	3	Marzo	2023-03-19T00:00:00	2024-11-08T23:00:00	7	Dirección del viento	6.44
160371	7	Sololá	712	San Antonio Palopó	9	San Antonio Palopo	3	Marzo	2023-03-19T00:00:00	2024-11-08T23:00:00	1	Precipitación	0
160372	7	Sololá	712	San Antonio Palopó	9	San Antonio Palopo	3	Marzo	2023-03-19T00:00:00	2024-11-08T23:00:00	8	Radiación solar	0
160373	7	Sololá	712	San Antonio Palopó	9	San Antonio Palopo	3	Marzo	2023-03-20T00:00:00	2024-11-08T00:00:00	2	Temperatura media	18.1
160374	7	Sololá	712	San Antonio Palopó	9	San Antonio Palopo	3	Marzo	2023-03-20T00:00:00	2024-11-08T00:00:00	4	Temperatura máxima	18.8
160375	7	Sololá	712	San Antonio Palopó	9	San Antonio Palopo	3	Marzo	2023-03-20T00:00:00	2024-11-08T00:00:00	3	Temperatura mínima	18
160376	7	Sololá	712	San Antonio Palopó	9	San Antonio Palopo	3	Marzo	2023-03-20T00:00:00	2024-11-08T00:00:00	5	Humedad	73
160377	7	Sololá	712	San Antonio Palopó	9	San Antonio Palopo	3	Marzo	2023-03-20T00:00:00	2024-11-08T00:00:00	6	Velocidad del viento	9.7
160378	7	Sololá	712	San Antonio Palopó	9	San Antonio Palopo	3	Marzo	2023-03-20T00:00:00	2024-11-08T00:00:00	7	Dirección del viento	9.66
160379	7	Sololá	712	San Antonio Palopó	9	San Antonio Palopo	3	Marzo	2023-03-20T00:00:00	2024-11-08T00:00:00	1	Precipitación	0
160380	7	Sololá	712	San Antonio Palopó	9	San Antonio Palopo	3	Marzo	2023-03-20T00:00:00	2024-11-08T00:00:00	8	Radiación solar	0
160381	7	Sololá	712	San Antonio Palopó	9	San Antonio Palopo	3	Marzo	2023-03-20T00:00:00	2024-11-08T01:00:00	2	Temperatura media	18.2
160382	7	Sololá	712	San Antonio Palopó	9	San Antonio Palopo	3	Marzo	2023-03-20T00:00:00	2024-11-08T01:00:00	4	Temperatura máxima	18.5
160383	7	Sololá	712	San Antonio Palopó	9	San Antonio Palopo	3	Marzo	2023-03-20T00:00:00	2024-11-08T01:00:00	3	Temperatura mínima	18.1
160384	7	Sololá	712	San Antonio Palopó	9	San Antonio Palopo	3	Marzo	2023-03-20T00:00:00	2024-11-08T01:00:00	5	Humedad	72
160385	7	Sololá	712	San Antonio Palopó	9	San Antonio Palopo	3	Marzo	2023-03-20T00:00:00	2024-11-08T01:00:00	6	Velocidad del viento	8
160386	7	Sololá	712	San Antonio Palopó	9	San Antonio Palopo	3	Marzo	2023-03-20T00:00:00	2024-11-08T01:00:00	7	Dirección del viento	8.05
160387	7	Sololá	712	San Antonio Palopó	9	San Antonio Palopo	3	Marzo	2023-03-20T00:00:00	2024-11-08T01:00:00	1	Precipitación	0
160388	7	Sololá	712	San Antonio Palopó	9	San Antonio Palopo	3	Marzo	2023-03-20T00:00:00	2024-11-08T01:00:00	8	Radiación solar	0
160389	7	Sololá	712	San Antonio Palopó	9	San Antonio Palopo	3	Marzo	2023-03-20T00:00:00	2024-11-08T02:00:00	2	Temperatura media	18.3
160390	7	Sololá	712	San Antonio Palopó	9	San Antonio Palopo	3	Marzo	2023-03-20T00:00:00	2024-11-08T02:00:00	4	Temperatura máxima	18.7
160391	7	Sololá	712	San Antonio Palopó	9	San Antonio Palopo	3	Marzo	2023-03-20T00:00:00	2024-11-08T02:00:00	3	Temperatura mínima	18.3
160392	7	Sololá	712	San Antonio Palopó	9	San Antonio Palopo	3	Marzo	2023-03-20T00:00:00	2024-11-08T02:00:00	5	Humedad	73
160393	7	Sololá	712	San Antonio Palopó	9	San Antonio Palopo	3	Marzo	2023-03-20T00:00:00	2024-11-08T02:00:00	6	Velocidad del viento	11.3
160394	7	Sololá	712	San Antonio Palopó	9	San Antonio Palopo	3	Marzo	2023-03-20T00:00:00	2024-11-08T02:00:00	7	Dirección del viento	11.27
160395	7	Sololá	712	San Antonio Palopó	9	San Antonio Palopo	3	Marzo	2023-03-20T00:00:00	2024-11-08T02:00:00	1	Precipitación	0
160396	7	Sololá	712	San Antonio Palopó	9	San Antonio Palopo	3	Marzo	2023-03-20T00:00:00	2024-11-08T02:00:00	8	Radiación solar	0
160397	7	Sololá	712	San Antonio Palopó	9	San Antonio Palopo	3	Marzo	2023-03-20T00:00:00	2024-11-08T03:00:00	2	Temperatura media	19
160398	7	Sololá	712	San Antonio Palopó	9	San Antonio Palopo	3	Marzo	2023-03-20T00:00:00	2024-11-08T03:00:00	4	Temperatura máxima	19.1
160399	7	Sololá	712	San Antonio Palopó	9	San Antonio Palopo	3	Marzo	2023-03-20T00:00:00	2024-11-08T03:00:00	3	Temperatura mínima	18.3
160400	7	Sololá	712	San Antonio Palopó	9	San Antonio Palopo	3	Marzo	2023-03-20T00:00:00	2024-11-08T03:00:00	5	Humedad	66
160401	7	Sololá	712	San Antonio Palopó	9	San Antonio Palopo	3	Marzo	2023-03-20T00:00:00	2024-11-08T03:00:00	6	Velocidad del viento	9.7
160402	7	Sololá	712	San Antonio Palopó	9	San Antonio Palopo	3	Marzo	2023-03-20T00:00:00	2024-11-08T03:00:00	7	Dirección del viento	9.66
160403	7	Sololá	712	San Antonio Palopó	9	San Antonio Palopo	3	Marzo	2023-03-20T00:00:00	2024-11-08T03:00:00	1	Precipitación	0
160404	7	Sololá	712	San Antonio Palopó	9	San Antonio Palopo	3	Marzo	2023-03-20T00:00:00	2024-11-08T03:00:00	8	Radiación solar	0
160405	7	Sololá	712	San Antonio Palopó	9	San Antonio Palopo	3	Marzo	2023-03-20T00:00:00	2024-11-08T04:00:00	2	Temperatura media	18.7
160406	7	Sololá	712	San Antonio Palopó	9	San Antonio Palopo	3	Marzo	2023-03-20T00:00:00	2024-11-08T04:00:00	4	Temperatura máxima	19.1
160407	7	Sololá	712	San Antonio Palopó	9	San Antonio Palopo	3	Marzo	2023-03-20T00:00:00	2024-11-08T04:00:00	3	Temperatura mínima	18.6
160408	7	Sololá	712	San Antonio Palopó	9	San Antonio Palopo	3	Marzo	2023-03-20T00:00:00	2024-11-08T04:00:00	5	Humedad	64
160409	7	Sololá	712	San Antonio Palopó	9	San Antonio Palopo	3	Marzo	2023-03-20T00:00:00	2024-11-08T04:00:00	6	Velocidad del viento	11.3
160410	7	Sololá	712	San Antonio Palopó	9	San Antonio Palopo	3	Marzo	2023-03-20T00:00:00	2024-11-08T04:00:00	7	Dirección del viento	11.27
160411	7	Sololá	712	San Antonio Palopó	9	San Antonio Palopo	3	Marzo	2023-03-20T00:00:00	2024-11-08T04:00:00	1	Precipitación	0
160412	7	Sololá	712	San Antonio Palopó	9	San Antonio Palopo	3	Marzo	2023-03-20T00:00:00	2024-11-08T04:00:00	8	Radiación solar	0
160413	7	Sololá	712	San Antonio Palopó	9	San Antonio Palopo	3	Marzo	2023-03-20T00:00:00	2024-11-08T05:00:00	2	Temperatura media	19.1
160414	7	Sololá	712	San Antonio Palopó	9	San Antonio Palopo	3	Marzo	2023-03-20T00:00:00	2024-11-08T05:00:00	4	Temperatura máxima	19.2
160415	7	Sololá	712	San Antonio Palopó	9	San Antonio Palopo	3	Marzo	2023-03-20T00:00:00	2024-11-08T05:00:00	3	Temperatura mínima	18.7
160416	7	Sololá	712	San Antonio Palopó	9	San Antonio Palopo	3	Marzo	2023-03-20T00:00:00	2024-11-08T05:00:00	5	Humedad	63
160417	7	Sololá	712	San Antonio Palopó	9	San Antonio Palopo	3	Marzo	2023-03-20T00:00:00	2024-11-08T05:00:00	6	Velocidad del viento	9.7
160418	7	Sololá	712	San Antonio Palopó	9	San Antonio Palopo	3	Marzo	2023-03-20T00:00:00	2024-11-08T05:00:00	7	Dirección del viento	9.66
160419	7	Sololá	712	San Antonio Palopó	9	San Antonio Palopo	3	Marzo	2023-03-20T00:00:00	2024-11-08T05:00:00	1	Precipitación	0
160420	7	Sololá	712	San Antonio Palopó	9	San Antonio Palopo	3	Marzo	2023-03-20T00:00:00	2024-11-08T05:00:00	8	Radiación solar	0
160421	7	Sololá	712	San Antonio Palopó	9	San Antonio Palopo	3	Marzo	2023-03-20T00:00:00	2024-11-08T06:00:00	2	Temperatura media	19.1
160422	7	Sololá	712	San Antonio Palopó	9	San Antonio Palopo	3	Marzo	2023-03-20T00:00:00	2024-11-08T06:00:00	4	Temperatura máxima	19.2
160423	7	Sololá	712	San Antonio Palopó	9	San Antonio Palopo	3	Marzo	2023-03-20T00:00:00	2024-11-08T06:00:00	3	Temperatura mínima	18.9
160424	7	Sololá	712	San Antonio Palopó	9	San Antonio Palopo	3	Marzo	2023-03-20T00:00:00	2024-11-08T06:00:00	5	Humedad	64
160425	7	Sololá	712	San Antonio Palopó	9	San Antonio Palopo	3	Marzo	2023-03-20T00:00:00	2024-11-08T06:00:00	6	Velocidad del viento	8
160426	7	Sololá	712	San Antonio Palopó	9	San Antonio Palopo	3	Marzo	2023-03-20T00:00:00	2024-11-08T06:00:00	7	Dirección del viento	8.05
160427	7	Sololá	712	San Antonio Palopó	9	San Antonio Palopo	3	Marzo	2023-03-20T00:00:00	2024-11-08T06:00:00	1	Precipitación	0
160428	7	Sololá	712	San Antonio Palopó	9	San Antonio Palopo	3	Marzo	2023-03-20T00:00:00	2024-11-08T06:00:00	8	Radiación solar	0
160429	7	Sololá	712	San Antonio Palopó	9	San Antonio Palopo	3	Marzo	2023-03-20T00:00:00	2024-11-08T07:00:00	2	Temperatura media	19.1
160430	7	Sololá	712	San Antonio Palopó	9	San Antonio Palopo	3	Marzo	2023-03-20T00:00:00	2024-11-08T07:00:00	4	Temperatura máxima	19.1
160431	7	Sololá	712	San Antonio Palopó	9	San Antonio Palopo	3	Marzo	2023-03-20T00:00:00	2024-11-08T07:00:00	3	Temperatura mínima	18.9
160432	7	Sololá	712	San Antonio Palopó	9	San Antonio Palopo	3	Marzo	2023-03-20T00:00:00	2024-11-08T07:00:00	5	Humedad	63
160433	7	Sololá	712	San Antonio Palopó	9	San Antonio Palopo	3	Marzo	2023-03-20T00:00:00	2024-11-08T07:00:00	6	Velocidad del viento	6.4
160434	7	Sololá	712	San Antonio Palopó	9	San Antonio Palopo	3	Marzo	2023-03-20T00:00:00	2024-11-08T07:00:00	7	Dirección del viento	6.44
160435	7	Sololá	712	San Antonio Palopó	9	San Antonio Palopo	3	Marzo	2023-03-20T00:00:00	2024-11-08T07:00:00	1	Precipitación	0
160436	7	Sololá	712	San Antonio Palopó	9	San Antonio Palopo	3	Marzo	2023-03-20T00:00:00	2024-11-08T07:00:00	8	Radiación solar	9
160437	7	Sololá	712	San Antonio Palopó	9	San Antonio Palopo	3	Marzo	2023-03-20T00:00:00	2024-11-08T08:00:00	2	Temperatura media	20.1
160438	7	Sololá	712	San Antonio Palopó	9	San Antonio Palopo	3	Marzo	2023-03-20T00:00:00	2024-11-08T08:00:00	4	Temperatura máxima	20.1
160439	7	Sololá	712	San Antonio Palopó	9	San Antonio Palopo	3	Marzo	2023-03-20T00:00:00	2024-11-08T08:00:00	3	Temperatura mínima	19.1
160440	7	Sololá	712	San Antonio Palopó	9	San Antonio Palopo	3	Marzo	2023-03-20T00:00:00	2024-11-08T08:00:00	5	Humedad	63
160441	7	Sololá	712	San Antonio Palopó	9	San Antonio Palopo	3	Marzo	2023-03-20T00:00:00	2024-11-08T08:00:00	6	Velocidad del viento	8
160442	7	Sololá	712	San Antonio Palopó	9	San Antonio Palopo	3	Marzo	2023-03-20T00:00:00	2024-11-08T08:00:00	7	Dirección del viento	8.05
160443	7	Sololá	712	San Antonio Palopó	9	San Antonio Palopo	3	Marzo	2023-03-20T00:00:00	2024-11-08T08:00:00	1	Precipitación	0
160444	7	Sololá	712	San Antonio Palopó	9	San Antonio Palopo	3	Marzo	2023-03-20T00:00:00	2024-11-08T08:00:00	8	Radiación solar	53
160445	7	Sololá	712	San Antonio Palopó	9	San Antonio Palopo	3	Marzo	2023-03-20T00:00:00	2024-11-08T09:00:00	2	Temperatura media	21.1
160446	7	Sololá	712	San Antonio Palopó	9	San Antonio Palopo	3	Marzo	2023-03-20T00:00:00	2024-11-08T09:00:00	4	Temperatura máxima	21.1
160447	7	Sololá	712	San Antonio Palopó	9	San Antonio Palopo	3	Marzo	2023-03-20T00:00:00	2024-11-08T09:00:00	3	Temperatura mínima	20.1
160448	7	Sololá	712	San Antonio Palopó	9	San Antonio Palopo	3	Marzo	2023-03-20T00:00:00	2024-11-08T09:00:00	5	Humedad	62
160449	7	Sololá	712	San Antonio Palopó	9	San Antonio Palopo	3	Marzo	2023-03-20T00:00:00	2024-11-08T09:00:00	6	Velocidad del viento	11.3
160450	7	Sololá	712	San Antonio Palopó	9	San Antonio Palopo	3	Marzo	2023-03-20T00:00:00	2024-11-08T09:00:00	7	Dirección del viento	11.27
160451	7	Sololá	712	San Antonio Palopó	9	San Antonio Palopo	3	Marzo	2023-03-20T00:00:00	2024-11-08T09:00:00	1	Precipitación	0
160452	7	Sololá	712	San Antonio Palopó	9	San Antonio Palopo	3	Marzo	2023-03-20T00:00:00	2024-11-08T09:00:00	8	Radiación solar	405
160453	7	Sololá	712	San Antonio Palopó	9	San Antonio Palopo	3	Marzo	2023-03-20T00:00:00	2024-11-08T10:00:00	2	Temperatura media	22.5
160454	7	Sololá	712	San Antonio Palopó	9	San Antonio Palopo	3	Marzo	2023-03-20T00:00:00	2024-11-08T10:00:00	4	Temperatura máxima	22.8
160455	7	Sololá	712	San Antonio Palopó	9	San Antonio Palopo	3	Marzo	2023-03-20T00:00:00	2024-11-08T10:00:00	3	Temperatura mínima	20.9
160456	7	Sololá	712	San Antonio Palopó	9	San Antonio Palopo	3	Marzo	2023-03-20T00:00:00	2024-11-08T10:00:00	5	Humedad	60
160457	7	Sololá	712	San Antonio Palopó	9	San Antonio Palopo	3	Marzo	2023-03-20T00:00:00	2024-11-08T10:00:00	6	Velocidad del viento	9.7
160458	7	Sololá	712	San Antonio Palopó	9	San Antonio Palopo	3	Marzo	2023-03-20T00:00:00	2024-11-08T10:00:00	7	Dirección del viento	9.66
160459	7	Sololá	712	San Antonio Palopó	9	San Antonio Palopo	3	Marzo	2023-03-20T00:00:00	2024-11-08T10:00:00	1	Precipitación	0
160460	7	Sololá	712	San Antonio Palopó	9	San Antonio Palopo	3	Marzo	2023-03-20T00:00:00	2024-11-08T10:00:00	8	Radiación solar	688
160461	7	Sololá	712	San Antonio Palopó	9	San Antonio Palopo	3	Marzo	2023-03-20T00:00:00	2024-11-08T11:00:00	2	Temperatura media	22.3
160462	7	Sololá	712	San Antonio Palopó	9	San Antonio Palopo	3	Marzo	2023-03-20T00:00:00	2024-11-08T11:00:00	4	Temperatura máxima	22.6
160463	7	Sololá	712	San Antonio Palopó	9	San Antonio Palopo	3	Marzo	2023-03-20T00:00:00	2024-11-08T11:00:00	3	Temperatura mínima	21.9
160464	7	Sololá	712	San Antonio Palopó	9	San Antonio Palopo	3	Marzo	2023-03-20T00:00:00	2024-11-08T11:00:00	5	Humedad	57
160465	7	Sololá	712	San Antonio Palopó	9	San Antonio Palopo	3	Marzo	2023-03-20T00:00:00	2024-11-08T11:00:00	6	Velocidad del viento	12.9
160466	7	Sololá	712	San Antonio Palopó	9	San Antonio Palopo	3	Marzo	2023-03-20T00:00:00	2024-11-08T11:00:00	7	Dirección del viento	12.87
160467	7	Sololá	712	San Antonio Palopó	9	San Antonio Palopo	3	Marzo	2023-03-20T00:00:00	2024-11-08T11:00:00	1	Precipitación	0
160468	7	Sololá	712	San Antonio Palopó	9	San Antonio Palopo	3	Marzo	2023-03-20T00:00:00	2024-11-08T11:00:00	8	Radiación solar	866
160469	7	Sololá	712	San Antonio Palopó	9	San Antonio Palopo	3	Marzo	2023-03-20T00:00:00	2024-11-08T12:00:00	2	Temperatura media	23.6
160470	7	Sololá	712	San Antonio Palopó	9	San Antonio Palopo	3	Marzo	2023-03-20T00:00:00	2024-11-08T12:00:00	4	Temperatura máxima	23.7
160471	7	Sololá	712	San Antonio Palopó	9	San Antonio Palopo	3	Marzo	2023-03-20T00:00:00	2024-11-08T12:00:00	3	Temperatura mínima	22.3
160472	7	Sololá	712	San Antonio Palopó	9	San Antonio Palopo	3	Marzo	2023-03-20T00:00:00	2024-11-08T12:00:00	5	Humedad	55
160473	7	Sololá	712	San Antonio Palopó	9	San Antonio Palopo	3	Marzo	2023-03-20T00:00:00	2024-11-08T12:00:00	6	Velocidad del viento	9.7
160474	7	Sololá	712	San Antonio Palopó	9	San Antonio Palopo	3	Marzo	2023-03-20T00:00:00	2024-11-08T12:00:00	7	Dirección del viento	9.66
160475	7	Sololá	712	San Antonio Palopó	9	San Antonio Palopo	3	Marzo	2023-03-20T00:00:00	2024-11-08T12:00:00	1	Precipitación	0
160476	7	Sololá	712	San Antonio Palopó	9	San Antonio Palopo	3	Marzo	2023-03-20T00:00:00	2024-11-08T12:00:00	8	Radiación solar	848
160477	7	Sololá	712	San Antonio Palopó	9	San Antonio Palopo	3	Marzo	2023-03-20T00:00:00	2024-11-08T13:00:00	2	Temperatura media	24.1
160478	7	Sololá	712	San Antonio Palopó	9	San Antonio Palopo	3	Marzo	2023-03-20T00:00:00	2024-11-08T13:00:00	4	Temperatura máxima	24.9
160479	7	Sololá	712	San Antonio Palopó	9	San Antonio Palopo	3	Marzo	2023-03-20T00:00:00	2024-11-08T13:00:00	3	Temperatura mínima	23.7
160480	7	Sololá	712	San Antonio Palopó	9	San Antonio Palopo	3	Marzo	2023-03-20T00:00:00	2024-11-08T13:00:00	5	Humedad	58
160481	7	Sololá	712	San Antonio Palopó	9	San Antonio Palopo	3	Marzo	2023-03-20T00:00:00	2024-11-08T13:00:00	6	Velocidad del viento	11.3
160482	7	Sololá	712	San Antonio Palopó	9	San Antonio Palopo	3	Marzo	2023-03-20T00:00:00	2024-11-08T13:00:00	7	Dirección del viento	11.27
160483	7	Sololá	712	San Antonio Palopó	9	San Antonio Palopo	3	Marzo	2023-03-20T00:00:00	2024-11-08T13:00:00	1	Precipitación	0
160484	7	Sololá	712	San Antonio Palopó	9	San Antonio Palopo	3	Marzo	2023-03-20T00:00:00	2024-11-08T13:00:00	8	Radiación solar	591
160485	7	Sololá	712	San Antonio Palopó	9	San Antonio Palopo	3	Marzo	2023-03-20T00:00:00	2024-11-08T14:00:00	2	Temperatura media	23.1
160486	7	Sololá	712	San Antonio Palopó	9	San Antonio Palopo	3	Marzo	2023-03-20T00:00:00	2024-11-08T14:00:00	4	Temperatura máxima	24.2
160487	7	Sololá	712	San Antonio Palopó	9	San Antonio Palopo	3	Marzo	2023-03-20T00:00:00	2024-11-08T14:00:00	3	Temperatura mínima	23.1
160488	7	Sololá	712	San Antonio Palopó	9	San Antonio Palopo	3	Marzo	2023-03-20T00:00:00	2024-11-08T14:00:00	5	Humedad	66
160489	7	Sololá	712	San Antonio Palopó	9	San Antonio Palopo	3	Marzo	2023-03-20T00:00:00	2024-11-08T14:00:00	6	Velocidad del viento	9.7
160490	7	Sololá	712	San Antonio Palopó	9	San Antonio Palopo	3	Marzo	2023-03-20T00:00:00	2024-11-08T14:00:00	7	Dirección del viento	9.66
160491	7	Sololá	712	San Antonio Palopó	9	San Antonio Palopo	3	Marzo	2023-03-20T00:00:00	2024-11-08T14:00:00	1	Precipitación	0
160492	7	Sololá	712	San Antonio Palopó	9	San Antonio Palopo	3	Marzo	2023-03-20T00:00:00	2024-11-08T14:00:00	8	Radiación solar	209
160493	7	Sololá	712	San Antonio Palopó	9	San Antonio Palopo	3	Marzo	2023-03-20T00:00:00	2024-11-08T15:00:00	2	Temperatura media	24.6
160494	7	Sololá	712	San Antonio Palopó	9	San Antonio Palopo	3	Marzo	2023-03-20T00:00:00	2024-11-08T15:00:00	4	Temperatura máxima	24.9
160495	7	Sololá	712	San Antonio Palopó	9	San Antonio Palopo	3	Marzo	2023-03-20T00:00:00	2024-11-08T15:00:00	3	Temperatura mínima	22.8
160496	7	Sololá	712	San Antonio Palopó	9	San Antonio Palopo	3	Marzo	2023-03-20T00:00:00	2024-11-08T15:00:00	5	Humedad	68
160497	7	Sololá	712	San Antonio Palopó	9	San Antonio Palopo	3	Marzo	2023-03-20T00:00:00	2024-11-08T15:00:00	6	Velocidad del viento	8
160498	7	Sololá	712	San Antonio Palopó	9	San Antonio Palopo	3	Marzo	2023-03-20T00:00:00	2024-11-08T15:00:00	7	Dirección del viento	8.05
160499	7	Sololá	712	San Antonio Palopó	9	San Antonio Palopo	3	Marzo	2023-03-20T00:00:00	2024-11-08T15:00:00	1	Precipitación	0
160500	7	Sololá	712	San Antonio Palopó	9	San Antonio Palopo	3	Marzo	2023-03-20T00:00:00	2024-11-08T15:00:00	8	Radiación solar	322
160501	7	Sololá	712	San Antonio Palopó	9	San Antonio Palopo	3	Marzo	2023-03-20T00:00:00	2024-11-08T16:00:00	2	Temperatura media	23.3
160502	7	Sololá	712	San Antonio Palopó	9	San Antonio Palopo	3	Marzo	2023-03-20T00:00:00	2024-11-08T16:00:00	4	Temperatura máxima	24.6
160503	7	Sololá	712	San Antonio Palopó	9	San Antonio Palopo	3	Marzo	2023-03-20T00:00:00	2024-11-08T16:00:00	3	Temperatura mínima	23.2
160504	7	Sololá	712	San Antonio Palopó	9	San Antonio Palopo	3	Marzo	2023-03-20T00:00:00	2024-11-08T16:00:00	5	Humedad	56
160505	7	Sololá	712	San Antonio Palopó	9	San Antonio Palopo	3	Marzo	2023-03-20T00:00:00	2024-11-08T16:00:00	6	Velocidad del viento	9.7
160506	7	Sololá	712	San Antonio Palopó	9	San Antonio Palopo	3	Marzo	2023-03-20T00:00:00	2024-11-08T16:00:00	7	Dirección del viento	9.66
160507	7	Sololá	712	San Antonio Palopó	9	San Antonio Palopo	3	Marzo	2023-03-20T00:00:00	2024-11-08T16:00:00	1	Precipitación	0
160508	7	Sololá	712	San Antonio Palopó	9	San Antonio Palopo	3	Marzo	2023-03-20T00:00:00	2024-11-08T16:00:00	8	Radiación solar	195
160509	7	Sololá	712	San Antonio Palopó	9	San Antonio Palopo	3	Marzo	2023-03-20T00:00:00	2024-11-08T17:00:00	2	Temperatura media	21.6
160510	7	Sololá	712	San Antonio Palopó	9	San Antonio Palopo	3	Marzo	2023-03-20T00:00:00	2024-11-08T17:00:00	4	Temperatura máxima	23.3
160511	7	Sololá	712	San Antonio Palopó	9	San Antonio Palopo	3	Marzo	2023-03-20T00:00:00	2024-11-08T17:00:00	3	Temperatura mínima	21.6
160512	7	Sololá	712	San Antonio Palopó	9	San Antonio Palopo	3	Marzo	2023-03-20T00:00:00	2024-11-08T17:00:00	5	Humedad	63
160513	7	Sololá	712	San Antonio Palopó	9	San Antonio Palopo	3	Marzo	2023-03-20T00:00:00	2024-11-08T17:00:00	6	Velocidad del viento	8
160514	7	Sololá	712	San Antonio Palopó	9	San Antonio Palopo	3	Marzo	2023-03-20T00:00:00	2024-11-08T17:00:00	7	Dirección del viento	8.05
160515	7	Sololá	712	San Antonio Palopó	9	San Antonio Palopo	3	Marzo	2023-03-20T00:00:00	2024-11-08T17:00:00	1	Precipitación	0
160516	7	Sololá	712	San Antonio Palopó	9	San Antonio Palopo	3	Marzo	2023-03-20T00:00:00	2024-11-08T17:00:00	8	Radiación solar	23
160517	7	Sololá	712	San Antonio Palopó	9	San Antonio Palopo	3	Marzo	2023-03-20T00:00:00	2024-11-08T18:00:00	2	Temperatura media	20.6
160518	7	Sololá	712	San Antonio Palopó	9	San Antonio Palopo	3	Marzo	2023-03-20T00:00:00	2024-11-08T18:00:00	4	Temperatura máxima	21.6
160519	7	Sololá	712	San Antonio Palopó	9	San Antonio Palopo	3	Marzo	2023-03-20T00:00:00	2024-11-08T18:00:00	3	Temperatura mínima	20.6
160520	7	Sololá	712	San Antonio Palopó	9	San Antonio Palopo	3	Marzo	2023-03-20T00:00:00	2024-11-08T18:00:00	5	Humedad	64
160521	7	Sololá	712	San Antonio Palopó	9	San Antonio Palopo	3	Marzo	2023-03-20T00:00:00	2024-11-08T18:00:00	6	Velocidad del viento	9.7
160522	7	Sololá	712	San Antonio Palopó	9	San Antonio Palopo	3	Marzo	2023-03-20T00:00:00	2024-11-08T18:00:00	7	Dirección del viento	9.66
160523	7	Sololá	712	San Antonio Palopó	9	San Antonio Palopo	3	Marzo	2023-03-20T00:00:00	2024-11-08T18:00:00	1	Precipitación	0
160524	7	Sololá	712	San Antonio Palopó	9	San Antonio Palopo	3	Marzo	2023-03-20T00:00:00	2024-11-08T18:00:00	8	Radiación solar	7
160525	7	Sololá	712	San Antonio Palopó	9	San Antonio Palopo	3	Marzo	2023-03-20T00:00:00	2024-11-08T19:00:00	2	Temperatura media	20.5
160526	7	Sololá	712	San Antonio Palopó	9	San Antonio Palopo	3	Marzo	2023-03-20T00:00:00	2024-11-08T19:00:00	4	Temperatura máxima	20.7
160527	7	Sololá	712	San Antonio Palopó	9	San Antonio Palopo	3	Marzo	2023-03-20T00:00:00	2024-11-08T19:00:00	3	Temperatura mínima	20.2
160528	7	Sololá	712	San Antonio Palopó	9	San Antonio Palopo	3	Marzo	2023-03-20T00:00:00	2024-11-08T19:00:00	5	Humedad	64
160529	7	Sololá	712	San Antonio Palopó	9	San Antonio Palopo	3	Marzo	2023-03-20T00:00:00	2024-11-08T19:00:00	6	Velocidad del viento	9.7
160530	7	Sololá	712	San Antonio Palopó	9	San Antonio Palopo	3	Marzo	2023-03-20T00:00:00	2024-11-08T19:00:00	7	Dirección del viento	9.66
160531	7	Sololá	712	San Antonio Palopó	9	San Antonio Palopo	3	Marzo	2023-03-20T00:00:00	2024-11-08T19:00:00	1	Precipitación	0
160532	7	Sololá	712	San Antonio Palopó	9	San Antonio Palopo	3	Marzo	2023-03-20T00:00:00	2024-11-08T19:00:00	8	Radiación solar	0
160533	7	Sololá	712	San Antonio Palopó	9	San Antonio Palopo	3	Marzo	2023-03-20T00:00:00	2024-11-08T20:00:00	2	Temperatura media	19.2
160534	7	Sololá	712	San Antonio Palopó	9	San Antonio Palopo	3	Marzo	2023-03-20T00:00:00	2024-11-08T20:00:00	4	Temperatura máxima	20.5
160535	7	Sololá	712	San Antonio Palopó	9	San Antonio Palopo	3	Marzo	2023-03-20T00:00:00	2024-11-08T20:00:00	3	Temperatura mínima	19.2
160536	7	Sololá	712	San Antonio Palopó	9	San Antonio Palopo	3	Marzo	2023-03-20T00:00:00	2024-11-08T20:00:00	5	Humedad	67
160537	7	Sololá	712	San Antonio Palopó	9	San Antonio Palopo	3	Marzo	2023-03-20T00:00:00	2024-11-08T20:00:00	6	Velocidad del viento	4.8
160538	7	Sololá	712	San Antonio Palopó	9	San Antonio Palopo	3	Marzo	2023-03-20T00:00:00	2024-11-08T20:00:00	7	Dirección del viento	4.83
160539	7	Sololá	712	San Antonio Palopó	9	San Antonio Palopo	3	Marzo	2023-03-20T00:00:00	2024-11-08T20:00:00	1	Precipitación	0
160540	7	Sololá	712	San Antonio Palopó	9	San Antonio Palopo	3	Marzo	2023-03-20T00:00:00	2024-11-08T20:00:00	8	Radiación solar	0
160541	7	Sololá	712	San Antonio Palopó	9	San Antonio Palopo	3	Marzo	2023-03-20T00:00:00	2024-11-08T21:00:00	2	Temperatura media	18.6
160542	7	Sololá	712	San Antonio Palopó	9	San Antonio Palopo	3	Marzo	2023-03-20T00:00:00	2024-11-08T21:00:00	4	Temperatura máxima	19.2
160543	7	Sololá	712	San Antonio Palopó	9	San Antonio Palopo	3	Marzo	2023-03-20T00:00:00	2024-11-08T21:00:00	3	Temperatura mínima	18.4
160544	7	Sololá	712	San Antonio Palopó	9	San Antonio Palopo	3	Marzo	2023-03-20T00:00:00	2024-11-08T21:00:00	5	Humedad	68
160545	7	Sololá	712	San Antonio Palopó	9	San Antonio Palopo	3	Marzo	2023-03-20T00:00:00	2024-11-08T21:00:00	6	Velocidad del viento	6.4
160546	7	Sololá	712	San Antonio Palopó	9	San Antonio Palopo	3	Marzo	2023-03-20T00:00:00	2024-11-08T21:00:00	7	Dirección del viento	6.44
160547	7	Sololá	712	San Antonio Palopó	9	San Antonio Palopo	3	Marzo	2023-03-20T00:00:00	2024-11-08T21:00:00	1	Precipitación	0
160548	7	Sololá	712	San Antonio Palopó	9	San Antonio Palopo	3	Marzo	2023-03-20T00:00:00	2024-11-08T21:00:00	8	Radiación solar	0
160549	7	Sololá	712	San Antonio Palopó	9	San Antonio Palopo	3	Marzo	2023-03-20T00:00:00	2024-11-08T22:00:00	2	Temperatura media	18.7
160550	7	Sololá	712	San Antonio Palopó	9	San Antonio Palopo	3	Marzo	2023-03-20T00:00:00	2024-11-08T22:00:00	4	Temperatura máxima	18.7
160551	7	Sololá	712	San Antonio Palopó	9	San Antonio Palopo	3	Marzo	2023-03-20T00:00:00	2024-11-08T22:00:00	3	Temperatura mínima	18.4
160552	7	Sololá	712	San Antonio Palopó	9	San Antonio Palopo	3	Marzo	2023-03-20T00:00:00	2024-11-08T22:00:00	5	Humedad	68
160553	7	Sololá	712	San Antonio Palopó	9	San Antonio Palopo	3	Marzo	2023-03-20T00:00:00	2024-11-08T22:00:00	6	Velocidad del viento	4.8
160554	7	Sololá	712	San Antonio Palopó	9	San Antonio Palopo	3	Marzo	2023-03-20T00:00:00	2024-11-08T22:00:00	7	Dirección del viento	4.83
160555	7	Sololá	712	San Antonio Palopó	9	San Antonio Palopo	3	Marzo	2023-03-20T00:00:00	2024-11-08T22:00:00	1	Precipitación	0
160556	7	Sololá	712	San Antonio Palopó	9	San Antonio Palopo	3	Marzo	2023-03-20T00:00:00	2024-11-08T22:00:00	8	Radiación solar	0
160557	7	Sololá	712	San Antonio Palopó	9	San Antonio Palopo	3	Marzo	2023-03-20T00:00:00	2024-11-08T23:00:00	2	Temperatura media	18.6
160558	7	Sololá	712	San Antonio Palopó	9	San Antonio Palopo	3	Marzo	2023-03-20T00:00:00	2024-11-08T23:00:00	4	Temperatura máxima	19.1
160559	7	Sololá	712	San Antonio Palopó	9	San Antonio Palopo	3	Marzo	2023-03-20T00:00:00	2024-11-08T23:00:00	3	Temperatura mínima	18.6
160560	7	Sololá	712	San Antonio Palopó	9	San Antonio Palopo	3	Marzo	2023-03-20T00:00:00	2024-11-08T23:00:00	5	Humedad	69
160561	7	Sololá	712	San Antonio Palopó	9	San Antonio Palopo	3	Marzo	2023-03-20T00:00:00	2024-11-08T23:00:00	6	Velocidad del viento	8
160562	7	Sololá	712	San Antonio Palopó	9	San Antonio Palopo	3	Marzo	2023-03-20T00:00:00	2024-11-08T23:00:00	7	Dirección del viento	8.05
160563	7	Sololá	712	San Antonio Palopó	9	San Antonio Palopo	3	Marzo	2023-03-20T00:00:00	2024-11-08T23:00:00	1	Precipitación	0
160564	7	Sololá	712	San Antonio Palopó	9	San Antonio Palopo	3	Marzo	2023-03-20T00:00:00	2024-11-08T23:00:00	8	Radiación solar	0
160565	7	Sololá	712	San Antonio Palopó	9	San Antonio Palopo	3	Marzo	2023-03-21T00:00:00	2024-11-08T00:00:00	2	Temperatura media	17.9
160566	7	Sololá	712	San Antonio Palopó	9	San Antonio Palopo	3	Marzo	2023-03-21T00:00:00	2024-11-08T00:00:00	4	Temperatura máxima	18.7
160567	7	Sololá	712	San Antonio Palopó	9	San Antonio Palopo	3	Marzo	2023-03-21T00:00:00	2024-11-08T00:00:00	3	Temperatura mínima	17.4
160568	7	Sololá	712	San Antonio Palopó	9	San Antonio Palopo	3	Marzo	2023-03-21T00:00:00	2024-11-08T00:00:00	5	Humedad	71
160569	7	Sololá	712	San Antonio Palopó	9	San Antonio Palopo	3	Marzo	2023-03-21T00:00:00	2024-11-08T00:00:00	6	Velocidad del viento	3.2
160570	7	Sololá	712	San Antonio Palopó	9	San Antonio Palopo	3	Marzo	2023-03-21T00:00:00	2024-11-08T00:00:00	7	Dirección del viento	3.22
160571	7	Sololá	712	San Antonio Palopó	9	San Antonio Palopo	3	Marzo	2023-03-21T00:00:00	2024-11-08T00:00:00	1	Precipitación	0
160572	7	Sololá	712	San Antonio Palopó	9	San Antonio Palopo	3	Marzo	2023-03-21T00:00:00	2024-11-08T00:00:00	8	Radiación solar	0
160573	7	Sololá	712	San Antonio Palopó	9	San Antonio Palopo	3	Marzo	2023-03-21T00:00:00	2024-11-08T01:00:00	2	Temperatura media	18.1
160574	7	Sololá	712	San Antonio Palopó	9	San Antonio Palopo	3	Marzo	2023-03-21T00:00:00	2024-11-08T01:00:00	4	Temperatura máxima	18.2
160575	7	Sololá	712	San Antonio Palopó	9	San Antonio Palopo	3	Marzo	2023-03-21T00:00:00	2024-11-08T01:00:00	3	Temperatura mínima	17.7
160576	7	Sololá	712	San Antonio Palopó	9	San Antonio Palopo	3	Marzo	2023-03-21T00:00:00	2024-11-08T01:00:00	5	Humedad	70
160577	7	Sololá	712	San Antonio Palopó	9	San Antonio Palopo	3	Marzo	2023-03-21T00:00:00	2024-11-08T01:00:00	6	Velocidad del viento	4.8
160578	7	Sololá	712	San Antonio Palopó	9	San Antonio Palopo	3	Marzo	2023-03-21T00:00:00	2024-11-08T01:00:00	7	Dirección del viento	4.83
160579	7	Sololá	712	San Antonio Palopó	9	San Antonio Palopo	3	Marzo	2023-03-21T00:00:00	2024-11-08T01:00:00	1	Precipitación	0
160580	7	Sololá	712	San Antonio Palopó	9	San Antonio Palopo	3	Marzo	2023-03-21T00:00:00	2024-11-08T01:00:00	8	Radiación solar	0
160581	7	Sololá	712	San Antonio Palopó	9	San Antonio Palopo	3	Marzo	2023-03-21T00:00:00	2024-11-08T02:00:00	2	Temperatura media	18.4
160582	7	Sololá	712	San Antonio Palopó	9	San Antonio Palopo	3	Marzo	2023-03-21T00:00:00	2024-11-08T02:00:00	4	Temperatura máxima	18.7
160583	7	Sololá	712	San Antonio Palopó	9	San Antonio Palopo	3	Marzo	2023-03-21T00:00:00	2024-11-08T02:00:00	3	Temperatura mínima	18.2
160584	7	Sololá	712	San Antonio Palopó	9	San Antonio Palopo	3	Marzo	2023-03-21T00:00:00	2024-11-08T02:00:00	5	Humedad	69
160585	7	Sololá	712	San Antonio Palopó	9	San Antonio Palopo	3	Marzo	2023-03-21T00:00:00	2024-11-08T02:00:00	6	Velocidad del viento	6.4
160586	7	Sololá	712	San Antonio Palopó	9	San Antonio Palopo	3	Marzo	2023-03-21T00:00:00	2024-11-08T02:00:00	7	Dirección del viento	6.44
160587	7	Sololá	712	San Antonio Palopó	9	San Antonio Palopo	3	Marzo	2023-03-21T00:00:00	2024-11-08T02:00:00	1	Precipitación	0
160588	7	Sololá	712	San Antonio Palopó	9	San Antonio Palopo	3	Marzo	2023-03-21T00:00:00	2024-11-08T02:00:00	8	Radiación solar	0
160589	7	Sololá	712	San Antonio Palopó	9	San Antonio Palopo	3	Marzo	2023-03-21T00:00:00	2024-11-08T03:00:00	2	Temperatura media	18.1
160590	7	Sololá	712	San Antonio Palopó	9	San Antonio Palopo	3	Marzo	2023-03-21T00:00:00	2024-11-08T03:00:00	4	Temperatura máxima	18.5
160591	7	Sololá	712	San Antonio Palopó	9	San Antonio Palopo	3	Marzo	2023-03-21T00:00:00	2024-11-08T03:00:00	3	Temperatura mínima	17.6
160592	7	Sololá	712	San Antonio Palopó	9	San Antonio Palopo	3	Marzo	2023-03-21T00:00:00	2024-11-08T03:00:00	5	Humedad	70
160593	7	Sololá	712	San Antonio Palopó	9	San Antonio Palopo	3	Marzo	2023-03-21T00:00:00	2024-11-08T03:00:00	6	Velocidad del viento	6.4
160594	7	Sololá	712	San Antonio Palopó	9	San Antonio Palopo	3	Marzo	2023-03-21T00:00:00	2024-11-08T03:00:00	7	Dirección del viento	6.44
160595	7	Sololá	712	San Antonio Palopó	9	San Antonio Palopo	3	Marzo	2023-03-21T00:00:00	2024-11-08T03:00:00	1	Precipitación	0
160596	7	Sololá	712	San Antonio Palopó	9	San Antonio Palopo	3	Marzo	2023-03-21T00:00:00	2024-11-08T03:00:00	8	Radiación solar	0
160597	7	Sololá	712	San Antonio Palopó	9	San Antonio Palopo	3	Marzo	2023-03-21T00:00:00	2024-11-08T04:00:00	2	Temperatura media	17.7
160598	7	Sololá	712	San Antonio Palopó	9	San Antonio Palopo	3	Marzo	2023-03-21T00:00:00	2024-11-08T04:00:00	4	Temperatura máxima	18.3
160599	7	Sololá	712	San Antonio Palopó	9	San Antonio Palopo	3	Marzo	2023-03-21T00:00:00	2024-11-08T04:00:00	3	Temperatura mínima	17.6
160600	7	Sololá	712	San Antonio Palopó	9	San Antonio Palopo	3	Marzo	2023-03-21T00:00:00	2024-11-08T04:00:00	5	Humedad	70
160601	7	Sololá	712	San Antonio Palopó	9	San Antonio Palopo	3	Marzo	2023-03-21T00:00:00	2024-11-08T04:00:00	6	Velocidad del viento	6.4
160602	7	Sololá	712	San Antonio Palopó	9	San Antonio Palopo	3	Marzo	2023-03-21T00:00:00	2024-11-08T04:00:00	7	Dirección del viento	6.44
160603	7	Sololá	712	San Antonio Palopó	9	San Antonio Palopo	3	Marzo	2023-03-21T00:00:00	2024-11-08T04:00:00	1	Precipitación	0
160604	7	Sololá	712	San Antonio Palopó	9	San Antonio Palopo	3	Marzo	2023-03-21T00:00:00	2024-11-08T04:00:00	8	Radiación solar	0
160605	7	Sololá	712	San Antonio Palopó	9	San Antonio Palopo	3	Marzo	2023-03-21T00:00:00	2024-11-08T05:00:00	2	Temperatura media	18.6
160606	7	Sololá	712	San Antonio Palopó	9	San Antonio Palopo	3	Marzo	2023-03-21T00:00:00	2024-11-08T05:00:00	4	Temperatura máxima	18.6
160607	7	Sololá	712	San Antonio Palopó	9	San Antonio Palopo	3	Marzo	2023-03-21T00:00:00	2024-11-08T05:00:00	3	Temperatura mínima	17.8
160608	7	Sololá	712	San Antonio Palopó	9	San Antonio Palopo	3	Marzo	2023-03-21T00:00:00	2024-11-08T05:00:00	5	Humedad	68
160609	7	Sololá	712	San Antonio Palopó	9	San Antonio Palopo	3	Marzo	2023-03-21T00:00:00	2024-11-08T05:00:00	6	Velocidad del viento	6.4
160610	7	Sololá	712	San Antonio Palopó	9	San Antonio Palopo	3	Marzo	2023-03-21T00:00:00	2024-11-08T05:00:00	7	Dirección del viento	6.44
160611	7	Sololá	712	San Antonio Palopó	9	San Antonio Palopo	3	Marzo	2023-03-21T00:00:00	2024-11-08T05:00:00	1	Precipitación	0
160612	7	Sololá	712	San Antonio Palopó	9	San Antonio Palopo	3	Marzo	2023-03-21T00:00:00	2024-11-08T05:00:00	8	Radiación solar	0
160613	7	Sololá	712	San Antonio Palopó	9	San Antonio Palopo	3	Marzo	2023-03-21T00:00:00	2024-11-08T06:00:00	2	Temperatura media	18.2
160614	7	Sololá	712	San Antonio Palopó	9	San Antonio Palopo	3	Marzo	2023-03-21T00:00:00	2024-11-08T06:00:00	4	Temperatura máxima	18.6
160615	7	Sololá	712	San Antonio Palopó	9	San Antonio Palopo	3	Marzo	2023-03-21T00:00:00	2024-11-08T06:00:00	3	Temperatura mínima	18.1
160616	7	Sololá	712	San Antonio Palopó	9	San Antonio Palopo	3	Marzo	2023-03-21T00:00:00	2024-11-08T06:00:00	5	Humedad	68
160617	7	Sololá	712	San Antonio Palopó	9	San Antonio Palopo	3	Marzo	2023-03-21T00:00:00	2024-11-08T06:00:00	6	Velocidad del viento	6.4
160618	7	Sololá	712	San Antonio Palopó	9	San Antonio Palopo	3	Marzo	2023-03-21T00:00:00	2024-11-08T06:00:00	7	Dirección del viento	6.44
160619	7	Sololá	712	San Antonio Palopó	9	San Antonio Palopo	3	Marzo	2023-03-21T00:00:00	2024-11-08T06:00:00	1	Precipitación	0
160620	7	Sololá	712	San Antonio Palopó	9	San Antonio Palopo	3	Marzo	2023-03-21T00:00:00	2024-11-08T06:00:00	8	Radiación solar	0
160621	7	Sololá	712	San Antonio Palopó	9	San Antonio Palopo	3	Marzo	2023-03-21T00:00:00	2024-11-08T07:00:00	2	Temperatura media	18.4
160622	7	Sololá	712	San Antonio Palopó	9	San Antonio Palopo	3	Marzo	2023-03-21T00:00:00	2024-11-08T07:00:00	4	Temperatura máxima	18.4
160623	7	Sololá	712	San Antonio Palopó	9	San Antonio Palopo	3	Marzo	2023-03-21T00:00:00	2024-11-08T07:00:00	3	Temperatura mínima	18.1
160624	7	Sololá	712	San Antonio Palopó	9	San Antonio Palopo	3	Marzo	2023-03-21T00:00:00	2024-11-08T07:00:00	5	Humedad	69
160625	7	Sololá	712	San Antonio Palopó	9	San Antonio Palopo	3	Marzo	2023-03-21T00:00:00	2024-11-08T07:00:00	6	Velocidad del viento	4.8
160626	7	Sololá	712	San Antonio Palopó	9	San Antonio Palopo	3	Marzo	2023-03-21T00:00:00	2024-11-08T07:00:00	7	Dirección del viento	4.83
160627	7	Sololá	712	San Antonio Palopó	9	San Antonio Palopo	3	Marzo	2023-03-21T00:00:00	2024-11-08T07:00:00	1	Precipitación	0
160628	7	Sololá	712	San Antonio Palopó	9	San Antonio Palopo	3	Marzo	2023-03-21T00:00:00	2024-11-08T07:00:00	8	Radiación solar	10
160629	7	Sololá	712	San Antonio Palopó	9	San Antonio Palopo	3	Marzo	2023-03-21T00:00:00	2024-11-08T08:00:00	2	Temperatura media	18.9
160630	7	Sololá	712	San Antonio Palopó	9	San Antonio Palopo	3	Marzo	2023-03-21T00:00:00	2024-11-08T08:00:00	4	Temperatura máxima	18.9
160631	7	Sololá	712	San Antonio Palopó	9	San Antonio Palopo	3	Marzo	2023-03-21T00:00:00	2024-11-08T08:00:00	3	Temperatura mínima	18.2
160632	7	Sololá	712	San Antonio Palopó	9	San Antonio Palopo	3	Marzo	2023-03-21T00:00:00	2024-11-08T08:00:00	5	Humedad	70
160633	7	Sololá	712	San Antonio Palopó	9	San Antonio Palopo	3	Marzo	2023-03-21T00:00:00	2024-11-08T08:00:00	6	Velocidad del viento	3.2
160634	7	Sololá	712	San Antonio Palopó	9	San Antonio Palopo	3	Marzo	2023-03-21T00:00:00	2024-11-08T08:00:00	7	Dirección del viento	3.22
160635	7	Sololá	712	San Antonio Palopó	9	San Antonio Palopo	3	Marzo	2023-03-21T00:00:00	2024-11-08T08:00:00	1	Precipitación	0
160636	7	Sololá	712	San Antonio Palopó	9	San Antonio Palopo	3	Marzo	2023-03-21T00:00:00	2024-11-08T08:00:00	8	Radiación solar	52
160637	7	Sololá	712	San Antonio Palopó	9	San Antonio Palopo	3	Marzo	2023-03-21T00:00:00	2024-11-08T09:00:00	2	Temperatura media	21.1
160638	7	Sololá	712	San Antonio Palopó	9	San Antonio Palopo	3	Marzo	2023-03-21T00:00:00	2024-11-08T09:00:00	4	Temperatura máxima	21.4
160639	7	Sololá	712	San Antonio Palopó	9	San Antonio Palopo	3	Marzo	2023-03-21T00:00:00	2024-11-08T09:00:00	3	Temperatura mínima	18.9
160640	7	Sololá	712	San Antonio Palopó	9	San Antonio Palopo	3	Marzo	2023-03-21T00:00:00	2024-11-08T09:00:00	5	Humedad	66
160641	7	Sololá	712	San Antonio Palopó	9	San Antonio Palopo	3	Marzo	2023-03-21T00:00:00	2024-11-08T09:00:00	6	Velocidad del viento	1.6
160642	7	Sololá	712	San Antonio Palopó	9	San Antonio Palopo	3	Marzo	2023-03-21T00:00:00	2024-11-08T09:00:00	7	Dirección del viento	1.61
160643	7	Sololá	712	San Antonio Palopó	9	San Antonio Palopo	3	Marzo	2023-03-21T00:00:00	2024-11-08T09:00:00	1	Precipitación	0
160644	7	Sololá	712	San Antonio Palopó	9	San Antonio Palopo	3	Marzo	2023-03-21T00:00:00	2024-11-08T09:00:00	8	Radiación solar	275
160645	7	Sololá	712	San Antonio Palopó	9	San Antonio Palopo	3	Marzo	2023-03-21T00:00:00	2024-11-08T10:00:00	2	Temperatura media	21.8
160646	7	Sololá	712	San Antonio Palopó	9	San Antonio Palopo	3	Marzo	2023-03-21T00:00:00	2024-11-08T10:00:00	4	Temperatura máxima	21.8
160647	7	Sololá	712	San Antonio Palopó	9	San Antonio Palopo	3	Marzo	2023-03-21T00:00:00	2024-11-08T10:00:00	3	Temperatura mínima	20.8
160648	7	Sololá	712	San Antonio Palopó	9	San Antonio Palopo	3	Marzo	2023-03-21T00:00:00	2024-11-08T10:00:00	5	Humedad	63
160649	7	Sololá	712	San Antonio Palopó	9	San Antonio Palopo	3	Marzo	2023-03-21T00:00:00	2024-11-08T10:00:00	6	Velocidad del viento	4.8
160650	7	Sololá	712	San Antonio Palopó	9	San Antonio Palopo	3	Marzo	2023-03-21T00:00:00	2024-11-08T10:00:00	7	Dirección del viento	4.83
160651	7	Sololá	712	San Antonio Palopó	9	San Antonio Palopo	3	Marzo	2023-03-21T00:00:00	2024-11-08T10:00:00	1	Precipitación	0
160652	7	Sololá	712	San Antonio Palopó	9	San Antonio Palopo	3	Marzo	2023-03-21T00:00:00	2024-11-08T10:00:00	8	Radiación solar	433
160653	7	Sololá	712	San Antonio Palopó	9	San Antonio Palopo	3	Marzo	2023-03-21T00:00:00	2024-11-08T11:00:00	2	Temperatura media	23.3
160654	7	Sololá	712	San Antonio Palopó	9	San Antonio Palopo	3	Marzo	2023-03-21T00:00:00	2024-11-08T11:00:00	4	Temperatura máxima	23.8
160655	7	Sololá	712	San Antonio Palopó	9	San Antonio Palopo	3	Marzo	2023-03-21T00:00:00	2024-11-08T11:00:00	3	Temperatura mínima	21.8
160656	7	Sololá	712	San Antonio Palopó	9	San Antonio Palopo	3	Marzo	2023-03-21T00:00:00	2024-11-08T11:00:00	5	Humedad	60
160657	7	Sololá	712	San Antonio Palopó	9	San Antonio Palopo	3	Marzo	2023-03-21T00:00:00	2024-11-08T11:00:00	6	Velocidad del viento	6.4
160658	7	Sololá	712	San Antonio Palopó	9	San Antonio Palopo	3	Marzo	2023-03-21T00:00:00	2024-11-08T11:00:00	7	Dirección del viento	6.44
160659	7	Sololá	712	San Antonio Palopó	9	San Antonio Palopo	3	Marzo	2023-03-21T00:00:00	2024-11-08T11:00:00	1	Precipitación	0
160660	7	Sololá	712	San Antonio Palopó	9	San Antonio Palopo	3	Marzo	2023-03-21T00:00:00	2024-11-08T11:00:00	8	Radiación solar	856
160661	7	Sololá	712	San Antonio Palopó	9	San Antonio Palopo	3	Marzo	2023-03-21T00:00:00	2024-11-08T12:00:00	2	Temperatura media	23.3
160662	7	Sololá	712	San Antonio Palopó	9	San Antonio Palopo	3	Marzo	2023-03-21T00:00:00	2024-11-08T12:00:00	4	Temperatura máxima	23.8
160663	7	Sololá	712	San Antonio Palopó	9	San Antonio Palopo	3	Marzo	2023-03-21T00:00:00	2024-11-08T12:00:00	3	Temperatura mínima	23
160664	7	Sololá	712	San Antonio Palopó	9	San Antonio Palopo	3	Marzo	2023-03-21T00:00:00	2024-11-08T12:00:00	5	Humedad	54
160665	7	Sololá	712	San Antonio Palopó	9	San Antonio Palopo	3	Marzo	2023-03-21T00:00:00	2024-11-08T12:00:00	6	Velocidad del viento	11.3
160666	7	Sololá	712	San Antonio Palopó	9	San Antonio Palopo	3	Marzo	2023-03-21T00:00:00	2024-11-08T12:00:00	7	Dirección del viento	11.27
160667	7	Sololá	712	San Antonio Palopó	9	San Antonio Palopo	3	Marzo	2023-03-21T00:00:00	2024-11-08T12:00:00	1	Precipitación	0
160668	7	Sololá	712	San Antonio Palopó	9	San Antonio Palopo	3	Marzo	2023-03-21T00:00:00	2024-11-08T12:00:00	8	Radiación solar	854
160669	7	Sololá	712	San Antonio Palopó	9	San Antonio Palopo	3	Marzo	2023-03-21T00:00:00	2024-11-08T13:00:00	2	Temperatura media	24.5
160670	7	Sololá	712	San Antonio Palopó	9	San Antonio Palopo	3	Marzo	2023-03-21T00:00:00	2024-11-08T13:00:00	4	Temperatura máxima	24.7
160671	7	Sololá	712	San Antonio Palopó	9	San Antonio Palopo	3	Marzo	2023-03-21T00:00:00	2024-11-08T13:00:00	3	Temperatura mínima	23.1
160672	7	Sololá	712	San Antonio Palopó	9	San Antonio Palopo	3	Marzo	2023-03-21T00:00:00	2024-11-08T13:00:00	5	Humedad	47
160673	7	Sololá	712	San Antonio Palopó	9	San Antonio Palopo	3	Marzo	2023-03-21T00:00:00	2024-11-08T13:00:00	6	Velocidad del viento	11.3
160674	7	Sololá	712	San Antonio Palopó	9	San Antonio Palopo	3	Marzo	2023-03-21T00:00:00	2024-11-08T13:00:00	7	Dirección del viento	11.27
160675	7	Sololá	712	San Antonio Palopó	9	San Antonio Palopo	3	Marzo	2023-03-21T00:00:00	2024-11-08T13:00:00	1	Precipitación	0
160676	7	Sololá	712	San Antonio Palopó	9	San Antonio Palopo	3	Marzo	2023-03-21T00:00:00	2024-11-08T13:00:00	8	Radiación solar	649
160677	7	Sololá	712	San Antonio Palopó	9	San Antonio Palopo	3	Marzo	2023-03-21T00:00:00	2024-11-08T14:00:00	2	Temperatura media	24.3
160678	7	Sololá	712	San Antonio Palopó	9	San Antonio Palopo	3	Marzo	2023-03-21T00:00:00	2024-11-08T14:00:00	4	Temperatura máxima	24.6
160679	7	Sololá	712	San Antonio Palopó	9	San Antonio Palopo	3	Marzo	2023-03-21T00:00:00	2024-11-08T14:00:00	3	Temperatura mínima	24.1
160680	7	Sololá	712	San Antonio Palopó	9	San Antonio Palopo	3	Marzo	2023-03-21T00:00:00	2024-11-08T14:00:00	5	Humedad	50
160681	7	Sololá	712	San Antonio Palopó	9	San Antonio Palopo	3	Marzo	2023-03-21T00:00:00	2024-11-08T14:00:00	6	Velocidad del viento	9.7
160682	7	Sololá	712	San Antonio Palopó	9	San Antonio Palopo	3	Marzo	2023-03-21T00:00:00	2024-11-08T14:00:00	7	Dirección del viento	9.66
160683	7	Sololá	712	San Antonio Palopó	9	San Antonio Palopo	3	Marzo	2023-03-21T00:00:00	2024-11-08T14:00:00	1	Precipitación	0
160684	7	Sololá	712	San Antonio Palopó	9	San Antonio Palopo	3	Marzo	2023-03-21T00:00:00	2024-11-08T14:00:00	8	Radiación solar	334
160685	7	Sololá	712	San Antonio Palopó	9	San Antonio Palopo	3	Marzo	2023-03-21T00:00:00	2024-11-08T15:00:00	2	Temperatura media	24.2
160686	7	Sololá	712	San Antonio Palopó	9	San Antonio Palopo	3	Marzo	2023-03-21T00:00:00	2024-11-08T15:00:00	4	Temperatura máxima	24.9
160687	7	Sololá	712	San Antonio Palopó	9	San Antonio Palopo	3	Marzo	2023-03-21T00:00:00	2024-11-08T15:00:00	3	Temperatura mínima	24.1
160688	7	Sololá	712	San Antonio Palopó	9	San Antonio Palopo	3	Marzo	2023-03-21T00:00:00	2024-11-08T15:00:00	5	Humedad	47
160689	7	Sololá	712	San Antonio Palopó	9	San Antonio Palopo	3	Marzo	2023-03-21T00:00:00	2024-11-08T15:00:00	6	Velocidad del viento	8
160690	7	Sololá	712	San Antonio Palopó	9	San Antonio Palopo	3	Marzo	2023-03-21T00:00:00	2024-11-08T15:00:00	7	Dirección del viento	8.05
160691	7	Sololá	712	San Antonio Palopó	9	San Antonio Palopo	3	Marzo	2023-03-21T00:00:00	2024-11-08T15:00:00	1	Precipitación	0
160692	7	Sololá	712	San Antonio Palopó	9	San Antonio Palopo	3	Marzo	2023-03-21T00:00:00	2024-11-08T15:00:00	8	Radiación solar	237
160693	7	Sololá	712	San Antonio Palopó	9	San Antonio Palopo	3	Marzo	2023-03-21T00:00:00	2024-11-08T16:00:00	2	Temperatura media	24.1
160694	7	Sololá	712	San Antonio Palopó	9	San Antonio Palopo	3	Marzo	2023-03-21T00:00:00	2024-11-08T16:00:00	4	Temperatura máxima	24.5
160695	7	Sololá	712	San Antonio Palopó	9	San Antonio Palopo	3	Marzo	2023-03-21T00:00:00	2024-11-08T16:00:00	3	Temperatura mínima	23.8
160696	7	Sololá	712	San Antonio Palopó	9	San Antonio Palopo	3	Marzo	2023-03-21T00:00:00	2024-11-08T16:00:00	5	Humedad	50
160697	7	Sololá	712	San Antonio Palopó	9	San Antonio Palopo	3	Marzo	2023-03-21T00:00:00	2024-11-08T16:00:00	6	Velocidad del viento	6.4
160698	7	Sololá	712	San Antonio Palopó	9	San Antonio Palopo	3	Marzo	2023-03-21T00:00:00	2024-11-08T16:00:00	7	Dirección del viento	6.44
160699	7	Sololá	712	San Antonio Palopó	9	San Antonio Palopo	3	Marzo	2023-03-21T00:00:00	2024-11-08T16:00:00	1	Precipitación	0
160700	7	Sololá	712	San Antonio Palopó	9	San Antonio Palopo	3	Marzo	2023-03-21T00:00:00	2024-11-08T16:00:00	8	Radiación solar	210
160701	7	Sololá	712	San Antonio Palopó	9	San Antonio Palopo	3	Marzo	2023-03-21T00:00:00	2024-11-08T17:00:00	2	Temperatura media	23.7
160702	7	Sololá	712	San Antonio Palopó	9	San Antonio Palopo	3	Marzo	2023-03-21T00:00:00	2024-11-08T17:00:00	4	Temperatura máxima	24.6
160703	7	Sololá	712	San Antonio Palopó	9	San Antonio Palopo	3	Marzo	2023-03-21T00:00:00	2024-11-08T17:00:00	3	Temperatura mínima	23.7
160704	7	Sololá	712	San Antonio Palopó	9	San Antonio Palopo	3	Marzo	2023-03-21T00:00:00	2024-11-08T17:00:00	5	Humedad	52
160705	7	Sololá	712	San Antonio Palopó	9	San Antonio Palopo	3	Marzo	2023-03-21T00:00:00	2024-11-08T17:00:00	6	Velocidad del viento	14.5
160706	7	Sololá	712	San Antonio Palopó	9	San Antonio Palopo	3	Marzo	2023-03-21T00:00:00	2024-11-08T17:00:00	7	Dirección del viento	14.48
160707	7	Sololá	712	San Antonio Palopó	9	San Antonio Palopo	3	Marzo	2023-03-21T00:00:00	2024-11-08T17:00:00	1	Precipitación	0
160708	7	Sololá	712	San Antonio Palopó	9	San Antonio Palopo	3	Marzo	2023-03-21T00:00:00	2024-11-08T17:00:00	8	Radiación solar	336
160709	7	Sololá	712	San Antonio Palopó	9	San Antonio Palopo	3	Marzo	2023-03-21T00:00:00	2024-11-08T18:00:00	2	Temperatura media	22.6
160710	7	Sololá	712	San Antonio Palopó	9	San Antonio Palopo	3	Marzo	2023-03-21T00:00:00	2024-11-08T18:00:00	4	Temperatura máxima	23.7
160711	7	Sololá	712	San Antonio Palopó	9	San Antonio Palopo	3	Marzo	2023-03-21T00:00:00	2024-11-08T18:00:00	3	Temperatura mínima	22.6
160712	7	Sololá	712	San Antonio Palopó	9	San Antonio Palopo	3	Marzo	2023-03-21T00:00:00	2024-11-08T18:00:00	5	Humedad	58
160713	7	Sololá	712	San Antonio Palopó	9	San Antonio Palopo	3	Marzo	2023-03-21T00:00:00	2024-11-08T18:00:00	6	Velocidad del viento	8
160714	7	Sololá	712	San Antonio Palopó	9	San Antonio Palopo	3	Marzo	2023-03-21T00:00:00	2024-11-08T18:00:00	7	Dirección del viento	8.05
160715	7	Sololá	712	San Antonio Palopó	9	San Antonio Palopo	3	Marzo	2023-03-21T00:00:00	2024-11-08T18:00:00	1	Precipitación	0
160716	7	Sololá	712	San Antonio Palopó	9	San Antonio Palopo	3	Marzo	2023-03-21T00:00:00	2024-11-08T18:00:00	8	Radiación solar	58
160717	7	Sololá	712	San Antonio Palopó	9	San Antonio Palopo	3	Marzo	2023-03-21T00:00:00	2024-11-08T19:00:00	2	Temperatura media	20.6
160718	7	Sololá	712	San Antonio Palopó	9	San Antonio Palopo	3	Marzo	2023-03-21T00:00:00	2024-11-08T19:00:00	4	Temperatura máxima	22.7
160719	7	Sololá	712	San Antonio Palopó	9	San Antonio Palopo	3	Marzo	2023-03-21T00:00:00	2024-11-08T19:00:00	3	Temperatura mínima	20.6
160720	7	Sololá	712	San Antonio Palopó	9	San Antonio Palopo	3	Marzo	2023-03-21T00:00:00	2024-11-08T19:00:00	5	Humedad	67
160721	7	Sololá	712	San Antonio Palopó	9	San Antonio Palopo	3	Marzo	2023-03-21T00:00:00	2024-11-08T19:00:00	6	Velocidad del viento	6.4
160722	7	Sololá	712	San Antonio Palopó	9	San Antonio Palopo	3	Marzo	2023-03-21T00:00:00	2024-11-08T19:00:00	7	Dirección del viento	6.44
160723	7	Sololá	712	San Antonio Palopó	9	San Antonio Palopo	3	Marzo	2023-03-21T00:00:00	2024-11-08T19:00:00	1	Precipitación	0
160724	7	Sololá	712	San Antonio Palopó	9	San Antonio Palopo	3	Marzo	2023-03-21T00:00:00	2024-11-08T19:00:00	8	Radiación solar	0
160725	7	Sololá	712	San Antonio Palopó	9	San Antonio Palopo	3	Marzo	2023-03-21T00:00:00	2024-11-08T20:00:00	2	Temperatura media	20.7
160726	7	Sololá	712	San Antonio Palopó	9	San Antonio Palopo	3	Marzo	2023-03-21T00:00:00	2024-11-08T20:00:00	4	Temperatura máxima	20.8
160727	7	Sololá	712	San Antonio Palopó	9	San Antonio Palopo	3	Marzo	2023-03-21T00:00:00	2024-11-08T20:00:00	3	Temperatura mínima	20.4
160728	7	Sololá	712	San Antonio Palopó	9	San Antonio Palopo	3	Marzo	2023-03-21T00:00:00	2024-11-08T20:00:00	5	Humedad	69
160729	7	Sololá	712	San Antonio Palopó	9	San Antonio Palopo	3	Marzo	2023-03-21T00:00:00	2024-11-08T20:00:00	6	Velocidad del viento	8
160730	7	Sololá	712	San Antonio Palopó	9	San Antonio Palopo	3	Marzo	2023-03-21T00:00:00	2024-11-08T20:00:00	7	Dirección del viento	8.05
160731	7	Sololá	712	San Antonio Palopó	9	San Antonio Palopo	3	Marzo	2023-03-21T00:00:00	2024-11-08T20:00:00	1	Precipitación	0
160732	7	Sololá	712	San Antonio Palopó	9	San Antonio Palopo	3	Marzo	2023-03-21T00:00:00	2024-11-08T20:00:00	8	Radiación solar	0
160733	7	Sololá	712	San Antonio Palopó	9	San Antonio Palopo	3	Marzo	2023-03-21T00:00:00	2024-11-08T21:00:00	2	Temperatura media	20.7
160734	7	Sololá	712	San Antonio Palopó	9	San Antonio Palopo	3	Marzo	2023-03-21T00:00:00	2024-11-08T21:00:00	4	Temperatura máxima	20.9
160735	7	Sololá	712	San Antonio Palopó	9	San Antonio Palopo	3	Marzo	2023-03-21T00:00:00	2024-11-08T21:00:00	3	Temperatura mínima	20.6
160736	7	Sololá	712	San Antonio Palopó	9	San Antonio Palopo	3	Marzo	2023-03-21T00:00:00	2024-11-08T21:00:00	5	Humedad	65
160737	7	Sololá	712	San Antonio Palopó	9	San Antonio Palopo	3	Marzo	2023-03-21T00:00:00	2024-11-08T21:00:00	6	Velocidad del viento	8
160738	7	Sololá	712	San Antonio Palopó	9	San Antonio Palopo	3	Marzo	2023-03-21T00:00:00	2024-11-08T21:00:00	7	Dirección del viento	8.05
160739	7	Sololá	712	San Antonio Palopó	9	San Antonio Palopo	3	Marzo	2023-03-21T00:00:00	2024-11-08T21:00:00	1	Precipitación	0
160740	7	Sololá	712	San Antonio Palopó	9	San Antonio Palopo	3	Marzo	2023-03-21T00:00:00	2024-11-08T21:00:00	8	Radiación solar	0
160741	7	Sololá	712	San Antonio Palopó	9	San Antonio Palopo	3	Marzo	2023-03-21T00:00:00	2024-11-08T22:00:00	2	Temperatura media	20.6
160742	7	Sololá	712	San Antonio Palopó	9	San Antonio Palopo	3	Marzo	2023-03-21T00:00:00	2024-11-08T22:00:00	4	Temperatura máxima	20.8
160743	7	Sololá	712	San Antonio Palopó	9	San Antonio Palopo	3	Marzo	2023-03-21T00:00:00	2024-11-08T22:00:00	3	Temperatura mínima	20.2
160744	7	Sololá	712	San Antonio Palopó	9	San Antonio Palopo	3	Marzo	2023-03-21T00:00:00	2024-11-08T22:00:00	5	Humedad	66
160745	7	Sololá	712	San Antonio Palopó	9	San Antonio Palopo	3	Marzo	2023-03-21T00:00:00	2024-11-08T22:00:00	6	Velocidad del viento	4.8
160746	7	Sololá	712	San Antonio Palopó	9	San Antonio Palopo	3	Marzo	2023-03-21T00:00:00	2024-11-08T22:00:00	7	Dirección del viento	4.83
160747	7	Sololá	712	San Antonio Palopó	9	San Antonio Palopo	3	Marzo	2023-03-21T00:00:00	2024-11-08T22:00:00	1	Precipitación	0
160748	7	Sololá	712	San Antonio Palopó	9	San Antonio Palopo	3	Marzo	2023-03-21T00:00:00	2024-11-08T22:00:00	8	Radiación solar	0
160749	7	Sololá	712	San Antonio Palopó	9	San Antonio Palopo	3	Marzo	2023-03-21T00:00:00	2024-11-08T23:00:00	2	Temperatura media	20.2
160750	7	Sololá	712	San Antonio Palopó	9	San Antonio Palopo	3	Marzo	2023-03-21T00:00:00	2024-11-08T23:00:00	4	Temperatura máxima	20.9
160751	7	Sololá	712	San Antonio Palopó	9	San Antonio Palopo	3	Marzo	2023-03-21T00:00:00	2024-11-08T23:00:00	3	Temperatura mínima	20.2
160752	7	Sololá	712	San Antonio Palopó	9	San Antonio Palopo	3	Marzo	2023-03-21T00:00:00	2024-11-08T23:00:00	5	Humedad	66
160753	7	Sololá	712	San Antonio Palopó	9	San Antonio Palopo	3	Marzo	2023-03-21T00:00:00	2024-11-08T23:00:00	6	Velocidad del viento	8
160754	7	Sololá	712	San Antonio Palopó	9	San Antonio Palopo	3	Marzo	2023-03-21T00:00:00	2024-11-08T23:00:00	7	Dirección del viento	8.05
160755	7	Sololá	712	San Antonio Palopó	9	San Antonio Palopo	3	Marzo	2023-03-21T00:00:00	2024-11-08T23:00:00	1	Precipitación	0
160756	7	Sololá	712	San Antonio Palopó	9	San Antonio Palopo	3	Marzo	2023-03-21T00:00:00	2024-11-08T23:00:00	8	Radiación solar	0
160757	7	Sololá	712	San Antonio Palopó	9	San Antonio Palopo	3	Marzo	2023-03-22T00:00:00	2024-11-08T00:00:00	2	Temperatura media	19.9
160758	7	Sololá	712	San Antonio Palopó	9	San Antonio Palopo	3	Marzo	2023-03-22T00:00:00	2024-11-08T00:00:00	4	Temperatura máxima	20.2
160759	7	Sololá	712	San Antonio Palopó	9	San Antonio Palopo	3	Marzo	2023-03-22T00:00:00	2024-11-08T00:00:00	3	Temperatura mínima	19.6
160760	7	Sololá	712	San Antonio Palopó	9	San Antonio Palopo	3	Marzo	2023-03-22T00:00:00	2024-11-08T00:00:00	5	Humedad	66
160761	7	Sololá	712	San Antonio Palopó	9	San Antonio Palopo	3	Marzo	2023-03-22T00:00:00	2024-11-08T00:00:00	6	Velocidad del viento	6.4
160762	7	Sololá	712	San Antonio Palopó	9	San Antonio Palopo	3	Marzo	2023-03-22T00:00:00	2024-11-08T00:00:00	7	Dirección del viento	6.44
160763	7	Sololá	712	San Antonio Palopó	9	San Antonio Palopo	3	Marzo	2023-03-22T00:00:00	2024-11-08T00:00:00	1	Precipitación	0
160764	7	Sololá	712	San Antonio Palopó	9	San Antonio Palopo	3	Marzo	2023-03-22T00:00:00	2024-11-08T00:00:00	8	Radiación solar	0
160765	7	Sololá	712	San Antonio Palopó	9	San Antonio Palopo	3	Marzo	2023-03-22T00:00:00	2024-11-08T01:00:00	2	Temperatura media	19.7
160766	7	Sololá	712	San Antonio Palopó	9	San Antonio Palopo	3	Marzo	2023-03-22T00:00:00	2024-11-08T01:00:00	4	Temperatura máxima	20.3
160767	7	Sololá	712	San Antonio Palopó	9	San Antonio Palopo	3	Marzo	2023-03-22T00:00:00	2024-11-08T01:00:00	3	Temperatura mínima	19.7
160768	7	Sololá	712	San Antonio Palopó	9	San Antonio Palopo	3	Marzo	2023-03-22T00:00:00	2024-11-08T01:00:00	5	Humedad	66
160769	7	Sololá	712	San Antonio Palopó	9	San Antonio Palopo	3	Marzo	2023-03-22T00:00:00	2024-11-08T01:00:00	6	Velocidad del viento	6.4
160770	7	Sololá	712	San Antonio Palopó	9	San Antonio Palopo	3	Marzo	2023-03-22T00:00:00	2024-11-08T01:00:00	7	Dirección del viento	6.44
160771	7	Sololá	712	San Antonio Palopó	9	San Antonio Palopo	3	Marzo	2023-03-22T00:00:00	2024-11-08T01:00:00	1	Precipitación	0
160772	7	Sololá	712	San Antonio Palopó	9	San Antonio Palopo	3	Marzo	2023-03-22T00:00:00	2024-11-08T01:00:00	8	Radiación solar	0
160773	7	Sololá	712	San Antonio Palopó	9	San Antonio Palopo	3	Marzo	2023-03-22T00:00:00	2024-11-08T02:00:00	2	Temperatura media	19.2
160774	7	Sololá	712	San Antonio Palopó	9	San Antonio Palopo	3	Marzo	2023-03-22T00:00:00	2024-11-08T02:00:00	4	Temperatura máxima	19.7
160775	7	Sololá	712	San Antonio Palopó	9	San Antonio Palopo	3	Marzo	2023-03-22T00:00:00	2024-11-08T02:00:00	3	Temperatura mínima	18.8
160776	7	Sololá	712	San Antonio Palopó	9	San Antonio Palopo	3	Marzo	2023-03-22T00:00:00	2024-11-08T02:00:00	5	Humedad	66
160777	7	Sololá	712	San Antonio Palopó	9	San Antonio Palopo	3	Marzo	2023-03-22T00:00:00	2024-11-08T02:00:00	6	Velocidad del viento	3.2
160778	7	Sololá	712	San Antonio Palopó	9	San Antonio Palopo	3	Marzo	2023-03-22T00:00:00	2024-11-08T02:00:00	7	Dirección del viento	3.22
160779	7	Sololá	712	San Antonio Palopó	9	San Antonio Palopo	3	Marzo	2023-03-22T00:00:00	2024-11-08T02:00:00	1	Precipitación	0
160780	7	Sololá	712	San Antonio Palopó	9	San Antonio Palopo	3	Marzo	2023-03-22T00:00:00	2024-11-08T02:00:00	8	Radiación solar	0
160781	7	Sololá	712	San Antonio Palopó	9	San Antonio Palopo	3	Marzo	2023-03-22T00:00:00	2024-11-08T03:00:00	2	Temperatura media	19.4
160782	7	Sololá	712	San Antonio Palopó	9	San Antonio Palopo	3	Marzo	2023-03-22T00:00:00	2024-11-08T03:00:00	4	Temperatura máxima	19.6
160783	7	Sololá	712	San Antonio Palopó	9	San Antonio Palopo	3	Marzo	2023-03-22T00:00:00	2024-11-08T03:00:00	3	Temperatura mínima	19.2
160784	7	Sololá	712	San Antonio Palopó	9	San Antonio Palopo	3	Marzo	2023-03-22T00:00:00	2024-11-08T03:00:00	5	Humedad	68
160785	7	Sololá	712	San Antonio Palopó	9	San Antonio Palopo	3	Marzo	2023-03-22T00:00:00	2024-11-08T03:00:00	6	Velocidad del viento	4.8
160786	7	Sololá	712	San Antonio Palopó	9	San Antonio Palopo	3	Marzo	2023-03-22T00:00:00	2024-11-08T03:00:00	7	Dirección del viento	4.83
160787	7	Sololá	712	San Antonio Palopó	9	San Antonio Palopo	3	Marzo	2023-03-22T00:00:00	2024-11-08T03:00:00	1	Precipitación	0
160788	7	Sololá	712	San Antonio Palopó	9	San Antonio Palopo	3	Marzo	2023-03-22T00:00:00	2024-11-08T03:00:00	8	Radiación solar	0
160789	7	Sololá	712	San Antonio Palopó	9	San Antonio Palopo	3	Marzo	2023-03-22T00:00:00	2024-11-08T04:00:00	2	Temperatura media	18.7
160790	7	Sololá	712	San Antonio Palopó	9	San Antonio Palopo	3	Marzo	2023-03-22T00:00:00	2024-11-08T04:00:00	4	Temperatura máxima	19.4
160791	7	Sololá	712	San Antonio Palopó	9	San Antonio Palopo	3	Marzo	2023-03-22T00:00:00	2024-11-08T04:00:00	3	Temperatura mínima	18.6
160792	7	Sololá	712	San Antonio Palopó	9	San Antonio Palopo	3	Marzo	2023-03-22T00:00:00	2024-11-08T04:00:00	5	Humedad	71
160793	7	Sololá	712	San Antonio Palopó	9	San Antonio Palopo	3	Marzo	2023-03-22T00:00:00	2024-11-08T04:00:00	6	Velocidad del viento	3.2
160794	7	Sololá	712	San Antonio Palopó	9	San Antonio Palopo	3	Marzo	2023-03-22T00:00:00	2024-11-08T04:00:00	7	Dirección del viento	3.22
160795	7	Sololá	712	San Antonio Palopó	9	San Antonio Palopo	3	Marzo	2023-03-22T00:00:00	2024-11-08T04:00:00	1	Precipitación	0
160796	7	Sololá	712	San Antonio Palopó	9	San Antonio Palopo	3	Marzo	2023-03-22T00:00:00	2024-11-08T04:00:00	8	Radiación solar	0
160797	7	Sololá	712	San Antonio Palopó	9	San Antonio Palopo	3	Marzo	2023-03-22T00:00:00	2024-11-08T05:00:00	2	Temperatura media	19.3
160798	7	Sololá	712	San Antonio Palopó	9	San Antonio Palopo	3	Marzo	2023-03-22T00:00:00	2024-11-08T05:00:00	4	Temperatura máxima	19.3
160799	7	Sololá	712	San Antonio Palopó	9	San Antonio Palopo	3	Marzo	2023-03-22T00:00:00	2024-11-08T05:00:00	3	Temperatura mínima	18.6
160800	7	Sololá	712	San Antonio Palopó	9	San Antonio Palopo	3	Marzo	2023-03-22T00:00:00	2024-11-08T05:00:00	5	Humedad	70
160801	7	Sololá	712	San Antonio Palopó	9	San Antonio Palopo	3	Marzo	2023-03-22T00:00:00	2024-11-08T05:00:00	6	Velocidad del viento	4.8
160802	7	Sololá	712	San Antonio Palopó	9	San Antonio Palopo	3	Marzo	2023-03-22T00:00:00	2024-11-08T05:00:00	7	Dirección del viento	4.83
160803	7	Sololá	712	San Antonio Palopó	9	San Antonio Palopo	3	Marzo	2023-03-22T00:00:00	2024-11-08T05:00:00	1	Precipitación	0
160804	7	Sololá	712	San Antonio Palopó	9	San Antonio Palopo	3	Marzo	2023-03-22T00:00:00	2024-11-08T05:00:00	8	Radiación solar	0
160805	7	Sololá	712	San Antonio Palopó	9	San Antonio Palopo	3	Marzo	2023-03-22T00:00:00	2024-11-08T06:00:00	2	Temperatura media	19.1
160806	7	Sololá	712	San Antonio Palopó	9	San Antonio Palopo	3	Marzo	2023-03-22T00:00:00	2024-11-08T06:00:00	4	Temperatura máxima	19.3
160807	7	Sololá	712	San Antonio Palopó	9	San Antonio Palopo	3	Marzo	2023-03-22T00:00:00	2024-11-08T06:00:00	3	Temperatura mínima	18.6
160808	7	Sololá	712	San Antonio Palopó	9	San Antonio Palopo	3	Marzo	2023-03-22T00:00:00	2024-11-08T06:00:00	5	Humedad	73
160809	7	Sololá	712	San Antonio Palopó	9	San Antonio Palopo	3	Marzo	2023-03-22T00:00:00	2024-11-08T06:00:00	6	Velocidad del viento	3.2
160810	7	Sololá	712	San Antonio Palopó	9	San Antonio Palopo	3	Marzo	2023-03-22T00:00:00	2024-11-08T06:00:00	7	Dirección del viento	3.22
160811	7	Sololá	712	San Antonio Palopó	9	San Antonio Palopo	3	Marzo	2023-03-22T00:00:00	2024-11-08T06:00:00	1	Precipitación	0
160812	7	Sololá	712	San Antonio Palopó	9	San Antonio Palopo	3	Marzo	2023-03-22T00:00:00	2024-11-08T06:00:00	8	Radiación solar	0
160813	7	Sololá	712	San Antonio Palopó	9	San Antonio Palopo	3	Marzo	2023-03-22T00:00:00	2024-11-08T07:00:00	2	Temperatura media	19.5
160814	7	Sololá	712	San Antonio Palopó	9	San Antonio Palopo	3	Marzo	2023-03-22T00:00:00	2024-11-08T07:00:00	4	Temperatura máxima	19.5
160815	7	Sololá	712	San Antonio Palopó	9	San Antonio Palopo	3	Marzo	2023-03-22T00:00:00	2024-11-08T07:00:00	3	Temperatura mínima	18.9
160816	7	Sololá	712	San Antonio Palopó	9	San Antonio Palopo	3	Marzo	2023-03-22T00:00:00	2024-11-08T07:00:00	5	Humedad	70
160817	7	Sololá	712	San Antonio Palopó	9	San Antonio Palopo	3	Marzo	2023-03-22T00:00:00	2024-11-08T07:00:00	6	Velocidad del viento	3.2
160818	7	Sololá	712	San Antonio Palopó	9	San Antonio Palopo	3	Marzo	2023-03-22T00:00:00	2024-11-08T07:00:00	7	Dirección del viento	3.22
160819	7	Sololá	712	San Antonio Palopó	9	San Antonio Palopo	3	Marzo	2023-03-22T00:00:00	2024-11-08T07:00:00	1	Precipitación	0
160820	7	Sololá	712	San Antonio Palopó	9	San Antonio Palopo	3	Marzo	2023-03-22T00:00:00	2024-11-08T07:00:00	8	Radiación solar	24
160821	7	Sololá	712	San Antonio Palopó	9	San Antonio Palopo	3	Marzo	2023-03-22T00:00:00	2024-11-08T08:00:00	2	Temperatura media	20.3
160822	7	Sololá	712	San Antonio Palopó	9	San Antonio Palopo	3	Marzo	2023-03-22T00:00:00	2024-11-08T08:00:00	4	Temperatura máxima	20.3
160823	7	Sololá	712	San Antonio Palopó	9	San Antonio Palopo	3	Marzo	2023-03-22T00:00:00	2024-11-08T08:00:00	3	Temperatura mínima	19.5
160824	7	Sololá	712	San Antonio Palopó	9	San Antonio Palopo	3	Marzo	2023-03-22T00:00:00	2024-11-08T08:00:00	5	Humedad	69
160825	7	Sololá	712	San Antonio Palopó	9	San Antonio Palopo	3	Marzo	2023-03-22T00:00:00	2024-11-08T08:00:00	6	Velocidad del viento	3.2
160826	7	Sololá	712	San Antonio Palopó	9	San Antonio Palopo	3	Marzo	2023-03-22T00:00:00	2024-11-08T08:00:00	7	Dirección del viento	3.22
160827	7	Sololá	712	San Antonio Palopó	9	San Antonio Palopo	3	Marzo	2023-03-22T00:00:00	2024-11-08T08:00:00	1	Precipitación	0
160828	7	Sololá	712	San Antonio Palopó	9	San Antonio Palopo	3	Marzo	2023-03-22T00:00:00	2024-11-08T08:00:00	8	Radiación solar	158
160829	7	Sololá	712	San Antonio Palopó	9	San Antonio Palopo	3	Marzo	2023-03-22T00:00:00	2024-11-08T09:00:00	2	Temperatura media	21
160830	7	Sololá	712	San Antonio Palopó	9	San Antonio Palopo	3	Marzo	2023-03-22T00:00:00	2024-11-08T09:00:00	4	Temperatura máxima	21.7
160831	7	Sololá	712	San Antonio Palopó	9	San Antonio Palopo	3	Marzo	2023-03-22T00:00:00	2024-11-08T09:00:00	3	Temperatura mínima	20.3
160832	7	Sololá	712	San Antonio Palopó	9	San Antonio Palopo	3	Marzo	2023-03-22T00:00:00	2024-11-08T09:00:00	5	Humedad	67
160833	7	Sololá	712	San Antonio Palopó	9	San Antonio Palopo	3	Marzo	2023-03-22T00:00:00	2024-11-08T09:00:00	6	Velocidad del viento	4.8
160834	7	Sololá	712	San Antonio Palopó	9	San Antonio Palopo	3	Marzo	2023-03-22T00:00:00	2024-11-08T09:00:00	7	Dirección del viento	4.83
160835	7	Sololá	712	San Antonio Palopó	9	San Antonio Palopo	3	Marzo	2023-03-22T00:00:00	2024-11-08T09:00:00	1	Precipitación	0
160836	7	Sololá	712	San Antonio Palopó	9	San Antonio Palopo	3	Marzo	2023-03-22T00:00:00	2024-11-08T09:00:00	8	Radiación solar	387
160837	7	Sololá	712	San Antonio Palopó	9	San Antonio Palopo	3	Marzo	2023-03-22T00:00:00	2024-11-08T10:00:00	2	Temperatura media	22.7
160838	7	Sololá	712	San Antonio Palopó	9	San Antonio Palopo	3	Marzo	2023-03-22T00:00:00	2024-11-08T10:00:00	4	Temperatura máxima	22.7
160839	7	Sololá	712	San Antonio Palopó	9	San Antonio Palopo	3	Marzo	2023-03-22T00:00:00	2024-11-08T10:00:00	3	Temperatura mínima	21
160840	7	Sololá	712	San Antonio Palopó	9	San Antonio Palopo	3	Marzo	2023-03-22T00:00:00	2024-11-08T10:00:00	5	Humedad	59
160841	7	Sololá	712	San Antonio Palopó	9	San Antonio Palopo	3	Marzo	2023-03-22T00:00:00	2024-11-08T10:00:00	6	Velocidad del viento	6.4
160842	7	Sololá	712	San Antonio Palopó	9	San Antonio Palopo	3	Marzo	2023-03-22T00:00:00	2024-11-08T10:00:00	7	Dirección del viento	6.44
160843	7	Sololá	712	San Antonio Palopó	9	San Antonio Palopo	3	Marzo	2023-03-22T00:00:00	2024-11-08T10:00:00	1	Precipitación	0
160844	7	Sololá	712	San Antonio Palopó	9	San Antonio Palopo	3	Marzo	2023-03-22T00:00:00	2024-11-08T10:00:00	8	Radiación solar	707
160845	7	Sololá	712	San Antonio Palopó	9	San Antonio Palopo	3	Marzo	2023-03-22T00:00:00	2024-11-08T11:00:00	2	Temperatura media	23.7
160846	7	Sololá	712	San Antonio Palopó	9	San Antonio Palopo	3	Marzo	2023-03-22T00:00:00	2024-11-08T11:00:00	4	Temperatura máxima	23.8
160847	7	Sololá	712	San Antonio Palopó	9	San Antonio Palopo	3	Marzo	2023-03-22T00:00:00	2024-11-08T11:00:00	3	Temperatura mínima	22.7
160848	7	Sololá	712	San Antonio Palopó	9	San Antonio Palopo	3	Marzo	2023-03-22T00:00:00	2024-11-08T11:00:00	5	Humedad	53
160849	7	Sololá	712	San Antonio Palopó	9	San Antonio Palopo	3	Marzo	2023-03-22T00:00:00	2024-11-08T11:00:00	6	Velocidad del viento	12.9
160850	7	Sololá	712	San Antonio Palopó	9	San Antonio Palopo	3	Marzo	2023-03-22T00:00:00	2024-11-08T11:00:00	7	Dirección del viento	12.87
160851	7	Sololá	712	San Antonio Palopó	9	San Antonio Palopo	3	Marzo	2023-03-22T00:00:00	2024-11-08T11:00:00	1	Precipitación	0
160852	7	Sololá	712	San Antonio Palopó	9	San Antonio Palopo	3	Marzo	2023-03-22T00:00:00	2024-11-08T11:00:00	8	Radiación solar	902
160853	7	Sololá	712	San Antonio Palopó	9	San Antonio Palopo	3	Marzo	2023-03-22T00:00:00	2024-11-08T12:00:00	2	Temperatura media	24.2
160854	7	Sololá	712	San Antonio Palopó	9	San Antonio Palopo	3	Marzo	2023-03-22T00:00:00	2024-11-08T12:00:00	4	Temperatura máxima	24.7
160855	7	Sololá	712	San Antonio Palopó	9	San Antonio Palopo	3	Marzo	2023-03-22T00:00:00	2024-11-08T12:00:00	3	Temperatura mínima	23.2
160856	7	Sololá	712	San Antonio Palopó	9	San Antonio Palopo	3	Marzo	2023-03-22T00:00:00	2024-11-08T12:00:00	5	Humedad	51
160857	7	Sololá	712	San Antonio Palopó	9	San Antonio Palopo	3	Marzo	2023-03-22T00:00:00	2024-11-08T12:00:00	6	Velocidad del viento	14.5
160858	7	Sololá	712	San Antonio Palopó	9	San Antonio Palopo	3	Marzo	2023-03-22T00:00:00	2024-11-08T12:00:00	7	Dirección del viento	14.48
160859	7	Sololá	712	San Antonio Palopó	9	San Antonio Palopo	3	Marzo	2023-03-22T00:00:00	2024-11-08T12:00:00	1	Precipitación	0
160860	7	Sololá	712	San Antonio Palopó	9	San Antonio Palopo	3	Marzo	2023-03-22T00:00:00	2024-11-08T12:00:00	8	Radiación solar	936
160861	7	Sololá	712	San Antonio Palopó	9	San Antonio Palopo	3	Marzo	2023-03-22T00:00:00	2024-11-08T13:00:00	2	Temperatura media	24.8
160862	7	Sololá	712	San Antonio Palopó	9	San Antonio Palopo	3	Marzo	2023-03-22T00:00:00	2024-11-08T13:00:00	4	Temperatura máxima	25.2
160863	7	Sololá	712	San Antonio Palopó	9	San Antonio Palopo	3	Marzo	2023-03-22T00:00:00	2024-11-08T13:00:00	3	Temperatura mínima	23.7
160864	7	Sololá	712	San Antonio Palopó	9	San Antonio Palopo	3	Marzo	2023-03-22T00:00:00	2024-11-08T13:00:00	5	Humedad	51
160865	7	Sololá	712	San Antonio Palopó	9	San Antonio Palopo	3	Marzo	2023-03-22T00:00:00	2024-11-08T13:00:00	6	Velocidad del viento	20.9
160866	7	Sololá	712	San Antonio Palopó	9	San Antonio Palopo	3	Marzo	2023-03-22T00:00:00	2024-11-08T13:00:00	7	Dirección del viento	20.92
160867	7	Sololá	712	San Antonio Palopó	9	San Antonio Palopo	3	Marzo	2023-03-22T00:00:00	2024-11-08T13:00:00	1	Precipitación	0
160868	7	Sololá	712	San Antonio Palopó	9	San Antonio Palopo	3	Marzo	2023-03-22T00:00:00	2024-11-08T13:00:00	8	Radiación solar	1000
160869	7	Sololá	712	San Antonio Palopó	9	San Antonio Palopo	3	Marzo	2023-03-22T00:00:00	2024-11-08T14:00:00	2	Temperatura media	26.4
160870	7	Sololá	712	San Antonio Palopó	9	San Antonio Palopo	3	Marzo	2023-03-22T00:00:00	2024-11-08T14:00:00	4	Temperatura máxima	26.4
160871	7	Sololá	712	San Antonio Palopó	9	San Antonio Palopo	3	Marzo	2023-03-22T00:00:00	2024-11-08T14:00:00	3	Temperatura mínima	24.7
160872	7	Sololá	712	San Antonio Palopó	9	San Antonio Palopo	3	Marzo	2023-03-22T00:00:00	2024-11-08T14:00:00	5	Humedad	46
160873	7	Sololá	712	San Antonio Palopó	9	San Antonio Palopo	3	Marzo	2023-03-22T00:00:00	2024-11-08T14:00:00	6	Velocidad del viento	11.3
160874	7	Sololá	712	San Antonio Palopó	9	San Antonio Palopo	3	Marzo	2023-03-22T00:00:00	2024-11-08T14:00:00	7	Dirección del viento	11.27
160875	7	Sololá	712	San Antonio Palopó	9	San Antonio Palopo	3	Marzo	2023-03-22T00:00:00	2024-11-08T14:00:00	1	Precipitación	0
160876	7	Sololá	712	San Antonio Palopó	9	San Antonio Palopo	3	Marzo	2023-03-22T00:00:00	2024-11-08T14:00:00	8	Radiación solar	949
160877	7	Sololá	712	San Antonio Palopó	9	San Antonio Palopo	3	Marzo	2023-03-22T00:00:00	2024-11-08T15:00:00	2	Temperatura media	26.8
160878	7	Sololá	712	San Antonio Palopó	9	San Antonio Palopo	3	Marzo	2023-03-22T00:00:00	2024-11-08T15:00:00	4	Temperatura máxima	26.8
160879	7	Sololá	712	San Antonio Palopó	9	San Antonio Palopo	3	Marzo	2023-03-22T00:00:00	2024-11-08T15:00:00	3	Temperatura mínima	25.7
160880	7	Sololá	712	San Antonio Palopó	9	San Antonio Palopo	3	Marzo	2023-03-22T00:00:00	2024-11-08T15:00:00	5	Humedad	43
160881	7	Sololá	712	San Antonio Palopó	9	San Antonio Palopo	3	Marzo	2023-03-22T00:00:00	2024-11-08T15:00:00	6	Velocidad del viento	9.7
160882	7	Sololá	712	San Antonio Palopó	9	San Antonio Palopo	3	Marzo	2023-03-22T00:00:00	2024-11-08T15:00:00	7	Dirección del viento	9.66
160883	7	Sololá	712	San Antonio Palopó	9	San Antonio Palopo	3	Marzo	2023-03-22T00:00:00	2024-11-08T15:00:00	1	Precipitación	0
160884	7	Sololá	712	San Antonio Palopó	9	San Antonio Palopo	3	Marzo	2023-03-22T00:00:00	2024-11-08T15:00:00	8	Radiación solar	776
160885	7	Sololá	712	San Antonio Palopó	9	San Antonio Palopo	3	Marzo	2023-03-22T00:00:00	2024-11-08T16:00:00	2	Temperatura media	25.6
160886	7	Sololá	712	San Antonio Palopó	9	San Antonio Palopo	3	Marzo	2023-03-22T00:00:00	2024-11-08T16:00:00	4	Temperatura máxima	26.8
160887	7	Sololá	712	San Antonio Palopó	9	San Antonio Palopo	3	Marzo	2023-03-22T00:00:00	2024-11-08T16:00:00	3	Temperatura mínima	25.6
160888	7	Sololá	712	San Antonio Palopó	9	San Antonio Palopo	3	Marzo	2023-03-22T00:00:00	2024-11-08T16:00:00	5	Humedad	40
160889	7	Sololá	712	San Antonio Palopó	9	San Antonio Palopo	3	Marzo	2023-03-22T00:00:00	2024-11-08T16:00:00	6	Velocidad del viento	14.5
160890	7	Sololá	712	San Antonio Palopó	9	San Antonio Palopo	3	Marzo	2023-03-22T00:00:00	2024-11-08T16:00:00	7	Dirección del viento	14.48
160891	7	Sololá	712	San Antonio Palopó	9	San Antonio Palopo	3	Marzo	2023-03-22T00:00:00	2024-11-08T16:00:00	1	Precipitación	0
160892	7	Sololá	712	San Antonio Palopó	9	San Antonio Palopo	3	Marzo	2023-03-22T00:00:00	2024-11-08T16:00:00	8	Radiación solar	503
160893	7	Sololá	712	San Antonio Palopó	9	San Antonio Palopo	3	Marzo	2023-03-22T00:00:00	2024-11-08T17:00:00	2	Temperatura media	25.9
160894	7	Sololá	712	San Antonio Palopó	9	San Antonio Palopo	3	Marzo	2023-03-22T00:00:00	2024-11-08T17:00:00	4	Temperatura máxima	26.3
160895	7	Sololá	712	San Antonio Palopó	9	San Antonio Palopo	3	Marzo	2023-03-22T00:00:00	2024-11-08T17:00:00	3	Temperatura mínima	25.4
160896	7	Sololá	712	San Antonio Palopó	9	San Antonio Palopo	3	Marzo	2023-03-22T00:00:00	2024-11-08T17:00:00	5	Humedad	40
160897	7	Sololá	712	San Antonio Palopó	9	San Antonio Palopo	3	Marzo	2023-03-22T00:00:00	2024-11-08T17:00:00	6	Velocidad del viento	11.3
160898	7	Sololá	712	San Antonio Palopó	9	San Antonio Palopo	3	Marzo	2023-03-22T00:00:00	2024-11-08T17:00:00	7	Dirección del viento	11.27
160899	7	Sololá	712	San Antonio Palopó	9	San Antonio Palopo	3	Marzo	2023-03-22T00:00:00	2024-11-08T17:00:00	1	Precipitación	0
160900	7	Sololá	712	San Antonio Palopó	9	San Antonio Palopo	3	Marzo	2023-03-22T00:00:00	2024-11-08T17:00:00	8	Radiación solar	296
160901	7	Sololá	712	San Antonio Palopó	9	San Antonio Palopo	3	Marzo	2023-03-22T00:00:00	2024-11-08T18:00:00	2	Temperatura media	23.8
160902	7	Sololá	712	San Antonio Palopó	9	San Antonio Palopo	3	Marzo	2023-03-22T00:00:00	2024-11-08T18:00:00	4	Temperatura máxima	26.1
160903	7	Sololá	712	San Antonio Palopó	9	San Antonio Palopo	3	Marzo	2023-03-22T00:00:00	2024-11-08T18:00:00	3	Temperatura mínima	23.8
160904	7	Sololá	712	San Antonio Palopó	9	San Antonio Palopo	3	Marzo	2023-03-22T00:00:00	2024-11-08T18:00:00	5	Humedad	50
160905	7	Sololá	712	San Antonio Palopó	9	San Antonio Palopo	3	Marzo	2023-03-22T00:00:00	2024-11-08T18:00:00	6	Velocidad del viento	8
160906	7	Sololá	712	San Antonio Palopó	9	San Antonio Palopo	3	Marzo	2023-03-22T00:00:00	2024-11-08T18:00:00	7	Dirección del viento	8.05
160907	7	Sololá	712	San Antonio Palopó	9	San Antonio Palopo	3	Marzo	2023-03-22T00:00:00	2024-11-08T18:00:00	1	Precipitación	0
160908	7	Sololá	712	San Antonio Palopó	9	San Antonio Palopo	3	Marzo	2023-03-22T00:00:00	2024-11-08T18:00:00	8	Radiación solar	120
160909	7	Sololá	712	San Antonio Palopó	9	San Antonio Palopo	3	Marzo	2023-03-22T00:00:00	2024-11-08T19:00:00	2	Temperatura media	22.1
160910	7	Sololá	712	San Antonio Palopó	9	San Antonio Palopo	3	Marzo	2023-03-22T00:00:00	2024-11-08T19:00:00	4	Temperatura máxima	23.8
160911	7	Sololá	712	San Antonio Palopó	9	San Antonio Palopo	3	Marzo	2023-03-22T00:00:00	2024-11-08T19:00:00	3	Temperatura mínima	22.1
160912	7	Sololá	712	San Antonio Palopó	9	San Antonio Palopo	3	Marzo	2023-03-22T00:00:00	2024-11-08T19:00:00	5	Humedad	56
160913	7	Sololá	712	San Antonio Palopó	9	San Antonio Palopo	3	Marzo	2023-03-22T00:00:00	2024-11-08T19:00:00	6	Velocidad del viento	4.8
160914	7	Sololá	712	San Antonio Palopó	9	San Antonio Palopo	3	Marzo	2023-03-22T00:00:00	2024-11-08T19:00:00	7	Dirección del viento	4.83
160915	7	Sololá	712	San Antonio Palopó	9	San Antonio Palopo	3	Marzo	2023-03-22T00:00:00	2024-11-08T19:00:00	1	Precipitación	0
160916	7	Sololá	712	San Antonio Palopó	9	San Antonio Palopo	3	Marzo	2023-03-22T00:00:00	2024-11-08T19:00:00	8	Radiación solar	0
160917	7	Sololá	712	San Antonio Palopó	9	San Antonio Palopo	3	Marzo	2023-03-22T00:00:00	2024-11-08T20:00:00	2	Temperatura media	20.9
160918	7	Sololá	712	San Antonio Palopó	9	San Antonio Palopo	3	Marzo	2023-03-22T00:00:00	2024-11-08T20:00:00	4	Temperatura máxima	22.1
160919	7	Sololá	712	San Antonio Palopó	9	San Antonio Palopo	3	Marzo	2023-03-22T00:00:00	2024-11-08T20:00:00	3	Temperatura mínima	20.9
160920	7	Sololá	712	San Antonio Palopó	9	San Antonio Palopo	3	Marzo	2023-03-22T00:00:00	2024-11-08T20:00:00	5	Humedad	61
160921	7	Sololá	712	San Antonio Palopó	9	San Antonio Palopo	3	Marzo	2023-03-22T00:00:00	2024-11-08T20:00:00	6	Velocidad del viento	4.8
160922	7	Sololá	712	San Antonio Palopó	9	San Antonio Palopo	3	Marzo	2023-03-22T00:00:00	2024-11-08T20:00:00	7	Dirección del viento	4.83
160923	7	Sololá	712	San Antonio Palopó	9	San Antonio Palopo	3	Marzo	2023-03-22T00:00:00	2024-11-08T20:00:00	1	Precipitación	0
160924	7	Sololá	712	San Antonio Palopó	9	San Antonio Palopo	3	Marzo	2023-03-22T00:00:00	2024-11-08T20:00:00	8	Radiación solar	0
160925	7	Sololá	712	San Antonio Palopó	9	San Antonio Palopo	3	Marzo	2023-03-22T00:00:00	2024-11-08T21:00:00	2	Temperatura media	20
160926	7	Sololá	712	San Antonio Palopó	9	San Antonio Palopo	3	Marzo	2023-03-22T00:00:00	2024-11-08T21:00:00	4	Temperatura máxima	20.9
160927	7	Sololá	712	San Antonio Palopó	9	San Antonio Palopo	3	Marzo	2023-03-22T00:00:00	2024-11-08T21:00:00	3	Temperatura mínima	20
160928	7	Sololá	712	San Antonio Palopó	9	San Antonio Palopo	3	Marzo	2023-03-22T00:00:00	2024-11-08T21:00:00	5	Humedad	62
160929	7	Sololá	712	San Antonio Palopó	9	San Antonio Palopo	3	Marzo	2023-03-22T00:00:00	2024-11-08T21:00:00	6	Velocidad del viento	3.2
160930	7	Sololá	712	San Antonio Palopó	9	San Antonio Palopo	3	Marzo	2023-03-22T00:00:00	2024-11-08T21:00:00	7	Dirección del viento	3.22
160931	7	Sololá	712	San Antonio Palopó	9	San Antonio Palopo	3	Marzo	2023-03-22T00:00:00	2024-11-08T21:00:00	1	Precipitación	0
160932	7	Sololá	712	San Antonio Palopó	9	San Antonio Palopo	3	Marzo	2023-03-22T00:00:00	2024-11-08T21:00:00	8	Radiación solar	0
160933	7	Sololá	712	San Antonio Palopó	9	San Antonio Palopo	3	Marzo	2023-03-22T00:00:00	2024-11-08T22:00:00	2	Temperatura media	19.3
160934	7	Sololá	712	San Antonio Palopó	9	San Antonio Palopo	3	Marzo	2023-03-22T00:00:00	2024-11-08T22:00:00	4	Temperatura máxima	20
160935	7	Sololá	712	San Antonio Palopó	9	San Antonio Palopo	3	Marzo	2023-03-22T00:00:00	2024-11-08T22:00:00	3	Temperatura mínima	19.2
160936	7	Sololá	712	San Antonio Palopó	9	San Antonio Palopo	3	Marzo	2023-03-22T00:00:00	2024-11-08T22:00:00	5	Humedad	64
160937	7	Sololá	712	San Antonio Palopó	9	San Antonio Palopo	3	Marzo	2023-03-22T00:00:00	2024-11-08T22:00:00	6	Velocidad del viento	8
160938	7	Sololá	712	San Antonio Palopó	9	San Antonio Palopo	3	Marzo	2023-03-22T00:00:00	2024-11-08T22:00:00	7	Dirección del viento	8.05
160939	7	Sololá	712	San Antonio Palopó	9	San Antonio Palopo	3	Marzo	2023-03-22T00:00:00	2024-11-08T22:00:00	1	Precipitación	0
160940	7	Sololá	712	San Antonio Palopó	9	San Antonio Palopo	3	Marzo	2023-03-22T00:00:00	2024-11-08T22:00:00	8	Radiación solar	0
160941	7	Sololá	712	San Antonio Palopó	9	San Antonio Palopo	3	Marzo	2023-03-22T00:00:00	2024-11-08T23:00:00	2	Temperatura media	18.3
160942	7	Sololá	712	San Antonio Palopó	9	San Antonio Palopo	3	Marzo	2023-03-22T00:00:00	2024-11-08T23:00:00	4	Temperatura máxima	19.3
160943	7	Sololá	712	San Antonio Palopó	9	San Antonio Palopo	3	Marzo	2023-03-22T00:00:00	2024-11-08T23:00:00	3	Temperatura mínima	18.3
160944	7	Sololá	712	San Antonio Palopó	9	San Antonio Palopo	3	Marzo	2023-03-22T00:00:00	2024-11-08T23:00:00	5	Humedad	67
160945	7	Sololá	712	San Antonio Palopó	9	San Antonio Palopo	3	Marzo	2023-03-22T00:00:00	2024-11-08T23:00:00	6	Velocidad del viento	16.1
160946	7	Sololá	712	San Antonio Palopó	9	San Antonio Palopo	3	Marzo	2023-03-22T00:00:00	2024-11-08T23:00:00	7	Dirección del viento	16.09
160947	7	Sololá	712	San Antonio Palopó	9	San Antonio Palopo	3	Marzo	2023-03-22T00:00:00	2024-11-08T23:00:00	1	Precipitación	0
160948	7	Sololá	712	San Antonio Palopó	9	San Antonio Palopo	3	Marzo	2023-03-22T00:00:00	2024-11-08T23:00:00	8	Radiación solar	0
160949	7	Sololá	712	San Antonio Palopó	9	San Antonio Palopo	3	Marzo	2023-03-23T00:00:00	2024-11-08T00:00:00	2	Temperatura media	18.3
160950	7	Sololá	712	San Antonio Palopó	9	San Antonio Palopo	3	Marzo	2023-03-23T00:00:00	2024-11-08T00:00:00	4	Temperatura máxima	18.4
160951	7	Sololá	712	San Antonio Palopó	9	San Antonio Palopo	3	Marzo	2023-03-23T00:00:00	2024-11-08T00:00:00	3	Temperatura mínima	18
160952	7	Sololá	712	San Antonio Palopó	9	San Antonio Palopo	3	Marzo	2023-03-23T00:00:00	2024-11-08T00:00:00	5	Humedad	66
160953	7	Sololá	712	San Antonio Palopó	9	San Antonio Palopo	3	Marzo	2023-03-23T00:00:00	2024-11-08T00:00:00	6	Velocidad del viento	17.7
160954	7	Sololá	712	San Antonio Palopó	9	San Antonio Palopo	3	Marzo	2023-03-23T00:00:00	2024-11-08T00:00:00	7	Dirección del viento	17.7
160955	7	Sololá	712	San Antonio Palopó	9	San Antonio Palopo	3	Marzo	2023-03-23T00:00:00	2024-11-08T00:00:00	1	Precipitación	0
160956	7	Sololá	712	San Antonio Palopó	9	San Antonio Palopo	3	Marzo	2023-03-23T00:00:00	2024-11-08T00:00:00	8	Radiación solar	0
160957	7	Sololá	712	San Antonio Palopó	9	San Antonio Palopo	3	Marzo	2023-03-23T00:00:00	2024-11-08T01:00:00	2	Temperatura media	18.1
160958	7	Sololá	712	San Antonio Palopó	9	San Antonio Palopo	3	Marzo	2023-03-23T00:00:00	2024-11-08T01:00:00	4	Temperatura máxima	18.2
160959	7	Sololá	712	San Antonio Palopó	9	San Antonio Palopo	3	Marzo	2023-03-23T00:00:00	2024-11-08T01:00:00	3	Temperatura mínima	17.9
160960	7	Sololá	712	San Antonio Palopó	9	San Antonio Palopo	3	Marzo	2023-03-23T00:00:00	2024-11-08T01:00:00	5	Humedad	65
160961	7	Sololá	712	San Antonio Palopó	9	San Antonio Palopo	3	Marzo	2023-03-23T00:00:00	2024-11-08T01:00:00	6	Velocidad del viento	11.3
160962	7	Sololá	712	San Antonio Palopó	9	San Antonio Palopo	3	Marzo	2023-03-23T00:00:00	2024-11-08T01:00:00	7	Dirección del viento	11.27
160963	7	Sololá	712	San Antonio Palopó	9	San Antonio Palopo	3	Marzo	2023-03-23T00:00:00	2024-11-08T01:00:00	1	Precipitación	0
160964	7	Sololá	712	San Antonio Palopó	9	San Antonio Palopo	3	Marzo	2023-03-23T00:00:00	2024-11-08T01:00:00	8	Radiación solar	0
160965	7	Sololá	712	San Antonio Palopó	9	San Antonio Palopo	3	Marzo	2023-03-23T00:00:00	2024-11-08T02:00:00	2	Temperatura media	17.9
160966	7	Sololá	712	San Antonio Palopó	9	San Antonio Palopo	3	Marzo	2023-03-23T00:00:00	2024-11-08T02:00:00	4	Temperatura máxima	18.3
160967	7	Sololá	712	San Antonio Palopó	9	San Antonio Palopo	3	Marzo	2023-03-23T00:00:00	2024-11-08T02:00:00	3	Temperatura mínima	17.8
160968	7	Sololá	712	San Antonio Palopó	9	San Antonio Palopo	3	Marzo	2023-03-23T00:00:00	2024-11-08T02:00:00	5	Humedad	66
160969	7	Sololá	712	San Antonio Palopó	9	San Antonio Palopo	3	Marzo	2023-03-23T00:00:00	2024-11-08T02:00:00	6	Velocidad del viento	8
160970	7	Sololá	712	San Antonio Palopó	9	San Antonio Palopo	3	Marzo	2023-03-23T00:00:00	2024-11-08T02:00:00	7	Dirección del viento	8.05
160971	7	Sololá	712	San Antonio Palopó	9	San Antonio Palopo	3	Marzo	2023-03-23T00:00:00	2024-11-08T02:00:00	1	Precipitación	0
160972	7	Sololá	712	San Antonio Palopó	9	San Antonio Palopo	3	Marzo	2023-03-23T00:00:00	2024-11-08T02:00:00	8	Radiación solar	0
160973	7	Sololá	712	San Antonio Palopó	9	San Antonio Palopo	3	Marzo	2023-03-23T00:00:00	2024-11-08T03:00:00	2	Temperatura media	17.1
160974	7	Sololá	712	San Antonio Palopó	9	San Antonio Palopo	3	Marzo	2023-03-23T00:00:00	2024-11-08T03:00:00	4	Temperatura máxima	17.9
160975	7	Sololá	712	San Antonio Palopó	9	San Antonio Palopo	3	Marzo	2023-03-23T00:00:00	2024-11-08T03:00:00	3	Temperatura mínima	17.1
160976	7	Sololá	712	San Antonio Palopó	9	San Antonio Palopo	3	Marzo	2023-03-23T00:00:00	2024-11-08T03:00:00	5	Humedad	68
160977	7	Sololá	712	San Antonio Palopó	9	San Antonio Palopo	3	Marzo	2023-03-23T00:00:00	2024-11-08T03:00:00	6	Velocidad del viento	9.7
160978	7	Sololá	712	San Antonio Palopó	9	San Antonio Palopo	3	Marzo	2023-03-23T00:00:00	2024-11-08T03:00:00	7	Dirección del viento	9.66
160979	7	Sololá	712	San Antonio Palopó	9	San Antonio Palopo	3	Marzo	2023-03-23T00:00:00	2024-11-08T03:00:00	1	Precipitación	0
160980	7	Sololá	712	San Antonio Palopó	9	San Antonio Palopo	3	Marzo	2023-03-23T00:00:00	2024-11-08T03:00:00	8	Radiación solar	0
160981	7	Sololá	712	San Antonio Palopó	9	San Antonio Palopo	3	Marzo	2023-03-23T00:00:00	2024-11-08T04:00:00	2	Temperatura media	17.2
160982	7	Sololá	712	San Antonio Palopó	9	San Antonio Palopo	3	Marzo	2023-03-23T00:00:00	2024-11-08T04:00:00	4	Temperatura máxima	17.2
160983	7	Sololá	712	San Antonio Palopó	9	San Antonio Palopo	3	Marzo	2023-03-23T00:00:00	2024-11-08T04:00:00	3	Temperatura mínima	16.6
160984	7	Sololá	712	San Antonio Palopó	9	San Antonio Palopo	3	Marzo	2023-03-23T00:00:00	2024-11-08T04:00:00	5	Humedad	69
160985	7	Sololá	712	San Antonio Palopó	9	San Antonio Palopo	3	Marzo	2023-03-23T00:00:00	2024-11-08T04:00:00	6	Velocidad del viento	9.7
160986	7	Sololá	712	San Antonio Palopó	9	San Antonio Palopo	3	Marzo	2023-03-23T00:00:00	2024-11-08T04:00:00	7	Dirección del viento	9.66
160987	7	Sololá	712	San Antonio Palopó	9	San Antonio Palopo	3	Marzo	2023-03-23T00:00:00	2024-11-08T04:00:00	1	Precipitación	0
160988	7	Sololá	712	San Antonio Palopó	9	San Antonio Palopo	3	Marzo	2023-03-23T00:00:00	2024-11-08T04:00:00	8	Radiación solar	0
160989	7	Sololá	712	San Antonio Palopó	9	San Antonio Palopo	3	Marzo	2023-03-23T00:00:00	2024-11-08T05:00:00	2	Temperatura media	17.3
160990	7	Sololá	712	San Antonio Palopó	9	San Antonio Palopo	3	Marzo	2023-03-23T00:00:00	2024-11-08T05:00:00	4	Temperatura máxima	17.3
160991	7	Sololá	712	San Antonio Palopó	9	San Antonio Palopo	3	Marzo	2023-03-23T00:00:00	2024-11-08T05:00:00	3	Temperatura mínima	17
160992	7	Sololá	712	San Antonio Palopó	9	San Antonio Palopo	3	Marzo	2023-03-23T00:00:00	2024-11-08T05:00:00	5	Humedad	67
160993	7	Sololá	712	San Antonio Palopó	9	San Antonio Palopo	3	Marzo	2023-03-23T00:00:00	2024-11-08T05:00:00	6	Velocidad del viento	12.9
160994	7	Sololá	712	San Antonio Palopó	9	San Antonio Palopo	3	Marzo	2023-03-23T00:00:00	2024-11-08T05:00:00	7	Dirección del viento	12.87
160995	7	Sololá	712	San Antonio Palopó	9	San Antonio Palopo	3	Marzo	2023-03-23T00:00:00	2024-11-08T05:00:00	1	Precipitación	0
160996	7	Sololá	712	San Antonio Palopó	9	San Antonio Palopo	3	Marzo	2023-03-23T00:00:00	2024-11-08T05:00:00	8	Radiación solar	0
160997	7	Sololá	712	San Antonio Palopó	9	San Antonio Palopo	3	Marzo	2023-03-23T00:00:00	2024-11-08T06:00:00	2	Temperatura media	16.3
160998	7	Sololá	712	San Antonio Palopó	9	San Antonio Palopo	3	Marzo	2023-03-23T00:00:00	2024-11-08T06:00:00	4	Temperatura máxima	17.4
160999	7	Sololá	712	San Antonio Palopó	9	San Antonio Palopo	3	Marzo	2023-03-23T00:00:00	2024-11-08T06:00:00	3	Temperatura mínima	16.3
161000	7	Sololá	712	San Antonio Palopó	9	San Antonio Palopo	3	Marzo	2023-03-23T00:00:00	2024-11-08T06:00:00	5	Humedad	70
161001	7	Sololá	712	San Antonio Palopó	9	San Antonio Palopo	3	Marzo	2023-03-23T00:00:00	2024-11-08T06:00:00	6	Velocidad del viento	4.8
161002	7	Sololá	712	San Antonio Palopó	9	San Antonio Palopo	3	Marzo	2023-03-23T00:00:00	2024-11-08T06:00:00	7	Dirección del viento	4.83
161003	7	Sololá	712	San Antonio Palopó	9	San Antonio Palopo	3	Marzo	2023-03-23T00:00:00	2024-11-08T06:00:00	1	Precipitación	0
161004	7	Sololá	712	San Antonio Palopó	9	San Antonio Palopo	3	Marzo	2023-03-23T00:00:00	2024-11-08T06:00:00	8	Radiación solar	0
161005	7	Sololá	712	San Antonio Palopó	9	San Antonio Palopo	3	Marzo	2023-03-23T00:00:00	2024-11-08T07:00:00	2	Temperatura media	17.8
161006	7	Sololá	712	San Antonio Palopó	9	San Antonio Palopo	3	Marzo	2023-03-23T00:00:00	2024-11-08T07:00:00	4	Temperatura máxima	17.8
161007	7	Sololá	712	San Antonio Palopó	9	San Antonio Palopo	3	Marzo	2023-03-23T00:00:00	2024-11-08T07:00:00	3	Temperatura mínima	16.2
161008	7	Sololá	712	San Antonio Palopó	9	San Antonio Palopo	3	Marzo	2023-03-23T00:00:00	2024-11-08T07:00:00	5	Humedad	68
161009	7	Sololá	712	San Antonio Palopó	9	San Antonio Palopo	3	Marzo	2023-03-23T00:00:00	2024-11-08T07:00:00	6	Velocidad del viento	8
161010	7	Sololá	712	San Antonio Palopó	9	San Antonio Palopo	3	Marzo	2023-03-23T00:00:00	2024-11-08T07:00:00	7	Dirección del viento	8.05
161011	7	Sololá	712	San Antonio Palopó	9	San Antonio Palopo	3	Marzo	2023-03-23T00:00:00	2024-11-08T07:00:00	1	Precipitación	0
161012	7	Sololá	712	San Antonio Palopó	9	San Antonio Palopo	3	Marzo	2023-03-23T00:00:00	2024-11-08T07:00:00	8	Radiación solar	9
161013	7	Sololá	712	San Antonio Palopó	9	San Antonio Palopo	3	Marzo	2023-03-23T00:00:00	2024-11-08T08:00:00	2	Temperatura media	18.3
161014	7	Sololá	712	San Antonio Palopó	9	San Antonio Palopo	3	Marzo	2023-03-23T00:00:00	2024-11-08T08:00:00	4	Temperatura máxima	18.3
161015	7	Sololá	712	San Antonio Palopó	9	San Antonio Palopo	3	Marzo	2023-03-23T00:00:00	2024-11-08T08:00:00	3	Temperatura mínima	17.6
161016	7	Sololá	712	San Antonio Palopó	9	San Antonio Palopo	3	Marzo	2023-03-23T00:00:00	2024-11-08T08:00:00	5	Humedad	70
161017	7	Sololá	712	San Antonio Palopó	9	San Antonio Palopo	3	Marzo	2023-03-23T00:00:00	2024-11-08T08:00:00	6	Velocidad del viento	3.2
161018	7	Sololá	712	San Antonio Palopó	9	San Antonio Palopo	3	Marzo	2023-03-23T00:00:00	2024-11-08T08:00:00	7	Dirección del viento	3.22
161019	7	Sololá	712	San Antonio Palopó	9	San Antonio Palopo	3	Marzo	2023-03-23T00:00:00	2024-11-08T08:00:00	1	Precipitación	0
161020	7	Sololá	712	San Antonio Palopó	9	San Antonio Palopo	3	Marzo	2023-03-23T00:00:00	2024-11-08T08:00:00	8	Radiación solar	54
161021	7	Sololá	712	San Antonio Palopó	9	San Antonio Palopo	3	Marzo	2023-03-23T00:00:00	2024-11-08T09:00:00	2	Temperatura media	20.6
161022	7	Sololá	712	San Antonio Palopó	9	San Antonio Palopo	3	Marzo	2023-03-23T00:00:00	2024-11-08T09:00:00	4	Temperatura máxima	20.7
161023	7	Sololá	712	San Antonio Palopó	9	San Antonio Palopo	3	Marzo	2023-03-23T00:00:00	2024-11-08T09:00:00	3	Temperatura mínima	18.3
161024	7	Sololá	712	San Antonio Palopó	9	San Antonio Palopo	3	Marzo	2023-03-23T00:00:00	2024-11-08T09:00:00	5	Humedad	63
161025	7	Sololá	712	San Antonio Palopó	9	San Antonio Palopo	3	Marzo	2023-03-23T00:00:00	2024-11-08T09:00:00	6	Velocidad del viento	3.2
161026	7	Sololá	712	San Antonio Palopó	9	San Antonio Palopo	3	Marzo	2023-03-23T00:00:00	2024-11-08T09:00:00	7	Dirección del viento	3.22
161027	7	Sololá	712	San Antonio Palopó	9	San Antonio Palopo	3	Marzo	2023-03-23T00:00:00	2024-11-08T09:00:00	1	Precipitación	0
161028	7	Sololá	712	San Antonio Palopó	9	San Antonio Palopo	3	Marzo	2023-03-23T00:00:00	2024-11-08T09:00:00	8	Radiación solar	399
161029	7	Sololá	712	San Antonio Palopó	9	San Antonio Palopo	3	Marzo	2023-03-23T00:00:00	2024-11-08T10:00:00	2	Temperatura media	22.6
161030	7	Sololá	712	San Antonio Palopó	9	San Antonio Palopo	3	Marzo	2023-03-23T00:00:00	2024-11-08T10:00:00	4	Temperatura máxima	22.6
161031	7	Sololá	712	San Antonio Palopó	9	San Antonio Palopo	3	Marzo	2023-03-23T00:00:00	2024-11-08T10:00:00	3	Temperatura mínima	20.4
161032	7	Sololá	712	San Antonio Palopó	9	San Antonio Palopo	3	Marzo	2023-03-23T00:00:00	2024-11-08T10:00:00	5	Humedad	54
161033	7	Sololá	712	San Antonio Palopó	9	San Antonio Palopo	3	Marzo	2023-03-23T00:00:00	2024-11-08T10:00:00	6	Velocidad del viento	8
161034	7	Sololá	712	San Antonio Palopó	9	San Antonio Palopo	3	Marzo	2023-03-23T00:00:00	2024-11-08T10:00:00	7	Dirección del viento	8.05
161035	7	Sololá	712	San Antonio Palopó	9	San Antonio Palopo	3	Marzo	2023-03-23T00:00:00	2024-11-08T10:00:00	1	Precipitación	0
161036	7	Sololá	712	San Antonio Palopó	9	San Antonio Palopo	3	Marzo	2023-03-23T00:00:00	2024-11-08T10:00:00	8	Radiación solar	651
161037	7	Sololá	712	San Antonio Palopó	9	San Antonio Palopo	3	Marzo	2023-03-23T00:00:00	2024-11-08T11:00:00	2	Temperatura media	23.6
161038	7	Sololá	712	San Antonio Palopó	9	San Antonio Palopo	3	Marzo	2023-03-23T00:00:00	2024-11-08T11:00:00	4	Temperatura máxima	24.1
161039	7	Sololá	712	San Antonio Palopó	9	San Antonio Palopo	3	Marzo	2023-03-23T00:00:00	2024-11-08T11:00:00	3	Temperatura mínima	22.3
161040	7	Sololá	712	San Antonio Palopó	9	San Antonio Palopo	3	Marzo	2023-03-23T00:00:00	2024-11-08T11:00:00	5	Humedad	50
161041	7	Sololá	712	San Antonio Palopó	9	San Antonio Palopo	3	Marzo	2023-03-23T00:00:00	2024-11-08T11:00:00	6	Velocidad del viento	12.9
161042	7	Sololá	712	San Antonio Palopó	9	San Antonio Palopo	3	Marzo	2023-03-23T00:00:00	2024-11-08T11:00:00	7	Dirección del viento	12.87
161043	7	Sololá	712	San Antonio Palopó	9	San Antonio Palopo	3	Marzo	2023-03-23T00:00:00	2024-11-08T11:00:00	1	Precipitación	0
161044	7	Sololá	712	San Antonio Palopó	9	San Antonio Palopo	3	Marzo	2023-03-23T00:00:00	2024-11-08T11:00:00	8	Radiación solar	886
161045	7	Sololá	712	San Antonio Palopó	9	San Antonio Palopo	3	Marzo	2023-03-23T00:00:00	2024-11-08T12:00:00	2	Temperatura media	24.9
161046	7	Sololá	712	San Antonio Palopó	9	San Antonio Palopo	3	Marzo	2023-03-23T00:00:00	2024-11-08T12:00:00	4	Temperatura máxima	25
161047	7	Sololá	712	San Antonio Palopó	9	San Antonio Palopo	3	Marzo	2023-03-23T00:00:00	2024-11-08T12:00:00	3	Temperatura mínima	23.3
161048	7	Sololá	712	San Antonio Palopó	9	San Antonio Palopo	3	Marzo	2023-03-23T00:00:00	2024-11-08T12:00:00	5	Humedad	45
161049	7	Sololá	712	San Antonio Palopó	9	San Antonio Palopo	3	Marzo	2023-03-23T00:00:00	2024-11-08T12:00:00	6	Velocidad del viento	14.5
161050	7	Sololá	712	San Antonio Palopó	9	San Antonio Palopo	3	Marzo	2023-03-23T00:00:00	2024-11-08T12:00:00	7	Dirección del viento	14.48
161051	7	Sololá	712	San Antonio Palopó	9	San Antonio Palopo	3	Marzo	2023-03-23T00:00:00	2024-11-08T12:00:00	1	Precipitación	0
161052	7	Sololá	712	San Antonio Palopó	9	San Antonio Palopo	3	Marzo	2023-03-23T00:00:00	2024-11-08T12:00:00	8	Radiación solar	994
161053	7	Sololá	712	San Antonio Palopó	9	San Antonio Palopo	3	Marzo	2023-03-23T00:00:00	2024-11-08T13:00:00	2	Temperatura media	25.9
161054	7	Sololá	712	San Antonio Palopó	9	San Antonio Palopo	3	Marzo	2023-03-23T00:00:00	2024-11-08T13:00:00	4	Temperatura máxima	26
161055	7	Sololá	712	San Antonio Palopó	9	San Antonio Palopo	3	Marzo	2023-03-23T00:00:00	2024-11-08T13:00:00	3	Temperatura mínima	25
161056	7	Sololá	712	San Antonio Palopó	9	San Antonio Palopo	3	Marzo	2023-03-23T00:00:00	2024-11-08T13:00:00	5	Humedad	45
161057	7	Sololá	712	San Antonio Palopó	9	San Antonio Palopo	3	Marzo	2023-03-23T00:00:00	2024-11-08T13:00:00	6	Velocidad del viento	11.3
161058	7	Sololá	712	San Antonio Palopó	9	San Antonio Palopo	3	Marzo	2023-03-23T00:00:00	2024-11-08T13:00:00	7	Dirección del viento	11.27
161059	7	Sololá	712	San Antonio Palopó	9	San Antonio Palopo	3	Marzo	2023-03-23T00:00:00	2024-11-08T13:00:00	1	Precipitación	0
161060	7	Sololá	712	San Antonio Palopó	9	San Antonio Palopo	3	Marzo	2023-03-23T00:00:00	2024-11-08T13:00:00	8	Radiación solar	1025
161061	7	Sololá	712	San Antonio Palopó	9	San Antonio Palopo	3	Marzo	2023-03-23T00:00:00	2024-11-08T14:00:00	2	Temperatura media	26.1
161062	7	Sololá	712	San Antonio Palopó	9	San Antonio Palopo	3	Marzo	2023-03-23T00:00:00	2024-11-08T14:00:00	4	Temperatura máxima	26.5
161063	7	Sololá	712	San Antonio Palopó	9	San Antonio Palopo	3	Marzo	2023-03-23T00:00:00	2024-11-08T14:00:00	3	Temperatura mínima	25.7
161064	7	Sololá	712	San Antonio Palopó	9	San Antonio Palopo	3	Marzo	2023-03-23T00:00:00	2024-11-08T14:00:00	5	Humedad	44
161065	7	Sololá	712	San Antonio Palopó	9	San Antonio Palopo	3	Marzo	2023-03-23T00:00:00	2024-11-08T14:00:00	6	Velocidad del viento	12.9
161066	7	Sololá	712	San Antonio Palopó	9	San Antonio Palopo	3	Marzo	2023-03-23T00:00:00	2024-11-08T14:00:00	7	Dirección del viento	12.87
161067	7	Sololá	712	San Antonio Palopó	9	San Antonio Palopo	3	Marzo	2023-03-23T00:00:00	2024-11-08T14:00:00	1	Precipitación	0
161068	7	Sololá	712	San Antonio Palopó	9	San Antonio Palopo	3	Marzo	2023-03-23T00:00:00	2024-11-08T14:00:00	8	Radiación solar	959
161069	7	Sololá	712	San Antonio Palopó	9	San Antonio Palopo	3	Marzo	2023-03-23T00:00:00	2024-11-08T15:00:00	2	Temperatura media	25.9
161070	7	Sololá	712	San Antonio Palopó	9	San Antonio Palopo	3	Marzo	2023-03-23T00:00:00	2024-11-08T15:00:00	4	Temperatura máxima	26.6
161071	7	Sololá	712	San Antonio Palopó	9	San Antonio Palopo	3	Marzo	2023-03-23T00:00:00	2024-11-08T15:00:00	3	Temperatura mínima	24.8
161072	7	Sololá	712	San Antonio Palopó	9	San Antonio Palopo	3	Marzo	2023-03-23T00:00:00	2024-11-08T15:00:00	5	Humedad	57
161073	7	Sololá	712	San Antonio Palopó	9	San Antonio Palopo	3	Marzo	2023-03-23T00:00:00	2024-11-08T15:00:00	6	Velocidad del viento	12.9
161074	7	Sololá	712	San Antonio Palopó	9	San Antonio Palopo	3	Marzo	2023-03-23T00:00:00	2024-11-08T15:00:00	7	Dirección del viento	12.87
161075	7	Sololá	712	San Antonio Palopó	9	San Antonio Palopo	3	Marzo	2023-03-23T00:00:00	2024-11-08T15:00:00	1	Precipitación	0
161076	7	Sololá	712	San Antonio Palopó	9	San Antonio Palopo	3	Marzo	2023-03-23T00:00:00	2024-11-08T15:00:00	8	Radiación solar	731
161077	7	Sololá	712	San Antonio Palopó	9	San Antonio Palopo	3	Marzo	2023-03-23T00:00:00	2024-11-08T16:00:00	2	Temperatura media	24.8
161078	7	Sololá	712	San Antonio Palopó	9	San Antonio Palopo	3	Marzo	2023-03-23T00:00:00	2024-11-08T16:00:00	4	Temperatura máxima	26.3
161079	7	Sololá	712	San Antonio Palopó	9	San Antonio Palopo	3	Marzo	2023-03-23T00:00:00	2024-11-08T16:00:00	3	Temperatura mínima	24.7
161080	7	Sololá	712	San Antonio Palopó	9	San Antonio Palopo	3	Marzo	2023-03-23T00:00:00	2024-11-08T16:00:00	5	Humedad	56
161081	7	Sololá	712	San Antonio Palopó	9	San Antonio Palopo	3	Marzo	2023-03-23T00:00:00	2024-11-08T16:00:00	6	Velocidad del viento	9.7
161082	7	Sololá	712	San Antonio Palopó	9	San Antonio Palopo	3	Marzo	2023-03-23T00:00:00	2024-11-08T16:00:00	7	Dirección del viento	9.66
161083	7	Sololá	712	San Antonio Palopó	9	San Antonio Palopo	3	Marzo	2023-03-23T00:00:00	2024-11-08T16:00:00	1	Precipitación	0
161084	7	Sololá	712	San Antonio Palopó	9	San Antonio Palopo	3	Marzo	2023-03-23T00:00:00	2024-11-08T16:00:00	8	Radiación solar	431
161085	7	Sololá	712	San Antonio Palopó	9	San Antonio Palopo	3	Marzo	2023-03-23T00:00:00	2024-11-08T17:00:00	2	Temperatura media	24.9
161086	7	Sololá	712	San Antonio Palopó	9	San Antonio Palopo	3	Marzo	2023-03-23T00:00:00	2024-11-08T17:00:00	4	Temperatura máxima	25.3
161087	7	Sololá	712	San Antonio Palopó	9	San Antonio Palopo	3	Marzo	2023-03-23T00:00:00	2024-11-08T17:00:00	3	Temperatura mínima	23.8
161088	7	Sololá	712	San Antonio Palopó	9	San Antonio Palopo	3	Marzo	2023-03-23T00:00:00	2024-11-08T17:00:00	5	Humedad	48
161089	7	Sololá	712	San Antonio Palopó	9	San Antonio Palopo	3	Marzo	2023-03-23T00:00:00	2024-11-08T17:00:00	6	Velocidad del viento	9.7
161090	7	Sololá	712	San Antonio Palopó	9	San Antonio Palopo	3	Marzo	2023-03-23T00:00:00	2024-11-08T17:00:00	7	Dirección del viento	9.66
161091	7	Sololá	712	San Antonio Palopó	9	San Antonio Palopo	3	Marzo	2023-03-23T00:00:00	2024-11-08T17:00:00	1	Precipitación	0
161092	7	Sololá	712	San Antonio Palopó	9	San Antonio Palopo	3	Marzo	2023-03-23T00:00:00	2024-11-08T17:00:00	8	Radiación solar	249
161093	7	Sololá	712	San Antonio Palopó	9	San Antonio Palopo	3	Marzo	2023-03-23T00:00:00	2024-11-08T18:00:00	2	Temperatura media	23.4
161094	7	Sololá	712	San Antonio Palopó	9	San Antonio Palopo	3	Marzo	2023-03-23T00:00:00	2024-11-08T18:00:00	4	Temperatura máxima	24.9
161095	7	Sololá	712	San Antonio Palopó	9	San Antonio Palopo	3	Marzo	2023-03-23T00:00:00	2024-11-08T18:00:00	3	Temperatura mínima	23.1
161096	7	Sololá	712	San Antonio Palopó	9	San Antonio Palopo	3	Marzo	2023-03-23T00:00:00	2024-11-08T18:00:00	5	Humedad	55
161097	7	Sololá	712	San Antonio Palopó	9	San Antonio Palopo	3	Marzo	2023-03-23T00:00:00	2024-11-08T18:00:00	6	Velocidad del viento	8
161098	7	Sololá	712	San Antonio Palopó	9	San Antonio Palopo	3	Marzo	2023-03-23T00:00:00	2024-11-08T18:00:00	7	Dirección del viento	8.05
161099	7	Sololá	712	San Antonio Palopó	9	San Antonio Palopo	3	Marzo	2023-03-23T00:00:00	2024-11-08T18:00:00	1	Precipitación	0
161100	7	Sololá	712	San Antonio Palopó	9	San Antonio Palopo	3	Marzo	2023-03-23T00:00:00	2024-11-08T18:00:00	8	Radiación solar	77
161101	7	Sololá	712	San Antonio Palopó	9	San Antonio Palopo	3	Marzo	2023-03-23T00:00:00	2024-11-08T19:00:00	2	Temperatura media	21.7
161102	7	Sololá	712	San Antonio Palopó	9	San Antonio Palopo	3	Marzo	2023-03-23T00:00:00	2024-11-08T19:00:00	4	Temperatura máxima	23.4
161103	7	Sololá	712	San Antonio Palopó	9	San Antonio Palopo	3	Marzo	2023-03-23T00:00:00	2024-11-08T19:00:00	3	Temperatura mínima	21.7
161104	7	Sololá	712	San Antonio Palopó	9	San Antonio Palopo	3	Marzo	2023-03-23T00:00:00	2024-11-08T19:00:00	5	Humedad	58
161105	7	Sololá	712	San Antonio Palopó	9	San Antonio Palopo	3	Marzo	2023-03-23T00:00:00	2024-11-08T19:00:00	6	Velocidad del viento	9.7
161106	7	Sololá	712	San Antonio Palopó	9	San Antonio Palopo	3	Marzo	2023-03-23T00:00:00	2024-11-08T19:00:00	7	Dirección del viento	9.66
161107	7	Sololá	712	San Antonio Palopó	9	San Antonio Palopo	3	Marzo	2023-03-23T00:00:00	2024-11-08T19:00:00	1	Precipitación	0
161108	7	Sololá	712	San Antonio Palopó	9	San Antonio Palopo	3	Marzo	2023-03-23T00:00:00	2024-11-08T19:00:00	8	Radiación solar	0
161109	7	Sololá	712	San Antonio Palopó	9	San Antonio Palopo	3	Marzo	2023-03-23T00:00:00	2024-11-08T20:00:00	2	Temperatura media	20.8
161110	7	Sololá	712	San Antonio Palopó	9	San Antonio Palopo	3	Marzo	2023-03-23T00:00:00	2024-11-08T20:00:00	4	Temperatura máxima	21.7
161111	7	Sololá	712	San Antonio Palopó	9	San Antonio Palopo	3	Marzo	2023-03-23T00:00:00	2024-11-08T20:00:00	3	Temperatura mínima	20.8
161112	7	Sololá	712	San Antonio Palopó	9	San Antonio Palopo	3	Marzo	2023-03-23T00:00:00	2024-11-08T20:00:00	5	Humedad	61
161113	7	Sololá	712	San Antonio Palopó	9	San Antonio Palopo	3	Marzo	2023-03-23T00:00:00	2024-11-08T20:00:00	6	Velocidad del viento	16.1
161114	7	Sololá	712	San Antonio Palopó	9	San Antonio Palopo	3	Marzo	2023-03-23T00:00:00	2024-11-08T20:00:00	7	Dirección del viento	16.09
161115	7	Sololá	712	San Antonio Palopó	9	San Antonio Palopo	3	Marzo	2023-03-23T00:00:00	2024-11-08T20:00:00	1	Precipitación	0
161116	7	Sololá	712	San Antonio Palopó	9	San Antonio Palopo	3	Marzo	2023-03-23T00:00:00	2024-11-08T20:00:00	8	Radiación solar	0
161117	7	Sololá	712	San Antonio Palopó	9	San Antonio Palopo	3	Marzo	2023-03-23T00:00:00	2024-11-08T21:00:00	2	Temperatura media	20.2
161118	7	Sololá	712	San Antonio Palopó	9	San Antonio Palopo	3	Marzo	2023-03-23T00:00:00	2024-11-08T21:00:00	4	Temperatura máxima	20.8
161119	7	Sololá	712	San Antonio Palopó	9	San Antonio Palopo	3	Marzo	2023-03-23T00:00:00	2024-11-08T21:00:00	3	Temperatura mínima	20.1
161120	7	Sololá	712	San Antonio Palopó	9	San Antonio Palopo	3	Marzo	2023-03-23T00:00:00	2024-11-08T21:00:00	5	Humedad	63
161121	7	Sololá	712	San Antonio Palopó	9	San Antonio Palopo	3	Marzo	2023-03-23T00:00:00	2024-11-08T21:00:00	6	Velocidad del viento	11.3
161122	7	Sololá	712	San Antonio Palopó	9	San Antonio Palopo	3	Marzo	2023-03-23T00:00:00	2024-11-08T21:00:00	7	Dirección del viento	11.27
161123	7	Sololá	712	San Antonio Palopó	9	San Antonio Palopo	3	Marzo	2023-03-23T00:00:00	2024-11-08T21:00:00	1	Precipitación	0
161124	7	Sololá	712	San Antonio Palopó	9	San Antonio Palopo	3	Marzo	2023-03-23T00:00:00	2024-11-08T21:00:00	8	Radiación solar	0
161125	7	Sololá	712	San Antonio Palopó	9	San Antonio Palopo	3	Marzo	2023-03-23T00:00:00	2024-11-08T22:00:00	2	Temperatura media	19.5
161126	7	Sololá	712	San Antonio Palopó	9	San Antonio Palopo	3	Marzo	2023-03-23T00:00:00	2024-11-08T22:00:00	4	Temperatura máxima	20.2
161127	7	Sololá	712	San Antonio Palopó	9	San Antonio Palopo	3	Marzo	2023-03-23T00:00:00	2024-11-08T22:00:00	3	Temperatura mínima	19.5
161128	7	Sololá	712	San Antonio Palopó	9	San Antonio Palopo	3	Marzo	2023-03-23T00:00:00	2024-11-08T22:00:00	5	Humedad	65
161129	7	Sololá	712	San Antonio Palopó	9	San Antonio Palopo	3	Marzo	2023-03-23T00:00:00	2024-11-08T22:00:00	6	Velocidad del viento	9.7
161130	7	Sololá	712	San Antonio Palopó	9	San Antonio Palopo	3	Marzo	2023-03-23T00:00:00	2024-11-08T22:00:00	7	Dirección del viento	9.66
161131	7	Sololá	712	San Antonio Palopó	9	San Antonio Palopo	3	Marzo	2023-03-23T00:00:00	2024-11-08T22:00:00	1	Precipitación	0
161132	7	Sololá	712	San Antonio Palopó	9	San Antonio Palopo	3	Marzo	2023-03-23T00:00:00	2024-11-08T22:00:00	8	Radiación solar	0
161133	7	Sololá	712	San Antonio Palopó	9	San Antonio Palopo	3	Marzo	2023-03-23T00:00:00	2024-11-08T23:00:00	2	Temperatura media	18.8
161134	7	Sololá	712	San Antonio Palopó	9	San Antonio Palopo	3	Marzo	2023-03-23T00:00:00	2024-11-08T23:00:00	4	Temperatura máxima	19.6
161135	7	Sololá	712	San Antonio Palopó	9	San Antonio Palopo	3	Marzo	2023-03-23T00:00:00	2024-11-08T23:00:00	3	Temperatura mínima	18.7
161136	7	Sololá	712	San Antonio Palopó	9	San Antonio Palopo	3	Marzo	2023-03-23T00:00:00	2024-11-08T23:00:00	5	Humedad	66
161137	7	Sololá	712	San Antonio Palopó	9	San Antonio Palopo	3	Marzo	2023-03-23T00:00:00	2024-11-08T23:00:00	6	Velocidad del viento	8
161138	7	Sololá	712	San Antonio Palopó	9	San Antonio Palopo	3	Marzo	2023-03-23T00:00:00	2024-11-08T23:00:00	7	Dirección del viento	8.05
161139	7	Sololá	712	San Antonio Palopó	9	San Antonio Palopo	3	Marzo	2023-03-23T00:00:00	2024-11-08T23:00:00	1	Precipitación	0
161140	7	Sololá	712	San Antonio Palopó	9	San Antonio Palopo	3	Marzo	2023-03-23T00:00:00	2024-11-08T23:00:00	8	Radiación solar	0
161141	7	Sololá	712	San Antonio Palopó	9	San Antonio Palopo	3	Marzo	2023-03-24T00:00:00	2024-11-08T00:00:00	2	Temperatura media	18.1
161142	7	Sololá	712	San Antonio Palopó	9	San Antonio Palopo	3	Marzo	2023-03-24T00:00:00	2024-11-08T00:00:00	4	Temperatura máxima	18.8
161143	7	Sololá	712	San Antonio Palopó	9	San Antonio Palopo	3	Marzo	2023-03-24T00:00:00	2024-11-08T00:00:00	3	Temperatura mínima	18.1
161144	7	Sololá	712	San Antonio Palopó	9	San Antonio Palopo	3	Marzo	2023-03-24T00:00:00	2024-11-08T00:00:00	5	Humedad	66
161145	7	Sololá	712	San Antonio Palopó	9	San Antonio Palopo	3	Marzo	2023-03-24T00:00:00	2024-11-08T00:00:00	6	Velocidad del viento	9.7
161146	7	Sololá	712	San Antonio Palopó	9	San Antonio Palopo	3	Marzo	2023-03-24T00:00:00	2024-11-08T00:00:00	7	Dirección del viento	9.66
161147	7	Sololá	712	San Antonio Palopó	9	San Antonio Palopo	3	Marzo	2023-03-24T00:00:00	2024-11-08T00:00:00	1	Precipitación	0
161148	7	Sololá	712	San Antonio Palopó	9	San Antonio Palopo	3	Marzo	2023-03-24T00:00:00	2024-11-08T00:00:00	8	Radiación solar	0
161149	7	Sololá	712	San Antonio Palopó	9	San Antonio Palopo	3	Marzo	2023-03-24T00:00:00	2024-11-08T01:00:00	2	Temperatura media	18.1
161150	7	Sololá	712	San Antonio Palopó	9	San Antonio Palopo	3	Marzo	2023-03-24T00:00:00	2024-11-08T01:00:00	4	Temperatura máxima	18.3
161151	7	Sololá	712	San Antonio Palopó	9	San Antonio Palopo	3	Marzo	2023-03-24T00:00:00	2024-11-08T01:00:00	3	Temperatura mínima	17.9
161152	7	Sololá	712	San Antonio Palopó	9	San Antonio Palopo	3	Marzo	2023-03-24T00:00:00	2024-11-08T01:00:00	5	Humedad	66
161153	7	Sololá	712	San Antonio Palopó	9	San Antonio Palopo	3	Marzo	2023-03-24T00:00:00	2024-11-08T01:00:00	6	Velocidad del viento	9.7
161154	7	Sololá	712	San Antonio Palopó	9	San Antonio Palopo	3	Marzo	2023-03-24T00:00:00	2024-11-08T01:00:00	7	Dirección del viento	9.66
161155	7	Sololá	712	San Antonio Palopó	9	San Antonio Palopo	3	Marzo	2023-03-24T00:00:00	2024-11-08T01:00:00	1	Precipitación	0
161156	7	Sololá	712	San Antonio Palopó	9	San Antonio Palopo	3	Marzo	2023-03-24T00:00:00	2024-11-08T01:00:00	8	Radiación solar	0
161157	7	Sololá	712	San Antonio Palopó	9	San Antonio Palopo	3	Marzo	2023-03-24T00:00:00	2024-11-08T02:00:00	2	Temperatura media	17.8
161158	7	Sololá	712	San Antonio Palopó	9	San Antonio Palopo	3	Marzo	2023-03-24T00:00:00	2024-11-08T02:00:00	4	Temperatura máxima	18.3
161159	7	Sololá	712	San Antonio Palopó	9	San Antonio Palopo	3	Marzo	2023-03-24T00:00:00	2024-11-08T02:00:00	3	Temperatura mínima	17.8
161160	7	Sololá	712	San Antonio Palopó	9	San Antonio Palopo	3	Marzo	2023-03-24T00:00:00	2024-11-08T02:00:00	5	Humedad	65
161161	7	Sololá	712	San Antonio Palopó	9	San Antonio Palopo	3	Marzo	2023-03-24T00:00:00	2024-11-08T02:00:00	6	Velocidad del viento	8
161162	7	Sololá	712	San Antonio Palopó	9	San Antonio Palopo	3	Marzo	2023-03-24T00:00:00	2024-11-08T02:00:00	7	Dirección del viento	8.05
161163	7	Sololá	712	San Antonio Palopó	9	San Antonio Palopo	3	Marzo	2023-03-24T00:00:00	2024-11-08T02:00:00	1	Precipitación	0
161164	7	Sololá	712	San Antonio Palopó	9	San Antonio Palopo	3	Marzo	2023-03-24T00:00:00	2024-11-08T02:00:00	8	Radiación solar	0
161165	7	Sololá	712	San Antonio Palopó	9	San Antonio Palopo	3	Marzo	2023-03-24T00:00:00	2024-11-08T03:00:00	2	Temperatura media	17.4
161166	7	Sololá	712	San Antonio Palopó	9	San Antonio Palopo	3	Marzo	2023-03-24T00:00:00	2024-11-08T03:00:00	4	Temperatura máxima	17.8
161167	7	Sololá	712	San Antonio Palopó	9	San Antonio Palopo	3	Marzo	2023-03-24T00:00:00	2024-11-08T03:00:00	3	Temperatura mínima	17.4
161168	7	Sololá	712	San Antonio Palopó	9	San Antonio Palopo	3	Marzo	2023-03-24T00:00:00	2024-11-08T03:00:00	5	Humedad	66
161169	7	Sololá	712	San Antonio Palopó	9	San Antonio Palopo	3	Marzo	2023-03-24T00:00:00	2024-11-08T03:00:00	6	Velocidad del viento	8
161170	7	Sololá	712	San Antonio Palopó	9	San Antonio Palopo	3	Marzo	2023-03-24T00:00:00	2024-11-08T03:00:00	7	Dirección del viento	8.05
161171	7	Sololá	712	San Antonio Palopó	9	San Antonio Palopo	3	Marzo	2023-03-24T00:00:00	2024-11-08T03:00:00	1	Precipitación	0
161172	7	Sololá	712	San Antonio Palopó	9	San Antonio Palopo	3	Marzo	2023-03-24T00:00:00	2024-11-08T03:00:00	8	Radiación solar	0
161173	7	Sololá	712	San Antonio Palopó	9	San Antonio Palopo	3	Marzo	2023-03-24T00:00:00	2024-11-08T04:00:00	2	Temperatura media	17.2
161174	7	Sololá	712	San Antonio Palopó	9	San Antonio Palopo	3	Marzo	2023-03-24T00:00:00	2024-11-08T04:00:00	4	Temperatura máxima	17.6
161175	7	Sololá	712	San Antonio Palopó	9	San Antonio Palopo	3	Marzo	2023-03-24T00:00:00	2024-11-08T04:00:00	3	Temperatura mínima	17.2
161176	7	Sololá	712	San Antonio Palopó	9	San Antonio Palopo	3	Marzo	2023-03-24T00:00:00	2024-11-08T04:00:00	5	Humedad	68
161177	7	Sololá	712	San Antonio Palopó	9	San Antonio Palopo	3	Marzo	2023-03-24T00:00:00	2024-11-08T04:00:00	6	Velocidad del viento	9.7
161178	7	Sololá	712	San Antonio Palopó	9	San Antonio Palopo	3	Marzo	2023-03-24T00:00:00	2024-11-08T04:00:00	7	Dirección del viento	9.66
161179	7	Sololá	712	San Antonio Palopó	9	San Antonio Palopo	3	Marzo	2023-03-24T00:00:00	2024-11-08T04:00:00	1	Precipitación	0
161180	7	Sololá	712	San Antonio Palopó	9	San Antonio Palopo	3	Marzo	2023-03-24T00:00:00	2024-11-08T04:00:00	8	Radiación solar	0
161181	7	Sololá	712	San Antonio Palopó	9	San Antonio Palopo	3	Marzo	2023-03-24T00:00:00	2024-11-08T05:00:00	2	Temperatura media	16.6
161182	7	Sololá	712	San Antonio Palopó	9	San Antonio Palopo	3	Marzo	2023-03-24T00:00:00	2024-11-08T05:00:00	4	Temperatura máxima	17.2
161183	7	Sololá	712	San Antonio Palopó	9	San Antonio Palopo	3	Marzo	2023-03-24T00:00:00	2024-11-08T05:00:00	3	Temperatura mínima	16.6
161184	7	Sololá	712	San Antonio Palopó	9	San Antonio Palopo	3	Marzo	2023-03-24T00:00:00	2024-11-08T05:00:00	5	Humedad	69
161185	7	Sololá	712	San Antonio Palopó	9	San Antonio Palopo	3	Marzo	2023-03-24T00:00:00	2024-11-08T05:00:00	6	Velocidad del viento	6.4
161186	7	Sololá	712	San Antonio Palopó	9	San Antonio Palopo	3	Marzo	2023-03-24T00:00:00	2024-11-08T05:00:00	7	Dirección del viento	6.44
161187	7	Sololá	712	San Antonio Palopó	9	San Antonio Palopo	3	Marzo	2023-03-24T00:00:00	2024-11-08T05:00:00	1	Precipitación	0
161188	7	Sololá	712	San Antonio Palopó	9	San Antonio Palopo	3	Marzo	2023-03-24T00:00:00	2024-11-08T05:00:00	8	Radiación solar	0
161189	7	Sololá	712	San Antonio Palopó	9	San Antonio Palopo	3	Marzo	2023-03-24T00:00:00	2024-11-08T06:00:00	2	Temperatura media	15.8
161190	7	Sololá	712	San Antonio Palopó	9	San Antonio Palopo	3	Marzo	2023-03-24T00:00:00	2024-11-08T06:00:00	4	Temperatura máxima	16.7
161191	7	Sololá	712	San Antonio Palopó	9	San Antonio Palopo	3	Marzo	2023-03-24T00:00:00	2024-11-08T06:00:00	3	Temperatura mínima	15.8
161192	7	Sololá	712	San Antonio Palopó	9	San Antonio Palopo	3	Marzo	2023-03-24T00:00:00	2024-11-08T06:00:00	5	Humedad	72
161193	7	Sololá	712	San Antonio Palopó	9	San Antonio Palopo	3	Marzo	2023-03-24T00:00:00	2024-11-08T06:00:00	6	Velocidad del viento	4.8
161194	7	Sololá	712	San Antonio Palopó	9	San Antonio Palopo	3	Marzo	2023-03-24T00:00:00	2024-11-08T06:00:00	7	Dirección del viento	4.83
161195	7	Sololá	712	San Antonio Palopó	9	San Antonio Palopo	3	Marzo	2023-03-24T00:00:00	2024-11-08T06:00:00	1	Precipitación	0
161196	7	Sololá	712	San Antonio Palopó	9	San Antonio Palopo	3	Marzo	2023-03-24T00:00:00	2024-11-08T06:00:00	8	Radiación solar	0
161197	7	Sololá	712	San Antonio Palopó	9	San Antonio Palopo	3	Marzo	2023-03-24T00:00:00	2024-11-08T07:00:00	2	Temperatura media	15.7
161198	7	Sololá	712	San Antonio Palopó	9	San Antonio Palopo	3	Marzo	2023-03-24T00:00:00	2024-11-08T07:00:00	4	Temperatura máxima	15.8
161199	7	Sololá	712	San Antonio Palopó	9	San Antonio Palopo	3	Marzo	2023-03-24T00:00:00	2024-11-08T07:00:00	3	Temperatura mínima	15.4
161200	7	Sololá	712	San Antonio Palopó	9	San Antonio Palopo	3	Marzo	2023-03-24T00:00:00	2024-11-08T07:00:00	5	Humedad	75
161201	7	Sololá	712	San Antonio Palopó	9	San Antonio Palopo	3	Marzo	2023-03-24T00:00:00	2024-11-08T07:00:00	6	Velocidad del viento	3.2
161202	7	Sololá	712	San Antonio Palopó	9	San Antonio Palopo	3	Marzo	2023-03-24T00:00:00	2024-11-08T07:00:00	7	Dirección del viento	3.22
161203	7	Sololá	712	San Antonio Palopó	9	San Antonio Palopo	3	Marzo	2023-03-24T00:00:00	2024-11-08T07:00:00	1	Precipitación	0
161204	7	Sololá	712	San Antonio Palopó	9	San Antonio Palopo	3	Marzo	2023-03-24T00:00:00	2024-11-08T07:00:00	8	Radiación solar	18
161205	7	Sololá	712	San Antonio Palopó	9	San Antonio Palopo	3	Marzo	2023-03-24T00:00:00	2024-11-08T08:00:00	2	Temperatura media	17.6
161206	7	Sololá	712	San Antonio Palopó	9	San Antonio Palopo	3	Marzo	2023-03-24T00:00:00	2024-11-08T08:00:00	4	Temperatura máxima	17.6
161207	7	Sololá	712	San Antonio Palopó	9	San Antonio Palopo	3	Marzo	2023-03-24T00:00:00	2024-11-08T08:00:00	3	Temperatura mínima	15.7
161208	7	Sololá	712	San Antonio Palopó	9	San Antonio Palopo	3	Marzo	2023-03-24T00:00:00	2024-11-08T08:00:00	5	Humedad	72
161209	7	Sololá	712	San Antonio Palopó	9	San Antonio Palopo	3	Marzo	2023-03-24T00:00:00	2024-11-08T08:00:00	6	Velocidad del viento	1.6
161210	7	Sololá	712	San Antonio Palopó	9	San Antonio Palopo	3	Marzo	2023-03-24T00:00:00	2024-11-08T08:00:00	7	Dirección del viento	1.61
161211	7	Sololá	712	San Antonio Palopó	9	San Antonio Palopo	3	Marzo	2023-03-24T00:00:00	2024-11-08T08:00:00	1	Precipitación	0
161212	7	Sololá	712	San Antonio Palopó	9	San Antonio Palopo	3	Marzo	2023-03-24T00:00:00	2024-11-08T08:00:00	8	Radiación solar	96
161213	7	Sololá	712	San Antonio Palopó	9	San Antonio Palopo	3	Marzo	2023-03-24T00:00:00	2024-11-08T09:00:00	2	Temperatura media	19
161214	7	Sololá	712	San Antonio Palopó	9	San Antonio Palopo	3	Marzo	2023-03-24T00:00:00	2024-11-08T09:00:00	4	Temperatura máxima	19.4
161215	7	Sololá	712	San Antonio Palopó	9	San Antonio Palopo	3	Marzo	2023-03-24T00:00:00	2024-11-08T09:00:00	3	Temperatura mínima	17.6
161216	7	Sololá	712	San Antonio Palopó	9	San Antonio Palopo	3	Marzo	2023-03-24T00:00:00	2024-11-08T09:00:00	5	Humedad	70
161217	7	Sololá	712	San Antonio Palopó	9	San Antonio Palopo	3	Marzo	2023-03-24T00:00:00	2024-11-08T09:00:00	6	Velocidad del viento	1.6
161218	7	Sololá	712	San Antonio Palopó	9	San Antonio Palopo	3	Marzo	2023-03-24T00:00:00	2024-11-08T09:00:00	7	Dirección del viento	1.61
161219	7	Sololá	712	San Antonio Palopó	9	San Antonio Palopo	3	Marzo	2023-03-24T00:00:00	2024-11-08T09:00:00	1	Precipitación	0
161220	7	Sololá	712	San Antonio Palopó	9	San Antonio Palopo	3	Marzo	2023-03-24T00:00:00	2024-11-08T09:00:00	8	Radiación solar	394
161221	7	Sololá	712	San Antonio Palopó	9	San Antonio Palopo	3	Marzo	2023-03-24T00:00:00	2024-11-08T10:00:00	2	Temperatura media	20.3
161222	7	Sololá	712	San Antonio Palopó	9	San Antonio Palopo	3	Marzo	2023-03-24T00:00:00	2024-11-08T10:00:00	4	Temperatura máxima	20.3
161223	7	Sololá	712	San Antonio Palopó	9	San Antonio Palopo	3	Marzo	2023-03-24T00:00:00	2024-11-08T10:00:00	3	Temperatura mínima	18.9
161224	7	Sololá	712	San Antonio Palopó	9	San Antonio Palopo	3	Marzo	2023-03-24T00:00:00	2024-11-08T10:00:00	5	Humedad	68
161225	7	Sololá	712	San Antonio Palopó	9	San Antonio Palopo	3	Marzo	2023-03-24T00:00:00	2024-11-08T10:00:00	6	Velocidad del viento	3.2
161226	7	Sololá	712	San Antonio Palopó	9	San Antonio Palopo	3	Marzo	2023-03-24T00:00:00	2024-11-08T10:00:00	7	Dirección del viento	3.22
161227	7	Sololá	712	San Antonio Palopó	9	San Antonio Palopo	3	Marzo	2023-03-24T00:00:00	2024-11-08T10:00:00	1	Precipitación	0
161228	7	Sololá	712	San Antonio Palopó	9	San Antonio Palopo	3	Marzo	2023-03-24T00:00:00	2024-11-08T10:00:00	8	Radiación solar	660
161229	7	Sololá	712	San Antonio Palopó	9	San Antonio Palopo	3	Marzo	2023-03-24T00:00:00	2024-11-08T11:00:00	2	Temperatura media	21.3
161230	7	Sololá	712	San Antonio Palopó	9	San Antonio Palopo	3	Marzo	2023-03-24T00:00:00	2024-11-08T11:00:00	4	Temperatura máxima	21.3
161231	7	Sololá	712	San Antonio Palopó	9	San Antonio Palopo	3	Marzo	2023-03-24T00:00:00	2024-11-08T11:00:00	3	Temperatura mínima	20.3
161232	7	Sololá	712	San Antonio Palopó	9	San Antonio Palopo	3	Marzo	2023-03-24T00:00:00	2024-11-08T11:00:00	5	Humedad	65
161233	7	Sololá	712	San Antonio Palopó	9	San Antonio Palopo	3	Marzo	2023-03-24T00:00:00	2024-11-08T11:00:00	6	Velocidad del viento	3.2
161234	7	Sololá	712	San Antonio Palopó	9	San Antonio Palopo	3	Marzo	2023-03-24T00:00:00	2024-11-08T11:00:00	7	Dirección del viento	3.22
161235	7	Sololá	712	San Antonio Palopó	9	San Antonio Palopo	3	Marzo	2023-03-24T00:00:00	2024-11-08T11:00:00	1	Precipitación	0
161236	7	Sololá	712	San Antonio Palopó	9	San Antonio Palopo	3	Marzo	2023-03-24T00:00:00	2024-11-08T11:00:00	8	Radiación solar	849
161237	7	Sololá	712	San Antonio Palopó	9	San Antonio Palopo	3	Marzo	2023-03-24T00:00:00	2024-11-08T12:00:00	2	Temperatura media	22.6
161238	7	Sololá	712	San Antonio Palopó	9	San Antonio Palopo	3	Marzo	2023-03-24T00:00:00	2024-11-08T12:00:00	4	Temperatura máxima	22.6
161239	7	Sololá	712	San Antonio Palopó	9	San Antonio Palopo	3	Marzo	2023-03-24T00:00:00	2024-11-08T12:00:00	3	Temperatura mínima	21.3
161240	7	Sololá	712	San Antonio Palopó	9	San Antonio Palopo	3	Marzo	2023-03-24T00:00:00	2024-11-08T12:00:00	5	Humedad	63
161241	7	Sololá	712	San Antonio Palopó	9	San Antonio Palopo	3	Marzo	2023-03-24T00:00:00	2024-11-08T12:00:00	6	Velocidad del viento	12.9
161242	7	Sololá	712	San Antonio Palopó	9	San Antonio Palopo	3	Marzo	2023-03-24T00:00:00	2024-11-08T12:00:00	7	Dirección del viento	12.87
161243	7	Sololá	712	San Antonio Palopó	9	San Antonio Palopo	3	Marzo	2023-03-24T00:00:00	2024-11-08T12:00:00	1	Precipitación	0
161244	7	Sololá	712	San Antonio Palopó	9	San Antonio Palopo	3	Marzo	2023-03-24T00:00:00	2024-11-08T12:00:00	8	Radiación solar	940
161245	7	Sololá	712	San Antonio Palopó	9	San Antonio Palopo	3	Marzo	2023-03-24T00:00:00	2024-11-08T13:00:00	2	Temperatura media	23
161246	7	Sololá	712	San Antonio Palopó	9	San Antonio Palopo	3	Marzo	2023-03-24T00:00:00	2024-11-08T13:00:00	4	Temperatura máxima	23.2
161247	7	Sololá	712	San Antonio Palopó	9	San Antonio Palopo	3	Marzo	2023-03-24T00:00:00	2024-11-08T13:00:00	3	Temperatura mínima	22.6
161248	7	Sololá	712	San Antonio Palopó	9	San Antonio Palopo	3	Marzo	2023-03-24T00:00:00	2024-11-08T13:00:00	5	Humedad	69
161249	7	Sololá	712	San Antonio Palopó	9	San Antonio Palopo	3	Marzo	2023-03-24T00:00:00	2024-11-08T13:00:00	6	Velocidad del viento	11.3
161250	7	Sololá	712	San Antonio Palopó	9	San Antonio Palopo	3	Marzo	2023-03-24T00:00:00	2024-11-08T13:00:00	7	Dirección del viento	11.27
161251	7	Sololá	712	San Antonio Palopó	9	San Antonio Palopo	3	Marzo	2023-03-24T00:00:00	2024-11-08T13:00:00	1	Precipitación	0
161252	7	Sololá	712	San Antonio Palopó	9	San Antonio Palopo	3	Marzo	2023-03-24T00:00:00	2024-11-08T13:00:00	8	Radiación solar	983
161253	7	Sololá	712	San Antonio Palopó	9	San Antonio Palopo	3	Marzo	2023-03-24T00:00:00	2024-11-08T14:00:00	2	Temperatura media	23.2
161254	7	Sololá	712	San Antonio Palopó	9	San Antonio Palopo	3	Marzo	2023-03-24T00:00:00	2024-11-08T14:00:00	4	Temperatura máxima	23.7
161255	7	Sololá	712	San Antonio Palopó	9	San Antonio Palopo	3	Marzo	2023-03-24T00:00:00	2024-11-08T14:00:00	3	Temperatura mínima	23
161256	7	Sololá	712	San Antonio Palopó	9	San Antonio Palopo	3	Marzo	2023-03-24T00:00:00	2024-11-08T14:00:00	5	Humedad	65
161257	7	Sololá	712	San Antonio Palopó	9	San Antonio Palopo	3	Marzo	2023-03-24T00:00:00	2024-11-08T14:00:00	6	Velocidad del viento	9.7
161258	7	Sololá	712	San Antonio Palopó	9	San Antonio Palopo	3	Marzo	2023-03-24T00:00:00	2024-11-08T14:00:00	7	Dirección del viento	9.66
161259	7	Sololá	712	San Antonio Palopó	9	San Antonio Palopo	3	Marzo	2023-03-24T00:00:00	2024-11-08T14:00:00	1	Precipitación	0
161260	7	Sololá	712	San Antonio Palopó	9	San Antonio Palopo	3	Marzo	2023-03-24T00:00:00	2024-11-08T14:00:00	8	Radiación solar	886
161261	7	Sololá	712	San Antonio Palopó	9	San Antonio Palopo	3	Marzo	2023-03-24T00:00:00	2024-11-08T15:00:00	2	Temperatura media	22.6
161262	7	Sololá	712	San Antonio Palopó	9	San Antonio Palopo	3	Marzo	2023-03-24T00:00:00	2024-11-08T15:00:00	4	Temperatura máxima	23.6
161263	7	Sololá	712	San Antonio Palopó	9	San Antonio Palopo	3	Marzo	2023-03-24T00:00:00	2024-11-08T15:00:00	3	Temperatura mínima	22.4
161264	7	Sololá	712	San Antonio Palopó	9	San Antonio Palopo	3	Marzo	2023-03-24T00:00:00	2024-11-08T15:00:00	5	Humedad	69
161265	7	Sololá	712	San Antonio Palopó	9	San Antonio Palopo	3	Marzo	2023-03-24T00:00:00	2024-11-08T15:00:00	6	Velocidad del viento	12.9
161266	7	Sololá	712	San Antonio Palopó	9	San Antonio Palopo	3	Marzo	2023-03-24T00:00:00	2024-11-08T15:00:00	7	Dirección del viento	12.87
161267	7	Sololá	712	San Antonio Palopó	9	San Antonio Palopo	3	Marzo	2023-03-24T00:00:00	2024-11-08T15:00:00	1	Precipitación	0
161268	7	Sololá	712	San Antonio Palopó	9	San Antonio Palopo	3	Marzo	2023-03-24T00:00:00	2024-11-08T15:00:00	8	Radiación solar	724
161269	7	Sololá	712	San Antonio Palopó	9	San Antonio Palopo	3	Marzo	2023-03-24T00:00:00	2024-11-08T16:00:00	2	Temperatura media	23.9
161270	7	Sololá	712	San Antonio Palopó	9	San Antonio Palopo	3	Marzo	2023-03-24T00:00:00	2024-11-08T16:00:00	4	Temperatura máxima	24.2
161271	7	Sololá	712	San Antonio Palopó	9	San Antonio Palopo	3	Marzo	2023-03-24T00:00:00	2024-11-08T16:00:00	3	Temperatura mínima	22.6
161272	7	Sololá	712	San Antonio Palopó	9	San Antonio Palopo	3	Marzo	2023-03-24T00:00:00	2024-11-08T16:00:00	5	Humedad	67
161273	7	Sololá	712	San Antonio Palopó	9	San Antonio Palopo	3	Marzo	2023-03-24T00:00:00	2024-11-08T16:00:00	6	Velocidad del viento	9.7
161274	7	Sololá	712	San Antonio Palopó	9	San Antonio Palopo	3	Marzo	2023-03-24T00:00:00	2024-11-08T16:00:00	7	Dirección del viento	9.66
161275	7	Sololá	712	San Antonio Palopó	9	San Antonio Palopo	3	Marzo	2023-03-24T00:00:00	2024-11-08T16:00:00	1	Precipitación	0
161276	7	Sololá	712	San Antonio Palopó	9	San Antonio Palopo	3	Marzo	2023-03-24T00:00:00	2024-11-08T16:00:00	8	Radiación solar	552
161277	7	Sololá	712	San Antonio Palopó	9	San Antonio Palopo	3	Marzo	2023-03-24T00:00:00	2024-11-08T17:00:00	2	Temperatura media	21.5
161278	7	Sololá	712	San Antonio Palopó	9	San Antonio Palopo	3	Marzo	2023-03-24T00:00:00	2024-11-08T17:00:00	4	Temperatura máxima	24.2
161279	7	Sololá	712	San Antonio Palopó	9	San Antonio Palopo	3	Marzo	2023-03-24T00:00:00	2024-11-08T17:00:00	3	Temperatura mínima	21.3
161280	7	Sololá	712	San Antonio Palopó	9	San Antonio Palopo	3	Marzo	2023-03-24T00:00:00	2024-11-08T17:00:00	5	Humedad	78
161281	7	Sololá	712	San Antonio Palopó	9	San Antonio Palopo	3	Marzo	2023-03-24T00:00:00	2024-11-08T17:00:00	6	Velocidad del viento	6.4
161282	7	Sololá	712	San Antonio Palopó	9	San Antonio Palopo	3	Marzo	2023-03-24T00:00:00	2024-11-08T17:00:00	7	Dirección del viento	6.44
161283	7	Sololá	712	San Antonio Palopó	9	San Antonio Palopo	3	Marzo	2023-03-24T00:00:00	2024-11-08T17:00:00	1	Precipitación	0
161284	7	Sololá	712	San Antonio Palopó	9	San Antonio Palopo	3	Marzo	2023-03-24T00:00:00	2024-11-08T17:00:00	8	Radiación solar	171
161285	7	Sololá	712	San Antonio Palopó	9	San Antonio Palopo	3	Marzo	2023-03-24T00:00:00	2024-11-08T18:00:00	2	Temperatura media	20
161286	7	Sololá	712	San Antonio Palopó	9	San Antonio Palopo	3	Marzo	2023-03-24T00:00:00	2024-11-08T18:00:00	4	Temperatura máxima	21.5
161287	7	Sololá	712	San Antonio Palopó	9	San Antonio Palopo	3	Marzo	2023-03-24T00:00:00	2024-11-08T18:00:00	3	Temperatura mínima	19.8
161288	7	Sololá	712	San Antonio Palopó	9	San Antonio Palopo	3	Marzo	2023-03-24T00:00:00	2024-11-08T18:00:00	5	Humedad	81
161289	7	Sololá	712	San Antonio Palopó	9	San Antonio Palopo	3	Marzo	2023-03-24T00:00:00	2024-11-08T18:00:00	6	Velocidad del viento	8
161290	7	Sololá	712	San Antonio Palopó	9	San Antonio Palopo	3	Marzo	2023-03-24T00:00:00	2024-11-08T18:00:00	7	Dirección del viento	8.05
161291	7	Sololá	712	San Antonio Palopó	9	San Antonio Palopo	3	Marzo	2023-03-24T00:00:00	2024-11-08T18:00:00	1	Precipitación	0
161292	7	Sololá	712	San Antonio Palopó	9	San Antonio Palopo	3	Marzo	2023-03-24T00:00:00	2024-11-08T18:00:00	8	Radiación solar	37
161293	7	Sololá	712	San Antonio Palopó	9	San Antonio Palopo	3	Marzo	2023-03-24T00:00:00	2024-11-08T19:00:00	2	Temperatura media	19.8
161294	7	Sololá	712	San Antonio Palopó	9	San Antonio Palopo	3	Marzo	2023-03-24T00:00:00	2024-11-08T19:00:00	4	Temperatura máxima	20.1
161295	7	Sololá	712	San Antonio Palopó	9	San Antonio Palopo	3	Marzo	2023-03-24T00:00:00	2024-11-08T19:00:00	3	Temperatura mínima	19.7
161296	7	Sololá	712	San Antonio Palopó	9	San Antonio Palopo	3	Marzo	2023-03-24T00:00:00	2024-11-08T19:00:00	5	Humedad	80
161297	7	Sololá	712	San Antonio Palopó	9	San Antonio Palopo	3	Marzo	2023-03-24T00:00:00	2024-11-08T19:00:00	6	Velocidad del viento	4.8
161298	7	Sololá	712	San Antonio Palopó	9	San Antonio Palopo	3	Marzo	2023-03-24T00:00:00	2024-11-08T19:00:00	7	Dirección del viento	4.83
161299	7	Sololá	712	San Antonio Palopó	9	San Antonio Palopo	3	Marzo	2023-03-24T00:00:00	2024-11-08T19:00:00	1	Precipitación	0
161300	7	Sololá	712	San Antonio Palopó	9	San Antonio Palopo	3	Marzo	2023-03-24T00:00:00	2024-11-08T19:00:00	8	Radiación solar	0
161301	7	Sololá	712	San Antonio Palopó	9	San Antonio Palopo	3	Marzo	2023-03-24T00:00:00	2024-11-08T20:00:00	2	Temperatura media	19.1
161302	7	Sololá	712	San Antonio Palopó	9	San Antonio Palopo	3	Marzo	2023-03-24T00:00:00	2024-11-08T20:00:00	4	Temperatura máxima	19.8
161303	7	Sololá	712	San Antonio Palopó	9	San Antonio Palopo	3	Marzo	2023-03-24T00:00:00	2024-11-08T20:00:00	3	Temperatura mínima	18.9
161304	7	Sololá	712	San Antonio Palopó	9	San Antonio Palopo	3	Marzo	2023-03-24T00:00:00	2024-11-08T20:00:00	5	Humedad	84
161305	7	Sololá	712	San Antonio Palopó	9	San Antonio Palopo	3	Marzo	2023-03-24T00:00:00	2024-11-08T20:00:00	6	Velocidad del viento	6.4
161306	7	Sololá	712	San Antonio Palopó	9	San Antonio Palopo	3	Marzo	2023-03-24T00:00:00	2024-11-08T20:00:00	7	Dirección del viento	6.44
161307	7	Sololá	712	San Antonio Palopó	9	San Antonio Palopo	3	Marzo	2023-03-24T00:00:00	2024-11-08T20:00:00	1	Precipitación	0
161308	7	Sololá	712	San Antonio Palopó	9	San Antonio Palopo	3	Marzo	2023-03-24T00:00:00	2024-11-08T20:00:00	8	Radiación solar	0
161309	7	Sololá	712	San Antonio Palopó	9	San Antonio Palopo	3	Marzo	2023-03-24T00:00:00	2024-11-08T21:00:00	2	Temperatura media	19.1
161310	7	Sololá	712	San Antonio Palopó	9	San Antonio Palopo	3	Marzo	2023-03-24T00:00:00	2024-11-08T21:00:00	4	Temperatura máxima	19.2
161311	7	Sololá	712	San Antonio Palopó	9	San Antonio Palopo	3	Marzo	2023-03-24T00:00:00	2024-11-08T21:00:00	3	Temperatura mínima	18.8
161312	7	Sololá	712	San Antonio Palopó	9	San Antonio Palopo	3	Marzo	2023-03-24T00:00:00	2024-11-08T21:00:00	5	Humedad	81
161313	7	Sololá	712	San Antonio Palopó	9	San Antonio Palopo	3	Marzo	2023-03-24T00:00:00	2024-11-08T21:00:00	6	Velocidad del viento	3.2
161314	7	Sololá	712	San Antonio Palopó	9	San Antonio Palopo	3	Marzo	2023-03-24T00:00:00	2024-11-08T21:00:00	7	Dirección del viento	3.22
161315	7	Sololá	712	San Antonio Palopó	9	San Antonio Palopo	3	Marzo	2023-03-24T00:00:00	2024-11-08T21:00:00	1	Precipitación	0
161316	7	Sololá	712	San Antonio Palopó	9	San Antonio Palopo	3	Marzo	2023-03-24T00:00:00	2024-11-08T21:00:00	8	Radiación solar	0
161317	7	Sololá	712	San Antonio Palopó	9	San Antonio Palopo	3	Marzo	2023-03-24T00:00:00	2024-11-08T22:00:00	2	Temperatura media	18.7
161318	7	Sololá	712	San Antonio Palopó	9	San Antonio Palopo	3	Marzo	2023-03-24T00:00:00	2024-11-08T22:00:00	4	Temperatura máxima	19.2
161319	7	Sololá	712	San Antonio Palopó	9	San Antonio Palopo	3	Marzo	2023-03-24T00:00:00	2024-11-08T22:00:00	3	Temperatura mínima	18.7
161320	7	Sololá	712	San Antonio Palopó	9	San Antonio Palopo	3	Marzo	2023-03-24T00:00:00	2024-11-08T22:00:00	5	Humedad	80
161321	7	Sololá	712	San Antonio Palopó	9	San Antonio Palopo	3	Marzo	2023-03-24T00:00:00	2024-11-08T22:00:00	6	Velocidad del viento	1.6
161322	7	Sololá	712	San Antonio Palopó	9	San Antonio Palopo	3	Marzo	2023-03-24T00:00:00	2024-11-08T22:00:00	7	Dirección del viento	1.61
161323	7	Sololá	712	San Antonio Palopó	9	San Antonio Palopo	3	Marzo	2023-03-24T00:00:00	2024-11-08T22:00:00	1	Precipitación	0
161324	7	Sololá	712	San Antonio Palopó	9	San Antonio Palopo	3	Marzo	2023-03-24T00:00:00	2024-11-08T22:00:00	8	Radiación solar	0
161325	7	Sololá	712	San Antonio Palopó	9	San Antonio Palopo	3	Marzo	2023-03-24T00:00:00	2024-11-08T23:00:00	2	Temperatura media	18.4
161326	7	Sololá	712	San Antonio Palopó	9	San Antonio Palopo	3	Marzo	2023-03-24T00:00:00	2024-11-08T23:00:00	4	Temperatura máxima	18.8
161327	7	Sololá	712	San Antonio Palopó	9	San Antonio Palopo	3	Marzo	2023-03-24T00:00:00	2024-11-08T23:00:00	3	Temperatura mínima	18.4
161328	7	Sololá	712	San Antonio Palopó	9	San Antonio Palopo	3	Marzo	2023-03-24T00:00:00	2024-11-08T23:00:00	5	Humedad	79
161329	7	Sololá	712	San Antonio Palopó	9	San Antonio Palopo	3	Marzo	2023-03-24T00:00:00	2024-11-08T23:00:00	6	Velocidad del viento	1.6
161330	7	Sololá	712	San Antonio Palopó	9	San Antonio Palopo	3	Marzo	2023-03-24T00:00:00	2024-11-08T23:00:00	7	Dirección del viento	1.61
161331	7	Sololá	712	San Antonio Palopó	9	San Antonio Palopo	3	Marzo	2023-03-24T00:00:00	2024-11-08T23:00:00	1	Precipitación	0
161332	7	Sololá	712	San Antonio Palopó	9	San Antonio Palopo	3	Marzo	2023-03-24T00:00:00	2024-11-08T23:00:00	8	Radiación solar	0
161333	7	Sololá	712	San Antonio Palopó	9	San Antonio Palopo	3	Marzo	2023-03-25T00:00:00	2024-11-08T00:00:00	2	Temperatura media	18.8
161334	7	Sololá	712	San Antonio Palopó	9	San Antonio Palopo	3	Marzo	2023-03-25T00:00:00	2024-11-08T00:00:00	4	Temperatura máxima	18.8
161335	7	Sololá	712	San Antonio Palopó	9	San Antonio Palopo	3	Marzo	2023-03-25T00:00:00	2024-11-08T00:00:00	3	Temperatura mínima	18.3
161336	7	Sololá	712	San Antonio Palopó	9	San Antonio Palopo	3	Marzo	2023-03-25T00:00:00	2024-11-08T00:00:00	5	Humedad	76
161337	7	Sololá	712	San Antonio Palopó	9	San Antonio Palopo	3	Marzo	2023-03-25T00:00:00	2024-11-08T00:00:00	6	Velocidad del viento	3.2
161338	7	Sololá	712	San Antonio Palopó	9	San Antonio Palopo	3	Marzo	2023-03-25T00:00:00	2024-11-08T00:00:00	7	Dirección del viento	3.22
161339	7	Sololá	712	San Antonio Palopó	9	San Antonio Palopo	3	Marzo	2023-03-25T00:00:00	2024-11-08T00:00:00	1	Precipitación	0
161340	7	Sololá	712	San Antonio Palopó	9	San Antonio Palopo	3	Marzo	2023-03-25T00:00:00	2024-11-08T00:00:00	8	Radiación solar	0
161341	7	Sololá	712	San Antonio Palopó	9	San Antonio Palopo	3	Marzo	2023-03-25T00:00:00	2024-11-08T01:00:00	2	Temperatura media	18.8
161342	7	Sololá	712	San Antonio Palopó	9	San Antonio Palopo	3	Marzo	2023-03-25T00:00:00	2024-11-08T01:00:00	4	Temperatura máxima	19.1
161343	7	Sololá	712	San Antonio Palopó	9	San Antonio Palopo	3	Marzo	2023-03-25T00:00:00	2024-11-08T01:00:00	3	Temperatura mínima	18.8
161344	7	Sololá	712	San Antonio Palopó	9	San Antonio Palopo	3	Marzo	2023-03-25T00:00:00	2024-11-08T01:00:00	5	Humedad	78
161345	7	Sololá	712	San Antonio Palopó	9	San Antonio Palopo	3	Marzo	2023-03-25T00:00:00	2024-11-08T01:00:00	6	Velocidad del viento	1.6
161346	7	Sololá	712	San Antonio Palopó	9	San Antonio Palopo	3	Marzo	2023-03-25T00:00:00	2024-11-08T01:00:00	7	Dirección del viento	1.61
161347	7	Sololá	712	San Antonio Palopó	9	San Antonio Palopo	3	Marzo	2023-03-25T00:00:00	2024-11-08T01:00:00	1	Precipitación	0
161348	7	Sololá	712	San Antonio Palopó	9	San Antonio Palopo	3	Marzo	2023-03-25T00:00:00	2024-11-08T01:00:00	8	Radiación solar	0
161349	7	Sololá	712	San Antonio Palopó	9	San Antonio Palopo	3	Marzo	2023-03-25T00:00:00	2024-11-08T02:00:00	2	Temperatura media	17.5
161350	7	Sololá	712	San Antonio Palopó	9	San Antonio Palopo	3	Marzo	2023-03-25T00:00:00	2024-11-08T02:00:00	4	Temperatura máxima	18.9
161351	7	Sololá	712	San Antonio Palopó	9	San Antonio Palopo	3	Marzo	2023-03-25T00:00:00	2024-11-08T02:00:00	3	Temperatura mínima	17.5
161352	7	Sololá	712	San Antonio Palopó	9	San Antonio Palopo	3	Marzo	2023-03-25T00:00:00	2024-11-08T02:00:00	5	Humedad	81
161353	7	Sololá	712	San Antonio Palopó	9	San Antonio Palopo	3	Marzo	2023-03-25T00:00:00	2024-11-08T02:00:00	6	Velocidad del viento	3.2
161354	7	Sololá	712	San Antonio Palopó	9	San Antonio Palopo	3	Marzo	2023-03-25T00:00:00	2024-11-08T02:00:00	7	Dirección del viento	3.22
161355	7	Sololá	712	San Antonio Palopó	9	San Antonio Palopo	3	Marzo	2023-03-25T00:00:00	2024-11-08T02:00:00	1	Precipitación	0
161356	7	Sololá	712	San Antonio Palopó	9	San Antonio Palopo	3	Marzo	2023-03-25T00:00:00	2024-11-08T02:00:00	8	Radiación solar	0
161357	7	Sololá	712	San Antonio Palopó	9	San Antonio Palopo	3	Marzo	2023-03-25T00:00:00	2024-11-08T03:00:00	2	Temperatura media	17.8
161358	7	Sololá	712	San Antonio Palopó	9	San Antonio Palopo	3	Marzo	2023-03-25T00:00:00	2024-11-08T03:00:00	4	Temperatura máxima	17.8
161359	7	Sololá	712	San Antonio Palopó	9	San Antonio Palopo	3	Marzo	2023-03-25T00:00:00	2024-11-08T03:00:00	3	Temperatura mínima	17.2
161360	7	Sololá	712	San Antonio Palopó	9	San Antonio Palopo	3	Marzo	2023-03-25T00:00:00	2024-11-08T03:00:00	5	Humedad	76
161361	7	Sololá	712	San Antonio Palopó	9	San Antonio Palopo	3	Marzo	2023-03-25T00:00:00	2024-11-08T03:00:00	6	Velocidad del viento	3.2
161362	7	Sololá	712	San Antonio Palopó	9	San Antonio Palopo	3	Marzo	2023-03-25T00:00:00	2024-11-08T03:00:00	7	Dirección del viento	3.22
161363	7	Sololá	712	San Antonio Palopó	9	San Antonio Palopo	3	Marzo	2023-03-25T00:00:00	2024-11-08T03:00:00	1	Precipitación	0
161364	7	Sololá	712	San Antonio Palopó	9	San Antonio Palopo	3	Marzo	2023-03-25T00:00:00	2024-11-08T03:00:00	8	Radiación solar	0
161365	7	Sololá	712	San Antonio Palopó	9	San Antonio Palopo	3	Marzo	2023-03-25T00:00:00	2024-11-08T04:00:00	2	Temperatura media	17.8
161366	7	Sololá	712	San Antonio Palopó	9	San Antonio Palopo	3	Marzo	2023-03-25T00:00:00	2024-11-08T04:00:00	4	Temperatura máxima	17.9
161367	7	Sololá	712	San Antonio Palopó	9	San Antonio Palopo	3	Marzo	2023-03-25T00:00:00	2024-11-08T04:00:00	3	Temperatura mínima	17.7
161368	7	Sololá	712	San Antonio Palopó	9	San Antonio Palopo	3	Marzo	2023-03-25T00:00:00	2024-11-08T04:00:00	5	Humedad	74
161369	7	Sololá	712	San Antonio Palopó	9	San Antonio Palopo	3	Marzo	2023-03-25T00:00:00	2024-11-08T04:00:00	6	Velocidad del viento	3.2
161370	7	Sololá	712	San Antonio Palopó	9	San Antonio Palopo	3	Marzo	2023-03-25T00:00:00	2024-11-08T04:00:00	7	Dirección del viento	3.22
161371	7	Sololá	712	San Antonio Palopó	9	San Antonio Palopo	3	Marzo	2023-03-25T00:00:00	2024-11-08T04:00:00	1	Precipitación	0
161372	7	Sololá	712	San Antonio Palopó	9	San Antonio Palopo	3	Marzo	2023-03-25T00:00:00	2024-11-08T04:00:00	8	Radiación solar	0
161373	7	Sololá	712	San Antonio Palopó	9	San Antonio Palopo	3	Marzo	2023-03-25T00:00:00	2024-11-08T05:00:00	2	Temperatura media	18.3
161374	7	Sololá	712	San Antonio Palopó	9	San Antonio Palopo	3	Marzo	2023-03-25T00:00:00	2024-11-08T05:00:00	4	Temperatura máxima	18.4
161375	7	Sololá	712	San Antonio Palopó	9	San Antonio Palopo	3	Marzo	2023-03-25T00:00:00	2024-11-08T05:00:00	3	Temperatura mínima	17.8
161376	7	Sololá	712	San Antonio Palopó	9	San Antonio Palopo	3	Marzo	2023-03-25T00:00:00	2024-11-08T05:00:00	5	Humedad	76
161377	7	Sololá	712	San Antonio Palopó	9	San Antonio Palopo	3	Marzo	2023-03-25T00:00:00	2024-11-08T05:00:00	6	Velocidad del viento	1.6
161378	7	Sololá	712	San Antonio Palopó	9	San Antonio Palopo	3	Marzo	2023-03-25T00:00:00	2024-11-08T05:00:00	7	Dirección del viento	1.61
161379	7	Sololá	712	San Antonio Palopó	9	San Antonio Palopo	3	Marzo	2023-03-25T00:00:00	2024-11-08T05:00:00	1	Precipitación	0
161380	7	Sololá	712	San Antonio Palopó	9	San Antonio Palopo	3	Marzo	2023-03-25T00:00:00	2024-11-08T05:00:00	8	Radiación solar	0
161381	7	Sololá	712	San Antonio Palopó	9	San Antonio Palopo	3	Marzo	2023-03-25T00:00:00	2024-11-08T06:00:00	2	Temperatura media	18.1
161382	7	Sololá	712	San Antonio Palopó	9	San Antonio Palopo	3	Marzo	2023-03-25T00:00:00	2024-11-08T06:00:00	4	Temperatura máxima	18.3
161383	7	Sololá	712	San Antonio Palopó	9	San Antonio Palopo	3	Marzo	2023-03-25T00:00:00	2024-11-08T06:00:00	3	Temperatura mínima	18.1
161384	7	Sololá	712	San Antonio Palopó	9	San Antonio Palopo	3	Marzo	2023-03-25T00:00:00	2024-11-08T06:00:00	5	Humedad	77
161385	7	Sololá	712	San Antonio Palopó	9	San Antonio Palopo	3	Marzo	2023-03-25T00:00:00	2024-11-08T06:00:00	6	Velocidad del viento	3.2
161386	7	Sololá	712	San Antonio Palopó	9	San Antonio Palopo	3	Marzo	2023-03-25T00:00:00	2024-11-08T06:00:00	7	Dirección del viento	3.22
161387	7	Sololá	712	San Antonio Palopó	9	San Antonio Palopo	3	Marzo	2023-03-25T00:00:00	2024-11-08T06:00:00	1	Precipitación	0
161388	7	Sololá	712	San Antonio Palopó	9	San Antonio Palopo	3	Marzo	2023-03-25T00:00:00	2024-11-08T06:00:00	8	Radiación solar	0
161389	7	Sololá	712	San Antonio Palopó	9	San Antonio Palopo	3	Marzo	2023-03-25T00:00:00	2024-11-08T07:00:00	2	Temperatura media	18.3
161390	7	Sololá	712	San Antonio Palopó	9	San Antonio Palopo	3	Marzo	2023-03-25T00:00:00	2024-11-08T07:00:00	4	Temperatura máxima	18.4
161391	7	Sololá	712	San Antonio Palopó	9	San Antonio Palopo	3	Marzo	2023-03-25T00:00:00	2024-11-08T07:00:00	3	Temperatura mínima	18.1
161392	7	Sololá	712	San Antonio Palopó	9	San Antonio Palopo	3	Marzo	2023-03-25T00:00:00	2024-11-08T07:00:00	5	Humedad	77
161393	7	Sololá	712	San Antonio Palopó	9	San Antonio Palopo	3	Marzo	2023-03-25T00:00:00	2024-11-08T07:00:00	6	Velocidad del viento	1.6
161394	7	Sololá	712	San Antonio Palopó	9	San Antonio Palopo	3	Marzo	2023-03-25T00:00:00	2024-11-08T07:00:00	7	Dirección del viento	1.61
161395	7	Sololá	712	San Antonio Palopó	9	San Antonio Palopo	3	Marzo	2023-03-25T00:00:00	2024-11-08T07:00:00	1	Precipitación	0
161396	7	Sololá	712	San Antonio Palopó	9	San Antonio Palopo	3	Marzo	2023-03-25T00:00:00	2024-11-08T07:00:00	8	Radiación solar	26
161397	7	Sololá	712	San Antonio Palopó	9	San Antonio Palopo	3	Marzo	2023-03-25T00:00:00	2024-11-08T08:00:00	2	Temperatura media	18.9
161398	7	Sololá	712	San Antonio Palopó	9	San Antonio Palopo	3	Marzo	2023-03-25T00:00:00	2024-11-08T08:00:00	4	Temperatura máxima	18.9
161399	7	Sololá	712	San Antonio Palopó	9	San Antonio Palopo	3	Marzo	2023-03-25T00:00:00	2024-11-08T08:00:00	3	Temperatura mínima	18.3
161400	7	Sololá	712	San Antonio Palopó	9	San Antonio Palopo	3	Marzo	2023-03-25T00:00:00	2024-11-08T08:00:00	5	Humedad	76
161401	7	Sololá	712	San Antonio Palopó	9	San Antonio Palopo	3	Marzo	2023-03-25T00:00:00	2024-11-08T08:00:00	6	Velocidad del viento	3.2
161402	7	Sololá	712	San Antonio Palopó	9	San Antonio Palopo	3	Marzo	2023-03-25T00:00:00	2024-11-08T08:00:00	7	Dirección del viento	3.22
161403	7	Sololá	712	San Antonio Palopó	9	San Antonio Palopo	3	Marzo	2023-03-25T00:00:00	2024-11-08T08:00:00	1	Precipitación	0
161404	7	Sololá	712	San Antonio Palopó	9	San Antonio Palopo	3	Marzo	2023-03-25T00:00:00	2024-11-08T08:00:00	8	Radiación solar	110
161405	7	Sololá	712	San Antonio Palopó	9	San Antonio Palopo	3	Marzo	2023-03-25T00:00:00	2024-11-08T09:00:00	2	Temperatura media	19.4
161406	7	Sololá	712	San Antonio Palopó	9	San Antonio Palopo	3	Marzo	2023-03-25T00:00:00	2024-11-08T09:00:00	4	Temperatura máxima	19.4
161407	7	Sololá	712	San Antonio Palopó	9	San Antonio Palopo	3	Marzo	2023-03-25T00:00:00	2024-11-08T09:00:00	3	Temperatura mínima	18.8
161408	7	Sololá	712	San Antonio Palopó	9	San Antonio Palopo	3	Marzo	2023-03-25T00:00:00	2024-11-08T09:00:00	5	Humedad	76
161409	7	Sololá	712	San Antonio Palopó	9	San Antonio Palopo	3	Marzo	2023-03-25T00:00:00	2024-11-08T09:00:00	6	Velocidad del viento	1.6
161410	7	Sololá	712	San Antonio Palopó	9	San Antonio Palopo	3	Marzo	2023-03-25T00:00:00	2024-11-08T09:00:00	7	Dirección del viento	1.61
161411	7	Sololá	712	San Antonio Palopó	9	San Antonio Palopo	3	Marzo	2023-03-25T00:00:00	2024-11-08T09:00:00	1	Precipitación	0
161412	7	Sololá	712	San Antonio Palopó	9	San Antonio Palopo	3	Marzo	2023-03-25T00:00:00	2024-11-08T09:00:00	8	Radiación solar	118
161413	7	Sololá	712	San Antonio Palopó	9	San Antonio Palopo	3	Marzo	2023-03-25T00:00:00	2024-11-08T10:00:00	2	Temperatura media	19.9
161414	7	Sololá	712	San Antonio Palopó	9	San Antonio Palopo	3	Marzo	2023-03-25T00:00:00	2024-11-08T10:00:00	4	Temperatura máxima	20.3
161415	7	Sololá	712	San Antonio Palopó	9	San Antonio Palopo	3	Marzo	2023-03-25T00:00:00	2024-11-08T10:00:00	3	Temperatura mínima	19.4
161416	7	Sololá	712	San Antonio Palopó	9	San Antonio Palopo	3	Marzo	2023-03-25T00:00:00	2024-11-08T10:00:00	5	Humedad	72
161417	7	Sololá	712	San Antonio Palopó	9	San Antonio Palopo	3	Marzo	2023-03-25T00:00:00	2024-11-08T10:00:00	6	Velocidad del viento	3.2
161418	7	Sololá	712	San Antonio Palopó	9	San Antonio Palopo	3	Marzo	2023-03-25T00:00:00	2024-11-08T10:00:00	7	Dirección del viento	3.22
161419	7	Sololá	712	San Antonio Palopó	9	San Antonio Palopo	3	Marzo	2023-03-25T00:00:00	2024-11-08T10:00:00	1	Precipitación	0
161420	7	Sololá	712	San Antonio Palopó	9	San Antonio Palopo	3	Marzo	2023-03-25T00:00:00	2024-11-08T10:00:00	8	Radiación solar	333
161421	7	Sololá	712	San Antonio Palopó	9	San Antonio Palopo	3	Marzo	2023-03-25T00:00:00	2024-11-08T11:00:00	2	Temperatura media	20.7
161422	7	Sololá	712	San Antonio Palopó	9	San Antonio Palopo	3	Marzo	2023-03-25T00:00:00	2024-11-08T11:00:00	4	Temperatura máxima	21.2
161423	7	Sololá	712	San Antonio Palopó	9	San Antonio Palopo	3	Marzo	2023-03-25T00:00:00	2024-11-08T11:00:00	3	Temperatura mínima	19.9
161424	7	Sololá	712	San Antonio Palopó	9	San Antonio Palopo	3	Marzo	2023-03-25T00:00:00	2024-11-08T11:00:00	5	Humedad	75
161425	7	Sololá	712	San Antonio Palopó	9	San Antonio Palopo	3	Marzo	2023-03-25T00:00:00	2024-11-08T11:00:00	6	Velocidad del viento	4.8
161426	7	Sololá	712	San Antonio Palopó	9	San Antonio Palopo	3	Marzo	2023-03-25T00:00:00	2024-11-08T11:00:00	7	Dirección del viento	4.83
161427	7	Sololá	712	San Antonio Palopó	9	San Antonio Palopo	3	Marzo	2023-03-25T00:00:00	2024-11-08T11:00:00	1	Precipitación	0
161428	7	Sololá	712	San Antonio Palopó	9	San Antonio Palopo	3	Marzo	2023-03-25T00:00:00	2024-11-08T11:00:00	8	Radiación solar	416
161429	7	Sololá	712	San Antonio Palopó	9	San Antonio Palopo	3	Marzo	2023-03-25T00:00:00	2024-11-08T12:00:00	2	Temperatura media	21.8
161430	7	Sololá	712	San Antonio Palopó	9	San Antonio Palopo	3	Marzo	2023-03-25T00:00:00	2024-11-08T12:00:00	4	Temperatura máxima	22.2
161431	7	Sololá	712	San Antonio Palopó	9	San Antonio Palopo	3	Marzo	2023-03-25T00:00:00	2024-11-08T12:00:00	3	Temperatura mínima	20.5
161432	7	Sololá	712	San Antonio Palopó	9	San Antonio Palopo	3	Marzo	2023-03-25T00:00:00	2024-11-08T12:00:00	5	Humedad	65
161433	7	Sololá	712	San Antonio Palopó	9	San Antonio Palopo	3	Marzo	2023-03-25T00:00:00	2024-11-08T12:00:00	6	Velocidad del viento	6.4
161434	7	Sololá	712	San Antonio Palopó	9	San Antonio Palopo	3	Marzo	2023-03-25T00:00:00	2024-11-08T12:00:00	7	Dirección del viento	6.44
161435	7	Sololá	712	San Antonio Palopó	9	San Antonio Palopo	3	Marzo	2023-03-25T00:00:00	2024-11-08T12:00:00	1	Precipitación	0
161436	7	Sololá	712	San Antonio Palopó	9	San Antonio Palopo	3	Marzo	2023-03-25T00:00:00	2024-11-08T12:00:00	8	Radiación solar	543
161437	7	Sololá	712	San Antonio Palopó	9	San Antonio Palopo	3	Marzo	2023-03-25T00:00:00	2024-11-08T13:00:00	2	Temperatura media	22
161438	7	Sololá	712	San Antonio Palopó	9	San Antonio Palopo	3	Marzo	2023-03-25T00:00:00	2024-11-08T13:00:00	4	Temperatura máxima	22.6
161439	7	Sololá	712	San Antonio Palopó	9	San Antonio Palopo	3	Marzo	2023-03-25T00:00:00	2024-11-08T13:00:00	3	Temperatura mínima	21.8
161440	7	Sololá	712	San Antonio Palopó	9	San Antonio Palopo	3	Marzo	2023-03-25T00:00:00	2024-11-08T13:00:00	5	Humedad	68
161441	7	Sololá	712	San Antonio Palopó	9	San Antonio Palopo	3	Marzo	2023-03-25T00:00:00	2024-11-08T13:00:00	6	Velocidad del viento	9.7
161442	7	Sololá	712	San Antonio Palopó	9	San Antonio Palopo	3	Marzo	2023-03-25T00:00:00	2024-11-08T13:00:00	7	Dirección del viento	9.66
161443	7	Sololá	712	San Antonio Palopó	9	San Antonio Palopo	3	Marzo	2023-03-25T00:00:00	2024-11-08T13:00:00	1	Precipitación	0
161444	7	Sololá	712	San Antonio Palopó	9	San Antonio Palopo	3	Marzo	2023-03-25T00:00:00	2024-11-08T13:00:00	8	Radiación solar	689
161445	7	Sololá	712	San Antonio Palopó	9	San Antonio Palopo	3	Marzo	2023-03-25T00:00:00	2024-11-08T14:00:00	2	Temperatura media	21.9
161446	7	Sololá	712	San Antonio Palopó	9	San Antonio Palopo	3	Marzo	2023-03-25T00:00:00	2024-11-08T14:00:00	4	Temperatura máxima	22.2
161447	7	Sololá	712	San Antonio Palopó	9	San Antonio Palopo	3	Marzo	2023-03-25T00:00:00	2024-11-08T14:00:00	3	Temperatura mínima	21.6
161448	7	Sololá	712	San Antonio Palopó	9	San Antonio Palopo	3	Marzo	2023-03-25T00:00:00	2024-11-08T14:00:00	5	Humedad	69
161449	7	Sololá	712	San Antonio Palopó	9	San Antonio Palopo	3	Marzo	2023-03-25T00:00:00	2024-11-08T14:00:00	6	Velocidad del viento	14.5
161450	7	Sololá	712	San Antonio Palopó	9	San Antonio Palopo	3	Marzo	2023-03-25T00:00:00	2024-11-08T14:00:00	7	Dirección del viento	14.48
161451	7	Sololá	712	San Antonio Palopó	9	San Antonio Palopo	3	Marzo	2023-03-25T00:00:00	2024-11-08T14:00:00	1	Precipitación	0
161452	7	Sololá	712	San Antonio Palopó	9	San Antonio Palopo	3	Marzo	2023-03-25T00:00:00	2024-11-08T14:00:00	8	Radiación solar	763
161453	7	Sololá	712	San Antonio Palopó	9	San Antonio Palopo	3	Marzo	2023-03-25T00:00:00	2024-11-08T15:00:00	2	Temperatura media	21.8
161454	7	Sololá	712	San Antonio Palopó	9	San Antonio Palopo	3	Marzo	2023-03-25T00:00:00	2024-11-08T15:00:00	4	Temperatura máxima	21.9
161455	7	Sololá	712	San Antonio Palopó	9	San Antonio Palopo	3	Marzo	2023-03-25T00:00:00	2024-11-08T15:00:00	3	Temperatura mínima	21.4
161456	7	Sololá	712	San Antonio Palopó	9	San Antonio Palopo	3	Marzo	2023-03-25T00:00:00	2024-11-08T15:00:00	5	Humedad	71
161457	7	Sololá	712	San Antonio Palopó	9	San Antonio Palopo	3	Marzo	2023-03-25T00:00:00	2024-11-08T15:00:00	6	Velocidad del viento	16.1
161458	7	Sololá	712	San Antonio Palopó	9	San Antonio Palopo	3	Marzo	2023-03-25T00:00:00	2024-11-08T15:00:00	7	Dirección del viento	16.09
161459	7	Sololá	712	San Antonio Palopó	9	San Antonio Palopo	3	Marzo	2023-03-25T00:00:00	2024-11-08T15:00:00	1	Precipitación	0
161460	7	Sololá	712	San Antonio Palopó	9	San Antonio Palopo	3	Marzo	2023-03-25T00:00:00	2024-11-08T15:00:00	8	Radiación solar	715
161461	7	Sololá	712	San Antonio Palopó	9	San Antonio Palopo	3	Marzo	2023-03-25T00:00:00	2024-11-08T16:00:00	2	Temperatura media	22.8
161462	7	Sololá	712	San Antonio Palopó	9	San Antonio Palopo	3	Marzo	2023-03-25T00:00:00	2024-11-08T16:00:00	4	Temperatura máxima	22.8
161463	7	Sololá	712	San Antonio Palopó	9	San Antonio Palopo	3	Marzo	2023-03-25T00:00:00	2024-11-08T16:00:00	3	Temperatura mínima	21.4
161464	7	Sololá	712	San Antonio Palopó	9	San Antonio Palopo	3	Marzo	2023-03-25T00:00:00	2024-11-08T16:00:00	5	Humedad	70
161465	7	Sololá	712	San Antonio Palopó	9	San Antonio Palopo	3	Marzo	2023-03-25T00:00:00	2024-11-08T16:00:00	6	Velocidad del viento	11.3
161466	7	Sololá	712	San Antonio Palopó	9	San Antonio Palopo	3	Marzo	2023-03-25T00:00:00	2024-11-08T16:00:00	7	Dirección del viento	11.27
161467	7	Sololá	712	San Antonio Palopó	9	San Antonio Palopo	3	Marzo	2023-03-25T00:00:00	2024-11-08T16:00:00	1	Precipitación	0
161468	7	Sololá	712	San Antonio Palopó	9	San Antonio Palopo	3	Marzo	2023-03-25T00:00:00	2024-11-08T16:00:00	8	Radiación solar	601
161469	7	Sololá	712	San Antonio Palopó	9	San Antonio Palopo	3	Marzo	2023-03-25T00:00:00	2024-11-08T17:00:00	2	Temperatura media	21.6
161470	7	Sololá	712	San Antonio Palopó	9	San Antonio Palopo	3	Marzo	2023-03-25T00:00:00	2024-11-08T17:00:00	4	Temperatura máxima	23.2
161471	7	Sololá	712	San Antonio Palopó	9	San Antonio Palopo	3	Marzo	2023-03-25T00:00:00	2024-11-08T17:00:00	3	Temperatura mínima	21
161472	7	Sololá	712	San Antonio Palopó	9	San Antonio Palopo	3	Marzo	2023-03-25T00:00:00	2024-11-08T17:00:00	5	Humedad	77
161473	7	Sololá	712	San Antonio Palopó	9	San Antonio Palopo	3	Marzo	2023-03-25T00:00:00	2024-11-08T17:00:00	6	Velocidad del viento	6.4
161474	7	Sololá	712	San Antonio Palopó	9	San Antonio Palopo	3	Marzo	2023-03-25T00:00:00	2024-11-08T17:00:00	7	Dirección del viento	6.44
161475	7	Sololá	712	San Antonio Palopó	9	San Antonio Palopo	3	Marzo	2023-03-25T00:00:00	2024-11-08T17:00:00	1	Precipitación	0
161476	7	Sololá	712	San Antonio Palopó	9	San Antonio Palopo	3	Marzo	2023-03-25T00:00:00	2024-11-08T17:00:00	8	Radiación solar	267
161477	7	Sololá	712	San Antonio Palopó	9	San Antonio Palopo	3	Marzo	2023-03-25T00:00:00	2024-11-08T18:00:00	2	Temperatura media	20.6
161478	7	Sololá	712	San Antonio Palopó	9	San Antonio Palopo	3	Marzo	2023-03-25T00:00:00	2024-11-08T18:00:00	4	Temperatura máxima	21.6
161479	7	Sololá	712	San Antonio Palopó	9	San Antonio Palopo	3	Marzo	2023-03-25T00:00:00	2024-11-08T18:00:00	3	Temperatura mínima	20.5
161480	7	Sololá	712	San Antonio Palopó	9	San Antonio Palopo	3	Marzo	2023-03-25T00:00:00	2024-11-08T18:00:00	5	Humedad	81
161481	7	Sololá	712	San Antonio Palopó	9	San Antonio Palopo	3	Marzo	2023-03-25T00:00:00	2024-11-08T18:00:00	6	Velocidad del viento	4.8
161482	7	Sololá	712	San Antonio Palopó	9	San Antonio Palopo	3	Marzo	2023-03-25T00:00:00	2024-11-08T18:00:00	7	Dirección del viento	4.83
161483	7	Sololá	712	San Antonio Palopó	9	San Antonio Palopo	3	Marzo	2023-03-25T00:00:00	2024-11-08T18:00:00	1	Precipitación	0
161484	7	Sololá	712	San Antonio Palopó	9	San Antonio Palopo	3	Marzo	2023-03-25T00:00:00	2024-11-08T18:00:00	8	Radiación solar	67
161485	7	Sololá	712	San Antonio Palopó	9	San Antonio Palopo	3	Marzo	2023-03-25T00:00:00	2024-11-08T19:00:00	2	Temperatura media	19.7
161486	7	Sololá	712	San Antonio Palopó	9	San Antonio Palopo	3	Marzo	2023-03-25T00:00:00	2024-11-08T19:00:00	4	Temperatura máxima	20.6
161487	7	Sololá	712	San Antonio Palopó	9	San Antonio Palopo	3	Marzo	2023-03-25T00:00:00	2024-11-08T19:00:00	3	Temperatura mínima	19.6
161488	7	Sololá	712	San Antonio Palopó	9	San Antonio Palopo	3	Marzo	2023-03-25T00:00:00	2024-11-08T19:00:00	5	Humedad	83
161489	7	Sololá	712	San Antonio Palopó	9	San Antonio Palopo	3	Marzo	2023-03-25T00:00:00	2024-11-08T19:00:00	6	Velocidad del viento	4.8
161490	7	Sololá	712	San Antonio Palopó	9	San Antonio Palopo	3	Marzo	2023-03-25T00:00:00	2024-11-08T19:00:00	7	Dirección del viento	4.83
161491	7	Sololá	712	San Antonio Palopó	9	San Antonio Palopo	3	Marzo	2023-03-25T00:00:00	2024-11-08T19:00:00	1	Precipitación	0
161492	7	Sololá	712	San Antonio Palopó	9	San Antonio Palopo	3	Marzo	2023-03-25T00:00:00	2024-11-08T19:00:00	8	Radiación solar	0
161493	7	Sololá	712	San Antonio Palopó	9	San Antonio Palopo	3	Marzo	2023-03-25T00:00:00	2024-11-08T20:00:00	2	Temperatura media	19.4
161494	7	Sololá	712	San Antonio Palopó	9	San Antonio Palopo	3	Marzo	2023-03-25T00:00:00	2024-11-08T20:00:00	4	Temperatura máxima	19.7
161495	7	Sololá	712	San Antonio Palopó	9	San Antonio Palopo	3	Marzo	2023-03-25T00:00:00	2024-11-08T20:00:00	3	Temperatura mínima	19.4
161496	7	Sololá	712	San Antonio Palopó	9	San Antonio Palopo	3	Marzo	2023-03-25T00:00:00	2024-11-08T20:00:00	5	Humedad	79
161497	7	Sololá	712	San Antonio Palopó	9	San Antonio Palopo	3	Marzo	2023-03-25T00:00:00	2024-11-08T20:00:00	6	Velocidad del viento	1.6
161498	7	Sololá	712	San Antonio Palopó	9	San Antonio Palopo	3	Marzo	2023-03-25T00:00:00	2024-11-08T20:00:00	7	Dirección del viento	1.61
161499	7	Sololá	712	San Antonio Palopó	9	San Antonio Palopo	3	Marzo	2023-03-25T00:00:00	2024-11-08T20:00:00	1	Precipitación	0
161500	7	Sololá	712	San Antonio Palopó	9	San Antonio Palopo	3	Marzo	2023-03-25T00:00:00	2024-11-08T20:00:00	8	Radiación solar	0
161501	7	Sololá	712	San Antonio Palopó	9	San Antonio Palopo	3	Marzo	2023-03-25T00:00:00	2024-11-08T21:00:00	2	Temperatura media	19.1
161502	7	Sololá	712	San Antonio Palopó	9	San Antonio Palopo	3	Marzo	2023-03-25T00:00:00	2024-11-08T21:00:00	4	Temperatura máxima	19.4
161503	7	Sololá	712	San Antonio Palopó	9	San Antonio Palopo	3	Marzo	2023-03-25T00:00:00	2024-11-08T21:00:00	3	Temperatura mínima	19.1
161504	7	Sololá	712	San Antonio Palopó	9	San Antonio Palopo	3	Marzo	2023-03-25T00:00:00	2024-11-08T21:00:00	5	Humedad	81
161505	7	Sololá	712	San Antonio Palopó	9	San Antonio Palopo	3	Marzo	2023-03-25T00:00:00	2024-11-08T21:00:00	6	Velocidad del viento	1.6
161506	7	Sololá	712	San Antonio Palopó	9	San Antonio Palopo	3	Marzo	2023-03-25T00:00:00	2024-11-08T21:00:00	7	Dirección del viento	1.61
161507	7	Sololá	712	San Antonio Palopó	9	San Antonio Palopo	3	Marzo	2023-03-25T00:00:00	2024-11-08T21:00:00	1	Precipitación	0
161508	7	Sololá	712	San Antonio Palopó	9	San Antonio Palopo	3	Marzo	2023-03-25T00:00:00	2024-11-08T21:00:00	8	Radiación solar	0
161509	7	Sololá	712	San Antonio Palopó	9	San Antonio Palopo	3	Marzo	2023-03-25T00:00:00	2024-11-08T22:00:00	2	Temperatura media	18.7
161510	7	Sololá	712	San Antonio Palopó	9	San Antonio Palopo	3	Marzo	2023-03-25T00:00:00	2024-11-08T22:00:00	4	Temperatura máxima	19.1
161511	7	Sololá	712	San Antonio Palopó	9	San Antonio Palopo	3	Marzo	2023-03-25T00:00:00	2024-11-08T22:00:00	3	Temperatura mínima	18.7
161512	7	Sololá	712	San Antonio Palopó	9	San Antonio Palopo	3	Marzo	2023-03-25T00:00:00	2024-11-08T22:00:00	5	Humedad	81
161513	7	Sololá	712	San Antonio Palopó	9	San Antonio Palopo	3	Marzo	2023-03-25T00:00:00	2024-11-08T22:00:00	6	Velocidad del viento	1.6
161514	7	Sololá	712	San Antonio Palopó	9	San Antonio Palopo	3	Marzo	2023-03-25T00:00:00	2024-11-08T22:00:00	7	Dirección del viento	1.61
161515	7	Sololá	712	San Antonio Palopó	9	San Antonio Palopo	3	Marzo	2023-03-25T00:00:00	2024-11-08T22:00:00	1	Precipitación	0
161516	7	Sololá	712	San Antonio Palopó	9	San Antonio Palopo	3	Marzo	2023-03-25T00:00:00	2024-11-08T22:00:00	8	Radiación solar	0
161517	7	Sololá	712	San Antonio Palopó	9	San Antonio Palopo	3	Marzo	2023-03-25T00:00:00	2024-11-08T23:00:00	2	Temperatura media	19
161518	7	Sololá	712	San Antonio Palopó	9	San Antonio Palopo	3	Marzo	2023-03-25T00:00:00	2024-11-08T23:00:00	4	Temperatura máxima	19
161519	7	Sololá	712	San Antonio Palopó	9	San Antonio Palopo	3	Marzo	2023-03-25T00:00:00	2024-11-08T23:00:00	3	Temperatura mínima	18.6
161520	7	Sololá	712	San Antonio Palopó	9	San Antonio Palopo	3	Marzo	2023-03-25T00:00:00	2024-11-08T23:00:00	5	Humedad	80
161521	7	Sololá	712	San Antonio Palopó	9	San Antonio Palopo	3	Marzo	2023-03-25T00:00:00	2024-11-08T23:00:00	6	Velocidad del viento	1.6
161522	7	Sololá	712	San Antonio Palopó	9	San Antonio Palopo	3	Marzo	2023-03-25T00:00:00	2024-11-08T23:00:00	7	Dirección del viento	1.61
161523	7	Sololá	712	San Antonio Palopó	9	San Antonio Palopo	3	Marzo	2023-03-25T00:00:00	2024-11-08T23:00:00	1	Precipitación	0
161524	7	Sololá	712	San Antonio Palopó	9	San Antonio Palopo	3	Marzo	2023-03-25T00:00:00	2024-11-08T23:00:00	8	Radiación solar	0
161525	7	Sololá	712	San Antonio Palopó	9	San Antonio Palopo	3	Marzo	2023-03-26T00:00:00	2024-11-08T00:00:00	2	Temperatura media	18.4
161526	7	Sololá	712	San Antonio Palopó	9	San Antonio Palopo	3	Marzo	2023-03-26T00:00:00	2024-11-08T00:00:00	4	Temperatura máxima	19.2
161527	7	Sololá	712	San Antonio Palopó	9	San Antonio Palopo	3	Marzo	2023-03-26T00:00:00	2024-11-08T00:00:00	3	Temperatura mínima	18.3
161528	7	Sololá	712	San Antonio Palopó	9	San Antonio Palopo	3	Marzo	2023-03-26T00:00:00	2024-11-08T00:00:00	5	Humedad	88
161529	7	Sololá	712	San Antonio Palopó	9	San Antonio Palopo	3	Marzo	2023-03-26T00:00:00	2024-11-08T00:00:00	6	Velocidad del viento	1.6
161530	7	Sololá	712	San Antonio Palopó	9	San Antonio Palopo	3	Marzo	2023-03-26T00:00:00	2024-11-08T00:00:00	7	Dirección del viento	1.61
161531	7	Sololá	712	San Antonio Palopó	9	San Antonio Palopo	3	Marzo	2023-03-26T00:00:00	2024-11-08T00:00:00	1	Precipitación	0
161532	7	Sololá	712	San Antonio Palopó	9	San Antonio Palopo	3	Marzo	2023-03-26T00:00:00	2024-11-08T00:00:00	8	Radiación solar	0
161533	7	Sololá	712	San Antonio Palopó	9	San Antonio Palopo	3	Marzo	2023-03-26T00:00:00	2024-11-08T01:00:00	2	Temperatura media	17.9
161534	7	Sololá	712	San Antonio Palopó	9	San Antonio Palopo	3	Marzo	2023-03-26T00:00:00	2024-11-08T01:00:00	4	Temperatura máxima	18.3
161535	7	Sololá	712	San Antonio Palopó	9	San Antonio Palopo	3	Marzo	2023-03-26T00:00:00	2024-11-08T01:00:00	3	Temperatura mínima	17.9
161536	7	Sololá	712	San Antonio Palopó	9	San Antonio Palopo	3	Marzo	2023-03-26T00:00:00	2024-11-08T01:00:00	5	Humedad	83
161537	7	Sololá	712	San Antonio Palopó	9	San Antonio Palopo	3	Marzo	2023-03-26T00:00:00	2024-11-08T01:00:00	6	Velocidad del viento	1.6
161538	7	Sololá	712	San Antonio Palopó	9	San Antonio Palopo	3	Marzo	2023-03-26T00:00:00	2024-11-08T01:00:00	7	Dirección del viento	1.61
161539	7	Sololá	712	San Antonio Palopó	9	San Antonio Palopo	3	Marzo	2023-03-26T00:00:00	2024-11-08T01:00:00	1	Precipitación	0
161540	7	Sololá	712	San Antonio Palopó	9	San Antonio Palopo	3	Marzo	2023-03-26T00:00:00	2024-11-08T01:00:00	8	Radiación solar	0
161541	7	Sololá	712	San Antonio Palopó	9	San Antonio Palopo	3	Marzo	2023-03-26T00:00:00	2024-11-08T02:00:00	2	Temperatura media	17.9
161542	7	Sololá	712	San Antonio Palopó	9	San Antonio Palopo	3	Marzo	2023-03-26T00:00:00	2024-11-08T02:00:00	4	Temperatura máxima	18.2
161543	7	Sololá	712	San Antonio Palopó	9	San Antonio Palopo	3	Marzo	2023-03-26T00:00:00	2024-11-08T02:00:00	3	Temperatura mínima	17.9
161544	7	Sololá	712	San Antonio Palopó	9	San Antonio Palopo	3	Marzo	2023-03-26T00:00:00	2024-11-08T02:00:00	5	Humedad	89
161545	7	Sololá	712	San Antonio Palopó	9	San Antonio Palopo	3	Marzo	2023-03-26T00:00:00	2024-11-08T02:00:00	6	Velocidad del viento	3.2
161546	7	Sololá	712	San Antonio Palopó	9	San Antonio Palopo	3	Marzo	2023-03-26T00:00:00	2024-11-08T02:00:00	7	Dirección del viento	3.22
161547	7	Sololá	712	San Antonio Palopó	9	San Antonio Palopo	3	Marzo	2023-03-26T00:00:00	2024-11-08T02:00:00	1	Precipitación	0
161548	7	Sololá	712	San Antonio Palopó	9	San Antonio Palopo	3	Marzo	2023-03-26T00:00:00	2024-11-08T02:00:00	8	Radiación solar	0
161549	7	Sololá	712	San Antonio Palopó	9	San Antonio Palopo	3	Marzo	2023-03-26T00:00:00	2024-11-08T03:00:00	2	Temperatura media	18
161550	7	Sololá	712	San Antonio Palopó	9	San Antonio Palopo	3	Marzo	2023-03-26T00:00:00	2024-11-08T03:00:00	4	Temperatura máxima	18
161551	7	Sololá	712	San Antonio Palopó	9	San Antonio Palopo	3	Marzo	2023-03-26T00:00:00	2024-11-08T03:00:00	3	Temperatura mínima	17.7
161552	7	Sololá	712	San Antonio Palopó	9	San Antonio Palopo	3	Marzo	2023-03-26T00:00:00	2024-11-08T03:00:00	5	Humedad	84
161553	7	Sololá	712	San Antonio Palopó	9	San Antonio Palopo	3	Marzo	2023-03-26T00:00:00	2024-11-08T03:00:00	6	Velocidad del viento	1.6
161554	7	Sololá	712	San Antonio Palopó	9	San Antonio Palopo	3	Marzo	2023-03-26T00:00:00	2024-11-08T03:00:00	7	Dirección del viento	1.61
161555	7	Sololá	712	San Antonio Palopó	9	San Antonio Palopo	3	Marzo	2023-03-26T00:00:00	2024-11-08T03:00:00	1	Precipitación	0
161556	7	Sololá	712	San Antonio Palopó	9	San Antonio Palopo	3	Marzo	2023-03-26T00:00:00	2024-11-08T03:00:00	8	Radiación solar	0
161557	7	Sololá	712	San Antonio Palopó	9	San Antonio Palopo	3	Marzo	2023-03-26T00:00:00	2024-11-08T04:00:00	2	Temperatura media	17.8
161558	7	Sololá	712	San Antonio Palopó	9	San Antonio Palopo	3	Marzo	2023-03-26T00:00:00	2024-11-08T04:00:00	4	Temperatura máxima	18.1
161559	7	Sololá	712	San Antonio Palopó	9	San Antonio Palopo	3	Marzo	2023-03-26T00:00:00	2024-11-08T04:00:00	3	Temperatura mínima	17.6
161560	7	Sololá	712	San Antonio Palopó	9	San Antonio Palopo	3	Marzo	2023-03-26T00:00:00	2024-11-08T04:00:00	5	Humedad	84
161561	7	Sololá	712	San Antonio Palopó	9	San Antonio Palopo	3	Marzo	2023-03-26T00:00:00	2024-11-08T04:00:00	6	Velocidad del viento	6.4
161562	7	Sololá	712	San Antonio Palopó	9	San Antonio Palopo	3	Marzo	2023-03-26T00:00:00	2024-11-08T04:00:00	7	Dirección del viento	6.44
161563	7	Sololá	712	San Antonio Palopó	9	San Antonio Palopo	3	Marzo	2023-03-26T00:00:00	2024-11-08T04:00:00	1	Precipitación	0
161564	7	Sololá	712	San Antonio Palopó	9	San Antonio Palopo	3	Marzo	2023-03-26T00:00:00	2024-11-08T04:00:00	8	Radiación solar	0
161565	7	Sololá	712	San Antonio Palopó	9	San Antonio Palopo	3	Marzo	2023-03-26T00:00:00	2024-11-08T05:00:00	2	Temperatura media	17.5
161566	7	Sololá	712	San Antonio Palopó	9	San Antonio Palopo	3	Marzo	2023-03-26T00:00:00	2024-11-08T05:00:00	4	Temperatura máxima	17.8
161567	7	Sololá	712	San Antonio Palopó	9	San Antonio Palopo	3	Marzo	2023-03-26T00:00:00	2024-11-08T05:00:00	3	Temperatura mínima	17.4
161568	7	Sololá	712	San Antonio Palopó	9	San Antonio Palopo	3	Marzo	2023-03-26T00:00:00	2024-11-08T05:00:00	5	Humedad	82
161569	7	Sololá	712	San Antonio Palopó	9	San Antonio Palopo	3	Marzo	2023-03-26T00:00:00	2024-11-08T05:00:00	6	Velocidad del viento	3.2
161570	7	Sololá	712	San Antonio Palopó	9	San Antonio Palopo	3	Marzo	2023-03-26T00:00:00	2024-11-08T05:00:00	7	Dirección del viento	3.22
161571	7	Sololá	712	San Antonio Palopó	9	San Antonio Palopo	3	Marzo	2023-03-26T00:00:00	2024-11-08T05:00:00	1	Precipitación	0
161572	7	Sololá	712	San Antonio Palopó	9	San Antonio Palopo	3	Marzo	2023-03-26T00:00:00	2024-11-08T05:00:00	8	Radiación solar	0
161573	7	Sololá	712	San Antonio Palopó	9	San Antonio Palopo	3	Marzo	2023-03-26T00:00:00	2024-11-08T06:00:00	2	Temperatura media	17.1
161574	7	Sololá	712	San Antonio Palopó	9	San Antonio Palopo	3	Marzo	2023-03-26T00:00:00	2024-11-08T06:00:00	4	Temperatura máxima	17.5
161575	7	Sololá	712	San Antonio Palopó	9	San Antonio Palopo	3	Marzo	2023-03-26T00:00:00	2024-11-08T06:00:00	3	Temperatura mínima	17.1
161576	7	Sololá	712	San Antonio Palopó	9	San Antonio Palopo	3	Marzo	2023-03-26T00:00:00	2024-11-08T06:00:00	5	Humedad	81
161577	7	Sololá	712	San Antonio Palopó	9	San Antonio Palopo	3	Marzo	2023-03-26T00:00:00	2024-11-08T06:00:00	6	Velocidad del viento	4.8
161578	7	Sololá	712	San Antonio Palopó	9	San Antonio Palopo	3	Marzo	2023-03-26T00:00:00	2024-11-08T06:00:00	7	Dirección del viento	4.83
161579	7	Sololá	712	San Antonio Palopó	9	San Antonio Palopo	3	Marzo	2023-03-26T00:00:00	2024-11-08T06:00:00	1	Precipitación	0
161580	7	Sololá	712	San Antonio Palopó	9	San Antonio Palopo	3	Marzo	2023-03-26T00:00:00	2024-11-08T06:00:00	8	Radiación solar	0
161581	7	Sololá	712	San Antonio Palopó	9	San Antonio Palopo	3	Marzo	2023-03-26T00:00:00	2024-11-08T07:00:00	2	Temperatura media	17.3
161582	7	Sololá	712	San Antonio Palopó	9	San Antonio Palopo	3	Marzo	2023-03-26T00:00:00	2024-11-08T07:00:00	4	Temperatura máxima	17.3
161583	7	Sololá	712	San Antonio Palopó	9	San Antonio Palopo	3	Marzo	2023-03-26T00:00:00	2024-11-08T07:00:00	3	Temperatura mínima	17
161584	7	Sololá	712	San Antonio Palopó	9	San Antonio Palopo	3	Marzo	2023-03-26T00:00:00	2024-11-08T07:00:00	5	Humedad	80
161585	7	Sololá	712	San Antonio Palopó	9	San Antonio Palopo	3	Marzo	2023-03-26T00:00:00	2024-11-08T07:00:00	6	Velocidad del viento	1.6
161586	7	Sololá	712	San Antonio Palopó	9	San Antonio Palopo	3	Marzo	2023-03-26T00:00:00	2024-11-08T07:00:00	7	Dirección del viento	1.61
161587	7	Sololá	712	San Antonio Palopó	9	San Antonio Palopo	3	Marzo	2023-03-26T00:00:00	2024-11-08T07:00:00	1	Precipitación	0
161588	7	Sololá	712	San Antonio Palopó	9	San Antonio Palopo	3	Marzo	2023-03-26T00:00:00	2024-11-08T07:00:00	8	Radiación solar	13
161589	7	Sololá	712	San Antonio Palopó	9	San Antonio Palopo	3	Marzo	2023-03-26T00:00:00	2024-11-08T08:00:00	2	Temperatura media	17.9
161590	7	Sololá	712	San Antonio Palopó	9	San Antonio Palopo	3	Marzo	2023-03-26T00:00:00	2024-11-08T08:00:00	4	Temperatura máxima	17.9
161591	7	Sololá	712	San Antonio Palopó	9	San Antonio Palopo	3	Marzo	2023-03-26T00:00:00	2024-11-08T08:00:00	3	Temperatura mínima	17.3
161592	7	Sololá	712	San Antonio Palopó	9	San Antonio Palopo	3	Marzo	2023-03-26T00:00:00	2024-11-08T08:00:00	5	Humedad	78
161593	7	Sololá	712	San Antonio Palopó	9	San Antonio Palopo	3	Marzo	2023-03-26T00:00:00	2024-11-08T08:00:00	6	Velocidad del viento	1.6
161594	7	Sololá	712	San Antonio Palopó	9	San Antonio Palopo	3	Marzo	2023-03-26T00:00:00	2024-11-08T08:00:00	7	Dirección del viento	1.61
161595	7	Sololá	712	San Antonio Palopó	9	San Antonio Palopo	3	Marzo	2023-03-26T00:00:00	2024-11-08T08:00:00	1	Precipitación	0
161596	7	Sololá	712	San Antonio Palopó	9	San Antonio Palopo	3	Marzo	2023-03-26T00:00:00	2024-11-08T08:00:00	8	Radiación solar	67
161597	7	Sololá	712	San Antonio Palopó	9	San Antonio Palopo	3	Marzo	2023-03-26T00:00:00	2024-11-08T09:00:00	2	Temperatura media	18.6
161598	7	Sololá	712	San Antonio Palopó	9	San Antonio Palopo	3	Marzo	2023-03-26T00:00:00	2024-11-08T09:00:00	4	Temperatura máxima	18.7
161599	7	Sololá	712	San Antonio Palopó	9	San Antonio Palopo	3	Marzo	2023-03-26T00:00:00	2024-11-08T09:00:00	3	Temperatura mínima	17.9
161600	7	Sololá	712	San Antonio Palopó	9	San Antonio Palopo	3	Marzo	2023-03-26T00:00:00	2024-11-08T09:00:00	5	Humedad	78
161601	7	Sololá	712	San Antonio Palopó	9	San Antonio Palopo	3	Marzo	2023-03-26T00:00:00	2024-11-08T09:00:00	6	Velocidad del viento	3.2
161602	7	Sololá	712	San Antonio Palopó	9	San Antonio Palopo	3	Marzo	2023-03-26T00:00:00	2024-11-08T09:00:00	7	Dirección del viento	3.22
161603	7	Sololá	712	San Antonio Palopó	9	San Antonio Palopo	3	Marzo	2023-03-26T00:00:00	2024-11-08T09:00:00	1	Precipitación	0
161604	7	Sololá	712	San Antonio Palopó	9	San Antonio Palopo	3	Marzo	2023-03-26T00:00:00	2024-11-08T09:00:00	8	Radiación solar	218
161605	7	Sololá	712	San Antonio Palopó	9	San Antonio Palopo	3	Marzo	2023-03-26T00:00:00	2024-11-08T10:00:00	2	Temperatura media	19.7
161606	7	Sololá	712	San Antonio Palopó	9	San Antonio Palopo	3	Marzo	2023-03-26T00:00:00	2024-11-08T10:00:00	4	Temperatura máxima	19.7
161607	7	Sololá	712	San Antonio Palopó	9	San Antonio Palopo	3	Marzo	2023-03-26T00:00:00	2024-11-08T10:00:00	3	Temperatura mínima	18.5
161608	7	Sololá	712	San Antonio Palopó	9	San Antonio Palopo	3	Marzo	2023-03-26T00:00:00	2024-11-08T10:00:00	5	Humedad	74
161609	7	Sololá	712	San Antonio Palopó	9	San Antonio Palopo	3	Marzo	2023-03-26T00:00:00	2024-11-08T10:00:00	6	Velocidad del viento	1.6
161610	7	Sololá	712	San Antonio Palopó	9	San Antonio Palopo	3	Marzo	2023-03-26T00:00:00	2024-11-08T10:00:00	7	Dirección del viento	1.61
161611	7	Sololá	712	San Antonio Palopó	9	San Antonio Palopo	3	Marzo	2023-03-26T00:00:00	2024-11-08T10:00:00	1	Precipitación	0
161612	7	Sololá	712	San Antonio Palopó	9	San Antonio Palopo	3	Marzo	2023-03-26T00:00:00	2024-11-08T10:00:00	8	Radiación solar	340
161613	7	Sololá	712	San Antonio Palopó	9	San Antonio Palopo	3	Marzo	2023-03-26T00:00:00	2024-11-08T11:00:00	2	Temperatura media	20.2
161614	7	Sololá	712	San Antonio Palopó	9	San Antonio Palopo	3	Marzo	2023-03-26T00:00:00	2024-11-08T11:00:00	4	Temperatura máxima	20.3
161615	7	Sololá	712	San Antonio Palopó	9	San Antonio Palopo	3	Marzo	2023-03-26T00:00:00	2024-11-08T11:00:00	3	Temperatura mínima	19.7
161616	7	Sololá	712	San Antonio Palopó	9	San Antonio Palopo	3	Marzo	2023-03-26T00:00:00	2024-11-08T11:00:00	5	Humedad	73
161617	7	Sololá	712	San Antonio Palopó	9	San Antonio Palopo	3	Marzo	2023-03-26T00:00:00	2024-11-08T11:00:00	6	Velocidad del viento	3.2
161618	7	Sololá	712	San Antonio Palopó	9	San Antonio Palopo	3	Marzo	2023-03-26T00:00:00	2024-11-08T11:00:00	7	Dirección del viento	3.22
161619	7	Sololá	712	San Antonio Palopó	9	San Antonio Palopo	3	Marzo	2023-03-26T00:00:00	2024-11-08T11:00:00	1	Precipitación	0
161620	7	Sololá	712	San Antonio Palopó	9	San Antonio Palopo	3	Marzo	2023-03-26T00:00:00	2024-11-08T11:00:00	8	Radiación solar	605
161621	7	Sololá	712	San Antonio Palopó	9	San Antonio Palopo	3	Marzo	2023-03-26T00:00:00	2024-11-08T12:00:00	2	Temperatura media	21.3
161622	7	Sololá	712	San Antonio Palopó	9	San Antonio Palopo	3	Marzo	2023-03-26T00:00:00	2024-11-08T12:00:00	4	Temperatura máxima	21.4
161623	7	Sololá	712	San Antonio Palopó	9	San Antonio Palopo	3	Marzo	2023-03-26T00:00:00	2024-11-08T12:00:00	3	Temperatura mínima	20.1
161624	7	Sololá	712	San Antonio Palopó	9	San Antonio Palopo	3	Marzo	2023-03-26T00:00:00	2024-11-08T12:00:00	5	Humedad	70
161625	7	Sololá	712	San Antonio Palopó	9	San Antonio Palopo	3	Marzo	2023-03-26T00:00:00	2024-11-08T12:00:00	6	Velocidad del viento	9.7
161626	7	Sololá	712	San Antonio Palopó	9	San Antonio Palopo	3	Marzo	2023-03-26T00:00:00	2024-11-08T12:00:00	7	Dirección del viento	9.66
161627	7	Sololá	712	San Antonio Palopó	9	San Antonio Palopo	3	Marzo	2023-03-26T00:00:00	2024-11-08T12:00:00	1	Precipitación	0
161628	7	Sololá	712	San Antonio Palopó	9	San Antonio Palopo	3	Marzo	2023-03-26T00:00:00	2024-11-08T12:00:00	8	Radiación solar	650
161629	7	Sololá	712	San Antonio Palopó	9	San Antonio Palopo	3	Marzo	2023-03-26T00:00:00	2024-11-08T13:00:00	2	Temperatura media	21.4
161630	7	Sololá	712	San Antonio Palopó	9	San Antonio Palopo	3	Marzo	2023-03-26T00:00:00	2024-11-08T13:00:00	4	Temperatura máxima	21.5
161631	7	Sololá	712	San Antonio Palopó	9	San Antonio Palopo	3	Marzo	2023-03-26T00:00:00	2024-11-08T13:00:00	3	Temperatura mínima	20.7
161632	7	Sololá	712	San Antonio Palopó	9	San Antonio Palopo	3	Marzo	2023-03-26T00:00:00	2024-11-08T13:00:00	5	Humedad	72
161633	7	Sololá	712	San Antonio Palopó	9	San Antonio Palopo	3	Marzo	2023-03-26T00:00:00	2024-11-08T13:00:00	6	Velocidad del viento	16.1
161634	7	Sololá	712	San Antonio Palopó	9	San Antonio Palopo	3	Marzo	2023-03-26T00:00:00	2024-11-08T13:00:00	7	Dirección del viento	16.09
161635	7	Sololá	712	San Antonio Palopó	9	San Antonio Palopo	3	Marzo	2023-03-26T00:00:00	2024-11-08T13:00:00	1	Precipitación	0
161636	7	Sololá	712	San Antonio Palopó	9	San Antonio Palopo	3	Marzo	2023-03-26T00:00:00	2024-11-08T13:00:00	8	Radiación solar	789
161637	7	Sololá	712	San Antonio Palopó	9	San Antonio Palopo	3	Marzo	2023-03-26T00:00:00	2024-11-08T14:00:00	2	Temperatura media	20.9
161638	7	Sololá	712	San Antonio Palopó	9	San Antonio Palopo	3	Marzo	2023-03-26T00:00:00	2024-11-08T14:00:00	4	Temperatura máxima	21.5
161639	7	Sololá	712	San Antonio Palopó	9	San Antonio Palopo	3	Marzo	2023-03-26T00:00:00	2024-11-08T14:00:00	3	Temperatura mínima	20.8
161640	7	Sololá	712	San Antonio Palopó	9	San Antonio Palopo	3	Marzo	2023-03-26T00:00:00	2024-11-08T14:00:00	5	Humedad	74
161641	7	Sololá	712	San Antonio Palopó	9	San Antonio Palopo	3	Marzo	2023-03-26T00:00:00	2024-11-08T14:00:00	6	Velocidad del viento	16.1
161642	7	Sololá	712	San Antonio Palopó	9	San Antonio Palopo	3	Marzo	2023-03-26T00:00:00	2024-11-08T14:00:00	7	Dirección del viento	16.09
161643	7	Sololá	712	San Antonio Palopó	9	San Antonio Palopo	3	Marzo	2023-03-26T00:00:00	2024-11-08T14:00:00	1	Precipitación	0
161644	7	Sololá	712	San Antonio Palopó	9	San Antonio Palopo	3	Marzo	2023-03-26T00:00:00	2024-11-08T14:00:00	8	Radiación solar	657
161645	7	Sololá	712	San Antonio Palopó	9	San Antonio Palopo	3	Marzo	2023-03-26T00:00:00	2024-11-08T15:00:00	2	Temperatura media	20.7
161646	7	Sololá	712	San Antonio Palopó	9	San Antonio Palopo	3	Marzo	2023-03-26T00:00:00	2024-11-08T15:00:00	4	Temperatura máxima	21.4
161647	7	Sololá	712	San Antonio Palopó	9	San Antonio Palopo	3	Marzo	2023-03-26T00:00:00	2024-11-08T15:00:00	3	Temperatura mínima	20.4
161648	7	Sololá	712	San Antonio Palopó	9	San Antonio Palopo	3	Marzo	2023-03-26T00:00:00	2024-11-08T15:00:00	5	Humedad	77
161649	7	Sololá	712	San Antonio Palopó	9	San Antonio Palopo	3	Marzo	2023-03-26T00:00:00	2024-11-08T15:00:00	6	Velocidad del viento	16.1
161650	7	Sololá	712	San Antonio Palopó	9	San Antonio Palopo	3	Marzo	2023-03-26T00:00:00	2024-11-08T15:00:00	7	Dirección del viento	16.09
161651	7	Sololá	712	San Antonio Palopó	9	San Antonio Palopo	3	Marzo	2023-03-26T00:00:00	2024-11-08T15:00:00	1	Precipitación	0
161652	7	Sololá	712	San Antonio Palopó	9	San Antonio Palopo	3	Marzo	2023-03-26T00:00:00	2024-11-08T15:00:00	8	Radiación solar	608
161653	7	Sololá	712	San Antonio Palopó	9	San Antonio Palopo	3	Marzo	2023-03-26T00:00:00	2024-11-08T16:00:00	2	Temperatura media	20.9
161654	7	Sololá	712	San Antonio Palopó	9	San Antonio Palopo	3	Marzo	2023-03-26T00:00:00	2024-11-08T16:00:00	4	Temperatura máxima	21.4
161655	7	Sololá	712	San Antonio Palopó	9	San Antonio Palopo	3	Marzo	2023-03-26T00:00:00	2024-11-08T16:00:00	3	Temperatura mínima	20.6
161656	7	Sololá	712	San Antonio Palopó	9	San Antonio Palopo	3	Marzo	2023-03-26T00:00:00	2024-11-08T16:00:00	5	Humedad	76
161657	7	Sololá	712	San Antonio Palopó	9	San Antonio Palopo	3	Marzo	2023-03-26T00:00:00	2024-11-08T16:00:00	6	Velocidad del viento	12.9
161658	7	Sololá	712	San Antonio Palopó	9	San Antonio Palopo	3	Marzo	2023-03-26T00:00:00	2024-11-08T16:00:00	7	Dirección del viento	12.87
161659	7	Sololá	712	San Antonio Palopó	9	San Antonio Palopo	3	Marzo	2023-03-26T00:00:00	2024-11-08T16:00:00	1	Precipitación	0
161660	7	Sololá	712	San Antonio Palopó	9	San Antonio Palopo	3	Marzo	2023-03-26T00:00:00	2024-11-08T16:00:00	8	Radiación solar	290
161661	7	Sololá	712	San Antonio Palopó	9	San Antonio Palopo	3	Marzo	2023-03-26T00:00:00	2024-11-08T17:00:00	2	Temperatura media	21.3
161662	7	Sololá	712	San Antonio Palopó	9	San Antonio Palopo	3	Marzo	2023-03-26T00:00:00	2024-11-08T17:00:00	4	Temperatura máxima	21.4
161663	7	Sololá	712	San Antonio Palopó	9	San Antonio Palopo	3	Marzo	2023-03-26T00:00:00	2024-11-08T17:00:00	3	Temperatura mínima	20.9
161664	7	Sololá	712	San Antonio Palopó	9	San Antonio Palopo	3	Marzo	2023-03-26T00:00:00	2024-11-08T17:00:00	5	Humedad	74
161665	7	Sololá	712	San Antonio Palopó	9	San Antonio Palopo	3	Marzo	2023-03-26T00:00:00	2024-11-08T17:00:00	6	Velocidad del viento	11.3
161666	7	Sololá	712	San Antonio Palopó	9	San Antonio Palopo	3	Marzo	2023-03-26T00:00:00	2024-11-08T17:00:00	7	Dirección del viento	11.27
161667	7	Sololá	712	San Antonio Palopó	9	San Antonio Palopo	3	Marzo	2023-03-26T00:00:00	2024-11-08T17:00:00	1	Precipitación	0
161668	7	Sololá	712	San Antonio Palopó	9	San Antonio Palopo	3	Marzo	2023-03-26T00:00:00	2024-11-08T17:00:00	8	Radiación solar	251
161669	7	Sololá	712	San Antonio Palopó	9	San Antonio Palopo	3	Marzo	2023-03-26T00:00:00	2024-11-08T18:00:00	2	Temperatura media	20.1
161670	7	Sololá	712	San Antonio Palopó	9	San Antonio Palopo	3	Marzo	2023-03-26T00:00:00	2024-11-08T18:00:00	4	Temperatura máxima	21.4
161671	7	Sololá	712	San Antonio Palopó	9	San Antonio Palopo	3	Marzo	2023-03-26T00:00:00	2024-11-08T18:00:00	3	Temperatura mínima	20.1
161672	7	Sololá	712	San Antonio Palopó	9	San Antonio Palopo	3	Marzo	2023-03-26T00:00:00	2024-11-08T18:00:00	5	Humedad	79
161673	7	Sololá	712	San Antonio Palopó	9	San Antonio Palopo	3	Marzo	2023-03-26T00:00:00	2024-11-08T18:00:00	6	Velocidad del viento	6.4
161674	7	Sololá	712	San Antonio Palopó	9	San Antonio Palopo	3	Marzo	2023-03-26T00:00:00	2024-11-08T18:00:00	7	Dirección del viento	6.44
161675	7	Sololá	712	San Antonio Palopó	9	San Antonio Palopo	3	Marzo	2023-03-26T00:00:00	2024-11-08T18:00:00	1	Precipitación	0
161676	7	Sololá	712	San Antonio Palopó	9	San Antonio Palopo	3	Marzo	2023-03-26T00:00:00	2024-11-08T18:00:00	8	Radiación solar	78
161677	7	Sololá	712	San Antonio Palopó	9	San Antonio Palopo	3	Marzo	2023-03-26T00:00:00	2024-11-08T19:00:00	2	Temperatura media	19.3
161678	7	Sololá	712	San Antonio Palopó	9	San Antonio Palopo	3	Marzo	2023-03-26T00:00:00	2024-11-08T19:00:00	4	Temperatura máxima	20.1
161679	7	Sololá	712	San Antonio Palopó	9	San Antonio Palopo	3	Marzo	2023-03-26T00:00:00	2024-11-08T19:00:00	3	Temperatura mínima	19.2
161680	7	Sololá	712	San Antonio Palopó	9	San Antonio Palopo	3	Marzo	2023-03-26T00:00:00	2024-11-08T19:00:00	5	Humedad	83
161681	7	Sololá	712	San Antonio Palopó	9	San Antonio Palopo	3	Marzo	2023-03-26T00:00:00	2024-11-08T19:00:00	6	Velocidad del viento	4.8
161682	7	Sololá	712	San Antonio Palopó	9	San Antonio Palopo	3	Marzo	2023-03-26T00:00:00	2024-11-08T19:00:00	7	Dirección del viento	4.83
161683	7	Sololá	712	San Antonio Palopó	9	San Antonio Palopo	3	Marzo	2023-03-26T00:00:00	2024-11-08T19:00:00	1	Precipitación	0
161684	7	Sololá	712	San Antonio Palopó	9	San Antonio Palopo	3	Marzo	2023-03-26T00:00:00	2024-11-08T19:00:00	8	Radiación solar	0
161685	7	Sololá	712	San Antonio Palopó	9	San Antonio Palopo	3	Marzo	2023-03-26T00:00:00	2024-11-08T20:00:00	2	Temperatura media	18.6
161686	7	Sololá	712	San Antonio Palopó	9	San Antonio Palopo	3	Marzo	2023-03-26T00:00:00	2024-11-08T20:00:00	4	Temperatura máxima	19.3
161687	7	Sololá	712	San Antonio Palopó	9	San Antonio Palopo	3	Marzo	2023-03-26T00:00:00	2024-11-08T20:00:00	3	Temperatura mínima	18.6
161688	7	Sololá	712	San Antonio Palopó	9	San Antonio Palopo	3	Marzo	2023-03-26T00:00:00	2024-11-08T20:00:00	5	Humedad	81
161689	7	Sololá	712	San Antonio Palopó	9	San Antonio Palopo	3	Marzo	2023-03-26T00:00:00	2024-11-08T20:00:00	6	Velocidad del viento	1.6
161690	7	Sololá	712	San Antonio Palopó	9	San Antonio Palopo	3	Marzo	2023-03-26T00:00:00	2024-11-08T20:00:00	7	Dirección del viento	1.61
161691	7	Sololá	712	San Antonio Palopó	9	San Antonio Palopo	3	Marzo	2023-03-26T00:00:00	2024-11-08T20:00:00	1	Precipitación	0
161692	7	Sololá	712	San Antonio Palopó	9	San Antonio Palopo	3	Marzo	2023-03-26T00:00:00	2024-11-08T20:00:00	8	Radiación solar	0
161693	7	Sololá	712	San Antonio Palopó	9	San Antonio Palopo	3	Marzo	2023-03-26T00:00:00	2024-11-08T21:00:00	2	Temperatura media	18.3
161694	7	Sololá	712	San Antonio Palopó	9	San Antonio Palopo	3	Marzo	2023-03-26T00:00:00	2024-11-08T21:00:00	4	Temperatura máxima	18.6
161695	7	Sololá	712	San Antonio Palopó	9	San Antonio Palopo	3	Marzo	2023-03-26T00:00:00	2024-11-08T21:00:00	3	Temperatura mínima	18.1
161696	7	Sololá	712	San Antonio Palopó	9	San Antonio Palopo	3	Marzo	2023-03-26T00:00:00	2024-11-08T21:00:00	5	Humedad	83
161697	7	Sololá	712	San Antonio Palopó	9	San Antonio Palopo	3	Marzo	2023-03-26T00:00:00	2024-11-08T21:00:00	6	Velocidad del viento	3.2
161698	7	Sololá	712	San Antonio Palopó	9	San Antonio Palopo	3	Marzo	2023-03-26T00:00:00	2024-11-08T21:00:00	7	Dirección del viento	3.22
161699	7	Sololá	712	San Antonio Palopó	9	San Antonio Palopo	3	Marzo	2023-03-26T00:00:00	2024-11-08T21:00:00	1	Precipitación	0
161700	7	Sololá	712	San Antonio Palopó	9	San Antonio Palopo	3	Marzo	2023-03-26T00:00:00	2024-11-08T21:00:00	8	Radiación solar	0
161701	7	Sololá	712	San Antonio Palopó	9	San Antonio Palopo	3	Marzo	2023-03-26T00:00:00	2024-11-08T22:00:00	2	Temperatura media	18.1
161702	7	Sololá	712	San Antonio Palopó	9	San Antonio Palopo	3	Marzo	2023-03-26T00:00:00	2024-11-08T22:00:00	4	Temperatura máxima	18.3
161703	7	Sololá	712	San Antonio Palopó	9	San Antonio Palopo	3	Marzo	2023-03-26T00:00:00	2024-11-08T22:00:00	3	Temperatura mínima	17.9
161704	7	Sololá	712	San Antonio Palopó	9	San Antonio Palopo	3	Marzo	2023-03-26T00:00:00	2024-11-08T22:00:00	5	Humedad	82
161705	7	Sololá	712	San Antonio Palopó	9	San Antonio Palopo	3	Marzo	2023-03-26T00:00:00	2024-11-08T22:00:00	6	Velocidad del viento	3.2
161706	7	Sololá	712	San Antonio Palopó	9	San Antonio Palopo	3	Marzo	2023-03-26T00:00:00	2024-11-08T22:00:00	7	Dirección del viento	3.22
161707	7	Sololá	712	San Antonio Palopó	9	San Antonio Palopo	3	Marzo	2023-03-26T00:00:00	2024-11-08T22:00:00	1	Precipitación	0
161708	7	Sololá	712	San Antonio Palopó	9	San Antonio Palopo	3	Marzo	2023-03-26T00:00:00	2024-11-08T22:00:00	8	Radiación solar	0
161709	7	Sololá	712	San Antonio Palopó	9	San Antonio Palopo	3	Marzo	2023-03-26T00:00:00	2024-11-08T23:00:00	2	Temperatura media	18.2
161710	7	Sololá	712	San Antonio Palopó	9	San Antonio Palopo	3	Marzo	2023-03-26T00:00:00	2024-11-08T23:00:00	4	Temperatura máxima	18.4
161711	7	Sololá	712	San Antonio Palopó	9	San Antonio Palopo	3	Marzo	2023-03-26T00:00:00	2024-11-08T23:00:00	3	Temperatura mínima	18.1
161712	7	Sololá	712	San Antonio Palopó	9	San Antonio Palopo	3	Marzo	2023-03-26T00:00:00	2024-11-08T23:00:00	5	Humedad	80
161713	7	Sololá	712	San Antonio Palopó	9	San Antonio Palopo	3	Marzo	2023-03-26T00:00:00	2024-11-08T23:00:00	6	Velocidad del viento	1.6
161714	7	Sololá	712	San Antonio Palopó	9	San Antonio Palopo	3	Marzo	2023-03-26T00:00:00	2024-11-08T23:00:00	7	Dirección del viento	1.61
161715	7	Sololá	712	San Antonio Palopó	9	San Antonio Palopo	3	Marzo	2023-03-26T00:00:00	2024-11-08T23:00:00	1	Precipitación	0
161716	7	Sololá	712	San Antonio Palopó	9	San Antonio Palopo	3	Marzo	2023-03-26T00:00:00	2024-11-08T23:00:00	8	Radiación solar	0
161717	7	Sololá	712	San Antonio Palopó	9	San Antonio Palopo	3	Marzo	2023-03-27T00:00:00	2024-11-08T00:00:00	2	Temperatura media	18.4
161718	7	Sololá	712	San Antonio Palopó	9	San Antonio Palopo	3	Marzo	2023-03-27T00:00:00	2024-11-08T00:00:00	4	Temperatura máxima	18.6
161719	7	Sololá	712	San Antonio Palopó	9	San Antonio Palopo	3	Marzo	2023-03-27T00:00:00	2024-11-08T00:00:00	3	Temperatura mínima	18.2
161720	7	Sololá	712	San Antonio Palopó	9	San Antonio Palopo	3	Marzo	2023-03-27T00:00:00	2024-11-08T00:00:00	5	Humedad	80
161721	7	Sololá	712	San Antonio Palopó	9	San Antonio Palopo	3	Marzo	2023-03-27T00:00:00	2024-11-08T00:00:00	6	Velocidad del viento	1.6
161722	7	Sololá	712	San Antonio Palopó	9	San Antonio Palopo	3	Marzo	2023-03-27T00:00:00	2024-11-08T00:00:00	7	Dirección del viento	1.61
161723	7	Sololá	712	San Antonio Palopó	9	San Antonio Palopo	3	Marzo	2023-03-27T00:00:00	2024-11-08T00:00:00	1	Precipitación	0
161724	7	Sololá	712	San Antonio Palopó	9	San Antonio Palopo	3	Marzo	2023-03-27T00:00:00	2024-11-08T00:00:00	8	Radiación solar	0
161725	7	Sololá	712	San Antonio Palopó	9	San Antonio Palopo	3	Marzo	2023-03-27T00:00:00	2024-11-08T01:00:00	2	Temperatura media	17.7
161726	7	Sololá	712	San Antonio Palopó	9	San Antonio Palopo	3	Marzo	2023-03-27T00:00:00	2024-11-08T01:00:00	4	Temperatura máxima	18.5
161727	7	Sololá	712	San Antonio Palopó	9	San Antonio Palopo	3	Marzo	2023-03-27T00:00:00	2024-11-08T01:00:00	3	Temperatura mínima	17.6
161728	7	Sololá	712	San Antonio Palopó	9	San Antonio Palopo	3	Marzo	2023-03-27T00:00:00	2024-11-08T01:00:00	5	Humedad	80
161729	7	Sololá	712	San Antonio Palopó	9	San Antonio Palopo	3	Marzo	2023-03-27T00:00:00	2024-11-08T01:00:00	6	Velocidad del viento	3.2
161730	7	Sololá	712	San Antonio Palopó	9	San Antonio Palopo	3	Marzo	2023-03-27T00:00:00	2024-11-08T01:00:00	7	Dirección del viento	3.22
161731	7	Sololá	712	San Antonio Palopó	9	San Antonio Palopo	3	Marzo	2023-03-27T00:00:00	2024-11-08T01:00:00	1	Precipitación	0
161732	7	Sololá	712	San Antonio Palopó	9	San Antonio Palopo	3	Marzo	2023-03-27T00:00:00	2024-11-08T01:00:00	8	Radiación solar	0
161733	7	Sololá	712	San Antonio Palopó	9	San Antonio Palopo	3	Marzo	2023-03-27T00:00:00	2024-11-08T02:00:00	2	Temperatura media	17.7
161734	7	Sololá	712	San Antonio Palopó	9	San Antonio Palopo	3	Marzo	2023-03-27T00:00:00	2024-11-08T02:00:00	4	Temperatura máxima	17.7
161735	7	Sololá	712	San Antonio Palopó	9	San Antonio Palopo	3	Marzo	2023-03-27T00:00:00	2024-11-08T02:00:00	3	Temperatura mínima	17.5
161736	7	Sololá	712	San Antonio Palopó	9	San Antonio Palopo	3	Marzo	2023-03-27T00:00:00	2024-11-08T02:00:00	5	Humedad	81
161737	7	Sololá	712	San Antonio Palopó	9	San Antonio Palopo	3	Marzo	2023-03-27T00:00:00	2024-11-08T02:00:00	6	Velocidad del viento	1.6
161738	7	Sololá	712	San Antonio Palopó	9	San Antonio Palopo	3	Marzo	2023-03-27T00:00:00	2024-11-08T02:00:00	7	Dirección del viento	1.61
161739	7	Sololá	712	San Antonio Palopó	9	San Antonio Palopo	3	Marzo	2023-03-27T00:00:00	2024-11-08T02:00:00	1	Precipitación	0
161740	7	Sololá	712	San Antonio Palopó	9	San Antonio Palopo	3	Marzo	2023-03-27T00:00:00	2024-11-08T02:00:00	8	Radiación solar	0
161741	7	Sololá	712	San Antonio Palopó	9	San Antonio Palopo	3	Marzo	2023-03-27T00:00:00	2024-11-08T03:00:00	2	Temperatura media	16.8
161742	7	Sololá	712	San Antonio Palopó	9	San Antonio Palopo	3	Marzo	2023-03-27T00:00:00	2024-11-08T03:00:00	4	Temperatura máxima	17.7
161743	7	Sololá	712	San Antonio Palopó	9	San Antonio Palopo	3	Marzo	2023-03-27T00:00:00	2024-11-08T03:00:00	3	Temperatura mínima	16.8
161744	7	Sololá	712	San Antonio Palopó	9	San Antonio Palopo	3	Marzo	2023-03-27T00:00:00	2024-11-08T03:00:00	5	Humedad	81
161745	7	Sololá	712	San Antonio Palopó	9	San Antonio Palopo	3	Marzo	2023-03-27T00:00:00	2024-11-08T03:00:00	6	Velocidad del viento	3.2
161746	7	Sololá	712	San Antonio Palopó	9	San Antonio Palopo	3	Marzo	2023-03-27T00:00:00	2024-11-08T03:00:00	7	Dirección del viento	3.22
161747	7	Sololá	712	San Antonio Palopó	9	San Antonio Palopo	3	Marzo	2023-03-27T00:00:00	2024-11-08T03:00:00	1	Precipitación	0
161748	7	Sololá	712	San Antonio Palopó	9	San Antonio Palopo	3	Marzo	2023-03-27T00:00:00	2024-11-08T03:00:00	8	Radiación solar	0
161749	7	Sololá	712	San Antonio Palopó	9	San Antonio Palopo	3	Marzo	2023-03-27T00:00:00	2024-11-08T04:00:00	2	Temperatura media	16.8
161750	7	Sololá	712	San Antonio Palopó	9	San Antonio Palopo	3	Marzo	2023-03-27T00:00:00	2024-11-08T04:00:00	4	Temperatura máxima	17.4
161751	7	Sololá	712	San Antonio Palopó	9	San Antonio Palopo	3	Marzo	2023-03-27T00:00:00	2024-11-08T04:00:00	3	Temperatura mínima	16.7
161752	7	Sololá	712	San Antonio Palopó	9	San Antonio Palopo	3	Marzo	2023-03-27T00:00:00	2024-11-08T04:00:00	5	Humedad	82
161753	7	Sololá	712	San Antonio Palopó	9	San Antonio Palopo	3	Marzo	2023-03-27T00:00:00	2024-11-08T04:00:00	6	Velocidad del viento	3.2
161754	7	Sololá	712	San Antonio Palopó	9	San Antonio Palopo	3	Marzo	2023-03-27T00:00:00	2024-11-08T04:00:00	7	Dirección del viento	3.22
161755	7	Sololá	712	San Antonio Palopó	9	San Antonio Palopo	3	Marzo	2023-03-27T00:00:00	2024-11-08T04:00:00	1	Precipitación	0
161756	7	Sololá	712	San Antonio Palopó	9	San Antonio Palopo	3	Marzo	2023-03-27T00:00:00	2024-11-08T04:00:00	8	Radiación solar	0
161757	7	Sololá	712	San Antonio Palopó	9	San Antonio Palopo	3	Marzo	2023-03-27T00:00:00	2024-11-08T05:00:00	2	Temperatura media	16.2
161758	7	Sololá	712	San Antonio Palopó	9	San Antonio Palopo	3	Marzo	2023-03-27T00:00:00	2024-11-08T05:00:00	4	Temperatura máxima	16.9
161759	7	Sololá	712	San Antonio Palopó	9	San Antonio Palopo	3	Marzo	2023-03-27T00:00:00	2024-11-08T05:00:00	3	Temperatura mínima	16.1
161760	7	Sololá	712	San Antonio Palopó	9	San Antonio Palopo	3	Marzo	2023-03-27T00:00:00	2024-11-08T05:00:00	5	Humedad	82
161761	7	Sololá	712	San Antonio Palopó	9	San Antonio Palopo	3	Marzo	2023-03-27T00:00:00	2024-11-08T05:00:00	6	Velocidad del viento	3.2
161762	7	Sololá	712	San Antonio Palopó	9	San Antonio Palopo	3	Marzo	2023-03-27T00:00:00	2024-11-08T05:00:00	7	Dirección del viento	3.22
161763	7	Sololá	712	San Antonio Palopó	9	San Antonio Palopo	3	Marzo	2023-03-27T00:00:00	2024-11-08T05:00:00	1	Precipitación	0
161764	7	Sololá	712	San Antonio Palopó	9	San Antonio Palopo	3	Marzo	2023-03-27T00:00:00	2024-11-08T05:00:00	8	Radiación solar	0
161765	7	Sololá	712	San Antonio Palopó	9	San Antonio Palopo	3	Marzo	2023-03-27T00:00:00	2024-11-08T06:00:00	2	Temperatura media	16.1
161766	7	Sololá	712	San Antonio Palopó	9	San Antonio Palopo	3	Marzo	2023-03-27T00:00:00	2024-11-08T06:00:00	4	Temperatura máxima	16.7
161767	7	Sololá	712	San Antonio Palopó	9	San Antonio Palopo	3	Marzo	2023-03-27T00:00:00	2024-11-08T06:00:00	3	Temperatura mínima	16.1
161768	7	Sololá	712	San Antonio Palopó	9	San Antonio Palopo	3	Marzo	2023-03-27T00:00:00	2024-11-08T06:00:00	5	Humedad	79
161769	7	Sololá	712	San Antonio Palopó	9	San Antonio Palopo	3	Marzo	2023-03-27T00:00:00	2024-11-08T06:00:00	6	Velocidad del viento	3.2
161770	7	Sololá	712	San Antonio Palopó	9	San Antonio Palopo	3	Marzo	2023-03-27T00:00:00	2024-11-08T06:00:00	7	Dirección del viento	3.22
161771	7	Sololá	712	San Antonio Palopó	9	San Antonio Palopo	3	Marzo	2023-03-27T00:00:00	2024-11-08T06:00:00	1	Precipitación	0
161772	7	Sololá	712	San Antonio Palopó	9	San Antonio Palopo	3	Marzo	2023-03-27T00:00:00	2024-11-08T06:00:00	8	Radiación solar	0
161773	7	Sololá	712	San Antonio Palopó	9	San Antonio Palopo	3	Marzo	2023-03-27T00:00:00	2024-11-08T07:00:00	2	Temperatura media	16.1
161774	7	Sololá	712	San Antonio Palopó	9	San Antonio Palopo	3	Marzo	2023-03-27T00:00:00	2024-11-08T07:00:00	4	Temperatura máxima	16.2
161775	7	Sololá	712	San Antonio Palopó	9	San Antonio Palopo	3	Marzo	2023-03-27T00:00:00	2024-11-08T07:00:00	3	Temperatura mínima	15.9
161776	7	Sololá	712	San Antonio Palopó	9	San Antonio Palopo	3	Marzo	2023-03-27T00:00:00	2024-11-08T07:00:00	5	Humedad	79
161777	7	Sololá	712	San Antonio Palopó	9	San Antonio Palopo	3	Marzo	2023-03-27T00:00:00	2024-11-08T07:00:00	6	Velocidad del viento	4.8
161778	7	Sololá	712	San Antonio Palopó	9	San Antonio Palopo	3	Marzo	2023-03-27T00:00:00	2024-11-08T07:00:00	7	Dirección del viento	4.83
161779	7	Sololá	712	San Antonio Palopó	9	San Antonio Palopo	3	Marzo	2023-03-27T00:00:00	2024-11-08T07:00:00	1	Precipitación	0
161780	7	Sololá	712	San Antonio Palopó	9	San Antonio Palopo	3	Marzo	2023-03-27T00:00:00	2024-11-08T07:00:00	8	Radiación solar	14
161781	7	Sololá	712	San Antonio Palopó	9	San Antonio Palopo	3	Marzo	2023-03-27T00:00:00	2024-11-08T08:00:00	2	Temperatura media	17.2
161782	7	Sololá	712	San Antonio Palopó	9	San Antonio Palopo	3	Marzo	2023-03-27T00:00:00	2024-11-08T08:00:00	4	Temperatura máxima	17.2
161783	7	Sololá	712	San Antonio Palopó	9	San Antonio Palopo	3	Marzo	2023-03-27T00:00:00	2024-11-08T08:00:00	3	Temperatura mínima	15.9
161784	7	Sololá	712	San Antonio Palopó	9	San Antonio Palopo	3	Marzo	2023-03-27T00:00:00	2024-11-08T08:00:00	5	Humedad	77
161785	7	Sololá	712	San Antonio Palopó	9	San Antonio Palopo	3	Marzo	2023-03-27T00:00:00	2024-11-08T08:00:00	6	Velocidad del viento	3.2
161786	7	Sololá	712	San Antonio Palopó	9	San Antonio Palopo	3	Marzo	2023-03-27T00:00:00	2024-11-08T08:00:00	7	Dirección del viento	3.22
161787	7	Sololá	712	San Antonio Palopó	9	San Antonio Palopo	3	Marzo	2023-03-27T00:00:00	2024-11-08T08:00:00	1	Precipitación	0
161788	7	Sololá	712	San Antonio Palopó	9	San Antonio Palopo	3	Marzo	2023-03-27T00:00:00	2024-11-08T08:00:00	8	Radiación solar	67
161789	7	Sololá	712	San Antonio Palopó	9	San Antonio Palopo	3	Marzo	2023-03-27T00:00:00	2024-11-08T09:00:00	2	Temperatura media	19.6
161790	7	Sololá	712	San Antonio Palopó	9	San Antonio Palopo	3	Marzo	2023-03-27T00:00:00	2024-11-08T09:00:00	4	Temperatura máxima	19.8
161791	7	Sololá	712	San Antonio Palopó	9	San Antonio Palopo	3	Marzo	2023-03-27T00:00:00	2024-11-08T09:00:00	3	Temperatura mínima	17.2
161792	7	Sololá	712	San Antonio Palopó	9	San Antonio Palopo	3	Marzo	2023-03-27T00:00:00	2024-11-08T09:00:00	5	Humedad	68
161793	7	Sololá	712	San Antonio Palopó	9	San Antonio Palopo	3	Marzo	2023-03-27T00:00:00	2024-11-08T09:00:00	6	Velocidad del viento	1.6
161794	7	Sololá	712	San Antonio Palopó	9	San Antonio Palopo	3	Marzo	2023-03-27T00:00:00	2024-11-08T09:00:00	7	Dirección del viento	1.61
161795	7	Sololá	712	San Antonio Palopó	9	San Antonio Palopo	3	Marzo	2023-03-27T00:00:00	2024-11-08T09:00:00	1	Precipitación	0
161796	7	Sololá	712	San Antonio Palopó	9	San Antonio Palopo	3	Marzo	2023-03-27T00:00:00	2024-11-08T09:00:00	8	Radiación solar	378
161797	7	Sololá	712	San Antonio Palopó	9	San Antonio Palopo	3	Marzo	2023-03-27T00:00:00	2024-11-08T10:00:00	2	Temperatura media	20.2
161798	7	Sololá	712	San Antonio Palopó	9	San Antonio Palopo	3	Marzo	2023-03-27T00:00:00	2024-11-08T10:00:00	4	Temperatura máxima	20.3
161799	7	Sololá	712	San Antonio Palopó	9	San Antonio Palopo	3	Marzo	2023-03-27T00:00:00	2024-11-08T10:00:00	3	Temperatura mínima	19.3
161800	7	Sololá	712	San Antonio Palopó	9	San Antonio Palopo	3	Marzo	2023-03-27T00:00:00	2024-11-08T10:00:00	5	Humedad	68
161801	7	Sololá	712	San Antonio Palopó	9	San Antonio Palopo	3	Marzo	2023-03-27T00:00:00	2024-11-08T10:00:00	6	Velocidad del viento	1.6
161802	7	Sololá	712	San Antonio Palopó	9	San Antonio Palopo	3	Marzo	2023-03-27T00:00:00	2024-11-08T10:00:00	7	Dirección del viento	1.61
161803	7	Sololá	712	San Antonio Palopó	9	San Antonio Palopo	3	Marzo	2023-03-27T00:00:00	2024-11-08T10:00:00	1	Precipitación	0
161804	7	Sololá	712	San Antonio Palopó	9	San Antonio Palopo	3	Marzo	2023-03-27T00:00:00	2024-11-08T10:00:00	8	Radiación solar	338
161805	7	Sololá	712	San Antonio Palopó	9	San Antonio Palopo	3	Marzo	2023-03-27T00:00:00	2024-11-08T11:00:00	2	Temperatura media	21.8
161806	7	Sololá	712	San Antonio Palopó	9	San Antonio Palopo	3	Marzo	2023-03-27T00:00:00	2024-11-08T11:00:00	4	Temperatura máxima	21.8
161807	7	Sololá	712	San Antonio Palopó	9	San Antonio Palopo	3	Marzo	2023-03-27T00:00:00	2024-11-08T11:00:00	3	Temperatura mínima	19.9
161808	7	Sololá	712	San Antonio Palopó	9	San Antonio Palopo	3	Marzo	2023-03-27T00:00:00	2024-11-08T11:00:00	5	Humedad	65
161809	7	Sololá	712	San Antonio Palopó	9	San Antonio Palopo	3	Marzo	2023-03-27T00:00:00	2024-11-08T11:00:00	6	Velocidad del viento	3.2
161810	7	Sololá	712	San Antonio Palopó	9	San Antonio Palopo	3	Marzo	2023-03-27T00:00:00	2024-11-08T11:00:00	7	Dirección del viento	3.22
161811	7	Sololá	712	San Antonio Palopó	9	San Antonio Palopo	3	Marzo	2023-03-27T00:00:00	2024-11-08T11:00:00	1	Precipitación	0
161812	7	Sololá	712	San Antonio Palopó	9	San Antonio Palopo	3	Marzo	2023-03-27T00:00:00	2024-11-08T11:00:00	8	Radiación solar	535
161813	7	Sololá	712	San Antonio Palopó	9	San Antonio Palopo	3	Marzo	2023-03-27T00:00:00	2024-11-08T12:00:00	2	Temperatura media	22.2
161814	7	Sololá	712	San Antonio Palopó	9	San Antonio Palopo	3	Marzo	2023-03-27T00:00:00	2024-11-08T12:00:00	4	Temperatura máxima	22.4
161815	7	Sololá	712	San Antonio Palopó	9	San Antonio Palopo	3	Marzo	2023-03-27T00:00:00	2024-11-08T12:00:00	3	Temperatura mínima	21.2
161816	7	Sololá	712	San Antonio Palopó	9	San Antonio Palopo	3	Marzo	2023-03-27T00:00:00	2024-11-08T12:00:00	5	Humedad	68
161817	7	Sololá	712	San Antonio Palopó	9	San Antonio Palopo	3	Marzo	2023-03-27T00:00:00	2024-11-08T12:00:00	6	Velocidad del viento	6.4
161818	7	Sololá	712	San Antonio Palopó	9	San Antonio Palopo	3	Marzo	2023-03-27T00:00:00	2024-11-08T12:00:00	7	Dirección del viento	6.44
161819	7	Sololá	712	San Antonio Palopó	9	San Antonio Palopo	3	Marzo	2023-03-27T00:00:00	2024-11-08T12:00:00	1	Precipitación	0
161820	7	Sololá	712	San Antonio Palopó	9	San Antonio Palopo	3	Marzo	2023-03-27T00:00:00	2024-11-08T12:00:00	8	Radiación solar	893
161821	7	Sololá	712	San Antonio Palopó	9	San Antonio Palopo	3	Marzo	2023-03-27T00:00:00	2024-11-08T13:00:00	2	Temperatura media	22.4
161822	7	Sololá	712	San Antonio Palopó	9	San Antonio Palopo	3	Marzo	2023-03-27T00:00:00	2024-11-08T13:00:00	4	Temperatura máxima	23.2
161823	7	Sololá	712	San Antonio Palopó	9	San Antonio Palopo	3	Marzo	2023-03-27T00:00:00	2024-11-08T13:00:00	3	Temperatura mínima	22.2
161824	7	Sololá	712	San Antonio Palopó	9	San Antonio Palopo	3	Marzo	2023-03-27T00:00:00	2024-11-08T13:00:00	5	Humedad	71
161825	7	Sololá	712	San Antonio Palopó	9	San Antonio Palopo	3	Marzo	2023-03-27T00:00:00	2024-11-08T13:00:00	6	Velocidad del viento	11.3
161826	7	Sololá	712	San Antonio Palopó	9	San Antonio Palopo	3	Marzo	2023-03-27T00:00:00	2024-11-08T13:00:00	7	Dirección del viento	11.27
161827	7	Sololá	712	San Antonio Palopó	9	San Antonio Palopo	3	Marzo	2023-03-27T00:00:00	2024-11-08T13:00:00	1	Precipitación	0
161828	7	Sololá	712	San Antonio Palopó	9	San Antonio Palopo	3	Marzo	2023-03-27T00:00:00	2024-11-08T13:00:00	8	Radiación solar	848
161829	7	Sololá	712	San Antonio Palopó	9	San Antonio Palopo	3	Marzo	2023-03-27T00:00:00	2024-11-08T14:00:00	2	Temperatura media	22.8
161830	7	Sololá	712	San Antonio Palopó	9	San Antonio Palopo	3	Marzo	2023-03-27T00:00:00	2024-11-08T14:00:00	4	Temperatura máxima	23.1
161831	7	Sololá	712	San Antonio Palopó	9	San Antonio Palopo	3	Marzo	2023-03-27T00:00:00	2024-11-08T14:00:00	3	Temperatura mínima	22.2
161832	7	Sololá	712	San Antonio Palopó	9	San Antonio Palopo	3	Marzo	2023-03-27T00:00:00	2024-11-08T14:00:00	5	Humedad	69
161833	7	Sololá	712	San Antonio Palopó	9	San Antonio Palopo	3	Marzo	2023-03-27T00:00:00	2024-11-08T14:00:00	6	Velocidad del viento	12.9
161834	7	Sololá	712	San Antonio Palopó	9	San Antonio Palopo	3	Marzo	2023-03-27T00:00:00	2024-11-08T14:00:00	7	Dirección del viento	12.87
161835	7	Sololá	712	San Antonio Palopó	9	San Antonio Palopo	3	Marzo	2023-03-27T00:00:00	2024-11-08T14:00:00	1	Precipitación	0
161836	7	Sololá	712	San Antonio Palopó	9	San Antonio Palopo	3	Marzo	2023-03-27T00:00:00	2024-11-08T14:00:00	8	Radiación solar	898
161837	7	Sololá	712	San Antonio Palopó	9	San Antonio Palopo	3	Marzo	2023-03-27T00:00:00	2024-11-08T15:00:00	2	Temperatura media	23
161838	7	Sololá	712	San Antonio Palopó	9	San Antonio Palopo	3	Marzo	2023-03-27T00:00:00	2024-11-08T15:00:00	4	Temperatura máxima	23.3
161839	7	Sololá	712	San Antonio Palopó	9	San Antonio Palopo	3	Marzo	2023-03-27T00:00:00	2024-11-08T15:00:00	3	Temperatura mínima	22.7
161840	7	Sololá	712	San Antonio Palopó	9	San Antonio Palopo	3	Marzo	2023-03-27T00:00:00	2024-11-08T15:00:00	5	Humedad	71
161841	7	Sololá	712	San Antonio Palopó	9	San Antonio Palopo	3	Marzo	2023-03-27T00:00:00	2024-11-08T15:00:00	6	Velocidad del viento	9.7
161842	7	Sololá	712	San Antonio Palopó	9	San Antonio Palopo	3	Marzo	2023-03-27T00:00:00	2024-11-08T15:00:00	7	Dirección del viento	9.66
161843	7	Sololá	712	San Antonio Palopó	9	San Antonio Palopo	3	Marzo	2023-03-27T00:00:00	2024-11-08T15:00:00	1	Precipitación	0
161844	7	Sololá	712	San Antonio Palopó	9	San Antonio Palopo	3	Marzo	2023-03-27T00:00:00	2024-11-08T15:00:00	8	Radiación solar	786
161845	7	Sololá	712	San Antonio Palopó	9	San Antonio Palopo	3	Marzo	2023-03-27T00:00:00	2024-11-08T16:00:00	2	Temperatura media	22.7
161846	7	Sololá	712	San Antonio Palopó	9	San Antonio Palopo	3	Marzo	2023-03-27T00:00:00	2024-11-08T16:00:00	4	Temperatura máxima	23.3
161847	7	Sololá	712	San Antonio Palopó	9	San Antonio Palopo	3	Marzo	2023-03-27T00:00:00	2024-11-08T16:00:00	3	Temperatura mínima	22.7
161848	7	Sololá	712	San Antonio Palopó	9	San Antonio Palopo	3	Marzo	2023-03-27T00:00:00	2024-11-08T16:00:00	5	Humedad	70
161849	7	Sololá	712	San Antonio Palopó	9	San Antonio Palopo	3	Marzo	2023-03-27T00:00:00	2024-11-08T16:00:00	6	Velocidad del viento	9.7
161850	7	Sololá	712	San Antonio Palopó	9	San Antonio Palopo	3	Marzo	2023-03-27T00:00:00	2024-11-08T16:00:00	7	Dirección del viento	9.66
161851	7	Sololá	712	San Antonio Palopó	9	San Antonio Palopo	3	Marzo	2023-03-27T00:00:00	2024-11-08T16:00:00	1	Precipitación	0
161852	7	Sololá	712	San Antonio Palopó	9	San Antonio Palopo	3	Marzo	2023-03-27T00:00:00	2024-11-08T16:00:00	8	Radiación solar	570
161853	7	Sololá	712	San Antonio Palopó	9	San Antonio Palopo	3	Marzo	2023-03-27T00:00:00	2024-11-08T17:00:00	2	Temperatura media	22.2
161854	7	Sololá	712	San Antonio Palopó	9	San Antonio Palopo	3	Marzo	2023-03-27T00:00:00	2024-11-08T17:00:00	4	Temperatura máxima	23.1
161855	7	Sololá	712	San Antonio Palopó	9	San Antonio Palopo	3	Marzo	2023-03-27T00:00:00	2024-11-08T17:00:00	3	Temperatura mínima	22.1
161856	7	Sololá	712	San Antonio Palopó	9	San Antonio Palopo	3	Marzo	2023-03-27T00:00:00	2024-11-08T17:00:00	5	Humedad	73
161857	7	Sololá	712	San Antonio Palopó	9	San Antonio Palopo	3	Marzo	2023-03-27T00:00:00	2024-11-08T17:00:00	6	Velocidad del viento	9.7
161858	7	Sololá	712	San Antonio Palopó	9	San Antonio Palopo	3	Marzo	2023-03-27T00:00:00	2024-11-08T17:00:00	7	Dirección del viento	9.66
161859	7	Sololá	712	San Antonio Palopó	9	San Antonio Palopo	3	Marzo	2023-03-27T00:00:00	2024-11-08T17:00:00	1	Precipitación	0
161860	7	Sololá	712	San Antonio Palopó	9	San Antonio Palopo	3	Marzo	2023-03-27T00:00:00	2024-11-08T17:00:00	8	Radiación solar	353
161861	7	Sololá	712	San Antonio Palopó	9	San Antonio Palopo	3	Marzo	2023-03-27T00:00:00	2024-11-08T18:00:00	2	Temperatura media	21.4
161862	7	Sololá	712	San Antonio Palopó	9	San Antonio Palopo	3	Marzo	2023-03-27T00:00:00	2024-11-08T18:00:00	4	Temperatura máxima	22.2
161863	7	Sololá	712	San Antonio Palopó	9	San Antonio Palopo	3	Marzo	2023-03-27T00:00:00	2024-11-08T18:00:00	3	Temperatura mínima	21.4
161864	7	Sololá	712	San Antonio Palopó	9	San Antonio Palopo	3	Marzo	2023-03-27T00:00:00	2024-11-08T18:00:00	5	Humedad	78
161865	7	Sololá	712	San Antonio Palopó	9	San Antonio Palopo	3	Marzo	2023-03-27T00:00:00	2024-11-08T18:00:00	6	Velocidad del viento	6.4
161866	7	Sololá	712	San Antonio Palopó	9	San Antonio Palopo	3	Marzo	2023-03-27T00:00:00	2024-11-08T18:00:00	7	Dirección del viento	6.44
161867	7	Sololá	712	San Antonio Palopó	9	San Antonio Palopo	3	Marzo	2023-03-27T00:00:00	2024-11-08T18:00:00	1	Precipitación	0
161868	7	Sololá	712	San Antonio Palopó	9	San Antonio Palopo	3	Marzo	2023-03-27T00:00:00	2024-11-08T18:00:00	8	Radiación solar	117
161869	7	Sololá	712	San Antonio Palopó	9	San Antonio Palopo	3	Marzo	2023-03-27T00:00:00	2024-11-08T19:00:00	2	Temperatura media	20.4
161870	7	Sololá	712	San Antonio Palopó	9	San Antonio Palopo	3	Marzo	2023-03-27T00:00:00	2024-11-08T19:00:00	4	Temperatura máxima	21.4
161871	7	Sololá	712	San Antonio Palopó	9	San Antonio Palopo	3	Marzo	2023-03-27T00:00:00	2024-11-08T19:00:00	3	Temperatura mínima	20.4
161872	7	Sololá	712	San Antonio Palopó	9	San Antonio Palopo	3	Marzo	2023-03-27T00:00:00	2024-11-08T19:00:00	5	Humedad	81
161873	7	Sololá	712	San Antonio Palopó	9	San Antonio Palopo	3	Marzo	2023-03-27T00:00:00	2024-11-08T19:00:00	6	Velocidad del viento	3.2
161874	7	Sololá	712	San Antonio Palopó	9	San Antonio Palopo	3	Marzo	2023-03-27T00:00:00	2024-11-08T19:00:00	7	Dirección del viento	3.22
161875	7	Sololá	712	San Antonio Palopó	9	San Antonio Palopo	3	Marzo	2023-03-27T00:00:00	2024-11-08T19:00:00	1	Precipitación	0
161876	7	Sololá	712	San Antonio Palopó	9	San Antonio Palopo	3	Marzo	2023-03-27T00:00:00	2024-11-08T19:00:00	8	Radiación solar	0
161877	7	Sololá	712	San Antonio Palopó	9	San Antonio Palopo	3	Marzo	2023-03-27T00:00:00	2024-11-08T20:00:00	2	Temperatura media	20.1
161878	7	Sololá	712	San Antonio Palopó	9	San Antonio Palopo	3	Marzo	2023-03-27T00:00:00	2024-11-08T20:00:00	4	Temperatura máxima	20.4
161879	7	Sololá	712	San Antonio Palopó	9	San Antonio Palopo	3	Marzo	2023-03-27T00:00:00	2024-11-08T20:00:00	3	Temperatura mínima	20
161880	7	Sololá	712	San Antonio Palopó	9	San Antonio Palopo	3	Marzo	2023-03-27T00:00:00	2024-11-08T20:00:00	5	Humedad	82
161881	7	Sololá	712	San Antonio Palopó	9	San Antonio Palopo	3	Marzo	2023-03-27T00:00:00	2024-11-08T20:00:00	6	Velocidad del viento	1.6
161882	7	Sololá	712	San Antonio Palopó	9	San Antonio Palopo	3	Marzo	2023-03-27T00:00:00	2024-11-08T20:00:00	7	Dirección del viento	1.61
161883	7	Sololá	712	San Antonio Palopó	9	San Antonio Palopo	3	Marzo	2023-03-27T00:00:00	2024-11-08T20:00:00	1	Precipitación	0
161884	7	Sololá	712	San Antonio Palopó	9	San Antonio Palopo	3	Marzo	2023-03-27T00:00:00	2024-11-08T20:00:00	8	Radiación solar	0
161885	7	Sololá	712	San Antonio Palopó	9	San Antonio Palopo	3	Marzo	2023-03-27T00:00:00	2024-11-08T21:00:00	2	Temperatura media	19.4
161886	7	Sololá	712	San Antonio Palopó	9	San Antonio Palopo	3	Marzo	2023-03-27T00:00:00	2024-11-08T21:00:00	4	Temperatura máxima	20.1
161887	7	Sololá	712	San Antonio Palopó	9	San Antonio Palopo	3	Marzo	2023-03-27T00:00:00	2024-11-08T21:00:00	3	Temperatura mínima	19.4
161888	7	Sololá	712	San Antonio Palopó	9	San Antonio Palopo	3	Marzo	2023-03-27T00:00:00	2024-11-08T21:00:00	5	Humedad	80
161889	7	Sololá	712	San Antonio Palopó	9	San Antonio Palopo	3	Marzo	2023-03-27T00:00:00	2024-11-08T21:00:00	6	Velocidad del viento	3.2
161890	7	Sololá	712	San Antonio Palopó	9	San Antonio Palopo	3	Marzo	2023-03-27T00:00:00	2024-11-08T21:00:00	7	Dirección del viento	3.22
161891	7	Sololá	712	San Antonio Palopó	9	San Antonio Palopo	3	Marzo	2023-03-27T00:00:00	2024-11-08T21:00:00	1	Precipitación	0
161892	7	Sololá	712	San Antonio Palopó	9	San Antonio Palopo	3	Marzo	2023-03-27T00:00:00	2024-11-08T21:00:00	8	Radiación solar	0
161893	7	Sololá	712	San Antonio Palopó	9	San Antonio Palopo	3	Marzo	2023-03-27T00:00:00	2024-11-08T22:00:00	2	Temperatura media	18.9
161894	7	Sololá	712	San Antonio Palopó	9	San Antonio Palopo	3	Marzo	2023-03-27T00:00:00	2024-11-08T22:00:00	4	Temperatura máxima	19.4
161895	7	Sololá	712	San Antonio Palopó	9	San Antonio Palopo	3	Marzo	2023-03-27T00:00:00	2024-11-08T22:00:00	3	Temperatura mínima	18.9
161896	7	Sololá	712	San Antonio Palopó	9	San Antonio Palopo	3	Marzo	2023-03-27T00:00:00	2024-11-08T22:00:00	5	Humedad	80
161897	7	Sololá	712	San Antonio Palopó	9	San Antonio Palopo	3	Marzo	2023-03-27T00:00:00	2024-11-08T22:00:00	6	Velocidad del viento	3.2
161898	7	Sololá	712	San Antonio Palopó	9	San Antonio Palopo	3	Marzo	2023-03-27T00:00:00	2024-11-08T22:00:00	7	Dirección del viento	3.22
161899	7	Sololá	712	San Antonio Palopó	9	San Antonio Palopo	3	Marzo	2023-03-27T00:00:00	2024-11-08T22:00:00	1	Precipitación	0
161900	7	Sololá	712	San Antonio Palopó	9	San Antonio Palopo	3	Marzo	2023-03-27T00:00:00	2024-11-08T22:00:00	8	Radiación solar	0
161901	7	Sololá	712	San Antonio Palopó	9	San Antonio Palopo	3	Marzo	2023-03-27T00:00:00	2024-11-08T23:00:00	2	Temperatura media	18.4
161902	7	Sololá	712	San Antonio Palopó	9	San Antonio Palopo	3	Marzo	2023-03-27T00:00:00	2024-11-08T23:00:00	4	Temperatura máxima	18.9
161903	7	Sololá	712	San Antonio Palopó	9	San Antonio Palopo	3	Marzo	2023-03-27T00:00:00	2024-11-08T23:00:00	3	Temperatura mínima	18.3
161904	7	Sololá	712	San Antonio Palopó	9	San Antonio Palopo	3	Marzo	2023-03-27T00:00:00	2024-11-08T23:00:00	5	Humedad	80
161905	7	Sololá	712	San Antonio Palopó	9	San Antonio Palopo	3	Marzo	2023-03-27T00:00:00	2024-11-08T23:00:00	6	Velocidad del viento	1.6
161906	7	Sololá	712	San Antonio Palopó	9	San Antonio Palopo	3	Marzo	2023-03-27T00:00:00	2024-11-08T23:00:00	7	Dirección del viento	1.61
161907	7	Sololá	712	San Antonio Palopó	9	San Antonio Palopo	3	Marzo	2023-03-27T00:00:00	2024-11-08T23:00:00	1	Precipitación	0
161908	7	Sololá	712	San Antonio Palopó	9	San Antonio Palopo	3	Marzo	2023-03-27T00:00:00	2024-11-08T23:00:00	8	Radiación solar	0
161909	7	Sololá	712	San Antonio Palopó	9	San Antonio Palopo	3	Marzo	2023-03-28T00:00:00	2024-11-08T00:00:00	2	Temperatura media	18.7
161910	7	Sololá	712	San Antonio Palopó	9	San Antonio Palopo	3	Marzo	2023-03-28T00:00:00	2024-11-08T00:00:00	4	Temperatura máxima	18.7
161911	7	Sololá	712	San Antonio Palopó	9	San Antonio Palopo	3	Marzo	2023-03-28T00:00:00	2024-11-08T00:00:00	3	Temperatura mínima	18.3
161912	7	Sololá	712	San Antonio Palopó	9	San Antonio Palopo	3	Marzo	2023-03-28T00:00:00	2024-11-08T00:00:00	5	Humedad	78
161913	7	Sololá	712	San Antonio Palopó	9	San Antonio Palopo	3	Marzo	2023-03-28T00:00:00	2024-11-08T00:00:00	6	Velocidad del viento	3.2
161914	7	Sololá	712	San Antonio Palopó	9	San Antonio Palopo	3	Marzo	2023-03-28T00:00:00	2024-11-08T00:00:00	7	Dirección del viento	3.22
161915	7	Sololá	712	San Antonio Palopó	9	San Antonio Palopo	3	Marzo	2023-03-28T00:00:00	2024-11-08T00:00:00	1	Precipitación	0
161916	7	Sololá	712	San Antonio Palopó	9	San Antonio Palopo	3	Marzo	2023-03-28T00:00:00	2024-11-08T00:00:00	8	Radiación solar	0
161917	7	Sololá	712	San Antonio Palopó	9	San Antonio Palopo	3	Marzo	2023-03-28T00:00:00	2024-11-08T01:00:00	2	Temperatura media	18.2
161918	7	Sololá	712	San Antonio Palopó	9	San Antonio Palopo	3	Marzo	2023-03-28T00:00:00	2024-11-08T01:00:00	4	Temperatura máxima	18.7
161919	7	Sololá	712	San Antonio Palopó	9	San Antonio Palopo	3	Marzo	2023-03-28T00:00:00	2024-11-08T01:00:00	3	Temperatura mínima	17.6
161920	7	Sololá	712	San Antonio Palopó	9	San Antonio Palopo	3	Marzo	2023-03-28T00:00:00	2024-11-08T01:00:00	5	Humedad	78
161921	7	Sololá	712	San Antonio Palopó	9	San Antonio Palopo	3	Marzo	2023-03-28T00:00:00	2024-11-08T01:00:00	6	Velocidad del viento	3.2
161922	7	Sololá	712	San Antonio Palopó	9	San Antonio Palopo	3	Marzo	2023-03-28T00:00:00	2024-11-08T01:00:00	7	Dirección del viento	3.22
161923	7	Sololá	712	San Antonio Palopó	9	San Antonio Palopo	3	Marzo	2023-03-28T00:00:00	2024-11-08T01:00:00	1	Precipitación	0
161924	7	Sololá	712	San Antonio Palopó	9	San Antonio Palopo	3	Marzo	2023-03-28T00:00:00	2024-11-08T01:00:00	8	Radiación solar	0
161925	7	Sololá	712	San Antonio Palopó	9	San Antonio Palopo	3	Marzo	2023-03-28T00:00:00	2024-11-08T02:00:00	2	Temperatura media	18.1
161926	7	Sololá	712	San Antonio Palopó	9	San Antonio Palopo	3	Marzo	2023-03-28T00:00:00	2024-11-08T02:00:00	4	Temperatura máxima	18.7
161927	7	Sololá	712	San Antonio Palopó	9	San Antonio Palopo	3	Marzo	2023-03-28T00:00:00	2024-11-08T02:00:00	3	Temperatura mínima	18.1
161928	7	Sololá	712	San Antonio Palopó	9	San Antonio Palopo	3	Marzo	2023-03-28T00:00:00	2024-11-08T02:00:00	5	Humedad	81
161929	7	Sololá	712	San Antonio Palopó	9	San Antonio Palopo	3	Marzo	2023-03-28T00:00:00	2024-11-08T02:00:00	6	Velocidad del viento	4.8
161930	7	Sololá	712	San Antonio Palopó	9	San Antonio Palopo	3	Marzo	2023-03-28T00:00:00	2024-11-08T02:00:00	7	Dirección del viento	4.83
161931	7	Sololá	712	San Antonio Palopó	9	San Antonio Palopo	3	Marzo	2023-03-28T00:00:00	2024-11-08T02:00:00	1	Precipitación	0
161932	7	Sololá	712	San Antonio Palopó	9	San Antonio Palopo	3	Marzo	2023-03-28T00:00:00	2024-11-08T02:00:00	8	Radiación solar	0
161933	7	Sololá	712	San Antonio Palopó	9	San Antonio Palopo	3	Marzo	2023-03-28T00:00:00	2024-11-08T03:00:00	2	Temperatura media	17.9
161934	7	Sololá	712	San Antonio Palopó	9	San Antonio Palopo	3	Marzo	2023-03-28T00:00:00	2024-11-08T03:00:00	4	Temperatura máxima	18.3
161935	7	Sololá	712	San Antonio Palopó	9	San Antonio Palopo	3	Marzo	2023-03-28T00:00:00	2024-11-08T03:00:00	3	Temperatura mínima	17.9
161936	7	Sololá	712	San Antonio Palopó	9	San Antonio Palopo	3	Marzo	2023-03-28T00:00:00	2024-11-08T03:00:00	5	Humedad	76
161937	7	Sololá	712	San Antonio Palopó	9	San Antonio Palopo	3	Marzo	2023-03-28T00:00:00	2024-11-08T03:00:00	6	Velocidad del viento	3.2
161938	7	Sololá	712	San Antonio Palopó	9	San Antonio Palopo	3	Marzo	2023-03-28T00:00:00	2024-11-08T03:00:00	7	Dirección del viento	3.22
161939	7	Sololá	712	San Antonio Palopó	9	San Antonio Palopo	3	Marzo	2023-03-28T00:00:00	2024-11-08T03:00:00	1	Precipitación	0
161940	7	Sololá	712	San Antonio Palopó	9	San Antonio Palopo	3	Marzo	2023-03-28T00:00:00	2024-11-08T03:00:00	8	Radiación solar	0
161941	7	Sololá	712	San Antonio Palopó	9	San Antonio Palopo	3	Marzo	2023-03-28T00:00:00	2024-11-08T04:00:00	2	Temperatura media	17.9
161942	7	Sololá	712	San Antonio Palopó	9	San Antonio Palopo	3	Marzo	2023-03-28T00:00:00	2024-11-08T04:00:00	4	Temperatura máxima	18.4
161943	7	Sololá	712	San Antonio Palopó	9	San Antonio Palopo	3	Marzo	2023-03-28T00:00:00	2024-11-08T04:00:00	3	Temperatura mínima	17.9
161944	7	Sololá	712	San Antonio Palopó	9	San Antonio Palopo	3	Marzo	2023-03-28T00:00:00	2024-11-08T04:00:00	5	Humedad	75
161945	7	Sololá	712	San Antonio Palopó	9	San Antonio Palopo	3	Marzo	2023-03-28T00:00:00	2024-11-08T04:00:00	6	Velocidad del viento	3.2
161946	7	Sololá	712	San Antonio Palopó	9	San Antonio Palopo	3	Marzo	2023-03-28T00:00:00	2024-11-08T04:00:00	7	Dirección del viento	3.22
161947	7	Sololá	712	San Antonio Palopó	9	San Antonio Palopo	3	Marzo	2023-03-28T00:00:00	2024-11-08T04:00:00	1	Precipitación	0
161948	7	Sololá	712	San Antonio Palopó	9	San Antonio Palopo	3	Marzo	2023-03-28T00:00:00	2024-11-08T04:00:00	8	Radiación solar	0
161949	7	Sololá	712	San Antonio Palopó	9	San Antonio Palopo	3	Marzo	2023-03-28T00:00:00	2024-11-08T05:00:00	2	Temperatura media	17.4
161950	7	Sololá	712	San Antonio Palopó	9	San Antonio Palopo	3	Marzo	2023-03-28T00:00:00	2024-11-08T05:00:00	4	Temperatura máxima	18
161951	7	Sololá	712	San Antonio Palopó	9	San Antonio Palopo	3	Marzo	2023-03-28T00:00:00	2024-11-08T05:00:00	3	Temperatura mínima	17.3
161952	7	Sololá	712	San Antonio Palopó	9	San Antonio Palopo	3	Marzo	2023-03-28T00:00:00	2024-11-08T05:00:00	5	Humedad	77
161953	7	Sololá	712	San Antonio Palopó	9	San Antonio Palopo	3	Marzo	2023-03-28T00:00:00	2024-11-08T05:00:00	6	Velocidad del viento	1.6
161954	7	Sololá	712	San Antonio Palopó	9	San Antonio Palopo	3	Marzo	2023-03-28T00:00:00	2024-11-08T05:00:00	7	Dirección del viento	1.61
161955	7	Sololá	712	San Antonio Palopó	9	San Antonio Palopo	3	Marzo	2023-03-28T00:00:00	2024-11-08T05:00:00	1	Precipitación	0
161956	7	Sololá	712	San Antonio Palopó	9	San Antonio Palopo	3	Marzo	2023-03-28T00:00:00	2024-11-08T05:00:00	8	Radiación solar	0
161957	7	Sololá	712	San Antonio Palopó	9	San Antonio Palopo	3	Marzo	2023-03-28T00:00:00	2024-11-08T06:00:00	2	Temperatura media	17.6
161958	7	Sololá	712	San Antonio Palopó	9	San Antonio Palopo	3	Marzo	2023-03-28T00:00:00	2024-11-08T06:00:00	4	Temperatura máxima	17.7
161959	7	Sololá	712	San Antonio Palopó	9	San Antonio Palopo	3	Marzo	2023-03-28T00:00:00	2024-11-08T06:00:00	3	Temperatura mínima	17.3
161960	7	Sololá	712	San Antonio Palopó	9	San Antonio Palopo	3	Marzo	2023-03-28T00:00:00	2024-11-08T06:00:00	5	Humedad	77
161961	7	Sololá	712	San Antonio Palopó	9	San Antonio Palopo	3	Marzo	2023-03-28T00:00:00	2024-11-08T06:00:00	6	Velocidad del viento	1.6
161962	7	Sololá	712	San Antonio Palopó	9	San Antonio Palopo	3	Marzo	2023-03-28T00:00:00	2024-11-08T06:00:00	7	Dirección del viento	1.61
161963	7	Sololá	712	San Antonio Palopó	9	San Antonio Palopo	3	Marzo	2023-03-28T00:00:00	2024-11-08T06:00:00	1	Precipitación	0
161964	7	Sololá	712	San Antonio Palopó	9	San Antonio Palopo	3	Marzo	2023-03-28T00:00:00	2024-11-08T06:00:00	8	Radiación solar	0
161965	7	Sololá	712	San Antonio Palopó	9	San Antonio Palopo	3	Marzo	2023-03-28T00:00:00	2024-11-08T07:00:00	2	Temperatura media	17.6
161966	7	Sololá	712	San Antonio Palopó	9	San Antonio Palopo	3	Marzo	2023-03-28T00:00:00	2024-11-08T07:00:00	4	Temperatura máxima	17.8
161967	7	Sololá	712	San Antonio Palopó	9	San Antonio Palopo	3	Marzo	2023-03-28T00:00:00	2024-11-08T07:00:00	3	Temperatura mínima	17.6
161968	7	Sololá	712	San Antonio Palopó	9	San Antonio Palopo	3	Marzo	2023-03-28T00:00:00	2024-11-08T07:00:00	5	Humedad	80
161969	7	Sololá	712	San Antonio Palopó	9	San Antonio Palopo	3	Marzo	2023-03-28T00:00:00	2024-11-08T07:00:00	6	Velocidad del viento	1.6
161970	7	Sololá	712	San Antonio Palopó	9	San Antonio Palopo	3	Marzo	2023-03-28T00:00:00	2024-11-08T07:00:00	7	Dirección del viento	1.61
161971	7	Sololá	712	San Antonio Palopó	9	San Antonio Palopo	3	Marzo	2023-03-28T00:00:00	2024-11-08T07:00:00	1	Precipitación	0
161972	7	Sololá	712	San Antonio Palopó	9	San Antonio Palopo	3	Marzo	2023-03-28T00:00:00	2024-11-08T07:00:00	8	Radiación solar	26
161973	7	Sololá	712	San Antonio Palopó	9	San Antonio Palopo	3	Marzo	2023-03-28T00:00:00	2024-11-08T08:00:00	2	Temperatura media	18.5
161974	7	Sololá	712	San Antonio Palopó	9	San Antonio Palopo	3	Marzo	2023-03-28T00:00:00	2024-11-08T08:00:00	4	Temperatura máxima	18.5
161975	7	Sololá	712	San Antonio Palopó	9	San Antonio Palopo	3	Marzo	2023-03-28T00:00:00	2024-11-08T08:00:00	3	Temperatura mínima	17.6
161976	7	Sololá	712	San Antonio Palopó	9	San Antonio Palopo	3	Marzo	2023-03-28T00:00:00	2024-11-08T08:00:00	5	Humedad	79
161977	7	Sololá	712	San Antonio Palopó	9	San Antonio Palopo	3	Marzo	2023-03-28T00:00:00	2024-11-08T08:00:00	6	Velocidad del viento	1.6
161978	7	Sololá	712	San Antonio Palopó	9	San Antonio Palopo	3	Marzo	2023-03-28T00:00:00	2024-11-08T08:00:00	7	Dirección del viento	1.61
161979	7	Sololá	712	San Antonio Palopó	9	San Antonio Palopo	3	Marzo	2023-03-28T00:00:00	2024-11-08T08:00:00	1	Precipitación	0
161980	7	Sololá	712	San Antonio Palopó	9	San Antonio Palopo	3	Marzo	2023-03-28T00:00:00	2024-11-08T08:00:00	8	Radiación solar	95
161981	7	Sololá	712	San Antonio Palopó	9	San Antonio Palopo	3	Marzo	2023-03-28T00:00:00	2024-11-08T09:00:00	2	Temperatura media	19.4
161982	7	Sololá	712	San Antonio Palopó	9	San Antonio Palopo	3	Marzo	2023-03-28T00:00:00	2024-11-08T09:00:00	4	Temperatura máxima	20.3
161983	7	Sololá	712	San Antonio Palopó	9	San Antonio Palopo	3	Marzo	2023-03-28T00:00:00	2024-11-08T09:00:00	3	Temperatura mínima	18.5
161984	7	Sololá	712	San Antonio Palopó	9	San Antonio Palopo	3	Marzo	2023-03-28T00:00:00	2024-11-08T09:00:00	5	Humedad	77
161985	7	Sololá	712	San Antonio Palopó	9	San Antonio Palopo	3	Marzo	2023-03-28T00:00:00	2024-11-08T09:00:00	6	Velocidad del viento	1.6
161986	7	Sololá	712	San Antonio Palopó	9	San Antonio Palopo	3	Marzo	2023-03-28T00:00:00	2024-11-08T09:00:00	7	Dirección del viento	1.61
161987	7	Sololá	712	San Antonio Palopó	9	San Antonio Palopo	3	Marzo	2023-03-28T00:00:00	2024-11-08T09:00:00	1	Precipitación	0
161988	7	Sololá	712	San Antonio Palopó	9	San Antonio Palopo	3	Marzo	2023-03-28T00:00:00	2024-11-08T09:00:00	8	Radiación solar	228
161989	7	Sololá	712	San Antonio Palopó	9	San Antonio Palopo	3	Marzo	2023-03-28T00:00:00	2024-11-08T10:00:00	2	Temperatura media	20.9
161990	7	Sololá	712	San Antonio Palopó	9	San Antonio Palopo	3	Marzo	2023-03-28T00:00:00	2024-11-08T10:00:00	4	Temperatura máxima	21.5
161991	7	Sololá	712	San Antonio Palopó	9	San Antonio Palopo	3	Marzo	2023-03-28T00:00:00	2024-11-08T10:00:00	3	Temperatura mínima	19.4
161992	7	Sololá	712	San Antonio Palopó	9	San Antonio Palopo	3	Marzo	2023-03-28T00:00:00	2024-11-08T10:00:00	5	Humedad	73
161993	7	Sololá	712	San Antonio Palopó	9	San Antonio Palopo	3	Marzo	2023-03-28T00:00:00	2024-11-08T10:00:00	6	Velocidad del viento	3.2
161994	7	Sololá	712	San Antonio Palopó	9	San Antonio Palopo	3	Marzo	2023-03-28T00:00:00	2024-11-08T10:00:00	7	Dirección del viento	3.22
161995	7	Sololá	712	San Antonio Palopó	9	San Antonio Palopo	3	Marzo	2023-03-28T00:00:00	2024-11-08T10:00:00	1	Precipitación	0
161996	7	Sololá	712	San Antonio Palopó	9	San Antonio Palopo	3	Marzo	2023-03-28T00:00:00	2024-11-08T10:00:00	8	Radiación solar	549
161997	7	Sololá	712	San Antonio Palopó	9	San Antonio Palopo	3	Marzo	2023-03-28T00:00:00	2024-11-08T11:00:00	2	Temperatura media	23
161998	7	Sololá	712	San Antonio Palopó	9	San Antonio Palopo	3	Marzo	2023-03-28T00:00:00	2024-11-08T11:00:00	4	Temperatura máxima	23.1
161999	7	Sololá	712	San Antonio Palopó	9	San Antonio Palopo	3	Marzo	2023-03-28T00:00:00	2024-11-08T11:00:00	3	Temperatura mínima	20.5
162000	7	Sololá	712	San Antonio Palopó	9	San Antonio Palopo	3	Marzo	2023-03-28T00:00:00	2024-11-08T11:00:00	5	Humedad	70
162001	7	Sololá	712	San Antonio Palopó	9	San Antonio Palopo	3	Marzo	2023-03-28T00:00:00	2024-11-08T11:00:00	6	Velocidad del viento	4.8
162002	7	Sololá	712	San Antonio Palopó	9	San Antonio Palopo	3	Marzo	2023-03-28T00:00:00	2024-11-08T11:00:00	7	Dirección del viento	4.83
162003	7	Sololá	712	San Antonio Palopó	9	San Antonio Palopo	3	Marzo	2023-03-28T00:00:00	2024-11-08T11:00:00	1	Precipitación	0
162004	7	Sololá	712	San Antonio Palopó	9	San Antonio Palopo	3	Marzo	2023-03-28T00:00:00	2024-11-08T11:00:00	8	Radiación solar	828
162005	7	Sololá	712	San Antonio Palopó	9	San Antonio Palopo	3	Marzo	2023-03-28T00:00:00	2024-11-08T12:00:00	2	Temperatura media	23.3
162006	7	Sololá	712	San Antonio Palopó	9	San Antonio Palopo	3	Marzo	2023-03-28T00:00:00	2024-11-08T12:00:00	4	Temperatura máxima	23.4
162007	7	Sololá	712	San Antonio Palopó	9	San Antonio Palopo	3	Marzo	2023-03-28T00:00:00	2024-11-08T12:00:00	3	Temperatura mínima	22.6
162008	7	Sololá	712	San Antonio Palopó	9	San Antonio Palopo	3	Marzo	2023-03-28T00:00:00	2024-11-08T12:00:00	5	Humedad	69
162009	7	Sololá	712	San Antonio Palopó	9	San Antonio Palopo	3	Marzo	2023-03-28T00:00:00	2024-11-08T12:00:00	6	Velocidad del viento	8
162010	7	Sololá	712	San Antonio Palopó	9	San Antonio Palopo	3	Marzo	2023-03-28T00:00:00	2024-11-08T12:00:00	7	Dirección del viento	8.05
162011	7	Sololá	712	San Antonio Palopó	9	San Antonio Palopo	3	Marzo	2023-03-28T00:00:00	2024-11-08T12:00:00	1	Precipitación	0
162012	7	Sololá	712	San Antonio Palopó	9	San Antonio Palopo	3	Marzo	2023-03-28T00:00:00	2024-11-08T12:00:00	8	Radiación solar	931
162013	7	Sololá	712	San Antonio Palopó	9	San Antonio Palopo	3	Marzo	2023-03-28T00:00:00	2024-11-08T13:00:00	2	Temperatura media	23.2
162014	7	Sololá	712	San Antonio Palopó	9	San Antonio Palopo	3	Marzo	2023-03-28T00:00:00	2024-11-08T13:00:00	4	Temperatura máxima	23.6
162015	7	Sololá	712	San Antonio Palopó	9	San Antonio Palopo	3	Marzo	2023-03-28T00:00:00	2024-11-08T13:00:00	3	Temperatura mínima	23.1
162016	7	Sololá	712	San Antonio Palopó	9	San Antonio Palopo	3	Marzo	2023-03-28T00:00:00	2024-11-08T13:00:00	5	Humedad	70
162017	7	Sololá	712	San Antonio Palopó	9	San Antonio Palopo	3	Marzo	2023-03-28T00:00:00	2024-11-08T13:00:00	6	Velocidad del viento	9.7
162018	7	Sololá	712	San Antonio Palopó	9	San Antonio Palopo	3	Marzo	2023-03-28T00:00:00	2024-11-08T13:00:00	7	Dirección del viento	9.66
162019	7	Sololá	712	San Antonio Palopó	9	San Antonio Palopo	3	Marzo	2023-03-28T00:00:00	2024-11-08T13:00:00	1	Precipitación	0
162020	7	Sololá	712	San Antonio Palopó	9	San Antonio Palopo	3	Marzo	2023-03-28T00:00:00	2024-11-08T13:00:00	8	Radiación solar	946
162021	7	Sololá	712	San Antonio Palopó	9	San Antonio Palopo	3	Marzo	2023-03-28T00:00:00	2024-11-08T14:00:00	2	Temperatura media	23.3
162022	7	Sololá	712	San Antonio Palopó	9	San Antonio Palopo	3	Marzo	2023-03-28T00:00:00	2024-11-08T14:00:00	4	Temperatura máxima	23.4
162023	7	Sololá	712	San Antonio Palopó	9	San Antonio Palopo	3	Marzo	2023-03-28T00:00:00	2024-11-08T14:00:00	3	Temperatura mínima	22.8
162024	7	Sololá	712	San Antonio Palopó	9	San Antonio Palopo	3	Marzo	2023-03-28T00:00:00	2024-11-08T14:00:00	5	Humedad	69
162025	7	Sololá	712	San Antonio Palopó	9	San Antonio Palopo	3	Marzo	2023-03-28T00:00:00	2024-11-08T14:00:00	6	Velocidad del viento	9.7
162026	7	Sololá	712	San Antonio Palopó	9	San Antonio Palopo	3	Marzo	2023-03-28T00:00:00	2024-11-08T14:00:00	7	Dirección del viento	9.66
162027	7	Sololá	712	San Antonio Palopó	9	San Antonio Palopo	3	Marzo	2023-03-28T00:00:00	2024-11-08T14:00:00	1	Precipitación	0
162028	7	Sololá	712	San Antonio Palopó	9	San Antonio Palopo	3	Marzo	2023-03-28T00:00:00	2024-11-08T14:00:00	8	Radiación solar	866
162029	7	Sololá	712	San Antonio Palopó	9	San Antonio Palopo	3	Marzo	2023-03-28T00:00:00	2024-11-08T15:00:00	2	Temperatura media	23.9
162030	7	Sololá	712	San Antonio Palopó	9	San Antonio Palopo	3	Marzo	2023-03-28T00:00:00	2024-11-08T15:00:00	4	Temperatura máxima	25
162031	7	Sololá	712	San Antonio Palopó	9	San Antonio Palopo	3	Marzo	2023-03-28T00:00:00	2024-11-08T15:00:00	3	Temperatura mínima	23.3
162032	7	Sololá	712	San Antonio Palopó	9	San Antonio Palopo	3	Marzo	2023-03-28T00:00:00	2024-11-08T15:00:00	5	Humedad	68
162033	7	Sololá	712	San Antonio Palopó	9	San Antonio Palopo	3	Marzo	2023-03-28T00:00:00	2024-11-08T15:00:00	6	Velocidad del viento	6.4
162034	7	Sololá	712	San Antonio Palopó	9	San Antonio Palopo	3	Marzo	2023-03-28T00:00:00	2024-11-08T15:00:00	7	Dirección del viento	6.44
162035	7	Sololá	712	San Antonio Palopó	9	San Antonio Palopo	3	Marzo	2023-03-28T00:00:00	2024-11-08T15:00:00	1	Precipitación	0
162036	7	Sololá	712	San Antonio Palopó	9	San Antonio Palopo	3	Marzo	2023-03-28T00:00:00	2024-11-08T15:00:00	8	Radiación solar	738
162037	7	Sololá	712	San Antonio Palopó	9	San Antonio Palopo	3	Marzo	2023-03-28T00:00:00	2024-11-08T16:00:00	2	Temperatura media	23.2
162038	7	Sololá	712	San Antonio Palopó	9	San Antonio Palopo	3	Marzo	2023-03-28T00:00:00	2024-11-08T16:00:00	4	Temperatura máxima	24.6
162039	7	Sololá	712	San Antonio Palopó	9	San Antonio Palopo	3	Marzo	2023-03-28T00:00:00	2024-11-08T16:00:00	3	Temperatura mínima	22.9
162040	7	Sololá	712	San Antonio Palopó	9	San Antonio Palopo	3	Marzo	2023-03-28T00:00:00	2024-11-08T16:00:00	5	Humedad	72
162041	7	Sololá	712	San Antonio Palopó	9	San Antonio Palopo	3	Marzo	2023-03-28T00:00:00	2024-11-08T16:00:00	6	Velocidad del viento	8
162042	7	Sololá	712	San Antonio Palopó	9	San Antonio Palopo	3	Marzo	2023-03-28T00:00:00	2024-11-08T16:00:00	7	Dirección del viento	8.05
162043	7	Sololá	712	San Antonio Palopó	9	San Antonio Palopo	3	Marzo	2023-03-28T00:00:00	2024-11-08T16:00:00	1	Precipitación	0
162044	7	Sololá	712	San Antonio Palopó	9	San Antonio Palopo	3	Marzo	2023-03-28T00:00:00	2024-11-08T16:00:00	8	Radiación solar	535
162045	7	Sololá	712	San Antonio Palopó	9	San Antonio Palopo	3	Marzo	2023-03-28T00:00:00	2024-11-08T17:00:00	2	Temperatura media	22.4
162046	7	Sololá	712	San Antonio Palopó	9	San Antonio Palopo	3	Marzo	2023-03-28T00:00:00	2024-11-08T17:00:00	4	Temperatura máxima	23.4
162047	7	Sololá	712	San Antonio Palopó	9	San Antonio Palopo	3	Marzo	2023-03-28T00:00:00	2024-11-08T17:00:00	3	Temperatura mínima	22.3
162048	7	Sololá	712	San Antonio Palopó	9	San Antonio Palopo	3	Marzo	2023-03-28T00:00:00	2024-11-08T17:00:00	5	Humedad	74
162049	7	Sololá	712	San Antonio Palopó	9	San Antonio Palopo	3	Marzo	2023-03-28T00:00:00	2024-11-08T17:00:00	6	Velocidad del viento	8
162050	7	Sololá	712	San Antonio Palopó	9	San Antonio Palopo	3	Marzo	2023-03-28T00:00:00	2024-11-08T17:00:00	7	Dirección del viento	8.05
162051	7	Sololá	712	San Antonio Palopó	9	San Antonio Palopo	3	Marzo	2023-03-28T00:00:00	2024-11-08T17:00:00	1	Precipitación	0
162052	7	Sololá	712	San Antonio Palopó	9	San Antonio Palopo	3	Marzo	2023-03-28T00:00:00	2024-11-08T17:00:00	8	Radiación solar	327
162053	7	Sololá	712	San Antonio Palopó	9	San Antonio Palopo	3	Marzo	2023-03-28T00:00:00	2024-11-08T18:00:00	2	Temperatura media	21.4
162054	7	Sololá	712	San Antonio Palopó	9	San Antonio Palopo	3	Marzo	2023-03-28T00:00:00	2024-11-08T18:00:00	4	Temperatura máxima	22.7
162055	7	Sololá	712	San Antonio Palopó	9	San Antonio Palopo	3	Marzo	2023-03-28T00:00:00	2024-11-08T18:00:00	3	Temperatura mínima	21.4
162056	7	Sololá	712	San Antonio Palopó	9	San Antonio Palopo	3	Marzo	2023-03-28T00:00:00	2024-11-08T18:00:00	5	Humedad	80
162057	7	Sololá	712	San Antonio Palopó	9	San Antonio Palopo	3	Marzo	2023-03-28T00:00:00	2024-11-08T18:00:00	6	Velocidad del viento	6.4
162058	7	Sololá	712	San Antonio Palopó	9	San Antonio Palopo	3	Marzo	2023-03-28T00:00:00	2024-11-08T18:00:00	7	Dirección del viento	6.44
162059	7	Sololá	712	San Antonio Palopó	9	San Antonio Palopo	3	Marzo	2023-03-28T00:00:00	2024-11-08T18:00:00	1	Precipitación	0
162060	7	Sololá	712	San Antonio Palopó	9	San Antonio Palopo	3	Marzo	2023-03-28T00:00:00	2024-11-08T18:00:00	8	Radiación solar	108
162061	7	Sololá	712	San Antonio Palopó	9	San Antonio Palopo	3	Marzo	2023-03-28T00:00:00	2024-11-08T19:00:00	2	Temperatura media	20.6
162062	7	Sololá	712	San Antonio Palopó	9	San Antonio Palopo	3	Marzo	2023-03-28T00:00:00	2024-11-08T19:00:00	4	Temperatura máxima	21.4
162063	7	Sololá	712	San Antonio Palopó	9	San Antonio Palopo	3	Marzo	2023-03-28T00:00:00	2024-11-08T19:00:00	3	Temperatura mínima	20.6
162064	7	Sololá	712	San Antonio Palopó	9	San Antonio Palopo	3	Marzo	2023-03-28T00:00:00	2024-11-08T19:00:00	5	Humedad	84
162065	7	Sololá	712	San Antonio Palopó	9	San Antonio Palopo	3	Marzo	2023-03-28T00:00:00	2024-11-08T19:00:00	6	Velocidad del viento	4.8
162066	7	Sololá	712	San Antonio Palopó	9	San Antonio Palopo	3	Marzo	2023-03-28T00:00:00	2024-11-08T19:00:00	7	Dirección del viento	4.83
162067	7	Sololá	712	San Antonio Palopó	9	San Antonio Palopo	3	Marzo	2023-03-28T00:00:00	2024-11-08T19:00:00	1	Precipitación	0
162068	7	Sololá	712	San Antonio Palopó	9	San Antonio Palopo	3	Marzo	2023-03-28T00:00:00	2024-11-08T19:00:00	8	Radiación solar	0
162069	7	Sololá	712	San Antonio Palopó	9	San Antonio Palopo	3	Marzo	2023-03-28T00:00:00	2024-11-08T20:00:00	2	Temperatura media	20.3
162070	7	Sololá	712	San Antonio Palopó	9	San Antonio Palopo	3	Marzo	2023-03-28T00:00:00	2024-11-08T20:00:00	4	Temperatura máxima	20.8
162071	7	Sololá	712	San Antonio Palopó	9	San Antonio Palopo	3	Marzo	2023-03-28T00:00:00	2024-11-08T20:00:00	3	Temperatura mínima	20.3
162072	7	Sololá	712	San Antonio Palopó	9	San Antonio Palopo	3	Marzo	2023-03-28T00:00:00	2024-11-08T20:00:00	5	Humedad	85
162073	7	Sololá	712	San Antonio Palopó	9	San Antonio Palopo	3	Marzo	2023-03-28T00:00:00	2024-11-08T20:00:00	6	Velocidad del viento	3.2
162074	7	Sololá	712	San Antonio Palopó	9	San Antonio Palopo	3	Marzo	2023-03-28T00:00:00	2024-11-08T20:00:00	7	Dirección del viento	3.22
162075	7	Sololá	712	San Antonio Palopó	9	San Antonio Palopo	3	Marzo	2023-03-28T00:00:00	2024-11-08T20:00:00	1	Precipitación	0
162076	7	Sololá	712	San Antonio Palopó	9	San Antonio Palopo	3	Marzo	2023-03-28T00:00:00	2024-11-08T20:00:00	8	Radiación solar	0
162077	7	Sololá	712	San Antonio Palopó	9	San Antonio Palopo	3	Marzo	2023-03-28T00:00:00	2024-11-08T21:00:00	2	Temperatura media	19.9
162078	7	Sololá	712	San Antonio Palopó	9	San Antonio Palopo	3	Marzo	2023-03-28T00:00:00	2024-11-08T21:00:00	4	Temperatura máxima	20.3
162079	7	Sololá	712	San Antonio Palopó	9	San Antonio Palopo	3	Marzo	2023-03-28T00:00:00	2024-11-08T21:00:00	3	Temperatura mínima	19.9
162080	7	Sololá	712	San Antonio Palopó	9	San Antonio Palopo	3	Marzo	2023-03-28T00:00:00	2024-11-08T21:00:00	5	Humedad	83
162081	7	Sololá	712	San Antonio Palopó	9	San Antonio Palopo	3	Marzo	2023-03-28T00:00:00	2024-11-08T21:00:00	6	Velocidad del viento	1.6
162082	7	Sololá	712	San Antonio Palopó	9	San Antonio Palopo	3	Marzo	2023-03-28T00:00:00	2024-11-08T21:00:00	7	Dirección del viento	1.61
162083	7	Sololá	712	San Antonio Palopó	9	San Antonio Palopo	3	Marzo	2023-03-28T00:00:00	2024-11-08T21:00:00	1	Precipitación	0
162084	7	Sololá	712	San Antonio Palopó	9	San Antonio Palopo	3	Marzo	2023-03-28T00:00:00	2024-11-08T21:00:00	8	Radiación solar	0
162085	7	Sololá	712	San Antonio Palopó	9	San Antonio Palopo	3	Marzo	2023-03-28T00:00:00	2024-11-08T22:00:00	2	Temperatura media	19.6
162086	7	Sololá	712	San Antonio Palopó	9	San Antonio Palopo	3	Marzo	2023-03-28T00:00:00	2024-11-08T22:00:00	4	Temperatura máxima	20
162087	7	Sololá	712	San Antonio Palopó	9	San Antonio Palopo	3	Marzo	2023-03-28T00:00:00	2024-11-08T22:00:00	3	Temperatura mínima	19.4
162088	7	Sololá	712	San Antonio Palopó	9	San Antonio Palopo	3	Marzo	2023-03-28T00:00:00	2024-11-08T22:00:00	5	Humedad	85
162089	7	Sololá	712	San Antonio Palopó	9	San Antonio Palopo	3	Marzo	2023-03-28T00:00:00	2024-11-08T22:00:00	6	Velocidad del viento	1.6
162090	7	Sololá	712	San Antonio Palopó	9	San Antonio Palopo	3	Marzo	2023-03-28T00:00:00	2024-11-08T22:00:00	7	Dirección del viento	1.61
162091	7	Sololá	712	San Antonio Palopó	9	San Antonio Palopo	3	Marzo	2023-03-28T00:00:00	2024-11-08T22:00:00	1	Precipitación	0
162092	7	Sololá	712	San Antonio Palopó	9	San Antonio Palopo	3	Marzo	2023-03-28T00:00:00	2024-11-08T22:00:00	8	Radiación solar	0
162093	7	Sololá	712	San Antonio Palopó	9	San Antonio Palopo	3	Marzo	2023-03-28T00:00:00	2024-11-08T23:00:00	2	Temperatura media	20.4
162094	7	Sololá	712	San Antonio Palopó	9	San Antonio Palopo	3	Marzo	2023-03-28T00:00:00	2024-11-08T23:00:00	4	Temperatura máxima	20.4
162095	7	Sololá	712	San Antonio Palopó	9	San Antonio Palopo	3	Marzo	2023-03-28T00:00:00	2024-11-08T23:00:00	3	Temperatura mínima	19.2
162096	7	Sololá	712	San Antonio Palopó	9	San Antonio Palopo	3	Marzo	2023-03-28T00:00:00	2024-11-08T23:00:00	5	Humedad	67
162097	7	Sololá	712	San Antonio Palopó	9	San Antonio Palopo	3	Marzo	2023-03-28T00:00:00	2024-11-08T23:00:00	6	Velocidad del viento	4.8
162098	7	Sololá	712	San Antonio Palopó	9	San Antonio Palopo	3	Marzo	2023-03-28T00:00:00	2024-11-08T23:00:00	7	Dirección del viento	4.83
162099	7	Sololá	712	San Antonio Palopó	9	San Antonio Palopo	3	Marzo	2023-03-28T00:00:00	2024-11-08T23:00:00	1	Precipitación	0
162100	7	Sololá	712	San Antonio Palopó	9	San Antonio Palopo	3	Marzo	2023-03-28T00:00:00	2024-11-08T23:00:00	8	Radiación solar	0
162101	7	Sololá	712	San Antonio Palopó	9	San Antonio Palopo	3	Marzo	2023-03-29T00:00:00	2024-11-08T00:00:00	2	Temperatura media	19.7
162102	7	Sololá	712	San Antonio Palopó	9	San Antonio Palopo	3	Marzo	2023-03-29T00:00:00	2024-11-08T00:00:00	4	Temperatura máxima	20.4
162103	7	Sololá	712	San Antonio Palopó	9	San Antonio Palopo	3	Marzo	2023-03-29T00:00:00	2024-11-08T00:00:00	3	Temperatura mínima	19.5
162104	7	Sololá	712	San Antonio Palopó	9	San Antonio Palopo	3	Marzo	2023-03-29T00:00:00	2024-11-08T00:00:00	5	Humedad	66
162105	7	Sololá	712	San Antonio Palopó	9	San Antonio Palopo	3	Marzo	2023-03-29T00:00:00	2024-11-08T00:00:00	6	Velocidad del viento	6.4
162106	7	Sololá	712	San Antonio Palopó	9	San Antonio Palopo	3	Marzo	2023-03-29T00:00:00	2024-11-08T00:00:00	7	Dirección del viento	6.44
162107	7	Sololá	712	San Antonio Palopó	9	San Antonio Palopo	3	Marzo	2023-03-29T00:00:00	2024-11-08T00:00:00	1	Precipitación	0
162108	7	Sololá	712	San Antonio Palopó	9	San Antonio Palopo	3	Marzo	2023-03-29T00:00:00	2024-11-08T00:00:00	8	Radiación solar	0
162109	7	Sololá	712	San Antonio Palopó	9	San Antonio Palopo	3	Marzo	2023-03-29T00:00:00	2024-11-08T01:00:00	2	Temperatura media	19
162110	7	Sololá	712	San Antonio Palopó	9	San Antonio Palopo	3	Marzo	2023-03-29T00:00:00	2024-11-08T01:00:00	4	Temperatura máxima	19.8
162111	7	Sololá	712	San Antonio Palopó	9	San Antonio Palopo	3	Marzo	2023-03-29T00:00:00	2024-11-08T01:00:00	3	Temperatura mínima	18.8
162112	7	Sololá	712	San Antonio Palopó	9	San Antonio Palopo	3	Marzo	2023-03-29T00:00:00	2024-11-08T01:00:00	5	Humedad	68
162113	7	Sololá	712	San Antonio Palopó	9	San Antonio Palopo	3	Marzo	2023-03-29T00:00:00	2024-11-08T01:00:00	6	Velocidad del viento	9.7
162114	7	Sololá	712	San Antonio Palopó	9	San Antonio Palopo	3	Marzo	2023-03-29T00:00:00	2024-11-08T01:00:00	7	Dirección del viento	9.66
162115	7	Sololá	712	San Antonio Palopó	9	San Antonio Palopo	3	Marzo	2023-03-29T00:00:00	2024-11-08T01:00:00	1	Precipitación	0
162116	7	Sololá	712	San Antonio Palopó	9	San Antonio Palopo	3	Marzo	2023-03-29T00:00:00	2024-11-08T01:00:00	8	Radiación solar	0
162117	7	Sololá	712	San Antonio Palopó	9	San Antonio Palopo	3	Marzo	2023-03-29T00:00:00	2024-11-08T02:00:00	2	Temperatura media	18.7
162118	7	Sololá	712	San Antonio Palopó	9	San Antonio Palopo	3	Marzo	2023-03-29T00:00:00	2024-11-08T02:00:00	4	Temperatura máxima	19
162119	7	Sololá	712	San Antonio Palopó	9	San Antonio Palopo	3	Marzo	2023-03-29T00:00:00	2024-11-08T02:00:00	3	Temperatura mínima	18.6
162120	7	Sololá	712	San Antonio Palopó	9	San Antonio Palopo	3	Marzo	2023-03-29T00:00:00	2024-11-08T02:00:00	5	Humedad	67
162121	7	Sololá	712	San Antonio Palopó	9	San Antonio Palopo	3	Marzo	2023-03-29T00:00:00	2024-11-08T02:00:00	6	Velocidad del viento	11.3
162122	7	Sololá	712	San Antonio Palopó	9	San Antonio Palopo	3	Marzo	2023-03-29T00:00:00	2024-11-08T02:00:00	7	Dirección del viento	11.27
162123	7	Sololá	712	San Antonio Palopó	9	San Antonio Palopo	3	Marzo	2023-03-29T00:00:00	2024-11-08T02:00:00	1	Precipitación	0
162124	7	Sololá	712	San Antonio Palopó	9	San Antonio Palopo	3	Marzo	2023-03-29T00:00:00	2024-11-08T02:00:00	8	Radiación solar	0
162125	7	Sololá	712	San Antonio Palopó	9	San Antonio Palopo	3	Marzo	2023-03-29T00:00:00	2024-11-08T03:00:00	2	Temperatura media	18.1
162126	7	Sololá	712	San Antonio Palopó	9	San Antonio Palopo	3	Marzo	2023-03-29T00:00:00	2024-11-08T03:00:00	4	Temperatura máxima	18.7
162127	7	Sololá	712	San Antonio Palopó	9	San Antonio Palopo	3	Marzo	2023-03-29T00:00:00	2024-11-08T03:00:00	3	Temperatura mínima	17.9
162128	7	Sololá	712	San Antonio Palopó	9	San Antonio Palopo	3	Marzo	2023-03-29T00:00:00	2024-11-08T03:00:00	5	Humedad	68
162129	7	Sololá	712	San Antonio Palopó	9	San Antonio Palopo	3	Marzo	2023-03-29T00:00:00	2024-11-08T03:00:00	6	Velocidad del viento	11.3
162130	7	Sololá	712	San Antonio Palopó	9	San Antonio Palopo	3	Marzo	2023-03-29T00:00:00	2024-11-08T03:00:00	7	Dirección del viento	11.27
162131	7	Sololá	712	San Antonio Palopó	9	San Antonio Palopo	3	Marzo	2023-03-29T00:00:00	2024-11-08T03:00:00	1	Precipitación	0
162132	7	Sololá	712	San Antonio Palopó	9	San Antonio Palopo	3	Marzo	2023-03-29T00:00:00	2024-11-08T03:00:00	8	Radiación solar	0
162133	7	Sololá	712	San Antonio Palopó	9	San Antonio Palopo	3	Marzo	2023-03-29T00:00:00	2024-11-08T04:00:00	2	Temperatura media	18.1
162134	7	Sololá	712	San Antonio Palopó	9	San Antonio Palopo	3	Marzo	2023-03-29T00:00:00	2024-11-08T04:00:00	4	Temperatura máxima	18.5
162135	7	Sololá	712	San Antonio Palopó	9	San Antonio Palopo	3	Marzo	2023-03-29T00:00:00	2024-11-08T04:00:00	3	Temperatura mínima	18
162136	7	Sololá	712	San Antonio Palopó	9	San Antonio Palopo	3	Marzo	2023-03-29T00:00:00	2024-11-08T04:00:00	5	Humedad	69
162137	7	Sololá	712	San Antonio Palopó	9	San Antonio Palopo	3	Marzo	2023-03-29T00:00:00	2024-11-08T04:00:00	6	Velocidad del viento	12.9
162138	7	Sololá	712	San Antonio Palopó	9	San Antonio Palopo	3	Marzo	2023-03-29T00:00:00	2024-11-08T04:00:00	7	Dirección del viento	12.87
162139	7	Sololá	712	San Antonio Palopó	9	San Antonio Palopo	3	Marzo	2023-03-29T00:00:00	2024-11-08T04:00:00	1	Precipitación	0
162140	7	Sololá	712	San Antonio Palopó	9	San Antonio Palopo	3	Marzo	2023-03-29T00:00:00	2024-11-08T04:00:00	8	Radiación solar	0
162141	7	Sololá	712	San Antonio Palopó	9	San Antonio Palopo	3	Marzo	2023-03-29T00:00:00	2024-11-08T05:00:00	2	Temperatura media	17.5
162142	7	Sololá	712	San Antonio Palopó	9	San Antonio Palopo	3	Marzo	2023-03-29T00:00:00	2024-11-08T05:00:00	4	Temperatura máxima	18.2
162143	7	Sololá	712	San Antonio Palopó	9	San Antonio Palopo	3	Marzo	2023-03-29T00:00:00	2024-11-08T05:00:00	3	Temperatura mínima	17.5
162144	7	Sololá	712	San Antonio Palopó	9	San Antonio Palopo	3	Marzo	2023-03-29T00:00:00	2024-11-08T05:00:00	5	Humedad	71
162145	7	Sololá	712	San Antonio Palopó	9	San Antonio Palopo	3	Marzo	2023-03-29T00:00:00	2024-11-08T05:00:00	6	Velocidad del viento	14.5
162146	7	Sololá	712	San Antonio Palopó	9	San Antonio Palopo	3	Marzo	2023-03-29T00:00:00	2024-11-08T05:00:00	7	Dirección del viento	14.48
162147	7	Sololá	712	San Antonio Palopó	9	San Antonio Palopo	3	Marzo	2023-03-29T00:00:00	2024-11-08T05:00:00	1	Precipitación	0
162148	7	Sololá	712	San Antonio Palopó	9	San Antonio Palopo	3	Marzo	2023-03-29T00:00:00	2024-11-08T05:00:00	8	Radiación solar	0
162149	7	Sololá	712	San Antonio Palopó	9	San Antonio Palopo	3	Marzo	2023-03-29T00:00:00	2024-11-08T06:00:00	2	Temperatura media	17.4
162150	7	Sololá	712	San Antonio Palopó	9	San Antonio Palopo	3	Marzo	2023-03-29T00:00:00	2024-11-08T06:00:00	4	Temperatura máxima	17.8
162151	7	Sololá	712	San Antonio Palopó	9	San Antonio Palopo	3	Marzo	2023-03-29T00:00:00	2024-11-08T06:00:00	3	Temperatura mínima	17.2
162152	7	Sololá	712	San Antonio Palopó	9	San Antonio Palopo	3	Marzo	2023-03-29T00:00:00	2024-11-08T06:00:00	5	Humedad	69
162153	7	Sololá	712	San Antonio Palopó	9	San Antonio Palopo	3	Marzo	2023-03-29T00:00:00	2024-11-08T06:00:00	6	Velocidad del viento	11.3
162154	7	Sololá	712	San Antonio Palopó	9	San Antonio Palopo	3	Marzo	2023-03-29T00:00:00	2024-11-08T06:00:00	7	Dirección del viento	11.27
162155	7	Sololá	712	San Antonio Palopó	9	San Antonio Palopo	3	Marzo	2023-03-29T00:00:00	2024-11-08T06:00:00	1	Precipitación	0
162156	7	Sololá	712	San Antonio Palopó	9	San Antonio Palopo	3	Marzo	2023-03-29T00:00:00	2024-11-08T06:00:00	8	Radiación solar	0
162157	7	Sololá	712	San Antonio Palopó	9	San Antonio Palopo	3	Marzo	2023-03-29T00:00:00	2024-11-08T07:00:00	2	Temperatura media	18.1
162158	7	Sololá	712	San Antonio Palopó	9	San Antonio Palopo	3	Marzo	2023-03-29T00:00:00	2024-11-08T07:00:00	4	Temperatura máxima	18.2
162159	7	Sololá	712	San Antonio Palopó	9	San Antonio Palopo	3	Marzo	2023-03-29T00:00:00	2024-11-08T07:00:00	3	Temperatura mínima	17.4
162160	7	Sololá	712	San Antonio Palopó	9	San Antonio Palopo	3	Marzo	2023-03-29T00:00:00	2024-11-08T07:00:00	5	Humedad	66
162161	7	Sololá	712	San Antonio Palopó	9	San Antonio Palopo	3	Marzo	2023-03-29T00:00:00	2024-11-08T07:00:00	6	Velocidad del viento	9.7
162162	7	Sololá	712	San Antonio Palopó	9	San Antonio Palopo	3	Marzo	2023-03-29T00:00:00	2024-11-08T07:00:00	7	Dirección del viento	9.66
162163	7	Sololá	712	San Antonio Palopó	9	San Antonio Palopo	3	Marzo	2023-03-29T00:00:00	2024-11-08T07:00:00	1	Precipitación	0
162164	7	Sololá	712	San Antonio Palopó	9	San Antonio Palopo	3	Marzo	2023-03-29T00:00:00	2024-11-08T07:00:00	8	Radiación solar	14
162165	7	Sololá	712	San Antonio Palopó	9	San Antonio Palopo	3	Marzo	2023-03-29T00:00:00	2024-11-08T08:00:00	2	Temperatura media	20.3
162166	7	Sololá	712	San Antonio Palopó	9	San Antonio Palopo	3	Marzo	2023-03-29T00:00:00	2024-11-08T08:00:00	4	Temperatura máxima	20.3
162167	7	Sololá	712	San Antonio Palopó	9	San Antonio Palopo	3	Marzo	2023-03-29T00:00:00	2024-11-08T08:00:00	3	Temperatura mínima	18.1
162168	7	Sololá	712	San Antonio Palopó	9	San Antonio Palopo	3	Marzo	2023-03-29T00:00:00	2024-11-08T08:00:00	5	Humedad	62
162169	7	Sololá	712	San Antonio Palopó	9	San Antonio Palopo	3	Marzo	2023-03-29T00:00:00	2024-11-08T08:00:00	6	Velocidad del viento	6.4
162170	7	Sololá	712	San Antonio Palopó	9	San Antonio Palopo	3	Marzo	2023-03-29T00:00:00	2024-11-08T08:00:00	7	Dirección del viento	6.44
162171	7	Sololá	712	San Antonio Palopó	9	San Antonio Palopo	3	Marzo	2023-03-29T00:00:00	2024-11-08T08:00:00	1	Precipitación	0
162172	7	Sololá	712	San Antonio Palopó	9	San Antonio Palopo	3	Marzo	2023-03-29T00:00:00	2024-11-08T08:00:00	8	Radiación solar	73
162173	7	Sololá	712	San Antonio Palopó	9	San Antonio Palopo	3	Marzo	2023-03-29T00:00:00	2024-11-08T09:00:00	2	Temperatura media	21.6
162174	7	Sololá	712	San Antonio Palopó	9	San Antonio Palopo	3	Marzo	2023-03-29T00:00:00	2024-11-08T09:00:00	4	Temperatura máxima	21.6
162175	7	Sololá	712	San Antonio Palopó	9	San Antonio Palopo	3	Marzo	2023-03-29T00:00:00	2024-11-08T09:00:00	3	Temperatura mínima	20.3
162176	7	Sololá	712	San Antonio Palopó	9	San Antonio Palopo	3	Marzo	2023-03-29T00:00:00	2024-11-08T09:00:00	5	Humedad	56
162177	7	Sololá	712	San Antonio Palopó	9	San Antonio Palopo	3	Marzo	2023-03-29T00:00:00	2024-11-08T09:00:00	6	Velocidad del viento	16.1
162178	7	Sololá	712	San Antonio Palopó	9	San Antonio Palopo	3	Marzo	2023-03-29T00:00:00	2024-11-08T09:00:00	7	Dirección del viento	16.09
162179	7	Sololá	712	San Antonio Palopó	9	San Antonio Palopo	3	Marzo	2023-03-29T00:00:00	2024-11-08T09:00:00	1	Precipitación	0
162180	7	Sololá	712	San Antonio Palopó	9	San Antonio Palopo	3	Marzo	2023-03-29T00:00:00	2024-11-08T09:00:00	8	Radiación solar	367
162181	7	Sololá	712	San Antonio Palopó	9	San Antonio Palopo	3	Marzo	2023-03-29T00:00:00	2024-11-08T10:00:00	2	Temperatura media	22.3
162182	7	Sololá	712	San Antonio Palopó	9	San Antonio Palopo	3	Marzo	2023-03-29T00:00:00	2024-11-08T10:00:00	4	Temperatura máxima	22.3
162183	7	Sololá	712	San Antonio Palopó	9	San Antonio Palopo	3	Marzo	2023-03-29T00:00:00	2024-11-08T10:00:00	3	Temperatura mínima	21.5
162184	7	Sololá	712	San Antonio Palopó	9	San Antonio Palopo	3	Marzo	2023-03-29T00:00:00	2024-11-08T10:00:00	5	Humedad	55
162185	7	Sololá	712	San Antonio Palopó	9	San Antonio Palopo	3	Marzo	2023-03-29T00:00:00	2024-11-08T10:00:00	6	Velocidad del viento	12.9
162186	7	Sololá	712	San Antonio Palopó	9	San Antonio Palopo	3	Marzo	2023-03-29T00:00:00	2024-11-08T10:00:00	7	Dirección del viento	12.87
162187	7	Sololá	712	San Antonio Palopó	9	San Antonio Palopo	3	Marzo	2023-03-29T00:00:00	2024-11-08T10:00:00	1	Precipitación	0
162188	7	Sololá	712	San Antonio Palopó	9	San Antonio Palopo	3	Marzo	2023-03-29T00:00:00	2024-11-08T10:00:00	8	Radiación solar	273
162189	7	Sololá	712	San Antonio Palopó	9	San Antonio Palopo	3	Marzo	2023-03-29T00:00:00	2024-11-08T11:00:00	2	Temperatura media	23.8
162190	7	Sololá	712	San Antonio Palopó	9	San Antonio Palopo	3	Marzo	2023-03-29T00:00:00	2024-11-08T11:00:00	4	Temperatura máxima	23.8
162191	7	Sololá	712	San Antonio Palopó	9	San Antonio Palopo	3	Marzo	2023-03-29T00:00:00	2024-11-08T11:00:00	3	Temperatura mínima	21.8
162192	7	Sololá	712	San Antonio Palopó	9	San Antonio Palopo	3	Marzo	2023-03-29T00:00:00	2024-11-08T11:00:00	5	Humedad	51
162193	7	Sololá	712	San Antonio Palopó	9	San Antonio Palopo	3	Marzo	2023-03-29T00:00:00	2024-11-08T11:00:00	6	Velocidad del viento	11.3
162194	7	Sololá	712	San Antonio Palopó	9	San Antonio Palopo	3	Marzo	2023-03-29T00:00:00	2024-11-08T11:00:00	7	Dirección del viento	11.27
162195	7	Sololá	712	San Antonio Palopó	9	San Antonio Palopo	3	Marzo	2023-03-29T00:00:00	2024-11-08T11:00:00	1	Precipitación	0
162196	7	Sololá	712	San Antonio Palopó	9	San Antonio Palopo	3	Marzo	2023-03-29T00:00:00	2024-11-08T11:00:00	8	Radiación solar	748
162197	7	Sololá	712	San Antonio Palopó	9	San Antonio Palopo	3	Marzo	2023-03-29T00:00:00	2024-11-08T12:00:00	2	Temperatura media	24.1
162198	7	Sololá	712	San Antonio Palopó	9	San Antonio Palopo	3	Marzo	2023-03-29T00:00:00	2024-11-08T12:00:00	4	Temperatura máxima	24.8
162199	7	Sololá	712	San Antonio Palopó	9	San Antonio Palopo	3	Marzo	2023-03-29T00:00:00	2024-11-08T12:00:00	3	Temperatura mínima	23.8
162200	7	Sololá	712	San Antonio Palopó	9	San Antonio Palopo	3	Marzo	2023-03-29T00:00:00	2024-11-08T12:00:00	5	Humedad	49
162201	7	Sololá	712	San Antonio Palopó	9	San Antonio Palopo	3	Marzo	2023-03-29T00:00:00	2024-11-08T12:00:00	6	Velocidad del viento	9.7
162202	7	Sololá	712	San Antonio Palopó	9	San Antonio Palopo	3	Marzo	2023-03-29T00:00:00	2024-11-08T12:00:00	7	Dirección del viento	9.66
162203	7	Sololá	712	San Antonio Palopó	9	San Antonio Palopo	3	Marzo	2023-03-29T00:00:00	2024-11-08T12:00:00	1	Precipitación	0
162204	7	Sololá	712	San Antonio Palopó	9	San Antonio Palopo	3	Marzo	2023-03-29T00:00:00	2024-11-08T12:00:00	8	Radiación solar	796
162205	7	Sololá	712	San Antonio Palopó	9	San Antonio Palopo	3	Marzo	2023-03-29T00:00:00	2024-11-08T13:00:00	2	Temperatura media	24.4
162206	7	Sololá	712	San Antonio Palopó	9	San Antonio Palopo	3	Marzo	2023-03-29T00:00:00	2024-11-08T13:00:00	4	Temperatura máxima	25.5
162207	7	Sololá	712	San Antonio Palopó	9	San Antonio Palopo	3	Marzo	2023-03-29T00:00:00	2024-11-08T13:00:00	3	Temperatura mínima	23.9
162208	7	Sololá	712	San Antonio Palopó	9	San Antonio Palopo	3	Marzo	2023-03-29T00:00:00	2024-11-08T13:00:00	5	Humedad	62
162209	7	Sololá	712	San Antonio Palopó	9	San Antonio Palopo	3	Marzo	2023-03-29T00:00:00	2024-11-08T13:00:00	6	Velocidad del viento	12.9
162210	7	Sololá	712	San Antonio Palopó	9	San Antonio Palopo	3	Marzo	2023-03-29T00:00:00	2024-11-08T13:00:00	7	Dirección del viento	12.87
162211	7	Sololá	712	San Antonio Palopó	9	San Antonio Palopo	3	Marzo	2023-03-29T00:00:00	2024-11-08T13:00:00	1	Precipitación	0
162212	7	Sololá	712	San Antonio Palopó	9	San Antonio Palopo	3	Marzo	2023-03-29T00:00:00	2024-11-08T13:00:00	8	Radiación solar	454
162213	7	Sololá	712	San Antonio Palopó	9	San Antonio Palopo	3	Marzo	2023-03-29T00:00:00	2024-11-08T14:00:00	2	Temperatura media	24
162214	7	Sololá	712	San Antonio Palopó	9	San Antonio Palopo	3	Marzo	2023-03-29T00:00:00	2024-11-08T14:00:00	4	Temperatura máxima	24.7
162215	7	Sololá	712	San Antonio Palopó	9	San Antonio Palopo	3	Marzo	2023-03-29T00:00:00	2024-11-08T14:00:00	3	Temperatura mínima	23.6
162216	7	Sololá	712	San Antonio Palopó	9	San Antonio Palopo	3	Marzo	2023-03-29T00:00:00	2024-11-08T14:00:00	5	Humedad	65
162217	7	Sololá	712	San Antonio Palopó	9	San Antonio Palopo	3	Marzo	2023-03-29T00:00:00	2024-11-08T14:00:00	6	Velocidad del viento	12.9
162218	7	Sololá	712	San Antonio Palopó	9	San Antonio Palopo	3	Marzo	2023-03-29T00:00:00	2024-11-08T14:00:00	7	Dirección del viento	12.87
162219	7	Sololá	712	San Antonio Palopó	9	San Antonio Palopo	3	Marzo	2023-03-29T00:00:00	2024-11-08T14:00:00	1	Precipitación	0
162220	7	Sololá	712	San Antonio Palopó	9	San Antonio Palopo	3	Marzo	2023-03-29T00:00:00	2024-11-08T14:00:00	8	Radiación solar	646
162221	7	Sololá	712	San Antonio Palopó	9	San Antonio Palopo	3	Marzo	2023-03-29T00:00:00	2024-11-08T15:00:00	2	Temperatura media	25.8
162222	7	Sololá	712	San Antonio Palopó	9	San Antonio Palopo	3	Marzo	2023-03-29T00:00:00	2024-11-08T15:00:00	4	Temperatura máxima	26.1
162223	7	Sololá	712	San Antonio Palopó	9	San Antonio Palopo	3	Marzo	2023-03-29T00:00:00	2024-11-08T15:00:00	3	Temperatura mínima	23.8
162224	7	Sololá	712	San Antonio Palopó	9	San Antonio Palopo	3	Marzo	2023-03-29T00:00:00	2024-11-08T15:00:00	5	Humedad	38
162225	7	Sololá	712	San Antonio Palopó	9	San Antonio Palopo	3	Marzo	2023-03-29T00:00:00	2024-11-08T15:00:00	6	Velocidad del viento	11.3
162226	7	Sololá	712	San Antonio Palopó	9	San Antonio Palopo	3	Marzo	2023-03-29T00:00:00	2024-11-08T15:00:00	7	Dirección del viento	11.27
162227	7	Sololá	712	San Antonio Palopó	9	San Antonio Palopo	3	Marzo	2023-03-29T00:00:00	2024-11-08T15:00:00	1	Precipitación	0
162228	7	Sololá	712	San Antonio Palopó	9	San Antonio Palopo	3	Marzo	2023-03-29T00:00:00	2024-11-08T15:00:00	8	Radiación solar	504
162229	7	Sololá	712	San Antonio Palopó	9	San Antonio Palopo	3	Marzo	2023-03-29T00:00:00	2024-11-08T16:00:00	2	Temperatura media	26
162230	7	Sololá	712	San Antonio Palopó	9	San Antonio Palopo	3	Marzo	2023-03-29T00:00:00	2024-11-08T16:00:00	4	Temperatura máxima	27
162231	7	Sololá	712	San Antonio Palopó	9	San Antonio Palopo	3	Marzo	2023-03-29T00:00:00	2024-11-08T16:00:00	3	Temperatura mínima	25.6
162232	7	Sololá	712	San Antonio Palopó	9	San Antonio Palopo	3	Marzo	2023-03-29T00:00:00	2024-11-08T16:00:00	5	Humedad	38
162233	7	Sololá	712	San Antonio Palopó	9	San Antonio Palopo	3	Marzo	2023-03-29T00:00:00	2024-11-08T16:00:00	6	Velocidad del viento	12.9
162234	7	Sololá	712	San Antonio Palopó	9	San Antonio Palopo	3	Marzo	2023-03-29T00:00:00	2024-11-08T16:00:00	7	Dirección del viento	12.87
162235	7	Sololá	712	San Antonio Palopó	9	San Antonio Palopo	3	Marzo	2023-03-29T00:00:00	2024-11-08T16:00:00	1	Precipitación	0
162236	7	Sololá	712	San Antonio Palopó	9	San Antonio Palopo	3	Marzo	2023-03-29T00:00:00	2024-11-08T16:00:00	8	Radiación solar	370
162237	7	Sololá	712	San Antonio Palopó	9	San Antonio Palopo	3	Marzo	2023-03-29T00:00:00	2024-11-08T17:00:00	2	Temperatura media	26.5
162238	7	Sololá	712	San Antonio Palopó	9	San Antonio Palopo	3	Marzo	2023-03-29T00:00:00	2024-11-08T17:00:00	4	Temperatura máxima	26.8
162239	7	Sololá	712	San Antonio Palopó	9	San Antonio Palopo	3	Marzo	2023-03-29T00:00:00	2024-11-08T17:00:00	3	Temperatura mínima	25.9
162240	7	Sololá	712	San Antonio Palopó	9	San Antonio Palopo	3	Marzo	2023-03-29T00:00:00	2024-11-08T17:00:00	5	Humedad	35
162241	7	Sololá	712	San Antonio Palopó	9	San Antonio Palopo	3	Marzo	2023-03-29T00:00:00	2024-11-08T17:00:00	6	Velocidad del viento	8
162242	7	Sololá	712	San Antonio Palopó	9	San Antonio Palopo	3	Marzo	2023-03-29T00:00:00	2024-11-08T17:00:00	7	Dirección del viento	8.05
162243	7	Sololá	712	San Antonio Palopó	9	San Antonio Palopo	3	Marzo	2023-03-29T00:00:00	2024-11-08T17:00:00	1	Precipitación	0
162244	7	Sololá	712	San Antonio Palopó	9	San Antonio Palopo	3	Marzo	2023-03-29T00:00:00	2024-11-08T17:00:00	8	Radiación solar	285
162245	7	Sololá	712	San Antonio Palopó	9	San Antonio Palopo	3	Marzo	2023-03-29T00:00:00	2024-11-08T18:00:00	2	Temperatura media	24.8
162246	7	Sololá	712	San Antonio Palopó	9	San Antonio Palopo	3	Marzo	2023-03-29T00:00:00	2024-11-08T18:00:00	4	Temperatura máxima	26.5
162247	7	Sololá	712	San Antonio Palopó	9	San Antonio Palopo	3	Marzo	2023-03-29T00:00:00	2024-11-08T18:00:00	3	Temperatura mínima	24.7
162248	7	Sololá	712	San Antonio Palopó	9	San Antonio Palopo	3	Marzo	2023-03-29T00:00:00	2024-11-08T18:00:00	5	Humedad	41
162249	7	Sololá	712	San Antonio Palopó	9	San Antonio Palopo	3	Marzo	2023-03-29T00:00:00	2024-11-08T18:00:00	6	Velocidad del viento	9.7
162250	7	Sololá	712	San Antonio Palopó	9	San Antonio Palopo	3	Marzo	2023-03-29T00:00:00	2024-11-08T18:00:00	7	Dirección del viento	9.66
162251	7	Sololá	712	San Antonio Palopó	9	San Antonio Palopo	3	Marzo	2023-03-29T00:00:00	2024-11-08T18:00:00	1	Precipitación	0
162252	7	Sololá	712	San Antonio Palopó	9	San Antonio Palopo	3	Marzo	2023-03-29T00:00:00	2024-11-08T18:00:00	8	Radiación solar	99
162253	7	Sololá	712	San Antonio Palopó	9	San Antonio Palopo	3	Marzo	2023-03-29T00:00:00	2024-11-08T19:00:00	2	Temperatura media	22.2
162254	7	Sololá	712	San Antonio Palopó	9	San Antonio Palopo	3	Marzo	2023-03-29T00:00:00	2024-11-08T19:00:00	4	Temperatura máxima	24.8
162255	7	Sololá	712	San Antonio Palopó	9	San Antonio Palopo	3	Marzo	2023-03-29T00:00:00	2024-11-08T19:00:00	3	Temperatura mínima	22.2
162256	7	Sololá	712	San Antonio Palopó	9	San Antonio Palopo	3	Marzo	2023-03-29T00:00:00	2024-11-08T19:00:00	5	Humedad	47
162257	7	Sololá	712	San Antonio Palopó	9	San Antonio Palopo	3	Marzo	2023-03-29T00:00:00	2024-11-08T19:00:00	6	Velocidad del viento	8
162258	7	Sololá	712	San Antonio Palopó	9	San Antonio Palopo	3	Marzo	2023-03-29T00:00:00	2024-11-08T19:00:00	7	Dirección del viento	8.05
162259	7	Sololá	712	San Antonio Palopó	9	San Antonio Palopo	3	Marzo	2023-03-29T00:00:00	2024-11-08T19:00:00	1	Precipitación	0
162260	7	Sololá	712	San Antonio Palopó	9	San Antonio Palopo	3	Marzo	2023-03-29T00:00:00	2024-11-08T19:00:00	8	Radiación solar	0
162261	7	Sololá	712	San Antonio Palopó	9	San Antonio Palopo	3	Marzo	2023-03-29T00:00:00	2024-11-08T20:00:00	2	Temperatura media	20.9
162262	7	Sololá	712	San Antonio Palopó	9	San Antonio Palopo	3	Marzo	2023-03-29T00:00:00	2024-11-08T20:00:00	4	Temperatura máxima	22.2
162263	7	Sololá	712	San Antonio Palopó	9	San Antonio Palopo	3	Marzo	2023-03-29T00:00:00	2024-11-08T20:00:00	3	Temperatura mínima	20.9
162264	7	Sololá	712	San Antonio Palopó	9	San Antonio Palopo	3	Marzo	2023-03-29T00:00:00	2024-11-08T20:00:00	5	Humedad	57
162265	7	Sololá	712	San Antonio Palopó	9	San Antonio Palopo	3	Marzo	2023-03-29T00:00:00	2024-11-08T20:00:00	6	Velocidad del viento	4.8
162266	7	Sololá	712	San Antonio Palopó	9	San Antonio Palopo	3	Marzo	2023-03-29T00:00:00	2024-11-08T20:00:00	7	Dirección del viento	4.83
162267	7	Sololá	712	San Antonio Palopó	9	San Antonio Palopo	3	Marzo	2023-03-29T00:00:00	2024-11-08T20:00:00	1	Precipitación	0
162268	7	Sololá	712	San Antonio Palopó	9	San Antonio Palopo	3	Marzo	2023-03-29T00:00:00	2024-11-08T20:00:00	8	Radiación solar	0
162269	7	Sololá	712	San Antonio Palopó	9	San Antonio Palopo	3	Marzo	2023-03-29T00:00:00	2024-11-08T21:00:00	2	Temperatura media	19.7
162270	7	Sololá	712	San Antonio Palopó	9	San Antonio Palopo	3	Marzo	2023-03-29T00:00:00	2024-11-08T21:00:00	4	Temperatura máxima	21
162271	7	Sololá	712	San Antonio Palopó	9	San Antonio Palopo	3	Marzo	2023-03-29T00:00:00	2024-11-08T21:00:00	3	Temperatura mínima	19.7
162272	7	Sololá	712	San Antonio Palopó	9	San Antonio Palopo	3	Marzo	2023-03-29T00:00:00	2024-11-08T21:00:00	5	Humedad	56
162273	7	Sololá	712	San Antonio Palopó	9	San Antonio Palopo	3	Marzo	2023-03-29T00:00:00	2024-11-08T21:00:00	6	Velocidad del viento	6.4
162274	7	Sololá	712	San Antonio Palopó	9	San Antonio Palopo	3	Marzo	2023-03-29T00:00:00	2024-11-08T21:00:00	7	Dirección del viento	6.44
162275	7	Sololá	712	San Antonio Palopó	9	San Antonio Palopo	3	Marzo	2023-03-29T00:00:00	2024-11-08T21:00:00	1	Precipitación	0
162276	7	Sololá	712	San Antonio Palopó	9	San Antonio Palopo	3	Marzo	2023-03-29T00:00:00	2024-11-08T21:00:00	8	Radiación solar	0
162277	7	Sololá	712	San Antonio Palopó	9	San Antonio Palopo	3	Marzo	2023-03-29T00:00:00	2024-11-08T22:00:00	2	Temperatura media	19.2
162278	7	Sololá	712	San Antonio Palopó	9	San Antonio Palopo	3	Marzo	2023-03-29T00:00:00	2024-11-08T22:00:00	4	Temperatura máxima	19.7
162279	7	Sololá	712	San Antonio Palopó	9	San Antonio Palopo	3	Marzo	2023-03-29T00:00:00	2024-11-08T22:00:00	3	Temperatura mínima	19.1
162280	7	Sololá	712	San Antonio Palopó	9	San Antonio Palopo	3	Marzo	2023-03-29T00:00:00	2024-11-08T22:00:00	5	Humedad	54
162281	7	Sololá	712	San Antonio Palopó	9	San Antonio Palopo	3	Marzo	2023-03-29T00:00:00	2024-11-08T22:00:00	6	Velocidad del viento	6.4
162282	7	Sololá	712	San Antonio Palopó	9	San Antonio Palopo	3	Marzo	2023-03-29T00:00:00	2024-11-08T22:00:00	7	Dirección del viento	6.44
162283	7	Sololá	712	San Antonio Palopó	9	San Antonio Palopo	3	Marzo	2023-03-29T00:00:00	2024-11-08T22:00:00	1	Precipitación	0
162284	7	Sololá	712	San Antonio Palopó	9	San Antonio Palopo	3	Marzo	2023-03-29T00:00:00	2024-11-08T22:00:00	8	Radiación solar	0
162285	7	Sololá	712	San Antonio Palopó	9	San Antonio Palopo	3	Marzo	2023-03-29T00:00:00	2024-11-08T23:00:00	2	Temperatura media	18.1
162286	7	Sololá	712	San Antonio Palopó	9	San Antonio Palopo	3	Marzo	2023-03-29T00:00:00	2024-11-08T23:00:00	4	Temperatura máxima	19.3
162287	7	Sololá	712	San Antonio Palopó	9	San Antonio Palopo	3	Marzo	2023-03-29T00:00:00	2024-11-08T23:00:00	3	Temperatura mínima	18.1
162288	7	Sololá	712	San Antonio Palopó	9	San Antonio Palopo	3	Marzo	2023-03-29T00:00:00	2024-11-08T23:00:00	5	Humedad	57
162289	7	Sololá	712	San Antonio Palopó	9	San Antonio Palopo	3	Marzo	2023-03-29T00:00:00	2024-11-08T23:00:00	6	Velocidad del viento	6.4
162290	7	Sololá	712	San Antonio Palopó	9	San Antonio Palopo	3	Marzo	2023-03-29T00:00:00	2024-11-08T23:00:00	7	Dirección del viento	6.44
162291	7	Sololá	712	San Antonio Palopó	9	San Antonio Palopo	3	Marzo	2023-03-29T00:00:00	2024-11-08T23:00:00	1	Precipitación	0
162292	7	Sololá	712	San Antonio Palopó	9	San Antonio Palopo	3	Marzo	2023-03-29T00:00:00	2024-11-08T23:00:00	8	Radiación solar	0
162293	7	Sololá	712	San Antonio Palopó	9	San Antonio Palopo	3	Marzo	2023-03-30T00:00:00	2024-11-08T00:00:00	2	Temperatura media	17.6
162294	7	Sololá	712	San Antonio Palopó	9	San Antonio Palopo	3	Marzo	2023-03-30T00:00:00	2024-11-08T00:00:00	4	Temperatura máxima	18.1
162295	7	Sololá	712	San Antonio Palopó	9	San Antonio Palopo	3	Marzo	2023-03-30T00:00:00	2024-11-08T00:00:00	3	Temperatura mínima	17.5
162296	7	Sololá	712	San Antonio Palopó	9	San Antonio Palopo	3	Marzo	2023-03-30T00:00:00	2024-11-08T00:00:00	5	Humedad	61
162297	7	Sololá	712	San Antonio Palopó	9	San Antonio Palopo	3	Marzo	2023-03-30T00:00:00	2024-11-08T00:00:00	6	Velocidad del viento	4.8
162298	7	Sololá	712	San Antonio Palopó	9	San Antonio Palopo	3	Marzo	2023-03-30T00:00:00	2024-11-08T00:00:00	7	Dirección del viento	4.83
162299	7	Sololá	712	San Antonio Palopó	9	San Antonio Palopo	3	Marzo	2023-03-30T00:00:00	2024-11-08T00:00:00	1	Precipitación	0
162300	7	Sololá	712	San Antonio Palopó	9	San Antonio Palopo	3	Marzo	2023-03-30T00:00:00	2024-11-08T00:00:00	8	Radiación solar	0
162301	7	Sololá	712	San Antonio Palopó	9	San Antonio Palopo	3	Marzo	2023-03-30T00:00:00	2024-11-08T01:00:00	2	Temperatura media	17
162302	7	Sololá	712	San Antonio Palopó	9	San Antonio Palopo	3	Marzo	2023-03-30T00:00:00	2024-11-08T01:00:00	4	Temperatura máxima	17.8
162303	7	Sololá	712	San Antonio Palopó	9	San Antonio Palopo	3	Marzo	2023-03-30T00:00:00	2024-11-08T01:00:00	3	Temperatura mínima	16.9
162304	7	Sololá	712	San Antonio Palopó	9	San Antonio Palopo	3	Marzo	2023-03-30T00:00:00	2024-11-08T01:00:00	5	Humedad	63
162305	7	Sololá	712	San Antonio Palopó	9	San Antonio Palopo	3	Marzo	2023-03-30T00:00:00	2024-11-08T01:00:00	6	Velocidad del viento	4.8
162306	7	Sololá	712	San Antonio Palopó	9	San Antonio Palopo	3	Marzo	2023-03-30T00:00:00	2024-11-08T01:00:00	7	Dirección del viento	4.83
162307	7	Sololá	712	San Antonio Palopó	9	San Antonio Palopo	3	Marzo	2023-03-30T00:00:00	2024-11-08T01:00:00	1	Precipitación	0
162308	7	Sololá	712	San Antonio Palopó	9	San Antonio Palopo	3	Marzo	2023-03-30T00:00:00	2024-11-08T01:00:00	8	Radiación solar	0
162309	7	Sololá	712	San Antonio Palopó	9	San Antonio Palopo	3	Marzo	2023-03-30T00:00:00	2024-11-08T02:00:00	2	Temperatura media	17.8
162310	7	Sololá	712	San Antonio Palopó	9	San Antonio Palopo	3	Marzo	2023-03-30T00:00:00	2024-11-08T02:00:00	4	Temperatura máxima	17.8
162311	7	Sololá	712	San Antonio Palopó	9	San Antonio Palopo	3	Marzo	2023-03-30T00:00:00	2024-11-08T02:00:00	3	Temperatura mínima	16.9
162312	7	Sololá	712	San Antonio Palopó	9	San Antonio Palopo	3	Marzo	2023-03-30T00:00:00	2024-11-08T02:00:00	5	Humedad	60
162313	7	Sololá	712	San Antonio Palopó	9	San Antonio Palopo	3	Marzo	2023-03-30T00:00:00	2024-11-08T02:00:00	6	Velocidad del viento	11.3
162314	7	Sololá	712	San Antonio Palopó	9	San Antonio Palopo	3	Marzo	2023-03-30T00:00:00	2024-11-08T02:00:00	7	Dirección del viento	11.27
162315	7	Sololá	712	San Antonio Palopó	9	San Antonio Palopo	3	Marzo	2023-03-30T00:00:00	2024-11-08T02:00:00	1	Precipitación	0
162316	7	Sololá	712	San Antonio Palopó	9	San Antonio Palopo	3	Marzo	2023-03-30T00:00:00	2024-11-08T02:00:00	8	Radiación solar	0
162317	7	Sololá	712	San Antonio Palopó	9	San Antonio Palopo	3	Marzo	2023-03-30T00:00:00	2024-11-08T03:00:00	2	Temperatura media	17.6
162318	7	Sololá	712	San Antonio Palopó	9	San Antonio Palopo	3	Marzo	2023-03-30T00:00:00	2024-11-08T03:00:00	4	Temperatura máxima	18.1
162319	7	Sololá	712	San Antonio Palopó	9	San Antonio Palopo	3	Marzo	2023-03-30T00:00:00	2024-11-08T03:00:00	3	Temperatura mínima	17.6
162320	7	Sololá	712	San Antonio Palopó	9	San Antonio Palopo	3	Marzo	2023-03-30T00:00:00	2024-11-08T03:00:00	5	Humedad	58
162321	7	Sololá	712	San Antonio Palopó	9	San Antonio Palopo	3	Marzo	2023-03-30T00:00:00	2024-11-08T03:00:00	6	Velocidad del viento	12.9
162322	7	Sololá	712	San Antonio Palopó	9	San Antonio Palopo	3	Marzo	2023-03-30T00:00:00	2024-11-08T03:00:00	7	Dirección del viento	12.87
162323	7	Sololá	712	San Antonio Palopó	9	San Antonio Palopo	3	Marzo	2023-03-30T00:00:00	2024-11-08T03:00:00	1	Precipitación	0
162324	7	Sololá	712	San Antonio Palopó	9	San Antonio Palopo	3	Marzo	2023-03-30T00:00:00	2024-11-08T03:00:00	8	Radiación solar	0
162325	7	Sololá	712	San Antonio Palopó	9	San Antonio Palopo	3	Marzo	2023-03-30T00:00:00	2024-11-08T04:00:00	2	Temperatura media	17.3
162326	7	Sololá	712	San Antonio Palopó	9	San Antonio Palopo	3	Marzo	2023-03-30T00:00:00	2024-11-08T04:00:00	4	Temperatura máxima	17.7
162327	7	Sololá	712	San Antonio Palopó	9	San Antonio Palopo	3	Marzo	2023-03-30T00:00:00	2024-11-08T04:00:00	3	Temperatura mínima	17.3
162328	7	Sololá	712	San Antonio Palopó	9	San Antonio Palopo	3	Marzo	2023-03-30T00:00:00	2024-11-08T04:00:00	5	Humedad	60
162329	7	Sololá	712	San Antonio Palopó	9	San Antonio Palopo	3	Marzo	2023-03-30T00:00:00	2024-11-08T04:00:00	6	Velocidad del viento	14.5
162330	7	Sololá	712	San Antonio Palopó	9	San Antonio Palopo	3	Marzo	2023-03-30T00:00:00	2024-11-08T04:00:00	7	Dirección del viento	14.48
162331	7	Sololá	712	San Antonio Palopó	9	San Antonio Palopo	3	Marzo	2023-03-30T00:00:00	2024-11-08T04:00:00	1	Precipitación	0
162332	7	Sololá	712	San Antonio Palopó	9	San Antonio Palopo	3	Marzo	2023-03-30T00:00:00	2024-11-08T04:00:00	8	Radiación solar	0
162333	7	Sololá	712	San Antonio Palopó	9	San Antonio Palopo	3	Marzo	2023-03-30T00:00:00	2024-11-08T05:00:00	2	Temperatura media	16.5
162334	7	Sololá	712	San Antonio Palopó	9	San Antonio Palopo	3	Marzo	2023-03-30T00:00:00	2024-11-08T05:00:00	4	Temperatura máxima	17.4
162335	7	Sololá	712	San Antonio Palopó	9	San Antonio Palopo	3	Marzo	2023-03-30T00:00:00	2024-11-08T05:00:00	3	Temperatura mínima	16.4
162336	7	Sololá	712	San Antonio Palopó	9	San Antonio Palopo	3	Marzo	2023-03-30T00:00:00	2024-11-08T05:00:00	5	Humedad	63
162337	7	Sololá	712	San Antonio Palopó	9	San Antonio Palopo	3	Marzo	2023-03-30T00:00:00	2024-11-08T05:00:00	6	Velocidad del viento	14.5
162338	7	Sololá	712	San Antonio Palopó	9	San Antonio Palopo	3	Marzo	2023-03-30T00:00:00	2024-11-08T05:00:00	7	Dirección del viento	14.48
162339	7	Sololá	712	San Antonio Palopó	9	San Antonio Palopo	3	Marzo	2023-03-30T00:00:00	2024-11-08T05:00:00	1	Precipitación	0
162340	7	Sololá	712	San Antonio Palopó	9	San Antonio Palopo	3	Marzo	2023-03-30T00:00:00	2024-11-08T05:00:00	8	Radiación solar	0
162341	7	Sololá	712	San Antonio Palopó	9	San Antonio Palopo	3	Marzo	2023-03-30T00:00:00	2024-11-08T06:00:00	2	Temperatura media	16.3
162342	7	Sololá	712	San Antonio Palopó	9	San Antonio Palopo	3	Marzo	2023-03-30T00:00:00	2024-11-08T06:00:00	4	Temperatura máxima	16.6
162343	7	Sololá	712	San Antonio Palopó	9	San Antonio Palopo	3	Marzo	2023-03-30T00:00:00	2024-11-08T06:00:00	3	Temperatura mínima	16.3
162344	7	Sololá	712	San Antonio Palopó	9	San Antonio Palopo	3	Marzo	2023-03-30T00:00:00	2024-11-08T06:00:00	5	Humedad	63
162345	7	Sololá	712	San Antonio Palopó	9	San Antonio Palopo	3	Marzo	2023-03-30T00:00:00	2024-11-08T06:00:00	6	Velocidad del viento	9.7
162346	7	Sololá	712	San Antonio Palopó	9	San Antonio Palopo	3	Marzo	2023-03-30T00:00:00	2024-11-08T06:00:00	7	Dirección del viento	9.66
162347	7	Sololá	712	San Antonio Palopó	9	San Antonio Palopo	3	Marzo	2023-03-30T00:00:00	2024-11-08T06:00:00	1	Precipitación	0
162348	7	Sololá	712	San Antonio Palopó	9	San Antonio Palopo	3	Marzo	2023-03-30T00:00:00	2024-11-08T06:00:00	8	Radiación solar	0
162349	7	Sololá	712	San Antonio Palopó	9	San Antonio Palopo	3	Marzo	2023-03-30T00:00:00	2024-11-08T07:00:00	2	Temperatura media	16.3
162350	7	Sololá	712	San Antonio Palopó	9	San Antonio Palopo	3	Marzo	2023-03-30T00:00:00	2024-11-08T07:00:00	4	Temperatura máxima	16.4
162351	7	Sololá	712	San Antonio Palopó	9	San Antonio Palopo	3	Marzo	2023-03-30T00:00:00	2024-11-08T07:00:00	3	Temperatura mínima	16.1
162352	7	Sololá	712	San Antonio Palopó	9	San Antonio Palopo	3	Marzo	2023-03-30T00:00:00	2024-11-08T07:00:00	5	Humedad	64
162353	7	Sololá	712	San Antonio Palopó	9	San Antonio Palopo	3	Marzo	2023-03-30T00:00:00	2024-11-08T07:00:00	6	Velocidad del viento	8
162354	7	Sololá	712	San Antonio Palopó	9	San Antonio Palopo	3	Marzo	2023-03-30T00:00:00	2024-11-08T07:00:00	7	Dirección del viento	8.05
162355	7	Sololá	712	San Antonio Palopó	9	San Antonio Palopo	3	Marzo	2023-03-30T00:00:00	2024-11-08T07:00:00	1	Precipitación	0
162356	7	Sololá	712	San Antonio Palopó	9	San Antonio Palopo	3	Marzo	2023-03-30T00:00:00	2024-11-08T07:00:00	8	Radiación solar	14
162357	7	Sololá	712	San Antonio Palopó	9	San Antonio Palopo	3	Marzo	2023-03-30T00:00:00	2024-11-08T08:00:00	2	Temperatura media	16.9
162358	7	Sololá	712	San Antonio Palopó	9	San Antonio Palopo	3	Marzo	2023-03-30T00:00:00	2024-11-08T08:00:00	4	Temperatura máxima	16.9
162359	7	Sololá	712	San Antonio Palopó	9	San Antonio Palopo	3	Marzo	2023-03-30T00:00:00	2024-11-08T08:00:00	3	Temperatura mínima	16.2
162360	7	Sololá	712	San Antonio Palopó	9	San Antonio Palopo	3	Marzo	2023-03-30T00:00:00	2024-11-08T08:00:00	5	Humedad	64
162361	7	Sololá	712	San Antonio Palopó	9	San Antonio Palopo	3	Marzo	2023-03-30T00:00:00	2024-11-08T08:00:00	6	Velocidad del viento	4.8
162362	7	Sololá	712	San Antonio Palopó	9	San Antonio Palopo	3	Marzo	2023-03-30T00:00:00	2024-11-08T08:00:00	7	Dirección del viento	4.83
162363	7	Sololá	712	San Antonio Palopó	9	San Antonio Palopo	3	Marzo	2023-03-30T00:00:00	2024-11-08T08:00:00	1	Precipitación	0
162364	7	Sololá	712	San Antonio Palopó	9	San Antonio Palopo	3	Marzo	2023-03-30T00:00:00	2024-11-08T08:00:00	8	Radiación solar	69
162365	7	Sololá	712	San Antonio Palopó	9	San Antonio Palopo	3	Marzo	2023-03-30T00:00:00	2024-11-08T09:00:00	2	Temperatura media	20.2
162366	7	Sololá	712	San Antonio Palopó	9	San Antonio Palopo	3	Marzo	2023-03-30T00:00:00	2024-11-08T09:00:00	4	Temperatura máxima	20.6
162367	7	Sololá	712	San Antonio Palopó	9	San Antonio Palopo	3	Marzo	2023-03-30T00:00:00	2024-11-08T09:00:00	3	Temperatura mínima	16.9
162368	7	Sololá	712	San Antonio Palopó	9	San Antonio Palopo	3	Marzo	2023-03-30T00:00:00	2024-11-08T09:00:00	5	Humedad	55
162369	7	Sololá	712	San Antonio Palopó	9	San Antonio Palopo	3	Marzo	2023-03-30T00:00:00	2024-11-08T09:00:00	6	Velocidad del viento	1.6
162370	7	Sololá	712	San Antonio Palopó	9	San Antonio Palopo	3	Marzo	2023-03-30T00:00:00	2024-11-08T09:00:00	7	Dirección del viento	1.61
162371	7	Sololá	712	San Antonio Palopó	9	San Antonio Palopo	3	Marzo	2023-03-30T00:00:00	2024-11-08T09:00:00	1	Precipitación	0
162372	7	Sololá	712	San Antonio Palopó	9	San Antonio Palopo	3	Marzo	2023-03-30T00:00:00	2024-11-08T09:00:00	8	Radiación solar	385
162373	7	Sololá	712	San Antonio Palopó	9	San Antonio Palopo	3	Marzo	2023-03-30T00:00:00	2024-11-08T10:00:00	2	Temperatura media	22.2
162374	7	Sololá	712	San Antonio Palopó	9	San Antonio Palopo	3	Marzo	2023-03-30T00:00:00	2024-11-08T10:00:00	4	Temperatura máxima	22.5
162375	7	Sololá	712	San Antonio Palopó	9	San Antonio Palopo	3	Marzo	2023-03-30T00:00:00	2024-11-08T10:00:00	3	Temperatura mínima	19.8
162376	7	Sololá	712	San Antonio Palopó	9	San Antonio Palopo	3	Marzo	2023-03-30T00:00:00	2024-11-08T10:00:00	5	Humedad	45
162377	7	Sololá	712	San Antonio Palopó	9	San Antonio Palopo	3	Marzo	2023-03-30T00:00:00	2024-11-08T10:00:00	6	Velocidad del viento	11.3
162378	7	Sololá	712	San Antonio Palopó	9	San Antonio Palopo	3	Marzo	2023-03-30T00:00:00	2024-11-08T10:00:00	7	Dirección del viento	11.27
162379	7	Sololá	712	San Antonio Palopó	9	San Antonio Palopo	3	Marzo	2023-03-30T00:00:00	2024-11-08T10:00:00	1	Precipitación	0
162380	7	Sololá	712	San Antonio Palopó	9	San Antonio Palopo	3	Marzo	2023-03-30T00:00:00	2024-11-08T10:00:00	8	Radiación solar	622
162381	7	Sololá	712	San Antonio Palopó	9	San Antonio Palopo	3	Marzo	2023-03-30T00:00:00	2024-11-08T11:00:00	2	Temperatura media	23.5
162382	7	Sololá	712	San Antonio Palopó	9	San Antonio Palopo	3	Marzo	2023-03-30T00:00:00	2024-11-08T11:00:00	4	Temperatura máxima	23.5
162383	7	Sololá	712	San Antonio Palopó	9	San Antonio Palopo	3	Marzo	2023-03-30T00:00:00	2024-11-08T11:00:00	3	Temperatura mínima	22.2
162384	7	Sololá	712	San Antonio Palopó	9	San Antonio Palopo	3	Marzo	2023-03-30T00:00:00	2024-11-08T11:00:00	5	Humedad	44
162385	7	Sololá	712	San Antonio Palopó	9	San Antonio Palopo	3	Marzo	2023-03-30T00:00:00	2024-11-08T11:00:00	6	Velocidad del viento	17.7
162386	7	Sololá	712	San Antonio Palopó	9	San Antonio Palopo	3	Marzo	2023-03-30T00:00:00	2024-11-08T11:00:00	7	Dirección del viento	17.7
162387	7	Sololá	712	San Antonio Palopó	9	San Antonio Palopo	3	Marzo	2023-03-30T00:00:00	2024-11-08T11:00:00	1	Precipitación	0
162388	7	Sololá	712	San Antonio Palopó	9	San Antonio Palopo	3	Marzo	2023-03-30T00:00:00	2024-11-08T11:00:00	8	Radiación solar	854
162389	7	Sololá	712	San Antonio Palopó	9	San Antonio Palopo	3	Marzo	2023-03-30T00:00:00	2024-11-08T12:00:00	2	Temperatura media	24.1
162390	7	Sololá	712	San Antonio Palopó	9	San Antonio Palopo	3	Marzo	2023-03-30T00:00:00	2024-11-08T12:00:00	4	Temperatura máxima	24.1
162391	7	Sololá	712	San Antonio Palopó	9	San Antonio Palopo	3	Marzo	2023-03-30T00:00:00	2024-11-08T12:00:00	3	Temperatura mínima	23.3
162392	7	Sololá	712	San Antonio Palopó	9	San Antonio Palopo	3	Marzo	2023-03-30T00:00:00	2024-11-08T12:00:00	5	Humedad	41
162393	7	Sololá	712	San Antonio Palopó	9	San Antonio Palopo	3	Marzo	2023-03-30T00:00:00	2024-11-08T12:00:00	6	Velocidad del viento	14.5
162394	7	Sololá	712	San Antonio Palopó	9	San Antonio Palopo	3	Marzo	2023-03-30T00:00:00	2024-11-08T12:00:00	7	Dirección del viento	14.48
162395	7	Sololá	712	San Antonio Palopó	9	San Antonio Palopo	3	Marzo	2023-03-30T00:00:00	2024-11-08T12:00:00	1	Precipitación	0
162396	7	Sololá	712	San Antonio Palopó	9	San Antonio Palopo	3	Marzo	2023-03-30T00:00:00	2024-11-08T12:00:00	8	Radiación solar	947
162397	7	Sololá	712	San Antonio Palopó	9	San Antonio Palopo	3	Marzo	2023-03-30T00:00:00	2024-11-08T13:00:00	2	Temperatura media	24.8
162398	7	Sololá	712	San Antonio Palopó	9	San Antonio Palopo	3	Marzo	2023-03-30T00:00:00	2024-11-08T13:00:00	4	Temperatura máxima	24.9
162399	7	Sololá	712	San Antonio Palopó	9	San Antonio Palopo	3	Marzo	2023-03-30T00:00:00	2024-11-08T13:00:00	3	Temperatura mínima	23.7
162400	7	Sololá	712	San Antonio Palopó	9	San Antonio Palopo	3	Marzo	2023-03-30T00:00:00	2024-11-08T13:00:00	5	Humedad	38
162401	7	Sololá	712	San Antonio Palopó	9	San Antonio Palopo	3	Marzo	2023-03-30T00:00:00	2024-11-08T13:00:00	6	Velocidad del viento	19.3
162402	7	Sololá	712	San Antonio Palopó	9	San Antonio Palopo	3	Marzo	2023-03-30T00:00:00	2024-11-08T13:00:00	7	Dirección del viento	19.31
162403	7	Sololá	712	San Antonio Palopó	9	San Antonio Palopo	3	Marzo	2023-03-30T00:00:00	2024-11-08T13:00:00	1	Precipitación	0
162404	7	Sololá	712	San Antonio Palopó	9	San Antonio Palopo	3	Marzo	2023-03-30T00:00:00	2024-11-08T13:00:00	8	Radiación solar	930
162405	7	Sololá	712	San Antonio Palopó	9	San Antonio Palopo	3	Marzo	2023-03-30T00:00:00	2024-11-08T14:00:00	2	Temperatura media	25.8
162406	7	Sololá	712	San Antonio Palopó	9	San Antonio Palopo	3	Marzo	2023-03-30T00:00:00	2024-11-08T14:00:00	4	Temperatura máxima	26.2
162407	7	Sololá	712	San Antonio Palopó	9	San Antonio Palopo	3	Marzo	2023-03-30T00:00:00	2024-11-08T14:00:00	3	Temperatura mínima	24.5
162408	7	Sololá	712	San Antonio Palopó	9	San Antonio Palopo	3	Marzo	2023-03-30T00:00:00	2024-11-08T14:00:00	5	Humedad	34
162409	7	Sololá	712	San Antonio Palopó	9	San Antonio Palopo	3	Marzo	2023-03-30T00:00:00	2024-11-08T14:00:00	6	Velocidad del viento	14.5
162410	7	Sololá	712	San Antonio Palopó	9	San Antonio Palopo	3	Marzo	2023-03-30T00:00:00	2024-11-08T14:00:00	7	Dirección del viento	14.48
162411	7	Sololá	712	San Antonio Palopó	9	San Antonio Palopo	3	Marzo	2023-03-30T00:00:00	2024-11-08T14:00:00	1	Precipitación	0
162412	7	Sololá	712	San Antonio Palopó	9	San Antonio Palopo	3	Marzo	2023-03-30T00:00:00	2024-11-08T14:00:00	8	Radiación solar	876
162413	7	Sololá	712	San Antonio Palopó	9	San Antonio Palopo	3	Marzo	2023-03-30T00:00:00	2024-11-08T15:00:00	2	Temperatura media	25.2
162414	7	Sololá	712	San Antonio Palopó	9	San Antonio Palopo	3	Marzo	2023-03-30T00:00:00	2024-11-08T15:00:00	4	Temperatura máxima	26.4
162415	7	Sololá	712	San Antonio Palopó	9	San Antonio Palopo	3	Marzo	2023-03-30T00:00:00	2024-11-08T15:00:00	3	Temperatura mínima	24.2
162416	7	Sololá	712	San Antonio Palopó	9	San Antonio Palopo	3	Marzo	2023-03-30T00:00:00	2024-11-08T15:00:00	5	Humedad	50
162417	7	Sololá	712	San Antonio Palopó	9	San Antonio Palopo	3	Marzo	2023-03-30T00:00:00	2024-11-08T15:00:00	6	Velocidad del viento	12.9
162418	7	Sololá	712	San Antonio Palopó	9	San Antonio Palopo	3	Marzo	2023-03-30T00:00:00	2024-11-08T15:00:00	7	Dirección del viento	12.87
162419	7	Sololá	712	San Antonio Palopó	9	San Antonio Palopo	3	Marzo	2023-03-30T00:00:00	2024-11-08T15:00:00	1	Precipitación	0
162420	7	Sololá	712	San Antonio Palopó	9	San Antonio Palopo	3	Marzo	2023-03-30T00:00:00	2024-11-08T15:00:00	8	Radiación solar	735
162421	7	Sololá	712	San Antonio Palopó	9	San Antonio Palopo	3	Marzo	2023-03-30T00:00:00	2024-11-08T16:00:00	2	Temperatura media	23.4
162422	7	Sololá	712	San Antonio Palopó	9	San Antonio Palopo	3	Marzo	2023-03-30T00:00:00	2024-11-08T16:00:00	4	Temperatura máxima	25.2
162423	7	Sololá	712	San Antonio Palopó	9	San Antonio Palopo	3	Marzo	2023-03-30T00:00:00	2024-11-08T16:00:00	3	Temperatura mínima	23.3
162424	7	Sololá	712	San Antonio Palopó	9	San Antonio Palopo	3	Marzo	2023-03-30T00:00:00	2024-11-08T16:00:00	5	Humedad	62
162425	7	Sololá	712	San Antonio Palopó	9	San Antonio Palopo	3	Marzo	2023-03-30T00:00:00	2024-11-08T16:00:00	6	Velocidad del viento	17.7
162426	7	Sololá	712	San Antonio Palopó	9	San Antonio Palopo	3	Marzo	2023-03-30T00:00:00	2024-11-08T16:00:00	7	Dirección del viento	17.7
162427	7	Sololá	712	San Antonio Palopó	9	San Antonio Palopo	3	Marzo	2023-03-30T00:00:00	2024-11-08T16:00:00	1	Precipitación	0
162428	7	Sololá	712	San Antonio Palopó	9	San Antonio Palopo	3	Marzo	2023-03-30T00:00:00	2024-11-08T16:00:00	8	Radiación solar	532
162429	7	Sololá	712	San Antonio Palopó	9	San Antonio Palopo	3	Marzo	2023-03-30T00:00:00	2024-11-08T17:00:00	2	Temperatura media	23.4
162430	7	Sololá	712	San Antonio Palopó	9	San Antonio Palopo	3	Marzo	2023-03-30T00:00:00	2024-11-08T17:00:00	4	Temperatura máxima	24.3
162431	7	Sololá	712	San Antonio Palopó	9	San Antonio Palopo	3	Marzo	2023-03-30T00:00:00	2024-11-08T17:00:00	3	Temperatura mínima	23.2
162432	7	Sololá	712	San Antonio Palopó	9	San Antonio Palopo	3	Marzo	2023-03-30T00:00:00	2024-11-08T17:00:00	5	Humedad	59
162433	7	Sololá	712	San Antonio Palopó	9	San Antonio Palopo	3	Marzo	2023-03-30T00:00:00	2024-11-08T17:00:00	6	Velocidad del viento	14.5
162434	7	Sololá	712	San Antonio Palopó	9	San Antonio Palopo	3	Marzo	2023-03-30T00:00:00	2024-11-08T17:00:00	7	Dirección del viento	14.48
162435	7	Sololá	712	San Antonio Palopó	9	San Antonio Palopo	3	Marzo	2023-03-30T00:00:00	2024-11-08T17:00:00	1	Precipitación	0
162436	7	Sololá	712	San Antonio Palopó	9	San Antonio Palopo	3	Marzo	2023-03-30T00:00:00	2024-11-08T17:00:00	8	Radiación solar	322
162437	7	Sololá	712	San Antonio Palopó	9	San Antonio Palopo	3	Marzo	2023-03-30T00:00:00	2024-11-08T18:00:00	2	Temperatura media	21.9
162438	7	Sololá	712	San Antonio Palopó	9	San Antonio Palopo	3	Marzo	2023-03-30T00:00:00	2024-11-08T18:00:00	4	Temperatura máxima	23.6
162439	7	Sololá	712	San Antonio Palopó	9	San Antonio Palopo	3	Marzo	2023-03-30T00:00:00	2024-11-08T18:00:00	3	Temperatura mínima	21.9
162440	7	Sololá	712	San Antonio Palopó	9	San Antonio Palopo	3	Marzo	2023-03-30T00:00:00	2024-11-08T18:00:00	5	Humedad	67
162441	7	Sololá	712	San Antonio Palopó	9	San Antonio Palopo	3	Marzo	2023-03-30T00:00:00	2024-11-08T18:00:00	6	Velocidad del viento	11.3
162442	7	Sololá	712	San Antonio Palopó	9	San Antonio Palopo	3	Marzo	2023-03-30T00:00:00	2024-11-08T18:00:00	7	Dirección del viento	11.27
162443	7	Sololá	712	San Antonio Palopó	9	San Antonio Palopo	3	Marzo	2023-03-30T00:00:00	2024-11-08T18:00:00	1	Precipitación	0
162444	7	Sololá	712	San Antonio Palopó	9	San Antonio Palopo	3	Marzo	2023-03-30T00:00:00	2024-11-08T18:00:00	8	Radiación solar	94
162445	7	Sololá	712	San Antonio Palopó	9	San Antonio Palopo	3	Marzo	2023-03-30T00:00:00	2024-11-08T19:00:00	2	Temperatura media	20
162446	7	Sololá	712	San Antonio Palopó	9	San Antonio Palopo	3	Marzo	2023-03-30T00:00:00	2024-11-08T19:00:00	4	Temperatura máxima	21.9
162447	7	Sololá	712	San Antonio Palopó	9	San Antonio Palopo	3	Marzo	2023-03-30T00:00:00	2024-11-08T19:00:00	3	Temperatura mínima	20
162448	7	Sololá	712	San Antonio Palopó	9	San Antonio Palopo	3	Marzo	2023-03-30T00:00:00	2024-11-08T19:00:00	5	Humedad	74
162449	7	Sololá	712	San Antonio Palopó	9	San Antonio Palopo	3	Marzo	2023-03-30T00:00:00	2024-11-08T19:00:00	6	Velocidad del viento	6.4
162450	7	Sololá	712	San Antonio Palopó	9	San Antonio Palopo	3	Marzo	2023-03-30T00:00:00	2024-11-08T19:00:00	7	Dirección del viento	6.44
162451	7	Sololá	712	San Antonio Palopó	9	San Antonio Palopo	3	Marzo	2023-03-30T00:00:00	2024-11-08T19:00:00	1	Precipitación	0
162452	7	Sololá	712	San Antonio Palopó	9	San Antonio Palopo	3	Marzo	2023-03-30T00:00:00	2024-11-08T19:00:00	8	Radiación solar	0
162453	7	Sololá	712	San Antonio Palopó	9	San Antonio Palopo	3	Marzo	2023-03-30T00:00:00	2024-11-08T20:00:00	2	Temperatura media	19.3
162454	7	Sololá	712	San Antonio Palopó	9	San Antonio Palopo	3	Marzo	2023-03-30T00:00:00	2024-11-08T20:00:00	4	Temperatura máxima	20
162455	7	Sololá	712	San Antonio Palopó	9	San Antonio Palopo	3	Marzo	2023-03-30T00:00:00	2024-11-08T20:00:00	3	Temperatura mínima	19.3
162456	7	Sololá	712	San Antonio Palopó	9	San Antonio Palopo	3	Marzo	2023-03-30T00:00:00	2024-11-08T20:00:00	5	Humedad	79
162457	7	Sololá	712	San Antonio Palopó	9	San Antonio Palopo	3	Marzo	2023-03-30T00:00:00	2024-11-08T20:00:00	6	Velocidad del viento	4.8
162458	7	Sololá	712	San Antonio Palopó	9	San Antonio Palopo	3	Marzo	2023-03-30T00:00:00	2024-11-08T20:00:00	7	Dirección del viento	4.83
162459	7	Sololá	712	San Antonio Palopó	9	San Antonio Palopo	3	Marzo	2023-03-30T00:00:00	2024-11-08T20:00:00	1	Precipitación	0
162460	7	Sololá	712	San Antonio Palopó	9	San Antonio Palopo	3	Marzo	2023-03-30T00:00:00	2024-11-08T20:00:00	8	Radiación solar	0
162461	7	Sololá	712	San Antonio Palopó	9	San Antonio Palopo	3	Marzo	2023-03-30T00:00:00	2024-11-08T21:00:00	2	Temperatura media	18.9
162462	7	Sololá	712	San Antonio Palopó	9	San Antonio Palopo	3	Marzo	2023-03-30T00:00:00	2024-11-08T21:00:00	4	Temperatura máxima	19.3
162463	7	Sololá	712	San Antonio Palopó	9	San Antonio Palopo	3	Marzo	2023-03-30T00:00:00	2024-11-08T21:00:00	3	Temperatura mínima	18.8
162464	7	Sololá	712	San Antonio Palopó	9	San Antonio Palopo	3	Marzo	2023-03-30T00:00:00	2024-11-08T21:00:00	5	Humedad	74
162465	7	Sololá	712	San Antonio Palopó	9	San Antonio Palopo	3	Marzo	2023-03-30T00:00:00	2024-11-08T21:00:00	6	Velocidad del viento	1.6
162466	7	Sololá	712	San Antonio Palopó	9	San Antonio Palopo	3	Marzo	2023-03-30T00:00:00	2024-11-08T21:00:00	7	Dirección del viento	1.61
162467	7	Sololá	712	San Antonio Palopó	9	San Antonio Palopo	3	Marzo	2023-03-30T00:00:00	2024-11-08T21:00:00	1	Precipitación	0
162468	7	Sololá	712	San Antonio Palopó	9	San Antonio Palopo	3	Marzo	2023-03-30T00:00:00	2024-11-08T21:00:00	8	Radiación solar	0
162469	7	Sololá	712	San Antonio Palopó	9	San Antonio Palopo	3	Marzo	2023-03-30T00:00:00	2024-11-08T22:00:00	2	Temperatura media	18.7
162470	7	Sololá	712	San Antonio Palopó	9	San Antonio Palopo	3	Marzo	2023-03-30T00:00:00	2024-11-08T22:00:00	4	Temperatura máxima	19.6
162471	7	Sololá	712	San Antonio Palopó	9	San Antonio Palopo	3	Marzo	2023-03-30T00:00:00	2024-11-08T22:00:00	3	Temperatura mínima	18.7
162472	7	Sololá	712	San Antonio Palopó	9	San Antonio Palopo	3	Marzo	2023-03-30T00:00:00	2024-11-08T22:00:00	5	Humedad	68
162473	7	Sololá	712	San Antonio Palopó	9	San Antonio Palopo	3	Marzo	2023-03-30T00:00:00	2024-11-08T22:00:00	6	Velocidad del viento	6.4
162474	7	Sololá	712	San Antonio Palopó	9	San Antonio Palopo	3	Marzo	2023-03-30T00:00:00	2024-11-08T22:00:00	7	Dirección del viento	6.44
162475	7	Sololá	712	San Antonio Palopó	9	San Antonio Palopo	3	Marzo	2023-03-30T00:00:00	2024-11-08T22:00:00	1	Precipitación	0
162476	7	Sololá	712	San Antonio Palopó	9	San Antonio Palopo	3	Marzo	2023-03-30T00:00:00	2024-11-08T22:00:00	8	Radiación solar	0
162477	7	Sololá	712	San Antonio Palopó	9	San Antonio Palopo	3	Marzo	2023-03-30T00:00:00	2024-11-08T23:00:00	2	Temperatura media	18.7
162478	7	Sololá	712	San Antonio Palopó	9	San Antonio Palopo	3	Marzo	2023-03-30T00:00:00	2024-11-08T23:00:00	4	Temperatura máxima	18.9
162479	7	Sololá	712	San Antonio Palopó	9	San Antonio Palopo	3	Marzo	2023-03-30T00:00:00	2024-11-08T23:00:00	3	Temperatura mínima	18.6
162480	7	Sololá	712	San Antonio Palopó	9	San Antonio Palopo	3	Marzo	2023-03-30T00:00:00	2024-11-08T23:00:00	5	Humedad	67
162481	7	Sololá	712	San Antonio Palopó	9	San Antonio Palopo	3	Marzo	2023-03-30T00:00:00	2024-11-08T23:00:00	6	Velocidad del viento	8
162482	7	Sololá	712	San Antonio Palopó	9	San Antonio Palopo	3	Marzo	2023-03-30T00:00:00	2024-11-08T23:00:00	7	Dirección del viento	8.05
162483	7	Sololá	712	San Antonio Palopó	9	San Antonio Palopo	3	Marzo	2023-03-30T00:00:00	2024-11-08T23:00:00	1	Precipitación	0
162484	7	Sololá	712	San Antonio Palopó	9	San Antonio Palopo	3	Marzo	2023-03-30T00:00:00	2024-11-08T23:00:00	8	Radiación solar	0
162485	7	Sololá	712	San Antonio Palopó	9	San Antonio Palopo	3	Marzo	2023-03-31T00:00:00	2024-11-08T00:00:00	2	Temperatura media	18.4
162486	7	Sololá	712	San Antonio Palopó	9	San Antonio Palopo	3	Marzo	2023-03-31T00:00:00	2024-11-08T00:00:00	4	Temperatura máxima	18.7
162487	7	Sololá	712	San Antonio Palopó	9	San Antonio Palopo	3	Marzo	2023-03-31T00:00:00	2024-11-08T00:00:00	3	Temperatura mínima	18
162488	7	Sololá	712	San Antonio Palopó	9	San Antonio Palopo	3	Marzo	2023-03-31T00:00:00	2024-11-08T00:00:00	5	Humedad	68
162489	7	Sololá	712	San Antonio Palopó	9	San Antonio Palopo	3	Marzo	2023-03-31T00:00:00	2024-11-08T00:00:00	6	Velocidad del viento	12.9
162490	7	Sololá	712	San Antonio Palopó	9	San Antonio Palopo	3	Marzo	2023-03-31T00:00:00	2024-11-08T00:00:00	7	Dirección del viento	12.87
162491	7	Sololá	712	San Antonio Palopó	9	San Antonio Palopo	3	Marzo	2023-03-31T00:00:00	2024-11-08T00:00:00	1	Precipitación	0
162492	7	Sololá	712	San Antonio Palopó	9	San Antonio Palopo	3	Marzo	2023-03-31T00:00:00	2024-11-08T00:00:00	8	Radiación solar	0
162493	7	Sololá	712	San Antonio Palopó	9	San Antonio Palopo	3	Marzo	2023-03-31T00:00:00	2024-11-08T01:00:00	2	Temperatura media	18.8
162494	7	Sololá	712	San Antonio Palopó	9	San Antonio Palopo	3	Marzo	2023-03-31T00:00:00	2024-11-08T01:00:00	4	Temperatura máxima	18.9
162495	7	Sololá	712	San Antonio Palopó	9	San Antonio Palopo	3	Marzo	2023-03-31T00:00:00	2024-11-08T01:00:00	3	Temperatura mínima	18.2
162496	7	Sololá	712	San Antonio Palopó	9	San Antonio Palopo	3	Marzo	2023-03-31T00:00:00	2024-11-08T01:00:00	5	Humedad	62
162497	7	Sololá	712	San Antonio Palopó	9	San Antonio Palopo	3	Marzo	2023-03-31T00:00:00	2024-11-08T01:00:00	6	Velocidad del viento	14.5
162498	7	Sololá	712	San Antonio Palopó	9	San Antonio Palopo	3	Marzo	2023-03-31T00:00:00	2024-11-08T01:00:00	7	Dirección del viento	14.48
162499	7	Sololá	712	San Antonio Palopó	9	San Antonio Palopo	3	Marzo	2023-03-31T00:00:00	2024-11-08T01:00:00	1	Precipitación	0
162500	7	Sololá	712	San Antonio Palopó	9	San Antonio Palopo	3	Marzo	2023-03-31T00:00:00	2024-11-08T01:00:00	8	Radiación solar	0
162501	7	Sololá	712	San Antonio Palopó	9	San Antonio Palopo	3	Marzo	2023-03-31T00:00:00	2024-11-08T02:00:00	2	Temperatura media	17.2
162502	7	Sololá	712	San Antonio Palopó	9	San Antonio Palopo	3	Marzo	2023-03-31T00:00:00	2024-11-08T02:00:00	4	Temperatura máxima	18.8
162503	7	Sololá	712	San Antonio Palopó	9	San Antonio Palopo	3	Marzo	2023-03-31T00:00:00	2024-11-08T02:00:00	3	Temperatura mínima	17.2
162504	7	Sololá	712	San Antonio Palopó	9	San Antonio Palopo	3	Marzo	2023-03-31T00:00:00	2024-11-08T02:00:00	5	Humedad	70
162505	7	Sololá	712	San Antonio Palopó	9	San Antonio Palopo	3	Marzo	2023-03-31T00:00:00	2024-11-08T02:00:00	6	Velocidad del viento	14.5
162506	7	Sololá	712	San Antonio Palopó	9	San Antonio Palopo	3	Marzo	2023-03-31T00:00:00	2024-11-08T02:00:00	7	Dirección del viento	14.48
162507	7	Sololá	712	San Antonio Palopó	9	San Antonio Palopo	3	Marzo	2023-03-31T00:00:00	2024-11-08T02:00:00	1	Precipitación	0
162508	7	Sololá	712	San Antonio Palopó	9	San Antonio Palopo	3	Marzo	2023-03-31T00:00:00	2024-11-08T02:00:00	8	Radiación solar	0
162509	7	Sololá	712	San Antonio Palopó	9	San Antonio Palopo	3	Marzo	2023-03-31T00:00:00	2024-11-08T03:00:00	2	Temperatura media	16.8
162510	7	Sololá	712	San Antonio Palopó	9	San Antonio Palopo	3	Marzo	2023-03-31T00:00:00	2024-11-08T03:00:00	4	Temperatura máxima	17.2
162511	7	Sololá	712	San Antonio Palopó	9	San Antonio Palopo	3	Marzo	2023-03-31T00:00:00	2024-11-08T03:00:00	3	Temperatura mínima	16.7
162512	7	Sololá	712	San Antonio Palopó	9	San Antonio Palopo	3	Marzo	2023-03-31T00:00:00	2024-11-08T03:00:00	5	Humedad	71
162513	7	Sololá	712	San Antonio Palopó	9	San Antonio Palopo	3	Marzo	2023-03-31T00:00:00	2024-11-08T03:00:00	6	Velocidad del viento	20.9
162514	7	Sololá	712	San Antonio Palopó	9	San Antonio Palopo	3	Marzo	2023-03-31T00:00:00	2024-11-08T03:00:00	7	Dirección del viento	20.92
162515	7	Sololá	712	San Antonio Palopó	9	San Antonio Palopo	3	Marzo	2023-03-31T00:00:00	2024-11-08T03:00:00	1	Precipitación	0
162516	7	Sololá	712	San Antonio Palopó	9	San Antonio Palopo	3	Marzo	2023-03-31T00:00:00	2024-11-08T03:00:00	8	Radiación solar	0
162517	7	Sololá	712	San Antonio Palopó	9	San Antonio Palopo	3	Marzo	2023-03-31T00:00:00	2024-11-08T04:00:00	2	Temperatura media	16.7
162518	7	Sololá	712	San Antonio Palopó	9	San Antonio Palopo	3	Marzo	2023-03-31T00:00:00	2024-11-08T04:00:00	4	Temperatura máxima	17.3
162519	7	Sololá	712	San Antonio Palopó	9	San Antonio Palopo	3	Marzo	2023-03-31T00:00:00	2024-11-08T04:00:00	3	Temperatura mínima	16.6
162520	7	Sololá	712	San Antonio Palopó	9	San Antonio Palopo	3	Marzo	2023-03-31T00:00:00	2024-11-08T04:00:00	5	Humedad	71
162521	7	Sololá	712	San Antonio Palopó	9	San Antonio Palopo	3	Marzo	2023-03-31T00:00:00	2024-11-08T04:00:00	6	Velocidad del viento	17.7
162522	7	Sololá	712	San Antonio Palopó	9	San Antonio Palopo	3	Marzo	2023-03-31T00:00:00	2024-11-08T04:00:00	7	Dirección del viento	17.7
162523	7	Sololá	712	San Antonio Palopó	9	San Antonio Palopo	3	Marzo	2023-03-31T00:00:00	2024-11-08T04:00:00	1	Precipitación	0
162524	7	Sololá	712	San Antonio Palopó	9	San Antonio Palopo	3	Marzo	2023-03-31T00:00:00	2024-11-08T04:00:00	8	Radiación solar	0
162525	7	Sololá	712	San Antonio Palopó	9	San Antonio Palopo	3	Marzo	2023-03-31T00:00:00	2024-11-08T05:00:00	2	Temperatura media	17.8
162526	7	Sololá	712	San Antonio Palopó	9	San Antonio Palopo	3	Marzo	2023-03-31T00:00:00	2024-11-08T05:00:00	4	Temperatura máxima	17.8
162527	7	Sololá	712	San Antonio Palopó	9	San Antonio Palopo	3	Marzo	2023-03-31T00:00:00	2024-11-08T05:00:00	3	Temperatura mínima	16.6
162528	7	Sololá	712	San Antonio Palopó	9	San Antonio Palopo	3	Marzo	2023-03-31T00:00:00	2024-11-08T05:00:00	5	Humedad	64
162529	7	Sololá	712	San Antonio Palopó	9	San Antonio Palopo	3	Marzo	2023-03-31T00:00:00	2024-11-08T05:00:00	6	Velocidad del viento	9.7
162530	7	Sololá	712	San Antonio Palopó	9	San Antonio Palopo	3	Marzo	2023-03-31T00:00:00	2024-11-08T05:00:00	7	Dirección del viento	9.66
162531	7	Sololá	712	San Antonio Palopó	9	San Antonio Palopo	3	Marzo	2023-03-31T00:00:00	2024-11-08T05:00:00	1	Precipitación	0
162532	7	Sololá	712	San Antonio Palopó	9	San Antonio Palopo	3	Marzo	2023-03-31T00:00:00	2024-11-08T05:00:00	8	Radiación solar	0
162533	7	Sololá	712	San Antonio Palopó	9	San Antonio Palopo	3	Marzo	2023-03-31T00:00:00	2024-11-08T06:00:00	2	Temperatura media	16.8
162534	7	Sololá	712	San Antonio Palopó	9	San Antonio Palopo	3	Marzo	2023-03-31T00:00:00	2024-11-08T06:00:00	4	Temperatura máxima	17.8
162535	7	Sololá	712	San Antonio Palopó	9	San Antonio Palopo	3	Marzo	2023-03-31T00:00:00	2024-11-08T06:00:00	3	Temperatura mínima	16.8
162536	7	Sololá	712	San Antonio Palopó	9	San Antonio Palopo	3	Marzo	2023-03-31T00:00:00	2024-11-08T06:00:00	5	Humedad	70
162537	7	Sololá	712	San Antonio Palopó	9	San Antonio Palopo	3	Marzo	2023-03-31T00:00:00	2024-11-08T06:00:00	6	Velocidad del viento	11.3
162538	7	Sololá	712	San Antonio Palopó	9	San Antonio Palopo	3	Marzo	2023-03-31T00:00:00	2024-11-08T06:00:00	7	Dirección del viento	11.27
162539	7	Sololá	712	San Antonio Palopó	9	San Antonio Palopo	3	Marzo	2023-03-31T00:00:00	2024-11-08T06:00:00	1	Precipitación	0
162540	7	Sololá	712	San Antonio Palopó	9	San Antonio Palopo	3	Marzo	2023-03-31T00:00:00	2024-11-08T06:00:00	8	Radiación solar	0
162541	7	Sololá	712	San Antonio Palopó	9	San Antonio Palopo	3	Marzo	2023-03-31T00:00:00	2024-11-08T07:00:00	2	Temperatura media	16.6
162542	7	Sololá	712	San Antonio Palopó	9	San Antonio Palopo	3	Marzo	2023-03-31T00:00:00	2024-11-08T07:00:00	4	Temperatura máxima	16.9
162543	7	Sololá	712	San Antonio Palopó	9	San Antonio Palopo	3	Marzo	2023-03-31T00:00:00	2024-11-08T07:00:00	3	Temperatura mínima	16.6
162544	7	Sololá	712	San Antonio Palopó	9	San Antonio Palopo	3	Marzo	2023-03-31T00:00:00	2024-11-08T07:00:00	5	Humedad	72
162545	7	Sololá	712	San Antonio Palopó	9	San Antonio Palopo	3	Marzo	2023-03-31T00:00:00	2024-11-08T07:00:00	6	Velocidad del viento	11.3
162546	7	Sololá	712	San Antonio Palopó	9	San Antonio Palopo	3	Marzo	2023-03-31T00:00:00	2024-11-08T07:00:00	7	Dirección del viento	11.27
162547	7	Sololá	712	San Antonio Palopó	9	San Antonio Palopo	3	Marzo	2023-03-31T00:00:00	2024-11-08T07:00:00	1	Precipitación	0
162548	7	Sololá	712	San Antonio Palopó	9	San Antonio Palopo	3	Marzo	2023-03-31T00:00:00	2024-11-08T07:00:00	8	Radiación solar	13
162549	7	Sololá	712	San Antonio Palopó	9	San Antonio Palopo	3	Marzo	2023-03-31T00:00:00	2024-11-08T08:00:00	2	Temperatura media	18.8
162550	7	Sololá	712	San Antonio Palopó	9	San Antonio Palopo	3	Marzo	2023-03-31T00:00:00	2024-11-08T08:00:00	4	Temperatura máxima	18.8
162551	7	Sololá	712	San Antonio Palopó	9	San Antonio Palopo	3	Marzo	2023-03-31T00:00:00	2024-11-08T08:00:00	3	Temperatura mínima	16.6
162552	7	Sololá	712	San Antonio Palopó	9	San Antonio Palopo	3	Marzo	2023-03-31T00:00:00	2024-11-08T08:00:00	5	Humedad	65
162553	7	Sololá	712	San Antonio Palopó	9	San Antonio Palopo	3	Marzo	2023-03-31T00:00:00	2024-11-08T08:00:00	6	Velocidad del viento	3.2
162554	7	Sololá	712	San Antonio Palopó	9	San Antonio Palopo	3	Marzo	2023-03-31T00:00:00	2024-11-08T08:00:00	7	Dirección del viento	3.22
162555	7	Sololá	712	San Antonio Palopó	9	San Antonio Palopo	3	Marzo	2023-03-31T00:00:00	2024-11-08T08:00:00	1	Precipitación	0
162556	7	Sololá	712	San Antonio Palopó	9	San Antonio Palopo	3	Marzo	2023-03-31T00:00:00	2024-11-08T08:00:00	8	Radiación solar	71
162557	7	Sololá	712	San Antonio Palopó	9	San Antonio Palopo	3	Marzo	2023-03-31T00:00:00	2024-11-08T09:00:00	2	Temperatura media	20.4
162558	7	Sololá	712	San Antonio Palopó	9	San Antonio Palopo	3	Marzo	2023-03-31T00:00:00	2024-11-08T09:00:00	4	Temperatura máxima	20.7
162559	7	Sololá	712	San Antonio Palopó	9	San Antonio Palopo	3	Marzo	2023-03-31T00:00:00	2024-11-08T09:00:00	3	Temperatura mínima	18.8
162560	7	Sololá	712	San Antonio Palopó	9	San Antonio Palopo	3	Marzo	2023-03-31T00:00:00	2024-11-08T09:00:00	5	Humedad	60
162561	7	Sololá	712	San Antonio Palopó	9	San Antonio Palopo	3	Marzo	2023-03-31T00:00:00	2024-11-08T09:00:00	6	Velocidad del viento	3.2
162562	7	Sololá	712	San Antonio Palopó	9	San Antonio Palopo	3	Marzo	2023-03-31T00:00:00	2024-11-08T09:00:00	7	Dirección del viento	3.22
162563	7	Sololá	712	San Antonio Palopó	9	San Antonio Palopo	3	Marzo	2023-03-31T00:00:00	2024-11-08T09:00:00	1	Precipitación	0
162564	7	Sololá	712	San Antonio Palopó	9	San Antonio Palopo	3	Marzo	2023-03-31T00:00:00	2024-11-08T09:00:00	8	Radiación solar	403
162565	7	Sololá	712	San Antonio Palopó	9	San Antonio Palopo	3	Marzo	2023-03-31T00:00:00	2024-11-08T10:00:00	2	Temperatura media	22.7
162566	7	Sololá	712	San Antonio Palopó	9	San Antonio Palopo	3	Marzo	2023-03-31T00:00:00	2024-11-08T10:00:00	4	Temperatura máxima	22.7
162567	7	Sololá	712	San Antonio Palopó	9	San Antonio Palopo	3	Marzo	2023-03-31T00:00:00	2024-11-08T10:00:00	3	Temperatura mínima	20.3
162568	7	Sololá	712	San Antonio Palopó	9	San Antonio Palopo	3	Marzo	2023-03-31T00:00:00	2024-11-08T10:00:00	5	Humedad	51
162569	7	Sololá	712	San Antonio Palopó	9	San Antonio Palopo	3	Marzo	2023-03-31T00:00:00	2024-11-08T10:00:00	6	Velocidad del viento	8
162570	7	Sololá	712	San Antonio Palopó	9	San Antonio Palopo	3	Marzo	2023-03-31T00:00:00	2024-11-08T10:00:00	7	Dirección del viento	8.05
162571	7	Sololá	712	San Antonio Palopó	9	San Antonio Palopo	3	Marzo	2023-03-31T00:00:00	2024-11-08T10:00:00	1	Precipitación	0
162572	7	Sololá	712	San Antonio Palopó	9	San Antonio Palopo	3	Marzo	2023-03-31T00:00:00	2024-11-08T10:00:00	8	Radiación solar	619
162573	7	Sololá	712	San Antonio Palopó	9	San Antonio Palopo	3	Marzo	2023-03-31T00:00:00	2024-11-08T11:00:00	2	Temperatura media	23.2
162574	7	Sololá	712	San Antonio Palopó	9	San Antonio Palopo	3	Marzo	2023-03-31T00:00:00	2024-11-08T11:00:00	4	Temperatura máxima	23.5
162575	7	Sololá	712	San Antonio Palopó	9	San Antonio Palopo	3	Marzo	2023-03-31T00:00:00	2024-11-08T11:00:00	3	Temperatura mínima	22.3
162576	7	Sololá	712	San Antonio Palopó	9	San Antonio Palopo	3	Marzo	2023-03-31T00:00:00	2024-11-08T11:00:00	5	Humedad	50
162577	7	Sololá	712	San Antonio Palopó	9	San Antonio Palopo	3	Marzo	2023-03-31T00:00:00	2024-11-08T11:00:00	6	Velocidad del viento	9.7
162578	7	Sololá	712	San Antonio Palopó	9	San Antonio Palopo	3	Marzo	2023-03-31T00:00:00	2024-11-08T11:00:00	7	Dirección del viento	9.66
162579	7	Sololá	712	San Antonio Palopó	9	San Antonio Palopo	3	Marzo	2023-03-31T00:00:00	2024-11-08T11:00:00	1	Precipitación	0
162580	7	Sololá	712	San Antonio Palopó	9	San Antonio Palopo	3	Marzo	2023-03-31T00:00:00	2024-11-08T11:00:00	8	Radiación solar	870
162581	7	Sololá	712	San Antonio Palopó	9	San Antonio Palopo	3	Marzo	2023-03-31T00:00:00	2024-11-08T12:00:00	2	Temperatura media	22.9
162582	7	Sololá	712	San Antonio Palopó	9	San Antonio Palopo	3	Marzo	2023-03-31T00:00:00	2024-11-08T12:00:00	4	Temperatura máxima	23.8
162583	7	Sololá	712	San Antonio Palopó	9	San Antonio Palopo	3	Marzo	2023-03-31T00:00:00	2024-11-08T12:00:00	3	Temperatura mínima	22.8
162584	7	Sololá	712	San Antonio Palopó	9	San Antonio Palopo	3	Marzo	2023-03-31T00:00:00	2024-11-08T12:00:00	5	Humedad	69
162585	7	Sololá	712	San Antonio Palopó	9	San Antonio Palopo	3	Marzo	2023-03-31T00:00:00	2024-11-08T12:00:00	6	Velocidad del viento	8
162586	7	Sololá	712	San Antonio Palopó	9	San Antonio Palopo	3	Marzo	2023-03-31T00:00:00	2024-11-08T12:00:00	7	Dirección del viento	8.05
162587	7	Sololá	712	San Antonio Palopó	9	San Antonio Palopo	3	Marzo	2023-03-31T00:00:00	2024-11-08T12:00:00	1	Precipitación	0
162588	7	Sololá	712	San Antonio Palopó	9	San Antonio Palopo	3	Marzo	2023-03-31T00:00:00	2024-11-08T12:00:00	8	Radiación solar	936
162589	7	Sololá	712	San Antonio Palopó	9	San Antonio Palopo	3	Marzo	2023-03-31T00:00:00	2024-11-08T13:00:00	2	Temperatura media	24
162590	7	Sololá	712	San Antonio Palopó	9	San Antonio Palopo	3	Marzo	2023-03-31T00:00:00	2024-11-08T13:00:00	4	Temperatura máxima	24.2
162591	7	Sololá	712	San Antonio Palopó	9	San Antonio Palopo	3	Marzo	2023-03-31T00:00:00	2024-11-08T13:00:00	3	Temperatura mínima	22.9
162592	7	Sololá	712	San Antonio Palopó	9	San Antonio Palopo	3	Marzo	2023-03-31T00:00:00	2024-11-08T13:00:00	5	Humedad	63
162593	7	Sololá	712	San Antonio Palopó	9	San Antonio Palopo	3	Marzo	2023-03-31T00:00:00	2024-11-08T13:00:00	6	Velocidad del viento	8
162594	7	Sololá	712	San Antonio Palopó	9	San Antonio Palopo	3	Marzo	2023-03-31T00:00:00	2024-11-08T13:00:00	7	Dirección del viento	8.05
162595	7	Sololá	712	San Antonio Palopó	9	San Antonio Palopo	3	Marzo	2023-03-31T00:00:00	2024-11-08T13:00:00	1	Precipitación	0
162596	7	Sololá	712	San Antonio Palopó	9	San Antonio Palopo	3	Marzo	2023-03-31T00:00:00	2024-11-08T13:00:00	8	Radiación solar	961
162597	7	Sololá	712	San Antonio Palopó	9	San Antonio Palopo	3	Marzo	2023-03-31T00:00:00	2024-11-08T14:00:00	2	Temperatura media	23.6
162598	7	Sololá	712	San Antonio Palopó	9	San Antonio Palopo	3	Marzo	2023-03-31T00:00:00	2024-11-08T14:00:00	4	Temperatura máxima	24.1
162599	7	Sololá	712	San Antonio Palopó	9	San Antonio Palopo	3	Marzo	2023-03-31T00:00:00	2024-11-08T14:00:00	3	Temperatura mínima	23.3
162600	7	Sololá	712	San Antonio Palopó	9	San Antonio Palopo	3	Marzo	2023-03-31T00:00:00	2024-11-08T14:00:00	5	Humedad	66
162601	7	Sololá	712	San Antonio Palopó	9	San Antonio Palopo	3	Marzo	2023-03-31T00:00:00	2024-11-08T14:00:00	6	Velocidad del viento	12.9
162602	7	Sololá	712	San Antonio Palopó	9	San Antonio Palopo	3	Marzo	2023-03-31T00:00:00	2024-11-08T14:00:00	7	Dirección del viento	12.87
162603	7	Sololá	712	San Antonio Palopó	9	San Antonio Palopo	3	Marzo	2023-03-31T00:00:00	2024-11-08T14:00:00	1	Precipitación	0
162604	7	Sololá	712	San Antonio Palopó	9	San Antonio Palopo	3	Marzo	2023-03-31T00:00:00	2024-11-08T14:00:00	8	Radiación solar	865
162605	7	Sololá	712	San Antonio Palopó	9	San Antonio Palopo	3	Marzo	2023-03-31T00:00:00	2024-11-08T15:00:00	2	Temperatura media	23
162606	7	Sololá	712	San Antonio Palopó	9	San Antonio Palopo	3	Marzo	2023-03-31T00:00:00	2024-11-08T15:00:00	4	Temperatura máxima	23.8
162607	7	Sololá	712	San Antonio Palopó	9	San Antonio Palopo	3	Marzo	2023-03-31T00:00:00	2024-11-08T15:00:00	3	Temperatura mínima	22.9
162608	7	Sololá	712	San Antonio Palopó	9	San Antonio Palopo	3	Marzo	2023-03-31T00:00:00	2024-11-08T15:00:00	5	Humedad	69
162609	7	Sololá	712	San Antonio Palopó	9	San Antonio Palopo	3	Marzo	2023-03-31T00:00:00	2024-11-08T15:00:00	6	Velocidad del viento	14.5
162610	7	Sololá	712	San Antonio Palopó	9	San Antonio Palopo	3	Marzo	2023-03-31T00:00:00	2024-11-08T15:00:00	7	Dirección del viento	14.48
162611	7	Sololá	712	San Antonio Palopó	9	San Antonio Palopo	3	Marzo	2023-03-31T00:00:00	2024-11-08T15:00:00	1	Precipitación	0
162612	7	Sololá	712	San Antonio Palopó	9	San Antonio Palopo	3	Marzo	2023-03-31T00:00:00	2024-11-08T15:00:00	8	Radiación solar	753
162613	7	Sololá	712	San Antonio Palopó	9	San Antonio Palopo	3	Marzo	2023-03-31T00:00:00	2024-11-08T16:00:00	2	Temperatura media	22.5
162614	7	Sololá	712	San Antonio Palopó	9	San Antonio Palopo	3	Marzo	2023-03-31T00:00:00	2024-11-08T16:00:00	4	Temperatura máxima	23.2
162615	7	Sololá	712	San Antonio Palopó	9	San Antonio Palopo	3	Marzo	2023-03-31T00:00:00	2024-11-08T16:00:00	3	Temperatura mínima	22.5
162616	7	Sololá	712	San Antonio Palopó	9	San Antonio Palopo	3	Marzo	2023-03-31T00:00:00	2024-11-08T16:00:00	5	Humedad	72
162617	7	Sololá	712	San Antonio Palopó	9	San Antonio Palopo	3	Marzo	2023-03-31T00:00:00	2024-11-08T16:00:00	6	Velocidad del viento	14.5
162618	7	Sololá	712	San Antonio Palopó	9	San Antonio Palopo	3	Marzo	2023-03-31T00:00:00	2024-11-08T16:00:00	7	Dirección del viento	14.48
162619	7	Sololá	712	San Antonio Palopó	9	San Antonio Palopo	3	Marzo	2023-03-31T00:00:00	2024-11-08T16:00:00	1	Precipitación	0
162620	7	Sololá	712	San Antonio Palopó	9	San Antonio Palopo	3	Marzo	2023-03-31T00:00:00	2024-11-08T16:00:00	8	Radiación solar	563
162621	7	Sololá	712	San Antonio Palopó	9	San Antonio Palopo	3	Marzo	2023-03-31T00:00:00	2024-11-08T17:00:00	2	Temperatura media	23.4
162622	7	Sololá	712	San Antonio Palopó	9	San Antonio Palopo	3	Marzo	2023-03-31T00:00:00	2024-11-08T17:00:00	4	Temperatura máxima	23.4
162623	7	Sololá	712	San Antonio Palopó	9	San Antonio Palopo	3	Marzo	2023-03-31T00:00:00	2024-11-08T17:00:00	3	Temperatura mínima	22
162624	7	Sololá	712	San Antonio Palopó	9	San Antonio Palopo	3	Marzo	2023-03-31T00:00:00	2024-11-08T17:00:00	5	Humedad	70
162625	7	Sololá	712	San Antonio Palopó	9	San Antonio Palopo	3	Marzo	2023-03-31T00:00:00	2024-11-08T17:00:00	6	Velocidad del viento	9.7
162626	7	Sololá	712	San Antonio Palopó	9	San Antonio Palopo	3	Marzo	2023-03-31T00:00:00	2024-11-08T17:00:00	7	Dirección del viento	9.66
162627	7	Sololá	712	San Antonio Palopó	9	San Antonio Palopo	3	Marzo	2023-03-31T00:00:00	2024-11-08T17:00:00	1	Precipitación	0
162628	7	Sololá	712	San Antonio Palopó	9	San Antonio Palopo	3	Marzo	2023-03-31T00:00:00	2024-11-08T17:00:00	8	Radiación solar	343
162629	7	Sololá	712	San Antonio Palopó	9	San Antonio Palopo	3	Marzo	2023-03-31T00:00:00	2024-11-08T18:00:00	2	Temperatura media	21.4
162630	7	Sololá	712	San Antonio Palopó	9	San Antonio Palopo	3	Marzo	2023-03-31T00:00:00	2024-11-08T18:00:00	4	Temperatura máxima	23.4
162631	7	Sololá	712	San Antonio Palopó	9	San Antonio Palopo	3	Marzo	2023-03-31T00:00:00	2024-11-08T18:00:00	3	Temperatura mínima	21.4
162632	7	Sololá	712	San Antonio Palopó	9	San Antonio Palopo	3	Marzo	2023-03-31T00:00:00	2024-11-08T18:00:00	5	Humedad	77
162633	7	Sololá	712	San Antonio Palopó	9	San Antonio Palopo	3	Marzo	2023-03-31T00:00:00	2024-11-08T18:00:00	6	Velocidad del viento	4.8
162634	7	Sololá	712	San Antonio Palopó	9	San Antonio Palopo	3	Marzo	2023-03-31T00:00:00	2024-11-08T18:00:00	7	Dirección del viento	4.83
162635	7	Sololá	712	San Antonio Palopó	9	San Antonio Palopo	3	Marzo	2023-03-31T00:00:00	2024-11-08T18:00:00	1	Precipitación	0
162636	7	Sololá	712	San Antonio Palopó	9	San Antonio Palopo	3	Marzo	2023-03-31T00:00:00	2024-11-08T18:00:00	8	Radiación solar	112
162637	7	Sololá	712	San Antonio Palopó	9	San Antonio Palopo	3	Marzo	2023-03-31T00:00:00	2024-11-08T19:00:00	2	Temperatura media	20.3
162638	7	Sololá	712	San Antonio Palopó	9	San Antonio Palopo	3	Marzo	2023-03-31T00:00:00	2024-11-08T19:00:00	4	Temperatura máxima	21.4
162639	7	Sololá	712	San Antonio Palopó	9	San Antonio Palopo	3	Marzo	2023-03-31T00:00:00	2024-11-08T19:00:00	3	Temperatura mínima	20.3
162640	7	Sololá	712	San Antonio Palopó	9	San Antonio Palopo	3	Marzo	2023-03-31T00:00:00	2024-11-08T19:00:00	5	Humedad	81
162641	7	Sololá	712	San Antonio Palopó	9	San Antonio Palopo	3	Marzo	2023-03-31T00:00:00	2024-11-08T19:00:00	6	Velocidad del viento	3.2
162642	7	Sololá	712	San Antonio Palopó	9	San Antonio Palopo	3	Marzo	2023-03-31T00:00:00	2024-11-08T19:00:00	7	Dirección del viento	3.22
162643	7	Sololá	712	San Antonio Palopó	9	San Antonio Palopo	3	Marzo	2023-03-31T00:00:00	2024-11-08T19:00:00	1	Precipitación	0
162644	7	Sololá	712	San Antonio Palopó	9	San Antonio Palopo	3	Marzo	2023-03-31T00:00:00	2024-11-08T19:00:00	8	Radiación solar	0
162645	7	Sololá	712	San Antonio Palopó	9	San Antonio Palopo	3	Marzo	2023-03-31T00:00:00	2024-11-08T20:00:00	2	Temperatura media	20.3
162646	7	Sololá	712	San Antonio Palopó	9	San Antonio Palopo	3	Marzo	2023-03-31T00:00:00	2024-11-08T20:00:00	4	Temperatura máxima	20.3
162647	7	Sololá	712	San Antonio Palopó	9	San Antonio Palopo	3	Marzo	2023-03-31T00:00:00	2024-11-08T20:00:00	3	Temperatura mínima	20.2
162648	7	Sololá	712	San Antonio Palopó	9	San Antonio Palopo	3	Marzo	2023-03-31T00:00:00	2024-11-08T20:00:00	5	Humedad	80
162649	7	Sololá	712	San Antonio Palopó	9	San Antonio Palopo	3	Marzo	2023-03-31T00:00:00	2024-11-08T20:00:00	6	Velocidad del viento	3.2
162650	7	Sololá	712	San Antonio Palopó	9	San Antonio Palopo	3	Marzo	2023-03-31T00:00:00	2024-11-08T20:00:00	7	Dirección del viento	3.22
162651	7	Sololá	712	San Antonio Palopó	9	San Antonio Palopo	3	Marzo	2023-03-31T00:00:00	2024-11-08T20:00:00	1	Precipitación	0
162652	7	Sololá	712	San Antonio Palopó	9	San Antonio Palopo	3	Marzo	2023-03-31T00:00:00	2024-11-08T20:00:00	8	Radiación solar	0
162653	7	Sololá	712	San Antonio Palopó	9	San Antonio Palopo	3	Marzo	2023-03-31T00:00:00	2024-11-08T21:00:00	2	Temperatura media	19.7
162654	7	Sololá	712	San Antonio Palopó	9	San Antonio Palopo	3	Marzo	2023-03-31T00:00:00	2024-11-08T21:00:00	4	Temperatura máxima	20.3
162655	7	Sololá	712	San Antonio Palopó	9	San Antonio Palopo	3	Marzo	2023-03-31T00:00:00	2024-11-08T21:00:00	3	Temperatura mínima	19.7
162656	7	Sololá	712	San Antonio Palopó	9	San Antonio Palopo	3	Marzo	2023-03-31T00:00:00	2024-11-08T21:00:00	5	Humedad	75
162657	7	Sololá	712	San Antonio Palopó	9	San Antonio Palopo	3	Marzo	2023-03-31T00:00:00	2024-11-08T21:00:00	6	Velocidad del viento	4.8
162658	7	Sololá	712	San Antonio Palopó	9	San Antonio Palopo	3	Marzo	2023-03-31T00:00:00	2024-11-08T21:00:00	7	Dirección del viento	4.83
162659	7	Sololá	712	San Antonio Palopó	9	San Antonio Palopo	3	Marzo	2023-03-31T00:00:00	2024-11-08T21:00:00	1	Precipitación	0
162660	7	Sololá	712	San Antonio Palopó	9	San Antonio Palopo	3	Marzo	2023-03-31T00:00:00	2024-11-08T21:00:00	8	Radiación solar	0
162661	7	Sololá	712	San Antonio Palopó	9	San Antonio Palopo	3	Marzo	2023-03-31T00:00:00	2024-11-08T22:00:00	2	Temperatura media	19.2
162662	7	Sololá	712	San Antonio Palopó	9	San Antonio Palopo	3	Marzo	2023-03-31T00:00:00	2024-11-08T22:00:00	4	Temperatura máxima	19.8
162663	7	Sololá	712	San Antonio Palopó	9	San Antonio Palopo	3	Marzo	2023-03-31T00:00:00	2024-11-08T22:00:00	3	Temperatura mínima	19.2
162664	7	Sololá	712	San Antonio Palopó	9	San Antonio Palopo	3	Marzo	2023-03-31T00:00:00	2024-11-08T22:00:00	5	Humedad	66
162665	7	Sololá	712	San Antonio Palopó	9	San Antonio Palopo	3	Marzo	2023-03-31T00:00:00	2024-11-08T22:00:00	6	Velocidad del viento	11.3
162666	7	Sololá	712	San Antonio Palopó	9	San Antonio Palopo	3	Marzo	2023-03-31T00:00:00	2024-11-08T22:00:00	7	Dirección del viento	11.27
162667	7	Sololá	712	San Antonio Palopó	9	San Antonio Palopo	3	Marzo	2023-03-31T00:00:00	2024-11-08T22:00:00	1	Precipitación	0
162668	7	Sololá	712	San Antonio Palopó	9	San Antonio Palopo	3	Marzo	2023-03-31T00:00:00	2024-11-08T22:00:00	8	Radiación solar	0
162669	7	Sololá	712	San Antonio Palopó	9	San Antonio Palopo	3	Marzo	2023-03-31T00:00:00	2024-11-08T23:00:00	2	Temperatura media	18.6
162670	7	Sololá	712	San Antonio Palopó	9	San Antonio Palopo	3	Marzo	2023-03-31T00:00:00	2024-11-08T23:00:00	4	Temperatura máxima	19.3
162671	7	Sololá	712	San Antonio Palopó	9	San Antonio Palopo	3	Marzo	2023-03-31T00:00:00	2024-11-08T23:00:00	3	Temperatura mínima	18.6
162672	7	Sololá	712	San Antonio Palopó	9	San Antonio Palopo	3	Marzo	2023-03-31T00:00:00	2024-11-08T23:00:00	5	Humedad	68
162673	7	Sololá	712	San Antonio Palopó	9	San Antonio Palopo	3	Marzo	2023-03-31T00:00:00	2024-11-08T23:00:00	6	Velocidad del viento	14.5
162674	7	Sololá	712	San Antonio Palopó	9	San Antonio Palopo	3	Marzo	2023-03-31T00:00:00	2024-11-08T23:00:00	7	Dirección del viento	14.48
162675	7	Sololá	712	San Antonio Palopó	9	San Antonio Palopo	3	Marzo	2023-03-31T00:00:00	2024-11-08T23:00:00	1	Precipitación	0
162676	7	Sololá	712	San Antonio Palopó	9	San Antonio Palopo	3	Marzo	2023-03-31T00:00:00	2024-11-08T23:00:00	8	Radiación solar	0
162677	7	Sololá	712	San Antonio Palopó	9	San Antonio Palopo	4	Abril	2023-01-04T00:00:00	2024-11-08T00:00:00	2	Temperatura media	18.2
162678	7	Sololá	712	San Antonio Palopó	9	San Antonio Palopo	4	Abril	2023-01-04T00:00:00	2024-11-08T00:00:00	4	Temperatura máxima	18.6
162679	7	Sololá	712	San Antonio Palopó	9	San Antonio Palopo	4	Abril	2023-01-04T00:00:00	2024-11-08T00:00:00	3	Temperatura mínima	18.2
162680	7	Sololá	712	San Antonio Palopó	9	San Antonio Palopo	4	Abril	2023-01-04T00:00:00	2024-11-08T00:00:00	5	Humedad	70
162681	7	Sololá	712	San Antonio Palopó	9	San Antonio Palopo	4	Abril	2023-01-04T00:00:00	2024-11-08T00:00:00	6	Velocidad del viento	14.5
162682	7	Sololá	712	San Antonio Palopó	9	San Antonio Palopo	4	Abril	2023-01-04T00:00:00	2024-11-08T00:00:00	7	Dirección del viento	14.48
162683	7	Sololá	712	San Antonio Palopó	9	San Antonio Palopo	4	Abril	2023-01-04T00:00:00	2024-11-08T00:00:00	1	Precipitación	0
162684	7	Sololá	712	San Antonio Palopó	9	San Antonio Palopo	4	Abril	2023-01-04T00:00:00	2024-11-08T00:00:00	8	Radiación solar	0
162685	7	Sololá	712	San Antonio Palopó	9	San Antonio Palopo	4	Abril	2023-01-04T00:00:00	2024-11-08T01:00:00	2	Temperatura media	17.7
162686	7	Sololá	712	San Antonio Palopó	9	San Antonio Palopo	4	Abril	2023-01-04T00:00:00	2024-11-08T01:00:00	4	Temperatura máxima	18.2
162687	7	Sololá	712	San Antonio Palopó	9	San Antonio Palopo	4	Abril	2023-01-04T00:00:00	2024-11-08T01:00:00	3	Temperatura mínima	17.6
162688	7	Sololá	712	San Antonio Palopó	9	San Antonio Palopo	4	Abril	2023-01-04T00:00:00	2024-11-08T01:00:00	5	Humedad	73
162689	7	Sololá	712	San Antonio Palopó	9	San Antonio Palopo	4	Abril	2023-01-04T00:00:00	2024-11-08T01:00:00	6	Velocidad del viento	16.1
162690	7	Sololá	712	San Antonio Palopó	9	San Antonio Palopo	4	Abril	2023-01-04T00:00:00	2024-11-08T01:00:00	7	Dirección del viento	16.09
162691	7	Sololá	712	San Antonio Palopó	9	San Antonio Palopo	4	Abril	2023-01-04T00:00:00	2024-11-08T01:00:00	1	Precipitación	0
162692	7	Sololá	712	San Antonio Palopó	9	San Antonio Palopo	4	Abril	2023-01-04T00:00:00	2024-11-08T01:00:00	8	Radiación solar	0
162693	7	Sololá	712	San Antonio Palopó	9	San Antonio Palopo	4	Abril	2023-01-04T00:00:00	2024-11-08T02:00:00	2	Temperatura media	17.7
162694	7	Sololá	712	San Antonio Palopó	9	San Antonio Palopo	4	Abril	2023-01-04T00:00:00	2024-11-08T02:00:00	4	Temperatura máxima	18
162695	7	Sololá	712	San Antonio Palopó	9	San Antonio Palopo	4	Abril	2023-01-04T00:00:00	2024-11-08T02:00:00	3	Temperatura mínima	17.7
162696	7	Sololá	712	San Antonio Palopó	9	San Antonio Palopo	4	Abril	2023-01-04T00:00:00	2024-11-08T02:00:00	5	Humedad	73
162697	7	Sololá	712	San Antonio Palopó	9	San Antonio Palopo	4	Abril	2023-01-04T00:00:00	2024-11-08T02:00:00	6	Velocidad del viento	16.1
162698	7	Sololá	712	San Antonio Palopó	9	San Antonio Palopo	4	Abril	2023-01-04T00:00:00	2024-11-08T02:00:00	7	Dirección del viento	16.09
162699	7	Sololá	712	San Antonio Palopó	9	San Antonio Palopo	4	Abril	2023-01-04T00:00:00	2024-11-08T02:00:00	1	Precipitación	0
162700	7	Sololá	712	San Antonio Palopó	9	San Antonio Palopo	4	Abril	2023-01-04T00:00:00	2024-11-08T02:00:00	8	Radiación solar	0
162701	7	Sololá	712	San Antonio Palopó	9	San Antonio Palopo	4	Abril	2023-01-04T00:00:00	2024-11-08T03:00:00	2	Temperatura media	17.2
162702	7	Sololá	712	San Antonio Palopó	9	San Antonio Palopo	4	Abril	2023-01-04T00:00:00	2024-11-08T03:00:00	4	Temperatura máxima	17.7
162703	7	Sololá	712	San Antonio Palopó	9	San Antonio Palopo	4	Abril	2023-01-04T00:00:00	2024-11-08T03:00:00	3	Temperatura mínima	17.2
162704	7	Sololá	712	San Antonio Palopó	9	San Antonio Palopo	4	Abril	2023-01-04T00:00:00	2024-11-08T03:00:00	5	Humedad	73
162705	7	Sololá	712	San Antonio Palopó	9	San Antonio Palopo	4	Abril	2023-01-04T00:00:00	2024-11-08T03:00:00	6	Velocidad del viento	11.3
162706	7	Sololá	712	San Antonio Palopó	9	San Antonio Palopo	4	Abril	2023-01-04T00:00:00	2024-11-08T03:00:00	7	Dirección del viento	11.27
162707	7	Sololá	712	San Antonio Palopó	9	San Antonio Palopo	4	Abril	2023-01-04T00:00:00	2024-11-08T03:00:00	1	Precipitación	0
162708	7	Sololá	712	San Antonio Palopó	9	San Antonio Palopo	4	Abril	2023-01-04T00:00:00	2024-11-08T03:00:00	8	Radiación solar	0
162709	7	Sololá	712	San Antonio Palopó	9	San Antonio Palopo	4	Abril	2023-01-04T00:00:00	2024-11-08T04:00:00	2	Temperatura media	17.1
162710	7	Sololá	712	San Antonio Palopó	9	San Antonio Palopo	4	Abril	2023-01-04T00:00:00	2024-11-08T04:00:00	4	Temperatura máxima	17.3
162711	7	Sololá	712	San Antonio Palopó	9	San Antonio Palopo	4	Abril	2023-01-04T00:00:00	2024-11-08T04:00:00	3	Temperatura mínima	17.1
162712	7	Sololá	712	San Antonio Palopó	9	San Antonio Palopo	4	Abril	2023-01-04T00:00:00	2024-11-08T04:00:00	5	Humedad	72
162713	7	Sololá	712	San Antonio Palopó	9	San Antonio Palopo	4	Abril	2023-01-04T00:00:00	2024-11-08T04:00:00	6	Velocidad del viento	9.7
162714	7	Sololá	712	San Antonio Palopó	9	San Antonio Palopo	4	Abril	2023-01-04T00:00:00	2024-11-08T04:00:00	7	Dirección del viento	9.66
162715	7	Sololá	712	San Antonio Palopó	9	San Antonio Palopo	4	Abril	2023-01-04T00:00:00	2024-11-08T04:00:00	1	Precipitación	0
162716	7	Sololá	712	San Antonio Palopó	9	San Antonio Palopo	4	Abril	2023-01-04T00:00:00	2024-11-08T04:00:00	8	Radiación solar	0
162717	7	Sololá	712	San Antonio Palopó	9	San Antonio Palopo	4	Abril	2023-01-04T00:00:00	2024-11-08T05:00:00	2	Temperatura media	16.7
162718	7	Sololá	712	San Antonio Palopó	9	San Antonio Palopo	4	Abril	2023-01-04T00:00:00	2024-11-08T05:00:00	4	Temperatura máxima	17.2
162719	7	Sololá	712	San Antonio Palopó	9	San Antonio Palopo	4	Abril	2023-01-04T00:00:00	2024-11-08T05:00:00	3	Temperatura mínima	16.6
162720	7	Sololá	712	San Antonio Palopó	9	San Antonio Palopo	4	Abril	2023-01-04T00:00:00	2024-11-08T05:00:00	5	Humedad	74
162721	7	Sololá	712	San Antonio Palopó	9	San Antonio Palopo	4	Abril	2023-01-04T00:00:00	2024-11-08T05:00:00	6	Velocidad del viento	8
162722	7	Sololá	712	San Antonio Palopó	9	San Antonio Palopo	4	Abril	2023-01-04T00:00:00	2024-11-08T05:00:00	7	Dirección del viento	8.05
162723	7	Sololá	712	San Antonio Palopó	9	San Antonio Palopo	4	Abril	2023-01-04T00:00:00	2024-11-08T05:00:00	1	Precipitación	0
162724	7	Sololá	712	San Antonio Palopó	9	San Antonio Palopo	4	Abril	2023-01-04T00:00:00	2024-11-08T05:00:00	8	Radiación solar	0
162725	7	Sololá	712	San Antonio Palopó	9	San Antonio Palopo	4	Abril	2023-01-04T00:00:00	2024-11-08T06:00:00	2	Temperatura media	16.7
162726	7	Sololá	712	San Antonio Palopó	9	San Antonio Palopo	4	Abril	2023-01-04T00:00:00	2024-11-08T06:00:00	4	Temperatura máxima	16.8
162727	7	Sololá	712	San Antonio Palopó	9	San Antonio Palopo	4	Abril	2023-01-04T00:00:00	2024-11-08T06:00:00	3	Temperatura mínima	16.5
162728	7	Sololá	712	San Antonio Palopó	9	San Antonio Palopo	4	Abril	2023-01-04T00:00:00	2024-11-08T06:00:00	5	Humedad	75
162729	7	Sololá	712	San Antonio Palopó	9	San Antonio Palopo	4	Abril	2023-01-04T00:00:00	2024-11-08T06:00:00	6	Velocidad del viento	8
162730	7	Sololá	712	San Antonio Palopó	9	San Antonio Palopo	4	Abril	2023-01-04T00:00:00	2024-11-08T06:00:00	7	Dirección del viento	8.05
162731	7	Sololá	712	San Antonio Palopó	9	San Antonio Palopo	4	Abril	2023-01-04T00:00:00	2024-11-08T06:00:00	1	Precipitación	0
162732	7	Sololá	712	San Antonio Palopó	9	San Antonio Palopo	4	Abril	2023-01-04T00:00:00	2024-11-08T06:00:00	8	Radiación solar	0
162733	7	Sololá	712	San Antonio Palopó	9	San Antonio Palopo	4	Abril	2023-01-04T00:00:00	2024-11-08T07:00:00	2	Temperatura media	16.3
162734	7	Sololá	712	San Antonio Palopó	9	San Antonio Palopo	4	Abril	2023-01-04T00:00:00	2024-11-08T07:00:00	4	Temperatura máxima	16.7
162735	7	Sololá	712	San Antonio Palopó	9	San Antonio Palopo	4	Abril	2023-01-04T00:00:00	2024-11-08T07:00:00	3	Temperatura mínima	16.1
162736	7	Sololá	712	San Antonio Palopó	9	San Antonio Palopo	4	Abril	2023-01-04T00:00:00	2024-11-08T07:00:00	5	Humedad	74
162737	7	Sololá	712	San Antonio Palopó	9	San Antonio Palopo	4	Abril	2023-01-04T00:00:00	2024-11-08T07:00:00	6	Velocidad del viento	4.8
162738	7	Sololá	712	San Antonio Palopó	9	San Antonio Palopo	4	Abril	2023-01-04T00:00:00	2024-11-08T07:00:00	7	Dirección del viento	4.83
162739	7	Sololá	712	San Antonio Palopó	9	San Antonio Palopo	4	Abril	2023-01-04T00:00:00	2024-11-08T07:00:00	1	Precipitación	0
162740	7	Sololá	712	San Antonio Palopó	9	San Antonio Palopo	4	Abril	2023-01-04T00:00:00	2024-11-08T07:00:00	8	Radiación solar	15
162741	7	Sololá	712	San Antonio Palopó	9	San Antonio Palopo	4	Abril	2023-01-04T00:00:00	2024-11-08T08:00:00	2	Temperatura media	17.2
162742	7	Sololá	712	San Antonio Palopó	9	San Antonio Palopo	4	Abril	2023-01-04T00:00:00	2024-11-08T08:00:00	4	Temperatura máxima	17.2
162743	7	Sololá	712	San Antonio Palopó	9	San Antonio Palopo	4	Abril	2023-01-04T00:00:00	2024-11-08T08:00:00	3	Temperatura mínima	16.3
162744	7	Sololá	712	San Antonio Palopó	9	San Antonio Palopo	4	Abril	2023-01-04T00:00:00	2024-11-08T08:00:00	5	Humedad	73
162745	7	Sololá	712	San Antonio Palopó	9	San Antonio Palopo	4	Abril	2023-01-04T00:00:00	2024-11-08T08:00:00	6	Velocidad del viento	3.2
162746	7	Sololá	712	San Antonio Palopó	9	San Antonio Palopo	4	Abril	2023-01-04T00:00:00	2024-11-08T08:00:00	7	Dirección del viento	3.22
162747	7	Sololá	712	San Antonio Palopó	9	San Antonio Palopo	4	Abril	2023-01-04T00:00:00	2024-11-08T08:00:00	1	Precipitación	0
162748	7	Sololá	712	San Antonio Palopó	9	San Antonio Palopo	4	Abril	2023-01-04T00:00:00	2024-11-08T08:00:00	8	Radiación solar	83
162749	7	Sololá	712	San Antonio Palopó	9	San Antonio Palopo	4	Abril	2023-01-04T00:00:00	2024-11-08T09:00:00	2	Temperatura media	18.9
162750	7	Sololá	712	San Antonio Palopó	9	San Antonio Palopo	4	Abril	2023-01-04T00:00:00	2024-11-08T09:00:00	4	Temperatura máxima	19.2
162751	7	Sololá	712	San Antonio Palopó	9	San Antonio Palopo	4	Abril	2023-01-04T00:00:00	2024-11-08T09:00:00	3	Temperatura mínima	17.1
162752	7	Sololá	712	San Antonio Palopó	9	San Antonio Palopo	4	Abril	2023-01-04T00:00:00	2024-11-08T09:00:00	5	Humedad	70
162753	7	Sololá	712	San Antonio Palopó	9	San Antonio Palopo	4	Abril	2023-01-04T00:00:00	2024-11-08T09:00:00	6	Velocidad del viento	3.2
162754	7	Sololá	712	San Antonio Palopó	9	San Antonio Palopo	4	Abril	2023-01-04T00:00:00	2024-11-08T09:00:00	7	Dirección del viento	3.22
162755	7	Sololá	712	San Antonio Palopó	9	San Antonio Palopo	4	Abril	2023-01-04T00:00:00	2024-11-08T09:00:00	1	Precipitación	0
162756	7	Sololá	712	San Antonio Palopó	9	San Antonio Palopo	4	Abril	2023-01-04T00:00:00	2024-11-08T09:00:00	8	Radiación solar	385
162757	7	Sololá	712	San Antonio Palopó	9	San Antonio Palopo	4	Abril	2023-01-04T00:00:00	2024-11-08T10:00:00	2	Temperatura media	20.6
162758	7	Sololá	712	San Antonio Palopó	9	San Antonio Palopo	4	Abril	2023-01-04T00:00:00	2024-11-08T10:00:00	4	Temperatura máxima	20.6
162759	7	Sololá	712	San Antonio Palopó	9	San Antonio Palopo	4	Abril	2023-01-04T00:00:00	2024-11-08T10:00:00	3	Temperatura mínima	18.9
162760	7	Sololá	712	San Antonio Palopó	9	San Antonio Palopo	4	Abril	2023-01-04T00:00:00	2024-11-08T10:00:00	5	Humedad	63
162761	7	Sololá	712	San Antonio Palopó	9	San Antonio Palopo	4	Abril	2023-01-04T00:00:00	2024-11-08T10:00:00	6	Velocidad del viento	1.6
162762	7	Sololá	712	San Antonio Palopó	9	San Antonio Palopo	4	Abril	2023-01-04T00:00:00	2024-11-08T10:00:00	7	Dirección del viento	1.61
162763	7	Sololá	712	San Antonio Palopó	9	San Antonio Palopo	4	Abril	2023-01-04T00:00:00	2024-11-08T10:00:00	1	Precipitación	0
162764	7	Sololá	712	San Antonio Palopó	9	San Antonio Palopo	4	Abril	2023-01-04T00:00:00	2024-11-08T10:00:00	8	Radiación solar	583
162765	7	Sololá	712	San Antonio Palopó	9	San Antonio Palopo	4	Abril	2023-01-04T00:00:00	2024-11-08T11:00:00	2	Temperatura media	22
162766	7	Sololá	712	San Antonio Palopó	9	San Antonio Palopo	4	Abril	2023-01-04T00:00:00	2024-11-08T11:00:00	4	Temperatura máxima	22.1
162767	7	Sololá	712	San Antonio Palopó	9	San Antonio Palopo	4	Abril	2023-01-04T00:00:00	2024-11-08T11:00:00	3	Temperatura mínima	20.6
162768	7	Sololá	712	San Antonio Palopó	9	San Antonio Palopo	4	Abril	2023-01-04T00:00:00	2024-11-08T11:00:00	5	Humedad	64
162769	7	Sololá	712	San Antonio Palopó	9	San Antonio Palopo	4	Abril	2023-01-04T00:00:00	2024-11-08T11:00:00	6	Velocidad del viento	3.2
162770	7	Sololá	712	San Antonio Palopó	9	San Antonio Palopo	4	Abril	2023-01-04T00:00:00	2024-11-08T11:00:00	7	Dirección del viento	3.22
162771	7	Sololá	712	San Antonio Palopó	9	San Antonio Palopo	4	Abril	2023-01-04T00:00:00	2024-11-08T11:00:00	1	Precipitación	0
162772	7	Sololá	712	San Antonio Palopó	9	San Antonio Palopo	4	Abril	2023-01-04T00:00:00	2024-11-08T11:00:00	8	Radiación solar	836
162773	7	Sololá	712	San Antonio Palopó	9	San Antonio Palopo	4	Abril	2023-01-04T00:00:00	2024-11-08T12:00:00	2	Temperatura media	23.6
162774	7	Sololá	712	San Antonio Palopó	9	San Antonio Palopo	4	Abril	2023-01-04T00:00:00	2024-11-08T12:00:00	4	Temperatura máxima	23.6
162775	7	Sololá	712	San Antonio Palopó	9	San Antonio Palopo	4	Abril	2023-01-04T00:00:00	2024-11-08T12:00:00	3	Temperatura mínima	22.1
162776	7	Sololá	712	San Antonio Palopó	9	San Antonio Palopo	4	Abril	2023-01-04T00:00:00	2024-11-08T12:00:00	5	Humedad	67
162777	7	Sololá	712	San Antonio Palopó	9	San Antonio Palopo	4	Abril	2023-01-04T00:00:00	2024-11-08T12:00:00	6	Velocidad del viento	4.8
162778	7	Sololá	712	San Antonio Palopó	9	San Antonio Palopo	4	Abril	2023-01-04T00:00:00	2024-11-08T12:00:00	7	Dirección del viento	4.83
162779	7	Sololá	712	San Antonio Palopó	9	San Antonio Palopo	4	Abril	2023-01-04T00:00:00	2024-11-08T12:00:00	1	Precipitación	0
162780	7	Sololá	712	San Antonio Palopó	9	San Antonio Palopo	4	Abril	2023-01-04T00:00:00	2024-11-08T12:00:00	8	Radiación solar	938
162781	7	Sololá	712	San Antonio Palopó	9	San Antonio Palopo	4	Abril	2023-01-04T00:00:00	2024-11-08T13:00:00	2	Temperatura media	23.6
162782	7	Sololá	712	San Antonio Palopó	9	San Antonio Palopo	4	Abril	2023-01-04T00:00:00	2024-11-08T13:00:00	4	Temperatura máxima	23.9
162783	7	Sololá	712	San Antonio Palopó	9	San Antonio Palopo	4	Abril	2023-01-04T00:00:00	2024-11-08T13:00:00	3	Temperatura mínima	23.5
162784	7	Sololá	712	San Antonio Palopó	9	San Antonio Palopo	4	Abril	2023-01-04T00:00:00	2024-11-08T13:00:00	5	Humedad	69
162785	7	Sololá	712	San Antonio Palopó	9	San Antonio Palopo	4	Abril	2023-01-04T00:00:00	2024-11-08T13:00:00	6	Velocidad del viento	8
162786	7	Sololá	712	San Antonio Palopó	9	San Antonio Palopo	4	Abril	2023-01-04T00:00:00	2024-11-08T13:00:00	7	Dirección del viento	8.05
162787	7	Sololá	712	San Antonio Palopó	9	San Antonio Palopo	4	Abril	2023-01-04T00:00:00	2024-11-08T13:00:00	1	Precipitación	0
162788	7	Sololá	712	San Antonio Palopó	9	San Antonio Palopo	4	Abril	2023-01-04T00:00:00	2024-11-08T13:00:00	8	Radiación solar	945
162789	7	Sololá	712	San Antonio Palopó	9	San Antonio Palopo	4	Abril	2023-01-04T00:00:00	2024-11-08T14:00:00	2	Temperatura media	23.3
162790	7	Sololá	712	San Antonio Palopó	9	San Antonio Palopo	4	Abril	2023-01-04T00:00:00	2024-11-08T14:00:00	4	Temperatura máxima	23.8
162791	7	Sololá	712	San Antonio Palopó	9	San Antonio Palopo	4	Abril	2023-01-04T00:00:00	2024-11-08T14:00:00	3	Temperatura mínima	23.1
162792	7	Sololá	712	San Antonio Palopó	9	San Antonio Palopo	4	Abril	2023-01-04T00:00:00	2024-11-08T14:00:00	5	Humedad	69
162793	7	Sololá	712	San Antonio Palopó	9	San Antonio Palopo	4	Abril	2023-01-04T00:00:00	2024-11-08T14:00:00	6	Velocidad del viento	11.3
162794	7	Sololá	712	San Antonio Palopó	9	San Antonio Palopo	4	Abril	2023-01-04T00:00:00	2024-11-08T14:00:00	7	Dirección del viento	11.27
162795	7	Sololá	712	San Antonio Palopó	9	San Antonio Palopo	4	Abril	2023-01-04T00:00:00	2024-11-08T14:00:00	1	Precipitación	0
162796	7	Sololá	712	San Antonio Palopó	9	San Antonio Palopo	4	Abril	2023-01-04T00:00:00	2024-11-08T14:00:00	8	Radiación solar	876
162797	7	Sololá	712	San Antonio Palopó	9	San Antonio Palopo	4	Abril	2023-01-04T00:00:00	2024-11-08T15:00:00	2	Temperatura media	23.7
162798	7	Sololá	712	San Antonio Palopó	9	San Antonio Palopo	4	Abril	2023-01-04T00:00:00	2024-11-08T15:00:00	4	Temperatura máxima	23.8
162799	7	Sololá	712	San Antonio Palopó	9	San Antonio Palopo	4	Abril	2023-01-04T00:00:00	2024-11-08T15:00:00	3	Temperatura mínima	23.2
162800	7	Sololá	712	San Antonio Palopó	9	San Antonio Palopo	4	Abril	2023-01-04T00:00:00	2024-11-08T15:00:00	5	Humedad	69
162801	7	Sololá	712	San Antonio Palopó	9	San Antonio Palopo	4	Abril	2023-01-04T00:00:00	2024-11-08T15:00:00	6	Velocidad del viento	9.7
162802	7	Sololá	712	San Antonio Palopó	9	San Antonio Palopo	4	Abril	2023-01-04T00:00:00	2024-11-08T15:00:00	7	Dirección del viento	9.66
162803	7	Sololá	712	San Antonio Palopó	9	San Antonio Palopo	4	Abril	2023-01-04T00:00:00	2024-11-08T15:00:00	1	Precipitación	0
162804	7	Sololá	712	San Antonio Palopó	9	San Antonio Palopo	4	Abril	2023-01-04T00:00:00	2024-11-08T15:00:00	8	Radiación solar	741
162805	7	Sololá	712	San Antonio Palopó	9	San Antonio Palopo	4	Abril	2023-01-04T00:00:00	2024-11-08T16:00:00	2	Temperatura media	23.5
162806	7	Sololá	712	San Antonio Palopó	9	San Antonio Palopo	4	Abril	2023-01-04T00:00:00	2024-11-08T16:00:00	4	Temperatura máxima	24.6
162807	7	Sololá	712	San Antonio Palopó	9	San Antonio Palopo	4	Abril	2023-01-04T00:00:00	2024-11-08T16:00:00	3	Temperatura mínima	23.5
162808	7	Sololá	712	San Antonio Palopó	9	San Antonio Palopo	4	Abril	2023-01-04T00:00:00	2024-11-08T16:00:00	5	Humedad	69
162809	7	Sololá	712	San Antonio Palopó	9	San Antonio Palopo	4	Abril	2023-01-04T00:00:00	2024-11-08T16:00:00	6	Velocidad del viento	6.4
162810	7	Sololá	712	San Antonio Palopó	9	San Antonio Palopo	4	Abril	2023-01-04T00:00:00	2024-11-08T16:00:00	7	Dirección del viento	6.44
162811	7	Sololá	712	San Antonio Palopó	9	San Antonio Palopo	4	Abril	2023-01-04T00:00:00	2024-11-08T16:00:00	1	Precipitación	0
162812	7	Sololá	712	San Antonio Palopó	9	San Antonio Palopo	4	Abril	2023-01-04T00:00:00	2024-11-08T16:00:00	8	Radiación solar	553
162813	7	Sololá	712	San Antonio Palopó	9	San Antonio Palopo	4	Abril	2023-01-04T00:00:00	2024-11-08T17:00:00	2	Temperatura media	22.7
162814	7	Sololá	712	San Antonio Palopó	9	San Antonio Palopo	4	Abril	2023-01-04T00:00:00	2024-11-08T17:00:00	4	Temperatura máxima	23.5
162815	7	Sololá	712	San Antonio Palopó	9	San Antonio Palopo	4	Abril	2023-01-04T00:00:00	2024-11-08T17:00:00	3	Temperatura mínima	22.7
162816	7	Sololá	712	San Antonio Palopó	9	San Antonio Palopo	4	Abril	2023-01-04T00:00:00	2024-11-08T17:00:00	5	Humedad	73
162817	7	Sololá	712	San Antonio Palopó	9	San Antonio Palopo	4	Abril	2023-01-04T00:00:00	2024-11-08T17:00:00	6	Velocidad del viento	8
162818	7	Sololá	712	San Antonio Palopó	9	San Antonio Palopo	4	Abril	2023-01-04T00:00:00	2024-11-08T17:00:00	7	Dirección del viento	8.05
162819	7	Sololá	712	San Antonio Palopó	9	San Antonio Palopo	4	Abril	2023-01-04T00:00:00	2024-11-08T17:00:00	1	Precipitación	0
162820	7	Sololá	712	San Antonio Palopó	9	San Antonio Palopo	4	Abril	2023-01-04T00:00:00	2024-11-08T17:00:00	8	Radiación solar	321
162821	7	Sololá	712	San Antonio Palopó	9	San Antonio Palopo	4	Abril	2023-01-04T00:00:00	2024-11-08T18:00:00	2	Temperatura media	21.2
162822	7	Sololá	712	San Antonio Palopó	9	San Antonio Palopo	4	Abril	2023-01-04T00:00:00	2024-11-08T18:00:00	4	Temperatura máxima	22.8
162823	7	Sololá	712	San Antonio Palopó	9	San Antonio Palopo	4	Abril	2023-01-04T00:00:00	2024-11-08T18:00:00	3	Temperatura mínima	21.1
162824	7	Sololá	712	San Antonio Palopó	9	San Antonio Palopo	4	Abril	2023-01-04T00:00:00	2024-11-08T18:00:00	5	Humedad	79
162825	7	Sololá	712	San Antonio Palopó	9	San Antonio Palopo	4	Abril	2023-01-04T00:00:00	2024-11-08T18:00:00	6	Velocidad del viento	4.8
162826	7	Sololá	712	San Antonio Palopó	9	San Antonio Palopo	4	Abril	2023-01-04T00:00:00	2024-11-08T18:00:00	7	Dirección del viento	4.83
162827	7	Sololá	712	San Antonio Palopó	9	San Antonio Palopo	4	Abril	2023-01-04T00:00:00	2024-11-08T18:00:00	1	Precipitación	0
162828	7	Sololá	712	San Antonio Palopó	9	San Antonio Palopo	4	Abril	2023-01-04T00:00:00	2024-11-08T18:00:00	8	Radiación solar	66
162829	7	Sololá	712	San Antonio Palopó	9	San Antonio Palopo	4	Abril	2023-01-04T00:00:00	2024-11-08T19:00:00	2	Temperatura media	20.4
162830	7	Sololá	712	San Antonio Palopó	9	San Antonio Palopo	4	Abril	2023-01-04T00:00:00	2024-11-08T19:00:00	4	Temperatura máxima	21.2
162831	7	Sololá	712	San Antonio Palopó	9	San Antonio Palopo	4	Abril	2023-01-04T00:00:00	2024-11-08T19:00:00	3	Temperatura mínima	20.4
162832	7	Sololá	712	San Antonio Palopó	9	San Antonio Palopo	4	Abril	2023-01-04T00:00:00	2024-11-08T19:00:00	5	Humedad	80
162833	7	Sololá	712	San Antonio Palopó	9	San Antonio Palopo	4	Abril	2023-01-04T00:00:00	2024-11-08T19:00:00	6	Velocidad del viento	3.2
162834	7	Sololá	712	San Antonio Palopó	9	San Antonio Palopo	4	Abril	2023-01-04T00:00:00	2024-11-08T19:00:00	7	Dirección del viento	3.22
162835	7	Sololá	712	San Antonio Palopó	9	San Antonio Palopo	4	Abril	2023-01-04T00:00:00	2024-11-08T19:00:00	1	Precipitación	0
162836	7	Sololá	712	San Antonio Palopó	9	San Antonio Palopo	4	Abril	2023-01-04T00:00:00	2024-11-08T19:00:00	8	Radiación solar	0
162837	7	Sololá	712	San Antonio Palopó	9	San Antonio Palopo	4	Abril	2023-01-04T00:00:00	2024-11-08T20:00:00	2	Temperatura media	19.7
162838	7	Sololá	712	San Antonio Palopó	9	San Antonio Palopo	4	Abril	2023-01-04T00:00:00	2024-11-08T20:00:00	4	Temperatura máxima	20.6
162839	7	Sololá	712	San Antonio Palopó	9	San Antonio Palopo	4	Abril	2023-01-04T00:00:00	2024-11-08T20:00:00	3	Temperatura mínima	19.7
162840	7	Sololá	712	San Antonio Palopó	9	San Antonio Palopo	4	Abril	2023-01-04T00:00:00	2024-11-08T20:00:00	5	Humedad	78
162841	7	Sololá	712	San Antonio Palopó	9	San Antonio Palopo	4	Abril	2023-01-04T00:00:00	2024-11-08T20:00:00	6	Velocidad del viento	1.6
162842	7	Sololá	712	San Antonio Palopó	9	San Antonio Palopo	4	Abril	2023-01-04T00:00:00	2024-11-08T20:00:00	7	Dirección del viento	1.61
162843	7	Sololá	712	San Antonio Palopó	9	San Antonio Palopo	4	Abril	2023-01-04T00:00:00	2024-11-08T20:00:00	1	Precipitación	0
162844	7	Sololá	712	San Antonio Palopó	9	San Antonio Palopo	4	Abril	2023-01-04T00:00:00	2024-11-08T20:00:00	8	Radiación solar	0
162845	7	Sololá	712	San Antonio Palopó	9	San Antonio Palopo	4	Abril	2023-01-04T00:00:00	2024-11-08T21:00:00	2	Temperatura media	19.7
162846	7	Sololá	712	San Antonio Palopó	9	San Antonio Palopo	4	Abril	2023-01-04T00:00:00	2024-11-08T21:00:00	4	Temperatura máxima	19.7
162847	7	Sololá	712	San Antonio Palopó	9	San Antonio Palopo	4	Abril	2023-01-04T00:00:00	2024-11-08T21:00:00	3	Temperatura mínima	19.1
162848	7	Sololá	712	San Antonio Palopó	9	San Antonio Palopo	4	Abril	2023-01-04T00:00:00	2024-11-08T21:00:00	5	Humedad	69
162849	7	Sololá	712	San Antonio Palopó	9	San Antonio Palopo	4	Abril	2023-01-04T00:00:00	2024-11-08T21:00:00	6	Velocidad del viento	1.6
162850	7	Sololá	712	San Antonio Palopó	9	San Antonio Palopo	4	Abril	2023-01-04T00:00:00	2024-11-08T21:00:00	7	Dirección del viento	1.61
162851	7	Sololá	712	San Antonio Palopó	9	San Antonio Palopo	4	Abril	2023-01-04T00:00:00	2024-11-08T21:00:00	1	Precipitación	0
162852	7	Sololá	712	San Antonio Palopó	9	San Antonio Palopo	4	Abril	2023-01-04T00:00:00	2024-11-08T21:00:00	8	Radiación solar	0
162853	7	Sololá	712	San Antonio Palopó	9	San Antonio Palopo	4	Abril	2023-01-04T00:00:00	2024-11-08T22:00:00	2	Temperatura media	19.5
162854	7	Sololá	712	San Antonio Palopó	9	San Antonio Palopo	4	Abril	2023-01-04T00:00:00	2024-11-08T22:00:00	4	Temperatura máxima	20.1
162855	7	Sololá	712	San Antonio Palopó	9	San Antonio Palopo	4	Abril	2023-01-04T00:00:00	2024-11-08T22:00:00	3	Temperatura mínima	19.5
162856	7	Sololá	712	San Antonio Palopó	9	San Antonio Palopo	4	Abril	2023-01-04T00:00:00	2024-11-08T22:00:00	5	Humedad	67
162857	7	Sololá	712	San Antonio Palopó	9	San Antonio Palopo	4	Abril	2023-01-04T00:00:00	2024-11-08T22:00:00	6	Velocidad del viento	6.4
162858	7	Sololá	712	San Antonio Palopó	9	San Antonio Palopo	4	Abril	2023-01-04T00:00:00	2024-11-08T22:00:00	7	Dirección del viento	6.44
162859	7	Sololá	712	San Antonio Palopó	9	San Antonio Palopo	4	Abril	2023-01-04T00:00:00	2024-11-08T22:00:00	1	Precipitación	0
162860	7	Sololá	712	San Antonio Palopó	9	San Antonio Palopo	4	Abril	2023-01-04T00:00:00	2024-11-08T22:00:00	8	Radiación solar	0
162861	7	Sololá	712	San Antonio Palopó	9	San Antonio Palopo	4	Abril	2023-01-04T00:00:00	2024-11-08T23:00:00	2	Temperatura media	18.9
162862	7	Sololá	712	San Antonio Palopó	9	San Antonio Palopo	4	Abril	2023-01-04T00:00:00	2024-11-08T23:00:00	4	Temperatura máxima	19.6
162863	7	Sololá	712	San Antonio Palopó	9	San Antonio Palopo	4	Abril	2023-01-04T00:00:00	2024-11-08T23:00:00	3	Temperatura mínima	18.9
162864	7	Sololá	712	San Antonio Palopó	9	San Antonio Palopo	4	Abril	2023-01-04T00:00:00	2024-11-08T23:00:00	5	Humedad	68
162865	7	Sololá	712	San Antonio Palopó	9	San Antonio Palopo	4	Abril	2023-01-04T00:00:00	2024-11-08T23:00:00	6	Velocidad del viento	12.9
162866	7	Sololá	712	San Antonio Palopó	9	San Antonio Palopo	4	Abril	2023-01-04T00:00:00	2024-11-08T23:00:00	7	Dirección del viento	12.87
162867	7	Sololá	712	San Antonio Palopó	9	San Antonio Palopo	4	Abril	2023-01-04T00:00:00	2024-11-08T23:00:00	1	Precipitación	0
162868	7	Sololá	712	San Antonio Palopó	9	San Antonio Palopo	4	Abril	2023-01-04T00:00:00	2024-11-08T23:00:00	8	Radiación solar	0
162869	7	Sololá	712	San Antonio Palopó	9	San Antonio Palopo	4	Abril	2023-02-04T00:00:00	2024-11-08T00:00:00	2	Temperatura media	18
162870	7	Sololá	712	San Antonio Palopó	9	San Antonio Palopo	4	Abril	2023-02-04T00:00:00	2024-11-08T00:00:00	4	Temperatura máxima	18.9
162871	7	Sololá	712	San Antonio Palopó	9	San Antonio Palopo	4	Abril	2023-02-04T00:00:00	2024-11-08T00:00:00	3	Temperatura mínima	18
162872	7	Sololá	712	San Antonio Palopó	9	San Antonio Palopo	4	Abril	2023-02-04T00:00:00	2024-11-08T00:00:00	5	Humedad	70
162873	7	Sololá	712	San Antonio Palopó	9	San Antonio Palopo	4	Abril	2023-02-04T00:00:00	2024-11-08T00:00:00	6	Velocidad del viento	9.7
162874	7	Sololá	712	San Antonio Palopó	9	San Antonio Palopo	4	Abril	2023-02-04T00:00:00	2024-11-08T00:00:00	7	Dirección del viento	9.66
162875	7	Sololá	712	San Antonio Palopó	9	San Antonio Palopo	4	Abril	2023-02-04T00:00:00	2024-11-08T00:00:00	1	Precipitación	0
162876	7	Sololá	712	San Antonio Palopó	9	San Antonio Palopo	4	Abril	2023-02-04T00:00:00	2024-11-08T00:00:00	8	Radiación solar	0
162877	7	Sololá	712	San Antonio Palopó	9	San Antonio Palopo	4	Abril	2023-02-04T00:00:00	2024-11-08T01:00:00	2	Temperatura media	17.6
162878	7	Sololá	712	San Antonio Palopó	9	San Antonio Palopo	4	Abril	2023-02-04T00:00:00	2024-11-08T01:00:00	4	Temperatura máxima	18.2
162879	7	Sololá	712	San Antonio Palopó	9	San Antonio Palopo	4	Abril	2023-02-04T00:00:00	2024-11-08T01:00:00	3	Temperatura mínima	17.6
162880	7	Sololá	712	San Antonio Palopó	9	San Antonio Palopo	4	Abril	2023-02-04T00:00:00	2024-11-08T01:00:00	5	Humedad	70
162881	7	Sololá	712	San Antonio Palopó	9	San Antonio Palopo	4	Abril	2023-02-04T00:00:00	2024-11-08T01:00:00	6	Velocidad del viento	8
162882	7	Sololá	712	San Antonio Palopó	9	San Antonio Palopo	4	Abril	2023-02-04T00:00:00	2024-11-08T01:00:00	7	Dirección del viento	8.05
162883	7	Sololá	712	San Antonio Palopó	9	San Antonio Palopo	4	Abril	2023-02-04T00:00:00	2024-11-08T01:00:00	1	Precipitación	0
162884	7	Sololá	712	San Antonio Palopó	9	San Antonio Palopo	4	Abril	2023-02-04T00:00:00	2024-11-08T01:00:00	8	Radiación solar	0
162885	7	Sololá	712	San Antonio Palopó	9	San Antonio Palopo	4	Abril	2023-02-04T00:00:00	2024-11-08T02:00:00	2	Temperatura media	17.3
162886	7	Sololá	712	San Antonio Palopó	9	San Antonio Palopo	4	Abril	2023-02-04T00:00:00	2024-11-08T02:00:00	4	Temperatura máxima	17.6
162887	7	Sololá	712	San Antonio Palopó	9	San Antonio Palopo	4	Abril	2023-02-04T00:00:00	2024-11-08T02:00:00	3	Temperatura mínima	17.2
162888	7	Sololá	712	San Antonio Palopó	9	San Antonio Palopo	4	Abril	2023-02-04T00:00:00	2024-11-08T02:00:00	5	Humedad	70
162889	7	Sololá	712	San Antonio Palopó	9	San Antonio Palopo	4	Abril	2023-02-04T00:00:00	2024-11-08T02:00:00	6	Velocidad del viento	16.1
162890	7	Sololá	712	San Antonio Palopó	9	San Antonio Palopo	4	Abril	2023-02-04T00:00:00	2024-11-08T02:00:00	7	Dirección del viento	16.09
162891	7	Sololá	712	San Antonio Palopó	9	San Antonio Palopo	4	Abril	2023-02-04T00:00:00	2024-11-08T02:00:00	1	Precipitación	0
162892	7	Sololá	712	San Antonio Palopó	9	San Antonio Palopo	4	Abril	2023-02-04T00:00:00	2024-11-08T02:00:00	8	Radiación solar	0
162893	7	Sololá	712	San Antonio Palopó	9	San Antonio Palopo	4	Abril	2023-02-04T00:00:00	2024-11-08T03:00:00	2	Temperatura media	16.6
162894	7	Sololá	712	San Antonio Palopó	9	San Antonio Palopo	4	Abril	2023-02-04T00:00:00	2024-11-08T03:00:00	4	Temperatura máxima	17.3
162895	7	Sololá	712	San Antonio Palopó	9	San Antonio Palopo	4	Abril	2023-02-04T00:00:00	2024-11-08T03:00:00	3	Temperatura mínima	16.6
162896	7	Sololá	712	San Antonio Palopó	9	San Antonio Palopo	4	Abril	2023-02-04T00:00:00	2024-11-08T03:00:00	5	Humedad	71
162897	7	Sololá	712	San Antonio Palopó	9	San Antonio Palopo	4	Abril	2023-02-04T00:00:00	2024-11-08T03:00:00	6	Velocidad del viento	16.1
162898	7	Sololá	712	San Antonio Palopó	9	San Antonio Palopo	4	Abril	2023-02-04T00:00:00	2024-11-08T03:00:00	7	Dirección del viento	16.09
162899	7	Sololá	712	San Antonio Palopó	9	San Antonio Palopo	4	Abril	2023-02-04T00:00:00	2024-11-08T03:00:00	1	Precipitación	0
162900	7	Sololá	712	San Antonio Palopó	9	San Antonio Palopo	4	Abril	2023-02-04T00:00:00	2024-11-08T03:00:00	8	Radiación solar	0
162901	7	Sololá	712	San Antonio Palopó	9	San Antonio Palopo	4	Abril	2023-02-04T00:00:00	2024-11-08T04:00:00	2	Temperatura media	16.1
162902	7	Sololá	712	San Antonio Palopó	9	San Antonio Palopo	4	Abril	2023-02-04T00:00:00	2024-11-08T04:00:00	4	Temperatura máxima	16.7
162903	7	Sololá	712	San Antonio Palopó	9	San Antonio Palopo	4	Abril	2023-02-04T00:00:00	2024-11-08T04:00:00	3	Temperatura mínima	16.1
162904	7	Sololá	712	San Antonio Palopó	9	San Antonio Palopo	4	Abril	2023-02-04T00:00:00	2024-11-08T04:00:00	5	Humedad	70
162905	7	Sololá	712	San Antonio Palopó	9	San Antonio Palopo	4	Abril	2023-02-04T00:00:00	2024-11-08T04:00:00	6	Velocidad del viento	11.3
162906	7	Sololá	712	San Antonio Palopó	9	San Antonio Palopo	4	Abril	2023-02-04T00:00:00	2024-11-08T04:00:00	7	Dirección del viento	11.27
162907	7	Sololá	712	San Antonio Palopó	9	San Antonio Palopo	4	Abril	2023-02-04T00:00:00	2024-11-08T04:00:00	1	Precipitación	0
162908	7	Sololá	712	San Antonio Palopó	9	San Antonio Palopo	4	Abril	2023-02-04T00:00:00	2024-11-08T04:00:00	8	Radiación solar	0
162909	7	Sololá	712	San Antonio Palopó	9	San Antonio Palopo	4	Abril	2023-02-04T00:00:00	2024-11-08T05:00:00	2	Temperatura media	15.8
162910	7	Sololá	712	San Antonio Palopó	9	San Antonio Palopo	4	Abril	2023-02-04T00:00:00	2024-11-08T05:00:00	4	Temperatura máxima	16.2
162911	7	Sololá	712	San Antonio Palopó	9	San Antonio Palopo	4	Abril	2023-02-04T00:00:00	2024-11-08T05:00:00	3	Temperatura mínima	15.8
162912	7	Sololá	712	San Antonio Palopó	9	San Antonio Palopo	4	Abril	2023-02-04T00:00:00	2024-11-08T05:00:00	5	Humedad	66
162913	7	Sololá	712	San Antonio Palopó	9	San Antonio Palopo	4	Abril	2023-02-04T00:00:00	2024-11-08T05:00:00	6	Velocidad del viento	9.7
162914	7	Sololá	712	San Antonio Palopó	9	San Antonio Palopo	4	Abril	2023-02-04T00:00:00	2024-11-08T05:00:00	7	Dirección del viento	9.66
162915	7	Sololá	712	San Antonio Palopó	9	San Antonio Palopo	4	Abril	2023-02-04T00:00:00	2024-11-08T05:00:00	1	Precipitación	0
162916	7	Sololá	712	San Antonio Palopó	9	San Antonio Palopo	4	Abril	2023-02-04T00:00:00	2024-11-08T05:00:00	8	Radiación solar	0
162917	7	Sololá	712	San Antonio Palopó	9	San Antonio Palopo	4	Abril	2023-02-04T00:00:00	2024-11-08T06:00:00	2	Temperatura media	16.2
162918	7	Sololá	712	San Antonio Palopó	9	San Antonio Palopo	4	Abril	2023-02-04T00:00:00	2024-11-08T06:00:00	4	Temperatura máxima	16.3
162919	7	Sololá	712	San Antonio Palopó	9	San Antonio Palopo	4	Abril	2023-02-04T00:00:00	2024-11-08T06:00:00	3	Temperatura mínima	15.8
162920	7	Sololá	712	San Antonio Palopó	9	San Antonio Palopo	4	Abril	2023-02-04T00:00:00	2024-11-08T06:00:00	5	Humedad	61
162921	7	Sololá	712	San Antonio Palopó	9	San Antonio Palopo	4	Abril	2023-02-04T00:00:00	2024-11-08T06:00:00	6	Velocidad del viento	12.9
162922	7	Sololá	712	San Antonio Palopó	9	San Antonio Palopo	4	Abril	2023-02-04T00:00:00	2024-11-08T06:00:00	7	Dirección del viento	12.87
162923	7	Sololá	712	San Antonio Palopó	9	San Antonio Palopo	4	Abril	2023-02-04T00:00:00	2024-11-08T06:00:00	1	Precipitación	0
162924	7	Sololá	712	San Antonio Palopó	9	San Antonio Palopo	4	Abril	2023-02-04T00:00:00	2024-11-08T06:00:00	8	Radiación solar	0
162925	7	Sololá	712	San Antonio Palopó	9	San Antonio Palopo	4	Abril	2023-02-04T00:00:00	2024-11-08T07:00:00	2	Temperatura media	16.6
162926	7	Sololá	712	San Antonio Palopó	9	San Antonio Palopo	4	Abril	2023-02-04T00:00:00	2024-11-08T07:00:00	4	Temperatura máxima	16.7
162927	7	Sololá	712	San Antonio Palopó	9	San Antonio Palopo	4	Abril	2023-02-04T00:00:00	2024-11-08T07:00:00	3	Temperatura mínima	16.2
162928	7	Sololá	712	San Antonio Palopó	9	San Antonio Palopo	4	Abril	2023-02-04T00:00:00	2024-11-08T07:00:00	5	Humedad	58
162929	7	Sololá	712	San Antonio Palopó	9	San Antonio Palopo	4	Abril	2023-02-04T00:00:00	2024-11-08T07:00:00	6	Velocidad del viento	8
162930	7	Sololá	712	San Antonio Palopó	9	San Antonio Palopo	4	Abril	2023-02-04T00:00:00	2024-11-08T07:00:00	7	Dirección del viento	8.05
162931	7	Sololá	712	San Antonio Palopó	9	San Antonio Palopo	4	Abril	2023-02-04T00:00:00	2024-11-08T07:00:00	1	Precipitación	0
162932	7	Sololá	712	San Antonio Palopó	9	San Antonio Palopo	4	Abril	2023-02-04T00:00:00	2024-11-08T07:00:00	8	Radiación solar	14
162933	7	Sololá	712	San Antonio Palopó	9	San Antonio Palopo	4	Abril	2023-02-04T00:00:00	2024-11-08T08:00:00	2	Temperatura media	17.4
162934	7	Sololá	712	San Antonio Palopó	9	San Antonio Palopo	4	Abril	2023-02-04T00:00:00	2024-11-08T08:00:00	4	Temperatura máxima	17.4
162935	7	Sololá	712	San Antonio Palopó	9	San Antonio Palopo	4	Abril	2023-02-04T00:00:00	2024-11-08T08:00:00	3	Temperatura mínima	16.6
162936	7	Sololá	712	San Antonio Palopó	9	San Antonio Palopo	4	Abril	2023-02-04T00:00:00	2024-11-08T08:00:00	5	Humedad	61
162937	7	Sololá	712	San Antonio Palopó	9	San Antonio Palopo	4	Abril	2023-02-04T00:00:00	2024-11-08T08:00:00	6	Velocidad del viento	4.8
162938	7	Sololá	712	San Antonio Palopó	9	San Antonio Palopo	4	Abril	2023-02-04T00:00:00	2024-11-08T08:00:00	7	Dirección del viento	4.83
162939	7	Sololá	712	San Antonio Palopó	9	San Antonio Palopo	4	Abril	2023-02-04T00:00:00	2024-11-08T08:00:00	1	Precipitación	0
162940	7	Sololá	712	San Antonio Palopó	9	San Antonio Palopo	4	Abril	2023-02-04T00:00:00	2024-11-08T08:00:00	8	Radiación solar	84
162941	7	Sololá	712	San Antonio Palopó	9	San Antonio Palopo	4	Abril	2023-02-04T00:00:00	2024-11-08T09:00:00	2	Temperatura media	19
162942	7	Sololá	712	San Antonio Palopó	9	San Antonio Palopo	4	Abril	2023-02-04T00:00:00	2024-11-08T09:00:00	4	Temperatura máxima	19.2
162943	7	Sololá	712	San Antonio Palopó	9	San Antonio Palopo	4	Abril	2023-02-04T00:00:00	2024-11-08T09:00:00	3	Temperatura mínima	17.3
162944	7	Sololá	712	San Antonio Palopó	9	San Antonio Palopo	4	Abril	2023-02-04T00:00:00	2024-11-08T09:00:00	5	Humedad	61
162945	7	Sololá	712	San Antonio Palopó	9	San Antonio Palopo	4	Abril	2023-02-04T00:00:00	2024-11-08T09:00:00	6	Velocidad del viento	1.6
162946	7	Sololá	712	San Antonio Palopó	9	San Antonio Palopo	4	Abril	2023-02-04T00:00:00	2024-11-08T09:00:00	7	Dirección del viento	1.61
162947	7	Sololá	712	San Antonio Palopó	9	San Antonio Palopo	4	Abril	2023-02-04T00:00:00	2024-11-08T09:00:00	1	Precipitación	0
162948	7	Sololá	712	San Antonio Palopó	9	San Antonio Palopo	4	Abril	2023-02-04T00:00:00	2024-11-08T09:00:00	8	Radiación solar	397
162949	7	Sololá	712	San Antonio Palopó	9	San Antonio Palopo	4	Abril	2023-02-04T00:00:00	2024-11-08T10:00:00	2	Temperatura media	20.3
162950	7	Sololá	712	San Antonio Palopó	9	San Antonio Palopo	4	Abril	2023-02-04T00:00:00	2024-11-08T10:00:00	4	Temperatura máxima	20.3
162951	7	Sololá	712	San Antonio Palopó	9	San Antonio Palopo	4	Abril	2023-02-04T00:00:00	2024-11-08T10:00:00	3	Temperatura mínima	18.9
162952	7	Sololá	712	San Antonio Palopó	9	San Antonio Palopo	4	Abril	2023-02-04T00:00:00	2024-11-08T10:00:00	5	Humedad	57
162953	7	Sololá	712	San Antonio Palopó	9	San Antonio Palopo	4	Abril	2023-02-04T00:00:00	2024-11-08T10:00:00	6	Velocidad del viento	3.2
162954	7	Sololá	712	San Antonio Palopó	9	San Antonio Palopo	4	Abril	2023-02-04T00:00:00	2024-11-08T10:00:00	7	Dirección del viento	3.22
162955	7	Sololá	712	San Antonio Palopó	9	San Antonio Palopo	4	Abril	2023-02-04T00:00:00	2024-11-08T10:00:00	1	Precipitación	0
162956	7	Sololá	712	San Antonio Palopó	9	San Antonio Palopo	4	Abril	2023-02-04T00:00:00	2024-11-08T10:00:00	8	Radiación solar	590
162957	7	Sololá	712	San Antonio Palopó	9	San Antonio Palopo	4	Abril	2023-02-04T00:00:00	2024-11-08T11:00:00	2	Temperatura media	23.6
162958	7	Sololá	712	San Antonio Palopó	9	San Antonio Palopo	4	Abril	2023-02-04T00:00:00	2024-11-08T11:00:00	4	Temperatura máxima	23.7
162959	7	Sololá	712	San Antonio Palopó	9	San Antonio Palopo	4	Abril	2023-02-04T00:00:00	2024-11-08T11:00:00	3	Temperatura mínima	20.3
162960	7	Sololá	712	San Antonio Palopó	9	San Antonio Palopo	4	Abril	2023-02-04T00:00:00	2024-11-08T11:00:00	5	Humedad	58
162961	7	Sololá	712	San Antonio Palopó	9	San Antonio Palopo	4	Abril	2023-02-04T00:00:00	2024-11-08T11:00:00	6	Velocidad del viento	3.2
162962	7	Sololá	712	San Antonio Palopó	9	San Antonio Palopo	4	Abril	2023-02-04T00:00:00	2024-11-08T11:00:00	7	Dirección del viento	3.22
162963	7	Sololá	712	San Antonio Palopó	9	San Antonio Palopo	4	Abril	2023-02-04T00:00:00	2024-11-08T11:00:00	1	Precipitación	0
162964	7	Sololá	712	San Antonio Palopó	9	San Antonio Palopo	4	Abril	2023-02-04T00:00:00	2024-11-08T11:00:00	8	Radiación solar	855
162965	7	Sololá	712	San Antonio Palopó	9	San Antonio Palopo	4	Abril	2023-02-04T00:00:00	2024-11-08T12:00:00	2	Temperatura media	24.3
162966	7	Sololá	712	San Antonio Palopó	9	San Antonio Palopo	4	Abril	2023-02-04T00:00:00	2024-11-08T12:00:00	4	Temperatura máxima	24.7
162967	7	Sololá	712	San Antonio Palopó	9	San Antonio Palopo	4	Abril	2023-02-04T00:00:00	2024-11-08T12:00:00	3	Temperatura mínima	23.6
162968	7	Sololá	712	San Antonio Palopó	9	San Antonio Palopo	4	Abril	2023-02-04T00:00:00	2024-11-08T12:00:00	5	Humedad	53
162969	7	Sololá	712	San Antonio Palopó	9	San Antonio Palopo	4	Abril	2023-02-04T00:00:00	2024-11-08T12:00:00	6	Velocidad del viento	11.3
162970	7	Sololá	712	San Antonio Palopó	9	San Antonio Palopo	4	Abril	2023-02-04T00:00:00	2024-11-08T12:00:00	7	Dirección del viento	11.27
162971	7	Sololá	712	San Antonio Palopó	9	San Antonio Palopo	4	Abril	2023-02-04T00:00:00	2024-11-08T12:00:00	1	Precipitación	0
162972	7	Sololá	712	San Antonio Palopó	9	San Antonio Palopo	4	Abril	2023-02-04T00:00:00	2024-11-08T12:00:00	8	Radiación solar	941
162973	7	Sololá	712	San Antonio Palopó	9	San Antonio Palopo	4	Abril	2023-02-04T00:00:00	2024-11-08T13:00:00	2	Temperatura media	24.3
162974	7	Sololá	712	San Antonio Palopó	9	San Antonio Palopo	4	Abril	2023-02-04T00:00:00	2024-11-08T13:00:00	4	Temperatura máxima	24.4
162975	7	Sololá	712	San Antonio Palopó	9	San Antonio Palopo	4	Abril	2023-02-04T00:00:00	2024-11-08T13:00:00	3	Temperatura mínima	23
162976	7	Sololá	712	San Antonio Palopó	9	San Antonio Palopo	4	Abril	2023-02-04T00:00:00	2024-11-08T13:00:00	5	Humedad	55
162977	7	Sololá	712	San Antonio Palopó	9	San Antonio Palopo	4	Abril	2023-02-04T00:00:00	2024-11-08T13:00:00	6	Velocidad del viento	14.5
162978	7	Sololá	712	San Antonio Palopó	9	San Antonio Palopo	4	Abril	2023-02-04T00:00:00	2024-11-08T13:00:00	7	Dirección del viento	14.48
162979	7	Sololá	712	San Antonio Palopó	9	San Antonio Palopo	4	Abril	2023-02-04T00:00:00	2024-11-08T13:00:00	1	Precipitación	0
162980	7	Sololá	712	San Antonio Palopó	9	San Antonio Palopo	4	Abril	2023-02-04T00:00:00	2024-11-08T13:00:00	8	Radiación solar	941
162981	7	Sololá	712	San Antonio Palopó	9	San Antonio Palopo	4	Abril	2023-02-04T00:00:00	2024-11-08T14:00:00	2	Temperatura media	24.9
162982	7	Sololá	712	San Antonio Palopó	9	San Antonio Palopo	4	Abril	2023-02-04T00:00:00	2024-11-08T14:00:00	4	Temperatura máxima	25.8
162983	7	Sololá	712	San Antonio Palopó	9	San Antonio Palopo	4	Abril	2023-02-04T00:00:00	2024-11-08T14:00:00	3	Temperatura mínima	24.2
162984	7	Sololá	712	San Antonio Palopó	9	San Antonio Palopo	4	Abril	2023-02-04T00:00:00	2024-11-08T14:00:00	5	Humedad	52
162985	7	Sololá	712	San Antonio Palopó	9	San Antonio Palopo	4	Abril	2023-02-04T00:00:00	2024-11-08T14:00:00	6	Velocidad del viento	14.5
162986	7	Sololá	712	San Antonio Palopó	9	San Antonio Palopo	4	Abril	2023-02-04T00:00:00	2024-11-08T14:00:00	7	Dirección del viento	14.48
162987	7	Sololá	712	San Antonio Palopó	9	San Antonio Palopo	4	Abril	2023-02-04T00:00:00	2024-11-08T14:00:00	1	Precipitación	0
162988	7	Sololá	712	San Antonio Palopó	9	San Antonio Palopo	4	Abril	2023-02-04T00:00:00	2024-11-08T14:00:00	8	Radiación solar	878
162989	7	Sololá	712	San Antonio Palopó	9	San Antonio Palopo	4	Abril	2023-02-04T00:00:00	2024-11-08T15:00:00	2	Temperatura media	24.5
162990	7	Sololá	712	San Antonio Palopó	9	San Antonio Palopo	4	Abril	2023-02-04T00:00:00	2024-11-08T15:00:00	4	Temperatura máxima	25.9
162991	7	Sololá	712	San Antonio Palopó	9	San Antonio Palopo	4	Abril	2023-02-04T00:00:00	2024-11-08T15:00:00	3	Temperatura mínima	24.2
162992	7	Sololá	712	San Antonio Palopó	9	San Antonio Palopo	4	Abril	2023-02-04T00:00:00	2024-11-08T15:00:00	5	Humedad	57
162993	7	Sololá	712	San Antonio Palopó	9	San Antonio Palopo	4	Abril	2023-02-04T00:00:00	2024-11-08T15:00:00	6	Velocidad del viento	17.7
162994	7	Sololá	712	San Antonio Palopó	9	San Antonio Palopo	4	Abril	2023-02-04T00:00:00	2024-11-08T15:00:00	7	Dirección del viento	17.7
162995	7	Sololá	712	San Antonio Palopó	9	San Antonio Palopo	4	Abril	2023-02-04T00:00:00	2024-11-08T15:00:00	1	Precipitación	0
162996	7	Sololá	712	San Antonio Palopó	9	San Antonio Palopo	4	Abril	2023-02-04T00:00:00	2024-11-08T15:00:00	8	Radiación solar	733
162997	7	Sololá	712	San Antonio Palopó	9	San Antonio Palopo	4	Abril	2023-02-04T00:00:00	2024-11-08T16:00:00	2	Temperatura media	24.3
162998	7	Sololá	712	San Antonio Palopó	9	San Antonio Palopo	4	Abril	2023-02-04T00:00:00	2024-11-08T16:00:00	4	Temperatura máxima	24.6
162999	7	Sololá	712	San Antonio Palopó	9	San Antonio Palopo	4	Abril	2023-02-04T00:00:00	2024-11-08T16:00:00	3	Temperatura mínima	23.6
163000	7	Sololá	712	San Antonio Palopó	9	San Antonio Palopo	4	Abril	2023-02-04T00:00:00	2024-11-08T16:00:00	5	Humedad	63
163001	7	Sololá	712	San Antonio Palopó	9	San Antonio Palopo	4	Abril	2023-02-04T00:00:00	2024-11-08T16:00:00	6	Velocidad del viento	16.1
163002	7	Sololá	712	San Antonio Palopó	9	San Antonio Palopo	4	Abril	2023-02-04T00:00:00	2024-11-08T16:00:00	7	Dirección del viento	16.09
163003	7	Sololá	712	San Antonio Palopó	9	San Antonio Palopo	4	Abril	2023-02-04T00:00:00	2024-11-08T16:00:00	1	Precipitación	0
163004	7	Sololá	712	San Antonio Palopó	9	San Antonio Palopo	4	Abril	2023-02-04T00:00:00	2024-11-08T16:00:00	8	Radiación solar	537
163005	7	Sololá	712	San Antonio Palopó	9	San Antonio Palopo	4	Abril	2023-02-04T00:00:00	2024-11-08T17:00:00	2	Temperatura media	22.7
163006	7	Sololá	712	San Antonio Palopó	9	San Antonio Palopo	4	Abril	2023-02-04T00:00:00	2024-11-08T17:00:00	4	Temperatura máxima	24.3
163007	7	Sololá	712	San Antonio Palopó	9	San Antonio Palopo	4	Abril	2023-02-04T00:00:00	2024-11-08T17:00:00	3	Temperatura mínima	22.7
163008	7	Sololá	712	San Antonio Palopó	9	San Antonio Palopo	4	Abril	2023-02-04T00:00:00	2024-11-08T17:00:00	5	Humedad	72
163009	7	Sololá	712	San Antonio Palopó	9	San Antonio Palopo	4	Abril	2023-02-04T00:00:00	2024-11-08T17:00:00	6	Velocidad del viento	12.9
163010	7	Sololá	712	San Antonio Palopó	9	San Antonio Palopo	4	Abril	2023-02-04T00:00:00	2024-11-08T17:00:00	7	Dirección del viento	12.87
163011	7	Sololá	712	San Antonio Palopó	9	San Antonio Palopo	4	Abril	2023-02-04T00:00:00	2024-11-08T17:00:00	1	Precipitación	0
163012	7	Sololá	712	San Antonio Palopó	9	San Antonio Palopo	4	Abril	2023-02-04T00:00:00	2024-11-08T17:00:00	8	Radiación solar	323
163013	7	Sololá	712	San Antonio Palopó	9	San Antonio Palopo	4	Abril	2023-02-04T00:00:00	2024-11-08T18:00:00	2	Temperatura media	21.5
163014	7	Sololá	712	San Antonio Palopó	9	San Antonio Palopo	4	Abril	2023-02-04T00:00:00	2024-11-08T18:00:00	4	Temperatura máxima	22.7
163015	7	Sololá	712	San Antonio Palopó	9	San Antonio Palopo	4	Abril	2023-02-04T00:00:00	2024-11-08T18:00:00	3	Temperatura mínima	21.5
163016	7	Sololá	712	San Antonio Palopó	9	San Antonio Palopo	4	Abril	2023-02-04T00:00:00	2024-11-08T18:00:00	5	Humedad	76
163017	7	Sololá	712	San Antonio Palopó	9	San Antonio Palopo	4	Abril	2023-02-04T00:00:00	2024-11-08T18:00:00	6	Velocidad del viento	8
163018	7	Sololá	712	San Antonio Palopó	9	San Antonio Palopo	4	Abril	2023-02-04T00:00:00	2024-11-08T18:00:00	7	Dirección del viento	8.05
163019	7	Sololá	712	San Antonio Palopó	9	San Antonio Palopo	4	Abril	2023-02-04T00:00:00	2024-11-08T18:00:00	1	Precipitación	0
163020	7	Sololá	712	San Antonio Palopó	9	San Antonio Palopo	4	Abril	2023-02-04T00:00:00	2024-11-08T18:00:00	8	Radiación solar	107
163021	7	Sololá	712	San Antonio Palopó	9	San Antonio Palopo	4	Abril	2023-02-04T00:00:00	2024-11-08T19:00:00	2	Temperatura media	20.4
163022	7	Sololá	712	San Antonio Palopó	9	San Antonio Palopo	4	Abril	2023-02-04T00:00:00	2024-11-08T19:00:00	4	Temperatura máxima	21.5
163023	7	Sololá	712	San Antonio Palopó	9	San Antonio Palopo	4	Abril	2023-02-04T00:00:00	2024-11-08T19:00:00	3	Temperatura mínima	20.3
163024	7	Sololá	712	San Antonio Palopó	9	San Antonio Palopo	4	Abril	2023-02-04T00:00:00	2024-11-08T19:00:00	5	Humedad	80
163025	7	Sololá	712	San Antonio Palopó	9	San Antonio Palopo	4	Abril	2023-02-04T00:00:00	2024-11-08T19:00:00	6	Velocidad del viento	3.2
163026	7	Sololá	712	San Antonio Palopó	9	San Antonio Palopo	4	Abril	2023-02-04T00:00:00	2024-11-08T19:00:00	7	Dirección del viento	3.22
163027	7	Sololá	712	San Antonio Palopó	9	San Antonio Palopo	4	Abril	2023-02-04T00:00:00	2024-11-08T19:00:00	1	Precipitación	0
163028	7	Sololá	712	San Antonio Palopó	9	San Antonio Palopo	4	Abril	2023-02-04T00:00:00	2024-11-08T19:00:00	8	Radiación solar	0
163029	7	Sololá	712	San Antonio Palopó	9	San Antonio Palopo	4	Abril	2023-02-04T00:00:00	2024-11-08T20:00:00	2	Temperatura media	19.6
163030	7	Sololá	712	San Antonio Palopó	9	San Antonio Palopo	4	Abril	2023-02-04T00:00:00	2024-11-08T20:00:00	4	Temperatura máxima	20.3
163031	7	Sololá	712	San Antonio Palopó	9	San Antonio Palopo	4	Abril	2023-02-04T00:00:00	2024-11-08T20:00:00	3	Temperatura mínima	19.6
163032	7	Sololá	712	San Antonio Palopó	9	San Antonio Palopo	4	Abril	2023-02-04T00:00:00	2024-11-08T20:00:00	5	Humedad	78
163033	7	Sololá	712	San Antonio Palopó	9	San Antonio Palopo	4	Abril	2023-02-04T00:00:00	2024-11-08T20:00:00	6	Velocidad del viento	3.2
163034	7	Sololá	712	San Antonio Palopó	9	San Antonio Palopo	4	Abril	2023-02-04T00:00:00	2024-11-08T20:00:00	7	Dirección del viento	3.22
163035	7	Sololá	712	San Antonio Palopó	9	San Antonio Palopo	4	Abril	2023-02-04T00:00:00	2024-11-08T20:00:00	1	Precipitación	0
163036	7	Sololá	712	San Antonio Palopó	9	San Antonio Palopo	4	Abril	2023-02-04T00:00:00	2024-11-08T20:00:00	8	Radiación solar	0
163037	7	Sololá	712	San Antonio Palopó	9	San Antonio Palopo	4	Abril	2023-02-04T00:00:00	2024-11-08T21:00:00	2	Temperatura media	20.2
163038	7	Sololá	712	San Antonio Palopó	9	San Antonio Palopo	4	Abril	2023-02-04T00:00:00	2024-11-08T21:00:00	4	Temperatura máxima	20.7
163039	7	Sololá	712	San Antonio Palopó	9	San Antonio Palopo	4	Abril	2023-02-04T00:00:00	2024-11-08T21:00:00	3	Temperatura mínima	19.3
163040	7	Sololá	712	San Antonio Palopó	9	San Antonio Palopo	4	Abril	2023-02-04T00:00:00	2024-11-08T21:00:00	5	Humedad	62
163041	7	Sololá	712	San Antonio Palopó	9	San Antonio Palopo	4	Abril	2023-02-04T00:00:00	2024-11-08T21:00:00	6	Velocidad del viento	8
163042	7	Sololá	712	San Antonio Palopó	9	San Antonio Palopo	4	Abril	2023-02-04T00:00:00	2024-11-08T21:00:00	7	Dirección del viento	8.05
163043	7	Sololá	712	San Antonio Palopó	9	San Antonio Palopo	4	Abril	2023-02-04T00:00:00	2024-11-08T21:00:00	1	Precipitación	0
163044	7	Sololá	712	San Antonio Palopó	9	San Antonio Palopo	4	Abril	2023-02-04T00:00:00	2024-11-08T21:00:00	8	Radiación solar	0
163045	7	Sololá	712	San Antonio Palopó	9	San Antonio Palopo	4	Abril	2023-02-04T00:00:00	2024-11-08T22:00:00	2	Temperatura media	19.3
163046	7	Sololá	712	San Antonio Palopó	9	San Antonio Palopo	4	Abril	2023-02-04T00:00:00	2024-11-08T22:00:00	4	Temperatura máxima	20.2
163047	7	Sololá	712	San Antonio Palopó	9	San Antonio Palopo	4	Abril	2023-02-04T00:00:00	2024-11-08T22:00:00	3	Temperatura mínima	19.3
163048	7	Sololá	712	San Antonio Palopó	9	San Antonio Palopo	4	Abril	2023-02-04T00:00:00	2024-11-08T22:00:00	5	Humedad	65
163049	7	Sololá	712	San Antonio Palopó	9	San Antonio Palopo	4	Abril	2023-02-04T00:00:00	2024-11-08T22:00:00	6	Velocidad del viento	6.4
163050	7	Sololá	712	San Antonio Palopó	9	San Antonio Palopo	4	Abril	2023-02-04T00:00:00	2024-11-08T22:00:00	7	Dirección del viento	6.44
163051	7	Sololá	712	San Antonio Palopó	9	San Antonio Palopo	4	Abril	2023-02-04T00:00:00	2024-11-08T22:00:00	1	Precipitación	0
163052	7	Sololá	712	San Antonio Palopó	9	San Antonio Palopo	4	Abril	2023-02-04T00:00:00	2024-11-08T22:00:00	8	Radiación solar	0
163053	7	Sololá	712	San Antonio Palopó	9	San Antonio Palopo	4	Abril	2023-02-04T00:00:00	2024-11-08T23:00:00	2	Temperatura media	18.4
163054	7	Sololá	712	San Antonio Palopó	9	San Antonio Palopo	4	Abril	2023-02-04T00:00:00	2024-11-08T23:00:00	4	Temperatura máxima	19.4
163055	7	Sololá	712	San Antonio Palopó	9	San Antonio Palopo	4	Abril	2023-02-04T00:00:00	2024-11-08T23:00:00	3	Temperatura mínima	18.4
163056	7	Sololá	712	San Antonio Palopó	9	San Antonio Palopo	4	Abril	2023-02-04T00:00:00	2024-11-08T23:00:00	5	Humedad	67
163057	7	Sololá	712	San Antonio Palopó	9	San Antonio Palopo	4	Abril	2023-02-04T00:00:00	2024-11-08T23:00:00	6	Velocidad del viento	9.7
163058	7	Sololá	712	San Antonio Palopó	9	San Antonio Palopo	4	Abril	2023-02-04T00:00:00	2024-11-08T23:00:00	7	Dirección del viento	9.66
163059	7	Sololá	712	San Antonio Palopó	9	San Antonio Palopo	4	Abril	2023-02-04T00:00:00	2024-11-08T23:00:00	1	Precipitación	0
163060	7	Sololá	712	San Antonio Palopó	9	San Antonio Palopo	4	Abril	2023-02-04T00:00:00	2024-11-08T23:00:00	8	Radiación solar	0
163061	7	Sololá	712	San Antonio Palopó	9	San Antonio Palopo	4	Abril	2023-03-04T00:00:00	2024-11-08T00:00:00	2	Temperatura media	18.2
163062	7	Sololá	712	San Antonio Palopó	9	San Antonio Palopo	4	Abril	2023-03-04T00:00:00	2024-11-08T00:00:00	4	Temperatura máxima	18.5
163063	7	Sololá	712	San Antonio Palopó	9	San Antonio Palopo	4	Abril	2023-03-04T00:00:00	2024-11-08T00:00:00	3	Temperatura mínima	18.2
163064	7	Sololá	712	San Antonio Palopó	9	San Antonio Palopo	4	Abril	2023-03-04T00:00:00	2024-11-08T00:00:00	5	Humedad	68
163065	7	Sololá	712	San Antonio Palopó	9	San Antonio Palopo	4	Abril	2023-03-04T00:00:00	2024-11-08T00:00:00	6	Velocidad del viento	16.1
163066	7	Sololá	712	San Antonio Palopó	9	San Antonio Palopo	4	Abril	2023-03-04T00:00:00	2024-11-08T00:00:00	7	Dirección del viento	16.09
163067	7	Sololá	712	San Antonio Palopó	9	San Antonio Palopo	4	Abril	2023-03-04T00:00:00	2024-11-08T00:00:00	1	Precipitación	0
163068	7	Sololá	712	San Antonio Palopó	9	San Antonio Palopo	4	Abril	2023-03-04T00:00:00	2024-11-08T00:00:00	8	Radiación solar	0
163069	7	Sololá	712	San Antonio Palopó	9	San Antonio Palopo	4	Abril	2023-03-04T00:00:00	2024-11-08T01:00:00	2	Temperatura media	18
163070	7	Sololá	712	San Antonio Palopó	9	San Antonio Palopo	4	Abril	2023-03-04T00:00:00	2024-11-08T01:00:00	4	Temperatura máxima	18.3
163071	7	Sololá	712	San Antonio Palopó	9	San Antonio Palopo	4	Abril	2023-03-04T00:00:00	2024-11-08T01:00:00	3	Temperatura mínima	17.9
163072	7	Sololá	712	San Antonio Palopó	9	San Antonio Palopo	4	Abril	2023-03-04T00:00:00	2024-11-08T01:00:00	5	Humedad	67
163073	7	Sololá	712	San Antonio Palopó	9	San Antonio Palopo	4	Abril	2023-03-04T00:00:00	2024-11-08T01:00:00	6	Velocidad del viento	12.9
163074	7	Sololá	712	San Antonio Palopó	9	San Antonio Palopo	4	Abril	2023-03-04T00:00:00	2024-11-08T01:00:00	7	Dirección del viento	12.87
163075	7	Sololá	712	San Antonio Palopó	9	San Antonio Palopo	4	Abril	2023-03-04T00:00:00	2024-11-08T01:00:00	1	Precipitación	0
163076	7	Sololá	712	San Antonio Palopó	9	San Antonio Palopo	4	Abril	2023-03-04T00:00:00	2024-11-08T01:00:00	8	Radiación solar	0
163077	7	Sololá	712	San Antonio Palopó	9	San Antonio Palopo	4	Abril	2023-03-04T00:00:00	2024-11-08T02:00:00	2	Temperatura media	17.6
163078	7	Sololá	712	San Antonio Palopó	9	San Antonio Palopo	4	Abril	2023-03-04T00:00:00	2024-11-08T02:00:00	4	Temperatura máxima	18.1
163079	7	Sololá	712	San Antonio Palopó	9	San Antonio Palopo	4	Abril	2023-03-04T00:00:00	2024-11-08T02:00:00	3	Temperatura mínima	17.6
163080	7	Sololá	712	San Antonio Palopó	9	San Antonio Palopo	4	Abril	2023-03-04T00:00:00	2024-11-08T02:00:00	5	Humedad	66
163081	7	Sololá	712	San Antonio Palopó	9	San Antonio Palopo	4	Abril	2023-03-04T00:00:00	2024-11-08T02:00:00	6	Velocidad del viento	9.7
163082	7	Sololá	712	San Antonio Palopó	9	San Antonio Palopo	4	Abril	2023-03-04T00:00:00	2024-11-08T02:00:00	7	Dirección del viento	9.66
163083	7	Sololá	712	San Antonio Palopó	9	San Antonio Palopo	4	Abril	2023-03-04T00:00:00	2024-11-08T02:00:00	1	Precipitación	0
163084	7	Sololá	712	San Antonio Palopó	9	San Antonio Palopo	4	Abril	2023-03-04T00:00:00	2024-11-08T02:00:00	8	Radiación solar	0
163085	7	Sololá	712	San Antonio Palopó	9	San Antonio Palopo	4	Abril	2023-03-04T00:00:00	2024-11-08T03:00:00	2	Temperatura media	17.4
163086	7	Sololá	712	San Antonio Palopó	9	San Antonio Palopo	4	Abril	2023-03-04T00:00:00	2024-11-08T03:00:00	4	Temperatura máxima	17.9
163087	7	Sololá	712	San Antonio Palopó	9	San Antonio Palopo	4	Abril	2023-03-04T00:00:00	2024-11-08T03:00:00	3	Temperatura mínima	17.4
163088	7	Sololá	712	San Antonio Palopó	9	San Antonio Palopo	4	Abril	2023-03-04T00:00:00	2024-11-08T03:00:00	5	Humedad	63
163089	7	Sololá	712	San Antonio Palopó	9	San Antonio Palopo	4	Abril	2023-03-04T00:00:00	2024-11-08T03:00:00	6	Velocidad del viento	8
163090	7	Sololá	712	San Antonio Palopó	9	San Antonio Palopo	4	Abril	2023-03-04T00:00:00	2024-11-08T03:00:00	7	Dirección del viento	8.05
163091	7	Sololá	712	San Antonio Palopó	9	San Antonio Palopo	4	Abril	2023-03-04T00:00:00	2024-11-08T03:00:00	1	Precipitación	0
163092	7	Sololá	712	San Antonio Palopó	9	San Antonio Palopo	4	Abril	2023-03-04T00:00:00	2024-11-08T03:00:00	8	Radiación solar	0
163093	7	Sololá	712	San Antonio Palopó	9	San Antonio Palopo	4	Abril	2023-03-04T00:00:00	2024-11-08T04:00:00	2	Temperatura media	16.6
163094	7	Sololá	712	San Antonio Palopó	9	San Antonio Palopo	4	Abril	2023-03-04T00:00:00	2024-11-08T04:00:00	4	Temperatura máxima	17.4
163095	7	Sololá	712	San Antonio Palopó	9	San Antonio Palopo	4	Abril	2023-03-04T00:00:00	2024-11-08T04:00:00	3	Temperatura mínima	16.6
163096	7	Sololá	712	San Antonio Palopó	9	San Antonio Palopo	4	Abril	2023-03-04T00:00:00	2024-11-08T04:00:00	5	Humedad	61
163097	7	Sololá	712	San Antonio Palopó	9	San Antonio Palopo	4	Abril	2023-03-04T00:00:00	2024-11-08T04:00:00	6	Velocidad del viento	6.4
163098	7	Sololá	712	San Antonio Palopó	9	San Antonio Palopo	4	Abril	2023-03-04T00:00:00	2024-11-08T04:00:00	7	Dirección del viento	6.44
163099	7	Sololá	712	San Antonio Palopó	9	San Antonio Palopo	4	Abril	2023-03-04T00:00:00	2024-11-08T04:00:00	1	Precipitación	0
163100	7	Sololá	712	San Antonio Palopó	9	San Antonio Palopo	4	Abril	2023-03-04T00:00:00	2024-11-08T04:00:00	8	Radiación solar	0
163101	7	Sololá	712	San Antonio Palopó	9	San Antonio Palopo	4	Abril	2023-03-04T00:00:00	2024-11-08T05:00:00	2	Temperatura media	15.7
163102	7	Sololá	712	San Antonio Palopó	9	San Antonio Palopo	4	Abril	2023-03-04T00:00:00	2024-11-08T05:00:00	4	Temperatura máxima	16.6
163103	7	Sololá	712	San Antonio Palopó	9	San Antonio Palopo	4	Abril	2023-03-04T00:00:00	2024-11-08T05:00:00	3	Temperatura mínima	15.7
163104	7	Sololá	712	San Antonio Palopó	9	San Antonio Palopo	4	Abril	2023-03-04T00:00:00	2024-11-08T05:00:00	5	Humedad	63
163105	7	Sololá	712	San Antonio Palopó	9	San Antonio Palopo	4	Abril	2023-03-04T00:00:00	2024-11-08T05:00:00	6	Velocidad del viento	3.2
163106	7	Sololá	712	San Antonio Palopó	9	San Antonio Palopo	4	Abril	2023-03-04T00:00:00	2024-11-08T05:00:00	7	Dirección del viento	3.22
163107	7	Sololá	712	San Antonio Palopó	9	San Antonio Palopo	4	Abril	2023-03-04T00:00:00	2024-11-08T05:00:00	1	Precipitación	0
163108	7	Sololá	712	San Antonio Palopó	9	San Antonio Palopo	4	Abril	2023-03-04T00:00:00	2024-11-08T05:00:00	8	Radiación solar	0
163109	7	Sololá	712	San Antonio Palopó	9	San Antonio Palopo	4	Abril	2023-03-04T00:00:00	2024-11-08T06:00:00	2	Temperatura media	15.4
163110	7	Sololá	712	San Antonio Palopó	9	San Antonio Palopo	4	Abril	2023-03-04T00:00:00	2024-11-08T06:00:00	4	Temperatura máxima	16.1
163111	7	Sololá	712	San Antonio Palopó	9	San Antonio Palopo	4	Abril	2023-03-04T00:00:00	2024-11-08T06:00:00	3	Temperatura mínima	15.4
163112	7	Sololá	712	San Antonio Palopó	9	San Antonio Palopo	4	Abril	2023-03-04T00:00:00	2024-11-08T06:00:00	5	Humedad	69
163113	7	Sololá	712	San Antonio Palopó	9	San Antonio Palopo	4	Abril	2023-03-04T00:00:00	2024-11-08T06:00:00	6	Velocidad del viento	3.2
163114	7	Sololá	712	San Antonio Palopó	9	San Antonio Palopo	4	Abril	2023-03-04T00:00:00	2024-11-08T06:00:00	7	Dirección del viento	3.22
163115	7	Sololá	712	San Antonio Palopó	9	San Antonio Palopo	4	Abril	2023-03-04T00:00:00	2024-11-08T06:00:00	1	Precipitación	0
163116	7	Sololá	712	San Antonio Palopó	9	San Antonio Palopo	4	Abril	2023-03-04T00:00:00	2024-11-08T06:00:00	8	Radiación solar	0
163117	7	Sololá	712	San Antonio Palopó	9	San Antonio Palopo	4	Abril	2023-03-04T00:00:00	2024-11-08T07:00:00	2	Temperatura media	15.7
163118	7	Sololá	712	San Antonio Palopó	9	San Antonio Palopo	4	Abril	2023-03-04T00:00:00	2024-11-08T07:00:00	4	Temperatura máxima	15.7
163119	7	Sololá	712	San Antonio Palopó	9	San Antonio Palopo	4	Abril	2023-03-04T00:00:00	2024-11-08T07:00:00	3	Temperatura mínima	15.1
163120	7	Sololá	712	San Antonio Palopó	9	San Antonio Palopo	4	Abril	2023-03-04T00:00:00	2024-11-08T07:00:00	5	Humedad	73
163121	7	Sololá	712	San Antonio Palopó	9	San Antonio Palopo	4	Abril	2023-03-04T00:00:00	2024-11-08T07:00:00	6	Velocidad del viento	3.2
163122	7	Sololá	712	San Antonio Palopó	9	San Antonio Palopo	4	Abril	2023-03-04T00:00:00	2024-11-08T07:00:00	7	Dirección del viento	3.22
163123	7	Sololá	712	San Antonio Palopó	9	San Antonio Palopo	4	Abril	2023-03-04T00:00:00	2024-11-08T07:00:00	1	Precipitación	0
163124	7	Sololá	712	San Antonio Palopó	9	San Antonio Palopo	4	Abril	2023-03-04T00:00:00	2024-11-08T07:00:00	8	Radiación solar	20
163125	7	Sololá	712	San Antonio Palopó	9	San Antonio Palopo	4	Abril	2023-03-04T00:00:00	2024-11-08T08:00:00	2	Temperatura media	17.2
163126	7	Sololá	712	San Antonio Palopó	9	San Antonio Palopo	4	Abril	2023-03-04T00:00:00	2024-11-08T08:00:00	4	Temperatura máxima	17.2
163127	7	Sololá	712	San Antonio Palopó	9	San Antonio Palopo	4	Abril	2023-03-04T00:00:00	2024-11-08T08:00:00	3	Temperatura mínima	15.7
163128	7	Sololá	712	San Antonio Palopó	9	San Antonio Palopo	4	Abril	2023-03-04T00:00:00	2024-11-08T08:00:00	5	Humedad	71
163129	7	Sololá	712	San Antonio Palopó	9	San Antonio Palopo	4	Abril	2023-03-04T00:00:00	2024-11-08T08:00:00	6	Velocidad del viento	3.2
163130	7	Sololá	712	San Antonio Palopó	9	San Antonio Palopo	4	Abril	2023-03-04T00:00:00	2024-11-08T08:00:00	7	Dirección del viento	3.22
163131	7	Sololá	712	San Antonio Palopó	9	San Antonio Palopo	4	Abril	2023-03-04T00:00:00	2024-11-08T08:00:00	1	Precipitación	0
163132	7	Sololá	712	San Antonio Palopó	9	San Antonio Palopo	4	Abril	2023-03-04T00:00:00	2024-11-08T08:00:00	8	Radiación solar	101
163133	7	Sololá	712	San Antonio Palopó	9	San Antonio Palopo	4	Abril	2023-03-04T00:00:00	2024-11-08T09:00:00	2	Temperatura media	19.3
163134	7	Sololá	712	San Antonio Palopó	9	San Antonio Palopo	4	Abril	2023-03-04T00:00:00	2024-11-08T09:00:00	4	Temperatura máxima	19.8
163135	7	Sololá	712	San Antonio Palopó	9	San Antonio Palopo	4	Abril	2023-03-04T00:00:00	2024-11-08T09:00:00	3	Temperatura mínima	17.2
163136	7	Sololá	712	San Antonio Palopó	9	San Antonio Palopo	4	Abril	2023-03-04T00:00:00	2024-11-08T09:00:00	5	Humedad	66
163137	7	Sololá	712	San Antonio Palopó	9	San Antonio Palopo	4	Abril	2023-03-04T00:00:00	2024-11-08T09:00:00	6	Velocidad del viento	1.6
163138	7	Sololá	712	San Antonio Palopó	9	San Antonio Palopo	4	Abril	2023-03-04T00:00:00	2024-11-08T09:00:00	7	Dirección del viento	1.61
163139	7	Sololá	712	San Antonio Palopó	9	San Antonio Palopo	4	Abril	2023-03-04T00:00:00	2024-11-08T09:00:00	1	Precipitación	0
163140	7	Sololá	712	San Antonio Palopó	9	San Antonio Palopo	4	Abril	2023-03-04T00:00:00	2024-11-08T09:00:00	8	Radiación solar	389
163141	7	Sololá	712	San Antonio Palopó	9	San Antonio Palopo	4	Abril	2023-03-04T00:00:00	2024-11-08T10:00:00	2	Temperatura media	21.1
163142	7	Sololá	712	San Antonio Palopó	9	San Antonio Palopo	4	Abril	2023-03-04T00:00:00	2024-11-08T10:00:00	4	Temperatura máxima	21.1
163143	7	Sololá	712	San Antonio Palopó	9	San Antonio Palopo	4	Abril	2023-03-04T00:00:00	2024-11-08T10:00:00	3	Temperatura mínima	19.3
163144	7	Sololá	712	San Antonio Palopó	9	San Antonio Palopo	4	Abril	2023-03-04T00:00:00	2024-11-08T10:00:00	5	Humedad	65
163145	7	Sololá	712	San Antonio Palopó	9	San Antonio Palopo	4	Abril	2023-03-04T00:00:00	2024-11-08T10:00:00	6	Velocidad del viento	1.6
163146	7	Sololá	712	San Antonio Palopó	9	San Antonio Palopo	4	Abril	2023-03-04T00:00:00	2024-11-08T10:00:00	7	Dirección del viento	1.61
163147	7	Sololá	712	San Antonio Palopó	9	San Antonio Palopo	4	Abril	2023-03-04T00:00:00	2024-11-08T10:00:00	1	Precipitación	0
163148	7	Sololá	712	San Antonio Palopó	9	San Antonio Palopo	4	Abril	2023-03-04T00:00:00	2024-11-08T10:00:00	8	Radiación solar	578
163149	7	Sololá	712	San Antonio Palopó	9	San Antonio Palopo	4	Abril	2023-03-04T00:00:00	2024-11-08T11:00:00	2	Temperatura media	21.4
163150	7	Sololá	712	San Antonio Palopó	9	San Antonio Palopo	4	Abril	2023-03-04T00:00:00	2024-11-08T11:00:00	4	Temperatura máxima	21.5
163151	7	Sololá	712	San Antonio Palopó	9	San Antonio Palopo	4	Abril	2023-03-04T00:00:00	2024-11-08T11:00:00	3	Temperatura mínima	20.8
163152	7	Sololá	712	San Antonio Palopó	9	San Antonio Palopo	4	Abril	2023-03-04T00:00:00	2024-11-08T11:00:00	5	Humedad	68
163153	7	Sololá	712	San Antonio Palopó	9	San Antonio Palopo	4	Abril	2023-03-04T00:00:00	2024-11-08T11:00:00	6	Velocidad del viento	3.2
163154	7	Sololá	712	San Antonio Palopó	9	San Antonio Palopo	4	Abril	2023-03-04T00:00:00	2024-11-08T11:00:00	7	Dirección del viento	3.22
163155	7	Sololá	712	San Antonio Palopó	9	San Antonio Palopo	4	Abril	2023-03-04T00:00:00	2024-11-08T11:00:00	1	Precipitación	0
163156	7	Sololá	712	San Antonio Palopó	9	San Antonio Palopo	4	Abril	2023-03-04T00:00:00	2024-11-08T11:00:00	8	Radiación solar	827
163157	7	Sololá	712	San Antonio Palopó	9	San Antonio Palopo	4	Abril	2023-03-04T00:00:00	2024-11-08T12:00:00	2	Temperatura media	22.4
163158	7	Sololá	712	San Antonio Palopó	9	San Antonio Palopo	4	Abril	2023-03-04T00:00:00	2024-11-08T12:00:00	4	Temperatura máxima	22.4
163159	7	Sololá	712	San Antonio Palopó	9	San Antonio Palopo	4	Abril	2023-03-04T00:00:00	2024-11-08T12:00:00	3	Temperatura mínima	21.2
163160	7	Sololá	712	San Antonio Palopó	9	San Antonio Palopo	4	Abril	2023-03-04T00:00:00	2024-11-08T12:00:00	5	Humedad	68
163161	7	Sololá	712	San Antonio Palopó	9	San Antonio Palopo	4	Abril	2023-03-04T00:00:00	2024-11-08T12:00:00	6	Velocidad del viento	6.4
163162	7	Sololá	712	San Antonio Palopó	9	San Antonio Palopo	4	Abril	2023-03-04T00:00:00	2024-11-08T12:00:00	7	Dirección del viento	6.44
163163	7	Sololá	712	San Antonio Palopó	9	San Antonio Palopo	4	Abril	2023-03-04T00:00:00	2024-11-08T12:00:00	1	Precipitación	0
163164	7	Sololá	712	San Antonio Palopó	9	San Antonio Palopo	4	Abril	2023-03-04T00:00:00	2024-11-08T12:00:00	8	Radiación solar	939
163165	7	Sololá	712	San Antonio Palopó	9	San Antonio Palopo	4	Abril	2023-03-04T00:00:00	2024-11-08T13:00:00	2	Temperatura media	22.4
163166	7	Sololá	712	San Antonio Palopó	9	San Antonio Palopo	4	Abril	2023-03-04T00:00:00	2024-11-08T13:00:00	4	Temperatura máxima	23.9
163167	7	Sololá	712	San Antonio Palopó	9	San Antonio Palopo	4	Abril	2023-03-04T00:00:00	2024-11-08T13:00:00	3	Temperatura mínima	22.4
163168	7	Sololá	712	San Antonio Palopó	9	San Antonio Palopo	4	Abril	2023-03-04T00:00:00	2024-11-08T13:00:00	5	Humedad	66
163169	7	Sololá	712	San Antonio Palopó	9	San Antonio Palopo	4	Abril	2023-03-04T00:00:00	2024-11-08T13:00:00	6	Velocidad del viento	9.7
163170	7	Sololá	712	San Antonio Palopó	9	San Antonio Palopo	4	Abril	2023-03-04T00:00:00	2024-11-08T13:00:00	7	Dirección del viento	9.66
163171	7	Sololá	712	San Antonio Palopó	9	San Antonio Palopo	4	Abril	2023-03-04T00:00:00	2024-11-08T13:00:00	1	Precipitación	0
163172	7	Sololá	712	San Antonio Palopó	9	San Antonio Palopo	4	Abril	2023-03-04T00:00:00	2024-11-08T13:00:00	8	Radiación solar	945
163173	7	Sololá	712	San Antonio Palopó	9	San Antonio Palopo	4	Abril	2023-03-04T00:00:00	2024-11-08T14:00:00	2	Temperatura media	23
163174	7	Sololá	712	San Antonio Palopó	9	San Antonio Palopo	4	Abril	2023-03-04T00:00:00	2024-11-08T14:00:00	4	Temperatura máxima	23
163175	7	Sololá	712	San Antonio Palopó	9	San Antonio Palopo	4	Abril	2023-03-04T00:00:00	2024-11-08T14:00:00	3	Temperatura mínima	22.2
163176	7	Sololá	712	San Antonio Palopó	9	San Antonio Palopo	4	Abril	2023-03-04T00:00:00	2024-11-08T14:00:00	5	Humedad	66
163177	7	Sololá	712	San Antonio Palopó	9	San Antonio Palopo	4	Abril	2023-03-04T00:00:00	2024-11-08T14:00:00	6	Velocidad del viento	12.9
163178	7	Sololá	712	San Antonio Palopó	9	San Antonio Palopo	4	Abril	2023-03-04T00:00:00	2024-11-08T14:00:00	7	Dirección del viento	12.87
163179	7	Sololá	712	San Antonio Palopó	9	San Antonio Palopo	4	Abril	2023-03-04T00:00:00	2024-11-08T14:00:00	1	Precipitación	0
163180	7	Sololá	712	San Antonio Palopó	9	San Antonio Palopo	4	Abril	2023-03-04T00:00:00	2024-11-08T14:00:00	8	Radiación solar	857
163181	7	Sololá	712	San Antonio Palopó	9	San Antonio Palopo	4	Abril	2023-03-04T00:00:00	2024-11-08T15:00:00	2	Temperatura media	23.2
163182	7	Sololá	712	San Antonio Palopó	9	San Antonio Palopo	4	Abril	2023-03-04T00:00:00	2024-11-08T15:00:00	4	Temperatura máxima	23.8
163183	7	Sololá	712	San Antonio Palopó	9	San Antonio Palopo	4	Abril	2023-03-04T00:00:00	2024-11-08T15:00:00	3	Temperatura mínima	23
163184	7	Sololá	712	San Antonio Palopó	9	San Antonio Palopo	4	Abril	2023-03-04T00:00:00	2024-11-08T15:00:00	5	Humedad	65
163185	7	Sololá	712	San Antonio Palopó	9	San Antonio Palopo	4	Abril	2023-03-04T00:00:00	2024-11-08T15:00:00	6	Velocidad del viento	8
163186	7	Sololá	712	San Antonio Palopó	9	San Antonio Palopo	4	Abril	2023-03-04T00:00:00	2024-11-08T15:00:00	7	Dirección del viento	8.05
163187	7	Sololá	712	San Antonio Palopó	9	San Antonio Palopo	4	Abril	2023-03-04T00:00:00	2024-11-08T15:00:00	1	Precipitación	0
163188	7	Sololá	712	San Antonio Palopó	9	San Antonio Palopo	4	Abril	2023-03-04T00:00:00	2024-11-08T15:00:00	8	Radiación solar	720
163189	7	Sololá	712	San Antonio Palopó	9	San Antonio Palopo	4	Abril	2023-03-04T00:00:00	2024-11-08T16:00:00	2	Temperatura media	22.4
163190	7	Sololá	712	San Antonio Palopó	9	San Antonio Palopo	4	Abril	2023-03-04T00:00:00	2024-11-08T16:00:00	4	Temperatura máxima	23.2
163191	7	Sololá	712	San Antonio Palopó	9	San Antonio Palopo	4	Abril	2023-03-04T00:00:00	2024-11-08T16:00:00	3	Temperatura mínima	22.2
163192	7	Sololá	712	San Antonio Palopó	9	San Antonio Palopo	4	Abril	2023-03-04T00:00:00	2024-11-08T16:00:00	5	Humedad	74
163193	7	Sololá	712	San Antonio Palopó	9	San Antonio Palopo	4	Abril	2023-03-04T00:00:00	2024-11-08T16:00:00	6	Velocidad del viento	8
163194	7	Sololá	712	San Antonio Palopó	9	San Antonio Palopo	4	Abril	2023-03-04T00:00:00	2024-11-08T16:00:00	7	Dirección del viento	8.05
163195	7	Sololá	712	San Antonio Palopó	9	San Antonio Palopo	4	Abril	2023-03-04T00:00:00	2024-11-08T16:00:00	1	Precipitación	0
163196	7	Sololá	712	San Antonio Palopó	9	San Antonio Palopo	4	Abril	2023-03-04T00:00:00	2024-11-08T16:00:00	8	Radiación solar	390
163197	7	Sololá	712	San Antonio Palopó	9	San Antonio Palopo	4	Abril	2023-03-04T00:00:00	2024-11-08T17:00:00	2	Temperatura media	22.1
163198	7	Sololá	712	San Antonio Palopó	9	San Antonio Palopo	4	Abril	2023-03-04T00:00:00	2024-11-08T17:00:00	4	Temperatura máxima	22.4
163199	7	Sololá	712	San Antonio Palopó	9	San Antonio Palopo	4	Abril	2023-03-04T00:00:00	2024-11-08T17:00:00	3	Temperatura mínima	21.8
163200	7	Sololá	712	San Antonio Palopó	9	San Antonio Palopo	4	Abril	2023-03-04T00:00:00	2024-11-08T17:00:00	5	Humedad	74
163201	7	Sololá	712	San Antonio Palopó	9	San Antonio Palopo	4	Abril	2023-03-04T00:00:00	2024-11-08T17:00:00	6	Velocidad del viento	6.4
163202	7	Sololá	712	San Antonio Palopó	9	San Antonio Palopo	4	Abril	2023-03-04T00:00:00	2024-11-08T17:00:00	7	Dirección del viento	6.44
163203	7	Sololá	712	San Antonio Palopó	9	San Antonio Palopo	4	Abril	2023-03-04T00:00:00	2024-11-08T17:00:00	1	Precipitación	0
163204	7	Sololá	712	San Antonio Palopó	9	San Antonio Palopo	4	Abril	2023-03-04T00:00:00	2024-11-08T17:00:00	8	Radiación solar	254
163205	7	Sololá	712	San Antonio Palopó	9	San Antonio Palopo	4	Abril	2023-03-04T00:00:00	2024-11-08T18:00:00	2	Temperatura media	20.9
163206	7	Sololá	712	San Antonio Palopó	9	San Antonio Palopo	4	Abril	2023-03-04T00:00:00	2024-11-08T18:00:00	4	Temperatura máxima	22.1
163207	7	Sololá	712	San Antonio Palopó	9	San Antonio Palopo	4	Abril	2023-03-04T00:00:00	2024-11-08T18:00:00	3	Temperatura mínima	20.9
163208	7	Sololá	712	San Antonio Palopó	9	San Antonio Palopo	4	Abril	2023-03-04T00:00:00	2024-11-08T18:00:00	5	Humedad	77
163209	7	Sololá	712	San Antonio Palopó	9	San Antonio Palopo	4	Abril	2023-03-04T00:00:00	2024-11-08T18:00:00	6	Velocidad del viento	4.8
163210	7	Sololá	712	San Antonio Palopó	9	San Antonio Palopo	4	Abril	2023-03-04T00:00:00	2024-11-08T18:00:00	7	Dirección del viento	4.83
163211	7	Sololá	712	San Antonio Palopó	9	San Antonio Palopo	4	Abril	2023-03-04T00:00:00	2024-11-08T18:00:00	1	Precipitación	0
163212	7	Sololá	712	San Antonio Palopó	9	San Antonio Palopo	4	Abril	2023-03-04T00:00:00	2024-11-08T18:00:00	8	Radiación solar	94
163213	7	Sololá	712	San Antonio Palopó	9	San Antonio Palopo	4	Abril	2023-03-04T00:00:00	2024-11-08T19:00:00	2	Temperatura media	19.9
163214	7	Sololá	712	San Antonio Palopó	9	San Antonio Palopo	4	Abril	2023-03-04T00:00:00	2024-11-08T19:00:00	4	Temperatura máxima	20.9
163215	7	Sololá	712	San Antonio Palopó	9	San Antonio Palopo	4	Abril	2023-03-04T00:00:00	2024-11-08T19:00:00	3	Temperatura mínima	19.9
163216	7	Sololá	712	San Antonio Palopó	9	San Antonio Palopo	4	Abril	2023-03-04T00:00:00	2024-11-08T19:00:00	5	Humedad	82
163217	7	Sololá	712	San Antonio Palopó	9	San Antonio Palopo	4	Abril	2023-03-04T00:00:00	2024-11-08T19:00:00	6	Velocidad del viento	4.8
163218	7	Sololá	712	San Antonio Palopó	9	San Antonio Palopo	4	Abril	2023-03-04T00:00:00	2024-11-08T19:00:00	7	Dirección del viento	4.83
163219	7	Sololá	712	San Antonio Palopó	9	San Antonio Palopo	4	Abril	2023-03-04T00:00:00	2024-11-08T19:00:00	1	Precipitación	0
163220	7	Sololá	712	San Antonio Palopó	9	San Antonio Palopo	4	Abril	2023-03-04T00:00:00	2024-11-08T19:00:00	8	Radiación solar	0
163221	7	Sololá	712	San Antonio Palopó	9	San Antonio Palopo	4	Abril	2023-03-04T00:00:00	2024-11-08T20:00:00	2	Temperatura media	19.7
163222	7	Sololá	712	San Antonio Palopó	9	San Antonio Palopo	4	Abril	2023-03-04T00:00:00	2024-11-08T20:00:00	4	Temperatura máxima	20
163223	7	Sololá	712	San Antonio Palopó	9	San Antonio Palopo	4	Abril	2023-03-04T00:00:00	2024-11-08T20:00:00	3	Temperatura mínima	19.4
163224	7	Sololá	712	San Antonio Palopó	9	San Antonio Palopo	4	Abril	2023-03-04T00:00:00	2024-11-08T20:00:00	5	Humedad	84
163225	7	Sololá	712	San Antonio Palopó	9	San Antonio Palopo	4	Abril	2023-03-04T00:00:00	2024-11-08T20:00:00	6	Velocidad del viento	4.8
163226	7	Sololá	712	San Antonio Palopó	9	San Antonio Palopo	4	Abril	2023-03-04T00:00:00	2024-11-08T20:00:00	7	Dirección del viento	4.83
163227	7	Sololá	712	San Antonio Palopó	9	San Antonio Palopo	4	Abril	2023-03-04T00:00:00	2024-11-08T20:00:00	1	Precipitación	0
163228	7	Sololá	712	San Antonio Palopó	9	San Antonio Palopo	4	Abril	2023-03-04T00:00:00	2024-11-08T20:00:00	8	Radiación solar	0
163229	7	Sololá	712	San Antonio Palopó	9	San Antonio Palopo	4	Abril	2023-03-04T00:00:00	2024-11-08T21:00:00	2	Temperatura media	19.5
163230	7	Sololá	712	San Antonio Palopó	9	San Antonio Palopo	4	Abril	2023-03-04T00:00:00	2024-11-08T21:00:00	4	Temperatura máxima	19.7
163231	7	Sololá	712	San Antonio Palopó	9	San Antonio Palopo	4	Abril	2023-03-04T00:00:00	2024-11-08T21:00:00	3	Temperatura mínima	19.5
163232	7	Sololá	712	San Antonio Palopó	9	San Antonio Palopo	4	Abril	2023-03-04T00:00:00	2024-11-08T21:00:00	5	Humedad	79
163233	7	Sololá	712	San Antonio Palopó	9	San Antonio Palopo	4	Abril	2023-03-04T00:00:00	2024-11-08T21:00:00	6	Velocidad del viento	3.2
163234	7	Sololá	712	San Antonio Palopó	9	San Antonio Palopo	4	Abril	2023-03-04T00:00:00	2024-11-08T21:00:00	7	Dirección del viento	3.22
163235	7	Sololá	712	San Antonio Palopó	9	San Antonio Palopo	4	Abril	2023-03-04T00:00:00	2024-11-08T21:00:00	1	Precipitación	0
163236	7	Sololá	712	San Antonio Palopó	9	San Antonio Palopo	4	Abril	2023-03-04T00:00:00	2024-11-08T21:00:00	8	Radiación solar	0
163237	7	Sololá	712	San Antonio Palopó	9	San Antonio Palopo	4	Abril	2023-03-04T00:00:00	2024-11-08T22:00:00	2	Temperatura media	19.1
163238	7	Sololá	712	San Antonio Palopó	9	San Antonio Palopo	4	Abril	2023-03-04T00:00:00	2024-11-08T22:00:00	4	Temperatura máxima	19.6
163239	7	Sololá	712	San Antonio Palopó	9	San Antonio Palopo	4	Abril	2023-03-04T00:00:00	2024-11-08T22:00:00	3	Temperatura mínima	19
163240	7	Sololá	712	San Antonio Palopó	9	San Antonio Palopo	4	Abril	2023-03-04T00:00:00	2024-11-08T22:00:00	5	Humedad	77
163241	7	Sololá	712	San Antonio Palopó	9	San Antonio Palopo	4	Abril	2023-03-04T00:00:00	2024-11-08T22:00:00	6	Velocidad del viento	3.2
163242	7	Sololá	712	San Antonio Palopó	9	San Antonio Palopo	4	Abril	2023-03-04T00:00:00	2024-11-08T22:00:00	7	Dirección del viento	3.22
163243	7	Sololá	712	San Antonio Palopó	9	San Antonio Palopo	4	Abril	2023-03-04T00:00:00	2024-11-08T22:00:00	1	Precipitación	0
163244	7	Sololá	712	San Antonio Palopó	9	San Antonio Palopo	4	Abril	2023-03-04T00:00:00	2024-11-08T22:00:00	8	Radiación solar	0
163245	7	Sololá	712	San Antonio Palopó	9	San Antonio Palopo	4	Abril	2023-03-04T00:00:00	2024-11-08T23:00:00	2	Temperatura media	19.2
163246	7	Sololá	712	San Antonio Palopó	9	San Antonio Palopo	4	Abril	2023-03-04T00:00:00	2024-11-08T23:00:00	4	Temperatura máxima	19.2
163247	7	Sololá	712	San Antonio Palopó	9	San Antonio Palopo	4	Abril	2023-03-04T00:00:00	2024-11-08T23:00:00	3	Temperatura mínima	18.3
163248	7	Sololá	712	San Antonio Palopó	9	San Antonio Palopo	4	Abril	2023-03-04T00:00:00	2024-11-08T23:00:00	5	Humedad	73
163249	7	Sololá	712	San Antonio Palopó	9	San Antonio Palopo	4	Abril	2023-03-04T00:00:00	2024-11-08T23:00:00	6	Velocidad del viento	3.2
163250	7	Sololá	712	San Antonio Palopó	9	San Antonio Palopo	4	Abril	2023-03-04T00:00:00	2024-11-08T23:00:00	7	Dirección del viento	3.22
163251	7	Sololá	712	San Antonio Palopó	9	San Antonio Palopo	4	Abril	2023-03-04T00:00:00	2024-11-08T23:00:00	1	Precipitación	0
163252	7	Sololá	712	San Antonio Palopó	9	San Antonio Palopo	4	Abril	2023-03-04T00:00:00	2024-11-08T23:00:00	8	Radiación solar	0
163253	7	Sololá	712	San Antonio Palopó	9	San Antonio Palopo	4	Abril	2023-04-04T00:00:00	2024-11-08T00:00:00	2	Temperatura media	18.8
163254	7	Sololá	712	San Antonio Palopó	9	San Antonio Palopo	4	Abril	2023-04-04T00:00:00	2024-11-08T00:00:00	4	Temperatura máxima	19.4
163255	7	Sololá	712	San Antonio Palopó	9	San Antonio Palopo	4	Abril	2023-04-04T00:00:00	2024-11-08T00:00:00	3	Temperatura mínima	18.4
163256	7	Sololá	712	San Antonio Palopó	9	San Antonio Palopo	4	Abril	2023-04-04T00:00:00	2024-11-08T00:00:00	5	Humedad	70
163257	7	Sololá	712	San Antonio Palopó	9	San Antonio Palopo	4	Abril	2023-04-04T00:00:00	2024-11-08T00:00:00	6	Velocidad del viento	4.8
163258	7	Sololá	712	San Antonio Palopó	9	San Antonio Palopo	4	Abril	2023-04-04T00:00:00	2024-11-08T00:00:00	7	Dirección del viento	4.83
163259	7	Sololá	712	San Antonio Palopó	9	San Antonio Palopo	4	Abril	2023-04-04T00:00:00	2024-11-08T00:00:00	1	Precipitación	0
163260	7	Sololá	712	San Antonio Palopó	9	San Antonio Palopo	4	Abril	2023-04-04T00:00:00	2024-11-08T00:00:00	8	Radiación solar	0
163261	7	Sololá	712	San Antonio Palopó	9	San Antonio Palopo	4	Abril	2023-04-04T00:00:00	2024-11-08T01:00:00	2	Temperatura media	18.3
163262	7	Sololá	712	San Antonio Palopó	9	San Antonio Palopo	4	Abril	2023-04-04T00:00:00	2024-11-08T01:00:00	4	Temperatura máxima	19
163263	7	Sololá	712	San Antonio Palopó	9	San Antonio Palopo	4	Abril	2023-04-04T00:00:00	2024-11-08T01:00:00	3	Temperatura mínima	18.3
163264	7	Sololá	712	San Antonio Palopó	9	San Antonio Palopo	4	Abril	2023-04-04T00:00:00	2024-11-08T01:00:00	5	Humedad	74
163265	7	Sololá	712	San Antonio Palopó	9	San Antonio Palopo	4	Abril	2023-04-04T00:00:00	2024-11-08T01:00:00	6	Velocidad del viento	4.8
163266	7	Sololá	712	San Antonio Palopó	9	San Antonio Palopo	4	Abril	2023-04-04T00:00:00	2024-11-08T01:00:00	7	Dirección del viento	4.83
163267	7	Sololá	712	San Antonio Palopó	9	San Antonio Palopo	4	Abril	2023-04-04T00:00:00	2024-11-08T01:00:00	1	Precipitación	0
163268	7	Sololá	712	San Antonio Palopó	9	San Antonio Palopo	4	Abril	2023-04-04T00:00:00	2024-11-08T01:00:00	8	Radiación solar	0
163269	7	Sololá	712	San Antonio Palopó	9	San Antonio Palopo	4	Abril	2023-04-04T00:00:00	2024-11-08T02:00:00	2	Temperatura media	17.8
163270	7	Sololá	712	San Antonio Palopó	9	San Antonio Palopo	4	Abril	2023-04-04T00:00:00	2024-11-08T02:00:00	4	Temperatura máxima	18.3
163271	7	Sololá	712	San Antonio Palopó	9	San Antonio Palopo	4	Abril	2023-04-04T00:00:00	2024-11-08T02:00:00	3	Temperatura mínima	17.1
163272	7	Sololá	712	San Antonio Palopó	9	San Antonio Palopo	4	Abril	2023-04-04T00:00:00	2024-11-08T02:00:00	5	Humedad	72
163273	7	Sololá	712	San Antonio Palopó	9	San Antonio Palopo	4	Abril	2023-04-04T00:00:00	2024-11-08T02:00:00	6	Velocidad del viento	3.2
163274	7	Sololá	712	San Antonio Palopó	9	San Antonio Palopo	4	Abril	2023-04-04T00:00:00	2024-11-08T02:00:00	7	Dirección del viento	3.22
163275	7	Sololá	712	San Antonio Palopó	9	San Antonio Palopo	4	Abril	2023-04-04T00:00:00	2024-11-08T02:00:00	1	Precipitación	0
163276	7	Sololá	712	San Antonio Palopó	9	San Antonio Palopo	4	Abril	2023-04-04T00:00:00	2024-11-08T02:00:00	8	Radiación solar	0
163277	7	Sololá	712	San Antonio Palopó	9	San Antonio Palopo	4	Abril	2023-04-04T00:00:00	2024-11-08T03:00:00	2	Temperatura media	16.7
163278	7	Sololá	712	San Antonio Palopó	9	San Antonio Palopo	4	Abril	2023-04-04T00:00:00	2024-11-08T03:00:00	4	Temperatura máxima	17.8
163279	7	Sololá	712	San Antonio Palopó	9	San Antonio Palopo	4	Abril	2023-04-04T00:00:00	2024-11-08T03:00:00	3	Temperatura mínima	16.6
163280	7	Sololá	712	San Antonio Palopó	9	San Antonio Palopo	4	Abril	2023-04-04T00:00:00	2024-11-08T03:00:00	5	Humedad	74
163281	7	Sololá	712	San Antonio Palopó	9	San Antonio Palopo	4	Abril	2023-04-04T00:00:00	2024-11-08T03:00:00	6	Velocidad del viento	3.2
163282	7	Sololá	712	San Antonio Palopó	9	San Antonio Palopo	4	Abril	2023-04-04T00:00:00	2024-11-08T03:00:00	7	Dirección del viento	3.22
163283	7	Sololá	712	San Antonio Palopó	9	San Antonio Palopo	4	Abril	2023-04-04T00:00:00	2024-11-08T03:00:00	1	Precipitación	0
163284	7	Sololá	712	San Antonio Palopó	9	San Antonio Palopo	4	Abril	2023-04-04T00:00:00	2024-11-08T03:00:00	8	Radiación solar	0
163285	7	Sololá	712	San Antonio Palopó	9	San Antonio Palopo	4	Abril	2023-04-04T00:00:00	2024-11-08T04:00:00	2	Temperatura media	15.8
163286	7	Sololá	712	San Antonio Palopó	9	San Antonio Palopo	4	Abril	2023-04-04T00:00:00	2024-11-08T04:00:00	4	Temperatura máxima	16.7
163287	7	Sololá	712	San Antonio Palopó	9	San Antonio Palopo	4	Abril	2023-04-04T00:00:00	2024-11-08T04:00:00	3	Temperatura mínima	15.8
163288	7	Sololá	712	San Antonio Palopó	9	San Antonio Palopo	4	Abril	2023-04-04T00:00:00	2024-11-08T04:00:00	5	Humedad	76
163289	7	Sololá	712	San Antonio Palopó	9	San Antonio Palopo	4	Abril	2023-04-04T00:00:00	2024-11-08T04:00:00	6	Velocidad del viento	3.2
163290	7	Sololá	712	San Antonio Palopó	9	San Antonio Palopo	4	Abril	2023-04-04T00:00:00	2024-11-08T04:00:00	7	Dirección del viento	3.22
163291	7	Sololá	712	San Antonio Palopó	9	San Antonio Palopo	4	Abril	2023-04-04T00:00:00	2024-11-08T04:00:00	1	Precipitación	0
163292	7	Sololá	712	San Antonio Palopó	9	San Antonio Palopo	4	Abril	2023-04-04T00:00:00	2024-11-08T04:00:00	8	Radiación solar	0
163293	7	Sololá	712	San Antonio Palopó	9	San Antonio Palopo	4	Abril	2023-04-04T00:00:00	2024-11-08T05:00:00	2	Temperatura media	15.2
163294	7	Sololá	712	San Antonio Palopó	9	San Antonio Palopo	4	Abril	2023-04-04T00:00:00	2024-11-08T05:00:00	4	Temperatura máxima	15.8
163295	7	Sololá	712	San Antonio Palopó	9	San Antonio Palopo	4	Abril	2023-04-04T00:00:00	2024-11-08T05:00:00	3	Temperatura mínima	15.2
163296	7	Sololá	712	San Antonio Palopó	9	San Antonio Palopo	4	Abril	2023-04-04T00:00:00	2024-11-08T05:00:00	5	Humedad	72
163297	7	Sololá	712	San Antonio Palopó	9	San Antonio Palopo	4	Abril	2023-04-04T00:00:00	2024-11-08T05:00:00	6	Velocidad del viento	4.8
163298	7	Sololá	712	San Antonio Palopó	9	San Antonio Palopo	4	Abril	2023-04-04T00:00:00	2024-11-08T05:00:00	7	Dirección del viento	4.83
163299	7	Sololá	712	San Antonio Palopó	9	San Antonio Palopo	4	Abril	2023-04-04T00:00:00	2024-11-08T05:00:00	1	Precipitación	0
163300	7	Sololá	712	San Antonio Palopó	9	San Antonio Palopo	4	Abril	2023-04-04T00:00:00	2024-11-08T05:00:00	8	Radiación solar	0
163301	7	Sololá	712	San Antonio Palopó	9	San Antonio Palopo	4	Abril	2023-04-04T00:00:00	2024-11-08T06:00:00	2	Temperatura media	14.9
163302	7	Sololá	712	San Antonio Palopó	9	San Antonio Palopo	4	Abril	2023-04-04T00:00:00	2024-11-08T06:00:00	4	Temperatura máxima	15.2
163303	7	Sololá	712	San Antonio Palopó	9	San Antonio Palopo	4	Abril	2023-04-04T00:00:00	2024-11-08T06:00:00	3	Temperatura mínima	14.9
163304	7	Sololá	712	San Antonio Palopó	9	San Antonio Palopo	4	Abril	2023-04-04T00:00:00	2024-11-08T06:00:00	5	Humedad	75
163305	7	Sololá	712	San Antonio Palopó	9	San Antonio Palopo	4	Abril	2023-04-04T00:00:00	2024-11-08T06:00:00	6	Velocidad del viento	4.8
163306	7	Sololá	712	San Antonio Palopó	9	San Antonio Palopo	4	Abril	2023-04-04T00:00:00	2024-11-08T06:00:00	7	Dirección del viento	4.83
163307	7	Sololá	712	San Antonio Palopó	9	San Antonio Palopo	4	Abril	2023-04-04T00:00:00	2024-11-08T06:00:00	1	Precipitación	0
163308	7	Sololá	712	San Antonio Palopó	9	San Antonio Palopo	4	Abril	2023-04-04T00:00:00	2024-11-08T06:00:00	8	Radiación solar	0
163309	7	Sololá	712	San Antonio Palopó	9	San Antonio Palopo	4	Abril	2023-04-04T00:00:00	2024-11-08T07:00:00	2	Temperatura media	15.9
163310	7	Sololá	712	San Antonio Palopó	9	San Antonio Palopo	4	Abril	2023-04-04T00:00:00	2024-11-08T07:00:00	4	Temperatura máxima	15.9
163311	7	Sololá	712	San Antonio Palopó	9	San Antonio Palopo	4	Abril	2023-04-04T00:00:00	2024-11-08T07:00:00	3	Temperatura mínima	14.9
163312	7	Sololá	712	San Antonio Palopó	9	San Antonio Palopo	4	Abril	2023-04-04T00:00:00	2024-11-08T07:00:00	5	Humedad	76
163313	7	Sololá	712	San Antonio Palopó	9	San Antonio Palopo	4	Abril	2023-04-04T00:00:00	2024-11-08T07:00:00	6	Velocidad del viento	3.2
163314	7	Sololá	712	San Antonio Palopó	9	San Antonio Palopo	4	Abril	2023-04-04T00:00:00	2024-11-08T07:00:00	7	Dirección del viento	3.22
163315	7	Sololá	712	San Antonio Palopó	9	San Antonio Palopo	4	Abril	2023-04-04T00:00:00	2024-11-08T07:00:00	1	Precipitación	0
163316	7	Sololá	712	San Antonio Palopó	9	San Antonio Palopo	4	Abril	2023-04-04T00:00:00	2024-11-08T07:00:00	8	Radiación solar	27
163317	7	Sololá	712	San Antonio Palopó	9	San Antonio Palopo	4	Abril	2023-04-04T00:00:00	2024-11-08T08:00:00	2	Temperatura media	17.1
163318	7	Sololá	712	San Antonio Palopó	9	San Antonio Palopo	4	Abril	2023-04-04T00:00:00	2024-11-08T08:00:00	4	Temperatura máxima	17.1
163319	7	Sololá	712	San Antonio Palopó	9	San Antonio Palopo	4	Abril	2023-04-04T00:00:00	2024-11-08T08:00:00	3	Temperatura mínima	15.8
163320	7	Sololá	712	San Antonio Palopó	9	San Antonio Palopo	4	Abril	2023-04-04T00:00:00	2024-11-08T08:00:00	5	Humedad	76
163321	7	Sololá	712	San Antonio Palopó	9	San Antonio Palopo	4	Abril	2023-04-04T00:00:00	2024-11-08T08:00:00	6	Velocidad del viento	0
163322	7	Sololá	712	San Antonio Palopó	9	San Antonio Palopo	4	Abril	2023-04-04T00:00:00	2024-11-08T08:00:00	7	Dirección del viento	0
163323	7	Sololá	712	San Antonio Palopó	9	San Antonio Palopo	4	Abril	2023-04-04T00:00:00	2024-11-08T08:00:00	1	Precipitación	0
163324	7	Sololá	712	San Antonio Palopó	9	San Antonio Palopo	4	Abril	2023-04-04T00:00:00	2024-11-08T08:00:00	8	Radiación solar	74
163325	7	Sololá	712	San Antonio Palopó	9	San Antonio Palopo	4	Abril	2023-04-04T00:00:00	2024-11-08T09:00:00	2	Temperatura media	19.4
163326	7	Sololá	712	San Antonio Palopó	9	San Antonio Palopo	4	Abril	2023-04-04T00:00:00	2024-11-08T09:00:00	4	Temperatura máxima	19.4
163327	7	Sololá	712	San Antonio Palopó	9	San Antonio Palopo	4	Abril	2023-04-04T00:00:00	2024-11-08T09:00:00	3	Temperatura mínima	17
163328	7	Sololá	712	San Antonio Palopó	9	San Antonio Palopo	4	Abril	2023-04-04T00:00:00	2024-11-08T09:00:00	5	Humedad	70
163329	7	Sololá	712	San Antonio Palopó	9	San Antonio Palopo	4	Abril	2023-04-04T00:00:00	2024-11-08T09:00:00	6	Velocidad del viento	1.6
163330	7	Sololá	712	San Antonio Palopó	9	San Antonio Palopo	4	Abril	2023-04-04T00:00:00	2024-11-08T09:00:00	7	Dirección del viento	1.61
163331	7	Sololá	712	San Antonio Palopó	9	San Antonio Palopo	4	Abril	2023-04-04T00:00:00	2024-11-08T09:00:00	1	Precipitación	0
163332	7	Sololá	712	San Antonio Palopó	9	San Antonio Palopo	4	Abril	2023-04-04T00:00:00	2024-11-08T09:00:00	8	Radiación solar	386
163333	7	Sololá	712	San Antonio Palopó	9	San Antonio Palopo	4	Abril	2023-04-04T00:00:00	2024-11-08T10:00:00	2	Temperatura media	20.6
163334	7	Sololá	712	San Antonio Palopó	9	San Antonio Palopo	4	Abril	2023-04-04T00:00:00	2024-11-08T10:00:00	4	Temperatura máxima	20.6
163335	7	Sololá	712	San Antonio Palopó	9	San Antonio Palopo	4	Abril	2023-04-04T00:00:00	2024-11-08T10:00:00	3	Temperatura mínima	19.3
163336	7	Sololá	712	San Antonio Palopó	9	San Antonio Palopo	4	Abril	2023-04-04T00:00:00	2024-11-08T10:00:00	5	Humedad	68
163337	7	Sololá	712	San Antonio Palopó	9	San Antonio Palopo	4	Abril	2023-04-04T00:00:00	2024-11-08T10:00:00	6	Velocidad del viento	3.2
163338	7	Sololá	712	San Antonio Palopó	9	San Antonio Palopo	4	Abril	2023-04-04T00:00:00	2024-11-08T10:00:00	7	Dirección del viento	3.22
163339	7	Sololá	712	San Antonio Palopó	9	San Antonio Palopo	4	Abril	2023-04-04T00:00:00	2024-11-08T10:00:00	1	Precipitación	0
163340	7	Sololá	712	San Antonio Palopó	9	San Antonio Palopo	4	Abril	2023-04-04T00:00:00	2024-11-08T10:00:00	8	Radiación solar	571
163341	7	Sololá	712	San Antonio Palopó	9	San Antonio Palopo	4	Abril	2023-04-04T00:00:00	2024-11-08T11:00:00	2	Temperatura media	21.7
163342	7	Sololá	712	San Antonio Palopó	9	San Antonio Palopo	4	Abril	2023-04-04T00:00:00	2024-11-08T11:00:00	4	Temperatura máxima	21.7
163343	7	Sololá	712	San Antonio Palopó	9	San Antonio Palopo	4	Abril	2023-04-04T00:00:00	2024-11-08T11:00:00	3	Temperatura mínima	20.6
163344	7	Sololá	712	San Antonio Palopó	9	San Antonio Palopo	4	Abril	2023-04-04T00:00:00	2024-11-08T11:00:00	5	Humedad	63
163345	7	Sololá	712	San Antonio Palopó	9	San Antonio Palopo	4	Abril	2023-04-04T00:00:00	2024-11-08T11:00:00	6	Velocidad del viento	3.2
163346	7	Sololá	712	San Antonio Palopó	9	San Antonio Palopo	4	Abril	2023-04-04T00:00:00	2024-11-08T11:00:00	7	Dirección del viento	3.22
163347	7	Sololá	712	San Antonio Palopó	9	San Antonio Palopo	4	Abril	2023-04-04T00:00:00	2024-11-08T11:00:00	1	Precipitación	0
163348	7	Sololá	712	San Antonio Palopó	9	San Antonio Palopo	4	Abril	2023-04-04T00:00:00	2024-11-08T11:00:00	8	Radiación solar	841
163349	7	Sololá	712	San Antonio Palopó	9	San Antonio Palopo	4	Abril	2023-04-04T00:00:00	2024-11-08T12:00:00	2	Temperatura media	23.2
163350	7	Sololá	712	San Antonio Palopó	9	San Antonio Palopo	4	Abril	2023-04-04T00:00:00	2024-11-08T12:00:00	4	Temperatura máxima	23.3
163351	7	Sololá	712	San Antonio Palopó	9	San Antonio Palopo	4	Abril	2023-04-04T00:00:00	2024-11-08T12:00:00	3	Temperatura mínima	21.5
163352	7	Sololá	712	San Antonio Palopó	9	San Antonio Palopo	4	Abril	2023-04-04T00:00:00	2024-11-08T12:00:00	5	Humedad	64
163353	7	Sololá	712	San Antonio Palopó	9	San Antonio Palopo	4	Abril	2023-04-04T00:00:00	2024-11-08T12:00:00	6	Velocidad del viento	4.8
163354	7	Sololá	712	San Antonio Palopó	9	San Antonio Palopo	4	Abril	2023-04-04T00:00:00	2024-11-08T12:00:00	7	Dirección del viento	4.83
163355	7	Sololá	712	San Antonio Palopó	9	San Antonio Palopo	4	Abril	2023-04-04T00:00:00	2024-11-08T12:00:00	1	Precipitación	0
163356	7	Sololá	712	San Antonio Palopó	9	San Antonio Palopo	4	Abril	2023-04-04T00:00:00	2024-11-08T12:00:00	8	Radiación solar	946
163357	7	Sololá	712	San Antonio Palopó	9	San Antonio Palopo	4	Abril	2023-04-04T00:00:00	2024-11-08T13:00:00	2	Temperatura media	23.8
163358	7	Sololá	712	San Antonio Palopó	9	San Antonio Palopo	4	Abril	2023-04-04T00:00:00	2024-11-08T13:00:00	4	Temperatura máxima	24.1
163359	7	Sololá	712	San Antonio Palopó	9	San Antonio Palopo	4	Abril	2023-04-04T00:00:00	2024-11-08T13:00:00	3	Temperatura mínima	22.9
163360	7	Sololá	712	San Antonio Palopó	9	San Antonio Palopo	4	Abril	2023-04-04T00:00:00	2024-11-08T13:00:00	5	Humedad	63
163361	7	Sololá	712	San Antonio Palopó	9	San Antonio Palopo	4	Abril	2023-04-04T00:00:00	2024-11-08T13:00:00	6	Velocidad del viento	6.4
163362	7	Sololá	712	San Antonio Palopó	9	San Antonio Palopo	4	Abril	2023-04-04T00:00:00	2024-11-08T13:00:00	7	Dirección del viento	6.44
163363	7	Sololá	712	San Antonio Palopó	9	San Antonio Palopo	4	Abril	2023-04-04T00:00:00	2024-11-08T13:00:00	1	Precipitación	0
163364	7	Sololá	712	San Antonio Palopó	9	San Antonio Palopo	4	Abril	2023-04-04T00:00:00	2024-11-08T13:00:00	8	Radiación solar	961
163365	7	Sololá	712	San Antonio Palopó	9	San Antonio Palopo	4	Abril	2023-04-04T00:00:00	2024-11-08T14:00:00	2	Temperatura media	23.2
163366	7	Sololá	712	San Antonio Palopó	9	San Antonio Palopo	4	Abril	2023-04-04T00:00:00	2024-11-08T14:00:00	4	Temperatura máxima	24.1
163367	7	Sololá	712	San Antonio Palopó	9	San Antonio Palopo	4	Abril	2023-04-04T00:00:00	2024-11-08T14:00:00	3	Temperatura mínima	22.9
163368	7	Sololá	712	San Antonio Palopó	9	San Antonio Palopo	4	Abril	2023-04-04T00:00:00	2024-11-08T14:00:00	5	Humedad	65
163369	7	Sololá	712	San Antonio Palopó	9	San Antonio Palopo	4	Abril	2023-04-04T00:00:00	2024-11-08T14:00:00	6	Velocidad del viento	11.3
163370	7	Sololá	712	San Antonio Palopó	9	San Antonio Palopo	4	Abril	2023-04-04T00:00:00	2024-11-08T14:00:00	7	Dirección del viento	11.27
163371	7	Sololá	712	San Antonio Palopó	9	San Antonio Palopo	4	Abril	2023-04-04T00:00:00	2024-11-08T14:00:00	1	Precipitación	0
163372	7	Sololá	712	San Antonio Palopó	9	San Antonio Palopo	4	Abril	2023-04-04T00:00:00	2024-11-08T14:00:00	8	Radiación solar	911
163373	7	Sololá	712	San Antonio Palopó	9	San Antonio Palopo	4	Abril	2023-04-04T00:00:00	2024-11-08T15:00:00	2	Temperatura media	22.8
163374	7	Sololá	712	San Antonio Palopó	9	San Antonio Palopo	4	Abril	2023-04-04T00:00:00	2024-11-08T15:00:00	4	Temperatura máxima	24.1
163375	7	Sololá	712	San Antonio Palopó	9	San Antonio Palopo	4	Abril	2023-04-04T00:00:00	2024-11-08T15:00:00	3	Temperatura mínima	22.7
163376	7	Sololá	712	San Antonio Palopó	9	San Antonio Palopo	4	Abril	2023-04-04T00:00:00	2024-11-08T15:00:00	5	Humedad	69
163377	7	Sololá	712	San Antonio Palopó	9	San Antonio Palopo	4	Abril	2023-04-04T00:00:00	2024-11-08T15:00:00	6	Velocidad del viento	8
163378	7	Sololá	712	San Antonio Palopó	9	San Antonio Palopo	4	Abril	2023-04-04T00:00:00	2024-11-08T15:00:00	7	Dirección del viento	8.05
163379	7	Sololá	712	San Antonio Palopó	9	San Antonio Palopo	4	Abril	2023-04-04T00:00:00	2024-11-08T15:00:00	1	Precipitación	0
163380	7	Sololá	712	San Antonio Palopó	9	San Antonio Palopo	4	Abril	2023-04-04T00:00:00	2024-11-08T15:00:00	8	Radiación solar	604
163381	7	Sololá	712	San Antonio Palopó	9	San Antonio Palopo	4	Abril	2023-04-04T00:00:00	2024-11-08T16:00:00	2	Temperatura media	21.7
163382	7	Sololá	712	San Antonio Palopó	9	San Antonio Palopo	4	Abril	2023-04-04T00:00:00	2024-11-08T16:00:00	4	Temperatura máxima	23.1
163383	7	Sololá	712	San Antonio Palopó	9	San Antonio Palopo	4	Abril	2023-04-04T00:00:00	2024-11-08T16:00:00	3	Temperatura mínima	21.6
163384	7	Sololá	712	San Antonio Palopó	9	San Antonio Palopo	4	Abril	2023-04-04T00:00:00	2024-11-08T16:00:00	5	Humedad	72
163385	7	Sololá	712	San Antonio Palopó	9	San Antonio Palopo	4	Abril	2023-04-04T00:00:00	2024-11-08T16:00:00	6	Velocidad del viento	8
163386	7	Sololá	712	San Antonio Palopó	9	San Antonio Palopo	4	Abril	2023-04-04T00:00:00	2024-11-08T16:00:00	7	Dirección del viento	8.05
163387	7	Sololá	712	San Antonio Palopó	9	San Antonio Palopo	4	Abril	2023-04-04T00:00:00	2024-11-08T16:00:00	1	Precipitación	0
163388	7	Sololá	712	San Antonio Palopó	9	San Antonio Palopo	4	Abril	2023-04-04T00:00:00	2024-11-08T16:00:00	8	Radiación solar	226
163389	7	Sololá	712	San Antonio Palopó	9	San Antonio Palopo	4	Abril	2023-04-04T00:00:00	2024-11-08T17:00:00	2	Temperatura media	21.3
163390	7	Sololá	712	San Antonio Palopó	9	San Antonio Palopo	4	Abril	2023-04-04T00:00:00	2024-11-08T17:00:00	4	Temperatura máxima	21.7
163391	7	Sololá	712	San Antonio Palopó	9	San Antonio Palopo	4	Abril	2023-04-04T00:00:00	2024-11-08T17:00:00	3	Temperatura mínima	21.2
163392	7	Sololá	712	San Antonio Palopó	9	San Antonio Palopo	4	Abril	2023-04-04T00:00:00	2024-11-08T17:00:00	5	Humedad	73
163393	7	Sololá	712	San Antonio Palopó	9	San Antonio Palopo	4	Abril	2023-04-04T00:00:00	2024-11-08T17:00:00	6	Velocidad del viento	6.4
163394	7	Sololá	712	San Antonio Palopó	9	San Antonio Palopo	4	Abril	2023-04-04T00:00:00	2024-11-08T17:00:00	7	Dirección del viento	6.44
163395	7	Sololá	712	San Antonio Palopó	9	San Antonio Palopo	4	Abril	2023-04-04T00:00:00	2024-11-08T17:00:00	1	Precipitación	0
163396	7	Sololá	712	San Antonio Palopó	9	San Antonio Palopo	4	Abril	2023-04-04T00:00:00	2024-11-08T17:00:00	8	Radiación solar	138
163397	7	Sololá	712	San Antonio Palopó	9	San Antonio Palopo	4	Abril	2023-04-04T00:00:00	2024-11-08T18:00:00	2	Temperatura media	20.8
163398	7	Sololá	712	San Antonio Palopó	9	San Antonio Palopo	4	Abril	2023-04-04T00:00:00	2024-11-08T18:00:00	4	Temperatura máxima	21.3
163399	7	Sololá	712	San Antonio Palopó	9	San Antonio Palopo	4	Abril	2023-04-04T00:00:00	2024-11-08T18:00:00	3	Temperatura mínima	20.8
163400	7	Sololá	712	San Antonio Palopó	9	San Antonio Palopo	4	Abril	2023-04-04T00:00:00	2024-11-08T18:00:00	5	Humedad	76
163401	7	Sololá	712	San Antonio Palopó	9	San Antonio Palopo	4	Abril	2023-04-04T00:00:00	2024-11-08T18:00:00	6	Velocidad del viento	6.4
163402	7	Sololá	712	San Antonio Palopó	9	San Antonio Palopo	4	Abril	2023-04-04T00:00:00	2024-11-08T18:00:00	7	Dirección del viento	6.44
163403	7	Sololá	712	San Antonio Palopó	9	San Antonio Palopo	4	Abril	2023-04-04T00:00:00	2024-11-08T18:00:00	1	Precipitación	0
163404	7	Sololá	712	San Antonio Palopó	9	San Antonio Palopo	4	Abril	2023-04-04T00:00:00	2024-11-08T18:00:00	8	Radiación solar	67
163405	7	Sololá	712	San Antonio Palopó	9	San Antonio Palopo	4	Abril	2023-04-04T00:00:00	2024-11-08T19:00:00	2	Temperatura media	20.4
163406	7	Sololá	712	San Antonio Palopó	9	San Antonio Palopo	4	Abril	2023-04-04T00:00:00	2024-11-08T19:00:00	4	Temperatura máxima	20.8
163407	7	Sololá	712	San Antonio Palopó	9	San Antonio Palopo	4	Abril	2023-04-04T00:00:00	2024-11-08T19:00:00	3	Temperatura mínima	20.3
163408	7	Sololá	712	San Antonio Palopó	9	San Antonio Palopo	4	Abril	2023-04-04T00:00:00	2024-11-08T19:00:00	5	Humedad	76
163409	7	Sololá	712	San Antonio Palopó	9	San Antonio Palopo	4	Abril	2023-04-04T00:00:00	2024-11-08T19:00:00	6	Velocidad del viento	4.8
163410	7	Sololá	712	San Antonio Palopó	9	San Antonio Palopo	4	Abril	2023-04-04T00:00:00	2024-11-08T19:00:00	7	Dirección del viento	4.83
163411	7	Sololá	712	San Antonio Palopó	9	San Antonio Palopo	4	Abril	2023-04-04T00:00:00	2024-11-08T19:00:00	1	Precipitación	0
163412	7	Sololá	712	San Antonio Palopó	9	San Antonio Palopo	4	Abril	2023-04-04T00:00:00	2024-11-08T19:00:00	8	Radiación solar	0
163413	7	Sololá	712	San Antonio Palopó	9	San Antonio Palopo	4	Abril	2023-04-04T00:00:00	2024-11-08T20:00:00	2	Temperatura media	20
163414	7	Sololá	712	San Antonio Palopó	9	San Antonio Palopo	4	Abril	2023-04-04T00:00:00	2024-11-08T20:00:00	4	Temperatura máxima	20.6
163415	7	Sololá	712	San Antonio Palopó	9	San Antonio Palopo	4	Abril	2023-04-04T00:00:00	2024-11-08T20:00:00	3	Temperatura mínima	20
163416	7	Sololá	712	San Antonio Palopó	9	San Antonio Palopo	4	Abril	2023-04-04T00:00:00	2024-11-08T20:00:00	5	Humedad	78
163417	7	Sololá	712	San Antonio Palopó	9	San Antonio Palopo	4	Abril	2023-04-04T00:00:00	2024-11-08T20:00:00	6	Velocidad del viento	1.6
163418	7	Sololá	712	San Antonio Palopó	9	San Antonio Palopo	4	Abril	2023-04-04T00:00:00	2024-11-08T20:00:00	7	Dirección del viento	1.61
163419	7	Sololá	712	San Antonio Palopó	9	San Antonio Palopo	4	Abril	2023-04-04T00:00:00	2024-11-08T20:00:00	1	Precipitación	0
163420	7	Sololá	712	San Antonio Palopó	9	San Antonio Palopo	4	Abril	2023-04-04T00:00:00	2024-11-08T20:00:00	8	Radiación solar	0
163421	7	Sololá	712	San Antonio Palopó	9	San Antonio Palopo	4	Abril	2023-04-04T00:00:00	2024-11-08T21:00:00	2	Temperatura media	19.1
163422	7	Sololá	712	San Antonio Palopó	9	San Antonio Palopo	4	Abril	2023-04-04T00:00:00	2024-11-08T21:00:00	4	Temperatura máxima	20
163423	7	Sololá	712	San Antonio Palopó	9	San Antonio Palopo	4	Abril	2023-04-04T00:00:00	2024-11-08T21:00:00	3	Temperatura mínima	19.1
163424	7	Sololá	712	San Antonio Palopó	9	San Antonio Palopo	4	Abril	2023-04-04T00:00:00	2024-11-08T21:00:00	5	Humedad	79
163425	7	Sololá	712	San Antonio Palopó	9	San Antonio Palopo	4	Abril	2023-04-04T00:00:00	2024-11-08T21:00:00	6	Velocidad del viento	1.6
163426	7	Sololá	712	San Antonio Palopó	9	San Antonio Palopo	4	Abril	2023-04-04T00:00:00	2024-11-08T21:00:00	7	Dirección del viento	1.61
163427	7	Sololá	712	San Antonio Palopó	9	San Antonio Palopo	4	Abril	2023-04-04T00:00:00	2024-11-08T21:00:00	1	Precipitación	0
163428	7	Sololá	712	San Antonio Palopó	9	San Antonio Palopo	4	Abril	2023-04-04T00:00:00	2024-11-08T21:00:00	8	Radiación solar	0
163429	7	Sololá	712	San Antonio Palopó	9	San Antonio Palopo	4	Abril	2023-04-04T00:00:00	2024-11-08T22:00:00	2	Temperatura media	18.8
163430	7	Sololá	712	San Antonio Palopó	9	San Antonio Palopo	4	Abril	2023-04-04T00:00:00	2024-11-08T22:00:00	4	Temperatura máxima	19.2
163431	7	Sololá	712	San Antonio Palopó	9	San Antonio Palopo	4	Abril	2023-04-04T00:00:00	2024-11-08T22:00:00	3	Temperatura mínima	18.8
163432	7	Sololá	712	San Antonio Palopó	9	San Antonio Palopo	4	Abril	2023-04-04T00:00:00	2024-11-08T22:00:00	5	Humedad	80
163433	7	Sololá	712	San Antonio Palopó	9	San Antonio Palopo	4	Abril	2023-04-04T00:00:00	2024-11-08T22:00:00	6	Velocidad del viento	1.6
163434	7	Sololá	712	San Antonio Palopó	9	San Antonio Palopo	4	Abril	2023-04-04T00:00:00	2024-11-08T22:00:00	7	Dirección del viento	1.61
163435	7	Sololá	712	San Antonio Palopó	9	San Antonio Palopo	4	Abril	2023-04-04T00:00:00	2024-11-08T22:00:00	1	Precipitación	0
163436	7	Sololá	712	San Antonio Palopó	9	San Antonio Palopo	4	Abril	2023-04-04T00:00:00	2024-11-08T22:00:00	8	Radiación solar	0
163437	7	Sololá	712	San Antonio Palopó	9	San Antonio Palopo	4	Abril	2023-04-04T00:00:00	2024-11-08T23:00:00	2	Temperatura media	19
163438	7	Sololá	712	San Antonio Palopó	9	San Antonio Palopo	4	Abril	2023-04-04T00:00:00	2024-11-08T23:00:00	4	Temperatura máxima	19.3
163439	7	Sololá	712	San Antonio Palopó	9	San Antonio Palopo	4	Abril	2023-04-04T00:00:00	2024-11-08T23:00:00	3	Temperatura mínima	18.7
163440	7	Sololá	712	San Antonio Palopó	9	San Antonio Palopo	4	Abril	2023-04-04T00:00:00	2024-11-08T23:00:00	5	Humedad	79
163441	7	Sololá	712	San Antonio Palopó	9	San Antonio Palopo	4	Abril	2023-04-04T00:00:00	2024-11-08T23:00:00	6	Velocidad del viento	1.6
163442	7	Sololá	712	San Antonio Palopó	9	San Antonio Palopo	4	Abril	2023-04-04T00:00:00	2024-11-08T23:00:00	7	Dirección del viento	1.61
163443	7	Sololá	712	San Antonio Palopó	9	San Antonio Palopo	4	Abril	2023-04-04T00:00:00	2024-11-08T23:00:00	1	Precipitación	0
163444	7	Sololá	712	San Antonio Palopó	9	San Antonio Palopo	4	Abril	2023-04-04T00:00:00	2024-11-08T23:00:00	8	Radiación solar	0
163445	7	Sololá	712	San Antonio Palopó	9	San Antonio Palopo	4	Abril	2023-05-04T00:00:00	2024-11-08T00:00:00	2	Temperatura media	18.1
163446	7	Sololá	712	San Antonio Palopó	9	San Antonio Palopo	4	Abril	2023-05-04T00:00:00	2024-11-08T00:00:00	4	Temperatura máxima	19
163447	7	Sololá	712	San Antonio Palopó	9	San Antonio Palopo	4	Abril	2023-05-04T00:00:00	2024-11-08T00:00:00	3	Temperatura mínima	18.1
163448	7	Sololá	712	San Antonio Palopó	9	San Antonio Palopo	4	Abril	2023-05-04T00:00:00	2024-11-08T00:00:00	5	Humedad	81
163449	7	Sololá	712	San Antonio Palopó	9	San Antonio Palopo	4	Abril	2023-05-04T00:00:00	2024-11-08T00:00:00	6	Velocidad del viento	3.2
163450	7	Sololá	712	San Antonio Palopó	9	San Antonio Palopo	4	Abril	2023-05-04T00:00:00	2024-11-08T00:00:00	7	Dirección del viento	3.22
163451	7	Sololá	712	San Antonio Palopó	9	San Antonio Palopo	4	Abril	2023-05-04T00:00:00	2024-11-08T00:00:00	1	Precipitación	0
163452	7	Sololá	712	San Antonio Palopó	9	San Antonio Palopo	4	Abril	2023-05-04T00:00:00	2024-11-08T00:00:00	8	Radiación solar	0
163453	7	Sololá	712	San Antonio Palopó	9	San Antonio Palopo	4	Abril	2023-05-04T00:00:00	2024-11-08T01:00:00	2	Temperatura media	18.2
163454	7	Sololá	712	San Antonio Palopó	9	San Antonio Palopo	4	Abril	2023-05-04T00:00:00	2024-11-08T01:00:00	4	Temperatura máxima	18.6
163455	7	Sololá	712	San Antonio Palopó	9	San Antonio Palopo	4	Abril	2023-05-04T00:00:00	2024-11-08T01:00:00	3	Temperatura mínima	18.1
163456	7	Sololá	712	San Antonio Palopó	9	San Antonio Palopo	4	Abril	2023-05-04T00:00:00	2024-11-08T01:00:00	5	Humedad	78
163457	7	Sololá	712	San Antonio Palopó	9	San Antonio Palopo	4	Abril	2023-05-04T00:00:00	2024-11-08T01:00:00	6	Velocidad del viento	3.2
163458	7	Sololá	712	San Antonio Palopó	9	San Antonio Palopo	4	Abril	2023-05-04T00:00:00	2024-11-08T01:00:00	7	Dirección del viento	3.22
163459	7	Sololá	712	San Antonio Palopó	9	San Antonio Palopo	4	Abril	2023-05-04T00:00:00	2024-11-08T01:00:00	1	Precipitación	0
163460	7	Sololá	712	San Antonio Palopó	9	San Antonio Palopo	4	Abril	2023-05-04T00:00:00	2024-11-08T01:00:00	8	Radiación solar	0
163461	7	Sololá	712	San Antonio Palopó	9	San Antonio Palopo	4	Abril	2023-05-04T00:00:00	2024-11-08T02:00:00	2	Temperatura media	17
163462	7	Sololá	712	San Antonio Palopó	9	San Antonio Palopo	4	Abril	2023-05-04T00:00:00	2024-11-08T02:00:00	4	Temperatura máxima	18.3
163463	7	Sololá	712	San Antonio Palopó	9	San Antonio Palopo	4	Abril	2023-05-04T00:00:00	2024-11-08T02:00:00	3	Temperatura mínima	16.9
163464	7	Sololá	712	San Antonio Palopó	9	San Antonio Palopo	4	Abril	2023-05-04T00:00:00	2024-11-08T02:00:00	5	Humedad	80
163465	7	Sololá	712	San Antonio Palopó	9	San Antonio Palopo	4	Abril	2023-05-04T00:00:00	2024-11-08T02:00:00	6	Velocidad del viento	3.2
163466	7	Sololá	712	San Antonio Palopó	9	San Antonio Palopo	4	Abril	2023-05-04T00:00:00	2024-11-08T02:00:00	7	Dirección del viento	3.22
163467	7	Sololá	712	San Antonio Palopó	9	San Antonio Palopo	4	Abril	2023-05-04T00:00:00	2024-11-08T02:00:00	1	Precipitación	0
163468	7	Sololá	712	San Antonio Palopó	9	San Antonio Palopo	4	Abril	2023-05-04T00:00:00	2024-11-08T02:00:00	8	Radiación solar	0
163469	7	Sololá	712	San Antonio Palopó	9	San Antonio Palopo	4	Abril	2023-05-04T00:00:00	2024-11-08T03:00:00	2	Temperatura media	16.8
163470	7	Sololá	712	San Antonio Palopó	9	San Antonio Palopo	4	Abril	2023-05-04T00:00:00	2024-11-08T03:00:00	4	Temperatura máxima	17
163471	7	Sololá	712	San Antonio Palopó	9	San Antonio Palopo	4	Abril	2023-05-04T00:00:00	2024-11-08T03:00:00	3	Temperatura mínima	16.8
163472	7	Sololá	712	San Antonio Palopó	9	San Antonio Palopo	4	Abril	2023-05-04T00:00:00	2024-11-08T03:00:00	5	Humedad	81
163473	7	Sololá	712	San Antonio Palopó	9	San Antonio Palopo	4	Abril	2023-05-04T00:00:00	2024-11-08T03:00:00	6	Velocidad del viento	4.8
163474	7	Sololá	712	San Antonio Palopó	9	San Antonio Palopo	4	Abril	2023-05-04T00:00:00	2024-11-08T03:00:00	7	Dirección del viento	4.83
163475	7	Sololá	712	San Antonio Palopó	9	San Antonio Palopo	4	Abril	2023-05-04T00:00:00	2024-11-08T03:00:00	1	Precipitación	0
163476	7	Sololá	712	San Antonio Palopó	9	San Antonio Palopo	4	Abril	2023-05-04T00:00:00	2024-11-08T03:00:00	8	Radiación solar	0
163477	7	Sololá	712	San Antonio Palopó	9	San Antonio Palopo	4	Abril	2023-05-04T00:00:00	2024-11-08T04:00:00	2	Temperatura media	16.3
163478	7	Sololá	712	San Antonio Palopó	9	San Antonio Palopo	4	Abril	2023-05-04T00:00:00	2024-11-08T04:00:00	4	Temperatura máxima	16.8
163479	7	Sololá	712	San Antonio Palopó	9	San Antonio Palopo	4	Abril	2023-05-04T00:00:00	2024-11-08T04:00:00	3	Temperatura mínima	16.3
163480	7	Sololá	712	San Antonio Palopó	9	San Antonio Palopo	4	Abril	2023-05-04T00:00:00	2024-11-08T04:00:00	5	Humedad	83
163481	7	Sololá	712	San Antonio Palopó	9	San Antonio Palopo	4	Abril	2023-05-04T00:00:00	2024-11-08T04:00:00	6	Velocidad del viento	4.8
163482	7	Sololá	712	San Antonio Palopó	9	San Antonio Palopo	4	Abril	2023-05-04T00:00:00	2024-11-08T04:00:00	7	Dirección del viento	4.83
163483	7	Sololá	712	San Antonio Palopó	9	San Antonio Palopo	4	Abril	2023-05-04T00:00:00	2024-11-08T04:00:00	1	Precipitación	0
163484	7	Sololá	712	San Antonio Palopó	9	San Antonio Palopo	4	Abril	2023-05-04T00:00:00	2024-11-08T04:00:00	8	Radiación solar	0
163485	7	Sololá	712	San Antonio Palopó	9	San Antonio Palopo	4	Abril	2023-05-04T00:00:00	2024-11-08T05:00:00	2	Temperatura media	15.9
163486	7	Sololá	712	San Antonio Palopó	9	San Antonio Palopo	4	Abril	2023-05-04T00:00:00	2024-11-08T05:00:00	4	Temperatura máxima	16.4
163487	7	Sololá	712	San Antonio Palopó	9	San Antonio Palopo	4	Abril	2023-05-04T00:00:00	2024-11-08T05:00:00	3	Temperatura mínima	15.9
163488	7	Sololá	712	San Antonio Palopó	9	San Antonio Palopo	4	Abril	2023-05-04T00:00:00	2024-11-08T05:00:00	5	Humedad	79
163489	7	Sololá	712	San Antonio Palopó	9	San Antonio Palopo	4	Abril	2023-05-04T00:00:00	2024-11-08T05:00:00	6	Velocidad del viento	4.8
163490	7	Sololá	712	San Antonio Palopó	9	San Antonio Palopo	4	Abril	2023-05-04T00:00:00	2024-11-08T05:00:00	7	Dirección del viento	4.83
163491	7	Sololá	712	San Antonio Palopó	9	San Antonio Palopo	4	Abril	2023-05-04T00:00:00	2024-11-08T05:00:00	1	Precipitación	0
163492	7	Sololá	712	San Antonio Palopó	9	San Antonio Palopo	4	Abril	2023-05-04T00:00:00	2024-11-08T05:00:00	8	Radiación solar	0
163493	7	Sololá	712	San Antonio Palopó	9	San Antonio Palopo	4	Abril	2023-05-04T00:00:00	2024-11-08T06:00:00	2	Temperatura media	15.8
163494	7	Sololá	712	San Antonio Palopó	9	San Antonio Palopo	4	Abril	2023-05-04T00:00:00	2024-11-08T06:00:00	4	Temperatura máxima	16.1
163495	7	Sololá	712	San Antonio Palopó	9	San Antonio Palopo	4	Abril	2023-05-04T00:00:00	2024-11-08T06:00:00	3	Temperatura mínima	15.7
163496	7	Sololá	712	San Antonio Palopó	9	San Antonio Palopo	4	Abril	2023-05-04T00:00:00	2024-11-08T06:00:00	5	Humedad	82
163497	7	Sololá	712	San Antonio Palopó	9	San Antonio Palopo	4	Abril	2023-05-04T00:00:00	2024-11-08T06:00:00	6	Velocidad del viento	4.8
163498	7	Sololá	712	San Antonio Palopó	9	San Antonio Palopo	4	Abril	2023-05-04T00:00:00	2024-11-08T06:00:00	7	Dirección del viento	4.83
163499	7	Sololá	712	San Antonio Palopó	9	San Antonio Palopo	4	Abril	2023-05-04T00:00:00	2024-11-08T06:00:00	1	Precipitación	0
163500	7	Sololá	712	San Antonio Palopó	9	San Antonio Palopo	4	Abril	2023-05-04T00:00:00	2024-11-08T06:00:00	8	Radiación solar	0
163501	7	Sololá	712	San Antonio Palopó	9	San Antonio Palopo	4	Abril	2023-05-04T00:00:00	2024-11-08T07:00:00	2	Temperatura media	16
163502	7	Sololá	712	San Antonio Palopó	9	San Antonio Palopo	4	Abril	2023-05-04T00:00:00	2024-11-08T07:00:00	4	Temperatura máxima	16
163503	7	Sololá	712	San Antonio Palopó	9	San Antonio Palopo	4	Abril	2023-05-04T00:00:00	2024-11-08T07:00:00	3	Temperatura mínima	15.8
163504	7	Sololá	712	San Antonio Palopó	9	San Antonio Palopo	4	Abril	2023-05-04T00:00:00	2024-11-08T07:00:00	5	Humedad	80
163505	7	Sololá	712	San Antonio Palopó	9	San Antonio Palopo	4	Abril	2023-05-04T00:00:00	2024-11-08T07:00:00	6	Velocidad del viento	4.8
163506	7	Sololá	712	San Antonio Palopó	9	San Antonio Palopo	4	Abril	2023-05-04T00:00:00	2024-11-08T07:00:00	7	Dirección del viento	4.83
163507	7	Sololá	712	San Antonio Palopó	9	San Antonio Palopo	4	Abril	2023-05-04T00:00:00	2024-11-08T07:00:00	1	Precipitación	0
163508	7	Sololá	712	San Antonio Palopó	9	San Antonio Palopo	4	Abril	2023-05-04T00:00:00	2024-11-08T07:00:00	8	Radiación solar	20
163509	7	Sololá	712	San Antonio Palopó	9	San Antonio Palopo	4	Abril	2023-05-04T00:00:00	2024-11-08T08:00:00	2	Temperatura media	17.4
163510	7	Sololá	712	San Antonio Palopó	9	San Antonio Palopo	4	Abril	2023-05-04T00:00:00	2024-11-08T08:00:00	4	Temperatura máxima	17.4
163511	7	Sololá	712	San Antonio Palopó	9	San Antonio Palopo	4	Abril	2023-05-04T00:00:00	2024-11-08T08:00:00	3	Temperatura mínima	16
163512	7	Sololá	712	San Antonio Palopó	9	San Antonio Palopo	4	Abril	2023-05-04T00:00:00	2024-11-08T08:00:00	5	Humedad	79
163513	7	Sololá	712	San Antonio Palopó	9	San Antonio Palopo	4	Abril	2023-05-04T00:00:00	2024-11-08T08:00:00	6	Velocidad del viento	3.2
163514	7	Sololá	712	San Antonio Palopó	9	San Antonio Palopo	4	Abril	2023-05-04T00:00:00	2024-11-08T08:00:00	7	Dirección del viento	3.22
163515	7	Sololá	712	San Antonio Palopó	9	San Antonio Palopo	4	Abril	2023-05-04T00:00:00	2024-11-08T08:00:00	1	Precipitación	0
163516	7	Sololá	712	San Antonio Palopó	9	San Antonio Palopo	4	Abril	2023-05-04T00:00:00	2024-11-08T08:00:00	8	Radiación solar	109
163517	7	Sololá	712	San Antonio Palopó	9	San Antonio Palopo	4	Abril	2023-05-04T00:00:00	2024-11-08T09:00:00	2	Temperatura media	19.3
163518	7	Sololá	712	San Antonio Palopó	9	San Antonio Palopo	4	Abril	2023-05-04T00:00:00	2024-11-08T09:00:00	4	Temperatura máxima	19.8
163519	7	Sololá	712	San Antonio Palopó	9	San Antonio Palopo	4	Abril	2023-05-04T00:00:00	2024-11-08T09:00:00	3	Temperatura mínima	17.4
163520	7	Sololá	712	San Antonio Palopó	9	San Antonio Palopo	4	Abril	2023-05-04T00:00:00	2024-11-08T09:00:00	5	Humedad	78
163521	7	Sololá	712	San Antonio Palopó	9	San Antonio Palopo	4	Abril	2023-05-04T00:00:00	2024-11-08T09:00:00	6	Velocidad del viento	1.6
163522	7	Sololá	712	San Antonio Palopó	9	San Antonio Palopo	4	Abril	2023-05-04T00:00:00	2024-11-08T09:00:00	7	Dirección del viento	1.61
163523	7	Sololá	712	San Antonio Palopó	9	San Antonio Palopo	4	Abril	2023-05-04T00:00:00	2024-11-08T09:00:00	1	Precipitación	0
163524	7	Sololá	712	San Antonio Palopó	9	San Antonio Palopo	4	Abril	2023-05-04T00:00:00	2024-11-08T09:00:00	8	Radiación solar	409
163525	7	Sololá	712	San Antonio Palopó	9	San Antonio Palopo	4	Abril	2023-05-04T00:00:00	2024-11-08T10:00:00	2	Temperatura media	20.8
163526	7	Sololá	712	San Antonio Palopó	9	San Antonio Palopo	4	Abril	2023-05-04T00:00:00	2024-11-08T10:00:00	4	Temperatura máxima	20.8
163527	7	Sololá	712	San Antonio Palopó	9	San Antonio Palopo	4	Abril	2023-05-04T00:00:00	2024-11-08T10:00:00	3	Temperatura mínima	19.2
163528	7	Sololá	712	San Antonio Palopó	9	San Antonio Palopo	4	Abril	2023-05-04T00:00:00	2024-11-08T10:00:00	5	Humedad	72
163529	7	Sololá	712	San Antonio Palopó	9	San Antonio Palopo	4	Abril	2023-05-04T00:00:00	2024-11-08T10:00:00	6	Velocidad del viento	3.2
163530	7	Sololá	712	San Antonio Palopó	9	San Antonio Palopo	4	Abril	2023-05-04T00:00:00	2024-11-08T10:00:00	7	Dirección del viento	3.22
163531	7	Sololá	712	San Antonio Palopó	9	San Antonio Palopo	4	Abril	2023-05-04T00:00:00	2024-11-08T10:00:00	1	Precipitación	0
163532	7	Sololá	712	San Antonio Palopó	9	San Antonio Palopo	4	Abril	2023-05-04T00:00:00	2024-11-08T10:00:00	8	Radiación solar	566
163533	7	Sololá	712	San Antonio Palopó	9	San Antonio Palopo	4	Abril	2023-05-04T00:00:00	2024-11-08T11:00:00	2	Temperatura media	21.8
163534	7	Sololá	712	San Antonio Palopó	9	San Antonio Palopo	4	Abril	2023-05-04T00:00:00	2024-11-08T11:00:00	4	Temperatura máxima	21.9
163535	7	Sololá	712	San Antonio Palopó	9	San Antonio Palopo	4	Abril	2023-05-04T00:00:00	2024-11-08T11:00:00	3	Temperatura mínima	20.8
163536	7	Sololá	712	San Antonio Palopó	9	San Antonio Palopo	4	Abril	2023-05-04T00:00:00	2024-11-08T11:00:00	5	Humedad	68
163537	7	Sololá	712	San Antonio Palopó	9	San Antonio Palopo	4	Abril	2023-05-04T00:00:00	2024-11-08T11:00:00	6	Velocidad del viento	3.2
163538	7	Sololá	712	San Antonio Palopó	9	San Antonio Palopo	4	Abril	2023-05-04T00:00:00	2024-11-08T11:00:00	7	Dirección del viento	3.22
163539	7	Sololá	712	San Antonio Palopó	9	San Antonio Palopo	4	Abril	2023-05-04T00:00:00	2024-11-08T11:00:00	1	Precipitación	0
163540	7	Sololá	712	San Antonio Palopó	9	San Antonio Palopo	4	Abril	2023-05-04T00:00:00	2024-11-08T11:00:00	8	Radiación solar	827
163541	7	Sololá	712	San Antonio Palopó	9	San Antonio Palopo	4	Abril	2023-05-04T00:00:00	2024-11-08T12:00:00	2	Temperatura media	23.4
163542	7	Sololá	712	San Antonio Palopó	9	San Antonio Palopo	4	Abril	2023-05-04T00:00:00	2024-11-08T12:00:00	4	Temperatura máxima	23.6
163543	7	Sololá	712	San Antonio Palopó	9	San Antonio Palopo	4	Abril	2023-05-04T00:00:00	2024-11-08T12:00:00	3	Temperatura mínima	21.8
163544	7	Sololá	712	San Antonio Palopó	9	San Antonio Palopo	4	Abril	2023-05-04T00:00:00	2024-11-08T12:00:00	5	Humedad	62
163545	7	Sololá	712	San Antonio Palopó	9	San Antonio Palopo	4	Abril	2023-05-04T00:00:00	2024-11-08T12:00:00	6	Velocidad del viento	8
163546	7	Sololá	712	San Antonio Palopó	9	San Antonio Palopo	4	Abril	2023-05-04T00:00:00	2024-11-08T12:00:00	7	Dirección del viento	8.05
163547	7	Sololá	712	San Antonio Palopó	9	San Antonio Palopo	4	Abril	2023-05-04T00:00:00	2024-11-08T12:00:00	1	Precipitación	0
163548	7	Sololá	712	San Antonio Palopó	9	San Antonio Palopo	4	Abril	2023-05-04T00:00:00	2024-11-08T12:00:00	8	Radiación solar	930
163549	7	Sololá	712	San Antonio Palopó	9	San Antonio Palopo	4	Abril	2023-05-04T00:00:00	2024-11-08T13:00:00	2	Temperatura media	23.7
163550	7	Sololá	712	San Antonio Palopó	9	San Antonio Palopo	4	Abril	2023-05-04T00:00:00	2024-11-08T13:00:00	4	Temperatura máxima	24.2
163551	7	Sololá	712	San Antonio Palopó	9	San Antonio Palopo	4	Abril	2023-05-04T00:00:00	2024-11-08T13:00:00	3	Temperatura mínima	23.4
163552	7	Sololá	712	San Antonio Palopó	9	San Antonio Palopo	4	Abril	2023-05-04T00:00:00	2024-11-08T13:00:00	5	Humedad	65
163553	7	Sololá	712	San Antonio Palopó	9	San Antonio Palopo	4	Abril	2023-05-04T00:00:00	2024-11-08T13:00:00	6	Velocidad del viento	8
163554	7	Sololá	712	San Antonio Palopó	9	San Antonio Palopo	4	Abril	2023-05-04T00:00:00	2024-11-08T13:00:00	7	Dirección del viento	8.05
163555	7	Sololá	712	San Antonio Palopó	9	San Antonio Palopo	4	Abril	2023-05-04T00:00:00	2024-11-08T13:00:00	1	Precipitación	0
163556	7	Sololá	712	San Antonio Palopó	9	San Antonio Palopo	4	Abril	2023-05-04T00:00:00	2024-11-08T13:00:00	8	Radiación solar	963
163557	7	Sololá	712	San Antonio Palopó	9	San Antonio Palopo	4	Abril	2023-05-04T00:00:00	2024-11-08T14:00:00	2	Temperatura media	24.2
163558	7	Sololá	712	San Antonio Palopó	9	San Antonio Palopo	4	Abril	2023-05-04T00:00:00	2024-11-08T14:00:00	4	Temperatura máxima	24.5
163559	7	Sololá	712	San Antonio Palopó	9	San Antonio Palopo	4	Abril	2023-05-04T00:00:00	2024-11-08T14:00:00	3	Temperatura mínima	23.6
163560	7	Sololá	712	San Antonio Palopó	9	San Antonio Palopo	4	Abril	2023-05-04T00:00:00	2024-11-08T14:00:00	5	Humedad	64
163561	7	Sololá	712	San Antonio Palopó	9	San Antonio Palopo	4	Abril	2023-05-04T00:00:00	2024-11-08T14:00:00	6	Velocidad del viento	9.7
163562	7	Sololá	712	San Antonio Palopó	9	San Antonio Palopo	4	Abril	2023-05-04T00:00:00	2024-11-08T14:00:00	7	Dirección del viento	9.66
163563	7	Sololá	712	San Antonio Palopó	9	San Antonio Palopo	4	Abril	2023-05-04T00:00:00	2024-11-08T14:00:00	1	Precipitación	0
163564	7	Sololá	712	San Antonio Palopó	9	San Antonio Palopo	4	Abril	2023-05-04T00:00:00	2024-11-08T14:00:00	8	Radiación solar	879
163565	7	Sololá	712	San Antonio Palopó	9	San Antonio Palopo	4	Abril	2023-05-04T00:00:00	2024-11-08T15:00:00	2	Temperatura media	23.8
163566	7	Sololá	712	San Antonio Palopó	9	San Antonio Palopo	4	Abril	2023-05-04T00:00:00	2024-11-08T15:00:00	4	Temperatura máxima	24.4
163567	7	Sololá	712	San Antonio Palopó	9	San Antonio Palopo	4	Abril	2023-05-04T00:00:00	2024-11-08T15:00:00	3	Temperatura mínima	23.7
163568	7	Sololá	712	San Antonio Palopó	9	San Antonio Palopo	4	Abril	2023-05-04T00:00:00	2024-11-08T15:00:00	5	Humedad	69
163569	7	Sololá	712	San Antonio Palopó	9	San Antonio Palopo	4	Abril	2023-05-04T00:00:00	2024-11-08T15:00:00	6	Velocidad del viento	9.7
163570	7	Sololá	712	San Antonio Palopó	9	San Antonio Palopo	4	Abril	2023-05-04T00:00:00	2024-11-08T15:00:00	7	Dirección del viento	9.66
163571	7	Sololá	712	San Antonio Palopó	9	San Antonio Palopo	4	Abril	2023-05-04T00:00:00	2024-11-08T15:00:00	1	Precipitación	0
163572	7	Sololá	712	San Antonio Palopó	9	San Antonio Palopo	4	Abril	2023-05-04T00:00:00	2024-11-08T15:00:00	8	Radiación solar	749
163573	7	Sololá	712	San Antonio Palopó	9	San Antonio Palopo	4	Abril	2023-05-04T00:00:00	2024-11-08T16:00:00	2	Temperatura media	22.3
163574	7	Sololá	712	San Antonio Palopó	9	San Antonio Palopo	4	Abril	2023-05-04T00:00:00	2024-11-08T16:00:00	4	Temperatura máxima	23.8
163575	7	Sololá	712	San Antonio Palopó	9	San Antonio Palopo	4	Abril	2023-05-04T00:00:00	2024-11-08T16:00:00	3	Temperatura mínima	22.3
163576	7	Sololá	712	San Antonio Palopó	9	San Antonio Palopo	4	Abril	2023-05-04T00:00:00	2024-11-08T16:00:00	5	Humedad	75
163577	7	Sololá	712	San Antonio Palopó	9	San Antonio Palopo	4	Abril	2023-05-04T00:00:00	2024-11-08T16:00:00	6	Velocidad del viento	11.3
163578	7	Sololá	712	San Antonio Palopó	9	San Antonio Palopo	4	Abril	2023-05-04T00:00:00	2024-11-08T16:00:00	7	Dirección del viento	11.27
163579	7	Sololá	712	San Antonio Palopó	9	San Antonio Palopo	4	Abril	2023-05-04T00:00:00	2024-11-08T16:00:00	1	Precipitación	0
163580	7	Sololá	712	San Antonio Palopó	9	San Antonio Palopo	4	Abril	2023-05-04T00:00:00	2024-11-08T16:00:00	8	Radiación solar	261
163581	7	Sololá	712	San Antonio Palopó	9	San Antonio Palopo	4	Abril	2023-05-04T00:00:00	2024-11-08T17:00:00	2	Temperatura media	21.7
163582	7	Sololá	712	San Antonio Palopó	9	San Antonio Palopo	4	Abril	2023-05-04T00:00:00	2024-11-08T17:00:00	4	Temperatura máxima	22.3
163583	7	Sololá	712	San Antonio Palopó	9	San Antonio Palopo	4	Abril	2023-05-04T00:00:00	2024-11-08T17:00:00	3	Temperatura mínima	21.7
163584	7	Sololá	712	San Antonio Palopó	9	San Antonio Palopo	4	Abril	2023-05-04T00:00:00	2024-11-08T17:00:00	5	Humedad	77
163585	7	Sololá	712	San Antonio Palopó	9	San Antonio Palopo	4	Abril	2023-05-04T00:00:00	2024-11-08T17:00:00	6	Velocidad del viento	8
163586	7	Sololá	712	San Antonio Palopó	9	San Antonio Palopo	4	Abril	2023-05-04T00:00:00	2024-11-08T17:00:00	7	Dirección del viento	8.05
163587	7	Sololá	712	San Antonio Palopó	9	San Antonio Palopo	4	Abril	2023-05-04T00:00:00	2024-11-08T17:00:00	1	Precipitación	0
163588	7	Sololá	712	San Antonio Palopó	9	San Antonio Palopo	4	Abril	2023-05-04T00:00:00	2024-11-08T17:00:00	8	Radiación solar	115
163589	7	Sololá	712	San Antonio Palopó	9	San Antonio Palopo	4	Abril	2023-05-04T00:00:00	2024-11-08T18:00:00	2	Temperatura media	21.1
163590	7	Sololá	712	San Antonio Palopó	9	San Antonio Palopo	4	Abril	2023-05-04T00:00:00	2024-11-08T18:00:00	4	Temperatura máxima	21.8
163591	7	Sololá	712	San Antonio Palopó	9	San Antonio Palopo	4	Abril	2023-05-04T00:00:00	2024-11-08T18:00:00	3	Temperatura mínima	21.1
163592	7	Sololá	712	San Antonio Palopó	9	San Antonio Palopo	4	Abril	2023-05-04T00:00:00	2024-11-08T18:00:00	5	Humedad	80
163593	7	Sololá	712	San Antonio Palopó	9	San Antonio Palopo	4	Abril	2023-05-04T00:00:00	2024-11-08T18:00:00	6	Velocidad del viento	6.4
163594	7	Sololá	712	San Antonio Palopó	9	San Antonio Palopo	4	Abril	2023-05-04T00:00:00	2024-11-08T18:00:00	7	Dirección del viento	6.44
163595	7	Sololá	712	San Antonio Palopó	9	San Antonio Palopo	4	Abril	2023-05-04T00:00:00	2024-11-08T18:00:00	1	Precipitación	0
163596	7	Sololá	712	San Antonio Palopó	9	San Antonio Palopo	4	Abril	2023-05-04T00:00:00	2024-11-08T18:00:00	8	Radiación solar	41
163597	7	Sololá	712	San Antonio Palopó	9	San Antonio Palopo	4	Abril	2023-05-04T00:00:00	2024-11-08T19:00:00	2	Temperatura media	20.8
163598	7	Sololá	712	San Antonio Palopó	9	San Antonio Palopo	4	Abril	2023-05-04T00:00:00	2024-11-08T19:00:00	4	Temperatura máxima	21.1
163599	7	Sololá	712	San Antonio Palopó	9	San Antonio Palopo	4	Abril	2023-05-04T00:00:00	2024-11-08T19:00:00	3	Temperatura mínima	20.8
163600	7	Sololá	712	San Antonio Palopó	9	San Antonio Palopo	4	Abril	2023-05-04T00:00:00	2024-11-08T19:00:00	5	Humedad	82
163601	7	Sololá	712	San Antonio Palopó	9	San Antonio Palopo	4	Abril	2023-05-04T00:00:00	2024-11-08T19:00:00	6	Velocidad del viento	4.8
163602	7	Sololá	712	San Antonio Palopó	9	San Antonio Palopo	4	Abril	2023-05-04T00:00:00	2024-11-08T19:00:00	7	Dirección del viento	4.83
163603	7	Sololá	712	San Antonio Palopó	9	San Antonio Palopo	4	Abril	2023-05-04T00:00:00	2024-11-08T19:00:00	1	Precipitación	0
163604	7	Sololá	712	San Antonio Palopó	9	San Antonio Palopo	4	Abril	2023-05-04T00:00:00	2024-11-08T19:00:00	8	Radiación solar	0
163605	7	Sololá	712	San Antonio Palopó	9	San Antonio Palopo	4	Abril	2023-05-04T00:00:00	2024-11-08T20:00:00	2	Temperatura media	20.6
163606	7	Sololá	712	San Antonio Palopó	9	San Antonio Palopo	4	Abril	2023-05-04T00:00:00	2024-11-08T20:00:00	4	Temperatura máxima	20.9
163607	7	Sololá	712	San Antonio Palopó	9	San Antonio Palopo	4	Abril	2023-05-04T00:00:00	2024-11-08T20:00:00	3	Temperatura mínima	20.3
163608	7	Sololá	712	San Antonio Palopó	9	San Antonio Palopo	4	Abril	2023-05-04T00:00:00	2024-11-08T20:00:00	5	Humedad	81
163609	7	Sololá	712	San Antonio Palopó	9	San Antonio Palopo	4	Abril	2023-05-04T00:00:00	2024-11-08T20:00:00	6	Velocidad del viento	1.6
163610	7	Sololá	712	San Antonio Palopó	9	San Antonio Palopo	4	Abril	2023-05-04T00:00:00	2024-11-08T20:00:00	7	Dirección del viento	1.61
163611	7	Sololá	712	San Antonio Palopó	9	San Antonio Palopo	4	Abril	2023-05-04T00:00:00	2024-11-08T20:00:00	1	Precipitación	0
163612	7	Sololá	712	San Antonio Palopó	9	San Antonio Palopo	4	Abril	2023-05-04T00:00:00	2024-11-08T20:00:00	8	Radiación solar	0
163613	7	Sololá	712	San Antonio Palopó	9	San Antonio Palopo	4	Abril	2023-05-04T00:00:00	2024-11-08T21:00:00	2	Temperatura media	19.9
163614	7	Sololá	712	San Antonio Palopó	9	San Antonio Palopo	4	Abril	2023-05-04T00:00:00	2024-11-08T21:00:00	4	Temperatura máxima	20.8
163615	7	Sololá	712	San Antonio Palopó	9	San Antonio Palopo	4	Abril	2023-05-04T00:00:00	2024-11-08T21:00:00	3	Temperatura mínima	19.6
163616	7	Sololá	712	San Antonio Palopó	9	San Antonio Palopo	4	Abril	2023-05-04T00:00:00	2024-11-08T21:00:00	5	Humedad	86
163617	7	Sololá	712	San Antonio Palopó	9	San Antonio Palopo	4	Abril	2023-05-04T00:00:00	2024-11-08T21:00:00	6	Velocidad del viento	6.4
163618	7	Sololá	712	San Antonio Palopó	9	San Antonio Palopo	4	Abril	2023-05-04T00:00:00	2024-11-08T21:00:00	7	Dirección del viento	6.44
163619	7	Sololá	712	San Antonio Palopó	9	San Antonio Palopo	4	Abril	2023-05-04T00:00:00	2024-11-08T21:00:00	1	Precipitación	0
163620	7	Sololá	712	San Antonio Palopó	9	San Antonio Palopo	4	Abril	2023-05-04T00:00:00	2024-11-08T21:00:00	8	Radiación solar	0
163621	7	Sololá	712	San Antonio Palopó	9	San Antonio Palopo	4	Abril	2023-05-04T00:00:00	2024-11-08T22:00:00	2	Temperatura media	19.9
163622	7	Sololá	712	San Antonio Palopó	9	San Antonio Palopo	4	Abril	2023-05-04T00:00:00	2024-11-08T22:00:00	4	Temperatura máxima	20.2
163623	7	Sololá	712	San Antonio Palopó	9	San Antonio Palopo	4	Abril	2023-05-04T00:00:00	2024-11-08T22:00:00	3	Temperatura mínima	19.8
163624	7	Sololá	712	San Antonio Palopó	9	San Antonio Palopo	4	Abril	2023-05-04T00:00:00	2024-11-08T22:00:00	5	Humedad	88
163625	7	Sololá	712	San Antonio Palopó	9	San Antonio Palopo	4	Abril	2023-05-04T00:00:00	2024-11-08T22:00:00	6	Velocidad del viento	3.2
163626	7	Sololá	712	San Antonio Palopó	9	San Antonio Palopo	4	Abril	2023-05-04T00:00:00	2024-11-08T22:00:00	7	Dirección del viento	3.22
163627	7	Sololá	712	San Antonio Palopó	9	San Antonio Palopo	4	Abril	2023-05-04T00:00:00	2024-11-08T22:00:00	1	Precipitación	0
163628	7	Sololá	712	San Antonio Palopó	9	San Antonio Palopo	4	Abril	2023-05-04T00:00:00	2024-11-08T22:00:00	8	Radiación solar	0
163629	7	Sololá	712	San Antonio Palopó	9	San Antonio Palopo	4	Abril	2023-05-04T00:00:00	2024-11-08T23:00:00	2	Temperatura media	19.3
163630	7	Sololá	712	San Antonio Palopó	9	San Antonio Palopo	4	Abril	2023-05-04T00:00:00	2024-11-08T23:00:00	4	Temperatura máxima	19.9
163631	7	Sololá	712	San Antonio Palopó	9	San Antonio Palopo	4	Abril	2023-05-04T00:00:00	2024-11-08T23:00:00	3	Temperatura mínima	19.3
163632	7	Sololá	712	San Antonio Palopó	9	San Antonio Palopo	4	Abril	2023-05-04T00:00:00	2024-11-08T23:00:00	5	Humedad	84
163633	7	Sololá	712	San Antonio Palopó	9	San Antonio Palopo	4	Abril	2023-05-04T00:00:00	2024-11-08T23:00:00	6	Velocidad del viento	3.2
163634	7	Sololá	712	San Antonio Palopó	9	San Antonio Palopo	4	Abril	2023-05-04T00:00:00	2024-11-08T23:00:00	7	Dirección del viento	3.22
163635	7	Sololá	712	San Antonio Palopó	9	San Antonio Palopo	4	Abril	2023-05-04T00:00:00	2024-11-08T23:00:00	1	Precipitación	0
163636	7	Sololá	712	San Antonio Palopó	9	San Antonio Palopo	4	Abril	2023-05-04T00:00:00	2024-11-08T23:00:00	8	Radiación solar	0
163637	7	Sololá	712	San Antonio Palopó	9	San Antonio Palopo	4	Abril	2023-06-04T00:00:00	2024-11-08T00:00:00	2	Temperatura media	18.9
163638	7	Sololá	712	San Antonio Palopó	9	San Antonio Palopo	4	Abril	2023-06-04T00:00:00	2024-11-08T00:00:00	4	Temperatura máxima	19.3
163639	7	Sololá	712	San Antonio Palopó	9	San Antonio Palopo	4	Abril	2023-06-04T00:00:00	2024-11-08T00:00:00	3	Temperatura mínima	18.9
163640	7	Sololá	712	San Antonio Palopó	9	San Antonio Palopo	4	Abril	2023-06-04T00:00:00	2024-11-08T00:00:00	5	Humedad	82
163641	7	Sololá	712	San Antonio Palopó	9	San Antonio Palopo	4	Abril	2023-06-04T00:00:00	2024-11-08T00:00:00	6	Velocidad del viento	3.2
163642	7	Sololá	712	San Antonio Palopó	9	San Antonio Palopo	4	Abril	2023-06-04T00:00:00	2024-11-08T00:00:00	7	Dirección del viento	3.22
163643	7	Sololá	712	San Antonio Palopó	9	San Antonio Palopo	4	Abril	2023-06-04T00:00:00	2024-11-08T00:00:00	1	Precipitación	0
163644	7	Sololá	712	San Antonio Palopó	9	San Antonio Palopo	4	Abril	2023-06-04T00:00:00	2024-11-08T00:00:00	8	Radiación solar	0
163645	7	Sololá	712	San Antonio Palopó	9	San Antonio Palopo	4	Abril	2023-06-04T00:00:00	2024-11-08T01:00:00	2	Temperatura media	18.8
163646	7	Sololá	712	San Antonio Palopó	9	San Antonio Palopo	4	Abril	2023-06-04T00:00:00	2024-11-08T01:00:00	4	Temperatura máxima	18.9
163647	7	Sololá	712	San Antonio Palopó	9	San Antonio Palopo	4	Abril	2023-06-04T00:00:00	2024-11-08T01:00:00	3	Temperatura mínima	18.5
163648	7	Sololá	712	San Antonio Palopó	9	San Antonio Palopo	4	Abril	2023-06-04T00:00:00	2024-11-08T01:00:00	5	Humedad	83
163649	7	Sololá	712	San Antonio Palopó	9	San Antonio Palopo	4	Abril	2023-06-04T00:00:00	2024-11-08T01:00:00	6	Velocidad del viento	3.2
163650	7	Sololá	712	San Antonio Palopó	9	San Antonio Palopo	4	Abril	2023-06-04T00:00:00	2024-11-08T01:00:00	7	Dirección del viento	3.22
163651	7	Sololá	712	San Antonio Palopó	9	San Antonio Palopo	4	Abril	2023-06-04T00:00:00	2024-11-08T01:00:00	1	Precipitación	0
163652	7	Sololá	712	San Antonio Palopó	9	San Antonio Palopo	4	Abril	2023-06-04T00:00:00	2024-11-08T01:00:00	8	Radiación solar	0
163653	7	Sololá	712	San Antonio Palopó	9	San Antonio Palopo	4	Abril	2023-06-04T00:00:00	2024-11-08T02:00:00	2	Temperatura media	18.2
163654	7	Sololá	712	San Antonio Palopó	9	San Antonio Palopo	4	Abril	2023-06-04T00:00:00	2024-11-08T02:00:00	4	Temperatura máxima	19.2
163655	7	Sololá	712	San Antonio Palopó	9	San Antonio Palopo	4	Abril	2023-06-04T00:00:00	2024-11-08T02:00:00	3	Temperatura mínima	18.2
163656	7	Sololá	712	San Antonio Palopó	9	San Antonio Palopo	4	Abril	2023-06-04T00:00:00	2024-11-08T02:00:00	5	Humedad	82
163657	7	Sololá	712	San Antonio Palopó	9	San Antonio Palopo	4	Abril	2023-06-04T00:00:00	2024-11-08T02:00:00	6	Velocidad del viento	1.6
163658	7	Sololá	712	San Antonio Palopó	9	San Antonio Palopo	4	Abril	2023-06-04T00:00:00	2024-11-08T02:00:00	7	Dirección del viento	1.61
163659	7	Sololá	712	San Antonio Palopó	9	San Antonio Palopo	4	Abril	2023-06-04T00:00:00	2024-11-08T02:00:00	1	Precipitación	0
163660	7	Sololá	712	San Antonio Palopó	9	San Antonio Palopo	4	Abril	2023-06-04T00:00:00	2024-11-08T02:00:00	8	Radiación solar	0
163661	7	Sololá	712	San Antonio Palopó	9	San Antonio Palopo	4	Abril	2023-06-04T00:00:00	2024-11-08T03:00:00	2	Temperatura media	18.3
163662	7	Sololá	712	San Antonio Palopó	9	San Antonio Palopo	4	Abril	2023-06-04T00:00:00	2024-11-08T03:00:00	4	Temperatura máxima	18.3
163663	7	Sololá	712	San Antonio Palopó	9	San Antonio Palopo	4	Abril	2023-06-04T00:00:00	2024-11-08T03:00:00	3	Temperatura mínima	17.7
163664	7	Sololá	712	San Antonio Palopó	9	San Antonio Palopo	4	Abril	2023-06-04T00:00:00	2024-11-08T03:00:00	5	Humedad	79
163665	7	Sololá	712	San Antonio Palopó	9	San Antonio Palopo	4	Abril	2023-06-04T00:00:00	2024-11-08T03:00:00	6	Velocidad del viento	3.2
163666	7	Sololá	712	San Antonio Palopó	9	San Antonio Palopo	4	Abril	2023-06-04T00:00:00	2024-11-08T03:00:00	7	Dirección del viento	3.22
163667	7	Sololá	712	San Antonio Palopó	9	San Antonio Palopo	4	Abril	2023-06-04T00:00:00	2024-11-08T03:00:00	1	Precipitación	0
163668	7	Sololá	712	San Antonio Palopó	9	San Antonio Palopo	4	Abril	2023-06-04T00:00:00	2024-11-08T03:00:00	8	Radiación solar	0
163669	7	Sololá	712	San Antonio Palopó	9	San Antonio Palopo	4	Abril	2023-06-04T00:00:00	2024-11-08T04:00:00	2	Temperatura media	18.3
163670	7	Sololá	712	San Antonio Palopó	9	San Antonio Palopo	4	Abril	2023-06-04T00:00:00	2024-11-08T04:00:00	4	Temperatura máxima	18.6
163671	7	Sololá	712	San Antonio Palopó	9	San Antonio Palopo	4	Abril	2023-06-04T00:00:00	2024-11-08T04:00:00	3	Temperatura mínima	18.2
163672	7	Sololá	712	San Antonio Palopó	9	San Antonio Palopo	4	Abril	2023-06-04T00:00:00	2024-11-08T04:00:00	5	Humedad	81
163673	7	Sololá	712	San Antonio Palopó	9	San Antonio Palopo	4	Abril	2023-06-04T00:00:00	2024-11-08T04:00:00	6	Velocidad del viento	1.6
163674	7	Sololá	712	San Antonio Palopó	9	San Antonio Palopo	4	Abril	2023-06-04T00:00:00	2024-11-08T04:00:00	7	Dirección del viento	1.61
163675	7	Sololá	712	San Antonio Palopó	9	San Antonio Palopo	4	Abril	2023-06-04T00:00:00	2024-11-08T04:00:00	1	Precipitación	0
163676	7	Sololá	712	San Antonio Palopó	9	San Antonio Palopo	4	Abril	2023-06-04T00:00:00	2024-11-08T04:00:00	8	Radiación solar	0
163677	7	Sololá	712	San Antonio Palopó	9	San Antonio Palopo	4	Abril	2023-06-04T00:00:00	2024-11-08T05:00:00	2	Temperatura media	18.7
163678	7	Sololá	712	San Antonio Palopó	9	San Antonio Palopo	4	Abril	2023-06-04T00:00:00	2024-11-08T05:00:00	4	Temperatura máxima	18.7
163679	7	Sololá	712	San Antonio Palopó	9	San Antonio Palopo	4	Abril	2023-06-04T00:00:00	2024-11-08T05:00:00	3	Temperatura mínima	17.9
163680	7	Sololá	712	San Antonio Palopó	9	San Antonio Palopo	4	Abril	2023-06-04T00:00:00	2024-11-08T05:00:00	5	Humedad	83
163681	7	Sololá	712	San Antonio Palopó	9	San Antonio Palopo	4	Abril	2023-06-04T00:00:00	2024-11-08T05:00:00	6	Velocidad del viento	1.6
163682	7	Sololá	712	San Antonio Palopó	9	San Antonio Palopo	4	Abril	2023-06-04T00:00:00	2024-11-08T05:00:00	7	Dirección del viento	1.61
163683	7	Sololá	712	San Antonio Palopó	9	San Antonio Palopo	4	Abril	2023-06-04T00:00:00	2024-11-08T05:00:00	1	Precipitación	0
163684	7	Sololá	712	San Antonio Palopó	9	San Antonio Palopo	4	Abril	2023-06-04T00:00:00	2024-11-08T05:00:00	8	Radiación solar	0
163685	7	Sololá	712	San Antonio Palopó	9	San Antonio Palopo	4	Abril	2023-06-04T00:00:00	2024-11-08T06:00:00	2	Temperatura media	18.2
163686	7	Sololá	712	San Antonio Palopó	9	San Antonio Palopo	4	Abril	2023-06-04T00:00:00	2024-11-08T06:00:00	4	Temperatura máxima	18.7
163687	7	Sololá	712	San Antonio Palopó	9	San Antonio Palopo	4	Abril	2023-06-04T00:00:00	2024-11-08T06:00:00	3	Temperatura mínima	17.9
163688	7	Sololá	712	San Antonio Palopó	9	San Antonio Palopo	4	Abril	2023-06-04T00:00:00	2024-11-08T06:00:00	5	Humedad	82
163689	7	Sololá	712	San Antonio Palopó	9	San Antonio Palopo	4	Abril	2023-06-04T00:00:00	2024-11-08T06:00:00	6	Velocidad del viento	1.6
163690	7	Sololá	712	San Antonio Palopó	9	San Antonio Palopo	4	Abril	2023-06-04T00:00:00	2024-11-08T06:00:00	7	Dirección del viento	1.61
163691	7	Sololá	712	San Antonio Palopó	9	San Antonio Palopo	4	Abril	2023-06-04T00:00:00	2024-11-08T06:00:00	1	Precipitación	0
163692	7	Sololá	712	San Antonio Palopó	9	San Antonio Palopo	4	Abril	2023-06-04T00:00:00	2024-11-08T06:00:00	8	Radiación solar	0
163693	7	Sololá	712	San Antonio Palopó	9	San Antonio Palopo	4	Abril	2023-06-04T00:00:00	2024-11-08T07:00:00	2	Temperatura media	18.6
163694	7	Sololá	712	San Antonio Palopó	9	San Antonio Palopo	4	Abril	2023-06-04T00:00:00	2024-11-08T07:00:00	4	Temperatura máxima	18.6
163695	7	Sololá	712	San Antonio Palopó	9	San Antonio Palopo	4	Abril	2023-06-04T00:00:00	2024-11-08T07:00:00	3	Temperatura mínima	18.2
163696	7	Sololá	712	San Antonio Palopó	9	San Antonio Palopo	4	Abril	2023-06-04T00:00:00	2024-11-08T07:00:00	5	Humedad	78
163697	7	Sololá	712	San Antonio Palopó	9	San Antonio Palopo	4	Abril	2023-06-04T00:00:00	2024-11-08T07:00:00	6	Velocidad del viento	1.6
163698	7	Sololá	712	San Antonio Palopó	9	San Antonio Palopo	4	Abril	2023-06-04T00:00:00	2024-11-08T07:00:00	7	Dirección del viento	1.61
163699	7	Sololá	712	San Antonio Palopó	9	San Antonio Palopo	4	Abril	2023-06-04T00:00:00	2024-11-08T07:00:00	1	Precipitación	0
163700	7	Sololá	712	San Antonio Palopó	9	San Antonio Palopo	4	Abril	2023-06-04T00:00:00	2024-11-08T07:00:00	8	Radiación solar	39
163701	7	Sololá	712	San Antonio Palopó	9	San Antonio Palopo	4	Abril	2023-06-04T00:00:00	2024-11-08T08:00:00	2	Temperatura media	19.3
163702	7	Sololá	712	San Antonio Palopó	9	San Antonio Palopo	4	Abril	2023-06-04T00:00:00	2024-11-08T08:00:00	4	Temperatura máxima	19.4
163703	7	Sololá	712	San Antonio Palopó	9	San Antonio Palopo	4	Abril	2023-06-04T00:00:00	2024-11-08T08:00:00	3	Temperatura mínima	18.6
163704	7	Sololá	712	San Antonio Palopó	9	San Antonio Palopo	4	Abril	2023-06-04T00:00:00	2024-11-08T08:00:00	5	Humedad	81
163705	7	Sololá	712	San Antonio Palopó	9	San Antonio Palopo	4	Abril	2023-06-04T00:00:00	2024-11-08T08:00:00	6	Velocidad del viento	1.6
163706	7	Sololá	712	San Antonio Palopó	9	San Antonio Palopo	4	Abril	2023-06-04T00:00:00	2024-11-08T08:00:00	7	Dirección del viento	1.61
163707	7	Sololá	712	San Antonio Palopó	9	San Antonio Palopo	4	Abril	2023-06-04T00:00:00	2024-11-08T08:00:00	1	Precipitación	0
163708	7	Sololá	712	San Antonio Palopó	9	San Antonio Palopo	4	Abril	2023-06-04T00:00:00	2024-11-08T08:00:00	8	Radiación solar	121
163709	7	Sololá	712	San Antonio Palopó	9	San Antonio Palopo	4	Abril	2023-06-04T00:00:00	2024-11-08T09:00:00	2	Temperatura media	20.8
163710	7	Sololá	712	San Antonio Palopó	9	San Antonio Palopo	4	Abril	2023-06-04T00:00:00	2024-11-08T09:00:00	4	Temperatura máxima	20.8
163711	7	Sololá	712	San Antonio Palopó	9	San Antonio Palopo	4	Abril	2023-06-04T00:00:00	2024-11-08T09:00:00	3	Temperatura mínima	19.3
163712	7	Sololá	712	San Antonio Palopó	9	San Antonio Palopo	4	Abril	2023-06-04T00:00:00	2024-11-08T09:00:00	5	Humedad	76
163713	7	Sololá	712	San Antonio Palopó	9	San Antonio Palopo	4	Abril	2023-06-04T00:00:00	2024-11-08T09:00:00	6	Velocidad del viento	1.6
163714	7	Sololá	712	San Antonio Palopó	9	San Antonio Palopo	4	Abril	2023-06-04T00:00:00	2024-11-08T09:00:00	7	Dirección del viento	1.61
163715	7	Sololá	712	San Antonio Palopó	9	San Antonio Palopo	4	Abril	2023-06-04T00:00:00	2024-11-08T09:00:00	1	Precipitación	0
163716	7	Sololá	712	San Antonio Palopó	9	San Antonio Palopo	4	Abril	2023-06-04T00:00:00	2024-11-08T09:00:00	8	Radiación solar	300
163717	7	Sololá	712	San Antonio Palopó	9	San Antonio Palopo	4	Abril	2023-06-04T00:00:00	2024-11-08T10:00:00	2	Temperatura media	21.2
163718	7	Sololá	712	San Antonio Palopó	9	San Antonio Palopo	4	Abril	2023-06-04T00:00:00	2024-11-08T10:00:00	4	Temperatura máxima	21.3
163719	7	Sololá	712	San Antonio Palopó	9	San Antonio Palopo	4	Abril	2023-06-04T00:00:00	2024-11-08T10:00:00	3	Temperatura mínima	20.4
163720	7	Sololá	712	San Antonio Palopó	9	San Antonio Palopo	4	Abril	2023-06-04T00:00:00	2024-11-08T10:00:00	5	Humedad	77
163721	7	Sololá	712	San Antonio Palopó	9	San Antonio Palopo	4	Abril	2023-06-04T00:00:00	2024-11-08T10:00:00	6	Velocidad del viento	4.8
163722	7	Sololá	712	San Antonio Palopó	9	San Antonio Palopo	4	Abril	2023-06-04T00:00:00	2024-11-08T10:00:00	7	Dirección del viento	4.83
163723	7	Sololá	712	San Antonio Palopó	9	San Antonio Palopo	4	Abril	2023-06-04T00:00:00	2024-11-08T10:00:00	1	Precipitación	0
163724	7	Sololá	712	San Antonio Palopó	9	San Antonio Palopo	4	Abril	2023-06-04T00:00:00	2024-11-08T10:00:00	8	Radiación solar	564
163725	7	Sololá	712	San Antonio Palopó	9	San Antonio Palopo	4	Abril	2023-06-04T00:00:00	2024-11-08T11:00:00	2	Temperatura media	22.9
163726	7	Sololá	712	San Antonio Palopó	9	San Antonio Palopo	4	Abril	2023-06-04T00:00:00	2024-11-08T11:00:00	4	Temperatura máxima	22.9
163727	7	Sololá	712	San Antonio Palopó	9	San Antonio Palopo	4	Abril	2023-06-04T00:00:00	2024-11-08T11:00:00	3	Temperatura mínima	21.1
163728	7	Sololá	712	San Antonio Palopó	9	San Antonio Palopo	4	Abril	2023-06-04T00:00:00	2024-11-08T11:00:00	5	Humedad	66
163729	7	Sololá	712	San Antonio Palopó	9	San Antonio Palopo	4	Abril	2023-06-04T00:00:00	2024-11-08T11:00:00	6	Velocidad del viento	6.4
163730	7	Sololá	712	San Antonio Palopó	9	San Antonio Palopo	4	Abril	2023-06-04T00:00:00	2024-11-08T11:00:00	7	Dirección del viento	6.44
163731	7	Sololá	712	San Antonio Palopó	9	San Antonio Palopo	4	Abril	2023-06-04T00:00:00	2024-11-08T11:00:00	1	Precipitación	0
163732	7	Sololá	712	San Antonio Palopó	9	San Antonio Palopo	4	Abril	2023-06-04T00:00:00	2024-11-08T11:00:00	8	Radiación solar	818
163733	7	Sololá	712	San Antonio Palopó	9	San Antonio Palopo	4	Abril	2023-06-04T00:00:00	2024-11-08T12:00:00	2	Temperatura media	23.3
163734	7	Sololá	712	San Antonio Palopó	9	San Antonio Palopo	4	Abril	2023-06-04T00:00:00	2024-11-08T12:00:00	4	Temperatura máxima	23.9
163735	7	Sololá	712	San Antonio Palopó	9	San Antonio Palopo	4	Abril	2023-06-04T00:00:00	2024-11-08T12:00:00	3	Temperatura mínima	22.7
163736	7	Sololá	712	San Antonio Palopó	9	San Antonio Palopo	4	Abril	2023-06-04T00:00:00	2024-11-08T12:00:00	5	Humedad	67
163737	7	Sololá	712	San Antonio Palopó	9	San Antonio Palopo	4	Abril	2023-06-04T00:00:00	2024-11-08T12:00:00	6	Velocidad del viento	6.4
163738	7	Sololá	712	San Antonio Palopó	9	San Antonio Palopo	4	Abril	2023-06-04T00:00:00	2024-11-08T12:00:00	7	Dirección del viento	6.44
163739	7	Sololá	712	San Antonio Palopó	9	San Antonio Palopo	4	Abril	2023-06-04T00:00:00	2024-11-08T12:00:00	1	Precipitación	0
163740	7	Sololá	712	San Antonio Palopó	9	San Antonio Palopo	4	Abril	2023-06-04T00:00:00	2024-11-08T12:00:00	8	Radiación solar	932
163741	7	Sololá	712	San Antonio Palopó	9	San Antonio Palopo	4	Abril	2023-06-04T00:00:00	2024-11-08T13:00:00	2	Temperatura media	23.1
163742	7	Sololá	712	San Antonio Palopó	9	San Antonio Palopo	4	Abril	2023-06-04T00:00:00	2024-11-08T13:00:00	4	Temperatura máxima	23.3
163743	7	Sololá	712	San Antonio Palopó	9	San Antonio Palopo	4	Abril	2023-06-04T00:00:00	2024-11-08T13:00:00	3	Temperatura mínima	22.7
163744	7	Sololá	712	San Antonio Palopó	9	San Antonio Palopo	4	Abril	2023-06-04T00:00:00	2024-11-08T13:00:00	5	Humedad	70
163745	7	Sololá	712	San Antonio Palopó	9	San Antonio Palopo	4	Abril	2023-06-04T00:00:00	2024-11-08T13:00:00	6	Velocidad del viento	9.7
163746	7	Sololá	712	San Antonio Palopó	9	San Antonio Palopo	4	Abril	2023-06-04T00:00:00	2024-11-08T13:00:00	7	Dirección del viento	9.66
163747	7	Sololá	712	San Antonio Palopó	9	San Antonio Palopo	4	Abril	2023-06-04T00:00:00	2024-11-08T13:00:00	1	Precipitación	0
163748	7	Sololá	712	San Antonio Palopó	9	San Antonio Palopo	4	Abril	2023-06-04T00:00:00	2024-11-08T13:00:00	8	Radiación solar	775
163749	7	Sololá	712	San Antonio Palopó	9	San Antonio Palopo	4	Abril	2023-06-04T00:00:00	2024-11-08T14:00:00	2	Temperatura media	22.5
163750	7	Sololá	712	San Antonio Palopó	9	San Antonio Palopo	4	Abril	2023-06-04T00:00:00	2024-11-08T14:00:00	4	Temperatura máxima	24.1
163751	7	Sololá	712	San Antonio Palopó	9	San Antonio Palopo	4	Abril	2023-06-04T00:00:00	2024-11-08T14:00:00	3	Temperatura mínima	22.4
163752	7	Sololá	712	San Antonio Palopó	9	San Antonio Palopo	4	Abril	2023-06-04T00:00:00	2024-11-08T14:00:00	5	Humedad	72
163753	7	Sololá	712	San Antonio Palopó	9	San Antonio Palopo	4	Abril	2023-06-04T00:00:00	2024-11-08T14:00:00	6	Velocidad del viento	8
163754	7	Sololá	712	San Antonio Palopó	9	San Antonio Palopo	4	Abril	2023-06-04T00:00:00	2024-11-08T14:00:00	7	Dirección del viento	8.05
163755	7	Sololá	712	San Antonio Palopó	9	San Antonio Palopo	4	Abril	2023-06-04T00:00:00	2024-11-08T14:00:00	1	Precipitación	0
163756	7	Sololá	712	San Antonio Palopó	9	San Antonio Palopo	4	Abril	2023-06-04T00:00:00	2024-11-08T14:00:00	8	Radiación solar	732
163757	7	Sololá	712	San Antonio Palopó	9	San Antonio Palopo	4	Abril	2023-06-04T00:00:00	2024-11-08T15:00:00	2	Temperatura media	21.9
163758	7	Sololá	712	San Antonio Palopó	9	San Antonio Palopo	4	Abril	2023-06-04T00:00:00	2024-11-08T15:00:00	4	Temperatura máxima	22.7
163759	7	Sololá	712	San Antonio Palopó	9	San Antonio Palopo	4	Abril	2023-06-04T00:00:00	2024-11-08T15:00:00	3	Temperatura mínima	21.6
163760	7	Sololá	712	San Antonio Palopó	9	San Antonio Palopo	4	Abril	2023-06-04T00:00:00	2024-11-08T15:00:00	5	Humedad	76
163761	7	Sololá	712	San Antonio Palopó	9	San Antonio Palopo	4	Abril	2023-06-04T00:00:00	2024-11-08T15:00:00	6	Velocidad del viento	12.9
163762	7	Sololá	712	San Antonio Palopó	9	San Antonio Palopo	4	Abril	2023-06-04T00:00:00	2024-11-08T15:00:00	7	Dirección del viento	12.87
163763	7	Sololá	712	San Antonio Palopó	9	San Antonio Palopo	4	Abril	2023-06-04T00:00:00	2024-11-08T15:00:00	1	Precipitación	0
163764	7	Sololá	712	San Antonio Palopó	9	San Antonio Palopo	4	Abril	2023-06-04T00:00:00	2024-11-08T15:00:00	8	Radiación solar	309
163765	7	Sololá	712	San Antonio Palopó	9	San Antonio Palopo	4	Abril	2023-06-04T00:00:00	2024-11-08T16:00:00	2	Temperatura media	21.6
163766	7	Sololá	712	San Antonio Palopó	9	San Antonio Palopo	4	Abril	2023-06-04T00:00:00	2024-11-08T16:00:00	4	Temperatura máxima	22.4
163767	7	Sololá	712	San Antonio Palopó	9	San Antonio Palopo	4	Abril	2023-06-04T00:00:00	2024-11-08T16:00:00	3	Temperatura mínima	21.6
163768	7	Sololá	712	San Antonio Palopó	9	San Antonio Palopo	4	Abril	2023-06-04T00:00:00	2024-11-08T16:00:00	5	Humedad	78
163769	7	Sololá	712	San Antonio Palopó	9	San Antonio Palopo	4	Abril	2023-06-04T00:00:00	2024-11-08T16:00:00	6	Velocidad del viento	12.9
163770	7	Sololá	712	San Antonio Palopó	9	San Antonio Palopo	4	Abril	2023-06-04T00:00:00	2024-11-08T16:00:00	7	Dirección del viento	12.87
163771	7	Sololá	712	San Antonio Palopó	9	San Antonio Palopo	4	Abril	2023-06-04T00:00:00	2024-11-08T16:00:00	1	Precipitación	0
163772	7	Sololá	712	San Antonio Palopó	9	San Antonio Palopo	4	Abril	2023-06-04T00:00:00	2024-11-08T16:00:00	8	Radiación solar	481
163773	7	Sololá	712	San Antonio Palopó	9	San Antonio Palopo	4	Abril	2023-06-04T00:00:00	2024-11-08T17:00:00	2	Temperatura media	21.5
163774	7	Sololá	712	San Antonio Palopó	9	San Antonio Palopo	4	Abril	2023-06-04T00:00:00	2024-11-08T17:00:00	4	Temperatura máxima	21.6
163775	7	Sololá	712	San Antonio Palopó	9	San Antonio Palopo	4	Abril	2023-06-04T00:00:00	2024-11-08T17:00:00	3	Temperatura mínima	20.9
163776	7	Sololá	712	San Antonio Palopó	9	San Antonio Palopo	4	Abril	2023-06-04T00:00:00	2024-11-08T17:00:00	5	Humedad	80
163777	7	Sololá	712	San Antonio Palopó	9	San Antonio Palopo	4	Abril	2023-06-04T00:00:00	2024-11-08T17:00:00	6	Velocidad del viento	9.7
163778	7	Sololá	712	San Antonio Palopó	9	San Antonio Palopo	4	Abril	2023-06-04T00:00:00	2024-11-08T17:00:00	7	Dirección del viento	9.66
163779	7	Sololá	712	San Antonio Palopó	9	San Antonio Palopo	4	Abril	2023-06-04T00:00:00	2024-11-08T17:00:00	1	Precipitación	0
163780	7	Sololá	712	San Antonio Palopó	9	San Antonio Palopo	4	Abril	2023-06-04T00:00:00	2024-11-08T17:00:00	8	Radiación solar	198
163781	7	Sololá	712	San Antonio Palopó	9	San Antonio Palopo	4	Abril	2023-06-04T00:00:00	2024-11-08T18:00:00	2	Temperatura media	20.4
163782	7	Sololá	712	San Antonio Palopó	9	San Antonio Palopo	4	Abril	2023-06-04T00:00:00	2024-11-08T18:00:00	4	Temperatura máxima	22
163783	7	Sololá	712	San Antonio Palopó	9	San Antonio Palopo	4	Abril	2023-06-04T00:00:00	2024-11-08T18:00:00	3	Temperatura mínima	20.4
163784	7	Sololá	712	San Antonio Palopó	9	San Antonio Palopo	4	Abril	2023-06-04T00:00:00	2024-11-08T18:00:00	5	Humedad	80
163785	7	Sololá	712	San Antonio Palopó	9	San Antonio Palopo	4	Abril	2023-06-04T00:00:00	2024-11-08T18:00:00	6	Velocidad del viento	4.8
163786	7	Sololá	712	San Antonio Palopó	9	San Antonio Palopo	4	Abril	2023-06-04T00:00:00	2024-11-08T18:00:00	7	Dirección del viento	4.83
163787	7	Sololá	712	San Antonio Palopó	9	San Antonio Palopo	4	Abril	2023-06-04T00:00:00	2024-11-08T18:00:00	1	Precipitación	0
163788	7	Sololá	712	San Antonio Palopó	9	San Antonio Palopo	4	Abril	2023-06-04T00:00:00	2024-11-08T18:00:00	8	Radiación solar	97
163789	7	Sololá	712	San Antonio Palopó	9	San Antonio Palopo	4	Abril	2023-06-04T00:00:00	2024-11-08T19:00:00	2	Temperatura media	20.2
163790	7	Sololá	712	San Antonio Palopó	9	San Antonio Palopo	4	Abril	2023-06-04T00:00:00	2024-11-08T19:00:00	4	Temperatura máxima	20.5
163791	7	Sololá	712	San Antonio Palopó	9	San Antonio Palopo	4	Abril	2023-06-04T00:00:00	2024-11-08T19:00:00	3	Temperatura mínima	20.2
163792	7	Sololá	712	San Antonio Palopó	9	San Antonio Palopo	4	Abril	2023-06-04T00:00:00	2024-11-08T19:00:00	5	Humedad	82
163793	7	Sololá	712	San Antonio Palopó	9	San Antonio Palopo	4	Abril	2023-06-04T00:00:00	2024-11-08T19:00:00	6	Velocidad del viento	6.4
163794	7	Sololá	712	San Antonio Palopó	9	San Antonio Palopo	4	Abril	2023-06-04T00:00:00	2024-11-08T19:00:00	7	Dirección del viento	6.44
163795	7	Sololá	712	San Antonio Palopó	9	San Antonio Palopo	4	Abril	2023-06-04T00:00:00	2024-11-08T19:00:00	1	Precipitación	0
163796	7	Sololá	712	San Antonio Palopó	9	San Antonio Palopo	4	Abril	2023-06-04T00:00:00	2024-11-08T19:00:00	8	Radiación solar	0
163797	7	Sololá	712	San Antonio Palopó	9	San Antonio Palopo	4	Abril	2023-06-04T00:00:00	2024-11-08T20:00:00	2	Temperatura media	19.8
163798	7	Sololá	712	San Antonio Palopó	9	San Antonio Palopo	4	Abril	2023-06-04T00:00:00	2024-11-08T20:00:00	4	Temperatura máxima	20.2
163799	7	Sololá	712	San Antonio Palopó	9	San Antonio Palopo	4	Abril	2023-06-04T00:00:00	2024-11-08T20:00:00	3	Temperatura mínima	19.8
163800	7	Sololá	712	San Antonio Palopó	9	San Antonio Palopo	4	Abril	2023-06-04T00:00:00	2024-11-08T20:00:00	5	Humedad	82
163801	7	Sololá	712	San Antonio Palopó	9	San Antonio Palopo	4	Abril	2023-06-04T00:00:00	2024-11-08T20:00:00	6	Velocidad del viento	3.2
163802	7	Sololá	712	San Antonio Palopó	9	San Antonio Palopo	4	Abril	2023-06-04T00:00:00	2024-11-08T20:00:00	7	Dirección del viento	3.22
163803	7	Sololá	712	San Antonio Palopó	9	San Antonio Palopo	4	Abril	2023-06-04T00:00:00	2024-11-08T20:00:00	1	Precipitación	0
163804	7	Sololá	712	San Antonio Palopó	9	San Antonio Palopo	4	Abril	2023-06-04T00:00:00	2024-11-08T20:00:00	8	Radiación solar	0
163805	7	Sololá	712	San Antonio Palopó	9	San Antonio Palopo	4	Abril	2023-06-04T00:00:00	2024-11-08T21:00:00	2	Temperatura media	19.5
163806	7	Sololá	712	San Antonio Palopó	9	San Antonio Palopo	4	Abril	2023-06-04T00:00:00	2024-11-08T21:00:00	4	Temperatura máxima	19.8
163807	7	Sololá	712	San Antonio Palopó	9	San Antonio Palopo	4	Abril	2023-06-04T00:00:00	2024-11-08T21:00:00	3	Temperatura mínima	19.4
163808	7	Sololá	712	San Antonio Palopó	9	San Antonio Palopo	4	Abril	2023-06-04T00:00:00	2024-11-08T21:00:00	5	Humedad	83
163809	7	Sololá	712	San Antonio Palopó	9	San Antonio Palopo	4	Abril	2023-06-04T00:00:00	2024-11-08T21:00:00	6	Velocidad del viento	1.6
163810	7	Sololá	712	San Antonio Palopó	9	San Antonio Palopo	4	Abril	2023-06-04T00:00:00	2024-11-08T21:00:00	7	Dirección del viento	1.61
163811	7	Sololá	712	San Antonio Palopó	9	San Antonio Palopo	4	Abril	2023-06-04T00:00:00	2024-11-08T21:00:00	1	Precipitación	0
163812	7	Sololá	712	San Antonio Palopó	9	San Antonio Palopo	4	Abril	2023-06-04T00:00:00	2024-11-08T21:00:00	8	Radiación solar	0
163813	7	Sololá	712	San Antonio Palopó	9	San Antonio Palopo	4	Abril	2023-06-04T00:00:00	2024-11-08T22:00:00	2	Temperatura media	19
163814	7	Sololá	712	San Antonio Palopó	9	San Antonio Palopo	4	Abril	2023-06-04T00:00:00	2024-11-08T22:00:00	4	Temperatura máxima	19.5
163815	7	Sololá	712	San Antonio Palopó	9	San Antonio Palopo	4	Abril	2023-06-04T00:00:00	2024-11-08T22:00:00	3	Temperatura mínima	19
163816	7	Sololá	712	San Antonio Palopó	9	San Antonio Palopo	4	Abril	2023-06-04T00:00:00	2024-11-08T22:00:00	5	Humedad	79
163817	7	Sololá	712	San Antonio Palopó	9	San Antonio Palopo	4	Abril	2023-06-04T00:00:00	2024-11-08T22:00:00	6	Velocidad del viento	1.6
163818	7	Sololá	712	San Antonio Palopó	9	San Antonio Palopo	4	Abril	2023-06-04T00:00:00	2024-11-08T22:00:00	7	Dirección del viento	1.61
163819	7	Sololá	712	San Antonio Palopó	9	San Antonio Palopo	4	Abril	2023-06-04T00:00:00	2024-11-08T22:00:00	1	Precipitación	0
163820	7	Sololá	712	San Antonio Palopó	9	San Antonio Palopo	4	Abril	2023-06-04T00:00:00	2024-11-08T22:00:00	8	Radiación solar	0
163821	7	Sololá	712	San Antonio Palopó	9	San Antonio Palopo	4	Abril	2023-06-04T00:00:00	2024-11-08T23:00:00	2	Temperatura media	18.8
163822	7	Sololá	712	San Antonio Palopó	9	San Antonio Palopo	4	Abril	2023-06-04T00:00:00	2024-11-08T23:00:00	4	Temperatura máxima	19
163823	7	Sololá	712	San Antonio Palopó	9	San Antonio Palopo	4	Abril	2023-06-04T00:00:00	2024-11-08T23:00:00	3	Temperatura mínima	18.6
163824	7	Sololá	712	San Antonio Palopó	9	San Antonio Palopo	4	Abril	2023-06-04T00:00:00	2024-11-08T23:00:00	5	Humedad	77
163825	7	Sololá	712	San Antonio Palopó	9	San Antonio Palopo	4	Abril	2023-06-04T00:00:00	2024-11-08T23:00:00	6	Velocidad del viento	3.2
163826	7	Sololá	712	San Antonio Palopó	9	San Antonio Palopo	4	Abril	2023-06-04T00:00:00	2024-11-08T23:00:00	7	Dirección del viento	3.22
163827	7	Sololá	712	San Antonio Palopó	9	San Antonio Palopo	4	Abril	2023-06-04T00:00:00	2024-11-08T23:00:00	1	Precipitación	0
163828	7	Sololá	712	San Antonio Palopó	9	San Antonio Palopo	4	Abril	2023-06-04T00:00:00	2024-11-08T23:00:00	8	Radiación solar	0
163829	7	Sololá	712	San Antonio Palopó	9	San Antonio Palopo	4	Abril	2023-07-04T00:00:00	2024-11-08T00:00:00	2	Temperatura media	18.9
163830	7	Sololá	712	San Antonio Palopó	9	San Antonio Palopo	4	Abril	2023-07-04T00:00:00	2024-11-08T00:00:00	4	Temperatura máxima	19.1
163831	7	Sololá	712	San Antonio Palopó	9	San Antonio Palopo	4	Abril	2023-07-04T00:00:00	2024-11-08T00:00:00	3	Temperatura mínima	18.7
163832	7	Sololá	712	San Antonio Palopó	9	San Antonio Palopo	4	Abril	2023-07-04T00:00:00	2024-11-08T00:00:00	5	Humedad	83
163833	7	Sololá	712	San Antonio Palopó	9	San Antonio Palopo	4	Abril	2023-07-04T00:00:00	2024-11-08T00:00:00	6	Velocidad del viento	3.2
163834	7	Sololá	712	San Antonio Palopó	9	San Antonio Palopo	4	Abril	2023-07-04T00:00:00	2024-11-08T00:00:00	7	Dirección del viento	3.22
163835	7	Sololá	712	San Antonio Palopó	9	San Antonio Palopo	4	Abril	2023-07-04T00:00:00	2024-11-08T00:00:00	1	Precipitación	0
163836	7	Sololá	712	San Antonio Palopó	9	San Antonio Palopo	4	Abril	2023-07-04T00:00:00	2024-11-08T00:00:00	8	Radiación solar	0
163837	7	Sololá	712	San Antonio Palopó	9	San Antonio Palopo	4	Abril	2023-07-04T00:00:00	2024-11-08T01:00:00	2	Temperatura media	19.1
163838	7	Sololá	712	San Antonio Palopó	9	San Antonio Palopo	4	Abril	2023-07-04T00:00:00	2024-11-08T01:00:00	4	Temperatura máxima	19.1
163839	7	Sololá	712	San Antonio Palopó	9	San Antonio Palopo	4	Abril	2023-07-04T00:00:00	2024-11-08T01:00:00	3	Temperatura mínima	18.7
163840	7	Sololá	712	San Antonio Palopó	9	San Antonio Palopo	4	Abril	2023-07-04T00:00:00	2024-11-08T01:00:00	5	Humedad	74
163841	7	Sololá	712	San Antonio Palopó	9	San Antonio Palopo	4	Abril	2023-07-04T00:00:00	2024-11-08T01:00:00	6	Velocidad del viento	3.2
163842	7	Sololá	712	San Antonio Palopó	9	San Antonio Palopo	4	Abril	2023-07-04T00:00:00	2024-11-08T01:00:00	7	Dirección del viento	3.22
163843	7	Sololá	712	San Antonio Palopó	9	San Antonio Palopo	4	Abril	2023-07-04T00:00:00	2024-11-08T01:00:00	1	Precipitación	0
163844	7	Sololá	712	San Antonio Palopó	9	San Antonio Palopo	4	Abril	2023-07-04T00:00:00	2024-11-08T01:00:00	8	Radiación solar	0
163845	7	Sololá	712	San Antonio Palopó	9	San Antonio Palopo	4	Abril	2023-07-04T00:00:00	2024-11-08T02:00:00	2	Temperatura media	18.7
163846	7	Sololá	712	San Antonio Palopó	9	San Antonio Palopo	4	Abril	2023-07-04T00:00:00	2024-11-08T02:00:00	4	Temperatura máxima	19.2
163847	7	Sololá	712	San Antonio Palopó	9	San Antonio Palopo	4	Abril	2023-07-04T00:00:00	2024-11-08T02:00:00	3	Temperatura mínima	18.7
163848	7	Sololá	712	San Antonio Palopó	9	San Antonio Palopo	4	Abril	2023-07-04T00:00:00	2024-11-08T02:00:00	5	Humedad	73
163849	7	Sololá	712	San Antonio Palopó	9	San Antonio Palopo	4	Abril	2023-07-04T00:00:00	2024-11-08T02:00:00	6	Velocidad del viento	9.7
163850	7	Sololá	712	San Antonio Palopó	9	San Antonio Palopo	4	Abril	2023-07-04T00:00:00	2024-11-08T02:00:00	7	Dirección del viento	9.66
163851	7	Sololá	712	San Antonio Palopó	9	San Antonio Palopo	4	Abril	2023-07-04T00:00:00	2024-11-08T02:00:00	1	Precipitación	0
163852	7	Sololá	712	San Antonio Palopó	9	San Antonio Palopo	4	Abril	2023-07-04T00:00:00	2024-11-08T02:00:00	8	Radiación solar	0
163853	7	Sololá	712	San Antonio Palopó	9	San Antonio Palopo	4	Abril	2023-07-04T00:00:00	2024-11-08T03:00:00	2	Temperatura media	18.4
163854	7	Sololá	712	San Antonio Palopó	9	San Antonio Palopo	4	Abril	2023-07-04T00:00:00	2024-11-08T03:00:00	4	Temperatura máxima	18.7
163855	7	Sololá	712	San Antonio Palopó	9	San Antonio Palopo	4	Abril	2023-07-04T00:00:00	2024-11-08T03:00:00	3	Temperatura mínima	18.3
163856	7	Sololá	712	San Antonio Palopó	9	San Antonio Palopo	4	Abril	2023-07-04T00:00:00	2024-11-08T03:00:00	5	Humedad	72
163857	7	Sololá	712	San Antonio Palopó	9	San Antonio Palopo	4	Abril	2023-07-04T00:00:00	2024-11-08T03:00:00	6	Velocidad del viento	14.5
163858	7	Sololá	712	San Antonio Palopó	9	San Antonio Palopo	4	Abril	2023-07-04T00:00:00	2024-11-08T03:00:00	7	Dirección del viento	14.48
163859	7	Sololá	712	San Antonio Palopó	9	San Antonio Palopo	4	Abril	2023-07-04T00:00:00	2024-11-08T03:00:00	1	Precipitación	0
163860	7	Sololá	712	San Antonio Palopó	9	San Antonio Palopo	4	Abril	2023-07-04T00:00:00	2024-11-08T03:00:00	8	Radiación solar	0
163861	7	Sololá	712	San Antonio Palopó	9	San Antonio Palopo	4	Abril	2023-07-04T00:00:00	2024-11-08T04:00:00	2	Temperatura media	18
163862	7	Sololá	712	San Antonio Palopó	9	San Antonio Palopo	4	Abril	2023-07-04T00:00:00	2024-11-08T04:00:00	4	Temperatura máxima	18.5
163863	7	Sololá	712	San Antonio Palopó	9	San Antonio Palopo	4	Abril	2023-07-04T00:00:00	2024-11-08T04:00:00	3	Temperatura mínima	17.8
163864	7	Sololá	712	San Antonio Palopó	9	San Antonio Palopo	4	Abril	2023-07-04T00:00:00	2024-11-08T04:00:00	5	Humedad	74
163865	7	Sololá	712	San Antonio Palopó	9	San Antonio Palopo	4	Abril	2023-07-04T00:00:00	2024-11-08T04:00:00	6	Velocidad del viento	14.5
163866	7	Sololá	712	San Antonio Palopó	9	San Antonio Palopo	4	Abril	2023-07-04T00:00:00	2024-11-08T04:00:00	7	Dirección del viento	14.48
163867	7	Sololá	712	San Antonio Palopó	9	San Antonio Palopo	4	Abril	2023-07-04T00:00:00	2024-11-08T04:00:00	1	Precipitación	0
163868	7	Sololá	712	San Antonio Palopó	9	San Antonio Palopo	4	Abril	2023-07-04T00:00:00	2024-11-08T04:00:00	8	Radiación solar	0
163869	7	Sololá	712	San Antonio Palopó	9	San Antonio Palopo	4	Abril	2023-07-04T00:00:00	2024-11-08T05:00:00	2	Temperatura media	17.6
163870	7	Sololá	712	San Antonio Palopó	9	San Antonio Palopo	4	Abril	2023-07-04T00:00:00	2024-11-08T05:00:00	4	Temperatura máxima	18
163871	7	Sololá	712	San Antonio Palopó	9	San Antonio Palopo	4	Abril	2023-07-04T00:00:00	2024-11-08T05:00:00	3	Temperatura mínima	17.6
163872	7	Sololá	712	San Antonio Palopó	9	San Antonio Palopo	4	Abril	2023-07-04T00:00:00	2024-11-08T05:00:00	5	Humedad	73
163873	7	Sololá	712	San Antonio Palopó	9	San Antonio Palopo	4	Abril	2023-07-04T00:00:00	2024-11-08T05:00:00	6	Velocidad del viento	11.3
163874	7	Sololá	712	San Antonio Palopó	9	San Antonio Palopo	4	Abril	2023-07-04T00:00:00	2024-11-08T05:00:00	7	Dirección del viento	11.27
163875	7	Sololá	712	San Antonio Palopó	9	San Antonio Palopo	4	Abril	2023-07-04T00:00:00	2024-11-08T05:00:00	1	Precipitación	0
163876	7	Sololá	712	San Antonio Palopó	9	San Antonio Palopo	4	Abril	2023-07-04T00:00:00	2024-11-08T05:00:00	8	Radiación solar	0
163877	7	Sololá	712	San Antonio Palopó	9	San Antonio Palopo	4	Abril	2023-07-04T00:00:00	2024-11-08T06:00:00	2	Temperatura media	17.2
163878	7	Sololá	712	San Antonio Palopó	9	San Antonio Palopo	4	Abril	2023-07-04T00:00:00	2024-11-08T06:00:00	4	Temperatura máxima	17.7
163879	7	Sololá	712	San Antonio Palopó	9	San Antonio Palopo	4	Abril	2023-07-04T00:00:00	2024-11-08T06:00:00	3	Temperatura mínima	17.2
163880	7	Sololá	712	San Antonio Palopó	9	San Antonio Palopo	4	Abril	2023-07-04T00:00:00	2024-11-08T06:00:00	5	Humedad	74
163881	7	Sololá	712	San Antonio Palopó	9	San Antonio Palopo	4	Abril	2023-07-04T00:00:00	2024-11-08T06:00:00	6	Velocidad del viento	8
163882	7	Sololá	712	San Antonio Palopó	9	San Antonio Palopo	4	Abril	2023-07-04T00:00:00	2024-11-08T06:00:00	7	Dirección del viento	8.05
163883	7	Sololá	712	San Antonio Palopó	9	San Antonio Palopo	4	Abril	2023-07-04T00:00:00	2024-11-08T06:00:00	1	Precipitación	0
163884	7	Sololá	712	San Antonio Palopó	9	San Antonio Palopo	4	Abril	2023-07-04T00:00:00	2024-11-08T06:00:00	8	Radiación solar	0
163885	7	Sololá	712	San Antonio Palopó	9	San Antonio Palopo	4	Abril	2023-07-04T00:00:00	2024-11-08T07:00:00	2	Temperatura media	17.3
163886	7	Sololá	712	San Antonio Palopó	9	San Antonio Palopo	4	Abril	2023-07-04T00:00:00	2024-11-08T07:00:00	4	Temperatura máxima	17.3
163887	7	Sololá	712	San Antonio Palopó	9	San Antonio Palopo	4	Abril	2023-07-04T00:00:00	2024-11-08T07:00:00	3	Temperatura mínima	17.1
163888	7	Sololá	712	San Antonio Palopó	9	San Antonio Palopo	4	Abril	2023-07-04T00:00:00	2024-11-08T07:00:00	5	Humedad	74
163889	7	Sololá	712	San Antonio Palopó	9	San Antonio Palopo	4	Abril	2023-07-04T00:00:00	2024-11-08T07:00:00	6	Velocidad del viento	6.4
163890	7	Sololá	712	San Antonio Palopó	9	San Antonio Palopo	4	Abril	2023-07-04T00:00:00	2024-11-08T07:00:00	7	Dirección del viento	6.44
163891	7	Sololá	712	San Antonio Palopó	9	San Antonio Palopo	4	Abril	2023-07-04T00:00:00	2024-11-08T07:00:00	1	Precipitación	0
163892	7	Sololá	712	San Antonio Palopó	9	San Antonio Palopo	4	Abril	2023-07-04T00:00:00	2024-11-08T07:00:00	8	Radiación solar	24
163893	7	Sololá	712	San Antonio Palopó	9	San Antonio Palopo	4	Abril	2023-07-04T00:00:00	2024-11-08T08:00:00	2	Temperatura media	19.3
163894	7	Sololá	712	San Antonio Palopó	9	San Antonio Palopo	4	Abril	2023-07-04T00:00:00	2024-11-08T08:00:00	4	Temperatura máxima	19.3
163895	7	Sololá	712	San Antonio Palopó	9	San Antonio Palopo	4	Abril	2023-07-04T00:00:00	2024-11-08T08:00:00	3	Temperatura mínima	17.3
163896	7	Sololá	712	San Antonio Palopó	9	San Antonio Palopo	4	Abril	2023-07-04T00:00:00	2024-11-08T08:00:00	5	Humedad	69
163897	7	Sololá	712	San Antonio Palopó	9	San Antonio Palopo	4	Abril	2023-07-04T00:00:00	2024-11-08T08:00:00	6	Velocidad del viento	3.2
163898	7	Sololá	712	San Antonio Palopó	9	San Antonio Palopo	4	Abril	2023-07-04T00:00:00	2024-11-08T08:00:00	7	Dirección del viento	3.22
163899	7	Sololá	712	San Antonio Palopó	9	San Antonio Palopo	4	Abril	2023-07-04T00:00:00	2024-11-08T08:00:00	1	Precipitación	0
163900	7	Sololá	712	San Antonio Palopó	9	San Antonio Palopo	4	Abril	2023-07-04T00:00:00	2024-11-08T08:00:00	8	Radiación solar	114
163901	7	Sololá	712	San Antonio Palopó	9	San Antonio Palopo	4	Abril	2023-07-04T00:00:00	2024-11-08T09:00:00	2	Temperatura media	20.3
163902	7	Sololá	712	San Antonio Palopó	9	San Antonio Palopo	4	Abril	2023-07-04T00:00:00	2024-11-08T09:00:00	4	Temperatura máxima	20.3
163903	7	Sololá	712	San Antonio Palopó	9	San Antonio Palopo	4	Abril	2023-07-04T00:00:00	2024-11-08T09:00:00	3	Temperatura mínima	19.3
163904	7	Sololá	712	San Antonio Palopó	9	San Antonio Palopo	4	Abril	2023-07-04T00:00:00	2024-11-08T09:00:00	5	Humedad	68
163905	7	Sololá	712	San Antonio Palopó	9	San Antonio Palopo	4	Abril	2023-07-04T00:00:00	2024-11-08T09:00:00	6	Velocidad del viento	1.6
163906	7	Sololá	712	San Antonio Palopó	9	San Antonio Palopo	4	Abril	2023-07-04T00:00:00	2024-11-08T09:00:00	7	Dirección del viento	1.61
163907	7	Sololá	712	San Antonio Palopó	9	San Antonio Palopo	4	Abril	2023-07-04T00:00:00	2024-11-08T09:00:00	1	Precipitación	0
163908	7	Sololá	712	San Antonio Palopó	9	San Antonio Palopo	4	Abril	2023-07-04T00:00:00	2024-11-08T09:00:00	8	Radiación solar	418
163909	7	Sololá	712	San Antonio Palopó	9	San Antonio Palopo	4	Abril	2023-07-04T00:00:00	2024-11-08T10:00:00	2	Temperatura media	21.8
163910	7	Sololá	712	San Antonio Palopó	9	San Antonio Palopo	4	Abril	2023-07-04T00:00:00	2024-11-08T10:00:00	4	Temperatura máxima	21.8
163911	7	Sololá	712	San Antonio Palopó	9	San Antonio Palopo	4	Abril	2023-07-04T00:00:00	2024-11-08T10:00:00	3	Temperatura mínima	20.3
163912	7	Sololá	712	San Antonio Palopó	9	San Antonio Palopo	4	Abril	2023-07-04T00:00:00	2024-11-08T10:00:00	5	Humedad	59
163913	7	Sololá	712	San Antonio Palopó	9	San Antonio Palopo	4	Abril	2023-07-04T00:00:00	2024-11-08T10:00:00	6	Velocidad del viento	1.6
163914	7	Sololá	712	San Antonio Palopó	9	San Antonio Palopo	4	Abril	2023-07-04T00:00:00	2024-11-08T10:00:00	7	Dirección del viento	1.61
163915	7	Sololá	712	San Antonio Palopó	9	San Antonio Palopo	4	Abril	2023-07-04T00:00:00	2024-11-08T10:00:00	1	Precipitación	0
163916	7	Sololá	712	San Antonio Palopó	9	San Antonio Palopo	4	Abril	2023-07-04T00:00:00	2024-11-08T10:00:00	8	Radiación solar	544
163917	7	Sololá	712	San Antonio Palopó	9	San Antonio Palopo	4	Abril	2023-07-04T00:00:00	2024-11-08T11:00:00	2	Temperatura media	22.9
163918	7	Sololá	712	San Antonio Palopó	9	San Antonio Palopo	4	Abril	2023-07-04T00:00:00	2024-11-08T11:00:00	4	Temperatura máxima	22.9
163919	7	Sololá	712	San Antonio Palopó	9	San Antonio Palopo	4	Abril	2023-07-04T00:00:00	2024-11-08T11:00:00	3	Temperatura mínima	21.8
163920	7	Sololá	712	San Antonio Palopó	9	San Antonio Palopo	4	Abril	2023-07-04T00:00:00	2024-11-08T11:00:00	5	Humedad	62
163921	7	Sololá	712	San Antonio Palopó	9	San Antonio Palopo	4	Abril	2023-07-04T00:00:00	2024-11-08T11:00:00	6	Velocidad del viento	3.2
163922	7	Sololá	712	San Antonio Palopó	9	San Antonio Palopo	4	Abril	2023-07-04T00:00:00	2024-11-08T11:00:00	7	Dirección del viento	3.22
163923	7	Sololá	712	San Antonio Palopó	9	San Antonio Palopo	4	Abril	2023-07-04T00:00:00	2024-11-08T11:00:00	1	Precipitación	0
163924	7	Sololá	712	San Antonio Palopó	9	San Antonio Palopo	4	Abril	2023-07-04T00:00:00	2024-11-08T11:00:00	8	Radiación solar	780
163925	7	Sololá	712	San Antonio Palopó	9	San Antonio Palopo	4	Abril	2023-07-04T00:00:00	2024-11-08T12:00:00	2	Temperatura media	23.1
163926	7	Sololá	712	San Antonio Palopó	9	San Antonio Palopo	4	Abril	2023-07-04T00:00:00	2024-11-08T12:00:00	4	Temperatura máxima	23.3
163927	7	Sololá	712	San Antonio Palopó	9	San Antonio Palopo	4	Abril	2023-07-04T00:00:00	2024-11-08T12:00:00	3	Temperatura mínima	22.7
163928	7	Sololá	712	San Antonio Palopó	9	San Antonio Palopo	4	Abril	2023-07-04T00:00:00	2024-11-08T12:00:00	5	Humedad	65
163929	7	Sololá	712	San Antonio Palopó	9	San Antonio Palopo	4	Abril	2023-07-04T00:00:00	2024-11-08T12:00:00	6	Velocidad del viento	9.7
163930	7	Sololá	712	San Antonio Palopó	9	San Antonio Palopo	4	Abril	2023-07-04T00:00:00	2024-11-08T12:00:00	7	Dirección del viento	9.66
163931	7	Sololá	712	San Antonio Palopó	9	San Antonio Palopo	4	Abril	2023-07-04T00:00:00	2024-11-08T12:00:00	1	Precipitación	0
163932	7	Sololá	712	San Antonio Palopó	9	San Antonio Palopo	4	Abril	2023-07-04T00:00:00	2024-11-08T12:00:00	8	Radiación solar	891
163933	7	Sololá	712	San Antonio Palopó	9	San Antonio Palopo	4	Abril	2023-07-04T00:00:00	2024-11-08T13:00:00	2	Temperatura media	22.7
163934	7	Sololá	712	San Antonio Palopó	9	San Antonio Palopo	4	Abril	2023-07-04T00:00:00	2024-11-08T13:00:00	4	Temperatura máxima	23.3
163935	7	Sololá	712	San Antonio Palopó	9	San Antonio Palopo	4	Abril	2023-07-04T00:00:00	2024-11-08T13:00:00	3	Temperatura mínima	22.6
163936	7	Sololá	712	San Antonio Palopó	9	San Antonio Palopo	4	Abril	2023-07-04T00:00:00	2024-11-08T13:00:00	5	Humedad	68
163937	7	Sololá	712	San Antonio Palopó	9	San Antonio Palopo	4	Abril	2023-07-04T00:00:00	2024-11-08T13:00:00	6	Velocidad del viento	11.3
163938	7	Sololá	712	San Antonio Palopó	9	San Antonio Palopo	4	Abril	2023-07-04T00:00:00	2024-11-08T13:00:00	7	Dirección del viento	11.27
163939	7	Sololá	712	San Antonio Palopó	9	San Antonio Palopo	4	Abril	2023-07-04T00:00:00	2024-11-08T13:00:00	1	Precipitación	0
163940	7	Sololá	712	San Antonio Palopó	9	San Antonio Palopo	4	Abril	2023-07-04T00:00:00	2024-11-08T13:00:00	8	Radiación solar	914
163941	7	Sololá	712	San Antonio Palopó	9	San Antonio Palopo	4	Abril	2023-07-04T00:00:00	2024-11-08T14:00:00	2	Temperatura media	22.3
163942	7	Sololá	712	San Antonio Palopó	9	San Antonio Palopo	4	Abril	2023-07-04T00:00:00	2024-11-08T14:00:00	4	Temperatura máxima	23
163943	7	Sololá	712	San Antonio Palopó	9	San Antonio Palopo	4	Abril	2023-07-04T00:00:00	2024-11-08T14:00:00	3	Temperatura mínima	22.3
163944	7	Sololá	712	San Antonio Palopó	9	San Antonio Palopo	4	Abril	2023-07-04T00:00:00	2024-11-08T14:00:00	5	Humedad	72
163945	7	Sololá	712	San Antonio Palopó	9	San Antonio Palopo	4	Abril	2023-07-04T00:00:00	2024-11-08T14:00:00	6	Velocidad del viento	12.9
163946	7	Sololá	712	San Antonio Palopó	9	San Antonio Palopo	4	Abril	2023-07-04T00:00:00	2024-11-08T14:00:00	7	Dirección del viento	12.87
163947	7	Sololá	712	San Antonio Palopó	9	San Antonio Palopo	4	Abril	2023-07-04T00:00:00	2024-11-08T14:00:00	1	Precipitación	0
163948	7	Sololá	712	San Antonio Palopó	9	San Antonio Palopo	4	Abril	2023-07-04T00:00:00	2024-11-08T14:00:00	8	Radiación solar	786
163949	7	Sololá	712	San Antonio Palopó	9	San Antonio Palopo	4	Abril	2023-07-04T00:00:00	2024-11-08T15:00:00	2	Temperatura media	22.3
163950	7	Sololá	712	San Antonio Palopó	9	San Antonio Palopo	4	Abril	2023-07-04T00:00:00	2024-11-08T15:00:00	4	Temperatura máxima	22.4
163951	7	Sololá	712	San Antonio Palopó	9	San Antonio Palopo	4	Abril	2023-07-04T00:00:00	2024-11-08T15:00:00	3	Temperatura mínima	21.8
163952	7	Sololá	712	San Antonio Palopó	9	San Antonio Palopo	4	Abril	2023-07-04T00:00:00	2024-11-08T15:00:00	5	Humedad	70
163953	7	Sololá	712	San Antonio Palopó	9	San Antonio Palopo	4	Abril	2023-07-04T00:00:00	2024-11-08T15:00:00	6	Velocidad del viento	8
163954	7	Sololá	712	San Antonio Palopó	9	San Antonio Palopo	4	Abril	2023-07-04T00:00:00	2024-11-08T15:00:00	7	Dirección del viento	8.05
163955	7	Sololá	712	San Antonio Palopó	9	San Antonio Palopo	4	Abril	2023-07-04T00:00:00	2024-11-08T15:00:00	1	Precipitación	0
163956	7	Sololá	712	San Antonio Palopó	9	San Antonio Palopo	4	Abril	2023-07-04T00:00:00	2024-11-08T15:00:00	8	Radiación solar	252
163957	7	Sololá	712	San Antonio Palopó	9	San Antonio Palopo	4	Abril	2023-07-04T00:00:00	2024-11-08T16:00:00	2	Temperatura media	22.5
163958	7	Sololá	712	San Antonio Palopó	9	San Antonio Palopo	4	Abril	2023-07-04T00:00:00	2024-11-08T16:00:00	4	Temperatura máxima	23.5
163959	7	Sololá	712	San Antonio Palopó	9	San Antonio Palopo	4	Abril	2023-07-04T00:00:00	2024-11-08T16:00:00	3	Temperatura mínima	22.3
163960	7	Sololá	712	San Antonio Palopó	9	San Antonio Palopo	4	Abril	2023-07-04T00:00:00	2024-11-08T16:00:00	5	Humedad	73
163961	7	Sololá	712	San Antonio Palopó	9	San Antonio Palopo	4	Abril	2023-07-04T00:00:00	2024-11-08T16:00:00	6	Velocidad del viento	8
163962	7	Sololá	712	San Antonio Palopó	9	San Antonio Palopo	4	Abril	2023-07-04T00:00:00	2024-11-08T16:00:00	7	Dirección del viento	8.05
163963	7	Sololá	712	San Antonio Palopó	9	San Antonio Palopo	4	Abril	2023-07-04T00:00:00	2024-11-08T16:00:00	1	Precipitación	0
163964	7	Sololá	712	San Antonio Palopó	9	San Antonio Palopo	4	Abril	2023-07-04T00:00:00	2024-11-08T16:00:00	8	Radiación solar	472
163965	7	Sololá	712	San Antonio Palopó	9	San Antonio Palopo	4	Abril	2023-07-04T00:00:00	2024-11-08T17:00:00	2	Temperatura media	21.9
163966	7	Sololá	712	San Antonio Palopó	9	San Antonio Palopo	4	Abril	2023-07-04T00:00:00	2024-11-08T17:00:00	4	Temperatura máxima	22.6
163967	7	Sololá	712	San Antonio Palopó	9	San Antonio Palopo	4	Abril	2023-07-04T00:00:00	2024-11-08T17:00:00	3	Temperatura mínima	21.9
163968	7	Sololá	712	San Antonio Palopó	9	San Antonio Palopo	4	Abril	2023-07-04T00:00:00	2024-11-08T17:00:00	5	Humedad	77
163969	7	Sololá	712	San Antonio Palopó	9	San Antonio Palopo	4	Abril	2023-07-04T00:00:00	2024-11-08T17:00:00	6	Velocidad del viento	8
163970	7	Sololá	712	San Antonio Palopó	9	San Antonio Palopo	4	Abril	2023-07-04T00:00:00	2024-11-08T17:00:00	7	Dirección del viento	8.05
163971	7	Sololá	712	San Antonio Palopó	9	San Antonio Palopo	4	Abril	2023-07-04T00:00:00	2024-11-08T17:00:00	1	Precipitación	0
163972	7	Sololá	712	San Antonio Palopó	9	San Antonio Palopo	4	Abril	2023-07-04T00:00:00	2024-11-08T17:00:00	8	Radiación solar	330
163973	7	Sololá	712	San Antonio Palopó	9	San Antonio Palopo	4	Abril	2023-07-04T00:00:00	2024-11-08T18:00:00	2	Temperatura media	20.6
163974	7	Sololá	712	San Antonio Palopó	9	San Antonio Palopo	4	Abril	2023-07-04T00:00:00	2024-11-08T18:00:00	4	Temperatura máxima	22.1
163975	7	Sololá	712	San Antonio Palopó	9	San Antonio Palopo	4	Abril	2023-07-04T00:00:00	2024-11-08T18:00:00	3	Temperatura mínima	20.6
163976	7	Sololá	712	San Antonio Palopó	9	San Antonio Palopo	4	Abril	2023-07-04T00:00:00	2024-11-08T18:00:00	5	Humedad	83
163977	7	Sololá	712	San Antonio Palopó	9	San Antonio Palopo	4	Abril	2023-07-04T00:00:00	2024-11-08T18:00:00	6	Velocidad del viento	4.8
163978	7	Sololá	712	San Antonio Palopó	9	San Antonio Palopo	4	Abril	2023-07-04T00:00:00	2024-11-08T18:00:00	7	Dirección del viento	4.83
163979	7	Sololá	712	San Antonio Palopó	9	San Antonio Palopo	4	Abril	2023-07-04T00:00:00	2024-11-08T18:00:00	1	Precipitación	0
163980	7	Sololá	712	San Antonio Palopó	9	San Antonio Palopo	4	Abril	2023-07-04T00:00:00	2024-11-08T18:00:00	8	Radiación solar	114
163981	7	Sololá	712	San Antonio Palopó	9	San Antonio Palopo	4	Abril	2023-07-04T00:00:00	2024-11-08T19:00:00	2	Temperatura media	20.1
163982	7	Sololá	712	San Antonio Palopó	9	San Antonio Palopo	4	Abril	2023-07-04T00:00:00	2024-11-08T19:00:00	4	Temperatura máxima	20.6
163983	7	Sololá	712	San Antonio Palopó	9	San Antonio Palopo	4	Abril	2023-07-04T00:00:00	2024-11-08T19:00:00	3	Temperatura mínima	20
163984	7	Sololá	712	San Antonio Palopó	9	San Antonio Palopo	4	Abril	2023-07-04T00:00:00	2024-11-08T19:00:00	5	Humedad	82
163985	7	Sololá	712	San Antonio Palopó	9	San Antonio Palopo	4	Abril	2023-07-04T00:00:00	2024-11-08T19:00:00	6	Velocidad del viento	3.2
163986	7	Sololá	712	San Antonio Palopó	9	San Antonio Palopo	4	Abril	2023-07-04T00:00:00	2024-11-08T19:00:00	7	Dirección del viento	3.22
163987	7	Sololá	712	San Antonio Palopó	9	San Antonio Palopo	4	Abril	2023-07-04T00:00:00	2024-11-08T19:00:00	1	Precipitación	0
163988	7	Sololá	712	San Antonio Palopó	9	San Antonio Palopo	4	Abril	2023-07-04T00:00:00	2024-11-08T19:00:00	8	Radiación solar	0
163989	7	Sololá	712	San Antonio Palopó	9	San Antonio Palopo	4	Abril	2023-07-04T00:00:00	2024-11-08T20:00:00	2	Temperatura media	19.3
163990	7	Sololá	712	San Antonio Palopó	9	San Antonio Palopo	4	Abril	2023-07-04T00:00:00	2024-11-08T20:00:00	4	Temperatura máxima	20.1
163991	7	Sololá	712	San Antonio Palopó	9	San Antonio Palopo	4	Abril	2023-07-04T00:00:00	2024-11-08T20:00:00	3	Temperatura mínima	19.3
163992	7	Sololá	712	San Antonio Palopó	9	San Antonio Palopo	4	Abril	2023-07-04T00:00:00	2024-11-08T20:00:00	5	Humedad	83
163993	7	Sololá	712	San Antonio Palopó	9	San Antonio Palopo	4	Abril	2023-07-04T00:00:00	2024-11-08T20:00:00	6	Velocidad del viento	1.6
163994	7	Sololá	712	San Antonio Palopó	9	San Antonio Palopo	4	Abril	2023-07-04T00:00:00	2024-11-08T20:00:00	7	Dirección del viento	1.61
163995	7	Sololá	712	San Antonio Palopó	9	San Antonio Palopo	4	Abril	2023-07-04T00:00:00	2024-11-08T20:00:00	1	Precipitación	0
163996	7	Sololá	712	San Antonio Palopó	9	San Antonio Palopo	4	Abril	2023-07-04T00:00:00	2024-11-08T20:00:00	8	Radiación solar	0
163997	7	Sololá	712	San Antonio Palopó	9	San Antonio Palopo	4	Abril	2023-07-04T00:00:00	2024-11-08T21:00:00	2	Temperatura media	20.1
163998	7	Sololá	712	San Antonio Palopó	9	San Antonio Palopo	4	Abril	2023-07-04T00:00:00	2024-11-08T21:00:00	4	Temperatura máxima	20.1
163999	7	Sololá	712	San Antonio Palopó	9	San Antonio Palopo	4	Abril	2023-07-04T00:00:00	2024-11-08T21:00:00	3	Temperatura mínima	18.9
164000	7	Sololá	712	San Antonio Palopó	9	San Antonio Palopo	4	Abril	2023-07-04T00:00:00	2024-11-08T21:00:00	5	Humedad	66
164001	7	Sololá	712	San Antonio Palopó	9	San Antonio Palopo	4	Abril	2023-07-04T00:00:00	2024-11-08T21:00:00	6	Velocidad del viento	3.2
164002	7	Sololá	712	San Antonio Palopó	9	San Antonio Palopo	4	Abril	2023-07-04T00:00:00	2024-11-08T21:00:00	7	Dirección del viento	3.22
164003	7	Sololá	712	San Antonio Palopó	9	San Antonio Palopo	4	Abril	2023-07-04T00:00:00	2024-11-08T21:00:00	1	Precipitación	0
164004	7	Sololá	712	San Antonio Palopó	9	San Antonio Palopo	4	Abril	2023-07-04T00:00:00	2024-11-08T21:00:00	8	Radiación solar	0
164005	7	Sololá	712	San Antonio Palopó	9	San Antonio Palopo	4	Abril	2023-07-04T00:00:00	2024-11-08T22:00:00	2	Temperatura media	19.4
164006	7	Sololá	712	San Antonio Palopó	9	San Antonio Palopo	4	Abril	2023-07-04T00:00:00	2024-11-08T22:00:00	4	Temperatura máxima	20.2
164007	7	Sololá	712	San Antonio Palopó	9	San Antonio Palopo	4	Abril	2023-07-04T00:00:00	2024-11-08T22:00:00	3	Temperatura mínima	18.8
164008	7	Sololá	712	San Antonio Palopó	9	San Antonio Palopo	4	Abril	2023-07-04T00:00:00	2024-11-08T22:00:00	5	Humedad	69
164009	7	Sololá	712	San Antonio Palopó	9	San Antonio Palopo	4	Abril	2023-07-04T00:00:00	2024-11-08T22:00:00	6	Velocidad del viento	3.2
164010	7	Sololá	712	San Antonio Palopó	9	San Antonio Palopo	4	Abril	2023-07-04T00:00:00	2024-11-08T22:00:00	7	Dirección del viento	3.22
164011	7	Sololá	712	San Antonio Palopó	9	San Antonio Palopo	4	Abril	2023-07-04T00:00:00	2024-11-08T22:00:00	1	Precipitación	0
164012	7	Sololá	712	San Antonio Palopó	9	San Antonio Palopo	4	Abril	2023-07-04T00:00:00	2024-11-08T22:00:00	8	Radiación solar	0
164013	7	Sololá	712	San Antonio Palopó	9	San Antonio Palopo	4	Abril	2023-07-04T00:00:00	2024-11-08T23:00:00	2	Temperatura media	19.6
164014	7	Sololá	712	San Antonio Palopó	9	San Antonio Palopo	4	Abril	2023-07-04T00:00:00	2024-11-08T23:00:00	4	Temperatura máxima	19.7
164015	7	Sololá	712	San Antonio Palopó	9	San Antonio Palopo	4	Abril	2023-07-04T00:00:00	2024-11-08T23:00:00	3	Temperatura mínima	19.4
164016	7	Sololá	712	San Antonio Palopó	9	San Antonio Palopo	4	Abril	2023-07-04T00:00:00	2024-11-08T23:00:00	5	Humedad	69
164017	7	Sololá	712	San Antonio Palopó	9	San Antonio Palopo	4	Abril	2023-07-04T00:00:00	2024-11-08T23:00:00	6	Velocidad del viento	6.4
164018	7	Sololá	712	San Antonio Palopó	9	San Antonio Palopo	4	Abril	2023-07-04T00:00:00	2024-11-08T23:00:00	7	Dirección del viento	6.44
164019	7	Sololá	712	San Antonio Palopó	9	San Antonio Palopo	4	Abril	2023-07-04T00:00:00	2024-11-08T23:00:00	1	Precipitación	0
164020	7	Sololá	712	San Antonio Palopó	9	San Antonio Palopo	4	Abril	2023-07-04T00:00:00	2024-11-08T23:00:00	8	Radiación solar	0
164021	7	Sololá	712	San Antonio Palopó	9	San Antonio Palopo	4	Abril	2023-08-04T00:00:00	2024-11-08T00:00:00	2	Temperatura media	19.2
164022	7	Sololá	712	San Antonio Palopó	9	San Antonio Palopo	4	Abril	2023-08-04T00:00:00	2024-11-08T00:00:00	4	Temperatura máxima	19.6
164023	7	Sololá	712	San Antonio Palopó	9	San Antonio Palopo	4	Abril	2023-08-04T00:00:00	2024-11-08T00:00:00	3	Temperatura mínima	19
164024	7	Sololá	712	San Antonio Palopó	9	San Antonio Palopo	4	Abril	2023-08-04T00:00:00	2024-11-08T00:00:00	5	Humedad	70
164025	7	Sololá	712	San Antonio Palopó	9	San Antonio Palopo	4	Abril	2023-08-04T00:00:00	2024-11-08T00:00:00	6	Velocidad del viento	6.4
164026	7	Sololá	712	San Antonio Palopó	9	San Antonio Palopo	4	Abril	2023-08-04T00:00:00	2024-11-08T00:00:00	7	Dirección del viento	6.44
164027	7	Sololá	712	San Antonio Palopó	9	San Antonio Palopo	4	Abril	2023-08-04T00:00:00	2024-11-08T00:00:00	1	Precipitación	0
164028	7	Sololá	712	San Antonio Palopó	9	San Antonio Palopo	4	Abril	2023-08-04T00:00:00	2024-11-08T00:00:00	8	Radiación solar	0
164029	7	Sololá	712	San Antonio Palopó	9	San Antonio Palopo	4	Abril	2023-08-04T00:00:00	2024-11-08T01:00:00	2	Temperatura media	18.7
164030	7	Sololá	712	San Antonio Palopó	9	San Antonio Palopo	4	Abril	2023-08-04T00:00:00	2024-11-08T01:00:00	4	Temperatura máxima	19.2
164031	7	Sololá	712	San Antonio Palopó	9	San Antonio Palopo	4	Abril	2023-08-04T00:00:00	2024-11-08T01:00:00	3	Temperatura mínima	18.7
164032	7	Sololá	712	San Antonio Palopó	9	San Antonio Palopo	4	Abril	2023-08-04T00:00:00	2024-11-08T01:00:00	5	Humedad	70
164033	7	Sololá	712	San Antonio Palopó	9	San Antonio Palopo	4	Abril	2023-08-04T00:00:00	2024-11-08T01:00:00	6	Velocidad del viento	9.7
164034	7	Sololá	712	San Antonio Palopó	9	San Antonio Palopo	4	Abril	2023-08-04T00:00:00	2024-11-08T01:00:00	7	Dirección del viento	9.66
164035	7	Sololá	712	San Antonio Palopó	9	San Antonio Palopo	4	Abril	2023-08-04T00:00:00	2024-11-08T01:00:00	1	Precipitación	0
164036	7	Sololá	712	San Antonio Palopó	9	San Antonio Palopo	4	Abril	2023-08-04T00:00:00	2024-11-08T01:00:00	8	Radiación solar	0
164037	7	Sololá	712	San Antonio Palopó	9	San Antonio Palopo	4	Abril	2023-08-04T00:00:00	2024-11-08T02:00:00	2	Temperatura media	19.1
164038	7	Sololá	712	San Antonio Palopó	9	San Antonio Palopo	4	Abril	2023-08-04T00:00:00	2024-11-08T02:00:00	4	Temperatura máxima	19.1
164039	7	Sololá	712	San Antonio Palopó	9	San Antonio Palopo	4	Abril	2023-08-04T00:00:00	2024-11-08T02:00:00	3	Temperatura mínima	18.7
164040	7	Sololá	712	San Antonio Palopó	9	San Antonio Palopo	4	Abril	2023-08-04T00:00:00	2024-11-08T02:00:00	5	Humedad	69
164041	7	Sololá	712	San Antonio Palopó	9	San Antonio Palopo	4	Abril	2023-08-04T00:00:00	2024-11-08T02:00:00	6	Velocidad del viento	9.7
164042	7	Sololá	712	San Antonio Palopó	9	San Antonio Palopo	4	Abril	2023-08-04T00:00:00	2024-11-08T02:00:00	7	Dirección del viento	9.66
164043	7	Sololá	712	San Antonio Palopó	9	San Antonio Palopo	4	Abril	2023-08-04T00:00:00	2024-11-08T02:00:00	1	Precipitación	0
164044	7	Sololá	712	San Antonio Palopó	9	San Antonio Palopo	4	Abril	2023-08-04T00:00:00	2024-11-08T02:00:00	8	Radiación solar	0
164045	7	Sololá	712	San Antonio Palopó	9	San Antonio Palopo	4	Abril	2023-08-04T00:00:00	2024-11-08T03:00:00	2	Temperatura media	17.9
164046	7	Sololá	712	San Antonio Palopó	9	San Antonio Palopo	4	Abril	2023-08-04T00:00:00	2024-11-08T03:00:00	4	Temperatura máxima	19.1
164047	7	Sololá	712	San Antonio Palopó	9	San Antonio Palopo	4	Abril	2023-08-04T00:00:00	2024-11-08T03:00:00	3	Temperatura mínima	17.9
164048	7	Sololá	712	San Antonio Palopó	9	San Antonio Palopo	4	Abril	2023-08-04T00:00:00	2024-11-08T03:00:00	5	Humedad	71
164049	7	Sololá	712	San Antonio Palopó	9	San Antonio Palopo	4	Abril	2023-08-04T00:00:00	2024-11-08T03:00:00	6	Velocidad del viento	14.5
164050	7	Sololá	712	San Antonio Palopó	9	San Antonio Palopo	4	Abril	2023-08-04T00:00:00	2024-11-08T03:00:00	7	Dirección del viento	14.48
164051	7	Sololá	712	San Antonio Palopó	9	San Antonio Palopo	4	Abril	2023-08-04T00:00:00	2024-11-08T03:00:00	1	Precipitación	0
164052	7	Sololá	712	San Antonio Palopó	9	San Antonio Palopo	4	Abril	2023-08-04T00:00:00	2024-11-08T03:00:00	8	Radiación solar	0
164053	7	Sololá	712	San Antonio Palopó	9	San Antonio Palopo	4	Abril	2023-08-04T00:00:00	2024-11-08T04:00:00	2	Temperatura media	17.6
164054	7	Sololá	712	San Antonio Palopó	9	San Antonio Palopo	4	Abril	2023-08-04T00:00:00	2024-11-08T04:00:00	4	Temperatura máxima	18
164055	7	Sololá	712	San Antonio Palopó	9	San Antonio Palopo	4	Abril	2023-08-04T00:00:00	2024-11-08T04:00:00	3	Temperatura mínima	17.5
164056	7	Sololá	712	San Antonio Palopó	9	San Antonio Palopo	4	Abril	2023-08-04T00:00:00	2024-11-08T04:00:00	5	Humedad	71
164057	7	Sololá	712	San Antonio Palopó	9	San Antonio Palopo	4	Abril	2023-08-04T00:00:00	2024-11-08T04:00:00	6	Velocidad del viento	16.1
164058	7	Sololá	712	San Antonio Palopó	9	San Antonio Palopo	4	Abril	2023-08-04T00:00:00	2024-11-08T04:00:00	7	Dirección del viento	16.09
164059	7	Sololá	712	San Antonio Palopó	9	San Antonio Palopo	4	Abril	2023-08-04T00:00:00	2024-11-08T04:00:00	1	Precipitación	0
164060	7	Sololá	712	San Antonio Palopó	9	San Antonio Palopo	4	Abril	2023-08-04T00:00:00	2024-11-08T04:00:00	8	Radiación solar	0
164061	7	Sololá	712	San Antonio Palopó	9	San Antonio Palopo	4	Abril	2023-08-04T00:00:00	2024-11-08T05:00:00	2	Temperatura media	16.8
164062	7	Sololá	712	San Antonio Palopó	9	San Antonio Palopo	4	Abril	2023-08-04T00:00:00	2024-11-08T05:00:00	4	Temperatura máxima	17.6
164063	7	Sololá	712	San Antonio Palopó	9	San Antonio Palopo	4	Abril	2023-08-04T00:00:00	2024-11-08T05:00:00	3	Temperatura mínima	16.8
164064	7	Sololá	712	San Antonio Palopó	9	San Antonio Palopo	4	Abril	2023-08-04T00:00:00	2024-11-08T05:00:00	5	Humedad	73
164065	7	Sololá	712	San Antonio Palopó	9	San Antonio Palopo	4	Abril	2023-08-04T00:00:00	2024-11-08T05:00:00	6	Velocidad del viento	16.1
164066	7	Sololá	712	San Antonio Palopó	9	San Antonio Palopo	4	Abril	2023-08-04T00:00:00	2024-11-08T05:00:00	7	Dirección del viento	16.09
164067	7	Sololá	712	San Antonio Palopó	9	San Antonio Palopo	4	Abril	2023-08-04T00:00:00	2024-11-08T05:00:00	1	Precipitación	0
164068	7	Sololá	712	San Antonio Palopó	9	San Antonio Palopo	4	Abril	2023-08-04T00:00:00	2024-11-08T05:00:00	8	Radiación solar	0
164069	7	Sololá	712	San Antonio Palopó	9	San Antonio Palopo	4	Abril	2023-08-04T00:00:00	2024-11-08T06:00:00	2	Temperatura media	16.7
164070	7	Sololá	712	San Antonio Palopó	9	San Antonio Palopo	4	Abril	2023-08-04T00:00:00	2024-11-08T06:00:00	4	Temperatura máxima	16.9
164071	7	Sololá	712	San Antonio Palopó	9	San Antonio Palopo	4	Abril	2023-08-04T00:00:00	2024-11-08T06:00:00	3	Temperatura mínima	16.6
164072	7	Sololá	712	San Antonio Palopó	9	San Antonio Palopo	4	Abril	2023-08-04T00:00:00	2024-11-08T06:00:00	5	Humedad	73
164073	7	Sololá	712	San Antonio Palopó	9	San Antonio Palopo	4	Abril	2023-08-04T00:00:00	2024-11-08T06:00:00	6	Velocidad del viento	6.4
164074	7	Sololá	712	San Antonio Palopó	9	San Antonio Palopo	4	Abril	2023-08-04T00:00:00	2024-11-08T06:00:00	7	Dirección del viento	6.44
164075	7	Sololá	712	San Antonio Palopó	9	San Antonio Palopo	4	Abril	2023-08-04T00:00:00	2024-11-08T06:00:00	1	Precipitación	0
164076	7	Sololá	712	San Antonio Palopó	9	San Antonio Palopo	4	Abril	2023-08-04T00:00:00	2024-11-08T06:00:00	8	Radiación solar	0
164077	7	Sololá	712	San Antonio Palopó	9	San Antonio Palopo	4	Abril	2023-08-04T00:00:00	2024-11-08T07:00:00	2	Temperatura media	17.1
164078	7	Sololá	712	San Antonio Palopó	9	San Antonio Palopo	4	Abril	2023-08-04T00:00:00	2024-11-08T07:00:00	4	Temperatura máxima	17.1
164079	7	Sololá	712	San Antonio Palopó	9	San Antonio Palopo	4	Abril	2023-08-04T00:00:00	2024-11-08T07:00:00	3	Temperatura mínima	16.7
164080	7	Sololá	712	San Antonio Palopó	9	San Antonio Palopo	4	Abril	2023-08-04T00:00:00	2024-11-08T07:00:00	5	Humedad	71
164081	7	Sololá	712	San Antonio Palopó	9	San Antonio Palopo	4	Abril	2023-08-04T00:00:00	2024-11-08T07:00:00	6	Velocidad del viento	6.4
164082	7	Sololá	712	San Antonio Palopó	9	San Antonio Palopo	4	Abril	2023-08-04T00:00:00	2024-11-08T07:00:00	7	Dirección del viento	6.44
164083	7	Sololá	712	San Antonio Palopó	9	San Antonio Palopo	4	Abril	2023-08-04T00:00:00	2024-11-08T07:00:00	1	Precipitación	0
164084	7	Sololá	712	San Antonio Palopó	9	San Antonio Palopo	4	Abril	2023-08-04T00:00:00	2024-11-08T07:00:00	8	Radiación solar	18
164085	7	Sololá	712	San Antonio Palopó	9	San Antonio Palopo	4	Abril	2023-08-04T00:00:00	2024-11-08T08:00:00	2	Temperatura media	19.2
164086	7	Sololá	712	San Antonio Palopó	9	San Antonio Palopo	4	Abril	2023-08-04T00:00:00	2024-11-08T08:00:00	4	Temperatura máxima	19.2
164087	7	Sololá	712	San Antonio Palopó	9	San Antonio Palopo	4	Abril	2023-08-04T00:00:00	2024-11-08T08:00:00	3	Temperatura mínima	17.1
164088	7	Sololá	712	San Antonio Palopó	9	San Antonio Palopo	4	Abril	2023-08-04T00:00:00	2024-11-08T08:00:00	5	Humedad	68
164089	7	Sololá	712	San Antonio Palopó	9	San Antonio Palopo	4	Abril	2023-08-04T00:00:00	2024-11-08T08:00:00	6	Velocidad del viento	3.2
164090	7	Sololá	712	San Antonio Palopó	9	San Antonio Palopo	4	Abril	2023-08-04T00:00:00	2024-11-08T08:00:00	7	Dirección del viento	3.22
164091	7	Sololá	712	San Antonio Palopó	9	San Antonio Palopo	4	Abril	2023-08-04T00:00:00	2024-11-08T08:00:00	1	Precipitación	0
164092	7	Sololá	712	San Antonio Palopó	9	San Antonio Palopo	4	Abril	2023-08-04T00:00:00	2024-11-08T08:00:00	8	Radiación solar	108
164093	7	Sololá	712	San Antonio Palopó	9	San Antonio Palopo	4	Abril	2023-08-04T00:00:00	2024-11-08T09:00:00	2	Temperatura media	20
164094	7	Sololá	712	San Antonio Palopó	9	San Antonio Palopo	4	Abril	2023-08-04T00:00:00	2024-11-08T09:00:00	4	Temperatura máxima	20.9
164095	7	Sololá	712	San Antonio Palopó	9	San Antonio Palopo	4	Abril	2023-08-04T00:00:00	2024-11-08T09:00:00	3	Temperatura mínima	19.2
164096	7	Sololá	712	San Antonio Palopó	9	San Antonio Palopo	4	Abril	2023-08-04T00:00:00	2024-11-08T09:00:00	5	Humedad	66
164097	7	Sololá	712	San Antonio Palopó	9	San Antonio Palopo	4	Abril	2023-08-04T00:00:00	2024-11-08T09:00:00	6	Velocidad del viento	1.6
164098	7	Sololá	712	San Antonio Palopó	9	San Antonio Palopo	4	Abril	2023-08-04T00:00:00	2024-11-08T09:00:00	7	Dirección del viento	1.61
164099	7	Sololá	712	San Antonio Palopó	9	San Antonio Palopo	4	Abril	2023-08-04T00:00:00	2024-11-08T09:00:00	1	Precipitación	0
164100	7	Sololá	712	San Antonio Palopó	9	San Antonio Palopo	4	Abril	2023-08-04T00:00:00	2024-11-08T09:00:00	8	Radiación solar	440
164101	7	Sololá	712	San Antonio Palopó	9	San Antonio Palopo	4	Abril	2023-08-04T00:00:00	2024-11-08T10:00:00	2	Temperatura media	21.1
164102	7	Sololá	712	San Antonio Palopó	9	San Antonio Palopo	4	Abril	2023-08-04T00:00:00	2024-11-08T10:00:00	4	Temperatura máxima	21.1
164103	7	Sololá	712	San Antonio Palopó	9	San Antonio Palopo	4	Abril	2023-08-04T00:00:00	2024-11-08T10:00:00	3	Temperatura mínima	19.9
164104	7	Sololá	712	San Antonio Palopó	9	San Antonio Palopo	4	Abril	2023-08-04T00:00:00	2024-11-08T10:00:00	5	Humedad	64
164105	7	Sololá	712	San Antonio Palopó	9	San Antonio Palopo	4	Abril	2023-08-04T00:00:00	2024-11-08T10:00:00	6	Velocidad del viento	3.2
164106	7	Sololá	712	San Antonio Palopó	9	San Antonio Palopo	4	Abril	2023-08-04T00:00:00	2024-11-08T10:00:00	7	Dirección del viento	3.22
164107	7	Sololá	712	San Antonio Palopó	9	San Antonio Palopo	4	Abril	2023-08-04T00:00:00	2024-11-08T10:00:00	1	Precipitación	0
164108	7	Sololá	712	San Antonio Palopó	9	San Antonio Palopo	4	Abril	2023-08-04T00:00:00	2024-11-08T10:00:00	8	Radiación solar	566
164109	7	Sololá	712	San Antonio Palopó	9	San Antonio Palopo	4	Abril	2023-08-04T00:00:00	2024-11-08T11:00:00	2	Temperatura media	21.7
164110	7	Sololá	712	San Antonio Palopó	9	San Antonio Palopo	4	Abril	2023-08-04T00:00:00	2024-11-08T11:00:00	4	Temperatura máxima	21.9
164111	7	Sololá	712	San Antonio Palopó	9	San Antonio Palopo	4	Abril	2023-08-04T00:00:00	2024-11-08T11:00:00	3	Temperatura mínima	21.1
164112	7	Sololá	712	San Antonio Palopó	9	San Antonio Palopo	4	Abril	2023-08-04T00:00:00	2024-11-08T11:00:00	5	Humedad	67
164113	7	Sololá	712	San Antonio Palopó	9	San Antonio Palopo	4	Abril	2023-08-04T00:00:00	2024-11-08T11:00:00	6	Velocidad del viento	3.2
164114	7	Sololá	712	San Antonio Palopó	9	San Antonio Palopo	4	Abril	2023-08-04T00:00:00	2024-11-08T11:00:00	7	Dirección del viento	3.22
164115	7	Sololá	712	San Antonio Palopó	9	San Antonio Palopo	4	Abril	2023-08-04T00:00:00	2024-11-08T11:00:00	1	Precipitación	0
164116	7	Sololá	712	San Antonio Palopó	9	San Antonio Palopo	4	Abril	2023-08-04T00:00:00	2024-11-08T11:00:00	8	Radiación solar	799
164117	7	Sololá	712	San Antonio Palopó	9	San Antonio Palopo	4	Abril	2023-08-04T00:00:00	2024-11-08T12:00:00	2	Temperatura media	22.7
164118	7	Sololá	712	San Antonio Palopó	9	San Antonio Palopo	4	Abril	2023-08-04T00:00:00	2024-11-08T12:00:00	4	Temperatura máxima	22.7
164119	7	Sololá	712	San Antonio Palopó	9	San Antonio Palopo	4	Abril	2023-08-04T00:00:00	2024-11-08T12:00:00	3	Temperatura mínima	21.7
164120	7	Sololá	712	San Antonio Palopó	9	San Antonio Palopo	4	Abril	2023-08-04T00:00:00	2024-11-08T12:00:00	5	Humedad	68
164121	7	Sololá	712	San Antonio Palopó	9	San Antonio Palopo	4	Abril	2023-08-04T00:00:00	2024-11-08T12:00:00	6	Velocidad del viento	9.7
164122	7	Sololá	712	San Antonio Palopó	9	San Antonio Palopo	4	Abril	2023-08-04T00:00:00	2024-11-08T12:00:00	7	Dirección del viento	9.66
164123	7	Sololá	712	San Antonio Palopó	9	San Antonio Palopo	4	Abril	2023-08-04T00:00:00	2024-11-08T12:00:00	1	Precipitación	0
164124	7	Sololá	712	San Antonio Palopó	9	San Antonio Palopo	4	Abril	2023-08-04T00:00:00	2024-11-08T12:00:00	8	Radiación solar	962
164125	7	Sololá	712	San Antonio Palopó	9	San Antonio Palopo	4	Abril	2023-08-04T00:00:00	2024-11-08T13:00:00	2	Temperatura media	23.3
164126	7	Sololá	712	San Antonio Palopó	9	San Antonio Palopo	4	Abril	2023-08-04T00:00:00	2024-11-08T13:00:00	4	Temperatura máxima	23.3
164127	7	Sololá	712	San Antonio Palopó	9	San Antonio Palopo	4	Abril	2023-08-04T00:00:00	2024-11-08T13:00:00	3	Temperatura mínima	22.7
164128	7	Sololá	712	San Antonio Palopó	9	San Antonio Palopo	4	Abril	2023-08-04T00:00:00	2024-11-08T13:00:00	5	Humedad	68
164129	7	Sololá	712	San Antonio Palopó	9	San Antonio Palopo	4	Abril	2023-08-04T00:00:00	2024-11-08T13:00:00	6	Velocidad del viento	9.7
164130	7	Sololá	712	San Antonio Palopó	9	San Antonio Palopo	4	Abril	2023-08-04T00:00:00	2024-11-08T13:00:00	7	Dirección del viento	9.66
164131	7	Sololá	712	San Antonio Palopó	9	San Antonio Palopo	4	Abril	2023-08-04T00:00:00	2024-11-08T13:00:00	1	Precipitación	0
164132	7	Sololá	712	San Antonio Palopó	9	San Antonio Palopo	4	Abril	2023-08-04T00:00:00	2024-11-08T13:00:00	8	Radiación solar	952
164133	7	Sololá	712	San Antonio Palopó	9	San Antonio Palopo	4	Abril	2023-08-04T00:00:00	2024-11-08T14:00:00	2	Temperatura media	23.9
164134	7	Sololá	712	San Antonio Palopó	9	San Antonio Palopo	4	Abril	2023-08-04T00:00:00	2024-11-08T14:00:00	4	Temperatura máxima	23.9
164135	7	Sololá	712	San Antonio Palopó	9	San Antonio Palopo	4	Abril	2023-08-04T00:00:00	2024-11-08T14:00:00	3	Temperatura mínima	22.9
164136	7	Sololá	712	San Antonio Palopó	9	San Antonio Palopo	4	Abril	2023-08-04T00:00:00	2024-11-08T14:00:00	5	Humedad	67
164137	7	Sololá	712	San Antonio Palopó	9	San Antonio Palopo	4	Abril	2023-08-04T00:00:00	2024-11-08T14:00:00	6	Velocidad del viento	8
164138	7	Sololá	712	San Antonio Palopó	9	San Antonio Palopo	4	Abril	2023-08-04T00:00:00	2024-11-08T14:00:00	7	Dirección del viento	8.05
164139	7	Sololá	712	San Antonio Palopó	9	San Antonio Palopo	4	Abril	2023-08-04T00:00:00	2024-11-08T14:00:00	1	Precipitación	0
164140	7	Sololá	712	San Antonio Palopó	9	San Antonio Palopo	4	Abril	2023-08-04T00:00:00	2024-11-08T14:00:00	8	Radiación solar	906
164141	7	Sololá	712	San Antonio Palopó	9	San Antonio Palopo	4	Abril	2023-08-04T00:00:00	2024-11-08T15:00:00	2	Temperatura media	22.8
164142	7	Sololá	712	San Antonio Palopó	9	San Antonio Palopo	4	Abril	2023-08-04T00:00:00	2024-11-08T15:00:00	4	Temperatura máxima	23.9
164143	7	Sololá	712	San Antonio Palopó	9	San Antonio Palopo	4	Abril	2023-08-04T00:00:00	2024-11-08T15:00:00	3	Temperatura mínima	22.8
164144	7	Sololá	712	San Antonio Palopó	9	San Antonio Palopo	4	Abril	2023-08-04T00:00:00	2024-11-08T15:00:00	5	Humedad	72
164145	7	Sololá	712	San Antonio Palopó	9	San Antonio Palopo	4	Abril	2023-08-04T00:00:00	2024-11-08T15:00:00	6	Velocidad del viento	9.7
164146	7	Sololá	712	San Antonio Palopó	9	San Antonio Palopo	4	Abril	2023-08-04T00:00:00	2024-11-08T15:00:00	7	Dirección del viento	9.66
164147	7	Sololá	712	San Antonio Palopó	9	San Antonio Palopo	4	Abril	2023-08-04T00:00:00	2024-11-08T15:00:00	1	Precipitación	0
164148	7	Sololá	712	San Antonio Palopó	9	San Antonio Palopo	4	Abril	2023-08-04T00:00:00	2024-11-08T15:00:00	8	Radiación solar	757
164149	7	Sololá	712	San Antonio Palopó	9	San Antonio Palopo	4	Abril	2023-08-04T00:00:00	2024-11-08T16:00:00	2	Temperatura media	22.6
164150	7	Sololá	712	San Antonio Palopó	9	San Antonio Palopo	4	Abril	2023-08-04T00:00:00	2024-11-08T16:00:00	4	Temperatura máxima	22.9
164151	7	Sololá	712	San Antonio Palopó	9	San Antonio Palopo	4	Abril	2023-08-04T00:00:00	2024-11-08T16:00:00	3	Temperatura mínima	22.3
164152	7	Sololá	712	San Antonio Palopó	9	San Antonio Palopo	4	Abril	2023-08-04T00:00:00	2024-11-08T16:00:00	5	Humedad	74
164153	7	Sololá	712	San Antonio Palopó	9	San Antonio Palopo	4	Abril	2023-08-04T00:00:00	2024-11-08T16:00:00	6	Velocidad del viento	8
164154	7	Sololá	712	San Antonio Palopó	9	San Antonio Palopo	4	Abril	2023-08-04T00:00:00	2024-11-08T16:00:00	7	Dirección del viento	8.05
164155	7	Sololá	712	San Antonio Palopó	9	San Antonio Palopo	4	Abril	2023-08-04T00:00:00	2024-11-08T16:00:00	1	Precipitación	0
164156	7	Sololá	712	San Antonio Palopó	9	San Antonio Palopo	4	Abril	2023-08-04T00:00:00	2024-11-08T16:00:00	8	Radiación solar	385
164157	7	Sololá	712	San Antonio Palopó	9	San Antonio Palopo	4	Abril	2023-08-04T00:00:00	2024-11-08T17:00:00	2	Temperatura media	22.1
164158	7	Sololá	712	San Antonio Palopó	9	San Antonio Palopo	4	Abril	2023-08-04T00:00:00	2024-11-08T17:00:00	4	Temperatura máxima	23
164159	7	Sololá	712	San Antonio Palopó	9	San Antonio Palopo	4	Abril	2023-08-04T00:00:00	2024-11-08T17:00:00	3	Temperatura mínima	21.8
164160	7	Sololá	712	San Antonio Palopó	9	San Antonio Palopo	4	Abril	2023-08-04T00:00:00	2024-11-08T17:00:00	5	Humedad	77
164161	7	Sololá	712	San Antonio Palopó	9	San Antonio Palopo	4	Abril	2023-08-04T00:00:00	2024-11-08T17:00:00	6	Velocidad del viento	8
164162	7	Sololá	712	San Antonio Palopó	9	San Antonio Palopo	4	Abril	2023-08-04T00:00:00	2024-11-08T17:00:00	7	Dirección del viento	8.05
164163	7	Sololá	712	San Antonio Palopó	9	San Antonio Palopo	4	Abril	2023-08-04T00:00:00	2024-11-08T17:00:00	1	Precipitación	0
164164	7	Sololá	712	San Antonio Palopó	9	San Antonio Palopo	4	Abril	2023-08-04T00:00:00	2024-11-08T17:00:00	8	Radiación solar	314
164165	7	Sololá	712	San Antonio Palopó	9	San Antonio Palopo	4	Abril	2023-08-04T00:00:00	2024-11-08T18:00:00	2	Temperatura media	21.1
164166	7	Sololá	712	San Antonio Palopó	9	San Antonio Palopo	4	Abril	2023-08-04T00:00:00	2024-11-08T18:00:00	4	Temperatura máxima	22.4
164167	7	Sololá	712	San Antonio Palopó	9	San Antonio Palopo	4	Abril	2023-08-04T00:00:00	2024-11-08T18:00:00	3	Temperatura mínima	21.1
164168	7	Sololá	712	San Antonio Palopó	9	San Antonio Palopo	4	Abril	2023-08-04T00:00:00	2024-11-08T18:00:00	5	Humedad	79
164169	7	Sololá	712	San Antonio Palopó	9	San Antonio Palopo	4	Abril	2023-08-04T00:00:00	2024-11-08T18:00:00	6	Velocidad del viento	6.4
164170	7	Sololá	712	San Antonio Palopó	9	San Antonio Palopo	4	Abril	2023-08-04T00:00:00	2024-11-08T18:00:00	7	Dirección del viento	6.44
164171	7	Sololá	712	San Antonio Palopó	9	San Antonio Palopo	4	Abril	2023-08-04T00:00:00	2024-11-08T18:00:00	1	Precipitación	0
164172	7	Sololá	712	San Antonio Palopó	9	San Antonio Palopo	4	Abril	2023-08-04T00:00:00	2024-11-08T18:00:00	8	Radiación solar	116
164173	7	Sololá	712	San Antonio Palopó	9	San Antonio Palopo	4	Abril	2023-08-04T00:00:00	2024-11-08T19:00:00	2	Temperatura media	20.2
164174	7	Sololá	712	San Antonio Palopó	9	San Antonio Palopo	4	Abril	2023-08-04T00:00:00	2024-11-08T19:00:00	4	Temperatura máxima	21.1
164175	7	Sololá	712	San Antonio Palopó	9	San Antonio Palopo	4	Abril	2023-08-04T00:00:00	2024-11-08T19:00:00	3	Temperatura mínima	20.2
164176	7	Sololá	712	San Antonio Palopó	9	San Antonio Palopo	4	Abril	2023-08-04T00:00:00	2024-11-08T19:00:00	5	Humedad	75
164177	7	Sololá	712	San Antonio Palopó	9	San Antonio Palopo	4	Abril	2023-08-04T00:00:00	2024-11-08T19:00:00	6	Velocidad del viento	4.8
164178	7	Sololá	712	San Antonio Palopó	9	San Antonio Palopo	4	Abril	2023-08-04T00:00:00	2024-11-08T19:00:00	7	Dirección del viento	4.83
164179	7	Sololá	712	San Antonio Palopó	9	San Antonio Palopo	4	Abril	2023-08-04T00:00:00	2024-11-08T19:00:00	1	Precipitación	0
164180	7	Sololá	712	San Antonio Palopó	9	San Antonio Palopo	4	Abril	2023-08-04T00:00:00	2024-11-08T19:00:00	8	Radiación solar	0
164181	7	Sololá	712	San Antonio Palopó	9	San Antonio Palopo	4	Abril	2023-08-04T00:00:00	2024-11-08T20:00:00	2	Temperatura media	19.7
164182	7	Sololá	712	San Antonio Palopó	9	San Antonio Palopo	4	Abril	2023-08-04T00:00:00	2024-11-08T20:00:00	4	Temperatura máxima	20.2
164183	7	Sololá	712	San Antonio Palopó	9	San Antonio Palopo	4	Abril	2023-08-04T00:00:00	2024-11-08T20:00:00	3	Temperatura mínima	19.7
164184	7	Sololá	712	San Antonio Palopó	9	San Antonio Palopo	4	Abril	2023-08-04T00:00:00	2024-11-08T20:00:00	5	Humedad	59
164185	7	Sololá	712	San Antonio Palopó	9	San Antonio Palopo	4	Abril	2023-08-04T00:00:00	2024-11-08T20:00:00	6	Velocidad del viento	4.8
164186	7	Sololá	712	San Antonio Palopó	9	San Antonio Palopo	4	Abril	2023-08-04T00:00:00	2024-11-08T20:00:00	7	Dirección del viento	4.83
164187	7	Sololá	712	San Antonio Palopó	9	San Antonio Palopo	4	Abril	2023-08-04T00:00:00	2024-11-08T20:00:00	1	Precipitación	0
164188	7	Sololá	712	San Antonio Palopó	9	San Antonio Palopo	4	Abril	2023-08-04T00:00:00	2024-11-08T20:00:00	8	Radiación solar	0
164189	7	Sololá	712	San Antonio Palopó	9	San Antonio Palopo	4	Abril	2023-08-04T00:00:00	2024-11-08T21:00:00	2	Temperatura media	19.1
164190	7	Sololá	712	San Antonio Palopó	9	San Antonio Palopo	4	Abril	2023-08-04T00:00:00	2024-11-08T21:00:00	4	Temperatura máxima	19.8
164191	7	Sololá	712	San Antonio Palopó	9	San Antonio Palopo	4	Abril	2023-08-04T00:00:00	2024-11-08T21:00:00	3	Temperatura mínima	19
164192	7	Sololá	712	San Antonio Palopó	9	San Antonio Palopo	4	Abril	2023-08-04T00:00:00	2024-11-08T21:00:00	5	Humedad	60
164193	7	Sololá	712	San Antonio Palopó	9	San Antonio Palopo	4	Abril	2023-08-04T00:00:00	2024-11-08T21:00:00	6	Velocidad del viento	6.4
164194	7	Sololá	712	San Antonio Palopó	9	San Antonio Palopo	4	Abril	2023-08-04T00:00:00	2024-11-08T21:00:00	7	Dirección del viento	6.44
164195	7	Sololá	712	San Antonio Palopó	9	San Antonio Palopo	4	Abril	2023-08-04T00:00:00	2024-11-08T21:00:00	1	Precipitación	0
164196	7	Sololá	712	San Antonio Palopó	9	San Antonio Palopo	4	Abril	2023-08-04T00:00:00	2024-11-08T21:00:00	8	Radiación solar	0
164197	7	Sololá	712	San Antonio Palopó	9	San Antonio Palopo	4	Abril	2023-08-04T00:00:00	2024-11-08T22:00:00	2	Temperatura media	18.3
164198	7	Sololá	712	San Antonio Palopó	9	San Antonio Palopo	4	Abril	2023-08-04T00:00:00	2024-11-08T22:00:00	4	Temperatura máxima	19.1
164199	7	Sololá	712	San Antonio Palopó	9	San Antonio Palopo	4	Abril	2023-08-04T00:00:00	2024-11-08T22:00:00	3	Temperatura mínima	18.3
164200	7	Sololá	712	San Antonio Palopó	9	San Antonio Palopo	4	Abril	2023-08-04T00:00:00	2024-11-08T22:00:00	5	Humedad	59
164201	7	Sololá	712	San Antonio Palopó	9	San Antonio Palopo	4	Abril	2023-08-04T00:00:00	2024-11-08T22:00:00	6	Velocidad del viento	9.7
164202	7	Sololá	712	San Antonio Palopó	9	San Antonio Palopo	4	Abril	2023-08-04T00:00:00	2024-11-08T22:00:00	7	Dirección del viento	9.66
164203	7	Sololá	712	San Antonio Palopó	9	San Antonio Palopo	4	Abril	2023-08-04T00:00:00	2024-11-08T22:00:00	1	Precipitación	0
164204	7	Sololá	712	San Antonio Palopó	9	San Antonio Palopo	4	Abril	2023-08-04T00:00:00	2024-11-08T22:00:00	8	Radiación solar	0
164205	7	Sololá	712	San Antonio Palopó	9	San Antonio Palopo	4	Abril	2023-08-04T00:00:00	2024-11-08T23:00:00	2	Temperatura media	17.3
164206	7	Sololá	712	San Antonio Palopó	9	San Antonio Palopo	4	Abril	2023-08-04T00:00:00	2024-11-08T23:00:00	4	Temperatura máxima	18.4
164207	7	Sololá	712	San Antonio Palopó	9	San Antonio Palopo	4	Abril	2023-08-04T00:00:00	2024-11-08T23:00:00	3	Temperatura mínima	17.3
164208	7	Sololá	712	San Antonio Palopó	9	San Antonio Palopo	4	Abril	2023-08-04T00:00:00	2024-11-08T23:00:00	5	Humedad	62
164209	7	Sololá	712	San Antonio Palopó	9	San Antonio Palopo	4	Abril	2023-08-04T00:00:00	2024-11-08T23:00:00	6	Velocidad del viento	8
164210	7	Sololá	712	San Antonio Palopó	9	San Antonio Palopo	4	Abril	2023-08-04T00:00:00	2024-11-08T23:00:00	7	Dirección del viento	8.05
164211	7	Sololá	712	San Antonio Palopó	9	San Antonio Palopo	4	Abril	2023-08-04T00:00:00	2024-11-08T23:00:00	1	Precipitación	0
164212	7	Sololá	712	San Antonio Palopó	9	San Antonio Palopo	4	Abril	2023-08-04T00:00:00	2024-11-08T23:00:00	8	Radiación solar	0
164213	7	Sololá	712	San Antonio Palopó	9	San Antonio Palopo	4	Abril	2023-09-04T00:00:00	2024-11-08T00:00:00	2	Temperatura media	17.2
164214	7	Sololá	712	San Antonio Palopó	9	San Antonio Palopo	4	Abril	2023-09-04T00:00:00	2024-11-08T00:00:00	4	Temperatura máxima	17.6
164215	7	Sololá	712	San Antonio Palopó	9	San Antonio Palopo	4	Abril	2023-09-04T00:00:00	2024-11-08T00:00:00	3	Temperatura mínima	17.1
164216	7	Sololá	712	San Antonio Palopó	9	San Antonio Palopo	4	Abril	2023-09-04T00:00:00	2024-11-08T00:00:00	5	Humedad	59
164217	7	Sololá	712	San Antonio Palopó	9	San Antonio Palopo	4	Abril	2023-09-04T00:00:00	2024-11-08T00:00:00	6	Velocidad del viento	6.4
164218	7	Sololá	712	San Antonio Palopó	9	San Antonio Palopo	4	Abril	2023-09-04T00:00:00	2024-11-08T00:00:00	7	Dirección del viento	6.44
164219	7	Sololá	712	San Antonio Palopó	9	San Antonio Palopo	4	Abril	2023-09-04T00:00:00	2024-11-08T00:00:00	1	Precipitación	0
164220	7	Sololá	712	San Antonio Palopó	9	San Antonio Palopo	4	Abril	2023-09-04T00:00:00	2024-11-08T00:00:00	8	Radiación solar	0
164221	7	Sololá	712	San Antonio Palopó	9	San Antonio Palopo	4	Abril	2023-09-04T00:00:00	2024-11-08T01:00:00	2	Temperatura media	16.9
164222	7	Sololá	712	San Antonio Palopó	9	San Antonio Palopo	4	Abril	2023-09-04T00:00:00	2024-11-08T01:00:00	4	Temperatura máxima	17.2
164223	7	Sololá	712	San Antonio Palopó	9	San Antonio Palopo	4	Abril	2023-09-04T00:00:00	2024-11-08T01:00:00	3	Temperatura mínima	16.7
164224	7	Sololá	712	San Antonio Palopó	9	San Antonio Palopo	4	Abril	2023-09-04T00:00:00	2024-11-08T01:00:00	5	Humedad	59
164225	7	Sololá	712	San Antonio Palopó	9	San Antonio Palopo	4	Abril	2023-09-04T00:00:00	2024-11-08T01:00:00	6	Velocidad del viento	6.4
164226	7	Sololá	712	San Antonio Palopó	9	San Antonio Palopo	4	Abril	2023-09-04T00:00:00	2024-11-08T01:00:00	7	Dirección del viento	6.44
164227	7	Sololá	712	San Antonio Palopó	9	San Antonio Palopo	4	Abril	2023-09-04T00:00:00	2024-11-08T01:00:00	1	Precipitación	0
164228	7	Sololá	712	San Antonio Palopó	9	San Antonio Palopo	4	Abril	2023-09-04T00:00:00	2024-11-08T01:00:00	8	Radiación solar	0
164229	7	Sololá	712	San Antonio Palopó	9	San Antonio Palopo	4	Abril	2023-09-04T00:00:00	2024-11-08T02:00:00	2	Temperatura media	17.1
164230	7	Sololá	712	San Antonio Palopó	9	San Antonio Palopo	4	Abril	2023-09-04T00:00:00	2024-11-08T02:00:00	4	Temperatura máxima	17.1
164231	7	Sololá	712	San Antonio Palopó	9	San Antonio Palopo	4	Abril	2023-09-04T00:00:00	2024-11-08T02:00:00	3	Temperatura mínima	16.8
164232	7	Sololá	712	San Antonio Palopó	9	San Antonio Palopo	4	Abril	2023-09-04T00:00:00	2024-11-08T02:00:00	5	Humedad	62
164233	7	Sololá	712	San Antonio Palopó	9	San Antonio Palopo	4	Abril	2023-09-04T00:00:00	2024-11-08T02:00:00	6	Velocidad del viento	6.4
164234	7	Sololá	712	San Antonio Palopó	9	San Antonio Palopo	4	Abril	2023-09-04T00:00:00	2024-11-08T02:00:00	7	Dirección del viento	6.44
164235	7	Sololá	712	San Antonio Palopó	9	San Antonio Palopo	4	Abril	2023-09-04T00:00:00	2024-11-08T02:00:00	1	Precipitación	0
164236	7	Sololá	712	San Antonio Palopó	9	San Antonio Palopo	4	Abril	2023-09-04T00:00:00	2024-11-08T02:00:00	8	Radiación solar	0
164237	7	Sololá	712	San Antonio Palopó	9	San Antonio Palopo	4	Abril	2023-09-04T00:00:00	2024-11-08T03:00:00	2	Temperatura media	16.2
164238	7	Sololá	712	San Antonio Palopó	9	San Antonio Palopo	4	Abril	2023-09-04T00:00:00	2024-11-08T03:00:00	4	Temperatura máxima	17.1
164239	7	Sololá	712	San Antonio Palopó	9	San Antonio Palopo	4	Abril	2023-09-04T00:00:00	2024-11-08T03:00:00	3	Temperatura mínima	16.2
164240	7	Sololá	712	San Antonio Palopó	9	San Antonio Palopo	4	Abril	2023-09-04T00:00:00	2024-11-08T03:00:00	5	Humedad	65
164241	7	Sololá	712	San Antonio Palopó	9	San Antonio Palopo	4	Abril	2023-09-04T00:00:00	2024-11-08T03:00:00	6	Velocidad del viento	4.8
164242	7	Sololá	712	San Antonio Palopó	9	San Antonio Palopo	4	Abril	2023-09-04T00:00:00	2024-11-08T03:00:00	7	Dirección del viento	4.83
164243	7	Sololá	712	San Antonio Palopó	9	San Antonio Palopo	4	Abril	2023-09-04T00:00:00	2024-11-08T03:00:00	1	Precipitación	0
164244	7	Sololá	712	San Antonio Palopó	9	San Antonio Palopo	4	Abril	2023-09-04T00:00:00	2024-11-08T03:00:00	8	Radiación solar	0
164245	7	Sololá	712	San Antonio Palopó	9	San Antonio Palopo	4	Abril	2023-09-04T00:00:00	2024-11-08T04:00:00	2	Temperatura media	16.6
164246	7	Sololá	712	San Antonio Palopó	9	San Antonio Palopo	4	Abril	2023-09-04T00:00:00	2024-11-08T04:00:00	4	Temperatura máxima	16.7
164247	7	Sololá	712	San Antonio Palopó	9	San Antonio Palopo	4	Abril	2023-09-04T00:00:00	2024-11-08T04:00:00	3	Temperatura mínima	16.1
164248	7	Sololá	712	San Antonio Palopó	9	San Antonio Palopo	4	Abril	2023-09-04T00:00:00	2024-11-08T04:00:00	5	Humedad	63
164249	7	Sololá	712	San Antonio Palopó	9	San Antonio Palopo	4	Abril	2023-09-04T00:00:00	2024-11-08T04:00:00	6	Velocidad del viento	4.8
164250	7	Sololá	712	San Antonio Palopó	9	San Antonio Palopo	4	Abril	2023-09-04T00:00:00	2024-11-08T04:00:00	7	Dirección del viento	4.83
164251	7	Sololá	712	San Antonio Palopó	9	San Antonio Palopo	4	Abril	2023-09-04T00:00:00	2024-11-08T04:00:00	1	Precipitación	0
164252	7	Sololá	712	San Antonio Palopó	9	San Antonio Palopo	4	Abril	2023-09-04T00:00:00	2024-11-08T04:00:00	8	Radiación solar	0
164253	7	Sololá	712	San Antonio Palopó	9	San Antonio Palopo	4	Abril	2023-09-04T00:00:00	2024-11-08T05:00:00	2	Temperatura media	16.9
164254	7	Sololá	712	San Antonio Palopó	9	San Antonio Palopo	4	Abril	2023-09-04T00:00:00	2024-11-08T05:00:00	4	Temperatura máxima	17.1
164255	7	Sololá	712	San Antonio Palopó	9	San Antonio Palopo	4	Abril	2023-09-04T00:00:00	2024-11-08T05:00:00	3	Temperatura mínima	16.6
164256	7	Sololá	712	San Antonio Palopó	9	San Antonio Palopo	4	Abril	2023-09-04T00:00:00	2024-11-08T05:00:00	5	Humedad	61
164257	7	Sololá	712	San Antonio Palopó	9	San Antonio Palopo	4	Abril	2023-09-04T00:00:00	2024-11-08T05:00:00	6	Velocidad del viento	6.4
164258	7	Sololá	712	San Antonio Palopó	9	San Antonio Palopo	4	Abril	2023-09-04T00:00:00	2024-11-08T05:00:00	7	Dirección del viento	6.44
164259	7	Sololá	712	San Antonio Palopó	9	San Antonio Palopo	4	Abril	2023-09-04T00:00:00	2024-11-08T05:00:00	1	Precipitación	0
164260	7	Sololá	712	San Antonio Palopó	9	San Antonio Palopo	4	Abril	2023-09-04T00:00:00	2024-11-08T05:00:00	8	Radiación solar	0
164261	7	Sololá	712	San Antonio Palopó	9	San Antonio Palopo	4	Abril	2023-09-04T00:00:00	2024-11-08T06:00:00	2	Temperatura media	17.1
164262	7	Sololá	712	San Antonio Palopó	9	San Antonio Palopo	4	Abril	2023-09-04T00:00:00	2024-11-08T06:00:00	4	Temperatura máxima	17.2
164263	7	Sololá	712	San Antonio Palopó	9	San Antonio Palopo	4	Abril	2023-09-04T00:00:00	2024-11-08T06:00:00	3	Temperatura mínima	16.6
164264	7	Sololá	712	San Antonio Palopó	9	San Antonio Palopo	4	Abril	2023-09-04T00:00:00	2024-11-08T06:00:00	5	Humedad	59
164265	7	Sololá	712	San Antonio Palopó	9	San Antonio Palopo	4	Abril	2023-09-04T00:00:00	2024-11-08T06:00:00	6	Velocidad del viento	6.4
164266	7	Sololá	712	San Antonio Palopó	9	San Antonio Palopo	4	Abril	2023-09-04T00:00:00	2024-11-08T06:00:00	7	Dirección del viento	6.44
164267	7	Sololá	712	San Antonio Palopó	9	San Antonio Palopo	4	Abril	2023-09-04T00:00:00	2024-11-08T06:00:00	1	Precipitación	0
164268	7	Sololá	712	San Antonio Palopó	9	San Antonio Palopo	4	Abril	2023-09-04T00:00:00	2024-11-08T06:00:00	8	Radiación solar	0
164269	7	Sololá	712	San Antonio Palopó	9	San Antonio Palopo	4	Abril	2023-09-04T00:00:00	2024-11-08T07:00:00	2	Temperatura media	18.4
164270	7	Sololá	712	San Antonio Palopó	9	San Antonio Palopo	4	Abril	2023-09-04T00:00:00	2024-11-08T07:00:00	4	Temperatura máxima	18.4
164271	7	Sololá	712	San Antonio Palopó	9	San Antonio Palopo	4	Abril	2023-09-04T00:00:00	2024-11-08T07:00:00	3	Temperatura mínima	17.1
164272	7	Sololá	712	San Antonio Palopó	9	San Antonio Palopo	4	Abril	2023-09-04T00:00:00	2024-11-08T07:00:00	5	Humedad	55
164273	7	Sololá	712	San Antonio Palopó	9	San Antonio Palopo	4	Abril	2023-09-04T00:00:00	2024-11-08T07:00:00	6	Velocidad del viento	6.4
164274	7	Sololá	712	San Antonio Palopó	9	San Antonio Palopo	4	Abril	2023-09-04T00:00:00	2024-11-08T07:00:00	7	Dirección del viento	6.44
164275	7	Sololá	712	San Antonio Palopó	9	San Antonio Palopo	4	Abril	2023-09-04T00:00:00	2024-11-08T07:00:00	1	Precipitación	0
164276	7	Sololá	712	San Antonio Palopó	9	San Antonio Palopo	4	Abril	2023-09-04T00:00:00	2024-11-08T07:00:00	8	Radiación solar	16
164277	7	Sololá	712	San Antonio Palopó	9	San Antonio Palopo	4	Abril	2023-09-04T00:00:00	2024-11-08T08:00:00	2	Temperatura media	20.3
164278	7	Sololá	712	San Antonio Palopó	9	San Antonio Palopo	4	Abril	2023-09-04T00:00:00	2024-11-08T08:00:00	4	Temperatura máxima	20.3
164279	7	Sololá	712	San Antonio Palopó	9	San Antonio Palopo	4	Abril	2023-09-04T00:00:00	2024-11-08T08:00:00	3	Temperatura mínima	18.4
164280	7	Sololá	712	San Antonio Palopó	9	San Antonio Palopo	4	Abril	2023-09-04T00:00:00	2024-11-08T08:00:00	5	Humedad	51
164281	7	Sololá	712	San Antonio Palopó	9	San Antonio Palopo	4	Abril	2023-09-04T00:00:00	2024-11-08T08:00:00	6	Velocidad del viento	9.7
164282	7	Sololá	712	San Antonio Palopó	9	San Antonio Palopo	4	Abril	2023-09-04T00:00:00	2024-11-08T08:00:00	7	Dirección del viento	9.66
164283	7	Sololá	712	San Antonio Palopó	9	San Antonio Palopo	4	Abril	2023-09-04T00:00:00	2024-11-08T08:00:00	1	Precipitación	0
164284	7	Sololá	712	San Antonio Palopó	9	San Antonio Palopo	4	Abril	2023-09-04T00:00:00	2024-11-08T08:00:00	8	Radiación solar	115
164285	7	Sololá	712	San Antonio Palopó	9	San Antonio Palopo	4	Abril	2023-09-04T00:00:00	2024-11-08T09:00:00	2	Temperatura media	21.3
164286	7	Sololá	712	San Antonio Palopó	9	San Antonio Palopo	4	Abril	2023-09-04T00:00:00	2024-11-08T09:00:00	4	Temperatura máxima	21.3
164287	7	Sololá	712	San Antonio Palopó	9	San Antonio Palopo	4	Abril	2023-09-04T00:00:00	2024-11-08T09:00:00	3	Temperatura mínima	20.3
164288	7	Sololá	712	San Antonio Palopó	9	San Antonio Palopo	4	Abril	2023-09-04T00:00:00	2024-11-08T09:00:00	5	Humedad	47
164289	7	Sololá	712	San Antonio Palopó	9	San Antonio Palopo	4	Abril	2023-09-04T00:00:00	2024-11-08T09:00:00	6	Velocidad del viento	16.1
164290	7	Sololá	712	San Antonio Palopó	9	San Antonio Palopo	4	Abril	2023-09-04T00:00:00	2024-11-08T09:00:00	7	Dirección del viento	16.09
164291	7	Sololá	712	San Antonio Palopó	9	San Antonio Palopo	4	Abril	2023-09-04T00:00:00	2024-11-08T09:00:00	1	Precipitación	0
164292	7	Sololá	712	San Antonio Palopó	9	San Antonio Palopo	4	Abril	2023-09-04T00:00:00	2024-11-08T09:00:00	8	Radiación solar	466
164293	7	Sololá	712	San Antonio Palopó	9	San Antonio Palopo	4	Abril	2023-09-04T00:00:00	2024-11-08T10:00:00	2	Temperatura media	22.5
164294	7	Sololá	712	San Antonio Palopó	9	San Antonio Palopo	4	Abril	2023-09-04T00:00:00	2024-11-08T10:00:00	4	Temperatura máxima	23.3
164295	7	Sololá	712	San Antonio Palopó	9	San Antonio Palopo	4	Abril	2023-09-04T00:00:00	2024-11-08T10:00:00	3	Temperatura mínima	21.3
164296	7	Sololá	712	San Antonio Palopó	9	San Antonio Palopo	4	Abril	2023-09-04T00:00:00	2024-11-08T10:00:00	5	Humedad	47
164297	7	Sololá	712	San Antonio Palopó	9	San Antonio Palopo	4	Abril	2023-09-04T00:00:00	2024-11-08T10:00:00	6	Velocidad del viento	9.7
164298	7	Sololá	712	San Antonio Palopó	9	San Antonio Palopo	4	Abril	2023-09-04T00:00:00	2024-11-08T10:00:00	7	Dirección del viento	9.66
164299	7	Sololá	712	San Antonio Palopó	9	San Antonio Palopo	4	Abril	2023-09-04T00:00:00	2024-11-08T10:00:00	1	Precipitación	0
164300	7	Sololá	712	San Antonio Palopó	9	San Antonio Palopo	4	Abril	2023-09-04T00:00:00	2024-11-08T10:00:00	8	Radiación solar	582
164301	7	Sololá	712	San Antonio Palopó	9	San Antonio Palopo	4	Abril	2023-09-04T00:00:00	2024-11-08T11:00:00	2	Temperatura media	22.7
164302	7	Sololá	712	San Antonio Palopó	9	San Antonio Palopo	4	Abril	2023-09-04T00:00:00	2024-11-08T11:00:00	4	Temperatura máxima	22.8
164303	7	Sololá	712	San Antonio Palopó	9	San Antonio Palopo	4	Abril	2023-09-04T00:00:00	2024-11-08T11:00:00	3	Temperatura mínima	22.2
164304	7	Sololá	712	San Antonio Palopó	9	San Antonio Palopo	4	Abril	2023-09-04T00:00:00	2024-11-08T11:00:00	5	Humedad	49
164305	7	Sololá	712	San Antonio Palopó	9	San Antonio Palopo	4	Abril	2023-09-04T00:00:00	2024-11-08T11:00:00	6	Velocidad del viento	14.5
164306	7	Sololá	712	San Antonio Palopó	9	San Antonio Palopo	4	Abril	2023-09-04T00:00:00	2024-11-08T11:00:00	7	Dirección del viento	14.48
164307	7	Sololá	712	San Antonio Palopó	9	San Antonio Palopo	4	Abril	2023-09-04T00:00:00	2024-11-08T11:00:00	1	Precipitación	0
164308	7	Sololá	712	San Antonio Palopó	9	San Antonio Palopo	4	Abril	2023-09-04T00:00:00	2024-11-08T11:00:00	8	Radiación solar	839
164309	7	Sololá	712	San Antonio Palopó	9	San Antonio Palopo	4	Abril	2023-09-04T00:00:00	2024-11-08T12:00:00	2	Temperatura media	24.3
164310	7	Sololá	712	San Antonio Palopó	9	San Antonio Palopo	4	Abril	2023-09-04T00:00:00	2024-11-08T12:00:00	4	Temperatura máxima	24.3
164311	7	Sololá	712	San Antonio Palopó	9	San Antonio Palopo	4	Abril	2023-09-04T00:00:00	2024-11-08T12:00:00	3	Temperatura mínima	22.7
164312	7	Sololá	712	San Antonio Palopó	9	San Antonio Palopo	4	Abril	2023-09-04T00:00:00	2024-11-08T12:00:00	5	Humedad	44
164313	7	Sololá	712	San Antonio Palopó	9	San Antonio Palopo	4	Abril	2023-09-04T00:00:00	2024-11-08T12:00:00	6	Velocidad del viento	12.9
164314	7	Sololá	712	San Antonio Palopó	9	San Antonio Palopo	4	Abril	2023-09-04T00:00:00	2024-11-08T12:00:00	7	Dirección del viento	12.87
164315	7	Sololá	712	San Antonio Palopó	9	San Antonio Palopo	4	Abril	2023-09-04T00:00:00	2024-11-08T12:00:00	1	Precipitación	0
164316	7	Sololá	712	San Antonio Palopó	9	San Antonio Palopo	4	Abril	2023-09-04T00:00:00	2024-11-08T12:00:00	8	Radiación solar	942
164317	7	Sololá	712	San Antonio Palopó	9	San Antonio Palopo	4	Abril	2023-09-04T00:00:00	2024-11-08T13:00:00	2	Temperatura media	23.1
164318	7	Sololá	712	San Antonio Palopó	9	San Antonio Palopo	4	Abril	2023-09-04T00:00:00	2024-11-08T13:00:00	4	Temperatura máxima	24.8
164319	7	Sololá	712	San Antonio Palopó	9	San Antonio Palopo	4	Abril	2023-09-04T00:00:00	2024-11-08T13:00:00	3	Temperatura mínima	22.6
164320	7	Sololá	712	San Antonio Palopó	9	San Antonio Palopo	4	Abril	2023-09-04T00:00:00	2024-11-08T13:00:00	5	Humedad	67
164321	7	Sololá	712	San Antonio Palopó	9	San Antonio Palopo	4	Abril	2023-09-04T00:00:00	2024-11-08T13:00:00	6	Velocidad del viento	11.3
164322	7	Sololá	712	San Antonio Palopó	9	San Antonio Palopo	4	Abril	2023-09-04T00:00:00	2024-11-08T13:00:00	7	Dirección del viento	11.27
164323	7	Sololá	712	San Antonio Palopó	9	San Antonio Palopo	4	Abril	2023-09-04T00:00:00	2024-11-08T13:00:00	1	Precipitación	0
164324	7	Sololá	712	San Antonio Palopó	9	San Antonio Palopo	4	Abril	2023-09-04T00:00:00	2024-11-08T13:00:00	8	Radiación solar	920
164325	7	Sololá	712	San Antonio Palopó	9	San Antonio Palopo	4	Abril	2023-09-04T00:00:00	2024-11-08T14:00:00	2	Temperatura media	23.1
164326	7	Sololá	712	San Antonio Palopó	9	San Antonio Palopo	4	Abril	2023-09-04T00:00:00	2024-11-08T14:00:00	4	Temperatura máxima	24.4
164327	7	Sololá	712	San Antonio Palopó	9	San Antonio Palopo	4	Abril	2023-09-04T00:00:00	2024-11-08T14:00:00	3	Temperatura mínima	23.1
164328	7	Sololá	712	San Antonio Palopó	9	San Antonio Palopo	4	Abril	2023-09-04T00:00:00	2024-11-08T14:00:00	5	Humedad	68
164329	7	Sololá	712	San Antonio Palopó	9	San Antonio Palopo	4	Abril	2023-09-04T00:00:00	2024-11-08T14:00:00	6	Velocidad del viento	11.3
164330	7	Sololá	712	San Antonio Palopó	9	San Antonio Palopo	4	Abril	2023-09-04T00:00:00	2024-11-08T14:00:00	7	Dirección del viento	11.27
164331	7	Sololá	712	San Antonio Palopó	9	San Antonio Palopo	4	Abril	2023-09-04T00:00:00	2024-11-08T14:00:00	1	Precipitación	0
164332	7	Sololá	712	San Antonio Palopó	9	San Antonio Palopo	4	Abril	2023-09-04T00:00:00	2024-11-08T14:00:00	8	Radiación solar	704
164333	7	Sololá	712	San Antonio Palopó	9	San Antonio Palopo	4	Abril	2023-09-04T00:00:00	2024-11-08T15:00:00	2	Temperatura media	23.3
164334	7	Sololá	712	San Antonio Palopó	9	San Antonio Palopo	4	Abril	2023-09-04T00:00:00	2024-11-08T15:00:00	4	Temperatura máxima	23.6
164335	7	Sololá	712	San Antonio Palopó	9	San Antonio Palopo	4	Abril	2023-09-04T00:00:00	2024-11-08T15:00:00	3	Temperatura mínima	23.1
164336	7	Sololá	712	San Antonio Palopó	9	San Antonio Palopo	4	Abril	2023-09-04T00:00:00	2024-11-08T15:00:00	5	Humedad	69
164337	7	Sololá	712	San Antonio Palopó	9	San Antonio Palopo	4	Abril	2023-09-04T00:00:00	2024-11-08T15:00:00	6	Velocidad del viento	11.3
164338	7	Sololá	712	San Antonio Palopó	9	San Antonio Palopo	4	Abril	2023-09-04T00:00:00	2024-11-08T15:00:00	7	Dirección del viento	11.27
164339	7	Sololá	712	San Antonio Palopó	9	San Antonio Palopo	4	Abril	2023-09-04T00:00:00	2024-11-08T15:00:00	1	Precipitación	0
164340	7	Sololá	712	San Antonio Palopó	9	San Antonio Palopo	4	Abril	2023-09-04T00:00:00	2024-11-08T15:00:00	8	Radiación solar	424
164341	7	Sololá	712	San Antonio Palopó	9	San Antonio Palopo	4	Abril	2023-09-04T00:00:00	2024-11-08T16:00:00	2	Temperatura media	22.7
164342	7	Sololá	712	San Antonio Palopó	9	San Antonio Palopo	4	Abril	2023-09-04T00:00:00	2024-11-08T16:00:00	4	Temperatura máxima	23.4
164343	7	Sololá	712	San Antonio Palopó	9	San Antonio Palopo	4	Abril	2023-09-04T00:00:00	2024-11-08T16:00:00	3	Temperatura mínima	22.4
164344	7	Sololá	712	San Antonio Palopó	9	San Antonio Palopo	4	Abril	2023-09-04T00:00:00	2024-11-08T16:00:00	5	Humedad	70
164345	7	Sololá	712	San Antonio Palopó	9	San Antonio Palopo	4	Abril	2023-09-04T00:00:00	2024-11-08T16:00:00	6	Velocidad del viento	9.7
164346	7	Sololá	712	San Antonio Palopó	9	San Antonio Palopo	4	Abril	2023-09-04T00:00:00	2024-11-08T16:00:00	7	Dirección del viento	9.66
164347	7	Sololá	712	San Antonio Palopó	9	San Antonio Palopo	4	Abril	2023-09-04T00:00:00	2024-11-08T16:00:00	1	Precipitación	0
164348	7	Sololá	712	San Antonio Palopó	9	San Antonio Palopo	4	Abril	2023-09-04T00:00:00	2024-11-08T16:00:00	8	Radiación solar	296
164349	7	Sololá	712	San Antonio Palopó	9	San Antonio Palopo	4	Abril	2023-09-04T00:00:00	2024-11-08T17:00:00	2	Temperatura media	22.7
164350	7	Sololá	712	San Antonio Palopó	9	San Antonio Palopo	4	Abril	2023-09-04T00:00:00	2024-11-08T17:00:00	4	Temperatura máxima	23.3
164351	7	Sololá	712	San Antonio Palopó	9	San Antonio Palopo	4	Abril	2023-09-04T00:00:00	2024-11-08T17:00:00	3	Temperatura mínima	22.6
164352	7	Sololá	712	San Antonio Palopó	9	San Antonio Palopo	4	Abril	2023-09-04T00:00:00	2024-11-08T17:00:00	5	Humedad	70
164353	7	Sololá	712	San Antonio Palopó	9	San Antonio Palopo	4	Abril	2023-09-04T00:00:00	2024-11-08T17:00:00	6	Velocidad del viento	9.7
164354	7	Sololá	712	San Antonio Palopó	9	San Antonio Palopo	4	Abril	2023-09-04T00:00:00	2024-11-08T17:00:00	7	Dirección del viento	9.66
164355	7	Sololá	712	San Antonio Palopó	9	San Antonio Palopo	4	Abril	2023-09-04T00:00:00	2024-11-08T17:00:00	1	Precipitación	0
164356	7	Sololá	712	San Antonio Palopó	9	San Antonio Palopo	4	Abril	2023-09-04T00:00:00	2024-11-08T17:00:00	8	Radiación solar	339
164357	7	Sololá	712	San Antonio Palopó	9	San Antonio Palopo	4	Abril	2023-09-04T00:00:00	2024-11-08T18:00:00	2	Temperatura media	21.9
164358	7	Sololá	712	San Antonio Palopó	9	San Antonio Palopo	4	Abril	2023-09-04T00:00:00	2024-11-08T18:00:00	4	Temperatura máxima	22.7
164359	7	Sololá	712	San Antonio Palopó	9	San Antonio Palopo	4	Abril	2023-09-04T00:00:00	2024-11-08T18:00:00	3	Temperatura mínima	21.9
164360	7	Sololá	712	San Antonio Palopó	9	San Antonio Palopo	4	Abril	2023-09-04T00:00:00	2024-11-08T18:00:00	5	Humedad	73
164361	7	Sololá	712	San Antonio Palopó	9	San Antonio Palopo	4	Abril	2023-09-04T00:00:00	2024-11-08T18:00:00	6	Velocidad del viento	6.4
164362	7	Sololá	712	San Antonio Palopó	9	San Antonio Palopo	4	Abril	2023-09-04T00:00:00	2024-11-08T18:00:00	7	Dirección del viento	6.44
164363	7	Sololá	712	San Antonio Palopó	9	San Antonio Palopo	4	Abril	2023-09-04T00:00:00	2024-11-08T18:00:00	1	Precipitación	0
164364	7	Sololá	712	San Antonio Palopó	9	San Antonio Palopo	4	Abril	2023-09-04T00:00:00	2024-11-08T18:00:00	8	Radiación solar	116
164365	7	Sololá	712	San Antonio Palopó	9	San Antonio Palopo	4	Abril	2023-09-04T00:00:00	2024-11-08T19:00:00	2	Temperatura media	20.6
164366	7	Sololá	712	San Antonio Palopó	9	San Antonio Palopo	4	Abril	2023-09-04T00:00:00	2024-11-08T19:00:00	4	Temperatura máxima	21.9
164367	7	Sololá	712	San Antonio Palopó	9	San Antonio Palopo	4	Abril	2023-09-04T00:00:00	2024-11-08T19:00:00	3	Temperatura mínima	20.2
164368	7	Sololá	712	San Antonio Palopó	9	San Antonio Palopo	4	Abril	2023-09-04T00:00:00	2024-11-08T19:00:00	5	Humedad	71
164369	7	Sololá	712	San Antonio Palopó	9	San Antonio Palopo	4	Abril	2023-09-04T00:00:00	2024-11-08T19:00:00	6	Velocidad del viento	3.2
164370	7	Sololá	712	San Antonio Palopó	9	San Antonio Palopo	4	Abril	2023-09-04T00:00:00	2024-11-08T19:00:00	7	Dirección del viento	3.22
164371	7	Sololá	712	San Antonio Palopó	9	San Antonio Palopo	4	Abril	2023-09-04T00:00:00	2024-11-08T19:00:00	1	Precipitación	0
164372	7	Sololá	712	San Antonio Palopó	9	San Antonio Palopo	4	Abril	2023-09-04T00:00:00	2024-11-08T19:00:00	8	Radiación solar	0
164373	7	Sololá	712	San Antonio Palopó	9	San Antonio Palopo	4	Abril	2023-09-04T00:00:00	2024-11-08T20:00:00	2	Temperatura media	19.4
164374	7	Sololá	712	San Antonio Palopó	9	San Antonio Palopo	4	Abril	2023-09-04T00:00:00	2024-11-08T20:00:00	4	Temperatura máxima	20.8
164375	7	Sololá	712	San Antonio Palopó	9	San Antonio Palopo	4	Abril	2023-09-04T00:00:00	2024-11-08T20:00:00	3	Temperatura mínima	19.4
164376	7	Sololá	712	San Antonio Palopó	9	San Antonio Palopo	4	Abril	2023-09-04T00:00:00	2024-11-08T20:00:00	5	Humedad	55
164377	7	Sololá	712	San Antonio Palopó	9	San Antonio Palopo	4	Abril	2023-09-04T00:00:00	2024-11-08T20:00:00	6	Velocidad del viento	3.2
164378	7	Sololá	712	San Antonio Palopó	9	San Antonio Palopo	4	Abril	2023-09-04T00:00:00	2024-11-08T20:00:00	7	Dirección del viento	3.22
164379	7	Sololá	712	San Antonio Palopó	9	San Antonio Palopo	4	Abril	2023-09-04T00:00:00	2024-11-08T20:00:00	1	Precipitación	0
164380	7	Sololá	712	San Antonio Palopó	9	San Antonio Palopo	4	Abril	2023-09-04T00:00:00	2024-11-08T20:00:00	8	Radiación solar	0
164381	7	Sololá	712	San Antonio Palopó	9	San Antonio Palopo	4	Abril	2023-09-04T00:00:00	2024-11-08T21:00:00	2	Temperatura media	18.8
164382	7	Sololá	712	San Antonio Palopó	9	San Antonio Palopo	4	Abril	2023-09-04T00:00:00	2024-11-08T21:00:00	4	Temperatura máxima	19.5
164383	7	Sololá	712	San Antonio Palopó	9	San Antonio Palopo	4	Abril	2023-09-04T00:00:00	2024-11-08T21:00:00	3	Temperatura mínima	18.8
164384	7	Sololá	712	San Antonio Palopó	9	San Antonio Palopo	4	Abril	2023-09-04T00:00:00	2024-11-08T21:00:00	5	Humedad	54
164385	7	Sololá	712	San Antonio Palopó	9	San Antonio Palopo	4	Abril	2023-09-04T00:00:00	2024-11-08T21:00:00	6	Velocidad del viento	3.2
164386	7	Sololá	712	San Antonio Palopó	9	San Antonio Palopo	4	Abril	2023-09-04T00:00:00	2024-11-08T21:00:00	7	Dirección del viento	3.22
164387	7	Sololá	712	San Antonio Palopó	9	San Antonio Palopo	4	Abril	2023-09-04T00:00:00	2024-11-08T21:00:00	1	Precipitación	0
164388	7	Sololá	712	San Antonio Palopó	9	San Antonio Palopo	4	Abril	2023-09-04T00:00:00	2024-11-08T21:00:00	8	Radiación solar	0
164389	7	Sololá	712	San Antonio Palopó	9	San Antonio Palopo	4	Abril	2023-09-04T00:00:00	2024-11-08T22:00:00	2	Temperatura media	18
164390	7	Sololá	712	San Antonio Palopó	9	San Antonio Palopo	4	Abril	2023-09-04T00:00:00	2024-11-08T22:00:00	4	Temperatura máxima	18.8
164391	7	Sololá	712	San Antonio Palopó	9	San Antonio Palopo	4	Abril	2023-09-04T00:00:00	2024-11-08T22:00:00	3	Temperatura mínima	17.9
164392	7	Sololá	712	San Antonio Palopó	9	San Antonio Palopo	4	Abril	2023-09-04T00:00:00	2024-11-08T22:00:00	5	Humedad	57
164393	7	Sololá	712	San Antonio Palopó	9	San Antonio Palopo	4	Abril	2023-09-04T00:00:00	2024-11-08T22:00:00	6	Velocidad del viento	4.8
164394	7	Sololá	712	San Antonio Palopó	9	San Antonio Palopo	4	Abril	2023-09-04T00:00:00	2024-11-08T22:00:00	7	Dirección del viento	4.83
164395	7	Sololá	712	San Antonio Palopó	9	San Antonio Palopo	4	Abril	2023-09-04T00:00:00	2024-11-08T22:00:00	1	Precipitación	0
164396	7	Sololá	712	San Antonio Palopó	9	San Antonio Palopo	4	Abril	2023-09-04T00:00:00	2024-11-08T22:00:00	8	Radiación solar	0
164397	7	Sololá	712	San Antonio Palopó	9	San Antonio Palopo	4	Abril	2023-09-04T00:00:00	2024-11-08T23:00:00	2	Temperatura media	17.6
164398	7	Sololá	712	San Antonio Palopó	9	San Antonio Palopo	4	Abril	2023-09-04T00:00:00	2024-11-08T23:00:00	4	Temperatura máxima	18
164399	7	Sololá	712	San Antonio Palopó	9	San Antonio Palopo	4	Abril	2023-09-04T00:00:00	2024-11-08T23:00:00	3	Temperatura mínima	17.6
164400	7	Sololá	712	San Antonio Palopó	9	San Antonio Palopo	4	Abril	2023-09-04T00:00:00	2024-11-08T23:00:00	5	Humedad	57
164401	7	Sololá	712	San Antonio Palopó	9	San Antonio Palopo	4	Abril	2023-09-04T00:00:00	2024-11-08T23:00:00	6	Velocidad del viento	4.8
164402	7	Sololá	712	San Antonio Palopó	9	San Antonio Palopo	4	Abril	2023-09-04T00:00:00	2024-11-08T23:00:00	7	Dirección del viento	4.83
164403	7	Sololá	712	San Antonio Palopó	9	San Antonio Palopo	4	Abril	2023-09-04T00:00:00	2024-11-08T23:00:00	1	Precipitación	0
164404	7	Sololá	712	San Antonio Palopó	9	San Antonio Palopo	4	Abril	2023-09-04T00:00:00	2024-11-08T23:00:00	8	Radiación solar	0
164405	7	Sololá	712	San Antonio Palopó	9	San Antonio Palopo	4	Abril	2023-10-04T00:00:00	2024-11-08T00:00:00	2	Temperatura media	17.3
164406	7	Sololá	712	San Antonio Palopó	9	San Antonio Palopo	4	Abril	2023-10-04T00:00:00	2024-11-08T00:00:00	4	Temperatura máxima	17.7
164407	7	Sololá	712	San Antonio Palopó	9	San Antonio Palopo	4	Abril	2023-10-04T00:00:00	2024-11-08T00:00:00	3	Temperatura mínima	17.2
164408	7	Sololá	712	San Antonio Palopó	9	San Antonio Palopo	4	Abril	2023-10-04T00:00:00	2024-11-08T00:00:00	5	Humedad	54
164409	7	Sololá	712	San Antonio Palopó	9	San Antonio Palopo	4	Abril	2023-10-04T00:00:00	2024-11-08T00:00:00	6	Velocidad del viento	4.8
164410	7	Sololá	712	San Antonio Palopó	9	San Antonio Palopo	4	Abril	2023-10-04T00:00:00	2024-11-08T00:00:00	7	Dirección del viento	4.83
164411	7	Sololá	712	San Antonio Palopó	9	San Antonio Palopo	4	Abril	2023-10-04T00:00:00	2024-11-08T00:00:00	1	Precipitación	0
164412	7	Sololá	712	San Antonio Palopó	9	San Antonio Palopo	4	Abril	2023-10-04T00:00:00	2024-11-08T00:00:00	8	Radiación solar	0
164413	7	Sololá	712	San Antonio Palopó	9	San Antonio Palopo	4	Abril	2023-10-04T00:00:00	2024-11-08T01:00:00	2	Temperatura media	16.9
164414	7	Sololá	712	San Antonio Palopó	9	San Antonio Palopo	4	Abril	2023-10-04T00:00:00	2024-11-08T01:00:00	4	Temperatura máxima	17.6
164415	7	Sololá	712	San Antonio Palopó	9	San Antonio Palopo	4	Abril	2023-10-04T00:00:00	2024-11-08T01:00:00	3	Temperatura mínima	16.8
164416	7	Sololá	712	San Antonio Palopó	9	San Antonio Palopo	4	Abril	2023-10-04T00:00:00	2024-11-08T01:00:00	5	Humedad	55
164417	7	Sololá	712	San Antonio Palopó	9	San Antonio Palopo	4	Abril	2023-10-04T00:00:00	2024-11-08T01:00:00	6	Velocidad del viento	4.8
164418	7	Sololá	712	San Antonio Palopó	9	San Antonio Palopo	4	Abril	2023-10-04T00:00:00	2024-11-08T01:00:00	7	Dirección del viento	4.83
164419	7	Sololá	712	San Antonio Palopó	9	San Antonio Palopo	4	Abril	2023-10-04T00:00:00	2024-11-08T01:00:00	1	Precipitación	0
164420	7	Sololá	712	San Antonio Palopó	9	San Antonio Palopo	4	Abril	2023-10-04T00:00:00	2024-11-08T01:00:00	8	Radiación solar	0
164421	7	Sololá	712	San Antonio Palopó	9	San Antonio Palopo	4	Abril	2023-10-04T00:00:00	2024-11-08T02:00:00	2	Temperatura media	16.5
164422	7	Sololá	712	San Antonio Palopó	9	San Antonio Palopo	4	Abril	2023-10-04T00:00:00	2024-11-08T02:00:00	4	Temperatura máxima	17.2
164423	7	Sololá	712	San Antonio Palopó	9	San Antonio Palopo	4	Abril	2023-10-04T00:00:00	2024-11-08T02:00:00	3	Temperatura mínima	16.4
164424	7	Sololá	712	San Antonio Palopó	9	San Antonio Palopo	4	Abril	2023-10-04T00:00:00	2024-11-08T02:00:00	5	Humedad	60
164425	7	Sololá	712	San Antonio Palopó	9	San Antonio Palopo	4	Abril	2023-10-04T00:00:00	2024-11-08T02:00:00	6	Velocidad del viento	4.8
164426	7	Sololá	712	San Antonio Palopó	9	San Antonio Palopo	4	Abril	2023-10-04T00:00:00	2024-11-08T02:00:00	7	Dirección del viento	4.83
164427	7	Sololá	712	San Antonio Palopó	9	San Antonio Palopo	4	Abril	2023-10-04T00:00:00	2024-11-08T02:00:00	1	Precipitación	0
164428	7	Sololá	712	San Antonio Palopó	9	San Antonio Palopo	4	Abril	2023-10-04T00:00:00	2024-11-08T02:00:00	8	Radiación solar	0
164429	7	Sololá	712	San Antonio Palopó	9	San Antonio Palopo	4	Abril	2023-10-04T00:00:00	2024-11-08T03:00:00	2	Temperatura media	16.4
164430	7	Sololá	712	San Antonio Palopó	9	San Antonio Palopo	4	Abril	2023-10-04T00:00:00	2024-11-08T03:00:00	4	Temperatura máxima	16.7
164431	7	Sololá	712	San Antonio Palopó	9	San Antonio Palopo	4	Abril	2023-10-04T00:00:00	2024-11-08T03:00:00	3	Temperatura mínima	16.2
164432	7	Sololá	712	San Antonio Palopó	9	San Antonio Palopo	4	Abril	2023-10-04T00:00:00	2024-11-08T03:00:00	5	Humedad	61
164433	7	Sololá	712	San Antonio Palopó	9	San Antonio Palopo	4	Abril	2023-10-04T00:00:00	2024-11-08T03:00:00	6	Velocidad del viento	3.2
164434	7	Sololá	712	San Antonio Palopó	9	San Antonio Palopo	4	Abril	2023-10-04T00:00:00	2024-11-08T03:00:00	7	Dirección del viento	3.22
164435	7	Sololá	712	San Antonio Palopó	9	San Antonio Palopo	4	Abril	2023-10-04T00:00:00	2024-11-08T03:00:00	1	Precipitación	0
164436	7	Sololá	712	San Antonio Palopó	9	San Antonio Palopo	4	Abril	2023-10-04T00:00:00	2024-11-08T03:00:00	8	Radiación solar	0
164437	7	Sololá	712	San Antonio Palopó	9	San Antonio Palopo	4	Abril	2023-10-04T00:00:00	2024-11-08T04:00:00	2	Temperatura media	16.1
164438	7	Sololá	712	San Antonio Palopó	9	San Antonio Palopo	4	Abril	2023-10-04T00:00:00	2024-11-08T04:00:00	4	Temperatura máxima	16.7
164439	7	Sololá	712	San Antonio Palopó	9	San Antonio Palopo	4	Abril	2023-10-04T00:00:00	2024-11-08T04:00:00	3	Temperatura mínima	16.1
164440	7	Sololá	712	San Antonio Palopó	9	San Antonio Palopo	4	Abril	2023-10-04T00:00:00	2024-11-08T04:00:00	5	Humedad	63
164441	7	Sololá	712	San Antonio Palopó	9	San Antonio Palopo	4	Abril	2023-10-04T00:00:00	2024-11-08T04:00:00	6	Velocidad del viento	4.8
164442	7	Sololá	712	San Antonio Palopó	9	San Antonio Palopo	4	Abril	2023-10-04T00:00:00	2024-11-08T04:00:00	7	Dirección del viento	4.83
164443	7	Sololá	712	San Antonio Palopó	9	San Antonio Palopo	4	Abril	2023-10-04T00:00:00	2024-11-08T04:00:00	1	Precipitación	0
164444	7	Sololá	712	San Antonio Palopó	9	San Antonio Palopo	4	Abril	2023-10-04T00:00:00	2024-11-08T04:00:00	8	Radiación solar	0
164445	7	Sololá	712	San Antonio Palopó	9	San Antonio Palopo	4	Abril	2023-10-04T00:00:00	2024-11-08T05:00:00	2	Temperatura media	17.4
164446	7	Sololá	712	San Antonio Palopó	9	San Antonio Palopo	4	Abril	2023-10-04T00:00:00	2024-11-08T05:00:00	4	Temperatura máxima	17.8
164447	7	Sololá	712	San Antonio Palopó	9	San Antonio Palopo	4	Abril	2023-10-04T00:00:00	2024-11-08T05:00:00	3	Temperatura mínima	16.1
164448	7	Sololá	712	San Antonio Palopó	9	San Antonio Palopo	4	Abril	2023-10-04T00:00:00	2024-11-08T05:00:00	5	Humedad	59
164449	7	Sololá	712	San Antonio Palopó	9	San Antonio Palopo	4	Abril	2023-10-04T00:00:00	2024-11-08T05:00:00	6	Velocidad del viento	4.8
164450	7	Sololá	712	San Antonio Palopó	9	San Antonio Palopo	4	Abril	2023-10-04T00:00:00	2024-11-08T05:00:00	7	Dirección del viento	4.83
164451	7	Sololá	712	San Antonio Palopó	9	San Antonio Palopo	4	Abril	2023-10-04T00:00:00	2024-11-08T05:00:00	1	Precipitación	0
164452	7	Sololá	712	San Antonio Palopó	9	San Antonio Palopo	4	Abril	2023-10-04T00:00:00	2024-11-08T05:00:00	8	Radiación solar	0
164453	7	Sololá	712	San Antonio Palopó	9	San Antonio Palopo	4	Abril	2023-10-04T00:00:00	2024-11-08T06:00:00	2	Temperatura media	16.2
164454	7	Sololá	712	San Antonio Palopó	9	San Antonio Palopo	4	Abril	2023-10-04T00:00:00	2024-11-08T06:00:00	4	Temperatura máxima	17.4
164455	7	Sololá	712	San Antonio Palopó	9	San Antonio Palopo	4	Abril	2023-10-04T00:00:00	2024-11-08T06:00:00	3	Temperatura mínima	16
164456	7	Sololá	712	San Antonio Palopó	9	San Antonio Palopo	4	Abril	2023-10-04T00:00:00	2024-11-08T06:00:00	5	Humedad	63
164457	7	Sololá	712	San Antonio Palopó	9	San Antonio Palopo	4	Abril	2023-10-04T00:00:00	2024-11-08T06:00:00	6	Velocidad del viento	3.2
164458	7	Sololá	712	San Antonio Palopó	9	San Antonio Palopo	4	Abril	2023-10-04T00:00:00	2024-11-08T06:00:00	7	Dirección del viento	3.22
164459	7	Sololá	712	San Antonio Palopó	9	San Antonio Palopo	4	Abril	2023-10-04T00:00:00	2024-11-08T06:00:00	1	Precipitación	0
164460	7	Sololá	712	San Antonio Palopó	9	San Antonio Palopo	4	Abril	2023-10-04T00:00:00	2024-11-08T06:00:00	8	Radiación solar	0
164461	7	Sololá	712	San Antonio Palopó	9	San Antonio Palopo	4	Abril	2023-10-04T00:00:00	2024-11-08T07:00:00	2	Temperatura media	16.8
164462	7	Sololá	712	San Antonio Palopó	9	San Antonio Palopo	4	Abril	2023-10-04T00:00:00	2024-11-08T07:00:00	4	Temperatura máxima	16.8
164463	7	Sololá	712	San Antonio Palopó	9	San Antonio Palopo	4	Abril	2023-10-04T00:00:00	2024-11-08T07:00:00	3	Temperatura mínima	16.2
164464	7	Sololá	712	San Antonio Palopó	9	San Antonio Palopo	4	Abril	2023-10-04T00:00:00	2024-11-08T07:00:00	5	Humedad	61
164465	7	Sololá	712	San Antonio Palopó	9	San Antonio Palopo	4	Abril	2023-10-04T00:00:00	2024-11-08T07:00:00	6	Velocidad del viento	4.8
164466	7	Sololá	712	San Antonio Palopó	9	San Antonio Palopo	4	Abril	2023-10-04T00:00:00	2024-11-08T07:00:00	7	Dirección del viento	4.83
164467	7	Sololá	712	San Antonio Palopó	9	San Antonio Palopo	4	Abril	2023-10-04T00:00:00	2024-11-08T07:00:00	1	Precipitación	0
164468	7	Sololá	712	San Antonio Palopó	9	San Antonio Palopo	4	Abril	2023-10-04T00:00:00	2024-11-08T07:00:00	8	Radiación solar	15
164469	7	Sololá	712	San Antonio Palopó	9	San Antonio Palopo	4	Abril	2023-10-04T00:00:00	2024-11-08T08:00:00	2	Temperatura media	17.6
164470	7	Sololá	712	San Antonio Palopó	9	San Antonio Palopo	4	Abril	2023-10-04T00:00:00	2024-11-08T08:00:00	4	Temperatura máxima	17.6
164471	7	Sololá	712	San Antonio Palopó	9	San Antonio Palopo	4	Abril	2023-10-04T00:00:00	2024-11-08T08:00:00	3	Temperatura mínima	16.5
164472	7	Sololá	712	San Antonio Palopó	9	San Antonio Palopo	4	Abril	2023-10-04T00:00:00	2024-11-08T08:00:00	5	Humedad	60
164473	7	Sololá	712	San Antonio Palopó	9	San Antonio Palopo	4	Abril	2023-10-04T00:00:00	2024-11-08T08:00:00	6	Velocidad del viento	6.4
164474	7	Sololá	712	San Antonio Palopó	9	San Antonio Palopo	4	Abril	2023-10-04T00:00:00	2024-11-08T08:00:00	7	Dirección del viento	6.44
164475	7	Sololá	712	San Antonio Palopó	9	San Antonio Palopo	4	Abril	2023-10-04T00:00:00	2024-11-08T08:00:00	1	Precipitación	0
164476	7	Sololá	712	San Antonio Palopó	9	San Antonio Palopo	4	Abril	2023-10-04T00:00:00	2024-11-08T08:00:00	8	Radiación solar	109
164477	7	Sololá	712	San Antonio Palopó	9	San Antonio Palopo	4	Abril	2023-10-04T00:00:00	2024-11-08T09:00:00	2	Temperatura media	20.2
164478	7	Sololá	712	San Antonio Palopó	9	San Antonio Palopo	4	Abril	2023-10-04T00:00:00	2024-11-08T09:00:00	4	Temperatura máxima	20.4
164479	7	Sololá	712	San Antonio Palopó	9	San Antonio Palopo	4	Abril	2023-10-04T00:00:00	2024-11-08T09:00:00	3	Temperatura mínima	17.6
164480	7	Sololá	712	San Antonio Palopó	9	San Antonio Palopo	4	Abril	2023-10-04T00:00:00	2024-11-08T09:00:00	5	Humedad	51
164481	7	Sololá	712	San Antonio Palopó	9	San Antonio Palopo	4	Abril	2023-10-04T00:00:00	2024-11-08T09:00:00	6	Velocidad del viento	6.4
164482	7	Sololá	712	San Antonio Palopó	9	San Antonio Palopo	4	Abril	2023-10-04T00:00:00	2024-11-08T09:00:00	7	Dirección del viento	6.44
164483	7	Sololá	712	San Antonio Palopó	9	San Antonio Palopo	4	Abril	2023-10-04T00:00:00	2024-11-08T09:00:00	1	Precipitación	0
164484	7	Sololá	712	San Antonio Palopó	9	San Antonio Palopo	4	Abril	2023-10-04T00:00:00	2024-11-08T09:00:00	8	Radiación solar	463
164485	7	Sololá	712	San Antonio Palopó	9	San Antonio Palopo	4	Abril	2023-10-04T00:00:00	2024-11-08T10:00:00	2	Temperatura media	22.1
164486	7	Sololá	712	San Antonio Palopó	9	San Antonio Palopo	4	Abril	2023-10-04T00:00:00	2024-11-08T10:00:00	4	Temperatura máxima	22.1
164487	7	Sololá	712	San Antonio Palopó	9	San Antonio Palopo	4	Abril	2023-10-04T00:00:00	2024-11-08T10:00:00	3	Temperatura mínima	20.2
164488	7	Sololá	712	San Antonio Palopó	9	San Antonio Palopo	4	Abril	2023-10-04T00:00:00	2024-11-08T10:00:00	5	Humedad	46
164489	7	Sololá	712	San Antonio Palopó	9	San Antonio Palopo	4	Abril	2023-10-04T00:00:00	2024-11-08T10:00:00	6	Velocidad del viento	11.3
164490	7	Sololá	712	San Antonio Palopó	9	San Antonio Palopo	4	Abril	2023-10-04T00:00:00	2024-11-08T10:00:00	7	Dirección del viento	11.27
164491	7	Sololá	712	San Antonio Palopó	9	San Antonio Palopo	4	Abril	2023-10-04T00:00:00	2024-11-08T10:00:00	1	Precipitación	0
164492	7	Sololá	712	San Antonio Palopó	9	San Antonio Palopo	4	Abril	2023-10-04T00:00:00	2024-11-08T10:00:00	8	Radiación solar	574
164493	7	Sololá	712	San Antonio Palopó	9	San Antonio Palopo	4	Abril	2023-10-04T00:00:00	2024-11-08T11:00:00	2	Temperatura media	23.3
164494	7	Sololá	712	San Antonio Palopó	9	San Antonio Palopo	4	Abril	2023-10-04T00:00:00	2024-11-08T11:00:00	4	Temperatura máxima	23.3
164495	7	Sololá	712	San Antonio Palopó	9	San Antonio Palopo	4	Abril	2023-10-04T00:00:00	2024-11-08T11:00:00	3	Temperatura mínima	22
164496	7	Sololá	712	San Antonio Palopó	9	San Antonio Palopo	4	Abril	2023-10-04T00:00:00	2024-11-08T11:00:00	5	Humedad	46
164497	7	Sololá	712	San Antonio Palopó	9	San Antonio Palopo	4	Abril	2023-10-04T00:00:00	2024-11-08T11:00:00	6	Velocidad del viento	6.4
164498	7	Sololá	712	San Antonio Palopó	9	San Antonio Palopo	4	Abril	2023-10-04T00:00:00	2024-11-08T11:00:00	7	Dirección del viento	6.44
164499	7	Sololá	712	San Antonio Palopó	9	San Antonio Palopo	4	Abril	2023-10-04T00:00:00	2024-11-08T11:00:00	1	Precipitación	0
164500	7	Sololá	712	San Antonio Palopó	9	San Antonio Palopo	4	Abril	2023-10-04T00:00:00	2024-11-08T11:00:00	8	Radiación solar	809
164501	7	Sololá	712	San Antonio Palopó	9	San Antonio Palopo	4	Abril	2023-10-04T00:00:00	2024-11-08T12:00:00	2	Temperatura media	24.2
164502	7	Sololá	712	San Antonio Palopó	9	San Antonio Palopo	4	Abril	2023-10-04T00:00:00	2024-11-08T12:00:00	4	Temperatura máxima	24.7
164503	7	Sololá	712	San Antonio Palopó	9	San Antonio Palopo	4	Abril	2023-10-04T00:00:00	2024-11-08T12:00:00	3	Temperatura mínima	23.2
164504	7	Sololá	712	San Antonio Palopó	9	San Antonio Palopo	4	Abril	2023-10-04T00:00:00	2024-11-08T12:00:00	5	Humedad	42
164505	7	Sololá	712	San Antonio Palopó	9	San Antonio Palopo	4	Abril	2023-10-04T00:00:00	2024-11-08T12:00:00	6	Velocidad del viento	6.4
164506	7	Sololá	712	San Antonio Palopó	9	San Antonio Palopo	4	Abril	2023-10-04T00:00:00	2024-11-08T12:00:00	7	Dirección del viento	6.44
164507	7	Sololá	712	San Antonio Palopó	9	San Antonio Palopo	4	Abril	2023-10-04T00:00:00	2024-11-08T12:00:00	1	Precipitación	0
164508	7	Sololá	712	San Antonio Palopó	9	San Antonio Palopo	4	Abril	2023-10-04T00:00:00	2024-11-08T12:00:00	8	Radiación solar	950
164509	7	Sololá	712	San Antonio Palopó	9	San Antonio Palopo	4	Abril	2023-10-04T00:00:00	2024-11-08T13:00:00	2	Temperatura media	24.5
164510	7	Sololá	712	San Antonio Palopó	9	San Antonio Palopo	4	Abril	2023-10-04T00:00:00	2024-11-08T13:00:00	4	Temperatura máxima	24.8
164511	7	Sololá	712	San Antonio Palopó	9	San Antonio Palopo	4	Abril	2023-10-04T00:00:00	2024-11-08T13:00:00	3	Temperatura mínima	24.1
164512	7	Sololá	712	San Antonio Palopó	9	San Antonio Palopo	4	Abril	2023-10-04T00:00:00	2024-11-08T13:00:00	5	Humedad	60
164513	7	Sololá	712	San Antonio Palopó	9	San Antonio Palopo	4	Abril	2023-10-04T00:00:00	2024-11-08T13:00:00	6	Velocidad del viento	8
164514	7	Sololá	712	San Antonio Palopó	9	San Antonio Palopo	4	Abril	2023-10-04T00:00:00	2024-11-08T13:00:00	7	Dirección del viento	8.05
164515	7	Sololá	712	San Antonio Palopó	9	San Antonio Palopo	4	Abril	2023-10-04T00:00:00	2024-11-08T13:00:00	1	Precipitación	0
164516	7	Sololá	712	San Antonio Palopó	9	San Antonio Palopo	4	Abril	2023-10-04T00:00:00	2024-11-08T13:00:00	8	Radiación solar	985
164517	7	Sololá	712	San Antonio Palopó	9	San Antonio Palopo	4	Abril	2023-10-04T00:00:00	2024-11-08T14:00:00	2	Temperatura media	23.4
164518	7	Sololá	712	San Antonio Palopó	9	San Antonio Palopo	4	Abril	2023-10-04T00:00:00	2024-11-08T14:00:00	4	Temperatura máxima	24.6
164519	7	Sololá	712	San Antonio Palopó	9	San Antonio Palopo	4	Abril	2023-10-04T00:00:00	2024-11-08T14:00:00	3	Temperatura mínima	23.3
164520	7	Sololá	712	San Antonio Palopó	9	San Antonio Palopo	4	Abril	2023-10-04T00:00:00	2024-11-08T14:00:00	5	Humedad	60
164521	7	Sololá	712	San Antonio Palopó	9	San Antonio Palopo	4	Abril	2023-10-04T00:00:00	2024-11-08T14:00:00	6	Velocidad del viento	9.7
164522	7	Sololá	712	San Antonio Palopó	9	San Antonio Palopo	4	Abril	2023-10-04T00:00:00	2024-11-08T14:00:00	7	Dirección del viento	9.66
164523	7	Sololá	712	San Antonio Palopó	9	San Antonio Palopo	4	Abril	2023-10-04T00:00:00	2024-11-08T14:00:00	1	Precipitación	0
164524	7	Sololá	712	San Antonio Palopó	9	San Antonio Palopo	4	Abril	2023-10-04T00:00:00	2024-11-08T14:00:00	8	Radiación solar	516
164525	7	Sololá	712	San Antonio Palopó	9	San Antonio Palopo	4	Abril	2023-10-04T00:00:00	2024-11-08T15:00:00	2	Temperatura media	23.2
164526	7	Sololá	712	San Antonio Palopó	9	San Antonio Palopo	4	Abril	2023-10-04T00:00:00	2024-11-08T15:00:00	4	Temperatura máxima	23.4
164527	7	Sololá	712	San Antonio Palopó	9	San Antonio Palopo	4	Abril	2023-10-04T00:00:00	2024-11-08T15:00:00	3	Temperatura mínima	23.1
164528	7	Sololá	712	San Antonio Palopó	9	San Antonio Palopo	4	Abril	2023-10-04T00:00:00	2024-11-08T15:00:00	5	Humedad	60
164529	7	Sololá	712	San Antonio Palopó	9	San Antonio Palopo	4	Abril	2023-10-04T00:00:00	2024-11-08T15:00:00	6	Velocidad del viento	11.3
164530	7	Sololá	712	San Antonio Palopó	9	San Antonio Palopo	4	Abril	2023-10-04T00:00:00	2024-11-08T15:00:00	7	Dirección del viento	11.27
164531	7	Sololá	712	San Antonio Palopó	9	San Antonio Palopo	4	Abril	2023-10-04T00:00:00	2024-11-08T15:00:00	1	Precipitación	0
164532	7	Sololá	712	San Antonio Palopó	9	San Antonio Palopo	4	Abril	2023-10-04T00:00:00	2024-11-08T15:00:00	8	Radiación solar	229
164533	7	Sololá	712	San Antonio Palopó	9	San Antonio Palopo	4	Abril	2023-10-04T00:00:00	2024-11-08T16:00:00	2	Temperatura media	23.1
164534	7	Sololá	712	San Antonio Palopó	9	San Antonio Palopo	4	Abril	2023-10-04T00:00:00	2024-11-08T16:00:00	4	Temperatura máxima	23.3
164535	7	Sololá	712	San Antonio Palopó	9	San Antonio Palopo	4	Abril	2023-10-04T00:00:00	2024-11-08T16:00:00	3	Temperatura mínima	22.9
164536	7	Sololá	712	San Antonio Palopó	9	San Antonio Palopo	4	Abril	2023-10-04T00:00:00	2024-11-08T16:00:00	5	Humedad	60
164537	7	Sololá	712	San Antonio Palopó	9	San Antonio Palopo	4	Abril	2023-10-04T00:00:00	2024-11-08T16:00:00	6	Velocidad del viento	9.7
164538	7	Sololá	712	San Antonio Palopó	9	San Antonio Palopo	4	Abril	2023-10-04T00:00:00	2024-11-08T16:00:00	7	Dirección del viento	9.66
164539	7	Sololá	712	San Antonio Palopó	9	San Antonio Palopo	4	Abril	2023-10-04T00:00:00	2024-11-08T16:00:00	1	Precipitación	0
164540	7	Sololá	712	San Antonio Palopó	9	San Antonio Palopo	4	Abril	2023-10-04T00:00:00	2024-11-08T16:00:00	8	Radiación solar	203
164541	7	Sololá	712	San Antonio Palopó	9	San Antonio Palopo	4	Abril	2023-10-04T00:00:00	2024-11-08T17:00:00	2	Temperatura media	24.1
164542	7	Sololá	712	San Antonio Palopó	9	San Antonio Palopo	4	Abril	2023-10-04T00:00:00	2024-11-08T17:00:00	4	Temperatura máxima	24.1
164543	7	Sololá	712	San Antonio Palopó	9	San Antonio Palopo	4	Abril	2023-10-04T00:00:00	2024-11-08T17:00:00	3	Temperatura mínima	23.1
164544	7	Sololá	712	San Antonio Palopó	9	San Antonio Palopo	4	Abril	2023-10-04T00:00:00	2024-11-08T17:00:00	5	Humedad	61
164545	7	Sololá	712	San Antonio Palopó	9	San Antonio Palopo	4	Abril	2023-10-04T00:00:00	2024-11-08T17:00:00	6	Velocidad del viento	11.3
164546	7	Sololá	712	San Antonio Palopó	9	San Antonio Palopo	4	Abril	2023-10-04T00:00:00	2024-11-08T17:00:00	7	Dirección del viento	11.27
164547	7	Sololá	712	San Antonio Palopó	9	San Antonio Palopo	4	Abril	2023-10-04T00:00:00	2024-11-08T17:00:00	1	Precipitación	0
164548	7	Sololá	712	San Antonio Palopó	9	San Antonio Palopo	4	Abril	2023-10-04T00:00:00	2024-11-08T17:00:00	8	Radiación solar	354
164549	7	Sololá	712	San Antonio Palopó	9	San Antonio Palopo	4	Abril	2023-10-04T00:00:00	2024-11-08T18:00:00	2	Temperatura media	23
164550	7	Sololá	712	San Antonio Palopó	9	San Antonio Palopo	4	Abril	2023-10-04T00:00:00	2024-11-08T18:00:00	4	Temperatura máxima	24.4
164551	7	Sololá	712	San Antonio Palopó	9	San Antonio Palopo	4	Abril	2023-10-04T00:00:00	2024-11-08T18:00:00	3	Temperatura mínima	22.8
164552	7	Sololá	712	San Antonio Palopó	9	San Antonio Palopo	4	Abril	2023-10-04T00:00:00	2024-11-08T18:00:00	5	Humedad	44
164553	7	Sololá	712	San Antonio Palopó	9	San Antonio Palopo	4	Abril	2023-10-04T00:00:00	2024-11-08T18:00:00	6	Velocidad del viento	9.7
164554	7	Sololá	712	San Antonio Palopó	9	San Antonio Palopo	4	Abril	2023-10-04T00:00:00	2024-11-08T18:00:00	7	Dirección del viento	9.66
164555	7	Sololá	712	San Antonio Palopó	9	San Antonio Palopo	4	Abril	2023-10-04T00:00:00	2024-11-08T18:00:00	1	Precipitación	0
164556	7	Sololá	712	San Antonio Palopó	9	San Antonio Palopo	4	Abril	2023-10-04T00:00:00	2024-11-08T18:00:00	8	Radiación solar	102
164557	7	Sololá	712	San Antonio Palopó	9	San Antonio Palopo	4	Abril	2023-10-04T00:00:00	2024-11-08T19:00:00	2	Temperatura media	21.2
164558	7	Sololá	712	San Antonio Palopó	9	San Antonio Palopo	4	Abril	2023-10-04T00:00:00	2024-11-08T19:00:00	4	Temperatura máxima	23
164559	7	Sololá	712	San Antonio Palopó	9	San Antonio Palopo	4	Abril	2023-10-04T00:00:00	2024-11-08T19:00:00	3	Temperatura mínima	21.2
164560	7	Sololá	712	San Antonio Palopó	9	San Antonio Palopo	4	Abril	2023-10-04T00:00:00	2024-11-08T19:00:00	5	Humedad	49
164561	7	Sololá	712	San Antonio Palopó	9	San Antonio Palopo	4	Abril	2023-10-04T00:00:00	2024-11-08T19:00:00	6	Velocidad del viento	6.4
164562	7	Sololá	712	San Antonio Palopó	9	San Antonio Palopo	4	Abril	2023-10-04T00:00:00	2024-11-08T19:00:00	7	Dirección del viento	6.44
164563	7	Sololá	712	San Antonio Palopó	9	San Antonio Palopo	4	Abril	2023-10-04T00:00:00	2024-11-08T19:00:00	1	Precipitación	0
164564	7	Sololá	712	San Antonio Palopó	9	San Antonio Palopo	4	Abril	2023-10-04T00:00:00	2024-11-08T19:00:00	8	Radiación solar	0
164565	7	Sololá	712	San Antonio Palopó	9	San Antonio Palopo	4	Abril	2023-10-04T00:00:00	2024-11-08T20:00:00	2	Temperatura media	19.7
164566	7	Sololá	712	San Antonio Palopó	9	San Antonio Palopo	4	Abril	2023-10-04T00:00:00	2024-11-08T20:00:00	4	Temperatura máxima	21.2
164567	7	Sololá	712	San Antonio Palopó	9	San Antonio Palopo	4	Abril	2023-10-04T00:00:00	2024-11-08T20:00:00	3	Temperatura mínima	19.7
164568	7	Sololá	712	San Antonio Palopó	9	San Antonio Palopo	4	Abril	2023-10-04T00:00:00	2024-11-08T20:00:00	5	Humedad	54
164569	7	Sololá	712	San Antonio Palopó	9	San Antonio Palopo	4	Abril	2023-10-04T00:00:00	2024-11-08T20:00:00	6	Velocidad del viento	3.2
164570	7	Sololá	712	San Antonio Palopó	9	San Antonio Palopo	4	Abril	2023-10-04T00:00:00	2024-11-08T20:00:00	7	Dirección del viento	3.22
164571	7	Sololá	712	San Antonio Palopó	9	San Antonio Palopo	4	Abril	2023-10-04T00:00:00	2024-11-08T20:00:00	1	Precipitación	0
164572	7	Sololá	712	San Antonio Palopó	9	San Antonio Palopo	4	Abril	2023-10-04T00:00:00	2024-11-08T20:00:00	8	Radiación solar	0
164573	7	Sololá	712	San Antonio Palopó	9	San Antonio Palopo	4	Abril	2023-10-04T00:00:00	2024-11-08T21:00:00	2	Temperatura media	18.4
164574	7	Sololá	712	San Antonio Palopó	9	San Antonio Palopo	4	Abril	2023-10-04T00:00:00	2024-11-08T21:00:00	4	Temperatura máxima	19.7
164575	7	Sololá	712	San Antonio Palopó	9	San Antonio Palopo	4	Abril	2023-10-04T00:00:00	2024-11-08T21:00:00	3	Temperatura mínima	18.4
164576	7	Sololá	712	San Antonio Palopó	9	San Antonio Palopo	4	Abril	2023-10-04T00:00:00	2024-11-08T21:00:00	5	Humedad	58
164577	7	Sololá	712	San Antonio Palopó	9	San Antonio Palopo	4	Abril	2023-10-04T00:00:00	2024-11-08T21:00:00	6	Velocidad del viento	3.2
164578	7	Sololá	712	San Antonio Palopó	9	San Antonio Palopo	4	Abril	2023-10-04T00:00:00	2024-11-08T21:00:00	7	Dirección del viento	3.22
164579	7	Sololá	712	San Antonio Palopó	9	San Antonio Palopo	4	Abril	2023-10-04T00:00:00	2024-11-08T21:00:00	1	Precipitación	0
164580	7	Sololá	712	San Antonio Palopó	9	San Antonio Palopo	4	Abril	2023-10-04T00:00:00	2024-11-08T21:00:00	8	Radiación solar	0
164581	7	Sololá	712	San Antonio Palopó	9	San Antonio Palopo	4	Abril	2023-10-04T00:00:00	2024-11-08T22:00:00	2	Temperatura media	17.9
164582	7	Sololá	712	San Antonio Palopó	9	San Antonio Palopo	4	Abril	2023-10-04T00:00:00	2024-11-08T22:00:00	4	Temperatura máxima	18.8
164583	7	Sololá	712	San Antonio Palopó	9	San Antonio Palopo	4	Abril	2023-10-04T00:00:00	2024-11-08T22:00:00	3	Temperatura mínima	17.9
164584	7	Sololá	712	San Antonio Palopó	9	San Antonio Palopo	4	Abril	2023-10-04T00:00:00	2024-11-08T22:00:00	5	Humedad	49
164585	7	Sololá	712	San Antonio Palopó	9	San Antonio Palopo	4	Abril	2023-10-04T00:00:00	2024-11-08T22:00:00	6	Velocidad del viento	4.8
164586	7	Sololá	712	San Antonio Palopó	9	San Antonio Palopo	4	Abril	2023-10-04T00:00:00	2024-11-08T22:00:00	7	Dirección del viento	4.83
164587	7	Sololá	712	San Antonio Palopó	9	San Antonio Palopo	4	Abril	2023-10-04T00:00:00	2024-11-08T22:00:00	1	Precipitación	0
164588	7	Sololá	712	San Antonio Palopó	9	San Antonio Palopo	4	Abril	2023-10-04T00:00:00	2024-11-08T22:00:00	8	Radiación solar	0
164589	7	Sololá	712	San Antonio Palopó	9	San Antonio Palopo	4	Abril	2023-10-04T00:00:00	2024-11-08T23:00:00	2	Temperatura media	17.7
164590	7	Sololá	712	San Antonio Palopó	9	San Antonio Palopo	4	Abril	2023-10-04T00:00:00	2024-11-08T23:00:00	4	Temperatura máxima	18.1
164591	7	Sololá	712	San Antonio Palopó	9	San Antonio Palopo	4	Abril	2023-10-04T00:00:00	2024-11-08T23:00:00	3	Temperatura mínima	17.5
164592	7	Sololá	712	San Antonio Palopó	9	San Antonio Palopo	4	Abril	2023-10-04T00:00:00	2024-11-08T23:00:00	5	Humedad	53
164593	7	Sololá	712	San Antonio Palopó	9	San Antonio Palopo	4	Abril	2023-10-04T00:00:00	2024-11-08T23:00:00	6	Velocidad del viento	4.8
164594	7	Sololá	712	San Antonio Palopó	9	San Antonio Palopo	4	Abril	2023-10-04T00:00:00	2024-11-08T23:00:00	7	Dirección del viento	4.83
164595	7	Sololá	712	San Antonio Palopó	9	San Antonio Palopo	4	Abril	2023-10-04T00:00:00	2024-11-08T23:00:00	1	Precipitación	0
164596	7	Sololá	712	San Antonio Palopó	9	San Antonio Palopo	4	Abril	2023-10-04T00:00:00	2024-11-08T23:00:00	8	Radiación solar	0
164597	7	Sololá	712	San Antonio Palopó	9	San Antonio Palopo	4	Abril	2023-11-04T00:00:00	2024-11-08T00:00:00	2	Temperatura media	18.6
164598	7	Sololá	712	San Antonio Palopó	9	San Antonio Palopo	4	Abril	2023-11-04T00:00:00	2024-11-08T00:00:00	4	Temperatura máxima	18.9
164599	7	Sololá	712	San Antonio Palopó	9	San Antonio Palopo	4	Abril	2023-11-04T00:00:00	2024-11-08T00:00:00	3	Temperatura mínima	17.7
164600	7	Sololá	712	San Antonio Palopó	9	San Antonio Palopo	4	Abril	2023-11-04T00:00:00	2024-11-08T00:00:00	5	Humedad	52
164601	7	Sololá	712	San Antonio Palopó	9	San Antonio Palopo	4	Abril	2023-11-04T00:00:00	2024-11-08T00:00:00	6	Velocidad del viento	8
164602	7	Sololá	712	San Antonio Palopó	9	San Antonio Palopo	4	Abril	2023-11-04T00:00:00	2024-11-08T00:00:00	7	Dirección del viento	8.05
164603	7	Sololá	712	San Antonio Palopó	9	San Antonio Palopo	4	Abril	2023-11-04T00:00:00	2024-11-08T00:00:00	1	Precipitación	0
164604	7	Sololá	712	San Antonio Palopó	9	San Antonio Palopo	4	Abril	2023-11-04T00:00:00	2024-11-08T00:00:00	8	Radiación solar	0
164605	7	Sololá	712	San Antonio Palopó	9	San Antonio Palopo	4	Abril	2023-11-04T00:00:00	2024-11-08T01:00:00	2	Temperatura media	18.1
164606	7	Sololá	712	San Antonio Palopó	9	San Antonio Palopo	4	Abril	2023-11-04T00:00:00	2024-11-08T01:00:00	4	Temperatura máxima	19
164607	7	Sololá	712	San Antonio Palopó	9	San Antonio Palopo	4	Abril	2023-11-04T00:00:00	2024-11-08T01:00:00	3	Temperatura mínima	18.1
164608	7	Sololá	712	San Antonio Palopó	9	San Antonio Palopo	4	Abril	2023-11-04T00:00:00	2024-11-08T01:00:00	5	Humedad	56
164609	7	Sololá	712	San Antonio Palopó	9	San Antonio Palopo	4	Abril	2023-11-04T00:00:00	2024-11-08T01:00:00	6	Velocidad del viento	8
164610	7	Sololá	712	San Antonio Palopó	9	San Antonio Palopo	4	Abril	2023-11-04T00:00:00	2024-11-08T01:00:00	7	Dirección del viento	8.05
164611	7	Sololá	712	San Antonio Palopó	9	San Antonio Palopo	4	Abril	2023-11-04T00:00:00	2024-11-08T01:00:00	1	Precipitación	0
164612	7	Sololá	712	San Antonio Palopó	9	San Antonio Palopo	4	Abril	2023-11-04T00:00:00	2024-11-08T01:00:00	8	Radiación solar	0
164613	7	Sololá	712	San Antonio Palopó	9	San Antonio Palopo	4	Abril	2023-11-04T00:00:00	2024-11-08T02:00:00	2	Temperatura media	17.6
164614	7	Sololá	712	San Antonio Palopó	9	San Antonio Palopo	4	Abril	2023-11-04T00:00:00	2024-11-08T02:00:00	4	Temperatura máxima	18.2
164615	7	Sololá	712	San Antonio Palopó	9	San Antonio Palopo	4	Abril	2023-11-04T00:00:00	2024-11-08T02:00:00	3	Temperatura mínima	17.2
164616	7	Sololá	712	San Antonio Palopó	9	San Antonio Palopo	4	Abril	2023-11-04T00:00:00	2024-11-08T02:00:00	5	Humedad	58
164617	7	Sololá	712	San Antonio Palopó	9	San Antonio Palopo	4	Abril	2023-11-04T00:00:00	2024-11-08T02:00:00	6	Velocidad del viento	8
164618	7	Sololá	712	San Antonio Palopó	9	San Antonio Palopo	4	Abril	2023-11-04T00:00:00	2024-11-08T02:00:00	7	Dirección del viento	8.05
164619	7	Sololá	712	San Antonio Palopó	9	San Antonio Palopo	4	Abril	2023-11-04T00:00:00	2024-11-08T02:00:00	1	Precipitación	0
164620	7	Sololá	712	San Antonio Palopó	9	San Antonio Palopo	4	Abril	2023-11-04T00:00:00	2024-11-08T02:00:00	8	Radiación solar	0
164621	7	Sololá	712	San Antonio Palopó	9	San Antonio Palopo	4	Abril	2023-11-04T00:00:00	2024-11-08T03:00:00	2	Temperatura media	17.8
164622	7	Sololá	712	San Antonio Palopó	9	San Antonio Palopo	4	Abril	2023-11-04T00:00:00	2024-11-08T03:00:00	4	Temperatura máxima	17.8
164623	7	Sololá	712	San Antonio Palopó	9	San Antonio Palopo	4	Abril	2023-11-04T00:00:00	2024-11-08T03:00:00	3	Temperatura mínima	17.3
164624	7	Sololá	712	San Antonio Palopó	9	San Antonio Palopo	4	Abril	2023-11-04T00:00:00	2024-11-08T03:00:00	5	Humedad	59
164625	7	Sololá	712	San Antonio Palopó	9	San Antonio Palopo	4	Abril	2023-11-04T00:00:00	2024-11-08T03:00:00	6	Velocidad del viento	6.4
164626	7	Sololá	712	San Antonio Palopó	9	San Antonio Palopo	4	Abril	2023-11-04T00:00:00	2024-11-08T03:00:00	7	Dirección del viento	6.44
164627	7	Sololá	712	San Antonio Palopó	9	San Antonio Palopo	4	Abril	2023-11-04T00:00:00	2024-11-08T03:00:00	1	Precipitación	0
164628	7	Sololá	712	San Antonio Palopó	9	San Antonio Palopo	4	Abril	2023-11-04T00:00:00	2024-11-08T03:00:00	8	Radiación solar	0
164629	7	Sololá	712	San Antonio Palopó	9	San Antonio Palopo	4	Abril	2023-11-04T00:00:00	2024-11-08T04:00:00	2	Temperatura media	17.1
164630	7	Sololá	712	San Antonio Palopó	9	San Antonio Palopo	4	Abril	2023-11-04T00:00:00	2024-11-08T04:00:00	4	Temperatura máxima	17.8
164631	7	Sololá	712	San Antonio Palopó	9	San Antonio Palopo	4	Abril	2023-11-04T00:00:00	2024-11-08T04:00:00	3	Temperatura mínima	17
164632	7	Sololá	712	San Antonio Palopó	9	San Antonio Palopo	4	Abril	2023-11-04T00:00:00	2024-11-08T04:00:00	5	Humedad	61
164633	7	Sololá	712	San Antonio Palopó	9	San Antonio Palopo	4	Abril	2023-11-04T00:00:00	2024-11-08T04:00:00	6	Velocidad del viento	6.4
164634	7	Sololá	712	San Antonio Palopó	9	San Antonio Palopo	4	Abril	2023-11-04T00:00:00	2024-11-08T04:00:00	7	Dirección del viento	6.44
164635	7	Sololá	712	San Antonio Palopó	9	San Antonio Palopo	4	Abril	2023-11-04T00:00:00	2024-11-08T04:00:00	1	Precipitación	0
164636	7	Sololá	712	San Antonio Palopó	9	San Antonio Palopo	4	Abril	2023-11-04T00:00:00	2024-11-08T04:00:00	8	Radiación solar	0
164637	7	Sololá	712	San Antonio Palopó	9	San Antonio Palopo	4	Abril	2023-11-04T00:00:00	2024-11-08T05:00:00	2	Temperatura media	16.5
164638	7	Sololá	712	San Antonio Palopó	9	San Antonio Palopo	4	Abril	2023-11-04T00:00:00	2024-11-08T05:00:00	4	Temperatura máxima	17.1
164639	7	Sololá	712	San Antonio Palopó	9	San Antonio Palopo	4	Abril	2023-11-04T00:00:00	2024-11-08T05:00:00	3	Temperatura mínima	16.3
164640	7	Sololá	712	San Antonio Palopó	9	San Antonio Palopo	4	Abril	2023-11-04T00:00:00	2024-11-08T05:00:00	5	Humedad	62
164641	7	Sololá	712	San Antonio Palopó	9	San Antonio Palopo	4	Abril	2023-11-04T00:00:00	2024-11-08T05:00:00	6	Velocidad del viento	8
164642	7	Sololá	712	San Antonio Palopó	9	San Antonio Palopo	4	Abril	2023-11-04T00:00:00	2024-11-08T05:00:00	7	Dirección del viento	8.05
164643	7	Sololá	712	San Antonio Palopó	9	San Antonio Palopo	4	Abril	2023-11-04T00:00:00	2024-11-08T05:00:00	1	Precipitación	0
164644	7	Sololá	712	San Antonio Palopó	9	San Antonio Palopo	4	Abril	2023-11-04T00:00:00	2024-11-08T05:00:00	8	Radiación solar	0
164645	7	Sololá	712	San Antonio Palopó	9	San Antonio Palopo	4	Abril	2023-11-04T00:00:00	2024-11-08T06:00:00	2	Temperatura media	16.8
164646	7	Sololá	712	San Antonio Palopó	9	San Antonio Palopo	4	Abril	2023-11-04T00:00:00	2024-11-08T06:00:00	4	Temperatura máxima	17
164647	7	Sololá	712	San Antonio Palopó	9	San Antonio Palopo	4	Abril	2023-11-04T00:00:00	2024-11-08T06:00:00	3	Temperatura mínima	16.5
164648	7	Sololá	712	San Antonio Palopó	9	San Antonio Palopo	4	Abril	2023-11-04T00:00:00	2024-11-08T06:00:00	5	Humedad	64
164649	7	Sololá	712	San Antonio Palopó	9	San Antonio Palopo	4	Abril	2023-11-04T00:00:00	2024-11-08T06:00:00	6	Velocidad del viento	4.8
164650	7	Sololá	712	San Antonio Palopó	9	San Antonio Palopo	4	Abril	2023-11-04T00:00:00	2024-11-08T06:00:00	7	Dirección del viento	4.83
164651	7	Sololá	712	San Antonio Palopó	9	San Antonio Palopo	4	Abril	2023-11-04T00:00:00	2024-11-08T06:00:00	1	Precipitación	0
164652	7	Sololá	712	San Antonio Palopó	9	San Antonio Palopo	4	Abril	2023-11-04T00:00:00	2024-11-08T06:00:00	8	Radiación solar	0
164653	7	Sololá	712	San Antonio Palopó	9	San Antonio Palopo	4	Abril	2023-11-04T00:00:00	2024-11-08T07:00:00	2	Temperatura media	16.9
164654	7	Sololá	712	San Antonio Palopó	9	San Antonio Palopo	4	Abril	2023-11-04T00:00:00	2024-11-08T07:00:00	4	Temperatura máxima	17.4
164655	7	Sololá	712	San Antonio Palopó	9	San Antonio Palopo	4	Abril	2023-11-04T00:00:00	2024-11-08T07:00:00	3	Temperatura mínima	16.6
164656	7	Sololá	712	San Antonio Palopó	9	San Antonio Palopo	4	Abril	2023-11-04T00:00:00	2024-11-08T07:00:00	5	Humedad	63
164657	7	Sololá	712	San Antonio Palopó	9	San Antonio Palopo	4	Abril	2023-11-04T00:00:00	2024-11-08T07:00:00	6	Velocidad del viento	3.2
164658	7	Sololá	712	San Antonio Palopó	9	San Antonio Palopo	4	Abril	2023-11-04T00:00:00	2024-11-08T07:00:00	7	Dirección del viento	3.22
164659	7	Sololá	712	San Antonio Palopó	9	San Antonio Palopo	4	Abril	2023-11-04T00:00:00	2024-11-08T07:00:00	1	Precipitación	0
164660	7	Sololá	712	San Antonio Palopó	9	San Antonio Palopo	4	Abril	2023-11-04T00:00:00	2024-11-08T07:00:00	8	Radiación solar	16
164661	7	Sololá	712	San Antonio Palopó	9	San Antonio Palopo	4	Abril	2023-11-04T00:00:00	2024-11-08T08:00:00	2	Temperatura media	17.9
164662	7	Sololá	712	San Antonio Palopó	9	San Antonio Palopo	4	Abril	2023-11-04T00:00:00	2024-11-08T08:00:00	4	Temperatura máxima	17.9
164663	7	Sololá	712	San Antonio Palopó	9	San Antonio Palopo	4	Abril	2023-11-04T00:00:00	2024-11-08T08:00:00	3	Temperatura mínima	16.6
164664	7	Sololá	712	San Antonio Palopó	9	San Antonio Palopo	4	Abril	2023-11-04T00:00:00	2024-11-08T08:00:00	5	Humedad	62
164665	7	Sololá	712	San Antonio Palopó	9	San Antonio Palopo	4	Abril	2023-11-04T00:00:00	2024-11-08T08:00:00	6	Velocidad del viento	4.8
164666	7	Sololá	712	San Antonio Palopó	9	San Antonio Palopo	4	Abril	2023-11-04T00:00:00	2024-11-08T08:00:00	7	Dirección del viento	4.83
164667	7	Sololá	712	San Antonio Palopó	9	San Antonio Palopo	4	Abril	2023-11-04T00:00:00	2024-11-08T08:00:00	1	Precipitación	0
164668	7	Sololá	712	San Antonio Palopó	9	San Antonio Palopo	4	Abril	2023-11-04T00:00:00	2024-11-08T08:00:00	8	Radiación solar	107
164669	7	Sololá	712	San Antonio Palopó	9	San Antonio Palopo	4	Abril	2023-11-04T00:00:00	2024-11-08T09:00:00	2	Temperatura media	20.9
164670	7	Sololá	712	San Antonio Palopó	9	San Antonio Palopo	4	Abril	2023-11-04T00:00:00	2024-11-08T09:00:00	4	Temperatura máxima	20.9
164671	7	Sololá	712	San Antonio Palopó	9	San Antonio Palopo	4	Abril	2023-11-04T00:00:00	2024-11-08T09:00:00	3	Temperatura mínima	17.9
164672	7	Sololá	712	San Antonio Palopó	9	San Antonio Palopo	4	Abril	2023-11-04T00:00:00	2024-11-08T09:00:00	5	Humedad	52
164673	7	Sololá	712	San Antonio Palopó	9	San Antonio Palopo	4	Abril	2023-11-04T00:00:00	2024-11-08T09:00:00	6	Velocidad del viento	3.2
164674	7	Sololá	712	San Antonio Palopó	9	San Antonio Palopo	4	Abril	2023-11-04T00:00:00	2024-11-08T09:00:00	7	Dirección del viento	3.22
164675	7	Sololá	712	San Antonio Palopó	9	San Antonio Palopo	4	Abril	2023-11-04T00:00:00	2024-11-08T09:00:00	1	Precipitación	0
164676	7	Sololá	712	San Antonio Palopó	9	San Antonio Palopo	4	Abril	2023-11-04T00:00:00	2024-11-08T09:00:00	8	Radiación solar	455
164677	7	Sololá	712	San Antonio Palopó	9	San Antonio Palopo	4	Abril	2023-11-04T00:00:00	2024-11-08T10:00:00	2	Temperatura media	22.3
164678	7	Sololá	712	San Antonio Palopó	9	San Antonio Palopo	4	Abril	2023-11-04T00:00:00	2024-11-08T10:00:00	4	Temperatura máxima	22.3
164679	7	Sololá	712	San Antonio Palopó	9	San Antonio Palopo	4	Abril	2023-11-04T00:00:00	2024-11-08T10:00:00	3	Temperatura mínima	20.8
164680	7	Sololá	712	San Antonio Palopó	9	San Antonio Palopo	4	Abril	2023-11-04T00:00:00	2024-11-08T10:00:00	5	Humedad	50
164681	7	Sololá	712	San Antonio Palopó	9	San Antonio Palopo	4	Abril	2023-11-04T00:00:00	2024-11-08T10:00:00	6	Velocidad del viento	4.8
164682	7	Sololá	712	San Antonio Palopó	9	San Antonio Palopo	4	Abril	2023-11-04T00:00:00	2024-11-08T10:00:00	7	Dirección del viento	4.83
164683	7	Sololá	712	San Antonio Palopó	9	San Antonio Palopo	4	Abril	2023-11-04T00:00:00	2024-11-08T10:00:00	1	Precipitación	0
164684	7	Sololá	712	San Antonio Palopó	9	San Antonio Palopo	4	Abril	2023-11-04T00:00:00	2024-11-08T10:00:00	8	Radiación solar	589
164685	7	Sololá	712	San Antonio Palopó	9	San Antonio Palopo	4	Abril	2023-11-04T00:00:00	2024-11-08T11:00:00	2	Temperatura media	22.9
164686	7	Sololá	712	San Antonio Palopó	9	San Antonio Palopo	4	Abril	2023-11-04T00:00:00	2024-11-08T11:00:00	4	Temperatura máxima	23.1
164687	7	Sololá	712	San Antonio Palopó	9	San Antonio Palopo	4	Abril	2023-11-04T00:00:00	2024-11-08T11:00:00	3	Temperatura mínima	22.3
164688	7	Sololá	712	San Antonio Palopó	9	San Antonio Palopo	4	Abril	2023-11-04T00:00:00	2024-11-08T11:00:00	5	Humedad	49
164689	7	Sololá	712	San Antonio Palopó	9	San Antonio Palopo	4	Abril	2023-11-04T00:00:00	2024-11-08T11:00:00	6	Velocidad del viento	3.2
164690	7	Sololá	712	San Antonio Palopó	9	San Antonio Palopo	4	Abril	2023-11-04T00:00:00	2024-11-08T11:00:00	7	Dirección del viento	3.22
164691	7	Sololá	712	San Antonio Palopó	9	San Antonio Palopo	4	Abril	2023-11-04T00:00:00	2024-11-08T11:00:00	1	Precipitación	0
164692	7	Sololá	712	San Antonio Palopó	9	San Antonio Palopo	4	Abril	2023-11-04T00:00:00	2024-11-08T11:00:00	8	Radiación solar	793
164693	7	Sololá	712	San Antonio Palopó	9	San Antonio Palopo	4	Abril	2023-11-04T00:00:00	2024-11-08T12:00:00	2	Temperatura media	24.2
164694	7	Sololá	712	San Antonio Palopó	9	San Antonio Palopo	4	Abril	2023-11-04T00:00:00	2024-11-08T12:00:00	4	Temperatura máxima	24.6
164695	7	Sololá	712	San Antonio Palopó	9	San Antonio Palopo	4	Abril	2023-11-04T00:00:00	2024-11-08T12:00:00	3	Temperatura mínima	22.9
164696	7	Sololá	712	San Antonio Palopó	9	San Antonio Palopo	4	Abril	2023-11-04T00:00:00	2024-11-08T12:00:00	5	Humedad	61
164697	7	Sololá	712	San Antonio Palopó	9	San Antonio Palopo	4	Abril	2023-11-04T00:00:00	2024-11-08T12:00:00	6	Velocidad del viento	4.8
164698	7	Sololá	712	San Antonio Palopó	9	San Antonio Palopo	4	Abril	2023-11-04T00:00:00	2024-11-08T12:00:00	7	Dirección del viento	4.83
164699	7	Sololá	712	San Antonio Palopó	9	San Antonio Palopo	4	Abril	2023-11-04T00:00:00	2024-11-08T12:00:00	1	Precipitación	0
164700	7	Sololá	712	San Antonio Palopó	9	San Antonio Palopo	4	Abril	2023-11-04T00:00:00	2024-11-08T12:00:00	8	Radiación solar	954
164701	7	Sololá	712	San Antonio Palopó	9	San Antonio Palopo	4	Abril	2023-11-04T00:00:00	2024-11-08T13:00:00	2	Temperatura media	24
164702	7	Sololá	712	San Antonio Palopó	9	San Antonio Palopo	4	Abril	2023-11-04T00:00:00	2024-11-08T13:00:00	4	Temperatura máxima	24.4
164703	7	Sololá	712	San Antonio Palopó	9	San Antonio Palopo	4	Abril	2023-11-04T00:00:00	2024-11-08T13:00:00	3	Temperatura mínima	23.8
164704	7	Sololá	712	San Antonio Palopó	9	San Antonio Palopo	4	Abril	2023-11-04T00:00:00	2024-11-08T13:00:00	5	Humedad	57
164705	7	Sololá	712	San Antonio Palopó	9	San Antonio Palopo	4	Abril	2023-11-04T00:00:00	2024-11-08T13:00:00	6	Velocidad del viento	11.3
164706	7	Sololá	712	San Antonio Palopó	9	San Antonio Palopo	4	Abril	2023-11-04T00:00:00	2024-11-08T13:00:00	7	Dirección del viento	11.27
164707	7	Sololá	712	San Antonio Palopó	9	San Antonio Palopo	4	Abril	2023-11-04T00:00:00	2024-11-08T13:00:00	1	Precipitación	0
164708	7	Sololá	712	San Antonio Palopó	9	San Antonio Palopo	4	Abril	2023-11-04T00:00:00	2024-11-08T13:00:00	8	Radiación solar	954
164709	7	Sololá	712	San Antonio Palopó	9	San Antonio Palopo	4	Abril	2023-11-04T00:00:00	2024-11-08T14:00:00	2	Temperatura media	23.7
164710	7	Sololá	712	San Antonio Palopó	9	San Antonio Palopo	4	Abril	2023-11-04T00:00:00	2024-11-08T14:00:00	4	Temperatura máxima	24.1
164711	7	Sololá	712	San Antonio Palopó	9	San Antonio Palopo	4	Abril	2023-11-04T00:00:00	2024-11-08T14:00:00	3	Temperatura mínima	23.4
164712	7	Sololá	712	San Antonio Palopó	9	San Antonio Palopo	4	Abril	2023-11-04T00:00:00	2024-11-08T14:00:00	5	Humedad	59
164713	7	Sololá	712	San Antonio Palopó	9	San Antonio Palopo	4	Abril	2023-11-04T00:00:00	2024-11-08T14:00:00	6	Velocidad del viento	14.5
164714	7	Sololá	712	San Antonio Palopó	9	San Antonio Palopo	4	Abril	2023-11-04T00:00:00	2024-11-08T14:00:00	7	Dirección del viento	14.48
164715	7	Sololá	712	San Antonio Palopó	9	San Antonio Palopo	4	Abril	2023-11-04T00:00:00	2024-11-08T14:00:00	1	Precipitación	0
164716	7	Sololá	712	San Antonio Palopó	9	San Antonio Palopo	4	Abril	2023-11-04T00:00:00	2024-11-08T14:00:00	8	Radiación solar	862
164717	7	Sololá	712	San Antonio Palopó	9	San Antonio Palopo	4	Abril	2023-11-04T00:00:00	2024-11-08T15:00:00	2	Temperatura media	25.2
164718	7	Sololá	712	San Antonio Palopó	9	San Antonio Palopo	4	Abril	2023-11-04T00:00:00	2024-11-08T15:00:00	4	Temperatura máxima	25.2
164719	7	Sololá	712	San Antonio Palopó	9	San Antonio Palopo	4	Abril	2023-11-04T00:00:00	2024-11-08T15:00:00	3	Temperatura mínima	23.5
164720	7	Sololá	712	San Antonio Palopó	9	San Antonio Palopo	4	Abril	2023-11-04T00:00:00	2024-11-08T15:00:00	5	Humedad	55
164721	7	Sololá	712	San Antonio Palopó	9	San Antonio Palopo	4	Abril	2023-11-04T00:00:00	2024-11-08T15:00:00	6	Velocidad del viento	8
164722	7	Sololá	712	San Antonio Palopó	9	San Antonio Palopo	4	Abril	2023-11-04T00:00:00	2024-11-08T15:00:00	7	Dirección del viento	8.05
164723	7	Sololá	712	San Antonio Palopó	9	San Antonio Palopo	4	Abril	2023-11-04T00:00:00	2024-11-08T15:00:00	1	Precipitación	0
164724	7	Sololá	712	San Antonio Palopó	9	San Antonio Palopo	4	Abril	2023-11-04T00:00:00	2024-11-08T15:00:00	8	Radiación solar	656
164725	7	Sololá	712	San Antonio Palopó	9	San Antonio Palopo	4	Abril	2023-11-04T00:00:00	2024-11-08T16:00:00	2	Temperatura media	23.6
164726	7	Sololá	712	San Antonio Palopó	9	San Antonio Palopo	4	Abril	2023-11-04T00:00:00	2024-11-08T16:00:00	4	Temperatura máxima	25.3
164727	7	Sololá	712	San Antonio Palopó	9	San Antonio Palopo	4	Abril	2023-11-04T00:00:00	2024-11-08T16:00:00	3	Temperatura mínima	23.6
164728	7	Sololá	712	San Antonio Palopó	9	San Antonio Palopo	4	Abril	2023-11-04T00:00:00	2024-11-08T16:00:00	5	Humedad	61
164729	7	Sololá	712	San Antonio Palopó	9	San Antonio Palopo	4	Abril	2023-11-04T00:00:00	2024-11-08T16:00:00	6	Velocidad del viento	8
164730	7	Sololá	712	San Antonio Palopó	9	San Antonio Palopo	4	Abril	2023-11-04T00:00:00	2024-11-08T16:00:00	7	Dirección del viento	8.05
164731	7	Sololá	712	San Antonio Palopó	9	San Antonio Palopo	4	Abril	2023-11-04T00:00:00	2024-11-08T16:00:00	1	Precipitación	0
164732	7	Sololá	712	San Antonio Palopó	9	San Antonio Palopo	4	Abril	2023-11-04T00:00:00	2024-11-08T16:00:00	8	Radiación solar	458
164733	7	Sololá	712	San Antonio Palopó	9	San Antonio Palopo	4	Abril	2023-11-04T00:00:00	2024-11-08T17:00:00	2	Temperatura media	22.3
164734	7	Sololá	712	San Antonio Palopó	9	San Antonio Palopo	4	Abril	2023-11-04T00:00:00	2024-11-08T17:00:00	4	Temperatura máxima	23.6
164735	7	Sololá	712	San Antonio Palopó	9	San Antonio Palopo	4	Abril	2023-11-04T00:00:00	2024-11-08T17:00:00	3	Temperatura mínima	22.2
164736	7	Sololá	712	San Antonio Palopó	9	San Antonio Palopo	4	Abril	2023-11-04T00:00:00	2024-11-08T17:00:00	5	Humedad	71
164737	7	Sololá	712	San Antonio Palopó	9	San Antonio Palopo	4	Abril	2023-11-04T00:00:00	2024-11-08T17:00:00	6	Velocidad del viento	8
164738	7	Sololá	712	San Antonio Palopó	9	San Antonio Palopo	4	Abril	2023-11-04T00:00:00	2024-11-08T17:00:00	7	Dirección del viento	8.05
164739	7	Sololá	712	San Antonio Palopó	9	San Antonio Palopo	4	Abril	2023-11-04T00:00:00	2024-11-08T17:00:00	1	Precipitación	0
164740	7	Sololá	712	San Antonio Palopó	9	San Antonio Palopo	4	Abril	2023-11-04T00:00:00	2024-11-08T17:00:00	8	Radiación solar	168
164741	7	Sololá	712	San Antonio Palopó	9	San Antonio Palopo	4	Abril	2023-11-04T00:00:00	2024-11-08T18:00:00	2	Temperatura media	21.4
164742	7	Sololá	712	San Antonio Palopó	9	San Antonio Palopo	4	Abril	2023-11-04T00:00:00	2024-11-08T18:00:00	4	Temperatura máxima	22.7
164743	7	Sololá	712	San Antonio Palopó	9	San Antonio Palopo	4	Abril	2023-11-04T00:00:00	2024-11-08T18:00:00	3	Temperatura mínima	21.3
164744	7	Sololá	712	San Antonio Palopó	9	San Antonio Palopo	4	Abril	2023-11-04T00:00:00	2024-11-08T18:00:00	5	Humedad	77
164745	7	Sololá	712	San Antonio Palopó	9	San Antonio Palopo	4	Abril	2023-11-04T00:00:00	2024-11-08T18:00:00	6	Velocidad del viento	6.4
164746	7	Sololá	712	San Antonio Palopó	9	San Antonio Palopo	4	Abril	2023-11-04T00:00:00	2024-11-08T18:00:00	7	Dirección del viento	6.44
164747	7	Sololá	712	San Antonio Palopó	9	San Antonio Palopo	4	Abril	2023-11-04T00:00:00	2024-11-08T18:00:00	1	Precipitación	0
164748	7	Sololá	712	San Antonio Palopó	9	San Antonio Palopo	4	Abril	2023-11-04T00:00:00	2024-11-08T18:00:00	8	Radiación solar	97
164749	7	Sololá	712	San Antonio Palopó	9	San Antonio Palopo	4	Abril	2023-11-04T00:00:00	2024-11-08T19:00:00	2	Temperatura media	20.6
164750	7	Sololá	712	San Antonio Palopó	9	San Antonio Palopo	4	Abril	2023-11-04T00:00:00	2024-11-08T19:00:00	4	Temperatura máxima	21.4
164751	7	Sololá	712	San Antonio Palopó	9	San Antonio Palopo	4	Abril	2023-11-04T00:00:00	2024-11-08T19:00:00	3	Temperatura mínima	20.6
164752	7	Sololá	712	San Antonio Palopó	9	San Antonio Palopo	4	Abril	2023-11-04T00:00:00	2024-11-08T19:00:00	5	Humedad	79
164753	7	Sololá	712	San Antonio Palopó	9	San Antonio Palopo	4	Abril	2023-11-04T00:00:00	2024-11-08T19:00:00	6	Velocidad del viento	4.8
164754	7	Sololá	712	San Antonio Palopó	9	San Antonio Palopo	4	Abril	2023-11-04T00:00:00	2024-11-08T19:00:00	7	Dirección del viento	4.83
164755	7	Sololá	712	San Antonio Palopó	9	San Antonio Palopo	4	Abril	2023-11-04T00:00:00	2024-11-08T19:00:00	1	Precipitación	0
164756	7	Sololá	712	San Antonio Palopó	9	San Antonio Palopo	4	Abril	2023-11-04T00:00:00	2024-11-08T19:00:00	8	Radiación solar	0
164757	7	Sololá	712	San Antonio Palopó	9	San Antonio Palopo	4	Abril	2023-11-04T00:00:00	2024-11-08T20:00:00	2	Temperatura media	20.1
164758	7	Sololá	712	San Antonio Palopó	9	San Antonio Palopo	4	Abril	2023-11-04T00:00:00	2024-11-08T20:00:00	4	Temperatura máxima	20.6
164759	7	Sololá	712	San Antonio Palopó	9	San Antonio Palopo	4	Abril	2023-11-04T00:00:00	2024-11-08T20:00:00	3	Temperatura mínima	20.1
164760	7	Sololá	712	San Antonio Palopó	9	San Antonio Palopo	4	Abril	2023-11-04T00:00:00	2024-11-08T20:00:00	5	Humedad	76
164761	7	Sololá	712	San Antonio Palopó	9	San Antonio Palopo	4	Abril	2023-11-04T00:00:00	2024-11-08T20:00:00	6	Velocidad del viento	3.2
164762	7	Sololá	712	San Antonio Palopó	9	San Antonio Palopo	4	Abril	2023-11-04T00:00:00	2024-11-08T20:00:00	7	Dirección del viento	3.22
164763	7	Sololá	712	San Antonio Palopó	9	San Antonio Palopo	4	Abril	2023-11-04T00:00:00	2024-11-08T20:00:00	1	Precipitación	0
164764	7	Sololá	712	San Antonio Palopó	9	San Antonio Palopo	4	Abril	2023-11-04T00:00:00	2024-11-08T20:00:00	8	Radiación solar	0
164765	7	Sololá	712	San Antonio Palopó	9	San Antonio Palopo	4	Abril	2023-11-04T00:00:00	2024-11-08T21:00:00	2	Temperatura media	19.1
164766	7	Sololá	712	San Antonio Palopó	9	San Antonio Palopo	4	Abril	2023-11-04T00:00:00	2024-11-08T21:00:00	4	Temperatura máxima	20.1
164767	7	Sololá	712	San Antonio Palopó	9	San Antonio Palopo	4	Abril	2023-11-04T00:00:00	2024-11-08T21:00:00	3	Temperatura mínima	19.1
164768	7	Sololá	712	San Antonio Palopó	9	San Antonio Palopo	4	Abril	2023-11-04T00:00:00	2024-11-08T21:00:00	5	Humedad	71
164769	7	Sololá	712	San Antonio Palopó	9	San Antonio Palopo	4	Abril	2023-11-04T00:00:00	2024-11-08T21:00:00	6	Velocidad del viento	3.2
164770	7	Sololá	712	San Antonio Palopó	9	San Antonio Palopo	4	Abril	2023-11-04T00:00:00	2024-11-08T21:00:00	7	Dirección del viento	3.22
164771	7	Sololá	712	San Antonio Palopó	9	San Antonio Palopo	4	Abril	2023-11-04T00:00:00	2024-11-08T21:00:00	1	Precipitación	0
164772	7	Sololá	712	San Antonio Palopó	9	San Antonio Palopo	4	Abril	2023-11-04T00:00:00	2024-11-08T21:00:00	8	Radiación solar	0
164773	7	Sololá	712	San Antonio Palopó	9	San Antonio Palopo	4	Abril	2023-11-04T00:00:00	2024-11-08T22:00:00	2	Temperatura media	19.9
164774	7	Sololá	712	San Antonio Palopó	9	San Antonio Palopo	4	Abril	2023-11-04T00:00:00	2024-11-08T22:00:00	4	Temperatura máxima	20.1
164775	7	Sololá	712	San Antonio Palopó	9	San Antonio Palopo	4	Abril	2023-11-04T00:00:00	2024-11-08T22:00:00	3	Temperatura mínima	19.1
164776	7	Sololá	712	San Antonio Palopó	9	San Antonio Palopo	4	Abril	2023-11-04T00:00:00	2024-11-08T22:00:00	5	Humedad	63
164777	7	Sololá	712	San Antonio Palopó	9	San Antonio Palopo	4	Abril	2023-11-04T00:00:00	2024-11-08T22:00:00	6	Velocidad del viento	4.8
164778	7	Sololá	712	San Antonio Palopó	9	San Antonio Palopo	4	Abril	2023-11-04T00:00:00	2024-11-08T22:00:00	7	Dirección del viento	4.83
164779	7	Sololá	712	San Antonio Palopó	9	San Antonio Palopo	4	Abril	2023-11-04T00:00:00	2024-11-08T22:00:00	1	Precipitación	0
164780	7	Sololá	712	San Antonio Palopó	9	San Antonio Palopo	4	Abril	2023-11-04T00:00:00	2024-11-08T22:00:00	8	Radiación solar	0
164781	7	Sololá	712	San Antonio Palopó	9	San Antonio Palopo	4	Abril	2023-11-04T00:00:00	2024-11-08T23:00:00	2	Temperatura media	19.1
164782	7	Sololá	712	San Antonio Palopó	9	San Antonio Palopo	4	Abril	2023-11-04T00:00:00	2024-11-08T23:00:00	4	Temperatura máxima	19.9
164783	7	Sololá	712	San Antonio Palopó	9	San Antonio Palopo	4	Abril	2023-11-04T00:00:00	2024-11-08T23:00:00	3	Temperatura mínima	19.1
164784	7	Sololá	712	San Antonio Palopó	9	San Antonio Palopo	4	Abril	2023-11-04T00:00:00	2024-11-08T23:00:00	5	Humedad	63
164785	7	Sololá	712	San Antonio Palopó	9	San Antonio Palopo	4	Abril	2023-11-04T00:00:00	2024-11-08T23:00:00	6	Velocidad del viento	9.7
164786	7	Sololá	712	San Antonio Palopó	9	San Antonio Palopo	4	Abril	2023-11-04T00:00:00	2024-11-08T23:00:00	7	Dirección del viento	9.66
164787	7	Sololá	712	San Antonio Palopó	9	San Antonio Palopo	4	Abril	2023-11-04T00:00:00	2024-11-08T23:00:00	1	Precipitación	0
164788	7	Sololá	712	San Antonio Palopó	9	San Antonio Palopo	4	Abril	2023-11-04T00:00:00	2024-11-08T23:00:00	8	Radiación solar	0
164789	7	Sololá	712	San Antonio Palopó	9	San Antonio Palopo	4	Abril	2023-12-04T00:00:00	2024-11-08T00:00:00	2	Temperatura media	18.3
164790	7	Sololá	712	San Antonio Palopó	9	San Antonio Palopo	4	Abril	2023-12-04T00:00:00	2024-11-08T00:00:00	4	Temperatura máxima	19.1
164791	7	Sololá	712	San Antonio Palopó	9	San Antonio Palopo	4	Abril	2023-12-04T00:00:00	2024-11-08T00:00:00	3	Temperatura mínima	18.3
164792	7	Sololá	712	San Antonio Palopó	9	San Antonio Palopo	4	Abril	2023-12-04T00:00:00	2024-11-08T00:00:00	5	Humedad	62
164793	7	Sololá	712	San Antonio Palopó	9	San Antonio Palopo	4	Abril	2023-12-04T00:00:00	2024-11-08T00:00:00	6	Velocidad del viento	6.4
164794	7	Sololá	712	San Antonio Palopó	9	San Antonio Palopo	4	Abril	2023-12-04T00:00:00	2024-11-08T00:00:00	7	Dirección del viento	6.44
164795	7	Sololá	712	San Antonio Palopó	9	San Antonio Palopo	4	Abril	2023-12-04T00:00:00	2024-11-08T00:00:00	1	Precipitación	0
164796	7	Sololá	712	San Antonio Palopó	9	San Antonio Palopo	4	Abril	2023-12-04T00:00:00	2024-11-08T00:00:00	8	Radiación solar	0
164797	7	Sololá	712	San Antonio Palopó	9	San Antonio Palopo	4	Abril	2023-12-04T00:00:00	2024-11-08T01:00:00	2	Temperatura media	17.7
164798	7	Sololá	712	San Antonio Palopó	9	San Antonio Palopo	4	Abril	2023-12-04T00:00:00	2024-11-08T01:00:00	4	Temperatura máxima	18.2
164799	7	Sololá	712	San Antonio Palopó	9	San Antonio Palopo	4	Abril	2023-12-04T00:00:00	2024-11-08T01:00:00	3	Temperatura mínima	17.6
164800	7	Sololá	712	San Antonio Palopó	9	San Antonio Palopo	4	Abril	2023-12-04T00:00:00	2024-11-08T01:00:00	5	Humedad	62
164801	7	Sololá	712	San Antonio Palopó	9	San Antonio Palopo	4	Abril	2023-12-04T00:00:00	2024-11-08T01:00:00	6	Velocidad del viento	6.4
164802	7	Sololá	712	San Antonio Palopó	9	San Antonio Palopo	4	Abril	2023-12-04T00:00:00	2024-11-08T01:00:00	7	Dirección del viento	6.44
164803	7	Sololá	712	San Antonio Palopó	9	San Antonio Palopo	4	Abril	2023-12-04T00:00:00	2024-11-08T01:00:00	1	Precipitación	0
164804	7	Sololá	712	San Antonio Palopó	9	San Antonio Palopo	4	Abril	2023-12-04T00:00:00	2024-11-08T01:00:00	8	Radiación solar	0
164805	7	Sololá	712	San Antonio Palopó	9	San Antonio Palopo	4	Abril	2023-12-04T00:00:00	2024-11-08T02:00:00	2	Temperatura media	17.6
164806	7	Sololá	712	San Antonio Palopó	9	San Antonio Palopo	4	Abril	2023-12-04T00:00:00	2024-11-08T02:00:00	4	Temperatura máxima	17.7
164807	7	Sololá	712	San Antonio Palopó	9	San Antonio Palopo	4	Abril	2023-12-04T00:00:00	2024-11-08T02:00:00	3	Temperatura mínima	17.4
164808	7	Sololá	712	San Antonio Palopó	9	San Antonio Palopo	4	Abril	2023-12-04T00:00:00	2024-11-08T02:00:00	5	Humedad	63
164809	7	Sololá	712	San Antonio Palopó	9	San Antonio Palopo	4	Abril	2023-12-04T00:00:00	2024-11-08T02:00:00	6	Velocidad del viento	8
164810	7	Sololá	712	San Antonio Palopó	9	San Antonio Palopo	4	Abril	2023-12-04T00:00:00	2024-11-08T02:00:00	7	Dirección del viento	8.05
164811	7	Sololá	712	San Antonio Palopó	9	San Antonio Palopo	4	Abril	2023-12-04T00:00:00	2024-11-08T02:00:00	1	Precipitación	0
164812	7	Sololá	712	San Antonio Palopó	9	San Antonio Palopo	4	Abril	2023-12-04T00:00:00	2024-11-08T02:00:00	8	Radiación solar	0
164813	7	Sololá	712	San Antonio Palopó	9	San Antonio Palopo	4	Abril	2023-12-04T00:00:00	2024-11-08T03:00:00	2	Temperatura media	16.8
164814	7	Sololá	712	San Antonio Palopó	9	San Antonio Palopo	4	Abril	2023-12-04T00:00:00	2024-11-08T03:00:00	4	Temperatura máxima	17.5
164815	7	Sololá	712	San Antonio Palopó	9	San Antonio Palopo	4	Abril	2023-12-04T00:00:00	2024-11-08T03:00:00	3	Temperatura mínima	16.6
164816	7	Sololá	712	San Antonio Palopó	9	San Antonio Palopo	4	Abril	2023-12-04T00:00:00	2024-11-08T03:00:00	5	Humedad	65
164817	7	Sololá	712	San Antonio Palopó	9	San Antonio Palopo	4	Abril	2023-12-04T00:00:00	2024-11-08T03:00:00	6	Velocidad del viento	6.4
164818	7	Sololá	712	San Antonio Palopó	9	San Antonio Palopo	4	Abril	2023-12-04T00:00:00	2024-11-08T03:00:00	7	Dirección del viento	6.44
164819	7	Sololá	712	San Antonio Palopó	9	San Antonio Palopo	4	Abril	2023-12-04T00:00:00	2024-11-08T03:00:00	1	Precipitación	0
164820	7	Sololá	712	San Antonio Palopó	9	San Antonio Palopo	4	Abril	2023-12-04T00:00:00	2024-11-08T03:00:00	8	Radiación solar	0
164821	7	Sololá	712	San Antonio Palopó	9	San Antonio Palopo	4	Abril	2023-12-04T00:00:00	2024-11-08T04:00:00	2	Temperatura media	17.4
164822	7	Sololá	712	San Antonio Palopó	9	San Antonio Palopo	4	Abril	2023-12-04T00:00:00	2024-11-08T04:00:00	4	Temperatura máxima	17.6
164823	7	Sololá	712	San Antonio Palopó	9	San Antonio Palopo	4	Abril	2023-12-04T00:00:00	2024-11-08T04:00:00	3	Temperatura mínima	16.8
164824	7	Sololá	712	San Antonio Palopó	9	San Antonio Palopo	4	Abril	2023-12-04T00:00:00	2024-11-08T04:00:00	5	Humedad	63
164825	7	Sololá	712	San Antonio Palopó	9	San Antonio Palopo	4	Abril	2023-12-04T00:00:00	2024-11-08T04:00:00	6	Velocidad del viento	9.7
164826	7	Sololá	712	San Antonio Palopó	9	San Antonio Palopo	4	Abril	2023-12-04T00:00:00	2024-11-08T04:00:00	7	Dirección del viento	9.66
164827	7	Sololá	712	San Antonio Palopó	9	San Antonio Palopo	4	Abril	2023-12-04T00:00:00	2024-11-08T04:00:00	1	Precipitación	0
164828	7	Sololá	712	San Antonio Palopó	9	San Antonio Palopo	4	Abril	2023-12-04T00:00:00	2024-11-08T04:00:00	8	Radiación solar	0
164829	7	Sololá	712	San Antonio Palopó	9	San Antonio Palopo	4	Abril	2023-12-04T00:00:00	2024-11-08T05:00:00	2	Temperatura media	17.2
164830	7	Sololá	712	San Antonio Palopó	9	San Antonio Palopo	4	Abril	2023-12-04T00:00:00	2024-11-08T05:00:00	4	Temperatura máxima	17.6
164831	7	Sololá	712	San Antonio Palopó	9	San Antonio Palopo	4	Abril	2023-12-04T00:00:00	2024-11-08T05:00:00	3	Temperatura mínima	17.2
164832	7	Sololá	712	San Antonio Palopó	9	San Antonio Palopo	4	Abril	2023-12-04T00:00:00	2024-11-08T05:00:00	5	Humedad	65
164833	7	Sololá	712	San Antonio Palopó	9	San Antonio Palopo	4	Abril	2023-12-04T00:00:00	2024-11-08T05:00:00	6	Velocidad del viento	11.3
164834	7	Sololá	712	San Antonio Palopó	9	San Antonio Palopo	4	Abril	2023-12-04T00:00:00	2024-11-08T05:00:00	7	Dirección del viento	11.27
164835	7	Sololá	712	San Antonio Palopó	9	San Antonio Palopo	4	Abril	2023-12-04T00:00:00	2024-11-08T05:00:00	1	Precipitación	0
164836	7	Sololá	712	San Antonio Palopó	9	San Antonio Palopo	4	Abril	2023-12-04T00:00:00	2024-11-08T05:00:00	8	Radiación solar	0
164837	7	Sololá	712	San Antonio Palopó	9	San Antonio Palopo	4	Abril	2023-12-04T00:00:00	2024-11-08T06:00:00	2	Temperatura media	17.7
164838	7	Sololá	712	San Antonio Palopó	9	San Antonio Palopo	4	Abril	2023-12-04T00:00:00	2024-11-08T06:00:00	4	Temperatura máxima	17.7
164839	7	Sololá	712	San Antonio Palopó	9	San Antonio Palopo	4	Abril	2023-12-04T00:00:00	2024-11-08T06:00:00	3	Temperatura mínima	17.2
164840	7	Sololá	712	San Antonio Palopó	9	San Antonio Palopo	4	Abril	2023-12-04T00:00:00	2024-11-08T06:00:00	5	Humedad	64
164841	7	Sololá	712	San Antonio Palopó	9	San Antonio Palopo	4	Abril	2023-12-04T00:00:00	2024-11-08T06:00:00	6	Velocidad del viento	12.9
164842	7	Sololá	712	San Antonio Palopó	9	San Antonio Palopo	4	Abril	2023-12-04T00:00:00	2024-11-08T06:00:00	7	Dirección del viento	12.87
164843	7	Sololá	712	San Antonio Palopó	9	San Antonio Palopo	4	Abril	2023-12-04T00:00:00	2024-11-08T06:00:00	1	Precipitación	0
164844	7	Sololá	712	San Antonio Palopó	9	San Antonio Palopo	4	Abril	2023-12-04T00:00:00	2024-11-08T06:00:00	8	Radiación solar	0
164845	7	Sololá	712	San Antonio Palopó	9	San Antonio Palopo	4	Abril	2023-12-04T00:00:00	2024-11-08T07:00:00	2	Temperatura media	17.6
164846	7	Sololá	712	San Antonio Palopó	9	San Antonio Palopo	4	Abril	2023-12-04T00:00:00	2024-11-08T07:00:00	4	Temperatura máxima	17.8
164847	7	Sololá	712	San Antonio Palopó	9	San Antonio Palopo	4	Abril	2023-12-04T00:00:00	2024-11-08T07:00:00	3	Temperatura mínima	17.2
164848	7	Sololá	712	San Antonio Palopó	9	San Antonio Palopo	4	Abril	2023-12-04T00:00:00	2024-11-08T07:00:00	5	Humedad	65
164849	7	Sololá	712	San Antonio Palopó	9	San Antonio Palopo	4	Abril	2023-12-04T00:00:00	2024-11-08T07:00:00	6	Velocidad del viento	8
164850	7	Sololá	712	San Antonio Palopó	9	San Antonio Palopo	4	Abril	2023-12-04T00:00:00	2024-11-08T07:00:00	7	Dirección del viento	8.05
164851	7	Sololá	712	San Antonio Palopó	9	San Antonio Palopo	4	Abril	2023-12-04T00:00:00	2024-11-08T07:00:00	1	Precipitación	0
164852	7	Sololá	712	San Antonio Palopó	9	San Antonio Palopo	4	Abril	2023-12-04T00:00:00	2024-11-08T07:00:00	8	Radiación solar	25
164853	7	Sololá	712	San Antonio Palopó	9	San Antonio Palopo	4	Abril	2023-12-04T00:00:00	2024-11-08T08:00:00	2	Temperatura media	18.7
164854	7	Sololá	712	San Antonio Palopó	9	San Antonio Palopo	4	Abril	2023-12-04T00:00:00	2024-11-08T08:00:00	4	Temperatura máxima	18.7
164855	7	Sololá	712	San Antonio Palopó	9	San Antonio Palopo	4	Abril	2023-12-04T00:00:00	2024-11-08T08:00:00	3	Temperatura mínima	17.1
164856	7	Sololá	712	San Antonio Palopó	9	San Antonio Palopo	4	Abril	2023-12-04T00:00:00	2024-11-08T08:00:00	5	Humedad	65
164857	7	Sololá	712	San Antonio Palopó	9	San Antonio Palopo	4	Abril	2023-12-04T00:00:00	2024-11-08T08:00:00	6	Velocidad del viento	3.2
164858	7	Sololá	712	San Antonio Palopó	9	San Antonio Palopo	4	Abril	2023-12-04T00:00:00	2024-11-08T08:00:00	7	Dirección del viento	3.22
164859	7	Sololá	712	San Antonio Palopó	9	San Antonio Palopo	4	Abril	2023-12-04T00:00:00	2024-11-08T08:00:00	1	Precipitación	0
164860	7	Sololá	712	San Antonio Palopó	9	San Antonio Palopo	4	Abril	2023-12-04T00:00:00	2024-11-08T08:00:00	8	Radiación solar	120
164861	7	Sololá	712	San Antonio Palopó	9	San Antonio Palopo	4	Abril	2023-12-04T00:00:00	2024-11-08T09:00:00	2	Temperatura media	19.8
164862	7	Sololá	712	San Antonio Palopó	9	San Antonio Palopo	4	Abril	2023-12-04T00:00:00	2024-11-08T09:00:00	4	Temperatura máxima	20.1
164863	7	Sololá	712	San Antonio Palopó	9	San Antonio Palopo	4	Abril	2023-12-04T00:00:00	2024-11-08T09:00:00	3	Temperatura mínima	18.7
164864	7	Sololá	712	San Antonio Palopó	9	San Antonio Palopo	4	Abril	2023-12-04T00:00:00	2024-11-08T09:00:00	5	Humedad	61
164865	7	Sololá	712	San Antonio Palopó	9	San Antonio Palopo	4	Abril	2023-12-04T00:00:00	2024-11-08T09:00:00	6	Velocidad del viento	1.6
164866	7	Sololá	712	San Antonio Palopó	9	San Antonio Palopo	4	Abril	2023-12-04T00:00:00	2024-11-08T09:00:00	7	Dirección del viento	1.61
164867	7	Sololá	712	San Antonio Palopó	9	San Antonio Palopo	4	Abril	2023-12-04T00:00:00	2024-11-08T09:00:00	1	Precipitación	0
164868	7	Sololá	712	San Antonio Palopó	9	San Antonio Palopo	4	Abril	2023-12-04T00:00:00	2024-11-08T09:00:00	8	Radiación solar	295
164869	7	Sololá	712	San Antonio Palopó	9	San Antonio Palopo	4	Abril	2023-12-04T00:00:00	2024-11-08T10:00:00	2	Temperatura media	21.2
164870	7	Sololá	712	San Antonio Palopó	9	San Antonio Palopo	4	Abril	2023-12-04T00:00:00	2024-11-08T10:00:00	4	Temperatura máxima	21.2
164871	7	Sololá	712	San Antonio Palopó	9	San Antonio Palopo	4	Abril	2023-12-04T00:00:00	2024-11-08T10:00:00	3	Temperatura mínima	19.7
164872	7	Sololá	712	San Antonio Palopó	9	San Antonio Palopo	4	Abril	2023-12-04T00:00:00	2024-11-08T10:00:00	5	Humedad	56
164873	7	Sololá	712	San Antonio Palopó	9	San Antonio Palopo	4	Abril	2023-12-04T00:00:00	2024-11-08T10:00:00	6	Velocidad del viento	1.6
164874	7	Sololá	712	San Antonio Palopó	9	San Antonio Palopo	4	Abril	2023-12-04T00:00:00	2024-11-08T10:00:00	7	Dirección del viento	1.61
164875	7	Sololá	712	San Antonio Palopó	9	San Antonio Palopo	4	Abril	2023-12-04T00:00:00	2024-11-08T10:00:00	1	Precipitación	0
164876	7	Sololá	712	San Antonio Palopó	9	San Antonio Palopo	4	Abril	2023-12-04T00:00:00	2024-11-08T10:00:00	8	Radiación solar	364
164877	7	Sololá	712	San Antonio Palopó	9	San Antonio Palopo	4	Abril	2023-12-04T00:00:00	2024-11-08T11:00:00	2	Temperatura media	20.9
164878	7	Sololá	712	San Antonio Palopó	9	San Antonio Palopo	4	Abril	2023-12-04T00:00:00	2024-11-08T11:00:00	4	Temperatura máxima	21.6
164879	7	Sololá	712	San Antonio Palopó	9	San Antonio Palopo	4	Abril	2023-12-04T00:00:00	2024-11-08T11:00:00	3	Temperatura mínima	20.7
164880	7	Sololá	712	San Antonio Palopó	9	San Antonio Palopo	4	Abril	2023-12-04T00:00:00	2024-11-08T11:00:00	5	Humedad	58
164881	7	Sololá	712	San Antonio Palopó	9	San Antonio Palopo	4	Abril	2023-12-04T00:00:00	2024-11-08T11:00:00	6	Velocidad del viento	4.8
164882	7	Sololá	712	San Antonio Palopó	9	San Antonio Palopo	4	Abril	2023-12-04T00:00:00	2024-11-08T11:00:00	7	Dirección del viento	4.83
164883	7	Sololá	712	San Antonio Palopó	9	San Antonio Palopo	4	Abril	2023-12-04T00:00:00	2024-11-08T11:00:00	1	Precipitación	0
164884	7	Sololá	712	San Antonio Palopó	9	San Antonio Palopo	4	Abril	2023-12-04T00:00:00	2024-11-08T11:00:00	8	Radiación solar	440
164885	7	Sololá	712	San Antonio Palopó	9	San Antonio Palopo	4	Abril	2023-12-04T00:00:00	2024-11-08T12:00:00	2	Temperatura media	23.6
164886	7	Sololá	712	San Antonio Palopó	9	San Antonio Palopo	4	Abril	2023-12-04T00:00:00	2024-11-08T12:00:00	4	Temperatura máxima	23.6
164887	7	Sololá	712	San Antonio Palopó	9	San Antonio Palopo	4	Abril	2023-12-04T00:00:00	2024-11-08T12:00:00	3	Temperatura mínima	20.9
164888	7	Sololá	712	San Antonio Palopó	9	San Antonio Palopo	4	Abril	2023-12-04T00:00:00	2024-11-08T12:00:00	5	Humedad	50
164889	7	Sololá	712	San Antonio Palopó	9	San Antonio Palopo	4	Abril	2023-12-04T00:00:00	2024-11-08T12:00:00	6	Velocidad del viento	6.4
164890	7	Sololá	712	San Antonio Palopó	9	San Antonio Palopo	4	Abril	2023-12-04T00:00:00	2024-11-08T12:00:00	7	Dirección del viento	6.44
164891	7	Sololá	712	San Antonio Palopó	9	San Antonio Palopo	4	Abril	2023-12-04T00:00:00	2024-11-08T12:00:00	1	Precipitación	0
164892	7	Sololá	712	San Antonio Palopó	9	San Antonio Palopo	4	Abril	2023-12-04T00:00:00	2024-11-08T12:00:00	8	Radiación solar	772
164893	7	Sololá	712	San Antonio Palopó	9	San Antonio Palopo	4	Abril	2023-12-04T00:00:00	2024-11-08T13:00:00	2	Temperatura media	24.3
164894	7	Sololá	712	San Antonio Palopó	9	San Antonio Palopo	4	Abril	2023-12-04T00:00:00	2024-11-08T13:00:00	4	Temperatura máxima	24.4
164895	7	Sololá	712	San Antonio Palopó	9	San Antonio Palopo	4	Abril	2023-12-04T00:00:00	2024-11-08T13:00:00	3	Temperatura mínima	23.6
164896	7	Sololá	712	San Antonio Palopó	9	San Antonio Palopo	4	Abril	2023-12-04T00:00:00	2024-11-08T13:00:00	5	Humedad	57
164897	7	Sololá	712	San Antonio Palopó	9	San Antonio Palopo	4	Abril	2023-12-04T00:00:00	2024-11-08T13:00:00	6	Velocidad del viento	6.4
164898	7	Sololá	712	San Antonio Palopó	9	San Antonio Palopo	4	Abril	2023-12-04T00:00:00	2024-11-08T13:00:00	7	Dirección del viento	6.44
164899	7	Sololá	712	San Antonio Palopó	9	San Antonio Palopo	4	Abril	2023-12-04T00:00:00	2024-11-08T13:00:00	1	Precipitación	0
164900	7	Sololá	712	San Antonio Palopó	9	San Antonio Palopo	4	Abril	2023-12-04T00:00:00	2024-11-08T13:00:00	8	Radiación solar	985
164901	7	Sololá	712	San Antonio Palopó	9	San Antonio Palopo	4	Abril	2023-12-04T00:00:00	2024-11-08T14:00:00	2	Temperatura media	22.4
164902	7	Sololá	712	San Antonio Palopó	9	San Antonio Palopo	4	Abril	2023-12-04T00:00:00	2024-11-08T14:00:00	4	Temperatura máxima	24.4
164903	7	Sololá	712	San Antonio Palopó	9	San Antonio Palopo	4	Abril	2023-12-04T00:00:00	2024-11-08T14:00:00	3	Temperatura mínima	21.9
164904	7	Sololá	712	San Antonio Palopó	9	San Antonio Palopo	4	Abril	2023-12-04T00:00:00	2024-11-08T14:00:00	5	Humedad	63
164905	7	Sololá	712	San Antonio Palopó	9	San Antonio Palopo	4	Abril	2023-12-04T00:00:00	2024-11-08T14:00:00	6	Velocidad del viento	12.9
164906	7	Sololá	712	San Antonio Palopó	9	San Antonio Palopo	4	Abril	2023-12-04T00:00:00	2024-11-08T14:00:00	7	Dirección del viento	12.87
164907	7	Sololá	712	San Antonio Palopó	9	San Antonio Palopo	4	Abril	2023-12-04T00:00:00	2024-11-08T14:00:00	1	Precipitación	0
164908	7	Sololá	712	San Antonio Palopó	9	San Antonio Palopo	4	Abril	2023-12-04T00:00:00	2024-11-08T14:00:00	8	Radiación solar	368
164909	7	Sololá	712	San Antonio Palopó	9	San Antonio Palopo	4	Abril	2023-12-04T00:00:00	2024-11-08T15:00:00	2	Temperatura media	22.2
164910	7	Sololá	712	San Antonio Palopó	9	San Antonio Palopo	4	Abril	2023-12-04T00:00:00	2024-11-08T15:00:00	4	Temperatura máxima	23.4
164911	7	Sololá	712	San Antonio Palopó	9	San Antonio Palopo	4	Abril	2023-12-04T00:00:00	2024-11-08T15:00:00	3	Temperatura mínima	22.2
164912	7	Sololá	712	San Antonio Palopó	9	San Antonio Palopo	4	Abril	2023-12-04T00:00:00	2024-11-08T15:00:00	5	Humedad	68
164913	7	Sololá	712	San Antonio Palopó	9	San Antonio Palopo	4	Abril	2023-12-04T00:00:00	2024-11-08T15:00:00	6	Velocidad del viento	9.7
164914	7	Sololá	712	San Antonio Palopó	9	San Antonio Palopo	4	Abril	2023-12-04T00:00:00	2024-11-08T15:00:00	7	Dirección del viento	9.66
164915	7	Sololá	712	San Antonio Palopó	9	San Antonio Palopo	4	Abril	2023-12-04T00:00:00	2024-11-08T15:00:00	1	Precipitación	0
164916	7	Sololá	712	San Antonio Palopó	9	San Antonio Palopo	4	Abril	2023-12-04T00:00:00	2024-11-08T15:00:00	8	Radiación solar	425
164917	7	Sololá	712	San Antonio Palopó	9	San Antonio Palopo	4	Abril	2023-12-04T00:00:00	2024-11-08T16:00:00	2	Temperatura media	21.7
164918	7	Sololá	712	San Antonio Palopó	9	San Antonio Palopo	4	Abril	2023-12-04T00:00:00	2024-11-08T16:00:00	4	Temperatura máxima	22.8
164919	7	Sololá	712	San Antonio Palopó	9	San Antonio Palopo	4	Abril	2023-12-04T00:00:00	2024-11-08T16:00:00	3	Temperatura mínima	21.6
164920	7	Sololá	712	San Antonio Palopó	9	San Antonio Palopo	4	Abril	2023-12-04T00:00:00	2024-11-08T16:00:00	5	Humedad	68
164921	7	Sololá	712	San Antonio Palopó	9	San Antonio Palopo	4	Abril	2023-12-04T00:00:00	2024-11-08T16:00:00	6	Velocidad del viento	4.8
164922	7	Sololá	712	San Antonio Palopó	9	San Antonio Palopo	4	Abril	2023-12-04T00:00:00	2024-11-08T16:00:00	7	Dirección del viento	4.83
164923	7	Sololá	712	San Antonio Palopó	9	San Antonio Palopo	4	Abril	2023-12-04T00:00:00	2024-11-08T16:00:00	1	Precipitación	0
164924	7	Sololá	712	San Antonio Palopó	9	San Antonio Palopo	4	Abril	2023-12-04T00:00:00	2024-11-08T16:00:00	8	Radiación solar	206
164925	7	Sololá	712	San Antonio Palopó	9	San Antonio Palopo	4	Abril	2023-12-04T00:00:00	2024-11-08T17:00:00	2	Temperatura media	22.3
164926	7	Sololá	712	San Antonio Palopó	9	San Antonio Palopo	4	Abril	2023-12-04T00:00:00	2024-11-08T17:00:00	4	Temperatura máxima	22.6
164927	7	Sololá	712	San Antonio Palopó	9	San Antonio Palopo	4	Abril	2023-12-04T00:00:00	2024-11-08T17:00:00	3	Temperatura mínima	21.7
164928	7	Sololá	712	San Antonio Palopó	9	San Antonio Palopo	4	Abril	2023-12-04T00:00:00	2024-11-08T17:00:00	5	Humedad	68
164929	7	Sololá	712	San Antonio Palopó	9	San Antonio Palopo	4	Abril	2023-12-04T00:00:00	2024-11-08T17:00:00	6	Velocidad del viento	4.8
164930	7	Sololá	712	San Antonio Palopó	9	San Antonio Palopo	4	Abril	2023-12-04T00:00:00	2024-11-08T17:00:00	7	Dirección del viento	4.83
164931	7	Sololá	712	San Antonio Palopó	9	San Antonio Palopo	4	Abril	2023-12-04T00:00:00	2024-11-08T17:00:00	1	Precipitación	0
164932	7	Sololá	712	San Antonio Palopó	9	San Antonio Palopo	4	Abril	2023-12-04T00:00:00	2024-11-08T17:00:00	8	Radiación solar	162
164933	7	Sololá	712	San Antonio Palopó	9	San Antonio Palopo	4	Abril	2023-12-04T00:00:00	2024-11-08T18:00:00	2	Temperatura media	21.1
164934	7	Sololá	712	San Antonio Palopó	9	San Antonio Palopo	4	Abril	2023-12-04T00:00:00	2024-11-08T18:00:00	4	Temperatura máxima	22.3
164935	7	Sololá	712	San Antonio Palopó	9	San Antonio Palopo	4	Abril	2023-12-04T00:00:00	2024-11-08T18:00:00	3	Temperatura mínima	21
164936	7	Sololá	712	San Antonio Palopó	9	San Antonio Palopo	4	Abril	2023-12-04T00:00:00	2024-11-08T18:00:00	5	Humedad	72
164937	7	Sololá	712	San Antonio Palopó	9	San Antonio Palopo	4	Abril	2023-12-04T00:00:00	2024-11-08T18:00:00	6	Velocidad del viento	8
164938	7	Sololá	712	San Antonio Palopó	9	San Antonio Palopo	4	Abril	2023-12-04T00:00:00	2024-11-08T18:00:00	7	Dirección del viento	8.05
164939	7	Sololá	712	San Antonio Palopó	9	San Antonio Palopo	4	Abril	2023-12-04T00:00:00	2024-11-08T18:00:00	1	Precipitación	0
164940	7	Sololá	712	San Antonio Palopó	9	San Antonio Palopo	4	Abril	2023-12-04T00:00:00	2024-11-08T18:00:00	8	Radiación solar	70
164941	7	Sololá	712	San Antonio Palopó	9	San Antonio Palopo	4	Abril	2023-12-04T00:00:00	2024-11-08T19:00:00	2	Temperatura media	20.2
164942	7	Sololá	712	San Antonio Palopó	9	San Antonio Palopo	4	Abril	2023-12-04T00:00:00	2024-11-08T19:00:00	4	Temperatura máxima	21.2
164943	7	Sololá	712	San Antonio Palopó	9	San Antonio Palopo	4	Abril	2023-12-04T00:00:00	2024-11-08T19:00:00	3	Temperatura mínima	20.1
164944	7	Sololá	712	San Antonio Palopó	9	San Antonio Palopo	4	Abril	2023-12-04T00:00:00	2024-11-08T19:00:00	5	Humedad	77
164945	7	Sololá	712	San Antonio Palopó	9	San Antonio Palopo	4	Abril	2023-12-04T00:00:00	2024-11-08T19:00:00	6	Velocidad del viento	1.6
164946	7	Sololá	712	San Antonio Palopó	9	San Antonio Palopo	4	Abril	2023-12-04T00:00:00	2024-11-08T19:00:00	7	Dirección del viento	1.61
164947	7	Sololá	712	San Antonio Palopó	9	San Antonio Palopo	4	Abril	2023-12-04T00:00:00	2024-11-08T19:00:00	1	Precipitación	0
164948	7	Sololá	712	San Antonio Palopó	9	San Antonio Palopo	4	Abril	2023-12-04T00:00:00	2024-11-08T19:00:00	8	Radiación solar	0
164949	7	Sololá	712	San Antonio Palopó	9	San Antonio Palopo	4	Abril	2023-12-04T00:00:00	2024-11-08T20:00:00	2	Temperatura media	19.7
164950	7	Sololá	712	San Antonio Palopó	9	San Antonio Palopo	4	Abril	2023-12-04T00:00:00	2024-11-08T20:00:00	4	Temperatura máxima	20.2
164951	7	Sololá	712	San Antonio Palopó	9	San Antonio Palopo	4	Abril	2023-12-04T00:00:00	2024-11-08T20:00:00	3	Temperatura mínima	19.7
164952	7	Sololá	712	San Antonio Palopó	9	San Antonio Palopo	4	Abril	2023-12-04T00:00:00	2024-11-08T20:00:00	5	Humedad	74
164953	7	Sololá	712	San Antonio Palopó	9	San Antonio Palopo	4	Abril	2023-12-04T00:00:00	2024-11-08T20:00:00	6	Velocidad del viento	1.6
164954	7	Sololá	712	San Antonio Palopó	9	San Antonio Palopo	4	Abril	2023-12-04T00:00:00	2024-11-08T20:00:00	7	Dirección del viento	1.61
164955	7	Sololá	712	San Antonio Palopó	9	San Antonio Palopo	4	Abril	2023-12-04T00:00:00	2024-11-08T20:00:00	1	Precipitación	0
164956	7	Sololá	712	San Antonio Palopó	9	San Antonio Palopo	4	Abril	2023-12-04T00:00:00	2024-11-08T20:00:00	8	Radiación solar	0
164957	7	Sololá	712	San Antonio Palopó	9	San Antonio Palopo	4	Abril	2023-12-04T00:00:00	2024-11-08T21:00:00	2	Temperatura media	19.8
164958	7	Sololá	712	San Antonio Palopó	9	San Antonio Palopo	4	Abril	2023-12-04T00:00:00	2024-11-08T21:00:00	4	Temperatura máxima	19.9
164959	7	Sololá	712	San Antonio Palopó	9	San Antonio Palopo	4	Abril	2023-12-04T00:00:00	2024-11-08T21:00:00	3	Temperatura mínima	19.5
164960	7	Sololá	712	San Antonio Palopó	9	San Antonio Palopo	4	Abril	2023-12-04T00:00:00	2024-11-08T21:00:00	5	Humedad	73
164961	7	Sololá	712	San Antonio Palopó	9	San Antonio Palopo	4	Abril	2023-12-04T00:00:00	2024-11-08T21:00:00	6	Velocidad del viento	3.2
164962	7	Sololá	712	San Antonio Palopó	9	San Antonio Palopo	4	Abril	2023-12-04T00:00:00	2024-11-08T21:00:00	7	Dirección del viento	3.22
164963	7	Sololá	712	San Antonio Palopó	9	San Antonio Palopo	4	Abril	2023-12-04T00:00:00	2024-11-08T21:00:00	1	Precipitación	0
164964	7	Sololá	712	San Antonio Palopó	9	San Antonio Palopo	4	Abril	2023-12-04T00:00:00	2024-11-08T21:00:00	8	Radiación solar	0
164965	7	Sololá	712	San Antonio Palopó	9	San Antonio Palopo	4	Abril	2023-12-04T00:00:00	2024-11-08T22:00:00	2	Temperatura media	19.7
164966	7	Sololá	712	San Antonio Palopó	9	San Antonio Palopo	4	Abril	2023-12-04T00:00:00	2024-11-08T22:00:00	4	Temperatura máxima	19.9
164967	7	Sololá	712	San Antonio Palopó	9	San Antonio Palopo	4	Abril	2023-12-04T00:00:00	2024-11-08T22:00:00	3	Temperatura mínima	19.4
164968	7	Sololá	712	San Antonio Palopó	9	San Antonio Palopo	4	Abril	2023-12-04T00:00:00	2024-11-08T22:00:00	5	Humedad	69
164969	7	Sololá	712	San Antonio Palopó	9	San Antonio Palopo	4	Abril	2023-12-04T00:00:00	2024-11-08T22:00:00	6	Velocidad del viento	4.8
164970	7	Sololá	712	San Antonio Palopó	9	San Antonio Palopo	4	Abril	2023-12-04T00:00:00	2024-11-08T22:00:00	7	Dirección del viento	4.83
164971	7	Sololá	712	San Antonio Palopó	9	San Antonio Palopo	4	Abril	2023-12-04T00:00:00	2024-11-08T22:00:00	1	Precipitación	0
164972	7	Sololá	712	San Antonio Palopó	9	San Antonio Palopo	4	Abril	2023-12-04T00:00:00	2024-11-08T22:00:00	8	Radiación solar	0
164973	7	Sololá	712	San Antonio Palopó	9	San Antonio Palopo	4	Abril	2023-12-04T00:00:00	2024-11-08T23:00:00	2	Temperatura media	19.1
164974	7	Sololá	712	San Antonio Palopó	9	San Antonio Palopo	4	Abril	2023-12-04T00:00:00	2024-11-08T23:00:00	4	Temperatura máxima	19.7
164975	7	Sololá	712	San Antonio Palopó	9	San Antonio Palopo	4	Abril	2023-12-04T00:00:00	2024-11-08T23:00:00	3	Temperatura mínima	19.1
164976	7	Sololá	712	San Antonio Palopó	9	San Antonio Palopo	4	Abril	2023-12-04T00:00:00	2024-11-08T23:00:00	5	Humedad	71
164977	7	Sololá	712	San Antonio Palopó	9	San Antonio Palopo	4	Abril	2023-12-04T00:00:00	2024-11-08T23:00:00	6	Velocidad del viento	12.9
164978	7	Sololá	712	San Antonio Palopó	9	San Antonio Palopo	4	Abril	2023-12-04T00:00:00	2024-11-08T23:00:00	7	Dirección del viento	12.87
164979	7	Sololá	712	San Antonio Palopó	9	San Antonio Palopo	4	Abril	2023-12-04T00:00:00	2024-11-08T23:00:00	1	Precipitación	0
164980	7	Sololá	712	San Antonio Palopó	9	San Antonio Palopo	4	Abril	2023-12-04T00:00:00	2024-11-08T23:00:00	8	Radiación solar	0
164981	7	Sololá	712	San Antonio Palopó	9	San Antonio Palopo	4	Abril	2023-04-13T00:00:00	2024-11-08T00:00:00	2	Temperatura media	18.9
164982	7	Sololá	712	San Antonio Palopó	9	San Antonio Palopo	4	Abril	2023-04-13T00:00:00	2024-11-08T00:00:00	4	Temperatura máxima	19.1
164983	7	Sololá	712	San Antonio Palopó	9	San Antonio Palopo	4	Abril	2023-04-13T00:00:00	2024-11-08T00:00:00	3	Temperatura mínima	18.8
164984	7	Sololá	712	San Antonio Palopó	9	San Antonio Palopo	4	Abril	2023-04-13T00:00:00	2024-11-08T00:00:00	5	Humedad	70
164985	7	Sololá	712	San Antonio Palopó	9	San Antonio Palopo	4	Abril	2023-04-13T00:00:00	2024-11-08T00:00:00	6	Velocidad del viento	11.3
164986	7	Sololá	712	San Antonio Palopó	9	San Antonio Palopo	4	Abril	2023-04-13T00:00:00	2024-11-08T00:00:00	7	Dirección del viento	11.27
164987	7	Sololá	712	San Antonio Palopó	9	San Antonio Palopo	4	Abril	2023-04-13T00:00:00	2024-11-08T00:00:00	1	Precipitación	0
164988	7	Sololá	712	San Antonio Palopó	9	San Antonio Palopo	4	Abril	2023-04-13T00:00:00	2024-11-08T00:00:00	8	Radiación solar	0
164989	7	Sololá	712	San Antonio Palopó	9	San Antonio Palopo	4	Abril	2023-04-13T00:00:00	2024-11-08T01:00:00	2	Temperatura media	18.3
164990	7	Sololá	712	San Antonio Palopó	9	San Antonio Palopo	4	Abril	2023-04-13T00:00:00	2024-11-08T01:00:00	4	Temperatura máxima	18.9
164991	7	Sololá	712	San Antonio Palopó	9	San Antonio Palopo	4	Abril	2023-04-13T00:00:00	2024-11-08T01:00:00	3	Temperatura mínima	18.3
164992	7	Sololá	712	San Antonio Palopó	9	San Antonio Palopo	4	Abril	2023-04-13T00:00:00	2024-11-08T01:00:00	5	Humedad	71
164993	7	Sololá	712	San Antonio Palopó	9	San Antonio Palopo	4	Abril	2023-04-13T00:00:00	2024-11-08T01:00:00	6	Velocidad del viento	12.9
164994	7	Sololá	712	San Antonio Palopó	9	San Antonio Palopo	4	Abril	2023-04-13T00:00:00	2024-11-08T01:00:00	7	Dirección del viento	12.87
164995	7	Sololá	712	San Antonio Palopó	9	San Antonio Palopo	4	Abril	2023-04-13T00:00:00	2024-11-08T01:00:00	1	Precipitación	0
164996	7	Sololá	712	San Antonio Palopó	9	San Antonio Palopo	4	Abril	2023-04-13T00:00:00	2024-11-08T01:00:00	8	Radiación solar	0
164997	7	Sololá	712	San Antonio Palopó	9	San Antonio Palopo	4	Abril	2023-04-13T00:00:00	2024-11-08T02:00:00	2	Temperatura media	17.9
164998	7	Sololá	712	San Antonio Palopó	9	San Antonio Palopo	4	Abril	2023-04-13T00:00:00	2024-11-08T02:00:00	4	Temperatura máxima	18.4
164999	7	Sololá	712	San Antonio Palopó	9	San Antonio Palopo	4	Abril	2023-04-13T00:00:00	2024-11-08T02:00:00	3	Temperatura mínima	17.9
165000	7	Sololá	712	San Antonio Palopó	9	San Antonio Palopo	4	Abril	2023-04-13T00:00:00	2024-11-08T02:00:00	5	Humedad	71
165001	7	Sololá	712	San Antonio Palopó	9	San Antonio Palopo	4	Abril	2023-04-13T00:00:00	2024-11-08T02:00:00	6	Velocidad del viento	11.3
165002	7	Sololá	712	San Antonio Palopó	9	San Antonio Palopo	4	Abril	2023-04-13T00:00:00	2024-11-08T02:00:00	7	Dirección del viento	11.27
165003	7	Sololá	712	San Antonio Palopó	9	San Antonio Palopo	4	Abril	2023-04-13T00:00:00	2024-11-08T02:00:00	1	Precipitación	0
165004	7	Sololá	712	San Antonio Palopó	9	San Antonio Palopo	4	Abril	2023-04-13T00:00:00	2024-11-08T02:00:00	8	Radiación solar	0
165005	7	Sololá	712	San Antonio Palopó	9	San Antonio Palopo	4	Abril	2023-04-13T00:00:00	2024-11-08T03:00:00	2	Temperatura media	17.9
165006	7	Sololá	712	San Antonio Palopó	9	San Antonio Palopo	4	Abril	2023-04-13T00:00:00	2024-11-08T03:00:00	4	Temperatura máxima	18.1
165007	7	Sololá	712	San Antonio Palopó	9	San Antonio Palopo	4	Abril	2023-04-13T00:00:00	2024-11-08T03:00:00	3	Temperatura mínima	17.7
165008	7	Sololá	712	San Antonio Palopó	9	San Antonio Palopo	4	Abril	2023-04-13T00:00:00	2024-11-08T03:00:00	5	Humedad	68
165009	7	Sololá	712	San Antonio Palopó	9	San Antonio Palopo	4	Abril	2023-04-13T00:00:00	2024-11-08T03:00:00	6	Velocidad del viento	12.9
165010	7	Sololá	712	San Antonio Palopó	9	San Antonio Palopo	4	Abril	2023-04-13T00:00:00	2024-11-08T03:00:00	7	Dirección del viento	12.87
165011	7	Sololá	712	San Antonio Palopó	9	San Antonio Palopo	4	Abril	2023-04-13T00:00:00	2024-11-08T03:00:00	1	Precipitación	0
165012	7	Sololá	712	San Antonio Palopó	9	San Antonio Palopo	4	Abril	2023-04-13T00:00:00	2024-11-08T03:00:00	8	Radiación solar	0
165013	7	Sololá	712	San Antonio Palopó	9	San Antonio Palopo	4	Abril	2023-04-13T00:00:00	2024-11-08T04:00:00	2	Temperatura media	17.8
165014	7	Sololá	712	San Antonio Palopó	9	San Antonio Palopo	4	Abril	2023-04-13T00:00:00	2024-11-08T04:00:00	4	Temperatura máxima	18.3
165015	7	Sololá	712	San Antonio Palopó	9	San Antonio Palopo	4	Abril	2023-04-13T00:00:00	2024-11-08T04:00:00	3	Temperatura mínima	17.8
165016	7	Sololá	712	San Antonio Palopó	9	San Antonio Palopo	4	Abril	2023-04-13T00:00:00	2024-11-08T04:00:00	5	Humedad	69
165017	7	Sololá	712	San Antonio Palopó	9	San Antonio Palopo	4	Abril	2023-04-13T00:00:00	2024-11-08T04:00:00	6	Velocidad del viento	8
165018	7	Sololá	712	San Antonio Palopó	9	San Antonio Palopo	4	Abril	2023-04-13T00:00:00	2024-11-08T04:00:00	7	Dirección del viento	8.05
165019	7	Sololá	712	San Antonio Palopó	9	San Antonio Palopo	4	Abril	2023-04-13T00:00:00	2024-11-08T04:00:00	1	Precipitación	0
165020	7	Sololá	712	San Antonio Palopó	9	San Antonio Palopo	4	Abril	2023-04-13T00:00:00	2024-11-08T04:00:00	8	Radiación solar	0
165021	7	Sololá	712	San Antonio Palopó	9	San Antonio Palopo	4	Abril	2023-04-13T00:00:00	2024-11-08T05:00:00	2	Temperatura media	17.2
165022	7	Sololá	712	San Antonio Palopó	9	San Antonio Palopo	4	Abril	2023-04-13T00:00:00	2024-11-08T05:00:00	4	Temperatura máxima	17.8
165023	7	Sololá	712	San Antonio Palopó	9	San Antonio Palopo	4	Abril	2023-04-13T00:00:00	2024-11-08T05:00:00	3	Temperatura mínima	17.2
165024	7	Sololá	712	San Antonio Palopó	9	San Antonio Palopo	4	Abril	2023-04-13T00:00:00	2024-11-08T05:00:00	5	Humedad	71
165025	7	Sololá	712	San Antonio Palopó	9	San Antonio Palopo	4	Abril	2023-04-13T00:00:00	2024-11-08T05:00:00	6	Velocidad del viento	9.7
165026	7	Sololá	712	San Antonio Palopó	9	San Antonio Palopo	4	Abril	2023-04-13T00:00:00	2024-11-08T05:00:00	7	Dirección del viento	9.66
165027	7	Sololá	712	San Antonio Palopó	9	San Antonio Palopo	4	Abril	2023-04-13T00:00:00	2024-11-08T05:00:00	1	Precipitación	0
165028	7	Sololá	712	San Antonio Palopó	9	San Antonio Palopo	4	Abril	2023-04-13T00:00:00	2024-11-08T05:00:00	8	Radiación solar	0
165029	7	Sololá	712	San Antonio Palopó	9	San Antonio Palopo	4	Abril	2023-04-13T00:00:00	2024-11-08T06:00:00	2	Temperatura media	17.4
165030	7	Sololá	712	San Antonio Palopó	9	San Antonio Palopo	4	Abril	2023-04-13T00:00:00	2024-11-08T06:00:00	4	Temperatura máxima	17.7
165031	7	Sololá	712	San Antonio Palopó	9	San Antonio Palopo	4	Abril	2023-04-13T00:00:00	2024-11-08T06:00:00	3	Temperatura mínima	17.2
165032	7	Sololá	712	San Antonio Palopó	9	San Antonio Palopo	4	Abril	2023-04-13T00:00:00	2024-11-08T06:00:00	5	Humedad	69
165033	7	Sololá	712	San Antonio Palopó	9	San Antonio Palopo	4	Abril	2023-04-13T00:00:00	2024-11-08T06:00:00	6	Velocidad del viento	4.8
165034	7	Sololá	712	San Antonio Palopó	9	San Antonio Palopo	4	Abril	2023-04-13T00:00:00	2024-11-08T06:00:00	7	Dirección del viento	4.83
165035	7	Sololá	712	San Antonio Palopó	9	San Antonio Palopo	4	Abril	2023-04-13T00:00:00	2024-11-08T06:00:00	1	Precipitación	0
165036	7	Sololá	712	San Antonio Palopó	9	San Antonio Palopo	4	Abril	2023-04-13T00:00:00	2024-11-08T06:00:00	8	Radiación solar	0
165037	7	Sololá	712	San Antonio Palopó	9	San Antonio Palopo	4	Abril	2023-04-13T00:00:00	2024-11-08T07:00:00	2	Temperatura media	16.6
165038	7	Sololá	712	San Antonio Palopó	9	San Antonio Palopo	4	Abril	2023-04-13T00:00:00	2024-11-08T07:00:00	4	Temperatura máxima	17.4
165039	7	Sololá	712	San Antonio Palopó	9	San Antonio Palopo	4	Abril	2023-04-13T00:00:00	2024-11-08T07:00:00	3	Temperatura mínima	16.4
165040	7	Sololá	712	San Antonio Palopó	9	San Antonio Palopo	4	Abril	2023-04-13T00:00:00	2024-11-08T07:00:00	5	Humedad	73
165041	7	Sololá	712	San Antonio Palopó	9	San Antonio Palopo	4	Abril	2023-04-13T00:00:00	2024-11-08T07:00:00	6	Velocidad del viento	4.8
165042	7	Sololá	712	San Antonio Palopó	9	San Antonio Palopo	4	Abril	2023-04-13T00:00:00	2024-11-08T07:00:00	7	Dirección del viento	4.83
165043	7	Sololá	712	San Antonio Palopó	9	San Antonio Palopo	4	Abril	2023-04-13T00:00:00	2024-11-08T07:00:00	1	Precipitación	0
165044	7	Sololá	712	San Antonio Palopó	9	San Antonio Palopo	4	Abril	2023-04-13T00:00:00	2024-11-08T07:00:00	8	Radiación solar	20
165045	7	Sololá	712	San Antonio Palopó	9	San Antonio Palopo	4	Abril	2023-04-13T00:00:00	2024-11-08T08:00:00	2	Temperatura media	18.6
165046	7	Sololá	712	San Antonio Palopó	9	San Antonio Palopo	4	Abril	2023-04-13T00:00:00	2024-11-08T08:00:00	4	Temperatura máxima	18.6
165047	7	Sololá	712	San Antonio Palopó	9	San Antonio Palopo	4	Abril	2023-04-13T00:00:00	2024-11-08T08:00:00	3	Temperatura mínima	16.6
165048	7	Sololá	712	San Antonio Palopó	9	San Antonio Palopo	4	Abril	2023-04-13T00:00:00	2024-11-08T08:00:00	5	Humedad	71
165049	7	Sololá	712	San Antonio Palopó	9	San Antonio Palopo	4	Abril	2023-04-13T00:00:00	2024-11-08T08:00:00	6	Velocidad del viento	1.6
165050	7	Sololá	712	San Antonio Palopó	9	San Antonio Palopo	4	Abril	2023-04-13T00:00:00	2024-11-08T08:00:00	7	Dirección del viento	1.61
165051	7	Sololá	712	San Antonio Palopó	9	San Antonio Palopo	4	Abril	2023-04-13T00:00:00	2024-11-08T08:00:00	1	Precipitación	0
165052	7	Sololá	712	San Antonio Palopó	9	San Antonio Palopo	4	Abril	2023-04-13T00:00:00	2024-11-08T08:00:00	8	Radiación solar	118
165053	7	Sololá	712	San Antonio Palopó	9	San Antonio Palopo	4	Abril	2023-04-13T00:00:00	2024-11-08T09:00:00	2	Temperatura media	20
165054	7	Sololá	712	San Antonio Palopó	9	San Antonio Palopo	4	Abril	2023-04-13T00:00:00	2024-11-08T09:00:00	4	Temperatura máxima	20.1
165055	7	Sololá	712	San Antonio Palopó	9	San Antonio Palopo	4	Abril	2023-04-13T00:00:00	2024-11-08T09:00:00	3	Temperatura mínima	18.7
165056	7	Sololá	712	San Antonio Palopó	9	San Antonio Palopo	4	Abril	2023-04-13T00:00:00	2024-11-08T09:00:00	5	Humedad	68
165057	7	Sololá	712	San Antonio Palopó	9	San Antonio Palopo	4	Abril	2023-04-13T00:00:00	2024-11-08T09:00:00	6	Velocidad del viento	1.6
165058	7	Sololá	712	San Antonio Palopó	9	San Antonio Palopo	4	Abril	2023-04-13T00:00:00	2024-11-08T09:00:00	7	Dirección del viento	1.61
165059	7	Sololá	712	San Antonio Palopó	9	San Antonio Palopo	4	Abril	2023-04-13T00:00:00	2024-11-08T09:00:00	1	Precipitación	0
165060	7	Sololá	712	San Antonio Palopó	9	San Antonio Palopo	4	Abril	2023-04-13T00:00:00	2024-11-08T09:00:00	8	Radiación solar	360
165061	7	Sololá	712	San Antonio Palopó	9	San Antonio Palopo	4	Abril	2023-04-13T00:00:00	2024-11-08T10:00:00	2	Temperatura media	21.6
165062	7	Sololá	712	San Antonio Palopó	9	San Antonio Palopo	4	Abril	2023-04-13T00:00:00	2024-11-08T10:00:00	4	Temperatura máxima	21.6
165063	7	Sololá	712	San Antonio Palopó	9	San Antonio Palopo	4	Abril	2023-04-13T00:00:00	2024-11-08T10:00:00	3	Temperatura mínima	20
165064	7	Sololá	712	San Antonio Palopó	9	San Antonio Palopo	4	Abril	2023-04-13T00:00:00	2024-11-08T10:00:00	5	Humedad	62
165065	7	Sololá	712	San Antonio Palopó	9	San Antonio Palopo	4	Abril	2023-04-13T00:00:00	2024-11-08T10:00:00	6	Velocidad del viento	3.2
165066	7	Sololá	712	San Antonio Palopó	9	San Antonio Palopo	4	Abril	2023-04-13T00:00:00	2024-11-08T10:00:00	7	Dirección del viento	3.22
165067	7	Sololá	712	San Antonio Palopó	9	San Antonio Palopo	4	Abril	2023-04-13T00:00:00	2024-11-08T10:00:00	1	Precipitación	0
165068	7	Sololá	712	San Antonio Palopó	9	San Antonio Palopo	4	Abril	2023-04-13T00:00:00	2024-11-08T10:00:00	8	Radiación solar	526
165069	7	Sololá	712	San Antonio Palopó	9	San Antonio Palopo	4	Abril	2023-04-13T00:00:00	2024-11-08T11:00:00	2	Temperatura media	23.1
165070	7	Sololá	712	San Antonio Palopó	9	San Antonio Palopo	4	Abril	2023-04-13T00:00:00	2024-11-08T11:00:00	4	Temperatura máxima	23.1
165071	7	Sololá	712	San Antonio Palopó	9	San Antonio Palopo	4	Abril	2023-04-13T00:00:00	2024-11-08T11:00:00	3	Temperatura mínima	21.5
165072	7	Sololá	712	San Antonio Palopó	9	San Antonio Palopo	4	Abril	2023-04-13T00:00:00	2024-11-08T11:00:00	5	Humedad	59
165073	7	Sololá	712	San Antonio Palopó	9	San Antonio Palopo	4	Abril	2023-04-13T00:00:00	2024-11-08T11:00:00	6	Velocidad del viento	4.8
165074	7	Sololá	712	San Antonio Palopó	9	San Antonio Palopo	4	Abril	2023-04-13T00:00:00	2024-11-08T11:00:00	7	Dirección del viento	4.83
165075	7	Sololá	712	San Antonio Palopó	9	San Antonio Palopo	4	Abril	2023-04-13T00:00:00	2024-11-08T11:00:00	1	Precipitación	0
165076	7	Sololá	712	San Antonio Palopó	9	San Antonio Palopo	4	Abril	2023-04-13T00:00:00	2024-11-08T11:00:00	8	Radiación solar	788
165077	7	Sololá	712	San Antonio Palopó	9	San Antonio Palopo	4	Abril	2023-04-13T00:00:00	2024-11-08T12:00:00	2	Temperatura media	23.6
165078	7	Sololá	712	San Antonio Palopó	9	San Antonio Palopo	4	Abril	2023-04-13T00:00:00	2024-11-08T12:00:00	4	Temperatura máxima	23.6
165079	7	Sololá	712	San Antonio Palopó	9	San Antonio Palopo	4	Abril	2023-04-13T00:00:00	2024-11-08T12:00:00	3	Temperatura mínima	23.1
165080	7	Sololá	712	San Antonio Palopó	9	San Antonio Palopo	4	Abril	2023-04-13T00:00:00	2024-11-08T12:00:00	5	Humedad	60
165081	7	Sololá	712	San Antonio Palopó	9	San Antonio Palopo	4	Abril	2023-04-13T00:00:00	2024-11-08T12:00:00	6	Velocidad del viento	8
165082	7	Sololá	712	San Antonio Palopó	9	San Antonio Palopo	4	Abril	2023-04-13T00:00:00	2024-11-08T12:00:00	7	Dirección del viento	8.05
165083	7	Sololá	712	San Antonio Palopó	9	San Antonio Palopo	4	Abril	2023-04-13T00:00:00	2024-11-08T12:00:00	1	Precipitación	0
165084	7	Sololá	712	San Antonio Palopó	9	San Antonio Palopo	4	Abril	2023-04-13T00:00:00	2024-11-08T12:00:00	8	Radiación solar	943
165085	7	Sololá	712	San Antonio Palopó	9	San Antonio Palopo	4	Abril	2023-04-13T00:00:00	2024-11-08T13:00:00	2	Temperatura media	22.3
165086	7	Sololá	712	San Antonio Palopó	9	San Antonio Palopo	4	Abril	2023-04-13T00:00:00	2024-11-08T13:00:00	4	Temperatura máxima	23.6
165087	7	Sololá	712	San Antonio Palopó	9	San Antonio Palopo	4	Abril	2023-04-13T00:00:00	2024-11-08T13:00:00	3	Temperatura mínima	22.3
165088	7	Sololá	712	San Antonio Palopó	9	San Antonio Palopo	4	Abril	2023-04-13T00:00:00	2024-11-08T13:00:00	5	Humedad	68
165089	7	Sololá	712	San Antonio Palopó	9	San Antonio Palopo	4	Abril	2023-04-13T00:00:00	2024-11-08T13:00:00	6	Velocidad del viento	9.7
165090	7	Sololá	712	San Antonio Palopó	9	San Antonio Palopo	4	Abril	2023-04-13T00:00:00	2024-11-08T13:00:00	7	Dirección del viento	9.66
165091	7	Sololá	712	San Antonio Palopó	9	San Antonio Palopo	4	Abril	2023-04-13T00:00:00	2024-11-08T13:00:00	1	Precipitación	0
165092	7	Sololá	712	San Antonio Palopó	9	San Antonio Palopo	4	Abril	2023-04-13T00:00:00	2024-11-08T13:00:00	8	Radiación solar	744
165093	7	Sololá	712	San Antonio Palopó	9	San Antonio Palopo	4	Abril	2023-04-13T00:00:00	2024-11-08T14:00:00	2	Temperatura media	22.6
165094	7	Sololá	712	San Antonio Palopó	9	San Antonio Palopo	4	Abril	2023-04-13T00:00:00	2024-11-08T14:00:00	4	Temperatura máxima	23
165095	7	Sololá	712	San Antonio Palopó	9	San Antonio Palopo	4	Abril	2023-04-13T00:00:00	2024-11-08T14:00:00	3	Temperatura mínima	22.1
165096	7	Sololá	712	San Antonio Palopó	9	San Antonio Palopo	4	Abril	2023-04-13T00:00:00	2024-11-08T14:00:00	5	Humedad	69
165097	7	Sololá	712	San Antonio Palopó	9	San Antonio Palopo	4	Abril	2023-04-13T00:00:00	2024-11-08T14:00:00	6	Velocidad del viento	11.3
165098	7	Sololá	712	San Antonio Palopó	9	San Antonio Palopo	4	Abril	2023-04-13T00:00:00	2024-11-08T14:00:00	7	Dirección del viento	11.27
165099	7	Sololá	712	San Antonio Palopó	9	San Antonio Palopo	4	Abril	2023-04-13T00:00:00	2024-11-08T14:00:00	1	Precipitación	0
165100	7	Sololá	712	San Antonio Palopó	9	San Antonio Palopo	4	Abril	2023-04-13T00:00:00	2024-11-08T14:00:00	8	Radiación solar	575
165101	7	Sololá	712	San Antonio Palopó	9	San Antonio Palopo	4	Abril	2023-04-13T00:00:00	2024-11-08T15:00:00	2	Temperatura media	21.8
165102	7	Sololá	712	San Antonio Palopó	9	San Antonio Palopo	4	Abril	2023-04-13T00:00:00	2024-11-08T15:00:00	4	Temperatura máxima	22.7
165103	7	Sololá	712	San Antonio Palopó	9	San Antonio Palopo	4	Abril	2023-04-13T00:00:00	2024-11-08T15:00:00	3	Temperatura mínima	21.8
165104	7	Sololá	712	San Antonio Palopó	9	San Antonio Palopo	4	Abril	2023-04-13T00:00:00	2024-11-08T15:00:00	5	Humedad	72
165105	7	Sololá	712	San Antonio Palopó	9	San Antonio Palopo	4	Abril	2023-04-13T00:00:00	2024-11-08T15:00:00	6	Velocidad del viento	11.3
165106	7	Sololá	712	San Antonio Palopó	9	San Antonio Palopo	4	Abril	2023-04-13T00:00:00	2024-11-08T15:00:00	7	Dirección del viento	11.27
165107	7	Sololá	712	San Antonio Palopó	9	San Antonio Palopo	4	Abril	2023-04-13T00:00:00	2024-11-08T15:00:00	1	Precipitación	0
165108	7	Sololá	712	San Antonio Palopó	9	San Antonio Palopo	4	Abril	2023-04-13T00:00:00	2024-11-08T15:00:00	8	Radiación solar	402
165109	7	Sololá	712	San Antonio Palopó	9	San Antonio Palopo	4	Abril	2023-04-13T00:00:00	2024-11-08T16:00:00	2	Temperatura media	21.5
165110	7	Sololá	712	San Antonio Palopó	9	San Antonio Palopo	4	Abril	2023-04-13T00:00:00	2024-11-08T16:00:00	4	Temperatura máxima	22.3
165111	7	Sololá	712	San Antonio Palopó	9	San Antonio Palopo	4	Abril	2023-04-13T00:00:00	2024-11-08T16:00:00	3	Temperatura mínima	21.3
165112	7	Sololá	712	San Antonio Palopó	9	San Antonio Palopo	4	Abril	2023-04-13T00:00:00	2024-11-08T16:00:00	5	Humedad	74
165113	7	Sololá	712	San Antonio Palopó	9	San Antonio Palopo	4	Abril	2023-04-13T00:00:00	2024-11-08T16:00:00	6	Velocidad del viento	9.7
165114	7	Sololá	712	San Antonio Palopó	9	San Antonio Palopo	4	Abril	2023-04-13T00:00:00	2024-11-08T16:00:00	7	Dirección del viento	9.66
165115	7	Sololá	712	San Antonio Palopó	9	San Antonio Palopo	4	Abril	2023-04-13T00:00:00	2024-11-08T16:00:00	1	Precipitación	0
165116	7	Sololá	712	San Antonio Palopó	9	San Antonio Palopo	4	Abril	2023-04-13T00:00:00	2024-11-08T16:00:00	8	Radiación solar	279
165117	7	Sololá	712	San Antonio Palopó	9	San Antonio Palopo	4	Abril	2023-04-13T00:00:00	2024-11-08T17:00:00	2	Temperatura media	21.2
165118	7	Sololá	712	San Antonio Palopó	9	San Antonio Palopo	4	Abril	2023-04-13T00:00:00	2024-11-08T17:00:00	4	Temperatura máxima	21.7
165119	7	Sololá	712	San Antonio Palopó	9	San Antonio Palopo	4	Abril	2023-04-13T00:00:00	2024-11-08T17:00:00	3	Temperatura mínima	20.9
165120	7	Sololá	712	San Antonio Palopó	9	San Antonio Palopo	4	Abril	2023-04-13T00:00:00	2024-11-08T17:00:00	5	Humedad	78
165121	7	Sololá	712	San Antonio Palopó	9	San Antonio Palopo	4	Abril	2023-04-13T00:00:00	2024-11-08T17:00:00	6	Velocidad del viento	8
165122	7	Sololá	712	San Antonio Palopó	9	San Antonio Palopo	4	Abril	2023-04-13T00:00:00	2024-11-08T17:00:00	7	Dirección del viento	8.05
165123	7	Sololá	712	San Antonio Palopó	9	San Antonio Palopo	4	Abril	2023-04-13T00:00:00	2024-11-08T17:00:00	1	Precipitación	0
165124	7	Sololá	712	San Antonio Palopó	9	San Antonio Palopo	4	Abril	2023-04-13T00:00:00	2024-11-08T17:00:00	8	Radiación solar	190
165125	7	Sololá	712	San Antonio Palopó	9	San Antonio Palopo	4	Abril	2023-04-13T00:00:00	2024-11-08T18:00:00	2	Temperatura media	20.1
165126	7	Sololá	712	San Antonio Palopó	9	San Antonio Palopo	4	Abril	2023-04-13T00:00:00	2024-11-08T18:00:00	4	Temperatura máxima	21.3
165127	7	Sololá	712	San Antonio Palopó	9	San Antonio Palopo	4	Abril	2023-04-13T00:00:00	2024-11-08T18:00:00	3	Temperatura mínima	20.1
165128	7	Sololá	712	San Antonio Palopó	9	San Antonio Palopo	4	Abril	2023-04-13T00:00:00	2024-11-08T18:00:00	5	Humedad	83
165129	7	Sololá	712	San Antonio Palopó	9	San Antonio Palopo	4	Abril	2023-04-13T00:00:00	2024-11-08T18:00:00	6	Velocidad del viento	6.4
165130	7	Sololá	712	San Antonio Palopó	9	San Antonio Palopo	4	Abril	2023-04-13T00:00:00	2024-11-08T18:00:00	7	Dirección del viento	6.44
165131	7	Sololá	712	San Antonio Palopó	9	San Antonio Palopo	4	Abril	2023-04-13T00:00:00	2024-11-08T18:00:00	1	Precipitación	0
165132	7	Sololá	712	San Antonio Palopó	9	San Antonio Palopo	4	Abril	2023-04-13T00:00:00	2024-11-08T18:00:00	8	Radiación solar	73
165133	7	Sololá	712	San Antonio Palopó	9	San Antonio Palopo	4	Abril	2023-04-13T00:00:00	2024-11-08T19:00:00	2	Temperatura media	19.8
165134	7	Sololá	712	San Antonio Palopó	9	San Antonio Palopo	4	Abril	2023-04-13T00:00:00	2024-11-08T19:00:00	4	Temperatura máxima	20.2
165135	7	Sololá	712	San Antonio Palopó	9	San Antonio Palopo	4	Abril	2023-04-13T00:00:00	2024-11-08T19:00:00	3	Temperatura mínima	19.8
165136	7	Sololá	712	San Antonio Palopó	9	San Antonio Palopo	4	Abril	2023-04-13T00:00:00	2024-11-08T19:00:00	5	Humedad	84
165137	7	Sololá	712	San Antonio Palopó	9	San Antonio Palopo	4	Abril	2023-04-13T00:00:00	2024-11-08T19:00:00	6	Velocidad del viento	3.2
165138	7	Sololá	712	San Antonio Palopó	9	San Antonio Palopo	4	Abril	2023-04-13T00:00:00	2024-11-08T19:00:00	7	Dirección del viento	3.22
165139	7	Sololá	712	San Antonio Palopó	9	San Antonio Palopo	4	Abril	2023-04-13T00:00:00	2024-11-08T19:00:00	1	Precipitación	0
165140	7	Sololá	712	San Antonio Palopó	9	San Antonio Palopo	4	Abril	2023-04-13T00:00:00	2024-11-08T19:00:00	8	Radiación solar	0
165141	7	Sololá	712	San Antonio Palopó	9	San Antonio Palopo	4	Abril	2023-04-13T00:00:00	2024-11-08T20:00:00	2	Temperatura media	19.8
165142	7	Sololá	712	San Antonio Palopó	9	San Antonio Palopo	4	Abril	2023-04-13T00:00:00	2024-11-08T20:00:00	4	Temperatura máxima	19.8
165143	7	Sololá	712	San Antonio Palopó	9	San Antonio Palopo	4	Abril	2023-04-13T00:00:00	2024-11-08T20:00:00	3	Temperatura mínima	19.6
165144	7	Sololá	712	San Antonio Palopó	9	San Antonio Palopo	4	Abril	2023-04-13T00:00:00	2024-11-08T20:00:00	5	Humedad	82
165145	7	Sololá	712	San Antonio Palopó	9	San Antonio Palopo	4	Abril	2023-04-13T00:00:00	2024-11-08T20:00:00	6	Velocidad del viento	3.2
165146	7	Sololá	712	San Antonio Palopó	9	San Antonio Palopo	4	Abril	2023-04-13T00:00:00	2024-11-08T20:00:00	7	Dirección del viento	3.22
165147	7	Sololá	712	San Antonio Palopó	9	San Antonio Palopo	4	Abril	2023-04-13T00:00:00	2024-11-08T20:00:00	1	Precipitación	0
165148	7	Sololá	712	San Antonio Palopó	9	San Antonio Palopo	4	Abril	2023-04-13T00:00:00	2024-11-08T20:00:00	8	Radiación solar	0
165149	7	Sololá	712	San Antonio Palopó	9	San Antonio Palopo	4	Abril	2023-04-13T00:00:00	2024-11-08T21:00:00	2	Temperatura media	19.1
165150	7	Sololá	712	San Antonio Palopó	9	San Antonio Palopo	4	Abril	2023-04-13T00:00:00	2024-11-08T21:00:00	4	Temperatura máxima	19.9
165151	7	Sololá	712	San Antonio Palopó	9	San Antonio Palopo	4	Abril	2023-04-13T00:00:00	2024-11-08T21:00:00	3	Temperatura mínima	19.1
165152	7	Sololá	712	San Antonio Palopó	9	San Antonio Palopo	4	Abril	2023-04-13T00:00:00	2024-11-08T21:00:00	5	Humedad	82
165153	7	Sololá	712	San Antonio Palopó	9	San Antonio Palopo	4	Abril	2023-04-13T00:00:00	2024-11-08T21:00:00	6	Velocidad del viento	0
165154	7	Sololá	712	San Antonio Palopó	9	San Antonio Palopo	4	Abril	2023-04-13T00:00:00	2024-11-08T21:00:00	7	Dirección del viento	0
165155	7	Sololá	712	San Antonio Palopó	9	San Antonio Palopo	4	Abril	2023-04-13T00:00:00	2024-11-08T21:00:00	1	Precipitación	0
165156	7	Sololá	712	San Antonio Palopó	9	San Antonio Palopo	4	Abril	2023-04-13T00:00:00	2024-11-08T21:00:00	8	Radiación solar	0
165157	7	Sololá	712	San Antonio Palopó	9	San Antonio Palopo	4	Abril	2023-04-13T00:00:00	2024-11-08T22:00:00	2	Temperatura media	18.6
165158	7	Sololá	712	San Antonio Palopó	9	San Antonio Palopo	4	Abril	2023-04-13T00:00:00	2024-11-08T22:00:00	4	Temperatura máxima	19.1
165159	7	Sololá	712	San Antonio Palopó	9	San Antonio Palopo	4	Abril	2023-04-13T00:00:00	2024-11-08T22:00:00	3	Temperatura mínima	18.4
165160	7	Sololá	712	San Antonio Palopó	9	San Antonio Palopo	4	Abril	2023-04-13T00:00:00	2024-11-08T22:00:00	5	Humedad	81
165161	7	Sololá	712	San Antonio Palopó	9	San Antonio Palopo	4	Abril	2023-04-13T00:00:00	2024-11-08T22:00:00	6	Velocidad del viento	1.6
165162	7	Sololá	712	San Antonio Palopó	9	San Antonio Palopo	4	Abril	2023-04-13T00:00:00	2024-11-08T22:00:00	7	Dirección del viento	1.61
165163	7	Sololá	712	San Antonio Palopó	9	San Antonio Palopo	4	Abril	2023-04-13T00:00:00	2024-11-08T22:00:00	1	Precipitación	0
165164	7	Sololá	712	San Antonio Palopó	9	San Antonio Palopo	4	Abril	2023-04-13T00:00:00	2024-11-08T22:00:00	8	Radiación solar	0
165165	7	Sololá	712	San Antonio Palopó	9	San Antonio Palopo	4	Abril	2023-04-13T00:00:00	2024-11-08T23:00:00	2	Temperatura media	18.9
165166	7	Sololá	712	San Antonio Palopó	9	San Antonio Palopo	4	Abril	2023-04-13T00:00:00	2024-11-08T23:00:00	4	Temperatura máxima	19.3
165167	7	Sololá	712	San Antonio Palopó	9	San Antonio Palopo	4	Abril	2023-04-13T00:00:00	2024-11-08T23:00:00	3	Temperatura mínima	18.3
165168	7	Sololá	712	San Antonio Palopó	9	San Antonio Palopo	4	Abril	2023-04-13T00:00:00	2024-11-08T23:00:00	5	Humedad	78
165169	7	Sololá	712	San Antonio Palopó	9	San Antonio Palopo	4	Abril	2023-04-13T00:00:00	2024-11-08T23:00:00	6	Velocidad del viento	3.2
165170	7	Sololá	712	San Antonio Palopó	9	San Antonio Palopo	4	Abril	2023-04-13T00:00:00	2024-11-08T23:00:00	7	Dirección del viento	3.22
165171	7	Sololá	712	San Antonio Palopó	9	San Antonio Palopo	4	Abril	2023-04-13T00:00:00	2024-11-08T23:00:00	1	Precipitación	0
165172	7	Sololá	712	San Antonio Palopó	9	San Antonio Palopo	4	Abril	2023-04-13T00:00:00	2024-11-08T23:00:00	8	Radiación solar	0
165173	7	Sololá	712	San Antonio Palopó	9	San Antonio Palopo	4	Abril	2023-04-14T00:00:00	2024-11-08T00:00:00	2	Temperatura media	19.2
165174	7	Sololá	712	San Antonio Palopó	9	San Antonio Palopo	4	Abril	2023-04-14T00:00:00	2024-11-08T00:00:00	4	Temperatura máxima	19.2
165175	7	Sololá	712	San Antonio Palopó	9	San Antonio Palopo	4	Abril	2023-04-14T00:00:00	2024-11-08T00:00:00	3	Temperatura mínima	18.8
165176	7	Sololá	712	San Antonio Palopó	9	San Antonio Palopo	4	Abril	2023-04-14T00:00:00	2024-11-08T00:00:00	5	Humedad	75
165177	7	Sololá	712	San Antonio Palopó	9	San Antonio Palopo	4	Abril	2023-04-14T00:00:00	2024-11-08T00:00:00	6	Velocidad del viento	3.2
165178	7	Sololá	712	San Antonio Palopó	9	San Antonio Palopo	4	Abril	2023-04-14T00:00:00	2024-11-08T00:00:00	7	Dirección del viento	3.22
165179	7	Sololá	712	San Antonio Palopó	9	San Antonio Palopo	4	Abril	2023-04-14T00:00:00	2024-11-08T00:00:00	1	Precipitación	0
165180	7	Sololá	712	San Antonio Palopó	9	San Antonio Palopo	4	Abril	2023-04-14T00:00:00	2024-11-08T00:00:00	8	Radiación solar	0
165181	7	Sololá	712	San Antonio Palopó	9	San Antonio Palopo	4	Abril	2023-04-14T00:00:00	2024-11-08T01:00:00	2	Temperatura media	18.4
165182	7	Sololá	712	San Antonio Palopó	9	San Antonio Palopo	4	Abril	2023-04-14T00:00:00	2024-11-08T01:00:00	4	Temperatura máxima	19.2
165183	7	Sololá	712	San Antonio Palopó	9	San Antonio Palopo	4	Abril	2023-04-14T00:00:00	2024-11-08T01:00:00	3	Temperatura mínima	18.4
165184	7	Sololá	712	San Antonio Palopó	9	San Antonio Palopo	4	Abril	2023-04-14T00:00:00	2024-11-08T01:00:00	5	Humedad	75
165185	7	Sololá	712	San Antonio Palopó	9	San Antonio Palopo	4	Abril	2023-04-14T00:00:00	2024-11-08T01:00:00	6	Velocidad del viento	6.4
165186	7	Sololá	712	San Antonio Palopó	9	San Antonio Palopo	4	Abril	2023-04-14T00:00:00	2024-11-08T01:00:00	7	Dirección del viento	6.44
165187	7	Sololá	712	San Antonio Palopó	9	San Antonio Palopo	4	Abril	2023-04-14T00:00:00	2024-11-08T01:00:00	1	Precipitación	0
165188	7	Sololá	712	San Antonio Palopó	9	San Antonio Palopo	4	Abril	2023-04-14T00:00:00	2024-11-08T01:00:00	8	Radiación solar	0
165189	7	Sololá	712	San Antonio Palopó	9	San Antonio Palopo	4	Abril	2023-04-14T00:00:00	2024-11-08T02:00:00	2	Temperatura media	17.9
165190	7	Sololá	712	San Antonio Palopó	9	San Antonio Palopo	4	Abril	2023-04-14T00:00:00	2024-11-08T02:00:00	4	Temperatura máxima	18.4
165191	7	Sololá	712	San Antonio Palopó	9	San Antonio Palopo	4	Abril	2023-04-14T00:00:00	2024-11-08T02:00:00	3	Temperatura mínima	17.9
165192	7	Sololá	712	San Antonio Palopó	9	San Antonio Palopo	4	Abril	2023-04-14T00:00:00	2024-11-08T02:00:00	5	Humedad	74
165193	7	Sololá	712	San Antonio Palopó	9	San Antonio Palopo	4	Abril	2023-04-14T00:00:00	2024-11-08T02:00:00	6	Velocidad del viento	4.8
165194	7	Sololá	712	San Antonio Palopó	9	San Antonio Palopo	4	Abril	2023-04-14T00:00:00	2024-11-08T02:00:00	7	Dirección del viento	4.83
165195	7	Sololá	712	San Antonio Palopó	9	San Antonio Palopo	4	Abril	2023-04-14T00:00:00	2024-11-08T02:00:00	1	Precipitación	0
165196	7	Sololá	712	San Antonio Palopó	9	San Antonio Palopo	4	Abril	2023-04-14T00:00:00	2024-11-08T02:00:00	8	Radiación solar	0
165197	7	Sololá	712	San Antonio Palopó	9	San Antonio Palopo	4	Abril	2023-04-14T00:00:00	2024-11-08T03:00:00	2	Temperatura media	17.4
165198	7	Sololá	712	San Antonio Palopó	9	San Antonio Palopo	4	Abril	2023-04-14T00:00:00	2024-11-08T03:00:00	4	Temperatura máxima	17.9
165199	7	Sololá	712	San Antonio Palopó	9	San Antonio Palopo	4	Abril	2023-04-14T00:00:00	2024-11-08T03:00:00	3	Temperatura mínima	17.3
165200	7	Sololá	712	San Antonio Palopó	9	San Antonio Palopo	4	Abril	2023-04-14T00:00:00	2024-11-08T03:00:00	5	Humedad	74
165201	7	Sololá	712	San Antonio Palopó	9	San Antonio Palopo	4	Abril	2023-04-14T00:00:00	2024-11-08T03:00:00	6	Velocidad del viento	4.8
165202	7	Sololá	712	San Antonio Palopó	9	San Antonio Palopo	4	Abril	2023-04-14T00:00:00	2024-11-08T03:00:00	7	Dirección del viento	4.83
165203	7	Sololá	712	San Antonio Palopó	9	San Antonio Palopo	4	Abril	2023-04-14T00:00:00	2024-11-08T03:00:00	1	Precipitación	0
165204	7	Sololá	712	San Antonio Palopó	9	San Antonio Palopo	4	Abril	2023-04-14T00:00:00	2024-11-08T03:00:00	8	Radiación solar	0
165205	7	Sololá	712	San Antonio Palopó	9	San Antonio Palopo	4	Abril	2023-04-14T00:00:00	2024-11-08T04:00:00	2	Temperatura media	17.2
165206	7	Sololá	712	San Antonio Palopó	9	San Antonio Palopo	4	Abril	2023-04-14T00:00:00	2024-11-08T04:00:00	4	Temperatura máxima	17.4
165207	7	Sololá	712	San Antonio Palopó	9	San Antonio Palopo	4	Abril	2023-04-14T00:00:00	2024-11-08T04:00:00	3	Temperatura mínima	16.8
165208	7	Sololá	712	San Antonio Palopó	9	San Antonio Palopo	4	Abril	2023-04-14T00:00:00	2024-11-08T04:00:00	5	Humedad	69
165209	7	Sololá	712	San Antonio Palopó	9	San Antonio Palopo	4	Abril	2023-04-14T00:00:00	2024-11-08T04:00:00	6	Velocidad del viento	4.8
165210	7	Sololá	712	San Antonio Palopó	9	San Antonio Palopo	4	Abril	2023-04-14T00:00:00	2024-11-08T04:00:00	7	Dirección del viento	4.83
165211	7	Sololá	712	San Antonio Palopó	9	San Antonio Palopo	4	Abril	2023-04-14T00:00:00	2024-11-08T04:00:00	1	Precipitación	0
165212	7	Sololá	712	San Antonio Palopó	9	San Antonio Palopo	4	Abril	2023-04-14T00:00:00	2024-11-08T04:00:00	8	Radiación solar	0
165213	7	Sololá	712	San Antonio Palopó	9	San Antonio Palopo	4	Abril	2023-04-14T00:00:00	2024-11-08T05:00:00	2	Temperatura media	17.3
165214	7	Sololá	712	San Antonio Palopó	9	San Antonio Palopo	4	Abril	2023-04-14T00:00:00	2024-11-08T05:00:00	4	Temperatura máxima	17.4
165215	7	Sololá	712	San Antonio Palopó	9	San Antonio Palopo	4	Abril	2023-04-14T00:00:00	2024-11-08T05:00:00	3	Temperatura mínima	17.2
165216	7	Sololá	712	San Antonio Palopó	9	San Antonio Palopo	4	Abril	2023-04-14T00:00:00	2024-11-08T05:00:00	5	Humedad	61
165217	7	Sololá	712	San Antonio Palopó	9	San Antonio Palopo	4	Abril	2023-04-14T00:00:00	2024-11-08T05:00:00	6	Velocidad del viento	4.8
165218	7	Sololá	712	San Antonio Palopó	9	San Antonio Palopo	4	Abril	2023-04-14T00:00:00	2024-11-08T05:00:00	7	Dirección del viento	4.83
165219	7	Sololá	712	San Antonio Palopó	9	San Antonio Palopo	4	Abril	2023-04-14T00:00:00	2024-11-08T05:00:00	1	Precipitación	0
165220	7	Sololá	712	San Antonio Palopó	9	San Antonio Palopo	4	Abril	2023-04-14T00:00:00	2024-11-08T05:00:00	8	Radiación solar	0
165221	7	Sololá	712	San Antonio Palopó	9	San Antonio Palopo	4	Abril	2023-04-14T00:00:00	2024-11-08T06:00:00	2	Temperatura media	17
165222	7	Sololá	712	San Antonio Palopó	9	San Antonio Palopo	4	Abril	2023-04-14T00:00:00	2024-11-08T06:00:00	4	Temperatura máxima	17.3
165223	7	Sololá	712	San Antonio Palopó	9	San Antonio Palopo	4	Abril	2023-04-14T00:00:00	2024-11-08T06:00:00	3	Temperatura mínima	17
165224	7	Sololá	712	San Antonio Palopó	9	San Antonio Palopo	4	Abril	2023-04-14T00:00:00	2024-11-08T06:00:00	5	Humedad	63
165225	7	Sololá	712	San Antonio Palopó	9	San Antonio Palopo	4	Abril	2023-04-14T00:00:00	2024-11-08T06:00:00	6	Velocidad del viento	4.8
165226	7	Sololá	712	San Antonio Palopó	9	San Antonio Palopo	4	Abril	2023-04-14T00:00:00	2024-11-08T06:00:00	7	Dirección del viento	4.83
165227	7	Sololá	712	San Antonio Palopó	9	San Antonio Palopo	4	Abril	2023-04-14T00:00:00	2024-11-08T06:00:00	1	Precipitación	0
165228	7	Sololá	712	San Antonio Palopó	9	San Antonio Palopo	4	Abril	2023-04-14T00:00:00	2024-11-08T06:00:00	8	Radiación solar	0
165229	7	Sololá	712	San Antonio Palopó	9	San Antonio Palopo	4	Abril	2023-04-14T00:00:00	2024-11-08T07:00:00	2	Temperatura media	18
165230	7	Sololá	712	San Antonio Palopó	9	San Antonio Palopo	4	Abril	2023-04-14T00:00:00	2024-11-08T07:00:00	4	Temperatura máxima	18.1
165231	7	Sololá	712	San Antonio Palopó	9	San Antonio Palopo	4	Abril	2023-04-14T00:00:00	2024-11-08T07:00:00	3	Temperatura mínima	17
165232	7	Sololá	712	San Antonio Palopó	9	San Antonio Palopo	4	Abril	2023-04-14T00:00:00	2024-11-08T07:00:00	5	Humedad	59
165233	7	Sololá	712	San Antonio Palopó	9	San Antonio Palopo	4	Abril	2023-04-14T00:00:00	2024-11-08T07:00:00	6	Velocidad del viento	8
165234	7	Sololá	712	San Antonio Palopó	9	San Antonio Palopo	4	Abril	2023-04-14T00:00:00	2024-11-08T07:00:00	7	Dirección del viento	8.05
165235	7	Sololá	712	San Antonio Palopó	9	San Antonio Palopo	4	Abril	2023-04-14T00:00:00	2024-11-08T07:00:00	1	Precipitación	0
165236	7	Sololá	712	San Antonio Palopó	9	San Antonio Palopo	4	Abril	2023-04-14T00:00:00	2024-11-08T07:00:00	8	Radiación solar	18
165237	7	Sololá	712	San Antonio Palopó	9	San Antonio Palopo	4	Abril	2023-04-14T00:00:00	2024-11-08T08:00:00	2	Temperatura media	17.6
165238	7	Sololá	712	San Antonio Palopó	9	San Antonio Palopo	4	Abril	2023-04-14T00:00:00	2024-11-08T08:00:00	4	Temperatura máxima	17.9
165239	7	Sololá	712	San Antonio Palopó	9	San Antonio Palopo	4	Abril	2023-04-14T00:00:00	2024-11-08T08:00:00	3	Temperatura mínima	16.8
165240	7	Sololá	712	San Antonio Palopó	9	San Antonio Palopo	4	Abril	2023-04-14T00:00:00	2024-11-08T08:00:00	5	Humedad	69
165241	7	Sololá	712	San Antonio Palopó	9	San Antonio Palopo	4	Abril	2023-04-14T00:00:00	2024-11-08T08:00:00	6	Velocidad del viento	4.8
165242	7	Sololá	712	San Antonio Palopó	9	San Antonio Palopo	4	Abril	2023-04-14T00:00:00	2024-11-08T08:00:00	7	Dirección del viento	4.83
165243	7	Sololá	712	San Antonio Palopó	9	San Antonio Palopo	4	Abril	2023-04-14T00:00:00	2024-11-08T08:00:00	1	Precipitación	0
165244	7	Sololá	712	San Antonio Palopó	9	San Antonio Palopo	4	Abril	2023-04-14T00:00:00	2024-11-08T08:00:00	8	Radiación solar	108
165245	7	Sololá	712	San Antonio Palopó	9	San Antonio Palopo	4	Abril	2023-04-14T00:00:00	2024-11-08T09:00:00	2	Temperatura media	19.3
165246	7	Sololá	712	San Antonio Palopó	9	San Antonio Palopo	4	Abril	2023-04-14T00:00:00	2024-11-08T09:00:00	4	Temperatura máxima	20
165247	7	Sololá	712	San Antonio Palopó	9	San Antonio Palopo	4	Abril	2023-04-14T00:00:00	2024-11-08T09:00:00	3	Temperatura mínima	17.7
165248	7	Sololá	712	San Antonio Palopó	9	San Antonio Palopo	4	Abril	2023-04-14T00:00:00	2024-11-08T09:00:00	5	Humedad	66
165249	7	Sololá	712	San Antonio Palopó	9	San Antonio Palopo	4	Abril	2023-04-14T00:00:00	2024-11-08T09:00:00	6	Velocidad del viento	1.6
165250	7	Sololá	712	San Antonio Palopó	9	San Antonio Palopo	4	Abril	2023-04-14T00:00:00	2024-11-08T09:00:00	7	Dirección del viento	1.61
165251	7	Sololá	712	San Antonio Palopó	9	San Antonio Palopo	4	Abril	2023-04-14T00:00:00	2024-11-08T09:00:00	1	Precipitación	0
165252	7	Sololá	712	San Antonio Palopó	9	San Antonio Palopo	4	Abril	2023-04-14T00:00:00	2024-11-08T09:00:00	8	Radiación solar	428
165253	7	Sololá	712	San Antonio Palopó	9	San Antonio Palopo	4	Abril	2023-04-14T00:00:00	2024-11-08T10:00:00	2	Temperatura media	20.7
165254	7	Sololá	712	San Antonio Palopó	9	San Antonio Palopo	4	Abril	2023-04-14T00:00:00	2024-11-08T10:00:00	4	Temperatura máxima	20.7
165255	7	Sololá	712	San Antonio Palopó	9	San Antonio Palopo	4	Abril	2023-04-14T00:00:00	2024-11-08T10:00:00	3	Temperatura mínima	19.3
165256	7	Sololá	712	San Antonio Palopó	9	San Antonio Palopo	4	Abril	2023-04-14T00:00:00	2024-11-08T10:00:00	5	Humedad	64
165257	7	Sololá	712	San Antonio Palopó	9	San Antonio Palopo	4	Abril	2023-04-14T00:00:00	2024-11-08T10:00:00	6	Velocidad del viento	3.2
165258	7	Sololá	712	San Antonio Palopó	9	San Antonio Palopo	4	Abril	2023-04-14T00:00:00	2024-11-08T10:00:00	7	Dirección del viento	3.22
165259	7	Sololá	712	San Antonio Palopó	9	San Antonio Palopo	4	Abril	2023-04-14T00:00:00	2024-11-08T10:00:00	1	Precipitación	0
165260	7	Sololá	712	San Antonio Palopó	9	San Antonio Palopo	4	Abril	2023-04-14T00:00:00	2024-11-08T10:00:00	8	Radiación solar	591
165261	7	Sololá	712	San Antonio Palopó	9	San Antonio Palopo	4	Abril	2023-04-14T00:00:00	2024-11-08T11:00:00	2	Temperatura media	22.2
165262	7	Sololá	712	San Antonio Palopó	9	San Antonio Palopo	4	Abril	2023-04-14T00:00:00	2024-11-08T11:00:00	4	Temperatura máxima	22.3
165263	7	Sololá	712	San Antonio Palopó	9	San Antonio Palopo	4	Abril	2023-04-14T00:00:00	2024-11-08T11:00:00	3	Temperatura mínima	20.6
165264	7	Sololá	712	San Antonio Palopó	9	San Antonio Palopo	4	Abril	2023-04-14T00:00:00	2024-11-08T11:00:00	5	Humedad	61
165265	7	Sololá	712	San Antonio Palopó	9	San Antonio Palopo	4	Abril	2023-04-14T00:00:00	2024-11-08T11:00:00	6	Velocidad del viento	4.8
165266	7	Sololá	712	San Antonio Palopó	9	San Antonio Palopo	4	Abril	2023-04-14T00:00:00	2024-11-08T11:00:00	7	Dirección del viento	4.83
165267	7	Sololá	712	San Antonio Palopó	9	San Antonio Palopo	4	Abril	2023-04-14T00:00:00	2024-11-08T11:00:00	1	Precipitación	0
165268	7	Sololá	712	San Antonio Palopó	9	San Antonio Palopo	4	Abril	2023-04-14T00:00:00	2024-11-08T11:00:00	8	Radiación solar	772
165269	7	Sololá	712	San Antonio Palopó	9	San Antonio Palopo	4	Abril	2023-04-14T00:00:00	2024-11-08T12:00:00	2	Temperatura media	23.9
165270	7	Sololá	712	San Antonio Palopó	9	San Antonio Palopo	4	Abril	2023-04-14T00:00:00	2024-11-08T12:00:00	4	Temperatura máxima	23.9
165271	7	Sololá	712	San Antonio Palopó	9	San Antonio Palopo	4	Abril	2023-04-14T00:00:00	2024-11-08T12:00:00	3	Temperatura mínima	22.2
165272	7	Sololá	712	San Antonio Palopó	9	San Antonio Palopo	4	Abril	2023-04-14T00:00:00	2024-11-08T12:00:00	5	Humedad	59
165273	7	Sololá	712	San Antonio Palopó	9	San Antonio Palopo	4	Abril	2023-04-14T00:00:00	2024-11-08T12:00:00	6	Velocidad del viento	4.8
165274	7	Sololá	712	San Antonio Palopó	9	San Antonio Palopo	4	Abril	2023-04-14T00:00:00	2024-11-08T12:00:00	7	Dirección del viento	4.83
165275	7	Sololá	712	San Antonio Palopó	9	San Antonio Palopo	4	Abril	2023-04-14T00:00:00	2024-11-08T12:00:00	1	Precipitación	0
165276	7	Sololá	712	San Antonio Palopó	9	San Antonio Palopo	4	Abril	2023-04-14T00:00:00	2024-11-08T12:00:00	8	Radiación solar	906
165277	7	Sololá	712	San Antonio Palopó	9	San Antonio Palopo	4	Abril	2023-04-14T00:00:00	2024-11-08T13:00:00	2	Temperatura media	23.8
165278	7	Sololá	712	San Antonio Palopó	9	San Antonio Palopo	4	Abril	2023-04-14T00:00:00	2024-11-08T13:00:00	4	Temperatura máxima	24.5
165279	7	Sololá	712	San Antonio Palopó	9	San Antonio Palopo	4	Abril	2023-04-14T00:00:00	2024-11-08T13:00:00	3	Temperatura mínima	23.8
165280	7	Sololá	712	San Antonio Palopó	9	San Antonio Palopo	4	Abril	2023-04-14T00:00:00	2024-11-08T13:00:00	5	Humedad	64
165281	7	Sololá	712	San Antonio Palopó	9	San Antonio Palopo	4	Abril	2023-04-14T00:00:00	2024-11-08T13:00:00	6	Velocidad del viento	11.3
165282	7	Sololá	712	San Antonio Palopó	9	San Antonio Palopo	4	Abril	2023-04-14T00:00:00	2024-11-08T13:00:00	7	Dirección del viento	11.27
165283	7	Sololá	712	San Antonio Palopó	9	San Antonio Palopo	4	Abril	2023-04-14T00:00:00	2024-11-08T13:00:00	1	Precipitación	0
165284	7	Sololá	712	San Antonio Palopó	9	San Antonio Palopo	4	Abril	2023-04-14T00:00:00	2024-11-08T13:00:00	8	Radiación solar	907
165285	7	Sololá	712	San Antonio Palopó	9	San Antonio Palopo	4	Abril	2023-04-14T00:00:00	2024-11-08T14:00:00	2	Temperatura media	23.8
165286	7	Sololá	712	San Antonio Palopó	9	San Antonio Palopo	4	Abril	2023-04-14T00:00:00	2024-11-08T14:00:00	4	Temperatura máxima	23.9
165287	7	Sololá	712	San Antonio Palopó	9	San Antonio Palopo	4	Abril	2023-04-14T00:00:00	2024-11-08T14:00:00	3	Temperatura mínima	23.1
165288	7	Sololá	712	San Antonio Palopó	9	San Antonio Palopo	4	Abril	2023-04-14T00:00:00	2024-11-08T14:00:00	5	Humedad	64
165289	7	Sololá	712	San Antonio Palopó	9	San Antonio Palopo	4	Abril	2023-04-14T00:00:00	2024-11-08T14:00:00	6	Velocidad del viento	14.5
165290	7	Sololá	712	San Antonio Palopó	9	San Antonio Palopo	4	Abril	2023-04-14T00:00:00	2024-11-08T14:00:00	7	Dirección del viento	14.48
165291	7	Sololá	712	San Antonio Palopó	9	San Antonio Palopo	4	Abril	2023-04-14T00:00:00	2024-11-08T14:00:00	1	Precipitación	0
165292	7	Sololá	712	San Antonio Palopó	9	San Antonio Palopo	4	Abril	2023-04-14T00:00:00	2024-11-08T14:00:00	8	Radiación solar	831
165293	7	Sololá	712	San Antonio Palopó	9	San Antonio Palopo	4	Abril	2023-04-14T00:00:00	2024-11-08T15:00:00	2	Temperatura media	23.6
165294	7	Sololá	712	San Antonio Palopó	9	San Antonio Palopo	4	Abril	2023-04-14T00:00:00	2024-11-08T15:00:00	4	Temperatura máxima	23.8
165295	7	Sololá	712	San Antonio Palopó	9	San Antonio Palopo	4	Abril	2023-04-14T00:00:00	2024-11-08T15:00:00	3	Temperatura mínima	23.3
165296	7	Sololá	712	San Antonio Palopó	9	San Antonio Palopo	4	Abril	2023-04-14T00:00:00	2024-11-08T15:00:00	5	Humedad	64
165297	7	Sololá	712	San Antonio Palopó	9	San Antonio Palopo	4	Abril	2023-04-14T00:00:00	2024-11-08T15:00:00	6	Velocidad del viento	14.5
165298	7	Sololá	712	San Antonio Palopó	9	San Antonio Palopo	4	Abril	2023-04-14T00:00:00	2024-11-08T15:00:00	7	Dirección del viento	14.48
165299	7	Sololá	712	San Antonio Palopó	9	San Antonio Palopo	4	Abril	2023-04-14T00:00:00	2024-11-08T15:00:00	1	Precipitación	0
165300	7	Sololá	712	San Antonio Palopó	9	San Antonio Palopo	4	Abril	2023-04-14T00:00:00	2024-11-08T15:00:00	8	Radiación solar	681
165301	7	Sololá	712	San Antonio Palopó	9	San Antonio Palopo	4	Abril	2023-04-14T00:00:00	2024-11-08T16:00:00	2	Temperatura media	22.8
165302	7	Sololá	712	San Antonio Palopó	9	San Antonio Palopo	4	Abril	2023-04-14T00:00:00	2024-11-08T16:00:00	4	Temperatura máxima	23.7
165303	7	Sololá	712	San Antonio Palopó	9	San Antonio Palopo	4	Abril	2023-04-14T00:00:00	2024-11-08T16:00:00	3	Temperatura mínima	22.8
165304	7	Sololá	712	San Antonio Palopó	9	San Antonio Palopo	4	Abril	2023-04-14T00:00:00	2024-11-08T16:00:00	5	Humedad	69
165305	7	Sololá	712	San Antonio Palopó	9	San Antonio Palopo	4	Abril	2023-04-14T00:00:00	2024-11-08T16:00:00	6	Velocidad del viento	14.5
165306	7	Sololá	712	San Antonio Palopó	9	San Antonio Palopo	4	Abril	2023-04-14T00:00:00	2024-11-08T16:00:00	7	Dirección del viento	14.48
165307	7	Sololá	712	San Antonio Palopó	9	San Antonio Palopo	4	Abril	2023-04-14T00:00:00	2024-11-08T16:00:00	1	Precipitación	0
165308	7	Sololá	712	San Antonio Palopó	9	San Antonio Palopo	4	Abril	2023-04-14T00:00:00	2024-11-08T16:00:00	8	Radiación solar	504
165309	7	Sololá	712	San Antonio Palopó	9	San Antonio Palopo	4	Abril	2023-04-14T00:00:00	2024-11-08T17:00:00	2	Temperatura media	21.7
165310	7	Sololá	712	San Antonio Palopó	9	San Antonio Palopo	4	Abril	2023-04-14T00:00:00	2024-11-08T17:00:00	4	Temperatura máxima	22.8
165311	7	Sololá	712	San Antonio Palopó	9	San Antonio Palopo	4	Abril	2023-04-14T00:00:00	2024-11-08T17:00:00	3	Temperatura mínima	21.7
165312	7	Sololá	712	San Antonio Palopó	9	San Antonio Palopo	4	Abril	2023-04-14T00:00:00	2024-11-08T17:00:00	5	Humedad	75
165313	7	Sololá	712	San Antonio Palopó	9	San Antonio Palopo	4	Abril	2023-04-14T00:00:00	2024-11-08T17:00:00	6	Velocidad del viento	12.9
165314	7	Sololá	712	San Antonio Palopó	9	San Antonio Palopo	4	Abril	2023-04-14T00:00:00	2024-11-08T17:00:00	7	Dirección del viento	12.87
165315	7	Sololá	712	San Antonio Palopó	9	San Antonio Palopo	4	Abril	2023-04-14T00:00:00	2024-11-08T17:00:00	1	Precipitación	0
165316	7	Sololá	712	San Antonio Palopó	9	San Antonio Palopo	4	Abril	2023-04-14T00:00:00	2024-11-08T17:00:00	8	Radiación solar	170
165317	7	Sololá	712	San Antonio Palopó	9	San Antonio Palopo	4	Abril	2023-04-14T00:00:00	2024-11-08T18:00:00	2	Temperatura media	20.9
165318	7	Sololá	712	San Antonio Palopó	9	San Antonio Palopo	4	Abril	2023-04-14T00:00:00	2024-11-08T18:00:00	4	Temperatura máxima	21.7
165319	7	Sololá	712	San Antonio Palopó	9	San Antonio Palopo	4	Abril	2023-04-14T00:00:00	2024-11-08T18:00:00	3	Temperatura mínima	20.9
165320	7	Sololá	712	San Antonio Palopó	9	San Antonio Palopo	4	Abril	2023-04-14T00:00:00	2024-11-08T18:00:00	5	Humedad	79
165321	7	Sololá	712	San Antonio Palopó	9	San Antonio Palopo	4	Abril	2023-04-14T00:00:00	2024-11-08T18:00:00	6	Velocidad del viento	8
165322	7	Sololá	712	San Antonio Palopó	9	San Antonio Palopo	4	Abril	2023-04-14T00:00:00	2024-11-08T18:00:00	7	Dirección del viento	8.05
165323	7	Sololá	712	San Antonio Palopó	9	San Antonio Palopo	4	Abril	2023-04-14T00:00:00	2024-11-08T18:00:00	1	Precipitación	0
165324	7	Sololá	712	San Antonio Palopó	9	San Antonio Palopo	4	Abril	2023-04-14T00:00:00	2024-11-08T18:00:00	8	Radiación solar	56
165325	7	Sololá	712	San Antonio Palopó	9	San Antonio Palopo	4	Abril	2023-04-14T00:00:00	2024-11-08T19:00:00	2	Temperatura media	20.7
165326	7	Sololá	712	San Antonio Palopó	9	San Antonio Palopo	4	Abril	2023-04-14T00:00:00	2024-11-08T19:00:00	4	Temperatura máxima	21.1
165327	7	Sololá	712	San Antonio Palopó	9	San Antonio Palopo	4	Abril	2023-04-14T00:00:00	2024-11-08T19:00:00	3	Temperatura mínima	20.7
165328	7	Sololá	712	San Antonio Palopó	9	San Antonio Palopo	4	Abril	2023-04-14T00:00:00	2024-11-08T19:00:00	5	Humedad	79
165329	7	Sololá	712	San Antonio Palopó	9	San Antonio Palopo	4	Abril	2023-04-14T00:00:00	2024-11-08T19:00:00	6	Velocidad del viento	3.2
165330	7	Sololá	712	San Antonio Palopó	9	San Antonio Palopo	4	Abril	2023-04-14T00:00:00	2024-11-08T19:00:00	7	Dirección del viento	3.22
165331	7	Sololá	712	San Antonio Palopó	9	San Antonio Palopo	4	Abril	2023-04-14T00:00:00	2024-11-08T19:00:00	1	Precipitación	0
165332	7	Sololá	712	San Antonio Palopó	9	San Antonio Palopo	4	Abril	2023-04-14T00:00:00	2024-11-08T19:00:00	8	Radiación solar	0
165333	7	Sololá	712	San Antonio Palopó	9	San Antonio Palopo	4	Abril	2023-04-14T00:00:00	2024-11-08T20:00:00	2	Temperatura media	20.4
165334	7	Sololá	712	San Antonio Palopó	9	San Antonio Palopo	4	Abril	2023-04-14T00:00:00	2024-11-08T20:00:00	4	Temperatura máxima	21.1
165335	7	Sololá	712	San Antonio Palopó	9	San Antonio Palopo	4	Abril	2023-04-14T00:00:00	2024-11-08T20:00:00	3	Temperatura mínima	20.2
165336	7	Sololá	712	San Antonio Palopó	9	San Antonio Palopo	4	Abril	2023-04-14T00:00:00	2024-11-08T20:00:00	5	Humedad	83
165337	7	Sololá	712	San Antonio Palopó	9	San Antonio Palopo	4	Abril	2023-04-14T00:00:00	2024-11-08T20:00:00	6	Velocidad del viento	3.2
165338	7	Sololá	712	San Antonio Palopó	9	San Antonio Palopo	4	Abril	2023-04-14T00:00:00	2024-11-08T20:00:00	7	Dirección del viento	3.22
165339	7	Sololá	712	San Antonio Palopó	9	San Antonio Palopo	4	Abril	2023-04-14T00:00:00	2024-11-08T20:00:00	1	Precipitación	0
165340	7	Sololá	712	San Antonio Palopó	9	San Antonio Palopo	4	Abril	2023-04-14T00:00:00	2024-11-08T20:00:00	8	Radiación solar	0
165341	7	Sololá	712	San Antonio Palopó	9	San Antonio Palopo	4	Abril	2023-04-14T00:00:00	2024-11-08T21:00:00	2	Temperatura media	19.8
165342	7	Sololá	712	San Antonio Palopó	9	San Antonio Palopo	4	Abril	2023-04-14T00:00:00	2024-11-08T21:00:00	4	Temperatura máxima	20.5
165343	7	Sololá	712	San Antonio Palopó	9	San Antonio Palopo	4	Abril	2023-04-14T00:00:00	2024-11-08T21:00:00	3	Temperatura mínima	19.8
165344	7	Sololá	712	San Antonio Palopó	9	San Antonio Palopo	4	Abril	2023-04-14T00:00:00	2024-11-08T21:00:00	5	Humedad	85
165345	7	Sololá	712	San Antonio Palopó	9	San Antonio Palopo	4	Abril	2023-04-14T00:00:00	2024-11-08T21:00:00	6	Velocidad del viento	3.2
165346	7	Sololá	712	San Antonio Palopó	9	San Antonio Palopo	4	Abril	2023-04-14T00:00:00	2024-11-08T21:00:00	7	Dirección del viento	3.22
165347	7	Sololá	712	San Antonio Palopó	9	San Antonio Palopo	4	Abril	2023-04-14T00:00:00	2024-11-08T21:00:00	1	Precipitación	0
165348	7	Sololá	712	San Antonio Palopó	9	San Antonio Palopo	4	Abril	2023-04-14T00:00:00	2024-11-08T21:00:00	8	Radiación solar	0
165349	7	Sololá	712	San Antonio Palopó	9	San Antonio Palopo	4	Abril	2023-04-14T00:00:00	2024-11-08T22:00:00	2	Temperatura media	19.9
165350	7	Sololá	712	San Antonio Palopó	9	San Antonio Palopo	4	Abril	2023-04-14T00:00:00	2024-11-08T22:00:00	4	Temperatura máxima	20.1
165351	7	Sololá	712	San Antonio Palopó	9	San Antonio Palopo	4	Abril	2023-04-14T00:00:00	2024-11-08T22:00:00	3	Temperatura mínima	19.8
165352	7	Sololá	712	San Antonio Palopó	9	San Antonio Palopo	4	Abril	2023-04-14T00:00:00	2024-11-08T22:00:00	5	Humedad	80
165353	7	Sololá	712	San Antonio Palopó	9	San Antonio Palopo	4	Abril	2023-04-14T00:00:00	2024-11-08T22:00:00	6	Velocidad del viento	1.6
165354	7	Sololá	712	San Antonio Palopó	9	San Antonio Palopo	4	Abril	2023-04-14T00:00:00	2024-11-08T22:00:00	7	Dirección del viento	1.61
165355	7	Sololá	712	San Antonio Palopó	9	San Antonio Palopo	4	Abril	2023-04-14T00:00:00	2024-11-08T22:00:00	1	Precipitación	0
165356	7	Sololá	712	San Antonio Palopó	9	San Antonio Palopo	4	Abril	2023-04-14T00:00:00	2024-11-08T22:00:00	8	Radiación solar	0
165357	7	Sololá	712	San Antonio Palopó	9	San Antonio Palopo	4	Abril	2023-04-14T00:00:00	2024-11-08T23:00:00	2	Temperatura media	19.7
165358	7	Sololá	712	San Antonio Palopó	9	San Antonio Palopo	4	Abril	2023-04-14T00:00:00	2024-11-08T23:00:00	4	Temperatura máxima	20.1
165359	7	Sololá	712	San Antonio Palopó	9	San Antonio Palopo	4	Abril	2023-04-14T00:00:00	2024-11-08T23:00:00	3	Temperatura mínima	19.7
165360	7	Sololá	712	San Antonio Palopó	9	San Antonio Palopo	4	Abril	2023-04-14T00:00:00	2024-11-08T23:00:00	5	Humedad	85
165361	7	Sololá	712	San Antonio Palopó	9	San Antonio Palopo	4	Abril	2023-04-14T00:00:00	2024-11-08T23:00:00	6	Velocidad del viento	1.6
165362	7	Sololá	712	San Antonio Palopó	9	San Antonio Palopo	4	Abril	2023-04-14T00:00:00	2024-11-08T23:00:00	7	Dirección del viento	1.61
165363	7	Sololá	712	San Antonio Palopó	9	San Antonio Palopo	4	Abril	2023-04-14T00:00:00	2024-11-08T23:00:00	1	Precipitación	0
165364	7	Sololá	712	San Antonio Palopó	9	San Antonio Palopo	4	Abril	2023-04-14T00:00:00	2024-11-08T23:00:00	8	Radiación solar	0
165365	7	Sololá	712	San Antonio Palopó	9	San Antonio Palopo	4	Abril	2023-04-15T00:00:00	2024-11-08T00:00:00	2	Temperatura media	19.8
165366	7	Sololá	712	San Antonio Palopó	9	San Antonio Palopo	4	Abril	2023-04-15T00:00:00	2024-11-08T00:00:00	4	Temperatura máxima	19.9
165367	7	Sololá	712	San Antonio Palopó	9	San Antonio Palopo	4	Abril	2023-04-15T00:00:00	2024-11-08T00:00:00	3	Temperatura mínima	19.7
165368	7	Sololá	712	San Antonio Palopó	9	San Antonio Palopo	4	Abril	2023-04-15T00:00:00	2024-11-08T00:00:00	5	Humedad	84
165369	7	Sololá	712	San Antonio Palopó	9	San Antonio Palopo	4	Abril	2023-04-15T00:00:00	2024-11-08T00:00:00	6	Velocidad del viento	1.6
165370	7	Sololá	712	San Antonio Palopó	9	San Antonio Palopo	4	Abril	2023-04-15T00:00:00	2024-11-08T00:00:00	7	Dirección del viento	1.61
165371	7	Sololá	712	San Antonio Palopó	9	San Antonio Palopo	4	Abril	2023-04-15T00:00:00	2024-11-08T00:00:00	1	Precipitación	0
165372	7	Sololá	712	San Antonio Palopó	9	San Antonio Palopo	4	Abril	2023-04-15T00:00:00	2024-11-08T00:00:00	8	Radiación solar	0
165373	7	Sololá	712	San Antonio Palopó	9	San Antonio Palopo	4	Abril	2023-04-15T00:00:00	2024-11-08T01:00:00	2	Temperatura media	19.3
165374	7	Sololá	712	San Antonio Palopó	9	San Antonio Palopo	4	Abril	2023-04-15T00:00:00	2024-11-08T01:00:00	4	Temperatura máxima	19.9
165375	7	Sololá	712	San Antonio Palopó	9	San Antonio Palopo	4	Abril	2023-04-15T00:00:00	2024-11-08T01:00:00	3	Temperatura mínima	19.3
165376	7	Sololá	712	San Antonio Palopó	9	San Antonio Palopo	4	Abril	2023-04-15T00:00:00	2024-11-08T01:00:00	5	Humedad	79
165377	7	Sololá	712	San Antonio Palopó	9	San Antonio Palopo	4	Abril	2023-04-15T00:00:00	2024-11-08T01:00:00	6	Velocidad del viento	4.8
165378	7	Sololá	712	San Antonio Palopó	9	San Antonio Palopo	4	Abril	2023-04-15T00:00:00	2024-11-08T01:00:00	7	Dirección del viento	4.83
165379	7	Sololá	712	San Antonio Palopó	9	San Antonio Palopo	4	Abril	2023-04-15T00:00:00	2024-11-08T01:00:00	1	Precipitación	0
165380	7	Sololá	712	San Antonio Palopó	9	San Antonio Palopo	4	Abril	2023-04-15T00:00:00	2024-11-08T01:00:00	8	Radiación solar	0
165381	7	Sololá	712	San Antonio Palopó	9	San Antonio Palopo	4	Abril	2023-04-15T00:00:00	2024-11-08T02:00:00	2	Temperatura media	18.8
165382	7	Sololá	712	San Antonio Palopó	9	San Antonio Palopo	4	Abril	2023-04-15T00:00:00	2024-11-08T02:00:00	4	Temperatura máxima	19.3
165383	7	Sololá	712	San Antonio Palopó	9	San Antonio Palopo	4	Abril	2023-04-15T00:00:00	2024-11-08T02:00:00	3	Temperatura mínima	18.8
165384	7	Sololá	712	San Antonio Palopó	9	San Antonio Palopo	4	Abril	2023-04-15T00:00:00	2024-11-08T02:00:00	5	Humedad	79
165385	7	Sololá	712	San Antonio Palopó	9	San Antonio Palopo	4	Abril	2023-04-15T00:00:00	2024-11-08T02:00:00	6	Velocidad del viento	1.6
165386	7	Sololá	712	San Antonio Palopó	9	San Antonio Palopo	4	Abril	2023-04-15T00:00:00	2024-11-08T02:00:00	7	Dirección del viento	1.61
165387	7	Sololá	712	San Antonio Palopó	9	San Antonio Palopo	4	Abril	2023-04-15T00:00:00	2024-11-08T02:00:00	1	Precipitación	0
165388	7	Sololá	712	San Antonio Palopó	9	San Antonio Palopo	4	Abril	2023-04-15T00:00:00	2024-11-08T02:00:00	8	Radiación solar	0
165389	7	Sololá	712	San Antonio Palopó	9	San Antonio Palopo	4	Abril	2023-04-15T00:00:00	2024-11-08T03:00:00	2	Temperatura media	18.5
165390	7	Sololá	712	San Antonio Palopó	9	San Antonio Palopo	4	Abril	2023-04-15T00:00:00	2024-11-08T03:00:00	4	Temperatura máxima	18.8
165391	7	Sololá	712	San Antonio Palopó	9	San Antonio Palopo	4	Abril	2023-04-15T00:00:00	2024-11-08T03:00:00	3	Temperatura mínima	18.5
165392	7	Sololá	712	San Antonio Palopó	9	San Antonio Palopo	4	Abril	2023-04-15T00:00:00	2024-11-08T03:00:00	5	Humedad	80
165393	7	Sololá	712	San Antonio Palopó	9	San Antonio Palopo	4	Abril	2023-04-15T00:00:00	2024-11-08T03:00:00	6	Velocidad del viento	1.6
165394	7	Sololá	712	San Antonio Palopó	9	San Antonio Palopo	4	Abril	2023-04-15T00:00:00	2024-11-08T03:00:00	7	Dirección del viento	1.61
165395	7	Sololá	712	San Antonio Palopó	9	San Antonio Palopo	4	Abril	2023-04-15T00:00:00	2024-11-08T03:00:00	1	Precipitación	0
165396	7	Sololá	712	San Antonio Palopó	9	San Antonio Palopo	4	Abril	2023-04-15T00:00:00	2024-11-08T03:00:00	8	Radiación solar	0
165397	7	Sololá	712	San Antonio Palopó	9	San Antonio Palopo	4	Abril	2023-04-15T00:00:00	2024-11-08T04:00:00	2	Temperatura media	18.1
165398	7	Sololá	712	San Antonio Palopó	9	San Antonio Palopo	4	Abril	2023-04-15T00:00:00	2024-11-08T04:00:00	4	Temperatura máxima	18.6
165399	7	Sololá	712	San Antonio Palopó	9	San Antonio Palopo	4	Abril	2023-04-15T00:00:00	2024-11-08T04:00:00	3	Temperatura mínima	18.1
165400	7	Sololá	712	San Antonio Palopó	9	San Antonio Palopo	4	Abril	2023-04-15T00:00:00	2024-11-08T04:00:00	5	Humedad	82
165401	7	Sololá	712	San Antonio Palopó	9	San Antonio Palopo	4	Abril	2023-04-15T00:00:00	2024-11-08T04:00:00	6	Velocidad del viento	3.2
165402	7	Sololá	712	San Antonio Palopó	9	San Antonio Palopo	4	Abril	2023-04-15T00:00:00	2024-11-08T04:00:00	7	Dirección del viento	3.22
165403	7	Sololá	712	San Antonio Palopó	9	San Antonio Palopo	4	Abril	2023-04-15T00:00:00	2024-11-08T04:00:00	1	Precipitación	0
165404	7	Sololá	712	San Antonio Palopó	9	San Antonio Palopo	4	Abril	2023-04-15T00:00:00	2024-11-08T04:00:00	8	Radiación solar	0
165405	7	Sololá	712	San Antonio Palopó	9	San Antonio Palopo	4	Abril	2023-04-15T00:00:00	2024-11-08T05:00:00	2	Temperatura media	17.8
165406	7	Sololá	712	San Antonio Palopó	9	San Antonio Palopo	4	Abril	2023-04-15T00:00:00	2024-11-08T05:00:00	4	Temperatura máxima	18.3
165407	7	Sololá	712	San Antonio Palopó	9	San Antonio Palopo	4	Abril	2023-04-15T00:00:00	2024-11-08T05:00:00	3	Temperatura mínima	17.8
165408	7	Sololá	712	San Antonio Palopó	9	San Antonio Palopo	4	Abril	2023-04-15T00:00:00	2024-11-08T05:00:00	5	Humedad	84
165409	7	Sololá	712	San Antonio Palopó	9	San Antonio Palopo	4	Abril	2023-04-15T00:00:00	2024-11-08T05:00:00	6	Velocidad del viento	1.6
165410	7	Sololá	712	San Antonio Palopó	9	San Antonio Palopo	4	Abril	2023-04-15T00:00:00	2024-11-08T05:00:00	7	Dirección del viento	1.61
165411	7	Sololá	712	San Antonio Palopó	9	San Antonio Palopo	4	Abril	2023-04-15T00:00:00	2024-11-08T05:00:00	1	Precipitación	0
165412	7	Sololá	712	San Antonio Palopó	9	San Antonio Palopo	4	Abril	2023-04-15T00:00:00	2024-11-08T05:00:00	8	Radiación solar	0
165413	7	Sololá	712	San Antonio Palopó	9	San Antonio Palopo	4	Abril	2023-04-15T00:00:00	2024-11-08T06:00:00	2	Temperatura media	17.4
165414	7	Sololá	712	San Antonio Palopó	9	San Antonio Palopo	4	Abril	2023-04-15T00:00:00	2024-11-08T06:00:00	4	Temperatura máxima	17.9
165415	7	Sololá	712	San Antonio Palopó	9	San Antonio Palopo	4	Abril	2023-04-15T00:00:00	2024-11-08T06:00:00	3	Temperatura mínima	17.4
165416	7	Sololá	712	San Antonio Palopó	9	San Antonio Palopo	4	Abril	2023-04-15T00:00:00	2024-11-08T06:00:00	5	Humedad	82
165417	7	Sololá	712	San Antonio Palopó	9	San Antonio Palopo	4	Abril	2023-04-15T00:00:00	2024-11-08T06:00:00	6	Velocidad del viento	3.2
165418	7	Sololá	712	San Antonio Palopó	9	San Antonio Palopo	4	Abril	2023-04-15T00:00:00	2024-11-08T06:00:00	7	Dirección del viento	3.22
165419	7	Sololá	712	San Antonio Palopó	9	San Antonio Palopo	4	Abril	2023-04-15T00:00:00	2024-11-08T06:00:00	1	Precipitación	0
165420	7	Sololá	712	San Antonio Palopó	9	San Antonio Palopo	4	Abril	2023-04-15T00:00:00	2024-11-08T06:00:00	8	Radiación solar	0
165421	7	Sololá	712	San Antonio Palopó	9	San Antonio Palopo	4	Abril	2023-04-15T00:00:00	2024-11-08T07:00:00	2	Temperatura media	18.3
165422	7	Sololá	712	San Antonio Palopó	9	San Antonio Palopo	4	Abril	2023-04-15T00:00:00	2024-11-08T07:00:00	4	Temperatura máxima	18.3
165423	7	Sololá	712	San Antonio Palopó	9	San Antonio Palopo	4	Abril	2023-04-15T00:00:00	2024-11-08T07:00:00	3	Temperatura mínima	17.4
165424	7	Sololá	712	San Antonio Palopó	9	San Antonio Palopo	4	Abril	2023-04-15T00:00:00	2024-11-08T07:00:00	5	Humedad	81
165425	7	Sololá	712	San Antonio Palopó	9	San Antonio Palopo	4	Abril	2023-04-15T00:00:00	2024-11-08T07:00:00	6	Velocidad del viento	1.6
165426	7	Sololá	712	San Antonio Palopó	9	San Antonio Palopo	4	Abril	2023-04-15T00:00:00	2024-11-08T07:00:00	7	Dirección del viento	1.61
165427	7	Sololá	712	San Antonio Palopó	9	San Antonio Palopo	4	Abril	2023-04-15T00:00:00	2024-11-08T07:00:00	1	Precipitación	0
165428	7	Sololá	712	San Antonio Palopó	9	San Antonio Palopo	4	Abril	2023-04-15T00:00:00	2024-11-08T07:00:00	8	Radiación solar	34
165429	7	Sololá	712	San Antonio Palopó	9	San Antonio Palopo	4	Abril	2023-04-15T00:00:00	2024-11-08T08:00:00	2	Temperatura media	19.8
165430	7	Sololá	712	San Antonio Palopó	9	San Antonio Palopo	4	Abril	2023-04-15T00:00:00	2024-11-08T08:00:00	4	Temperatura máxima	19.8
165431	7	Sololá	712	San Antonio Palopó	9	San Antonio Palopo	4	Abril	2023-04-15T00:00:00	2024-11-08T08:00:00	3	Temperatura mínima	18.3
165432	7	Sololá	712	San Antonio Palopó	9	San Antonio Palopo	4	Abril	2023-04-15T00:00:00	2024-11-08T08:00:00	5	Humedad	79
165433	7	Sololá	712	San Antonio Palopó	9	San Antonio Palopo	4	Abril	2023-04-15T00:00:00	2024-11-08T08:00:00	6	Velocidad del viento	1.6
165434	7	Sololá	712	San Antonio Palopó	9	San Antonio Palopo	4	Abril	2023-04-15T00:00:00	2024-11-08T08:00:00	7	Dirección del viento	1.61
165435	7	Sololá	712	San Antonio Palopó	9	San Antonio Palopo	4	Abril	2023-04-15T00:00:00	2024-11-08T08:00:00	1	Precipitación	0
165436	7	Sololá	712	San Antonio Palopó	9	San Antonio Palopo	4	Abril	2023-04-15T00:00:00	2024-11-08T08:00:00	8	Radiación solar	130
165437	7	Sololá	712	San Antonio Palopó	9	San Antonio Palopo	4	Abril	2023-04-15T00:00:00	2024-11-08T09:00:00	2	Temperatura media	20.6
165438	7	Sololá	712	San Antonio Palopó	9	San Antonio Palopo	4	Abril	2023-04-15T00:00:00	2024-11-08T09:00:00	4	Temperatura máxima	20.8
165439	7	Sololá	712	San Antonio Palopó	9	San Antonio Palopo	4	Abril	2023-04-15T00:00:00	2024-11-08T09:00:00	3	Temperatura mínima	19.8
165440	7	Sololá	712	San Antonio Palopó	9	San Antonio Palopo	4	Abril	2023-04-15T00:00:00	2024-11-08T09:00:00	5	Humedad	78
165441	7	Sololá	712	San Antonio Palopó	9	San Antonio Palopo	4	Abril	2023-04-15T00:00:00	2024-11-08T09:00:00	6	Velocidad del viento	1.6
165442	7	Sololá	712	San Antonio Palopó	9	San Antonio Palopo	4	Abril	2023-04-15T00:00:00	2024-11-08T09:00:00	7	Dirección del viento	1.61
165443	7	Sololá	712	San Antonio Palopó	9	San Antonio Palopo	4	Abril	2023-04-15T00:00:00	2024-11-08T09:00:00	1	Precipitación	0
165444	7	Sololá	712	San Antonio Palopó	9	San Antonio Palopo	4	Abril	2023-04-15T00:00:00	2024-11-08T09:00:00	8	Radiación solar	389
165445	7	Sololá	712	San Antonio Palopó	9	San Antonio Palopo	4	Abril	2023-04-15T00:00:00	2024-11-08T10:00:00	2	Temperatura media	21.7
165446	7	Sololá	712	San Antonio Palopó	9	San Antonio Palopo	4	Abril	2023-04-15T00:00:00	2024-11-08T10:00:00	4	Temperatura máxima	21.8
165447	7	Sololá	712	San Antonio Palopó	9	San Antonio Palopo	4	Abril	2023-04-15T00:00:00	2024-11-08T10:00:00	3	Temperatura mínima	20.3
165448	7	Sololá	712	San Antonio Palopó	9	San Antonio Palopo	4	Abril	2023-04-15T00:00:00	2024-11-08T10:00:00	5	Humedad	73
165449	7	Sololá	712	San Antonio Palopó	9	San Antonio Palopo	4	Abril	2023-04-15T00:00:00	2024-11-08T10:00:00	6	Velocidad del viento	3.2
165450	7	Sololá	712	San Antonio Palopó	9	San Antonio Palopo	4	Abril	2023-04-15T00:00:00	2024-11-08T10:00:00	7	Dirección del viento	3.22
165451	7	Sololá	712	San Antonio Palopó	9	San Antonio Palopo	4	Abril	2023-04-15T00:00:00	2024-11-08T10:00:00	1	Precipitación	0
165452	7	Sololá	712	San Antonio Palopó	9	San Antonio Palopo	4	Abril	2023-04-15T00:00:00	2024-11-08T10:00:00	8	Radiación solar	600
165453	7	Sololá	712	San Antonio Palopó	9	San Antonio Palopo	4	Abril	2023-04-15T00:00:00	2024-11-08T11:00:00	2	Temperatura media	23.6
165454	7	Sololá	712	San Antonio Palopó	9	San Antonio Palopo	4	Abril	2023-04-15T00:00:00	2024-11-08T11:00:00	4	Temperatura máxima	23.6
165455	7	Sololá	712	San Antonio Palopó	9	San Antonio Palopo	4	Abril	2023-04-15T00:00:00	2024-11-08T11:00:00	3	Temperatura mínima	21.6
165456	7	Sololá	712	San Antonio Palopó	9	San Antonio Palopo	4	Abril	2023-04-15T00:00:00	2024-11-08T11:00:00	5	Humedad	67
165457	7	Sololá	712	San Antonio Palopó	9	San Antonio Palopo	4	Abril	2023-04-15T00:00:00	2024-11-08T11:00:00	6	Velocidad del viento	4.8
165458	7	Sololá	712	San Antonio Palopó	9	San Antonio Palopo	4	Abril	2023-04-15T00:00:00	2024-11-08T11:00:00	7	Dirección del viento	4.83
165459	7	Sololá	712	San Antonio Palopó	9	San Antonio Palopo	4	Abril	2023-04-15T00:00:00	2024-11-08T11:00:00	1	Precipitación	0
165460	7	Sololá	712	San Antonio Palopó	9	San Antonio Palopo	4	Abril	2023-04-15T00:00:00	2024-11-08T11:00:00	8	Radiación solar	756
165461	7	Sololá	712	San Antonio Palopó	9	San Antonio Palopo	4	Abril	2023-04-15T00:00:00	2024-11-08T12:00:00	2	Temperatura media	23.4
165462	7	Sololá	712	San Antonio Palopó	9	San Antonio Palopo	4	Abril	2023-04-15T00:00:00	2024-11-08T12:00:00	4	Temperatura máxima	24.3
165463	7	Sololá	712	San Antonio Palopó	9	San Antonio Palopo	4	Abril	2023-04-15T00:00:00	2024-11-08T12:00:00	3	Temperatura mínima	23.4
165464	7	Sololá	712	San Antonio Palopó	9	San Antonio Palopo	4	Abril	2023-04-15T00:00:00	2024-11-08T12:00:00	5	Humedad	67
165465	7	Sololá	712	San Antonio Palopó	9	San Antonio Palopo	4	Abril	2023-04-15T00:00:00	2024-11-08T12:00:00	6	Velocidad del viento	8
165466	7	Sololá	712	San Antonio Palopó	9	San Antonio Palopo	4	Abril	2023-04-15T00:00:00	2024-11-08T12:00:00	7	Dirección del viento	8.05
165467	7	Sololá	712	San Antonio Palopó	9	San Antonio Palopo	4	Abril	2023-04-15T00:00:00	2024-11-08T12:00:00	1	Precipitación	0
165468	7	Sololá	712	San Antonio Palopó	9	San Antonio Palopo	4	Abril	2023-04-15T00:00:00	2024-11-08T12:00:00	8	Radiación solar	867
165469	7	Sololá	712	San Antonio Palopó	9	San Antonio Palopo	4	Abril	2023-04-15T00:00:00	2024-11-08T13:00:00	2	Temperatura media	24.2
165470	7	Sololá	712	San Antonio Palopó	9	San Antonio Palopo	4	Abril	2023-04-15T00:00:00	2024-11-08T13:00:00	4	Temperatura máxima	24.4
165471	7	Sololá	712	San Antonio Palopó	9	San Antonio Palopo	4	Abril	2023-04-15T00:00:00	2024-11-08T13:00:00	3	Temperatura mínima	23.4
165472	7	Sololá	712	San Antonio Palopó	9	San Antonio Palopo	4	Abril	2023-04-15T00:00:00	2024-11-08T13:00:00	5	Humedad	67
165473	7	Sololá	712	San Antonio Palopó	9	San Antonio Palopo	4	Abril	2023-04-15T00:00:00	2024-11-08T13:00:00	6	Velocidad del viento	9.7
165474	7	Sololá	712	San Antonio Palopó	9	San Antonio Palopo	4	Abril	2023-04-15T00:00:00	2024-11-08T13:00:00	7	Dirección del viento	9.66
165475	7	Sololá	712	San Antonio Palopó	9	San Antonio Palopo	4	Abril	2023-04-15T00:00:00	2024-11-08T13:00:00	1	Precipitación	0
165476	7	Sololá	712	San Antonio Palopó	9	San Antonio Palopo	4	Abril	2023-04-15T00:00:00	2024-11-08T13:00:00	8	Radiación solar	870
165477	7	Sololá	712	San Antonio Palopó	9	San Antonio Palopo	4	Abril	2023-04-15T00:00:00	2024-11-08T14:00:00	2	Temperatura media	23.3
165478	7	Sololá	712	San Antonio Palopó	9	San Antonio Palopo	4	Abril	2023-04-15T00:00:00	2024-11-08T14:00:00	4	Temperatura máxima	24.4
165479	7	Sololá	712	San Antonio Palopó	9	San Antonio Palopo	4	Abril	2023-04-15T00:00:00	2024-11-08T14:00:00	3	Temperatura mínima	22.9
165480	7	Sololá	712	San Antonio Palopó	9	San Antonio Palopo	4	Abril	2023-04-15T00:00:00	2024-11-08T14:00:00	5	Humedad	72
165481	7	Sololá	712	San Antonio Palopó	9	San Antonio Palopo	4	Abril	2023-04-15T00:00:00	2024-11-08T14:00:00	6	Velocidad del viento	11.3
165482	7	Sololá	712	San Antonio Palopó	9	San Antonio Palopo	4	Abril	2023-04-15T00:00:00	2024-11-08T14:00:00	7	Dirección del viento	11.27
165483	7	Sololá	712	San Antonio Palopó	9	San Antonio Palopo	4	Abril	2023-04-15T00:00:00	2024-11-08T14:00:00	1	Precipitación	0
165484	7	Sololá	712	San Antonio Palopó	9	San Antonio Palopo	4	Abril	2023-04-15T00:00:00	2024-11-08T14:00:00	8	Radiación solar	747
165485	7	Sololá	712	San Antonio Palopó	9	San Antonio Palopo	4	Abril	2023-04-15T00:00:00	2024-11-08T15:00:00	2	Temperatura media	22.7
165486	7	Sololá	712	San Antonio Palopó	9	San Antonio Palopo	4	Abril	2023-04-15T00:00:00	2024-11-08T15:00:00	4	Temperatura máxima	23.6
165487	7	Sololá	712	San Antonio Palopó	9	San Antonio Palopo	4	Abril	2023-04-15T00:00:00	2024-11-08T15:00:00	3	Temperatura mínima	22.4
165488	7	Sololá	712	San Antonio Palopó	9	San Antonio Palopo	4	Abril	2023-04-15T00:00:00	2024-11-08T15:00:00	5	Humedad	74
165489	7	Sololá	712	San Antonio Palopó	9	San Antonio Palopo	4	Abril	2023-04-15T00:00:00	2024-11-08T15:00:00	6	Velocidad del viento	9.7
165490	7	Sololá	712	San Antonio Palopó	9	San Antonio Palopo	4	Abril	2023-04-15T00:00:00	2024-11-08T15:00:00	7	Dirección del viento	9.66
165491	7	Sololá	712	San Antonio Palopó	9	San Antonio Palopo	4	Abril	2023-04-15T00:00:00	2024-11-08T15:00:00	1	Precipitación	0
165492	7	Sololá	712	San Antonio Palopó	9	San Antonio Palopo	4	Abril	2023-04-15T00:00:00	2024-11-08T15:00:00	8	Radiación solar	341
165493	7	Sololá	712	San Antonio Palopó	9	San Antonio Palopo	4	Abril	2023-04-15T00:00:00	2024-11-08T16:00:00	2	Temperatura media	21.9
165494	7	Sololá	712	San Antonio Palopó	9	San Antonio Palopo	4	Abril	2023-04-15T00:00:00	2024-11-08T16:00:00	4	Temperatura máxima	22.6
165495	7	Sololá	712	San Antonio Palopó	9	San Antonio Palopo	4	Abril	2023-04-15T00:00:00	2024-11-08T16:00:00	3	Temperatura mínima	21.9
165496	7	Sololá	712	San Antonio Palopó	9	San Antonio Palopo	4	Abril	2023-04-15T00:00:00	2024-11-08T16:00:00	5	Humedad	77
165497	7	Sololá	712	San Antonio Palopó	9	San Antonio Palopo	4	Abril	2023-04-15T00:00:00	2024-11-08T16:00:00	6	Velocidad del viento	9.7
165498	7	Sololá	712	San Antonio Palopó	9	San Antonio Palopo	4	Abril	2023-04-15T00:00:00	2024-11-08T16:00:00	7	Dirección del viento	9.66
165499	7	Sololá	712	San Antonio Palopó	9	San Antonio Palopo	4	Abril	2023-04-15T00:00:00	2024-11-08T16:00:00	1	Precipitación	0
165500	7	Sololá	712	San Antonio Palopó	9	San Antonio Palopo	4	Abril	2023-04-15T00:00:00	2024-11-08T16:00:00	8	Radiación solar	171
165501	7	Sololá	712	San Antonio Palopó	9	San Antonio Palopo	4	Abril	2023-04-15T00:00:00	2024-11-08T17:00:00	2	Temperatura media	21.3
165502	7	Sololá	712	San Antonio Palopó	9	San Antonio Palopo	4	Abril	2023-04-15T00:00:00	2024-11-08T17:00:00	4	Temperatura máxima	21.9
165503	7	Sololá	712	San Antonio Palopó	9	San Antonio Palopo	4	Abril	2023-04-15T00:00:00	2024-11-08T17:00:00	3	Temperatura mínima	21.3
165504	7	Sololá	712	San Antonio Palopó	9	San Antonio Palopo	4	Abril	2023-04-15T00:00:00	2024-11-08T17:00:00	5	Humedad	78
165505	7	Sololá	712	San Antonio Palopó	9	San Antonio Palopo	4	Abril	2023-04-15T00:00:00	2024-11-08T17:00:00	6	Velocidad del viento	6.4
165506	7	Sololá	712	San Antonio Palopó	9	San Antonio Palopo	4	Abril	2023-04-15T00:00:00	2024-11-08T17:00:00	7	Dirección del viento	6.44
165507	7	Sololá	712	San Antonio Palopó	9	San Antonio Palopo	4	Abril	2023-04-15T00:00:00	2024-11-08T17:00:00	1	Precipitación	0
165508	7	Sololá	712	San Antonio Palopó	9	San Antonio Palopo	4	Abril	2023-04-15T00:00:00	2024-11-08T17:00:00	8	Radiación solar	116
165509	7	Sololá	712	San Antonio Palopó	9	San Antonio Palopo	4	Abril	2023-04-15T00:00:00	2024-11-08T18:00:00	2	Temperatura media	20.7
165510	7	Sololá	712	San Antonio Palopó	9	San Antonio Palopo	4	Abril	2023-04-15T00:00:00	2024-11-08T18:00:00	4	Temperatura máxima	21.4
165511	7	Sololá	712	San Antonio Palopó	9	San Antonio Palopo	4	Abril	2023-04-15T00:00:00	2024-11-08T18:00:00	3	Temperatura mínima	20.7
165512	7	Sololá	712	San Antonio Palopó	9	San Antonio Palopo	4	Abril	2023-04-15T00:00:00	2024-11-08T18:00:00	5	Humedad	81
165513	7	Sololá	712	San Antonio Palopó	9	San Antonio Palopo	4	Abril	2023-04-15T00:00:00	2024-11-08T18:00:00	6	Velocidad del viento	4.8
165514	7	Sololá	712	San Antonio Palopó	9	San Antonio Palopo	4	Abril	2023-04-15T00:00:00	2024-11-08T18:00:00	7	Dirección del viento	4.83
165515	7	Sololá	712	San Antonio Palopó	9	San Antonio Palopo	4	Abril	2023-04-15T00:00:00	2024-11-08T18:00:00	1	Precipitación	0
165516	7	Sololá	712	San Antonio Palopó	9	San Antonio Palopo	4	Abril	2023-04-15T00:00:00	2024-11-08T18:00:00	8	Radiación solar	16
165517	7	Sololá	712	San Antonio Palopó	9	San Antonio Palopo	4	Abril	2023-04-15T00:00:00	2024-11-08T19:00:00	2	Temperatura media	20.9
165518	7	Sololá	712	San Antonio Palopó	9	San Antonio Palopo	4	Abril	2023-04-15T00:00:00	2024-11-08T19:00:00	4	Temperatura máxima	21
165519	7	Sololá	712	San Antonio Palopó	9	San Antonio Palopo	4	Abril	2023-04-15T00:00:00	2024-11-08T19:00:00	3	Temperatura mínima	20.7
165520	7	Sololá	712	San Antonio Palopó	9	San Antonio Palopo	4	Abril	2023-04-15T00:00:00	2024-11-08T19:00:00	5	Humedad	81
165521	7	Sololá	712	San Antonio Palopó	9	San Antonio Palopo	4	Abril	2023-04-15T00:00:00	2024-11-08T19:00:00	6	Velocidad del viento	3.2
165522	7	Sololá	712	San Antonio Palopó	9	San Antonio Palopo	4	Abril	2023-04-15T00:00:00	2024-11-08T19:00:00	7	Dirección del viento	3.22
165523	7	Sololá	712	San Antonio Palopó	9	San Antonio Palopo	4	Abril	2023-04-15T00:00:00	2024-11-08T19:00:00	1	Precipitación	0
165524	7	Sololá	712	San Antonio Palopó	9	San Antonio Palopo	4	Abril	2023-04-15T00:00:00	2024-11-08T19:00:00	8	Radiación solar	0
165525	7	Sololá	712	San Antonio Palopó	9	San Antonio Palopo	4	Abril	2023-04-15T00:00:00	2024-11-08T20:00:00	2	Temperatura media	20.7
165526	7	Sololá	712	San Antonio Palopó	9	San Antonio Palopo	4	Abril	2023-04-15T00:00:00	2024-11-08T20:00:00	4	Temperatura máxima	20.9
165527	7	Sololá	712	San Antonio Palopó	9	San Antonio Palopo	4	Abril	2023-04-15T00:00:00	2024-11-08T20:00:00	3	Temperatura mínima	20.6
165528	7	Sololá	712	San Antonio Palopó	9	San Antonio Palopo	4	Abril	2023-04-15T00:00:00	2024-11-08T20:00:00	5	Humedad	83
165529	7	Sololá	712	San Antonio Palopó	9	San Antonio Palopo	4	Abril	2023-04-15T00:00:00	2024-11-08T20:00:00	6	Velocidad del viento	3.2
165530	7	Sololá	712	San Antonio Palopó	9	San Antonio Palopo	4	Abril	2023-04-15T00:00:00	2024-11-08T20:00:00	7	Dirección del viento	3.22
165531	7	Sololá	712	San Antonio Palopó	9	San Antonio Palopo	4	Abril	2023-04-15T00:00:00	2024-11-08T20:00:00	1	Precipitación	0
165532	7	Sololá	712	San Antonio Palopó	9	San Antonio Palopo	4	Abril	2023-04-15T00:00:00	2024-11-08T20:00:00	8	Radiación solar	0
165533	7	Sololá	712	San Antonio Palopó	9	San Antonio Palopo	4	Abril	2023-04-15T00:00:00	2024-11-08T21:00:00	2	Temperatura media	20.3
165534	7	Sololá	712	San Antonio Palopó	9	San Antonio Palopo	4	Abril	2023-04-15T00:00:00	2024-11-08T21:00:00	4	Temperatura máxima	20.8
165535	7	Sololá	712	San Antonio Palopó	9	San Antonio Palopo	4	Abril	2023-04-15T00:00:00	2024-11-08T21:00:00	3	Temperatura mínima	20.3
165536	7	Sololá	712	San Antonio Palopó	9	San Antonio Palopo	4	Abril	2023-04-15T00:00:00	2024-11-08T21:00:00	5	Humedad	83
165537	7	Sololá	712	San Antonio Palopó	9	San Antonio Palopo	4	Abril	2023-04-15T00:00:00	2024-11-08T21:00:00	6	Velocidad del viento	3.2
165538	7	Sololá	712	San Antonio Palopó	9	San Antonio Palopo	4	Abril	2023-04-15T00:00:00	2024-11-08T21:00:00	7	Dirección del viento	3.22
165539	7	Sololá	712	San Antonio Palopó	9	San Antonio Palopo	4	Abril	2023-04-15T00:00:00	2024-11-08T21:00:00	1	Precipitación	0
165540	7	Sololá	712	San Antonio Palopó	9	San Antonio Palopo	4	Abril	2023-04-15T00:00:00	2024-11-08T21:00:00	8	Radiación solar	0
165541	7	Sololá	712	San Antonio Palopó	9	San Antonio Palopo	4	Abril	2023-04-15T00:00:00	2024-11-08T22:00:00	2	Temperatura media	20.2
165542	7	Sololá	712	San Antonio Palopó	9	San Antonio Palopo	4	Abril	2023-04-15T00:00:00	2024-11-08T22:00:00	4	Temperatura máxima	20.4
165543	7	Sololá	712	San Antonio Palopó	9	San Antonio Palopo	4	Abril	2023-04-15T00:00:00	2024-11-08T22:00:00	3	Temperatura mínima	20.2
165544	7	Sololá	712	San Antonio Palopó	9	San Antonio Palopo	4	Abril	2023-04-15T00:00:00	2024-11-08T22:00:00	5	Humedad	80
165545	7	Sololá	712	San Antonio Palopó	9	San Antonio Palopo	4	Abril	2023-04-15T00:00:00	2024-11-08T22:00:00	6	Velocidad del viento	1.6
165546	7	Sololá	712	San Antonio Palopó	9	San Antonio Palopo	4	Abril	2023-04-15T00:00:00	2024-11-08T22:00:00	7	Dirección del viento	1.61
165547	7	Sololá	712	San Antonio Palopó	9	San Antonio Palopo	4	Abril	2023-04-15T00:00:00	2024-11-08T22:00:00	1	Precipitación	0
165548	7	Sololá	712	San Antonio Palopó	9	San Antonio Palopo	4	Abril	2023-04-15T00:00:00	2024-11-08T22:00:00	8	Radiación solar	0
165549	7	Sololá	712	San Antonio Palopó	9	San Antonio Palopo	4	Abril	2023-04-15T00:00:00	2024-11-08T23:00:00	2	Temperatura media	19.6
165550	7	Sololá	712	San Antonio Palopó	9	San Antonio Palopo	4	Abril	2023-04-15T00:00:00	2024-11-08T23:00:00	4	Temperatura máxima	20.2
165551	7	Sololá	712	San Antonio Palopó	9	San Antonio Palopo	4	Abril	2023-04-15T00:00:00	2024-11-08T23:00:00	3	Temperatura mínima	19.6
165552	7	Sololá	712	San Antonio Palopó	9	San Antonio Palopo	4	Abril	2023-04-15T00:00:00	2024-11-08T23:00:00	5	Humedad	81
165553	7	Sololá	712	San Antonio Palopó	9	San Antonio Palopo	4	Abril	2023-04-15T00:00:00	2024-11-08T23:00:00	6	Velocidad del viento	1.6
165554	7	Sololá	712	San Antonio Palopó	9	San Antonio Palopo	4	Abril	2023-04-15T00:00:00	2024-11-08T23:00:00	7	Dirección del viento	1.61
165555	7	Sololá	712	San Antonio Palopó	9	San Antonio Palopo	4	Abril	2023-04-15T00:00:00	2024-11-08T23:00:00	1	Precipitación	0
165556	7	Sololá	712	San Antonio Palopó	9	San Antonio Palopo	4	Abril	2023-04-15T00:00:00	2024-11-08T23:00:00	8	Radiación solar	0
165557	7	Sololá	712	San Antonio Palopó	9	San Antonio Palopo	4	Abril	2023-04-16T00:00:00	2024-11-08T00:00:00	2	Temperatura media	19.7
165558	7	Sololá	712	San Antonio Palopó	9	San Antonio Palopo	4	Abril	2023-04-16T00:00:00	2024-11-08T00:00:00	4	Temperatura máxima	19.8
165559	7	Sololá	712	San Antonio Palopó	9	San Antonio Palopo	4	Abril	2023-04-16T00:00:00	2024-11-08T00:00:00	3	Temperatura mínima	19.4
165560	7	Sololá	712	San Antonio Palopó	9	San Antonio Palopo	4	Abril	2023-04-16T00:00:00	2024-11-08T00:00:00	5	Humedad	80
165561	7	Sololá	712	San Antonio Palopó	9	San Antonio Palopo	4	Abril	2023-04-16T00:00:00	2024-11-08T00:00:00	6	Velocidad del viento	3.2
165562	7	Sololá	712	San Antonio Palopó	9	San Antonio Palopo	4	Abril	2023-04-16T00:00:00	2024-11-08T00:00:00	7	Dirección del viento	3.22
165563	7	Sololá	712	San Antonio Palopó	9	San Antonio Palopo	4	Abril	2023-04-16T00:00:00	2024-11-08T00:00:00	1	Precipitación	0
165564	7	Sololá	712	San Antonio Palopó	9	San Antonio Palopo	4	Abril	2023-04-16T00:00:00	2024-11-08T00:00:00	8	Radiación solar	0
165565	7	Sololá	712	San Antonio Palopó	9	San Antonio Palopo	4	Abril	2023-04-16T00:00:00	2024-11-08T01:00:00	2	Temperatura media	20
165566	7	Sololá	712	San Antonio Palopó	9	San Antonio Palopo	4	Abril	2023-04-16T00:00:00	2024-11-08T01:00:00	4	Temperatura máxima	20
165567	7	Sololá	712	San Antonio Palopó	9	San Antonio Palopo	4	Abril	2023-04-16T00:00:00	2024-11-08T01:00:00	3	Temperatura mínima	19.7
165568	7	Sololá	712	San Antonio Palopó	9	San Antonio Palopo	4	Abril	2023-04-16T00:00:00	2024-11-08T01:00:00	5	Humedad	76
165569	7	Sololá	712	San Antonio Palopó	9	San Antonio Palopo	4	Abril	2023-04-16T00:00:00	2024-11-08T01:00:00	6	Velocidad del viento	4.8
165570	7	Sololá	712	San Antonio Palopó	9	San Antonio Palopo	4	Abril	2023-04-16T00:00:00	2024-11-08T01:00:00	7	Dirección del viento	4.83
165571	7	Sololá	712	San Antonio Palopó	9	San Antonio Palopo	4	Abril	2023-04-16T00:00:00	2024-11-08T01:00:00	1	Precipitación	0
165572	7	Sololá	712	San Antonio Palopó	9	San Antonio Palopo	4	Abril	2023-04-16T00:00:00	2024-11-08T01:00:00	8	Radiación solar	0
165573	7	Sololá	712	San Antonio Palopó	9	San Antonio Palopo	4	Abril	2023-04-16T00:00:00	2024-11-08T02:00:00	2	Temperatura media	19.3
165574	7	Sololá	712	San Antonio Palopó	9	San Antonio Palopo	4	Abril	2023-04-16T00:00:00	2024-11-08T02:00:00	4	Temperatura máxima	20
165575	7	Sololá	712	San Antonio Palopó	9	San Antonio Palopo	4	Abril	2023-04-16T00:00:00	2024-11-08T02:00:00	3	Temperatura mínima	18.9
165576	7	Sololá	712	San Antonio Palopó	9	San Antonio Palopo	4	Abril	2023-04-16T00:00:00	2024-11-08T02:00:00	5	Humedad	80
165577	7	Sololá	712	San Antonio Palopó	9	San Antonio Palopo	4	Abril	2023-04-16T00:00:00	2024-11-08T02:00:00	6	Velocidad del viento	3.2
165578	7	Sololá	712	San Antonio Palopó	9	San Antonio Palopo	4	Abril	2023-04-16T00:00:00	2024-11-08T02:00:00	7	Dirección del viento	3.22
165579	7	Sololá	712	San Antonio Palopó	9	San Antonio Palopo	4	Abril	2023-04-16T00:00:00	2024-11-08T02:00:00	1	Precipitación	0
165580	7	Sololá	712	San Antonio Palopó	9	San Antonio Palopo	4	Abril	2023-04-16T00:00:00	2024-11-08T02:00:00	8	Radiación solar	0
165581	7	Sololá	712	San Antonio Palopó	9	San Antonio Palopo	4	Abril	2023-04-16T00:00:00	2024-11-08T03:00:00	2	Temperatura media	19.9
165582	7	Sololá	712	San Antonio Palopó	9	San Antonio Palopo	4	Abril	2023-04-16T00:00:00	2024-11-08T03:00:00	4	Temperatura máxima	20
165583	7	Sololá	712	San Antonio Palopó	9	San Antonio Palopo	4	Abril	2023-04-16T00:00:00	2024-11-08T03:00:00	3	Temperatura mínima	19.3
165584	7	Sololá	712	San Antonio Palopó	9	San Antonio Palopo	4	Abril	2023-04-16T00:00:00	2024-11-08T03:00:00	5	Humedad	75
165585	7	Sololá	712	San Antonio Palopó	9	San Antonio Palopo	4	Abril	2023-04-16T00:00:00	2024-11-08T03:00:00	6	Velocidad del viento	3.2
165586	7	Sololá	712	San Antonio Palopó	9	San Antonio Palopo	4	Abril	2023-04-16T00:00:00	2024-11-08T03:00:00	7	Dirección del viento	3.22
165587	7	Sololá	712	San Antonio Palopó	9	San Antonio Palopo	4	Abril	2023-04-16T00:00:00	2024-11-08T03:00:00	1	Precipitación	0
165588	7	Sololá	712	San Antonio Palopó	9	San Antonio Palopo	4	Abril	2023-04-16T00:00:00	2024-11-08T03:00:00	8	Radiación solar	0
165589	7	Sololá	712	San Antonio Palopó	9	San Antonio Palopo	4	Abril	2023-04-16T00:00:00	2024-11-08T04:00:00	2	Temperatura media	18.2
165590	7	Sololá	712	San Antonio Palopó	9	San Antonio Palopo	4	Abril	2023-04-16T00:00:00	2024-11-08T04:00:00	4	Temperatura máxima	20
165591	7	Sololá	712	San Antonio Palopó	9	San Antonio Palopo	4	Abril	2023-04-16T00:00:00	2024-11-08T04:00:00	3	Temperatura mínima	18.2
165592	7	Sololá	712	San Antonio Palopó	9	San Antonio Palopo	4	Abril	2023-04-16T00:00:00	2024-11-08T04:00:00	5	Humedad	83
165593	7	Sololá	712	San Antonio Palopó	9	San Antonio Palopo	4	Abril	2023-04-16T00:00:00	2024-11-08T04:00:00	6	Velocidad del viento	4.8
165594	7	Sololá	712	San Antonio Palopó	9	San Antonio Palopo	4	Abril	2023-04-16T00:00:00	2024-11-08T04:00:00	7	Dirección del viento	4.83
165595	7	Sololá	712	San Antonio Palopó	9	San Antonio Palopo	4	Abril	2023-04-16T00:00:00	2024-11-08T04:00:00	1	Precipitación	0
165596	7	Sololá	712	San Antonio Palopó	9	San Antonio Palopo	4	Abril	2023-04-16T00:00:00	2024-11-08T04:00:00	8	Radiación solar	0
165597	7	Sololá	712	San Antonio Palopó	9	San Antonio Palopo	4	Abril	2023-04-16T00:00:00	2024-11-08T05:00:00	2	Temperatura media	18.1
165598	7	Sololá	712	San Antonio Palopó	9	San Antonio Palopo	4	Abril	2023-04-16T00:00:00	2024-11-08T05:00:00	4	Temperatura máxima	18.3
165599	7	Sololá	712	San Antonio Palopó	9	San Antonio Palopo	4	Abril	2023-04-16T00:00:00	2024-11-08T05:00:00	3	Temperatura mínima	18.1
165600	7	Sololá	712	San Antonio Palopó	9	San Antonio Palopo	4	Abril	2023-04-16T00:00:00	2024-11-08T05:00:00	5	Humedad	84
165601	7	Sololá	712	San Antonio Palopó	9	San Antonio Palopo	4	Abril	2023-04-16T00:00:00	2024-11-08T05:00:00	6	Velocidad del viento	3.2
165602	7	Sololá	712	San Antonio Palopó	9	San Antonio Palopo	4	Abril	2023-04-16T00:00:00	2024-11-08T05:00:00	7	Dirección del viento	3.22
165603	7	Sololá	712	San Antonio Palopó	9	San Antonio Palopo	4	Abril	2023-04-16T00:00:00	2024-11-08T05:00:00	1	Precipitación	0
165604	7	Sololá	712	San Antonio Palopó	9	San Antonio Palopo	4	Abril	2023-04-16T00:00:00	2024-11-08T05:00:00	8	Radiación solar	0
165605	7	Sololá	712	San Antonio Palopó	9	San Antonio Palopo	4	Abril	2023-04-16T00:00:00	2024-11-08T06:00:00	2	Temperatura media	17.7
165606	7	Sololá	712	San Antonio Palopó	9	San Antonio Palopo	4	Abril	2023-04-16T00:00:00	2024-11-08T06:00:00	4	Temperatura máxima	18.1
165607	7	Sololá	712	San Antonio Palopó	9	San Antonio Palopo	4	Abril	2023-04-16T00:00:00	2024-11-08T06:00:00	3	Temperatura mínima	17.7
165608	7	Sololá	712	San Antonio Palopó	9	San Antonio Palopo	4	Abril	2023-04-16T00:00:00	2024-11-08T06:00:00	5	Humedad	82
165609	7	Sololá	712	San Antonio Palopó	9	San Antonio Palopo	4	Abril	2023-04-16T00:00:00	2024-11-08T06:00:00	6	Velocidad del viento	3.2
165610	7	Sololá	712	San Antonio Palopó	9	San Antonio Palopo	4	Abril	2023-04-16T00:00:00	2024-11-08T06:00:00	7	Dirección del viento	3.22
165611	7	Sololá	712	San Antonio Palopó	9	San Antonio Palopo	4	Abril	2023-04-16T00:00:00	2024-11-08T06:00:00	1	Precipitación	0
165612	7	Sololá	712	San Antonio Palopó	9	San Antonio Palopo	4	Abril	2023-04-16T00:00:00	2024-11-08T06:00:00	8	Radiación solar	0
165613	7	Sololá	712	San Antonio Palopó	9	San Antonio Palopo	4	Abril	2023-04-16T00:00:00	2024-11-08T07:00:00	2	Temperatura media	18.7
165614	7	Sololá	712	San Antonio Palopó	9	San Antonio Palopo	4	Abril	2023-04-16T00:00:00	2024-11-08T07:00:00	4	Temperatura máxima	18.8
165615	7	Sololá	712	San Antonio Palopó	9	San Antonio Palopo	4	Abril	2023-04-16T00:00:00	2024-11-08T07:00:00	3	Temperatura mínima	17.7
165616	7	Sololá	712	San Antonio Palopó	9	San Antonio Palopo	4	Abril	2023-04-16T00:00:00	2024-11-08T07:00:00	5	Humedad	80
165617	7	Sololá	712	San Antonio Palopó	9	San Antonio Palopo	4	Abril	2023-04-16T00:00:00	2024-11-08T07:00:00	6	Velocidad del viento	3.2
165618	7	Sololá	712	San Antonio Palopó	9	San Antonio Palopo	4	Abril	2023-04-16T00:00:00	2024-11-08T07:00:00	7	Dirección del viento	3.22
165619	7	Sololá	712	San Antonio Palopó	9	San Antonio Palopo	4	Abril	2023-04-16T00:00:00	2024-11-08T07:00:00	1	Precipitación	0
165620	7	Sololá	712	San Antonio Palopó	9	San Antonio Palopo	4	Abril	2023-04-16T00:00:00	2024-11-08T07:00:00	8	Radiación solar	34
165621	7	Sololá	712	San Antonio Palopó	9	San Antonio Palopo	4	Abril	2023-04-16T00:00:00	2024-11-08T08:00:00	2	Temperatura media	19.8
165622	7	Sololá	712	San Antonio Palopó	9	San Antonio Palopo	4	Abril	2023-04-16T00:00:00	2024-11-08T08:00:00	4	Temperatura máxima	19.8
165623	7	Sololá	712	San Antonio Palopó	9	San Antonio Palopo	4	Abril	2023-04-16T00:00:00	2024-11-08T08:00:00	3	Temperatura mínima	18.7
165624	7	Sololá	712	San Antonio Palopó	9	San Antonio Palopo	4	Abril	2023-04-16T00:00:00	2024-11-08T08:00:00	5	Humedad	79
165625	7	Sololá	712	San Antonio Palopó	9	San Antonio Palopo	4	Abril	2023-04-16T00:00:00	2024-11-08T08:00:00	6	Velocidad del viento	1.6
165626	7	Sololá	712	San Antonio Palopó	9	San Antonio Palopo	4	Abril	2023-04-16T00:00:00	2024-11-08T08:00:00	7	Dirección del viento	1.61
165627	7	Sololá	712	San Antonio Palopó	9	San Antonio Palopo	4	Abril	2023-04-16T00:00:00	2024-11-08T08:00:00	1	Precipitación	0
165628	7	Sololá	712	San Antonio Palopó	9	San Antonio Palopo	4	Abril	2023-04-16T00:00:00	2024-11-08T08:00:00	8	Radiación solar	134
165629	7	Sololá	712	San Antonio Palopó	9	San Antonio Palopo	4	Abril	2023-04-16T00:00:00	2024-11-08T09:00:00	2	Temperatura media	20.7
165630	7	Sololá	712	San Antonio Palopó	9	San Antonio Palopo	4	Abril	2023-04-16T00:00:00	2024-11-08T09:00:00	4	Temperatura máxima	20.7
165631	7	Sololá	712	San Antonio Palopó	9	San Antonio Palopo	4	Abril	2023-04-16T00:00:00	2024-11-08T09:00:00	3	Temperatura mínima	19.8
165632	7	Sololá	712	San Antonio Palopó	9	San Antonio Palopo	4	Abril	2023-04-16T00:00:00	2024-11-08T09:00:00	5	Humedad	76
165633	7	Sololá	712	San Antonio Palopó	9	San Antonio Palopo	4	Abril	2023-04-16T00:00:00	2024-11-08T09:00:00	6	Velocidad del viento	3.2
165634	7	Sololá	712	San Antonio Palopó	9	San Antonio Palopo	4	Abril	2023-04-16T00:00:00	2024-11-08T09:00:00	7	Dirección del viento	3.22
165635	7	Sololá	712	San Antonio Palopó	9	San Antonio Palopo	4	Abril	2023-04-16T00:00:00	2024-11-08T09:00:00	1	Precipitación	0
165636	7	Sololá	712	San Antonio Palopó	9	San Antonio Palopo	4	Abril	2023-04-16T00:00:00	2024-11-08T09:00:00	8	Radiación solar	382
165637	7	Sololá	712	San Antonio Palopó	9	San Antonio Palopo	4	Abril	2023-04-16T00:00:00	2024-11-08T10:00:00	2	Temperatura media	21.8
165638	7	Sololá	712	San Antonio Palopó	9	San Antonio Palopo	4	Abril	2023-04-16T00:00:00	2024-11-08T10:00:00	4	Temperatura máxima	21.8
165639	7	Sololá	712	San Antonio Palopó	9	San Antonio Palopo	4	Abril	2023-04-16T00:00:00	2024-11-08T10:00:00	3	Temperatura mínima	20.7
165640	7	Sololá	712	San Antonio Palopó	9	San Antonio Palopo	4	Abril	2023-04-16T00:00:00	2024-11-08T10:00:00	5	Humedad	74
165641	7	Sololá	712	San Antonio Palopó	9	San Antonio Palopo	4	Abril	2023-04-16T00:00:00	2024-11-08T10:00:00	6	Velocidad del viento	1.6
165642	7	Sololá	712	San Antonio Palopó	9	San Antonio Palopo	4	Abril	2023-04-16T00:00:00	2024-11-08T10:00:00	7	Dirección del viento	1.61
165643	7	Sololá	712	San Antonio Palopó	9	San Antonio Palopo	4	Abril	2023-04-16T00:00:00	2024-11-08T10:00:00	1	Precipitación	0
165644	7	Sololá	712	San Antonio Palopó	9	San Antonio Palopo	4	Abril	2023-04-16T00:00:00	2024-11-08T10:00:00	8	Radiación solar	426
165645	7	Sololá	712	San Antonio Palopó	9	San Antonio Palopo	4	Abril	2023-04-16T00:00:00	2024-11-08T11:00:00	2	Temperatura media	23.7
165646	7	Sololá	712	San Antonio Palopó	9	San Antonio Palopo	4	Abril	2023-04-16T00:00:00	2024-11-08T11:00:00	4	Temperatura máxima	23.9
165647	7	Sololá	712	San Antonio Palopó	9	San Antonio Palopo	4	Abril	2023-04-16T00:00:00	2024-11-08T11:00:00	3	Temperatura mínima	21.8
165648	7	Sololá	712	San Antonio Palopó	9	San Antonio Palopo	4	Abril	2023-04-16T00:00:00	2024-11-08T11:00:00	5	Humedad	69
165649	7	Sololá	712	San Antonio Palopó	9	San Antonio Palopo	4	Abril	2023-04-16T00:00:00	2024-11-08T11:00:00	6	Velocidad del viento	4.8
165650	7	Sololá	712	San Antonio Palopó	9	San Antonio Palopo	4	Abril	2023-04-16T00:00:00	2024-11-08T11:00:00	7	Dirección del viento	4.83
165651	7	Sololá	712	San Antonio Palopó	9	San Antonio Palopo	4	Abril	2023-04-16T00:00:00	2024-11-08T11:00:00	1	Precipitación	0
165652	7	Sololá	712	San Antonio Palopó	9	San Antonio Palopo	4	Abril	2023-04-16T00:00:00	2024-11-08T11:00:00	8	Radiación solar	722
165653	7	Sololá	712	San Antonio Palopó	9	San Antonio Palopo	4	Abril	2023-04-16T00:00:00	2024-11-08T12:00:00	2	Temperatura media	24.1
165654	7	Sololá	712	San Antonio Palopó	9	San Antonio Palopo	4	Abril	2023-04-16T00:00:00	2024-11-08T12:00:00	4	Temperatura máxima	24.3
165655	7	Sololá	712	San Antonio Palopó	9	San Antonio Palopo	4	Abril	2023-04-16T00:00:00	2024-11-08T12:00:00	3	Temperatura mínima	23.2
165656	7	Sololá	712	San Antonio Palopó	9	San Antonio Palopo	4	Abril	2023-04-16T00:00:00	2024-11-08T12:00:00	5	Humedad	71
165657	7	Sololá	712	San Antonio Palopó	9	San Antonio Palopo	4	Abril	2023-04-16T00:00:00	2024-11-08T12:00:00	6	Velocidad del viento	6.4
165658	7	Sololá	712	San Antonio Palopó	9	San Antonio Palopo	4	Abril	2023-04-16T00:00:00	2024-11-08T12:00:00	7	Dirección del viento	6.44
165659	7	Sololá	712	San Antonio Palopó	9	San Antonio Palopo	4	Abril	2023-04-16T00:00:00	2024-11-08T12:00:00	1	Precipitación	0
165660	7	Sololá	712	San Antonio Palopó	9	San Antonio Palopo	4	Abril	2023-04-16T00:00:00	2024-11-08T12:00:00	8	Radiación solar	873
165661	7	Sololá	712	San Antonio Palopó	9	San Antonio Palopo	4	Abril	2023-04-16T00:00:00	2024-11-08T13:00:00	2	Temperatura media	25.1
165662	7	Sololá	712	San Antonio Palopó	9	San Antonio Palopo	4	Abril	2023-04-16T00:00:00	2024-11-08T13:00:00	4	Temperatura máxima	25.2
165663	7	Sololá	712	San Antonio Palopó	9	San Antonio Palopo	4	Abril	2023-04-16T00:00:00	2024-11-08T13:00:00	3	Temperatura mínima	23.6
165664	7	Sololá	712	San Antonio Palopó	9	San Antonio Palopo	4	Abril	2023-04-16T00:00:00	2024-11-08T13:00:00	5	Humedad	65
165665	7	Sololá	712	San Antonio Palopó	9	San Antonio Palopo	4	Abril	2023-04-16T00:00:00	2024-11-08T13:00:00	6	Velocidad del viento	8
165666	7	Sololá	712	San Antonio Palopó	9	San Antonio Palopo	4	Abril	2023-04-16T00:00:00	2024-11-08T13:00:00	7	Dirección del viento	8.05
165667	7	Sololá	712	San Antonio Palopó	9	San Antonio Palopo	4	Abril	2023-04-16T00:00:00	2024-11-08T13:00:00	1	Precipitación	0
165668	7	Sololá	712	San Antonio Palopó	9	San Antonio Palopo	4	Abril	2023-04-16T00:00:00	2024-11-08T13:00:00	8	Radiación solar	911
165669	7	Sololá	712	San Antonio Palopó	9	San Antonio Palopo	4	Abril	2023-04-16T00:00:00	2024-11-08T14:00:00	2	Temperatura media	24.2
165670	7	Sololá	712	San Antonio Palopó	9	San Antonio Palopo	4	Abril	2023-04-16T00:00:00	2024-11-08T14:00:00	4	Temperatura máxima	25.4
165671	7	Sololá	712	San Antonio Palopó	9	San Antonio Palopo	4	Abril	2023-04-16T00:00:00	2024-11-08T14:00:00	3	Temperatura mínima	24.2
165672	7	Sololá	712	San Antonio Palopó	9	San Antonio Palopo	4	Abril	2023-04-16T00:00:00	2024-11-08T14:00:00	5	Humedad	70
165673	7	Sololá	712	San Antonio Palopó	9	San Antonio Palopo	4	Abril	2023-04-16T00:00:00	2024-11-08T14:00:00	6	Velocidad del viento	8
165674	7	Sololá	712	San Antonio Palopó	9	San Antonio Palopo	4	Abril	2023-04-16T00:00:00	2024-11-08T14:00:00	7	Dirección del viento	8.05
165675	7	Sololá	712	San Antonio Palopó	9	San Antonio Palopo	4	Abril	2023-04-16T00:00:00	2024-11-08T14:00:00	1	Precipitación	0
165676	7	Sololá	712	San Antonio Palopó	9	San Antonio Palopo	4	Abril	2023-04-16T00:00:00	2024-11-08T14:00:00	8	Radiación solar	782
165677	7	Sololá	712	San Antonio Palopó	9	San Antonio Palopo	4	Abril	2023-04-16T00:00:00	2024-11-08T15:00:00	2	Temperatura media	23.6
165678	7	Sololá	712	San Antonio Palopó	9	San Antonio Palopo	4	Abril	2023-04-16T00:00:00	2024-11-08T15:00:00	4	Temperatura máxima	24.2
165679	7	Sololá	712	San Antonio Palopó	9	San Antonio Palopo	4	Abril	2023-04-16T00:00:00	2024-11-08T15:00:00	3	Temperatura mínima	23
165680	7	Sololá	712	San Antonio Palopó	9	San Antonio Palopo	4	Abril	2023-04-16T00:00:00	2024-11-08T15:00:00	5	Humedad	72
165681	7	Sololá	712	San Antonio Palopó	9	San Antonio Palopo	4	Abril	2023-04-16T00:00:00	2024-11-08T15:00:00	6	Velocidad del viento	11.3
165682	7	Sololá	712	San Antonio Palopó	9	San Antonio Palopo	4	Abril	2023-04-16T00:00:00	2024-11-08T15:00:00	7	Dirección del viento	11.27
165683	7	Sololá	712	San Antonio Palopó	9	San Antonio Palopo	4	Abril	2023-04-16T00:00:00	2024-11-08T15:00:00	1	Precipitación	0
165684	7	Sololá	712	San Antonio Palopó	9	San Antonio Palopo	4	Abril	2023-04-16T00:00:00	2024-11-08T15:00:00	8	Radiación solar	433
165685	7	Sololá	712	San Antonio Palopó	9	San Antonio Palopo	4	Abril	2023-04-16T00:00:00	2024-11-08T16:00:00	2	Temperatura media	23.1
165686	7	Sololá	712	San Antonio Palopó	9	San Antonio Palopo	4	Abril	2023-04-16T00:00:00	2024-11-08T16:00:00	4	Temperatura máxima	24.4
165687	7	Sololá	712	San Antonio Palopó	9	San Antonio Palopo	4	Abril	2023-04-16T00:00:00	2024-11-08T16:00:00	3	Temperatura mínima	23
165688	7	Sololá	712	San Antonio Palopó	9	San Antonio Palopo	4	Abril	2023-04-16T00:00:00	2024-11-08T16:00:00	5	Humedad	72
165689	7	Sololá	712	San Antonio Palopó	9	San Antonio Palopo	4	Abril	2023-04-16T00:00:00	2024-11-08T16:00:00	6	Velocidad del viento	6.4
165690	7	Sololá	712	San Antonio Palopó	9	San Antonio Palopo	4	Abril	2023-04-16T00:00:00	2024-11-08T16:00:00	7	Dirección del viento	6.44
165691	7	Sololá	712	San Antonio Palopó	9	San Antonio Palopo	4	Abril	2023-04-16T00:00:00	2024-11-08T16:00:00	1	Precipitación	0
165692	7	Sololá	712	San Antonio Palopó	9	San Antonio Palopo	4	Abril	2023-04-16T00:00:00	2024-11-08T16:00:00	8	Radiación solar	278
165693	7	Sololá	712	San Antonio Palopó	9	San Antonio Palopo	4	Abril	2023-04-16T00:00:00	2024-11-08T17:00:00	2	Temperatura media	22.2
165694	7	Sololá	712	San Antonio Palopó	9	San Antonio Palopo	4	Abril	2023-04-16T00:00:00	2024-11-08T17:00:00	4	Temperatura máxima	23.1
165695	7	Sololá	712	San Antonio Palopó	9	San Antonio Palopo	4	Abril	2023-04-16T00:00:00	2024-11-08T17:00:00	3	Temperatura mínima	22.2
165696	7	Sololá	712	San Antonio Palopó	9	San Antonio Palopo	4	Abril	2023-04-16T00:00:00	2024-11-08T17:00:00	5	Humedad	73
165697	7	Sololá	712	San Antonio Palopó	9	San Antonio Palopo	4	Abril	2023-04-16T00:00:00	2024-11-08T17:00:00	6	Velocidad del viento	4.8
165698	7	Sololá	712	San Antonio Palopó	9	San Antonio Palopo	4	Abril	2023-04-16T00:00:00	2024-11-08T17:00:00	7	Dirección del viento	4.83
165699	7	Sololá	712	San Antonio Palopó	9	San Antonio Palopo	4	Abril	2023-04-16T00:00:00	2024-11-08T17:00:00	1	Precipitación	0
165700	7	Sololá	712	San Antonio Palopó	9	San Antonio Palopo	4	Abril	2023-04-16T00:00:00	2024-11-08T17:00:00	8	Radiación solar	67
165701	7	Sololá	712	San Antonio Palopó	9	San Antonio Palopo	4	Abril	2023-04-16T00:00:00	2024-11-08T18:00:00	2	Temperatura media	21.4
165702	7	Sololá	712	San Antonio Palopó	9	San Antonio Palopo	4	Abril	2023-04-16T00:00:00	2024-11-08T18:00:00	4	Temperatura máxima	22.2
165703	7	Sololá	712	San Antonio Palopó	9	San Antonio Palopo	4	Abril	2023-04-16T00:00:00	2024-11-08T18:00:00	3	Temperatura mínima	21.3
165704	7	Sololá	712	San Antonio Palopó	9	San Antonio Palopo	4	Abril	2023-04-16T00:00:00	2024-11-08T18:00:00	5	Humedad	76
165705	7	Sololá	712	San Antonio Palopó	9	San Antonio Palopo	4	Abril	2023-04-16T00:00:00	2024-11-08T18:00:00	6	Velocidad del viento	6.4
165706	7	Sololá	712	San Antonio Palopó	9	San Antonio Palopo	4	Abril	2023-04-16T00:00:00	2024-11-08T18:00:00	7	Dirección del viento	6.44
165707	7	Sololá	712	San Antonio Palopó	9	San Antonio Palopo	4	Abril	2023-04-16T00:00:00	2024-11-08T18:00:00	1	Precipitación	0
165708	7	Sololá	712	San Antonio Palopó	9	San Antonio Palopo	4	Abril	2023-04-16T00:00:00	2024-11-08T18:00:00	8	Radiación solar	23
165709	7	Sololá	712	San Antonio Palopó	9	San Antonio Palopo	4	Abril	2023-04-16T00:00:00	2024-11-08T19:00:00	2	Temperatura media	21.5
165710	7	Sololá	712	San Antonio Palopó	9	San Antonio Palopo	4	Abril	2023-04-16T00:00:00	2024-11-08T19:00:00	4	Temperatura máxima	21.7
165711	7	Sololá	712	San Antonio Palopó	9	San Antonio Palopo	4	Abril	2023-04-16T00:00:00	2024-11-08T19:00:00	3	Temperatura mínima	21.4
165712	7	Sololá	712	San Antonio Palopó	9	San Antonio Palopo	4	Abril	2023-04-16T00:00:00	2024-11-08T19:00:00	5	Humedad	76
165713	7	Sololá	712	San Antonio Palopó	9	San Antonio Palopo	4	Abril	2023-04-16T00:00:00	2024-11-08T19:00:00	6	Velocidad del viento	3.2
165714	7	Sololá	712	San Antonio Palopó	9	San Antonio Palopo	4	Abril	2023-04-16T00:00:00	2024-11-08T19:00:00	7	Dirección del viento	3.22
165715	7	Sololá	712	San Antonio Palopó	9	San Antonio Palopo	4	Abril	2023-04-16T00:00:00	2024-11-08T19:00:00	1	Precipitación	0
165716	7	Sololá	712	San Antonio Palopó	9	San Antonio Palopo	4	Abril	2023-04-16T00:00:00	2024-11-08T19:00:00	8	Radiación solar	0
165717	7	Sololá	712	San Antonio Palopó	9	San Antonio Palopo	4	Abril	2023-04-16T00:00:00	2024-11-08T20:00:00	2	Temperatura media	21.1
165718	7	Sololá	712	San Antonio Palopó	9	San Antonio Palopo	4	Abril	2023-04-16T00:00:00	2024-11-08T20:00:00	4	Temperatura máxima	21.5
165719	7	Sololá	712	San Antonio Palopó	9	San Antonio Palopo	4	Abril	2023-04-16T00:00:00	2024-11-08T20:00:00	3	Temperatura mínima	21.1
165720	7	Sololá	712	San Antonio Palopó	9	San Antonio Palopo	4	Abril	2023-04-16T00:00:00	2024-11-08T20:00:00	5	Humedad	76
165721	7	Sololá	712	San Antonio Palopó	9	San Antonio Palopo	4	Abril	2023-04-16T00:00:00	2024-11-08T20:00:00	6	Velocidad del viento	1.6
165722	7	Sololá	712	San Antonio Palopó	9	San Antonio Palopo	4	Abril	2023-04-16T00:00:00	2024-11-08T20:00:00	7	Dirección del viento	1.61
165723	7	Sololá	712	San Antonio Palopó	9	San Antonio Palopo	4	Abril	2023-04-16T00:00:00	2024-11-08T20:00:00	1	Precipitación	0
165724	7	Sololá	712	San Antonio Palopó	9	San Antonio Palopo	4	Abril	2023-04-16T00:00:00	2024-11-08T20:00:00	8	Radiación solar	0
165725	7	Sololá	712	San Antonio Palopó	9	San Antonio Palopo	4	Abril	2023-04-16T00:00:00	2024-11-08T21:00:00	2	Temperatura media	19.7
165726	7	Sololá	712	San Antonio Palopó	9	San Antonio Palopo	4	Abril	2023-04-16T00:00:00	2024-11-08T21:00:00	4	Temperatura máxima	21.1
165727	7	Sololá	712	San Antonio Palopó	9	San Antonio Palopo	4	Abril	2023-04-16T00:00:00	2024-11-08T21:00:00	3	Temperatura mínima	19.7
165728	7	Sololá	712	San Antonio Palopó	9	San Antonio Palopo	4	Abril	2023-04-16T00:00:00	2024-11-08T21:00:00	5	Humedad	78
165729	7	Sololá	712	San Antonio Palopó	9	San Antonio Palopo	4	Abril	2023-04-16T00:00:00	2024-11-08T21:00:00	6	Velocidad del viento	1.6
165730	7	Sololá	712	San Antonio Palopó	9	San Antonio Palopo	4	Abril	2023-04-16T00:00:00	2024-11-08T21:00:00	7	Dirección del viento	1.61
165731	7	Sololá	712	San Antonio Palopó	9	San Antonio Palopo	4	Abril	2023-04-16T00:00:00	2024-11-08T21:00:00	1	Precipitación	0
165732	7	Sololá	712	San Antonio Palopó	9	San Antonio Palopo	4	Abril	2023-04-16T00:00:00	2024-11-08T21:00:00	8	Radiación solar	0
165733	7	Sololá	712	San Antonio Palopó	9	San Antonio Palopo	4	Abril	2023-04-16T00:00:00	2024-11-08T22:00:00	2	Temperatura media	21.1
165734	7	Sololá	712	San Antonio Palopó	9	San Antonio Palopo	4	Abril	2023-04-16T00:00:00	2024-11-08T22:00:00	4	Temperatura máxima	21.1
165735	7	Sololá	712	San Antonio Palopó	9	San Antonio Palopo	4	Abril	2023-04-16T00:00:00	2024-11-08T22:00:00	3	Temperatura mínima	19.6
165736	7	Sololá	712	San Antonio Palopó	9	San Antonio Palopo	4	Abril	2023-04-16T00:00:00	2024-11-08T22:00:00	5	Humedad	65
165737	7	Sololá	712	San Antonio Palopó	9	San Antonio Palopo	4	Abril	2023-04-16T00:00:00	2024-11-08T22:00:00	6	Velocidad del viento	4.8
165738	7	Sololá	712	San Antonio Palopó	9	San Antonio Palopo	4	Abril	2023-04-16T00:00:00	2024-11-08T22:00:00	7	Dirección del viento	4.83
165739	7	Sololá	712	San Antonio Palopó	9	San Antonio Palopo	4	Abril	2023-04-16T00:00:00	2024-11-08T22:00:00	1	Precipitación	0
165740	7	Sololá	712	San Antonio Palopó	9	San Antonio Palopo	4	Abril	2023-04-16T00:00:00	2024-11-08T22:00:00	8	Radiación solar	0
165741	7	Sololá	712	San Antonio Palopó	9	San Antonio Palopo	4	Abril	2023-04-16T00:00:00	2024-11-08T23:00:00	2	Temperatura media	19.5
165742	7	Sololá	712	San Antonio Palopó	9	San Antonio Palopo	4	Abril	2023-04-16T00:00:00	2024-11-08T23:00:00	4	Temperatura máxima	21.2
165743	7	Sololá	712	San Antonio Palopó	9	San Antonio Palopo	4	Abril	2023-04-16T00:00:00	2024-11-08T23:00:00	3	Temperatura mínima	19.3
165744	7	Sololá	712	San Antonio Palopó	9	San Antonio Palopo	4	Abril	2023-04-16T00:00:00	2024-11-08T23:00:00	5	Humedad	70
165745	7	Sololá	712	San Antonio Palopó	9	San Antonio Palopo	4	Abril	2023-04-16T00:00:00	2024-11-08T23:00:00	6	Velocidad del viento	4.8
165746	7	Sololá	712	San Antonio Palopó	9	San Antonio Palopo	4	Abril	2023-04-16T00:00:00	2024-11-08T23:00:00	7	Dirección del viento	4.83
165747	7	Sololá	712	San Antonio Palopó	9	San Antonio Palopo	4	Abril	2023-04-16T00:00:00	2024-11-08T23:00:00	1	Precipitación	0
165748	7	Sololá	712	San Antonio Palopó	9	San Antonio Palopo	4	Abril	2023-04-16T00:00:00	2024-11-08T23:00:00	8	Radiación solar	0
165749	7	Sololá	712	San Antonio Palopó	9	San Antonio Palopo	4	Abril	2023-04-17T00:00:00	2024-11-08T00:00:00	2	Temperatura media	19.7
165750	7	Sololá	712	San Antonio Palopó	9	San Antonio Palopo	4	Abril	2023-04-17T00:00:00	2024-11-08T00:00:00	4	Temperatura máxima	19.8
165751	7	Sololá	712	San Antonio Palopó	9	San Antonio Palopo	4	Abril	2023-04-17T00:00:00	2024-11-08T00:00:00	3	Temperatura mínima	19.4
165752	7	Sololá	712	San Antonio Palopó	9	San Antonio Palopo	4	Abril	2023-04-17T00:00:00	2024-11-08T00:00:00	5	Humedad	72
165753	7	Sololá	712	San Antonio Palopó	9	San Antonio Palopo	4	Abril	2023-04-17T00:00:00	2024-11-08T00:00:00	6	Velocidad del viento	4.8
165754	7	Sololá	712	San Antonio Palopó	9	San Antonio Palopo	4	Abril	2023-04-17T00:00:00	2024-11-08T00:00:00	7	Dirección del viento	4.83
165755	7	Sololá	712	San Antonio Palopó	9	San Antonio Palopo	4	Abril	2023-04-17T00:00:00	2024-11-08T00:00:00	1	Precipitación	0
165756	7	Sololá	712	San Antonio Palopó	9	San Antonio Palopo	4	Abril	2023-04-17T00:00:00	2024-11-08T00:00:00	8	Radiación solar	0
165757	7	Sololá	712	San Antonio Palopó	9	San Antonio Palopo	4	Abril	2023-04-17T00:00:00	2024-11-08T01:00:00	2	Temperatura media	18.9
165758	7	Sololá	712	San Antonio Palopó	9	San Antonio Palopo	4	Abril	2023-04-17T00:00:00	2024-11-08T01:00:00	4	Temperatura máxima	19.7
165759	7	Sololá	712	San Antonio Palopó	9	San Antonio Palopo	4	Abril	2023-04-17T00:00:00	2024-11-08T01:00:00	3	Temperatura mínima	18.4
165760	7	Sololá	712	San Antonio Palopó	9	San Antonio Palopo	4	Abril	2023-04-17T00:00:00	2024-11-08T01:00:00	5	Humedad	69
165761	7	Sololá	712	San Antonio Palopó	9	San Antonio Palopo	4	Abril	2023-04-17T00:00:00	2024-11-08T01:00:00	6	Velocidad del viento	3.2
165762	7	Sololá	712	San Antonio Palopó	9	San Antonio Palopo	4	Abril	2023-04-17T00:00:00	2024-11-08T01:00:00	7	Dirección del viento	3.22
165763	7	Sololá	712	San Antonio Palopó	9	San Antonio Palopo	4	Abril	2023-04-17T00:00:00	2024-11-08T01:00:00	1	Precipitación	0
165764	7	Sololá	712	San Antonio Palopó	9	San Antonio Palopo	4	Abril	2023-04-17T00:00:00	2024-11-08T01:00:00	8	Radiación solar	0
165765	7	Sololá	712	San Antonio Palopó	9	San Antonio Palopo	4	Abril	2023-04-17T00:00:00	2024-11-08T02:00:00	2	Temperatura media	19.1
165766	7	Sololá	712	San Antonio Palopó	9	San Antonio Palopo	4	Abril	2023-04-17T00:00:00	2024-11-08T02:00:00	4	Temperatura máxima	19.1
165767	7	Sololá	712	San Antonio Palopó	9	San Antonio Palopo	4	Abril	2023-04-17T00:00:00	2024-11-08T02:00:00	3	Temperatura mínima	18.6
165768	7	Sololá	712	San Antonio Palopó	9	San Antonio Palopo	4	Abril	2023-04-17T00:00:00	2024-11-08T02:00:00	5	Humedad	69
165769	7	Sololá	712	San Antonio Palopó	9	San Antonio Palopo	4	Abril	2023-04-17T00:00:00	2024-11-08T02:00:00	6	Velocidad del viento	4.8
165770	7	Sololá	712	San Antonio Palopó	9	San Antonio Palopo	4	Abril	2023-04-17T00:00:00	2024-11-08T02:00:00	7	Dirección del viento	4.83
165771	7	Sololá	712	San Antonio Palopó	9	San Antonio Palopo	4	Abril	2023-04-17T00:00:00	2024-11-08T02:00:00	1	Precipitación	0
165772	7	Sololá	712	San Antonio Palopó	9	San Antonio Palopo	4	Abril	2023-04-17T00:00:00	2024-11-08T02:00:00	8	Radiación solar	0
165773	7	Sololá	712	San Antonio Palopó	9	San Antonio Palopo	4	Abril	2023-04-17T00:00:00	2024-11-08T03:00:00	2	Temperatura media	18.7
165774	7	Sololá	712	San Antonio Palopó	9	San Antonio Palopo	4	Abril	2023-04-17T00:00:00	2024-11-08T03:00:00	4	Temperatura máxima	19.3
165775	7	Sololá	712	San Antonio Palopó	9	San Antonio Palopo	4	Abril	2023-04-17T00:00:00	2024-11-08T03:00:00	3	Temperatura mínima	18.4
165776	7	Sololá	712	San Antonio Palopó	9	San Antonio Palopo	4	Abril	2023-04-17T00:00:00	2024-11-08T03:00:00	5	Humedad	69
165777	7	Sololá	712	San Antonio Palopó	9	San Antonio Palopo	4	Abril	2023-04-17T00:00:00	2024-11-08T03:00:00	6	Velocidad del viento	4.8
165778	7	Sololá	712	San Antonio Palopó	9	San Antonio Palopo	4	Abril	2023-04-17T00:00:00	2024-11-08T03:00:00	7	Dirección del viento	4.83
165779	7	Sololá	712	San Antonio Palopó	9	San Antonio Palopo	4	Abril	2023-04-17T00:00:00	2024-11-08T03:00:00	1	Precipitación	0
165780	7	Sololá	712	San Antonio Palopó	9	San Antonio Palopo	4	Abril	2023-04-17T00:00:00	2024-11-08T03:00:00	8	Radiación solar	0
165781	7	Sololá	712	San Antonio Palopó	9	San Antonio Palopo	4	Abril	2023-04-17T00:00:00	2024-11-08T04:00:00	2	Temperatura media	18.8
165782	7	Sololá	712	San Antonio Palopó	9	San Antonio Palopo	4	Abril	2023-04-17T00:00:00	2024-11-08T04:00:00	4	Temperatura máxima	19
165783	7	Sololá	712	San Antonio Palopó	9	San Antonio Palopo	4	Abril	2023-04-17T00:00:00	2024-11-08T04:00:00	3	Temperatura mínima	18.6
165784	7	Sololá	712	San Antonio Palopó	9	San Antonio Palopo	4	Abril	2023-04-17T00:00:00	2024-11-08T04:00:00	5	Humedad	69
165785	7	Sololá	712	San Antonio Palopó	9	San Antonio Palopo	4	Abril	2023-04-17T00:00:00	2024-11-08T04:00:00	6	Velocidad del viento	8
165786	7	Sololá	712	San Antonio Palopó	9	San Antonio Palopo	4	Abril	2023-04-17T00:00:00	2024-11-08T04:00:00	7	Dirección del viento	8.05
165787	7	Sololá	712	San Antonio Palopó	9	San Antonio Palopo	4	Abril	2023-04-17T00:00:00	2024-11-08T04:00:00	1	Precipitación	0
165788	7	Sololá	712	San Antonio Palopó	9	San Antonio Palopo	4	Abril	2023-04-17T00:00:00	2024-11-08T04:00:00	8	Radiación solar	0
165789	7	Sololá	712	San Antonio Palopó	9	San Antonio Palopo	4	Abril	2023-04-17T00:00:00	2024-11-08T05:00:00	2	Temperatura media	18.9
165790	7	Sololá	712	San Antonio Palopó	9	San Antonio Palopo	4	Abril	2023-04-17T00:00:00	2024-11-08T05:00:00	4	Temperatura máxima	19
165791	7	Sololá	712	San Antonio Palopó	9	San Antonio Palopo	4	Abril	2023-04-17T00:00:00	2024-11-08T05:00:00	3	Temperatura mínima	18.6
165792	7	Sololá	712	San Antonio Palopó	9	San Antonio Palopo	4	Abril	2023-04-17T00:00:00	2024-11-08T05:00:00	5	Humedad	68
165793	7	Sololá	712	San Antonio Palopó	9	San Antonio Palopo	4	Abril	2023-04-17T00:00:00	2024-11-08T05:00:00	6	Velocidad del viento	11.3
165794	7	Sololá	712	San Antonio Palopó	9	San Antonio Palopo	4	Abril	2023-04-17T00:00:00	2024-11-08T05:00:00	7	Dirección del viento	11.27
165795	7	Sololá	712	San Antonio Palopó	9	San Antonio Palopo	4	Abril	2023-04-17T00:00:00	2024-11-08T05:00:00	1	Precipitación	0
165796	7	Sololá	712	San Antonio Palopó	9	San Antonio Palopo	4	Abril	2023-04-17T00:00:00	2024-11-08T05:00:00	8	Radiación solar	0
165797	7	Sololá	712	San Antonio Palopó	9	San Antonio Palopo	4	Abril	2023-04-17T00:00:00	2024-11-08T06:00:00	2	Temperatura media	18.7
165798	7	Sololá	712	San Antonio Palopó	9	San Antonio Palopo	4	Abril	2023-04-17T00:00:00	2024-11-08T06:00:00	4	Temperatura máxima	19
165799	7	Sololá	712	San Antonio Palopó	9	San Antonio Palopo	4	Abril	2023-04-17T00:00:00	2024-11-08T06:00:00	3	Temperatura mínima	18.3
165800	7	Sololá	712	San Antonio Palopó	9	San Antonio Palopo	4	Abril	2023-04-17T00:00:00	2024-11-08T06:00:00	5	Humedad	69
165801	7	Sololá	712	San Antonio Palopó	9	San Antonio Palopo	4	Abril	2023-04-17T00:00:00	2024-11-08T06:00:00	6	Velocidad del viento	11.3
165802	7	Sololá	712	San Antonio Palopó	9	San Antonio Palopo	4	Abril	2023-04-17T00:00:00	2024-11-08T06:00:00	7	Dirección del viento	11.27
165803	7	Sololá	712	San Antonio Palopó	9	San Antonio Palopo	4	Abril	2023-04-17T00:00:00	2024-11-08T06:00:00	1	Precipitación	0
165804	7	Sololá	712	San Antonio Palopó	9	San Antonio Palopo	4	Abril	2023-04-17T00:00:00	2024-11-08T06:00:00	8	Radiación solar	0
165805	7	Sololá	712	San Antonio Palopó	9	San Antonio Palopo	4	Abril	2023-04-17T00:00:00	2024-11-08T07:00:00	2	Temperatura media	19.4
165806	7	Sololá	712	San Antonio Palopó	9	San Antonio Palopo	4	Abril	2023-04-17T00:00:00	2024-11-08T07:00:00	4	Temperatura máxima	19.4
165807	7	Sololá	712	San Antonio Palopó	9	San Antonio Palopo	4	Abril	2023-04-17T00:00:00	2024-11-08T07:00:00	3	Temperatura mínima	18.7
165808	7	Sololá	712	San Antonio Palopó	9	San Antonio Palopo	4	Abril	2023-04-17T00:00:00	2024-11-08T07:00:00	5	Humedad	67
165809	7	Sololá	712	San Antonio Palopó	9	San Antonio Palopo	4	Abril	2023-04-17T00:00:00	2024-11-08T07:00:00	6	Velocidad del viento	9.7
165810	7	Sololá	712	San Antonio Palopó	9	San Antonio Palopo	4	Abril	2023-04-17T00:00:00	2024-11-08T07:00:00	7	Dirección del viento	9.66
165811	7	Sololá	712	San Antonio Palopó	9	San Antonio Palopo	4	Abril	2023-04-17T00:00:00	2024-11-08T07:00:00	1	Precipitación	0
165812	7	Sololá	712	San Antonio Palopó	9	San Antonio Palopo	4	Abril	2023-04-17T00:00:00	2024-11-08T07:00:00	8	Radiación solar	28
165813	7	Sololá	712	San Antonio Palopó	9	San Antonio Palopo	4	Abril	2023-04-17T00:00:00	2024-11-08T08:00:00	2	Temperatura media	21.1
165814	7	Sololá	712	San Antonio Palopó	9	San Antonio Palopo	4	Abril	2023-04-17T00:00:00	2024-11-08T08:00:00	4	Temperatura máxima	21.1
165815	7	Sololá	712	San Antonio Palopó	9	San Antonio Palopo	4	Abril	2023-04-17T00:00:00	2024-11-08T08:00:00	3	Temperatura mínima	19.4
165816	7	Sololá	712	San Antonio Palopó	9	San Antonio Palopo	4	Abril	2023-04-17T00:00:00	2024-11-08T08:00:00	5	Humedad	62
165817	7	Sololá	712	San Antonio Palopó	9	San Antonio Palopo	4	Abril	2023-04-17T00:00:00	2024-11-08T08:00:00	6	Velocidad del viento	4.8
165818	7	Sololá	712	San Antonio Palopó	9	San Antonio Palopo	4	Abril	2023-04-17T00:00:00	2024-11-08T08:00:00	7	Dirección del viento	4.83
165819	7	Sololá	712	San Antonio Palopó	9	San Antonio Palopo	4	Abril	2023-04-17T00:00:00	2024-11-08T08:00:00	1	Precipitación	0
165820	7	Sololá	712	San Antonio Palopó	9	San Antonio Palopo	4	Abril	2023-04-17T00:00:00	2024-11-08T08:00:00	8	Radiación solar	132
165821	7	Sololá	712	San Antonio Palopó	9	San Antonio Palopo	4	Abril	2023-04-17T00:00:00	2024-11-08T09:00:00	2	Temperatura media	22.2
165822	7	Sololá	712	San Antonio Palopó	9	San Antonio Palopo	4	Abril	2023-04-17T00:00:00	2024-11-08T09:00:00	4	Temperatura máxima	22.2
165823	7	Sololá	712	San Antonio Palopó	9	San Antonio Palopo	4	Abril	2023-04-17T00:00:00	2024-11-08T09:00:00	3	Temperatura mínima	21.1
165824	7	Sololá	712	San Antonio Palopó	9	San Antonio Palopo	4	Abril	2023-04-17T00:00:00	2024-11-08T09:00:00	5	Humedad	58
165825	7	Sololá	712	San Antonio Palopó	9	San Antonio Palopo	4	Abril	2023-04-17T00:00:00	2024-11-08T09:00:00	6	Velocidad del viento	12.9
165826	7	Sololá	712	San Antonio Palopó	9	San Antonio Palopo	4	Abril	2023-04-17T00:00:00	2024-11-08T09:00:00	7	Dirección del viento	12.87
165827	7	Sololá	712	San Antonio Palopó	9	San Antonio Palopo	4	Abril	2023-04-17T00:00:00	2024-11-08T09:00:00	1	Precipitación	0
165828	7	Sololá	712	San Antonio Palopó	9	San Antonio Palopo	4	Abril	2023-04-17T00:00:00	2024-11-08T09:00:00	8	Radiación solar	414
165829	7	Sololá	712	San Antonio Palopó	9	San Antonio Palopo	4	Abril	2023-04-17T00:00:00	2024-11-08T10:00:00	2	Temperatura media	22.1
165830	7	Sololá	712	San Antonio Palopó	9	San Antonio Palopo	4	Abril	2023-04-17T00:00:00	2024-11-08T10:00:00	4	Temperatura máxima	23.1
165831	7	Sololá	712	San Antonio Palopó	9	San Antonio Palopo	4	Abril	2023-04-17T00:00:00	2024-11-08T10:00:00	3	Temperatura mínima	21.9
165832	7	Sololá	712	San Antonio Palopó	9	San Antonio Palopo	4	Abril	2023-04-17T00:00:00	2024-11-08T10:00:00	5	Humedad	70
165833	7	Sololá	712	San Antonio Palopó	9	San Antonio Palopo	4	Abril	2023-04-17T00:00:00	2024-11-08T10:00:00	6	Velocidad del viento	9.7
165834	7	Sololá	712	San Antonio Palopó	9	San Antonio Palopo	4	Abril	2023-04-17T00:00:00	2024-11-08T10:00:00	7	Dirección del viento	9.66
165835	7	Sololá	712	San Antonio Palopó	9	San Antonio Palopo	4	Abril	2023-04-17T00:00:00	2024-11-08T10:00:00	1	Precipitación	0
165836	7	Sololá	712	San Antonio Palopó	9	San Antonio Palopo	4	Abril	2023-04-17T00:00:00	2024-11-08T10:00:00	8	Radiación solar	615
165837	7	Sololá	712	San Antonio Palopó	9	San Antonio Palopo	4	Abril	2023-04-17T00:00:00	2024-11-08T11:00:00	2	Temperatura media	23.5
165838	7	Sololá	712	San Antonio Palopó	9	San Antonio Palopo	4	Abril	2023-04-17T00:00:00	2024-11-08T11:00:00	4	Temperatura máxima	23.6
165839	7	Sololá	712	San Antonio Palopó	9	San Antonio Palopo	4	Abril	2023-04-17T00:00:00	2024-11-08T11:00:00	3	Temperatura mínima	22.1
165840	7	Sololá	712	San Antonio Palopó	9	San Antonio Palopo	4	Abril	2023-04-17T00:00:00	2024-11-08T11:00:00	5	Humedad	68
165841	7	Sololá	712	San Antonio Palopó	9	San Antonio Palopo	4	Abril	2023-04-17T00:00:00	2024-11-08T11:00:00	6	Velocidad del viento	8
165842	7	Sololá	712	San Antonio Palopó	9	San Antonio Palopo	4	Abril	2023-04-17T00:00:00	2024-11-08T11:00:00	7	Dirección del viento	8.05
165843	7	Sololá	712	San Antonio Palopó	9	San Antonio Palopo	4	Abril	2023-04-17T00:00:00	2024-11-08T11:00:00	1	Precipitación	0
165844	7	Sololá	712	San Antonio Palopó	9	San Antonio Palopo	4	Abril	2023-04-17T00:00:00	2024-11-08T11:00:00	8	Radiación solar	773
165845	7	Sololá	712	San Antonio Palopó	9	San Antonio Palopo	4	Abril	2023-04-17T00:00:00	2024-11-08T12:00:00	2	Temperatura media	24
165846	7	Sololá	712	San Antonio Palopó	9	San Antonio Palopo	4	Abril	2023-04-17T00:00:00	2024-11-08T12:00:00	4	Temperatura máxima	24.1
165847	7	Sololá	712	San Antonio Palopó	9	San Antonio Palopo	4	Abril	2023-04-17T00:00:00	2024-11-08T12:00:00	3	Temperatura mínima	23.2
165848	7	Sololá	712	San Antonio Palopó	9	San Antonio Palopo	4	Abril	2023-04-17T00:00:00	2024-11-08T12:00:00	5	Humedad	69
165849	7	Sololá	712	San Antonio Palopó	9	San Antonio Palopo	4	Abril	2023-04-17T00:00:00	2024-11-08T12:00:00	6	Velocidad del viento	8
165850	7	Sololá	712	San Antonio Palopó	9	San Antonio Palopo	4	Abril	2023-04-17T00:00:00	2024-11-08T12:00:00	7	Dirección del viento	8.05
165851	7	Sololá	712	San Antonio Palopó	9	San Antonio Palopo	4	Abril	2023-04-17T00:00:00	2024-11-08T12:00:00	1	Precipitación	0
165852	7	Sololá	712	San Antonio Palopó	9	San Antonio Palopo	4	Abril	2023-04-17T00:00:00	2024-11-08T12:00:00	8	Radiación solar	826
165853	7	Sololá	712	San Antonio Palopó	9	San Antonio Palopo	4	Abril	2023-04-17T00:00:00	2024-11-08T13:00:00	2	Temperatura media	24.3
165854	7	Sololá	712	San Antonio Palopó	9	San Antonio Palopo	4	Abril	2023-04-17T00:00:00	2024-11-08T13:00:00	4	Temperatura máxima	25.4
165855	7	Sololá	712	San Antonio Palopó	9	San Antonio Palopo	4	Abril	2023-04-17T00:00:00	2024-11-08T13:00:00	3	Temperatura mínima	24
165856	7	Sololá	712	San Antonio Palopó	9	San Antonio Palopo	4	Abril	2023-04-17T00:00:00	2024-11-08T13:00:00	5	Humedad	67
165857	7	Sololá	712	San Antonio Palopó	9	San Antonio Palopo	4	Abril	2023-04-17T00:00:00	2024-11-08T13:00:00	6	Velocidad del viento	11.3
165858	7	Sololá	712	San Antonio Palopó	9	San Antonio Palopo	4	Abril	2023-04-17T00:00:00	2024-11-08T13:00:00	7	Dirección del viento	11.27
165859	7	Sololá	712	San Antonio Palopó	9	San Antonio Palopo	4	Abril	2023-04-17T00:00:00	2024-11-08T13:00:00	1	Precipitación	0
165860	7	Sololá	712	San Antonio Palopó	9	San Antonio Palopo	4	Abril	2023-04-17T00:00:00	2024-11-08T13:00:00	8	Radiación solar	929
165861	7	Sololá	712	San Antonio Palopó	9	San Antonio Palopo	4	Abril	2023-04-17T00:00:00	2024-11-08T14:00:00	2	Temperatura media	22.1
165862	7	Sololá	712	San Antonio Palopó	9	San Antonio Palopo	4	Abril	2023-04-17T00:00:00	2024-11-08T14:00:00	4	Temperatura máxima	24.3
165863	7	Sololá	712	San Antonio Palopó	9	San Antonio Palopo	4	Abril	2023-04-17T00:00:00	2024-11-08T14:00:00	3	Temperatura mínima	22.1
165864	7	Sololá	712	San Antonio Palopó	9	San Antonio Palopo	4	Abril	2023-04-17T00:00:00	2024-11-08T14:00:00	5	Humedad	74
165865	7	Sololá	712	San Antonio Palopó	9	San Antonio Palopo	4	Abril	2023-04-17T00:00:00	2024-11-08T14:00:00	6	Velocidad del viento	17.7
165866	7	Sololá	712	San Antonio Palopó	9	San Antonio Palopo	4	Abril	2023-04-17T00:00:00	2024-11-08T14:00:00	7	Dirección del viento	17.7
165867	7	Sololá	712	San Antonio Palopó	9	San Antonio Palopo	4	Abril	2023-04-17T00:00:00	2024-11-08T14:00:00	1	Precipitación	0
165868	7	Sololá	712	San Antonio Palopó	9	San Antonio Palopo	4	Abril	2023-04-17T00:00:00	2024-11-08T14:00:00	8	Radiación solar	464
165869	7	Sololá	712	San Antonio Palopó	9	San Antonio Palopo	4	Abril	2023-04-17T00:00:00	2024-11-08T15:00:00	2	Temperatura media	21.2
165870	7	Sololá	712	San Antonio Palopó	9	San Antonio Palopo	4	Abril	2023-04-17T00:00:00	2024-11-08T15:00:00	4	Temperatura máxima	22.1
165871	7	Sololá	712	San Antonio Palopó	9	San Antonio Palopo	4	Abril	2023-04-17T00:00:00	2024-11-08T15:00:00	3	Temperatura mínima	21.2
165872	7	Sololá	712	San Antonio Palopó	9	San Antonio Palopo	4	Abril	2023-04-17T00:00:00	2024-11-08T15:00:00	5	Humedad	80
165873	7	Sololá	712	San Antonio Palopó	9	San Antonio Palopo	4	Abril	2023-04-17T00:00:00	2024-11-08T15:00:00	6	Velocidad del viento	9.7
165874	7	Sololá	712	San Antonio Palopó	9	San Antonio Palopo	4	Abril	2023-04-17T00:00:00	2024-11-08T15:00:00	7	Dirección del viento	9.66
165875	7	Sololá	712	San Antonio Palopó	9	San Antonio Palopo	4	Abril	2023-04-17T00:00:00	2024-11-08T15:00:00	1	Precipitación	0
165876	7	Sololá	712	San Antonio Palopó	9	San Antonio Palopo	4	Abril	2023-04-17T00:00:00	2024-11-08T15:00:00	8	Radiación solar	139
165877	7	Sololá	712	San Antonio Palopó	9	San Antonio Palopo	4	Abril	2023-04-17T00:00:00	2024-11-08T16:00:00	2	Temperatura media	15.7
165878	7	Sololá	712	San Antonio Palopó	9	San Antonio Palopo	4	Abril	2023-04-17T00:00:00	2024-11-08T16:00:00	4	Temperatura máxima	21.2
165879	7	Sololá	712	San Antonio Palopó	9	San Antonio Palopo	4	Abril	2023-04-17T00:00:00	2024-11-08T16:00:00	3	Temperatura mínima	14.5
165880	7	Sololá	712	San Antonio Palopó	9	San Antonio Palopo	4	Abril	2023-04-17T00:00:00	2024-11-08T16:00:00	5	Humedad	92
165881	7	Sololá	712	San Antonio Palopó	9	San Antonio Palopo	4	Abril	2023-04-17T00:00:00	2024-11-08T16:00:00	6	Velocidad del viento	11.3
165882	7	Sololá	712	San Antonio Palopó	9	San Antonio Palopo	4	Abril	2023-04-17T00:00:00	2024-11-08T16:00:00	7	Dirección del viento	11.27
165883	7	Sololá	712	San Antonio Palopó	9	San Antonio Palopo	4	Abril	2023-04-17T00:00:00	2024-11-08T16:00:00	1	Precipitación	37
165884	7	Sololá	712	San Antonio Palopó	9	San Antonio Palopo	4	Abril	2023-04-17T00:00:00	2024-11-08T16:00:00	8	Radiación solar	15
165885	7	Sololá	712	San Antonio Palopó	9	San Antonio Palopo	4	Abril	2023-04-17T00:00:00	2024-11-08T17:00:00	2	Temperatura media	16.4
165886	7	Sololá	712	San Antonio Palopó	9	San Antonio Palopo	4	Abril	2023-04-17T00:00:00	2024-11-08T17:00:00	4	Temperatura máxima	16.4
165887	7	Sololá	712	San Antonio Palopó	9	San Antonio Palopo	4	Abril	2023-04-17T00:00:00	2024-11-08T17:00:00	3	Temperatura mínima	15.7
165888	7	Sololá	712	San Antonio Palopó	9	San Antonio Palopo	4	Abril	2023-04-17T00:00:00	2024-11-08T17:00:00	5	Humedad	90
165889	7	Sololá	712	San Antonio Palopó	9	San Antonio Palopo	4	Abril	2023-04-17T00:00:00	2024-11-08T17:00:00	6	Velocidad del viento	3.2
165890	7	Sololá	712	San Antonio Palopó	9	San Antonio Palopo	4	Abril	2023-04-17T00:00:00	2024-11-08T17:00:00	7	Dirección del viento	3.22
165891	7	Sololá	712	San Antonio Palopó	9	San Antonio Palopo	4	Abril	2023-04-17T00:00:00	2024-11-08T17:00:00	1	Precipitación	0
165892	7	Sololá	712	San Antonio Palopó	9	San Antonio Palopo	4	Abril	2023-04-17T00:00:00	2024-11-08T17:00:00	8	Radiación solar	24
165893	7	Sololá	712	San Antonio Palopó	9	San Antonio Palopo	4	Abril	2023-04-17T00:00:00	2024-11-08T18:00:00	2	Temperatura media	17.2
165894	7	Sololá	712	San Antonio Palopó	9	San Antonio Palopo	4	Abril	2023-04-17T00:00:00	2024-11-08T18:00:00	4	Temperatura máxima	17.3
165895	7	Sololá	712	San Antonio Palopó	9	San Antonio Palopo	4	Abril	2023-04-17T00:00:00	2024-11-08T18:00:00	3	Temperatura mínima	16.4
165896	7	Sololá	712	San Antonio Palopó	9	San Antonio Palopo	4	Abril	2023-04-17T00:00:00	2024-11-08T18:00:00	5	Humedad	88
165897	7	Sololá	712	San Antonio Palopó	9	San Antonio Palopo	4	Abril	2023-04-17T00:00:00	2024-11-08T18:00:00	6	Velocidad del viento	1.6
165898	7	Sololá	712	San Antonio Palopó	9	San Antonio Palopo	4	Abril	2023-04-17T00:00:00	2024-11-08T18:00:00	7	Dirección del viento	1.61
165899	7	Sololá	712	San Antonio Palopó	9	San Antonio Palopo	4	Abril	2023-04-17T00:00:00	2024-11-08T18:00:00	1	Precipitación	0
165900	7	Sololá	712	San Antonio Palopó	9	San Antonio Palopo	4	Abril	2023-04-17T00:00:00	2024-11-08T18:00:00	8	Radiación solar	51
165901	7	Sololá	712	San Antonio Palopó	9	San Antonio Palopo	4	Abril	2023-04-17T00:00:00	2024-11-08T19:00:00	2	Temperatura media	17.1
165902	7	Sololá	712	San Antonio Palopó	9	San Antonio Palopo	4	Abril	2023-04-17T00:00:00	2024-11-08T19:00:00	4	Temperatura máxima	17.2
165903	7	Sololá	712	San Antonio Palopó	9	San Antonio Palopo	4	Abril	2023-04-17T00:00:00	2024-11-08T19:00:00	3	Temperatura mínima	16.9
165904	7	Sololá	712	San Antonio Palopó	9	San Antonio Palopo	4	Abril	2023-04-17T00:00:00	2024-11-08T19:00:00	5	Humedad	89
165905	7	Sololá	712	San Antonio Palopó	9	San Antonio Palopo	4	Abril	2023-04-17T00:00:00	2024-11-08T19:00:00	6	Velocidad del viento	1.6
165906	7	Sololá	712	San Antonio Palopó	9	San Antonio Palopo	4	Abril	2023-04-17T00:00:00	2024-11-08T19:00:00	7	Dirección del viento	1.61
165907	7	Sololá	712	San Antonio Palopó	9	San Antonio Palopo	4	Abril	2023-04-17T00:00:00	2024-11-08T19:00:00	1	Precipitación	0
165908	7	Sololá	712	San Antonio Palopó	9	San Antonio Palopo	4	Abril	2023-04-17T00:00:00	2024-11-08T19:00:00	8	Radiación solar	0
165909	7	Sololá	712	San Antonio Palopó	9	San Antonio Palopo	4	Abril	2023-04-17T00:00:00	2024-11-08T20:00:00	2	Temperatura media	16.8
165910	7	Sololá	712	San Antonio Palopó	9	San Antonio Palopo	4	Abril	2023-04-17T00:00:00	2024-11-08T20:00:00	4	Temperatura máxima	17.2
165911	7	Sololá	712	San Antonio Palopó	9	San Antonio Palopo	4	Abril	2023-04-17T00:00:00	2024-11-08T20:00:00	3	Temperatura mínima	16.7
165912	7	Sololá	712	San Antonio Palopó	9	San Antonio Palopo	4	Abril	2023-04-17T00:00:00	2024-11-08T20:00:00	5	Humedad	87
165913	7	Sololá	712	San Antonio Palopó	9	San Antonio Palopo	4	Abril	2023-04-17T00:00:00	2024-11-08T20:00:00	6	Velocidad del viento	1.6
165914	7	Sololá	712	San Antonio Palopó	9	San Antonio Palopo	4	Abril	2023-04-17T00:00:00	2024-11-08T20:00:00	7	Dirección del viento	1.61
165915	7	Sololá	712	San Antonio Palopó	9	San Antonio Palopo	4	Abril	2023-04-17T00:00:00	2024-11-08T20:00:00	1	Precipitación	0
165916	7	Sololá	712	San Antonio Palopó	9	San Antonio Palopo	4	Abril	2023-04-17T00:00:00	2024-11-08T20:00:00	8	Radiación solar	0
165917	7	Sololá	712	San Antonio Palopó	9	San Antonio Palopo	4	Abril	2023-04-17T00:00:00	2024-11-08T21:00:00	2	Temperatura media	16.9
165918	7	Sololá	712	San Antonio Palopó	9	San Antonio Palopo	4	Abril	2023-04-17T00:00:00	2024-11-08T21:00:00	4	Temperatura máxima	17.1
165919	7	Sololá	712	San Antonio Palopó	9	San Antonio Palopo	4	Abril	2023-04-17T00:00:00	2024-11-08T21:00:00	3	Temperatura mínima	16.7
165920	7	Sololá	712	San Antonio Palopó	9	San Antonio Palopo	4	Abril	2023-04-17T00:00:00	2024-11-08T21:00:00	5	Humedad	90
165921	7	Sololá	712	San Antonio Palopó	9	San Antonio Palopo	4	Abril	2023-04-17T00:00:00	2024-11-08T21:00:00	6	Velocidad del viento	3.2
165922	7	Sololá	712	San Antonio Palopó	9	San Antonio Palopo	4	Abril	2023-04-17T00:00:00	2024-11-08T21:00:00	7	Dirección del viento	3.22
165923	7	Sololá	712	San Antonio Palopó	9	San Antonio Palopo	4	Abril	2023-04-17T00:00:00	2024-11-08T21:00:00	1	Precipitación	0
165924	7	Sololá	712	San Antonio Palopó	9	San Antonio Palopo	4	Abril	2023-04-17T00:00:00	2024-11-08T21:00:00	8	Radiación solar	0
165925	7	Sololá	712	San Antonio Palopó	9	San Antonio Palopo	4	Abril	2023-04-17T00:00:00	2024-11-08T22:00:00	2	Temperatura media	18.1
165926	7	Sololá	712	San Antonio Palopó	9	San Antonio Palopo	4	Abril	2023-04-17T00:00:00	2024-11-08T22:00:00	4	Temperatura máxima	18.1
165927	7	Sololá	712	San Antonio Palopó	9	San Antonio Palopo	4	Abril	2023-04-17T00:00:00	2024-11-08T22:00:00	3	Temperatura mínima	16.6
165928	7	Sololá	712	San Antonio Palopó	9	San Antonio Palopo	4	Abril	2023-04-17T00:00:00	2024-11-08T22:00:00	5	Humedad	74
165929	7	Sololá	712	San Antonio Palopó	9	San Antonio Palopo	4	Abril	2023-04-17T00:00:00	2024-11-08T22:00:00	6	Velocidad del viento	6.4
165930	7	Sololá	712	San Antonio Palopó	9	San Antonio Palopo	4	Abril	2023-04-17T00:00:00	2024-11-08T22:00:00	7	Dirección del viento	6.44
165931	7	Sololá	712	San Antonio Palopó	9	San Antonio Palopo	4	Abril	2023-04-17T00:00:00	2024-11-08T22:00:00	1	Precipitación	0
165932	7	Sololá	712	San Antonio Palopó	9	San Antonio Palopo	4	Abril	2023-04-17T00:00:00	2024-11-08T22:00:00	8	Radiación solar	0
165933	7	Sololá	712	San Antonio Palopó	9	San Antonio Palopo	4	Abril	2023-04-17T00:00:00	2024-11-08T23:00:00	2	Temperatura media	18.1
165934	7	Sololá	712	San Antonio Palopó	9	San Antonio Palopo	4	Abril	2023-04-17T00:00:00	2024-11-08T23:00:00	4	Temperatura máxima	18.4
165935	7	Sololá	712	San Antonio Palopó	9	San Antonio Palopo	4	Abril	2023-04-17T00:00:00	2024-11-08T23:00:00	3	Temperatura mínima	18.1
165936	7	Sololá	712	San Antonio Palopó	9	San Antonio Palopo	4	Abril	2023-04-17T00:00:00	2024-11-08T23:00:00	5	Humedad	73
165937	7	Sololá	712	San Antonio Palopó	9	San Antonio Palopo	4	Abril	2023-04-17T00:00:00	2024-11-08T23:00:00	6	Velocidad del viento	6.4
165938	7	Sololá	712	San Antonio Palopó	9	San Antonio Palopo	4	Abril	2023-04-17T00:00:00	2024-11-08T23:00:00	7	Dirección del viento	6.44
165939	7	Sololá	712	San Antonio Palopó	9	San Antonio Palopo	4	Abril	2023-04-17T00:00:00	2024-11-08T23:00:00	1	Precipitación	0
165940	7	Sololá	712	San Antonio Palopó	9	San Antonio Palopo	4	Abril	2023-04-17T00:00:00	2024-11-08T23:00:00	8	Radiación solar	0
165941	7	Sololá	712	San Antonio Palopó	9	San Antonio Palopo	4	Abril	2023-04-18T00:00:00	2024-11-08T00:00:00	2	Temperatura media	17.9
165942	7	Sololá	712	San Antonio Palopó	9	San Antonio Palopo	4	Abril	2023-04-18T00:00:00	2024-11-08T00:00:00	4	Temperatura máxima	18.4
165943	7	Sololá	712	San Antonio Palopó	9	San Antonio Palopo	4	Abril	2023-04-18T00:00:00	2024-11-08T00:00:00	3	Temperatura mínima	17.8
165944	7	Sololá	712	San Antonio Palopó	9	San Antonio Palopo	4	Abril	2023-04-18T00:00:00	2024-11-08T00:00:00	5	Humedad	76
165945	7	Sololá	712	San Antonio Palopó	9	San Antonio Palopo	4	Abril	2023-04-18T00:00:00	2024-11-08T00:00:00	6	Velocidad del viento	8
165946	7	Sololá	712	San Antonio Palopó	9	San Antonio Palopo	4	Abril	2023-04-18T00:00:00	2024-11-08T00:00:00	7	Dirección del viento	8.05
165947	7	Sololá	712	San Antonio Palopó	9	San Antonio Palopo	4	Abril	2023-04-18T00:00:00	2024-11-08T00:00:00	1	Precipitación	0
165948	7	Sololá	712	San Antonio Palopó	9	San Antonio Palopo	4	Abril	2023-04-18T00:00:00	2024-11-08T00:00:00	8	Radiación solar	0
165949	7	Sololá	712	San Antonio Palopó	9	San Antonio Palopo	4	Abril	2023-04-18T00:00:00	2024-11-08T01:00:00	2	Temperatura media	18.3
165950	7	Sololá	712	San Antonio Palopó	9	San Antonio Palopo	4	Abril	2023-04-18T00:00:00	2024-11-08T01:00:00	4	Temperatura máxima	18.4
165951	7	Sololá	712	San Antonio Palopó	9	San Antonio Palopo	4	Abril	2023-04-18T00:00:00	2024-11-08T01:00:00	3	Temperatura mínima	17.8
165952	7	Sololá	712	San Antonio Palopó	9	San Antonio Palopo	4	Abril	2023-04-18T00:00:00	2024-11-08T01:00:00	5	Humedad	75
165953	7	Sololá	712	San Antonio Palopó	9	San Antonio Palopo	4	Abril	2023-04-18T00:00:00	2024-11-08T01:00:00	6	Velocidad del viento	6.4
165954	7	Sololá	712	San Antonio Palopó	9	San Antonio Palopo	4	Abril	2023-04-18T00:00:00	2024-11-08T01:00:00	7	Dirección del viento	6.44
165955	7	Sololá	712	San Antonio Palopó	9	San Antonio Palopo	4	Abril	2023-04-18T00:00:00	2024-11-08T01:00:00	1	Precipitación	0
165956	7	Sololá	712	San Antonio Palopó	9	San Antonio Palopo	4	Abril	2023-04-18T00:00:00	2024-11-08T01:00:00	8	Radiación solar	0
165957	7	Sololá	712	San Antonio Palopó	9	San Antonio Palopo	4	Abril	2023-04-18T00:00:00	2024-11-08T02:00:00	2	Temperatura media	18.4
165958	7	Sololá	712	San Antonio Palopó	9	San Antonio Palopo	4	Abril	2023-04-18T00:00:00	2024-11-08T02:00:00	4	Temperatura máxima	18.4
165959	7	Sololá	712	San Antonio Palopó	9	San Antonio Palopo	4	Abril	2023-04-18T00:00:00	2024-11-08T02:00:00	3	Temperatura mínima	18.2
165960	7	Sololá	712	San Antonio Palopó	9	San Antonio Palopo	4	Abril	2023-04-18T00:00:00	2024-11-08T02:00:00	5	Humedad	73
165961	7	Sololá	712	San Antonio Palopó	9	San Antonio Palopo	4	Abril	2023-04-18T00:00:00	2024-11-08T02:00:00	6	Velocidad del viento	8
165962	7	Sololá	712	San Antonio Palopó	9	San Antonio Palopo	4	Abril	2023-04-18T00:00:00	2024-11-08T02:00:00	7	Dirección del viento	8.05
165963	7	Sololá	712	San Antonio Palopó	9	San Antonio Palopo	4	Abril	2023-04-18T00:00:00	2024-11-08T02:00:00	1	Precipitación	0
165964	7	Sololá	712	San Antonio Palopó	9	San Antonio Palopo	4	Abril	2023-04-18T00:00:00	2024-11-08T02:00:00	8	Radiación solar	0
165965	7	Sololá	712	San Antonio Palopó	9	San Antonio Palopo	4	Abril	2023-04-18T00:00:00	2024-11-08T03:00:00	2	Temperatura media	18.1
165966	7	Sololá	712	San Antonio Palopó	9	San Antonio Palopo	4	Abril	2023-04-18T00:00:00	2024-11-08T03:00:00	4	Temperatura máxima	18.4
165967	7	Sololá	712	San Antonio Palopó	9	San Antonio Palopo	4	Abril	2023-04-18T00:00:00	2024-11-08T03:00:00	3	Temperatura mínima	18
165968	7	Sololá	712	San Antonio Palopó	9	San Antonio Palopo	4	Abril	2023-04-18T00:00:00	2024-11-08T03:00:00	5	Humedad	72
165969	7	Sololá	712	San Antonio Palopó	9	San Antonio Palopo	4	Abril	2023-04-18T00:00:00	2024-11-08T03:00:00	6	Velocidad del viento	8
165970	7	Sololá	712	San Antonio Palopó	9	San Antonio Palopo	4	Abril	2023-04-18T00:00:00	2024-11-08T03:00:00	7	Dirección del viento	8.05
165971	7	Sololá	712	San Antonio Palopó	9	San Antonio Palopo	4	Abril	2023-04-18T00:00:00	2024-11-08T03:00:00	1	Precipitación	0
165972	7	Sololá	712	San Antonio Palopó	9	San Antonio Palopo	4	Abril	2023-04-18T00:00:00	2024-11-08T03:00:00	8	Radiación solar	0
165973	7	Sololá	712	San Antonio Palopó	9	San Antonio Palopo	4	Abril	2023-04-18T00:00:00	2024-11-08T04:00:00	2	Temperatura media	18.3
165974	7	Sololá	712	San Antonio Palopó	9	San Antonio Palopo	4	Abril	2023-04-18T00:00:00	2024-11-08T04:00:00	4	Temperatura máxima	18.4
165975	7	Sololá	712	San Antonio Palopó	9	San Antonio Palopo	4	Abril	2023-04-18T00:00:00	2024-11-08T04:00:00	3	Temperatura mínima	18
165976	7	Sololá	712	San Antonio Palopó	9	San Antonio Palopo	4	Abril	2023-04-18T00:00:00	2024-11-08T04:00:00	5	Humedad	68
165977	7	Sololá	712	San Antonio Palopó	9	San Antonio Palopo	4	Abril	2023-04-18T00:00:00	2024-11-08T04:00:00	6	Velocidad del viento	9.7
165978	7	Sololá	712	San Antonio Palopó	9	San Antonio Palopo	4	Abril	2023-04-18T00:00:00	2024-11-08T04:00:00	7	Dirección del viento	9.66
165979	7	Sololá	712	San Antonio Palopó	9	San Antonio Palopo	4	Abril	2023-04-18T00:00:00	2024-11-08T04:00:00	1	Precipitación	0
165980	7	Sololá	712	San Antonio Palopó	9	San Antonio Palopo	4	Abril	2023-04-18T00:00:00	2024-11-08T04:00:00	8	Radiación solar	0
165981	7	Sololá	712	San Antonio Palopó	9	San Antonio Palopo	4	Abril	2023-04-18T00:00:00	2024-11-08T05:00:00	2	Temperatura media	17.7
165982	7	Sololá	712	San Antonio Palopó	9	San Antonio Palopo	4	Abril	2023-04-18T00:00:00	2024-11-08T05:00:00	4	Temperatura máxima	18.5
165983	7	Sololá	712	San Antonio Palopó	9	San Antonio Palopo	4	Abril	2023-04-18T00:00:00	2024-11-08T05:00:00	3	Temperatura mínima	17.7
165984	7	Sololá	712	San Antonio Palopó	9	San Antonio Palopo	4	Abril	2023-04-18T00:00:00	2024-11-08T05:00:00	5	Humedad	71
165985	7	Sololá	712	San Antonio Palopó	9	San Antonio Palopo	4	Abril	2023-04-18T00:00:00	2024-11-08T05:00:00	6	Velocidad del viento	12.9
165986	7	Sololá	712	San Antonio Palopó	9	San Antonio Palopo	4	Abril	2023-04-18T00:00:00	2024-11-08T05:00:00	7	Dirección del viento	12.87
165987	7	Sololá	712	San Antonio Palopó	9	San Antonio Palopo	4	Abril	2023-04-18T00:00:00	2024-11-08T05:00:00	1	Precipitación	0
165988	7	Sololá	712	San Antonio Palopó	9	San Antonio Palopo	4	Abril	2023-04-18T00:00:00	2024-11-08T05:00:00	8	Radiación solar	0
165989	7	Sololá	712	San Antonio Palopó	9	San Antonio Palopo	4	Abril	2023-04-18T00:00:00	2024-11-08T06:00:00	2	Temperatura media	17.2
165990	7	Sololá	712	San Antonio Palopó	9	San Antonio Palopo	4	Abril	2023-04-18T00:00:00	2024-11-08T06:00:00	4	Temperatura máxima	17.7
165991	7	Sololá	712	San Antonio Palopó	9	San Antonio Palopo	4	Abril	2023-04-18T00:00:00	2024-11-08T06:00:00	3	Temperatura mínima	17.2
165992	7	Sololá	712	San Antonio Palopó	9	San Antonio Palopo	4	Abril	2023-04-18T00:00:00	2024-11-08T06:00:00	5	Humedad	72
165993	7	Sololá	712	San Antonio Palopó	9	San Antonio Palopo	4	Abril	2023-04-18T00:00:00	2024-11-08T06:00:00	6	Velocidad del viento	16.1
165994	7	Sololá	712	San Antonio Palopó	9	San Antonio Palopo	4	Abril	2023-04-18T00:00:00	2024-11-08T06:00:00	7	Dirección del viento	16.09
165995	7	Sololá	712	San Antonio Palopó	9	San Antonio Palopo	4	Abril	2023-04-18T00:00:00	2024-11-08T06:00:00	1	Precipitación	0
165996	7	Sololá	712	San Antonio Palopó	9	San Antonio Palopo	4	Abril	2023-04-18T00:00:00	2024-11-08T06:00:00	8	Radiación solar	1
165997	7	Sololá	712	San Antonio Palopó	9	San Antonio Palopo	4	Abril	2023-04-18T00:00:00	2024-11-08T07:00:00	2	Temperatura media	17.4
165998	7	Sololá	712	San Antonio Palopó	9	San Antonio Palopo	4	Abril	2023-04-18T00:00:00	2024-11-08T07:00:00	4	Temperatura máxima	17.4
165999	7	Sololá	712	San Antonio Palopó	9	San Antonio Palopo	4	Abril	2023-04-18T00:00:00	2024-11-08T07:00:00	3	Temperatura mínima	17
166000	7	Sololá	712	San Antonio Palopó	9	San Antonio Palopo	4	Abril	2023-04-18T00:00:00	2024-11-08T07:00:00	5	Humedad	72
166001	7	Sololá	712	San Antonio Palopó	9	San Antonio Palopo	4	Abril	2023-04-18T00:00:00	2024-11-08T07:00:00	6	Velocidad del viento	14.5
166002	7	Sololá	712	San Antonio Palopó	9	San Antonio Palopo	4	Abril	2023-04-18T00:00:00	2024-11-08T07:00:00	7	Dirección del viento	14.48
166003	7	Sololá	712	San Antonio Palopó	9	San Antonio Palopo	4	Abril	2023-04-18T00:00:00	2024-11-08T07:00:00	1	Precipitación	0
166004	7	Sololá	712	San Antonio Palopó	9	San Antonio Palopo	4	Abril	2023-04-18T00:00:00	2024-11-08T07:00:00	8	Radiación solar	18
166005	7	Sololá	712	San Antonio Palopó	9	San Antonio Palopo	4	Abril	2023-04-18T00:00:00	2024-11-08T08:00:00	2	Temperatura media	19.2
166006	7	Sololá	712	San Antonio Palopó	9	San Antonio Palopo	4	Abril	2023-04-18T00:00:00	2024-11-08T08:00:00	4	Temperatura máxima	19.2
166007	7	Sololá	712	San Antonio Palopó	9	San Antonio Palopo	4	Abril	2023-04-18T00:00:00	2024-11-08T08:00:00	3	Temperatura mínima	17.4
166008	7	Sololá	712	San Antonio Palopó	9	San Antonio Palopo	4	Abril	2023-04-18T00:00:00	2024-11-08T08:00:00	5	Humedad	68
166009	7	Sololá	712	San Antonio Palopó	9	San Antonio Palopo	4	Abril	2023-04-18T00:00:00	2024-11-08T08:00:00	6	Velocidad del viento	11.3
166010	7	Sololá	712	San Antonio Palopó	9	San Antonio Palopo	4	Abril	2023-04-18T00:00:00	2024-11-08T08:00:00	7	Dirección del viento	11.27
166011	7	Sololá	712	San Antonio Palopó	9	San Antonio Palopo	4	Abril	2023-04-18T00:00:00	2024-11-08T08:00:00	1	Precipitación	0
166012	7	Sololá	712	San Antonio Palopó	9	San Antonio Palopo	4	Abril	2023-04-18T00:00:00	2024-11-08T08:00:00	8	Radiación solar	120
166013	7	Sololá	712	San Antonio Palopó	9	San Antonio Palopo	4	Abril	2023-04-18T00:00:00	2024-11-08T09:00:00	2	Temperatura media	20.2
166014	7	Sololá	712	San Antonio Palopó	9	San Antonio Palopo	4	Abril	2023-04-18T00:00:00	2024-11-08T09:00:00	4	Temperatura máxima	20.7
166015	7	Sololá	712	San Antonio Palopó	9	San Antonio Palopo	4	Abril	2023-04-18T00:00:00	2024-11-08T09:00:00	3	Temperatura mínima	19.3
166016	7	Sololá	712	San Antonio Palopó	9	San Antonio Palopo	4	Abril	2023-04-18T00:00:00	2024-11-08T09:00:00	5	Humedad	66
166017	7	Sololá	712	San Antonio Palopó	9	San Antonio Palopo	4	Abril	2023-04-18T00:00:00	2024-11-08T09:00:00	6	Velocidad del viento	3.2
166018	7	Sololá	712	San Antonio Palopó	9	San Antonio Palopo	4	Abril	2023-04-18T00:00:00	2024-11-08T09:00:00	7	Dirección del viento	3.22
166019	7	Sololá	712	San Antonio Palopó	9	San Antonio Palopo	4	Abril	2023-04-18T00:00:00	2024-11-08T09:00:00	1	Precipitación	0
166020	7	Sololá	712	San Antonio Palopó	9	San Antonio Palopo	4	Abril	2023-04-18T00:00:00	2024-11-08T09:00:00	8	Radiación solar	435
166021	7	Sololá	712	San Antonio Palopó	9	San Antonio Palopo	4	Abril	2023-04-18T00:00:00	2024-11-08T10:00:00	2	Temperatura media	21.1
166022	7	Sololá	712	San Antonio Palopó	9	San Antonio Palopo	4	Abril	2023-04-18T00:00:00	2024-11-08T10:00:00	4	Temperatura máxima	21.1
166023	7	Sololá	712	San Antonio Palopó	9	San Antonio Palopo	4	Abril	2023-04-18T00:00:00	2024-11-08T10:00:00	3	Temperatura mínima	20.1
166024	7	Sololá	712	San Antonio Palopó	9	San Antonio Palopo	4	Abril	2023-04-18T00:00:00	2024-11-08T10:00:00	5	Humedad	67
166025	7	Sololá	712	San Antonio Palopó	9	San Antonio Palopo	4	Abril	2023-04-18T00:00:00	2024-11-08T10:00:00	6	Velocidad del viento	3.2
166026	7	Sololá	712	San Antonio Palopó	9	San Antonio Palopo	4	Abril	2023-04-18T00:00:00	2024-11-08T10:00:00	7	Dirección del viento	3.22
166027	7	Sololá	712	San Antonio Palopó	9	San Antonio Palopo	4	Abril	2023-04-18T00:00:00	2024-11-08T10:00:00	1	Precipitación	0
166028	7	Sololá	712	San Antonio Palopó	9	San Antonio Palopo	4	Abril	2023-04-18T00:00:00	2024-11-08T10:00:00	8	Radiación solar	680
166029	7	Sololá	712	San Antonio Palopó	9	San Antonio Palopo	4	Abril	2023-04-18T00:00:00	2024-11-08T11:00:00	2	Temperatura media	22.1
166030	7	Sololá	712	San Antonio Palopó	9	San Antonio Palopo	4	Abril	2023-04-18T00:00:00	2024-11-08T11:00:00	4	Temperatura máxima	22.1
166031	7	Sololá	712	San Antonio Palopó	9	San Antonio Palopo	4	Abril	2023-04-18T00:00:00	2024-11-08T11:00:00	3	Temperatura mínima	21.1
166032	7	Sololá	712	San Antonio Palopó	9	San Antonio Palopo	4	Abril	2023-04-18T00:00:00	2024-11-08T11:00:00	5	Humedad	62
166033	7	Sololá	712	San Antonio Palopó	9	San Antonio Palopo	4	Abril	2023-04-18T00:00:00	2024-11-08T11:00:00	6	Velocidad del viento	4.8
166034	7	Sololá	712	San Antonio Palopó	9	San Antonio Palopo	4	Abril	2023-04-18T00:00:00	2024-11-08T11:00:00	7	Dirección del viento	4.83
166035	7	Sololá	712	San Antonio Palopó	9	San Antonio Palopo	4	Abril	2023-04-18T00:00:00	2024-11-08T11:00:00	1	Precipitación	0
166036	7	Sololá	712	San Antonio Palopó	9	San Antonio Palopo	4	Abril	2023-04-18T00:00:00	2024-11-08T11:00:00	8	Radiación solar	827
166037	7	Sololá	712	San Antonio Palopó	9	San Antonio Palopo	4	Abril	2023-04-18T00:00:00	2024-11-08T12:00:00	2	Temperatura media	23.3
166038	7	Sololá	712	San Antonio Palopó	9	San Antonio Palopo	4	Abril	2023-04-18T00:00:00	2024-11-08T12:00:00	4	Temperatura máxima	23.5
166039	7	Sololá	712	San Antonio Palopó	9	San Antonio Palopo	4	Abril	2023-04-18T00:00:00	2024-11-08T12:00:00	3	Temperatura mínima	22.1
166040	7	Sololá	712	San Antonio Palopó	9	San Antonio Palopo	4	Abril	2023-04-18T00:00:00	2024-11-08T12:00:00	5	Humedad	61
166041	7	Sololá	712	San Antonio Palopó	9	San Antonio Palopo	4	Abril	2023-04-18T00:00:00	2024-11-08T12:00:00	6	Velocidad del viento	8
166042	7	Sololá	712	San Antonio Palopó	9	San Antonio Palopo	4	Abril	2023-04-18T00:00:00	2024-11-08T12:00:00	7	Dirección del viento	8.05
166043	7	Sololá	712	San Antonio Palopó	9	San Antonio Palopo	4	Abril	2023-04-18T00:00:00	2024-11-08T12:00:00	1	Precipitación	0
166044	7	Sololá	712	San Antonio Palopó	9	San Antonio Palopo	4	Abril	2023-04-18T00:00:00	2024-11-08T12:00:00	8	Radiación solar	968
166045	7	Sololá	712	San Antonio Palopó	9	San Antonio Palopo	4	Abril	2023-04-18T00:00:00	2024-11-08T13:00:00	2	Temperatura media	23.4
166046	7	Sololá	712	San Antonio Palopó	9	San Antonio Palopo	4	Abril	2023-04-18T00:00:00	2024-11-08T13:00:00	4	Temperatura máxima	23.9
166047	7	Sololá	712	San Antonio Palopó	9	San Antonio Palopo	4	Abril	2023-04-18T00:00:00	2024-11-08T13:00:00	3	Temperatura mínima	23.1
166048	7	Sololá	712	San Antonio Palopó	9	San Antonio Palopo	4	Abril	2023-04-18T00:00:00	2024-11-08T13:00:00	5	Humedad	64
166049	7	Sololá	712	San Antonio Palopó	9	San Antonio Palopo	4	Abril	2023-04-18T00:00:00	2024-11-08T13:00:00	6	Velocidad del viento	9.7
166050	7	Sololá	712	San Antonio Palopó	9	San Antonio Palopo	4	Abril	2023-04-18T00:00:00	2024-11-08T13:00:00	7	Dirección del viento	9.66
166051	7	Sololá	712	San Antonio Palopó	9	San Antonio Palopo	4	Abril	2023-04-18T00:00:00	2024-11-08T13:00:00	1	Precipitación	0
166052	7	Sololá	712	San Antonio Palopó	9	San Antonio Palopo	4	Abril	2023-04-18T00:00:00	2024-11-08T13:00:00	8	Radiación solar	1005
166053	7	Sololá	712	San Antonio Palopó	9	San Antonio Palopo	4	Abril	2023-04-18T00:00:00	2024-11-08T14:00:00	2	Temperatura media	22.9
166054	7	Sololá	712	San Antonio Palopó	9	San Antonio Palopo	4	Abril	2023-04-18T00:00:00	2024-11-08T14:00:00	4	Temperatura máxima	23.8
166055	7	Sololá	712	San Antonio Palopó	9	San Antonio Palopo	4	Abril	2023-04-18T00:00:00	2024-11-08T14:00:00	3	Temperatura mínima	22.9
166056	7	Sololá	712	San Antonio Palopó	9	San Antonio Palopo	4	Abril	2023-04-18T00:00:00	2024-11-08T14:00:00	5	Humedad	67
166057	7	Sololá	712	San Antonio Palopó	9	San Antonio Palopo	4	Abril	2023-04-18T00:00:00	2024-11-08T14:00:00	6	Velocidad del viento	9.7
166058	7	Sololá	712	San Antonio Palopó	9	San Antonio Palopo	4	Abril	2023-04-18T00:00:00	2024-11-08T14:00:00	7	Dirección del viento	9.66
166059	7	Sololá	712	San Antonio Palopó	9	San Antonio Palopo	4	Abril	2023-04-18T00:00:00	2024-11-08T14:00:00	1	Precipitación	0
166060	7	Sololá	712	San Antonio Palopó	9	San Antonio Palopo	4	Abril	2023-04-18T00:00:00	2024-11-08T14:00:00	8	Radiación solar	785
166061	7	Sololá	712	San Antonio Palopó	9	San Antonio Palopo	4	Abril	2023-04-18T00:00:00	2024-11-08T15:00:00	2	Temperatura media	22.2
166062	7	Sololá	712	San Antonio Palopó	9	San Antonio Palopo	4	Abril	2023-04-18T00:00:00	2024-11-08T15:00:00	4	Temperatura máxima	23.7
166063	7	Sololá	712	San Antonio Palopó	9	San Antonio Palopo	4	Abril	2023-04-18T00:00:00	2024-11-08T15:00:00	3	Temperatura mínima	21.6
166064	7	Sololá	712	San Antonio Palopó	9	San Antonio Palopo	4	Abril	2023-04-18T00:00:00	2024-11-08T15:00:00	5	Humedad	68
166065	7	Sololá	712	San Antonio Palopó	9	San Antonio Palopo	4	Abril	2023-04-18T00:00:00	2024-11-08T15:00:00	6	Velocidad del viento	9.7
166066	7	Sololá	712	San Antonio Palopó	9	San Antonio Palopo	4	Abril	2023-04-18T00:00:00	2024-11-08T15:00:00	7	Dirección del viento	9.66
166067	7	Sololá	712	San Antonio Palopó	9	San Antonio Palopo	4	Abril	2023-04-18T00:00:00	2024-11-08T15:00:00	1	Precipitación	0
166068	7	Sololá	712	San Antonio Palopó	9	San Antonio Palopo	4	Abril	2023-04-18T00:00:00	2024-11-08T15:00:00	8	Radiación solar	416
166069	7	Sololá	712	San Antonio Palopó	9	San Antonio Palopo	4	Abril	2023-04-18T00:00:00	2024-11-08T16:00:00	2	Temperatura media	22.7
166070	7	Sololá	712	San Antonio Palopó	9	San Antonio Palopo	4	Abril	2023-04-18T00:00:00	2024-11-08T16:00:00	4	Temperatura máxima	22.9
166071	7	Sololá	712	San Antonio Palopó	9	San Antonio Palopo	4	Abril	2023-04-18T00:00:00	2024-11-08T16:00:00	3	Temperatura mínima	21.9
166072	7	Sololá	712	San Antonio Palopó	9	San Antonio Palopo	4	Abril	2023-04-18T00:00:00	2024-11-08T16:00:00	5	Humedad	67
166073	7	Sololá	712	San Antonio Palopó	9	San Antonio Palopo	4	Abril	2023-04-18T00:00:00	2024-11-08T16:00:00	6	Velocidad del viento	8
166074	7	Sololá	712	San Antonio Palopó	9	San Antonio Palopo	4	Abril	2023-04-18T00:00:00	2024-11-08T16:00:00	7	Dirección del viento	8.05
166075	7	Sololá	712	San Antonio Palopó	9	San Antonio Palopo	4	Abril	2023-04-18T00:00:00	2024-11-08T16:00:00	1	Precipitación	0
166076	7	Sololá	712	San Antonio Palopó	9	San Antonio Palopo	4	Abril	2023-04-18T00:00:00	2024-11-08T16:00:00	8	Radiación solar	377
166077	7	Sololá	712	San Antonio Palopó	9	San Antonio Palopo	4	Abril	2023-04-18T00:00:00	2024-11-08T17:00:00	2	Temperatura media	20.7
166078	7	Sololá	712	San Antonio Palopó	9	San Antonio Palopo	4	Abril	2023-04-18T00:00:00	2024-11-08T17:00:00	4	Temperatura máxima	22.7
166079	7	Sololá	712	San Antonio Palopó	9	San Antonio Palopo	4	Abril	2023-04-18T00:00:00	2024-11-08T17:00:00	3	Temperatura mínima	20.7
166080	7	Sololá	712	San Antonio Palopó	9	San Antonio Palopo	4	Abril	2023-04-18T00:00:00	2024-11-08T17:00:00	5	Humedad	76
166081	7	Sololá	712	San Antonio Palopó	9	San Antonio Palopo	4	Abril	2023-04-18T00:00:00	2024-11-08T17:00:00	6	Velocidad del viento	9.7
166082	7	Sololá	712	San Antonio Palopó	9	San Antonio Palopo	4	Abril	2023-04-18T00:00:00	2024-11-08T17:00:00	7	Dirección del viento	9.66
166083	7	Sololá	712	San Antonio Palopó	9	San Antonio Palopo	4	Abril	2023-04-18T00:00:00	2024-11-08T17:00:00	1	Precipitación	0
166084	7	Sololá	712	San Antonio Palopó	9	San Antonio Palopo	4	Abril	2023-04-18T00:00:00	2024-11-08T17:00:00	8	Radiación solar	108
166085	7	Sololá	712	San Antonio Palopó	9	San Antonio Palopo	4	Abril	2023-04-18T00:00:00	2024-11-08T18:00:00	2	Temperatura media	20.4
166086	7	Sololá	712	San Antonio Palopó	9	San Antonio Palopo	4	Abril	2023-04-18T00:00:00	2024-11-08T18:00:00	4	Temperatura máxima	20.8
166087	7	Sololá	712	San Antonio Palopó	9	San Antonio Palopo	4	Abril	2023-04-18T00:00:00	2024-11-08T18:00:00	3	Temperatura mínima	20.4
166088	7	Sololá	712	San Antonio Palopó	9	San Antonio Palopo	4	Abril	2023-04-18T00:00:00	2024-11-08T18:00:00	5	Humedad	76
166089	7	Sololá	712	San Antonio Palopó	9	San Antonio Palopo	4	Abril	2023-04-18T00:00:00	2024-11-08T18:00:00	6	Velocidad del viento	3.2
166090	7	Sololá	712	San Antonio Palopó	9	San Antonio Palopo	4	Abril	2023-04-18T00:00:00	2024-11-08T18:00:00	7	Dirección del viento	3.22
166091	7	Sololá	712	San Antonio Palopó	9	San Antonio Palopo	4	Abril	2023-04-18T00:00:00	2024-11-08T18:00:00	1	Precipitación	0
166092	7	Sololá	712	San Antonio Palopó	9	San Antonio Palopo	4	Abril	2023-04-18T00:00:00	2024-11-08T18:00:00	8	Radiación solar	30
166093	7	Sololá	712	San Antonio Palopó	9	San Antonio Palopo	4	Abril	2023-04-18T00:00:00	2024-11-08T19:00:00	2	Temperatura media	20.1
166094	7	Sololá	712	San Antonio Palopó	9	San Antonio Palopo	4	Abril	2023-04-18T00:00:00	2024-11-08T19:00:00	4	Temperatura máxima	20.5
166095	7	Sololá	712	San Antonio Palopó	9	San Antonio Palopo	4	Abril	2023-04-18T00:00:00	2024-11-08T19:00:00	3	Temperatura mínima	19.9
166096	7	Sololá	712	San Antonio Palopó	9	San Antonio Palopo	4	Abril	2023-04-18T00:00:00	2024-11-08T19:00:00	5	Humedad	78
166097	7	Sololá	712	San Antonio Palopó	9	San Antonio Palopo	4	Abril	2023-04-18T00:00:00	2024-11-08T19:00:00	6	Velocidad del viento	4.8
166098	7	Sololá	712	San Antonio Palopó	9	San Antonio Palopo	4	Abril	2023-04-18T00:00:00	2024-11-08T19:00:00	7	Dirección del viento	4.83
166099	7	Sololá	712	San Antonio Palopó	9	San Antonio Palopo	4	Abril	2023-04-18T00:00:00	2024-11-08T19:00:00	1	Precipitación	0
166100	7	Sololá	712	San Antonio Palopó	9	San Antonio Palopo	4	Abril	2023-04-18T00:00:00	2024-11-08T19:00:00	8	Radiación solar	0
166101	7	Sololá	712	San Antonio Palopó	9	San Antonio Palopo	4	Abril	2023-04-18T00:00:00	2024-11-08T20:00:00	2	Temperatura media	19.7
166102	7	Sololá	712	San Antonio Palopó	9	San Antonio Palopo	4	Abril	2023-04-18T00:00:00	2024-11-08T20:00:00	4	Temperatura máxima	20.3
166103	7	Sololá	712	San Antonio Palopó	9	San Antonio Palopo	4	Abril	2023-04-18T00:00:00	2024-11-08T20:00:00	3	Temperatura mínima	19.7
166104	7	Sololá	712	San Antonio Palopó	9	San Antonio Palopo	4	Abril	2023-04-18T00:00:00	2024-11-08T20:00:00	5	Humedad	80
166105	7	Sololá	712	San Antonio Palopó	9	San Antonio Palopo	4	Abril	2023-04-18T00:00:00	2024-11-08T20:00:00	6	Velocidad del viento	1.6
166106	7	Sololá	712	San Antonio Palopó	9	San Antonio Palopo	4	Abril	2023-04-18T00:00:00	2024-11-08T20:00:00	7	Dirección del viento	1.61
166107	7	Sololá	712	San Antonio Palopó	9	San Antonio Palopo	4	Abril	2023-04-18T00:00:00	2024-11-08T20:00:00	1	Precipitación	0
166108	7	Sololá	712	San Antonio Palopó	9	San Antonio Palopo	4	Abril	2023-04-18T00:00:00	2024-11-08T20:00:00	8	Radiación solar	0
166109	7	Sololá	712	San Antonio Palopó	9	San Antonio Palopo	4	Abril	2023-04-18T00:00:00	2024-11-08T21:00:00	2	Temperatura media	19.6
166110	7	Sololá	712	San Antonio Palopó	9	San Antonio Palopo	4	Abril	2023-04-18T00:00:00	2024-11-08T21:00:00	4	Temperatura máxima	19.8
166111	7	Sololá	712	San Antonio Palopó	9	San Antonio Palopo	4	Abril	2023-04-18T00:00:00	2024-11-08T21:00:00	3	Temperatura mínima	19.6
166112	7	Sololá	712	San Antonio Palopó	9	San Antonio Palopo	4	Abril	2023-04-18T00:00:00	2024-11-08T21:00:00	5	Humedad	82
166113	7	Sololá	712	San Antonio Palopó	9	San Antonio Palopo	4	Abril	2023-04-18T00:00:00	2024-11-08T21:00:00	6	Velocidad del viento	1.6
166114	7	Sololá	712	San Antonio Palopó	9	San Antonio Palopo	4	Abril	2023-04-18T00:00:00	2024-11-08T21:00:00	7	Dirección del viento	1.61
166115	7	Sololá	712	San Antonio Palopó	9	San Antonio Palopo	4	Abril	2023-04-18T00:00:00	2024-11-08T21:00:00	1	Precipitación	0
166116	7	Sololá	712	San Antonio Palopó	9	San Antonio Palopo	4	Abril	2023-04-18T00:00:00	2024-11-08T21:00:00	8	Radiación solar	0
166117	7	Sololá	712	San Antonio Palopó	9	San Antonio Palopo	4	Abril	2023-04-18T00:00:00	2024-11-08T22:00:00	2	Temperatura media	19.1
166118	7	Sololá	712	San Antonio Palopó	9	San Antonio Palopo	4	Abril	2023-04-18T00:00:00	2024-11-08T22:00:00	4	Temperatura máxima	19.7
166119	7	Sololá	712	San Antonio Palopó	9	San Antonio Palopo	4	Abril	2023-04-18T00:00:00	2024-11-08T22:00:00	3	Temperatura mínima	19
166120	7	Sololá	712	San Antonio Palopó	9	San Antonio Palopo	4	Abril	2023-04-18T00:00:00	2024-11-08T22:00:00	5	Humedad	83
166121	7	Sololá	712	San Antonio Palopó	9	San Antonio Palopo	4	Abril	2023-04-18T00:00:00	2024-11-08T22:00:00	6	Velocidad del viento	1.6
166122	7	Sololá	712	San Antonio Palopó	9	San Antonio Palopo	4	Abril	2023-04-18T00:00:00	2024-11-08T22:00:00	7	Dirección del viento	1.61
166123	7	Sololá	712	San Antonio Palopó	9	San Antonio Palopo	4	Abril	2023-04-18T00:00:00	2024-11-08T22:00:00	1	Precipitación	0
166124	7	Sololá	712	San Antonio Palopó	9	San Antonio Palopo	4	Abril	2023-04-18T00:00:00	2024-11-08T22:00:00	8	Radiación solar	0
166125	7	Sololá	712	San Antonio Palopó	9	San Antonio Palopo	4	Abril	2023-04-18T00:00:00	2024-11-08T23:00:00	2	Temperatura media	19.4
166126	7	Sololá	712	San Antonio Palopó	9	San Antonio Palopo	4	Abril	2023-04-18T00:00:00	2024-11-08T23:00:00	4	Temperatura máxima	19.6
166127	7	Sololá	712	San Antonio Palopó	9	San Antonio Palopo	4	Abril	2023-04-18T00:00:00	2024-11-08T23:00:00	3	Temperatura mínima	18.6
166128	7	Sololá	712	San Antonio Palopó	9	San Antonio Palopo	4	Abril	2023-04-18T00:00:00	2024-11-08T23:00:00	5	Humedad	73
166129	7	Sololá	712	San Antonio Palopó	9	San Antonio Palopo	4	Abril	2023-04-18T00:00:00	2024-11-08T23:00:00	6	Velocidad del viento	4.8
166130	7	Sololá	712	San Antonio Palopó	9	San Antonio Palopo	4	Abril	2023-04-18T00:00:00	2024-11-08T23:00:00	7	Dirección del viento	4.83
166131	7	Sololá	712	San Antonio Palopó	9	San Antonio Palopo	4	Abril	2023-04-18T00:00:00	2024-11-08T23:00:00	1	Precipitación	0
166132	7	Sololá	712	San Antonio Palopó	9	San Antonio Palopo	4	Abril	2023-04-18T00:00:00	2024-11-08T23:00:00	8	Radiación solar	0
166133	7	Sololá	712	San Antonio Palopó	9	San Antonio Palopo	4	Abril	2023-04-19T00:00:00	2024-11-08T00:00:00	2	Temperatura media	18.4
166134	7	Sololá	712	San Antonio Palopó	9	San Antonio Palopo	4	Abril	2023-04-19T00:00:00	2024-11-08T00:00:00	4	Temperatura máxima	19.5
166135	7	Sololá	712	San Antonio Palopó	9	San Antonio Palopo	4	Abril	2023-04-19T00:00:00	2024-11-08T00:00:00	3	Temperatura mínima	18.4
166136	7	Sololá	712	San Antonio Palopó	9	San Antonio Palopo	4	Abril	2023-04-19T00:00:00	2024-11-08T00:00:00	5	Humedad	73
166137	7	Sololá	712	San Antonio Palopó	9	San Antonio Palopo	4	Abril	2023-04-19T00:00:00	2024-11-08T00:00:00	6	Velocidad del viento	4.8
166138	7	Sololá	712	San Antonio Palopó	9	San Antonio Palopo	4	Abril	2023-04-19T00:00:00	2024-11-08T00:00:00	7	Dirección del viento	4.83
166139	7	Sololá	712	San Antonio Palopó	9	San Antonio Palopo	4	Abril	2023-04-19T00:00:00	2024-11-08T00:00:00	1	Precipitación	0
166140	7	Sololá	712	San Antonio Palopó	9	San Antonio Palopo	4	Abril	2023-04-19T00:00:00	2024-11-08T00:00:00	8	Radiación solar	0
166141	7	Sololá	712	San Antonio Palopó	9	San Antonio Palopo	4	Abril	2023-04-19T00:00:00	2024-11-08T01:00:00	2	Temperatura media	17.8
166142	7	Sololá	712	San Antonio Palopó	9	San Antonio Palopo	4	Abril	2023-04-19T00:00:00	2024-11-08T01:00:00	4	Temperatura máxima	18.6
166143	7	Sololá	712	San Antonio Palopó	9	San Antonio Palopo	4	Abril	2023-04-19T00:00:00	2024-11-08T01:00:00	3	Temperatura mínima	17.7
166144	7	Sololá	712	San Antonio Palopó	9	San Antonio Palopo	4	Abril	2023-04-19T00:00:00	2024-11-08T01:00:00	5	Humedad	74
166145	7	Sololá	712	San Antonio Palopó	9	San Antonio Palopo	4	Abril	2023-04-19T00:00:00	2024-11-08T01:00:00	6	Velocidad del viento	4.8
166146	7	Sololá	712	San Antonio Palopó	9	San Antonio Palopo	4	Abril	2023-04-19T00:00:00	2024-11-08T01:00:00	7	Dirección del viento	4.83
166147	7	Sololá	712	San Antonio Palopó	9	San Antonio Palopo	4	Abril	2023-04-19T00:00:00	2024-11-08T01:00:00	1	Precipitación	0
166148	7	Sololá	712	San Antonio Palopó	9	San Antonio Palopo	4	Abril	2023-04-19T00:00:00	2024-11-08T01:00:00	8	Radiación solar	0
166149	7	Sololá	712	San Antonio Palopó	9	San Antonio Palopo	4	Abril	2023-04-19T00:00:00	2024-11-08T02:00:00	2	Temperatura media	18
166150	7	Sololá	712	San Antonio Palopó	9	San Antonio Palopo	4	Abril	2023-04-19T00:00:00	2024-11-08T02:00:00	4	Temperatura máxima	18
166151	7	Sololá	712	San Antonio Palopó	9	San Antonio Palopo	4	Abril	2023-04-19T00:00:00	2024-11-08T02:00:00	3	Temperatura mínima	17.5
166152	7	Sololá	712	San Antonio Palopó	9	San Antonio Palopo	4	Abril	2023-04-19T00:00:00	2024-11-08T02:00:00	5	Humedad	70
166153	7	Sololá	712	San Antonio Palopó	9	San Antonio Palopo	4	Abril	2023-04-19T00:00:00	2024-11-08T02:00:00	6	Velocidad del viento	6.4
166154	7	Sololá	712	San Antonio Palopó	9	San Antonio Palopo	4	Abril	2023-04-19T00:00:00	2024-11-08T02:00:00	7	Dirección del viento	6.44
166155	7	Sololá	712	San Antonio Palopó	9	San Antonio Palopo	4	Abril	2023-04-19T00:00:00	2024-11-08T02:00:00	1	Precipitación	0
166156	7	Sololá	712	San Antonio Palopó	9	San Antonio Palopo	4	Abril	2023-04-19T00:00:00	2024-11-08T02:00:00	8	Radiación solar	0
166157	7	Sololá	712	San Antonio Palopó	9	San Antonio Palopo	4	Abril	2023-04-19T00:00:00	2024-11-08T03:00:00	2	Temperatura media	17.3
166158	7	Sololá	712	San Antonio Palopó	9	San Antonio Palopo	4	Abril	2023-04-19T00:00:00	2024-11-08T03:00:00	4	Temperatura máxima	18
166159	7	Sololá	712	San Antonio Palopó	9	San Antonio Palopo	4	Abril	2023-04-19T00:00:00	2024-11-08T03:00:00	3	Temperatura mínima	17.2
166160	7	Sololá	712	San Antonio Palopó	9	San Antonio Palopo	4	Abril	2023-04-19T00:00:00	2024-11-08T03:00:00	5	Humedad	69
166161	7	Sololá	712	San Antonio Palopó	9	San Antonio Palopo	4	Abril	2023-04-19T00:00:00	2024-11-08T03:00:00	6	Velocidad del viento	4.8
166162	7	Sololá	712	San Antonio Palopó	9	San Antonio Palopo	4	Abril	2023-04-19T00:00:00	2024-11-08T03:00:00	7	Dirección del viento	4.83
166163	7	Sololá	712	San Antonio Palopó	9	San Antonio Palopo	4	Abril	2023-04-19T00:00:00	2024-11-08T03:00:00	1	Precipitación	0
166164	7	Sololá	712	San Antonio Palopó	9	San Antonio Palopo	4	Abril	2023-04-19T00:00:00	2024-11-08T03:00:00	8	Radiación solar	0
166165	7	Sololá	712	San Antonio Palopó	9	San Antonio Palopo	4	Abril	2023-04-19T00:00:00	2024-11-08T04:00:00	2	Temperatura media	17
166166	7	Sololá	712	San Antonio Palopó	9	San Antonio Palopo	4	Abril	2023-04-19T00:00:00	2024-11-08T04:00:00	4	Temperatura máxima	17.6
166167	7	Sololá	712	San Antonio Palopó	9	San Antonio Palopo	4	Abril	2023-04-19T00:00:00	2024-11-08T04:00:00	3	Temperatura mínima	17
166168	7	Sololá	712	San Antonio Palopó	9	San Antonio Palopo	4	Abril	2023-04-19T00:00:00	2024-11-08T04:00:00	5	Humedad	71
166169	7	Sololá	712	San Antonio Palopó	9	San Antonio Palopo	4	Abril	2023-04-19T00:00:00	2024-11-08T04:00:00	6	Velocidad del viento	9.7
166170	7	Sololá	712	San Antonio Palopó	9	San Antonio Palopo	4	Abril	2023-04-19T00:00:00	2024-11-08T04:00:00	7	Dirección del viento	9.66
166171	7	Sololá	712	San Antonio Palopó	9	San Antonio Palopo	4	Abril	2023-04-19T00:00:00	2024-11-08T04:00:00	1	Precipitación	0
166172	7	Sololá	712	San Antonio Palopó	9	San Antonio Palopo	4	Abril	2023-04-19T00:00:00	2024-11-08T04:00:00	8	Radiación solar	0
166173	7	Sololá	712	San Antonio Palopó	9	San Antonio Palopo	4	Abril	2023-04-19T00:00:00	2024-11-08T05:00:00	2	Temperatura media	16.6
166174	7	Sololá	712	San Antonio Palopó	9	San Antonio Palopo	4	Abril	2023-04-19T00:00:00	2024-11-08T05:00:00	4	Temperatura máxima	17
166175	7	Sololá	712	San Antonio Palopó	9	San Antonio Palopo	4	Abril	2023-04-19T00:00:00	2024-11-08T05:00:00	3	Temperatura mínima	16.6
166176	7	Sololá	712	San Antonio Palopó	9	San Antonio Palopo	4	Abril	2023-04-19T00:00:00	2024-11-08T05:00:00	5	Humedad	71
166177	7	Sololá	712	San Antonio Palopó	9	San Antonio Palopo	4	Abril	2023-04-19T00:00:00	2024-11-08T05:00:00	6	Velocidad del viento	8
166178	7	Sololá	712	San Antonio Palopó	9	San Antonio Palopo	4	Abril	2023-04-19T00:00:00	2024-11-08T05:00:00	7	Dirección del viento	8.05
166179	7	Sololá	712	San Antonio Palopó	9	San Antonio Palopo	4	Abril	2023-04-19T00:00:00	2024-11-08T05:00:00	1	Precipitación	0
166180	7	Sololá	712	San Antonio Palopó	9	San Antonio Palopo	4	Abril	2023-04-19T00:00:00	2024-11-08T05:00:00	8	Radiación solar	0
166181	7	Sololá	712	San Antonio Palopó	9	San Antonio Palopo	4	Abril	2023-04-19T00:00:00	2024-11-08T06:00:00	2	Temperatura media	16.4
166182	7	Sololá	712	San Antonio Palopó	9	San Antonio Palopo	4	Abril	2023-04-19T00:00:00	2024-11-08T06:00:00	4	Temperatura máxima	16.9
166183	7	Sololá	712	San Antonio Palopó	9	San Antonio Palopo	4	Abril	2023-04-19T00:00:00	2024-11-08T06:00:00	3	Temperatura mínima	16.1
166184	7	Sololá	712	San Antonio Palopó	9	San Antonio Palopo	4	Abril	2023-04-19T00:00:00	2024-11-08T06:00:00	5	Humedad	67
166185	7	Sololá	712	San Antonio Palopó	9	San Antonio Palopo	4	Abril	2023-04-19T00:00:00	2024-11-08T06:00:00	6	Velocidad del viento	4.8
166186	7	Sololá	712	San Antonio Palopó	9	San Antonio Palopo	4	Abril	2023-04-19T00:00:00	2024-11-08T06:00:00	7	Dirección del viento	4.83
166187	7	Sololá	712	San Antonio Palopó	9	San Antonio Palopo	4	Abril	2023-04-19T00:00:00	2024-11-08T06:00:00	1	Precipitación	0
166188	7	Sololá	712	San Antonio Palopó	9	San Antonio Palopo	4	Abril	2023-04-19T00:00:00	2024-11-08T06:00:00	8	Radiación solar	1
166189	7	Sololá	712	San Antonio Palopó	9	San Antonio Palopo	4	Abril	2023-04-19T00:00:00	2024-11-08T07:00:00	2	Temperatura media	16.9
166190	7	Sololá	712	San Antonio Palopó	9	San Antonio Palopo	4	Abril	2023-04-19T00:00:00	2024-11-08T07:00:00	4	Temperatura máxima	17
166191	7	Sololá	712	San Antonio Palopó	9	San Antonio Palopo	4	Abril	2023-04-19T00:00:00	2024-11-08T07:00:00	3	Temperatura mínima	16.4
166192	7	Sololá	712	San Antonio Palopó	9	San Antonio Palopo	4	Abril	2023-04-19T00:00:00	2024-11-08T07:00:00	5	Humedad	65
166193	7	Sololá	712	San Antonio Palopó	9	San Antonio Palopo	4	Abril	2023-04-19T00:00:00	2024-11-08T07:00:00	6	Velocidad del viento	3.2
166194	7	Sololá	712	San Antonio Palopó	9	San Antonio Palopo	4	Abril	2023-04-19T00:00:00	2024-11-08T07:00:00	7	Dirección del viento	3.22
166195	7	Sololá	712	San Antonio Palopó	9	San Antonio Palopo	4	Abril	2023-04-19T00:00:00	2024-11-08T07:00:00	1	Precipitación	0
166196	7	Sololá	712	San Antonio Palopó	9	San Antonio Palopo	4	Abril	2023-04-19T00:00:00	2024-11-08T07:00:00	8	Radiación solar	16
166197	7	Sololá	712	San Antonio Palopó	9	San Antonio Palopo	4	Abril	2023-04-19T00:00:00	2024-11-08T08:00:00	2	Temperatura media	17.8
166198	7	Sololá	712	San Antonio Palopó	9	San Antonio Palopo	4	Abril	2023-04-19T00:00:00	2024-11-08T08:00:00	4	Temperatura máxima	17.8
166199	7	Sololá	712	San Antonio Palopó	9	San Antonio Palopo	4	Abril	2023-04-19T00:00:00	2024-11-08T08:00:00	3	Temperatura mínima	16.3
166200	7	Sololá	712	San Antonio Palopó	9	San Antonio Palopo	4	Abril	2023-04-19T00:00:00	2024-11-08T08:00:00	5	Humedad	68
166201	7	Sololá	712	San Antonio Palopó	9	San Antonio Palopo	4	Abril	2023-04-19T00:00:00	2024-11-08T08:00:00	6	Velocidad del viento	3.2
166202	7	Sololá	712	San Antonio Palopó	9	San Antonio Palopo	4	Abril	2023-04-19T00:00:00	2024-11-08T08:00:00	7	Dirección del viento	3.22
166203	7	Sololá	712	San Antonio Palopó	9	San Antonio Palopo	4	Abril	2023-04-19T00:00:00	2024-11-08T08:00:00	1	Precipitación	0
166204	7	Sololá	712	San Antonio Palopó	9	San Antonio Palopo	4	Abril	2023-04-19T00:00:00	2024-11-08T08:00:00	8	Radiación solar	132
166205	7	Sololá	712	San Antonio Palopó	9	San Antonio Palopo	4	Abril	2023-04-19T00:00:00	2024-11-08T09:00:00	2	Temperatura media	19.8
166206	7	Sololá	712	San Antonio Palopó	9	San Antonio Palopo	4	Abril	2023-04-19T00:00:00	2024-11-08T09:00:00	4	Temperatura máxima	19.9
166207	7	Sololá	712	San Antonio Palopó	9	San Antonio Palopo	4	Abril	2023-04-19T00:00:00	2024-11-08T09:00:00	3	Temperatura mínima	17.8
166208	7	Sololá	712	San Antonio Palopó	9	San Antonio Palopo	4	Abril	2023-04-19T00:00:00	2024-11-08T09:00:00	5	Humedad	65
166209	7	Sololá	712	San Antonio Palopó	9	San Antonio Palopo	4	Abril	2023-04-19T00:00:00	2024-11-08T09:00:00	6	Velocidad del viento	1.6
166210	7	Sololá	712	San Antonio Palopó	9	San Antonio Palopo	4	Abril	2023-04-19T00:00:00	2024-11-08T09:00:00	7	Dirección del viento	1.61
166211	7	Sololá	712	San Antonio Palopó	9	San Antonio Palopo	4	Abril	2023-04-19T00:00:00	2024-11-08T09:00:00	1	Precipitación	0
166212	7	Sololá	712	San Antonio Palopó	9	San Antonio Palopo	4	Abril	2023-04-19T00:00:00	2024-11-08T09:00:00	8	Radiación solar	443
166213	7	Sololá	712	San Antonio Palopó	9	San Antonio Palopo	4	Abril	2023-04-19T00:00:00	2024-11-08T10:00:00	2	Temperatura media	21.4
166214	7	Sololá	712	San Antonio Palopó	9	San Antonio Palopo	4	Abril	2023-04-19T00:00:00	2024-11-08T10:00:00	4	Temperatura máxima	21.4
166215	7	Sololá	712	San Antonio Palopó	9	San Antonio Palopo	4	Abril	2023-04-19T00:00:00	2024-11-08T10:00:00	3	Temperatura mínima	19.8
166216	7	Sololá	712	San Antonio Palopó	9	San Antonio Palopo	4	Abril	2023-04-19T00:00:00	2024-11-08T10:00:00	5	Humedad	59
166217	7	Sololá	712	San Antonio Palopó	9	San Antonio Palopo	4	Abril	2023-04-19T00:00:00	2024-11-08T10:00:00	6	Velocidad del viento	3.2
166218	7	Sololá	712	San Antonio Palopó	9	San Antonio Palopo	4	Abril	2023-04-19T00:00:00	2024-11-08T10:00:00	7	Dirección del viento	3.22
166219	7	Sololá	712	San Antonio Palopó	9	San Antonio Palopo	4	Abril	2023-04-19T00:00:00	2024-11-08T10:00:00	1	Precipitación	0
166220	7	Sololá	712	San Antonio Palopó	9	San Antonio Palopo	4	Abril	2023-04-19T00:00:00	2024-11-08T10:00:00	8	Radiación solar	700
166221	7	Sololá	712	San Antonio Palopó	9	San Antonio Palopo	4	Abril	2023-04-19T00:00:00	2024-11-08T11:00:00	2	Temperatura media	22.2
166222	7	Sololá	712	San Antonio Palopó	9	San Antonio Palopo	4	Abril	2023-04-19T00:00:00	2024-11-08T11:00:00	4	Temperatura máxima	22.4
166223	7	Sololá	712	San Antonio Palopó	9	San Antonio Palopo	4	Abril	2023-04-19T00:00:00	2024-11-08T11:00:00	3	Temperatura mínima	21.4
166224	7	Sololá	712	San Antonio Palopó	9	San Antonio Palopo	4	Abril	2023-04-19T00:00:00	2024-11-08T11:00:00	5	Humedad	58
166225	7	Sololá	712	San Antonio Palopó	9	San Antonio Palopo	4	Abril	2023-04-19T00:00:00	2024-11-08T11:00:00	6	Velocidad del viento	3.2
166226	7	Sololá	712	San Antonio Palopó	9	San Antonio Palopo	4	Abril	2023-04-19T00:00:00	2024-11-08T11:00:00	7	Dirección del viento	3.22
166227	7	Sololá	712	San Antonio Palopó	9	San Antonio Palopo	4	Abril	2023-04-19T00:00:00	2024-11-08T11:00:00	1	Precipitación	0
166228	7	Sololá	712	San Antonio Palopó	9	San Antonio Palopo	4	Abril	2023-04-19T00:00:00	2024-11-08T11:00:00	8	Radiación solar	848
166229	7	Sololá	712	San Antonio Palopó	9	San Antonio Palopo	4	Abril	2023-04-19T00:00:00	2024-11-08T12:00:00	2	Temperatura media	24.1
166230	7	Sololá	712	San Antonio Palopó	9	San Antonio Palopo	4	Abril	2023-04-19T00:00:00	2024-11-08T12:00:00	4	Temperatura máxima	24.2
166231	7	Sololá	712	San Antonio Palopó	9	San Antonio Palopo	4	Abril	2023-04-19T00:00:00	2024-11-08T12:00:00	3	Temperatura mínima	22.1
166232	7	Sololá	712	San Antonio Palopó	9	San Antonio Palopo	4	Abril	2023-04-19T00:00:00	2024-11-08T12:00:00	5	Humedad	63
166233	7	Sololá	712	San Antonio Palopó	9	San Antonio Palopo	4	Abril	2023-04-19T00:00:00	2024-11-08T12:00:00	6	Velocidad del viento	6.4
166234	7	Sololá	712	San Antonio Palopó	9	San Antonio Palopo	4	Abril	2023-04-19T00:00:00	2024-11-08T12:00:00	7	Dirección del viento	6.44
166235	7	Sololá	712	San Antonio Palopó	9	San Antonio Palopo	4	Abril	2023-04-19T00:00:00	2024-11-08T12:00:00	1	Precipitación	0
166236	7	Sololá	712	San Antonio Palopó	9	San Antonio Palopo	4	Abril	2023-04-19T00:00:00	2024-11-08T12:00:00	8	Radiación solar	950
166237	7	Sololá	712	San Antonio Palopó	9	San Antonio Palopo	4	Abril	2023-04-19T00:00:00	2024-11-08T13:00:00	2	Temperatura media	23.6
166238	7	Sololá	712	San Antonio Palopó	9	San Antonio Palopo	4	Abril	2023-04-19T00:00:00	2024-11-08T13:00:00	4	Temperatura máxima	24.3
166239	7	Sololá	712	San Antonio Palopó	9	San Antonio Palopo	4	Abril	2023-04-19T00:00:00	2024-11-08T13:00:00	3	Temperatura mínima	23.6
166240	7	Sololá	712	San Antonio Palopó	9	San Antonio Palopo	4	Abril	2023-04-19T00:00:00	2024-11-08T13:00:00	5	Humedad	68
166241	7	Sololá	712	San Antonio Palopó	9	San Antonio Palopo	4	Abril	2023-04-19T00:00:00	2024-11-08T13:00:00	6	Velocidad del viento	11.3
166242	7	Sololá	712	San Antonio Palopó	9	San Antonio Palopo	4	Abril	2023-04-19T00:00:00	2024-11-08T13:00:00	7	Dirección del viento	11.27
166243	7	Sololá	712	San Antonio Palopó	9	San Antonio Palopo	4	Abril	2023-04-19T00:00:00	2024-11-08T13:00:00	1	Precipitación	0
166244	7	Sololá	712	San Antonio Palopó	9	San Antonio Palopo	4	Abril	2023-04-19T00:00:00	2024-11-08T13:00:00	8	Radiación solar	957
166245	7	Sololá	712	San Antonio Palopó	9	San Antonio Palopo	4	Abril	2023-04-19T00:00:00	2024-11-08T14:00:00	2	Temperatura media	23.5
166246	7	Sololá	712	San Antonio Palopó	9	San Antonio Palopo	4	Abril	2023-04-19T00:00:00	2024-11-08T14:00:00	4	Temperatura máxima	24.3
166247	7	Sololá	712	San Antonio Palopó	9	San Antonio Palopo	4	Abril	2023-04-19T00:00:00	2024-11-08T14:00:00	3	Temperatura mínima	23.4
166248	7	Sololá	712	San Antonio Palopó	9	San Antonio Palopo	4	Abril	2023-04-19T00:00:00	2024-11-08T14:00:00	5	Humedad	69
166249	7	Sololá	712	San Antonio Palopó	9	San Antonio Palopo	4	Abril	2023-04-19T00:00:00	2024-11-08T14:00:00	6	Velocidad del viento	11.3
166250	7	Sololá	712	San Antonio Palopó	9	San Antonio Palopo	4	Abril	2023-04-19T00:00:00	2024-11-08T14:00:00	7	Dirección del viento	11.27
166251	7	Sololá	712	San Antonio Palopó	9	San Antonio Palopo	4	Abril	2023-04-19T00:00:00	2024-11-08T14:00:00	1	Precipitación	0
166252	7	Sololá	712	San Antonio Palopó	9	San Antonio Palopo	4	Abril	2023-04-19T00:00:00	2024-11-08T14:00:00	8	Radiación solar	893
166253	7	Sololá	712	San Antonio Palopó	9	San Antonio Palopo	4	Abril	2023-04-19T00:00:00	2024-11-08T15:00:00	2	Temperatura media	23.9
166254	7	Sololá	712	San Antonio Palopó	9	San Antonio Palopo	4	Abril	2023-04-19T00:00:00	2024-11-08T15:00:00	4	Temperatura máxima	24.1
166255	7	Sololá	712	San Antonio Palopó	9	San Antonio Palopo	4	Abril	2023-04-19T00:00:00	2024-11-08T15:00:00	3	Temperatura mínima	23.4
166256	7	Sololá	712	San Antonio Palopó	9	San Antonio Palopo	4	Abril	2023-04-19T00:00:00	2024-11-08T15:00:00	5	Humedad	69
166257	7	Sololá	712	San Antonio Palopó	9	San Antonio Palopo	4	Abril	2023-04-19T00:00:00	2024-11-08T15:00:00	6	Velocidad del viento	12.9
166258	7	Sololá	712	San Antonio Palopó	9	San Antonio Palopo	4	Abril	2023-04-19T00:00:00	2024-11-08T15:00:00	7	Dirección del viento	12.87
166259	7	Sololá	712	San Antonio Palopó	9	San Antonio Palopo	4	Abril	2023-04-19T00:00:00	2024-11-08T15:00:00	1	Precipitación	0
166260	7	Sololá	712	San Antonio Palopó	9	San Antonio Palopo	4	Abril	2023-04-19T00:00:00	2024-11-08T15:00:00	8	Radiación solar	787
166261	7	Sololá	712	San Antonio Palopó	9	San Antonio Palopo	4	Abril	2023-04-19T00:00:00	2024-11-08T16:00:00	2	Temperatura media	23.1
166262	7	Sololá	712	San Antonio Palopó	9	San Antonio Palopo	4	Abril	2023-04-19T00:00:00	2024-11-08T16:00:00	4	Temperatura máxima	23.9
166263	7	Sololá	712	San Antonio Palopó	9	San Antonio Palopo	4	Abril	2023-04-19T00:00:00	2024-11-08T16:00:00	3	Temperatura mínima	23
166264	7	Sololá	712	San Antonio Palopó	9	San Antonio Palopo	4	Abril	2023-04-19T00:00:00	2024-11-08T16:00:00	5	Humedad	70
166265	7	Sololá	712	San Antonio Palopó	9	San Antonio Palopo	4	Abril	2023-04-19T00:00:00	2024-11-08T16:00:00	6	Velocidad del viento	12.9
166266	7	Sololá	712	San Antonio Palopó	9	San Antonio Palopo	4	Abril	2023-04-19T00:00:00	2024-11-08T16:00:00	7	Dirección del viento	12.87
166267	7	Sololá	712	San Antonio Palopó	9	San Antonio Palopo	4	Abril	2023-04-19T00:00:00	2024-11-08T16:00:00	1	Precipitación	0
166268	7	Sololá	712	San Antonio Palopó	9	San Antonio Palopo	4	Abril	2023-04-19T00:00:00	2024-11-08T16:00:00	8	Radiación solar	557
166269	7	Sololá	712	San Antonio Palopó	9	San Antonio Palopo	4	Abril	2023-04-19T00:00:00	2024-11-08T17:00:00	2	Temperatura media	22.3
166270	7	Sololá	712	San Antonio Palopó	9	San Antonio Palopo	4	Abril	2023-04-19T00:00:00	2024-11-08T17:00:00	4	Temperatura máxima	23.2
166271	7	Sololá	712	San Antonio Palopó	9	San Antonio Palopo	4	Abril	2023-04-19T00:00:00	2024-11-08T17:00:00	3	Temperatura mínima	22.1
166272	7	Sololá	712	San Antonio Palopó	9	San Antonio Palopo	4	Abril	2023-04-19T00:00:00	2024-11-08T17:00:00	5	Humedad	75
166273	7	Sololá	712	San Antonio Palopó	9	San Antonio Palopo	4	Abril	2023-04-19T00:00:00	2024-11-08T17:00:00	6	Velocidad del viento	9.7
166274	7	Sololá	712	San Antonio Palopó	9	San Antonio Palopo	4	Abril	2023-04-19T00:00:00	2024-11-08T17:00:00	7	Dirección del viento	9.66
166275	7	Sololá	712	San Antonio Palopó	9	San Antonio Palopo	4	Abril	2023-04-19T00:00:00	2024-11-08T17:00:00	1	Precipitación	0
166276	7	Sololá	712	San Antonio Palopó	9	San Antonio Palopo	4	Abril	2023-04-19T00:00:00	2024-11-08T17:00:00	8	Radiación solar	184
166277	7	Sololá	712	San Antonio Palopó	9	San Antonio Palopo	4	Abril	2023-04-19T00:00:00	2024-11-08T18:00:00	2	Temperatura media	20.7
166278	7	Sololá	712	San Antonio Palopó	9	San Antonio Palopo	4	Abril	2023-04-19T00:00:00	2024-11-08T18:00:00	4	Temperatura máxima	22.3
166279	7	Sololá	712	San Antonio Palopó	9	San Antonio Palopo	4	Abril	2023-04-19T00:00:00	2024-11-08T18:00:00	3	Temperatura mínima	20.7
166280	7	Sololá	712	San Antonio Palopó	9	San Antonio Palopo	4	Abril	2023-04-19T00:00:00	2024-11-08T18:00:00	5	Humedad	83
166281	7	Sololá	712	San Antonio Palopó	9	San Antonio Palopo	4	Abril	2023-04-19T00:00:00	2024-11-08T18:00:00	6	Velocidad del viento	11.3
166282	7	Sololá	712	San Antonio Palopó	9	San Antonio Palopo	4	Abril	2023-04-19T00:00:00	2024-11-08T18:00:00	7	Dirección del viento	11.27
166283	7	Sololá	712	San Antonio Palopó	9	San Antonio Palopo	4	Abril	2023-04-19T00:00:00	2024-11-08T18:00:00	1	Precipitación	0
166284	7	Sololá	712	San Antonio Palopó	9	San Antonio Palopo	4	Abril	2023-04-19T00:00:00	2024-11-08T18:00:00	8	Radiación solar	50
166285	7	Sololá	712	San Antonio Palopó	9	San Antonio Palopo	4	Abril	2023-04-19T00:00:00	2024-11-08T19:00:00	2	Temperatura media	20.3
166286	7	Sololá	712	San Antonio Palopó	9	San Antonio Palopo	4	Abril	2023-04-19T00:00:00	2024-11-08T19:00:00	4	Temperatura máxima	20.7
166287	7	Sololá	712	San Antonio Palopó	9	San Antonio Palopo	4	Abril	2023-04-19T00:00:00	2024-11-08T19:00:00	3	Temperatura mínima	20
166288	7	Sololá	712	San Antonio Palopó	9	San Antonio Palopo	4	Abril	2023-04-19T00:00:00	2024-11-08T19:00:00	5	Humedad	84
166289	7	Sololá	712	San Antonio Palopó	9	San Antonio Palopo	4	Abril	2023-04-19T00:00:00	2024-11-08T19:00:00	6	Velocidad del viento	6.4
166290	7	Sololá	712	San Antonio Palopó	9	San Antonio Palopo	4	Abril	2023-04-19T00:00:00	2024-11-08T19:00:00	7	Dirección del viento	6.44
166291	7	Sololá	712	San Antonio Palopó	9	San Antonio Palopo	4	Abril	2023-04-19T00:00:00	2024-11-08T19:00:00	1	Precipitación	0
166292	7	Sololá	712	San Antonio Palopó	9	San Antonio Palopo	4	Abril	2023-04-19T00:00:00	2024-11-08T19:00:00	8	Radiación solar	0
166293	7	Sololá	712	San Antonio Palopó	9	San Antonio Palopo	4	Abril	2023-04-19T00:00:00	2024-11-08T20:00:00	2	Temperatura media	20.3
166294	7	Sololá	712	San Antonio Palopó	9	San Antonio Palopo	4	Abril	2023-04-19T00:00:00	2024-11-08T20:00:00	4	Temperatura máxima	20.3
166295	7	Sololá	712	San Antonio Palopó	9	San Antonio Palopo	4	Abril	2023-04-19T00:00:00	2024-11-08T20:00:00	3	Temperatura mínima	20.2
166296	7	Sololá	712	San Antonio Palopó	9	San Antonio Palopo	4	Abril	2023-04-19T00:00:00	2024-11-08T20:00:00	5	Humedad	83
166297	7	Sololá	712	San Antonio Palopó	9	San Antonio Palopo	4	Abril	2023-04-19T00:00:00	2024-11-08T20:00:00	6	Velocidad del viento	1.6
166298	7	Sololá	712	San Antonio Palopó	9	San Antonio Palopo	4	Abril	2023-04-19T00:00:00	2024-11-08T20:00:00	7	Dirección del viento	1.61
166299	7	Sololá	712	San Antonio Palopó	9	San Antonio Palopo	4	Abril	2023-04-19T00:00:00	2024-11-08T20:00:00	1	Precipitación	0
166300	7	Sololá	712	San Antonio Palopó	9	San Antonio Palopo	4	Abril	2023-04-19T00:00:00	2024-11-08T20:00:00	8	Radiación solar	0
166301	7	Sololá	712	San Antonio Palopó	9	San Antonio Palopo	4	Abril	2023-04-19T00:00:00	2024-11-08T21:00:00	2	Temperatura media	19.9
166302	7	Sololá	712	San Antonio Palopó	9	San Antonio Palopo	4	Abril	2023-04-19T00:00:00	2024-11-08T21:00:00	4	Temperatura máxima	20.4
166303	7	Sololá	712	San Antonio Palopó	9	San Antonio Palopo	4	Abril	2023-04-19T00:00:00	2024-11-08T21:00:00	3	Temperatura mínima	19.9
166304	7	Sololá	712	San Antonio Palopó	9	San Antonio Palopo	4	Abril	2023-04-19T00:00:00	2024-11-08T21:00:00	5	Humedad	86
166305	7	Sololá	712	San Antonio Palopó	9	San Antonio Palopo	4	Abril	2023-04-19T00:00:00	2024-11-08T21:00:00	6	Velocidad del viento	3.2
166306	7	Sololá	712	San Antonio Palopó	9	San Antonio Palopo	4	Abril	2023-04-19T00:00:00	2024-11-08T21:00:00	7	Dirección del viento	3.22
166307	7	Sololá	712	San Antonio Palopó	9	San Antonio Palopo	4	Abril	2023-04-19T00:00:00	2024-11-08T21:00:00	1	Precipitación	0
166308	7	Sololá	712	San Antonio Palopó	9	San Antonio Palopo	4	Abril	2023-04-19T00:00:00	2024-11-08T21:00:00	8	Radiación solar	0
166309	7	Sololá	712	San Antonio Palopó	9	San Antonio Palopo	4	Abril	2023-04-19T00:00:00	2024-11-08T22:00:00	2	Temperatura media	19.8
166310	7	Sololá	712	San Antonio Palopó	9	San Antonio Palopo	4	Abril	2023-04-19T00:00:00	2024-11-08T22:00:00	4	Temperatura máxima	20
166311	7	Sololá	712	San Antonio Palopó	9	San Antonio Palopo	4	Abril	2023-04-19T00:00:00	2024-11-08T22:00:00	3	Temperatura mínima	19.8
166312	7	Sololá	712	San Antonio Palopó	9	San Antonio Palopo	4	Abril	2023-04-19T00:00:00	2024-11-08T22:00:00	5	Humedad	87
166313	7	Sololá	712	San Antonio Palopó	9	San Antonio Palopo	4	Abril	2023-04-19T00:00:00	2024-11-08T22:00:00	6	Velocidad del viento	1.6
166314	7	Sololá	712	San Antonio Palopó	9	San Antonio Palopo	4	Abril	2023-04-19T00:00:00	2024-11-08T22:00:00	7	Dirección del viento	1.61
166315	7	Sololá	712	San Antonio Palopó	9	San Antonio Palopo	4	Abril	2023-04-19T00:00:00	2024-11-08T22:00:00	1	Precipitación	0
166316	7	Sololá	712	San Antonio Palopó	9	San Antonio Palopo	4	Abril	2023-04-19T00:00:00	2024-11-08T22:00:00	8	Radiación solar	0
166317	7	Sololá	712	San Antonio Palopó	9	San Antonio Palopo	4	Abril	2023-04-19T00:00:00	2024-11-08T23:00:00	2	Temperatura media	19.4
166318	7	Sololá	712	San Antonio Palopó	9	San Antonio Palopo	4	Abril	2023-04-19T00:00:00	2024-11-08T23:00:00	4	Temperatura máxima	19.9
166319	7	Sololá	712	San Antonio Palopó	9	San Antonio Palopo	4	Abril	2023-04-19T00:00:00	2024-11-08T23:00:00	3	Temperatura mínima	19.4
166320	7	Sololá	712	San Antonio Palopó	9	San Antonio Palopo	4	Abril	2023-04-19T00:00:00	2024-11-08T23:00:00	5	Humedad	86
166321	7	Sololá	712	San Antonio Palopó	9	San Antonio Palopo	4	Abril	2023-04-19T00:00:00	2024-11-08T23:00:00	6	Velocidad del viento	1.6
166322	7	Sololá	712	San Antonio Palopó	9	San Antonio Palopo	4	Abril	2023-04-19T00:00:00	2024-11-08T23:00:00	7	Dirección del viento	1.61
166323	7	Sololá	712	San Antonio Palopó	9	San Antonio Palopo	4	Abril	2023-04-19T00:00:00	2024-11-08T23:00:00	1	Precipitación	0
166324	7	Sololá	712	San Antonio Palopó	9	San Antonio Palopo	4	Abril	2023-04-19T00:00:00	2024-11-08T23:00:00	8	Radiación solar	0
166325	7	Sololá	712	San Antonio Palopó	9	San Antonio Palopo	4	Abril	2023-04-20T00:00:00	2024-11-08T00:00:00	2	Temperatura media	18.8
166326	7	Sololá	712	San Antonio Palopó	9	San Antonio Palopo	4	Abril	2023-04-20T00:00:00	2024-11-08T00:00:00	4	Temperatura máxima	19.4
166327	7	Sololá	712	San Antonio Palopó	9	San Antonio Palopo	4	Abril	2023-04-20T00:00:00	2024-11-08T00:00:00	3	Temperatura mínima	18.7
166328	7	Sololá	712	San Antonio Palopó	9	San Antonio Palopo	4	Abril	2023-04-20T00:00:00	2024-11-08T00:00:00	5	Humedad	84
166329	7	Sololá	712	San Antonio Palopó	9	San Antonio Palopo	4	Abril	2023-04-20T00:00:00	2024-11-08T00:00:00	6	Velocidad del viento	1.6
166330	7	Sololá	712	San Antonio Palopó	9	San Antonio Palopo	4	Abril	2023-04-20T00:00:00	2024-11-08T00:00:00	7	Dirección del viento	1.61
166331	7	Sololá	712	San Antonio Palopó	9	San Antonio Palopo	4	Abril	2023-04-20T00:00:00	2024-11-08T00:00:00	1	Precipitación	0
166332	7	Sololá	712	San Antonio Palopó	9	San Antonio Palopo	4	Abril	2023-04-20T00:00:00	2024-11-08T00:00:00	8	Radiación solar	0
166333	7	Sololá	712	San Antonio Palopó	9	San Antonio Palopo	4	Abril	2023-04-20T00:00:00	2024-11-08T01:00:00	2	Temperatura media	18.6
166334	7	Sololá	712	San Antonio Palopó	9	San Antonio Palopo	4	Abril	2023-04-20T00:00:00	2024-11-08T01:00:00	4	Temperatura máxima	19.1
166335	7	Sololá	712	San Antonio Palopó	9	San Antonio Palopo	4	Abril	2023-04-20T00:00:00	2024-11-08T01:00:00	3	Temperatura mínima	18.4
166336	7	Sololá	712	San Antonio Palopó	9	San Antonio Palopo	4	Abril	2023-04-20T00:00:00	2024-11-08T01:00:00	5	Humedad	78
166337	7	Sololá	712	San Antonio Palopó	9	San Antonio Palopo	4	Abril	2023-04-20T00:00:00	2024-11-08T01:00:00	6	Velocidad del viento	3.2
166338	7	Sololá	712	San Antonio Palopó	9	San Antonio Palopo	4	Abril	2023-04-20T00:00:00	2024-11-08T01:00:00	7	Dirección del viento	3.22
166339	7	Sololá	712	San Antonio Palopó	9	San Antonio Palopo	4	Abril	2023-04-20T00:00:00	2024-11-08T01:00:00	1	Precipitación	0
166340	7	Sololá	712	San Antonio Palopó	9	San Antonio Palopo	4	Abril	2023-04-20T00:00:00	2024-11-08T01:00:00	8	Radiación solar	0
166341	7	Sololá	712	San Antonio Palopó	9	San Antonio Palopo	4	Abril	2023-04-20T00:00:00	2024-11-08T02:00:00	2	Temperatura media	18.9
166342	7	Sololá	712	San Antonio Palopó	9	San Antonio Palopo	4	Abril	2023-04-20T00:00:00	2024-11-08T02:00:00	4	Temperatura máxima	19.3
166343	7	Sololá	712	San Antonio Palopó	9	San Antonio Palopo	4	Abril	2023-04-20T00:00:00	2024-11-08T02:00:00	3	Temperatura mínima	18.6
166344	7	Sololá	712	San Antonio Palopó	9	San Antonio Palopo	4	Abril	2023-04-20T00:00:00	2024-11-08T02:00:00	5	Humedad	74
166345	7	Sololá	712	San Antonio Palopó	9	San Antonio Palopo	4	Abril	2023-04-20T00:00:00	2024-11-08T02:00:00	6	Velocidad del viento	4.8
166346	7	Sololá	712	San Antonio Palopó	9	San Antonio Palopo	4	Abril	2023-04-20T00:00:00	2024-11-08T02:00:00	7	Dirección del viento	4.83
166347	7	Sololá	712	San Antonio Palopó	9	San Antonio Palopo	4	Abril	2023-04-20T00:00:00	2024-11-08T02:00:00	1	Precipitación	0
166348	7	Sololá	712	San Antonio Palopó	9	San Antonio Palopo	4	Abril	2023-04-20T00:00:00	2024-11-08T02:00:00	8	Radiación solar	0
166349	7	Sololá	712	San Antonio Palopó	9	San Antonio Palopo	4	Abril	2023-04-20T00:00:00	2024-11-08T03:00:00	2	Temperatura media	18.8
166350	7	Sololá	712	San Antonio Palopó	9	San Antonio Palopo	4	Abril	2023-04-20T00:00:00	2024-11-08T03:00:00	4	Temperatura máxima	19
166351	7	Sololá	712	San Antonio Palopó	9	San Antonio Palopo	4	Abril	2023-04-20T00:00:00	2024-11-08T03:00:00	3	Temperatura mínima	18.7
166352	7	Sololá	712	San Antonio Palopó	9	San Antonio Palopo	4	Abril	2023-04-20T00:00:00	2024-11-08T03:00:00	5	Humedad	73
166353	7	Sololá	712	San Antonio Palopó	9	San Antonio Palopo	4	Abril	2023-04-20T00:00:00	2024-11-08T03:00:00	6	Velocidad del viento	9.7
166354	7	Sololá	712	San Antonio Palopó	9	San Antonio Palopo	4	Abril	2023-04-20T00:00:00	2024-11-08T03:00:00	7	Dirección del viento	9.66
166355	7	Sololá	712	San Antonio Palopó	9	San Antonio Palopo	4	Abril	2023-04-20T00:00:00	2024-11-08T03:00:00	1	Precipitación	0
166356	7	Sololá	712	San Antonio Palopó	9	San Antonio Palopo	4	Abril	2023-04-20T00:00:00	2024-11-08T03:00:00	8	Radiación solar	0
166357	7	Sololá	712	San Antonio Palopó	9	San Antonio Palopo	4	Abril	2023-04-20T00:00:00	2024-11-08T04:00:00	2	Temperatura media	18
166358	7	Sololá	712	San Antonio Palopó	9	San Antonio Palopo	4	Abril	2023-04-20T00:00:00	2024-11-08T04:00:00	4	Temperatura máxima	18.8
166359	7	Sololá	712	San Antonio Palopó	9	San Antonio Palopo	4	Abril	2023-04-20T00:00:00	2024-11-08T04:00:00	3	Temperatura mínima	18
166360	7	Sololá	712	San Antonio Palopó	9	San Antonio Palopo	4	Abril	2023-04-20T00:00:00	2024-11-08T04:00:00	5	Humedad	74
166361	7	Sololá	712	San Antonio Palopó	9	San Antonio Palopo	4	Abril	2023-04-20T00:00:00	2024-11-08T04:00:00	6	Velocidad del viento	12.9
166362	7	Sololá	712	San Antonio Palopó	9	San Antonio Palopo	4	Abril	2023-04-20T00:00:00	2024-11-08T04:00:00	7	Dirección del viento	12.87
166363	7	Sololá	712	San Antonio Palopó	9	San Antonio Palopo	4	Abril	2023-04-20T00:00:00	2024-11-08T04:00:00	1	Precipitación	0
166364	7	Sololá	712	San Antonio Palopó	9	San Antonio Palopo	4	Abril	2023-04-20T00:00:00	2024-11-08T04:00:00	8	Radiación solar	0
166365	7	Sololá	712	San Antonio Palopó	9	San Antonio Palopo	4	Abril	2023-04-20T00:00:00	2024-11-08T05:00:00	2	Temperatura media	17.9
166366	7	Sololá	712	San Antonio Palopó	9	San Antonio Palopo	4	Abril	2023-04-20T00:00:00	2024-11-08T05:00:00	4	Temperatura máxima	18
166367	7	Sololá	712	San Antonio Palopó	9	San Antonio Palopo	4	Abril	2023-04-20T00:00:00	2024-11-08T05:00:00	3	Temperatura mínima	17.7
166368	7	Sololá	712	San Antonio Palopó	9	San Antonio Palopo	4	Abril	2023-04-20T00:00:00	2024-11-08T05:00:00	5	Humedad	71
166369	7	Sololá	712	San Antonio Palopó	9	San Antonio Palopo	4	Abril	2023-04-20T00:00:00	2024-11-08T05:00:00	6	Velocidad del viento	9.7
166370	7	Sololá	712	San Antonio Palopó	9	San Antonio Palopo	4	Abril	2023-04-20T00:00:00	2024-11-08T05:00:00	7	Dirección del viento	9.66
166371	7	Sololá	712	San Antonio Palopó	9	San Antonio Palopo	4	Abril	2023-04-20T00:00:00	2024-11-08T05:00:00	1	Precipitación	0
166372	7	Sololá	712	San Antonio Palopó	9	San Antonio Palopo	4	Abril	2023-04-20T00:00:00	2024-11-08T05:00:00	8	Radiación solar	0
166373	7	Sololá	712	San Antonio Palopó	9	San Antonio Palopo	4	Abril	2023-04-20T00:00:00	2024-11-08T06:00:00	2	Temperatura media	17.4
166374	7	Sololá	712	San Antonio Palopó	9	San Antonio Palopo	4	Abril	2023-04-20T00:00:00	2024-11-08T06:00:00	4	Temperatura máxima	17.9
166375	7	Sololá	712	San Antonio Palopó	9	San Antonio Palopo	4	Abril	2023-04-20T00:00:00	2024-11-08T06:00:00	3	Temperatura mínima	17.4
166376	7	Sololá	712	San Antonio Palopó	9	San Antonio Palopo	4	Abril	2023-04-20T00:00:00	2024-11-08T06:00:00	5	Humedad	73
166377	7	Sololá	712	San Antonio Palopó	9	San Antonio Palopo	4	Abril	2023-04-20T00:00:00	2024-11-08T06:00:00	6	Velocidad del viento	9.7
166378	7	Sololá	712	San Antonio Palopó	9	San Antonio Palopo	4	Abril	2023-04-20T00:00:00	2024-11-08T06:00:00	7	Dirección del viento	9.66
166379	7	Sololá	712	San Antonio Palopó	9	San Antonio Palopo	4	Abril	2023-04-20T00:00:00	2024-11-08T06:00:00	1	Precipitación	0
166380	7	Sololá	712	San Antonio Palopó	9	San Antonio Palopo	4	Abril	2023-04-20T00:00:00	2024-11-08T06:00:00	8	Radiación solar	0
166381	7	Sololá	712	San Antonio Palopó	9	San Antonio Palopo	4	Abril	2023-04-20T00:00:00	2024-11-08T07:00:00	2	Temperatura media	17.9
166382	7	Sololá	712	San Antonio Palopó	9	San Antonio Palopo	4	Abril	2023-04-20T00:00:00	2024-11-08T07:00:00	4	Temperatura máxima	17.9
166383	7	Sololá	712	San Antonio Palopó	9	San Antonio Palopo	4	Abril	2023-04-20T00:00:00	2024-11-08T07:00:00	3	Temperatura mínima	17.4
166384	7	Sololá	712	San Antonio Palopó	9	San Antonio Palopo	4	Abril	2023-04-20T00:00:00	2024-11-08T07:00:00	5	Humedad	71
166385	7	Sololá	712	San Antonio Palopó	9	San Antonio Palopo	4	Abril	2023-04-20T00:00:00	2024-11-08T07:00:00	6	Velocidad del viento	9.7
166386	7	Sololá	712	San Antonio Palopó	9	San Antonio Palopo	4	Abril	2023-04-20T00:00:00	2024-11-08T07:00:00	7	Dirección del viento	9.66
166387	7	Sololá	712	San Antonio Palopó	9	San Antonio Palopo	4	Abril	2023-04-20T00:00:00	2024-11-08T07:00:00	1	Precipitación	0
166388	7	Sololá	712	San Antonio Palopó	9	San Antonio Palopo	4	Abril	2023-04-20T00:00:00	2024-11-08T07:00:00	8	Radiación solar	48
166389	7	Sololá	712	San Antonio Palopó	9	San Antonio Palopo	4	Abril	2023-04-20T00:00:00	2024-11-08T08:00:00	2	Temperatura media	19.1
166390	7	Sololá	712	San Antonio Palopó	9	San Antonio Palopo	4	Abril	2023-04-20T00:00:00	2024-11-08T08:00:00	4	Temperatura máxima	19.1
166391	7	Sololá	712	San Antonio Palopó	9	San Antonio Palopo	4	Abril	2023-04-20T00:00:00	2024-11-08T08:00:00	3	Temperatura mínima	17.9
166392	7	Sololá	712	San Antonio Palopó	9	San Antonio Palopo	4	Abril	2023-04-20T00:00:00	2024-11-08T08:00:00	5	Humedad	68
166393	7	Sololá	712	San Antonio Palopó	9	San Antonio Palopo	4	Abril	2023-04-20T00:00:00	2024-11-08T08:00:00	6	Velocidad del viento	3.2
166394	7	Sololá	712	San Antonio Palopó	9	San Antonio Palopo	4	Abril	2023-04-20T00:00:00	2024-11-08T08:00:00	7	Dirección del viento	3.22
166395	7	Sololá	712	San Antonio Palopó	9	San Antonio Palopo	4	Abril	2023-04-20T00:00:00	2024-11-08T08:00:00	1	Precipitación	0
166396	7	Sololá	712	San Antonio Palopó	9	San Antonio Palopo	4	Abril	2023-04-20T00:00:00	2024-11-08T08:00:00	8	Radiación solar	165
166397	7	Sololá	712	San Antonio Palopó	9	San Antonio Palopo	4	Abril	2023-04-20T00:00:00	2024-11-08T09:00:00	2	Temperatura media	20.4
166398	7	Sololá	712	San Antonio Palopó	9	San Antonio Palopo	4	Abril	2023-04-20T00:00:00	2024-11-08T09:00:00	4	Temperatura máxima	20.4
166399	7	Sololá	712	San Antonio Palopó	9	San Antonio Palopo	4	Abril	2023-04-20T00:00:00	2024-11-08T09:00:00	3	Temperatura mínima	19.1
166400	7	Sololá	712	San Antonio Palopó	9	San Antonio Palopo	4	Abril	2023-04-20T00:00:00	2024-11-08T09:00:00	5	Humedad	65
166401	7	Sololá	712	San Antonio Palopó	9	San Antonio Palopo	4	Abril	2023-04-20T00:00:00	2024-11-08T09:00:00	6	Velocidad del viento	1.6
166402	7	Sololá	712	San Antonio Palopó	9	San Antonio Palopo	4	Abril	2023-04-20T00:00:00	2024-11-08T09:00:00	7	Dirección del viento	1.61
166403	7	Sololá	712	San Antonio Palopó	9	San Antonio Palopo	4	Abril	2023-04-20T00:00:00	2024-11-08T09:00:00	1	Precipitación	0
166404	7	Sololá	712	San Antonio Palopó	9	San Antonio Palopo	4	Abril	2023-04-20T00:00:00	2024-11-08T09:00:00	8	Radiación solar	329
166405	7	Sololá	712	San Antonio Palopó	9	San Antonio Palopo	4	Abril	2023-04-20T00:00:00	2024-11-08T10:00:00	2	Temperatura media	20.7
166406	7	Sololá	712	San Antonio Palopó	9	San Antonio Palopo	4	Abril	2023-04-20T00:00:00	2024-11-08T10:00:00	4	Temperatura máxima	21
166407	7	Sololá	712	San Antonio Palopó	9	San Antonio Palopo	4	Abril	2023-04-20T00:00:00	2024-11-08T10:00:00	3	Temperatura mínima	20.4
166408	7	Sololá	712	San Antonio Palopó	9	San Antonio Palopo	4	Abril	2023-04-20T00:00:00	2024-11-08T10:00:00	5	Humedad	66
166409	7	Sololá	712	San Antonio Palopó	9	San Antonio Palopo	4	Abril	2023-04-20T00:00:00	2024-11-08T10:00:00	6	Velocidad del viento	1.6
166410	7	Sololá	712	San Antonio Palopó	9	San Antonio Palopo	4	Abril	2023-04-20T00:00:00	2024-11-08T10:00:00	7	Dirección del viento	1.61
166411	7	Sololá	712	San Antonio Palopó	9	San Antonio Palopo	4	Abril	2023-04-20T00:00:00	2024-11-08T10:00:00	1	Precipitación	0
166412	7	Sololá	712	San Antonio Palopó	9	San Antonio Palopo	4	Abril	2023-04-20T00:00:00	2024-11-08T10:00:00	8	Radiación solar	475
166413	7	Sololá	712	San Antonio Palopó	9	San Antonio Palopo	4	Abril	2023-04-20T00:00:00	2024-11-08T11:00:00	2	Temperatura media	21.8
166414	7	Sololá	712	San Antonio Palopó	9	San Antonio Palopo	4	Abril	2023-04-20T00:00:00	2024-11-08T11:00:00	4	Temperatura máxima	21.8
166415	7	Sololá	712	San Antonio Palopó	9	San Antonio Palopo	4	Abril	2023-04-20T00:00:00	2024-11-08T11:00:00	3	Temperatura mínima	20.6
166416	7	Sololá	712	San Antonio Palopó	9	San Antonio Palopo	4	Abril	2023-04-20T00:00:00	2024-11-08T11:00:00	5	Humedad	64
166417	7	Sololá	712	San Antonio Palopó	9	San Antonio Palopo	4	Abril	2023-04-20T00:00:00	2024-11-08T11:00:00	6	Velocidad del viento	1.6
166418	7	Sololá	712	San Antonio Palopó	9	San Antonio Palopo	4	Abril	2023-04-20T00:00:00	2024-11-08T11:00:00	7	Dirección del viento	1.61
166419	7	Sololá	712	San Antonio Palopó	9	San Antonio Palopo	4	Abril	2023-04-20T00:00:00	2024-11-08T11:00:00	1	Precipitación	0
166420	7	Sololá	712	San Antonio Palopó	9	San Antonio Palopo	4	Abril	2023-04-20T00:00:00	2024-11-08T11:00:00	8	Radiación solar	530
166421	7	Sololá	712	San Antonio Palopó	9	San Antonio Palopo	4	Abril	2023-04-20T00:00:00	2024-11-08T12:00:00	2	Temperatura media	22.2
166422	7	Sololá	712	San Antonio Palopó	9	San Antonio Palopo	4	Abril	2023-04-20T00:00:00	2024-11-08T12:00:00	4	Temperatura máxima	22.3
166423	7	Sololá	712	San Antonio Palopó	9	San Antonio Palopo	4	Abril	2023-04-20T00:00:00	2024-11-08T12:00:00	3	Temperatura mínima	21.8
166424	7	Sololá	712	San Antonio Palopó	9	San Antonio Palopo	4	Abril	2023-04-20T00:00:00	2024-11-08T12:00:00	5	Humedad	69
166425	7	Sololá	712	San Antonio Palopó	9	San Antonio Palopo	4	Abril	2023-04-20T00:00:00	2024-11-08T12:00:00	6	Velocidad del viento	3.2
166426	7	Sololá	712	San Antonio Palopó	9	San Antonio Palopo	4	Abril	2023-04-20T00:00:00	2024-11-08T12:00:00	7	Dirección del viento	3.22
166427	7	Sololá	712	San Antonio Palopó	9	San Antonio Palopo	4	Abril	2023-04-20T00:00:00	2024-11-08T12:00:00	1	Precipitación	0
166428	7	Sololá	712	San Antonio Palopó	9	San Antonio Palopo	4	Abril	2023-04-20T00:00:00	2024-11-08T12:00:00	8	Radiación solar	519
166429	7	Sololá	712	San Antonio Palopó	9	San Antonio Palopo	4	Abril	2023-04-20T00:00:00	2024-11-08T13:00:00	2	Temperatura media	22.6
166430	7	Sololá	712	San Antonio Palopó	9	San Antonio Palopo	4	Abril	2023-04-20T00:00:00	2024-11-08T13:00:00	4	Temperatura máxima	22.9
166431	7	Sololá	712	San Antonio Palopó	9	San Antonio Palopo	4	Abril	2023-04-20T00:00:00	2024-11-08T13:00:00	3	Temperatura mínima	22
166432	7	Sololá	712	San Antonio Palopó	9	San Antonio Palopo	4	Abril	2023-04-20T00:00:00	2024-11-08T13:00:00	5	Humedad	70
166433	7	Sololá	712	San Antonio Palopó	9	San Antonio Palopo	4	Abril	2023-04-20T00:00:00	2024-11-08T13:00:00	6	Velocidad del viento	3.2
166434	7	Sololá	712	San Antonio Palopó	9	San Antonio Palopo	4	Abril	2023-04-20T00:00:00	2024-11-08T13:00:00	7	Dirección del viento	3.22
166435	7	Sololá	712	San Antonio Palopó	9	San Antonio Palopo	4	Abril	2023-04-20T00:00:00	2024-11-08T13:00:00	1	Precipitación	0
166436	7	Sololá	712	San Antonio Palopó	9	San Antonio Palopo	4	Abril	2023-04-20T00:00:00	2024-11-08T13:00:00	8	Radiación solar	589
166437	7	Sololá	712	San Antonio Palopó	9	San Antonio Palopo	4	Abril	2023-04-20T00:00:00	2024-11-08T14:00:00	2	Temperatura media	23.7
166438	7	Sololá	712	San Antonio Palopó	9	San Antonio Palopo	4	Abril	2023-04-20T00:00:00	2024-11-08T14:00:00	4	Temperatura máxima	23.8
166439	7	Sololá	712	San Antonio Palopó	9	San Antonio Palopo	4	Abril	2023-04-20T00:00:00	2024-11-08T14:00:00	3	Temperatura mínima	22.6
166440	7	Sololá	712	San Antonio Palopó	9	San Antonio Palopo	4	Abril	2023-04-20T00:00:00	2024-11-08T14:00:00	5	Humedad	72
166441	7	Sololá	712	San Antonio Palopó	9	San Antonio Palopo	4	Abril	2023-04-20T00:00:00	2024-11-08T14:00:00	6	Velocidad del viento	4.8
166442	7	Sololá	712	San Antonio Palopó	9	San Antonio Palopo	4	Abril	2023-04-20T00:00:00	2024-11-08T14:00:00	7	Dirección del viento	4.83
166443	7	Sololá	712	San Antonio Palopó	9	San Antonio Palopo	4	Abril	2023-04-20T00:00:00	2024-11-08T14:00:00	1	Precipitación	0
166444	7	Sololá	712	San Antonio Palopó	9	San Antonio Palopo	4	Abril	2023-04-20T00:00:00	2024-11-08T14:00:00	8	Radiación solar	648
166445	7	Sololá	712	San Antonio Palopó	9	San Antonio Palopo	4	Abril	2023-04-20T00:00:00	2024-11-08T15:00:00	2	Temperatura media	22.4
166446	7	Sololá	712	San Antonio Palopó	9	San Antonio Palopo	4	Abril	2023-04-20T00:00:00	2024-11-08T15:00:00	4	Temperatura máxima	23.8
166447	7	Sololá	712	San Antonio Palopó	9	San Antonio Palopo	4	Abril	2023-04-20T00:00:00	2024-11-08T15:00:00	3	Temperatura mínima	22.4
166448	7	Sololá	712	San Antonio Palopó	9	San Antonio Palopo	4	Abril	2023-04-20T00:00:00	2024-11-08T15:00:00	5	Humedad	74
166449	7	Sololá	712	San Antonio Palopó	9	San Antonio Palopo	4	Abril	2023-04-20T00:00:00	2024-11-08T15:00:00	6	Velocidad del viento	11.3
166450	7	Sololá	712	San Antonio Palopó	9	San Antonio Palopo	4	Abril	2023-04-20T00:00:00	2024-11-08T15:00:00	7	Dirección del viento	11.27
166451	7	Sololá	712	San Antonio Palopó	9	San Antonio Palopo	4	Abril	2023-04-20T00:00:00	2024-11-08T15:00:00	1	Precipitación	0
166452	7	Sololá	712	San Antonio Palopó	9	San Antonio Palopo	4	Abril	2023-04-20T00:00:00	2024-11-08T15:00:00	8	Radiación solar	643
166453	7	Sololá	712	San Antonio Palopó	9	San Antonio Palopo	4	Abril	2023-04-20T00:00:00	2024-11-08T16:00:00	2	Temperatura media	22.9
166454	7	Sololá	712	San Antonio Palopó	9	San Antonio Palopo	4	Abril	2023-04-20T00:00:00	2024-11-08T16:00:00	4	Temperatura máxima	23.1
166455	7	Sololá	712	San Antonio Palopó	9	San Antonio Palopo	4	Abril	2023-04-20T00:00:00	2024-11-08T16:00:00	3	Temperatura mínima	22.2
166456	7	Sololá	712	San Antonio Palopó	9	San Antonio Palopo	4	Abril	2023-04-20T00:00:00	2024-11-08T16:00:00	5	Humedad	72
166457	7	Sololá	712	San Antonio Palopó	9	San Antonio Palopo	4	Abril	2023-04-20T00:00:00	2024-11-08T16:00:00	6	Velocidad del viento	9.7
166458	7	Sololá	712	San Antonio Palopó	9	San Antonio Palopo	4	Abril	2023-04-20T00:00:00	2024-11-08T16:00:00	7	Dirección del viento	9.66
166459	7	Sololá	712	San Antonio Palopó	9	San Antonio Palopo	4	Abril	2023-04-20T00:00:00	2024-11-08T16:00:00	1	Precipitación	0
166460	7	Sololá	712	San Antonio Palopó	9	San Antonio Palopo	4	Abril	2023-04-20T00:00:00	2024-11-08T16:00:00	8	Radiación solar	494
166461	7	Sololá	712	San Antonio Palopó	9	San Antonio Palopo	4	Abril	2023-04-20T00:00:00	2024-11-08T17:00:00	2	Temperatura media	22.2
166462	7	Sololá	712	San Antonio Palopó	9	San Antonio Palopo	4	Abril	2023-04-20T00:00:00	2024-11-08T17:00:00	4	Temperatura máxima	22.9
166463	7	Sololá	712	San Antonio Palopó	9	San Antonio Palopo	4	Abril	2023-04-20T00:00:00	2024-11-08T17:00:00	3	Temperatura mínima	21.8
166464	7	Sololá	712	San Antonio Palopó	9	San Antonio Palopo	4	Abril	2023-04-20T00:00:00	2024-11-08T17:00:00	5	Humedad	78
166465	7	Sololá	712	San Antonio Palopó	9	San Antonio Palopo	4	Abril	2023-04-20T00:00:00	2024-11-08T17:00:00	6	Velocidad del viento	8
166466	7	Sololá	712	San Antonio Palopó	9	San Antonio Palopo	4	Abril	2023-04-20T00:00:00	2024-11-08T17:00:00	7	Dirección del viento	8.05
166467	7	Sololá	712	San Antonio Palopó	9	San Antonio Palopo	4	Abril	2023-04-20T00:00:00	2024-11-08T17:00:00	1	Precipitación	0
166468	7	Sololá	712	San Antonio Palopó	9	San Antonio Palopo	4	Abril	2023-04-20T00:00:00	2024-11-08T17:00:00	8	Radiación solar	262
166469	7	Sololá	712	San Antonio Palopó	9	San Antonio Palopo	4	Abril	2023-04-20T00:00:00	2024-11-08T18:00:00	2	Temperatura media	21.3
166470	7	Sololá	712	San Antonio Palopó	9	San Antonio Palopo	4	Abril	2023-04-20T00:00:00	2024-11-08T18:00:00	4	Temperatura máxima	22.2
166471	7	Sololá	712	San Antonio Palopó	9	San Antonio Palopo	4	Abril	2023-04-20T00:00:00	2024-11-08T18:00:00	3	Temperatura mínima	21.3
166472	7	Sololá	712	San Antonio Palopó	9	San Antonio Palopo	4	Abril	2023-04-20T00:00:00	2024-11-08T18:00:00	5	Humedad	76
166473	7	Sololá	712	San Antonio Palopó	9	San Antonio Palopo	4	Abril	2023-04-20T00:00:00	2024-11-08T18:00:00	6	Velocidad del viento	4.8
166474	7	Sololá	712	San Antonio Palopó	9	San Antonio Palopo	4	Abril	2023-04-20T00:00:00	2024-11-08T18:00:00	7	Dirección del viento	4.83
166475	7	Sololá	712	San Antonio Palopó	9	San Antonio Palopo	4	Abril	2023-04-20T00:00:00	2024-11-08T18:00:00	1	Precipitación	0
166476	7	Sololá	712	San Antonio Palopó	9	San Antonio Palopo	4	Abril	2023-04-20T00:00:00	2024-11-08T18:00:00	8	Radiación solar	83
166477	7	Sololá	712	San Antonio Palopó	9	San Antonio Palopo	4	Abril	2023-04-20T00:00:00	2024-11-08T19:00:00	2	Temperatura media	20.3
166478	7	Sololá	712	San Antonio Palopó	9	San Antonio Palopo	4	Abril	2023-04-20T00:00:00	2024-11-08T19:00:00	4	Temperatura máxima	21.3
166479	7	Sololá	712	San Antonio Palopó	9	San Antonio Palopo	4	Abril	2023-04-20T00:00:00	2024-11-08T19:00:00	3	Temperatura mínima	20.3
166480	7	Sololá	712	San Antonio Palopó	9	San Antonio Palopo	4	Abril	2023-04-20T00:00:00	2024-11-08T19:00:00	5	Humedad	82
166481	7	Sololá	712	San Antonio Palopó	9	San Antonio Palopo	4	Abril	2023-04-20T00:00:00	2024-11-08T19:00:00	6	Velocidad del viento	4.8
166482	7	Sololá	712	San Antonio Palopó	9	San Antonio Palopo	4	Abril	2023-04-20T00:00:00	2024-11-08T19:00:00	7	Dirección del viento	4.83
166483	7	Sololá	712	San Antonio Palopó	9	San Antonio Palopo	4	Abril	2023-04-20T00:00:00	2024-11-08T19:00:00	1	Precipitación	0
166484	7	Sololá	712	San Antonio Palopó	9	San Antonio Palopo	4	Abril	2023-04-20T00:00:00	2024-11-08T19:00:00	8	Radiación solar	0
166485	7	Sololá	712	San Antonio Palopó	9	San Antonio Palopo	4	Abril	2023-04-20T00:00:00	2024-11-08T20:00:00	2	Temperatura media	20.1
166486	7	Sololá	712	San Antonio Palopó	9	San Antonio Palopo	4	Abril	2023-04-20T00:00:00	2024-11-08T20:00:00	4	Temperatura máxima	20.3
166487	7	Sololá	712	San Antonio Palopó	9	San Antonio Palopo	4	Abril	2023-04-20T00:00:00	2024-11-08T20:00:00	3	Temperatura mínima	20.1
166488	7	Sololá	712	San Antonio Palopó	9	San Antonio Palopo	4	Abril	2023-04-20T00:00:00	2024-11-08T20:00:00	5	Humedad	79
166489	7	Sololá	712	San Antonio Palopó	9	San Antonio Palopo	4	Abril	2023-04-20T00:00:00	2024-11-08T20:00:00	6	Velocidad del viento	1.6
166490	7	Sololá	712	San Antonio Palopó	9	San Antonio Palopo	4	Abril	2023-04-20T00:00:00	2024-11-08T20:00:00	7	Dirección del viento	1.61
166491	7	Sololá	712	San Antonio Palopó	9	San Antonio Palopo	4	Abril	2023-04-20T00:00:00	2024-11-08T20:00:00	1	Precipitación	0
166492	7	Sololá	712	San Antonio Palopó	9	San Antonio Palopo	4	Abril	2023-04-20T00:00:00	2024-11-08T20:00:00	8	Radiación solar	0
166493	7	Sololá	712	San Antonio Palopó	9	San Antonio Palopo	4	Abril	2023-04-20T00:00:00	2024-11-08T21:00:00	2	Temperatura media	19.8
166494	7	Sololá	712	San Antonio Palopó	9	San Antonio Palopo	4	Abril	2023-04-20T00:00:00	2024-11-08T21:00:00	4	Temperatura máxima	20.1
166495	7	Sololá	712	San Antonio Palopó	9	San Antonio Palopo	4	Abril	2023-04-20T00:00:00	2024-11-08T21:00:00	3	Temperatura mínima	19.7
166496	7	Sololá	712	San Antonio Palopó	9	San Antonio Palopo	4	Abril	2023-04-20T00:00:00	2024-11-08T21:00:00	5	Humedad	79
166497	7	Sololá	712	San Antonio Palopó	9	San Antonio Palopo	4	Abril	2023-04-20T00:00:00	2024-11-08T21:00:00	6	Velocidad del viento	1.6
166498	7	Sololá	712	San Antonio Palopó	9	San Antonio Palopo	4	Abril	2023-04-20T00:00:00	2024-11-08T21:00:00	7	Dirección del viento	1.61
166499	7	Sololá	712	San Antonio Palopó	9	San Antonio Palopo	4	Abril	2023-04-20T00:00:00	2024-11-08T21:00:00	1	Precipitación	0
166500	7	Sololá	712	San Antonio Palopó	9	San Antonio Palopo	4	Abril	2023-04-20T00:00:00	2024-11-08T21:00:00	8	Radiación solar	0
166501	7	Sololá	712	San Antonio Palopó	9	San Antonio Palopo	4	Abril	2023-04-20T00:00:00	2024-11-08T22:00:00	2	Temperatura media	18.9
166502	7	Sololá	712	San Antonio Palopó	9	San Antonio Palopo	4	Abril	2023-04-20T00:00:00	2024-11-08T22:00:00	4	Temperatura máxima	19.8
166503	7	Sololá	712	San Antonio Palopó	9	San Antonio Palopo	4	Abril	2023-04-20T00:00:00	2024-11-08T22:00:00	3	Temperatura mínima	18.9
166504	7	Sololá	712	San Antonio Palopó	9	San Antonio Palopo	4	Abril	2023-04-20T00:00:00	2024-11-08T22:00:00	5	Humedad	83
166505	7	Sololá	712	San Antonio Palopó	9	San Antonio Palopo	4	Abril	2023-04-20T00:00:00	2024-11-08T22:00:00	6	Velocidad del viento	1.6
166506	7	Sololá	712	San Antonio Palopó	9	San Antonio Palopo	4	Abril	2023-04-20T00:00:00	2024-11-08T22:00:00	7	Dirección del viento	1.61
166507	7	Sololá	712	San Antonio Palopó	9	San Antonio Palopo	4	Abril	2023-04-20T00:00:00	2024-11-08T22:00:00	1	Precipitación	0
166508	7	Sololá	712	San Antonio Palopó	9	San Antonio Palopo	4	Abril	2023-04-20T00:00:00	2024-11-08T22:00:00	8	Radiación solar	0
166509	7	Sololá	712	San Antonio Palopó	9	San Antonio Palopo	4	Abril	2023-04-20T00:00:00	2024-11-08T23:00:00	2	Temperatura media	18.7
166510	7	Sololá	712	San Antonio Palopó	9	San Antonio Palopo	4	Abril	2023-04-20T00:00:00	2024-11-08T23:00:00	4	Temperatura máxima	18.9
166511	7	Sololá	712	San Antonio Palopó	9	San Antonio Palopo	4	Abril	2023-04-20T00:00:00	2024-11-08T23:00:00	3	Temperatura mínima	18.6
166512	7	Sololá	712	San Antonio Palopó	9	San Antonio Palopo	4	Abril	2023-04-20T00:00:00	2024-11-08T23:00:00	5	Humedad	83
166513	7	Sololá	712	San Antonio Palopó	9	San Antonio Palopo	4	Abril	2023-04-20T00:00:00	2024-11-08T23:00:00	6	Velocidad del viento	3.2
166514	7	Sololá	712	San Antonio Palopó	9	San Antonio Palopo	4	Abril	2023-04-20T00:00:00	2024-11-08T23:00:00	7	Dirección del viento	3.22
166515	7	Sololá	712	San Antonio Palopó	9	San Antonio Palopo	4	Abril	2023-04-20T00:00:00	2024-11-08T23:00:00	1	Precipitación	0
166516	7	Sololá	712	San Antonio Palopó	9	San Antonio Palopo	4	Abril	2023-04-20T00:00:00	2024-11-08T23:00:00	8	Radiación solar	0
166517	7	Sololá	712	San Antonio Palopó	9	San Antonio Palopo	4	Abril	2023-04-21T00:00:00	2024-11-08T00:00:00	2	Temperatura media	19.6
166518	7	Sololá	712	San Antonio Palopó	9	San Antonio Palopo	4	Abril	2023-04-21T00:00:00	2024-11-08T00:00:00	4	Temperatura máxima	19.6
166519	7	Sololá	712	San Antonio Palopó	9	San Antonio Palopo	4	Abril	2023-04-21T00:00:00	2024-11-08T00:00:00	3	Temperatura mínima	18.2
166520	7	Sololá	712	San Antonio Palopó	9	San Antonio Palopo	4	Abril	2023-04-21T00:00:00	2024-11-08T00:00:00	5	Humedad	76
166521	7	Sololá	712	San Antonio Palopó	9	San Antonio Palopo	4	Abril	2023-04-21T00:00:00	2024-11-08T00:00:00	6	Velocidad del viento	4.8
166522	7	Sololá	712	San Antonio Palopó	9	San Antonio Palopo	4	Abril	2023-04-21T00:00:00	2024-11-08T00:00:00	7	Dirección del viento	4.83
166523	7	Sololá	712	San Antonio Palopó	9	San Antonio Palopo	4	Abril	2023-04-21T00:00:00	2024-11-08T00:00:00	1	Precipitación	0
166524	7	Sololá	712	San Antonio Palopó	9	San Antonio Palopo	4	Abril	2023-04-21T00:00:00	2024-11-08T00:00:00	8	Radiación solar	0
166525	7	Sololá	712	San Antonio Palopó	9	San Antonio Palopo	4	Abril	2023-04-21T00:00:00	2024-11-08T01:00:00	2	Temperatura media	17.8
166526	7	Sololá	712	San Antonio Palopó	9	San Antonio Palopo	4	Abril	2023-04-21T00:00:00	2024-11-08T01:00:00	4	Temperatura máxima	19.6
166527	7	Sololá	712	San Antonio Palopó	9	San Antonio Palopo	4	Abril	2023-04-21T00:00:00	2024-11-08T01:00:00	3	Temperatura mínima	17.8
166528	7	Sololá	712	San Antonio Palopó	9	San Antonio Palopo	4	Abril	2023-04-21T00:00:00	2024-11-08T01:00:00	5	Humedad	85
166529	7	Sololá	712	San Antonio Palopó	9	San Antonio Palopo	4	Abril	2023-04-21T00:00:00	2024-11-08T01:00:00	6	Velocidad del viento	4.8
166530	7	Sololá	712	San Antonio Palopó	9	San Antonio Palopo	4	Abril	2023-04-21T00:00:00	2024-11-08T01:00:00	7	Dirección del viento	4.83
166531	7	Sololá	712	San Antonio Palopó	9	San Antonio Palopo	4	Abril	2023-04-21T00:00:00	2024-11-08T01:00:00	1	Precipitación	0
166532	7	Sololá	712	San Antonio Palopó	9	San Antonio Palopo	4	Abril	2023-04-21T00:00:00	2024-11-08T01:00:00	8	Radiación solar	0
166533	7	Sololá	712	San Antonio Palopó	9	San Antonio Palopo	4	Abril	2023-04-21T00:00:00	2024-11-08T02:00:00	2	Temperatura media	17.8
166534	7	Sololá	712	San Antonio Palopó	9	San Antonio Palopo	4	Abril	2023-04-21T00:00:00	2024-11-08T02:00:00	4	Temperatura máxima	18.2
166535	7	Sololá	712	San Antonio Palopó	9	San Antonio Palopo	4	Abril	2023-04-21T00:00:00	2024-11-08T02:00:00	3	Temperatura mínima	17.8
166536	7	Sololá	712	San Antonio Palopó	9	San Antonio Palopo	4	Abril	2023-04-21T00:00:00	2024-11-08T02:00:00	5	Humedad	81
166537	7	Sololá	712	San Antonio Palopó	9	San Antonio Palopo	4	Abril	2023-04-21T00:00:00	2024-11-08T02:00:00	6	Velocidad del viento	3.2
166538	7	Sololá	712	San Antonio Palopó	9	San Antonio Palopo	4	Abril	2023-04-21T00:00:00	2024-11-08T02:00:00	7	Dirección del viento	3.22
166539	7	Sololá	712	San Antonio Palopó	9	San Antonio Palopo	4	Abril	2023-04-21T00:00:00	2024-11-08T02:00:00	1	Precipitación	0
166540	7	Sololá	712	San Antonio Palopó	9	San Antonio Palopo	4	Abril	2023-04-21T00:00:00	2024-11-08T02:00:00	8	Radiación solar	0
166541	7	Sololá	712	San Antonio Palopó	9	San Antonio Palopo	4	Abril	2023-04-21T00:00:00	2024-11-08T03:00:00	2	Temperatura media	17.8
166542	7	Sololá	712	San Antonio Palopó	9	San Antonio Palopo	4	Abril	2023-04-21T00:00:00	2024-11-08T03:00:00	4	Temperatura máxima	18.2
166543	7	Sololá	712	San Antonio Palopó	9	San Antonio Palopo	4	Abril	2023-04-21T00:00:00	2024-11-08T03:00:00	3	Temperatura mínima	17.7
166544	7	Sololá	712	San Antonio Palopó	9	San Antonio Palopo	4	Abril	2023-04-21T00:00:00	2024-11-08T03:00:00	5	Humedad	80
166545	7	Sololá	712	San Antonio Palopó	9	San Antonio Palopo	4	Abril	2023-04-21T00:00:00	2024-11-08T03:00:00	6	Velocidad del viento	3.2
166546	7	Sololá	712	San Antonio Palopó	9	San Antonio Palopo	4	Abril	2023-04-21T00:00:00	2024-11-08T03:00:00	7	Dirección del viento	3.22
166547	7	Sololá	712	San Antonio Palopó	9	San Antonio Palopo	4	Abril	2023-04-21T00:00:00	2024-11-08T03:00:00	1	Precipitación	0
166548	7	Sololá	712	San Antonio Palopó	9	San Antonio Palopo	4	Abril	2023-04-21T00:00:00	2024-11-08T03:00:00	8	Radiación solar	0
166549	7	Sololá	712	San Antonio Palopó	9	San Antonio Palopo	4	Abril	2023-04-21T00:00:00	2024-11-08T04:00:00	2	Temperatura media	17.6
166550	7	Sololá	712	San Antonio Palopó	9	San Antonio Palopo	4	Abril	2023-04-21T00:00:00	2024-11-08T04:00:00	4	Temperatura máxima	18.1
166551	7	Sololá	712	San Antonio Palopó	9	San Antonio Palopo	4	Abril	2023-04-21T00:00:00	2024-11-08T04:00:00	3	Temperatura mínima	17.6
166552	7	Sololá	712	San Antonio Palopó	9	San Antonio Palopo	4	Abril	2023-04-21T00:00:00	2024-11-08T04:00:00	5	Humedad	78
166553	7	Sololá	712	San Antonio Palopó	9	San Antonio Palopo	4	Abril	2023-04-21T00:00:00	2024-11-08T04:00:00	6	Velocidad del viento	3.2
166554	7	Sololá	712	San Antonio Palopó	9	San Antonio Palopo	4	Abril	2023-04-21T00:00:00	2024-11-08T04:00:00	7	Dirección del viento	3.22
166555	7	Sololá	712	San Antonio Palopó	9	San Antonio Palopo	4	Abril	2023-04-21T00:00:00	2024-11-08T04:00:00	1	Precipitación	0
166556	7	Sololá	712	San Antonio Palopó	9	San Antonio Palopo	4	Abril	2023-04-21T00:00:00	2024-11-08T04:00:00	8	Radiación solar	0
166557	7	Sololá	712	San Antonio Palopó	9	San Antonio Palopo	4	Abril	2023-04-21T00:00:00	2024-11-08T05:00:00	2	Temperatura media	17.1
166558	7	Sololá	712	San Antonio Palopó	9	San Antonio Palopo	4	Abril	2023-04-21T00:00:00	2024-11-08T05:00:00	4	Temperatura máxima	17.7
166559	7	Sololá	712	San Antonio Palopó	9	San Antonio Palopo	4	Abril	2023-04-21T00:00:00	2024-11-08T05:00:00	3	Temperatura mínima	16.7
166560	7	Sololá	712	San Antonio Palopó	9	San Antonio Palopo	4	Abril	2023-04-21T00:00:00	2024-11-08T05:00:00	5	Humedad	83
166561	7	Sololá	712	San Antonio Palopó	9	San Antonio Palopo	4	Abril	2023-04-21T00:00:00	2024-11-08T05:00:00	6	Velocidad del viento	4.8
166562	7	Sololá	712	San Antonio Palopó	9	San Antonio Palopo	4	Abril	2023-04-21T00:00:00	2024-11-08T05:00:00	7	Dirección del viento	4.83
166563	7	Sololá	712	San Antonio Palopó	9	San Antonio Palopo	4	Abril	2023-04-21T00:00:00	2024-11-08T05:00:00	1	Precipitación	0
166564	7	Sololá	712	San Antonio Palopó	9	San Antonio Palopo	4	Abril	2023-04-21T00:00:00	2024-11-08T05:00:00	8	Radiación solar	0
166565	7	Sololá	712	San Antonio Palopó	9	San Antonio Palopo	4	Abril	2023-04-21T00:00:00	2024-11-08T06:00:00	2	Temperatura media	16.8
166566	7	Sololá	712	San Antonio Palopó	9	San Antonio Palopo	4	Abril	2023-04-21T00:00:00	2024-11-08T06:00:00	4	Temperatura máxima	17.5
166567	7	Sololá	712	San Antonio Palopó	9	San Antonio Palopo	4	Abril	2023-04-21T00:00:00	2024-11-08T06:00:00	3	Temperatura mínima	16.5
166568	7	Sololá	712	San Antonio Palopó	9	San Antonio Palopo	4	Abril	2023-04-21T00:00:00	2024-11-08T06:00:00	5	Humedad	80
166569	7	Sololá	712	San Antonio Palopó	9	San Antonio Palopo	4	Abril	2023-04-21T00:00:00	2024-11-08T06:00:00	6	Velocidad del viento	3.2
166570	7	Sololá	712	San Antonio Palopó	9	San Antonio Palopo	4	Abril	2023-04-21T00:00:00	2024-11-08T06:00:00	7	Dirección del viento	3.22
166571	7	Sololá	712	San Antonio Palopó	9	San Antonio Palopo	4	Abril	2023-04-21T00:00:00	2024-11-08T06:00:00	1	Precipitación	0
166572	7	Sololá	712	San Antonio Palopó	9	San Antonio Palopo	4	Abril	2023-04-21T00:00:00	2024-11-08T06:00:00	8	Radiación solar	1
166573	7	Sololá	712	San Antonio Palopó	9	San Antonio Palopo	4	Abril	2023-04-21T00:00:00	2024-11-08T07:00:00	2	Temperatura media	16.8
166574	7	Sololá	712	San Antonio Palopó	9	San Antonio Palopo	4	Abril	2023-04-21T00:00:00	2024-11-08T07:00:00	4	Temperatura máxima	16.9
166575	7	Sololá	712	San Antonio Palopó	9	San Antonio Palopo	4	Abril	2023-04-21T00:00:00	2024-11-08T07:00:00	3	Temperatura mínima	16.6
166576	7	Sololá	712	San Antonio Palopó	9	San Antonio Palopo	4	Abril	2023-04-21T00:00:00	2024-11-08T07:00:00	5	Humedad	84
166577	7	Sololá	712	San Antonio Palopó	9	San Antonio Palopo	4	Abril	2023-04-21T00:00:00	2024-11-08T07:00:00	6	Velocidad del viento	3.2
166578	7	Sololá	712	San Antonio Palopó	9	San Antonio Palopo	4	Abril	2023-04-21T00:00:00	2024-11-08T07:00:00	7	Dirección del viento	3.22
166579	7	Sololá	712	San Antonio Palopó	9	San Antonio Palopo	4	Abril	2023-04-21T00:00:00	2024-11-08T07:00:00	1	Precipitación	0
166580	7	Sololá	712	San Antonio Palopó	9	San Antonio Palopo	4	Abril	2023-04-21T00:00:00	2024-11-08T07:00:00	8	Radiación solar	31
166581	7	Sololá	712	San Antonio Palopó	9	San Antonio Palopo	4	Abril	2023-04-21T00:00:00	2024-11-08T08:00:00	2	Temperatura media	19.2
166582	7	Sololá	712	San Antonio Palopó	9	San Antonio Palopo	4	Abril	2023-04-21T00:00:00	2024-11-08T08:00:00	4	Temperatura máxima	19.2
166583	7	Sololá	712	San Antonio Palopó	9	San Antonio Palopo	4	Abril	2023-04-21T00:00:00	2024-11-08T08:00:00	3	Temperatura mínima	16.8
166584	7	Sololá	712	San Antonio Palopó	9	San Antonio Palopo	4	Abril	2023-04-21T00:00:00	2024-11-08T08:00:00	5	Humedad	78
166585	7	Sololá	712	San Antonio Palopó	9	San Antonio Palopo	4	Abril	2023-04-21T00:00:00	2024-11-08T08:00:00	6	Velocidad del viento	1.6
166586	7	Sololá	712	San Antonio Palopó	9	San Antonio Palopo	4	Abril	2023-04-21T00:00:00	2024-11-08T08:00:00	7	Dirección del viento	1.61
166587	7	Sololá	712	San Antonio Palopó	9	San Antonio Palopo	4	Abril	2023-04-21T00:00:00	2024-11-08T08:00:00	1	Precipitación	0
166588	7	Sololá	712	San Antonio Palopó	9	San Antonio Palopo	4	Abril	2023-04-21T00:00:00	2024-11-08T08:00:00	8	Radiación solar	154
166589	7	Sololá	712	San Antonio Palopó	9	San Antonio Palopo	4	Abril	2023-04-21T00:00:00	2024-11-08T09:00:00	2	Temperatura media	19.9
166590	7	Sololá	712	San Antonio Palopó	9	San Antonio Palopo	4	Abril	2023-04-21T00:00:00	2024-11-08T09:00:00	4	Temperatura máxima	19.9
166591	7	Sololá	712	San Antonio Palopó	9	San Antonio Palopo	4	Abril	2023-04-21T00:00:00	2024-11-08T09:00:00	3	Temperatura mínima	19.2
166592	7	Sololá	712	San Antonio Palopó	9	San Antonio Palopo	4	Abril	2023-04-21T00:00:00	2024-11-08T09:00:00	5	Humedad	74
166593	7	Sololá	712	San Antonio Palopó	9	San Antonio Palopo	4	Abril	2023-04-21T00:00:00	2024-11-08T09:00:00	6	Velocidad del viento	1.6
166594	7	Sololá	712	San Antonio Palopó	9	San Antonio Palopo	4	Abril	2023-04-21T00:00:00	2024-11-08T09:00:00	7	Dirección del viento	1.61
166595	7	Sololá	712	San Antonio Palopó	9	San Antonio Palopo	4	Abril	2023-04-21T00:00:00	2024-11-08T09:00:00	1	Precipitación	0
166596	7	Sololá	712	San Antonio Palopó	9	San Antonio Palopo	4	Abril	2023-04-21T00:00:00	2024-11-08T09:00:00	8	Radiación solar	416
166597	7	Sololá	712	San Antonio Palopó	9	San Antonio Palopo	4	Abril	2023-04-21T00:00:00	2024-11-08T10:00:00	2	Temperatura media	21.2
166598	7	Sololá	712	San Antonio Palopó	9	San Antonio Palopo	4	Abril	2023-04-21T00:00:00	2024-11-08T10:00:00	4	Temperatura máxima	21.4
166599	7	Sololá	712	San Antonio Palopó	9	San Antonio Palopo	4	Abril	2023-04-21T00:00:00	2024-11-08T10:00:00	3	Temperatura mínima	19.9
166600	7	Sololá	712	San Antonio Palopó	9	San Antonio Palopo	4	Abril	2023-04-21T00:00:00	2024-11-08T10:00:00	5	Humedad	73
166601	7	Sololá	712	San Antonio Palopó	9	San Antonio Palopo	4	Abril	2023-04-21T00:00:00	2024-11-08T10:00:00	6	Velocidad del viento	3.2
166602	7	Sololá	712	San Antonio Palopó	9	San Antonio Palopo	4	Abril	2023-04-21T00:00:00	2024-11-08T10:00:00	7	Dirección del viento	3.22
166603	7	Sololá	712	San Antonio Palopó	9	San Antonio Palopo	4	Abril	2023-04-21T00:00:00	2024-11-08T10:00:00	1	Precipitación	0
166604	7	Sololá	712	San Antonio Palopó	9	San Antonio Palopo	4	Abril	2023-04-21T00:00:00	2024-11-08T10:00:00	8	Radiación solar	674
166605	7	Sololá	712	San Antonio Palopó	9	San Antonio Palopo	4	Abril	2023-04-21T00:00:00	2024-11-08T11:00:00	2	Temperatura media	23.3
166606	7	Sololá	712	San Antonio Palopó	9	San Antonio Palopo	4	Abril	2023-04-21T00:00:00	2024-11-08T11:00:00	4	Temperatura máxima	23.3
166607	7	Sololá	712	San Antonio Palopó	9	San Antonio Palopo	4	Abril	2023-04-21T00:00:00	2024-11-08T11:00:00	3	Temperatura mínima	21.2
166608	7	Sololá	712	San Antonio Palopó	9	San Antonio Palopo	4	Abril	2023-04-21T00:00:00	2024-11-08T11:00:00	5	Humedad	67
166609	7	Sololá	712	San Antonio Palopó	9	San Antonio Palopo	4	Abril	2023-04-21T00:00:00	2024-11-08T11:00:00	6	Velocidad del viento	3.2
166610	7	Sololá	712	San Antonio Palopó	9	San Antonio Palopo	4	Abril	2023-04-21T00:00:00	2024-11-08T11:00:00	7	Dirección del viento	3.22
166611	7	Sololá	712	San Antonio Palopó	9	San Antonio Palopo	4	Abril	2023-04-21T00:00:00	2024-11-08T11:00:00	1	Precipitación	0
166612	7	Sololá	712	San Antonio Palopó	9	San Antonio Palopo	4	Abril	2023-04-21T00:00:00	2024-11-08T11:00:00	8	Radiación solar	820
166613	7	Sololá	712	San Antonio Palopó	9	San Antonio Palopo	4	Abril	2023-04-21T00:00:00	2024-11-08T12:00:00	2	Temperatura media	23.2
166614	7	Sololá	712	San Antonio Palopó	9	San Antonio Palopo	4	Abril	2023-04-21T00:00:00	2024-11-08T12:00:00	4	Temperatura máxima	23.4
166615	7	Sololá	712	San Antonio Palopó	9	San Antonio Palopo	4	Abril	2023-04-21T00:00:00	2024-11-08T12:00:00	3	Temperatura mínima	22.9
166616	7	Sololá	712	San Antonio Palopó	9	San Antonio Palopo	4	Abril	2023-04-21T00:00:00	2024-11-08T12:00:00	5	Humedad	72
166617	7	Sololá	712	San Antonio Palopó	9	San Antonio Palopo	4	Abril	2023-04-21T00:00:00	2024-11-08T12:00:00	6	Velocidad del viento	11.3
166618	7	Sololá	712	San Antonio Palopó	9	San Antonio Palopo	4	Abril	2023-04-21T00:00:00	2024-11-08T12:00:00	7	Dirección del viento	11.27
166619	7	Sololá	712	San Antonio Palopó	9	San Antonio Palopo	4	Abril	2023-04-21T00:00:00	2024-11-08T12:00:00	1	Precipitación	0
166620	7	Sololá	712	San Antonio Palopó	9	San Antonio Palopo	4	Abril	2023-04-21T00:00:00	2024-11-08T12:00:00	8	Radiación solar	881
166621	7	Sololá	712	San Antonio Palopó	9	San Antonio Palopo	4	Abril	2023-04-21T00:00:00	2024-11-08T13:00:00	2	Temperatura media	22.8
166622	7	Sololá	712	San Antonio Palopó	9	San Antonio Palopo	4	Abril	2023-04-21T00:00:00	2024-11-08T13:00:00	4	Temperatura máxima	23.3
166623	7	Sololá	712	San Antonio Palopó	9	San Antonio Palopo	4	Abril	2023-04-21T00:00:00	2024-11-08T13:00:00	3	Temperatura mínima	22.7
166624	7	Sololá	712	San Antonio Palopó	9	San Antonio Palopo	4	Abril	2023-04-21T00:00:00	2024-11-08T13:00:00	5	Humedad	73
166625	7	Sololá	712	San Antonio Palopó	9	San Antonio Palopo	4	Abril	2023-04-21T00:00:00	2024-11-08T13:00:00	6	Velocidad del viento	11.3
166626	7	Sololá	712	San Antonio Palopó	9	San Antonio Palopo	4	Abril	2023-04-21T00:00:00	2024-11-08T13:00:00	7	Dirección del viento	11.27
166627	7	Sololá	712	San Antonio Palopó	9	San Antonio Palopo	4	Abril	2023-04-21T00:00:00	2024-11-08T13:00:00	1	Precipitación	0
166628	7	Sololá	712	San Antonio Palopó	9	San Antonio Palopo	4	Abril	2023-04-21T00:00:00	2024-11-08T13:00:00	8	Radiación solar	712
166629	7	Sololá	712	San Antonio Palopó	9	San Antonio Palopo	4	Abril	2023-04-21T00:00:00	2024-11-08T14:00:00	2	Temperatura media	23.7
166630	7	Sololá	712	San Antonio Palopó	9	San Antonio Palopo	4	Abril	2023-04-21T00:00:00	2024-11-08T14:00:00	4	Temperatura máxima	23.7
166631	7	Sololá	712	San Antonio Palopó	9	San Antonio Palopo	4	Abril	2023-04-21T00:00:00	2024-11-08T14:00:00	3	Temperatura mínima	22.4
166632	7	Sololá	712	San Antonio Palopó	9	San Antonio Palopo	4	Abril	2023-04-21T00:00:00	2024-11-08T14:00:00	5	Humedad	69
166633	7	Sololá	712	San Antonio Palopó	9	San Antonio Palopo	4	Abril	2023-04-21T00:00:00	2024-11-08T14:00:00	6	Velocidad del viento	9.7
166634	7	Sololá	712	San Antonio Palopó	9	San Antonio Palopo	4	Abril	2023-04-21T00:00:00	2024-11-08T14:00:00	7	Dirección del viento	9.66
166635	7	Sololá	712	San Antonio Palopó	9	San Antonio Palopo	4	Abril	2023-04-21T00:00:00	2024-11-08T14:00:00	1	Precipitación	0
166636	7	Sololá	712	San Antonio Palopó	9	San Antonio Palopo	4	Abril	2023-04-21T00:00:00	2024-11-08T14:00:00	8	Radiación solar	656
166637	7	Sololá	712	San Antonio Palopó	9	San Antonio Palopo	4	Abril	2023-04-21T00:00:00	2024-11-08T15:00:00	2	Temperatura media	22.7
166638	7	Sololá	712	San Antonio Palopó	9	San Antonio Palopo	4	Abril	2023-04-21T00:00:00	2024-11-08T15:00:00	4	Temperatura máxima	24
166639	7	Sololá	712	San Antonio Palopó	9	San Antonio Palopo	4	Abril	2023-04-21T00:00:00	2024-11-08T15:00:00	3	Temperatura mínima	22.1
166640	7	Sololá	712	San Antonio Palopó	9	San Antonio Palopo	4	Abril	2023-04-21T00:00:00	2024-11-08T15:00:00	5	Humedad	76
166641	7	Sololá	712	San Antonio Palopó	9	San Antonio Palopo	4	Abril	2023-04-21T00:00:00	2024-11-08T15:00:00	6	Velocidad del viento	8
166642	7	Sololá	712	San Antonio Palopó	9	San Antonio Palopo	4	Abril	2023-04-21T00:00:00	2024-11-08T15:00:00	7	Dirección del viento	8.05
166643	7	Sololá	712	San Antonio Palopó	9	San Antonio Palopo	4	Abril	2023-04-21T00:00:00	2024-11-08T15:00:00	1	Precipitación	0
166644	7	Sololá	712	San Antonio Palopó	9	San Antonio Palopo	4	Abril	2023-04-21T00:00:00	2024-11-08T15:00:00	8	Radiación solar	575
166645	7	Sololá	712	San Antonio Palopó	9	San Antonio Palopo	4	Abril	2023-04-21T00:00:00	2024-11-08T16:00:00	2	Temperatura media	22.5
166646	7	Sololá	712	San Antonio Palopó	9	San Antonio Palopo	4	Abril	2023-04-21T00:00:00	2024-11-08T16:00:00	4	Temperatura máxima	22.8
166647	7	Sololá	712	San Antonio Palopó	9	San Antonio Palopo	4	Abril	2023-04-21T00:00:00	2024-11-08T16:00:00	3	Temperatura mínima	22.2
166648	7	Sololá	712	San Antonio Palopó	9	San Antonio Palopo	4	Abril	2023-04-21T00:00:00	2024-11-08T16:00:00	5	Humedad	75
166649	7	Sololá	712	San Antonio Palopó	9	San Antonio Palopo	4	Abril	2023-04-21T00:00:00	2024-11-08T16:00:00	6	Velocidad del viento	6.4
166650	7	Sololá	712	San Antonio Palopó	9	San Antonio Palopo	4	Abril	2023-04-21T00:00:00	2024-11-08T16:00:00	7	Dirección del viento	6.44
166651	7	Sololá	712	San Antonio Palopó	9	San Antonio Palopo	4	Abril	2023-04-21T00:00:00	2024-11-08T16:00:00	1	Precipitación	0
166652	7	Sololá	712	San Antonio Palopó	9	San Antonio Palopo	4	Abril	2023-04-21T00:00:00	2024-11-08T16:00:00	8	Radiación solar	252
166653	7	Sololá	712	San Antonio Palopó	9	San Antonio Palopo	4	Abril	2023-04-21T00:00:00	2024-11-08T17:00:00	2	Temperatura media	21.9
166654	7	Sololá	712	San Antonio Palopó	9	San Antonio Palopo	4	Abril	2023-04-21T00:00:00	2024-11-08T17:00:00	4	Temperatura máxima	22.6
166655	7	Sololá	712	San Antonio Palopó	9	San Antonio Palopo	4	Abril	2023-04-21T00:00:00	2024-11-08T17:00:00	3	Temperatura mínima	21.9
166656	7	Sololá	712	San Antonio Palopó	9	San Antonio Palopo	4	Abril	2023-04-21T00:00:00	2024-11-08T17:00:00	5	Humedad	79
166657	7	Sololá	712	San Antonio Palopó	9	San Antonio Palopo	4	Abril	2023-04-21T00:00:00	2024-11-08T17:00:00	6	Velocidad del viento	4.8
166658	7	Sololá	712	San Antonio Palopó	9	San Antonio Palopo	4	Abril	2023-04-21T00:00:00	2024-11-08T17:00:00	7	Dirección del viento	4.83
166659	7	Sololá	712	San Antonio Palopó	9	San Antonio Palopo	4	Abril	2023-04-21T00:00:00	2024-11-08T17:00:00	1	Precipitación	0
166660	7	Sololá	712	San Antonio Palopó	9	San Antonio Palopo	4	Abril	2023-04-21T00:00:00	2024-11-08T17:00:00	8	Radiación solar	172
166661	7	Sololá	712	San Antonio Palopó	9	San Antonio Palopo	4	Abril	2023-04-21T00:00:00	2024-11-08T18:00:00	2	Temperatura media	21.2
166662	7	Sololá	712	San Antonio Palopó	9	San Antonio Palopo	4	Abril	2023-04-21T00:00:00	2024-11-08T18:00:00	4	Temperatura máxima	22
166663	7	Sololá	712	San Antonio Palopó	9	San Antonio Palopo	4	Abril	2023-04-21T00:00:00	2024-11-08T18:00:00	3	Temperatura mínima	21.2
166664	7	Sololá	712	San Antonio Palopó	9	San Antonio Palopo	4	Abril	2023-04-21T00:00:00	2024-11-08T18:00:00	5	Humedad	81
166665	7	Sololá	712	San Antonio Palopó	9	San Antonio Palopo	4	Abril	2023-04-21T00:00:00	2024-11-08T18:00:00	6	Velocidad del viento	3.2
166666	7	Sololá	712	San Antonio Palopó	9	San Antonio Palopo	4	Abril	2023-04-21T00:00:00	2024-11-08T18:00:00	7	Dirección del viento	3.22
166667	7	Sololá	712	San Antonio Palopó	9	San Antonio Palopo	4	Abril	2023-04-21T00:00:00	2024-11-08T18:00:00	1	Precipitación	0
166668	7	Sololá	712	San Antonio Palopó	9	San Antonio Palopo	4	Abril	2023-04-21T00:00:00	2024-11-08T18:00:00	8	Radiación solar	70
166669	7	Sololá	712	San Antonio Palopó	9	San Antonio Palopo	4	Abril	2023-04-21T00:00:00	2024-11-08T19:00:00	2	Temperatura media	20.6
166670	7	Sololá	712	San Antonio Palopó	9	San Antonio Palopo	4	Abril	2023-04-21T00:00:00	2024-11-08T19:00:00	4	Temperatura máxima	21.2
166671	7	Sololá	712	San Antonio Palopó	9	San Antonio Palopo	4	Abril	2023-04-21T00:00:00	2024-11-08T19:00:00	3	Temperatura mínima	20.6
166672	7	Sololá	712	San Antonio Palopó	9	San Antonio Palopo	4	Abril	2023-04-21T00:00:00	2024-11-08T19:00:00	5	Humedad	85
166673	7	Sololá	712	San Antonio Palopó	9	San Antonio Palopo	4	Abril	2023-04-21T00:00:00	2024-11-08T19:00:00	6	Velocidad del viento	3.2
166674	7	Sololá	712	San Antonio Palopó	9	San Antonio Palopo	4	Abril	2023-04-21T00:00:00	2024-11-08T19:00:00	7	Dirección del viento	3.22
166675	7	Sololá	712	San Antonio Palopó	9	San Antonio Palopo	4	Abril	2023-04-21T00:00:00	2024-11-08T19:00:00	1	Precipitación	0
166676	7	Sololá	712	San Antonio Palopó	9	San Antonio Palopo	4	Abril	2023-04-21T00:00:00	2024-11-08T19:00:00	8	Radiación solar	0
166677	7	Sololá	712	San Antonio Palopó	9	San Antonio Palopo	4	Abril	2023-04-21T00:00:00	2024-11-08T20:00:00	2	Temperatura media	20.3
166678	7	Sololá	712	San Antonio Palopó	9	San Antonio Palopo	4	Abril	2023-04-21T00:00:00	2024-11-08T20:00:00	4	Temperatura máxima	20.6
166679	7	Sololá	712	San Antonio Palopó	9	San Antonio Palopo	4	Abril	2023-04-21T00:00:00	2024-11-08T20:00:00	3	Temperatura mínima	20.3
166680	7	Sololá	712	San Antonio Palopó	9	San Antonio Palopo	4	Abril	2023-04-21T00:00:00	2024-11-08T20:00:00	5	Humedad	80
166681	7	Sololá	712	San Antonio Palopó	9	San Antonio Palopo	4	Abril	2023-04-21T00:00:00	2024-11-08T20:00:00	6	Velocidad del viento	1.6
166682	7	Sololá	712	San Antonio Palopó	9	San Antonio Palopo	4	Abril	2023-04-21T00:00:00	2024-11-08T20:00:00	7	Dirección del viento	1.61
166683	7	Sololá	712	San Antonio Palopó	9	San Antonio Palopo	4	Abril	2023-04-21T00:00:00	2024-11-08T20:00:00	1	Precipitación	0
166684	7	Sololá	712	San Antonio Palopó	9	San Antonio Palopo	4	Abril	2023-04-21T00:00:00	2024-11-08T20:00:00	8	Radiación solar	0
166685	7	Sololá	712	San Antonio Palopó	9	San Antonio Palopo	4	Abril	2023-04-21T00:00:00	2024-11-08T21:00:00	2	Temperatura media	19.3
166686	7	Sololá	712	San Antonio Palopó	9	San Antonio Palopo	4	Abril	2023-04-21T00:00:00	2024-11-08T21:00:00	4	Temperatura máxima	20.3
166687	7	Sololá	712	San Antonio Palopó	9	San Antonio Palopo	4	Abril	2023-04-21T00:00:00	2024-11-08T21:00:00	3	Temperatura mínima	19.3
166688	7	Sololá	712	San Antonio Palopó	9	San Antonio Palopo	4	Abril	2023-04-21T00:00:00	2024-11-08T21:00:00	5	Humedad	81
166689	7	Sololá	712	San Antonio Palopó	9	San Antonio Palopo	4	Abril	2023-04-21T00:00:00	2024-11-08T21:00:00	6	Velocidad del viento	3.2
166690	7	Sololá	712	San Antonio Palopó	9	San Antonio Palopo	4	Abril	2023-04-21T00:00:00	2024-11-08T21:00:00	7	Dirección del viento	3.22
166691	7	Sololá	712	San Antonio Palopó	9	San Antonio Palopo	4	Abril	2023-04-21T00:00:00	2024-11-08T21:00:00	1	Precipitación	0
166692	7	Sololá	712	San Antonio Palopó	9	San Antonio Palopo	4	Abril	2023-04-21T00:00:00	2024-11-08T21:00:00	8	Radiación solar	0
166693	7	Sololá	712	San Antonio Palopó	9	San Antonio Palopo	4	Abril	2023-04-21T00:00:00	2024-11-08T22:00:00	2	Temperatura media	19.3
166694	7	Sololá	712	San Antonio Palopó	9	San Antonio Palopo	4	Abril	2023-04-21T00:00:00	2024-11-08T22:00:00	4	Temperatura máxima	19.4
166695	7	Sololá	712	San Antonio Palopó	9	San Antonio Palopo	4	Abril	2023-04-21T00:00:00	2024-11-08T22:00:00	3	Temperatura mínima	19.3
166696	7	Sololá	712	San Antonio Palopó	9	San Antonio Palopo	4	Abril	2023-04-21T00:00:00	2024-11-08T22:00:00	5	Humedad	80
166697	7	Sololá	712	San Antonio Palopó	9	San Antonio Palopo	4	Abril	2023-04-21T00:00:00	2024-11-08T22:00:00	6	Velocidad del viento	3.2
166698	7	Sololá	712	San Antonio Palopó	9	San Antonio Palopo	4	Abril	2023-04-21T00:00:00	2024-11-08T22:00:00	7	Dirección del viento	3.22
166699	7	Sololá	712	San Antonio Palopó	9	San Antonio Palopo	4	Abril	2023-04-21T00:00:00	2024-11-08T22:00:00	1	Precipitación	0
166700	7	Sololá	712	San Antonio Palopó	9	San Antonio Palopo	4	Abril	2023-04-21T00:00:00	2024-11-08T22:00:00	8	Radiación solar	0
166701	7	Sololá	712	San Antonio Palopó	9	San Antonio Palopo	4	Abril	2023-04-21T00:00:00	2024-11-08T23:00:00	2	Temperatura media	19.1
166702	7	Sololá	712	San Antonio Palopó	9	San Antonio Palopo	4	Abril	2023-04-21T00:00:00	2024-11-08T23:00:00	4	Temperatura máxima	19.3
166703	7	Sololá	712	San Antonio Palopó	9	San Antonio Palopo	4	Abril	2023-04-21T00:00:00	2024-11-08T23:00:00	3	Temperatura mínima	18.7
166704	7	Sololá	712	San Antonio Palopó	9	San Antonio Palopo	4	Abril	2023-04-21T00:00:00	2024-11-08T23:00:00	5	Humedad	81
166705	7	Sololá	712	San Antonio Palopó	9	San Antonio Palopo	4	Abril	2023-04-21T00:00:00	2024-11-08T23:00:00	6	Velocidad del viento	3.2
166706	7	Sololá	712	San Antonio Palopó	9	San Antonio Palopo	4	Abril	2023-04-21T00:00:00	2024-11-08T23:00:00	7	Dirección del viento	3.22
166707	7	Sololá	712	San Antonio Palopó	9	San Antonio Palopo	4	Abril	2023-04-21T00:00:00	2024-11-08T23:00:00	1	Precipitación	0
166708	7	Sololá	712	San Antonio Palopó	9	San Antonio Palopo	4	Abril	2023-04-21T00:00:00	2024-11-08T23:00:00	8	Radiación solar	0
166709	7	Sololá	712	San Antonio Palopó	9	San Antonio Palopo	4	Abril	2023-04-22T00:00:00	2024-11-08T00:00:00	2	Temperatura media	19
166710	7	Sololá	712	San Antonio Palopó	9	San Antonio Palopo	4	Abril	2023-04-22T00:00:00	2024-11-08T00:00:00	4	Temperatura máxima	19.3
166711	7	Sololá	712	San Antonio Palopó	9	San Antonio Palopo	4	Abril	2023-04-22T00:00:00	2024-11-08T00:00:00	3	Temperatura mínima	18.6
166712	7	Sololá	712	San Antonio Palopó	9	San Antonio Palopo	4	Abril	2023-04-22T00:00:00	2024-11-08T00:00:00	5	Humedad	81
166713	7	Sololá	712	San Antonio Palopó	9	San Antonio Palopo	4	Abril	2023-04-22T00:00:00	2024-11-08T00:00:00	6	Velocidad del viento	3.2
166714	7	Sololá	712	San Antonio Palopó	9	San Antonio Palopo	4	Abril	2023-04-22T00:00:00	2024-11-08T00:00:00	7	Dirección del viento	3.22
166715	7	Sololá	712	San Antonio Palopó	9	San Antonio Palopo	4	Abril	2023-04-22T00:00:00	2024-11-08T00:00:00	1	Precipitación	0
166716	7	Sololá	712	San Antonio Palopó	9	San Antonio Palopo	4	Abril	2023-04-22T00:00:00	2024-11-08T00:00:00	8	Radiación solar	0
166717	7	Sololá	712	San Antonio Palopó	9	San Antonio Palopo	4	Abril	2023-04-22T00:00:00	2024-11-08T01:00:00	2	Temperatura media	18
166718	7	Sololá	712	San Antonio Palopó	9	San Antonio Palopo	4	Abril	2023-04-22T00:00:00	2024-11-08T01:00:00	4	Temperatura máxima	19.2
166719	7	Sololá	712	San Antonio Palopó	9	San Antonio Palopo	4	Abril	2023-04-22T00:00:00	2024-11-08T01:00:00	3	Temperatura mínima	18
166720	7	Sololá	712	San Antonio Palopó	9	San Antonio Palopo	4	Abril	2023-04-22T00:00:00	2024-11-08T01:00:00	5	Humedad	83
166721	7	Sololá	712	San Antonio Palopó	9	San Antonio Palopo	4	Abril	2023-04-22T00:00:00	2024-11-08T01:00:00	6	Velocidad del viento	3.2
166722	7	Sololá	712	San Antonio Palopó	9	San Antonio Palopo	4	Abril	2023-04-22T00:00:00	2024-11-08T01:00:00	7	Dirección del viento	3.22
166723	7	Sololá	712	San Antonio Palopó	9	San Antonio Palopo	4	Abril	2023-04-22T00:00:00	2024-11-08T01:00:00	1	Precipitación	0
166724	7	Sololá	712	San Antonio Palopó	9	San Antonio Palopo	4	Abril	2023-04-22T00:00:00	2024-11-08T01:00:00	8	Radiación solar	0
166725	7	Sololá	712	San Antonio Palopó	9	San Antonio Palopo	4	Abril	2023-04-22T00:00:00	2024-11-08T02:00:00	2	Temperatura media	17.8
166726	7	Sololá	712	San Antonio Palopó	9	San Antonio Palopo	4	Abril	2023-04-22T00:00:00	2024-11-08T02:00:00	4	Temperatura máxima	18.6
166727	7	Sololá	712	San Antonio Palopó	9	San Antonio Palopo	4	Abril	2023-04-22T00:00:00	2024-11-08T02:00:00	3	Temperatura mínima	17.8
166728	7	Sololá	712	San Antonio Palopó	9	San Antonio Palopo	4	Abril	2023-04-22T00:00:00	2024-11-08T02:00:00	5	Humedad	84
166729	7	Sololá	712	San Antonio Palopó	9	San Antonio Palopo	4	Abril	2023-04-22T00:00:00	2024-11-08T02:00:00	6	Velocidad del viento	3.2
166730	7	Sololá	712	San Antonio Palopó	9	San Antonio Palopo	4	Abril	2023-04-22T00:00:00	2024-11-08T02:00:00	7	Dirección del viento	3.22
166731	7	Sololá	712	San Antonio Palopó	9	San Antonio Palopo	4	Abril	2023-04-22T00:00:00	2024-11-08T02:00:00	1	Precipitación	0
166732	7	Sololá	712	San Antonio Palopó	9	San Antonio Palopo	4	Abril	2023-04-22T00:00:00	2024-11-08T02:00:00	8	Radiación solar	0
166733	7	Sololá	712	San Antonio Palopó	9	San Antonio Palopo	4	Abril	2023-04-22T00:00:00	2024-11-08T03:00:00	2	Temperatura media	18.4
166734	7	Sololá	712	San Antonio Palopó	9	San Antonio Palopo	4	Abril	2023-04-22T00:00:00	2024-11-08T03:00:00	4	Temperatura máxima	18.5
166735	7	Sololá	712	San Antonio Palopó	9	San Antonio Palopo	4	Abril	2023-04-22T00:00:00	2024-11-08T03:00:00	3	Temperatura mínima	17.6
166736	7	Sololá	712	San Antonio Palopó	9	San Antonio Palopo	4	Abril	2023-04-22T00:00:00	2024-11-08T03:00:00	5	Humedad	78
166737	7	Sololá	712	San Antonio Palopó	9	San Antonio Palopo	4	Abril	2023-04-22T00:00:00	2024-11-08T03:00:00	6	Velocidad del viento	3.2
166738	7	Sololá	712	San Antonio Palopó	9	San Antonio Palopo	4	Abril	2023-04-22T00:00:00	2024-11-08T03:00:00	7	Dirección del viento	3.22
166739	7	Sololá	712	San Antonio Palopó	9	San Antonio Palopo	4	Abril	2023-04-22T00:00:00	2024-11-08T03:00:00	1	Precipitación	0
166740	7	Sololá	712	San Antonio Palopó	9	San Antonio Palopo	4	Abril	2023-04-22T00:00:00	2024-11-08T03:00:00	8	Radiación solar	0
166741	7	Sololá	712	San Antonio Palopó	9	San Antonio Palopo	4	Abril	2023-04-22T00:00:00	2024-11-08T04:00:00	2	Temperatura media	17.7
166742	7	Sololá	712	San Antonio Palopó	9	San Antonio Palopo	4	Abril	2023-04-22T00:00:00	2024-11-08T04:00:00	4	Temperatura máxima	18.6
166743	7	Sololá	712	San Antonio Palopó	9	San Antonio Palopo	4	Abril	2023-04-22T00:00:00	2024-11-08T04:00:00	3	Temperatura mínima	17.6
166744	7	Sololá	712	San Antonio Palopó	9	San Antonio Palopo	4	Abril	2023-04-22T00:00:00	2024-11-08T04:00:00	5	Humedad	80
166745	7	Sololá	712	San Antonio Palopó	9	San Antonio Palopo	4	Abril	2023-04-22T00:00:00	2024-11-08T04:00:00	6	Velocidad del viento	3.2
166746	7	Sololá	712	San Antonio Palopó	9	San Antonio Palopo	4	Abril	2023-04-22T00:00:00	2024-11-08T04:00:00	7	Dirección del viento	3.22
166747	7	Sololá	712	San Antonio Palopó	9	San Antonio Palopo	4	Abril	2023-04-22T00:00:00	2024-11-08T04:00:00	1	Precipitación	0
166748	7	Sololá	712	San Antonio Palopó	9	San Antonio Palopo	4	Abril	2023-04-22T00:00:00	2024-11-08T04:00:00	8	Radiación solar	0
166749	7	Sololá	712	San Antonio Palopó	9	San Antonio Palopo	4	Abril	2023-04-22T00:00:00	2024-11-08T05:00:00	2	Temperatura media	18.2
166750	7	Sololá	712	San Antonio Palopó	9	San Antonio Palopo	4	Abril	2023-04-22T00:00:00	2024-11-08T05:00:00	4	Temperatura máxima	18.6
166751	7	Sololá	712	San Antonio Palopó	9	San Antonio Palopo	4	Abril	2023-04-22T00:00:00	2024-11-08T05:00:00	3	Temperatura mínima	17.6
166752	7	Sololá	712	San Antonio Palopó	9	San Antonio Palopo	4	Abril	2023-04-22T00:00:00	2024-11-08T05:00:00	5	Humedad	77
166753	7	Sololá	712	San Antonio Palopó	9	San Antonio Palopo	4	Abril	2023-04-22T00:00:00	2024-11-08T05:00:00	6	Velocidad del viento	3.2
166754	7	Sololá	712	San Antonio Palopó	9	San Antonio Palopo	4	Abril	2023-04-22T00:00:00	2024-11-08T05:00:00	7	Dirección del viento	3.22
166755	7	Sololá	712	San Antonio Palopó	9	San Antonio Palopo	4	Abril	2023-04-22T00:00:00	2024-11-08T05:00:00	1	Precipitación	0
166756	7	Sololá	712	San Antonio Palopó	9	San Antonio Palopo	4	Abril	2023-04-22T00:00:00	2024-11-08T05:00:00	8	Radiación solar	0
166757	7	Sololá	712	San Antonio Palopó	9	San Antonio Palopo	4	Abril	2023-04-22T00:00:00	2024-11-08T06:00:00	2	Temperatura media	17.6
166758	7	Sololá	712	San Antonio Palopó	9	San Antonio Palopo	4	Abril	2023-04-22T00:00:00	2024-11-08T06:00:00	4	Temperatura máxima	18.2
166759	7	Sololá	712	San Antonio Palopó	9	San Antonio Palopo	4	Abril	2023-04-22T00:00:00	2024-11-08T06:00:00	3	Temperatura mínima	17.2
166760	7	Sololá	712	San Antonio Palopó	9	San Antonio Palopo	4	Abril	2023-04-22T00:00:00	2024-11-08T06:00:00	5	Humedad	79
166761	7	Sololá	712	San Antonio Palopó	9	San Antonio Palopo	4	Abril	2023-04-22T00:00:00	2024-11-08T06:00:00	6	Velocidad del viento	3.2
166762	7	Sololá	712	San Antonio Palopó	9	San Antonio Palopo	4	Abril	2023-04-22T00:00:00	2024-11-08T06:00:00	7	Dirección del viento	3.22
166763	7	Sololá	712	San Antonio Palopó	9	San Antonio Palopo	4	Abril	2023-04-22T00:00:00	2024-11-08T06:00:00	1	Precipitación	0
166764	7	Sololá	712	San Antonio Palopó	9	San Antonio Palopo	4	Abril	2023-04-22T00:00:00	2024-11-08T06:00:00	8	Radiación solar	1
166765	7	Sololá	712	San Antonio Palopó	9	San Antonio Palopo	4	Abril	2023-04-22T00:00:00	2024-11-08T07:00:00	2	Temperatura media	17.9
166766	7	Sololá	712	San Antonio Palopó	9	San Antonio Palopo	4	Abril	2023-04-22T00:00:00	2024-11-08T07:00:00	4	Temperatura máxima	18.1
166767	7	Sololá	712	San Antonio Palopó	9	San Antonio Palopo	4	Abril	2023-04-22T00:00:00	2024-11-08T07:00:00	3	Temperatura mínima	17.6
166768	7	Sololá	712	San Antonio Palopó	9	San Antonio Palopo	4	Abril	2023-04-22T00:00:00	2024-11-08T07:00:00	5	Humedad	80
166769	7	Sololá	712	San Antonio Palopó	9	San Antonio Palopo	4	Abril	2023-04-22T00:00:00	2024-11-08T07:00:00	6	Velocidad del viento	1.6
166770	7	Sololá	712	San Antonio Palopó	9	San Antonio Palopo	4	Abril	2023-04-22T00:00:00	2024-11-08T07:00:00	7	Dirección del viento	1.61
166771	7	Sololá	712	San Antonio Palopó	9	San Antonio Palopo	4	Abril	2023-04-22T00:00:00	2024-11-08T07:00:00	1	Precipitación	0
166772	7	Sololá	712	San Antonio Palopó	9	San Antonio Palopo	4	Abril	2023-04-22T00:00:00	2024-11-08T07:00:00	8	Radiación solar	24
166773	7	Sololá	712	San Antonio Palopó	9	San Antonio Palopo	4	Abril	2023-04-22T00:00:00	2024-11-08T08:00:00	2	Temperatura media	19
166774	7	Sololá	712	San Antonio Palopó	9	San Antonio Palopo	4	Abril	2023-04-22T00:00:00	2024-11-08T08:00:00	4	Temperatura máxima	19
166775	7	Sololá	712	San Antonio Palopó	9	San Antonio Palopo	4	Abril	2023-04-22T00:00:00	2024-11-08T08:00:00	3	Temperatura mínima	17.2
166776	7	Sololá	712	San Antonio Palopó	9	San Antonio Palopo	4	Abril	2023-04-22T00:00:00	2024-11-08T08:00:00	5	Humedad	80
166777	7	Sololá	712	San Antonio Palopó	9	San Antonio Palopo	4	Abril	2023-04-22T00:00:00	2024-11-08T08:00:00	6	Velocidad del viento	3.2
166778	7	Sololá	712	San Antonio Palopó	9	San Antonio Palopo	4	Abril	2023-04-22T00:00:00	2024-11-08T08:00:00	7	Dirección del viento	3.22
166779	7	Sololá	712	San Antonio Palopó	9	San Antonio Palopo	4	Abril	2023-04-22T00:00:00	2024-11-08T08:00:00	1	Precipitación	0
166780	7	Sololá	712	San Antonio Palopó	9	San Antonio Palopo	4	Abril	2023-04-22T00:00:00	2024-11-08T08:00:00	8	Radiación solar	150
166781	7	Sololá	712	San Antonio Palopó	9	San Antonio Palopo	4	Abril	2023-04-22T00:00:00	2024-11-08T09:00:00	2	Temperatura media	20.3
166782	7	Sololá	712	San Antonio Palopó	9	San Antonio Palopo	4	Abril	2023-04-22T00:00:00	2024-11-08T09:00:00	4	Temperatura máxima	20.3
166783	7	Sololá	712	San Antonio Palopó	9	San Antonio Palopo	4	Abril	2023-04-22T00:00:00	2024-11-08T09:00:00	3	Temperatura mínima	19
166784	7	Sololá	712	San Antonio Palopó	9	San Antonio Palopo	4	Abril	2023-04-22T00:00:00	2024-11-08T09:00:00	5	Humedad	77
166785	7	Sololá	712	San Antonio Palopó	9	San Antonio Palopo	4	Abril	2023-04-22T00:00:00	2024-11-08T09:00:00	6	Velocidad del viento	1.6
166786	7	Sololá	712	San Antonio Palopó	9	San Antonio Palopo	4	Abril	2023-04-22T00:00:00	2024-11-08T09:00:00	7	Dirección del viento	1.61
166787	7	Sololá	712	San Antonio Palopó	9	San Antonio Palopo	4	Abril	2023-04-22T00:00:00	2024-11-08T09:00:00	1	Precipitación	0
166788	7	Sololá	712	San Antonio Palopó	9	San Antonio Palopo	4	Abril	2023-04-22T00:00:00	2024-11-08T09:00:00	8	Radiación solar	445
166789	7	Sololá	712	San Antonio Palopó	9	San Antonio Palopo	4	Abril	2023-04-22T00:00:00	2024-11-08T10:00:00	2	Temperatura media	23.2
166790	7	Sololá	712	San Antonio Palopó	9	San Antonio Palopo	4	Abril	2023-04-22T00:00:00	2024-11-08T10:00:00	4	Temperatura máxima	23.2
166791	7	Sololá	712	San Antonio Palopó	9	San Antonio Palopo	4	Abril	2023-04-22T00:00:00	2024-11-08T10:00:00	3	Temperatura mínima	20.3
166792	7	Sololá	712	San Antonio Palopó	9	San Antonio Palopo	4	Abril	2023-04-22T00:00:00	2024-11-08T10:00:00	5	Humedad	63
166793	7	Sololá	712	San Antonio Palopó	9	San Antonio Palopo	4	Abril	2023-04-22T00:00:00	2024-11-08T10:00:00	6	Velocidad del viento	3.2
166794	7	Sololá	712	San Antonio Palopó	9	San Antonio Palopo	4	Abril	2023-04-22T00:00:00	2024-11-08T10:00:00	7	Dirección del viento	3.22
166795	7	Sololá	712	San Antonio Palopó	9	San Antonio Palopo	4	Abril	2023-04-22T00:00:00	2024-11-08T10:00:00	1	Precipitación	0
166796	7	Sololá	712	San Antonio Palopó	9	San Antonio Palopo	4	Abril	2023-04-22T00:00:00	2024-11-08T10:00:00	8	Radiación solar	686
166797	7	Sololá	712	San Antonio Palopó	9	San Antonio Palopo	4	Abril	2023-04-22T00:00:00	2024-11-08T11:00:00	2	Temperatura media	24.6
166798	7	Sololá	712	San Antonio Palopó	9	San Antonio Palopo	4	Abril	2023-04-22T00:00:00	2024-11-08T11:00:00	4	Temperatura máxima	24.6
166799	7	Sololá	712	San Antonio Palopó	9	San Antonio Palopo	4	Abril	2023-04-22T00:00:00	2024-11-08T11:00:00	3	Temperatura mínima	23.1
166800	7	Sololá	712	San Antonio Palopó	9	San Antonio Palopo	4	Abril	2023-04-22T00:00:00	2024-11-08T11:00:00	5	Humedad	63
166801	7	Sololá	712	San Antonio Palopó	9	San Antonio Palopo	4	Abril	2023-04-22T00:00:00	2024-11-08T11:00:00	6	Velocidad del viento	3.2
166802	7	Sololá	712	San Antonio Palopó	9	San Antonio Palopo	4	Abril	2023-04-22T00:00:00	2024-11-08T11:00:00	7	Dirección del viento	3.22
166803	7	Sololá	712	San Antonio Palopó	9	San Antonio Palopo	4	Abril	2023-04-22T00:00:00	2024-11-08T11:00:00	1	Precipitación	0
166804	7	Sololá	712	San Antonio Palopó	9	San Antonio Palopo	4	Abril	2023-04-22T00:00:00	2024-11-08T11:00:00	8	Radiación solar	821
166805	7	Sololá	712	San Antonio Palopó	9	San Antonio Palopo	4	Abril	2023-04-22T00:00:00	2024-11-08T12:00:00	2	Temperatura media	25.1
166806	7	Sololá	712	San Antonio Palopó	9	San Antonio Palopo	4	Abril	2023-04-22T00:00:00	2024-11-08T12:00:00	4	Temperatura máxima	25.8
166807	7	Sololá	712	San Antonio Palopó	9	San Antonio Palopo	4	Abril	2023-04-22T00:00:00	2024-11-08T12:00:00	3	Temperatura mínima	24.6
166808	7	Sololá	712	San Antonio Palopó	9	San Antonio Palopo	4	Abril	2023-04-22T00:00:00	2024-11-08T12:00:00	5	Humedad	59
166809	7	Sololá	712	San Antonio Palopó	9	San Antonio Palopo	4	Abril	2023-04-22T00:00:00	2024-11-08T12:00:00	6	Velocidad del viento	8
166810	7	Sololá	712	San Antonio Palopó	9	San Antonio Palopo	4	Abril	2023-04-22T00:00:00	2024-11-08T12:00:00	7	Dirección del viento	8.05
166811	7	Sololá	712	San Antonio Palopó	9	San Antonio Palopo	4	Abril	2023-04-22T00:00:00	2024-11-08T12:00:00	1	Precipitación	0
166812	7	Sololá	712	San Antonio Palopó	9	San Antonio Palopo	4	Abril	2023-04-22T00:00:00	2024-11-08T12:00:00	8	Radiación solar	911
166813	7	Sololá	712	San Antonio Palopó	9	San Antonio Palopo	4	Abril	2023-04-22T00:00:00	2024-11-08T13:00:00	2	Temperatura media	24.6
166814	7	Sololá	712	San Antonio Palopó	9	San Antonio Palopo	4	Abril	2023-04-22T00:00:00	2024-11-08T13:00:00	4	Temperatura máxima	25.2
166815	7	Sololá	712	San Antonio Palopó	9	San Antonio Palopo	4	Abril	2023-04-22T00:00:00	2024-11-08T13:00:00	3	Temperatura mínima	24.6
166816	7	Sololá	712	San Antonio Palopó	9	San Antonio Palopo	4	Abril	2023-04-22T00:00:00	2024-11-08T13:00:00	5	Humedad	67
166817	7	Sololá	712	San Antonio Palopó	9	San Antonio Palopo	4	Abril	2023-04-22T00:00:00	2024-11-08T13:00:00	6	Velocidad del viento	11.3
166818	7	Sololá	712	San Antonio Palopó	9	San Antonio Palopo	4	Abril	2023-04-22T00:00:00	2024-11-08T13:00:00	7	Dirección del viento	11.27
166819	7	Sololá	712	San Antonio Palopó	9	San Antonio Palopo	4	Abril	2023-04-22T00:00:00	2024-11-08T13:00:00	1	Precipitación	0
166820	7	Sololá	712	San Antonio Palopó	9	San Antonio Palopo	4	Abril	2023-04-22T00:00:00	2024-11-08T13:00:00	8	Radiación solar	903
166821	7	Sololá	712	San Antonio Palopó	9	San Antonio Palopo	4	Abril	2023-04-22T00:00:00	2024-11-08T14:00:00	2	Temperatura media	24.4
166822	7	Sololá	712	San Antonio Palopó	9	San Antonio Palopo	4	Abril	2023-04-22T00:00:00	2024-11-08T14:00:00	4	Temperatura máxima	24.6
166823	7	Sololá	712	San Antonio Palopó	9	San Antonio Palopo	4	Abril	2023-04-22T00:00:00	2024-11-08T14:00:00	3	Temperatura mínima	24.1
166824	7	Sololá	712	San Antonio Palopó	9	San Antonio Palopo	4	Abril	2023-04-22T00:00:00	2024-11-08T14:00:00	5	Humedad	71
166825	7	Sololá	712	San Antonio Palopó	9	San Antonio Palopo	4	Abril	2023-04-22T00:00:00	2024-11-08T14:00:00	6	Velocidad del viento	14.5
166826	7	Sololá	712	San Antonio Palopó	9	San Antonio Palopo	4	Abril	2023-04-22T00:00:00	2024-11-08T14:00:00	7	Dirección del viento	14.48
166827	7	Sololá	712	San Antonio Palopó	9	San Antonio Palopo	4	Abril	2023-04-22T00:00:00	2024-11-08T14:00:00	1	Precipitación	0
166828	7	Sololá	712	San Antonio Palopó	9	San Antonio Palopo	4	Abril	2023-04-22T00:00:00	2024-11-08T14:00:00	8	Radiación solar	832
166829	7	Sololá	712	San Antonio Palopó	9	San Antonio Palopo	4	Abril	2023-04-22T00:00:00	2024-11-08T15:00:00	2	Temperatura media	24.5
166830	7	Sololá	712	San Antonio Palopó	9	San Antonio Palopo	4	Abril	2023-04-22T00:00:00	2024-11-08T15:00:00	4	Temperatura máxima	24.9
166831	7	Sololá	712	San Antonio Palopó	9	San Antonio Palopo	4	Abril	2023-04-22T00:00:00	2024-11-08T15:00:00	3	Temperatura mínima	24.3
166832	7	Sololá	712	San Antonio Palopó	9	San Antonio Palopo	4	Abril	2023-04-22T00:00:00	2024-11-08T15:00:00	5	Humedad	71
166833	7	Sololá	712	San Antonio Palopó	9	San Antonio Palopo	4	Abril	2023-04-22T00:00:00	2024-11-08T15:00:00	6	Velocidad del viento	11.3
166834	7	Sololá	712	San Antonio Palopó	9	San Antonio Palopo	4	Abril	2023-04-22T00:00:00	2024-11-08T15:00:00	7	Dirección del viento	11.27
166835	7	Sololá	712	San Antonio Palopó	9	San Antonio Palopo	4	Abril	2023-04-22T00:00:00	2024-11-08T15:00:00	1	Precipitación	0
166836	7	Sololá	712	San Antonio Palopó	9	San Antonio Palopo	4	Abril	2023-04-22T00:00:00	2024-11-08T15:00:00	8	Radiación solar	728
166837	7	Sololá	712	San Antonio Palopó	9	San Antonio Palopo	4	Abril	2023-04-22T00:00:00	2024-11-08T16:00:00	2	Temperatura media	24.1
166838	7	Sololá	712	San Antonio Palopó	9	San Antonio Palopo	4	Abril	2023-04-22T00:00:00	2024-11-08T16:00:00	4	Temperatura máxima	24.6
166839	7	Sololá	712	San Antonio Palopó	9	San Antonio Palopo	4	Abril	2023-04-22T00:00:00	2024-11-08T16:00:00	3	Temperatura mínima	23.8
166840	7	Sololá	712	San Antonio Palopó	9	San Antonio Palopo	4	Abril	2023-04-22T00:00:00	2024-11-08T16:00:00	5	Humedad	73
166841	7	Sololá	712	San Antonio Palopó	9	San Antonio Palopo	4	Abril	2023-04-22T00:00:00	2024-11-08T16:00:00	6	Velocidad del viento	9.7
166842	7	Sololá	712	San Antonio Palopó	9	San Antonio Palopo	4	Abril	2023-04-22T00:00:00	2024-11-08T16:00:00	7	Dirección del viento	9.66
166843	7	Sololá	712	San Antonio Palopó	9	San Antonio Palopo	4	Abril	2023-04-22T00:00:00	2024-11-08T16:00:00	1	Precipitación	0
166844	7	Sololá	712	San Antonio Palopó	9	San Antonio Palopo	4	Abril	2023-04-22T00:00:00	2024-11-08T16:00:00	8	Radiación solar	505
166845	7	Sololá	712	San Antonio Palopó	9	San Antonio Palopo	4	Abril	2023-04-22T00:00:00	2024-11-08T17:00:00	2	Temperatura media	22.7
166846	7	Sololá	712	San Antonio Palopó	9	San Antonio Palopo	4	Abril	2023-04-22T00:00:00	2024-11-08T17:00:00	4	Temperatura máxima	24.1
166847	7	Sololá	712	San Antonio Palopó	9	San Antonio Palopo	4	Abril	2023-04-22T00:00:00	2024-11-08T17:00:00	3	Temperatura mínima	22.4
166848	7	Sololá	712	San Antonio Palopó	9	San Antonio Palopo	4	Abril	2023-04-22T00:00:00	2024-11-08T17:00:00	5	Humedad	77
166849	7	Sololá	712	San Antonio Palopó	9	San Antonio Palopo	4	Abril	2023-04-22T00:00:00	2024-11-08T17:00:00	6	Velocidad del viento	6.4
166850	7	Sololá	712	San Antonio Palopó	9	San Antonio Palopo	4	Abril	2023-04-22T00:00:00	2024-11-08T17:00:00	7	Dirección del viento	6.44
166851	7	Sololá	712	San Antonio Palopó	9	San Antonio Palopo	4	Abril	2023-04-22T00:00:00	2024-11-08T17:00:00	1	Precipitación	0
166852	7	Sololá	712	San Antonio Palopó	9	San Antonio Palopo	4	Abril	2023-04-22T00:00:00	2024-11-08T17:00:00	8	Radiación solar	161
166853	7	Sololá	712	San Antonio Palopó	9	San Antonio Palopo	4	Abril	2023-04-22T00:00:00	2024-11-08T18:00:00	2	Temperatura media	22.3
166854	7	Sololá	712	San Antonio Palopó	9	San Antonio Palopo	4	Abril	2023-04-22T00:00:00	2024-11-08T18:00:00	4	Temperatura máxima	22.7
166855	7	Sololá	712	San Antonio Palopó	9	San Antonio Palopo	4	Abril	2023-04-22T00:00:00	2024-11-08T18:00:00	3	Temperatura mínima	22.2
166856	7	Sololá	712	San Antonio Palopó	9	San Antonio Palopo	4	Abril	2023-04-22T00:00:00	2024-11-08T18:00:00	5	Humedad	79
166857	7	Sololá	712	San Antonio Palopó	9	San Antonio Palopo	4	Abril	2023-04-22T00:00:00	2024-11-08T18:00:00	6	Velocidad del viento	3.2
166858	7	Sololá	712	San Antonio Palopó	9	San Antonio Palopo	4	Abril	2023-04-22T00:00:00	2024-11-08T18:00:00	7	Dirección del viento	3.22
166859	7	Sololá	712	San Antonio Palopó	9	San Antonio Palopo	4	Abril	2023-04-22T00:00:00	2024-11-08T18:00:00	1	Precipitación	0
166860	7	Sololá	712	San Antonio Palopó	9	San Antonio Palopo	4	Abril	2023-04-22T00:00:00	2024-11-08T18:00:00	8	Radiación solar	35
166861	7	Sololá	712	San Antonio Palopó	9	San Antonio Palopo	4	Abril	2023-04-22T00:00:00	2024-11-08T19:00:00	2	Temperatura media	21.8
166862	7	Sololá	712	San Antonio Palopó	9	San Antonio Palopo	4	Abril	2023-04-22T00:00:00	2024-11-08T19:00:00	4	Temperatura máxima	22.2
166863	7	Sololá	712	San Antonio Palopó	9	San Antonio Palopo	4	Abril	2023-04-22T00:00:00	2024-11-08T19:00:00	3	Temperatura mínima	21.7
166864	7	Sololá	712	San Antonio Palopó	9	San Antonio Palopo	4	Abril	2023-04-22T00:00:00	2024-11-08T19:00:00	5	Humedad	82
166865	7	Sololá	712	San Antonio Palopó	9	San Antonio Palopo	4	Abril	2023-04-22T00:00:00	2024-11-08T19:00:00	6	Velocidad del viento	3.2
166866	7	Sololá	712	San Antonio Palopó	9	San Antonio Palopo	4	Abril	2023-04-22T00:00:00	2024-11-08T19:00:00	7	Dirección del viento	3.22
166867	7	Sololá	712	San Antonio Palopó	9	San Antonio Palopo	4	Abril	2023-04-22T00:00:00	2024-11-08T19:00:00	1	Precipitación	0
166868	7	Sololá	712	San Antonio Palopó	9	San Antonio Palopo	4	Abril	2023-04-22T00:00:00	2024-11-08T19:00:00	8	Radiación solar	0
166869	7	Sololá	712	San Antonio Palopó	9	San Antonio Palopo	4	Abril	2023-04-22T00:00:00	2024-11-08T20:00:00	2	Temperatura media	21.4
166870	7	Sololá	712	San Antonio Palopó	9	San Antonio Palopo	4	Abril	2023-04-22T00:00:00	2024-11-08T20:00:00	4	Temperatura máxima	21.8
166871	7	Sololá	712	San Antonio Palopó	9	San Antonio Palopo	4	Abril	2023-04-22T00:00:00	2024-11-08T20:00:00	3	Temperatura mínima	21.4
166872	7	Sololá	712	San Antonio Palopó	9	San Antonio Palopo	4	Abril	2023-04-22T00:00:00	2024-11-08T20:00:00	5	Humedad	85
166873	7	Sololá	712	San Antonio Palopó	9	San Antonio Palopo	4	Abril	2023-04-22T00:00:00	2024-11-08T20:00:00	6	Velocidad del viento	1.6
166874	7	Sololá	712	San Antonio Palopó	9	San Antonio Palopo	4	Abril	2023-04-22T00:00:00	2024-11-08T20:00:00	7	Dirección del viento	1.61
166875	7	Sololá	712	San Antonio Palopó	9	San Antonio Palopo	4	Abril	2023-04-22T00:00:00	2024-11-08T20:00:00	1	Precipitación	0
166876	7	Sololá	712	San Antonio Palopó	9	San Antonio Palopo	4	Abril	2023-04-22T00:00:00	2024-11-08T20:00:00	8	Radiación solar	0
166877	7	Sololá	712	San Antonio Palopó	9	San Antonio Palopo	4	Abril	2023-04-22T00:00:00	2024-11-08T21:00:00	2	Temperatura media	20.9
166878	7	Sololá	712	San Antonio Palopó	9	San Antonio Palopo	4	Abril	2023-04-22T00:00:00	2024-11-08T21:00:00	4	Temperatura máxima	21.4
166879	7	Sololá	712	San Antonio Palopó	9	San Antonio Palopo	4	Abril	2023-04-22T00:00:00	2024-11-08T21:00:00	3	Temperatura mínima	20.9
166880	7	Sololá	712	San Antonio Palopó	9	San Antonio Palopo	4	Abril	2023-04-22T00:00:00	2024-11-08T21:00:00	5	Humedad	81
166881	7	Sololá	712	San Antonio Palopó	9	San Antonio Palopo	4	Abril	2023-04-22T00:00:00	2024-11-08T21:00:00	6	Velocidad del viento	1.6
166882	7	Sololá	712	San Antonio Palopó	9	San Antonio Palopo	4	Abril	2023-04-22T00:00:00	2024-11-08T21:00:00	7	Dirección del viento	1.61
166883	7	Sololá	712	San Antonio Palopó	9	San Antonio Palopo	4	Abril	2023-04-22T00:00:00	2024-11-08T21:00:00	1	Precipitación	0
166884	7	Sololá	712	San Antonio Palopó	9	San Antonio Palopo	4	Abril	2023-04-22T00:00:00	2024-11-08T21:00:00	8	Radiación solar	0
166885	7	Sololá	712	San Antonio Palopó	9	San Antonio Palopo	4	Abril	2023-04-22T00:00:00	2024-11-08T22:00:00	2	Temperatura media	20.7
166886	7	Sololá	712	San Antonio Palopó	9	San Antonio Palopo	4	Abril	2023-04-22T00:00:00	2024-11-08T22:00:00	4	Temperatura máxima	20.9
166887	7	Sololá	712	San Antonio Palopó	9	San Antonio Palopo	4	Abril	2023-04-22T00:00:00	2024-11-08T22:00:00	3	Temperatura mínima	20.6
166888	7	Sololá	712	San Antonio Palopó	9	San Antonio Palopo	4	Abril	2023-04-22T00:00:00	2024-11-08T22:00:00	5	Humedad	85
166889	7	Sololá	712	San Antonio Palopó	9	San Antonio Palopo	4	Abril	2023-04-22T00:00:00	2024-11-08T22:00:00	6	Velocidad del viento	1.6
166890	7	Sololá	712	San Antonio Palopó	9	San Antonio Palopo	4	Abril	2023-04-22T00:00:00	2024-11-08T22:00:00	7	Dirección del viento	1.61
166891	7	Sololá	712	San Antonio Palopó	9	San Antonio Palopo	4	Abril	2023-04-22T00:00:00	2024-11-08T22:00:00	1	Precipitación	0
166892	7	Sololá	712	San Antonio Palopó	9	San Antonio Palopo	4	Abril	2023-04-22T00:00:00	2024-11-08T22:00:00	8	Radiación solar	0
166893	7	Sololá	712	San Antonio Palopó	9	San Antonio Palopo	4	Abril	2023-04-22T00:00:00	2024-11-08T23:00:00	2	Temperatura media	20.1
166894	7	Sololá	712	San Antonio Palopó	9	San Antonio Palopo	4	Abril	2023-04-22T00:00:00	2024-11-08T23:00:00	4	Temperatura máxima	20.8
166895	7	Sololá	712	San Antonio Palopó	9	San Antonio Palopo	4	Abril	2023-04-22T00:00:00	2024-11-08T23:00:00	3	Temperatura mínima	20.1
166896	7	Sololá	712	San Antonio Palopó	9	San Antonio Palopo	4	Abril	2023-04-22T00:00:00	2024-11-08T23:00:00	5	Humedad	78
166897	7	Sololá	712	San Antonio Palopó	9	San Antonio Palopo	4	Abril	2023-04-22T00:00:00	2024-11-08T23:00:00	6	Velocidad del viento	1.6
166898	7	Sololá	712	San Antonio Palopó	9	San Antonio Palopo	4	Abril	2023-04-22T00:00:00	2024-11-08T23:00:00	7	Dirección del viento	1.61
166899	7	Sololá	712	San Antonio Palopó	9	San Antonio Palopo	4	Abril	2023-04-22T00:00:00	2024-11-08T23:00:00	1	Precipitación	0
166900	7	Sololá	712	San Antonio Palopó	9	San Antonio Palopo	4	Abril	2023-04-22T00:00:00	2024-11-08T23:00:00	8	Radiación solar	0
166901	7	Sololá	712	San Antonio Palopó	9	San Antonio Palopo	4	Abril	2023-04-23T00:00:00	2024-11-08T00:00:00	2	Temperatura media	20.9
166902	7	Sololá	712	San Antonio Palopó	9	San Antonio Palopo	4	Abril	2023-04-23T00:00:00	2024-11-08T00:00:00	4	Temperatura máxima	21.1
166903	7	Sololá	712	San Antonio Palopó	9	San Antonio Palopo	4	Abril	2023-04-23T00:00:00	2024-11-08T00:00:00	3	Temperatura mínima	20
166904	7	Sololá	712	San Antonio Palopó	9	San Antonio Palopo	4	Abril	2023-04-23T00:00:00	2024-11-08T00:00:00	5	Humedad	68
166905	7	Sololá	712	San Antonio Palopó	9	San Antonio Palopo	4	Abril	2023-04-23T00:00:00	2024-11-08T00:00:00	6	Velocidad del viento	6.4
166906	7	Sololá	712	San Antonio Palopó	9	San Antonio Palopo	4	Abril	2023-04-23T00:00:00	2024-11-08T00:00:00	7	Dirección del viento	6.44
166907	7	Sololá	712	San Antonio Palopó	9	San Antonio Palopo	4	Abril	2023-04-23T00:00:00	2024-11-08T00:00:00	1	Precipitación	0
166908	7	Sololá	712	San Antonio Palopó	9	San Antonio Palopo	4	Abril	2023-04-23T00:00:00	2024-11-08T00:00:00	8	Radiación solar	0
166909	7	Sololá	712	San Antonio Palopó	9	San Antonio Palopo	4	Abril	2023-04-23T00:00:00	2024-11-08T01:00:00	2	Temperatura media	20.3
166910	7	Sololá	712	San Antonio Palopó	9	San Antonio Palopo	4	Abril	2023-04-23T00:00:00	2024-11-08T01:00:00	4	Temperatura máxima	20.9
166911	7	Sololá	712	San Antonio Palopó	9	San Antonio Palopo	4	Abril	2023-04-23T00:00:00	2024-11-08T01:00:00	3	Temperatura mínima	20.2
166912	7	Sololá	712	San Antonio Palopó	9	San Antonio Palopo	4	Abril	2023-04-23T00:00:00	2024-11-08T01:00:00	5	Humedad	72
166913	7	Sololá	712	San Antonio Palopó	9	San Antonio Palopo	4	Abril	2023-04-23T00:00:00	2024-11-08T01:00:00	6	Velocidad del viento	8
166914	7	Sololá	712	San Antonio Palopó	9	San Antonio Palopo	4	Abril	2023-04-23T00:00:00	2024-11-08T01:00:00	7	Dirección del viento	8.05
166915	7	Sololá	712	San Antonio Palopó	9	San Antonio Palopo	4	Abril	2023-04-23T00:00:00	2024-11-08T01:00:00	1	Precipitación	0
166916	7	Sololá	712	San Antonio Palopó	9	San Antonio Palopo	4	Abril	2023-04-23T00:00:00	2024-11-08T01:00:00	8	Radiación solar	0
166917	7	Sololá	712	San Antonio Palopó	9	San Antonio Palopo	4	Abril	2023-04-23T00:00:00	2024-11-08T02:00:00	2	Temperatura media	19.7
166918	7	Sololá	712	San Antonio Palopó	9	San Antonio Palopo	4	Abril	2023-04-23T00:00:00	2024-11-08T02:00:00	4	Temperatura máxima	20.4
166919	7	Sololá	712	San Antonio Palopó	9	San Antonio Palopo	4	Abril	2023-04-23T00:00:00	2024-11-08T02:00:00	3	Temperatura mínima	19.7
166920	7	Sololá	712	San Antonio Palopó	9	San Antonio Palopo	4	Abril	2023-04-23T00:00:00	2024-11-08T02:00:00	5	Humedad	71
166921	7	Sololá	712	San Antonio Palopó	9	San Antonio Palopo	4	Abril	2023-04-23T00:00:00	2024-11-08T02:00:00	6	Velocidad del viento	8
166922	7	Sololá	712	San Antonio Palopó	9	San Antonio Palopo	4	Abril	2023-04-23T00:00:00	2024-11-08T02:00:00	7	Dirección del viento	8.05
166923	7	Sololá	712	San Antonio Palopó	9	San Antonio Palopo	4	Abril	2023-04-23T00:00:00	2024-11-08T02:00:00	1	Precipitación	0
166924	7	Sololá	712	San Antonio Palopó	9	San Antonio Palopo	4	Abril	2023-04-23T00:00:00	2024-11-08T02:00:00	8	Radiación solar	0
166925	7	Sololá	712	San Antonio Palopó	9	San Antonio Palopo	4	Abril	2023-04-23T00:00:00	2024-11-08T03:00:00	2	Temperatura media	19.8
166926	7	Sololá	712	San Antonio Palopó	9	San Antonio Palopo	4	Abril	2023-04-23T00:00:00	2024-11-08T03:00:00	4	Temperatura máxima	19.8
166927	7	Sololá	712	San Antonio Palopó	9	San Antonio Palopo	4	Abril	2023-04-23T00:00:00	2024-11-08T03:00:00	3	Temperatura mínima	19.4
166928	7	Sololá	712	San Antonio Palopó	9	San Antonio Palopo	4	Abril	2023-04-23T00:00:00	2024-11-08T03:00:00	5	Humedad	71
166929	7	Sololá	712	San Antonio Palopó	9	San Antonio Palopo	4	Abril	2023-04-23T00:00:00	2024-11-08T03:00:00	6	Velocidad del viento	9.7
166930	7	Sololá	712	San Antonio Palopó	9	San Antonio Palopo	4	Abril	2023-04-23T00:00:00	2024-11-08T03:00:00	7	Dirección del viento	9.66
166931	7	Sololá	712	San Antonio Palopó	9	San Antonio Palopo	4	Abril	2023-04-23T00:00:00	2024-11-08T03:00:00	1	Precipitación	0
166932	7	Sololá	712	San Antonio Palopó	9	San Antonio Palopo	4	Abril	2023-04-23T00:00:00	2024-11-08T03:00:00	8	Radiación solar	0
166933	7	Sololá	712	San Antonio Palopó	9	San Antonio Palopo	4	Abril	2023-04-23T00:00:00	2024-11-08T04:00:00	2	Temperatura media	18.9
166934	7	Sololá	712	San Antonio Palopó	9	San Antonio Palopo	4	Abril	2023-04-23T00:00:00	2024-11-08T04:00:00	4	Temperatura máxima	19.8
166935	7	Sololá	712	San Antonio Palopó	9	San Antonio Palopo	4	Abril	2023-04-23T00:00:00	2024-11-08T04:00:00	3	Temperatura mínima	18.9
166936	7	Sololá	712	San Antonio Palopó	9	San Antonio Palopo	4	Abril	2023-04-23T00:00:00	2024-11-08T04:00:00	5	Humedad	73
166937	7	Sololá	712	San Antonio Palopó	9	San Antonio Palopo	4	Abril	2023-04-23T00:00:00	2024-11-08T04:00:00	6	Velocidad del viento	9.7
166938	7	Sololá	712	San Antonio Palopó	9	San Antonio Palopo	4	Abril	2023-04-23T00:00:00	2024-11-08T04:00:00	7	Dirección del viento	9.66
166939	7	Sololá	712	San Antonio Palopó	9	San Antonio Palopo	4	Abril	2023-04-23T00:00:00	2024-11-08T04:00:00	1	Precipitación	0
166940	7	Sololá	712	San Antonio Palopó	9	San Antonio Palopo	4	Abril	2023-04-23T00:00:00	2024-11-08T04:00:00	8	Radiación solar	0
166941	7	Sololá	712	San Antonio Palopó	9	San Antonio Palopo	4	Abril	2023-04-23T00:00:00	2024-11-08T05:00:00	2	Temperatura media	19.1
166942	7	Sololá	712	San Antonio Palopó	9	San Antonio Palopo	4	Abril	2023-04-23T00:00:00	2024-11-08T05:00:00	4	Temperatura máxima	19.1
166943	7	Sololá	712	San Antonio Palopó	9	San Antonio Palopo	4	Abril	2023-04-23T00:00:00	2024-11-08T05:00:00	3	Temperatura mínima	18.8
166944	7	Sololá	712	San Antonio Palopó	9	San Antonio Palopo	4	Abril	2023-04-23T00:00:00	2024-11-08T05:00:00	5	Humedad	75
166945	7	Sololá	712	San Antonio Palopó	9	San Antonio Palopo	4	Abril	2023-04-23T00:00:00	2024-11-08T05:00:00	6	Velocidad del viento	8
166946	7	Sololá	712	San Antonio Palopó	9	San Antonio Palopo	4	Abril	2023-04-23T00:00:00	2024-11-08T05:00:00	7	Dirección del viento	8.05
166947	7	Sololá	712	San Antonio Palopó	9	San Antonio Palopo	4	Abril	2023-04-23T00:00:00	2024-11-08T05:00:00	1	Precipitación	0
166948	7	Sololá	712	San Antonio Palopó	9	San Antonio Palopo	4	Abril	2023-04-23T00:00:00	2024-11-08T05:00:00	8	Radiación solar	0
166949	7	Sololá	712	San Antonio Palopó	9	San Antonio Palopo	4	Abril	2023-04-23T00:00:00	2024-11-08T06:00:00	2	Temperatura media	18.4
166950	7	Sololá	712	San Antonio Palopó	9	San Antonio Palopo	4	Abril	2023-04-23T00:00:00	2024-11-08T06:00:00	4	Temperatura máxima	19.1
166951	7	Sololá	712	San Antonio Palopó	9	San Antonio Palopo	4	Abril	2023-04-23T00:00:00	2024-11-08T06:00:00	3	Temperatura mínima	18.4
166952	7	Sololá	712	San Antonio Palopó	9	San Antonio Palopo	4	Abril	2023-04-23T00:00:00	2024-11-08T06:00:00	5	Humedad	76
166953	7	Sololá	712	San Antonio Palopó	9	San Antonio Palopo	4	Abril	2023-04-23T00:00:00	2024-11-08T06:00:00	6	Velocidad del viento	6.4
166954	7	Sololá	712	San Antonio Palopó	9	San Antonio Palopo	4	Abril	2023-04-23T00:00:00	2024-11-08T06:00:00	7	Dirección del viento	6.44
166955	7	Sololá	712	San Antonio Palopó	9	San Antonio Palopo	4	Abril	2023-04-23T00:00:00	2024-11-08T06:00:00	1	Precipitación	0
166956	7	Sololá	712	San Antonio Palopó	9	San Antonio Palopo	4	Abril	2023-04-23T00:00:00	2024-11-08T06:00:00	8	Radiación solar	1
166957	7	Sololá	712	San Antonio Palopó	9	San Antonio Palopo	4	Abril	2023-04-23T00:00:00	2024-11-08T07:00:00	2	Temperatura media	17.9
166958	7	Sololá	712	San Antonio Palopó	9	San Antonio Palopo	4	Abril	2023-04-23T00:00:00	2024-11-08T07:00:00	4	Temperatura máxima	18.3
166959	7	Sololá	712	San Antonio Palopó	9	San Antonio Palopo	4	Abril	2023-04-23T00:00:00	2024-11-08T07:00:00	3	Temperatura mínima	17.9
166960	7	Sololá	712	San Antonio Palopó	9	San Antonio Palopo	4	Abril	2023-04-23T00:00:00	2024-11-08T07:00:00	5	Humedad	78
166961	7	Sololá	712	San Antonio Palopó	9	San Antonio Palopo	4	Abril	2023-04-23T00:00:00	2024-11-08T07:00:00	6	Velocidad del viento	3.2
166962	7	Sololá	712	San Antonio Palopó	9	San Antonio Palopo	4	Abril	2023-04-23T00:00:00	2024-11-08T07:00:00	7	Dirección del viento	3.22
166963	7	Sololá	712	San Antonio Palopó	9	San Antonio Palopo	4	Abril	2023-04-23T00:00:00	2024-11-08T07:00:00	1	Precipitación	0
166964	7	Sololá	712	San Antonio Palopó	9	San Antonio Palopo	4	Abril	2023-04-23T00:00:00	2024-11-08T07:00:00	8	Radiación solar	35
166965	7	Sololá	712	San Antonio Palopó	9	San Antonio Palopo	4	Abril	2023-04-23T00:00:00	2024-11-08T08:00:00	2	Temperatura media	20.2
166966	7	Sololá	712	San Antonio Palopó	9	San Antonio Palopo	4	Abril	2023-04-23T00:00:00	2024-11-08T08:00:00	4	Temperatura máxima	20.2
166967	7	Sololá	712	San Antonio Palopó	9	San Antonio Palopo	4	Abril	2023-04-23T00:00:00	2024-11-08T08:00:00	3	Temperatura mínima	17.9
166968	7	Sololá	712	San Antonio Palopó	9	San Antonio Palopo	4	Abril	2023-04-23T00:00:00	2024-11-08T08:00:00	5	Humedad	74
166969	7	Sololá	712	San Antonio Palopó	9	San Antonio Palopo	4	Abril	2023-04-23T00:00:00	2024-11-08T08:00:00	6	Velocidad del viento	1.6
166970	7	Sololá	712	San Antonio Palopó	9	San Antonio Palopo	4	Abril	2023-04-23T00:00:00	2024-11-08T08:00:00	7	Dirección del viento	1.61
166971	7	Sololá	712	San Antonio Palopó	9	San Antonio Palopo	4	Abril	2023-04-23T00:00:00	2024-11-08T08:00:00	1	Precipitación	0
166972	7	Sololá	712	San Antonio Palopó	9	San Antonio Palopo	4	Abril	2023-04-23T00:00:00	2024-11-08T08:00:00	8	Radiación solar	161
166973	7	Sololá	712	San Antonio Palopó	9	San Antonio Palopo	4	Abril	2023-04-23T00:00:00	2024-11-08T09:00:00	2	Temperatura media	20.8
166974	7	Sololá	712	San Antonio Palopó	9	San Antonio Palopo	4	Abril	2023-04-23T00:00:00	2024-11-08T09:00:00	4	Temperatura máxima	21.1
166975	7	Sololá	712	San Antonio Palopó	9	San Antonio Palopo	4	Abril	2023-04-23T00:00:00	2024-11-08T09:00:00	3	Temperatura mínima	20.2
166976	7	Sololá	712	San Antonio Palopó	9	San Antonio Palopo	4	Abril	2023-04-23T00:00:00	2024-11-08T09:00:00	5	Humedad	72
166977	7	Sololá	712	San Antonio Palopó	9	San Antonio Palopo	4	Abril	2023-04-23T00:00:00	2024-11-08T09:00:00	6	Velocidad del viento	1.6
166978	7	Sololá	712	San Antonio Palopó	9	San Antonio Palopo	4	Abril	2023-04-23T00:00:00	2024-11-08T09:00:00	7	Dirección del viento	1.61
166979	7	Sololá	712	San Antonio Palopó	9	San Antonio Palopo	4	Abril	2023-04-23T00:00:00	2024-11-08T09:00:00	1	Precipitación	0
166980	7	Sololá	712	San Antonio Palopó	9	San Antonio Palopo	4	Abril	2023-04-23T00:00:00	2024-11-08T09:00:00	8	Radiación solar	422
166981	7	Sololá	712	San Antonio Palopó	9	San Antonio Palopo	4	Abril	2023-04-23T00:00:00	2024-11-08T10:00:00	2	Temperatura media	21.9
166982	7	Sololá	712	San Antonio Palopó	9	San Antonio Palopo	4	Abril	2023-04-23T00:00:00	2024-11-08T10:00:00	4	Temperatura máxima	21.9
166983	7	Sololá	712	San Antonio Palopó	9	San Antonio Palopo	4	Abril	2023-04-23T00:00:00	2024-11-08T10:00:00	3	Temperatura mínima	20.8
166984	7	Sololá	712	San Antonio Palopó	9	San Antonio Palopo	4	Abril	2023-04-23T00:00:00	2024-11-08T10:00:00	5	Humedad	68
166985	7	Sololá	712	San Antonio Palopó	9	San Antonio Palopo	4	Abril	2023-04-23T00:00:00	2024-11-08T10:00:00	6	Velocidad del viento	3.2
166986	7	Sololá	712	San Antonio Palopó	9	San Antonio Palopo	4	Abril	2023-04-23T00:00:00	2024-11-08T10:00:00	7	Dirección del viento	3.22
166987	7	Sololá	712	San Antonio Palopó	9	San Antonio Palopo	4	Abril	2023-04-23T00:00:00	2024-11-08T10:00:00	1	Precipitación	0
166988	7	Sololá	712	San Antonio Palopó	9	San Antonio Palopo	4	Abril	2023-04-23T00:00:00	2024-11-08T10:00:00	8	Radiación solar	655
166989	7	Sololá	712	San Antonio Palopó	9	San Antonio Palopo	4	Abril	2023-04-23T00:00:00	2024-11-08T11:00:00	2	Temperatura media	22.9
166990	7	Sololá	712	San Antonio Palopó	9	San Antonio Palopo	4	Abril	2023-04-23T00:00:00	2024-11-08T11:00:00	4	Temperatura máxima	22.9
166991	7	Sololá	712	San Antonio Palopó	9	San Antonio Palopo	4	Abril	2023-04-23T00:00:00	2024-11-08T11:00:00	3	Temperatura mínima	21.9
166992	7	Sololá	712	San Antonio Palopó	9	San Antonio Palopo	4	Abril	2023-04-23T00:00:00	2024-11-08T11:00:00	5	Humedad	66
166993	7	Sololá	712	San Antonio Palopó	9	San Antonio Palopo	4	Abril	2023-04-23T00:00:00	2024-11-08T11:00:00	6	Velocidad del viento	4.8
166994	7	Sololá	712	San Antonio Palopó	9	San Antonio Palopo	4	Abril	2023-04-23T00:00:00	2024-11-08T11:00:00	7	Dirección del viento	4.83
166995	7	Sololá	712	San Antonio Palopó	9	San Antonio Palopo	4	Abril	2023-04-23T00:00:00	2024-11-08T11:00:00	1	Precipitación	0
166996	7	Sololá	712	San Antonio Palopó	9	San Antonio Palopo	4	Abril	2023-04-23T00:00:00	2024-11-08T11:00:00	8	Radiación solar	824
166997	7	Sololá	712	San Antonio Palopó	9	San Antonio Palopo	4	Abril	2023-04-23T00:00:00	2024-11-08T12:00:00	2	Temperatura media	23.7
166998	7	Sololá	712	San Antonio Palopó	9	San Antonio Palopo	4	Abril	2023-04-23T00:00:00	2024-11-08T12:00:00	4	Temperatura máxima	23.8
166999	7	Sololá	712	San Antonio Palopó	9	San Antonio Palopo	4	Abril	2023-04-23T00:00:00	2024-11-08T12:00:00	3	Temperatura mínima	22.8
167000	7	Sololá	712	San Antonio Palopó	9	San Antonio Palopo	4	Abril	2023-04-23T00:00:00	2024-11-08T12:00:00	5	Humedad	70
167001	7	Sololá	712	San Antonio Palopó	9	San Antonio Palopo	4	Abril	2023-04-23T00:00:00	2024-11-08T12:00:00	6	Velocidad del viento	4.8
167002	7	Sololá	712	San Antonio Palopó	9	San Antonio Palopo	4	Abril	2023-04-23T00:00:00	2024-11-08T12:00:00	7	Dirección del viento	4.83
167003	7	Sololá	712	San Antonio Palopó	9	San Antonio Palopo	4	Abril	2023-04-23T00:00:00	2024-11-08T12:00:00	1	Precipitación	0
167004	7	Sololá	712	San Antonio Palopó	9	San Antonio Palopo	4	Abril	2023-04-23T00:00:00	2024-11-08T12:00:00	8	Radiación solar	855
167005	7	Sololá	712	San Antonio Palopó	9	San Antonio Palopo	4	Abril	2023-04-23T00:00:00	2024-11-08T13:00:00	2	Temperatura media	24.7
167006	7	Sololá	712	San Antonio Palopó	9	San Antonio Palopo	4	Abril	2023-04-23T00:00:00	2024-11-08T13:00:00	4	Temperatura máxima	25.1
167007	7	Sololá	712	San Antonio Palopó	9	San Antonio Palopo	4	Abril	2023-04-23T00:00:00	2024-11-08T13:00:00	3	Temperatura mínima	23.7
167008	7	Sololá	712	San Antonio Palopó	9	San Antonio Palopo	4	Abril	2023-04-23T00:00:00	2024-11-08T13:00:00	5	Humedad	68
167009	7	Sololá	712	San Antonio Palopó	9	San Antonio Palopo	4	Abril	2023-04-23T00:00:00	2024-11-08T13:00:00	6	Velocidad del viento	8
167010	7	Sololá	712	San Antonio Palopó	9	San Antonio Palopo	4	Abril	2023-04-23T00:00:00	2024-11-08T13:00:00	7	Dirección del viento	8.05
167011	7	Sololá	712	San Antonio Palopó	9	San Antonio Palopo	4	Abril	2023-04-23T00:00:00	2024-11-08T13:00:00	1	Precipitación	0
167012	7	Sololá	712	San Antonio Palopó	9	San Antonio Palopo	4	Abril	2023-04-23T00:00:00	2024-11-08T13:00:00	8	Radiación solar	882
167013	7	Sololá	712	San Antonio Palopó	9	San Antonio Palopo	4	Abril	2023-04-23T00:00:00	2024-11-08T14:00:00	2	Temperatura media	22.9
167014	7	Sololá	712	San Antonio Palopó	9	San Antonio Palopo	4	Abril	2023-04-23T00:00:00	2024-11-08T14:00:00	4	Temperatura máxima	24.7
167015	7	Sololá	712	San Antonio Palopó	9	San Antonio Palopo	4	Abril	2023-04-23T00:00:00	2024-11-08T14:00:00	3	Temperatura mínima	22.8
167016	7	Sololá	712	San Antonio Palopó	9	San Antonio Palopo	4	Abril	2023-04-23T00:00:00	2024-11-08T14:00:00	5	Humedad	74
167017	7	Sololá	712	San Antonio Palopó	9	San Antonio Palopo	4	Abril	2023-04-23T00:00:00	2024-11-08T14:00:00	6	Velocidad del viento	14.5
167018	7	Sololá	712	San Antonio Palopó	9	San Antonio Palopo	4	Abril	2023-04-23T00:00:00	2024-11-08T14:00:00	7	Dirección del viento	14.48
167019	7	Sololá	712	San Antonio Palopó	9	San Antonio Palopo	4	Abril	2023-04-23T00:00:00	2024-11-08T14:00:00	1	Precipitación	0
167020	7	Sololá	712	San Antonio Palopó	9	San Antonio Palopo	4	Abril	2023-04-23T00:00:00	2024-11-08T14:00:00	8	Radiación solar	568
167021	7	Sololá	712	San Antonio Palopó	9	San Antonio Palopo	4	Abril	2023-04-23T00:00:00	2024-11-08T15:00:00	2	Temperatura media	22
167022	7	Sololá	712	San Antonio Palopó	9	San Antonio Palopo	4	Abril	2023-04-23T00:00:00	2024-11-08T15:00:00	4	Temperatura máxima	23.7
167023	7	Sololá	712	San Antonio Palopó	9	San Antonio Palopo	4	Abril	2023-04-23T00:00:00	2024-11-08T15:00:00	3	Temperatura mínima	21.9
167024	7	Sololá	712	San Antonio Palopó	9	San Antonio Palopo	4	Abril	2023-04-23T00:00:00	2024-11-08T15:00:00	5	Humedad	75
167025	7	Sololá	712	San Antonio Palopó	9	San Antonio Palopo	4	Abril	2023-04-23T00:00:00	2024-11-08T15:00:00	6	Velocidad del viento	9.7
167026	7	Sololá	712	San Antonio Palopó	9	San Antonio Palopo	4	Abril	2023-04-23T00:00:00	2024-11-08T15:00:00	7	Dirección del viento	9.66
167027	7	Sololá	712	San Antonio Palopó	9	San Antonio Palopo	4	Abril	2023-04-23T00:00:00	2024-11-08T15:00:00	1	Precipitación	0
167028	7	Sololá	712	San Antonio Palopó	9	San Antonio Palopo	4	Abril	2023-04-23T00:00:00	2024-11-08T15:00:00	8	Radiación solar	411
167029	7	Sololá	712	San Antonio Palopó	9	San Antonio Palopo	4	Abril	2023-04-23T00:00:00	2024-11-08T16:00:00	2	Temperatura media	21.8
167030	7	Sololá	712	San Antonio Palopó	9	San Antonio Palopo	4	Abril	2023-04-23T00:00:00	2024-11-08T16:00:00	4	Temperatura máxima	22.3
167031	7	Sololá	712	San Antonio Palopó	9	San Antonio Palopo	4	Abril	2023-04-23T00:00:00	2024-11-08T16:00:00	3	Temperatura mínima	21.7
167032	7	Sololá	712	San Antonio Palopó	9	San Antonio Palopo	4	Abril	2023-04-23T00:00:00	2024-11-08T16:00:00	5	Humedad	77
167033	7	Sololá	712	San Antonio Palopó	9	San Antonio Palopo	4	Abril	2023-04-23T00:00:00	2024-11-08T16:00:00	6	Velocidad del viento	9.7
167034	7	Sololá	712	San Antonio Palopó	9	San Antonio Palopo	4	Abril	2023-04-23T00:00:00	2024-11-08T16:00:00	7	Dirección del viento	9.66
167035	7	Sololá	712	San Antonio Palopó	9	San Antonio Palopo	4	Abril	2023-04-23T00:00:00	2024-11-08T16:00:00	1	Precipitación	0
167036	7	Sololá	712	San Antonio Palopó	9	San Antonio Palopo	4	Abril	2023-04-23T00:00:00	2024-11-08T16:00:00	8	Radiación solar	143
167037	7	Sololá	712	San Antonio Palopó	9	San Antonio Palopo	4	Abril	2023-04-23T00:00:00	2024-11-08T17:00:00	2	Temperatura media	21
167038	7	Sololá	712	San Antonio Palopó	9	San Antonio Palopo	4	Abril	2023-04-23T00:00:00	2024-11-08T17:00:00	4	Temperatura máxima	21.9
167039	7	Sololá	712	San Antonio Palopó	9	San Antonio Palopo	4	Abril	2023-04-23T00:00:00	2024-11-08T17:00:00	3	Temperatura mínima	21
167040	7	Sololá	712	San Antonio Palopó	9	San Antonio Palopo	4	Abril	2023-04-23T00:00:00	2024-11-08T17:00:00	5	Humedad	80
167041	7	Sololá	712	San Antonio Palopó	9	San Antonio Palopo	4	Abril	2023-04-23T00:00:00	2024-11-08T17:00:00	6	Velocidad del viento	9.7
167042	7	Sololá	712	San Antonio Palopó	9	San Antonio Palopo	4	Abril	2023-04-23T00:00:00	2024-11-08T17:00:00	7	Dirección del viento	9.66
167043	7	Sololá	712	San Antonio Palopó	9	San Antonio Palopo	4	Abril	2023-04-23T00:00:00	2024-11-08T17:00:00	1	Precipitación	0
167044	7	Sololá	712	San Antonio Palopó	9	San Antonio Palopo	4	Abril	2023-04-23T00:00:00	2024-11-08T17:00:00	8	Radiación solar	105
167045	7	Sololá	712	San Antonio Palopó	9	San Antonio Palopo	4	Abril	2023-04-23T00:00:00	2024-11-08T18:00:00	2	Temperatura media	20.3
167046	7	Sololá	712	San Antonio Palopó	9	San Antonio Palopo	4	Abril	2023-04-23T00:00:00	2024-11-08T18:00:00	4	Temperatura máxima	21.1
167047	7	Sololá	712	San Antonio Palopó	9	San Antonio Palopo	4	Abril	2023-04-23T00:00:00	2024-11-08T18:00:00	3	Temperatura mínima	20.1
167048	7	Sololá	712	San Antonio Palopó	9	San Antonio Palopo	4	Abril	2023-04-23T00:00:00	2024-11-08T18:00:00	5	Humedad	82
167049	7	Sololá	712	San Antonio Palopó	9	San Antonio Palopo	4	Abril	2023-04-23T00:00:00	2024-11-08T18:00:00	6	Velocidad del viento	8
167050	7	Sololá	712	San Antonio Palopó	9	San Antonio Palopo	4	Abril	2023-04-23T00:00:00	2024-11-08T18:00:00	7	Dirección del viento	8.05
167051	7	Sololá	712	San Antonio Palopó	9	San Antonio Palopo	4	Abril	2023-04-23T00:00:00	2024-11-08T18:00:00	1	Precipitación	0
167052	7	Sololá	712	San Antonio Palopó	9	San Antonio Palopo	4	Abril	2023-04-23T00:00:00	2024-11-08T18:00:00	8	Radiación solar	11
167053	7	Sololá	712	San Antonio Palopó	9	San Antonio Palopo	4	Abril	2023-04-23T00:00:00	2024-11-08T19:00:00	2	Temperatura media	20.3
167054	7	Sololá	712	San Antonio Palopó	9	San Antonio Palopo	4	Abril	2023-04-23T00:00:00	2024-11-08T19:00:00	4	Temperatura máxima	20.3
167055	7	Sololá	712	San Antonio Palopó	9	San Antonio Palopo	4	Abril	2023-04-23T00:00:00	2024-11-08T19:00:00	3	Temperatura mínima	20.2
167056	7	Sololá	712	San Antonio Palopó	9	San Antonio Palopo	4	Abril	2023-04-23T00:00:00	2024-11-08T19:00:00	5	Humedad	82
167057	7	Sololá	712	San Antonio Palopó	9	San Antonio Palopo	4	Abril	2023-04-23T00:00:00	2024-11-08T19:00:00	6	Velocidad del viento	3.2
167058	7	Sololá	712	San Antonio Palopó	9	San Antonio Palopo	4	Abril	2023-04-23T00:00:00	2024-11-08T19:00:00	7	Dirección del viento	3.22
167059	7	Sololá	712	San Antonio Palopó	9	San Antonio Palopo	4	Abril	2023-04-23T00:00:00	2024-11-08T19:00:00	1	Precipitación	0
167060	7	Sololá	712	San Antonio Palopó	9	San Antonio Palopo	4	Abril	2023-04-23T00:00:00	2024-11-08T19:00:00	8	Radiación solar	0
167061	7	Sololá	712	San Antonio Palopó	9	San Antonio Palopo	4	Abril	2023-04-23T00:00:00	2024-11-08T20:00:00	2	Temperatura media	20.1
167062	7	Sololá	712	San Antonio Palopó	9	San Antonio Palopo	4	Abril	2023-04-23T00:00:00	2024-11-08T20:00:00	4	Temperatura máxima	20.3
167063	7	Sololá	712	San Antonio Palopó	9	San Antonio Palopo	4	Abril	2023-04-23T00:00:00	2024-11-08T20:00:00	3	Temperatura mínima	20.1
167064	7	Sololá	712	San Antonio Palopó	9	San Antonio Palopo	4	Abril	2023-04-23T00:00:00	2024-11-08T20:00:00	5	Humedad	82
167065	7	Sololá	712	San Antonio Palopó	9	San Antonio Palopo	4	Abril	2023-04-23T00:00:00	2024-11-08T20:00:00	6	Velocidad del viento	1.6
167066	7	Sololá	712	San Antonio Palopó	9	San Antonio Palopo	4	Abril	2023-04-23T00:00:00	2024-11-08T20:00:00	7	Dirección del viento	1.61
167067	7	Sololá	712	San Antonio Palopó	9	San Antonio Palopo	4	Abril	2023-04-23T00:00:00	2024-11-08T20:00:00	1	Precipitación	0
167068	7	Sololá	712	San Antonio Palopó	9	San Antonio Palopo	4	Abril	2023-04-23T00:00:00	2024-11-08T20:00:00	8	Radiación solar	0
167069	7	Sololá	712	San Antonio Palopó	9	San Antonio Palopo	4	Abril	2023-04-23T00:00:00	2024-11-08T21:00:00	2	Temperatura media	19.9
167070	7	Sololá	712	San Antonio Palopó	9	San Antonio Palopo	4	Abril	2023-04-23T00:00:00	2024-11-08T21:00:00	4	Temperatura máxima	20.2
167071	7	Sololá	712	San Antonio Palopó	9	San Antonio Palopo	4	Abril	2023-04-23T00:00:00	2024-11-08T21:00:00	3	Temperatura mínima	19.7
167072	7	Sololá	712	San Antonio Palopó	9	San Antonio Palopo	4	Abril	2023-04-23T00:00:00	2024-11-08T21:00:00	5	Humedad	82
167073	7	Sololá	712	San Antonio Palopó	9	San Antonio Palopo	4	Abril	2023-04-23T00:00:00	2024-11-08T21:00:00	6	Velocidad del viento	3.2
167074	7	Sololá	712	San Antonio Palopó	9	San Antonio Palopo	4	Abril	2023-04-23T00:00:00	2024-11-08T21:00:00	7	Dirección del viento	3.22
167075	7	Sololá	712	San Antonio Palopó	9	San Antonio Palopo	4	Abril	2023-04-23T00:00:00	2024-11-08T21:00:00	1	Precipitación	0
167076	7	Sololá	712	San Antonio Palopó	9	San Antonio Palopo	4	Abril	2023-04-23T00:00:00	2024-11-08T21:00:00	8	Radiación solar	0
167077	7	Sololá	712	San Antonio Palopó	9	San Antonio Palopo	4	Abril	2023-04-23T00:00:00	2024-11-08T22:00:00	2	Temperatura media	20
167078	7	Sololá	712	San Antonio Palopó	9	San Antonio Palopo	4	Abril	2023-04-23T00:00:00	2024-11-08T22:00:00	4	Temperatura máxima	20.1
167079	7	Sololá	712	San Antonio Palopó	9	San Antonio Palopo	4	Abril	2023-04-23T00:00:00	2024-11-08T22:00:00	3	Temperatura mínima	19.8
167080	7	Sololá	712	San Antonio Palopó	9	San Antonio Palopo	4	Abril	2023-04-23T00:00:00	2024-11-08T22:00:00	5	Humedad	81
167081	7	Sololá	712	San Antonio Palopó	9	San Antonio Palopo	4	Abril	2023-04-23T00:00:00	2024-11-08T22:00:00	6	Velocidad del viento	1.6
167082	7	Sololá	712	San Antonio Palopó	9	San Antonio Palopo	4	Abril	2023-04-23T00:00:00	2024-11-08T22:00:00	7	Dirección del viento	1.61
167083	7	Sololá	712	San Antonio Palopó	9	San Antonio Palopo	4	Abril	2023-04-23T00:00:00	2024-11-08T22:00:00	1	Precipitación	0
167084	7	Sololá	712	San Antonio Palopó	9	San Antonio Palopo	4	Abril	2023-04-23T00:00:00	2024-11-08T22:00:00	8	Radiación solar	0
167085	7	Sololá	712	San Antonio Palopó	9	San Antonio Palopo	4	Abril	2023-04-23T00:00:00	2024-11-08T23:00:00	2	Temperatura media	20
167086	7	Sololá	712	San Antonio Palopó	9	San Antonio Palopo	4	Abril	2023-04-23T00:00:00	2024-11-08T23:00:00	4	Temperatura máxima	20.1
167087	7	Sololá	712	San Antonio Palopó	9	San Antonio Palopo	4	Abril	2023-04-23T00:00:00	2024-11-08T23:00:00	3	Temperatura mínima	19.8
167088	7	Sololá	712	San Antonio Palopó	9	San Antonio Palopo	4	Abril	2023-04-23T00:00:00	2024-11-08T23:00:00	5	Humedad	80
167089	7	Sololá	712	San Antonio Palopó	9	San Antonio Palopo	4	Abril	2023-04-23T00:00:00	2024-11-08T23:00:00	6	Velocidad del viento	1.6
167090	7	Sololá	712	San Antonio Palopó	9	San Antonio Palopo	4	Abril	2023-04-23T00:00:00	2024-11-08T23:00:00	7	Dirección del viento	1.61
167091	7	Sololá	712	San Antonio Palopó	9	San Antonio Palopo	4	Abril	2023-04-23T00:00:00	2024-11-08T23:00:00	1	Precipitación	0
167092	7	Sololá	712	San Antonio Palopó	9	San Antonio Palopo	4	Abril	2023-04-23T00:00:00	2024-11-08T23:00:00	8	Radiación solar	0
167093	7	Sololá	712	San Antonio Palopó	9	San Antonio Palopo	4	Abril	2023-04-24T00:00:00	2024-11-08T00:00:00	2	Temperatura media	19.7
167094	7	Sololá	712	San Antonio Palopó	9	San Antonio Palopo	4	Abril	2023-04-24T00:00:00	2024-11-08T00:00:00	4	Temperatura máxima	20.1
167095	7	Sololá	712	San Antonio Palopó	9	San Antonio Palopo	4	Abril	2023-04-24T00:00:00	2024-11-08T00:00:00	3	Temperatura mínima	19.7
167096	7	Sololá	712	San Antonio Palopó	9	San Antonio Palopo	4	Abril	2023-04-24T00:00:00	2024-11-08T00:00:00	5	Humedad	81
167097	7	Sololá	712	San Antonio Palopó	9	San Antonio Palopo	4	Abril	2023-04-24T00:00:00	2024-11-08T00:00:00	6	Velocidad del viento	1.6
167098	7	Sololá	712	San Antonio Palopó	9	San Antonio Palopo	4	Abril	2023-04-24T00:00:00	2024-11-08T00:00:00	7	Dirección del viento	1.61
167099	7	Sololá	712	San Antonio Palopó	9	San Antonio Palopo	4	Abril	2023-04-24T00:00:00	2024-11-08T00:00:00	1	Precipitación	0
167100	7	Sololá	712	San Antonio Palopó	9	San Antonio Palopo	4	Abril	2023-04-24T00:00:00	2024-11-08T00:00:00	8	Radiación solar	0
167101	7	Sololá	712	San Antonio Palopó	9	San Antonio Palopo	4	Abril	2023-04-24T00:00:00	2024-11-08T01:00:00	2	Temperatura media	19.1
167102	7	Sololá	712	San Antonio Palopó	9	San Antonio Palopo	4	Abril	2023-04-24T00:00:00	2024-11-08T01:00:00	4	Temperatura máxima	19.7
167103	7	Sololá	712	San Antonio Palopó	9	San Antonio Palopo	4	Abril	2023-04-24T00:00:00	2024-11-08T01:00:00	3	Temperatura mínima	18.8
167104	7	Sololá	712	San Antonio Palopó	9	San Antonio Palopo	4	Abril	2023-04-24T00:00:00	2024-11-08T01:00:00	5	Humedad	79
167105	7	Sololá	712	San Antonio Palopó	9	San Antonio Palopo	4	Abril	2023-04-24T00:00:00	2024-11-08T01:00:00	6	Velocidad del viento	3.2
167106	7	Sololá	712	San Antonio Palopó	9	San Antonio Palopo	4	Abril	2023-04-24T00:00:00	2024-11-08T01:00:00	7	Dirección del viento	3.22
167107	7	Sololá	712	San Antonio Palopó	9	San Antonio Palopo	4	Abril	2023-04-24T00:00:00	2024-11-08T01:00:00	1	Precipitación	0
167108	7	Sololá	712	San Antonio Palopó	9	San Antonio Palopo	4	Abril	2023-04-24T00:00:00	2024-11-08T01:00:00	8	Radiación solar	0
167109	7	Sololá	712	San Antonio Palopó	9	San Antonio Palopo	4	Abril	2023-04-24T00:00:00	2024-11-08T02:00:00	2	Temperatura media	19
167110	7	Sololá	712	San Antonio Palopó	9	San Antonio Palopo	4	Abril	2023-04-24T00:00:00	2024-11-08T02:00:00	4	Temperatura máxima	19.1
167111	7	Sololá	712	San Antonio Palopó	9	San Antonio Palopo	4	Abril	2023-04-24T00:00:00	2024-11-08T02:00:00	3	Temperatura mínima	18.7
167112	7	Sololá	712	San Antonio Palopó	9	San Antonio Palopo	4	Abril	2023-04-24T00:00:00	2024-11-08T02:00:00	5	Humedad	82
167113	7	Sololá	712	San Antonio Palopó	9	San Antonio Palopo	4	Abril	2023-04-24T00:00:00	2024-11-08T02:00:00	6	Velocidad del viento	3.2
167114	7	Sololá	712	San Antonio Palopó	9	San Antonio Palopo	4	Abril	2023-04-24T00:00:00	2024-11-08T02:00:00	7	Dirección del viento	3.22
167115	7	Sololá	712	San Antonio Palopó	9	San Antonio Palopo	4	Abril	2023-04-24T00:00:00	2024-11-08T02:00:00	1	Precipitación	0
167116	7	Sololá	712	San Antonio Palopó	9	San Antonio Palopo	4	Abril	2023-04-24T00:00:00	2024-11-08T02:00:00	8	Radiación solar	0
167117	7	Sololá	712	San Antonio Palopó	9	San Antonio Palopo	4	Abril	2023-04-24T00:00:00	2024-11-08T03:00:00	2	Temperatura media	19.4
167118	7	Sololá	712	San Antonio Palopó	9	San Antonio Palopo	4	Abril	2023-04-24T00:00:00	2024-11-08T03:00:00	4	Temperatura máxima	19.4
167119	7	Sololá	712	San Antonio Palopó	9	San Antonio Palopo	4	Abril	2023-04-24T00:00:00	2024-11-08T03:00:00	3	Temperatura mínima	19
167120	7	Sololá	712	San Antonio Palopó	9	San Antonio Palopo	4	Abril	2023-04-24T00:00:00	2024-11-08T03:00:00	5	Humedad	82
167121	7	Sololá	712	San Antonio Palopó	9	San Antonio Palopo	4	Abril	2023-04-24T00:00:00	2024-11-08T03:00:00	6	Velocidad del viento	1.6
167122	7	Sololá	712	San Antonio Palopó	9	San Antonio Palopo	4	Abril	2023-04-24T00:00:00	2024-11-08T03:00:00	7	Dirección del viento	1.61
167123	7	Sololá	712	San Antonio Palopó	9	San Antonio Palopo	4	Abril	2023-04-24T00:00:00	2024-11-08T03:00:00	1	Precipitación	0
167124	7	Sololá	712	San Antonio Palopó	9	San Antonio Palopo	4	Abril	2023-04-24T00:00:00	2024-11-08T03:00:00	8	Radiación solar	0
167125	7	Sololá	712	San Antonio Palopó	9	San Antonio Palopo	4	Abril	2023-04-24T00:00:00	2024-11-08T04:00:00	2	Temperatura media	19.4
167126	7	Sololá	712	San Antonio Palopó	9	San Antonio Palopo	4	Abril	2023-04-24T00:00:00	2024-11-08T04:00:00	4	Temperatura máxima	19.5
167127	7	Sololá	712	San Antonio Palopó	9	San Antonio Palopo	4	Abril	2023-04-24T00:00:00	2024-11-08T04:00:00	3	Temperatura mínima	19.3
167128	7	Sololá	712	San Antonio Palopó	9	San Antonio Palopo	4	Abril	2023-04-24T00:00:00	2024-11-08T04:00:00	5	Humedad	82
167129	7	Sololá	712	San Antonio Palopó	9	San Antonio Palopo	4	Abril	2023-04-24T00:00:00	2024-11-08T04:00:00	6	Velocidad del viento	1.6
167130	7	Sololá	712	San Antonio Palopó	9	San Antonio Palopo	4	Abril	2023-04-24T00:00:00	2024-11-08T04:00:00	7	Dirección del viento	1.61
167131	7	Sololá	712	San Antonio Palopó	9	San Antonio Palopo	4	Abril	2023-04-24T00:00:00	2024-11-08T04:00:00	1	Precipitación	0
167132	7	Sololá	712	San Antonio Palopó	9	San Antonio Palopo	4	Abril	2023-04-24T00:00:00	2024-11-08T04:00:00	8	Radiación solar	0
167133	7	Sololá	712	San Antonio Palopó	9	San Antonio Palopo	4	Abril	2023-04-24T00:00:00	2024-11-08T05:00:00	2	Temperatura media	19.4
167134	7	Sololá	712	San Antonio Palopó	9	San Antonio Palopo	4	Abril	2023-04-24T00:00:00	2024-11-08T05:00:00	4	Temperatura máxima	19.4
167135	7	Sololá	712	San Antonio Palopó	9	San Antonio Palopo	4	Abril	2023-04-24T00:00:00	2024-11-08T05:00:00	3	Temperatura mínima	19.3
167136	7	Sololá	712	San Antonio Palopó	9	San Antonio Palopo	4	Abril	2023-04-24T00:00:00	2024-11-08T05:00:00	5	Humedad	80
167137	7	Sololá	712	San Antonio Palopó	9	San Antonio Palopo	4	Abril	2023-04-24T00:00:00	2024-11-08T05:00:00	6	Velocidad del viento	1.6
167138	7	Sololá	712	San Antonio Palopó	9	San Antonio Palopo	4	Abril	2023-04-24T00:00:00	2024-11-08T05:00:00	7	Dirección del viento	1.61
167139	7	Sololá	712	San Antonio Palopó	9	San Antonio Palopo	4	Abril	2023-04-24T00:00:00	2024-11-08T05:00:00	1	Precipitación	0
167140	7	Sololá	712	San Antonio Palopó	9	San Antonio Palopo	4	Abril	2023-04-24T00:00:00	2024-11-08T05:00:00	8	Radiación solar	0
167141	7	Sololá	712	San Antonio Palopó	9	San Antonio Palopo	4	Abril	2023-04-24T00:00:00	2024-11-08T06:00:00	2	Temperatura media	19.2
167142	7	Sololá	712	San Antonio Palopó	9	San Antonio Palopo	4	Abril	2023-04-24T00:00:00	2024-11-08T06:00:00	4	Temperatura máxima	19.4
167143	7	Sololá	712	San Antonio Palopó	9	San Antonio Palopo	4	Abril	2023-04-24T00:00:00	2024-11-08T06:00:00	3	Temperatura mínima	19.2
167144	7	Sololá	712	San Antonio Palopó	9	San Antonio Palopo	4	Abril	2023-04-24T00:00:00	2024-11-08T06:00:00	5	Humedad	81
167145	7	Sololá	712	San Antonio Palopó	9	San Antonio Palopo	4	Abril	2023-04-24T00:00:00	2024-11-08T06:00:00	6	Velocidad del viento	1.6
167146	7	Sololá	712	San Antonio Palopó	9	San Antonio Palopo	4	Abril	2023-04-24T00:00:00	2024-11-08T06:00:00	7	Dirección del viento	1.61
167147	7	Sololá	712	San Antonio Palopó	9	San Antonio Palopo	4	Abril	2023-04-24T00:00:00	2024-11-08T06:00:00	1	Precipitación	0
167148	7	Sololá	712	San Antonio Palopó	9	San Antonio Palopo	4	Abril	2023-04-24T00:00:00	2024-11-08T06:00:00	8	Radiación solar	1
167149	7	Sololá	712	San Antonio Palopó	9	San Antonio Palopo	4	Abril	2023-04-24T00:00:00	2024-11-08T07:00:00	2	Temperatura media	19.3
167150	7	Sololá	712	San Antonio Palopó	9	San Antonio Palopo	4	Abril	2023-04-24T00:00:00	2024-11-08T07:00:00	4	Temperatura máxima	19.3
167151	7	Sololá	712	San Antonio Palopó	9	San Antonio Palopo	4	Abril	2023-04-24T00:00:00	2024-11-08T07:00:00	3	Temperatura mínima	19.1
167152	7	Sololá	712	San Antonio Palopó	9	San Antonio Palopo	4	Abril	2023-04-24T00:00:00	2024-11-08T07:00:00	5	Humedad	81
167153	7	Sololá	712	San Antonio Palopó	9	San Antonio Palopo	4	Abril	2023-04-24T00:00:00	2024-11-08T07:00:00	6	Velocidad del viento	3.2
167154	7	Sololá	712	San Antonio Palopó	9	San Antonio Palopo	4	Abril	2023-04-24T00:00:00	2024-11-08T07:00:00	7	Dirección del viento	3.22
167155	7	Sololá	712	San Antonio Palopó	9	San Antonio Palopo	4	Abril	2023-04-24T00:00:00	2024-11-08T07:00:00	1	Precipitación	0
167156	7	Sololá	712	San Antonio Palopó	9	San Antonio Palopo	4	Abril	2023-04-24T00:00:00	2024-11-08T07:00:00	8	Radiación solar	40
167157	7	Sololá	712	San Antonio Palopó	9	San Antonio Palopo	4	Abril	2023-04-24T00:00:00	2024-11-08T08:00:00	2	Temperatura media	19.8
167158	7	Sololá	712	San Antonio Palopó	9	San Antonio Palopo	4	Abril	2023-04-24T00:00:00	2024-11-08T08:00:00	4	Temperatura máxima	19.8
167159	7	Sololá	712	San Antonio Palopó	9	San Antonio Palopo	4	Abril	2023-04-24T00:00:00	2024-11-08T08:00:00	3	Temperatura mínima	19.3
167160	7	Sololá	712	San Antonio Palopó	9	San Antonio Palopo	4	Abril	2023-04-24T00:00:00	2024-11-08T08:00:00	5	Humedad	77
167161	7	Sololá	712	San Antonio Palopó	9	San Antonio Palopo	4	Abril	2023-04-24T00:00:00	2024-11-08T08:00:00	6	Velocidad del viento	3.2
167162	7	Sololá	712	San Antonio Palopó	9	San Antonio Palopo	4	Abril	2023-04-24T00:00:00	2024-11-08T08:00:00	7	Dirección del viento	3.22
167163	7	Sololá	712	San Antonio Palopó	9	San Antonio Palopo	4	Abril	2023-04-24T00:00:00	2024-11-08T08:00:00	1	Precipitación	0
167164	7	Sololá	712	San Antonio Palopó	9	San Antonio Palopo	4	Abril	2023-04-24T00:00:00	2024-11-08T08:00:00	8	Radiación solar	119
167165	7	Sololá	712	San Antonio Palopó	9	San Antonio Palopo	4	Abril	2023-04-24T00:00:00	2024-11-08T09:00:00	2	Temperatura media	20.9
167166	7	Sololá	712	San Antonio Palopó	9	San Antonio Palopo	4	Abril	2023-04-24T00:00:00	2024-11-08T09:00:00	4	Temperatura máxima	20.9
167167	7	Sololá	712	San Antonio Palopó	9	San Antonio Palopo	4	Abril	2023-04-24T00:00:00	2024-11-08T09:00:00	3	Temperatura mínima	19.8
167168	7	Sololá	712	San Antonio Palopó	9	San Antonio Palopo	4	Abril	2023-04-24T00:00:00	2024-11-08T09:00:00	5	Humedad	76
167169	7	Sololá	712	San Antonio Palopó	9	San Antonio Palopo	4	Abril	2023-04-24T00:00:00	2024-11-08T09:00:00	6	Velocidad del viento	1.6
167170	7	Sololá	712	San Antonio Palopó	9	San Antonio Palopo	4	Abril	2023-04-24T00:00:00	2024-11-08T09:00:00	7	Dirección del viento	1.61
167171	7	Sololá	712	San Antonio Palopó	9	San Antonio Palopo	4	Abril	2023-04-24T00:00:00	2024-11-08T09:00:00	1	Precipitación	0
167172	7	Sololá	712	San Antonio Palopó	9	San Antonio Palopo	4	Abril	2023-04-24T00:00:00	2024-11-08T09:00:00	8	Radiación solar	237
167173	7	Sololá	712	San Antonio Palopó	9	San Antonio Palopo	4	Abril	2023-04-24T00:00:00	2024-11-08T10:00:00	2	Temperatura media	21.8
167174	7	Sololá	712	San Antonio Palopó	9	San Antonio Palopo	4	Abril	2023-04-24T00:00:00	2024-11-08T10:00:00	4	Temperatura máxima	21.8
167175	7	Sololá	712	San Antonio Palopó	9	San Antonio Palopo	4	Abril	2023-04-24T00:00:00	2024-11-08T10:00:00	3	Temperatura mínima	20.9
167176	7	Sololá	712	San Antonio Palopó	9	San Antonio Palopo	4	Abril	2023-04-24T00:00:00	2024-11-08T10:00:00	5	Humedad	73
167177	7	Sololá	712	San Antonio Palopó	9	San Antonio Palopo	4	Abril	2023-04-24T00:00:00	2024-11-08T10:00:00	6	Velocidad del viento	3.2
167178	7	Sololá	712	San Antonio Palopó	9	San Antonio Palopo	4	Abril	2023-04-24T00:00:00	2024-11-08T10:00:00	7	Dirección del viento	3.22
167179	7	Sololá	712	San Antonio Palopó	9	San Antonio Palopo	4	Abril	2023-04-24T00:00:00	2024-11-08T10:00:00	1	Precipitación	0
167180	7	Sololá	712	San Antonio Palopó	9	San Antonio Palopo	4	Abril	2023-04-24T00:00:00	2024-11-08T10:00:00	8	Radiación solar	648
167181	7	Sololá	712	San Antonio Palopó	9	San Antonio Palopo	4	Abril	2023-04-24T00:00:00	2024-11-08T11:00:00	2	Temperatura media	21.7
167182	7	Sololá	712	San Antonio Palopó	9	San Antonio Palopo	4	Abril	2023-04-24T00:00:00	2024-11-08T11:00:00	4	Temperatura máxima	22.3
167183	7	Sololá	712	San Antonio Palopó	9	San Antonio Palopo	4	Abril	2023-04-24T00:00:00	2024-11-08T11:00:00	3	Temperatura mínima	21.7
167184	7	Sololá	712	San Antonio Palopó	9	San Antonio Palopo	4	Abril	2023-04-24T00:00:00	2024-11-08T11:00:00	5	Humedad	74
167185	7	Sololá	712	San Antonio Palopó	9	San Antonio Palopo	4	Abril	2023-04-24T00:00:00	2024-11-08T11:00:00	6	Velocidad del viento	6.4
167186	7	Sololá	712	San Antonio Palopó	9	San Antonio Palopo	4	Abril	2023-04-24T00:00:00	2024-11-08T11:00:00	7	Dirección del viento	6.44
167187	7	Sololá	712	San Antonio Palopó	9	San Antonio Palopo	4	Abril	2023-04-24T00:00:00	2024-11-08T11:00:00	1	Precipitación	0
167188	7	Sololá	712	San Antonio Palopó	9	San Antonio Palopo	4	Abril	2023-04-24T00:00:00	2024-11-08T11:00:00	8	Radiación solar	834
167189	7	Sololá	712	San Antonio Palopó	9	San Antonio Palopo	4	Abril	2023-04-24T00:00:00	2024-11-08T12:00:00	2	Temperatura media	23.3
167190	7	Sololá	712	San Antonio Palopó	9	San Antonio Palopo	4	Abril	2023-04-24T00:00:00	2024-11-08T12:00:00	4	Temperatura máxima	23.3
167191	7	Sololá	712	San Antonio Palopó	9	San Antonio Palopo	4	Abril	2023-04-24T00:00:00	2024-11-08T12:00:00	3	Temperatura mínima	21.7
167192	7	Sololá	712	San Antonio Palopó	9	San Antonio Palopo	4	Abril	2023-04-24T00:00:00	2024-11-08T12:00:00	5	Humedad	71
167193	7	Sololá	712	San Antonio Palopó	9	San Antonio Palopo	4	Abril	2023-04-24T00:00:00	2024-11-08T12:00:00	6	Velocidad del viento	4.8
167194	7	Sololá	712	San Antonio Palopó	9	San Antonio Palopo	4	Abril	2023-04-24T00:00:00	2024-11-08T12:00:00	7	Dirección del viento	4.83
167195	7	Sololá	712	San Antonio Palopó	9	San Antonio Palopo	4	Abril	2023-04-24T00:00:00	2024-11-08T12:00:00	1	Precipitación	0
167196	7	Sololá	712	San Antonio Palopó	9	San Antonio Palopo	4	Abril	2023-04-24T00:00:00	2024-11-08T12:00:00	8	Radiación solar	919
167197	7	Sololá	712	San Antonio Palopó	9	San Antonio Palopo	4	Abril	2023-04-24T00:00:00	2024-11-08T13:00:00	2	Temperatura media	23.3
167198	7	Sololá	712	San Antonio Palopó	9	San Antonio Palopo	4	Abril	2023-04-24T00:00:00	2024-11-08T13:00:00	4	Temperatura máxima	24.1
167199	7	Sololá	712	San Antonio Palopó	9	San Antonio Palopo	4	Abril	2023-04-24T00:00:00	2024-11-08T13:00:00	3	Temperatura mínima	23.1
167200	7	Sololá	712	San Antonio Palopó	9	San Antonio Palopo	4	Abril	2023-04-24T00:00:00	2024-11-08T13:00:00	5	Humedad	71
167201	7	Sololá	712	San Antonio Palopó	9	San Antonio Palopo	4	Abril	2023-04-24T00:00:00	2024-11-08T13:00:00	6	Velocidad del viento	6.4
167202	7	Sololá	712	San Antonio Palopó	9	San Antonio Palopo	4	Abril	2023-04-24T00:00:00	2024-11-08T13:00:00	7	Dirección del viento	6.44
167203	7	Sololá	712	San Antonio Palopó	9	San Antonio Palopo	4	Abril	2023-04-24T00:00:00	2024-11-08T13:00:00	1	Precipitación	0
167204	7	Sololá	712	San Antonio Palopó	9	San Antonio Palopo	4	Abril	2023-04-24T00:00:00	2024-11-08T13:00:00	8	Radiación solar	755
167205	7	Sololá	712	San Antonio Palopó	9	San Antonio Palopo	4	Abril	2023-04-24T00:00:00	2024-11-08T14:00:00	2	Temperatura media	21.8
167206	7	Sololá	712	San Antonio Palopó	9	San Antonio Palopo	4	Abril	2023-04-24T00:00:00	2024-11-08T14:00:00	4	Temperatura máxima	23.5
167207	7	Sololá	712	San Antonio Palopó	9	San Antonio Palopo	4	Abril	2023-04-24T00:00:00	2024-11-08T14:00:00	3	Temperatura mínima	21.8
167208	7	Sololá	712	San Antonio Palopó	9	San Antonio Palopo	4	Abril	2023-04-24T00:00:00	2024-11-08T14:00:00	5	Humedad	78
167209	7	Sololá	712	San Antonio Palopó	9	San Antonio Palopo	4	Abril	2023-04-24T00:00:00	2024-11-08T14:00:00	6	Velocidad del viento	11.3
167210	7	Sololá	712	San Antonio Palopó	9	San Antonio Palopo	4	Abril	2023-04-24T00:00:00	2024-11-08T14:00:00	7	Dirección del viento	11.27
167211	7	Sololá	712	San Antonio Palopó	9	San Antonio Palopo	4	Abril	2023-04-24T00:00:00	2024-11-08T14:00:00	1	Precipitación	0
167212	7	Sololá	712	San Antonio Palopó	9	San Antonio Palopo	4	Abril	2023-04-24T00:00:00	2024-11-08T14:00:00	8	Radiación solar	592
167213	7	Sololá	712	San Antonio Palopó	9	San Antonio Palopo	4	Abril	2023-04-24T00:00:00	2024-11-08T15:00:00	2	Temperatura media	20.8
167214	7	Sololá	712	San Antonio Palopó	9	San Antonio Palopo	4	Abril	2023-04-24T00:00:00	2024-11-08T15:00:00	4	Temperatura máxima	21.8
167215	7	Sololá	712	San Antonio Palopó	9	San Antonio Palopo	4	Abril	2023-04-24T00:00:00	2024-11-08T15:00:00	3	Temperatura mínima	20.4
167216	7	Sololá	712	San Antonio Palopó	9	San Antonio Palopo	4	Abril	2023-04-24T00:00:00	2024-11-08T15:00:00	5	Humedad	76
167217	7	Sololá	712	San Antonio Palopó	9	San Antonio Palopo	4	Abril	2023-04-24T00:00:00	2024-11-08T15:00:00	6	Velocidad del viento	11.3
167218	7	Sololá	712	San Antonio Palopó	9	San Antonio Palopo	4	Abril	2023-04-24T00:00:00	2024-11-08T15:00:00	7	Dirección del viento	11.27
167219	7	Sololá	712	San Antonio Palopó	9	San Antonio Palopo	4	Abril	2023-04-24T00:00:00	2024-11-08T15:00:00	1	Precipitación	0
167220	7	Sololá	712	San Antonio Palopó	9	San Antonio Palopo	4	Abril	2023-04-24T00:00:00	2024-11-08T15:00:00	8	Radiación solar	191
167221	7	Sololá	712	San Antonio Palopó	9	San Antonio Palopo	4	Abril	2023-04-24T00:00:00	2024-11-08T16:00:00	2	Temperatura media	20.4
167222	7	Sololá	712	San Antonio Palopó	9	San Antonio Palopo	4	Abril	2023-04-24T00:00:00	2024-11-08T16:00:00	4	Temperatura máxima	21.1
167223	7	Sololá	712	San Antonio Palopó	9	San Antonio Palopo	4	Abril	2023-04-24T00:00:00	2024-11-08T16:00:00	3	Temperatura mínima	20.3
167224	7	Sololá	712	San Antonio Palopó	9	San Antonio Palopo	4	Abril	2023-04-24T00:00:00	2024-11-08T16:00:00	5	Humedad	76
167225	7	Sololá	712	San Antonio Palopó	9	San Antonio Palopo	4	Abril	2023-04-24T00:00:00	2024-11-08T16:00:00	6	Velocidad del viento	6.4
167226	7	Sololá	712	San Antonio Palopó	9	San Antonio Palopo	4	Abril	2023-04-24T00:00:00	2024-11-08T16:00:00	7	Dirección del viento	6.44
167227	7	Sololá	712	San Antonio Palopó	9	San Antonio Palopo	4	Abril	2023-04-24T00:00:00	2024-11-08T16:00:00	1	Precipitación	0
167228	7	Sololá	712	San Antonio Palopó	9	San Antonio Palopo	4	Abril	2023-04-24T00:00:00	2024-11-08T16:00:00	8	Radiación solar	34
167229	7	Sololá	712	San Antonio Palopó	9	San Antonio Palopo	4	Abril	2023-04-24T00:00:00	2024-11-08T17:00:00	2	Temperatura media	17.9
167230	7	Sololá	712	San Antonio Palopó	9	San Antonio Palopo	4	Abril	2023-04-24T00:00:00	2024-11-08T17:00:00	4	Temperatura máxima	20.4
167231	7	Sololá	712	San Antonio Palopó	9	San Antonio Palopo	4	Abril	2023-04-24T00:00:00	2024-11-08T17:00:00	3	Temperatura mínima	17.9
167232	7	Sololá	712	San Antonio Palopó	9	San Antonio Palopo	4	Abril	2023-04-24T00:00:00	2024-11-08T17:00:00	5	Humedad	90
167233	7	Sololá	712	San Antonio Palopó	9	San Antonio Palopo	4	Abril	2023-04-24T00:00:00	2024-11-08T17:00:00	6	Velocidad del viento	6.4
167234	7	Sololá	712	San Antonio Palopó	9	San Antonio Palopo	4	Abril	2023-04-24T00:00:00	2024-11-08T17:00:00	7	Dirección del viento	6.44
167235	7	Sololá	712	San Antonio Palopó	9	San Antonio Palopo	4	Abril	2023-04-24T00:00:00	2024-11-08T17:00:00	1	Precipitación	5.4
167236	7	Sololá	712	San Antonio Palopó	9	San Antonio Palopo	4	Abril	2023-04-24T00:00:00	2024-11-08T17:00:00	8	Radiación solar	11
167237	7	Sololá	712	San Antonio Palopó	9	San Antonio Palopo	4	Abril	2023-04-24T00:00:00	2024-11-08T18:00:00	2	Temperatura media	18.2
167238	7	Sololá	712	San Antonio Palopó	9	San Antonio Palopo	4	Abril	2023-04-24T00:00:00	2024-11-08T18:00:00	4	Temperatura máxima	18.2
167239	7	Sololá	712	San Antonio Palopó	9	San Antonio Palopo	4	Abril	2023-04-24T00:00:00	2024-11-08T18:00:00	3	Temperatura mínima	17.9
167240	7	Sololá	712	San Antonio Palopó	9	San Antonio Palopo	4	Abril	2023-04-24T00:00:00	2024-11-08T18:00:00	5	Humedad	89
167241	7	Sololá	712	San Antonio Palopó	9	San Antonio Palopo	4	Abril	2023-04-24T00:00:00	2024-11-08T18:00:00	6	Velocidad del viento	3.2
167242	7	Sololá	712	San Antonio Palopó	9	San Antonio Palopo	4	Abril	2023-04-24T00:00:00	2024-11-08T18:00:00	7	Dirección del viento	3.22
167243	7	Sololá	712	San Antonio Palopó	9	San Antonio Palopo	4	Abril	2023-04-24T00:00:00	2024-11-08T18:00:00	1	Precipitación	0.8
167244	7	Sololá	712	San Antonio Palopó	9	San Antonio Palopo	4	Abril	2023-04-24T00:00:00	2024-11-08T18:00:00	8	Radiación solar	12
167245	7	Sololá	712	San Antonio Palopó	9	San Antonio Palopo	4	Abril	2023-04-24T00:00:00	2024-11-08T19:00:00	2	Temperatura media	18.2
167246	7	Sololá	712	San Antonio Palopó	9	San Antonio Palopo	4	Abril	2023-04-24T00:00:00	2024-11-08T19:00:00	4	Temperatura máxima	18.2
167247	7	Sololá	712	San Antonio Palopó	9	San Antonio Palopo	4	Abril	2023-04-24T00:00:00	2024-11-08T19:00:00	3	Temperatura mínima	18.1
167248	7	Sololá	712	San Antonio Palopó	9	San Antonio Palopo	4	Abril	2023-04-24T00:00:00	2024-11-08T19:00:00	5	Humedad	90
167249	7	Sololá	712	San Antonio Palopó	9	San Antonio Palopo	4	Abril	2023-04-24T00:00:00	2024-11-08T19:00:00	6	Velocidad del viento	1.6
167250	7	Sololá	712	San Antonio Palopó	9	San Antonio Palopo	4	Abril	2023-04-24T00:00:00	2024-11-08T19:00:00	7	Dirección del viento	1.61
167251	7	Sololá	712	San Antonio Palopó	9	San Antonio Palopo	4	Abril	2023-04-24T00:00:00	2024-11-08T19:00:00	1	Precipitación	0
167252	7	Sololá	712	San Antonio Palopó	9	San Antonio Palopo	4	Abril	2023-04-24T00:00:00	2024-11-08T19:00:00	8	Radiación solar	0
167253	7	Sololá	712	San Antonio Palopó	9	San Antonio Palopo	4	Abril	2023-04-24T00:00:00	2024-11-08T20:00:00	2	Temperatura media	18.1
167254	7	Sololá	712	San Antonio Palopó	9	San Antonio Palopo	4	Abril	2023-04-24T00:00:00	2024-11-08T20:00:00	4	Temperatura máxima	18.3
167255	7	Sololá	712	San Antonio Palopó	9	San Antonio Palopo	4	Abril	2023-04-24T00:00:00	2024-11-08T20:00:00	3	Temperatura mínima	17.9
167256	7	Sololá	712	San Antonio Palopó	9	San Antonio Palopo	4	Abril	2023-04-24T00:00:00	2024-11-08T20:00:00	5	Humedad	89
167257	7	Sololá	712	San Antonio Palopó	9	San Antonio Palopo	4	Abril	2023-04-24T00:00:00	2024-11-08T20:00:00	6	Velocidad del viento	1.6
167258	7	Sololá	712	San Antonio Palopó	9	San Antonio Palopo	4	Abril	2023-04-24T00:00:00	2024-11-08T20:00:00	7	Dirección del viento	1.61
167259	7	Sololá	712	San Antonio Palopó	9	San Antonio Palopo	4	Abril	2023-04-24T00:00:00	2024-11-08T20:00:00	1	Precipitación	0
167260	7	Sololá	712	San Antonio Palopó	9	San Antonio Palopo	4	Abril	2023-04-24T00:00:00	2024-11-08T20:00:00	8	Radiación solar	0
167261	7	Sololá	712	San Antonio Palopó	9	San Antonio Palopo	4	Abril	2023-04-24T00:00:00	2024-11-08T21:00:00	2	Temperatura media	17.8
167262	7	Sololá	712	San Antonio Palopó	9	San Antonio Palopo	4	Abril	2023-04-24T00:00:00	2024-11-08T21:00:00	4	Temperatura máxima	18.2
167263	7	Sololá	712	San Antonio Palopó	9	San Antonio Palopo	4	Abril	2023-04-24T00:00:00	2024-11-08T21:00:00	3	Temperatura mínima	17.7
167264	7	Sololá	712	San Antonio Palopó	9	San Antonio Palopo	4	Abril	2023-04-24T00:00:00	2024-11-08T21:00:00	5	Humedad	87
167265	7	Sololá	712	San Antonio Palopó	9	San Antonio Palopo	4	Abril	2023-04-24T00:00:00	2024-11-08T21:00:00	6	Velocidad del viento	3.2
167266	7	Sololá	712	San Antonio Palopó	9	San Antonio Palopo	4	Abril	2023-04-24T00:00:00	2024-11-08T21:00:00	7	Dirección del viento	3.22
167267	7	Sololá	712	San Antonio Palopó	9	San Antonio Palopo	4	Abril	2023-04-24T00:00:00	2024-11-08T21:00:00	1	Precipitación	0
167268	7	Sololá	712	San Antonio Palopó	9	San Antonio Palopo	4	Abril	2023-04-24T00:00:00	2024-11-08T21:00:00	8	Radiación solar	0
167269	7	Sololá	712	San Antonio Palopó	9	San Antonio Palopo	4	Abril	2023-04-24T00:00:00	2024-11-08T22:00:00	2	Temperatura media	18.4
167270	7	Sololá	712	San Antonio Palopó	9	San Antonio Palopo	4	Abril	2023-04-24T00:00:00	2024-11-08T22:00:00	4	Temperatura máxima	18.4
167271	7	Sololá	712	San Antonio Palopó	9	San Antonio Palopo	4	Abril	2023-04-24T00:00:00	2024-11-08T22:00:00	3	Temperatura mínima	17.7
167272	7	Sololá	712	San Antonio Palopó	9	San Antonio Palopo	4	Abril	2023-04-24T00:00:00	2024-11-08T22:00:00	5	Humedad	84
167273	7	Sololá	712	San Antonio Palopó	9	San Antonio Palopo	4	Abril	2023-04-24T00:00:00	2024-11-08T22:00:00	6	Velocidad del viento	3.2
167274	7	Sololá	712	San Antonio Palopó	9	San Antonio Palopo	4	Abril	2023-04-24T00:00:00	2024-11-08T22:00:00	7	Dirección del viento	3.22
167275	7	Sololá	712	San Antonio Palopó	9	San Antonio Palopo	4	Abril	2023-04-24T00:00:00	2024-11-08T22:00:00	1	Precipitación	0
167276	7	Sololá	712	San Antonio Palopó	9	San Antonio Palopo	4	Abril	2023-04-24T00:00:00	2024-11-08T22:00:00	8	Radiación solar	0
167277	7	Sololá	712	San Antonio Palopó	9	San Antonio Palopo	4	Abril	2023-04-24T00:00:00	2024-11-08T23:00:00	2	Temperatura media	17.2
167278	7	Sololá	712	San Antonio Palopó	9	San Antonio Palopo	4	Abril	2023-04-24T00:00:00	2024-11-08T23:00:00	4	Temperatura máxima	18.4
167279	7	Sololá	712	San Antonio Palopó	9	San Antonio Palopo	4	Abril	2023-04-24T00:00:00	2024-11-08T23:00:00	3	Temperatura mínima	17
167280	7	Sololá	712	San Antonio Palopó	9	San Antonio Palopo	4	Abril	2023-04-24T00:00:00	2024-11-08T23:00:00	5	Humedad	90
167281	7	Sololá	712	San Antonio Palopó	9	San Antonio Palopo	4	Abril	2023-04-24T00:00:00	2024-11-08T23:00:00	6	Velocidad del viento	3.2
167282	7	Sololá	712	San Antonio Palopó	9	San Antonio Palopo	4	Abril	2023-04-24T00:00:00	2024-11-08T23:00:00	7	Dirección del viento	3.22
167283	7	Sololá	712	San Antonio Palopó	9	San Antonio Palopo	4	Abril	2023-04-24T00:00:00	2024-11-08T23:00:00	1	Precipitación	0
167284	7	Sololá	712	San Antonio Palopó	9	San Antonio Palopo	4	Abril	2023-04-24T00:00:00	2024-11-08T23:00:00	8	Radiación solar	0
167285	7	Sololá	712	San Antonio Palopó	9	San Antonio Palopo	4	Abril	2023-04-25T00:00:00	2024-11-08T00:00:00	2	Temperatura media	16.8
167286	7	Sololá	712	San Antonio Palopó	9	San Antonio Palopo	4	Abril	2023-04-25T00:00:00	2024-11-08T00:00:00	4	Temperatura máxima	17.3
167287	7	Sololá	712	San Antonio Palopó	9	San Antonio Palopo	4	Abril	2023-04-25T00:00:00	2024-11-08T00:00:00	3	Temperatura mínima	16.8
167288	7	Sololá	712	San Antonio Palopó	9	San Antonio Palopo	4	Abril	2023-04-25T00:00:00	2024-11-08T00:00:00	5	Humedad	88
167289	7	Sololá	712	San Antonio Palopó	9	San Antonio Palopo	4	Abril	2023-04-25T00:00:00	2024-11-08T00:00:00	6	Velocidad del viento	3.2
167290	7	Sololá	712	San Antonio Palopó	9	San Antonio Palopo	4	Abril	2023-04-25T00:00:00	2024-11-08T00:00:00	7	Dirección del viento	3.22
167291	7	Sololá	712	San Antonio Palopó	9	San Antonio Palopo	4	Abril	2023-04-25T00:00:00	2024-11-08T00:00:00	1	Precipitación	0
167292	7	Sololá	712	San Antonio Palopó	9	San Antonio Palopo	4	Abril	2023-04-25T00:00:00	2024-11-08T00:00:00	8	Radiación solar	0
167293	7	Sololá	712	San Antonio Palopó	9	San Antonio Palopo	4	Abril	2023-04-25T00:00:00	2024-11-08T01:00:00	2	Temperatura media	18.4
167294	7	Sololá	712	San Antonio Palopó	9	San Antonio Palopo	4	Abril	2023-04-25T00:00:00	2024-11-08T01:00:00	4	Temperatura máxima	18.4
167295	7	Sololá	712	San Antonio Palopó	9	San Antonio Palopo	4	Abril	2023-04-25T00:00:00	2024-11-08T01:00:00	3	Temperatura mínima	16.8
167296	7	Sololá	712	San Antonio Palopó	9	San Antonio Palopo	4	Abril	2023-04-25T00:00:00	2024-11-08T01:00:00	5	Humedad	80
167297	7	Sololá	712	San Antonio Palopó	9	San Antonio Palopo	4	Abril	2023-04-25T00:00:00	2024-11-08T01:00:00	6	Velocidad del viento	4.8
167298	7	Sololá	712	San Antonio Palopó	9	San Antonio Palopo	4	Abril	2023-04-25T00:00:00	2024-11-08T01:00:00	7	Dirección del viento	4.83
167299	7	Sololá	712	San Antonio Palopó	9	San Antonio Palopo	4	Abril	2023-04-25T00:00:00	2024-11-08T01:00:00	1	Precipitación	0
167300	7	Sololá	712	San Antonio Palopó	9	San Antonio Palopo	4	Abril	2023-04-25T00:00:00	2024-11-08T01:00:00	8	Radiación solar	0
167301	7	Sololá	712	San Antonio Palopó	9	San Antonio Palopo	4	Abril	2023-04-25T00:00:00	2024-11-08T02:00:00	2	Temperatura media	17.1
167302	7	Sololá	712	San Antonio Palopó	9	San Antonio Palopo	4	Abril	2023-04-25T00:00:00	2024-11-08T02:00:00	4	Temperatura máxima	18.7
167303	7	Sololá	712	San Antonio Palopó	9	San Antonio Palopo	4	Abril	2023-04-25T00:00:00	2024-11-08T02:00:00	3	Temperatura mínima	17
167304	7	Sololá	712	San Antonio Palopó	9	San Antonio Palopo	4	Abril	2023-04-25T00:00:00	2024-11-08T02:00:00	5	Humedad	86
167305	7	Sololá	712	San Antonio Palopó	9	San Antonio Palopo	4	Abril	2023-04-25T00:00:00	2024-11-08T02:00:00	6	Velocidad del viento	4.8
167306	7	Sololá	712	San Antonio Palopó	9	San Antonio Palopo	4	Abril	2023-04-25T00:00:00	2024-11-08T02:00:00	7	Dirección del viento	4.83
167307	7	Sololá	712	San Antonio Palopó	9	San Antonio Palopo	4	Abril	2023-04-25T00:00:00	2024-11-08T02:00:00	1	Precipitación	0
167308	7	Sololá	712	San Antonio Palopó	9	San Antonio Palopo	4	Abril	2023-04-25T00:00:00	2024-11-08T02:00:00	8	Radiación solar	0
167309	7	Sololá	712	San Antonio Palopó	9	San Antonio Palopo	4	Abril	2023-04-25T00:00:00	2024-11-08T03:00:00	2	Temperatura media	17.1
167310	7	Sololá	712	San Antonio Palopó	9	San Antonio Palopo	4	Abril	2023-04-25T00:00:00	2024-11-08T03:00:00	4	Temperatura máxima	17.7
167311	7	Sololá	712	San Antonio Palopó	9	San Antonio Palopo	4	Abril	2023-04-25T00:00:00	2024-11-08T03:00:00	3	Temperatura mínima	16.8
167312	7	Sololá	712	San Antonio Palopó	9	San Antonio Palopo	4	Abril	2023-04-25T00:00:00	2024-11-08T03:00:00	5	Humedad	84
167313	7	Sololá	712	San Antonio Palopó	9	San Antonio Palopo	4	Abril	2023-04-25T00:00:00	2024-11-08T03:00:00	6	Velocidad del viento	3.2
167314	7	Sololá	712	San Antonio Palopó	9	San Antonio Palopo	4	Abril	2023-04-25T00:00:00	2024-11-08T03:00:00	7	Dirección del viento	3.22
167315	7	Sololá	712	San Antonio Palopó	9	San Antonio Palopo	4	Abril	2023-04-25T00:00:00	2024-11-08T03:00:00	1	Precipitación	0
167316	7	Sololá	712	San Antonio Palopó	9	San Antonio Palopo	4	Abril	2023-04-25T00:00:00	2024-11-08T03:00:00	8	Radiación solar	0
167317	7	Sololá	712	San Antonio Palopó	9	San Antonio Palopo	4	Abril	2023-04-25T00:00:00	2024-11-08T04:00:00	2	Temperatura media	16.6
167318	7	Sololá	712	San Antonio Palopó	9	San Antonio Palopo	4	Abril	2023-04-25T00:00:00	2024-11-08T04:00:00	4	Temperatura máxima	17.1
167319	7	Sololá	712	San Antonio Palopó	9	San Antonio Palopo	4	Abril	2023-04-25T00:00:00	2024-11-08T04:00:00	3	Temperatura mínima	16.4
167320	7	Sololá	712	San Antonio Palopó	9	San Antonio Palopo	4	Abril	2023-04-25T00:00:00	2024-11-08T04:00:00	5	Humedad	86
167321	7	Sololá	712	San Antonio Palopó	9	San Antonio Palopo	4	Abril	2023-04-25T00:00:00	2024-11-08T04:00:00	6	Velocidad del viento	4.8
167322	7	Sololá	712	San Antonio Palopó	9	San Antonio Palopo	4	Abril	2023-04-25T00:00:00	2024-11-08T04:00:00	7	Dirección del viento	4.83
167323	7	Sololá	712	San Antonio Palopó	9	San Antonio Palopo	4	Abril	2023-04-25T00:00:00	2024-11-08T04:00:00	1	Precipitación	0
167324	7	Sololá	712	San Antonio Palopó	9	San Antonio Palopo	4	Abril	2023-04-25T00:00:00	2024-11-08T04:00:00	8	Radiación solar	0
167325	7	Sololá	712	San Antonio Palopó	9	San Antonio Palopo	4	Abril	2023-04-25T00:00:00	2024-11-08T05:00:00	2	Temperatura media	17.1
167326	7	Sololá	712	San Antonio Palopó	9	San Antonio Palopo	4	Abril	2023-04-25T00:00:00	2024-11-08T05:00:00	4	Temperatura máxima	17.3
167327	7	Sololá	712	San Antonio Palopó	9	San Antonio Palopo	4	Abril	2023-04-25T00:00:00	2024-11-08T05:00:00	3	Temperatura mínima	16.4
167328	7	Sololá	712	San Antonio Palopó	9	San Antonio Palopo	4	Abril	2023-04-25T00:00:00	2024-11-08T05:00:00	5	Humedad	81
167329	7	Sololá	712	San Antonio Palopó	9	San Antonio Palopo	4	Abril	2023-04-25T00:00:00	2024-11-08T05:00:00	6	Velocidad del viento	4.8
167330	7	Sololá	712	San Antonio Palopó	9	San Antonio Palopo	4	Abril	2023-04-25T00:00:00	2024-11-08T05:00:00	7	Dirección del viento	4.83
167331	7	Sololá	712	San Antonio Palopó	9	San Antonio Palopo	4	Abril	2023-04-25T00:00:00	2024-11-08T05:00:00	1	Precipitación	0
167332	7	Sololá	712	San Antonio Palopó	9	San Antonio Palopo	4	Abril	2023-04-25T00:00:00	2024-11-08T05:00:00	8	Radiación solar	0
167333	7	Sololá	712	San Antonio Palopó	9	San Antonio Palopo	4	Abril	2023-04-25T00:00:00	2024-11-08T06:00:00	2	Temperatura media	16.2
167334	7	Sololá	712	San Antonio Palopó	9	San Antonio Palopo	4	Abril	2023-04-25T00:00:00	2024-11-08T06:00:00	4	Temperatura máxima	17.2
167335	7	Sololá	712	San Antonio Palopó	9	San Antonio Palopo	4	Abril	2023-04-25T00:00:00	2024-11-08T06:00:00	3	Temperatura mínima	16.1
167336	7	Sololá	712	San Antonio Palopó	9	San Antonio Palopo	4	Abril	2023-04-25T00:00:00	2024-11-08T06:00:00	5	Humedad	83
167337	7	Sololá	712	San Antonio Palopó	9	San Antonio Palopo	4	Abril	2023-04-25T00:00:00	2024-11-08T06:00:00	6	Velocidad del viento	4.8
167338	7	Sololá	712	San Antonio Palopó	9	San Antonio Palopo	4	Abril	2023-04-25T00:00:00	2024-11-08T06:00:00	7	Dirección del viento	4.83
167339	7	Sololá	712	San Antonio Palopó	9	San Antonio Palopo	4	Abril	2023-04-25T00:00:00	2024-11-08T06:00:00	1	Precipitación	0
167340	7	Sololá	712	San Antonio Palopó	9	San Antonio Palopo	4	Abril	2023-04-25T00:00:00	2024-11-08T06:00:00	8	Radiación solar	1
167341	7	Sololá	712	San Antonio Palopó	9	San Antonio Palopo	4	Abril	2023-04-25T00:00:00	2024-11-08T07:00:00	2	Temperatura media	16.7
167342	7	Sololá	712	San Antonio Palopó	9	San Antonio Palopo	4	Abril	2023-04-25T00:00:00	2024-11-08T07:00:00	4	Temperatura máxima	16.7
167343	7	Sololá	712	San Antonio Palopó	9	San Antonio Palopo	4	Abril	2023-04-25T00:00:00	2024-11-08T07:00:00	3	Temperatura mínima	16.2
167344	7	Sololá	712	San Antonio Palopó	9	San Antonio Palopo	4	Abril	2023-04-25T00:00:00	2024-11-08T07:00:00	5	Humedad	84
167345	7	Sololá	712	San Antonio Palopó	9	San Antonio Palopo	4	Abril	2023-04-25T00:00:00	2024-11-08T07:00:00	6	Velocidad del viento	4.8
167346	7	Sololá	712	San Antonio Palopó	9	San Antonio Palopo	4	Abril	2023-04-25T00:00:00	2024-11-08T07:00:00	7	Dirección del viento	4.83
167347	7	Sololá	712	San Antonio Palopó	9	San Antonio Palopo	4	Abril	2023-04-25T00:00:00	2024-11-08T07:00:00	1	Precipitación	0
167348	7	Sololá	712	San Antonio Palopó	9	San Antonio Palopo	4	Abril	2023-04-25T00:00:00	2024-11-08T07:00:00	8	Radiación solar	37
167349	7	Sololá	712	San Antonio Palopó	9	San Antonio Palopo	4	Abril	2023-04-25T00:00:00	2024-11-08T08:00:00	2	Temperatura media	18.8
167350	7	Sololá	712	San Antonio Palopó	9	San Antonio Palopo	4	Abril	2023-04-25T00:00:00	2024-11-08T08:00:00	4	Temperatura máxima	18.8
167351	7	Sololá	712	San Antonio Palopó	9	San Antonio Palopo	4	Abril	2023-04-25T00:00:00	2024-11-08T08:00:00	3	Temperatura mínima	16.7
167352	7	Sololá	712	San Antonio Palopó	9	San Antonio Palopo	4	Abril	2023-04-25T00:00:00	2024-11-08T08:00:00	5	Humedad	81
167353	7	Sololá	712	San Antonio Palopó	9	San Antonio Palopo	4	Abril	2023-04-25T00:00:00	2024-11-08T08:00:00	6	Velocidad del viento	3.2
167354	7	Sololá	712	San Antonio Palopó	9	San Antonio Palopo	4	Abril	2023-04-25T00:00:00	2024-11-08T08:00:00	7	Dirección del viento	3.22
167355	7	Sololá	712	San Antonio Palopó	9	San Antonio Palopo	4	Abril	2023-04-25T00:00:00	2024-11-08T08:00:00	1	Precipitación	0
167356	7	Sololá	712	San Antonio Palopó	9	San Antonio Palopo	4	Abril	2023-04-25T00:00:00	2024-11-08T08:00:00	8	Radiación solar	164
167357	7	Sololá	712	San Antonio Palopó	9	San Antonio Palopo	4	Abril	2023-04-25T00:00:00	2024-11-08T09:00:00	2	Temperatura media	19.9
167358	7	Sololá	712	San Antonio Palopó	9	San Antonio Palopo	4	Abril	2023-04-25T00:00:00	2024-11-08T09:00:00	4	Temperatura máxima	19.9
167359	7	Sololá	712	San Antonio Palopó	9	San Antonio Palopo	4	Abril	2023-04-25T00:00:00	2024-11-08T09:00:00	3	Temperatura mínima	18.8
167360	7	Sololá	712	San Antonio Palopó	9	San Antonio Palopo	4	Abril	2023-04-25T00:00:00	2024-11-08T09:00:00	5	Humedad	77
167361	7	Sololá	712	San Antonio Palopó	9	San Antonio Palopo	4	Abril	2023-04-25T00:00:00	2024-11-08T09:00:00	6	Velocidad del viento	1.6
167362	7	Sololá	712	San Antonio Palopó	9	San Antonio Palopo	4	Abril	2023-04-25T00:00:00	2024-11-08T09:00:00	7	Dirección del viento	1.61
167363	7	Sololá	712	San Antonio Palopó	9	San Antonio Palopo	4	Abril	2023-04-25T00:00:00	2024-11-08T09:00:00	1	Precipitación	0
167364	7	Sololá	712	San Antonio Palopó	9	San Antonio Palopo	4	Abril	2023-04-25T00:00:00	2024-11-08T09:00:00	8	Radiación solar	447
167365	7	Sololá	712	San Antonio Palopó	9	San Antonio Palopo	4	Abril	2023-04-25T00:00:00	2024-11-08T10:00:00	2	Temperatura media	21
167366	7	Sololá	712	San Antonio Palopó	9	San Antonio Palopo	4	Abril	2023-04-25T00:00:00	2024-11-08T10:00:00	4	Temperatura máxima	21.2
167367	7	Sololá	712	San Antonio Palopó	9	San Antonio Palopo	4	Abril	2023-04-25T00:00:00	2024-11-08T10:00:00	3	Temperatura mínima	19.8
167368	7	Sololá	712	San Antonio Palopó	9	San Antonio Palopo	4	Abril	2023-04-25T00:00:00	2024-11-08T10:00:00	5	Humedad	75
167369	7	Sololá	712	San Antonio Palopó	9	San Antonio Palopo	4	Abril	2023-04-25T00:00:00	2024-11-08T10:00:00	6	Velocidad del viento	3.2
167370	7	Sololá	712	San Antonio Palopó	9	San Antonio Palopo	4	Abril	2023-04-25T00:00:00	2024-11-08T10:00:00	7	Dirección del viento	3.22
167371	7	Sololá	712	San Antonio Palopó	9	San Antonio Palopo	4	Abril	2023-04-25T00:00:00	2024-11-08T10:00:00	1	Precipitación	0
167372	7	Sololá	712	San Antonio Palopó	9	San Antonio Palopo	4	Abril	2023-04-25T00:00:00	2024-11-08T10:00:00	8	Radiación solar	667
167373	7	Sololá	712	San Antonio Palopó	9	San Antonio Palopo	4	Abril	2023-04-25T00:00:00	2024-11-08T11:00:00	2	Temperatura media	22.8
167374	7	Sololá	712	San Antonio Palopó	9	San Antonio Palopo	4	Abril	2023-04-25T00:00:00	2024-11-08T11:00:00	4	Temperatura máxima	22.9
167375	7	Sololá	712	San Antonio Palopó	9	San Antonio Palopo	4	Abril	2023-04-25T00:00:00	2024-11-08T11:00:00	3	Temperatura mínima	21
167376	7	Sololá	712	San Antonio Palopó	9	San Antonio Palopo	4	Abril	2023-04-25T00:00:00	2024-11-08T11:00:00	5	Humedad	69
167377	7	Sololá	712	San Antonio Palopó	9	San Antonio Palopo	4	Abril	2023-04-25T00:00:00	2024-11-08T11:00:00	6	Velocidad del viento	3.2
167378	7	Sololá	712	San Antonio Palopó	9	San Antonio Palopo	4	Abril	2023-04-25T00:00:00	2024-11-08T11:00:00	7	Dirección del viento	3.22
167379	7	Sololá	712	San Antonio Palopó	9	San Antonio Palopo	4	Abril	2023-04-25T00:00:00	2024-11-08T11:00:00	1	Precipitación	0
167380	7	Sololá	712	San Antonio Palopó	9	San Antonio Palopo	4	Abril	2023-04-25T00:00:00	2024-11-08T11:00:00	8	Radiación solar	817
167381	7	Sololá	712	San Antonio Palopó	9	San Antonio Palopo	4	Abril	2023-04-25T00:00:00	2024-11-08T12:00:00	2	Temperatura media	24
167382	7	Sololá	712	San Antonio Palopó	9	San Antonio Palopo	4	Abril	2023-04-25T00:00:00	2024-11-08T12:00:00	4	Temperatura máxima	24
167383	7	Sololá	712	San Antonio Palopó	9	San Antonio Palopo	4	Abril	2023-04-25T00:00:00	2024-11-08T12:00:00	3	Temperatura mínima	22.7
167384	7	Sololá	712	San Antonio Palopó	9	San Antonio Palopo	4	Abril	2023-04-25T00:00:00	2024-11-08T12:00:00	5	Humedad	64
167385	7	Sololá	712	San Antonio Palopó	9	San Antonio Palopo	4	Abril	2023-04-25T00:00:00	2024-11-08T12:00:00	6	Velocidad del viento	8
167386	7	Sololá	712	San Antonio Palopó	9	San Antonio Palopo	4	Abril	2023-04-25T00:00:00	2024-11-08T12:00:00	7	Dirección del viento	8.05
167387	7	Sololá	712	San Antonio Palopó	9	San Antonio Palopo	4	Abril	2023-04-25T00:00:00	2024-11-08T12:00:00	1	Precipitación	0
167388	7	Sololá	712	San Antonio Palopó	9	San Antonio Palopo	4	Abril	2023-04-25T00:00:00	2024-11-08T12:00:00	8	Radiación solar	908
167389	7	Sololá	712	San Antonio Palopó	9	San Antonio Palopo	4	Abril	2023-04-25T00:00:00	2024-11-08T13:00:00	2	Temperatura media	24.4
167390	7	Sololá	712	San Antonio Palopó	9	San Antonio Palopo	4	Abril	2023-04-25T00:00:00	2024-11-08T13:00:00	4	Temperatura máxima	24.7
167391	7	Sololá	712	San Antonio Palopó	9	San Antonio Palopo	4	Abril	2023-04-25T00:00:00	2024-11-08T13:00:00	3	Temperatura mínima	23.9
167392	7	Sololá	712	San Antonio Palopó	9	San Antonio Palopo	4	Abril	2023-04-25T00:00:00	2024-11-08T13:00:00	5	Humedad	67
167393	7	Sololá	712	San Antonio Palopó	9	San Antonio Palopo	4	Abril	2023-04-25T00:00:00	2024-11-08T13:00:00	6	Velocidad del viento	9.7
167394	7	Sololá	712	San Antonio Palopó	9	San Antonio Palopo	4	Abril	2023-04-25T00:00:00	2024-11-08T13:00:00	7	Dirección del viento	9.66
167395	7	Sololá	712	San Antonio Palopó	9	San Antonio Palopo	4	Abril	2023-04-25T00:00:00	2024-11-08T13:00:00	1	Precipitación	0
167396	7	Sololá	712	San Antonio Palopó	9	San Antonio Palopo	4	Abril	2023-04-25T00:00:00	2024-11-08T13:00:00	8	Radiación solar	882
167397	7	Sololá	712	San Antonio Palopó	9	San Antonio Palopo	4	Abril	2023-04-25T00:00:00	2024-11-08T14:00:00	2	Temperatura media	23.8
167398	7	Sololá	712	San Antonio Palopó	9	San Antonio Palopo	4	Abril	2023-04-25T00:00:00	2024-11-08T14:00:00	4	Temperatura máxima	24.9
167399	7	Sololá	712	San Antonio Palopó	9	San Antonio Palopo	4	Abril	2023-04-25T00:00:00	2024-11-08T14:00:00	3	Temperatura mínima	23.7
167400	7	Sololá	712	San Antonio Palopó	9	San Antonio Palopo	4	Abril	2023-04-25T00:00:00	2024-11-08T14:00:00	5	Humedad	73
167401	7	Sololá	712	San Antonio Palopó	9	San Antonio Palopo	4	Abril	2023-04-25T00:00:00	2024-11-08T14:00:00	6	Velocidad del viento	9.7
167402	7	Sololá	712	San Antonio Palopó	9	San Antonio Palopo	4	Abril	2023-04-25T00:00:00	2024-11-08T14:00:00	7	Dirección del viento	9.66
167403	7	Sololá	712	San Antonio Palopó	9	San Antonio Palopo	4	Abril	2023-04-25T00:00:00	2024-11-08T14:00:00	1	Precipitación	0
167404	7	Sololá	712	San Antonio Palopó	9	San Antonio Palopo	4	Abril	2023-04-25T00:00:00	2024-11-08T14:00:00	8	Radiación solar	838
167405	7	Sololá	712	San Antonio Palopó	9	San Antonio Palopo	4	Abril	2023-04-25T00:00:00	2024-11-08T15:00:00	2	Temperatura media	22.8
167406	7	Sololá	712	San Antonio Palopó	9	San Antonio Palopo	4	Abril	2023-04-25T00:00:00	2024-11-08T15:00:00	4	Temperatura máxima	23.8
167407	7	Sololá	712	San Antonio Palopó	9	San Antonio Palopo	4	Abril	2023-04-25T00:00:00	2024-11-08T15:00:00	3	Temperatura mínima	22.7
167408	7	Sololá	712	San Antonio Palopó	9	San Antonio Palopo	4	Abril	2023-04-25T00:00:00	2024-11-08T15:00:00	5	Humedad	77
167409	7	Sololá	712	San Antonio Palopó	9	San Antonio Palopo	4	Abril	2023-04-25T00:00:00	2024-11-08T15:00:00	6	Velocidad del viento	9.7
167410	7	Sololá	712	San Antonio Palopó	9	San Antonio Palopo	4	Abril	2023-04-25T00:00:00	2024-11-08T15:00:00	7	Dirección del viento	9.66
167411	7	Sololá	712	San Antonio Palopó	9	San Antonio Palopo	4	Abril	2023-04-25T00:00:00	2024-11-08T15:00:00	1	Precipitación	0
167412	7	Sololá	712	San Antonio Palopó	9	San Antonio Palopo	4	Abril	2023-04-25T00:00:00	2024-11-08T15:00:00	8	Radiación solar	320
167413	7	Sololá	712	San Antonio Palopó	9	San Antonio Palopo	4	Abril	2023-04-25T00:00:00	2024-11-08T16:00:00	2	Temperatura media	21.8
167414	7	Sololá	712	San Antonio Palopó	9	San Antonio Palopo	4	Abril	2023-04-25T00:00:00	2024-11-08T16:00:00	4	Temperatura máxima	22.8
167415	7	Sololá	712	San Antonio Palopó	9	San Antonio Palopo	4	Abril	2023-04-25T00:00:00	2024-11-08T16:00:00	3	Temperatura mínima	21.3
167416	7	Sololá	712	San Antonio Palopó	9	San Antonio Palopo	4	Abril	2023-04-25T00:00:00	2024-11-08T16:00:00	5	Humedad	79
167417	7	Sololá	712	San Antonio Palopó	9	San Antonio Palopo	4	Abril	2023-04-25T00:00:00	2024-11-08T16:00:00	6	Velocidad del viento	9.7
167418	7	Sololá	712	San Antonio Palopó	9	San Antonio Palopo	4	Abril	2023-04-25T00:00:00	2024-11-08T16:00:00	7	Dirección del viento	9.66
167419	7	Sololá	712	San Antonio Palopó	9	San Antonio Palopo	4	Abril	2023-04-25T00:00:00	2024-11-08T16:00:00	1	Precipitación	0
167420	7	Sololá	712	San Antonio Palopó	9	San Antonio Palopo	4	Abril	2023-04-25T00:00:00	2024-11-08T16:00:00	8	Radiación solar	108
167421	7	Sololá	712	San Antonio Palopó	9	San Antonio Palopo	4	Abril	2023-04-25T00:00:00	2024-11-08T17:00:00	2	Temperatura media	20.9
167422	7	Sololá	712	San Antonio Palopó	9	San Antonio Palopo	4	Abril	2023-04-25T00:00:00	2024-11-08T17:00:00	4	Temperatura máxima	21.9
167423	7	Sololá	712	San Antonio Palopó	9	San Antonio Palopo	4	Abril	2023-04-25T00:00:00	2024-11-08T17:00:00	3	Temperatura mínima	20.9
167424	7	Sololá	712	San Antonio Palopó	9	San Antonio Palopo	4	Abril	2023-04-25T00:00:00	2024-11-08T17:00:00	5	Humedad	83
167425	7	Sololá	712	San Antonio Palopó	9	San Antonio Palopo	4	Abril	2023-04-25T00:00:00	2024-11-08T17:00:00	6	Velocidad del viento	4.8
167426	7	Sololá	712	San Antonio Palopó	9	San Antonio Palopo	4	Abril	2023-04-25T00:00:00	2024-11-08T17:00:00	7	Dirección del viento	4.83
167427	7	Sololá	712	San Antonio Palopó	9	San Antonio Palopo	4	Abril	2023-04-25T00:00:00	2024-11-08T17:00:00	1	Precipitación	1.4
167428	7	Sololá	712	San Antonio Palopó	9	San Antonio Palopo	4	Abril	2023-04-25T00:00:00	2024-11-08T17:00:00	8	Radiación solar	120
167429	7	Sololá	712	San Antonio Palopó	9	San Antonio Palopo	4	Abril	2023-04-25T00:00:00	2024-11-08T18:00:00	2	Temperatura media	20.7
167430	7	Sololá	712	San Antonio Palopó	9	San Antonio Palopo	4	Abril	2023-04-25T00:00:00	2024-11-08T18:00:00	4	Temperatura máxima	20.9
167431	7	Sololá	712	San Antonio Palopó	9	San Antonio Palopo	4	Abril	2023-04-25T00:00:00	2024-11-08T18:00:00	3	Temperatura mínima	20.6
167432	7	Sololá	712	San Antonio Palopó	9	San Antonio Palopo	4	Abril	2023-04-25T00:00:00	2024-11-08T18:00:00	5	Humedad	84
167433	7	Sololá	712	San Antonio Palopó	9	San Antonio Palopo	4	Abril	2023-04-25T00:00:00	2024-11-08T18:00:00	6	Velocidad del viento	4.8
167434	7	Sololá	712	San Antonio Palopó	9	San Antonio Palopo	4	Abril	2023-04-25T00:00:00	2024-11-08T18:00:00	7	Dirección del viento	4.83
167435	7	Sololá	712	San Antonio Palopó	9	San Antonio Palopo	4	Abril	2023-04-25T00:00:00	2024-11-08T18:00:00	1	Precipitación	0
167436	7	Sololá	712	San Antonio Palopó	9	San Antonio Palopo	4	Abril	2023-04-25T00:00:00	2024-11-08T18:00:00	8	Radiación solar	38
167437	7	Sololá	712	San Antonio Palopó	9	San Antonio Palopo	4	Abril	2023-04-25T00:00:00	2024-11-08T19:00:00	2	Temperatura media	20.4
167438	7	Sololá	712	San Antonio Palopó	9	San Antonio Palopo	4	Abril	2023-04-25T00:00:00	2024-11-08T19:00:00	4	Temperatura máxima	20.7
167439	7	Sololá	712	San Antonio Palopó	9	San Antonio Palopo	4	Abril	2023-04-25T00:00:00	2024-11-08T19:00:00	3	Temperatura mínima	20.3
167440	7	Sololá	712	San Antonio Palopó	9	San Antonio Palopo	4	Abril	2023-04-25T00:00:00	2024-11-08T19:00:00	5	Humedad	85
167441	7	Sololá	712	San Antonio Palopó	9	San Antonio Palopo	4	Abril	2023-04-25T00:00:00	2024-11-08T19:00:00	6	Velocidad del viento	3.2
167442	7	Sololá	712	San Antonio Palopó	9	San Antonio Palopo	4	Abril	2023-04-25T00:00:00	2024-11-08T19:00:00	7	Dirección del viento	3.22
167443	7	Sololá	712	San Antonio Palopó	9	San Antonio Palopo	4	Abril	2023-04-25T00:00:00	2024-11-08T19:00:00	1	Precipitación	0
167444	7	Sololá	712	San Antonio Palopó	9	San Antonio Palopo	4	Abril	2023-04-25T00:00:00	2024-11-08T19:00:00	8	Radiación solar	0
167445	7	Sololá	712	San Antonio Palopó	9	San Antonio Palopo	4	Abril	2023-04-25T00:00:00	2024-11-08T20:00:00	2	Temperatura media	20
167446	7	Sololá	712	San Antonio Palopó	9	San Antonio Palopo	4	Abril	2023-04-25T00:00:00	2024-11-08T20:00:00	4	Temperatura máxima	20.4
167447	7	Sololá	712	San Antonio Palopó	9	San Antonio Palopo	4	Abril	2023-04-25T00:00:00	2024-11-08T20:00:00	3	Temperatura mínima	19.9
167448	7	Sololá	712	San Antonio Palopó	9	San Antonio Palopo	4	Abril	2023-04-25T00:00:00	2024-11-08T20:00:00	5	Humedad	86
167449	7	Sololá	712	San Antonio Palopó	9	San Antonio Palopo	4	Abril	2023-04-25T00:00:00	2024-11-08T20:00:00	6	Velocidad del viento	1.6
167450	7	Sololá	712	San Antonio Palopó	9	San Antonio Palopo	4	Abril	2023-04-25T00:00:00	2024-11-08T20:00:00	7	Dirección del viento	1.61
167451	7	Sololá	712	San Antonio Palopó	9	San Antonio Palopo	4	Abril	2023-04-25T00:00:00	2024-11-08T20:00:00	1	Precipitación	0
167452	7	Sololá	712	San Antonio Palopó	9	San Antonio Palopo	4	Abril	2023-04-25T00:00:00	2024-11-08T20:00:00	8	Radiación solar	0
167453	7	Sololá	712	San Antonio Palopó	9	San Antonio Palopo	4	Abril	2023-04-25T00:00:00	2024-11-08T21:00:00	2	Temperatura media	19.3
167454	7	Sololá	712	San Antonio Palopó	9	San Antonio Palopo	4	Abril	2023-04-25T00:00:00	2024-11-08T21:00:00	4	Temperatura máxima	20
167455	7	Sololá	712	San Antonio Palopó	9	San Antonio Palopo	4	Abril	2023-04-25T00:00:00	2024-11-08T21:00:00	3	Temperatura mínima	19.3
167456	7	Sololá	712	San Antonio Palopó	9	San Antonio Palopo	4	Abril	2023-04-25T00:00:00	2024-11-08T21:00:00	5	Humedad	85
167457	7	Sololá	712	San Antonio Palopó	9	San Antonio Palopo	4	Abril	2023-04-25T00:00:00	2024-11-08T21:00:00	6	Velocidad del viento	3.2
167458	7	Sololá	712	San Antonio Palopó	9	San Antonio Palopo	4	Abril	2023-04-25T00:00:00	2024-11-08T21:00:00	7	Dirección del viento	3.22
167459	7	Sololá	712	San Antonio Palopó	9	San Antonio Palopo	4	Abril	2023-04-25T00:00:00	2024-11-08T21:00:00	1	Precipitación	0
167460	7	Sololá	712	San Antonio Palopó	9	San Antonio Palopo	4	Abril	2023-04-25T00:00:00	2024-11-08T21:00:00	8	Radiación solar	0
167461	7	Sololá	712	San Antonio Palopó	9	San Antonio Palopo	4	Abril	2023-04-25T00:00:00	2024-11-08T22:00:00	2	Temperatura media	19.6
167462	7	Sololá	712	San Antonio Palopó	9	San Antonio Palopo	4	Abril	2023-04-25T00:00:00	2024-11-08T22:00:00	4	Temperatura máxima	19.9
167463	7	Sololá	712	San Antonio Palopó	9	San Antonio Palopo	4	Abril	2023-04-25T00:00:00	2024-11-08T22:00:00	3	Temperatura mínima	19.3
167464	7	Sololá	712	San Antonio Palopó	9	San Antonio Palopo	4	Abril	2023-04-25T00:00:00	2024-11-08T22:00:00	5	Humedad	85
167465	7	Sololá	712	San Antonio Palopó	9	San Antonio Palopo	4	Abril	2023-04-25T00:00:00	2024-11-08T22:00:00	6	Velocidad del viento	3.2
167466	7	Sololá	712	San Antonio Palopó	9	San Antonio Palopo	4	Abril	2023-04-25T00:00:00	2024-11-08T22:00:00	7	Dirección del viento	3.22
167467	7	Sololá	712	San Antonio Palopó	9	San Antonio Palopo	4	Abril	2023-04-25T00:00:00	2024-11-08T22:00:00	1	Precipitación	0
167468	7	Sololá	712	San Antonio Palopó	9	San Antonio Palopo	4	Abril	2023-04-25T00:00:00	2024-11-08T22:00:00	8	Radiación solar	0
167469	7	Sololá	712	San Antonio Palopó	9	San Antonio Palopo	4	Abril	2023-04-25T00:00:00	2024-11-08T23:00:00	2	Temperatura media	19.5
167470	7	Sololá	712	San Antonio Palopó	9	San Antonio Palopo	4	Abril	2023-04-25T00:00:00	2024-11-08T23:00:00	4	Temperatura máxima	19.6
167471	7	Sololá	712	San Antonio Palopó	9	San Antonio Palopo	4	Abril	2023-04-25T00:00:00	2024-11-08T23:00:00	3	Temperatura mínima	19.4
167472	7	Sololá	712	San Antonio Palopó	9	San Antonio Palopo	4	Abril	2023-04-25T00:00:00	2024-11-08T23:00:00	5	Humedad	86
167473	7	Sololá	712	San Antonio Palopó	9	San Antonio Palopo	4	Abril	2023-04-25T00:00:00	2024-11-08T23:00:00	6	Velocidad del viento	3.2
167474	7	Sololá	712	San Antonio Palopó	9	San Antonio Palopo	4	Abril	2023-04-25T00:00:00	2024-11-08T23:00:00	7	Dirección del viento	3.22
167475	7	Sololá	712	San Antonio Palopó	9	San Antonio Palopo	4	Abril	2023-04-25T00:00:00	2024-11-08T23:00:00	1	Precipitación	0
167476	7	Sololá	712	San Antonio Palopó	9	San Antonio Palopo	4	Abril	2023-04-25T00:00:00	2024-11-08T23:00:00	8	Radiación solar	0
167477	7	Sololá	712	San Antonio Palopó	9	San Antonio Palopo	4	Abril	2023-04-26T00:00:00	2024-11-08T00:00:00	2	Temperatura media	20.2
167478	7	Sololá	712	San Antonio Palopó	9	San Antonio Palopo	4	Abril	2023-04-26T00:00:00	2024-11-08T00:00:00	4	Temperatura máxima	20.2
167479	7	Sololá	712	San Antonio Palopó	9	San Antonio Palopo	4	Abril	2023-04-26T00:00:00	2024-11-08T00:00:00	3	Temperatura mínima	19.5
167480	7	Sololá	712	San Antonio Palopó	9	San Antonio Palopo	4	Abril	2023-04-26T00:00:00	2024-11-08T00:00:00	5	Humedad	85
167481	7	Sololá	712	San Antonio Palopó	9	San Antonio Palopo	4	Abril	2023-04-26T00:00:00	2024-11-08T00:00:00	6	Velocidad del viento	1.6
167482	7	Sololá	712	San Antonio Palopó	9	San Antonio Palopo	4	Abril	2023-04-26T00:00:00	2024-11-08T00:00:00	7	Dirección del viento	1.61
167483	7	Sololá	712	San Antonio Palopó	9	San Antonio Palopo	4	Abril	2023-04-26T00:00:00	2024-11-08T00:00:00	1	Precipitación	0
167484	7	Sololá	712	San Antonio Palopó	9	San Antonio Palopo	4	Abril	2023-04-26T00:00:00	2024-11-08T00:00:00	8	Radiación solar	0
167485	7	Sololá	712	San Antonio Palopó	9	San Antonio Palopo	4	Abril	2023-04-26T00:00:00	2024-11-08T01:00:00	2	Temperatura media	19.6
167486	7	Sololá	712	San Antonio Palopó	9	San Antonio Palopo	4	Abril	2023-04-26T00:00:00	2024-11-08T01:00:00	4	Temperatura máxima	20.2
167487	7	Sololá	712	San Antonio Palopó	9	San Antonio Palopo	4	Abril	2023-04-26T00:00:00	2024-11-08T01:00:00	3	Temperatura mínima	19.6
167488	7	Sololá	712	San Antonio Palopó	9	San Antonio Palopo	4	Abril	2023-04-26T00:00:00	2024-11-08T01:00:00	5	Humedad	86
167489	7	Sololá	712	San Antonio Palopó	9	San Antonio Palopo	4	Abril	2023-04-26T00:00:00	2024-11-08T01:00:00	6	Velocidad del viento	1.6
167490	7	Sololá	712	San Antonio Palopó	9	San Antonio Palopo	4	Abril	2023-04-26T00:00:00	2024-11-08T01:00:00	7	Dirección del viento	1.61
167491	7	Sololá	712	San Antonio Palopó	9	San Antonio Palopo	4	Abril	2023-04-26T00:00:00	2024-11-08T01:00:00	1	Precipitación	0
167492	7	Sololá	712	San Antonio Palopó	9	San Antonio Palopo	4	Abril	2023-04-26T00:00:00	2024-11-08T01:00:00	8	Radiación solar	0
167493	7	Sololá	712	San Antonio Palopó	9	San Antonio Palopo	4	Abril	2023-04-26T00:00:00	2024-11-08T02:00:00	2	Temperatura media	19.5
167494	7	Sololá	712	San Antonio Palopó	9	San Antonio Palopo	4	Abril	2023-04-26T00:00:00	2024-11-08T02:00:00	4	Temperatura máxima	19.7
167495	7	Sololá	712	San Antonio Palopó	9	San Antonio Palopo	4	Abril	2023-04-26T00:00:00	2024-11-08T02:00:00	3	Temperatura mínima	19.3
167496	7	Sololá	712	San Antonio Palopó	9	San Antonio Palopo	4	Abril	2023-04-26T00:00:00	2024-11-08T02:00:00	5	Humedad	86
167497	7	Sololá	712	San Antonio Palopó	9	San Antonio Palopo	4	Abril	2023-04-26T00:00:00	2024-11-08T02:00:00	6	Velocidad del viento	1.6
167498	7	Sololá	712	San Antonio Palopó	9	San Antonio Palopo	4	Abril	2023-04-26T00:00:00	2024-11-08T02:00:00	7	Dirección del viento	1.61
167499	7	Sololá	712	San Antonio Palopó	9	San Antonio Palopo	4	Abril	2023-04-26T00:00:00	2024-11-08T02:00:00	1	Precipitación	0
167500	7	Sololá	712	San Antonio Palopó	9	San Antonio Palopo	4	Abril	2023-04-26T00:00:00	2024-11-08T02:00:00	8	Radiación solar	0
167501	7	Sololá	712	San Antonio Palopó	9	San Antonio Palopo	4	Abril	2023-04-26T00:00:00	2024-11-08T03:00:00	2	Temperatura media	19.1
167502	7	Sololá	712	San Antonio Palopó	9	San Antonio Palopo	4	Abril	2023-04-26T00:00:00	2024-11-08T03:00:00	4	Temperatura máxima	19.6
167503	7	Sololá	712	San Antonio Palopó	9	San Antonio Palopo	4	Abril	2023-04-26T00:00:00	2024-11-08T03:00:00	3	Temperatura mínima	19
167504	7	Sololá	712	San Antonio Palopó	9	San Antonio Palopo	4	Abril	2023-04-26T00:00:00	2024-11-08T03:00:00	5	Humedad	83
167505	7	Sololá	712	San Antonio Palopó	9	San Antonio Palopo	4	Abril	2023-04-26T00:00:00	2024-11-08T03:00:00	6	Velocidad del viento	3.2
167506	7	Sololá	712	San Antonio Palopó	9	San Antonio Palopo	4	Abril	2023-04-26T00:00:00	2024-11-08T03:00:00	7	Dirección del viento	3.22
167507	7	Sololá	712	San Antonio Palopó	9	San Antonio Palopo	4	Abril	2023-04-26T00:00:00	2024-11-08T03:00:00	1	Precipitación	0
167508	7	Sololá	712	San Antonio Palopó	9	San Antonio Palopo	4	Abril	2023-04-26T00:00:00	2024-11-08T03:00:00	8	Radiación solar	0
167509	7	Sololá	712	San Antonio Palopó	9	San Antonio Palopo	4	Abril	2023-04-26T00:00:00	2024-11-08T04:00:00	2	Temperatura media	18.6
167510	7	Sololá	712	San Antonio Palopó	9	San Antonio Palopo	4	Abril	2023-04-26T00:00:00	2024-11-08T04:00:00	4	Temperatura máxima	19.2
167511	7	Sololá	712	San Antonio Palopó	9	San Antonio Palopo	4	Abril	2023-04-26T00:00:00	2024-11-08T04:00:00	3	Temperatura mínima	18.6
167512	7	Sololá	712	San Antonio Palopó	9	San Antonio Palopo	4	Abril	2023-04-26T00:00:00	2024-11-08T04:00:00	5	Humedad	83
167513	7	Sololá	712	San Antonio Palopó	9	San Antonio Palopo	4	Abril	2023-04-26T00:00:00	2024-11-08T04:00:00	6	Velocidad del viento	3.2
167514	7	Sololá	712	San Antonio Palopó	9	San Antonio Palopo	4	Abril	2023-04-26T00:00:00	2024-11-08T04:00:00	7	Dirección del viento	3.22
167515	7	Sololá	712	San Antonio Palopó	9	San Antonio Palopo	4	Abril	2023-04-26T00:00:00	2024-11-08T04:00:00	1	Precipitación	0
167516	7	Sololá	712	San Antonio Palopó	9	San Antonio Palopo	4	Abril	2023-04-26T00:00:00	2024-11-08T04:00:00	8	Radiación solar	0
167517	7	Sololá	712	San Antonio Palopó	9	San Antonio Palopo	4	Abril	2023-04-26T00:00:00	2024-11-08T05:00:00	2	Temperatura media	19.3
167518	7	Sololá	712	San Antonio Palopó	9	San Antonio Palopo	4	Abril	2023-04-26T00:00:00	2024-11-08T05:00:00	4	Temperatura máxima	19.3
167519	7	Sololá	712	San Antonio Palopó	9	San Antonio Palopo	4	Abril	2023-04-26T00:00:00	2024-11-08T05:00:00	3	Temperatura mínima	18.6
167520	7	Sololá	712	San Antonio Palopó	9	San Antonio Palopo	4	Abril	2023-04-26T00:00:00	2024-11-08T05:00:00	5	Humedad	83
167521	7	Sololá	712	San Antonio Palopó	9	San Antonio Palopo	4	Abril	2023-04-26T00:00:00	2024-11-08T05:00:00	6	Velocidad del viento	3.2
167522	7	Sololá	712	San Antonio Palopó	9	San Antonio Palopo	4	Abril	2023-04-26T00:00:00	2024-11-08T05:00:00	7	Dirección del viento	3.22
167523	7	Sololá	712	San Antonio Palopó	9	San Antonio Palopo	4	Abril	2023-04-26T00:00:00	2024-11-08T05:00:00	1	Precipitación	0
167524	7	Sololá	712	San Antonio Palopó	9	San Antonio Palopo	4	Abril	2023-04-26T00:00:00	2024-11-08T05:00:00	8	Radiación solar	0
167525	7	Sololá	712	San Antonio Palopó	9	San Antonio Palopo	4	Abril	2023-04-26T00:00:00	2024-11-08T06:00:00	2	Temperatura media	18.6
167526	7	Sololá	712	San Antonio Palopó	9	San Antonio Palopo	4	Abril	2023-04-26T00:00:00	2024-11-08T06:00:00	4	Temperatura máxima	19.4
167527	7	Sololá	712	San Antonio Palopó	9	San Antonio Palopo	4	Abril	2023-04-26T00:00:00	2024-11-08T06:00:00	3	Temperatura mínima	18.3
167528	7	Sololá	712	San Antonio Palopó	9	San Antonio Palopo	4	Abril	2023-04-26T00:00:00	2024-11-08T06:00:00	5	Humedad	80
167529	7	Sololá	712	San Antonio Palopó	9	San Antonio Palopo	4	Abril	2023-04-26T00:00:00	2024-11-08T06:00:00	6	Velocidad del viento	3.2
167530	7	Sololá	712	San Antonio Palopó	9	San Antonio Palopo	4	Abril	2023-04-26T00:00:00	2024-11-08T06:00:00	7	Dirección del viento	3.22
167531	7	Sololá	712	San Antonio Palopó	9	San Antonio Palopo	4	Abril	2023-04-26T00:00:00	2024-11-08T06:00:00	1	Precipitación	0
167532	7	Sololá	712	San Antonio Palopó	9	San Antonio Palopo	4	Abril	2023-04-26T00:00:00	2024-11-08T06:00:00	8	Radiación solar	1
167533	7	Sololá	712	San Antonio Palopó	9	San Antonio Palopo	4	Abril	2023-04-26T00:00:00	2024-11-08T07:00:00	2	Temperatura media	18.4
167534	7	Sololá	712	San Antonio Palopó	9	San Antonio Palopo	4	Abril	2023-04-26T00:00:00	2024-11-08T07:00:00	4	Temperatura máxima	18.6
167535	7	Sololá	712	San Antonio Palopó	9	San Antonio Palopo	4	Abril	2023-04-26T00:00:00	2024-11-08T07:00:00	3	Temperatura mínima	18.2
167536	7	Sololá	712	San Antonio Palopó	9	San Antonio Palopo	4	Abril	2023-04-26T00:00:00	2024-11-08T07:00:00	5	Humedad	82
167537	7	Sololá	712	San Antonio Palopó	9	San Antonio Palopo	4	Abril	2023-04-26T00:00:00	2024-11-08T07:00:00	6	Velocidad del viento	3.2
167538	7	Sololá	712	San Antonio Palopó	9	San Antonio Palopo	4	Abril	2023-04-26T00:00:00	2024-11-08T07:00:00	7	Dirección del viento	3.22
167539	7	Sololá	712	San Antonio Palopó	9	San Antonio Palopo	4	Abril	2023-04-26T00:00:00	2024-11-08T07:00:00	1	Precipitación	0
167540	7	Sololá	712	San Antonio Palopó	9	San Antonio Palopo	4	Abril	2023-04-26T00:00:00	2024-11-08T07:00:00	8	Radiación solar	42
167541	7	Sololá	712	San Antonio Palopó	9	San Antonio Palopo	4	Abril	2023-04-26T00:00:00	2024-11-08T08:00:00	2	Temperatura media	20.7
167542	7	Sololá	712	San Antonio Palopó	9	San Antonio Palopo	4	Abril	2023-04-26T00:00:00	2024-11-08T08:00:00	4	Temperatura máxima	20.7
167543	7	Sololá	712	San Antonio Palopó	9	San Antonio Palopo	4	Abril	2023-04-26T00:00:00	2024-11-08T08:00:00	3	Temperatura mínima	18.4
167544	7	Sololá	712	San Antonio Palopó	9	San Antonio Palopo	4	Abril	2023-04-26T00:00:00	2024-11-08T08:00:00	5	Humedad	78
167545	7	Sololá	712	San Antonio Palopó	9	San Antonio Palopo	4	Abril	2023-04-26T00:00:00	2024-11-08T08:00:00	6	Velocidad del viento	1.6
167546	7	Sololá	712	San Antonio Palopó	9	San Antonio Palopo	4	Abril	2023-04-26T00:00:00	2024-11-08T08:00:00	7	Dirección del viento	1.61
167547	7	Sololá	712	San Antonio Palopó	9	San Antonio Palopo	4	Abril	2023-04-26T00:00:00	2024-11-08T08:00:00	1	Precipitación	0
167548	7	Sololá	712	San Antonio Palopó	9	San Antonio Palopo	4	Abril	2023-04-26T00:00:00	2024-11-08T08:00:00	8	Radiación solar	173
167549	7	Sololá	712	San Antonio Palopó	9	San Antonio Palopo	4	Abril	2023-04-26T00:00:00	2024-11-08T09:00:00	2	Temperatura media	21.2
167550	7	Sololá	712	San Antonio Palopó	9	San Antonio Palopo	4	Abril	2023-04-26T00:00:00	2024-11-08T09:00:00	4	Temperatura máxima	21.2
167551	7	Sololá	712	San Antonio Palopó	9	San Antonio Palopo	4	Abril	2023-04-26T00:00:00	2024-11-08T09:00:00	3	Temperatura mínima	20.7
167552	7	Sololá	712	San Antonio Palopó	9	San Antonio Palopo	4	Abril	2023-04-26T00:00:00	2024-11-08T09:00:00	5	Humedad	79
167553	7	Sololá	712	San Antonio Palopó	9	San Antonio Palopo	4	Abril	2023-04-26T00:00:00	2024-11-08T09:00:00	6	Velocidad del viento	1.6
167554	7	Sololá	712	San Antonio Palopó	9	San Antonio Palopo	4	Abril	2023-04-26T00:00:00	2024-11-08T09:00:00	7	Dirección del viento	1.61
167555	7	Sololá	712	San Antonio Palopó	9	San Antonio Palopo	4	Abril	2023-04-26T00:00:00	2024-11-08T09:00:00	1	Precipitación	0
167556	7	Sololá	712	San Antonio Palopó	9	San Antonio Palopo	4	Abril	2023-04-26T00:00:00	2024-11-08T09:00:00	8	Radiación solar	435
167557	7	Sololá	712	San Antonio Palopó	9	San Antonio Palopo	4	Abril	2023-04-26T00:00:00	2024-11-08T10:00:00	2	Temperatura media	22.5
167558	7	Sololá	712	San Antonio Palopó	9	San Antonio Palopo	4	Abril	2023-04-26T00:00:00	2024-11-08T10:00:00	4	Temperatura máxima	22.6
167559	7	Sololá	712	San Antonio Palopó	9	San Antonio Palopo	4	Abril	2023-04-26T00:00:00	2024-11-08T10:00:00	3	Temperatura mínima	21.2
167560	7	Sololá	712	San Antonio Palopó	9	San Antonio Palopo	4	Abril	2023-04-26T00:00:00	2024-11-08T10:00:00	5	Humedad	70
167561	7	Sololá	712	San Antonio Palopó	9	San Antonio Palopo	4	Abril	2023-04-26T00:00:00	2024-11-08T10:00:00	6	Velocidad del viento	3.2
167562	7	Sololá	712	San Antonio Palopó	9	San Antonio Palopo	4	Abril	2023-04-26T00:00:00	2024-11-08T10:00:00	7	Dirección del viento	3.22
167563	7	Sololá	712	San Antonio Palopó	9	San Antonio Palopo	4	Abril	2023-04-26T00:00:00	2024-11-08T10:00:00	1	Precipitación	0
167564	7	Sololá	712	San Antonio Palopó	9	San Antonio Palopo	4	Abril	2023-04-26T00:00:00	2024-11-08T10:00:00	8	Radiación solar	678
167565	7	Sololá	712	San Antonio Palopó	9	San Antonio Palopo	4	Abril	2023-04-26T00:00:00	2024-11-08T11:00:00	2	Temperatura media	23.8
167566	7	Sololá	712	San Antonio Palopó	9	San Antonio Palopo	4	Abril	2023-04-26T00:00:00	2024-11-08T11:00:00	4	Temperatura máxima	23.8
167567	7	Sololá	712	San Antonio Palopó	9	San Antonio Palopo	4	Abril	2023-04-26T00:00:00	2024-11-08T11:00:00	3	Temperatura mínima	22.3
167568	7	Sololá	712	San Antonio Palopó	9	San Antonio Palopo	4	Abril	2023-04-26T00:00:00	2024-11-08T11:00:00	5	Humedad	69
167569	7	Sololá	712	San Antonio Palopó	9	San Antonio Palopo	4	Abril	2023-04-26T00:00:00	2024-11-08T11:00:00	6	Velocidad del viento	3.2
167570	7	Sololá	712	San Antonio Palopó	9	San Antonio Palopo	4	Abril	2023-04-26T00:00:00	2024-11-08T11:00:00	7	Dirección del viento	3.22
167571	7	Sololá	712	San Antonio Palopó	9	San Antonio Palopo	4	Abril	2023-04-26T00:00:00	2024-11-08T11:00:00	1	Precipitación	0
167572	7	Sololá	712	San Antonio Palopó	9	San Antonio Palopo	4	Abril	2023-04-26T00:00:00	2024-11-08T11:00:00	8	Radiación solar	828
167573	7	Sololá	712	San Antonio Palopó	9	San Antonio Palopo	4	Abril	2023-04-26T00:00:00	2024-11-08T12:00:00	2	Temperatura media	24.3
167574	7	Sololá	712	San Antonio Palopó	9	San Antonio Palopo	4	Abril	2023-04-26T00:00:00	2024-11-08T12:00:00	4	Temperatura máxima	24.4
167575	7	Sololá	712	San Antonio Palopó	9	San Antonio Palopo	4	Abril	2023-04-26T00:00:00	2024-11-08T12:00:00	3	Temperatura mínima	23.8
167576	7	Sololá	712	San Antonio Palopó	9	San Antonio Palopo	4	Abril	2023-04-26T00:00:00	2024-11-08T12:00:00	5	Humedad	63
167577	7	Sololá	712	San Antonio Palopó	9	San Antonio Palopo	4	Abril	2023-04-26T00:00:00	2024-11-08T12:00:00	6	Velocidad del viento	8
167578	7	Sololá	712	San Antonio Palopó	9	San Antonio Palopo	4	Abril	2023-04-26T00:00:00	2024-11-08T12:00:00	7	Dirección del viento	8.05
167579	7	Sololá	712	San Antonio Palopó	9	San Antonio Palopo	4	Abril	2023-04-26T00:00:00	2024-11-08T12:00:00	1	Precipitación	0
167580	7	Sololá	712	San Antonio Palopó	9	San Antonio Palopo	4	Abril	2023-04-26T00:00:00	2024-11-08T12:00:00	8	Radiación solar	912
167581	7	Sololá	712	San Antonio Palopó	9	San Antonio Palopo	4	Abril	2023-04-26T00:00:00	2024-11-08T13:00:00	2	Temperatura media	22.8
167582	7	Sololá	712	San Antonio Palopó	9	San Antonio Palopo	4	Abril	2023-04-26T00:00:00	2024-11-08T13:00:00	4	Temperatura máxima	24.4
167583	7	Sololá	712	San Antonio Palopó	9	San Antonio Palopo	4	Abril	2023-04-26T00:00:00	2024-11-08T13:00:00	3	Temperatura mínima	22.8
167584	7	Sololá	712	San Antonio Palopó	9	San Antonio Palopo	4	Abril	2023-04-26T00:00:00	2024-11-08T13:00:00	5	Humedad	73
167585	7	Sololá	712	San Antonio Palopó	9	San Antonio Palopo	4	Abril	2023-04-26T00:00:00	2024-11-08T13:00:00	6	Velocidad del viento	12.9
167586	7	Sololá	712	San Antonio Palopó	9	San Antonio Palopo	4	Abril	2023-04-26T00:00:00	2024-11-08T13:00:00	7	Dirección del viento	12.87
167587	7	Sololá	712	San Antonio Palopó	9	San Antonio Palopo	4	Abril	2023-04-26T00:00:00	2024-11-08T13:00:00	1	Precipitación	0
167588	7	Sololá	712	San Antonio Palopó	9	San Antonio Palopo	4	Abril	2023-04-26T00:00:00	2024-11-08T13:00:00	8	Radiación solar	766
167589	7	Sololá	712	San Antonio Palopó	9	San Antonio Palopo	4	Abril	2023-04-26T00:00:00	2024-11-08T14:00:00	2	Temperatura media	21.8
167590	7	Sololá	712	San Antonio Palopó	9	San Antonio Palopo	4	Abril	2023-04-26T00:00:00	2024-11-08T14:00:00	4	Temperatura máxima	23
167591	7	Sololá	712	San Antonio Palopó	9	San Antonio Palopo	4	Abril	2023-04-26T00:00:00	2024-11-08T14:00:00	3	Temperatura mínima	21.8
167592	7	Sololá	712	San Antonio Palopó	9	San Antonio Palopo	4	Abril	2023-04-26T00:00:00	2024-11-08T14:00:00	5	Humedad	76
167593	7	Sololá	712	San Antonio Palopó	9	San Antonio Palopo	4	Abril	2023-04-26T00:00:00	2024-11-08T14:00:00	6	Velocidad del viento	12.9
167594	7	Sololá	712	San Antonio Palopó	9	San Antonio Palopo	4	Abril	2023-04-26T00:00:00	2024-11-08T14:00:00	7	Dirección del viento	12.87
167595	7	Sololá	712	San Antonio Palopó	9	San Antonio Palopo	4	Abril	2023-04-26T00:00:00	2024-11-08T14:00:00	1	Precipitación	0
167596	7	Sololá	712	San Antonio Palopó	9	San Antonio Palopo	4	Abril	2023-04-26T00:00:00	2024-11-08T14:00:00	8	Radiación solar	316
167597	7	Sololá	712	San Antonio Palopó	9	San Antonio Palopo	4	Abril	2023-04-26T00:00:00	2024-11-08T15:00:00	2	Temperatura media	21.6
167598	7	Sololá	712	San Antonio Palopó	9	San Antonio Palopo	4	Abril	2023-04-26T00:00:00	2024-11-08T15:00:00	4	Temperatura máxima	21.8
167599	7	Sololá	712	San Antonio Palopó	9	San Antonio Palopo	4	Abril	2023-04-26T00:00:00	2024-11-08T15:00:00	3	Temperatura mínima	21.3
167600	7	Sololá	712	San Antonio Palopó	9	San Antonio Palopo	4	Abril	2023-04-26T00:00:00	2024-11-08T15:00:00	5	Humedad	77
167601	7	Sololá	712	San Antonio Palopó	9	San Antonio Palopo	4	Abril	2023-04-26T00:00:00	2024-11-08T15:00:00	6	Velocidad del viento	8
167602	7	Sololá	712	San Antonio Palopó	9	San Antonio Palopo	4	Abril	2023-04-26T00:00:00	2024-11-08T15:00:00	7	Dirección del viento	8.05
167603	7	Sololá	712	San Antonio Palopó	9	San Antonio Palopo	4	Abril	2023-04-26T00:00:00	2024-11-08T15:00:00	1	Precipitación	0
167604	7	Sololá	712	San Antonio Palopó	9	San Antonio Palopo	4	Abril	2023-04-26T00:00:00	2024-11-08T15:00:00	8	Radiación solar	105
167605	7	Sololá	712	San Antonio Palopó	9	San Antonio Palopo	4	Abril	2023-04-26T00:00:00	2024-11-08T16:00:00	2	Temperatura media	22.3
167606	7	Sololá	712	San Antonio Palopó	9	San Antonio Palopo	4	Abril	2023-04-26T00:00:00	2024-11-08T16:00:00	4	Temperatura máxima	22.8
167607	7	Sololá	712	San Antonio Palopó	9	San Antonio Palopo	4	Abril	2023-04-26T00:00:00	2024-11-08T16:00:00	3	Temperatura mínima	20.9
167608	7	Sololá	712	San Antonio Palopó	9	San Antonio Palopo	4	Abril	2023-04-26T00:00:00	2024-11-08T16:00:00	5	Humedad	76
167609	7	Sololá	712	San Antonio Palopó	9	San Antonio Palopo	4	Abril	2023-04-26T00:00:00	2024-11-08T16:00:00	6	Velocidad del viento	6.4
167610	7	Sololá	712	San Antonio Palopó	9	San Antonio Palopo	4	Abril	2023-04-26T00:00:00	2024-11-08T16:00:00	7	Dirección del viento	6.44
167611	7	Sololá	712	San Antonio Palopó	9	San Antonio Palopo	4	Abril	2023-04-26T00:00:00	2024-11-08T16:00:00	1	Precipitación	0
167612	7	Sololá	712	San Antonio Palopó	9	San Antonio Palopo	4	Abril	2023-04-26T00:00:00	2024-11-08T16:00:00	8	Radiación solar	326
167613	7	Sololá	712	San Antonio Palopó	9	San Antonio Palopo	4	Abril	2023-04-26T00:00:00	2024-11-08T17:00:00	2	Temperatura media	21.7
167614	7	Sololá	712	San Antonio Palopó	9	San Antonio Palopo	4	Abril	2023-04-26T00:00:00	2024-11-08T17:00:00	4	Temperatura máxima	22.7
167615	7	Sololá	712	San Antonio Palopó	9	San Antonio Palopo	4	Abril	2023-04-26T00:00:00	2024-11-08T17:00:00	3	Temperatura mínima	21.7
167616	7	Sololá	712	San Antonio Palopó	9	San Antonio Palopo	4	Abril	2023-04-26T00:00:00	2024-11-08T17:00:00	5	Humedad	76
167617	7	Sololá	712	San Antonio Palopó	9	San Antonio Palopo	4	Abril	2023-04-26T00:00:00	2024-11-08T17:00:00	6	Velocidad del viento	3.2
167618	7	Sololá	712	San Antonio Palopó	9	San Antonio Palopo	4	Abril	2023-04-26T00:00:00	2024-11-08T17:00:00	7	Dirección del viento	3.22
167619	7	Sololá	712	San Antonio Palopó	9	San Antonio Palopo	4	Abril	2023-04-26T00:00:00	2024-11-08T17:00:00	1	Precipitación	0
167620	7	Sololá	712	San Antonio Palopó	9	San Antonio Palopo	4	Abril	2023-04-26T00:00:00	2024-11-08T17:00:00	8	Radiación solar	160
167621	7	Sololá	712	San Antonio Palopó	9	San Antonio Palopo	4	Abril	2023-04-26T00:00:00	2024-11-08T18:00:00	2	Temperatura media	21.2
167622	7	Sololá	712	San Antonio Palopó	9	San Antonio Palopo	4	Abril	2023-04-26T00:00:00	2024-11-08T18:00:00	4	Temperatura máxima	21.8
167623	7	Sololá	712	San Antonio Palopó	9	San Antonio Palopo	4	Abril	2023-04-26T00:00:00	2024-11-08T18:00:00	3	Temperatura mínima	21.2
167624	7	Sololá	712	San Antonio Palopó	9	San Antonio Palopo	4	Abril	2023-04-26T00:00:00	2024-11-08T18:00:00	5	Humedad	77
167625	7	Sololá	712	San Antonio Palopó	9	San Antonio Palopo	4	Abril	2023-04-26T00:00:00	2024-11-08T18:00:00	6	Velocidad del viento	3.2
167626	7	Sololá	712	San Antonio Palopó	9	San Antonio Palopo	4	Abril	2023-04-26T00:00:00	2024-11-08T18:00:00	7	Dirección del viento	3.22
167627	7	Sololá	712	San Antonio Palopó	9	San Antonio Palopo	4	Abril	2023-04-26T00:00:00	2024-11-08T18:00:00	1	Precipitación	0
167628	7	Sololá	712	San Antonio Palopó	9	San Antonio Palopo	4	Abril	2023-04-26T00:00:00	2024-11-08T18:00:00	8	Radiación solar	37
167629	7	Sololá	712	San Antonio Palopó	9	San Antonio Palopo	4	Abril	2023-04-26T00:00:00	2024-11-08T19:00:00	2	Temperatura media	20.2
167630	7	Sololá	712	San Antonio Palopó	9	San Antonio Palopo	4	Abril	2023-04-26T00:00:00	2024-11-08T19:00:00	4	Temperatura máxima	21.2
167631	7	Sololá	712	San Antonio Palopó	9	San Antonio Palopo	4	Abril	2023-04-26T00:00:00	2024-11-08T19:00:00	3	Temperatura mínima	20.2
167632	7	Sololá	712	San Antonio Palopó	9	San Antonio Palopo	4	Abril	2023-04-26T00:00:00	2024-11-08T19:00:00	5	Humedad	80
167633	7	Sololá	712	San Antonio Palopó	9	San Antonio Palopo	4	Abril	2023-04-26T00:00:00	2024-11-08T19:00:00	6	Velocidad del viento	3.2
167634	7	Sololá	712	San Antonio Palopó	9	San Antonio Palopo	4	Abril	2023-04-26T00:00:00	2024-11-08T19:00:00	7	Dirección del viento	3.22
167635	7	Sololá	712	San Antonio Palopó	9	San Antonio Palopo	4	Abril	2023-04-26T00:00:00	2024-11-08T19:00:00	1	Precipitación	0
167636	7	Sololá	712	San Antonio Palopó	9	San Antonio Palopo	4	Abril	2023-04-26T00:00:00	2024-11-08T19:00:00	8	Radiación solar	0
167637	7	Sololá	712	San Antonio Palopó	9	San Antonio Palopo	4	Abril	2023-04-26T00:00:00	2024-11-08T20:00:00	2	Temperatura media	19.6
167638	7	Sololá	712	San Antonio Palopó	9	San Antonio Palopo	4	Abril	2023-04-26T00:00:00	2024-11-08T20:00:00	4	Temperatura máxima	20.2
167639	7	Sololá	712	San Antonio Palopó	9	San Antonio Palopo	4	Abril	2023-04-26T00:00:00	2024-11-08T20:00:00	3	Temperatura mínima	19.6
167640	7	Sololá	712	San Antonio Palopó	9	San Antonio Palopo	4	Abril	2023-04-26T00:00:00	2024-11-08T20:00:00	5	Humedad	81
167641	7	Sololá	712	San Antonio Palopó	9	San Antonio Palopo	4	Abril	2023-04-26T00:00:00	2024-11-08T20:00:00	6	Velocidad del viento	3.2
167642	7	Sololá	712	San Antonio Palopó	9	San Antonio Palopo	4	Abril	2023-04-26T00:00:00	2024-11-08T20:00:00	7	Dirección del viento	3.22
167643	7	Sololá	712	San Antonio Palopó	9	San Antonio Palopo	4	Abril	2023-04-26T00:00:00	2024-11-08T20:00:00	1	Precipitación	0
167644	7	Sololá	712	San Antonio Palopó	9	San Antonio Palopo	4	Abril	2023-04-26T00:00:00	2024-11-08T20:00:00	8	Radiación solar	0
167645	7	Sololá	712	San Antonio Palopó	9	San Antonio Palopo	4	Abril	2023-04-26T00:00:00	2024-11-08T21:00:00	2	Temperatura media	19.1
167646	7	Sololá	712	San Antonio Palopó	9	San Antonio Palopo	4	Abril	2023-04-26T00:00:00	2024-11-08T21:00:00	4	Temperatura máxima	19.7
167647	7	Sololá	712	San Antonio Palopó	9	San Antonio Palopo	4	Abril	2023-04-26T00:00:00	2024-11-08T21:00:00	3	Temperatura mínima	19.1
167648	7	Sololá	712	San Antonio Palopó	9	San Antonio Palopo	4	Abril	2023-04-26T00:00:00	2024-11-08T21:00:00	5	Humedad	82
167649	7	Sololá	712	San Antonio Palopó	9	San Antonio Palopo	4	Abril	2023-04-26T00:00:00	2024-11-08T21:00:00	6	Velocidad del viento	1.6
167650	7	Sololá	712	San Antonio Palopó	9	San Antonio Palopo	4	Abril	2023-04-26T00:00:00	2024-11-08T21:00:00	7	Dirección del viento	1.61
167651	7	Sololá	712	San Antonio Palopó	9	San Antonio Palopo	4	Abril	2023-04-26T00:00:00	2024-11-08T21:00:00	1	Precipitación	0
167652	7	Sololá	712	San Antonio Palopó	9	San Antonio Palopo	4	Abril	2023-04-26T00:00:00	2024-11-08T21:00:00	8	Radiación solar	0
167653	7	Sololá	712	San Antonio Palopó	9	San Antonio Palopo	4	Abril	2023-04-26T00:00:00	2024-11-08T22:00:00	2	Temperatura media	19.4
167654	7	Sololá	712	San Antonio Palopó	9	San Antonio Palopo	4	Abril	2023-04-26T00:00:00	2024-11-08T22:00:00	4	Temperatura máxima	19.8
167655	7	Sololá	712	San Antonio Palopó	9	San Antonio Palopo	4	Abril	2023-04-26T00:00:00	2024-11-08T22:00:00	3	Temperatura mínima	19
167656	7	Sololá	712	San Antonio Palopó	9	San Antonio Palopo	4	Abril	2023-04-26T00:00:00	2024-11-08T22:00:00	5	Humedad	79
167657	7	Sololá	712	San Antonio Palopó	9	San Antonio Palopo	4	Abril	2023-04-26T00:00:00	2024-11-08T22:00:00	6	Velocidad del viento	3.2
167658	7	Sololá	712	San Antonio Palopó	9	San Antonio Palopo	4	Abril	2023-04-26T00:00:00	2024-11-08T22:00:00	7	Dirección del viento	3.22
167659	7	Sololá	712	San Antonio Palopó	9	San Antonio Palopo	4	Abril	2023-04-26T00:00:00	2024-11-08T22:00:00	1	Precipitación	0
167660	7	Sololá	712	San Antonio Palopó	9	San Antonio Palopo	4	Abril	2023-04-26T00:00:00	2024-11-08T22:00:00	8	Radiación solar	0
167661	7	Sololá	712	San Antonio Palopó	9	San Antonio Palopo	4	Abril	2023-04-26T00:00:00	2024-11-08T23:00:00	2	Temperatura media	19.1
167662	7	Sololá	712	San Antonio Palopó	9	San Antonio Palopo	4	Abril	2023-04-26T00:00:00	2024-11-08T23:00:00	4	Temperatura máxima	19.4
167663	7	Sololá	712	San Antonio Palopó	9	San Antonio Palopo	4	Abril	2023-04-26T00:00:00	2024-11-08T23:00:00	3	Temperatura mínima	18.7
167664	7	Sololá	712	San Antonio Palopó	9	San Antonio Palopo	4	Abril	2023-04-26T00:00:00	2024-11-08T23:00:00	5	Humedad	80
167665	7	Sololá	712	San Antonio Palopó	9	San Antonio Palopo	4	Abril	2023-04-26T00:00:00	2024-11-08T23:00:00	6	Velocidad del viento	3.2
167666	7	Sololá	712	San Antonio Palopó	9	San Antonio Palopo	4	Abril	2023-04-26T00:00:00	2024-11-08T23:00:00	7	Dirección del viento	3.22
167667	7	Sololá	712	San Antonio Palopó	9	San Antonio Palopo	4	Abril	2023-04-26T00:00:00	2024-11-08T23:00:00	1	Precipitación	0
167668	7	Sololá	712	San Antonio Palopó	9	San Antonio Palopo	4	Abril	2023-04-26T00:00:00	2024-11-08T23:00:00	8	Radiación solar	0
167669	7	Sololá	712	San Antonio Palopó	9	San Antonio Palopo	4	Abril	2023-04-27T00:00:00	2024-11-08T00:00:00	2	Temperatura media	18.1
167670	7	Sololá	712	San Antonio Palopó	9	San Antonio Palopo	4	Abril	2023-04-27T00:00:00	2024-11-08T00:00:00	4	Temperatura máxima	19.2
167671	7	Sololá	712	San Antonio Palopó	9	San Antonio Palopo	4	Abril	2023-04-27T00:00:00	2024-11-08T00:00:00	3	Temperatura mínima	18.1
167672	7	Sololá	712	San Antonio Palopó	9	San Antonio Palopo	4	Abril	2023-04-27T00:00:00	2024-11-08T00:00:00	5	Humedad	84
167673	7	Sololá	712	San Antonio Palopó	9	San Antonio Palopo	4	Abril	2023-04-27T00:00:00	2024-11-08T00:00:00	6	Velocidad del viento	3.2
167674	7	Sololá	712	San Antonio Palopó	9	San Antonio Palopo	4	Abril	2023-04-27T00:00:00	2024-11-08T00:00:00	7	Dirección del viento	3.22
167675	7	Sololá	712	San Antonio Palopó	9	San Antonio Palopo	4	Abril	2023-04-27T00:00:00	2024-11-08T00:00:00	1	Precipitación	0
167676	7	Sololá	712	San Antonio Palopó	9	San Antonio Palopo	4	Abril	2023-04-27T00:00:00	2024-11-08T00:00:00	8	Radiación solar	0
167677	7	Sololá	712	San Antonio Palopó	9	San Antonio Palopo	4	Abril	2023-04-27T00:00:00	2024-11-08T01:00:00	2	Temperatura media	18.4
167678	7	Sololá	712	San Antonio Palopó	9	San Antonio Palopo	4	Abril	2023-04-27T00:00:00	2024-11-08T01:00:00	4	Temperatura máxima	18.4
167679	7	Sololá	712	San Antonio Palopó	9	San Antonio Palopo	4	Abril	2023-04-27T00:00:00	2024-11-08T01:00:00	3	Temperatura mínima	18
167680	7	Sololá	712	San Antonio Palopó	9	San Antonio Palopo	4	Abril	2023-04-27T00:00:00	2024-11-08T01:00:00	5	Humedad	83
167681	7	Sololá	712	San Antonio Palopó	9	San Antonio Palopo	4	Abril	2023-04-27T00:00:00	2024-11-08T01:00:00	6	Velocidad del viento	3.2
167682	7	Sololá	712	San Antonio Palopó	9	San Antonio Palopo	4	Abril	2023-04-27T00:00:00	2024-11-08T01:00:00	7	Dirección del viento	3.22
167683	7	Sololá	712	San Antonio Palopó	9	San Antonio Palopo	4	Abril	2023-04-27T00:00:00	2024-11-08T01:00:00	1	Precipitación	0
167684	7	Sololá	712	San Antonio Palopó	9	San Antonio Palopo	4	Abril	2023-04-27T00:00:00	2024-11-08T01:00:00	8	Radiación solar	0
167685	7	Sololá	712	San Antonio Palopó	9	San Antonio Palopo	4	Abril	2023-04-27T00:00:00	2024-11-08T02:00:00	2	Temperatura media	19.2
167686	7	Sololá	712	San Antonio Palopó	9	San Antonio Palopo	4	Abril	2023-04-27T00:00:00	2024-11-08T02:00:00	4	Temperatura máxima	19.2
167687	7	Sololá	712	San Antonio Palopó	9	San Antonio Palopo	4	Abril	2023-04-27T00:00:00	2024-11-08T02:00:00	3	Temperatura mínima	18.4
167688	7	Sololá	712	San Antonio Palopó	9	San Antonio Palopo	4	Abril	2023-04-27T00:00:00	2024-11-08T02:00:00	5	Humedad	82
167689	7	Sololá	712	San Antonio Palopó	9	San Antonio Palopo	4	Abril	2023-04-27T00:00:00	2024-11-08T02:00:00	6	Velocidad del viento	1.6
167690	7	Sololá	712	San Antonio Palopó	9	San Antonio Palopo	4	Abril	2023-04-27T00:00:00	2024-11-08T02:00:00	7	Dirección del viento	1.61
167691	7	Sololá	712	San Antonio Palopó	9	San Antonio Palopo	4	Abril	2023-04-27T00:00:00	2024-11-08T02:00:00	1	Precipitación	0
167692	7	Sololá	712	San Antonio Palopó	9	San Antonio Palopo	4	Abril	2023-04-27T00:00:00	2024-11-08T02:00:00	8	Radiación solar	0
167693	7	Sololá	712	San Antonio Palopó	9	San Antonio Palopo	4	Abril	2023-04-27T00:00:00	2024-11-08T03:00:00	2	Temperatura media	18.2
167694	7	Sololá	712	San Antonio Palopó	9	San Antonio Palopo	4	Abril	2023-04-27T00:00:00	2024-11-08T03:00:00	4	Temperatura máxima	19.2
167695	7	Sololá	712	San Antonio Palopó	9	San Antonio Palopo	4	Abril	2023-04-27T00:00:00	2024-11-08T03:00:00	3	Temperatura mínima	18.2
167696	7	Sololá	712	San Antonio Palopó	9	San Antonio Palopo	4	Abril	2023-04-27T00:00:00	2024-11-08T03:00:00	5	Humedad	85
167697	7	Sololá	712	San Antonio Palopó	9	San Antonio Palopo	4	Abril	2023-04-27T00:00:00	2024-11-08T03:00:00	6	Velocidad del viento	3.2
167698	7	Sololá	712	San Antonio Palopó	9	San Antonio Palopo	4	Abril	2023-04-27T00:00:00	2024-11-08T03:00:00	7	Dirección del viento	3.22
167699	7	Sololá	712	San Antonio Palopó	9	San Antonio Palopo	4	Abril	2023-04-27T00:00:00	2024-11-08T03:00:00	1	Precipitación	0
167700	7	Sololá	712	San Antonio Palopó	9	San Antonio Palopo	4	Abril	2023-04-27T00:00:00	2024-11-08T03:00:00	8	Radiación solar	0
167701	7	Sololá	712	San Antonio Palopó	9	San Antonio Palopo	4	Abril	2023-04-27T00:00:00	2024-11-08T04:00:00	2	Temperatura media	17.6
167702	7	Sololá	712	San Antonio Palopó	9	San Antonio Palopo	4	Abril	2023-04-27T00:00:00	2024-11-08T04:00:00	4	Temperatura máxima	18.2
167703	7	Sololá	712	San Antonio Palopó	9	San Antonio Palopo	4	Abril	2023-04-27T00:00:00	2024-11-08T04:00:00	3	Temperatura mínima	17.5
167704	7	Sololá	712	San Antonio Palopó	9	San Antonio Palopo	4	Abril	2023-04-27T00:00:00	2024-11-08T04:00:00	5	Humedad	84
167705	7	Sololá	712	San Antonio Palopó	9	San Antonio Palopo	4	Abril	2023-04-27T00:00:00	2024-11-08T04:00:00	6	Velocidad del viento	3.2
167706	7	Sololá	712	San Antonio Palopó	9	San Antonio Palopo	4	Abril	2023-04-27T00:00:00	2024-11-08T04:00:00	7	Dirección del viento	3.22
167707	7	Sololá	712	San Antonio Palopó	9	San Antonio Palopo	4	Abril	2023-04-27T00:00:00	2024-11-08T04:00:00	1	Precipitación	0
167708	7	Sololá	712	San Antonio Palopó	9	San Antonio Palopo	4	Abril	2023-04-27T00:00:00	2024-11-08T04:00:00	8	Radiación solar	0
167709	7	Sololá	712	San Antonio Palopó	9	San Antonio Palopo	4	Abril	2023-04-27T00:00:00	2024-11-08T05:00:00	2	Temperatura media	17.2
167710	7	Sololá	712	San Antonio Palopó	9	San Antonio Palopo	4	Abril	2023-04-27T00:00:00	2024-11-08T05:00:00	4	Temperatura máxima	17.6
167711	7	Sololá	712	San Antonio Palopó	9	San Antonio Palopo	4	Abril	2023-04-27T00:00:00	2024-11-08T05:00:00	3	Temperatura mínima	17.2
167712	7	Sololá	712	San Antonio Palopó	9	San Antonio Palopo	4	Abril	2023-04-27T00:00:00	2024-11-08T05:00:00	5	Humedad	86
167713	7	Sololá	712	San Antonio Palopó	9	San Antonio Palopo	4	Abril	2023-04-27T00:00:00	2024-11-08T05:00:00	6	Velocidad del viento	3.2
167714	7	Sololá	712	San Antonio Palopó	9	San Antonio Palopo	4	Abril	2023-04-27T00:00:00	2024-11-08T05:00:00	7	Dirección del viento	3.22
167715	7	Sololá	712	San Antonio Palopó	9	San Antonio Palopo	4	Abril	2023-04-27T00:00:00	2024-11-08T05:00:00	1	Precipitación	0
167716	7	Sololá	712	San Antonio Palopó	9	San Antonio Palopo	4	Abril	2023-04-27T00:00:00	2024-11-08T05:00:00	8	Radiación solar	0
167717	7	Sololá	712	San Antonio Palopó	9	San Antonio Palopo	4	Abril	2023-04-27T00:00:00	2024-11-08T06:00:00	2	Temperatura media	17
167718	7	Sololá	712	San Antonio Palopó	9	San Antonio Palopo	4	Abril	2023-04-27T00:00:00	2024-11-08T06:00:00	4	Temperatura máxima	17.2
167719	7	Sololá	712	San Antonio Palopó	9	San Antonio Palopo	4	Abril	2023-04-27T00:00:00	2024-11-08T06:00:00	3	Temperatura mínima	16.9
167720	7	Sololá	712	San Antonio Palopó	9	San Antonio Palopo	4	Abril	2023-04-27T00:00:00	2024-11-08T06:00:00	5	Humedad	85
167721	7	Sololá	712	San Antonio Palopó	9	San Antonio Palopo	4	Abril	2023-04-27T00:00:00	2024-11-08T06:00:00	6	Velocidad del viento	3.2
167722	7	Sololá	712	San Antonio Palopó	9	San Antonio Palopo	4	Abril	2023-04-27T00:00:00	2024-11-08T06:00:00	7	Dirección del viento	3.22
167723	7	Sololá	712	San Antonio Palopó	9	San Antonio Palopo	4	Abril	2023-04-27T00:00:00	2024-11-08T06:00:00	1	Precipitación	0
167724	7	Sololá	712	San Antonio Palopó	9	San Antonio Palopo	4	Abril	2023-04-27T00:00:00	2024-11-08T06:00:00	8	Radiación solar	1
167725	7	Sololá	712	San Antonio Palopó	9	San Antonio Palopo	4	Abril	2023-04-27T00:00:00	2024-11-08T07:00:00	2	Temperatura media	17.7
167726	7	Sololá	712	San Antonio Palopó	9	San Antonio Palopo	4	Abril	2023-04-27T00:00:00	2024-11-08T07:00:00	4	Temperatura máxima	17.7
167727	7	Sololá	712	San Antonio Palopó	9	San Antonio Palopo	4	Abril	2023-04-27T00:00:00	2024-11-08T07:00:00	3	Temperatura mínima	17
167728	7	Sololá	712	San Antonio Palopó	9	San Antonio Palopo	4	Abril	2023-04-27T00:00:00	2024-11-08T07:00:00	5	Humedad	85
167729	7	Sololá	712	San Antonio Palopó	9	San Antonio Palopo	4	Abril	2023-04-27T00:00:00	2024-11-08T07:00:00	6	Velocidad del viento	3.2
167730	7	Sololá	712	San Antonio Palopó	9	San Antonio Palopo	4	Abril	2023-04-27T00:00:00	2024-11-08T07:00:00	7	Dirección del viento	3.22
167731	7	Sololá	712	San Antonio Palopó	9	San Antonio Palopo	4	Abril	2023-04-27T00:00:00	2024-11-08T07:00:00	1	Precipitación	0
167732	7	Sololá	712	San Antonio Palopó	9	San Antonio Palopo	4	Abril	2023-04-27T00:00:00	2024-11-08T07:00:00	8	Radiación solar	41
167733	7	Sololá	712	San Antonio Palopó	9	San Antonio Palopo	4	Abril	2023-04-27T00:00:00	2024-11-08T08:00:00	2	Temperatura media	19.9
167734	7	Sololá	712	San Antonio Palopó	9	San Antonio Palopo	4	Abril	2023-04-27T00:00:00	2024-11-08T08:00:00	4	Temperatura máxima	19.9
167735	7	Sololá	712	San Antonio Palopó	9	San Antonio Palopo	4	Abril	2023-04-27T00:00:00	2024-11-08T08:00:00	3	Temperatura mínima	17.7
167736	7	Sololá	712	San Antonio Palopó	9	San Antonio Palopo	4	Abril	2023-04-27T00:00:00	2024-11-08T08:00:00	5	Humedad	79
167737	7	Sololá	712	San Antonio Palopó	9	San Antonio Palopo	4	Abril	2023-04-27T00:00:00	2024-11-08T08:00:00	6	Velocidad del viento	1.6
167738	7	Sololá	712	San Antonio Palopó	9	San Antonio Palopo	4	Abril	2023-04-27T00:00:00	2024-11-08T08:00:00	7	Dirección del viento	1.61
167739	7	Sololá	712	San Antonio Palopó	9	San Antonio Palopo	4	Abril	2023-04-27T00:00:00	2024-11-08T08:00:00	1	Precipitación	0
167740	7	Sololá	712	San Antonio Palopó	9	San Antonio Palopo	4	Abril	2023-04-27T00:00:00	2024-11-08T08:00:00	8	Radiación solar	172
167741	7	Sololá	712	San Antonio Palopó	9	San Antonio Palopo	4	Abril	2023-04-27T00:00:00	2024-11-08T09:00:00	2	Temperatura media	20.4
167742	7	Sololá	712	San Antonio Palopó	9	San Antonio Palopo	4	Abril	2023-04-27T00:00:00	2024-11-08T09:00:00	4	Temperatura máxima	20.6
167743	7	Sololá	712	San Antonio Palopó	9	San Antonio Palopo	4	Abril	2023-04-27T00:00:00	2024-11-08T09:00:00	3	Temperatura mínima	19.9
167744	7	Sololá	712	San Antonio Palopó	9	San Antonio Palopo	4	Abril	2023-04-27T00:00:00	2024-11-08T09:00:00	5	Humedad	78
167745	7	Sololá	712	San Antonio Palopó	9	San Antonio Palopo	4	Abril	2023-04-27T00:00:00	2024-11-08T09:00:00	6	Velocidad del viento	1.6
167746	7	Sololá	712	San Antonio Palopó	9	San Antonio Palopo	4	Abril	2023-04-27T00:00:00	2024-11-08T09:00:00	7	Dirección del viento	1.61
167747	7	Sololá	712	San Antonio Palopó	9	San Antonio Palopo	4	Abril	2023-04-27T00:00:00	2024-11-08T09:00:00	1	Precipitación	0
167748	7	Sololá	712	San Antonio Palopó	9	San Antonio Palopo	4	Abril	2023-04-27T00:00:00	2024-11-08T09:00:00	8	Radiación solar	454
167749	7	Sololá	712	San Antonio Palopó	9	San Antonio Palopo	4	Abril	2023-04-27T00:00:00	2024-11-08T10:00:00	2	Temperatura media	22.2
167750	7	Sololá	712	San Antonio Palopó	9	San Antonio Palopo	4	Abril	2023-04-27T00:00:00	2024-11-08T10:00:00	4	Temperatura máxima	22.2
167751	7	Sololá	712	San Antonio Palopó	9	San Antonio Palopo	4	Abril	2023-04-27T00:00:00	2024-11-08T10:00:00	3	Temperatura mínima	20.4
167752	7	Sololá	712	San Antonio Palopó	9	San Antonio Palopo	4	Abril	2023-04-27T00:00:00	2024-11-08T10:00:00	5	Humedad	71
167753	7	Sololá	712	San Antonio Palopó	9	San Antonio Palopo	4	Abril	2023-04-27T00:00:00	2024-11-08T10:00:00	6	Velocidad del viento	3.2
167754	7	Sololá	712	San Antonio Palopó	9	San Antonio Palopo	4	Abril	2023-04-27T00:00:00	2024-11-08T10:00:00	7	Dirección del viento	3.22
167755	7	Sololá	712	San Antonio Palopó	9	San Antonio Palopo	4	Abril	2023-04-27T00:00:00	2024-11-08T10:00:00	1	Precipitación	0
167756	7	Sololá	712	San Antonio Palopó	9	San Antonio Palopo	4	Abril	2023-04-27T00:00:00	2024-11-08T10:00:00	8	Radiación solar	665
167757	7	Sololá	712	San Antonio Palopó	9	San Antonio Palopo	4	Abril	2023-04-27T00:00:00	2024-11-08T11:00:00	2	Temperatura media	22.8
167758	7	Sololá	712	San Antonio Palopó	9	San Antonio Palopo	4	Abril	2023-04-27T00:00:00	2024-11-08T11:00:00	4	Temperatura máxima	23
167759	7	Sololá	712	San Antonio Palopó	9	San Antonio Palopo	4	Abril	2023-04-27T00:00:00	2024-11-08T11:00:00	3	Temperatura mínima	22.2
167760	7	Sololá	712	San Antonio Palopó	9	San Antonio Palopo	4	Abril	2023-04-27T00:00:00	2024-11-08T11:00:00	5	Humedad	72
167761	7	Sololá	712	San Antonio Palopó	9	San Antonio Palopo	4	Abril	2023-04-27T00:00:00	2024-11-08T11:00:00	6	Velocidad del viento	3.2
167762	7	Sololá	712	San Antonio Palopó	9	San Antonio Palopo	4	Abril	2023-04-27T00:00:00	2024-11-08T11:00:00	7	Dirección del viento	3.22
167763	7	Sololá	712	San Antonio Palopó	9	San Antonio Palopo	4	Abril	2023-04-27T00:00:00	2024-11-08T11:00:00	1	Precipitación	0
167764	7	Sololá	712	San Antonio Palopó	9	San Antonio Palopo	4	Abril	2023-04-27T00:00:00	2024-11-08T11:00:00	8	Radiación solar	823
167765	7	Sololá	712	San Antonio Palopó	9	San Antonio Palopo	4	Abril	2023-04-27T00:00:00	2024-11-08T12:00:00	2	Temperatura media	23.8
167766	7	Sololá	712	San Antonio Palopó	9	San Antonio Palopo	4	Abril	2023-04-27T00:00:00	2024-11-08T12:00:00	4	Temperatura máxima	24.3
167767	7	Sololá	712	San Antonio Palopó	9	San Antonio Palopo	4	Abril	2023-04-27T00:00:00	2024-11-08T12:00:00	3	Temperatura mínima	22.8
167768	7	Sololá	712	San Antonio Palopó	9	San Antonio Palopo	4	Abril	2023-04-27T00:00:00	2024-11-08T12:00:00	5	Humedad	73
167769	7	Sololá	712	San Antonio Palopó	9	San Antonio Palopo	4	Abril	2023-04-27T00:00:00	2024-11-08T12:00:00	6	Velocidad del viento	6.4
167770	7	Sololá	712	San Antonio Palopó	9	San Antonio Palopo	4	Abril	2023-04-27T00:00:00	2024-11-08T12:00:00	7	Dirección del viento	6.44
167771	7	Sololá	712	San Antonio Palopó	9	San Antonio Palopo	4	Abril	2023-04-27T00:00:00	2024-11-08T12:00:00	1	Precipitación	0
167772	7	Sololá	712	San Antonio Palopó	9	San Antonio Palopo	4	Abril	2023-04-27T00:00:00	2024-11-08T12:00:00	8	Radiación solar	917
167773	7	Sololá	712	San Antonio Palopó	9	San Antonio Palopo	4	Abril	2023-04-27T00:00:00	2024-11-08T13:00:00	2	Temperatura media	24.1
167774	7	Sololá	712	San Antonio Palopó	9	San Antonio Palopo	4	Abril	2023-04-27T00:00:00	2024-11-08T13:00:00	4	Temperatura máxima	24.4
167775	7	Sololá	712	San Antonio Palopó	9	San Antonio Palopo	4	Abril	2023-04-27T00:00:00	2024-11-08T13:00:00	3	Temperatura mínima	23.8
167776	7	Sololá	712	San Antonio Palopó	9	San Antonio Palopo	4	Abril	2023-04-27T00:00:00	2024-11-08T13:00:00	5	Humedad	72
167777	7	Sololá	712	San Antonio Palopó	9	San Antonio Palopo	4	Abril	2023-04-27T00:00:00	2024-11-08T13:00:00	6	Velocidad del viento	9.7
167778	7	Sololá	712	San Antonio Palopó	9	San Antonio Palopo	4	Abril	2023-04-27T00:00:00	2024-11-08T13:00:00	7	Dirección del viento	9.66
167779	7	Sololá	712	San Antonio Palopó	9	San Antonio Palopo	4	Abril	2023-04-27T00:00:00	2024-11-08T13:00:00	1	Precipitación	0
167780	7	Sololá	712	San Antonio Palopó	9	San Antonio Palopo	4	Abril	2023-04-27T00:00:00	2024-11-08T13:00:00	8	Radiación solar	953
167781	7	Sololá	712	San Antonio Palopó	9	San Antonio Palopo	4	Abril	2023-04-27T00:00:00	2024-11-08T14:00:00	2	Temperatura media	23.8
167782	7	Sololá	712	San Antonio Palopó	9	San Antonio Palopo	4	Abril	2023-04-27T00:00:00	2024-11-08T14:00:00	4	Temperatura máxima	24.2
167783	7	Sololá	712	San Antonio Palopó	9	San Antonio Palopo	4	Abril	2023-04-27T00:00:00	2024-11-08T14:00:00	3	Temperatura mínima	23.3
167784	7	Sololá	712	San Antonio Palopó	9	San Antonio Palopo	4	Abril	2023-04-27T00:00:00	2024-11-08T14:00:00	5	Humedad	72
167785	7	Sololá	712	San Antonio Palopó	9	San Antonio Palopo	4	Abril	2023-04-27T00:00:00	2024-11-08T14:00:00	6	Velocidad del viento	12.9
167786	7	Sololá	712	San Antonio Palopó	9	San Antonio Palopo	4	Abril	2023-04-27T00:00:00	2024-11-08T14:00:00	7	Dirección del viento	12.87
167787	7	Sololá	712	San Antonio Palopó	9	San Antonio Palopo	4	Abril	2023-04-27T00:00:00	2024-11-08T14:00:00	1	Precipitación	0
167788	7	Sololá	712	San Antonio Palopó	9	San Antonio Palopo	4	Abril	2023-04-27T00:00:00	2024-11-08T14:00:00	8	Radiación solar	855
167789	7	Sololá	712	San Antonio Palopó	9	San Antonio Palopo	4	Abril	2023-04-27T00:00:00	2024-11-08T15:00:00	2	Temperatura media	23.1
167790	7	Sololá	712	San Antonio Palopó	9	San Antonio Palopo	4	Abril	2023-04-27T00:00:00	2024-11-08T15:00:00	4	Temperatura máxima	23.8
167791	7	Sololá	712	San Antonio Palopó	9	San Antonio Palopo	4	Abril	2023-04-27T00:00:00	2024-11-08T15:00:00	3	Temperatura mínima	22.8
167792	7	Sololá	712	San Antonio Palopó	9	San Antonio Palopo	4	Abril	2023-04-27T00:00:00	2024-11-08T15:00:00	5	Humedad	74
167793	7	Sololá	712	San Antonio Palopó	9	San Antonio Palopo	4	Abril	2023-04-27T00:00:00	2024-11-08T15:00:00	6	Velocidad del viento	12.9
167794	7	Sololá	712	San Antonio Palopó	9	San Antonio Palopo	4	Abril	2023-04-27T00:00:00	2024-11-08T15:00:00	7	Dirección del viento	12.87
167795	7	Sololá	712	San Antonio Palopó	9	San Antonio Palopo	4	Abril	2023-04-27T00:00:00	2024-11-08T15:00:00	1	Precipitación	0
167796	7	Sololá	712	San Antonio Palopó	9	San Antonio Palopo	4	Abril	2023-04-27T00:00:00	2024-11-08T15:00:00	8	Radiación solar	460
167797	7	Sololá	712	San Antonio Palopó	9	San Antonio Palopo	4	Abril	2023-04-27T00:00:00	2024-11-08T16:00:00	2	Temperatura media	22.4
167798	7	Sololá	712	San Antonio Palopó	9	San Antonio Palopo	4	Abril	2023-04-27T00:00:00	2024-11-08T16:00:00	4	Temperatura máxima	23.5
167799	7	Sololá	712	San Antonio Palopó	9	San Antonio Palopo	4	Abril	2023-04-27T00:00:00	2024-11-08T16:00:00	3	Temperatura mínima	22.4
167800	7	Sololá	712	San Antonio Palopó	9	San Antonio Palopo	4	Abril	2023-04-27T00:00:00	2024-11-08T16:00:00	5	Humedad	76
167801	7	Sololá	712	San Antonio Palopó	9	San Antonio Palopo	4	Abril	2023-04-27T00:00:00	2024-11-08T16:00:00	6	Velocidad del viento	8
167802	7	Sololá	712	San Antonio Palopó	9	San Antonio Palopo	4	Abril	2023-04-27T00:00:00	2024-11-08T16:00:00	7	Dirección del viento	8.05
167803	7	Sololá	712	San Antonio Palopó	9	San Antonio Palopo	4	Abril	2023-04-27T00:00:00	2024-11-08T16:00:00	1	Precipitación	0
167804	7	Sololá	712	San Antonio Palopó	9	San Antonio Palopo	4	Abril	2023-04-27T00:00:00	2024-11-08T16:00:00	8	Radiación solar	359
167805	7	Sololá	712	San Antonio Palopó	9	San Antonio Palopo	4	Abril	2023-04-27T00:00:00	2024-11-08T17:00:00	2	Temperatura media	20.9
167806	7	Sololá	712	San Antonio Palopó	9	San Antonio Palopo	4	Abril	2023-04-27T00:00:00	2024-11-08T17:00:00	4	Temperatura máxima	22.4
167807	7	Sololá	712	San Antonio Palopó	9	San Antonio Palopo	4	Abril	2023-04-27T00:00:00	2024-11-08T17:00:00	3	Temperatura mínima	20.8
167808	7	Sololá	712	San Antonio Palopó	9	San Antonio Palopo	4	Abril	2023-04-27T00:00:00	2024-11-08T17:00:00	5	Humedad	81
167809	7	Sololá	712	San Antonio Palopó	9	San Antonio Palopo	4	Abril	2023-04-27T00:00:00	2024-11-08T17:00:00	6	Velocidad del viento	9.7
167810	7	Sololá	712	San Antonio Palopó	9	San Antonio Palopo	4	Abril	2023-04-27T00:00:00	2024-11-08T17:00:00	7	Dirección del viento	9.66
167811	7	Sololá	712	San Antonio Palopó	9	San Antonio Palopo	4	Abril	2023-04-27T00:00:00	2024-11-08T17:00:00	1	Precipitación	0
167812	7	Sololá	712	San Antonio Palopó	9	San Antonio Palopo	4	Abril	2023-04-27T00:00:00	2024-11-08T17:00:00	8	Radiación solar	44
167813	7	Sololá	712	San Antonio Palopó	9	San Antonio Palopo	4	Abril	2023-04-27T00:00:00	2024-11-08T18:00:00	2	Temperatura media	20.6
167814	7	Sololá	712	San Antonio Palopó	9	San Antonio Palopo	4	Abril	2023-04-27T00:00:00	2024-11-08T18:00:00	4	Temperatura máxima	21.1
167815	7	Sololá	712	San Antonio Palopó	9	San Antonio Palopo	4	Abril	2023-04-27T00:00:00	2024-11-08T18:00:00	3	Temperatura mínima	20.3
167816	7	Sololá	712	San Antonio Palopó	9	San Antonio Palopo	4	Abril	2023-04-27T00:00:00	2024-11-08T18:00:00	5	Humedad	79
167817	7	Sololá	712	San Antonio Palopó	9	San Antonio Palopo	4	Abril	2023-04-27T00:00:00	2024-11-08T18:00:00	6	Velocidad del viento	6.4
167818	7	Sololá	712	San Antonio Palopó	9	San Antonio Palopo	4	Abril	2023-04-27T00:00:00	2024-11-08T18:00:00	7	Dirección del viento	6.44
167819	7	Sololá	712	San Antonio Palopó	9	San Antonio Palopo	4	Abril	2023-04-27T00:00:00	2024-11-08T18:00:00	1	Precipitación	0
167820	7	Sololá	712	San Antonio Palopó	9	San Antonio Palopo	4	Abril	2023-04-27T00:00:00	2024-11-08T18:00:00	8	Radiación solar	10
167821	7	Sololá	712	San Antonio Palopó	9	San Antonio Palopo	4	Abril	2023-04-27T00:00:00	2024-11-08T19:00:00	2	Temperatura media	20.4
167822	7	Sololá	712	San Antonio Palopó	9	San Antonio Palopo	4	Abril	2023-04-27T00:00:00	2024-11-08T19:00:00	4	Temperatura máxima	20.7
167823	7	Sololá	712	San Antonio Palopó	9	San Antonio Palopo	4	Abril	2023-04-27T00:00:00	2024-11-08T19:00:00	3	Temperatura mínima	20.4
167824	7	Sololá	712	San Antonio Palopó	9	San Antonio Palopo	4	Abril	2023-04-27T00:00:00	2024-11-08T19:00:00	5	Humedad	81
167825	7	Sololá	712	San Antonio Palopó	9	San Antonio Palopo	4	Abril	2023-04-27T00:00:00	2024-11-08T19:00:00	6	Velocidad del viento	3.2
167826	7	Sololá	712	San Antonio Palopó	9	San Antonio Palopo	4	Abril	2023-04-27T00:00:00	2024-11-08T19:00:00	7	Dirección del viento	3.22
167827	7	Sololá	712	San Antonio Palopó	9	San Antonio Palopo	4	Abril	2023-04-27T00:00:00	2024-11-08T19:00:00	1	Precipitación	0
167828	7	Sololá	712	San Antonio Palopó	9	San Antonio Palopo	4	Abril	2023-04-27T00:00:00	2024-11-08T19:00:00	8	Radiación solar	0
167829	7	Sololá	712	San Antonio Palopó	9	San Antonio Palopo	4	Abril	2023-04-27T00:00:00	2024-11-08T20:00:00	2	Temperatura media	20.2
167830	7	Sololá	712	San Antonio Palopó	9	San Antonio Palopo	4	Abril	2023-04-27T00:00:00	2024-11-08T20:00:00	4	Temperatura máxima	20.6
167831	7	Sololá	712	San Antonio Palopó	9	San Antonio Palopo	4	Abril	2023-04-27T00:00:00	2024-11-08T20:00:00	3	Temperatura mínima	20.2
167832	7	Sololá	712	San Antonio Palopó	9	San Antonio Palopo	4	Abril	2023-04-27T00:00:00	2024-11-08T20:00:00	5	Humedad	85
167833	7	Sololá	712	San Antonio Palopó	9	San Antonio Palopo	4	Abril	2023-04-27T00:00:00	2024-11-08T20:00:00	6	Velocidad del viento	3.2
167834	7	Sololá	712	San Antonio Palopó	9	San Antonio Palopo	4	Abril	2023-04-27T00:00:00	2024-11-08T20:00:00	7	Dirección del viento	3.22
167835	7	Sololá	712	San Antonio Palopó	9	San Antonio Palopo	4	Abril	2023-04-27T00:00:00	2024-11-08T20:00:00	1	Precipitación	0
167836	7	Sololá	712	San Antonio Palopó	9	San Antonio Palopo	4	Abril	2023-04-27T00:00:00	2024-11-08T20:00:00	8	Radiación solar	0
167837	7	Sololá	712	San Antonio Palopó	9	San Antonio Palopo	4	Abril	2023-04-27T00:00:00	2024-11-08T21:00:00	2	Temperatura media	19.8
167838	7	Sololá	712	San Antonio Palopó	9	San Antonio Palopo	4	Abril	2023-04-27T00:00:00	2024-11-08T21:00:00	4	Temperatura máxima	20.2
167839	7	Sololá	712	San Antonio Palopó	9	San Antonio Palopo	4	Abril	2023-04-27T00:00:00	2024-11-08T21:00:00	3	Temperatura mínima	19.7
167840	7	Sololá	712	San Antonio Palopó	9	San Antonio Palopo	4	Abril	2023-04-27T00:00:00	2024-11-08T21:00:00	5	Humedad	84
167841	7	Sololá	712	San Antonio Palopó	9	San Antonio Palopo	4	Abril	2023-04-27T00:00:00	2024-11-08T21:00:00	6	Velocidad del viento	4.8
167842	7	Sololá	712	San Antonio Palopó	9	San Antonio Palopo	4	Abril	2023-04-27T00:00:00	2024-11-08T21:00:00	7	Dirección del viento	4.83
167843	7	Sololá	712	San Antonio Palopó	9	San Antonio Palopo	4	Abril	2023-04-27T00:00:00	2024-11-08T21:00:00	1	Precipitación	0
167844	7	Sololá	712	San Antonio Palopó	9	San Antonio Palopo	4	Abril	2023-04-27T00:00:00	2024-11-08T21:00:00	8	Radiación solar	0
167845	7	Sololá	712	San Antonio Palopó	9	San Antonio Palopo	4	Abril	2023-04-27T00:00:00	2024-11-08T22:00:00	2	Temperatura media	19.9
167846	7	Sololá	712	San Antonio Palopó	9	San Antonio Palopo	4	Abril	2023-04-27T00:00:00	2024-11-08T22:00:00	4	Temperatura máxima	19.9
167847	7	Sololá	712	San Antonio Palopó	9	San Antonio Palopo	4	Abril	2023-04-27T00:00:00	2024-11-08T22:00:00	3	Temperatura mínima	19.8
167848	7	Sololá	712	San Antonio Palopó	9	San Antonio Palopo	4	Abril	2023-04-27T00:00:00	2024-11-08T22:00:00	5	Humedad	84
167849	7	Sololá	712	San Antonio Palopó	9	San Antonio Palopo	4	Abril	2023-04-27T00:00:00	2024-11-08T22:00:00	6	Velocidad del viento	1.6
167850	7	Sololá	712	San Antonio Palopó	9	San Antonio Palopo	4	Abril	2023-04-27T00:00:00	2024-11-08T22:00:00	7	Dirección del viento	1.61
167851	7	Sololá	712	San Antonio Palopó	9	San Antonio Palopo	4	Abril	2023-04-27T00:00:00	2024-11-08T22:00:00	1	Precipitación	0
167852	7	Sololá	712	San Antonio Palopó	9	San Antonio Palopo	4	Abril	2023-04-27T00:00:00	2024-11-08T22:00:00	8	Radiación solar	0
167853	7	Sololá	712	San Antonio Palopó	9	San Antonio Palopo	4	Abril	2023-04-27T00:00:00	2024-11-08T23:00:00	2	Temperatura media	19.3
167854	7	Sololá	712	San Antonio Palopó	9	San Antonio Palopo	4	Abril	2023-04-27T00:00:00	2024-11-08T23:00:00	4	Temperatura máxima	19.8
167855	7	Sololá	712	San Antonio Palopó	9	San Antonio Palopo	4	Abril	2023-04-27T00:00:00	2024-11-08T23:00:00	3	Temperatura mínima	19.3
167856	7	Sololá	712	San Antonio Palopó	9	San Antonio Palopo	4	Abril	2023-04-27T00:00:00	2024-11-08T23:00:00	5	Humedad	84
167857	7	Sololá	712	San Antonio Palopó	9	San Antonio Palopo	4	Abril	2023-04-27T00:00:00	2024-11-08T23:00:00	6	Velocidad del viento	3.2
167858	7	Sololá	712	San Antonio Palopó	9	San Antonio Palopo	4	Abril	2023-04-27T00:00:00	2024-11-08T23:00:00	7	Dirección del viento	3.22
167859	7	Sololá	712	San Antonio Palopó	9	San Antonio Palopo	4	Abril	2023-04-27T00:00:00	2024-11-08T23:00:00	1	Precipitación	0
167860	7	Sololá	712	San Antonio Palopó	9	San Antonio Palopo	4	Abril	2023-04-27T00:00:00	2024-11-08T23:00:00	8	Radiación solar	0
167861	7	Sololá	712	San Antonio Palopó	9	San Antonio Palopo	4	Abril	2023-04-28T00:00:00	2024-11-08T00:00:00	2	Temperatura media	19.6
167862	7	Sololá	712	San Antonio Palopó	9	San Antonio Palopo	4	Abril	2023-04-28T00:00:00	2024-11-08T00:00:00	4	Temperatura máxima	19.6
167863	7	Sololá	712	San Antonio Palopó	9	San Antonio Palopo	4	Abril	2023-04-28T00:00:00	2024-11-08T00:00:00	3	Temperatura mínima	19.2
167864	7	Sololá	712	San Antonio Palopó	9	San Antonio Palopo	4	Abril	2023-04-28T00:00:00	2024-11-08T00:00:00	5	Humedad	85
167865	7	Sololá	712	San Antonio Palopó	9	San Antonio Palopo	4	Abril	2023-04-28T00:00:00	2024-11-08T00:00:00	6	Velocidad del viento	1.6
167866	7	Sololá	712	San Antonio Palopó	9	San Antonio Palopo	4	Abril	2023-04-28T00:00:00	2024-11-08T00:00:00	7	Dirección del viento	1.61
167867	7	Sololá	712	San Antonio Palopó	9	San Antonio Palopo	4	Abril	2023-04-28T00:00:00	2024-11-08T00:00:00	1	Precipitación	0
167868	7	Sololá	712	San Antonio Palopó	9	San Antonio Palopo	4	Abril	2023-04-28T00:00:00	2024-11-08T00:00:00	8	Radiación solar	0
167869	7	Sololá	712	San Antonio Palopó	9	San Antonio Palopo	4	Abril	2023-04-28T00:00:00	2024-11-08T01:00:00	2	Temperatura media	19.4
167870	7	Sololá	712	San Antonio Palopó	9	San Antonio Palopo	4	Abril	2023-04-28T00:00:00	2024-11-08T01:00:00	4	Temperatura máxima	19.6
167871	7	Sololá	712	San Antonio Palopó	9	San Antonio Palopo	4	Abril	2023-04-28T00:00:00	2024-11-08T01:00:00	3	Temperatura mínima	19.4
167872	7	Sololá	712	San Antonio Palopó	9	San Antonio Palopo	4	Abril	2023-04-28T00:00:00	2024-11-08T01:00:00	5	Humedad	86
167873	7	Sololá	712	San Antonio Palopó	9	San Antonio Palopo	4	Abril	2023-04-28T00:00:00	2024-11-08T01:00:00	6	Velocidad del viento	1.6
167874	7	Sololá	712	San Antonio Palopó	9	San Antonio Palopo	4	Abril	2023-04-28T00:00:00	2024-11-08T01:00:00	7	Dirección del viento	1.61
167875	7	Sololá	712	San Antonio Palopó	9	San Antonio Palopo	4	Abril	2023-04-28T00:00:00	2024-11-08T01:00:00	1	Precipitación	0
167876	7	Sololá	712	San Antonio Palopó	9	San Antonio Palopo	4	Abril	2023-04-28T00:00:00	2024-11-08T01:00:00	8	Radiación solar	0
167877	7	Sololá	712	San Antonio Palopó	9	San Antonio Palopo	4	Abril	2023-04-28T00:00:00	2024-11-08T02:00:00	2	Temperatura media	19.6
167878	7	Sololá	712	San Antonio Palopó	9	San Antonio Palopo	4	Abril	2023-04-28T00:00:00	2024-11-08T02:00:00	4	Temperatura máxima	19.6
167879	7	Sololá	712	San Antonio Palopó	9	San Antonio Palopo	4	Abril	2023-04-28T00:00:00	2024-11-08T02:00:00	3	Temperatura mínima	19.4
167880	7	Sololá	712	San Antonio Palopó	9	San Antonio Palopo	4	Abril	2023-04-28T00:00:00	2024-11-08T02:00:00	5	Humedad	87
167881	7	Sololá	712	San Antonio Palopó	9	San Antonio Palopo	4	Abril	2023-04-28T00:00:00	2024-11-08T02:00:00	6	Velocidad del viento	1.6
167882	7	Sololá	712	San Antonio Palopó	9	San Antonio Palopo	4	Abril	2023-04-28T00:00:00	2024-11-08T02:00:00	7	Dirección del viento	1.61
167883	7	Sololá	712	San Antonio Palopó	9	San Antonio Palopo	4	Abril	2023-04-28T00:00:00	2024-11-08T02:00:00	1	Precipitación	0
167884	7	Sololá	712	San Antonio Palopó	9	San Antonio Palopo	4	Abril	2023-04-28T00:00:00	2024-11-08T02:00:00	8	Radiación solar	0
167885	7	Sololá	712	San Antonio Palopó	9	San Antonio Palopo	4	Abril	2023-04-28T00:00:00	2024-11-08T03:00:00	2	Temperatura media	19
167886	7	Sololá	712	San Antonio Palopó	9	San Antonio Palopo	4	Abril	2023-04-28T00:00:00	2024-11-08T03:00:00	4	Temperatura máxima	19.6
167887	7	Sololá	712	San Antonio Palopó	9	San Antonio Palopo	4	Abril	2023-04-28T00:00:00	2024-11-08T03:00:00	3	Temperatura mínima	19
167888	7	Sololá	712	San Antonio Palopó	9	San Antonio Palopo	4	Abril	2023-04-28T00:00:00	2024-11-08T03:00:00	5	Humedad	87
167889	7	Sololá	712	San Antonio Palopó	9	San Antonio Palopo	4	Abril	2023-04-28T00:00:00	2024-11-08T03:00:00	6	Velocidad del viento	1.6
167890	7	Sololá	712	San Antonio Palopó	9	San Antonio Palopo	4	Abril	2023-04-28T00:00:00	2024-11-08T03:00:00	7	Dirección del viento	1.61
167891	7	Sololá	712	San Antonio Palopó	9	San Antonio Palopo	4	Abril	2023-04-28T00:00:00	2024-11-08T03:00:00	1	Precipitación	0
167892	7	Sololá	712	San Antonio Palopó	9	San Antonio Palopo	4	Abril	2023-04-28T00:00:00	2024-11-08T03:00:00	8	Radiación solar	0
167893	7	Sololá	712	San Antonio Palopó	9	San Antonio Palopo	4	Abril	2023-04-28T00:00:00	2024-11-08T04:00:00	2	Temperatura media	18.4
167894	7	Sololá	712	San Antonio Palopó	9	San Antonio Palopo	4	Abril	2023-04-28T00:00:00	2024-11-08T04:00:00	4	Temperatura máxima	18.9
167895	7	Sololá	712	San Antonio Palopó	9	San Antonio Palopo	4	Abril	2023-04-28T00:00:00	2024-11-08T04:00:00	3	Temperatura mínima	18.4
167896	7	Sololá	712	San Antonio Palopó	9	San Antonio Palopo	4	Abril	2023-04-28T00:00:00	2024-11-08T04:00:00	5	Humedad	83
167897	7	Sololá	712	San Antonio Palopó	9	San Antonio Palopo	4	Abril	2023-04-28T00:00:00	2024-11-08T04:00:00	6	Velocidad del viento	3.2
167898	7	Sololá	712	San Antonio Palopó	9	San Antonio Palopo	4	Abril	2023-04-28T00:00:00	2024-11-08T04:00:00	7	Dirección del viento	3.22
167899	7	Sololá	712	San Antonio Palopó	9	San Antonio Palopo	4	Abril	2023-04-28T00:00:00	2024-11-08T04:00:00	1	Precipitación	0
167900	7	Sololá	712	San Antonio Palopó	9	San Antonio Palopo	4	Abril	2023-04-28T00:00:00	2024-11-08T04:00:00	8	Radiación solar	0
167901	7	Sololá	712	San Antonio Palopó	9	San Antonio Palopo	4	Abril	2023-04-28T00:00:00	2024-11-08T05:00:00	2	Temperatura media	19
167902	7	Sololá	712	San Antonio Palopó	9	San Antonio Palopo	4	Abril	2023-04-28T00:00:00	2024-11-08T05:00:00	4	Temperatura máxima	19.1
167903	7	Sololá	712	San Antonio Palopó	9	San Antonio Palopo	4	Abril	2023-04-28T00:00:00	2024-11-08T05:00:00	3	Temperatura mínima	18.4
167904	7	Sololá	712	San Antonio Palopó	9	San Antonio Palopo	4	Abril	2023-04-28T00:00:00	2024-11-08T05:00:00	5	Humedad	85
167905	7	Sololá	712	San Antonio Palopó	9	San Antonio Palopo	4	Abril	2023-04-28T00:00:00	2024-11-08T05:00:00	6	Velocidad del viento	1.6
167906	7	Sololá	712	San Antonio Palopó	9	San Antonio Palopo	4	Abril	2023-04-28T00:00:00	2024-11-08T05:00:00	7	Dirección del viento	1.61
167907	7	Sololá	712	San Antonio Palopó	9	San Antonio Palopo	4	Abril	2023-04-28T00:00:00	2024-11-08T05:00:00	1	Precipitación	0
167908	7	Sololá	712	San Antonio Palopó	9	San Antonio Palopo	4	Abril	2023-04-28T00:00:00	2024-11-08T05:00:00	8	Radiación solar	0
167909	7	Sololá	712	San Antonio Palopó	9	San Antonio Palopo	4	Abril	2023-04-28T00:00:00	2024-11-08T06:00:00	2	Temperatura media	19.1
167910	7	Sololá	712	San Antonio Palopó	9	San Antonio Palopo	4	Abril	2023-04-28T00:00:00	2024-11-08T06:00:00	4	Temperatura máxima	19.3
167911	7	Sololá	712	San Antonio Palopó	9	San Antonio Palopo	4	Abril	2023-04-28T00:00:00	2024-11-08T06:00:00	3	Temperatura mínima	19
167912	7	Sololá	712	San Antonio Palopó	9	San Antonio Palopo	4	Abril	2023-04-28T00:00:00	2024-11-08T06:00:00	5	Humedad	84
167913	7	Sololá	712	San Antonio Palopó	9	San Antonio Palopo	4	Abril	2023-04-28T00:00:00	2024-11-08T06:00:00	6	Velocidad del viento	1.6
167914	7	Sololá	712	San Antonio Palopó	9	San Antonio Palopo	4	Abril	2023-04-28T00:00:00	2024-11-08T06:00:00	7	Dirección del viento	1.61
167915	7	Sololá	712	San Antonio Palopó	9	San Antonio Palopo	4	Abril	2023-04-28T00:00:00	2024-11-08T06:00:00	1	Precipitación	0
167916	7	Sololá	712	San Antonio Palopó	9	San Antonio Palopo	4	Abril	2023-04-28T00:00:00	2024-11-08T06:00:00	8	Radiación solar	2
167917	7	Sololá	712	San Antonio Palopó	9	San Antonio Palopo	4	Abril	2023-04-28T00:00:00	2024-11-08T07:00:00	2	Temperatura media	19.2
167918	7	Sololá	712	San Antonio Palopó	9	San Antonio Palopo	4	Abril	2023-04-28T00:00:00	2024-11-08T07:00:00	4	Temperatura máxima	19.2
167919	7	Sololá	712	San Antonio Palopó	9	San Antonio Palopo	4	Abril	2023-04-28T00:00:00	2024-11-08T07:00:00	3	Temperatura mínima	18.8
167920	7	Sololá	712	San Antonio Palopó	9	San Antonio Palopo	4	Abril	2023-04-28T00:00:00	2024-11-08T07:00:00	5	Humedad	79
167921	7	Sololá	712	San Antonio Palopó	9	San Antonio Palopo	4	Abril	2023-04-28T00:00:00	2024-11-08T07:00:00	6	Velocidad del viento	3.2
167922	7	Sololá	712	San Antonio Palopó	9	San Antonio Palopo	4	Abril	2023-04-28T00:00:00	2024-11-08T07:00:00	7	Dirección del viento	3.22
167923	7	Sololá	712	San Antonio Palopó	9	San Antonio Palopo	4	Abril	2023-04-28T00:00:00	2024-11-08T07:00:00	1	Precipitación	0
167924	7	Sololá	712	San Antonio Palopó	9	San Antonio Palopo	4	Abril	2023-04-28T00:00:00	2024-11-08T07:00:00	8	Radiación solar	46
167925	7	Sololá	712	San Antonio Palopó	9	San Antonio Palopo	4	Abril	2023-04-28T00:00:00	2024-11-08T08:00:00	2	Temperatura media	20.6
167926	7	Sololá	712	San Antonio Palopó	9	San Antonio Palopo	4	Abril	2023-04-28T00:00:00	2024-11-08T08:00:00	4	Temperatura máxima	20.6
167927	7	Sololá	712	San Antonio Palopó	9	San Antonio Palopo	4	Abril	2023-04-28T00:00:00	2024-11-08T08:00:00	3	Temperatura mínima	19.2
167928	7	Sololá	712	San Antonio Palopó	9	San Antonio Palopo	4	Abril	2023-04-28T00:00:00	2024-11-08T08:00:00	5	Humedad	78
167929	7	Sololá	712	San Antonio Palopó	9	San Antonio Palopo	4	Abril	2023-04-28T00:00:00	2024-11-08T08:00:00	6	Velocidad del viento	1.6
167930	7	Sololá	712	San Antonio Palopó	9	San Antonio Palopo	4	Abril	2023-04-28T00:00:00	2024-11-08T08:00:00	7	Dirección del viento	1.61
167931	7	Sololá	712	San Antonio Palopó	9	San Antonio Palopo	4	Abril	2023-04-28T00:00:00	2024-11-08T08:00:00	1	Precipitación	0
167932	7	Sololá	712	San Antonio Palopó	9	San Antonio Palopo	4	Abril	2023-04-28T00:00:00	2024-11-08T08:00:00	8	Radiación solar	172
167933	7	Sololá	712	San Antonio Palopó	9	San Antonio Palopo	4	Abril	2023-04-28T00:00:00	2024-11-08T09:00:00	2	Temperatura media	20.9
167934	7	Sololá	712	San Antonio Palopó	9	San Antonio Palopo	4	Abril	2023-04-28T00:00:00	2024-11-08T09:00:00	4	Temperatura máxima	20.9
167935	7	Sololá	712	San Antonio Palopó	9	San Antonio Palopo	4	Abril	2023-04-28T00:00:00	2024-11-08T09:00:00	3	Temperatura mínima	20.5
167936	7	Sololá	712	San Antonio Palopó	9	San Antonio Palopo	4	Abril	2023-04-28T00:00:00	2024-11-08T09:00:00	5	Humedad	76
167937	7	Sololá	712	San Antonio Palopó	9	San Antonio Palopo	4	Abril	2023-04-28T00:00:00	2024-11-08T09:00:00	6	Velocidad del viento	3.2
167938	7	Sololá	712	San Antonio Palopó	9	San Antonio Palopo	4	Abril	2023-04-28T00:00:00	2024-11-08T09:00:00	7	Dirección del viento	3.22
167939	7	Sololá	712	San Antonio Palopó	9	San Antonio Palopo	4	Abril	2023-04-28T00:00:00	2024-11-08T09:00:00	1	Precipitación	0
167940	7	Sololá	712	San Antonio Palopó	9	San Antonio Palopo	4	Abril	2023-04-28T00:00:00	2024-11-08T09:00:00	8	Radiación solar	451
167941	7	Sololá	712	San Antonio Palopó	9	San Antonio Palopo	4	Abril	2023-04-28T00:00:00	2024-11-08T10:00:00	2	Temperatura media	22.4
167942	7	Sololá	712	San Antonio Palopó	9	San Antonio Palopo	4	Abril	2023-04-28T00:00:00	2024-11-08T10:00:00	4	Temperatura máxima	22.4
167943	7	Sololá	712	San Antonio Palopó	9	San Antonio Palopo	4	Abril	2023-04-28T00:00:00	2024-11-08T10:00:00	3	Temperatura mínima	20.9
167944	7	Sololá	712	San Antonio Palopó	9	San Antonio Palopo	4	Abril	2023-04-28T00:00:00	2024-11-08T10:00:00	5	Humedad	73
167945	7	Sololá	712	San Antonio Palopó	9	San Antonio Palopo	4	Abril	2023-04-28T00:00:00	2024-11-08T10:00:00	6	Velocidad del viento	1.6
167946	7	Sololá	712	San Antonio Palopó	9	San Antonio Palopo	4	Abril	2023-04-28T00:00:00	2024-11-08T10:00:00	7	Dirección del viento	1.61
167947	7	Sololá	712	San Antonio Palopó	9	San Antonio Palopo	4	Abril	2023-04-28T00:00:00	2024-11-08T10:00:00	1	Precipitación	0
167948	7	Sololá	712	San Antonio Palopó	9	San Antonio Palopo	4	Abril	2023-04-28T00:00:00	2024-11-08T10:00:00	8	Radiación solar	660
167949	7	Sololá	712	San Antonio Palopó	9	San Antonio Palopo	4	Abril	2023-04-28T00:00:00	2024-11-08T11:00:00	2	Temperatura media	23.2
167950	7	Sololá	712	San Antonio Palopó	9	San Antonio Palopo	4	Abril	2023-04-28T00:00:00	2024-11-08T11:00:00	4	Temperatura máxima	23.5
167951	7	Sololá	712	San Antonio Palopó	9	San Antonio Palopo	4	Abril	2023-04-28T00:00:00	2024-11-08T11:00:00	3	Temperatura mínima	22.4
167952	7	Sololá	712	San Antonio Palopó	9	San Antonio Palopo	4	Abril	2023-04-28T00:00:00	2024-11-08T11:00:00	5	Humedad	73
167953	7	Sololá	712	San Antonio Palopó	9	San Antonio Palopo	4	Abril	2023-04-28T00:00:00	2024-11-08T11:00:00	6	Velocidad del viento	3.2
167954	7	Sololá	712	San Antonio Palopó	9	San Antonio Palopo	4	Abril	2023-04-28T00:00:00	2024-11-08T11:00:00	7	Dirección del viento	3.22
167955	7	Sololá	712	San Antonio Palopó	9	San Antonio Palopo	4	Abril	2023-04-28T00:00:00	2024-11-08T11:00:00	1	Precipitación	0
167956	7	Sololá	712	San Antonio Palopó	9	San Antonio Palopo	4	Abril	2023-04-28T00:00:00	2024-11-08T11:00:00	8	Radiación solar	795
167957	7	Sololá	712	San Antonio Palopó	9	San Antonio Palopo	4	Abril	2023-04-28T00:00:00	2024-11-08T12:00:00	2	Temperatura media	23.1
167958	7	Sololá	712	San Antonio Palopó	9	San Antonio Palopo	4	Abril	2023-04-28T00:00:00	2024-11-08T12:00:00	4	Temperatura máxima	23.7
167959	7	Sololá	712	San Antonio Palopó	9	San Antonio Palopo	4	Abril	2023-04-28T00:00:00	2024-11-08T12:00:00	3	Temperatura mínima	22.8
167960	7	Sololá	712	San Antonio Palopó	9	San Antonio Palopo	4	Abril	2023-04-28T00:00:00	2024-11-08T12:00:00	5	Humedad	77
167961	7	Sololá	712	San Antonio Palopó	9	San Antonio Palopo	4	Abril	2023-04-28T00:00:00	2024-11-08T12:00:00	6	Velocidad del viento	11.3
167962	7	Sololá	712	San Antonio Palopó	9	San Antonio Palopo	4	Abril	2023-04-28T00:00:00	2024-11-08T12:00:00	7	Dirección del viento	11.27
167963	7	Sololá	712	San Antonio Palopó	9	San Antonio Palopo	4	Abril	2023-04-28T00:00:00	2024-11-08T12:00:00	1	Precipitación	0
167964	7	Sololá	712	San Antonio Palopó	9	San Antonio Palopo	4	Abril	2023-04-28T00:00:00	2024-11-08T12:00:00	8	Radiación solar	906
167965	7	Sololá	712	San Antonio Palopó	9	San Antonio Palopo	4	Abril	2023-04-28T00:00:00	2024-11-08T13:00:00	2	Temperatura media	22.9
167966	7	Sololá	712	San Antonio Palopó	9	San Antonio Palopo	4	Abril	2023-04-28T00:00:00	2024-11-08T13:00:00	4	Temperatura máxima	23.6
167967	7	Sololá	712	San Antonio Palopó	9	San Antonio Palopo	4	Abril	2023-04-28T00:00:00	2024-11-08T13:00:00	3	Temperatura mínima	22.8
167968	7	Sololá	712	San Antonio Palopó	9	San Antonio Palopo	4	Abril	2023-04-28T00:00:00	2024-11-08T13:00:00	5	Humedad	75
167969	7	Sololá	712	San Antonio Palopó	9	San Antonio Palopo	4	Abril	2023-04-28T00:00:00	2024-11-08T13:00:00	6	Velocidad del viento	12.9
167970	7	Sololá	712	San Antonio Palopó	9	San Antonio Palopo	4	Abril	2023-04-28T00:00:00	2024-11-08T13:00:00	7	Dirección del viento	12.87
167971	7	Sololá	712	San Antonio Palopó	9	San Antonio Palopo	4	Abril	2023-04-28T00:00:00	2024-11-08T13:00:00	1	Precipitación	0
167972	7	Sololá	712	San Antonio Palopó	9	San Antonio Palopo	4	Abril	2023-04-28T00:00:00	2024-11-08T13:00:00	8	Radiación solar	821
167973	7	Sololá	712	San Antonio Palopó	9	San Antonio Palopo	4	Abril	2023-04-28T00:00:00	2024-11-08T14:00:00	2	Temperatura media	22.8
167974	7	Sololá	712	San Antonio Palopó	9	San Antonio Palopo	4	Abril	2023-04-28T00:00:00	2024-11-08T14:00:00	4	Temperatura máxima	23
167975	7	Sololá	712	San Antonio Palopó	9	San Antonio Palopo	4	Abril	2023-04-28T00:00:00	2024-11-08T14:00:00	3	Temperatura mínima	22.7
167976	7	Sololá	712	San Antonio Palopó	9	San Antonio Palopo	4	Abril	2023-04-28T00:00:00	2024-11-08T14:00:00	5	Humedad	75
167977	7	Sololá	712	San Antonio Palopó	9	San Antonio Palopo	4	Abril	2023-04-28T00:00:00	2024-11-08T14:00:00	6	Velocidad del viento	11.3
167978	7	Sololá	712	San Antonio Palopó	9	San Antonio Palopo	4	Abril	2023-04-28T00:00:00	2024-11-08T14:00:00	7	Dirección del viento	11.27
167979	7	Sololá	712	San Antonio Palopó	9	San Antonio Palopo	4	Abril	2023-04-28T00:00:00	2024-11-08T14:00:00	1	Precipitación	0
167980	7	Sololá	712	San Antonio Palopó	9	San Antonio Palopo	4	Abril	2023-04-28T00:00:00	2024-11-08T14:00:00	8	Radiación solar	369
167981	7	Sololá	712	San Antonio Palopó	9	San Antonio Palopo	4	Abril	2023-04-28T00:00:00	2024-11-08T15:00:00	2	Temperatura media	21.6
167982	7	Sololá	712	San Antonio Palopó	9	San Antonio Palopo	4	Abril	2023-04-28T00:00:00	2024-11-08T15:00:00	4	Temperatura máxima	23.1
167983	7	Sololá	712	San Antonio Palopó	9	San Antonio Palopo	4	Abril	2023-04-28T00:00:00	2024-11-08T15:00:00	3	Temperatura mínima	21.6
167984	7	Sololá	712	San Antonio Palopó	9	San Antonio Palopo	4	Abril	2023-04-28T00:00:00	2024-11-08T15:00:00	5	Humedad	80
167985	7	Sololá	712	San Antonio Palopó	9	San Antonio Palopo	4	Abril	2023-04-28T00:00:00	2024-11-08T15:00:00	6	Velocidad del viento	12.9
167986	7	Sololá	712	San Antonio Palopó	9	San Antonio Palopo	4	Abril	2023-04-28T00:00:00	2024-11-08T15:00:00	7	Dirección del viento	12.87
167987	7	Sololá	712	San Antonio Palopó	9	San Antonio Palopo	4	Abril	2023-04-28T00:00:00	2024-11-08T15:00:00	1	Precipitación	0
167988	7	Sololá	712	San Antonio Palopó	9	San Antonio Palopo	4	Abril	2023-04-28T00:00:00	2024-11-08T15:00:00	8	Radiación solar	355
167989	7	Sololá	712	San Antonio Palopó	9	San Antonio Palopo	4	Abril	2023-04-28T00:00:00	2024-11-08T16:00:00	2	Temperatura media	22.1
167990	7	Sololá	712	San Antonio Palopó	9	San Antonio Palopo	4	Abril	2023-04-28T00:00:00	2024-11-08T16:00:00	4	Temperatura máxima	22.5
167991	7	Sololá	712	San Antonio Palopó	9	San Antonio Palopo	4	Abril	2023-04-28T00:00:00	2024-11-08T16:00:00	3	Temperatura mínima	21.5
167992	7	Sololá	712	San Antonio Palopó	9	San Antonio Palopo	4	Abril	2023-04-28T00:00:00	2024-11-08T16:00:00	5	Humedad	79
167993	7	Sololá	712	San Antonio Palopó	9	San Antonio Palopo	4	Abril	2023-04-28T00:00:00	2024-11-08T16:00:00	6	Velocidad del viento	12.9
167994	7	Sololá	712	San Antonio Palopó	9	San Antonio Palopo	4	Abril	2023-04-28T00:00:00	2024-11-08T16:00:00	7	Dirección del viento	12.87
167995	7	Sololá	712	San Antonio Palopó	9	San Antonio Palopo	4	Abril	2023-04-28T00:00:00	2024-11-08T16:00:00	1	Precipitación	0
167996	7	Sololá	712	San Antonio Palopó	9	San Antonio Palopo	4	Abril	2023-04-28T00:00:00	2024-11-08T16:00:00	8	Radiación solar	390
167997	7	Sololá	712	San Antonio Palopó	9	San Antonio Palopo	4	Abril	2023-04-28T00:00:00	2024-11-08T17:00:00	2	Temperatura media	21.1
167998	7	Sololá	712	San Antonio Palopó	9	San Antonio Palopo	4	Abril	2023-04-28T00:00:00	2024-11-08T17:00:00	4	Temperatura máxima	22.1
167999	7	Sololá	712	San Antonio Palopó	9	San Antonio Palopo	4	Abril	2023-04-28T00:00:00	2024-11-08T17:00:00	3	Temperatura mínima	20.8
168000	7	Sololá	712	San Antonio Palopó	9	San Antonio Palopo	4	Abril	2023-04-28T00:00:00	2024-11-08T17:00:00	5	Humedad	80
168001	7	Sololá	712	San Antonio Palopó	9	San Antonio Palopo	4	Abril	2023-04-28T00:00:00	2024-11-08T17:00:00	6	Velocidad del viento	9.7
168002	7	Sololá	712	San Antonio Palopó	9	San Antonio Palopo	4	Abril	2023-04-28T00:00:00	2024-11-08T17:00:00	7	Dirección del viento	9.66
168003	7	Sololá	712	San Antonio Palopó	9	San Antonio Palopo	4	Abril	2023-04-28T00:00:00	2024-11-08T17:00:00	1	Precipitación	0
168004	7	Sololá	712	San Antonio Palopó	9	San Antonio Palopo	4	Abril	2023-04-28T00:00:00	2024-11-08T17:00:00	8	Radiación solar	46
168005	7	Sololá	712	San Antonio Palopó	9	San Antonio Palopo	4	Abril	2023-04-28T00:00:00	2024-11-08T18:00:00	2	Temperatura media	20.3
168006	7	Sololá	712	San Antonio Palopó	9	San Antonio Palopo	4	Abril	2023-04-28T00:00:00	2024-11-08T18:00:00	4	Temperatura máxima	21.1
168007	7	Sololá	712	San Antonio Palopó	9	San Antonio Palopo	4	Abril	2023-04-28T00:00:00	2024-11-08T18:00:00	3	Temperatura mínima	20.3
168008	7	Sololá	712	San Antonio Palopó	9	San Antonio Palopo	4	Abril	2023-04-28T00:00:00	2024-11-08T18:00:00	5	Humedad	86
168009	7	Sololá	712	San Antonio Palopó	9	San Antonio Palopo	4	Abril	2023-04-28T00:00:00	2024-11-08T18:00:00	6	Velocidad del viento	4.8
168010	7	Sololá	712	San Antonio Palopó	9	San Antonio Palopo	4	Abril	2023-04-28T00:00:00	2024-11-08T18:00:00	7	Dirección del viento	4.83
168011	7	Sololá	712	San Antonio Palopó	9	San Antonio Palopo	4	Abril	2023-04-28T00:00:00	2024-11-08T18:00:00	1	Precipitación	0.2
168012	7	Sololá	712	San Antonio Palopó	9	San Antonio Palopo	4	Abril	2023-04-28T00:00:00	2024-11-08T18:00:00	8	Radiación solar	36
168013	7	Sololá	712	San Antonio Palopó	9	San Antonio Palopo	4	Abril	2023-04-28T00:00:00	2024-11-08T19:00:00	2	Temperatura media	19.4
168014	7	Sololá	712	San Antonio Palopó	9	San Antonio Palopo	4	Abril	2023-04-28T00:00:00	2024-11-08T19:00:00	4	Temperatura máxima	20.4
168015	7	Sololá	712	San Antonio Palopó	9	San Antonio Palopo	4	Abril	2023-04-28T00:00:00	2024-11-08T19:00:00	3	Temperatura mínima	19.4
168016	7	Sololá	712	San Antonio Palopó	9	San Antonio Palopo	4	Abril	2023-04-28T00:00:00	2024-11-08T19:00:00	5	Humedad	86
168017	7	Sololá	712	San Antonio Palopó	9	San Antonio Palopo	4	Abril	2023-04-28T00:00:00	2024-11-08T19:00:00	6	Velocidad del viento	6.4
168018	7	Sololá	712	San Antonio Palopó	9	San Antonio Palopo	4	Abril	2023-04-28T00:00:00	2024-11-08T19:00:00	7	Dirección del viento	6.44
168019	7	Sololá	712	San Antonio Palopó	9	San Antonio Palopo	4	Abril	2023-04-28T00:00:00	2024-11-08T19:00:00	1	Precipitación	0
168020	7	Sololá	712	San Antonio Palopó	9	San Antonio Palopo	4	Abril	2023-04-28T00:00:00	2024-11-08T19:00:00	8	Radiación solar	0
168021	7	Sololá	712	San Antonio Palopó	9	San Antonio Palopo	4	Abril	2023-04-28T00:00:00	2024-11-08T20:00:00	2	Temperatura media	19.7
168022	7	Sololá	712	San Antonio Palopó	9	San Antonio Palopo	4	Abril	2023-04-28T00:00:00	2024-11-08T20:00:00	4	Temperatura máxima	19.8
168023	7	Sololá	712	San Antonio Palopó	9	San Antonio Palopo	4	Abril	2023-04-28T00:00:00	2024-11-08T20:00:00	3	Temperatura mínima	19.3
168024	7	Sololá	712	San Antonio Palopó	9	San Antonio Palopo	4	Abril	2023-04-28T00:00:00	2024-11-08T20:00:00	5	Humedad	85
168025	7	Sololá	712	San Antonio Palopó	9	San Antonio Palopo	4	Abril	2023-04-28T00:00:00	2024-11-08T20:00:00	6	Velocidad del viento	3.2
168026	7	Sololá	712	San Antonio Palopó	9	San Antonio Palopo	4	Abril	2023-04-28T00:00:00	2024-11-08T20:00:00	7	Dirección del viento	3.22
168027	7	Sololá	712	San Antonio Palopó	9	San Antonio Palopo	4	Abril	2023-04-28T00:00:00	2024-11-08T20:00:00	1	Precipitación	0
168028	7	Sololá	712	San Antonio Palopó	9	San Antonio Palopo	4	Abril	2023-04-28T00:00:00	2024-11-08T20:00:00	8	Radiación solar	0
168029	7	Sololá	712	San Antonio Palopó	9	San Antonio Palopo	4	Abril	2023-04-28T00:00:00	2024-11-08T21:00:00	2	Temperatura media	19.9
168030	7	Sololá	712	San Antonio Palopó	9	San Antonio Palopo	4	Abril	2023-04-28T00:00:00	2024-11-08T21:00:00	4	Temperatura máxima	20
168031	7	Sololá	712	San Antonio Palopó	9	San Antonio Palopo	4	Abril	2023-04-28T00:00:00	2024-11-08T21:00:00	3	Temperatura mínima	19.7
168032	7	Sololá	712	San Antonio Palopó	9	San Antonio Palopo	4	Abril	2023-04-28T00:00:00	2024-11-08T21:00:00	5	Humedad	84
168033	7	Sololá	712	San Antonio Palopó	9	San Antonio Palopo	4	Abril	2023-04-28T00:00:00	2024-11-08T21:00:00	6	Velocidad del viento	1.6
168034	7	Sololá	712	San Antonio Palopó	9	San Antonio Palopo	4	Abril	2023-04-28T00:00:00	2024-11-08T21:00:00	7	Dirección del viento	1.61
168035	7	Sololá	712	San Antonio Palopó	9	San Antonio Palopo	4	Abril	2023-04-28T00:00:00	2024-11-08T21:00:00	1	Precipitación	0
168036	7	Sololá	712	San Antonio Palopó	9	San Antonio Palopo	4	Abril	2023-04-28T00:00:00	2024-11-08T21:00:00	8	Radiación solar	0
168037	7	Sololá	712	San Antonio Palopó	9	San Antonio Palopo	4	Abril	2023-04-28T00:00:00	2024-11-08T22:00:00	2	Temperatura media	19.3
168038	7	Sololá	712	San Antonio Palopó	9	San Antonio Palopo	4	Abril	2023-04-28T00:00:00	2024-11-08T22:00:00	4	Temperatura máxima	20.1
168039	7	Sololá	712	San Antonio Palopó	9	San Antonio Palopo	4	Abril	2023-04-28T00:00:00	2024-11-08T22:00:00	3	Temperatura mínima	19.3
168040	7	Sololá	712	San Antonio Palopó	9	San Antonio Palopo	4	Abril	2023-04-28T00:00:00	2024-11-08T22:00:00	5	Humedad	86
168041	7	Sololá	712	San Antonio Palopó	9	San Antonio Palopo	4	Abril	2023-04-28T00:00:00	2024-11-08T22:00:00	6	Velocidad del viento	4.8
168042	7	Sololá	712	San Antonio Palopó	9	San Antonio Palopo	4	Abril	2023-04-28T00:00:00	2024-11-08T22:00:00	7	Dirección del viento	4.83
168043	7	Sololá	712	San Antonio Palopó	9	San Antonio Palopo	4	Abril	2023-04-28T00:00:00	2024-11-08T22:00:00	1	Precipitación	0
168044	7	Sololá	712	San Antonio Palopó	9	San Antonio Palopo	4	Abril	2023-04-28T00:00:00	2024-11-08T22:00:00	8	Radiación solar	0
168045	7	Sololá	712	San Antonio Palopó	9	San Antonio Palopo	4	Abril	2023-04-28T00:00:00	2024-11-08T23:00:00	2	Temperatura media	18.8
168046	7	Sololá	712	San Antonio Palopó	9	San Antonio Palopo	4	Abril	2023-04-28T00:00:00	2024-11-08T23:00:00	4	Temperatura máxima	19.4
168047	7	Sololá	712	San Antonio Palopó	9	San Antonio Palopo	4	Abril	2023-04-28T00:00:00	2024-11-08T23:00:00	3	Temperatura mínima	18.8
168048	7	Sololá	712	San Antonio Palopó	9	San Antonio Palopo	4	Abril	2023-04-28T00:00:00	2024-11-08T23:00:00	5	Humedad	91
168049	7	Sololá	712	San Antonio Palopó	9	San Antonio Palopo	4	Abril	2023-04-28T00:00:00	2024-11-08T23:00:00	6	Velocidad del viento	3.2
168050	7	Sololá	712	San Antonio Palopó	9	San Antonio Palopo	4	Abril	2023-04-28T00:00:00	2024-11-08T23:00:00	7	Dirección del viento	3.22
168051	7	Sololá	712	San Antonio Palopó	9	San Antonio Palopo	4	Abril	2023-04-28T00:00:00	2024-11-08T23:00:00	1	Precipitación	0
168052	7	Sololá	712	San Antonio Palopó	9	San Antonio Palopo	4	Abril	2023-04-28T00:00:00	2024-11-08T23:00:00	8	Radiación solar	0
168053	7	Sololá	712	San Antonio Palopó	9	San Antonio Palopo	4	Abril	2023-04-29T00:00:00	2024-11-08T00:00:00	2	Temperatura media	19.5
168054	7	Sololá	712	San Antonio Palopó	9	San Antonio Palopo	4	Abril	2023-04-29T00:00:00	2024-11-08T00:00:00	4	Temperatura máxima	19.6
168055	7	Sololá	712	San Antonio Palopó	9	San Antonio Palopo	4	Abril	2023-04-29T00:00:00	2024-11-08T00:00:00	3	Temperatura mínima	18.8
168056	7	Sololá	712	San Antonio Palopó	9	San Antonio Palopo	4	Abril	2023-04-29T00:00:00	2024-11-08T00:00:00	5	Humedad	87
168057	7	Sololá	712	San Antonio Palopó	9	San Antonio Palopo	4	Abril	2023-04-29T00:00:00	2024-11-08T00:00:00	6	Velocidad del viento	1.6
168058	7	Sololá	712	San Antonio Palopó	9	San Antonio Palopo	4	Abril	2023-04-29T00:00:00	2024-11-08T00:00:00	7	Dirección del viento	1.61
168059	7	Sololá	712	San Antonio Palopó	9	San Antonio Palopo	4	Abril	2023-04-29T00:00:00	2024-11-08T00:00:00	1	Precipitación	0
168060	7	Sololá	712	San Antonio Palopó	9	San Antonio Palopo	4	Abril	2023-04-29T00:00:00	2024-11-08T00:00:00	8	Radiación solar	0
168061	7	Sololá	712	San Antonio Palopó	9	San Antonio Palopo	4	Abril	2023-04-29T00:00:00	2024-11-08T01:00:00	2	Temperatura media	19.6
168062	7	Sololá	712	San Antonio Palopó	9	San Antonio Palopo	4	Abril	2023-04-29T00:00:00	2024-11-08T01:00:00	4	Temperatura máxima	19.7
168063	7	Sololá	712	San Antonio Palopó	9	San Antonio Palopo	4	Abril	2023-04-29T00:00:00	2024-11-08T01:00:00	3	Temperatura mínima	19.6
168064	7	Sololá	712	San Antonio Palopó	9	San Antonio Palopo	4	Abril	2023-04-29T00:00:00	2024-11-08T01:00:00	5	Humedad	76
168065	7	Sololá	712	San Antonio Palopó	9	San Antonio Palopo	4	Abril	2023-04-29T00:00:00	2024-11-08T01:00:00	6	Velocidad del viento	1.6
168066	7	Sololá	712	San Antonio Palopó	9	San Antonio Palopo	4	Abril	2023-04-29T00:00:00	2024-11-08T01:00:00	7	Dirección del viento	1.61
168067	7	Sololá	712	San Antonio Palopó	9	San Antonio Palopo	4	Abril	2023-04-29T00:00:00	2024-11-08T01:00:00	1	Precipitación	0
168068	7	Sololá	712	San Antonio Palopó	9	San Antonio Palopo	4	Abril	2023-04-29T00:00:00	2024-11-08T01:00:00	8	Radiación solar	0
168069	7	Sololá	712	San Antonio Palopó	9	San Antonio Palopo	4	Abril	2023-04-29T00:00:00	2024-11-08T02:00:00	2	Temperatura media	19.1
168070	7	Sololá	712	San Antonio Palopó	9	San Antonio Palopo	4	Abril	2023-04-29T00:00:00	2024-11-08T02:00:00	4	Temperatura máxima	19.5
168071	7	Sololá	712	San Antonio Palopó	9	San Antonio Palopo	4	Abril	2023-04-29T00:00:00	2024-11-08T02:00:00	3	Temperatura mínima	18.9
168072	7	Sololá	712	San Antonio Palopó	9	San Antonio Palopo	4	Abril	2023-04-29T00:00:00	2024-11-08T02:00:00	5	Humedad	76
168073	7	Sololá	712	San Antonio Palopó	9	San Antonio Palopo	4	Abril	2023-04-29T00:00:00	2024-11-08T02:00:00	6	Velocidad del viento	3.2
168074	7	Sololá	712	San Antonio Palopó	9	San Antonio Palopo	4	Abril	2023-04-29T00:00:00	2024-11-08T02:00:00	7	Dirección del viento	3.22
168075	7	Sololá	712	San Antonio Palopó	9	San Antonio Palopo	4	Abril	2023-04-29T00:00:00	2024-11-08T02:00:00	1	Precipitación	0
168076	7	Sololá	712	San Antonio Palopó	9	San Antonio Palopo	4	Abril	2023-04-29T00:00:00	2024-11-08T02:00:00	8	Radiación solar	0
168077	7	Sololá	712	San Antonio Palopó	9	San Antonio Palopo	4	Abril	2023-04-29T00:00:00	2024-11-08T03:00:00	2	Temperatura media	17.9
168078	7	Sololá	712	San Antonio Palopó	9	San Antonio Palopo	4	Abril	2023-04-29T00:00:00	2024-11-08T03:00:00	4	Temperatura máxima	19.1
168079	7	Sololá	712	San Antonio Palopó	9	San Antonio Palopo	4	Abril	2023-04-29T00:00:00	2024-11-08T03:00:00	3	Temperatura mínima	17.8
168080	7	Sololá	712	San Antonio Palopó	9	San Antonio Palopo	4	Abril	2023-04-29T00:00:00	2024-11-08T03:00:00	5	Humedad	84
168081	7	Sololá	712	San Antonio Palopó	9	San Antonio Palopo	4	Abril	2023-04-29T00:00:00	2024-11-08T03:00:00	6	Velocidad del viento	3.2
168082	7	Sololá	712	San Antonio Palopó	9	San Antonio Palopo	4	Abril	2023-04-29T00:00:00	2024-11-08T03:00:00	7	Dirección del viento	3.22
168083	7	Sololá	712	San Antonio Palopó	9	San Antonio Palopo	4	Abril	2023-04-29T00:00:00	2024-11-08T03:00:00	1	Precipitación	0
168084	7	Sololá	712	San Antonio Palopó	9	San Antonio Palopo	4	Abril	2023-04-29T00:00:00	2024-11-08T03:00:00	8	Radiación solar	0
168085	7	Sololá	712	San Antonio Palopó	9	San Antonio Palopo	4	Abril	2023-04-29T00:00:00	2024-11-08T04:00:00	2	Temperatura media	18.9
168086	7	Sololá	712	San Antonio Palopó	9	San Antonio Palopo	4	Abril	2023-04-29T00:00:00	2024-11-08T04:00:00	4	Temperatura máxima	18.9
168087	7	Sololá	712	San Antonio Palopó	9	San Antonio Palopo	4	Abril	2023-04-29T00:00:00	2024-11-08T04:00:00	3	Temperatura mínima	17.9
168088	7	Sololá	712	San Antonio Palopó	9	San Antonio Palopo	4	Abril	2023-04-29T00:00:00	2024-11-08T04:00:00	5	Humedad	83
168089	7	Sololá	712	San Antonio Palopó	9	San Antonio Palopo	4	Abril	2023-04-29T00:00:00	2024-11-08T04:00:00	6	Velocidad del viento	1.6
168090	7	Sololá	712	San Antonio Palopó	9	San Antonio Palopo	4	Abril	2023-04-29T00:00:00	2024-11-08T04:00:00	7	Dirección del viento	1.61
168091	7	Sololá	712	San Antonio Palopó	9	San Antonio Palopo	4	Abril	2023-04-29T00:00:00	2024-11-08T04:00:00	1	Precipitación	0
168092	7	Sololá	712	San Antonio Palopó	9	San Antonio Palopo	4	Abril	2023-04-29T00:00:00	2024-11-08T04:00:00	8	Radiación solar	0
168093	7	Sololá	712	San Antonio Palopó	9	San Antonio Palopo	4	Abril	2023-04-29T00:00:00	2024-11-08T05:00:00	2	Temperatura media	18.9
168094	7	Sololá	712	San Antonio Palopó	9	San Antonio Palopo	4	Abril	2023-04-29T00:00:00	2024-11-08T05:00:00	4	Temperatura máxima	18.9
168095	7	Sololá	712	San Antonio Palopó	9	San Antonio Palopo	4	Abril	2023-04-29T00:00:00	2024-11-08T05:00:00	3	Temperatura mínima	18.6
168096	7	Sololá	712	San Antonio Palopó	9	San Antonio Palopo	4	Abril	2023-04-29T00:00:00	2024-11-08T05:00:00	5	Humedad	83
168097	7	Sololá	712	San Antonio Palopó	9	San Antonio Palopo	4	Abril	2023-04-29T00:00:00	2024-11-08T05:00:00	6	Velocidad del viento	1.6
168098	7	Sololá	712	San Antonio Palopó	9	San Antonio Palopo	4	Abril	2023-04-29T00:00:00	2024-11-08T05:00:00	7	Dirección del viento	1.61
168099	7	Sololá	712	San Antonio Palopó	9	San Antonio Palopo	4	Abril	2023-04-29T00:00:00	2024-11-08T05:00:00	1	Precipitación	0
168100	7	Sololá	712	San Antonio Palopó	9	San Antonio Palopo	4	Abril	2023-04-29T00:00:00	2024-11-08T05:00:00	8	Radiación solar	0
168101	7	Sololá	712	San Antonio Palopó	9	San Antonio Palopo	4	Abril	2023-04-29T00:00:00	2024-11-08T06:00:00	2	Temperatura media	18.1
168102	7	Sololá	712	San Antonio Palopó	9	San Antonio Palopo	4	Abril	2023-04-29T00:00:00	2024-11-08T06:00:00	4	Temperatura máxima	18.9
168103	7	Sololá	712	San Antonio Palopó	9	San Antonio Palopo	4	Abril	2023-04-29T00:00:00	2024-11-08T06:00:00	3	Temperatura mínima	18.1
168104	7	Sololá	712	San Antonio Palopó	9	San Antonio Palopo	4	Abril	2023-04-29T00:00:00	2024-11-08T06:00:00	5	Humedad	84
168105	7	Sololá	712	San Antonio Palopó	9	San Antonio Palopo	4	Abril	2023-04-29T00:00:00	2024-11-08T06:00:00	6	Velocidad del viento	1.6
168106	7	Sololá	712	San Antonio Palopó	9	San Antonio Palopo	4	Abril	2023-04-29T00:00:00	2024-11-08T06:00:00	7	Dirección del viento	1.61
168107	7	Sololá	712	San Antonio Palopó	9	San Antonio Palopo	4	Abril	2023-04-29T00:00:00	2024-11-08T06:00:00	1	Precipitación	0
168108	7	Sololá	712	San Antonio Palopó	9	San Antonio Palopo	4	Abril	2023-04-29T00:00:00	2024-11-08T06:00:00	8	Radiación solar	1
168109	7	Sololá	712	San Antonio Palopó	9	San Antonio Palopo	4	Abril	2023-04-29T00:00:00	2024-11-08T07:00:00	2	Temperatura media	18.8
168110	7	Sololá	712	San Antonio Palopó	9	San Antonio Palopo	4	Abril	2023-04-29T00:00:00	2024-11-08T07:00:00	4	Temperatura máxima	18.8
168111	7	Sololá	712	San Antonio Palopó	9	San Antonio Palopo	4	Abril	2023-04-29T00:00:00	2024-11-08T07:00:00	3	Temperatura mínima	17.9
168112	7	Sololá	712	San Antonio Palopó	9	San Antonio Palopo	4	Abril	2023-04-29T00:00:00	2024-11-08T07:00:00	5	Humedad	81
168113	7	Sololá	712	San Antonio Palopó	9	San Antonio Palopo	4	Abril	2023-04-29T00:00:00	2024-11-08T07:00:00	6	Velocidad del viento	1.6
168114	7	Sololá	712	San Antonio Palopó	9	San Antonio Palopo	4	Abril	2023-04-29T00:00:00	2024-11-08T07:00:00	7	Dirección del viento	1.61
168115	7	Sololá	712	San Antonio Palopó	9	San Antonio Palopo	4	Abril	2023-04-29T00:00:00	2024-11-08T07:00:00	1	Precipitación	0
168116	7	Sololá	712	San Antonio Palopó	9	San Antonio Palopo	4	Abril	2023-04-29T00:00:00	2024-11-08T07:00:00	8	Radiación solar	47
168117	7	Sololá	712	San Antonio Palopó	9	San Antonio Palopo	4	Abril	2023-04-29T00:00:00	2024-11-08T08:00:00	2	Temperatura media	20
168118	7	Sololá	712	San Antonio Palopó	9	San Antonio Palopo	4	Abril	2023-04-29T00:00:00	2024-11-08T08:00:00	4	Temperatura máxima	20
168119	7	Sololá	712	San Antonio Palopó	9	San Antonio Palopo	4	Abril	2023-04-29T00:00:00	2024-11-08T08:00:00	3	Temperatura mínima	18.7
168120	7	Sololá	712	San Antonio Palopó	9	San Antonio Palopo	4	Abril	2023-04-29T00:00:00	2024-11-08T08:00:00	5	Humedad	78
168121	7	Sololá	712	San Antonio Palopó	9	San Antonio Palopo	4	Abril	2023-04-29T00:00:00	2024-11-08T08:00:00	6	Velocidad del viento	0
168122	7	Sololá	712	San Antonio Palopó	9	San Antonio Palopo	4	Abril	2023-04-29T00:00:00	2024-11-08T08:00:00	7	Dirección del viento	0
168123	7	Sololá	712	San Antonio Palopó	9	San Antonio Palopo	4	Abril	2023-04-29T00:00:00	2024-11-08T08:00:00	1	Precipitación	0
168124	7	Sololá	712	San Antonio Palopó	9	San Antonio Palopo	4	Abril	2023-04-29T00:00:00	2024-11-08T08:00:00	8	Radiación solar	163
168125	7	Sololá	712	San Antonio Palopó	9	San Antonio Palopo	4	Abril	2023-04-29T00:00:00	2024-11-08T09:00:00	2	Temperatura media	20.6
168126	7	Sololá	712	San Antonio Palopó	9	San Antonio Palopo	4	Abril	2023-04-29T00:00:00	2024-11-08T09:00:00	4	Temperatura máxima	20.8
168127	7	Sololá	712	San Antonio Palopó	9	San Antonio Palopo	4	Abril	2023-04-29T00:00:00	2024-11-08T09:00:00	3	Temperatura mínima	20
168128	7	Sololá	712	San Antonio Palopó	9	San Antonio Palopo	4	Abril	2023-04-29T00:00:00	2024-11-08T09:00:00	5	Humedad	77
168129	7	Sololá	712	San Antonio Palopó	9	San Antonio Palopo	4	Abril	2023-04-29T00:00:00	2024-11-08T09:00:00	6	Velocidad del viento	1.6
168130	7	Sololá	712	San Antonio Palopó	9	San Antonio Palopo	4	Abril	2023-04-29T00:00:00	2024-11-08T09:00:00	7	Dirección del viento	1.61
168131	7	Sololá	712	San Antonio Palopó	9	San Antonio Palopo	4	Abril	2023-04-29T00:00:00	2024-11-08T09:00:00	1	Precipitación	0
168132	7	Sololá	712	San Antonio Palopó	9	San Antonio Palopo	4	Abril	2023-04-29T00:00:00	2024-11-08T09:00:00	8	Radiación solar	469
168133	7	Sololá	712	San Antonio Palopó	9	San Antonio Palopo	4	Abril	2023-04-29T00:00:00	2024-11-08T10:00:00	2	Temperatura media	21.6
168134	7	Sololá	712	San Antonio Palopó	9	San Antonio Palopo	4	Abril	2023-04-29T00:00:00	2024-11-08T10:00:00	4	Temperatura máxima	21.6
168135	7	Sololá	712	San Antonio Palopó	9	San Antonio Palopo	4	Abril	2023-04-29T00:00:00	2024-11-08T10:00:00	3	Temperatura mínima	20.3
168136	7	Sololá	712	San Antonio Palopó	9	San Antonio Palopo	4	Abril	2023-04-29T00:00:00	2024-11-08T10:00:00	5	Humedad	73
168137	7	Sololá	712	San Antonio Palopó	9	San Antonio Palopo	4	Abril	2023-04-29T00:00:00	2024-11-08T10:00:00	6	Velocidad del viento	3.2
168138	7	Sololá	712	San Antonio Palopó	9	San Antonio Palopo	4	Abril	2023-04-29T00:00:00	2024-11-08T10:00:00	7	Dirección del viento	3.22
168139	7	Sololá	712	San Antonio Palopó	9	San Antonio Palopo	4	Abril	2023-04-29T00:00:00	2024-11-08T10:00:00	1	Precipitación	0
168140	7	Sololá	712	San Antonio Palopó	9	San Antonio Palopo	4	Abril	2023-04-29T00:00:00	2024-11-08T10:00:00	8	Radiación solar	634
168141	7	Sololá	712	San Antonio Palopó	9	San Antonio Palopo	4	Abril	2023-04-29T00:00:00	2024-11-08T11:00:00	2	Temperatura media	22.3
168142	7	Sololá	712	San Antonio Palopó	9	San Antonio Palopo	4	Abril	2023-04-29T00:00:00	2024-11-08T11:00:00	4	Temperatura máxima	22.3
168143	7	Sololá	712	San Antonio Palopó	9	San Antonio Palopo	4	Abril	2023-04-29T00:00:00	2024-11-08T11:00:00	3	Temperatura mínima	21.6
168144	7	Sololá	712	San Antonio Palopó	9	San Antonio Palopo	4	Abril	2023-04-29T00:00:00	2024-11-08T11:00:00	5	Humedad	74
168145	7	Sololá	712	San Antonio Palopó	9	San Antonio Palopo	4	Abril	2023-04-29T00:00:00	2024-11-08T11:00:00	6	Velocidad del viento	4.8
168146	7	Sololá	712	San Antonio Palopó	9	San Antonio Palopo	4	Abril	2023-04-29T00:00:00	2024-11-08T11:00:00	7	Dirección del viento	4.83
168147	7	Sololá	712	San Antonio Palopó	9	San Antonio Palopo	4	Abril	2023-04-29T00:00:00	2024-11-08T11:00:00	1	Precipitación	0
168148	7	Sololá	712	San Antonio Palopó	9	San Antonio Palopo	4	Abril	2023-04-29T00:00:00	2024-11-08T11:00:00	8	Radiación solar	826
168149	7	Sololá	712	San Antonio Palopó	9	San Antonio Palopo	4	Abril	2023-04-29T00:00:00	2024-11-08T12:00:00	2	Temperatura media	23.8
168150	7	Sololá	712	San Antonio Palopó	9	San Antonio Palopo	4	Abril	2023-04-29T00:00:00	2024-11-08T12:00:00	4	Temperatura máxima	23.8
168151	7	Sololá	712	San Antonio Palopó	9	San Antonio Palopo	4	Abril	2023-04-29T00:00:00	2024-11-08T12:00:00	3	Temperatura mínima	22.2
168152	7	Sololá	712	San Antonio Palopó	9	San Antonio Palopo	4	Abril	2023-04-29T00:00:00	2024-11-08T12:00:00	5	Humedad	74
168153	7	Sololá	712	San Antonio Palopó	9	San Antonio Palopo	4	Abril	2023-04-29T00:00:00	2024-11-08T12:00:00	6	Velocidad del viento	6.4
168154	7	Sololá	712	San Antonio Palopó	9	San Antonio Palopo	4	Abril	2023-04-29T00:00:00	2024-11-08T12:00:00	7	Dirección del viento	6.44
168155	7	Sololá	712	San Antonio Palopó	9	San Antonio Palopo	4	Abril	2023-04-29T00:00:00	2024-11-08T12:00:00	1	Precipitación	0
168156	7	Sololá	712	San Antonio Palopó	9	San Antonio Palopo	4	Abril	2023-04-29T00:00:00	2024-11-08T12:00:00	8	Radiación solar	907
168157	7	Sololá	712	San Antonio Palopó	9	San Antonio Palopo	4	Abril	2023-04-29T00:00:00	2024-11-08T13:00:00	2	Temperatura media	23.1
168158	7	Sololá	712	San Antonio Palopó	9	San Antonio Palopo	4	Abril	2023-04-29T00:00:00	2024-11-08T13:00:00	4	Temperatura máxima	24
168159	7	Sololá	712	San Antonio Palopó	9	San Antonio Palopo	4	Abril	2023-04-29T00:00:00	2024-11-08T13:00:00	3	Temperatura mínima	23.1
168160	7	Sololá	712	San Antonio Palopó	9	San Antonio Palopo	4	Abril	2023-04-29T00:00:00	2024-11-08T13:00:00	5	Humedad	75
168161	7	Sololá	712	San Antonio Palopó	9	San Antonio Palopo	4	Abril	2023-04-29T00:00:00	2024-11-08T13:00:00	6	Velocidad del viento	8
168162	7	Sololá	712	San Antonio Palopó	9	San Antonio Palopo	4	Abril	2023-04-29T00:00:00	2024-11-08T13:00:00	7	Dirección del viento	8.05
168163	7	Sololá	712	San Antonio Palopó	9	San Antonio Palopo	4	Abril	2023-04-29T00:00:00	2024-11-08T13:00:00	1	Precipitación	0
168164	7	Sololá	712	San Antonio Palopó	9	San Antonio Palopo	4	Abril	2023-04-29T00:00:00	2024-11-08T13:00:00	8	Radiación solar	871
168165	7	Sololá	712	San Antonio Palopó	9	San Antonio Palopo	4	Abril	2023-04-29T00:00:00	2024-11-08T14:00:00	2	Temperatura media	22.7
168166	7	Sololá	712	San Antonio Palopó	9	San Antonio Palopo	4	Abril	2023-04-29T00:00:00	2024-11-08T14:00:00	4	Temperatura máxima	24.6
168167	7	Sololá	712	San Antonio Palopó	9	San Antonio Palopo	4	Abril	2023-04-29T00:00:00	2024-11-08T14:00:00	3	Temperatura mínima	22.7
168168	7	Sololá	712	San Antonio Palopó	9	San Antonio Palopo	4	Abril	2023-04-29T00:00:00	2024-11-08T14:00:00	5	Humedad	74
168169	7	Sololá	712	San Antonio Palopó	9	San Antonio Palopo	4	Abril	2023-04-29T00:00:00	2024-11-08T14:00:00	6	Velocidad del viento	8
168170	7	Sololá	712	San Antonio Palopó	9	San Antonio Palopo	4	Abril	2023-04-29T00:00:00	2024-11-08T14:00:00	7	Dirección del viento	8.05
168171	7	Sololá	712	San Antonio Palopó	9	San Antonio Palopo	4	Abril	2023-04-29T00:00:00	2024-11-08T14:00:00	1	Precipitación	0
168172	7	Sololá	712	San Antonio Palopó	9	San Antonio Palopo	4	Abril	2023-04-29T00:00:00	2024-11-08T14:00:00	8	Radiación solar	688
168173	7	Sololá	712	San Antonio Palopó	9	San Antonio Palopo	4	Abril	2023-04-29T00:00:00	2024-11-08T15:00:00	2	Temperatura media	22.1
168174	7	Sololá	712	San Antonio Palopó	9	San Antonio Palopo	4	Abril	2023-04-29T00:00:00	2024-11-08T15:00:00	4	Temperatura máxima	22.9
168175	7	Sololá	712	San Antonio Palopó	9	San Antonio Palopo	4	Abril	2023-04-29T00:00:00	2024-11-08T15:00:00	3	Temperatura mínima	21.9
168176	7	Sololá	712	San Antonio Palopó	9	San Antonio Palopo	4	Abril	2023-04-29T00:00:00	2024-11-08T15:00:00	5	Humedad	76
168177	7	Sololá	712	San Antonio Palopó	9	San Antonio Palopo	4	Abril	2023-04-29T00:00:00	2024-11-08T15:00:00	6	Velocidad del viento	9.7
168178	7	Sololá	712	San Antonio Palopó	9	San Antonio Palopo	4	Abril	2023-04-29T00:00:00	2024-11-08T15:00:00	7	Dirección del viento	9.66
168179	7	Sololá	712	San Antonio Palopó	9	San Antonio Palopo	4	Abril	2023-04-29T00:00:00	2024-11-08T15:00:00	1	Precipitación	0
168180	7	Sololá	712	San Antonio Palopó	9	San Antonio Palopo	4	Abril	2023-04-29T00:00:00	2024-11-08T15:00:00	8	Radiación solar	268
168181	7	Sololá	712	San Antonio Palopó	9	San Antonio Palopo	4	Abril	2023-04-29T00:00:00	2024-11-08T16:00:00	2	Temperatura media	21.5
168182	7	Sololá	712	San Antonio Palopó	9	San Antonio Palopo	4	Abril	2023-04-29T00:00:00	2024-11-08T16:00:00	4	Temperatura máxima	23.2
168183	7	Sololá	712	San Antonio Palopó	9	San Antonio Palopo	4	Abril	2023-04-29T00:00:00	2024-11-08T16:00:00	3	Temperatura mínima	21.5
168184	7	Sololá	712	San Antonio Palopó	9	San Antonio Palopo	4	Abril	2023-04-29T00:00:00	2024-11-08T16:00:00	5	Humedad	80
168185	7	Sololá	712	San Antonio Palopó	9	San Antonio Palopo	4	Abril	2023-04-29T00:00:00	2024-11-08T16:00:00	6	Velocidad del viento	6.4
168186	7	Sololá	712	San Antonio Palopó	9	San Antonio Palopo	4	Abril	2023-04-29T00:00:00	2024-11-08T16:00:00	7	Dirección del viento	6.44
168187	7	Sololá	712	San Antonio Palopó	9	San Antonio Palopo	4	Abril	2023-04-29T00:00:00	2024-11-08T16:00:00	1	Precipitación	0
168188	7	Sololá	712	San Antonio Palopó	9	San Antonio Palopo	4	Abril	2023-04-29T00:00:00	2024-11-08T16:00:00	8	Radiación solar	279
168189	7	Sololá	712	San Antonio Palopó	9	San Antonio Palopo	4	Abril	2023-04-29T00:00:00	2024-11-08T17:00:00	2	Temperatura media	21.8
168190	7	Sololá	712	San Antonio Palopó	9	San Antonio Palopo	4	Abril	2023-04-29T00:00:00	2024-11-08T17:00:00	4	Temperatura máxima	21.8
168191	7	Sololá	712	San Antonio Palopó	9	San Antonio Palopo	4	Abril	2023-04-29T00:00:00	2024-11-08T17:00:00	3	Temperatura mínima	21.3
168192	7	Sololá	712	San Antonio Palopó	9	San Antonio Palopo	4	Abril	2023-04-29T00:00:00	2024-11-08T17:00:00	5	Humedad	77
168193	7	Sololá	712	San Antonio Palopó	9	San Antonio Palopo	4	Abril	2023-04-29T00:00:00	2024-11-08T17:00:00	6	Velocidad del viento	4.8
168194	7	Sololá	712	San Antonio Palopó	9	San Antonio Palopo	4	Abril	2023-04-29T00:00:00	2024-11-08T17:00:00	7	Dirección del viento	4.83
168195	7	Sololá	712	San Antonio Palopó	9	San Antonio Palopo	4	Abril	2023-04-29T00:00:00	2024-11-08T17:00:00	1	Precipitación	0
168196	7	Sololá	712	San Antonio Palopó	9	San Antonio Palopo	4	Abril	2023-04-29T00:00:00	2024-11-08T17:00:00	8	Radiación solar	104
168197	7	Sololá	712	San Antonio Palopó	9	San Antonio Palopo	4	Abril	2023-04-29T00:00:00	2024-11-08T18:00:00	2	Temperatura media	21.1
168198	7	Sololá	712	San Antonio Palopó	9	San Antonio Palopo	4	Abril	2023-04-29T00:00:00	2024-11-08T18:00:00	4	Temperatura máxima	22.1
168199	7	Sololá	712	San Antonio Palopó	9	San Antonio Palopo	4	Abril	2023-04-29T00:00:00	2024-11-08T18:00:00	3	Temperatura mínima	21.1
168200	7	Sololá	712	San Antonio Palopó	9	San Antonio Palopo	4	Abril	2023-04-29T00:00:00	2024-11-08T18:00:00	5	Humedad	81
168201	7	Sololá	712	San Antonio Palopó	9	San Antonio Palopo	4	Abril	2023-04-29T00:00:00	2024-11-08T18:00:00	6	Velocidad del viento	4.8
168202	7	Sololá	712	San Antonio Palopó	9	San Antonio Palopo	4	Abril	2023-04-29T00:00:00	2024-11-08T18:00:00	7	Dirección del viento	4.83
168203	7	Sololá	712	San Antonio Palopó	9	San Antonio Palopo	4	Abril	2023-04-29T00:00:00	2024-11-08T18:00:00	1	Precipitación	0
168204	7	Sololá	712	San Antonio Palopó	9	San Antonio Palopo	4	Abril	2023-04-29T00:00:00	2024-11-08T18:00:00	8	Radiación solar	80
168205	7	Sololá	712	San Antonio Palopó	9	San Antonio Palopo	4	Abril	2023-04-29T00:00:00	2024-11-08T19:00:00	2	Temperatura media	20.7
168206	7	Sololá	712	San Antonio Palopó	9	San Antonio Palopo	4	Abril	2023-04-29T00:00:00	2024-11-08T19:00:00	4	Temperatura máxima	21.1
168207	7	Sololá	712	San Antonio Palopó	9	San Antonio Palopo	4	Abril	2023-04-29T00:00:00	2024-11-08T19:00:00	3	Temperatura mínima	20.7
168208	7	Sololá	712	San Antonio Palopó	9	San Antonio Palopo	4	Abril	2023-04-29T00:00:00	2024-11-08T19:00:00	5	Humedad	82
168209	7	Sololá	712	San Antonio Palopó	9	San Antonio Palopo	4	Abril	2023-04-29T00:00:00	2024-11-08T19:00:00	6	Velocidad del viento	4.8
168210	7	Sololá	712	San Antonio Palopó	9	San Antonio Palopo	4	Abril	2023-04-29T00:00:00	2024-11-08T19:00:00	7	Dirección del viento	4.83
168211	7	Sololá	712	San Antonio Palopó	9	San Antonio Palopo	4	Abril	2023-04-29T00:00:00	2024-11-08T19:00:00	1	Precipitación	0
168212	7	Sololá	712	San Antonio Palopó	9	San Antonio Palopo	4	Abril	2023-04-29T00:00:00	2024-11-08T19:00:00	8	Radiación solar	0
168213	7	Sololá	712	San Antonio Palopó	9	San Antonio Palopo	4	Abril	2023-04-29T00:00:00	2024-11-08T20:00:00	2	Temperatura media	20.2
168214	7	Sololá	712	San Antonio Palopó	9	San Antonio Palopo	4	Abril	2023-04-29T00:00:00	2024-11-08T20:00:00	4	Temperatura máxima	20.8
168215	7	Sololá	712	San Antonio Palopó	9	San Antonio Palopo	4	Abril	2023-04-29T00:00:00	2024-11-08T20:00:00	3	Temperatura mínima	20.2
168216	7	Sololá	712	San Antonio Palopó	9	San Antonio Palopo	4	Abril	2023-04-29T00:00:00	2024-11-08T20:00:00	5	Humedad	79
168217	7	Sololá	712	San Antonio Palopó	9	San Antonio Palopo	4	Abril	2023-04-29T00:00:00	2024-11-08T20:00:00	6	Velocidad del viento	1.6
168218	7	Sololá	712	San Antonio Palopó	9	San Antonio Palopo	4	Abril	2023-04-29T00:00:00	2024-11-08T20:00:00	7	Dirección del viento	1.61
168219	7	Sololá	712	San Antonio Palopó	9	San Antonio Palopo	4	Abril	2023-04-29T00:00:00	2024-11-08T20:00:00	1	Precipitación	0
168220	7	Sololá	712	San Antonio Palopó	9	San Antonio Palopo	4	Abril	2023-04-29T00:00:00	2024-11-08T20:00:00	8	Radiación solar	0
168221	7	Sololá	712	San Antonio Palopó	9	San Antonio Palopo	4	Abril	2023-04-29T00:00:00	2024-11-08T21:00:00	2	Temperatura media	19.5
168222	7	Sololá	712	San Antonio Palopó	9	San Antonio Palopo	4	Abril	2023-04-29T00:00:00	2024-11-08T21:00:00	4	Temperatura máxima	20.3
168223	7	Sololá	712	San Antonio Palopó	9	San Antonio Palopo	4	Abril	2023-04-29T00:00:00	2024-11-08T21:00:00	3	Temperatura mínima	19.4
168224	7	Sololá	712	San Antonio Palopó	9	San Antonio Palopo	4	Abril	2023-04-29T00:00:00	2024-11-08T21:00:00	5	Humedad	79
168225	7	Sololá	712	San Antonio Palopó	9	San Antonio Palopo	4	Abril	2023-04-29T00:00:00	2024-11-08T21:00:00	6	Velocidad del viento	3.2
168226	7	Sololá	712	San Antonio Palopó	9	San Antonio Palopo	4	Abril	2023-04-29T00:00:00	2024-11-08T21:00:00	7	Dirección del viento	3.22
168227	7	Sololá	712	San Antonio Palopó	9	San Antonio Palopo	4	Abril	2023-04-29T00:00:00	2024-11-08T21:00:00	1	Precipitación	0
168228	7	Sololá	712	San Antonio Palopó	9	San Antonio Palopo	4	Abril	2023-04-29T00:00:00	2024-11-08T21:00:00	8	Radiación solar	0
168229	7	Sololá	712	San Antonio Palopó	9	San Antonio Palopo	4	Abril	2023-04-29T00:00:00	2024-11-08T22:00:00	2	Temperatura media	19.5
168230	7	Sololá	712	San Antonio Palopó	9	San Antonio Palopo	4	Abril	2023-04-29T00:00:00	2024-11-08T22:00:00	4	Temperatura máxima	19.9
168231	7	Sololá	712	San Antonio Palopó	9	San Antonio Palopo	4	Abril	2023-04-29T00:00:00	2024-11-08T22:00:00	3	Temperatura mínima	19.4
168232	7	Sololá	712	San Antonio Palopó	9	San Antonio Palopo	4	Abril	2023-04-29T00:00:00	2024-11-08T22:00:00	5	Humedad	78
168233	7	Sololá	712	San Antonio Palopó	9	San Antonio Palopo	4	Abril	2023-04-29T00:00:00	2024-11-08T22:00:00	6	Velocidad del viento	3.2
168234	7	Sololá	712	San Antonio Palopó	9	San Antonio Palopo	4	Abril	2023-04-29T00:00:00	2024-11-08T22:00:00	7	Dirección del viento	3.22
168235	7	Sololá	712	San Antonio Palopó	9	San Antonio Palopo	4	Abril	2023-04-29T00:00:00	2024-11-08T22:00:00	1	Precipitación	0
168236	7	Sololá	712	San Antonio Palopó	9	San Antonio Palopo	4	Abril	2023-04-29T00:00:00	2024-11-08T22:00:00	8	Radiación solar	0
168237	7	Sololá	712	San Antonio Palopó	9	San Antonio Palopo	4	Abril	2023-04-29T00:00:00	2024-11-08T23:00:00	2	Temperatura media	19.4
168238	7	Sololá	712	San Antonio Palopó	9	San Antonio Palopo	4	Abril	2023-04-29T00:00:00	2024-11-08T23:00:00	4	Temperatura máxima	19.9
168239	7	Sololá	712	San Antonio Palopó	9	San Antonio Palopo	4	Abril	2023-04-29T00:00:00	2024-11-08T23:00:00	3	Temperatura mínima	19.2
168240	7	Sololá	712	San Antonio Palopó	9	San Antonio Palopo	4	Abril	2023-04-29T00:00:00	2024-11-08T23:00:00	5	Humedad	76
168241	7	Sololá	712	San Antonio Palopó	9	San Antonio Palopo	4	Abril	2023-04-29T00:00:00	2024-11-08T23:00:00	6	Velocidad del viento	3.2
168242	7	Sololá	712	San Antonio Palopó	9	San Antonio Palopo	4	Abril	2023-04-29T00:00:00	2024-11-08T23:00:00	7	Dirección del viento	3.22
168243	7	Sololá	712	San Antonio Palopó	9	San Antonio Palopo	4	Abril	2023-04-29T00:00:00	2024-11-08T23:00:00	1	Precipitación	0
168244	7	Sololá	712	San Antonio Palopó	9	San Antonio Palopo	4	Abril	2023-04-29T00:00:00	2024-11-08T23:00:00	8	Radiación solar	0
168245	7	Sololá	712	San Antonio Palopó	9	San Antonio Palopo	4	Abril	2023-04-30T00:00:00	2024-11-08T00:00:00	2	Temperatura media	18.9
168246	7	Sololá	712	San Antonio Palopó	9	San Antonio Palopo	4	Abril	2023-04-30T00:00:00	2024-11-08T00:00:00	4	Temperatura máxima	19.4
168247	7	Sololá	712	San Antonio Palopó	9	San Antonio Palopo	4	Abril	2023-04-30T00:00:00	2024-11-08T00:00:00	3	Temperatura mínima	18.8
168248	7	Sololá	712	San Antonio Palopó	9	San Antonio Palopo	4	Abril	2023-04-30T00:00:00	2024-11-08T00:00:00	5	Humedad	77
168249	7	Sololá	712	San Antonio Palopó	9	San Antonio Palopo	4	Abril	2023-04-30T00:00:00	2024-11-08T00:00:00	6	Velocidad del viento	3.2
168250	7	Sololá	712	San Antonio Palopó	9	San Antonio Palopo	4	Abril	2023-04-30T00:00:00	2024-11-08T00:00:00	7	Dirección del viento	3.22
168251	7	Sololá	712	San Antonio Palopó	9	San Antonio Palopo	4	Abril	2023-04-30T00:00:00	2024-11-08T00:00:00	1	Precipitación	0
168252	7	Sololá	712	San Antonio Palopó	9	San Antonio Palopo	4	Abril	2023-04-30T00:00:00	2024-11-08T00:00:00	8	Radiación solar	0
168253	7	Sololá	712	San Antonio Palopó	9	San Antonio Palopo	4	Abril	2023-04-30T00:00:00	2024-11-08T01:00:00	2	Temperatura media	20.1
168254	7	Sololá	712	San Antonio Palopó	9	San Antonio Palopo	4	Abril	2023-04-30T00:00:00	2024-11-08T01:00:00	4	Temperatura máxima	20.2
168255	7	Sololá	712	San Antonio Palopó	9	San Antonio Palopo	4	Abril	2023-04-30T00:00:00	2024-11-08T01:00:00	3	Temperatura mínima	18.6
168256	7	Sololá	712	San Antonio Palopó	9	San Antonio Palopo	4	Abril	2023-04-30T00:00:00	2024-11-08T01:00:00	5	Humedad	69
168257	7	Sololá	712	San Antonio Palopó	9	San Antonio Palopo	4	Abril	2023-04-30T00:00:00	2024-11-08T01:00:00	6	Velocidad del viento	4.8
168258	7	Sololá	712	San Antonio Palopó	9	San Antonio Palopo	4	Abril	2023-04-30T00:00:00	2024-11-08T01:00:00	7	Dirección del viento	4.83
168259	7	Sololá	712	San Antonio Palopó	9	San Antonio Palopo	4	Abril	2023-04-30T00:00:00	2024-11-08T01:00:00	1	Precipitación	0
168260	7	Sololá	712	San Antonio Palopó	9	San Antonio Palopo	4	Abril	2023-04-30T00:00:00	2024-11-08T01:00:00	8	Radiación solar	0
168261	7	Sololá	712	San Antonio Palopó	9	San Antonio Palopo	4	Abril	2023-04-30T00:00:00	2024-11-08T02:00:00	2	Temperatura media	19.7
168262	7	Sololá	712	San Antonio Palopó	9	San Antonio Palopo	4	Abril	2023-04-30T00:00:00	2024-11-08T02:00:00	4	Temperatura máxima	20.3
168263	7	Sololá	712	San Antonio Palopó	9	San Antonio Palopo	4	Abril	2023-04-30T00:00:00	2024-11-08T02:00:00	3	Temperatura mínima	19.7
168264	7	Sololá	712	San Antonio Palopó	9	San Antonio Palopo	4	Abril	2023-04-30T00:00:00	2024-11-08T02:00:00	5	Humedad	70
168265	7	Sololá	712	San Antonio Palopó	9	San Antonio Palopo	4	Abril	2023-04-30T00:00:00	2024-11-08T02:00:00	6	Velocidad del viento	9.7
168266	7	Sololá	712	San Antonio Palopó	9	San Antonio Palopo	4	Abril	2023-04-30T00:00:00	2024-11-08T02:00:00	7	Dirección del viento	9.66
168267	7	Sololá	712	San Antonio Palopó	9	San Antonio Palopo	4	Abril	2023-04-30T00:00:00	2024-11-08T02:00:00	1	Precipitación	0
168268	7	Sololá	712	San Antonio Palopó	9	San Antonio Palopo	4	Abril	2023-04-30T00:00:00	2024-11-08T02:00:00	8	Radiación solar	0
168269	7	Sololá	712	San Antonio Palopó	9	San Antonio Palopo	4	Abril	2023-04-30T00:00:00	2024-11-08T03:00:00	2	Temperatura media	19.3
168270	7	Sololá	712	San Antonio Palopó	9	San Antonio Palopo	4	Abril	2023-04-30T00:00:00	2024-11-08T03:00:00	4	Temperatura máxima	19.7
168271	7	Sololá	712	San Antonio Palopó	9	San Antonio Palopo	4	Abril	2023-04-30T00:00:00	2024-11-08T03:00:00	3	Temperatura mínima	19.2
168272	7	Sololá	712	San Antonio Palopó	9	San Antonio Palopo	4	Abril	2023-04-30T00:00:00	2024-11-08T03:00:00	5	Humedad	70
168273	7	Sololá	712	San Antonio Palopó	9	San Antonio Palopo	4	Abril	2023-04-30T00:00:00	2024-11-08T03:00:00	6	Velocidad del viento	4.8
168274	7	Sololá	712	San Antonio Palopó	9	San Antonio Palopo	4	Abril	2023-04-30T00:00:00	2024-11-08T03:00:00	7	Dirección del viento	4.83
168275	7	Sololá	712	San Antonio Palopó	9	San Antonio Palopo	4	Abril	2023-04-30T00:00:00	2024-11-08T03:00:00	1	Precipitación	0
168276	7	Sololá	712	San Antonio Palopó	9	San Antonio Palopo	4	Abril	2023-04-30T00:00:00	2024-11-08T03:00:00	8	Radiación solar	0
168277	7	Sololá	712	San Antonio Palopó	9	San Antonio Palopo	4	Abril	2023-04-30T00:00:00	2024-11-08T04:00:00	2	Temperatura media	19.1
168278	7	Sololá	712	San Antonio Palopó	9	San Antonio Palopo	4	Abril	2023-04-30T00:00:00	2024-11-08T04:00:00	4	Temperatura máxima	19.6
168279	7	Sololá	712	San Antonio Palopó	9	San Antonio Palopo	4	Abril	2023-04-30T00:00:00	2024-11-08T04:00:00	3	Temperatura mínima	19.1
168280	7	Sololá	712	San Antonio Palopó	9	San Antonio Palopo	4	Abril	2023-04-30T00:00:00	2024-11-08T04:00:00	5	Humedad	72
168281	7	Sololá	712	San Antonio Palopó	9	San Antonio Palopo	4	Abril	2023-04-30T00:00:00	2024-11-08T04:00:00	6	Velocidad del viento	6.4
168282	7	Sololá	712	San Antonio Palopó	9	San Antonio Palopo	4	Abril	2023-04-30T00:00:00	2024-11-08T04:00:00	7	Dirección del viento	6.44
168283	7	Sololá	712	San Antonio Palopó	9	San Antonio Palopo	4	Abril	2023-04-30T00:00:00	2024-11-08T04:00:00	1	Precipitación	0
168284	7	Sololá	712	San Antonio Palopó	9	San Antonio Palopo	4	Abril	2023-04-30T00:00:00	2024-11-08T04:00:00	8	Radiación solar	0
168285	7	Sololá	712	San Antonio Palopó	9	San Antonio Palopo	4	Abril	2023-04-30T00:00:00	2024-11-08T05:00:00	2	Temperatura media	19.6
168286	7	Sololá	712	San Antonio Palopó	9	San Antonio Palopo	4	Abril	2023-04-30T00:00:00	2024-11-08T05:00:00	4	Temperatura máxima	19.6
168287	7	Sololá	712	San Antonio Palopó	9	San Antonio Palopo	4	Abril	2023-04-30T00:00:00	2024-11-08T05:00:00	3	Temperatura mínima	18.6
168288	7	Sololá	712	San Antonio Palopó	9	San Antonio Palopo	4	Abril	2023-04-30T00:00:00	2024-11-08T05:00:00	5	Humedad	71
168289	7	Sololá	712	San Antonio Palopó	9	San Antonio Palopo	4	Abril	2023-04-30T00:00:00	2024-11-08T05:00:00	6	Velocidad del viento	6.4
168290	7	Sololá	712	San Antonio Palopó	9	San Antonio Palopo	4	Abril	2023-04-30T00:00:00	2024-11-08T05:00:00	7	Dirección del viento	6.44
168291	7	Sololá	712	San Antonio Palopó	9	San Antonio Palopo	4	Abril	2023-04-30T00:00:00	2024-11-08T05:00:00	1	Precipitación	0
168292	7	Sololá	712	San Antonio Palopó	9	San Antonio Palopo	4	Abril	2023-04-30T00:00:00	2024-11-08T05:00:00	8	Radiación solar	0
168293	7	Sololá	712	San Antonio Palopó	9	San Antonio Palopo	4	Abril	2023-04-30T00:00:00	2024-11-08T06:00:00	2	Temperatura media	19.2
168294	7	Sololá	712	San Antonio Palopó	9	San Antonio Palopo	4	Abril	2023-04-30T00:00:00	2024-11-08T06:00:00	4	Temperatura máxima	19.7
168295	7	Sololá	712	San Antonio Palopó	9	San Antonio Palopo	4	Abril	2023-04-30T00:00:00	2024-11-08T06:00:00	3	Temperatura mínima	18.9
168296	7	Sololá	712	San Antonio Palopó	9	San Antonio Palopo	4	Abril	2023-04-30T00:00:00	2024-11-08T06:00:00	5	Humedad	72
168297	7	Sololá	712	San Antonio Palopó	9	San Antonio Palopo	4	Abril	2023-04-30T00:00:00	2024-11-08T06:00:00	6	Velocidad del viento	6.4
168298	7	Sololá	712	San Antonio Palopó	9	San Antonio Palopo	4	Abril	2023-04-30T00:00:00	2024-11-08T06:00:00	7	Dirección del viento	6.44
168299	7	Sololá	712	San Antonio Palopó	9	San Antonio Palopo	4	Abril	2023-04-30T00:00:00	2024-11-08T06:00:00	1	Precipitación	0
168300	7	Sololá	712	San Antonio Palopó	9	San Antonio Palopo	4	Abril	2023-04-30T00:00:00	2024-11-08T06:00:00	8	Radiación solar	1
168301	7	Sololá	712	San Antonio Palopó	9	San Antonio Palopo	4	Abril	2023-04-30T00:00:00	2024-11-08T07:00:00	2	Temperatura media	19.6
168302	7	Sololá	712	San Antonio Palopó	9	San Antonio Palopo	4	Abril	2023-04-30T00:00:00	2024-11-08T07:00:00	4	Temperatura máxima	19.7
168303	7	Sololá	712	San Antonio Palopó	9	San Antonio Palopo	4	Abril	2023-04-30T00:00:00	2024-11-08T07:00:00	3	Temperatura mínima	18.7
168304	7	Sololá	712	San Antonio Palopó	9	San Antonio Palopo	4	Abril	2023-04-30T00:00:00	2024-11-08T07:00:00	5	Humedad	70
168305	7	Sololá	712	San Antonio Palopó	9	San Antonio Palopo	4	Abril	2023-04-30T00:00:00	2024-11-08T07:00:00	6	Velocidad del viento	4.8
168306	7	Sololá	712	San Antonio Palopó	9	San Antonio Palopo	4	Abril	2023-04-30T00:00:00	2024-11-08T07:00:00	7	Dirección del viento	4.83
168307	7	Sololá	712	San Antonio Palopó	9	San Antonio Palopo	4	Abril	2023-04-30T00:00:00	2024-11-08T07:00:00	1	Precipitación	0
168308	7	Sololá	712	San Antonio Palopó	9	San Antonio Palopo	4	Abril	2023-04-30T00:00:00	2024-11-08T07:00:00	8	Radiación solar	38
168309	7	Sololá	712	San Antonio Palopó	9	San Antonio Palopo	4	Abril	2023-04-30T00:00:00	2024-11-08T08:00:00	2	Temperatura media	21.9
168310	7	Sololá	712	San Antonio Palopó	9	San Antonio Palopo	4	Abril	2023-04-30T00:00:00	2024-11-08T08:00:00	4	Temperatura máxima	21.9
168311	7	Sololá	712	San Antonio Palopó	9	San Antonio Palopo	4	Abril	2023-04-30T00:00:00	2024-11-08T08:00:00	3	Temperatura mínima	19.7
168312	7	Sololá	712	San Antonio Palopó	9	San Antonio Palopo	4	Abril	2023-04-30T00:00:00	2024-11-08T08:00:00	5	Humedad	65
168313	7	Sololá	712	San Antonio Palopó	9	San Antonio Palopo	4	Abril	2023-04-30T00:00:00	2024-11-08T08:00:00	6	Velocidad del viento	3.2
168314	7	Sololá	712	San Antonio Palopó	9	San Antonio Palopo	4	Abril	2023-04-30T00:00:00	2024-11-08T08:00:00	7	Dirección del viento	3.22
168315	7	Sololá	712	San Antonio Palopó	9	San Antonio Palopo	4	Abril	2023-04-30T00:00:00	2024-11-08T08:00:00	1	Precipitación	0
168316	7	Sololá	712	San Antonio Palopó	9	San Antonio Palopo	4	Abril	2023-04-30T00:00:00	2024-11-08T08:00:00	8	Radiación solar	197
168317	7	Sololá	712	San Antonio Palopó	9	San Antonio Palopo	4	Abril	2023-04-30T00:00:00	2024-11-08T09:00:00	2	Temperatura media	22.7
168318	7	Sololá	712	San Antonio Palopó	9	San Antonio Palopo	4	Abril	2023-04-30T00:00:00	2024-11-08T09:00:00	4	Temperatura máxima	22.7
168319	7	Sololá	712	San Antonio Palopó	9	San Antonio Palopo	4	Abril	2023-04-30T00:00:00	2024-11-08T09:00:00	3	Temperatura mínima	22
168320	7	Sololá	712	San Antonio Palopó	9	San Antonio Palopo	4	Abril	2023-04-30T00:00:00	2024-11-08T09:00:00	5	Humedad	64
168321	7	Sololá	712	San Antonio Palopó	9	San Antonio Palopo	4	Abril	2023-04-30T00:00:00	2024-11-08T09:00:00	6	Velocidad del viento	3.2
168322	7	Sololá	712	San Antonio Palopó	9	San Antonio Palopo	4	Abril	2023-04-30T00:00:00	2024-11-08T09:00:00	7	Dirección del viento	3.22
168323	7	Sololá	712	San Antonio Palopó	9	San Antonio Palopo	4	Abril	2023-04-30T00:00:00	2024-11-08T09:00:00	1	Precipitación	0
168324	7	Sololá	712	San Antonio Palopó	9	San Antonio Palopo	4	Abril	2023-04-30T00:00:00	2024-11-08T09:00:00	8	Radiación solar	522
168325	7	Sololá	712	San Antonio Palopó	9	San Antonio Palopo	4	Abril	2023-04-30T00:00:00	2024-11-08T10:00:00	2	Temperatura media	24.4
168326	7	Sololá	712	San Antonio Palopó	9	San Antonio Palopo	4	Abril	2023-04-30T00:00:00	2024-11-08T10:00:00	4	Temperatura máxima	24.6
168327	7	Sololá	712	San Antonio Palopó	9	San Antonio Palopo	4	Abril	2023-04-30T00:00:00	2024-11-08T10:00:00	3	Temperatura mínima	22.7
168328	7	Sololá	712	San Antonio Palopó	9	San Antonio Palopo	4	Abril	2023-04-30T00:00:00	2024-11-08T10:00:00	5	Humedad	68
168329	7	Sololá	712	San Antonio Palopó	9	San Antonio Palopo	4	Abril	2023-04-30T00:00:00	2024-11-08T10:00:00	6	Velocidad del viento	3.2
168330	7	Sololá	712	San Antonio Palopó	9	San Antonio Palopo	4	Abril	2023-04-30T00:00:00	2024-11-08T10:00:00	7	Dirección del viento	3.22
168331	7	Sololá	712	San Antonio Palopó	9	San Antonio Palopo	4	Abril	2023-04-30T00:00:00	2024-11-08T10:00:00	1	Precipitación	0
168332	7	Sololá	712	San Antonio Palopó	9	San Antonio Palopo	4	Abril	2023-04-30T00:00:00	2024-11-08T10:00:00	8	Radiación solar	707
168333	7	Sololá	712	San Antonio Palopó	9	San Antonio Palopo	4	Abril	2023-04-30T00:00:00	2024-11-08T11:00:00	2	Temperatura media	24.3
168334	7	Sololá	712	San Antonio Palopó	9	San Antonio Palopo	4	Abril	2023-04-30T00:00:00	2024-11-08T11:00:00	4	Temperatura máxima	24.4
168335	7	Sololá	712	San Antonio Palopó	9	San Antonio Palopo	4	Abril	2023-04-30T00:00:00	2024-11-08T11:00:00	3	Temperatura mínima	23.6
168336	7	Sololá	712	San Antonio Palopó	9	San Antonio Palopo	4	Abril	2023-04-30T00:00:00	2024-11-08T11:00:00	5	Humedad	72
168337	7	Sololá	712	San Antonio Palopó	9	San Antonio Palopo	4	Abril	2023-04-30T00:00:00	2024-11-08T11:00:00	6	Velocidad del viento	6.4
168338	7	Sololá	712	San Antonio Palopó	9	San Antonio Palopo	4	Abril	2023-04-30T00:00:00	2024-11-08T11:00:00	7	Dirección del viento	6.44
168339	7	Sololá	712	San Antonio Palopó	9	San Antonio Palopo	4	Abril	2023-04-30T00:00:00	2024-11-08T11:00:00	1	Precipitación	0
168340	7	Sololá	712	San Antonio Palopó	9	San Antonio Palopo	4	Abril	2023-04-30T00:00:00	2024-11-08T11:00:00	8	Radiación solar	768
168341	7	Sololá	712	San Antonio Palopó	9	San Antonio Palopo	4	Abril	2023-04-30T00:00:00	2024-11-08T12:00:00	2	Temperatura media	25.1
168342	7	Sololá	712	San Antonio Palopó	9	San Antonio Palopo	4	Abril	2023-04-30T00:00:00	2024-11-08T12:00:00	4	Temperatura máxima	25.1
168343	7	Sololá	712	San Antonio Palopó	9	San Antonio Palopo	4	Abril	2023-04-30T00:00:00	2024-11-08T12:00:00	3	Temperatura mínima	23.8
168344	7	Sololá	712	San Antonio Palopó	9	San Antonio Palopo	4	Abril	2023-04-30T00:00:00	2024-11-08T12:00:00	5	Humedad	70
168345	7	Sololá	712	San Antonio Palopó	9	San Antonio Palopo	4	Abril	2023-04-30T00:00:00	2024-11-08T12:00:00	6	Velocidad del viento	6.4
168346	7	Sololá	712	San Antonio Palopó	9	San Antonio Palopo	4	Abril	2023-04-30T00:00:00	2024-11-08T12:00:00	7	Dirección del viento	6.44
168347	7	Sololá	712	San Antonio Palopó	9	San Antonio Palopo	4	Abril	2023-04-30T00:00:00	2024-11-08T12:00:00	1	Precipitación	0
168348	7	Sololá	712	San Antonio Palopó	9	San Antonio Palopo	4	Abril	2023-04-30T00:00:00	2024-11-08T12:00:00	8	Radiación solar	912
168349	7	Sololá	712	San Antonio Palopó	9	San Antonio Palopo	4	Abril	2023-04-30T00:00:00	2024-11-08T13:00:00	2	Temperatura media	24.8
168350	7	Sololá	712	San Antonio Palopó	9	San Antonio Palopo	4	Abril	2023-04-30T00:00:00	2024-11-08T13:00:00	4	Temperatura máxima	25.2
168351	7	Sololá	712	San Antonio Palopó	9	San Antonio Palopo	4	Abril	2023-04-30T00:00:00	2024-11-08T13:00:00	3	Temperatura mínima	24.6
168352	7	Sololá	712	San Antonio Palopó	9	San Antonio Palopo	4	Abril	2023-04-30T00:00:00	2024-11-08T13:00:00	5	Humedad	71
168353	7	Sololá	712	San Antonio Palopó	9	San Antonio Palopo	4	Abril	2023-04-30T00:00:00	2024-11-08T13:00:00	6	Velocidad del viento	9.7
168354	7	Sololá	712	San Antonio Palopó	9	San Antonio Palopo	4	Abril	2023-04-30T00:00:00	2024-11-08T13:00:00	7	Dirección del viento	9.66
168355	7	Sololá	712	San Antonio Palopó	9	San Antonio Palopo	4	Abril	2023-04-30T00:00:00	2024-11-08T13:00:00	1	Precipitación	0
168356	7	Sololá	712	San Antonio Palopó	9	San Antonio Palopo	4	Abril	2023-04-30T00:00:00	2024-11-08T13:00:00	8	Radiación solar	948
168357	7	Sololá	712	San Antonio Palopó	9	San Antonio Palopo	4	Abril	2023-04-30T00:00:00	2024-11-08T14:00:00	2	Temperatura media	24.7
168358	7	Sololá	712	San Antonio Palopó	9	San Antonio Palopo	4	Abril	2023-04-30T00:00:00	2024-11-08T14:00:00	4	Temperatura máxima	24.8
168359	7	Sololá	712	San Antonio Palopó	9	San Antonio Palopo	4	Abril	2023-04-30T00:00:00	2024-11-08T14:00:00	3	Temperatura mínima	23.4
168360	7	Sololá	712	San Antonio Palopó	9	San Antonio Palopo	4	Abril	2023-04-30T00:00:00	2024-11-08T14:00:00	5	Humedad	72
168361	7	Sololá	712	San Antonio Palopó	9	San Antonio Palopo	4	Abril	2023-04-30T00:00:00	2024-11-08T14:00:00	6	Velocidad del viento	8
168362	7	Sololá	712	San Antonio Palopó	9	San Antonio Palopo	4	Abril	2023-04-30T00:00:00	2024-11-08T14:00:00	7	Dirección del viento	8.05
168363	7	Sololá	712	San Antonio Palopó	9	San Antonio Palopo	4	Abril	2023-04-30T00:00:00	2024-11-08T14:00:00	1	Precipitación	0
168364	7	Sololá	712	San Antonio Palopó	9	San Antonio Palopo	4	Abril	2023-04-30T00:00:00	2024-11-08T14:00:00	8	Radiación solar	714
168365	7	Sololá	712	San Antonio Palopó	9	San Antonio Palopo	4	Abril	2023-04-30T00:00:00	2024-11-08T15:00:00	2	Temperatura media	23.6
168366	7	Sololá	712	San Antonio Palopó	9	San Antonio Palopo	4	Abril	2023-04-30T00:00:00	2024-11-08T15:00:00	4	Temperatura máxima	24.7
168367	7	Sololá	712	San Antonio Palopó	9	San Antonio Palopo	4	Abril	2023-04-30T00:00:00	2024-11-08T15:00:00	3	Temperatura mínima	23.6
168368	7	Sololá	712	San Antonio Palopó	9	San Antonio Palopo	4	Abril	2023-04-30T00:00:00	2024-11-08T15:00:00	5	Humedad	77
168369	7	Sololá	712	San Antonio Palopó	9	San Antonio Palopo	4	Abril	2023-04-30T00:00:00	2024-11-08T15:00:00	6	Velocidad del viento	8
168370	7	Sololá	712	San Antonio Palopó	9	San Antonio Palopo	4	Abril	2023-04-30T00:00:00	2024-11-08T15:00:00	7	Dirección del viento	8.05
168371	7	Sololá	712	San Antonio Palopó	9	San Antonio Palopo	4	Abril	2023-04-30T00:00:00	2024-11-08T15:00:00	1	Precipitación	0
168372	7	Sololá	712	San Antonio Palopó	9	San Antonio Palopo	4	Abril	2023-04-30T00:00:00	2024-11-08T15:00:00	8	Radiación solar	459
168373	7	Sololá	712	San Antonio Palopó	9	San Antonio Palopo	4	Abril	2023-04-30T00:00:00	2024-11-08T16:00:00	2	Temperatura media	22.3
168374	7	Sololá	712	San Antonio Palopó	9	San Antonio Palopo	4	Abril	2023-04-30T00:00:00	2024-11-08T16:00:00	4	Temperatura máxima	23.6
168375	7	Sololá	712	San Antonio Palopó	9	San Antonio Palopo	4	Abril	2023-04-30T00:00:00	2024-11-08T16:00:00	3	Temperatura mínima	22.2
168376	7	Sololá	712	San Antonio Palopó	9	San Antonio Palopo	4	Abril	2023-04-30T00:00:00	2024-11-08T16:00:00	5	Humedad	81
168377	7	Sololá	712	San Antonio Palopó	9	San Antonio Palopo	4	Abril	2023-04-30T00:00:00	2024-11-08T16:00:00	6	Velocidad del viento	8
168378	7	Sololá	712	San Antonio Palopó	9	San Antonio Palopo	4	Abril	2023-04-30T00:00:00	2024-11-08T16:00:00	7	Dirección del viento	8.05
168379	7	Sololá	712	San Antonio Palopó	9	San Antonio Palopo	4	Abril	2023-04-30T00:00:00	2024-11-08T16:00:00	1	Precipitación	0
168380	7	Sololá	712	San Antonio Palopó	9	San Antonio Palopo	4	Abril	2023-04-30T00:00:00	2024-11-08T16:00:00	8	Radiación solar	341
168381	7	Sololá	712	San Antonio Palopó	9	San Antonio Palopo	4	Abril	2023-04-30T00:00:00	2024-11-08T17:00:00	2	Temperatura media	22.3
168382	7	Sololá	712	San Antonio Palopó	9	San Antonio Palopo	4	Abril	2023-04-30T00:00:00	2024-11-08T17:00:00	4	Temperatura máxima	23.1
168383	7	Sololá	712	San Antonio Palopó	9	San Antonio Palopo	4	Abril	2023-04-30T00:00:00	2024-11-08T17:00:00	3	Temperatura mínima	22.2
168384	7	Sololá	712	San Antonio Palopó	9	San Antonio Palopo	4	Abril	2023-04-30T00:00:00	2024-11-08T17:00:00	5	Humedad	82
168385	7	Sololá	712	San Antonio Palopó	9	San Antonio Palopo	4	Abril	2023-04-30T00:00:00	2024-11-08T17:00:00	6	Velocidad del viento	4.8
168386	7	Sololá	712	San Antonio Palopó	9	San Antonio Palopo	4	Abril	2023-04-30T00:00:00	2024-11-08T17:00:00	7	Dirección del viento	4.83
168387	7	Sololá	712	San Antonio Palopó	9	San Antonio Palopo	4	Abril	2023-04-30T00:00:00	2024-11-08T17:00:00	1	Precipitación	0
168388	7	Sololá	712	San Antonio Palopó	9	San Antonio Palopo	4	Abril	2023-04-30T00:00:00	2024-11-08T17:00:00	8	Radiación solar	175
168389	7	Sololá	712	San Antonio Palopó	9	San Antonio Palopo	4	Abril	2023-04-30T00:00:00	2024-11-08T18:00:00	2	Temperatura media	21.6
168390	7	Sololá	712	San Antonio Palopó	9	San Antonio Palopo	4	Abril	2023-04-30T00:00:00	2024-11-08T18:00:00	4	Temperatura máxima	22.4
168391	7	Sololá	712	San Antonio Palopó	9	San Antonio Palopo	4	Abril	2023-04-30T00:00:00	2024-11-08T18:00:00	3	Temperatura mínima	21.6
168392	7	Sololá	712	San Antonio Palopó	9	San Antonio Palopo	4	Abril	2023-04-30T00:00:00	2024-11-08T18:00:00	5	Humedad	83
168393	7	Sololá	712	San Antonio Palopó	9	San Antonio Palopo	4	Abril	2023-04-30T00:00:00	2024-11-08T18:00:00	6	Velocidad del viento	3.2
168394	7	Sololá	712	San Antonio Palopó	9	San Antonio Palopo	4	Abril	2023-04-30T00:00:00	2024-11-08T18:00:00	7	Dirección del viento	3.22
168395	7	Sololá	712	San Antonio Palopó	9	San Antonio Palopo	4	Abril	2023-04-30T00:00:00	2024-11-08T18:00:00	1	Precipitación	0
168396	7	Sololá	712	San Antonio Palopó	9	San Antonio Palopo	4	Abril	2023-04-30T00:00:00	2024-11-08T18:00:00	8	Radiación solar	66
168397	7	Sololá	712	San Antonio Palopó	9	San Antonio Palopo	4	Abril	2023-04-30T00:00:00	2024-11-08T19:00:00	2	Temperatura media	21.2
168398	7	Sololá	712	San Antonio Palopó	9	San Antonio Palopo	4	Abril	2023-04-30T00:00:00	2024-11-08T19:00:00	4	Temperatura máxima	21.6
168399	7	Sololá	712	San Antonio Palopó	9	San Antonio Palopo	4	Abril	2023-04-30T00:00:00	2024-11-08T19:00:00	3	Temperatura mínima	21.2
168400	7	Sololá	712	San Antonio Palopó	9	San Antonio Palopo	4	Abril	2023-04-30T00:00:00	2024-11-08T19:00:00	5	Humedad	82
168401	7	Sololá	712	San Antonio Palopó	9	San Antonio Palopo	4	Abril	2023-04-30T00:00:00	2024-11-08T19:00:00	6	Velocidad del viento	3.2
168402	7	Sololá	712	San Antonio Palopó	9	San Antonio Palopo	4	Abril	2023-04-30T00:00:00	2024-11-08T19:00:00	7	Dirección del viento	3.22
168403	7	Sololá	712	San Antonio Palopó	9	San Antonio Palopo	4	Abril	2023-04-30T00:00:00	2024-11-08T19:00:00	1	Precipitación	0
168404	7	Sololá	712	San Antonio Palopó	9	San Antonio Palopo	4	Abril	2023-04-30T00:00:00	2024-11-08T19:00:00	8	Radiación solar	0
168405	7	Sololá	712	San Antonio Palopó	9	San Antonio Palopo	4	Abril	2023-04-30T00:00:00	2024-11-08T20:00:00	2	Temperatura media	21.5
168406	7	Sololá	712	San Antonio Palopó	9	San Antonio Palopo	4	Abril	2023-04-30T00:00:00	2024-11-08T20:00:00	4	Temperatura máxima	21.7
168407	7	Sololá	712	San Antonio Palopó	9	San Antonio Palopo	4	Abril	2023-04-30T00:00:00	2024-11-08T20:00:00	3	Temperatura mínima	21.2
168408	7	Sololá	712	San Antonio Palopó	9	San Antonio Palopo	4	Abril	2023-04-30T00:00:00	2024-11-08T20:00:00	5	Humedad	68
168409	7	Sololá	712	San Antonio Palopó	9	San Antonio Palopo	4	Abril	2023-04-30T00:00:00	2024-11-08T20:00:00	6	Velocidad del viento	4.8
168410	7	Sololá	712	San Antonio Palopó	9	San Antonio Palopo	4	Abril	2023-04-30T00:00:00	2024-11-08T20:00:00	7	Dirección del viento	4.83
168411	7	Sololá	712	San Antonio Palopó	9	San Antonio Palopo	4	Abril	2023-04-30T00:00:00	2024-11-08T20:00:00	1	Precipitación	0
168412	7	Sololá	712	San Antonio Palopó	9	San Antonio Palopo	4	Abril	2023-04-30T00:00:00	2024-11-08T20:00:00	8	Radiación solar	0
168413	7	Sololá	712	San Antonio Palopó	9	San Antonio Palopo	4	Abril	2023-04-30T00:00:00	2024-11-08T21:00:00	2	Temperatura media	21.4
168414	7	Sololá	712	San Antonio Palopó	9	San Antonio Palopo	4	Abril	2023-04-30T00:00:00	2024-11-08T21:00:00	4	Temperatura máxima	21.5
168415	7	Sololá	712	San Antonio Palopó	9	San Antonio Palopo	4	Abril	2023-04-30T00:00:00	2024-11-08T21:00:00	3	Temperatura mínima	21.3
168416	7	Sololá	712	San Antonio Palopó	9	San Antonio Palopo	4	Abril	2023-04-30T00:00:00	2024-11-08T21:00:00	5	Humedad	67
168417	7	Sololá	712	San Antonio Palopó	9	San Antonio Palopo	4	Abril	2023-04-30T00:00:00	2024-11-08T21:00:00	6	Velocidad del viento	8
168418	7	Sololá	712	San Antonio Palopó	9	San Antonio Palopo	4	Abril	2023-04-30T00:00:00	2024-11-08T21:00:00	7	Dirección del viento	8.05
168419	7	Sololá	712	San Antonio Palopó	9	San Antonio Palopo	4	Abril	2023-04-30T00:00:00	2024-11-08T21:00:00	1	Precipitación	0
168420	7	Sololá	712	San Antonio Palopó	9	San Antonio Palopo	4	Abril	2023-04-30T00:00:00	2024-11-08T21:00:00	8	Radiación solar	0
168421	7	Sololá	712	San Antonio Palopó	9	San Antonio Palopo	4	Abril	2023-04-30T00:00:00	2024-11-08T22:00:00	2	Temperatura media	20.9
168422	7	Sololá	712	San Antonio Palopó	9	San Antonio Palopo	4	Abril	2023-04-30T00:00:00	2024-11-08T22:00:00	4	Temperatura máxima	21.4
168423	7	Sololá	712	San Antonio Palopó	9	San Antonio Palopo	4	Abril	2023-04-30T00:00:00	2024-11-08T22:00:00	3	Temperatura mínima	20.8
168424	7	Sololá	712	San Antonio Palopó	9	San Antonio Palopo	4	Abril	2023-04-30T00:00:00	2024-11-08T22:00:00	5	Humedad	66
168425	7	Sololá	712	San Antonio Palopó	9	San Antonio Palopo	4	Abril	2023-04-30T00:00:00	2024-11-08T22:00:00	6	Velocidad del viento	11.3
168426	7	Sololá	712	San Antonio Palopó	9	San Antonio Palopo	4	Abril	2023-04-30T00:00:00	2024-11-08T22:00:00	7	Dirección del viento	11.27
168427	7	Sololá	712	San Antonio Palopó	9	San Antonio Palopo	4	Abril	2023-04-30T00:00:00	2024-11-08T22:00:00	1	Precipitación	0
168428	7	Sololá	712	San Antonio Palopó	9	San Antonio Palopo	4	Abril	2023-04-30T00:00:00	2024-11-08T22:00:00	8	Radiación solar	0
168429	7	Sololá	712	San Antonio Palopó	9	San Antonio Palopo	4	Abril	2023-04-30T00:00:00	2024-11-08T23:00:00	2	Temperatura media	20.5
168430	7	Sololá	712	San Antonio Palopó	9	San Antonio Palopo	4	Abril	2023-04-30T00:00:00	2024-11-08T23:00:00	4	Temperatura máxima	20.9
168431	7	Sololá	712	San Antonio Palopó	9	San Antonio Palopo	4	Abril	2023-04-30T00:00:00	2024-11-08T23:00:00	3	Temperatura mínima	20.4
168432	7	Sololá	712	San Antonio Palopó	9	San Antonio Palopo	4	Abril	2023-04-30T00:00:00	2024-11-08T23:00:00	5	Humedad	67
168433	7	Sololá	712	San Antonio Palopó	9	San Antonio Palopo	4	Abril	2023-04-30T00:00:00	2024-11-08T23:00:00	6	Velocidad del viento	16.1
168434	7	Sololá	712	San Antonio Palopó	9	San Antonio Palopo	4	Abril	2023-04-30T00:00:00	2024-11-08T23:00:00	7	Dirección del viento	16.09
168435	7	Sololá	712	San Antonio Palopó	9	San Antonio Palopo	4	Abril	2023-04-30T00:00:00	2024-11-08T23:00:00	1	Precipitación	0
168436	7	Sololá	712	San Antonio Palopó	9	San Antonio Palopo	4	Abril	2023-04-30T00:00:00	2024-11-08T23:00:00	8	Radiación solar	0
168437	7	Sololá	712	San Antonio Palopó	9	San Antonio Palopo	5	Mayo	2023-01-05T00:00:00	2024-11-08T00:00:00	2	Temperatura media	19.3
168438	7	Sololá	712	San Antonio Palopó	9	San Antonio Palopo	5	Mayo	2023-01-05T00:00:00	2024-11-08T00:00:00	4	Temperatura máxima	20.5
168439	7	Sololá	712	San Antonio Palopó	9	San Antonio Palopo	5	Mayo	2023-01-05T00:00:00	2024-11-08T00:00:00	3	Temperatura mínima	19.3
168440	7	Sololá	712	San Antonio Palopó	9	San Antonio Palopo	5	Mayo	2023-01-05T00:00:00	2024-11-08T00:00:00	5	Humedad	72
168441	7	Sololá	712	San Antonio Palopó	9	San Antonio Palopo	5	Mayo	2023-01-05T00:00:00	2024-11-08T00:00:00	6	Velocidad del viento	19.3
168442	7	Sololá	712	San Antonio Palopó	9	San Antonio Palopo	5	Mayo	2023-01-05T00:00:00	2024-11-08T00:00:00	7	Dirección del viento	19.31
168443	7	Sololá	712	San Antonio Palopó	9	San Antonio Palopo	5	Mayo	2023-01-05T00:00:00	2024-11-08T00:00:00	1	Precipitación	0
168444	7	Sololá	712	San Antonio Palopó	9	San Antonio Palopo	5	Mayo	2023-01-05T00:00:00	2024-11-08T00:00:00	8	Radiación solar	0
168445	7	Sololá	712	San Antonio Palopó	9	San Antonio Palopo	5	Mayo	2023-01-05T00:00:00	2024-11-08T01:00:00	2	Temperatura media	19.2
168446	7	Sololá	712	San Antonio Palopó	9	San Antonio Palopo	5	Mayo	2023-01-05T00:00:00	2024-11-08T01:00:00	4	Temperatura máxima	19.5
168447	7	Sololá	712	San Antonio Palopó	9	San Antonio Palopo	5	Mayo	2023-01-05T00:00:00	2024-11-08T01:00:00	3	Temperatura mínima	19.2
168448	7	Sololá	712	San Antonio Palopó	9	San Antonio Palopo	5	Mayo	2023-01-05T00:00:00	2024-11-08T01:00:00	5	Humedad	72
168449	7	Sololá	712	San Antonio Palopó	9	San Antonio Palopo	5	Mayo	2023-01-05T00:00:00	2024-11-08T01:00:00	6	Velocidad del viento	17.7
168450	7	Sololá	712	San Antonio Palopó	9	San Antonio Palopo	5	Mayo	2023-01-05T00:00:00	2024-11-08T01:00:00	7	Dirección del viento	17.7
168451	7	Sololá	712	San Antonio Palopó	9	San Antonio Palopo	5	Mayo	2023-01-05T00:00:00	2024-11-08T01:00:00	1	Precipitación	0
168452	7	Sololá	712	San Antonio Palopó	9	San Antonio Palopo	5	Mayo	2023-01-05T00:00:00	2024-11-08T01:00:00	8	Radiación solar	0
168453	7	Sololá	712	San Antonio Palopó	9	San Antonio Palopo	5	Mayo	2023-01-05T00:00:00	2024-11-08T02:00:00	2	Temperatura media	18.7
168454	7	Sololá	712	San Antonio Palopó	9	San Antonio Palopo	5	Mayo	2023-01-05T00:00:00	2024-11-08T02:00:00	4	Temperatura máxima	19.3
168455	7	Sololá	712	San Antonio Palopó	9	San Antonio Palopo	5	Mayo	2023-01-05T00:00:00	2024-11-08T02:00:00	3	Temperatura mínima	18.7
168456	7	Sololá	712	San Antonio Palopó	9	San Antonio Palopo	5	Mayo	2023-01-05T00:00:00	2024-11-08T02:00:00	5	Humedad	73
168457	7	Sololá	712	San Antonio Palopó	9	San Antonio Palopo	5	Mayo	2023-01-05T00:00:00	2024-11-08T02:00:00	6	Velocidad del viento	17.7
168458	7	Sololá	712	San Antonio Palopó	9	San Antonio Palopo	5	Mayo	2023-01-05T00:00:00	2024-11-08T02:00:00	7	Dirección del viento	17.7
168459	7	Sololá	712	San Antonio Palopó	9	San Antonio Palopo	5	Mayo	2023-01-05T00:00:00	2024-11-08T02:00:00	1	Precipitación	0
168460	7	Sololá	712	San Antonio Palopó	9	San Antonio Palopo	5	Mayo	2023-01-05T00:00:00	2024-11-08T02:00:00	8	Radiación solar	0
168461	7	Sololá	712	San Antonio Palopó	9	San Antonio Palopo	5	Mayo	2023-01-05T00:00:00	2024-11-08T03:00:00	2	Temperatura media	18.6
168462	7	Sololá	712	San Antonio Palopó	9	San Antonio Palopo	5	Mayo	2023-01-05T00:00:00	2024-11-08T03:00:00	4	Temperatura máxima	18.8
168463	7	Sololá	712	San Antonio Palopó	9	San Antonio Palopo	5	Mayo	2023-01-05T00:00:00	2024-11-08T03:00:00	3	Temperatura mínima	18.6
168464	7	Sololá	712	San Antonio Palopó	9	San Antonio Palopo	5	Mayo	2023-01-05T00:00:00	2024-11-08T03:00:00	5	Humedad	73
168465	7	Sololá	712	San Antonio Palopó	9	San Antonio Palopo	5	Mayo	2023-01-05T00:00:00	2024-11-08T03:00:00	6	Velocidad del viento	12.9
168466	7	Sololá	712	San Antonio Palopó	9	San Antonio Palopo	5	Mayo	2023-01-05T00:00:00	2024-11-08T03:00:00	7	Dirección del viento	12.87
168467	7	Sololá	712	San Antonio Palopó	9	San Antonio Palopo	5	Mayo	2023-01-05T00:00:00	2024-11-08T03:00:00	1	Precipitación	0
168468	7	Sololá	712	San Antonio Palopó	9	San Antonio Palopo	5	Mayo	2023-01-05T00:00:00	2024-11-08T03:00:00	8	Radiación solar	0
168469	7	Sololá	712	San Antonio Palopó	9	San Antonio Palopo	5	Mayo	2023-01-05T00:00:00	2024-11-08T04:00:00	2	Temperatura media	18.2
168470	7	Sololá	712	San Antonio Palopó	9	San Antonio Palopo	5	Mayo	2023-01-05T00:00:00	2024-11-08T04:00:00	4	Temperatura máxima	18.6
168471	7	Sololá	712	San Antonio Palopó	9	San Antonio Palopo	5	Mayo	2023-01-05T00:00:00	2024-11-08T04:00:00	3	Temperatura mínima	18.2
168472	7	Sololá	712	San Antonio Palopó	9	San Antonio Palopo	5	Mayo	2023-01-05T00:00:00	2024-11-08T04:00:00	5	Humedad	74
168473	7	Sololá	712	San Antonio Palopó	9	San Antonio Palopo	5	Mayo	2023-01-05T00:00:00	2024-11-08T04:00:00	6	Velocidad del viento	11.3
168474	7	Sololá	712	San Antonio Palopó	9	San Antonio Palopo	5	Mayo	2023-01-05T00:00:00	2024-11-08T04:00:00	7	Dirección del viento	11.27
168475	7	Sololá	712	San Antonio Palopó	9	San Antonio Palopo	5	Mayo	2023-01-05T00:00:00	2024-11-08T04:00:00	1	Precipitación	0
168476	7	Sololá	712	San Antonio Palopó	9	San Antonio Palopo	5	Mayo	2023-01-05T00:00:00	2024-11-08T04:00:00	8	Radiación solar	0
168477	7	Sololá	712	San Antonio Palopó	9	San Antonio Palopo	5	Mayo	2023-01-05T00:00:00	2024-11-08T05:00:00	2	Temperatura media	18.1
168478	7	Sololá	712	San Antonio Palopó	9	San Antonio Palopo	5	Mayo	2023-01-05T00:00:00	2024-11-08T05:00:00	4	Temperatura máxima	18.2
168479	7	Sololá	712	San Antonio Palopó	9	San Antonio Palopo	5	Mayo	2023-01-05T00:00:00	2024-11-08T05:00:00	3	Temperatura mínima	17.8
168480	7	Sololá	712	San Antonio Palopó	9	San Antonio Palopo	5	Mayo	2023-01-05T00:00:00	2024-11-08T05:00:00	5	Humedad	72
168481	7	Sololá	712	San Antonio Palopó	9	San Antonio Palopo	5	Mayo	2023-01-05T00:00:00	2024-11-08T05:00:00	6	Velocidad del viento	6.4
168482	7	Sololá	712	San Antonio Palopó	9	San Antonio Palopo	5	Mayo	2023-01-05T00:00:00	2024-11-08T05:00:00	7	Dirección del viento	6.44
168483	7	Sololá	712	San Antonio Palopó	9	San Antonio Palopo	5	Mayo	2023-01-05T00:00:00	2024-11-08T05:00:00	1	Precipitación	0
168484	7	Sololá	712	San Antonio Palopó	9	San Antonio Palopo	5	Mayo	2023-01-05T00:00:00	2024-11-08T05:00:00	8	Radiación solar	0
168485	7	Sololá	712	San Antonio Palopó	9	San Antonio Palopo	5	Mayo	2023-01-05T00:00:00	2024-11-08T06:00:00	2	Temperatura media	18.2
168486	7	Sololá	712	San Antonio Palopó	9	San Antonio Palopo	5	Mayo	2023-01-05T00:00:00	2024-11-08T06:00:00	4	Temperatura máxima	18.3
168487	7	Sololá	712	San Antonio Palopó	9	San Antonio Palopo	5	Mayo	2023-01-05T00:00:00	2024-11-08T06:00:00	3	Temperatura mínima	18.1
168488	7	Sololá	712	San Antonio Palopó	9	San Antonio Palopo	5	Mayo	2023-01-05T00:00:00	2024-11-08T06:00:00	5	Humedad	72
168489	7	Sololá	712	San Antonio Palopó	9	San Antonio Palopo	5	Mayo	2023-01-05T00:00:00	2024-11-08T06:00:00	6	Velocidad del viento	4.8
168490	7	Sololá	712	San Antonio Palopó	9	San Antonio Palopo	5	Mayo	2023-01-05T00:00:00	2024-11-08T06:00:00	7	Dirección del viento	4.83
168491	7	Sololá	712	San Antonio Palopó	9	San Antonio Palopo	5	Mayo	2023-01-05T00:00:00	2024-11-08T06:00:00	1	Precipitación	0
168492	7	Sololá	712	San Antonio Palopó	9	San Antonio Palopo	5	Mayo	2023-01-05T00:00:00	2024-11-08T06:00:00	8	Radiación solar	1
168493	7	Sololá	712	San Antonio Palopó	9	San Antonio Palopo	5	Mayo	2023-01-05T00:00:00	2024-11-08T07:00:00	2	Temperatura media	18.8
168494	7	Sololá	712	San Antonio Palopó	9	San Antonio Palopo	5	Mayo	2023-01-05T00:00:00	2024-11-08T07:00:00	4	Temperatura máxima	18.9
168495	7	Sololá	712	San Antonio Palopó	9	San Antonio Palopo	5	Mayo	2023-01-05T00:00:00	2024-11-08T07:00:00	3	Temperatura mínima	18.3
168496	7	Sololá	712	San Antonio Palopó	9	San Antonio Palopo	5	Mayo	2023-01-05T00:00:00	2024-11-08T07:00:00	5	Humedad	70
168497	7	Sololá	712	San Antonio Palopó	9	San Antonio Palopo	5	Mayo	2023-01-05T00:00:00	2024-11-08T07:00:00	6	Velocidad del viento	3.2
168498	7	Sololá	712	San Antonio Palopó	9	San Antonio Palopo	5	Mayo	2023-01-05T00:00:00	2024-11-08T07:00:00	7	Dirección del viento	3.22
168499	7	Sololá	712	San Antonio Palopó	9	San Antonio Palopo	5	Mayo	2023-01-05T00:00:00	2024-11-08T07:00:00	1	Precipitación	0
168500	7	Sololá	712	San Antonio Palopó	9	San Antonio Palopo	5	Mayo	2023-01-05T00:00:00	2024-11-08T07:00:00	8	Radiación solar	37
168501	7	Sololá	712	San Antonio Palopó	9	San Antonio Palopo	5	Mayo	2023-01-05T00:00:00	2024-11-08T08:00:00	2	Temperatura media	20.3
168502	7	Sololá	712	San Antonio Palopó	9	San Antonio Palopo	5	Mayo	2023-01-05T00:00:00	2024-11-08T08:00:00	4	Temperatura máxima	20.3
168503	7	Sololá	712	San Antonio Palopó	9	San Antonio Palopo	5	Mayo	2023-01-05T00:00:00	2024-11-08T08:00:00	3	Temperatura mínima	18.3
168504	7	Sololá	712	San Antonio Palopó	9	San Antonio Palopo	5	Mayo	2023-01-05T00:00:00	2024-11-08T08:00:00	5	Humedad	71
168505	7	Sololá	712	San Antonio Palopó	9	San Antonio Palopo	5	Mayo	2023-01-05T00:00:00	2024-11-08T08:00:00	6	Velocidad del viento	1.6
168506	7	Sololá	712	San Antonio Palopó	9	San Antonio Palopo	5	Mayo	2023-01-05T00:00:00	2024-11-08T08:00:00	7	Dirección del viento	1.61
168507	7	Sololá	712	San Antonio Palopó	9	San Antonio Palopo	5	Mayo	2023-01-05T00:00:00	2024-11-08T08:00:00	1	Precipitación	0
168508	7	Sololá	712	San Antonio Palopó	9	San Antonio Palopo	5	Mayo	2023-01-05T00:00:00	2024-11-08T08:00:00	8	Radiación solar	184
168509	7	Sololá	712	San Antonio Palopó	9	San Antonio Palopo	5	Mayo	2023-01-05T00:00:00	2024-11-08T09:00:00	2	Temperatura media	21.2
168510	7	Sololá	712	San Antonio Palopó	9	San Antonio Palopo	5	Mayo	2023-01-05T00:00:00	2024-11-08T09:00:00	4	Temperatura máxima	21.2
168511	7	Sololá	712	San Antonio Palopó	9	San Antonio Palopo	5	Mayo	2023-01-05T00:00:00	2024-11-08T09:00:00	3	Temperatura mínima	20.3
168512	7	Sololá	712	San Antonio Palopó	9	San Antonio Palopo	5	Mayo	2023-01-05T00:00:00	2024-11-08T09:00:00	5	Humedad	67
168513	7	Sololá	712	San Antonio Palopó	9	San Antonio Palopo	5	Mayo	2023-01-05T00:00:00	2024-11-08T09:00:00	6	Velocidad del viento	1.6
168514	7	Sololá	712	San Antonio Palopó	9	San Antonio Palopo	5	Mayo	2023-01-05T00:00:00	2024-11-08T09:00:00	7	Dirección del viento	1.61
168515	7	Sololá	712	San Antonio Palopó	9	San Antonio Palopo	5	Mayo	2023-01-05T00:00:00	2024-11-08T09:00:00	1	Precipitación	0
168516	7	Sololá	712	San Antonio Palopó	9	San Antonio Palopo	5	Mayo	2023-01-05T00:00:00	2024-11-08T09:00:00	8	Radiación solar	491
168517	7	Sololá	712	San Antonio Palopó	9	San Antonio Palopo	5	Mayo	2023-01-05T00:00:00	2024-11-08T10:00:00	2	Temperatura media	22.1
168518	7	Sololá	712	San Antonio Palopó	9	San Antonio Palopo	5	Mayo	2023-01-05T00:00:00	2024-11-08T10:00:00	4	Temperatura máxima	22.1
168519	7	Sololá	712	San Antonio Palopó	9	San Antonio Palopo	5	Mayo	2023-01-05T00:00:00	2024-11-08T10:00:00	3	Temperatura mínima	21.1
168520	7	Sololá	712	San Antonio Palopó	9	San Antonio Palopo	5	Mayo	2023-01-05T00:00:00	2024-11-08T10:00:00	5	Humedad	66
168521	7	Sololá	712	San Antonio Palopó	9	San Antonio Palopo	5	Mayo	2023-01-05T00:00:00	2024-11-08T10:00:00	6	Velocidad del viento	3.2
168522	7	Sololá	712	San Antonio Palopó	9	San Antonio Palopo	5	Mayo	2023-01-05T00:00:00	2024-11-08T10:00:00	7	Dirección del viento	3.22
168523	7	Sololá	712	San Antonio Palopó	9	San Antonio Palopo	5	Mayo	2023-01-05T00:00:00	2024-11-08T10:00:00	1	Precipitación	0
168524	7	Sololá	712	San Antonio Palopó	9	San Antonio Palopo	5	Mayo	2023-01-05T00:00:00	2024-11-08T10:00:00	8	Radiación solar	632
168525	7	Sololá	712	San Antonio Palopó	9	San Antonio Palopo	5	Mayo	2023-01-05T00:00:00	2024-11-08T11:00:00	2	Temperatura media	23.3
168526	7	Sololá	712	San Antonio Palopó	9	San Antonio Palopo	5	Mayo	2023-01-05T00:00:00	2024-11-08T11:00:00	4	Temperatura máxima	23.5
168527	7	Sololá	712	San Antonio Palopó	9	San Antonio Palopo	5	Mayo	2023-01-05T00:00:00	2024-11-08T11:00:00	3	Temperatura mínima	22.1
168528	7	Sololá	712	San Antonio Palopó	9	San Antonio Palopo	5	Mayo	2023-01-05T00:00:00	2024-11-08T11:00:00	5	Humedad	64
168529	7	Sololá	712	San Antonio Palopó	9	San Antonio Palopo	5	Mayo	2023-01-05T00:00:00	2024-11-08T11:00:00	6	Velocidad del viento	3.2
168530	7	Sololá	712	San Antonio Palopó	9	San Antonio Palopo	5	Mayo	2023-01-05T00:00:00	2024-11-08T11:00:00	7	Dirección del viento	3.22
168531	7	Sololá	712	San Antonio Palopó	9	San Antonio Palopo	5	Mayo	2023-01-05T00:00:00	2024-11-08T11:00:00	1	Precipitación	0
168532	7	Sololá	712	San Antonio Palopó	9	San Antonio Palopo	5	Mayo	2023-01-05T00:00:00	2024-11-08T11:00:00	8	Radiación solar	826
168533	7	Sololá	712	San Antonio Palopó	9	San Antonio Palopo	5	Mayo	2023-01-05T00:00:00	2024-11-08T12:00:00	2	Temperatura media	25.1
168534	7	Sololá	712	San Antonio Palopó	9	San Antonio Palopo	5	Mayo	2023-01-05T00:00:00	2024-11-08T12:00:00	4	Temperatura máxima	25.1
168535	7	Sololá	712	San Antonio Palopó	9	San Antonio Palopo	5	Mayo	2023-01-05T00:00:00	2024-11-08T12:00:00	3	Temperatura mínima	23.3
168536	7	Sololá	712	San Antonio Palopó	9	San Antonio Palopo	5	Mayo	2023-01-05T00:00:00	2024-11-08T12:00:00	5	Humedad	64
168537	7	Sololá	712	San Antonio Palopó	9	San Antonio Palopo	5	Mayo	2023-01-05T00:00:00	2024-11-08T12:00:00	6	Velocidad del viento	4.8
168538	7	Sololá	712	San Antonio Palopó	9	San Antonio Palopo	5	Mayo	2023-01-05T00:00:00	2024-11-08T12:00:00	7	Dirección del viento	4.83
168539	7	Sololá	712	San Antonio Palopó	9	San Antonio Palopo	5	Mayo	2023-01-05T00:00:00	2024-11-08T12:00:00	1	Precipitación	0
168540	7	Sololá	712	San Antonio Palopó	9	San Antonio Palopo	5	Mayo	2023-01-05T00:00:00	2024-11-08T12:00:00	8	Radiación solar	889
168541	7	Sololá	712	San Antonio Palopó	9	San Antonio Palopo	5	Mayo	2023-01-05T00:00:00	2024-11-08T13:00:00	2	Temperatura media	25.1
168542	7	Sololá	712	San Antonio Palopó	9	San Antonio Palopo	5	Mayo	2023-01-05T00:00:00	2024-11-08T13:00:00	4	Temperatura máxima	25.7
168543	7	Sololá	712	San Antonio Palopó	9	San Antonio Palopo	5	Mayo	2023-01-05T00:00:00	2024-11-08T13:00:00	3	Temperatura mínima	25.1
168544	7	Sololá	712	San Antonio Palopó	9	San Antonio Palopo	5	Mayo	2023-01-05T00:00:00	2024-11-08T13:00:00	5	Humedad	62
168545	7	Sololá	712	San Antonio Palopó	9	San Antonio Palopo	5	Mayo	2023-01-05T00:00:00	2024-11-08T13:00:00	6	Velocidad del viento	8
168546	7	Sololá	712	San Antonio Palopó	9	San Antonio Palopo	5	Mayo	2023-01-05T00:00:00	2024-11-08T13:00:00	7	Dirección del viento	8.05
168547	7	Sololá	712	San Antonio Palopó	9	San Antonio Palopo	5	Mayo	2023-01-05T00:00:00	2024-11-08T13:00:00	1	Precipitación	0
168548	7	Sololá	712	San Antonio Palopó	9	San Antonio Palopo	5	Mayo	2023-01-05T00:00:00	2024-11-08T13:00:00	8	Radiación solar	883
168549	7	Sololá	712	San Antonio Palopó	9	San Antonio Palopo	5	Mayo	2023-01-05T00:00:00	2024-11-08T14:00:00	2	Temperatura media	24.2
168550	7	Sololá	712	San Antonio Palopó	9	San Antonio Palopo	5	Mayo	2023-01-05T00:00:00	2024-11-08T14:00:00	4	Temperatura máxima	25.2
168551	7	Sololá	712	San Antonio Palopó	9	San Antonio Palopo	5	Mayo	2023-01-05T00:00:00	2024-11-08T14:00:00	3	Temperatura mínima	24.2
168552	7	Sololá	712	San Antonio Palopó	9	San Antonio Palopo	5	Mayo	2023-01-05T00:00:00	2024-11-08T14:00:00	5	Humedad	68
168553	7	Sololá	712	San Antonio Palopó	9	San Antonio Palopo	5	Mayo	2023-01-05T00:00:00	2024-11-08T14:00:00	6	Velocidad del viento	11.3
168554	7	Sololá	712	San Antonio Palopó	9	San Antonio Palopo	5	Mayo	2023-01-05T00:00:00	2024-11-08T14:00:00	7	Dirección del viento	11.27
168555	7	Sololá	712	San Antonio Palopó	9	San Antonio Palopo	5	Mayo	2023-01-05T00:00:00	2024-11-08T14:00:00	1	Precipitación	0
168556	7	Sololá	712	San Antonio Palopó	9	San Antonio Palopo	5	Mayo	2023-01-05T00:00:00	2024-11-08T14:00:00	8	Radiación solar	799
168557	7	Sololá	712	San Antonio Palopó	9	San Antonio Palopo	5	Mayo	2023-01-05T00:00:00	2024-11-08T15:00:00	2	Temperatura media	22.9
168558	7	Sololá	712	San Antonio Palopó	9	San Antonio Palopo	5	Mayo	2023-01-05T00:00:00	2024-11-08T15:00:00	4	Temperatura máxima	24.6
168559	7	Sololá	712	San Antonio Palopó	9	San Antonio Palopo	5	Mayo	2023-01-05T00:00:00	2024-11-08T15:00:00	3	Temperatura mínima	22.9
168560	7	Sololá	712	San Antonio Palopó	9	San Antonio Palopo	5	Mayo	2023-01-05T00:00:00	2024-11-08T15:00:00	5	Humedad	74
168561	7	Sololá	712	San Antonio Palopó	9	San Antonio Palopo	5	Mayo	2023-01-05T00:00:00	2024-11-08T15:00:00	6	Velocidad del viento	14.5
168562	7	Sololá	712	San Antonio Palopó	9	San Antonio Palopo	5	Mayo	2023-01-05T00:00:00	2024-11-08T15:00:00	7	Dirección del viento	14.48
168563	7	Sololá	712	San Antonio Palopó	9	San Antonio Palopo	5	Mayo	2023-01-05T00:00:00	2024-11-08T15:00:00	1	Precipitación	0
168564	7	Sololá	712	San Antonio Palopó	9	San Antonio Palopo	5	Mayo	2023-01-05T00:00:00	2024-11-08T15:00:00	8	Radiación solar	592
168565	7	Sololá	712	San Antonio Palopó	9	San Antonio Palopo	5	Mayo	2023-01-05T00:00:00	2024-11-08T16:00:00	2	Temperatura media	22.6
168566	7	Sololá	712	San Antonio Palopó	9	San Antonio Palopo	5	Mayo	2023-01-05T00:00:00	2024-11-08T16:00:00	4	Temperatura máxima	23.1
168567	7	Sololá	712	San Antonio Palopó	9	San Antonio Palopo	5	Mayo	2023-01-05T00:00:00	2024-11-08T16:00:00	3	Temperatura mínima	22.3
168568	7	Sololá	712	San Antonio Palopó	9	San Antonio Palopo	5	Mayo	2023-01-05T00:00:00	2024-11-08T16:00:00	5	Humedad	77
168569	7	Sololá	712	San Antonio Palopó	9	San Antonio Palopo	5	Mayo	2023-01-05T00:00:00	2024-11-08T16:00:00	6	Velocidad del viento	11.3
168570	7	Sololá	712	San Antonio Palopó	9	San Antonio Palopo	5	Mayo	2023-01-05T00:00:00	2024-11-08T16:00:00	7	Dirección del viento	11.27
168571	7	Sololá	712	San Antonio Palopó	9	San Antonio Palopo	5	Mayo	2023-01-05T00:00:00	2024-11-08T16:00:00	1	Precipitación	0
168572	7	Sololá	712	San Antonio Palopó	9	San Antonio Palopo	5	Mayo	2023-01-05T00:00:00	2024-11-08T16:00:00	8	Radiación solar	224
168573	7	Sololá	712	San Antonio Palopó	9	San Antonio Palopo	5	Mayo	2023-01-05T00:00:00	2024-11-08T17:00:00	2	Temperatura media	21.4
168574	7	Sololá	712	San Antonio Palopó	9	San Antonio Palopo	5	Mayo	2023-01-05T00:00:00	2024-11-08T17:00:00	4	Temperatura máxima	23
168575	7	Sololá	712	San Antonio Palopó	9	San Antonio Palopo	5	Mayo	2023-01-05T00:00:00	2024-11-08T17:00:00	3	Temperatura mínima	21.4
168576	7	Sololá	712	San Antonio Palopó	9	San Antonio Palopo	5	Mayo	2023-01-05T00:00:00	2024-11-08T17:00:00	5	Humedad	82
168577	7	Sololá	712	San Antonio Palopó	9	San Antonio Palopo	5	Mayo	2023-01-05T00:00:00	2024-11-08T17:00:00	6	Velocidad del viento	8
168578	7	Sololá	712	San Antonio Palopó	9	San Antonio Palopo	5	Mayo	2023-01-05T00:00:00	2024-11-08T17:00:00	7	Dirección del viento	8.05
168579	7	Sololá	712	San Antonio Palopó	9	San Antonio Palopo	5	Mayo	2023-01-05T00:00:00	2024-11-08T17:00:00	1	Precipitación	0
168580	7	Sololá	712	San Antonio Palopó	9	San Antonio Palopo	5	Mayo	2023-01-05T00:00:00	2024-11-08T17:00:00	8	Radiación solar	136
168581	7	Sololá	712	San Antonio Palopó	9	San Antonio Palopo	5	Mayo	2023-01-05T00:00:00	2024-11-08T18:00:00	2	Temperatura media	20.9
168582	7	Sololá	712	San Antonio Palopó	9	San Antonio Palopo	5	Mayo	2023-01-05T00:00:00	2024-11-08T18:00:00	4	Temperatura máxima	21.4
168583	7	Sololá	712	San Antonio Palopó	9	San Antonio Palopo	5	Mayo	2023-01-05T00:00:00	2024-11-08T18:00:00	3	Temperatura mínima	20.9
168584	7	Sololá	712	San Antonio Palopó	9	San Antonio Palopo	5	Mayo	2023-01-05T00:00:00	2024-11-08T18:00:00	5	Humedad	82
168585	7	Sololá	712	San Antonio Palopó	9	San Antonio Palopo	5	Mayo	2023-01-05T00:00:00	2024-11-08T18:00:00	6	Velocidad del viento	6.4
168586	7	Sololá	712	San Antonio Palopó	9	San Antonio Palopo	5	Mayo	2023-01-05T00:00:00	2024-11-08T18:00:00	7	Dirección del viento	6.44
168587	7	Sololá	712	San Antonio Palopó	9	San Antonio Palopo	5	Mayo	2023-01-05T00:00:00	2024-11-08T18:00:00	1	Precipitación	0
168588	7	Sololá	712	San Antonio Palopó	9	San Antonio Palopo	5	Mayo	2023-01-05T00:00:00	2024-11-08T18:00:00	8	Radiación solar	21
168589	7	Sololá	712	San Antonio Palopó	9	San Antonio Palopo	5	Mayo	2023-01-05T00:00:00	2024-11-08T19:00:00	2	Temperatura media	21.1
168590	7	Sololá	712	San Antonio Palopó	9	San Antonio Palopo	5	Mayo	2023-01-05T00:00:00	2024-11-08T19:00:00	4	Temperatura máxima	21.2
168591	7	Sololá	712	San Antonio Palopó	9	San Antonio Palopo	5	Mayo	2023-01-05T00:00:00	2024-11-08T19:00:00	3	Temperatura mínima	20.8
168592	7	Sololá	712	San Antonio Palopó	9	San Antonio Palopo	5	Mayo	2023-01-05T00:00:00	2024-11-08T19:00:00	5	Humedad	80
168593	7	Sololá	712	San Antonio Palopó	9	San Antonio Palopo	5	Mayo	2023-01-05T00:00:00	2024-11-08T19:00:00	6	Velocidad del viento	3.2
168594	7	Sololá	712	San Antonio Palopó	9	San Antonio Palopo	5	Mayo	2023-01-05T00:00:00	2024-11-08T19:00:00	7	Dirección del viento	3.22
168595	7	Sololá	712	San Antonio Palopó	9	San Antonio Palopo	5	Mayo	2023-01-05T00:00:00	2024-11-08T19:00:00	1	Precipitación	0
168596	7	Sololá	712	San Antonio Palopó	9	San Antonio Palopo	5	Mayo	2023-01-05T00:00:00	2024-11-08T19:00:00	8	Radiación solar	0
168597	7	Sololá	712	San Antonio Palopó	9	San Antonio Palopo	5	Mayo	2023-01-05T00:00:00	2024-11-08T20:00:00	2	Temperatura media	20.7
168598	7	Sololá	712	San Antonio Palopó	9	San Antonio Palopo	5	Mayo	2023-01-05T00:00:00	2024-11-08T20:00:00	4	Temperatura máxima	21.2
168599	7	Sololá	712	San Antonio Palopó	9	San Antonio Palopo	5	Mayo	2023-01-05T00:00:00	2024-11-08T20:00:00	3	Temperatura mínima	20.6
168600	7	Sololá	712	San Antonio Palopó	9	San Antonio Palopo	5	Mayo	2023-01-05T00:00:00	2024-11-08T20:00:00	5	Humedad	85
168601	7	Sololá	712	San Antonio Palopó	9	San Antonio Palopo	5	Mayo	2023-01-05T00:00:00	2024-11-08T20:00:00	6	Velocidad del viento	6.4
168602	7	Sololá	712	San Antonio Palopó	9	San Antonio Palopo	5	Mayo	2023-01-05T00:00:00	2024-11-08T20:00:00	7	Dirección del viento	6.44
168603	7	Sololá	712	San Antonio Palopó	9	San Antonio Palopo	5	Mayo	2023-01-05T00:00:00	2024-11-08T20:00:00	1	Precipitación	0
168604	7	Sololá	712	San Antonio Palopó	9	San Antonio Palopo	5	Mayo	2023-01-05T00:00:00	2024-11-08T20:00:00	8	Radiación solar	0
168605	7	Sololá	712	San Antonio Palopó	9	San Antonio Palopo	5	Mayo	2023-01-05T00:00:00	2024-11-08T21:00:00	2	Temperatura media	20.2
168606	7	Sololá	712	San Antonio Palopó	9	San Antonio Palopo	5	Mayo	2023-01-05T00:00:00	2024-11-08T21:00:00	4	Temperatura máxima	20.7
168607	7	Sololá	712	San Antonio Palopó	9	San Antonio Palopo	5	Mayo	2023-01-05T00:00:00	2024-11-08T21:00:00	3	Temperatura mínima	19.6
168608	7	Sololá	712	San Antonio Palopó	9	San Antonio Palopo	5	Mayo	2023-01-05T00:00:00	2024-11-08T21:00:00	5	Humedad	86
168609	7	Sololá	712	San Antonio Palopó	9	San Antonio Palopo	5	Mayo	2023-01-05T00:00:00	2024-11-08T21:00:00	6	Velocidad del viento	8
168610	7	Sololá	712	San Antonio Palopó	9	San Antonio Palopo	5	Mayo	2023-01-05T00:00:00	2024-11-08T21:00:00	7	Dirección del viento	8.05
168611	7	Sololá	712	San Antonio Palopó	9	San Antonio Palopo	5	Mayo	2023-01-05T00:00:00	2024-11-08T21:00:00	1	Precipitación	0
168612	7	Sololá	712	San Antonio Palopó	9	San Antonio Palopo	5	Mayo	2023-01-05T00:00:00	2024-11-08T21:00:00	8	Radiación solar	0
168613	7	Sololá	712	San Antonio Palopó	9	San Antonio Palopo	5	Mayo	2023-01-05T00:00:00	2024-11-08T22:00:00	2	Temperatura media	20
168614	7	Sololá	712	San Antonio Palopó	9	San Antonio Palopo	5	Mayo	2023-01-05T00:00:00	2024-11-08T22:00:00	4	Temperatura máxima	20.2
168615	7	Sololá	712	San Antonio Palopó	9	San Antonio Palopo	5	Mayo	2023-01-05T00:00:00	2024-11-08T22:00:00	3	Temperatura mínima	19.8
168616	7	Sololá	712	San Antonio Palopó	9	San Antonio Palopo	5	Mayo	2023-01-05T00:00:00	2024-11-08T22:00:00	5	Humedad	86
168617	7	Sololá	712	San Antonio Palopó	9	San Antonio Palopo	5	Mayo	2023-01-05T00:00:00	2024-11-08T22:00:00	6	Velocidad del viento	3.2
168618	7	Sololá	712	San Antonio Palopó	9	San Antonio Palopo	5	Mayo	2023-01-05T00:00:00	2024-11-08T22:00:00	7	Dirección del viento	3.22
168619	7	Sololá	712	San Antonio Palopó	9	San Antonio Palopo	5	Mayo	2023-01-05T00:00:00	2024-11-08T22:00:00	1	Precipitación	0
168620	7	Sololá	712	San Antonio Palopó	9	San Antonio Palopo	5	Mayo	2023-01-05T00:00:00	2024-11-08T22:00:00	8	Radiación solar	0
168621	7	Sololá	712	San Antonio Palopó	9	San Antonio Palopo	5	Mayo	2023-01-05T00:00:00	2024-11-08T23:00:00	2	Temperatura media	19.8
168622	7	Sololá	712	San Antonio Palopó	9	San Antonio Palopo	5	Mayo	2023-01-05T00:00:00	2024-11-08T23:00:00	4	Temperatura máxima	20
168623	7	Sololá	712	San Antonio Palopó	9	San Antonio Palopo	5	Mayo	2023-01-05T00:00:00	2024-11-08T23:00:00	3	Temperatura mínima	19.8
168624	7	Sololá	712	San Antonio Palopó	9	San Antonio Palopo	5	Mayo	2023-01-05T00:00:00	2024-11-08T23:00:00	5	Humedad	85
168625	7	Sololá	712	San Antonio Palopó	9	San Antonio Palopo	5	Mayo	2023-01-05T00:00:00	2024-11-08T23:00:00	6	Velocidad del viento	0
168626	7	Sololá	712	San Antonio Palopó	9	San Antonio Palopo	5	Mayo	2023-01-05T00:00:00	2024-11-08T23:00:00	7	Dirección del viento	0
168627	7	Sololá	712	San Antonio Palopó	9	San Antonio Palopo	5	Mayo	2023-01-05T00:00:00	2024-11-08T23:00:00	1	Precipitación	0
168628	7	Sololá	712	San Antonio Palopó	9	San Antonio Palopo	5	Mayo	2023-01-05T00:00:00	2024-11-08T23:00:00	8	Radiación solar	0
168629	7	Sololá	712	San Antonio Palopó	9	San Antonio Palopo	5	Mayo	2023-02-05T00:00:00	2024-11-08T00:00:00	2	Temperatura media	19.7
168630	7	Sololá	712	San Antonio Palopó	9	San Antonio Palopo	5	Mayo	2023-02-05T00:00:00	2024-11-08T00:00:00	4	Temperatura máxima	19.9
168631	7	Sololá	712	San Antonio Palopó	9	San Antonio Palopo	5	Mayo	2023-02-05T00:00:00	2024-11-08T00:00:00	3	Temperatura mínima	19.7
168632	7	Sololá	712	San Antonio Palopó	9	San Antonio Palopo	5	Mayo	2023-02-05T00:00:00	2024-11-08T00:00:00	5	Humedad	87
168633	7	Sololá	712	San Antonio Palopó	9	San Antonio Palopo	5	Mayo	2023-02-05T00:00:00	2024-11-08T00:00:00	6	Velocidad del viento	3.2
168634	7	Sololá	712	San Antonio Palopó	9	San Antonio Palopo	5	Mayo	2023-02-05T00:00:00	2024-11-08T00:00:00	7	Dirección del viento	3.22
168635	7	Sololá	712	San Antonio Palopó	9	San Antonio Palopo	5	Mayo	2023-02-05T00:00:00	2024-11-08T00:00:00	1	Precipitación	0
168636	7	Sololá	712	San Antonio Palopó	9	San Antonio Palopo	5	Mayo	2023-02-05T00:00:00	2024-11-08T00:00:00	8	Radiación solar	0
168637	7	Sololá	712	San Antonio Palopó	9	San Antonio Palopo	5	Mayo	2023-02-05T00:00:00	2024-11-08T01:00:00	2	Temperatura media	19.6
168638	7	Sololá	712	San Antonio Palopó	9	San Antonio Palopo	5	Mayo	2023-02-05T00:00:00	2024-11-08T01:00:00	4	Temperatura máxima	19.9
168639	7	Sololá	712	San Antonio Palopó	9	San Antonio Palopo	5	Mayo	2023-02-05T00:00:00	2024-11-08T01:00:00	3	Temperatura mínima	19.6
168640	7	Sololá	712	San Antonio Palopó	9	San Antonio Palopo	5	Mayo	2023-02-05T00:00:00	2024-11-08T01:00:00	5	Humedad	83
168641	7	Sololá	712	San Antonio Palopó	9	San Antonio Palopo	5	Mayo	2023-02-05T00:00:00	2024-11-08T01:00:00	6	Velocidad del viento	1.6
168642	7	Sololá	712	San Antonio Palopó	9	San Antonio Palopo	5	Mayo	2023-02-05T00:00:00	2024-11-08T01:00:00	7	Dirección del viento	1.61
168643	7	Sololá	712	San Antonio Palopó	9	San Antonio Palopo	5	Mayo	2023-02-05T00:00:00	2024-11-08T01:00:00	1	Precipitación	0
168644	7	Sololá	712	San Antonio Palopó	9	San Antonio Palopo	5	Mayo	2023-02-05T00:00:00	2024-11-08T01:00:00	8	Radiación solar	0
168645	7	Sololá	712	San Antonio Palopó	9	San Antonio Palopo	5	Mayo	2023-02-05T00:00:00	2024-11-08T02:00:00	2	Temperatura media	19.5
168646	7	Sololá	712	San Antonio Palopó	9	San Antonio Palopo	5	Mayo	2023-02-05T00:00:00	2024-11-08T02:00:00	4	Temperatura máxima	19.6
168647	7	Sololá	712	San Antonio Palopó	9	San Antonio Palopo	5	Mayo	2023-02-05T00:00:00	2024-11-08T02:00:00	3	Temperatura mínima	19
168648	7	Sololá	712	San Antonio Palopó	9	San Antonio Palopo	5	Mayo	2023-02-05T00:00:00	2024-11-08T02:00:00	5	Humedad	83
168649	7	Sololá	712	San Antonio Palopó	9	San Antonio Palopo	5	Mayo	2023-02-05T00:00:00	2024-11-08T02:00:00	6	Velocidad del viento	1.6
168650	7	Sololá	712	San Antonio Palopó	9	San Antonio Palopo	5	Mayo	2023-02-05T00:00:00	2024-11-08T02:00:00	7	Dirección del viento	1.61
168651	7	Sololá	712	San Antonio Palopó	9	San Antonio Palopo	5	Mayo	2023-02-05T00:00:00	2024-11-08T02:00:00	1	Precipitación	0
168652	7	Sololá	712	San Antonio Palopó	9	San Antonio Palopo	5	Mayo	2023-02-05T00:00:00	2024-11-08T02:00:00	8	Radiación solar	0
168653	7	Sololá	712	San Antonio Palopó	9	San Antonio Palopo	5	Mayo	2023-02-05T00:00:00	2024-11-08T03:00:00	2	Temperatura media	19.5
168654	7	Sololá	712	San Antonio Palopó	9	San Antonio Palopo	5	Mayo	2023-02-05T00:00:00	2024-11-08T03:00:00	4	Temperatura máxima	19.6
168655	7	Sololá	712	San Antonio Palopó	9	San Antonio Palopo	5	Mayo	2023-02-05T00:00:00	2024-11-08T03:00:00	3	Temperatura mínima	19.3
168656	7	Sololá	712	San Antonio Palopó	9	San Antonio Palopo	5	Mayo	2023-02-05T00:00:00	2024-11-08T03:00:00	5	Humedad	81
168657	7	Sololá	712	San Antonio Palopó	9	San Antonio Palopo	5	Mayo	2023-02-05T00:00:00	2024-11-08T03:00:00	6	Velocidad del viento	1.6
168658	7	Sololá	712	San Antonio Palopó	9	San Antonio Palopo	5	Mayo	2023-02-05T00:00:00	2024-11-08T03:00:00	7	Dirección del viento	1.61
168659	7	Sololá	712	San Antonio Palopó	9	San Antonio Palopo	5	Mayo	2023-02-05T00:00:00	2024-11-08T03:00:00	1	Precipitación	0
168660	7	Sololá	712	San Antonio Palopó	9	San Antonio Palopo	5	Mayo	2023-02-05T00:00:00	2024-11-08T03:00:00	8	Radiación solar	0
168661	7	Sololá	712	San Antonio Palopó	9	San Antonio Palopo	5	Mayo	2023-02-05T00:00:00	2024-11-08T04:00:00	2	Temperatura media	18.8
168662	7	Sololá	712	San Antonio Palopó	9	San Antonio Palopo	5	Mayo	2023-02-05T00:00:00	2024-11-08T04:00:00	4	Temperatura máxima	19.5
168663	7	Sololá	712	San Antonio Palopó	9	San Antonio Palopo	5	Mayo	2023-02-05T00:00:00	2024-11-08T04:00:00	3	Temperatura mínima	18.8
168664	7	Sololá	712	San Antonio Palopó	9	San Antonio Palopo	5	Mayo	2023-02-05T00:00:00	2024-11-08T04:00:00	5	Humedad	79
168665	7	Sololá	712	San Antonio Palopó	9	San Antonio Palopo	5	Mayo	2023-02-05T00:00:00	2024-11-08T04:00:00	6	Velocidad del viento	1.6
168666	7	Sololá	712	San Antonio Palopó	9	San Antonio Palopo	5	Mayo	2023-02-05T00:00:00	2024-11-08T04:00:00	7	Dirección del viento	1.61
168667	7	Sololá	712	San Antonio Palopó	9	San Antonio Palopo	5	Mayo	2023-02-05T00:00:00	2024-11-08T04:00:00	1	Precipitación	0
168668	7	Sololá	712	San Antonio Palopó	9	San Antonio Palopo	5	Mayo	2023-02-05T00:00:00	2024-11-08T04:00:00	8	Radiación solar	0
168669	7	Sololá	712	San Antonio Palopó	9	San Antonio Palopo	5	Mayo	2023-02-05T00:00:00	2024-11-08T05:00:00	2	Temperatura media	18.1
168670	7	Sololá	712	San Antonio Palopó	9	San Antonio Palopo	5	Mayo	2023-02-05T00:00:00	2024-11-08T05:00:00	4	Temperatura máxima	18.9
168671	7	Sololá	712	San Antonio Palopó	9	San Antonio Palopo	5	Mayo	2023-02-05T00:00:00	2024-11-08T05:00:00	3	Temperatura mínima	18.1
168672	7	Sololá	712	San Antonio Palopó	9	San Antonio Palopo	5	Mayo	2023-02-05T00:00:00	2024-11-08T05:00:00	5	Humedad	83
168673	7	Sololá	712	San Antonio Palopó	9	San Antonio Palopo	5	Mayo	2023-02-05T00:00:00	2024-11-08T05:00:00	6	Velocidad del viento	3.2
168674	7	Sololá	712	San Antonio Palopó	9	San Antonio Palopo	5	Mayo	2023-02-05T00:00:00	2024-11-08T05:00:00	7	Dirección del viento	3.22
168675	7	Sololá	712	San Antonio Palopó	9	San Antonio Palopo	5	Mayo	2023-02-05T00:00:00	2024-11-08T05:00:00	1	Precipitación	0
168676	7	Sololá	712	San Antonio Palopó	9	San Antonio Palopo	5	Mayo	2023-02-05T00:00:00	2024-11-08T05:00:00	8	Radiación solar	0
168677	7	Sololá	712	San Antonio Palopó	9	San Antonio Palopo	5	Mayo	2023-02-05T00:00:00	2024-11-08T06:00:00	2	Temperatura media	18.8
168678	7	Sololá	712	San Antonio Palopó	9	San Antonio Palopo	5	Mayo	2023-02-05T00:00:00	2024-11-08T06:00:00	4	Temperatura máxima	18.9
168679	7	Sololá	712	San Antonio Palopó	9	San Antonio Palopo	5	Mayo	2023-02-05T00:00:00	2024-11-08T06:00:00	3	Temperatura mínima	18.1
168680	7	Sololá	712	San Antonio Palopó	9	San Antonio Palopo	5	Mayo	2023-02-05T00:00:00	2024-11-08T06:00:00	5	Humedad	78
168681	7	Sololá	712	San Antonio Palopó	9	San Antonio Palopo	5	Mayo	2023-02-05T00:00:00	2024-11-08T06:00:00	6	Velocidad del viento	3.2
168682	7	Sololá	712	San Antonio Palopó	9	San Antonio Palopo	5	Mayo	2023-02-05T00:00:00	2024-11-08T06:00:00	7	Dirección del viento	3.22
168683	7	Sololá	712	San Antonio Palopó	9	San Antonio Palopo	5	Mayo	2023-02-05T00:00:00	2024-11-08T06:00:00	1	Precipitación	0
168684	7	Sololá	712	San Antonio Palopó	9	San Antonio Palopo	5	Mayo	2023-02-05T00:00:00	2024-11-08T06:00:00	8	Radiación solar	2
168685	7	Sololá	712	San Antonio Palopó	9	San Antonio Palopo	5	Mayo	2023-02-05T00:00:00	2024-11-08T07:00:00	2	Temperatura media	19.1
168686	7	Sololá	712	San Antonio Palopó	9	San Antonio Palopo	5	Mayo	2023-02-05T00:00:00	2024-11-08T07:00:00	4	Temperatura máxima	19.2
168687	7	Sololá	712	San Antonio Palopó	9	San Antonio Palopo	5	Mayo	2023-02-05T00:00:00	2024-11-08T07:00:00	3	Temperatura mínima	18.7
168688	7	Sololá	712	San Antonio Palopó	9	San Antonio Palopo	5	Mayo	2023-02-05T00:00:00	2024-11-08T07:00:00	5	Humedad	81
168689	7	Sololá	712	San Antonio Palopó	9	San Antonio Palopo	5	Mayo	2023-02-05T00:00:00	2024-11-08T07:00:00	6	Velocidad del viento	1.6
168690	7	Sololá	712	San Antonio Palopó	9	San Antonio Palopo	5	Mayo	2023-02-05T00:00:00	2024-11-08T07:00:00	7	Dirección del viento	1.61
168691	7	Sololá	712	San Antonio Palopó	9	San Antonio Palopo	5	Mayo	2023-02-05T00:00:00	2024-11-08T07:00:00	1	Precipitación	0
168692	7	Sololá	712	San Antonio Palopó	9	San Antonio Palopo	5	Mayo	2023-02-05T00:00:00	2024-11-08T07:00:00	8	Radiación solar	63
168693	7	Sololá	712	San Antonio Palopó	9	San Antonio Palopo	5	Mayo	2023-02-05T00:00:00	2024-11-08T08:00:00	2	Temperatura media	20.3
168694	7	Sololá	712	San Antonio Palopó	9	San Antonio Palopo	5	Mayo	2023-02-05T00:00:00	2024-11-08T08:00:00	4	Temperatura máxima	20.3
168695	7	Sololá	712	San Antonio Palopó	9	San Antonio Palopo	5	Mayo	2023-02-05T00:00:00	2024-11-08T08:00:00	3	Temperatura mínima	19.1
168696	7	Sololá	712	San Antonio Palopó	9	San Antonio Palopo	5	Mayo	2023-02-05T00:00:00	2024-11-08T08:00:00	5	Humedad	80
168697	7	Sololá	712	San Antonio Palopó	9	San Antonio Palopo	5	Mayo	2023-02-05T00:00:00	2024-11-08T08:00:00	6	Velocidad del viento	1.6
168698	7	Sololá	712	San Antonio Palopó	9	San Antonio Palopo	5	Mayo	2023-02-05T00:00:00	2024-11-08T08:00:00	7	Dirección del viento	1.61
168699	7	Sololá	712	San Antonio Palopó	9	San Antonio Palopo	5	Mayo	2023-02-05T00:00:00	2024-11-08T08:00:00	1	Precipitación	0
168700	7	Sololá	712	San Antonio Palopó	9	San Antonio Palopo	5	Mayo	2023-02-05T00:00:00	2024-11-08T08:00:00	8	Radiación solar	200
168701	7	Sololá	712	San Antonio Palopó	9	San Antonio Palopo	5	Mayo	2023-02-05T00:00:00	2024-11-08T09:00:00	2	Temperatura media	20.8
168702	7	Sololá	712	San Antonio Palopó	9	San Antonio Palopo	5	Mayo	2023-02-05T00:00:00	2024-11-08T09:00:00	4	Temperatura máxima	20.9
168703	7	Sololá	712	San Antonio Palopó	9	San Antonio Palopo	5	Mayo	2023-02-05T00:00:00	2024-11-08T09:00:00	3	Temperatura mínima	20.3
168704	7	Sololá	712	San Antonio Palopó	9	San Antonio Palopo	5	Mayo	2023-02-05T00:00:00	2024-11-08T09:00:00	5	Humedad	78
168705	7	Sololá	712	San Antonio Palopó	9	San Antonio Palopo	5	Mayo	2023-02-05T00:00:00	2024-11-08T09:00:00	6	Velocidad del viento	1.6
168706	7	Sololá	712	San Antonio Palopó	9	San Antonio Palopo	5	Mayo	2023-02-05T00:00:00	2024-11-08T09:00:00	7	Dirección del viento	1.61
168707	7	Sololá	712	San Antonio Palopó	9	San Antonio Palopo	5	Mayo	2023-02-05T00:00:00	2024-11-08T09:00:00	1	Precipitación	0
168708	7	Sololá	712	San Antonio Palopó	9	San Antonio Palopo	5	Mayo	2023-02-05T00:00:00	2024-11-08T09:00:00	8	Radiación solar	379
168709	7	Sololá	712	San Antonio Palopó	9	San Antonio Palopo	5	Mayo	2023-02-05T00:00:00	2024-11-08T10:00:00	2	Temperatura media	22.3
168710	7	Sololá	712	San Antonio Palopó	9	San Antonio Palopo	5	Mayo	2023-02-05T00:00:00	2024-11-08T10:00:00	4	Temperatura máxima	22.3
168711	7	Sololá	712	San Antonio Palopó	9	San Antonio Palopo	5	Mayo	2023-02-05T00:00:00	2024-11-08T10:00:00	3	Temperatura mínima	20.7
168712	7	Sololá	712	San Antonio Palopó	9	San Antonio Palopo	5	Mayo	2023-02-05T00:00:00	2024-11-08T10:00:00	5	Humedad	73
168713	7	Sololá	712	San Antonio Palopó	9	San Antonio Palopo	5	Mayo	2023-02-05T00:00:00	2024-11-08T10:00:00	6	Velocidad del viento	3.2
168714	7	Sololá	712	San Antonio Palopó	9	San Antonio Palopo	5	Mayo	2023-02-05T00:00:00	2024-11-08T10:00:00	7	Dirección del viento	3.22
168715	7	Sololá	712	San Antonio Palopó	9	San Antonio Palopo	5	Mayo	2023-02-05T00:00:00	2024-11-08T10:00:00	1	Precipitación	0
168716	7	Sololá	712	San Antonio Palopó	9	San Antonio Palopo	5	Mayo	2023-02-05T00:00:00	2024-11-08T10:00:00	8	Radiación solar	631
168717	7	Sololá	712	San Antonio Palopó	9	San Antonio Palopo	5	Mayo	2023-02-05T00:00:00	2024-11-08T11:00:00	2	Temperatura media	23.3
168718	7	Sololá	712	San Antonio Palopó	9	San Antonio Palopo	5	Mayo	2023-02-05T00:00:00	2024-11-08T11:00:00	4	Temperatura máxima	23.6
168719	7	Sololá	712	San Antonio Palopó	9	San Antonio Palopo	5	Mayo	2023-02-05T00:00:00	2024-11-08T11:00:00	3	Temperatura mínima	22.3
168720	7	Sololá	712	San Antonio Palopó	9	San Antonio Palopo	5	Mayo	2023-02-05T00:00:00	2024-11-08T11:00:00	5	Humedad	71
168721	7	Sololá	712	San Antonio Palopó	9	San Antonio Palopo	5	Mayo	2023-02-05T00:00:00	2024-11-08T11:00:00	6	Velocidad del viento	4.8
168722	7	Sololá	712	San Antonio Palopó	9	San Antonio Palopo	5	Mayo	2023-02-05T00:00:00	2024-11-08T11:00:00	7	Dirección del viento	4.83
168723	7	Sololá	712	San Antonio Palopó	9	San Antonio Palopo	5	Mayo	2023-02-05T00:00:00	2024-11-08T11:00:00	1	Precipitación	0
168724	7	Sololá	712	San Antonio Palopó	9	San Antonio Palopo	5	Mayo	2023-02-05T00:00:00	2024-11-08T11:00:00	8	Radiación solar	776
168725	7	Sololá	712	San Antonio Palopó	9	San Antonio Palopo	5	Mayo	2023-02-05T00:00:00	2024-11-08T12:00:00	2	Temperatura media	23.3
168726	7	Sololá	712	San Antonio Palopó	9	San Antonio Palopo	5	Mayo	2023-02-05T00:00:00	2024-11-08T12:00:00	4	Temperatura máxima	23.3
168727	7	Sololá	712	San Antonio Palopó	9	San Antonio Palopo	5	Mayo	2023-02-05T00:00:00	2024-11-08T12:00:00	3	Temperatura mínima	22.7
168728	7	Sololá	712	San Antonio Palopó	9	San Antonio Palopo	5	Mayo	2023-02-05T00:00:00	2024-11-08T12:00:00	5	Humedad	71
168729	7	Sololá	712	San Antonio Palopó	9	San Antonio Palopo	5	Mayo	2023-02-05T00:00:00	2024-11-08T12:00:00	6	Velocidad del viento	12.9
168730	7	Sololá	712	San Antonio Palopó	9	San Antonio Palopo	5	Mayo	2023-02-05T00:00:00	2024-11-08T12:00:00	7	Dirección del viento	12.87
168731	7	Sololá	712	San Antonio Palopó	9	San Antonio Palopo	5	Mayo	2023-02-05T00:00:00	2024-11-08T12:00:00	1	Precipitación	0
168732	7	Sololá	712	San Antonio Palopó	9	San Antonio Palopo	5	Mayo	2023-02-05T00:00:00	2024-11-08T12:00:00	8	Radiación solar	839
168733	7	Sololá	712	San Antonio Palopó	9	San Antonio Palopo	5	Mayo	2023-02-05T00:00:00	2024-11-08T13:00:00	2	Temperatura media	23.8
168734	7	Sololá	712	San Antonio Palopó	9	San Antonio Palopo	5	Mayo	2023-02-05T00:00:00	2024-11-08T13:00:00	4	Temperatura máxima	24.5
168735	7	Sololá	712	San Antonio Palopó	9	San Antonio Palopo	5	Mayo	2023-02-05T00:00:00	2024-11-08T13:00:00	3	Temperatura mínima	22.6
168736	7	Sololá	712	San Antonio Palopó	9	San Antonio Palopo	5	Mayo	2023-02-05T00:00:00	2024-11-08T13:00:00	5	Humedad	71
168737	7	Sololá	712	San Antonio Palopó	9	San Antonio Palopo	5	Mayo	2023-02-05T00:00:00	2024-11-08T13:00:00	6	Velocidad del viento	8
168738	7	Sololá	712	San Antonio Palopó	9	San Antonio Palopo	5	Mayo	2023-02-05T00:00:00	2024-11-08T13:00:00	7	Dirección del viento	8.05
168739	7	Sololá	712	San Antonio Palopó	9	San Antonio Palopo	5	Mayo	2023-02-05T00:00:00	2024-11-08T13:00:00	1	Precipitación	0
168740	7	Sololá	712	San Antonio Palopó	9	San Antonio Palopo	5	Mayo	2023-02-05T00:00:00	2024-11-08T13:00:00	8	Radiación solar	711
168741	7	Sololá	712	San Antonio Palopó	9	San Antonio Palopo	5	Mayo	2023-02-05T00:00:00	2024-11-08T14:00:00	2	Temperatura media	23.7
168742	7	Sololá	712	San Antonio Palopó	9	San Antonio Palopo	5	Mayo	2023-02-05T00:00:00	2024-11-08T14:00:00	4	Temperatura máxima	24.6
168743	7	Sololá	712	San Antonio Palopó	9	San Antonio Palopo	5	Mayo	2023-02-05T00:00:00	2024-11-08T14:00:00	3	Temperatura mínima	23.7
168744	7	Sololá	712	San Antonio Palopó	9	San Antonio Palopo	5	Mayo	2023-02-05T00:00:00	2024-11-08T14:00:00	5	Humedad	73
168745	7	Sololá	712	San Antonio Palopó	9	San Antonio Palopo	5	Mayo	2023-02-05T00:00:00	2024-11-08T14:00:00	6	Velocidad del viento	8
168746	7	Sololá	712	San Antonio Palopó	9	San Antonio Palopo	5	Mayo	2023-02-05T00:00:00	2024-11-08T14:00:00	7	Dirección del viento	8.05
168747	7	Sololá	712	San Antonio Palopó	9	San Antonio Palopo	5	Mayo	2023-02-05T00:00:00	2024-11-08T14:00:00	1	Precipitación	0
168748	7	Sololá	712	San Antonio Palopó	9	San Antonio Palopo	5	Mayo	2023-02-05T00:00:00	2024-11-08T14:00:00	8	Radiación solar	686
168749	7	Sololá	712	San Antonio Palopó	9	San Antonio Palopo	5	Mayo	2023-02-05T00:00:00	2024-11-08T15:00:00	2	Temperatura media	22.6
168750	7	Sololá	712	San Antonio Palopó	9	San Antonio Palopo	5	Mayo	2023-02-05T00:00:00	2024-11-08T15:00:00	4	Temperatura máxima	23.7
168751	7	Sololá	712	San Antonio Palopó	9	San Antonio Palopo	5	Mayo	2023-02-05T00:00:00	2024-11-08T15:00:00	3	Temperatura mínima	22.5
168752	7	Sololá	712	San Antonio Palopó	9	San Antonio Palopo	5	Mayo	2023-02-05T00:00:00	2024-11-08T15:00:00	5	Humedad	70
168753	7	Sololá	712	San Antonio Palopó	9	San Antonio Palopo	5	Mayo	2023-02-05T00:00:00	2024-11-08T15:00:00	6	Velocidad del viento	8
168754	7	Sololá	712	San Antonio Palopó	9	San Antonio Palopo	5	Mayo	2023-02-05T00:00:00	2024-11-08T15:00:00	7	Dirección del viento	8.05
168755	7	Sololá	712	San Antonio Palopó	9	San Antonio Palopo	5	Mayo	2023-02-05T00:00:00	2024-11-08T15:00:00	1	Precipitación	0
168756	7	Sololá	712	San Antonio Palopó	9	San Antonio Palopo	5	Mayo	2023-02-05T00:00:00	2024-11-08T15:00:00	8	Radiación solar	166
168757	7	Sololá	712	San Antonio Palopó	9	San Antonio Palopo	5	Mayo	2023-02-05T00:00:00	2024-11-08T16:00:00	2	Temperatura media	21.5
168758	7	Sololá	712	San Antonio Palopó	9	San Antonio Palopo	5	Mayo	2023-02-05T00:00:00	2024-11-08T16:00:00	4	Temperatura máxima	22.6
168759	7	Sololá	712	San Antonio Palopó	9	San Antonio Palopo	5	Mayo	2023-02-05T00:00:00	2024-11-08T16:00:00	3	Temperatura mínima	21.3
168760	7	Sololá	712	San Antonio Palopó	9	San Antonio Palopo	5	Mayo	2023-02-05T00:00:00	2024-11-08T16:00:00	5	Humedad	75
168761	7	Sololá	712	San Antonio Palopó	9	San Antonio Palopo	5	Mayo	2023-02-05T00:00:00	2024-11-08T16:00:00	6	Velocidad del viento	9.7
168762	7	Sololá	712	San Antonio Palopó	9	San Antonio Palopo	5	Mayo	2023-02-05T00:00:00	2024-11-08T16:00:00	7	Dirección del viento	9.66
168763	7	Sololá	712	San Antonio Palopó	9	San Antonio Palopo	5	Mayo	2023-02-05T00:00:00	2024-11-08T16:00:00	1	Precipitación	0
168764	7	Sololá	712	San Antonio Palopó	9	San Antonio Palopo	5	Mayo	2023-02-05T00:00:00	2024-11-08T16:00:00	8	Radiación solar	84
168765	7	Sololá	712	San Antonio Palopó	9	San Antonio Palopo	5	Mayo	2023-02-05T00:00:00	2024-11-08T17:00:00	2	Temperatura media	18.7
168766	7	Sololá	712	San Antonio Palopó	9	San Antonio Palopo	5	Mayo	2023-02-05T00:00:00	2024-11-08T17:00:00	4	Temperatura máxima	21.5
168767	7	Sololá	712	San Antonio Palopó	9	San Antonio Palopo	5	Mayo	2023-02-05T00:00:00	2024-11-08T17:00:00	3	Temperatura mínima	18.7
168768	7	Sololá	712	San Antonio Palopó	9	San Antonio Palopo	5	Mayo	2023-02-05T00:00:00	2024-11-08T17:00:00	5	Humedad	85
168769	7	Sololá	712	San Antonio Palopó	9	San Antonio Palopo	5	Mayo	2023-02-05T00:00:00	2024-11-08T17:00:00	6	Velocidad del viento	6.4
168770	7	Sololá	712	San Antonio Palopó	9	San Antonio Palopo	5	Mayo	2023-02-05T00:00:00	2024-11-08T17:00:00	7	Dirección del viento	6.44
168771	7	Sololá	712	San Antonio Palopó	9	San Antonio Palopo	5	Mayo	2023-02-05T00:00:00	2024-11-08T17:00:00	1	Precipitación	4.2
168772	7	Sololá	712	San Antonio Palopó	9	San Antonio Palopo	5	Mayo	2023-02-05T00:00:00	2024-11-08T17:00:00	8	Radiación solar	0
168773	7	Sololá	712	San Antonio Palopó	9	San Antonio Palopo	5	Mayo	2023-02-05T00:00:00	2024-11-08T18:00:00	2	Temperatura media	18.2
168774	7	Sololá	712	San Antonio Palopó	9	San Antonio Palopo	5	Mayo	2023-02-05T00:00:00	2024-11-08T18:00:00	4	Temperatura máxima	18.7
168775	7	Sololá	712	San Antonio Palopó	9	San Antonio Palopo	5	Mayo	2023-02-05T00:00:00	2024-11-08T18:00:00	3	Temperatura mínima	18.2
168776	7	Sololá	712	San Antonio Palopó	9	San Antonio Palopo	5	Mayo	2023-02-05T00:00:00	2024-11-08T18:00:00	5	Humedad	89
168777	7	Sololá	712	San Antonio Palopó	9	San Antonio Palopo	5	Mayo	2023-02-05T00:00:00	2024-11-08T18:00:00	6	Velocidad del viento	4.8
168778	7	Sololá	712	San Antonio Palopó	9	San Antonio Palopo	5	Mayo	2023-02-05T00:00:00	2024-11-08T18:00:00	7	Dirección del viento	4.83
168779	7	Sololá	712	San Antonio Palopó	9	San Antonio Palopo	5	Mayo	2023-02-05T00:00:00	2024-11-08T18:00:00	1	Precipitación	2.4
168780	7	Sololá	712	San Antonio Palopó	9	San Antonio Palopo	5	Mayo	2023-02-05T00:00:00	2024-11-08T18:00:00	8	Radiación solar	0
168781	7	Sololá	712	San Antonio Palopó	9	San Antonio Palopo	5	Mayo	2023-02-05T00:00:00	2024-11-08T19:00:00	2	Temperatura media	18
168782	7	Sololá	712	San Antonio Palopó	9	San Antonio Palopo	5	Mayo	2023-02-05T00:00:00	2024-11-08T19:00:00	4	Temperatura máxima	18.3
168783	7	Sololá	712	San Antonio Palopó	9	San Antonio Palopo	5	Mayo	2023-02-05T00:00:00	2024-11-08T19:00:00	3	Temperatura mínima	18
168784	7	Sololá	712	San Antonio Palopó	9	San Antonio Palopo	5	Mayo	2023-02-05T00:00:00	2024-11-08T19:00:00	5	Humedad	89
168785	7	Sololá	712	San Antonio Palopó	9	San Antonio Palopo	5	Mayo	2023-02-05T00:00:00	2024-11-08T19:00:00	6	Velocidad del viento	3.2
168786	7	Sololá	712	San Antonio Palopó	9	San Antonio Palopo	5	Mayo	2023-02-05T00:00:00	2024-11-08T19:00:00	7	Dirección del viento	3.22
168787	7	Sololá	712	San Antonio Palopó	9	San Antonio Palopo	5	Mayo	2023-02-05T00:00:00	2024-11-08T19:00:00	1	Precipitación	2.8
168788	7	Sololá	712	San Antonio Palopó	9	San Antonio Palopo	5	Mayo	2023-02-05T00:00:00	2024-11-08T19:00:00	8	Radiación solar	0
168789	7	Sololá	712	San Antonio Palopó	9	San Antonio Palopo	5	Mayo	2023-02-05T00:00:00	2024-11-08T20:00:00	2	Temperatura media	17.2
168790	7	Sololá	712	San Antonio Palopó	9	San Antonio Palopo	5	Mayo	2023-02-05T00:00:00	2024-11-08T20:00:00	4	Temperatura máxima	18.1
168791	7	Sololá	712	San Antonio Palopó	9	San Antonio Palopo	5	Mayo	2023-02-05T00:00:00	2024-11-08T20:00:00	3	Temperatura mínima	16.9
168792	7	Sololá	712	San Antonio Palopó	9	San Antonio Palopo	5	Mayo	2023-02-05T00:00:00	2024-11-08T20:00:00	5	Humedad	87
168793	7	Sololá	712	San Antonio Palopó	9	San Antonio Palopo	5	Mayo	2023-02-05T00:00:00	2024-11-08T20:00:00	6	Velocidad del viento	3.2
168794	7	Sololá	712	San Antonio Palopó	9	San Antonio Palopo	5	Mayo	2023-02-05T00:00:00	2024-11-08T20:00:00	7	Dirección del viento	3.22
168795	7	Sololá	712	San Antonio Palopó	9	San Antonio Palopo	5	Mayo	2023-02-05T00:00:00	2024-11-08T20:00:00	1	Precipitación	0
168796	7	Sololá	712	San Antonio Palopó	9	San Antonio Palopo	5	Mayo	2023-02-05T00:00:00	2024-11-08T20:00:00	8	Radiación solar	0
168797	7	Sololá	712	San Antonio Palopó	9	San Antonio Palopo	5	Mayo	2023-02-05T00:00:00	2024-11-08T21:00:00	2	Temperatura media	19.2
168798	7	Sololá	712	San Antonio Palopó	9	San Antonio Palopo	5	Mayo	2023-02-05T00:00:00	2024-11-08T21:00:00	4	Temperatura máxima	19.2
168799	7	Sololá	712	San Antonio Palopó	9	San Antonio Palopo	5	Mayo	2023-02-05T00:00:00	2024-11-08T21:00:00	3	Temperatura mínima	16.8
168800	7	Sololá	712	San Antonio Palopó	9	San Antonio Palopo	5	Mayo	2023-02-05T00:00:00	2024-11-08T21:00:00	5	Humedad	75
168801	7	Sololá	712	San Antonio Palopó	9	San Antonio Palopo	5	Mayo	2023-02-05T00:00:00	2024-11-08T21:00:00	6	Velocidad del viento	4.8
168802	7	Sololá	712	San Antonio Palopó	9	San Antonio Palopo	5	Mayo	2023-02-05T00:00:00	2024-11-08T21:00:00	7	Dirección del viento	4.83
168803	7	Sololá	712	San Antonio Palopó	9	San Antonio Palopo	5	Mayo	2023-02-05T00:00:00	2024-11-08T21:00:00	1	Precipitación	0
168804	7	Sololá	712	San Antonio Palopó	9	San Antonio Palopo	5	Mayo	2023-02-05T00:00:00	2024-11-08T21:00:00	8	Radiación solar	0
168805	7	Sololá	712	San Antonio Palopó	9	San Antonio Palopo	5	Mayo	2023-02-05T00:00:00	2024-11-08T22:00:00	2	Temperatura media	17.3
168806	7	Sololá	712	San Antonio Palopó	9	San Antonio Palopo	5	Mayo	2023-02-05T00:00:00	2024-11-08T22:00:00	4	Temperatura máxima	19.3
168807	7	Sololá	712	San Antonio Palopó	9	San Antonio Palopo	5	Mayo	2023-02-05T00:00:00	2024-11-08T22:00:00	3	Temperatura mínima	17.2
168808	7	Sololá	712	San Antonio Palopó	9	San Antonio Palopo	5	Mayo	2023-02-05T00:00:00	2024-11-08T22:00:00	5	Humedad	81
168809	7	Sololá	712	San Antonio Palopó	9	San Antonio Palopo	5	Mayo	2023-02-05T00:00:00	2024-11-08T22:00:00	6	Velocidad del viento	4.8
168810	7	Sololá	712	San Antonio Palopó	9	San Antonio Palopo	5	Mayo	2023-02-05T00:00:00	2024-11-08T22:00:00	7	Dirección del viento	4.83
168811	7	Sololá	712	San Antonio Palopó	9	San Antonio Palopo	5	Mayo	2023-02-05T00:00:00	2024-11-08T22:00:00	1	Precipitación	0
168812	7	Sololá	712	San Antonio Palopó	9	San Antonio Palopo	5	Mayo	2023-02-05T00:00:00	2024-11-08T22:00:00	8	Radiación solar	0
168813	7	Sololá	712	San Antonio Palopó	9	San Antonio Palopo	5	Mayo	2023-02-05T00:00:00	2024-11-08T23:00:00	2	Temperatura media	17.8
168814	7	Sololá	712	San Antonio Palopó	9	San Antonio Palopo	5	Mayo	2023-02-05T00:00:00	2024-11-08T23:00:00	4	Temperatura máxima	17.8
168815	7	Sololá	712	San Antonio Palopó	9	San Antonio Palopo	5	Mayo	2023-02-05T00:00:00	2024-11-08T23:00:00	3	Temperatura mínima	17.3
168816	7	Sololá	712	San Antonio Palopó	9	San Antonio Palopo	5	Mayo	2023-02-05T00:00:00	2024-11-08T23:00:00	5	Humedad	85
168817	7	Sololá	712	San Antonio Palopó	9	San Antonio Palopo	5	Mayo	2023-02-05T00:00:00	2024-11-08T23:00:00	6	Velocidad del viento	4.8
168818	7	Sololá	712	San Antonio Palopó	9	San Antonio Palopo	5	Mayo	2023-02-05T00:00:00	2024-11-08T23:00:00	7	Dirección del viento	4.83
168819	7	Sololá	712	San Antonio Palopó	9	San Antonio Palopo	5	Mayo	2023-02-05T00:00:00	2024-11-08T23:00:00	1	Precipitación	0
168820	7	Sololá	712	San Antonio Palopó	9	San Antonio Palopo	5	Mayo	2023-02-05T00:00:00	2024-11-08T23:00:00	8	Radiación solar	0
168821	7	Sololá	712	San Antonio Palopó	9	San Antonio Palopo	5	Mayo	2023-03-05T00:00:00	2024-11-08T00:00:00	2	Temperatura media	18.7
168822	7	Sololá	712	San Antonio Palopó	9	San Antonio Palopo	5	Mayo	2023-03-05T00:00:00	2024-11-08T00:00:00	4	Temperatura máxima	20.1
168823	7	Sololá	712	San Antonio Palopó	9	San Antonio Palopo	5	Mayo	2023-03-05T00:00:00	2024-11-08T00:00:00	3	Temperatura mínima	17.8
168824	7	Sololá	712	San Antonio Palopó	9	San Antonio Palopo	5	Mayo	2023-03-05T00:00:00	2024-11-08T00:00:00	5	Humedad	71
168825	7	Sololá	712	San Antonio Palopó	9	San Antonio Palopo	5	Mayo	2023-03-05T00:00:00	2024-11-08T00:00:00	6	Velocidad del viento	6.4
168826	7	Sololá	712	San Antonio Palopó	9	San Antonio Palopo	5	Mayo	2023-03-05T00:00:00	2024-11-08T00:00:00	7	Dirección del viento	6.44
168827	7	Sololá	712	San Antonio Palopó	9	San Antonio Palopo	5	Mayo	2023-03-05T00:00:00	2024-11-08T00:00:00	1	Precipitación	0
168828	7	Sololá	712	San Antonio Palopó	9	San Antonio Palopo	5	Mayo	2023-03-05T00:00:00	2024-11-08T00:00:00	8	Radiación solar	0
168829	7	Sololá	712	San Antonio Palopó	9	San Antonio Palopo	5	Mayo	2023-03-05T00:00:00	2024-11-08T01:00:00	2	Temperatura media	19
168830	7	Sololá	712	San Antonio Palopó	9	San Antonio Palopo	5	Mayo	2023-03-05T00:00:00	2024-11-08T01:00:00	4	Temperatura máxima	20
168831	7	Sololá	712	San Antonio Palopó	9	San Antonio Palopo	5	Mayo	2023-03-05T00:00:00	2024-11-08T01:00:00	3	Temperatura mínima	18.7
168832	7	Sololá	712	San Antonio Palopó	9	San Antonio Palopo	5	Mayo	2023-03-05T00:00:00	2024-11-08T01:00:00	5	Humedad	71
168833	7	Sololá	712	San Antonio Palopó	9	San Antonio Palopo	5	Mayo	2023-03-05T00:00:00	2024-11-08T01:00:00	6	Velocidad del viento	4.8
168834	7	Sololá	712	San Antonio Palopó	9	San Antonio Palopo	5	Mayo	2023-03-05T00:00:00	2024-11-08T01:00:00	7	Dirección del viento	4.83
168835	7	Sololá	712	San Antonio Palopó	9	San Antonio Palopo	5	Mayo	2023-03-05T00:00:00	2024-11-08T01:00:00	1	Precipitación	0
168836	7	Sololá	712	San Antonio Palopó	9	San Antonio Palopo	5	Mayo	2023-03-05T00:00:00	2024-11-08T01:00:00	8	Radiación solar	0
168837	7	Sololá	712	San Antonio Palopó	9	San Antonio Palopo	5	Mayo	2023-03-05T00:00:00	2024-11-08T02:00:00	2	Temperatura media	18.9
168838	7	Sololá	712	San Antonio Palopó	9	San Antonio Palopo	5	Mayo	2023-03-05T00:00:00	2024-11-08T02:00:00	4	Temperatura máxima	19.5
168839	7	Sololá	712	San Antonio Palopó	9	San Antonio Palopo	5	Mayo	2023-03-05T00:00:00	2024-11-08T02:00:00	3	Temperatura mínima	18.9
168840	7	Sololá	712	San Antonio Palopó	9	San Antonio Palopo	5	Mayo	2023-03-05T00:00:00	2024-11-08T02:00:00	5	Humedad	77
168841	7	Sololá	712	San Antonio Palopó	9	San Antonio Palopo	5	Mayo	2023-03-05T00:00:00	2024-11-08T02:00:00	6	Velocidad del viento	3.2
168842	7	Sololá	712	San Antonio Palopó	9	San Antonio Palopo	5	Mayo	2023-03-05T00:00:00	2024-11-08T02:00:00	7	Dirección del viento	3.22
168843	7	Sololá	712	San Antonio Palopó	9	San Antonio Palopo	5	Mayo	2023-03-05T00:00:00	2024-11-08T02:00:00	1	Precipitación	0
168844	7	Sololá	712	San Antonio Palopó	9	San Antonio Palopo	5	Mayo	2023-03-05T00:00:00	2024-11-08T02:00:00	8	Radiación solar	0
168845	7	Sololá	712	San Antonio Palopó	9	San Antonio Palopo	5	Mayo	2023-03-05T00:00:00	2024-11-08T03:00:00	2	Temperatura media	18.6
168846	7	Sololá	712	San Antonio Palopó	9	San Antonio Palopo	5	Mayo	2023-03-05T00:00:00	2024-11-08T03:00:00	4	Temperatura máxima	18.9
168847	7	Sololá	712	San Antonio Palopó	9	San Antonio Palopo	5	Mayo	2023-03-05T00:00:00	2024-11-08T03:00:00	3	Temperatura mínima	18.2
168848	7	Sololá	712	San Antonio Palopó	9	San Antonio Palopo	5	Mayo	2023-03-05T00:00:00	2024-11-08T03:00:00	5	Humedad	83
168849	7	Sololá	712	San Antonio Palopó	9	San Antonio Palopo	5	Mayo	2023-03-05T00:00:00	2024-11-08T03:00:00	6	Velocidad del viento	3.2
168850	7	Sololá	712	San Antonio Palopó	9	San Antonio Palopo	5	Mayo	2023-03-05T00:00:00	2024-11-08T03:00:00	7	Dirección del viento	3.22
168851	7	Sololá	712	San Antonio Palopó	9	San Antonio Palopo	5	Mayo	2023-03-05T00:00:00	2024-11-08T03:00:00	1	Precipitación	0
168852	7	Sololá	712	San Antonio Palopó	9	San Antonio Palopo	5	Mayo	2023-03-05T00:00:00	2024-11-08T03:00:00	8	Radiación solar	0
168853	7	Sololá	712	San Antonio Palopó	9	San Antonio Palopo	5	Mayo	2023-03-05T00:00:00	2024-11-08T04:00:00	2	Temperatura media	18.1
168854	7	Sololá	712	San Antonio Palopó	9	San Antonio Palopo	5	Mayo	2023-03-05T00:00:00	2024-11-08T04:00:00	4	Temperatura máxima	18.7
168855	7	Sololá	712	San Antonio Palopó	9	San Antonio Palopo	5	Mayo	2023-03-05T00:00:00	2024-11-08T04:00:00	3	Temperatura mínima	18.1
168856	7	Sololá	712	San Antonio Palopó	9	San Antonio Palopo	5	Mayo	2023-03-05T00:00:00	2024-11-08T04:00:00	5	Humedad	82
168857	7	Sololá	712	San Antonio Palopó	9	San Antonio Palopo	5	Mayo	2023-03-05T00:00:00	2024-11-08T04:00:00	6	Velocidad del viento	3.2
168858	7	Sololá	712	San Antonio Palopó	9	San Antonio Palopo	5	Mayo	2023-03-05T00:00:00	2024-11-08T04:00:00	7	Dirección del viento	3.22
168859	7	Sololá	712	San Antonio Palopó	9	San Antonio Palopo	5	Mayo	2023-03-05T00:00:00	2024-11-08T04:00:00	1	Precipitación	0
168860	7	Sololá	712	San Antonio Palopó	9	San Antonio Palopo	5	Mayo	2023-03-05T00:00:00	2024-11-08T04:00:00	8	Radiación solar	0
168861	7	Sololá	712	San Antonio Palopó	9	San Antonio Palopo	5	Mayo	2023-03-05T00:00:00	2024-11-08T05:00:00	2	Temperatura media	17.4
168862	7	Sololá	712	San Antonio Palopó	9	San Antonio Palopo	5	Mayo	2023-03-05T00:00:00	2024-11-08T05:00:00	4	Temperatura máxima	18.1
168863	7	Sololá	712	San Antonio Palopó	9	San Antonio Palopo	5	Mayo	2023-03-05T00:00:00	2024-11-08T05:00:00	3	Temperatura mínima	17.4
168864	7	Sololá	712	San Antonio Palopó	9	San Antonio Palopo	5	Mayo	2023-03-05T00:00:00	2024-11-08T05:00:00	5	Humedad	81
168865	7	Sololá	712	San Antonio Palopó	9	San Antonio Palopo	5	Mayo	2023-03-05T00:00:00	2024-11-08T05:00:00	6	Velocidad del viento	4.8
168866	7	Sololá	712	San Antonio Palopó	9	San Antonio Palopo	5	Mayo	2023-03-05T00:00:00	2024-11-08T05:00:00	7	Dirección del viento	4.83
168867	7	Sololá	712	San Antonio Palopó	9	San Antonio Palopo	5	Mayo	2023-03-05T00:00:00	2024-11-08T05:00:00	1	Precipitación	0
168868	7	Sololá	712	San Antonio Palopó	9	San Antonio Palopo	5	Mayo	2023-03-05T00:00:00	2024-11-08T05:00:00	8	Radiación solar	0
168869	7	Sololá	712	San Antonio Palopó	9	San Antonio Palopo	5	Mayo	2023-03-05T00:00:00	2024-11-08T06:00:00	2	Temperatura media	17.1
168870	7	Sololá	712	San Antonio Palopó	9	San Antonio Palopo	5	Mayo	2023-03-05T00:00:00	2024-11-08T06:00:00	4	Temperatura máxima	17.6
168871	7	Sololá	712	San Antonio Palopó	9	San Antonio Palopo	5	Mayo	2023-03-05T00:00:00	2024-11-08T06:00:00	3	Temperatura mínima	17
168872	7	Sololá	712	San Antonio Palopó	9	San Antonio Palopo	5	Mayo	2023-03-05T00:00:00	2024-11-08T06:00:00	5	Humedad	80
168873	7	Sololá	712	San Antonio Palopó	9	San Antonio Palopo	5	Mayo	2023-03-05T00:00:00	2024-11-08T06:00:00	6	Velocidad del viento	4.8
168874	7	Sololá	712	San Antonio Palopó	9	San Antonio Palopo	5	Mayo	2023-03-05T00:00:00	2024-11-08T06:00:00	7	Dirección del viento	4.83
168875	7	Sololá	712	San Antonio Palopó	9	San Antonio Palopo	5	Mayo	2023-03-05T00:00:00	2024-11-08T06:00:00	1	Precipitación	0
168876	7	Sololá	712	San Antonio Palopó	9	San Antonio Palopo	5	Mayo	2023-03-05T00:00:00	2024-11-08T06:00:00	8	Radiación solar	1
168877	7	Sololá	712	San Antonio Palopó	9	San Antonio Palopo	5	Mayo	2023-03-05T00:00:00	2024-11-08T07:00:00	2	Temperatura media	17.4
168878	7	Sololá	712	San Antonio Palopó	9	San Antonio Palopo	5	Mayo	2023-03-05T00:00:00	2024-11-08T07:00:00	4	Temperatura máxima	17.6
168879	7	Sololá	712	San Antonio Palopó	9	San Antonio Palopo	5	Mayo	2023-03-05T00:00:00	2024-11-08T07:00:00	3	Temperatura mínima	17.1
168880	7	Sololá	712	San Antonio Palopó	9	San Antonio Palopo	5	Mayo	2023-03-05T00:00:00	2024-11-08T07:00:00	5	Humedad	83
168881	7	Sololá	712	San Antonio Palopó	9	San Antonio Palopo	5	Mayo	2023-03-05T00:00:00	2024-11-08T07:00:00	6	Velocidad del viento	4.8
168882	7	Sololá	712	San Antonio Palopó	9	San Antonio Palopo	5	Mayo	2023-03-05T00:00:00	2024-11-08T07:00:00	7	Dirección del viento	4.83
168883	7	Sololá	712	San Antonio Palopó	9	San Antonio Palopo	5	Mayo	2023-03-05T00:00:00	2024-11-08T07:00:00	1	Precipitación	0
168884	7	Sololá	712	San Antonio Palopó	9	San Antonio Palopo	5	Mayo	2023-03-05T00:00:00	2024-11-08T07:00:00	8	Radiación solar	37
168885	7	Sololá	712	San Antonio Palopó	9	San Antonio Palopo	5	Mayo	2023-03-05T00:00:00	2024-11-08T08:00:00	2	Temperatura media	19.7
168886	7	Sololá	712	San Antonio Palopó	9	San Antonio Palopo	5	Mayo	2023-03-05T00:00:00	2024-11-08T08:00:00	4	Temperatura máxima	19.7
168887	7	Sololá	712	San Antonio Palopó	9	San Antonio Palopo	5	Mayo	2023-03-05T00:00:00	2024-11-08T08:00:00	3	Temperatura mínima	17.4
168888	7	Sololá	712	San Antonio Palopó	9	San Antonio Palopo	5	Mayo	2023-03-05T00:00:00	2024-11-08T08:00:00	5	Humedad	75
168889	7	Sololá	712	San Antonio Palopó	9	San Antonio Palopo	5	Mayo	2023-03-05T00:00:00	2024-11-08T08:00:00	6	Velocidad del viento	3.2
168890	7	Sololá	712	San Antonio Palopó	9	San Antonio Palopo	5	Mayo	2023-03-05T00:00:00	2024-11-08T08:00:00	7	Dirección del viento	3.22
168891	7	Sololá	712	San Antonio Palopó	9	San Antonio Palopo	5	Mayo	2023-03-05T00:00:00	2024-11-08T08:00:00	1	Precipitación	0
168892	7	Sololá	712	San Antonio Palopó	9	San Antonio Palopo	5	Mayo	2023-03-05T00:00:00	2024-11-08T08:00:00	8	Radiación solar	187
168893	7	Sololá	712	San Antonio Palopó	9	San Antonio Palopo	5	Mayo	2023-03-05T00:00:00	2024-11-08T09:00:00	2	Temperatura media	20.6
168894	7	Sololá	712	San Antonio Palopó	9	San Antonio Palopo	5	Mayo	2023-03-05T00:00:00	2024-11-08T09:00:00	4	Temperatura máxima	20.8
168895	7	Sololá	712	San Antonio Palopó	9	San Antonio Palopo	5	Mayo	2023-03-05T00:00:00	2024-11-08T09:00:00	3	Temperatura mínima	19.8
168896	7	Sololá	712	San Antonio Palopó	9	San Antonio Palopo	5	Mayo	2023-03-05T00:00:00	2024-11-08T09:00:00	5	Humedad	71
168897	7	Sololá	712	San Antonio Palopó	9	San Antonio Palopo	5	Mayo	2023-03-05T00:00:00	2024-11-08T09:00:00	6	Velocidad del viento	1.6
168898	7	Sololá	712	San Antonio Palopó	9	San Antonio Palopo	5	Mayo	2023-03-05T00:00:00	2024-11-08T09:00:00	7	Dirección del viento	1.61
168899	7	Sololá	712	San Antonio Palopó	9	San Antonio Palopo	5	Mayo	2023-03-05T00:00:00	2024-11-08T09:00:00	1	Precipitación	0
168900	7	Sololá	712	San Antonio Palopó	9	San Antonio Palopo	5	Mayo	2023-03-05T00:00:00	2024-11-08T09:00:00	8	Radiación solar	504
168901	7	Sololá	712	San Antonio Palopó	9	San Antonio Palopo	5	Mayo	2023-03-05T00:00:00	2024-11-08T10:00:00	2	Temperatura media	21.4
168902	7	Sololá	712	San Antonio Palopó	9	San Antonio Palopo	5	Mayo	2023-03-05T00:00:00	2024-11-08T10:00:00	4	Temperatura máxima	21.4
168903	7	Sololá	712	San Antonio Palopó	9	San Antonio Palopo	5	Mayo	2023-03-05T00:00:00	2024-11-08T10:00:00	3	Temperatura mínima	20.6
168904	7	Sololá	712	San Antonio Palopó	9	San Antonio Palopo	5	Mayo	2023-03-05T00:00:00	2024-11-08T10:00:00	5	Humedad	73
168905	7	Sololá	712	San Antonio Palopó	9	San Antonio Palopo	5	Mayo	2023-03-05T00:00:00	2024-11-08T10:00:00	6	Velocidad del viento	3.2
168906	7	Sololá	712	San Antonio Palopó	9	San Antonio Palopo	5	Mayo	2023-03-05T00:00:00	2024-11-08T10:00:00	7	Dirección del viento	3.22
168907	7	Sololá	712	San Antonio Palopó	9	San Antonio Palopo	5	Mayo	2023-03-05T00:00:00	2024-11-08T10:00:00	1	Precipitación	0
168908	7	Sololá	712	San Antonio Palopó	9	San Antonio Palopo	5	Mayo	2023-03-05T00:00:00	2024-11-08T10:00:00	8	Radiación solar	682
168909	7	Sololá	712	San Antonio Palopó	9	San Antonio Palopo	5	Mayo	2023-03-05T00:00:00	2024-11-08T11:00:00	2	Temperatura media	23.4
168910	7	Sololá	712	San Antonio Palopó	9	San Antonio Palopo	5	Mayo	2023-03-05T00:00:00	2024-11-08T11:00:00	4	Temperatura máxima	23.6
168911	7	Sololá	712	San Antonio Palopó	9	San Antonio Palopo	5	Mayo	2023-03-05T00:00:00	2024-11-08T11:00:00	3	Temperatura mínima	21.4
168912	7	Sololá	712	San Antonio Palopó	9	San Antonio Palopo	5	Mayo	2023-03-05T00:00:00	2024-11-08T11:00:00	5	Humedad	67
168913	7	Sololá	712	San Antonio Palopó	9	San Antonio Palopo	5	Mayo	2023-03-05T00:00:00	2024-11-08T11:00:00	6	Velocidad del viento	1.6
168914	7	Sololá	712	San Antonio Palopó	9	San Antonio Palopo	5	Mayo	2023-03-05T00:00:00	2024-11-08T11:00:00	7	Dirección del viento	1.61
168915	7	Sololá	712	San Antonio Palopó	9	San Antonio Palopo	5	Mayo	2023-03-05T00:00:00	2024-11-08T11:00:00	1	Precipitación	0
168916	7	Sololá	712	San Antonio Palopó	9	San Antonio Palopo	5	Mayo	2023-03-05T00:00:00	2024-11-08T11:00:00	8	Radiación solar	789
168917	7	Sololá	712	San Antonio Palopó	9	San Antonio Palopo	5	Mayo	2023-03-05T00:00:00	2024-11-08T12:00:00	2	Temperatura media	24.8
168918	7	Sololá	712	San Antonio Palopó	9	San Antonio Palopo	5	Mayo	2023-03-05T00:00:00	2024-11-08T12:00:00	4	Temperatura máxima	25
168919	7	Sololá	712	San Antonio Palopó	9	San Antonio Palopo	5	Mayo	2023-03-05T00:00:00	2024-11-08T12:00:00	3	Temperatura mínima	23.3
168920	7	Sololá	712	San Antonio Palopó	9	San Antonio Palopo	5	Mayo	2023-03-05T00:00:00	2024-11-08T12:00:00	5	Humedad	67
168921	7	Sololá	712	San Antonio Palopó	9	San Antonio Palopo	5	Mayo	2023-03-05T00:00:00	2024-11-08T12:00:00	6	Velocidad del viento	4.8
168922	7	Sololá	712	San Antonio Palopó	9	San Antonio Palopo	5	Mayo	2023-03-05T00:00:00	2024-11-08T12:00:00	7	Dirección del viento	4.83
168923	7	Sololá	712	San Antonio Palopó	9	San Antonio Palopo	5	Mayo	2023-03-05T00:00:00	2024-11-08T12:00:00	1	Precipitación	0
168924	7	Sololá	712	San Antonio Palopó	9	San Antonio Palopo	5	Mayo	2023-03-05T00:00:00	2024-11-08T12:00:00	8	Radiación solar	912
168925	7	Sololá	712	San Antonio Palopó	9	San Antonio Palopo	5	Mayo	2023-03-05T00:00:00	2024-11-08T13:00:00	2	Temperatura media	24.3
168926	7	Sololá	712	San Antonio Palopó	9	San Antonio Palopo	5	Mayo	2023-03-05T00:00:00	2024-11-08T13:00:00	4	Temperatura máxima	25.2
168927	7	Sololá	712	San Antonio Palopó	9	San Antonio Palopo	5	Mayo	2023-03-05T00:00:00	2024-11-08T13:00:00	3	Temperatura mínima	24.1
168928	7	Sololá	712	San Antonio Palopó	9	San Antonio Palopo	5	Mayo	2023-03-05T00:00:00	2024-11-08T13:00:00	5	Humedad	73
168929	7	Sololá	712	San Antonio Palopó	9	San Antonio Palopo	5	Mayo	2023-03-05T00:00:00	2024-11-08T13:00:00	6	Velocidad del viento	6.4
168930	7	Sololá	712	San Antonio Palopó	9	San Antonio Palopo	5	Mayo	2023-03-05T00:00:00	2024-11-08T13:00:00	7	Dirección del viento	6.44
168931	7	Sololá	712	San Antonio Palopó	9	San Antonio Palopo	5	Mayo	2023-03-05T00:00:00	2024-11-08T13:00:00	1	Precipitación	0
168932	7	Sololá	712	San Antonio Palopó	9	San Antonio Palopo	5	Mayo	2023-03-05T00:00:00	2024-11-08T13:00:00	8	Radiación solar	895
168933	7	Sololá	712	San Antonio Palopó	9	San Antonio Palopo	5	Mayo	2023-03-05T00:00:00	2024-11-08T14:00:00	2	Temperatura media	24.8
168934	7	Sololá	712	San Antonio Palopó	9	San Antonio Palopo	5	Mayo	2023-03-05T00:00:00	2024-11-08T14:00:00	4	Temperatura máxima	25.4
168935	7	Sololá	712	San Antonio Palopó	9	San Antonio Palopo	5	Mayo	2023-03-05T00:00:00	2024-11-08T14:00:00	3	Temperatura mínima	24
168936	7	Sololá	712	San Antonio Palopó	9	San Antonio Palopo	5	Mayo	2023-03-05T00:00:00	2024-11-08T14:00:00	5	Humedad	70
168937	7	Sololá	712	San Antonio Palopó	9	San Antonio Palopo	5	Mayo	2023-03-05T00:00:00	2024-11-08T14:00:00	6	Velocidad del viento	6.4
168938	7	Sololá	712	San Antonio Palopó	9	San Antonio Palopo	5	Mayo	2023-03-05T00:00:00	2024-11-08T14:00:00	7	Dirección del viento	6.44
168939	7	Sololá	712	San Antonio Palopó	9	San Antonio Palopo	5	Mayo	2023-03-05T00:00:00	2024-11-08T14:00:00	1	Precipitación	0
168940	7	Sololá	712	San Antonio Palopó	9	San Antonio Palopo	5	Mayo	2023-03-05T00:00:00	2024-11-08T14:00:00	8	Radiación solar	805
168941	7	Sololá	712	San Antonio Palopó	9	San Antonio Palopo	5	Mayo	2023-03-05T00:00:00	2024-11-08T15:00:00	2	Temperatura media	23.4
168942	7	Sololá	712	San Antonio Palopó	9	San Antonio Palopo	5	Mayo	2023-03-05T00:00:00	2024-11-08T15:00:00	4	Temperatura máxima	25.3
168943	7	Sololá	712	San Antonio Palopó	9	San Antonio Palopo	5	Mayo	2023-03-05T00:00:00	2024-11-08T15:00:00	3	Temperatura mínima	23.3
168944	7	Sololá	712	San Antonio Palopó	9	San Antonio Palopo	5	Mayo	2023-03-05T00:00:00	2024-11-08T15:00:00	5	Humedad	75
168945	7	Sololá	712	San Antonio Palopó	9	San Antonio Palopo	5	Mayo	2023-03-05T00:00:00	2024-11-08T15:00:00	6	Velocidad del viento	6.4
168946	7	Sololá	712	San Antonio Palopó	9	San Antonio Palopo	5	Mayo	2023-03-05T00:00:00	2024-11-08T15:00:00	7	Dirección del viento	6.44
168947	7	Sololá	712	San Antonio Palopó	9	San Antonio Palopo	5	Mayo	2023-03-05T00:00:00	2024-11-08T15:00:00	1	Precipitación	0
168948	7	Sololá	712	San Antonio Palopó	9	San Antonio Palopo	5	Mayo	2023-03-05T00:00:00	2024-11-08T15:00:00	8	Radiación solar	371
168949	7	Sololá	712	San Antonio Palopó	9	San Antonio Palopo	5	Mayo	2023-03-05T00:00:00	2024-11-08T16:00:00	2	Temperatura media	22.4
168950	7	Sololá	712	San Antonio Palopó	9	San Antonio Palopo	5	Mayo	2023-03-05T00:00:00	2024-11-08T16:00:00	4	Temperatura máxima	23.4
168951	7	Sololá	712	San Antonio Palopó	9	San Antonio Palopo	5	Mayo	2023-03-05T00:00:00	2024-11-08T16:00:00	3	Temperatura mínima	22.3
168952	7	Sololá	712	San Antonio Palopó	9	San Antonio Palopo	5	Mayo	2023-03-05T00:00:00	2024-11-08T16:00:00	5	Humedad	80
168953	7	Sololá	712	San Antonio Palopó	9	San Antonio Palopo	5	Mayo	2023-03-05T00:00:00	2024-11-08T16:00:00	6	Velocidad del viento	4.8
168954	7	Sololá	712	San Antonio Palopó	9	San Antonio Palopo	5	Mayo	2023-03-05T00:00:00	2024-11-08T16:00:00	7	Dirección del viento	4.83
168955	7	Sololá	712	San Antonio Palopó	9	San Antonio Palopo	5	Mayo	2023-03-05T00:00:00	2024-11-08T16:00:00	1	Precipitación	0
168956	7	Sololá	712	San Antonio Palopó	9	San Antonio Palopo	5	Mayo	2023-03-05T00:00:00	2024-11-08T16:00:00	8	Radiación solar	117
168957	7	Sololá	712	San Antonio Palopó	9	San Antonio Palopo	5	Mayo	2023-03-05T00:00:00	2024-11-08T17:00:00	2	Temperatura media	23.7
168958	7	Sololá	712	San Antonio Palopó	9	San Antonio Palopo	5	Mayo	2023-03-05T00:00:00	2024-11-08T17:00:00	4	Temperatura máxima	23.7
168959	7	Sololá	712	San Antonio Palopó	9	San Antonio Palopo	5	Mayo	2023-03-05T00:00:00	2024-11-08T17:00:00	3	Temperatura mínima	22.3
168960	7	Sololá	712	San Antonio Palopó	9	San Antonio Palopo	5	Mayo	2023-03-05T00:00:00	2024-11-08T17:00:00	5	Humedad	79
168961	7	Sololá	712	San Antonio Palopó	9	San Antonio Palopo	5	Mayo	2023-03-05T00:00:00	2024-11-08T17:00:00	6	Velocidad del viento	1.6
168962	7	Sololá	712	San Antonio Palopó	9	San Antonio Palopo	5	Mayo	2023-03-05T00:00:00	2024-11-08T17:00:00	7	Dirección del viento	1.61
168963	7	Sololá	712	San Antonio Palopó	9	San Antonio Palopo	5	Mayo	2023-03-05T00:00:00	2024-11-08T17:00:00	1	Precipitación	0
168964	7	Sololá	712	San Antonio Palopó	9	San Antonio Palopo	5	Mayo	2023-03-05T00:00:00	2024-11-08T17:00:00	8	Radiación solar	166
168965	7	Sololá	712	San Antonio Palopó	9	San Antonio Palopo	5	Mayo	2023-03-05T00:00:00	2024-11-08T18:00:00	2	Temperatura media	23.7
168966	7	Sololá	712	San Antonio Palopó	9	San Antonio Palopo	5	Mayo	2023-03-05T00:00:00	2024-11-08T18:00:00	4	Temperatura máxima	24.1
168967	7	Sololá	712	San Antonio Palopó	9	San Antonio Palopo	5	Mayo	2023-03-05T00:00:00	2024-11-08T18:00:00	3	Temperatura mínima	23.6
168968	7	Sololá	712	San Antonio Palopó	9	San Antonio Palopo	5	Mayo	2023-03-05T00:00:00	2024-11-08T18:00:00	5	Humedad	64
168969	7	Sololá	712	San Antonio Palopó	9	San Antonio Palopo	5	Mayo	2023-03-05T00:00:00	2024-11-08T18:00:00	6	Velocidad del viento	4.8
168970	7	Sololá	712	San Antonio Palopó	9	San Antonio Palopo	5	Mayo	2023-03-05T00:00:00	2024-11-08T18:00:00	7	Dirección del viento	4.83
168971	7	Sololá	712	San Antonio Palopó	9	San Antonio Palopo	5	Mayo	2023-03-05T00:00:00	2024-11-08T18:00:00	1	Precipitación	0
168972	7	Sololá	712	San Antonio Palopó	9	San Antonio Palopo	5	Mayo	2023-03-05T00:00:00	2024-11-08T18:00:00	8	Radiación solar	112
168973	7	Sololá	712	San Antonio Palopó	9	San Antonio Palopo	5	Mayo	2023-03-05T00:00:00	2024-11-08T19:00:00	2	Temperatura media	22.4
168974	7	Sololá	712	San Antonio Palopó	9	San Antonio Palopo	5	Mayo	2023-03-05T00:00:00	2024-11-08T19:00:00	4	Temperatura máxima	23.7
168975	7	Sololá	712	San Antonio Palopó	9	San Antonio Palopo	5	Mayo	2023-03-05T00:00:00	2024-11-08T19:00:00	3	Temperatura mínima	22.4
168976	7	Sololá	712	San Antonio Palopó	9	San Antonio Palopo	5	Mayo	2023-03-05T00:00:00	2024-11-08T19:00:00	5	Humedad	67
168977	7	Sololá	712	San Antonio Palopó	9	San Antonio Palopo	5	Mayo	2023-03-05T00:00:00	2024-11-08T19:00:00	6	Velocidad del viento	11.3
168978	7	Sololá	712	San Antonio Palopó	9	San Antonio Palopo	5	Mayo	2023-03-05T00:00:00	2024-11-08T19:00:00	7	Dirección del viento	11.27
168979	7	Sololá	712	San Antonio Palopó	9	San Antonio Palopo	5	Mayo	2023-03-05T00:00:00	2024-11-08T19:00:00	1	Precipitación	0
168980	7	Sololá	712	San Antonio Palopó	9	San Antonio Palopo	5	Mayo	2023-03-05T00:00:00	2024-11-08T19:00:00	8	Radiación solar	0
168981	7	Sololá	712	San Antonio Palopó	9	San Antonio Palopo	5	Mayo	2023-03-05T00:00:00	2024-11-08T20:00:00	2	Temperatura media	22.3
168982	7	Sololá	712	San Antonio Palopó	9	San Antonio Palopo	5	Mayo	2023-03-05T00:00:00	2024-11-08T20:00:00	4	Temperatura máxima	22.8
168983	7	Sololá	712	San Antonio Palopó	9	San Antonio Palopo	5	Mayo	2023-03-05T00:00:00	2024-11-08T20:00:00	3	Temperatura mínima	22.3
168984	7	Sololá	712	San Antonio Palopó	9	San Antonio Palopo	5	Mayo	2023-03-05T00:00:00	2024-11-08T20:00:00	5	Humedad	70
168985	7	Sololá	712	San Antonio Palopó	9	San Antonio Palopo	5	Mayo	2023-03-05T00:00:00	2024-11-08T20:00:00	6	Velocidad del viento	8
168986	7	Sololá	712	San Antonio Palopó	9	San Antonio Palopo	5	Mayo	2023-03-05T00:00:00	2024-11-08T20:00:00	7	Dirección del viento	8.05
168987	7	Sololá	712	San Antonio Palopó	9	San Antonio Palopo	5	Mayo	2023-03-05T00:00:00	2024-11-08T20:00:00	1	Precipitación	0
168988	7	Sololá	712	San Antonio Palopó	9	San Antonio Palopo	5	Mayo	2023-03-05T00:00:00	2024-11-08T20:00:00	8	Radiación solar	0
168989	7	Sololá	712	San Antonio Palopó	9	San Antonio Palopo	5	Mayo	2023-03-05T00:00:00	2024-11-08T21:00:00	2	Temperatura media	21.8
168990	7	Sololá	712	San Antonio Palopó	9	San Antonio Palopo	5	Mayo	2023-03-05T00:00:00	2024-11-08T21:00:00	4	Temperatura máxima	22.3
168991	7	Sololá	712	San Antonio Palopó	9	San Antonio Palopo	5	Mayo	2023-03-05T00:00:00	2024-11-08T21:00:00	3	Temperatura mínima	21.2
168992	7	Sololá	712	San Antonio Palopó	9	San Antonio Palopo	5	Mayo	2023-03-05T00:00:00	2024-11-08T21:00:00	5	Humedad	69
168993	7	Sololá	712	San Antonio Palopó	9	San Antonio Palopo	5	Mayo	2023-03-05T00:00:00	2024-11-08T21:00:00	6	Velocidad del viento	6.4
168994	7	Sololá	712	San Antonio Palopó	9	San Antonio Palopo	5	Mayo	2023-03-05T00:00:00	2024-11-08T21:00:00	7	Dirección del viento	6.44
168995	7	Sololá	712	San Antonio Palopó	9	San Antonio Palopo	5	Mayo	2023-03-05T00:00:00	2024-11-08T21:00:00	1	Precipitación	0
168996	7	Sololá	712	San Antonio Palopó	9	San Antonio Palopo	5	Mayo	2023-03-05T00:00:00	2024-11-08T21:00:00	8	Radiación solar	0
168997	7	Sololá	712	San Antonio Palopó	9	San Antonio Palopo	5	Mayo	2023-03-05T00:00:00	2024-11-08T22:00:00	2	Temperatura media	21.4
168998	7	Sololá	712	San Antonio Palopó	9	San Antonio Palopo	5	Mayo	2023-03-05T00:00:00	2024-11-08T22:00:00	4	Temperatura máxima	21.9
168999	7	Sololá	712	San Antonio Palopó	9	San Antonio Palopo	5	Mayo	2023-03-05T00:00:00	2024-11-08T22:00:00	3	Temperatura mínima	21.1
169000	7	Sololá	712	San Antonio Palopó	9	San Antonio Palopo	5	Mayo	2023-03-05T00:00:00	2024-11-08T22:00:00	5	Humedad	70
169001	7	Sololá	712	San Antonio Palopó	9	San Antonio Palopo	5	Mayo	2023-03-05T00:00:00	2024-11-08T22:00:00	6	Velocidad del viento	6.4
169002	7	Sololá	712	San Antonio Palopó	9	San Antonio Palopo	5	Mayo	2023-03-05T00:00:00	2024-11-08T22:00:00	7	Dirección del viento	6.44
169003	7	Sololá	712	San Antonio Palopó	9	San Antonio Palopo	5	Mayo	2023-03-05T00:00:00	2024-11-08T22:00:00	1	Precipitación	0
169004	7	Sololá	712	San Antonio Palopó	9	San Antonio Palopo	5	Mayo	2023-03-05T00:00:00	2024-11-08T22:00:00	8	Radiación solar	0
169005	7	Sololá	712	San Antonio Palopó	9	San Antonio Palopo	5	Mayo	2023-03-05T00:00:00	2024-11-08T23:00:00	2	Temperatura media	20.9
169006	7	Sololá	712	San Antonio Palopó	9	San Antonio Palopo	5	Mayo	2023-03-05T00:00:00	2024-11-08T23:00:00	4	Temperatura máxima	21.5
169007	7	Sololá	712	San Antonio Palopó	9	San Antonio Palopo	5	Mayo	2023-03-05T00:00:00	2024-11-08T23:00:00	3	Temperatura mínima	20.1
169008	7	Sololá	712	San Antonio Palopó	9	San Antonio Palopo	5	Mayo	2023-03-05T00:00:00	2024-11-08T23:00:00	5	Humedad	69
169009	7	Sololá	712	San Antonio Palopó	9	San Antonio Palopo	5	Mayo	2023-03-05T00:00:00	2024-11-08T23:00:00	6	Velocidad del viento	4.8
169010	7	Sololá	712	San Antonio Palopó	9	San Antonio Palopo	5	Mayo	2023-03-05T00:00:00	2024-11-08T23:00:00	7	Dirección del viento	4.83
169011	7	Sololá	712	San Antonio Palopó	9	San Antonio Palopo	5	Mayo	2023-03-05T00:00:00	2024-11-08T23:00:00	1	Precipitación	0
169012	7	Sololá	712	San Antonio Palopó	9	San Antonio Palopo	5	Mayo	2023-03-05T00:00:00	2024-11-08T23:00:00	8	Radiación solar	0
169013	7	Sololá	712	San Antonio Palopó	9	San Antonio Palopo	5	Mayo	2023-04-05T00:00:00	2024-11-08T00:00:00	2	Temperatura media	20.6
169014	7	Sololá	712	San Antonio Palopó	9	San Antonio Palopo	5	Mayo	2023-04-05T00:00:00	2024-11-08T00:00:00	4	Temperatura máxima	21.1
169015	7	Sololá	712	San Antonio Palopó	9	San Antonio Palopo	5	Mayo	2023-04-05T00:00:00	2024-11-08T00:00:00	3	Temperatura mínima	20.6
169016	7	Sololá	712	San Antonio Palopó	9	San Antonio Palopo	5	Mayo	2023-04-05T00:00:00	2024-11-08T00:00:00	5	Humedad	70
169017	7	Sololá	712	San Antonio Palopó	9	San Antonio Palopo	5	Mayo	2023-04-05T00:00:00	2024-11-08T00:00:00	6	Velocidad del viento	9.7
169018	7	Sololá	712	San Antonio Palopó	9	San Antonio Palopo	5	Mayo	2023-04-05T00:00:00	2024-11-08T00:00:00	7	Dirección del viento	9.66
169019	7	Sololá	712	San Antonio Palopó	9	San Antonio Palopo	5	Mayo	2023-04-05T00:00:00	2024-11-08T00:00:00	1	Precipitación	0
169020	7	Sololá	712	San Antonio Palopó	9	San Antonio Palopo	5	Mayo	2023-04-05T00:00:00	2024-11-08T00:00:00	8	Radiación solar	0
169021	7	Sololá	712	San Antonio Palopó	9	San Antonio Palopo	5	Mayo	2023-04-05T00:00:00	2024-11-08T01:00:00	2	Temperatura media	20.3
169022	7	Sololá	712	San Antonio Palopó	9	San Antonio Palopo	5	Mayo	2023-04-05T00:00:00	2024-11-08T01:00:00	4	Temperatura máxima	20.6
169023	7	Sololá	712	San Antonio Palopó	9	San Antonio Palopo	5	Mayo	2023-04-05T00:00:00	2024-11-08T01:00:00	3	Temperatura mínima	20.3
169024	7	Sololá	712	San Antonio Palopó	9	San Antonio Palopo	5	Mayo	2023-04-05T00:00:00	2024-11-08T01:00:00	5	Humedad	71
169025	7	Sololá	712	San Antonio Palopó	9	San Antonio Palopo	5	Mayo	2023-04-05T00:00:00	2024-11-08T01:00:00	6	Velocidad del viento	8
169026	7	Sololá	712	San Antonio Palopó	9	San Antonio Palopo	5	Mayo	2023-04-05T00:00:00	2024-11-08T01:00:00	7	Dirección del viento	8.05
169027	7	Sololá	712	San Antonio Palopó	9	San Antonio Palopo	5	Mayo	2023-04-05T00:00:00	2024-11-08T01:00:00	1	Precipitación	0
169028	7	Sololá	712	San Antonio Palopó	9	San Antonio Palopo	5	Mayo	2023-04-05T00:00:00	2024-11-08T01:00:00	8	Radiación solar	0
169029	7	Sololá	712	San Antonio Palopó	9	San Antonio Palopo	5	Mayo	2023-04-05T00:00:00	2024-11-08T02:00:00	2	Temperatura media	21
169030	7	Sololá	712	San Antonio Palopó	9	San Antonio Palopo	5	Mayo	2023-04-05T00:00:00	2024-11-08T02:00:00	4	Temperatura máxima	21.1
169031	7	Sololá	712	San Antonio Palopó	9	San Antonio Palopo	5	Mayo	2023-04-05T00:00:00	2024-11-08T02:00:00	3	Temperatura mínima	20.2
169032	7	Sololá	712	San Antonio Palopó	9	San Antonio Palopo	5	Mayo	2023-04-05T00:00:00	2024-11-08T02:00:00	5	Humedad	67
169033	7	Sololá	712	San Antonio Palopó	9	San Antonio Palopo	5	Mayo	2023-04-05T00:00:00	2024-11-08T02:00:00	6	Velocidad del viento	9.7
169034	7	Sololá	712	San Antonio Palopó	9	San Antonio Palopo	5	Mayo	2023-04-05T00:00:00	2024-11-08T02:00:00	7	Dirección del viento	9.66
169035	7	Sololá	712	San Antonio Palopó	9	San Antonio Palopo	5	Mayo	2023-04-05T00:00:00	2024-11-08T02:00:00	1	Precipitación	0
169036	7	Sololá	712	San Antonio Palopó	9	San Antonio Palopo	5	Mayo	2023-04-05T00:00:00	2024-11-08T02:00:00	8	Radiación solar	0
169037	7	Sololá	712	San Antonio Palopó	9	San Antonio Palopo	5	Mayo	2023-04-05T00:00:00	2024-11-08T03:00:00	2	Temperatura media	20.4
169038	7	Sololá	712	San Antonio Palopó	9	San Antonio Palopo	5	Mayo	2023-04-05T00:00:00	2024-11-08T03:00:00	4	Temperatura máxima	21.1
169039	7	Sololá	712	San Antonio Palopó	9	San Antonio Palopo	5	Mayo	2023-04-05T00:00:00	2024-11-08T03:00:00	3	Temperatura mínima	20.2
169040	7	Sololá	712	San Antonio Palopó	9	San Antonio Palopo	5	Mayo	2023-04-05T00:00:00	2024-11-08T03:00:00	5	Humedad	67
169041	7	Sololá	712	San Antonio Palopó	9	San Antonio Palopo	5	Mayo	2023-04-05T00:00:00	2024-11-08T03:00:00	6	Velocidad del viento	6.4
169042	7	Sololá	712	San Antonio Palopó	9	San Antonio Palopo	5	Mayo	2023-04-05T00:00:00	2024-11-08T03:00:00	7	Dirección del viento	6.44
169043	7	Sololá	712	San Antonio Palopó	9	San Antonio Palopo	5	Mayo	2023-04-05T00:00:00	2024-11-08T03:00:00	1	Precipitación	0
169044	7	Sololá	712	San Antonio Palopó	9	San Antonio Palopo	5	Mayo	2023-04-05T00:00:00	2024-11-08T03:00:00	8	Radiación solar	0
169045	7	Sololá	712	San Antonio Palopó	9	San Antonio Palopo	5	Mayo	2023-04-05T00:00:00	2024-11-08T04:00:00	2	Temperatura media	20.1
169046	7	Sololá	712	San Antonio Palopó	9	San Antonio Palopo	5	Mayo	2023-04-05T00:00:00	2024-11-08T04:00:00	4	Temperatura máxima	20.6
169047	7	Sololá	712	San Antonio Palopó	9	San Antonio Palopo	5	Mayo	2023-04-05T00:00:00	2024-11-08T04:00:00	3	Temperatura mínima	20
169048	7	Sololá	712	San Antonio Palopó	9	San Antonio Palopo	5	Mayo	2023-04-05T00:00:00	2024-11-08T04:00:00	5	Humedad	70
169049	7	Sololá	712	San Antonio Palopó	9	San Antonio Palopo	5	Mayo	2023-04-05T00:00:00	2024-11-08T04:00:00	6	Velocidad del viento	4.8
169050	7	Sololá	712	San Antonio Palopó	9	San Antonio Palopo	5	Mayo	2023-04-05T00:00:00	2024-11-08T04:00:00	7	Dirección del viento	4.83
169051	7	Sololá	712	San Antonio Palopó	9	San Antonio Palopo	5	Mayo	2023-04-05T00:00:00	2024-11-08T04:00:00	1	Precipitación	0
169052	7	Sololá	712	San Antonio Palopó	9	San Antonio Palopo	5	Mayo	2023-04-05T00:00:00	2024-11-08T04:00:00	8	Radiación solar	0
169053	7	Sololá	712	San Antonio Palopó	9	San Antonio Palopo	5	Mayo	2023-04-05T00:00:00	2024-11-08T05:00:00	2	Temperatura media	20.1
169054	7	Sololá	712	San Antonio Palopó	9	San Antonio Palopo	5	Mayo	2023-04-05T00:00:00	2024-11-08T05:00:00	4	Temperatura máxima	20.7
169055	7	Sololá	712	San Antonio Palopó	9	San Antonio Palopo	5	Mayo	2023-04-05T00:00:00	2024-11-08T05:00:00	3	Temperatura mínima	19.8
169056	7	Sololá	712	San Antonio Palopó	9	San Antonio Palopo	5	Mayo	2023-04-05T00:00:00	2024-11-08T05:00:00	5	Humedad	67
169057	7	Sololá	712	San Antonio Palopó	9	San Antonio Palopo	5	Mayo	2023-04-05T00:00:00	2024-11-08T05:00:00	6	Velocidad del viento	4.8
169058	7	Sololá	712	San Antonio Palopó	9	San Antonio Palopo	5	Mayo	2023-04-05T00:00:00	2024-11-08T05:00:00	7	Dirección del viento	4.83
169059	7	Sololá	712	San Antonio Palopó	9	San Antonio Palopo	5	Mayo	2023-04-05T00:00:00	2024-11-08T05:00:00	1	Precipitación	0
169060	7	Sololá	712	San Antonio Palopó	9	San Antonio Palopo	5	Mayo	2023-04-05T00:00:00	2024-11-08T05:00:00	8	Radiación solar	0
169061	7	Sololá	712	San Antonio Palopó	9	San Antonio Palopo	5	Mayo	2023-04-05T00:00:00	2024-11-08T06:00:00	2	Temperatura media	19.1
169062	7	Sololá	712	San Antonio Palopó	9	San Antonio Palopo	5	Mayo	2023-04-05T00:00:00	2024-11-08T06:00:00	4	Temperatura máxima	20
169063	7	Sololá	712	San Antonio Palopó	9	San Antonio Palopo	5	Mayo	2023-04-05T00:00:00	2024-11-08T06:00:00	3	Temperatura mínima	18.8
169064	7	Sololá	712	San Antonio Palopó	9	San Antonio Palopo	5	Mayo	2023-04-05T00:00:00	2024-11-08T06:00:00	5	Humedad	72
169065	7	Sololá	712	San Antonio Palopó	9	San Antonio Palopo	5	Mayo	2023-04-05T00:00:00	2024-11-08T06:00:00	6	Velocidad del viento	4.8
169066	7	Sololá	712	San Antonio Palopó	9	San Antonio Palopo	5	Mayo	2023-04-05T00:00:00	2024-11-08T06:00:00	7	Dirección del viento	4.83
169067	7	Sololá	712	San Antonio Palopó	9	San Antonio Palopo	5	Mayo	2023-04-05T00:00:00	2024-11-08T06:00:00	1	Precipitación	0
169068	7	Sololá	712	San Antonio Palopó	9	San Antonio Palopo	5	Mayo	2023-04-05T00:00:00	2024-11-08T06:00:00	8	Radiación solar	3
169069	7	Sololá	712	San Antonio Palopó	9	San Antonio Palopo	5	Mayo	2023-04-05T00:00:00	2024-11-08T07:00:00	2	Temperatura media	20.5
169070	7	Sololá	712	San Antonio Palopó	9	San Antonio Palopo	5	Mayo	2023-04-05T00:00:00	2024-11-08T07:00:00	4	Temperatura máxima	20.6
169071	7	Sololá	712	San Antonio Palopó	9	San Antonio Palopo	5	Mayo	2023-04-05T00:00:00	2024-11-08T07:00:00	3	Temperatura mínima	19.1
169072	7	Sololá	712	San Antonio Palopó	9	San Antonio Palopo	5	Mayo	2023-04-05T00:00:00	2024-11-08T07:00:00	5	Humedad	64
169073	7	Sololá	712	San Antonio Palopó	9	San Antonio Palopo	5	Mayo	2023-04-05T00:00:00	2024-11-08T07:00:00	6	Velocidad del viento	3.2
169074	7	Sololá	712	San Antonio Palopó	9	San Antonio Palopo	5	Mayo	2023-04-05T00:00:00	2024-11-08T07:00:00	7	Dirección del viento	3.22
169075	7	Sololá	712	San Antonio Palopó	9	San Antonio Palopo	5	Mayo	2023-04-05T00:00:00	2024-11-08T07:00:00	1	Precipitación	0
169076	7	Sololá	712	San Antonio Palopó	9	San Antonio Palopo	5	Mayo	2023-04-05T00:00:00	2024-11-08T07:00:00	8	Radiación solar	40
169077	7	Sololá	712	San Antonio Palopó	9	San Antonio Palopo	5	Mayo	2023-04-05T00:00:00	2024-11-08T08:00:00	2	Temperatura media	21
169078	7	Sololá	712	San Antonio Palopó	9	San Antonio Palopo	5	Mayo	2023-04-05T00:00:00	2024-11-08T08:00:00	4	Temperatura máxima	21
169079	7	Sololá	712	San Antonio Palopó	9	San Antonio Palopo	5	Mayo	2023-04-05T00:00:00	2024-11-08T08:00:00	3	Temperatura mínima	20.2
169080	7	Sololá	712	San Antonio Palopó	9	San Antonio Palopo	5	Mayo	2023-04-05T00:00:00	2024-11-08T08:00:00	5	Humedad	73
169081	7	Sololá	712	San Antonio Palopó	9	San Antonio Palopo	5	Mayo	2023-04-05T00:00:00	2024-11-08T08:00:00	6	Velocidad del viento	3.2
169082	7	Sololá	712	San Antonio Palopó	9	San Antonio Palopo	5	Mayo	2023-04-05T00:00:00	2024-11-08T08:00:00	7	Dirección del viento	3.22
169083	7	Sololá	712	San Antonio Palopó	9	San Antonio Palopo	5	Mayo	2023-04-05T00:00:00	2024-11-08T08:00:00	1	Precipitación	0
169084	7	Sololá	712	San Antonio Palopó	9	San Antonio Palopo	5	Mayo	2023-04-05T00:00:00	2024-11-08T08:00:00	8	Radiación solar	187
169085	7	Sololá	712	San Antonio Palopó	9	San Antonio Palopo	5	Mayo	2023-04-05T00:00:00	2024-11-08T09:00:00	2	Temperatura media	22.1
169086	7	Sololá	712	San Antonio Palopó	9	San Antonio Palopo	5	Mayo	2023-04-05T00:00:00	2024-11-08T09:00:00	4	Temperatura máxima	22.1
169087	7	Sololá	712	San Antonio Palopó	9	San Antonio Palopo	5	Mayo	2023-04-05T00:00:00	2024-11-08T09:00:00	3	Temperatura mínima	21
169088	7	Sololá	712	San Antonio Palopó	9	San Antonio Palopo	5	Mayo	2023-04-05T00:00:00	2024-11-08T09:00:00	5	Humedad	70
169089	7	Sololá	712	San Antonio Palopó	9	San Antonio Palopo	5	Mayo	2023-04-05T00:00:00	2024-11-08T09:00:00	6	Velocidad del viento	1.6
169090	7	Sololá	712	San Antonio Palopó	9	San Antonio Palopo	5	Mayo	2023-04-05T00:00:00	2024-11-08T09:00:00	7	Dirección del viento	1.61
169091	7	Sololá	712	San Antonio Palopó	9	San Antonio Palopo	5	Mayo	2023-04-05T00:00:00	2024-11-08T09:00:00	1	Precipitación	0
169092	7	Sololá	712	San Antonio Palopó	9	San Antonio Palopo	5	Mayo	2023-04-05T00:00:00	2024-11-08T09:00:00	8	Radiación solar	505
169093	7	Sololá	712	San Antonio Palopó	9	San Antonio Palopo	5	Mayo	2023-04-05T00:00:00	2024-11-08T10:00:00	2	Temperatura media	22.9
169094	7	Sololá	712	San Antonio Palopó	9	San Antonio Palopo	5	Mayo	2023-04-05T00:00:00	2024-11-08T10:00:00	4	Temperatura máxima	23.2
169095	7	Sololá	712	San Antonio Palopó	9	San Antonio Palopo	5	Mayo	2023-04-05T00:00:00	2024-11-08T10:00:00	3	Temperatura mínima	22
169096	7	Sololá	712	San Antonio Palopó	9	San Antonio Palopo	5	Mayo	2023-04-05T00:00:00	2024-11-08T10:00:00	5	Humedad	68
169097	7	Sololá	712	San Antonio Palopó	9	San Antonio Palopo	5	Mayo	2023-04-05T00:00:00	2024-11-08T10:00:00	6	Velocidad del viento	3.2
169098	7	Sololá	712	San Antonio Palopó	9	San Antonio Palopo	5	Mayo	2023-04-05T00:00:00	2024-11-08T10:00:00	7	Dirección del viento	3.22
169099	7	Sololá	712	San Antonio Palopó	9	San Antonio Palopo	5	Mayo	2023-04-05T00:00:00	2024-11-08T10:00:00	1	Precipitación	0
169100	7	Sololá	712	San Antonio Palopó	9	San Antonio Palopo	5	Mayo	2023-04-05T00:00:00	2024-11-08T10:00:00	8	Radiación solar	706
169101	7	Sololá	712	San Antonio Palopó	9	San Antonio Palopo	5	Mayo	2023-04-05T00:00:00	2024-11-08T11:00:00	2	Temperatura media	24.4
169102	7	Sololá	712	San Antonio Palopó	9	San Antonio Palopo	5	Mayo	2023-04-05T00:00:00	2024-11-08T11:00:00	4	Temperatura máxima	24.4
169103	7	Sololá	712	San Antonio Palopó	9	San Antonio Palopo	5	Mayo	2023-04-05T00:00:00	2024-11-08T11:00:00	3	Temperatura mínima	22.9
169104	7	Sololá	712	San Antonio Palopó	9	San Antonio Palopo	5	Mayo	2023-04-05T00:00:00	2024-11-08T11:00:00	5	Humedad	68
169105	7	Sololá	712	San Antonio Palopó	9	San Antonio Palopo	5	Mayo	2023-04-05T00:00:00	2024-11-08T11:00:00	6	Velocidad del viento	3.2
169106	7	Sololá	712	San Antonio Palopó	9	San Antonio Palopo	5	Mayo	2023-04-05T00:00:00	2024-11-08T11:00:00	7	Dirección del viento	3.22
169107	7	Sololá	712	San Antonio Palopó	9	San Antonio Palopo	5	Mayo	2023-04-05T00:00:00	2024-11-08T11:00:00	1	Precipitación	0
169108	7	Sololá	712	San Antonio Palopó	9	San Antonio Palopo	5	Mayo	2023-04-05T00:00:00	2024-11-08T11:00:00	8	Radiación solar	855
169109	7	Sololá	712	San Antonio Palopó	9	San Antonio Palopo	5	Mayo	2023-04-05T00:00:00	2024-11-08T12:00:00	2	Temperatura media	24.2
169110	7	Sololá	712	San Antonio Palopó	9	San Antonio Palopo	5	Mayo	2023-04-05T00:00:00	2024-11-08T12:00:00	4	Temperatura máxima	25
169111	7	Sololá	712	San Antonio Palopó	9	San Antonio Palopo	5	Mayo	2023-04-05T00:00:00	2024-11-08T12:00:00	3	Temperatura mínima	24.2
169112	7	Sololá	712	San Antonio Palopó	9	San Antonio Palopo	5	Mayo	2023-04-05T00:00:00	2024-11-08T12:00:00	5	Humedad	70
169113	7	Sololá	712	San Antonio Palopó	9	San Antonio Palopo	5	Mayo	2023-04-05T00:00:00	2024-11-08T12:00:00	6	Velocidad del viento	6.4
169114	7	Sololá	712	San Antonio Palopó	9	San Antonio Palopo	5	Mayo	2023-04-05T00:00:00	2024-11-08T12:00:00	7	Dirección del viento	6.44
169115	7	Sololá	712	San Antonio Palopó	9	San Antonio Palopo	5	Mayo	2023-04-05T00:00:00	2024-11-08T12:00:00	1	Precipitación	0
169116	7	Sololá	712	San Antonio Palopó	9	San Antonio Palopo	5	Mayo	2023-04-05T00:00:00	2024-11-08T12:00:00	8	Radiación solar	455
169117	7	Sololá	712	San Antonio Palopó	9	San Antonio Palopo	5	Mayo	2023-04-05T00:00:00	2024-11-08T13:00:00	2	Temperatura media	25.1
169118	7	Sololá	712	San Antonio Palopó	9	San Antonio Palopo	5	Mayo	2023-04-05T00:00:00	2024-11-08T13:00:00	4	Temperatura máxima	25.2
169119	7	Sololá	712	San Antonio Palopó	9	San Antonio Palopo	5	Mayo	2023-04-05T00:00:00	2024-11-08T13:00:00	3	Temperatura mínima	24.2
169120	7	Sololá	712	San Antonio Palopó	9	San Antonio Palopo	5	Mayo	2023-04-05T00:00:00	2024-11-08T13:00:00	5	Humedad	71
169121	7	Sololá	712	San Antonio Palopó	9	San Antonio Palopo	5	Mayo	2023-04-05T00:00:00	2024-11-08T13:00:00	6	Velocidad del viento	4.8
169122	7	Sololá	712	San Antonio Palopó	9	San Antonio Palopo	5	Mayo	2023-04-05T00:00:00	2024-11-08T13:00:00	7	Dirección del viento	4.83
169123	7	Sololá	712	San Antonio Palopó	9	San Antonio Palopo	5	Mayo	2023-04-05T00:00:00	2024-11-08T13:00:00	1	Precipitación	0
169124	7	Sololá	712	San Antonio Palopó	9	San Antonio Palopo	5	Mayo	2023-04-05T00:00:00	2024-11-08T13:00:00	8	Radiación solar	333
169125	7	Sololá	712	San Antonio Palopó	9	San Antonio Palopo	5	Mayo	2023-04-05T00:00:00	2024-11-08T14:00:00	2	Temperatura media	25.8
169126	7	Sololá	712	San Antonio Palopó	9	San Antonio Palopo	5	Mayo	2023-04-05T00:00:00	2024-11-08T14:00:00	4	Temperatura máxima	25.8
169127	7	Sololá	712	San Antonio Palopó	9	San Antonio Palopo	5	Mayo	2023-04-05T00:00:00	2024-11-08T14:00:00	3	Temperatura mínima	24.8
169128	7	Sololá	712	San Antonio Palopó	9	San Antonio Palopo	5	Mayo	2023-04-05T00:00:00	2024-11-08T14:00:00	5	Humedad	70
169129	7	Sololá	712	San Antonio Palopó	9	San Antonio Palopo	5	Mayo	2023-04-05T00:00:00	2024-11-08T14:00:00	6	Velocidad del viento	4.8
169130	7	Sololá	712	San Antonio Palopó	9	San Antonio Palopo	5	Mayo	2023-04-05T00:00:00	2024-11-08T14:00:00	7	Dirección del viento	4.83
169131	7	Sololá	712	San Antonio Palopó	9	San Antonio Palopo	5	Mayo	2023-04-05T00:00:00	2024-11-08T14:00:00	1	Precipitación	0
169132	7	Sololá	712	San Antonio Palopó	9	San Antonio Palopo	5	Mayo	2023-04-05T00:00:00	2024-11-08T14:00:00	8	Radiación solar	616
169133	7	Sololá	712	San Antonio Palopó	9	San Antonio Palopo	5	Mayo	2023-04-05T00:00:00	2024-11-08T15:00:00	2	Temperatura media	25.9
169134	7	Sololá	712	San Antonio Palopó	9	San Antonio Palopo	5	Mayo	2023-04-05T00:00:00	2024-11-08T15:00:00	4	Temperatura máxima	26.3
169135	7	Sololá	712	San Antonio Palopó	9	San Antonio Palopo	5	Mayo	2023-04-05T00:00:00	2024-11-08T15:00:00	3	Temperatura mínima	24.8
169136	7	Sololá	712	San Antonio Palopó	9	San Antonio Palopo	5	Mayo	2023-04-05T00:00:00	2024-11-08T15:00:00	5	Humedad	67
169137	7	Sololá	712	San Antonio Palopó	9	San Antonio Palopo	5	Mayo	2023-04-05T00:00:00	2024-11-08T15:00:00	6	Velocidad del viento	8
169138	7	Sololá	712	San Antonio Palopó	9	San Antonio Palopo	5	Mayo	2023-04-05T00:00:00	2024-11-08T15:00:00	7	Dirección del viento	8.05
169139	7	Sololá	712	San Antonio Palopó	9	San Antonio Palopo	5	Mayo	2023-04-05T00:00:00	2024-11-08T15:00:00	1	Precipitación	0
169140	7	Sololá	712	San Antonio Palopó	9	San Antonio Palopo	5	Mayo	2023-04-05T00:00:00	2024-11-08T15:00:00	8	Radiación solar	529
169141	7	Sololá	712	San Antonio Palopó	9	San Antonio Palopo	5	Mayo	2023-04-05T00:00:00	2024-11-08T16:00:00	2	Temperatura media	23.4
169142	7	Sololá	712	San Antonio Palopó	9	San Antonio Palopo	5	Mayo	2023-04-05T00:00:00	2024-11-08T16:00:00	4	Temperatura máxima	26.6
169143	7	Sololá	712	San Antonio Palopó	9	San Antonio Palopo	5	Mayo	2023-04-05T00:00:00	2024-11-08T16:00:00	3	Temperatura mínima	23
169144	7	Sololá	712	San Antonio Palopó	9	San Antonio Palopo	5	Mayo	2023-04-05T00:00:00	2024-11-08T16:00:00	5	Humedad	77
169145	7	Sololá	712	San Antonio Palopó	9	San Antonio Palopo	5	Mayo	2023-04-05T00:00:00	2024-11-08T16:00:00	6	Velocidad del viento	9.7
169146	7	Sololá	712	San Antonio Palopó	9	San Antonio Palopo	5	Mayo	2023-04-05T00:00:00	2024-11-08T16:00:00	7	Dirección del viento	9.66
169147	7	Sololá	712	San Antonio Palopó	9	San Antonio Palopo	5	Mayo	2023-04-05T00:00:00	2024-11-08T16:00:00	1	Precipitación	0
169148	7	Sololá	712	San Antonio Palopó	9	San Antonio Palopo	5	Mayo	2023-04-05T00:00:00	2024-11-08T16:00:00	8	Radiación solar	338
169149	7	Sololá	712	San Antonio Palopó	9	San Antonio Palopo	5	Mayo	2023-04-05T00:00:00	2024-11-08T17:00:00	2	Temperatura media	22.8
169150	7	Sololá	712	San Antonio Palopó	9	San Antonio Palopo	5	Mayo	2023-04-05T00:00:00	2024-11-08T17:00:00	4	Temperatura máxima	23.7
169151	7	Sololá	712	San Antonio Palopó	9	San Antonio Palopo	5	Mayo	2023-04-05T00:00:00	2024-11-08T17:00:00	3	Temperatura mínima	22.8
169152	7	Sololá	712	San Antonio Palopó	9	San Antonio Palopo	5	Mayo	2023-04-05T00:00:00	2024-11-08T17:00:00	5	Humedad	77
169153	7	Sololá	712	San Antonio Palopó	9	San Antonio Palopo	5	Mayo	2023-04-05T00:00:00	2024-11-08T17:00:00	6	Velocidad del viento	6.4
169154	7	Sololá	712	San Antonio Palopó	9	San Antonio Palopo	5	Mayo	2023-04-05T00:00:00	2024-11-08T17:00:00	7	Dirección del viento	6.44
169155	7	Sololá	712	San Antonio Palopó	9	San Antonio Palopo	5	Mayo	2023-04-05T00:00:00	2024-11-08T17:00:00	1	Precipitación	0
169156	7	Sololá	712	San Antonio Palopó	9	San Antonio Palopo	5	Mayo	2023-04-05T00:00:00	2024-11-08T17:00:00	8	Radiación solar	156
169157	7	Sololá	712	San Antonio Palopó	9	San Antonio Palopo	5	Mayo	2023-04-05T00:00:00	2024-11-08T18:00:00	2	Temperatura media	21.8
169158	7	Sololá	712	San Antonio Palopó	9	San Antonio Palopo	5	Mayo	2023-04-05T00:00:00	2024-11-08T18:00:00	4	Temperatura máxima	22.8
169159	7	Sololá	712	San Antonio Palopó	9	San Antonio Palopo	5	Mayo	2023-04-05T00:00:00	2024-11-08T18:00:00	3	Temperatura mínima	21.8
169160	7	Sololá	712	San Antonio Palopó	9	San Antonio Palopo	5	Mayo	2023-04-05T00:00:00	2024-11-08T18:00:00	5	Humedad	83
169161	7	Sololá	712	San Antonio Palopó	9	San Antonio Palopo	5	Mayo	2023-04-05T00:00:00	2024-11-08T18:00:00	6	Velocidad del viento	4.8
169162	7	Sololá	712	San Antonio Palopó	9	San Antonio Palopo	5	Mayo	2023-04-05T00:00:00	2024-11-08T18:00:00	7	Dirección del viento	4.83
169163	7	Sololá	712	San Antonio Palopó	9	San Antonio Palopo	5	Mayo	2023-04-05T00:00:00	2024-11-08T18:00:00	1	Precipitación	0
169164	7	Sololá	712	San Antonio Palopó	9	San Antonio Palopo	5	Mayo	2023-04-05T00:00:00	2024-11-08T18:00:00	8	Radiación solar	29
169165	7	Sololá	712	San Antonio Palopó	9	San Antonio Palopo	5	Mayo	2023-04-05T00:00:00	2024-11-08T19:00:00	2	Temperatura media	21.3
169166	7	Sololá	712	San Antonio Palopó	9	San Antonio Palopo	5	Mayo	2023-04-05T00:00:00	2024-11-08T19:00:00	4	Temperatura máxima	21.9
169167	7	Sololá	712	San Antonio Palopó	9	San Antonio Palopo	5	Mayo	2023-04-05T00:00:00	2024-11-08T19:00:00	3	Temperatura mínima	21.2
169168	7	Sololá	712	San Antonio Palopó	9	San Antonio Palopo	5	Mayo	2023-04-05T00:00:00	2024-11-08T19:00:00	5	Humedad	84
169169	7	Sololá	712	San Antonio Palopó	9	San Antonio Palopo	5	Mayo	2023-04-05T00:00:00	2024-11-08T19:00:00	6	Velocidad del viento	3.2
169170	7	Sololá	712	San Antonio Palopó	9	San Antonio Palopo	5	Mayo	2023-04-05T00:00:00	2024-11-08T19:00:00	7	Dirección del viento	3.22
169171	7	Sololá	712	San Antonio Palopó	9	San Antonio Palopo	5	Mayo	2023-04-05T00:00:00	2024-11-08T19:00:00	1	Precipitación	0
169172	7	Sololá	712	San Antonio Palopó	9	San Antonio Palopo	5	Mayo	2023-04-05T00:00:00	2024-11-08T19:00:00	8	Radiación solar	0
169173	7	Sololá	712	San Antonio Palopó	9	San Antonio Palopo	5	Mayo	2023-04-05T00:00:00	2024-11-08T20:00:00	2	Temperatura media	21
169174	7	Sololá	712	San Antonio Palopó	9	San Antonio Palopo	5	Mayo	2023-04-05T00:00:00	2024-11-08T20:00:00	4	Temperatura máxima	21.3
169175	7	Sololá	712	San Antonio Palopó	9	San Antonio Palopo	5	Mayo	2023-04-05T00:00:00	2024-11-08T20:00:00	3	Temperatura mínima	20.9
169176	7	Sololá	712	San Antonio Palopó	9	San Antonio Palopo	5	Mayo	2023-04-05T00:00:00	2024-11-08T20:00:00	5	Humedad	83
169177	7	Sololá	712	San Antonio Palopó	9	San Antonio Palopo	5	Mayo	2023-04-05T00:00:00	2024-11-08T20:00:00	6	Velocidad del viento	1.6
169178	7	Sololá	712	San Antonio Palopó	9	San Antonio Palopo	5	Mayo	2023-04-05T00:00:00	2024-11-08T20:00:00	7	Dirección del viento	1.61
169179	7	Sololá	712	San Antonio Palopó	9	San Antonio Palopo	5	Mayo	2023-04-05T00:00:00	2024-11-08T20:00:00	1	Precipitación	0
169180	7	Sololá	712	San Antonio Palopó	9	San Antonio Palopo	5	Mayo	2023-04-05T00:00:00	2024-11-08T20:00:00	8	Radiación solar	0
169181	7	Sololá	712	San Antonio Palopó	9	San Antonio Palopo	5	Mayo	2023-04-05T00:00:00	2024-11-08T21:00:00	2	Temperatura media	22.3
169182	7	Sololá	712	San Antonio Palopó	9	San Antonio Palopo	5	Mayo	2023-04-05T00:00:00	2024-11-08T21:00:00	4	Temperatura máxima	22.6
169183	7	Sololá	712	San Antonio Palopó	9	San Antonio Palopo	5	Mayo	2023-04-05T00:00:00	2024-11-08T21:00:00	3	Temperatura mínima	20.9
169184	7	Sololá	712	San Antonio Palopó	9	San Antonio Palopo	5	Mayo	2023-04-05T00:00:00	2024-11-08T21:00:00	5	Humedad	69
169185	7	Sololá	712	San Antonio Palopó	9	San Antonio Palopo	5	Mayo	2023-04-05T00:00:00	2024-11-08T21:00:00	6	Velocidad del viento	6.4
169186	7	Sololá	712	San Antonio Palopó	9	San Antonio Palopo	5	Mayo	2023-04-05T00:00:00	2024-11-08T21:00:00	7	Dirección del viento	6.44
169187	7	Sololá	712	San Antonio Palopó	9	San Antonio Palopo	5	Mayo	2023-04-05T00:00:00	2024-11-08T21:00:00	1	Precipitación	0
169188	7	Sololá	712	San Antonio Palopó	9	San Antonio Palopo	5	Mayo	2023-04-05T00:00:00	2024-11-08T21:00:00	8	Radiación solar	0
169189	7	Sololá	712	San Antonio Palopó	9	San Antonio Palopo	5	Mayo	2023-04-05T00:00:00	2024-11-08T22:00:00	2	Temperatura media	21.2
169190	7	Sololá	712	San Antonio Palopó	9	San Antonio Palopo	5	Mayo	2023-04-05T00:00:00	2024-11-08T22:00:00	4	Temperatura máxima	22.3
169191	7	Sololá	712	San Antonio Palopó	9	San Antonio Palopo	5	Mayo	2023-04-05T00:00:00	2024-11-08T22:00:00	3	Temperatura mínima	21.2
169192	7	Sololá	712	San Antonio Palopó	9	San Antonio Palopo	5	Mayo	2023-04-05T00:00:00	2024-11-08T22:00:00	5	Humedad	68
169193	7	Sololá	712	San Antonio Palopó	9	San Antonio Palopo	5	Mayo	2023-04-05T00:00:00	2024-11-08T22:00:00	6	Velocidad del viento	6.4
169194	7	Sololá	712	San Antonio Palopó	9	San Antonio Palopo	5	Mayo	2023-04-05T00:00:00	2024-11-08T22:00:00	7	Dirección del viento	6.44
169195	7	Sololá	712	San Antonio Palopó	9	San Antonio Palopo	5	Mayo	2023-04-05T00:00:00	2024-11-08T22:00:00	1	Precipitación	0
169196	7	Sololá	712	San Antonio Palopó	9	San Antonio Palopo	5	Mayo	2023-04-05T00:00:00	2024-11-08T22:00:00	8	Radiación solar	0
169197	7	Sololá	712	San Antonio Palopó	9	San Antonio Palopo	5	Mayo	2023-04-05T00:00:00	2024-11-08T23:00:00	2	Temperatura media	21
169198	7	Sololá	712	San Antonio Palopó	9	San Antonio Palopo	5	Mayo	2023-04-05T00:00:00	2024-11-08T23:00:00	4	Temperatura máxima	21.4
169199	7	Sololá	712	San Antonio Palopó	9	San Antonio Palopo	5	Mayo	2023-04-05T00:00:00	2024-11-08T23:00:00	3	Temperatura mínima	21
169200	7	Sololá	712	San Antonio Palopó	9	San Antonio Palopo	5	Mayo	2023-04-05T00:00:00	2024-11-08T23:00:00	5	Humedad	68
169201	7	Sololá	712	San Antonio Palopó	9	San Antonio Palopo	5	Mayo	2023-04-05T00:00:00	2024-11-08T23:00:00	6	Velocidad del viento	8
169202	7	Sololá	712	San Antonio Palopó	9	San Antonio Palopo	5	Mayo	2023-04-05T00:00:00	2024-11-08T23:00:00	7	Dirección del viento	8.05
169203	7	Sololá	712	San Antonio Palopó	9	San Antonio Palopo	5	Mayo	2023-04-05T00:00:00	2024-11-08T23:00:00	1	Precipitación	0
169204	7	Sololá	712	San Antonio Palopó	9	San Antonio Palopo	5	Mayo	2023-04-05T00:00:00	2024-11-08T23:00:00	8	Radiación solar	0
169205	7	Sololá	712	San Antonio Palopó	9	San Antonio Palopo	5	Mayo	2023-05-05T00:00:00	2024-11-08T00:00:00	2	Temperatura media	20.6
169206	7	Sololá	712	San Antonio Palopó	9	San Antonio Palopo	5	Mayo	2023-05-05T00:00:00	2024-11-08T00:00:00	4	Temperatura máxima	21.1
169207	7	Sololá	712	San Antonio Palopó	9	San Antonio Palopo	5	Mayo	2023-05-05T00:00:00	2024-11-08T00:00:00	3	Temperatura mínima	20.6
169208	7	Sololá	712	San Antonio Palopó	9	San Antonio Palopo	5	Mayo	2023-05-05T00:00:00	2024-11-08T00:00:00	5	Humedad	68
169209	7	Sololá	712	San Antonio Palopó	9	San Antonio Palopo	5	Mayo	2023-05-05T00:00:00	2024-11-08T00:00:00	6	Velocidad del viento	9.7
169210	7	Sololá	712	San Antonio Palopó	9	San Antonio Palopo	5	Mayo	2023-05-05T00:00:00	2024-11-08T00:00:00	7	Dirección del viento	9.66
169211	7	Sololá	712	San Antonio Palopó	9	San Antonio Palopo	5	Mayo	2023-05-05T00:00:00	2024-11-08T00:00:00	1	Precipitación	0
169212	7	Sololá	712	San Antonio Palopó	9	San Antonio Palopo	5	Mayo	2023-05-05T00:00:00	2024-11-08T00:00:00	8	Radiación solar	0
169213	7	Sololá	712	San Antonio Palopó	9	San Antonio Palopo	5	Mayo	2023-05-05T00:00:00	2024-11-08T01:00:00	2	Temperatura media	20.4
169214	7	Sololá	712	San Antonio Palopó	9	San Antonio Palopo	5	Mayo	2023-05-05T00:00:00	2024-11-08T01:00:00	4	Temperatura máxima	20.7
169215	7	Sololá	712	San Antonio Palopó	9	San Antonio Palopo	5	Mayo	2023-05-05T00:00:00	2024-11-08T01:00:00	3	Temperatura mínima	20.2
169216	7	Sololá	712	San Antonio Palopó	9	San Antonio Palopo	5	Mayo	2023-05-05T00:00:00	2024-11-08T01:00:00	5	Humedad	67
169217	7	Sololá	712	San Antonio Palopó	9	San Antonio Palopo	5	Mayo	2023-05-05T00:00:00	2024-11-08T01:00:00	6	Velocidad del viento	4.8
169218	7	Sololá	712	San Antonio Palopó	9	San Antonio Palopo	5	Mayo	2023-05-05T00:00:00	2024-11-08T01:00:00	7	Dirección del viento	4.83
169219	7	Sololá	712	San Antonio Palopó	9	San Antonio Palopo	5	Mayo	2023-05-05T00:00:00	2024-11-08T01:00:00	1	Precipitación	0
169220	7	Sololá	712	San Antonio Palopó	9	San Antonio Palopo	5	Mayo	2023-05-05T00:00:00	2024-11-08T01:00:00	8	Radiación solar	0
169221	7	Sololá	712	San Antonio Palopó	9	San Antonio Palopo	5	Mayo	2023-05-05T00:00:00	2024-11-08T02:00:00	2	Temperatura media	20.3
169222	7	Sololá	712	San Antonio Palopó	9	San Antonio Palopo	5	Mayo	2023-05-05T00:00:00	2024-11-08T02:00:00	4	Temperatura máxima	20.4
169223	7	Sololá	712	San Antonio Palopó	9	San Antonio Palopo	5	Mayo	2023-05-05T00:00:00	2024-11-08T02:00:00	3	Temperatura mínima	19.6
169224	7	Sololá	712	San Antonio Palopó	9	San Antonio Palopo	5	Mayo	2023-05-05T00:00:00	2024-11-08T02:00:00	5	Humedad	63
169225	7	Sololá	712	San Antonio Palopó	9	San Antonio Palopo	5	Mayo	2023-05-05T00:00:00	2024-11-08T02:00:00	6	Velocidad del viento	4.8
169226	7	Sololá	712	San Antonio Palopó	9	San Antonio Palopo	5	Mayo	2023-05-05T00:00:00	2024-11-08T02:00:00	7	Dirección del viento	4.83
169227	7	Sololá	712	San Antonio Palopó	9	San Antonio Palopo	5	Mayo	2023-05-05T00:00:00	2024-11-08T02:00:00	1	Precipitación	0
169228	7	Sololá	712	San Antonio Palopó	9	San Antonio Palopo	5	Mayo	2023-05-05T00:00:00	2024-11-08T02:00:00	8	Radiación solar	0
169229	7	Sololá	712	San Antonio Palopó	9	San Antonio Palopo	5	Mayo	2023-05-05T00:00:00	2024-11-08T03:00:00	2	Temperatura media	20
169230	7	Sololá	712	San Antonio Palopó	9	San Antonio Palopo	5	Mayo	2023-05-05T00:00:00	2024-11-08T03:00:00	4	Temperatura máxima	20.6
169231	7	Sololá	712	San Antonio Palopó	9	San Antonio Palopo	5	Mayo	2023-05-05T00:00:00	2024-11-08T03:00:00	3	Temperatura mínima	19.7
169232	7	Sololá	712	San Antonio Palopó	9	San Antonio Palopo	5	Mayo	2023-05-05T00:00:00	2024-11-08T03:00:00	5	Humedad	65
169233	7	Sololá	712	San Antonio Palopó	9	San Antonio Palopo	5	Mayo	2023-05-05T00:00:00	2024-11-08T03:00:00	6	Velocidad del viento	8
169234	7	Sololá	712	San Antonio Palopó	9	San Antonio Palopo	5	Mayo	2023-05-05T00:00:00	2024-11-08T03:00:00	7	Dirección del viento	8.05
169235	7	Sololá	712	San Antonio Palopó	9	San Antonio Palopo	5	Mayo	2023-05-05T00:00:00	2024-11-08T03:00:00	1	Precipitación	0
169236	7	Sololá	712	San Antonio Palopó	9	San Antonio Palopo	5	Mayo	2023-05-05T00:00:00	2024-11-08T03:00:00	8	Radiación solar	0
169237	7	Sololá	712	San Antonio Palopó	9	San Antonio Palopo	5	Mayo	2023-05-05T00:00:00	2024-11-08T04:00:00	2	Temperatura media	19.6
169238	7	Sololá	712	San Antonio Palopó	9	San Antonio Palopo	5	Mayo	2023-05-05T00:00:00	2024-11-08T04:00:00	4	Temperatura máxima	20.1
169239	7	Sololá	712	San Antonio Palopó	9	San Antonio Palopo	5	Mayo	2023-05-05T00:00:00	2024-11-08T04:00:00	3	Temperatura mínima	19.6
169240	7	Sololá	712	San Antonio Palopó	9	San Antonio Palopo	5	Mayo	2023-05-05T00:00:00	2024-11-08T04:00:00	5	Humedad	67
169241	7	Sololá	712	San Antonio Palopó	9	San Antonio Palopo	5	Mayo	2023-05-05T00:00:00	2024-11-08T04:00:00	6	Velocidad del viento	6.4
169242	7	Sololá	712	San Antonio Palopó	9	San Antonio Palopo	5	Mayo	2023-05-05T00:00:00	2024-11-08T04:00:00	7	Dirección del viento	6.44
169243	7	Sololá	712	San Antonio Palopó	9	San Antonio Palopo	5	Mayo	2023-05-05T00:00:00	2024-11-08T04:00:00	1	Precipitación	0
169244	7	Sololá	712	San Antonio Palopó	9	San Antonio Palopo	5	Mayo	2023-05-05T00:00:00	2024-11-08T04:00:00	8	Radiación solar	0
169245	7	Sololá	712	San Antonio Palopó	9	San Antonio Palopo	5	Mayo	2023-05-05T00:00:00	2024-11-08T05:00:00	2	Temperatura media	19.5
169246	7	Sololá	712	San Antonio Palopó	9	San Antonio Palopo	5	Mayo	2023-05-05T00:00:00	2024-11-08T05:00:00	4	Temperatura máxima	19.9
169247	7	Sololá	712	San Antonio Palopó	9	San Antonio Palopo	5	Mayo	2023-05-05T00:00:00	2024-11-08T05:00:00	3	Temperatura mínima	19.2
169248	7	Sololá	712	San Antonio Palopó	9	San Antonio Palopo	5	Mayo	2023-05-05T00:00:00	2024-11-08T05:00:00	5	Humedad	63
169249	7	Sololá	712	San Antonio Palopó	9	San Antonio Palopo	5	Mayo	2023-05-05T00:00:00	2024-11-08T05:00:00	6	Velocidad del viento	4.8
169250	7	Sololá	712	San Antonio Palopó	9	San Antonio Palopo	5	Mayo	2023-05-05T00:00:00	2024-11-08T05:00:00	7	Dirección del viento	4.83
169251	7	Sololá	712	San Antonio Palopó	9	San Antonio Palopo	5	Mayo	2023-05-05T00:00:00	2024-11-08T05:00:00	1	Precipitación	0
169252	7	Sololá	712	San Antonio Palopó	9	San Antonio Palopo	5	Mayo	2023-05-05T00:00:00	2024-11-08T05:00:00	8	Radiación solar	0
169253	7	Sololá	712	San Antonio Palopó	9	San Antonio Palopo	5	Mayo	2023-05-05T00:00:00	2024-11-08T06:00:00	2	Temperatura media	19.1
169254	7	Sololá	712	San Antonio Palopó	9	San Antonio Palopo	5	Mayo	2023-05-05T00:00:00	2024-11-08T06:00:00	4	Temperatura máxima	19.8
169255	7	Sololá	712	San Antonio Palopó	9	San Antonio Palopo	5	Mayo	2023-05-05T00:00:00	2024-11-08T06:00:00	3	Temperatura mínima	18.8
169256	7	Sololá	712	San Antonio Palopó	9	San Antonio Palopo	5	Mayo	2023-05-05T00:00:00	2024-11-08T06:00:00	5	Humedad	64
169257	7	Sololá	712	San Antonio Palopó	9	San Antonio Palopo	5	Mayo	2023-05-05T00:00:00	2024-11-08T06:00:00	6	Velocidad del viento	6.4
169258	7	Sololá	712	San Antonio Palopó	9	San Antonio Palopo	5	Mayo	2023-05-05T00:00:00	2024-11-08T06:00:00	7	Dirección del viento	6.44
169259	7	Sololá	712	San Antonio Palopó	9	San Antonio Palopo	5	Mayo	2023-05-05T00:00:00	2024-11-08T06:00:00	1	Precipitación	0
169260	7	Sololá	712	San Antonio Palopó	9	San Antonio Palopo	5	Mayo	2023-05-05T00:00:00	2024-11-08T06:00:00	8	Radiación solar	2
169261	7	Sololá	712	San Antonio Palopó	9	San Antonio Palopo	5	Mayo	2023-05-05T00:00:00	2024-11-08T07:00:00	2	Temperatura media	20.9
169262	7	Sololá	712	San Antonio Palopó	9	San Antonio Palopo	5	Mayo	2023-05-05T00:00:00	2024-11-08T07:00:00	4	Temperatura máxima	20.9
169263	7	Sololá	712	San Antonio Palopó	9	San Antonio Palopo	5	Mayo	2023-05-05T00:00:00	2024-11-08T07:00:00	3	Temperatura mínima	19
169264	7	Sololá	712	San Antonio Palopó	9	San Antonio Palopo	5	Mayo	2023-05-05T00:00:00	2024-11-08T07:00:00	5	Humedad	55
169265	7	Sololá	712	San Antonio Palopó	9	San Antonio Palopo	5	Mayo	2023-05-05T00:00:00	2024-11-08T07:00:00	6	Velocidad del viento	6.4
169266	7	Sololá	712	San Antonio Palopó	9	San Antonio Palopo	5	Mayo	2023-05-05T00:00:00	2024-11-08T07:00:00	7	Dirección del viento	6.44
169267	7	Sololá	712	San Antonio Palopó	9	San Antonio Palopo	5	Mayo	2023-05-05T00:00:00	2024-11-08T07:00:00	1	Precipitación	0
169268	7	Sololá	712	San Antonio Palopó	9	San Antonio Palopo	5	Mayo	2023-05-05T00:00:00	2024-11-08T07:00:00	8	Radiación solar	36
169269	7	Sololá	712	San Antonio Palopó	9	San Antonio Palopo	5	Mayo	2023-05-05T00:00:00	2024-11-08T08:00:00	2	Temperatura media	21.4
169270	7	Sololá	712	San Antonio Palopó	9	San Antonio Palopo	5	Mayo	2023-05-05T00:00:00	2024-11-08T08:00:00	4	Temperatura máxima	21.6
169271	7	Sololá	712	San Antonio Palopó	9	San Antonio Palopo	5	Mayo	2023-05-05T00:00:00	2024-11-08T08:00:00	3	Temperatura mínima	20.9
169272	7	Sololá	712	San Antonio Palopó	9	San Antonio Palopo	5	Mayo	2023-05-05T00:00:00	2024-11-08T08:00:00	5	Humedad	57
169273	7	Sololá	712	San Antonio Palopó	9	San Antonio Palopo	5	Mayo	2023-05-05T00:00:00	2024-11-08T08:00:00	6	Velocidad del viento	4.8
169274	7	Sololá	712	San Antonio Palopó	9	San Antonio Palopo	5	Mayo	2023-05-05T00:00:00	2024-11-08T08:00:00	7	Dirección del viento	4.83
169275	7	Sololá	712	San Antonio Palopó	9	San Antonio Palopo	5	Mayo	2023-05-05T00:00:00	2024-11-08T08:00:00	1	Precipitación	0
169276	7	Sololá	712	San Antonio Palopó	9	San Antonio Palopo	5	Mayo	2023-05-05T00:00:00	2024-11-08T08:00:00	8	Radiación solar	192
169277	7	Sololá	712	San Antonio Palopó	9	San Antonio Palopo	5	Mayo	2023-05-05T00:00:00	2024-11-08T09:00:00	2	Temperatura media	23.5
169278	7	Sololá	712	San Antonio Palopó	9	San Antonio Palopo	5	Mayo	2023-05-05T00:00:00	2024-11-08T09:00:00	4	Temperatura máxima	23.5
169279	7	Sololá	712	San Antonio Palopó	9	San Antonio Palopo	5	Mayo	2023-05-05T00:00:00	2024-11-08T09:00:00	3	Temperatura mínima	21.4
169280	7	Sololá	712	San Antonio Palopó	9	San Antonio Palopo	5	Mayo	2023-05-05T00:00:00	2024-11-08T09:00:00	5	Humedad	51
169281	7	Sololá	712	San Antonio Palopó	9	San Antonio Palopo	5	Mayo	2023-05-05T00:00:00	2024-11-08T09:00:00	6	Velocidad del viento	1.6
169282	7	Sololá	712	San Antonio Palopó	9	San Antonio Palopo	5	Mayo	2023-05-05T00:00:00	2024-11-08T09:00:00	7	Dirección del viento	1.61
169283	7	Sololá	712	San Antonio Palopó	9	San Antonio Palopo	5	Mayo	2023-05-05T00:00:00	2024-11-08T09:00:00	1	Precipitación	0
169284	7	Sololá	712	San Antonio Palopó	9	San Antonio Palopo	5	Mayo	2023-05-05T00:00:00	2024-11-08T09:00:00	8	Radiación solar	545
169285	7	Sololá	712	San Antonio Palopó	9	San Antonio Palopo	5	Mayo	2023-05-05T00:00:00	2024-11-08T10:00:00	2	Temperatura media	26.9
169286	7	Sololá	712	San Antonio Palopó	9	San Antonio Palopo	5	Mayo	2023-05-05T00:00:00	2024-11-08T10:00:00	4	Temperatura máxima	26.9
169287	7	Sololá	712	San Antonio Palopó	9	San Antonio Palopo	5	Mayo	2023-05-05T00:00:00	2024-11-08T10:00:00	3	Temperatura mínima	23.6
169288	7	Sololá	712	San Antonio Palopó	9	San Antonio Palopo	5	Mayo	2023-05-05T00:00:00	2024-11-08T10:00:00	5	Humedad	35
169289	7	Sololá	712	San Antonio Palopó	9	San Antonio Palopo	5	Mayo	2023-05-05T00:00:00	2024-11-08T10:00:00	6	Velocidad del viento	9.7
169290	7	Sololá	712	San Antonio Palopó	9	San Antonio Palopo	5	Mayo	2023-05-05T00:00:00	2024-11-08T10:00:00	7	Dirección del viento	9.66
169291	7	Sololá	712	San Antonio Palopó	9	San Antonio Palopo	5	Mayo	2023-05-05T00:00:00	2024-11-08T10:00:00	1	Precipitación	0
169292	7	Sololá	712	San Antonio Palopó	9	San Antonio Palopo	5	Mayo	2023-05-05T00:00:00	2024-11-08T10:00:00	8	Radiación solar	740
169293	7	Sololá	712	San Antonio Palopó	9	San Antonio Palopo	5	Mayo	2023-05-05T00:00:00	2024-11-08T11:00:00	2	Temperatura media	28.2
169294	7	Sololá	712	San Antonio Palopó	9	San Antonio Palopo	5	Mayo	2023-05-05T00:00:00	2024-11-08T11:00:00	4	Temperatura máxima	28.3
169295	7	Sololá	712	San Antonio Palopó	9	San Antonio Palopo	5	Mayo	2023-05-05T00:00:00	2024-11-08T11:00:00	3	Temperatura mínima	26.8
169296	7	Sololá	712	San Antonio Palopó	9	San Antonio Palopo	5	Mayo	2023-05-05T00:00:00	2024-11-08T11:00:00	5	Humedad	29
169297	7	Sololá	712	San Antonio Palopó	9	San Antonio Palopo	5	Mayo	2023-05-05T00:00:00	2024-11-08T11:00:00	6	Velocidad del viento	12.9
169298	7	Sololá	712	San Antonio Palopó	9	San Antonio Palopo	5	Mayo	2023-05-05T00:00:00	2024-11-08T11:00:00	7	Dirección del viento	12.87
169299	7	Sololá	712	San Antonio Palopó	9	San Antonio Palopo	5	Mayo	2023-05-05T00:00:00	2024-11-08T11:00:00	1	Precipitación	0
169300	7	Sololá	712	San Antonio Palopó	9	San Antonio Palopo	5	Mayo	2023-05-05T00:00:00	2024-11-08T11:00:00	8	Radiación solar	867
169301	7	Sololá	712	San Antonio Palopó	9	San Antonio Palopo	5	Mayo	2023-05-05T00:00:00	2024-11-08T12:00:00	2	Temperatura media	28.7
169302	7	Sololá	712	San Antonio Palopó	9	San Antonio Palopo	5	Mayo	2023-05-05T00:00:00	2024-11-08T12:00:00	4	Temperatura máxima	28.7
169303	7	Sololá	712	San Antonio Palopó	9	San Antonio Palopo	5	Mayo	2023-05-05T00:00:00	2024-11-08T12:00:00	3	Temperatura mínima	27.8
169304	7	Sololá	712	San Antonio Palopó	9	San Antonio Palopo	5	Mayo	2023-05-05T00:00:00	2024-11-08T12:00:00	5	Humedad	28
169305	7	Sololá	712	San Antonio Palopó	9	San Antonio Palopo	5	Mayo	2023-05-05T00:00:00	2024-11-08T12:00:00	6	Velocidad del viento	14.5
169306	7	Sololá	712	San Antonio Palopó	9	San Antonio Palopo	5	Mayo	2023-05-05T00:00:00	2024-11-08T12:00:00	7	Dirección del viento	14.48
169307	7	Sololá	712	San Antonio Palopó	9	San Antonio Palopo	5	Mayo	2023-05-05T00:00:00	2024-11-08T12:00:00	1	Precipitación	0
169308	7	Sololá	712	San Antonio Palopó	9	San Antonio Palopo	5	Mayo	2023-05-05T00:00:00	2024-11-08T12:00:00	8	Radiación solar	946
169309	7	Sololá	712	San Antonio Palopó	9	San Antonio Palopo	5	Mayo	2023-05-05T00:00:00	2024-11-08T13:00:00	2	Temperatura media	28.5
169310	7	Sololá	712	San Antonio Palopó	9	San Antonio Palopo	5	Mayo	2023-05-05T00:00:00	2024-11-08T13:00:00	4	Temperatura máxima	28.9
169311	7	Sololá	712	San Antonio Palopó	9	San Antonio Palopo	5	Mayo	2023-05-05T00:00:00	2024-11-08T13:00:00	3	Temperatura mínima	28.4
169312	7	Sololá	712	San Antonio Palopó	9	San Antonio Palopo	5	Mayo	2023-05-05T00:00:00	2024-11-08T13:00:00	5	Humedad	29
169313	7	Sololá	712	San Antonio Palopó	9	San Antonio Palopo	5	Mayo	2023-05-05T00:00:00	2024-11-08T13:00:00	6	Velocidad del viento	12.9
169314	7	Sololá	712	San Antonio Palopó	9	San Antonio Palopo	5	Mayo	2023-05-05T00:00:00	2024-11-08T13:00:00	7	Dirección del viento	12.87
169315	7	Sololá	712	San Antonio Palopó	9	San Antonio Palopo	5	Mayo	2023-05-05T00:00:00	2024-11-08T13:00:00	1	Precipitación	0
169316	7	Sololá	712	San Antonio Palopó	9	San Antonio Palopo	5	Mayo	2023-05-05T00:00:00	2024-11-08T13:00:00	8	Radiación solar	948
169317	7	Sololá	712	San Antonio Palopó	9	San Antonio Palopo	5	Mayo	2023-05-05T00:00:00	2024-11-08T14:00:00	2	Temperatura media	25.9
169318	7	Sololá	712	San Antonio Palopó	9	San Antonio Palopo	5	Mayo	2023-05-05T00:00:00	2024-11-08T14:00:00	4	Temperatura máxima	29.2
169319	7	Sololá	712	San Antonio Palopó	9	San Antonio Palopo	5	Mayo	2023-05-05T00:00:00	2024-11-08T14:00:00	3	Temperatura mínima	25.9
169320	7	Sololá	712	San Antonio Palopó	9	San Antonio Palopo	5	Mayo	2023-05-05T00:00:00	2024-11-08T14:00:00	5	Humedad	61
169321	7	Sololá	712	San Antonio Palopó	9	San Antonio Palopo	5	Mayo	2023-05-05T00:00:00	2024-11-08T14:00:00	6	Velocidad del viento	14.5
169322	7	Sololá	712	San Antonio Palopó	9	San Antonio Palopo	5	Mayo	2023-05-05T00:00:00	2024-11-08T14:00:00	7	Dirección del viento	14.48
169323	7	Sololá	712	San Antonio Palopó	9	San Antonio Palopo	5	Mayo	2023-05-05T00:00:00	2024-11-08T14:00:00	1	Precipitación	0
169324	7	Sololá	712	San Antonio Palopó	9	San Antonio Palopo	5	Mayo	2023-05-05T00:00:00	2024-11-08T14:00:00	8	Radiación solar	873
169325	7	Sololá	712	San Antonio Palopó	9	San Antonio Palopo	5	Mayo	2023-05-05T00:00:00	2024-11-08T15:00:00	2	Temperatura media	25.9
169326	7	Sololá	712	San Antonio Palopó	9	San Antonio Palopo	5	Mayo	2023-05-05T00:00:00	2024-11-08T15:00:00	4	Temperatura máxima	26.2
169327	7	Sololá	712	San Antonio Palopó	9	San Antonio Palopo	5	Mayo	2023-05-05T00:00:00	2024-11-08T15:00:00	3	Temperatura mínima	25.6
169328	7	Sololá	712	San Antonio Palopó	9	San Antonio Palopo	5	Mayo	2023-05-05T00:00:00	2024-11-08T15:00:00	5	Humedad	62
169329	7	Sololá	712	San Antonio Palopó	9	San Antonio Palopo	5	Mayo	2023-05-05T00:00:00	2024-11-08T15:00:00	6	Velocidad del viento	19.3
169330	7	Sololá	712	San Antonio Palopó	9	San Antonio Palopo	5	Mayo	2023-05-05T00:00:00	2024-11-08T15:00:00	7	Dirección del viento	19.31
169331	7	Sololá	712	San Antonio Palopó	9	San Antonio Palopo	5	Mayo	2023-05-05T00:00:00	2024-11-08T15:00:00	1	Precipitación	0
169332	7	Sololá	712	San Antonio Palopó	9	San Antonio Palopo	5	Mayo	2023-05-05T00:00:00	2024-11-08T15:00:00	8	Radiación solar	722
169333	7	Sololá	712	San Antonio Palopó	9	San Antonio Palopo	5	Mayo	2023-05-05T00:00:00	2024-11-08T16:00:00	2	Temperatura media	26.4
169334	7	Sololá	712	San Antonio Palopó	9	San Antonio Palopo	5	Mayo	2023-05-05T00:00:00	2024-11-08T16:00:00	4	Temperatura máxima	26.4
169335	7	Sololá	712	San Antonio Palopó	9	San Antonio Palopo	5	Mayo	2023-05-05T00:00:00	2024-11-08T16:00:00	3	Temperatura mínima	25.7
169336	7	Sololá	712	San Antonio Palopó	9	San Antonio Palopo	5	Mayo	2023-05-05T00:00:00	2024-11-08T16:00:00	5	Humedad	62
169337	7	Sololá	712	San Antonio Palopó	9	San Antonio Palopo	5	Mayo	2023-05-05T00:00:00	2024-11-08T16:00:00	6	Velocidad del viento	16.1
169338	7	Sololá	712	San Antonio Palopó	9	San Antonio Palopo	5	Mayo	2023-05-05T00:00:00	2024-11-08T16:00:00	7	Dirección del viento	16.09
169339	7	Sololá	712	San Antonio Palopó	9	San Antonio Palopo	5	Mayo	2023-05-05T00:00:00	2024-11-08T16:00:00	1	Precipitación	0
169340	7	Sololá	712	San Antonio Palopó	9	San Antonio Palopo	5	Mayo	2023-05-05T00:00:00	2024-11-08T16:00:00	8	Radiación solar	532
169341	7	Sololá	712	San Antonio Palopó	9	San Antonio Palopo	5	Mayo	2023-05-05T00:00:00	2024-11-08T17:00:00	2	Temperatura media	24.7
169342	7	Sololá	712	San Antonio Palopó	9	San Antonio Palopo	5	Mayo	2023-05-05T00:00:00	2024-11-08T17:00:00	4	Temperatura máxima	26.4
169343	7	Sololá	712	San Antonio Palopó	9	San Antonio Palopo	5	Mayo	2023-05-05T00:00:00	2024-11-08T17:00:00	3	Temperatura mínima	24.6
169344	7	Sololá	712	San Antonio Palopó	9	San Antonio Palopo	5	Mayo	2023-05-05T00:00:00	2024-11-08T17:00:00	5	Humedad	72
169345	7	Sololá	712	San Antonio Palopó	9	San Antonio Palopo	5	Mayo	2023-05-05T00:00:00	2024-11-08T17:00:00	6	Velocidad del viento	8
169346	7	Sololá	712	San Antonio Palopó	9	San Antonio Palopo	5	Mayo	2023-05-05T00:00:00	2024-11-08T17:00:00	7	Dirección del viento	8.05
169347	7	Sololá	712	San Antonio Palopó	9	San Antonio Palopo	5	Mayo	2023-05-05T00:00:00	2024-11-08T17:00:00	1	Precipitación	0
169348	7	Sololá	712	San Antonio Palopó	9	San Antonio Palopo	5	Mayo	2023-05-05T00:00:00	2024-11-08T17:00:00	8	Radiación solar	314
169349	7	Sololá	712	San Antonio Palopó	9	San Antonio Palopo	5	Mayo	2023-05-05T00:00:00	2024-11-08T18:00:00	2	Temperatura media	23.2
169350	7	Sololá	712	San Antonio Palopó	9	San Antonio Palopo	5	Mayo	2023-05-05T00:00:00	2024-11-08T18:00:00	4	Temperatura máxima	24.7
169351	7	Sololá	712	San Antonio Palopó	9	San Antonio Palopo	5	Mayo	2023-05-05T00:00:00	2024-11-08T18:00:00	3	Temperatura mínima	23.2
169352	7	Sololá	712	San Antonio Palopó	9	San Antonio Palopo	5	Mayo	2023-05-05T00:00:00	2024-11-08T18:00:00	5	Humedad	75
169353	7	Sololá	712	San Antonio Palopó	9	San Antonio Palopo	5	Mayo	2023-05-05T00:00:00	2024-11-08T18:00:00	6	Velocidad del viento	6.4
169354	7	Sololá	712	San Antonio Palopó	9	San Antonio Palopo	5	Mayo	2023-05-05T00:00:00	2024-11-08T18:00:00	7	Dirección del viento	6.44
169355	7	Sololá	712	San Antonio Palopó	9	San Antonio Palopo	5	Mayo	2023-05-05T00:00:00	2024-11-08T18:00:00	1	Precipitación	0
169356	7	Sololá	712	San Antonio Palopó	9	San Antonio Palopo	5	Mayo	2023-05-05T00:00:00	2024-11-08T18:00:00	8	Radiación solar	102
169357	7	Sololá	712	San Antonio Palopó	9	San Antonio Palopo	5	Mayo	2023-05-05T00:00:00	2024-11-08T19:00:00	2	Temperatura media	21.9
169358	7	Sololá	712	San Antonio Palopó	9	San Antonio Palopo	5	Mayo	2023-05-05T00:00:00	2024-11-08T19:00:00	4	Temperatura máxima	23.2
169359	7	Sololá	712	San Antonio Palopó	9	San Antonio Palopo	5	Mayo	2023-05-05T00:00:00	2024-11-08T19:00:00	3	Temperatura mínima	21.9
169360	7	Sololá	712	San Antonio Palopó	9	San Antonio Palopo	5	Mayo	2023-05-05T00:00:00	2024-11-08T19:00:00	5	Humedad	81
169361	7	Sololá	712	San Antonio Palopó	9	San Antonio Palopo	5	Mayo	2023-05-05T00:00:00	2024-11-08T19:00:00	6	Velocidad del viento	4.8
169362	7	Sololá	712	San Antonio Palopó	9	San Antonio Palopo	5	Mayo	2023-05-05T00:00:00	2024-11-08T19:00:00	7	Dirección del viento	4.83
169363	7	Sololá	712	San Antonio Palopó	9	San Antonio Palopo	5	Mayo	2023-05-05T00:00:00	2024-11-08T19:00:00	1	Precipitación	0
169364	7	Sololá	712	San Antonio Palopó	9	San Antonio Palopo	5	Mayo	2023-05-05T00:00:00	2024-11-08T19:00:00	8	Radiación solar	0
169365	7	Sololá	712	San Antonio Palopó	9	San Antonio Palopo	5	Mayo	2023-05-05T00:00:00	2024-11-08T20:00:00	2	Temperatura media	21.6
169366	7	Sololá	712	San Antonio Palopó	9	San Antonio Palopo	5	Mayo	2023-05-05T00:00:00	2024-11-08T20:00:00	4	Temperatura máxima	21.9
169367	7	Sololá	712	San Antonio Palopó	9	San Antonio Palopo	5	Mayo	2023-05-05T00:00:00	2024-11-08T20:00:00	3	Temperatura mínima	21.6
169368	7	Sololá	712	San Antonio Palopó	9	San Antonio Palopo	5	Mayo	2023-05-05T00:00:00	2024-11-08T20:00:00	5	Humedad	79
169369	7	Sololá	712	San Antonio Palopó	9	San Antonio Palopo	5	Mayo	2023-05-05T00:00:00	2024-11-08T20:00:00	6	Velocidad del viento	3.2
169370	7	Sololá	712	San Antonio Palopó	9	San Antonio Palopo	5	Mayo	2023-05-05T00:00:00	2024-11-08T20:00:00	7	Dirección del viento	3.22
169371	7	Sololá	712	San Antonio Palopó	9	San Antonio Palopo	5	Mayo	2023-05-05T00:00:00	2024-11-08T20:00:00	1	Precipitación	0
169372	7	Sololá	712	San Antonio Palopó	9	San Antonio Palopo	5	Mayo	2023-05-05T00:00:00	2024-11-08T20:00:00	8	Radiación solar	0
169373	7	Sololá	712	San Antonio Palopó	9	San Antonio Palopo	5	Mayo	2023-05-05T00:00:00	2024-11-08T21:00:00	2	Temperatura media	21.4
169374	7	Sololá	712	San Antonio Palopó	9	San Antonio Palopo	5	Mayo	2023-05-05T00:00:00	2024-11-08T21:00:00	4	Temperatura máxima	21.6
169375	7	Sololá	712	San Antonio Palopó	9	San Antonio Palopo	5	Mayo	2023-05-05T00:00:00	2024-11-08T21:00:00	3	Temperatura mínima	21.3
169376	7	Sololá	712	San Antonio Palopó	9	San Antonio Palopo	5	Mayo	2023-05-05T00:00:00	2024-11-08T21:00:00	5	Humedad	69
169377	7	Sololá	712	San Antonio Palopó	9	San Antonio Palopo	5	Mayo	2023-05-05T00:00:00	2024-11-08T21:00:00	6	Velocidad del viento	1.6
169378	7	Sololá	712	San Antonio Palopó	9	San Antonio Palopo	5	Mayo	2023-05-05T00:00:00	2024-11-08T21:00:00	7	Dirección del viento	1.61
169379	7	Sololá	712	San Antonio Palopó	9	San Antonio Palopo	5	Mayo	2023-05-05T00:00:00	2024-11-08T21:00:00	1	Precipitación	0
169380	7	Sololá	712	San Antonio Palopó	9	San Antonio Palopo	5	Mayo	2023-05-05T00:00:00	2024-11-08T21:00:00	8	Radiación solar	0
169381	7	Sololá	712	San Antonio Palopó	9	San Antonio Palopo	5	Mayo	2023-05-05T00:00:00	2024-11-08T22:00:00	2	Temperatura media	22.3
169382	7	Sololá	712	San Antonio Palopó	9	San Antonio Palopo	5	Mayo	2023-05-05T00:00:00	2024-11-08T22:00:00	4	Temperatura máxima	22.7
169383	7	Sololá	712	San Antonio Palopó	9	San Antonio Palopo	5	Mayo	2023-05-05T00:00:00	2024-11-08T22:00:00	3	Temperatura mínima	21.4
169384	7	Sololá	712	San Antonio Palopó	9	San Antonio Palopo	5	Mayo	2023-05-05T00:00:00	2024-11-08T22:00:00	5	Humedad	62
169385	7	Sololá	712	San Antonio Palopó	9	San Antonio Palopo	5	Mayo	2023-05-05T00:00:00	2024-11-08T22:00:00	6	Velocidad del viento	11.3
169386	7	Sololá	712	San Antonio Palopó	9	San Antonio Palopo	5	Mayo	2023-05-05T00:00:00	2024-11-08T22:00:00	7	Dirección del viento	11.27
169387	7	Sololá	712	San Antonio Palopó	9	San Antonio Palopo	5	Mayo	2023-05-05T00:00:00	2024-11-08T22:00:00	1	Precipitación	0
169388	7	Sololá	712	San Antonio Palopó	9	San Antonio Palopo	5	Mayo	2023-05-05T00:00:00	2024-11-08T22:00:00	8	Radiación solar	0
169389	7	Sololá	712	San Antonio Palopó	9	San Antonio Palopo	5	Mayo	2023-05-05T00:00:00	2024-11-08T23:00:00	2	Temperatura media	21
169390	7	Sololá	712	San Antonio Palopó	9	San Antonio Palopo	5	Mayo	2023-05-05T00:00:00	2024-11-08T23:00:00	4	Temperatura máxima	22.3
169391	7	Sololá	712	San Antonio Palopó	9	San Antonio Palopo	5	Mayo	2023-05-05T00:00:00	2024-11-08T23:00:00	3	Temperatura mínima	21
169392	7	Sololá	712	San Antonio Palopó	9	San Antonio Palopo	5	Mayo	2023-05-05T00:00:00	2024-11-08T23:00:00	5	Humedad	68
169393	7	Sololá	712	San Antonio Palopó	9	San Antonio Palopo	5	Mayo	2023-05-05T00:00:00	2024-11-08T23:00:00	6	Velocidad del viento	16.1
169394	7	Sololá	712	San Antonio Palopó	9	San Antonio Palopo	5	Mayo	2023-05-05T00:00:00	2024-11-08T23:00:00	7	Dirección del viento	16.09
169395	7	Sololá	712	San Antonio Palopó	9	San Antonio Palopo	5	Mayo	2023-05-05T00:00:00	2024-11-08T23:00:00	1	Precipitación	0
169396	7	Sololá	712	San Antonio Palopó	9	San Antonio Palopo	5	Mayo	2023-05-05T00:00:00	2024-11-08T23:00:00	8	Radiación solar	0
169397	7	Sololá	712	San Antonio Palopó	9	San Antonio Palopo	5	Mayo	2023-06-05T00:00:00	2024-11-08T00:00:00	2	Temperatura media	20.6
169398	7	Sololá	712	San Antonio Palopó	9	San Antonio Palopo	5	Mayo	2023-06-05T00:00:00	2024-11-08T00:00:00	4	Temperatura máxima	20.9
169399	7	Sololá	712	San Antonio Palopó	9	San Antonio Palopo	5	Mayo	2023-06-05T00:00:00	2024-11-08T00:00:00	3	Temperatura mínima	20.5
169400	7	Sololá	712	San Antonio Palopó	9	San Antonio Palopo	5	Mayo	2023-06-05T00:00:00	2024-11-08T00:00:00	5	Humedad	69
169401	7	Sololá	712	San Antonio Palopó	9	San Antonio Palopo	5	Mayo	2023-06-05T00:00:00	2024-11-08T00:00:00	6	Velocidad del viento	12.9
169402	7	Sololá	712	San Antonio Palopó	9	San Antonio Palopo	5	Mayo	2023-06-05T00:00:00	2024-11-08T00:00:00	7	Dirección del viento	12.87
169403	7	Sololá	712	San Antonio Palopó	9	San Antonio Palopo	5	Mayo	2023-06-05T00:00:00	2024-11-08T00:00:00	1	Precipitación	0
169404	7	Sololá	712	San Antonio Palopó	9	San Antonio Palopo	5	Mayo	2023-06-05T00:00:00	2024-11-08T00:00:00	8	Radiación solar	0
169405	7	Sololá	712	San Antonio Palopó	9	San Antonio Palopo	5	Mayo	2023-06-05T00:00:00	2024-11-08T01:00:00	2	Temperatura media	20.3
169406	7	Sololá	712	San Antonio Palopó	9	San Antonio Palopo	5	Mayo	2023-06-05T00:00:00	2024-11-08T01:00:00	4	Temperatura máxima	20.8
169407	7	Sololá	712	San Antonio Palopó	9	San Antonio Palopo	5	Mayo	2023-06-05T00:00:00	2024-11-08T01:00:00	3	Temperatura mínima	20.3
169408	7	Sololá	712	San Antonio Palopó	9	San Antonio Palopo	5	Mayo	2023-06-05T00:00:00	2024-11-08T01:00:00	5	Humedad	71
169409	7	Sololá	712	San Antonio Palopó	9	San Antonio Palopo	5	Mayo	2023-06-05T00:00:00	2024-11-08T01:00:00	6	Velocidad del viento	12.9
169410	7	Sololá	712	San Antonio Palopó	9	San Antonio Palopo	5	Mayo	2023-06-05T00:00:00	2024-11-08T01:00:00	7	Dirección del viento	12.87
169411	7	Sololá	712	San Antonio Palopó	9	San Antonio Palopo	5	Mayo	2023-06-05T00:00:00	2024-11-08T01:00:00	1	Precipitación	0
169412	7	Sololá	712	San Antonio Palopó	9	San Antonio Palopo	5	Mayo	2023-06-05T00:00:00	2024-11-08T01:00:00	8	Radiación solar	0
169413	7	Sololá	712	San Antonio Palopó	9	San Antonio Palopo	5	Mayo	2023-06-05T00:00:00	2024-11-08T02:00:00	2	Temperatura media	19.9
169414	7	Sololá	712	San Antonio Palopó	9	San Antonio Palopo	5	Mayo	2023-06-05T00:00:00	2024-11-08T02:00:00	4	Temperatura máxima	20.3
169415	7	Sololá	712	San Antonio Palopó	9	San Antonio Palopo	5	Mayo	2023-06-05T00:00:00	2024-11-08T02:00:00	3	Temperatura mínima	19.8
169416	7	Sololá	712	San Antonio Palopó	9	San Antonio Palopo	5	Mayo	2023-06-05T00:00:00	2024-11-08T02:00:00	5	Humedad	72
169417	7	Sololá	712	San Antonio Palopó	9	San Antonio Palopo	5	Mayo	2023-06-05T00:00:00	2024-11-08T02:00:00	6	Velocidad del viento	16.1
169418	7	Sololá	712	San Antonio Palopó	9	San Antonio Palopo	5	Mayo	2023-06-05T00:00:00	2024-11-08T02:00:00	7	Dirección del viento	16.09
169419	7	Sololá	712	San Antonio Palopó	9	San Antonio Palopo	5	Mayo	2023-06-05T00:00:00	2024-11-08T02:00:00	1	Precipitación	0
169420	7	Sololá	712	San Antonio Palopó	9	San Antonio Palopo	5	Mayo	2023-06-05T00:00:00	2024-11-08T02:00:00	8	Radiación solar	0
169421	7	Sololá	712	San Antonio Palopó	9	San Antonio Palopo	5	Mayo	2023-06-05T00:00:00	2024-11-08T03:00:00	2	Temperatura media	19.6
169422	7	Sololá	712	San Antonio Palopó	9	San Antonio Palopo	5	Mayo	2023-06-05T00:00:00	2024-11-08T03:00:00	4	Temperatura máxima	19.9
169423	7	Sololá	712	San Antonio Palopó	9	San Antonio Palopo	5	Mayo	2023-06-05T00:00:00	2024-11-08T03:00:00	3	Temperatura mínima	19.4
169424	7	Sololá	712	San Antonio Palopó	9	San Antonio Palopo	5	Mayo	2023-06-05T00:00:00	2024-11-08T03:00:00	5	Humedad	71
169425	7	Sololá	712	San Antonio Palopó	9	San Antonio Palopo	5	Mayo	2023-06-05T00:00:00	2024-11-08T03:00:00	6	Velocidad del viento	16.1
169426	7	Sololá	712	San Antonio Palopó	9	San Antonio Palopo	5	Mayo	2023-06-05T00:00:00	2024-11-08T03:00:00	7	Dirección del viento	16.09
169427	7	Sololá	712	San Antonio Palopó	9	San Antonio Palopo	5	Mayo	2023-06-05T00:00:00	2024-11-08T03:00:00	1	Precipitación	0
169428	7	Sololá	712	San Antonio Palopó	9	San Antonio Palopo	5	Mayo	2023-06-05T00:00:00	2024-11-08T03:00:00	8	Radiación solar	0
169429	7	Sololá	712	San Antonio Palopó	9	San Antonio Palopo	5	Mayo	2023-06-05T00:00:00	2024-11-08T04:00:00	2	Temperatura media	19.7
169430	7	Sololá	712	San Antonio Palopó	9	San Antonio Palopo	5	Mayo	2023-06-05T00:00:00	2024-11-08T04:00:00	4	Temperatura máxima	19.7
169431	7	Sololá	712	San Antonio Palopó	9	San Antonio Palopo	5	Mayo	2023-06-05T00:00:00	2024-11-08T04:00:00	3	Temperatura mínima	19.6
169432	7	Sololá	712	San Antonio Palopó	9	San Antonio Palopo	5	Mayo	2023-06-05T00:00:00	2024-11-08T04:00:00	5	Humedad	67
169433	7	Sololá	712	San Antonio Palopó	9	San Antonio Palopo	5	Mayo	2023-06-05T00:00:00	2024-11-08T04:00:00	6	Velocidad del viento	14.5
169434	7	Sololá	712	San Antonio Palopó	9	San Antonio Palopo	5	Mayo	2023-06-05T00:00:00	2024-11-08T04:00:00	7	Dirección del viento	14.48
169435	7	Sololá	712	San Antonio Palopó	9	San Antonio Palopo	5	Mayo	2023-06-05T00:00:00	2024-11-08T04:00:00	1	Precipitación	0
169436	7	Sololá	712	San Antonio Palopó	9	San Antonio Palopo	5	Mayo	2023-06-05T00:00:00	2024-11-08T04:00:00	8	Radiación solar	0
169437	7	Sololá	712	San Antonio Palopó	9	San Antonio Palopo	5	Mayo	2023-06-05T00:00:00	2024-11-08T05:00:00	2	Temperatura media	19.4
169438	7	Sololá	712	San Antonio Palopó	9	San Antonio Palopo	5	Mayo	2023-06-05T00:00:00	2024-11-08T05:00:00	4	Temperatura máxima	20.1
169439	7	Sololá	712	San Antonio Palopó	9	San Antonio Palopo	5	Mayo	2023-06-05T00:00:00	2024-11-08T05:00:00	3	Temperatura mínima	19.4
169440	7	Sololá	712	San Antonio Palopó	9	San Antonio Palopo	5	Mayo	2023-06-05T00:00:00	2024-11-08T05:00:00	5	Humedad	65
169441	7	Sololá	712	San Antonio Palopó	9	San Antonio Palopo	5	Mayo	2023-06-05T00:00:00	2024-11-08T05:00:00	6	Velocidad del viento	9.7
169442	7	Sololá	712	San Antonio Palopó	9	San Antonio Palopo	5	Mayo	2023-06-05T00:00:00	2024-11-08T05:00:00	7	Dirección del viento	9.66
169443	7	Sololá	712	San Antonio Palopó	9	San Antonio Palopo	5	Mayo	2023-06-05T00:00:00	2024-11-08T05:00:00	1	Precipitación	0
169444	7	Sololá	712	San Antonio Palopó	9	San Antonio Palopo	5	Mayo	2023-06-05T00:00:00	2024-11-08T05:00:00	8	Radiación solar	0
169445	7	Sololá	712	San Antonio Palopó	9	San Antonio Palopo	5	Mayo	2023-06-05T00:00:00	2024-11-08T06:00:00	2	Temperatura media	18.5
169446	7	Sololá	712	San Antonio Palopó	9	San Antonio Palopo	5	Mayo	2023-06-05T00:00:00	2024-11-08T06:00:00	4	Temperatura máxima	19.5
169447	7	Sololá	712	San Antonio Palopó	9	San Antonio Palopo	5	Mayo	2023-06-05T00:00:00	2024-11-08T06:00:00	3	Temperatura mínima	18.5
169448	7	Sololá	712	San Antonio Palopó	9	San Antonio Palopo	5	Mayo	2023-06-05T00:00:00	2024-11-08T06:00:00	5	Humedad	72
169449	7	Sololá	712	San Antonio Palopó	9	San Antonio Palopo	5	Mayo	2023-06-05T00:00:00	2024-11-08T06:00:00	6	Velocidad del viento	17.7
169450	7	Sololá	712	San Antonio Palopó	9	San Antonio Palopo	5	Mayo	2023-06-05T00:00:00	2024-11-08T06:00:00	7	Dirección del viento	17.7
169451	7	Sololá	712	San Antonio Palopó	9	San Antonio Palopo	5	Mayo	2023-06-05T00:00:00	2024-11-08T06:00:00	1	Precipitación	0
169452	7	Sololá	712	San Antonio Palopó	9	San Antonio Palopo	5	Mayo	2023-06-05T00:00:00	2024-11-08T06:00:00	8	Radiación solar	2
169453	7	Sololá	712	San Antonio Palopó	9	San Antonio Palopo	5	Mayo	2023-06-05T00:00:00	2024-11-08T07:00:00	2	Temperatura media	18.7
169454	7	Sololá	712	San Antonio Palopó	9	San Antonio Palopo	5	Mayo	2023-06-05T00:00:00	2024-11-08T07:00:00	4	Temperatura máxima	18.7
169455	7	Sololá	712	San Antonio Palopó	9	San Antonio Palopo	5	Mayo	2023-06-05T00:00:00	2024-11-08T07:00:00	3	Temperatura mínima	18.2
169456	7	Sololá	712	San Antonio Palopó	9	San Antonio Palopo	5	Mayo	2023-06-05T00:00:00	2024-11-08T07:00:00	5	Humedad	70
169457	7	Sololá	712	San Antonio Palopó	9	San Antonio Palopo	5	Mayo	2023-06-05T00:00:00	2024-11-08T07:00:00	6	Velocidad del viento	17.7
169458	7	Sololá	712	San Antonio Palopó	9	San Antonio Palopo	5	Mayo	2023-06-05T00:00:00	2024-11-08T07:00:00	7	Dirección del viento	17.7
169459	7	Sololá	712	San Antonio Palopó	9	San Antonio Palopo	5	Mayo	2023-06-05T00:00:00	2024-11-08T07:00:00	1	Precipitación	0
169460	7	Sololá	712	San Antonio Palopó	9	San Antonio Palopo	5	Mayo	2023-06-05T00:00:00	2024-11-08T07:00:00	8	Radiación solar	29
169461	7	Sololá	712	San Antonio Palopó	9	San Antonio Palopo	5	Mayo	2023-06-05T00:00:00	2024-11-08T08:00:00	2	Temperatura media	20.9
169462	7	Sololá	712	San Antonio Palopó	9	San Antonio Palopo	5	Mayo	2023-06-05T00:00:00	2024-11-08T08:00:00	4	Temperatura máxima	20.9
169463	7	Sololá	712	San Antonio Palopó	9	San Antonio Palopo	5	Mayo	2023-06-05T00:00:00	2024-11-08T08:00:00	3	Temperatura mínima	18.7
169464	7	Sololá	712	San Antonio Palopó	9	San Antonio Palopo	5	Mayo	2023-06-05T00:00:00	2024-11-08T08:00:00	5	Humedad	65
169465	7	Sololá	712	San Antonio Palopó	9	San Antonio Palopo	5	Mayo	2023-06-05T00:00:00	2024-11-08T08:00:00	6	Velocidad del viento	4.8
169466	7	Sololá	712	San Antonio Palopó	9	San Antonio Palopo	5	Mayo	2023-06-05T00:00:00	2024-11-08T08:00:00	7	Dirección del viento	4.83
169467	7	Sololá	712	San Antonio Palopó	9	San Antonio Palopo	5	Mayo	2023-06-05T00:00:00	2024-11-08T08:00:00	1	Precipitación	0
169468	7	Sololá	712	San Antonio Palopó	9	San Antonio Palopo	5	Mayo	2023-06-05T00:00:00	2024-11-08T08:00:00	8	Radiación solar	192
169469	7	Sololá	712	San Antonio Palopó	9	San Antonio Palopo	5	Mayo	2023-06-05T00:00:00	2024-11-08T09:00:00	2	Temperatura media	22.1
169470	7	Sololá	712	San Antonio Palopó	9	San Antonio Palopo	5	Mayo	2023-06-05T00:00:00	2024-11-08T09:00:00	4	Temperatura máxima	22.4
169471	7	Sololá	712	San Antonio Palopó	9	San Antonio Palopo	5	Mayo	2023-06-05T00:00:00	2024-11-08T09:00:00	3	Temperatura mínima	20.9
169472	7	Sololá	712	San Antonio Palopó	9	San Antonio Palopo	5	Mayo	2023-06-05T00:00:00	2024-11-08T09:00:00	5	Humedad	60
169473	7	Sololá	712	San Antonio Palopó	9	San Antonio Palopo	5	Mayo	2023-06-05T00:00:00	2024-11-08T09:00:00	6	Velocidad del viento	1.6
169474	7	Sololá	712	San Antonio Palopó	9	San Antonio Palopo	5	Mayo	2023-06-05T00:00:00	2024-11-08T09:00:00	7	Dirección del viento	1.61
169475	7	Sololá	712	San Antonio Palopó	9	San Antonio Palopo	5	Mayo	2023-06-05T00:00:00	2024-11-08T09:00:00	1	Precipitación	0
169476	7	Sololá	712	San Antonio Palopó	9	San Antonio Palopo	5	Mayo	2023-06-05T00:00:00	2024-11-08T09:00:00	8	Radiación solar	524
169477	7	Sololá	712	San Antonio Palopó	9	San Antonio Palopo	5	Mayo	2023-06-05T00:00:00	2024-11-08T10:00:00	2	Temperatura media	25.2
169478	7	Sololá	712	San Antonio Palopó	9	San Antonio Palopo	5	Mayo	2023-06-05T00:00:00	2024-11-08T10:00:00	4	Temperatura máxima	25.2
169479	7	Sololá	712	San Antonio Palopó	9	San Antonio Palopo	5	Mayo	2023-06-05T00:00:00	2024-11-08T10:00:00	3	Temperatura mínima	21.9
169480	7	Sololá	712	San Antonio Palopó	9	San Antonio Palopo	5	Mayo	2023-06-05T00:00:00	2024-11-08T10:00:00	5	Humedad	50
169481	7	Sololá	712	San Antonio Palopó	9	San Antonio Palopo	5	Mayo	2023-06-05T00:00:00	2024-11-08T10:00:00	6	Velocidad del viento	9.7
169482	7	Sololá	712	San Antonio Palopó	9	San Antonio Palopo	5	Mayo	2023-06-05T00:00:00	2024-11-08T10:00:00	7	Dirección del viento	9.66
169483	7	Sololá	712	San Antonio Palopó	9	San Antonio Palopo	5	Mayo	2023-06-05T00:00:00	2024-11-08T10:00:00	1	Precipitación	0
169484	7	Sololá	712	San Antonio Palopó	9	San Antonio Palopo	5	Mayo	2023-06-05T00:00:00	2024-11-08T10:00:00	8	Radiación solar	722
169485	7	Sololá	712	San Antonio Palopó	9	San Antonio Palopo	5	Mayo	2023-06-05T00:00:00	2024-11-08T11:00:00	2	Temperatura media	26.6
169486	7	Sololá	712	San Antonio Palopó	9	San Antonio Palopo	5	Mayo	2023-06-05T00:00:00	2024-11-08T11:00:00	4	Temperatura máxima	26.6
169487	7	Sololá	712	San Antonio Palopó	9	San Antonio Palopo	5	Mayo	2023-06-05T00:00:00	2024-11-08T11:00:00	3	Temperatura mínima	25.2
169488	7	Sololá	712	San Antonio Palopó	9	San Antonio Palopo	5	Mayo	2023-06-05T00:00:00	2024-11-08T11:00:00	5	Humedad	39
169489	7	Sololá	712	San Antonio Palopó	9	San Antonio Palopo	5	Mayo	2023-06-05T00:00:00	2024-11-08T11:00:00	6	Velocidad del viento	11.3
169490	7	Sololá	712	San Antonio Palopó	9	San Antonio Palopo	5	Mayo	2023-06-05T00:00:00	2024-11-08T11:00:00	7	Dirección del viento	11.27
169491	7	Sololá	712	San Antonio Palopó	9	San Antonio Palopo	5	Mayo	2023-06-05T00:00:00	2024-11-08T11:00:00	1	Precipitación	0
169492	7	Sololá	712	San Antonio Palopó	9	San Antonio Palopo	5	Mayo	2023-06-05T00:00:00	2024-11-08T11:00:00	8	Radiación solar	859
169493	7	Sololá	712	San Antonio Palopó	9	San Antonio Palopo	5	Mayo	2023-06-05T00:00:00	2024-11-08T12:00:00	2	Temperatura media	26.1
169494	7	Sololá	712	San Antonio Palopó	9	San Antonio Palopo	5	Mayo	2023-06-05T00:00:00	2024-11-08T12:00:00	4	Temperatura máxima	27.4
169495	7	Sololá	712	San Antonio Palopó	9	San Antonio Palopo	5	Mayo	2023-06-05T00:00:00	2024-11-08T12:00:00	3	Temperatura mínima	26
169496	7	Sololá	712	San Antonio Palopó	9	San Antonio Palopo	5	Mayo	2023-06-05T00:00:00	2024-11-08T12:00:00	5	Humedad	63
169497	7	Sololá	712	San Antonio Palopó	9	San Antonio Palopo	5	Mayo	2023-06-05T00:00:00	2024-11-08T12:00:00	6	Velocidad del viento	9.7
169498	7	Sololá	712	San Antonio Palopó	9	San Antonio Palopo	5	Mayo	2023-06-05T00:00:00	2024-11-08T12:00:00	7	Dirección del viento	9.66
169499	7	Sololá	712	San Antonio Palopó	9	San Antonio Palopo	5	Mayo	2023-06-05T00:00:00	2024-11-08T12:00:00	1	Precipitación	0
169500	7	Sololá	712	San Antonio Palopó	9	San Antonio Palopo	5	Mayo	2023-06-05T00:00:00	2024-11-08T12:00:00	8	Radiación solar	928
169501	7	Sololá	712	San Antonio Palopó	9	San Antonio Palopo	5	Mayo	2023-06-05T00:00:00	2024-11-08T13:00:00	2	Temperatura media	26.7
169502	7	Sololá	712	San Antonio Palopó	9	San Antonio Palopo	5	Mayo	2023-06-05T00:00:00	2024-11-08T13:00:00	4	Temperatura máxima	27.8
169503	7	Sololá	712	San Antonio Palopó	9	San Antonio Palopo	5	Mayo	2023-06-05T00:00:00	2024-11-08T13:00:00	3	Temperatura mínima	26
169504	7	Sololá	712	San Antonio Palopó	9	San Antonio Palopo	5	Mayo	2023-06-05T00:00:00	2024-11-08T13:00:00	5	Humedad	53
169505	7	Sololá	712	San Antonio Palopó	9	San Antonio Palopo	5	Mayo	2023-06-05T00:00:00	2024-11-08T13:00:00	6	Velocidad del viento	12.9
169506	7	Sololá	712	San Antonio Palopó	9	San Antonio Palopo	5	Mayo	2023-06-05T00:00:00	2024-11-08T13:00:00	7	Dirección del viento	12.87
169507	7	Sololá	712	San Antonio Palopó	9	San Antonio Palopo	5	Mayo	2023-06-05T00:00:00	2024-11-08T13:00:00	1	Precipitación	0
169508	7	Sololá	712	San Antonio Palopó	9	San Antonio Palopo	5	Mayo	2023-06-05T00:00:00	2024-11-08T13:00:00	8	Radiación solar	924
169509	7	Sololá	712	San Antonio Palopó	9	San Antonio Palopo	5	Mayo	2023-06-05T00:00:00	2024-11-08T14:00:00	2	Temperatura media	25.6
169510	7	Sololá	712	San Antonio Palopó	9	San Antonio Palopo	5	Mayo	2023-06-05T00:00:00	2024-11-08T14:00:00	4	Temperatura máxima	26.8
169511	7	Sololá	712	San Antonio Palopó	9	San Antonio Palopo	5	Mayo	2023-06-05T00:00:00	2024-11-08T14:00:00	3	Temperatura mínima	25.6
169512	7	Sololá	712	San Antonio Palopó	9	San Antonio Palopo	5	Mayo	2023-06-05T00:00:00	2024-11-08T14:00:00	5	Humedad	62
169513	7	Sololá	712	San Antonio Palopó	9	San Antonio Palopo	5	Mayo	2023-06-05T00:00:00	2024-11-08T14:00:00	6	Velocidad del viento	16.1
169514	7	Sololá	712	San Antonio Palopó	9	San Antonio Palopo	5	Mayo	2023-06-05T00:00:00	2024-11-08T14:00:00	7	Dirección del viento	16.09
169515	7	Sololá	712	San Antonio Palopó	9	San Antonio Palopo	5	Mayo	2023-06-05T00:00:00	2024-11-08T14:00:00	1	Precipitación	0
169516	7	Sololá	712	San Antonio Palopó	9	San Antonio Palopo	5	Mayo	2023-06-05T00:00:00	2024-11-08T14:00:00	8	Radiación solar	836
169517	7	Sololá	712	San Antonio Palopó	9	San Antonio Palopo	5	Mayo	2023-06-05T00:00:00	2024-11-08T15:00:00	2	Temperatura media	25.6
169518	7	Sololá	712	San Antonio Palopó	9	San Antonio Palopo	5	Mayo	2023-06-05T00:00:00	2024-11-08T15:00:00	4	Temperatura máxima	26.2
169519	7	Sololá	712	San Antonio Palopó	9	San Antonio Palopo	5	Mayo	2023-06-05T00:00:00	2024-11-08T15:00:00	3	Temperatura mínima	25.3
169520	7	Sololá	712	San Antonio Palopó	9	San Antonio Palopo	5	Mayo	2023-06-05T00:00:00	2024-11-08T15:00:00	5	Humedad	64
169521	7	Sololá	712	San Antonio Palopó	9	San Antonio Palopo	5	Mayo	2023-06-05T00:00:00	2024-11-08T15:00:00	6	Velocidad del viento	12.9
169522	7	Sololá	712	San Antonio Palopó	9	San Antonio Palopo	5	Mayo	2023-06-05T00:00:00	2024-11-08T15:00:00	7	Dirección del viento	12.87
169523	7	Sololá	712	San Antonio Palopó	9	San Antonio Palopo	5	Mayo	2023-06-05T00:00:00	2024-11-08T15:00:00	1	Precipitación	0
169524	7	Sololá	712	San Antonio Palopó	9	San Antonio Palopo	5	Mayo	2023-06-05T00:00:00	2024-11-08T15:00:00	8	Radiación solar	666
169525	7	Sololá	712	San Antonio Palopó	9	San Antonio Palopo	5	Mayo	2023-06-05T00:00:00	2024-11-08T16:00:00	2	Temperatura media	25.3
169526	7	Sololá	712	San Antonio Palopó	9	San Antonio Palopo	5	Mayo	2023-06-05T00:00:00	2024-11-08T16:00:00	4	Temperatura máxima	25.8
169527	7	Sololá	712	San Antonio Palopó	9	San Antonio Palopo	5	Mayo	2023-06-05T00:00:00	2024-11-08T16:00:00	3	Temperatura mínima	24.7
169528	7	Sololá	712	San Antonio Palopó	9	San Antonio Palopo	5	Mayo	2023-06-05T00:00:00	2024-11-08T16:00:00	5	Humedad	68
169529	7	Sololá	712	San Antonio Palopó	9	San Antonio Palopo	5	Mayo	2023-06-05T00:00:00	2024-11-08T16:00:00	6	Velocidad del viento	8
169530	7	Sololá	712	San Antonio Palopó	9	San Antonio Palopo	5	Mayo	2023-06-05T00:00:00	2024-11-08T16:00:00	7	Dirección del viento	8.05
169531	7	Sololá	712	San Antonio Palopó	9	San Antonio Palopo	5	Mayo	2023-06-05T00:00:00	2024-11-08T16:00:00	1	Precipitación	0
169532	7	Sololá	712	San Antonio Palopó	9	San Antonio Palopo	5	Mayo	2023-06-05T00:00:00	2024-11-08T16:00:00	8	Radiación solar	482
169533	7	Sololá	712	San Antonio Palopó	9	San Antonio Palopo	5	Mayo	2023-06-05T00:00:00	2024-11-08T17:00:00	2	Temperatura media	25.5
169534	7	Sololá	712	San Antonio Palopó	9	San Antonio Palopo	5	Mayo	2023-06-05T00:00:00	2024-11-08T17:00:00	4	Temperatura máxima	26.3
169535	7	Sololá	712	San Antonio Palopó	9	San Antonio Palopo	5	Mayo	2023-06-05T00:00:00	2024-11-08T17:00:00	3	Temperatura mínima	24.9
169536	7	Sololá	712	San Antonio Palopó	9	San Antonio Palopo	5	Mayo	2023-06-05T00:00:00	2024-11-08T17:00:00	5	Humedad	68
169537	7	Sololá	712	San Antonio Palopó	9	San Antonio Palopo	5	Mayo	2023-06-05T00:00:00	2024-11-08T17:00:00	6	Velocidad del viento	6.4
169538	7	Sololá	712	San Antonio Palopó	9	San Antonio Palopo	5	Mayo	2023-06-05T00:00:00	2024-11-08T17:00:00	7	Dirección del viento	6.44
169539	7	Sololá	712	San Antonio Palopó	9	San Antonio Palopo	5	Mayo	2023-06-05T00:00:00	2024-11-08T17:00:00	1	Precipitación	0
169540	7	Sololá	712	San Antonio Palopó	9	San Antonio Palopo	5	Mayo	2023-06-05T00:00:00	2024-11-08T17:00:00	8	Radiación solar	310
169541	7	Sololá	712	San Antonio Palopó	9	San Antonio Palopo	5	Mayo	2023-06-05T00:00:00	2024-11-08T18:00:00	2	Temperatura media	24.1
169542	7	Sololá	712	San Antonio Palopó	9	San Antonio Palopo	5	Mayo	2023-06-05T00:00:00	2024-11-08T18:00:00	4	Temperatura máxima	25.6
169543	7	Sololá	712	San Antonio Palopó	9	San Antonio Palopo	5	Mayo	2023-06-05T00:00:00	2024-11-08T18:00:00	3	Temperatura mínima	24.1
169544	7	Sololá	712	San Antonio Palopó	9	San Antonio Palopo	5	Mayo	2023-06-05T00:00:00	2024-11-08T18:00:00	5	Humedad	72
169545	7	Sololá	712	San Antonio Palopó	9	San Antonio Palopo	5	Mayo	2023-06-05T00:00:00	2024-11-08T18:00:00	6	Velocidad del viento	4.8
169546	7	Sololá	712	San Antonio Palopó	9	San Antonio Palopo	5	Mayo	2023-06-05T00:00:00	2024-11-08T18:00:00	7	Dirección del viento	4.83
169547	7	Sololá	712	San Antonio Palopó	9	San Antonio Palopo	5	Mayo	2023-06-05T00:00:00	2024-11-08T18:00:00	1	Precipitación	0
169548	7	Sololá	712	San Antonio Palopó	9	San Antonio Palopo	5	Mayo	2023-06-05T00:00:00	2024-11-08T18:00:00	8	Radiación solar	99
169549	7	Sololá	712	San Antonio Palopó	9	San Antonio Palopo	5	Mayo	2023-06-05T00:00:00	2024-11-08T19:00:00	2	Temperatura media	24.4
169550	7	Sololá	712	San Antonio Palopó	9	San Antonio Palopo	5	Mayo	2023-06-05T00:00:00	2024-11-08T19:00:00	4	Temperatura máxima	24.8
169551	7	Sololá	712	San Antonio Palopó	9	San Antonio Palopo	5	Mayo	2023-06-05T00:00:00	2024-11-08T19:00:00	3	Temperatura mínima	24.1
169552	7	Sololá	712	San Antonio Palopó	9	San Antonio Palopo	5	Mayo	2023-06-05T00:00:00	2024-11-08T19:00:00	5	Humedad	51
169553	7	Sololá	712	San Antonio Palopó	9	San Antonio Palopo	5	Mayo	2023-06-05T00:00:00	2024-11-08T19:00:00	6	Velocidad del viento	1.6
169554	7	Sololá	712	San Antonio Palopó	9	San Antonio Palopo	5	Mayo	2023-06-05T00:00:00	2024-11-08T19:00:00	7	Dirección del viento	1.61
169555	7	Sololá	712	San Antonio Palopó	9	San Antonio Palopo	5	Mayo	2023-06-05T00:00:00	2024-11-08T19:00:00	1	Precipitación	0
169556	7	Sololá	712	San Antonio Palopó	9	San Antonio Palopo	5	Mayo	2023-06-05T00:00:00	2024-11-08T19:00:00	8	Radiación solar	0
169557	7	Sololá	712	San Antonio Palopó	9	San Antonio Palopo	5	Mayo	2023-06-05T00:00:00	2024-11-08T20:00:00	2	Temperatura media	23.8
169558	7	Sololá	712	San Antonio Palopó	9	San Antonio Palopo	5	Mayo	2023-06-05T00:00:00	2024-11-08T20:00:00	4	Temperatura máxima	24.6
169559	7	Sololá	712	San Antonio Palopó	9	San Antonio Palopo	5	Mayo	2023-06-05T00:00:00	2024-11-08T20:00:00	3	Temperatura mínima	23.8
169560	7	Sololá	712	San Antonio Palopó	9	San Antonio Palopo	5	Mayo	2023-06-05T00:00:00	2024-11-08T20:00:00	5	Humedad	47
169561	7	Sololá	712	San Antonio Palopó	9	San Antonio Palopo	5	Mayo	2023-06-05T00:00:00	2024-11-08T20:00:00	6	Velocidad del viento	4.8
169562	7	Sololá	712	San Antonio Palopó	9	San Antonio Palopo	5	Mayo	2023-06-05T00:00:00	2024-11-08T20:00:00	7	Dirección del viento	4.83
169563	7	Sololá	712	San Antonio Palopó	9	San Antonio Palopo	5	Mayo	2023-06-05T00:00:00	2024-11-08T20:00:00	1	Precipitación	0
169564	7	Sololá	712	San Antonio Palopó	9	San Antonio Palopo	5	Mayo	2023-06-05T00:00:00	2024-11-08T20:00:00	8	Radiación solar	0
169565	7	Sololá	712	San Antonio Palopó	9	San Antonio Palopo	5	Mayo	2023-06-05T00:00:00	2024-11-08T21:00:00	2	Temperatura media	22.4
169566	7	Sololá	712	San Antonio Palopó	9	San Antonio Palopo	5	Mayo	2023-06-05T00:00:00	2024-11-08T21:00:00	4	Temperatura máxima	23.8
169567	7	Sololá	712	San Antonio Palopó	9	San Antonio Palopo	5	Mayo	2023-06-05T00:00:00	2024-11-08T21:00:00	3	Temperatura mínima	22.3
169568	7	Sololá	712	San Antonio Palopó	9	San Antonio Palopo	5	Mayo	2023-06-05T00:00:00	2024-11-08T21:00:00	5	Humedad	47
169569	7	Sololá	712	San Antonio Palopó	9	San Antonio Palopo	5	Mayo	2023-06-05T00:00:00	2024-11-08T21:00:00	6	Velocidad del viento	9.7
169570	7	Sololá	712	San Antonio Palopó	9	San Antonio Palopo	5	Mayo	2023-06-05T00:00:00	2024-11-08T21:00:00	7	Dirección del viento	9.66
169571	7	Sololá	712	San Antonio Palopó	9	San Antonio Palopo	5	Mayo	2023-06-05T00:00:00	2024-11-08T21:00:00	1	Precipitación	0
169572	7	Sololá	712	San Antonio Palopó	9	San Antonio Palopo	5	Mayo	2023-06-05T00:00:00	2024-11-08T21:00:00	8	Radiación solar	0
169573	7	Sololá	712	San Antonio Palopó	9	San Antonio Palopo	5	Mayo	2023-06-05T00:00:00	2024-11-08T22:00:00	2	Temperatura media	21.8
169574	7	Sololá	712	San Antonio Palopó	9	San Antonio Palopo	5	Mayo	2023-06-05T00:00:00	2024-11-08T22:00:00	4	Temperatura máxima	22.4
169575	7	Sololá	712	San Antonio Palopó	9	San Antonio Palopo	5	Mayo	2023-06-05T00:00:00	2024-11-08T22:00:00	3	Temperatura mínima	21.7
169576	7	Sololá	712	San Antonio Palopó	9	San Antonio Palopo	5	Mayo	2023-06-05T00:00:00	2024-11-08T22:00:00	5	Humedad	49
169577	7	Sololá	712	San Antonio Palopó	9	San Antonio Palopo	5	Mayo	2023-06-05T00:00:00	2024-11-08T22:00:00	6	Velocidad del viento	9.7
169578	7	Sololá	712	San Antonio Palopó	9	San Antonio Palopo	5	Mayo	2023-06-05T00:00:00	2024-11-08T22:00:00	7	Dirección del viento	9.66
169579	7	Sololá	712	San Antonio Palopó	9	San Antonio Palopo	5	Mayo	2023-06-05T00:00:00	2024-11-08T22:00:00	1	Precipitación	0
169580	7	Sololá	712	San Antonio Palopó	9	San Antonio Palopo	5	Mayo	2023-06-05T00:00:00	2024-11-08T22:00:00	8	Radiación solar	0
169581	7	Sololá	712	San Antonio Palopó	9	San Antonio Palopo	5	Mayo	2023-06-05T00:00:00	2024-11-08T23:00:00	2	Temperatura media	20.7
169582	7	Sololá	712	San Antonio Palopó	9	San Antonio Palopo	5	Mayo	2023-06-05T00:00:00	2024-11-08T23:00:00	4	Temperatura máxima	21.8
169583	7	Sololá	712	San Antonio Palopó	9	San Antonio Palopo	5	Mayo	2023-06-05T00:00:00	2024-11-08T23:00:00	3	Temperatura mínima	20.7
169584	7	Sololá	712	San Antonio Palopó	9	San Antonio Palopo	5	Mayo	2023-06-05T00:00:00	2024-11-08T23:00:00	5	Humedad	53
169585	7	Sololá	712	San Antonio Palopó	9	San Antonio Palopo	5	Mayo	2023-06-05T00:00:00	2024-11-08T23:00:00	6	Velocidad del viento	11.3
169586	7	Sololá	712	San Antonio Palopó	9	San Antonio Palopo	5	Mayo	2023-06-05T00:00:00	2024-11-08T23:00:00	7	Dirección del viento	11.27
169587	7	Sololá	712	San Antonio Palopó	9	San Antonio Palopo	5	Mayo	2023-06-05T00:00:00	2024-11-08T23:00:00	1	Precipitación	0
169588	7	Sololá	712	San Antonio Palopó	9	San Antonio Palopo	5	Mayo	2023-06-05T00:00:00	2024-11-08T23:00:00	8	Radiación solar	0
169589	7	Sololá	712	San Antonio Palopó	9	San Antonio Palopo	5	Mayo	2023-07-05T00:00:00	2024-11-08T00:00:00	2	Temperatura media	21.1
169590	7	Sololá	712	San Antonio Palopó	9	San Antonio Palopo	5	Mayo	2023-07-05T00:00:00	2024-11-08T00:00:00	4	Temperatura máxima	21.2
169591	7	Sololá	712	San Antonio Palopó	9	San Antonio Palopo	5	Mayo	2023-07-05T00:00:00	2024-11-08T00:00:00	3	Temperatura mínima	20.6
169592	7	Sololá	712	San Antonio Palopó	9	San Antonio Palopo	5	Mayo	2023-07-05T00:00:00	2024-11-08T00:00:00	5	Humedad	51
169593	7	Sololá	712	San Antonio Palopó	9	San Antonio Palopo	5	Mayo	2023-07-05T00:00:00	2024-11-08T00:00:00	6	Velocidad del viento	9.7
169594	7	Sololá	712	San Antonio Palopó	9	San Antonio Palopo	5	Mayo	2023-07-05T00:00:00	2024-11-08T00:00:00	7	Dirección del viento	9.66
169595	7	Sololá	712	San Antonio Palopó	9	San Antonio Palopo	5	Mayo	2023-07-05T00:00:00	2024-11-08T00:00:00	1	Precipitación	0
169596	7	Sololá	712	San Antonio Palopó	9	San Antonio Palopo	5	Mayo	2023-07-05T00:00:00	2024-11-08T00:00:00	8	Radiación solar	0
169597	7	Sololá	712	San Antonio Palopó	9	San Antonio Palopo	5	Mayo	2023-07-05T00:00:00	2024-11-08T01:00:00	2	Temperatura media	20.9
169598	7	Sololá	712	San Antonio Palopó	9	San Antonio Palopo	5	Mayo	2023-07-05T00:00:00	2024-11-08T01:00:00	4	Temperatura máxima	21.2
169599	7	Sololá	712	San Antonio Palopó	9	San Antonio Palopo	5	Mayo	2023-07-05T00:00:00	2024-11-08T01:00:00	3	Temperatura mínima	20.9
169600	7	Sololá	712	San Antonio Palopó	9	San Antonio Palopo	5	Mayo	2023-07-05T00:00:00	2024-11-08T01:00:00	5	Humedad	48
169601	7	Sololá	712	San Antonio Palopó	9	San Antonio Palopo	5	Mayo	2023-07-05T00:00:00	2024-11-08T01:00:00	6	Velocidad del viento	6.4
169602	7	Sololá	712	San Antonio Palopó	9	San Antonio Palopo	5	Mayo	2023-07-05T00:00:00	2024-11-08T01:00:00	7	Dirección del viento	6.44
169603	7	Sololá	712	San Antonio Palopó	9	San Antonio Palopo	5	Mayo	2023-07-05T00:00:00	2024-11-08T01:00:00	1	Precipitación	0
169604	7	Sololá	712	San Antonio Palopó	9	San Antonio Palopo	5	Mayo	2023-07-05T00:00:00	2024-11-08T01:00:00	8	Radiación solar	0
169605	7	Sololá	712	San Antonio Palopó	9	San Antonio Palopo	5	Mayo	2023-07-05T00:00:00	2024-11-08T02:00:00	2	Temperatura media	19.6
169606	7	Sololá	712	San Antonio Palopó	9	San Antonio Palopo	5	Mayo	2023-07-05T00:00:00	2024-11-08T02:00:00	4	Temperatura máxima	21
169607	7	Sololá	712	San Antonio Palopó	9	San Antonio Palopo	5	Mayo	2023-07-05T00:00:00	2024-11-08T02:00:00	3	Temperatura mínima	19.6
169608	7	Sololá	712	San Antonio Palopó	9	San Antonio Palopo	5	Mayo	2023-07-05T00:00:00	2024-11-08T02:00:00	5	Humedad	55
169609	7	Sololá	712	San Antonio Palopó	9	San Antonio Palopo	5	Mayo	2023-07-05T00:00:00	2024-11-08T02:00:00	6	Velocidad del viento	11.3
169610	7	Sololá	712	San Antonio Palopó	9	San Antonio Palopo	5	Mayo	2023-07-05T00:00:00	2024-11-08T02:00:00	7	Dirección del viento	11.27
169611	7	Sololá	712	San Antonio Palopó	9	San Antonio Palopo	5	Mayo	2023-07-05T00:00:00	2024-11-08T02:00:00	1	Precipitación	0
169612	7	Sololá	712	San Antonio Palopó	9	San Antonio Palopo	5	Mayo	2023-07-05T00:00:00	2024-11-08T02:00:00	8	Radiación solar	0
169613	7	Sololá	712	San Antonio Palopó	9	San Antonio Palopo	5	Mayo	2023-07-05T00:00:00	2024-11-08T03:00:00	2	Temperatura media	19.5
169614	7	Sololá	712	San Antonio Palopó	9	San Antonio Palopo	5	Mayo	2023-07-05T00:00:00	2024-11-08T03:00:00	4	Temperatura máxima	19.7
169615	7	Sololá	712	San Antonio Palopó	9	San Antonio Palopo	5	Mayo	2023-07-05T00:00:00	2024-11-08T03:00:00	3	Temperatura mínima	19.4
169616	7	Sololá	712	San Antonio Palopó	9	San Antonio Palopo	5	Mayo	2023-07-05T00:00:00	2024-11-08T03:00:00	5	Humedad	55
169617	7	Sololá	712	San Antonio Palopó	9	San Antonio Palopo	5	Mayo	2023-07-05T00:00:00	2024-11-08T03:00:00	6	Velocidad del viento	9.7
169618	7	Sololá	712	San Antonio Palopó	9	San Antonio Palopo	5	Mayo	2023-07-05T00:00:00	2024-11-08T03:00:00	7	Dirección del viento	9.66
169619	7	Sololá	712	San Antonio Palopó	9	San Antonio Palopo	5	Mayo	2023-07-05T00:00:00	2024-11-08T03:00:00	1	Precipitación	0
169620	7	Sololá	712	San Antonio Palopó	9	San Antonio Palopo	5	Mayo	2023-07-05T00:00:00	2024-11-08T03:00:00	8	Radiación solar	0
169621	7	Sololá	712	San Antonio Palopó	9	San Antonio Palopo	5	Mayo	2023-07-05T00:00:00	2024-11-08T04:00:00	2	Temperatura media	19.9
169622	7	Sololá	712	San Antonio Palopó	9	San Antonio Palopo	5	Mayo	2023-07-05T00:00:00	2024-11-08T04:00:00	4	Temperatura máxima	20.1
169623	7	Sololá	712	San Antonio Palopó	9	San Antonio Palopo	5	Mayo	2023-07-05T00:00:00	2024-11-08T04:00:00	3	Temperatura mínima	19.5
169624	7	Sololá	712	San Antonio Palopó	9	San Antonio Palopo	5	Mayo	2023-07-05T00:00:00	2024-11-08T04:00:00	5	Humedad	47
169625	7	Sololá	712	San Antonio Palopó	9	San Antonio Palopo	5	Mayo	2023-07-05T00:00:00	2024-11-08T04:00:00	6	Velocidad del viento	11.3
169626	7	Sololá	712	San Antonio Palopó	9	San Antonio Palopo	5	Mayo	2023-07-05T00:00:00	2024-11-08T04:00:00	7	Dirección del viento	11.27
169627	7	Sololá	712	San Antonio Palopó	9	San Antonio Palopo	5	Mayo	2023-07-05T00:00:00	2024-11-08T04:00:00	1	Precipitación	0
169628	7	Sololá	712	San Antonio Palopó	9	San Antonio Palopo	5	Mayo	2023-07-05T00:00:00	2024-11-08T04:00:00	8	Radiación solar	0
169629	7	Sololá	712	San Antonio Palopó	9	San Antonio Palopo	5	Mayo	2023-07-05T00:00:00	2024-11-08T05:00:00	2	Temperatura media	19.3
169630	7	Sololá	712	San Antonio Palopó	9	San Antonio Palopo	5	Mayo	2023-07-05T00:00:00	2024-11-08T05:00:00	4	Temperatura máxima	19.9
169631	7	Sololá	712	San Antonio Palopó	9	San Antonio Palopo	5	Mayo	2023-07-05T00:00:00	2024-11-08T05:00:00	3	Temperatura mínima	19.1
169632	7	Sololá	712	San Antonio Palopó	9	San Antonio Palopo	5	Mayo	2023-07-05T00:00:00	2024-11-08T05:00:00	5	Humedad	46
169633	7	Sololá	712	San Antonio Palopó	9	San Antonio Palopo	5	Mayo	2023-07-05T00:00:00	2024-11-08T05:00:00	6	Velocidad del viento	3.2
169634	7	Sololá	712	San Antonio Palopó	9	San Antonio Palopo	5	Mayo	2023-07-05T00:00:00	2024-11-08T05:00:00	7	Dirección del viento	3.22
169635	7	Sololá	712	San Antonio Palopó	9	San Antonio Palopo	5	Mayo	2023-07-05T00:00:00	2024-11-08T05:00:00	1	Precipitación	0
169636	7	Sololá	712	San Antonio Palopó	9	San Antonio Palopo	5	Mayo	2023-07-05T00:00:00	2024-11-08T05:00:00	8	Radiación solar	0
169637	7	Sololá	712	San Antonio Palopó	9	San Antonio Palopo	5	Mayo	2023-07-05T00:00:00	2024-11-08T06:00:00	2	Temperatura media	19.1
169638	7	Sololá	712	San Antonio Palopó	9	San Antonio Palopo	5	Mayo	2023-07-05T00:00:00	2024-11-08T06:00:00	4	Temperatura máxima	19.3
169639	7	Sololá	712	San Antonio Palopó	9	San Antonio Palopo	5	Mayo	2023-07-05T00:00:00	2024-11-08T06:00:00	3	Temperatura mínima	18.7
169640	7	Sololá	712	San Antonio Palopó	9	San Antonio Palopo	5	Mayo	2023-07-05T00:00:00	2024-11-08T06:00:00	5	Humedad	48
169641	7	Sololá	712	San Antonio Palopó	9	San Antonio Palopo	5	Mayo	2023-07-05T00:00:00	2024-11-08T06:00:00	6	Velocidad del viento	3.2
169642	7	Sololá	712	San Antonio Palopó	9	San Antonio Palopo	5	Mayo	2023-07-05T00:00:00	2024-11-08T06:00:00	7	Dirección del viento	3.22
169643	7	Sololá	712	San Antonio Palopó	9	San Antonio Palopo	5	Mayo	2023-07-05T00:00:00	2024-11-08T06:00:00	1	Precipitación	0
169644	7	Sololá	712	San Antonio Palopó	9	San Antonio Palopo	5	Mayo	2023-07-05T00:00:00	2024-11-08T06:00:00	8	Radiación solar	2
169645	7	Sololá	712	San Antonio Palopó	9	San Antonio Palopo	5	Mayo	2023-07-05T00:00:00	2024-11-08T07:00:00	2	Temperatura media	19.8
169646	7	Sololá	712	San Antonio Palopó	9	San Antonio Palopo	5	Mayo	2023-07-05T00:00:00	2024-11-08T07:00:00	4	Temperatura máxima	20
169647	7	Sololá	712	San Antonio Palopó	9	San Antonio Palopo	5	Mayo	2023-07-05T00:00:00	2024-11-08T07:00:00	3	Temperatura mínima	19
169648	7	Sololá	712	San Antonio Palopó	9	San Antonio Palopo	5	Mayo	2023-07-05T00:00:00	2024-11-08T07:00:00	5	Humedad	53
169649	7	Sololá	712	San Antonio Palopó	9	San Antonio Palopo	5	Mayo	2023-07-05T00:00:00	2024-11-08T07:00:00	6	Velocidad del viento	4.8
169650	7	Sololá	712	San Antonio Palopó	9	San Antonio Palopo	5	Mayo	2023-07-05T00:00:00	2024-11-08T07:00:00	7	Dirección del viento	4.83
169651	7	Sololá	712	San Antonio Palopó	9	San Antonio Palopo	5	Mayo	2023-07-05T00:00:00	2024-11-08T07:00:00	1	Precipitación	0
169652	7	Sololá	712	San Antonio Palopó	9	San Antonio Palopo	5	Mayo	2023-07-05T00:00:00	2024-11-08T07:00:00	8	Radiación solar	45
169653	7	Sololá	712	San Antonio Palopó	9	San Antonio Palopo	5	Mayo	2023-07-05T00:00:00	2024-11-08T08:00:00	2	Temperatura media	20.9
169654	7	Sololá	712	San Antonio Palopó	9	San Antonio Palopo	5	Mayo	2023-07-05T00:00:00	2024-11-08T08:00:00	4	Temperatura máxima	20.9
169655	7	Sololá	712	San Antonio Palopó	9	San Antonio Palopo	5	Mayo	2023-07-05T00:00:00	2024-11-08T08:00:00	3	Temperatura mínima	19.7
169656	7	Sololá	712	San Antonio Palopó	9	San Antonio Palopo	5	Mayo	2023-07-05T00:00:00	2024-11-08T08:00:00	5	Humedad	54
169657	7	Sololá	712	San Antonio Palopó	9	San Antonio Palopo	5	Mayo	2023-07-05T00:00:00	2024-11-08T08:00:00	6	Velocidad del viento	0
169658	7	Sololá	712	San Antonio Palopó	9	San Antonio Palopo	5	Mayo	2023-07-05T00:00:00	2024-11-08T08:00:00	7	Dirección del viento	0
169659	7	Sololá	712	San Antonio Palopó	9	San Antonio Palopo	5	Mayo	2023-07-05T00:00:00	2024-11-08T08:00:00	1	Precipitación	0
169660	7	Sololá	712	San Antonio Palopó	9	San Antonio Palopo	5	Mayo	2023-07-05T00:00:00	2024-11-08T08:00:00	8	Radiación solar	186
169661	7	Sololá	712	San Antonio Palopó	9	San Antonio Palopo	5	Mayo	2023-07-05T00:00:00	2024-11-08T09:00:00	2	Temperatura media	21.3
169662	7	Sololá	712	San Antonio Palopó	9	San Antonio Palopo	5	Mayo	2023-07-05T00:00:00	2024-11-08T09:00:00	4	Temperatura máxima	21.4
169663	7	Sololá	712	San Antonio Palopó	9	San Antonio Palopo	5	Mayo	2023-07-05T00:00:00	2024-11-08T09:00:00	3	Temperatura mínima	20.9
169664	7	Sololá	712	San Antonio Palopó	9	San Antonio Palopo	5	Mayo	2023-07-05T00:00:00	2024-11-08T09:00:00	5	Humedad	55
169665	7	Sololá	712	San Antonio Palopó	9	San Antonio Palopo	5	Mayo	2023-07-05T00:00:00	2024-11-08T09:00:00	6	Velocidad del viento	1.6
169666	7	Sololá	712	San Antonio Palopó	9	San Antonio Palopo	5	Mayo	2023-07-05T00:00:00	2024-11-08T09:00:00	7	Dirección del viento	1.61
169667	7	Sololá	712	San Antonio Palopó	9	San Antonio Palopo	5	Mayo	2023-07-05T00:00:00	2024-11-08T09:00:00	1	Precipitación	0
169668	7	Sololá	712	San Antonio Palopó	9	San Antonio Palopo	5	Mayo	2023-07-05T00:00:00	2024-11-08T09:00:00	8	Radiación solar	504
169669	7	Sololá	712	San Antonio Palopó	9	San Antonio Palopo	5	Mayo	2023-07-05T00:00:00	2024-11-08T10:00:00	2	Temperatura media	22.7
169670	7	Sololá	712	San Antonio Palopó	9	San Antonio Palopo	5	Mayo	2023-07-05T00:00:00	2024-11-08T10:00:00	4	Temperatura máxima	22.7
169671	7	Sololá	712	San Antonio Palopó	9	San Antonio Palopo	5	Mayo	2023-07-05T00:00:00	2024-11-08T10:00:00	3	Temperatura mínima	21.3
169672	7	Sololá	712	San Antonio Palopó	9	San Antonio Palopo	5	Mayo	2023-07-05T00:00:00	2024-11-08T10:00:00	5	Humedad	58
169673	7	Sololá	712	San Antonio Palopó	9	San Antonio Palopo	5	Mayo	2023-07-05T00:00:00	2024-11-08T10:00:00	6	Velocidad del viento	3.2
169674	7	Sololá	712	San Antonio Palopó	9	San Antonio Palopo	5	Mayo	2023-07-05T00:00:00	2024-11-08T10:00:00	7	Dirección del viento	3.22
169675	7	Sololá	712	San Antonio Palopó	9	San Antonio Palopo	5	Mayo	2023-07-05T00:00:00	2024-11-08T10:00:00	1	Precipitación	0
169676	7	Sololá	712	San Antonio Palopó	9	San Antonio Palopo	5	Mayo	2023-07-05T00:00:00	2024-11-08T10:00:00	8	Radiación solar	704
169677	7	Sololá	712	San Antonio Palopó	9	San Antonio Palopo	5	Mayo	2023-07-05T00:00:00	2024-11-08T11:00:00	2	Temperatura media	24.1
169678	7	Sololá	712	San Antonio Palopó	9	San Antonio Palopo	5	Mayo	2023-07-05T00:00:00	2024-11-08T11:00:00	4	Temperatura máxima	24.6
169679	7	Sololá	712	San Antonio Palopó	9	San Antonio Palopo	5	Mayo	2023-07-05T00:00:00	2024-11-08T11:00:00	3	Temperatura mínima	22.6
169680	7	Sololá	712	San Antonio Palopó	9	San Antonio Palopo	5	Mayo	2023-07-05T00:00:00	2024-11-08T11:00:00	5	Humedad	54
169681	7	Sololá	712	San Antonio Palopó	9	San Antonio Palopo	5	Mayo	2023-07-05T00:00:00	2024-11-08T11:00:00	6	Velocidad del viento	4.8
169682	7	Sololá	712	San Antonio Palopó	9	San Antonio Palopo	5	Mayo	2023-07-05T00:00:00	2024-11-08T11:00:00	7	Dirección del viento	4.83
169683	7	Sololá	712	San Antonio Palopó	9	San Antonio Palopo	5	Mayo	2023-07-05T00:00:00	2024-11-08T11:00:00	1	Precipitación	0
169684	7	Sololá	712	San Antonio Palopó	9	San Antonio Palopo	5	Mayo	2023-07-05T00:00:00	2024-11-08T11:00:00	8	Radiación solar	861
169685	7	Sololá	712	San Antonio Palopó	9	San Antonio Palopo	5	Mayo	2023-07-05T00:00:00	2024-11-08T12:00:00	2	Temperatura media	27.2
169686	7	Sololá	712	San Antonio Palopó	9	San Antonio Palopo	5	Mayo	2023-07-05T00:00:00	2024-11-08T12:00:00	4	Temperatura máxima	28.4
169687	7	Sololá	712	San Antonio Palopó	9	San Antonio Palopo	5	Mayo	2023-07-05T00:00:00	2024-11-08T12:00:00	3	Temperatura mínima	24.1
169688	7	Sololá	712	San Antonio Palopó	9	San Antonio Palopo	5	Mayo	2023-07-05T00:00:00	2024-11-08T12:00:00	5	Humedad	47
169689	7	Sololá	712	San Antonio Palopó	9	San Antonio Palopo	5	Mayo	2023-07-05T00:00:00	2024-11-08T12:00:00	6	Velocidad del viento	9.7
169690	7	Sololá	712	San Antonio Palopó	9	San Antonio Palopo	5	Mayo	2023-07-05T00:00:00	2024-11-08T12:00:00	7	Dirección del viento	9.66
169691	7	Sololá	712	San Antonio Palopó	9	San Antonio Palopo	5	Mayo	2023-07-05T00:00:00	2024-11-08T12:00:00	1	Precipitación	0
169692	7	Sololá	712	San Antonio Palopó	9	San Antonio Palopo	5	Mayo	2023-07-05T00:00:00	2024-11-08T12:00:00	8	Radiación solar	935
169693	7	Sololá	712	San Antonio Palopó	9	San Antonio Palopo	5	Mayo	2023-07-05T00:00:00	2024-11-08T13:00:00	2	Temperatura media	28.8
169694	7	Sololá	712	San Antonio Palopó	9	San Antonio Palopo	5	Mayo	2023-07-05T00:00:00	2024-11-08T13:00:00	4	Temperatura máxima	28.8
169695	7	Sololá	712	San Antonio Palopó	9	San Antonio Palopo	5	Mayo	2023-07-05T00:00:00	2024-11-08T13:00:00	3	Temperatura mínima	26.2
169696	7	Sololá	712	San Antonio Palopó	9	San Antonio Palopo	5	Mayo	2023-07-05T00:00:00	2024-11-08T13:00:00	5	Humedad	23
169697	7	Sololá	712	San Antonio Palopó	9	San Antonio Palopo	5	Mayo	2023-07-05T00:00:00	2024-11-08T13:00:00	6	Velocidad del viento	11.3
169698	7	Sololá	712	San Antonio Palopó	9	San Antonio Palopo	5	Mayo	2023-07-05T00:00:00	2024-11-08T13:00:00	7	Dirección del viento	11.27
169699	7	Sololá	712	San Antonio Palopó	9	San Antonio Palopo	5	Mayo	2023-07-05T00:00:00	2024-11-08T13:00:00	1	Precipitación	0
169700	7	Sololá	712	San Antonio Palopó	9	San Antonio Palopo	5	Mayo	2023-07-05T00:00:00	2024-11-08T13:00:00	8	Radiación solar	948
169701	7	Sololá	712	San Antonio Palopó	9	San Antonio Palopo	5	Mayo	2023-07-05T00:00:00	2024-11-08T14:00:00	2	Temperatura media	29.2
169702	7	Sololá	712	San Antonio Palopó	9	San Antonio Palopo	5	Mayo	2023-07-05T00:00:00	2024-11-08T14:00:00	4	Temperatura máxima	29.9
169703	7	Sololá	712	San Antonio Palopó	9	San Antonio Palopo	5	Mayo	2023-07-05T00:00:00	2024-11-08T14:00:00	3	Temperatura mínima	28.8
169704	7	Sololá	712	San Antonio Palopó	9	San Antonio Palopo	5	Mayo	2023-07-05T00:00:00	2024-11-08T14:00:00	5	Humedad	40
169705	7	Sololá	712	San Antonio Palopó	9	San Antonio Palopo	5	Mayo	2023-07-05T00:00:00	2024-11-08T14:00:00	6	Velocidad del viento	12.9
169706	7	Sololá	712	San Antonio Palopó	9	San Antonio Palopo	5	Mayo	2023-07-05T00:00:00	2024-11-08T14:00:00	7	Dirección del viento	12.87
169707	7	Sololá	712	San Antonio Palopó	9	San Antonio Palopo	5	Mayo	2023-07-05T00:00:00	2024-11-08T14:00:00	1	Precipitación	0
169708	7	Sololá	712	San Antonio Palopó	9	San Antonio Palopo	5	Mayo	2023-07-05T00:00:00	2024-11-08T14:00:00	8	Radiación solar	892
169709	7	Sololá	712	San Antonio Palopó	9	San Antonio Palopo	5	Mayo	2023-07-05T00:00:00	2024-11-08T15:00:00	2	Temperatura media	27.3
169710	7	Sololá	712	San Antonio Palopó	9	San Antonio Palopo	5	Mayo	2023-07-05T00:00:00	2024-11-08T15:00:00	4	Temperatura máxima	29.2
169711	7	Sololá	712	San Antonio Palopó	9	San Antonio Palopo	5	Mayo	2023-07-05T00:00:00	2024-11-08T15:00:00	3	Temperatura mínima	27.3
169712	7	Sololá	712	San Antonio Palopó	9	San Antonio Palopo	5	Mayo	2023-07-05T00:00:00	2024-11-08T15:00:00	5	Humedad	49
169713	7	Sololá	712	San Antonio Palopó	9	San Antonio Palopo	5	Mayo	2023-07-05T00:00:00	2024-11-08T15:00:00	6	Velocidad del viento	16.1
169714	7	Sololá	712	San Antonio Palopó	9	San Antonio Palopo	5	Mayo	2023-07-05T00:00:00	2024-11-08T15:00:00	7	Dirección del viento	16.09
169715	7	Sololá	712	San Antonio Palopó	9	San Antonio Palopo	5	Mayo	2023-07-05T00:00:00	2024-11-08T15:00:00	1	Precipitación	0
169716	7	Sololá	712	San Antonio Palopó	9	San Antonio Palopo	5	Mayo	2023-07-05T00:00:00	2024-11-08T15:00:00	8	Radiación solar	747
169717	7	Sololá	712	San Antonio Palopó	9	San Antonio Palopo	5	Mayo	2023-07-05T00:00:00	2024-11-08T16:00:00	2	Temperatura media	27.7
169718	7	Sololá	712	San Antonio Palopó	9	San Antonio Palopo	5	Mayo	2023-07-05T00:00:00	2024-11-08T16:00:00	4	Temperatura máxima	27.7
169719	7	Sololá	712	San Antonio Palopó	9	San Antonio Palopo	5	Mayo	2023-07-05T00:00:00	2024-11-08T16:00:00	3	Temperatura mínima	26.8
169720	7	Sololá	712	San Antonio Palopó	9	San Antonio Palopo	5	Mayo	2023-07-05T00:00:00	2024-11-08T16:00:00	5	Humedad	34
169721	7	Sololá	712	San Antonio Palopó	9	San Antonio Palopo	5	Mayo	2023-07-05T00:00:00	2024-11-08T16:00:00	6	Velocidad del viento	17.7
169722	7	Sololá	712	San Antonio Palopó	9	San Antonio Palopo	5	Mayo	2023-07-05T00:00:00	2024-11-08T16:00:00	7	Dirección del viento	17.7
169723	7	Sololá	712	San Antonio Palopó	9	San Antonio Palopo	5	Mayo	2023-07-05T00:00:00	2024-11-08T16:00:00	1	Precipitación	0
169724	7	Sololá	712	San Antonio Palopó	9	San Antonio Palopo	5	Mayo	2023-07-05T00:00:00	2024-11-08T16:00:00	8	Radiación solar	559
169725	7	Sololá	712	San Antonio Palopó	9	San Antonio Palopo	5	Mayo	2023-07-05T00:00:00	2024-11-08T17:00:00	2	Temperatura media	25
169726	7	Sololá	712	San Antonio Palopó	9	San Antonio Palopo	5	Mayo	2023-07-05T00:00:00	2024-11-08T17:00:00	4	Temperatura máxima	28.3
169727	7	Sololá	712	San Antonio Palopó	9	San Antonio Palopo	5	Mayo	2023-07-05T00:00:00	2024-11-08T17:00:00	3	Temperatura mínima	24.9
169728	7	Sololá	712	San Antonio Palopó	9	San Antonio Palopo	5	Mayo	2023-07-05T00:00:00	2024-11-08T17:00:00	5	Humedad	70
169729	7	Sololá	712	San Antonio Palopó	9	San Antonio Palopo	5	Mayo	2023-07-05T00:00:00	2024-11-08T17:00:00	6	Velocidad del viento	9.7
169730	7	Sololá	712	San Antonio Palopó	9	San Antonio Palopo	5	Mayo	2023-07-05T00:00:00	2024-11-08T17:00:00	7	Dirección del viento	9.66
169731	7	Sololá	712	San Antonio Palopó	9	San Antonio Palopo	5	Mayo	2023-07-05T00:00:00	2024-11-08T17:00:00	1	Precipitación	0
169732	7	Sololá	712	San Antonio Palopó	9	San Antonio Palopo	5	Mayo	2023-07-05T00:00:00	2024-11-08T17:00:00	8	Radiación solar	318
169733	7	Sololá	712	San Antonio Palopó	9	San Antonio Palopo	5	Mayo	2023-07-05T00:00:00	2024-11-08T18:00:00	2	Temperatura media	24.2
169734	7	Sololá	712	San Antonio Palopó	9	San Antonio Palopo	5	Mayo	2023-07-05T00:00:00	2024-11-08T18:00:00	4	Temperatura máxima	25.5
169735	7	Sololá	712	San Antonio Palopó	9	San Antonio Palopo	5	Mayo	2023-07-05T00:00:00	2024-11-08T18:00:00	3	Temperatura mínima	24.2
169736	7	Sololá	712	San Antonio Palopó	9	San Antonio Palopo	5	Mayo	2023-07-05T00:00:00	2024-11-08T18:00:00	5	Humedad	78
169737	7	Sololá	712	San Antonio Palopó	9	San Antonio Palopo	5	Mayo	2023-07-05T00:00:00	2024-11-08T18:00:00	6	Velocidad del viento	4.8
169738	7	Sololá	712	San Antonio Palopó	9	San Antonio Palopo	5	Mayo	2023-07-05T00:00:00	2024-11-08T18:00:00	7	Dirección del viento	4.83
169739	7	Sololá	712	San Antonio Palopó	9	San Antonio Palopo	5	Mayo	2023-07-05T00:00:00	2024-11-08T18:00:00	1	Precipitación	0
169740	7	Sololá	712	San Antonio Palopó	9	San Antonio Palopo	5	Mayo	2023-07-05T00:00:00	2024-11-08T18:00:00	8	Radiación solar	99
169741	7	Sololá	712	San Antonio Palopó	9	San Antonio Palopo	5	Mayo	2023-07-05T00:00:00	2024-11-08T19:00:00	2	Temperatura media	22.2
169742	7	Sololá	712	San Antonio Palopó	9	San Antonio Palopo	5	Mayo	2023-07-05T00:00:00	2024-11-08T19:00:00	4	Temperatura máxima	24.1
169743	7	Sololá	712	San Antonio Palopó	9	San Antonio Palopo	5	Mayo	2023-07-05T00:00:00	2024-11-08T19:00:00	3	Temperatura mínima	22.2
169744	7	Sololá	712	San Antonio Palopó	9	San Antonio Palopo	5	Mayo	2023-07-05T00:00:00	2024-11-08T19:00:00	5	Humedad	84
169745	7	Sololá	712	San Antonio Palopó	9	San Antonio Palopo	5	Mayo	2023-07-05T00:00:00	2024-11-08T19:00:00	6	Velocidad del viento	3.2
169746	7	Sololá	712	San Antonio Palopó	9	San Antonio Palopo	5	Mayo	2023-07-05T00:00:00	2024-11-08T19:00:00	7	Dirección del viento	3.22
169747	7	Sololá	712	San Antonio Palopó	9	San Antonio Palopo	5	Mayo	2023-07-05T00:00:00	2024-11-08T19:00:00	1	Precipitación	0
169748	7	Sololá	712	San Antonio Palopó	9	San Antonio Palopo	5	Mayo	2023-07-05T00:00:00	2024-11-08T19:00:00	8	Radiación solar	0
169749	7	Sololá	712	San Antonio Palopó	9	San Antonio Palopo	5	Mayo	2023-07-05T00:00:00	2024-11-08T20:00:00	2	Temperatura media	22
169750	7	Sololá	712	San Antonio Palopó	9	San Antonio Palopo	5	Mayo	2023-07-05T00:00:00	2024-11-08T20:00:00	4	Temperatura máxima	22.2
169751	7	Sololá	712	San Antonio Palopó	9	San Antonio Palopo	5	Mayo	2023-07-05T00:00:00	2024-11-08T20:00:00	3	Temperatura mínima	21.9
169752	7	Sololá	712	San Antonio Palopó	9	San Antonio Palopo	5	Mayo	2023-07-05T00:00:00	2024-11-08T20:00:00	5	Humedad	81
169753	7	Sololá	712	San Antonio Palopó	9	San Antonio Palopo	5	Mayo	2023-07-05T00:00:00	2024-11-08T20:00:00	6	Velocidad del viento	3.2
169754	7	Sololá	712	San Antonio Palopó	9	San Antonio Palopo	5	Mayo	2023-07-05T00:00:00	2024-11-08T20:00:00	7	Dirección del viento	3.22
169755	7	Sololá	712	San Antonio Palopó	9	San Antonio Palopo	5	Mayo	2023-07-05T00:00:00	2024-11-08T20:00:00	1	Precipitación	0
169756	7	Sololá	712	San Antonio Palopó	9	San Antonio Palopo	5	Mayo	2023-07-05T00:00:00	2024-11-08T20:00:00	8	Radiación solar	0
169757	7	Sololá	712	San Antonio Palopó	9	San Antonio Palopo	5	Mayo	2023-07-05T00:00:00	2024-11-08T21:00:00	2	Temperatura media	22.2
169758	7	Sololá	712	San Antonio Palopó	9	San Antonio Palopo	5	Mayo	2023-07-05T00:00:00	2024-11-08T21:00:00	4	Temperatura máxima	22.2
169759	7	Sololá	712	San Antonio Palopó	9	San Antonio Palopo	5	Mayo	2023-07-05T00:00:00	2024-11-08T21:00:00	3	Temperatura mínima	21.7
169760	7	Sololá	712	San Antonio Palopó	9	San Antonio Palopo	5	Mayo	2023-07-05T00:00:00	2024-11-08T21:00:00	5	Humedad	67
169761	7	Sololá	712	San Antonio Palopó	9	San Antonio Palopo	5	Mayo	2023-07-05T00:00:00	2024-11-08T21:00:00	6	Velocidad del viento	4.8
169762	7	Sololá	712	San Antonio Palopó	9	San Antonio Palopo	5	Mayo	2023-07-05T00:00:00	2024-11-08T21:00:00	7	Dirección del viento	4.83
169763	7	Sololá	712	San Antonio Palopó	9	San Antonio Palopo	5	Mayo	2023-07-05T00:00:00	2024-11-08T21:00:00	1	Precipitación	0
169764	7	Sololá	712	San Antonio Palopó	9	San Antonio Palopo	5	Mayo	2023-07-05T00:00:00	2024-11-08T21:00:00	8	Radiación solar	0
169765	7	Sololá	712	San Antonio Palopó	9	San Antonio Palopo	5	Mayo	2023-07-05T00:00:00	2024-11-08T22:00:00	2	Temperatura media	21.1
169766	7	Sololá	712	San Antonio Palopó	9	San Antonio Palopo	5	Mayo	2023-07-05T00:00:00	2024-11-08T22:00:00	4	Temperatura máxima	22.2
169767	7	Sololá	712	San Antonio Palopó	9	San Antonio Palopo	5	Mayo	2023-07-05T00:00:00	2024-11-08T22:00:00	3	Temperatura mínima	21.1
169768	7	Sololá	712	San Antonio Palopó	9	San Antonio Palopo	5	Mayo	2023-07-05T00:00:00	2024-11-08T22:00:00	5	Humedad	69
169769	7	Sololá	712	San Antonio Palopó	9	San Antonio Palopo	5	Mayo	2023-07-05T00:00:00	2024-11-08T22:00:00	6	Velocidad del viento	8
169770	7	Sololá	712	San Antonio Palopó	9	San Antonio Palopo	5	Mayo	2023-07-05T00:00:00	2024-11-08T22:00:00	7	Dirección del viento	8.05
169771	7	Sololá	712	San Antonio Palopó	9	San Antonio Palopo	5	Mayo	2023-07-05T00:00:00	2024-11-08T22:00:00	1	Precipitación	0
169772	7	Sololá	712	San Antonio Palopó	9	San Antonio Palopo	5	Mayo	2023-07-05T00:00:00	2024-11-08T22:00:00	8	Radiación solar	0
169773	7	Sololá	712	San Antonio Palopó	9	San Antonio Palopo	5	Mayo	2023-07-05T00:00:00	2024-11-08T23:00:00	2	Temperatura media	20.8
169774	7	Sololá	712	San Antonio Palopó	9	San Antonio Palopo	5	Mayo	2023-07-05T00:00:00	2024-11-08T23:00:00	4	Temperatura máxima	21.2
169775	7	Sololá	712	San Antonio Palopó	9	San Antonio Palopo	5	Mayo	2023-07-05T00:00:00	2024-11-08T23:00:00	3	Temperatura mínima	20.8
169776	7	Sololá	712	San Antonio Palopó	9	San Antonio Palopo	5	Mayo	2023-07-05T00:00:00	2024-11-08T23:00:00	5	Humedad	68
169777	7	Sololá	712	San Antonio Palopó	9	San Antonio Palopo	5	Mayo	2023-07-05T00:00:00	2024-11-08T23:00:00	6	Velocidad del viento	12.9
169778	7	Sololá	712	San Antonio Palopó	9	San Antonio Palopo	5	Mayo	2023-07-05T00:00:00	2024-11-08T23:00:00	7	Dirección del viento	12.87
169779	7	Sololá	712	San Antonio Palopó	9	San Antonio Palopo	5	Mayo	2023-07-05T00:00:00	2024-11-08T23:00:00	1	Precipitación	0
169780	7	Sololá	712	San Antonio Palopó	9	San Antonio Palopo	5	Mayo	2023-07-05T00:00:00	2024-11-08T23:00:00	8	Radiación solar	0
169781	7	Sololá	712	San Antonio Palopó	9	San Antonio Palopo	5	Mayo	2023-08-05T00:00:00	2024-11-08T00:00:00	2	Temperatura media	20.2
169782	7	Sololá	712	San Antonio Palopó	9	San Antonio Palopo	5	Mayo	2023-08-05T00:00:00	2024-11-08T00:00:00	4	Temperatura máxima	20.8
169783	7	Sololá	712	San Antonio Palopó	9	San Antonio Palopo	5	Mayo	2023-08-05T00:00:00	2024-11-08T00:00:00	3	Temperatura mínima	20.2
169784	7	Sololá	712	San Antonio Palopó	9	San Antonio Palopo	5	Mayo	2023-08-05T00:00:00	2024-11-08T00:00:00	5	Humedad	68
169785	7	Sololá	712	San Antonio Palopó	9	San Antonio Palopo	5	Mayo	2023-08-05T00:00:00	2024-11-08T00:00:00	6	Velocidad del viento	8
169786	7	Sololá	712	San Antonio Palopó	9	San Antonio Palopo	5	Mayo	2023-08-05T00:00:00	2024-11-08T00:00:00	7	Dirección del viento	8.05
169787	7	Sololá	712	San Antonio Palopó	9	San Antonio Palopo	5	Mayo	2023-08-05T00:00:00	2024-11-08T00:00:00	1	Precipitación	0
169788	7	Sololá	712	San Antonio Palopó	9	San Antonio Palopo	5	Mayo	2023-08-05T00:00:00	2024-11-08T00:00:00	8	Radiación solar	0
169789	7	Sololá	712	San Antonio Palopó	9	San Antonio Palopo	5	Mayo	2023-08-05T00:00:00	2024-11-08T01:00:00	2	Temperatura media	20
169790	7	Sololá	712	San Antonio Palopó	9	San Antonio Palopo	5	Mayo	2023-08-05T00:00:00	2024-11-08T01:00:00	4	Temperatura máxima	20.3
169791	7	Sololá	712	San Antonio Palopó	9	San Antonio Palopo	5	Mayo	2023-08-05T00:00:00	2024-11-08T01:00:00	3	Temperatura mínima	19.9
169792	7	Sololá	712	San Antonio Palopó	9	San Antonio Palopo	5	Mayo	2023-08-05T00:00:00	2024-11-08T01:00:00	5	Humedad	69
169793	7	Sololá	712	San Antonio Palopó	9	San Antonio Palopo	5	Mayo	2023-08-05T00:00:00	2024-11-08T01:00:00	6	Velocidad del viento	9.7
169794	7	Sololá	712	San Antonio Palopó	9	San Antonio Palopo	5	Mayo	2023-08-05T00:00:00	2024-11-08T01:00:00	7	Dirección del viento	9.66
169795	7	Sololá	712	San Antonio Palopó	9	San Antonio Palopo	5	Mayo	2023-08-05T00:00:00	2024-11-08T01:00:00	1	Precipitación	0
169796	7	Sololá	712	San Antonio Palopó	9	San Antonio Palopo	5	Mayo	2023-08-05T00:00:00	2024-11-08T01:00:00	8	Radiación solar	0
169797	7	Sololá	712	San Antonio Palopó	9	San Antonio Palopo	5	Mayo	2023-08-05T00:00:00	2024-11-08T02:00:00	2	Temperatura media	19.1
169798	7	Sololá	712	San Antonio Palopó	9	San Antonio Palopo	5	Mayo	2023-08-05T00:00:00	2024-11-08T02:00:00	4	Temperatura máxima	19.9
169799	7	Sololá	712	San Antonio Palopó	9	San Antonio Palopo	5	Mayo	2023-08-05T00:00:00	2024-11-08T02:00:00	3	Temperatura mínima	19.1
169800	7	Sololá	712	San Antonio Palopó	9	San Antonio Palopo	5	Mayo	2023-08-05T00:00:00	2024-11-08T02:00:00	5	Humedad	73
169801	7	Sololá	712	San Antonio Palopó	9	San Antonio Palopo	5	Mayo	2023-08-05T00:00:00	2024-11-08T02:00:00	6	Velocidad del viento	11.3
169802	7	Sololá	712	San Antonio Palopó	9	San Antonio Palopo	5	Mayo	2023-08-05T00:00:00	2024-11-08T02:00:00	7	Dirección del viento	11.27
169803	7	Sololá	712	San Antonio Palopó	9	San Antonio Palopo	5	Mayo	2023-08-05T00:00:00	2024-11-08T02:00:00	1	Precipitación	0
169804	7	Sololá	712	San Antonio Palopó	9	San Antonio Palopo	5	Mayo	2023-08-05T00:00:00	2024-11-08T02:00:00	8	Radiación solar	0
169805	7	Sololá	712	San Antonio Palopó	9	San Antonio Palopo	5	Mayo	2023-08-05T00:00:00	2024-11-08T03:00:00	2	Temperatura media	18.4
169806	7	Sololá	712	San Antonio Palopó	9	San Antonio Palopo	5	Mayo	2023-08-05T00:00:00	2024-11-08T03:00:00	4	Temperatura máxima	19.1
169807	7	Sololá	712	San Antonio Palopó	9	San Antonio Palopo	5	Mayo	2023-08-05T00:00:00	2024-11-08T03:00:00	3	Temperatura mínima	18.4
169808	7	Sololá	712	San Antonio Palopó	9	San Antonio Palopo	5	Mayo	2023-08-05T00:00:00	2024-11-08T03:00:00	5	Humedad	74
169809	7	Sololá	712	San Antonio Palopó	9	San Antonio Palopo	5	Mayo	2023-08-05T00:00:00	2024-11-08T03:00:00	6	Velocidad del viento	12.9
169810	7	Sololá	712	San Antonio Palopó	9	San Antonio Palopo	5	Mayo	2023-08-05T00:00:00	2024-11-08T03:00:00	7	Dirección del viento	12.87
169811	7	Sololá	712	San Antonio Palopó	9	San Antonio Palopo	5	Mayo	2023-08-05T00:00:00	2024-11-08T03:00:00	1	Precipitación	0
169812	7	Sololá	712	San Antonio Palopó	9	San Antonio Palopo	5	Mayo	2023-08-05T00:00:00	2024-11-08T03:00:00	8	Radiación solar	0
169813	7	Sololá	712	San Antonio Palopó	9	San Antonio Palopo	5	Mayo	2023-08-05T00:00:00	2024-11-08T04:00:00	2	Temperatura media	18.2
169814	7	Sololá	712	San Antonio Palopó	9	San Antonio Palopo	5	Mayo	2023-08-05T00:00:00	2024-11-08T04:00:00	4	Temperatura máxima	18.4
169815	7	Sololá	712	San Antonio Palopó	9	San Antonio Palopo	5	Mayo	2023-08-05T00:00:00	2024-11-08T04:00:00	3	Temperatura mínima	18
169816	7	Sololá	712	San Antonio Palopó	9	San Antonio Palopo	5	Mayo	2023-08-05T00:00:00	2024-11-08T04:00:00	5	Humedad	72
169817	7	Sololá	712	San Antonio Palopó	9	San Antonio Palopo	5	Mayo	2023-08-05T00:00:00	2024-11-08T04:00:00	6	Velocidad del viento	11.3
169818	7	Sololá	712	San Antonio Palopó	9	San Antonio Palopo	5	Mayo	2023-08-05T00:00:00	2024-11-08T04:00:00	7	Dirección del viento	11.27
169819	7	Sololá	712	San Antonio Palopó	9	San Antonio Palopo	5	Mayo	2023-08-05T00:00:00	2024-11-08T04:00:00	1	Precipitación	0
169820	7	Sololá	712	San Antonio Palopó	9	San Antonio Palopo	5	Mayo	2023-08-05T00:00:00	2024-11-08T04:00:00	8	Radiación solar	0
169821	7	Sololá	712	San Antonio Palopó	9	San Antonio Palopo	5	Mayo	2023-08-05T00:00:00	2024-11-08T05:00:00	2	Temperatura media	18.7
169822	7	Sololá	712	San Antonio Palopó	9	San Antonio Palopo	5	Mayo	2023-08-05T00:00:00	2024-11-08T05:00:00	4	Temperatura máxima	18.7
169823	7	Sololá	712	San Antonio Palopó	9	San Antonio Palopo	5	Mayo	2023-08-05T00:00:00	2024-11-08T05:00:00	3	Temperatura mínima	18.1
169824	7	Sololá	712	San Antonio Palopó	9	San Antonio Palopo	5	Mayo	2023-08-05T00:00:00	2024-11-08T05:00:00	5	Humedad	61
169825	7	Sololá	712	San Antonio Palopó	9	San Antonio Palopo	5	Mayo	2023-08-05T00:00:00	2024-11-08T05:00:00	6	Velocidad del viento	8
169826	7	Sololá	712	San Antonio Palopó	9	San Antonio Palopo	5	Mayo	2023-08-05T00:00:00	2024-11-08T05:00:00	7	Dirección del viento	8.05
169827	7	Sololá	712	San Antonio Palopó	9	San Antonio Palopo	5	Mayo	2023-08-05T00:00:00	2024-11-08T05:00:00	1	Precipitación	0
169828	7	Sololá	712	San Antonio Palopó	9	San Antonio Palopo	5	Mayo	2023-08-05T00:00:00	2024-11-08T05:00:00	8	Radiación solar	0
169829	7	Sololá	712	San Antonio Palopó	9	San Antonio Palopo	5	Mayo	2023-08-05T00:00:00	2024-11-08T06:00:00	2	Temperatura media	18.9
169830	7	Sololá	712	San Antonio Palopó	9	San Antonio Palopo	5	Mayo	2023-08-05T00:00:00	2024-11-08T06:00:00	4	Temperatura máxima	18.9
169831	7	Sololá	712	San Antonio Palopó	9	San Antonio Palopo	5	Mayo	2023-08-05T00:00:00	2024-11-08T06:00:00	3	Temperatura mínima	18.1
169832	7	Sololá	712	San Antonio Palopó	9	San Antonio Palopo	5	Mayo	2023-08-05T00:00:00	2024-11-08T06:00:00	5	Humedad	55
169833	7	Sololá	712	San Antonio Palopó	9	San Antonio Palopo	5	Mayo	2023-08-05T00:00:00	2024-11-08T06:00:00	6	Velocidad del viento	8
169834	7	Sololá	712	San Antonio Palopó	9	San Antonio Palopo	5	Mayo	2023-08-05T00:00:00	2024-11-08T06:00:00	7	Dirección del viento	8.05
169835	7	Sololá	712	San Antonio Palopó	9	San Antonio Palopo	5	Mayo	2023-08-05T00:00:00	2024-11-08T06:00:00	1	Precipitación	0
169836	7	Sololá	712	San Antonio Palopó	9	San Antonio Palopo	5	Mayo	2023-08-05T00:00:00	2024-11-08T06:00:00	8	Radiación solar	5
169837	7	Sololá	712	San Antonio Palopó	9	San Antonio Palopo	5	Mayo	2023-08-05T00:00:00	2024-11-08T07:00:00	2	Temperatura media	18.7
169838	7	Sololá	712	San Antonio Palopó	9	San Antonio Palopo	5	Mayo	2023-08-05T00:00:00	2024-11-08T07:00:00	4	Temperatura máxima	19.3
169839	7	Sololá	712	San Antonio Palopó	9	San Antonio Palopo	5	Mayo	2023-08-05T00:00:00	2024-11-08T07:00:00	3	Temperatura mínima	18.7
169840	7	Sololá	712	San Antonio Palopó	9	San Antonio Palopo	5	Mayo	2023-08-05T00:00:00	2024-11-08T07:00:00	5	Humedad	60
169841	7	Sololá	712	San Antonio Palopó	9	San Antonio Palopo	5	Mayo	2023-08-05T00:00:00	2024-11-08T07:00:00	6	Velocidad del viento	4.8
169842	7	Sololá	712	San Antonio Palopó	9	San Antonio Palopo	5	Mayo	2023-08-05T00:00:00	2024-11-08T07:00:00	7	Dirección del viento	4.83
169843	7	Sololá	712	San Antonio Palopó	9	San Antonio Palopo	5	Mayo	2023-08-05T00:00:00	2024-11-08T07:00:00	1	Precipitación	0
169844	7	Sololá	712	San Antonio Palopó	9	San Antonio Palopo	5	Mayo	2023-08-05T00:00:00	2024-11-08T07:00:00	8	Radiación solar	39
169845	7	Sololá	712	San Antonio Palopó	9	San Antonio Palopo	5	Mayo	2023-08-05T00:00:00	2024-11-08T08:00:00	2	Temperatura media	20.1
169846	7	Sololá	712	San Antonio Palopó	9	San Antonio Palopo	5	Mayo	2023-08-05T00:00:00	2024-11-08T08:00:00	4	Temperatura máxima	20.1
169847	7	Sololá	712	San Antonio Palopó	9	San Antonio Palopo	5	Mayo	2023-08-05T00:00:00	2024-11-08T08:00:00	3	Temperatura mínima	18.4
169848	7	Sololá	712	San Antonio Palopó	9	San Antonio Palopo	5	Mayo	2023-08-05T00:00:00	2024-11-08T08:00:00	5	Humedad	62
169849	7	Sololá	712	San Antonio Palopó	9	San Antonio Palopo	5	Mayo	2023-08-05T00:00:00	2024-11-08T08:00:00	6	Velocidad del viento	1.6
169850	7	Sololá	712	San Antonio Palopó	9	San Antonio Palopo	5	Mayo	2023-08-05T00:00:00	2024-11-08T08:00:00	7	Dirección del viento	1.61
169851	7	Sololá	712	San Antonio Palopó	9	San Antonio Palopo	5	Mayo	2023-08-05T00:00:00	2024-11-08T08:00:00	1	Precipitación	0
169852	7	Sololá	712	San Antonio Palopó	9	San Antonio Palopo	5	Mayo	2023-08-05T00:00:00	2024-11-08T08:00:00	8	Radiación solar	212
169853	7	Sololá	712	San Antonio Palopó	9	San Antonio Palopo	5	Mayo	2023-08-05T00:00:00	2024-11-08T09:00:00	2	Temperatura media	20.8
169854	7	Sololá	712	San Antonio Palopó	9	San Antonio Palopo	5	Mayo	2023-08-05T00:00:00	2024-11-08T09:00:00	4	Temperatura máxima	21.3
169855	7	Sololá	712	San Antonio Palopó	9	San Antonio Palopo	5	Mayo	2023-08-05T00:00:00	2024-11-08T09:00:00	3	Temperatura mínima	20.1
169856	7	Sololá	712	San Antonio Palopó	9	San Antonio Palopo	5	Mayo	2023-08-05T00:00:00	2024-11-08T09:00:00	5	Humedad	63
169857	7	Sololá	712	San Antonio Palopó	9	San Antonio Palopo	5	Mayo	2023-08-05T00:00:00	2024-11-08T09:00:00	6	Velocidad del viento	1.6
169858	7	Sololá	712	San Antonio Palopó	9	San Antonio Palopo	5	Mayo	2023-08-05T00:00:00	2024-11-08T09:00:00	7	Dirección del viento	1.61
169859	7	Sololá	712	San Antonio Palopó	9	San Antonio Palopo	5	Mayo	2023-08-05T00:00:00	2024-11-08T09:00:00	1	Precipitación	0
169860	7	Sololá	712	San Antonio Palopó	9	San Antonio Palopo	5	Mayo	2023-08-05T00:00:00	2024-11-08T09:00:00	8	Radiación solar	510
169861	7	Sololá	712	San Antonio Palopó	9	San Antonio Palopo	5	Mayo	2023-08-05T00:00:00	2024-11-08T10:00:00	2	Temperatura media	22.1
169862	7	Sololá	712	San Antonio Palopó	9	San Antonio Palopo	5	Mayo	2023-08-05T00:00:00	2024-11-08T10:00:00	4	Temperatura máxima	22.2
169863	7	Sololá	712	San Antonio Palopó	9	San Antonio Palopo	5	Mayo	2023-08-05T00:00:00	2024-11-08T10:00:00	3	Temperatura mínima	20.8
169864	7	Sololá	712	San Antonio Palopó	9	San Antonio Palopo	5	Mayo	2023-08-05T00:00:00	2024-11-08T10:00:00	5	Humedad	62
169865	7	Sololá	712	San Antonio Palopó	9	San Antonio Palopo	5	Mayo	2023-08-05T00:00:00	2024-11-08T10:00:00	6	Velocidad del viento	3.2
169866	7	Sololá	712	San Antonio Palopó	9	San Antonio Palopo	5	Mayo	2023-08-05T00:00:00	2024-11-08T10:00:00	7	Dirección del viento	3.22
169867	7	Sololá	712	San Antonio Palopó	9	San Antonio Palopo	5	Mayo	2023-08-05T00:00:00	2024-11-08T10:00:00	1	Precipitación	0
169868	7	Sololá	712	San Antonio Palopó	9	San Antonio Palopo	5	Mayo	2023-08-05T00:00:00	2024-11-08T10:00:00	8	Radiación solar	703
169869	7	Sololá	712	San Antonio Palopó	9	San Antonio Palopo	5	Mayo	2023-08-05T00:00:00	2024-11-08T11:00:00	2	Temperatura media	24.3
169870	7	Sololá	712	San Antonio Palopó	9	San Antonio Palopo	5	Mayo	2023-08-05T00:00:00	2024-11-08T11:00:00	4	Temperatura máxima	24.3
169871	7	Sololá	712	San Antonio Palopó	9	San Antonio Palopo	5	Mayo	2023-08-05T00:00:00	2024-11-08T11:00:00	3	Temperatura mínima	22.1
169872	7	Sololá	712	San Antonio Palopó	9	San Antonio Palopo	5	Mayo	2023-08-05T00:00:00	2024-11-08T11:00:00	5	Humedad	52
169873	7	Sololá	712	San Antonio Palopó	9	San Antonio Palopo	5	Mayo	2023-08-05T00:00:00	2024-11-08T11:00:00	6	Velocidad del viento	4.8
169874	7	Sololá	712	San Antonio Palopó	9	San Antonio Palopo	5	Mayo	2023-08-05T00:00:00	2024-11-08T11:00:00	7	Dirección del viento	4.83
169875	7	Sololá	712	San Antonio Palopó	9	San Antonio Palopo	5	Mayo	2023-08-05T00:00:00	2024-11-08T11:00:00	1	Precipitación	0
169876	7	Sololá	712	San Antonio Palopó	9	San Antonio Palopo	5	Mayo	2023-08-05T00:00:00	2024-11-08T11:00:00	8	Radiación solar	836
169877	7	Sololá	712	San Antonio Palopó	9	San Antonio Palopo	5	Mayo	2023-08-05T00:00:00	2024-11-08T12:00:00	2	Temperatura media	24.8
169878	7	Sololá	712	San Antonio Palopó	9	San Antonio Palopo	5	Mayo	2023-08-05T00:00:00	2024-11-08T12:00:00	4	Temperatura máxima	24.9
169879	7	Sololá	712	San Antonio Palopó	9	San Antonio Palopo	5	Mayo	2023-08-05T00:00:00	2024-11-08T12:00:00	3	Temperatura mínima	24.3
169880	7	Sololá	712	San Antonio Palopó	9	San Antonio Palopo	5	Mayo	2023-08-05T00:00:00	2024-11-08T12:00:00	5	Humedad	58
169881	7	Sololá	712	San Antonio Palopó	9	San Antonio Palopo	5	Mayo	2023-08-05T00:00:00	2024-11-08T12:00:00	6	Velocidad del viento	4.8
169882	7	Sololá	712	San Antonio Palopó	9	San Antonio Palopo	5	Mayo	2023-08-05T00:00:00	2024-11-08T12:00:00	7	Dirección del viento	4.83
169883	7	Sololá	712	San Antonio Palopó	9	San Antonio Palopo	5	Mayo	2023-08-05T00:00:00	2024-11-08T12:00:00	1	Precipitación	0
169884	7	Sololá	712	San Antonio Palopó	9	San Antonio Palopo	5	Mayo	2023-08-05T00:00:00	2024-11-08T12:00:00	8	Radiación solar	890
169885	7	Sololá	712	San Antonio Palopó	9	San Antonio Palopo	5	Mayo	2023-08-05T00:00:00	2024-11-08T13:00:00	2	Temperatura media	25.5
169886	7	Sololá	712	San Antonio Palopó	9	San Antonio Palopo	5	Mayo	2023-08-05T00:00:00	2024-11-08T13:00:00	4	Temperatura máxima	26.6
169887	7	Sololá	712	San Antonio Palopó	9	San Antonio Palopo	5	Mayo	2023-08-05T00:00:00	2024-11-08T13:00:00	3	Temperatura mínima	24.8
169888	7	Sololá	712	San Antonio Palopó	9	San Antonio Palopo	5	Mayo	2023-08-05T00:00:00	2024-11-08T13:00:00	5	Humedad	66
169889	7	Sololá	712	San Antonio Palopó	9	San Antonio Palopo	5	Mayo	2023-08-05T00:00:00	2024-11-08T13:00:00	6	Velocidad del viento	6.4
169890	7	Sololá	712	San Antonio Palopó	9	San Antonio Palopo	5	Mayo	2023-08-05T00:00:00	2024-11-08T13:00:00	7	Dirección del viento	6.44
169891	7	Sololá	712	San Antonio Palopó	9	San Antonio Palopo	5	Mayo	2023-08-05T00:00:00	2024-11-08T13:00:00	1	Precipitación	0
169892	7	Sololá	712	San Antonio Palopó	9	San Antonio Palopo	5	Mayo	2023-08-05T00:00:00	2024-11-08T13:00:00	8	Radiación solar	872
169893	7	Sololá	712	San Antonio Palopó	9	San Antonio Palopo	5	Mayo	2023-08-05T00:00:00	2024-11-08T14:00:00	2	Temperatura media	26.4
169894	7	Sololá	712	San Antonio Palopó	9	San Antonio Palopo	5	Mayo	2023-08-05T00:00:00	2024-11-08T14:00:00	4	Temperatura máxima	26.4
169895	7	Sololá	712	San Antonio Palopó	9	San Antonio Palopo	5	Mayo	2023-08-05T00:00:00	2024-11-08T14:00:00	3	Temperatura mínima	25.3
169896	7	Sololá	712	San Antonio Palopó	9	San Antonio Palopo	5	Mayo	2023-08-05T00:00:00	2024-11-08T14:00:00	5	Humedad	62
169897	7	Sololá	712	San Antonio Palopó	9	San Antonio Palopo	5	Mayo	2023-08-05T00:00:00	2024-11-08T14:00:00	6	Velocidad del viento	8
169898	7	Sololá	712	San Antonio Palopó	9	San Antonio Palopo	5	Mayo	2023-08-05T00:00:00	2024-11-08T14:00:00	7	Dirección del viento	8.05
169899	7	Sololá	712	San Antonio Palopó	9	San Antonio Palopo	5	Mayo	2023-08-05T00:00:00	2024-11-08T14:00:00	1	Precipitación	0
169900	7	Sololá	712	San Antonio Palopó	9	San Antonio Palopo	5	Mayo	2023-08-05T00:00:00	2024-11-08T14:00:00	8	Radiación solar	818
169901	7	Sololá	712	San Antonio Palopó	9	San Antonio Palopo	5	Mayo	2023-08-05T00:00:00	2024-11-08T15:00:00	2	Temperatura media	25.6
169902	7	Sololá	712	San Antonio Palopó	9	San Antonio Palopo	5	Mayo	2023-08-05T00:00:00	2024-11-08T15:00:00	4	Temperatura máxima	27.3
169903	7	Sololá	712	San Antonio Palopó	9	San Antonio Palopo	5	Mayo	2023-08-05T00:00:00	2024-11-08T15:00:00	3	Temperatura mínima	25.6
169904	7	Sololá	712	San Antonio Palopó	9	San Antonio Palopo	5	Mayo	2023-08-05T00:00:00	2024-11-08T15:00:00	5	Humedad	64
169905	7	Sololá	712	San Antonio Palopó	9	San Antonio Palopo	5	Mayo	2023-08-05T00:00:00	2024-11-08T15:00:00	6	Velocidad del viento	6.4
169906	7	Sololá	712	San Antonio Palopó	9	San Antonio Palopo	5	Mayo	2023-08-05T00:00:00	2024-11-08T15:00:00	7	Dirección del viento	6.44
169907	7	Sololá	712	San Antonio Palopó	9	San Antonio Palopo	5	Mayo	2023-08-05T00:00:00	2024-11-08T15:00:00	1	Precipitación	0
169908	7	Sololá	712	San Antonio Palopó	9	San Antonio Palopo	5	Mayo	2023-08-05T00:00:00	2024-11-08T15:00:00	8	Radiación solar	691
169909	7	Sololá	712	San Antonio Palopó	9	San Antonio Palopo	5	Mayo	2023-08-05T00:00:00	2024-11-08T16:00:00	2	Temperatura media	24.6
169910	7	Sololá	712	San Antonio Palopó	9	San Antonio Palopo	5	Mayo	2023-08-05T00:00:00	2024-11-08T16:00:00	4	Temperatura máxima	25.7
169911	7	Sololá	712	San Antonio Palopó	9	San Antonio Palopo	5	Mayo	2023-08-05T00:00:00	2024-11-08T16:00:00	3	Temperatura mínima	24.6
169912	7	Sololá	712	San Antonio Palopó	9	San Antonio Palopo	5	Mayo	2023-08-05T00:00:00	2024-11-08T16:00:00	5	Humedad	69
169913	7	Sololá	712	San Antonio Palopó	9	San Antonio Palopo	5	Mayo	2023-08-05T00:00:00	2024-11-08T16:00:00	6	Velocidad del viento	8
169914	7	Sololá	712	San Antonio Palopó	9	San Antonio Palopo	5	Mayo	2023-08-05T00:00:00	2024-11-08T16:00:00	7	Dirección del viento	8.05
169915	7	Sololá	712	San Antonio Palopó	9	San Antonio Palopo	5	Mayo	2023-08-05T00:00:00	2024-11-08T16:00:00	1	Precipitación	0
169916	7	Sololá	712	San Antonio Palopó	9	San Antonio Palopo	5	Mayo	2023-08-05T00:00:00	2024-11-08T16:00:00	8	Radiación solar	440
169917	7	Sololá	712	San Antonio Palopó	9	San Antonio Palopo	5	Mayo	2023-08-05T00:00:00	2024-11-08T17:00:00	2	Temperatura media	23.1
169918	7	Sololá	712	San Antonio Palopó	9	San Antonio Palopo	5	Mayo	2023-08-05T00:00:00	2024-11-08T17:00:00	4	Temperatura máxima	24.6
169919	7	Sololá	712	San Antonio Palopó	9	San Antonio Palopo	5	Mayo	2023-08-05T00:00:00	2024-11-08T17:00:00	3	Temperatura mínima	22.9
169920	7	Sololá	712	San Antonio Palopó	9	San Antonio Palopo	5	Mayo	2023-08-05T00:00:00	2024-11-08T17:00:00	5	Humedad	74
169921	7	Sololá	712	San Antonio Palopó	9	San Antonio Palopo	5	Mayo	2023-08-05T00:00:00	2024-11-08T17:00:00	6	Velocidad del viento	9.7
169922	7	Sololá	712	San Antonio Palopó	9	San Antonio Palopo	5	Mayo	2023-08-05T00:00:00	2024-11-08T17:00:00	7	Dirección del viento	9.66
169923	7	Sololá	712	San Antonio Palopó	9	San Antonio Palopo	5	Mayo	2023-08-05T00:00:00	2024-11-08T17:00:00	1	Precipitación	0
169924	7	Sololá	712	San Antonio Palopó	9	San Antonio Palopo	5	Mayo	2023-08-05T00:00:00	2024-11-08T17:00:00	8	Radiación solar	143
169925	7	Sololá	712	San Antonio Palopó	9	San Antonio Palopo	5	Mayo	2023-08-05T00:00:00	2024-11-08T18:00:00	2	Temperatura media	22.4
169926	7	Sololá	712	San Antonio Palopó	9	San Antonio Palopo	5	Mayo	2023-08-05T00:00:00	2024-11-08T18:00:00	4	Temperatura máxima	23.1
169927	7	Sololá	712	San Antonio Palopó	9	San Antonio Palopo	5	Mayo	2023-08-05T00:00:00	2024-11-08T18:00:00	3	Temperatura mínima	22.3
169928	7	Sololá	712	San Antonio Palopó	9	San Antonio Palopo	5	Mayo	2023-08-05T00:00:00	2024-11-08T18:00:00	5	Humedad	76
169929	7	Sololá	712	San Antonio Palopó	9	San Antonio Palopo	5	Mayo	2023-08-05T00:00:00	2024-11-08T18:00:00	6	Velocidad del viento	4.8
169930	7	Sololá	712	San Antonio Palopó	9	San Antonio Palopo	5	Mayo	2023-08-05T00:00:00	2024-11-08T18:00:00	7	Dirección del viento	4.83
169931	7	Sololá	712	San Antonio Palopó	9	San Antonio Palopo	5	Mayo	2023-08-05T00:00:00	2024-11-08T18:00:00	1	Precipitación	0
169932	7	Sololá	712	San Antonio Palopó	9	San Antonio Palopo	5	Mayo	2023-08-05T00:00:00	2024-11-08T18:00:00	8	Radiación solar	31
169933	7	Sololá	712	San Antonio Palopó	9	San Antonio Palopo	5	Mayo	2023-08-05T00:00:00	2024-11-08T19:00:00	2	Temperatura media	22.3
169934	7	Sololá	712	San Antonio Palopó	9	San Antonio Palopo	5	Mayo	2023-08-05T00:00:00	2024-11-08T19:00:00	4	Temperatura máxima	22.4
169935	7	Sololá	712	San Antonio Palopó	9	San Antonio Palopo	5	Mayo	2023-08-05T00:00:00	2024-11-08T19:00:00	3	Temperatura mínima	22.2
169936	7	Sololá	712	San Antonio Palopó	9	San Antonio Palopo	5	Mayo	2023-08-05T00:00:00	2024-11-08T19:00:00	5	Humedad	77
169937	7	Sololá	712	San Antonio Palopó	9	San Antonio Palopo	5	Mayo	2023-08-05T00:00:00	2024-11-08T19:00:00	6	Velocidad del viento	3.2
169938	7	Sololá	712	San Antonio Palopó	9	San Antonio Palopo	5	Mayo	2023-08-05T00:00:00	2024-11-08T19:00:00	7	Dirección del viento	3.22
169939	7	Sololá	712	San Antonio Palopó	9	San Antonio Palopo	5	Mayo	2023-08-05T00:00:00	2024-11-08T19:00:00	1	Precipitación	0
169940	7	Sololá	712	San Antonio Palopó	9	San Antonio Palopo	5	Mayo	2023-08-05T00:00:00	2024-11-08T19:00:00	8	Radiación solar	0
169941	7	Sololá	712	San Antonio Palopó	9	San Antonio Palopo	5	Mayo	2023-08-05T00:00:00	2024-11-08T20:00:00	2	Temperatura media	21.7
169942	7	Sololá	712	San Antonio Palopó	9	San Antonio Palopo	5	Mayo	2023-08-05T00:00:00	2024-11-08T20:00:00	4	Temperatura máxima	22.3
169943	7	Sololá	712	San Antonio Palopó	9	San Antonio Palopo	5	Mayo	2023-08-05T00:00:00	2024-11-08T20:00:00	3	Temperatura mínima	21.6
169944	7	Sololá	712	San Antonio Palopó	9	San Antonio Palopo	5	Mayo	2023-08-05T00:00:00	2024-11-08T20:00:00	5	Humedad	79
169945	7	Sololá	712	San Antonio Palopó	9	San Antonio Palopo	5	Mayo	2023-08-05T00:00:00	2024-11-08T20:00:00	6	Velocidad del viento	1.6
169946	7	Sololá	712	San Antonio Palopó	9	San Antonio Palopo	5	Mayo	2023-08-05T00:00:00	2024-11-08T20:00:00	7	Dirección del viento	1.61
169947	7	Sololá	712	San Antonio Palopó	9	San Antonio Palopo	5	Mayo	2023-08-05T00:00:00	2024-11-08T20:00:00	1	Precipitación	0
169948	7	Sololá	712	San Antonio Palopó	9	San Antonio Palopo	5	Mayo	2023-08-05T00:00:00	2024-11-08T20:00:00	8	Radiación solar	0
169949	7	Sololá	712	San Antonio Palopó	9	San Antonio Palopo	5	Mayo	2023-08-05T00:00:00	2024-11-08T21:00:00	2	Temperatura media	22.1
169950	7	Sololá	712	San Antonio Palopó	9	San Antonio Palopo	5	Mayo	2023-08-05T00:00:00	2024-11-08T21:00:00	4	Temperatura máxima	22.1
169951	7	Sololá	712	San Antonio Palopó	9	San Antonio Palopo	5	Mayo	2023-08-05T00:00:00	2024-11-08T21:00:00	3	Temperatura mínima	21.3
169952	7	Sololá	712	San Antonio Palopó	9	San Antonio Palopo	5	Mayo	2023-08-05T00:00:00	2024-11-08T21:00:00	5	Humedad	70
169953	7	Sololá	712	San Antonio Palopó	9	San Antonio Palopo	5	Mayo	2023-08-05T00:00:00	2024-11-08T21:00:00	6	Velocidad del viento	3.2
169954	7	Sololá	712	San Antonio Palopó	9	San Antonio Palopo	5	Mayo	2023-08-05T00:00:00	2024-11-08T21:00:00	7	Dirección del viento	3.22
169955	7	Sololá	712	San Antonio Palopó	9	San Antonio Palopo	5	Mayo	2023-08-05T00:00:00	2024-11-08T21:00:00	1	Precipitación	0
169956	7	Sololá	712	San Antonio Palopó	9	San Antonio Palopo	5	Mayo	2023-08-05T00:00:00	2024-11-08T21:00:00	8	Radiación solar	0
169957	7	Sololá	712	San Antonio Palopó	9	San Antonio Palopo	5	Mayo	2023-08-05T00:00:00	2024-11-08T22:00:00	2	Temperatura media	21.9
169958	7	Sololá	712	San Antonio Palopó	9	San Antonio Palopo	5	Mayo	2023-08-05T00:00:00	2024-11-08T22:00:00	4	Temperatura máxima	22.3
169959	7	Sololá	712	San Antonio Palopó	9	San Antonio Palopo	5	Mayo	2023-08-05T00:00:00	2024-11-08T22:00:00	3	Temperatura mínima	21.9
169960	7	Sololá	712	San Antonio Palopó	9	San Antonio Palopo	5	Mayo	2023-08-05T00:00:00	2024-11-08T22:00:00	5	Humedad	66
169961	7	Sololá	712	San Antonio Palopó	9	San Antonio Palopo	5	Mayo	2023-08-05T00:00:00	2024-11-08T22:00:00	6	Velocidad del viento	16.1
169962	7	Sololá	712	San Antonio Palopó	9	San Antonio Palopo	5	Mayo	2023-08-05T00:00:00	2024-11-08T22:00:00	7	Dirección del viento	16.09
169963	7	Sololá	712	San Antonio Palopó	9	San Antonio Palopo	5	Mayo	2023-08-05T00:00:00	2024-11-08T22:00:00	1	Precipitación	0
169964	7	Sololá	712	San Antonio Palopó	9	San Antonio Palopo	5	Mayo	2023-08-05T00:00:00	2024-11-08T22:00:00	8	Radiación solar	0
169965	7	Sololá	712	San Antonio Palopó	9	San Antonio Palopo	5	Mayo	2023-08-05T00:00:00	2024-11-08T23:00:00	2	Temperatura media	20.9
169966	7	Sololá	712	San Antonio Palopó	9	San Antonio Palopo	5	Mayo	2023-08-05T00:00:00	2024-11-08T23:00:00	4	Temperatura máxima	22.2
169967	7	Sololá	712	San Antonio Palopó	9	San Antonio Palopo	5	Mayo	2023-08-05T00:00:00	2024-11-08T23:00:00	3	Temperatura mínima	20.9
169968	7	Sololá	712	San Antonio Palopó	9	San Antonio Palopo	5	Mayo	2023-08-05T00:00:00	2024-11-08T23:00:00	5	Humedad	69
169969	7	Sololá	712	San Antonio Palopó	9	San Antonio Palopo	5	Mayo	2023-08-05T00:00:00	2024-11-08T23:00:00	6	Velocidad del viento	8
169970	7	Sololá	712	San Antonio Palopó	9	San Antonio Palopo	5	Mayo	2023-08-05T00:00:00	2024-11-08T23:00:00	7	Dirección del viento	8.05
169971	7	Sololá	712	San Antonio Palopó	9	San Antonio Palopo	5	Mayo	2023-08-05T00:00:00	2024-11-08T23:00:00	1	Precipitación	0
169972	7	Sololá	712	San Antonio Palopó	9	San Antonio Palopo	5	Mayo	2023-08-05T00:00:00	2024-11-08T23:00:00	8	Radiación solar	0
169973	7	Sololá	712	San Antonio Palopó	9	San Antonio Palopo	5	Mayo	2023-09-05T00:00:00	2024-11-08T00:00:00	2	Temperatura media	20.6
169974	7	Sololá	712	San Antonio Palopó	9	San Antonio Palopo	5	Mayo	2023-09-05T00:00:00	2024-11-08T00:00:00	4	Temperatura máxima	21
169975	7	Sololá	712	San Antonio Palopó	9	San Antonio Palopo	5	Mayo	2023-09-05T00:00:00	2024-11-08T00:00:00	3	Temperatura mínima	20.4
169976	7	Sololá	712	San Antonio Palopó	9	San Antonio Palopo	5	Mayo	2023-09-05T00:00:00	2024-11-08T00:00:00	5	Humedad	67
169977	7	Sololá	712	San Antonio Palopó	9	San Antonio Palopo	5	Mayo	2023-09-05T00:00:00	2024-11-08T00:00:00	6	Velocidad del viento	11.3
169978	7	Sololá	712	San Antonio Palopó	9	San Antonio Palopo	5	Mayo	2023-09-05T00:00:00	2024-11-08T00:00:00	7	Dirección del viento	11.27
169979	7	Sololá	712	San Antonio Palopó	9	San Antonio Palopo	5	Mayo	2023-09-05T00:00:00	2024-11-08T00:00:00	1	Precipitación	0
169980	7	Sololá	712	San Antonio Palopó	9	San Antonio Palopo	5	Mayo	2023-09-05T00:00:00	2024-11-08T00:00:00	8	Radiación solar	0
169981	7	Sololá	712	San Antonio Palopó	9	San Antonio Palopo	5	Mayo	2023-09-05T00:00:00	2024-11-08T01:00:00	2	Temperatura media	20.3
169982	7	Sololá	712	San Antonio Palopó	9	San Antonio Palopo	5	Mayo	2023-09-05T00:00:00	2024-11-08T01:00:00	4	Temperatura máxima	20.8
169983	7	Sololá	712	San Antonio Palopó	9	San Antonio Palopo	5	Mayo	2023-09-05T00:00:00	2024-11-08T01:00:00	3	Temperatura mínima	20.2
169984	7	Sololá	712	San Antonio Palopó	9	San Antonio Palopo	5	Mayo	2023-09-05T00:00:00	2024-11-08T01:00:00	5	Humedad	64
169985	7	Sololá	712	San Antonio Palopó	9	San Antonio Palopo	5	Mayo	2023-09-05T00:00:00	2024-11-08T01:00:00	6	Velocidad del viento	6.4
169986	7	Sololá	712	San Antonio Palopó	9	San Antonio Palopo	5	Mayo	2023-09-05T00:00:00	2024-11-08T01:00:00	7	Dirección del viento	6.44
169987	7	Sololá	712	San Antonio Palopó	9	San Antonio Palopo	5	Mayo	2023-09-05T00:00:00	2024-11-08T01:00:00	1	Precipitación	0
169988	7	Sololá	712	San Antonio Palopó	9	San Antonio Palopo	5	Mayo	2023-09-05T00:00:00	2024-11-08T01:00:00	8	Radiación solar	0
169989	7	Sololá	712	San Antonio Palopó	9	San Antonio Palopo	5	Mayo	2023-09-05T00:00:00	2024-11-08T02:00:00	2	Temperatura media	19.3
169990	7	Sololá	712	San Antonio Palopó	9	San Antonio Palopo	5	Mayo	2023-09-05T00:00:00	2024-11-08T02:00:00	4	Temperatura máxima	20.4
169991	7	Sololá	712	San Antonio Palopó	9	San Antonio Palopo	5	Mayo	2023-09-05T00:00:00	2024-11-08T02:00:00	3	Temperatura mínima	19.3
169992	7	Sololá	712	San Antonio Palopó	9	San Antonio Palopo	5	Mayo	2023-09-05T00:00:00	2024-11-08T02:00:00	5	Humedad	65
169993	7	Sololá	712	San Antonio Palopó	9	San Antonio Palopo	5	Mayo	2023-09-05T00:00:00	2024-11-08T02:00:00	6	Velocidad del viento	4.8
169994	7	Sololá	712	San Antonio Palopó	9	San Antonio Palopo	5	Mayo	2023-09-05T00:00:00	2024-11-08T02:00:00	7	Dirección del viento	4.83
169995	7	Sololá	712	San Antonio Palopó	9	San Antonio Palopo	5	Mayo	2023-09-05T00:00:00	2024-11-08T02:00:00	1	Precipitación	0
169996	7	Sololá	712	San Antonio Palopó	9	San Antonio Palopo	5	Mayo	2023-09-05T00:00:00	2024-11-08T02:00:00	8	Radiación solar	0
169997	7	Sololá	712	San Antonio Palopó	9	San Antonio Palopo	5	Mayo	2023-09-05T00:00:00	2024-11-08T03:00:00	2	Temperatura media	19.2
169998	7	Sololá	712	San Antonio Palopó	9	San Antonio Palopo	5	Mayo	2023-09-05T00:00:00	2024-11-08T03:00:00	4	Temperatura máxima	19.8
169999	7	Sololá	712	San Antonio Palopó	9	San Antonio Palopo	5	Mayo	2023-09-05T00:00:00	2024-11-08T03:00:00	3	Temperatura mínima	19.2
170000	7	Sololá	712	San Antonio Palopó	9	San Antonio Palopo	5	Mayo	2023-09-05T00:00:00	2024-11-08T03:00:00	5	Humedad	60
170001	7	Sololá	712	San Antonio Palopó	9	San Antonio Palopo	5	Mayo	2023-09-05T00:00:00	2024-11-08T03:00:00	6	Velocidad del viento	4.8
170002	7	Sololá	712	San Antonio Palopó	9	San Antonio Palopo	5	Mayo	2023-09-05T00:00:00	2024-11-08T03:00:00	7	Dirección del viento	4.83
170003	7	Sololá	712	San Antonio Palopó	9	San Antonio Palopo	5	Mayo	2023-09-05T00:00:00	2024-11-08T03:00:00	1	Precipitación	0
170004	7	Sololá	712	San Antonio Palopó	9	San Antonio Palopo	5	Mayo	2023-09-05T00:00:00	2024-11-08T03:00:00	8	Radiación solar	0
170005	7	Sololá	712	San Antonio Palopó	9	San Antonio Palopo	5	Mayo	2023-09-05T00:00:00	2024-11-08T04:00:00	2	Temperatura media	18.6
170006	7	Sololá	712	San Antonio Palopó	9	San Antonio Palopo	5	Mayo	2023-09-05T00:00:00	2024-11-08T04:00:00	4	Temperatura máxima	19.2
170007	7	Sololá	712	San Antonio Palopó	9	San Antonio Palopo	5	Mayo	2023-09-05T00:00:00	2024-11-08T04:00:00	3	Temperatura mínima	18.2
170008	7	Sololá	712	San Antonio Palopó	9	San Antonio Palopo	5	Mayo	2023-09-05T00:00:00	2024-11-08T04:00:00	5	Humedad	61
170009	7	Sololá	712	San Antonio Palopó	9	San Antonio Palopo	5	Mayo	2023-09-05T00:00:00	2024-11-08T04:00:00	6	Velocidad del viento	4.8
170010	7	Sololá	712	San Antonio Palopó	9	San Antonio Palopo	5	Mayo	2023-09-05T00:00:00	2024-11-08T04:00:00	7	Dirección del viento	4.83
170011	7	Sololá	712	San Antonio Palopó	9	San Antonio Palopo	5	Mayo	2023-09-05T00:00:00	2024-11-08T04:00:00	1	Precipitación	0
170012	7	Sololá	712	San Antonio Palopó	9	San Antonio Palopo	5	Mayo	2023-09-05T00:00:00	2024-11-08T04:00:00	8	Radiación solar	0
170013	7	Sololá	712	San Antonio Palopó	9	San Antonio Palopo	5	Mayo	2023-09-05T00:00:00	2024-11-08T05:00:00	2	Temperatura media	18.2
170014	7	Sololá	712	San Antonio Palopó	9	San Antonio Palopo	5	Mayo	2023-09-05T00:00:00	2024-11-08T05:00:00	4	Temperatura máxima	19.3
170015	7	Sololá	712	San Antonio Palopó	9	San Antonio Palopo	5	Mayo	2023-09-05T00:00:00	2024-11-08T05:00:00	3	Temperatura mínima	18.1
170016	7	Sololá	712	San Antonio Palopó	9	San Antonio Palopo	5	Mayo	2023-09-05T00:00:00	2024-11-08T05:00:00	5	Humedad	61
170017	7	Sololá	712	San Antonio Palopó	9	San Antonio Palopo	5	Mayo	2023-09-05T00:00:00	2024-11-08T05:00:00	6	Velocidad del viento	4.8
170018	7	Sololá	712	San Antonio Palopó	9	San Antonio Palopo	5	Mayo	2023-09-05T00:00:00	2024-11-08T05:00:00	7	Dirección del viento	4.83
170019	7	Sololá	712	San Antonio Palopó	9	San Antonio Palopo	5	Mayo	2023-09-05T00:00:00	2024-11-08T05:00:00	1	Precipitación	0
170020	7	Sololá	712	San Antonio Palopó	9	San Antonio Palopo	5	Mayo	2023-09-05T00:00:00	2024-11-08T05:00:00	8	Radiación solar	0
170021	7	Sololá	712	San Antonio Palopó	9	San Antonio Palopo	5	Mayo	2023-09-05T00:00:00	2024-11-08T06:00:00	2	Temperatura media	18
170022	7	Sololá	712	San Antonio Palopó	9	San Antonio Palopo	5	Mayo	2023-09-05T00:00:00	2024-11-08T06:00:00	4	Temperatura máxima	18.4
170023	7	Sololá	712	San Antonio Palopó	9	San Antonio Palopo	5	Mayo	2023-09-05T00:00:00	2024-11-08T06:00:00	3	Temperatura mínima	18
170024	7	Sololá	712	San Antonio Palopó	9	San Antonio Palopo	5	Mayo	2023-09-05T00:00:00	2024-11-08T06:00:00	5	Humedad	65
170025	7	Sololá	712	San Antonio Palopó	9	San Antonio Palopo	5	Mayo	2023-09-05T00:00:00	2024-11-08T06:00:00	6	Velocidad del viento	3.2
170026	7	Sololá	712	San Antonio Palopó	9	San Antonio Palopo	5	Mayo	2023-09-05T00:00:00	2024-11-08T06:00:00	7	Dirección del viento	3.22
170027	7	Sololá	712	San Antonio Palopó	9	San Antonio Palopo	5	Mayo	2023-09-05T00:00:00	2024-11-08T06:00:00	1	Precipitación	0
170028	7	Sololá	712	San Antonio Palopó	9	San Antonio Palopo	5	Mayo	2023-09-05T00:00:00	2024-11-08T06:00:00	8	Radiación solar	4
170029	7	Sololá	712	San Antonio Palopó	9	San Antonio Palopo	5	Mayo	2023-09-05T00:00:00	2024-11-08T07:00:00	2	Temperatura media	18.7
170030	7	Sololá	712	San Antonio Palopó	9	San Antonio Palopo	5	Mayo	2023-09-05T00:00:00	2024-11-08T07:00:00	4	Temperatura máxima	18.7
170031	7	Sololá	712	San Antonio Palopó	9	San Antonio Palopo	5	Mayo	2023-09-05T00:00:00	2024-11-08T07:00:00	3	Temperatura mínima	17.7
170032	7	Sololá	712	San Antonio Palopó	9	San Antonio Palopo	5	Mayo	2023-09-05T00:00:00	2024-11-08T07:00:00	5	Humedad	67
170033	7	Sololá	712	San Antonio Palopó	9	San Antonio Palopo	5	Mayo	2023-09-05T00:00:00	2024-11-08T07:00:00	6	Velocidad del viento	3.2
170034	7	Sololá	712	San Antonio Palopó	9	San Antonio Palopo	5	Mayo	2023-09-05T00:00:00	2024-11-08T07:00:00	7	Dirección del viento	3.22
170035	7	Sololá	712	San Antonio Palopó	9	San Antonio Palopo	5	Mayo	2023-09-05T00:00:00	2024-11-08T07:00:00	1	Precipitación	0
170036	7	Sololá	712	San Antonio Palopó	9	San Antonio Palopo	5	Mayo	2023-09-05T00:00:00	2024-11-08T07:00:00	8	Radiación solar	70
170037	7	Sololá	712	San Antonio Palopó	9	San Antonio Palopo	5	Mayo	2023-09-05T00:00:00	2024-11-08T08:00:00	2	Temperatura media	20.8
170038	7	Sololá	712	San Antonio Palopó	9	San Antonio Palopo	5	Mayo	2023-09-05T00:00:00	2024-11-08T08:00:00	4	Temperatura máxima	20.8
170039	7	Sololá	712	San Antonio Palopó	9	San Antonio Palopo	5	Mayo	2023-09-05T00:00:00	2024-11-08T08:00:00	3	Temperatura mínima	18.7
170040	7	Sololá	712	San Antonio Palopó	9	San Antonio Palopo	5	Mayo	2023-09-05T00:00:00	2024-11-08T08:00:00	5	Humedad	65
170041	7	Sololá	712	San Antonio Palopó	9	San Antonio Palopo	5	Mayo	2023-09-05T00:00:00	2024-11-08T08:00:00	6	Velocidad del viento	0
170042	7	Sololá	712	San Antonio Palopó	9	San Antonio Palopo	5	Mayo	2023-09-05T00:00:00	2024-11-08T08:00:00	7	Dirección del viento	0
170043	7	Sololá	712	San Antonio Palopó	9	San Antonio Palopo	5	Mayo	2023-09-05T00:00:00	2024-11-08T08:00:00	1	Precipitación	0
170044	7	Sololá	712	San Antonio Palopó	9	San Antonio Palopo	5	Mayo	2023-09-05T00:00:00	2024-11-08T08:00:00	8	Radiación solar	206
170045	7	Sololá	712	San Antonio Palopó	9	San Antonio Palopo	5	Mayo	2023-09-05T00:00:00	2024-11-08T09:00:00	2	Temperatura media	21
170046	7	Sololá	712	San Antonio Palopó	9	San Antonio Palopo	5	Mayo	2023-09-05T00:00:00	2024-11-08T09:00:00	4	Temperatura máxima	21.1
170047	7	Sololá	712	San Antonio Palopó	9	San Antonio Palopo	5	Mayo	2023-09-05T00:00:00	2024-11-08T09:00:00	3	Temperatura mínima	20.7
170048	7	Sololá	712	San Antonio Palopó	9	San Antonio Palopo	5	Mayo	2023-09-05T00:00:00	2024-11-08T09:00:00	5	Humedad	67
170049	7	Sololá	712	San Antonio Palopó	9	San Antonio Palopo	5	Mayo	2023-09-05T00:00:00	2024-11-08T09:00:00	6	Velocidad del viento	1.6
170050	7	Sololá	712	San Antonio Palopó	9	San Antonio Palopo	5	Mayo	2023-09-05T00:00:00	2024-11-08T09:00:00	7	Dirección del viento	1.61
170051	7	Sololá	712	San Antonio Palopó	9	San Antonio Palopo	5	Mayo	2023-09-05T00:00:00	2024-11-08T09:00:00	1	Precipitación	0
170052	7	Sololá	712	San Antonio Palopó	9	San Antonio Palopo	5	Mayo	2023-09-05T00:00:00	2024-11-08T09:00:00	8	Radiación solar	476
170053	7	Sololá	712	San Antonio Palopó	9	San Antonio Palopo	5	Mayo	2023-09-05T00:00:00	2024-11-08T10:00:00	2	Temperatura media	22.1
170054	7	Sololá	712	San Antonio Palopó	9	San Antonio Palopo	5	Mayo	2023-09-05T00:00:00	2024-11-08T10:00:00	4	Temperatura máxima	22.3
170055	7	Sololá	712	San Antonio Palopó	9	San Antonio Palopo	5	Mayo	2023-09-05T00:00:00	2024-11-08T10:00:00	3	Temperatura mínima	20.9
170056	7	Sololá	712	San Antonio Palopó	9	San Antonio Palopo	5	Mayo	2023-09-05T00:00:00	2024-11-08T10:00:00	5	Humedad	60
170057	7	Sololá	712	San Antonio Palopó	9	San Antonio Palopo	5	Mayo	2023-09-05T00:00:00	2024-11-08T10:00:00	6	Velocidad del viento	3.2
170058	7	Sololá	712	San Antonio Palopó	9	San Antonio Palopo	5	Mayo	2023-09-05T00:00:00	2024-11-08T10:00:00	7	Dirección del viento	3.22
170059	7	Sololá	712	San Antonio Palopó	9	San Antonio Palopo	5	Mayo	2023-09-05T00:00:00	2024-11-08T10:00:00	1	Precipitación	0
170060	7	Sololá	712	San Antonio Palopó	9	San Antonio Palopo	5	Mayo	2023-09-05T00:00:00	2024-11-08T10:00:00	8	Radiación solar	702
170061	7	Sololá	712	San Antonio Palopó	9	San Antonio Palopo	5	Mayo	2023-09-05T00:00:00	2024-11-08T11:00:00	2	Temperatura media	24.2
170062	7	Sololá	712	San Antonio Palopó	9	San Antonio Palopo	5	Mayo	2023-09-05T00:00:00	2024-11-08T11:00:00	4	Temperatura máxima	24.3
170063	7	Sololá	712	San Antonio Palopó	9	San Antonio Palopo	5	Mayo	2023-09-05T00:00:00	2024-11-08T11:00:00	3	Temperatura mínima	22.1
170064	7	Sololá	712	San Antonio Palopó	9	San Antonio Palopo	5	Mayo	2023-09-05T00:00:00	2024-11-08T11:00:00	5	Humedad	55
170065	7	Sololá	712	San Antonio Palopó	9	San Antonio Palopo	5	Mayo	2023-09-05T00:00:00	2024-11-08T11:00:00	6	Velocidad del viento	3.2
170066	7	Sololá	712	San Antonio Palopó	9	San Antonio Palopo	5	Mayo	2023-09-05T00:00:00	2024-11-08T11:00:00	7	Dirección del viento	3.22
170067	7	Sololá	712	San Antonio Palopó	9	San Antonio Palopo	5	Mayo	2023-09-05T00:00:00	2024-11-08T11:00:00	1	Precipitación	0
170068	7	Sololá	712	San Antonio Palopó	9	San Antonio Palopo	5	Mayo	2023-09-05T00:00:00	2024-11-08T11:00:00	8	Radiación solar	856
170069	7	Sololá	712	San Antonio Palopó	9	San Antonio Palopo	5	Mayo	2023-09-05T00:00:00	2024-11-08T12:00:00	2	Temperatura media	24.5
170070	7	Sololá	712	San Antonio Palopó	9	San Antonio Palopo	5	Mayo	2023-09-05T00:00:00	2024-11-08T12:00:00	4	Temperatura máxima	24.8
170071	7	Sololá	712	San Antonio Palopó	9	San Antonio Palopo	5	Mayo	2023-09-05T00:00:00	2024-11-08T12:00:00	3	Temperatura mínima	24.2
170072	7	Sololá	712	San Antonio Palopó	9	San Antonio Palopo	5	Mayo	2023-09-05T00:00:00	2024-11-08T12:00:00	5	Humedad	65
170073	7	Sololá	712	San Antonio Palopó	9	San Antonio Palopo	5	Mayo	2023-09-05T00:00:00	2024-11-08T12:00:00	6	Velocidad del viento	4.8
170074	7	Sololá	712	San Antonio Palopó	9	San Antonio Palopo	5	Mayo	2023-09-05T00:00:00	2024-11-08T12:00:00	7	Dirección del viento	4.83
170075	7	Sololá	712	San Antonio Palopó	9	San Antonio Palopo	5	Mayo	2023-09-05T00:00:00	2024-11-08T12:00:00	1	Precipitación	0
170076	7	Sololá	712	San Antonio Palopó	9	San Antonio Palopo	5	Mayo	2023-09-05T00:00:00	2024-11-08T12:00:00	8	Radiación solar	906
170077	7	Sololá	712	San Antonio Palopó	9	San Antonio Palopo	5	Mayo	2023-09-05T00:00:00	2024-11-08T13:00:00	2	Temperatura media	24.8
170078	7	Sololá	712	San Antonio Palopó	9	San Antonio Palopo	5	Mayo	2023-09-05T00:00:00	2024-11-08T13:00:00	4	Temperatura máxima	25.6
170079	7	Sololá	712	San Antonio Palopó	9	San Antonio Palopo	5	Mayo	2023-09-05T00:00:00	2024-11-08T13:00:00	3	Temperatura mínima	24.5
170080	7	Sololá	712	San Antonio Palopó	9	San Antonio Palopo	5	Mayo	2023-09-05T00:00:00	2024-11-08T13:00:00	5	Humedad	66
170081	7	Sololá	712	San Antonio Palopó	9	San Antonio Palopo	5	Mayo	2023-09-05T00:00:00	2024-11-08T13:00:00	6	Velocidad del viento	9.7
170082	7	Sololá	712	San Antonio Palopó	9	San Antonio Palopo	5	Mayo	2023-09-05T00:00:00	2024-11-08T13:00:00	7	Dirección del viento	9.66
170083	7	Sololá	712	San Antonio Palopó	9	San Antonio Palopo	5	Mayo	2023-09-05T00:00:00	2024-11-08T13:00:00	1	Precipitación	0
170084	7	Sololá	712	San Antonio Palopó	9	San Antonio Palopo	5	Mayo	2023-09-05T00:00:00	2024-11-08T13:00:00	8	Radiación solar	910
170085	7	Sololá	712	San Antonio Palopó	9	San Antonio Palopo	5	Mayo	2023-09-05T00:00:00	2024-11-08T14:00:00	2	Temperatura media	24.9
170086	7	Sololá	712	San Antonio Palopó	9	San Antonio Palopo	5	Mayo	2023-09-05T00:00:00	2024-11-08T14:00:00	4	Temperatura máxima	25.1
170087	7	Sololá	712	San Antonio Palopó	9	San Antonio Palopo	5	Mayo	2023-09-05T00:00:00	2024-11-08T14:00:00	3	Temperatura mínima	24.7
170088	7	Sololá	712	San Antonio Palopó	9	San Antonio Palopo	5	Mayo	2023-09-05T00:00:00	2024-11-08T14:00:00	5	Humedad	68
170089	7	Sololá	712	San Antonio Palopó	9	San Antonio Palopo	5	Mayo	2023-09-05T00:00:00	2024-11-08T14:00:00	6	Velocidad del viento	11.3
170090	7	Sololá	712	San Antonio Palopó	9	San Antonio Palopo	5	Mayo	2023-09-05T00:00:00	2024-11-08T14:00:00	7	Dirección del viento	11.27
170091	7	Sololá	712	San Antonio Palopó	9	San Antonio Palopo	5	Mayo	2023-09-05T00:00:00	2024-11-08T14:00:00	1	Precipitación	0
170092	7	Sololá	712	San Antonio Palopó	9	San Antonio Palopo	5	Mayo	2023-09-05T00:00:00	2024-11-08T14:00:00	8	Radiación solar	843
170093	7	Sololá	712	San Antonio Palopó	9	San Antonio Palopo	5	Mayo	2023-09-05T00:00:00	2024-11-08T15:00:00	2	Temperatura media	24.4
170094	7	Sololá	712	San Antonio Palopó	9	San Antonio Palopo	5	Mayo	2023-09-05T00:00:00	2024-11-08T15:00:00	4	Temperatura máxima	25.1
170095	7	Sololá	712	San Antonio Palopó	9	San Antonio Palopo	5	Mayo	2023-09-05T00:00:00	2024-11-08T15:00:00	3	Temperatura mínima	24.1
170096	7	Sololá	712	San Antonio Palopó	9	San Antonio Palopo	5	Mayo	2023-09-05T00:00:00	2024-11-08T15:00:00	5	Humedad	68
170097	7	Sololá	712	San Antonio Palopó	9	San Antonio Palopo	5	Mayo	2023-09-05T00:00:00	2024-11-08T15:00:00	6	Velocidad del viento	12.9
170098	7	Sololá	712	San Antonio Palopó	9	San Antonio Palopo	5	Mayo	2023-09-05T00:00:00	2024-11-08T15:00:00	7	Dirección del viento	12.87
170099	7	Sololá	712	San Antonio Palopó	9	San Antonio Palopo	5	Mayo	2023-09-05T00:00:00	2024-11-08T15:00:00	1	Precipitación	0
170100	7	Sololá	712	San Antonio Palopó	9	San Antonio Palopo	5	Mayo	2023-09-05T00:00:00	2024-11-08T15:00:00	8	Radiación solar	728
170101	7	Sololá	712	San Antonio Palopó	9	San Antonio Palopo	5	Mayo	2023-09-05T00:00:00	2024-11-08T16:00:00	2	Temperatura media	24.2
170102	7	Sololá	712	San Antonio Palopó	9	San Antonio Palopo	5	Mayo	2023-09-05T00:00:00	2024-11-08T16:00:00	4	Temperatura máxima	24.9
170103	7	Sololá	712	San Antonio Palopó	9	San Antonio Palopo	5	Mayo	2023-09-05T00:00:00	2024-11-08T16:00:00	3	Temperatura mínima	24.1
170104	7	Sololá	712	San Antonio Palopó	9	San Antonio Palopo	5	Mayo	2023-09-05T00:00:00	2024-11-08T16:00:00	5	Humedad	73
170105	7	Sololá	712	San Antonio Palopó	9	San Antonio Palopo	5	Mayo	2023-09-05T00:00:00	2024-11-08T16:00:00	6	Velocidad del viento	8
170106	7	Sololá	712	San Antonio Palopó	9	San Antonio Palopo	5	Mayo	2023-09-05T00:00:00	2024-11-08T16:00:00	7	Dirección del viento	8.05
170107	7	Sololá	712	San Antonio Palopó	9	San Antonio Palopo	5	Mayo	2023-09-05T00:00:00	2024-11-08T16:00:00	1	Precipitación	0
170108	7	Sololá	712	San Antonio Palopó	9	San Antonio Palopo	5	Mayo	2023-09-05T00:00:00	2024-11-08T16:00:00	8	Radiación solar	411
170109	7	Sololá	712	San Antonio Palopó	9	San Antonio Palopo	5	Mayo	2023-09-05T00:00:00	2024-11-08T17:00:00	2	Temperatura media	21.6
170110	7	Sololá	712	San Antonio Palopó	9	San Antonio Palopo	5	Mayo	2023-09-05T00:00:00	2024-11-08T17:00:00	4	Temperatura máxima	24.2
170111	7	Sololá	712	San Antonio Palopó	9	San Antonio Palopo	5	Mayo	2023-09-05T00:00:00	2024-11-08T17:00:00	3	Temperatura mínima	21.4
170112	7	Sololá	712	San Antonio Palopó	9	San Antonio Palopo	5	Mayo	2023-09-05T00:00:00	2024-11-08T17:00:00	5	Humedad	81
170113	7	Sololá	712	San Antonio Palopó	9	San Antonio Palopo	5	Mayo	2023-09-05T00:00:00	2024-11-08T17:00:00	6	Velocidad del viento	9.7
170114	7	Sololá	712	San Antonio Palopó	9	San Antonio Palopo	5	Mayo	2023-09-05T00:00:00	2024-11-08T17:00:00	7	Dirección del viento	9.66
170115	7	Sololá	712	San Antonio Palopó	9	San Antonio Palopo	5	Mayo	2023-09-05T00:00:00	2024-11-08T17:00:00	1	Precipitación	0
170116	7	Sololá	712	San Antonio Palopó	9	San Antonio Palopo	5	Mayo	2023-09-05T00:00:00	2024-11-08T17:00:00	8	Radiación solar	180
170117	7	Sololá	712	San Antonio Palopó	9	San Antonio Palopo	5	Mayo	2023-09-05T00:00:00	2024-11-08T18:00:00	2	Temperatura media	21.5
170118	7	Sololá	712	San Antonio Palopó	9	San Antonio Palopo	5	Mayo	2023-09-05T00:00:00	2024-11-08T18:00:00	4	Temperatura máxima	21.7
170119	7	Sololá	712	San Antonio Palopó	9	San Antonio Palopo	5	Mayo	2023-09-05T00:00:00	2024-11-08T18:00:00	3	Temperatura mínima	21.4
170120	7	Sololá	712	San Antonio Palopó	9	San Antonio Palopo	5	Mayo	2023-09-05T00:00:00	2024-11-08T18:00:00	5	Humedad	81
170121	7	Sololá	712	San Antonio Palopó	9	San Antonio Palopo	5	Mayo	2023-09-05T00:00:00	2024-11-08T18:00:00	6	Velocidad del viento	4.8
170122	7	Sololá	712	San Antonio Palopó	9	San Antonio Palopo	5	Mayo	2023-09-05T00:00:00	2024-11-08T18:00:00	7	Dirección del viento	4.83
170123	7	Sololá	712	San Antonio Palopó	9	San Antonio Palopo	5	Mayo	2023-09-05T00:00:00	2024-11-08T18:00:00	1	Precipitación	0
170124	7	Sololá	712	San Antonio Palopó	9	San Antonio Palopo	5	Mayo	2023-09-05T00:00:00	2024-11-08T18:00:00	8	Radiación solar	19
170125	7	Sololá	712	San Antonio Palopó	9	San Antonio Palopo	5	Mayo	2023-09-05T00:00:00	2024-11-08T19:00:00	2	Temperatura media	21.4
170126	7	Sololá	712	San Antonio Palopó	9	San Antonio Palopo	5	Mayo	2023-09-05T00:00:00	2024-11-08T19:00:00	4	Temperatura máxima	21.6
170127	7	Sololá	712	San Antonio Palopó	9	San Antonio Palopo	5	Mayo	2023-09-05T00:00:00	2024-11-08T19:00:00	3	Temperatura mínima	21.2
170128	7	Sololá	712	San Antonio Palopó	9	San Antonio Palopo	5	Mayo	2023-09-05T00:00:00	2024-11-08T19:00:00	5	Humedad	80
170129	7	Sololá	712	San Antonio Palopó	9	San Antonio Palopo	5	Mayo	2023-09-05T00:00:00	2024-11-08T19:00:00	6	Velocidad del viento	3.2
170130	7	Sololá	712	San Antonio Palopó	9	San Antonio Palopo	5	Mayo	2023-09-05T00:00:00	2024-11-08T19:00:00	7	Dirección del viento	3.22
170131	7	Sololá	712	San Antonio Palopó	9	San Antonio Palopo	5	Mayo	2023-09-05T00:00:00	2024-11-08T19:00:00	1	Precipitación	0
170132	7	Sololá	712	San Antonio Palopó	9	San Antonio Palopo	5	Mayo	2023-09-05T00:00:00	2024-11-08T19:00:00	8	Radiación solar	0
170133	7	Sololá	712	San Antonio Palopó	9	San Antonio Palopo	5	Mayo	2023-09-05T00:00:00	2024-11-08T20:00:00	2	Temperatura media	20.9
170134	7	Sololá	712	San Antonio Palopó	9	San Antonio Palopo	5	Mayo	2023-09-05T00:00:00	2024-11-08T20:00:00	4	Temperatura máxima	21.6
170135	7	Sololá	712	San Antonio Palopó	9	San Antonio Palopo	5	Mayo	2023-09-05T00:00:00	2024-11-08T20:00:00	3	Temperatura mínima	20.9
170136	7	Sololá	712	San Antonio Palopó	9	San Antonio Palopo	5	Mayo	2023-09-05T00:00:00	2024-11-08T20:00:00	5	Humedad	82
170137	7	Sololá	712	San Antonio Palopó	9	San Antonio Palopo	5	Mayo	2023-09-05T00:00:00	2024-11-08T20:00:00	6	Velocidad del viento	4.8
170138	7	Sololá	712	San Antonio Palopó	9	San Antonio Palopo	5	Mayo	2023-09-05T00:00:00	2024-11-08T20:00:00	7	Dirección del viento	4.83
170139	7	Sololá	712	San Antonio Palopó	9	San Antonio Palopo	5	Mayo	2023-09-05T00:00:00	2024-11-08T20:00:00	1	Precipitación	0
170140	7	Sololá	712	San Antonio Palopó	9	San Antonio Palopo	5	Mayo	2023-09-05T00:00:00	2024-11-08T20:00:00	8	Radiación solar	0
170141	7	Sololá	712	San Antonio Palopó	9	San Antonio Palopo	5	Mayo	2023-09-05T00:00:00	2024-11-08T21:00:00	2	Temperatura media	20.9
170142	7	Sololá	712	San Antonio Palopó	9	San Antonio Palopo	5	Mayo	2023-09-05T00:00:00	2024-11-08T21:00:00	4	Temperatura máxima	21.1
170143	7	Sololá	712	San Antonio Palopó	9	San Antonio Palopo	5	Mayo	2023-09-05T00:00:00	2024-11-08T21:00:00	3	Temperatura mínima	20.7
170144	7	Sololá	712	San Antonio Palopó	9	San Antonio Palopo	5	Mayo	2023-09-05T00:00:00	2024-11-08T21:00:00	5	Humedad	82
170145	7	Sololá	712	San Antonio Palopó	9	San Antonio Palopo	5	Mayo	2023-09-05T00:00:00	2024-11-08T21:00:00	6	Velocidad del viento	3.2
170146	7	Sololá	712	San Antonio Palopó	9	San Antonio Palopo	5	Mayo	2023-09-05T00:00:00	2024-11-08T21:00:00	7	Dirección del viento	3.22
170147	7	Sololá	712	San Antonio Palopó	9	San Antonio Palopo	5	Mayo	2023-09-05T00:00:00	2024-11-08T21:00:00	1	Precipitación	0
170148	7	Sololá	712	San Antonio Palopó	9	San Antonio Palopo	5	Mayo	2023-09-05T00:00:00	2024-11-08T21:00:00	8	Radiación solar	0
170149	7	Sololá	712	San Antonio Palopó	9	San Antonio Palopo	5	Mayo	2023-09-05T00:00:00	2024-11-08T22:00:00	2	Temperatura media	20.9
170150	7	Sololá	712	San Antonio Palopó	9	San Antonio Palopo	5	Mayo	2023-09-05T00:00:00	2024-11-08T22:00:00	4	Temperatura máxima	21
170151	7	Sololá	712	San Antonio Palopó	9	San Antonio Palopo	5	Mayo	2023-09-05T00:00:00	2024-11-08T22:00:00	3	Temperatura mínima	20.9
170152	7	Sololá	712	San Antonio Palopó	9	San Antonio Palopo	5	Mayo	2023-09-05T00:00:00	2024-11-08T22:00:00	5	Humedad	85
170153	7	Sololá	712	San Antonio Palopó	9	San Antonio Palopo	5	Mayo	2023-09-05T00:00:00	2024-11-08T22:00:00	6	Velocidad del viento	1.6
170154	7	Sololá	712	San Antonio Palopó	9	San Antonio Palopo	5	Mayo	2023-09-05T00:00:00	2024-11-08T22:00:00	7	Dirección del viento	1.61
170155	7	Sololá	712	San Antonio Palopó	9	San Antonio Palopo	5	Mayo	2023-09-05T00:00:00	2024-11-08T22:00:00	1	Precipitación	0
170156	7	Sololá	712	San Antonio Palopó	9	San Antonio Palopo	5	Mayo	2023-09-05T00:00:00	2024-11-08T22:00:00	8	Radiación solar	0
170157	7	Sololá	712	San Antonio Palopó	9	San Antonio Palopo	5	Mayo	2023-09-05T00:00:00	2024-11-08T23:00:00	2	Temperatura media	20.5
170158	7	Sololá	712	San Antonio Palopó	9	San Antonio Palopo	5	Mayo	2023-09-05T00:00:00	2024-11-08T23:00:00	4	Temperatura máxima	20.9
170159	7	Sololá	712	San Antonio Palopó	9	San Antonio Palopo	5	Mayo	2023-09-05T00:00:00	2024-11-08T23:00:00	3	Temperatura mínima	20.5
170160	7	Sololá	712	San Antonio Palopó	9	San Antonio Palopo	5	Mayo	2023-09-05T00:00:00	2024-11-08T23:00:00	5	Humedad	82
170161	7	Sololá	712	San Antonio Palopó	9	San Antonio Palopo	5	Mayo	2023-09-05T00:00:00	2024-11-08T23:00:00	6	Velocidad del viento	1.6
170162	7	Sololá	712	San Antonio Palopó	9	San Antonio Palopo	5	Mayo	2023-09-05T00:00:00	2024-11-08T23:00:00	7	Dirección del viento	1.61
170163	7	Sololá	712	San Antonio Palopó	9	San Antonio Palopo	5	Mayo	2023-09-05T00:00:00	2024-11-08T23:00:00	1	Precipitación	0
170164	7	Sololá	712	San Antonio Palopó	9	San Antonio Palopo	5	Mayo	2023-09-05T00:00:00	2024-11-08T23:00:00	8	Radiación solar	0
170165	7	Sololá	712	San Antonio Palopó	9	San Antonio Palopo	5	Mayo	2023-10-05T00:00:00	2024-11-08T00:00:00	2	Temperatura media	20.7
170166	7	Sololá	712	San Antonio Palopó	9	San Antonio Palopo	5	Mayo	2023-10-05T00:00:00	2024-11-08T00:00:00	4	Temperatura máxima	20.8
170167	7	Sololá	712	San Antonio Palopó	9	San Antonio Palopo	5	Mayo	2023-10-05T00:00:00	2024-11-08T00:00:00	3	Temperatura mínima	20.4
170168	7	Sololá	712	San Antonio Palopó	9	San Antonio Palopo	5	Mayo	2023-10-05T00:00:00	2024-11-08T00:00:00	5	Humedad	81
170169	7	Sololá	712	San Antonio Palopó	9	San Antonio Palopo	5	Mayo	2023-10-05T00:00:00	2024-11-08T00:00:00	6	Velocidad del viento	1.6
170170	7	Sololá	712	San Antonio Palopó	9	San Antonio Palopo	5	Mayo	2023-10-05T00:00:00	2024-11-08T00:00:00	7	Dirección del viento	1.61
170171	7	Sololá	712	San Antonio Palopó	9	San Antonio Palopo	5	Mayo	2023-10-05T00:00:00	2024-11-08T00:00:00	1	Precipitación	0
170172	7	Sololá	712	San Antonio Palopó	9	San Antonio Palopo	5	Mayo	2023-10-05T00:00:00	2024-11-08T00:00:00	8	Radiación solar	0
170173	7	Sololá	712	San Antonio Palopó	9	San Antonio Palopo	5	Mayo	2023-10-05T00:00:00	2024-11-08T01:00:00	2	Temperatura media	20.3
170174	7	Sololá	712	San Antonio Palopó	9	San Antonio Palopo	5	Mayo	2023-10-05T00:00:00	2024-11-08T01:00:00	4	Temperatura máxima	20.8
170175	7	Sololá	712	San Antonio Palopó	9	San Antonio Palopo	5	Mayo	2023-10-05T00:00:00	2024-11-08T01:00:00	3	Temperatura mínima	20.2
170176	7	Sololá	712	San Antonio Palopó	9	San Antonio Palopo	5	Mayo	2023-10-05T00:00:00	2024-11-08T01:00:00	5	Humedad	81
170177	7	Sololá	712	San Antonio Palopó	9	San Antonio Palopo	5	Mayo	2023-10-05T00:00:00	2024-11-08T01:00:00	6	Velocidad del viento	1.6
170178	7	Sololá	712	San Antonio Palopó	9	San Antonio Palopo	5	Mayo	2023-10-05T00:00:00	2024-11-08T01:00:00	7	Dirección del viento	1.61
170179	7	Sololá	712	San Antonio Palopó	9	San Antonio Palopo	5	Mayo	2023-10-05T00:00:00	2024-11-08T01:00:00	1	Precipitación	0
170180	7	Sololá	712	San Antonio Palopó	9	San Antonio Palopo	5	Mayo	2023-10-05T00:00:00	2024-11-08T01:00:00	8	Radiación solar	0
170181	7	Sololá	712	San Antonio Palopó	9	San Antonio Palopo	5	Mayo	2023-10-05T00:00:00	2024-11-08T02:00:00	2	Temperatura media	19.8
170182	7	Sololá	712	San Antonio Palopó	9	San Antonio Palopo	5	Mayo	2023-10-05T00:00:00	2024-11-08T02:00:00	4	Temperatura máxima	20.3
170183	7	Sololá	712	San Antonio Palopó	9	San Antonio Palopo	5	Mayo	2023-10-05T00:00:00	2024-11-08T02:00:00	3	Temperatura mínima	19.8
170184	7	Sololá	712	San Antonio Palopó	9	San Antonio Palopo	5	Mayo	2023-10-05T00:00:00	2024-11-08T02:00:00	5	Humedad	81
170185	7	Sololá	712	San Antonio Palopó	9	San Antonio Palopo	5	Mayo	2023-10-05T00:00:00	2024-11-08T02:00:00	6	Velocidad del viento	1.6
170186	7	Sololá	712	San Antonio Palopó	9	San Antonio Palopo	5	Mayo	2023-10-05T00:00:00	2024-11-08T02:00:00	7	Dirección del viento	1.61
170187	7	Sololá	712	San Antonio Palopó	9	San Antonio Palopo	5	Mayo	2023-10-05T00:00:00	2024-11-08T02:00:00	1	Precipitación	0
170188	7	Sololá	712	San Antonio Palopó	9	San Antonio Palopo	5	Mayo	2023-10-05T00:00:00	2024-11-08T02:00:00	8	Radiación solar	0
170189	7	Sololá	712	San Antonio Palopó	9	San Antonio Palopo	5	Mayo	2023-10-05T00:00:00	2024-11-08T03:00:00	2	Temperatura media	19.7
170190	7	Sololá	712	San Antonio Palopó	9	San Antonio Palopo	5	Mayo	2023-10-05T00:00:00	2024-11-08T03:00:00	4	Temperatura máxima	19.9
170191	7	Sololá	712	San Antonio Palopó	9	San Antonio Palopo	5	Mayo	2023-10-05T00:00:00	2024-11-08T03:00:00	3	Temperatura mínima	19.6
170192	7	Sololá	712	San Antonio Palopó	9	San Antonio Palopo	5	Mayo	2023-10-05T00:00:00	2024-11-08T03:00:00	5	Humedad	82
170193	7	Sololá	712	San Antonio Palopó	9	San Antonio Palopo	5	Mayo	2023-10-05T00:00:00	2024-11-08T03:00:00	6	Velocidad del viento	1.6
170194	7	Sololá	712	San Antonio Palopó	9	San Antonio Palopo	5	Mayo	2023-10-05T00:00:00	2024-11-08T03:00:00	7	Dirección del viento	1.61
170195	7	Sololá	712	San Antonio Palopó	9	San Antonio Palopo	5	Mayo	2023-10-05T00:00:00	2024-11-08T03:00:00	1	Precipitación	0
170196	7	Sololá	712	San Antonio Palopó	9	San Antonio Palopo	5	Mayo	2023-10-05T00:00:00	2024-11-08T03:00:00	8	Radiación solar	0
170197	7	Sololá	712	San Antonio Palopó	9	San Antonio Palopo	5	Mayo	2023-10-05T00:00:00	2024-11-08T04:00:00	2	Temperatura media	19.2
170198	7	Sololá	712	San Antonio Palopó	9	San Antonio Palopo	5	Mayo	2023-10-05T00:00:00	2024-11-08T04:00:00	4	Temperatura máxima	19.8
170199	7	Sololá	712	San Antonio Palopó	9	San Antonio Palopo	5	Mayo	2023-10-05T00:00:00	2024-11-08T04:00:00	3	Temperatura mínima	19.2
170200	7	Sololá	712	San Antonio Palopó	9	San Antonio Palopo	5	Mayo	2023-10-05T00:00:00	2024-11-08T04:00:00	5	Humedad	81
170201	7	Sololá	712	San Antonio Palopó	9	San Antonio Palopo	5	Mayo	2023-10-05T00:00:00	2024-11-08T04:00:00	6	Velocidad del viento	3.2
170202	7	Sololá	712	San Antonio Palopó	9	San Antonio Palopo	5	Mayo	2023-10-05T00:00:00	2024-11-08T04:00:00	7	Dirección del viento	3.22
170203	7	Sololá	712	San Antonio Palopó	9	San Antonio Palopo	5	Mayo	2023-10-05T00:00:00	2024-11-08T04:00:00	1	Precipitación	0
170204	7	Sololá	712	San Antonio Palopó	9	San Antonio Palopo	5	Mayo	2023-10-05T00:00:00	2024-11-08T04:00:00	8	Radiación solar	0
170205	7	Sololá	712	San Antonio Palopó	9	San Antonio Palopo	5	Mayo	2023-10-05T00:00:00	2024-11-08T05:00:00	2	Temperatura media	19.4
170206	7	Sololá	712	San Antonio Palopó	9	San Antonio Palopo	5	Mayo	2023-10-05T00:00:00	2024-11-08T05:00:00	4	Temperatura máxima	19.8
170207	7	Sololá	712	San Antonio Palopó	9	San Antonio Palopo	5	Mayo	2023-10-05T00:00:00	2024-11-08T05:00:00	3	Temperatura mínima	19.1
170208	7	Sololá	712	San Antonio Palopó	9	San Antonio Palopo	5	Mayo	2023-10-05T00:00:00	2024-11-08T05:00:00	5	Humedad	79
170209	7	Sololá	712	San Antonio Palopó	9	San Antonio Palopo	5	Mayo	2023-10-05T00:00:00	2024-11-08T05:00:00	6	Velocidad del viento	3.2
170210	7	Sololá	712	San Antonio Palopó	9	San Antonio Palopo	5	Mayo	2023-10-05T00:00:00	2024-11-08T05:00:00	7	Dirección del viento	3.22
170211	7	Sololá	712	San Antonio Palopó	9	San Antonio Palopo	5	Mayo	2023-10-05T00:00:00	2024-11-08T05:00:00	1	Precipitación	0
170212	7	Sololá	712	San Antonio Palopó	9	San Antonio Palopo	5	Mayo	2023-10-05T00:00:00	2024-11-08T05:00:00	8	Radiación solar	0
170213	7	Sololá	712	San Antonio Palopó	9	San Antonio Palopo	5	Mayo	2023-10-05T00:00:00	2024-11-08T06:00:00	2	Temperatura media	18.9
170214	7	Sololá	712	San Antonio Palopó	9	San Antonio Palopo	5	Mayo	2023-10-05T00:00:00	2024-11-08T06:00:00	4	Temperatura máxima	19.4
170215	7	Sololá	712	San Antonio Palopó	9	San Antonio Palopo	5	Mayo	2023-10-05T00:00:00	2024-11-08T06:00:00	3	Temperatura mínima	18.8
170216	7	Sololá	712	San Antonio Palopó	9	San Antonio Palopo	5	Mayo	2023-10-05T00:00:00	2024-11-08T06:00:00	5	Humedad	81
170217	7	Sololá	712	San Antonio Palopó	9	San Antonio Palopo	5	Mayo	2023-10-05T00:00:00	2024-11-08T06:00:00	6	Velocidad del viento	3.2
170218	7	Sololá	712	San Antonio Palopó	9	San Antonio Palopo	5	Mayo	2023-10-05T00:00:00	2024-11-08T06:00:00	7	Dirección del viento	3.22
170219	7	Sololá	712	San Antonio Palopó	9	San Antonio Palopo	5	Mayo	2023-10-05T00:00:00	2024-11-08T06:00:00	1	Precipitación	0
170220	7	Sololá	712	San Antonio Palopó	9	San Antonio Palopo	5	Mayo	2023-10-05T00:00:00	2024-11-08T06:00:00	8	Radiación solar	3
170221	7	Sololá	712	San Antonio Palopó	9	San Antonio Palopo	5	Mayo	2023-10-05T00:00:00	2024-11-08T07:00:00	2	Temperatura media	20
170222	7	Sololá	712	San Antonio Palopó	9	San Antonio Palopo	5	Mayo	2023-10-05T00:00:00	2024-11-08T07:00:00	4	Temperatura máxima	20
170223	7	Sololá	712	San Antonio Palopó	9	San Antonio Palopo	5	Mayo	2023-10-05T00:00:00	2024-11-08T07:00:00	3	Temperatura mínima	18.8
170224	7	Sololá	712	San Antonio Palopó	9	San Antonio Palopo	5	Mayo	2023-10-05T00:00:00	2024-11-08T07:00:00	5	Humedad	81
170225	7	Sololá	712	San Antonio Palopó	9	San Antonio Palopo	5	Mayo	2023-10-05T00:00:00	2024-11-08T07:00:00	6	Velocidad del viento	1.6
170226	7	Sololá	712	San Antonio Palopó	9	San Antonio Palopo	5	Mayo	2023-10-05T00:00:00	2024-11-08T07:00:00	7	Dirección del viento	1.61
170227	7	Sololá	712	San Antonio Palopó	9	San Antonio Palopo	5	Mayo	2023-10-05T00:00:00	2024-11-08T07:00:00	1	Precipitación	0
170228	7	Sololá	712	San Antonio Palopó	9	San Antonio Palopo	5	Mayo	2023-10-05T00:00:00	2024-11-08T07:00:00	8	Radiación solar	44
170229	7	Sololá	712	San Antonio Palopó	9	San Antonio Palopo	5	Mayo	2023-10-05T00:00:00	2024-11-08T08:00:00	2	Temperatura media	20.7
170230	7	Sololá	712	San Antonio Palopó	9	San Antonio Palopo	5	Mayo	2023-10-05T00:00:00	2024-11-08T08:00:00	4	Temperatura máxima	20.7
170231	7	Sololá	712	San Antonio Palopó	9	San Antonio Palopo	5	Mayo	2023-10-05T00:00:00	2024-11-08T08:00:00	3	Temperatura mínima	20
170232	7	Sololá	712	San Antonio Palopó	9	San Antonio Palopo	5	Mayo	2023-10-05T00:00:00	2024-11-08T08:00:00	5	Humedad	82
170233	7	Sololá	712	San Antonio Palopó	9	San Antonio Palopo	5	Mayo	2023-10-05T00:00:00	2024-11-08T08:00:00	6	Velocidad del viento	1.6
170234	7	Sololá	712	San Antonio Palopó	9	San Antonio Palopo	5	Mayo	2023-10-05T00:00:00	2024-11-08T08:00:00	7	Dirección del viento	1.61
170235	7	Sololá	712	San Antonio Palopó	9	San Antonio Palopo	5	Mayo	2023-10-05T00:00:00	2024-11-08T08:00:00	1	Precipitación	0
170236	7	Sololá	712	San Antonio Palopó	9	San Antonio Palopo	5	Mayo	2023-10-05T00:00:00	2024-11-08T08:00:00	8	Radiación solar	130
170237	7	Sololá	712	San Antonio Palopó	9	San Antonio Palopo	5	Mayo	2023-10-05T00:00:00	2024-11-08T09:00:00	2	Temperatura media	21.6
170238	7	Sololá	712	San Antonio Palopó	9	San Antonio Palopo	5	Mayo	2023-10-05T00:00:00	2024-11-08T09:00:00	4	Temperatura máxima	21.6
170239	7	Sololá	712	San Antonio Palopó	9	San Antonio Palopo	5	Mayo	2023-10-05T00:00:00	2024-11-08T09:00:00	3	Temperatura mínima	20.7
170240	7	Sololá	712	San Antonio Palopó	9	San Antonio Palopo	5	Mayo	2023-10-05T00:00:00	2024-11-08T09:00:00	5	Humedad	77
170241	7	Sololá	712	San Antonio Palopó	9	San Antonio Palopo	5	Mayo	2023-10-05T00:00:00	2024-11-08T09:00:00	6	Velocidad del viento	3.2
170242	7	Sololá	712	San Antonio Palopó	9	San Antonio Palopo	5	Mayo	2023-10-05T00:00:00	2024-11-08T09:00:00	7	Dirección del viento	3.22
170243	7	Sololá	712	San Antonio Palopó	9	San Antonio Palopo	5	Mayo	2023-10-05T00:00:00	2024-11-08T09:00:00	1	Precipitación	0
170244	7	Sololá	712	San Antonio Palopó	9	San Antonio Palopo	5	Mayo	2023-10-05T00:00:00	2024-11-08T09:00:00	8	Radiación solar	385
170245	7	Sololá	712	San Antonio Palopó	9	San Antonio Palopo	5	Mayo	2023-10-05T00:00:00	2024-11-08T10:00:00	2	Temperatura media	22.8
170246	7	Sololá	712	San Antonio Palopó	9	San Antonio Palopo	5	Mayo	2023-10-05T00:00:00	2024-11-08T10:00:00	4	Temperatura máxima	22.8
170247	7	Sololá	712	San Antonio Palopó	9	San Antonio Palopo	5	Mayo	2023-10-05T00:00:00	2024-11-08T10:00:00	3	Temperatura mínima	21.6
170248	7	Sololá	712	San Antonio Palopó	9	San Antonio Palopo	5	Mayo	2023-10-05T00:00:00	2024-11-08T10:00:00	5	Humedad	73
170249	7	Sololá	712	San Antonio Palopó	9	San Antonio Palopo	5	Mayo	2023-10-05T00:00:00	2024-11-08T10:00:00	6	Velocidad del viento	3.2
170250	7	Sololá	712	San Antonio Palopó	9	San Antonio Palopo	5	Mayo	2023-10-05T00:00:00	2024-11-08T10:00:00	7	Dirección del viento	3.22
170251	7	Sololá	712	San Antonio Palopó	9	San Antonio Palopo	5	Mayo	2023-10-05T00:00:00	2024-11-08T10:00:00	1	Precipitación	0
170252	7	Sololá	712	San Antonio Palopó	9	San Antonio Palopo	5	Mayo	2023-10-05T00:00:00	2024-11-08T10:00:00	8	Radiación solar	686
170253	7	Sololá	712	San Antonio Palopó	9	San Antonio Palopo	5	Mayo	2023-10-05T00:00:00	2024-11-08T11:00:00	2	Temperatura media	24.1
170254	7	Sololá	712	San Antonio Palopó	9	San Antonio Palopo	5	Mayo	2023-10-05T00:00:00	2024-11-08T11:00:00	4	Temperatura máxima	24.1
170255	7	Sololá	712	San Antonio Palopó	9	San Antonio Palopo	5	Mayo	2023-10-05T00:00:00	2024-11-08T11:00:00	3	Temperatura mínima	22.7
170256	7	Sololá	712	San Antonio Palopó	9	San Antonio Palopo	5	Mayo	2023-10-05T00:00:00	2024-11-08T11:00:00	5	Humedad	72
170257	7	Sololá	712	San Antonio Palopó	9	San Antonio Palopo	5	Mayo	2023-10-05T00:00:00	2024-11-08T11:00:00	6	Velocidad del viento	4.8
170258	7	Sololá	712	San Antonio Palopó	9	San Antonio Palopo	5	Mayo	2023-10-05T00:00:00	2024-11-08T11:00:00	7	Dirección del viento	4.83
170259	7	Sololá	712	San Antonio Palopó	9	San Antonio Palopo	5	Mayo	2023-10-05T00:00:00	2024-11-08T11:00:00	1	Precipitación	0
170260	7	Sololá	712	San Antonio Palopó	9	San Antonio Palopo	5	Mayo	2023-10-05T00:00:00	2024-11-08T11:00:00	8	Radiación solar	842
170261	7	Sololá	712	San Antonio Palopó	9	San Antonio Palopo	5	Mayo	2023-10-05T00:00:00	2024-11-08T12:00:00	2	Temperatura media	23.7
170262	7	Sololá	712	San Antonio Palopó	9	San Antonio Palopo	5	Mayo	2023-10-05T00:00:00	2024-11-08T12:00:00	4	Temperatura máxima	24.3
170263	7	Sololá	712	San Antonio Palopó	9	San Antonio Palopo	5	Mayo	2023-10-05T00:00:00	2024-11-08T12:00:00	3	Temperatura mínima	23.6
170264	7	Sololá	712	San Antonio Palopó	9	San Antonio Palopo	5	Mayo	2023-10-05T00:00:00	2024-11-08T12:00:00	5	Humedad	71
170265	7	Sololá	712	San Antonio Palopó	9	San Antonio Palopo	5	Mayo	2023-10-05T00:00:00	2024-11-08T12:00:00	6	Velocidad del viento	11.3
170266	7	Sololá	712	San Antonio Palopó	9	San Antonio Palopo	5	Mayo	2023-10-05T00:00:00	2024-11-08T12:00:00	7	Dirección del viento	11.27
170267	7	Sololá	712	San Antonio Palopó	9	San Antonio Palopo	5	Mayo	2023-10-05T00:00:00	2024-11-08T12:00:00	1	Precipitación	0
170268	7	Sololá	712	San Antonio Palopó	9	San Antonio Palopo	5	Mayo	2023-10-05T00:00:00	2024-11-08T12:00:00	8	Radiación solar	913
170269	7	Sololá	712	San Antonio Palopó	9	San Antonio Palopo	5	Mayo	2023-10-05T00:00:00	2024-11-08T13:00:00	2	Temperatura media	23.8
170270	7	Sololá	712	San Antonio Palopó	9	San Antonio Palopo	5	Mayo	2023-10-05T00:00:00	2024-11-08T13:00:00	4	Temperatura máxima	24.2
170271	7	Sololá	712	San Antonio Palopó	9	San Antonio Palopo	5	Mayo	2023-10-05T00:00:00	2024-11-08T13:00:00	3	Temperatura mínima	23.6
170272	7	Sololá	712	San Antonio Palopó	9	San Antonio Palopo	5	Mayo	2023-10-05T00:00:00	2024-11-08T13:00:00	5	Humedad	70
170273	7	Sololá	712	San Antonio Palopó	9	San Antonio Palopo	5	Mayo	2023-10-05T00:00:00	2024-11-08T13:00:00	6	Velocidad del viento	11.3
170274	7	Sololá	712	San Antonio Palopó	9	San Antonio Palopo	5	Mayo	2023-10-05T00:00:00	2024-11-08T13:00:00	7	Dirección del viento	11.27
170275	7	Sololá	712	San Antonio Palopó	9	San Antonio Palopo	5	Mayo	2023-10-05T00:00:00	2024-11-08T13:00:00	1	Precipitación	0
170276	7	Sololá	712	San Antonio Palopó	9	San Antonio Palopo	5	Mayo	2023-10-05T00:00:00	2024-11-08T13:00:00	8	Radiación solar	745
170277	7	Sololá	712	San Antonio Palopó	9	San Antonio Palopo	5	Mayo	2023-10-05T00:00:00	2024-11-08T14:00:00	2	Temperatura media	23.3
170278	7	Sololá	712	San Antonio Palopó	9	San Antonio Palopo	5	Mayo	2023-10-05T00:00:00	2024-11-08T14:00:00	4	Temperatura máxima	24.6
170279	7	Sololá	712	San Antonio Palopó	9	San Antonio Palopo	5	Mayo	2023-10-05T00:00:00	2024-11-08T14:00:00	3	Temperatura mínima	23.2
170280	7	Sololá	712	San Antonio Palopó	9	San Antonio Palopo	5	Mayo	2023-10-05T00:00:00	2024-11-08T14:00:00	5	Humedad	73
170281	7	Sololá	712	San Antonio Palopó	9	San Antonio Palopo	5	Mayo	2023-10-05T00:00:00	2024-11-08T14:00:00	6	Velocidad del viento	11.3
170282	7	Sololá	712	San Antonio Palopó	9	San Antonio Palopo	5	Mayo	2023-10-05T00:00:00	2024-11-08T14:00:00	7	Dirección del viento	11.27
170283	7	Sololá	712	San Antonio Palopó	9	San Antonio Palopo	5	Mayo	2023-10-05T00:00:00	2024-11-08T14:00:00	1	Precipitación	0
170284	7	Sololá	712	San Antonio Palopó	9	San Antonio Palopo	5	Mayo	2023-10-05T00:00:00	2024-11-08T14:00:00	8	Radiación solar	548
170285	7	Sololá	712	San Antonio Palopó	9	San Antonio Palopo	5	Mayo	2023-10-05T00:00:00	2024-11-08T15:00:00	2	Temperatura media	22.3
170286	7	Sololá	712	San Antonio Palopó	9	San Antonio Palopo	5	Mayo	2023-10-05T00:00:00	2024-11-08T15:00:00	4	Temperatura máxima	23.4
170287	7	Sololá	712	San Antonio Palopó	9	San Antonio Palopo	5	Mayo	2023-10-05T00:00:00	2024-11-08T15:00:00	3	Temperatura mínima	22.3
170288	7	Sololá	712	San Antonio Palopó	9	San Antonio Palopo	5	Mayo	2023-10-05T00:00:00	2024-11-08T15:00:00	5	Humedad	81
170289	7	Sololá	712	San Antonio Palopó	9	San Antonio Palopo	5	Mayo	2023-10-05T00:00:00	2024-11-08T15:00:00	6	Velocidad del viento	6.4
170290	7	Sololá	712	San Antonio Palopó	9	San Antonio Palopo	5	Mayo	2023-10-05T00:00:00	2024-11-08T15:00:00	7	Dirección del viento	6.44
170291	7	Sololá	712	San Antonio Palopó	9	San Antonio Palopo	5	Mayo	2023-10-05T00:00:00	2024-11-08T15:00:00	1	Precipitación	0
170292	7	Sololá	712	San Antonio Palopó	9	San Antonio Palopo	5	Mayo	2023-10-05T00:00:00	2024-11-08T15:00:00	8	Radiación solar	192
170293	7	Sololá	712	San Antonio Palopó	9	San Antonio Palopo	5	Mayo	2023-10-05T00:00:00	2024-11-08T16:00:00	2	Temperatura media	22
170294	7	Sololá	712	San Antonio Palopó	9	San Antonio Palopo	5	Mayo	2023-10-05T00:00:00	2024-11-08T16:00:00	4	Temperatura máxima	22.3
170295	7	Sololá	712	San Antonio Palopó	9	San Antonio Palopo	5	Mayo	2023-10-05T00:00:00	2024-11-08T16:00:00	3	Temperatura mínima	21.9
170296	7	Sololá	712	San Antonio Palopó	9	San Antonio Palopo	5	Mayo	2023-10-05T00:00:00	2024-11-08T16:00:00	5	Humedad	79
170297	7	Sololá	712	San Antonio Palopó	9	San Antonio Palopo	5	Mayo	2023-10-05T00:00:00	2024-11-08T16:00:00	6	Velocidad del viento	1.6
170298	7	Sololá	712	San Antonio Palopó	9	San Antonio Palopo	5	Mayo	2023-10-05T00:00:00	2024-11-08T16:00:00	7	Dirección del viento	1.61
170299	7	Sololá	712	San Antonio Palopó	9	San Antonio Palopo	5	Mayo	2023-10-05T00:00:00	2024-11-08T16:00:00	1	Precipitación	0
170300	7	Sololá	712	San Antonio Palopó	9	San Antonio Palopo	5	Mayo	2023-10-05T00:00:00	2024-11-08T16:00:00	8	Radiación solar	42
170301	7	Sololá	712	San Antonio Palopó	9	San Antonio Palopo	5	Mayo	2023-10-05T00:00:00	2024-11-08T17:00:00	2	Temperatura media	21.6
170302	7	Sololá	712	San Antonio Palopó	9	San Antonio Palopo	5	Mayo	2023-10-05T00:00:00	2024-11-08T17:00:00	4	Temperatura máxima	22.1
170303	7	Sololá	712	San Antonio Palopó	9	San Antonio Palopo	5	Mayo	2023-10-05T00:00:00	2024-11-08T17:00:00	3	Temperatura mínima	21.3
170304	7	Sololá	712	San Antonio Palopó	9	San Antonio Palopo	5	Mayo	2023-10-05T00:00:00	2024-11-08T17:00:00	5	Humedad	77
170305	7	Sololá	712	San Antonio Palopó	9	San Antonio Palopo	5	Mayo	2023-10-05T00:00:00	2024-11-08T17:00:00	6	Velocidad del viento	6.4
170306	7	Sololá	712	San Antonio Palopó	9	San Antonio Palopo	5	Mayo	2023-10-05T00:00:00	2024-11-08T17:00:00	7	Dirección del viento	6.44
170307	7	Sololá	712	San Antonio Palopó	9	San Antonio Palopo	5	Mayo	2023-10-05T00:00:00	2024-11-08T17:00:00	1	Precipitación	0
170308	7	Sololá	712	San Antonio Palopó	9	San Antonio Palopo	5	Mayo	2023-10-05T00:00:00	2024-11-08T17:00:00	8	Radiación solar	41
170309	7	Sololá	712	San Antonio Palopó	9	San Antonio Palopo	5	Mayo	2023-10-05T00:00:00	2024-11-08T18:00:00	2	Temperatura media	20.9
170310	7	Sololá	712	San Antonio Palopó	9	San Antonio Palopo	5	Mayo	2023-10-05T00:00:00	2024-11-08T18:00:00	4	Temperatura máxima	21.7
170311	7	Sololá	712	San Antonio Palopó	9	San Antonio Palopo	5	Mayo	2023-10-05T00:00:00	2024-11-08T18:00:00	3	Temperatura mínima	20.7
170312	7	Sololá	712	San Antonio Palopó	9	San Antonio Palopo	5	Mayo	2023-10-05T00:00:00	2024-11-08T18:00:00	5	Humedad	82
170313	7	Sololá	712	San Antonio Palopó	9	San Antonio Palopo	5	Mayo	2023-10-05T00:00:00	2024-11-08T18:00:00	6	Velocidad del viento	3.2
170314	7	Sololá	712	San Antonio Palopó	9	San Antonio Palopo	5	Mayo	2023-10-05T00:00:00	2024-11-08T18:00:00	7	Dirección del viento	3.22
170315	7	Sololá	712	San Antonio Palopó	9	San Antonio Palopo	5	Mayo	2023-10-05T00:00:00	2024-11-08T18:00:00	1	Precipitación	0
170316	7	Sololá	712	San Antonio Palopó	9	San Antonio Palopo	5	Mayo	2023-10-05T00:00:00	2024-11-08T18:00:00	8	Radiación solar	22
170317	7	Sololá	712	San Antonio Palopó	9	San Antonio Palopo	5	Mayo	2023-10-05T00:00:00	2024-11-08T19:00:00	2	Temperatura media	20.4
170318	7	Sololá	712	San Antonio Palopó	9	San Antonio Palopo	5	Mayo	2023-10-05T00:00:00	2024-11-08T19:00:00	4	Temperatura máxima	20.9
170319	7	Sololá	712	San Antonio Palopó	9	San Antonio Palopo	5	Mayo	2023-10-05T00:00:00	2024-11-08T19:00:00	3	Temperatura mínima	20.3
170320	7	Sololá	712	San Antonio Palopó	9	San Antonio Palopo	5	Mayo	2023-10-05T00:00:00	2024-11-08T19:00:00	5	Humedad	76
170321	7	Sololá	712	San Antonio Palopó	9	San Antonio Palopo	5	Mayo	2023-10-05T00:00:00	2024-11-08T19:00:00	6	Velocidad del viento	4.8
170322	7	Sololá	712	San Antonio Palopó	9	San Antonio Palopo	5	Mayo	2023-10-05T00:00:00	2024-11-08T19:00:00	7	Dirección del viento	4.83
170323	7	Sololá	712	San Antonio Palopó	9	San Antonio Palopo	5	Mayo	2023-10-05T00:00:00	2024-11-08T19:00:00	1	Precipitación	0
170324	7	Sololá	712	San Antonio Palopó	9	San Antonio Palopo	5	Mayo	2023-10-05T00:00:00	2024-11-08T19:00:00	8	Radiación solar	0
170325	7	Sololá	712	San Antonio Palopó	9	San Antonio Palopo	5	Mayo	2023-10-05T00:00:00	2024-11-08T20:00:00	2	Temperatura media	16.7
170326	7	Sololá	712	San Antonio Palopó	9	San Antonio Palopo	5	Mayo	2023-10-05T00:00:00	2024-11-08T20:00:00	4	Temperatura máxima	20.4
170327	7	Sololá	712	San Antonio Palopó	9	San Antonio Palopo	5	Mayo	2023-10-05T00:00:00	2024-11-08T20:00:00	3	Temperatura mínima	16.4
170328	7	Sololá	712	San Antonio Palopó	9	San Antonio Palopo	5	Mayo	2023-10-05T00:00:00	2024-11-08T20:00:00	5	Humedad	86
170329	7	Sololá	712	San Antonio Palopó	9	San Antonio Palopo	5	Mayo	2023-10-05T00:00:00	2024-11-08T20:00:00	6	Velocidad del viento	9.7
170330	7	Sololá	712	San Antonio Palopó	9	San Antonio Palopo	5	Mayo	2023-10-05T00:00:00	2024-11-08T20:00:00	7	Dirección del viento	9.66
170331	7	Sololá	712	San Antonio Palopó	9	San Antonio Palopo	5	Mayo	2023-10-05T00:00:00	2024-11-08T20:00:00	1	Precipitación	12.6
170332	7	Sololá	712	San Antonio Palopó	9	San Antonio Palopo	5	Mayo	2023-10-05T00:00:00	2024-11-08T20:00:00	8	Radiación solar	0
170333	7	Sololá	712	San Antonio Palopó	9	San Antonio Palopo	5	Mayo	2023-10-05T00:00:00	2024-11-08T21:00:00	2	Temperatura media	16.5
170334	7	Sololá	712	San Antonio Palopó	9	San Antonio Palopo	5	Mayo	2023-10-05T00:00:00	2024-11-08T21:00:00	4	Temperatura máxima	16.7
170335	7	Sololá	712	San Antonio Palopó	9	San Antonio Palopo	5	Mayo	2023-10-05T00:00:00	2024-11-08T21:00:00	3	Temperatura mínima	16.4
170336	7	Sololá	712	San Antonio Palopó	9	San Antonio Palopo	5	Mayo	2023-10-05T00:00:00	2024-11-08T21:00:00	5	Humedad	89
170337	7	Sololá	712	San Antonio Palopó	9	San Antonio Palopo	5	Mayo	2023-10-05T00:00:00	2024-11-08T21:00:00	6	Velocidad del viento	3.2
170338	7	Sololá	712	San Antonio Palopó	9	San Antonio Palopo	5	Mayo	2023-10-05T00:00:00	2024-11-08T21:00:00	7	Dirección del viento	3.22
170339	7	Sololá	712	San Antonio Palopó	9	San Antonio Palopo	5	Mayo	2023-10-05T00:00:00	2024-11-08T21:00:00	1	Precipitación	2.4
170340	7	Sololá	712	San Antonio Palopó	9	San Antonio Palopo	5	Mayo	2023-10-05T00:00:00	2024-11-08T21:00:00	8	Radiación solar	0
170341	7	Sololá	712	San Antonio Palopó	9	San Antonio Palopo	5	Mayo	2023-10-05T00:00:00	2024-11-08T22:00:00	2	Temperatura media	16.7
170342	7	Sololá	712	San Antonio Palopó	9	San Antonio Palopo	5	Mayo	2023-10-05T00:00:00	2024-11-08T22:00:00	4	Temperatura máxima	16.7
170343	7	Sololá	712	San Antonio Palopó	9	San Antonio Palopo	5	Mayo	2023-10-05T00:00:00	2024-11-08T22:00:00	3	Temperatura mínima	16.4
170344	7	Sololá	712	San Antonio Palopó	9	San Antonio Palopo	5	Mayo	2023-10-05T00:00:00	2024-11-08T22:00:00	5	Humedad	85
170345	7	Sololá	712	San Antonio Palopó	9	San Antonio Palopo	5	Mayo	2023-10-05T00:00:00	2024-11-08T22:00:00	6	Velocidad del viento	1.6
170346	7	Sololá	712	San Antonio Palopó	9	San Antonio Palopo	5	Mayo	2023-10-05T00:00:00	2024-11-08T22:00:00	7	Dirección del viento	1.61
170347	7	Sololá	712	San Antonio Palopó	9	San Antonio Palopo	5	Mayo	2023-10-05T00:00:00	2024-11-08T22:00:00	1	Precipitación	0.2
170348	7	Sololá	712	San Antonio Palopó	9	San Antonio Palopo	5	Mayo	2023-10-05T00:00:00	2024-11-08T22:00:00	8	Radiación solar	0
170349	7	Sololá	712	San Antonio Palopó	9	San Antonio Palopo	5	Mayo	2023-10-05T00:00:00	2024-11-08T23:00:00	2	Temperatura media	15.7
170350	7	Sololá	712	San Antonio Palopó	9	San Antonio Palopo	5	Mayo	2023-10-05T00:00:00	2024-11-08T23:00:00	4	Temperatura máxima	16.7
170351	7	Sololá	712	San Antonio Palopó	9	San Antonio Palopo	5	Mayo	2023-10-05T00:00:00	2024-11-08T23:00:00	3	Temperatura mínima	15.7
170352	7	Sololá	712	San Antonio Palopó	9	San Antonio Palopo	5	Mayo	2023-10-05T00:00:00	2024-11-08T23:00:00	5	Humedad	88
170353	7	Sololá	712	San Antonio Palopó	9	San Antonio Palopo	5	Mayo	2023-10-05T00:00:00	2024-11-08T23:00:00	6	Velocidad del viento	3.2
170354	7	Sololá	712	San Antonio Palopó	9	San Antonio Palopo	5	Mayo	2023-10-05T00:00:00	2024-11-08T23:00:00	7	Dirección del viento	3.22
170355	7	Sololá	712	San Antonio Palopó	9	San Antonio Palopo	5	Mayo	2023-10-05T00:00:00	2024-11-08T23:00:00	1	Precipitación	0
170356	7	Sololá	712	San Antonio Palopó	9	San Antonio Palopo	5	Mayo	2023-10-05T00:00:00	2024-11-08T23:00:00	8	Radiación solar	0
170357	7	Sololá	712	San Antonio Palopó	9	San Antonio Palopo	5	Mayo	2023-11-05T00:00:00	2024-11-08T00:00:00	2	Temperatura media	17.2
170358	7	Sololá	712	San Antonio Palopó	9	San Antonio Palopo	5	Mayo	2023-11-05T00:00:00	2024-11-08T00:00:00	4	Temperatura máxima	17.4
170359	7	Sololá	712	San Antonio Palopó	9	San Antonio Palopo	5	Mayo	2023-11-05T00:00:00	2024-11-08T00:00:00	3	Temperatura mínima	15.6
170360	7	Sololá	712	San Antonio Palopó	9	San Antonio Palopo	5	Mayo	2023-11-05T00:00:00	2024-11-08T00:00:00	5	Humedad	81
170361	7	Sololá	712	San Antonio Palopó	9	San Antonio Palopo	5	Mayo	2023-11-05T00:00:00	2024-11-08T00:00:00	6	Velocidad del viento	4.8
170362	7	Sololá	712	San Antonio Palopó	9	San Antonio Palopo	5	Mayo	2023-11-05T00:00:00	2024-11-08T00:00:00	7	Dirección del viento	4.83
170363	7	Sololá	712	San Antonio Palopó	9	San Antonio Palopo	5	Mayo	2023-11-05T00:00:00	2024-11-08T00:00:00	1	Precipitación	0
170364	7	Sololá	712	San Antonio Palopó	9	San Antonio Palopo	5	Mayo	2023-11-05T00:00:00	2024-11-08T00:00:00	8	Radiación solar	0
170365	7	Sololá	712	San Antonio Palopó	9	San Antonio Palopo	5	Mayo	2023-11-05T00:00:00	2024-11-08T01:00:00	2	Temperatura media	17.1
170366	7	Sololá	712	San Antonio Palopó	9	San Antonio Palopo	5	Mayo	2023-11-05T00:00:00	2024-11-08T01:00:00	4	Temperatura máxima	17.2
170367	7	Sololá	712	San Antonio Palopó	9	San Antonio Palopo	5	Mayo	2023-11-05T00:00:00	2024-11-08T01:00:00	3	Temperatura mínima	16.9
170368	7	Sololá	712	San Antonio Palopó	9	San Antonio Palopo	5	Mayo	2023-11-05T00:00:00	2024-11-08T01:00:00	5	Humedad	79
170369	7	Sololá	712	San Antonio Palopó	9	San Antonio Palopo	5	Mayo	2023-11-05T00:00:00	2024-11-08T01:00:00	6	Velocidad del viento	4.8
170370	7	Sololá	712	San Antonio Palopó	9	San Antonio Palopo	5	Mayo	2023-11-05T00:00:00	2024-11-08T01:00:00	7	Dirección del viento	4.83
170371	7	Sololá	712	San Antonio Palopó	9	San Antonio Palopo	5	Mayo	2023-11-05T00:00:00	2024-11-08T01:00:00	1	Precipitación	0
170372	7	Sololá	712	San Antonio Palopó	9	San Antonio Palopo	5	Mayo	2023-11-05T00:00:00	2024-11-08T01:00:00	8	Radiación solar	0
170373	7	Sololá	712	San Antonio Palopó	9	San Antonio Palopo	5	Mayo	2023-11-05T00:00:00	2024-11-08T02:00:00	2	Temperatura media	16.3
170374	7	Sololá	712	San Antonio Palopó	9	San Antonio Palopo	5	Mayo	2023-11-05T00:00:00	2024-11-08T02:00:00	4	Temperatura máxima	17.1
170375	7	Sololá	712	San Antonio Palopó	9	San Antonio Palopo	5	Mayo	2023-11-05T00:00:00	2024-11-08T02:00:00	3	Temperatura mínima	16.3
170376	7	Sololá	712	San Antonio Palopó	9	San Antonio Palopo	5	Mayo	2023-11-05T00:00:00	2024-11-08T02:00:00	5	Humedad	82
170377	7	Sololá	712	San Antonio Palopó	9	San Antonio Palopo	5	Mayo	2023-11-05T00:00:00	2024-11-08T02:00:00	6	Velocidad del viento	3.2
170378	7	Sololá	712	San Antonio Palopó	9	San Antonio Palopo	5	Mayo	2023-11-05T00:00:00	2024-11-08T02:00:00	7	Dirección del viento	3.22
170379	7	Sololá	712	San Antonio Palopó	9	San Antonio Palopo	5	Mayo	2023-11-05T00:00:00	2024-11-08T02:00:00	1	Precipitación	0
170380	7	Sololá	712	San Antonio Palopó	9	San Antonio Palopo	5	Mayo	2023-11-05T00:00:00	2024-11-08T02:00:00	8	Radiación solar	0
170381	7	Sololá	712	San Antonio Palopó	9	San Antonio Palopo	5	Mayo	2023-11-05T00:00:00	2024-11-08T03:00:00	2	Temperatura media	16.7
170382	7	Sololá	712	San Antonio Palopó	9	San Antonio Palopo	5	Mayo	2023-11-05T00:00:00	2024-11-08T03:00:00	4	Temperatura máxima	17
170383	7	Sololá	712	San Antonio Palopó	9	San Antonio Palopo	5	Mayo	2023-11-05T00:00:00	2024-11-08T03:00:00	3	Temperatura mínima	16
170384	7	Sololá	712	San Antonio Palopó	9	San Antonio Palopo	5	Mayo	2023-11-05T00:00:00	2024-11-08T03:00:00	5	Humedad	82
170385	7	Sololá	712	San Antonio Palopó	9	San Antonio Palopo	5	Mayo	2023-11-05T00:00:00	2024-11-08T03:00:00	6	Velocidad del viento	4.8
170386	7	Sololá	712	San Antonio Palopó	9	San Antonio Palopo	5	Mayo	2023-11-05T00:00:00	2024-11-08T03:00:00	7	Dirección del viento	4.83
170387	7	Sololá	712	San Antonio Palopó	9	San Antonio Palopo	5	Mayo	2023-11-05T00:00:00	2024-11-08T03:00:00	1	Precipitación	0
170388	7	Sololá	712	San Antonio Palopó	9	San Antonio Palopo	5	Mayo	2023-11-05T00:00:00	2024-11-08T03:00:00	8	Radiación solar	0
170389	7	Sololá	712	San Antonio Palopó	9	San Antonio Palopo	5	Mayo	2023-11-05T00:00:00	2024-11-08T04:00:00	2	Temperatura media	16.1
170390	7	Sololá	712	San Antonio Palopó	9	San Antonio Palopo	5	Mayo	2023-11-05T00:00:00	2024-11-08T04:00:00	4	Temperatura máxima	16.7
170391	7	Sololá	712	San Antonio Palopó	9	San Antonio Palopo	5	Mayo	2023-11-05T00:00:00	2024-11-08T04:00:00	3	Temperatura mínima	16
170392	7	Sololá	712	San Antonio Palopó	9	San Antonio Palopo	5	Mayo	2023-11-05T00:00:00	2024-11-08T04:00:00	5	Humedad	85
170393	7	Sololá	712	San Antonio Palopó	9	San Antonio Palopo	5	Mayo	2023-11-05T00:00:00	2024-11-08T04:00:00	6	Velocidad del viento	4.8
170394	7	Sololá	712	San Antonio Palopó	9	San Antonio Palopo	5	Mayo	2023-11-05T00:00:00	2024-11-08T04:00:00	7	Dirección del viento	4.83
170395	7	Sololá	712	San Antonio Palopó	9	San Antonio Palopo	5	Mayo	2023-11-05T00:00:00	2024-11-08T04:00:00	1	Precipitación	0
170396	7	Sololá	712	San Antonio Palopó	9	San Antonio Palopo	5	Mayo	2023-11-05T00:00:00	2024-11-08T04:00:00	8	Radiación solar	0
170397	7	Sololá	712	San Antonio Palopó	9	San Antonio Palopo	5	Mayo	2023-11-05T00:00:00	2024-11-08T05:00:00	2	Temperatura media	16.1
170398	7	Sololá	712	San Antonio Palopó	9	San Antonio Palopo	5	Mayo	2023-11-05T00:00:00	2024-11-08T05:00:00	4	Temperatura máxima	17
170399	7	Sololá	712	San Antonio Palopó	9	San Antonio Palopo	5	Mayo	2023-11-05T00:00:00	2024-11-08T05:00:00	3	Temperatura mínima	16.1
170400	7	Sololá	712	San Antonio Palopó	9	San Antonio Palopo	5	Mayo	2023-11-05T00:00:00	2024-11-08T05:00:00	5	Humedad	82
170401	7	Sololá	712	San Antonio Palopó	9	San Antonio Palopo	5	Mayo	2023-11-05T00:00:00	2024-11-08T05:00:00	6	Velocidad del viento	4.8
170402	7	Sololá	712	San Antonio Palopó	9	San Antonio Palopo	5	Mayo	2023-11-05T00:00:00	2024-11-08T05:00:00	7	Dirección del viento	4.83
170403	7	Sololá	712	San Antonio Palopó	9	San Antonio Palopo	5	Mayo	2023-11-05T00:00:00	2024-11-08T05:00:00	1	Precipitación	0
170404	7	Sololá	712	San Antonio Palopó	9	San Antonio Palopo	5	Mayo	2023-11-05T00:00:00	2024-11-08T05:00:00	8	Radiación solar	0
170405	7	Sololá	712	San Antonio Palopó	9	San Antonio Palopo	5	Mayo	2023-11-05T00:00:00	2024-11-08T06:00:00	2	Temperatura media	15.8
170406	7	Sololá	712	San Antonio Palopó	9	San Antonio Palopo	5	Mayo	2023-11-05T00:00:00	2024-11-08T06:00:00	4	Temperatura máxima	16.1
170407	7	Sololá	712	San Antonio Palopó	9	San Antonio Palopo	5	Mayo	2023-11-05T00:00:00	2024-11-08T06:00:00	3	Temperatura mínima	15.7
170408	7	Sololá	712	San Antonio Palopó	9	San Antonio Palopo	5	Mayo	2023-11-05T00:00:00	2024-11-08T06:00:00	5	Humedad	83
170409	7	Sololá	712	San Antonio Palopó	9	San Antonio Palopo	5	Mayo	2023-11-05T00:00:00	2024-11-08T06:00:00	6	Velocidad del viento	4.8
170410	7	Sololá	712	San Antonio Palopó	9	San Antonio Palopo	5	Mayo	2023-11-05T00:00:00	2024-11-08T06:00:00	7	Dirección del viento	4.83
170411	7	Sololá	712	San Antonio Palopó	9	San Antonio Palopo	5	Mayo	2023-11-05T00:00:00	2024-11-08T06:00:00	1	Precipitación	0
170412	7	Sololá	712	San Antonio Palopó	9	San Antonio Palopo	5	Mayo	2023-11-05T00:00:00	2024-11-08T06:00:00	8	Radiación solar	3
170413	7	Sololá	712	San Antonio Palopó	9	San Antonio Palopo	5	Mayo	2023-11-05T00:00:00	2024-11-08T07:00:00	2	Temperatura media	17
170414	7	Sololá	712	San Antonio Palopó	9	San Antonio Palopo	5	Mayo	2023-11-05T00:00:00	2024-11-08T07:00:00	4	Temperatura máxima	17
170415	7	Sololá	712	San Antonio Palopó	9	San Antonio Palopo	5	Mayo	2023-11-05T00:00:00	2024-11-08T07:00:00	3	Temperatura mínima	15.8
170416	7	Sololá	712	San Antonio Palopó	9	San Antonio Palopo	5	Mayo	2023-11-05T00:00:00	2024-11-08T07:00:00	5	Humedad	83
170417	7	Sololá	712	San Antonio Palopó	9	San Antonio Palopo	5	Mayo	2023-11-05T00:00:00	2024-11-08T07:00:00	6	Velocidad del viento	3.2
170418	7	Sololá	712	San Antonio Palopó	9	San Antonio Palopo	5	Mayo	2023-11-05T00:00:00	2024-11-08T07:00:00	7	Dirección del viento	3.22
170419	7	Sololá	712	San Antonio Palopó	9	San Antonio Palopo	5	Mayo	2023-11-05T00:00:00	2024-11-08T07:00:00	1	Precipitación	0
170420	7	Sololá	712	San Antonio Palopó	9	San Antonio Palopo	5	Mayo	2023-11-05T00:00:00	2024-11-08T07:00:00	8	Radiación solar	59
170421	7	Sololá	712	San Antonio Palopó	9	San Antonio Palopo	5	Mayo	2023-11-05T00:00:00	2024-11-08T08:00:00	2	Temperatura media	19.4
170422	7	Sololá	712	San Antonio Palopó	9	San Antonio Palopo	5	Mayo	2023-11-05T00:00:00	2024-11-08T08:00:00	4	Temperatura máxima	19.4
170423	7	Sololá	712	San Antonio Palopó	9	San Antonio Palopo	5	Mayo	2023-11-05T00:00:00	2024-11-08T08:00:00	3	Temperatura mínima	17
170424	7	Sololá	712	San Antonio Palopó	9	San Antonio Palopo	5	Mayo	2023-11-05T00:00:00	2024-11-08T08:00:00	5	Humedad	77
170425	7	Sololá	712	San Antonio Palopó	9	San Antonio Palopo	5	Mayo	2023-11-05T00:00:00	2024-11-08T08:00:00	6	Velocidad del viento	1.6
170426	7	Sololá	712	San Antonio Palopó	9	San Antonio Palopo	5	Mayo	2023-11-05T00:00:00	2024-11-08T08:00:00	7	Dirección del viento	1.61
170427	7	Sololá	712	San Antonio Palopó	9	San Antonio Palopo	5	Mayo	2023-11-05T00:00:00	2024-11-08T08:00:00	1	Precipitación	0
170428	7	Sololá	712	San Antonio Palopó	9	San Antonio Palopo	5	Mayo	2023-11-05T00:00:00	2024-11-08T08:00:00	8	Radiación solar	202
170429	7	Sololá	712	San Antonio Palopó	9	San Antonio Palopo	5	Mayo	2023-11-05T00:00:00	2024-11-08T09:00:00	2	Temperatura media	19.4
170430	7	Sololá	712	San Antonio Palopó	9	San Antonio Palopo	5	Mayo	2023-11-05T00:00:00	2024-11-08T09:00:00	4	Temperatura máxima	19.8
170431	7	Sololá	712	San Antonio Palopó	9	San Antonio Palopo	5	Mayo	2023-11-05T00:00:00	2024-11-08T09:00:00	3	Temperatura mínima	19.1
170432	7	Sololá	712	San Antonio Palopó	9	San Antonio Palopo	5	Mayo	2023-11-05T00:00:00	2024-11-08T09:00:00	5	Humedad	77
170433	7	Sololá	712	San Antonio Palopó	9	San Antonio Palopo	5	Mayo	2023-11-05T00:00:00	2024-11-08T09:00:00	6	Velocidad del viento	1.6
170434	7	Sololá	712	San Antonio Palopó	9	San Antonio Palopo	5	Mayo	2023-11-05T00:00:00	2024-11-08T09:00:00	7	Dirección del viento	1.61
170435	7	Sololá	712	San Antonio Palopó	9	San Antonio Palopo	5	Mayo	2023-11-05T00:00:00	2024-11-08T09:00:00	1	Precipitación	0
170436	7	Sololá	712	San Antonio Palopó	9	San Antonio Palopo	5	Mayo	2023-11-05T00:00:00	2024-11-08T09:00:00	8	Radiación solar	409
170437	7	Sololá	712	San Antonio Palopó	9	San Antonio Palopo	5	Mayo	2023-11-05T00:00:00	2024-11-08T10:00:00	2	Temperatura media	20.8
170438	7	Sololá	712	San Antonio Palopó	9	San Antonio Palopo	5	Mayo	2023-11-05T00:00:00	2024-11-08T10:00:00	4	Temperatura máxima	20.8
170439	7	Sololá	712	San Antonio Palopó	9	San Antonio Palopo	5	Mayo	2023-11-05T00:00:00	2024-11-08T10:00:00	3	Temperatura mínima	19.4
170440	7	Sololá	712	San Antonio Palopó	9	San Antonio Palopo	5	Mayo	2023-11-05T00:00:00	2024-11-08T10:00:00	5	Humedad	78
170441	7	Sololá	712	San Antonio Palopó	9	San Antonio Palopo	5	Mayo	2023-11-05T00:00:00	2024-11-08T10:00:00	6	Velocidad del viento	3.2
170442	7	Sololá	712	San Antonio Palopó	9	San Antonio Palopo	5	Mayo	2023-11-05T00:00:00	2024-11-08T10:00:00	7	Dirección del viento	3.22
170443	7	Sololá	712	San Antonio Palopó	9	San Antonio Palopo	5	Mayo	2023-11-05T00:00:00	2024-11-08T10:00:00	1	Precipitación	0
170444	7	Sololá	712	San Antonio Palopó	9	San Antonio Palopo	5	Mayo	2023-11-05T00:00:00	2024-11-08T10:00:00	8	Radiación solar	672
170445	7	Sololá	712	San Antonio Palopó	9	San Antonio Palopo	5	Mayo	2023-11-05T00:00:00	2024-11-08T11:00:00	2	Temperatura media	22.4
170446	7	Sololá	712	San Antonio Palopó	9	San Antonio Palopo	5	Mayo	2023-11-05T00:00:00	2024-11-08T11:00:00	4	Temperatura máxima	22.5
170447	7	Sololá	712	San Antonio Palopó	9	San Antonio Palopo	5	Mayo	2023-11-05T00:00:00	2024-11-08T11:00:00	3	Temperatura mínima	20.8
170448	7	Sololá	712	San Antonio Palopó	9	San Antonio Palopo	5	Mayo	2023-11-05T00:00:00	2024-11-08T11:00:00	5	Humedad	70
170449	7	Sololá	712	San Antonio Palopó	9	San Antonio Palopo	5	Mayo	2023-11-05T00:00:00	2024-11-08T11:00:00	6	Velocidad del viento	3.2
170450	7	Sololá	712	San Antonio Palopó	9	San Antonio Palopo	5	Mayo	2023-11-05T00:00:00	2024-11-08T11:00:00	7	Dirección del viento	3.22
170451	7	Sololá	712	San Antonio Palopó	9	San Antonio Palopo	5	Mayo	2023-11-05T00:00:00	2024-11-08T11:00:00	1	Precipitación	0
170452	7	Sololá	712	San Antonio Palopó	9	San Antonio Palopo	5	Mayo	2023-11-05T00:00:00	2024-11-08T11:00:00	8	Radiación solar	823
170453	7	Sololá	712	San Antonio Palopó	9	San Antonio Palopo	5	Mayo	2023-11-05T00:00:00	2024-11-08T12:00:00	2	Temperatura media	23.9
170454	7	Sololá	712	San Antonio Palopó	9	San Antonio Palopo	5	Mayo	2023-11-05T00:00:00	2024-11-08T12:00:00	4	Temperatura máxima	24.1
170455	7	Sololá	712	San Antonio Palopó	9	San Antonio Palopo	5	Mayo	2023-11-05T00:00:00	2024-11-08T12:00:00	3	Temperatura mínima	22.4
170456	7	Sololá	712	San Antonio Palopó	9	San Antonio Palopo	5	Mayo	2023-11-05T00:00:00	2024-11-08T12:00:00	5	Humedad	63
170457	7	Sololá	712	San Antonio Palopó	9	San Antonio Palopo	5	Mayo	2023-11-05T00:00:00	2024-11-08T12:00:00	6	Velocidad del viento	6.4
170458	7	Sololá	712	San Antonio Palopó	9	San Antonio Palopo	5	Mayo	2023-11-05T00:00:00	2024-11-08T12:00:00	7	Dirección del viento	6.44
170459	7	Sololá	712	San Antonio Palopó	9	San Antonio Palopo	5	Mayo	2023-11-05T00:00:00	2024-11-08T12:00:00	1	Precipitación	0
170460	7	Sololá	712	San Antonio Palopó	9	San Antonio Palopo	5	Mayo	2023-11-05T00:00:00	2024-11-08T12:00:00	8	Radiación solar	923
170461	7	Sololá	712	San Antonio Palopó	9	San Antonio Palopo	5	Mayo	2023-11-05T00:00:00	2024-11-08T13:00:00	2	Temperatura media	24.4
170462	7	Sololá	712	San Antonio Palopó	9	San Antonio Palopo	5	Mayo	2023-11-05T00:00:00	2024-11-08T13:00:00	4	Temperatura máxima	24.8
170463	7	Sololá	712	San Antonio Palopó	9	San Antonio Palopo	5	Mayo	2023-11-05T00:00:00	2024-11-08T13:00:00	3	Temperatura mínima	23.9
170464	7	Sololá	712	San Antonio Palopó	9	San Antonio Palopo	5	Mayo	2023-11-05T00:00:00	2024-11-08T13:00:00	5	Humedad	69
170465	7	Sololá	712	San Antonio Palopó	9	San Antonio Palopo	5	Mayo	2023-11-05T00:00:00	2024-11-08T13:00:00	6	Velocidad del viento	8
170466	7	Sololá	712	San Antonio Palopó	9	San Antonio Palopo	5	Mayo	2023-11-05T00:00:00	2024-11-08T13:00:00	7	Dirección del viento	8.05
170467	7	Sololá	712	San Antonio Palopó	9	San Antonio Palopo	5	Mayo	2023-11-05T00:00:00	2024-11-08T13:00:00	1	Precipitación	0
170468	7	Sololá	712	San Antonio Palopó	9	San Antonio Palopo	5	Mayo	2023-11-05T00:00:00	2024-11-08T13:00:00	8	Radiación solar	913
170469	7	Sololá	712	San Antonio Palopó	9	San Antonio Palopo	5	Mayo	2023-11-05T00:00:00	2024-11-08T14:00:00	2	Temperatura media	23.2
170470	7	Sololá	712	San Antonio Palopó	9	San Antonio Palopo	5	Mayo	2023-11-05T00:00:00	2024-11-08T14:00:00	4	Temperatura máxima	24.4
170471	7	Sololá	712	San Antonio Palopó	9	San Antonio Palopo	5	Mayo	2023-11-05T00:00:00	2024-11-08T14:00:00	3	Temperatura mínima	22.8
170472	7	Sololá	712	San Antonio Palopó	9	San Antonio Palopo	5	Mayo	2023-11-05T00:00:00	2024-11-08T14:00:00	5	Humedad	72
170473	7	Sololá	712	San Antonio Palopó	9	San Antonio Palopo	5	Mayo	2023-11-05T00:00:00	2024-11-08T14:00:00	6	Velocidad del viento	8
170474	7	Sololá	712	San Antonio Palopó	9	San Antonio Palopo	5	Mayo	2023-11-05T00:00:00	2024-11-08T14:00:00	7	Dirección del viento	8.05
170475	7	Sololá	712	San Antonio Palopó	9	San Antonio Palopo	5	Mayo	2023-11-05T00:00:00	2024-11-08T14:00:00	1	Precipitación	0
170476	7	Sololá	712	San Antonio Palopó	9	San Antonio Palopo	5	Mayo	2023-11-05T00:00:00	2024-11-08T14:00:00	8	Radiación solar	276
170477	7	Sololá	712	San Antonio Palopó	9	San Antonio Palopo	5	Mayo	2023-11-05T00:00:00	2024-11-08T15:00:00	2	Temperatura media	22.2
170478	7	Sololá	712	San Antonio Palopó	9	San Antonio Palopo	5	Mayo	2023-11-05T00:00:00	2024-11-08T15:00:00	4	Temperatura máxima	24.1
170479	7	Sololá	712	San Antonio Palopó	9	San Antonio Palopo	5	Mayo	2023-11-05T00:00:00	2024-11-08T15:00:00	3	Temperatura mínima	22.2
170480	7	Sololá	712	San Antonio Palopó	9	San Antonio Palopo	5	Mayo	2023-11-05T00:00:00	2024-11-08T15:00:00	5	Humedad	73
170481	7	Sololá	712	San Antonio Palopó	9	San Antonio Palopo	5	Mayo	2023-11-05T00:00:00	2024-11-08T15:00:00	6	Velocidad del viento	9.7
170482	7	Sololá	712	San Antonio Palopó	9	San Antonio Palopo	5	Mayo	2023-11-05T00:00:00	2024-11-08T15:00:00	7	Dirección del viento	9.66
170483	7	Sololá	712	San Antonio Palopó	9	San Antonio Palopo	5	Mayo	2023-11-05T00:00:00	2024-11-08T15:00:00	1	Precipitación	0
170484	7	Sololá	712	San Antonio Palopó	9	San Antonio Palopo	5	Mayo	2023-11-05T00:00:00	2024-11-08T15:00:00	8	Radiación solar	431
170485	7	Sololá	712	San Antonio Palopó	9	San Antonio Palopo	5	Mayo	2023-11-05T00:00:00	2024-11-08T16:00:00	2	Temperatura media	21.8
170486	7	Sololá	712	San Antonio Palopó	9	San Antonio Palopo	5	Mayo	2023-11-05T00:00:00	2024-11-08T16:00:00	4	Temperatura máxima	22.2
170487	7	Sololá	712	San Antonio Palopó	9	San Antonio Palopo	5	Mayo	2023-11-05T00:00:00	2024-11-08T16:00:00	3	Temperatura mínima	21.8
170488	7	Sololá	712	San Antonio Palopó	9	San Antonio Palopo	5	Mayo	2023-11-05T00:00:00	2024-11-08T16:00:00	5	Humedad	74
170489	7	Sololá	712	San Antonio Palopó	9	San Antonio Palopo	5	Mayo	2023-11-05T00:00:00	2024-11-08T16:00:00	6	Velocidad del viento	8
170490	7	Sololá	712	San Antonio Palopó	9	San Antonio Palopo	5	Mayo	2023-11-05T00:00:00	2024-11-08T16:00:00	7	Dirección del viento	8.05
170491	7	Sololá	712	San Antonio Palopó	9	San Antonio Palopo	5	Mayo	2023-11-05T00:00:00	2024-11-08T16:00:00	1	Precipitación	0
170492	7	Sololá	712	San Antonio Palopó	9	San Antonio Palopo	5	Mayo	2023-11-05T00:00:00	2024-11-08T16:00:00	8	Radiación solar	161
170493	7	Sololá	712	San Antonio Palopó	9	San Antonio Palopo	5	Mayo	2023-11-05T00:00:00	2024-11-08T17:00:00	2	Temperatura media	21.7
170494	7	Sololá	712	San Antonio Palopó	9	San Antonio Palopo	5	Mayo	2023-11-05T00:00:00	2024-11-08T17:00:00	4	Temperatura máxima	22.1
170495	7	Sololá	712	San Antonio Palopó	9	San Antonio Palopo	5	Mayo	2023-11-05T00:00:00	2024-11-08T17:00:00	3	Temperatura mínima	21.7
170496	7	Sololá	712	San Antonio Palopó	9	San Antonio Palopo	5	Mayo	2023-11-05T00:00:00	2024-11-08T17:00:00	5	Humedad	77
170497	7	Sololá	712	San Antonio Palopó	9	San Antonio Palopo	5	Mayo	2023-11-05T00:00:00	2024-11-08T17:00:00	6	Velocidad del viento	3.2
170498	7	Sololá	712	San Antonio Palopó	9	San Antonio Palopo	5	Mayo	2023-11-05T00:00:00	2024-11-08T17:00:00	7	Dirección del viento	3.22
170499	7	Sololá	712	San Antonio Palopó	9	San Antonio Palopo	5	Mayo	2023-11-05T00:00:00	2024-11-08T17:00:00	1	Precipitación	0
170500	7	Sololá	712	San Antonio Palopó	9	San Antonio Palopo	5	Mayo	2023-11-05T00:00:00	2024-11-08T17:00:00	8	Radiación solar	108
170501	7	Sololá	712	San Antonio Palopó	9	San Antonio Palopo	5	Mayo	2023-11-05T00:00:00	2024-11-08T18:00:00	2	Temperatura media	21.4
170502	7	Sololá	712	San Antonio Palopó	9	San Antonio Palopo	5	Mayo	2023-11-05T00:00:00	2024-11-08T18:00:00	4	Temperatura máxima	21.7
170503	7	Sololá	712	San Antonio Palopó	9	San Antonio Palopo	5	Mayo	2023-11-05T00:00:00	2024-11-08T18:00:00	3	Temperatura mínima	21
170504	7	Sololá	712	San Antonio Palopó	9	San Antonio Palopo	5	Mayo	2023-11-05T00:00:00	2024-11-08T18:00:00	5	Humedad	79
170505	7	Sololá	712	San Antonio Palopó	9	San Antonio Palopo	5	Mayo	2023-11-05T00:00:00	2024-11-08T18:00:00	6	Velocidad del viento	3.2
170506	7	Sololá	712	San Antonio Palopó	9	San Antonio Palopo	5	Mayo	2023-11-05T00:00:00	2024-11-08T18:00:00	7	Dirección del viento	3.22
170507	7	Sololá	712	San Antonio Palopó	9	San Antonio Palopo	5	Mayo	2023-11-05T00:00:00	2024-11-08T18:00:00	1	Precipitación	0
170508	7	Sololá	712	San Antonio Palopó	9	San Antonio Palopo	5	Mayo	2023-11-05T00:00:00	2024-11-08T18:00:00	8	Radiación solar	26
170509	7	Sololá	712	San Antonio Palopó	9	San Antonio Palopo	5	Mayo	2023-11-05T00:00:00	2024-11-08T19:00:00	2	Temperatura media	20.9
170510	7	Sololá	712	San Antonio Palopó	9	San Antonio Palopo	5	Mayo	2023-11-05T00:00:00	2024-11-08T19:00:00	4	Temperatura máxima	21.5
170511	7	Sololá	712	San Antonio Palopó	9	San Antonio Palopo	5	Mayo	2023-11-05T00:00:00	2024-11-08T19:00:00	3	Temperatura mínima	20.9
170512	7	Sololá	712	San Antonio Palopó	9	San Antonio Palopo	5	Mayo	2023-11-05T00:00:00	2024-11-08T19:00:00	5	Humedad	80
170513	7	Sololá	712	San Antonio Palopó	9	San Antonio Palopo	5	Mayo	2023-11-05T00:00:00	2024-11-08T19:00:00	6	Velocidad del viento	1.6
170514	7	Sololá	712	San Antonio Palopó	9	San Antonio Palopo	5	Mayo	2023-11-05T00:00:00	2024-11-08T19:00:00	7	Dirección del viento	1.61
170515	7	Sololá	712	San Antonio Palopó	9	San Antonio Palopo	5	Mayo	2023-11-05T00:00:00	2024-11-08T19:00:00	1	Precipitación	0
170516	7	Sololá	712	San Antonio Palopó	9	San Antonio Palopo	5	Mayo	2023-11-05T00:00:00	2024-11-08T19:00:00	8	Radiación solar	0
170517	7	Sololá	712	San Antonio Palopó	9	San Antonio Palopo	5	Mayo	2023-11-05T00:00:00	2024-11-08T20:00:00	2	Temperatura media	20.5
170518	7	Sololá	712	San Antonio Palopó	9	San Antonio Palopo	5	Mayo	2023-11-05T00:00:00	2024-11-08T20:00:00	4	Temperatura máxima	20.9
170519	7	Sololá	712	San Antonio Palopó	9	San Antonio Palopo	5	Mayo	2023-11-05T00:00:00	2024-11-08T20:00:00	3	Temperatura mínima	20.3
170520	7	Sololá	712	San Antonio Palopó	9	San Antonio Palopo	5	Mayo	2023-11-05T00:00:00	2024-11-08T20:00:00	5	Humedad	81
170521	7	Sololá	712	San Antonio Palopó	9	San Antonio Palopo	5	Mayo	2023-11-05T00:00:00	2024-11-08T20:00:00	6	Velocidad del viento	0
170522	7	Sololá	712	San Antonio Palopó	9	San Antonio Palopo	5	Mayo	2023-11-05T00:00:00	2024-11-08T20:00:00	7	Dirección del viento	0
170523	7	Sololá	712	San Antonio Palopó	9	San Antonio Palopo	5	Mayo	2023-11-05T00:00:00	2024-11-08T20:00:00	1	Precipitación	0
170524	7	Sololá	712	San Antonio Palopó	9	San Antonio Palopo	5	Mayo	2023-11-05T00:00:00	2024-11-08T20:00:00	8	Radiación solar	0
170525	7	Sololá	712	San Antonio Palopó	9	San Antonio Palopo	5	Mayo	2023-11-05T00:00:00	2024-11-08T21:00:00	2	Temperatura media	20.4
170526	7	Sololá	712	San Antonio Palopó	9	San Antonio Palopo	5	Mayo	2023-11-05T00:00:00	2024-11-08T21:00:00	4	Temperatura máxima	20.5
170527	7	Sololá	712	San Antonio Palopó	9	San Antonio Palopo	5	Mayo	2023-11-05T00:00:00	2024-11-08T21:00:00	3	Temperatura mínima	20.2
170528	7	Sololá	712	San Antonio Palopó	9	San Antonio Palopo	5	Mayo	2023-11-05T00:00:00	2024-11-08T21:00:00	5	Humedad	80
170529	7	Sololá	712	San Antonio Palopó	9	San Antonio Palopo	5	Mayo	2023-11-05T00:00:00	2024-11-08T21:00:00	6	Velocidad del viento	0
170530	7	Sololá	712	San Antonio Palopó	9	San Antonio Palopo	5	Mayo	2023-11-05T00:00:00	2024-11-08T21:00:00	7	Dirección del viento	0
170531	7	Sololá	712	San Antonio Palopó	9	San Antonio Palopo	5	Mayo	2023-11-05T00:00:00	2024-11-08T21:00:00	1	Precipitación	0
170532	7	Sololá	712	San Antonio Palopó	9	San Antonio Palopo	5	Mayo	2023-11-05T00:00:00	2024-11-08T21:00:00	8	Radiación solar	0
170533	7	Sololá	712	San Antonio Palopó	9	San Antonio Palopo	5	Mayo	2023-11-05T00:00:00	2024-11-08T22:00:00	2	Temperatura media	20.1
170534	7	Sololá	712	San Antonio Palopó	9	San Antonio Palopo	5	Mayo	2023-11-05T00:00:00	2024-11-08T22:00:00	4	Temperatura máxima	20.4
170535	7	Sololá	712	San Antonio Palopó	9	San Antonio Palopo	5	Mayo	2023-11-05T00:00:00	2024-11-08T22:00:00	3	Temperatura mínima	20
170536	7	Sololá	712	San Antonio Palopó	9	San Antonio Palopo	5	Mayo	2023-11-05T00:00:00	2024-11-08T22:00:00	5	Humedad	83
170537	7	Sololá	712	San Antonio Palopó	9	San Antonio Palopo	5	Mayo	2023-11-05T00:00:00	2024-11-08T22:00:00	6	Velocidad del viento	0
170538	7	Sololá	712	San Antonio Palopó	9	San Antonio Palopo	5	Mayo	2023-11-05T00:00:00	2024-11-08T22:00:00	7	Dirección del viento	0
170539	7	Sololá	712	San Antonio Palopó	9	San Antonio Palopo	5	Mayo	2023-11-05T00:00:00	2024-11-08T22:00:00	1	Precipitación	0
170540	7	Sololá	712	San Antonio Palopó	9	San Antonio Palopo	5	Mayo	2023-11-05T00:00:00	2024-11-08T22:00:00	8	Radiación solar	0
170541	7	Sololá	712	San Antonio Palopó	9	San Antonio Palopo	5	Mayo	2023-11-05T00:00:00	2024-11-08T23:00:00	2	Temperatura media	20.1
170542	7	Sololá	712	San Antonio Palopó	9	San Antonio Palopo	5	Mayo	2023-11-05T00:00:00	2024-11-08T23:00:00	4	Temperatura máxima	20.1
170543	7	Sololá	712	San Antonio Palopó	9	San Antonio Palopo	5	Mayo	2023-11-05T00:00:00	2024-11-08T23:00:00	3	Temperatura mínima	20
170544	7	Sololá	712	San Antonio Palopó	9	San Antonio Palopo	5	Mayo	2023-11-05T00:00:00	2024-11-08T23:00:00	5	Humedad	83
170545	7	Sololá	712	San Antonio Palopó	9	San Antonio Palopo	5	Mayo	2023-11-05T00:00:00	2024-11-08T23:00:00	6	Velocidad del viento	0
170546	7	Sololá	712	San Antonio Palopó	9	San Antonio Palopo	5	Mayo	2023-11-05T00:00:00	2024-11-08T23:00:00	7	Dirección del viento	0
170547	7	Sololá	712	San Antonio Palopó	9	San Antonio Palopo	5	Mayo	2023-11-05T00:00:00	2024-11-08T23:00:00	1	Precipitación	0
170548	7	Sololá	712	San Antonio Palopó	9	San Antonio Palopo	5	Mayo	2023-11-05T00:00:00	2024-11-08T23:00:00	8	Radiación solar	0
170549	7	Sololá	712	San Antonio Palopó	9	San Antonio Palopo	5	Mayo	2023-12-05T00:00:00	2024-11-08T00:00:00	2	Temperatura media	20.2
170550	7	Sololá	712	San Antonio Palopó	9	San Antonio Palopo	5	Mayo	2023-12-05T00:00:00	2024-11-08T00:00:00	4	Temperatura máxima	20.3
170551	7	Sololá	712	San Antonio Palopó	9	San Antonio Palopo	5	Mayo	2023-12-05T00:00:00	2024-11-08T00:00:00	3	Temperatura mínima	20
170552	7	Sololá	712	San Antonio Palopó	9	San Antonio Palopo	5	Mayo	2023-12-05T00:00:00	2024-11-08T00:00:00	5	Humedad	79
170553	7	Sololá	712	San Antonio Palopó	9	San Antonio Palopo	5	Mayo	2023-12-05T00:00:00	2024-11-08T00:00:00	6	Velocidad del viento	3.2
170554	7	Sololá	712	San Antonio Palopó	9	San Antonio Palopo	5	Mayo	2023-12-05T00:00:00	2024-11-08T00:00:00	7	Dirección del viento	3.22
170555	7	Sololá	712	San Antonio Palopó	9	San Antonio Palopo	5	Mayo	2023-12-05T00:00:00	2024-11-08T00:00:00	1	Precipitación	0
170556	7	Sololá	712	San Antonio Palopó	9	San Antonio Palopo	5	Mayo	2023-12-05T00:00:00	2024-11-08T00:00:00	8	Radiación solar	0
170557	7	Sololá	712	San Antonio Palopó	9	San Antonio Palopo	5	Mayo	2023-12-05T00:00:00	2024-11-08T01:00:00	2	Temperatura media	19.9
170558	7	Sololá	712	San Antonio Palopó	9	San Antonio Palopo	5	Mayo	2023-12-05T00:00:00	2024-11-08T01:00:00	4	Temperatura máxima	20.2
170559	7	Sololá	712	San Antonio Palopó	9	San Antonio Palopo	5	Mayo	2023-12-05T00:00:00	2024-11-08T01:00:00	3	Temperatura mínima	19.8
170560	7	Sololá	712	San Antonio Palopó	9	San Antonio Palopo	5	Mayo	2023-12-05T00:00:00	2024-11-08T01:00:00	5	Humedad	81
170561	7	Sololá	712	San Antonio Palopó	9	San Antonio Palopo	5	Mayo	2023-12-05T00:00:00	2024-11-08T01:00:00	6	Velocidad del viento	3.2
170562	7	Sololá	712	San Antonio Palopó	9	San Antonio Palopo	5	Mayo	2023-12-05T00:00:00	2024-11-08T01:00:00	7	Dirección del viento	3.22
170563	7	Sololá	712	San Antonio Palopó	9	San Antonio Palopo	5	Mayo	2023-12-05T00:00:00	2024-11-08T01:00:00	1	Precipitación	0
170564	7	Sololá	712	San Antonio Palopó	9	San Antonio Palopo	5	Mayo	2023-12-05T00:00:00	2024-11-08T01:00:00	8	Radiación solar	0
170565	7	Sololá	712	San Antonio Palopó	9	San Antonio Palopo	5	Mayo	2023-12-05T00:00:00	2024-11-08T02:00:00	2	Temperatura media	19.2
170566	7	Sololá	712	San Antonio Palopó	9	San Antonio Palopo	5	Mayo	2023-12-05T00:00:00	2024-11-08T02:00:00	4	Temperatura máxima	19.9
170567	7	Sololá	712	San Antonio Palopó	9	San Antonio Palopo	5	Mayo	2023-12-05T00:00:00	2024-11-08T02:00:00	3	Temperatura mínima	19.1
170568	7	Sololá	712	San Antonio Palopó	9	San Antonio Palopo	5	Mayo	2023-12-05T00:00:00	2024-11-08T02:00:00	5	Humedad	83
170569	7	Sololá	712	San Antonio Palopó	9	San Antonio Palopo	5	Mayo	2023-12-05T00:00:00	2024-11-08T02:00:00	6	Velocidad del viento	1.6
170570	7	Sololá	712	San Antonio Palopó	9	San Antonio Palopo	5	Mayo	2023-12-05T00:00:00	2024-11-08T02:00:00	7	Dirección del viento	1.61
170571	7	Sololá	712	San Antonio Palopó	9	San Antonio Palopo	5	Mayo	2023-12-05T00:00:00	2024-11-08T02:00:00	1	Precipitación	0.2
170572	7	Sololá	712	San Antonio Palopó	9	San Antonio Palopo	5	Mayo	2023-12-05T00:00:00	2024-11-08T02:00:00	8	Radiación solar	0
170573	7	Sololá	712	San Antonio Palopó	9	San Antonio Palopo	5	Mayo	2023-12-05T00:00:00	2024-11-08T03:00:00	2	Temperatura media	19.2
170574	7	Sololá	712	San Antonio Palopó	9	San Antonio Palopo	5	Mayo	2023-12-05T00:00:00	2024-11-08T03:00:00	4	Temperatura máxima	19.4
170575	7	Sololá	712	San Antonio Palopó	9	San Antonio Palopo	5	Mayo	2023-12-05T00:00:00	2024-11-08T03:00:00	3	Temperatura mínima	19.2
170576	7	Sololá	712	San Antonio Palopó	9	San Antonio Palopo	5	Mayo	2023-12-05T00:00:00	2024-11-08T03:00:00	5	Humedad	76
170577	7	Sololá	712	San Antonio Palopó	9	San Antonio Palopo	5	Mayo	2023-12-05T00:00:00	2024-11-08T03:00:00	6	Velocidad del viento	6.4
170578	7	Sololá	712	San Antonio Palopó	9	San Antonio Palopo	5	Mayo	2023-12-05T00:00:00	2024-11-08T03:00:00	7	Dirección del viento	6.44
170579	7	Sololá	712	San Antonio Palopó	9	San Antonio Palopo	5	Mayo	2023-12-05T00:00:00	2024-11-08T03:00:00	1	Precipitación	0
170580	7	Sololá	712	San Antonio Palopó	9	San Antonio Palopo	5	Mayo	2023-12-05T00:00:00	2024-11-08T03:00:00	8	Radiación solar	0
170581	7	Sololá	712	San Antonio Palopó	9	San Antonio Palopo	5	Mayo	2023-12-05T00:00:00	2024-11-08T04:00:00	2	Temperatura media	18.3
170582	7	Sololá	712	San Antonio Palopó	9	San Antonio Palopo	5	Mayo	2023-12-05T00:00:00	2024-11-08T04:00:00	4	Temperatura máxima	19.3
170583	7	Sololá	712	San Antonio Palopó	9	San Antonio Palopo	5	Mayo	2023-12-05T00:00:00	2024-11-08T04:00:00	3	Temperatura mínima	18.3
170584	7	Sololá	712	San Antonio Palopó	9	San Antonio Palopo	5	Mayo	2023-12-05T00:00:00	2024-11-08T04:00:00	5	Humedad	78
170585	7	Sololá	712	San Antonio Palopó	9	San Antonio Palopo	5	Mayo	2023-12-05T00:00:00	2024-11-08T04:00:00	6	Velocidad del viento	4.8
170586	7	Sololá	712	San Antonio Palopó	9	San Antonio Palopo	5	Mayo	2023-12-05T00:00:00	2024-11-08T04:00:00	7	Dirección del viento	4.83
170587	7	Sololá	712	San Antonio Palopó	9	San Antonio Palopo	5	Mayo	2023-12-05T00:00:00	2024-11-08T04:00:00	1	Precipitación	0
170588	7	Sololá	712	San Antonio Palopó	9	San Antonio Palopo	5	Mayo	2023-12-05T00:00:00	2024-11-08T04:00:00	8	Radiación solar	0
170589	7	Sololá	712	San Antonio Palopó	9	San Antonio Palopo	5	Mayo	2023-12-05T00:00:00	2024-11-08T05:00:00	2	Temperatura media	18.1
170590	7	Sololá	712	San Antonio Palopó	9	San Antonio Palopo	5	Mayo	2023-12-05T00:00:00	2024-11-08T05:00:00	4	Temperatura máxima	18.6
170591	7	Sololá	712	San Antonio Palopó	9	San Antonio Palopo	5	Mayo	2023-12-05T00:00:00	2024-11-08T05:00:00	3	Temperatura mínima	18
170592	7	Sololá	712	San Antonio Palopó	9	San Antonio Palopo	5	Mayo	2023-12-05T00:00:00	2024-11-08T05:00:00	5	Humedad	80
170593	7	Sololá	712	San Antonio Palopó	9	San Antonio Palopo	5	Mayo	2023-12-05T00:00:00	2024-11-08T05:00:00	6	Velocidad del viento	4.8
170594	7	Sololá	712	San Antonio Palopó	9	San Antonio Palopo	5	Mayo	2023-12-05T00:00:00	2024-11-08T05:00:00	7	Dirección del viento	4.83
170595	7	Sololá	712	San Antonio Palopó	9	San Antonio Palopo	5	Mayo	2023-12-05T00:00:00	2024-11-08T05:00:00	1	Precipitación	0
170596	7	Sololá	712	San Antonio Palopó	9	San Antonio Palopo	5	Mayo	2023-12-05T00:00:00	2024-11-08T05:00:00	8	Radiación solar	0
170597	7	Sololá	712	San Antonio Palopó	9	San Antonio Palopo	5	Mayo	2023-12-05T00:00:00	2024-11-08T06:00:00	2	Temperatura media	18.3
170598	7	Sololá	712	San Antonio Palopó	9	San Antonio Palopo	5	Mayo	2023-12-05T00:00:00	2024-11-08T06:00:00	4	Temperatura máxima	18.3
170599	7	Sololá	712	San Antonio Palopó	9	San Antonio Palopo	5	Mayo	2023-12-05T00:00:00	2024-11-08T06:00:00	3	Temperatura mínima	17.7
170600	7	Sololá	712	San Antonio Palopó	9	San Antonio Palopo	5	Mayo	2023-12-05T00:00:00	2024-11-08T06:00:00	5	Humedad	82
170601	7	Sololá	712	San Antonio Palopó	9	San Antonio Palopo	5	Mayo	2023-12-05T00:00:00	2024-11-08T06:00:00	6	Velocidad del viento	3.2
170602	7	Sololá	712	San Antonio Palopó	9	San Antonio Palopo	5	Mayo	2023-12-05T00:00:00	2024-11-08T06:00:00	7	Dirección del viento	3.22
170603	7	Sololá	712	San Antonio Palopó	9	San Antonio Palopo	5	Mayo	2023-12-05T00:00:00	2024-11-08T06:00:00	1	Precipitación	0
170604	7	Sololá	712	San Antonio Palopó	9	San Antonio Palopo	5	Mayo	2023-12-05T00:00:00	2024-11-08T06:00:00	8	Radiación solar	2
170605	7	Sololá	712	San Antonio Palopó	9	San Antonio Palopo	5	Mayo	2023-12-05T00:00:00	2024-11-08T07:00:00	2	Temperatura media	19.3
170606	7	Sololá	712	San Antonio Palopó	9	San Antonio Palopo	5	Mayo	2023-12-05T00:00:00	2024-11-08T07:00:00	4	Temperatura máxima	19.3
170607	7	Sololá	712	San Antonio Palopó	9	San Antonio Palopo	5	Mayo	2023-12-05T00:00:00	2024-11-08T07:00:00	3	Temperatura mínima	18.3
170608	7	Sololá	712	San Antonio Palopó	9	San Antonio Palopo	5	Mayo	2023-12-05T00:00:00	2024-11-08T07:00:00	5	Humedad	81
170609	7	Sololá	712	San Antonio Palopó	9	San Antonio Palopo	5	Mayo	2023-12-05T00:00:00	2024-11-08T07:00:00	6	Velocidad del viento	1.6
170610	7	Sololá	712	San Antonio Palopó	9	San Antonio Palopo	5	Mayo	2023-12-05T00:00:00	2024-11-08T07:00:00	7	Dirección del viento	1.61
170611	7	Sololá	712	San Antonio Palopó	9	San Antonio Palopo	5	Mayo	2023-12-05T00:00:00	2024-11-08T07:00:00	1	Precipitación	0
170612	7	Sololá	712	San Antonio Palopó	9	San Antonio Palopo	5	Mayo	2023-12-05T00:00:00	2024-11-08T07:00:00	8	Radiación solar	65
170613	7	Sololá	712	San Antonio Palopó	9	San Antonio Palopo	5	Mayo	2023-12-05T00:00:00	2024-11-08T08:00:00	2	Temperatura media	20.4
170614	7	Sololá	712	San Antonio Palopó	9	San Antonio Palopo	5	Mayo	2023-12-05T00:00:00	2024-11-08T08:00:00	4	Temperatura máxima	20.4
170615	7	Sololá	712	San Antonio Palopó	9	San Antonio Palopo	5	Mayo	2023-12-05T00:00:00	2024-11-08T08:00:00	3	Temperatura mínima	19.3
170616	7	Sololá	712	San Antonio Palopó	9	San Antonio Palopo	5	Mayo	2023-12-05T00:00:00	2024-11-08T08:00:00	5	Humedad	79
170617	7	Sololá	712	San Antonio Palopó	9	San Antonio Palopo	5	Mayo	2023-12-05T00:00:00	2024-11-08T08:00:00	6	Velocidad del viento	1.6
170618	7	Sololá	712	San Antonio Palopó	9	San Antonio Palopo	5	Mayo	2023-12-05T00:00:00	2024-11-08T08:00:00	7	Dirección del viento	1.61
170619	7	Sololá	712	San Antonio Palopó	9	San Antonio Palopo	5	Mayo	2023-12-05T00:00:00	2024-11-08T08:00:00	1	Precipitación	0
170620	7	Sololá	712	San Antonio Palopó	9	San Antonio Palopo	5	Mayo	2023-12-05T00:00:00	2024-11-08T08:00:00	8	Radiación solar	173
170621	7	Sololá	712	San Antonio Palopó	9	San Antonio Palopo	5	Mayo	2023-12-05T00:00:00	2024-11-08T09:00:00	2	Temperatura media	20.4
170622	7	Sololá	712	San Antonio Palopó	9	San Antonio Palopo	5	Mayo	2023-12-05T00:00:00	2024-11-08T09:00:00	4	Temperatura máxima	20.6
170623	7	Sololá	712	San Antonio Palopó	9	San Antonio Palopo	5	Mayo	2023-12-05T00:00:00	2024-11-08T09:00:00	3	Temperatura mínima	20.2
170624	7	Sololá	712	San Antonio Palopó	9	San Antonio Palopo	5	Mayo	2023-12-05T00:00:00	2024-11-08T09:00:00	5	Humedad	80
170625	7	Sololá	712	San Antonio Palopó	9	San Antonio Palopo	5	Mayo	2023-12-05T00:00:00	2024-11-08T09:00:00	6	Velocidad del viento	3.2
170626	7	Sololá	712	San Antonio Palopó	9	San Antonio Palopo	5	Mayo	2023-12-05T00:00:00	2024-11-08T09:00:00	7	Dirección del viento	3.22
170627	7	Sololá	712	San Antonio Palopó	9	San Antonio Palopo	5	Mayo	2023-12-05T00:00:00	2024-11-08T09:00:00	1	Precipitación	0
170628	7	Sololá	712	San Antonio Palopó	9	San Antonio Palopo	5	Mayo	2023-12-05T00:00:00	2024-11-08T09:00:00	8	Radiación solar	312
170629	7	Sololá	712	San Antonio Palopó	9	San Antonio Palopo	5	Mayo	2023-12-05T00:00:00	2024-11-08T10:00:00	2	Temperatura media	21.6
170630	7	Sololá	712	San Antonio Palopó	9	San Antonio Palopo	5	Mayo	2023-12-05T00:00:00	2024-11-08T10:00:00	4	Temperatura máxima	21.6
170631	7	Sololá	712	San Antonio Palopó	9	San Antonio Palopo	5	Mayo	2023-12-05T00:00:00	2024-11-08T10:00:00	3	Temperatura mínima	20.4
170632	7	Sololá	712	San Antonio Palopó	9	San Antonio Palopo	5	Mayo	2023-12-05T00:00:00	2024-11-08T10:00:00	5	Humedad	77
170633	7	Sololá	712	San Antonio Palopó	9	San Antonio Palopo	5	Mayo	2023-12-05T00:00:00	2024-11-08T10:00:00	6	Velocidad del viento	3.2
170634	7	Sololá	712	San Antonio Palopó	9	San Antonio Palopo	5	Mayo	2023-12-05T00:00:00	2024-11-08T10:00:00	7	Dirección del viento	3.22
170635	7	Sololá	712	San Antonio Palopó	9	San Antonio Palopo	5	Mayo	2023-12-05T00:00:00	2024-11-08T10:00:00	1	Precipitación	0
170636	7	Sololá	712	San Antonio Palopó	9	San Antonio Palopo	5	Mayo	2023-12-05T00:00:00	2024-11-08T10:00:00	8	Radiación solar	641
170637	7	Sololá	712	San Antonio Palopó	9	San Antonio Palopo	5	Mayo	2023-12-05T00:00:00	2024-11-08T11:00:00	2	Temperatura media	22.7
170638	7	Sololá	712	San Antonio Palopó	9	San Antonio Palopo	5	Mayo	2023-12-05T00:00:00	2024-11-08T11:00:00	4	Temperatura máxima	22.8
170639	7	Sololá	712	San Antonio Palopó	9	San Antonio Palopo	5	Mayo	2023-12-05T00:00:00	2024-11-08T11:00:00	3	Temperatura mínima	21.6
170640	7	Sololá	712	San Antonio Palopó	9	San Antonio Palopo	5	Mayo	2023-12-05T00:00:00	2024-11-08T11:00:00	5	Humedad	74
170641	7	Sololá	712	San Antonio Palopó	9	San Antonio Palopo	5	Mayo	2023-12-05T00:00:00	2024-11-08T11:00:00	6	Velocidad del viento	3.2
170642	7	Sololá	712	San Antonio Palopó	9	San Antonio Palopo	5	Mayo	2023-12-05T00:00:00	2024-11-08T11:00:00	7	Dirección del viento	3.22
170643	7	Sololá	712	San Antonio Palopó	9	San Antonio Palopo	5	Mayo	2023-12-05T00:00:00	2024-11-08T11:00:00	1	Precipitación	0
170644	7	Sololá	712	San Antonio Palopó	9	San Antonio Palopo	5	Mayo	2023-12-05T00:00:00	2024-11-08T11:00:00	8	Radiación solar	832
170645	7	Sololá	712	San Antonio Palopó	9	San Antonio Palopo	5	Mayo	2023-12-05T00:00:00	2024-11-08T12:00:00	2	Temperatura media	24.6
170646	7	Sololá	712	San Antonio Palopó	9	San Antonio Palopo	5	Mayo	2023-12-05T00:00:00	2024-11-08T12:00:00	4	Temperatura máxima	24.6
170647	7	Sololá	712	San Antonio Palopó	9	San Antonio Palopo	5	Mayo	2023-12-05T00:00:00	2024-11-08T12:00:00	3	Temperatura mínima	22.8
170648	7	Sololá	712	San Antonio Palopó	9	San Antonio Palopo	5	Mayo	2023-12-05T00:00:00	2024-11-08T12:00:00	5	Humedad	66
170649	7	Sololá	712	San Antonio Palopó	9	San Antonio Palopo	5	Mayo	2023-12-05T00:00:00	2024-11-08T12:00:00	6	Velocidad del viento	4.8
170650	7	Sololá	712	San Antonio Palopó	9	San Antonio Palopo	5	Mayo	2023-12-05T00:00:00	2024-11-08T12:00:00	7	Dirección del viento	4.83
170651	7	Sololá	712	San Antonio Palopó	9	San Antonio Palopo	5	Mayo	2023-12-05T00:00:00	2024-11-08T12:00:00	1	Precipitación	0
170652	7	Sololá	712	San Antonio Palopó	9	San Antonio Palopo	5	Mayo	2023-12-05T00:00:00	2024-11-08T12:00:00	8	Radiación solar	922
170653	7	Sololá	712	San Antonio Palopó	9	San Antonio Palopo	5	Mayo	2023-12-05T00:00:00	2024-11-08T13:00:00	2	Temperatura media	25.2
170654	7	Sololá	712	San Antonio Palopó	9	San Antonio Palopo	5	Mayo	2023-12-05T00:00:00	2024-11-08T13:00:00	4	Temperatura máxima	25.9
170655	7	Sololá	712	San Antonio Palopó	9	San Antonio Palopo	5	Mayo	2023-12-05T00:00:00	2024-11-08T13:00:00	3	Temperatura mínima	23.8
170656	7	Sololá	712	San Antonio Palopó	9	San Antonio Palopo	5	Mayo	2023-12-05T00:00:00	2024-11-08T13:00:00	5	Humedad	69
170657	7	Sololá	712	San Antonio Palopó	9	San Antonio Palopo	5	Mayo	2023-12-05T00:00:00	2024-11-08T13:00:00	6	Velocidad del viento	6.4
170658	7	Sololá	712	San Antonio Palopó	9	San Antonio Palopo	5	Mayo	2023-12-05T00:00:00	2024-11-08T13:00:00	7	Dirección del viento	6.44
170659	7	Sololá	712	San Antonio Palopó	9	San Antonio Palopo	5	Mayo	2023-12-05T00:00:00	2024-11-08T13:00:00	1	Precipitación	0
170660	7	Sololá	712	San Antonio Palopó	9	San Antonio Palopo	5	Mayo	2023-12-05T00:00:00	2024-11-08T13:00:00	8	Radiación solar	934
170661	7	Sololá	712	San Antonio Palopó	9	San Antonio Palopo	5	Mayo	2023-12-05T00:00:00	2024-11-08T14:00:00	2	Temperatura media	23.3
170662	7	Sololá	712	San Antonio Palopó	9	San Antonio Palopo	5	Mayo	2023-12-05T00:00:00	2024-11-08T14:00:00	4	Temperatura máxima	25.3
170663	7	Sololá	712	San Antonio Palopó	9	San Antonio Palopo	5	Mayo	2023-12-05T00:00:00	2024-11-08T14:00:00	3	Temperatura mínima	23.3
170664	7	Sololá	712	San Antonio Palopó	9	San Antonio Palopo	5	Mayo	2023-12-05T00:00:00	2024-11-08T14:00:00	5	Humedad	75
170665	7	Sololá	712	San Antonio Palopó	9	San Antonio Palopo	5	Mayo	2023-12-05T00:00:00	2024-11-08T14:00:00	6	Velocidad del viento	6.4
170666	7	Sololá	712	San Antonio Palopó	9	San Antonio Palopo	5	Mayo	2023-12-05T00:00:00	2024-11-08T14:00:00	7	Dirección del viento	6.44
170667	7	Sololá	712	San Antonio Palopó	9	San Antonio Palopo	5	Mayo	2023-12-05T00:00:00	2024-11-08T14:00:00	1	Precipitación	0
170668	7	Sololá	712	San Antonio Palopó	9	San Antonio Palopo	5	Mayo	2023-12-05T00:00:00	2024-11-08T14:00:00	8	Radiación solar	516
170669	7	Sololá	712	San Antonio Palopó	9	San Antonio Palopo	5	Mayo	2023-12-05T00:00:00	2024-11-08T15:00:00	2	Temperatura media	22.3
170670	7	Sololá	712	San Antonio Palopó	9	San Antonio Palopo	5	Mayo	2023-12-05T00:00:00	2024-11-08T15:00:00	4	Temperatura máxima	23.9
170671	7	Sololá	712	San Antonio Palopó	9	San Antonio Palopo	5	Mayo	2023-12-05T00:00:00	2024-11-08T15:00:00	3	Temperatura mínima	22.3
170672	7	Sololá	712	San Antonio Palopó	9	San Antonio Palopo	5	Mayo	2023-12-05T00:00:00	2024-11-08T15:00:00	5	Humedad	78
170673	7	Sololá	712	San Antonio Palopó	9	San Antonio Palopo	5	Mayo	2023-12-05T00:00:00	2024-11-08T15:00:00	6	Velocidad del viento	9.7
170674	7	Sololá	712	San Antonio Palopó	9	San Antonio Palopo	5	Mayo	2023-12-05T00:00:00	2024-11-08T15:00:00	7	Dirección del viento	9.66
170675	7	Sololá	712	San Antonio Palopó	9	San Antonio Palopo	5	Mayo	2023-12-05T00:00:00	2024-11-08T15:00:00	1	Precipitación	0
170676	7	Sololá	712	San Antonio Palopó	9	San Antonio Palopo	5	Mayo	2023-12-05T00:00:00	2024-11-08T15:00:00	8	Radiación solar	274
170677	7	Sololá	712	San Antonio Palopó	9	San Antonio Palopo	5	Mayo	2023-12-05T00:00:00	2024-11-08T16:00:00	2	Temperatura media	22.1
170678	7	Sololá	712	San Antonio Palopó	9	San Antonio Palopo	5	Mayo	2023-12-05T00:00:00	2024-11-08T16:00:00	4	Temperatura máxima	22.4
170679	7	Sololá	712	San Antonio Palopó	9	San Antonio Palopo	5	Mayo	2023-12-05T00:00:00	2024-11-08T16:00:00	3	Temperatura mínima	21.9
170680	7	Sololá	712	San Antonio Palopó	9	San Antonio Palopo	5	Mayo	2023-12-05T00:00:00	2024-11-08T16:00:00	5	Humedad	76
170681	7	Sololá	712	San Antonio Palopó	9	San Antonio Palopo	5	Mayo	2023-12-05T00:00:00	2024-11-08T16:00:00	6	Velocidad del viento	6.4
170682	7	Sololá	712	San Antonio Palopó	9	San Antonio Palopo	5	Mayo	2023-12-05T00:00:00	2024-11-08T16:00:00	7	Dirección del viento	6.44
170683	7	Sololá	712	San Antonio Palopó	9	San Antonio Palopo	5	Mayo	2023-12-05T00:00:00	2024-11-08T16:00:00	1	Precipitación	0
170684	7	Sololá	712	San Antonio Palopó	9	San Antonio Palopo	5	Mayo	2023-12-05T00:00:00	2024-11-08T16:00:00	8	Radiación solar	71
170685	7	Sololá	712	San Antonio Palopó	9	San Antonio Palopo	5	Mayo	2023-12-05T00:00:00	2024-11-08T17:00:00	2	Temperatura media	21.7
170686	7	Sololá	712	San Antonio Palopó	9	San Antonio Palopo	5	Mayo	2023-12-05T00:00:00	2024-11-08T17:00:00	4	Temperatura máxima	22.2
170687	7	Sololá	712	San Antonio Palopó	9	San Antonio Palopo	5	Mayo	2023-12-05T00:00:00	2024-11-08T17:00:00	3	Temperatura mínima	21.6
170688	7	Sololá	712	San Antonio Palopó	9	San Antonio Palopo	5	Mayo	2023-12-05T00:00:00	2024-11-08T17:00:00	5	Humedad	76
170689	7	Sololá	712	San Antonio Palopó	9	San Antonio Palopo	5	Mayo	2023-12-05T00:00:00	2024-11-08T17:00:00	6	Velocidad del viento	4.8
170690	7	Sololá	712	San Antonio Palopó	9	San Antonio Palopo	5	Mayo	2023-12-05T00:00:00	2024-11-08T17:00:00	7	Dirección del viento	4.83
170691	7	Sololá	712	San Antonio Palopó	9	San Antonio Palopo	5	Mayo	2023-12-05T00:00:00	2024-11-08T17:00:00	1	Precipitación	0
170692	7	Sololá	712	San Antonio Palopó	9	San Antonio Palopo	5	Mayo	2023-12-05T00:00:00	2024-11-08T17:00:00	8	Radiación solar	64
170693	7	Sololá	712	San Antonio Palopó	9	San Antonio Palopo	5	Mayo	2023-12-05T00:00:00	2024-11-08T18:00:00	2	Temperatura media	20.3
170694	7	Sololá	712	San Antonio Palopó	9	San Antonio Palopo	5	Mayo	2023-12-05T00:00:00	2024-11-08T18:00:00	4	Temperatura máxima	21.7
170695	7	Sololá	712	San Antonio Palopó	9	San Antonio Palopo	5	Mayo	2023-12-05T00:00:00	2024-11-08T18:00:00	3	Temperatura mínima	20.3
170696	7	Sololá	712	San Antonio Palopó	9	San Antonio Palopo	5	Mayo	2023-12-05T00:00:00	2024-11-08T18:00:00	5	Humedad	86
170697	7	Sololá	712	San Antonio Palopó	9	San Antonio Palopo	5	Mayo	2023-12-05T00:00:00	2024-11-08T18:00:00	6	Velocidad del viento	6.4
170698	7	Sololá	712	San Antonio Palopó	9	San Antonio Palopo	5	Mayo	2023-12-05T00:00:00	2024-11-08T18:00:00	7	Dirección del viento	6.44
170699	7	Sololá	712	San Antonio Palopó	9	San Antonio Palopo	5	Mayo	2023-12-05T00:00:00	2024-11-08T18:00:00	1	Precipitación	0
170700	7	Sololá	712	San Antonio Palopó	9	San Antonio Palopo	5	Mayo	2023-12-05T00:00:00	2024-11-08T18:00:00	8	Radiación solar	16
170701	7	Sololá	712	San Antonio Palopó	9	San Antonio Palopo	5	Mayo	2023-12-05T00:00:00	2024-11-08T19:00:00	2	Temperatura media	20.1
170702	7	Sololá	712	San Antonio Palopó	9	San Antonio Palopo	5	Mayo	2023-12-05T00:00:00	2024-11-08T19:00:00	4	Temperatura máxima	20.3
170703	7	Sololá	712	San Antonio Palopó	9	San Antonio Palopo	5	Mayo	2023-12-05T00:00:00	2024-11-08T19:00:00	3	Temperatura mínima	19.8
170704	7	Sololá	712	San Antonio Palopó	9	San Antonio Palopo	5	Mayo	2023-12-05T00:00:00	2024-11-08T19:00:00	5	Humedad	88
170705	7	Sololá	712	San Antonio Palopó	9	San Antonio Palopo	5	Mayo	2023-12-05T00:00:00	2024-11-08T19:00:00	6	Velocidad del viento	3.2
170706	7	Sololá	712	San Antonio Palopó	9	San Antonio Palopo	5	Mayo	2023-12-05T00:00:00	2024-11-08T19:00:00	7	Dirección del viento	3.22
170707	7	Sololá	712	San Antonio Palopó	9	San Antonio Palopo	5	Mayo	2023-12-05T00:00:00	2024-11-08T19:00:00	1	Precipitación	0.2
170708	7	Sololá	712	San Antonio Palopó	9	San Antonio Palopo	5	Mayo	2023-12-05T00:00:00	2024-11-08T19:00:00	8	Radiación solar	0
170709	7	Sololá	712	San Antonio Palopó	9	San Antonio Palopo	5	Mayo	2023-12-05T00:00:00	2024-11-08T20:00:00	2	Temperatura media	19.9
170710	7	Sololá	712	San Antonio Palopó	9	San Antonio Palopo	5	Mayo	2023-12-05T00:00:00	2024-11-08T20:00:00	4	Temperatura máxima	20.2
170711	7	Sololá	712	San Antonio Palopó	9	San Antonio Palopo	5	Mayo	2023-12-05T00:00:00	2024-11-08T20:00:00	3	Temperatura mínima	19.8
170712	7	Sololá	712	San Antonio Palopó	9	San Antonio Palopo	5	Mayo	2023-12-05T00:00:00	2024-11-08T20:00:00	5	Humedad	87
170713	7	Sololá	712	San Antonio Palopó	9	San Antonio Palopo	5	Mayo	2023-12-05T00:00:00	2024-11-08T20:00:00	6	Velocidad del viento	1.6
170714	7	Sololá	712	San Antonio Palopó	9	San Antonio Palopo	5	Mayo	2023-12-05T00:00:00	2024-11-08T20:00:00	7	Dirección del viento	1.61
170715	7	Sololá	712	San Antonio Palopó	9	San Antonio Palopo	5	Mayo	2023-12-05T00:00:00	2024-11-08T20:00:00	1	Precipitación	0
170716	7	Sololá	712	San Antonio Palopó	9	San Antonio Palopo	5	Mayo	2023-12-05T00:00:00	2024-11-08T20:00:00	8	Radiación solar	0
170717	7	Sololá	712	San Antonio Palopó	9	San Antonio Palopo	5	Mayo	2023-12-05T00:00:00	2024-11-08T21:00:00	2	Temperatura media	20.1
170718	7	Sololá	712	San Antonio Palopó	9	San Antonio Palopo	5	Mayo	2023-12-05T00:00:00	2024-11-08T21:00:00	4	Temperatura máxima	20.2
170719	7	Sololá	712	San Antonio Palopó	9	San Antonio Palopo	5	Mayo	2023-12-05T00:00:00	2024-11-08T21:00:00	3	Temperatura mínima	19.9
170720	7	Sololá	712	San Antonio Palopó	9	San Antonio Palopo	5	Mayo	2023-12-05T00:00:00	2024-11-08T21:00:00	5	Humedad	88
170721	7	Sololá	712	San Antonio Palopó	9	San Antonio Palopo	5	Mayo	2023-12-05T00:00:00	2024-11-08T21:00:00	6	Velocidad del viento	3.2
170722	7	Sololá	712	San Antonio Palopó	9	San Antonio Palopo	5	Mayo	2023-12-05T00:00:00	2024-11-08T21:00:00	7	Dirección del viento	3.22
170723	7	Sololá	712	San Antonio Palopó	9	San Antonio Palopo	5	Mayo	2023-12-05T00:00:00	2024-11-08T21:00:00	1	Precipitación	0
170724	7	Sololá	712	San Antonio Palopó	9	San Antonio Palopo	5	Mayo	2023-12-05T00:00:00	2024-11-08T21:00:00	8	Radiación solar	0
170725	7	Sololá	712	San Antonio Palopó	9	San Antonio Palopo	5	Mayo	2023-12-05T00:00:00	2024-11-08T22:00:00	2	Temperatura media	19
170726	7	Sololá	712	San Antonio Palopó	9	San Antonio Palopo	5	Mayo	2023-12-05T00:00:00	2024-11-08T22:00:00	4	Temperatura máxima	20.1
170727	7	Sololá	712	San Antonio Palopó	9	San Antonio Palopo	5	Mayo	2023-12-05T00:00:00	2024-11-08T22:00:00	3	Temperatura mínima	19
170728	7	Sololá	712	San Antonio Palopó	9	San Antonio Palopo	5	Mayo	2023-12-05T00:00:00	2024-11-08T22:00:00	5	Humedad	86
170729	7	Sololá	712	San Antonio Palopó	9	San Antonio Palopo	5	Mayo	2023-12-05T00:00:00	2024-11-08T22:00:00	6	Velocidad del viento	1.6
170730	7	Sololá	712	San Antonio Palopó	9	San Antonio Palopo	5	Mayo	2023-12-05T00:00:00	2024-11-08T22:00:00	7	Dirección del viento	1.61
170731	7	Sololá	712	San Antonio Palopó	9	San Antonio Palopo	5	Mayo	2023-12-05T00:00:00	2024-11-08T22:00:00	1	Precipitación	0
170732	7	Sololá	712	San Antonio Palopó	9	San Antonio Palopo	5	Mayo	2023-12-05T00:00:00	2024-11-08T22:00:00	8	Radiación solar	0
170733	7	Sololá	712	San Antonio Palopó	9	San Antonio Palopo	5	Mayo	2023-12-05T00:00:00	2024-11-08T23:00:00	2	Temperatura media	18.7
170734	7	Sololá	712	San Antonio Palopó	9	San Antonio Palopo	5	Mayo	2023-12-05T00:00:00	2024-11-08T23:00:00	4	Temperatura máxima	19.1
170735	7	Sololá	712	San Antonio Palopó	9	San Antonio Palopo	5	Mayo	2023-12-05T00:00:00	2024-11-08T23:00:00	3	Temperatura mínima	18.7
170736	7	Sololá	712	San Antonio Palopó	9	San Antonio Palopo	5	Mayo	2023-12-05T00:00:00	2024-11-08T23:00:00	5	Humedad	88
170737	7	Sololá	712	San Antonio Palopó	9	San Antonio Palopo	5	Mayo	2023-12-05T00:00:00	2024-11-08T23:00:00	6	Velocidad del viento	3.2
170738	7	Sololá	712	San Antonio Palopó	9	San Antonio Palopo	5	Mayo	2023-12-05T00:00:00	2024-11-08T23:00:00	7	Dirección del viento	3.22
170739	7	Sololá	712	San Antonio Palopó	9	San Antonio Palopo	5	Mayo	2023-12-05T00:00:00	2024-11-08T23:00:00	1	Precipitación	0
170740	7	Sololá	712	San Antonio Palopó	9	San Antonio Palopo	5	Mayo	2023-12-05T00:00:00	2024-11-08T23:00:00	8	Radiación solar	0
170741	7	Sololá	712	San Antonio Palopó	9	San Antonio Palopo	5	Mayo	2023-05-13T00:00:00	2024-11-08T00:00:00	2	Temperatura media	19.3
170742	7	Sololá	712	San Antonio Palopó	9	San Antonio Palopo	5	Mayo	2023-05-13T00:00:00	2024-11-08T00:00:00	4	Temperatura máxima	19.3
170743	7	Sololá	712	San Antonio Palopó	9	San Antonio Palopo	5	Mayo	2023-05-13T00:00:00	2024-11-08T00:00:00	3	Temperatura mínima	18.5
170744	7	Sololá	712	San Antonio Palopó	9	San Antonio Palopo	5	Mayo	2023-05-13T00:00:00	2024-11-08T00:00:00	5	Humedad	86
170745	7	Sololá	712	San Antonio Palopó	9	San Antonio Palopo	5	Mayo	2023-05-13T00:00:00	2024-11-08T00:00:00	6	Velocidad del viento	3.2
170746	7	Sololá	712	San Antonio Palopó	9	San Antonio Palopo	5	Mayo	2023-05-13T00:00:00	2024-11-08T00:00:00	7	Dirección del viento	3.22
170747	7	Sololá	712	San Antonio Palopó	9	San Antonio Palopo	5	Mayo	2023-05-13T00:00:00	2024-11-08T00:00:00	1	Precipitación	0
170748	7	Sololá	712	San Antonio Palopó	9	San Antonio Palopo	5	Mayo	2023-05-13T00:00:00	2024-11-08T00:00:00	8	Radiación solar	0
170749	7	Sololá	712	San Antonio Palopó	9	San Antonio Palopo	5	Mayo	2023-05-13T00:00:00	2024-11-08T01:00:00	2	Temperatura media	19.7
170750	7	Sololá	712	San Antonio Palopó	9	San Antonio Palopo	5	Mayo	2023-05-13T00:00:00	2024-11-08T01:00:00	4	Temperatura máxima	19.7
170751	7	Sololá	712	San Antonio Palopó	9	San Antonio Palopo	5	Mayo	2023-05-13T00:00:00	2024-11-08T01:00:00	3	Temperatura mínima	19.2
170752	7	Sololá	712	San Antonio Palopó	9	San Antonio Palopo	5	Mayo	2023-05-13T00:00:00	2024-11-08T01:00:00	5	Humedad	83
170753	7	Sololá	712	San Antonio Palopó	9	San Antonio Palopo	5	Mayo	2023-05-13T00:00:00	2024-11-08T01:00:00	6	Velocidad del viento	1.6
170754	7	Sololá	712	San Antonio Palopó	9	San Antonio Palopo	5	Mayo	2023-05-13T00:00:00	2024-11-08T01:00:00	7	Dirección del viento	1.61
170755	7	Sololá	712	San Antonio Palopó	9	San Antonio Palopo	5	Mayo	2023-05-13T00:00:00	2024-11-08T01:00:00	1	Precipitación	0
170756	7	Sololá	712	San Antonio Palopó	9	San Antonio Palopo	5	Mayo	2023-05-13T00:00:00	2024-11-08T01:00:00	8	Radiación solar	0
170757	7	Sololá	712	San Antonio Palopó	9	San Antonio Palopo	5	Mayo	2023-05-13T00:00:00	2024-11-08T02:00:00	2	Temperatura media	19.4
170758	7	Sololá	712	San Antonio Palopó	9	San Antonio Palopo	5	Mayo	2023-05-13T00:00:00	2024-11-08T02:00:00	4	Temperatura máxima	19.7
170759	7	Sololá	712	San Antonio Palopó	9	San Antonio Palopo	5	Mayo	2023-05-13T00:00:00	2024-11-08T02:00:00	3	Temperatura mínima	19.4
170760	7	Sololá	712	San Antonio Palopó	9	San Antonio Palopo	5	Mayo	2023-05-13T00:00:00	2024-11-08T02:00:00	5	Humedad	85
170761	7	Sololá	712	San Antonio Palopó	9	San Antonio Palopo	5	Mayo	2023-05-13T00:00:00	2024-11-08T02:00:00	6	Velocidad del viento	1.6
170762	7	Sololá	712	San Antonio Palopó	9	San Antonio Palopo	5	Mayo	2023-05-13T00:00:00	2024-11-08T02:00:00	7	Dirección del viento	1.61
170763	7	Sololá	712	San Antonio Palopó	9	San Antonio Palopo	5	Mayo	2023-05-13T00:00:00	2024-11-08T02:00:00	1	Precipitación	0
170764	7	Sololá	712	San Antonio Palopó	9	San Antonio Palopo	5	Mayo	2023-05-13T00:00:00	2024-11-08T02:00:00	8	Radiación solar	0
170765	7	Sololá	712	San Antonio Palopó	9	San Antonio Palopo	5	Mayo	2023-05-13T00:00:00	2024-11-08T03:00:00	2	Temperatura media	19.2
170766	7	Sololá	712	San Antonio Palopó	9	San Antonio Palopo	5	Mayo	2023-05-13T00:00:00	2024-11-08T03:00:00	4	Temperatura máxima	19.4
170767	7	Sololá	712	San Antonio Palopó	9	San Antonio Palopo	5	Mayo	2023-05-13T00:00:00	2024-11-08T03:00:00	3	Temperatura mínima	19
170768	7	Sololá	712	San Antonio Palopó	9	San Antonio Palopo	5	Mayo	2023-05-13T00:00:00	2024-11-08T03:00:00	5	Humedad	85
170769	7	Sololá	712	San Antonio Palopó	9	San Antonio Palopo	5	Mayo	2023-05-13T00:00:00	2024-11-08T03:00:00	6	Velocidad del viento	1.6
170770	7	Sololá	712	San Antonio Palopó	9	San Antonio Palopo	5	Mayo	2023-05-13T00:00:00	2024-11-08T03:00:00	7	Dirección del viento	1.61
170771	7	Sololá	712	San Antonio Palopó	9	San Antonio Palopo	5	Mayo	2023-05-13T00:00:00	2024-11-08T03:00:00	1	Precipitación	0
170772	7	Sololá	712	San Antonio Palopó	9	San Antonio Palopo	5	Mayo	2023-05-13T00:00:00	2024-11-08T03:00:00	8	Radiación solar	0
170773	7	Sololá	712	San Antonio Palopó	9	San Antonio Palopo	5	Mayo	2023-05-13T00:00:00	2024-11-08T04:00:00	2	Temperatura media	18.6
170774	7	Sololá	712	San Antonio Palopó	9	San Antonio Palopo	5	Mayo	2023-05-13T00:00:00	2024-11-08T04:00:00	4	Temperatura máxima	19.2
170775	7	Sololá	712	San Antonio Palopó	9	San Antonio Palopo	5	Mayo	2023-05-13T00:00:00	2024-11-08T04:00:00	3	Temperatura mínima	18.6
170776	7	Sololá	712	San Antonio Palopó	9	San Antonio Palopo	5	Mayo	2023-05-13T00:00:00	2024-11-08T04:00:00	5	Humedad	85
170777	7	Sololá	712	San Antonio Palopó	9	San Antonio Palopo	5	Mayo	2023-05-13T00:00:00	2024-11-08T04:00:00	6	Velocidad del viento	3.2
170778	7	Sololá	712	San Antonio Palopó	9	San Antonio Palopo	5	Mayo	2023-05-13T00:00:00	2024-11-08T04:00:00	7	Dirección del viento	3.22
170779	7	Sololá	712	San Antonio Palopó	9	San Antonio Palopo	5	Mayo	2023-05-13T00:00:00	2024-11-08T04:00:00	1	Precipitación	0
170780	7	Sololá	712	San Antonio Palopó	9	San Antonio Palopo	5	Mayo	2023-05-13T00:00:00	2024-11-08T04:00:00	8	Radiación solar	0
170781	7	Sololá	712	San Antonio Palopó	9	San Antonio Palopo	5	Mayo	2023-05-13T00:00:00	2024-11-08T05:00:00	2	Temperatura media	19.3
170782	7	Sololá	712	San Antonio Palopó	9	San Antonio Palopo	5	Mayo	2023-05-13T00:00:00	2024-11-08T05:00:00	4	Temperatura máxima	19.3
170783	7	Sololá	712	San Antonio Palopó	9	San Antonio Palopo	5	Mayo	2023-05-13T00:00:00	2024-11-08T05:00:00	3	Temperatura mínima	18.4
170784	7	Sololá	712	San Antonio Palopó	9	San Antonio Palopo	5	Mayo	2023-05-13T00:00:00	2024-11-08T05:00:00	5	Humedad	81
170785	7	Sololá	712	San Antonio Palopó	9	San Antonio Palopo	5	Mayo	2023-05-13T00:00:00	2024-11-08T05:00:00	6	Velocidad del viento	6.4
170786	7	Sololá	712	San Antonio Palopó	9	San Antonio Palopo	5	Mayo	2023-05-13T00:00:00	2024-11-08T05:00:00	7	Dirección del viento	6.44
170787	7	Sololá	712	San Antonio Palopó	9	San Antonio Palopo	5	Mayo	2023-05-13T00:00:00	2024-11-08T05:00:00	1	Precipitación	0
170788	7	Sololá	712	San Antonio Palopó	9	San Antonio Palopo	5	Mayo	2023-05-13T00:00:00	2024-11-08T05:00:00	8	Radiación solar	0
170789	7	Sololá	712	San Antonio Palopó	9	San Antonio Palopo	5	Mayo	2023-05-13T00:00:00	2024-11-08T06:00:00	2	Temperatura media	19.2
170790	7	Sololá	712	San Antonio Palopó	9	San Antonio Palopo	5	Mayo	2023-05-13T00:00:00	2024-11-08T06:00:00	4	Temperatura máxima	19.4
170791	7	Sololá	712	San Antonio Palopó	9	San Antonio Palopo	5	Mayo	2023-05-13T00:00:00	2024-11-08T06:00:00	3	Temperatura mínima	18.9
170792	7	Sololá	712	San Antonio Palopó	9	San Antonio Palopo	5	Mayo	2023-05-13T00:00:00	2024-11-08T06:00:00	5	Humedad	80
170793	7	Sololá	712	San Antonio Palopó	9	San Antonio Palopo	5	Mayo	2023-05-13T00:00:00	2024-11-08T06:00:00	6	Velocidad del viento	6.4
170794	7	Sololá	712	San Antonio Palopó	9	San Antonio Palopo	5	Mayo	2023-05-13T00:00:00	2024-11-08T06:00:00	7	Dirección del viento	6.44
170795	7	Sololá	712	San Antonio Palopó	9	San Antonio Palopo	5	Mayo	2023-05-13T00:00:00	2024-11-08T06:00:00	1	Precipitación	0
170796	7	Sololá	712	San Antonio Palopó	9	San Antonio Palopo	5	Mayo	2023-05-13T00:00:00	2024-11-08T06:00:00	8	Radiación solar	3
170797	7	Sololá	712	San Antonio Palopó	9	San Antonio Palopo	5	Mayo	2023-05-13T00:00:00	2024-11-08T07:00:00	2	Temperatura media	19.3
170798	7	Sololá	712	San Antonio Palopó	9	San Antonio Palopo	5	Mayo	2023-05-13T00:00:00	2024-11-08T07:00:00	4	Temperatura máxima	19.3
170799	7	Sololá	712	San Antonio Palopó	9	San Antonio Palopo	5	Mayo	2023-05-13T00:00:00	2024-11-08T07:00:00	3	Temperatura mínima	19.1
170800	7	Sololá	712	San Antonio Palopó	9	San Antonio Palopo	5	Mayo	2023-05-13T00:00:00	2024-11-08T07:00:00	5	Humedad	78
170801	7	Sololá	712	San Antonio Palopó	9	San Antonio Palopo	5	Mayo	2023-05-13T00:00:00	2024-11-08T07:00:00	6	Velocidad del viento	6.4
170802	7	Sololá	712	San Antonio Palopó	9	San Antonio Palopo	5	Mayo	2023-05-13T00:00:00	2024-11-08T07:00:00	7	Dirección del viento	6.44
170803	7	Sololá	712	San Antonio Palopó	9	San Antonio Palopo	5	Mayo	2023-05-13T00:00:00	2024-11-08T07:00:00	1	Precipitación	0
170804	7	Sololá	712	San Antonio Palopó	9	San Antonio Palopo	5	Mayo	2023-05-13T00:00:00	2024-11-08T07:00:00	8	Radiación solar	44
170805	7	Sololá	712	San Antonio Palopó	9	San Antonio Palopo	5	Mayo	2023-05-13T00:00:00	2024-11-08T08:00:00	2	Temperatura media	21.1
170806	7	Sololá	712	San Antonio Palopó	9	San Antonio Palopo	5	Mayo	2023-05-13T00:00:00	2024-11-08T08:00:00	4	Temperatura máxima	21.1
170807	7	Sololá	712	San Antonio Palopó	9	San Antonio Palopo	5	Mayo	2023-05-13T00:00:00	2024-11-08T08:00:00	3	Temperatura mínima	19.3
170808	7	Sololá	712	San Antonio Palopó	9	San Antonio Palopo	5	Mayo	2023-05-13T00:00:00	2024-11-08T08:00:00	5	Humedad	75
170809	7	Sololá	712	San Antonio Palopó	9	San Antonio Palopo	5	Mayo	2023-05-13T00:00:00	2024-11-08T08:00:00	6	Velocidad del viento	1.6
170810	7	Sololá	712	San Antonio Palopó	9	San Antonio Palopo	5	Mayo	2023-05-13T00:00:00	2024-11-08T08:00:00	7	Dirección del viento	1.61
170811	7	Sololá	712	San Antonio Palopó	9	San Antonio Palopo	5	Mayo	2023-05-13T00:00:00	2024-11-08T08:00:00	1	Precipitación	0
170812	7	Sololá	712	San Antonio Palopó	9	San Antonio Palopo	5	Mayo	2023-05-13T00:00:00	2024-11-08T08:00:00	8	Radiación solar	202
170813	7	Sololá	712	San Antonio Palopó	9	San Antonio Palopo	5	Mayo	2023-05-13T00:00:00	2024-11-08T09:00:00	2	Temperatura media	21.3
170814	7	Sololá	712	San Antonio Palopó	9	San Antonio Palopo	5	Mayo	2023-05-13T00:00:00	2024-11-08T09:00:00	4	Temperatura máxima	21.7
170815	7	Sololá	712	San Antonio Palopó	9	San Antonio Palopo	5	Mayo	2023-05-13T00:00:00	2024-11-08T09:00:00	3	Temperatura mínima	21.1
170816	7	Sololá	712	San Antonio Palopó	9	San Antonio Palopo	5	Mayo	2023-05-13T00:00:00	2024-11-08T09:00:00	5	Humedad	75
170817	7	Sololá	712	San Antonio Palopó	9	San Antonio Palopo	5	Mayo	2023-05-13T00:00:00	2024-11-08T09:00:00	6	Velocidad del viento	1.6
170818	7	Sololá	712	San Antonio Palopó	9	San Antonio Palopo	5	Mayo	2023-05-13T00:00:00	2024-11-08T09:00:00	7	Dirección del viento	1.61
170819	7	Sololá	712	San Antonio Palopó	9	San Antonio Palopo	5	Mayo	2023-05-13T00:00:00	2024-11-08T09:00:00	1	Precipitación	0
170820	7	Sololá	712	San Antonio Palopó	9	San Antonio Palopo	5	Mayo	2023-05-13T00:00:00	2024-11-08T09:00:00	8	Radiación solar	487
170821	7	Sololá	712	San Antonio Palopó	9	San Antonio Palopo	5	Mayo	2023-05-13T00:00:00	2024-11-08T10:00:00	2	Temperatura media	21.9
170822	7	Sololá	712	San Antonio Palopó	9	San Antonio Palopo	5	Mayo	2023-05-13T00:00:00	2024-11-08T10:00:00	4	Temperatura máxima	22.1
170823	7	Sololá	712	San Antonio Palopó	9	San Antonio Palopo	5	Mayo	2023-05-13T00:00:00	2024-11-08T10:00:00	3	Temperatura mínima	21.2
170824	7	Sololá	712	San Antonio Palopó	9	San Antonio Palopo	5	Mayo	2023-05-13T00:00:00	2024-11-08T10:00:00	5	Humedad	75
170825	7	Sololá	712	San Antonio Palopó	9	San Antonio Palopo	5	Mayo	2023-05-13T00:00:00	2024-11-08T10:00:00	6	Velocidad del viento	3.2
170826	7	Sololá	712	San Antonio Palopó	9	San Antonio Palopo	5	Mayo	2023-05-13T00:00:00	2024-11-08T10:00:00	7	Dirección del viento	3.22
170827	7	Sololá	712	San Antonio Palopó	9	San Antonio Palopo	5	Mayo	2023-05-13T00:00:00	2024-11-08T10:00:00	1	Precipitación	0
170828	7	Sololá	712	San Antonio Palopó	9	San Antonio Palopo	5	Mayo	2023-05-13T00:00:00	2024-11-08T10:00:00	8	Radiación solar	684
170829	7	Sololá	712	San Antonio Palopó	9	San Antonio Palopo	5	Mayo	2023-05-13T00:00:00	2024-11-08T11:00:00	2	Temperatura media	23
170830	7	Sololá	712	San Antonio Palopó	9	San Antonio Palopo	5	Mayo	2023-05-13T00:00:00	2024-11-08T11:00:00	4	Temperatura máxima	23.1
170831	7	Sololá	712	San Antonio Palopó	9	San Antonio Palopo	5	Mayo	2023-05-13T00:00:00	2024-11-08T11:00:00	3	Temperatura mínima	21.9
170832	7	Sololá	712	San Antonio Palopó	9	San Antonio Palopo	5	Mayo	2023-05-13T00:00:00	2024-11-08T11:00:00	5	Humedad	68
170833	7	Sololá	712	San Antonio Palopó	9	San Antonio Palopo	5	Mayo	2023-05-13T00:00:00	2024-11-08T11:00:00	6	Velocidad del viento	9.7
170834	7	Sololá	712	San Antonio Palopó	9	San Antonio Palopo	5	Mayo	2023-05-13T00:00:00	2024-11-08T11:00:00	7	Dirección del viento	9.66
170835	7	Sololá	712	San Antonio Palopó	9	San Antonio Palopo	5	Mayo	2023-05-13T00:00:00	2024-11-08T11:00:00	1	Precipitación	0
170836	7	Sololá	712	San Antonio Palopó	9	San Antonio Palopo	5	Mayo	2023-05-13T00:00:00	2024-11-08T11:00:00	8	Radiación solar	842
170837	7	Sololá	712	San Antonio Palopó	9	San Antonio Palopo	5	Mayo	2023-05-13T00:00:00	2024-11-08T12:00:00	2	Temperatura media	23.4
170838	7	Sololá	712	San Antonio Palopó	9	San Antonio Palopo	5	Mayo	2023-05-13T00:00:00	2024-11-08T12:00:00	4	Temperatura máxima	24.2
170839	7	Sololá	712	San Antonio Palopó	9	San Antonio Palopo	5	Mayo	2023-05-13T00:00:00	2024-11-08T12:00:00	3	Temperatura mínima	23
170840	7	Sololá	712	San Antonio Palopó	9	San Antonio Palopo	5	Mayo	2023-05-13T00:00:00	2024-11-08T12:00:00	5	Humedad	70
170841	7	Sololá	712	San Antonio Palopó	9	San Antonio Palopo	5	Mayo	2023-05-13T00:00:00	2024-11-08T12:00:00	6	Velocidad del viento	8
170842	7	Sololá	712	San Antonio Palopó	9	San Antonio Palopo	5	Mayo	2023-05-13T00:00:00	2024-11-08T12:00:00	7	Dirección del viento	8.05
170843	7	Sololá	712	San Antonio Palopó	9	San Antonio Palopo	5	Mayo	2023-05-13T00:00:00	2024-11-08T12:00:00	1	Precipitación	0
170844	7	Sololá	712	San Antonio Palopó	9	San Antonio Palopo	5	Mayo	2023-05-13T00:00:00	2024-11-08T12:00:00	8	Radiación solar	925
170845	7	Sololá	712	San Antonio Palopó	9	San Antonio Palopo	5	Mayo	2023-05-13T00:00:00	2024-11-08T13:00:00	2	Temperatura media	23.3
170846	7	Sololá	712	San Antonio Palopó	9	San Antonio Palopo	5	Mayo	2023-05-13T00:00:00	2024-11-08T13:00:00	4	Temperatura máxima	24.2
170847	7	Sololá	712	San Antonio Palopó	9	San Antonio Palopo	5	Mayo	2023-05-13T00:00:00	2024-11-08T13:00:00	3	Temperatura mínima	23.2
170848	7	Sololá	712	San Antonio Palopó	9	San Antonio Palopo	5	Mayo	2023-05-13T00:00:00	2024-11-08T13:00:00	5	Humedad	70
170849	7	Sololá	712	San Antonio Palopó	9	San Antonio Palopo	5	Mayo	2023-05-13T00:00:00	2024-11-08T13:00:00	6	Velocidad del viento	11.3
170850	7	Sololá	712	San Antonio Palopó	9	San Antonio Palopo	5	Mayo	2023-05-13T00:00:00	2024-11-08T13:00:00	7	Dirección del viento	11.27
170851	7	Sololá	712	San Antonio Palopó	9	San Antonio Palopo	5	Mayo	2023-05-13T00:00:00	2024-11-08T13:00:00	1	Precipitación	0
170852	7	Sololá	712	San Antonio Palopó	9	San Antonio Palopo	5	Mayo	2023-05-13T00:00:00	2024-11-08T13:00:00	8	Radiación solar	935
170853	7	Sololá	712	San Antonio Palopó	9	San Antonio Palopo	5	Mayo	2023-05-13T00:00:00	2024-11-08T14:00:00	2	Temperatura media	22.1
170854	7	Sololá	712	San Antonio Palopó	9	San Antonio Palopo	5	Mayo	2023-05-13T00:00:00	2024-11-08T14:00:00	4	Temperatura máxima	23.5
170855	7	Sololá	712	San Antonio Palopó	9	San Antonio Palopo	5	Mayo	2023-05-13T00:00:00	2024-11-08T14:00:00	3	Temperatura mínima	21.9
170856	7	Sololá	712	San Antonio Palopó	9	San Antonio Palopo	5	Mayo	2023-05-13T00:00:00	2024-11-08T14:00:00	5	Humedad	76
170857	7	Sololá	712	San Antonio Palopó	9	San Antonio Palopo	5	Mayo	2023-05-13T00:00:00	2024-11-08T14:00:00	6	Velocidad del viento	8
170858	7	Sololá	712	San Antonio Palopó	9	San Antonio Palopo	5	Mayo	2023-05-13T00:00:00	2024-11-08T14:00:00	7	Dirección del viento	8.05
170859	7	Sololá	712	San Antonio Palopó	9	San Antonio Palopo	5	Mayo	2023-05-13T00:00:00	2024-11-08T14:00:00	1	Precipitación	0
170860	7	Sololá	712	San Antonio Palopó	9	San Antonio Palopo	5	Mayo	2023-05-13T00:00:00	2024-11-08T14:00:00	8	Radiación solar	254
170861	7	Sololá	712	San Antonio Palopó	9	San Antonio Palopo	5	Mayo	2023-05-13T00:00:00	2024-11-08T15:00:00	2	Temperatura media	21.5
170862	7	Sololá	712	San Antonio Palopó	9	San Antonio Palopo	5	Mayo	2023-05-13T00:00:00	2024-11-08T15:00:00	4	Temperatura máxima	22.2
170863	7	Sololá	712	San Antonio Palopó	9	San Antonio Palopo	5	Mayo	2023-05-13T00:00:00	2024-11-08T15:00:00	3	Temperatura mínima	21.5
170864	7	Sololá	712	San Antonio Palopó	9	San Antonio Palopo	5	Mayo	2023-05-13T00:00:00	2024-11-08T15:00:00	5	Humedad	74
170865	7	Sololá	712	San Antonio Palopó	9	San Antonio Palopo	5	Mayo	2023-05-13T00:00:00	2024-11-08T15:00:00	6	Velocidad del viento	6.4
170866	7	Sololá	712	San Antonio Palopó	9	San Antonio Palopo	5	Mayo	2023-05-13T00:00:00	2024-11-08T15:00:00	7	Dirección del viento	6.44
170867	7	Sololá	712	San Antonio Palopó	9	San Antonio Palopo	5	Mayo	2023-05-13T00:00:00	2024-11-08T15:00:00	1	Precipitación	0
170868	7	Sololá	712	San Antonio Palopó	9	San Antonio Palopo	5	Mayo	2023-05-13T00:00:00	2024-11-08T15:00:00	8	Radiación solar	206
170869	7	Sololá	712	San Antonio Palopó	9	San Antonio Palopo	5	Mayo	2023-05-13T00:00:00	2024-11-08T16:00:00	2	Temperatura media	20.7
170870	7	Sololá	712	San Antonio Palopó	9	San Antonio Palopo	5	Mayo	2023-05-13T00:00:00	2024-11-08T16:00:00	4	Temperatura máxima	21.8
170871	7	Sololá	712	San Antonio Palopó	9	San Antonio Palopo	5	Mayo	2023-05-13T00:00:00	2024-11-08T16:00:00	3	Temperatura mínima	20.4
170872	7	Sololá	712	San Antonio Palopó	9	San Antonio Palopo	5	Mayo	2023-05-13T00:00:00	2024-11-08T16:00:00	5	Humedad	79
170873	7	Sololá	712	San Antonio Palopó	9	San Antonio Palopo	5	Mayo	2023-05-13T00:00:00	2024-11-08T16:00:00	6	Velocidad del viento	8
170874	7	Sololá	712	San Antonio Palopó	9	San Antonio Palopo	5	Mayo	2023-05-13T00:00:00	2024-11-08T16:00:00	7	Dirección del viento	8.05
170875	7	Sololá	712	San Antonio Palopó	9	San Antonio Palopo	5	Mayo	2023-05-13T00:00:00	2024-11-08T16:00:00	1	Precipitación	0
170876	7	Sololá	712	San Antonio Palopó	9	San Antonio Palopo	5	Mayo	2023-05-13T00:00:00	2024-11-08T16:00:00	8	Radiación solar	101
170877	7	Sololá	712	San Antonio Palopó	9	San Antonio Palopo	5	Mayo	2023-05-13T00:00:00	2024-11-08T17:00:00	2	Temperatura media	19.6
170878	7	Sololá	712	San Antonio Palopó	9	San Antonio Palopo	5	Mayo	2023-05-13T00:00:00	2024-11-08T17:00:00	4	Temperatura máxima	20.8
170879	7	Sololá	712	San Antonio Palopó	9	San Antonio Palopo	5	Mayo	2023-05-13T00:00:00	2024-11-08T17:00:00	3	Temperatura mínima	19.6
170880	7	Sololá	712	San Antonio Palopó	9	San Antonio Palopo	5	Mayo	2023-05-13T00:00:00	2024-11-08T17:00:00	5	Humedad	88
170881	7	Sololá	712	San Antonio Palopó	9	San Antonio Palopo	5	Mayo	2023-05-13T00:00:00	2024-11-08T17:00:00	6	Velocidad del viento	4.8
170882	7	Sololá	712	San Antonio Palopó	9	San Antonio Palopo	5	Mayo	2023-05-13T00:00:00	2024-11-08T17:00:00	7	Dirección del viento	4.83
170883	7	Sololá	712	San Antonio Palopó	9	San Antonio Palopo	5	Mayo	2023-05-13T00:00:00	2024-11-08T17:00:00	1	Precipitación	1.6
170884	7	Sololá	712	San Antonio Palopó	9	San Antonio Palopo	5	Mayo	2023-05-13T00:00:00	2024-11-08T17:00:00	8	Radiación solar	56
170885	7	Sololá	712	San Antonio Palopó	9	San Antonio Palopo	5	Mayo	2023-05-13T00:00:00	2024-11-08T18:00:00	2	Temperatura media	19.6
170886	7	Sololá	712	San Antonio Palopó	9	San Antonio Palopo	5	Mayo	2023-05-13T00:00:00	2024-11-08T18:00:00	4	Temperatura máxima	19.7
170887	7	Sololá	712	San Antonio Palopó	9	San Antonio Palopo	5	Mayo	2023-05-13T00:00:00	2024-11-08T18:00:00	3	Temperatura mínima	19.4
170888	7	Sololá	712	San Antonio Palopó	9	San Antonio Palopo	5	Mayo	2023-05-13T00:00:00	2024-11-08T18:00:00	5	Humedad	87
170889	7	Sololá	712	San Antonio Palopó	9	San Antonio Palopo	5	Mayo	2023-05-13T00:00:00	2024-11-08T18:00:00	6	Velocidad del viento	1.6
170890	7	Sololá	712	San Antonio Palopó	9	San Antonio Palopo	5	Mayo	2023-05-13T00:00:00	2024-11-08T18:00:00	7	Dirección del viento	1.61
170891	7	Sololá	712	San Antonio Palopó	9	San Antonio Palopo	5	Mayo	2023-05-13T00:00:00	2024-11-08T18:00:00	1	Precipitación	0.4
170892	7	Sololá	712	San Antonio Palopó	9	San Antonio Palopo	5	Mayo	2023-05-13T00:00:00	2024-11-08T18:00:00	8	Radiación solar	15
170893	7	Sololá	712	San Antonio Palopó	9	San Antonio Palopo	5	Mayo	2023-05-13T00:00:00	2024-11-08T19:00:00	2	Temperatura media	19.3
170894	7	Sololá	712	San Antonio Palopó	9	San Antonio Palopo	5	Mayo	2023-05-13T00:00:00	2024-11-08T19:00:00	4	Temperatura máxima	19.6
170895	7	Sololá	712	San Antonio Palopó	9	San Antonio Palopo	5	Mayo	2023-05-13T00:00:00	2024-11-08T19:00:00	3	Temperatura mínima	19
170896	7	Sololá	712	San Antonio Palopó	9	San Antonio Palopo	5	Mayo	2023-05-13T00:00:00	2024-11-08T19:00:00	5	Humedad	88
170897	7	Sololá	712	San Antonio Palopó	9	San Antonio Palopo	5	Mayo	2023-05-13T00:00:00	2024-11-08T19:00:00	6	Velocidad del viento	1.6
170898	7	Sololá	712	San Antonio Palopó	9	San Antonio Palopo	5	Mayo	2023-05-13T00:00:00	2024-11-08T19:00:00	7	Dirección del viento	1.61
170899	7	Sololá	712	San Antonio Palopó	9	San Antonio Palopo	5	Mayo	2023-05-13T00:00:00	2024-11-08T19:00:00	1	Precipitación	0
170900	7	Sololá	712	San Antonio Palopó	9	San Antonio Palopo	5	Mayo	2023-05-13T00:00:00	2024-11-08T19:00:00	8	Radiación solar	0
170901	7	Sololá	712	San Antonio Palopó	9	San Antonio Palopo	5	Mayo	2023-05-13T00:00:00	2024-11-08T20:00:00	2	Temperatura media	18.8
170902	7	Sololá	712	San Antonio Palopó	9	San Antonio Palopo	5	Mayo	2023-05-13T00:00:00	2024-11-08T20:00:00	4	Temperatura máxima	19.6
170903	7	Sololá	712	San Antonio Palopó	9	San Antonio Palopo	5	Mayo	2023-05-13T00:00:00	2024-11-08T20:00:00	3	Temperatura mínima	18.7
170904	7	Sololá	712	San Antonio Palopó	9	San Antonio Palopo	5	Mayo	2023-05-13T00:00:00	2024-11-08T20:00:00	5	Humedad	86
170905	7	Sololá	712	San Antonio Palopó	9	San Antonio Palopo	5	Mayo	2023-05-13T00:00:00	2024-11-08T20:00:00	6	Velocidad del viento	3.2
170906	7	Sololá	712	San Antonio Palopó	9	San Antonio Palopo	5	Mayo	2023-05-13T00:00:00	2024-11-08T20:00:00	7	Dirección del viento	3.22
170907	7	Sololá	712	San Antonio Palopó	9	San Antonio Palopo	5	Mayo	2023-05-13T00:00:00	2024-11-08T20:00:00	1	Precipitación	0
170908	7	Sololá	712	San Antonio Palopó	9	San Antonio Palopo	5	Mayo	2023-05-13T00:00:00	2024-11-08T20:00:00	8	Radiación solar	0
170909	7	Sololá	712	San Antonio Palopó	9	San Antonio Palopo	5	Mayo	2023-05-13T00:00:00	2024-11-08T21:00:00	2	Temperatura media	19.1
170910	7	Sololá	712	San Antonio Palopó	9	San Antonio Palopo	5	Mayo	2023-05-13T00:00:00	2024-11-08T21:00:00	4	Temperatura máxima	19.1
170911	7	Sololá	712	San Antonio Palopó	9	San Antonio Palopo	5	Mayo	2023-05-13T00:00:00	2024-11-08T21:00:00	3	Temperatura mínima	18.5
170912	7	Sololá	712	San Antonio Palopó	9	San Antonio Palopo	5	Mayo	2023-05-13T00:00:00	2024-11-08T21:00:00	5	Humedad	86
170913	7	Sololá	712	San Antonio Palopó	9	San Antonio Palopo	5	Mayo	2023-05-13T00:00:00	2024-11-08T21:00:00	6	Velocidad del viento	3.2
170914	7	Sololá	712	San Antonio Palopó	9	San Antonio Palopo	5	Mayo	2023-05-13T00:00:00	2024-11-08T21:00:00	7	Dirección del viento	3.22
170915	7	Sololá	712	San Antonio Palopó	9	San Antonio Palopo	5	Mayo	2023-05-13T00:00:00	2024-11-08T21:00:00	1	Precipitación	0
170916	7	Sololá	712	San Antonio Palopó	9	San Antonio Palopo	5	Mayo	2023-05-13T00:00:00	2024-11-08T21:00:00	8	Radiación solar	0
170917	7	Sololá	712	San Antonio Palopó	9	San Antonio Palopo	5	Mayo	2023-05-13T00:00:00	2024-11-08T22:00:00	2	Temperatura media	19.3
170918	7	Sololá	712	San Antonio Palopó	9	San Antonio Palopo	5	Mayo	2023-05-13T00:00:00	2024-11-08T22:00:00	4	Temperatura máxima	19.3
170919	7	Sololá	712	San Antonio Palopó	9	San Antonio Palopo	5	Mayo	2023-05-13T00:00:00	2024-11-08T22:00:00	3	Temperatura mínima	18.3
170920	7	Sololá	712	San Antonio Palopó	9	San Antonio Palopo	5	Mayo	2023-05-13T00:00:00	2024-11-08T22:00:00	5	Humedad	87
170921	7	Sololá	712	San Antonio Palopó	9	San Antonio Palopo	5	Mayo	2023-05-13T00:00:00	2024-11-08T22:00:00	6	Velocidad del viento	3.2
170922	7	Sololá	712	San Antonio Palopó	9	San Antonio Palopo	5	Mayo	2023-05-13T00:00:00	2024-11-08T22:00:00	7	Dirección del viento	3.22
170923	7	Sololá	712	San Antonio Palopó	9	San Antonio Palopo	5	Mayo	2023-05-13T00:00:00	2024-11-08T22:00:00	1	Precipitación	0
170924	7	Sololá	712	San Antonio Palopó	9	San Antonio Palopo	5	Mayo	2023-05-13T00:00:00	2024-11-08T22:00:00	8	Radiación solar	0
170925	7	Sololá	712	San Antonio Palopó	9	San Antonio Palopo	5	Mayo	2023-05-13T00:00:00	2024-11-08T23:00:00	2	Temperatura media	19.2
170926	7	Sololá	712	San Antonio Palopó	9	San Antonio Palopo	5	Mayo	2023-05-13T00:00:00	2024-11-08T23:00:00	4	Temperatura máxima	19.3
170927	7	Sololá	712	San Antonio Palopó	9	San Antonio Palopo	5	Mayo	2023-05-13T00:00:00	2024-11-08T23:00:00	3	Temperatura mínima	19.1
170928	7	Sololá	712	San Antonio Palopó	9	San Antonio Palopo	5	Mayo	2023-05-13T00:00:00	2024-11-08T23:00:00	5	Humedad	86
170929	7	Sololá	712	San Antonio Palopó	9	San Antonio Palopo	5	Mayo	2023-05-13T00:00:00	2024-11-08T23:00:00	6	Velocidad del viento	1.6
170930	7	Sololá	712	San Antonio Palopó	9	San Antonio Palopo	5	Mayo	2023-05-13T00:00:00	2024-11-08T23:00:00	7	Dirección del viento	1.61
170931	7	Sololá	712	San Antonio Palopó	9	San Antonio Palopo	5	Mayo	2023-05-13T00:00:00	2024-11-08T23:00:00	1	Precipitación	0
170932	7	Sololá	712	San Antonio Palopó	9	San Antonio Palopo	5	Mayo	2023-05-13T00:00:00	2024-11-08T23:00:00	8	Radiación solar	0
170933	7	Sololá	712	San Antonio Palopó	9	San Antonio Palopo	5	Mayo	2023-05-14T00:00:00	2024-11-08T00:00:00	2	Temperatura media	19.1
170934	7	Sololá	712	San Antonio Palopó	9	San Antonio Palopo	5	Mayo	2023-05-14T00:00:00	2024-11-08T00:00:00	4	Temperatura máxima	19.2
170935	7	Sololá	712	San Antonio Palopó	9	San Antonio Palopo	5	Mayo	2023-05-14T00:00:00	2024-11-08T00:00:00	3	Temperatura mínima	18.7
170936	7	Sololá	712	San Antonio Palopó	9	San Antonio Palopo	5	Mayo	2023-05-14T00:00:00	2024-11-08T00:00:00	5	Humedad	88
170937	7	Sololá	712	San Antonio Palopó	9	San Antonio Palopo	5	Mayo	2023-05-14T00:00:00	2024-11-08T00:00:00	6	Velocidad del viento	1.6
170938	7	Sololá	712	San Antonio Palopó	9	San Antonio Palopo	5	Mayo	2023-05-14T00:00:00	2024-11-08T00:00:00	7	Dirección del viento	1.61
170939	7	Sololá	712	San Antonio Palopó	9	San Antonio Palopo	5	Mayo	2023-05-14T00:00:00	2024-11-08T00:00:00	1	Precipitación	0
170940	7	Sololá	712	San Antonio Palopó	9	San Antonio Palopo	5	Mayo	2023-05-14T00:00:00	2024-11-08T00:00:00	8	Radiación solar	0
170941	7	Sololá	712	San Antonio Palopó	9	San Antonio Palopo	5	Mayo	2023-05-14T00:00:00	2024-11-08T01:00:00	2	Temperatura media	18.8
170942	7	Sololá	712	San Antonio Palopó	9	San Antonio Palopo	5	Mayo	2023-05-14T00:00:00	2024-11-08T01:00:00	4	Temperatura máxima	19.2
170943	7	Sololá	712	San Antonio Palopó	9	San Antonio Palopo	5	Mayo	2023-05-14T00:00:00	2024-11-08T01:00:00	3	Temperatura mínima	18.8
170944	7	Sololá	712	San Antonio Palopó	9	San Antonio Palopo	5	Mayo	2023-05-14T00:00:00	2024-11-08T01:00:00	5	Humedad	87
170945	7	Sololá	712	San Antonio Palopó	9	San Antonio Palopo	5	Mayo	2023-05-14T00:00:00	2024-11-08T01:00:00	6	Velocidad del viento	1.6
170946	7	Sololá	712	San Antonio Palopó	9	San Antonio Palopo	5	Mayo	2023-05-14T00:00:00	2024-11-08T01:00:00	7	Dirección del viento	1.61
170947	7	Sololá	712	San Antonio Palopó	9	San Antonio Palopo	5	Mayo	2023-05-14T00:00:00	2024-11-08T01:00:00	1	Precipitación	0
170948	7	Sololá	712	San Antonio Palopó	9	San Antonio Palopo	5	Mayo	2023-05-14T00:00:00	2024-11-08T01:00:00	8	Radiación solar	0
170949	7	Sololá	712	San Antonio Palopó	9	San Antonio Palopo	5	Mayo	2023-05-14T00:00:00	2024-11-08T02:00:00	2	Temperatura media	18.8
170950	7	Sololá	712	San Antonio Palopó	9	San Antonio Palopo	5	Mayo	2023-05-14T00:00:00	2024-11-08T02:00:00	4	Temperatura máxima	19.1
170951	7	Sololá	712	San Antonio Palopó	9	San Antonio Palopo	5	Mayo	2023-05-14T00:00:00	2024-11-08T02:00:00	3	Temperatura mínima	18.8
170952	7	Sololá	712	San Antonio Palopó	9	San Antonio Palopo	5	Mayo	2023-05-14T00:00:00	2024-11-08T02:00:00	5	Humedad	89
170953	7	Sololá	712	San Antonio Palopó	9	San Antonio Palopo	5	Mayo	2023-05-14T00:00:00	2024-11-08T02:00:00	6	Velocidad del viento	3.2
170954	7	Sololá	712	San Antonio Palopó	9	San Antonio Palopo	5	Mayo	2023-05-14T00:00:00	2024-11-08T02:00:00	7	Dirección del viento	3.22
170955	7	Sololá	712	San Antonio Palopó	9	San Antonio Palopo	5	Mayo	2023-05-14T00:00:00	2024-11-08T02:00:00	1	Precipitación	4
170956	7	Sololá	712	San Antonio Palopó	9	San Antonio Palopo	5	Mayo	2023-05-14T00:00:00	2024-11-08T02:00:00	8	Radiación solar	0
170957	7	Sololá	712	San Antonio Palopó	9	San Antonio Palopo	5	Mayo	2023-05-14T00:00:00	2024-11-08T03:00:00	2	Temperatura media	18.2
170958	7	Sololá	712	San Antonio Palopó	9	San Antonio Palopo	5	Mayo	2023-05-14T00:00:00	2024-11-08T03:00:00	4	Temperatura máxima	18.8
170959	7	Sololá	712	San Antonio Palopó	9	San Antonio Palopo	5	Mayo	2023-05-14T00:00:00	2024-11-08T03:00:00	3	Temperatura mínima	17.9
170960	7	Sololá	712	San Antonio Palopó	9	San Antonio Palopo	5	Mayo	2023-05-14T00:00:00	2024-11-08T03:00:00	5	Humedad	89
170961	7	Sololá	712	San Antonio Palopó	9	San Antonio Palopo	5	Mayo	2023-05-14T00:00:00	2024-11-08T03:00:00	6	Velocidad del viento	1.6
170962	7	Sololá	712	San Antonio Palopó	9	San Antonio Palopo	5	Mayo	2023-05-14T00:00:00	2024-11-08T03:00:00	7	Dirección del viento	1.61
170963	7	Sololá	712	San Antonio Palopó	9	San Antonio Palopo	5	Mayo	2023-05-14T00:00:00	2024-11-08T03:00:00	1	Precipitación	1.6
170964	7	Sololá	712	San Antonio Palopó	9	San Antonio Palopo	5	Mayo	2023-05-14T00:00:00	2024-11-08T03:00:00	8	Radiación solar	0
170965	7	Sololá	712	San Antonio Palopó	9	San Antonio Palopo	5	Mayo	2023-05-14T00:00:00	2024-11-08T04:00:00	2	Temperatura media	17.4
170966	7	Sololá	712	San Antonio Palopó	9	San Antonio Palopo	5	Mayo	2023-05-14T00:00:00	2024-11-08T04:00:00	4	Temperatura máxima	18.6
170967	7	Sololá	712	San Antonio Palopó	9	San Antonio Palopo	5	Mayo	2023-05-14T00:00:00	2024-11-08T04:00:00	3	Temperatura mínima	17.4
170968	7	Sololá	712	San Antonio Palopó	9	San Antonio Palopo	5	Mayo	2023-05-14T00:00:00	2024-11-08T04:00:00	5	Humedad	77
170969	7	Sololá	712	San Antonio Palopó	9	San Antonio Palopo	5	Mayo	2023-05-14T00:00:00	2024-11-08T04:00:00	6	Velocidad del viento	19.3
170970	7	Sololá	712	San Antonio Palopó	9	San Antonio Palopo	5	Mayo	2023-05-14T00:00:00	2024-11-08T04:00:00	7	Dirección del viento	19.31
170971	7	Sololá	712	San Antonio Palopó	9	San Antonio Palopo	5	Mayo	2023-05-14T00:00:00	2024-11-08T04:00:00	1	Precipitación	0.2
170972	7	Sololá	712	San Antonio Palopó	9	San Antonio Palopo	5	Mayo	2023-05-14T00:00:00	2024-11-08T04:00:00	8	Radiación solar	0
170973	7	Sololá	712	San Antonio Palopó	9	San Antonio Palopo	5	Mayo	2023-05-14T00:00:00	2024-11-08T05:00:00	2	Temperatura media	18.2
170974	7	Sololá	712	San Antonio Palopó	9	San Antonio Palopo	5	Mayo	2023-05-14T00:00:00	2024-11-08T05:00:00	4	Temperatura máxima	18.4
170975	7	Sololá	712	San Antonio Palopó	9	San Antonio Palopo	5	Mayo	2023-05-14T00:00:00	2024-11-08T05:00:00	3	Temperatura mínima	17.3
170976	7	Sololá	712	San Antonio Palopó	9	San Antonio Palopo	5	Mayo	2023-05-14T00:00:00	2024-11-08T05:00:00	5	Humedad	72
170977	7	Sololá	712	San Antonio Palopó	9	San Antonio Palopo	5	Mayo	2023-05-14T00:00:00	2024-11-08T05:00:00	6	Velocidad del viento	17.7
170978	7	Sololá	712	San Antonio Palopó	9	San Antonio Palopo	5	Mayo	2023-05-14T00:00:00	2024-11-08T05:00:00	7	Dirección del viento	17.7
170979	7	Sololá	712	San Antonio Palopó	9	San Antonio Palopo	5	Mayo	2023-05-14T00:00:00	2024-11-08T05:00:00	1	Precipitación	0
170980	7	Sololá	712	San Antonio Palopó	9	San Antonio Palopo	5	Mayo	2023-05-14T00:00:00	2024-11-08T05:00:00	8	Radiación solar	0
170981	7	Sololá	712	San Antonio Palopó	9	San Antonio Palopo	5	Mayo	2023-05-14T00:00:00	2024-11-08T06:00:00	2	Temperatura media	17.9
170982	7	Sololá	712	San Antonio Palopó	9	San Antonio Palopo	5	Mayo	2023-05-14T00:00:00	2024-11-08T06:00:00	4	Temperatura máxima	18.3
170983	7	Sololá	712	San Antonio Palopó	9	San Antonio Palopo	5	Mayo	2023-05-14T00:00:00	2024-11-08T06:00:00	3	Temperatura mínima	17.8
170984	7	Sololá	712	San Antonio Palopó	9	San Antonio Palopo	5	Mayo	2023-05-14T00:00:00	2024-11-08T06:00:00	5	Humedad	71
170985	7	Sololá	712	San Antonio Palopó	9	San Antonio Palopo	5	Mayo	2023-05-14T00:00:00	2024-11-08T06:00:00	6	Velocidad del viento	6.4
170986	7	Sololá	712	San Antonio Palopó	9	San Antonio Palopo	5	Mayo	2023-05-14T00:00:00	2024-11-08T06:00:00	7	Dirección del viento	6.44
170987	7	Sololá	712	San Antonio Palopó	9	San Antonio Palopo	5	Mayo	2023-05-14T00:00:00	2024-11-08T06:00:00	1	Precipitación	0
170988	7	Sololá	712	San Antonio Palopó	9	San Antonio Palopo	5	Mayo	2023-05-14T00:00:00	2024-11-08T06:00:00	8	Radiación solar	1
170989	7	Sololá	712	San Antonio Palopó	9	San Antonio Palopo	5	Mayo	2023-05-14T00:00:00	2024-11-08T07:00:00	2	Temperatura media	18.2
170990	7	Sololá	712	San Antonio Palopó	9	San Antonio Palopo	5	Mayo	2023-05-14T00:00:00	2024-11-08T07:00:00	4	Temperatura máxima	18.5
170991	7	Sololá	712	San Antonio Palopó	9	San Antonio Palopo	5	Mayo	2023-05-14T00:00:00	2024-11-08T07:00:00	3	Temperatura mínima	17.9
170992	7	Sololá	712	San Antonio Palopó	9	San Antonio Palopo	5	Mayo	2023-05-14T00:00:00	2024-11-08T07:00:00	5	Humedad	69
170993	7	Sololá	712	San Antonio Palopó	9	San Antonio Palopo	5	Mayo	2023-05-14T00:00:00	2024-11-08T07:00:00	6	Velocidad del viento	11.3
170994	7	Sololá	712	San Antonio Palopó	9	San Antonio Palopo	5	Mayo	2023-05-14T00:00:00	2024-11-08T07:00:00	7	Dirección del viento	11.27
170995	7	Sololá	712	San Antonio Palopó	9	San Antonio Palopo	5	Mayo	2023-05-14T00:00:00	2024-11-08T07:00:00	1	Precipitación	0
170996	7	Sololá	712	San Antonio Palopó	9	San Antonio Palopo	5	Mayo	2023-05-14T00:00:00	2024-11-08T07:00:00	8	Radiación solar	14
170997	7	Sololá	712	San Antonio Palopó	9	San Antonio Palopo	5	Mayo	2023-05-14T00:00:00	2024-11-08T08:00:00	2	Temperatura media	19.4
170998	7	Sololá	712	San Antonio Palopó	9	San Antonio Palopo	5	Mayo	2023-05-14T00:00:00	2024-11-08T08:00:00	4	Temperatura máxima	19.4
170999	7	Sololá	712	San Antonio Palopó	9	San Antonio Palopo	5	Mayo	2023-05-14T00:00:00	2024-11-08T08:00:00	3	Temperatura mínima	18.2
171000	7	Sololá	712	San Antonio Palopó	9	San Antonio Palopo	5	Mayo	2023-05-14T00:00:00	2024-11-08T08:00:00	5	Humedad	67
171001	7	Sololá	712	San Antonio Palopó	9	San Antonio Palopo	5	Mayo	2023-05-14T00:00:00	2024-11-08T08:00:00	6	Velocidad del viento	6.4
171002	7	Sololá	712	San Antonio Palopó	9	San Antonio Palopo	5	Mayo	2023-05-14T00:00:00	2024-11-08T08:00:00	7	Dirección del viento	6.44
171003	7	Sololá	712	San Antonio Palopó	9	San Antonio Palopo	5	Mayo	2023-05-14T00:00:00	2024-11-08T08:00:00	1	Precipitación	0
171004	7	Sololá	712	San Antonio Palopó	9	San Antonio Palopo	5	Mayo	2023-05-14T00:00:00	2024-11-08T08:00:00	8	Radiación solar	65
171005	7	Sololá	712	San Antonio Palopó	9	San Antonio Palopo	5	Mayo	2023-05-14T00:00:00	2024-11-08T09:00:00	2	Temperatura media	20.9
171006	7	Sololá	712	San Antonio Palopó	9	San Antonio Palopo	5	Mayo	2023-05-14T00:00:00	2024-11-08T09:00:00	4	Temperatura máxima	20.9
171007	7	Sololá	712	San Antonio Palopó	9	San Antonio Palopo	5	Mayo	2023-05-14T00:00:00	2024-11-08T09:00:00	3	Temperatura mínima	19.4
171008	7	Sololá	712	San Antonio Palopó	9	San Antonio Palopo	5	Mayo	2023-05-14T00:00:00	2024-11-08T09:00:00	5	Humedad	67
171009	7	Sololá	712	San Antonio Palopó	9	San Antonio Palopo	5	Mayo	2023-05-14T00:00:00	2024-11-08T09:00:00	6	Velocidad del viento	3.2
171010	7	Sololá	712	San Antonio Palopó	9	San Antonio Palopo	5	Mayo	2023-05-14T00:00:00	2024-11-08T09:00:00	7	Dirección del viento	3.22
171011	7	Sololá	712	San Antonio Palopó	9	San Antonio Palopo	5	Mayo	2023-05-14T00:00:00	2024-11-08T09:00:00	1	Precipitación	0
171012	7	Sololá	712	San Antonio Palopó	9	San Antonio Palopo	5	Mayo	2023-05-14T00:00:00	2024-11-08T09:00:00	8	Radiación solar	334
171013	7	Sololá	712	San Antonio Palopó	9	San Antonio Palopo	5	Mayo	2023-05-14T00:00:00	2024-11-08T10:00:00	2	Temperatura media	21.5
171014	7	Sololá	712	San Antonio Palopó	9	San Antonio Palopo	5	Mayo	2023-05-14T00:00:00	2024-11-08T10:00:00	4	Temperatura máxima	21.5
171015	7	Sololá	712	San Antonio Palopó	9	San Antonio Palopo	5	Mayo	2023-05-14T00:00:00	2024-11-08T10:00:00	3	Temperatura mínima	20.8
171016	7	Sololá	712	San Antonio Palopó	9	San Antonio Palopo	5	Mayo	2023-05-14T00:00:00	2024-11-08T10:00:00	5	Humedad	67
171017	7	Sololá	712	San Antonio Palopó	9	San Antonio Palopo	5	Mayo	2023-05-14T00:00:00	2024-11-08T10:00:00	6	Velocidad del viento	1.6
171018	7	Sololá	712	San Antonio Palopó	9	San Antonio Palopo	5	Mayo	2023-05-14T00:00:00	2024-11-08T10:00:00	7	Dirección del viento	1.61
171019	7	Sololá	712	San Antonio Palopó	9	San Antonio Palopo	5	Mayo	2023-05-14T00:00:00	2024-11-08T10:00:00	1	Precipitación	0
171020	7	Sololá	712	San Antonio Palopó	9	San Antonio Palopo	5	Mayo	2023-05-14T00:00:00	2024-11-08T10:00:00	8	Radiación solar	328
171021	7	Sololá	712	San Antonio Palopó	9	San Antonio Palopo	5	Mayo	2023-05-14T00:00:00	2024-11-08T11:00:00	2	Temperatura media	22.7
171022	7	Sololá	712	San Antonio Palopó	9	San Antonio Palopo	5	Mayo	2023-05-14T00:00:00	2024-11-08T11:00:00	4	Temperatura máxima	22.7
171023	7	Sololá	712	San Antonio Palopó	9	San Antonio Palopo	5	Mayo	2023-05-14T00:00:00	2024-11-08T11:00:00	3	Temperatura mínima	21.5
171024	7	Sololá	712	San Antonio Palopó	9	San Antonio Palopo	5	Mayo	2023-05-14T00:00:00	2024-11-08T11:00:00	5	Humedad	54
171025	7	Sololá	712	San Antonio Palopó	9	San Antonio Palopo	5	Mayo	2023-05-14T00:00:00	2024-11-08T11:00:00	6	Velocidad del viento	6.4
171026	7	Sololá	712	San Antonio Palopó	9	San Antonio Palopo	5	Mayo	2023-05-14T00:00:00	2024-11-08T11:00:00	7	Dirección del viento	6.44
171027	7	Sololá	712	San Antonio Palopó	9	San Antonio Palopo	5	Mayo	2023-05-14T00:00:00	2024-11-08T11:00:00	1	Precipitación	0
171028	7	Sololá	712	San Antonio Palopó	9	San Antonio Palopo	5	Mayo	2023-05-14T00:00:00	2024-11-08T11:00:00	8	Radiación solar	534
171029	7	Sololá	712	San Antonio Palopó	9	San Antonio Palopo	5	Mayo	2023-05-14T00:00:00	2024-11-08T12:00:00	2	Temperatura media	23.5
171030	7	Sololá	712	San Antonio Palopó	9	San Antonio Palopo	5	Mayo	2023-05-14T00:00:00	2024-11-08T12:00:00	4	Temperatura máxima	23.6
171031	7	Sololá	712	San Antonio Palopó	9	San Antonio Palopo	5	Mayo	2023-05-14T00:00:00	2024-11-08T12:00:00	3	Temperatura mínima	22.7
171032	7	Sololá	712	San Antonio Palopó	9	San Antonio Palopo	5	Mayo	2023-05-14T00:00:00	2024-11-08T12:00:00	5	Humedad	56
171033	7	Sololá	712	San Antonio Palopó	9	San Antonio Palopo	5	Mayo	2023-05-14T00:00:00	2024-11-08T12:00:00	6	Velocidad del viento	6.4
171034	7	Sololá	712	San Antonio Palopó	9	San Antonio Palopo	5	Mayo	2023-05-14T00:00:00	2024-11-08T12:00:00	7	Dirección del viento	6.44
171035	7	Sololá	712	San Antonio Palopó	9	San Antonio Palopo	5	Mayo	2023-05-14T00:00:00	2024-11-08T12:00:00	1	Precipitación	0
171036	7	Sololá	712	San Antonio Palopó	9	San Antonio Palopo	5	Mayo	2023-05-14T00:00:00	2024-11-08T12:00:00	8	Radiación solar	733
171037	7	Sololá	712	San Antonio Palopó	9	San Antonio Palopo	5	Mayo	2023-05-14T00:00:00	2024-11-08T13:00:00	2	Temperatura media	23.6
171038	7	Sololá	712	San Antonio Palopó	9	San Antonio Palopo	5	Mayo	2023-05-14T00:00:00	2024-11-08T13:00:00	4	Temperatura máxima	24.5
171039	7	Sololá	712	San Antonio Palopó	9	San Antonio Palopo	5	Mayo	2023-05-14T00:00:00	2024-11-08T13:00:00	3	Temperatura mínima	23.4
171040	7	Sololá	712	San Antonio Palopó	9	San Antonio Palopo	5	Mayo	2023-05-14T00:00:00	2024-11-08T13:00:00	5	Humedad	57
171041	7	Sololá	712	San Antonio Palopó	9	San Antonio Palopo	5	Mayo	2023-05-14T00:00:00	2024-11-08T13:00:00	6	Velocidad del viento	3.2
171042	7	Sololá	712	San Antonio Palopó	9	San Antonio Palopo	5	Mayo	2023-05-14T00:00:00	2024-11-08T13:00:00	7	Dirección del viento	3.22
171043	7	Sololá	712	San Antonio Palopó	9	San Antonio Palopo	5	Mayo	2023-05-14T00:00:00	2024-11-08T13:00:00	1	Precipitación	0
171044	7	Sololá	712	San Antonio Palopó	9	San Antonio Palopo	5	Mayo	2023-05-14T00:00:00	2024-11-08T13:00:00	8	Radiación solar	910
171045	7	Sololá	712	San Antonio Palopó	9	San Antonio Palopo	5	Mayo	2023-05-14T00:00:00	2024-11-08T14:00:00	2	Temperatura media	24.3
171046	7	Sololá	712	San Antonio Palopó	9	San Antonio Palopo	5	Mayo	2023-05-14T00:00:00	2024-11-08T14:00:00	4	Temperatura máxima	24.4
171047	7	Sololá	712	San Antonio Palopó	9	San Antonio Palopo	5	Mayo	2023-05-14T00:00:00	2024-11-08T14:00:00	3	Temperatura mínima	23.6
171048	7	Sololá	712	San Antonio Palopó	9	San Antonio Palopo	5	Mayo	2023-05-14T00:00:00	2024-11-08T14:00:00	5	Humedad	67
171049	7	Sololá	712	San Antonio Palopó	9	San Antonio Palopo	5	Mayo	2023-05-14T00:00:00	2024-11-08T14:00:00	6	Velocidad del viento	3.2
171050	7	Sololá	712	San Antonio Palopó	9	San Antonio Palopo	5	Mayo	2023-05-14T00:00:00	2024-11-08T14:00:00	7	Dirección del viento	3.22
171051	7	Sololá	712	San Antonio Palopó	9	San Antonio Palopo	5	Mayo	2023-05-14T00:00:00	2024-11-08T14:00:00	1	Precipitación	0
171052	7	Sololá	712	San Antonio Palopó	9	San Antonio Palopo	5	Mayo	2023-05-14T00:00:00	2024-11-08T14:00:00	8	Radiación solar	650
171053	7	Sololá	712	San Antonio Palopó	9	San Antonio Palopo	5	Mayo	2023-05-14T00:00:00	2024-11-08T15:00:00	2	Temperatura media	25
171054	7	Sololá	712	San Antonio Palopó	9	San Antonio Palopo	5	Mayo	2023-05-14T00:00:00	2024-11-08T15:00:00	4	Temperatura máxima	25.1
171055	7	Sololá	712	San Antonio Palopó	9	San Antonio Palopo	5	Mayo	2023-05-14T00:00:00	2024-11-08T15:00:00	3	Temperatura mínima	24.1
171056	7	Sololá	712	San Antonio Palopó	9	San Antonio Palopo	5	Mayo	2023-05-14T00:00:00	2024-11-08T15:00:00	5	Humedad	64
171057	7	Sololá	712	San Antonio Palopó	9	San Antonio Palopo	5	Mayo	2023-05-14T00:00:00	2024-11-08T15:00:00	6	Velocidad del viento	4.8
171058	7	Sololá	712	San Antonio Palopó	9	San Antonio Palopo	5	Mayo	2023-05-14T00:00:00	2024-11-08T15:00:00	7	Dirección del viento	4.83
171059	7	Sololá	712	San Antonio Palopó	9	San Antonio Palopo	5	Mayo	2023-05-14T00:00:00	2024-11-08T15:00:00	1	Precipitación	0
171060	7	Sololá	712	San Antonio Palopó	9	San Antonio Palopo	5	Mayo	2023-05-14T00:00:00	2024-11-08T15:00:00	8	Radiación solar	637
171061	7	Sololá	712	San Antonio Palopó	9	San Antonio Palopo	5	Mayo	2023-05-14T00:00:00	2024-11-08T16:00:00	2	Temperatura media	24.6
171062	7	Sololá	712	San Antonio Palopó	9	San Antonio Palopo	5	Mayo	2023-05-14T00:00:00	2024-11-08T16:00:00	4	Temperatura máxima	25.4
171063	7	Sololá	712	San Antonio Palopó	9	San Antonio Palopo	5	Mayo	2023-05-14T00:00:00	2024-11-08T16:00:00	3	Temperatura mínima	24.4
171064	7	Sololá	712	San Antonio Palopó	9	San Antonio Palopo	5	Mayo	2023-05-14T00:00:00	2024-11-08T16:00:00	5	Humedad	70
171065	7	Sololá	712	San Antonio Palopó	9	San Antonio Palopo	5	Mayo	2023-05-14T00:00:00	2024-11-08T16:00:00	6	Velocidad del viento	6.4
171066	7	Sololá	712	San Antonio Palopó	9	San Antonio Palopo	5	Mayo	2023-05-14T00:00:00	2024-11-08T16:00:00	7	Dirección del viento	6.44
171067	7	Sololá	712	San Antonio Palopó	9	San Antonio Palopo	5	Mayo	2023-05-14T00:00:00	2024-11-08T16:00:00	1	Precipitación	0
171068	7	Sololá	712	San Antonio Palopó	9	San Antonio Palopo	5	Mayo	2023-05-14T00:00:00	2024-11-08T16:00:00	8	Radiación solar	517
171069	7	Sololá	712	San Antonio Palopó	9	San Antonio Palopo	5	Mayo	2023-05-14T00:00:00	2024-11-08T17:00:00	2	Temperatura media	23.8
171070	7	Sololá	712	San Antonio Palopó	9	San Antonio Palopo	5	Mayo	2023-05-14T00:00:00	2024-11-08T17:00:00	4	Temperatura máxima	25.2
171071	7	Sololá	712	San Antonio Palopó	9	San Antonio Palopo	5	Mayo	2023-05-14T00:00:00	2024-11-08T17:00:00	3	Temperatura mínima	23.8
171072	7	Sololá	712	San Antonio Palopó	9	San Antonio Palopo	5	Mayo	2023-05-14T00:00:00	2024-11-08T17:00:00	5	Humedad	74
171073	7	Sololá	712	San Antonio Palopó	9	San Antonio Palopo	5	Mayo	2023-05-14T00:00:00	2024-11-08T17:00:00	6	Velocidad del viento	3.2
171074	7	Sololá	712	San Antonio Palopó	9	San Antonio Palopo	5	Mayo	2023-05-14T00:00:00	2024-11-08T17:00:00	7	Dirección del viento	3.22
171075	7	Sololá	712	San Antonio Palopó	9	San Antonio Palopo	5	Mayo	2023-05-14T00:00:00	2024-11-08T17:00:00	1	Precipitación	0
171076	7	Sololá	712	San Antonio Palopó	9	San Antonio Palopo	5	Mayo	2023-05-14T00:00:00	2024-11-08T17:00:00	8	Radiación solar	300
171077	7	Sololá	712	San Antonio Palopó	9	San Antonio Palopo	5	Mayo	2023-05-14T00:00:00	2024-11-08T18:00:00	2	Temperatura media	21.6
171078	7	Sololá	712	San Antonio Palopó	9	San Antonio Palopo	5	Mayo	2023-05-14T00:00:00	2024-11-08T18:00:00	4	Temperatura máxima	23.8
171079	7	Sololá	712	San Antonio Palopó	9	San Antonio Palopo	5	Mayo	2023-05-14T00:00:00	2024-11-08T18:00:00	3	Temperatura mínima	21.6
171080	7	Sololá	712	San Antonio Palopó	9	San Antonio Palopo	5	Mayo	2023-05-14T00:00:00	2024-11-08T18:00:00	5	Humedad	82
171081	7	Sololá	712	San Antonio Palopó	9	San Antonio Palopo	5	Mayo	2023-05-14T00:00:00	2024-11-08T18:00:00	6	Velocidad del viento	6.4
171082	7	Sololá	712	San Antonio Palopó	9	San Antonio Palopo	5	Mayo	2023-05-14T00:00:00	2024-11-08T18:00:00	7	Dirección del viento	6.44
171083	7	Sololá	712	San Antonio Palopó	9	San Antonio Palopo	5	Mayo	2023-05-14T00:00:00	2024-11-08T18:00:00	1	Precipitación	0
171084	7	Sololá	712	San Antonio Palopó	9	San Antonio Palopo	5	Mayo	2023-05-14T00:00:00	2024-11-08T18:00:00	8	Radiación solar	47
171085	7	Sololá	712	San Antonio Palopó	9	San Antonio Palopo	5	Mayo	2023-05-14T00:00:00	2024-11-08T19:00:00	2	Temperatura media	21.4
171086	7	Sololá	712	San Antonio Palopó	9	San Antonio Palopo	5	Mayo	2023-05-14T00:00:00	2024-11-08T19:00:00	4	Temperatura máxima	21.7
171087	7	Sololá	712	San Antonio Palopó	9	San Antonio Palopo	5	Mayo	2023-05-14T00:00:00	2024-11-08T19:00:00	3	Temperatura mínima	21.4
171088	7	Sololá	712	San Antonio Palopó	9	San Antonio Palopo	5	Mayo	2023-05-14T00:00:00	2024-11-08T19:00:00	5	Humedad	83
171089	7	Sololá	712	San Antonio Palopó	9	San Antonio Palopo	5	Mayo	2023-05-14T00:00:00	2024-11-08T19:00:00	6	Velocidad del viento	3.2
171090	7	Sololá	712	San Antonio Palopó	9	San Antonio Palopo	5	Mayo	2023-05-14T00:00:00	2024-11-08T19:00:00	7	Dirección del viento	3.22
171091	7	Sololá	712	San Antonio Palopó	9	San Antonio Palopo	5	Mayo	2023-05-14T00:00:00	2024-11-08T19:00:00	1	Precipitación	0
171092	7	Sololá	712	San Antonio Palopó	9	San Antonio Palopo	5	Mayo	2023-05-14T00:00:00	2024-11-08T19:00:00	8	Radiación solar	0
171093	7	Sololá	712	San Antonio Palopó	9	San Antonio Palopo	5	Mayo	2023-05-14T00:00:00	2024-11-08T20:00:00	2	Temperatura media	21
171094	7	Sololá	712	San Antonio Palopó	9	San Antonio Palopo	5	Mayo	2023-05-14T00:00:00	2024-11-08T20:00:00	4	Temperatura máxima	21.4
171095	7	Sololá	712	San Antonio Palopó	9	San Antonio Palopo	5	Mayo	2023-05-14T00:00:00	2024-11-08T20:00:00	3	Temperatura mínima	20.9
171096	7	Sololá	712	San Antonio Palopó	9	San Antonio Palopo	5	Mayo	2023-05-14T00:00:00	2024-11-08T20:00:00	5	Humedad	85
171097	7	Sololá	712	San Antonio Palopó	9	San Antonio Palopo	5	Mayo	2023-05-14T00:00:00	2024-11-08T20:00:00	6	Velocidad del viento	3.2
171098	7	Sololá	712	San Antonio Palopó	9	San Antonio Palopo	5	Mayo	2023-05-14T00:00:00	2024-11-08T20:00:00	7	Dirección del viento	3.22
171099	7	Sololá	712	San Antonio Palopó	9	San Antonio Palopo	5	Mayo	2023-05-14T00:00:00	2024-11-08T20:00:00	1	Precipitación	0
171100	7	Sololá	712	San Antonio Palopó	9	San Antonio Palopo	5	Mayo	2023-05-14T00:00:00	2024-11-08T20:00:00	8	Radiación solar	0
171101	7	Sololá	712	San Antonio Palopó	9	San Antonio Palopo	5	Mayo	2023-05-14T00:00:00	2024-11-08T21:00:00	2	Temperatura media	21.2
171102	7	Sololá	712	San Antonio Palopó	9	San Antonio Palopo	5	Mayo	2023-05-14T00:00:00	2024-11-08T21:00:00	4	Temperatura máxima	21.4
171103	7	Sololá	712	San Antonio Palopó	9	San Antonio Palopo	5	Mayo	2023-05-14T00:00:00	2024-11-08T21:00:00	3	Temperatura mínima	20.8
171104	7	Sololá	712	San Antonio Palopó	9	San Antonio Palopo	5	Mayo	2023-05-14T00:00:00	2024-11-08T21:00:00	5	Humedad	74
171105	7	Sololá	712	San Antonio Palopó	9	San Antonio Palopo	5	Mayo	2023-05-14T00:00:00	2024-11-08T21:00:00	6	Velocidad del viento	4.8
171106	7	Sololá	712	San Antonio Palopó	9	San Antonio Palopo	5	Mayo	2023-05-14T00:00:00	2024-11-08T21:00:00	7	Dirección del viento	4.83
171107	7	Sololá	712	San Antonio Palopó	9	San Antonio Palopo	5	Mayo	2023-05-14T00:00:00	2024-11-08T21:00:00	1	Precipitación	0
171108	7	Sololá	712	San Antonio Palopó	9	San Antonio Palopo	5	Mayo	2023-05-14T00:00:00	2024-11-08T21:00:00	8	Radiación solar	0
171109	7	Sololá	712	San Antonio Palopó	9	San Antonio Palopo	5	Mayo	2023-05-14T00:00:00	2024-11-08T22:00:00	2	Temperatura media	20.8
171110	7	Sololá	712	San Antonio Palopó	9	San Antonio Palopo	5	Mayo	2023-05-14T00:00:00	2024-11-08T22:00:00	4	Temperatura máxima	21.2
171111	7	Sololá	712	San Antonio Palopó	9	San Antonio Palopo	5	Mayo	2023-05-14T00:00:00	2024-11-08T22:00:00	3	Temperatura mínima	20.7
171112	7	Sololá	712	San Antonio Palopó	9	San Antonio Palopo	5	Mayo	2023-05-14T00:00:00	2024-11-08T22:00:00	5	Humedad	74
171113	7	Sololá	712	San Antonio Palopó	9	San Antonio Palopo	5	Mayo	2023-05-14T00:00:00	2024-11-08T22:00:00	6	Velocidad del viento	3.2
171114	7	Sololá	712	San Antonio Palopó	9	San Antonio Palopo	5	Mayo	2023-05-14T00:00:00	2024-11-08T22:00:00	7	Dirección del viento	3.22
171115	7	Sololá	712	San Antonio Palopó	9	San Antonio Palopo	5	Mayo	2023-05-14T00:00:00	2024-11-08T22:00:00	1	Precipitación	0
171116	7	Sololá	712	San Antonio Palopó	9	San Antonio Palopo	5	Mayo	2023-05-14T00:00:00	2024-11-08T22:00:00	8	Radiación solar	0
171117	7	Sololá	712	San Antonio Palopó	9	San Antonio Palopo	5	Mayo	2023-05-14T00:00:00	2024-11-08T23:00:00	2	Temperatura media	20.8
171118	7	Sololá	712	San Antonio Palopó	9	San Antonio Palopo	5	Mayo	2023-05-14T00:00:00	2024-11-08T23:00:00	4	Temperatura máxima	21.1
171119	7	Sololá	712	San Antonio Palopó	9	San Antonio Palopo	5	Mayo	2023-05-14T00:00:00	2024-11-08T23:00:00	3	Temperatura mínima	20.7
171120	7	Sololá	712	San Antonio Palopó	9	San Antonio Palopo	5	Mayo	2023-05-14T00:00:00	2024-11-08T23:00:00	5	Humedad	73
171121	7	Sololá	712	San Antonio Palopó	9	San Antonio Palopo	5	Mayo	2023-05-14T00:00:00	2024-11-08T23:00:00	6	Velocidad del viento	11.3
171122	7	Sololá	712	San Antonio Palopó	9	San Antonio Palopo	5	Mayo	2023-05-14T00:00:00	2024-11-08T23:00:00	7	Dirección del viento	11.27
171123	7	Sololá	712	San Antonio Palopó	9	San Antonio Palopo	5	Mayo	2023-05-14T00:00:00	2024-11-08T23:00:00	1	Precipitación	0
171124	7	Sololá	712	San Antonio Palopó	9	San Antonio Palopo	5	Mayo	2023-05-14T00:00:00	2024-11-08T23:00:00	8	Radiación solar	0
171125	7	Sololá	712	San Antonio Palopó	9	San Antonio Palopo	5	Mayo	2023-05-15T00:00:00	2024-11-08T00:00:00	2	Temperatura media	20.6
171126	7	Sololá	712	San Antonio Palopó	9	San Antonio Palopo	5	Mayo	2023-05-15T00:00:00	2024-11-08T00:00:00	4	Temperatura máxima	20.8
171127	7	Sololá	712	San Antonio Palopó	9	San Antonio Palopo	5	Mayo	2023-05-15T00:00:00	2024-11-08T00:00:00	3	Temperatura mínima	20.4
171128	7	Sololá	712	San Antonio Palopó	9	San Antonio Palopo	5	Mayo	2023-05-15T00:00:00	2024-11-08T00:00:00	5	Humedad	72
171129	7	Sololá	712	San Antonio Palopó	9	San Antonio Palopo	5	Mayo	2023-05-15T00:00:00	2024-11-08T00:00:00	6	Velocidad del viento	12.9
171130	7	Sololá	712	San Antonio Palopó	9	San Antonio Palopo	5	Mayo	2023-05-15T00:00:00	2024-11-08T00:00:00	7	Dirección del viento	12.87
171131	7	Sololá	712	San Antonio Palopó	9	San Antonio Palopo	5	Mayo	2023-05-15T00:00:00	2024-11-08T00:00:00	1	Precipitación	0
171132	7	Sololá	712	San Antonio Palopó	9	San Antonio Palopo	5	Mayo	2023-05-15T00:00:00	2024-11-08T00:00:00	8	Radiación solar	0
171133	7	Sololá	712	San Antonio Palopó	9	San Antonio Palopo	5	Mayo	2023-05-15T00:00:00	2024-11-08T01:00:00	2	Temperatura media	19.9
171134	7	Sololá	712	San Antonio Palopó	9	San Antonio Palopo	5	Mayo	2023-05-15T00:00:00	2024-11-08T01:00:00	4	Temperatura máxima	20.6
171135	7	Sololá	712	San Antonio Palopó	9	San Antonio Palopo	5	Mayo	2023-05-15T00:00:00	2024-11-08T01:00:00	3	Temperatura mínima	19.8
171136	7	Sololá	712	San Antonio Palopó	9	San Antonio Palopo	5	Mayo	2023-05-15T00:00:00	2024-11-08T01:00:00	5	Humedad	72
171137	7	Sololá	712	San Antonio Palopó	9	San Antonio Palopo	5	Mayo	2023-05-15T00:00:00	2024-11-08T01:00:00	6	Velocidad del viento	14.5
171138	7	Sololá	712	San Antonio Palopó	9	San Antonio Palopo	5	Mayo	2023-05-15T00:00:00	2024-11-08T01:00:00	7	Dirección del viento	14.48
171139	7	Sololá	712	San Antonio Palopó	9	San Antonio Palopo	5	Mayo	2023-05-15T00:00:00	2024-11-08T01:00:00	1	Precipitación	0
171140	7	Sololá	712	San Antonio Palopó	9	San Antonio Palopo	5	Mayo	2023-05-15T00:00:00	2024-11-08T01:00:00	8	Radiación solar	0
171141	7	Sololá	712	San Antonio Palopó	9	San Antonio Palopo	5	Mayo	2023-05-15T00:00:00	2024-11-08T02:00:00	2	Temperatura media	19.6
171142	7	Sololá	712	San Antonio Palopó	9	San Antonio Palopo	5	Mayo	2023-05-15T00:00:00	2024-11-08T02:00:00	4	Temperatura máxima	19.9
171143	7	Sololá	712	San Antonio Palopó	9	San Antonio Palopo	5	Mayo	2023-05-15T00:00:00	2024-11-08T02:00:00	3	Temperatura mínima	19.6
171144	7	Sololá	712	San Antonio Palopó	9	San Antonio Palopo	5	Mayo	2023-05-15T00:00:00	2024-11-08T02:00:00	5	Humedad	74
171145	7	Sololá	712	San Antonio Palopó	9	San Antonio Palopo	5	Mayo	2023-05-15T00:00:00	2024-11-08T02:00:00	6	Velocidad del viento	9.7
171146	7	Sololá	712	San Antonio Palopó	9	San Antonio Palopo	5	Mayo	2023-05-15T00:00:00	2024-11-08T02:00:00	7	Dirección del viento	9.66
171147	7	Sololá	712	San Antonio Palopó	9	San Antonio Palopo	5	Mayo	2023-05-15T00:00:00	2024-11-08T02:00:00	1	Precipitación	0
171148	7	Sololá	712	San Antonio Palopó	9	San Antonio Palopo	5	Mayo	2023-05-15T00:00:00	2024-11-08T02:00:00	8	Radiación solar	0
171149	7	Sololá	712	San Antonio Palopó	9	San Antonio Palopo	5	Mayo	2023-05-15T00:00:00	2024-11-08T03:00:00	2	Temperatura media	19.5
171150	7	Sololá	712	San Antonio Palopó	9	San Antonio Palopo	5	Mayo	2023-05-15T00:00:00	2024-11-08T03:00:00	4	Temperatura máxima	19.8
171151	7	Sololá	712	San Antonio Palopó	9	San Antonio Palopo	5	Mayo	2023-05-15T00:00:00	2024-11-08T03:00:00	3	Temperatura mínima	19.4
171152	7	Sololá	712	San Antonio Palopó	9	San Antonio Palopo	5	Mayo	2023-05-15T00:00:00	2024-11-08T03:00:00	5	Humedad	74
171153	7	Sololá	712	San Antonio Palopó	9	San Antonio Palopo	5	Mayo	2023-05-15T00:00:00	2024-11-08T03:00:00	6	Velocidad del viento	12.9
171154	7	Sololá	712	San Antonio Palopó	9	San Antonio Palopo	5	Mayo	2023-05-15T00:00:00	2024-11-08T03:00:00	7	Dirección del viento	12.87
171155	7	Sololá	712	San Antonio Palopó	9	San Antonio Palopo	5	Mayo	2023-05-15T00:00:00	2024-11-08T03:00:00	1	Precipitación	0
171156	7	Sololá	712	San Antonio Palopó	9	San Antonio Palopo	5	Mayo	2023-05-15T00:00:00	2024-11-08T03:00:00	8	Radiación solar	0
171157	7	Sololá	712	San Antonio Palopó	9	San Antonio Palopo	5	Mayo	2023-05-15T00:00:00	2024-11-08T04:00:00	2	Temperatura media	19.3
171158	7	Sololá	712	San Antonio Palopó	9	San Antonio Palopo	5	Mayo	2023-05-15T00:00:00	2024-11-08T04:00:00	4	Temperatura máxima	19.6
171159	7	Sololá	712	San Antonio Palopó	9	San Antonio Palopo	5	Mayo	2023-05-15T00:00:00	2024-11-08T04:00:00	3	Temperatura mínima	19.2
171160	7	Sololá	712	San Antonio Palopó	9	San Antonio Palopo	5	Mayo	2023-05-15T00:00:00	2024-11-08T04:00:00	5	Humedad	74
171161	7	Sololá	712	San Antonio Palopó	9	San Antonio Palopo	5	Mayo	2023-05-15T00:00:00	2024-11-08T04:00:00	6	Velocidad del viento	12.9
171162	7	Sololá	712	San Antonio Palopó	9	San Antonio Palopo	5	Mayo	2023-05-15T00:00:00	2024-11-08T04:00:00	7	Dirección del viento	12.87
171163	7	Sololá	712	San Antonio Palopó	9	San Antonio Palopo	5	Mayo	2023-05-15T00:00:00	2024-11-08T04:00:00	1	Precipitación	0
171164	7	Sololá	712	San Antonio Palopó	9	San Antonio Palopo	5	Mayo	2023-05-15T00:00:00	2024-11-08T04:00:00	8	Radiación solar	0
171165	7	Sololá	712	San Antonio Palopó	9	San Antonio Palopo	5	Mayo	2023-05-15T00:00:00	2024-11-08T05:00:00	2	Temperatura media	19.3
171166	7	Sololá	712	San Antonio Palopó	9	San Antonio Palopo	5	Mayo	2023-05-15T00:00:00	2024-11-08T05:00:00	4	Temperatura máxima	19.4
171167	7	Sololá	712	San Antonio Palopó	9	San Antonio Palopo	5	Mayo	2023-05-15T00:00:00	2024-11-08T05:00:00	3	Temperatura mínima	19.2
171168	7	Sololá	712	San Antonio Palopó	9	San Antonio Palopo	5	Mayo	2023-05-15T00:00:00	2024-11-08T05:00:00	5	Humedad	74
171169	7	Sololá	712	San Antonio Palopó	9	San Antonio Palopo	5	Mayo	2023-05-15T00:00:00	2024-11-08T05:00:00	6	Velocidad del viento	12.9
171170	7	Sololá	712	San Antonio Palopó	9	San Antonio Palopo	5	Mayo	2023-05-15T00:00:00	2024-11-08T05:00:00	7	Dirección del viento	12.87
171171	7	Sololá	712	San Antonio Palopó	9	San Antonio Palopo	5	Mayo	2023-05-15T00:00:00	2024-11-08T05:00:00	1	Precipitación	0
171172	7	Sololá	712	San Antonio Palopó	9	San Antonio Palopo	5	Mayo	2023-05-15T00:00:00	2024-11-08T05:00:00	8	Radiación solar	0
171173	7	Sololá	712	San Antonio Palopó	9	San Antonio Palopo	5	Mayo	2023-05-15T00:00:00	2024-11-08T06:00:00	2	Temperatura media	19.1
171174	7	Sololá	712	San Antonio Palopó	9	San Antonio Palopo	5	Mayo	2023-05-15T00:00:00	2024-11-08T06:00:00	4	Temperatura máxima	19.3
171175	7	Sololá	712	San Antonio Palopó	9	San Antonio Palopo	5	Mayo	2023-05-15T00:00:00	2024-11-08T06:00:00	3	Temperatura mínima	19.1
171176	7	Sololá	712	San Antonio Palopó	9	San Antonio Palopo	5	Mayo	2023-05-15T00:00:00	2024-11-08T06:00:00	5	Humedad	75
171177	7	Sololá	712	San Antonio Palopó	9	San Antonio Palopo	5	Mayo	2023-05-15T00:00:00	2024-11-08T06:00:00	6	Velocidad del viento	11.3
171178	7	Sololá	712	San Antonio Palopó	9	San Antonio Palopo	5	Mayo	2023-05-15T00:00:00	2024-11-08T06:00:00	7	Dirección del viento	11.27
171179	7	Sololá	712	San Antonio Palopó	9	San Antonio Palopo	5	Mayo	2023-05-15T00:00:00	2024-11-08T06:00:00	1	Precipitación	0
171180	7	Sololá	712	San Antonio Palopó	9	San Antonio Palopo	5	Mayo	2023-05-15T00:00:00	2024-11-08T06:00:00	8	Radiación solar	4
171181	7	Sololá	712	San Antonio Palopó	9	San Antonio Palopo	5	Mayo	2023-05-15T00:00:00	2024-11-08T07:00:00	2	Temperatura media	19.6
171182	7	Sololá	712	San Antonio Palopó	9	San Antonio Palopo	5	Mayo	2023-05-15T00:00:00	2024-11-08T07:00:00	4	Temperatura máxima	19.6
171183	7	Sololá	712	San Antonio Palopó	9	San Antonio Palopo	5	Mayo	2023-05-15T00:00:00	2024-11-08T07:00:00	3	Temperatura mínima	19.1
171184	7	Sololá	712	San Antonio Palopó	9	San Antonio Palopo	5	Mayo	2023-05-15T00:00:00	2024-11-08T07:00:00	5	Humedad	73
171185	7	Sololá	712	San Antonio Palopó	9	San Antonio Palopo	5	Mayo	2023-05-15T00:00:00	2024-11-08T07:00:00	6	Velocidad del viento	9.7
171186	7	Sololá	712	San Antonio Palopó	9	San Antonio Palopo	5	Mayo	2023-05-15T00:00:00	2024-11-08T07:00:00	7	Dirección del viento	9.66
171187	7	Sololá	712	San Antonio Palopó	9	San Antonio Palopo	5	Mayo	2023-05-15T00:00:00	2024-11-08T07:00:00	1	Precipitación	0
171188	7	Sololá	712	San Antonio Palopó	9	San Antonio Palopo	5	Mayo	2023-05-15T00:00:00	2024-11-08T07:00:00	8	Radiación solar	61
171189	7	Sololá	712	San Antonio Palopó	9	San Antonio Palopo	5	Mayo	2023-05-15T00:00:00	2024-11-08T08:00:00	2	Temperatura media	21
171190	7	Sololá	712	San Antonio Palopó	9	San Antonio Palopo	5	Mayo	2023-05-15T00:00:00	2024-11-08T08:00:00	4	Temperatura máxima	21.1
171191	7	Sololá	712	San Antonio Palopó	9	San Antonio Palopo	5	Mayo	2023-05-15T00:00:00	2024-11-08T08:00:00	3	Temperatura mínima	19.6
171192	7	Sololá	712	San Antonio Palopó	9	San Antonio Palopo	5	Mayo	2023-05-15T00:00:00	2024-11-08T08:00:00	5	Humedad	70
171193	7	Sololá	712	San Antonio Palopó	9	San Antonio Palopo	5	Mayo	2023-05-15T00:00:00	2024-11-08T08:00:00	6	Velocidad del viento	8
171194	7	Sololá	712	San Antonio Palopó	9	San Antonio Palopo	5	Mayo	2023-05-15T00:00:00	2024-11-08T08:00:00	7	Dirección del viento	8.05
171195	7	Sololá	712	San Antonio Palopó	9	San Antonio Palopo	5	Mayo	2023-05-15T00:00:00	2024-11-08T08:00:00	1	Precipitación	0
171196	7	Sololá	712	San Antonio Palopó	9	San Antonio Palopo	5	Mayo	2023-05-15T00:00:00	2024-11-08T08:00:00	8	Radiación solar	194
171197	7	Sololá	712	San Antonio Palopó	9	San Antonio Palopo	5	Mayo	2023-05-15T00:00:00	2024-11-08T09:00:00	2	Temperatura media	21.4
171198	7	Sololá	712	San Antonio Palopó	9	San Antonio Palopo	5	Mayo	2023-05-15T00:00:00	2024-11-08T09:00:00	4	Temperatura máxima	21.6
171199	7	Sololá	712	San Antonio Palopó	9	San Antonio Palopo	5	Mayo	2023-05-15T00:00:00	2024-11-08T09:00:00	3	Temperatura mínima	20.8
171200	7	Sololá	712	San Antonio Palopó	9	San Antonio Palopo	5	Mayo	2023-05-15T00:00:00	2024-11-08T09:00:00	5	Humedad	71
171201	7	Sololá	712	San Antonio Palopó	9	San Antonio Palopo	5	Mayo	2023-05-15T00:00:00	2024-11-08T09:00:00	6	Velocidad del viento	1.6
171202	7	Sololá	712	San Antonio Palopó	9	San Antonio Palopo	5	Mayo	2023-05-15T00:00:00	2024-11-08T09:00:00	7	Dirección del viento	1.61
171203	7	Sololá	712	San Antonio Palopó	9	San Antonio Palopo	5	Mayo	2023-05-15T00:00:00	2024-11-08T09:00:00	1	Precipitación	0
171204	7	Sololá	712	San Antonio Palopó	9	San Antonio Palopo	5	Mayo	2023-05-15T00:00:00	2024-11-08T09:00:00	8	Radiación solar	241
171205	7	Sololá	712	San Antonio Palopó	9	San Antonio Palopo	5	Mayo	2023-05-15T00:00:00	2024-11-08T10:00:00	2	Temperatura media	22
171206	7	Sololá	712	San Antonio Palopó	9	San Antonio Palopo	5	Mayo	2023-05-15T00:00:00	2024-11-08T10:00:00	4	Temperatura máxima	22.3
171207	7	Sololá	712	San Antonio Palopó	9	San Antonio Palopo	5	Mayo	2023-05-15T00:00:00	2024-11-08T10:00:00	3	Temperatura mínima	21.4
171208	7	Sololá	712	San Antonio Palopó	9	San Antonio Palopo	5	Mayo	2023-05-15T00:00:00	2024-11-08T10:00:00	5	Humedad	69
171209	7	Sololá	712	San Antonio Palopó	9	San Antonio Palopo	5	Mayo	2023-05-15T00:00:00	2024-11-08T10:00:00	6	Velocidad del viento	3.2
171210	7	Sololá	712	San Antonio Palopó	9	San Antonio Palopo	5	Mayo	2023-05-15T00:00:00	2024-11-08T10:00:00	7	Dirección del viento	3.22
171211	7	Sololá	712	San Antonio Palopó	9	San Antonio Palopo	5	Mayo	2023-05-15T00:00:00	2024-11-08T10:00:00	1	Precipitación	0
171212	7	Sololá	712	San Antonio Palopó	9	San Antonio Palopo	5	Mayo	2023-05-15T00:00:00	2024-11-08T10:00:00	8	Radiación solar	430
171213	7	Sololá	712	San Antonio Palopó	9	San Antonio Palopo	5	Mayo	2023-05-15T00:00:00	2024-11-08T11:00:00	2	Temperatura media	23.8
171214	7	Sololá	712	San Antonio Palopó	9	San Antonio Palopo	5	Mayo	2023-05-15T00:00:00	2024-11-08T11:00:00	4	Temperatura máxima	23.9
171215	7	Sololá	712	San Antonio Palopó	9	San Antonio Palopo	5	Mayo	2023-05-15T00:00:00	2024-11-08T11:00:00	3	Temperatura mínima	22.1
171216	7	Sololá	712	San Antonio Palopó	9	San Antonio Palopo	5	Mayo	2023-05-15T00:00:00	2024-11-08T11:00:00	5	Humedad	66
171217	7	Sololá	712	San Antonio Palopó	9	San Antonio Palopo	5	Mayo	2023-05-15T00:00:00	2024-11-08T11:00:00	6	Velocidad del viento	4.8
171218	7	Sololá	712	San Antonio Palopó	9	San Antonio Palopo	5	Mayo	2023-05-15T00:00:00	2024-11-08T11:00:00	7	Dirección del viento	4.83
171219	7	Sololá	712	San Antonio Palopó	9	San Antonio Palopo	5	Mayo	2023-05-15T00:00:00	2024-11-08T11:00:00	1	Precipitación	0
171220	7	Sololá	712	San Antonio Palopó	9	San Antonio Palopo	5	Mayo	2023-05-15T00:00:00	2024-11-08T11:00:00	8	Radiación solar	859
171221	7	Sololá	712	San Antonio Palopó	9	San Antonio Palopo	5	Mayo	2023-05-15T00:00:00	2024-11-08T12:00:00	2	Temperatura media	24.6
171222	7	Sololá	712	San Antonio Palopó	9	San Antonio Palopo	5	Mayo	2023-05-15T00:00:00	2024-11-08T12:00:00	4	Temperatura máxima	24.6
171223	7	Sololá	712	San Antonio Palopó	9	San Antonio Palopo	5	Mayo	2023-05-15T00:00:00	2024-11-08T12:00:00	3	Temperatura mínima	23.8
171224	7	Sololá	712	San Antonio Palopó	9	San Antonio Palopo	5	Mayo	2023-05-15T00:00:00	2024-11-08T12:00:00	5	Humedad	64
171225	7	Sololá	712	San Antonio Palopó	9	San Antonio Palopo	5	Mayo	2023-05-15T00:00:00	2024-11-08T12:00:00	6	Velocidad del viento	6.4
171226	7	Sololá	712	San Antonio Palopó	9	San Antonio Palopo	5	Mayo	2023-05-15T00:00:00	2024-11-08T12:00:00	7	Dirección del viento	6.44
171227	7	Sololá	712	San Antonio Palopó	9	San Antonio Palopo	5	Mayo	2023-05-15T00:00:00	2024-11-08T12:00:00	1	Precipitación	0
171228	7	Sololá	712	San Antonio Palopó	9	San Antonio Palopo	5	Mayo	2023-05-15T00:00:00	2024-11-08T12:00:00	8	Radiación solar	964
171229	7	Sololá	712	San Antonio Palopó	9	San Antonio Palopo	5	Mayo	2023-05-15T00:00:00	2024-11-08T13:00:00	2	Temperatura media	24.8
171230	7	Sololá	712	San Antonio Palopó	9	San Antonio Palopo	5	Mayo	2023-05-15T00:00:00	2024-11-08T13:00:00	4	Temperatura máxima	24.8
171231	7	Sololá	712	San Antonio Palopó	9	San Antonio Palopo	5	Mayo	2023-05-15T00:00:00	2024-11-08T13:00:00	3	Temperatura mínima	24
171232	7	Sololá	712	San Antonio Palopó	9	San Antonio Palopo	5	Mayo	2023-05-15T00:00:00	2024-11-08T13:00:00	5	Humedad	64
171233	7	Sololá	712	San Antonio Palopó	9	San Antonio Palopo	5	Mayo	2023-05-15T00:00:00	2024-11-08T13:00:00	6	Velocidad del viento	6.4
171234	7	Sololá	712	San Antonio Palopó	9	San Antonio Palopo	5	Mayo	2023-05-15T00:00:00	2024-11-08T13:00:00	7	Dirección del viento	6.44
171235	7	Sololá	712	San Antonio Palopó	9	San Antonio Palopo	5	Mayo	2023-05-15T00:00:00	2024-11-08T13:00:00	1	Precipitación	0
171236	7	Sololá	712	San Antonio Palopó	9	San Antonio Palopo	5	Mayo	2023-05-15T00:00:00	2024-11-08T13:00:00	8	Radiación solar	929
171237	7	Sololá	712	San Antonio Palopó	9	San Antonio Palopo	5	Mayo	2023-05-15T00:00:00	2024-11-08T14:00:00	2	Temperatura media	24.3
171238	7	Sololá	712	San Antonio Palopó	9	San Antonio Palopo	5	Mayo	2023-05-15T00:00:00	2024-11-08T14:00:00	4	Temperatura máxima	25.1
171239	7	Sololá	712	San Antonio Palopó	9	San Antonio Palopo	5	Mayo	2023-05-15T00:00:00	2024-11-08T14:00:00	3	Temperatura mínima	24.2
171240	7	Sololá	712	San Antonio Palopó	9	San Antonio Palopo	5	Mayo	2023-05-15T00:00:00	2024-11-08T14:00:00	5	Humedad	69
171241	7	Sololá	712	San Antonio Palopó	9	San Antonio Palopo	5	Mayo	2023-05-15T00:00:00	2024-11-08T14:00:00	6	Velocidad del viento	6.4
171242	7	Sololá	712	San Antonio Palopó	9	San Antonio Palopo	5	Mayo	2023-05-15T00:00:00	2024-11-08T14:00:00	7	Dirección del viento	6.44
171243	7	Sololá	712	San Antonio Palopó	9	San Antonio Palopo	5	Mayo	2023-05-15T00:00:00	2024-11-08T14:00:00	1	Precipitación	0
171244	7	Sololá	712	San Antonio Palopó	9	San Antonio Palopo	5	Mayo	2023-05-15T00:00:00	2024-11-08T14:00:00	8	Radiación solar	832
171245	7	Sololá	712	San Antonio Palopó	9	San Antonio Palopo	5	Mayo	2023-05-15T00:00:00	2024-11-08T15:00:00	2	Temperatura media	24.2
171246	7	Sololá	712	San Antonio Palopó	9	San Antonio Palopo	5	Mayo	2023-05-15T00:00:00	2024-11-08T15:00:00	4	Temperatura máxima	24.5
171247	7	Sololá	712	San Antonio Palopó	9	San Antonio Palopo	5	Mayo	2023-05-15T00:00:00	2024-11-08T15:00:00	3	Temperatura mínima	23.4
171248	7	Sololá	712	San Antonio Palopó	9	San Antonio Palopo	5	Mayo	2023-05-15T00:00:00	2024-11-08T15:00:00	5	Humedad	71
171249	7	Sololá	712	San Antonio Palopó	9	San Antonio Palopo	5	Mayo	2023-05-15T00:00:00	2024-11-08T15:00:00	6	Velocidad del viento	6.4
171250	7	Sololá	712	San Antonio Palopó	9	San Antonio Palopo	5	Mayo	2023-05-15T00:00:00	2024-11-08T15:00:00	7	Dirección del viento	6.44
171251	7	Sololá	712	San Antonio Palopó	9	San Antonio Palopo	5	Mayo	2023-05-15T00:00:00	2024-11-08T15:00:00	1	Precipitación	0
171252	7	Sololá	712	San Antonio Palopó	9	San Antonio Palopo	5	Mayo	2023-05-15T00:00:00	2024-11-08T15:00:00	8	Radiación solar	441
171253	7	Sololá	712	San Antonio Palopó	9	San Antonio Palopo	5	Mayo	2023-05-15T00:00:00	2024-11-08T16:00:00	2	Temperatura media	22.7
171254	7	Sololá	712	San Antonio Palopó	9	San Antonio Palopo	5	Mayo	2023-05-15T00:00:00	2024-11-08T16:00:00	4	Temperatura máxima	24.4
171255	7	Sololá	712	San Antonio Palopó	9	San Antonio Palopo	5	Mayo	2023-05-15T00:00:00	2024-11-08T16:00:00	3	Temperatura mínima	22.6
171256	7	Sololá	712	San Antonio Palopó	9	San Antonio Palopo	5	Mayo	2023-05-15T00:00:00	2024-11-08T16:00:00	5	Humedad	74
171257	7	Sololá	712	San Antonio Palopó	9	San Antonio Palopo	5	Mayo	2023-05-15T00:00:00	2024-11-08T16:00:00	6	Velocidad del viento	8
171258	7	Sololá	712	San Antonio Palopó	9	San Antonio Palopo	5	Mayo	2023-05-15T00:00:00	2024-11-08T16:00:00	7	Dirección del viento	8.05
171259	7	Sololá	712	San Antonio Palopó	9	San Antonio Palopo	5	Mayo	2023-05-15T00:00:00	2024-11-08T16:00:00	1	Precipitación	0
171260	7	Sololá	712	San Antonio Palopó	9	San Antonio Palopo	5	Mayo	2023-05-15T00:00:00	2024-11-08T16:00:00	8	Radiación solar	274
171261	7	Sololá	712	San Antonio Palopó	9	San Antonio Palopo	5	Mayo	2023-05-15T00:00:00	2024-11-08T17:00:00	2	Temperatura media	21.9
171262	7	Sololá	712	San Antonio Palopó	9	San Antonio Palopo	5	Mayo	2023-05-15T00:00:00	2024-11-08T17:00:00	4	Temperatura máxima	22.7
171263	7	Sololá	712	San Antonio Palopó	9	San Antonio Palopo	5	Mayo	2023-05-15T00:00:00	2024-11-08T17:00:00	3	Temperatura mínima	21.8
171264	7	Sololá	712	San Antonio Palopó	9	San Antonio Palopo	5	Mayo	2023-05-15T00:00:00	2024-11-08T17:00:00	5	Humedad	79
171265	7	Sololá	712	San Antonio Palopó	9	San Antonio Palopo	5	Mayo	2023-05-15T00:00:00	2024-11-08T17:00:00	6	Velocidad del viento	4.8
171266	7	Sololá	712	San Antonio Palopó	9	San Antonio Palopo	5	Mayo	2023-05-15T00:00:00	2024-11-08T17:00:00	7	Dirección del viento	4.83
171267	7	Sololá	712	San Antonio Palopó	9	San Antonio Palopo	5	Mayo	2023-05-15T00:00:00	2024-11-08T17:00:00	1	Precipitación	0
171268	7	Sololá	712	San Antonio Palopó	9	San Antonio Palopo	5	Mayo	2023-05-15T00:00:00	2024-11-08T17:00:00	8	Radiación solar	92
171269	7	Sololá	712	San Antonio Palopó	9	San Antonio Palopo	5	Mayo	2023-05-15T00:00:00	2024-11-08T18:00:00	2	Temperatura media	17.3
171270	7	Sololá	712	San Antonio Palopó	9	San Antonio Palopo	5	Mayo	2023-05-15T00:00:00	2024-11-08T18:00:00	4	Temperatura máxima	21.9
171271	7	Sololá	712	San Antonio Palopó	9	San Antonio Palopo	5	Mayo	2023-05-15T00:00:00	2024-11-08T18:00:00	3	Temperatura mínima	17.2
171272	7	Sololá	712	San Antonio Palopó	9	San Antonio Palopo	5	Mayo	2023-05-15T00:00:00	2024-11-08T18:00:00	5	Humedad	78
171273	7	Sololá	712	San Antonio Palopó	9	San Antonio Palopo	5	Mayo	2023-05-15T00:00:00	2024-11-08T18:00:00	6	Velocidad del viento	9.7
171274	7	Sololá	712	San Antonio Palopó	9	San Antonio Palopo	5	Mayo	2023-05-15T00:00:00	2024-11-08T18:00:00	7	Dirección del viento	9.66
171275	7	Sololá	712	San Antonio Palopó	9	San Antonio Palopo	5	Mayo	2023-05-15T00:00:00	2024-11-08T18:00:00	1	Precipitación	7
171276	7	Sololá	712	San Antonio Palopó	9	San Antonio Palopo	5	Mayo	2023-05-15T00:00:00	2024-11-08T18:00:00	8	Radiación solar	2
171277	7	Sololá	712	San Antonio Palopó	9	San Antonio Palopo	5	Mayo	2023-05-15T00:00:00	2024-11-08T19:00:00	2	Temperatura media	18.2
171278	7	Sololá	712	San Antonio Palopó	9	San Antonio Palopo	5	Mayo	2023-05-15T00:00:00	2024-11-08T19:00:00	4	Temperatura máxima	18.2
171279	7	Sololá	712	San Antonio Palopó	9	San Antonio Palopo	5	Mayo	2023-05-15T00:00:00	2024-11-08T19:00:00	3	Temperatura mínima	16.9
171280	7	Sololá	712	San Antonio Palopó	9	San Antonio Palopo	5	Mayo	2023-05-15T00:00:00	2024-11-08T19:00:00	5	Humedad	78
171281	7	Sololá	712	San Antonio Palopó	9	San Antonio Palopo	5	Mayo	2023-05-15T00:00:00	2024-11-08T19:00:00	6	Velocidad del viento	16.1
171282	7	Sololá	712	San Antonio Palopó	9	San Antonio Palopo	5	Mayo	2023-05-15T00:00:00	2024-11-08T19:00:00	7	Dirección del viento	16.09
171283	7	Sololá	712	San Antonio Palopó	9	San Antonio Palopo	5	Mayo	2023-05-15T00:00:00	2024-11-08T19:00:00	1	Precipitación	5.8
171284	7	Sololá	712	San Antonio Palopó	9	San Antonio Palopo	5	Mayo	2023-05-15T00:00:00	2024-11-08T19:00:00	8	Radiación solar	0
171285	7	Sololá	712	San Antonio Palopó	9	San Antonio Palopo	5	Mayo	2023-05-15T00:00:00	2024-11-08T20:00:00	2	Temperatura media	18.8
171286	7	Sololá	712	San Antonio Palopó	9	San Antonio Palopo	5	Mayo	2023-05-15T00:00:00	2024-11-08T20:00:00	4	Temperatura máxima	18.9
171287	7	Sololá	712	San Antonio Palopó	9	San Antonio Palopo	5	Mayo	2023-05-15T00:00:00	2024-11-08T20:00:00	3	Temperatura mínima	18.2
171288	7	Sololá	712	San Antonio Palopó	9	San Antonio Palopo	5	Mayo	2023-05-15T00:00:00	2024-11-08T20:00:00	5	Humedad	71
171289	7	Sololá	712	San Antonio Palopó	9	San Antonio Palopo	5	Mayo	2023-05-15T00:00:00	2024-11-08T20:00:00	6	Velocidad del viento	14.5
171290	7	Sololá	712	San Antonio Palopó	9	San Antonio Palopo	5	Mayo	2023-05-15T00:00:00	2024-11-08T20:00:00	7	Dirección del viento	14.48
171291	7	Sololá	712	San Antonio Palopó	9	San Antonio Palopo	5	Mayo	2023-05-15T00:00:00	2024-11-08T20:00:00	1	Precipitación	0
171292	7	Sololá	712	San Antonio Palopó	9	San Antonio Palopo	5	Mayo	2023-05-15T00:00:00	2024-11-08T20:00:00	8	Radiación solar	0
171293	7	Sololá	712	San Antonio Palopó	9	San Antonio Palopo	5	Mayo	2023-05-15T00:00:00	2024-11-08T21:00:00	2	Temperatura media	18.9
171294	7	Sololá	712	San Antonio Palopó	9	San Antonio Palopo	5	Mayo	2023-05-15T00:00:00	2024-11-08T21:00:00	4	Temperatura máxima	19.2
171295	7	Sololá	712	San Antonio Palopó	9	San Antonio Palopo	5	Mayo	2023-05-15T00:00:00	2024-11-08T21:00:00	3	Temperatura mínima	18.6
171296	7	Sololá	712	San Antonio Palopó	9	San Antonio Palopo	5	Mayo	2023-05-15T00:00:00	2024-11-08T21:00:00	5	Humedad	68
171297	7	Sololá	712	San Antonio Palopó	9	San Antonio Palopo	5	Mayo	2023-05-15T00:00:00	2024-11-08T21:00:00	6	Velocidad del viento	16.1
171298	7	Sololá	712	San Antonio Palopó	9	San Antonio Palopo	5	Mayo	2023-05-15T00:00:00	2024-11-08T21:00:00	7	Dirección del viento	16.09
171299	7	Sololá	712	San Antonio Palopó	9	San Antonio Palopo	5	Mayo	2023-05-15T00:00:00	2024-11-08T21:00:00	1	Precipitación	0
171300	7	Sololá	712	San Antonio Palopó	9	San Antonio Palopo	5	Mayo	2023-05-15T00:00:00	2024-11-08T21:00:00	8	Radiación solar	0
171301	7	Sololá	712	San Antonio Palopó	9	San Antonio Palopo	5	Mayo	2023-05-15T00:00:00	2024-11-08T22:00:00	2	Temperatura media	18.3
171302	7	Sololá	712	San Antonio Palopó	9	San Antonio Palopo	5	Mayo	2023-05-15T00:00:00	2024-11-08T22:00:00	4	Temperatura máxima	19.1
171303	7	Sololá	712	San Antonio Palopó	9	San Antonio Palopo	5	Mayo	2023-05-15T00:00:00	2024-11-08T22:00:00	3	Temperatura mínima	18.3
171304	7	Sololá	712	San Antonio Palopó	9	San Antonio Palopo	5	Mayo	2023-05-15T00:00:00	2024-11-08T22:00:00	5	Humedad	68
171305	7	Sololá	712	San Antonio Palopó	9	San Antonio Palopo	5	Mayo	2023-05-15T00:00:00	2024-11-08T22:00:00	6	Velocidad del viento	12.9
171306	7	Sololá	712	San Antonio Palopó	9	San Antonio Palopo	5	Mayo	2023-05-15T00:00:00	2024-11-08T22:00:00	7	Dirección del viento	12.87
171307	7	Sololá	712	San Antonio Palopó	9	San Antonio Palopo	5	Mayo	2023-05-15T00:00:00	2024-11-08T22:00:00	1	Precipitación	0
171308	7	Sololá	712	San Antonio Palopó	9	San Antonio Palopo	5	Mayo	2023-05-15T00:00:00	2024-11-08T22:00:00	8	Radiación solar	0
171309	7	Sololá	712	San Antonio Palopó	9	San Antonio Palopo	5	Mayo	2023-05-15T00:00:00	2024-11-08T23:00:00	2	Temperatura media	19.2
171310	7	Sololá	712	San Antonio Palopó	9	San Antonio Palopo	5	Mayo	2023-05-15T00:00:00	2024-11-08T23:00:00	4	Temperatura máxima	19.7
171311	7	Sololá	712	San Antonio Palopó	9	San Antonio Palopo	5	Mayo	2023-05-15T00:00:00	2024-11-08T23:00:00	3	Temperatura mínima	18.2
171312	7	Sololá	712	San Antonio Palopó	9	San Antonio Palopo	5	Mayo	2023-05-15T00:00:00	2024-11-08T23:00:00	5	Humedad	62
171313	7	Sololá	712	San Antonio Palopó	9	San Antonio Palopo	5	Mayo	2023-05-15T00:00:00	2024-11-08T23:00:00	6	Velocidad del viento	11.3
171314	7	Sololá	712	San Antonio Palopó	9	San Antonio Palopo	5	Mayo	2023-05-15T00:00:00	2024-11-08T23:00:00	7	Dirección del viento	11.27
171315	7	Sololá	712	San Antonio Palopó	9	San Antonio Palopo	5	Mayo	2023-05-15T00:00:00	2024-11-08T23:00:00	1	Precipitación	0
171316	7	Sololá	712	San Antonio Palopó	9	San Antonio Palopo	5	Mayo	2023-05-15T00:00:00	2024-11-08T23:00:00	8	Radiación solar	0
171317	7	Sololá	712	San Antonio Palopó	9	San Antonio Palopo	5	Mayo	2023-05-16T00:00:00	2024-11-08T00:00:00	2	Temperatura media	18.4
171318	7	Sololá	712	San Antonio Palopó	9	San Antonio Palopo	5	Mayo	2023-05-16T00:00:00	2024-11-08T00:00:00	4	Temperatura máxima	19.2
171319	7	Sololá	712	San Antonio Palopó	9	San Antonio Palopo	5	Mayo	2023-05-16T00:00:00	2024-11-08T00:00:00	3	Temperatura mínima	18.2
171320	7	Sololá	712	San Antonio Palopó	9	San Antonio Palopo	5	Mayo	2023-05-16T00:00:00	2024-11-08T00:00:00	5	Humedad	65
171321	7	Sololá	712	San Antonio Palopó	9	San Antonio Palopo	5	Mayo	2023-05-16T00:00:00	2024-11-08T00:00:00	6	Velocidad del viento	8
171322	7	Sololá	712	San Antonio Palopó	9	San Antonio Palopo	5	Mayo	2023-05-16T00:00:00	2024-11-08T00:00:00	7	Dirección del viento	8.05
171323	7	Sololá	712	San Antonio Palopó	9	San Antonio Palopo	5	Mayo	2023-05-16T00:00:00	2024-11-08T00:00:00	1	Precipitación	0
171324	7	Sololá	712	San Antonio Palopó	9	San Antonio Palopo	5	Mayo	2023-05-16T00:00:00	2024-11-08T00:00:00	8	Radiación solar	0
171325	7	Sololá	712	San Antonio Palopó	9	San Antonio Palopo	5	Mayo	2023-05-16T00:00:00	2024-11-08T01:00:00	2	Temperatura media	18.4
171326	7	Sololá	712	San Antonio Palopó	9	San Antonio Palopo	5	Mayo	2023-05-16T00:00:00	2024-11-08T01:00:00	4	Temperatura máxima	18.5
171327	7	Sololá	712	San Antonio Palopó	9	San Antonio Palopo	5	Mayo	2023-05-16T00:00:00	2024-11-08T01:00:00	3	Temperatura mínima	17.6
171328	7	Sololá	712	San Antonio Palopó	9	San Antonio Palopo	5	Mayo	2023-05-16T00:00:00	2024-11-08T01:00:00	5	Humedad	64
171329	7	Sololá	712	San Antonio Palopó	9	San Antonio Palopo	5	Mayo	2023-05-16T00:00:00	2024-11-08T01:00:00	6	Velocidad del viento	6.4
171330	7	Sololá	712	San Antonio Palopó	9	San Antonio Palopo	5	Mayo	2023-05-16T00:00:00	2024-11-08T01:00:00	7	Dirección del viento	6.44
171331	7	Sololá	712	San Antonio Palopó	9	San Antonio Palopo	5	Mayo	2023-05-16T00:00:00	2024-11-08T01:00:00	1	Precipitación	0
171332	7	Sololá	712	San Antonio Palopó	9	San Antonio Palopo	5	Mayo	2023-05-16T00:00:00	2024-11-08T01:00:00	8	Radiación solar	0
171333	7	Sololá	712	San Antonio Palopó	9	San Antonio Palopo	5	Mayo	2023-05-16T00:00:00	2024-11-08T02:00:00	2	Temperatura media	17.9
171334	7	Sololá	712	San Antonio Palopó	9	San Antonio Palopo	5	Mayo	2023-05-16T00:00:00	2024-11-08T02:00:00	4	Temperatura máxima	18.4
171335	7	Sololá	712	San Antonio Palopó	9	San Antonio Palopo	5	Mayo	2023-05-16T00:00:00	2024-11-08T02:00:00	3	Temperatura mínima	17.6
171336	7	Sololá	712	San Antonio Palopó	9	San Antonio Palopo	5	Mayo	2023-05-16T00:00:00	2024-11-08T02:00:00	5	Humedad	66
171337	7	Sololá	712	San Antonio Palopó	9	San Antonio Palopo	5	Mayo	2023-05-16T00:00:00	2024-11-08T02:00:00	6	Velocidad del viento	4.8
171338	7	Sololá	712	San Antonio Palopó	9	San Antonio Palopo	5	Mayo	2023-05-16T00:00:00	2024-11-08T02:00:00	7	Dirección del viento	4.83
171339	7	Sololá	712	San Antonio Palopó	9	San Antonio Palopo	5	Mayo	2023-05-16T00:00:00	2024-11-08T02:00:00	1	Precipitación	0
171340	7	Sololá	712	San Antonio Palopó	9	San Antonio Palopo	5	Mayo	2023-05-16T00:00:00	2024-11-08T02:00:00	8	Radiación solar	0
171341	7	Sololá	712	San Antonio Palopó	9	San Antonio Palopo	5	Mayo	2023-05-16T00:00:00	2024-11-08T03:00:00	2	Temperatura media	17.7
171342	7	Sololá	712	San Antonio Palopó	9	San Antonio Palopo	5	Mayo	2023-05-16T00:00:00	2024-11-08T03:00:00	4	Temperatura máxima	18
171343	7	Sololá	712	San Antonio Palopó	9	San Antonio Palopo	5	Mayo	2023-05-16T00:00:00	2024-11-08T03:00:00	3	Temperatura mínima	17.6
171344	7	Sololá	712	San Antonio Palopó	9	San Antonio Palopo	5	Mayo	2023-05-16T00:00:00	2024-11-08T03:00:00	5	Humedad	72
171345	7	Sololá	712	San Antonio Palopó	9	San Antonio Palopo	5	Mayo	2023-05-16T00:00:00	2024-11-08T03:00:00	6	Velocidad del viento	8
171346	7	Sololá	712	San Antonio Palopó	9	San Antonio Palopo	5	Mayo	2023-05-16T00:00:00	2024-11-08T03:00:00	7	Dirección del viento	8.05
171347	7	Sololá	712	San Antonio Palopó	9	San Antonio Palopo	5	Mayo	2023-05-16T00:00:00	2024-11-08T03:00:00	1	Precipitación	0
171348	7	Sololá	712	San Antonio Palopó	9	San Antonio Palopo	5	Mayo	2023-05-16T00:00:00	2024-11-08T03:00:00	8	Radiación solar	0
171349	7	Sololá	712	San Antonio Palopó	9	San Antonio Palopo	5	Mayo	2023-05-16T00:00:00	2024-11-08T04:00:00	2	Temperatura media	17.4
171350	7	Sololá	712	San Antonio Palopó	9	San Antonio Palopo	5	Mayo	2023-05-16T00:00:00	2024-11-08T04:00:00	4	Temperatura máxima	17.8
171351	7	Sololá	712	San Antonio Palopó	9	San Antonio Palopo	5	Mayo	2023-05-16T00:00:00	2024-11-08T04:00:00	3	Temperatura mínima	17.1
171352	7	Sololá	712	San Antonio Palopó	9	San Antonio Palopo	5	Mayo	2023-05-16T00:00:00	2024-11-08T04:00:00	5	Humedad	75
171353	7	Sololá	712	San Antonio Palopó	9	San Antonio Palopo	5	Mayo	2023-05-16T00:00:00	2024-11-08T04:00:00	6	Velocidad del viento	4.8
171354	7	Sololá	712	San Antonio Palopó	9	San Antonio Palopo	5	Mayo	2023-05-16T00:00:00	2024-11-08T04:00:00	7	Dirección del viento	4.83
171355	7	Sololá	712	San Antonio Palopó	9	San Antonio Palopo	5	Mayo	2023-05-16T00:00:00	2024-11-08T04:00:00	1	Precipitación	0
171356	7	Sololá	712	San Antonio Palopó	9	San Antonio Palopo	5	Mayo	2023-05-16T00:00:00	2024-11-08T04:00:00	8	Radiación solar	0
171357	7	Sololá	712	San Antonio Palopó	9	San Antonio Palopo	5	Mayo	2023-05-16T00:00:00	2024-11-08T05:00:00	2	Temperatura media	17.4
171358	7	Sololá	712	San Antonio Palopó	9	San Antonio Palopo	5	Mayo	2023-05-16T00:00:00	2024-11-08T05:00:00	4	Temperatura máxima	17.6
171359	7	Sololá	712	San Antonio Palopó	9	San Antonio Palopo	5	Mayo	2023-05-16T00:00:00	2024-11-08T05:00:00	3	Temperatura mínima	17.2
171360	7	Sololá	712	San Antonio Palopó	9	San Antonio Palopo	5	Mayo	2023-05-16T00:00:00	2024-11-08T05:00:00	5	Humedad	74
171361	7	Sololá	712	San Antonio Palopó	9	San Antonio Palopo	5	Mayo	2023-05-16T00:00:00	2024-11-08T05:00:00	6	Velocidad del viento	4.8
171362	7	Sololá	712	San Antonio Palopó	9	San Antonio Palopo	5	Mayo	2023-05-16T00:00:00	2024-11-08T05:00:00	7	Dirección del viento	4.83
171363	7	Sololá	712	San Antonio Palopó	9	San Antonio Palopo	5	Mayo	2023-05-16T00:00:00	2024-11-08T05:00:00	1	Precipitación	0
171364	7	Sololá	712	San Antonio Palopó	9	San Antonio Palopo	5	Mayo	2023-05-16T00:00:00	2024-11-08T05:00:00	8	Radiación solar	0
171365	7	Sololá	712	San Antonio Palopó	9	San Antonio Palopo	5	Mayo	2023-05-16T00:00:00	2024-11-08T06:00:00	2	Temperatura media	17.6
171366	7	Sololá	712	San Antonio Palopó	9	San Antonio Palopo	5	Mayo	2023-05-16T00:00:00	2024-11-08T06:00:00	4	Temperatura máxima	17.7
171367	7	Sololá	712	San Antonio Palopó	9	San Antonio Palopo	5	Mayo	2023-05-16T00:00:00	2024-11-08T06:00:00	3	Temperatura mínima	17.3
171368	7	Sololá	712	San Antonio Palopó	9	San Antonio Palopo	5	Mayo	2023-05-16T00:00:00	2024-11-08T06:00:00	5	Humedad	74
171369	7	Sololá	712	San Antonio Palopó	9	San Antonio Palopo	5	Mayo	2023-05-16T00:00:00	2024-11-08T06:00:00	6	Velocidad del viento	3.2
171370	7	Sololá	712	San Antonio Palopó	9	San Antonio Palopo	5	Mayo	2023-05-16T00:00:00	2024-11-08T06:00:00	7	Dirección del viento	3.22
171371	7	Sololá	712	San Antonio Palopó	9	San Antonio Palopo	5	Mayo	2023-05-16T00:00:00	2024-11-08T06:00:00	1	Precipitación	0
171372	7	Sololá	712	San Antonio Palopó	9	San Antonio Palopo	5	Mayo	2023-05-16T00:00:00	2024-11-08T06:00:00	8	Radiación solar	3
171373	7	Sololá	712	San Antonio Palopó	9	San Antonio Palopo	5	Mayo	2023-05-16T00:00:00	2024-11-08T07:00:00	2	Temperatura media	16.9
171374	7	Sololá	712	San Antonio Palopó	9	San Antonio Palopo	5	Mayo	2023-05-16T00:00:00	2024-11-08T07:00:00	4	Temperatura máxima	17.6
171375	7	Sololá	712	San Antonio Palopó	9	San Antonio Palopo	5	Mayo	2023-05-16T00:00:00	2024-11-08T07:00:00	3	Temperatura mínima	16.9
171376	7	Sololá	712	San Antonio Palopó	9	San Antonio Palopo	5	Mayo	2023-05-16T00:00:00	2024-11-08T07:00:00	5	Humedad	78
171377	7	Sololá	712	San Antonio Palopó	9	San Antonio Palopo	5	Mayo	2023-05-16T00:00:00	2024-11-08T07:00:00	6	Velocidad del viento	3.2
171378	7	Sololá	712	San Antonio Palopó	9	San Antonio Palopo	5	Mayo	2023-05-16T00:00:00	2024-11-08T07:00:00	7	Dirección del viento	3.22
171379	7	Sololá	712	San Antonio Palopó	9	San Antonio Palopo	5	Mayo	2023-05-16T00:00:00	2024-11-08T07:00:00	1	Precipitación	0
171380	7	Sololá	712	San Antonio Palopó	9	San Antonio Palopo	5	Mayo	2023-05-16T00:00:00	2024-11-08T07:00:00	8	Radiación solar	36
171381	7	Sololá	712	San Antonio Palopó	9	San Antonio Palopo	5	Mayo	2023-05-16T00:00:00	2024-11-08T08:00:00	2	Temperatura media	19.3
171382	7	Sololá	712	San Antonio Palopó	9	San Antonio Palopo	5	Mayo	2023-05-16T00:00:00	2024-11-08T08:00:00	4	Temperatura máxima	19.3
171383	7	Sololá	712	San Antonio Palopó	9	San Antonio Palopo	5	Mayo	2023-05-16T00:00:00	2024-11-08T08:00:00	3	Temperatura mínima	16.6
171384	7	Sololá	712	San Antonio Palopó	9	San Antonio Palopo	5	Mayo	2023-05-16T00:00:00	2024-11-08T08:00:00	5	Humedad	72
171385	7	Sololá	712	San Antonio Palopó	9	San Antonio Palopo	5	Mayo	2023-05-16T00:00:00	2024-11-08T08:00:00	6	Velocidad del viento	3.2
171386	7	Sololá	712	San Antonio Palopó	9	San Antonio Palopo	5	Mayo	2023-05-16T00:00:00	2024-11-08T08:00:00	7	Dirección del viento	3.22
171387	7	Sololá	712	San Antonio Palopó	9	San Antonio Palopo	5	Mayo	2023-05-16T00:00:00	2024-11-08T08:00:00	1	Precipitación	0
171388	7	Sololá	712	San Antonio Palopó	9	San Antonio Palopo	5	Mayo	2023-05-16T00:00:00	2024-11-08T08:00:00	8	Radiación solar	216
171389	7	Sololá	712	San Antonio Palopó	9	San Antonio Palopo	5	Mayo	2023-05-16T00:00:00	2024-11-08T09:00:00	2	Temperatura media	20
171390	7	Sololá	712	San Antonio Palopó	9	San Antonio Palopo	5	Mayo	2023-05-16T00:00:00	2024-11-08T09:00:00	4	Temperatura máxima	20.1
171391	7	Sololá	712	San Antonio Palopó	9	San Antonio Palopo	5	Mayo	2023-05-16T00:00:00	2024-11-08T09:00:00	3	Temperatura mínima	19.3
171392	7	Sololá	712	San Antonio Palopó	9	San Antonio Palopo	5	Mayo	2023-05-16T00:00:00	2024-11-08T09:00:00	5	Humedad	69
171393	7	Sololá	712	San Antonio Palopó	9	San Antonio Palopo	5	Mayo	2023-05-16T00:00:00	2024-11-08T09:00:00	6	Velocidad del viento	1.6
171394	7	Sololá	712	San Antonio Palopó	9	San Antonio Palopo	5	Mayo	2023-05-16T00:00:00	2024-11-08T09:00:00	7	Dirección del viento	1.61
171395	7	Sololá	712	San Antonio Palopó	9	San Antonio Palopo	5	Mayo	2023-05-16T00:00:00	2024-11-08T09:00:00	1	Precipitación	0
171396	7	Sololá	712	San Antonio Palopó	9	San Antonio Palopo	5	Mayo	2023-05-16T00:00:00	2024-11-08T09:00:00	8	Radiación solar	533
171397	7	Sololá	712	San Antonio Palopó	9	San Antonio Palopo	5	Mayo	2023-05-16T00:00:00	2024-11-08T10:00:00	2	Temperatura media	21.7
171398	7	Sololá	712	San Antonio Palopó	9	San Antonio Palopo	5	Mayo	2023-05-16T00:00:00	2024-11-08T10:00:00	4	Temperatura máxima	21.7
171399	7	Sololá	712	San Antonio Palopó	9	San Antonio Palopo	5	Mayo	2023-05-16T00:00:00	2024-11-08T10:00:00	3	Temperatura mínima	19.8
171400	7	Sololá	712	San Antonio Palopó	9	San Antonio Palopo	5	Mayo	2023-05-16T00:00:00	2024-11-08T10:00:00	5	Humedad	65
171401	7	Sololá	712	San Antonio Palopó	9	San Antonio Palopo	5	Mayo	2023-05-16T00:00:00	2024-11-08T10:00:00	6	Velocidad del viento	3.2
171402	7	Sololá	712	San Antonio Palopó	9	San Antonio Palopo	5	Mayo	2023-05-16T00:00:00	2024-11-08T10:00:00	7	Dirección del viento	3.22
171403	7	Sololá	712	San Antonio Palopó	9	San Antonio Palopo	5	Mayo	2023-05-16T00:00:00	2024-11-08T10:00:00	1	Precipitación	0
171404	7	Sololá	712	San Antonio Palopó	9	San Antonio Palopo	5	Mayo	2023-05-16T00:00:00	2024-11-08T10:00:00	8	Radiación solar	649
171405	7	Sololá	712	San Antonio Palopó	9	San Antonio Palopo	5	Mayo	2023-05-16T00:00:00	2024-11-08T11:00:00	2	Temperatura media	23.4
171406	7	Sololá	712	San Antonio Palopó	9	San Antonio Palopo	5	Mayo	2023-05-16T00:00:00	2024-11-08T11:00:00	4	Temperatura máxima	23.4
171407	7	Sololá	712	San Antonio Palopó	9	San Antonio Palopo	5	Mayo	2023-05-16T00:00:00	2024-11-08T11:00:00	3	Temperatura mínima	21.7
171408	7	Sololá	712	San Antonio Palopó	9	San Antonio Palopo	5	Mayo	2023-05-16T00:00:00	2024-11-08T11:00:00	5	Humedad	63
171409	7	Sololá	712	San Antonio Palopó	9	San Antonio Palopo	5	Mayo	2023-05-16T00:00:00	2024-11-08T11:00:00	6	Velocidad del viento	3.2
171410	7	Sololá	712	San Antonio Palopó	9	San Antonio Palopo	5	Mayo	2023-05-16T00:00:00	2024-11-08T11:00:00	7	Dirección del viento	3.22
171411	7	Sololá	712	San Antonio Palopó	9	San Antonio Palopo	5	Mayo	2023-05-16T00:00:00	2024-11-08T11:00:00	1	Precipitación	0
171412	7	Sololá	712	San Antonio Palopó	9	San Antonio Palopo	5	Mayo	2023-05-16T00:00:00	2024-11-08T11:00:00	8	Radiación solar	866
171413	7	Sololá	712	San Antonio Palopó	9	San Antonio Palopo	5	Mayo	2023-05-16T00:00:00	2024-11-08T12:00:00	2	Temperatura media	23.6
171414	7	Sololá	712	San Antonio Palopó	9	San Antonio Palopo	5	Mayo	2023-05-16T00:00:00	2024-11-08T12:00:00	4	Temperatura máxima	23.8
171415	7	Sololá	712	San Antonio Palopó	9	San Antonio Palopo	5	Mayo	2023-05-16T00:00:00	2024-11-08T12:00:00	3	Temperatura mínima	23.4
171416	7	Sololá	712	San Antonio Palopó	9	San Antonio Palopo	5	Mayo	2023-05-16T00:00:00	2024-11-08T12:00:00	5	Humedad	62
171417	7	Sololá	712	San Antonio Palopó	9	San Antonio Palopo	5	Mayo	2023-05-16T00:00:00	2024-11-08T12:00:00	6	Velocidad del viento	3.2
171418	7	Sololá	712	San Antonio Palopó	9	San Antonio Palopo	5	Mayo	2023-05-16T00:00:00	2024-11-08T12:00:00	7	Dirección del viento	3.22
171419	7	Sololá	712	San Antonio Palopó	9	San Antonio Palopo	5	Mayo	2023-05-16T00:00:00	2024-11-08T12:00:00	1	Precipitación	0
171420	7	Sololá	712	San Antonio Palopó	9	San Antonio Palopo	5	Mayo	2023-05-16T00:00:00	2024-11-08T12:00:00	8	Radiación solar	929
171421	7	Sololá	712	San Antonio Palopó	9	San Antonio Palopo	5	Mayo	2023-05-16T00:00:00	2024-11-08T13:00:00	2	Temperatura media	25.1
171422	7	Sololá	712	San Antonio Palopó	9	San Antonio Palopo	5	Mayo	2023-05-16T00:00:00	2024-11-08T13:00:00	4	Temperatura máxima	25.2
171423	7	Sololá	712	San Antonio Palopó	9	San Antonio Palopo	5	Mayo	2023-05-16T00:00:00	2024-11-08T13:00:00	3	Temperatura mínima	23.6
171424	7	Sololá	712	San Antonio Palopó	9	San Antonio Palopo	5	Mayo	2023-05-16T00:00:00	2024-11-08T13:00:00	5	Humedad	60
171425	7	Sololá	712	San Antonio Palopó	9	San Antonio Palopo	5	Mayo	2023-05-16T00:00:00	2024-11-08T13:00:00	6	Velocidad del viento	4.8
171426	7	Sololá	712	San Antonio Palopó	9	San Antonio Palopo	5	Mayo	2023-05-16T00:00:00	2024-11-08T13:00:00	7	Dirección del viento	4.83
171427	7	Sololá	712	San Antonio Palopó	9	San Antonio Palopo	5	Mayo	2023-05-16T00:00:00	2024-11-08T13:00:00	1	Precipitación	0
171428	7	Sololá	712	San Antonio Palopó	9	San Antonio Palopo	5	Mayo	2023-05-16T00:00:00	2024-11-08T13:00:00	8	Radiación solar	922
171429	7	Sololá	712	San Antonio Palopó	9	San Antonio Palopo	5	Mayo	2023-05-16T00:00:00	2024-11-08T14:00:00	2	Temperatura media	25.1
171430	7	Sololá	712	San Antonio Palopó	9	San Antonio Palopo	5	Mayo	2023-05-16T00:00:00	2024-11-08T14:00:00	4	Temperatura máxima	25.5
171431	7	Sololá	712	San Antonio Palopó	9	San Antonio Palopo	5	Mayo	2023-05-16T00:00:00	2024-11-08T14:00:00	3	Temperatura mínima	25
171432	7	Sololá	712	San Antonio Palopó	9	San Antonio Palopo	5	Mayo	2023-05-16T00:00:00	2024-11-08T14:00:00	5	Humedad	60
171433	7	Sololá	712	San Antonio Palopó	9	San Antonio Palopo	5	Mayo	2023-05-16T00:00:00	2024-11-08T14:00:00	6	Velocidad del viento	8
171434	7	Sololá	712	San Antonio Palopó	9	San Antonio Palopo	5	Mayo	2023-05-16T00:00:00	2024-11-08T14:00:00	7	Dirección del viento	8.05
171435	7	Sololá	712	San Antonio Palopó	9	San Antonio Palopo	5	Mayo	2023-05-16T00:00:00	2024-11-08T14:00:00	1	Precipitación	0
171436	7	Sololá	712	San Antonio Palopó	9	San Antonio Palopo	5	Mayo	2023-05-16T00:00:00	2024-11-08T14:00:00	8	Radiación solar	853
171437	7	Sololá	712	San Antonio Palopó	9	San Antonio Palopo	5	Mayo	2023-05-16T00:00:00	2024-11-08T15:00:00	2	Temperatura media	22.6
171438	7	Sololá	712	San Antonio Palopó	9	San Antonio Palopo	5	Mayo	2023-05-16T00:00:00	2024-11-08T15:00:00	4	Temperatura máxima	25.1
171439	7	Sololá	712	San Antonio Palopó	9	San Antonio Palopo	5	Mayo	2023-05-16T00:00:00	2024-11-08T15:00:00	3	Temperatura mínima	22.6
171440	7	Sololá	712	San Antonio Palopó	9	San Antonio Palopo	5	Mayo	2023-05-16T00:00:00	2024-11-08T15:00:00	5	Humedad	71
171441	7	Sololá	712	San Antonio Palopó	9	San Antonio Palopo	5	Mayo	2023-05-16T00:00:00	2024-11-08T15:00:00	6	Velocidad del viento	11.3
171442	7	Sololá	712	San Antonio Palopó	9	San Antonio Palopo	5	Mayo	2023-05-16T00:00:00	2024-11-08T15:00:00	7	Dirección del viento	11.27
171443	7	Sololá	712	San Antonio Palopó	9	San Antonio Palopo	5	Mayo	2023-05-16T00:00:00	2024-11-08T15:00:00	1	Precipitación	0
171444	7	Sololá	712	San Antonio Palopó	9	San Antonio Palopo	5	Mayo	2023-05-16T00:00:00	2024-11-08T15:00:00	8	Radiación solar	305
171445	7	Sololá	712	San Antonio Palopó	9	San Antonio Palopo	5	Mayo	2023-05-16T00:00:00	2024-11-08T16:00:00	2	Temperatura media	21.3
171446	7	Sololá	712	San Antonio Palopó	9	San Antonio Palopo	5	Mayo	2023-05-16T00:00:00	2024-11-08T16:00:00	4	Temperatura máxima	22.6
171447	7	Sololá	712	San Antonio Palopó	9	San Antonio Palopo	5	Mayo	2023-05-16T00:00:00	2024-11-08T16:00:00	3	Temperatura mínima	21.3
171448	7	Sololá	712	San Antonio Palopó	9	San Antonio Palopo	5	Mayo	2023-05-16T00:00:00	2024-11-08T16:00:00	5	Humedad	78
171449	7	Sololá	712	San Antonio Palopó	9	San Antonio Palopo	5	Mayo	2023-05-16T00:00:00	2024-11-08T16:00:00	6	Velocidad del viento	11.3
171450	7	Sololá	712	San Antonio Palopó	9	San Antonio Palopo	5	Mayo	2023-05-16T00:00:00	2024-11-08T16:00:00	7	Dirección del viento	11.27
171451	7	Sololá	712	San Antonio Palopó	9	San Antonio Palopo	5	Mayo	2023-05-16T00:00:00	2024-11-08T16:00:00	1	Precipitación	0
171452	7	Sololá	712	San Antonio Palopó	9	San Antonio Palopo	5	Mayo	2023-05-16T00:00:00	2024-11-08T16:00:00	8	Radiación solar	95
171453	7	Sololá	712	San Antonio Palopó	9	San Antonio Palopo	5	Mayo	2023-05-16T00:00:00	2024-11-08T17:00:00	2	Temperatura media	20.8
171454	7	Sololá	712	San Antonio Palopó	9	San Antonio Palopo	5	Mayo	2023-05-16T00:00:00	2024-11-08T17:00:00	4	Temperatura máxima	21.3
171455	7	Sololá	712	San Antonio Palopó	9	San Antonio Palopo	5	Mayo	2023-05-16T00:00:00	2024-11-08T17:00:00	3	Temperatura mínima	20.8
171456	7	Sololá	712	San Antonio Palopó	9	San Antonio Palopo	5	Mayo	2023-05-16T00:00:00	2024-11-08T17:00:00	5	Humedad	80
171457	7	Sololá	712	San Antonio Palopó	9	San Antonio Palopo	5	Mayo	2023-05-16T00:00:00	2024-11-08T17:00:00	6	Velocidad del viento	4.8
171458	7	Sololá	712	San Antonio Palopó	9	San Antonio Palopo	5	Mayo	2023-05-16T00:00:00	2024-11-08T17:00:00	7	Dirección del viento	4.83
171459	7	Sololá	712	San Antonio Palopó	9	San Antonio Palopo	5	Mayo	2023-05-16T00:00:00	2024-11-08T17:00:00	1	Precipitación	0
171460	7	Sololá	712	San Antonio Palopó	9	San Antonio Palopo	5	Mayo	2023-05-16T00:00:00	2024-11-08T17:00:00	8	Radiación solar	45
171461	7	Sololá	712	San Antonio Palopó	9	San Antonio Palopo	5	Mayo	2023-05-16T00:00:00	2024-11-08T18:00:00	2	Temperatura media	20.4
171462	7	Sololá	712	San Antonio Palopó	9	San Antonio Palopo	5	Mayo	2023-05-16T00:00:00	2024-11-08T18:00:00	4	Temperatura máxima	20.9
171463	7	Sololá	712	San Antonio Palopó	9	San Antonio Palopo	5	Mayo	2023-05-16T00:00:00	2024-11-08T18:00:00	3	Temperatura mínima	20.3
171464	7	Sololá	712	San Antonio Palopó	9	San Antonio Palopo	5	Mayo	2023-05-16T00:00:00	2024-11-08T18:00:00	5	Humedad	81
171465	7	Sololá	712	San Antonio Palopó	9	San Antonio Palopo	5	Mayo	2023-05-16T00:00:00	2024-11-08T18:00:00	6	Velocidad del viento	6.4
171466	7	Sololá	712	San Antonio Palopó	9	San Antonio Palopo	5	Mayo	2023-05-16T00:00:00	2024-11-08T18:00:00	7	Dirección del viento	6.44
171467	7	Sololá	712	San Antonio Palopó	9	San Antonio Palopo	5	Mayo	2023-05-16T00:00:00	2024-11-08T18:00:00	1	Precipitación	0
171468	7	Sololá	712	San Antonio Palopó	9	San Antonio Palopo	5	Mayo	2023-05-16T00:00:00	2024-11-08T18:00:00	8	Radiación solar	6
171469	7	Sololá	712	San Antonio Palopó	9	San Antonio Palopo	5	Mayo	2023-05-16T00:00:00	2024-11-08T19:00:00	2	Temperatura media	19.4
171470	7	Sololá	712	San Antonio Palopó	9	San Antonio Palopo	5	Mayo	2023-05-16T00:00:00	2024-11-08T19:00:00	4	Temperatura máxima	20.4
171471	7	Sololá	712	San Antonio Palopó	9	San Antonio Palopo	5	Mayo	2023-05-16T00:00:00	2024-11-08T19:00:00	3	Temperatura mínima	19.3
171472	7	Sololá	712	San Antonio Palopó	9	San Antonio Palopo	5	Mayo	2023-05-16T00:00:00	2024-11-08T19:00:00	5	Humedad	81
171473	7	Sololá	712	San Antonio Palopó	9	San Antonio Palopo	5	Mayo	2023-05-16T00:00:00	2024-11-08T19:00:00	6	Velocidad del viento	6.4
171474	7	Sololá	712	San Antonio Palopó	9	San Antonio Palopo	5	Mayo	2023-05-16T00:00:00	2024-11-08T19:00:00	7	Dirección del viento	6.44
171475	7	Sololá	712	San Antonio Palopó	9	San Antonio Palopo	5	Mayo	2023-05-16T00:00:00	2024-11-08T19:00:00	1	Precipitación	0
171476	7	Sololá	712	San Antonio Palopó	9	San Antonio Palopo	5	Mayo	2023-05-16T00:00:00	2024-11-08T19:00:00	8	Radiación solar	0
171477	7	Sololá	712	San Antonio Palopó	9	San Antonio Palopo	5	Mayo	2023-05-16T00:00:00	2024-11-08T20:00:00	2	Temperatura media	18.7
171478	7	Sololá	712	San Antonio Palopó	9	San Antonio Palopo	5	Mayo	2023-05-16T00:00:00	2024-11-08T20:00:00	4	Temperatura máxima	19.4
171479	7	Sololá	712	San Antonio Palopó	9	San Antonio Palopo	5	Mayo	2023-05-16T00:00:00	2024-11-08T20:00:00	3	Temperatura mínima	18.7
171480	7	Sololá	712	San Antonio Palopó	9	San Antonio Palopo	5	Mayo	2023-05-16T00:00:00	2024-11-08T20:00:00	5	Humedad	85
171481	7	Sololá	712	San Antonio Palopó	9	San Antonio Palopo	5	Mayo	2023-05-16T00:00:00	2024-11-08T20:00:00	6	Velocidad del viento	1.6
171482	7	Sololá	712	San Antonio Palopó	9	San Antonio Palopo	5	Mayo	2023-05-16T00:00:00	2024-11-08T20:00:00	7	Dirección del viento	1.61
171483	7	Sololá	712	San Antonio Palopó	9	San Antonio Palopo	5	Mayo	2023-05-16T00:00:00	2024-11-08T20:00:00	1	Precipitación	0
171484	7	Sololá	712	San Antonio Palopó	9	San Antonio Palopo	5	Mayo	2023-05-16T00:00:00	2024-11-08T20:00:00	8	Radiación solar	0
171485	7	Sololá	712	San Antonio Palopó	9	San Antonio Palopo	5	Mayo	2023-05-16T00:00:00	2024-11-08T21:00:00	2	Temperatura media	18.6
171486	7	Sololá	712	San Antonio Palopó	9	San Antonio Palopo	5	Mayo	2023-05-16T00:00:00	2024-11-08T21:00:00	4	Temperatura máxima	19.2
171487	7	Sololá	712	San Antonio Palopó	9	San Antonio Palopo	5	Mayo	2023-05-16T00:00:00	2024-11-08T21:00:00	3	Temperatura mínima	18.6
171488	7	Sololá	712	San Antonio Palopó	9	San Antonio Palopo	5	Mayo	2023-05-16T00:00:00	2024-11-08T21:00:00	5	Humedad	82
171489	7	Sololá	712	San Antonio Palopó	9	San Antonio Palopo	5	Mayo	2023-05-16T00:00:00	2024-11-08T21:00:00	6	Velocidad del viento	3.2
171490	7	Sololá	712	San Antonio Palopó	9	San Antonio Palopo	5	Mayo	2023-05-16T00:00:00	2024-11-08T21:00:00	7	Dirección del viento	3.22
171491	7	Sololá	712	San Antonio Palopó	9	San Antonio Palopo	5	Mayo	2023-05-16T00:00:00	2024-11-08T21:00:00	1	Precipitación	0
171492	7	Sololá	712	San Antonio Palopó	9	San Antonio Palopo	5	Mayo	2023-05-16T00:00:00	2024-11-08T21:00:00	8	Radiación solar	0
171493	7	Sololá	712	San Antonio Palopó	9	San Antonio Palopo	5	Mayo	2023-05-16T00:00:00	2024-11-08T22:00:00	2	Temperatura media	18.9
171494	7	Sololá	712	San Antonio Palopó	9	San Antonio Palopo	5	Mayo	2023-05-16T00:00:00	2024-11-08T22:00:00	4	Temperatura máxima	19.1
171495	7	Sololá	712	San Antonio Palopó	9	San Antonio Palopo	5	Mayo	2023-05-16T00:00:00	2024-11-08T22:00:00	3	Temperatura mínima	18.4
171496	7	Sololá	712	San Antonio Palopó	9	San Antonio Palopo	5	Mayo	2023-05-16T00:00:00	2024-11-08T22:00:00	5	Humedad	83
171497	7	Sololá	712	San Antonio Palopó	9	San Antonio Palopo	5	Mayo	2023-05-16T00:00:00	2024-11-08T22:00:00	6	Velocidad del viento	3.2
171498	7	Sololá	712	San Antonio Palopó	9	San Antonio Palopo	5	Mayo	2023-05-16T00:00:00	2024-11-08T22:00:00	7	Dirección del viento	3.22
171499	7	Sololá	712	San Antonio Palopó	9	San Antonio Palopo	5	Mayo	2023-05-16T00:00:00	2024-11-08T22:00:00	1	Precipitación	0
171500	7	Sololá	712	San Antonio Palopó	9	San Antonio Palopo	5	Mayo	2023-05-16T00:00:00	2024-11-08T22:00:00	8	Radiación solar	0
171501	7	Sololá	712	San Antonio Palopó	9	San Antonio Palopo	5	Mayo	2023-05-16T00:00:00	2024-11-08T23:00:00	2	Temperatura media	19.3
171502	7	Sololá	712	San Antonio Palopó	9	San Antonio Palopo	5	Mayo	2023-05-16T00:00:00	2024-11-08T23:00:00	4	Temperatura máxima	19.3
171503	7	Sololá	712	San Antonio Palopó	9	San Antonio Palopo	5	Mayo	2023-05-16T00:00:00	2024-11-08T23:00:00	3	Temperatura mínima	18.3
171504	7	Sololá	712	San Antonio Palopó	9	San Antonio Palopo	5	Mayo	2023-05-16T00:00:00	2024-11-08T23:00:00	5	Humedad	85
171505	7	Sololá	712	San Antonio Palopó	9	San Antonio Palopo	5	Mayo	2023-05-16T00:00:00	2024-11-08T23:00:00	6	Velocidad del viento	3.2
171506	7	Sololá	712	San Antonio Palopó	9	San Antonio Palopo	5	Mayo	2023-05-16T00:00:00	2024-11-08T23:00:00	7	Dirección del viento	3.22
171507	7	Sololá	712	San Antonio Palopó	9	San Antonio Palopo	5	Mayo	2023-05-16T00:00:00	2024-11-08T23:00:00	1	Precipitación	0
171508	7	Sololá	712	San Antonio Palopó	9	San Antonio Palopo	5	Mayo	2023-05-16T00:00:00	2024-11-08T23:00:00	8	Radiación solar	0
171509	7	Sololá	712	San Antonio Palopó	9	San Antonio Palopo	5	Mayo	2023-05-17T00:00:00	2024-11-08T00:00:00	2	Temperatura media	18.8
171510	7	Sololá	712	San Antonio Palopó	9	San Antonio Palopo	5	Mayo	2023-05-17T00:00:00	2024-11-08T00:00:00	4	Temperatura máxima	19.4
171511	7	Sololá	712	San Antonio Palopó	9	San Antonio Palopo	5	Mayo	2023-05-17T00:00:00	2024-11-08T00:00:00	3	Temperatura mínima	18.8
171512	7	Sololá	712	San Antonio Palopó	9	San Antonio Palopo	5	Mayo	2023-05-17T00:00:00	2024-11-08T00:00:00	5	Humedad	82
171513	7	Sololá	712	San Antonio Palopó	9	San Antonio Palopo	5	Mayo	2023-05-17T00:00:00	2024-11-08T00:00:00	6	Velocidad del viento	4.8
171514	7	Sololá	712	San Antonio Palopó	9	San Antonio Palopo	5	Mayo	2023-05-17T00:00:00	2024-11-08T00:00:00	7	Dirección del viento	4.83
171515	7	Sololá	712	San Antonio Palopó	9	San Antonio Palopo	5	Mayo	2023-05-17T00:00:00	2024-11-08T00:00:00	1	Precipitación	0
171516	7	Sololá	712	San Antonio Palopó	9	San Antonio Palopo	5	Mayo	2023-05-17T00:00:00	2024-11-08T00:00:00	8	Radiación solar	0
171517	7	Sololá	712	San Antonio Palopó	9	San Antonio Palopo	5	Mayo	2023-05-17T00:00:00	2024-11-08T01:00:00	2	Temperatura media	19.3
171518	7	Sololá	712	San Antonio Palopó	9	San Antonio Palopo	5	Mayo	2023-05-17T00:00:00	2024-11-08T01:00:00	4	Temperatura máxima	19.3
171519	7	Sololá	712	San Antonio Palopó	9	San Antonio Palopo	5	Mayo	2023-05-17T00:00:00	2024-11-08T01:00:00	3	Temperatura mínima	18.8
171520	7	Sololá	712	San Antonio Palopó	9	San Antonio Palopo	5	Mayo	2023-05-17T00:00:00	2024-11-08T01:00:00	5	Humedad	74
171521	7	Sololá	712	San Antonio Palopó	9	San Antonio Palopo	5	Mayo	2023-05-17T00:00:00	2024-11-08T01:00:00	6	Velocidad del viento	6.4
171522	7	Sololá	712	San Antonio Palopó	9	San Antonio Palopo	5	Mayo	2023-05-17T00:00:00	2024-11-08T01:00:00	7	Dirección del viento	6.44
171523	7	Sololá	712	San Antonio Palopó	9	San Antonio Palopo	5	Mayo	2023-05-17T00:00:00	2024-11-08T01:00:00	1	Precipitación	0
171524	7	Sololá	712	San Antonio Palopó	9	San Antonio Palopo	5	Mayo	2023-05-17T00:00:00	2024-11-08T01:00:00	8	Radiación solar	0
171525	7	Sololá	712	San Antonio Palopó	9	San Antonio Palopo	5	Mayo	2023-05-17T00:00:00	2024-11-08T02:00:00	2	Temperatura media	18.9
171526	7	Sololá	712	San Antonio Palopó	9	San Antonio Palopo	5	Mayo	2023-05-17T00:00:00	2024-11-08T02:00:00	4	Temperatura máxima	19.6
171527	7	Sololá	712	San Antonio Palopó	9	San Antonio Palopo	5	Mayo	2023-05-17T00:00:00	2024-11-08T02:00:00	3	Temperatura mínima	18.9
171528	7	Sololá	712	San Antonio Palopó	9	San Antonio Palopo	5	Mayo	2023-05-17T00:00:00	2024-11-08T02:00:00	5	Humedad	74
171529	7	Sololá	712	San Antonio Palopó	9	San Antonio Palopo	5	Mayo	2023-05-17T00:00:00	2024-11-08T02:00:00	6	Velocidad del viento	11.3
171530	7	Sololá	712	San Antonio Palopó	9	San Antonio Palopo	5	Mayo	2023-05-17T00:00:00	2024-11-08T02:00:00	7	Dirección del viento	11.27
171531	7	Sololá	712	San Antonio Palopó	9	San Antonio Palopo	5	Mayo	2023-05-17T00:00:00	2024-11-08T02:00:00	1	Precipitación	0
171532	7	Sololá	712	San Antonio Palopó	9	San Antonio Palopo	5	Mayo	2023-05-17T00:00:00	2024-11-08T02:00:00	8	Radiación solar	0
171533	7	Sololá	712	San Antonio Palopó	9	San Antonio Palopo	5	Mayo	2023-05-17T00:00:00	2024-11-08T03:00:00	2	Temperatura media	18.8
171534	7	Sololá	712	San Antonio Palopó	9	San Antonio Palopo	5	Mayo	2023-05-17T00:00:00	2024-11-08T03:00:00	4	Temperatura máxima	19.1
171535	7	Sololá	712	San Antonio Palopó	9	San Antonio Palopo	5	Mayo	2023-05-17T00:00:00	2024-11-08T03:00:00	3	Temperatura mínima	18.7
171536	7	Sololá	712	San Antonio Palopó	9	San Antonio Palopo	5	Mayo	2023-05-17T00:00:00	2024-11-08T03:00:00	5	Humedad	75
171537	7	Sololá	712	San Antonio Palopó	9	San Antonio Palopo	5	Mayo	2023-05-17T00:00:00	2024-11-08T03:00:00	6	Velocidad del viento	4.8
171538	7	Sololá	712	San Antonio Palopó	9	San Antonio Palopo	5	Mayo	2023-05-17T00:00:00	2024-11-08T03:00:00	7	Dirección del viento	4.83
171539	7	Sololá	712	San Antonio Palopó	9	San Antonio Palopo	5	Mayo	2023-05-17T00:00:00	2024-11-08T03:00:00	1	Precipitación	0
171540	7	Sololá	712	San Antonio Palopó	9	San Antonio Palopo	5	Mayo	2023-05-17T00:00:00	2024-11-08T03:00:00	8	Radiación solar	0
171541	7	Sololá	712	San Antonio Palopó	9	San Antonio Palopo	5	Mayo	2023-05-17T00:00:00	2024-11-08T04:00:00	2	Temperatura media	18.4
171542	7	Sololá	712	San Antonio Palopó	9	San Antonio Palopo	5	Mayo	2023-05-17T00:00:00	2024-11-08T04:00:00	4	Temperatura máxima	18.9
171543	7	Sololá	712	San Antonio Palopó	9	San Antonio Palopo	5	Mayo	2023-05-17T00:00:00	2024-11-08T04:00:00	3	Temperatura mínima	17.8
171544	7	Sololá	712	San Antonio Palopó	9	San Antonio Palopo	5	Mayo	2023-05-17T00:00:00	2024-11-08T04:00:00	5	Humedad	73
171545	7	Sololá	712	San Antonio Palopó	9	San Antonio Palopo	5	Mayo	2023-05-17T00:00:00	2024-11-08T04:00:00	6	Velocidad del viento	4.8
171546	7	Sololá	712	San Antonio Palopó	9	San Antonio Palopo	5	Mayo	2023-05-17T00:00:00	2024-11-08T04:00:00	7	Dirección del viento	4.83
171547	7	Sololá	712	San Antonio Palopó	9	San Antonio Palopo	5	Mayo	2023-05-17T00:00:00	2024-11-08T04:00:00	1	Precipitación	0
171548	7	Sololá	712	San Antonio Palopó	9	San Antonio Palopo	5	Mayo	2023-05-17T00:00:00	2024-11-08T04:00:00	8	Radiación solar	0
171549	7	Sololá	712	San Antonio Palopó	9	San Antonio Palopo	5	Mayo	2023-05-17T00:00:00	2024-11-08T05:00:00	2	Temperatura media	18.2
171550	7	Sololá	712	San Antonio Palopó	9	San Antonio Palopo	5	Mayo	2023-05-17T00:00:00	2024-11-08T05:00:00	4	Temperatura máxima	18.5
171551	7	Sololá	712	San Antonio Palopó	9	San Antonio Palopo	5	Mayo	2023-05-17T00:00:00	2024-11-08T05:00:00	3	Temperatura mínima	18
171552	7	Sololá	712	San Antonio Palopó	9	San Antonio Palopo	5	Mayo	2023-05-17T00:00:00	2024-11-08T05:00:00	5	Humedad	74
171553	7	Sololá	712	San Antonio Palopó	9	San Antonio Palopo	5	Mayo	2023-05-17T00:00:00	2024-11-08T05:00:00	6	Velocidad del viento	4.8
171554	7	Sololá	712	San Antonio Palopó	9	San Antonio Palopo	5	Mayo	2023-05-17T00:00:00	2024-11-08T05:00:00	7	Dirección del viento	4.83
171555	7	Sololá	712	San Antonio Palopó	9	San Antonio Palopo	5	Mayo	2023-05-17T00:00:00	2024-11-08T05:00:00	1	Precipitación	0
171556	7	Sololá	712	San Antonio Palopó	9	San Antonio Palopo	5	Mayo	2023-05-17T00:00:00	2024-11-08T05:00:00	8	Radiación solar	0
171557	7	Sololá	712	San Antonio Palopó	9	San Antonio Palopo	5	Mayo	2023-05-17T00:00:00	2024-11-08T06:00:00	2	Temperatura media	17.1
171558	7	Sololá	712	San Antonio Palopó	9	San Antonio Palopo	5	Mayo	2023-05-17T00:00:00	2024-11-08T06:00:00	4	Temperatura máxima	18.2
171559	7	Sololá	712	San Antonio Palopó	9	San Antonio Palopo	5	Mayo	2023-05-17T00:00:00	2024-11-08T06:00:00	3	Temperatura mínima	16.9
171560	7	Sololá	712	San Antonio Palopó	9	San Antonio Palopo	5	Mayo	2023-05-17T00:00:00	2024-11-08T06:00:00	5	Humedad	79
171561	7	Sololá	712	San Antonio Palopó	9	San Antonio Palopo	5	Mayo	2023-05-17T00:00:00	2024-11-08T06:00:00	6	Velocidad del viento	3.2
171562	7	Sololá	712	San Antonio Palopó	9	San Antonio Palopo	5	Mayo	2023-05-17T00:00:00	2024-11-08T06:00:00	7	Dirección del viento	3.22
171563	7	Sololá	712	San Antonio Palopó	9	San Antonio Palopo	5	Mayo	2023-05-17T00:00:00	2024-11-08T06:00:00	1	Precipitación	0
171564	7	Sololá	712	San Antonio Palopó	9	San Antonio Palopo	5	Mayo	2023-05-17T00:00:00	2024-11-08T06:00:00	8	Radiación solar	3
171565	7	Sololá	712	San Antonio Palopó	9	San Antonio Palopo	5	Mayo	2023-05-17T00:00:00	2024-11-08T07:00:00	2	Temperatura media	16.9
171566	7	Sololá	712	San Antonio Palopó	9	San Antonio Palopo	5	Mayo	2023-05-17T00:00:00	2024-11-08T07:00:00	4	Temperatura máxima	17.3
171567	7	Sololá	712	San Antonio Palopó	9	San Antonio Palopo	5	Mayo	2023-05-17T00:00:00	2024-11-08T07:00:00	3	Temperatura mínima	16.9
171568	7	Sololá	712	San Antonio Palopó	9	San Antonio Palopo	5	Mayo	2023-05-17T00:00:00	2024-11-08T07:00:00	5	Humedad	81
171569	7	Sololá	712	San Antonio Palopó	9	San Antonio Palopo	5	Mayo	2023-05-17T00:00:00	2024-11-08T07:00:00	6	Velocidad del viento	3.2
171570	7	Sololá	712	San Antonio Palopó	9	San Antonio Palopo	5	Mayo	2023-05-17T00:00:00	2024-11-08T07:00:00	7	Dirección del viento	3.22
171571	7	Sololá	712	San Antonio Palopó	9	San Antonio Palopo	5	Mayo	2023-05-17T00:00:00	2024-11-08T07:00:00	1	Precipitación	0
171572	7	Sololá	712	San Antonio Palopó	9	San Antonio Palopo	5	Mayo	2023-05-17T00:00:00	2024-11-08T07:00:00	8	Radiación solar	27
171573	7	Sololá	712	San Antonio Palopó	9	San Antonio Palopo	5	Mayo	2023-05-17T00:00:00	2024-11-08T08:00:00	2	Temperatura media	19.7
171574	7	Sololá	712	San Antonio Palopó	9	San Antonio Palopo	5	Mayo	2023-05-17T00:00:00	2024-11-08T08:00:00	4	Temperatura máxima	19.7
171575	7	Sololá	712	San Antonio Palopó	9	San Antonio Palopo	5	Mayo	2023-05-17T00:00:00	2024-11-08T08:00:00	3	Temperatura mínima	16.8
171576	7	Sololá	712	San Antonio Palopó	9	San Antonio Palopo	5	Mayo	2023-05-17T00:00:00	2024-11-08T08:00:00	5	Humedad	76
171577	7	Sololá	712	San Antonio Palopó	9	San Antonio Palopo	5	Mayo	2023-05-17T00:00:00	2024-11-08T08:00:00	6	Velocidad del viento	3.2
171578	7	Sololá	712	San Antonio Palopó	9	San Antonio Palopo	5	Mayo	2023-05-17T00:00:00	2024-11-08T08:00:00	7	Dirección del viento	3.22
171579	7	Sololá	712	San Antonio Palopó	9	San Antonio Palopo	5	Mayo	2023-05-17T00:00:00	2024-11-08T08:00:00	1	Precipitación	0
171580	7	Sololá	712	San Antonio Palopó	9	San Antonio Palopo	5	Mayo	2023-05-17T00:00:00	2024-11-08T08:00:00	8	Radiación solar	213
171581	7	Sololá	712	San Antonio Palopó	9	San Antonio Palopo	5	Mayo	2023-05-17T00:00:00	2024-11-08T09:00:00	2	Temperatura media	20.6
171582	7	Sololá	712	San Antonio Palopó	9	San Antonio Palopo	5	Mayo	2023-05-17T00:00:00	2024-11-08T09:00:00	4	Temperatura máxima	20.7
171583	7	Sololá	712	San Antonio Palopó	9	San Antonio Palopo	5	Mayo	2023-05-17T00:00:00	2024-11-08T09:00:00	3	Temperatura mínima	19.7
171584	7	Sololá	712	San Antonio Palopó	9	San Antonio Palopo	5	Mayo	2023-05-17T00:00:00	2024-11-08T09:00:00	5	Humedad	73
171585	7	Sololá	712	San Antonio Palopó	9	San Antonio Palopo	5	Mayo	2023-05-17T00:00:00	2024-11-08T09:00:00	6	Velocidad del viento	1.6
171586	7	Sololá	712	San Antonio Palopó	9	San Antonio Palopo	5	Mayo	2023-05-17T00:00:00	2024-11-08T09:00:00	7	Dirección del viento	1.61
171587	7	Sololá	712	San Antonio Palopó	9	San Antonio Palopo	5	Mayo	2023-05-17T00:00:00	2024-11-08T09:00:00	1	Precipitación	0
171588	7	Sololá	712	San Antonio Palopó	9	San Antonio Palopo	5	Mayo	2023-05-17T00:00:00	2024-11-08T09:00:00	8	Radiación solar	541
171589	7	Sololá	712	San Antonio Palopó	9	San Antonio Palopo	5	Mayo	2023-05-17T00:00:00	2024-11-08T10:00:00	2	Temperatura media	21.9
171590	7	Sololá	712	San Antonio Palopó	9	San Antonio Palopo	5	Mayo	2023-05-17T00:00:00	2024-11-08T10:00:00	4	Temperatura máxima	21.9
171591	7	Sololá	712	San Antonio Palopó	9	San Antonio Palopo	5	Mayo	2023-05-17T00:00:00	2024-11-08T10:00:00	3	Temperatura mínima	20.5
171592	7	Sololá	712	San Antonio Palopó	9	San Antonio Palopo	5	Mayo	2023-05-17T00:00:00	2024-11-08T10:00:00	5	Humedad	70
171593	7	Sololá	712	San Antonio Palopó	9	San Antonio Palopo	5	Mayo	2023-05-17T00:00:00	2024-11-08T10:00:00	6	Velocidad del viento	3.2
171594	7	Sololá	712	San Antonio Palopó	9	San Antonio Palopo	5	Mayo	2023-05-17T00:00:00	2024-11-08T10:00:00	7	Dirección del viento	3.22
171595	7	Sololá	712	San Antonio Palopó	9	San Antonio Palopo	5	Mayo	2023-05-17T00:00:00	2024-11-08T10:00:00	1	Precipitación	0
171596	7	Sololá	712	San Antonio Palopó	9	San Antonio Palopo	5	Mayo	2023-05-17T00:00:00	2024-11-08T10:00:00	8	Radiación solar	730
171597	7	Sololá	712	San Antonio Palopó	9	San Antonio Palopo	5	Mayo	2023-05-17T00:00:00	2024-11-08T11:00:00	2	Temperatura media	23.1
171598	7	Sololá	712	San Antonio Palopó	9	San Antonio Palopo	5	Mayo	2023-05-17T00:00:00	2024-11-08T11:00:00	4	Temperatura máxima	23.1
171599	7	Sololá	712	San Antonio Palopó	9	San Antonio Palopo	5	Mayo	2023-05-17T00:00:00	2024-11-08T11:00:00	3	Temperatura mínima	21.9
171600	7	Sololá	712	San Antonio Palopó	9	San Antonio Palopo	5	Mayo	2023-05-17T00:00:00	2024-11-08T11:00:00	5	Humedad	67
171601	7	Sololá	712	San Antonio Palopó	9	San Antonio Palopo	5	Mayo	2023-05-17T00:00:00	2024-11-08T11:00:00	6	Velocidad del viento	3.2
171602	7	Sololá	712	San Antonio Palopó	9	San Antonio Palopo	5	Mayo	2023-05-17T00:00:00	2024-11-08T11:00:00	7	Dirección del viento	3.22
171603	7	Sololá	712	San Antonio Palopó	9	San Antonio Palopo	5	Mayo	2023-05-17T00:00:00	2024-11-08T11:00:00	1	Precipitación	0
171604	7	Sololá	712	San Antonio Palopó	9	San Antonio Palopo	5	Mayo	2023-05-17T00:00:00	2024-11-08T11:00:00	8	Radiación solar	866
171605	7	Sololá	712	San Antonio Palopó	9	San Antonio Palopo	5	Mayo	2023-05-17T00:00:00	2024-11-08T12:00:00	2	Temperatura media	23.7
171606	7	Sololá	712	San Antonio Palopó	9	San Antonio Palopo	5	Mayo	2023-05-17T00:00:00	2024-11-08T12:00:00	4	Temperatura máxima	23.9
171607	7	Sololá	712	San Antonio Palopó	9	San Antonio Palopo	5	Mayo	2023-05-17T00:00:00	2024-11-08T12:00:00	3	Temperatura mínima	23.1
171608	7	Sololá	712	San Antonio Palopó	9	San Antonio Palopo	5	Mayo	2023-05-17T00:00:00	2024-11-08T12:00:00	5	Humedad	64
171609	7	Sololá	712	San Antonio Palopó	9	San Antonio Palopo	5	Mayo	2023-05-17T00:00:00	2024-11-08T12:00:00	6	Velocidad del viento	3.2
171610	7	Sololá	712	San Antonio Palopó	9	San Antonio Palopo	5	Mayo	2023-05-17T00:00:00	2024-11-08T12:00:00	7	Dirección del viento	3.22
171611	7	Sololá	712	San Antonio Palopó	9	San Antonio Palopo	5	Mayo	2023-05-17T00:00:00	2024-11-08T12:00:00	1	Precipitación	0
171612	7	Sololá	712	San Antonio Palopó	9	San Antonio Palopo	5	Mayo	2023-05-17T00:00:00	2024-11-08T12:00:00	8	Radiación solar	926
171613	7	Sololá	712	San Antonio Palopó	9	San Antonio Palopo	5	Mayo	2023-05-17T00:00:00	2024-11-08T13:00:00	2	Temperatura media	25.3
171614	7	Sololá	712	San Antonio Palopó	9	San Antonio Palopo	5	Mayo	2023-05-17T00:00:00	2024-11-08T13:00:00	4	Temperatura máxima	25.4
171615	7	Sololá	712	San Antonio Palopó	9	San Antonio Palopo	5	Mayo	2023-05-17T00:00:00	2024-11-08T13:00:00	3	Temperatura mínima	23.7
171616	7	Sololá	712	San Antonio Palopó	9	San Antonio Palopo	5	Mayo	2023-05-17T00:00:00	2024-11-08T13:00:00	5	Humedad	60
171617	7	Sololá	712	San Antonio Palopó	9	San Antonio Palopo	5	Mayo	2023-05-17T00:00:00	2024-11-08T13:00:00	6	Velocidad del viento	6.4
171618	7	Sololá	712	San Antonio Palopó	9	San Antonio Palopo	5	Mayo	2023-05-17T00:00:00	2024-11-08T13:00:00	7	Dirección del viento	6.44
171619	7	Sololá	712	San Antonio Palopó	9	San Antonio Palopo	5	Mayo	2023-05-17T00:00:00	2024-11-08T13:00:00	1	Precipitación	0
171620	7	Sololá	712	San Antonio Palopó	9	San Antonio Palopo	5	Mayo	2023-05-17T00:00:00	2024-11-08T13:00:00	8	Radiación solar	920
171621	7	Sololá	712	San Antonio Palopó	9	San Antonio Palopo	5	Mayo	2023-05-17T00:00:00	2024-11-08T14:00:00	2	Temperatura media	24.7
171622	7	Sololá	712	San Antonio Palopó	9	San Antonio Palopo	5	Mayo	2023-05-17T00:00:00	2024-11-08T14:00:00	4	Temperatura máxima	25.4
171623	7	Sololá	712	San Antonio Palopó	9	San Antonio Palopo	5	Mayo	2023-05-17T00:00:00	2024-11-08T14:00:00	3	Temperatura mínima	24.3
171624	7	Sololá	712	San Antonio Palopó	9	San Antonio Palopo	5	Mayo	2023-05-17T00:00:00	2024-11-08T14:00:00	5	Humedad	68
171625	7	Sololá	712	San Antonio Palopó	9	San Antonio Palopo	5	Mayo	2023-05-17T00:00:00	2024-11-08T14:00:00	6	Velocidad del viento	11.3
171626	7	Sololá	712	San Antonio Palopó	9	San Antonio Palopo	5	Mayo	2023-05-17T00:00:00	2024-11-08T14:00:00	7	Dirección del viento	11.27
171627	7	Sololá	712	San Antonio Palopó	9	San Antonio Palopo	5	Mayo	2023-05-17T00:00:00	2024-11-08T14:00:00	1	Precipitación	0
171628	7	Sololá	712	San Antonio Palopó	9	San Antonio Palopo	5	Mayo	2023-05-17T00:00:00	2024-11-08T14:00:00	8	Radiación solar	873
171629	7	Sololá	712	San Antonio Palopó	9	San Antonio Palopo	5	Mayo	2023-05-17T00:00:00	2024-11-08T15:00:00	2	Temperatura media	23.3
171630	7	Sololá	712	San Antonio Palopó	9	San Antonio Palopo	5	Mayo	2023-05-17T00:00:00	2024-11-08T15:00:00	4	Temperatura máxima	24.7
171631	7	Sololá	712	San Antonio Palopó	9	San Antonio Palopo	5	Mayo	2023-05-17T00:00:00	2024-11-08T15:00:00	3	Temperatura mínima	22.7
171632	7	Sololá	712	San Antonio Palopó	9	San Antonio Palopo	5	Mayo	2023-05-17T00:00:00	2024-11-08T15:00:00	5	Humedad	73
171633	7	Sololá	712	San Antonio Palopó	9	San Antonio Palopo	5	Mayo	2023-05-17T00:00:00	2024-11-08T15:00:00	6	Velocidad del viento	11.3
171634	7	Sololá	712	San Antonio Palopó	9	San Antonio Palopo	5	Mayo	2023-05-17T00:00:00	2024-11-08T15:00:00	7	Dirección del viento	11.27
171635	7	Sololá	712	San Antonio Palopó	9	San Antonio Palopo	5	Mayo	2023-05-17T00:00:00	2024-11-08T15:00:00	1	Precipitación	0
171636	7	Sololá	712	San Antonio Palopó	9	San Antonio Palopo	5	Mayo	2023-05-17T00:00:00	2024-11-08T15:00:00	8	Radiación solar	367
171637	7	Sololá	712	San Antonio Palopó	9	San Antonio Palopo	5	Mayo	2023-05-17T00:00:00	2024-11-08T16:00:00	2	Temperatura media	22.5
171638	7	Sololá	712	San Antonio Palopó	9	San Antonio Palopo	5	Mayo	2023-05-17T00:00:00	2024-11-08T16:00:00	4	Temperatura máxima	23.4
171639	7	Sololá	712	San Antonio Palopó	9	San Antonio Palopo	5	Mayo	2023-05-17T00:00:00	2024-11-08T16:00:00	3	Temperatura mínima	22.4
171640	7	Sololá	712	San Antonio Palopó	9	San Antonio Palopo	5	Mayo	2023-05-17T00:00:00	2024-11-08T16:00:00	5	Humedad	75
171641	7	Sololá	712	San Antonio Palopó	9	San Antonio Palopo	5	Mayo	2023-05-17T00:00:00	2024-11-08T16:00:00	6	Velocidad del viento	9.7
171642	7	Sololá	712	San Antonio Palopó	9	San Antonio Palopo	5	Mayo	2023-05-17T00:00:00	2024-11-08T16:00:00	7	Dirección del viento	9.66
171643	7	Sololá	712	San Antonio Palopó	9	San Antonio Palopo	5	Mayo	2023-05-17T00:00:00	2024-11-08T16:00:00	1	Precipitación	0
171644	7	Sololá	712	San Antonio Palopó	9	San Antonio Palopo	5	Mayo	2023-05-17T00:00:00	2024-11-08T16:00:00	8	Radiación solar	235
171645	7	Sololá	712	San Antonio Palopó	9	San Antonio Palopo	5	Mayo	2023-05-17T00:00:00	2024-11-08T17:00:00	2	Temperatura media	21.9
171646	7	Sololá	712	San Antonio Palopó	9	San Antonio Palopo	5	Mayo	2023-05-17T00:00:00	2024-11-08T17:00:00	4	Temperatura máxima	22.6
171647	7	Sololá	712	San Antonio Palopó	9	San Antonio Palopo	5	Mayo	2023-05-17T00:00:00	2024-11-08T17:00:00	3	Temperatura mínima	21.9
171648	7	Sololá	712	San Antonio Palopó	9	San Antonio Palopo	5	Mayo	2023-05-17T00:00:00	2024-11-08T17:00:00	5	Humedad	77
171649	7	Sololá	712	San Antonio Palopó	9	San Antonio Palopo	5	Mayo	2023-05-17T00:00:00	2024-11-08T17:00:00	6	Velocidad del viento	6.4
171650	7	Sololá	712	San Antonio Palopó	9	San Antonio Palopo	5	Mayo	2023-05-17T00:00:00	2024-11-08T17:00:00	7	Dirección del viento	6.44
171651	7	Sololá	712	San Antonio Palopó	9	San Antonio Palopo	5	Mayo	2023-05-17T00:00:00	2024-11-08T17:00:00	1	Precipitación	0
171652	7	Sololá	712	San Antonio Palopó	9	San Antonio Palopo	5	Mayo	2023-05-17T00:00:00	2024-11-08T17:00:00	8	Radiación solar	75
171653	7	Sololá	712	San Antonio Palopó	9	San Antonio Palopo	5	Mayo	2023-05-17T00:00:00	2024-11-08T18:00:00	2	Temperatura media	20.9
171654	7	Sololá	712	San Antonio Palopó	9	San Antonio Palopo	5	Mayo	2023-05-17T00:00:00	2024-11-08T18:00:00	4	Temperatura máxima	21.9
171655	7	Sololá	712	San Antonio Palopó	9	San Antonio Palopo	5	Mayo	2023-05-17T00:00:00	2024-11-08T18:00:00	3	Temperatura mínima	20.9
171656	7	Sololá	712	San Antonio Palopó	9	San Antonio Palopo	5	Mayo	2023-05-17T00:00:00	2024-11-08T18:00:00	5	Humedad	85
171657	7	Sololá	712	San Antonio Palopó	9	San Antonio Palopo	5	Mayo	2023-05-17T00:00:00	2024-11-08T18:00:00	6	Velocidad del viento	4.8
171658	7	Sololá	712	San Antonio Palopó	9	San Antonio Palopo	5	Mayo	2023-05-17T00:00:00	2024-11-08T18:00:00	7	Dirección del viento	4.83
171659	7	Sololá	712	San Antonio Palopó	9	San Antonio Palopo	5	Mayo	2023-05-17T00:00:00	2024-11-08T18:00:00	1	Precipitación	1
171660	7	Sololá	712	San Antonio Palopó	9	San Antonio Palopo	5	Mayo	2023-05-17T00:00:00	2024-11-08T18:00:00	8	Radiación solar	31
171661	7	Sololá	712	San Antonio Palopó	9	San Antonio Palopo	5	Mayo	2023-05-17T00:00:00	2024-11-08T19:00:00	2	Temperatura media	20
171662	7	Sololá	712	San Antonio Palopó	9	San Antonio Palopo	5	Mayo	2023-05-17T00:00:00	2024-11-08T19:00:00	4	Temperatura máxima	21
171663	7	Sololá	712	San Antonio Palopó	9	San Antonio Palopo	5	Mayo	2023-05-17T00:00:00	2024-11-08T19:00:00	3	Temperatura mínima	20
171664	7	Sololá	712	San Antonio Palopó	9	San Antonio Palopo	5	Mayo	2023-05-17T00:00:00	2024-11-08T19:00:00	5	Humedad	89
171665	7	Sololá	712	San Antonio Palopó	9	San Antonio Palopo	5	Mayo	2023-05-17T00:00:00	2024-11-08T19:00:00	6	Velocidad del viento	4.8
171666	7	Sololá	712	San Antonio Palopó	9	San Antonio Palopo	5	Mayo	2023-05-17T00:00:00	2024-11-08T19:00:00	7	Dirección del viento	4.83
171667	7	Sololá	712	San Antonio Palopó	9	San Antonio Palopo	5	Mayo	2023-05-17T00:00:00	2024-11-08T19:00:00	1	Precipitación	0
171668	7	Sololá	712	San Antonio Palopó	9	San Antonio Palopo	5	Mayo	2023-05-17T00:00:00	2024-11-08T19:00:00	8	Radiación solar	0
171669	7	Sololá	712	San Antonio Palopó	9	San Antonio Palopo	5	Mayo	2023-05-17T00:00:00	2024-11-08T20:00:00	2	Temperatura media	19.9
171670	7	Sololá	712	San Antonio Palopó	9	San Antonio Palopo	5	Mayo	2023-05-17T00:00:00	2024-11-08T20:00:00	4	Temperatura máxima	20.1
171671	7	Sololá	712	San Antonio Palopó	9	San Antonio Palopo	5	Mayo	2023-05-17T00:00:00	2024-11-08T20:00:00	3	Temperatura mínima	19.8
171672	7	Sololá	712	San Antonio Palopó	9	San Antonio Palopo	5	Mayo	2023-05-17T00:00:00	2024-11-08T20:00:00	5	Humedad	88
171673	7	Sololá	712	San Antonio Palopó	9	San Antonio Palopo	5	Mayo	2023-05-17T00:00:00	2024-11-08T20:00:00	6	Velocidad del viento	1.6
171674	7	Sololá	712	San Antonio Palopó	9	San Antonio Palopo	5	Mayo	2023-05-17T00:00:00	2024-11-08T20:00:00	7	Dirección del viento	1.61
171675	7	Sololá	712	San Antonio Palopó	9	San Antonio Palopo	5	Mayo	2023-05-17T00:00:00	2024-11-08T20:00:00	1	Precipitación	0
171676	7	Sololá	712	San Antonio Palopó	9	San Antonio Palopo	5	Mayo	2023-05-17T00:00:00	2024-11-08T20:00:00	8	Radiación solar	0
171677	7	Sololá	712	San Antonio Palopó	9	San Antonio Palopo	5	Mayo	2023-05-17T00:00:00	2024-11-08T21:00:00	2	Temperatura media	19.6
171678	7	Sololá	712	San Antonio Palopó	9	San Antonio Palopo	5	Mayo	2023-05-17T00:00:00	2024-11-08T21:00:00	4	Temperatura máxima	20
171679	7	Sololá	712	San Antonio Palopó	9	San Antonio Palopo	5	Mayo	2023-05-17T00:00:00	2024-11-08T21:00:00	3	Temperatura mínima	19.6
171680	7	Sololá	712	San Antonio Palopó	9	San Antonio Palopo	5	Mayo	2023-05-17T00:00:00	2024-11-08T21:00:00	5	Humedad	88
171681	7	Sololá	712	San Antonio Palopó	9	San Antonio Palopo	5	Mayo	2023-05-17T00:00:00	2024-11-08T21:00:00	6	Velocidad del viento	3.2
171682	7	Sololá	712	San Antonio Palopó	9	San Antonio Palopo	5	Mayo	2023-05-17T00:00:00	2024-11-08T21:00:00	7	Dirección del viento	3.22
171683	7	Sololá	712	San Antonio Palopó	9	San Antonio Palopo	5	Mayo	2023-05-17T00:00:00	2024-11-08T21:00:00	1	Precipitación	0
171684	7	Sololá	712	San Antonio Palopó	9	San Antonio Palopo	5	Mayo	2023-05-17T00:00:00	2024-11-08T21:00:00	8	Radiación solar	0
171685	7	Sololá	712	San Antonio Palopó	9	San Antonio Palopo	5	Mayo	2023-05-17T00:00:00	2024-11-08T22:00:00	2	Temperatura media	19.7
171686	7	Sololá	712	San Antonio Palopó	9	San Antonio Palopo	5	Mayo	2023-05-17T00:00:00	2024-11-08T22:00:00	4	Temperatura máxima	19.7
171687	7	Sololá	712	San Antonio Palopó	9	San Antonio Palopo	5	Mayo	2023-05-17T00:00:00	2024-11-08T22:00:00	3	Temperatura mínima	19.2
171688	7	Sololá	712	San Antonio Palopó	9	San Antonio Palopo	5	Mayo	2023-05-17T00:00:00	2024-11-08T22:00:00	5	Humedad	85
171689	7	Sololá	712	San Antonio Palopó	9	San Antonio Palopo	5	Mayo	2023-05-17T00:00:00	2024-11-08T22:00:00	6	Velocidad del viento	3.2
171690	7	Sololá	712	San Antonio Palopó	9	San Antonio Palopo	5	Mayo	2023-05-17T00:00:00	2024-11-08T22:00:00	7	Dirección del viento	3.22
171691	7	Sololá	712	San Antonio Palopó	9	San Antonio Palopo	5	Mayo	2023-05-17T00:00:00	2024-11-08T22:00:00	1	Precipitación	0
171692	7	Sololá	712	San Antonio Palopó	9	San Antonio Palopo	5	Mayo	2023-05-17T00:00:00	2024-11-08T22:00:00	8	Radiación solar	0
171693	7	Sololá	712	San Antonio Palopó	9	San Antonio Palopo	5	Mayo	2023-05-17T00:00:00	2024-11-08T23:00:00	2	Temperatura media	19.4
171694	7	Sololá	712	San Antonio Palopó	9	San Antonio Palopo	5	Mayo	2023-05-17T00:00:00	2024-11-08T23:00:00	4	Temperatura máxima	19.8
171695	7	Sololá	712	San Antonio Palopó	9	San Antonio Palopo	5	Mayo	2023-05-17T00:00:00	2024-11-08T23:00:00	3	Temperatura mínima	19.1
171696	7	Sololá	712	San Antonio Palopó	9	San Antonio Palopo	5	Mayo	2023-05-17T00:00:00	2024-11-08T23:00:00	5	Humedad	86
171697	7	Sololá	712	San Antonio Palopó	9	San Antonio Palopo	5	Mayo	2023-05-17T00:00:00	2024-11-08T23:00:00	6	Velocidad del viento	3.2
171698	7	Sololá	712	San Antonio Palopó	9	San Antonio Palopo	5	Mayo	2023-05-17T00:00:00	2024-11-08T23:00:00	7	Dirección del viento	3.22
171699	7	Sololá	712	San Antonio Palopó	9	San Antonio Palopo	5	Mayo	2023-05-17T00:00:00	2024-11-08T23:00:00	1	Precipitación	0
171700	7	Sololá	712	San Antonio Palopó	9	San Antonio Palopo	5	Mayo	2023-05-17T00:00:00	2024-11-08T23:00:00	8	Radiación solar	0
171701	7	Sololá	712	San Antonio Palopó	9	San Antonio Palopo	5	Mayo	2023-05-18T00:00:00	2024-11-08T00:00:00	2	Temperatura media	18.7
171702	7	Sololá	712	San Antonio Palopó	9	San Antonio Palopo	5	Mayo	2023-05-18T00:00:00	2024-11-08T00:00:00	4	Temperatura máxima	19.6
171703	7	Sololá	712	San Antonio Palopó	9	San Antonio Palopo	5	Mayo	2023-05-18T00:00:00	2024-11-08T00:00:00	3	Temperatura mínima	18.7
171704	7	Sololá	712	San Antonio Palopó	9	San Antonio Palopo	5	Mayo	2023-05-18T00:00:00	2024-11-08T00:00:00	5	Humedad	87
171705	7	Sololá	712	San Antonio Palopó	9	San Antonio Palopo	5	Mayo	2023-05-18T00:00:00	2024-11-08T00:00:00	6	Velocidad del viento	3.2
171706	7	Sololá	712	San Antonio Palopó	9	San Antonio Palopo	5	Mayo	2023-05-18T00:00:00	2024-11-08T00:00:00	7	Dirección del viento	3.22
171707	7	Sololá	712	San Antonio Palopó	9	San Antonio Palopo	5	Mayo	2023-05-18T00:00:00	2024-11-08T00:00:00	1	Precipitación	0
171708	7	Sololá	712	San Antonio Palopó	9	San Antonio Palopo	5	Mayo	2023-05-18T00:00:00	2024-11-08T00:00:00	8	Radiación solar	0
171709	7	Sololá	712	San Antonio Palopó	9	San Antonio Palopo	5	Mayo	2023-05-18T00:00:00	2024-11-08T01:00:00	2	Temperatura media	19
171710	7	Sololá	712	San Antonio Palopó	9	San Antonio Palopo	5	Mayo	2023-05-18T00:00:00	2024-11-08T01:00:00	4	Temperatura máxima	19.2
171711	7	Sololá	712	San Antonio Palopó	9	San Antonio Palopo	5	Mayo	2023-05-18T00:00:00	2024-11-08T01:00:00	3	Temperatura mínima	18.6
171712	7	Sololá	712	San Antonio Palopó	9	San Antonio Palopo	5	Mayo	2023-05-18T00:00:00	2024-11-08T01:00:00	5	Humedad	87
171713	7	Sololá	712	San Antonio Palopó	9	San Antonio Palopo	5	Mayo	2023-05-18T00:00:00	2024-11-08T01:00:00	6	Velocidad del viento	3.2
171714	7	Sololá	712	San Antonio Palopó	9	San Antonio Palopo	5	Mayo	2023-05-18T00:00:00	2024-11-08T01:00:00	7	Dirección del viento	3.22
171715	7	Sololá	712	San Antonio Palopó	9	San Antonio Palopo	5	Mayo	2023-05-18T00:00:00	2024-11-08T01:00:00	1	Precipitación	0
171716	7	Sololá	712	San Antonio Palopó	9	San Antonio Palopo	5	Mayo	2023-05-18T00:00:00	2024-11-08T01:00:00	8	Radiación solar	0
171717	7	Sololá	712	San Antonio Palopó	9	San Antonio Palopo	5	Mayo	2023-05-18T00:00:00	2024-11-08T02:00:00	2	Temperatura media	19.4
171718	7	Sololá	712	San Antonio Palopó	9	San Antonio Palopo	5	Mayo	2023-05-18T00:00:00	2024-11-08T02:00:00	4	Temperatura máxima	19.6
171719	7	Sololá	712	San Antonio Palopó	9	San Antonio Palopo	5	Mayo	2023-05-18T00:00:00	2024-11-08T02:00:00	3	Temperatura mínima	18.6
171720	7	Sololá	712	San Antonio Palopó	9	San Antonio Palopo	5	Mayo	2023-05-18T00:00:00	2024-11-08T02:00:00	5	Humedad	79
171721	7	Sololá	712	San Antonio Palopó	9	San Antonio Palopo	5	Mayo	2023-05-18T00:00:00	2024-11-08T02:00:00	6	Velocidad del viento	4.8
171722	7	Sololá	712	San Antonio Palopó	9	San Antonio Palopo	5	Mayo	2023-05-18T00:00:00	2024-11-08T02:00:00	7	Dirección del viento	4.83
171723	7	Sololá	712	San Antonio Palopó	9	San Antonio Palopo	5	Mayo	2023-05-18T00:00:00	2024-11-08T02:00:00	1	Precipitación	0
171724	7	Sololá	712	San Antonio Palopó	9	San Antonio Palopo	5	Mayo	2023-05-18T00:00:00	2024-11-08T02:00:00	8	Radiación solar	0
171725	7	Sololá	712	San Antonio Palopó	9	San Antonio Palopo	5	Mayo	2023-05-18T00:00:00	2024-11-08T03:00:00	2	Temperatura media	18.6
171726	7	Sololá	712	San Antonio Palopó	9	San Antonio Palopo	5	Mayo	2023-05-18T00:00:00	2024-11-08T03:00:00	4	Temperatura máxima	19.4
171727	7	Sololá	712	San Antonio Palopó	9	San Antonio Palopo	5	Mayo	2023-05-18T00:00:00	2024-11-08T03:00:00	3	Temperatura mínima	18.6
171728	7	Sololá	712	San Antonio Palopó	9	San Antonio Palopo	5	Mayo	2023-05-18T00:00:00	2024-11-08T03:00:00	5	Humedad	84
171729	7	Sololá	712	San Antonio Palopó	9	San Antonio Palopo	5	Mayo	2023-05-18T00:00:00	2024-11-08T03:00:00	6	Velocidad del viento	3.2
171730	7	Sololá	712	San Antonio Palopó	9	San Antonio Palopo	5	Mayo	2023-05-18T00:00:00	2024-11-08T03:00:00	7	Dirección del viento	3.22
171731	7	Sololá	712	San Antonio Palopó	9	San Antonio Palopo	5	Mayo	2023-05-18T00:00:00	2024-11-08T03:00:00	1	Precipitación	0
171732	7	Sololá	712	San Antonio Palopó	9	San Antonio Palopo	5	Mayo	2023-05-18T00:00:00	2024-11-08T03:00:00	8	Radiación solar	0
171733	7	Sololá	712	San Antonio Palopó	9	San Antonio Palopo	5	Mayo	2023-05-18T00:00:00	2024-11-08T04:00:00	2	Temperatura media	19.5
171734	7	Sololá	712	San Antonio Palopó	9	San Antonio Palopo	5	Mayo	2023-05-18T00:00:00	2024-11-08T04:00:00	4	Temperatura máxima	19.6
171735	7	Sololá	712	San Antonio Palopó	9	San Antonio Palopo	5	Mayo	2023-05-18T00:00:00	2024-11-08T04:00:00	3	Temperatura mínima	18.3
171736	7	Sololá	712	San Antonio Palopó	9	San Antonio Palopo	5	Mayo	2023-05-18T00:00:00	2024-11-08T04:00:00	5	Humedad	77
171737	7	Sololá	712	San Antonio Palopó	9	San Antonio Palopo	5	Mayo	2023-05-18T00:00:00	2024-11-08T04:00:00	6	Velocidad del viento	9.7
171738	7	Sololá	712	San Antonio Palopó	9	San Antonio Palopo	5	Mayo	2023-05-18T00:00:00	2024-11-08T04:00:00	7	Dirección del viento	9.66
171739	7	Sololá	712	San Antonio Palopó	9	San Antonio Palopo	5	Mayo	2023-05-18T00:00:00	2024-11-08T04:00:00	1	Precipitación	0
171740	7	Sololá	712	San Antonio Palopó	9	San Antonio Palopo	5	Mayo	2023-05-18T00:00:00	2024-11-08T04:00:00	8	Radiación solar	0
171741	7	Sololá	712	San Antonio Palopó	9	San Antonio Palopo	5	Mayo	2023-05-18T00:00:00	2024-11-08T05:00:00	2	Temperatura media	19.5
171742	7	Sololá	712	San Antonio Palopó	9	San Antonio Palopo	5	Mayo	2023-05-18T00:00:00	2024-11-08T05:00:00	4	Temperatura máxima	19.7
171743	7	Sololá	712	San Antonio Palopó	9	San Antonio Palopo	5	Mayo	2023-05-18T00:00:00	2024-11-08T05:00:00	3	Temperatura mínima	19.4
171744	7	Sololá	712	San Antonio Palopó	9	San Antonio Palopo	5	Mayo	2023-05-18T00:00:00	2024-11-08T05:00:00	5	Humedad	76
171745	7	Sololá	712	San Antonio Palopó	9	San Antonio Palopo	5	Mayo	2023-05-18T00:00:00	2024-11-08T05:00:00	6	Velocidad del viento	8
171746	7	Sololá	712	San Antonio Palopó	9	San Antonio Palopo	5	Mayo	2023-05-18T00:00:00	2024-11-08T05:00:00	7	Dirección del viento	8.05
171747	7	Sololá	712	San Antonio Palopó	9	San Antonio Palopo	5	Mayo	2023-05-18T00:00:00	2024-11-08T05:00:00	1	Precipitación	0
171748	7	Sololá	712	San Antonio Palopó	9	San Antonio Palopo	5	Mayo	2023-05-18T00:00:00	2024-11-08T05:00:00	8	Radiación solar	0
171749	7	Sololá	712	San Antonio Palopó	9	San Antonio Palopo	5	Mayo	2023-05-18T00:00:00	2024-11-08T06:00:00	2	Temperatura media	19.7
171750	7	Sololá	712	San Antonio Palopó	9	San Antonio Palopo	5	Mayo	2023-05-18T00:00:00	2024-11-08T06:00:00	4	Temperatura máxima	19.7
171751	7	Sololá	712	San Antonio Palopó	9	San Antonio Palopo	5	Mayo	2023-05-18T00:00:00	2024-11-08T06:00:00	3	Temperatura mínima	19.3
171752	7	Sololá	712	San Antonio Palopó	9	San Antonio Palopo	5	Mayo	2023-05-18T00:00:00	2024-11-08T06:00:00	5	Humedad	75
171753	7	Sololá	712	San Antonio Palopó	9	San Antonio Palopo	5	Mayo	2023-05-18T00:00:00	2024-11-08T06:00:00	6	Velocidad del viento	9.7
171754	7	Sololá	712	San Antonio Palopó	9	San Antonio Palopo	5	Mayo	2023-05-18T00:00:00	2024-11-08T06:00:00	7	Dirección del viento	9.66
171755	7	Sololá	712	San Antonio Palopó	9	San Antonio Palopo	5	Mayo	2023-05-18T00:00:00	2024-11-08T06:00:00	1	Precipitación	0
171756	7	Sololá	712	San Antonio Palopó	9	San Antonio Palopo	5	Mayo	2023-05-18T00:00:00	2024-11-08T06:00:00	8	Radiación solar	4
171757	7	Sololá	712	San Antonio Palopó	9	San Antonio Palopo	5	Mayo	2023-05-18T00:00:00	2024-11-08T07:00:00	2	Temperatura media	20
171758	7	Sololá	712	San Antonio Palopó	9	San Antonio Palopo	5	Mayo	2023-05-18T00:00:00	2024-11-08T07:00:00	4	Temperatura máxima	20
171759	7	Sololá	712	San Antonio Palopó	9	San Antonio Palopo	5	Mayo	2023-05-18T00:00:00	2024-11-08T07:00:00	3	Temperatura mínima	19.6
171760	7	Sololá	712	San Antonio Palopó	9	San Antonio Palopo	5	Mayo	2023-05-18T00:00:00	2024-11-08T07:00:00	5	Humedad	78
171761	7	Sololá	712	San Antonio Palopó	9	San Antonio Palopo	5	Mayo	2023-05-18T00:00:00	2024-11-08T07:00:00	6	Velocidad del viento	8
171762	7	Sololá	712	San Antonio Palopó	9	San Antonio Palopo	5	Mayo	2023-05-18T00:00:00	2024-11-08T07:00:00	7	Dirección del viento	8.05
171763	7	Sololá	712	San Antonio Palopó	9	San Antonio Palopo	5	Mayo	2023-05-18T00:00:00	2024-11-08T07:00:00	1	Precipitación	0
171764	7	Sololá	712	San Antonio Palopó	9	San Antonio Palopo	5	Mayo	2023-05-18T00:00:00	2024-11-08T07:00:00	8	Radiación solar	72
171765	7	Sololá	712	San Antonio Palopó	9	San Antonio Palopo	5	Mayo	2023-05-18T00:00:00	2024-11-08T08:00:00	2	Temperatura media	21.2
171766	7	Sololá	712	San Antonio Palopó	9	San Antonio Palopo	5	Mayo	2023-05-18T00:00:00	2024-11-08T08:00:00	4	Temperatura máxima	21.2
171767	7	Sololá	712	San Antonio Palopó	9	San Antonio Palopo	5	Mayo	2023-05-18T00:00:00	2024-11-08T08:00:00	3	Temperatura mínima	19.9
171768	7	Sololá	712	San Antonio Palopó	9	San Antonio Palopo	5	Mayo	2023-05-18T00:00:00	2024-11-08T08:00:00	5	Humedad	74
171769	7	Sololá	712	San Antonio Palopó	9	San Antonio Palopo	5	Mayo	2023-05-18T00:00:00	2024-11-08T08:00:00	6	Velocidad del viento	4.8
171770	7	Sololá	712	San Antonio Palopó	9	San Antonio Palopo	5	Mayo	2023-05-18T00:00:00	2024-11-08T08:00:00	7	Dirección del viento	4.83
171771	7	Sololá	712	San Antonio Palopó	9	San Antonio Palopo	5	Mayo	2023-05-18T00:00:00	2024-11-08T08:00:00	1	Precipitación	0
171772	7	Sololá	712	San Antonio Palopó	9	San Antonio Palopo	5	Mayo	2023-05-18T00:00:00	2024-11-08T08:00:00	8	Radiación solar	225
171773	7	Sololá	712	San Antonio Palopó	9	San Antonio Palopo	5	Mayo	2023-05-18T00:00:00	2024-11-08T09:00:00	2	Temperatura media	21.5
171774	7	Sololá	712	San Antonio Palopó	9	San Antonio Palopo	5	Mayo	2023-05-18T00:00:00	2024-11-08T09:00:00	4	Temperatura máxima	21.6
171775	7	Sololá	712	San Antonio Palopó	9	San Antonio Palopo	5	Mayo	2023-05-18T00:00:00	2024-11-08T09:00:00	3	Temperatura mínima	21.1
171776	7	Sololá	712	San Antonio Palopó	9	San Antonio Palopo	5	Mayo	2023-05-18T00:00:00	2024-11-08T09:00:00	5	Humedad	73
171777	7	Sololá	712	San Antonio Palopó	9	San Antonio Palopo	5	Mayo	2023-05-18T00:00:00	2024-11-08T09:00:00	6	Velocidad del viento	1.6
171778	7	Sololá	712	San Antonio Palopó	9	San Antonio Palopo	5	Mayo	2023-05-18T00:00:00	2024-11-08T09:00:00	7	Dirección del viento	1.61
171779	7	Sololá	712	San Antonio Palopó	9	San Antonio Palopo	5	Mayo	2023-05-18T00:00:00	2024-11-08T09:00:00	1	Precipitación	0
171780	7	Sololá	712	San Antonio Palopó	9	San Antonio Palopo	5	Mayo	2023-05-18T00:00:00	2024-11-08T09:00:00	8	Radiación solar	375
171781	7	Sololá	712	San Antonio Palopó	9	San Antonio Palopo	5	Mayo	2023-05-18T00:00:00	2024-11-08T10:00:00	2	Temperatura media	22.5
171782	7	Sololá	712	San Antonio Palopó	9	San Antonio Palopo	5	Mayo	2023-05-18T00:00:00	2024-11-08T10:00:00	4	Temperatura máxima	22.5
171783	7	Sololá	712	San Antonio Palopó	9	San Antonio Palopo	5	Mayo	2023-05-18T00:00:00	2024-11-08T10:00:00	3	Temperatura mínima	21.5
171784	7	Sololá	712	San Antonio Palopó	9	San Antonio Palopo	5	Mayo	2023-05-18T00:00:00	2024-11-08T10:00:00	5	Humedad	71
171785	7	Sololá	712	San Antonio Palopó	9	San Antonio Palopo	5	Mayo	2023-05-18T00:00:00	2024-11-08T10:00:00	6	Velocidad del viento	3.2
171786	7	Sololá	712	San Antonio Palopó	9	San Antonio Palopo	5	Mayo	2023-05-18T00:00:00	2024-11-08T10:00:00	7	Dirección del viento	3.22
171787	7	Sololá	712	San Antonio Palopó	9	San Antonio Palopo	5	Mayo	2023-05-18T00:00:00	2024-11-08T10:00:00	1	Precipitación	0
171788	7	Sololá	712	San Antonio Palopó	9	San Antonio Palopo	5	Mayo	2023-05-18T00:00:00	2024-11-08T10:00:00	8	Radiación solar	605
171789	7	Sololá	712	San Antonio Palopó	9	San Antonio Palopo	5	Mayo	2023-05-18T00:00:00	2024-11-08T11:00:00	2	Temperatura media	23.9
171790	7	Sololá	712	San Antonio Palopó	9	San Antonio Palopo	5	Mayo	2023-05-18T00:00:00	2024-11-08T11:00:00	4	Temperatura máxima	23.9
171791	7	Sololá	712	San Antonio Palopó	9	San Antonio Palopo	5	Mayo	2023-05-18T00:00:00	2024-11-08T11:00:00	3	Temperatura mínima	22.5
171792	7	Sololá	712	San Antonio Palopó	9	San Antonio Palopo	5	Mayo	2023-05-18T00:00:00	2024-11-08T11:00:00	5	Humedad	67
171793	7	Sololá	712	San Antonio Palopó	9	San Antonio Palopo	5	Mayo	2023-05-18T00:00:00	2024-11-08T11:00:00	6	Velocidad del viento	1.6
171794	7	Sololá	712	San Antonio Palopó	9	San Antonio Palopo	5	Mayo	2023-05-18T00:00:00	2024-11-08T11:00:00	7	Dirección del viento	1.61
171795	7	Sololá	712	San Antonio Palopó	9	San Antonio Palopo	5	Mayo	2023-05-18T00:00:00	2024-11-08T11:00:00	1	Precipitación	0
171796	7	Sololá	712	San Antonio Palopó	9	San Antonio Palopo	5	Mayo	2023-05-18T00:00:00	2024-11-08T11:00:00	8	Radiación solar	531
171797	7	Sololá	712	San Antonio Palopó	9	San Antonio Palopo	5	Mayo	2023-05-18T00:00:00	2024-11-08T12:00:00	2	Temperatura media	24.3
171798	7	Sololá	712	San Antonio Palopó	9	San Antonio Palopo	5	Mayo	2023-05-18T00:00:00	2024-11-08T12:00:00	4	Temperatura máxima	24.9
171799	7	Sololá	712	San Antonio Palopó	9	San Antonio Palopo	5	Mayo	2023-05-18T00:00:00	2024-11-08T12:00:00	3	Temperatura mínima	23.9
171800	7	Sololá	712	San Antonio Palopó	9	San Antonio Palopo	5	Mayo	2023-05-18T00:00:00	2024-11-08T12:00:00	5	Humedad	65
171801	7	Sololá	712	San Antonio Palopó	9	San Antonio Palopo	5	Mayo	2023-05-18T00:00:00	2024-11-08T12:00:00	6	Velocidad del viento	6.4
171802	7	Sololá	712	San Antonio Palopó	9	San Antonio Palopo	5	Mayo	2023-05-18T00:00:00	2024-11-08T12:00:00	7	Dirección del viento	6.44
171803	7	Sololá	712	San Antonio Palopó	9	San Antonio Palopo	5	Mayo	2023-05-18T00:00:00	2024-11-08T12:00:00	1	Precipitación	0
171804	7	Sololá	712	San Antonio Palopó	9	San Antonio Palopo	5	Mayo	2023-05-18T00:00:00	2024-11-08T12:00:00	8	Radiación solar	785
171805	7	Sololá	712	San Antonio Palopó	9	San Antonio Palopo	5	Mayo	2023-05-18T00:00:00	2024-11-08T13:00:00	2	Temperatura media	25.3
171806	7	Sololá	712	San Antonio Palopó	9	San Antonio Palopo	5	Mayo	2023-05-18T00:00:00	2024-11-08T13:00:00	4	Temperatura máxima	25.4
171807	7	Sololá	712	San Antonio Palopó	9	San Antonio Palopo	5	Mayo	2023-05-18T00:00:00	2024-11-08T13:00:00	3	Temperatura mínima	24
171808	7	Sololá	712	San Antonio Palopó	9	San Antonio Palopo	5	Mayo	2023-05-18T00:00:00	2024-11-08T13:00:00	5	Humedad	67
171809	7	Sololá	712	San Antonio Palopó	9	San Antonio Palopo	5	Mayo	2023-05-18T00:00:00	2024-11-08T13:00:00	6	Velocidad del viento	6.4
171810	7	Sololá	712	San Antonio Palopó	9	San Antonio Palopo	5	Mayo	2023-05-18T00:00:00	2024-11-08T13:00:00	7	Dirección del viento	6.44
171811	7	Sololá	712	San Antonio Palopó	9	San Antonio Palopo	5	Mayo	2023-05-18T00:00:00	2024-11-08T13:00:00	1	Precipitación	0
171812	7	Sololá	712	San Antonio Palopó	9	San Antonio Palopo	5	Mayo	2023-05-18T00:00:00	2024-11-08T13:00:00	8	Radiación solar	758
171813	7	Sololá	712	San Antonio Palopó	9	San Antonio Palopo	5	Mayo	2023-05-18T00:00:00	2024-11-08T14:00:00	2	Temperatura media	25.8
171814	7	Sololá	712	San Antonio Palopó	9	San Antonio Palopo	5	Mayo	2023-05-18T00:00:00	2024-11-08T14:00:00	4	Temperatura máxima	25.9
171815	7	Sololá	712	San Antonio Palopó	9	San Antonio Palopo	5	Mayo	2023-05-18T00:00:00	2024-11-08T14:00:00	3	Temperatura mínima	25.2
171816	7	Sololá	712	San Antonio Palopó	9	San Antonio Palopo	5	Mayo	2023-05-18T00:00:00	2024-11-08T14:00:00	5	Humedad	69
171817	7	Sololá	712	San Antonio Palopó	9	San Antonio Palopo	5	Mayo	2023-05-18T00:00:00	2024-11-08T14:00:00	6	Velocidad del viento	6.4
171818	7	Sololá	712	San Antonio Palopó	9	San Antonio Palopo	5	Mayo	2023-05-18T00:00:00	2024-11-08T14:00:00	7	Dirección del viento	6.44
171819	7	Sololá	712	San Antonio Palopó	9	San Antonio Palopo	5	Mayo	2023-05-18T00:00:00	2024-11-08T14:00:00	1	Precipitación	0
171820	7	Sololá	712	San Antonio Palopó	9	San Antonio Palopo	5	Mayo	2023-05-18T00:00:00	2024-11-08T14:00:00	8	Radiación solar	839
171821	7	Sololá	712	San Antonio Palopó	9	San Antonio Palopo	5	Mayo	2023-05-18T00:00:00	2024-11-08T15:00:00	2	Temperatura media	25.5
171822	7	Sololá	712	San Antonio Palopó	9	San Antonio Palopo	5	Mayo	2023-05-18T00:00:00	2024-11-08T15:00:00	4	Temperatura máxima	25.9
171823	7	Sololá	712	San Antonio Palopó	9	San Antonio Palopo	5	Mayo	2023-05-18T00:00:00	2024-11-08T15:00:00	3	Temperatura mínima	24.7
171824	7	Sololá	712	San Antonio Palopó	9	San Antonio Palopo	5	Mayo	2023-05-18T00:00:00	2024-11-08T15:00:00	5	Humedad	68
171825	7	Sololá	712	San Antonio Palopó	9	San Antonio Palopo	5	Mayo	2023-05-18T00:00:00	2024-11-08T15:00:00	6	Velocidad del viento	6.4
171826	7	Sololá	712	San Antonio Palopó	9	San Antonio Palopo	5	Mayo	2023-05-18T00:00:00	2024-11-08T15:00:00	7	Dirección del viento	6.44
171827	7	Sololá	712	San Antonio Palopó	9	San Antonio Palopo	5	Mayo	2023-05-18T00:00:00	2024-11-08T15:00:00	1	Precipitación	0
171828	7	Sololá	712	San Antonio Palopó	9	San Antonio Palopo	5	Mayo	2023-05-18T00:00:00	2024-11-08T15:00:00	8	Radiación solar	632
171829	7	Sololá	712	San Antonio Palopó	9	San Antonio Palopo	5	Mayo	2023-05-18T00:00:00	2024-11-08T16:00:00	2	Temperatura media	24.8
171830	7	Sololá	712	San Antonio Palopó	9	San Antonio Palopo	5	Mayo	2023-05-18T00:00:00	2024-11-08T16:00:00	4	Temperatura máxima	25.6
171831	7	Sololá	712	San Antonio Palopó	9	San Antonio Palopo	5	Mayo	2023-05-18T00:00:00	2024-11-08T16:00:00	3	Temperatura mínima	24.3
171832	7	Sololá	712	San Antonio Palopó	9	San Antonio Palopo	5	Mayo	2023-05-18T00:00:00	2024-11-08T16:00:00	5	Humedad	71
171833	7	Sololá	712	San Antonio Palopó	9	San Antonio Palopo	5	Mayo	2023-05-18T00:00:00	2024-11-08T16:00:00	6	Velocidad del viento	8
171834	7	Sololá	712	San Antonio Palopó	9	San Antonio Palopo	5	Mayo	2023-05-18T00:00:00	2024-11-08T16:00:00	7	Dirección del viento	8.05
171835	7	Sololá	712	San Antonio Palopó	9	San Antonio Palopo	5	Mayo	2023-05-18T00:00:00	2024-11-08T16:00:00	1	Precipitación	0
171836	7	Sololá	712	San Antonio Palopó	9	San Antonio Palopo	5	Mayo	2023-05-18T00:00:00	2024-11-08T16:00:00	8	Radiación solar	500
171837	7	Sololá	712	San Antonio Palopó	9	San Antonio Palopo	5	Mayo	2023-05-18T00:00:00	2024-11-08T17:00:00	2	Temperatura media	23.3
171838	7	Sololá	712	San Antonio Palopó	9	San Antonio Palopo	5	Mayo	2023-05-18T00:00:00	2024-11-08T17:00:00	4	Temperatura máxima	24.9
171839	7	Sololá	712	San Antonio Palopó	9	San Antonio Palopo	5	Mayo	2023-05-18T00:00:00	2024-11-08T17:00:00	3	Temperatura mínima	23.2
171840	7	Sololá	712	San Antonio Palopó	9	San Antonio Palopo	5	Mayo	2023-05-18T00:00:00	2024-11-08T17:00:00	5	Humedad	78
171841	7	Sololá	712	San Antonio Palopó	9	San Antonio Palopo	5	Mayo	2023-05-18T00:00:00	2024-11-08T17:00:00	6	Velocidad del viento	6.4
171842	7	Sololá	712	San Antonio Palopó	9	San Antonio Palopo	5	Mayo	2023-05-18T00:00:00	2024-11-08T17:00:00	7	Dirección del viento	6.44
171843	7	Sololá	712	San Antonio Palopó	9	San Antonio Palopo	5	Mayo	2023-05-18T00:00:00	2024-11-08T17:00:00	1	Precipitación	0
171844	7	Sololá	712	San Antonio Palopó	9	San Antonio Palopo	5	Mayo	2023-05-18T00:00:00	2024-11-08T17:00:00	8	Radiación solar	225
171845	7	Sololá	712	San Antonio Palopó	9	San Antonio Palopo	5	Mayo	2023-05-18T00:00:00	2024-11-08T18:00:00	2	Temperatura media	21.6
171846	7	Sololá	712	San Antonio Palopó	9	San Antonio Palopo	5	Mayo	2023-05-18T00:00:00	2024-11-08T18:00:00	4	Temperatura máxima	23.2
171847	7	Sololá	712	San Antonio Palopó	9	San Antonio Palopo	5	Mayo	2023-05-18T00:00:00	2024-11-08T18:00:00	3	Temperatura mínima	21.6
171848	7	Sololá	712	San Antonio Palopó	9	San Antonio Palopo	5	Mayo	2023-05-18T00:00:00	2024-11-08T18:00:00	5	Humedad	83
171849	7	Sololá	712	San Antonio Palopó	9	San Antonio Palopo	5	Mayo	2023-05-18T00:00:00	2024-11-08T18:00:00	6	Velocidad del viento	6.4
171850	7	Sololá	712	San Antonio Palopó	9	San Antonio Palopo	5	Mayo	2023-05-18T00:00:00	2024-11-08T18:00:00	7	Dirección del viento	6.44
171851	7	Sololá	712	San Antonio Palopó	9	San Antonio Palopo	5	Mayo	2023-05-18T00:00:00	2024-11-08T18:00:00	1	Precipitación	0
171852	7	Sololá	712	San Antonio Palopó	9	San Antonio Palopo	5	Mayo	2023-05-18T00:00:00	2024-11-08T18:00:00	8	Radiación solar	20
171853	7	Sololá	712	San Antonio Palopó	9	San Antonio Palopo	5	Mayo	2023-05-18T00:00:00	2024-11-08T19:00:00	2	Temperatura media	21.7
171854	7	Sololá	712	San Antonio Palopó	9	San Antonio Palopo	5	Mayo	2023-05-18T00:00:00	2024-11-08T19:00:00	4	Temperatura máxima	21.8
171855	7	Sololá	712	San Antonio Palopó	9	San Antonio Palopo	5	Mayo	2023-05-18T00:00:00	2024-11-08T19:00:00	3	Temperatura mínima	21.6
171856	7	Sololá	712	San Antonio Palopó	9	San Antonio Palopo	5	Mayo	2023-05-18T00:00:00	2024-11-08T19:00:00	5	Humedad	83
171857	7	Sololá	712	San Antonio Palopó	9	San Antonio Palopo	5	Mayo	2023-05-18T00:00:00	2024-11-08T19:00:00	6	Velocidad del viento	3.2
171858	7	Sololá	712	San Antonio Palopó	9	San Antonio Palopo	5	Mayo	2023-05-18T00:00:00	2024-11-08T19:00:00	7	Dirección del viento	3.22
171859	7	Sololá	712	San Antonio Palopó	9	San Antonio Palopo	5	Mayo	2023-05-18T00:00:00	2024-11-08T19:00:00	1	Precipitación	0
171860	7	Sololá	712	San Antonio Palopó	9	San Antonio Palopo	5	Mayo	2023-05-18T00:00:00	2024-11-08T19:00:00	8	Radiación solar	0
171861	7	Sololá	712	San Antonio Palopó	9	San Antonio Palopo	5	Mayo	2023-05-18T00:00:00	2024-11-08T20:00:00	2	Temperatura media	21.5
171862	7	Sololá	712	San Antonio Palopó	9	San Antonio Palopo	5	Mayo	2023-05-18T00:00:00	2024-11-08T20:00:00	4	Temperatura máxima	21.8
171863	7	Sololá	712	San Antonio Palopó	9	San Antonio Palopo	5	Mayo	2023-05-18T00:00:00	2024-11-08T20:00:00	3	Temperatura mínima	21.4
171864	7	Sololá	712	San Antonio Palopó	9	San Antonio Palopo	5	Mayo	2023-05-18T00:00:00	2024-11-08T20:00:00	5	Humedad	83
171865	7	Sololá	712	San Antonio Palopó	9	San Antonio Palopo	5	Mayo	2023-05-18T00:00:00	2024-11-08T20:00:00	6	Velocidad del viento	1.6
171866	7	Sololá	712	San Antonio Palopó	9	San Antonio Palopo	5	Mayo	2023-05-18T00:00:00	2024-11-08T20:00:00	7	Dirección del viento	1.61
171867	7	Sololá	712	San Antonio Palopó	9	San Antonio Palopo	5	Mayo	2023-05-18T00:00:00	2024-11-08T20:00:00	1	Precipitación	0
171868	7	Sololá	712	San Antonio Palopó	9	San Antonio Palopo	5	Mayo	2023-05-18T00:00:00	2024-11-08T20:00:00	8	Radiación solar	0
171869	7	Sololá	712	San Antonio Palopó	9	San Antonio Palopo	5	Mayo	2023-05-18T00:00:00	2024-11-08T21:00:00	2	Temperatura media	21.1
171870	7	Sololá	712	San Antonio Palopó	9	San Antonio Palopo	5	Mayo	2023-05-18T00:00:00	2024-11-08T21:00:00	4	Temperatura máxima	21.5
171871	7	Sololá	712	San Antonio Palopó	9	San Antonio Palopo	5	Mayo	2023-05-18T00:00:00	2024-11-08T21:00:00	3	Temperatura mínima	21.1
171872	7	Sololá	712	San Antonio Palopó	9	San Antonio Palopo	5	Mayo	2023-05-18T00:00:00	2024-11-08T21:00:00	5	Humedad	84
171873	7	Sololá	712	San Antonio Palopó	9	San Antonio Palopo	5	Mayo	2023-05-18T00:00:00	2024-11-08T21:00:00	6	Velocidad del viento	1.6
171874	7	Sololá	712	San Antonio Palopó	9	San Antonio Palopo	5	Mayo	2023-05-18T00:00:00	2024-11-08T21:00:00	7	Dirección del viento	1.61
171875	7	Sololá	712	San Antonio Palopó	9	San Antonio Palopo	5	Mayo	2023-05-18T00:00:00	2024-11-08T21:00:00	1	Precipitación	0
171876	7	Sololá	712	San Antonio Palopó	9	San Antonio Palopo	5	Mayo	2023-05-18T00:00:00	2024-11-08T21:00:00	8	Radiación solar	0
171877	7	Sololá	712	San Antonio Palopó	9	San Antonio Palopo	5	Mayo	2023-05-18T00:00:00	2024-11-08T22:00:00	2	Temperatura media	21.1
171878	7	Sololá	712	San Antonio Palopó	9	San Antonio Palopo	5	Mayo	2023-05-18T00:00:00	2024-11-08T22:00:00	4	Temperatura máxima	21.2
171879	7	Sololá	712	San Antonio Palopó	9	San Antonio Palopo	5	Mayo	2023-05-18T00:00:00	2024-11-08T22:00:00	3	Temperatura mínima	20.6
171880	7	Sololá	712	San Antonio Palopó	9	San Antonio Palopo	5	Mayo	2023-05-18T00:00:00	2024-11-08T22:00:00	5	Humedad	73
171881	7	Sololá	712	San Antonio Palopó	9	San Antonio Palopo	5	Mayo	2023-05-18T00:00:00	2024-11-08T22:00:00	6	Velocidad del viento	1.6
171882	7	Sololá	712	San Antonio Palopó	9	San Antonio Palopo	5	Mayo	2023-05-18T00:00:00	2024-11-08T22:00:00	7	Dirección del viento	1.61
171883	7	Sololá	712	San Antonio Palopó	9	San Antonio Palopo	5	Mayo	2023-05-18T00:00:00	2024-11-08T22:00:00	1	Precipitación	0
171884	7	Sololá	712	San Antonio Palopó	9	San Antonio Palopo	5	Mayo	2023-05-18T00:00:00	2024-11-08T22:00:00	8	Radiación solar	0
171885	7	Sololá	712	San Antonio Palopó	9	San Antonio Palopo	5	Mayo	2023-05-18T00:00:00	2024-11-08T23:00:00	2	Temperatura media	21.5
171886	7	Sololá	712	San Antonio Palopó	9	San Antonio Palopo	5	Mayo	2023-05-18T00:00:00	2024-11-08T23:00:00	4	Temperatura máxima	21.7
171887	7	Sololá	712	San Antonio Palopó	9	San Antonio Palopo	5	Mayo	2023-05-18T00:00:00	2024-11-08T23:00:00	3	Temperatura mínima	20.9
171888	7	Sololá	712	San Antonio Palopó	9	San Antonio Palopo	5	Mayo	2023-05-18T00:00:00	2024-11-08T23:00:00	5	Humedad	71
171889	7	Sololá	712	San Antonio Palopó	9	San Antonio Palopo	5	Mayo	2023-05-18T00:00:00	2024-11-08T23:00:00	6	Velocidad del viento	6.4
171890	7	Sololá	712	San Antonio Palopó	9	San Antonio Palopo	5	Mayo	2023-05-18T00:00:00	2024-11-08T23:00:00	7	Dirección del viento	6.44
171891	7	Sololá	712	San Antonio Palopó	9	San Antonio Palopo	5	Mayo	2023-05-18T00:00:00	2024-11-08T23:00:00	1	Precipitación	0
171892	7	Sololá	712	San Antonio Palopó	9	San Antonio Palopo	5	Mayo	2023-05-18T00:00:00	2024-11-08T23:00:00	8	Radiación solar	0
171893	7	Sololá	712	San Antonio Palopó	9	San Antonio Palopo	5	Mayo	2023-05-19T00:00:00	2024-11-08T00:00:00	2	Temperatura media	20.8
171894	7	Sololá	712	San Antonio Palopó	9	San Antonio Palopo	5	Mayo	2023-05-19T00:00:00	2024-11-08T00:00:00	4	Temperatura máxima	21.6
171895	7	Sololá	712	San Antonio Palopó	9	San Antonio Palopo	5	Mayo	2023-05-19T00:00:00	2024-11-08T00:00:00	3	Temperatura mínima	20.7
171896	7	Sololá	712	San Antonio Palopó	9	San Antonio Palopo	5	Mayo	2023-05-19T00:00:00	2024-11-08T00:00:00	5	Humedad	73
171897	7	Sololá	712	San Antonio Palopó	9	San Antonio Palopo	5	Mayo	2023-05-19T00:00:00	2024-11-08T00:00:00	6	Velocidad del viento	8
171898	7	Sololá	712	San Antonio Palopó	9	San Antonio Palopo	5	Mayo	2023-05-19T00:00:00	2024-11-08T00:00:00	7	Dirección del viento	8.05
171899	7	Sololá	712	San Antonio Palopó	9	San Antonio Palopo	5	Mayo	2023-05-19T00:00:00	2024-11-08T00:00:00	1	Precipitación	0
171900	7	Sololá	712	San Antonio Palopó	9	San Antonio Palopo	5	Mayo	2023-05-19T00:00:00	2024-11-08T00:00:00	8	Radiación solar	0
171901	7	Sololá	712	San Antonio Palopó	9	San Antonio Palopo	5	Mayo	2023-05-19T00:00:00	2024-11-08T01:00:00	2	Temperatura media	20.6
171902	7	Sololá	712	San Antonio Palopó	9	San Antonio Palopo	5	Mayo	2023-05-19T00:00:00	2024-11-08T01:00:00	4	Temperatura máxima	20.9
171903	7	Sololá	712	San Antonio Palopó	9	San Antonio Palopo	5	Mayo	2023-05-19T00:00:00	2024-11-08T01:00:00	3	Temperatura mínima	20.4
171904	7	Sololá	712	San Antonio Palopó	9	San Antonio Palopo	5	Mayo	2023-05-19T00:00:00	2024-11-08T01:00:00	5	Humedad	73
171905	7	Sololá	712	San Antonio Palopó	9	San Antonio Palopo	5	Mayo	2023-05-19T00:00:00	2024-11-08T01:00:00	6	Velocidad del viento	6.4
171906	7	Sololá	712	San Antonio Palopó	9	San Antonio Palopo	5	Mayo	2023-05-19T00:00:00	2024-11-08T01:00:00	7	Dirección del viento	6.44
171907	7	Sololá	712	San Antonio Palopó	9	San Antonio Palopo	5	Mayo	2023-05-19T00:00:00	2024-11-08T01:00:00	1	Precipitación	0
171908	7	Sololá	712	San Antonio Palopó	9	San Antonio Palopo	5	Mayo	2023-05-19T00:00:00	2024-11-08T01:00:00	8	Radiación solar	0
171909	7	Sololá	712	San Antonio Palopó	9	San Antonio Palopo	5	Mayo	2023-05-19T00:00:00	2024-11-08T02:00:00	2	Temperatura media	20
171910	7	Sololá	712	San Antonio Palopó	9	San Antonio Palopo	5	Mayo	2023-05-19T00:00:00	2024-11-08T02:00:00	4	Temperatura máxima	20.7
171911	7	Sololá	712	San Antonio Palopó	9	San Antonio Palopo	5	Mayo	2023-05-19T00:00:00	2024-11-08T02:00:00	3	Temperatura mínima	20
171912	7	Sololá	712	San Antonio Palopó	9	San Antonio Palopo	5	Mayo	2023-05-19T00:00:00	2024-11-08T02:00:00	5	Humedad	75
171913	7	Sololá	712	San Antonio Palopó	9	San Antonio Palopo	5	Mayo	2023-05-19T00:00:00	2024-11-08T02:00:00	6	Velocidad del viento	3.2
171914	7	Sololá	712	San Antonio Palopó	9	San Antonio Palopo	5	Mayo	2023-05-19T00:00:00	2024-11-08T02:00:00	7	Dirección del viento	3.22
171915	7	Sololá	712	San Antonio Palopó	9	San Antonio Palopo	5	Mayo	2023-05-19T00:00:00	2024-11-08T02:00:00	1	Precipitación	0
171916	7	Sololá	712	San Antonio Palopó	9	San Antonio Palopo	5	Mayo	2023-05-19T00:00:00	2024-11-08T02:00:00	8	Radiación solar	0
171917	7	Sololá	712	San Antonio Palopó	9	San Antonio Palopo	5	Mayo	2023-05-19T00:00:00	2024-11-08T03:00:00	2	Temperatura media	19.8
171918	7	Sololá	712	San Antonio Palopó	9	San Antonio Palopo	5	Mayo	2023-05-19T00:00:00	2024-11-08T03:00:00	4	Temperatura máxima	20
171919	7	Sololá	712	San Antonio Palopó	9	San Antonio Palopo	5	Mayo	2023-05-19T00:00:00	2024-11-08T03:00:00	3	Temperatura mínima	19.4
171920	7	Sololá	712	San Antonio Palopó	9	San Antonio Palopo	5	Mayo	2023-05-19T00:00:00	2024-11-08T03:00:00	5	Humedad	76
171921	7	Sololá	712	San Antonio Palopó	9	San Antonio Palopo	5	Mayo	2023-05-19T00:00:00	2024-11-08T03:00:00	6	Velocidad del viento	3.2
171922	7	Sololá	712	San Antonio Palopó	9	San Antonio Palopo	5	Mayo	2023-05-19T00:00:00	2024-11-08T03:00:00	7	Dirección del viento	3.22
171923	7	Sololá	712	San Antonio Palopó	9	San Antonio Palopo	5	Mayo	2023-05-19T00:00:00	2024-11-08T03:00:00	1	Precipitación	0
171924	7	Sololá	712	San Antonio Palopó	9	San Antonio Palopo	5	Mayo	2023-05-19T00:00:00	2024-11-08T03:00:00	8	Radiación solar	0
171925	7	Sololá	712	San Antonio Palopó	9	San Antonio Palopo	5	Mayo	2023-05-19T00:00:00	2024-11-08T04:00:00	2	Temperatura media	19.4
171926	7	Sololá	712	San Antonio Palopó	9	San Antonio Palopo	5	Mayo	2023-05-19T00:00:00	2024-11-08T04:00:00	4	Temperatura máxima	19.8
171927	7	Sololá	712	San Antonio Palopó	9	San Antonio Palopo	5	Mayo	2023-05-19T00:00:00	2024-11-08T04:00:00	3	Temperatura mínima	19.4
171928	7	Sololá	712	San Antonio Palopó	9	San Antonio Palopo	5	Mayo	2023-05-19T00:00:00	2024-11-08T04:00:00	5	Humedad	76
171929	7	Sololá	712	San Antonio Palopó	9	San Antonio Palopo	5	Mayo	2023-05-19T00:00:00	2024-11-08T04:00:00	6	Velocidad del viento	3.2
171930	7	Sololá	712	San Antonio Palopó	9	San Antonio Palopo	5	Mayo	2023-05-19T00:00:00	2024-11-08T04:00:00	7	Dirección del viento	3.22
171931	7	Sololá	712	San Antonio Palopó	9	San Antonio Palopo	5	Mayo	2023-05-19T00:00:00	2024-11-08T04:00:00	1	Precipitación	0
171932	7	Sololá	712	San Antonio Palopó	9	San Antonio Palopo	5	Mayo	2023-05-19T00:00:00	2024-11-08T04:00:00	8	Radiación solar	0
171933	7	Sololá	712	San Antonio Palopó	9	San Antonio Palopo	5	Mayo	2023-05-19T00:00:00	2024-11-08T05:00:00	2	Temperatura media	19.7
171934	7	Sololá	712	San Antonio Palopó	9	San Antonio Palopo	5	Mayo	2023-05-19T00:00:00	2024-11-08T05:00:00	4	Temperatura máxima	19.7
171935	7	Sololá	712	San Antonio Palopó	9	San Antonio Palopo	5	Mayo	2023-05-19T00:00:00	2024-11-08T05:00:00	3	Temperatura mínima	19.2
171936	7	Sololá	712	San Antonio Palopó	9	San Antonio Palopo	5	Mayo	2023-05-19T00:00:00	2024-11-08T05:00:00	5	Humedad	74
171937	7	Sololá	712	San Antonio Palopó	9	San Antonio Palopo	5	Mayo	2023-05-19T00:00:00	2024-11-08T05:00:00	6	Velocidad del viento	3.2
171938	7	Sololá	712	San Antonio Palopó	9	San Antonio Palopo	5	Mayo	2023-05-19T00:00:00	2024-11-08T05:00:00	7	Dirección del viento	3.22
171939	7	Sololá	712	San Antonio Palopó	9	San Antonio Palopo	5	Mayo	2023-05-19T00:00:00	2024-11-08T05:00:00	1	Precipitación	0
171940	7	Sololá	712	San Antonio Palopó	9	San Antonio Palopo	5	Mayo	2023-05-19T00:00:00	2024-11-08T05:00:00	8	Radiación solar	0
171941	7	Sololá	712	San Antonio Palopó	9	San Antonio Palopo	5	Mayo	2023-05-19T00:00:00	2024-11-08T06:00:00	2	Temperatura media	20.2
171942	7	Sololá	712	San Antonio Palopó	9	San Antonio Palopo	5	Mayo	2023-05-19T00:00:00	2024-11-08T06:00:00	4	Temperatura máxima	20.3
171943	7	Sololá	712	San Antonio Palopó	9	San Antonio Palopo	5	Mayo	2023-05-19T00:00:00	2024-11-08T06:00:00	3	Temperatura mínima	19.7
171944	7	Sololá	712	San Antonio Palopó	9	San Antonio Palopo	5	Mayo	2023-05-19T00:00:00	2024-11-08T06:00:00	5	Humedad	71
171945	7	Sololá	712	San Antonio Palopó	9	San Antonio Palopo	5	Mayo	2023-05-19T00:00:00	2024-11-08T06:00:00	6	Velocidad del viento	4.8
171946	7	Sololá	712	San Antonio Palopó	9	San Antonio Palopo	5	Mayo	2023-05-19T00:00:00	2024-11-08T06:00:00	7	Dirección del viento	4.83
171947	7	Sololá	712	San Antonio Palopó	9	San Antonio Palopo	5	Mayo	2023-05-19T00:00:00	2024-11-08T06:00:00	1	Precipitación	0
171948	7	Sololá	712	San Antonio Palopó	9	San Antonio Palopo	5	Mayo	2023-05-19T00:00:00	2024-11-08T06:00:00	8	Radiación solar	3
171949	7	Sololá	712	San Antonio Palopó	9	San Antonio Palopo	5	Mayo	2023-05-19T00:00:00	2024-11-08T07:00:00	2	Temperatura media	19.3
171950	7	Sololá	712	San Antonio Palopó	9	San Antonio Palopo	5	Mayo	2023-05-19T00:00:00	2024-11-08T07:00:00	4	Temperatura máxima	20.2
171951	7	Sololá	712	San Antonio Palopó	9	San Antonio Palopo	5	Mayo	2023-05-19T00:00:00	2024-11-08T07:00:00	3	Temperatura mínima	19.1
171952	7	Sololá	712	San Antonio Palopó	9	San Antonio Palopo	5	Mayo	2023-05-19T00:00:00	2024-11-08T07:00:00	5	Humedad	75
171953	7	Sololá	712	San Antonio Palopó	9	San Antonio Palopo	5	Mayo	2023-05-19T00:00:00	2024-11-08T07:00:00	6	Velocidad del viento	3.2
171954	7	Sololá	712	San Antonio Palopó	9	San Antonio Palopo	5	Mayo	2023-05-19T00:00:00	2024-11-08T07:00:00	7	Dirección del viento	3.22
171955	7	Sololá	712	San Antonio Palopó	9	San Antonio Palopo	5	Mayo	2023-05-19T00:00:00	2024-11-08T07:00:00	1	Precipitación	0
171956	7	Sololá	712	San Antonio Palopó	9	San Antonio Palopo	5	Mayo	2023-05-19T00:00:00	2024-11-08T07:00:00	8	Radiación solar	30
171957	7	Sololá	712	San Antonio Palopó	9	San Antonio Palopo	5	Mayo	2023-05-19T00:00:00	2024-11-08T08:00:00	2	Temperatura media	22.3
171958	7	Sololá	712	San Antonio Palopó	9	San Antonio Palopo	5	Mayo	2023-05-19T00:00:00	2024-11-08T08:00:00	4	Temperatura máxima	22.3
171959	7	Sololá	712	San Antonio Palopó	9	San Antonio Palopo	5	Mayo	2023-05-19T00:00:00	2024-11-08T08:00:00	3	Temperatura mínima	19.3
171960	7	Sololá	712	San Antonio Palopó	9	San Antonio Palopo	5	Mayo	2023-05-19T00:00:00	2024-11-08T08:00:00	5	Humedad	66
171961	7	Sololá	712	San Antonio Palopó	9	San Antonio Palopo	5	Mayo	2023-05-19T00:00:00	2024-11-08T08:00:00	6	Velocidad del viento	1.6
171962	7	Sololá	712	San Antonio Palopó	9	San Antonio Palopo	5	Mayo	2023-05-19T00:00:00	2024-11-08T08:00:00	7	Dirección del viento	1.61
171963	7	Sololá	712	San Antonio Palopó	9	San Antonio Palopo	5	Mayo	2023-05-19T00:00:00	2024-11-08T08:00:00	1	Precipitación	0
171964	7	Sololá	712	San Antonio Palopó	9	San Antonio Palopo	5	Mayo	2023-05-19T00:00:00	2024-11-08T08:00:00	8	Radiación solar	218
171965	7	Sololá	712	San Antonio Palopó	9	San Antonio Palopo	5	Mayo	2023-05-19T00:00:00	2024-11-08T09:00:00	2	Temperatura media	23.6
171966	7	Sololá	712	San Antonio Palopó	9	San Antonio Palopo	5	Mayo	2023-05-19T00:00:00	2024-11-08T09:00:00	4	Temperatura máxima	23.6
171967	7	Sololá	712	San Antonio Palopó	9	San Antonio Palopo	5	Mayo	2023-05-19T00:00:00	2024-11-08T09:00:00	3	Temperatura mínima	22.3
171968	7	Sololá	712	San Antonio Palopó	9	San Antonio Palopo	5	Mayo	2023-05-19T00:00:00	2024-11-08T09:00:00	5	Humedad	63
171969	7	Sololá	712	San Antonio Palopó	9	San Antonio Palopo	5	Mayo	2023-05-19T00:00:00	2024-11-08T09:00:00	6	Velocidad del viento	1.6
171970	7	Sololá	712	San Antonio Palopó	9	San Antonio Palopo	5	Mayo	2023-05-19T00:00:00	2024-11-08T09:00:00	7	Dirección del viento	1.61
171971	7	Sololá	712	San Antonio Palopó	9	San Antonio Palopo	5	Mayo	2023-05-19T00:00:00	2024-11-08T09:00:00	1	Precipitación	0
171972	7	Sololá	712	San Antonio Palopó	9	San Antonio Palopo	5	Mayo	2023-05-19T00:00:00	2024-11-08T09:00:00	8	Radiación solar	536
171973	7	Sololá	712	San Antonio Palopó	9	San Antonio Palopo	5	Mayo	2023-05-19T00:00:00	2024-11-08T10:00:00	2	Temperatura media	24.7
171974	7	Sololá	712	San Antonio Palopó	9	San Antonio Palopo	5	Mayo	2023-05-19T00:00:00	2024-11-08T10:00:00	4	Temperatura máxima	24.7
171975	7	Sololá	712	San Antonio Palopó	9	San Antonio Palopo	5	Mayo	2023-05-19T00:00:00	2024-11-08T10:00:00	3	Temperatura mínima	23.6
171976	7	Sololá	712	San Antonio Palopó	9	San Antonio Palopo	5	Mayo	2023-05-19T00:00:00	2024-11-08T10:00:00	5	Humedad	56
171977	7	Sololá	712	San Antonio Palopó	9	San Antonio Palopo	5	Mayo	2023-05-19T00:00:00	2024-11-08T10:00:00	6	Velocidad del viento	3.2
171978	7	Sololá	712	San Antonio Palopó	9	San Antonio Palopo	5	Mayo	2023-05-19T00:00:00	2024-11-08T10:00:00	7	Dirección del viento	3.22
171979	7	Sololá	712	San Antonio Palopó	9	San Antonio Palopo	5	Mayo	2023-05-19T00:00:00	2024-11-08T10:00:00	1	Precipitación	0
171980	7	Sololá	712	San Antonio Palopó	9	San Antonio Palopo	5	Mayo	2023-05-19T00:00:00	2024-11-08T10:00:00	8	Radiación solar	717
171981	7	Sololá	712	San Antonio Palopó	9	San Antonio Palopo	5	Mayo	2023-05-19T00:00:00	2024-11-08T11:00:00	2	Temperatura media	25.6
171982	7	Sololá	712	San Antonio Palopó	9	San Antonio Palopo	5	Mayo	2023-05-19T00:00:00	2024-11-08T11:00:00	4	Temperatura máxima	25.6
171983	7	Sololá	712	San Antonio Palopó	9	San Antonio Palopo	5	Mayo	2023-05-19T00:00:00	2024-11-08T11:00:00	3	Temperatura mínima	24.7
171984	7	Sololá	712	San Antonio Palopó	9	San Antonio Palopo	5	Mayo	2023-05-19T00:00:00	2024-11-08T11:00:00	5	Humedad	63
171985	7	Sololá	712	San Antonio Palopó	9	San Antonio Palopo	5	Mayo	2023-05-19T00:00:00	2024-11-08T11:00:00	6	Velocidad del viento	4.8
171986	7	Sololá	712	San Antonio Palopó	9	San Antonio Palopo	5	Mayo	2023-05-19T00:00:00	2024-11-08T11:00:00	7	Dirección del viento	4.83
171987	7	Sololá	712	San Antonio Palopó	9	San Antonio Palopo	5	Mayo	2023-05-19T00:00:00	2024-11-08T11:00:00	1	Precipitación	0
171988	7	Sololá	712	San Antonio Palopó	9	San Antonio Palopo	5	Mayo	2023-05-19T00:00:00	2024-11-08T11:00:00	8	Radiación solar	841
171989	7	Sololá	712	San Antonio Palopó	9	San Antonio Palopo	5	Mayo	2023-05-19T00:00:00	2024-11-08T12:00:00	2	Temperatura media	25.4
171990	7	Sololá	712	San Antonio Palopó	9	San Antonio Palopo	5	Mayo	2023-05-19T00:00:00	2024-11-08T12:00:00	4	Temperatura máxima	26
171991	7	Sololá	712	San Antonio Palopó	9	San Antonio Palopo	5	Mayo	2023-05-19T00:00:00	2024-11-08T12:00:00	3	Temperatura mínima	25.4
171992	7	Sololá	712	San Antonio Palopó	9	San Antonio Palopo	5	Mayo	2023-05-19T00:00:00	2024-11-08T12:00:00	5	Humedad	67
171993	7	Sololá	712	San Antonio Palopó	9	San Antonio Palopo	5	Mayo	2023-05-19T00:00:00	2024-11-08T12:00:00	6	Velocidad del viento	6.4
171994	7	Sololá	712	San Antonio Palopó	9	San Antonio Palopo	5	Mayo	2023-05-19T00:00:00	2024-11-08T12:00:00	7	Dirección del viento	6.44
171995	7	Sololá	712	San Antonio Palopó	9	San Antonio Palopo	5	Mayo	2023-05-19T00:00:00	2024-11-08T12:00:00	1	Precipitación	0
171996	7	Sololá	712	San Antonio Palopó	9	San Antonio Palopo	5	Mayo	2023-05-19T00:00:00	2024-11-08T12:00:00	8	Radiación solar	891
171997	7	Sololá	712	San Antonio Palopó	9	San Antonio Palopo	5	Mayo	2023-05-19T00:00:00	2024-11-08T13:00:00	2	Temperatura media	25.1
171998	7	Sololá	712	San Antonio Palopó	9	San Antonio Palopo	5	Mayo	2023-05-19T00:00:00	2024-11-08T13:00:00	4	Temperatura máxima	25.4
171999	7	Sololá	712	San Antonio Palopó	9	San Antonio Palopo	5	Mayo	2023-05-19T00:00:00	2024-11-08T13:00:00	3	Temperatura mínima	24.4
172000	7	Sololá	712	San Antonio Palopó	9	San Antonio Palopo	5	Mayo	2023-05-19T00:00:00	2024-11-08T13:00:00	5	Humedad	70
172001	7	Sololá	712	San Antonio Palopó	9	San Antonio Palopo	5	Mayo	2023-05-19T00:00:00	2024-11-08T13:00:00	6	Velocidad del viento	9.7
172002	7	Sololá	712	San Antonio Palopó	9	San Antonio Palopo	5	Mayo	2023-05-19T00:00:00	2024-11-08T13:00:00	7	Dirección del viento	9.66
172003	7	Sololá	712	San Antonio Palopó	9	San Antonio Palopo	5	Mayo	2023-05-19T00:00:00	2024-11-08T13:00:00	1	Precipitación	0
172004	7	Sololá	712	San Antonio Palopó	9	San Antonio Palopo	5	Mayo	2023-05-19T00:00:00	2024-11-08T13:00:00	8	Radiación solar	404
172005	7	Sololá	712	San Antonio Palopó	9	San Antonio Palopo	5	Mayo	2023-05-19T00:00:00	2024-11-08T14:00:00	2	Temperatura media	28.3
172006	7	Sololá	712	San Antonio Palopó	9	San Antonio Palopo	5	Mayo	2023-05-19T00:00:00	2024-11-08T14:00:00	4	Temperatura máxima	28.4
172007	7	Sololá	712	San Antonio Palopó	9	San Antonio Palopo	5	Mayo	2023-05-19T00:00:00	2024-11-08T14:00:00	3	Temperatura mínima	24.7
172008	7	Sololá	712	San Antonio Palopó	9	San Antonio Palopo	5	Mayo	2023-05-19T00:00:00	2024-11-08T14:00:00	5	Humedad	43
172009	7	Sololá	712	San Antonio Palopó	9	San Antonio Palopo	5	Mayo	2023-05-19T00:00:00	2024-11-08T14:00:00	6	Velocidad del viento	9.7
172010	7	Sololá	712	San Antonio Palopó	9	San Antonio Palopo	5	Mayo	2023-05-19T00:00:00	2024-11-08T14:00:00	7	Dirección del viento	9.66
172011	7	Sololá	712	San Antonio Palopó	9	San Antonio Palopo	5	Mayo	2023-05-19T00:00:00	2024-11-08T14:00:00	1	Precipitación	0
172012	7	Sololá	712	San Antonio Palopó	9	San Antonio Palopo	5	Mayo	2023-05-19T00:00:00	2024-11-08T14:00:00	8	Radiación solar	470
172013	7	Sololá	712	San Antonio Palopó	9	San Antonio Palopo	5	Mayo	2023-05-19T00:00:00	2024-11-08T15:00:00	2	Temperatura media	27.8
172014	7	Sololá	712	San Antonio Palopó	9	San Antonio Palopo	5	Mayo	2023-05-19T00:00:00	2024-11-08T15:00:00	4	Temperatura máxima	28.3
172015	7	Sololá	712	San Antonio Palopó	9	San Antonio Palopo	5	Mayo	2023-05-19T00:00:00	2024-11-08T15:00:00	3	Temperatura mínima	26.1
172016	7	Sololá	712	San Antonio Palopó	9	San Antonio Palopo	5	Mayo	2023-05-19T00:00:00	2024-11-08T15:00:00	5	Humedad	58
172017	7	Sololá	712	San Antonio Palopó	9	San Antonio Palopo	5	Mayo	2023-05-19T00:00:00	2024-11-08T15:00:00	6	Velocidad del viento	11.3
172018	7	Sololá	712	San Antonio Palopó	9	San Antonio Palopo	5	Mayo	2023-05-19T00:00:00	2024-11-08T15:00:00	7	Dirección del viento	11.27
172019	7	Sololá	712	San Antonio Palopó	9	San Antonio Palopo	5	Mayo	2023-05-19T00:00:00	2024-11-08T15:00:00	1	Precipitación	0
172020	7	Sololá	712	San Antonio Palopó	9	San Antonio Palopo	5	Mayo	2023-05-19T00:00:00	2024-11-08T15:00:00	8	Radiación solar	385
172021	7	Sololá	712	San Antonio Palopó	9	San Antonio Palopo	5	Mayo	2023-05-19T00:00:00	2024-11-08T16:00:00	2	Temperatura media	26.1
172022	7	Sololá	712	San Antonio Palopó	9	San Antonio Palopo	5	Mayo	2023-05-19T00:00:00	2024-11-08T16:00:00	4	Temperatura máxima	27.7
172023	7	Sololá	712	San Antonio Palopó	9	San Antonio Palopo	5	Mayo	2023-05-19T00:00:00	2024-11-08T16:00:00	3	Temperatura mínima	25.2
172024	7	Sololá	712	San Antonio Palopó	9	San Antonio Palopo	5	Mayo	2023-05-19T00:00:00	2024-11-08T16:00:00	5	Humedad	60
172025	7	Sololá	712	San Antonio Palopó	9	San Antonio Palopo	5	Mayo	2023-05-19T00:00:00	2024-11-08T16:00:00	6	Velocidad del viento	11.3
172026	7	Sololá	712	San Antonio Palopó	9	San Antonio Palopo	5	Mayo	2023-05-19T00:00:00	2024-11-08T16:00:00	7	Dirección del viento	11.27
172027	7	Sololá	712	San Antonio Palopó	9	San Antonio Palopo	5	Mayo	2023-05-19T00:00:00	2024-11-08T16:00:00	1	Precipitación	0
172028	7	Sololá	712	San Antonio Palopó	9	San Antonio Palopo	5	Mayo	2023-05-19T00:00:00	2024-11-08T16:00:00	8	Radiación solar	188
172029	7	Sololá	712	San Antonio Palopó	9	San Antonio Palopo	5	Mayo	2023-05-19T00:00:00	2024-11-08T17:00:00	2	Temperatura media	25.4
172030	7	Sololá	712	San Antonio Palopó	9	San Antonio Palopo	5	Mayo	2023-05-19T00:00:00	2024-11-08T17:00:00	4	Temperatura máxima	26.2
172031	7	Sololá	712	San Antonio Palopó	9	San Antonio Palopo	5	Mayo	2023-05-19T00:00:00	2024-11-08T17:00:00	3	Temperatura mínima	24.8
172032	7	Sololá	712	San Antonio Palopó	9	San Antonio Palopo	5	Mayo	2023-05-19T00:00:00	2024-11-08T17:00:00	5	Humedad	59
172033	7	Sololá	712	San Antonio Palopó	9	San Antonio Palopo	5	Mayo	2023-05-19T00:00:00	2024-11-08T17:00:00	6	Velocidad del viento	6.4
172034	7	Sololá	712	San Antonio Palopó	9	San Antonio Palopo	5	Mayo	2023-05-19T00:00:00	2024-11-08T17:00:00	7	Dirección del viento	6.44
172035	7	Sololá	712	San Antonio Palopó	9	San Antonio Palopo	5	Mayo	2023-05-19T00:00:00	2024-11-08T17:00:00	1	Precipitación	0
172036	7	Sololá	712	San Antonio Palopó	9	San Antonio Palopo	5	Mayo	2023-05-19T00:00:00	2024-11-08T17:00:00	8	Radiación solar	63
172037	7	Sololá	712	San Antonio Palopó	9	San Antonio Palopo	5	Mayo	2023-05-19T00:00:00	2024-11-08T18:00:00	2	Temperatura media	23.9
172038	7	Sololá	712	San Antonio Palopó	9	San Antonio Palopo	5	Mayo	2023-05-19T00:00:00	2024-11-08T18:00:00	4	Temperatura máxima	25.4
172039	7	Sololá	712	San Antonio Palopó	9	San Antonio Palopo	5	Mayo	2023-05-19T00:00:00	2024-11-08T18:00:00	3	Temperatura mínima	23.9
172040	7	Sololá	712	San Antonio Palopó	9	San Antonio Palopo	5	Mayo	2023-05-19T00:00:00	2024-11-08T18:00:00	5	Humedad	67
172041	7	Sololá	712	San Antonio Palopó	9	San Antonio Palopo	5	Mayo	2023-05-19T00:00:00	2024-11-08T18:00:00	6	Velocidad del viento	6.4
172042	7	Sololá	712	San Antonio Palopó	9	San Antonio Palopo	5	Mayo	2023-05-19T00:00:00	2024-11-08T18:00:00	7	Dirección del viento	6.44
172043	7	Sololá	712	San Antonio Palopó	9	San Antonio Palopo	5	Mayo	2023-05-19T00:00:00	2024-11-08T18:00:00	1	Precipitación	0
172044	7	Sololá	712	San Antonio Palopó	9	San Antonio Palopo	5	Mayo	2023-05-19T00:00:00	2024-11-08T18:00:00	8	Radiación solar	59
172045	7	Sololá	712	San Antonio Palopó	9	San Antonio Palopo	5	Mayo	2023-05-19T00:00:00	2024-11-08T19:00:00	2	Temperatura media	23.5
172046	7	Sololá	712	San Antonio Palopó	9	San Antonio Palopo	5	Mayo	2023-05-19T00:00:00	2024-11-08T19:00:00	4	Temperatura máxima	24.2
172047	7	Sololá	712	San Antonio Palopó	9	San Antonio Palopo	5	Mayo	2023-05-19T00:00:00	2024-11-08T19:00:00	3	Temperatura mínima	23.5
172048	7	Sololá	712	San Antonio Palopó	9	San Antonio Palopo	5	Mayo	2023-05-19T00:00:00	2024-11-08T19:00:00	5	Humedad	69
172049	7	Sololá	712	San Antonio Palopó	9	San Antonio Palopo	5	Mayo	2023-05-19T00:00:00	2024-11-08T19:00:00	6	Velocidad del viento	3.2
172050	7	Sololá	712	San Antonio Palopó	9	San Antonio Palopo	5	Mayo	2023-05-19T00:00:00	2024-11-08T19:00:00	7	Dirección del viento	3.22
172051	7	Sololá	712	San Antonio Palopó	9	San Antonio Palopo	5	Mayo	2023-05-19T00:00:00	2024-11-08T19:00:00	1	Precipitación	0
172052	7	Sololá	712	San Antonio Palopó	9	San Antonio Palopo	5	Mayo	2023-05-19T00:00:00	2024-11-08T19:00:00	8	Radiación solar	0
172053	7	Sololá	712	San Antonio Palopó	9	San Antonio Palopo	5	Mayo	2023-05-19T00:00:00	2024-11-08T20:00:00	2	Temperatura media	22
172054	7	Sololá	712	San Antonio Palopó	9	San Antonio Palopo	5	Mayo	2023-05-19T00:00:00	2024-11-08T20:00:00	4	Temperatura máxima	23.6
172055	7	Sololá	712	San Antonio Palopó	9	San Antonio Palopo	5	Mayo	2023-05-19T00:00:00	2024-11-08T20:00:00	3	Temperatura mínima	21.8
172056	7	Sololá	712	San Antonio Palopó	9	San Antonio Palopo	5	Mayo	2023-05-19T00:00:00	2024-11-08T20:00:00	5	Humedad	75
172057	7	Sololá	712	San Antonio Palopó	9	San Antonio Palopo	5	Mayo	2023-05-19T00:00:00	2024-11-08T20:00:00	6	Velocidad del viento	4.8
172058	7	Sololá	712	San Antonio Palopó	9	San Antonio Palopo	5	Mayo	2023-05-19T00:00:00	2024-11-08T20:00:00	7	Dirección del viento	4.83
172059	7	Sololá	712	San Antonio Palopó	9	San Antonio Palopo	5	Mayo	2023-05-19T00:00:00	2024-11-08T20:00:00	1	Precipitación	0
172060	7	Sololá	712	San Antonio Palopó	9	San Antonio Palopo	5	Mayo	2023-05-19T00:00:00	2024-11-08T20:00:00	8	Radiación solar	0
172061	7	Sololá	712	San Antonio Palopó	9	San Antonio Palopo	5	Mayo	2023-05-19T00:00:00	2024-11-08T21:00:00	2	Temperatura media	22.4
172062	7	Sololá	712	San Antonio Palopó	9	San Antonio Palopo	5	Mayo	2023-05-19T00:00:00	2024-11-08T21:00:00	4	Temperatura máxima	22.7
172063	7	Sololá	712	San Antonio Palopó	9	San Antonio Palopo	5	Mayo	2023-05-19T00:00:00	2024-11-08T21:00:00	3	Temperatura mínima	21.8
172064	7	Sololá	712	San Antonio Palopó	9	San Antonio Palopo	5	Mayo	2023-05-19T00:00:00	2024-11-08T21:00:00	5	Humedad	68
172065	7	Sololá	712	San Antonio Palopó	9	San Antonio Palopo	5	Mayo	2023-05-19T00:00:00	2024-11-08T21:00:00	6	Velocidad del viento	3.2
172066	7	Sololá	712	San Antonio Palopó	9	San Antonio Palopo	5	Mayo	2023-05-19T00:00:00	2024-11-08T21:00:00	7	Dirección del viento	3.22
172067	7	Sololá	712	San Antonio Palopó	9	San Antonio Palopo	5	Mayo	2023-05-19T00:00:00	2024-11-08T21:00:00	1	Precipitación	0
172068	7	Sololá	712	San Antonio Palopó	9	San Antonio Palopo	5	Mayo	2023-05-19T00:00:00	2024-11-08T21:00:00	8	Radiación solar	0
172069	7	Sololá	712	San Antonio Palopó	9	San Antonio Palopo	5	Mayo	2023-05-19T00:00:00	2024-11-08T22:00:00	2	Temperatura media	21.7
172070	7	Sololá	712	San Antonio Palopó	9	San Antonio Palopo	5	Mayo	2023-05-19T00:00:00	2024-11-08T22:00:00	4	Temperatura máxima	22.4
172071	7	Sololá	712	San Antonio Palopó	9	San Antonio Palopo	5	Mayo	2023-05-19T00:00:00	2024-11-08T22:00:00	3	Temperatura mínima	21.3
172072	7	Sololá	712	San Antonio Palopó	9	San Antonio Palopo	5	Mayo	2023-05-19T00:00:00	2024-11-08T22:00:00	5	Humedad	68
172073	7	Sololá	712	San Antonio Palopó	9	San Antonio Palopo	5	Mayo	2023-05-19T00:00:00	2024-11-08T22:00:00	6	Velocidad del viento	3.2
172074	7	Sololá	712	San Antonio Palopó	9	San Antonio Palopo	5	Mayo	2023-05-19T00:00:00	2024-11-08T22:00:00	7	Dirección del viento	3.22
172075	7	Sololá	712	San Antonio Palopó	9	San Antonio Palopo	5	Mayo	2023-05-19T00:00:00	2024-11-08T22:00:00	1	Precipitación	0
172076	7	Sololá	712	San Antonio Palopó	9	San Antonio Palopo	5	Mayo	2023-05-19T00:00:00	2024-11-08T22:00:00	8	Radiación solar	0
172077	7	Sololá	712	San Antonio Palopó	9	San Antonio Palopo	5	Mayo	2023-05-19T00:00:00	2024-11-08T23:00:00	2	Temperatura media	21.2
172078	7	Sololá	712	San Antonio Palopó	9	San Antonio Palopo	5	Mayo	2023-05-19T00:00:00	2024-11-08T23:00:00	4	Temperatura máxima	22
172079	7	Sololá	712	San Antonio Palopó	9	San Antonio Palopo	5	Mayo	2023-05-19T00:00:00	2024-11-08T23:00:00	3	Temperatura mínima	21.2
172080	7	Sololá	712	San Antonio Palopó	9	San Antonio Palopo	5	Mayo	2023-05-19T00:00:00	2024-11-08T23:00:00	5	Humedad	67
172081	7	Sololá	712	San Antonio Palopó	9	San Antonio Palopo	5	Mayo	2023-05-19T00:00:00	2024-11-08T23:00:00	6	Velocidad del viento	3.2
172082	7	Sololá	712	San Antonio Palopó	9	San Antonio Palopo	5	Mayo	2023-05-19T00:00:00	2024-11-08T23:00:00	7	Dirección del viento	3.22
172083	7	Sololá	712	San Antonio Palopó	9	San Antonio Palopo	5	Mayo	2023-05-19T00:00:00	2024-11-08T23:00:00	1	Precipitación	0
172084	7	Sololá	712	San Antonio Palopó	9	San Antonio Palopo	5	Mayo	2023-05-19T00:00:00	2024-11-08T23:00:00	8	Radiación solar	0
172085	7	Sololá	712	San Antonio Palopó	9	San Antonio Palopo	5	Mayo	2023-05-20T00:00:00	2024-11-08T00:00:00	2	Temperatura media	21
172086	7	Sololá	712	San Antonio Palopó	9	San Antonio Palopo	5	Mayo	2023-05-20T00:00:00	2024-11-08T00:00:00	4	Temperatura máxima	21.3
172087	7	Sololá	712	San Antonio Palopó	9	San Antonio Palopo	5	Mayo	2023-05-20T00:00:00	2024-11-08T00:00:00	3	Temperatura mínima	21
172088	7	Sololá	712	San Antonio Palopó	9	San Antonio Palopo	5	Mayo	2023-05-20T00:00:00	2024-11-08T00:00:00	5	Humedad	66
172089	7	Sololá	712	San Antonio Palopó	9	San Antonio Palopo	5	Mayo	2023-05-20T00:00:00	2024-11-08T00:00:00	6	Velocidad del viento	4.8
172090	7	Sololá	712	San Antonio Palopó	9	San Antonio Palopo	5	Mayo	2023-05-20T00:00:00	2024-11-08T00:00:00	7	Dirección del viento	4.83
172091	7	Sololá	712	San Antonio Palopó	9	San Antonio Palopo	5	Mayo	2023-05-20T00:00:00	2024-11-08T00:00:00	1	Precipitación	0
172092	7	Sololá	712	San Antonio Palopó	9	San Antonio Palopo	5	Mayo	2023-05-20T00:00:00	2024-11-08T00:00:00	8	Radiación solar	0
172093	7	Sololá	712	San Antonio Palopó	9	San Antonio Palopo	5	Mayo	2023-05-20T00:00:00	2024-11-08T01:00:00	2	Temperatura media	20.3
172094	7	Sololá	712	San Antonio Palopó	9	San Antonio Palopo	5	Mayo	2023-05-20T00:00:00	2024-11-08T01:00:00	4	Temperatura máxima	21.1
172095	7	Sololá	712	San Antonio Palopó	9	San Antonio Palopo	5	Mayo	2023-05-20T00:00:00	2024-11-08T01:00:00	3	Temperatura mínima	20.2
172096	7	Sololá	712	San Antonio Palopó	9	San Antonio Palopo	5	Mayo	2023-05-20T00:00:00	2024-11-08T01:00:00	5	Humedad	65
172097	7	Sololá	712	San Antonio Palopó	9	San Antonio Palopo	5	Mayo	2023-05-20T00:00:00	2024-11-08T01:00:00	6	Velocidad del viento	4.8
172098	7	Sololá	712	San Antonio Palopó	9	San Antonio Palopo	5	Mayo	2023-05-20T00:00:00	2024-11-08T01:00:00	7	Dirección del viento	4.83
172099	7	Sololá	712	San Antonio Palopó	9	San Antonio Palopo	5	Mayo	2023-05-20T00:00:00	2024-11-08T01:00:00	1	Precipitación	0
172100	7	Sololá	712	San Antonio Palopó	9	San Antonio Palopo	5	Mayo	2023-05-20T00:00:00	2024-11-08T01:00:00	8	Radiación solar	0
172101	7	Sololá	712	San Antonio Palopó	9	San Antonio Palopo	5	Mayo	2023-05-20T00:00:00	2024-11-08T02:00:00	2	Temperatura media	20
172102	7	Sololá	712	San Antonio Palopó	9	San Antonio Palopo	5	Mayo	2023-05-20T00:00:00	2024-11-08T02:00:00	4	Temperatura máxima	20.3
172103	7	Sololá	712	San Antonio Palopó	9	San Antonio Palopo	5	Mayo	2023-05-20T00:00:00	2024-11-08T02:00:00	3	Temperatura mínima	19.8
172104	7	Sololá	712	San Antonio Palopó	9	San Antonio Palopo	5	Mayo	2023-05-20T00:00:00	2024-11-08T02:00:00	5	Humedad	64
172105	7	Sololá	712	San Antonio Palopó	9	San Antonio Palopo	5	Mayo	2023-05-20T00:00:00	2024-11-08T02:00:00	6	Velocidad del viento	6.4
172106	7	Sololá	712	San Antonio Palopó	9	San Antonio Palopo	5	Mayo	2023-05-20T00:00:00	2024-11-08T02:00:00	7	Dirección del viento	6.44
172107	7	Sololá	712	San Antonio Palopó	9	San Antonio Palopo	5	Mayo	2023-05-20T00:00:00	2024-11-08T02:00:00	1	Precipitación	0
172108	7	Sololá	712	San Antonio Palopó	9	San Antonio Palopo	5	Mayo	2023-05-20T00:00:00	2024-11-08T02:00:00	8	Radiación solar	0
172109	7	Sololá	712	San Antonio Palopó	9	San Antonio Palopo	5	Mayo	2023-05-20T00:00:00	2024-11-08T03:00:00	2	Temperatura media	20
172110	7	Sololá	712	San Antonio Palopó	9	San Antonio Palopo	5	Mayo	2023-05-20T00:00:00	2024-11-08T03:00:00	4	Temperatura máxima	20.2
172111	7	Sololá	712	San Antonio Palopó	9	San Antonio Palopo	5	Mayo	2023-05-20T00:00:00	2024-11-08T03:00:00	3	Temperatura mínima	19.9
172112	7	Sololá	712	San Antonio Palopó	9	San Antonio Palopo	5	Mayo	2023-05-20T00:00:00	2024-11-08T03:00:00	5	Humedad	62
172113	7	Sololá	712	San Antonio Palopó	9	San Antonio Palopo	5	Mayo	2023-05-20T00:00:00	2024-11-08T03:00:00	6	Velocidad del viento	6.4
172114	7	Sololá	712	San Antonio Palopó	9	San Antonio Palopo	5	Mayo	2023-05-20T00:00:00	2024-11-08T03:00:00	7	Dirección del viento	6.44
172115	7	Sololá	712	San Antonio Palopó	9	San Antonio Palopo	5	Mayo	2023-05-20T00:00:00	2024-11-08T03:00:00	1	Precipitación	0
172116	7	Sololá	712	San Antonio Palopó	9	San Antonio Palopo	5	Mayo	2023-05-20T00:00:00	2024-11-08T03:00:00	8	Radiación solar	0
172117	7	Sololá	712	San Antonio Palopó	9	San Antonio Palopo	5	Mayo	2023-05-20T00:00:00	2024-11-08T04:00:00	2	Temperatura media	19.6
172118	7	Sololá	712	San Antonio Palopó	9	San Antonio Palopo	5	Mayo	2023-05-20T00:00:00	2024-11-08T04:00:00	4	Temperatura máxima	20.1
172119	7	Sololá	712	San Antonio Palopó	9	San Antonio Palopo	5	Mayo	2023-05-20T00:00:00	2024-11-08T04:00:00	3	Temperatura mínima	19.6
172120	7	Sololá	712	San Antonio Palopó	9	San Antonio Palopo	5	Mayo	2023-05-20T00:00:00	2024-11-08T04:00:00	5	Humedad	65
172121	7	Sololá	712	San Antonio Palopó	9	San Antonio Palopo	5	Mayo	2023-05-20T00:00:00	2024-11-08T04:00:00	6	Velocidad del viento	4.8
172122	7	Sololá	712	San Antonio Palopó	9	San Antonio Palopo	5	Mayo	2023-05-20T00:00:00	2024-11-08T04:00:00	7	Dirección del viento	4.83
172123	7	Sololá	712	San Antonio Palopó	9	San Antonio Palopo	5	Mayo	2023-05-20T00:00:00	2024-11-08T04:00:00	1	Precipitación	0
172124	7	Sololá	712	San Antonio Palopó	9	San Antonio Palopo	5	Mayo	2023-05-20T00:00:00	2024-11-08T04:00:00	8	Radiación solar	0
172125	7	Sololá	712	San Antonio Palopó	9	San Antonio Palopo	5	Mayo	2023-05-20T00:00:00	2024-11-08T05:00:00	2	Temperatura media	20.3
172126	7	Sololá	712	San Antonio Palopó	9	San Antonio Palopo	5	Mayo	2023-05-20T00:00:00	2024-11-08T05:00:00	4	Temperatura máxima	20.3
172127	7	Sololá	712	San Antonio Palopó	9	San Antonio Palopo	5	Mayo	2023-05-20T00:00:00	2024-11-08T05:00:00	3	Temperatura mínima	19.6
172128	7	Sololá	712	San Antonio Palopó	9	San Antonio Palopo	5	Mayo	2023-05-20T00:00:00	2024-11-08T05:00:00	5	Humedad	61
172129	7	Sololá	712	San Antonio Palopó	9	San Antonio Palopo	5	Mayo	2023-05-20T00:00:00	2024-11-08T05:00:00	6	Velocidad del viento	4.8
172130	7	Sololá	712	San Antonio Palopó	9	San Antonio Palopo	5	Mayo	2023-05-20T00:00:00	2024-11-08T05:00:00	7	Dirección del viento	4.83
172131	7	Sololá	712	San Antonio Palopó	9	San Antonio Palopo	5	Mayo	2023-05-20T00:00:00	2024-11-08T05:00:00	1	Precipitación	0
172132	7	Sololá	712	San Antonio Palopó	9	San Antonio Palopo	5	Mayo	2023-05-20T00:00:00	2024-11-08T05:00:00	8	Radiación solar	0
172133	7	Sololá	712	San Antonio Palopó	9	San Antonio Palopo	5	Mayo	2023-05-20T00:00:00	2024-11-08T06:00:00	2	Temperatura media	20.2
172134	7	Sololá	712	San Antonio Palopó	9	San Antonio Palopo	5	Mayo	2023-05-20T00:00:00	2024-11-08T06:00:00	4	Temperatura máxima	20.3
172135	7	Sololá	712	San Antonio Palopó	9	San Antonio Palopo	5	Mayo	2023-05-20T00:00:00	2024-11-08T06:00:00	3	Temperatura mínima	19.9
172136	7	Sololá	712	San Antonio Palopó	9	San Antonio Palopo	5	Mayo	2023-05-20T00:00:00	2024-11-08T06:00:00	5	Humedad	55
172137	7	Sololá	712	San Antonio Palopó	9	San Antonio Palopo	5	Mayo	2023-05-20T00:00:00	2024-11-08T06:00:00	6	Velocidad del viento	6.4
172138	7	Sololá	712	San Antonio Palopó	9	San Antonio Palopo	5	Mayo	2023-05-20T00:00:00	2024-11-08T06:00:00	7	Dirección del viento	6.44
172139	7	Sololá	712	San Antonio Palopó	9	San Antonio Palopo	5	Mayo	2023-05-20T00:00:00	2024-11-08T06:00:00	1	Precipitación	0
172140	7	Sololá	712	San Antonio Palopó	9	San Antonio Palopo	5	Mayo	2023-05-20T00:00:00	2024-11-08T06:00:00	8	Radiación solar	5
172141	7	Sololá	712	San Antonio Palopó	9	San Antonio Palopo	5	Mayo	2023-05-20T00:00:00	2024-11-08T07:00:00	2	Temperatura media	21.1
172142	7	Sololá	712	San Antonio Palopó	9	San Antonio Palopo	5	Mayo	2023-05-20T00:00:00	2024-11-08T07:00:00	4	Temperatura máxima	21.1
172143	7	Sololá	712	San Antonio Palopó	9	San Antonio Palopo	5	Mayo	2023-05-20T00:00:00	2024-11-08T07:00:00	3	Temperatura mínima	20.2
172144	7	Sololá	712	San Antonio Palopó	9	San Antonio Palopo	5	Mayo	2023-05-20T00:00:00	2024-11-08T07:00:00	5	Humedad	54
172145	7	Sololá	712	San Antonio Palopó	9	San Antonio Palopo	5	Mayo	2023-05-20T00:00:00	2024-11-08T07:00:00	6	Velocidad del viento	6.4
172146	7	Sololá	712	San Antonio Palopó	9	San Antonio Palopo	5	Mayo	2023-05-20T00:00:00	2024-11-08T07:00:00	7	Dirección del viento	6.44
172147	7	Sololá	712	San Antonio Palopó	9	San Antonio Palopo	5	Mayo	2023-05-20T00:00:00	2024-11-08T07:00:00	1	Precipitación	0
172148	7	Sololá	712	San Antonio Palopó	9	San Antonio Palopo	5	Mayo	2023-05-20T00:00:00	2024-11-08T07:00:00	8	Radiación solar	68
172149	7	Sololá	712	San Antonio Palopó	9	San Antonio Palopo	5	Mayo	2023-05-20T00:00:00	2024-11-08T08:00:00	2	Temperatura media	22.4
172150	7	Sololá	712	San Antonio Palopó	9	San Antonio Palopo	5	Mayo	2023-05-20T00:00:00	2024-11-08T08:00:00	4	Temperatura máxima	22.5
172151	7	Sololá	712	San Antonio Palopó	9	San Antonio Palopo	5	Mayo	2023-05-20T00:00:00	2024-11-08T08:00:00	3	Temperatura mínima	20.7
172152	7	Sololá	712	San Antonio Palopó	9	San Antonio Palopo	5	Mayo	2023-05-20T00:00:00	2024-11-08T08:00:00	5	Humedad	54
172153	7	Sololá	712	San Antonio Palopó	9	San Antonio Palopo	5	Mayo	2023-05-20T00:00:00	2024-11-08T08:00:00	6	Velocidad del viento	4.8
172154	7	Sololá	712	San Antonio Palopó	9	San Antonio Palopo	5	Mayo	2023-05-20T00:00:00	2024-11-08T08:00:00	7	Dirección del viento	4.83
172155	7	Sololá	712	San Antonio Palopó	9	San Antonio Palopo	5	Mayo	2023-05-20T00:00:00	2024-11-08T08:00:00	1	Precipitación	0
172156	7	Sololá	712	San Antonio Palopó	9	San Antonio Palopo	5	Mayo	2023-05-20T00:00:00	2024-11-08T08:00:00	8	Radiación solar	227
172157	7	Sololá	712	San Antonio Palopó	9	San Antonio Palopo	5	Mayo	2023-05-20T00:00:00	2024-11-08T09:00:00	2	Temperatura media	23.8
172158	7	Sololá	712	San Antonio Palopó	9	San Antonio Palopo	5	Mayo	2023-05-20T00:00:00	2024-11-08T09:00:00	4	Temperatura máxima	24.1
172159	7	Sololá	712	San Antonio Palopó	9	San Antonio Palopo	5	Mayo	2023-05-20T00:00:00	2024-11-08T09:00:00	3	Temperatura mínima	22.3
172160	7	Sololá	712	San Antonio Palopó	9	San Antonio Palopo	5	Mayo	2023-05-20T00:00:00	2024-11-08T09:00:00	5	Humedad	48
172161	7	Sololá	712	San Antonio Palopó	9	San Antonio Palopo	5	Mayo	2023-05-20T00:00:00	2024-11-08T09:00:00	6	Velocidad del viento	1.6
172162	7	Sololá	712	San Antonio Palopó	9	San Antonio Palopo	5	Mayo	2023-05-20T00:00:00	2024-11-08T09:00:00	7	Dirección del viento	1.61
172163	7	Sololá	712	San Antonio Palopó	9	San Antonio Palopo	5	Mayo	2023-05-20T00:00:00	2024-11-08T09:00:00	1	Precipitación	0
172164	7	Sololá	712	San Antonio Palopó	9	San Antonio Palopo	5	Mayo	2023-05-20T00:00:00	2024-11-08T09:00:00	8	Radiación solar	534
172165	7	Sololá	712	San Antonio Palopó	9	San Antonio Palopo	5	Mayo	2023-05-20T00:00:00	2024-11-08T10:00:00	2	Temperatura media	25.2
172166	7	Sololá	712	San Antonio Palopó	9	San Antonio Palopo	5	Mayo	2023-05-20T00:00:00	2024-11-08T10:00:00	4	Temperatura máxima	25.2
172167	7	Sololá	712	San Antonio Palopó	9	San Antonio Palopo	5	Mayo	2023-05-20T00:00:00	2024-11-08T10:00:00	3	Temperatura mínima	23.8
172168	7	Sololá	712	San Antonio Palopó	9	San Antonio Palopo	5	Mayo	2023-05-20T00:00:00	2024-11-08T10:00:00	5	Humedad	49
172169	7	Sololá	712	San Antonio Palopó	9	San Antonio Palopo	5	Mayo	2023-05-20T00:00:00	2024-11-08T10:00:00	6	Velocidad del viento	3.2
172170	7	Sololá	712	San Antonio Palopó	9	San Antonio Palopo	5	Mayo	2023-05-20T00:00:00	2024-11-08T10:00:00	7	Dirección del viento	3.22
172171	7	Sololá	712	San Antonio Palopó	9	San Antonio Palopo	5	Mayo	2023-05-20T00:00:00	2024-11-08T10:00:00	1	Precipitación	0
172172	7	Sololá	712	San Antonio Palopó	9	San Antonio Palopo	5	Mayo	2023-05-20T00:00:00	2024-11-08T10:00:00	8	Radiación solar	726
172173	7	Sololá	712	San Antonio Palopó	9	San Antonio Palopo	5	Mayo	2023-05-20T00:00:00	2024-11-08T11:00:00	2	Temperatura media	26.5
172174	7	Sololá	712	San Antonio Palopó	9	San Antonio Palopo	5	Mayo	2023-05-20T00:00:00	2024-11-08T11:00:00	4	Temperatura máxima	26.6
172175	7	Sololá	712	San Antonio Palopó	9	San Antonio Palopo	5	Mayo	2023-05-20T00:00:00	2024-11-08T11:00:00	3	Temperatura mínima	25.2
172176	7	Sololá	712	San Antonio Palopó	9	San Antonio Palopo	5	Mayo	2023-05-20T00:00:00	2024-11-08T11:00:00	5	Humedad	50
172177	7	Sololá	712	San Antonio Palopó	9	San Antonio Palopo	5	Mayo	2023-05-20T00:00:00	2024-11-08T11:00:00	6	Velocidad del viento	3.2
172178	7	Sololá	712	San Antonio Palopó	9	San Antonio Palopo	5	Mayo	2023-05-20T00:00:00	2024-11-08T11:00:00	7	Dirección del viento	3.22
172179	7	Sololá	712	San Antonio Palopó	9	San Antonio Palopo	5	Mayo	2023-05-20T00:00:00	2024-11-08T11:00:00	1	Precipitación	0
172180	7	Sololá	712	San Antonio Palopó	9	San Antonio Palopo	5	Mayo	2023-05-20T00:00:00	2024-11-08T11:00:00	8	Radiación solar	797
172181	7	Sololá	712	San Antonio Palopó	9	San Antonio Palopo	5	Mayo	2023-05-20T00:00:00	2024-11-08T12:00:00	2	Temperatura media	27.3
172182	7	Sololá	712	San Antonio Palopó	9	San Antonio Palopo	5	Mayo	2023-05-20T00:00:00	2024-11-08T12:00:00	4	Temperatura máxima	27.3
172183	7	Sololá	712	San Antonio Palopó	9	San Antonio Palopo	5	Mayo	2023-05-20T00:00:00	2024-11-08T12:00:00	3	Temperatura mínima	25.7
172184	7	Sololá	712	San Antonio Palopó	9	San Antonio Palopo	5	Mayo	2023-05-20T00:00:00	2024-11-08T12:00:00	5	Humedad	44
172185	7	Sololá	712	San Antonio Palopó	9	San Antonio Palopo	5	Mayo	2023-05-20T00:00:00	2024-11-08T12:00:00	6	Velocidad del viento	4.8
172186	7	Sololá	712	San Antonio Palopó	9	San Antonio Palopo	5	Mayo	2023-05-20T00:00:00	2024-11-08T12:00:00	7	Dirección del viento	4.83
172187	7	Sololá	712	San Antonio Palopó	9	San Antonio Palopo	5	Mayo	2023-05-20T00:00:00	2024-11-08T12:00:00	1	Precipitación	0
172188	7	Sololá	712	San Antonio Palopó	9	San Antonio Palopo	5	Mayo	2023-05-20T00:00:00	2024-11-08T12:00:00	8	Radiación solar	880
172189	7	Sololá	712	San Antonio Palopó	9	San Antonio Palopo	5	Mayo	2023-05-20T00:00:00	2024-11-08T13:00:00	2	Temperatura media	27.6
172190	7	Sololá	712	San Antonio Palopó	9	San Antonio Palopo	5	Mayo	2023-05-20T00:00:00	2024-11-08T13:00:00	4	Temperatura máxima	28
172191	7	Sololá	712	San Antonio Palopó	9	San Antonio Palopo	5	Mayo	2023-05-20T00:00:00	2024-11-08T13:00:00	3	Temperatura mínima	26.8
172192	7	Sololá	712	San Antonio Palopó	9	San Antonio Palopo	5	Mayo	2023-05-20T00:00:00	2024-11-08T13:00:00	5	Humedad	48
172193	7	Sololá	712	San Antonio Palopó	9	San Antonio Palopo	5	Mayo	2023-05-20T00:00:00	2024-11-08T13:00:00	6	Velocidad del viento	8
172194	7	Sololá	712	San Antonio Palopó	9	San Antonio Palopo	5	Mayo	2023-05-20T00:00:00	2024-11-08T13:00:00	7	Dirección del viento	8.05
172195	7	Sololá	712	San Antonio Palopó	9	San Antonio Palopo	5	Mayo	2023-05-20T00:00:00	2024-11-08T13:00:00	1	Precipitación	0
172196	7	Sololá	712	San Antonio Palopó	9	San Antonio Palopo	5	Mayo	2023-05-20T00:00:00	2024-11-08T13:00:00	8	Radiación solar	939
172197	7	Sololá	712	San Antonio Palopó	9	San Antonio Palopo	5	Mayo	2023-05-20T00:00:00	2024-11-08T14:00:00	2	Temperatura media	27.4
172198	7	Sololá	712	San Antonio Palopó	9	San Antonio Palopo	5	Mayo	2023-05-20T00:00:00	2024-11-08T14:00:00	4	Temperatura máxima	27.6
172199	7	Sololá	712	San Antonio Palopó	9	San Antonio Palopo	5	Mayo	2023-05-20T00:00:00	2024-11-08T14:00:00	3	Temperatura mínima	26.7
172200	7	Sololá	712	San Antonio Palopó	9	San Antonio Palopo	5	Mayo	2023-05-20T00:00:00	2024-11-08T14:00:00	5	Humedad	61
172201	7	Sololá	712	San Antonio Palopó	9	San Antonio Palopo	5	Mayo	2023-05-20T00:00:00	2024-11-08T14:00:00	6	Velocidad del viento	8
172202	7	Sololá	712	San Antonio Palopó	9	San Antonio Palopo	5	Mayo	2023-05-20T00:00:00	2024-11-08T14:00:00	7	Dirección del viento	8.05
172203	7	Sololá	712	San Antonio Palopó	9	San Antonio Palopo	5	Mayo	2023-05-20T00:00:00	2024-11-08T14:00:00	1	Precipitación	0
172204	7	Sololá	712	San Antonio Palopó	9	San Antonio Palopo	5	Mayo	2023-05-20T00:00:00	2024-11-08T14:00:00	8	Radiación solar	868
172205	7	Sololá	712	San Antonio Palopó	9	San Antonio Palopo	5	Mayo	2023-05-20T00:00:00	2024-11-08T15:00:00	2	Temperatura media	26.7
172206	7	Sololá	712	San Antonio Palopó	9	San Antonio Palopo	5	Mayo	2023-05-20T00:00:00	2024-11-08T15:00:00	4	Temperatura máxima	27.4
172207	7	Sololá	712	San Antonio Palopó	9	San Antonio Palopo	5	Mayo	2023-05-20T00:00:00	2024-11-08T15:00:00	3	Temperatura mínima	26.1
172208	7	Sololá	712	San Antonio Palopó	9	San Antonio Palopo	5	Mayo	2023-05-20T00:00:00	2024-11-08T15:00:00	5	Humedad	59
172209	7	Sololá	712	San Antonio Palopó	9	San Antonio Palopo	5	Mayo	2023-05-20T00:00:00	2024-11-08T15:00:00	6	Velocidad del viento	9.7
172210	7	Sololá	712	San Antonio Palopó	9	San Antonio Palopo	5	Mayo	2023-05-20T00:00:00	2024-11-08T15:00:00	7	Dirección del viento	9.66
172211	7	Sololá	712	San Antonio Palopó	9	San Antonio Palopo	5	Mayo	2023-05-20T00:00:00	2024-11-08T15:00:00	1	Precipitación	0
172212	7	Sololá	712	San Antonio Palopó	9	San Antonio Palopo	5	Mayo	2023-05-20T00:00:00	2024-11-08T15:00:00	8	Radiación solar	726
172213	7	Sololá	712	San Antonio Palopó	9	San Antonio Palopo	5	Mayo	2023-05-20T00:00:00	2024-11-08T16:00:00	2	Temperatura media	25.2
172214	7	Sololá	712	San Antonio Palopó	9	San Antonio Palopo	5	Mayo	2023-05-20T00:00:00	2024-11-08T16:00:00	4	Temperatura máxima	27
172215	7	Sololá	712	San Antonio Palopó	9	San Antonio Palopo	5	Mayo	2023-05-20T00:00:00	2024-11-08T16:00:00	3	Temperatura mínima	24.7
172216	7	Sololá	712	San Antonio Palopó	9	San Antonio Palopo	5	Mayo	2023-05-20T00:00:00	2024-11-08T16:00:00	5	Humedad	67
172217	7	Sololá	712	San Antonio Palopó	9	San Antonio Palopo	5	Mayo	2023-05-20T00:00:00	2024-11-08T16:00:00	6	Velocidad del viento	9.7
172218	7	Sololá	712	San Antonio Palopó	9	San Antonio Palopo	5	Mayo	2023-05-20T00:00:00	2024-11-08T16:00:00	7	Dirección del viento	9.66
172219	7	Sololá	712	San Antonio Palopó	9	San Antonio Palopo	5	Mayo	2023-05-20T00:00:00	2024-11-08T16:00:00	1	Precipitación	0
172220	7	Sololá	712	San Antonio Palopó	9	San Antonio Palopo	5	Mayo	2023-05-20T00:00:00	2024-11-08T16:00:00	8	Radiación solar	479
172221	7	Sololá	712	San Antonio Palopó	9	San Antonio Palopo	5	Mayo	2023-05-20T00:00:00	2024-11-08T17:00:00	2	Temperatura media	25.9
172222	7	Sololá	712	San Antonio Palopó	9	San Antonio Palopo	5	Mayo	2023-05-20T00:00:00	2024-11-08T17:00:00	4	Temperatura máxima	26.1
172223	7	Sololá	712	San Antonio Palopó	9	San Antonio Palopo	5	Mayo	2023-05-20T00:00:00	2024-11-08T17:00:00	3	Temperatura mínima	25.1
172224	7	Sololá	712	San Antonio Palopó	9	San Antonio Palopo	5	Mayo	2023-05-20T00:00:00	2024-11-08T17:00:00	5	Humedad	63
172225	7	Sololá	712	San Antonio Palopó	9	San Antonio Palopo	5	Mayo	2023-05-20T00:00:00	2024-11-08T17:00:00	6	Velocidad del viento	9.7
172226	7	Sololá	712	San Antonio Palopó	9	San Antonio Palopo	5	Mayo	2023-05-20T00:00:00	2024-11-08T17:00:00	7	Dirección del viento	9.66
172227	7	Sololá	712	San Antonio Palopó	9	San Antonio Palopo	5	Mayo	2023-05-20T00:00:00	2024-11-08T17:00:00	1	Precipitación	0
172228	7	Sololá	712	San Antonio Palopó	9	San Antonio Palopo	5	Mayo	2023-05-20T00:00:00	2024-11-08T17:00:00	8	Radiación solar	389
172229	7	Sololá	712	San Antonio Palopó	9	San Antonio Palopo	5	Mayo	2023-05-20T00:00:00	2024-11-08T18:00:00	2	Temperatura media	24.4
172230	7	Sololá	712	San Antonio Palopó	9	San Antonio Palopo	5	Mayo	2023-05-20T00:00:00	2024-11-08T18:00:00	4	Temperatura máxima	26.3
172231	7	Sololá	712	San Antonio Palopó	9	San Antonio Palopo	5	Mayo	2023-05-20T00:00:00	2024-11-08T18:00:00	3	Temperatura mínima	23.8
172232	7	Sololá	712	San Antonio Palopó	9	San Antonio Palopo	5	Mayo	2023-05-20T00:00:00	2024-11-08T18:00:00	5	Humedad	69
172233	7	Sololá	712	San Antonio Palopó	9	San Antonio Palopo	5	Mayo	2023-05-20T00:00:00	2024-11-08T18:00:00	6	Velocidad del viento	8
172234	7	Sololá	712	San Antonio Palopó	9	San Antonio Palopo	5	Mayo	2023-05-20T00:00:00	2024-11-08T18:00:00	7	Dirección del viento	8.05
172235	7	Sololá	712	San Antonio Palopó	9	San Antonio Palopo	5	Mayo	2023-05-20T00:00:00	2024-11-08T18:00:00	1	Precipitación	0
172236	7	Sololá	712	San Antonio Palopó	9	San Antonio Palopo	5	Mayo	2023-05-20T00:00:00	2024-11-08T18:00:00	8	Radiación solar	110
172237	7	Sololá	712	San Antonio Palopó	9	San Antonio Palopo	5	Mayo	2023-05-20T00:00:00	2024-11-08T19:00:00	2	Temperatura media	24.1
172238	7	Sololá	712	San Antonio Palopó	9	San Antonio Palopo	5	Mayo	2023-05-20T00:00:00	2024-11-08T19:00:00	4	Temperatura máxima	24.6
172239	7	Sololá	712	San Antonio Palopó	9	San Antonio Palopo	5	Mayo	2023-05-20T00:00:00	2024-11-08T19:00:00	3	Temperatura mínima	23.8
172240	7	Sololá	712	San Antonio Palopó	9	San Antonio Palopo	5	Mayo	2023-05-20T00:00:00	2024-11-08T19:00:00	5	Humedad	55
172241	7	Sololá	712	San Antonio Palopó	9	San Antonio Palopo	5	Mayo	2023-05-20T00:00:00	2024-11-08T19:00:00	6	Velocidad del viento	4.8
172242	7	Sololá	712	San Antonio Palopó	9	San Antonio Palopo	5	Mayo	2023-05-20T00:00:00	2024-11-08T19:00:00	7	Dirección del viento	4.83
172243	7	Sololá	712	San Antonio Palopó	9	San Antonio Palopo	5	Mayo	2023-05-20T00:00:00	2024-11-08T19:00:00	1	Precipitación	0
172244	7	Sololá	712	San Antonio Palopó	9	San Antonio Palopo	5	Mayo	2023-05-20T00:00:00	2024-11-08T19:00:00	8	Radiación solar	0
172245	7	Sololá	712	San Antonio Palopó	9	San Antonio Palopo	5	Mayo	2023-05-20T00:00:00	2024-11-08T20:00:00	2	Temperatura media	23.1
172246	7	Sololá	712	San Antonio Palopó	9	San Antonio Palopo	5	Mayo	2023-05-20T00:00:00	2024-11-08T20:00:00	4	Temperatura máxima	24.1
172247	7	Sololá	712	San Antonio Palopó	9	San Antonio Palopo	5	Mayo	2023-05-20T00:00:00	2024-11-08T20:00:00	3	Temperatura mínima	23.1
172248	7	Sololá	712	San Antonio Palopó	9	San Antonio Palopo	5	Mayo	2023-05-20T00:00:00	2024-11-08T20:00:00	5	Humedad	60
172249	7	Sololá	712	San Antonio Palopó	9	San Antonio Palopo	5	Mayo	2023-05-20T00:00:00	2024-11-08T20:00:00	6	Velocidad del viento	3.2
172250	7	Sololá	712	San Antonio Palopó	9	San Antonio Palopo	5	Mayo	2023-05-20T00:00:00	2024-11-08T20:00:00	7	Dirección del viento	3.22
172251	7	Sololá	712	San Antonio Palopó	9	San Antonio Palopo	5	Mayo	2023-05-20T00:00:00	2024-11-08T20:00:00	1	Precipitación	0
172252	7	Sololá	712	San Antonio Palopó	9	San Antonio Palopo	5	Mayo	2023-05-20T00:00:00	2024-11-08T20:00:00	8	Radiación solar	0
172253	7	Sololá	712	San Antonio Palopó	9	San Antonio Palopo	5	Mayo	2023-05-20T00:00:00	2024-11-08T21:00:00	2	Temperatura media	22.1
172254	7	Sololá	712	San Antonio Palopó	9	San Antonio Palopo	5	Mayo	2023-05-20T00:00:00	2024-11-08T21:00:00	4	Temperatura máxima	23.1
172255	7	Sololá	712	San Antonio Palopó	9	San Antonio Palopo	5	Mayo	2023-05-20T00:00:00	2024-11-08T21:00:00	3	Temperatura mínima	22
172256	7	Sololá	712	San Antonio Palopó	9	San Antonio Palopo	5	Mayo	2023-05-20T00:00:00	2024-11-08T21:00:00	5	Humedad	62
172257	7	Sololá	712	San Antonio Palopó	9	San Antonio Palopo	5	Mayo	2023-05-20T00:00:00	2024-11-08T21:00:00	6	Velocidad del viento	3.2
172258	7	Sololá	712	San Antonio Palopó	9	San Antonio Palopo	5	Mayo	2023-05-20T00:00:00	2024-11-08T21:00:00	7	Dirección del viento	3.22
172259	7	Sololá	712	San Antonio Palopó	9	San Antonio Palopo	5	Mayo	2023-05-20T00:00:00	2024-11-08T21:00:00	1	Precipitación	0
172260	7	Sololá	712	San Antonio Palopó	9	San Antonio Palopo	5	Mayo	2023-05-20T00:00:00	2024-11-08T21:00:00	8	Radiación solar	0
172261	7	Sololá	712	San Antonio Palopó	9	San Antonio Palopo	5	Mayo	2023-05-20T00:00:00	2024-11-08T22:00:00	2	Temperatura media	21.4
172262	7	Sololá	712	San Antonio Palopó	9	San Antonio Palopo	5	Mayo	2023-05-20T00:00:00	2024-11-08T22:00:00	4	Temperatura máxima	22.1
172263	7	Sololá	712	San Antonio Palopó	9	San Antonio Palopo	5	Mayo	2023-05-20T00:00:00	2024-11-08T22:00:00	3	Temperatura mínima	21.4
172264	7	Sololá	712	San Antonio Palopó	9	San Antonio Palopo	5	Mayo	2023-05-20T00:00:00	2024-11-08T22:00:00	5	Humedad	63
172265	7	Sololá	712	San Antonio Palopó	9	San Antonio Palopo	5	Mayo	2023-05-20T00:00:00	2024-11-08T22:00:00	6	Velocidad del viento	6.4
172266	7	Sololá	712	San Antonio Palopó	9	San Antonio Palopo	5	Mayo	2023-05-20T00:00:00	2024-11-08T22:00:00	7	Dirección del viento	6.44
172267	7	Sololá	712	San Antonio Palopó	9	San Antonio Palopo	5	Mayo	2023-05-20T00:00:00	2024-11-08T22:00:00	1	Precipitación	0
172268	7	Sololá	712	San Antonio Palopó	9	San Antonio Palopo	5	Mayo	2023-05-20T00:00:00	2024-11-08T22:00:00	8	Radiación solar	0
172269	7	Sololá	712	San Antonio Palopó	9	San Antonio Palopo	5	Mayo	2023-05-20T00:00:00	2024-11-08T23:00:00	2	Temperatura media	20.8
172270	7	Sololá	712	San Antonio Palopó	9	San Antonio Palopo	5	Mayo	2023-05-20T00:00:00	2024-11-08T23:00:00	4	Temperatura máxima	21.5
172271	7	Sololá	712	San Antonio Palopó	9	San Antonio Palopo	5	Mayo	2023-05-20T00:00:00	2024-11-08T23:00:00	3	Temperatura mínima	20.8
172272	7	Sololá	712	San Antonio Palopó	9	San Antonio Palopo	5	Mayo	2023-05-20T00:00:00	2024-11-08T23:00:00	5	Humedad	63
172273	7	Sololá	712	San Antonio Palopó	9	San Antonio Palopo	5	Mayo	2023-05-20T00:00:00	2024-11-08T23:00:00	6	Velocidad del viento	4.8
172274	7	Sololá	712	San Antonio Palopó	9	San Antonio Palopo	5	Mayo	2023-05-20T00:00:00	2024-11-08T23:00:00	7	Dirección del viento	4.83
172275	7	Sololá	712	San Antonio Palopó	9	San Antonio Palopo	5	Mayo	2023-05-20T00:00:00	2024-11-08T23:00:00	1	Precipitación	0
172276	7	Sololá	712	San Antonio Palopó	9	San Antonio Palopo	5	Mayo	2023-05-20T00:00:00	2024-11-08T23:00:00	8	Radiación solar	0
172277	7	Sololá	712	San Antonio Palopó	9	San Antonio Palopo	5	Mayo	2023-05-21T00:00:00	2024-11-08T00:00:00	2	Temperatura media	20.8
172278	7	Sololá	712	San Antonio Palopó	9	San Antonio Palopo	5	Mayo	2023-05-21T00:00:00	2024-11-08T00:00:00	4	Temperatura máxima	21.2
172279	7	Sololá	712	San Antonio Palopó	9	San Antonio Palopo	5	Mayo	2023-05-21T00:00:00	2024-11-08T00:00:00	3	Temperatura mínima	20.8
172280	7	Sololá	712	San Antonio Palopó	9	San Antonio Palopo	5	Mayo	2023-05-21T00:00:00	2024-11-08T00:00:00	5	Humedad	63
172281	7	Sololá	712	San Antonio Palopó	9	San Antonio Palopo	5	Mayo	2023-05-21T00:00:00	2024-11-08T00:00:00	6	Velocidad del viento	6.4
172282	7	Sololá	712	San Antonio Palopó	9	San Antonio Palopo	5	Mayo	2023-05-21T00:00:00	2024-11-08T00:00:00	7	Dirección del viento	6.44
172283	7	Sololá	712	San Antonio Palopó	9	San Antonio Palopo	5	Mayo	2023-05-21T00:00:00	2024-11-08T00:00:00	1	Precipitación	0
172284	7	Sololá	712	San Antonio Palopó	9	San Antonio Palopo	5	Mayo	2023-05-21T00:00:00	2024-11-08T00:00:00	8	Radiación solar	0
172285	7	Sololá	712	San Antonio Palopó	9	San Antonio Palopo	5	Mayo	2023-05-21T00:00:00	2024-11-08T01:00:00	2	Temperatura media	20.2
172286	7	Sololá	712	San Antonio Palopó	9	San Antonio Palopo	5	Mayo	2023-05-21T00:00:00	2024-11-08T01:00:00	4	Temperatura máxima	20.7
172287	7	Sololá	712	San Antonio Palopó	9	San Antonio Palopo	5	Mayo	2023-05-21T00:00:00	2024-11-08T01:00:00	3	Temperatura mínima	20.1
172288	7	Sololá	712	San Antonio Palopó	9	San Antonio Palopo	5	Mayo	2023-05-21T00:00:00	2024-11-08T01:00:00	5	Humedad	65
172289	7	Sololá	712	San Antonio Palopó	9	San Antonio Palopo	5	Mayo	2023-05-21T00:00:00	2024-11-08T01:00:00	6	Velocidad del viento	4.8
172290	7	Sololá	712	San Antonio Palopó	9	San Antonio Palopo	5	Mayo	2023-05-21T00:00:00	2024-11-08T01:00:00	7	Dirección del viento	4.83
172291	7	Sololá	712	San Antonio Palopó	9	San Antonio Palopo	5	Mayo	2023-05-21T00:00:00	2024-11-08T01:00:00	1	Precipitación	0
172292	7	Sololá	712	San Antonio Palopó	9	San Antonio Palopo	5	Mayo	2023-05-21T00:00:00	2024-11-08T01:00:00	8	Radiación solar	0
172293	7	Sololá	712	San Antonio Palopó	9	San Antonio Palopo	5	Mayo	2023-05-21T00:00:00	2024-11-08T02:00:00	2	Temperatura media	20
172294	7	Sololá	712	San Antonio Palopó	9	San Antonio Palopo	5	Mayo	2023-05-21T00:00:00	2024-11-08T02:00:00	4	Temperatura máxima	20.4
172295	7	Sololá	712	San Antonio Palopó	9	San Antonio Palopo	5	Mayo	2023-05-21T00:00:00	2024-11-08T02:00:00	3	Temperatura mínima	19.6
172296	7	Sololá	712	San Antonio Palopó	9	San Antonio Palopo	5	Mayo	2023-05-21T00:00:00	2024-11-08T02:00:00	5	Humedad	66
172297	7	Sololá	712	San Antonio Palopó	9	San Antonio Palopo	5	Mayo	2023-05-21T00:00:00	2024-11-08T02:00:00	6	Velocidad del viento	6.4
172298	7	Sololá	712	San Antonio Palopó	9	San Antonio Palopo	5	Mayo	2023-05-21T00:00:00	2024-11-08T02:00:00	7	Dirección del viento	6.44
172299	7	Sololá	712	San Antonio Palopó	9	San Antonio Palopo	5	Mayo	2023-05-21T00:00:00	2024-11-08T02:00:00	1	Precipitación	0
172300	7	Sololá	712	San Antonio Palopó	9	San Antonio Palopo	5	Mayo	2023-05-21T00:00:00	2024-11-08T02:00:00	8	Radiación solar	0
172301	7	Sololá	712	San Antonio Palopó	9	San Antonio Palopo	5	Mayo	2023-05-21T00:00:00	2024-11-08T03:00:00	2	Temperatura media	20.6
172302	7	Sololá	712	San Antonio Palopó	9	San Antonio Palopo	5	Mayo	2023-05-21T00:00:00	2024-11-08T03:00:00	4	Temperatura máxima	20.7
172303	7	Sololá	712	San Antonio Palopó	9	San Antonio Palopo	5	Mayo	2023-05-21T00:00:00	2024-11-08T03:00:00	3	Temperatura mínima	19.9
172304	7	Sololá	712	San Antonio Palopó	9	San Antonio Palopo	5	Mayo	2023-05-21T00:00:00	2024-11-08T03:00:00	5	Humedad	63
172305	7	Sololá	712	San Antonio Palopó	9	San Antonio Palopo	5	Mayo	2023-05-21T00:00:00	2024-11-08T03:00:00	6	Velocidad del viento	9.7
172306	7	Sololá	712	San Antonio Palopó	9	San Antonio Palopo	5	Mayo	2023-05-21T00:00:00	2024-11-08T03:00:00	7	Dirección del viento	9.66
172307	7	Sololá	712	San Antonio Palopó	9	San Antonio Palopo	5	Mayo	2023-05-21T00:00:00	2024-11-08T03:00:00	1	Precipitación	0
172308	7	Sololá	712	San Antonio Palopó	9	San Antonio Palopo	5	Mayo	2023-05-21T00:00:00	2024-11-08T03:00:00	8	Radiación solar	0
172309	7	Sololá	712	San Antonio Palopó	9	San Antonio Palopo	5	Mayo	2023-05-21T00:00:00	2024-11-08T04:00:00	2	Temperatura media	20.3
172310	7	Sololá	712	San Antonio Palopó	9	San Antonio Palopo	5	Mayo	2023-05-21T00:00:00	2024-11-08T04:00:00	4	Temperatura máxima	20.6
172311	7	Sololá	712	San Antonio Palopó	9	San Antonio Palopo	5	Mayo	2023-05-21T00:00:00	2024-11-08T04:00:00	3	Temperatura mínima	20.2
172312	7	Sololá	712	San Antonio Palopó	9	San Antonio Palopo	5	Mayo	2023-05-21T00:00:00	2024-11-08T04:00:00	5	Humedad	64
172313	7	Sololá	712	San Antonio Palopó	9	San Antonio Palopo	5	Mayo	2023-05-21T00:00:00	2024-11-08T04:00:00	6	Velocidad del viento	3.2
172314	7	Sololá	712	San Antonio Palopó	9	San Antonio Palopo	5	Mayo	2023-05-21T00:00:00	2024-11-08T04:00:00	7	Dirección del viento	3.22
172315	7	Sololá	712	San Antonio Palopó	9	San Antonio Palopo	5	Mayo	2023-05-21T00:00:00	2024-11-08T04:00:00	1	Precipitación	0
172316	7	Sololá	712	San Antonio Palopó	9	San Antonio Palopo	5	Mayo	2023-05-21T00:00:00	2024-11-08T04:00:00	8	Radiación solar	0
172317	7	Sololá	712	San Antonio Palopó	9	San Antonio Palopo	5	Mayo	2023-05-21T00:00:00	2024-11-08T05:00:00	2	Temperatura media	20.1
172318	7	Sololá	712	San Antonio Palopó	9	San Antonio Palopo	5	Mayo	2023-05-21T00:00:00	2024-11-08T05:00:00	4	Temperatura máxima	20.3
172319	7	Sololá	712	San Antonio Palopó	9	San Antonio Palopo	5	Mayo	2023-05-21T00:00:00	2024-11-08T05:00:00	3	Temperatura mínima	19.8
172320	7	Sololá	712	San Antonio Palopó	9	San Antonio Palopo	5	Mayo	2023-05-21T00:00:00	2024-11-08T05:00:00	5	Humedad	65
172321	7	Sololá	712	San Antonio Palopó	9	San Antonio Palopo	5	Mayo	2023-05-21T00:00:00	2024-11-08T05:00:00	6	Velocidad del viento	8
172322	7	Sololá	712	San Antonio Palopó	9	San Antonio Palopo	5	Mayo	2023-05-21T00:00:00	2024-11-08T05:00:00	7	Dirección del viento	8.05
172323	7	Sololá	712	San Antonio Palopó	9	San Antonio Palopo	5	Mayo	2023-05-21T00:00:00	2024-11-08T05:00:00	1	Precipitación	0
172324	7	Sololá	712	San Antonio Palopó	9	San Antonio Palopo	5	Mayo	2023-05-21T00:00:00	2024-11-08T05:00:00	8	Radiación solar	0
172325	7	Sololá	712	San Antonio Palopó	9	San Antonio Palopo	5	Mayo	2023-05-21T00:00:00	2024-11-08T06:00:00	2	Temperatura media	20.7
172326	7	Sololá	712	San Antonio Palopó	9	San Antonio Palopo	5	Mayo	2023-05-21T00:00:00	2024-11-08T06:00:00	4	Temperatura máxima	20.7
172327	7	Sololá	712	San Antonio Palopó	9	San Antonio Palopo	5	Mayo	2023-05-21T00:00:00	2024-11-08T06:00:00	3	Temperatura mínima	20.1
172328	7	Sololá	712	San Antonio Palopó	9	San Antonio Palopo	5	Mayo	2023-05-21T00:00:00	2024-11-08T06:00:00	5	Humedad	64
172329	7	Sololá	712	San Antonio Palopó	9	San Antonio Palopo	5	Mayo	2023-05-21T00:00:00	2024-11-08T06:00:00	6	Velocidad del viento	9.7
172330	7	Sololá	712	San Antonio Palopó	9	San Antonio Palopo	5	Mayo	2023-05-21T00:00:00	2024-11-08T06:00:00	7	Dirección del viento	9.66
172331	7	Sololá	712	San Antonio Palopó	9	San Antonio Palopo	5	Mayo	2023-05-21T00:00:00	2024-11-08T06:00:00	1	Precipitación	0
172332	7	Sololá	712	San Antonio Palopó	9	San Antonio Palopo	5	Mayo	2023-05-21T00:00:00	2024-11-08T06:00:00	8	Radiación solar	0
172333	7	Sololá	712	San Antonio Palopó	9	San Antonio Palopo	5	Mayo	2023-05-21T00:00:00	2024-11-08T07:00:00	2	Temperatura media	20.8
172334	7	Sololá	712	San Antonio Palopó	9	San Antonio Palopo	5	Mayo	2023-05-21T00:00:00	2024-11-08T07:00:00	4	Temperatura máxima	20.9
172335	7	Sololá	712	San Antonio Palopó	9	San Antonio Palopo	5	Mayo	2023-05-21T00:00:00	2024-11-08T07:00:00	3	Temperatura mínima	20.4
172336	7	Sololá	712	San Antonio Palopó	9	San Antonio Palopo	5	Mayo	2023-05-21T00:00:00	2024-11-08T07:00:00	5	Humedad	64
172337	7	Sololá	712	San Antonio Palopó	9	San Antonio Palopo	5	Mayo	2023-05-21T00:00:00	2024-11-08T07:00:00	6	Velocidad del viento	12.9
172338	7	Sololá	712	San Antonio Palopó	9	San Antonio Palopo	5	Mayo	2023-05-21T00:00:00	2024-11-08T07:00:00	7	Dirección del viento	12.87
172339	7	Sololá	712	San Antonio Palopó	9	San Antonio Palopo	5	Mayo	2023-05-21T00:00:00	2024-11-08T07:00:00	1	Precipitación	0
172340	7	Sololá	712	San Antonio Palopó	9	San Antonio Palopo	5	Mayo	2023-05-21T00:00:00	2024-11-08T07:00:00	8	Radiación solar	18
172341	7	Sololá	712	San Antonio Palopó	9	San Antonio Palopo	5	Mayo	2023-05-21T00:00:00	2024-11-08T08:00:00	2	Temperatura media	22.2
172342	7	Sololá	712	San Antonio Palopó	9	San Antonio Palopo	5	Mayo	2023-05-21T00:00:00	2024-11-08T08:00:00	4	Temperatura máxima	22.3
172343	7	Sololá	712	San Antonio Palopó	9	San Antonio Palopo	5	Mayo	2023-05-21T00:00:00	2024-11-08T08:00:00	3	Temperatura mínima	20.8
172344	7	Sololá	712	San Antonio Palopó	9	San Antonio Palopo	5	Mayo	2023-05-21T00:00:00	2024-11-08T08:00:00	5	Humedad	64
172345	7	Sololá	712	San Antonio Palopó	9	San Antonio Palopo	5	Mayo	2023-05-21T00:00:00	2024-11-08T08:00:00	6	Velocidad del viento	6.4
172346	7	Sololá	712	San Antonio Palopó	9	San Antonio Palopo	5	Mayo	2023-05-21T00:00:00	2024-11-08T08:00:00	7	Dirección del viento	6.44
172347	7	Sololá	712	San Antonio Palopó	9	San Antonio Palopo	5	Mayo	2023-05-21T00:00:00	2024-11-08T08:00:00	1	Precipitación	0
172348	7	Sololá	712	San Antonio Palopó	9	San Antonio Palopo	5	Mayo	2023-05-21T00:00:00	2024-11-08T08:00:00	8	Radiación solar	185
172349	7	Sololá	712	San Antonio Palopó	9	San Antonio Palopo	5	Mayo	2023-05-21T00:00:00	2024-11-08T09:00:00	2	Temperatura media	22.7
172350	7	Sololá	712	San Antonio Palopó	9	San Antonio Palopo	5	Mayo	2023-05-21T00:00:00	2024-11-08T09:00:00	4	Temperatura máxima	22.7
172351	7	Sololá	712	San Antonio Palopó	9	San Antonio Palopo	5	Mayo	2023-05-21T00:00:00	2024-11-08T09:00:00	3	Temperatura mínima	22
172352	7	Sololá	712	San Antonio Palopó	9	San Antonio Palopo	5	Mayo	2023-05-21T00:00:00	2024-11-08T09:00:00	5	Humedad	62
172353	7	Sololá	712	San Antonio Palopó	9	San Antonio Palopo	5	Mayo	2023-05-21T00:00:00	2024-11-08T09:00:00	6	Velocidad del viento	3.2
172354	7	Sololá	712	San Antonio Palopó	9	San Antonio Palopo	5	Mayo	2023-05-21T00:00:00	2024-11-08T09:00:00	7	Dirección del viento	3.22
172355	7	Sololá	712	San Antonio Palopó	9	San Antonio Palopo	5	Mayo	2023-05-21T00:00:00	2024-11-08T09:00:00	1	Precipitación	0
172356	7	Sololá	712	San Antonio Palopó	9	San Antonio Palopo	5	Mayo	2023-05-21T00:00:00	2024-11-08T09:00:00	8	Radiación solar	262
172357	7	Sololá	712	San Antonio Palopó	9	San Antonio Palopo	5	Mayo	2023-05-21T00:00:00	2024-11-08T10:00:00	2	Temperatura media	23.9
172358	7	Sololá	712	San Antonio Palopó	9	San Antonio Palopo	5	Mayo	2023-05-21T00:00:00	2024-11-08T10:00:00	4	Temperatura máxima	24.1
172359	7	Sololá	712	San Antonio Palopó	9	San Antonio Palopo	5	Mayo	2023-05-21T00:00:00	2024-11-08T10:00:00	3	Temperatura mínima	22.7
172360	7	Sololá	712	San Antonio Palopó	9	San Antonio Palopo	5	Mayo	2023-05-21T00:00:00	2024-11-08T10:00:00	5	Humedad	59
172361	7	Sololá	712	San Antonio Palopó	9	San Antonio Palopo	5	Mayo	2023-05-21T00:00:00	2024-11-08T10:00:00	6	Velocidad del viento	3.2
172362	7	Sololá	712	San Antonio Palopó	9	San Antonio Palopo	5	Mayo	2023-05-21T00:00:00	2024-11-08T10:00:00	7	Dirección del viento	3.22
172363	7	Sololá	712	San Antonio Palopó	9	San Antonio Palopo	5	Mayo	2023-05-21T00:00:00	2024-11-08T10:00:00	1	Precipitación	0
172364	7	Sololá	712	San Antonio Palopó	9	San Antonio Palopo	5	Mayo	2023-05-21T00:00:00	2024-11-08T10:00:00	8	Radiación solar	575
172365	7	Sololá	712	San Antonio Palopó	9	San Antonio Palopo	5	Mayo	2023-05-21T00:00:00	2024-11-08T11:00:00	2	Temperatura media	24.5
172366	7	Sololá	712	San Antonio Palopó	9	San Antonio Palopo	5	Mayo	2023-05-21T00:00:00	2024-11-08T11:00:00	4	Temperatura máxima	24.5
172367	7	Sololá	712	San Antonio Palopó	9	San Antonio Palopo	5	Mayo	2023-05-21T00:00:00	2024-11-08T11:00:00	3	Temperatura mínima	23.7
172368	7	Sololá	712	San Antonio Palopó	9	San Antonio Palopo	5	Mayo	2023-05-21T00:00:00	2024-11-08T11:00:00	5	Humedad	63
172369	7	Sololá	712	San Antonio Palopó	9	San Antonio Palopo	5	Mayo	2023-05-21T00:00:00	2024-11-08T11:00:00	6	Velocidad del viento	3.2
172370	7	Sololá	712	San Antonio Palopó	9	San Antonio Palopo	5	Mayo	2023-05-21T00:00:00	2024-11-08T11:00:00	7	Dirección del viento	3.22
172371	7	Sololá	712	San Antonio Palopó	9	San Antonio Palopo	5	Mayo	2023-05-21T00:00:00	2024-11-08T11:00:00	1	Precipitación	0
172372	7	Sololá	712	San Antonio Palopó	9	San Antonio Palopo	5	Mayo	2023-05-21T00:00:00	2024-11-08T11:00:00	8	Radiación solar	382
172373	7	Sololá	712	San Antonio Palopó	9	San Antonio Palopo	5	Mayo	2023-05-21T00:00:00	2024-11-08T12:00:00	2	Temperatura media	23.6
172374	7	Sololá	712	San Antonio Palopó	9	San Antonio Palopo	5	Mayo	2023-05-21T00:00:00	2024-11-08T12:00:00	4	Temperatura máxima	24.7
172375	7	Sololá	712	San Antonio Palopó	9	San Antonio Palopo	5	Mayo	2023-05-21T00:00:00	2024-11-08T12:00:00	3	Temperatura mínima	23.6
172376	7	Sololá	712	San Antonio Palopó	9	San Antonio Palopo	5	Mayo	2023-05-21T00:00:00	2024-11-08T12:00:00	5	Humedad	62
172377	7	Sololá	712	San Antonio Palopó	9	San Antonio Palopo	5	Mayo	2023-05-21T00:00:00	2024-11-08T12:00:00	6	Velocidad del viento	4.8
172378	7	Sololá	712	San Antonio Palopó	9	San Antonio Palopo	5	Mayo	2023-05-21T00:00:00	2024-11-08T12:00:00	7	Dirección del viento	4.83
172379	7	Sololá	712	San Antonio Palopó	9	San Antonio Palopo	5	Mayo	2023-05-21T00:00:00	2024-11-08T12:00:00	1	Precipitación	0
172380	7	Sololá	712	San Antonio Palopó	9	San Antonio Palopo	5	Mayo	2023-05-21T00:00:00	2024-11-08T12:00:00	8	Radiación solar	305
172381	7	Sololá	712	San Antonio Palopó	9	San Antonio Palopo	5	Mayo	2023-05-21T00:00:00	2024-11-08T13:00:00	2	Temperatura media	23.3
172382	7	Sololá	712	San Antonio Palopó	9	San Antonio Palopo	5	Mayo	2023-05-21T00:00:00	2024-11-08T13:00:00	4	Temperatura máxima	23.7
172383	7	Sololá	712	San Antonio Palopó	9	San Antonio Palopo	5	Mayo	2023-05-21T00:00:00	2024-11-08T13:00:00	3	Temperatura mínima	23.2
172384	7	Sololá	712	San Antonio Palopó	9	San Antonio Palopo	5	Mayo	2023-05-21T00:00:00	2024-11-08T13:00:00	5	Humedad	63
172385	7	Sololá	712	San Antonio Palopó	9	San Antonio Palopo	5	Mayo	2023-05-21T00:00:00	2024-11-08T13:00:00	6	Velocidad del viento	3.2
172386	7	Sololá	712	San Antonio Palopó	9	San Antonio Palopo	5	Mayo	2023-05-21T00:00:00	2024-11-08T13:00:00	7	Dirección del viento	3.22
172387	7	Sololá	712	San Antonio Palopó	9	San Antonio Palopo	5	Mayo	2023-05-21T00:00:00	2024-11-08T13:00:00	1	Precipitación	0
172388	7	Sololá	712	San Antonio Palopó	9	San Antonio Palopo	5	Mayo	2023-05-21T00:00:00	2024-11-08T13:00:00	8	Radiación solar	172
172389	7	Sololá	712	San Antonio Palopó	9	San Antonio Palopo	5	Mayo	2023-05-21T00:00:00	2024-11-08T14:00:00	2	Temperatura media	22.6
172390	7	Sololá	712	San Antonio Palopó	9	San Antonio Palopo	5	Mayo	2023-05-21T00:00:00	2024-11-08T14:00:00	4	Temperatura máxima	23.5
172391	7	Sololá	712	San Antonio Palopó	9	San Antonio Palopo	5	Mayo	2023-05-21T00:00:00	2024-11-08T14:00:00	3	Temperatura mínima	22.3
172392	7	Sololá	712	San Antonio Palopó	9	San Antonio Palopo	5	Mayo	2023-05-21T00:00:00	2024-11-08T14:00:00	5	Humedad	75
172393	7	Sololá	712	San Antonio Palopó	9	San Antonio Palopo	5	Mayo	2023-05-21T00:00:00	2024-11-08T14:00:00	6	Velocidad del viento	3.2
172394	7	Sololá	712	San Antonio Palopó	9	San Antonio Palopo	5	Mayo	2023-05-21T00:00:00	2024-11-08T14:00:00	7	Dirección del viento	3.22
172395	7	Sololá	712	San Antonio Palopó	9	San Antonio Palopo	5	Mayo	2023-05-21T00:00:00	2024-11-08T14:00:00	1	Precipitación	0
172396	7	Sololá	712	San Antonio Palopó	9	San Antonio Palopo	5	Mayo	2023-05-21T00:00:00	2024-11-08T14:00:00	8	Radiación solar	186
172397	7	Sololá	712	San Antonio Palopó	9	San Antonio Palopo	5	Mayo	2023-05-21T00:00:00	2024-11-08T15:00:00	2	Temperatura media	23.3
172398	7	Sololá	712	San Antonio Palopó	9	San Antonio Palopo	5	Mayo	2023-05-21T00:00:00	2024-11-08T15:00:00	4	Temperatura máxima	24.1
172399	7	Sololá	712	San Antonio Palopó	9	San Antonio Palopo	5	Mayo	2023-05-21T00:00:00	2024-11-08T15:00:00	3	Temperatura mínima	22.3
172400	7	Sololá	712	San Antonio Palopó	9	San Antonio Palopo	5	Mayo	2023-05-21T00:00:00	2024-11-08T15:00:00	5	Humedad	71
172401	7	Sololá	712	San Antonio Palopó	9	San Antonio Palopo	5	Mayo	2023-05-21T00:00:00	2024-11-08T15:00:00	6	Velocidad del viento	4.8
172402	7	Sololá	712	San Antonio Palopó	9	San Antonio Palopo	5	Mayo	2023-05-21T00:00:00	2024-11-08T15:00:00	7	Dirección del viento	4.83
172403	7	Sololá	712	San Antonio Palopó	9	San Antonio Palopo	5	Mayo	2023-05-21T00:00:00	2024-11-08T15:00:00	1	Precipitación	0
172404	7	Sololá	712	San Antonio Palopó	9	San Antonio Palopo	5	Mayo	2023-05-21T00:00:00	2024-11-08T15:00:00	8	Radiación solar	321
172405	7	Sololá	712	San Antonio Palopó	9	San Antonio Palopo	5	Mayo	2023-05-21T00:00:00	2024-11-08T16:00:00	2	Temperatura media	23.7
172406	7	Sololá	712	San Antonio Palopó	9	San Antonio Palopo	5	Mayo	2023-05-21T00:00:00	2024-11-08T16:00:00	4	Temperatura máxima	23.8
172407	7	Sololá	712	San Antonio Palopó	9	San Antonio Palopo	5	Mayo	2023-05-21T00:00:00	2024-11-08T16:00:00	3	Temperatura mínima	23.2
172408	7	Sololá	712	San Antonio Palopó	9	San Antonio Palopo	5	Mayo	2023-05-21T00:00:00	2024-11-08T16:00:00	5	Humedad	66
172409	7	Sololá	712	San Antonio Palopó	9	San Antonio Palopo	5	Mayo	2023-05-21T00:00:00	2024-11-08T16:00:00	6	Velocidad del viento	1.6
172410	7	Sololá	712	San Antonio Palopó	9	San Antonio Palopo	5	Mayo	2023-05-21T00:00:00	2024-11-08T16:00:00	7	Dirección del viento	1.61
172411	7	Sololá	712	San Antonio Palopó	9	San Antonio Palopo	5	Mayo	2023-05-21T00:00:00	2024-11-08T16:00:00	1	Precipitación	0
172412	7	Sololá	712	San Antonio Palopó	9	San Antonio Palopo	5	Mayo	2023-05-21T00:00:00	2024-11-08T16:00:00	8	Radiación solar	212
172413	7	Sololá	712	San Antonio Palopó	9	San Antonio Palopo	5	Mayo	2023-05-21T00:00:00	2024-11-08T17:00:00	2	Temperatura media	21.9
172414	7	Sololá	712	San Antonio Palopó	9	San Antonio Palopo	5	Mayo	2023-05-21T00:00:00	2024-11-08T17:00:00	4	Temperatura máxima	23.7
172415	7	Sololá	712	San Antonio Palopó	9	San Antonio Palopo	5	Mayo	2023-05-21T00:00:00	2024-11-08T17:00:00	3	Temperatura mínima	21.9
172416	7	Sololá	712	San Antonio Palopó	9	San Antonio Palopo	5	Mayo	2023-05-21T00:00:00	2024-11-08T17:00:00	5	Humedad	77
172417	7	Sololá	712	San Antonio Palopó	9	San Antonio Palopo	5	Mayo	2023-05-21T00:00:00	2024-11-08T17:00:00	6	Velocidad del viento	4.8
172418	7	Sololá	712	San Antonio Palopó	9	San Antonio Palopo	5	Mayo	2023-05-21T00:00:00	2024-11-08T17:00:00	7	Dirección del viento	4.83
172419	7	Sololá	712	San Antonio Palopó	9	San Antonio Palopo	5	Mayo	2023-05-21T00:00:00	2024-11-08T17:00:00	1	Precipitación	0
172420	7	Sololá	712	San Antonio Palopó	9	San Antonio Palopo	5	Mayo	2023-05-21T00:00:00	2024-11-08T17:00:00	8	Radiación solar	145
172421	7	Sololá	712	San Antonio Palopó	9	San Antonio Palopo	5	Mayo	2023-05-21T00:00:00	2024-11-08T18:00:00	2	Temperatura media	21.6
172422	7	Sololá	712	San Antonio Palopó	9	San Antonio Palopo	5	Mayo	2023-05-21T00:00:00	2024-11-08T18:00:00	4	Temperatura máxima	22
172423	7	Sololá	712	San Antonio Palopó	9	San Antonio Palopo	5	Mayo	2023-05-21T00:00:00	2024-11-08T18:00:00	3	Temperatura mínima	21.6
172424	7	Sololá	712	San Antonio Palopó	9	San Antonio Palopo	5	Mayo	2023-05-21T00:00:00	2024-11-08T18:00:00	5	Humedad	77
172425	7	Sololá	712	San Antonio Palopó	9	San Antonio Palopo	5	Mayo	2023-05-21T00:00:00	2024-11-08T18:00:00	6	Velocidad del viento	3.2
172426	7	Sololá	712	San Antonio Palopó	9	San Antonio Palopo	5	Mayo	2023-05-21T00:00:00	2024-11-08T18:00:00	7	Dirección del viento	3.22
172427	7	Sololá	712	San Antonio Palopó	9	San Antonio Palopo	5	Mayo	2023-05-21T00:00:00	2024-11-08T18:00:00	1	Precipitación	0
172428	7	Sololá	712	San Antonio Palopó	9	San Antonio Palopo	5	Mayo	2023-05-21T00:00:00	2024-11-08T18:00:00	8	Radiación solar	54
172429	7	Sololá	712	San Antonio Palopó	9	San Antonio Palopo	5	Mayo	2023-05-21T00:00:00	2024-11-08T19:00:00	2	Temperatura media	20.6
172430	7	Sololá	712	San Antonio Palopó	9	San Antonio Palopo	5	Mayo	2023-05-21T00:00:00	2024-11-08T19:00:00	4	Temperatura máxima	21.6
172431	7	Sololá	712	San Antonio Palopó	9	San Antonio Palopo	5	Mayo	2023-05-21T00:00:00	2024-11-08T19:00:00	3	Temperatura mínima	20.6
172432	7	Sololá	712	San Antonio Palopó	9	San Antonio Palopo	5	Mayo	2023-05-21T00:00:00	2024-11-08T19:00:00	5	Humedad	79
172433	7	Sololá	712	San Antonio Palopó	9	San Antonio Palopo	5	Mayo	2023-05-21T00:00:00	2024-11-08T19:00:00	6	Velocidad del viento	1.6
172434	7	Sololá	712	San Antonio Palopó	9	San Antonio Palopo	5	Mayo	2023-05-21T00:00:00	2024-11-08T19:00:00	7	Dirección del viento	1.61
172435	7	Sololá	712	San Antonio Palopó	9	San Antonio Palopo	5	Mayo	2023-05-21T00:00:00	2024-11-08T19:00:00	1	Precipitación	0
172436	7	Sololá	712	San Antonio Palopó	9	San Antonio Palopo	5	Mayo	2023-05-21T00:00:00	2024-11-08T19:00:00	8	Radiación solar	0
172437	7	Sololá	712	San Antonio Palopó	9	San Antonio Palopo	5	Mayo	2023-05-21T00:00:00	2024-11-08T20:00:00	2	Temperatura media	20.6
172438	7	Sololá	712	San Antonio Palopó	9	San Antonio Palopo	5	Mayo	2023-05-21T00:00:00	2024-11-08T20:00:00	4	Temperatura máxima	20.8
172439	7	Sololá	712	San Antonio Palopó	9	San Antonio Palopo	5	Mayo	2023-05-21T00:00:00	2024-11-08T20:00:00	3	Temperatura mínima	20.6
172440	7	Sololá	712	San Antonio Palopó	9	San Antonio Palopo	5	Mayo	2023-05-21T00:00:00	2024-11-08T20:00:00	5	Humedad	82
172441	7	Sololá	712	San Antonio Palopó	9	San Antonio Palopo	5	Mayo	2023-05-21T00:00:00	2024-11-08T20:00:00	6	Velocidad del viento	1.6
172442	7	Sololá	712	San Antonio Palopó	9	San Antonio Palopo	5	Mayo	2023-05-21T00:00:00	2024-11-08T20:00:00	7	Dirección del viento	1.61
172443	7	Sololá	712	San Antonio Palopó	9	San Antonio Palopo	5	Mayo	2023-05-21T00:00:00	2024-11-08T20:00:00	1	Precipitación	0
172444	7	Sololá	712	San Antonio Palopó	9	San Antonio Palopo	5	Mayo	2023-05-21T00:00:00	2024-11-08T20:00:00	8	Radiación solar	0
172445	7	Sololá	712	San Antonio Palopó	9	San Antonio Palopo	5	Mayo	2023-05-21T00:00:00	2024-11-08T21:00:00	2	Temperatura media	21.6
172446	7	Sololá	712	San Antonio Palopó	9	San Antonio Palopo	5	Mayo	2023-05-21T00:00:00	2024-11-08T21:00:00	4	Temperatura máxima	21.6
172447	7	Sololá	712	San Antonio Palopó	9	San Antonio Palopo	5	Mayo	2023-05-21T00:00:00	2024-11-08T21:00:00	3	Temperatura mínima	20.6
172448	7	Sololá	712	San Antonio Palopó	9	San Antonio Palopo	5	Mayo	2023-05-21T00:00:00	2024-11-08T21:00:00	5	Humedad	70
172449	7	Sololá	712	San Antonio Palopó	9	San Antonio Palopo	5	Mayo	2023-05-21T00:00:00	2024-11-08T21:00:00	6	Velocidad del viento	3.2
172450	7	Sololá	712	San Antonio Palopó	9	San Antonio Palopo	5	Mayo	2023-05-21T00:00:00	2024-11-08T21:00:00	7	Dirección del viento	3.22
172451	7	Sololá	712	San Antonio Palopó	9	San Antonio Palopo	5	Mayo	2023-05-21T00:00:00	2024-11-08T21:00:00	1	Precipitación	0
172452	7	Sololá	712	San Antonio Palopó	9	San Antonio Palopo	5	Mayo	2023-05-21T00:00:00	2024-11-08T21:00:00	8	Radiación solar	0
172453	7	Sololá	712	San Antonio Palopó	9	San Antonio Palopo	5	Mayo	2023-05-21T00:00:00	2024-11-08T22:00:00	2	Temperatura media	21.2
172454	7	Sololá	712	San Antonio Palopó	9	San Antonio Palopo	5	Mayo	2023-05-21T00:00:00	2024-11-08T22:00:00	4	Temperatura máxima	21.6
172455	7	Sololá	712	San Antonio Palopó	9	San Antonio Palopo	5	Mayo	2023-05-21T00:00:00	2024-11-08T22:00:00	3	Temperatura mínima	21.2
172456	7	Sololá	712	San Antonio Palopó	9	San Antonio Palopo	5	Mayo	2023-05-21T00:00:00	2024-11-08T22:00:00	5	Humedad	70
172457	7	Sololá	712	San Antonio Palopó	9	San Antonio Palopo	5	Mayo	2023-05-21T00:00:00	2024-11-08T22:00:00	6	Velocidad del viento	6.4
172458	7	Sololá	712	San Antonio Palopó	9	San Antonio Palopo	5	Mayo	2023-05-21T00:00:00	2024-11-08T22:00:00	7	Dirección del viento	6.44
172459	7	Sololá	712	San Antonio Palopó	9	San Antonio Palopo	5	Mayo	2023-05-21T00:00:00	2024-11-08T22:00:00	1	Precipitación	0
172460	7	Sololá	712	San Antonio Palopó	9	San Antonio Palopo	5	Mayo	2023-05-21T00:00:00	2024-11-08T22:00:00	8	Radiación solar	0
172461	7	Sololá	712	San Antonio Palopó	9	San Antonio Palopo	5	Mayo	2023-05-21T00:00:00	2024-11-08T23:00:00	2	Temperatura media	20.6
172462	7	Sololá	712	San Antonio Palopó	9	San Antonio Palopo	5	Mayo	2023-05-21T00:00:00	2024-11-08T23:00:00	4	Temperatura máxima	21.3
172463	7	Sololá	712	San Antonio Palopó	9	San Antonio Palopo	5	Mayo	2023-05-21T00:00:00	2024-11-08T23:00:00	3	Temperatura mínima	20.6
172464	7	Sololá	712	San Antonio Palopó	9	San Antonio Palopo	5	Mayo	2023-05-21T00:00:00	2024-11-08T23:00:00	5	Humedad	71
172465	7	Sololá	712	San Antonio Palopó	9	San Antonio Palopo	5	Mayo	2023-05-21T00:00:00	2024-11-08T23:00:00	6	Velocidad del viento	8
172466	7	Sololá	712	San Antonio Palopó	9	San Antonio Palopo	5	Mayo	2023-05-21T00:00:00	2024-11-08T23:00:00	7	Dirección del viento	8.05
172467	7	Sololá	712	San Antonio Palopó	9	San Antonio Palopo	5	Mayo	2023-05-21T00:00:00	2024-11-08T23:00:00	1	Precipitación	0
172468	7	Sololá	712	San Antonio Palopó	9	San Antonio Palopo	5	Mayo	2023-05-21T00:00:00	2024-11-08T23:00:00	8	Radiación solar	0
172469	7	Sololá	712	San Antonio Palopó	9	San Antonio Palopo	5	Mayo	2023-05-22T00:00:00	2024-11-08T00:00:00	2	Temperatura media	20.3
172470	7	Sololá	712	San Antonio Palopó	9	San Antonio Palopo	5	Mayo	2023-05-22T00:00:00	2024-11-08T00:00:00	4	Temperatura máxima	20.6
172471	7	Sololá	712	San Antonio Palopó	9	San Antonio Palopo	5	Mayo	2023-05-22T00:00:00	2024-11-08T00:00:00	3	Temperatura mínima	20.3
172472	7	Sololá	712	San Antonio Palopó	9	San Antonio Palopo	5	Mayo	2023-05-22T00:00:00	2024-11-08T00:00:00	5	Humedad	72
172473	7	Sololá	712	San Antonio Palopó	9	San Antonio Palopo	5	Mayo	2023-05-22T00:00:00	2024-11-08T00:00:00	6	Velocidad del viento	8
172474	7	Sololá	712	San Antonio Palopó	9	San Antonio Palopo	5	Mayo	2023-05-22T00:00:00	2024-11-08T00:00:00	7	Dirección del viento	8.05
172475	7	Sololá	712	San Antonio Palopó	9	San Antonio Palopo	5	Mayo	2023-05-22T00:00:00	2024-11-08T00:00:00	1	Precipitación	0
172476	7	Sololá	712	San Antonio Palopó	9	San Antonio Palopo	5	Mayo	2023-05-22T00:00:00	2024-11-08T00:00:00	8	Radiación solar	0
172477	7	Sololá	712	San Antonio Palopó	9	San Antonio Palopo	5	Mayo	2023-05-22T00:00:00	2024-11-08T01:00:00	2	Temperatura media	19.8
172478	7	Sololá	712	San Antonio Palopó	9	San Antonio Palopo	5	Mayo	2023-05-22T00:00:00	2024-11-08T01:00:00	4	Temperatura máxima	20.3
172479	7	Sololá	712	San Antonio Palopó	9	San Antonio Palopo	5	Mayo	2023-05-22T00:00:00	2024-11-08T01:00:00	3	Temperatura mínima	19.8
172480	7	Sololá	712	San Antonio Palopó	9	San Antonio Palopo	5	Mayo	2023-05-22T00:00:00	2024-11-08T01:00:00	5	Humedad	74
172481	7	Sololá	712	San Antonio Palopó	9	San Antonio Palopo	5	Mayo	2023-05-22T00:00:00	2024-11-08T01:00:00	6	Velocidad del viento	4.8
172482	7	Sololá	712	San Antonio Palopó	9	San Antonio Palopo	5	Mayo	2023-05-22T00:00:00	2024-11-08T01:00:00	7	Dirección del viento	4.83
172483	7	Sololá	712	San Antonio Palopó	9	San Antonio Palopo	5	Mayo	2023-05-22T00:00:00	2024-11-08T01:00:00	1	Precipitación	0
172484	7	Sololá	712	San Antonio Palopó	9	San Antonio Palopo	5	Mayo	2023-05-22T00:00:00	2024-11-08T01:00:00	8	Radiación solar	0
172485	7	Sololá	712	San Antonio Palopó	9	San Antonio Palopo	5	Mayo	2023-05-22T00:00:00	2024-11-08T02:00:00	2	Temperatura media	20.3
172486	7	Sololá	712	San Antonio Palopó	9	San Antonio Palopo	5	Mayo	2023-05-22T00:00:00	2024-11-08T02:00:00	4	Temperatura máxima	20.3
172487	7	Sololá	712	San Antonio Palopó	9	San Antonio Palopo	5	Mayo	2023-05-22T00:00:00	2024-11-08T02:00:00	3	Temperatura mínima	19.8
172488	7	Sololá	712	San Antonio Palopó	9	San Antonio Palopo	5	Mayo	2023-05-22T00:00:00	2024-11-08T02:00:00	5	Humedad	72
172489	7	Sololá	712	San Antonio Palopó	9	San Antonio Palopo	5	Mayo	2023-05-22T00:00:00	2024-11-08T02:00:00	6	Velocidad del viento	8
172490	7	Sololá	712	San Antonio Palopó	9	San Antonio Palopo	5	Mayo	2023-05-22T00:00:00	2024-11-08T02:00:00	7	Dirección del viento	8.05
172491	7	Sololá	712	San Antonio Palopó	9	San Antonio Palopo	5	Mayo	2023-05-22T00:00:00	2024-11-08T02:00:00	1	Precipitación	0
172492	7	Sololá	712	San Antonio Palopó	9	San Antonio Palopo	5	Mayo	2023-05-22T00:00:00	2024-11-08T02:00:00	8	Radiación solar	0
172493	7	Sololá	712	San Antonio Palopó	9	San Antonio Palopo	5	Mayo	2023-05-22T00:00:00	2024-11-08T03:00:00	2	Temperatura media	20.4
172494	7	Sololá	712	San Antonio Palopó	9	San Antonio Palopo	5	Mayo	2023-05-22T00:00:00	2024-11-08T03:00:00	4	Temperatura máxima	20.4
172495	7	Sololá	712	San Antonio Palopó	9	San Antonio Palopo	5	Mayo	2023-05-22T00:00:00	2024-11-08T03:00:00	3	Temperatura mínima	20.2
172496	7	Sololá	712	San Antonio Palopó	9	San Antonio Palopo	5	Mayo	2023-05-22T00:00:00	2024-11-08T03:00:00	5	Humedad	72
172497	7	Sololá	712	San Antonio Palopó	9	San Antonio Palopo	5	Mayo	2023-05-22T00:00:00	2024-11-08T03:00:00	6	Velocidad del viento	8
172498	7	Sololá	712	San Antonio Palopó	9	San Antonio Palopo	5	Mayo	2023-05-22T00:00:00	2024-11-08T03:00:00	7	Dirección del viento	8.05
172499	7	Sololá	712	San Antonio Palopó	9	San Antonio Palopo	5	Mayo	2023-05-22T00:00:00	2024-11-08T03:00:00	1	Precipitación	0
172500	7	Sololá	712	San Antonio Palopó	9	San Antonio Palopo	5	Mayo	2023-05-22T00:00:00	2024-11-08T03:00:00	8	Radiación solar	0
172501	7	Sololá	712	San Antonio Palopó	9	San Antonio Palopo	5	Mayo	2023-05-22T00:00:00	2024-11-08T04:00:00	2	Temperatura media	20.3
172502	7	Sololá	712	San Antonio Palopó	9	San Antonio Palopo	5	Mayo	2023-05-22T00:00:00	2024-11-08T04:00:00	4	Temperatura máxima	20.4
172503	7	Sololá	712	San Antonio Palopó	9	San Antonio Palopo	5	Mayo	2023-05-22T00:00:00	2024-11-08T04:00:00	3	Temperatura mínima	20.3
172504	7	Sololá	712	San Antonio Palopó	9	San Antonio Palopo	5	Mayo	2023-05-22T00:00:00	2024-11-08T04:00:00	5	Humedad	73
172505	7	Sololá	712	San Antonio Palopó	9	San Antonio Palopo	5	Mayo	2023-05-22T00:00:00	2024-11-08T04:00:00	6	Velocidad del viento	9.7
172506	7	Sololá	712	San Antonio Palopó	9	San Antonio Palopo	5	Mayo	2023-05-22T00:00:00	2024-11-08T04:00:00	7	Dirección del viento	9.66
172507	7	Sololá	712	San Antonio Palopó	9	San Antonio Palopo	5	Mayo	2023-05-22T00:00:00	2024-11-08T04:00:00	1	Precipitación	0
172508	7	Sololá	712	San Antonio Palopó	9	San Antonio Palopo	5	Mayo	2023-05-22T00:00:00	2024-11-08T04:00:00	8	Radiación solar	0
172509	7	Sololá	712	San Antonio Palopó	9	San Antonio Palopo	5	Mayo	2023-05-22T00:00:00	2024-11-08T05:00:00	2	Temperatura media	19.2
172510	7	Sololá	712	San Antonio Palopó	9	San Antonio Palopo	5	Mayo	2023-05-22T00:00:00	2024-11-08T05:00:00	4	Temperatura máxima	20.5
172511	7	Sololá	712	San Antonio Palopó	9	San Antonio Palopo	5	Mayo	2023-05-22T00:00:00	2024-11-08T05:00:00	3	Temperatura mínima	19.1
172512	7	Sololá	712	San Antonio Palopó	9	San Antonio Palopo	5	Mayo	2023-05-22T00:00:00	2024-11-08T05:00:00	5	Humedad	78
172513	7	Sololá	712	San Antonio Palopó	9	San Antonio Palopo	5	Mayo	2023-05-22T00:00:00	2024-11-08T05:00:00	6	Velocidad del viento	8
172514	7	Sololá	712	San Antonio Palopó	9	San Antonio Palopo	5	Mayo	2023-05-22T00:00:00	2024-11-08T05:00:00	7	Dirección del viento	8.05
172515	7	Sololá	712	San Antonio Palopó	9	San Antonio Palopo	5	Mayo	2023-05-22T00:00:00	2024-11-08T05:00:00	1	Precipitación	0.2
172516	7	Sololá	712	San Antonio Palopó	9	San Antonio Palopo	5	Mayo	2023-05-22T00:00:00	2024-11-08T05:00:00	8	Radiación solar	0
172517	7	Sololá	712	San Antonio Palopó	9	San Antonio Palopo	5	Mayo	2023-05-22T00:00:00	2024-11-08T06:00:00	2	Temperatura media	19
172518	7	Sololá	712	San Antonio Palopó	9	San Antonio Palopo	5	Mayo	2023-05-22T00:00:00	2024-11-08T06:00:00	4	Temperatura máxima	19.3
172519	7	Sololá	712	San Antonio Palopó	9	San Antonio Palopo	5	Mayo	2023-05-22T00:00:00	2024-11-08T06:00:00	3	Temperatura mínima	19
172520	7	Sololá	712	San Antonio Palopó	9	San Antonio Palopo	5	Mayo	2023-05-22T00:00:00	2024-11-08T06:00:00	5	Humedad	77
172521	7	Sololá	712	San Antonio Palopó	9	San Antonio Palopo	5	Mayo	2023-05-22T00:00:00	2024-11-08T06:00:00	6	Velocidad del viento	11.3
172522	7	Sololá	712	San Antonio Palopó	9	San Antonio Palopo	5	Mayo	2023-05-22T00:00:00	2024-11-08T06:00:00	7	Dirección del viento	11.27
172523	7	Sololá	712	San Antonio Palopó	9	San Antonio Palopo	5	Mayo	2023-05-22T00:00:00	2024-11-08T06:00:00	1	Precipitación	0
172524	7	Sololá	712	San Antonio Palopó	9	San Antonio Palopo	5	Mayo	2023-05-22T00:00:00	2024-11-08T06:00:00	8	Radiación solar	2
172525	7	Sololá	712	San Antonio Palopó	9	San Antonio Palopo	5	Mayo	2023-05-22T00:00:00	2024-11-08T07:00:00	2	Temperatura media	19.7
172526	7	Sololá	712	San Antonio Palopó	9	San Antonio Palopo	5	Mayo	2023-05-22T00:00:00	2024-11-08T07:00:00	4	Temperatura máxima	19.7
172527	7	Sololá	712	San Antonio Palopó	9	San Antonio Palopo	5	Mayo	2023-05-22T00:00:00	2024-11-08T07:00:00	3	Temperatura mínima	19
172528	7	Sololá	712	San Antonio Palopó	9	San Antonio Palopo	5	Mayo	2023-05-22T00:00:00	2024-11-08T07:00:00	5	Humedad	75
172529	7	Sololá	712	San Antonio Palopó	9	San Antonio Palopo	5	Mayo	2023-05-22T00:00:00	2024-11-08T07:00:00	6	Velocidad del viento	9.7
172530	7	Sololá	712	San Antonio Palopó	9	San Antonio Palopo	5	Mayo	2023-05-22T00:00:00	2024-11-08T07:00:00	7	Dirección del viento	9.66
172531	7	Sololá	712	San Antonio Palopó	9	San Antonio Palopo	5	Mayo	2023-05-22T00:00:00	2024-11-08T07:00:00	1	Precipitación	0
172532	7	Sololá	712	San Antonio Palopó	9	San Antonio Palopo	5	Mayo	2023-05-22T00:00:00	2024-11-08T07:00:00	8	Radiación solar	49
172533	7	Sololá	712	San Antonio Palopó	9	San Antonio Palopo	5	Mayo	2023-05-22T00:00:00	2024-11-08T08:00:00	2	Temperatura media	20.9
172534	7	Sololá	712	San Antonio Palopó	9	San Antonio Palopo	5	Mayo	2023-05-22T00:00:00	2024-11-08T08:00:00	4	Temperatura máxima	21
172535	7	Sololá	712	San Antonio Palopó	9	San Antonio Palopo	5	Mayo	2023-05-22T00:00:00	2024-11-08T08:00:00	3	Temperatura mínima	19.7
172536	7	Sololá	712	San Antonio Palopó	9	San Antonio Palopo	5	Mayo	2023-05-22T00:00:00	2024-11-08T08:00:00	5	Humedad	75
172537	7	Sololá	712	San Antonio Palopó	9	San Antonio Palopo	5	Mayo	2023-05-22T00:00:00	2024-11-08T08:00:00	6	Velocidad del viento	4.8
172538	7	Sololá	712	San Antonio Palopó	9	San Antonio Palopo	5	Mayo	2023-05-22T00:00:00	2024-11-08T08:00:00	7	Dirección del viento	4.83
172539	7	Sololá	712	San Antonio Palopó	9	San Antonio Palopo	5	Mayo	2023-05-22T00:00:00	2024-11-08T08:00:00	1	Precipitación	0
172540	7	Sololá	712	San Antonio Palopó	9	San Antonio Palopo	5	Mayo	2023-05-22T00:00:00	2024-11-08T08:00:00	8	Radiación solar	172
172541	7	Sololá	712	San Antonio Palopó	9	San Antonio Palopo	5	Mayo	2023-05-22T00:00:00	2024-11-08T09:00:00	2	Temperatura media	21.2
172542	7	Sololá	712	San Antonio Palopó	9	San Antonio Palopo	5	Mayo	2023-05-22T00:00:00	2024-11-08T09:00:00	4	Temperatura máxima	21.6
172543	7	Sololá	712	San Antonio Palopó	9	San Antonio Palopo	5	Mayo	2023-05-22T00:00:00	2024-11-08T09:00:00	3	Temperatura mínima	20.8
172544	7	Sololá	712	San Antonio Palopó	9	San Antonio Palopo	5	Mayo	2023-05-22T00:00:00	2024-11-08T09:00:00	5	Humedad	73
172545	7	Sololá	712	San Antonio Palopó	9	San Antonio Palopo	5	Mayo	2023-05-22T00:00:00	2024-11-08T09:00:00	6	Velocidad del viento	3.2
172546	7	Sololá	712	San Antonio Palopó	9	San Antonio Palopo	5	Mayo	2023-05-22T00:00:00	2024-11-08T09:00:00	7	Dirección del viento	3.22
172547	7	Sololá	712	San Antonio Palopó	9	San Antonio Palopo	5	Mayo	2023-05-22T00:00:00	2024-11-08T09:00:00	1	Precipitación	0
172548	7	Sololá	712	San Antonio Palopó	9	San Antonio Palopo	5	Mayo	2023-05-22T00:00:00	2024-11-08T09:00:00	8	Radiación solar	253
172549	7	Sololá	712	San Antonio Palopó	9	San Antonio Palopo	5	Mayo	2023-05-22T00:00:00	2024-11-08T10:00:00	2	Temperatura media	22.6
172550	7	Sololá	712	San Antonio Palopó	9	San Antonio Palopo	5	Mayo	2023-05-22T00:00:00	2024-11-08T10:00:00	4	Temperatura máxima	22.8
172551	7	Sololá	712	San Antonio Palopó	9	San Antonio Palopo	5	Mayo	2023-05-22T00:00:00	2024-11-08T10:00:00	3	Temperatura mínima	21.2
172552	7	Sololá	712	San Antonio Palopó	9	San Antonio Palopo	5	Mayo	2023-05-22T00:00:00	2024-11-08T10:00:00	5	Humedad	73
172553	7	Sololá	712	San Antonio Palopó	9	San Antonio Palopo	5	Mayo	2023-05-22T00:00:00	2024-11-08T10:00:00	6	Velocidad del viento	3.2
172554	7	Sololá	712	San Antonio Palopó	9	San Antonio Palopo	5	Mayo	2023-05-22T00:00:00	2024-11-08T10:00:00	7	Dirección del viento	3.22
172555	7	Sololá	712	San Antonio Palopó	9	San Antonio Palopo	5	Mayo	2023-05-22T00:00:00	2024-11-08T10:00:00	1	Precipitación	0
172556	7	Sololá	712	San Antonio Palopó	9	San Antonio Palopo	5	Mayo	2023-05-22T00:00:00	2024-11-08T10:00:00	8	Radiación solar	438
172557	7	Sololá	712	San Antonio Palopó	9	San Antonio Palopo	5	Mayo	2023-05-22T00:00:00	2024-11-08T11:00:00	2	Temperatura media	22.8
172558	7	Sololá	712	San Antonio Palopó	9	San Antonio Palopo	5	Mayo	2023-05-22T00:00:00	2024-11-08T11:00:00	4	Temperatura máxima	23.3
172559	7	Sololá	712	San Antonio Palopó	9	San Antonio Palopo	5	Mayo	2023-05-22T00:00:00	2024-11-08T11:00:00	3	Temperatura mínima	22.2
172560	7	Sololá	712	San Antonio Palopó	9	San Antonio Palopo	5	Mayo	2023-05-22T00:00:00	2024-11-08T11:00:00	5	Humedad	71
172561	7	Sololá	712	San Antonio Palopó	9	San Antonio Palopo	5	Mayo	2023-05-22T00:00:00	2024-11-08T11:00:00	6	Velocidad del viento	6.4
172562	7	Sololá	712	San Antonio Palopó	9	San Antonio Palopo	5	Mayo	2023-05-22T00:00:00	2024-11-08T11:00:00	7	Dirección del viento	6.44
172563	7	Sololá	712	San Antonio Palopó	9	San Antonio Palopo	5	Mayo	2023-05-22T00:00:00	2024-11-08T11:00:00	1	Precipitación	0
172564	7	Sololá	712	San Antonio Palopó	9	San Antonio Palopo	5	Mayo	2023-05-22T00:00:00	2024-11-08T11:00:00	8	Radiación solar	797
172565	7	Sololá	712	San Antonio Palopó	9	San Antonio Palopo	5	Mayo	2023-05-22T00:00:00	2024-11-08T12:00:00	2	Temperatura media	23.3
172566	7	Sololá	712	San Antonio Palopó	9	San Antonio Palopo	5	Mayo	2023-05-22T00:00:00	2024-11-08T12:00:00	4	Temperatura máxima	23.3
172567	7	Sololá	712	San Antonio Palopó	9	San Antonio Palopo	5	Mayo	2023-05-22T00:00:00	2024-11-08T12:00:00	3	Temperatura mínima	22.5
172568	7	Sololá	712	San Antonio Palopó	9	San Antonio Palopo	5	Mayo	2023-05-22T00:00:00	2024-11-08T12:00:00	5	Humedad	71
172569	7	Sololá	712	San Antonio Palopó	9	San Antonio Palopo	5	Mayo	2023-05-22T00:00:00	2024-11-08T12:00:00	6	Velocidad del viento	6.4
172570	7	Sololá	712	San Antonio Palopó	9	San Antonio Palopo	5	Mayo	2023-05-22T00:00:00	2024-11-08T12:00:00	7	Dirección del viento	6.44
172571	7	Sololá	712	San Antonio Palopó	9	San Antonio Palopo	5	Mayo	2023-05-22T00:00:00	2024-11-08T12:00:00	1	Precipitación	0
172572	7	Sololá	712	San Antonio Palopó	9	San Antonio Palopo	5	Mayo	2023-05-22T00:00:00	2024-11-08T12:00:00	8	Radiación solar	214
172573	7	Sololá	712	San Antonio Palopó	9	San Antonio Palopo	5	Mayo	2023-05-22T00:00:00	2024-11-08T13:00:00	2	Temperatura media	22.9
172574	7	Sololá	712	San Antonio Palopó	9	San Antonio Palopo	5	Mayo	2023-05-22T00:00:00	2024-11-08T13:00:00	4	Temperatura máxima	23.7
172575	7	Sololá	712	San Antonio Palopó	9	San Antonio Palopo	5	Mayo	2023-05-22T00:00:00	2024-11-08T13:00:00	3	Temperatura mínima	22.3
172576	7	Sololá	712	San Antonio Palopó	9	San Antonio Palopo	5	Mayo	2023-05-22T00:00:00	2024-11-08T13:00:00	5	Humedad	74
172577	7	Sololá	712	San Antonio Palopó	9	San Antonio Palopo	5	Mayo	2023-05-22T00:00:00	2024-11-08T13:00:00	6	Velocidad del viento	8
172578	7	Sololá	712	San Antonio Palopó	9	San Antonio Palopo	5	Mayo	2023-05-22T00:00:00	2024-11-08T13:00:00	7	Dirección del viento	8.05
172579	7	Sololá	712	San Antonio Palopó	9	San Antonio Palopo	5	Mayo	2023-05-22T00:00:00	2024-11-08T13:00:00	1	Precipitación	0
172580	7	Sololá	712	San Antonio Palopó	9	San Antonio Palopo	5	Mayo	2023-05-22T00:00:00	2024-11-08T13:00:00	8	Radiación solar	392
172581	7	Sololá	712	San Antonio Palopó	9	San Antonio Palopo	5	Mayo	2023-05-22T00:00:00	2024-11-08T14:00:00	2	Temperatura media	23.3
172582	7	Sololá	712	San Antonio Palopó	9	San Antonio Palopo	5	Mayo	2023-05-22T00:00:00	2024-11-08T14:00:00	4	Temperatura máxima	23.6
172583	7	Sololá	712	San Antonio Palopó	9	San Antonio Palopo	5	Mayo	2023-05-22T00:00:00	2024-11-08T14:00:00	3	Temperatura mínima	22.9
172584	7	Sololá	712	San Antonio Palopó	9	San Antonio Palopo	5	Mayo	2023-05-22T00:00:00	2024-11-08T14:00:00	5	Humedad	73
172585	7	Sololá	712	San Antonio Palopó	9	San Antonio Palopo	5	Mayo	2023-05-22T00:00:00	2024-11-08T14:00:00	6	Velocidad del viento	3.2
172586	7	Sololá	712	San Antonio Palopó	9	San Antonio Palopo	5	Mayo	2023-05-22T00:00:00	2024-11-08T14:00:00	7	Dirección del viento	3.22
172587	7	Sololá	712	San Antonio Palopó	9	San Antonio Palopo	5	Mayo	2023-05-22T00:00:00	2024-11-08T14:00:00	1	Precipitación	0
172588	7	Sololá	712	San Antonio Palopó	9	San Antonio Palopo	5	Mayo	2023-05-22T00:00:00	2024-11-08T14:00:00	8	Radiación solar	290
172589	7	Sololá	712	San Antonio Palopó	9	San Antonio Palopo	5	Mayo	2023-05-22T00:00:00	2024-11-08T15:00:00	2	Temperatura media	22.8
172590	7	Sololá	712	San Antonio Palopó	9	San Antonio Palopo	5	Mayo	2023-05-22T00:00:00	2024-11-08T15:00:00	4	Temperatura máxima	23.4
172591	7	Sololá	712	San Antonio Palopó	9	San Antonio Palopo	5	Mayo	2023-05-22T00:00:00	2024-11-08T15:00:00	3	Temperatura mínima	22.7
172592	7	Sololá	712	San Antonio Palopó	9	San Antonio Palopo	5	Mayo	2023-05-22T00:00:00	2024-11-08T15:00:00	5	Humedad	77
172593	7	Sololá	712	San Antonio Palopó	9	San Antonio Palopo	5	Mayo	2023-05-22T00:00:00	2024-11-08T15:00:00	6	Velocidad del viento	6.4
172594	7	Sololá	712	San Antonio Palopó	9	San Antonio Palopo	5	Mayo	2023-05-22T00:00:00	2024-11-08T15:00:00	7	Dirección del viento	6.44
172595	7	Sololá	712	San Antonio Palopó	9	San Antonio Palopo	5	Mayo	2023-05-22T00:00:00	2024-11-08T15:00:00	1	Precipitación	0
172596	7	Sololá	712	San Antonio Palopó	9	San Antonio Palopo	5	Mayo	2023-05-22T00:00:00	2024-11-08T15:00:00	8	Radiación solar	201
172597	7	Sololá	712	San Antonio Palopó	9	San Antonio Palopo	5	Mayo	2023-05-22T00:00:00	2024-11-08T16:00:00	2	Temperatura media	22.8
172598	7	Sololá	712	San Antonio Palopó	9	San Antonio Palopo	5	Mayo	2023-05-22T00:00:00	2024-11-08T16:00:00	4	Temperatura máxima	23.8
172599	7	Sololá	712	San Antonio Palopó	9	San Antonio Palopo	5	Mayo	2023-05-22T00:00:00	2024-11-08T16:00:00	3	Temperatura mínima	22.7
172600	7	Sololá	712	San Antonio Palopó	9	San Antonio Palopo	5	Mayo	2023-05-22T00:00:00	2024-11-08T16:00:00	5	Humedad	78
172601	7	Sololá	712	San Antonio Palopó	9	San Antonio Palopo	5	Mayo	2023-05-22T00:00:00	2024-11-08T16:00:00	6	Velocidad del viento	3.2
172602	7	Sololá	712	San Antonio Palopó	9	San Antonio Palopo	5	Mayo	2023-05-22T00:00:00	2024-11-08T16:00:00	7	Dirección del viento	3.22
172603	7	Sololá	712	San Antonio Palopó	9	San Antonio Palopo	5	Mayo	2023-05-22T00:00:00	2024-11-08T16:00:00	1	Precipitación	0
172604	7	Sololá	712	San Antonio Palopó	9	San Antonio Palopo	5	Mayo	2023-05-22T00:00:00	2024-11-08T16:00:00	8	Radiación solar	172
172605	7	Sololá	712	San Antonio Palopó	9	San Antonio Palopo	5	Mayo	2023-05-22T00:00:00	2024-11-08T17:00:00	2	Temperatura media	22.8
172606	7	Sololá	712	San Antonio Palopó	9	San Antonio Palopo	5	Mayo	2023-05-22T00:00:00	2024-11-08T17:00:00	4	Temperatura máxima	24.4
172607	7	Sololá	712	San Antonio Palopó	9	San Antonio Palopo	5	Mayo	2023-05-22T00:00:00	2024-11-08T17:00:00	3	Temperatura mínima	22.6
172608	7	Sololá	712	San Antonio Palopó	9	San Antonio Palopo	5	Mayo	2023-05-22T00:00:00	2024-11-08T17:00:00	5	Humedad	79
172609	7	Sololá	712	San Antonio Palopó	9	San Antonio Palopo	5	Mayo	2023-05-22T00:00:00	2024-11-08T17:00:00	6	Velocidad del viento	3.2
172610	7	Sololá	712	San Antonio Palopó	9	San Antonio Palopo	5	Mayo	2023-05-22T00:00:00	2024-11-08T17:00:00	7	Dirección del viento	3.22
172611	7	Sololá	712	San Antonio Palopó	9	San Antonio Palopo	5	Mayo	2023-05-22T00:00:00	2024-11-08T17:00:00	1	Precipitación	0
172612	7	Sololá	712	San Antonio Palopó	9	San Antonio Palopo	5	Mayo	2023-05-22T00:00:00	2024-11-08T17:00:00	8	Radiación solar	216
172613	7	Sololá	712	San Antonio Palopó	9	San Antonio Palopo	5	Mayo	2023-05-22T00:00:00	2024-11-08T18:00:00	2	Temperatura media	22.4
172614	7	Sololá	712	San Antonio Palopó	9	San Antonio Palopo	5	Mayo	2023-05-22T00:00:00	2024-11-08T18:00:00	4	Temperatura máxima	22.8
172615	7	Sololá	712	San Antonio Palopó	9	San Antonio Palopo	5	Mayo	2023-05-22T00:00:00	2024-11-08T18:00:00	3	Temperatura mínima	22.1
172616	7	Sololá	712	San Antonio Palopó	9	San Antonio Palopo	5	Mayo	2023-05-22T00:00:00	2024-11-08T18:00:00	5	Humedad	79
172617	7	Sololá	712	San Antonio Palopó	9	San Antonio Palopo	5	Mayo	2023-05-22T00:00:00	2024-11-08T18:00:00	6	Velocidad del viento	3.2
172618	7	Sololá	712	San Antonio Palopó	9	San Antonio Palopo	5	Mayo	2023-05-22T00:00:00	2024-11-08T18:00:00	7	Dirección del viento	3.22
172619	7	Sololá	712	San Antonio Palopó	9	San Antonio Palopo	5	Mayo	2023-05-22T00:00:00	2024-11-08T18:00:00	1	Precipitación	0
172620	7	Sololá	712	San Antonio Palopó	9	San Antonio Palopo	5	Mayo	2023-05-22T00:00:00	2024-11-08T18:00:00	8	Radiación solar	73
172621	7	Sololá	712	San Antonio Palopó	9	San Antonio Palopo	5	Mayo	2023-05-22T00:00:00	2024-11-08T19:00:00	2	Temperatura media	21.4
172622	7	Sololá	712	San Antonio Palopó	9	San Antonio Palopo	5	Mayo	2023-05-22T00:00:00	2024-11-08T19:00:00	4	Temperatura máxima	22.5
172623	7	Sololá	712	San Antonio Palopó	9	San Antonio Palopo	5	Mayo	2023-05-22T00:00:00	2024-11-08T19:00:00	3	Temperatura mínima	21.4
172624	7	Sololá	712	San Antonio Palopó	9	San Antonio Palopo	5	Mayo	2023-05-22T00:00:00	2024-11-08T19:00:00	5	Humedad	82
172625	7	Sololá	712	San Antonio Palopó	9	San Antonio Palopo	5	Mayo	2023-05-22T00:00:00	2024-11-08T19:00:00	6	Velocidad del viento	3.2
172626	7	Sololá	712	San Antonio Palopó	9	San Antonio Palopo	5	Mayo	2023-05-22T00:00:00	2024-11-08T19:00:00	7	Dirección del viento	3.22
172627	7	Sololá	712	San Antonio Palopó	9	San Antonio Palopo	5	Mayo	2023-05-22T00:00:00	2024-11-08T19:00:00	1	Precipitación	0
172628	7	Sololá	712	San Antonio Palopó	9	San Antonio Palopo	5	Mayo	2023-05-22T00:00:00	2024-11-08T19:00:00	8	Radiación solar	0
172629	7	Sololá	712	San Antonio Palopó	9	San Antonio Palopo	5	Mayo	2023-05-22T00:00:00	2024-11-08T20:00:00	2	Temperatura media	21.3
172630	7	Sololá	712	San Antonio Palopó	9	San Antonio Palopo	5	Mayo	2023-05-22T00:00:00	2024-11-08T20:00:00	4	Temperatura máxima	21.4
172631	7	Sololá	712	San Antonio Palopó	9	San Antonio Palopo	5	Mayo	2023-05-22T00:00:00	2024-11-08T20:00:00	3	Temperatura mínima	21.2
172632	7	Sololá	712	San Antonio Palopó	9	San Antonio Palopo	5	Mayo	2023-05-22T00:00:00	2024-11-08T20:00:00	5	Humedad	79
172633	7	Sololá	712	San Antonio Palopó	9	San Antonio Palopo	5	Mayo	2023-05-22T00:00:00	2024-11-08T20:00:00	6	Velocidad del viento	3.2
172634	7	Sololá	712	San Antonio Palopó	9	San Antonio Palopo	5	Mayo	2023-05-22T00:00:00	2024-11-08T20:00:00	7	Dirección del viento	3.22
172635	7	Sololá	712	San Antonio Palopó	9	San Antonio Palopo	5	Mayo	2023-05-22T00:00:00	2024-11-08T20:00:00	1	Precipitación	0
172636	7	Sololá	712	San Antonio Palopó	9	San Antonio Palopo	5	Mayo	2023-05-22T00:00:00	2024-11-08T20:00:00	8	Radiación solar	0
172637	7	Sololá	712	San Antonio Palopó	9	San Antonio Palopo	5	Mayo	2023-05-22T00:00:00	2024-11-08T21:00:00	2	Temperatura media	21.1
172638	7	Sololá	712	San Antonio Palopó	9	San Antonio Palopo	5	Mayo	2023-05-22T00:00:00	2024-11-08T21:00:00	4	Temperatura máxima	21.4
172639	7	Sololá	712	San Antonio Palopó	9	San Antonio Palopo	5	Mayo	2023-05-22T00:00:00	2024-11-08T21:00:00	3	Temperatura mínima	21
172640	7	Sololá	712	San Antonio Palopó	9	San Antonio Palopo	5	Mayo	2023-05-22T00:00:00	2024-11-08T21:00:00	5	Humedad	77
172641	7	Sololá	712	San Antonio Palopó	9	San Antonio Palopo	5	Mayo	2023-05-22T00:00:00	2024-11-08T21:00:00	6	Velocidad del viento	3.2
172642	7	Sololá	712	San Antonio Palopó	9	San Antonio Palopo	5	Mayo	2023-05-22T00:00:00	2024-11-08T21:00:00	7	Dirección del viento	3.22
172643	7	Sololá	712	San Antonio Palopó	9	San Antonio Palopo	5	Mayo	2023-05-22T00:00:00	2024-11-08T21:00:00	1	Precipitación	0
172644	7	Sololá	712	San Antonio Palopó	9	San Antonio Palopo	5	Mayo	2023-05-22T00:00:00	2024-11-08T21:00:00	8	Radiación solar	0
172645	7	Sololá	712	San Antonio Palopó	9	San Antonio Palopo	5	Mayo	2023-05-22T00:00:00	2024-11-08T22:00:00	2	Temperatura media	20.9
172646	7	Sololá	712	San Antonio Palopó	9	San Antonio Palopo	5	Mayo	2023-05-22T00:00:00	2024-11-08T22:00:00	4	Temperatura máxima	21.4
172647	7	Sololá	712	San Antonio Palopó	9	San Antonio Palopo	5	Mayo	2023-05-22T00:00:00	2024-11-08T22:00:00	3	Temperatura mínima	20.7
172648	7	Sololá	712	San Antonio Palopó	9	San Antonio Palopo	5	Mayo	2023-05-22T00:00:00	2024-11-08T22:00:00	5	Humedad	72
172649	7	Sololá	712	San Antonio Palopó	9	San Antonio Palopo	5	Mayo	2023-05-22T00:00:00	2024-11-08T22:00:00	6	Velocidad del viento	4.8
172650	7	Sololá	712	San Antonio Palopó	9	San Antonio Palopo	5	Mayo	2023-05-22T00:00:00	2024-11-08T22:00:00	7	Dirección del viento	4.83
172651	7	Sololá	712	San Antonio Palopó	9	San Antonio Palopo	5	Mayo	2023-05-22T00:00:00	2024-11-08T22:00:00	1	Precipitación	0
172652	7	Sololá	712	San Antonio Palopó	9	San Antonio Palopo	5	Mayo	2023-05-22T00:00:00	2024-11-08T22:00:00	8	Radiación solar	0
172653	7	Sololá	712	San Antonio Palopó	9	San Antonio Palopo	5	Mayo	2023-05-22T00:00:00	2024-11-08T23:00:00	2	Temperatura media	20.6
172654	7	Sololá	712	San Antonio Palopó	9	San Antonio Palopo	5	Mayo	2023-05-22T00:00:00	2024-11-08T23:00:00	4	Temperatura máxima	21.1
172655	7	Sololá	712	San Antonio Palopó	9	San Antonio Palopo	5	Mayo	2023-05-22T00:00:00	2024-11-08T23:00:00	3	Temperatura mínima	20.4
172656	7	Sololá	712	San Antonio Palopó	9	San Antonio Palopo	5	Mayo	2023-05-22T00:00:00	2024-11-08T23:00:00	5	Humedad	75
172657	7	Sololá	712	San Antonio Palopó	9	San Antonio Palopo	5	Mayo	2023-05-22T00:00:00	2024-11-08T23:00:00	6	Velocidad del viento	3.2
172658	7	Sololá	712	San Antonio Palopó	9	San Antonio Palopo	5	Mayo	2023-05-22T00:00:00	2024-11-08T23:00:00	7	Dirección del viento	3.22
172659	7	Sololá	712	San Antonio Palopó	9	San Antonio Palopo	5	Mayo	2023-05-22T00:00:00	2024-11-08T23:00:00	1	Precipitación	0
172660	7	Sololá	712	San Antonio Palopó	9	San Antonio Palopo	5	Mayo	2023-05-22T00:00:00	2024-11-08T23:00:00	8	Radiación solar	0
172661	7	Sololá	712	San Antonio Palopó	9	San Antonio Palopo	5	Mayo	2023-05-23T00:00:00	2024-11-08T00:00:00	2	Temperatura media	20.1
172662	7	Sololá	712	San Antonio Palopó	9	San Antonio Palopo	5	Mayo	2023-05-23T00:00:00	2024-11-08T00:00:00	4	Temperatura máxima	20.6
172663	7	Sololá	712	San Antonio Palopó	9	San Antonio Palopo	5	Mayo	2023-05-23T00:00:00	2024-11-08T00:00:00	3	Temperatura mínima	19.8
172664	7	Sololá	712	San Antonio Palopó	9	San Antonio Palopo	5	Mayo	2023-05-23T00:00:00	2024-11-08T00:00:00	5	Humedad	74
172665	7	Sololá	712	San Antonio Palopó	9	San Antonio Palopo	5	Mayo	2023-05-23T00:00:00	2024-11-08T00:00:00	6	Velocidad del viento	3.2
172666	7	Sololá	712	San Antonio Palopó	9	San Antonio Palopo	5	Mayo	2023-05-23T00:00:00	2024-11-08T00:00:00	7	Dirección del viento	3.22
172667	7	Sololá	712	San Antonio Palopó	9	San Antonio Palopo	5	Mayo	2023-05-23T00:00:00	2024-11-08T00:00:00	1	Precipitación	0
172668	7	Sololá	712	San Antonio Palopó	9	San Antonio Palopo	5	Mayo	2023-05-23T00:00:00	2024-11-08T00:00:00	8	Radiación solar	0
172669	7	Sololá	712	San Antonio Palopó	9	San Antonio Palopo	5	Mayo	2023-05-23T00:00:00	2024-11-08T01:00:00	2	Temperatura media	19.4
172670	7	Sololá	712	San Antonio Palopó	9	San Antonio Palopo	5	Mayo	2023-05-23T00:00:00	2024-11-08T01:00:00	4	Temperatura máxima	20.1
172671	7	Sololá	712	San Antonio Palopó	9	San Antonio Palopo	5	Mayo	2023-05-23T00:00:00	2024-11-08T01:00:00	3	Temperatura mínima	19.4
172672	7	Sololá	712	San Antonio Palopó	9	San Antonio Palopo	5	Mayo	2023-05-23T00:00:00	2024-11-08T01:00:00	5	Humedad	80
172673	7	Sololá	712	San Antonio Palopó	9	San Antonio Palopo	5	Mayo	2023-05-23T00:00:00	2024-11-08T01:00:00	6	Velocidad del viento	4.8
172674	7	Sololá	712	San Antonio Palopó	9	San Antonio Palopo	5	Mayo	2023-05-23T00:00:00	2024-11-08T01:00:00	7	Dirección del viento	4.83
172675	7	Sololá	712	San Antonio Palopó	9	San Antonio Palopo	5	Mayo	2023-05-23T00:00:00	2024-11-08T01:00:00	1	Precipitación	0
172676	7	Sololá	712	San Antonio Palopó	9	San Antonio Palopo	5	Mayo	2023-05-23T00:00:00	2024-11-08T01:00:00	8	Radiación solar	0
172677	7	Sololá	712	San Antonio Palopó	9	San Antonio Palopo	5	Mayo	2023-05-23T00:00:00	2024-11-08T02:00:00	2	Temperatura media	19.9
172678	7	Sololá	712	San Antonio Palopó	9	San Antonio Palopo	5	Mayo	2023-05-23T00:00:00	2024-11-08T02:00:00	4	Temperatura máxima	20
172679	7	Sololá	712	San Antonio Palopó	9	San Antonio Palopo	5	Mayo	2023-05-23T00:00:00	2024-11-08T02:00:00	3	Temperatura mínima	19.4
172680	7	Sololá	712	San Antonio Palopó	9	San Antonio Palopo	5	Mayo	2023-05-23T00:00:00	2024-11-08T02:00:00	5	Humedad	73
172681	7	Sololá	712	San Antonio Palopó	9	San Antonio Palopo	5	Mayo	2023-05-23T00:00:00	2024-11-08T02:00:00	6	Velocidad del viento	6.4
172682	7	Sololá	712	San Antonio Palopó	9	San Antonio Palopo	5	Mayo	2023-05-23T00:00:00	2024-11-08T02:00:00	7	Dirección del viento	6.44
172683	7	Sololá	712	San Antonio Palopó	9	San Antonio Palopo	5	Mayo	2023-05-23T00:00:00	2024-11-08T02:00:00	1	Precipitación	0
172684	7	Sololá	712	San Antonio Palopó	9	San Antonio Palopo	5	Mayo	2023-05-23T00:00:00	2024-11-08T02:00:00	8	Radiación solar	0
172685	7	Sololá	712	San Antonio Palopó	9	San Antonio Palopo	5	Mayo	2023-05-23T00:00:00	2024-11-08T03:00:00	2	Temperatura media	19.6
172686	7	Sololá	712	San Antonio Palopó	9	San Antonio Palopo	5	Mayo	2023-05-23T00:00:00	2024-11-08T03:00:00	4	Temperatura máxima	19.9
172687	7	Sololá	712	San Antonio Palopó	9	San Antonio Palopo	5	Mayo	2023-05-23T00:00:00	2024-11-08T03:00:00	3	Temperatura mínima	18.8
172688	7	Sololá	712	San Antonio Palopó	9	San Antonio Palopo	5	Mayo	2023-05-23T00:00:00	2024-11-08T03:00:00	5	Humedad	73
172689	7	Sololá	712	San Antonio Palopó	9	San Antonio Palopo	5	Mayo	2023-05-23T00:00:00	2024-11-08T03:00:00	6	Velocidad del viento	4.8
172690	7	Sololá	712	San Antonio Palopó	9	San Antonio Palopo	5	Mayo	2023-05-23T00:00:00	2024-11-08T03:00:00	7	Dirección del viento	4.83
172691	7	Sololá	712	San Antonio Palopó	9	San Antonio Palopo	5	Mayo	2023-05-23T00:00:00	2024-11-08T03:00:00	1	Precipitación	0
172692	7	Sololá	712	San Antonio Palopó	9	San Antonio Palopo	5	Mayo	2023-05-23T00:00:00	2024-11-08T03:00:00	8	Radiación solar	0
172693	7	Sololá	712	San Antonio Palopó	9	San Antonio Palopo	5	Mayo	2023-05-23T00:00:00	2024-11-08T04:00:00	2	Temperatura media	19.2
172694	7	Sololá	712	San Antonio Palopó	9	San Antonio Palopo	5	Mayo	2023-05-23T00:00:00	2024-11-08T04:00:00	4	Temperatura máxima	19.7
172695	7	Sololá	712	San Antonio Palopó	9	San Antonio Palopo	5	Mayo	2023-05-23T00:00:00	2024-11-08T04:00:00	3	Temperatura mínima	19.1
172696	7	Sololá	712	San Antonio Palopó	9	San Antonio Palopo	5	Mayo	2023-05-23T00:00:00	2024-11-08T04:00:00	5	Humedad	74
172697	7	Sololá	712	San Antonio Palopó	9	San Antonio Palopo	5	Mayo	2023-05-23T00:00:00	2024-11-08T04:00:00	6	Velocidad del viento	3.2
172698	7	Sololá	712	San Antonio Palopó	9	San Antonio Palopo	5	Mayo	2023-05-23T00:00:00	2024-11-08T04:00:00	7	Dirección del viento	3.22
172699	7	Sololá	712	San Antonio Palopó	9	San Antonio Palopo	5	Mayo	2023-05-23T00:00:00	2024-11-08T04:00:00	1	Precipitación	0
172700	7	Sololá	712	San Antonio Palopó	9	San Antonio Palopo	5	Mayo	2023-05-23T00:00:00	2024-11-08T04:00:00	8	Radiación solar	0
172701	7	Sololá	712	San Antonio Palopó	9	San Antonio Palopo	5	Mayo	2023-05-23T00:00:00	2024-11-08T05:00:00	2	Temperatura media	19.4
172702	7	Sololá	712	San Antonio Palopó	9	San Antonio Palopo	5	Mayo	2023-05-23T00:00:00	2024-11-08T05:00:00	4	Temperatura máxima	19.6
172703	7	Sololá	712	San Antonio Palopó	9	San Antonio Palopo	5	Mayo	2023-05-23T00:00:00	2024-11-08T05:00:00	3	Temperatura mínima	19.2
172704	7	Sololá	712	San Antonio Palopó	9	San Antonio Palopo	5	Mayo	2023-05-23T00:00:00	2024-11-08T05:00:00	5	Humedad	73
172705	7	Sololá	712	San Antonio Palopó	9	San Antonio Palopo	5	Mayo	2023-05-23T00:00:00	2024-11-08T05:00:00	6	Velocidad del viento	6.4
172706	7	Sololá	712	San Antonio Palopó	9	San Antonio Palopo	5	Mayo	2023-05-23T00:00:00	2024-11-08T05:00:00	7	Dirección del viento	6.44
172707	7	Sololá	712	San Antonio Palopó	9	San Antonio Palopo	5	Mayo	2023-05-23T00:00:00	2024-11-08T05:00:00	1	Precipitación	0
172708	7	Sololá	712	San Antonio Palopó	9	San Antonio Palopo	5	Mayo	2023-05-23T00:00:00	2024-11-08T05:00:00	8	Radiación solar	0
172709	7	Sololá	712	San Antonio Palopó	9	San Antonio Palopo	5	Mayo	2023-05-23T00:00:00	2024-11-08T06:00:00	2	Temperatura media	19.2
172710	7	Sololá	712	San Antonio Palopó	9	San Antonio Palopo	5	Mayo	2023-05-23T00:00:00	2024-11-08T06:00:00	4	Temperatura máxima	19.4
172711	7	Sololá	712	San Antonio Palopó	9	San Antonio Palopo	5	Mayo	2023-05-23T00:00:00	2024-11-08T06:00:00	3	Temperatura mínima	19.1
172712	7	Sololá	712	San Antonio Palopó	9	San Antonio Palopo	5	Mayo	2023-05-23T00:00:00	2024-11-08T06:00:00	5	Humedad	74
172713	7	Sololá	712	San Antonio Palopó	9	San Antonio Palopo	5	Mayo	2023-05-23T00:00:00	2024-11-08T06:00:00	6	Velocidad del viento	9.7
172714	7	Sololá	712	San Antonio Palopó	9	San Antonio Palopo	5	Mayo	2023-05-23T00:00:00	2024-11-08T06:00:00	7	Dirección del viento	9.66
172715	7	Sololá	712	San Antonio Palopó	9	San Antonio Palopo	5	Mayo	2023-05-23T00:00:00	2024-11-08T06:00:00	1	Precipitación	0
172716	7	Sololá	712	San Antonio Palopó	9	San Antonio Palopo	5	Mayo	2023-05-23T00:00:00	2024-11-08T06:00:00	8	Radiación solar	8
172717	7	Sololá	712	San Antonio Palopó	9	San Antonio Palopo	5	Mayo	2023-05-23T00:00:00	2024-11-08T07:00:00	2	Temperatura media	19.9
172718	7	Sololá	712	San Antonio Palopó	9	San Antonio Palopo	5	Mayo	2023-05-23T00:00:00	2024-11-08T07:00:00	4	Temperatura máxima	19.9
172719	7	Sololá	712	San Antonio Palopó	9	San Antonio Palopo	5	Mayo	2023-05-23T00:00:00	2024-11-08T07:00:00	3	Temperatura mínima	19.1
172720	7	Sololá	712	San Antonio Palopó	9	San Antonio Palopo	5	Mayo	2023-05-23T00:00:00	2024-11-08T07:00:00	5	Humedad	71
172721	7	Sololá	712	San Antonio Palopó	9	San Antonio Palopo	5	Mayo	2023-05-23T00:00:00	2024-11-08T07:00:00	6	Velocidad del viento	11.3
172722	7	Sololá	712	San Antonio Palopó	9	San Antonio Palopo	5	Mayo	2023-05-23T00:00:00	2024-11-08T07:00:00	7	Dirección del viento	11.27
172723	7	Sololá	712	San Antonio Palopó	9	San Antonio Palopo	5	Mayo	2023-05-23T00:00:00	2024-11-08T07:00:00	1	Precipitación	0
172724	7	Sololá	712	San Antonio Palopó	9	San Antonio Palopo	5	Mayo	2023-05-23T00:00:00	2024-11-08T07:00:00	8	Radiación solar	74
172725	7	Sololá	712	San Antonio Palopó	9	San Antonio Palopo	5	Mayo	2023-05-23T00:00:00	2024-11-08T08:00:00	2	Temperatura media	21.2
172726	7	Sololá	712	San Antonio Palopó	9	San Antonio Palopo	5	Mayo	2023-05-23T00:00:00	2024-11-08T08:00:00	4	Temperatura máxima	21.5
172727	7	Sololá	712	San Antonio Palopó	9	San Antonio Palopo	5	Mayo	2023-05-23T00:00:00	2024-11-08T08:00:00	3	Temperatura mínima	19.9
172728	7	Sololá	712	San Antonio Palopó	9	San Antonio Palopo	5	Mayo	2023-05-23T00:00:00	2024-11-08T08:00:00	5	Humedad	71
172729	7	Sololá	712	San Antonio Palopó	9	San Antonio Palopo	5	Mayo	2023-05-23T00:00:00	2024-11-08T08:00:00	6	Velocidad del viento	3.2
172730	7	Sololá	712	San Antonio Palopó	9	San Antonio Palopo	5	Mayo	2023-05-23T00:00:00	2024-11-08T08:00:00	7	Dirección del viento	3.22
172731	7	Sololá	712	San Antonio Palopó	9	San Antonio Palopo	5	Mayo	2023-05-23T00:00:00	2024-11-08T08:00:00	1	Precipitación	0
172732	7	Sololá	712	San Antonio Palopó	9	San Antonio Palopo	5	Mayo	2023-05-23T00:00:00	2024-11-08T08:00:00	8	Radiación solar	268
172733	7	Sololá	712	San Antonio Palopó	9	San Antonio Palopo	5	Mayo	2023-05-23T00:00:00	2024-11-08T09:00:00	2	Temperatura media	21.5
172734	7	Sololá	712	San Antonio Palopó	9	San Antonio Palopo	5	Mayo	2023-05-23T00:00:00	2024-11-08T09:00:00	4	Temperatura máxima	22.1
172735	7	Sololá	712	San Antonio Palopó	9	San Antonio Palopo	5	Mayo	2023-05-23T00:00:00	2024-11-08T09:00:00	3	Temperatura mínima	21.2
172736	7	Sololá	712	San Antonio Palopó	9	San Antonio Palopo	5	Mayo	2023-05-23T00:00:00	2024-11-08T09:00:00	5	Humedad	71
172737	7	Sololá	712	San Antonio Palopó	9	San Antonio Palopo	5	Mayo	2023-05-23T00:00:00	2024-11-08T09:00:00	6	Velocidad del viento	3.2
172738	7	Sololá	712	San Antonio Palopó	9	San Antonio Palopo	5	Mayo	2023-05-23T00:00:00	2024-11-08T09:00:00	7	Dirección del viento	3.22
172739	7	Sololá	712	San Antonio Palopó	9	San Antonio Palopo	5	Mayo	2023-05-23T00:00:00	2024-11-08T09:00:00	1	Precipitación	0
172740	7	Sololá	712	San Antonio Palopó	9	San Antonio Palopo	5	Mayo	2023-05-23T00:00:00	2024-11-08T09:00:00	8	Radiación solar	512
172741	7	Sololá	712	San Antonio Palopó	9	San Antonio Palopo	5	Mayo	2023-05-23T00:00:00	2024-11-08T10:00:00	2	Temperatura media	23
172742	7	Sololá	712	San Antonio Palopó	9	San Antonio Palopo	5	Mayo	2023-05-23T00:00:00	2024-11-08T10:00:00	4	Temperatura máxima	23
172743	7	Sololá	712	San Antonio Palopó	9	San Antonio Palopo	5	Mayo	2023-05-23T00:00:00	2024-11-08T10:00:00	3	Temperatura mínima	21.4
172744	7	Sololá	712	San Antonio Palopó	9	San Antonio Palopo	5	Mayo	2023-05-23T00:00:00	2024-11-08T10:00:00	5	Humedad	68
172745	7	Sololá	712	San Antonio Palopó	9	San Antonio Palopo	5	Mayo	2023-05-23T00:00:00	2024-11-08T10:00:00	6	Velocidad del viento	3.2
172746	7	Sololá	712	San Antonio Palopó	9	San Antonio Palopo	5	Mayo	2023-05-23T00:00:00	2024-11-08T10:00:00	7	Dirección del viento	3.22
172747	7	Sololá	712	San Antonio Palopó	9	San Antonio Palopo	5	Mayo	2023-05-23T00:00:00	2024-11-08T10:00:00	1	Precipitación	0
172748	7	Sololá	712	San Antonio Palopó	9	San Antonio Palopo	5	Mayo	2023-05-23T00:00:00	2024-11-08T10:00:00	8	Radiación solar	639
172749	7	Sololá	712	San Antonio Palopó	9	San Antonio Palopo	5	Mayo	2023-05-23T00:00:00	2024-11-08T11:00:00	2	Temperatura media	23.4
172750	7	Sololá	712	San Antonio Palopó	9	San Antonio Palopo	5	Mayo	2023-05-23T00:00:00	2024-11-08T11:00:00	4	Temperatura máxima	23.6
172751	7	Sololá	712	San Antonio Palopó	9	San Antonio Palopo	5	Mayo	2023-05-23T00:00:00	2024-11-08T11:00:00	3	Temperatura mínima	22.7
172752	7	Sololá	712	San Antonio Palopó	9	San Antonio Palopo	5	Mayo	2023-05-23T00:00:00	2024-11-08T11:00:00	5	Humedad	66
172753	7	Sololá	712	San Antonio Palopó	9	San Antonio Palopo	5	Mayo	2023-05-23T00:00:00	2024-11-08T11:00:00	6	Velocidad del viento	4.8
172754	7	Sololá	712	San Antonio Palopó	9	San Antonio Palopo	5	Mayo	2023-05-23T00:00:00	2024-11-08T11:00:00	7	Dirección del viento	4.83
172755	7	Sololá	712	San Antonio Palopó	9	San Antonio Palopo	5	Mayo	2023-05-23T00:00:00	2024-11-08T11:00:00	1	Precipitación	0
172756	7	Sololá	712	San Antonio Palopó	9	San Antonio Palopo	5	Mayo	2023-05-23T00:00:00	2024-11-08T11:00:00	8	Radiación solar	575
172757	7	Sololá	712	San Antonio Palopó	9	San Antonio Palopo	5	Mayo	2023-05-23T00:00:00	2024-11-08T12:00:00	2	Temperatura media	23.4
172758	7	Sololá	712	San Antonio Palopó	9	San Antonio Palopo	5	Mayo	2023-05-23T00:00:00	2024-11-08T12:00:00	4	Temperatura máxima	23.9
172759	7	Sololá	712	San Antonio Palopó	9	San Antonio Palopo	5	Mayo	2023-05-23T00:00:00	2024-11-08T12:00:00	3	Temperatura mínima	23.4
172760	7	Sololá	712	San Antonio Palopó	9	San Antonio Palopo	5	Mayo	2023-05-23T00:00:00	2024-11-08T12:00:00	5	Humedad	68
172761	7	Sololá	712	San Antonio Palopó	9	San Antonio Palopo	5	Mayo	2023-05-23T00:00:00	2024-11-08T12:00:00	6	Velocidad del viento	11.3
172762	7	Sololá	712	San Antonio Palopó	9	San Antonio Palopo	5	Mayo	2023-05-23T00:00:00	2024-11-08T12:00:00	7	Dirección del viento	11.27
172763	7	Sololá	712	San Antonio Palopó	9	San Antonio Palopo	5	Mayo	2023-05-23T00:00:00	2024-11-08T12:00:00	1	Precipitación	0
172764	7	Sololá	712	San Antonio Palopó	9	San Antonio Palopo	5	Mayo	2023-05-23T00:00:00	2024-11-08T12:00:00	8	Radiación solar	859
172765	7	Sololá	712	San Antonio Palopó	9	San Antonio Palopo	5	Mayo	2023-05-23T00:00:00	2024-11-08T13:00:00	2	Temperatura media	24.1
172766	7	Sololá	712	San Antonio Palopó	9	San Antonio Palopo	5	Mayo	2023-05-23T00:00:00	2024-11-08T13:00:00	4	Temperatura máxima	24.1
172767	7	Sololá	712	San Antonio Palopó	9	San Antonio Palopo	5	Mayo	2023-05-23T00:00:00	2024-11-08T13:00:00	3	Temperatura mínima	23.2
172768	7	Sololá	712	San Antonio Palopó	9	San Antonio Palopo	5	Mayo	2023-05-23T00:00:00	2024-11-08T13:00:00	5	Humedad	68
172769	7	Sololá	712	San Antonio Palopó	9	San Antonio Palopo	5	Mayo	2023-05-23T00:00:00	2024-11-08T13:00:00	6	Velocidad del viento	11.3
172770	7	Sololá	712	San Antonio Palopó	9	San Antonio Palopo	5	Mayo	2023-05-23T00:00:00	2024-11-08T13:00:00	7	Dirección del viento	11.27
172771	7	Sololá	712	San Antonio Palopó	9	San Antonio Palopo	5	Mayo	2023-05-23T00:00:00	2024-11-08T13:00:00	1	Precipitación	0
172772	7	Sololá	712	San Antonio Palopó	9	San Antonio Palopo	5	Mayo	2023-05-23T00:00:00	2024-11-08T13:00:00	8	Radiación solar	683
172773	7	Sololá	712	San Antonio Palopó	9	San Antonio Palopo	5	Mayo	2023-05-23T00:00:00	2024-11-08T14:00:00	2	Temperatura media	23.8
172774	7	Sololá	712	San Antonio Palopó	9	San Antonio Palopo	5	Mayo	2023-05-23T00:00:00	2024-11-08T14:00:00	4	Temperatura máxima	24.8
172775	7	Sololá	712	San Antonio Palopó	9	San Antonio Palopo	5	Mayo	2023-05-23T00:00:00	2024-11-08T14:00:00	3	Temperatura mínima	23.8
172776	7	Sololá	712	San Antonio Palopó	9	San Antonio Palopo	5	Mayo	2023-05-23T00:00:00	2024-11-08T14:00:00	5	Humedad	70
172777	7	Sololá	712	San Antonio Palopó	9	San Antonio Palopo	5	Mayo	2023-05-23T00:00:00	2024-11-08T14:00:00	6	Velocidad del viento	8
172778	7	Sololá	712	San Antonio Palopó	9	San Antonio Palopo	5	Mayo	2023-05-23T00:00:00	2024-11-08T14:00:00	7	Dirección del viento	8.05
172779	7	Sololá	712	San Antonio Palopó	9	San Antonio Palopo	5	Mayo	2023-05-23T00:00:00	2024-11-08T14:00:00	1	Precipitación	0
172780	7	Sololá	712	San Antonio Palopó	9	San Antonio Palopo	5	Mayo	2023-05-23T00:00:00	2024-11-08T14:00:00	8	Radiación solar	646
172781	7	Sololá	712	San Antonio Palopó	9	San Antonio Palopo	5	Mayo	2023-05-23T00:00:00	2024-11-08T15:00:00	2	Temperatura media	24.2
172782	7	Sololá	712	San Antonio Palopó	9	San Antonio Palopo	5	Mayo	2023-05-23T00:00:00	2024-11-08T15:00:00	4	Temperatura máxima	25.1
172783	7	Sololá	712	San Antonio Palopó	9	San Antonio Palopo	5	Mayo	2023-05-23T00:00:00	2024-11-08T15:00:00	3	Temperatura mínima	23.8
172784	7	Sololá	712	San Antonio Palopó	9	San Antonio Palopo	5	Mayo	2023-05-23T00:00:00	2024-11-08T15:00:00	5	Humedad	70
172785	7	Sololá	712	San Antonio Palopó	9	San Antonio Palopo	5	Mayo	2023-05-23T00:00:00	2024-11-08T15:00:00	6	Velocidad del viento	6.4
172786	7	Sololá	712	San Antonio Palopó	9	San Antonio Palopo	5	Mayo	2023-05-23T00:00:00	2024-11-08T15:00:00	7	Dirección del viento	6.44
172787	7	Sololá	712	San Antonio Palopó	9	San Antonio Palopo	5	Mayo	2023-05-23T00:00:00	2024-11-08T15:00:00	1	Precipitación	0
172788	7	Sololá	712	San Antonio Palopó	9	San Antonio Palopo	5	Mayo	2023-05-23T00:00:00	2024-11-08T15:00:00	8	Radiación solar	511
172789	7	Sololá	712	San Antonio Palopó	9	San Antonio Palopo	5	Mayo	2023-05-23T00:00:00	2024-11-08T16:00:00	2	Temperatura media	23.3
172790	7	Sololá	712	San Antonio Palopó	9	San Antonio Palopo	5	Mayo	2023-05-23T00:00:00	2024-11-08T16:00:00	4	Temperatura máxima	24.8
172791	7	Sololá	712	San Antonio Palopó	9	San Antonio Palopo	5	Mayo	2023-05-23T00:00:00	2024-11-08T16:00:00	3	Temperatura mínima	23.2
172792	7	Sololá	712	San Antonio Palopó	9	San Antonio Palopo	5	Mayo	2023-05-23T00:00:00	2024-11-08T16:00:00	5	Humedad	74
172793	7	Sololá	712	San Antonio Palopó	9	San Antonio Palopo	5	Mayo	2023-05-23T00:00:00	2024-11-08T16:00:00	6	Velocidad del viento	4.8
172794	7	Sololá	712	San Antonio Palopó	9	San Antonio Palopo	5	Mayo	2023-05-23T00:00:00	2024-11-08T16:00:00	7	Dirección del viento	4.83
172795	7	Sololá	712	San Antonio Palopó	9	San Antonio Palopo	5	Mayo	2023-05-23T00:00:00	2024-11-08T16:00:00	1	Precipitación	0
172796	7	Sololá	712	San Antonio Palopó	9	San Antonio Palopo	5	Mayo	2023-05-23T00:00:00	2024-11-08T16:00:00	8	Radiación solar	277
172797	7	Sololá	712	San Antonio Palopó	9	San Antonio Palopo	5	Mayo	2023-05-23T00:00:00	2024-11-08T17:00:00	2	Temperatura media	22.4
172798	7	Sololá	712	San Antonio Palopó	9	San Antonio Palopo	5	Mayo	2023-05-23T00:00:00	2024-11-08T17:00:00	4	Temperatura máxima	23.6
172799	7	Sololá	712	San Antonio Palopó	9	San Antonio Palopo	5	Mayo	2023-05-23T00:00:00	2024-11-08T17:00:00	3	Temperatura mínima	22.4
172800	7	Sololá	712	San Antonio Palopó	9	San Antonio Palopo	5	Mayo	2023-05-23T00:00:00	2024-11-08T17:00:00	5	Humedad	76
172801	7	Sololá	712	San Antonio Palopó	9	San Antonio Palopo	5	Mayo	2023-05-23T00:00:00	2024-11-08T17:00:00	6	Velocidad del viento	4.8
172802	7	Sololá	712	San Antonio Palopó	9	San Antonio Palopo	5	Mayo	2023-05-23T00:00:00	2024-11-08T17:00:00	7	Dirección del viento	4.83
172803	7	Sololá	712	San Antonio Palopó	9	San Antonio Palopo	5	Mayo	2023-05-23T00:00:00	2024-11-08T17:00:00	1	Precipitación	0
172804	7	Sololá	712	San Antonio Palopó	9	San Antonio Palopo	5	Mayo	2023-05-23T00:00:00	2024-11-08T17:00:00	8	Radiación solar	169
172805	7	Sololá	712	San Antonio Palopó	9	San Antonio Palopo	5	Mayo	2023-05-23T00:00:00	2024-11-08T18:00:00	2	Temperatura media	22.2
172806	7	Sololá	712	San Antonio Palopó	9	San Antonio Palopo	5	Mayo	2023-05-23T00:00:00	2024-11-08T18:00:00	4	Temperatura máxima	22.5
172807	7	Sololá	712	San Antonio Palopó	9	San Antonio Palopo	5	Mayo	2023-05-23T00:00:00	2024-11-08T18:00:00	3	Temperatura mínima	22.1
172808	7	Sololá	712	San Antonio Palopó	9	San Antonio Palopo	5	Mayo	2023-05-23T00:00:00	2024-11-08T18:00:00	5	Humedad	73
172809	7	Sololá	712	San Antonio Palopó	9	San Antonio Palopo	5	Mayo	2023-05-23T00:00:00	2024-11-08T18:00:00	6	Velocidad del viento	3.2
172810	7	Sololá	712	San Antonio Palopó	9	San Antonio Palopo	5	Mayo	2023-05-23T00:00:00	2024-11-08T18:00:00	7	Dirección del viento	3.22
172811	7	Sololá	712	San Antonio Palopó	9	San Antonio Palopo	5	Mayo	2023-05-23T00:00:00	2024-11-08T18:00:00	1	Precipitación	0
172812	7	Sololá	712	San Antonio Palopó	9	San Antonio Palopo	5	Mayo	2023-05-23T00:00:00	2024-11-08T18:00:00	8	Radiación solar	22
172813	7	Sololá	712	San Antonio Palopó	9	San Antonio Palopo	5	Mayo	2023-05-23T00:00:00	2024-11-08T19:00:00	2	Temperatura media	21.6
172814	7	Sololá	712	San Antonio Palopó	9	San Antonio Palopo	5	Mayo	2023-05-23T00:00:00	2024-11-08T19:00:00	4	Temperatura máxima	22.2
172815	7	Sololá	712	San Antonio Palopó	9	San Antonio Palopo	5	Mayo	2023-05-23T00:00:00	2024-11-08T19:00:00	3	Temperatura mínima	21.6
172816	7	Sololá	712	San Antonio Palopó	9	San Antonio Palopo	5	Mayo	2023-05-23T00:00:00	2024-11-08T19:00:00	5	Humedad	75
172817	7	Sololá	712	San Antonio Palopó	9	San Antonio Palopo	5	Mayo	2023-05-23T00:00:00	2024-11-08T19:00:00	6	Velocidad del viento	3.2
172818	7	Sololá	712	San Antonio Palopó	9	San Antonio Palopo	5	Mayo	2023-05-23T00:00:00	2024-11-08T19:00:00	7	Dirección del viento	3.22
172819	7	Sololá	712	San Antonio Palopó	9	San Antonio Palopo	5	Mayo	2023-05-23T00:00:00	2024-11-08T19:00:00	1	Precipitación	0
172820	7	Sololá	712	San Antonio Palopó	9	San Antonio Palopo	5	Mayo	2023-05-23T00:00:00	2024-11-08T19:00:00	8	Radiación solar	0
172821	7	Sololá	712	San Antonio Palopó	9	San Antonio Palopo	5	Mayo	2023-05-23T00:00:00	2024-11-08T20:00:00	2	Temperatura media	21.4
172822	7	Sololá	712	San Antonio Palopó	9	San Antonio Palopo	5	Mayo	2023-05-23T00:00:00	2024-11-08T20:00:00	4	Temperatura máxima	21.7
172823	7	Sololá	712	San Antonio Palopó	9	San Antonio Palopo	5	Mayo	2023-05-23T00:00:00	2024-11-08T20:00:00	3	Temperatura mínima	21.4
172824	7	Sololá	712	San Antonio Palopó	9	San Antonio Palopo	5	Mayo	2023-05-23T00:00:00	2024-11-08T20:00:00	5	Humedad	79
172825	7	Sololá	712	San Antonio Palopó	9	San Antonio Palopo	5	Mayo	2023-05-23T00:00:00	2024-11-08T20:00:00	6	Velocidad del viento	3.2
172826	7	Sololá	712	San Antonio Palopó	9	San Antonio Palopo	5	Mayo	2023-05-23T00:00:00	2024-11-08T20:00:00	7	Dirección del viento	3.22
172827	7	Sololá	712	San Antonio Palopó	9	San Antonio Palopo	5	Mayo	2023-05-23T00:00:00	2024-11-08T20:00:00	1	Precipitación	0
172828	7	Sololá	712	San Antonio Palopó	9	San Antonio Palopo	5	Mayo	2023-05-23T00:00:00	2024-11-08T20:00:00	8	Radiación solar	0
172829	7	Sololá	712	San Antonio Palopó	9	San Antonio Palopo	5	Mayo	2023-05-23T00:00:00	2024-11-08T21:00:00	2	Temperatura media	20.9
172830	7	Sololá	712	San Antonio Palopó	9	San Antonio Palopo	5	Mayo	2023-05-23T00:00:00	2024-11-08T21:00:00	4	Temperatura máxima	21.4
172831	7	Sololá	712	San Antonio Palopó	9	San Antonio Palopo	5	Mayo	2023-05-23T00:00:00	2024-11-08T21:00:00	3	Temperatura mínima	20.9
172832	7	Sololá	712	San Antonio Palopó	9	San Antonio Palopo	5	Mayo	2023-05-23T00:00:00	2024-11-08T21:00:00	5	Humedad	82
172833	7	Sololá	712	San Antonio Palopó	9	San Antonio Palopo	5	Mayo	2023-05-23T00:00:00	2024-11-08T21:00:00	6	Velocidad del viento	1.6
172834	7	Sololá	712	San Antonio Palopó	9	San Antonio Palopo	5	Mayo	2023-05-23T00:00:00	2024-11-08T21:00:00	7	Dirección del viento	1.61
172835	7	Sololá	712	San Antonio Palopó	9	San Antonio Palopo	5	Mayo	2023-05-23T00:00:00	2024-11-08T21:00:00	1	Precipitación	0
172836	7	Sololá	712	San Antonio Palopó	9	San Antonio Palopo	5	Mayo	2023-05-23T00:00:00	2024-11-08T21:00:00	8	Radiación solar	0
172837	7	Sololá	712	San Antonio Palopó	9	San Antonio Palopo	5	Mayo	2023-05-23T00:00:00	2024-11-08T22:00:00	2	Temperatura media	20.6
172838	7	Sololá	712	San Antonio Palopó	9	San Antonio Palopo	5	Mayo	2023-05-23T00:00:00	2024-11-08T22:00:00	4	Temperatura máxima	20.9
172839	7	Sololá	712	San Antonio Palopó	9	San Antonio Palopo	5	Mayo	2023-05-23T00:00:00	2024-11-08T22:00:00	3	Temperatura mínima	20.1
172840	7	Sololá	712	San Antonio Palopó	9	San Antonio Palopo	5	Mayo	2023-05-23T00:00:00	2024-11-08T22:00:00	5	Humedad	74
172841	7	Sololá	712	San Antonio Palopó	9	San Antonio Palopo	5	Mayo	2023-05-23T00:00:00	2024-11-08T22:00:00	6	Velocidad del viento	1.6
172842	7	Sololá	712	San Antonio Palopó	9	San Antonio Palopo	5	Mayo	2023-05-23T00:00:00	2024-11-08T22:00:00	7	Dirección del viento	1.61
172843	7	Sololá	712	San Antonio Palopó	9	San Antonio Palopo	5	Mayo	2023-05-23T00:00:00	2024-11-08T22:00:00	1	Precipitación	0
172844	7	Sololá	712	San Antonio Palopó	9	San Antonio Palopo	5	Mayo	2023-05-23T00:00:00	2024-11-08T22:00:00	8	Radiación solar	0
172845	7	Sololá	712	San Antonio Palopó	9	San Antonio Palopo	5	Mayo	2023-05-23T00:00:00	2024-11-08T23:00:00	2	Temperatura media	20.2
172846	7	Sololá	712	San Antonio Palopó	9	San Antonio Palopo	5	Mayo	2023-05-23T00:00:00	2024-11-08T23:00:00	4	Temperatura máxima	20.8
172847	7	Sololá	712	San Antonio Palopó	9	San Antonio Palopo	5	Mayo	2023-05-23T00:00:00	2024-11-08T23:00:00	3	Temperatura mínima	20.2
172848	7	Sololá	712	San Antonio Palopó	9	San Antonio Palopo	5	Mayo	2023-05-23T00:00:00	2024-11-08T23:00:00	5	Humedad	74
172849	7	Sololá	712	San Antonio Palopó	9	San Antonio Palopo	5	Mayo	2023-05-23T00:00:00	2024-11-08T23:00:00	6	Velocidad del viento	3.2
172850	7	Sololá	712	San Antonio Palopó	9	San Antonio Palopo	5	Mayo	2023-05-23T00:00:00	2024-11-08T23:00:00	7	Dirección del viento	3.22
172851	7	Sololá	712	San Antonio Palopó	9	San Antonio Palopo	5	Mayo	2023-05-23T00:00:00	2024-11-08T23:00:00	1	Precipitación	0
172852	7	Sololá	712	San Antonio Palopó	9	San Antonio Palopo	5	Mayo	2023-05-23T00:00:00	2024-11-08T23:00:00	8	Radiación solar	0
172853	7	Sololá	712	San Antonio Palopó	9	San Antonio Palopo	5	Mayo	2023-05-24T00:00:00	2024-11-08T00:00:00	2	Temperatura media	19.9
172854	7	Sololá	712	San Antonio Palopó	9	San Antonio Palopo	5	Mayo	2023-05-24T00:00:00	2024-11-08T00:00:00	4	Temperatura máxima	20.4
172855	7	Sololá	712	San Antonio Palopó	9	San Antonio Palopo	5	Mayo	2023-05-24T00:00:00	2024-11-08T00:00:00	3	Temperatura mínima	19.9
172856	7	Sololá	712	San Antonio Palopó	9	San Antonio Palopo	5	Mayo	2023-05-24T00:00:00	2024-11-08T00:00:00	5	Humedad	75
172857	7	Sololá	712	San Antonio Palopó	9	San Antonio Palopo	5	Mayo	2023-05-24T00:00:00	2024-11-08T00:00:00	6	Velocidad del viento	4.8
172858	7	Sololá	712	San Antonio Palopó	9	San Antonio Palopo	5	Mayo	2023-05-24T00:00:00	2024-11-08T00:00:00	7	Dirección del viento	4.83
172859	7	Sololá	712	San Antonio Palopó	9	San Antonio Palopo	5	Mayo	2023-05-24T00:00:00	2024-11-08T00:00:00	1	Precipitación	0
172860	7	Sololá	712	San Antonio Palopó	9	San Antonio Palopo	5	Mayo	2023-05-24T00:00:00	2024-11-08T00:00:00	8	Radiación solar	0
172861	7	Sololá	712	San Antonio Palopó	9	San Antonio Palopo	5	Mayo	2023-05-24T00:00:00	2024-11-08T01:00:00	2	Temperatura media	19.2
172862	7	Sololá	712	San Antonio Palopó	9	San Antonio Palopo	5	Mayo	2023-05-24T00:00:00	2024-11-08T01:00:00	4	Temperatura máxima	19.9
172863	7	Sololá	712	San Antonio Palopó	9	San Antonio Palopo	5	Mayo	2023-05-24T00:00:00	2024-11-08T01:00:00	3	Temperatura mínima	19.2
172864	7	Sololá	712	San Antonio Palopó	9	San Antonio Palopo	5	Mayo	2023-05-24T00:00:00	2024-11-08T01:00:00	5	Humedad	75
172865	7	Sololá	712	San Antonio Palopó	9	San Antonio Palopo	5	Mayo	2023-05-24T00:00:00	2024-11-08T01:00:00	6	Velocidad del viento	4.8
172866	7	Sololá	712	San Antonio Palopó	9	San Antonio Palopo	5	Mayo	2023-05-24T00:00:00	2024-11-08T01:00:00	7	Dirección del viento	4.83
172867	7	Sololá	712	San Antonio Palopó	9	San Antonio Palopo	5	Mayo	2023-05-24T00:00:00	2024-11-08T01:00:00	1	Precipitación	0
172868	7	Sololá	712	San Antonio Palopó	9	San Antonio Palopo	5	Mayo	2023-05-24T00:00:00	2024-11-08T01:00:00	8	Radiación solar	0
172869	7	Sololá	712	San Antonio Palopó	9	San Antonio Palopo	5	Mayo	2023-05-24T00:00:00	2024-11-08T02:00:00	2	Temperatura media	19.2
172870	7	Sololá	712	San Antonio Palopó	9	San Antonio Palopo	5	Mayo	2023-05-24T00:00:00	2024-11-08T02:00:00	4	Temperatura máxima	19.6
172871	7	Sololá	712	San Antonio Palopó	9	San Antonio Palopo	5	Mayo	2023-05-24T00:00:00	2024-11-08T02:00:00	3	Temperatura mínima	19.2
172872	7	Sololá	712	San Antonio Palopó	9	San Antonio Palopo	5	Mayo	2023-05-24T00:00:00	2024-11-08T02:00:00	5	Humedad	75
172873	7	Sololá	712	San Antonio Palopó	9	San Antonio Palopo	5	Mayo	2023-05-24T00:00:00	2024-11-08T02:00:00	6	Velocidad del viento	3.2
172874	7	Sololá	712	San Antonio Palopó	9	San Antonio Palopo	5	Mayo	2023-05-24T00:00:00	2024-11-08T02:00:00	7	Dirección del viento	3.22
172875	7	Sololá	712	San Antonio Palopó	9	San Antonio Palopo	5	Mayo	2023-05-24T00:00:00	2024-11-08T02:00:00	1	Precipitación	0
172876	7	Sololá	712	San Antonio Palopó	9	San Antonio Palopo	5	Mayo	2023-05-24T00:00:00	2024-11-08T02:00:00	8	Radiación solar	0
172877	7	Sololá	712	San Antonio Palopó	9	San Antonio Palopo	5	Mayo	2023-05-24T00:00:00	2024-11-08T03:00:00	2	Temperatura media	19.3
172878	7	Sololá	712	San Antonio Palopó	9	San Antonio Palopo	5	Mayo	2023-05-24T00:00:00	2024-11-08T03:00:00	4	Temperatura máxima	19.3
172879	7	Sololá	712	San Antonio Palopó	9	San Antonio Palopo	5	Mayo	2023-05-24T00:00:00	2024-11-08T03:00:00	3	Temperatura mínima	19.1
172880	7	Sololá	712	San Antonio Palopó	9	San Antonio Palopo	5	Mayo	2023-05-24T00:00:00	2024-11-08T03:00:00	5	Humedad	72
172881	7	Sololá	712	San Antonio Palopó	9	San Antonio Palopo	5	Mayo	2023-05-24T00:00:00	2024-11-08T03:00:00	6	Velocidad del viento	6.4
172882	7	Sololá	712	San Antonio Palopó	9	San Antonio Palopo	5	Mayo	2023-05-24T00:00:00	2024-11-08T03:00:00	7	Dirección del viento	6.44
172883	7	Sololá	712	San Antonio Palopó	9	San Antonio Palopo	5	Mayo	2023-05-24T00:00:00	2024-11-08T03:00:00	1	Precipitación	0
172884	7	Sololá	712	San Antonio Palopó	9	San Antonio Palopo	5	Mayo	2023-05-24T00:00:00	2024-11-08T03:00:00	8	Radiación solar	0
172885	7	Sololá	712	San Antonio Palopó	9	San Antonio Palopo	5	Mayo	2023-05-24T00:00:00	2024-11-08T04:00:00	2	Temperatura media	18.5
172886	7	Sololá	712	San Antonio Palopó	9	San Antonio Palopo	5	Mayo	2023-05-24T00:00:00	2024-11-08T04:00:00	4	Temperatura máxima	19.2
172887	7	Sololá	712	San Antonio Palopó	9	San Antonio Palopo	5	Mayo	2023-05-24T00:00:00	2024-11-08T04:00:00	3	Temperatura mínima	18.3
172888	7	Sololá	712	San Antonio Palopó	9	San Antonio Palopo	5	Mayo	2023-05-24T00:00:00	2024-11-08T04:00:00	5	Humedad	73
172889	7	Sololá	712	San Antonio Palopó	9	San Antonio Palopo	5	Mayo	2023-05-24T00:00:00	2024-11-08T04:00:00	6	Velocidad del viento	3.2
172890	7	Sololá	712	San Antonio Palopó	9	San Antonio Palopo	5	Mayo	2023-05-24T00:00:00	2024-11-08T04:00:00	7	Dirección del viento	3.22
172891	7	Sololá	712	San Antonio Palopó	9	San Antonio Palopo	5	Mayo	2023-05-24T00:00:00	2024-11-08T04:00:00	1	Precipitación	0
172892	7	Sololá	712	San Antonio Palopó	9	San Antonio Palopo	5	Mayo	2023-05-24T00:00:00	2024-11-08T04:00:00	8	Radiación solar	0
172893	7	Sololá	712	San Antonio Palopó	9	San Antonio Palopo	5	Mayo	2023-05-24T00:00:00	2024-11-08T05:00:00	2	Temperatura media	19.1
172894	7	Sololá	712	San Antonio Palopó	9	San Antonio Palopo	5	Mayo	2023-05-24T00:00:00	2024-11-08T05:00:00	4	Temperatura máxima	19.2
172895	7	Sololá	712	San Antonio Palopó	9	San Antonio Palopo	5	Mayo	2023-05-24T00:00:00	2024-11-08T05:00:00	3	Temperatura mínima	18.2
172896	7	Sololá	712	San Antonio Palopó	9	San Antonio Palopo	5	Mayo	2023-05-24T00:00:00	2024-11-08T05:00:00	5	Humedad	71
172897	7	Sololá	712	San Antonio Palopó	9	San Antonio Palopo	5	Mayo	2023-05-24T00:00:00	2024-11-08T05:00:00	6	Velocidad del viento	4.8
172898	7	Sololá	712	San Antonio Palopó	9	San Antonio Palopo	5	Mayo	2023-05-24T00:00:00	2024-11-08T05:00:00	7	Dirección del viento	4.83
172899	7	Sololá	712	San Antonio Palopó	9	San Antonio Palopo	5	Mayo	2023-05-24T00:00:00	2024-11-08T05:00:00	1	Precipitación	0
172900	7	Sololá	712	San Antonio Palopó	9	San Antonio Palopo	5	Mayo	2023-05-24T00:00:00	2024-11-08T05:00:00	8	Radiación solar	0
172901	7	Sololá	712	San Antonio Palopó	9	San Antonio Palopo	5	Mayo	2023-05-24T00:00:00	2024-11-08T06:00:00	2	Temperatura media	19
172902	7	Sololá	712	San Antonio Palopó	9	San Antonio Palopo	5	Mayo	2023-05-24T00:00:00	2024-11-08T06:00:00	4	Temperatura máxima	19.2
172903	7	Sololá	712	San Antonio Palopó	9	San Antonio Palopo	5	Mayo	2023-05-24T00:00:00	2024-11-08T06:00:00	3	Temperatura mínima	18.7
172904	7	Sololá	712	San Antonio Palopó	9	San Antonio Palopo	5	Mayo	2023-05-24T00:00:00	2024-11-08T06:00:00	5	Humedad	72
172905	7	Sololá	712	San Antonio Palopó	9	San Antonio Palopo	5	Mayo	2023-05-24T00:00:00	2024-11-08T06:00:00	6	Velocidad del viento	6.4
172906	7	Sololá	712	San Antonio Palopó	9	San Antonio Palopo	5	Mayo	2023-05-24T00:00:00	2024-11-08T06:00:00	7	Dirección del viento	6.44
172907	7	Sololá	712	San Antonio Palopó	9	San Antonio Palopo	5	Mayo	2023-05-24T00:00:00	2024-11-08T06:00:00	1	Precipitación	0
172908	7	Sololá	712	San Antonio Palopó	9	San Antonio Palopo	5	Mayo	2023-05-24T00:00:00	2024-11-08T06:00:00	8	Radiación solar	3
172909	7	Sololá	712	San Antonio Palopó	9	San Antonio Palopo	5	Mayo	2023-05-24T00:00:00	2024-11-08T07:00:00	2	Temperatura media	18.8
172910	7	Sololá	712	San Antonio Palopó	9	San Antonio Palopo	5	Mayo	2023-05-24T00:00:00	2024-11-08T07:00:00	4	Temperatura máxima	19.2
172911	7	Sololá	712	San Antonio Palopó	9	San Antonio Palopo	5	Mayo	2023-05-24T00:00:00	2024-11-08T07:00:00	3	Temperatura mínima	18.7
172912	7	Sololá	712	San Antonio Palopó	9	San Antonio Palopo	5	Mayo	2023-05-24T00:00:00	2024-11-08T07:00:00	5	Humedad	74
172913	7	Sololá	712	San Antonio Palopó	9	San Antonio Palopo	5	Mayo	2023-05-24T00:00:00	2024-11-08T07:00:00	6	Velocidad del viento	3.2
172914	7	Sololá	712	San Antonio Palopó	9	San Antonio Palopo	5	Mayo	2023-05-24T00:00:00	2024-11-08T07:00:00	7	Dirección del viento	3.22
172915	7	Sololá	712	San Antonio Palopó	9	San Antonio Palopo	5	Mayo	2023-05-24T00:00:00	2024-11-08T07:00:00	1	Precipitación	0
172916	7	Sololá	712	San Antonio Palopó	9	San Antonio Palopo	5	Mayo	2023-05-24T00:00:00	2024-11-08T07:00:00	8	Radiación solar	34
172917	7	Sololá	712	San Antonio Palopó	9	San Antonio Palopo	5	Mayo	2023-05-24T00:00:00	2024-11-08T08:00:00	2	Temperatura media	20.8
172918	7	Sololá	712	San Antonio Palopó	9	San Antonio Palopo	5	Mayo	2023-05-24T00:00:00	2024-11-08T08:00:00	4	Temperatura máxima	20.8
172919	7	Sololá	712	San Antonio Palopó	9	San Antonio Palopo	5	Mayo	2023-05-24T00:00:00	2024-11-08T08:00:00	3	Temperatura mínima	18.2
172920	7	Sololá	712	San Antonio Palopó	9	San Antonio Palopo	5	Mayo	2023-05-24T00:00:00	2024-11-08T08:00:00	5	Humedad	72
172921	7	Sololá	712	San Antonio Palopó	9	San Antonio Palopo	5	Mayo	2023-05-24T00:00:00	2024-11-08T08:00:00	6	Velocidad del viento	3.2
172922	7	Sololá	712	San Antonio Palopó	9	San Antonio Palopo	5	Mayo	2023-05-24T00:00:00	2024-11-08T08:00:00	7	Dirección del viento	3.22
172923	7	Sololá	712	San Antonio Palopó	9	San Antonio Palopo	5	Mayo	2023-05-24T00:00:00	2024-11-08T08:00:00	1	Precipitación	0
172924	7	Sololá	712	San Antonio Palopó	9	San Antonio Palopo	5	Mayo	2023-05-24T00:00:00	2024-11-08T08:00:00	8	Radiación solar	218
172925	7	Sololá	712	San Antonio Palopó	9	San Antonio Palopo	5	Mayo	2023-05-24T00:00:00	2024-11-08T09:00:00	2	Temperatura media	21.3
172926	7	Sololá	712	San Antonio Palopó	9	San Antonio Palopo	5	Mayo	2023-05-24T00:00:00	2024-11-08T09:00:00	4	Temperatura máxima	21.5
172927	7	Sololá	712	San Antonio Palopó	9	San Antonio Palopo	5	Mayo	2023-05-24T00:00:00	2024-11-08T09:00:00	3	Temperatura mínima	20.8
172928	7	Sololá	712	San Antonio Palopó	9	San Antonio Palopo	5	Mayo	2023-05-24T00:00:00	2024-11-08T09:00:00	5	Humedad	68
172929	7	Sololá	712	San Antonio Palopó	9	San Antonio Palopo	5	Mayo	2023-05-24T00:00:00	2024-11-08T09:00:00	6	Velocidad del viento	1.6
172930	7	Sololá	712	San Antonio Palopó	9	San Antonio Palopo	5	Mayo	2023-05-24T00:00:00	2024-11-08T09:00:00	7	Dirección del viento	1.61
172931	7	Sololá	712	San Antonio Palopó	9	San Antonio Palopo	5	Mayo	2023-05-24T00:00:00	2024-11-08T09:00:00	1	Precipitación	0
172932	7	Sololá	712	San Antonio Palopó	9	San Antonio Palopo	5	Mayo	2023-05-24T00:00:00	2024-11-08T09:00:00	8	Radiación solar	496
172933	7	Sololá	712	San Antonio Palopó	9	San Antonio Palopo	5	Mayo	2023-05-24T00:00:00	2024-11-08T10:00:00	2	Temperatura media	22.7
172934	7	Sololá	712	San Antonio Palopó	9	San Antonio Palopo	5	Mayo	2023-05-24T00:00:00	2024-11-08T10:00:00	4	Temperatura máxima	22.7
172935	7	Sololá	712	San Antonio Palopó	9	San Antonio Palopo	5	Mayo	2023-05-24T00:00:00	2024-11-08T10:00:00	3	Temperatura mínima	21.3
172936	7	Sololá	712	San Antonio Palopó	9	San Antonio Palopo	5	Mayo	2023-05-24T00:00:00	2024-11-08T10:00:00	5	Humedad	66
172937	7	Sololá	712	San Antonio Palopó	9	San Antonio Palopo	5	Mayo	2023-05-24T00:00:00	2024-11-08T10:00:00	6	Velocidad del viento	3.2
172938	7	Sololá	712	San Antonio Palopó	9	San Antonio Palopo	5	Mayo	2023-05-24T00:00:00	2024-11-08T10:00:00	7	Dirección del viento	3.22
172939	7	Sololá	712	San Antonio Palopó	9	San Antonio Palopo	5	Mayo	2023-05-24T00:00:00	2024-11-08T10:00:00	1	Precipitación	0
172940	7	Sololá	712	San Antonio Palopó	9	San Antonio Palopo	5	Mayo	2023-05-24T00:00:00	2024-11-08T10:00:00	8	Radiación solar	709
172941	7	Sololá	712	San Antonio Palopó	9	San Antonio Palopo	5	Mayo	2023-05-24T00:00:00	2024-11-08T11:00:00	2	Temperatura media	23.4
172942	7	Sololá	712	San Antonio Palopó	9	San Antonio Palopo	5	Mayo	2023-05-24T00:00:00	2024-11-08T11:00:00	4	Temperatura máxima	23.7
172943	7	Sololá	712	San Antonio Palopó	9	San Antonio Palopo	5	Mayo	2023-05-24T00:00:00	2024-11-08T11:00:00	3	Temperatura mínima	22.7
172944	7	Sololá	712	San Antonio Palopó	9	San Antonio Palopo	5	Mayo	2023-05-24T00:00:00	2024-11-08T11:00:00	5	Humedad	62
172945	7	Sololá	712	San Antonio Palopó	9	San Antonio Palopo	5	Mayo	2023-05-24T00:00:00	2024-11-08T11:00:00	6	Velocidad del viento	3.2
172946	7	Sololá	712	San Antonio Palopó	9	San Antonio Palopo	5	Mayo	2023-05-24T00:00:00	2024-11-08T11:00:00	7	Dirección del viento	3.22
172947	7	Sololá	712	San Antonio Palopó	9	San Antonio Palopo	5	Mayo	2023-05-24T00:00:00	2024-11-08T11:00:00	1	Precipitación	0
172948	7	Sololá	712	San Antonio Palopó	9	San Antonio Palopo	5	Mayo	2023-05-24T00:00:00	2024-11-08T11:00:00	8	Radiación solar	821
172949	7	Sololá	712	San Antonio Palopó	9	San Antonio Palopo	5	Mayo	2023-05-24T00:00:00	2024-11-08T12:00:00	2	Temperatura media	25.5
172950	7	Sololá	712	San Antonio Palopó	9	San Antonio Palopo	5	Mayo	2023-05-24T00:00:00	2024-11-08T12:00:00	4	Temperatura máxima	25.6
172951	7	Sololá	712	San Antonio Palopó	9	San Antonio Palopo	5	Mayo	2023-05-24T00:00:00	2024-11-08T12:00:00	3	Temperatura mínima	23.4
172952	7	Sololá	712	San Antonio Palopó	9	San Antonio Palopo	5	Mayo	2023-05-24T00:00:00	2024-11-08T12:00:00	5	Humedad	60
172953	7	Sololá	712	San Antonio Palopó	9	San Antonio Palopo	5	Mayo	2023-05-24T00:00:00	2024-11-08T12:00:00	6	Velocidad del viento	3.2
172954	7	Sololá	712	San Antonio Palopó	9	San Antonio Palopo	5	Mayo	2023-05-24T00:00:00	2024-11-08T12:00:00	7	Dirección del viento	3.22
172955	7	Sololá	712	San Antonio Palopó	9	San Antonio Palopo	5	Mayo	2023-05-24T00:00:00	2024-11-08T12:00:00	1	Precipitación	0
172956	7	Sololá	712	San Antonio Palopó	9	San Antonio Palopo	5	Mayo	2023-05-24T00:00:00	2024-11-08T12:00:00	8	Radiación solar	910
172957	7	Sololá	712	San Antonio Palopó	9	San Antonio Palopo	5	Mayo	2023-05-24T00:00:00	2024-11-08T13:00:00	2	Temperatura media	25.3
172958	7	Sololá	712	San Antonio Palopó	9	San Antonio Palopo	5	Mayo	2023-05-24T00:00:00	2024-11-08T13:00:00	4	Temperatura máxima	25.9
172959	7	Sololá	712	San Antonio Palopó	9	San Antonio Palopo	5	Mayo	2023-05-24T00:00:00	2024-11-08T13:00:00	3	Temperatura mínima	24.9
172960	7	Sololá	712	San Antonio Palopó	9	San Antonio Palopo	5	Mayo	2023-05-24T00:00:00	2024-11-08T13:00:00	5	Humedad	69
172961	7	Sololá	712	San Antonio Palopó	9	San Antonio Palopo	5	Mayo	2023-05-24T00:00:00	2024-11-08T13:00:00	6	Velocidad del viento	6.4
172962	7	Sololá	712	San Antonio Palopó	9	San Antonio Palopo	5	Mayo	2023-05-24T00:00:00	2024-11-08T13:00:00	7	Dirección del viento	6.44
172963	7	Sololá	712	San Antonio Palopó	9	San Antonio Palopo	5	Mayo	2023-05-24T00:00:00	2024-11-08T13:00:00	1	Precipitación	0
172964	7	Sololá	712	San Antonio Palopó	9	San Antonio Palopo	5	Mayo	2023-05-24T00:00:00	2024-11-08T13:00:00	8	Radiación solar	929
172965	7	Sololá	712	San Antonio Palopó	9	San Antonio Palopo	5	Mayo	2023-05-24T00:00:00	2024-11-08T14:00:00	2	Temperatura media	25.4
172966	7	Sololá	712	San Antonio Palopó	9	San Antonio Palopo	5	Mayo	2023-05-24T00:00:00	2024-11-08T14:00:00	4	Temperatura máxima	25.5
172967	7	Sololá	712	San Antonio Palopó	9	San Antonio Palopo	5	Mayo	2023-05-24T00:00:00	2024-11-08T14:00:00	3	Temperatura mínima	24.6
172968	7	Sololá	712	San Antonio Palopó	9	San Antonio Palopo	5	Mayo	2023-05-24T00:00:00	2024-11-08T14:00:00	5	Humedad	66
172969	7	Sololá	712	San Antonio Palopó	9	San Antonio Palopo	5	Mayo	2023-05-24T00:00:00	2024-11-08T14:00:00	6	Velocidad del viento	8
172970	7	Sololá	712	San Antonio Palopó	9	San Antonio Palopo	5	Mayo	2023-05-24T00:00:00	2024-11-08T14:00:00	7	Dirección del viento	8.05
172971	7	Sololá	712	San Antonio Palopó	9	San Antonio Palopo	5	Mayo	2023-05-24T00:00:00	2024-11-08T14:00:00	1	Precipitación	0
172972	7	Sololá	712	San Antonio Palopó	9	San Antonio Palopo	5	Mayo	2023-05-24T00:00:00	2024-11-08T14:00:00	8	Radiación solar	837
172973	7	Sololá	712	San Antonio Palopó	9	San Antonio Palopo	5	Mayo	2023-05-24T00:00:00	2024-11-08T15:00:00	2	Temperatura media	25.6
172974	7	Sololá	712	San Antonio Palopó	9	San Antonio Palopo	5	Mayo	2023-05-24T00:00:00	2024-11-08T15:00:00	4	Temperatura máxima	25.9
172975	7	Sololá	712	San Antonio Palopó	9	San Antonio Palopo	5	Mayo	2023-05-24T00:00:00	2024-11-08T15:00:00	3	Temperatura mínima	25.1
172976	7	Sololá	712	San Antonio Palopó	9	San Antonio Palopo	5	Mayo	2023-05-24T00:00:00	2024-11-08T15:00:00	5	Humedad	69
172977	7	Sololá	712	San Antonio Palopó	9	San Antonio Palopo	5	Mayo	2023-05-24T00:00:00	2024-11-08T15:00:00	6	Velocidad del viento	6.4
172978	7	Sololá	712	San Antonio Palopó	9	San Antonio Palopo	5	Mayo	2023-05-24T00:00:00	2024-11-08T15:00:00	7	Dirección del viento	6.44
172979	7	Sololá	712	San Antonio Palopó	9	San Antonio Palopo	5	Mayo	2023-05-24T00:00:00	2024-11-08T15:00:00	1	Precipitación	0
172980	7	Sololá	712	San Antonio Palopó	9	San Antonio Palopo	5	Mayo	2023-05-24T00:00:00	2024-11-08T15:00:00	8	Radiación solar	740
172981	7	Sololá	712	San Antonio Palopó	9	San Antonio Palopo	5	Mayo	2023-05-24T00:00:00	2024-11-08T16:00:00	2	Temperatura media	24.6
172982	7	Sololá	712	San Antonio Palopó	9	San Antonio Palopo	5	Mayo	2023-05-24T00:00:00	2024-11-08T16:00:00	4	Temperatura máxima	25.7
172983	7	Sololá	712	San Antonio Palopó	9	San Antonio Palopo	5	Mayo	2023-05-24T00:00:00	2024-11-08T16:00:00	3	Temperatura mínima	24.6
172984	7	Sololá	712	San Antonio Palopó	9	San Antonio Palopo	5	Mayo	2023-05-24T00:00:00	2024-11-08T16:00:00	5	Humedad	70
172985	7	Sololá	712	San Antonio Palopó	9	San Antonio Palopo	5	Mayo	2023-05-24T00:00:00	2024-11-08T16:00:00	6	Velocidad del viento	6.4
172986	7	Sololá	712	San Antonio Palopó	9	San Antonio Palopo	5	Mayo	2023-05-24T00:00:00	2024-11-08T16:00:00	7	Dirección del viento	6.44
172987	7	Sololá	712	San Antonio Palopó	9	San Antonio Palopo	5	Mayo	2023-05-24T00:00:00	2024-11-08T16:00:00	1	Precipitación	0
172988	7	Sololá	712	San Antonio Palopó	9	San Antonio Palopo	5	Mayo	2023-05-24T00:00:00	2024-11-08T16:00:00	8	Radiación solar	563
172989	7	Sololá	712	San Antonio Palopó	9	San Antonio Palopo	5	Mayo	2023-05-24T00:00:00	2024-11-08T17:00:00	2	Temperatura media	23.1
172990	7	Sololá	712	San Antonio Palopó	9	San Antonio Palopo	5	Mayo	2023-05-24T00:00:00	2024-11-08T17:00:00	4	Temperatura máxima	24.6
172991	7	Sololá	712	San Antonio Palopó	9	San Antonio Palopo	5	Mayo	2023-05-24T00:00:00	2024-11-08T17:00:00	3	Temperatura mínima	23
172992	7	Sololá	712	San Antonio Palopó	9	San Antonio Palopo	5	Mayo	2023-05-24T00:00:00	2024-11-08T17:00:00	5	Humedad	77
172993	7	Sololá	712	San Antonio Palopó	9	San Antonio Palopo	5	Mayo	2023-05-24T00:00:00	2024-11-08T17:00:00	6	Velocidad del viento	6.4
172994	7	Sololá	712	San Antonio Palopó	9	San Antonio Palopo	5	Mayo	2023-05-24T00:00:00	2024-11-08T17:00:00	7	Dirección del viento	6.44
172995	7	Sololá	712	San Antonio Palopó	9	San Antonio Palopo	5	Mayo	2023-05-24T00:00:00	2024-11-08T17:00:00	1	Precipitación	0
172996	7	Sololá	712	San Antonio Palopó	9	San Antonio Palopo	5	Mayo	2023-05-24T00:00:00	2024-11-08T17:00:00	8	Radiación solar	143
172997	7	Sololá	712	San Antonio Palopó	9	San Antonio Palopo	5	Mayo	2023-05-24T00:00:00	2024-11-08T18:00:00	2	Temperatura media	23
172998	7	Sololá	712	San Antonio Palopó	9	San Antonio Palopo	5	Mayo	2023-05-24T00:00:00	2024-11-08T18:00:00	4	Temperatura máxima	23.3
172999	7	Sololá	712	San Antonio Palopó	9	San Antonio Palopo	5	Mayo	2023-05-24T00:00:00	2024-11-08T18:00:00	3	Temperatura mínima	22.8
173000	7	Sololá	712	San Antonio Palopó	9	San Antonio Palopo	5	Mayo	2023-05-24T00:00:00	2024-11-08T18:00:00	5	Humedad	76
173001	7	Sololá	712	San Antonio Palopó	9	San Antonio Palopo	5	Mayo	2023-05-24T00:00:00	2024-11-08T18:00:00	6	Velocidad del viento	3.2
173002	7	Sololá	712	San Antonio Palopó	9	San Antonio Palopo	5	Mayo	2023-05-24T00:00:00	2024-11-08T18:00:00	7	Dirección del viento	3.22
173003	7	Sololá	712	San Antonio Palopó	9	San Antonio Palopo	5	Mayo	2023-05-24T00:00:00	2024-11-08T18:00:00	1	Precipitación	0
173004	7	Sololá	712	San Antonio Palopó	9	San Antonio Palopo	5	Mayo	2023-05-24T00:00:00	2024-11-08T18:00:00	8	Radiación solar	125
173005	7	Sololá	712	San Antonio Palopó	9	San Antonio Palopo	5	Mayo	2023-05-24T00:00:00	2024-11-08T19:00:00	2	Temperatura media	22.4
173006	7	Sololá	712	San Antonio Palopó	9	San Antonio Palopo	5	Mayo	2023-05-24T00:00:00	2024-11-08T19:00:00	4	Temperatura máxima	23
173007	7	Sololá	712	San Antonio Palopó	9	San Antonio Palopo	5	Mayo	2023-05-24T00:00:00	2024-11-08T19:00:00	3	Temperatura mínima	22.3
173008	7	Sololá	712	San Antonio Palopó	9	San Antonio Palopo	5	Mayo	2023-05-24T00:00:00	2024-11-08T19:00:00	5	Humedad	81
173009	7	Sololá	712	San Antonio Palopó	9	San Antonio Palopo	5	Mayo	2023-05-24T00:00:00	2024-11-08T19:00:00	6	Velocidad del viento	3.2
173010	7	Sololá	712	San Antonio Palopó	9	San Antonio Palopo	5	Mayo	2023-05-24T00:00:00	2024-11-08T19:00:00	7	Dirección del viento	3.22
173011	7	Sololá	712	San Antonio Palopó	9	San Antonio Palopo	5	Mayo	2023-05-24T00:00:00	2024-11-08T19:00:00	1	Precipitación	0
173012	7	Sololá	712	San Antonio Palopó	9	San Antonio Palopo	5	Mayo	2023-05-24T00:00:00	2024-11-08T19:00:00	8	Radiación solar	0
173013	7	Sololá	712	San Antonio Palopó	9	San Antonio Palopo	5	Mayo	2023-05-24T00:00:00	2024-11-08T20:00:00	2	Temperatura media	21.4
173014	7	Sololá	712	San Antonio Palopó	9	San Antonio Palopo	5	Mayo	2023-05-24T00:00:00	2024-11-08T20:00:00	4	Temperatura máxima	22.4
173015	7	Sololá	712	San Antonio Palopó	9	San Antonio Palopo	5	Mayo	2023-05-24T00:00:00	2024-11-08T20:00:00	3	Temperatura mínima	21.4
173016	7	Sololá	712	San Antonio Palopó	9	San Antonio Palopo	5	Mayo	2023-05-24T00:00:00	2024-11-08T20:00:00	5	Humedad	85
173017	7	Sololá	712	San Antonio Palopó	9	San Antonio Palopo	5	Mayo	2023-05-24T00:00:00	2024-11-08T20:00:00	6	Velocidad del viento	4.8
173018	7	Sololá	712	San Antonio Palopó	9	San Antonio Palopo	5	Mayo	2023-05-24T00:00:00	2024-11-08T20:00:00	7	Dirección del viento	4.83
173019	7	Sololá	712	San Antonio Palopó	9	San Antonio Palopo	5	Mayo	2023-05-24T00:00:00	2024-11-08T20:00:00	1	Precipitación	0
173020	7	Sololá	712	San Antonio Palopó	9	San Antonio Palopo	5	Mayo	2023-05-24T00:00:00	2024-11-08T20:00:00	8	Radiación solar	0
173021	7	Sololá	712	San Antonio Palopó	9	San Antonio Palopo	5	Mayo	2023-05-24T00:00:00	2024-11-08T21:00:00	2	Temperatura media	21.6
173022	7	Sololá	712	San Antonio Palopó	9	San Antonio Palopo	5	Mayo	2023-05-24T00:00:00	2024-11-08T21:00:00	4	Temperatura máxima	21.7
173023	7	Sololá	712	San Antonio Palopó	9	San Antonio Palopo	5	Mayo	2023-05-24T00:00:00	2024-11-08T21:00:00	3	Temperatura mínima	21.4
173024	7	Sololá	712	San Antonio Palopó	9	San Antonio Palopo	5	Mayo	2023-05-24T00:00:00	2024-11-08T21:00:00	5	Humedad	85
173025	7	Sololá	712	San Antonio Palopó	9	San Antonio Palopo	5	Mayo	2023-05-24T00:00:00	2024-11-08T21:00:00	6	Velocidad del viento	1.6
173026	7	Sololá	712	San Antonio Palopó	9	San Antonio Palopo	5	Mayo	2023-05-24T00:00:00	2024-11-08T21:00:00	7	Dirección del viento	1.61
173027	7	Sololá	712	San Antonio Palopó	9	San Antonio Palopo	5	Mayo	2023-05-24T00:00:00	2024-11-08T21:00:00	1	Precipitación	0
173028	7	Sololá	712	San Antonio Palopó	9	San Antonio Palopo	5	Mayo	2023-05-24T00:00:00	2024-11-08T21:00:00	8	Radiación solar	0
173029	7	Sololá	712	San Antonio Palopó	9	San Antonio Palopo	5	Mayo	2023-05-24T00:00:00	2024-11-08T22:00:00	2	Temperatura media	21
173030	7	Sololá	712	San Antonio Palopó	9	San Antonio Palopo	5	Mayo	2023-05-24T00:00:00	2024-11-08T22:00:00	4	Temperatura máxima	21.6
173031	7	Sololá	712	San Antonio Palopó	9	San Antonio Palopo	5	Mayo	2023-05-24T00:00:00	2024-11-08T22:00:00	3	Temperatura mínima	21
173032	7	Sololá	712	San Antonio Palopó	9	San Antonio Palopo	5	Mayo	2023-05-24T00:00:00	2024-11-08T22:00:00	5	Humedad	87
173033	7	Sololá	712	San Antonio Palopó	9	San Antonio Palopo	5	Mayo	2023-05-24T00:00:00	2024-11-08T22:00:00	6	Velocidad del viento	3.2
173034	7	Sololá	712	San Antonio Palopó	9	San Antonio Palopo	5	Mayo	2023-05-24T00:00:00	2024-11-08T22:00:00	7	Dirección del viento	3.22
173035	7	Sololá	712	San Antonio Palopó	9	San Antonio Palopo	5	Mayo	2023-05-24T00:00:00	2024-11-08T22:00:00	1	Precipitación	0
173036	7	Sololá	712	San Antonio Palopó	9	San Antonio Palopo	5	Mayo	2023-05-24T00:00:00	2024-11-08T22:00:00	8	Radiación solar	0
173037	7	Sololá	712	San Antonio Palopó	9	San Antonio Palopo	5	Mayo	2023-05-24T00:00:00	2024-11-08T23:00:00	2	Temperatura media	20.7
173038	7	Sololá	712	San Antonio Palopó	9	San Antonio Palopo	5	Mayo	2023-05-24T00:00:00	2024-11-08T23:00:00	4	Temperatura máxima	21
173039	7	Sololá	712	San Antonio Palopó	9	San Antonio Palopo	5	Mayo	2023-05-24T00:00:00	2024-11-08T23:00:00	3	Temperatura mínima	20.7
173040	7	Sololá	712	San Antonio Palopó	9	San Antonio Palopo	5	Mayo	2023-05-24T00:00:00	2024-11-08T23:00:00	5	Humedad	83
173041	7	Sololá	712	San Antonio Palopó	9	San Antonio Palopo	5	Mayo	2023-05-24T00:00:00	2024-11-08T23:00:00	6	Velocidad del viento	1.6
173042	7	Sololá	712	San Antonio Palopó	9	San Antonio Palopo	5	Mayo	2023-05-24T00:00:00	2024-11-08T23:00:00	7	Dirección del viento	1.61
173043	7	Sololá	712	San Antonio Palopó	9	San Antonio Palopo	5	Mayo	2023-05-24T00:00:00	2024-11-08T23:00:00	1	Precipitación	0
173044	7	Sololá	712	San Antonio Palopó	9	San Antonio Palopo	5	Mayo	2023-05-24T00:00:00	2024-11-08T23:00:00	8	Radiación solar	0
173045	7	Sololá	712	San Antonio Palopó	9	San Antonio Palopo	5	Mayo	2023-05-25T00:00:00	2024-11-08T00:00:00	2	Temperatura media	20.4
173046	7	Sololá	712	San Antonio Palopó	9	San Antonio Palopo	5	Mayo	2023-05-25T00:00:00	2024-11-08T00:00:00	4	Temperatura máxima	20.9
173047	7	Sololá	712	San Antonio Palopó	9	San Antonio Palopo	5	Mayo	2023-05-25T00:00:00	2024-11-08T00:00:00	3	Temperatura mínima	20.3
173048	7	Sololá	712	San Antonio Palopó	9	San Antonio Palopo	5	Mayo	2023-05-25T00:00:00	2024-11-08T00:00:00	5	Humedad	81
173049	7	Sololá	712	San Antonio Palopó	9	San Antonio Palopo	5	Mayo	2023-05-25T00:00:00	2024-11-08T00:00:00	6	Velocidad del viento	1.6
173050	7	Sololá	712	San Antonio Palopó	9	San Antonio Palopo	5	Mayo	2023-05-25T00:00:00	2024-11-08T00:00:00	7	Dirección del viento	1.61
173051	7	Sololá	712	San Antonio Palopó	9	San Antonio Palopo	5	Mayo	2023-05-25T00:00:00	2024-11-08T00:00:00	1	Precipitación	0
173052	7	Sololá	712	San Antonio Palopó	9	San Antonio Palopo	5	Mayo	2023-05-25T00:00:00	2024-11-08T00:00:00	8	Radiación solar	0
173053	7	Sololá	712	San Antonio Palopó	9	San Antonio Palopo	5	Mayo	2023-05-25T00:00:00	2024-11-08T01:00:00	2	Temperatura media	20.4
173054	7	Sololá	712	San Antonio Palopó	9	San Antonio Palopo	5	Mayo	2023-05-25T00:00:00	2024-11-08T01:00:00	4	Temperatura máxima	20.9
173055	7	Sololá	712	San Antonio Palopó	9	San Antonio Palopo	5	Mayo	2023-05-25T00:00:00	2024-11-08T01:00:00	3	Temperatura mínima	20.3
173056	7	Sololá	712	San Antonio Palopó	9	San Antonio Palopo	5	Mayo	2023-05-25T00:00:00	2024-11-08T01:00:00	5	Humedad	83
173057	7	Sololá	712	San Antonio Palopó	9	San Antonio Palopo	5	Mayo	2023-05-25T00:00:00	2024-11-08T01:00:00	6	Velocidad del viento	3.2
173058	7	Sololá	712	San Antonio Palopó	9	San Antonio Palopo	5	Mayo	2023-05-25T00:00:00	2024-11-08T01:00:00	7	Dirección del viento	3.22
173059	7	Sololá	712	San Antonio Palopó	9	San Antonio Palopo	5	Mayo	2023-05-25T00:00:00	2024-11-08T01:00:00	1	Precipitación	0
173060	7	Sololá	712	San Antonio Palopó	9	San Antonio Palopo	5	Mayo	2023-05-25T00:00:00	2024-11-08T01:00:00	8	Radiación solar	0
173061	7	Sololá	712	San Antonio Palopó	9	San Antonio Palopo	5	Mayo	2023-05-25T00:00:00	2024-11-08T02:00:00	2	Temperatura media	20
173062	7	Sololá	712	San Antonio Palopó	9	San Antonio Palopo	5	Mayo	2023-05-25T00:00:00	2024-11-08T02:00:00	4	Temperatura máxima	20.4
173063	7	Sololá	712	San Antonio Palopó	9	San Antonio Palopo	5	Mayo	2023-05-25T00:00:00	2024-11-08T02:00:00	3	Temperatura mínima	19.9
173064	7	Sololá	712	San Antonio Palopó	9	San Antonio Palopo	5	Mayo	2023-05-25T00:00:00	2024-11-08T02:00:00	5	Humedad	76
173065	7	Sololá	712	San Antonio Palopó	9	San Antonio Palopo	5	Mayo	2023-05-25T00:00:00	2024-11-08T02:00:00	6	Velocidad del viento	3.2
173066	7	Sololá	712	San Antonio Palopó	9	San Antonio Palopo	5	Mayo	2023-05-25T00:00:00	2024-11-08T02:00:00	7	Dirección del viento	3.22
173067	7	Sololá	712	San Antonio Palopó	9	San Antonio Palopo	5	Mayo	2023-05-25T00:00:00	2024-11-08T02:00:00	1	Precipitación	0
173068	7	Sololá	712	San Antonio Palopó	9	San Antonio Palopo	5	Mayo	2023-05-25T00:00:00	2024-11-08T02:00:00	8	Radiación solar	0
173069	7	Sololá	712	San Antonio Palopó	9	San Antonio Palopo	5	Mayo	2023-05-25T00:00:00	2024-11-08T03:00:00	2	Temperatura media	20
173070	7	Sololá	712	San Antonio Palopó	9	San Antonio Palopo	5	Mayo	2023-05-25T00:00:00	2024-11-08T03:00:00	4	Temperatura máxima	20.2
173071	7	Sololá	712	San Antonio Palopó	9	San Antonio Palopo	5	Mayo	2023-05-25T00:00:00	2024-11-08T03:00:00	3	Temperatura mínima	19.8
173072	7	Sololá	712	San Antonio Palopó	9	San Antonio Palopo	5	Mayo	2023-05-25T00:00:00	2024-11-08T03:00:00	5	Humedad	76
173073	7	Sololá	712	San Antonio Palopó	9	San Antonio Palopo	5	Mayo	2023-05-25T00:00:00	2024-11-08T03:00:00	6	Velocidad del viento	4.8
173074	7	Sololá	712	San Antonio Palopó	9	San Antonio Palopo	5	Mayo	2023-05-25T00:00:00	2024-11-08T03:00:00	7	Dirección del viento	4.83
173075	7	Sololá	712	San Antonio Palopó	9	San Antonio Palopo	5	Mayo	2023-05-25T00:00:00	2024-11-08T03:00:00	1	Precipitación	0
173076	7	Sololá	712	San Antonio Palopó	9	San Antonio Palopo	5	Mayo	2023-05-25T00:00:00	2024-11-08T03:00:00	8	Radiación solar	0
173077	7	Sololá	712	San Antonio Palopó	9	San Antonio Palopo	5	Mayo	2023-05-25T00:00:00	2024-11-08T04:00:00	2	Temperatura media	19.3
173078	7	Sololá	712	San Antonio Palopó	9	San Antonio Palopo	5	Mayo	2023-05-25T00:00:00	2024-11-08T04:00:00	4	Temperatura máxima	20.1
173079	7	Sololá	712	San Antonio Palopó	9	San Antonio Palopo	5	Mayo	2023-05-25T00:00:00	2024-11-08T04:00:00	3	Temperatura mínima	19.3
173080	7	Sololá	712	San Antonio Palopó	9	San Antonio Palopo	5	Mayo	2023-05-25T00:00:00	2024-11-08T04:00:00	5	Humedad	75
173081	7	Sololá	712	San Antonio Palopó	9	San Antonio Palopo	5	Mayo	2023-05-25T00:00:00	2024-11-08T04:00:00	6	Velocidad del viento	4.8
173082	7	Sololá	712	San Antonio Palopó	9	San Antonio Palopo	5	Mayo	2023-05-25T00:00:00	2024-11-08T04:00:00	7	Dirección del viento	4.83
173083	7	Sololá	712	San Antonio Palopó	9	San Antonio Palopo	5	Mayo	2023-05-25T00:00:00	2024-11-08T04:00:00	1	Precipitación	0
173084	7	Sololá	712	San Antonio Palopó	9	San Antonio Palopo	5	Mayo	2023-05-25T00:00:00	2024-11-08T04:00:00	8	Radiación solar	0
173085	7	Sololá	712	San Antonio Palopó	9	San Antonio Palopo	5	Mayo	2023-05-25T00:00:00	2024-11-08T05:00:00	2	Temperatura media	19.5
173086	7	Sololá	712	San Antonio Palopó	9	San Antonio Palopo	5	Mayo	2023-05-25T00:00:00	2024-11-08T05:00:00	4	Temperatura máxima	19.6
173087	7	Sololá	712	San Antonio Palopó	9	San Antonio Palopo	5	Mayo	2023-05-25T00:00:00	2024-11-08T05:00:00	3	Temperatura mínima	19.1
173088	7	Sololá	712	San Antonio Palopó	9	San Antonio Palopo	5	Mayo	2023-05-25T00:00:00	2024-11-08T05:00:00	5	Humedad	79
173089	7	Sololá	712	San Antonio Palopó	9	San Antonio Palopo	5	Mayo	2023-05-25T00:00:00	2024-11-08T05:00:00	6	Velocidad del viento	4.8
173090	7	Sololá	712	San Antonio Palopó	9	San Antonio Palopo	5	Mayo	2023-05-25T00:00:00	2024-11-08T05:00:00	7	Dirección del viento	4.83
173091	7	Sololá	712	San Antonio Palopó	9	San Antonio Palopo	5	Mayo	2023-05-25T00:00:00	2024-11-08T05:00:00	1	Precipitación	0
173092	7	Sololá	712	San Antonio Palopó	9	San Antonio Palopo	5	Mayo	2023-05-25T00:00:00	2024-11-08T05:00:00	8	Radiación solar	0
173093	7	Sololá	712	San Antonio Palopó	9	San Antonio Palopo	5	Mayo	2023-05-25T00:00:00	2024-11-08T06:00:00	2	Temperatura media	18.7
173094	7	Sololá	712	San Antonio Palopó	9	San Antonio Palopo	5	Mayo	2023-05-25T00:00:00	2024-11-08T06:00:00	4	Temperatura máxima	19.5
173095	7	Sololá	712	San Antonio Palopó	9	San Antonio Palopo	5	Mayo	2023-05-25T00:00:00	2024-11-08T06:00:00	3	Temperatura mínima	18.4
173096	7	Sololá	712	San Antonio Palopó	9	San Antonio Palopo	5	Mayo	2023-05-25T00:00:00	2024-11-08T06:00:00	5	Humedad	75
173097	7	Sololá	712	San Antonio Palopó	9	San Antonio Palopo	5	Mayo	2023-05-25T00:00:00	2024-11-08T06:00:00	6	Velocidad del viento	3.2
173098	7	Sololá	712	San Antonio Palopó	9	San Antonio Palopo	5	Mayo	2023-05-25T00:00:00	2024-11-08T06:00:00	7	Dirección del viento	3.22
173099	7	Sololá	712	San Antonio Palopó	9	San Antonio Palopo	5	Mayo	2023-05-25T00:00:00	2024-11-08T06:00:00	1	Precipitación	0
173100	7	Sololá	712	San Antonio Palopó	9	San Antonio Palopo	5	Mayo	2023-05-25T00:00:00	2024-11-08T06:00:00	8	Radiación solar	8
173101	7	Sololá	712	San Antonio Palopó	9	San Antonio Palopo	5	Mayo	2023-05-25T00:00:00	2024-11-08T07:00:00	2	Temperatura media	19.9
173102	7	Sololá	712	San Antonio Palopó	9	San Antonio Palopo	5	Mayo	2023-05-25T00:00:00	2024-11-08T07:00:00	4	Temperatura máxima	19.9
173103	7	Sololá	712	San Antonio Palopó	9	San Antonio Palopo	5	Mayo	2023-05-25T00:00:00	2024-11-08T07:00:00	3	Temperatura mínima	18.7
173104	7	Sololá	712	San Antonio Palopó	9	San Antonio Palopo	5	Mayo	2023-05-25T00:00:00	2024-11-08T07:00:00	5	Humedad	71
173105	7	Sololá	712	San Antonio Palopó	9	San Antonio Palopo	5	Mayo	2023-05-25T00:00:00	2024-11-08T07:00:00	6	Velocidad del viento	3.2
173106	7	Sololá	712	San Antonio Palopó	9	San Antonio Palopo	5	Mayo	2023-05-25T00:00:00	2024-11-08T07:00:00	7	Dirección del viento	3.22
173107	7	Sololá	712	San Antonio Palopó	9	San Antonio Palopo	5	Mayo	2023-05-25T00:00:00	2024-11-08T07:00:00	1	Precipitación	0
173108	7	Sololá	712	San Antonio Palopó	9	San Antonio Palopo	5	Mayo	2023-05-25T00:00:00	2024-11-08T07:00:00	8	Radiación solar	67
173109	7	Sololá	712	San Antonio Palopó	9	San Antonio Palopo	5	Mayo	2023-05-25T00:00:00	2024-11-08T08:00:00	2	Temperatura media	20.7
173110	7	Sololá	712	San Antonio Palopó	9	San Antonio Palopo	5	Mayo	2023-05-25T00:00:00	2024-11-08T08:00:00	4	Temperatura máxima	20.7
173111	7	Sololá	712	San Antonio Palopó	9	San Antonio Palopo	5	Mayo	2023-05-25T00:00:00	2024-11-08T08:00:00	3	Temperatura mínima	19.8
173112	7	Sololá	712	San Antonio Palopó	9	San Antonio Palopo	5	Mayo	2023-05-25T00:00:00	2024-11-08T08:00:00	5	Humedad	77
173113	7	Sololá	712	San Antonio Palopó	9	San Antonio Palopo	5	Mayo	2023-05-25T00:00:00	2024-11-08T08:00:00	6	Velocidad del viento	1.6
173114	7	Sololá	712	San Antonio Palopó	9	San Antonio Palopo	5	Mayo	2023-05-25T00:00:00	2024-11-08T08:00:00	7	Dirección del viento	1.61
173115	7	Sololá	712	San Antonio Palopó	9	San Antonio Palopo	5	Mayo	2023-05-25T00:00:00	2024-11-08T08:00:00	1	Precipitación	0
173116	7	Sololá	712	San Antonio Palopó	9	San Antonio Palopo	5	Mayo	2023-05-25T00:00:00	2024-11-08T08:00:00	8	Radiación solar	226
173117	7	Sololá	712	San Antonio Palopó	9	San Antonio Palopo	5	Mayo	2023-05-25T00:00:00	2024-11-08T09:00:00	2	Temperatura media	21.6
173118	7	Sololá	712	San Antonio Palopó	9	San Antonio Palopo	5	Mayo	2023-05-25T00:00:00	2024-11-08T09:00:00	4	Temperatura máxima	21.8
173119	7	Sololá	712	San Antonio Palopó	9	San Antonio Palopo	5	Mayo	2023-05-25T00:00:00	2024-11-08T09:00:00	3	Temperatura mínima	20.8
173120	7	Sololá	712	San Antonio Palopó	9	San Antonio Palopo	5	Mayo	2023-05-25T00:00:00	2024-11-08T09:00:00	5	Humedad	75
173121	7	Sololá	712	San Antonio Palopó	9	San Antonio Palopo	5	Mayo	2023-05-25T00:00:00	2024-11-08T09:00:00	6	Velocidad del viento	1.6
173122	7	Sololá	712	San Antonio Palopó	9	San Antonio Palopo	5	Mayo	2023-05-25T00:00:00	2024-11-08T09:00:00	7	Dirección del viento	1.61
173123	7	Sololá	712	San Antonio Palopó	9	San Antonio Palopo	5	Mayo	2023-05-25T00:00:00	2024-11-08T09:00:00	1	Precipitación	0
173124	7	Sololá	712	San Antonio Palopó	9	San Antonio Palopo	5	Mayo	2023-05-25T00:00:00	2024-11-08T09:00:00	8	Radiación solar	515
173125	7	Sololá	712	San Antonio Palopó	9	San Antonio Palopo	5	Mayo	2023-05-25T00:00:00	2024-11-08T10:00:00	2	Temperatura media	23.1
173126	7	Sololá	712	San Antonio Palopó	9	San Antonio Palopo	5	Mayo	2023-05-25T00:00:00	2024-11-08T10:00:00	4	Temperatura máxima	23.1
173127	7	Sololá	712	San Antonio Palopó	9	San Antonio Palopo	5	Mayo	2023-05-25T00:00:00	2024-11-08T10:00:00	3	Temperatura mínima	21.5
173128	7	Sololá	712	San Antonio Palopó	9	San Antonio Palopo	5	Mayo	2023-05-25T00:00:00	2024-11-08T10:00:00	5	Humedad	67
173129	7	Sololá	712	San Antonio Palopó	9	San Antonio Palopo	5	Mayo	2023-05-25T00:00:00	2024-11-08T10:00:00	6	Velocidad del viento	3.2
173130	7	Sololá	712	San Antonio Palopó	9	San Antonio Palopo	5	Mayo	2023-05-25T00:00:00	2024-11-08T10:00:00	7	Dirección del viento	3.22
173131	7	Sololá	712	San Antonio Palopó	9	San Antonio Palopo	5	Mayo	2023-05-25T00:00:00	2024-11-08T10:00:00	1	Precipitación	0
173132	7	Sololá	712	San Antonio Palopó	9	San Antonio Palopo	5	Mayo	2023-05-25T00:00:00	2024-11-08T10:00:00	8	Radiación solar	697
173133	7	Sololá	712	San Antonio Palopó	9	San Antonio Palopo	5	Mayo	2023-05-25T00:00:00	2024-11-08T11:00:00	2	Temperatura media	23.9
173134	7	Sololá	712	San Antonio Palopó	9	San Antonio Palopo	5	Mayo	2023-05-25T00:00:00	2024-11-08T11:00:00	4	Temperatura máxima	23.9
173135	7	Sololá	712	San Antonio Palopó	9	San Antonio Palopo	5	Mayo	2023-05-25T00:00:00	2024-11-08T11:00:00	3	Temperatura mínima	23.1
173136	7	Sololá	712	San Antonio Palopó	9	San Antonio Palopo	5	Mayo	2023-05-25T00:00:00	2024-11-08T11:00:00	5	Humedad	69
173137	7	Sololá	712	San Antonio Palopó	9	San Antonio Palopo	5	Mayo	2023-05-25T00:00:00	2024-11-08T11:00:00	6	Velocidad del viento	3.2
173138	7	Sololá	712	San Antonio Palopó	9	San Antonio Palopo	5	Mayo	2023-05-25T00:00:00	2024-11-08T11:00:00	7	Dirección del viento	3.22
173139	7	Sololá	712	San Antonio Palopó	9	San Antonio Palopo	5	Mayo	2023-05-25T00:00:00	2024-11-08T11:00:00	1	Precipitación	0
173140	7	Sololá	712	San Antonio Palopó	9	San Antonio Palopo	5	Mayo	2023-05-25T00:00:00	2024-11-08T11:00:00	8	Radiación solar	810
173141	7	Sololá	712	San Antonio Palopó	9	San Antonio Palopo	5	Mayo	2023-05-25T00:00:00	2024-11-08T12:00:00	2	Temperatura media	25.5
173142	7	Sololá	712	San Antonio Palopó	9	San Antonio Palopo	5	Mayo	2023-05-25T00:00:00	2024-11-08T12:00:00	4	Temperatura máxima	25.5
173143	7	Sololá	712	San Antonio Palopó	9	San Antonio Palopo	5	Mayo	2023-05-25T00:00:00	2024-11-08T12:00:00	3	Temperatura mínima	23.8
173144	7	Sololá	712	San Antonio Palopó	9	San Antonio Palopo	5	Mayo	2023-05-25T00:00:00	2024-11-08T12:00:00	5	Humedad	67
173145	7	Sololá	712	San Antonio Palopó	9	San Antonio Palopo	5	Mayo	2023-05-25T00:00:00	2024-11-08T12:00:00	6	Velocidad del viento	4.8
173146	7	Sololá	712	San Antonio Palopó	9	San Antonio Palopo	5	Mayo	2023-05-25T00:00:00	2024-11-08T12:00:00	7	Dirección del viento	4.83
173147	7	Sololá	712	San Antonio Palopó	9	San Antonio Palopo	5	Mayo	2023-05-25T00:00:00	2024-11-08T12:00:00	1	Precipitación	0
173148	7	Sololá	712	San Antonio Palopó	9	San Antonio Palopo	5	Mayo	2023-05-25T00:00:00	2024-11-08T12:00:00	8	Radiación solar	867
173149	7	Sololá	712	San Antonio Palopó	9	San Antonio Palopo	5	Mayo	2023-05-25T00:00:00	2024-11-08T13:00:00	2	Temperatura media	24.9
173150	7	Sololá	712	San Antonio Palopó	9	San Antonio Palopo	5	Mayo	2023-05-25T00:00:00	2024-11-08T13:00:00	4	Temperatura máxima	25.7
173151	7	Sololá	712	San Antonio Palopó	9	San Antonio Palopo	5	Mayo	2023-05-25T00:00:00	2024-11-08T13:00:00	3	Temperatura mínima	24.8
173152	7	Sololá	712	San Antonio Palopó	9	San Antonio Palopo	5	Mayo	2023-05-25T00:00:00	2024-11-08T13:00:00	5	Humedad	71
173153	7	Sololá	712	San Antonio Palopó	9	San Antonio Palopo	5	Mayo	2023-05-25T00:00:00	2024-11-08T13:00:00	6	Velocidad del viento	8
173154	7	Sololá	712	San Antonio Palopó	9	San Antonio Palopo	5	Mayo	2023-05-25T00:00:00	2024-11-08T13:00:00	7	Dirección del viento	8.05
173155	7	Sololá	712	San Antonio Palopó	9	San Antonio Palopo	5	Mayo	2023-05-25T00:00:00	2024-11-08T13:00:00	1	Precipitación	0
173156	7	Sololá	712	San Antonio Palopó	9	San Antonio Palopo	5	Mayo	2023-05-25T00:00:00	2024-11-08T13:00:00	8	Radiación solar	897
173157	7	Sololá	712	San Antonio Palopó	9	San Antonio Palopo	5	Mayo	2023-05-25T00:00:00	2024-11-08T14:00:00	2	Temperatura media	25.2
173158	7	Sololá	712	San Antonio Palopó	9	San Antonio Palopo	5	Mayo	2023-05-25T00:00:00	2024-11-08T14:00:00	4	Temperatura máxima	25.3
173159	7	Sololá	712	San Antonio Palopó	9	San Antonio Palopo	5	Mayo	2023-05-25T00:00:00	2024-11-08T14:00:00	3	Temperatura mínima	24.4
173160	7	Sololá	712	San Antonio Palopó	9	San Antonio Palopo	5	Mayo	2023-05-25T00:00:00	2024-11-08T14:00:00	5	Humedad	68
173161	7	Sololá	712	San Antonio Palopó	9	San Antonio Palopo	5	Mayo	2023-05-25T00:00:00	2024-11-08T14:00:00	6	Velocidad del viento	9.7
173162	7	Sololá	712	San Antonio Palopó	9	San Antonio Palopo	5	Mayo	2023-05-25T00:00:00	2024-11-08T14:00:00	7	Dirección del viento	9.66
173163	7	Sololá	712	San Antonio Palopó	9	San Antonio Palopo	5	Mayo	2023-05-25T00:00:00	2024-11-08T14:00:00	1	Precipitación	0
173164	7	Sololá	712	San Antonio Palopó	9	San Antonio Palopo	5	Mayo	2023-05-25T00:00:00	2024-11-08T14:00:00	8	Radiación solar	832
173165	7	Sololá	712	San Antonio Palopó	9	San Antonio Palopo	5	Mayo	2023-05-25T00:00:00	2024-11-08T15:00:00	2	Temperatura media	24.6
173166	7	Sololá	712	San Antonio Palopó	9	San Antonio Palopo	5	Mayo	2023-05-25T00:00:00	2024-11-08T15:00:00	4	Temperatura máxima	25.2
173167	7	Sololá	712	San Antonio Palopó	9	San Antonio Palopo	5	Mayo	2023-05-25T00:00:00	2024-11-08T15:00:00	3	Temperatura mínima	23.7
173168	7	Sololá	712	San Antonio Palopó	9	San Antonio Palopo	5	Mayo	2023-05-25T00:00:00	2024-11-08T15:00:00	5	Humedad	70
173169	7	Sololá	712	San Antonio Palopó	9	San Antonio Palopo	5	Mayo	2023-05-25T00:00:00	2024-11-08T15:00:00	6	Velocidad del viento	8
173170	7	Sololá	712	San Antonio Palopó	9	San Antonio Palopo	5	Mayo	2023-05-25T00:00:00	2024-11-08T15:00:00	7	Dirección del viento	8.05
173171	7	Sololá	712	San Antonio Palopó	9	San Antonio Palopo	5	Mayo	2023-05-25T00:00:00	2024-11-08T15:00:00	1	Precipitación	0
173172	7	Sololá	712	San Antonio Palopó	9	San Antonio Palopo	5	Mayo	2023-05-25T00:00:00	2024-11-08T15:00:00	8	Radiación solar	500
173173	7	Sololá	712	San Antonio Palopó	9	San Antonio Palopo	5	Mayo	2023-05-25T00:00:00	2024-11-08T16:00:00	2	Temperatura media	23.1
173174	7	Sololá	712	San Antonio Palopó	9	San Antonio Palopo	5	Mayo	2023-05-25T00:00:00	2024-11-08T16:00:00	4	Temperatura máxima	24.6
173175	7	Sololá	712	San Antonio Palopó	9	San Antonio Palopo	5	Mayo	2023-05-25T00:00:00	2024-11-08T16:00:00	3	Temperatura mínima	22.7
173176	7	Sololá	712	San Antonio Palopó	9	San Antonio Palopo	5	Mayo	2023-05-25T00:00:00	2024-11-08T16:00:00	5	Humedad	75
173177	7	Sololá	712	San Antonio Palopó	9	San Antonio Palopo	5	Mayo	2023-05-25T00:00:00	2024-11-08T16:00:00	6	Velocidad del viento	8
173178	7	Sololá	712	San Antonio Palopó	9	San Antonio Palopo	5	Mayo	2023-05-25T00:00:00	2024-11-08T16:00:00	7	Dirección del viento	8.05
173179	7	Sololá	712	San Antonio Palopó	9	San Antonio Palopo	5	Mayo	2023-05-25T00:00:00	2024-11-08T16:00:00	1	Precipitación	0
173180	7	Sololá	712	San Antonio Palopó	9	San Antonio Palopo	5	Mayo	2023-05-25T00:00:00	2024-11-08T16:00:00	8	Radiación solar	87
173181	7	Sololá	712	San Antonio Palopó	9	San Antonio Palopo	5	Mayo	2023-05-25T00:00:00	2024-11-08T17:00:00	2	Temperatura media	21.8
173182	7	Sololá	712	San Antonio Palopó	9	San Antonio Palopo	5	Mayo	2023-05-25T00:00:00	2024-11-08T17:00:00	4	Temperatura máxima	23.2
173183	7	Sololá	712	San Antonio Palopó	9	San Antonio Palopo	5	Mayo	2023-05-25T00:00:00	2024-11-08T17:00:00	3	Temperatura mínima	21.6
173184	7	Sololá	712	San Antonio Palopó	9	San Antonio Palopo	5	Mayo	2023-05-25T00:00:00	2024-11-08T17:00:00	5	Humedad	80
173185	7	Sololá	712	San Antonio Palopó	9	San Antonio Palopo	5	Mayo	2023-05-25T00:00:00	2024-11-08T17:00:00	6	Velocidad del viento	9.7
173186	7	Sololá	712	San Antonio Palopó	9	San Antonio Palopo	5	Mayo	2023-05-25T00:00:00	2024-11-08T17:00:00	7	Dirección del viento	9.66
173187	7	Sololá	712	San Antonio Palopó	9	San Antonio Palopo	5	Mayo	2023-05-25T00:00:00	2024-11-08T17:00:00	1	Precipitación	0
173188	7	Sololá	712	San Antonio Palopó	9	San Antonio Palopo	5	Mayo	2023-05-25T00:00:00	2024-11-08T17:00:00	8	Radiación solar	49
173189	7	Sololá	712	San Antonio Palopó	9	San Antonio Palopo	5	Mayo	2023-05-25T00:00:00	2024-11-08T18:00:00	2	Temperatura media	19.6
173190	7	Sololá	712	San Antonio Palopó	9	San Antonio Palopo	5	Mayo	2023-05-25T00:00:00	2024-11-08T18:00:00	4	Temperatura máxima	22.1
173191	7	Sololá	712	San Antonio Palopó	9	San Antonio Palopo	5	Mayo	2023-05-25T00:00:00	2024-11-08T18:00:00	3	Temperatura mínima	19.6
173192	7	Sololá	712	San Antonio Palopó	9	San Antonio Palopo	5	Mayo	2023-05-25T00:00:00	2024-11-08T18:00:00	5	Humedad	85
173193	7	Sololá	712	San Antonio Palopó	9	San Antonio Palopo	5	Mayo	2023-05-25T00:00:00	2024-11-08T18:00:00	6	Velocidad del viento	6.4
173194	7	Sololá	712	San Antonio Palopó	9	San Antonio Palopo	5	Mayo	2023-05-25T00:00:00	2024-11-08T18:00:00	7	Dirección del viento	6.44
173195	7	Sololá	712	San Antonio Palopó	9	San Antonio Palopo	5	Mayo	2023-05-25T00:00:00	2024-11-08T18:00:00	1	Precipitación	4.8
173196	7	Sololá	712	San Antonio Palopó	9	San Antonio Palopo	5	Mayo	2023-05-25T00:00:00	2024-11-08T18:00:00	8	Radiación solar	3
173197	7	Sololá	712	San Antonio Palopó	9	San Antonio Palopo	5	Mayo	2023-05-25T00:00:00	2024-11-08T19:00:00	2	Temperatura media	19.7
173198	7	Sololá	712	San Antonio Palopó	9	San Antonio Palopo	5	Mayo	2023-05-25T00:00:00	2024-11-08T19:00:00	4	Temperatura máxima	20
173199	7	Sololá	712	San Antonio Palopó	9	San Antonio Palopo	5	Mayo	2023-05-25T00:00:00	2024-11-08T19:00:00	3	Temperatura mínima	19.4
173200	7	Sololá	712	San Antonio Palopó	9	San Antonio Palopo	5	Mayo	2023-05-25T00:00:00	2024-11-08T19:00:00	5	Humedad	87
173201	7	Sololá	712	San Antonio Palopó	9	San Antonio Palopo	5	Mayo	2023-05-25T00:00:00	2024-11-08T19:00:00	6	Velocidad del viento	1.6
173202	7	Sololá	712	San Antonio Palopó	9	San Antonio Palopo	5	Mayo	2023-05-25T00:00:00	2024-11-08T19:00:00	7	Dirección del viento	1.61
173203	7	Sololá	712	San Antonio Palopó	9	San Antonio Palopo	5	Mayo	2023-05-25T00:00:00	2024-11-08T19:00:00	1	Precipitación	0.4
173204	7	Sololá	712	San Antonio Palopó	9	San Antonio Palopo	5	Mayo	2023-05-25T00:00:00	2024-11-08T19:00:00	8	Radiación solar	0
173205	7	Sololá	712	San Antonio Palopó	9	San Antonio Palopo	5	Mayo	2023-05-25T00:00:00	2024-11-08T20:00:00	2	Temperatura media	19.6
173206	7	Sololá	712	San Antonio Palopó	9	San Antonio Palopo	5	Mayo	2023-05-25T00:00:00	2024-11-08T20:00:00	4	Temperatura máxima	19.7
173207	7	Sololá	712	San Antonio Palopó	9	San Antonio Palopo	5	Mayo	2023-05-25T00:00:00	2024-11-08T20:00:00	3	Temperatura mínima	19.3
173208	7	Sololá	712	San Antonio Palopó	9	San Antonio Palopo	5	Mayo	2023-05-25T00:00:00	2024-11-08T20:00:00	5	Humedad	88
173209	7	Sololá	712	San Antonio Palopó	9	San Antonio Palopo	5	Mayo	2023-05-25T00:00:00	2024-11-08T20:00:00	6	Velocidad del viento	3.2
173210	7	Sololá	712	San Antonio Palopó	9	San Antonio Palopo	5	Mayo	2023-05-25T00:00:00	2024-11-08T20:00:00	7	Dirección del viento	3.22
173211	7	Sololá	712	San Antonio Palopó	9	San Antonio Palopo	5	Mayo	2023-05-25T00:00:00	2024-11-08T20:00:00	1	Precipitación	0
173212	7	Sololá	712	San Antonio Palopó	9	San Antonio Palopo	5	Mayo	2023-05-25T00:00:00	2024-11-08T20:00:00	8	Radiación solar	0
173213	7	Sololá	712	San Antonio Palopó	9	San Antonio Palopo	5	Mayo	2023-05-25T00:00:00	2024-11-08T21:00:00	2	Temperatura media	19.4
173214	7	Sololá	712	San Antonio Palopó	9	San Antonio Palopo	5	Mayo	2023-05-25T00:00:00	2024-11-08T21:00:00	4	Temperatura máxima	19.7
173215	7	Sololá	712	San Antonio Palopó	9	San Antonio Palopo	5	Mayo	2023-05-25T00:00:00	2024-11-08T21:00:00	3	Temperatura mínima	19.4
173216	7	Sololá	712	San Antonio Palopó	9	San Antonio Palopo	5	Mayo	2023-05-25T00:00:00	2024-11-08T21:00:00	5	Humedad	90
173217	7	Sololá	712	San Antonio Palopó	9	San Antonio Palopo	5	Mayo	2023-05-25T00:00:00	2024-11-08T21:00:00	6	Velocidad del viento	3.2
173218	7	Sololá	712	San Antonio Palopó	9	San Antonio Palopo	5	Mayo	2023-05-25T00:00:00	2024-11-08T21:00:00	7	Dirección del viento	3.22
173219	7	Sololá	712	San Antonio Palopó	9	San Antonio Palopo	5	Mayo	2023-05-25T00:00:00	2024-11-08T21:00:00	1	Precipitación	0
173220	7	Sololá	712	San Antonio Palopó	9	San Antonio Palopo	5	Mayo	2023-05-25T00:00:00	2024-11-08T21:00:00	8	Radiación solar	0
173221	7	Sololá	712	San Antonio Palopó	9	San Antonio Palopo	5	Mayo	2023-05-25T00:00:00	2024-11-08T22:00:00	2	Temperatura media	19.4
173222	7	Sololá	712	San Antonio Palopó	9	San Antonio Palopo	5	Mayo	2023-05-25T00:00:00	2024-11-08T22:00:00	4	Temperatura máxima	19.4
173223	7	Sololá	712	San Antonio Palopó	9	San Antonio Palopo	5	Mayo	2023-05-25T00:00:00	2024-11-08T22:00:00	3	Temperatura mínima	19.3
173224	7	Sololá	712	San Antonio Palopó	9	San Antonio Palopo	5	Mayo	2023-05-25T00:00:00	2024-11-08T22:00:00	5	Humedad	89
173225	7	Sololá	712	San Antonio Palopó	9	San Antonio Palopo	5	Mayo	2023-05-25T00:00:00	2024-11-08T22:00:00	6	Velocidad del viento	1.6
173226	7	Sololá	712	San Antonio Palopó	9	San Antonio Palopo	5	Mayo	2023-05-25T00:00:00	2024-11-08T22:00:00	7	Dirección del viento	1.61
173227	7	Sololá	712	San Antonio Palopó	9	San Antonio Palopo	5	Mayo	2023-05-25T00:00:00	2024-11-08T22:00:00	1	Precipitación	0
173228	7	Sololá	712	San Antonio Palopó	9	San Antonio Palopo	5	Mayo	2023-05-25T00:00:00	2024-11-08T22:00:00	8	Radiación solar	0
173229	7	Sololá	712	San Antonio Palopó	9	San Antonio Palopo	5	Mayo	2023-05-25T00:00:00	2024-11-08T23:00:00	2	Temperatura media	18.8
173230	7	Sololá	712	San Antonio Palopó	9	San Antonio Palopo	5	Mayo	2023-05-25T00:00:00	2024-11-08T23:00:00	4	Temperatura máxima	19.4
173231	7	Sololá	712	San Antonio Palopó	9	San Antonio Palopo	5	Mayo	2023-05-25T00:00:00	2024-11-08T23:00:00	3	Temperatura mínima	18.6
173232	7	Sololá	712	San Antonio Palopó	9	San Antonio Palopo	5	Mayo	2023-05-25T00:00:00	2024-11-08T23:00:00	5	Humedad	87
173233	7	Sololá	712	San Antonio Palopó	9	San Antonio Palopo	5	Mayo	2023-05-25T00:00:00	2024-11-08T23:00:00	6	Velocidad del viento	1.6
173234	7	Sololá	712	San Antonio Palopó	9	San Antonio Palopo	5	Mayo	2023-05-25T00:00:00	2024-11-08T23:00:00	7	Dirección del viento	1.61
173235	7	Sololá	712	San Antonio Palopó	9	San Antonio Palopo	5	Mayo	2023-05-25T00:00:00	2024-11-08T23:00:00	1	Precipitación	0
173236	7	Sololá	712	San Antonio Palopó	9	San Antonio Palopo	5	Mayo	2023-05-25T00:00:00	2024-11-08T23:00:00	8	Radiación solar	0
173237	7	Sololá	712	San Antonio Palopó	9	San Antonio Palopo	5	Mayo	2023-05-26T00:00:00	2024-11-08T00:00:00	2	Temperatura media	19.1
173238	7	Sololá	712	San Antonio Palopó	9	San Antonio Palopo	5	Mayo	2023-05-26T00:00:00	2024-11-08T00:00:00	4	Temperatura máxima	19.3
173239	7	Sololá	712	San Antonio Palopó	9	San Antonio Palopo	5	Mayo	2023-05-26T00:00:00	2024-11-08T00:00:00	3	Temperatura mínima	18.8
173240	7	Sololá	712	San Antonio Palopó	9	San Antonio Palopo	5	Mayo	2023-05-26T00:00:00	2024-11-08T00:00:00	5	Humedad	83
173241	7	Sololá	712	San Antonio Palopó	9	San Antonio Palopo	5	Mayo	2023-05-26T00:00:00	2024-11-08T00:00:00	6	Velocidad del viento	3.2
173242	7	Sololá	712	San Antonio Palopó	9	San Antonio Palopo	5	Mayo	2023-05-26T00:00:00	2024-11-08T00:00:00	7	Dirección del viento	3.22
173243	7	Sololá	712	San Antonio Palopó	9	San Antonio Palopo	5	Mayo	2023-05-26T00:00:00	2024-11-08T00:00:00	1	Precipitación	0
173244	7	Sololá	712	San Antonio Palopó	9	San Antonio Palopo	5	Mayo	2023-05-26T00:00:00	2024-11-08T00:00:00	8	Radiación solar	0
173245	7	Sololá	712	San Antonio Palopó	9	San Antonio Palopo	5	Mayo	2023-05-26T00:00:00	2024-11-08T01:00:00	2	Temperatura media	19.2
173246	7	Sololá	712	San Antonio Palopó	9	San Antonio Palopo	5	Mayo	2023-05-26T00:00:00	2024-11-08T01:00:00	4	Temperatura máxima	19.3
173247	7	Sololá	712	San Antonio Palopó	9	San Antonio Palopo	5	Mayo	2023-05-26T00:00:00	2024-11-08T01:00:00	3	Temperatura mínima	18.8
173248	7	Sololá	712	San Antonio Palopó	9	San Antonio Palopo	5	Mayo	2023-05-26T00:00:00	2024-11-08T01:00:00	5	Humedad	81
173249	7	Sololá	712	San Antonio Palopó	9	San Antonio Palopo	5	Mayo	2023-05-26T00:00:00	2024-11-08T01:00:00	6	Velocidad del viento	3.2
173250	7	Sololá	712	San Antonio Palopó	9	San Antonio Palopo	5	Mayo	2023-05-26T00:00:00	2024-11-08T01:00:00	7	Dirección del viento	3.22
173251	7	Sololá	712	San Antonio Palopó	9	San Antonio Palopo	5	Mayo	2023-05-26T00:00:00	2024-11-08T01:00:00	1	Precipitación	0
173252	7	Sololá	712	San Antonio Palopó	9	San Antonio Palopo	5	Mayo	2023-05-26T00:00:00	2024-11-08T01:00:00	8	Radiación solar	0
173253	7	Sololá	712	San Antonio Palopó	9	San Antonio Palopo	5	Mayo	2023-05-26T00:00:00	2024-11-08T02:00:00	2	Temperatura media	18.2
173254	7	Sololá	712	San Antonio Palopó	9	San Antonio Palopo	5	Mayo	2023-05-26T00:00:00	2024-11-08T02:00:00	4	Temperatura máxima	19.2
173255	7	Sololá	712	San Antonio Palopó	9	San Antonio Palopo	5	Mayo	2023-05-26T00:00:00	2024-11-08T02:00:00	3	Temperatura mínima	18.1
173256	7	Sololá	712	San Antonio Palopó	9	San Antonio Palopo	5	Mayo	2023-05-26T00:00:00	2024-11-08T02:00:00	5	Humedad	82
173257	7	Sololá	712	San Antonio Palopó	9	San Antonio Palopo	5	Mayo	2023-05-26T00:00:00	2024-11-08T02:00:00	6	Velocidad del viento	3.2
173258	7	Sololá	712	San Antonio Palopó	9	San Antonio Palopo	5	Mayo	2023-05-26T00:00:00	2024-11-08T02:00:00	7	Dirección del viento	3.22
173259	7	Sololá	712	San Antonio Palopó	9	San Antonio Palopo	5	Mayo	2023-05-26T00:00:00	2024-11-08T02:00:00	1	Precipitación	0
173260	7	Sololá	712	San Antonio Palopó	9	San Antonio Palopo	5	Mayo	2023-05-26T00:00:00	2024-11-08T02:00:00	8	Radiación solar	0
173261	7	Sololá	712	San Antonio Palopó	9	San Antonio Palopo	5	Mayo	2023-05-26T00:00:00	2024-11-08T03:00:00	2	Temperatura media	18.1
173262	7	Sololá	712	San Antonio Palopó	9	San Antonio Palopo	5	Mayo	2023-05-26T00:00:00	2024-11-08T03:00:00	4	Temperatura máxima	18.4
173263	7	Sololá	712	San Antonio Palopó	9	San Antonio Palopo	5	Mayo	2023-05-26T00:00:00	2024-11-08T03:00:00	3	Temperatura mínima	17.9
173264	7	Sololá	712	San Antonio Palopó	9	San Antonio Palopo	5	Mayo	2023-05-26T00:00:00	2024-11-08T03:00:00	5	Humedad	80
173265	7	Sololá	712	San Antonio Palopó	9	San Antonio Palopo	5	Mayo	2023-05-26T00:00:00	2024-11-08T03:00:00	6	Velocidad del viento	3.2
173266	7	Sololá	712	San Antonio Palopó	9	San Antonio Palopo	5	Mayo	2023-05-26T00:00:00	2024-11-08T03:00:00	7	Dirección del viento	3.22
173267	7	Sololá	712	San Antonio Palopó	9	San Antonio Palopo	5	Mayo	2023-05-26T00:00:00	2024-11-08T03:00:00	1	Precipitación	0
173268	7	Sololá	712	San Antonio Palopó	9	San Antonio Palopo	5	Mayo	2023-05-26T00:00:00	2024-11-08T03:00:00	8	Radiación solar	0
173269	7	Sololá	712	San Antonio Palopó	9	San Antonio Palopo	5	Mayo	2023-05-26T00:00:00	2024-11-08T04:00:00	2	Temperatura media	17.6
173270	7	Sololá	712	San Antonio Palopó	9	San Antonio Palopo	5	Mayo	2023-05-26T00:00:00	2024-11-08T04:00:00	4	Temperatura máxima	18.1
173271	7	Sololá	712	San Antonio Palopó	9	San Antonio Palopo	5	Mayo	2023-05-26T00:00:00	2024-11-08T04:00:00	3	Temperatura mínima	17.6
173272	7	Sololá	712	San Antonio Palopó	9	San Antonio Palopo	5	Mayo	2023-05-26T00:00:00	2024-11-08T04:00:00	5	Humedad	84
173273	7	Sololá	712	San Antonio Palopó	9	San Antonio Palopo	5	Mayo	2023-05-26T00:00:00	2024-11-08T04:00:00	6	Velocidad del viento	3.2
173274	7	Sololá	712	San Antonio Palopó	9	San Antonio Palopo	5	Mayo	2023-05-26T00:00:00	2024-11-08T04:00:00	7	Dirección del viento	3.22
173275	7	Sololá	712	San Antonio Palopó	9	San Antonio Palopo	5	Mayo	2023-05-26T00:00:00	2024-11-08T04:00:00	1	Precipitación	0
173276	7	Sololá	712	San Antonio Palopó	9	San Antonio Palopo	5	Mayo	2023-05-26T00:00:00	2024-11-08T04:00:00	8	Radiación solar	0
173277	7	Sololá	712	San Antonio Palopó	9	San Antonio Palopo	5	Mayo	2023-05-26T00:00:00	2024-11-08T05:00:00	2	Temperatura media	17.7
173278	7	Sololá	712	San Antonio Palopó	9	San Antonio Palopo	5	Mayo	2023-05-26T00:00:00	2024-11-08T05:00:00	4	Temperatura máxima	18.1
173279	7	Sololá	712	San Antonio Palopó	9	San Antonio Palopo	5	Mayo	2023-05-26T00:00:00	2024-11-08T05:00:00	3	Temperatura mínima	17.6
173280	7	Sololá	712	San Antonio Palopó	9	San Antonio Palopo	5	Mayo	2023-05-26T00:00:00	2024-11-08T05:00:00	5	Humedad	79
173281	7	Sololá	712	San Antonio Palopó	9	San Antonio Palopo	5	Mayo	2023-05-26T00:00:00	2024-11-08T05:00:00	6	Velocidad del viento	6.4
173282	7	Sololá	712	San Antonio Palopó	9	San Antonio Palopo	5	Mayo	2023-05-26T00:00:00	2024-11-08T05:00:00	7	Dirección del viento	6.44
173283	7	Sololá	712	San Antonio Palopó	9	San Antonio Palopo	5	Mayo	2023-05-26T00:00:00	2024-11-08T05:00:00	1	Precipitación	0
173284	7	Sololá	712	San Antonio Palopó	9	San Antonio Palopo	5	Mayo	2023-05-26T00:00:00	2024-11-08T05:00:00	8	Radiación solar	0
173285	7	Sololá	712	San Antonio Palopó	9	San Antonio Palopo	5	Mayo	2023-05-26T00:00:00	2024-11-08T06:00:00	2	Temperatura media	18.2
173286	7	Sololá	712	San Antonio Palopó	9	San Antonio Palopo	5	Mayo	2023-05-26T00:00:00	2024-11-08T06:00:00	4	Temperatura máxima	18.3
173287	7	Sololá	712	San Antonio Palopó	9	San Antonio Palopo	5	Mayo	2023-05-26T00:00:00	2024-11-08T06:00:00	3	Temperatura mínima	17.7
173288	7	Sololá	712	San Antonio Palopó	9	San Antonio Palopo	5	Mayo	2023-05-26T00:00:00	2024-11-08T06:00:00	5	Humedad	73
173289	7	Sololá	712	San Antonio Palopó	9	San Antonio Palopo	5	Mayo	2023-05-26T00:00:00	2024-11-08T06:00:00	6	Velocidad del viento	9.7
173290	7	Sololá	712	San Antonio Palopó	9	San Antonio Palopo	5	Mayo	2023-05-26T00:00:00	2024-11-08T06:00:00	7	Dirección del viento	9.66
173291	7	Sololá	712	San Antonio Palopó	9	San Antonio Palopo	5	Mayo	2023-05-26T00:00:00	2024-11-08T06:00:00	1	Precipitación	0
173292	7	Sololá	712	San Antonio Palopó	9	San Antonio Palopo	5	Mayo	2023-05-26T00:00:00	2024-11-08T06:00:00	8	Radiación solar	4
173293	7	Sololá	712	San Antonio Palopó	9	San Antonio Palopo	5	Mayo	2023-05-26T00:00:00	2024-11-08T07:00:00	2	Temperatura media	19.2
173294	7	Sololá	712	San Antonio Palopó	9	San Antonio Palopo	5	Mayo	2023-05-26T00:00:00	2024-11-08T07:00:00	4	Temperatura máxima	19.2
173295	7	Sololá	712	San Antonio Palopó	9	San Antonio Palopo	5	Mayo	2023-05-26T00:00:00	2024-11-08T07:00:00	3	Temperatura mínima	18.1
173296	7	Sololá	712	San Antonio Palopó	9	San Antonio Palopo	5	Mayo	2023-05-26T00:00:00	2024-11-08T07:00:00	5	Humedad	70
173297	7	Sololá	712	San Antonio Palopó	9	San Antonio Palopo	5	Mayo	2023-05-26T00:00:00	2024-11-08T07:00:00	6	Velocidad del viento	8
173298	7	Sololá	712	San Antonio Palopó	9	San Antonio Palopo	5	Mayo	2023-05-26T00:00:00	2024-11-08T07:00:00	7	Dirección del viento	8.05
173299	7	Sololá	712	San Antonio Palopó	9	San Antonio Palopo	5	Mayo	2023-05-26T00:00:00	2024-11-08T07:00:00	1	Precipitación	0
173300	7	Sololá	712	San Antonio Palopó	9	San Antonio Palopo	5	Mayo	2023-05-26T00:00:00	2024-11-08T07:00:00	8	Radiación solar	73
173301	7	Sololá	712	San Antonio Palopó	9	San Antonio Palopo	5	Mayo	2023-05-26T00:00:00	2024-11-08T08:00:00	2	Temperatura media	19.9
173302	7	Sololá	712	San Antonio Palopó	9	San Antonio Palopo	5	Mayo	2023-05-26T00:00:00	2024-11-08T08:00:00	4	Temperatura máxima	19.9
173303	7	Sololá	712	San Antonio Palopó	9	San Antonio Palopo	5	Mayo	2023-05-26T00:00:00	2024-11-08T08:00:00	3	Temperatura mínima	19.2
173304	7	Sololá	712	San Antonio Palopó	9	San Antonio Palopo	5	Mayo	2023-05-26T00:00:00	2024-11-08T08:00:00	5	Humedad	75
173305	7	Sololá	712	San Antonio Palopó	9	San Antonio Palopo	5	Mayo	2023-05-26T00:00:00	2024-11-08T08:00:00	6	Velocidad del viento	6.4
173306	7	Sololá	712	San Antonio Palopó	9	San Antonio Palopo	5	Mayo	2023-05-26T00:00:00	2024-11-08T08:00:00	7	Dirección del viento	6.44
173307	7	Sololá	712	San Antonio Palopó	9	San Antonio Palopo	5	Mayo	2023-05-26T00:00:00	2024-11-08T08:00:00	1	Precipitación	0
173308	7	Sololá	712	San Antonio Palopó	9	San Antonio Palopo	5	Mayo	2023-05-26T00:00:00	2024-11-08T08:00:00	8	Radiación solar	163
173309	7	Sololá	712	San Antonio Palopó	9	San Antonio Palopo	5	Mayo	2023-05-26T00:00:00	2024-11-08T09:00:00	2	Temperatura media	20.6
173310	7	Sololá	712	San Antonio Palopó	9	San Antonio Palopo	5	Mayo	2023-05-26T00:00:00	2024-11-08T09:00:00	4	Temperatura máxima	20.6
173311	7	Sololá	712	San Antonio Palopó	9	San Antonio Palopo	5	Mayo	2023-05-26T00:00:00	2024-11-08T09:00:00	3	Temperatura mínima	19.8
173312	7	Sololá	712	San Antonio Palopó	9	San Antonio Palopo	5	Mayo	2023-05-26T00:00:00	2024-11-08T09:00:00	5	Humedad	74
173313	7	Sololá	712	San Antonio Palopó	9	San Antonio Palopo	5	Mayo	2023-05-26T00:00:00	2024-11-08T09:00:00	6	Velocidad del viento	4.8
173314	7	Sololá	712	San Antonio Palopó	9	San Antonio Palopo	5	Mayo	2023-05-26T00:00:00	2024-11-08T09:00:00	7	Dirección del viento	4.83
173315	7	Sololá	712	San Antonio Palopó	9	San Antonio Palopo	5	Mayo	2023-05-26T00:00:00	2024-11-08T09:00:00	1	Precipitación	0
173316	7	Sololá	712	San Antonio Palopó	9	San Antonio Palopo	5	Mayo	2023-05-26T00:00:00	2024-11-08T09:00:00	8	Radiación solar	387
173317	7	Sololá	712	San Antonio Palopó	9	San Antonio Palopo	5	Mayo	2023-05-26T00:00:00	2024-11-08T10:00:00	2	Temperatura media	21.7
173318	7	Sololá	712	San Antonio Palopó	9	San Antonio Palopo	5	Mayo	2023-05-26T00:00:00	2024-11-08T10:00:00	4	Temperatura máxima	21.8
173319	7	Sololá	712	San Antonio Palopó	9	San Antonio Palopo	5	Mayo	2023-05-26T00:00:00	2024-11-08T10:00:00	3	Temperatura mínima	20.6
173320	7	Sololá	712	San Antonio Palopó	9	San Antonio Palopo	5	Mayo	2023-05-26T00:00:00	2024-11-08T10:00:00	5	Humedad	73
173321	7	Sololá	712	San Antonio Palopó	9	San Antonio Palopo	5	Mayo	2023-05-26T00:00:00	2024-11-08T10:00:00	6	Velocidad del viento	1.6
173322	7	Sololá	712	San Antonio Palopó	9	San Antonio Palopo	5	Mayo	2023-05-26T00:00:00	2024-11-08T10:00:00	7	Dirección del viento	1.61
173323	7	Sololá	712	San Antonio Palopó	9	San Antonio Palopo	5	Mayo	2023-05-26T00:00:00	2024-11-08T10:00:00	1	Precipitación	0
173324	7	Sololá	712	San Antonio Palopó	9	San Antonio Palopo	5	Mayo	2023-05-26T00:00:00	2024-11-08T10:00:00	8	Radiación solar	460
173325	7	Sololá	712	San Antonio Palopó	9	San Antonio Palopo	5	Mayo	2023-05-26T00:00:00	2024-11-08T11:00:00	2	Temperatura media	22.2
173326	7	Sololá	712	San Antonio Palopó	9	San Antonio Palopo	5	Mayo	2023-05-26T00:00:00	2024-11-08T11:00:00	4	Temperatura máxima	22.2
173327	7	Sololá	712	San Antonio Palopó	9	San Antonio Palopo	5	Mayo	2023-05-26T00:00:00	2024-11-08T11:00:00	3	Temperatura mínima	21.5
173328	7	Sololá	712	San Antonio Palopó	9	San Antonio Palopo	5	Mayo	2023-05-26T00:00:00	2024-11-08T11:00:00	5	Humedad	70
173329	7	Sololá	712	San Antonio Palopó	9	San Antonio Palopo	5	Mayo	2023-05-26T00:00:00	2024-11-08T11:00:00	6	Velocidad del viento	3.2
173330	7	Sololá	712	San Antonio Palopó	9	San Antonio Palopo	5	Mayo	2023-05-26T00:00:00	2024-11-08T11:00:00	7	Dirección del viento	3.22
173331	7	Sololá	712	San Antonio Palopó	9	San Antonio Palopo	5	Mayo	2023-05-26T00:00:00	2024-11-08T11:00:00	1	Precipitación	0
173332	7	Sololá	712	San Antonio Palopó	9	San Antonio Palopo	5	Mayo	2023-05-26T00:00:00	2024-11-08T11:00:00	8	Radiación solar	540
173333	7	Sololá	712	San Antonio Palopó	9	San Antonio Palopo	5	Mayo	2023-05-26T00:00:00	2024-11-08T12:00:00	2	Temperatura media	22.9
173334	7	Sololá	712	San Antonio Palopó	9	San Antonio Palopo	5	Mayo	2023-05-26T00:00:00	2024-11-08T12:00:00	4	Temperatura máxima	22.9
173335	7	Sololá	712	San Antonio Palopó	9	San Antonio Palopo	5	Mayo	2023-05-26T00:00:00	2024-11-08T12:00:00	3	Temperatura mínima	22.1
173336	7	Sololá	712	San Antonio Palopó	9	San Antonio Palopo	5	Mayo	2023-05-26T00:00:00	2024-11-08T12:00:00	5	Humedad	71
173337	7	Sololá	712	San Antonio Palopó	9	San Antonio Palopo	5	Mayo	2023-05-26T00:00:00	2024-11-08T12:00:00	6	Velocidad del viento	3.2
173338	7	Sololá	712	San Antonio Palopó	9	San Antonio Palopo	5	Mayo	2023-05-26T00:00:00	2024-11-08T12:00:00	7	Dirección del viento	3.22
173339	7	Sololá	712	San Antonio Palopó	9	San Antonio Palopo	5	Mayo	2023-05-26T00:00:00	2024-11-08T12:00:00	1	Precipitación	0
173340	7	Sololá	712	San Antonio Palopó	9	San Antonio Palopo	5	Mayo	2023-05-26T00:00:00	2024-11-08T12:00:00	8	Radiación solar	701
173341	7	Sololá	712	San Antonio Palopó	9	San Antonio Palopo	5	Mayo	2023-05-26T00:00:00	2024-11-08T13:00:00	2	Temperatura media	23.3
173342	7	Sololá	712	San Antonio Palopó	9	San Antonio Palopo	5	Mayo	2023-05-26T00:00:00	2024-11-08T13:00:00	4	Temperatura máxima	23.5
173343	7	Sololá	712	San Antonio Palopó	9	San Antonio Palopo	5	Mayo	2023-05-26T00:00:00	2024-11-08T13:00:00	3	Temperatura mínima	22.3
173344	7	Sololá	712	San Antonio Palopó	9	San Antonio Palopo	5	Mayo	2023-05-26T00:00:00	2024-11-08T13:00:00	5	Humedad	72
173345	7	Sololá	712	San Antonio Palopó	9	San Antonio Palopo	5	Mayo	2023-05-26T00:00:00	2024-11-08T13:00:00	6	Velocidad del viento	8
173346	7	Sololá	712	San Antonio Palopó	9	San Antonio Palopo	5	Mayo	2023-05-26T00:00:00	2024-11-08T13:00:00	7	Dirección del viento	8.05
173347	7	Sololá	712	San Antonio Palopó	9	San Antonio Palopo	5	Mayo	2023-05-26T00:00:00	2024-11-08T13:00:00	1	Precipitación	0
173348	7	Sololá	712	San Antonio Palopó	9	San Antonio Palopo	5	Mayo	2023-05-26T00:00:00	2024-11-08T13:00:00	8	Radiación solar	787
173349	7	Sololá	712	San Antonio Palopó	9	San Antonio Palopo	5	Mayo	2023-05-26T00:00:00	2024-11-08T14:00:00	2	Temperatura media	24.3
173350	7	Sololá	712	San Antonio Palopó	9	San Antonio Palopo	5	Mayo	2023-05-26T00:00:00	2024-11-08T14:00:00	4	Temperatura máxima	24.3
173351	7	Sololá	712	San Antonio Palopó	9	San Antonio Palopo	5	Mayo	2023-05-26T00:00:00	2024-11-08T14:00:00	3	Temperatura mínima	23.3
173352	7	Sololá	712	San Antonio Palopó	9	San Antonio Palopo	5	Mayo	2023-05-26T00:00:00	2024-11-08T14:00:00	5	Humedad	70
173353	7	Sololá	712	San Antonio Palopó	9	San Antonio Palopo	5	Mayo	2023-05-26T00:00:00	2024-11-08T14:00:00	6	Velocidad del viento	6.4
173354	7	Sololá	712	San Antonio Palopó	9	San Antonio Palopo	5	Mayo	2023-05-26T00:00:00	2024-11-08T14:00:00	7	Dirección del viento	6.44
173355	7	Sololá	712	San Antonio Palopó	9	San Antonio Palopo	5	Mayo	2023-05-26T00:00:00	2024-11-08T14:00:00	1	Precipitación	0
173356	7	Sololá	712	San Antonio Palopó	9	San Antonio Palopo	5	Mayo	2023-05-26T00:00:00	2024-11-08T14:00:00	8	Radiación solar	763
173357	7	Sololá	712	San Antonio Palopó	9	San Antonio Palopo	5	Mayo	2023-05-26T00:00:00	2024-11-08T15:00:00	2	Temperatura media	23.9
173358	7	Sololá	712	San Antonio Palopó	9	San Antonio Palopo	5	Mayo	2023-05-26T00:00:00	2024-11-08T15:00:00	4	Temperatura máxima	24.4
173359	7	Sololá	712	San Antonio Palopó	9	San Antonio Palopo	5	Mayo	2023-05-26T00:00:00	2024-11-08T15:00:00	3	Temperatura mínima	23.8
173360	7	Sololá	712	San Antonio Palopó	9	San Antonio Palopo	5	Mayo	2023-05-26T00:00:00	2024-11-08T15:00:00	5	Humedad	75
173361	7	Sololá	712	San Antonio Palopó	9	San Antonio Palopo	5	Mayo	2023-05-26T00:00:00	2024-11-08T15:00:00	6	Velocidad del viento	4.8
173362	7	Sololá	712	San Antonio Palopó	9	San Antonio Palopo	5	Mayo	2023-05-26T00:00:00	2024-11-08T15:00:00	7	Dirección del viento	4.83
173363	7	Sololá	712	San Antonio Palopó	9	San Antonio Palopo	5	Mayo	2023-05-26T00:00:00	2024-11-08T15:00:00	1	Precipitación	0
173364	7	Sololá	712	San Antonio Palopó	9	San Antonio Palopo	5	Mayo	2023-05-26T00:00:00	2024-11-08T15:00:00	8	Radiación solar	715
173365	7	Sololá	712	San Antonio Palopó	9	San Antonio Palopo	5	Mayo	2023-05-26T00:00:00	2024-11-08T16:00:00	2	Temperatura media	23.1
173366	7	Sololá	712	San Antonio Palopó	9	San Antonio Palopo	5	Mayo	2023-05-26T00:00:00	2024-11-08T16:00:00	4	Temperatura máxima	23.9
173367	7	Sololá	712	San Antonio Palopó	9	San Antonio Palopo	5	Mayo	2023-05-26T00:00:00	2024-11-08T16:00:00	3	Temperatura mínima	22.9
173368	7	Sololá	712	San Antonio Palopó	9	San Antonio Palopo	5	Mayo	2023-05-26T00:00:00	2024-11-08T16:00:00	5	Humedad	76
173369	7	Sololá	712	San Antonio Palopó	9	San Antonio Palopo	5	Mayo	2023-05-26T00:00:00	2024-11-08T16:00:00	6	Velocidad del viento	9.7
173370	7	Sololá	712	San Antonio Palopó	9	San Antonio Palopo	5	Mayo	2023-05-26T00:00:00	2024-11-08T16:00:00	7	Dirección del viento	9.66
173371	7	Sololá	712	San Antonio Palopó	9	San Antonio Palopo	5	Mayo	2023-05-26T00:00:00	2024-11-08T16:00:00	1	Precipitación	0
173372	7	Sololá	712	San Antonio Palopó	9	San Antonio Palopo	5	Mayo	2023-05-26T00:00:00	2024-11-08T16:00:00	8	Radiación solar	497
173373	7	Sololá	712	San Antonio Palopó	9	San Antonio Palopo	5	Mayo	2023-05-26T00:00:00	2024-11-08T17:00:00	2	Temperatura media	22.4
173374	7	Sololá	712	San Antonio Palopó	9	San Antonio Palopo	5	Mayo	2023-05-26T00:00:00	2024-11-08T17:00:00	4	Temperatura máxima	23.2
173375	7	Sololá	712	San Antonio Palopó	9	San Antonio Palopo	5	Mayo	2023-05-26T00:00:00	2024-11-08T17:00:00	3	Temperatura mínima	22.4
173376	7	Sololá	712	San Antonio Palopó	9	San Antonio Palopo	5	Mayo	2023-05-26T00:00:00	2024-11-08T17:00:00	5	Humedad	72
173377	7	Sololá	712	San Antonio Palopó	9	San Antonio Palopo	5	Mayo	2023-05-26T00:00:00	2024-11-08T17:00:00	6	Velocidad del viento	4.8
173378	7	Sololá	712	San Antonio Palopó	9	San Antonio Palopo	5	Mayo	2023-05-26T00:00:00	2024-11-08T17:00:00	7	Dirección del viento	4.83
173379	7	Sololá	712	San Antonio Palopó	9	San Antonio Palopo	5	Mayo	2023-05-26T00:00:00	2024-11-08T17:00:00	1	Precipitación	0
173380	7	Sololá	712	San Antonio Palopó	9	San Antonio Palopo	5	Mayo	2023-05-26T00:00:00	2024-11-08T17:00:00	8	Radiación solar	150
173381	7	Sololá	712	San Antonio Palopó	9	San Antonio Palopo	5	Mayo	2023-05-26T00:00:00	2024-11-08T18:00:00	2	Temperatura media	22.2
173382	7	Sololá	712	San Antonio Palopó	9	San Antonio Palopo	5	Mayo	2023-05-26T00:00:00	2024-11-08T18:00:00	4	Temperatura máxima	22.4
173383	7	Sololá	712	San Antonio Palopó	9	San Antonio Palopo	5	Mayo	2023-05-26T00:00:00	2024-11-08T18:00:00	3	Temperatura mínima	22.2
173384	7	Sololá	712	San Antonio Palopó	9	San Antonio Palopo	5	Mayo	2023-05-26T00:00:00	2024-11-08T18:00:00	5	Humedad	72
173385	7	Sololá	712	San Antonio Palopó	9	San Antonio Palopo	5	Mayo	2023-05-26T00:00:00	2024-11-08T18:00:00	6	Velocidad del viento	3.2
173386	7	Sololá	712	San Antonio Palopó	9	San Antonio Palopo	5	Mayo	2023-05-26T00:00:00	2024-11-08T18:00:00	7	Dirección del viento	3.22
173387	7	Sololá	712	San Antonio Palopó	9	San Antonio Palopo	5	Mayo	2023-05-26T00:00:00	2024-11-08T18:00:00	1	Precipitación	0
173388	7	Sololá	712	San Antonio Palopó	9	San Antonio Palopo	5	Mayo	2023-05-26T00:00:00	2024-11-08T18:00:00	8	Radiación solar	23
173389	7	Sololá	712	San Antonio Palopó	9	San Antonio Palopo	5	Mayo	2023-05-26T00:00:00	2024-11-08T19:00:00	2	Temperatura media	21.8
173390	7	Sololá	712	San Antonio Palopó	9	San Antonio Palopo	5	Mayo	2023-05-26T00:00:00	2024-11-08T19:00:00	4	Temperatura máxima	22.2
173391	7	Sololá	712	San Antonio Palopó	9	San Antonio Palopo	5	Mayo	2023-05-26T00:00:00	2024-11-08T19:00:00	3	Temperatura mínima	21.7
173392	7	Sololá	712	San Antonio Palopó	9	San Antonio Palopo	5	Mayo	2023-05-26T00:00:00	2024-11-08T19:00:00	5	Humedad	76
173393	7	Sololá	712	San Antonio Palopó	9	San Antonio Palopo	5	Mayo	2023-05-26T00:00:00	2024-11-08T19:00:00	6	Velocidad del viento	3.2
173394	7	Sololá	712	San Antonio Palopó	9	San Antonio Palopo	5	Mayo	2023-05-26T00:00:00	2024-11-08T19:00:00	7	Dirección del viento	3.22
173395	7	Sololá	712	San Antonio Palopó	9	San Antonio Palopo	5	Mayo	2023-05-26T00:00:00	2024-11-08T19:00:00	1	Precipitación	0
173396	7	Sololá	712	San Antonio Palopó	9	San Antonio Palopo	5	Mayo	2023-05-26T00:00:00	2024-11-08T19:00:00	8	Radiación solar	0
173397	7	Sololá	712	San Antonio Palopó	9	San Antonio Palopo	5	Mayo	2023-05-26T00:00:00	2024-11-08T20:00:00	2	Temperatura media	21.3
173398	7	Sololá	712	San Antonio Palopó	9	San Antonio Palopo	5	Mayo	2023-05-26T00:00:00	2024-11-08T20:00:00	4	Temperatura máxima	21.9
173399	7	Sololá	712	San Antonio Palopó	9	San Antonio Palopo	5	Mayo	2023-05-26T00:00:00	2024-11-08T20:00:00	3	Temperatura mínima	21.3
173400	7	Sololá	712	San Antonio Palopó	9	San Antonio Palopo	5	Mayo	2023-05-26T00:00:00	2024-11-08T20:00:00	5	Humedad	79
173401	7	Sololá	712	San Antonio Palopó	9	San Antonio Palopo	5	Mayo	2023-05-26T00:00:00	2024-11-08T20:00:00	6	Velocidad del viento	1.6
173402	7	Sololá	712	San Antonio Palopó	9	San Antonio Palopo	5	Mayo	2023-05-26T00:00:00	2024-11-08T20:00:00	7	Dirección del viento	1.61
173403	7	Sololá	712	San Antonio Palopó	9	San Antonio Palopo	5	Mayo	2023-05-26T00:00:00	2024-11-08T20:00:00	1	Precipitación	0
173404	7	Sololá	712	San Antonio Palopó	9	San Antonio Palopo	5	Mayo	2023-05-26T00:00:00	2024-11-08T20:00:00	8	Radiación solar	0
173405	7	Sololá	712	San Antonio Palopó	9	San Antonio Palopo	5	Mayo	2023-05-26T00:00:00	2024-11-08T21:00:00	2	Temperatura media	21.3
173406	7	Sololá	712	San Antonio Palopó	9	San Antonio Palopo	5	Mayo	2023-05-26T00:00:00	2024-11-08T21:00:00	4	Temperatura máxima	21.4
173407	7	Sololá	712	San Antonio Palopó	9	San Antonio Palopo	5	Mayo	2023-05-26T00:00:00	2024-11-08T21:00:00	3	Temperatura mínima	21.3
173408	7	Sololá	712	San Antonio Palopó	9	San Antonio Palopo	5	Mayo	2023-05-26T00:00:00	2024-11-08T21:00:00	5	Humedad	77
173409	7	Sololá	712	San Antonio Palopó	9	San Antonio Palopo	5	Mayo	2023-05-26T00:00:00	2024-11-08T21:00:00	6	Velocidad del viento	1.6
173410	7	Sololá	712	San Antonio Palopó	9	San Antonio Palopo	5	Mayo	2023-05-26T00:00:00	2024-11-08T21:00:00	7	Dirección del viento	1.61
173411	7	Sololá	712	San Antonio Palopó	9	San Antonio Palopo	5	Mayo	2023-05-26T00:00:00	2024-11-08T21:00:00	1	Precipitación	0
173412	7	Sololá	712	San Antonio Palopó	9	San Antonio Palopo	5	Mayo	2023-05-26T00:00:00	2024-11-08T21:00:00	8	Radiación solar	0
173413	7	Sololá	712	San Antonio Palopó	9	San Antonio Palopo	5	Mayo	2023-05-26T00:00:00	2024-11-08T22:00:00	2	Temperatura media	21.3
173414	7	Sololá	712	San Antonio Palopó	9	San Antonio Palopo	5	Mayo	2023-05-26T00:00:00	2024-11-08T22:00:00	4	Temperatura máxima	21.6
173415	7	Sololá	712	San Antonio Palopó	9	San Antonio Palopo	5	Mayo	2023-05-26T00:00:00	2024-11-08T22:00:00	3	Temperatura mínima	21.3
173416	7	Sololá	712	San Antonio Palopó	9	San Antonio Palopo	5	Mayo	2023-05-26T00:00:00	2024-11-08T22:00:00	5	Humedad	73
173417	7	Sololá	712	San Antonio Palopó	9	San Antonio Palopo	5	Mayo	2023-05-26T00:00:00	2024-11-08T22:00:00	6	Velocidad del viento	3.2
173418	7	Sololá	712	San Antonio Palopó	9	San Antonio Palopo	5	Mayo	2023-05-26T00:00:00	2024-11-08T22:00:00	7	Dirección del viento	3.22
173419	7	Sololá	712	San Antonio Palopó	9	San Antonio Palopo	5	Mayo	2023-05-26T00:00:00	2024-11-08T22:00:00	1	Precipitación	0
173420	7	Sololá	712	San Antonio Palopó	9	San Antonio Palopo	5	Mayo	2023-05-26T00:00:00	2024-11-08T22:00:00	8	Radiación solar	0
173421	7	Sololá	712	San Antonio Palopó	9	San Antonio Palopo	5	Mayo	2023-05-26T00:00:00	2024-11-08T23:00:00	2	Temperatura media	20.8
173422	7	Sololá	712	San Antonio Palopó	9	San Antonio Palopo	5	Mayo	2023-05-26T00:00:00	2024-11-08T23:00:00	4	Temperatura máxima	21.3
173423	7	Sololá	712	San Antonio Palopó	9	San Antonio Palopo	5	Mayo	2023-05-26T00:00:00	2024-11-08T23:00:00	3	Temperatura mínima	20.8
173424	7	Sololá	712	San Antonio Palopó	9	San Antonio Palopo	5	Mayo	2023-05-26T00:00:00	2024-11-08T23:00:00	5	Humedad	69
173425	7	Sololá	712	San Antonio Palopó	9	San Antonio Palopo	5	Mayo	2023-05-26T00:00:00	2024-11-08T23:00:00	6	Velocidad del viento	9.7
173426	7	Sololá	712	San Antonio Palopó	9	San Antonio Palopo	5	Mayo	2023-05-26T00:00:00	2024-11-08T23:00:00	7	Dirección del viento	9.66
173427	7	Sololá	712	San Antonio Palopó	9	San Antonio Palopo	5	Mayo	2023-05-26T00:00:00	2024-11-08T23:00:00	1	Precipitación	0
173428	7	Sololá	712	San Antonio Palopó	9	San Antonio Palopo	5	Mayo	2023-05-26T00:00:00	2024-11-08T23:00:00	8	Radiación solar	0
173429	7	Sololá	712	San Antonio Palopó	9	San Antonio Palopo	5	Mayo	2023-05-27T00:00:00	2024-11-08T00:00:00	2	Temperatura media	20.1
173430	7	Sololá	712	San Antonio Palopó	9	San Antonio Palopo	5	Mayo	2023-05-27T00:00:00	2024-11-08T00:00:00	4	Temperatura máxima	20.9
173431	7	Sololá	712	San Antonio Palopó	9	San Antonio Palopo	5	Mayo	2023-05-27T00:00:00	2024-11-08T00:00:00	3	Temperatura mínima	20
173432	7	Sololá	712	San Antonio Palopó	9	San Antonio Palopo	5	Mayo	2023-05-27T00:00:00	2024-11-08T00:00:00	5	Humedad	71
173433	7	Sololá	712	San Antonio Palopó	9	San Antonio Palopo	5	Mayo	2023-05-27T00:00:00	2024-11-08T00:00:00	6	Velocidad del viento	16.1
173434	7	Sololá	712	San Antonio Palopó	9	San Antonio Palopo	5	Mayo	2023-05-27T00:00:00	2024-11-08T00:00:00	7	Dirección del viento	16.09
173435	7	Sololá	712	San Antonio Palopó	9	San Antonio Palopo	5	Mayo	2023-05-27T00:00:00	2024-11-08T00:00:00	1	Precipitación	0
173436	7	Sololá	712	San Antonio Palopó	9	San Antonio Palopo	5	Mayo	2023-05-27T00:00:00	2024-11-08T00:00:00	8	Radiación solar	0
173437	7	Sololá	712	San Antonio Palopó	9	San Antonio Palopo	5	Mayo	2023-05-27T00:00:00	2024-11-08T01:00:00	2	Temperatura media	19.3
173438	7	Sololá	712	San Antonio Palopó	9	San Antonio Palopo	5	Mayo	2023-05-27T00:00:00	2024-11-08T01:00:00	4	Temperatura máxima	20
173439	7	Sololá	712	San Antonio Palopó	9	San Antonio Palopo	5	Mayo	2023-05-27T00:00:00	2024-11-08T01:00:00	3	Temperatura mínima	19.3
173440	7	Sololá	712	San Antonio Palopó	9	San Antonio Palopo	5	Mayo	2023-05-27T00:00:00	2024-11-08T01:00:00	5	Humedad	72
173441	7	Sololá	712	San Antonio Palopó	9	San Antonio Palopo	5	Mayo	2023-05-27T00:00:00	2024-11-08T01:00:00	6	Velocidad del viento	11.3
173442	7	Sololá	712	San Antonio Palopó	9	San Antonio Palopo	5	Mayo	2023-05-27T00:00:00	2024-11-08T01:00:00	7	Dirección del viento	11.27
173443	7	Sololá	712	San Antonio Palopó	9	San Antonio Palopo	5	Mayo	2023-05-27T00:00:00	2024-11-08T01:00:00	1	Precipitación	0
173444	7	Sololá	712	San Antonio Palopó	9	San Antonio Palopo	5	Mayo	2023-05-27T00:00:00	2024-11-08T01:00:00	8	Radiación solar	0
173445	7	Sololá	712	San Antonio Palopó	9	San Antonio Palopo	5	Mayo	2023-05-27T00:00:00	2024-11-08T02:00:00	2	Temperatura media	19.1
173446	7	Sololá	712	San Antonio Palopó	9	San Antonio Palopo	5	Mayo	2023-05-27T00:00:00	2024-11-08T02:00:00	4	Temperatura máxima	19.4
173447	7	Sololá	712	San Antonio Palopó	9	San Antonio Palopo	5	Mayo	2023-05-27T00:00:00	2024-11-08T02:00:00	3	Temperatura mínima	19
173448	7	Sololá	712	San Antonio Palopó	9	San Antonio Palopo	5	Mayo	2023-05-27T00:00:00	2024-11-08T02:00:00	5	Humedad	68
173449	7	Sololá	712	San Antonio Palopó	9	San Antonio Palopo	5	Mayo	2023-05-27T00:00:00	2024-11-08T02:00:00	6	Velocidad del viento	8
173450	7	Sololá	712	San Antonio Palopó	9	San Antonio Palopo	5	Mayo	2023-05-27T00:00:00	2024-11-08T02:00:00	7	Dirección del viento	8.05
173451	7	Sololá	712	San Antonio Palopó	9	San Antonio Palopo	5	Mayo	2023-05-27T00:00:00	2024-11-08T02:00:00	1	Precipitación	0
173452	7	Sololá	712	San Antonio Palopó	9	San Antonio Palopo	5	Mayo	2023-05-27T00:00:00	2024-11-08T02:00:00	8	Radiación solar	0
173453	7	Sololá	712	San Antonio Palopó	9	San Antonio Palopo	5	Mayo	2023-05-27T00:00:00	2024-11-08T03:00:00	2	Temperatura media	18.7
173454	7	Sololá	712	San Antonio Palopó	9	San Antonio Palopo	5	Mayo	2023-05-27T00:00:00	2024-11-08T03:00:00	4	Temperatura máxima	19.1
173455	7	Sololá	712	San Antonio Palopó	9	San Antonio Palopo	5	Mayo	2023-05-27T00:00:00	2024-11-08T03:00:00	3	Temperatura mínima	18.3
173456	7	Sololá	712	San Antonio Palopó	9	San Antonio Palopo	5	Mayo	2023-05-27T00:00:00	2024-11-08T03:00:00	5	Humedad	67
173457	7	Sololá	712	San Antonio Palopó	9	San Antonio Palopo	5	Mayo	2023-05-27T00:00:00	2024-11-08T03:00:00	6	Velocidad del viento	9.7
173458	7	Sololá	712	San Antonio Palopó	9	San Antonio Palopo	5	Mayo	2023-05-27T00:00:00	2024-11-08T03:00:00	7	Dirección del viento	9.66
173459	7	Sololá	712	San Antonio Palopó	9	San Antonio Palopo	5	Mayo	2023-05-27T00:00:00	2024-11-08T03:00:00	1	Precipitación	0
173460	7	Sololá	712	San Antonio Palopó	9	San Antonio Palopo	5	Mayo	2023-05-27T00:00:00	2024-11-08T03:00:00	8	Radiación solar	0
173461	7	Sololá	712	San Antonio Palopó	9	San Antonio Palopo	5	Mayo	2023-05-27T00:00:00	2024-11-08T04:00:00	2	Temperatura media	18.5
173462	7	Sololá	712	San Antonio Palopó	9	San Antonio Palopo	5	Mayo	2023-05-27T00:00:00	2024-11-08T04:00:00	4	Temperatura máxima	18.7
173463	7	Sololá	712	San Antonio Palopó	9	San Antonio Palopo	5	Mayo	2023-05-27T00:00:00	2024-11-08T04:00:00	3	Temperatura mínima	18.2
173464	7	Sololá	712	San Antonio Palopó	9	San Antonio Palopo	5	Mayo	2023-05-27T00:00:00	2024-11-08T04:00:00	5	Humedad	68
173465	7	Sololá	712	San Antonio Palopó	9	San Antonio Palopo	5	Mayo	2023-05-27T00:00:00	2024-11-08T04:00:00	6	Velocidad del viento	9.7
173466	7	Sololá	712	San Antonio Palopó	9	San Antonio Palopo	5	Mayo	2023-05-27T00:00:00	2024-11-08T04:00:00	7	Dirección del viento	9.66
173467	7	Sololá	712	San Antonio Palopó	9	San Antonio Palopo	5	Mayo	2023-05-27T00:00:00	2024-11-08T04:00:00	1	Precipitación	0
173468	7	Sololá	712	San Antonio Palopó	9	San Antonio Palopo	5	Mayo	2023-05-27T00:00:00	2024-11-08T04:00:00	8	Radiación solar	0
173469	7	Sololá	712	San Antonio Palopó	9	San Antonio Palopo	5	Mayo	2023-05-27T00:00:00	2024-11-08T05:00:00	2	Temperatura media	18.8
173470	7	Sololá	712	San Antonio Palopó	9	San Antonio Palopo	5	Mayo	2023-05-27T00:00:00	2024-11-08T05:00:00	4	Temperatura máxima	19
173471	7	Sololá	712	San Antonio Palopó	9	San Antonio Palopo	5	Mayo	2023-05-27T00:00:00	2024-11-08T05:00:00	3	Temperatura mínima	18.4
173472	7	Sololá	712	San Antonio Palopó	9	San Antonio Palopo	5	Mayo	2023-05-27T00:00:00	2024-11-08T05:00:00	5	Humedad	66
173473	7	Sololá	712	San Antonio Palopó	9	San Antonio Palopo	5	Mayo	2023-05-27T00:00:00	2024-11-08T05:00:00	6	Velocidad del viento	9.7
173474	7	Sololá	712	San Antonio Palopó	9	San Antonio Palopo	5	Mayo	2023-05-27T00:00:00	2024-11-08T05:00:00	7	Dirección del viento	9.66
173475	7	Sololá	712	San Antonio Palopó	9	San Antonio Palopo	5	Mayo	2023-05-27T00:00:00	2024-11-08T05:00:00	1	Precipitación	0
173476	7	Sololá	712	San Antonio Palopó	9	San Antonio Palopo	5	Mayo	2023-05-27T00:00:00	2024-11-08T05:00:00	8	Radiación solar	0
173477	7	Sololá	712	San Antonio Palopó	9	San Antonio Palopo	5	Mayo	2023-05-27T00:00:00	2024-11-08T06:00:00	2	Temperatura media	18.7
173478	7	Sololá	712	San Antonio Palopó	9	San Antonio Palopo	5	Mayo	2023-05-27T00:00:00	2024-11-08T06:00:00	4	Temperatura máxima	18.8
173479	7	Sololá	712	San Antonio Palopó	9	San Antonio Palopo	5	Mayo	2023-05-27T00:00:00	2024-11-08T06:00:00	3	Temperatura mínima	18.6
173480	7	Sololá	712	San Antonio Palopó	9	San Antonio Palopo	5	Mayo	2023-05-27T00:00:00	2024-11-08T06:00:00	5	Humedad	68
173481	7	Sololá	712	San Antonio Palopó	9	San Antonio Palopo	5	Mayo	2023-05-27T00:00:00	2024-11-08T06:00:00	6	Velocidad del viento	11.3
173482	7	Sololá	712	San Antonio Palopó	9	San Antonio Palopo	5	Mayo	2023-05-27T00:00:00	2024-11-08T06:00:00	7	Dirección del viento	11.27
173483	7	Sololá	712	San Antonio Palopó	9	San Antonio Palopo	5	Mayo	2023-05-27T00:00:00	2024-11-08T06:00:00	1	Precipitación	0
173484	7	Sololá	712	San Antonio Palopó	9	San Antonio Palopo	5	Mayo	2023-05-27T00:00:00	2024-11-08T06:00:00	8	Radiación solar	4
173485	7	Sololá	712	San Antonio Palopó	9	San Antonio Palopo	5	Mayo	2023-05-27T00:00:00	2024-11-08T07:00:00	2	Temperatura media	19.2
173486	7	Sololá	712	San Antonio Palopó	9	San Antonio Palopo	5	Mayo	2023-05-27T00:00:00	2024-11-08T07:00:00	4	Temperatura máxima	19.2
173487	7	Sololá	712	San Antonio Palopó	9	San Antonio Palopo	5	Mayo	2023-05-27T00:00:00	2024-11-08T07:00:00	3	Temperatura mínima	18.4
173488	7	Sololá	712	San Antonio Palopó	9	San Antonio Palopo	5	Mayo	2023-05-27T00:00:00	2024-11-08T07:00:00	5	Humedad	67
173489	7	Sololá	712	San Antonio Palopó	9	San Antonio Palopo	5	Mayo	2023-05-27T00:00:00	2024-11-08T07:00:00	6	Velocidad del viento	8
173490	7	Sololá	712	San Antonio Palopó	9	San Antonio Palopo	5	Mayo	2023-05-27T00:00:00	2024-11-08T07:00:00	7	Dirección del viento	8.05
173491	7	Sololá	712	San Antonio Palopó	9	San Antonio Palopo	5	Mayo	2023-05-27T00:00:00	2024-11-08T07:00:00	1	Precipitación	0
173492	7	Sololá	712	San Antonio Palopó	9	San Antonio Palopo	5	Mayo	2023-05-27T00:00:00	2024-11-08T07:00:00	8	Radiación solar	62
173493	7	Sololá	712	San Antonio Palopó	9	San Antonio Palopo	5	Mayo	2023-05-27T00:00:00	2024-11-08T08:00:00	2	Temperatura media	20.8
173494	7	Sololá	712	San Antonio Palopó	9	San Antonio Palopo	5	Mayo	2023-05-27T00:00:00	2024-11-08T08:00:00	4	Temperatura máxima	20.8
173495	7	Sololá	712	San Antonio Palopó	9	San Antonio Palopo	5	Mayo	2023-05-27T00:00:00	2024-11-08T08:00:00	3	Temperatura mínima	19.2
173496	7	Sololá	712	San Antonio Palopó	9	San Antonio Palopo	5	Mayo	2023-05-27T00:00:00	2024-11-08T08:00:00	5	Humedad	65
173497	7	Sololá	712	San Antonio Palopó	9	San Antonio Palopo	5	Mayo	2023-05-27T00:00:00	2024-11-08T08:00:00	6	Velocidad del viento	4.8
173498	7	Sololá	712	San Antonio Palopó	9	San Antonio Palopo	5	Mayo	2023-05-27T00:00:00	2024-11-08T08:00:00	7	Dirección del viento	4.83
173499	7	Sololá	712	San Antonio Palopó	9	San Antonio Palopo	5	Mayo	2023-05-27T00:00:00	2024-11-08T08:00:00	1	Precipitación	0
173500	7	Sololá	712	San Antonio Palopó	9	San Antonio Palopo	5	Mayo	2023-05-27T00:00:00	2024-11-08T08:00:00	8	Radiación solar	229
173501	7	Sololá	712	San Antonio Palopó	9	San Antonio Palopo	5	Mayo	2023-05-27T00:00:00	2024-11-08T09:00:00	2	Temperatura media	21
173502	7	Sololá	712	San Antonio Palopó	9	San Antonio Palopo	5	Mayo	2023-05-27T00:00:00	2024-11-08T09:00:00	4	Temperatura máxima	21
173503	7	Sololá	712	San Antonio Palopó	9	San Antonio Palopo	5	Mayo	2023-05-27T00:00:00	2024-11-08T09:00:00	3	Temperatura mínima	20.6
173504	7	Sololá	712	San Antonio Palopó	9	San Antonio Palopo	5	Mayo	2023-05-27T00:00:00	2024-11-08T09:00:00	5	Humedad	61
173505	7	Sololá	712	San Antonio Palopó	9	San Antonio Palopo	5	Mayo	2023-05-27T00:00:00	2024-11-08T09:00:00	6	Velocidad del viento	3.2
173506	7	Sololá	712	San Antonio Palopó	9	San Antonio Palopo	5	Mayo	2023-05-27T00:00:00	2024-11-08T09:00:00	7	Dirección del viento	3.22
173507	7	Sololá	712	San Antonio Palopó	9	San Antonio Palopo	5	Mayo	2023-05-27T00:00:00	2024-11-08T09:00:00	1	Precipitación	0
173508	7	Sololá	712	San Antonio Palopó	9	San Antonio Palopo	5	Mayo	2023-05-27T00:00:00	2024-11-08T09:00:00	8	Radiación solar	349
173509	7	Sololá	712	San Antonio Palopó	9	San Antonio Palopo	5	Mayo	2023-05-27T00:00:00	2024-11-08T10:00:00	2	Temperatura media	21.6
173510	7	Sololá	712	San Antonio Palopó	9	San Antonio Palopo	5	Mayo	2023-05-27T00:00:00	2024-11-08T10:00:00	4	Temperatura máxima	21.7
173511	7	Sololá	712	San Antonio Palopó	9	San Antonio Palopo	5	Mayo	2023-05-27T00:00:00	2024-11-08T10:00:00	3	Temperatura mínima	21
173512	7	Sololá	712	San Antonio Palopó	9	San Antonio Palopo	5	Mayo	2023-05-27T00:00:00	2024-11-08T10:00:00	5	Humedad	63
173513	7	Sololá	712	San Antonio Palopó	9	San Antonio Palopo	5	Mayo	2023-05-27T00:00:00	2024-11-08T10:00:00	6	Velocidad del viento	3.2
173514	7	Sololá	712	San Antonio Palopó	9	San Antonio Palopo	5	Mayo	2023-05-27T00:00:00	2024-11-08T10:00:00	7	Dirección del viento	3.22
173515	7	Sololá	712	San Antonio Palopó	9	San Antonio Palopo	5	Mayo	2023-05-27T00:00:00	2024-11-08T10:00:00	1	Precipitación	0
173516	7	Sololá	712	San Antonio Palopó	9	San Antonio Palopo	5	Mayo	2023-05-27T00:00:00	2024-11-08T10:00:00	8	Radiación solar	479
173517	7	Sololá	712	San Antonio Palopó	9	San Antonio Palopo	5	Mayo	2023-05-27T00:00:00	2024-11-08T11:00:00	2	Temperatura media	22.5
173518	7	Sololá	712	San Antonio Palopó	9	San Antonio Palopo	5	Mayo	2023-05-27T00:00:00	2024-11-08T11:00:00	4	Temperatura máxima	22.6
173519	7	Sololá	712	San Antonio Palopó	9	San Antonio Palopo	5	Mayo	2023-05-27T00:00:00	2024-11-08T11:00:00	3	Temperatura mínima	21.5
173520	7	Sololá	712	San Antonio Palopó	9	San Antonio Palopo	5	Mayo	2023-05-27T00:00:00	2024-11-08T11:00:00	5	Humedad	62
173521	7	Sololá	712	San Antonio Palopó	9	San Antonio Palopo	5	Mayo	2023-05-27T00:00:00	2024-11-08T11:00:00	6	Velocidad del viento	3.2
173522	7	Sololá	712	San Antonio Palopó	9	San Antonio Palopo	5	Mayo	2023-05-27T00:00:00	2024-11-08T11:00:00	7	Dirección del viento	3.22
173523	7	Sololá	712	San Antonio Palopó	9	San Antonio Palopo	5	Mayo	2023-05-27T00:00:00	2024-11-08T11:00:00	1	Precipitación	0
173524	7	Sololá	712	San Antonio Palopó	9	San Antonio Palopo	5	Mayo	2023-05-27T00:00:00	2024-11-08T11:00:00	8	Radiación solar	544
173525	7	Sololá	712	San Antonio Palopó	9	San Antonio Palopo	5	Mayo	2023-05-27T00:00:00	2024-11-08T12:00:00	2	Temperatura media	24.4
173526	7	Sololá	712	San Antonio Palopó	9	San Antonio Palopo	5	Mayo	2023-05-27T00:00:00	2024-11-08T12:00:00	4	Temperatura máxima	24.4
173527	7	Sololá	712	San Antonio Palopó	9	San Antonio Palopo	5	Mayo	2023-05-27T00:00:00	2024-11-08T12:00:00	3	Temperatura mínima	22.5
173528	7	Sololá	712	San Antonio Palopó	9	San Antonio Palopo	5	Mayo	2023-05-27T00:00:00	2024-11-08T12:00:00	5	Humedad	55
173529	7	Sololá	712	San Antonio Palopó	9	San Antonio Palopo	5	Mayo	2023-05-27T00:00:00	2024-11-08T12:00:00	6	Velocidad del viento	3.2
173530	7	Sololá	712	San Antonio Palopó	9	San Antonio Palopo	5	Mayo	2023-05-27T00:00:00	2024-11-08T12:00:00	7	Dirección del viento	3.22
173531	7	Sololá	712	San Antonio Palopó	9	San Antonio Palopo	5	Mayo	2023-05-27T00:00:00	2024-11-08T12:00:00	1	Precipitación	0
173532	7	Sololá	712	San Antonio Palopó	9	San Antonio Palopo	5	Mayo	2023-05-27T00:00:00	2024-11-08T12:00:00	8	Radiación solar	901
173533	7	Sololá	712	San Antonio Palopó	9	San Antonio Palopo	5	Mayo	2023-05-27T00:00:00	2024-11-08T13:00:00	2	Temperatura media	24.6
173534	7	Sololá	712	San Antonio Palopó	9	San Antonio Palopo	5	Mayo	2023-05-27T00:00:00	2024-11-08T13:00:00	4	Temperatura máxima	25.1
173535	7	Sololá	712	San Antonio Palopó	9	San Antonio Palopo	5	Mayo	2023-05-27T00:00:00	2024-11-08T13:00:00	3	Temperatura mínima	24.1
173536	7	Sololá	712	San Antonio Palopó	9	San Antonio Palopo	5	Mayo	2023-05-27T00:00:00	2024-11-08T13:00:00	5	Humedad	61
173537	7	Sololá	712	San Antonio Palopó	9	San Antonio Palopo	5	Mayo	2023-05-27T00:00:00	2024-11-08T13:00:00	6	Velocidad del viento	4.8
173538	7	Sololá	712	San Antonio Palopó	9	San Antonio Palopo	5	Mayo	2023-05-27T00:00:00	2024-11-08T13:00:00	7	Dirección del viento	4.83
173539	7	Sololá	712	San Antonio Palopó	9	San Antonio Palopo	5	Mayo	2023-05-27T00:00:00	2024-11-08T13:00:00	1	Precipitación	0
173540	7	Sololá	712	San Antonio Palopó	9	San Antonio Palopo	5	Mayo	2023-05-27T00:00:00	2024-11-08T13:00:00	8	Radiación solar	901
173541	7	Sololá	712	San Antonio Palopó	9	San Antonio Palopo	5	Mayo	2023-05-27T00:00:00	2024-11-08T14:00:00	2	Temperatura media	24.7
173542	7	Sololá	712	San Antonio Palopó	9	San Antonio Palopo	5	Mayo	2023-05-27T00:00:00	2024-11-08T14:00:00	4	Temperatura máxima	25.7
173543	7	Sololá	712	San Antonio Palopó	9	San Antonio Palopo	5	Mayo	2023-05-27T00:00:00	2024-11-08T14:00:00	3	Temperatura mínima	24.5
173544	7	Sololá	712	San Antonio Palopó	9	San Antonio Palopo	5	Mayo	2023-05-27T00:00:00	2024-11-08T14:00:00	5	Humedad	66
173545	7	Sololá	712	San Antonio Palopó	9	San Antonio Palopo	5	Mayo	2023-05-27T00:00:00	2024-11-08T14:00:00	6	Velocidad del viento	4.8
173546	7	Sololá	712	San Antonio Palopó	9	San Antonio Palopo	5	Mayo	2023-05-27T00:00:00	2024-11-08T14:00:00	7	Dirección del viento	4.83
173547	7	Sololá	712	San Antonio Palopó	9	San Antonio Palopo	5	Mayo	2023-05-27T00:00:00	2024-11-08T14:00:00	1	Precipitación	0
173548	7	Sololá	712	San Antonio Palopó	9	San Antonio Palopo	5	Mayo	2023-05-27T00:00:00	2024-11-08T14:00:00	8	Radiación solar	741
173549	7	Sololá	712	San Antonio Palopó	9	San Antonio Palopo	5	Mayo	2023-05-27T00:00:00	2024-11-08T15:00:00	2	Temperatura media	24.2
173550	7	Sololá	712	San Antonio Palopó	9	San Antonio Palopo	5	Mayo	2023-05-27T00:00:00	2024-11-08T15:00:00	4	Temperatura máxima	24.7
173551	7	Sololá	712	San Antonio Palopó	9	San Antonio Palopo	5	Mayo	2023-05-27T00:00:00	2024-11-08T15:00:00	3	Temperatura mínima	23.3
173552	7	Sololá	712	San Antonio Palopó	9	San Antonio Palopo	5	Mayo	2023-05-27T00:00:00	2024-11-08T15:00:00	5	Humedad	65
173553	7	Sololá	712	San Antonio Palopó	9	San Antonio Palopo	5	Mayo	2023-05-27T00:00:00	2024-11-08T15:00:00	6	Velocidad del viento	6.4
173554	7	Sololá	712	San Antonio Palopó	9	San Antonio Palopo	5	Mayo	2023-05-27T00:00:00	2024-11-08T15:00:00	7	Dirección del viento	6.44
173555	7	Sololá	712	San Antonio Palopó	9	San Antonio Palopo	5	Mayo	2023-05-27T00:00:00	2024-11-08T15:00:00	1	Precipitación	0
173556	7	Sololá	712	San Antonio Palopó	9	San Antonio Palopo	5	Mayo	2023-05-27T00:00:00	2024-11-08T15:00:00	8	Radiación solar	331
173557	7	Sololá	712	San Antonio Palopó	9	San Antonio Palopo	5	Mayo	2023-05-27T00:00:00	2024-11-08T16:00:00	2	Temperatura media	23.1
173558	7	Sololá	712	San Antonio Palopó	9	San Antonio Palopo	5	Mayo	2023-05-27T00:00:00	2024-11-08T16:00:00	4	Temperatura máxima	24.8
173559	7	Sololá	712	San Antonio Palopó	9	San Antonio Palopo	5	Mayo	2023-05-27T00:00:00	2024-11-08T16:00:00	3	Temperatura mínima	22.9
173560	7	Sololá	712	San Antonio Palopó	9	San Antonio Palopo	5	Mayo	2023-05-27T00:00:00	2024-11-08T16:00:00	5	Humedad	72
173561	7	Sololá	712	San Antonio Palopó	9	San Antonio Palopo	5	Mayo	2023-05-27T00:00:00	2024-11-08T16:00:00	6	Velocidad del viento	8
173562	7	Sololá	712	San Antonio Palopó	9	San Antonio Palopo	5	Mayo	2023-05-27T00:00:00	2024-11-08T16:00:00	7	Dirección del viento	8.05
173563	7	Sololá	712	San Antonio Palopó	9	San Antonio Palopo	5	Mayo	2023-05-27T00:00:00	2024-11-08T16:00:00	1	Precipitación	0
173564	7	Sololá	712	San Antonio Palopó	9	San Antonio Palopo	5	Mayo	2023-05-27T00:00:00	2024-11-08T16:00:00	8	Radiación solar	450
173565	7	Sololá	712	San Antonio Palopó	9	San Antonio Palopo	5	Mayo	2023-05-27T00:00:00	2024-11-08T17:00:00	2	Temperatura media	22.4
173566	7	Sololá	712	San Antonio Palopó	9	San Antonio Palopo	5	Mayo	2023-05-27T00:00:00	2024-11-08T17:00:00	4	Temperatura máxima	23.5
173567	7	Sololá	712	San Antonio Palopó	9	San Antonio Palopo	5	Mayo	2023-05-27T00:00:00	2024-11-08T17:00:00	3	Temperatura mínima	22.4
173568	7	Sololá	712	San Antonio Palopó	9	San Antonio Palopo	5	Mayo	2023-05-27T00:00:00	2024-11-08T17:00:00	5	Humedad	76
173569	7	Sololá	712	San Antonio Palopó	9	San Antonio Palopo	5	Mayo	2023-05-27T00:00:00	2024-11-08T17:00:00	6	Velocidad del viento	6.4
173570	7	Sololá	712	San Antonio Palopó	9	San Antonio Palopo	5	Mayo	2023-05-27T00:00:00	2024-11-08T17:00:00	7	Dirección del viento	6.44
173571	7	Sololá	712	San Antonio Palopó	9	San Antonio Palopo	5	Mayo	2023-05-27T00:00:00	2024-11-08T17:00:00	1	Precipitación	0
173572	7	Sololá	712	San Antonio Palopó	9	San Antonio Palopo	5	Mayo	2023-05-27T00:00:00	2024-11-08T17:00:00	8	Radiación solar	216
173573	7	Sololá	712	San Antonio Palopó	9	San Antonio Palopo	5	Mayo	2023-05-27T00:00:00	2024-11-08T18:00:00	2	Temperatura media	22.1
173574	7	Sololá	712	San Antonio Palopó	9	San Antonio Palopo	5	Mayo	2023-05-27T00:00:00	2024-11-08T18:00:00	4	Temperatura máxima	22.6
173575	7	Sololá	712	San Antonio Palopó	9	San Antonio Palopo	5	Mayo	2023-05-27T00:00:00	2024-11-08T18:00:00	3	Temperatura mínima	22.1
173576	7	Sololá	712	San Antonio Palopó	9	San Antonio Palopo	5	Mayo	2023-05-27T00:00:00	2024-11-08T18:00:00	5	Humedad	76
173577	7	Sololá	712	San Antonio Palopó	9	San Antonio Palopo	5	Mayo	2023-05-27T00:00:00	2024-11-08T18:00:00	6	Velocidad del viento	4.8
173578	7	Sololá	712	San Antonio Palopó	9	San Antonio Palopo	5	Mayo	2023-05-27T00:00:00	2024-11-08T18:00:00	7	Dirección del viento	4.83
173579	7	Sololá	712	San Antonio Palopó	9	San Antonio Palopo	5	Mayo	2023-05-27T00:00:00	2024-11-08T18:00:00	1	Precipitación	0
173580	7	Sololá	712	San Antonio Palopó	9	San Antonio Palopo	5	Mayo	2023-05-27T00:00:00	2024-11-08T18:00:00	8	Radiación solar	42
173581	7	Sololá	712	San Antonio Palopó	9	San Antonio Palopo	5	Mayo	2023-05-27T00:00:00	2024-11-08T19:00:00	2	Temperatura media	20.9
173582	7	Sololá	712	San Antonio Palopó	9	San Antonio Palopo	5	Mayo	2023-05-27T00:00:00	2024-11-08T19:00:00	4	Temperatura máxima	22.1
173583	7	Sololá	712	San Antonio Palopó	9	San Antonio Palopo	5	Mayo	2023-05-27T00:00:00	2024-11-08T19:00:00	3	Temperatura mínima	20.9
173584	7	Sololá	712	San Antonio Palopó	9	San Antonio Palopo	5	Mayo	2023-05-27T00:00:00	2024-11-08T19:00:00	5	Humedad	81
173585	7	Sololá	712	San Antonio Palopó	9	San Antonio Palopo	5	Mayo	2023-05-27T00:00:00	2024-11-08T19:00:00	6	Velocidad del viento	4.8
173586	7	Sololá	712	San Antonio Palopó	9	San Antonio Palopo	5	Mayo	2023-05-27T00:00:00	2024-11-08T19:00:00	7	Dirección del viento	4.83
173587	7	Sololá	712	San Antonio Palopó	9	San Antonio Palopo	5	Mayo	2023-05-27T00:00:00	2024-11-08T19:00:00	1	Precipitación	0
173588	7	Sololá	712	San Antonio Palopó	9	San Antonio Palopo	5	Mayo	2023-05-27T00:00:00	2024-11-08T19:00:00	8	Radiación solar	0
173589	7	Sololá	712	San Antonio Palopó	9	San Antonio Palopo	5	Mayo	2023-05-27T00:00:00	2024-11-08T20:00:00	2	Temperatura media	20.7
173590	7	Sololá	712	San Antonio Palopó	9	San Antonio Palopo	5	Mayo	2023-05-27T00:00:00	2024-11-08T20:00:00	4	Temperatura máxima	21.1
173591	7	Sololá	712	San Antonio Palopó	9	San Antonio Palopo	5	Mayo	2023-05-27T00:00:00	2024-11-08T20:00:00	3	Temperatura mínima	20.6
173592	7	Sololá	712	San Antonio Palopó	9	San Antonio Palopo	5	Mayo	2023-05-27T00:00:00	2024-11-08T20:00:00	5	Humedad	79
173593	7	Sololá	712	San Antonio Palopó	9	San Antonio Palopo	5	Mayo	2023-05-27T00:00:00	2024-11-08T20:00:00	6	Velocidad del viento	4.8
173594	7	Sololá	712	San Antonio Palopó	9	San Antonio Palopo	5	Mayo	2023-05-27T00:00:00	2024-11-08T20:00:00	7	Dirección del viento	4.83
173595	7	Sololá	712	San Antonio Palopó	9	San Antonio Palopo	5	Mayo	2023-05-27T00:00:00	2024-11-08T20:00:00	1	Precipitación	0
173596	7	Sololá	712	San Antonio Palopó	9	San Antonio Palopo	5	Mayo	2023-05-27T00:00:00	2024-11-08T20:00:00	8	Radiación solar	0
173597	7	Sololá	712	San Antonio Palopó	9	San Antonio Palopo	5	Mayo	2023-05-27T00:00:00	2024-11-08T21:00:00	2	Temperatura media	21.2
173598	7	Sololá	712	San Antonio Palopó	9	San Antonio Palopo	5	Mayo	2023-05-27T00:00:00	2024-11-08T21:00:00	4	Temperatura máxima	21.2
173599	7	Sololá	712	San Antonio Palopó	9	San Antonio Palopo	5	Mayo	2023-05-27T00:00:00	2024-11-08T21:00:00	3	Temperatura mínima	20.7
173600	7	Sololá	712	San Antonio Palopó	9	San Antonio Palopo	5	Mayo	2023-05-27T00:00:00	2024-11-08T21:00:00	5	Humedad	73
173601	7	Sololá	712	San Antonio Palopó	9	San Antonio Palopo	5	Mayo	2023-05-27T00:00:00	2024-11-08T21:00:00	6	Velocidad del viento	6.4
173602	7	Sololá	712	San Antonio Palopó	9	San Antonio Palopo	5	Mayo	2023-05-27T00:00:00	2024-11-08T21:00:00	7	Dirección del viento	6.44
173603	7	Sololá	712	San Antonio Palopó	9	San Antonio Palopo	5	Mayo	2023-05-27T00:00:00	2024-11-08T21:00:00	1	Precipitación	0
173604	7	Sololá	712	San Antonio Palopó	9	San Antonio Palopo	5	Mayo	2023-05-27T00:00:00	2024-11-08T21:00:00	8	Radiación solar	0
173605	7	Sololá	712	San Antonio Palopó	9	San Antonio Palopo	5	Mayo	2023-05-27T00:00:00	2024-11-08T22:00:00	2	Temperatura media	21.3
173606	7	Sololá	712	San Antonio Palopó	9	San Antonio Palopo	5	Mayo	2023-05-27T00:00:00	2024-11-08T22:00:00	4	Temperatura máxima	21.3
173607	7	Sololá	712	San Antonio Palopó	9	San Antonio Palopo	5	Mayo	2023-05-27T00:00:00	2024-11-08T22:00:00	3	Temperatura mínima	21.2
173608	7	Sololá	712	San Antonio Palopó	9	San Antonio Palopo	5	Mayo	2023-05-27T00:00:00	2024-11-08T22:00:00	5	Humedad	72
173609	7	Sololá	712	San Antonio Palopó	9	San Antonio Palopo	5	Mayo	2023-05-27T00:00:00	2024-11-08T22:00:00	6	Velocidad del viento	4.8
173610	7	Sololá	712	San Antonio Palopó	9	San Antonio Palopo	5	Mayo	2023-05-27T00:00:00	2024-11-08T22:00:00	7	Dirección del viento	4.83
173611	7	Sololá	712	San Antonio Palopó	9	San Antonio Palopo	5	Mayo	2023-05-27T00:00:00	2024-11-08T22:00:00	1	Precipitación	0
173612	7	Sololá	712	San Antonio Palopó	9	San Antonio Palopo	5	Mayo	2023-05-27T00:00:00	2024-11-08T22:00:00	8	Radiación solar	0
173613	7	Sololá	712	San Antonio Palopó	9	San Antonio Palopo	5	Mayo	2023-05-27T00:00:00	2024-11-08T23:00:00	2	Temperatura media	19.3
173614	7	Sololá	712	San Antonio Palopó	9	San Antonio Palopo	5	Mayo	2023-05-27T00:00:00	2024-11-08T23:00:00	4	Temperatura máxima	21.3
173615	7	Sololá	712	San Antonio Palopó	9	San Antonio Palopo	5	Mayo	2023-05-27T00:00:00	2024-11-08T23:00:00	3	Temperatura mínima	19.3
173616	7	Sololá	712	San Antonio Palopó	9	San Antonio Palopo	5	Mayo	2023-05-27T00:00:00	2024-11-08T23:00:00	5	Humedad	84
173617	7	Sololá	712	San Antonio Palopó	9	San Antonio Palopo	5	Mayo	2023-05-27T00:00:00	2024-11-08T23:00:00	6	Velocidad del viento	8
173618	7	Sololá	712	San Antonio Palopó	9	San Antonio Palopo	5	Mayo	2023-05-27T00:00:00	2024-11-08T23:00:00	7	Dirección del viento	8.05
173619	7	Sololá	712	San Antonio Palopó	9	San Antonio Palopo	5	Mayo	2023-05-27T00:00:00	2024-11-08T23:00:00	1	Precipitación	0
173620	7	Sololá	712	San Antonio Palopó	9	San Antonio Palopo	5	Mayo	2023-05-27T00:00:00	2024-11-08T23:00:00	8	Radiación solar	0
173621	7	Sololá	712	San Antonio Palopó	9	San Antonio Palopo	5	Mayo	2023-05-28T00:00:00	2024-11-08T00:00:00	2	Temperatura media	18.7
173622	7	Sololá	712	San Antonio Palopó	9	San Antonio Palopo	5	Mayo	2023-05-28T00:00:00	2024-11-08T00:00:00	4	Temperatura máxima	19.3
173623	7	Sololá	712	San Antonio Palopó	9	San Antonio Palopo	5	Mayo	2023-05-28T00:00:00	2024-11-08T00:00:00	3	Temperatura mínima	18.6
173624	7	Sololá	712	San Antonio Palopó	9	San Antonio Palopo	5	Mayo	2023-05-28T00:00:00	2024-11-08T00:00:00	5	Humedad	86
173625	7	Sololá	712	San Antonio Palopó	9	San Antonio Palopo	5	Mayo	2023-05-28T00:00:00	2024-11-08T00:00:00	6	Velocidad del viento	3.2
173626	7	Sololá	712	San Antonio Palopó	9	San Antonio Palopo	5	Mayo	2023-05-28T00:00:00	2024-11-08T00:00:00	7	Dirección del viento	3.22
173627	7	Sololá	712	San Antonio Palopó	9	San Antonio Palopo	5	Mayo	2023-05-28T00:00:00	2024-11-08T00:00:00	1	Precipitación	0.2
173628	7	Sololá	712	San Antonio Palopó	9	San Antonio Palopo	5	Mayo	2023-05-28T00:00:00	2024-11-08T00:00:00	8	Radiación solar	0
173629	7	Sololá	712	San Antonio Palopó	9	San Antonio Palopo	5	Mayo	2023-05-28T00:00:00	2024-11-08T01:00:00	2	Temperatura media	19.1
173630	7	Sololá	712	San Antonio Palopó	9	San Antonio Palopo	5	Mayo	2023-05-28T00:00:00	2024-11-08T01:00:00	4	Temperatura máxima	19.1
173631	7	Sololá	712	San Antonio Palopó	9	San Antonio Palopo	5	Mayo	2023-05-28T00:00:00	2024-11-08T01:00:00	3	Temperatura mínima	18.7
173632	7	Sololá	712	San Antonio Palopó	9	San Antonio Palopo	5	Mayo	2023-05-28T00:00:00	2024-11-08T01:00:00	5	Humedad	85
173633	7	Sololá	712	San Antonio Palopó	9	San Antonio Palopo	5	Mayo	2023-05-28T00:00:00	2024-11-08T01:00:00	6	Velocidad del viento	1.6
173634	7	Sololá	712	San Antonio Palopó	9	San Antonio Palopo	5	Mayo	2023-05-28T00:00:00	2024-11-08T01:00:00	7	Dirección del viento	1.61
173635	7	Sololá	712	San Antonio Palopó	9	San Antonio Palopo	5	Mayo	2023-05-28T00:00:00	2024-11-08T01:00:00	1	Precipitación	0
173636	7	Sololá	712	San Antonio Palopó	9	San Antonio Palopo	5	Mayo	2023-05-28T00:00:00	2024-11-08T01:00:00	8	Radiación solar	0
173637	7	Sololá	712	San Antonio Palopó	9	San Antonio Palopo	5	Mayo	2023-05-28T00:00:00	2024-11-08T02:00:00	2	Temperatura media	18.6
173638	7	Sololá	712	San Antonio Palopó	9	San Antonio Palopo	5	Mayo	2023-05-28T00:00:00	2024-11-08T02:00:00	4	Temperatura máxima	19.2
173639	7	Sololá	712	San Antonio Palopó	9	San Antonio Palopo	5	Mayo	2023-05-28T00:00:00	2024-11-08T02:00:00	3	Temperatura mínima	18.6
173640	7	Sololá	712	San Antonio Palopó	9	San Antonio Palopo	5	Mayo	2023-05-28T00:00:00	2024-11-08T02:00:00	5	Humedad	89
173641	7	Sololá	712	San Antonio Palopó	9	San Antonio Palopo	5	Mayo	2023-05-28T00:00:00	2024-11-08T02:00:00	6	Velocidad del viento	8
173642	7	Sololá	712	San Antonio Palopó	9	San Antonio Palopo	5	Mayo	2023-05-28T00:00:00	2024-11-08T02:00:00	7	Dirección del viento	8.05
173643	7	Sololá	712	San Antonio Palopó	9	San Antonio Palopo	5	Mayo	2023-05-28T00:00:00	2024-11-08T02:00:00	1	Precipitación	2.8
173644	7	Sololá	712	San Antonio Palopó	9	San Antonio Palopo	5	Mayo	2023-05-28T00:00:00	2024-11-08T02:00:00	8	Radiación solar	0
173645	7	Sololá	712	San Antonio Palopó	9	San Antonio Palopo	5	Mayo	2023-05-28T00:00:00	2024-11-08T03:00:00	2	Temperatura media	18.7
173646	7	Sololá	712	San Antonio Palopó	9	San Antonio Palopo	5	Mayo	2023-05-28T00:00:00	2024-11-08T03:00:00	4	Temperatura máxima	18.7
173647	7	Sololá	712	San Antonio Palopó	9	San Antonio Palopo	5	Mayo	2023-05-28T00:00:00	2024-11-08T03:00:00	3	Temperatura mínima	18.5
173648	7	Sololá	712	San Antonio Palopó	9	San Antonio Palopo	5	Mayo	2023-05-28T00:00:00	2024-11-08T03:00:00	5	Humedad	87
173649	7	Sololá	712	San Antonio Palopó	9	San Antonio Palopo	5	Mayo	2023-05-28T00:00:00	2024-11-08T03:00:00	6	Velocidad del viento	8
173650	7	Sololá	712	San Antonio Palopó	9	San Antonio Palopo	5	Mayo	2023-05-28T00:00:00	2024-11-08T03:00:00	7	Dirección del viento	8.05
173651	7	Sololá	712	San Antonio Palopó	9	San Antonio Palopo	5	Mayo	2023-05-28T00:00:00	2024-11-08T03:00:00	1	Precipitación	0.2
173652	7	Sololá	712	San Antonio Palopó	9	San Antonio Palopo	5	Mayo	2023-05-28T00:00:00	2024-11-08T03:00:00	8	Radiación solar	0
173653	7	Sololá	712	San Antonio Palopó	9	San Antonio Palopo	5	Mayo	2023-05-28T00:00:00	2024-11-08T04:00:00	2	Temperatura media	18.1
173654	7	Sololá	712	San Antonio Palopó	9	San Antonio Palopo	5	Mayo	2023-05-28T00:00:00	2024-11-08T04:00:00	4	Temperatura máxima	18.6
173655	7	Sololá	712	San Antonio Palopó	9	San Antonio Palopo	5	Mayo	2023-05-28T00:00:00	2024-11-08T04:00:00	3	Temperatura mínima	18
173656	7	Sololá	712	San Antonio Palopó	9	San Antonio Palopo	5	Mayo	2023-05-28T00:00:00	2024-11-08T04:00:00	5	Humedad	86
173657	7	Sololá	712	San Antonio Palopó	9	San Antonio Palopo	5	Mayo	2023-05-28T00:00:00	2024-11-08T04:00:00	6	Velocidad del viento	1.6
173658	7	Sololá	712	San Antonio Palopó	9	San Antonio Palopo	5	Mayo	2023-05-28T00:00:00	2024-11-08T04:00:00	7	Dirección del viento	1.61
173659	7	Sololá	712	San Antonio Palopó	9	San Antonio Palopo	5	Mayo	2023-05-28T00:00:00	2024-11-08T04:00:00	1	Precipitación	0
173660	7	Sololá	712	San Antonio Palopó	9	San Antonio Palopo	5	Mayo	2023-05-28T00:00:00	2024-11-08T04:00:00	8	Radiación solar	0
173661	7	Sololá	712	San Antonio Palopó	9	San Antonio Palopo	5	Mayo	2023-05-28T00:00:00	2024-11-08T05:00:00	2	Temperatura media	18
173662	7	Sololá	712	San Antonio Palopó	9	San Antonio Palopo	5	Mayo	2023-05-28T00:00:00	2024-11-08T05:00:00	4	Temperatura máxima	18.1
173663	7	Sololá	712	San Antonio Palopó	9	San Antonio Palopo	5	Mayo	2023-05-28T00:00:00	2024-11-08T05:00:00	3	Temperatura mínima	17.9
173664	7	Sololá	712	San Antonio Palopó	9	San Antonio Palopo	5	Mayo	2023-05-28T00:00:00	2024-11-08T05:00:00	5	Humedad	88
173665	7	Sololá	712	San Antonio Palopó	9	San Antonio Palopo	5	Mayo	2023-05-28T00:00:00	2024-11-08T05:00:00	6	Velocidad del viento	3.2
173666	7	Sololá	712	San Antonio Palopó	9	San Antonio Palopo	5	Mayo	2023-05-28T00:00:00	2024-11-08T05:00:00	7	Dirección del viento	3.22
173667	7	Sololá	712	San Antonio Palopó	9	San Antonio Palopo	5	Mayo	2023-05-28T00:00:00	2024-11-08T05:00:00	1	Precipitación	0
173668	7	Sololá	712	San Antonio Palopó	9	San Antonio Palopo	5	Mayo	2023-05-28T00:00:00	2024-11-08T05:00:00	8	Radiación solar	0
173669	7	Sololá	712	San Antonio Palopó	9	San Antonio Palopo	5	Mayo	2023-05-28T00:00:00	2024-11-08T06:00:00	2	Temperatura media	18.4
173670	7	Sololá	712	San Antonio Palopó	9	San Antonio Palopo	5	Mayo	2023-05-28T00:00:00	2024-11-08T06:00:00	4	Temperatura máxima	18.4
173671	7	Sololá	712	San Antonio Palopó	9	San Antonio Palopo	5	Mayo	2023-05-28T00:00:00	2024-11-08T06:00:00	3	Temperatura mínima	17.7
173672	7	Sololá	712	San Antonio Palopó	9	San Antonio Palopo	5	Mayo	2023-05-28T00:00:00	2024-11-08T06:00:00	5	Humedad	86
173673	7	Sololá	712	San Antonio Palopó	9	San Antonio Palopo	5	Mayo	2023-05-28T00:00:00	2024-11-08T06:00:00	6	Velocidad del viento	1.6
173674	7	Sololá	712	San Antonio Palopó	9	San Antonio Palopo	5	Mayo	2023-05-28T00:00:00	2024-11-08T06:00:00	7	Dirección del viento	1.61
173675	7	Sololá	712	San Antonio Palopó	9	San Antonio Palopo	5	Mayo	2023-05-28T00:00:00	2024-11-08T06:00:00	1	Precipitación	0
173676	7	Sololá	712	San Antonio Palopó	9	San Antonio Palopo	5	Mayo	2023-05-28T00:00:00	2024-11-08T06:00:00	8	Radiación solar	1
173677	7	Sololá	712	San Antonio Palopó	9	San Antonio Palopo	5	Mayo	2023-05-28T00:00:00	2024-11-08T07:00:00	2	Temperatura media	18.6
173678	7	Sololá	712	San Antonio Palopó	9	San Antonio Palopo	5	Mayo	2023-05-28T00:00:00	2024-11-08T07:00:00	4	Temperatura máxima	18.6
173679	7	Sololá	712	San Antonio Palopó	9	San Antonio Palopo	5	Mayo	2023-05-28T00:00:00	2024-11-08T07:00:00	3	Temperatura mínima	18.2
173680	7	Sololá	712	San Antonio Palopó	9	San Antonio Palopo	5	Mayo	2023-05-28T00:00:00	2024-11-08T07:00:00	5	Humedad	86
173681	7	Sololá	712	San Antonio Palopó	9	San Antonio Palopo	5	Mayo	2023-05-28T00:00:00	2024-11-08T07:00:00	6	Velocidad del viento	1.6
173682	7	Sololá	712	San Antonio Palopó	9	San Antonio Palopo	5	Mayo	2023-05-28T00:00:00	2024-11-08T07:00:00	7	Dirección del viento	1.61
173683	7	Sololá	712	San Antonio Palopó	9	San Antonio Palopo	5	Mayo	2023-05-28T00:00:00	2024-11-08T07:00:00	1	Precipitación	0
173684	7	Sololá	712	San Antonio Palopó	9	San Antonio Palopo	5	Mayo	2023-05-28T00:00:00	2024-11-08T07:00:00	8	Radiación solar	41
173685	7	Sololá	712	San Antonio Palopó	9	San Antonio Palopo	5	Mayo	2023-05-28T00:00:00	2024-11-08T08:00:00	2	Temperatura media	19.9
173686	7	Sololá	712	San Antonio Palopó	9	San Antonio Palopo	5	Mayo	2023-05-28T00:00:00	2024-11-08T08:00:00	4	Temperatura máxima	19.9
173687	7	Sololá	712	San Antonio Palopó	9	San Antonio Palopo	5	Mayo	2023-05-28T00:00:00	2024-11-08T08:00:00	3	Temperatura mínima	18.6
173688	7	Sololá	712	San Antonio Palopó	9	San Antonio Palopo	5	Mayo	2023-05-28T00:00:00	2024-11-08T08:00:00	5	Humedad	81
173689	7	Sololá	712	San Antonio Palopó	9	San Antonio Palopo	5	Mayo	2023-05-28T00:00:00	2024-11-08T08:00:00	6	Velocidad del viento	0
173690	7	Sololá	712	San Antonio Palopó	9	San Antonio Palopo	5	Mayo	2023-05-28T00:00:00	2024-11-08T08:00:00	7	Dirección del viento	0
173691	7	Sololá	712	San Antonio Palopó	9	San Antonio Palopo	5	Mayo	2023-05-28T00:00:00	2024-11-08T08:00:00	1	Precipitación	0
173692	7	Sololá	712	San Antonio Palopó	9	San Antonio Palopo	5	Mayo	2023-05-28T00:00:00	2024-11-08T08:00:00	8	Radiación solar	194
173693	7	Sololá	712	San Antonio Palopó	9	San Antonio Palopo	5	Mayo	2023-05-28T00:00:00	2024-11-08T09:00:00	2	Temperatura media	20.4
173694	7	Sololá	712	San Antonio Palopó	9	San Antonio Palopo	5	Mayo	2023-05-28T00:00:00	2024-11-08T09:00:00	4	Temperatura máxima	20.5
173695	7	Sololá	712	San Antonio Palopó	9	San Antonio Palopo	5	Mayo	2023-05-28T00:00:00	2024-11-08T09:00:00	3	Temperatura mínima	19.9
173696	7	Sololá	712	San Antonio Palopó	9	San Antonio Palopo	5	Mayo	2023-05-28T00:00:00	2024-11-08T09:00:00	5	Humedad	79
173697	7	Sololá	712	San Antonio Palopó	9	San Antonio Palopo	5	Mayo	2023-05-28T00:00:00	2024-11-08T09:00:00	6	Velocidad del viento	3.2
173698	7	Sololá	712	San Antonio Palopó	9	San Antonio Palopo	5	Mayo	2023-05-28T00:00:00	2024-11-08T09:00:00	7	Dirección del viento	3.22
173699	7	Sololá	712	San Antonio Palopó	9	San Antonio Palopo	5	Mayo	2023-05-28T00:00:00	2024-11-08T09:00:00	1	Precipitación	0
173700	7	Sololá	712	San Antonio Palopó	9	San Antonio Palopo	5	Mayo	2023-05-28T00:00:00	2024-11-08T09:00:00	8	Radiación solar	339
173701	7	Sololá	712	San Antonio Palopó	9	San Antonio Palopo	5	Mayo	2023-05-28T00:00:00	2024-11-08T10:00:00	2	Temperatura media	21.1
173702	7	Sololá	712	San Antonio Palopó	9	San Antonio Palopo	5	Mayo	2023-05-28T00:00:00	2024-11-08T10:00:00	4	Temperatura máxima	21.4
173703	7	Sololá	712	San Antonio Palopó	9	San Antonio Palopo	5	Mayo	2023-05-28T00:00:00	2024-11-08T10:00:00	3	Temperatura mínima	20.4
173704	7	Sololá	712	San Antonio Palopó	9	San Antonio Palopo	5	Mayo	2023-05-28T00:00:00	2024-11-08T10:00:00	5	Humedad	75
173705	7	Sololá	712	San Antonio Palopó	9	San Antonio Palopo	5	Mayo	2023-05-28T00:00:00	2024-11-08T10:00:00	6	Velocidad del viento	3.2
173706	7	Sololá	712	San Antonio Palopó	9	San Antonio Palopo	5	Mayo	2023-05-28T00:00:00	2024-11-08T10:00:00	7	Dirección del viento	3.22
173707	7	Sololá	712	San Antonio Palopó	9	San Antonio Palopo	5	Mayo	2023-05-28T00:00:00	2024-11-08T10:00:00	1	Precipitación	0
173708	7	Sololá	712	San Antonio Palopó	9	San Antonio Palopo	5	Mayo	2023-05-28T00:00:00	2024-11-08T10:00:00	8	Radiación solar	489
173709	7	Sololá	712	San Antonio Palopó	9	San Antonio Palopo	5	Mayo	2023-05-28T00:00:00	2024-11-08T11:00:00	2	Temperatura media	22.3
173710	7	Sololá	712	San Antonio Palopó	9	San Antonio Palopo	5	Mayo	2023-05-28T00:00:00	2024-11-08T11:00:00	4	Temperatura máxima	22.6
173711	7	Sololá	712	San Antonio Palopó	9	San Antonio Palopo	5	Mayo	2023-05-28T00:00:00	2024-11-08T11:00:00	3	Temperatura mínima	21.1
173712	7	Sololá	712	San Antonio Palopó	9	San Antonio Palopo	5	Mayo	2023-05-28T00:00:00	2024-11-08T11:00:00	5	Humedad	72
173713	7	Sololá	712	San Antonio Palopó	9	San Antonio Palopo	5	Mayo	2023-05-28T00:00:00	2024-11-08T11:00:00	6	Velocidad del viento	3.2
173714	7	Sololá	712	San Antonio Palopó	9	San Antonio Palopo	5	Mayo	2023-05-28T00:00:00	2024-11-08T11:00:00	7	Dirección del viento	3.22
173715	7	Sololá	712	San Antonio Palopó	9	San Antonio Palopo	5	Mayo	2023-05-28T00:00:00	2024-11-08T11:00:00	1	Precipitación	0
173716	7	Sololá	712	San Antonio Palopó	9	San Antonio Palopo	5	Mayo	2023-05-28T00:00:00	2024-11-08T11:00:00	8	Radiación solar	838
173717	7	Sololá	712	San Antonio Palopó	9	San Antonio Palopo	5	Mayo	2023-05-28T00:00:00	2024-11-08T12:00:00	2	Temperatura media	23.2
173718	7	Sololá	712	San Antonio Palopó	9	San Antonio Palopo	5	Mayo	2023-05-28T00:00:00	2024-11-08T12:00:00	4	Temperatura máxima	23.2
173719	7	Sololá	712	San Antonio Palopó	9	San Antonio Palopo	5	Mayo	2023-05-28T00:00:00	2024-11-08T12:00:00	3	Temperatura mínima	22.1
173720	7	Sololá	712	San Antonio Palopó	9	San Antonio Palopo	5	Mayo	2023-05-28T00:00:00	2024-11-08T12:00:00	5	Humedad	71
173721	7	Sololá	712	San Antonio Palopó	9	San Antonio Palopo	5	Mayo	2023-05-28T00:00:00	2024-11-08T12:00:00	6	Velocidad del viento	4.8
173722	7	Sololá	712	San Antonio Palopó	9	San Antonio Palopo	5	Mayo	2023-05-28T00:00:00	2024-11-08T12:00:00	7	Dirección del viento	4.83
173723	7	Sololá	712	San Antonio Palopó	9	San Antonio Palopo	5	Mayo	2023-05-28T00:00:00	2024-11-08T12:00:00	1	Precipitación	0
173724	7	Sololá	712	San Antonio Palopó	9	San Antonio Palopo	5	Mayo	2023-05-28T00:00:00	2024-11-08T12:00:00	8	Radiación solar	670
173725	7	Sololá	712	San Antonio Palopó	9	San Antonio Palopo	5	Mayo	2023-05-28T00:00:00	2024-11-08T13:00:00	2	Temperatura media	23.7
173726	7	Sololá	712	San Antonio Palopó	9	San Antonio Palopo	5	Mayo	2023-05-28T00:00:00	2024-11-08T13:00:00	4	Temperatura máxima	23.7
173727	7	Sololá	712	San Antonio Palopó	9	San Antonio Palopo	5	Mayo	2023-05-28T00:00:00	2024-11-08T13:00:00	3	Temperatura mínima	22.7
173728	7	Sololá	712	San Antonio Palopó	9	San Antonio Palopo	5	Mayo	2023-05-28T00:00:00	2024-11-08T13:00:00	5	Humedad	70
173729	7	Sololá	712	San Antonio Palopó	9	San Antonio Palopo	5	Mayo	2023-05-28T00:00:00	2024-11-08T13:00:00	6	Velocidad del viento	8
173730	7	Sololá	712	San Antonio Palopó	9	San Antonio Palopo	5	Mayo	2023-05-28T00:00:00	2024-11-08T13:00:00	7	Dirección del viento	8.05
173731	7	Sololá	712	San Antonio Palopó	9	San Antonio Palopo	5	Mayo	2023-05-28T00:00:00	2024-11-08T13:00:00	1	Precipitación	0
173732	7	Sololá	712	San Antonio Palopó	9	San Antonio Palopo	5	Mayo	2023-05-28T00:00:00	2024-11-08T13:00:00	8	Radiación solar	964
173733	7	Sololá	712	San Antonio Palopó	9	San Antonio Palopo	5	Mayo	2023-05-28T00:00:00	2024-11-08T14:00:00	2	Temperatura media	22.8
173734	7	Sololá	712	San Antonio Palopó	9	San Antonio Palopo	5	Mayo	2023-05-28T00:00:00	2024-11-08T14:00:00	4	Temperatura máxima	23.7
173735	7	Sololá	712	San Antonio Palopó	9	San Antonio Palopo	5	Mayo	2023-05-28T00:00:00	2024-11-08T14:00:00	3	Temperatura mínima	22.6
173736	7	Sololá	712	San Antonio Palopó	9	San Antonio Palopo	5	Mayo	2023-05-28T00:00:00	2024-11-08T14:00:00	5	Humedad	72
173737	7	Sololá	712	San Antonio Palopó	9	San Antonio Palopo	5	Mayo	2023-05-28T00:00:00	2024-11-08T14:00:00	6	Velocidad del viento	8
173738	7	Sololá	712	San Antonio Palopó	9	San Antonio Palopo	5	Mayo	2023-05-28T00:00:00	2024-11-08T14:00:00	7	Dirección del viento	8.05
173739	7	Sololá	712	San Antonio Palopó	9	San Antonio Palopo	5	Mayo	2023-05-28T00:00:00	2024-11-08T14:00:00	1	Precipitación	0
173740	7	Sololá	712	San Antonio Palopó	9	San Antonio Palopo	5	Mayo	2023-05-28T00:00:00	2024-11-08T14:00:00	8	Radiación solar	738
173741	7	Sololá	712	San Antonio Palopó	9	San Antonio Palopo	5	Mayo	2023-05-28T00:00:00	2024-11-08T15:00:00	2	Temperatura media	22.4
173742	7	Sololá	712	San Antonio Palopó	9	San Antonio Palopo	5	Mayo	2023-05-28T00:00:00	2024-11-08T15:00:00	4	Temperatura máxima	23.3
173743	7	Sololá	712	San Antonio Palopó	9	San Antonio Palopo	5	Mayo	2023-05-28T00:00:00	2024-11-08T15:00:00	3	Temperatura mínima	22.4
173744	7	Sololá	712	San Antonio Palopó	9	San Antonio Palopo	5	Mayo	2023-05-28T00:00:00	2024-11-08T15:00:00	5	Humedad	74
173745	7	Sololá	712	San Antonio Palopó	9	San Antonio Palopo	5	Mayo	2023-05-28T00:00:00	2024-11-08T15:00:00	6	Velocidad del viento	9.7
173746	7	Sololá	712	San Antonio Palopó	9	San Antonio Palopo	5	Mayo	2023-05-28T00:00:00	2024-11-08T15:00:00	7	Dirección del viento	9.66
173747	7	Sololá	712	San Antonio Palopó	9	San Antonio Palopo	5	Mayo	2023-05-28T00:00:00	2024-11-08T15:00:00	1	Precipitación	0
173748	7	Sololá	712	San Antonio Palopó	9	San Antonio Palopo	5	Mayo	2023-05-28T00:00:00	2024-11-08T15:00:00	8	Radiación solar	548
173749	7	Sololá	712	San Antonio Palopó	9	San Antonio Palopo	5	Mayo	2023-05-28T00:00:00	2024-11-08T16:00:00	2	Temperatura media	21.4
173750	7	Sololá	712	San Antonio Palopó	9	San Antonio Palopo	5	Mayo	2023-05-28T00:00:00	2024-11-08T16:00:00	4	Temperatura máxima	22.9
173751	7	Sololá	712	San Antonio Palopó	9	San Antonio Palopo	5	Mayo	2023-05-28T00:00:00	2024-11-08T16:00:00	3	Temperatura mínima	21.4
173752	7	Sololá	712	San Antonio Palopó	9	San Antonio Palopo	5	Mayo	2023-05-28T00:00:00	2024-11-08T16:00:00	5	Humedad	77
173753	7	Sololá	712	San Antonio Palopó	9	San Antonio Palopo	5	Mayo	2023-05-28T00:00:00	2024-11-08T16:00:00	6	Velocidad del viento	9.7
173754	7	Sololá	712	San Antonio Palopó	9	San Antonio Palopo	5	Mayo	2023-05-28T00:00:00	2024-11-08T16:00:00	7	Dirección del viento	9.66
173755	7	Sololá	712	San Antonio Palopó	9	San Antonio Palopo	5	Mayo	2023-05-28T00:00:00	2024-11-08T16:00:00	1	Precipitación	0
173756	7	Sololá	712	San Antonio Palopó	9	San Antonio Palopo	5	Mayo	2023-05-28T00:00:00	2024-11-08T16:00:00	8	Radiación solar	357
173757	7	Sololá	712	San Antonio Palopó	9	San Antonio Palopo	5	Mayo	2023-05-28T00:00:00	2024-11-08T17:00:00	2	Temperatura media	20.7
173758	7	Sololá	712	San Antonio Palopó	9	San Antonio Palopo	5	Mayo	2023-05-28T00:00:00	2024-11-08T17:00:00	4	Temperatura máxima	21.4
173759	7	Sololá	712	San Antonio Palopó	9	San Antonio Palopo	5	Mayo	2023-05-28T00:00:00	2024-11-08T17:00:00	3	Temperatura mínima	20.6
173760	7	Sololá	712	San Antonio Palopó	9	San Antonio Palopo	5	Mayo	2023-05-28T00:00:00	2024-11-08T17:00:00	5	Humedad	81
173761	7	Sololá	712	San Antonio Palopó	9	San Antonio Palopo	5	Mayo	2023-05-28T00:00:00	2024-11-08T17:00:00	6	Velocidad del viento	9.7
173762	7	Sololá	712	San Antonio Palopó	9	San Antonio Palopo	5	Mayo	2023-05-28T00:00:00	2024-11-08T17:00:00	7	Dirección del viento	9.66
173763	7	Sololá	712	San Antonio Palopó	9	San Antonio Palopo	5	Mayo	2023-05-28T00:00:00	2024-11-08T17:00:00	1	Precipitación	0
173764	7	Sololá	712	San Antonio Palopó	9	San Antonio Palopo	5	Mayo	2023-05-28T00:00:00	2024-11-08T17:00:00	8	Radiación solar	92
173765	7	Sololá	712	San Antonio Palopó	9	San Antonio Palopo	5	Mayo	2023-05-28T00:00:00	2024-11-08T18:00:00	2	Temperatura media	20.4
173766	7	Sololá	712	San Antonio Palopó	9	San Antonio Palopo	5	Mayo	2023-05-28T00:00:00	2024-11-08T18:00:00	4	Temperatura máxima	20.7
173767	7	Sololá	712	San Antonio Palopó	9	San Antonio Palopo	5	Mayo	2023-05-28T00:00:00	2024-11-08T18:00:00	3	Temperatura mínima	20.2
173768	7	Sololá	712	San Antonio Palopó	9	San Antonio Palopo	5	Mayo	2023-05-28T00:00:00	2024-11-08T18:00:00	5	Humedad	81
173769	7	Sololá	712	San Antonio Palopó	9	San Antonio Palopo	5	Mayo	2023-05-28T00:00:00	2024-11-08T18:00:00	6	Velocidad del viento	4.8
173770	7	Sololá	712	San Antonio Palopó	9	San Antonio Palopo	5	Mayo	2023-05-28T00:00:00	2024-11-08T18:00:00	7	Dirección del viento	4.83
173771	7	Sololá	712	San Antonio Palopó	9	San Antonio Palopo	5	Mayo	2023-05-28T00:00:00	2024-11-08T18:00:00	1	Precipitación	0
173772	7	Sololá	712	San Antonio Palopó	9	San Antonio Palopo	5	Mayo	2023-05-28T00:00:00	2024-11-08T18:00:00	8	Radiación solar	26
173773	7	Sololá	712	San Antonio Palopó	9	San Antonio Palopo	5	Mayo	2023-05-28T00:00:00	2024-11-08T19:00:00	2	Temperatura media	20.2
173774	7	Sololá	712	San Antonio Palopó	9	San Antonio Palopo	5	Mayo	2023-05-28T00:00:00	2024-11-08T19:00:00	4	Temperatura máxima	20.6
173775	7	Sololá	712	San Antonio Palopó	9	San Antonio Palopo	5	Mayo	2023-05-28T00:00:00	2024-11-08T19:00:00	3	Temperatura mínima	20.1
173776	7	Sololá	712	San Antonio Palopó	9	San Antonio Palopo	5	Mayo	2023-05-28T00:00:00	2024-11-08T19:00:00	5	Humedad	84
173777	7	Sololá	712	San Antonio Palopó	9	San Antonio Palopo	5	Mayo	2023-05-28T00:00:00	2024-11-08T19:00:00	6	Velocidad del viento	3.2
173778	7	Sololá	712	San Antonio Palopó	9	San Antonio Palopo	5	Mayo	2023-05-28T00:00:00	2024-11-08T19:00:00	7	Dirección del viento	3.22
173779	7	Sololá	712	San Antonio Palopó	9	San Antonio Palopo	5	Mayo	2023-05-28T00:00:00	2024-11-08T19:00:00	1	Precipitación	0
173780	7	Sololá	712	San Antonio Palopó	9	San Antonio Palopo	5	Mayo	2023-05-28T00:00:00	2024-11-08T19:00:00	8	Radiación solar	0
173781	7	Sololá	712	San Antonio Palopó	9	San Antonio Palopo	5	Mayo	2023-05-28T00:00:00	2024-11-08T20:00:00	2	Temperatura media	20.4
173782	7	Sololá	712	San Antonio Palopó	9	San Antonio Palopo	5	Mayo	2023-05-28T00:00:00	2024-11-08T20:00:00	4	Temperatura máxima	20.4
173783	7	Sololá	712	San Antonio Palopó	9	San Antonio Palopo	5	Mayo	2023-05-28T00:00:00	2024-11-08T20:00:00	3	Temperatura mínima	20.2
173784	7	Sololá	712	San Antonio Palopó	9	San Antonio Palopo	5	Mayo	2023-05-28T00:00:00	2024-11-08T20:00:00	5	Humedad	83
173785	7	Sololá	712	San Antonio Palopó	9	San Antonio Palopo	5	Mayo	2023-05-28T00:00:00	2024-11-08T20:00:00	6	Velocidad del viento	0
173786	7	Sololá	712	San Antonio Palopó	9	San Antonio Palopo	5	Mayo	2023-05-28T00:00:00	2024-11-08T20:00:00	7	Dirección del viento	0
173787	7	Sololá	712	San Antonio Palopó	9	San Antonio Palopo	5	Mayo	2023-05-28T00:00:00	2024-11-08T20:00:00	1	Precipitación	0
173788	7	Sololá	712	San Antonio Palopó	9	San Antonio Palopo	5	Mayo	2023-05-28T00:00:00	2024-11-08T20:00:00	8	Radiación solar	0
173789	7	Sololá	712	San Antonio Palopó	9	San Antonio Palopo	5	Mayo	2023-05-28T00:00:00	2024-11-08T21:00:00	2	Temperatura media	20
173790	7	Sololá	712	San Antonio Palopó	9	San Antonio Palopo	5	Mayo	2023-05-28T00:00:00	2024-11-08T21:00:00	4	Temperatura máxima	20.5
173791	7	Sololá	712	San Antonio Palopó	9	San Antonio Palopo	5	Mayo	2023-05-28T00:00:00	2024-11-08T21:00:00	3	Temperatura mínima	19.9
173792	7	Sololá	712	San Antonio Palopó	9	San Antonio Palopo	5	Mayo	2023-05-28T00:00:00	2024-11-08T21:00:00	5	Humedad	82
173793	7	Sololá	712	San Antonio Palopó	9	San Antonio Palopo	5	Mayo	2023-05-28T00:00:00	2024-11-08T21:00:00	6	Velocidad del viento	1.6
173794	7	Sololá	712	San Antonio Palopó	9	San Antonio Palopo	5	Mayo	2023-05-28T00:00:00	2024-11-08T21:00:00	7	Dirección del viento	1.61
173795	7	Sololá	712	San Antonio Palopó	9	San Antonio Palopo	5	Mayo	2023-05-28T00:00:00	2024-11-08T21:00:00	1	Precipitación	0
173796	7	Sololá	712	San Antonio Palopó	9	San Antonio Palopo	5	Mayo	2023-05-28T00:00:00	2024-11-08T21:00:00	8	Radiación solar	0
173797	7	Sololá	712	San Antonio Palopó	9	San Antonio Palopo	5	Mayo	2023-05-28T00:00:00	2024-11-08T22:00:00	2	Temperatura media	20.3
173798	7	Sololá	712	San Antonio Palopó	9	San Antonio Palopo	5	Mayo	2023-05-28T00:00:00	2024-11-08T22:00:00	4	Temperatura máxima	20.4
173799	7	Sololá	712	San Antonio Palopó	9	San Antonio Palopo	5	Mayo	2023-05-28T00:00:00	2024-11-08T22:00:00	3	Temperatura mínima	20
173800	7	Sololá	712	San Antonio Palopó	9	San Antonio Palopo	5	Mayo	2023-05-28T00:00:00	2024-11-08T22:00:00	5	Humedad	84
173801	7	Sololá	712	San Antonio Palopó	9	San Antonio Palopo	5	Mayo	2023-05-28T00:00:00	2024-11-08T22:00:00	6	Velocidad del viento	1.6
173802	7	Sololá	712	San Antonio Palopó	9	San Antonio Palopo	5	Mayo	2023-05-28T00:00:00	2024-11-08T22:00:00	7	Dirección del viento	1.61
173803	7	Sololá	712	San Antonio Palopó	9	San Antonio Palopo	5	Mayo	2023-05-28T00:00:00	2024-11-08T22:00:00	1	Precipitación	0
173804	7	Sololá	712	San Antonio Palopó	9	San Antonio Palopo	5	Mayo	2023-05-28T00:00:00	2024-11-08T22:00:00	8	Radiación solar	0
173805	7	Sololá	712	San Antonio Palopó	9	San Antonio Palopo	5	Mayo	2023-05-28T00:00:00	2024-11-08T23:00:00	2	Temperatura media	20.3
173806	7	Sololá	712	San Antonio Palopó	9	San Antonio Palopo	5	Mayo	2023-05-28T00:00:00	2024-11-08T23:00:00	4	Temperatura máxima	20.4
173807	7	Sololá	712	San Antonio Palopó	9	San Antonio Palopo	5	Mayo	2023-05-28T00:00:00	2024-11-08T23:00:00	3	Temperatura mínima	20.2
173808	7	Sololá	712	San Antonio Palopó	9	San Antonio Palopo	5	Mayo	2023-05-28T00:00:00	2024-11-08T23:00:00	5	Humedad	81
173809	7	Sololá	712	San Antonio Palopó	9	San Antonio Palopo	5	Mayo	2023-05-28T00:00:00	2024-11-08T23:00:00	6	Velocidad del viento	1.6
173810	7	Sololá	712	San Antonio Palopó	9	San Antonio Palopo	5	Mayo	2023-05-28T00:00:00	2024-11-08T23:00:00	7	Dirección del viento	1.61
173811	7	Sololá	712	San Antonio Palopó	9	San Antonio Palopo	5	Mayo	2023-05-28T00:00:00	2024-11-08T23:00:00	1	Precipitación	0
173812	7	Sololá	712	San Antonio Palopó	9	San Antonio Palopo	5	Mayo	2023-05-28T00:00:00	2024-11-08T23:00:00	8	Radiación solar	0
173813	7	Sololá	712	San Antonio Palopó	9	San Antonio Palopo	5	Mayo	2023-05-29T00:00:00	2024-11-08T00:00:00	2	Temperatura media	19.7
173814	7	Sololá	712	San Antonio Palopó	9	San Antonio Palopo	5	Mayo	2023-05-29T00:00:00	2024-11-08T00:00:00	4	Temperatura máxima	20.3
173815	7	Sololá	712	San Antonio Palopó	9	San Antonio Palopo	5	Mayo	2023-05-29T00:00:00	2024-11-08T00:00:00	3	Temperatura mínima	19.7
173816	7	Sololá	712	San Antonio Palopó	9	San Antonio Palopo	5	Mayo	2023-05-29T00:00:00	2024-11-08T00:00:00	5	Humedad	87
173817	7	Sololá	712	San Antonio Palopó	9	San Antonio Palopo	5	Mayo	2023-05-29T00:00:00	2024-11-08T00:00:00	6	Velocidad del viento	3.2
173818	7	Sololá	712	San Antonio Palopó	9	San Antonio Palopo	5	Mayo	2023-05-29T00:00:00	2024-11-08T00:00:00	7	Dirección del viento	3.22
173819	7	Sololá	712	San Antonio Palopó	9	San Antonio Palopo	5	Mayo	2023-05-29T00:00:00	2024-11-08T00:00:00	1	Precipitación	0
173820	7	Sololá	712	San Antonio Palopó	9	San Antonio Palopo	5	Mayo	2023-05-29T00:00:00	2024-11-08T00:00:00	8	Radiación solar	0
173821	7	Sololá	712	San Antonio Palopó	9	San Antonio Palopo	5	Mayo	2023-05-29T00:00:00	2024-11-08T01:00:00	2	Temperatura media	19.3
173822	7	Sololá	712	San Antonio Palopó	9	San Antonio Palopo	5	Mayo	2023-05-29T00:00:00	2024-11-08T01:00:00	4	Temperatura máxima	19.8
173823	7	Sololá	712	San Antonio Palopó	9	San Antonio Palopo	5	Mayo	2023-05-29T00:00:00	2024-11-08T01:00:00	3	Temperatura mínima	19.3
173824	7	Sololá	712	San Antonio Palopó	9	San Antonio Palopo	5	Mayo	2023-05-29T00:00:00	2024-11-08T01:00:00	5	Humedad	85
173825	7	Sololá	712	San Antonio Palopó	9	San Antonio Palopo	5	Mayo	2023-05-29T00:00:00	2024-11-08T01:00:00	6	Velocidad del viento	4.8
173826	7	Sololá	712	San Antonio Palopó	9	San Antonio Palopo	5	Mayo	2023-05-29T00:00:00	2024-11-08T01:00:00	7	Dirección del viento	4.83
173827	7	Sololá	712	San Antonio Palopó	9	San Antonio Palopo	5	Mayo	2023-05-29T00:00:00	2024-11-08T01:00:00	1	Precipitación	0
173828	7	Sololá	712	San Antonio Palopó	9	San Antonio Palopo	5	Mayo	2023-05-29T00:00:00	2024-11-08T01:00:00	8	Radiación solar	0
173829	7	Sololá	712	San Antonio Palopó	9	San Antonio Palopo	5	Mayo	2023-05-29T00:00:00	2024-11-08T02:00:00	2	Temperatura media	17.1
173830	7	Sololá	712	San Antonio Palopó	9	San Antonio Palopo	5	Mayo	2023-05-29T00:00:00	2024-11-08T02:00:00	4	Temperatura máxima	19.2
173831	7	Sololá	712	San Antonio Palopó	9	San Antonio Palopo	5	Mayo	2023-05-29T00:00:00	2024-11-08T02:00:00	3	Temperatura mínima	17.1
173832	7	Sololá	712	San Antonio Palopó	9	San Antonio Palopo	5	Mayo	2023-05-29T00:00:00	2024-11-08T02:00:00	5	Humedad	90
173833	7	Sololá	712	San Antonio Palopó	9	San Antonio Palopo	5	Mayo	2023-05-29T00:00:00	2024-11-08T02:00:00	6	Velocidad del viento	6.4
173834	7	Sololá	712	San Antonio Palopó	9	San Antonio Palopo	5	Mayo	2023-05-29T00:00:00	2024-11-08T02:00:00	7	Dirección del viento	6.44
173835	7	Sololá	712	San Antonio Palopó	9	San Antonio Palopo	5	Mayo	2023-05-29T00:00:00	2024-11-08T02:00:00	1	Precipitación	14.6
173836	7	Sololá	712	San Antonio Palopó	9	San Antonio Palopo	5	Mayo	2023-05-29T00:00:00	2024-11-08T02:00:00	8	Radiación solar	0
173837	7	Sololá	712	San Antonio Palopó	9	San Antonio Palopo	5	Mayo	2023-05-29T00:00:00	2024-11-08T03:00:00	2	Temperatura media	16.5
173838	7	Sololá	712	San Antonio Palopó	9	San Antonio Palopo	5	Mayo	2023-05-29T00:00:00	2024-11-08T03:00:00	4	Temperatura máxima	17.1
173839	7	Sololá	712	San Antonio Palopó	9	San Antonio Palopo	5	Mayo	2023-05-29T00:00:00	2024-11-08T03:00:00	3	Temperatura mínima	16.4
173840	7	Sololá	712	San Antonio Palopó	9	San Antonio Palopo	5	Mayo	2023-05-29T00:00:00	2024-11-08T03:00:00	5	Humedad	93
173841	7	Sololá	712	San Antonio Palopó	9	San Antonio Palopo	5	Mayo	2023-05-29T00:00:00	2024-11-08T03:00:00	6	Velocidad del viento	3.2
173842	7	Sololá	712	San Antonio Palopó	9	San Antonio Palopo	5	Mayo	2023-05-29T00:00:00	2024-11-08T03:00:00	7	Dirección del viento	3.22
173843	7	Sololá	712	San Antonio Palopó	9	San Antonio Palopo	5	Mayo	2023-05-29T00:00:00	2024-11-08T03:00:00	1	Precipitación	9.2
173844	7	Sololá	712	San Antonio Palopó	9	San Antonio Palopo	5	Mayo	2023-05-29T00:00:00	2024-11-08T03:00:00	8	Radiación solar	0
173845	7	Sololá	712	San Antonio Palopó	9	San Antonio Palopo	5	Mayo	2023-05-29T00:00:00	2024-11-08T04:00:00	2	Temperatura media	17.2
173846	7	Sololá	712	San Antonio Palopó	9	San Antonio Palopo	5	Mayo	2023-05-29T00:00:00	2024-11-08T04:00:00	4	Temperatura máxima	17.3
173847	7	Sololá	712	San Antonio Palopó	9	San Antonio Palopo	5	Mayo	2023-05-29T00:00:00	2024-11-08T04:00:00	3	Temperatura mínima	16.5
173848	7	Sololá	712	San Antonio Palopó	9	San Antonio Palopo	5	Mayo	2023-05-29T00:00:00	2024-11-08T04:00:00	5	Humedad	92
173849	7	Sololá	712	San Antonio Palopó	9	San Antonio Palopo	5	Mayo	2023-05-29T00:00:00	2024-11-08T04:00:00	6	Velocidad del viento	3.2
173850	7	Sololá	712	San Antonio Palopó	9	San Antonio Palopo	5	Mayo	2023-05-29T00:00:00	2024-11-08T04:00:00	7	Dirección del viento	3.22
173851	7	Sololá	712	San Antonio Palopó	9	San Antonio Palopo	5	Mayo	2023-05-29T00:00:00	2024-11-08T04:00:00	1	Precipitación	4.4
173852	7	Sololá	712	San Antonio Palopó	9	San Antonio Palopo	5	Mayo	2023-05-29T00:00:00	2024-11-08T04:00:00	8	Radiación solar	0
173853	7	Sololá	712	San Antonio Palopó	9	San Antonio Palopo	5	Mayo	2023-05-29T00:00:00	2024-11-08T05:00:00	2	Temperatura media	17.3
173854	7	Sololá	712	San Antonio Palopó	9	San Antonio Palopo	5	Mayo	2023-05-29T00:00:00	2024-11-08T05:00:00	4	Temperatura máxima	17.3
173855	7	Sololá	712	San Antonio Palopó	9	San Antonio Palopo	5	Mayo	2023-05-29T00:00:00	2024-11-08T05:00:00	3	Temperatura mínima	17.1
173856	7	Sololá	712	San Antonio Palopó	9	San Antonio Palopo	5	Mayo	2023-05-29T00:00:00	2024-11-08T05:00:00	5	Humedad	92
173857	7	Sololá	712	San Antonio Palopó	9	San Antonio Palopo	5	Mayo	2023-05-29T00:00:00	2024-11-08T05:00:00	6	Velocidad del viento	1.6
173858	7	Sololá	712	San Antonio Palopó	9	San Antonio Palopo	5	Mayo	2023-05-29T00:00:00	2024-11-08T05:00:00	7	Dirección del viento	1.61
173859	7	Sololá	712	San Antonio Palopó	9	San Antonio Palopo	5	Mayo	2023-05-29T00:00:00	2024-11-08T05:00:00	1	Precipitación	1.2
173860	7	Sololá	712	San Antonio Palopó	9	San Antonio Palopo	5	Mayo	2023-05-29T00:00:00	2024-11-08T05:00:00	8	Radiación solar	0
173861	7	Sololá	712	San Antonio Palopó	9	San Antonio Palopo	5	Mayo	2023-05-29T00:00:00	2024-11-08T06:00:00	2	Temperatura media	17.3
173862	7	Sololá	712	San Antonio Palopó	9	San Antonio Palopo	5	Mayo	2023-05-29T00:00:00	2024-11-08T06:00:00	4	Temperatura máxima	17.4
173863	7	Sololá	712	San Antonio Palopó	9	San Antonio Palopo	5	Mayo	2023-05-29T00:00:00	2024-11-08T06:00:00	3	Temperatura mínima	17.1
173864	7	Sololá	712	San Antonio Palopó	9	San Antonio Palopo	5	Mayo	2023-05-29T00:00:00	2024-11-08T06:00:00	5	Humedad	87
173865	7	Sololá	712	San Antonio Palopó	9	San Antonio Palopo	5	Mayo	2023-05-29T00:00:00	2024-11-08T06:00:00	6	Velocidad del viento	3.2
173866	7	Sololá	712	San Antonio Palopó	9	San Antonio Palopo	5	Mayo	2023-05-29T00:00:00	2024-11-08T06:00:00	7	Dirección del viento	3.22
173867	7	Sololá	712	San Antonio Palopó	9	San Antonio Palopo	5	Mayo	2023-05-29T00:00:00	2024-11-08T06:00:00	1	Precipitación	2.4
173868	7	Sololá	712	San Antonio Palopó	9	San Antonio Palopo	5	Mayo	2023-05-29T00:00:00	2024-11-08T06:00:00	8	Radiación solar	0
173869	7	Sololá	712	San Antonio Palopó	9	San Antonio Palopo	5	Mayo	2023-05-29T00:00:00	2024-11-08T07:00:00	2	Temperatura media	17.7
173870	7	Sololá	712	San Antonio Palopó	9	San Antonio Palopo	5	Mayo	2023-05-29T00:00:00	2024-11-08T07:00:00	4	Temperatura máxima	17.8
173871	7	Sololá	712	San Antonio Palopó	9	San Antonio Palopo	5	Mayo	2023-05-29T00:00:00	2024-11-08T07:00:00	3	Temperatura mínima	17.3
173872	7	Sololá	712	San Antonio Palopó	9	San Antonio Palopo	5	Mayo	2023-05-29T00:00:00	2024-11-08T07:00:00	5	Humedad	89
173873	7	Sololá	712	San Antonio Palopó	9	San Antonio Palopo	5	Mayo	2023-05-29T00:00:00	2024-11-08T07:00:00	6	Velocidad del viento	1.6
173874	7	Sololá	712	San Antonio Palopó	9	San Antonio Palopo	5	Mayo	2023-05-29T00:00:00	2024-11-08T07:00:00	7	Dirección del viento	1.61
173875	7	Sololá	712	San Antonio Palopó	9	San Antonio Palopo	5	Mayo	2023-05-29T00:00:00	2024-11-08T07:00:00	1	Precipitación	0
173876	7	Sololá	712	San Antonio Palopó	9	San Antonio Palopo	5	Mayo	2023-05-29T00:00:00	2024-11-08T07:00:00	8	Radiación solar	19
173877	7	Sololá	712	San Antonio Palopó	9	San Antonio Palopo	5	Mayo	2023-05-29T00:00:00	2024-11-08T08:00:00	2	Temperatura media	18.4
173878	7	Sololá	712	San Antonio Palopó	9	San Antonio Palopo	5	Mayo	2023-05-29T00:00:00	2024-11-08T08:00:00	4	Temperatura máxima	18.5
173879	7	Sololá	712	San Antonio Palopó	9	San Antonio Palopo	5	Mayo	2023-05-29T00:00:00	2024-11-08T08:00:00	3	Temperatura mínima	17.6
173880	7	Sololá	712	San Antonio Palopó	9	San Antonio Palopo	5	Mayo	2023-05-29T00:00:00	2024-11-08T08:00:00	5	Humedad	86
173881	7	Sololá	712	San Antonio Palopó	9	San Antonio Palopo	5	Mayo	2023-05-29T00:00:00	2024-11-08T08:00:00	6	Velocidad del viento	1.6
173882	7	Sololá	712	San Antonio Palopó	9	San Antonio Palopo	5	Mayo	2023-05-29T00:00:00	2024-11-08T08:00:00	7	Dirección del viento	1.61
173883	7	Sololá	712	San Antonio Palopó	9	San Antonio Palopo	5	Mayo	2023-05-29T00:00:00	2024-11-08T08:00:00	1	Precipitación	0
173884	7	Sololá	712	San Antonio Palopó	9	San Antonio Palopo	5	Mayo	2023-05-29T00:00:00	2024-11-08T08:00:00	8	Radiación solar	74
173885	7	Sololá	712	San Antonio Palopó	9	San Antonio Palopo	5	Mayo	2023-05-29T00:00:00	2024-11-08T09:00:00	2	Temperatura media	18.6
173886	7	Sololá	712	San Antonio Palopó	9	San Antonio Palopo	5	Mayo	2023-05-29T00:00:00	2024-11-08T09:00:00	4	Temperatura máxima	18.7
173887	7	Sololá	712	San Antonio Palopó	9	San Antonio Palopo	5	Mayo	2023-05-29T00:00:00	2024-11-08T09:00:00	3	Temperatura mínima	18.4
173888	7	Sololá	712	San Antonio Palopó	9	San Antonio Palopo	5	Mayo	2023-05-29T00:00:00	2024-11-08T09:00:00	5	Humedad	85
173889	7	Sololá	712	San Antonio Palopó	9	San Antonio Palopo	5	Mayo	2023-05-29T00:00:00	2024-11-08T09:00:00	6	Velocidad del viento	4.8
173890	7	Sololá	712	San Antonio Palopó	9	San Antonio Palopo	5	Mayo	2023-05-29T00:00:00	2024-11-08T09:00:00	7	Dirección del viento	4.83
173891	7	Sololá	712	San Antonio Palopó	9	San Antonio Palopo	5	Mayo	2023-05-29T00:00:00	2024-11-08T09:00:00	1	Precipitación	0
173892	7	Sololá	712	San Antonio Palopó	9	San Antonio Palopo	5	Mayo	2023-05-29T00:00:00	2024-11-08T09:00:00	8	Radiación solar	87
173893	7	Sololá	712	San Antonio Palopó	9	San Antonio Palopo	5	Mayo	2023-05-29T00:00:00	2024-11-08T10:00:00	2	Temperatura media	20.2
173894	7	Sololá	712	San Antonio Palopó	9	San Antonio Palopo	5	Mayo	2023-05-29T00:00:00	2024-11-08T10:00:00	4	Temperatura máxima	20.2
173895	7	Sololá	712	San Antonio Palopó	9	San Antonio Palopo	5	Mayo	2023-05-29T00:00:00	2024-11-08T10:00:00	3	Temperatura mínima	18.6
173896	7	Sololá	712	San Antonio Palopó	9	San Antonio Palopo	5	Mayo	2023-05-29T00:00:00	2024-11-08T10:00:00	5	Humedad	80
173897	7	Sololá	712	San Antonio Palopó	9	San Antonio Palopo	5	Mayo	2023-05-29T00:00:00	2024-11-08T10:00:00	6	Velocidad del viento	3.2
173898	7	Sololá	712	San Antonio Palopó	9	San Antonio Palopo	5	Mayo	2023-05-29T00:00:00	2024-11-08T10:00:00	7	Dirección del viento	3.22
173899	7	Sololá	712	San Antonio Palopó	9	San Antonio Palopo	5	Mayo	2023-05-29T00:00:00	2024-11-08T10:00:00	1	Precipitación	0
173900	7	Sololá	712	San Antonio Palopó	9	San Antonio Palopo	5	Mayo	2023-05-29T00:00:00	2024-11-08T10:00:00	8	Radiación solar	347
173901	7	Sololá	712	San Antonio Palopó	9	San Antonio Palopo	5	Mayo	2023-05-29T00:00:00	2024-11-08T11:00:00	2	Temperatura media	20.9
173902	7	Sololá	712	San Antonio Palopó	9	San Antonio Palopo	5	Mayo	2023-05-29T00:00:00	2024-11-08T11:00:00	4	Temperatura máxima	21
173903	7	Sololá	712	San Antonio Palopó	9	San Antonio Palopo	5	Mayo	2023-05-29T00:00:00	2024-11-08T11:00:00	3	Temperatura mínima	20.2
173904	7	Sololá	712	San Antonio Palopó	9	San Antonio Palopo	5	Mayo	2023-05-29T00:00:00	2024-11-08T11:00:00	5	Humedad	78
173905	7	Sololá	712	San Antonio Palopó	9	San Antonio Palopo	5	Mayo	2023-05-29T00:00:00	2024-11-08T11:00:00	6	Velocidad del viento	3.2
173906	7	Sololá	712	San Antonio Palopó	9	San Antonio Palopo	5	Mayo	2023-05-29T00:00:00	2024-11-08T11:00:00	7	Dirección del viento	3.22
173907	7	Sololá	712	San Antonio Palopó	9	San Antonio Palopo	5	Mayo	2023-05-29T00:00:00	2024-11-08T11:00:00	1	Precipitación	0
173908	7	Sololá	712	San Antonio Palopó	9	San Antonio Palopo	5	Mayo	2023-05-29T00:00:00	2024-11-08T11:00:00	8	Radiación solar	821
173909	7	Sololá	712	San Antonio Palopó	9	San Antonio Palopo	5	Mayo	2023-05-29T00:00:00	2024-11-08T12:00:00	2	Temperatura media	21.9
173910	7	Sololá	712	San Antonio Palopó	9	San Antonio Palopo	5	Mayo	2023-05-29T00:00:00	2024-11-08T12:00:00	4	Temperatura máxima	21.9
173911	7	Sololá	712	San Antonio Palopó	9	San Antonio Palopo	5	Mayo	2023-05-29T00:00:00	2024-11-08T12:00:00	3	Temperatura mínima	20.9
173912	7	Sololá	712	San Antonio Palopó	9	San Antonio Palopo	5	Mayo	2023-05-29T00:00:00	2024-11-08T12:00:00	5	Humedad	78
173913	7	Sololá	712	San Antonio Palopó	9	San Antonio Palopo	5	Mayo	2023-05-29T00:00:00	2024-11-08T12:00:00	6	Velocidad del viento	3.2
173914	7	Sololá	712	San Antonio Palopó	9	San Antonio Palopo	5	Mayo	2023-05-29T00:00:00	2024-11-08T12:00:00	7	Dirección del viento	3.22
173915	7	Sololá	712	San Antonio Palopó	9	San Antonio Palopo	5	Mayo	2023-05-29T00:00:00	2024-11-08T12:00:00	1	Precipitación	0
173916	7	Sololá	712	San Antonio Palopó	9	San Antonio Palopo	5	Mayo	2023-05-29T00:00:00	2024-11-08T12:00:00	8	Radiación solar	828
173917	7	Sololá	712	San Antonio Palopó	9	San Antonio Palopo	5	Mayo	2023-05-29T00:00:00	2024-11-08T13:00:00	2	Temperatura media	23.2
173918	7	Sololá	712	San Antonio Palopó	9	San Antonio Palopo	5	Mayo	2023-05-29T00:00:00	2024-11-08T13:00:00	4	Temperatura máxima	23.4
173919	7	Sololá	712	San Antonio Palopó	9	San Antonio Palopo	5	Mayo	2023-05-29T00:00:00	2024-11-08T13:00:00	3	Temperatura mínima	21.9
173920	7	Sololá	712	San Antonio Palopó	9	San Antonio Palopo	5	Mayo	2023-05-29T00:00:00	2024-11-08T13:00:00	5	Humedad	70
173921	7	Sololá	712	San Antonio Palopó	9	San Antonio Palopo	5	Mayo	2023-05-29T00:00:00	2024-11-08T13:00:00	6	Velocidad del viento	3.2
173922	7	Sololá	712	San Antonio Palopó	9	San Antonio Palopo	5	Mayo	2023-05-29T00:00:00	2024-11-08T13:00:00	7	Dirección del viento	3.22
173923	7	Sololá	712	San Antonio Palopó	9	San Antonio Palopo	5	Mayo	2023-05-29T00:00:00	2024-11-08T13:00:00	1	Precipitación	0
173924	7	Sololá	712	San Antonio Palopó	9	San Antonio Palopo	5	Mayo	2023-05-29T00:00:00	2024-11-08T13:00:00	8	Radiación solar	741
173925	7	Sololá	712	San Antonio Palopó	9	San Antonio Palopo	5	Mayo	2023-05-29T00:00:00	2024-11-08T14:00:00	2	Temperatura media	24.6
173926	7	Sololá	712	San Antonio Palopó	9	San Antonio Palopo	5	Mayo	2023-05-29T00:00:00	2024-11-08T14:00:00	4	Temperatura máxima	24.8
173927	7	Sololá	712	San Antonio Palopó	9	San Antonio Palopo	5	Mayo	2023-05-29T00:00:00	2024-11-08T14:00:00	3	Temperatura mínima	23.2
173928	7	Sololá	712	San Antonio Palopó	9	San Antonio Palopo	5	Mayo	2023-05-29T00:00:00	2024-11-08T14:00:00	5	Humedad	72
173929	7	Sololá	712	San Antonio Palopó	9	San Antonio Palopo	5	Mayo	2023-05-29T00:00:00	2024-11-08T14:00:00	6	Velocidad del viento	6.4
173930	7	Sololá	712	San Antonio Palopó	9	San Antonio Palopo	5	Mayo	2023-05-29T00:00:00	2024-11-08T14:00:00	7	Dirección del viento	6.44
173931	7	Sololá	712	San Antonio Palopó	9	San Antonio Palopo	5	Mayo	2023-05-29T00:00:00	2024-11-08T14:00:00	1	Precipitación	0
173932	7	Sololá	712	San Antonio Palopó	9	San Antonio Palopo	5	Mayo	2023-05-29T00:00:00	2024-11-08T14:00:00	8	Radiación solar	737
173933	7	Sololá	712	San Antonio Palopó	9	San Antonio Palopo	5	Mayo	2023-05-29T00:00:00	2024-11-08T15:00:00	2	Temperatura media	23.9
173934	7	Sololá	712	San Antonio Palopó	9	San Antonio Palopo	5	Mayo	2023-05-29T00:00:00	2024-11-08T15:00:00	4	Temperatura máxima	24.6
173935	7	Sololá	712	San Antonio Palopó	9	San Antonio Palopo	5	Mayo	2023-05-29T00:00:00	2024-11-08T15:00:00	3	Temperatura mínima	23.6
173936	7	Sololá	712	San Antonio Palopó	9	San Antonio Palopo	5	Mayo	2023-05-29T00:00:00	2024-11-08T15:00:00	5	Humedad	73
173937	7	Sololá	712	San Antonio Palopó	9	San Antonio Palopo	5	Mayo	2023-05-29T00:00:00	2024-11-08T15:00:00	6	Velocidad del viento	8
173938	7	Sololá	712	San Antonio Palopó	9	San Antonio Palopo	5	Mayo	2023-05-29T00:00:00	2024-11-08T15:00:00	7	Dirección del viento	8.05
173939	7	Sololá	712	San Antonio Palopó	9	San Antonio Palopo	5	Mayo	2023-05-29T00:00:00	2024-11-08T15:00:00	1	Precipitación	0
173940	7	Sololá	712	San Antonio Palopó	9	San Antonio Palopo	5	Mayo	2023-05-29T00:00:00	2024-11-08T15:00:00	8	Radiación solar	525
173941	7	Sololá	712	San Antonio Palopó	9	San Antonio Palopo	5	Mayo	2023-05-29T00:00:00	2024-11-08T16:00:00	2	Temperatura media	22.6
173942	7	Sololá	712	San Antonio Palopó	9	San Antonio Palopo	5	Mayo	2023-05-29T00:00:00	2024-11-08T16:00:00	4	Temperatura máxima	24.3
173943	7	Sololá	712	San Antonio Palopó	9	San Antonio Palopo	5	Mayo	2023-05-29T00:00:00	2024-11-08T16:00:00	3	Temperatura mínima	22.6
173944	7	Sololá	712	San Antonio Palopó	9	San Antonio Palopo	5	Mayo	2023-05-29T00:00:00	2024-11-08T16:00:00	5	Humedad	80
173945	7	Sololá	712	San Antonio Palopó	9	San Antonio Palopo	5	Mayo	2023-05-29T00:00:00	2024-11-08T16:00:00	6	Velocidad del viento	8
173946	7	Sololá	712	San Antonio Palopó	9	San Antonio Palopo	5	Mayo	2023-05-29T00:00:00	2024-11-08T16:00:00	7	Dirección del viento	8.05
173947	7	Sololá	712	San Antonio Palopó	9	San Antonio Palopo	5	Mayo	2023-05-29T00:00:00	2024-11-08T16:00:00	1	Precipitación	0
173948	7	Sololá	712	San Antonio Palopó	9	San Antonio Palopo	5	Mayo	2023-05-29T00:00:00	2024-11-08T16:00:00	8	Radiación solar	357
173949	7	Sololá	712	San Antonio Palopó	9	San Antonio Palopo	5	Mayo	2023-05-29T00:00:00	2024-11-08T17:00:00	2	Temperatura media	21
173950	7	Sololá	712	San Antonio Palopó	9	San Antonio Palopo	5	Mayo	2023-05-29T00:00:00	2024-11-08T17:00:00	4	Temperatura máxima	22.6
173951	7	Sololá	712	San Antonio Palopó	9	San Antonio Palopo	5	Mayo	2023-05-29T00:00:00	2024-11-08T17:00:00	3	Temperatura mínima	20.9
173952	7	Sololá	712	San Antonio Palopó	9	San Antonio Palopo	5	Mayo	2023-05-29T00:00:00	2024-11-08T17:00:00	5	Humedad	85
173953	7	Sololá	712	San Antonio Palopó	9	San Antonio Palopo	5	Mayo	2023-05-29T00:00:00	2024-11-08T17:00:00	6	Velocidad del viento	4.8
173954	7	Sololá	712	San Antonio Palopó	9	San Antonio Palopo	5	Mayo	2023-05-29T00:00:00	2024-11-08T17:00:00	7	Dirección del viento	4.83
173955	7	Sololá	712	San Antonio Palopó	9	San Antonio Palopo	5	Mayo	2023-05-29T00:00:00	2024-11-08T17:00:00	1	Precipitación	1.4
173956	7	Sololá	712	San Antonio Palopó	9	San Antonio Palopo	5	Mayo	2023-05-29T00:00:00	2024-11-08T17:00:00	8	Radiación solar	59
173957	7	Sololá	712	San Antonio Palopó	9	San Antonio Palopo	5	Mayo	2023-05-29T00:00:00	2024-11-08T18:00:00	2	Temperatura media	19.9
173958	7	Sololá	712	San Antonio Palopó	9	San Antonio Palopo	5	Mayo	2023-05-29T00:00:00	2024-11-08T18:00:00	4	Temperatura máxima	21
173959	7	Sololá	712	San Antonio Palopó	9	San Antonio Palopo	5	Mayo	2023-05-29T00:00:00	2024-11-08T18:00:00	3	Temperatura mínima	19.9
173960	7	Sololá	712	San Antonio Palopó	9	San Antonio Palopo	5	Mayo	2023-05-29T00:00:00	2024-11-08T18:00:00	5	Humedad	76
173961	7	Sololá	712	San Antonio Palopó	9	San Antonio Palopo	5	Mayo	2023-05-29T00:00:00	2024-11-08T18:00:00	6	Velocidad del viento	16.1
173962	7	Sololá	712	San Antonio Palopó	9	San Antonio Palopo	5	Mayo	2023-05-29T00:00:00	2024-11-08T18:00:00	7	Dirección del viento	16.09
173963	7	Sololá	712	San Antonio Palopó	9	San Antonio Palopo	5	Mayo	2023-05-29T00:00:00	2024-11-08T18:00:00	1	Precipitación	0.2
173964	7	Sololá	712	San Antonio Palopó	9	San Antonio Palopo	5	Mayo	2023-05-29T00:00:00	2024-11-08T18:00:00	8	Radiación solar	31
173965	7	Sololá	712	San Antonio Palopó	9	San Antonio Palopo	5	Mayo	2023-05-29T00:00:00	2024-11-08T19:00:00	2	Temperatura media	19.8
173966	7	Sololá	712	San Antonio Palopó	9	San Antonio Palopo	5	Mayo	2023-05-29T00:00:00	2024-11-08T19:00:00	4	Temperatura máxima	19.9
173967	7	Sololá	712	San Antonio Palopó	9	San Antonio Palopo	5	Mayo	2023-05-29T00:00:00	2024-11-08T19:00:00	3	Temperatura mínima	19.3
173968	7	Sololá	712	San Antonio Palopó	9	San Antonio Palopo	5	Mayo	2023-05-29T00:00:00	2024-11-08T19:00:00	5	Humedad	72
173969	7	Sololá	712	San Antonio Palopó	9	San Antonio Palopo	5	Mayo	2023-05-29T00:00:00	2024-11-08T19:00:00	6	Velocidad del viento	3.2
173970	7	Sololá	712	San Antonio Palopó	9	San Antonio Palopo	5	Mayo	2023-05-29T00:00:00	2024-11-08T19:00:00	7	Dirección del viento	3.22
173971	7	Sololá	712	San Antonio Palopó	9	San Antonio Palopo	5	Mayo	2023-05-29T00:00:00	2024-11-08T19:00:00	1	Precipitación	0
173972	7	Sololá	712	San Antonio Palopó	9	San Antonio Palopo	5	Mayo	2023-05-29T00:00:00	2024-11-08T19:00:00	8	Radiación solar	0
173973	7	Sololá	712	San Antonio Palopó	9	San Antonio Palopo	5	Mayo	2023-05-29T00:00:00	2024-11-08T20:00:00	2	Temperatura media	18.9
173974	7	Sololá	712	San Antonio Palopó	9	San Antonio Palopo	5	Mayo	2023-05-29T00:00:00	2024-11-08T20:00:00	4	Temperatura máxima	19.9
173975	7	Sololá	712	San Antonio Palopó	9	San Antonio Palopo	5	Mayo	2023-05-29T00:00:00	2024-11-08T20:00:00	3	Temperatura mínima	18.8
173976	7	Sololá	712	San Antonio Palopó	9	San Antonio Palopo	5	Mayo	2023-05-29T00:00:00	2024-11-08T20:00:00	5	Humedad	79
173977	7	Sololá	712	San Antonio Palopó	9	San Antonio Palopo	5	Mayo	2023-05-29T00:00:00	2024-11-08T20:00:00	6	Velocidad del viento	3.2
173978	7	Sololá	712	San Antonio Palopó	9	San Antonio Palopo	5	Mayo	2023-05-29T00:00:00	2024-11-08T20:00:00	7	Dirección del viento	3.22
173979	7	Sololá	712	San Antonio Palopó	9	San Antonio Palopo	5	Mayo	2023-05-29T00:00:00	2024-11-08T20:00:00	1	Precipitación	0
173980	7	Sololá	712	San Antonio Palopó	9	San Antonio Palopo	5	Mayo	2023-05-29T00:00:00	2024-11-08T20:00:00	8	Radiación solar	0
173981	7	Sololá	712	San Antonio Palopó	9	San Antonio Palopo	5	Mayo	2023-05-29T00:00:00	2024-11-08T21:00:00	2	Temperatura media	18.3
173982	7	Sololá	712	San Antonio Palopó	9	San Antonio Palopo	5	Mayo	2023-05-29T00:00:00	2024-11-08T21:00:00	4	Temperatura máxima	19.4
173983	7	Sololá	712	San Antonio Palopó	9	San Antonio Palopo	5	Mayo	2023-05-29T00:00:00	2024-11-08T21:00:00	3	Temperatura mínima	18.3
173984	7	Sololá	712	San Antonio Palopó	9	San Antonio Palopo	5	Mayo	2023-05-29T00:00:00	2024-11-08T21:00:00	5	Humedad	80
173985	7	Sololá	712	San Antonio Palopó	9	San Antonio Palopo	5	Mayo	2023-05-29T00:00:00	2024-11-08T21:00:00	6	Velocidad del viento	3.2
173986	7	Sololá	712	San Antonio Palopó	9	San Antonio Palopo	5	Mayo	2023-05-29T00:00:00	2024-11-08T21:00:00	7	Dirección del viento	3.22
173987	7	Sololá	712	San Antonio Palopó	9	San Antonio Palopo	5	Mayo	2023-05-29T00:00:00	2024-11-08T21:00:00	1	Precipitación	0
173988	7	Sololá	712	San Antonio Palopó	9	San Antonio Palopo	5	Mayo	2023-05-29T00:00:00	2024-11-08T21:00:00	8	Radiación solar	0
173989	7	Sololá	712	San Antonio Palopó	9	San Antonio Palopo	5	Mayo	2023-05-29T00:00:00	2024-11-08T22:00:00	2	Temperatura media	19.5
173990	7	Sololá	712	San Antonio Palopó	9	San Antonio Palopo	5	Mayo	2023-05-29T00:00:00	2024-11-08T22:00:00	4	Temperatura máxima	19.6
173991	7	Sololá	712	San Antonio Palopó	9	San Antonio Palopo	5	Mayo	2023-05-29T00:00:00	2024-11-08T22:00:00	3	Temperatura mínima	18.2
173992	7	Sololá	712	San Antonio Palopó	9	San Antonio Palopo	5	Mayo	2023-05-29T00:00:00	2024-11-08T22:00:00	5	Humedad	76
173993	7	Sololá	712	San Antonio Palopó	9	San Antonio Palopo	5	Mayo	2023-05-29T00:00:00	2024-11-08T22:00:00	6	Velocidad del viento	4.8
173994	7	Sololá	712	San Antonio Palopó	9	San Antonio Palopo	5	Mayo	2023-05-29T00:00:00	2024-11-08T22:00:00	7	Dirección del viento	4.83
173995	7	Sololá	712	San Antonio Palopó	9	San Antonio Palopo	5	Mayo	2023-05-29T00:00:00	2024-11-08T22:00:00	1	Precipitación	0
173996	7	Sololá	712	San Antonio Palopó	9	San Antonio Palopo	5	Mayo	2023-05-29T00:00:00	2024-11-08T22:00:00	8	Radiación solar	0
173997	7	Sololá	712	San Antonio Palopó	9	San Antonio Palopo	5	Mayo	2023-05-29T00:00:00	2024-11-08T23:00:00	2	Temperatura media	18.6
173998	7	Sololá	712	San Antonio Palopó	9	San Antonio Palopo	5	Mayo	2023-05-29T00:00:00	2024-11-08T23:00:00	4	Temperatura máxima	19.7
173999	7	Sololá	712	San Antonio Palopó	9	San Antonio Palopo	5	Mayo	2023-05-29T00:00:00	2024-11-08T23:00:00	3	Temperatura mínima	18.5
174000	7	Sololá	712	San Antonio Palopó	9	San Antonio Palopo	5	Mayo	2023-05-29T00:00:00	2024-11-08T23:00:00	5	Humedad	80
174001	7	Sololá	712	San Antonio Palopó	9	San Antonio Palopo	5	Mayo	2023-05-29T00:00:00	2024-11-08T23:00:00	6	Velocidad del viento	3.2
174002	7	Sololá	712	San Antonio Palopó	9	San Antonio Palopo	5	Mayo	2023-05-29T00:00:00	2024-11-08T23:00:00	7	Dirección del viento	3.22
174003	7	Sololá	712	San Antonio Palopó	9	San Antonio Palopo	5	Mayo	2023-05-29T00:00:00	2024-11-08T23:00:00	1	Precipitación	0
174004	7	Sololá	712	San Antonio Palopó	9	San Antonio Palopo	5	Mayo	2023-05-29T00:00:00	2024-11-08T23:00:00	8	Radiación solar	0
174005	7	Sololá	712	San Antonio Palopó	9	San Antonio Palopo	5	Mayo	2023-05-30T00:00:00	2024-11-08T00:00:00	2	Temperatura media	18.9
174006	7	Sololá	712	San Antonio Palopó	9	San Antonio Palopo	5	Mayo	2023-05-30T00:00:00	2024-11-08T00:00:00	4	Temperatura máxima	19.2
174007	7	Sololá	712	San Antonio Palopó	9	San Antonio Palopo	5	Mayo	2023-05-30T00:00:00	2024-11-08T00:00:00	3	Temperatura mínima	18.4
174008	7	Sololá	712	San Antonio Palopó	9	San Antonio Palopo	5	Mayo	2023-05-30T00:00:00	2024-11-08T00:00:00	5	Humedad	81
174009	7	Sololá	712	San Antonio Palopó	9	San Antonio Palopo	5	Mayo	2023-05-30T00:00:00	2024-11-08T00:00:00	6	Velocidad del viento	1.6
174010	7	Sololá	712	San Antonio Palopó	9	San Antonio Palopo	5	Mayo	2023-05-30T00:00:00	2024-11-08T00:00:00	7	Dirección del viento	1.61
174011	7	Sololá	712	San Antonio Palopó	9	San Antonio Palopo	5	Mayo	2023-05-30T00:00:00	2024-11-08T00:00:00	1	Precipitación	0
174012	7	Sololá	712	San Antonio Palopó	9	San Antonio Palopo	5	Mayo	2023-05-30T00:00:00	2024-11-08T00:00:00	8	Radiación solar	0
174013	7	Sololá	712	San Antonio Palopó	9	San Antonio Palopo	5	Mayo	2023-05-30T00:00:00	2024-11-08T01:00:00	2	Temperatura media	19.2
174014	7	Sololá	712	San Antonio Palopó	9	San Antonio Palopo	5	Mayo	2023-05-30T00:00:00	2024-11-08T01:00:00	4	Temperatura máxima	19.6
174015	7	Sololá	712	San Antonio Palopó	9	San Antonio Palopo	5	Mayo	2023-05-30T00:00:00	2024-11-08T01:00:00	3	Temperatura mínima	18.9
174016	7	Sololá	712	San Antonio Palopó	9	San Antonio Palopo	5	Mayo	2023-05-30T00:00:00	2024-11-08T01:00:00	5	Humedad	78
174017	7	Sololá	712	San Antonio Palopó	9	San Antonio Palopo	5	Mayo	2023-05-30T00:00:00	2024-11-08T01:00:00	6	Velocidad del viento	3.2
174018	7	Sololá	712	San Antonio Palopó	9	San Antonio Palopo	5	Mayo	2023-05-30T00:00:00	2024-11-08T01:00:00	7	Dirección del viento	3.22
174019	7	Sololá	712	San Antonio Palopó	9	San Antonio Palopo	5	Mayo	2023-05-30T00:00:00	2024-11-08T01:00:00	1	Precipitación	0
174020	7	Sololá	712	San Antonio Palopó	9	San Antonio Palopo	5	Mayo	2023-05-30T00:00:00	2024-11-08T01:00:00	8	Radiación solar	0
174021	7	Sololá	712	San Antonio Palopó	9	San Antonio Palopo	5	Mayo	2023-05-30T00:00:00	2024-11-08T02:00:00	2	Temperatura media	18.6
174022	7	Sololá	712	San Antonio Palopó	9	San Antonio Palopo	5	Mayo	2023-05-30T00:00:00	2024-11-08T02:00:00	4	Temperatura máxima	19.2
174023	7	Sololá	712	San Antonio Palopó	9	San Antonio Palopo	5	Mayo	2023-05-30T00:00:00	2024-11-08T02:00:00	3	Temperatura mínima	18.6
174024	7	Sololá	712	San Antonio Palopó	9	San Antonio Palopo	5	Mayo	2023-05-30T00:00:00	2024-11-08T02:00:00	5	Humedad	80
174025	7	Sololá	712	San Antonio Palopó	9	San Antonio Palopo	5	Mayo	2023-05-30T00:00:00	2024-11-08T02:00:00	6	Velocidad del viento	1.6
174026	7	Sololá	712	San Antonio Palopó	9	San Antonio Palopo	5	Mayo	2023-05-30T00:00:00	2024-11-08T02:00:00	7	Dirección del viento	1.61
174027	7	Sololá	712	San Antonio Palopó	9	San Antonio Palopo	5	Mayo	2023-05-30T00:00:00	2024-11-08T02:00:00	1	Precipitación	0
174028	7	Sololá	712	San Antonio Palopó	9	San Antonio Palopo	5	Mayo	2023-05-30T00:00:00	2024-11-08T02:00:00	8	Radiación solar	0
174029	7	Sololá	712	San Antonio Palopó	9	San Antonio Palopo	5	Mayo	2023-05-30T00:00:00	2024-11-08T03:00:00	2	Temperatura media	18.8
174030	7	Sololá	712	San Antonio Palopó	9	San Antonio Palopo	5	Mayo	2023-05-30T00:00:00	2024-11-08T03:00:00	4	Temperatura máxima	19.1
174031	7	Sololá	712	San Antonio Palopó	9	San Antonio Palopo	5	Mayo	2023-05-30T00:00:00	2024-11-08T03:00:00	3	Temperatura mínima	18.6
174032	7	Sololá	712	San Antonio Palopó	9	San Antonio Palopo	5	Mayo	2023-05-30T00:00:00	2024-11-08T03:00:00	5	Humedad	78
174033	7	Sololá	712	San Antonio Palopó	9	San Antonio Palopo	5	Mayo	2023-05-30T00:00:00	2024-11-08T03:00:00	6	Velocidad del viento	1.6
174034	7	Sololá	712	San Antonio Palopó	9	San Antonio Palopo	5	Mayo	2023-05-30T00:00:00	2024-11-08T03:00:00	7	Dirección del viento	1.61
174035	7	Sololá	712	San Antonio Palopó	9	San Antonio Palopo	5	Mayo	2023-05-30T00:00:00	2024-11-08T03:00:00	1	Precipitación	0
174036	7	Sololá	712	San Antonio Palopó	9	San Antonio Palopo	5	Mayo	2023-05-30T00:00:00	2024-11-08T03:00:00	8	Radiación solar	0
174037	7	Sololá	712	San Antonio Palopó	9	San Antonio Palopo	5	Mayo	2023-05-30T00:00:00	2024-11-08T04:00:00	2	Temperatura media	18.7
174038	7	Sololá	712	San Antonio Palopó	9	San Antonio Palopo	5	Mayo	2023-05-30T00:00:00	2024-11-08T04:00:00	4	Temperatura máxima	18.8
174039	7	Sololá	712	San Antonio Palopó	9	San Antonio Palopo	5	Mayo	2023-05-30T00:00:00	2024-11-08T04:00:00	3	Temperatura mínima	18.3
174040	7	Sololá	712	San Antonio Palopó	9	San Antonio Palopo	5	Mayo	2023-05-30T00:00:00	2024-11-08T04:00:00	5	Humedad	78
174041	7	Sololá	712	San Antonio Palopó	9	San Antonio Palopo	5	Mayo	2023-05-30T00:00:00	2024-11-08T04:00:00	6	Velocidad del viento	3.2
174042	7	Sololá	712	San Antonio Palopó	9	San Antonio Palopo	5	Mayo	2023-05-30T00:00:00	2024-11-08T04:00:00	7	Dirección del viento	3.22
174043	7	Sololá	712	San Antonio Palopó	9	San Antonio Palopo	5	Mayo	2023-05-30T00:00:00	2024-11-08T04:00:00	1	Precipitación	0
174044	7	Sololá	712	San Antonio Palopó	9	San Antonio Palopo	5	Mayo	2023-05-30T00:00:00	2024-11-08T04:00:00	8	Radiación solar	0
174045	7	Sololá	712	San Antonio Palopó	9	San Antonio Palopo	5	Mayo	2023-05-30T00:00:00	2024-11-08T05:00:00	2	Temperatura media	19.1
174046	7	Sololá	712	San Antonio Palopó	9	San Antonio Palopo	5	Mayo	2023-05-30T00:00:00	2024-11-08T05:00:00	4	Temperatura máxima	19.2
174047	7	Sololá	712	San Antonio Palopó	9	San Antonio Palopo	5	Mayo	2023-05-30T00:00:00	2024-11-08T05:00:00	3	Temperatura mínima	18.7
174048	7	Sololá	712	San Antonio Palopó	9	San Antonio Palopo	5	Mayo	2023-05-30T00:00:00	2024-11-08T05:00:00	5	Humedad	75
174049	7	Sololá	712	San Antonio Palopó	9	San Antonio Palopo	5	Mayo	2023-05-30T00:00:00	2024-11-08T05:00:00	6	Velocidad del viento	3.2
174050	7	Sololá	712	San Antonio Palopó	9	San Antonio Palopo	5	Mayo	2023-05-30T00:00:00	2024-11-08T05:00:00	7	Dirección del viento	3.22
174051	7	Sololá	712	San Antonio Palopó	9	San Antonio Palopo	5	Mayo	2023-05-30T00:00:00	2024-11-08T05:00:00	1	Precipitación	0
174052	7	Sololá	712	San Antonio Palopó	9	San Antonio Palopo	5	Mayo	2023-05-30T00:00:00	2024-11-08T05:00:00	8	Radiación solar	0
174053	7	Sololá	712	San Antonio Palopó	9	San Antonio Palopo	5	Mayo	2023-05-30T00:00:00	2024-11-08T06:00:00	2	Temperatura media	18.4
174054	7	Sololá	712	San Antonio Palopó	9	San Antonio Palopo	5	Mayo	2023-05-30T00:00:00	2024-11-08T06:00:00	4	Temperatura máxima	19.2
174055	7	Sololá	712	San Antonio Palopó	9	San Antonio Palopo	5	Mayo	2023-05-30T00:00:00	2024-11-08T06:00:00	3	Temperatura mínima	18.3
174056	7	Sololá	712	San Antonio Palopó	9	San Antonio Palopo	5	Mayo	2023-05-30T00:00:00	2024-11-08T06:00:00	5	Humedad	79
174057	7	Sololá	712	San Antonio Palopó	9	San Antonio Palopo	5	Mayo	2023-05-30T00:00:00	2024-11-08T06:00:00	6	Velocidad del viento	3.2
174058	7	Sololá	712	San Antonio Palopó	9	San Antonio Palopo	5	Mayo	2023-05-30T00:00:00	2024-11-08T06:00:00	7	Dirección del viento	3.22
174059	7	Sololá	712	San Antonio Palopó	9	San Antonio Palopo	5	Mayo	2023-05-30T00:00:00	2024-11-08T06:00:00	1	Precipitación	0
174060	7	Sololá	712	San Antonio Palopó	9	San Antonio Palopo	5	Mayo	2023-05-30T00:00:00	2024-11-08T06:00:00	8	Radiación solar	5
174061	7	Sololá	712	San Antonio Palopó	9	San Antonio Palopo	5	Mayo	2023-05-30T00:00:00	2024-11-08T07:00:00	2	Temperatura media	19.8
174062	7	Sololá	712	San Antonio Palopó	9	San Antonio Palopo	5	Mayo	2023-05-30T00:00:00	2024-11-08T07:00:00	4	Temperatura máxima	19.8
174063	7	Sololá	712	San Antonio Palopó	9	San Antonio Palopo	5	Mayo	2023-05-30T00:00:00	2024-11-08T07:00:00	3	Temperatura mínima	18.3
174064	7	Sololá	712	San Antonio Palopó	9	San Antonio Palopo	5	Mayo	2023-05-30T00:00:00	2024-11-08T07:00:00	5	Humedad	78
174065	7	Sololá	712	San Antonio Palopó	9	San Antonio Palopo	5	Mayo	2023-05-30T00:00:00	2024-11-08T07:00:00	6	Velocidad del viento	3.2
174066	7	Sololá	712	San Antonio Palopó	9	San Antonio Palopo	5	Mayo	2023-05-30T00:00:00	2024-11-08T07:00:00	7	Dirección del viento	3.22
174067	7	Sololá	712	San Antonio Palopó	9	San Antonio Palopo	5	Mayo	2023-05-30T00:00:00	2024-11-08T07:00:00	1	Precipitación	0
174068	7	Sololá	712	San Antonio Palopó	9	San Antonio Palopo	5	Mayo	2023-05-30T00:00:00	2024-11-08T07:00:00	8	Radiación solar	84
174069	7	Sololá	712	San Antonio Palopó	9	San Antonio Palopo	5	Mayo	2023-05-30T00:00:00	2024-11-08T08:00:00	2	Temperatura media	20.9
174070	7	Sololá	712	San Antonio Palopó	9	San Antonio Palopo	5	Mayo	2023-05-30T00:00:00	2024-11-08T08:00:00	4	Temperatura máxima	21.1
174071	7	Sololá	712	San Antonio Palopó	9	San Antonio Palopo	5	Mayo	2023-05-30T00:00:00	2024-11-08T08:00:00	3	Temperatura mínima	19.8
174072	7	Sololá	712	San Antonio Palopó	9	San Antonio Palopo	5	Mayo	2023-05-30T00:00:00	2024-11-08T08:00:00	5	Humedad	74
174073	7	Sololá	712	San Antonio Palopó	9	San Antonio Palopo	5	Mayo	2023-05-30T00:00:00	2024-11-08T08:00:00	6	Velocidad del viento	3.2
174074	7	Sololá	712	San Antonio Palopó	9	San Antonio Palopo	5	Mayo	2023-05-30T00:00:00	2024-11-08T08:00:00	7	Dirección del viento	3.22
174075	7	Sololá	712	San Antonio Palopó	9	San Antonio Palopo	5	Mayo	2023-05-30T00:00:00	2024-11-08T08:00:00	1	Precipitación	0
174076	7	Sololá	712	San Antonio Palopó	9	San Antonio Palopo	5	Mayo	2023-05-30T00:00:00	2024-11-08T08:00:00	8	Radiación solar	235
174077	7	Sololá	712	San Antonio Palopó	9	San Antonio Palopo	5	Mayo	2023-05-30T00:00:00	2024-11-08T09:00:00	2	Temperatura media	21
174078	7	Sololá	712	San Antonio Palopó	9	San Antonio Palopo	5	Mayo	2023-05-30T00:00:00	2024-11-08T09:00:00	4	Temperatura máxima	21.1
174079	7	Sololá	712	San Antonio Palopó	9	San Antonio Palopo	5	Mayo	2023-05-30T00:00:00	2024-11-08T09:00:00	3	Temperatura mínima	20.7
174080	7	Sololá	712	San Antonio Palopó	9	San Antonio Palopo	5	Mayo	2023-05-30T00:00:00	2024-11-08T09:00:00	5	Humedad	77
174081	7	Sololá	712	San Antonio Palopó	9	San Antonio Palopo	5	Mayo	2023-05-30T00:00:00	2024-11-08T09:00:00	6	Velocidad del viento	3.2
174082	7	Sololá	712	San Antonio Palopó	9	San Antonio Palopo	5	Mayo	2023-05-30T00:00:00	2024-11-08T09:00:00	7	Dirección del viento	3.22
174083	7	Sololá	712	San Antonio Palopó	9	San Antonio Palopo	5	Mayo	2023-05-30T00:00:00	2024-11-08T09:00:00	1	Precipitación	0
174084	7	Sololá	712	San Antonio Palopó	9	San Antonio Palopo	5	Mayo	2023-05-30T00:00:00	2024-11-08T09:00:00	8	Radiación solar	297
174085	7	Sololá	712	San Antonio Palopó	9	San Antonio Palopo	5	Mayo	2023-05-30T00:00:00	2024-11-08T10:00:00	2	Temperatura media	21.7
174086	7	Sololá	712	San Antonio Palopó	9	San Antonio Palopo	5	Mayo	2023-05-30T00:00:00	2024-11-08T10:00:00	4	Temperatura máxima	22.1
174087	7	Sololá	712	San Antonio Palopó	9	San Antonio Palopo	5	Mayo	2023-05-30T00:00:00	2024-11-08T10:00:00	3	Temperatura mínima	20.9
174088	7	Sololá	712	San Antonio Palopó	9	San Antonio Palopo	5	Mayo	2023-05-30T00:00:00	2024-11-08T10:00:00	5	Humedad	73
174089	7	Sololá	712	San Antonio Palopó	9	San Antonio Palopo	5	Mayo	2023-05-30T00:00:00	2024-11-08T10:00:00	6	Velocidad del viento	3.2
174090	7	Sololá	712	San Antonio Palopó	9	San Antonio Palopo	5	Mayo	2023-05-30T00:00:00	2024-11-08T10:00:00	7	Dirección del viento	3.22
174091	7	Sololá	712	San Antonio Palopó	9	San Antonio Palopo	5	Mayo	2023-05-30T00:00:00	2024-11-08T10:00:00	1	Precipitación	0
174092	7	Sololá	712	San Antonio Palopó	9	San Antonio Palopo	5	Mayo	2023-05-30T00:00:00	2024-11-08T10:00:00	8	Radiación solar	697
174093	7	Sololá	712	San Antonio Palopó	9	San Antonio Palopo	5	Mayo	2023-05-30T00:00:00	2024-11-08T11:00:00	2	Temperatura media	22.2
174094	7	Sololá	712	San Antonio Palopó	9	San Antonio Palopo	5	Mayo	2023-05-30T00:00:00	2024-11-08T11:00:00	4	Temperatura máxima	22.3
174095	7	Sololá	712	San Antonio Palopó	9	San Antonio Palopo	5	Mayo	2023-05-30T00:00:00	2024-11-08T11:00:00	3	Temperatura mínima	21.7
174096	7	Sololá	712	San Antonio Palopó	9	San Antonio Palopo	5	Mayo	2023-05-30T00:00:00	2024-11-08T11:00:00	5	Humedad	72
174097	7	Sololá	712	San Antonio Palopó	9	San Antonio Palopo	5	Mayo	2023-05-30T00:00:00	2024-11-08T11:00:00	6	Velocidad del viento	3.2
174098	7	Sololá	712	San Antonio Palopó	9	San Antonio Palopo	5	Mayo	2023-05-30T00:00:00	2024-11-08T11:00:00	7	Dirección del viento	3.22
174099	7	Sololá	712	San Antonio Palopó	9	San Antonio Palopo	5	Mayo	2023-05-30T00:00:00	2024-11-08T11:00:00	1	Precipitación	0
174100	7	Sololá	712	San Antonio Palopó	9	San Antonio Palopo	5	Mayo	2023-05-30T00:00:00	2024-11-08T11:00:00	8	Radiación solar	851
174101	7	Sololá	712	San Antonio Palopó	9	San Antonio Palopo	5	Mayo	2023-05-30T00:00:00	2024-11-08T12:00:00	2	Temperatura media	23.8
174102	7	Sololá	712	San Antonio Palopó	9	San Antonio Palopo	5	Mayo	2023-05-30T00:00:00	2024-11-08T12:00:00	4	Temperatura máxima	23.8
174103	7	Sololá	712	San Antonio Palopó	9	San Antonio Palopo	5	Mayo	2023-05-30T00:00:00	2024-11-08T12:00:00	3	Temperatura mínima	22.2
174104	7	Sololá	712	San Antonio Palopó	9	San Antonio Palopo	5	Mayo	2023-05-30T00:00:00	2024-11-08T12:00:00	5	Humedad	67
174105	7	Sololá	712	San Antonio Palopó	9	San Antonio Palopo	5	Mayo	2023-05-30T00:00:00	2024-11-08T12:00:00	6	Velocidad del viento	4.8
174106	7	Sololá	712	San Antonio Palopó	9	San Antonio Palopo	5	Mayo	2023-05-30T00:00:00	2024-11-08T12:00:00	7	Dirección del viento	4.83
174107	7	Sololá	712	San Antonio Palopó	9	San Antonio Palopo	5	Mayo	2023-05-30T00:00:00	2024-11-08T12:00:00	1	Precipitación	0
174108	7	Sololá	712	San Antonio Palopó	9	San Antonio Palopo	5	Mayo	2023-05-30T00:00:00	2024-11-08T12:00:00	8	Radiación solar	872
174109	7	Sololá	712	San Antonio Palopó	9	San Antonio Palopo	5	Mayo	2023-05-30T00:00:00	2024-11-08T13:00:00	2	Temperatura media	23.1
174110	7	Sololá	712	San Antonio Palopó	9	San Antonio Palopo	5	Mayo	2023-05-30T00:00:00	2024-11-08T13:00:00	4	Temperatura máxima	23.9
174111	7	Sololá	712	San Antonio Palopó	9	San Antonio Palopo	5	Mayo	2023-05-30T00:00:00	2024-11-08T13:00:00	3	Temperatura mínima	22.8
174112	7	Sololá	712	San Antonio Palopó	9	San Antonio Palopo	5	Mayo	2023-05-30T00:00:00	2024-11-08T13:00:00	5	Humedad	74
174113	7	Sololá	712	San Antonio Palopó	9	San Antonio Palopo	5	Mayo	2023-05-30T00:00:00	2024-11-08T13:00:00	6	Velocidad del viento	9.7
174114	7	Sololá	712	San Antonio Palopó	9	San Antonio Palopo	5	Mayo	2023-05-30T00:00:00	2024-11-08T13:00:00	7	Dirección del viento	9.66
174115	7	Sololá	712	San Antonio Palopó	9	San Antonio Palopo	5	Mayo	2023-05-30T00:00:00	2024-11-08T13:00:00	1	Precipitación	0
174116	7	Sololá	712	San Antonio Palopó	9	San Antonio Palopo	5	Mayo	2023-05-30T00:00:00	2024-11-08T13:00:00	8	Radiación solar	781
174117	7	Sololá	712	San Antonio Palopó	9	San Antonio Palopo	5	Mayo	2023-05-30T00:00:00	2024-11-08T14:00:00	2	Temperatura media	20.6
174118	7	Sololá	712	San Antonio Palopó	9	San Antonio Palopo	5	Mayo	2023-05-30T00:00:00	2024-11-08T14:00:00	4	Temperatura máxima	23
174119	7	Sololá	712	San Antonio Palopó	9	San Antonio Palopo	5	Mayo	2023-05-30T00:00:00	2024-11-08T14:00:00	3	Temperatura mínima	20.6
174120	7	Sololá	712	San Antonio Palopó	9	San Antonio Palopo	5	Mayo	2023-05-30T00:00:00	2024-11-08T14:00:00	5	Humedad	82
174121	7	Sololá	712	San Antonio Palopó	9	San Antonio Palopo	5	Mayo	2023-05-30T00:00:00	2024-11-08T14:00:00	6	Velocidad del viento	9.7
174122	7	Sololá	712	San Antonio Palopó	9	San Antonio Palopo	5	Mayo	2023-05-30T00:00:00	2024-11-08T14:00:00	7	Dirección del viento	9.66
174123	7	Sololá	712	San Antonio Palopó	9	San Antonio Palopo	5	Mayo	2023-05-30T00:00:00	2024-11-08T14:00:00	1	Precipitación	0
174124	7	Sololá	712	San Antonio Palopó	9	San Antonio Palopo	5	Mayo	2023-05-30T00:00:00	2024-11-08T14:00:00	8	Radiación solar	142
174125	7	Sololá	712	San Antonio Palopó	9	San Antonio Palopo	5	Mayo	2023-05-30T00:00:00	2024-11-08T15:00:00	2	Temperatura media	18.8
174126	7	Sololá	712	San Antonio Palopó	9	San Antonio Palopo	5	Mayo	2023-05-30T00:00:00	2024-11-08T15:00:00	4	Temperatura máxima	20.6
174127	7	Sololá	712	San Antonio Palopó	9	San Antonio Palopo	5	Mayo	2023-05-30T00:00:00	2024-11-08T15:00:00	3	Temperatura mínima	18.4
174128	7	Sololá	712	San Antonio Palopó	9	San Antonio Palopo	5	Mayo	2023-05-30T00:00:00	2024-11-08T15:00:00	5	Humedad	89
174129	7	Sololá	712	San Antonio Palopó	9	San Antonio Palopo	5	Mayo	2023-05-30T00:00:00	2024-11-08T15:00:00	6	Velocidad del viento	6.4
174130	7	Sololá	712	San Antonio Palopó	9	San Antonio Palopo	5	Mayo	2023-05-30T00:00:00	2024-11-08T15:00:00	7	Dirección del viento	6.44
174131	7	Sololá	712	San Antonio Palopó	9	San Antonio Palopo	5	Mayo	2023-05-30T00:00:00	2024-11-08T15:00:00	1	Precipitación	6.8
174132	7	Sololá	712	San Antonio Palopó	9	San Antonio Palopo	5	Mayo	2023-05-30T00:00:00	2024-11-08T15:00:00	8	Radiación solar	24
174133	7	Sololá	712	San Antonio Palopó	9	San Antonio Palopo	5	Mayo	2023-05-30T00:00:00	2024-11-08T16:00:00	2	Temperatura media	19.3
174134	7	Sololá	712	San Antonio Palopó	9	San Antonio Palopo	5	Mayo	2023-05-30T00:00:00	2024-11-08T16:00:00	4	Temperatura máxima	19.3
174135	7	Sololá	712	San Antonio Palopó	9	San Antonio Palopo	5	Mayo	2023-05-30T00:00:00	2024-11-08T16:00:00	3	Temperatura mínima	18.8
174136	7	Sololá	712	San Antonio Palopó	9	San Antonio Palopo	5	Mayo	2023-05-30T00:00:00	2024-11-08T16:00:00	5	Humedad	84
174137	7	Sololá	712	San Antonio Palopó	9	San Antonio Palopo	5	Mayo	2023-05-30T00:00:00	2024-11-08T16:00:00	6	Velocidad del viento	3.2
174138	7	Sololá	712	San Antonio Palopó	9	San Antonio Palopo	5	Mayo	2023-05-30T00:00:00	2024-11-08T16:00:00	7	Dirección del viento	3.22
174139	7	Sololá	712	San Antonio Palopó	9	San Antonio Palopo	5	Mayo	2023-05-30T00:00:00	2024-11-08T16:00:00	1	Precipitación	0
174140	7	Sololá	712	San Antonio Palopó	9	San Antonio Palopo	5	Mayo	2023-05-30T00:00:00	2024-11-08T16:00:00	8	Radiación solar	104
174141	7	Sololá	712	San Antonio Palopó	9	San Antonio Palopo	5	Mayo	2023-05-30T00:00:00	2024-11-08T17:00:00	2	Temperatura media	19.1
174142	7	Sololá	712	San Antonio Palopó	9	San Antonio Palopo	5	Mayo	2023-05-30T00:00:00	2024-11-08T17:00:00	4	Temperatura máxima	19.4
174143	7	Sololá	712	San Antonio Palopó	9	San Antonio Palopo	5	Mayo	2023-05-30T00:00:00	2024-11-08T17:00:00	3	Temperatura mínima	19.1
174144	7	Sololá	712	San Antonio Palopó	9	San Antonio Palopo	5	Mayo	2023-05-30T00:00:00	2024-11-08T17:00:00	5	Humedad	88
174145	7	Sololá	712	San Antonio Palopó	9	San Antonio Palopo	5	Mayo	2023-05-30T00:00:00	2024-11-08T17:00:00	6	Velocidad del viento	1.6
174146	7	Sololá	712	San Antonio Palopó	9	San Antonio Palopo	5	Mayo	2023-05-30T00:00:00	2024-11-08T17:00:00	7	Dirección del viento	1.61
174147	7	Sololá	712	San Antonio Palopó	9	San Antonio Palopo	5	Mayo	2023-05-30T00:00:00	2024-11-08T17:00:00	1	Precipitación	0
174148	7	Sololá	712	San Antonio Palopó	9	San Antonio Palopo	5	Mayo	2023-05-30T00:00:00	2024-11-08T17:00:00	8	Radiación solar	38
174149	7	Sololá	712	San Antonio Palopó	9	San Antonio Palopo	5	Mayo	2023-05-30T00:00:00	2024-11-08T18:00:00	2	Temperatura media	18.6
174150	7	Sololá	712	San Antonio Palopó	9	San Antonio Palopo	5	Mayo	2023-05-30T00:00:00	2024-11-08T18:00:00	4	Temperatura máxima	19.2
174151	7	Sololá	712	San Antonio Palopó	9	San Antonio Palopo	5	Mayo	2023-05-30T00:00:00	2024-11-08T18:00:00	3	Temperatura mínima	18.6
174152	7	Sololá	712	San Antonio Palopó	9	San Antonio Palopo	5	Mayo	2023-05-30T00:00:00	2024-11-08T18:00:00	5	Humedad	88
174153	7	Sololá	712	San Antonio Palopó	9	San Antonio Palopo	5	Mayo	2023-05-30T00:00:00	2024-11-08T18:00:00	6	Velocidad del viento	1.6
174154	7	Sololá	712	San Antonio Palopó	9	San Antonio Palopo	5	Mayo	2023-05-30T00:00:00	2024-11-08T18:00:00	7	Dirección del viento	1.61
174155	7	Sololá	712	San Antonio Palopó	9	San Antonio Palopo	5	Mayo	2023-05-30T00:00:00	2024-11-08T18:00:00	1	Precipitación	1.4
174156	7	Sololá	712	San Antonio Palopó	9	San Antonio Palopo	5	Mayo	2023-05-30T00:00:00	2024-11-08T18:00:00	8	Radiación solar	10
174157	7	Sololá	712	San Antonio Palopó	9	San Antonio Palopo	5	Mayo	2023-05-30T00:00:00	2024-11-08T19:00:00	2	Temperatura media	18.6
174158	7	Sololá	712	San Antonio Palopó	9	San Antonio Palopo	5	Mayo	2023-05-30T00:00:00	2024-11-08T19:00:00	4	Temperatura máxima	18.7
174159	7	Sololá	712	San Antonio Palopó	9	San Antonio Palopo	5	Mayo	2023-05-30T00:00:00	2024-11-08T19:00:00	3	Temperatura mínima	18.3
174160	7	Sololá	712	San Antonio Palopó	9	San Antonio Palopo	5	Mayo	2023-05-30T00:00:00	2024-11-08T19:00:00	5	Humedad	81
174161	7	Sololá	712	San Antonio Palopó	9	San Antonio Palopo	5	Mayo	2023-05-30T00:00:00	2024-11-08T19:00:00	6	Velocidad del viento	1.6
174162	7	Sololá	712	San Antonio Palopó	9	San Antonio Palopo	5	Mayo	2023-05-30T00:00:00	2024-11-08T19:00:00	7	Dirección del viento	1.61
174163	7	Sololá	712	San Antonio Palopó	9	San Antonio Palopo	5	Mayo	2023-05-30T00:00:00	2024-11-08T19:00:00	1	Precipitación	0.2
174164	7	Sololá	712	San Antonio Palopó	9	San Antonio Palopo	5	Mayo	2023-05-30T00:00:00	2024-11-08T19:00:00	8	Radiación solar	0
174165	7	Sololá	712	San Antonio Palopó	9	San Antonio Palopo	5	Mayo	2023-05-30T00:00:00	2024-11-08T20:00:00	2	Temperatura media	19.6
174166	7	Sololá	712	San Antonio Palopó	9	San Antonio Palopo	5	Mayo	2023-05-30T00:00:00	2024-11-08T20:00:00	4	Temperatura máxima	19.7
174167	7	Sololá	712	San Antonio Palopó	9	San Antonio Palopo	5	Mayo	2023-05-30T00:00:00	2024-11-08T20:00:00	3	Temperatura mínima	18.1
174168	7	Sololá	712	San Antonio Palopó	9	San Antonio Palopo	5	Mayo	2023-05-30T00:00:00	2024-11-08T20:00:00	5	Humedad	76
174169	7	Sololá	712	San Antonio Palopó	9	San Antonio Palopo	5	Mayo	2023-05-30T00:00:00	2024-11-08T20:00:00	6	Velocidad del viento	3.2
174170	7	Sololá	712	San Antonio Palopó	9	San Antonio Palopo	5	Mayo	2023-05-30T00:00:00	2024-11-08T20:00:00	7	Dirección del viento	3.22
174171	7	Sololá	712	San Antonio Palopó	9	San Antonio Palopo	5	Mayo	2023-05-30T00:00:00	2024-11-08T20:00:00	1	Precipitación	0
174172	7	Sololá	712	San Antonio Palopó	9	San Antonio Palopo	5	Mayo	2023-05-30T00:00:00	2024-11-08T20:00:00	8	Radiación solar	0
174173	7	Sololá	712	San Antonio Palopó	9	San Antonio Palopo	5	Mayo	2023-05-30T00:00:00	2024-11-08T21:00:00	2	Temperatura media	18.3
174174	7	Sololá	712	San Antonio Palopó	9	San Antonio Palopo	5	Mayo	2023-05-30T00:00:00	2024-11-08T21:00:00	4	Temperatura máxima	19.9
174175	7	Sololá	712	San Antonio Palopó	9	San Antonio Palopo	5	Mayo	2023-05-30T00:00:00	2024-11-08T21:00:00	3	Temperatura mínima	18
174176	7	Sololá	712	San Antonio Palopó	9	San Antonio Palopo	5	Mayo	2023-05-30T00:00:00	2024-11-08T21:00:00	5	Humedad	81
174177	7	Sololá	712	San Antonio Palopó	9	San Antonio Palopo	5	Mayo	2023-05-30T00:00:00	2024-11-08T21:00:00	6	Velocidad del viento	4.8
174178	7	Sololá	712	San Antonio Palopó	9	San Antonio Palopo	5	Mayo	2023-05-30T00:00:00	2024-11-08T21:00:00	7	Dirección del viento	4.83
174179	7	Sololá	712	San Antonio Palopó	9	San Antonio Palopo	5	Mayo	2023-05-30T00:00:00	2024-11-08T21:00:00	1	Precipitación	0
174180	7	Sololá	712	San Antonio Palopó	9	San Antonio Palopo	5	Mayo	2023-05-30T00:00:00	2024-11-08T21:00:00	8	Radiación solar	0
174181	7	Sololá	712	San Antonio Palopó	9	San Antonio Palopo	5	Mayo	2023-05-30T00:00:00	2024-11-08T22:00:00	2	Temperatura media	18.3
174182	7	Sololá	712	San Antonio Palopó	9	San Antonio Palopo	5	Mayo	2023-05-30T00:00:00	2024-11-08T22:00:00	4	Temperatura máxima	19.1
174183	7	Sololá	712	San Antonio Palopó	9	San Antonio Palopo	5	Mayo	2023-05-30T00:00:00	2024-11-08T22:00:00	3	Temperatura mínima	18.3
174184	7	Sololá	712	San Antonio Palopó	9	San Antonio Palopo	5	Mayo	2023-05-30T00:00:00	2024-11-08T22:00:00	5	Humedad	83
174185	7	Sololá	712	San Antonio Palopó	9	San Antonio Palopo	5	Mayo	2023-05-30T00:00:00	2024-11-08T22:00:00	6	Velocidad del viento	3.2
174186	7	Sololá	712	San Antonio Palopó	9	San Antonio Palopo	5	Mayo	2023-05-30T00:00:00	2024-11-08T22:00:00	7	Dirección del viento	3.22
174187	7	Sololá	712	San Antonio Palopó	9	San Antonio Palopo	5	Mayo	2023-05-30T00:00:00	2024-11-08T22:00:00	1	Precipitación	0
174188	7	Sololá	712	San Antonio Palopó	9	San Antonio Palopo	5	Mayo	2023-05-30T00:00:00	2024-11-08T22:00:00	8	Radiación solar	0
174189	7	Sololá	712	San Antonio Palopó	9	San Antonio Palopo	5	Mayo	2023-05-30T00:00:00	2024-11-08T23:00:00	2	Temperatura media	18.1
174190	7	Sololá	712	San Antonio Palopó	9	San Antonio Palopo	5	Mayo	2023-05-30T00:00:00	2024-11-08T23:00:00	4	Temperatura máxima	18.4
174191	7	Sololá	712	San Antonio Palopó	9	San Antonio Palopo	5	Mayo	2023-05-30T00:00:00	2024-11-08T23:00:00	3	Temperatura mínima	18.1
174192	7	Sololá	712	San Antonio Palopó	9	San Antonio Palopo	5	Mayo	2023-05-30T00:00:00	2024-11-08T23:00:00	5	Humedad	83
174193	7	Sololá	712	San Antonio Palopó	9	San Antonio Palopo	5	Mayo	2023-05-30T00:00:00	2024-11-08T23:00:00	6	Velocidad del viento	4.8
174194	7	Sololá	712	San Antonio Palopó	9	San Antonio Palopo	5	Mayo	2023-05-30T00:00:00	2024-11-08T23:00:00	7	Dirección del viento	4.83
174195	7	Sololá	712	San Antonio Palopó	9	San Antonio Palopo	5	Mayo	2023-05-30T00:00:00	2024-11-08T23:00:00	1	Precipitación	0
174196	7	Sololá	712	San Antonio Palopó	9	San Antonio Palopo	5	Mayo	2023-05-30T00:00:00	2024-11-08T23:00:00	8	Radiación solar	0
174197	7	Sololá	712	San Antonio Palopó	9	San Antonio Palopo	5	Mayo	2023-05-31T00:00:00	2024-11-08T00:00:00	2	Temperatura media	18.3
174198	7	Sololá	712	San Antonio Palopó	9	San Antonio Palopo	5	Mayo	2023-05-31T00:00:00	2024-11-08T00:00:00	4	Temperatura máxima	18.9
174199	7	Sololá	712	San Antonio Palopó	9	San Antonio Palopo	5	Mayo	2023-05-31T00:00:00	2024-11-08T00:00:00	3	Temperatura mínima	18.1
174200	7	Sololá	712	San Antonio Palopó	9	San Antonio Palopo	5	Mayo	2023-05-31T00:00:00	2024-11-08T00:00:00	5	Humedad	81
174201	7	Sololá	712	San Antonio Palopó	9	San Antonio Palopo	5	Mayo	2023-05-31T00:00:00	2024-11-08T00:00:00	6	Velocidad del viento	3.2
174202	7	Sololá	712	San Antonio Palopó	9	San Antonio Palopo	5	Mayo	2023-05-31T00:00:00	2024-11-08T00:00:00	7	Dirección del viento	3.22
174203	7	Sololá	712	San Antonio Palopó	9	San Antonio Palopo	5	Mayo	2023-05-31T00:00:00	2024-11-08T00:00:00	1	Precipitación	0
174204	7	Sololá	712	San Antonio Palopó	9	San Antonio Palopo	5	Mayo	2023-05-31T00:00:00	2024-11-08T00:00:00	8	Radiación solar	0
174205	7	Sololá	712	San Antonio Palopó	9	San Antonio Palopo	5	Mayo	2023-05-31T00:00:00	2024-11-08T01:00:00	2	Temperatura media	18.8
174206	7	Sololá	712	San Antonio Palopó	9	San Antonio Palopo	5	Mayo	2023-05-31T00:00:00	2024-11-08T01:00:00	4	Temperatura máxima	18.8
174207	7	Sololá	712	San Antonio Palopó	9	San Antonio Palopo	5	Mayo	2023-05-31T00:00:00	2024-11-08T01:00:00	3	Temperatura mínima	18.2
174208	7	Sololá	712	San Antonio Palopó	9	San Antonio Palopo	5	Mayo	2023-05-31T00:00:00	2024-11-08T01:00:00	5	Humedad	78
174209	7	Sololá	712	San Antonio Palopó	9	San Antonio Palopo	5	Mayo	2023-05-31T00:00:00	2024-11-08T01:00:00	6	Velocidad del viento	3.2
174210	7	Sololá	712	San Antonio Palopó	9	San Antonio Palopo	5	Mayo	2023-05-31T00:00:00	2024-11-08T01:00:00	7	Dirección del viento	3.22
174211	7	Sololá	712	San Antonio Palopó	9	San Antonio Palopo	5	Mayo	2023-05-31T00:00:00	2024-11-08T01:00:00	1	Precipitación	0
174212	7	Sololá	712	San Antonio Palopó	9	San Antonio Palopo	5	Mayo	2023-05-31T00:00:00	2024-11-08T01:00:00	8	Radiación solar	0
174213	7	Sololá	712	San Antonio Palopó	9	San Antonio Palopo	5	Mayo	2023-05-31T00:00:00	2024-11-08T02:00:00	2	Temperatura media	18.2
174214	7	Sololá	712	San Antonio Palopó	9	San Antonio Palopo	5	Mayo	2023-05-31T00:00:00	2024-11-08T02:00:00	4	Temperatura máxima	18.9
174215	7	Sololá	712	San Antonio Palopó	9	San Antonio Palopo	5	Mayo	2023-05-31T00:00:00	2024-11-08T02:00:00	3	Temperatura mínima	18.2
174216	7	Sololá	712	San Antonio Palopó	9	San Antonio Palopo	5	Mayo	2023-05-31T00:00:00	2024-11-08T02:00:00	5	Humedad	81
174217	7	Sololá	712	San Antonio Palopó	9	San Antonio Palopo	5	Mayo	2023-05-31T00:00:00	2024-11-08T02:00:00	6	Velocidad del viento	3.2
174218	7	Sololá	712	San Antonio Palopó	9	San Antonio Palopo	5	Mayo	2023-05-31T00:00:00	2024-11-08T02:00:00	7	Dirección del viento	3.22
174219	7	Sololá	712	San Antonio Palopó	9	San Antonio Palopo	5	Mayo	2023-05-31T00:00:00	2024-11-08T02:00:00	1	Precipitación	0
174220	7	Sololá	712	San Antonio Palopó	9	San Antonio Palopo	5	Mayo	2023-05-31T00:00:00	2024-11-08T02:00:00	8	Radiación solar	0
174221	7	Sololá	712	San Antonio Palopó	9	San Antonio Palopo	5	Mayo	2023-05-31T00:00:00	2024-11-08T03:00:00	2	Temperatura media	18.4
174222	7	Sololá	712	San Antonio Palopó	9	San Antonio Palopo	5	Mayo	2023-05-31T00:00:00	2024-11-08T03:00:00	4	Temperatura máxima	18.5
174223	7	Sololá	712	San Antonio Palopó	9	San Antonio Palopo	5	Mayo	2023-05-31T00:00:00	2024-11-08T03:00:00	3	Temperatura mínima	17.9
174224	7	Sololá	712	San Antonio Palopó	9	San Antonio Palopo	5	Mayo	2023-05-31T00:00:00	2024-11-08T03:00:00	5	Humedad	80
174225	7	Sololá	712	San Antonio Palopó	9	San Antonio Palopo	5	Mayo	2023-05-31T00:00:00	2024-11-08T03:00:00	6	Velocidad del viento	3.2
174226	7	Sololá	712	San Antonio Palopó	9	San Antonio Palopo	5	Mayo	2023-05-31T00:00:00	2024-11-08T03:00:00	7	Dirección del viento	3.22
174227	7	Sololá	712	San Antonio Palopó	9	San Antonio Palopo	5	Mayo	2023-05-31T00:00:00	2024-11-08T03:00:00	1	Precipitación	0
174228	7	Sololá	712	San Antonio Palopó	9	San Antonio Palopo	5	Mayo	2023-05-31T00:00:00	2024-11-08T03:00:00	8	Radiación solar	0
174229	7	Sololá	712	San Antonio Palopó	9	San Antonio Palopo	5	Mayo	2023-05-31T00:00:00	2024-11-08T04:00:00	2	Temperatura media	18.1
174230	7	Sololá	712	San Antonio Palopó	9	San Antonio Palopo	5	Mayo	2023-05-31T00:00:00	2024-11-08T04:00:00	4	Temperatura máxima	18.6
174231	7	Sololá	712	San Antonio Palopó	9	San Antonio Palopo	5	Mayo	2023-05-31T00:00:00	2024-11-08T04:00:00	3	Temperatura mínima	17.9
174232	7	Sololá	712	San Antonio Palopó	9	San Antonio Palopo	5	Mayo	2023-05-31T00:00:00	2024-11-08T04:00:00	5	Humedad	80
174233	7	Sololá	712	San Antonio Palopó	9	San Antonio Palopo	5	Mayo	2023-05-31T00:00:00	2024-11-08T04:00:00	6	Velocidad del viento	3.2
174234	7	Sololá	712	San Antonio Palopó	9	San Antonio Palopo	5	Mayo	2023-05-31T00:00:00	2024-11-08T04:00:00	7	Dirección del viento	3.22
174235	7	Sololá	712	San Antonio Palopó	9	San Antonio Palopo	5	Mayo	2023-05-31T00:00:00	2024-11-08T04:00:00	1	Precipitación	0
174236	7	Sololá	712	San Antonio Palopó	9	San Antonio Palopo	5	Mayo	2023-05-31T00:00:00	2024-11-08T04:00:00	8	Radiación solar	0
174237	7	Sololá	712	San Antonio Palopó	9	San Antonio Palopo	5	Mayo	2023-05-31T00:00:00	2024-11-08T05:00:00	2	Temperatura media	18.1
174238	7	Sololá	712	San Antonio Palopó	9	San Antonio Palopo	5	Mayo	2023-05-31T00:00:00	2024-11-08T05:00:00	4	Temperatura máxima	18.6
174239	7	Sololá	712	San Antonio Palopó	9	San Antonio Palopo	5	Mayo	2023-05-31T00:00:00	2024-11-08T05:00:00	3	Temperatura mínima	17.9
174240	7	Sololá	712	San Antonio Palopó	9	San Antonio Palopo	5	Mayo	2023-05-31T00:00:00	2024-11-08T05:00:00	5	Humedad	78
174241	7	Sololá	712	San Antonio Palopó	9	San Antonio Palopo	5	Mayo	2023-05-31T00:00:00	2024-11-08T05:00:00	6	Velocidad del viento	3.2
174242	7	Sololá	712	San Antonio Palopó	9	San Antonio Palopo	5	Mayo	2023-05-31T00:00:00	2024-11-08T05:00:00	7	Dirección del viento	3.22
174243	7	Sololá	712	San Antonio Palopó	9	San Antonio Palopo	5	Mayo	2023-05-31T00:00:00	2024-11-08T05:00:00	1	Precipitación	0
174244	7	Sololá	712	San Antonio Palopó	9	San Antonio Palopo	5	Mayo	2023-05-31T00:00:00	2024-11-08T05:00:00	8	Radiación solar	0
174245	7	Sololá	712	San Antonio Palopó	9	San Antonio Palopo	5	Mayo	2023-05-31T00:00:00	2024-11-08T06:00:00	2	Temperatura media	18.4
174246	7	Sololá	712	San Antonio Palopó	9	San Antonio Palopo	5	Mayo	2023-05-31T00:00:00	2024-11-08T06:00:00	4	Temperatura máxima	18.7
174247	7	Sololá	712	San Antonio Palopó	9	San Antonio Palopo	5	Mayo	2023-05-31T00:00:00	2024-11-08T06:00:00	3	Temperatura mínima	17.9
174248	7	Sololá	712	San Antonio Palopó	9	San Antonio Palopo	5	Mayo	2023-05-31T00:00:00	2024-11-08T06:00:00	5	Humedad	79
174249	7	Sololá	712	San Antonio Palopó	9	San Antonio Palopo	5	Mayo	2023-05-31T00:00:00	2024-11-08T06:00:00	6	Velocidad del viento	4.8
174250	7	Sololá	712	San Antonio Palopó	9	San Antonio Palopo	5	Mayo	2023-05-31T00:00:00	2024-11-08T06:00:00	7	Dirección del viento	4.83
174251	7	Sololá	712	San Antonio Palopó	9	San Antonio Palopo	5	Mayo	2023-05-31T00:00:00	2024-11-08T06:00:00	1	Precipitación	0
174252	7	Sololá	712	San Antonio Palopó	9	San Antonio Palopo	5	Mayo	2023-05-31T00:00:00	2024-11-08T06:00:00	8	Radiación solar	5
174253	7	Sololá	712	San Antonio Palopó	9	San Antonio Palopo	5	Mayo	2023-05-31T00:00:00	2024-11-08T07:00:00	2	Temperatura media	18.2
174254	7	Sololá	712	San Antonio Palopó	9	San Antonio Palopo	5	Mayo	2023-05-31T00:00:00	2024-11-08T07:00:00	4	Temperatura máxima	19.1
174255	7	Sololá	712	San Antonio Palopó	9	San Antonio Palopo	5	Mayo	2023-05-31T00:00:00	2024-11-08T07:00:00	3	Temperatura mínima	18.1
174256	7	Sololá	712	San Antonio Palopó	9	San Antonio Palopo	5	Mayo	2023-05-31T00:00:00	2024-11-08T07:00:00	5	Humedad	81
174257	7	Sololá	712	San Antonio Palopó	9	San Antonio Palopo	5	Mayo	2023-05-31T00:00:00	2024-11-08T07:00:00	6	Velocidad del viento	3.2
174258	7	Sololá	712	San Antonio Palopó	9	San Antonio Palopo	5	Mayo	2023-05-31T00:00:00	2024-11-08T07:00:00	7	Dirección del viento	3.22
174259	7	Sololá	712	San Antonio Palopó	9	San Antonio Palopo	5	Mayo	2023-05-31T00:00:00	2024-11-08T07:00:00	1	Precipitación	0
174260	7	Sololá	712	San Antonio Palopó	9	San Antonio Palopo	5	Mayo	2023-05-31T00:00:00	2024-11-08T07:00:00	8	Radiación solar	53
174261	7	Sololá	712	San Antonio Palopó	9	San Antonio Palopo	5	Mayo	2023-05-31T00:00:00	2024-11-08T08:00:00	2	Temperatura media	20.1
174262	7	Sololá	712	San Antonio Palopó	9	San Antonio Palopo	5	Mayo	2023-05-31T00:00:00	2024-11-08T08:00:00	4	Temperatura máxima	20.1
174263	7	Sololá	712	San Antonio Palopó	9	San Antonio Palopo	5	Mayo	2023-05-31T00:00:00	2024-11-08T08:00:00	3	Temperatura mínima	18.1
174264	7	Sololá	712	San Antonio Palopó	9	San Antonio Palopo	5	Mayo	2023-05-31T00:00:00	2024-11-08T08:00:00	5	Humedad	77
174265	7	Sololá	712	San Antonio Palopó	9	San Antonio Palopo	5	Mayo	2023-05-31T00:00:00	2024-11-08T08:00:00	6	Velocidad del viento	1.6
174266	7	Sololá	712	San Antonio Palopó	9	San Antonio Palopo	5	Mayo	2023-05-31T00:00:00	2024-11-08T08:00:00	7	Dirección del viento	1.61
174267	7	Sololá	712	San Antonio Palopó	9	San Antonio Palopo	5	Mayo	2023-05-31T00:00:00	2024-11-08T08:00:00	1	Precipitación	0
174268	7	Sololá	712	San Antonio Palopó	9	San Antonio Palopo	5	Mayo	2023-05-31T00:00:00	2024-11-08T08:00:00	8	Radiación solar	229
174269	7	Sololá	712	San Antonio Palopó	9	San Antonio Palopo	5	Mayo	2023-05-31T00:00:00	2024-11-08T09:00:00	2	Temperatura media	20.9
174270	7	Sololá	712	San Antonio Palopó	9	San Antonio Palopo	5	Mayo	2023-05-31T00:00:00	2024-11-08T09:00:00	4	Temperatura máxima	21.2
174271	7	Sololá	712	San Antonio Palopó	9	San Antonio Palopo	5	Mayo	2023-05-31T00:00:00	2024-11-08T09:00:00	3	Temperatura mínima	20.1
174272	7	Sololá	712	San Antonio Palopó	9	San Antonio Palopo	5	Mayo	2023-05-31T00:00:00	2024-11-08T09:00:00	5	Humedad	76
174273	7	Sololá	712	San Antonio Palopó	9	San Antonio Palopo	5	Mayo	2023-05-31T00:00:00	2024-11-08T09:00:00	6	Velocidad del viento	1.6
174274	7	Sololá	712	San Antonio Palopó	9	San Antonio Palopo	5	Mayo	2023-05-31T00:00:00	2024-11-08T09:00:00	7	Dirección del viento	1.61
174275	7	Sololá	712	San Antonio Palopó	9	San Antonio Palopo	5	Mayo	2023-05-31T00:00:00	2024-11-08T09:00:00	1	Precipitación	0
174276	7	Sololá	712	San Antonio Palopó	9	San Antonio Palopo	5	Mayo	2023-05-31T00:00:00	2024-11-08T09:00:00	8	Radiación solar	467
174277	7	Sololá	712	San Antonio Palopó	9	San Antonio Palopo	5	Mayo	2023-05-31T00:00:00	2024-11-08T10:00:00	2	Temperatura media	21.2
174278	7	Sololá	712	San Antonio Palopó	9	San Antonio Palopo	5	Mayo	2023-05-31T00:00:00	2024-11-08T10:00:00	4	Temperatura máxima	21.4
174279	7	Sololá	712	San Antonio Palopó	9	San Antonio Palopo	5	Mayo	2023-05-31T00:00:00	2024-11-08T10:00:00	3	Temperatura mínima	20.6
174280	7	Sololá	712	San Antonio Palopó	9	San Antonio Palopo	5	Mayo	2023-05-31T00:00:00	2024-11-08T10:00:00	5	Humedad	76
174281	7	Sololá	712	San Antonio Palopó	9	San Antonio Palopo	5	Mayo	2023-05-31T00:00:00	2024-11-08T10:00:00	6	Velocidad del viento	3.2
174282	7	Sololá	712	San Antonio Palopó	9	San Antonio Palopo	5	Mayo	2023-05-31T00:00:00	2024-11-08T10:00:00	7	Dirección del viento	3.22
174283	7	Sololá	712	San Antonio Palopó	9	San Antonio Palopo	5	Mayo	2023-05-31T00:00:00	2024-11-08T10:00:00	1	Precipitación	0
174284	7	Sololá	712	San Antonio Palopó	9	San Antonio Palopo	5	Mayo	2023-05-31T00:00:00	2024-11-08T10:00:00	8	Radiación solar	510
174285	7	Sololá	712	San Antonio Palopó	9	San Antonio Palopo	5	Mayo	2023-05-31T00:00:00	2024-11-08T11:00:00	2	Temperatura media	22.1
174286	7	Sololá	712	San Antonio Palopó	9	San Antonio Palopo	5	Mayo	2023-05-31T00:00:00	2024-11-08T11:00:00	4	Temperatura máxima	22.1
174287	7	Sololá	712	San Antonio Palopó	9	San Antonio Palopo	5	Mayo	2023-05-31T00:00:00	2024-11-08T11:00:00	3	Temperatura mínima	21.2
174288	7	Sololá	712	San Antonio Palopó	9	San Antonio Palopo	5	Mayo	2023-05-31T00:00:00	2024-11-08T11:00:00	5	Humedad	75
174289	7	Sololá	712	San Antonio Palopó	9	San Antonio Palopo	5	Mayo	2023-05-31T00:00:00	2024-11-08T11:00:00	6	Velocidad del viento	4.8
174290	7	Sololá	712	San Antonio Palopó	9	San Antonio Palopo	5	Mayo	2023-05-31T00:00:00	2024-11-08T11:00:00	7	Dirección del viento	4.83
174291	7	Sololá	712	San Antonio Palopó	9	San Antonio Palopo	5	Mayo	2023-05-31T00:00:00	2024-11-08T11:00:00	1	Precipitación	0
174292	7	Sololá	712	San Antonio Palopó	9	San Antonio Palopo	5	Mayo	2023-05-31T00:00:00	2024-11-08T11:00:00	8	Radiación solar	479
174293	7	Sololá	712	San Antonio Palopó	9	San Antonio Palopo	5	Mayo	2023-05-31T00:00:00	2024-11-08T12:00:00	2	Temperatura media	21.8
174294	7	Sololá	712	San Antonio Palopó	9	San Antonio Palopo	5	Mayo	2023-05-31T00:00:00	2024-11-08T12:00:00	4	Temperatura máxima	22.5
174295	7	Sololá	712	San Antonio Palopó	9	San Antonio Palopo	5	Mayo	2023-05-31T00:00:00	2024-11-08T12:00:00	3	Temperatura mínima	21.7
174296	7	Sololá	712	San Antonio Palopó	9	San Antonio Palopo	5	Mayo	2023-05-31T00:00:00	2024-11-08T12:00:00	5	Humedad	77
174297	7	Sololá	712	San Antonio Palopó	9	San Antonio Palopo	5	Mayo	2023-05-31T00:00:00	2024-11-08T12:00:00	6	Velocidad del viento	6.4
174298	7	Sololá	712	San Antonio Palopó	9	San Antonio Palopo	5	Mayo	2023-05-31T00:00:00	2024-11-08T12:00:00	7	Dirección del viento	6.44
174299	7	Sololá	712	San Antonio Palopó	9	San Antonio Palopo	5	Mayo	2023-05-31T00:00:00	2024-11-08T12:00:00	1	Precipitación	0
174300	7	Sololá	712	San Antonio Palopó	9	San Antonio Palopo	5	Mayo	2023-05-31T00:00:00	2024-11-08T12:00:00	8	Radiación solar	467
174301	7	Sololá	712	San Antonio Palopó	9	San Antonio Palopo	5	Mayo	2023-05-31T00:00:00	2024-11-08T13:00:00	2	Temperatura media	22
174302	7	Sololá	712	San Antonio Palopó	9	San Antonio Palopo	5	Mayo	2023-05-31T00:00:00	2024-11-08T13:00:00	4	Temperatura máxima	22.4
174303	7	Sololá	712	San Antonio Palopó	9	San Antonio Palopo	5	Mayo	2023-05-31T00:00:00	2024-11-08T13:00:00	3	Temperatura mínima	21.8
174304	7	Sololá	712	San Antonio Palopó	9	San Antonio Palopo	5	Mayo	2023-05-31T00:00:00	2024-11-08T13:00:00	5	Humedad	76
174305	7	Sololá	712	San Antonio Palopó	9	San Antonio Palopo	5	Mayo	2023-05-31T00:00:00	2024-11-08T13:00:00	6	Velocidad del viento	6.4
174306	7	Sololá	712	San Antonio Palopó	9	San Antonio Palopo	5	Mayo	2023-05-31T00:00:00	2024-11-08T13:00:00	7	Dirección del viento	6.44
174307	7	Sololá	712	San Antonio Palopó	9	San Antonio Palopo	5	Mayo	2023-05-31T00:00:00	2024-11-08T13:00:00	1	Precipitación	0
174308	7	Sololá	712	San Antonio Palopó	9	San Antonio Palopo	5	Mayo	2023-05-31T00:00:00	2024-11-08T13:00:00	8	Radiación solar	453
174309	7	Sololá	712	San Antonio Palopó	9	San Antonio Palopo	5	Mayo	2023-05-31T00:00:00	2024-11-08T14:00:00	2	Temperatura media	23.7
174310	7	Sololá	712	San Antonio Palopó	9	San Antonio Palopo	5	Mayo	2023-05-31T00:00:00	2024-11-08T14:00:00	4	Temperatura máxima	23.7
174311	7	Sololá	712	San Antonio Palopó	9	San Antonio Palopo	5	Mayo	2023-05-31T00:00:00	2024-11-08T14:00:00	3	Temperatura mínima	22
174312	7	Sololá	712	San Antonio Palopó	9	San Antonio Palopo	5	Mayo	2023-05-31T00:00:00	2024-11-08T14:00:00	5	Humedad	72
174313	7	Sololá	712	San Antonio Palopó	9	San Antonio Palopo	5	Mayo	2023-05-31T00:00:00	2024-11-08T14:00:00	6	Velocidad del viento	6.4
174314	7	Sololá	712	San Antonio Palopó	9	San Antonio Palopo	5	Mayo	2023-05-31T00:00:00	2024-11-08T14:00:00	7	Dirección del viento	6.44
174315	7	Sololá	712	San Antonio Palopó	9	San Antonio Palopo	5	Mayo	2023-05-31T00:00:00	2024-11-08T14:00:00	1	Precipitación	0
174316	7	Sololá	712	San Antonio Palopó	9	San Antonio Palopo	5	Mayo	2023-05-31T00:00:00	2024-11-08T14:00:00	8	Radiación solar	792
174317	7	Sololá	712	San Antonio Palopó	9	San Antonio Palopo	5	Mayo	2023-05-31T00:00:00	2024-11-08T15:00:00	2	Temperatura media	22.2
174318	7	Sololá	712	San Antonio Palopó	9	San Antonio Palopo	5	Mayo	2023-05-31T00:00:00	2024-11-08T15:00:00	4	Temperatura máxima	23.7
174319	7	Sololá	712	San Antonio Palopó	9	San Antonio Palopo	5	Mayo	2023-05-31T00:00:00	2024-11-08T15:00:00	3	Temperatura mínima	22.2
174320	7	Sololá	712	San Antonio Palopó	9	San Antonio Palopo	5	Mayo	2023-05-31T00:00:00	2024-11-08T15:00:00	5	Humedad	77
174321	7	Sololá	712	San Antonio Palopó	9	San Antonio Palopo	5	Mayo	2023-05-31T00:00:00	2024-11-08T15:00:00	6	Velocidad del viento	8
174322	7	Sololá	712	San Antonio Palopó	9	San Antonio Palopo	5	Mayo	2023-05-31T00:00:00	2024-11-08T15:00:00	7	Dirección del viento	8.05
174323	7	Sololá	712	San Antonio Palopó	9	San Antonio Palopo	5	Mayo	2023-05-31T00:00:00	2024-11-08T15:00:00	1	Precipitación	0
174324	7	Sololá	712	San Antonio Palopó	9	San Antonio Palopo	5	Mayo	2023-05-31T00:00:00	2024-11-08T15:00:00	8	Radiación solar	643
174325	7	Sololá	712	San Antonio Palopó	9	San Antonio Palopo	5	Mayo	2023-05-31T00:00:00	2024-11-08T16:00:00	2	Temperatura media	21.3
174326	7	Sololá	712	San Antonio Palopó	9	San Antonio Palopo	5	Mayo	2023-05-31T00:00:00	2024-11-08T16:00:00	4	Temperatura máxima	22.2
174327	7	Sololá	712	San Antonio Palopó	9	San Antonio Palopo	5	Mayo	2023-05-31T00:00:00	2024-11-08T16:00:00	3	Temperatura mínima	21.1
174328	7	Sololá	712	San Antonio Palopó	9	San Antonio Palopo	5	Mayo	2023-05-31T00:00:00	2024-11-08T16:00:00	5	Humedad	81
174329	7	Sololá	712	San Antonio Palopó	9	San Antonio Palopo	5	Mayo	2023-05-31T00:00:00	2024-11-08T16:00:00	6	Velocidad del viento	6.4
174330	7	Sololá	712	San Antonio Palopó	9	San Antonio Palopo	5	Mayo	2023-05-31T00:00:00	2024-11-08T16:00:00	7	Dirección del viento	6.44
174331	7	Sololá	712	San Antonio Palopó	9	San Antonio Palopo	5	Mayo	2023-05-31T00:00:00	2024-11-08T16:00:00	1	Precipitación	0
174332	7	Sololá	712	San Antonio Palopó	9	San Antonio Palopo	5	Mayo	2023-05-31T00:00:00	2024-11-08T16:00:00	8	Radiación solar	103
174333	7	Sololá	712	San Antonio Palopó	9	San Antonio Palopo	5	Mayo	2023-05-31T00:00:00	2024-11-08T17:00:00	2	Temperatura media	20.7
174334	7	Sololá	712	San Antonio Palopó	9	San Antonio Palopo	5	Mayo	2023-05-31T00:00:00	2024-11-08T17:00:00	4	Temperatura máxima	21.3
174335	7	Sololá	712	San Antonio Palopó	9	San Antonio Palopo	5	Mayo	2023-05-31T00:00:00	2024-11-08T17:00:00	3	Temperatura mínima	20.7
174336	7	Sololá	712	San Antonio Palopó	9	San Antonio Palopo	5	Mayo	2023-05-31T00:00:00	2024-11-08T17:00:00	5	Humedad	83
174337	7	Sololá	712	San Antonio Palopó	9	San Antonio Palopo	5	Mayo	2023-05-31T00:00:00	2024-11-08T17:00:00	6	Velocidad del viento	4.8
174338	7	Sololá	712	San Antonio Palopó	9	San Antonio Palopo	5	Mayo	2023-05-31T00:00:00	2024-11-08T17:00:00	7	Dirección del viento	4.83
174339	7	Sololá	712	San Antonio Palopó	9	San Antonio Palopo	5	Mayo	2023-05-31T00:00:00	2024-11-08T17:00:00	1	Precipitación	0
174340	7	Sololá	712	San Antonio Palopó	9	San Antonio Palopo	5	Mayo	2023-05-31T00:00:00	2024-11-08T17:00:00	8	Radiación solar	13
174341	7	Sololá	712	San Antonio Palopó	9	San Antonio Palopo	5	Mayo	2023-05-31T00:00:00	2024-11-08T18:00:00	2	Temperatura media	20.1
174342	7	Sololá	712	San Antonio Palopó	9	San Antonio Palopo	5	Mayo	2023-05-31T00:00:00	2024-11-08T18:00:00	4	Temperatura máxima	20.7
174343	7	Sololá	712	San Antonio Palopó	9	San Antonio Palopo	5	Mayo	2023-05-31T00:00:00	2024-11-08T18:00:00	3	Temperatura mínima	20.1
174344	7	Sololá	712	San Antonio Palopó	9	San Antonio Palopo	5	Mayo	2023-05-31T00:00:00	2024-11-08T18:00:00	5	Humedad	87
174345	7	Sololá	712	San Antonio Palopó	9	San Antonio Palopo	5	Mayo	2023-05-31T00:00:00	2024-11-08T18:00:00	6	Velocidad del viento	3.2
174346	7	Sololá	712	San Antonio Palopó	9	San Antonio Palopo	5	Mayo	2023-05-31T00:00:00	2024-11-08T18:00:00	7	Dirección del viento	3.22
174347	7	Sololá	712	San Antonio Palopó	9	San Antonio Palopo	5	Mayo	2023-05-31T00:00:00	2024-11-08T18:00:00	1	Precipitación	0
174348	7	Sololá	712	San Antonio Palopó	9	San Antonio Palopo	5	Mayo	2023-05-31T00:00:00	2024-11-08T18:00:00	8	Radiación solar	10
174349	7	Sololá	712	San Antonio Palopó	9	San Antonio Palopo	5	Mayo	2023-05-31T00:00:00	2024-11-08T19:00:00	2	Temperatura media	19.7
174350	7	Sololá	712	San Antonio Palopó	9	San Antonio Palopo	5	Mayo	2023-05-31T00:00:00	2024-11-08T19:00:00	4	Temperatura máxima	20.1
174351	7	Sololá	712	San Antonio Palopó	9	San Antonio Palopo	5	Mayo	2023-05-31T00:00:00	2024-11-08T19:00:00	3	Temperatura mínima	19.6
174352	7	Sololá	712	San Antonio Palopó	9	San Antonio Palopo	5	Mayo	2023-05-31T00:00:00	2024-11-08T19:00:00	5	Humedad	86
174353	7	Sololá	712	San Antonio Palopó	9	San Antonio Palopo	5	Mayo	2023-05-31T00:00:00	2024-11-08T19:00:00	6	Velocidad del viento	1.6
174354	7	Sololá	712	San Antonio Palopó	9	San Antonio Palopo	5	Mayo	2023-05-31T00:00:00	2024-11-08T19:00:00	7	Dirección del viento	1.61
174355	7	Sololá	712	San Antonio Palopó	9	San Antonio Palopo	5	Mayo	2023-05-31T00:00:00	2024-11-08T19:00:00	1	Precipitación	2.6
174356	7	Sololá	712	San Antonio Palopó	9	San Antonio Palopo	5	Mayo	2023-05-31T00:00:00	2024-11-08T19:00:00	8	Radiación solar	0
174357	7	Sololá	712	San Antonio Palopó	9	San Antonio Palopo	5	Mayo	2023-05-31T00:00:00	2024-11-08T20:00:00	2	Temperatura media	19
174358	7	Sololá	712	San Antonio Palopó	9	San Antonio Palopo	5	Mayo	2023-05-31T00:00:00	2024-11-08T20:00:00	4	Temperatura máxima	19.7
174359	7	Sololá	712	San Antonio Palopó	9	San Antonio Palopo	5	Mayo	2023-05-31T00:00:00	2024-11-08T20:00:00	3	Temperatura mínima	18.7
174360	7	Sololá	712	San Antonio Palopó	9	San Antonio Palopo	5	Mayo	2023-05-31T00:00:00	2024-11-08T20:00:00	5	Humedad	87
174361	7	Sololá	712	San Antonio Palopó	9	San Antonio Palopo	5	Mayo	2023-05-31T00:00:00	2024-11-08T20:00:00	6	Velocidad del viento	3.2
174362	7	Sololá	712	San Antonio Palopó	9	San Antonio Palopo	5	Mayo	2023-05-31T00:00:00	2024-11-08T20:00:00	7	Dirección del viento	3.22
174363	7	Sololá	712	San Antonio Palopó	9	San Antonio Palopo	5	Mayo	2023-05-31T00:00:00	2024-11-08T20:00:00	1	Precipitación	0
174364	7	Sololá	712	San Antonio Palopó	9	San Antonio Palopo	5	Mayo	2023-05-31T00:00:00	2024-11-08T20:00:00	8	Radiación solar	0
174365	7	Sololá	712	San Antonio Palopó	9	San Antonio Palopo	5	Mayo	2023-05-31T00:00:00	2024-11-08T21:00:00	2	Temperatura media	18.7
174366	7	Sololá	712	San Antonio Palopó	9	San Antonio Palopo	5	Mayo	2023-05-31T00:00:00	2024-11-08T21:00:00	4	Temperatura máxima	19
174367	7	Sololá	712	San Antonio Palopó	9	San Antonio Palopo	5	Mayo	2023-05-31T00:00:00	2024-11-08T21:00:00	3	Temperatura mínima	18.6
174368	7	Sololá	712	San Antonio Palopó	9	San Antonio Palopo	5	Mayo	2023-05-31T00:00:00	2024-11-08T21:00:00	5	Humedad	87
174369	7	Sololá	712	San Antonio Palopó	9	San Antonio Palopo	5	Mayo	2023-05-31T00:00:00	2024-11-08T21:00:00	6	Velocidad del viento	3.2
174370	7	Sololá	712	San Antonio Palopó	9	San Antonio Palopo	5	Mayo	2023-05-31T00:00:00	2024-11-08T21:00:00	7	Dirección del viento	3.22
174371	7	Sololá	712	San Antonio Palopó	9	San Antonio Palopo	5	Mayo	2023-05-31T00:00:00	2024-11-08T21:00:00	1	Precipitación	0
174372	7	Sololá	712	San Antonio Palopó	9	San Antonio Palopo	5	Mayo	2023-05-31T00:00:00	2024-11-08T21:00:00	8	Radiación solar	0
174373	7	Sololá	712	San Antonio Palopó	9	San Antonio Palopo	5	Mayo	2023-05-31T00:00:00	2024-11-08T22:00:00	2	Temperatura media	19
174374	7	Sololá	712	San Antonio Palopó	9	San Antonio Palopo	5	Mayo	2023-05-31T00:00:00	2024-11-08T22:00:00	4	Temperatura máxima	19
174375	7	Sololá	712	San Antonio Palopó	9	San Antonio Palopo	5	Mayo	2023-05-31T00:00:00	2024-11-08T22:00:00	3	Temperatura mínima	18.6
174376	7	Sololá	712	San Antonio Palopó	9	San Antonio Palopo	5	Mayo	2023-05-31T00:00:00	2024-11-08T22:00:00	5	Humedad	87
174377	7	Sololá	712	San Antonio Palopó	9	San Antonio Palopo	5	Mayo	2023-05-31T00:00:00	2024-11-08T22:00:00	6	Velocidad del viento	3.2
174378	7	Sololá	712	San Antonio Palopó	9	San Antonio Palopo	5	Mayo	2023-05-31T00:00:00	2024-11-08T22:00:00	7	Dirección del viento	3.22
174379	7	Sololá	712	San Antonio Palopó	9	San Antonio Palopo	5	Mayo	2023-05-31T00:00:00	2024-11-08T22:00:00	1	Precipitación	0
174380	7	Sololá	712	San Antonio Palopó	9	San Antonio Palopo	5	Mayo	2023-05-31T00:00:00	2024-11-08T22:00:00	8	Radiación solar	0
174381	7	Sololá	712	San Antonio Palopó	9	San Antonio Palopo	5	Mayo	2023-05-31T00:00:00	2024-11-08T23:00:00	2	Temperatura media	19
174382	7	Sololá	712	San Antonio Palopó	9	San Antonio Palopo	5	Mayo	2023-05-31T00:00:00	2024-11-08T23:00:00	4	Temperatura máxima	19.1
174383	7	Sololá	712	San Antonio Palopó	9	San Antonio Palopo	5	Mayo	2023-05-31T00:00:00	2024-11-08T23:00:00	3	Temperatura mínima	18.9
174384	7	Sololá	712	San Antonio Palopó	9	San Antonio Palopo	5	Mayo	2023-05-31T00:00:00	2024-11-08T23:00:00	5	Humedad	89
174385	7	Sololá	712	San Antonio Palopó	9	San Antonio Palopo	5	Mayo	2023-05-31T00:00:00	2024-11-08T23:00:00	6	Velocidad del viento	3.2
174386	7	Sololá	712	San Antonio Palopó	9	San Antonio Palopo	5	Mayo	2023-05-31T00:00:00	2024-11-08T23:00:00	7	Dirección del viento	3.22
174387	7	Sololá	712	San Antonio Palopó	9	San Antonio Palopo	5	Mayo	2023-05-31T00:00:00	2024-11-08T23:00:00	1	Precipitación	0
174388	7	Sololá	712	San Antonio Palopó	9	San Antonio Palopo	5	Mayo	2023-05-31T00:00:00	2024-11-08T23:00:00	8	Radiación solar	0
174389	7	Sololá	712	San Antonio Palopó	9	San Antonio Palopo	6	Junio	2023-01-06T00:00:00	2024-11-08T00:00:00	2	Temperatura media	19.1
174390	7	Sololá	712	San Antonio Palopó	9	San Antonio Palopo	6	Junio	2023-01-06T00:00:00	2024-11-08T00:00:00	4	Temperatura máxima	19.3
174391	7	Sololá	712	San Antonio Palopó	9	San Antonio Palopo	6	Junio	2023-01-06T00:00:00	2024-11-08T00:00:00	3	Temperatura mínima	18.9
174392	7	Sololá	712	San Antonio Palopó	9	San Antonio Palopo	6	Junio	2023-01-06T00:00:00	2024-11-08T00:00:00	5	Humedad	88
174393	7	Sololá	712	San Antonio Palopó	9	San Antonio Palopo	6	Junio	2023-01-06T00:00:00	2024-11-08T00:00:00	6	Velocidad del viento	3.2
174394	7	Sololá	712	San Antonio Palopó	9	San Antonio Palopo	6	Junio	2023-01-06T00:00:00	2024-11-08T00:00:00	7	Dirección del viento	3.22
174395	7	Sololá	712	San Antonio Palopó	9	San Antonio Palopo	6	Junio	2023-01-06T00:00:00	2024-11-08T00:00:00	1	Precipitación	0
174396	7	Sololá	712	San Antonio Palopó	9	San Antonio Palopo	6	Junio	2023-01-06T00:00:00	2024-11-08T00:00:00	8	Radiación solar	0
174397	7	Sololá	712	San Antonio Palopó	9	San Antonio Palopo	6	Junio	2023-01-06T00:00:00	2024-11-08T01:00:00	2	Temperatura media	18.4
174398	7	Sololá	712	San Antonio Palopó	9	San Antonio Palopo	6	Junio	2023-01-06T00:00:00	2024-11-08T01:00:00	4	Temperatura máxima	19.2
174399	7	Sololá	712	San Antonio Palopó	9	San Antonio Palopo	6	Junio	2023-01-06T00:00:00	2024-11-08T01:00:00	3	Temperatura mínima	18.4
174400	7	Sololá	712	San Antonio Palopó	9	San Antonio Palopo	6	Junio	2023-01-06T00:00:00	2024-11-08T01:00:00	5	Humedad	89
174401	7	Sololá	712	San Antonio Palopó	9	San Antonio Palopo	6	Junio	2023-01-06T00:00:00	2024-11-08T01:00:00	6	Velocidad del viento	3.2
174402	7	Sololá	712	San Antonio Palopó	9	San Antonio Palopo	6	Junio	2023-01-06T00:00:00	2024-11-08T01:00:00	7	Dirección del viento	3.22
174403	7	Sololá	712	San Antonio Palopó	9	San Antonio Palopo	6	Junio	2023-01-06T00:00:00	2024-11-08T01:00:00	1	Precipitación	1
174404	7	Sololá	712	San Antonio Palopó	9	San Antonio Palopo	6	Junio	2023-01-06T00:00:00	2024-11-08T01:00:00	8	Radiación solar	0
174405	7	Sololá	712	San Antonio Palopó	9	San Antonio Palopo	6	Junio	2023-01-06T00:00:00	2024-11-08T02:00:00	2	Temperatura media	18
174406	7	Sololá	712	San Antonio Palopó	9	San Antonio Palopo	6	Junio	2023-01-06T00:00:00	2024-11-08T02:00:00	4	Temperatura máxima	18.6
174407	7	Sololá	712	San Antonio Palopó	9	San Antonio Palopo	6	Junio	2023-01-06T00:00:00	2024-11-08T02:00:00	3	Temperatura mínima	18
174408	7	Sololá	712	San Antonio Palopó	9	San Antonio Palopo	6	Junio	2023-01-06T00:00:00	2024-11-08T02:00:00	5	Humedad	89
174409	7	Sololá	712	San Antonio Palopó	9	San Antonio Palopo	6	Junio	2023-01-06T00:00:00	2024-11-08T02:00:00	6	Velocidad del viento	3.2
174410	7	Sololá	712	San Antonio Palopó	9	San Antonio Palopo	6	Junio	2023-01-06T00:00:00	2024-11-08T02:00:00	7	Dirección del viento	3.22
174411	7	Sololá	712	San Antonio Palopó	9	San Antonio Palopo	6	Junio	2023-01-06T00:00:00	2024-11-08T02:00:00	1	Precipitación	0
174412	7	Sololá	712	San Antonio Palopó	9	San Antonio Palopo	6	Junio	2023-01-06T00:00:00	2024-11-08T02:00:00	8	Radiación solar	0
174413	7	Sololá	712	San Antonio Palopó	9	San Antonio Palopo	6	Junio	2023-01-06T00:00:00	2024-11-08T03:00:00	2	Temperatura media	18.1
174414	7	Sololá	712	San Antonio Palopó	9	San Antonio Palopo	6	Junio	2023-01-06T00:00:00	2024-11-08T03:00:00	4	Temperatura máxima	18.2
174415	7	Sololá	712	San Antonio Palopó	9	San Antonio Palopo	6	Junio	2023-01-06T00:00:00	2024-11-08T03:00:00	3	Temperatura mínima	17.8
174416	7	Sololá	712	San Antonio Palopó	9	San Antonio Palopo	6	Junio	2023-01-06T00:00:00	2024-11-08T03:00:00	5	Humedad	89
174417	7	Sololá	712	San Antonio Palopó	9	San Antonio Palopo	6	Junio	2023-01-06T00:00:00	2024-11-08T03:00:00	6	Velocidad del viento	3.2
174418	7	Sololá	712	San Antonio Palopó	9	San Antonio Palopo	6	Junio	2023-01-06T00:00:00	2024-11-08T03:00:00	7	Dirección del viento	3.22
174419	7	Sololá	712	San Antonio Palopó	9	San Antonio Palopo	6	Junio	2023-01-06T00:00:00	2024-11-08T03:00:00	1	Precipitación	0
174420	7	Sololá	712	San Antonio Palopó	9	San Antonio Palopo	6	Junio	2023-01-06T00:00:00	2024-11-08T03:00:00	8	Radiación solar	0
174421	7	Sololá	712	San Antonio Palopó	9	San Antonio Palopo	6	Junio	2023-01-06T00:00:00	2024-11-08T04:00:00	2	Temperatura media	18.2
174422	7	Sololá	712	San Antonio Palopó	9	San Antonio Palopo	6	Junio	2023-01-06T00:00:00	2024-11-08T04:00:00	4	Temperatura máxima	18.4
174423	7	Sololá	712	San Antonio Palopó	9	San Antonio Palopo	6	Junio	2023-01-06T00:00:00	2024-11-08T04:00:00	3	Temperatura mínima	17.9
174424	7	Sololá	712	San Antonio Palopó	9	San Antonio Palopo	6	Junio	2023-01-06T00:00:00	2024-11-08T04:00:00	5	Humedad	89
174425	7	Sololá	712	San Antonio Palopó	9	San Antonio Palopo	6	Junio	2023-01-06T00:00:00	2024-11-08T04:00:00	6	Velocidad del viento	3.2
174426	7	Sololá	712	San Antonio Palopó	9	San Antonio Palopo	6	Junio	2023-01-06T00:00:00	2024-11-08T04:00:00	7	Dirección del viento	3.22
174427	7	Sololá	712	San Antonio Palopó	9	San Antonio Palopo	6	Junio	2023-01-06T00:00:00	2024-11-08T04:00:00	1	Precipitación	0
174428	7	Sololá	712	San Antonio Palopó	9	San Antonio Palopo	6	Junio	2023-01-06T00:00:00	2024-11-08T04:00:00	8	Radiación solar	0
174429	7	Sololá	712	San Antonio Palopó	9	San Antonio Palopo	6	Junio	2023-01-06T00:00:00	2024-11-08T05:00:00	2	Temperatura media	17.7
174430	7	Sololá	712	San Antonio Palopó	9	San Antonio Palopo	6	Junio	2023-01-06T00:00:00	2024-11-08T05:00:00	4	Temperatura máxima	18.6
174431	7	Sololá	712	San Antonio Palopó	9	San Antonio Palopo	6	Junio	2023-01-06T00:00:00	2024-11-08T05:00:00	3	Temperatura mínima	17.7
174432	7	Sololá	712	San Antonio Palopó	9	San Antonio Palopo	6	Junio	2023-01-06T00:00:00	2024-11-08T05:00:00	5	Humedad	89
174433	7	Sololá	712	San Antonio Palopó	9	San Antonio Palopo	6	Junio	2023-01-06T00:00:00	2024-11-08T05:00:00	6	Velocidad del viento	3.2
174434	7	Sololá	712	San Antonio Palopó	9	San Antonio Palopo	6	Junio	2023-01-06T00:00:00	2024-11-08T05:00:00	7	Dirección del viento	3.22
174435	7	Sololá	712	San Antonio Palopó	9	San Antonio Palopo	6	Junio	2023-01-06T00:00:00	2024-11-08T05:00:00	1	Precipitación	0
174436	7	Sololá	712	San Antonio Palopó	9	San Antonio Palopo	6	Junio	2023-01-06T00:00:00	2024-11-08T05:00:00	8	Radiación solar	0
174437	7	Sololá	712	San Antonio Palopó	9	San Antonio Palopo	6	Junio	2023-01-06T00:00:00	2024-11-08T06:00:00	2	Temperatura media	18.1
174438	7	Sololá	712	San Antonio Palopó	9	San Antonio Palopo	6	Junio	2023-01-06T00:00:00	2024-11-08T06:00:00	4	Temperatura máxima	18.2
174439	7	Sololá	712	San Antonio Palopó	9	San Antonio Palopo	6	Junio	2023-01-06T00:00:00	2024-11-08T06:00:00	3	Temperatura mínima	17.6
174440	7	Sololá	712	San Antonio Palopó	9	San Antonio Palopo	6	Junio	2023-01-06T00:00:00	2024-11-08T06:00:00	5	Humedad	84
174441	7	Sololá	712	San Antonio Palopó	9	San Antonio Palopo	6	Junio	2023-01-06T00:00:00	2024-11-08T06:00:00	6	Velocidad del viento	3.2
174442	7	Sololá	712	San Antonio Palopó	9	San Antonio Palopo	6	Junio	2023-01-06T00:00:00	2024-11-08T06:00:00	7	Dirección del viento	3.22
174443	7	Sololá	712	San Antonio Palopó	9	San Antonio Palopo	6	Junio	2023-01-06T00:00:00	2024-11-08T06:00:00	1	Precipitación	0
174444	7	Sololá	712	San Antonio Palopó	9	San Antonio Palopo	6	Junio	2023-01-06T00:00:00	2024-11-08T06:00:00	8	Radiación solar	6
174445	7	Sololá	712	San Antonio Palopó	9	San Antonio Palopo	6	Junio	2023-01-06T00:00:00	2024-11-08T07:00:00	2	Temperatura media	19.1
174446	7	Sololá	712	San Antonio Palopó	9	San Antonio Palopo	6	Junio	2023-01-06T00:00:00	2024-11-08T07:00:00	4	Temperatura máxima	19.1
174447	7	Sololá	712	San Antonio Palopó	9	San Antonio Palopo	6	Junio	2023-01-06T00:00:00	2024-11-08T07:00:00	3	Temperatura mínima	18
174448	7	Sololá	712	San Antonio Palopó	9	San Antonio Palopo	6	Junio	2023-01-06T00:00:00	2024-11-08T07:00:00	5	Humedad	81
174449	7	Sololá	712	San Antonio Palopó	9	San Antonio Palopo	6	Junio	2023-01-06T00:00:00	2024-11-08T07:00:00	6	Velocidad del viento	4.8
174450	7	Sololá	712	San Antonio Palopó	9	San Antonio Palopo	6	Junio	2023-01-06T00:00:00	2024-11-08T07:00:00	7	Dirección del viento	4.83
174451	7	Sololá	712	San Antonio Palopó	9	San Antonio Palopo	6	Junio	2023-01-06T00:00:00	2024-11-08T07:00:00	1	Precipitación	0
174452	7	Sololá	712	San Antonio Palopó	9	San Antonio Palopo	6	Junio	2023-01-06T00:00:00	2024-11-08T07:00:00	8	Radiación solar	58
174453	7	Sololá	712	San Antonio Palopó	9	San Antonio Palopo	6	Junio	2023-01-06T00:00:00	2024-11-08T08:00:00	2	Temperatura media	20.3
174454	7	Sololá	712	San Antonio Palopó	9	San Antonio Palopo	6	Junio	2023-01-06T00:00:00	2024-11-08T08:00:00	4	Temperatura máxima	20.3
174455	7	Sololá	712	San Antonio Palopó	9	San Antonio Palopo	6	Junio	2023-01-06T00:00:00	2024-11-08T08:00:00	3	Temperatura mínima	18.8
174456	7	Sololá	712	San Antonio Palopó	9	San Antonio Palopo	6	Junio	2023-01-06T00:00:00	2024-11-08T08:00:00	5	Humedad	81
174457	7	Sololá	712	San Antonio Palopó	9	San Antonio Palopo	6	Junio	2023-01-06T00:00:00	2024-11-08T08:00:00	6	Velocidad del viento	1.6
174458	7	Sololá	712	San Antonio Palopó	9	San Antonio Palopo	6	Junio	2023-01-06T00:00:00	2024-11-08T08:00:00	7	Dirección del viento	1.61
174459	7	Sololá	712	San Antonio Palopó	9	San Antonio Palopo	6	Junio	2023-01-06T00:00:00	2024-11-08T08:00:00	1	Precipitación	0
174460	7	Sololá	712	San Antonio Palopó	9	San Antonio Palopo	6	Junio	2023-01-06T00:00:00	2024-11-08T08:00:00	8	Radiación solar	215
174461	7	Sololá	712	San Antonio Palopó	9	San Antonio Palopo	6	Junio	2023-01-06T00:00:00	2024-11-08T09:00:00	2	Temperatura media	20.7
174462	7	Sololá	712	San Antonio Palopó	9	San Antonio Palopo	6	Junio	2023-01-06T00:00:00	2024-11-08T09:00:00	4	Temperatura máxima	20.8
174463	7	Sololá	712	San Antonio Palopó	9	San Antonio Palopo	6	Junio	2023-01-06T00:00:00	2024-11-08T09:00:00	3	Temperatura mínima	20.3
174464	7	Sololá	712	San Antonio Palopó	9	San Antonio Palopo	6	Junio	2023-01-06T00:00:00	2024-11-08T09:00:00	5	Humedad	80
174465	7	Sololá	712	San Antonio Palopó	9	San Antonio Palopo	6	Junio	2023-01-06T00:00:00	2024-11-08T09:00:00	6	Velocidad del viento	1.6
174466	7	Sololá	712	San Antonio Palopó	9	San Antonio Palopo	6	Junio	2023-01-06T00:00:00	2024-11-08T09:00:00	7	Dirección del viento	1.61
174467	7	Sololá	712	San Antonio Palopó	9	San Antonio Palopo	6	Junio	2023-01-06T00:00:00	2024-11-08T09:00:00	1	Precipitación	0
174468	7	Sololá	712	San Antonio Palopó	9	San Antonio Palopo	6	Junio	2023-01-06T00:00:00	2024-11-08T09:00:00	8	Radiación solar	480
174469	7	Sololá	712	San Antonio Palopó	9	San Antonio Palopo	6	Junio	2023-01-06T00:00:00	2024-11-08T10:00:00	2	Temperatura media	21.4
174470	7	Sololá	712	San Antonio Palopó	9	San Antonio Palopo	6	Junio	2023-01-06T00:00:00	2024-11-08T10:00:00	4	Temperatura máxima	21.4
174471	7	Sololá	712	San Antonio Palopó	9	San Antonio Palopo	6	Junio	2023-01-06T00:00:00	2024-11-08T10:00:00	3	Temperatura mínima	20.7
174472	7	Sololá	712	San Antonio Palopó	9	San Antonio Palopo	6	Junio	2023-01-06T00:00:00	2024-11-08T10:00:00	5	Humedad	79
174473	7	Sololá	712	San Antonio Palopó	9	San Antonio Palopo	6	Junio	2023-01-06T00:00:00	2024-11-08T10:00:00	6	Velocidad del viento	3.2
174474	7	Sololá	712	San Antonio Palopó	9	San Antonio Palopo	6	Junio	2023-01-06T00:00:00	2024-11-08T10:00:00	7	Dirección del viento	3.22
174475	7	Sololá	712	San Antonio Palopó	9	San Antonio Palopo	6	Junio	2023-01-06T00:00:00	2024-11-08T10:00:00	1	Precipitación	0
174476	7	Sololá	712	San Antonio Palopó	9	San Antonio Palopo	6	Junio	2023-01-06T00:00:00	2024-11-08T10:00:00	8	Radiación solar	694
174477	7	Sololá	712	San Antonio Palopó	9	San Antonio Palopo	6	Junio	2023-01-06T00:00:00	2024-11-08T11:00:00	2	Temperatura media	22.5
174478	7	Sololá	712	San Antonio Palopó	9	San Antonio Palopo	6	Junio	2023-01-06T00:00:00	2024-11-08T11:00:00	4	Temperatura máxima	22.7
174479	7	Sololá	712	San Antonio Palopó	9	San Antonio Palopo	6	Junio	2023-01-06T00:00:00	2024-11-08T11:00:00	3	Temperatura mínima	21.4
174480	7	Sololá	712	San Antonio Palopó	9	San Antonio Palopo	6	Junio	2023-01-06T00:00:00	2024-11-08T11:00:00	5	Humedad	78
174481	7	Sololá	712	San Antonio Palopó	9	San Antonio Palopo	6	Junio	2023-01-06T00:00:00	2024-11-08T11:00:00	6	Velocidad del viento	3.2
174482	7	Sololá	712	San Antonio Palopó	9	San Antonio Palopo	6	Junio	2023-01-06T00:00:00	2024-11-08T11:00:00	7	Dirección del viento	3.22
174483	7	Sololá	712	San Antonio Palopó	9	San Antonio Palopo	6	Junio	2023-01-06T00:00:00	2024-11-08T11:00:00	1	Precipitación	0
174484	7	Sololá	712	San Antonio Palopó	9	San Antonio Palopo	6	Junio	2023-01-06T00:00:00	2024-11-08T11:00:00	8	Radiación solar	848
174485	7	Sololá	712	San Antonio Palopó	9	San Antonio Palopo	6	Junio	2023-01-06T00:00:00	2024-11-08T12:00:00	2	Temperatura media	24.1
174486	7	Sololá	712	San Antonio Palopó	9	San Antonio Palopo	6	Junio	2023-01-06T00:00:00	2024-11-08T12:00:00	4	Temperatura máxima	24.1
174487	7	Sololá	712	San Antonio Palopó	9	San Antonio Palopo	6	Junio	2023-01-06T00:00:00	2024-11-08T12:00:00	3	Temperatura mínima	22.5
174488	7	Sololá	712	San Antonio Palopó	9	San Antonio Palopo	6	Junio	2023-01-06T00:00:00	2024-11-08T12:00:00	5	Humedad	71
174489	7	Sololá	712	San Antonio Palopó	9	San Antonio Palopo	6	Junio	2023-01-06T00:00:00	2024-11-08T12:00:00	6	Velocidad del viento	4.8
174490	7	Sololá	712	San Antonio Palopó	9	San Antonio Palopo	6	Junio	2023-01-06T00:00:00	2024-11-08T12:00:00	7	Dirección del viento	4.83
174491	7	Sololá	712	San Antonio Palopó	9	San Antonio Palopo	6	Junio	2023-01-06T00:00:00	2024-11-08T12:00:00	1	Precipitación	0
174492	7	Sololá	712	San Antonio Palopó	9	San Antonio Palopo	6	Junio	2023-01-06T00:00:00	2024-11-08T12:00:00	8	Radiación solar	926
174493	7	Sololá	712	San Antonio Palopó	9	San Antonio Palopo	6	Junio	2023-01-06T00:00:00	2024-11-08T13:00:00	2	Temperatura media	23.8
174494	7	Sololá	712	San Antonio Palopó	9	San Antonio Palopo	6	Junio	2023-01-06T00:00:00	2024-11-08T13:00:00	4	Temperatura máxima	24.5
174495	7	Sololá	712	San Antonio Palopó	9	San Antonio Palopo	6	Junio	2023-01-06T00:00:00	2024-11-08T13:00:00	3	Temperatura mínima	23.2
174496	7	Sololá	712	San Antonio Palopó	9	San Antonio Palopo	6	Junio	2023-01-06T00:00:00	2024-11-08T13:00:00	5	Humedad	71
174497	7	Sololá	712	San Antonio Palopó	9	San Antonio Palopo	6	Junio	2023-01-06T00:00:00	2024-11-08T13:00:00	6	Velocidad del viento	8
174498	7	Sololá	712	San Antonio Palopó	9	San Antonio Palopo	6	Junio	2023-01-06T00:00:00	2024-11-08T13:00:00	7	Dirección del viento	8.05
174499	7	Sololá	712	San Antonio Palopó	9	San Antonio Palopo	6	Junio	2023-01-06T00:00:00	2024-11-08T13:00:00	1	Precipitación	0
174500	7	Sololá	712	San Antonio Palopó	9	San Antonio Palopo	6	Junio	2023-01-06T00:00:00	2024-11-08T13:00:00	8	Radiación solar	739
174501	7	Sololá	712	San Antonio Palopó	9	San Antonio Palopo	6	Junio	2023-01-06T00:00:00	2024-11-08T14:00:00	2	Temperatura media	24.2
174502	7	Sololá	712	San Antonio Palopó	9	San Antonio Palopo	6	Junio	2023-01-06T00:00:00	2024-11-08T14:00:00	4	Temperatura máxima	24.7
174503	7	Sololá	712	San Antonio Palopó	9	San Antonio Palopo	6	Junio	2023-01-06T00:00:00	2024-11-08T14:00:00	3	Temperatura mínima	23.8
174504	7	Sololá	712	San Antonio Palopó	9	San Antonio Palopo	6	Junio	2023-01-06T00:00:00	2024-11-08T14:00:00	5	Humedad	74
174505	7	Sololá	712	San Antonio Palopó	9	San Antonio Palopo	6	Junio	2023-01-06T00:00:00	2024-11-08T14:00:00	6	Velocidad del viento	6.4
174506	7	Sololá	712	San Antonio Palopó	9	San Antonio Palopo	6	Junio	2023-01-06T00:00:00	2024-11-08T14:00:00	7	Dirección del viento	6.44
174507	7	Sololá	712	San Antonio Palopó	9	San Antonio Palopo	6	Junio	2023-01-06T00:00:00	2024-11-08T14:00:00	1	Precipitación	0
174508	7	Sololá	712	San Antonio Palopó	9	San Antonio Palopo	6	Junio	2023-01-06T00:00:00	2024-11-08T14:00:00	8	Radiación solar	807
174509	7	Sololá	712	San Antonio Palopó	9	San Antonio Palopo	6	Junio	2023-01-06T00:00:00	2024-11-08T15:00:00	2	Temperatura media	24
174510	7	Sololá	712	San Antonio Palopó	9	San Antonio Palopo	6	Junio	2023-01-06T00:00:00	2024-11-08T15:00:00	4	Temperatura máxima	24.5
174511	7	Sololá	712	San Antonio Palopó	9	San Antonio Palopo	6	Junio	2023-01-06T00:00:00	2024-11-08T15:00:00	3	Temperatura mínima	23.8
174512	7	Sololá	712	San Antonio Palopó	9	San Antonio Palopo	6	Junio	2023-01-06T00:00:00	2024-11-08T15:00:00	5	Humedad	75
174513	7	Sololá	712	San Antonio Palopó	9	San Antonio Palopo	6	Junio	2023-01-06T00:00:00	2024-11-08T15:00:00	6	Velocidad del viento	6.4
174514	7	Sololá	712	San Antonio Palopó	9	San Antonio Palopo	6	Junio	2023-01-06T00:00:00	2024-11-08T15:00:00	7	Dirección del viento	6.44
174515	7	Sololá	712	San Antonio Palopó	9	San Antonio Palopo	6	Junio	2023-01-06T00:00:00	2024-11-08T15:00:00	1	Precipitación	0
174516	7	Sololá	712	San Antonio Palopó	9	San Antonio Palopo	6	Junio	2023-01-06T00:00:00	2024-11-08T15:00:00	8	Radiación solar	745
174517	7	Sololá	712	San Antonio Palopó	9	San Antonio Palopo	6	Junio	2023-01-06T00:00:00	2024-11-08T16:00:00	2	Temperatura media	23.9
174518	7	Sololá	712	San Antonio Palopó	9	San Antonio Palopo	6	Junio	2023-01-06T00:00:00	2024-11-08T16:00:00	4	Temperatura máxima	24.7
174519	7	Sololá	712	San Antonio Palopó	9	San Antonio Palopo	6	Junio	2023-01-06T00:00:00	2024-11-08T16:00:00	3	Temperatura mínima	23.7
174520	7	Sololá	712	San Antonio Palopó	9	San Antonio Palopo	6	Junio	2023-01-06T00:00:00	2024-11-08T16:00:00	5	Humedad	76
174521	7	Sololá	712	San Antonio Palopó	9	San Antonio Palopo	6	Junio	2023-01-06T00:00:00	2024-11-08T16:00:00	6	Velocidad del viento	4.8
174522	7	Sololá	712	San Antonio Palopó	9	San Antonio Palopo	6	Junio	2023-01-06T00:00:00	2024-11-08T16:00:00	7	Dirección del viento	4.83
174523	7	Sololá	712	San Antonio Palopó	9	San Antonio Palopo	6	Junio	2023-01-06T00:00:00	2024-11-08T16:00:00	1	Precipitación	0
174524	7	Sololá	712	San Antonio Palopó	9	San Antonio Palopo	6	Junio	2023-01-06T00:00:00	2024-11-08T16:00:00	8	Radiación solar	461
174525	7	Sololá	712	San Antonio Palopó	9	San Antonio Palopo	6	Junio	2023-01-06T00:00:00	2024-11-08T17:00:00	2	Temperatura media	22.8
174526	7	Sololá	712	San Antonio Palopó	9	San Antonio Palopo	6	Junio	2023-01-06T00:00:00	2024-11-08T17:00:00	4	Temperatura máxima	24
174527	7	Sololá	712	San Antonio Palopó	9	San Antonio Palopo	6	Junio	2023-01-06T00:00:00	2024-11-08T17:00:00	3	Temperatura mínima	22.8
174528	7	Sololá	712	San Antonio Palopó	9	San Antonio Palopo	6	Junio	2023-01-06T00:00:00	2024-11-08T17:00:00	5	Humedad	79
174529	7	Sololá	712	San Antonio Palopó	9	San Antonio Palopo	6	Junio	2023-01-06T00:00:00	2024-11-08T17:00:00	6	Velocidad del viento	4.8
174530	7	Sololá	712	San Antonio Palopó	9	San Antonio Palopo	6	Junio	2023-01-06T00:00:00	2024-11-08T17:00:00	7	Dirección del viento	4.83
174531	7	Sololá	712	San Antonio Palopó	9	San Antonio Palopo	6	Junio	2023-01-06T00:00:00	2024-11-08T17:00:00	1	Precipitación	0
174532	7	Sololá	712	San Antonio Palopó	9	San Antonio Palopo	6	Junio	2023-01-06T00:00:00	2024-11-08T17:00:00	8	Radiación solar	245
174533	7	Sololá	712	San Antonio Palopó	9	San Antonio Palopo	6	Junio	2023-01-06T00:00:00	2024-11-08T18:00:00	2	Temperatura media	22.3
174534	7	Sololá	712	San Antonio Palopó	9	San Antonio Palopo	6	Junio	2023-01-06T00:00:00	2024-11-08T18:00:00	4	Temperatura máxima	22.8
174535	7	Sololá	712	San Antonio Palopó	9	San Antonio Palopo	6	Junio	2023-01-06T00:00:00	2024-11-08T18:00:00	3	Temperatura mínima	22.3
174536	7	Sololá	712	San Antonio Palopó	9	San Antonio Palopo	6	Junio	2023-01-06T00:00:00	2024-11-08T18:00:00	5	Humedad	81
174537	7	Sololá	712	San Antonio Palopó	9	San Antonio Palopo	6	Junio	2023-01-06T00:00:00	2024-11-08T18:00:00	6	Velocidad del viento	4.8
174538	7	Sololá	712	San Antonio Palopó	9	San Antonio Palopo	6	Junio	2023-01-06T00:00:00	2024-11-08T18:00:00	7	Dirección del viento	4.83
174539	7	Sololá	712	San Antonio Palopó	9	San Antonio Palopo	6	Junio	2023-01-06T00:00:00	2024-11-08T18:00:00	1	Precipitación	0
174540	7	Sololá	712	San Antonio Palopó	9	San Antonio Palopo	6	Junio	2023-01-06T00:00:00	2024-11-08T18:00:00	8	Radiación solar	60
174541	7	Sololá	712	San Antonio Palopó	9	San Antonio Palopo	6	Junio	2023-01-06T00:00:00	2024-11-08T19:00:00	2	Temperatura media	21.8
174542	7	Sololá	712	San Antonio Palopó	9	San Antonio Palopo	6	Junio	2023-01-06T00:00:00	2024-11-08T19:00:00	4	Temperatura máxima	22.3
174543	7	Sololá	712	San Antonio Palopó	9	San Antonio Palopo	6	Junio	2023-01-06T00:00:00	2024-11-08T19:00:00	3	Temperatura mínima	21.8
174544	7	Sololá	712	San Antonio Palopó	9	San Antonio Palopo	6	Junio	2023-01-06T00:00:00	2024-11-08T19:00:00	5	Humedad	82
174545	7	Sololá	712	San Antonio Palopó	9	San Antonio Palopo	6	Junio	2023-01-06T00:00:00	2024-11-08T19:00:00	6	Velocidad del viento	3.2
174546	7	Sololá	712	San Antonio Palopó	9	San Antonio Palopo	6	Junio	2023-01-06T00:00:00	2024-11-08T19:00:00	7	Dirección del viento	3.22
174547	7	Sololá	712	San Antonio Palopó	9	San Antonio Palopo	6	Junio	2023-01-06T00:00:00	2024-11-08T19:00:00	1	Precipitación	0
174548	7	Sololá	712	San Antonio Palopó	9	San Antonio Palopo	6	Junio	2023-01-06T00:00:00	2024-11-08T19:00:00	8	Radiación solar	0
174549	7	Sololá	712	San Antonio Palopó	9	San Antonio Palopo	6	Junio	2023-01-06T00:00:00	2024-11-08T20:00:00	2	Temperatura media	21.2
174550	7	Sololá	712	San Antonio Palopó	9	San Antonio Palopo	6	Junio	2023-01-06T00:00:00	2024-11-08T20:00:00	4	Temperatura máxima	21.8
174551	7	Sololá	712	San Antonio Palopó	9	San Antonio Palopo	6	Junio	2023-01-06T00:00:00	2024-11-08T20:00:00	3	Temperatura mínima	21.2
174552	7	Sololá	712	San Antonio Palopó	9	San Antonio Palopo	6	Junio	2023-01-06T00:00:00	2024-11-08T20:00:00	5	Humedad	84
174553	7	Sololá	712	San Antonio Palopó	9	San Antonio Palopo	6	Junio	2023-01-06T00:00:00	2024-11-08T20:00:00	6	Velocidad del viento	1.6
174554	7	Sololá	712	San Antonio Palopó	9	San Antonio Palopo	6	Junio	2023-01-06T00:00:00	2024-11-08T20:00:00	7	Dirección del viento	1.61
174555	7	Sololá	712	San Antonio Palopó	9	San Antonio Palopo	6	Junio	2023-01-06T00:00:00	2024-11-08T20:00:00	1	Precipitación	0
174556	7	Sololá	712	San Antonio Palopó	9	San Antonio Palopo	6	Junio	2023-01-06T00:00:00	2024-11-08T20:00:00	8	Radiación solar	0
174557	7	Sololá	712	San Antonio Palopó	9	San Antonio Palopo	6	Junio	2023-01-06T00:00:00	2024-11-08T21:00:00	2	Temperatura media	20.8
174558	7	Sololá	712	San Antonio Palopó	9	San Antonio Palopo	6	Junio	2023-01-06T00:00:00	2024-11-08T21:00:00	4	Temperatura máxima	21.3
174559	7	Sololá	712	San Antonio Palopó	9	San Antonio Palopo	6	Junio	2023-01-06T00:00:00	2024-11-08T21:00:00	3	Temperatura mínima	20.8
174560	7	Sololá	712	San Antonio Palopó	9	San Antonio Palopo	6	Junio	2023-01-06T00:00:00	2024-11-08T21:00:00	5	Humedad	84
174561	7	Sololá	712	San Antonio Palopó	9	San Antonio Palopo	6	Junio	2023-01-06T00:00:00	2024-11-08T21:00:00	6	Velocidad del viento	3.2
174562	7	Sololá	712	San Antonio Palopó	9	San Antonio Palopo	6	Junio	2023-01-06T00:00:00	2024-11-08T21:00:00	7	Dirección del viento	3.22
174563	7	Sololá	712	San Antonio Palopó	9	San Antonio Palopo	6	Junio	2023-01-06T00:00:00	2024-11-08T21:00:00	1	Precipitación	0
174564	7	Sololá	712	San Antonio Palopó	9	San Antonio Palopo	6	Junio	2023-01-06T00:00:00	2024-11-08T21:00:00	8	Radiación solar	0
174565	7	Sololá	712	San Antonio Palopó	9	San Antonio Palopo	6	Junio	2023-01-06T00:00:00	2024-11-08T22:00:00	2	Temperatura media	20.3
174566	7	Sololá	712	San Antonio Palopó	9	San Antonio Palopo	6	Junio	2023-01-06T00:00:00	2024-11-08T22:00:00	4	Temperatura máxima	20.8
174567	7	Sololá	712	San Antonio Palopó	9	San Antonio Palopo	6	Junio	2023-01-06T00:00:00	2024-11-08T22:00:00	3	Temperatura mínima	20.3
174568	7	Sololá	712	San Antonio Palopó	9	San Antonio Palopo	6	Junio	2023-01-06T00:00:00	2024-11-08T22:00:00	5	Humedad	86
174569	7	Sololá	712	San Antonio Palopó	9	San Antonio Palopo	6	Junio	2023-01-06T00:00:00	2024-11-08T22:00:00	6	Velocidad del viento	4.8
174570	7	Sololá	712	San Antonio Palopó	9	San Antonio Palopo	6	Junio	2023-01-06T00:00:00	2024-11-08T22:00:00	7	Dirección del viento	4.83
174571	7	Sololá	712	San Antonio Palopó	9	San Antonio Palopo	6	Junio	2023-01-06T00:00:00	2024-11-08T22:00:00	1	Precipitación	0
174572	7	Sololá	712	San Antonio Palopó	9	San Antonio Palopo	6	Junio	2023-01-06T00:00:00	2024-11-08T22:00:00	8	Radiación solar	0
174573	7	Sololá	712	San Antonio Palopó	9	San Antonio Palopo	6	Junio	2023-01-06T00:00:00	2024-11-08T23:00:00	2	Temperatura media	20.3
174574	7	Sololá	712	San Antonio Palopó	9	San Antonio Palopo	6	Junio	2023-01-06T00:00:00	2024-11-08T23:00:00	4	Temperatura máxima	20.6
174575	7	Sololá	712	San Antonio Palopó	9	San Antonio Palopo	6	Junio	2023-01-06T00:00:00	2024-11-08T23:00:00	3	Temperatura mínima	20.3
174576	7	Sololá	712	San Antonio Palopó	9	San Antonio Palopo	6	Junio	2023-01-06T00:00:00	2024-11-08T23:00:00	5	Humedad	84
174577	7	Sololá	712	San Antonio Palopó	9	San Antonio Palopo	6	Junio	2023-01-06T00:00:00	2024-11-08T23:00:00	6	Velocidad del viento	1.6
174578	7	Sololá	712	San Antonio Palopó	9	San Antonio Palopo	6	Junio	2023-01-06T00:00:00	2024-11-08T23:00:00	7	Dirección del viento	1.61
174579	7	Sololá	712	San Antonio Palopó	9	San Antonio Palopo	6	Junio	2023-01-06T00:00:00	2024-11-08T23:00:00	1	Precipitación	0
174580	7	Sololá	712	San Antonio Palopó	9	San Antonio Palopo	6	Junio	2023-01-06T00:00:00	2024-11-08T23:00:00	8	Radiación solar	0
174581	7	Sololá	712	San Antonio Palopó	9	San Antonio Palopo	6	Junio	2023-02-06T00:00:00	2024-11-08T00:00:00	2	Temperatura media	19.8
174582	7	Sololá	712	San Antonio Palopó	9	San Antonio Palopo	6	Junio	2023-02-06T00:00:00	2024-11-08T00:00:00	4	Temperatura máxima	20.3
174583	7	Sololá	712	San Antonio Palopó	9	San Antonio Palopo	6	Junio	2023-02-06T00:00:00	2024-11-08T00:00:00	3	Temperatura mínima	19.8
174584	7	Sololá	712	San Antonio Palopó	9	San Antonio Palopo	6	Junio	2023-02-06T00:00:00	2024-11-08T00:00:00	5	Humedad	83
174585	7	Sololá	712	San Antonio Palopó	9	San Antonio Palopo	6	Junio	2023-02-06T00:00:00	2024-11-08T00:00:00	6	Velocidad del viento	1.6
174586	7	Sololá	712	San Antonio Palopó	9	San Antonio Palopo	6	Junio	2023-02-06T00:00:00	2024-11-08T00:00:00	7	Dirección del viento	1.61
174587	7	Sololá	712	San Antonio Palopó	9	San Antonio Palopo	6	Junio	2023-02-06T00:00:00	2024-11-08T00:00:00	1	Precipitación	0
174588	7	Sololá	712	San Antonio Palopó	9	San Antonio Palopo	6	Junio	2023-02-06T00:00:00	2024-11-08T00:00:00	8	Radiación solar	0
174589	7	Sololá	712	San Antonio Palopó	9	San Antonio Palopo	6	Junio	2023-02-06T00:00:00	2024-11-08T01:00:00	2	Temperatura media	19.8
174590	7	Sololá	712	San Antonio Palopó	9	San Antonio Palopo	6	Junio	2023-02-06T00:00:00	2024-11-08T01:00:00	4	Temperatura máxima	19.9
174591	7	Sololá	712	San Antonio Palopó	9	San Antonio Palopo	6	Junio	2023-02-06T00:00:00	2024-11-08T01:00:00	3	Temperatura mínima	19.7
174592	7	Sololá	712	San Antonio Palopó	9	San Antonio Palopo	6	Junio	2023-02-06T00:00:00	2024-11-08T01:00:00	5	Humedad	82
174593	7	Sololá	712	San Antonio Palopó	9	San Antonio Palopo	6	Junio	2023-02-06T00:00:00	2024-11-08T01:00:00	6	Velocidad del viento	1.6
174594	7	Sololá	712	San Antonio Palopó	9	San Antonio Palopo	6	Junio	2023-02-06T00:00:00	2024-11-08T01:00:00	7	Dirección del viento	1.61
174595	7	Sololá	712	San Antonio Palopó	9	San Antonio Palopo	6	Junio	2023-02-06T00:00:00	2024-11-08T01:00:00	1	Precipitación	0
174596	7	Sololá	712	San Antonio Palopó	9	San Antonio Palopo	6	Junio	2023-02-06T00:00:00	2024-11-08T01:00:00	8	Radiación solar	0
174597	7	Sololá	712	San Antonio Palopó	9	San Antonio Palopo	6	Junio	2023-02-06T00:00:00	2024-11-08T02:00:00	2	Temperatura media	19.6
174598	7	Sololá	712	San Antonio Palopó	9	San Antonio Palopo	6	Junio	2023-02-06T00:00:00	2024-11-08T02:00:00	4	Temperatura máxima	20
174599	7	Sololá	712	San Antonio Palopó	9	San Antonio Palopo	6	Junio	2023-02-06T00:00:00	2024-11-08T02:00:00	3	Temperatura mínima	19.6
174600	7	Sololá	712	San Antonio Palopó	9	San Antonio Palopo	6	Junio	2023-02-06T00:00:00	2024-11-08T02:00:00	5	Humedad	82
174601	7	Sololá	712	San Antonio Palopó	9	San Antonio Palopo	6	Junio	2023-02-06T00:00:00	2024-11-08T02:00:00	6	Velocidad del viento	1.6
174602	7	Sololá	712	San Antonio Palopó	9	San Antonio Palopo	6	Junio	2023-02-06T00:00:00	2024-11-08T02:00:00	7	Dirección del viento	1.61
174603	7	Sololá	712	San Antonio Palopó	9	San Antonio Palopo	6	Junio	2023-02-06T00:00:00	2024-11-08T02:00:00	1	Precipitación	0
174604	7	Sololá	712	San Antonio Palopó	9	San Antonio Palopo	6	Junio	2023-02-06T00:00:00	2024-11-08T02:00:00	8	Radiación solar	0
174605	7	Sololá	712	San Antonio Palopó	9	San Antonio Palopo	6	Junio	2023-02-06T00:00:00	2024-11-08T03:00:00	2	Temperatura media	19.4
174606	7	Sololá	712	San Antonio Palopó	9	San Antonio Palopo	6	Junio	2023-02-06T00:00:00	2024-11-08T03:00:00	4	Temperatura máxima	19.6
174607	7	Sololá	712	San Antonio Palopó	9	San Antonio Palopo	6	Junio	2023-02-06T00:00:00	2024-11-08T03:00:00	3	Temperatura mínima	19.3
174608	7	Sololá	712	San Antonio Palopó	9	San Antonio Palopo	6	Junio	2023-02-06T00:00:00	2024-11-08T03:00:00	5	Humedad	77
174609	7	Sololá	712	San Antonio Palopó	9	San Antonio Palopo	6	Junio	2023-02-06T00:00:00	2024-11-08T03:00:00	6	Velocidad del viento	4.8
174610	7	Sololá	712	San Antonio Palopó	9	San Antonio Palopo	6	Junio	2023-02-06T00:00:00	2024-11-08T03:00:00	7	Dirección del viento	4.83
174611	7	Sololá	712	San Antonio Palopó	9	San Antonio Palopo	6	Junio	2023-02-06T00:00:00	2024-11-08T03:00:00	1	Precipitación	0
174612	7	Sololá	712	San Antonio Palopó	9	San Antonio Palopo	6	Junio	2023-02-06T00:00:00	2024-11-08T03:00:00	8	Radiación solar	0
174613	7	Sololá	712	San Antonio Palopó	9	San Antonio Palopo	6	Junio	2023-02-06T00:00:00	2024-11-08T04:00:00	2	Temperatura media	19.1
174614	7	Sololá	712	San Antonio Palopó	9	San Antonio Palopo	6	Junio	2023-02-06T00:00:00	2024-11-08T04:00:00	4	Temperatura máxima	19.5
174615	7	Sololá	712	San Antonio Palopó	9	San Antonio Palopo	6	Junio	2023-02-06T00:00:00	2024-11-08T04:00:00	3	Temperatura mínima	18.8
174616	7	Sololá	712	San Antonio Palopó	9	San Antonio Palopo	6	Junio	2023-02-06T00:00:00	2024-11-08T04:00:00	5	Humedad	82
174617	7	Sololá	712	San Antonio Palopó	9	San Antonio Palopo	6	Junio	2023-02-06T00:00:00	2024-11-08T04:00:00	6	Velocidad del viento	3.2
174618	7	Sololá	712	San Antonio Palopó	9	San Antonio Palopo	6	Junio	2023-02-06T00:00:00	2024-11-08T04:00:00	7	Dirección del viento	3.22
174619	7	Sololá	712	San Antonio Palopó	9	San Antonio Palopo	6	Junio	2023-02-06T00:00:00	2024-11-08T04:00:00	1	Precipitación	0
174620	7	Sololá	712	San Antonio Palopó	9	San Antonio Palopo	6	Junio	2023-02-06T00:00:00	2024-11-08T04:00:00	8	Radiación solar	0
174621	7	Sololá	712	San Antonio Palopó	9	San Antonio Palopo	6	Junio	2023-02-06T00:00:00	2024-11-08T05:00:00	2	Temperatura media	19.2
174622	7	Sololá	712	San Antonio Palopó	9	San Antonio Palopo	6	Junio	2023-02-06T00:00:00	2024-11-08T05:00:00	4	Temperatura máxima	19.2
174623	7	Sololá	712	San Antonio Palopó	9	San Antonio Palopo	6	Junio	2023-02-06T00:00:00	2024-11-08T05:00:00	3	Temperatura mínima	18.7
174624	7	Sololá	712	San Antonio Palopó	9	San Antonio Palopo	6	Junio	2023-02-06T00:00:00	2024-11-08T05:00:00	5	Humedad	79
174625	7	Sololá	712	San Antonio Palopó	9	San Antonio Palopo	6	Junio	2023-02-06T00:00:00	2024-11-08T05:00:00	6	Velocidad del viento	3.2
174626	7	Sololá	712	San Antonio Palopó	9	San Antonio Palopo	6	Junio	2023-02-06T00:00:00	2024-11-08T05:00:00	7	Dirección del viento	3.22
174627	7	Sololá	712	San Antonio Palopó	9	San Antonio Palopo	6	Junio	2023-02-06T00:00:00	2024-11-08T05:00:00	1	Precipitación	0
174628	7	Sololá	712	San Antonio Palopó	9	San Antonio Palopo	6	Junio	2023-02-06T00:00:00	2024-11-08T05:00:00	8	Radiación solar	0
174629	7	Sololá	712	San Antonio Palopó	9	San Antonio Palopo	6	Junio	2023-02-06T00:00:00	2024-11-08T06:00:00	2	Temperatura media	18.3
174630	7	Sololá	712	San Antonio Palopó	9	San Antonio Palopo	6	Junio	2023-02-06T00:00:00	2024-11-08T06:00:00	4	Temperatura máxima	19.3
174631	7	Sololá	712	San Antonio Palopó	9	San Antonio Palopo	6	Junio	2023-02-06T00:00:00	2024-11-08T06:00:00	3	Temperatura mínima	18.3
174632	7	Sololá	712	San Antonio Palopó	9	San Antonio Palopo	6	Junio	2023-02-06T00:00:00	2024-11-08T06:00:00	5	Humedad	81
174633	7	Sololá	712	San Antonio Palopó	9	San Antonio Palopo	6	Junio	2023-02-06T00:00:00	2024-11-08T06:00:00	6	Velocidad del viento	4.8
174634	7	Sololá	712	San Antonio Palopó	9	San Antonio Palopo	6	Junio	2023-02-06T00:00:00	2024-11-08T06:00:00	7	Dirección del viento	4.83
174635	7	Sololá	712	San Antonio Palopó	9	San Antonio Palopo	6	Junio	2023-02-06T00:00:00	2024-11-08T06:00:00	1	Precipitación	0
174636	7	Sololá	712	San Antonio Palopó	9	San Antonio Palopo	6	Junio	2023-02-06T00:00:00	2024-11-08T06:00:00	8	Radiación solar	3
174637	7	Sololá	712	San Antonio Palopó	9	San Antonio Palopo	6	Junio	2023-02-06T00:00:00	2024-11-08T07:00:00	2	Temperatura media	18.3
174638	7	Sololá	712	San Antonio Palopó	9	San Antonio Palopo	6	Junio	2023-02-06T00:00:00	2024-11-08T07:00:00	4	Temperatura máxima	18.3
174639	7	Sololá	712	San Antonio Palopó	9	San Antonio Palopo	6	Junio	2023-02-06T00:00:00	2024-11-08T07:00:00	3	Temperatura mínima	18.1
174640	7	Sololá	712	San Antonio Palopó	9	San Antonio Palopo	6	Junio	2023-02-06T00:00:00	2024-11-08T07:00:00	5	Humedad	84
174641	7	Sololá	712	San Antonio Palopó	9	San Antonio Palopo	6	Junio	2023-02-06T00:00:00	2024-11-08T07:00:00	6	Velocidad del viento	3.2
174642	7	Sololá	712	San Antonio Palopó	9	San Antonio Palopo	6	Junio	2023-02-06T00:00:00	2024-11-08T07:00:00	7	Dirección del viento	3.22
174643	7	Sololá	712	San Antonio Palopó	9	San Antonio Palopo	6	Junio	2023-02-06T00:00:00	2024-11-08T07:00:00	1	Precipitación	0
174644	7	Sololá	712	San Antonio Palopó	9	San Antonio Palopo	6	Junio	2023-02-06T00:00:00	2024-11-08T07:00:00	8	Radiación solar	42
174645	7	Sololá	712	San Antonio Palopó	9	San Antonio Palopo	6	Junio	2023-02-06T00:00:00	2024-11-08T08:00:00	2	Temperatura media	20.7
174646	7	Sololá	712	San Antonio Palopó	9	San Antonio Palopo	6	Junio	2023-02-06T00:00:00	2024-11-08T08:00:00	4	Temperatura máxima	20.7
174647	7	Sololá	712	San Antonio Palopó	9	San Antonio Palopo	6	Junio	2023-02-06T00:00:00	2024-11-08T08:00:00	3	Temperatura mínima	18.3
174648	7	Sololá	712	San Antonio Palopó	9	San Antonio Palopo	6	Junio	2023-02-06T00:00:00	2024-11-08T08:00:00	5	Humedad	80
174649	7	Sololá	712	San Antonio Palopó	9	San Antonio Palopo	6	Junio	2023-02-06T00:00:00	2024-11-08T08:00:00	6	Velocidad del viento	1.6
174650	7	Sololá	712	San Antonio Palopó	9	San Antonio Palopo	6	Junio	2023-02-06T00:00:00	2024-11-08T08:00:00	7	Dirección del viento	1.61
174651	7	Sololá	712	San Antonio Palopó	9	San Antonio Palopo	6	Junio	2023-02-06T00:00:00	2024-11-08T08:00:00	1	Precipitación	0
174652	7	Sololá	712	San Antonio Palopó	9	San Antonio Palopo	6	Junio	2023-02-06T00:00:00	2024-11-08T08:00:00	8	Radiación solar	213
174653	7	Sololá	712	San Antonio Palopó	9	San Antonio Palopo	6	Junio	2023-02-06T00:00:00	2024-11-08T09:00:00	2	Temperatura media	21.2
174654	7	Sololá	712	San Antonio Palopó	9	San Antonio Palopo	6	Junio	2023-02-06T00:00:00	2024-11-08T09:00:00	4	Temperatura máxima	21.6
174655	7	Sololá	712	San Antonio Palopó	9	San Antonio Palopo	6	Junio	2023-02-06T00:00:00	2024-11-08T09:00:00	3	Temperatura mínima	20.7
174656	7	Sololá	712	San Antonio Palopó	9	San Antonio Palopo	6	Junio	2023-02-06T00:00:00	2024-11-08T09:00:00	5	Humedad	78
174657	7	Sololá	712	San Antonio Palopó	9	San Antonio Palopo	6	Junio	2023-02-06T00:00:00	2024-11-08T09:00:00	6	Velocidad del viento	1.6
174658	7	Sololá	712	San Antonio Palopó	9	San Antonio Palopo	6	Junio	2023-02-06T00:00:00	2024-11-08T09:00:00	7	Dirección del viento	1.61
174659	7	Sololá	712	San Antonio Palopó	9	San Antonio Palopo	6	Junio	2023-02-06T00:00:00	2024-11-08T09:00:00	1	Precipitación	0
174660	7	Sololá	712	San Antonio Palopó	9	San Antonio Palopo	6	Junio	2023-02-06T00:00:00	2024-11-08T09:00:00	8	Radiación solar	507
174661	7	Sololá	712	San Antonio Palopó	9	San Antonio Palopo	6	Junio	2023-02-06T00:00:00	2024-11-08T10:00:00	2	Temperatura media	22.3
174662	7	Sololá	712	San Antonio Palopó	9	San Antonio Palopo	6	Junio	2023-02-06T00:00:00	2024-11-08T10:00:00	4	Temperatura máxima	22.3
174663	7	Sololá	712	San Antonio Palopó	9	San Antonio Palopo	6	Junio	2023-02-06T00:00:00	2024-11-08T10:00:00	3	Temperatura mínima	21.2
174664	7	Sololá	712	San Antonio Palopó	9	San Antonio Palopo	6	Junio	2023-02-06T00:00:00	2024-11-08T10:00:00	5	Humedad	74
174665	7	Sololá	712	San Antonio Palopó	9	San Antonio Palopo	6	Junio	2023-02-06T00:00:00	2024-11-08T10:00:00	6	Velocidad del viento	3.2
174666	7	Sololá	712	San Antonio Palopó	9	San Antonio Palopo	6	Junio	2023-02-06T00:00:00	2024-11-08T10:00:00	7	Dirección del viento	3.22
174667	7	Sololá	712	San Antonio Palopó	9	San Antonio Palopo	6	Junio	2023-02-06T00:00:00	2024-11-08T10:00:00	1	Precipitación	0
174668	7	Sololá	712	San Antonio Palopó	9	San Antonio Palopo	6	Junio	2023-02-06T00:00:00	2024-11-08T10:00:00	8	Radiación solar	699
174669	7	Sololá	712	San Antonio Palopó	9	San Antonio Palopo	6	Junio	2023-02-06T00:00:00	2024-11-08T11:00:00	2	Temperatura media	23.4
174670	7	Sololá	712	San Antonio Palopó	9	San Antonio Palopo	6	Junio	2023-02-06T00:00:00	2024-11-08T11:00:00	4	Temperatura máxima	23.6
174671	7	Sololá	712	San Antonio Palopó	9	San Antonio Palopo	6	Junio	2023-02-06T00:00:00	2024-11-08T11:00:00	3	Temperatura mínima	22.3
174672	7	Sololá	712	San Antonio Palopó	9	San Antonio Palopo	6	Junio	2023-02-06T00:00:00	2024-11-08T11:00:00	5	Humedad	72
174673	7	Sololá	712	San Antonio Palopó	9	San Antonio Palopo	6	Junio	2023-02-06T00:00:00	2024-11-08T11:00:00	6	Velocidad del viento	3.2
174674	7	Sololá	712	San Antonio Palopó	9	San Antonio Palopo	6	Junio	2023-02-06T00:00:00	2024-11-08T11:00:00	7	Dirección del viento	3.22
174675	7	Sololá	712	San Antonio Palopó	9	San Antonio Palopo	6	Junio	2023-02-06T00:00:00	2024-11-08T11:00:00	1	Precipitación	0
174676	7	Sololá	712	San Antonio Palopó	9	San Antonio Palopo	6	Junio	2023-02-06T00:00:00	2024-11-08T11:00:00	8	Radiación solar	832
174677	7	Sololá	712	San Antonio Palopó	9	San Antonio Palopo	6	Junio	2023-02-06T00:00:00	2024-11-08T12:00:00	2	Temperatura media	23.6
174678	7	Sololá	712	San Antonio Palopó	9	San Antonio Palopo	6	Junio	2023-02-06T00:00:00	2024-11-08T12:00:00	4	Temperatura máxima	24.7
174679	7	Sololá	712	San Antonio Palopó	9	San Antonio Palopo	6	Junio	2023-02-06T00:00:00	2024-11-08T12:00:00	3	Temperatura mínima	23.4
174680	7	Sololá	712	San Antonio Palopó	9	San Antonio Palopo	6	Junio	2023-02-06T00:00:00	2024-11-08T12:00:00	5	Humedad	77
174681	7	Sololá	712	San Antonio Palopó	9	San Antonio Palopo	6	Junio	2023-02-06T00:00:00	2024-11-08T12:00:00	6	Velocidad del viento	6.4
174682	7	Sololá	712	San Antonio Palopó	9	San Antonio Palopo	6	Junio	2023-02-06T00:00:00	2024-11-08T12:00:00	7	Dirección del viento	6.44
174683	7	Sololá	712	San Antonio Palopó	9	San Antonio Palopo	6	Junio	2023-02-06T00:00:00	2024-11-08T12:00:00	1	Precipitación	0
174684	7	Sololá	712	San Antonio Palopó	9	San Antonio Palopo	6	Junio	2023-02-06T00:00:00	2024-11-08T12:00:00	8	Radiación solar	883
174685	7	Sololá	712	San Antonio Palopó	9	San Antonio Palopo	6	Junio	2023-02-06T00:00:00	2024-11-08T13:00:00	2	Temperatura media	24.6
174686	7	Sololá	712	San Antonio Palopó	9	San Antonio Palopo	6	Junio	2023-02-06T00:00:00	2024-11-08T13:00:00	4	Temperatura máxima	24.9
174687	7	Sololá	712	San Antonio Palopó	9	San Antonio Palopo	6	Junio	2023-02-06T00:00:00	2024-11-08T13:00:00	3	Temperatura mínima	23.6
174688	7	Sololá	712	San Antonio Palopó	9	San Antonio Palopo	6	Junio	2023-02-06T00:00:00	2024-11-08T13:00:00	5	Humedad	72
174689	7	Sololá	712	San Antonio Palopó	9	San Antonio Palopo	6	Junio	2023-02-06T00:00:00	2024-11-08T13:00:00	6	Velocidad del viento	6.4
174690	7	Sololá	712	San Antonio Palopó	9	San Antonio Palopo	6	Junio	2023-02-06T00:00:00	2024-11-08T13:00:00	7	Dirección del viento	6.44
174691	7	Sololá	712	San Antonio Palopó	9	San Antonio Palopo	6	Junio	2023-02-06T00:00:00	2024-11-08T13:00:00	1	Precipitación	0
174692	7	Sololá	712	San Antonio Palopó	9	San Antonio Palopo	6	Junio	2023-02-06T00:00:00	2024-11-08T13:00:00	8	Radiación solar	949
174693	7	Sololá	712	San Antonio Palopó	9	San Antonio Palopo	6	Junio	2023-02-06T00:00:00	2024-11-08T14:00:00	2	Temperatura media	25.1
174694	7	Sololá	712	San Antonio Palopó	9	San Antonio Palopo	6	Junio	2023-02-06T00:00:00	2024-11-08T14:00:00	4	Temperatura máxima	25.2
174695	7	Sololá	712	San Antonio Palopó	9	San Antonio Palopo	6	Junio	2023-02-06T00:00:00	2024-11-08T14:00:00	3	Temperatura mínima	24.1
174696	7	Sololá	712	San Antonio Palopó	9	San Antonio Palopo	6	Junio	2023-02-06T00:00:00	2024-11-08T14:00:00	5	Humedad	71
174697	7	Sololá	712	San Antonio Palopó	9	San Antonio Palopo	6	Junio	2023-02-06T00:00:00	2024-11-08T14:00:00	6	Velocidad del viento	6.4
174698	7	Sololá	712	San Antonio Palopó	9	San Antonio Palopo	6	Junio	2023-02-06T00:00:00	2024-11-08T14:00:00	7	Dirección del viento	6.44
174699	7	Sololá	712	San Antonio Palopó	9	San Antonio Palopo	6	Junio	2023-02-06T00:00:00	2024-11-08T14:00:00	1	Precipitación	0
174700	7	Sololá	712	San Antonio Palopó	9	San Antonio Palopo	6	Junio	2023-02-06T00:00:00	2024-11-08T14:00:00	8	Radiación solar	845
174701	7	Sololá	712	San Antonio Palopó	9	San Antonio Palopo	6	Junio	2023-02-06T00:00:00	2024-11-08T15:00:00	2	Temperatura media	23.6
174702	7	Sololá	712	San Antonio Palopó	9	San Antonio Palopo	6	Junio	2023-02-06T00:00:00	2024-11-08T15:00:00	4	Temperatura máxima	25.5
174703	7	Sololá	712	San Antonio Palopó	9	San Antonio Palopo	6	Junio	2023-02-06T00:00:00	2024-11-08T15:00:00	3	Temperatura mínima	23.6
174704	7	Sololá	712	San Antonio Palopó	9	San Antonio Palopo	6	Junio	2023-02-06T00:00:00	2024-11-08T15:00:00	5	Humedad	76
174705	7	Sololá	712	San Antonio Palopó	9	San Antonio Palopo	6	Junio	2023-02-06T00:00:00	2024-11-08T15:00:00	6	Velocidad del viento	6.4
174706	7	Sololá	712	San Antonio Palopó	9	San Antonio Palopo	6	Junio	2023-02-06T00:00:00	2024-11-08T15:00:00	7	Dirección del viento	6.44
174707	7	Sololá	712	San Antonio Palopó	9	San Antonio Palopo	6	Junio	2023-02-06T00:00:00	2024-11-08T15:00:00	1	Precipitación	0
174708	7	Sololá	712	San Antonio Palopó	9	San Antonio Palopo	6	Junio	2023-02-06T00:00:00	2024-11-08T15:00:00	8	Radiación solar	602
174709	7	Sololá	712	San Antonio Palopó	9	San Antonio Palopo	6	Junio	2023-02-06T00:00:00	2024-11-08T16:00:00	2	Temperatura media	23.7
174710	7	Sololá	712	San Antonio Palopó	9	San Antonio Palopo	6	Junio	2023-02-06T00:00:00	2024-11-08T16:00:00	4	Temperatura máxima	23.7
174711	7	Sololá	712	San Antonio Palopó	9	San Antonio Palopo	6	Junio	2023-02-06T00:00:00	2024-11-08T16:00:00	3	Temperatura mínima	22.9
174712	7	Sololá	712	San Antonio Palopó	9	San Antonio Palopo	6	Junio	2023-02-06T00:00:00	2024-11-08T16:00:00	5	Humedad	73
174713	7	Sololá	712	San Antonio Palopó	9	San Antonio Palopo	6	Junio	2023-02-06T00:00:00	2024-11-08T16:00:00	6	Velocidad del viento	6.4
174714	7	Sololá	712	San Antonio Palopó	9	San Antonio Palopo	6	Junio	2023-02-06T00:00:00	2024-11-08T16:00:00	7	Dirección del viento	6.44
174715	7	Sololá	712	San Antonio Palopó	9	San Antonio Palopo	6	Junio	2023-02-06T00:00:00	2024-11-08T16:00:00	1	Precipitación	0
174716	7	Sololá	712	San Antonio Palopó	9	San Antonio Palopo	6	Junio	2023-02-06T00:00:00	2024-11-08T16:00:00	8	Radiación solar	265
174717	7	Sololá	712	San Antonio Palopó	9	San Antonio Palopo	6	Junio	2023-02-06T00:00:00	2024-11-08T17:00:00	2	Temperatura media	22.8
174718	7	Sololá	712	San Antonio Palopó	9	San Antonio Palopo	6	Junio	2023-02-06T00:00:00	2024-11-08T17:00:00	4	Temperatura máxima	23.8
174719	7	Sololá	712	San Antonio Palopó	9	San Antonio Palopo	6	Junio	2023-02-06T00:00:00	2024-11-08T17:00:00	3	Temperatura mínima	22.8
174720	7	Sololá	712	San Antonio Palopó	9	San Antonio Palopo	6	Junio	2023-02-06T00:00:00	2024-11-08T17:00:00	5	Humedad	78
174721	7	Sololá	712	San Antonio Palopó	9	San Antonio Palopo	6	Junio	2023-02-06T00:00:00	2024-11-08T17:00:00	6	Velocidad del viento	4.8
174722	7	Sololá	712	San Antonio Palopó	9	San Antonio Palopo	6	Junio	2023-02-06T00:00:00	2024-11-08T17:00:00	7	Dirección del viento	4.83
174723	7	Sololá	712	San Antonio Palopó	9	San Antonio Palopo	6	Junio	2023-02-06T00:00:00	2024-11-08T17:00:00	1	Precipitación	0
174724	7	Sololá	712	San Antonio Palopó	9	San Antonio Palopo	6	Junio	2023-02-06T00:00:00	2024-11-08T17:00:00	8	Radiación solar	295
174725	7	Sololá	712	San Antonio Palopó	9	San Antonio Palopo	6	Junio	2023-02-06T00:00:00	2024-11-08T18:00:00	2	Temperatura media	22.4
174726	7	Sololá	712	San Antonio Palopó	9	San Antonio Palopo	6	Junio	2023-02-06T00:00:00	2024-11-08T18:00:00	4	Temperatura máxima	23.2
174727	7	Sololá	712	San Antonio Palopó	9	San Antonio Palopo	6	Junio	2023-02-06T00:00:00	2024-11-08T18:00:00	3	Temperatura mínima	22.4
174728	7	Sololá	712	San Antonio Palopó	9	San Antonio Palopo	6	Junio	2023-02-06T00:00:00	2024-11-08T18:00:00	5	Humedad	80
174729	7	Sololá	712	San Antonio Palopó	9	San Antonio Palopo	6	Junio	2023-02-06T00:00:00	2024-11-08T18:00:00	6	Velocidad del viento	3.2
174730	7	Sololá	712	San Antonio Palopó	9	San Antonio Palopo	6	Junio	2023-02-06T00:00:00	2024-11-08T18:00:00	7	Dirección del viento	3.22
174731	7	Sololá	712	San Antonio Palopó	9	San Antonio Palopo	6	Junio	2023-02-06T00:00:00	2024-11-08T18:00:00	1	Precipitación	0
174732	7	Sololá	712	San Antonio Palopó	9	San Antonio Palopo	6	Junio	2023-02-06T00:00:00	2024-11-08T18:00:00	8	Radiación solar	80
174733	7	Sololá	712	San Antonio Palopó	9	San Antonio Palopo	6	Junio	2023-02-06T00:00:00	2024-11-08T19:00:00	2	Temperatura media	21.8
174734	7	Sololá	712	San Antonio Palopó	9	San Antonio Palopo	6	Junio	2023-02-06T00:00:00	2024-11-08T19:00:00	4	Temperatura máxima	22.5
174735	7	Sololá	712	San Antonio Palopó	9	San Antonio Palopo	6	Junio	2023-02-06T00:00:00	2024-11-08T19:00:00	3	Temperatura mínima	21.5
174736	7	Sololá	712	San Antonio Palopó	9	San Antonio Palopo	6	Junio	2023-02-06T00:00:00	2024-11-08T19:00:00	5	Humedad	81
174737	7	Sololá	712	San Antonio Palopó	9	San Antonio Palopo	6	Junio	2023-02-06T00:00:00	2024-11-08T19:00:00	6	Velocidad del viento	1.6
174738	7	Sololá	712	San Antonio Palopó	9	San Antonio Palopo	6	Junio	2023-02-06T00:00:00	2024-11-08T19:00:00	7	Dirección del viento	1.61
174739	7	Sololá	712	San Antonio Palopó	9	San Antonio Palopo	6	Junio	2023-02-06T00:00:00	2024-11-08T19:00:00	1	Precipitación	0
174740	7	Sololá	712	San Antonio Palopó	9	San Antonio Palopo	6	Junio	2023-02-06T00:00:00	2024-11-08T19:00:00	8	Radiación solar	0
174741	7	Sololá	712	San Antonio Palopó	9	San Antonio Palopo	6	Junio	2023-02-06T00:00:00	2024-11-08T20:00:00	2	Temperatura media	21.1
174742	7	Sololá	712	San Antonio Palopó	9	San Antonio Palopo	6	Junio	2023-02-06T00:00:00	2024-11-08T20:00:00	4	Temperatura máxima	21.8
174743	7	Sololá	712	San Antonio Palopó	9	San Antonio Palopo	6	Junio	2023-02-06T00:00:00	2024-11-08T20:00:00	3	Temperatura mínima	21.1
174744	7	Sololá	712	San Antonio Palopó	9	San Antonio Palopo	6	Junio	2023-02-06T00:00:00	2024-11-08T20:00:00	5	Humedad	84
174745	7	Sololá	712	San Antonio Palopó	9	San Antonio Palopo	6	Junio	2023-02-06T00:00:00	2024-11-08T20:00:00	6	Velocidad del viento	1.6
174746	7	Sololá	712	San Antonio Palopó	9	San Antonio Palopo	6	Junio	2023-02-06T00:00:00	2024-11-08T20:00:00	7	Dirección del viento	1.61
174747	7	Sololá	712	San Antonio Palopó	9	San Antonio Palopo	6	Junio	2023-02-06T00:00:00	2024-11-08T20:00:00	1	Precipitación	0
174748	7	Sololá	712	San Antonio Palopó	9	San Antonio Palopo	6	Junio	2023-02-06T00:00:00	2024-11-08T20:00:00	8	Radiación solar	0
174749	7	Sololá	712	San Antonio Palopó	9	San Antonio Palopo	6	Junio	2023-02-06T00:00:00	2024-11-08T21:00:00	2	Temperatura media	20.9
174750	7	Sololá	712	San Antonio Palopó	9	San Antonio Palopo	6	Junio	2023-02-06T00:00:00	2024-11-08T21:00:00	4	Temperatura máxima	21.2
174751	7	Sololá	712	San Antonio Palopó	9	San Antonio Palopo	6	Junio	2023-02-06T00:00:00	2024-11-08T21:00:00	3	Temperatura mínima	20.8
174752	7	Sololá	712	San Antonio Palopó	9	San Antonio Palopo	6	Junio	2023-02-06T00:00:00	2024-11-08T21:00:00	5	Humedad	84
174753	7	Sololá	712	San Antonio Palopó	9	San Antonio Palopo	6	Junio	2023-02-06T00:00:00	2024-11-08T21:00:00	6	Velocidad del viento	1.6
174754	7	Sololá	712	San Antonio Palopó	9	San Antonio Palopo	6	Junio	2023-02-06T00:00:00	2024-11-08T21:00:00	7	Dirección del viento	1.61
174755	7	Sololá	712	San Antonio Palopó	9	San Antonio Palopo	6	Junio	2023-02-06T00:00:00	2024-11-08T21:00:00	1	Precipitación	0
174756	7	Sololá	712	San Antonio Palopó	9	San Antonio Palopo	6	Junio	2023-02-06T00:00:00	2024-11-08T21:00:00	8	Radiación solar	0
174757	7	Sololá	712	San Antonio Palopó	9	San Antonio Palopo	6	Junio	2023-02-06T00:00:00	2024-11-08T22:00:00	2	Temperatura media	20.7
174758	7	Sololá	712	San Antonio Palopó	9	San Antonio Palopo	6	Junio	2023-02-06T00:00:00	2024-11-08T22:00:00	4	Temperatura máxima	21.2
174759	7	Sololá	712	San Antonio Palopó	9	San Antonio Palopo	6	Junio	2023-02-06T00:00:00	2024-11-08T22:00:00	3	Temperatura mínima	20.7
174760	7	Sololá	712	San Antonio Palopó	9	San Antonio Palopo	6	Junio	2023-02-06T00:00:00	2024-11-08T22:00:00	5	Humedad	85
174761	7	Sololá	712	San Antonio Palopó	9	San Antonio Palopo	6	Junio	2023-02-06T00:00:00	2024-11-08T22:00:00	6	Velocidad del viento	1.6
174762	7	Sololá	712	San Antonio Palopó	9	San Antonio Palopo	6	Junio	2023-02-06T00:00:00	2024-11-08T22:00:00	7	Dirección del viento	1.61
174763	7	Sololá	712	San Antonio Palopó	9	San Antonio Palopo	6	Junio	2023-02-06T00:00:00	2024-11-08T22:00:00	1	Precipitación	0
174764	7	Sololá	712	San Antonio Palopó	9	San Antonio Palopo	6	Junio	2023-02-06T00:00:00	2024-11-08T22:00:00	8	Radiación solar	0
174765	7	Sololá	712	San Antonio Palopó	9	San Antonio Palopo	6	Junio	2023-02-06T00:00:00	2024-11-08T23:00:00	2	Temperatura media	20.4
174766	7	Sololá	712	San Antonio Palopó	9	San Antonio Palopo	6	Junio	2023-02-06T00:00:00	2024-11-08T23:00:00	4	Temperatura máxima	20.9
174767	7	Sololá	712	San Antonio Palopó	9	San Antonio Palopo	6	Junio	2023-02-06T00:00:00	2024-11-08T23:00:00	3	Temperatura mínima	20.4
174768	7	Sololá	712	San Antonio Palopó	9	San Antonio Palopo	6	Junio	2023-02-06T00:00:00	2024-11-08T23:00:00	5	Humedad	83
174769	7	Sololá	712	San Antonio Palopó	9	San Antonio Palopo	6	Junio	2023-02-06T00:00:00	2024-11-08T23:00:00	6	Velocidad del viento	1.6
174770	7	Sololá	712	San Antonio Palopó	9	San Antonio Palopo	6	Junio	2023-02-06T00:00:00	2024-11-08T23:00:00	7	Dirección del viento	1.61
174771	7	Sololá	712	San Antonio Palopó	9	San Antonio Palopo	6	Junio	2023-02-06T00:00:00	2024-11-08T23:00:00	1	Precipitación	0
174772	7	Sololá	712	San Antonio Palopó	9	San Antonio Palopo	6	Junio	2023-02-06T00:00:00	2024-11-08T23:00:00	8	Radiación solar	0
174773	7	Sololá	712	San Antonio Palopó	9	San Antonio Palopo	6	Junio	2023-03-06T00:00:00	2024-11-08T00:00:00	2	Temperatura media	20.1
174774	7	Sololá	712	San Antonio Palopó	9	San Antonio Palopo	6	Junio	2023-03-06T00:00:00	2024-11-08T00:00:00	4	Temperatura máxima	20.4
174775	7	Sololá	712	San Antonio Palopó	9	San Antonio Palopo	6	Junio	2023-03-06T00:00:00	2024-11-08T00:00:00	3	Temperatura mínima	19.8
174776	7	Sololá	712	San Antonio Palopó	9	San Antonio Palopo	6	Junio	2023-03-06T00:00:00	2024-11-08T00:00:00	5	Humedad	85
174777	7	Sololá	712	San Antonio Palopó	9	San Antonio Palopo	6	Junio	2023-03-06T00:00:00	2024-11-08T00:00:00	6	Velocidad del viento	3.2
174778	7	Sololá	712	San Antonio Palopó	9	San Antonio Palopo	6	Junio	2023-03-06T00:00:00	2024-11-08T00:00:00	7	Dirección del viento	3.22
174779	7	Sololá	712	San Antonio Palopó	9	San Antonio Palopo	6	Junio	2023-03-06T00:00:00	2024-11-08T00:00:00	1	Precipitación	0
174780	7	Sololá	712	San Antonio Palopó	9	San Antonio Palopo	6	Junio	2023-03-06T00:00:00	2024-11-08T00:00:00	8	Radiación solar	0
174781	7	Sololá	712	San Antonio Palopó	9	San Antonio Palopo	6	Junio	2023-03-06T00:00:00	2024-11-08T01:00:00	2	Temperatura media	19.4
174782	7	Sololá	712	San Antonio Palopó	9	San Antonio Palopo	6	Junio	2023-03-06T00:00:00	2024-11-08T01:00:00	4	Temperatura máxima	20.2
174783	7	Sololá	712	San Antonio Palopó	9	San Antonio Palopo	6	Junio	2023-03-06T00:00:00	2024-11-08T01:00:00	3	Temperatura mínima	19.4
174784	7	Sololá	712	San Antonio Palopó	9	San Antonio Palopo	6	Junio	2023-03-06T00:00:00	2024-11-08T01:00:00	5	Humedad	86
174785	7	Sololá	712	San Antonio Palopó	9	San Antonio Palopo	6	Junio	2023-03-06T00:00:00	2024-11-08T01:00:00	6	Velocidad del viento	3.2
174786	7	Sololá	712	San Antonio Palopó	9	San Antonio Palopo	6	Junio	2023-03-06T00:00:00	2024-11-08T01:00:00	7	Dirección del viento	3.22
174787	7	Sololá	712	San Antonio Palopó	9	San Antonio Palopo	6	Junio	2023-03-06T00:00:00	2024-11-08T01:00:00	1	Precipitación	0
174788	7	Sololá	712	San Antonio Palopó	9	San Antonio Palopo	6	Junio	2023-03-06T00:00:00	2024-11-08T01:00:00	8	Radiación solar	0
174789	7	Sololá	712	San Antonio Palopó	9	San Antonio Palopo	6	Junio	2023-03-06T00:00:00	2024-11-08T02:00:00	2	Temperatura media	20.2
174790	7	Sololá	712	San Antonio Palopó	9	San Antonio Palopo	6	Junio	2023-03-06T00:00:00	2024-11-08T02:00:00	4	Temperatura máxima	20.2
174791	7	Sololá	712	San Antonio Palopó	9	San Antonio Palopo	6	Junio	2023-03-06T00:00:00	2024-11-08T02:00:00	3	Temperatura mínima	19.3
174792	7	Sololá	712	San Antonio Palopó	9	San Antonio Palopo	6	Junio	2023-03-06T00:00:00	2024-11-08T02:00:00	5	Humedad	79
174793	7	Sololá	712	San Antonio Palopó	9	San Antonio Palopo	6	Junio	2023-03-06T00:00:00	2024-11-08T02:00:00	6	Velocidad del viento	3.2
174794	7	Sololá	712	San Antonio Palopó	9	San Antonio Palopo	6	Junio	2023-03-06T00:00:00	2024-11-08T02:00:00	7	Dirección del viento	3.22
174795	7	Sololá	712	San Antonio Palopó	9	San Antonio Palopo	6	Junio	2023-03-06T00:00:00	2024-11-08T02:00:00	1	Precipitación	0
174796	7	Sololá	712	San Antonio Palopó	9	San Antonio Palopo	6	Junio	2023-03-06T00:00:00	2024-11-08T02:00:00	8	Radiación solar	0
174797	7	Sololá	712	San Antonio Palopó	9	San Antonio Palopo	6	Junio	2023-03-06T00:00:00	2024-11-08T03:00:00	2	Temperatura media	20.3
174798	7	Sololá	712	San Antonio Palopó	9	San Antonio Palopo	6	Junio	2023-03-06T00:00:00	2024-11-08T03:00:00	4	Temperatura máxima	20.4
174799	7	Sololá	712	San Antonio Palopó	9	San Antonio Palopo	6	Junio	2023-03-06T00:00:00	2024-11-08T03:00:00	3	Temperatura mínima	20.2
174800	7	Sololá	712	San Antonio Palopó	9	San Antonio Palopo	6	Junio	2023-03-06T00:00:00	2024-11-08T03:00:00	5	Humedad	77
174801	7	Sololá	712	San Antonio Palopó	9	San Antonio Palopo	6	Junio	2023-03-06T00:00:00	2024-11-08T03:00:00	6	Velocidad del viento	6.4
174802	7	Sololá	712	San Antonio Palopó	9	San Antonio Palopo	6	Junio	2023-03-06T00:00:00	2024-11-08T03:00:00	7	Dirección del viento	6.44
174803	7	Sololá	712	San Antonio Palopó	9	San Antonio Palopo	6	Junio	2023-03-06T00:00:00	2024-11-08T03:00:00	1	Precipitación	0
174804	7	Sololá	712	San Antonio Palopó	9	San Antonio Palopo	6	Junio	2023-03-06T00:00:00	2024-11-08T03:00:00	8	Radiación solar	0
174805	7	Sololá	712	San Antonio Palopó	9	San Antonio Palopo	6	Junio	2023-03-06T00:00:00	2024-11-08T04:00:00	2	Temperatura media	19.1
174806	7	Sololá	712	San Antonio Palopó	9	San Antonio Palopo	6	Junio	2023-03-06T00:00:00	2024-11-08T04:00:00	4	Temperatura máxima	20.6
174807	7	Sololá	712	San Antonio Palopó	9	San Antonio Palopo	6	Junio	2023-03-06T00:00:00	2024-11-08T04:00:00	3	Temperatura mínima	19
174808	7	Sololá	712	San Antonio Palopó	9	San Antonio Palopo	6	Junio	2023-03-06T00:00:00	2024-11-08T04:00:00	5	Humedad	84
174809	7	Sololá	712	San Antonio Palopó	9	San Antonio Palopo	6	Junio	2023-03-06T00:00:00	2024-11-08T04:00:00	6	Velocidad del viento	3.2
174810	7	Sololá	712	San Antonio Palopó	9	San Antonio Palopo	6	Junio	2023-03-06T00:00:00	2024-11-08T04:00:00	7	Dirección del viento	3.22
174811	7	Sololá	712	San Antonio Palopó	9	San Antonio Palopo	6	Junio	2023-03-06T00:00:00	2024-11-08T04:00:00	1	Precipitación	0
174812	7	Sololá	712	San Antonio Palopó	9	San Antonio Palopo	6	Junio	2023-03-06T00:00:00	2024-11-08T04:00:00	8	Radiación solar	0
174813	7	Sololá	712	San Antonio Palopó	9	San Antonio Palopo	6	Junio	2023-03-06T00:00:00	2024-11-08T05:00:00	2	Temperatura media	20.2
174814	7	Sololá	712	San Antonio Palopó	9	San Antonio Palopo	6	Junio	2023-03-06T00:00:00	2024-11-08T05:00:00	4	Temperatura máxima	20.2
174815	7	Sololá	712	San Antonio Palopó	9	San Antonio Palopo	6	Junio	2023-03-06T00:00:00	2024-11-08T05:00:00	3	Temperatura mínima	19
174816	7	Sololá	712	San Antonio Palopó	9	San Antonio Palopo	6	Junio	2023-03-06T00:00:00	2024-11-08T05:00:00	5	Humedad	76
174817	7	Sololá	712	San Antonio Palopó	9	San Antonio Palopo	6	Junio	2023-03-06T00:00:00	2024-11-08T05:00:00	6	Velocidad del viento	4.8
174818	7	Sololá	712	San Antonio Palopó	9	San Antonio Palopo	6	Junio	2023-03-06T00:00:00	2024-11-08T05:00:00	7	Dirección del viento	4.83
174819	7	Sololá	712	San Antonio Palopó	9	San Antonio Palopo	6	Junio	2023-03-06T00:00:00	2024-11-08T05:00:00	1	Precipitación	0
174820	7	Sololá	712	San Antonio Palopó	9	San Antonio Palopo	6	Junio	2023-03-06T00:00:00	2024-11-08T05:00:00	8	Radiación solar	0
174821	7	Sololá	712	San Antonio Palopó	9	San Antonio Palopo	6	Junio	2023-03-06T00:00:00	2024-11-08T06:00:00	2	Temperatura media	19.7
174822	7	Sololá	712	San Antonio Palopó	9	San Antonio Palopo	6	Junio	2023-03-06T00:00:00	2024-11-08T06:00:00	4	Temperatura máxima	20.2
174823	7	Sololá	712	San Antonio Palopó	9	San Antonio Palopo	6	Junio	2023-03-06T00:00:00	2024-11-08T06:00:00	3	Temperatura mínima	19.4
174824	7	Sololá	712	San Antonio Palopó	9	San Antonio Palopo	6	Junio	2023-03-06T00:00:00	2024-11-08T06:00:00	5	Humedad	76
174825	7	Sololá	712	San Antonio Palopó	9	San Antonio Palopo	6	Junio	2023-03-06T00:00:00	2024-11-08T06:00:00	6	Velocidad del viento	4.8
174826	7	Sololá	712	San Antonio Palopó	9	San Antonio Palopo	6	Junio	2023-03-06T00:00:00	2024-11-08T06:00:00	7	Dirección del viento	4.83
174827	7	Sololá	712	San Antonio Palopó	9	San Antonio Palopo	6	Junio	2023-03-06T00:00:00	2024-11-08T06:00:00	1	Precipitación	0
174828	7	Sololá	712	San Antonio Palopó	9	San Antonio Palopo	6	Junio	2023-03-06T00:00:00	2024-11-08T06:00:00	8	Radiación solar	6
174829	7	Sololá	712	San Antonio Palopó	9	San Antonio Palopo	6	Junio	2023-03-06T00:00:00	2024-11-08T07:00:00	2	Temperatura media	20.3
174830	7	Sololá	712	San Antonio Palopó	9	San Antonio Palopo	6	Junio	2023-03-06T00:00:00	2024-11-08T07:00:00	4	Temperatura máxima	20.4
174831	7	Sololá	712	San Antonio Palopó	9	San Antonio Palopo	6	Junio	2023-03-06T00:00:00	2024-11-08T07:00:00	3	Temperatura mínima	19.7
174832	7	Sololá	712	San Antonio Palopó	9	San Antonio Palopo	6	Junio	2023-03-06T00:00:00	2024-11-08T07:00:00	5	Humedad	80
174833	7	Sololá	712	San Antonio Palopó	9	San Antonio Palopo	6	Junio	2023-03-06T00:00:00	2024-11-08T07:00:00	6	Velocidad del viento	3.2
174834	7	Sololá	712	San Antonio Palopó	9	San Antonio Palopo	6	Junio	2023-03-06T00:00:00	2024-11-08T07:00:00	7	Dirección del viento	3.22
174835	7	Sololá	712	San Antonio Palopó	9	San Antonio Palopo	6	Junio	2023-03-06T00:00:00	2024-11-08T07:00:00	1	Precipitación	0
174836	7	Sololá	712	San Antonio Palopó	9	San Antonio Palopo	6	Junio	2023-03-06T00:00:00	2024-11-08T07:00:00	8	Radiación solar	70
174837	7	Sololá	712	San Antonio Palopó	9	San Antonio Palopo	6	Junio	2023-03-06T00:00:00	2024-11-08T08:00:00	2	Temperatura media	22
174838	7	Sololá	712	San Antonio Palopó	9	San Antonio Palopo	6	Junio	2023-03-06T00:00:00	2024-11-08T08:00:00	4	Temperatura máxima	22.1
174839	7	Sololá	712	San Antonio Palopó	9	San Antonio Palopo	6	Junio	2023-03-06T00:00:00	2024-11-08T08:00:00	3	Temperatura mínima	20.2
174840	7	Sololá	712	San Antonio Palopó	9	San Antonio Palopo	6	Junio	2023-03-06T00:00:00	2024-11-08T08:00:00	5	Humedad	77
174841	7	Sololá	712	San Antonio Palopó	9	San Antonio Palopo	6	Junio	2023-03-06T00:00:00	2024-11-08T08:00:00	6	Velocidad del viento	1.6
174842	7	Sololá	712	San Antonio Palopó	9	San Antonio Palopo	6	Junio	2023-03-06T00:00:00	2024-11-08T08:00:00	7	Dirección del viento	1.61
174843	7	Sololá	712	San Antonio Palopó	9	San Antonio Palopo	6	Junio	2023-03-06T00:00:00	2024-11-08T08:00:00	1	Precipitación	0
174844	7	Sololá	712	San Antonio Palopó	9	San Antonio Palopo	6	Junio	2023-03-06T00:00:00	2024-11-08T08:00:00	8	Radiación solar	230
174845	7	Sololá	712	San Antonio Palopó	9	San Antonio Palopo	6	Junio	2023-03-06T00:00:00	2024-11-08T09:00:00	2	Temperatura media	21.9
174846	7	Sololá	712	San Antonio Palopó	9	San Antonio Palopo	6	Junio	2023-03-06T00:00:00	2024-11-08T09:00:00	4	Temperatura máxima	22
174847	7	Sololá	712	San Antonio Palopó	9	San Antonio Palopo	6	Junio	2023-03-06T00:00:00	2024-11-08T09:00:00	3	Temperatura mínima	21.7
174848	7	Sololá	712	San Antonio Palopó	9	San Antonio Palopo	6	Junio	2023-03-06T00:00:00	2024-11-08T09:00:00	5	Humedad	78
174849	7	Sololá	712	San Antonio Palopó	9	San Antonio Palopo	6	Junio	2023-03-06T00:00:00	2024-11-08T09:00:00	6	Velocidad del viento	1.6
174850	7	Sololá	712	San Antonio Palopó	9	San Antonio Palopo	6	Junio	2023-03-06T00:00:00	2024-11-08T09:00:00	7	Dirección del viento	1.61
174851	7	Sololá	712	San Antonio Palopó	9	San Antonio Palopo	6	Junio	2023-03-06T00:00:00	2024-11-08T09:00:00	1	Precipitación	0
174852	7	Sololá	712	San Antonio Palopó	9	San Antonio Palopo	6	Junio	2023-03-06T00:00:00	2024-11-08T09:00:00	8	Radiación solar	372
174853	7	Sololá	712	San Antonio Palopó	9	San Antonio Palopo	6	Junio	2023-03-06T00:00:00	2024-11-08T10:00:00	2	Temperatura media	22.9
174854	7	Sololá	712	San Antonio Palopó	9	San Antonio Palopo	6	Junio	2023-03-06T00:00:00	2024-11-08T10:00:00	4	Temperatura máxima	22.9
174855	7	Sololá	712	San Antonio Palopó	9	San Antonio Palopo	6	Junio	2023-03-06T00:00:00	2024-11-08T10:00:00	3	Temperatura mínima	21.9
174856	7	Sololá	712	San Antonio Palopó	9	San Antonio Palopo	6	Junio	2023-03-06T00:00:00	2024-11-08T10:00:00	5	Humedad	75
174857	7	Sololá	712	San Antonio Palopó	9	San Antonio Palopo	6	Junio	2023-03-06T00:00:00	2024-11-08T10:00:00	6	Velocidad del viento	3.2
174858	7	Sololá	712	San Antonio Palopó	9	San Antonio Palopo	6	Junio	2023-03-06T00:00:00	2024-11-08T10:00:00	7	Dirección del viento	3.22
174859	7	Sololá	712	San Antonio Palopó	9	San Antonio Palopo	6	Junio	2023-03-06T00:00:00	2024-11-08T10:00:00	1	Precipitación	0
174860	7	Sololá	712	San Antonio Palopó	9	San Antonio Palopo	6	Junio	2023-03-06T00:00:00	2024-11-08T10:00:00	8	Radiación solar	581
174861	7	Sololá	712	San Antonio Palopó	9	San Antonio Palopo	6	Junio	2023-03-06T00:00:00	2024-11-08T11:00:00	2	Temperatura media	24.2
174862	7	Sololá	712	San Antonio Palopó	9	San Antonio Palopo	6	Junio	2023-03-06T00:00:00	2024-11-08T11:00:00	4	Temperatura máxima	24.2
174863	7	Sololá	712	San Antonio Palopó	9	San Antonio Palopo	6	Junio	2023-03-06T00:00:00	2024-11-08T11:00:00	3	Temperatura mínima	22.9
174864	7	Sololá	712	San Antonio Palopó	9	San Antonio Palopo	6	Junio	2023-03-06T00:00:00	2024-11-08T11:00:00	5	Humedad	73
174865	7	Sololá	712	San Antonio Palopó	9	San Antonio Palopo	6	Junio	2023-03-06T00:00:00	2024-11-08T11:00:00	6	Velocidad del viento	3.2
174866	7	Sololá	712	San Antonio Palopó	9	San Antonio Palopo	6	Junio	2023-03-06T00:00:00	2024-11-08T11:00:00	7	Dirección del viento	3.22
174867	7	Sololá	712	San Antonio Palopó	9	San Antonio Palopo	6	Junio	2023-03-06T00:00:00	2024-11-08T11:00:00	1	Precipitación	0
174868	7	Sololá	712	San Antonio Palopó	9	San Antonio Palopo	6	Junio	2023-03-06T00:00:00	2024-11-08T11:00:00	8	Radiación solar	814
174869	7	Sololá	712	San Antonio Palopó	9	San Antonio Palopo	6	Junio	2023-03-06T00:00:00	2024-11-08T12:00:00	2	Temperatura media	24.3
174870	7	Sololá	712	San Antonio Palopó	9	San Antonio Palopo	6	Junio	2023-03-06T00:00:00	2024-11-08T12:00:00	4	Temperatura máxima	25.2
174871	7	Sololá	712	San Antonio Palopó	9	San Antonio Palopo	6	Junio	2023-03-06T00:00:00	2024-11-08T12:00:00	3	Temperatura mínima	24.1
174872	7	Sololá	712	San Antonio Palopó	9	San Antonio Palopo	6	Junio	2023-03-06T00:00:00	2024-11-08T12:00:00	5	Humedad	73
174873	7	Sololá	712	San Antonio Palopó	9	San Antonio Palopo	6	Junio	2023-03-06T00:00:00	2024-11-08T12:00:00	6	Velocidad del viento	6.4
174874	7	Sololá	712	San Antonio Palopó	9	San Antonio Palopo	6	Junio	2023-03-06T00:00:00	2024-11-08T12:00:00	7	Dirección del viento	6.44
174875	7	Sololá	712	San Antonio Palopó	9	San Antonio Palopo	6	Junio	2023-03-06T00:00:00	2024-11-08T12:00:00	1	Precipitación	0
174876	7	Sololá	712	San Antonio Palopó	9	San Antonio Palopo	6	Junio	2023-03-06T00:00:00	2024-11-08T12:00:00	8	Radiación solar	742
174877	7	Sololá	712	San Antonio Palopó	9	San Antonio Palopo	6	Junio	2023-03-06T00:00:00	2024-11-08T13:00:00	2	Temperatura media	24.2
174878	7	Sololá	712	San Antonio Palopó	9	San Antonio Palopo	6	Junio	2023-03-06T00:00:00	2024-11-08T13:00:00	4	Temperatura máxima	24.3
174879	7	Sololá	712	San Antonio Palopó	9	San Antonio Palopo	6	Junio	2023-03-06T00:00:00	2024-11-08T13:00:00	3	Temperatura mínima	23.6
174880	7	Sololá	712	San Antonio Palopó	9	San Antonio Palopo	6	Junio	2023-03-06T00:00:00	2024-11-08T13:00:00	5	Humedad	75
174881	7	Sololá	712	San Antonio Palopó	9	San Antonio Palopo	6	Junio	2023-03-06T00:00:00	2024-11-08T13:00:00	6	Velocidad del viento	8
174882	7	Sololá	712	San Antonio Palopó	9	San Antonio Palopo	6	Junio	2023-03-06T00:00:00	2024-11-08T13:00:00	7	Dirección del viento	8.05
174883	7	Sololá	712	San Antonio Palopó	9	San Antonio Palopo	6	Junio	2023-03-06T00:00:00	2024-11-08T13:00:00	1	Precipitación	0
174884	7	Sololá	712	San Antonio Palopó	9	San Antonio Palopo	6	Junio	2023-03-06T00:00:00	2024-11-08T13:00:00	8	Radiación solar	367
174885	7	Sololá	712	San Antonio Palopó	9	San Antonio Palopo	6	Junio	2023-03-06T00:00:00	2024-11-08T14:00:00	2	Temperatura media	24.3
174886	7	Sololá	712	San Antonio Palopó	9	San Antonio Palopo	6	Junio	2023-03-06T00:00:00	2024-11-08T14:00:00	4	Temperatura máxima	24.7
174887	7	Sololá	712	San Antonio Palopó	9	San Antonio Palopo	6	Junio	2023-03-06T00:00:00	2024-11-08T14:00:00	3	Temperatura mínima	24
174888	7	Sololá	712	San Antonio Palopó	9	San Antonio Palopo	6	Junio	2023-03-06T00:00:00	2024-11-08T14:00:00	5	Humedad	74
174889	7	Sololá	712	San Antonio Palopó	9	San Antonio Palopo	6	Junio	2023-03-06T00:00:00	2024-11-08T14:00:00	6	Velocidad del viento	8
174890	7	Sololá	712	San Antonio Palopó	9	San Antonio Palopo	6	Junio	2023-03-06T00:00:00	2024-11-08T14:00:00	7	Dirección del viento	8.05
174891	7	Sololá	712	San Antonio Palopó	9	San Antonio Palopo	6	Junio	2023-03-06T00:00:00	2024-11-08T14:00:00	1	Precipitación	0
174892	7	Sololá	712	San Antonio Palopó	9	San Antonio Palopo	6	Junio	2023-03-06T00:00:00	2024-11-08T14:00:00	8	Radiación solar	614
174893	7	Sololá	712	San Antonio Palopó	9	San Antonio Palopo	6	Junio	2023-03-06T00:00:00	2024-11-08T15:00:00	2	Temperatura media	24
174894	7	Sololá	712	San Antonio Palopó	9	San Antonio Palopo	6	Junio	2023-03-06T00:00:00	2024-11-08T15:00:00	4	Temperatura máxima	25.3
174895	7	Sololá	712	San Antonio Palopó	9	San Antonio Palopo	6	Junio	2023-03-06T00:00:00	2024-11-08T15:00:00	3	Temperatura mínima	24
174896	7	Sololá	712	San Antonio Palopó	9	San Antonio Palopo	6	Junio	2023-03-06T00:00:00	2024-11-08T15:00:00	5	Humedad	75
174897	7	Sololá	712	San Antonio Palopó	9	San Antonio Palopo	6	Junio	2023-03-06T00:00:00	2024-11-08T15:00:00	6	Velocidad del viento	6.4
174898	7	Sololá	712	San Antonio Palopó	9	San Antonio Palopo	6	Junio	2023-03-06T00:00:00	2024-11-08T15:00:00	7	Dirección del viento	6.44
174899	7	Sololá	712	San Antonio Palopó	9	San Antonio Palopo	6	Junio	2023-03-06T00:00:00	2024-11-08T15:00:00	1	Precipitación	0
174900	7	Sololá	712	San Antonio Palopó	9	San Antonio Palopo	6	Junio	2023-03-06T00:00:00	2024-11-08T15:00:00	8	Radiación solar	590
174901	7	Sololá	712	San Antonio Palopó	9	San Antonio Palopo	6	Junio	2023-03-06T00:00:00	2024-11-08T16:00:00	2	Temperatura media	23.6
174902	7	Sololá	712	San Antonio Palopó	9	San Antonio Palopo	6	Junio	2023-03-06T00:00:00	2024-11-08T16:00:00	4	Temperatura máxima	24.1
174903	7	Sololá	712	San Antonio Palopó	9	San Antonio Palopo	6	Junio	2023-03-06T00:00:00	2024-11-08T16:00:00	3	Temperatura mínima	23.4
174904	7	Sololá	712	San Antonio Palopó	9	San Antonio Palopo	6	Junio	2023-03-06T00:00:00	2024-11-08T16:00:00	5	Humedad	78
174905	7	Sololá	712	San Antonio Palopó	9	San Antonio Palopo	6	Junio	2023-03-06T00:00:00	2024-11-08T16:00:00	6	Velocidad del viento	6.4
174906	7	Sololá	712	San Antonio Palopó	9	San Antonio Palopo	6	Junio	2023-03-06T00:00:00	2024-11-08T16:00:00	7	Dirección del viento	6.44
174907	7	Sololá	712	San Antonio Palopó	9	San Antonio Palopo	6	Junio	2023-03-06T00:00:00	2024-11-08T16:00:00	1	Precipitación	0
174908	7	Sololá	712	San Antonio Palopó	9	San Antonio Palopo	6	Junio	2023-03-06T00:00:00	2024-11-08T16:00:00	8	Radiación solar	286
174909	7	Sololá	712	San Antonio Palopó	9	San Antonio Palopo	6	Junio	2023-03-06T00:00:00	2024-11-08T17:00:00	2	Temperatura media	22.4
174910	7	Sololá	712	San Antonio Palopó	9	San Antonio Palopo	6	Junio	2023-03-06T00:00:00	2024-11-08T17:00:00	4	Temperatura máxima	23.6
174911	7	Sololá	712	San Antonio Palopó	9	San Antonio Palopo	6	Junio	2023-03-06T00:00:00	2024-11-08T17:00:00	3	Temperatura mínima	22.3
174912	7	Sololá	712	San Antonio Palopó	9	San Antonio Palopo	6	Junio	2023-03-06T00:00:00	2024-11-08T17:00:00	5	Humedad	81
174913	7	Sololá	712	San Antonio Palopó	9	San Antonio Palopo	6	Junio	2023-03-06T00:00:00	2024-11-08T17:00:00	6	Velocidad del viento	8
174914	7	Sololá	712	San Antonio Palopó	9	San Antonio Palopo	6	Junio	2023-03-06T00:00:00	2024-11-08T17:00:00	7	Dirección del viento	8.05
174915	7	Sololá	712	San Antonio Palopó	9	San Antonio Palopo	6	Junio	2023-03-06T00:00:00	2024-11-08T17:00:00	1	Precipitación	0
174916	7	Sololá	712	San Antonio Palopó	9	San Antonio Palopo	6	Junio	2023-03-06T00:00:00	2024-11-08T17:00:00	8	Radiación solar	100
174917	7	Sololá	712	San Antonio Palopó	9	San Antonio Palopo	6	Junio	2023-03-06T00:00:00	2024-11-08T18:00:00	2	Temperatura media	22.4
174918	7	Sololá	712	San Antonio Palopó	9	San Antonio Palopo	6	Junio	2023-03-06T00:00:00	2024-11-08T18:00:00	4	Temperatura máxima	22.6
174919	7	Sololá	712	San Antonio Palopó	9	San Antonio Palopo	6	Junio	2023-03-06T00:00:00	2024-11-08T18:00:00	3	Temperatura mínima	22.1
174920	7	Sololá	712	San Antonio Palopó	9	San Antonio Palopo	6	Junio	2023-03-06T00:00:00	2024-11-08T18:00:00	5	Humedad	81
174921	7	Sololá	712	San Antonio Palopó	9	San Antonio Palopo	6	Junio	2023-03-06T00:00:00	2024-11-08T18:00:00	6	Velocidad del viento	4.8
174922	7	Sololá	712	San Antonio Palopó	9	San Antonio Palopo	6	Junio	2023-03-06T00:00:00	2024-11-08T18:00:00	7	Dirección del viento	4.83
174923	7	Sololá	712	San Antonio Palopó	9	San Antonio Palopo	6	Junio	2023-03-06T00:00:00	2024-11-08T18:00:00	1	Precipitación	0
174924	7	Sololá	712	San Antonio Palopó	9	San Antonio Palopo	6	Junio	2023-03-06T00:00:00	2024-11-08T18:00:00	8	Radiación solar	48
174925	7	Sololá	712	San Antonio Palopó	9	San Antonio Palopo	6	Junio	2023-03-06T00:00:00	2024-11-08T19:00:00	2	Temperatura media	21.9
174926	7	Sololá	712	San Antonio Palopó	9	San Antonio Palopo	6	Junio	2023-03-06T00:00:00	2024-11-08T19:00:00	4	Temperatura máxima	22.4
174927	7	Sololá	712	San Antonio Palopó	9	San Antonio Palopo	6	Junio	2023-03-06T00:00:00	2024-11-08T19:00:00	3	Temperatura mínima	21.2
174928	7	Sololá	712	San Antonio Palopó	9	San Antonio Palopo	6	Junio	2023-03-06T00:00:00	2024-11-08T19:00:00	5	Humedad	84
174929	7	Sololá	712	San Antonio Palopó	9	San Antonio Palopo	6	Junio	2023-03-06T00:00:00	2024-11-08T19:00:00	6	Velocidad del viento	6.4
174930	7	Sololá	712	San Antonio Palopó	9	San Antonio Palopo	6	Junio	2023-03-06T00:00:00	2024-11-08T19:00:00	7	Dirección del viento	6.44
174931	7	Sololá	712	San Antonio Palopó	9	San Antonio Palopo	6	Junio	2023-03-06T00:00:00	2024-11-08T19:00:00	1	Precipitación	0
174932	7	Sololá	712	San Antonio Palopó	9	San Antonio Palopo	6	Junio	2023-03-06T00:00:00	2024-11-08T19:00:00	8	Radiación solar	0
174933	7	Sololá	712	San Antonio Palopó	9	San Antonio Palopo	6	Junio	2023-03-06T00:00:00	2024-11-08T20:00:00	2	Temperatura media	21.7
174934	7	Sololá	712	San Antonio Palopó	9	San Antonio Palopo	6	Junio	2023-03-06T00:00:00	2024-11-08T20:00:00	4	Temperatura máxima	21.9
174935	7	Sololá	712	San Antonio Palopó	9	San Antonio Palopo	6	Junio	2023-03-06T00:00:00	2024-11-08T20:00:00	3	Temperatura mínima	21.1
174936	7	Sololá	712	San Antonio Palopó	9	San Antonio Palopo	6	Junio	2023-03-06T00:00:00	2024-11-08T20:00:00	5	Humedad	83
174937	7	Sololá	712	San Antonio Palopó	9	San Antonio Palopo	6	Junio	2023-03-06T00:00:00	2024-11-08T20:00:00	6	Velocidad del viento	6.4
174938	7	Sololá	712	San Antonio Palopó	9	San Antonio Palopo	6	Junio	2023-03-06T00:00:00	2024-11-08T20:00:00	7	Dirección del viento	6.44
174939	7	Sololá	712	San Antonio Palopó	9	San Antonio Palopo	6	Junio	2023-03-06T00:00:00	2024-11-08T20:00:00	1	Precipitación	0
174940	7	Sololá	712	San Antonio Palopó	9	San Antonio Palopo	6	Junio	2023-03-06T00:00:00	2024-11-08T20:00:00	8	Radiación solar	0
174941	7	Sololá	712	San Antonio Palopó	9	San Antonio Palopo	6	Junio	2023-03-06T00:00:00	2024-11-08T21:00:00	2	Temperatura media	20.9
174942	7	Sololá	712	San Antonio Palopó	9	San Antonio Palopo	6	Junio	2023-03-06T00:00:00	2024-11-08T21:00:00	4	Temperatura máxima	21.7
174943	7	Sololá	712	San Antonio Palopó	9	San Antonio Palopo	6	Junio	2023-03-06T00:00:00	2024-11-08T21:00:00	3	Temperatura mínima	20.9
174944	7	Sololá	712	San Antonio Palopó	9	San Antonio Palopo	6	Junio	2023-03-06T00:00:00	2024-11-08T21:00:00	5	Humedad	82
174945	7	Sololá	712	San Antonio Palopó	9	San Antonio Palopo	6	Junio	2023-03-06T00:00:00	2024-11-08T21:00:00	6	Velocidad del viento	4.8
174946	7	Sololá	712	San Antonio Palopó	9	San Antonio Palopo	6	Junio	2023-03-06T00:00:00	2024-11-08T21:00:00	7	Dirección del viento	4.83
174947	7	Sololá	712	San Antonio Palopó	9	San Antonio Palopo	6	Junio	2023-03-06T00:00:00	2024-11-08T21:00:00	1	Precipitación	0
174948	7	Sololá	712	San Antonio Palopó	9	San Antonio Palopo	6	Junio	2023-03-06T00:00:00	2024-11-08T21:00:00	8	Radiación solar	0
174949	7	Sololá	712	San Antonio Palopó	9	San Antonio Palopo	6	Junio	2023-03-06T00:00:00	2024-11-08T22:00:00	2	Temperatura media	21.1
174950	7	Sololá	712	San Antonio Palopó	9	San Antonio Palopo	6	Junio	2023-03-06T00:00:00	2024-11-08T22:00:00	4	Temperatura máxima	21.3
174951	7	Sololá	712	San Antonio Palopó	9	San Antonio Palopo	6	Junio	2023-03-06T00:00:00	2024-11-08T22:00:00	3	Temperatura mínima	20.9
174952	7	Sololá	712	San Antonio Palopó	9	San Antonio Palopo	6	Junio	2023-03-06T00:00:00	2024-11-08T22:00:00	5	Humedad	81
174953	7	Sololá	712	San Antonio Palopó	9	San Antonio Palopo	6	Junio	2023-03-06T00:00:00	2024-11-08T22:00:00	6	Velocidad del viento	3.2
174954	7	Sololá	712	San Antonio Palopó	9	San Antonio Palopo	6	Junio	2023-03-06T00:00:00	2024-11-08T22:00:00	7	Dirección del viento	3.22
174955	7	Sololá	712	San Antonio Palopó	9	San Antonio Palopo	6	Junio	2023-03-06T00:00:00	2024-11-08T22:00:00	1	Precipitación	0
174956	7	Sololá	712	San Antonio Palopó	9	San Antonio Palopo	6	Junio	2023-03-06T00:00:00	2024-11-08T22:00:00	8	Radiación solar	0
174957	7	Sololá	712	San Antonio Palopó	9	San Antonio Palopo	6	Junio	2023-03-06T00:00:00	2024-11-08T23:00:00	2	Temperatura media	21
174958	7	Sololá	712	San Antonio Palopó	9	San Antonio Palopo	6	Junio	2023-03-06T00:00:00	2024-11-08T23:00:00	4	Temperatura máxima	21.3
174959	7	Sololá	712	San Antonio Palopó	9	San Antonio Palopo	6	Junio	2023-03-06T00:00:00	2024-11-08T23:00:00	3	Temperatura mínima	21
174960	7	Sololá	712	San Antonio Palopó	9	San Antonio Palopo	6	Junio	2023-03-06T00:00:00	2024-11-08T23:00:00	5	Humedad	83
174961	7	Sololá	712	San Antonio Palopó	9	San Antonio Palopo	6	Junio	2023-03-06T00:00:00	2024-11-08T23:00:00	6	Velocidad del viento	1.6
174962	7	Sololá	712	San Antonio Palopó	9	San Antonio Palopo	6	Junio	2023-03-06T00:00:00	2024-11-08T23:00:00	7	Dirección del viento	1.61
174963	7	Sololá	712	San Antonio Palopó	9	San Antonio Palopo	6	Junio	2023-03-06T00:00:00	2024-11-08T23:00:00	1	Precipitación	0
174964	7	Sololá	712	San Antonio Palopó	9	San Antonio Palopo	6	Junio	2023-03-06T00:00:00	2024-11-08T23:00:00	8	Radiación solar	0
174965	7	Sololá	712	San Antonio Palopó	9	San Antonio Palopo	6	Junio	2023-04-06T00:00:00	2024-11-08T00:00:00	2	Temperatura media	20.9
174966	7	Sololá	712	San Antonio Palopó	9	San Antonio Palopo	6	Junio	2023-04-06T00:00:00	2024-11-08T00:00:00	4	Temperatura máxima	21.1
174967	7	Sololá	712	San Antonio Palopó	9	San Antonio Palopo	6	Junio	2023-04-06T00:00:00	2024-11-08T00:00:00	3	Temperatura mínima	20.8
174968	7	Sololá	712	San Antonio Palopó	9	San Antonio Palopo	6	Junio	2023-04-06T00:00:00	2024-11-08T00:00:00	5	Humedad	84
174969	7	Sololá	712	San Antonio Palopó	9	San Antonio Palopo	6	Junio	2023-04-06T00:00:00	2024-11-08T00:00:00	6	Velocidad del viento	1.6
174970	7	Sololá	712	San Antonio Palopó	9	San Antonio Palopo	6	Junio	2023-04-06T00:00:00	2024-11-08T00:00:00	7	Dirección del viento	1.61
174971	7	Sololá	712	San Antonio Palopó	9	San Antonio Palopo	6	Junio	2023-04-06T00:00:00	2024-11-08T00:00:00	1	Precipitación	0
174972	7	Sololá	712	San Antonio Palopó	9	San Antonio Palopo	6	Junio	2023-04-06T00:00:00	2024-11-08T00:00:00	8	Radiación solar	0
174973	7	Sololá	712	San Antonio Palopó	9	San Antonio Palopo	6	Junio	2023-04-06T00:00:00	2024-11-08T01:00:00	2	Temperatura media	21.1
174974	7	Sololá	712	San Antonio Palopó	9	San Antonio Palopo	6	Junio	2023-04-06T00:00:00	2024-11-08T01:00:00	4	Temperatura máxima	21.3
174975	7	Sololá	712	San Antonio Palopó	9	San Antonio Palopo	6	Junio	2023-04-06T00:00:00	2024-11-08T01:00:00	3	Temperatura mínima	20.9
174976	7	Sololá	712	San Antonio Palopó	9	San Antonio Palopo	6	Junio	2023-04-06T00:00:00	2024-11-08T01:00:00	5	Humedad	80
174977	7	Sololá	712	San Antonio Palopó	9	San Antonio Palopo	6	Junio	2023-04-06T00:00:00	2024-11-08T01:00:00	6	Velocidad del viento	1.6
174978	7	Sololá	712	San Antonio Palopó	9	San Antonio Palopo	6	Junio	2023-04-06T00:00:00	2024-11-08T01:00:00	7	Dirección del viento	1.61
174979	7	Sololá	712	San Antonio Palopó	9	San Antonio Palopo	6	Junio	2023-04-06T00:00:00	2024-11-08T01:00:00	1	Precipitación	0
174980	7	Sololá	712	San Antonio Palopó	9	San Antonio Palopo	6	Junio	2023-04-06T00:00:00	2024-11-08T01:00:00	8	Radiación solar	0
174981	7	Sololá	712	San Antonio Palopó	9	San Antonio Palopo	6	Junio	2023-04-06T00:00:00	2024-11-08T02:00:00	2	Temperatura media	20.5
174982	7	Sololá	712	San Antonio Palopó	9	San Antonio Palopo	6	Junio	2023-04-06T00:00:00	2024-11-08T02:00:00	4	Temperatura máxima	21.1
174983	7	Sololá	712	San Antonio Palopó	9	San Antonio Palopo	6	Junio	2023-04-06T00:00:00	2024-11-08T02:00:00	3	Temperatura mínima	20.5
174984	7	Sololá	712	San Antonio Palopó	9	San Antonio Palopo	6	Junio	2023-04-06T00:00:00	2024-11-08T02:00:00	5	Humedad	82
174985	7	Sololá	712	San Antonio Palopó	9	San Antonio Palopo	6	Junio	2023-04-06T00:00:00	2024-11-08T02:00:00	6	Velocidad del viento	1.6
174986	7	Sololá	712	San Antonio Palopó	9	San Antonio Palopo	6	Junio	2023-04-06T00:00:00	2024-11-08T02:00:00	7	Dirección del viento	1.61
174987	7	Sololá	712	San Antonio Palopó	9	San Antonio Palopo	6	Junio	2023-04-06T00:00:00	2024-11-08T02:00:00	1	Precipitación	0
174988	7	Sololá	712	San Antonio Palopó	9	San Antonio Palopo	6	Junio	2023-04-06T00:00:00	2024-11-08T02:00:00	8	Radiación solar	0
174989	7	Sololá	712	San Antonio Palopó	9	San Antonio Palopo	6	Junio	2023-04-06T00:00:00	2024-11-08T03:00:00	2	Temperatura media	20.8
174990	7	Sololá	712	San Antonio Palopó	9	San Antonio Palopo	6	Junio	2023-04-06T00:00:00	2024-11-08T03:00:00	4	Temperatura máxima	20.8
174991	7	Sololá	712	San Antonio Palopó	9	San Antonio Palopo	6	Junio	2023-04-06T00:00:00	2024-11-08T03:00:00	3	Temperatura mínima	20.3
174992	7	Sololá	712	San Antonio Palopó	9	San Antonio Palopo	6	Junio	2023-04-06T00:00:00	2024-11-08T03:00:00	5	Humedad	81
174993	7	Sololá	712	San Antonio Palopó	9	San Antonio Palopo	6	Junio	2023-04-06T00:00:00	2024-11-08T03:00:00	6	Velocidad del viento	1.6
174994	7	Sololá	712	San Antonio Palopó	9	San Antonio Palopo	6	Junio	2023-04-06T00:00:00	2024-11-08T03:00:00	7	Dirección del viento	1.61
174995	7	Sololá	712	San Antonio Palopó	9	San Antonio Palopo	6	Junio	2023-04-06T00:00:00	2024-11-08T03:00:00	1	Precipitación	0
174996	7	Sololá	712	San Antonio Palopó	9	San Antonio Palopo	6	Junio	2023-04-06T00:00:00	2024-11-08T03:00:00	8	Radiación solar	0
174997	7	Sololá	712	San Antonio Palopó	9	San Antonio Palopo	6	Junio	2023-04-06T00:00:00	2024-11-08T04:00:00	2	Temperatura media	20.2
174998	7	Sololá	712	San Antonio Palopó	9	San Antonio Palopo	6	Junio	2023-04-06T00:00:00	2024-11-08T04:00:00	4	Temperatura máxima	20.8
174999	7	Sololá	712	San Antonio Palopó	9	San Antonio Palopo	6	Junio	2023-04-06T00:00:00	2024-11-08T04:00:00	3	Temperatura mínima	20.2
175000	7	Sololá	712	San Antonio Palopó	9	San Antonio Palopo	6	Junio	2023-04-06T00:00:00	2024-11-08T04:00:00	5	Humedad	81
175001	7	Sololá	712	San Antonio Palopó	9	San Antonio Palopo	6	Junio	2023-04-06T00:00:00	2024-11-08T04:00:00	6	Velocidad del viento	1.6
175002	7	Sololá	712	San Antonio Palopó	9	San Antonio Palopo	6	Junio	2023-04-06T00:00:00	2024-11-08T04:00:00	7	Dirección del viento	1.61
175003	7	Sololá	712	San Antonio Palopó	9	San Antonio Palopo	6	Junio	2023-04-06T00:00:00	2024-11-08T04:00:00	1	Precipitación	0
175004	7	Sololá	712	San Antonio Palopó	9	San Antonio Palopo	6	Junio	2023-04-06T00:00:00	2024-11-08T04:00:00	8	Radiación solar	0
175005	7	Sololá	712	San Antonio Palopó	9	San Antonio Palopo	6	Junio	2023-04-06T00:00:00	2024-11-08T05:00:00	2	Temperatura media	20.3
175006	7	Sololá	712	San Antonio Palopó	9	San Antonio Palopo	6	Junio	2023-04-06T00:00:00	2024-11-08T05:00:00	4	Temperatura máxima	20.6
175007	7	Sololá	712	San Antonio Palopó	9	San Antonio Palopo	6	Junio	2023-04-06T00:00:00	2024-11-08T05:00:00	3	Temperatura mínima	20.2
175008	7	Sololá	712	San Antonio Palopó	9	San Antonio Palopo	6	Junio	2023-04-06T00:00:00	2024-11-08T05:00:00	5	Humedad	80
175009	7	Sololá	712	San Antonio Palopó	9	San Antonio Palopo	6	Junio	2023-04-06T00:00:00	2024-11-08T05:00:00	6	Velocidad del viento	1.6
175010	7	Sololá	712	San Antonio Palopó	9	San Antonio Palopo	6	Junio	2023-04-06T00:00:00	2024-11-08T05:00:00	7	Dirección del viento	1.61
175011	7	Sololá	712	San Antonio Palopó	9	San Antonio Palopo	6	Junio	2023-04-06T00:00:00	2024-11-08T05:00:00	1	Precipitación	0
175012	7	Sololá	712	San Antonio Palopó	9	San Antonio Palopo	6	Junio	2023-04-06T00:00:00	2024-11-08T05:00:00	8	Radiación solar	0
175013	7	Sololá	712	San Antonio Palopó	9	San Antonio Palopo	6	Junio	2023-04-06T00:00:00	2024-11-08T06:00:00	2	Temperatura media	20.5
175014	7	Sololá	712	San Antonio Palopó	9	San Antonio Palopo	6	Junio	2023-04-06T00:00:00	2024-11-08T06:00:00	4	Temperatura máxima	20.5
175015	7	Sololá	712	San Antonio Palopó	9	San Antonio Palopo	6	Junio	2023-04-06T00:00:00	2024-11-08T06:00:00	3	Temperatura mínima	20.2
175016	7	Sololá	712	San Antonio Palopó	9	San Antonio Palopo	6	Junio	2023-04-06T00:00:00	2024-11-08T06:00:00	5	Humedad	79
175017	7	Sololá	712	San Antonio Palopó	9	San Antonio Palopo	6	Junio	2023-04-06T00:00:00	2024-11-08T06:00:00	6	Velocidad del viento	3.2
175018	7	Sololá	712	San Antonio Palopó	9	San Antonio Palopo	6	Junio	2023-04-06T00:00:00	2024-11-08T06:00:00	7	Dirección del viento	3.22
175019	7	Sololá	712	San Antonio Palopó	9	San Antonio Palopo	6	Junio	2023-04-06T00:00:00	2024-11-08T06:00:00	1	Precipitación	0
175020	7	Sololá	712	San Antonio Palopó	9	San Antonio Palopo	6	Junio	2023-04-06T00:00:00	2024-11-08T06:00:00	8	Radiación solar	4
175021	7	Sololá	712	San Antonio Palopó	9	San Antonio Palopo	6	Junio	2023-04-06T00:00:00	2024-11-08T07:00:00	2	Temperatura media	20.6
175022	7	Sololá	712	San Antonio Palopó	9	San Antonio Palopo	6	Junio	2023-04-06T00:00:00	2024-11-08T07:00:00	4	Temperatura máxima	20.6
175023	7	Sololá	712	San Antonio Palopó	9	San Antonio Palopo	6	Junio	2023-04-06T00:00:00	2024-11-08T07:00:00	3	Temperatura mínima	20.1
175024	7	Sololá	712	San Antonio Palopó	9	San Antonio Palopo	6	Junio	2023-04-06T00:00:00	2024-11-08T07:00:00	5	Humedad	82
175025	7	Sololá	712	San Antonio Palopó	9	San Antonio Palopo	6	Junio	2023-04-06T00:00:00	2024-11-08T07:00:00	6	Velocidad del viento	1.6
175026	7	Sololá	712	San Antonio Palopó	9	San Antonio Palopo	6	Junio	2023-04-06T00:00:00	2024-11-08T07:00:00	7	Dirección del viento	1.61
175027	7	Sololá	712	San Antonio Palopó	9	San Antonio Palopo	6	Junio	2023-04-06T00:00:00	2024-11-08T07:00:00	1	Precipitación	0
175028	7	Sololá	712	San Antonio Palopó	9	San Antonio Palopo	6	Junio	2023-04-06T00:00:00	2024-11-08T07:00:00	8	Radiación solar	63
175029	7	Sololá	712	San Antonio Palopó	9	San Antonio Palopo	6	Junio	2023-04-06T00:00:00	2024-11-08T08:00:00	2	Temperatura media	21.2
175030	7	Sololá	712	San Antonio Palopó	9	San Antonio Palopo	6	Junio	2023-04-06T00:00:00	2024-11-08T08:00:00	4	Temperatura máxima	21.2
175031	7	Sololá	712	San Antonio Palopó	9	San Antonio Palopo	6	Junio	2023-04-06T00:00:00	2024-11-08T08:00:00	3	Temperatura mínima	20.6
175032	7	Sololá	712	San Antonio Palopó	9	San Antonio Palopo	6	Junio	2023-04-06T00:00:00	2024-11-08T08:00:00	5	Humedad	82
175033	7	Sololá	712	San Antonio Palopó	9	San Antonio Palopo	6	Junio	2023-04-06T00:00:00	2024-11-08T08:00:00	6	Velocidad del viento	1.6
175034	7	Sololá	712	San Antonio Palopó	9	San Antonio Palopo	6	Junio	2023-04-06T00:00:00	2024-11-08T08:00:00	7	Dirección del viento	1.61
175035	7	Sololá	712	San Antonio Palopó	9	San Antonio Palopo	6	Junio	2023-04-06T00:00:00	2024-11-08T08:00:00	1	Precipitación	0
175036	7	Sololá	712	San Antonio Palopó	9	San Antonio Palopo	6	Junio	2023-04-06T00:00:00	2024-11-08T08:00:00	8	Radiación solar	183
175037	7	Sololá	712	San Antonio Palopó	9	San Antonio Palopo	6	Junio	2023-04-06T00:00:00	2024-11-08T09:00:00	2	Temperatura media	22.3
175038	7	Sololá	712	San Antonio Palopó	9	San Antonio Palopo	6	Junio	2023-04-06T00:00:00	2024-11-08T09:00:00	4	Temperatura máxima	22.3
175039	7	Sololá	712	San Antonio Palopó	9	San Antonio Palopo	6	Junio	2023-04-06T00:00:00	2024-11-08T09:00:00	3	Temperatura mínima	21.2
175040	7	Sololá	712	San Antonio Palopó	9	San Antonio Palopo	6	Junio	2023-04-06T00:00:00	2024-11-08T09:00:00	5	Humedad	78
175041	7	Sololá	712	San Antonio Palopó	9	San Antonio Palopo	6	Junio	2023-04-06T00:00:00	2024-11-08T09:00:00	6	Velocidad del viento	1.6
175042	7	Sololá	712	San Antonio Palopó	9	San Antonio Palopo	6	Junio	2023-04-06T00:00:00	2024-11-08T09:00:00	7	Dirección del viento	1.61
175043	7	Sololá	712	San Antonio Palopó	9	San Antonio Palopo	6	Junio	2023-04-06T00:00:00	2024-11-08T09:00:00	1	Precipitación	0
175044	7	Sololá	712	San Antonio Palopó	9	San Antonio Palopo	6	Junio	2023-04-06T00:00:00	2024-11-08T09:00:00	8	Radiación solar	468
175045	7	Sololá	712	San Antonio Palopó	9	San Antonio Palopo	6	Junio	2023-04-06T00:00:00	2024-11-08T10:00:00	2	Temperatura media	22.8
175046	7	Sololá	712	San Antonio Palopó	9	San Antonio Palopo	6	Junio	2023-04-06T00:00:00	2024-11-08T10:00:00	4	Temperatura máxima	22.8
175047	7	Sololá	712	San Antonio Palopó	9	San Antonio Palopo	6	Junio	2023-04-06T00:00:00	2024-11-08T10:00:00	3	Temperatura mínima	22.3
175048	7	Sololá	712	San Antonio Palopó	9	San Antonio Palopo	6	Junio	2023-04-06T00:00:00	2024-11-08T10:00:00	5	Humedad	75
175049	7	Sololá	712	San Antonio Palopó	9	San Antonio Palopo	6	Junio	2023-04-06T00:00:00	2024-11-08T10:00:00	6	Velocidad del viento	3.2
175050	7	Sololá	712	San Antonio Palopó	9	San Antonio Palopo	6	Junio	2023-04-06T00:00:00	2024-11-08T10:00:00	7	Dirección del viento	3.22
175051	7	Sololá	712	San Antonio Palopó	9	San Antonio Palopo	6	Junio	2023-04-06T00:00:00	2024-11-08T10:00:00	1	Precipitación	0
175052	7	Sololá	712	San Antonio Palopó	9	San Antonio Palopo	6	Junio	2023-04-06T00:00:00	2024-11-08T10:00:00	8	Radiación solar	698
175053	7	Sololá	712	San Antonio Palopó	9	San Antonio Palopo	6	Junio	2023-04-06T00:00:00	2024-11-08T11:00:00	2	Temperatura media	24.2
175054	7	Sololá	712	San Antonio Palopó	9	San Antonio Palopo	6	Junio	2023-04-06T00:00:00	2024-11-08T11:00:00	4	Temperatura máxima	24.2
175055	7	Sololá	712	San Antonio Palopó	9	San Antonio Palopo	6	Junio	2023-04-06T00:00:00	2024-11-08T11:00:00	3	Temperatura mínima	22.8
175056	7	Sololá	712	San Antonio Palopó	9	San Antonio Palopo	6	Junio	2023-04-06T00:00:00	2024-11-08T11:00:00	5	Humedad	69
175057	7	Sololá	712	San Antonio Palopó	9	San Antonio Palopo	6	Junio	2023-04-06T00:00:00	2024-11-08T11:00:00	6	Velocidad del viento	3.2
175058	7	Sololá	712	San Antonio Palopó	9	San Antonio Palopo	6	Junio	2023-04-06T00:00:00	2024-11-08T11:00:00	7	Dirección del viento	3.22
175059	7	Sololá	712	San Antonio Palopó	9	San Antonio Palopo	6	Junio	2023-04-06T00:00:00	2024-11-08T11:00:00	1	Precipitación	0
175060	7	Sololá	712	San Antonio Palopó	9	San Antonio Palopo	6	Junio	2023-04-06T00:00:00	2024-11-08T11:00:00	8	Radiación solar	812
175061	7	Sololá	712	San Antonio Palopó	9	San Antonio Palopo	6	Junio	2023-04-06T00:00:00	2024-11-08T12:00:00	2	Temperatura media	25.2
175062	7	Sololá	712	San Antonio Palopó	9	San Antonio Palopo	6	Junio	2023-04-06T00:00:00	2024-11-08T12:00:00	4	Temperatura máxima	25.2
175063	7	Sololá	712	San Antonio Palopó	9	San Antonio Palopo	6	Junio	2023-04-06T00:00:00	2024-11-08T12:00:00	3	Temperatura mínima	23.9
175064	7	Sololá	712	San Antonio Palopó	9	San Antonio Palopo	6	Junio	2023-04-06T00:00:00	2024-11-08T12:00:00	5	Humedad	68
175065	7	Sololá	712	San Antonio Palopó	9	San Antonio Palopo	6	Junio	2023-04-06T00:00:00	2024-11-08T12:00:00	6	Velocidad del viento	8
175066	7	Sololá	712	San Antonio Palopó	9	San Antonio Palopo	6	Junio	2023-04-06T00:00:00	2024-11-08T12:00:00	7	Dirección del viento	8.05
175067	7	Sololá	712	San Antonio Palopó	9	San Antonio Palopo	6	Junio	2023-04-06T00:00:00	2024-11-08T12:00:00	1	Precipitación	0
175068	7	Sololá	712	San Antonio Palopó	9	San Antonio Palopo	6	Junio	2023-04-06T00:00:00	2024-11-08T12:00:00	8	Radiación solar	901
175069	7	Sololá	712	San Antonio Palopó	9	San Antonio Palopo	6	Junio	2023-04-06T00:00:00	2024-11-08T13:00:00	2	Temperatura media	24.4
175070	7	Sololá	712	San Antonio Palopó	9	San Antonio Palopo	6	Junio	2023-04-06T00:00:00	2024-11-08T13:00:00	4	Temperatura máxima	25.3
175071	7	Sololá	712	San Antonio Palopó	9	San Antonio Palopo	6	Junio	2023-04-06T00:00:00	2024-11-08T13:00:00	3	Temperatura mínima	24.3
175072	7	Sololá	712	San Antonio Palopó	9	San Antonio Palopo	6	Junio	2023-04-06T00:00:00	2024-11-08T13:00:00	5	Humedad	72
175073	7	Sololá	712	San Antonio Palopó	9	San Antonio Palopo	6	Junio	2023-04-06T00:00:00	2024-11-08T13:00:00	6	Velocidad del viento	11.3
175074	7	Sololá	712	San Antonio Palopó	9	San Antonio Palopo	6	Junio	2023-04-06T00:00:00	2024-11-08T13:00:00	7	Dirección del viento	11.27
175075	7	Sololá	712	San Antonio Palopó	9	San Antonio Palopo	6	Junio	2023-04-06T00:00:00	2024-11-08T13:00:00	1	Precipitación	0
175076	7	Sololá	712	San Antonio Palopó	9	San Antonio Palopo	6	Junio	2023-04-06T00:00:00	2024-11-08T13:00:00	8	Radiación solar	846
175077	7	Sololá	712	San Antonio Palopó	9	San Antonio Palopo	6	Junio	2023-04-06T00:00:00	2024-11-08T14:00:00	2	Temperatura media	23.8
175078	7	Sololá	712	San Antonio Palopó	9	San Antonio Palopo	6	Junio	2023-04-06T00:00:00	2024-11-08T14:00:00	4	Temperatura máxima	24.5
175079	7	Sololá	712	San Antonio Palopó	9	San Antonio Palopo	6	Junio	2023-04-06T00:00:00	2024-11-08T14:00:00	3	Temperatura mínima	23.6
175080	7	Sololá	712	San Antonio Palopó	9	San Antonio Palopo	6	Junio	2023-04-06T00:00:00	2024-11-08T14:00:00	5	Humedad	74
175081	7	Sololá	712	San Antonio Palopó	9	San Antonio Palopo	6	Junio	2023-04-06T00:00:00	2024-11-08T14:00:00	6	Velocidad del viento	11.3
175082	7	Sololá	712	San Antonio Palopó	9	San Antonio Palopo	6	Junio	2023-04-06T00:00:00	2024-11-08T14:00:00	7	Dirección del viento	11.27
175083	7	Sololá	712	San Antonio Palopó	9	San Antonio Palopo	6	Junio	2023-04-06T00:00:00	2024-11-08T14:00:00	1	Precipitación	0
175084	7	Sololá	712	San Antonio Palopó	9	San Antonio Palopo	6	Junio	2023-04-06T00:00:00	2024-11-08T14:00:00	8	Radiación solar	483
175085	7	Sololá	712	San Antonio Palopó	9	San Antonio Palopo	6	Junio	2023-04-06T00:00:00	2024-11-08T15:00:00	2	Temperatura media	22.5
175086	7	Sololá	712	San Antonio Palopó	9	San Antonio Palopo	6	Junio	2023-04-06T00:00:00	2024-11-08T15:00:00	4	Temperatura máxima	23.9
175087	7	Sololá	712	San Antonio Palopó	9	San Antonio Palopo	6	Junio	2023-04-06T00:00:00	2024-11-08T15:00:00	3	Temperatura mínima	22.5
175088	7	Sololá	712	San Antonio Palopó	9	San Antonio Palopo	6	Junio	2023-04-06T00:00:00	2024-11-08T15:00:00	5	Humedad	78
175089	7	Sololá	712	San Antonio Palopó	9	San Antonio Palopo	6	Junio	2023-04-06T00:00:00	2024-11-08T15:00:00	6	Velocidad del viento	8
175090	7	Sololá	712	San Antonio Palopó	9	San Antonio Palopo	6	Junio	2023-04-06T00:00:00	2024-11-08T15:00:00	7	Dirección del viento	8.05
175091	7	Sololá	712	San Antonio Palopó	9	San Antonio Palopo	6	Junio	2023-04-06T00:00:00	2024-11-08T15:00:00	1	Precipitación	0
175092	7	Sololá	712	San Antonio Palopó	9	San Antonio Palopo	6	Junio	2023-04-06T00:00:00	2024-11-08T15:00:00	8	Radiación solar	187
175093	7	Sololá	712	San Antonio Palopó	9	San Antonio Palopo	6	Junio	2023-04-06T00:00:00	2024-11-08T16:00:00	2	Temperatura media	22.2
175094	7	Sololá	712	San Antonio Palopó	9	San Antonio Palopo	6	Junio	2023-04-06T00:00:00	2024-11-08T16:00:00	4	Temperatura máxima	22.6
175095	7	Sololá	712	San Antonio Palopó	9	San Antonio Palopo	6	Junio	2023-04-06T00:00:00	2024-11-08T16:00:00	3	Temperatura mínima	21.8
175096	7	Sololá	712	San Antonio Palopó	9	San Antonio Palopo	6	Junio	2023-04-06T00:00:00	2024-11-08T16:00:00	5	Humedad	79
175097	7	Sololá	712	San Antonio Palopó	9	San Antonio Palopo	6	Junio	2023-04-06T00:00:00	2024-11-08T16:00:00	6	Velocidad del viento	6.4
175098	7	Sololá	712	San Antonio Palopó	9	San Antonio Palopo	6	Junio	2023-04-06T00:00:00	2024-11-08T16:00:00	7	Dirección del viento	6.44
175099	7	Sololá	712	San Antonio Palopó	9	San Antonio Palopo	6	Junio	2023-04-06T00:00:00	2024-11-08T16:00:00	1	Precipitación	0
175100	7	Sololá	712	San Antonio Palopó	9	San Antonio Palopo	6	Junio	2023-04-06T00:00:00	2024-11-08T16:00:00	8	Radiación solar	16
175101	7	Sololá	712	San Antonio Palopó	9	San Antonio Palopo	6	Junio	2023-04-06T00:00:00	2024-11-08T17:00:00	2	Temperatura media	21.8
175102	7	Sololá	712	San Antonio Palopó	9	San Antonio Palopo	6	Junio	2023-04-06T00:00:00	2024-11-08T17:00:00	4	Temperatura máxima	22.2
175103	7	Sololá	712	San Antonio Palopó	9	San Antonio Palopo	6	Junio	2023-04-06T00:00:00	2024-11-08T17:00:00	3	Temperatura mínima	21
175104	7	Sololá	712	San Antonio Palopó	9	San Antonio Palopo	6	Junio	2023-04-06T00:00:00	2024-11-08T17:00:00	5	Humedad	79
175105	7	Sololá	712	San Antonio Palopó	9	San Antonio Palopo	6	Junio	2023-04-06T00:00:00	2024-11-08T17:00:00	6	Velocidad del viento	8
175106	7	Sololá	712	San Antonio Palopó	9	San Antonio Palopo	6	Junio	2023-04-06T00:00:00	2024-11-08T17:00:00	7	Dirección del viento	8.05
175107	7	Sololá	712	San Antonio Palopó	9	San Antonio Palopo	6	Junio	2023-04-06T00:00:00	2024-11-08T17:00:00	1	Precipitación	0
175108	7	Sololá	712	San Antonio Palopó	9	San Antonio Palopo	6	Junio	2023-04-06T00:00:00	2024-11-08T17:00:00	8	Radiación solar	6
175109	7	Sololá	712	San Antonio Palopó	9	San Antonio Palopo	6	Junio	2023-04-06T00:00:00	2024-11-08T18:00:00	2	Temperatura media	21.4
175110	7	Sololá	712	San Antonio Palopó	9	San Antonio Palopo	6	Junio	2023-04-06T00:00:00	2024-11-08T18:00:00	4	Temperatura máxima	22
175111	7	Sololá	712	San Antonio Palopó	9	San Antonio Palopo	6	Junio	2023-04-06T00:00:00	2024-11-08T18:00:00	3	Temperatura mínima	21.1
175112	7	Sololá	712	San Antonio Palopó	9	San Antonio Palopo	6	Junio	2023-04-06T00:00:00	2024-11-08T18:00:00	5	Humedad	82
175113	7	Sololá	712	San Antonio Palopó	9	San Antonio Palopo	6	Junio	2023-04-06T00:00:00	2024-11-08T18:00:00	6	Velocidad del viento	4.8
175114	7	Sololá	712	San Antonio Palopó	9	San Antonio Palopo	6	Junio	2023-04-06T00:00:00	2024-11-08T18:00:00	7	Dirección del viento	4.83
175115	7	Sololá	712	San Antonio Palopó	9	San Antonio Palopo	6	Junio	2023-04-06T00:00:00	2024-11-08T18:00:00	1	Precipitación	0
175116	7	Sololá	712	San Antonio Palopó	9	San Antonio Palopo	6	Junio	2023-04-06T00:00:00	2024-11-08T18:00:00	8	Radiación solar	11
175117	7	Sololá	712	San Antonio Palopó	9	San Antonio Palopo	6	Junio	2023-04-06T00:00:00	2024-11-08T19:00:00	2	Temperatura media	21.3
175118	7	Sololá	712	San Antonio Palopó	9	San Antonio Palopo	6	Junio	2023-04-06T00:00:00	2024-11-08T19:00:00	4	Temperatura máxima	21.6
175119	7	Sololá	712	San Antonio Palopó	9	San Antonio Palopo	6	Junio	2023-04-06T00:00:00	2024-11-08T19:00:00	3	Temperatura mínima	21.2
175120	7	Sololá	712	San Antonio Palopó	9	San Antonio Palopo	6	Junio	2023-04-06T00:00:00	2024-11-08T19:00:00	5	Humedad	81
175121	7	Sololá	712	San Antonio Palopó	9	San Antonio Palopo	6	Junio	2023-04-06T00:00:00	2024-11-08T19:00:00	6	Velocidad del viento	6.4
175122	7	Sololá	712	San Antonio Palopó	9	San Antonio Palopo	6	Junio	2023-04-06T00:00:00	2024-11-08T19:00:00	7	Dirección del viento	6.44
175123	7	Sololá	712	San Antonio Palopó	9	San Antonio Palopo	6	Junio	2023-04-06T00:00:00	2024-11-08T19:00:00	1	Precipitación	0
175124	7	Sololá	712	San Antonio Palopó	9	San Antonio Palopo	6	Junio	2023-04-06T00:00:00	2024-11-08T19:00:00	8	Radiación solar	0
175125	7	Sololá	712	San Antonio Palopó	9	San Antonio Palopo	6	Junio	2023-04-06T00:00:00	2024-11-08T20:00:00	2	Temperatura media	21.1
175126	7	Sololá	712	San Antonio Palopó	9	San Antonio Palopo	6	Junio	2023-04-06T00:00:00	2024-11-08T20:00:00	4	Temperatura máxima	21.3
175127	7	Sololá	712	San Antonio Palopó	9	San Antonio Palopo	6	Junio	2023-04-06T00:00:00	2024-11-08T20:00:00	3	Temperatura mínima	21.1
175128	7	Sololá	712	San Antonio Palopó	9	San Antonio Palopo	6	Junio	2023-04-06T00:00:00	2024-11-08T20:00:00	5	Humedad	77
175129	7	Sololá	712	San Antonio Palopó	9	San Antonio Palopo	6	Junio	2023-04-06T00:00:00	2024-11-08T20:00:00	6	Velocidad del viento	3.2
175130	7	Sololá	712	San Antonio Palopó	9	San Antonio Palopo	6	Junio	2023-04-06T00:00:00	2024-11-08T20:00:00	7	Dirección del viento	3.22
175131	7	Sololá	712	San Antonio Palopó	9	San Antonio Palopo	6	Junio	2023-04-06T00:00:00	2024-11-08T20:00:00	1	Precipitación	0
175132	7	Sololá	712	San Antonio Palopó	9	San Antonio Palopo	6	Junio	2023-04-06T00:00:00	2024-11-08T20:00:00	8	Radiación solar	0
175133	7	Sololá	712	San Antonio Palopó	9	San Antonio Palopo	6	Junio	2023-04-06T00:00:00	2024-11-08T21:00:00	2	Temperatura media	20.3
175134	7	Sololá	712	San Antonio Palopó	9	San Antonio Palopo	6	Junio	2023-04-06T00:00:00	2024-11-08T21:00:00	4	Temperatura máxima	21.1
175135	7	Sololá	712	San Antonio Palopó	9	San Antonio Palopo	6	Junio	2023-04-06T00:00:00	2024-11-08T21:00:00	3	Temperatura mínima	20.3
175136	7	Sololá	712	San Antonio Palopó	9	San Antonio Palopo	6	Junio	2023-04-06T00:00:00	2024-11-08T21:00:00	5	Humedad	82
175137	7	Sololá	712	San Antonio Palopó	9	San Antonio Palopo	6	Junio	2023-04-06T00:00:00	2024-11-08T21:00:00	6	Velocidad del viento	1.6
175138	7	Sololá	712	San Antonio Palopó	9	San Antonio Palopo	6	Junio	2023-04-06T00:00:00	2024-11-08T21:00:00	7	Dirección del viento	1.61
175139	7	Sololá	712	San Antonio Palopó	9	San Antonio Palopo	6	Junio	2023-04-06T00:00:00	2024-11-08T21:00:00	1	Precipitación	0
175140	7	Sololá	712	San Antonio Palopó	9	San Antonio Palopo	6	Junio	2023-04-06T00:00:00	2024-11-08T21:00:00	8	Radiación solar	0
175141	7	Sololá	712	San Antonio Palopó	9	San Antonio Palopo	6	Junio	2023-04-06T00:00:00	2024-11-08T22:00:00	2	Temperatura media	20.3
175142	7	Sololá	712	San Antonio Palopó	9	San Antonio Palopo	6	Junio	2023-04-06T00:00:00	2024-11-08T22:00:00	4	Temperatura máxima	20.3
175143	7	Sololá	712	San Antonio Palopó	9	San Antonio Palopo	6	Junio	2023-04-06T00:00:00	2024-11-08T22:00:00	3	Temperatura mínima	20
175144	7	Sololá	712	San Antonio Palopó	9	San Antonio Palopo	6	Junio	2023-04-06T00:00:00	2024-11-08T22:00:00	5	Humedad	81
175145	7	Sololá	712	San Antonio Palopó	9	San Antonio Palopo	6	Junio	2023-04-06T00:00:00	2024-11-08T22:00:00	6	Velocidad del viento	1.6
175146	7	Sololá	712	San Antonio Palopó	9	San Antonio Palopo	6	Junio	2023-04-06T00:00:00	2024-11-08T22:00:00	7	Dirección del viento	1.61
175147	7	Sololá	712	San Antonio Palopó	9	San Antonio Palopo	6	Junio	2023-04-06T00:00:00	2024-11-08T22:00:00	1	Precipitación	0
175148	7	Sololá	712	San Antonio Palopó	9	San Antonio Palopo	6	Junio	2023-04-06T00:00:00	2024-11-08T22:00:00	8	Radiación solar	0
175149	7	Sololá	712	San Antonio Palopó	9	San Antonio Palopo	6	Junio	2023-04-06T00:00:00	2024-11-08T23:00:00	2	Temperatura media	19.9
175150	7	Sololá	712	San Antonio Palopó	9	San Antonio Palopo	6	Junio	2023-04-06T00:00:00	2024-11-08T23:00:00	4	Temperatura máxima	20.7
175151	7	Sololá	712	San Antonio Palopó	9	San Antonio Palopo	6	Junio	2023-04-06T00:00:00	2024-11-08T23:00:00	3	Temperatura mínima	19.9
175152	7	Sololá	712	San Antonio Palopó	9	San Antonio Palopo	6	Junio	2023-04-06T00:00:00	2024-11-08T23:00:00	5	Humedad	78
175153	7	Sololá	712	San Antonio Palopó	9	San Antonio Palopo	6	Junio	2023-04-06T00:00:00	2024-11-08T23:00:00	6	Velocidad del viento	3.2
175154	7	Sololá	712	San Antonio Palopó	9	San Antonio Palopo	6	Junio	2023-04-06T00:00:00	2024-11-08T23:00:00	7	Dirección del viento	3.22
175155	7	Sololá	712	San Antonio Palopó	9	San Antonio Palopo	6	Junio	2023-04-06T00:00:00	2024-11-08T23:00:00	1	Precipitación	0
175156	7	Sololá	712	San Antonio Palopó	9	San Antonio Palopo	6	Junio	2023-04-06T00:00:00	2024-11-08T23:00:00	8	Radiación solar	0
175157	7	Sololá	712	San Antonio Palopó	9	San Antonio Palopo	6	Junio	2023-05-06T00:00:00	2024-11-08T00:00:00	2	Temperatura media	20.4
175158	7	Sololá	712	San Antonio Palopó	9	San Antonio Palopo	6	Junio	2023-05-06T00:00:00	2024-11-08T00:00:00	4	Temperatura máxima	20.4
175159	7	Sololá	712	San Antonio Palopó	9	San Antonio Palopo	6	Junio	2023-05-06T00:00:00	2024-11-08T00:00:00	3	Temperatura mínima	19.6
175160	7	Sololá	712	San Antonio Palopó	9	San Antonio Palopo	6	Junio	2023-05-06T00:00:00	2024-11-08T00:00:00	5	Humedad	72
175161	7	Sololá	712	San Antonio Palopó	9	San Antonio Palopo	6	Junio	2023-05-06T00:00:00	2024-11-08T00:00:00	6	Velocidad del viento	3.2
175162	7	Sololá	712	San Antonio Palopó	9	San Antonio Palopo	6	Junio	2023-05-06T00:00:00	2024-11-08T00:00:00	7	Dirección del viento	3.22
175163	7	Sololá	712	San Antonio Palopó	9	San Antonio Palopo	6	Junio	2023-05-06T00:00:00	2024-11-08T00:00:00	1	Precipitación	0
175164	7	Sololá	712	San Antonio Palopó	9	San Antonio Palopo	6	Junio	2023-05-06T00:00:00	2024-11-08T00:00:00	8	Radiación solar	0
175165	7	Sololá	712	San Antonio Palopó	9	San Antonio Palopo	6	Junio	2023-05-06T00:00:00	2024-11-08T01:00:00	2	Temperatura media	20.2
175166	7	Sololá	712	San Antonio Palopó	9	San Antonio Palopo	6	Junio	2023-05-06T00:00:00	2024-11-08T01:00:00	4	Temperatura máxima	20.4
175167	7	Sololá	712	San Antonio Palopó	9	San Antonio Palopo	6	Junio	2023-05-06T00:00:00	2024-11-08T01:00:00	3	Temperatura mínima	19.8
175168	7	Sololá	712	San Antonio Palopó	9	San Antonio Palopo	6	Junio	2023-05-06T00:00:00	2024-11-08T01:00:00	5	Humedad	69
175169	7	Sololá	712	San Antonio Palopó	9	San Antonio Palopo	6	Junio	2023-05-06T00:00:00	2024-11-08T01:00:00	6	Velocidad del viento	6.4
175170	7	Sololá	712	San Antonio Palopó	9	San Antonio Palopo	6	Junio	2023-05-06T00:00:00	2024-11-08T01:00:00	7	Dirección del viento	6.44
175171	7	Sololá	712	San Antonio Palopó	9	San Antonio Palopo	6	Junio	2023-05-06T00:00:00	2024-11-08T01:00:00	1	Precipitación	0
175172	7	Sololá	712	San Antonio Palopó	9	San Antonio Palopo	6	Junio	2023-05-06T00:00:00	2024-11-08T01:00:00	8	Radiación solar	0
175173	7	Sololá	712	San Antonio Palopó	9	San Antonio Palopo	6	Junio	2023-05-06T00:00:00	2024-11-08T02:00:00	2	Temperatura media	18.9
175174	7	Sololá	712	San Antonio Palopó	9	San Antonio Palopo	6	Junio	2023-05-06T00:00:00	2024-11-08T02:00:00	4	Temperatura máxima	20.2
175175	7	Sololá	712	San Antonio Palopó	9	San Antonio Palopo	6	Junio	2023-05-06T00:00:00	2024-11-08T02:00:00	3	Temperatura mínima	18.9
175176	7	Sololá	712	San Antonio Palopó	9	San Antonio Palopo	6	Junio	2023-05-06T00:00:00	2024-11-08T02:00:00	5	Humedad	76
175177	7	Sololá	712	San Antonio Palopó	9	San Antonio Palopo	6	Junio	2023-05-06T00:00:00	2024-11-08T02:00:00	6	Velocidad del viento	4.8
175178	7	Sololá	712	San Antonio Palopó	9	San Antonio Palopo	6	Junio	2023-05-06T00:00:00	2024-11-08T02:00:00	7	Dirección del viento	4.83
175179	7	Sololá	712	San Antonio Palopó	9	San Antonio Palopo	6	Junio	2023-05-06T00:00:00	2024-11-08T02:00:00	1	Precipitación	0
175180	7	Sololá	712	San Antonio Palopó	9	San Antonio Palopo	6	Junio	2023-05-06T00:00:00	2024-11-08T02:00:00	8	Radiación solar	0
175181	7	Sololá	712	San Antonio Palopó	9	San Antonio Palopo	6	Junio	2023-05-06T00:00:00	2024-11-08T03:00:00	2	Temperatura media	18.4
175182	7	Sololá	712	San Antonio Palopó	9	San Antonio Palopo	6	Junio	2023-05-06T00:00:00	2024-11-08T03:00:00	4	Temperatura máxima	19.4
175183	7	Sololá	712	San Antonio Palopó	9	San Antonio Palopo	6	Junio	2023-05-06T00:00:00	2024-11-08T03:00:00	3	Temperatura mínima	18.4
175184	7	Sololá	712	San Antonio Palopó	9	San Antonio Palopo	6	Junio	2023-05-06T00:00:00	2024-11-08T03:00:00	5	Humedad	74
175185	7	Sololá	712	San Antonio Palopó	9	San Antonio Palopo	6	Junio	2023-05-06T00:00:00	2024-11-08T03:00:00	6	Velocidad del viento	4.8
175186	7	Sololá	712	San Antonio Palopó	9	San Antonio Palopo	6	Junio	2023-05-06T00:00:00	2024-11-08T03:00:00	7	Dirección del viento	4.83
175187	7	Sololá	712	San Antonio Palopó	9	San Antonio Palopo	6	Junio	2023-05-06T00:00:00	2024-11-08T03:00:00	1	Precipitación	0
175188	7	Sololá	712	San Antonio Palopó	9	San Antonio Palopo	6	Junio	2023-05-06T00:00:00	2024-11-08T03:00:00	8	Radiación solar	0
175189	7	Sololá	712	San Antonio Palopó	9	San Antonio Palopo	6	Junio	2023-05-06T00:00:00	2024-11-08T04:00:00	2	Temperatura media	18.5
175190	7	Sololá	712	San Antonio Palopó	9	San Antonio Palopo	6	Junio	2023-05-06T00:00:00	2024-11-08T04:00:00	4	Temperatura máxima	18.7
175191	7	Sololá	712	San Antonio Palopó	9	San Antonio Palopo	6	Junio	2023-05-06T00:00:00	2024-11-08T04:00:00	3	Temperatura mínima	18.2
175192	7	Sololá	712	San Antonio Palopó	9	San Antonio Palopo	6	Junio	2023-05-06T00:00:00	2024-11-08T04:00:00	5	Humedad	74
175193	7	Sololá	712	San Antonio Palopó	9	San Antonio Palopo	6	Junio	2023-05-06T00:00:00	2024-11-08T04:00:00	6	Velocidad del viento	3.2
175194	7	Sololá	712	San Antonio Palopó	9	San Antonio Palopo	6	Junio	2023-05-06T00:00:00	2024-11-08T04:00:00	7	Dirección del viento	3.22
175195	7	Sololá	712	San Antonio Palopó	9	San Antonio Palopo	6	Junio	2023-05-06T00:00:00	2024-11-08T04:00:00	1	Precipitación	0
175196	7	Sololá	712	San Antonio Palopó	9	San Antonio Palopo	6	Junio	2023-05-06T00:00:00	2024-11-08T04:00:00	8	Radiación solar	0
175197	7	Sololá	712	San Antonio Palopó	9	San Antonio Palopo	6	Junio	2023-05-06T00:00:00	2024-11-08T05:00:00	2	Temperatura media	17.8
175198	7	Sololá	712	San Antonio Palopó	9	San Antonio Palopo	6	Junio	2023-05-06T00:00:00	2024-11-08T05:00:00	4	Temperatura máxima	18.5
175199	7	Sololá	712	San Antonio Palopó	9	San Antonio Palopo	6	Junio	2023-05-06T00:00:00	2024-11-08T05:00:00	3	Temperatura mínima	17.7
175200	7	Sololá	712	San Antonio Palopó	9	San Antonio Palopo	6	Junio	2023-05-06T00:00:00	2024-11-08T05:00:00	5	Humedad	80
175201	7	Sololá	712	San Antonio Palopó	9	San Antonio Palopo	6	Junio	2023-05-06T00:00:00	2024-11-08T05:00:00	6	Velocidad del viento	3.2
175202	7	Sololá	712	San Antonio Palopó	9	San Antonio Palopo	6	Junio	2023-05-06T00:00:00	2024-11-08T05:00:00	7	Dirección del viento	3.22
175203	7	Sololá	712	San Antonio Palopó	9	San Antonio Palopo	6	Junio	2023-05-06T00:00:00	2024-11-08T05:00:00	1	Precipitación	0
175204	7	Sololá	712	San Antonio Palopó	9	San Antonio Palopo	6	Junio	2023-05-06T00:00:00	2024-11-08T05:00:00	8	Radiación solar	0
175205	7	Sololá	712	San Antonio Palopó	9	San Antonio Palopo	6	Junio	2023-05-06T00:00:00	2024-11-08T06:00:00	2	Temperatura media	18.3
175206	7	Sololá	712	San Antonio Palopó	9	San Antonio Palopo	6	Junio	2023-05-06T00:00:00	2024-11-08T06:00:00	4	Temperatura máxima	18.4
175207	7	Sololá	712	San Antonio Palopó	9	San Antonio Palopo	6	Junio	2023-05-06T00:00:00	2024-11-08T06:00:00	3	Temperatura mínima	17.8
175208	7	Sololá	712	San Antonio Palopó	9	San Antonio Palopo	6	Junio	2023-05-06T00:00:00	2024-11-08T06:00:00	5	Humedad	72
175209	7	Sololá	712	San Antonio Palopó	9	San Antonio Palopo	6	Junio	2023-05-06T00:00:00	2024-11-08T06:00:00	6	Velocidad del viento	4.8
175210	7	Sololá	712	San Antonio Palopó	9	San Antonio Palopo	6	Junio	2023-05-06T00:00:00	2024-11-08T06:00:00	7	Dirección del viento	4.83
175211	7	Sololá	712	San Antonio Palopó	9	San Antonio Palopo	6	Junio	2023-05-06T00:00:00	2024-11-08T06:00:00	1	Precipitación	0
175212	7	Sololá	712	San Antonio Palopó	9	San Antonio Palopo	6	Junio	2023-05-06T00:00:00	2024-11-08T06:00:00	8	Radiación solar	3
175213	7	Sololá	712	San Antonio Palopó	9	San Antonio Palopo	6	Junio	2023-05-06T00:00:00	2024-11-08T07:00:00	2	Temperatura media	18.6
175214	7	Sololá	712	San Antonio Palopó	9	San Antonio Palopo	6	Junio	2023-05-06T00:00:00	2024-11-08T07:00:00	4	Temperatura máxima	18.9
175215	7	Sololá	712	San Antonio Palopó	9	San Antonio Palopo	6	Junio	2023-05-06T00:00:00	2024-11-08T07:00:00	3	Temperatura mínima	18.3
175216	7	Sololá	712	San Antonio Palopó	9	San Antonio Palopo	6	Junio	2023-05-06T00:00:00	2024-11-08T07:00:00	5	Humedad	76
175217	7	Sololá	712	San Antonio Palopó	9	San Antonio Palopo	6	Junio	2023-05-06T00:00:00	2024-11-08T07:00:00	6	Velocidad del viento	6.4
175218	7	Sololá	712	San Antonio Palopó	9	San Antonio Palopo	6	Junio	2023-05-06T00:00:00	2024-11-08T07:00:00	7	Dirección del viento	6.44
175219	7	Sololá	712	San Antonio Palopó	9	San Antonio Palopo	6	Junio	2023-05-06T00:00:00	2024-11-08T07:00:00	1	Precipitación	0
175220	7	Sololá	712	San Antonio Palopó	9	San Antonio Palopo	6	Junio	2023-05-06T00:00:00	2024-11-08T07:00:00	8	Radiación solar	33
175221	7	Sololá	712	San Antonio Palopó	9	San Antonio Palopo	6	Junio	2023-05-06T00:00:00	2024-11-08T08:00:00	2	Temperatura media	20.7
175222	7	Sololá	712	San Antonio Palopó	9	San Antonio Palopo	6	Junio	2023-05-06T00:00:00	2024-11-08T08:00:00	4	Temperatura máxima	20.7
175223	7	Sololá	712	San Antonio Palopó	9	San Antonio Palopo	6	Junio	2023-05-06T00:00:00	2024-11-08T08:00:00	3	Temperatura mínima	18.4
175224	7	Sololá	712	San Antonio Palopó	9	San Antonio Palopo	6	Junio	2023-05-06T00:00:00	2024-11-08T08:00:00	5	Humedad	73
175225	7	Sololá	712	San Antonio Palopó	9	San Antonio Palopo	6	Junio	2023-05-06T00:00:00	2024-11-08T08:00:00	6	Velocidad del viento	1.6
175226	7	Sololá	712	San Antonio Palopó	9	San Antonio Palopo	6	Junio	2023-05-06T00:00:00	2024-11-08T08:00:00	7	Dirección del viento	1.61
175227	7	Sololá	712	San Antonio Palopó	9	San Antonio Palopo	6	Junio	2023-05-06T00:00:00	2024-11-08T08:00:00	1	Precipitación	0
175228	7	Sololá	712	San Antonio Palopó	9	San Antonio Palopo	6	Junio	2023-05-06T00:00:00	2024-11-08T08:00:00	8	Radiación solar	238
175229	7	Sololá	712	San Antonio Palopó	9	San Antonio Palopo	6	Junio	2023-05-06T00:00:00	2024-11-08T09:00:00	2	Temperatura media	21.3
175230	7	Sololá	712	San Antonio Palopó	9	San Antonio Palopo	6	Junio	2023-05-06T00:00:00	2024-11-08T09:00:00	4	Temperatura máxima	21.3
175231	7	Sololá	712	San Antonio Palopó	9	San Antonio Palopo	6	Junio	2023-05-06T00:00:00	2024-11-08T09:00:00	3	Temperatura mínima	20.7
175232	7	Sololá	712	San Antonio Palopó	9	San Antonio Palopo	6	Junio	2023-05-06T00:00:00	2024-11-08T09:00:00	5	Humedad	71
175233	7	Sololá	712	San Antonio Palopó	9	San Antonio Palopo	6	Junio	2023-05-06T00:00:00	2024-11-08T09:00:00	6	Velocidad del viento	1.6
175234	7	Sololá	712	San Antonio Palopó	9	San Antonio Palopo	6	Junio	2023-05-06T00:00:00	2024-11-08T09:00:00	7	Dirección del viento	1.61
175235	7	Sololá	712	San Antonio Palopó	9	San Antonio Palopo	6	Junio	2023-05-06T00:00:00	2024-11-08T09:00:00	1	Precipitación	0
175236	7	Sololá	712	San Antonio Palopó	9	San Antonio Palopo	6	Junio	2023-05-06T00:00:00	2024-11-08T09:00:00	8	Radiación solar	449
175237	7	Sololá	712	San Antonio Palopó	9	San Antonio Palopo	6	Junio	2023-05-06T00:00:00	2024-11-08T10:00:00	2	Temperatura media	22.7
175238	7	Sololá	712	San Antonio Palopó	9	San Antonio Palopo	6	Junio	2023-05-06T00:00:00	2024-11-08T10:00:00	4	Temperatura máxima	22.7
175239	7	Sololá	712	San Antonio Palopó	9	San Antonio Palopo	6	Junio	2023-05-06T00:00:00	2024-11-08T10:00:00	3	Temperatura mínima	21.4
175240	7	Sololá	712	San Antonio Palopó	9	San Antonio Palopo	6	Junio	2023-05-06T00:00:00	2024-11-08T10:00:00	5	Humedad	67
175241	7	Sololá	712	San Antonio Palopó	9	San Antonio Palopo	6	Junio	2023-05-06T00:00:00	2024-11-08T10:00:00	6	Velocidad del viento	3.2
175242	7	Sololá	712	San Antonio Palopó	9	San Antonio Palopo	6	Junio	2023-05-06T00:00:00	2024-11-08T10:00:00	7	Dirección del viento	3.22
175243	7	Sololá	712	San Antonio Palopó	9	San Antonio Palopo	6	Junio	2023-05-06T00:00:00	2024-11-08T10:00:00	1	Precipitación	0
175244	7	Sololá	712	San Antonio Palopó	9	San Antonio Palopo	6	Junio	2023-05-06T00:00:00	2024-11-08T10:00:00	8	Radiación solar	477
175245	7	Sololá	712	San Antonio Palopó	9	San Antonio Palopo	6	Junio	2023-05-06T00:00:00	2024-11-08T11:00:00	2	Temperatura media	22.3
175246	7	Sololá	712	San Antonio Palopó	9	San Antonio Palopo	6	Junio	2023-05-06T00:00:00	2024-11-08T11:00:00	4	Temperatura máxima	22.8
175247	7	Sololá	712	San Antonio Palopó	9	San Antonio Palopo	6	Junio	2023-05-06T00:00:00	2024-11-08T11:00:00	3	Temperatura mínima	21.6
175248	7	Sololá	712	San Antonio Palopó	9	San Antonio Palopo	6	Junio	2023-05-06T00:00:00	2024-11-08T11:00:00	5	Humedad	68
175249	7	Sololá	712	San Antonio Palopó	9	San Antonio Palopo	6	Junio	2023-05-06T00:00:00	2024-11-08T11:00:00	6	Velocidad del viento	9.7
175250	7	Sololá	712	San Antonio Palopó	9	San Antonio Palopo	6	Junio	2023-05-06T00:00:00	2024-11-08T11:00:00	7	Dirección del viento	9.66
175251	7	Sololá	712	San Antonio Palopó	9	San Antonio Palopo	6	Junio	2023-05-06T00:00:00	2024-11-08T11:00:00	1	Precipitación	0
175252	7	Sololá	712	San Antonio Palopó	9	San Antonio Palopo	6	Junio	2023-05-06T00:00:00	2024-11-08T11:00:00	8	Radiación solar	601
175253	7	Sololá	712	San Antonio Palopó	9	San Antonio Palopo	6	Junio	2023-05-06T00:00:00	2024-11-08T12:00:00	2	Temperatura media	23.6
175254	7	Sololá	712	San Antonio Palopó	9	San Antonio Palopo	6	Junio	2023-05-06T00:00:00	2024-11-08T12:00:00	4	Temperatura máxima	23.6
175255	7	Sololá	712	San Antonio Palopó	9	San Antonio Palopo	6	Junio	2023-05-06T00:00:00	2024-11-08T12:00:00	3	Temperatura mínima	22.3
175256	7	Sololá	712	San Antonio Palopó	9	San Antonio Palopo	6	Junio	2023-05-06T00:00:00	2024-11-08T12:00:00	5	Humedad	67
175257	7	Sololá	712	San Antonio Palopó	9	San Antonio Palopo	6	Junio	2023-05-06T00:00:00	2024-11-08T12:00:00	6	Velocidad del viento	3.2
175258	7	Sololá	712	San Antonio Palopó	9	San Antonio Palopo	6	Junio	2023-05-06T00:00:00	2024-11-08T12:00:00	7	Dirección del viento	3.22
175259	7	Sololá	712	San Antonio Palopó	9	San Antonio Palopo	6	Junio	2023-05-06T00:00:00	2024-11-08T12:00:00	1	Precipitación	0
175260	7	Sololá	712	San Antonio Palopó	9	San Antonio Palopo	6	Junio	2023-05-06T00:00:00	2024-11-08T12:00:00	8	Radiación solar	709
175261	7	Sololá	712	San Antonio Palopó	9	San Antonio Palopo	6	Junio	2023-05-06T00:00:00	2024-11-08T13:00:00	2	Temperatura media	23.5
175262	7	Sololá	712	San Antonio Palopó	9	San Antonio Palopo	6	Junio	2023-05-06T00:00:00	2024-11-08T13:00:00	4	Temperatura máxima	24.2
175263	7	Sololá	712	San Antonio Palopó	9	San Antonio Palopo	6	Junio	2023-05-06T00:00:00	2024-11-08T13:00:00	3	Temperatura mínima	23.4
175264	7	Sololá	712	San Antonio Palopó	9	San Antonio Palopo	6	Junio	2023-05-06T00:00:00	2024-11-08T13:00:00	5	Humedad	69
175265	7	Sololá	712	San Antonio Palopó	9	San Antonio Palopo	6	Junio	2023-05-06T00:00:00	2024-11-08T13:00:00	6	Velocidad del viento	6.4
175266	7	Sololá	712	San Antonio Palopó	9	San Antonio Palopo	6	Junio	2023-05-06T00:00:00	2024-11-08T13:00:00	7	Dirección del viento	6.44
175267	7	Sololá	712	San Antonio Palopó	9	San Antonio Palopo	6	Junio	2023-05-06T00:00:00	2024-11-08T13:00:00	1	Precipitación	0
175268	7	Sololá	712	San Antonio Palopó	9	San Antonio Palopo	6	Junio	2023-05-06T00:00:00	2024-11-08T13:00:00	8	Radiación solar	869
175269	7	Sololá	712	San Antonio Palopó	9	San Antonio Palopo	6	Junio	2023-05-06T00:00:00	2024-11-08T14:00:00	2	Temperatura media	24.6
175270	7	Sololá	712	San Antonio Palopó	9	San Antonio Palopo	6	Junio	2023-05-06T00:00:00	2024-11-08T14:00:00	4	Temperatura máxima	24.8
175271	7	Sololá	712	San Antonio Palopó	9	San Antonio Palopo	6	Junio	2023-05-06T00:00:00	2024-11-08T14:00:00	3	Temperatura mínima	23.5
175272	7	Sololá	712	San Antonio Palopó	9	San Antonio Palopo	6	Junio	2023-05-06T00:00:00	2024-11-08T14:00:00	5	Humedad	59
175273	7	Sololá	712	San Antonio Palopó	9	San Antonio Palopo	6	Junio	2023-05-06T00:00:00	2024-11-08T14:00:00	6	Velocidad del viento	8
175274	7	Sololá	712	San Antonio Palopó	9	San Antonio Palopo	6	Junio	2023-05-06T00:00:00	2024-11-08T14:00:00	7	Dirección del viento	8.05
175275	7	Sololá	712	San Antonio Palopó	9	San Antonio Palopo	6	Junio	2023-05-06T00:00:00	2024-11-08T14:00:00	1	Precipitación	0
175276	7	Sololá	712	San Antonio Palopó	9	San Antonio Palopo	6	Junio	2023-05-06T00:00:00	2024-11-08T14:00:00	8	Radiación solar	770
175277	7	Sololá	712	San Antonio Palopó	9	San Antonio Palopo	6	Junio	2023-05-06T00:00:00	2024-11-08T15:00:00	2	Temperatura media	23.1
175278	7	Sololá	712	San Antonio Palopó	9	San Antonio Palopo	6	Junio	2023-05-06T00:00:00	2024-11-08T15:00:00	4	Temperatura máxima	24.7
175279	7	Sololá	712	San Antonio Palopó	9	San Antonio Palopo	6	Junio	2023-05-06T00:00:00	2024-11-08T15:00:00	3	Temperatura mínima	23.1
175280	7	Sololá	712	San Antonio Palopó	9	San Antonio Palopo	6	Junio	2023-05-06T00:00:00	2024-11-08T15:00:00	5	Humedad	73
175281	7	Sololá	712	San Antonio Palopó	9	San Antonio Palopo	6	Junio	2023-05-06T00:00:00	2024-11-08T15:00:00	6	Velocidad del viento	11.3
175282	7	Sololá	712	San Antonio Palopó	9	San Antonio Palopo	6	Junio	2023-05-06T00:00:00	2024-11-08T15:00:00	7	Dirección del viento	11.27
175283	7	Sololá	712	San Antonio Palopó	9	San Antonio Palopo	6	Junio	2023-05-06T00:00:00	2024-11-08T15:00:00	1	Precipitación	0
175284	7	Sololá	712	San Antonio Palopó	9	San Antonio Palopo	6	Junio	2023-05-06T00:00:00	2024-11-08T15:00:00	8	Radiación solar	573
175285	7	Sololá	712	San Antonio Palopó	9	San Antonio Palopo	6	Junio	2023-05-06T00:00:00	2024-11-08T16:00:00	2	Temperatura media	21.8
175286	7	Sololá	712	San Antonio Palopó	9	San Antonio Palopo	6	Junio	2023-05-06T00:00:00	2024-11-08T16:00:00	4	Temperatura máxima	23.1
175287	7	Sololá	712	San Antonio Palopó	9	San Antonio Palopo	6	Junio	2023-05-06T00:00:00	2024-11-08T16:00:00	3	Temperatura mínima	21.8
175288	7	Sololá	712	San Antonio Palopó	9	San Antonio Palopo	6	Junio	2023-05-06T00:00:00	2024-11-08T16:00:00	5	Humedad	76
175289	7	Sololá	712	San Antonio Palopó	9	San Antonio Palopo	6	Junio	2023-05-06T00:00:00	2024-11-08T16:00:00	6	Velocidad del viento	9.7
175290	7	Sololá	712	San Antonio Palopó	9	San Antonio Palopo	6	Junio	2023-05-06T00:00:00	2024-11-08T16:00:00	7	Dirección del viento	9.66
175291	7	Sololá	712	San Antonio Palopó	9	San Antonio Palopo	6	Junio	2023-05-06T00:00:00	2024-11-08T16:00:00	1	Precipitación	0
175292	7	Sololá	712	San Antonio Palopó	9	San Antonio Palopo	6	Junio	2023-05-06T00:00:00	2024-11-08T16:00:00	8	Radiación solar	416
175293	7	Sololá	712	San Antonio Palopó	9	San Antonio Palopo	6	Junio	2023-05-06T00:00:00	2024-11-08T17:00:00	2	Temperatura media	21.7
175294	7	Sololá	712	San Antonio Palopó	9	San Antonio Palopo	6	Junio	2023-05-06T00:00:00	2024-11-08T17:00:00	4	Temperatura máxima	21.9
175295	7	Sololá	712	San Antonio Palopó	9	San Antonio Palopo	6	Junio	2023-05-06T00:00:00	2024-11-08T17:00:00	3	Temperatura mínima	21.6
175296	7	Sololá	712	San Antonio Palopó	9	San Antonio Palopo	6	Junio	2023-05-06T00:00:00	2024-11-08T17:00:00	5	Humedad	78
175297	7	Sololá	712	San Antonio Palopó	9	San Antonio Palopo	6	Junio	2023-05-06T00:00:00	2024-11-08T17:00:00	6	Velocidad del viento	6.4
175298	7	Sololá	712	San Antonio Palopó	9	San Antonio Palopo	6	Junio	2023-05-06T00:00:00	2024-11-08T17:00:00	7	Dirección del viento	6.44
175299	7	Sololá	712	San Antonio Palopó	9	San Antonio Palopo	6	Junio	2023-05-06T00:00:00	2024-11-08T17:00:00	1	Precipitación	0
175300	7	Sololá	712	San Antonio Palopó	9	San Antonio Palopo	6	Junio	2023-05-06T00:00:00	2024-11-08T17:00:00	8	Radiación solar	206
175301	7	Sololá	712	San Antonio Palopó	9	San Antonio Palopo	6	Junio	2023-05-06T00:00:00	2024-11-08T18:00:00	2	Temperatura media	21.3
175302	7	Sololá	712	San Antonio Palopó	9	San Antonio Palopo	6	Junio	2023-05-06T00:00:00	2024-11-08T18:00:00	4	Temperatura máxima	21.7
175303	7	Sololá	712	San Antonio Palopó	9	San Antonio Palopo	6	Junio	2023-05-06T00:00:00	2024-11-08T18:00:00	3	Temperatura mínima	21.3
175304	7	Sololá	712	San Antonio Palopó	9	San Antonio Palopo	6	Junio	2023-05-06T00:00:00	2024-11-08T18:00:00	5	Humedad	80
175305	7	Sololá	712	San Antonio Palopó	9	San Antonio Palopo	6	Junio	2023-05-06T00:00:00	2024-11-08T18:00:00	6	Velocidad del viento	1.6
175306	7	Sololá	712	San Antonio Palopó	9	San Antonio Palopo	6	Junio	2023-05-06T00:00:00	2024-11-08T18:00:00	7	Dirección del viento	1.61
175307	7	Sololá	712	San Antonio Palopó	9	San Antonio Palopo	6	Junio	2023-05-06T00:00:00	2024-11-08T18:00:00	1	Precipitación	0
175308	7	Sololá	712	San Antonio Palopó	9	San Antonio Palopo	6	Junio	2023-05-06T00:00:00	2024-11-08T18:00:00	8	Radiación solar	75
175309	7	Sololá	712	San Antonio Palopó	9	San Antonio Palopo	6	Junio	2023-05-06T00:00:00	2024-11-08T19:00:00	2	Temperatura media	20.9
175310	7	Sololá	712	San Antonio Palopó	9	San Antonio Palopo	6	Junio	2023-05-06T00:00:00	2024-11-08T19:00:00	4	Temperatura máxima	21.3
175311	7	Sololá	712	San Antonio Palopó	9	San Antonio Palopo	6	Junio	2023-05-06T00:00:00	2024-11-08T19:00:00	3	Temperatura mínima	20.8
175312	7	Sololá	712	San Antonio Palopó	9	San Antonio Palopo	6	Junio	2023-05-06T00:00:00	2024-11-08T19:00:00	5	Humedad	81
175313	7	Sololá	712	San Antonio Palopó	9	San Antonio Palopo	6	Junio	2023-05-06T00:00:00	2024-11-08T19:00:00	6	Velocidad del viento	3.2
175314	7	Sololá	712	San Antonio Palopó	9	San Antonio Palopo	6	Junio	2023-05-06T00:00:00	2024-11-08T19:00:00	7	Dirección del viento	3.22
175315	7	Sololá	712	San Antonio Palopó	9	San Antonio Palopo	6	Junio	2023-05-06T00:00:00	2024-11-08T19:00:00	1	Precipitación	0
175316	7	Sololá	712	San Antonio Palopó	9	San Antonio Palopo	6	Junio	2023-05-06T00:00:00	2024-11-08T19:00:00	8	Radiación solar	0
175317	7	Sololá	712	San Antonio Palopó	9	San Antonio Palopo	6	Junio	2023-05-06T00:00:00	2024-11-08T20:00:00	2	Temperatura media	20.6
175318	7	Sololá	712	San Antonio Palopó	9	San Antonio Palopo	6	Junio	2023-05-06T00:00:00	2024-11-08T20:00:00	4	Temperatura máxima	21
175319	7	Sololá	712	San Antonio Palopó	9	San Antonio Palopo	6	Junio	2023-05-06T00:00:00	2024-11-08T20:00:00	3	Temperatura mínima	20.6
175320	7	Sololá	712	San Antonio Palopó	9	San Antonio Palopo	6	Junio	2023-05-06T00:00:00	2024-11-08T20:00:00	5	Humedad	84
175321	7	Sololá	712	San Antonio Palopó	9	San Antonio Palopo	6	Junio	2023-05-06T00:00:00	2024-11-08T20:00:00	6	Velocidad del viento	3.2
175322	7	Sololá	712	San Antonio Palopó	9	San Antonio Palopo	6	Junio	2023-05-06T00:00:00	2024-11-08T20:00:00	7	Dirección del viento	3.22
175323	7	Sololá	712	San Antonio Palopó	9	San Antonio Palopo	6	Junio	2023-05-06T00:00:00	2024-11-08T20:00:00	1	Precipitación	0
175324	7	Sololá	712	San Antonio Palopó	9	San Antonio Palopo	6	Junio	2023-05-06T00:00:00	2024-11-08T20:00:00	8	Radiación solar	0
175325	7	Sololá	712	San Antonio Palopó	9	San Antonio Palopo	6	Junio	2023-05-06T00:00:00	2024-11-08T21:00:00	2	Temperatura media	20.4
175326	7	Sololá	712	San Antonio Palopó	9	San Antonio Palopo	6	Junio	2023-05-06T00:00:00	2024-11-08T21:00:00	4	Temperatura máxima	20.6
175327	7	Sololá	712	San Antonio Palopó	9	San Antonio Palopo	6	Junio	2023-05-06T00:00:00	2024-11-08T21:00:00	3	Temperatura mínima	20.3
175328	7	Sololá	712	San Antonio Palopó	9	San Antonio Palopo	6	Junio	2023-05-06T00:00:00	2024-11-08T21:00:00	5	Humedad	82
175329	7	Sololá	712	San Antonio Palopó	9	San Antonio Palopo	6	Junio	2023-05-06T00:00:00	2024-11-08T21:00:00	6	Velocidad del viento	1.6
175330	7	Sololá	712	San Antonio Palopó	9	San Antonio Palopo	6	Junio	2023-05-06T00:00:00	2024-11-08T21:00:00	7	Dirección del viento	1.61
175331	7	Sololá	712	San Antonio Palopó	9	San Antonio Palopo	6	Junio	2023-05-06T00:00:00	2024-11-08T21:00:00	1	Precipitación	0
175332	7	Sololá	712	San Antonio Palopó	9	San Antonio Palopo	6	Junio	2023-05-06T00:00:00	2024-11-08T21:00:00	8	Radiación solar	0
175333	7	Sololá	712	San Antonio Palopó	9	San Antonio Palopo	6	Junio	2023-05-06T00:00:00	2024-11-08T22:00:00	2	Temperatura media	20.3
175334	7	Sololá	712	San Antonio Palopó	9	San Antonio Palopo	6	Junio	2023-05-06T00:00:00	2024-11-08T22:00:00	4	Temperatura máxima	20.4
175335	7	Sololá	712	San Antonio Palopó	9	San Antonio Palopo	6	Junio	2023-05-06T00:00:00	2024-11-08T22:00:00	3	Temperatura mínima	20.2
175336	7	Sololá	712	San Antonio Palopó	9	San Antonio Palopo	6	Junio	2023-05-06T00:00:00	2024-11-08T22:00:00	5	Humedad	79
175337	7	Sololá	712	San Antonio Palopó	9	San Antonio Palopo	6	Junio	2023-05-06T00:00:00	2024-11-08T22:00:00	6	Velocidad del viento	1.6
175338	7	Sololá	712	San Antonio Palopó	9	San Antonio Palopo	6	Junio	2023-05-06T00:00:00	2024-11-08T22:00:00	7	Dirección del viento	1.61
175339	7	Sololá	712	San Antonio Palopó	9	San Antonio Palopo	6	Junio	2023-05-06T00:00:00	2024-11-08T22:00:00	1	Precipitación	0
175340	7	Sololá	712	San Antonio Palopó	9	San Antonio Palopo	6	Junio	2023-05-06T00:00:00	2024-11-08T22:00:00	8	Radiación solar	0
175341	7	Sololá	712	San Antonio Palopó	9	San Antonio Palopo	6	Junio	2023-05-06T00:00:00	2024-11-08T23:00:00	2	Temperatura media	20.2
175342	7	Sololá	712	San Antonio Palopó	9	San Antonio Palopo	6	Junio	2023-05-06T00:00:00	2024-11-08T23:00:00	4	Temperatura máxima	20.4
175343	7	Sololá	712	San Antonio Palopó	9	San Antonio Palopo	6	Junio	2023-05-06T00:00:00	2024-11-08T23:00:00	3	Temperatura mínima	20.2
175344	7	Sololá	712	San Antonio Palopó	9	San Antonio Palopo	6	Junio	2023-05-06T00:00:00	2024-11-08T23:00:00	5	Humedad	79
175345	7	Sololá	712	San Antonio Palopó	9	San Antonio Palopo	6	Junio	2023-05-06T00:00:00	2024-11-08T23:00:00	6	Velocidad del viento	1.6
175346	7	Sololá	712	San Antonio Palopó	9	San Antonio Palopo	6	Junio	2023-05-06T00:00:00	2024-11-08T23:00:00	7	Dirección del viento	1.61
175347	7	Sololá	712	San Antonio Palopó	9	San Antonio Palopo	6	Junio	2023-05-06T00:00:00	2024-11-08T23:00:00	1	Precipitación	0
175348	7	Sololá	712	San Antonio Palopó	9	San Antonio Palopo	6	Junio	2023-05-06T00:00:00	2024-11-08T23:00:00	8	Radiación solar	0
175349	7	Sololá	712	San Antonio Palopó	9	San Antonio Palopo	6	Junio	2023-06-06T00:00:00	2024-11-08T00:00:00	2	Temperatura media	19.8
175350	7	Sololá	712	San Antonio Palopó	9	San Antonio Palopo	6	Junio	2023-06-06T00:00:00	2024-11-08T00:00:00	4	Temperatura máxima	20.4
175351	7	Sololá	712	San Antonio Palopó	9	San Antonio Palopo	6	Junio	2023-06-06T00:00:00	2024-11-08T00:00:00	3	Temperatura mínima	19.8
175352	7	Sololá	712	San Antonio Palopó	9	San Antonio Palopo	6	Junio	2023-06-06T00:00:00	2024-11-08T00:00:00	5	Humedad	80
175353	7	Sololá	712	San Antonio Palopó	9	San Antonio Palopo	6	Junio	2023-06-06T00:00:00	2024-11-08T00:00:00	6	Velocidad del viento	3.2
175354	7	Sololá	712	San Antonio Palopó	9	San Antonio Palopo	6	Junio	2023-06-06T00:00:00	2024-11-08T00:00:00	7	Dirección del viento	3.22
175355	7	Sololá	712	San Antonio Palopó	9	San Antonio Palopo	6	Junio	2023-06-06T00:00:00	2024-11-08T00:00:00	1	Precipitación	0
175356	7	Sololá	712	San Antonio Palopó	9	San Antonio Palopo	6	Junio	2023-06-06T00:00:00	2024-11-08T00:00:00	8	Radiación solar	0
175357	7	Sololá	712	San Antonio Palopó	9	San Antonio Palopo	6	Junio	2023-06-06T00:00:00	2024-11-08T01:00:00	2	Temperatura media	19.9
175358	7	Sololá	712	San Antonio Palopó	9	San Antonio Palopo	6	Junio	2023-06-06T00:00:00	2024-11-08T01:00:00	4	Temperatura máxima	20.1
175359	7	Sololá	712	San Antonio Palopó	9	San Antonio Palopo	6	Junio	2023-06-06T00:00:00	2024-11-08T01:00:00	3	Temperatura mínima	19.4
175360	7	Sololá	712	San Antonio Palopó	9	San Antonio Palopo	6	Junio	2023-06-06T00:00:00	2024-11-08T01:00:00	5	Humedad	75
175361	7	Sololá	712	San Antonio Palopó	9	San Antonio Palopo	6	Junio	2023-06-06T00:00:00	2024-11-08T01:00:00	6	Velocidad del viento	3.2
175362	7	Sololá	712	San Antonio Palopó	9	San Antonio Palopo	6	Junio	2023-06-06T00:00:00	2024-11-08T01:00:00	7	Dirección del viento	3.22
175363	7	Sololá	712	San Antonio Palopó	9	San Antonio Palopo	6	Junio	2023-06-06T00:00:00	2024-11-08T01:00:00	1	Precipitación	0
175364	7	Sololá	712	San Antonio Palopó	9	San Antonio Palopo	6	Junio	2023-06-06T00:00:00	2024-11-08T01:00:00	8	Radiación solar	0
175365	7	Sololá	712	San Antonio Palopó	9	San Antonio Palopo	6	Junio	2023-06-06T00:00:00	2024-11-08T02:00:00	2	Temperatura media	20.3
175366	7	Sololá	712	San Antonio Palopó	9	San Antonio Palopo	6	Junio	2023-06-06T00:00:00	2024-11-08T02:00:00	4	Temperatura máxima	20.5
175367	7	Sololá	712	San Antonio Palopó	9	San Antonio Palopo	6	Junio	2023-06-06T00:00:00	2024-11-08T02:00:00	3	Temperatura mínima	20
175368	7	Sololá	712	San Antonio Palopó	9	San Antonio Palopo	6	Junio	2023-06-06T00:00:00	2024-11-08T02:00:00	5	Humedad	73
175369	7	Sololá	712	San Antonio Palopó	9	San Antonio Palopo	6	Junio	2023-06-06T00:00:00	2024-11-08T02:00:00	6	Velocidad del viento	6.4
175370	7	Sololá	712	San Antonio Palopó	9	San Antonio Palopo	6	Junio	2023-06-06T00:00:00	2024-11-08T02:00:00	7	Dirección del viento	6.44
175371	7	Sololá	712	San Antonio Palopó	9	San Antonio Palopo	6	Junio	2023-06-06T00:00:00	2024-11-08T02:00:00	1	Precipitación	0
175372	7	Sololá	712	San Antonio Palopó	9	San Antonio Palopo	6	Junio	2023-06-06T00:00:00	2024-11-08T02:00:00	8	Radiación solar	0
175373	7	Sololá	712	San Antonio Palopó	9	San Antonio Palopo	6	Junio	2023-06-06T00:00:00	2024-11-08T03:00:00	2	Temperatura media	18.8
175374	7	Sololá	712	San Antonio Palopó	9	San Antonio Palopo	6	Junio	2023-06-06T00:00:00	2024-11-08T03:00:00	4	Temperatura máxima	20.3
175375	7	Sololá	712	San Antonio Palopó	9	San Antonio Palopo	6	Junio	2023-06-06T00:00:00	2024-11-08T03:00:00	3	Temperatura mínima	18.8
175376	7	Sololá	712	San Antonio Palopó	9	San Antonio Palopo	6	Junio	2023-06-06T00:00:00	2024-11-08T03:00:00	5	Humedad	79
175377	7	Sololá	712	San Antonio Palopó	9	San Antonio Palopo	6	Junio	2023-06-06T00:00:00	2024-11-08T03:00:00	6	Velocidad del viento	4.8
175378	7	Sololá	712	San Antonio Palopó	9	San Antonio Palopo	6	Junio	2023-06-06T00:00:00	2024-11-08T03:00:00	7	Dirección del viento	4.83
175379	7	Sololá	712	San Antonio Palopó	9	San Antonio Palopo	6	Junio	2023-06-06T00:00:00	2024-11-08T03:00:00	1	Precipitación	0
175380	7	Sololá	712	San Antonio Palopó	9	San Antonio Palopo	6	Junio	2023-06-06T00:00:00	2024-11-08T03:00:00	8	Radiación solar	0
175381	7	Sololá	712	San Antonio Palopó	9	San Antonio Palopo	6	Junio	2023-06-06T00:00:00	2024-11-08T04:00:00	2	Temperatura media	18.9
175382	7	Sololá	712	San Antonio Palopó	9	San Antonio Palopo	6	Junio	2023-06-06T00:00:00	2024-11-08T04:00:00	4	Temperatura máxima	19.2
175383	7	Sololá	712	San Antonio Palopó	9	San Antonio Palopo	6	Junio	2023-06-06T00:00:00	2024-11-08T04:00:00	3	Temperatura mínima	18.7
175384	7	Sololá	712	San Antonio Palopó	9	San Antonio Palopo	6	Junio	2023-06-06T00:00:00	2024-11-08T04:00:00	5	Humedad	76
175385	7	Sololá	712	San Antonio Palopó	9	San Antonio Palopo	6	Junio	2023-06-06T00:00:00	2024-11-08T04:00:00	6	Velocidad del viento	3.2
175386	7	Sololá	712	San Antonio Palopó	9	San Antonio Palopo	6	Junio	2023-06-06T00:00:00	2024-11-08T04:00:00	7	Dirección del viento	3.22
175387	7	Sololá	712	San Antonio Palopó	9	San Antonio Palopo	6	Junio	2023-06-06T00:00:00	2024-11-08T04:00:00	1	Precipitación	0
175388	7	Sololá	712	San Antonio Palopó	9	San Antonio Palopo	6	Junio	2023-06-06T00:00:00	2024-11-08T04:00:00	8	Radiación solar	0
175389	7	Sololá	712	San Antonio Palopó	9	San Antonio Palopo	6	Junio	2023-06-06T00:00:00	2024-11-08T05:00:00	2	Temperatura media	18.8
175390	7	Sololá	712	San Antonio Palopó	9	San Antonio Palopo	6	Junio	2023-06-06T00:00:00	2024-11-08T05:00:00	4	Temperatura máxima	18.8
175391	7	Sololá	712	San Antonio Palopó	9	San Antonio Palopo	6	Junio	2023-06-06T00:00:00	2024-11-08T05:00:00	3	Temperatura mínima	18.3
175392	7	Sololá	712	San Antonio Palopó	9	San Antonio Palopo	6	Junio	2023-06-06T00:00:00	2024-11-08T05:00:00	5	Humedad	75
175393	7	Sololá	712	San Antonio Palopó	9	San Antonio Palopo	6	Junio	2023-06-06T00:00:00	2024-11-08T05:00:00	6	Velocidad del viento	4.8
175394	7	Sololá	712	San Antonio Palopó	9	San Antonio Palopo	6	Junio	2023-06-06T00:00:00	2024-11-08T05:00:00	7	Dirección del viento	4.83
175395	7	Sololá	712	San Antonio Palopó	9	San Antonio Palopo	6	Junio	2023-06-06T00:00:00	2024-11-08T05:00:00	1	Precipitación	0
175396	7	Sololá	712	San Antonio Palopó	9	San Antonio Palopo	6	Junio	2023-06-06T00:00:00	2024-11-08T05:00:00	8	Radiación solar	0
175397	7	Sololá	712	San Antonio Palopó	9	San Antonio Palopo	6	Junio	2023-06-06T00:00:00	2024-11-08T06:00:00	2	Temperatura media	19.1
175398	7	Sololá	712	San Antonio Palopó	9	San Antonio Palopo	6	Junio	2023-06-06T00:00:00	2024-11-08T06:00:00	4	Temperatura máxima	19.2
175399	7	Sololá	712	San Antonio Palopó	9	San Antonio Palopo	6	Junio	2023-06-06T00:00:00	2024-11-08T06:00:00	3	Temperatura mínima	18.3
175400	7	Sololá	712	San Antonio Palopó	9	San Antonio Palopo	6	Junio	2023-06-06T00:00:00	2024-11-08T06:00:00	5	Humedad	67
175401	7	Sololá	712	San Antonio Palopó	9	San Antonio Palopo	6	Junio	2023-06-06T00:00:00	2024-11-08T06:00:00	6	Velocidad del viento	3.2
175402	7	Sololá	712	San Antonio Palopó	9	San Antonio Palopo	6	Junio	2023-06-06T00:00:00	2024-11-08T06:00:00	7	Dirección del viento	3.22
175403	7	Sololá	712	San Antonio Palopó	9	San Antonio Palopo	6	Junio	2023-06-06T00:00:00	2024-11-08T06:00:00	1	Precipitación	0
175404	7	Sololá	712	San Antonio Palopó	9	San Antonio Palopo	6	Junio	2023-06-06T00:00:00	2024-11-08T06:00:00	8	Radiación solar	4
175405	7	Sololá	712	San Antonio Palopó	9	San Antonio Palopo	6	Junio	2023-06-06T00:00:00	2024-11-08T07:00:00	2	Temperatura media	19.9
175406	7	Sololá	712	San Antonio Palopó	9	San Antonio Palopo	6	Junio	2023-06-06T00:00:00	2024-11-08T07:00:00	4	Temperatura máxima	19.9
175407	7	Sololá	712	San Antonio Palopó	9	San Antonio Palopo	6	Junio	2023-06-06T00:00:00	2024-11-08T07:00:00	3	Temperatura mínima	19.1
175408	7	Sololá	712	San Antonio Palopó	9	San Antonio Palopo	6	Junio	2023-06-06T00:00:00	2024-11-08T07:00:00	5	Humedad	65
175409	7	Sololá	712	San Antonio Palopó	9	San Antonio Palopo	6	Junio	2023-06-06T00:00:00	2024-11-08T07:00:00	6	Velocidad del viento	3.2
175410	7	Sololá	712	San Antonio Palopó	9	San Antonio Palopo	6	Junio	2023-06-06T00:00:00	2024-11-08T07:00:00	7	Dirección del viento	3.22
175411	7	Sololá	712	San Antonio Palopó	9	San Antonio Palopo	6	Junio	2023-06-06T00:00:00	2024-11-08T07:00:00	1	Precipitación	0
175412	7	Sololá	712	San Antonio Palopó	9	San Antonio Palopo	6	Junio	2023-06-06T00:00:00	2024-11-08T07:00:00	8	Radiación solar	70
175413	7	Sololá	712	San Antonio Palopó	9	San Antonio Palopo	6	Junio	2023-06-06T00:00:00	2024-11-08T08:00:00	2	Temperatura media	21.1
175414	7	Sololá	712	San Antonio Palopó	9	San Antonio Palopo	6	Junio	2023-06-06T00:00:00	2024-11-08T08:00:00	4	Temperatura máxima	21.3
175415	7	Sololá	712	San Antonio Palopó	9	San Antonio Palopo	6	Junio	2023-06-06T00:00:00	2024-11-08T08:00:00	3	Temperatura mínima	19.9
175416	7	Sololá	712	San Antonio Palopó	9	San Antonio Palopo	6	Junio	2023-06-06T00:00:00	2024-11-08T08:00:00	5	Humedad	71
175417	7	Sololá	712	San Antonio Palopó	9	San Antonio Palopo	6	Junio	2023-06-06T00:00:00	2024-11-08T08:00:00	6	Velocidad del viento	3.2
175418	7	Sololá	712	San Antonio Palopó	9	San Antonio Palopo	6	Junio	2023-06-06T00:00:00	2024-11-08T08:00:00	7	Dirección del viento	3.22
175419	7	Sololá	712	San Antonio Palopó	9	San Antonio Palopo	6	Junio	2023-06-06T00:00:00	2024-11-08T08:00:00	1	Precipitación	0
175420	7	Sololá	712	San Antonio Palopó	9	San Antonio Palopo	6	Junio	2023-06-06T00:00:00	2024-11-08T08:00:00	8	Radiación solar	217
175421	7	Sololá	712	San Antonio Palopó	9	San Antonio Palopo	6	Junio	2023-06-06T00:00:00	2024-11-08T09:00:00	2	Temperatura media	21.8
175422	7	Sololá	712	San Antonio Palopó	9	San Antonio Palopo	6	Junio	2023-06-06T00:00:00	2024-11-08T09:00:00	4	Temperatura máxima	21.9
175423	7	Sololá	712	San Antonio Palopó	9	San Antonio Palopo	6	Junio	2023-06-06T00:00:00	2024-11-08T09:00:00	3	Temperatura mínima	21.1
175424	7	Sololá	712	San Antonio Palopó	9	San Antonio Palopo	6	Junio	2023-06-06T00:00:00	2024-11-08T09:00:00	5	Humedad	66
175425	7	Sololá	712	San Antonio Palopó	9	San Antonio Palopo	6	Junio	2023-06-06T00:00:00	2024-11-08T09:00:00	6	Velocidad del viento	1.6
175426	7	Sololá	712	San Antonio Palopó	9	San Antonio Palopo	6	Junio	2023-06-06T00:00:00	2024-11-08T09:00:00	7	Dirección del viento	1.61
175427	7	Sololá	712	San Antonio Palopó	9	San Antonio Palopo	6	Junio	2023-06-06T00:00:00	2024-11-08T09:00:00	1	Precipitación	0
175428	7	Sololá	712	San Antonio Palopó	9	San Antonio Palopo	6	Junio	2023-06-06T00:00:00	2024-11-08T09:00:00	8	Radiación solar	428
175429	7	Sololá	712	San Antonio Palopó	9	San Antonio Palopo	6	Junio	2023-06-06T00:00:00	2024-11-08T10:00:00	2	Temperatura media	22.4
175430	7	Sololá	712	San Antonio Palopó	9	San Antonio Palopo	6	Junio	2023-06-06T00:00:00	2024-11-08T10:00:00	4	Temperatura máxima	22.8
175431	7	Sololá	712	San Antonio Palopó	9	San Antonio Palopo	6	Junio	2023-06-06T00:00:00	2024-11-08T10:00:00	3	Temperatura mínima	21.9
175432	7	Sololá	712	San Antonio Palopó	9	San Antonio Palopo	6	Junio	2023-06-06T00:00:00	2024-11-08T10:00:00	5	Humedad	69
175433	7	Sololá	712	San Antonio Palopó	9	San Antonio Palopo	6	Junio	2023-06-06T00:00:00	2024-11-08T10:00:00	6	Velocidad del viento	3.2
175434	7	Sololá	712	San Antonio Palopó	9	San Antonio Palopo	6	Junio	2023-06-06T00:00:00	2024-11-08T10:00:00	7	Dirección del viento	3.22
175435	7	Sololá	712	San Antonio Palopó	9	San Antonio Palopo	6	Junio	2023-06-06T00:00:00	2024-11-08T10:00:00	1	Precipitación	0
175436	7	Sololá	712	San Antonio Palopó	9	San Antonio Palopo	6	Junio	2023-06-06T00:00:00	2024-11-08T10:00:00	8	Radiación solar	444
175437	7	Sololá	712	San Antonio Palopó	9	San Antonio Palopo	6	Junio	2023-06-06T00:00:00	2024-11-08T11:00:00	2	Temperatura media	23.3
175438	7	Sololá	712	San Antonio Palopó	9	San Antonio Palopo	6	Junio	2023-06-06T00:00:00	2024-11-08T11:00:00	4	Temperatura máxima	23.4
175439	7	Sololá	712	San Antonio Palopó	9	San Antonio Palopo	6	Junio	2023-06-06T00:00:00	2024-11-08T11:00:00	3	Temperatura mínima	22.3
175440	7	Sololá	712	San Antonio Palopó	9	San Antonio Palopo	6	Junio	2023-06-06T00:00:00	2024-11-08T11:00:00	5	Humedad	67
175441	7	Sololá	712	San Antonio Palopó	9	San Antonio Palopo	6	Junio	2023-06-06T00:00:00	2024-11-08T11:00:00	6	Velocidad del viento	4.8
175442	7	Sololá	712	San Antonio Palopó	9	San Antonio Palopo	6	Junio	2023-06-06T00:00:00	2024-11-08T11:00:00	7	Dirección del viento	4.83
175443	7	Sololá	712	San Antonio Palopó	9	San Antonio Palopo	6	Junio	2023-06-06T00:00:00	2024-11-08T11:00:00	1	Precipitación	0
175444	7	Sololá	712	San Antonio Palopó	9	San Antonio Palopo	6	Junio	2023-06-06T00:00:00	2024-11-08T11:00:00	8	Radiación solar	623
175445	7	Sololá	712	San Antonio Palopó	9	San Antonio Palopo	6	Junio	2023-06-06T00:00:00	2024-11-08T12:00:00	2	Temperatura media	24.7
175446	7	Sololá	712	San Antonio Palopó	9	San Antonio Palopo	6	Junio	2023-06-06T00:00:00	2024-11-08T12:00:00	4	Temperatura máxima	24.8
175447	7	Sololá	712	San Antonio Palopó	9	San Antonio Palopo	6	Junio	2023-06-06T00:00:00	2024-11-08T12:00:00	3	Temperatura mínima	23.3
175448	7	Sololá	712	San Antonio Palopó	9	San Antonio Palopo	6	Junio	2023-06-06T00:00:00	2024-11-08T12:00:00	5	Humedad	59
175449	7	Sololá	712	San Antonio Palopó	9	San Antonio Palopo	6	Junio	2023-06-06T00:00:00	2024-11-08T12:00:00	6	Velocidad del viento	4.8
175450	7	Sololá	712	San Antonio Palopó	9	San Antonio Palopo	6	Junio	2023-06-06T00:00:00	2024-11-08T12:00:00	7	Dirección del viento	4.83
175451	7	Sololá	712	San Antonio Palopó	9	San Antonio Palopo	6	Junio	2023-06-06T00:00:00	2024-11-08T12:00:00	1	Precipitación	0
175452	7	Sololá	712	San Antonio Palopó	9	San Antonio Palopo	6	Junio	2023-06-06T00:00:00	2024-11-08T12:00:00	8	Radiación solar	818
175453	7	Sololá	712	San Antonio Palopó	9	San Antonio Palopo	6	Junio	2023-06-06T00:00:00	2024-11-08T13:00:00	2	Temperatura media	22.8
175454	7	Sololá	712	San Antonio Palopó	9	San Antonio Palopo	6	Junio	2023-06-06T00:00:00	2024-11-08T13:00:00	4	Temperatura máxima	24.8
175455	7	Sololá	712	San Antonio Palopó	9	San Antonio Palopo	6	Junio	2023-06-06T00:00:00	2024-11-08T13:00:00	3	Temperatura mínima	22.7
175456	7	Sololá	712	San Antonio Palopó	9	San Antonio Palopo	6	Junio	2023-06-06T00:00:00	2024-11-08T13:00:00	5	Humedad	73
175457	7	Sololá	712	San Antonio Palopó	9	San Antonio Palopo	6	Junio	2023-06-06T00:00:00	2024-11-08T13:00:00	6	Velocidad del viento	6.4
175458	7	Sololá	712	San Antonio Palopó	9	San Antonio Palopo	6	Junio	2023-06-06T00:00:00	2024-11-08T13:00:00	7	Dirección del viento	6.44
175459	7	Sololá	712	San Antonio Palopó	9	San Antonio Palopo	6	Junio	2023-06-06T00:00:00	2024-11-08T13:00:00	1	Precipitación	0
175460	7	Sololá	712	San Antonio Palopó	9	San Antonio Palopo	6	Junio	2023-06-06T00:00:00	2024-11-08T13:00:00	8	Radiación solar	621
175461	7	Sololá	712	San Antonio Palopó	9	San Antonio Palopo	6	Junio	2023-06-06T00:00:00	2024-11-08T14:00:00	2	Temperatura media	22.8
175462	7	Sololá	712	San Antonio Palopó	9	San Antonio Palopo	6	Junio	2023-06-06T00:00:00	2024-11-08T14:00:00	4	Temperatura máxima	23.2
175463	7	Sololá	712	San Antonio Palopó	9	San Antonio Palopo	6	Junio	2023-06-06T00:00:00	2024-11-08T14:00:00	3	Temperatura mínima	22.6
175464	7	Sololá	712	San Antonio Palopó	9	San Antonio Palopo	6	Junio	2023-06-06T00:00:00	2024-11-08T14:00:00	5	Humedad	74
175465	7	Sololá	712	San Antonio Palopó	9	San Antonio Palopo	6	Junio	2023-06-06T00:00:00	2024-11-08T14:00:00	6	Velocidad del viento	4.8
175466	7	Sololá	712	San Antonio Palopó	9	San Antonio Palopo	6	Junio	2023-06-06T00:00:00	2024-11-08T14:00:00	7	Dirección del viento	4.83
175467	7	Sololá	712	San Antonio Palopó	9	San Antonio Palopo	6	Junio	2023-06-06T00:00:00	2024-11-08T14:00:00	1	Precipitación	0
175468	7	Sololá	712	San Antonio Palopó	9	San Antonio Palopo	6	Junio	2023-06-06T00:00:00	2024-11-08T14:00:00	8	Radiación solar	322
175469	7	Sololá	712	San Antonio Palopó	9	San Antonio Palopo	6	Junio	2023-06-06T00:00:00	2024-11-08T15:00:00	2	Temperatura media	22.2
175470	7	Sololá	712	San Antonio Palopó	9	San Antonio Palopo	6	Junio	2023-06-06T00:00:00	2024-11-08T15:00:00	4	Temperatura máxima	22.8
175471	7	Sololá	712	San Antonio Palopó	9	San Antonio Palopo	6	Junio	2023-06-06T00:00:00	2024-11-08T15:00:00	3	Temperatura mínima	22.1
175472	7	Sololá	712	San Antonio Palopó	9	San Antonio Palopo	6	Junio	2023-06-06T00:00:00	2024-11-08T15:00:00	5	Humedad	78
175473	7	Sololá	712	San Antonio Palopó	9	San Antonio Palopo	6	Junio	2023-06-06T00:00:00	2024-11-08T15:00:00	6	Velocidad del viento	6.4
175474	7	Sololá	712	San Antonio Palopó	9	San Antonio Palopo	6	Junio	2023-06-06T00:00:00	2024-11-08T15:00:00	7	Dirección del viento	6.44
175475	7	Sololá	712	San Antonio Palopó	9	San Antonio Palopo	6	Junio	2023-06-06T00:00:00	2024-11-08T15:00:00	1	Precipitación	0
175476	7	Sololá	712	San Antonio Palopó	9	San Antonio Palopo	6	Junio	2023-06-06T00:00:00	2024-11-08T15:00:00	8	Radiación solar	264
175477	7	Sololá	712	San Antonio Palopó	9	San Antonio Palopo	6	Junio	2023-06-06T00:00:00	2024-11-08T16:00:00	2	Temperatura media	21.6
175478	7	Sololá	712	San Antonio Palopó	9	San Antonio Palopo	6	Junio	2023-06-06T00:00:00	2024-11-08T16:00:00	4	Temperatura máxima	22.3
175479	7	Sololá	712	San Antonio Palopó	9	San Antonio Palopo	6	Junio	2023-06-06T00:00:00	2024-11-08T16:00:00	3	Temperatura mínima	21.6
175480	7	Sololá	712	San Antonio Palopó	9	San Antonio Palopo	6	Junio	2023-06-06T00:00:00	2024-11-08T16:00:00	5	Humedad	79
175481	7	Sololá	712	San Antonio Palopó	9	San Antonio Palopo	6	Junio	2023-06-06T00:00:00	2024-11-08T16:00:00	6	Velocidad del viento	4.8
175482	7	Sololá	712	San Antonio Palopó	9	San Antonio Palopo	6	Junio	2023-06-06T00:00:00	2024-11-08T16:00:00	7	Dirección del viento	4.83
175483	7	Sololá	712	San Antonio Palopó	9	San Antonio Palopo	6	Junio	2023-06-06T00:00:00	2024-11-08T16:00:00	1	Precipitación	0
175484	7	Sololá	712	San Antonio Palopó	9	San Antonio Palopo	6	Junio	2023-06-06T00:00:00	2024-11-08T16:00:00	8	Radiación solar	149
175485	7	Sololá	712	San Antonio Palopó	9	San Antonio Palopo	6	Junio	2023-06-06T00:00:00	2024-11-08T17:00:00	2	Temperatura media	21.8
175486	7	Sololá	712	San Antonio Palopó	9	San Antonio Palopo	6	Junio	2023-06-06T00:00:00	2024-11-08T17:00:00	4	Temperatura máxima	21.9
175487	7	Sololá	712	San Antonio Palopó	9	San Antonio Palopo	6	Junio	2023-06-06T00:00:00	2024-11-08T17:00:00	3	Temperatura mínima	21.4
175488	7	Sololá	712	San Antonio Palopó	9	San Antonio Palopo	6	Junio	2023-06-06T00:00:00	2024-11-08T17:00:00	5	Humedad	78
175489	7	Sololá	712	San Antonio Palopó	9	San Antonio Palopo	6	Junio	2023-06-06T00:00:00	2024-11-08T17:00:00	6	Velocidad del viento	3.2
175490	7	Sololá	712	San Antonio Palopó	9	San Antonio Palopo	6	Junio	2023-06-06T00:00:00	2024-11-08T17:00:00	7	Dirección del viento	3.22
175491	7	Sololá	712	San Antonio Palopó	9	San Antonio Palopo	6	Junio	2023-06-06T00:00:00	2024-11-08T17:00:00	1	Precipitación	0
175492	7	Sololá	712	San Antonio Palopó	9	San Antonio Palopo	6	Junio	2023-06-06T00:00:00	2024-11-08T17:00:00	8	Radiación solar	88
175493	7	Sololá	712	San Antonio Palopó	9	San Antonio Palopo	6	Junio	2023-06-06T00:00:00	2024-11-08T18:00:00	2	Temperatura media	21.9
175494	7	Sololá	712	San Antonio Palopó	9	San Antonio Palopo	6	Junio	2023-06-06T00:00:00	2024-11-08T18:00:00	4	Temperatura máxima	22.1
175495	7	Sololá	712	San Antonio Palopó	9	San Antonio Palopo	6	Junio	2023-06-06T00:00:00	2024-11-08T18:00:00	3	Temperatura mínima	21.7
175496	7	Sololá	712	San Antonio Palopó	9	San Antonio Palopo	6	Junio	2023-06-06T00:00:00	2024-11-08T18:00:00	5	Humedad	73
175497	7	Sololá	712	San Antonio Palopó	9	San Antonio Palopo	6	Junio	2023-06-06T00:00:00	2024-11-08T18:00:00	6	Velocidad del viento	3.2
175498	7	Sololá	712	San Antonio Palopó	9	San Antonio Palopo	6	Junio	2023-06-06T00:00:00	2024-11-08T18:00:00	7	Dirección del viento	3.22
175499	7	Sololá	712	San Antonio Palopó	9	San Antonio Palopo	6	Junio	2023-06-06T00:00:00	2024-11-08T18:00:00	1	Precipitación	0
175500	7	Sololá	712	San Antonio Palopó	9	San Antonio Palopo	6	Junio	2023-06-06T00:00:00	2024-11-08T18:00:00	8	Radiación solar	73
175501	7	Sololá	712	San Antonio Palopó	9	San Antonio Palopo	6	Junio	2023-06-06T00:00:00	2024-11-08T19:00:00	2	Temperatura media	21.3
175502	7	Sololá	712	San Antonio Palopó	9	San Antonio Palopo	6	Junio	2023-06-06T00:00:00	2024-11-08T19:00:00	4	Temperatura máxima	21.9
175503	7	Sololá	712	San Antonio Palopó	9	San Antonio Palopo	6	Junio	2023-06-06T00:00:00	2024-11-08T19:00:00	3	Temperatura mínima	21.2
175504	7	Sololá	712	San Antonio Palopó	9	San Antonio Palopo	6	Junio	2023-06-06T00:00:00	2024-11-08T19:00:00	5	Humedad	76
175505	7	Sololá	712	San Antonio Palopó	9	San Antonio Palopo	6	Junio	2023-06-06T00:00:00	2024-11-08T19:00:00	6	Velocidad del viento	3.2
175506	7	Sololá	712	San Antonio Palopó	9	San Antonio Palopo	6	Junio	2023-06-06T00:00:00	2024-11-08T19:00:00	7	Dirección del viento	3.22
175507	7	Sololá	712	San Antonio Palopó	9	San Antonio Palopo	6	Junio	2023-06-06T00:00:00	2024-11-08T19:00:00	1	Precipitación	0
175508	7	Sololá	712	San Antonio Palopó	9	San Antonio Palopo	6	Junio	2023-06-06T00:00:00	2024-11-08T19:00:00	8	Radiación solar	0
175509	7	Sololá	712	San Antonio Palopó	9	San Antonio Palopo	6	Junio	2023-06-06T00:00:00	2024-11-08T20:00:00	2	Temperatura media	21.5
175510	7	Sololá	712	San Antonio Palopó	9	San Antonio Palopo	6	Junio	2023-06-06T00:00:00	2024-11-08T20:00:00	4	Temperatura máxima	21.8
175511	7	Sololá	712	San Antonio Palopó	9	San Antonio Palopo	6	Junio	2023-06-06T00:00:00	2024-11-08T20:00:00	3	Temperatura mínima	21.2
175512	7	Sololá	712	San Antonio Palopó	9	San Antonio Palopo	6	Junio	2023-06-06T00:00:00	2024-11-08T20:00:00	5	Humedad	69
175513	7	Sololá	712	San Antonio Palopó	9	San Antonio Palopo	6	Junio	2023-06-06T00:00:00	2024-11-08T20:00:00	6	Velocidad del viento	3.2
175514	7	Sololá	712	San Antonio Palopó	9	San Antonio Palopo	6	Junio	2023-06-06T00:00:00	2024-11-08T20:00:00	7	Dirección del viento	3.22
175515	7	Sololá	712	San Antonio Palopó	9	San Antonio Palopo	6	Junio	2023-06-06T00:00:00	2024-11-08T20:00:00	1	Precipitación	0
175516	7	Sololá	712	San Antonio Palopó	9	San Antonio Palopo	6	Junio	2023-06-06T00:00:00	2024-11-08T20:00:00	8	Radiación solar	0
175517	7	Sololá	712	San Antonio Palopó	9	San Antonio Palopo	6	Junio	2023-06-06T00:00:00	2024-11-08T21:00:00	2	Temperatura media	20.9
175518	7	Sololá	712	San Antonio Palopó	9	San Antonio Palopo	6	Junio	2023-06-06T00:00:00	2024-11-08T21:00:00	4	Temperatura máxima	21.5
175519	7	Sololá	712	San Antonio Palopó	9	San Antonio Palopo	6	Junio	2023-06-06T00:00:00	2024-11-08T21:00:00	3	Temperatura mínima	20.8
175520	7	Sololá	712	San Antonio Palopó	9	San Antonio Palopo	6	Junio	2023-06-06T00:00:00	2024-11-08T21:00:00	5	Humedad	69
175521	7	Sololá	712	San Antonio Palopó	9	San Antonio Palopo	6	Junio	2023-06-06T00:00:00	2024-11-08T21:00:00	6	Velocidad del viento	4.8
175522	7	Sololá	712	San Antonio Palopó	9	San Antonio Palopo	6	Junio	2023-06-06T00:00:00	2024-11-08T21:00:00	7	Dirección del viento	4.83
175523	7	Sololá	712	San Antonio Palopó	9	San Antonio Palopo	6	Junio	2023-06-06T00:00:00	2024-11-08T21:00:00	1	Precipitación	0
175524	7	Sololá	712	San Antonio Palopó	9	San Antonio Palopo	6	Junio	2023-06-06T00:00:00	2024-11-08T21:00:00	8	Radiación solar	0
175525	7	Sololá	712	San Antonio Palopó	9	San Antonio Palopo	6	Junio	2023-06-06T00:00:00	2024-11-08T22:00:00	2	Temperatura media	20.7
175526	7	Sololá	712	San Antonio Palopó	9	San Antonio Palopo	6	Junio	2023-06-06T00:00:00	2024-11-08T22:00:00	4	Temperatura máxima	21.1
175527	7	Sololá	712	San Antonio Palopó	9	San Antonio Palopo	6	Junio	2023-06-06T00:00:00	2024-11-08T22:00:00	3	Temperatura mínima	20.7
175528	7	Sololá	712	San Antonio Palopó	9	San Antonio Palopo	6	Junio	2023-06-06T00:00:00	2024-11-08T22:00:00	5	Humedad	71
175529	7	Sololá	712	San Antonio Palopó	9	San Antonio Palopo	6	Junio	2023-06-06T00:00:00	2024-11-08T22:00:00	6	Velocidad del viento	3.2
175530	7	Sololá	712	San Antonio Palopó	9	San Antonio Palopo	6	Junio	2023-06-06T00:00:00	2024-11-08T22:00:00	7	Dirección del viento	3.22
175531	7	Sololá	712	San Antonio Palopó	9	San Antonio Palopo	6	Junio	2023-06-06T00:00:00	2024-11-08T22:00:00	1	Precipitación	0
175532	7	Sololá	712	San Antonio Palopó	9	San Antonio Palopo	6	Junio	2023-06-06T00:00:00	2024-11-08T22:00:00	8	Radiación solar	0
175533	7	Sololá	712	San Antonio Palopó	9	San Antonio Palopo	6	Junio	2023-06-06T00:00:00	2024-11-08T23:00:00	2	Temperatura media	20.5
175534	7	Sololá	712	San Antonio Palopó	9	San Antonio Palopo	6	Junio	2023-06-06T00:00:00	2024-11-08T23:00:00	4	Temperatura máxima	20.7
175535	7	Sololá	712	San Antonio Palopó	9	San Antonio Palopo	6	Junio	2023-06-06T00:00:00	2024-11-08T23:00:00	3	Temperatura mínima	20.4
175536	7	Sololá	712	San Antonio Palopó	9	San Antonio Palopo	6	Junio	2023-06-06T00:00:00	2024-11-08T23:00:00	5	Humedad	77
175537	7	Sololá	712	San Antonio Palopó	9	San Antonio Palopo	6	Junio	2023-06-06T00:00:00	2024-11-08T23:00:00	6	Velocidad del viento	3.2
175538	7	Sololá	712	San Antonio Palopó	9	San Antonio Palopo	6	Junio	2023-06-06T00:00:00	2024-11-08T23:00:00	7	Dirección del viento	3.22
175539	7	Sololá	712	San Antonio Palopó	9	San Antonio Palopo	6	Junio	2023-06-06T00:00:00	2024-11-08T23:00:00	1	Precipitación	0
175540	7	Sololá	712	San Antonio Palopó	9	San Antonio Palopo	6	Junio	2023-06-06T00:00:00	2024-11-08T23:00:00	8	Radiación solar	0
175541	7	Sololá	712	San Antonio Palopó	9	San Antonio Palopo	6	Junio	2023-07-06T00:00:00	2024-11-08T00:00:00	2	Temperatura media	19.9
175542	7	Sololá	712	San Antonio Palopó	9	San Antonio Palopo	6	Junio	2023-07-06T00:00:00	2024-11-08T00:00:00	4	Temperatura máxima	20.4
175543	7	Sololá	712	San Antonio Palopó	9	San Antonio Palopo	6	Junio	2023-07-06T00:00:00	2024-11-08T00:00:00	3	Temperatura mínima	19.9
175544	7	Sololá	712	San Antonio Palopó	9	San Antonio Palopo	6	Junio	2023-07-06T00:00:00	2024-11-08T00:00:00	5	Humedad	75
175545	7	Sololá	712	San Antonio Palopó	9	San Antonio Palopo	6	Junio	2023-07-06T00:00:00	2024-11-08T00:00:00	6	Velocidad del viento	1.6
175546	7	Sololá	712	San Antonio Palopó	9	San Antonio Palopo	6	Junio	2023-07-06T00:00:00	2024-11-08T00:00:00	7	Dirección del viento	1.61
175547	7	Sololá	712	San Antonio Palopó	9	San Antonio Palopo	6	Junio	2023-07-06T00:00:00	2024-11-08T00:00:00	1	Precipitación	0
175548	7	Sololá	712	San Antonio Palopó	9	San Antonio Palopo	6	Junio	2023-07-06T00:00:00	2024-11-08T00:00:00	8	Radiación solar	0
175549	7	Sololá	712	San Antonio Palopó	9	San Antonio Palopo	6	Junio	2023-07-06T00:00:00	2024-11-08T01:00:00	2	Temperatura media	19.3
175550	7	Sololá	712	San Antonio Palopó	9	San Antonio Palopo	6	Junio	2023-07-06T00:00:00	2024-11-08T01:00:00	4	Temperatura máxima	19.9
175551	7	Sololá	712	San Antonio Palopó	9	San Antonio Palopo	6	Junio	2023-07-06T00:00:00	2024-11-08T01:00:00	3	Temperatura mínima	19.3
175552	7	Sololá	712	San Antonio Palopó	9	San Antonio Palopo	6	Junio	2023-07-06T00:00:00	2024-11-08T01:00:00	5	Humedad	78
175553	7	Sololá	712	San Antonio Palopó	9	San Antonio Palopo	6	Junio	2023-07-06T00:00:00	2024-11-08T01:00:00	6	Velocidad del viento	3.2
175554	7	Sololá	712	San Antonio Palopó	9	San Antonio Palopo	6	Junio	2023-07-06T00:00:00	2024-11-08T01:00:00	7	Dirección del viento	3.22
175555	7	Sololá	712	San Antonio Palopó	9	San Antonio Palopo	6	Junio	2023-07-06T00:00:00	2024-11-08T01:00:00	1	Precipitación	0
175556	7	Sololá	712	San Antonio Palopó	9	San Antonio Palopo	6	Junio	2023-07-06T00:00:00	2024-11-08T01:00:00	8	Radiación solar	0
175557	7	Sololá	712	San Antonio Palopó	9	San Antonio Palopo	6	Junio	2023-07-06T00:00:00	2024-11-08T02:00:00	2	Temperatura media	18.7
175558	7	Sololá	712	San Antonio Palopó	9	San Antonio Palopo	6	Junio	2023-07-06T00:00:00	2024-11-08T02:00:00	4	Temperatura máxima	19.3
175559	7	Sololá	712	San Antonio Palopó	9	San Antonio Palopo	6	Junio	2023-07-06T00:00:00	2024-11-08T02:00:00	3	Temperatura mínima	18.6
175560	7	Sololá	712	San Antonio Palopó	9	San Antonio Palopo	6	Junio	2023-07-06T00:00:00	2024-11-08T02:00:00	5	Humedad	79
175561	7	Sololá	712	San Antonio Palopó	9	San Antonio Palopo	6	Junio	2023-07-06T00:00:00	2024-11-08T02:00:00	6	Velocidad del viento	3.2
175562	7	Sololá	712	San Antonio Palopó	9	San Antonio Palopo	6	Junio	2023-07-06T00:00:00	2024-11-08T02:00:00	7	Dirección del viento	3.22
175563	7	Sololá	712	San Antonio Palopó	9	San Antonio Palopo	6	Junio	2023-07-06T00:00:00	2024-11-08T02:00:00	1	Precipitación	0
175564	7	Sololá	712	San Antonio Palopó	9	San Antonio Palopo	6	Junio	2023-07-06T00:00:00	2024-11-08T02:00:00	8	Radiación solar	0
175565	7	Sololá	712	San Antonio Palopó	9	San Antonio Palopo	6	Junio	2023-07-06T00:00:00	2024-11-08T03:00:00	2	Temperatura media	18.7
175566	7	Sololá	712	San Antonio Palopó	9	San Antonio Palopo	6	Junio	2023-07-06T00:00:00	2024-11-08T03:00:00	4	Temperatura máxima	19.3
175567	7	Sololá	712	San Antonio Palopó	9	San Antonio Palopo	6	Junio	2023-07-06T00:00:00	2024-11-08T03:00:00	3	Temperatura mínima	18.7
175568	7	Sololá	712	San Antonio Palopó	9	San Antonio Palopo	6	Junio	2023-07-06T00:00:00	2024-11-08T03:00:00	5	Humedad	77
175569	7	Sololá	712	San Antonio Palopó	9	San Antonio Palopo	6	Junio	2023-07-06T00:00:00	2024-11-08T03:00:00	6	Velocidad del viento	4.8
175570	7	Sololá	712	San Antonio Palopó	9	San Antonio Palopo	6	Junio	2023-07-06T00:00:00	2024-11-08T03:00:00	7	Dirección del viento	4.83
175571	7	Sololá	712	San Antonio Palopó	9	San Antonio Palopo	6	Junio	2023-07-06T00:00:00	2024-11-08T03:00:00	1	Precipitación	0
175572	7	Sololá	712	San Antonio Palopó	9	San Antonio Palopo	6	Junio	2023-07-06T00:00:00	2024-11-08T03:00:00	8	Radiación solar	0
175573	7	Sololá	712	San Antonio Palopó	9	San Antonio Palopo	6	Junio	2023-07-06T00:00:00	2024-11-08T04:00:00	2	Temperatura media	18.9
175574	7	Sololá	712	San Antonio Palopó	9	San Antonio Palopo	6	Junio	2023-07-06T00:00:00	2024-11-08T04:00:00	4	Temperatura máxima	18.9
175575	7	Sololá	712	San Antonio Palopó	9	San Antonio Palopo	6	Junio	2023-07-06T00:00:00	2024-11-08T04:00:00	3	Temperatura mínima	18
175576	7	Sololá	712	San Antonio Palopó	9	San Antonio Palopo	6	Junio	2023-07-06T00:00:00	2024-11-08T04:00:00	5	Humedad	78
175577	7	Sololá	712	San Antonio Palopó	9	San Antonio Palopo	6	Junio	2023-07-06T00:00:00	2024-11-08T04:00:00	6	Velocidad del viento	1.6
175578	7	Sololá	712	San Antonio Palopó	9	San Antonio Palopo	6	Junio	2023-07-06T00:00:00	2024-11-08T04:00:00	7	Dirección del viento	1.61
175579	7	Sololá	712	San Antonio Palopó	9	San Antonio Palopo	6	Junio	2023-07-06T00:00:00	2024-11-08T04:00:00	1	Precipitación	0
175580	7	Sololá	712	San Antonio Palopó	9	San Antonio Palopo	6	Junio	2023-07-06T00:00:00	2024-11-08T04:00:00	8	Radiación solar	0
175581	7	Sololá	712	San Antonio Palopó	9	San Antonio Palopo	6	Junio	2023-07-06T00:00:00	2024-11-08T05:00:00	2	Temperatura media	18.3
175582	7	Sololá	712	San Antonio Palopó	9	San Antonio Palopo	6	Junio	2023-07-06T00:00:00	2024-11-08T05:00:00	4	Temperatura máxima	18.9
175583	7	Sololá	712	San Antonio Palopó	9	San Antonio Palopo	6	Junio	2023-07-06T00:00:00	2024-11-08T05:00:00	3	Temperatura mínima	18.2
175584	7	Sololá	712	San Antonio Palopó	9	San Antonio Palopo	6	Junio	2023-07-06T00:00:00	2024-11-08T05:00:00	5	Humedad	78
175585	7	Sololá	712	San Antonio Palopó	9	San Antonio Palopo	6	Junio	2023-07-06T00:00:00	2024-11-08T05:00:00	6	Velocidad del viento	4.8
175586	7	Sololá	712	San Antonio Palopó	9	San Antonio Palopo	6	Junio	2023-07-06T00:00:00	2024-11-08T05:00:00	7	Dirección del viento	4.83
175587	7	Sololá	712	San Antonio Palopó	9	San Antonio Palopo	6	Junio	2023-07-06T00:00:00	2024-11-08T05:00:00	1	Precipitación	0
175588	7	Sololá	712	San Antonio Palopó	9	San Antonio Palopo	6	Junio	2023-07-06T00:00:00	2024-11-08T05:00:00	8	Radiación solar	0
175589	7	Sololá	712	San Antonio Palopó	9	San Antonio Palopo	6	Junio	2023-07-06T00:00:00	2024-11-08T06:00:00	2	Temperatura media	18.6
175590	7	Sololá	712	San Antonio Palopó	9	San Antonio Palopo	6	Junio	2023-07-06T00:00:00	2024-11-08T06:00:00	4	Temperatura máxima	18.8
175591	7	Sololá	712	San Antonio Palopó	9	San Antonio Palopo	6	Junio	2023-07-06T00:00:00	2024-11-08T06:00:00	3	Temperatura mínima	18.3
175592	7	Sololá	712	San Antonio Palopó	9	San Antonio Palopo	6	Junio	2023-07-06T00:00:00	2024-11-08T06:00:00	5	Humedad	74
175593	7	Sololá	712	San Antonio Palopó	9	San Antonio Palopo	6	Junio	2023-07-06T00:00:00	2024-11-08T06:00:00	6	Velocidad del viento	3.2
175594	7	Sololá	712	San Antonio Palopó	9	San Antonio Palopo	6	Junio	2023-07-06T00:00:00	2024-11-08T06:00:00	7	Dirección del viento	3.22
175595	7	Sololá	712	San Antonio Palopó	9	San Antonio Palopo	6	Junio	2023-07-06T00:00:00	2024-11-08T06:00:00	1	Precipitación	0
175596	7	Sololá	712	San Antonio Palopó	9	San Antonio Palopo	6	Junio	2023-07-06T00:00:00	2024-11-08T06:00:00	8	Radiación solar	4
175597	7	Sololá	712	San Antonio Palopó	9	San Antonio Palopo	6	Junio	2023-07-06T00:00:00	2024-11-08T07:00:00	2	Temperatura media	19.1
175598	7	Sololá	712	San Antonio Palopó	9	San Antonio Palopo	6	Junio	2023-07-06T00:00:00	2024-11-08T07:00:00	4	Temperatura máxima	19.1
175599	7	Sololá	712	San Antonio Palopó	9	San Antonio Palopo	6	Junio	2023-07-06T00:00:00	2024-11-08T07:00:00	3	Temperatura mínima	18.6
175600	7	Sololá	712	San Antonio Palopó	9	San Antonio Palopo	6	Junio	2023-07-06T00:00:00	2024-11-08T07:00:00	5	Humedad	78
175601	7	Sololá	712	San Antonio Palopó	9	San Antonio Palopo	6	Junio	2023-07-06T00:00:00	2024-11-08T07:00:00	6	Velocidad del viento	3.2
175602	7	Sololá	712	San Antonio Palopó	9	San Antonio Palopo	6	Junio	2023-07-06T00:00:00	2024-11-08T07:00:00	7	Dirección del viento	3.22
175603	7	Sololá	712	San Antonio Palopó	9	San Antonio Palopo	6	Junio	2023-07-06T00:00:00	2024-11-08T07:00:00	1	Precipitación	0
175604	7	Sololá	712	San Antonio Palopó	9	San Antonio Palopo	6	Junio	2023-07-06T00:00:00	2024-11-08T07:00:00	8	Radiación solar	65
175605	7	Sololá	712	San Antonio Palopó	9	San Antonio Palopo	6	Junio	2023-07-06T00:00:00	2024-11-08T08:00:00	2	Temperatura media	19.9
175606	7	Sololá	712	San Antonio Palopó	9	San Antonio Palopo	6	Junio	2023-07-06T00:00:00	2024-11-08T08:00:00	4	Temperatura máxima	19.9
175607	7	Sololá	712	San Antonio Palopó	9	San Antonio Palopo	6	Junio	2023-07-06T00:00:00	2024-11-08T08:00:00	3	Temperatura mínima	19.1
175608	7	Sololá	712	San Antonio Palopó	9	San Antonio Palopo	6	Junio	2023-07-06T00:00:00	2024-11-08T08:00:00	5	Humedad	78
175609	7	Sololá	712	San Antonio Palopó	9	San Antonio Palopo	6	Junio	2023-07-06T00:00:00	2024-11-08T08:00:00	6	Velocidad del viento	1.6
175610	7	Sololá	712	San Antonio Palopó	9	San Antonio Palopo	6	Junio	2023-07-06T00:00:00	2024-11-08T08:00:00	7	Dirección del viento	1.61
175611	7	Sololá	712	San Antonio Palopó	9	San Antonio Palopo	6	Junio	2023-07-06T00:00:00	2024-11-08T08:00:00	1	Precipitación	0
175612	7	Sololá	712	San Antonio Palopó	9	San Antonio Palopo	6	Junio	2023-07-06T00:00:00	2024-11-08T08:00:00	8	Radiación solar	163
175613	7	Sololá	712	San Antonio Palopó	9	San Antonio Palopo	6	Junio	2023-07-06T00:00:00	2024-11-08T09:00:00	2	Temperatura media	20.8
175614	7	Sololá	712	San Antonio Palopó	9	San Antonio Palopo	6	Junio	2023-07-06T00:00:00	2024-11-08T09:00:00	4	Temperatura máxima	21
175615	7	Sololá	712	San Antonio Palopó	9	San Antonio Palopo	6	Junio	2023-07-06T00:00:00	2024-11-08T09:00:00	3	Temperatura mínima	19.8
175616	7	Sololá	712	San Antonio Palopó	9	San Antonio Palopo	6	Junio	2023-07-06T00:00:00	2024-11-08T09:00:00	5	Humedad	76
175617	7	Sololá	712	San Antonio Palopó	9	San Antonio Palopo	6	Junio	2023-07-06T00:00:00	2024-11-08T09:00:00	6	Velocidad del viento	3.2
175618	7	Sololá	712	San Antonio Palopó	9	San Antonio Palopo	6	Junio	2023-07-06T00:00:00	2024-11-08T09:00:00	7	Dirección del viento	3.22
175619	7	Sololá	712	San Antonio Palopó	9	San Antonio Palopo	6	Junio	2023-07-06T00:00:00	2024-11-08T09:00:00	1	Precipitación	0
175620	7	Sololá	712	San Antonio Palopó	9	San Antonio Palopo	6	Junio	2023-07-06T00:00:00	2024-11-08T09:00:00	8	Radiación solar	414
175621	7	Sololá	712	San Antonio Palopó	9	San Antonio Palopo	6	Junio	2023-07-06T00:00:00	2024-11-08T10:00:00	2	Temperatura media	21.4
175622	7	Sololá	712	San Antonio Palopó	9	San Antonio Palopo	6	Junio	2023-07-06T00:00:00	2024-11-08T10:00:00	4	Temperatura máxima	21.4
175623	7	Sololá	712	San Antonio Palopó	9	San Antonio Palopo	6	Junio	2023-07-06T00:00:00	2024-11-08T10:00:00	3	Temperatura mínima	20.8
175624	7	Sololá	712	San Antonio Palopó	9	San Antonio Palopo	6	Junio	2023-07-06T00:00:00	2024-11-08T10:00:00	5	Humedad	74
175625	7	Sololá	712	San Antonio Palopó	9	San Antonio Palopo	6	Junio	2023-07-06T00:00:00	2024-11-08T10:00:00	6	Velocidad del viento	3.2
175626	7	Sololá	712	San Antonio Palopó	9	San Antonio Palopo	6	Junio	2023-07-06T00:00:00	2024-11-08T10:00:00	7	Dirección del viento	3.22
175627	7	Sololá	712	San Antonio Palopó	9	San Antonio Palopo	6	Junio	2023-07-06T00:00:00	2024-11-08T10:00:00	1	Precipitación	0
175628	7	Sololá	712	San Antonio Palopó	9	San Antonio Palopo	6	Junio	2023-07-06T00:00:00	2024-11-08T10:00:00	8	Radiación solar	530
175629	7	Sololá	712	San Antonio Palopó	9	San Antonio Palopo	6	Junio	2023-07-06T00:00:00	2024-11-08T11:00:00	2	Temperatura media	23.3
175630	7	Sololá	712	San Antonio Palopó	9	San Antonio Palopo	6	Junio	2023-07-06T00:00:00	2024-11-08T11:00:00	4	Temperatura máxima	23.4
175631	7	Sololá	712	San Antonio Palopó	9	San Antonio Palopo	6	Junio	2023-07-06T00:00:00	2024-11-08T11:00:00	3	Temperatura mínima	21.4
175632	7	Sololá	712	San Antonio Palopó	9	San Antonio Palopo	6	Junio	2023-07-06T00:00:00	2024-11-08T11:00:00	5	Humedad	72
175633	7	Sololá	712	San Antonio Palopó	9	San Antonio Palopo	6	Junio	2023-07-06T00:00:00	2024-11-08T11:00:00	6	Velocidad del viento	3.2
175634	7	Sololá	712	San Antonio Palopó	9	San Antonio Palopo	6	Junio	2023-07-06T00:00:00	2024-11-08T11:00:00	7	Dirección del viento	3.22
175635	7	Sololá	712	San Antonio Palopó	9	San Antonio Palopo	6	Junio	2023-07-06T00:00:00	2024-11-08T11:00:00	1	Precipitación	0
175636	7	Sololá	712	San Antonio Palopó	9	San Antonio Palopo	6	Junio	2023-07-06T00:00:00	2024-11-08T11:00:00	8	Radiación solar	840
175637	7	Sololá	712	San Antonio Palopó	9	San Antonio Palopo	6	Junio	2023-07-06T00:00:00	2024-11-08T12:00:00	2	Temperatura media	23.1
175638	7	Sololá	712	San Antonio Palopó	9	San Antonio Palopo	6	Junio	2023-07-06T00:00:00	2024-11-08T12:00:00	4	Temperatura máxima	23.7
175639	7	Sololá	712	San Antonio Palopó	9	San Antonio Palopo	6	Junio	2023-07-06T00:00:00	2024-11-08T12:00:00	3	Temperatura mínima	22.7
175640	7	Sololá	712	San Antonio Palopó	9	San Antonio Palopo	6	Junio	2023-07-06T00:00:00	2024-11-08T12:00:00	5	Humedad	73
175641	7	Sololá	712	San Antonio Palopó	9	San Antonio Palopo	6	Junio	2023-07-06T00:00:00	2024-11-08T12:00:00	6	Velocidad del viento	8
175642	7	Sololá	712	San Antonio Palopó	9	San Antonio Palopo	6	Junio	2023-07-06T00:00:00	2024-11-08T12:00:00	7	Dirección del viento	8.05
175643	7	Sololá	712	San Antonio Palopó	9	San Antonio Palopo	6	Junio	2023-07-06T00:00:00	2024-11-08T12:00:00	1	Precipitación	0
175644	7	Sololá	712	San Antonio Palopó	9	San Antonio Palopo	6	Junio	2023-07-06T00:00:00	2024-11-08T12:00:00	8	Radiación solar	881
175645	7	Sololá	712	San Antonio Palopó	9	San Antonio Palopo	6	Junio	2023-07-06T00:00:00	2024-11-08T13:00:00	2	Temperatura media	23.3
175646	7	Sololá	712	San Antonio Palopó	9	San Antonio Palopo	6	Junio	2023-07-06T00:00:00	2024-11-08T13:00:00	4	Temperatura máxima	23.4
175647	7	Sololá	712	San Antonio Palopó	9	San Antonio Palopo	6	Junio	2023-07-06T00:00:00	2024-11-08T13:00:00	3	Temperatura mínima	22.3
175648	7	Sololá	712	San Antonio Palopó	9	San Antonio Palopo	6	Junio	2023-07-06T00:00:00	2024-11-08T13:00:00	5	Humedad	74
175649	7	Sololá	712	San Antonio Palopó	9	San Antonio Palopo	6	Junio	2023-07-06T00:00:00	2024-11-08T13:00:00	6	Velocidad del viento	11.3
175650	7	Sololá	712	San Antonio Palopó	9	San Antonio Palopo	6	Junio	2023-07-06T00:00:00	2024-11-08T13:00:00	7	Dirección del viento	11.27
175651	7	Sololá	712	San Antonio Palopó	9	San Antonio Palopo	6	Junio	2023-07-06T00:00:00	2024-11-08T13:00:00	1	Precipitación	0
175652	7	Sololá	712	San Antonio Palopó	9	San Antonio Palopo	6	Junio	2023-07-06T00:00:00	2024-11-08T13:00:00	8	Radiación solar	543
175653	7	Sololá	712	San Antonio Palopó	9	San Antonio Palopo	6	Junio	2023-07-06T00:00:00	2024-11-08T14:00:00	2	Temperatura media	22.3
175654	7	Sololá	712	San Antonio Palopó	9	San Antonio Palopo	6	Junio	2023-07-06T00:00:00	2024-11-08T14:00:00	4	Temperatura máxima	23.3
175655	7	Sololá	712	San Antonio Palopó	9	San Antonio Palopo	6	Junio	2023-07-06T00:00:00	2024-11-08T14:00:00	3	Temperatura mínima	22.1
175656	7	Sololá	712	San Antonio Palopó	9	San Antonio Palopo	6	Junio	2023-07-06T00:00:00	2024-11-08T14:00:00	5	Humedad	79
175657	7	Sololá	712	San Antonio Palopó	9	San Antonio Palopo	6	Junio	2023-07-06T00:00:00	2024-11-08T14:00:00	6	Velocidad del viento	8
175658	7	Sololá	712	San Antonio Palopó	9	San Antonio Palopo	6	Junio	2023-07-06T00:00:00	2024-11-08T14:00:00	7	Dirección del viento	8.05
175659	7	Sololá	712	San Antonio Palopó	9	San Antonio Palopo	6	Junio	2023-07-06T00:00:00	2024-11-08T14:00:00	1	Precipitación	0
175660	7	Sololá	712	San Antonio Palopó	9	San Antonio Palopo	6	Junio	2023-07-06T00:00:00	2024-11-08T14:00:00	8	Radiación solar	242
175661	7	Sololá	712	San Antonio Palopó	9	San Antonio Palopo	6	Junio	2023-07-06T00:00:00	2024-11-08T15:00:00	2	Temperatura media	21.8
175662	7	Sololá	712	San Antonio Palopó	9	San Antonio Palopo	6	Junio	2023-07-06T00:00:00	2024-11-08T15:00:00	4	Temperatura máxima	22.3
175663	7	Sololá	712	San Antonio Palopó	9	San Antonio Palopo	6	Junio	2023-07-06T00:00:00	2024-11-08T15:00:00	3	Temperatura mínima	21.4
175664	7	Sololá	712	San Antonio Palopó	9	San Antonio Palopo	6	Junio	2023-07-06T00:00:00	2024-11-08T15:00:00	5	Humedad	78
175665	7	Sololá	712	San Antonio Palopó	9	San Antonio Palopo	6	Junio	2023-07-06T00:00:00	2024-11-08T15:00:00	6	Velocidad del viento	6.4
175666	7	Sololá	712	San Antonio Palopó	9	San Antonio Palopo	6	Junio	2023-07-06T00:00:00	2024-11-08T15:00:00	7	Dirección del viento	6.44
175667	7	Sololá	712	San Antonio Palopó	9	San Antonio Palopo	6	Junio	2023-07-06T00:00:00	2024-11-08T15:00:00	1	Precipitación	0
175668	7	Sololá	712	San Antonio Palopó	9	San Antonio Palopo	6	Junio	2023-07-06T00:00:00	2024-11-08T15:00:00	8	Radiación solar	175
175669	7	Sololá	712	San Antonio Palopó	9	San Antonio Palopo	6	Junio	2023-07-06T00:00:00	2024-11-08T16:00:00	2	Temperatura media	22.6
175670	7	Sololá	712	San Antonio Palopó	9	San Antonio Palopo	6	Junio	2023-07-06T00:00:00	2024-11-08T16:00:00	4	Temperatura máxima	22.6
175671	7	Sololá	712	San Antonio Palopó	9	San Antonio Palopo	6	Junio	2023-07-06T00:00:00	2024-11-08T16:00:00	3	Temperatura mínima	21.1
175672	7	Sololá	712	San Antonio Palopó	9	San Antonio Palopo	6	Junio	2023-07-06T00:00:00	2024-11-08T16:00:00	5	Humedad	77
175673	7	Sololá	712	San Antonio Palopó	9	San Antonio Palopo	6	Junio	2023-07-06T00:00:00	2024-11-08T16:00:00	6	Velocidad del viento	4.8
175674	7	Sololá	712	San Antonio Palopó	9	San Antonio Palopo	6	Junio	2023-07-06T00:00:00	2024-11-08T16:00:00	7	Dirección del viento	4.83
175675	7	Sololá	712	San Antonio Palopó	9	San Antonio Palopo	6	Junio	2023-07-06T00:00:00	2024-11-08T16:00:00	1	Precipitación	0
175676	7	Sololá	712	San Antonio Palopó	9	San Antonio Palopo	6	Junio	2023-07-06T00:00:00	2024-11-08T16:00:00	8	Radiación solar	309
175677	7	Sololá	712	San Antonio Palopó	9	San Antonio Palopo	6	Junio	2023-07-06T00:00:00	2024-11-08T17:00:00	2	Temperatura media	22.9
175678	7	Sololá	712	San Antonio Palopó	9	San Antonio Palopo	6	Junio	2023-07-06T00:00:00	2024-11-08T17:00:00	4	Temperatura máxima	23.7
175679	7	Sololá	712	San Antonio Palopó	9	San Antonio Palopo	6	Junio	2023-07-06T00:00:00	2024-11-08T17:00:00	3	Temperatura mínima	22.6
175680	7	Sololá	712	San Antonio Palopó	9	San Antonio Palopo	6	Junio	2023-07-06T00:00:00	2024-11-08T17:00:00	5	Humedad	76
175681	7	Sololá	712	San Antonio Palopó	9	San Antonio Palopo	6	Junio	2023-07-06T00:00:00	2024-11-08T17:00:00	6	Velocidad del viento	6.4
175682	7	Sololá	712	San Antonio Palopó	9	San Antonio Palopo	6	Junio	2023-07-06T00:00:00	2024-11-08T17:00:00	7	Dirección del viento	6.44
175683	7	Sololá	712	San Antonio Palopó	9	San Antonio Palopo	6	Junio	2023-07-06T00:00:00	2024-11-08T17:00:00	1	Precipitación	0
175684	7	Sololá	712	San Antonio Palopó	9	San Antonio Palopo	6	Junio	2023-07-06T00:00:00	2024-11-08T17:00:00	8	Radiación solar	370
175685	7	Sololá	712	San Antonio Palopó	9	San Antonio Palopo	6	Junio	2023-07-06T00:00:00	2024-11-08T18:00:00	2	Temperatura media	21.2
175686	7	Sololá	712	San Antonio Palopó	9	San Antonio Palopo	6	Junio	2023-07-06T00:00:00	2024-11-08T18:00:00	4	Temperatura máxima	23
175687	7	Sololá	712	San Antonio Palopó	9	San Antonio Palopo	6	Junio	2023-07-06T00:00:00	2024-11-08T18:00:00	3	Temperatura mínima	21.2
175688	7	Sololá	712	San Antonio Palopó	9	San Antonio Palopo	6	Junio	2023-07-06T00:00:00	2024-11-08T18:00:00	5	Humedad	81
175689	7	Sololá	712	San Antonio Palopó	9	San Antonio Palopo	6	Junio	2023-07-06T00:00:00	2024-11-08T18:00:00	6	Velocidad del viento	3.2
175690	7	Sololá	712	San Antonio Palopó	9	San Antonio Palopo	6	Junio	2023-07-06T00:00:00	2024-11-08T18:00:00	7	Dirección del viento	3.22
175691	7	Sololá	712	San Antonio Palopó	9	San Antonio Palopo	6	Junio	2023-07-06T00:00:00	2024-11-08T18:00:00	1	Precipitación	0
175692	7	Sololá	712	San Antonio Palopó	9	San Antonio Palopo	6	Junio	2023-07-06T00:00:00	2024-11-08T18:00:00	8	Radiación solar	85
175693	7	Sololá	712	San Antonio Palopó	9	San Antonio Palopo	6	Junio	2023-07-06T00:00:00	2024-11-08T19:00:00	2	Temperatura media	20.9
175694	7	Sololá	712	San Antonio Palopó	9	San Antonio Palopo	6	Junio	2023-07-06T00:00:00	2024-11-08T19:00:00	4	Temperatura máxima	21.2
175695	7	Sololá	712	San Antonio Palopó	9	San Antonio Palopo	6	Junio	2023-07-06T00:00:00	2024-11-08T19:00:00	3	Temperatura mínima	20.8
175696	7	Sololá	712	San Antonio Palopó	9	San Antonio Palopo	6	Junio	2023-07-06T00:00:00	2024-11-08T19:00:00	5	Humedad	82
175697	7	Sololá	712	San Antonio Palopó	9	San Antonio Palopo	6	Junio	2023-07-06T00:00:00	2024-11-08T19:00:00	6	Velocidad del viento	3.2
175698	7	Sololá	712	San Antonio Palopó	9	San Antonio Palopo	6	Junio	2023-07-06T00:00:00	2024-11-08T19:00:00	7	Dirección del viento	3.22
175699	7	Sololá	712	San Antonio Palopó	9	San Antonio Palopo	6	Junio	2023-07-06T00:00:00	2024-11-08T19:00:00	1	Precipitación	0
175700	7	Sololá	712	San Antonio Palopó	9	San Antonio Palopo	6	Junio	2023-07-06T00:00:00	2024-11-08T19:00:00	8	Radiación solar	0
175701	7	Sololá	712	San Antonio Palopó	9	San Antonio Palopo	6	Junio	2023-07-06T00:00:00	2024-11-08T20:00:00	2	Temperatura media	20.5
175702	7	Sololá	712	San Antonio Palopó	9	San Antonio Palopo	6	Junio	2023-07-06T00:00:00	2024-11-08T20:00:00	4	Temperatura máxima	20.9
175703	7	Sololá	712	San Antonio Palopó	9	San Antonio Palopo	6	Junio	2023-07-06T00:00:00	2024-11-08T20:00:00	3	Temperatura mínima	20.4
175704	7	Sololá	712	San Antonio Palopó	9	San Antonio Palopo	6	Junio	2023-07-06T00:00:00	2024-11-08T20:00:00	5	Humedad	84
175705	7	Sololá	712	San Antonio Palopó	9	San Antonio Palopo	6	Junio	2023-07-06T00:00:00	2024-11-08T20:00:00	6	Velocidad del viento	3.2
175706	7	Sololá	712	San Antonio Palopó	9	San Antonio Palopo	6	Junio	2023-07-06T00:00:00	2024-11-08T20:00:00	7	Dirección del viento	3.22
175707	7	Sololá	712	San Antonio Palopó	9	San Antonio Palopo	6	Junio	2023-07-06T00:00:00	2024-11-08T20:00:00	1	Precipitación	0
175708	7	Sololá	712	San Antonio Palopó	9	San Antonio Palopo	6	Junio	2023-07-06T00:00:00	2024-11-08T20:00:00	8	Radiación solar	0
175709	7	Sololá	712	San Antonio Palopó	9	San Antonio Palopo	6	Junio	2023-07-06T00:00:00	2024-11-08T21:00:00	2	Temperatura media	20.3
175710	7	Sololá	712	San Antonio Palopó	9	San Antonio Palopo	6	Junio	2023-07-06T00:00:00	2024-11-08T21:00:00	4	Temperatura máxima	20.6
175711	7	Sololá	712	San Antonio Palopó	9	San Antonio Palopo	6	Junio	2023-07-06T00:00:00	2024-11-08T21:00:00	3	Temperatura mínima	20.3
175712	7	Sololá	712	San Antonio Palopó	9	San Antonio Palopo	6	Junio	2023-07-06T00:00:00	2024-11-08T21:00:00	5	Humedad	86
175713	7	Sololá	712	San Antonio Palopó	9	San Antonio Palopo	6	Junio	2023-07-06T00:00:00	2024-11-08T21:00:00	6	Velocidad del viento	4.8
175714	7	Sololá	712	San Antonio Palopó	9	San Antonio Palopo	6	Junio	2023-07-06T00:00:00	2024-11-08T21:00:00	7	Dirección del viento	4.83
175715	7	Sololá	712	San Antonio Palopó	9	San Antonio Palopo	6	Junio	2023-07-06T00:00:00	2024-11-08T21:00:00	1	Precipitación	0
175716	7	Sololá	712	San Antonio Palopó	9	San Antonio Palopo	6	Junio	2023-07-06T00:00:00	2024-11-08T21:00:00	8	Radiación solar	0
175717	7	Sololá	712	San Antonio Palopó	9	San Antonio Palopo	6	Junio	2023-07-06T00:00:00	2024-11-08T22:00:00	2	Temperatura media	19.5
175718	7	Sololá	712	San Antonio Palopó	9	San Antonio Palopo	6	Junio	2023-07-06T00:00:00	2024-11-08T22:00:00	4	Temperatura máxima	20.3
175719	7	Sololá	712	San Antonio Palopó	9	San Antonio Palopo	6	Junio	2023-07-06T00:00:00	2024-11-08T22:00:00	3	Temperatura mínima	19.5
175720	7	Sololá	712	San Antonio Palopó	9	San Antonio Palopo	6	Junio	2023-07-06T00:00:00	2024-11-08T22:00:00	5	Humedad	89
175721	7	Sololá	712	San Antonio Palopó	9	San Antonio Palopo	6	Junio	2023-07-06T00:00:00	2024-11-08T22:00:00	6	Velocidad del viento	3.2
175722	7	Sololá	712	San Antonio Palopó	9	San Antonio Palopo	6	Junio	2023-07-06T00:00:00	2024-11-08T22:00:00	7	Dirección del viento	3.22
175723	7	Sololá	712	San Antonio Palopó	9	San Antonio Palopo	6	Junio	2023-07-06T00:00:00	2024-11-08T22:00:00	1	Precipitación	0.6
175724	7	Sololá	712	San Antonio Palopó	9	San Antonio Palopo	6	Junio	2023-07-06T00:00:00	2024-11-08T22:00:00	8	Radiación solar	0
175725	7	Sololá	712	San Antonio Palopó	9	San Antonio Palopo	6	Junio	2023-07-06T00:00:00	2024-11-08T23:00:00	2	Temperatura media	19.2
175726	7	Sololá	712	San Antonio Palopó	9	San Antonio Palopo	6	Junio	2023-07-06T00:00:00	2024-11-08T23:00:00	4	Temperatura máxima	19.8
175727	7	Sololá	712	San Antonio Palopó	9	San Antonio Palopo	6	Junio	2023-07-06T00:00:00	2024-11-08T23:00:00	3	Temperatura mínima	19.2
175728	7	Sololá	712	San Antonio Palopó	9	San Antonio Palopo	6	Junio	2023-07-06T00:00:00	2024-11-08T23:00:00	5	Humedad	90
175729	7	Sololá	712	San Antonio Palopó	9	San Antonio Palopo	6	Junio	2023-07-06T00:00:00	2024-11-08T23:00:00	6	Velocidad del viento	4.8
175730	7	Sololá	712	San Antonio Palopó	9	San Antonio Palopo	6	Junio	2023-07-06T00:00:00	2024-11-08T23:00:00	7	Dirección del viento	4.83
175731	7	Sololá	712	San Antonio Palopó	9	San Antonio Palopo	6	Junio	2023-07-06T00:00:00	2024-11-08T23:00:00	1	Precipitación	0
175732	7	Sololá	712	San Antonio Palopó	9	San Antonio Palopo	6	Junio	2023-07-06T00:00:00	2024-11-08T23:00:00	8	Radiación solar	0
175733	7	Sololá	712	San Antonio Palopó	9	San Antonio Palopo	6	Junio	2023-08-06T00:00:00	2024-11-08T00:00:00	2	Temperatura media	18.6
175734	7	Sololá	712	San Antonio Palopó	9	San Antonio Palopo	6	Junio	2023-08-06T00:00:00	2024-11-08T00:00:00	4	Temperatura máxima	19.2
175735	7	Sololá	712	San Antonio Palopó	9	San Antonio Palopo	6	Junio	2023-08-06T00:00:00	2024-11-08T00:00:00	3	Temperatura mínima	18.3
175736	7	Sololá	712	San Antonio Palopó	9	San Antonio Palopo	6	Junio	2023-08-06T00:00:00	2024-11-08T00:00:00	5	Humedad	91
175737	7	Sololá	712	San Antonio Palopó	9	San Antonio Palopo	6	Junio	2023-08-06T00:00:00	2024-11-08T00:00:00	6	Velocidad del viento	6.4
175738	7	Sololá	712	San Antonio Palopó	9	San Antonio Palopo	6	Junio	2023-08-06T00:00:00	2024-11-08T00:00:00	7	Dirección del viento	6.44
175739	7	Sololá	712	San Antonio Palopó	9	San Antonio Palopo	6	Junio	2023-08-06T00:00:00	2024-11-08T00:00:00	1	Precipitación	4
175740	7	Sololá	712	San Antonio Palopó	9	San Antonio Palopo	6	Junio	2023-08-06T00:00:00	2024-11-08T00:00:00	8	Radiación solar	0
175741	7	Sololá	712	San Antonio Palopó	9	San Antonio Palopo	6	Junio	2023-08-06T00:00:00	2024-11-08T01:00:00	2	Temperatura media	18.6
175742	7	Sololá	712	San Antonio Palopó	9	San Antonio Palopo	6	Junio	2023-08-06T00:00:00	2024-11-08T01:00:00	4	Temperatura máxima	18.6
175743	7	Sololá	712	San Antonio Palopó	9	San Antonio Palopo	6	Junio	2023-08-06T00:00:00	2024-11-08T01:00:00	3	Temperatura mínima	18.4
175744	7	Sololá	712	San Antonio Palopó	9	San Antonio Palopo	6	Junio	2023-08-06T00:00:00	2024-11-08T01:00:00	5	Humedad	92
175745	7	Sololá	712	San Antonio Palopó	9	San Antonio Palopo	6	Junio	2023-08-06T00:00:00	2024-11-08T01:00:00	6	Velocidad del viento	1.6
175746	7	Sololá	712	San Antonio Palopó	9	San Antonio Palopo	6	Junio	2023-08-06T00:00:00	2024-11-08T01:00:00	7	Dirección del viento	1.61
175747	7	Sololá	712	San Antonio Palopó	9	San Antonio Palopo	6	Junio	2023-08-06T00:00:00	2024-11-08T01:00:00	1	Precipitación	2.4
175748	7	Sololá	712	San Antonio Palopó	9	San Antonio Palopo	6	Junio	2023-08-06T00:00:00	2024-11-08T01:00:00	8	Radiación solar	0
175749	7	Sololá	712	San Antonio Palopó	9	San Antonio Palopo	6	Junio	2023-08-06T00:00:00	2024-11-08T02:00:00	2	Temperatura media	18.4
175750	7	Sololá	712	San Antonio Palopó	9	San Antonio Palopo	6	Junio	2023-08-06T00:00:00	2024-11-08T02:00:00	4	Temperatura máxima	18.6
175751	7	Sololá	712	San Antonio Palopó	9	San Antonio Palopo	6	Junio	2023-08-06T00:00:00	2024-11-08T02:00:00	3	Temperatura mínima	18.4
175752	7	Sololá	712	San Antonio Palopó	9	San Antonio Palopo	6	Junio	2023-08-06T00:00:00	2024-11-08T02:00:00	5	Humedad	92
175753	7	Sololá	712	San Antonio Palopó	9	San Antonio Palopo	6	Junio	2023-08-06T00:00:00	2024-11-08T02:00:00	6	Velocidad del viento	1.6
175754	7	Sololá	712	San Antonio Palopó	9	San Antonio Palopo	6	Junio	2023-08-06T00:00:00	2024-11-08T02:00:00	7	Dirección del viento	1.61
175755	7	Sololá	712	San Antonio Palopó	9	San Antonio Palopo	6	Junio	2023-08-06T00:00:00	2024-11-08T02:00:00	1	Precipitación	0
175756	7	Sololá	712	San Antonio Palopó	9	San Antonio Palopo	6	Junio	2023-08-06T00:00:00	2024-11-08T02:00:00	8	Radiación solar	0
175757	7	Sololá	712	San Antonio Palopó	9	San Antonio Palopo	6	Junio	2023-08-06T00:00:00	2024-11-08T03:00:00	2	Temperatura media	18.6
175758	7	Sololá	712	San Antonio Palopó	9	San Antonio Palopo	6	Junio	2023-08-06T00:00:00	2024-11-08T03:00:00	4	Temperatura máxima	18.7
175759	7	Sololá	712	San Antonio Palopó	9	San Antonio Palopo	6	Junio	2023-08-06T00:00:00	2024-11-08T03:00:00	3	Temperatura mínima	18.3
175760	7	Sololá	712	San Antonio Palopó	9	San Antonio Palopo	6	Junio	2023-08-06T00:00:00	2024-11-08T03:00:00	5	Humedad	92
175761	7	Sololá	712	San Antonio Palopó	9	San Antonio Palopo	6	Junio	2023-08-06T00:00:00	2024-11-08T03:00:00	6	Velocidad del viento	1.6
175762	7	Sololá	712	San Antonio Palopó	9	San Antonio Palopo	6	Junio	2023-08-06T00:00:00	2024-11-08T03:00:00	7	Dirección del viento	1.61
175763	7	Sololá	712	San Antonio Palopó	9	San Antonio Palopo	6	Junio	2023-08-06T00:00:00	2024-11-08T03:00:00	1	Precipitación	0
175764	7	Sololá	712	San Antonio Palopó	9	San Antonio Palopo	6	Junio	2023-08-06T00:00:00	2024-11-08T03:00:00	8	Radiación solar	0
175765	7	Sololá	712	San Antonio Palopó	9	San Antonio Palopo	6	Junio	2023-08-06T00:00:00	2024-11-08T04:00:00	2	Temperatura media	18
175766	7	Sololá	712	San Antonio Palopó	9	San Antonio Palopo	6	Junio	2023-08-06T00:00:00	2024-11-08T04:00:00	4	Temperatura máxima	18.7
175767	7	Sololá	712	San Antonio Palopó	9	San Antonio Palopo	6	Junio	2023-08-06T00:00:00	2024-11-08T04:00:00	3	Temperatura mínima	18
175768	7	Sololá	712	San Antonio Palopó	9	San Antonio Palopo	6	Junio	2023-08-06T00:00:00	2024-11-08T04:00:00	5	Humedad	89
175769	7	Sololá	712	San Antonio Palopó	9	San Antonio Palopo	6	Junio	2023-08-06T00:00:00	2024-11-08T04:00:00	6	Velocidad del viento	1.6
175770	7	Sololá	712	San Antonio Palopó	9	San Antonio Palopo	6	Junio	2023-08-06T00:00:00	2024-11-08T04:00:00	7	Dirección del viento	1.61
175771	7	Sololá	712	San Antonio Palopó	9	San Antonio Palopo	6	Junio	2023-08-06T00:00:00	2024-11-08T04:00:00	1	Precipitación	0
175772	7	Sololá	712	San Antonio Palopó	9	San Antonio Palopo	6	Junio	2023-08-06T00:00:00	2024-11-08T04:00:00	8	Radiación solar	0
175773	7	Sololá	712	San Antonio Palopó	9	San Antonio Palopo	6	Junio	2023-08-06T00:00:00	2024-11-08T05:00:00	2	Temperatura media	18.3
175774	7	Sololá	712	San Antonio Palopó	9	San Antonio Palopo	6	Junio	2023-08-06T00:00:00	2024-11-08T05:00:00	4	Temperatura máxima	18.6
175775	7	Sololá	712	San Antonio Palopó	9	San Antonio Palopo	6	Junio	2023-08-06T00:00:00	2024-11-08T05:00:00	3	Temperatura mínima	17.9
175776	7	Sololá	712	San Antonio Palopó	9	San Antonio Palopo	6	Junio	2023-08-06T00:00:00	2024-11-08T05:00:00	5	Humedad	84
175777	7	Sololá	712	San Antonio Palopó	9	San Antonio Palopo	6	Junio	2023-08-06T00:00:00	2024-11-08T05:00:00	6	Velocidad del viento	4.8
175778	7	Sololá	712	San Antonio Palopó	9	San Antonio Palopo	6	Junio	2023-08-06T00:00:00	2024-11-08T05:00:00	7	Dirección del viento	4.83
175779	7	Sololá	712	San Antonio Palopó	9	San Antonio Palopo	6	Junio	2023-08-06T00:00:00	2024-11-08T05:00:00	1	Precipitación	0
175780	7	Sololá	712	San Antonio Palopó	9	San Antonio Palopo	6	Junio	2023-08-06T00:00:00	2024-11-08T05:00:00	8	Radiación solar	0
175781	7	Sololá	712	San Antonio Palopó	9	San Antonio Palopo	6	Junio	2023-08-06T00:00:00	2024-11-08T06:00:00	2	Temperatura media	18.2
175782	7	Sololá	712	San Antonio Palopó	9	San Antonio Palopo	6	Junio	2023-08-06T00:00:00	2024-11-08T06:00:00	4	Temperatura máxima	18.3
175783	7	Sololá	712	San Antonio Palopó	9	San Antonio Palopo	6	Junio	2023-08-06T00:00:00	2024-11-08T06:00:00	3	Temperatura mínima	17.8
175784	7	Sololá	712	San Antonio Palopó	9	San Antonio Palopo	6	Junio	2023-08-06T00:00:00	2024-11-08T06:00:00	5	Humedad	82
175785	7	Sololá	712	San Antonio Palopó	9	San Antonio Palopo	6	Junio	2023-08-06T00:00:00	2024-11-08T06:00:00	6	Velocidad del viento	4.8
175786	7	Sololá	712	San Antonio Palopó	9	San Antonio Palopo	6	Junio	2023-08-06T00:00:00	2024-11-08T06:00:00	7	Dirección del viento	4.83
175787	7	Sololá	712	San Antonio Palopó	9	San Antonio Palopo	6	Junio	2023-08-06T00:00:00	2024-11-08T06:00:00	1	Precipitación	0
175788	7	Sololá	712	San Antonio Palopó	9	San Antonio Palopo	6	Junio	2023-08-06T00:00:00	2024-11-08T06:00:00	8	Radiación solar	3
175789	7	Sololá	712	San Antonio Palopó	9	San Antonio Palopo	6	Junio	2023-08-06T00:00:00	2024-11-08T07:00:00	2	Temperatura media	19.1
175790	7	Sololá	712	San Antonio Palopó	9	San Antonio Palopo	6	Junio	2023-08-06T00:00:00	2024-11-08T07:00:00	4	Temperatura máxima	19.1
175791	7	Sololá	712	San Antonio Palopó	9	San Antonio Palopo	6	Junio	2023-08-06T00:00:00	2024-11-08T07:00:00	3	Temperatura mínima	18.2
175792	7	Sololá	712	San Antonio Palopó	9	San Antonio Palopo	6	Junio	2023-08-06T00:00:00	2024-11-08T07:00:00	5	Humedad	84
175793	7	Sololá	712	San Antonio Palopó	9	San Antonio Palopo	6	Junio	2023-08-06T00:00:00	2024-11-08T07:00:00	6	Velocidad del viento	3.2
175794	7	Sololá	712	San Antonio Palopó	9	San Antonio Palopo	6	Junio	2023-08-06T00:00:00	2024-11-08T07:00:00	7	Dirección del viento	3.22
175795	7	Sololá	712	San Antonio Palopó	9	San Antonio Palopo	6	Junio	2023-08-06T00:00:00	2024-11-08T07:00:00	1	Precipitación	0
175796	7	Sololá	712	San Antonio Palopó	9	San Antonio Palopo	6	Junio	2023-08-06T00:00:00	2024-11-08T07:00:00	8	Radiación solar	61
175797	7	Sololá	712	San Antonio Palopó	9	San Antonio Palopo	6	Junio	2023-08-06T00:00:00	2024-11-08T08:00:00	2	Temperatura media	20.2
175798	7	Sololá	712	San Antonio Palopó	9	San Antonio Palopo	6	Junio	2023-08-06T00:00:00	2024-11-08T08:00:00	4	Temperatura máxima	20.2
175799	7	Sololá	712	San Antonio Palopó	9	San Antonio Palopo	6	Junio	2023-08-06T00:00:00	2024-11-08T08:00:00	3	Temperatura mínima	19.1
175800	7	Sololá	712	San Antonio Palopó	9	San Antonio Palopo	6	Junio	2023-08-06T00:00:00	2024-11-08T08:00:00	5	Humedad	82
175801	7	Sololá	712	San Antonio Palopó	9	San Antonio Palopo	6	Junio	2023-08-06T00:00:00	2024-11-08T08:00:00	6	Velocidad del viento	1.6
175802	7	Sololá	712	San Antonio Palopó	9	San Antonio Palopo	6	Junio	2023-08-06T00:00:00	2024-11-08T08:00:00	7	Dirección del viento	1.61
175803	7	Sololá	712	San Antonio Palopó	9	San Antonio Palopo	6	Junio	2023-08-06T00:00:00	2024-11-08T08:00:00	1	Precipitación	0
175804	7	Sololá	712	San Antonio Palopó	9	San Antonio Palopo	6	Junio	2023-08-06T00:00:00	2024-11-08T08:00:00	8	Radiación solar	216
175805	7	Sololá	712	San Antonio Palopó	9	San Antonio Palopo	6	Junio	2023-08-06T00:00:00	2024-11-08T09:00:00	2	Temperatura media	20.8
175806	7	Sololá	712	San Antonio Palopó	9	San Antonio Palopo	6	Junio	2023-08-06T00:00:00	2024-11-08T09:00:00	4	Temperatura máxima	21.1
175807	7	Sololá	712	San Antonio Palopó	9	San Antonio Palopo	6	Junio	2023-08-06T00:00:00	2024-11-08T09:00:00	3	Temperatura mínima	20.2
175808	7	Sololá	712	San Antonio Palopó	9	San Antonio Palopo	6	Junio	2023-08-06T00:00:00	2024-11-08T09:00:00	5	Humedad	78
175809	7	Sololá	712	San Antonio Palopó	9	San Antonio Palopo	6	Junio	2023-08-06T00:00:00	2024-11-08T09:00:00	6	Velocidad del viento	1.6
175810	7	Sololá	712	San Antonio Palopó	9	San Antonio Palopo	6	Junio	2023-08-06T00:00:00	2024-11-08T09:00:00	7	Dirección del viento	1.61
175811	7	Sololá	712	San Antonio Palopó	9	San Antonio Palopo	6	Junio	2023-08-06T00:00:00	2024-11-08T09:00:00	1	Precipitación	0
175812	7	Sololá	712	San Antonio Palopó	9	San Antonio Palopo	6	Junio	2023-08-06T00:00:00	2024-11-08T09:00:00	8	Radiación solar	500
175813	7	Sololá	712	San Antonio Palopó	9	San Antonio Palopo	6	Junio	2023-08-06T00:00:00	2024-11-08T10:00:00	2	Temperatura media	21.7
175814	7	Sololá	712	San Antonio Palopó	9	San Antonio Palopo	6	Junio	2023-08-06T00:00:00	2024-11-08T10:00:00	4	Temperatura máxima	21.7
175815	7	Sololá	712	San Antonio Palopó	9	San Antonio Palopo	6	Junio	2023-08-06T00:00:00	2024-11-08T10:00:00	3	Temperatura mínima	20.8
175816	7	Sololá	712	San Antonio Palopó	9	San Antonio Palopo	6	Junio	2023-08-06T00:00:00	2024-11-08T10:00:00	5	Humedad	77
175817	7	Sololá	712	San Antonio Palopó	9	San Antonio Palopo	6	Junio	2023-08-06T00:00:00	2024-11-08T10:00:00	6	Velocidad del viento	3.2
175818	7	Sololá	712	San Antonio Palopó	9	San Antonio Palopo	6	Junio	2023-08-06T00:00:00	2024-11-08T10:00:00	7	Dirección del viento	3.22
175819	7	Sololá	712	San Antonio Palopó	9	San Antonio Palopo	6	Junio	2023-08-06T00:00:00	2024-11-08T10:00:00	1	Precipitación	0
175820	7	Sololá	712	San Antonio Palopó	9	San Antonio Palopo	6	Junio	2023-08-06T00:00:00	2024-11-08T10:00:00	8	Radiación solar	697
175821	7	Sololá	712	San Antonio Palopó	9	San Antonio Palopo	6	Junio	2023-08-06T00:00:00	2024-11-08T11:00:00	2	Temperatura media	23
175822	7	Sololá	712	San Antonio Palopó	9	San Antonio Palopo	6	Junio	2023-08-06T00:00:00	2024-11-08T11:00:00	4	Temperatura máxima	23
175823	7	Sololá	712	San Antonio Palopó	9	San Antonio Palopo	6	Junio	2023-08-06T00:00:00	2024-11-08T11:00:00	3	Temperatura mínima	21.7
175824	7	Sololá	712	San Antonio Palopó	9	San Antonio Palopo	6	Junio	2023-08-06T00:00:00	2024-11-08T11:00:00	5	Humedad	72
175825	7	Sololá	712	San Antonio Palopó	9	San Antonio Palopo	6	Junio	2023-08-06T00:00:00	2024-11-08T11:00:00	6	Velocidad del viento	3.2
175826	7	Sololá	712	San Antonio Palopó	9	San Antonio Palopo	6	Junio	2023-08-06T00:00:00	2024-11-08T11:00:00	7	Dirección del viento	3.22
175827	7	Sololá	712	San Antonio Palopó	9	San Antonio Palopo	6	Junio	2023-08-06T00:00:00	2024-11-08T11:00:00	1	Precipitación	0
175828	7	Sololá	712	San Antonio Palopó	9	San Antonio Palopo	6	Junio	2023-08-06T00:00:00	2024-11-08T11:00:00	8	Radiación solar	878
175829	7	Sololá	712	San Antonio Palopó	9	San Antonio Palopo	6	Junio	2023-08-06T00:00:00	2024-11-08T12:00:00	2	Temperatura media	24.4
175830	7	Sololá	712	San Antonio Palopó	9	San Antonio Palopo	6	Junio	2023-08-06T00:00:00	2024-11-08T12:00:00	4	Temperatura máxima	24.4
175831	7	Sololá	712	San Antonio Palopó	9	San Antonio Palopo	6	Junio	2023-08-06T00:00:00	2024-11-08T12:00:00	3	Temperatura mínima	23
175832	7	Sololá	712	San Antonio Palopó	9	San Antonio Palopo	6	Junio	2023-08-06T00:00:00	2024-11-08T12:00:00	5	Humedad	73
175833	7	Sololá	712	San Antonio Palopó	9	San Antonio Palopo	6	Junio	2023-08-06T00:00:00	2024-11-08T12:00:00	6	Velocidad del viento	4.8
175834	7	Sololá	712	San Antonio Palopó	9	San Antonio Palopo	6	Junio	2023-08-06T00:00:00	2024-11-08T12:00:00	7	Dirección del viento	4.83
175835	7	Sololá	712	San Antonio Palopó	9	San Antonio Palopo	6	Junio	2023-08-06T00:00:00	2024-11-08T12:00:00	1	Precipitación	0
175836	7	Sololá	712	San Antonio Palopó	9	San Antonio Palopo	6	Junio	2023-08-06T00:00:00	2024-11-08T12:00:00	8	Radiación solar	845
175837	7	Sololá	712	San Antonio Palopó	9	San Antonio Palopo	6	Junio	2023-08-06T00:00:00	2024-11-08T13:00:00	2	Temperatura media	24.3
175838	7	Sololá	712	San Antonio Palopó	9	San Antonio Palopo	6	Junio	2023-08-06T00:00:00	2024-11-08T13:00:00	4	Temperatura máxima	25.1
175839	7	Sololá	712	San Antonio Palopó	9	San Antonio Palopo	6	Junio	2023-08-06T00:00:00	2024-11-08T13:00:00	3	Temperatura mínima	24.2
175840	7	Sololá	712	San Antonio Palopó	9	San Antonio Palopo	6	Junio	2023-08-06T00:00:00	2024-11-08T13:00:00	5	Humedad	71
175841	7	Sololá	712	San Antonio Palopó	9	San Antonio Palopo	6	Junio	2023-08-06T00:00:00	2024-11-08T13:00:00	6	Velocidad del viento	8
175842	7	Sololá	712	San Antonio Palopó	9	San Antonio Palopo	6	Junio	2023-08-06T00:00:00	2024-11-08T13:00:00	7	Dirección del viento	8.05
175843	7	Sololá	712	San Antonio Palopó	9	San Antonio Palopo	6	Junio	2023-08-06T00:00:00	2024-11-08T13:00:00	1	Precipitación	0
175844	7	Sololá	712	San Antonio Palopó	9	San Antonio Palopo	6	Junio	2023-08-06T00:00:00	2024-11-08T13:00:00	8	Radiación solar	961
175845	7	Sololá	712	San Antonio Palopó	9	San Antonio Palopo	6	Junio	2023-08-06T00:00:00	2024-11-08T14:00:00	2	Temperatura media	24.3
175846	7	Sololá	712	San Antonio Palopó	9	San Antonio Palopo	6	Junio	2023-08-06T00:00:00	2024-11-08T14:00:00	4	Temperatura máxima	24.7
175847	7	Sololá	712	San Antonio Palopó	9	San Antonio Palopo	6	Junio	2023-08-06T00:00:00	2024-11-08T14:00:00	3	Temperatura mínima	23.7
175848	7	Sololá	712	San Antonio Palopó	9	San Antonio Palopo	6	Junio	2023-08-06T00:00:00	2024-11-08T14:00:00	5	Humedad	75
175849	7	Sololá	712	San Antonio Palopó	9	San Antonio Palopo	6	Junio	2023-08-06T00:00:00	2024-11-08T14:00:00	6	Velocidad del viento	8
175850	7	Sololá	712	San Antonio Palopó	9	San Antonio Palopo	6	Junio	2023-08-06T00:00:00	2024-11-08T14:00:00	7	Dirección del viento	8.05
175851	7	Sololá	712	San Antonio Palopó	9	San Antonio Palopo	6	Junio	2023-08-06T00:00:00	2024-11-08T14:00:00	1	Precipitación	0
175852	7	Sololá	712	San Antonio Palopó	9	San Antonio Palopo	6	Junio	2023-08-06T00:00:00	2024-11-08T14:00:00	8	Radiación solar	884
175853	7	Sololá	712	San Antonio Palopó	9	San Antonio Palopo	6	Junio	2023-08-06T00:00:00	2024-11-08T15:00:00	2	Temperatura media	23.2
175854	7	Sololá	712	San Antonio Palopó	9	San Antonio Palopo	6	Junio	2023-08-06T00:00:00	2024-11-08T15:00:00	4	Temperatura máxima	24.3
175855	7	Sololá	712	San Antonio Palopó	9	San Antonio Palopo	6	Junio	2023-08-06T00:00:00	2024-11-08T15:00:00	3	Temperatura mínima	23.2
175856	7	Sololá	712	San Antonio Palopó	9	San Antonio Palopo	6	Junio	2023-08-06T00:00:00	2024-11-08T15:00:00	5	Humedad	78
175857	7	Sololá	712	San Antonio Palopó	9	San Antonio Palopo	6	Junio	2023-08-06T00:00:00	2024-11-08T15:00:00	6	Velocidad del viento	6.4
175858	7	Sololá	712	San Antonio Palopó	9	San Antonio Palopo	6	Junio	2023-08-06T00:00:00	2024-11-08T15:00:00	7	Dirección del viento	6.44
175859	7	Sololá	712	San Antonio Palopó	9	San Antonio Palopo	6	Junio	2023-08-06T00:00:00	2024-11-08T15:00:00	1	Precipitación	0
175860	7	Sololá	712	San Antonio Palopó	9	San Antonio Palopo	6	Junio	2023-08-06T00:00:00	2024-11-08T15:00:00	8	Radiación solar	447
175861	7	Sololá	712	San Antonio Palopó	9	San Antonio Palopo	6	Junio	2023-08-06T00:00:00	2024-11-08T16:00:00	2	Temperatura media	22.1
175862	7	Sololá	712	San Antonio Palopó	9	San Antonio Palopo	6	Junio	2023-08-06T00:00:00	2024-11-08T16:00:00	4	Temperatura máxima	23.2
175863	7	Sololá	712	San Antonio Palopó	9	San Antonio Palopo	6	Junio	2023-08-06T00:00:00	2024-11-08T16:00:00	3	Temperatura mínima	21.8
175864	7	Sololá	712	San Antonio Palopó	9	San Antonio Palopo	6	Junio	2023-08-06T00:00:00	2024-11-08T16:00:00	5	Humedad	82
175865	7	Sololá	712	San Antonio Palopó	9	San Antonio Palopo	6	Junio	2023-08-06T00:00:00	2024-11-08T16:00:00	6	Velocidad del viento	9.7
175866	7	Sololá	712	San Antonio Palopó	9	San Antonio Palopo	6	Junio	2023-08-06T00:00:00	2024-11-08T16:00:00	7	Dirección del viento	9.66
175867	7	Sololá	712	San Antonio Palopó	9	San Antonio Palopo	6	Junio	2023-08-06T00:00:00	2024-11-08T16:00:00	1	Precipitación	0
175868	7	Sololá	712	San Antonio Palopó	9	San Antonio Palopo	6	Junio	2023-08-06T00:00:00	2024-11-08T16:00:00	8	Radiación solar	342
175869	7	Sololá	712	San Antonio Palopó	9	San Antonio Palopo	6	Junio	2023-08-06T00:00:00	2024-11-08T17:00:00	2	Temperatura media	22
175870	7	Sololá	712	San Antonio Palopó	9	San Antonio Palopo	6	Junio	2023-08-06T00:00:00	2024-11-08T17:00:00	4	Temperatura máxima	23.2
175871	7	Sololá	712	San Antonio Palopó	9	San Antonio Palopo	6	Junio	2023-08-06T00:00:00	2024-11-08T17:00:00	3	Temperatura mínima	21.4
175872	7	Sololá	712	San Antonio Palopó	9	San Antonio Palopo	6	Junio	2023-08-06T00:00:00	2024-11-08T17:00:00	5	Humedad	82
175873	7	Sololá	712	San Antonio Palopó	9	San Antonio Palopo	6	Junio	2023-08-06T00:00:00	2024-11-08T17:00:00	6	Velocidad del viento	8
175874	7	Sololá	712	San Antonio Palopó	9	San Antonio Palopo	6	Junio	2023-08-06T00:00:00	2024-11-08T17:00:00	7	Dirección del viento	8.05
175875	7	Sololá	712	San Antonio Palopó	9	San Antonio Palopo	6	Junio	2023-08-06T00:00:00	2024-11-08T17:00:00	1	Precipitación	0
175876	7	Sololá	712	San Antonio Palopó	9	San Antonio Palopo	6	Junio	2023-08-06T00:00:00	2024-11-08T17:00:00	8	Radiación solar	310
175877	7	Sololá	712	San Antonio Palopó	9	San Antonio Palopo	6	Junio	2023-08-06T00:00:00	2024-11-08T18:00:00	2	Temperatura media	21.1
175878	7	Sololá	712	San Antonio Palopó	9	San Antonio Palopo	6	Junio	2023-08-06T00:00:00	2024-11-08T18:00:00	4	Temperatura máxima	22.4
175879	7	Sololá	712	San Antonio Palopó	9	San Antonio Palopo	6	Junio	2023-08-06T00:00:00	2024-11-08T18:00:00	3	Temperatura mínima	21.1
175880	7	Sololá	712	San Antonio Palopó	9	San Antonio Palopo	6	Junio	2023-08-06T00:00:00	2024-11-08T18:00:00	5	Humedad	83
175881	7	Sololá	712	San Antonio Palopó	9	San Antonio Palopo	6	Junio	2023-08-06T00:00:00	2024-11-08T18:00:00	6	Velocidad del viento	9.7
175882	7	Sololá	712	San Antonio Palopó	9	San Antonio Palopo	6	Junio	2023-08-06T00:00:00	2024-11-08T18:00:00	7	Dirección del viento	9.66
175883	7	Sololá	712	San Antonio Palopó	9	San Antonio Palopo	6	Junio	2023-08-06T00:00:00	2024-11-08T18:00:00	1	Precipitación	0
175884	7	Sololá	712	San Antonio Palopó	9	San Antonio Palopo	6	Junio	2023-08-06T00:00:00	2024-11-08T18:00:00	8	Radiación solar	95
175885	7	Sololá	712	San Antonio Palopó	9	San Antonio Palopo	6	Junio	2023-08-06T00:00:00	2024-11-08T19:00:00	2	Temperatura media	20.9
175886	7	Sololá	712	San Antonio Palopó	9	San Antonio Palopo	6	Junio	2023-08-06T00:00:00	2024-11-08T19:00:00	4	Temperatura máxima	21.1
175887	7	Sololá	712	San Antonio Palopó	9	San Antonio Palopo	6	Junio	2023-08-06T00:00:00	2024-11-08T19:00:00	3	Temperatura mínima	20.8
175888	7	Sololá	712	San Antonio Palopó	9	San Antonio Palopo	6	Junio	2023-08-06T00:00:00	2024-11-08T19:00:00	5	Humedad	85
175889	7	Sololá	712	San Antonio Palopó	9	San Antonio Palopo	6	Junio	2023-08-06T00:00:00	2024-11-08T19:00:00	6	Velocidad del viento	8
175890	7	Sololá	712	San Antonio Palopó	9	San Antonio Palopo	6	Junio	2023-08-06T00:00:00	2024-11-08T19:00:00	7	Dirección del viento	8.05
175891	7	Sololá	712	San Antonio Palopó	9	San Antonio Palopo	6	Junio	2023-08-06T00:00:00	2024-11-08T19:00:00	1	Precipitación	0
175892	7	Sololá	712	San Antonio Palopó	9	San Antonio Palopo	6	Junio	2023-08-06T00:00:00	2024-11-08T19:00:00	8	Radiación solar	0
175893	7	Sololá	712	San Antonio Palopó	9	San Antonio Palopo	6	Junio	2023-08-06T00:00:00	2024-11-08T20:00:00	2	Temperatura media	20.8
175894	7	Sololá	712	San Antonio Palopó	9	San Antonio Palopo	6	Junio	2023-08-06T00:00:00	2024-11-08T20:00:00	4	Temperatura máxima	20.9
175895	7	Sololá	712	San Antonio Palopó	9	San Antonio Palopo	6	Junio	2023-08-06T00:00:00	2024-11-08T20:00:00	3	Temperatura mínima	20.7
175896	7	Sololá	712	San Antonio Palopó	9	San Antonio Palopo	6	Junio	2023-08-06T00:00:00	2024-11-08T20:00:00	5	Humedad	86
175897	7	Sololá	712	San Antonio Palopó	9	San Antonio Palopo	6	Junio	2023-08-06T00:00:00	2024-11-08T20:00:00	6	Velocidad del viento	4.8
175898	7	Sololá	712	San Antonio Palopó	9	San Antonio Palopo	6	Junio	2023-08-06T00:00:00	2024-11-08T20:00:00	7	Dirección del viento	4.83
175899	7	Sololá	712	San Antonio Palopó	9	San Antonio Palopo	6	Junio	2023-08-06T00:00:00	2024-11-08T20:00:00	1	Precipitación	0.2
175900	7	Sololá	712	San Antonio Palopó	9	San Antonio Palopo	6	Junio	2023-08-06T00:00:00	2024-11-08T20:00:00	8	Radiación solar	0
175901	7	Sololá	712	San Antonio Palopó	9	San Antonio Palopo	6	Junio	2023-08-06T00:00:00	2024-11-08T21:00:00	2	Temperatura media	20.3
175902	7	Sololá	712	San Antonio Palopó	9	San Antonio Palopo	6	Junio	2023-08-06T00:00:00	2024-11-08T21:00:00	4	Temperatura máxima	20.8
175903	7	Sololá	712	San Antonio Palopó	9	San Antonio Palopo	6	Junio	2023-08-06T00:00:00	2024-11-08T21:00:00	3	Temperatura mínima	20.3
175904	7	Sololá	712	San Antonio Palopó	9	San Antonio Palopo	6	Junio	2023-08-06T00:00:00	2024-11-08T21:00:00	5	Humedad	86
175905	7	Sololá	712	San Antonio Palopó	9	San Antonio Palopo	6	Junio	2023-08-06T00:00:00	2024-11-08T21:00:00	6	Velocidad del viento	3.2
175906	7	Sololá	712	San Antonio Palopó	9	San Antonio Palopo	6	Junio	2023-08-06T00:00:00	2024-11-08T21:00:00	7	Dirección del viento	3.22
175907	7	Sololá	712	San Antonio Palopó	9	San Antonio Palopo	6	Junio	2023-08-06T00:00:00	2024-11-08T21:00:00	1	Precipitación	0
175908	7	Sololá	712	San Antonio Palopó	9	San Antonio Palopo	6	Junio	2023-08-06T00:00:00	2024-11-08T21:00:00	8	Radiación solar	0
175909	7	Sololá	712	San Antonio Palopó	9	San Antonio Palopo	6	Junio	2023-08-06T00:00:00	2024-11-08T22:00:00	2	Temperatura media	20.1
175910	7	Sololá	712	San Antonio Palopó	9	San Antonio Palopo	6	Junio	2023-08-06T00:00:00	2024-11-08T22:00:00	4	Temperatura máxima	20.6
175911	7	Sololá	712	San Antonio Palopó	9	San Antonio Palopo	6	Junio	2023-08-06T00:00:00	2024-11-08T22:00:00	3	Temperatura mínima	20.1
175912	7	Sololá	712	San Antonio Palopó	9	San Antonio Palopo	6	Junio	2023-08-06T00:00:00	2024-11-08T22:00:00	5	Humedad	85
175913	7	Sololá	712	San Antonio Palopó	9	San Antonio Palopo	6	Junio	2023-08-06T00:00:00	2024-11-08T22:00:00	6	Velocidad del viento	3.2
175914	7	Sololá	712	San Antonio Palopó	9	San Antonio Palopo	6	Junio	2023-08-06T00:00:00	2024-11-08T22:00:00	7	Dirección del viento	3.22
175915	7	Sololá	712	San Antonio Palopó	9	San Antonio Palopo	6	Junio	2023-08-06T00:00:00	2024-11-08T22:00:00	1	Precipitación	0
175916	7	Sololá	712	San Antonio Palopó	9	San Antonio Palopo	6	Junio	2023-08-06T00:00:00	2024-11-08T22:00:00	8	Radiación solar	0
175917	7	Sololá	712	San Antonio Palopó	9	San Antonio Palopo	6	Junio	2023-08-06T00:00:00	2024-11-08T23:00:00	2	Temperatura media	19.7
175918	7	Sololá	712	San Antonio Palopó	9	San Antonio Palopo	6	Junio	2023-08-06T00:00:00	2024-11-08T23:00:00	4	Temperatura máxima	20.1
175919	7	Sololá	712	San Antonio Palopó	9	San Antonio Palopo	6	Junio	2023-08-06T00:00:00	2024-11-08T23:00:00	3	Temperatura mínima	19.7
175920	7	Sololá	712	San Antonio Palopó	9	San Antonio Palopo	6	Junio	2023-08-06T00:00:00	2024-11-08T23:00:00	5	Humedad	87
175921	7	Sololá	712	San Antonio Palopó	9	San Antonio Palopo	6	Junio	2023-08-06T00:00:00	2024-11-08T23:00:00	6	Velocidad del viento	3.2
175922	7	Sololá	712	San Antonio Palopó	9	San Antonio Palopo	6	Junio	2023-08-06T00:00:00	2024-11-08T23:00:00	7	Dirección del viento	3.22
175923	7	Sololá	712	San Antonio Palopó	9	San Antonio Palopo	6	Junio	2023-08-06T00:00:00	2024-11-08T23:00:00	1	Precipitación	0
175924	7	Sololá	712	San Antonio Palopó	9	San Antonio Palopo	6	Junio	2023-08-06T00:00:00	2024-11-08T23:00:00	8	Radiación solar	0
175925	7	Sololá	712	San Antonio Palopó	9	San Antonio Palopo	6	Junio	2023-09-06T00:00:00	2024-11-08T00:00:00	2	Temperatura media	19.3
175926	7	Sololá	712	San Antonio Palopó	9	San Antonio Palopo	6	Junio	2023-09-06T00:00:00	2024-11-08T00:00:00	4	Temperatura máxima	19.7
175927	7	Sololá	712	San Antonio Palopó	9	San Antonio Palopo	6	Junio	2023-09-06T00:00:00	2024-11-08T00:00:00	3	Temperatura mínima	19.2
175928	7	Sololá	712	San Antonio Palopó	9	San Antonio Palopo	6	Junio	2023-09-06T00:00:00	2024-11-08T00:00:00	5	Humedad	87
175929	7	Sololá	712	San Antonio Palopó	9	San Antonio Palopo	6	Junio	2023-09-06T00:00:00	2024-11-08T00:00:00	6	Velocidad del viento	3.2
175930	7	Sololá	712	San Antonio Palopó	9	San Antonio Palopo	6	Junio	2023-09-06T00:00:00	2024-11-08T00:00:00	7	Dirección del viento	3.22
175931	7	Sololá	712	San Antonio Palopó	9	San Antonio Palopo	6	Junio	2023-09-06T00:00:00	2024-11-08T00:00:00	1	Precipitación	0
175932	7	Sololá	712	San Antonio Palopó	9	San Antonio Palopo	6	Junio	2023-09-06T00:00:00	2024-11-08T00:00:00	8	Radiación solar	0
175933	7	Sololá	712	San Antonio Palopó	9	San Antonio Palopo	6	Junio	2023-09-06T00:00:00	2024-11-08T01:00:00	2	Temperatura media	20.3
175934	7	Sololá	712	San Antonio Palopó	9	San Antonio Palopo	6	Junio	2023-09-06T00:00:00	2024-11-08T01:00:00	4	Temperatura máxima	20.4
175935	7	Sololá	712	San Antonio Palopó	9	San Antonio Palopo	6	Junio	2023-09-06T00:00:00	2024-11-08T01:00:00	3	Temperatura mínima	19.3
175936	7	Sololá	712	San Antonio Palopó	9	San Antonio Palopo	6	Junio	2023-09-06T00:00:00	2024-11-08T01:00:00	5	Humedad	81
175937	7	Sololá	712	San Antonio Palopó	9	San Antonio Palopo	6	Junio	2023-09-06T00:00:00	2024-11-08T01:00:00	6	Velocidad del viento	1.6
175938	7	Sololá	712	San Antonio Palopó	9	San Antonio Palopo	6	Junio	2023-09-06T00:00:00	2024-11-08T01:00:00	7	Dirección del viento	1.61
175939	7	Sololá	712	San Antonio Palopó	9	San Antonio Palopo	6	Junio	2023-09-06T00:00:00	2024-11-08T01:00:00	1	Precipitación	0
175940	7	Sololá	712	San Antonio Palopó	9	San Antonio Palopo	6	Junio	2023-09-06T00:00:00	2024-11-08T01:00:00	8	Radiación solar	0
175941	7	Sololá	712	San Antonio Palopó	9	San Antonio Palopo	6	Junio	2023-09-06T00:00:00	2024-11-08T02:00:00	2	Temperatura media	20.2
175942	7	Sololá	712	San Antonio Palopó	9	San Antonio Palopo	6	Junio	2023-09-06T00:00:00	2024-11-08T02:00:00	4	Temperatura máxima	20.4
175943	7	Sololá	712	San Antonio Palopó	9	San Antonio Palopo	6	Junio	2023-09-06T00:00:00	2024-11-08T02:00:00	3	Temperatura mínima	20.1
175944	7	Sololá	712	San Antonio Palopó	9	San Antonio Palopo	6	Junio	2023-09-06T00:00:00	2024-11-08T02:00:00	5	Humedad	78
175945	7	Sololá	712	San Antonio Palopó	9	San Antonio Palopo	6	Junio	2023-09-06T00:00:00	2024-11-08T02:00:00	6	Velocidad del viento	3.2
175946	7	Sololá	712	San Antonio Palopó	9	San Antonio Palopo	6	Junio	2023-09-06T00:00:00	2024-11-08T02:00:00	7	Dirección del viento	3.22
175947	7	Sololá	712	San Antonio Palopó	9	San Antonio Palopo	6	Junio	2023-09-06T00:00:00	2024-11-08T02:00:00	1	Precipitación	0
175948	7	Sololá	712	San Antonio Palopó	9	San Antonio Palopo	6	Junio	2023-09-06T00:00:00	2024-11-08T02:00:00	8	Radiación solar	0
175949	7	Sololá	712	San Antonio Palopó	9	San Antonio Palopo	6	Junio	2023-09-06T00:00:00	2024-11-08T03:00:00	2	Temperatura media	19.6
175950	7	Sololá	712	San Antonio Palopó	9	San Antonio Palopo	6	Junio	2023-09-06T00:00:00	2024-11-08T03:00:00	4	Temperatura máxima	20.4
175951	7	Sololá	712	San Antonio Palopó	9	San Antonio Palopo	6	Junio	2023-09-06T00:00:00	2024-11-08T03:00:00	3	Temperatura mínima	19.5
175952	7	Sololá	712	San Antonio Palopó	9	San Antonio Palopo	6	Junio	2023-09-06T00:00:00	2024-11-08T03:00:00	5	Humedad	81
175953	7	Sololá	712	San Antonio Palopó	9	San Antonio Palopo	6	Junio	2023-09-06T00:00:00	2024-11-08T03:00:00	6	Velocidad del viento	4.8
175954	7	Sololá	712	San Antonio Palopó	9	San Antonio Palopo	6	Junio	2023-09-06T00:00:00	2024-11-08T03:00:00	7	Dirección del viento	4.83
175955	7	Sololá	712	San Antonio Palopó	9	San Antonio Palopo	6	Junio	2023-09-06T00:00:00	2024-11-08T03:00:00	1	Precipitación	0
175956	7	Sololá	712	San Antonio Palopó	9	San Antonio Palopo	6	Junio	2023-09-06T00:00:00	2024-11-08T03:00:00	8	Radiación solar	0
175957	7	Sololá	712	San Antonio Palopó	9	San Antonio Palopo	6	Junio	2023-09-06T00:00:00	2024-11-08T04:00:00	2	Temperatura media	19.1
175958	7	Sololá	712	San Antonio Palopó	9	San Antonio Palopo	6	Junio	2023-09-06T00:00:00	2024-11-08T04:00:00	4	Temperatura máxima	19.6
175959	7	Sololá	712	San Antonio Palopó	9	San Antonio Palopo	6	Junio	2023-09-06T00:00:00	2024-11-08T04:00:00	3	Temperatura mínima	18.7
175960	7	Sololá	712	San Antonio Palopó	9	San Antonio Palopo	6	Junio	2023-09-06T00:00:00	2024-11-08T04:00:00	5	Humedad	81
175961	7	Sololá	712	San Antonio Palopó	9	San Antonio Palopo	6	Junio	2023-09-06T00:00:00	2024-11-08T04:00:00	6	Velocidad del viento	3.2
175962	7	Sololá	712	San Antonio Palopó	9	San Antonio Palopo	6	Junio	2023-09-06T00:00:00	2024-11-08T04:00:00	7	Dirección del viento	3.22
175963	7	Sololá	712	San Antonio Palopó	9	San Antonio Palopo	6	Junio	2023-09-06T00:00:00	2024-11-08T04:00:00	1	Precipitación	0
175964	7	Sololá	712	San Antonio Palopó	9	San Antonio Palopo	6	Junio	2023-09-06T00:00:00	2024-11-08T04:00:00	8	Radiación solar	0
175965	7	Sololá	712	San Antonio Palopó	9	San Antonio Palopo	6	Junio	2023-09-06T00:00:00	2024-11-08T05:00:00	2	Temperatura media	19.2
175966	7	Sololá	712	San Antonio Palopó	9	San Antonio Palopo	6	Junio	2023-09-06T00:00:00	2024-11-08T05:00:00	4	Temperatura máxima	19.7
175967	7	Sololá	712	San Antonio Palopó	9	San Antonio Palopo	6	Junio	2023-09-06T00:00:00	2024-11-08T05:00:00	3	Temperatura mínima	18.9
175968	7	Sololá	712	San Antonio Palopó	9	San Antonio Palopo	6	Junio	2023-09-06T00:00:00	2024-11-08T05:00:00	5	Humedad	77
175969	7	Sololá	712	San Antonio Palopó	9	San Antonio Palopo	6	Junio	2023-09-06T00:00:00	2024-11-08T05:00:00	6	Velocidad del viento	3.2
175970	7	Sololá	712	San Antonio Palopó	9	San Antonio Palopo	6	Junio	2023-09-06T00:00:00	2024-11-08T05:00:00	7	Dirección del viento	3.22
175971	7	Sololá	712	San Antonio Palopó	9	San Antonio Palopo	6	Junio	2023-09-06T00:00:00	2024-11-08T05:00:00	1	Precipitación	0
175972	7	Sololá	712	San Antonio Palopó	9	San Antonio Palopo	6	Junio	2023-09-06T00:00:00	2024-11-08T05:00:00	8	Radiación solar	0
175973	7	Sololá	712	San Antonio Palopó	9	San Antonio Palopo	6	Junio	2023-09-06T00:00:00	2024-11-08T06:00:00	2	Temperatura media	19.8
175974	7	Sololá	712	San Antonio Palopó	9	San Antonio Palopo	6	Junio	2023-09-06T00:00:00	2024-11-08T06:00:00	4	Temperatura máxima	19.8
175975	7	Sololá	712	San Antonio Palopó	9	San Antonio Palopo	6	Junio	2023-09-06T00:00:00	2024-11-08T06:00:00	3	Temperatura mínima	19
175976	7	Sololá	712	San Antonio Palopó	9	San Antonio Palopo	6	Junio	2023-09-06T00:00:00	2024-11-08T06:00:00	5	Humedad	75
175977	7	Sololá	712	San Antonio Palopó	9	San Antonio Palopo	6	Junio	2023-09-06T00:00:00	2024-11-08T06:00:00	6	Velocidad del viento	6.4
175978	7	Sololá	712	San Antonio Palopó	9	San Antonio Palopo	6	Junio	2023-09-06T00:00:00	2024-11-08T06:00:00	7	Dirección del viento	6.44
175979	7	Sololá	712	San Antonio Palopó	9	San Antonio Palopo	6	Junio	2023-09-06T00:00:00	2024-11-08T06:00:00	1	Precipitación	0
175980	7	Sololá	712	San Antonio Palopó	9	San Antonio Palopo	6	Junio	2023-09-06T00:00:00	2024-11-08T06:00:00	8	Radiación solar	4
175981	7	Sololá	712	San Antonio Palopó	9	San Antonio Palopo	6	Junio	2023-09-06T00:00:00	2024-11-08T07:00:00	2	Temperatura media	19.6
175982	7	Sololá	712	San Antonio Palopó	9	San Antonio Palopo	6	Junio	2023-09-06T00:00:00	2024-11-08T07:00:00	4	Temperatura máxima	20
175983	7	Sololá	712	San Antonio Palopó	9	San Antonio Palopo	6	Junio	2023-09-06T00:00:00	2024-11-08T07:00:00	3	Temperatura mínima	19.3
175984	7	Sololá	712	San Antonio Palopó	9	San Antonio Palopo	6	Junio	2023-09-06T00:00:00	2024-11-08T07:00:00	5	Humedad	82
175985	7	Sololá	712	San Antonio Palopó	9	San Antonio Palopo	6	Junio	2023-09-06T00:00:00	2024-11-08T07:00:00	6	Velocidad del viento	4.8
175986	7	Sololá	712	San Antonio Palopó	9	San Antonio Palopo	6	Junio	2023-09-06T00:00:00	2024-11-08T07:00:00	7	Dirección del viento	4.83
175987	7	Sololá	712	San Antonio Palopó	9	San Antonio Palopo	6	Junio	2023-09-06T00:00:00	2024-11-08T07:00:00	1	Precipitación	0
175988	7	Sololá	712	San Antonio Palopó	9	San Antonio Palopo	6	Junio	2023-09-06T00:00:00	2024-11-08T07:00:00	8	Radiación solar	44
175989	7	Sololá	712	San Antonio Palopó	9	San Antonio Palopo	6	Junio	2023-09-06T00:00:00	2024-11-08T08:00:00	2	Temperatura media	21.2
175990	7	Sololá	712	San Antonio Palopó	9	San Antonio Palopo	6	Junio	2023-09-06T00:00:00	2024-11-08T08:00:00	4	Temperatura máxima	21.2
175991	7	Sololá	712	San Antonio Palopó	9	San Antonio Palopo	6	Junio	2023-09-06T00:00:00	2024-11-08T08:00:00	3	Temperatura mínima	19.4
175992	7	Sololá	712	San Antonio Palopó	9	San Antonio Palopo	6	Junio	2023-09-06T00:00:00	2024-11-08T08:00:00	5	Humedad	80
175993	7	Sololá	712	San Antonio Palopó	9	San Antonio Palopo	6	Junio	2023-09-06T00:00:00	2024-11-08T08:00:00	6	Velocidad del viento	1.6
175994	7	Sololá	712	San Antonio Palopó	9	San Antonio Palopo	6	Junio	2023-09-06T00:00:00	2024-11-08T08:00:00	7	Dirección del viento	1.61
175995	7	Sololá	712	San Antonio Palopó	9	San Antonio Palopo	6	Junio	2023-09-06T00:00:00	2024-11-08T08:00:00	1	Precipitación	0
175996	7	Sololá	712	San Antonio Palopó	9	San Antonio Palopo	6	Junio	2023-09-06T00:00:00	2024-11-08T08:00:00	8	Radiación solar	211
175997	7	Sololá	712	San Antonio Palopó	9	San Antonio Palopo	6	Junio	2023-09-06T00:00:00	2024-11-08T09:00:00	2	Temperatura media	21.7
175998	7	Sololá	712	San Antonio Palopó	9	San Antonio Palopo	6	Junio	2023-09-06T00:00:00	2024-11-08T09:00:00	4	Temperatura máxima	21.9
175999	7	Sololá	712	San Antonio Palopó	9	San Antonio Palopo	6	Junio	2023-09-06T00:00:00	2024-11-08T09:00:00	3	Temperatura mínima	21.2
176000	7	Sololá	712	San Antonio Palopó	9	San Antonio Palopo	6	Junio	2023-09-06T00:00:00	2024-11-08T09:00:00	5	Humedad	78
176001	7	Sololá	712	San Antonio Palopó	9	San Antonio Palopo	6	Junio	2023-09-06T00:00:00	2024-11-08T09:00:00	6	Velocidad del viento	1.6
176002	7	Sololá	712	San Antonio Palopó	9	San Antonio Palopo	6	Junio	2023-09-06T00:00:00	2024-11-08T09:00:00	7	Dirección del viento	1.61
176003	7	Sololá	712	San Antonio Palopó	9	San Antonio Palopo	6	Junio	2023-09-06T00:00:00	2024-11-08T09:00:00	1	Precipitación	0
176004	7	Sololá	712	San Antonio Palopó	9	San Antonio Palopo	6	Junio	2023-09-06T00:00:00	2024-11-08T09:00:00	8	Radiación solar	496
176005	7	Sololá	712	San Antonio Palopó	9	San Antonio Palopo	6	Junio	2023-09-06T00:00:00	2024-11-08T10:00:00	2	Temperatura media	22.8
176006	7	Sololá	712	San Antonio Palopó	9	San Antonio Palopo	6	Junio	2023-09-06T00:00:00	2024-11-08T10:00:00	4	Temperatura máxima	22.8
176007	7	Sololá	712	San Antonio Palopó	9	San Antonio Palopo	6	Junio	2023-09-06T00:00:00	2024-11-08T10:00:00	3	Temperatura mínima	21.6
176008	7	Sololá	712	San Antonio Palopó	9	San Antonio Palopo	6	Junio	2023-09-06T00:00:00	2024-11-08T10:00:00	5	Humedad	74
176009	7	Sololá	712	San Antonio Palopó	9	San Antonio Palopo	6	Junio	2023-09-06T00:00:00	2024-11-08T10:00:00	6	Velocidad del viento	3.2
176010	7	Sololá	712	San Antonio Palopó	9	San Antonio Palopo	6	Junio	2023-09-06T00:00:00	2024-11-08T10:00:00	7	Dirección del viento	3.22
176011	7	Sololá	712	San Antonio Palopó	9	San Antonio Palopo	6	Junio	2023-09-06T00:00:00	2024-11-08T10:00:00	1	Precipitación	0
176012	7	Sololá	712	San Antonio Palopó	9	San Antonio Palopo	6	Junio	2023-09-06T00:00:00	2024-11-08T10:00:00	8	Radiación solar	676
176013	7	Sololá	712	San Antonio Palopó	9	San Antonio Palopo	6	Junio	2023-09-06T00:00:00	2024-11-08T11:00:00	2	Temperatura media	23.2
176014	7	Sololá	712	San Antonio Palopó	9	San Antonio Palopo	6	Junio	2023-09-06T00:00:00	2024-11-08T11:00:00	4	Temperatura máxima	23.3
176015	7	Sololá	712	San Antonio Palopó	9	San Antonio Palopo	6	Junio	2023-09-06T00:00:00	2024-11-08T11:00:00	3	Temperatura mínima	22.6
176016	7	Sololá	712	San Antonio Palopó	9	San Antonio Palopo	6	Junio	2023-09-06T00:00:00	2024-11-08T11:00:00	5	Humedad	76
176017	7	Sololá	712	San Antonio Palopó	9	San Antonio Palopo	6	Junio	2023-09-06T00:00:00	2024-11-08T11:00:00	6	Velocidad del viento	4.8
176018	7	Sololá	712	San Antonio Palopó	9	San Antonio Palopo	6	Junio	2023-09-06T00:00:00	2024-11-08T11:00:00	7	Dirección del viento	4.83
176019	7	Sololá	712	San Antonio Palopó	9	San Antonio Palopo	6	Junio	2023-09-06T00:00:00	2024-11-08T11:00:00	1	Precipitación	0
176020	7	Sololá	712	San Antonio Palopó	9	San Antonio Palopo	6	Junio	2023-09-06T00:00:00	2024-11-08T11:00:00	8	Radiación solar	842
176021	7	Sololá	712	San Antonio Palopó	9	San Antonio Palopo	6	Junio	2023-09-06T00:00:00	2024-11-08T12:00:00	2	Temperatura media	24.5
176022	7	Sololá	712	San Antonio Palopó	9	San Antonio Palopo	6	Junio	2023-09-06T00:00:00	2024-11-08T12:00:00	4	Temperatura máxima	24.6
176023	7	Sololá	712	San Antonio Palopó	9	San Antonio Palopo	6	Junio	2023-09-06T00:00:00	2024-11-08T12:00:00	3	Temperatura mínima	23.2
176024	7	Sololá	712	San Antonio Palopó	9	San Antonio Palopo	6	Junio	2023-09-06T00:00:00	2024-11-08T12:00:00	5	Humedad	73
176025	7	Sololá	712	San Antonio Palopó	9	San Antonio Palopo	6	Junio	2023-09-06T00:00:00	2024-11-08T12:00:00	6	Velocidad del viento	6.4
176026	7	Sololá	712	San Antonio Palopó	9	San Antonio Palopo	6	Junio	2023-09-06T00:00:00	2024-11-08T12:00:00	7	Dirección del viento	6.44
176027	7	Sololá	712	San Antonio Palopó	9	San Antonio Palopo	6	Junio	2023-09-06T00:00:00	2024-11-08T12:00:00	1	Precipitación	0
176028	7	Sololá	712	San Antonio Palopó	9	San Antonio Palopo	6	Junio	2023-09-06T00:00:00	2024-11-08T12:00:00	8	Radiación solar	921
176029	7	Sololá	712	San Antonio Palopó	9	San Antonio Palopo	6	Junio	2023-09-06T00:00:00	2024-11-08T13:00:00	2	Temperatura media	23.9
176030	7	Sololá	712	San Antonio Palopó	9	San Antonio Palopo	6	Junio	2023-09-06T00:00:00	2024-11-08T13:00:00	4	Temperatura máxima	24.5
176031	7	Sololá	712	San Antonio Palopó	9	San Antonio Palopo	6	Junio	2023-09-06T00:00:00	2024-11-08T13:00:00	3	Temperatura mínima	23.8
176032	7	Sololá	712	San Antonio Palopó	9	San Antonio Palopo	6	Junio	2023-09-06T00:00:00	2024-11-08T13:00:00	5	Humedad	76
176033	7	Sololá	712	San Antonio Palopó	9	San Antonio Palopo	6	Junio	2023-09-06T00:00:00	2024-11-08T13:00:00	6	Velocidad del viento	9.7
176034	7	Sololá	712	San Antonio Palopó	9	San Antonio Palopo	6	Junio	2023-09-06T00:00:00	2024-11-08T13:00:00	7	Dirección del viento	9.66
176035	7	Sololá	712	San Antonio Palopó	9	San Antonio Palopo	6	Junio	2023-09-06T00:00:00	2024-11-08T13:00:00	1	Precipitación	0
176036	7	Sololá	712	San Antonio Palopó	9	San Antonio Palopo	6	Junio	2023-09-06T00:00:00	2024-11-08T13:00:00	8	Radiación solar	914
176037	7	Sololá	712	San Antonio Palopó	9	San Antonio Palopo	6	Junio	2023-09-06T00:00:00	2024-11-08T14:00:00	2	Temperatura media	24.8
176038	7	Sololá	712	San Antonio Palopó	9	San Antonio Palopo	6	Junio	2023-09-06T00:00:00	2024-11-08T14:00:00	4	Temperatura máxima	25.1
176039	7	Sololá	712	San Antonio Palopó	9	San Antonio Palopo	6	Junio	2023-09-06T00:00:00	2024-11-08T14:00:00	3	Temperatura mínima	23.8
176040	7	Sololá	712	San Antonio Palopó	9	San Antonio Palopo	6	Junio	2023-09-06T00:00:00	2024-11-08T14:00:00	5	Humedad	74
176041	7	Sololá	712	San Antonio Palopó	9	San Antonio Palopo	6	Junio	2023-09-06T00:00:00	2024-11-08T14:00:00	6	Velocidad del viento	6.4
176042	7	Sololá	712	San Antonio Palopó	9	San Antonio Palopo	6	Junio	2023-09-06T00:00:00	2024-11-08T14:00:00	7	Dirección del viento	6.44
176043	7	Sololá	712	San Antonio Palopó	9	San Antonio Palopo	6	Junio	2023-09-06T00:00:00	2024-11-08T14:00:00	1	Precipitación	0
176044	7	Sololá	712	San Antonio Palopó	9	San Antonio Palopo	6	Junio	2023-09-06T00:00:00	2024-11-08T14:00:00	8	Radiación solar	733
176045	7	Sololá	712	San Antonio Palopó	9	San Antonio Palopo	6	Junio	2023-09-06T00:00:00	2024-11-08T15:00:00	2	Temperatura media	25.4
176046	7	Sololá	712	San Antonio Palopó	9	San Antonio Palopo	6	Junio	2023-09-06T00:00:00	2024-11-08T15:00:00	4	Temperatura máxima	25.4
176047	7	Sololá	712	San Antonio Palopó	9	San Antonio Palopo	6	Junio	2023-09-06T00:00:00	2024-11-08T15:00:00	3	Temperatura mínima	24.2
176048	7	Sololá	712	San Antonio Palopó	9	San Antonio Palopo	6	Junio	2023-09-06T00:00:00	2024-11-08T15:00:00	5	Humedad	71
176049	7	Sololá	712	San Antonio Palopó	9	San Antonio Palopo	6	Junio	2023-09-06T00:00:00	2024-11-08T15:00:00	6	Velocidad del viento	8
176050	7	Sololá	712	San Antonio Palopó	9	San Antonio Palopo	6	Junio	2023-09-06T00:00:00	2024-11-08T15:00:00	7	Dirección del viento	8.05
176051	7	Sololá	712	San Antonio Palopó	9	San Antonio Palopo	6	Junio	2023-09-06T00:00:00	2024-11-08T15:00:00	1	Precipitación	0
176052	7	Sololá	712	San Antonio Palopó	9	San Antonio Palopo	6	Junio	2023-09-06T00:00:00	2024-11-08T15:00:00	8	Radiación solar	642
176053	7	Sololá	712	San Antonio Palopó	9	San Antonio Palopo	6	Junio	2023-09-06T00:00:00	2024-11-08T16:00:00	2	Temperatura media	24.7
176054	7	Sololá	712	San Antonio Palopó	9	San Antonio Palopo	6	Junio	2023-09-06T00:00:00	2024-11-08T16:00:00	4	Temperatura máxima	26
176055	7	Sololá	712	San Antonio Palopó	9	San Antonio Palopo	6	Junio	2023-09-06T00:00:00	2024-11-08T16:00:00	3	Temperatura mínima	24.5
176056	7	Sololá	712	San Antonio Palopó	9	San Antonio Palopo	6	Junio	2023-09-06T00:00:00	2024-11-08T16:00:00	5	Humedad	72
176057	7	Sololá	712	San Antonio Palopó	9	San Antonio Palopo	6	Junio	2023-09-06T00:00:00	2024-11-08T16:00:00	6	Velocidad del viento	6.4
176058	7	Sololá	712	San Antonio Palopó	9	San Antonio Palopo	6	Junio	2023-09-06T00:00:00	2024-11-08T16:00:00	7	Dirección del viento	6.44
176059	7	Sololá	712	San Antonio Palopó	9	San Antonio Palopo	6	Junio	2023-09-06T00:00:00	2024-11-08T16:00:00	1	Precipitación	0
176060	7	Sololá	712	San Antonio Palopó	9	San Antonio Palopo	6	Junio	2023-09-06T00:00:00	2024-11-08T16:00:00	8	Radiación solar	542
176061	7	Sololá	712	San Antonio Palopó	9	San Antonio Palopo	6	Junio	2023-09-06T00:00:00	2024-11-08T17:00:00	2	Temperatura media	24.4
176062	7	Sololá	712	San Antonio Palopó	9	San Antonio Palopo	6	Junio	2023-09-06T00:00:00	2024-11-08T17:00:00	4	Temperatura máxima	24.7
176063	7	Sololá	712	San Antonio Palopó	9	San Antonio Palopo	6	Junio	2023-09-06T00:00:00	2024-11-08T17:00:00	3	Temperatura mínima	24.1
176064	7	Sololá	712	San Antonio Palopó	9	San Antonio Palopo	6	Junio	2023-09-06T00:00:00	2024-11-08T17:00:00	5	Humedad	74
176065	7	Sololá	712	San Antonio Palopó	9	San Antonio Palopo	6	Junio	2023-09-06T00:00:00	2024-11-08T17:00:00	6	Velocidad del viento	6.4
176066	7	Sololá	712	San Antonio Palopó	9	San Antonio Palopo	6	Junio	2023-09-06T00:00:00	2024-11-08T17:00:00	7	Dirección del viento	6.44
176067	7	Sololá	712	San Antonio Palopó	9	San Antonio Palopo	6	Junio	2023-09-06T00:00:00	2024-11-08T17:00:00	1	Precipitación	0
176068	7	Sololá	712	San Antonio Palopó	9	San Antonio Palopo	6	Junio	2023-09-06T00:00:00	2024-11-08T17:00:00	8	Radiación solar	377
176069	7	Sololá	712	San Antonio Palopó	9	San Antonio Palopo	6	Junio	2023-09-06T00:00:00	2024-11-08T18:00:00	2	Temperatura media	22.5
176070	7	Sololá	712	San Antonio Palopó	9	San Antonio Palopo	6	Junio	2023-09-06T00:00:00	2024-11-08T18:00:00	4	Temperatura máxima	24.4
176071	7	Sololá	712	San Antonio Palopó	9	San Antonio Palopo	6	Junio	2023-09-06T00:00:00	2024-11-08T18:00:00	3	Temperatura mínima	22.2
176072	7	Sololá	712	San Antonio Palopó	9	San Antonio Palopo	6	Junio	2023-09-06T00:00:00	2024-11-08T18:00:00	5	Humedad	79
176073	7	Sololá	712	San Antonio Palopó	9	San Antonio Palopo	6	Junio	2023-09-06T00:00:00	2024-11-08T18:00:00	6	Velocidad del viento	6.4
176074	7	Sololá	712	San Antonio Palopó	9	San Antonio Palopo	6	Junio	2023-09-06T00:00:00	2024-11-08T18:00:00	7	Dirección del viento	6.44
176075	7	Sololá	712	San Antonio Palopó	9	San Antonio Palopo	6	Junio	2023-09-06T00:00:00	2024-11-08T18:00:00	1	Precipitación	0
176076	7	Sololá	712	San Antonio Palopó	9	San Antonio Palopo	6	Junio	2023-09-06T00:00:00	2024-11-08T18:00:00	8	Radiación solar	97
176077	7	Sololá	712	San Antonio Palopó	9	San Antonio Palopo	6	Junio	2023-09-06T00:00:00	2024-11-08T19:00:00	2	Temperatura media	21.7
176078	7	Sololá	712	San Antonio Palopó	9	San Antonio Palopo	6	Junio	2023-09-06T00:00:00	2024-11-08T19:00:00	4	Temperatura máxima	22.7
176079	7	Sololá	712	San Antonio Palopó	9	San Antonio Palopo	6	Junio	2023-09-06T00:00:00	2024-11-08T19:00:00	3	Temperatura mínima	21.6
176080	7	Sololá	712	San Antonio Palopó	9	San Antonio Palopo	6	Junio	2023-09-06T00:00:00	2024-11-08T19:00:00	5	Humedad	85
176081	7	Sololá	712	San Antonio Palopó	9	San Antonio Palopo	6	Junio	2023-09-06T00:00:00	2024-11-08T19:00:00	6	Velocidad del viento	4.8
176082	7	Sololá	712	San Antonio Palopó	9	San Antonio Palopo	6	Junio	2023-09-06T00:00:00	2024-11-08T19:00:00	7	Dirección del viento	4.83
176083	7	Sololá	712	San Antonio Palopó	9	San Antonio Palopo	6	Junio	2023-09-06T00:00:00	2024-11-08T19:00:00	1	Precipitación	0
176084	7	Sololá	712	San Antonio Palopó	9	San Antonio Palopo	6	Junio	2023-09-06T00:00:00	2024-11-08T19:00:00	8	Radiación solar	0
176085	7	Sololá	712	San Antonio Palopó	9	San Antonio Palopo	6	Junio	2023-09-06T00:00:00	2024-11-08T20:00:00	2	Temperatura media	21.6
176086	7	Sololá	712	San Antonio Palopó	9	San Antonio Palopo	6	Junio	2023-09-06T00:00:00	2024-11-08T20:00:00	4	Temperatura máxima	21.7
176087	7	Sololá	712	San Antonio Palopó	9	San Antonio Palopo	6	Junio	2023-09-06T00:00:00	2024-11-08T20:00:00	3	Temperatura mínima	21.5
176088	7	Sololá	712	San Antonio Palopó	9	San Antonio Palopo	6	Junio	2023-09-06T00:00:00	2024-11-08T20:00:00	5	Humedad	82
176089	7	Sololá	712	San Antonio Palopó	9	San Antonio Palopo	6	Junio	2023-09-06T00:00:00	2024-11-08T20:00:00	6	Velocidad del viento	3.2
176090	7	Sololá	712	San Antonio Palopó	9	San Antonio Palopo	6	Junio	2023-09-06T00:00:00	2024-11-08T20:00:00	7	Dirección del viento	3.22
176091	7	Sololá	712	San Antonio Palopó	9	San Antonio Palopo	6	Junio	2023-09-06T00:00:00	2024-11-08T20:00:00	1	Precipitación	0
176092	7	Sololá	712	San Antonio Palopó	9	San Antonio Palopo	6	Junio	2023-09-06T00:00:00	2024-11-08T20:00:00	8	Radiación solar	0
176093	7	Sololá	712	San Antonio Palopó	9	San Antonio Palopo	6	Junio	2023-09-06T00:00:00	2024-11-08T21:00:00	2	Temperatura media	20.8
176094	7	Sololá	712	San Antonio Palopó	9	San Antonio Palopo	6	Junio	2023-09-06T00:00:00	2024-11-08T21:00:00	4	Temperatura máxima	21.6
176095	7	Sololá	712	San Antonio Palopó	9	San Antonio Palopo	6	Junio	2023-09-06T00:00:00	2024-11-08T21:00:00	3	Temperatura mínima	20.8
176096	7	Sololá	712	San Antonio Palopó	9	San Antonio Palopo	6	Junio	2023-09-06T00:00:00	2024-11-08T21:00:00	5	Humedad	85
176097	7	Sololá	712	San Antonio Palopó	9	San Antonio Palopo	6	Junio	2023-09-06T00:00:00	2024-11-08T21:00:00	6	Velocidad del viento	3.2
176098	7	Sololá	712	San Antonio Palopó	9	San Antonio Palopo	6	Junio	2023-09-06T00:00:00	2024-11-08T21:00:00	7	Dirección del viento	3.22
176099	7	Sololá	712	San Antonio Palopó	9	San Antonio Palopo	6	Junio	2023-09-06T00:00:00	2024-11-08T21:00:00	1	Precipitación	0
176100	7	Sololá	712	San Antonio Palopó	9	San Antonio Palopo	6	Junio	2023-09-06T00:00:00	2024-11-08T21:00:00	8	Radiación solar	0
176101	7	Sololá	712	San Antonio Palopó	9	San Antonio Palopo	6	Junio	2023-09-06T00:00:00	2024-11-08T22:00:00	2	Temperatura media	20.9
176102	7	Sololá	712	San Antonio Palopó	9	San Antonio Palopo	6	Junio	2023-09-06T00:00:00	2024-11-08T22:00:00	4	Temperatura máxima	21.1
176103	7	Sololá	712	San Antonio Palopó	9	San Antonio Palopo	6	Junio	2023-09-06T00:00:00	2024-11-08T22:00:00	3	Temperatura mínima	20.7
176104	7	Sololá	712	San Antonio Palopó	9	San Antonio Palopo	6	Junio	2023-09-06T00:00:00	2024-11-08T22:00:00	5	Humedad	85
176105	7	Sololá	712	San Antonio Palopó	9	San Antonio Palopo	6	Junio	2023-09-06T00:00:00	2024-11-08T22:00:00	6	Velocidad del viento	3.2
176106	7	Sololá	712	San Antonio Palopó	9	San Antonio Palopo	6	Junio	2023-09-06T00:00:00	2024-11-08T22:00:00	7	Dirección del viento	3.22
176107	7	Sololá	712	San Antonio Palopó	9	San Antonio Palopo	6	Junio	2023-09-06T00:00:00	2024-11-08T22:00:00	1	Precipitación	0
176108	7	Sololá	712	San Antonio Palopó	9	San Antonio Palopo	6	Junio	2023-09-06T00:00:00	2024-11-08T22:00:00	8	Radiación solar	0
176109	7	Sololá	712	San Antonio Palopó	9	San Antonio Palopo	6	Junio	2023-09-06T00:00:00	2024-11-08T23:00:00	2	Temperatura media	20.2
176110	7	Sololá	712	San Antonio Palopó	9	San Antonio Palopo	6	Junio	2023-09-06T00:00:00	2024-11-08T23:00:00	4	Temperatura máxima	21
176111	7	Sololá	712	San Antonio Palopó	9	San Antonio Palopo	6	Junio	2023-09-06T00:00:00	2024-11-08T23:00:00	3	Temperatura mínima	20.2
176112	7	Sololá	712	San Antonio Palopó	9	San Antonio Palopo	6	Junio	2023-09-06T00:00:00	2024-11-08T23:00:00	5	Humedad	87
176113	7	Sololá	712	San Antonio Palopó	9	San Antonio Palopo	6	Junio	2023-09-06T00:00:00	2024-11-08T23:00:00	6	Velocidad del viento	4.8
176114	7	Sololá	712	San Antonio Palopó	9	San Antonio Palopo	6	Junio	2023-09-06T00:00:00	2024-11-08T23:00:00	7	Dirección del viento	4.83
176115	7	Sololá	712	San Antonio Palopó	9	San Antonio Palopo	6	Junio	2023-09-06T00:00:00	2024-11-08T23:00:00	1	Precipitación	0
176116	7	Sololá	712	San Antonio Palopó	9	San Antonio Palopo	6	Junio	2023-09-06T00:00:00	2024-11-08T23:00:00	8	Radiación solar	0
176117	7	Sololá	712	San Antonio Palopó	9	San Antonio Palopo	6	Junio	2023-10-06T00:00:00	2024-11-08T00:00:00	2	Temperatura media	20.3
176118	7	Sololá	712	San Antonio Palopó	9	San Antonio Palopo	6	Junio	2023-10-06T00:00:00	2024-11-08T00:00:00	4	Temperatura máxima	20.5
176119	7	Sololá	712	San Antonio Palopó	9	San Antonio Palopo	6	Junio	2023-10-06T00:00:00	2024-11-08T00:00:00	3	Temperatura mínima	20.2
176120	7	Sololá	712	San Antonio Palopó	9	San Antonio Palopo	6	Junio	2023-10-06T00:00:00	2024-11-08T00:00:00	5	Humedad	89
176121	7	Sololá	712	San Antonio Palopó	9	San Antonio Palopo	6	Junio	2023-10-06T00:00:00	2024-11-08T00:00:00	6	Velocidad del viento	3.2
176122	7	Sololá	712	San Antonio Palopó	9	San Antonio Palopo	6	Junio	2023-10-06T00:00:00	2024-11-08T00:00:00	7	Dirección del viento	3.22
176123	7	Sololá	712	San Antonio Palopó	9	San Antonio Palopo	6	Junio	2023-10-06T00:00:00	2024-11-08T00:00:00	1	Precipitación	0
176124	7	Sololá	712	San Antonio Palopó	9	San Antonio Palopo	6	Junio	2023-10-06T00:00:00	2024-11-08T00:00:00	8	Radiación solar	0
176125	7	Sololá	712	San Antonio Palopó	9	San Antonio Palopo	6	Junio	2023-10-06T00:00:00	2024-11-08T01:00:00	2	Temperatura media	20.3
176126	7	Sololá	712	San Antonio Palopó	9	San Antonio Palopo	6	Junio	2023-10-06T00:00:00	2024-11-08T01:00:00	4	Temperatura máxima	20.3
176127	7	Sololá	712	San Antonio Palopó	9	San Antonio Palopo	6	Junio	2023-10-06T00:00:00	2024-11-08T01:00:00	3	Temperatura mínima	20.1
176128	7	Sololá	712	San Antonio Palopó	9	San Antonio Palopo	6	Junio	2023-10-06T00:00:00	2024-11-08T01:00:00	5	Humedad	87
176129	7	Sololá	712	San Antonio Palopó	9	San Antonio Palopo	6	Junio	2023-10-06T00:00:00	2024-11-08T01:00:00	6	Velocidad del viento	3.2
176130	7	Sololá	712	San Antonio Palopó	9	San Antonio Palopo	6	Junio	2023-10-06T00:00:00	2024-11-08T01:00:00	7	Dirección del viento	3.22
176131	7	Sololá	712	San Antonio Palopó	9	San Antonio Palopo	6	Junio	2023-10-06T00:00:00	2024-11-08T01:00:00	1	Precipitación	0
176132	7	Sololá	712	San Antonio Palopó	9	San Antonio Palopo	6	Junio	2023-10-06T00:00:00	2024-11-08T01:00:00	8	Radiación solar	0
176133	7	Sololá	712	San Antonio Palopó	9	San Antonio Palopo	6	Junio	2023-10-06T00:00:00	2024-11-08T02:00:00	2	Temperatura media	19.8
176134	7	Sololá	712	San Antonio Palopó	9	San Antonio Palopo	6	Junio	2023-10-06T00:00:00	2024-11-08T02:00:00	4	Temperatura máxima	20.3
176135	7	Sololá	712	San Antonio Palopó	9	San Antonio Palopo	6	Junio	2023-10-06T00:00:00	2024-11-08T02:00:00	3	Temperatura mínima	19.7
176136	7	Sololá	712	San Antonio Palopó	9	San Antonio Palopo	6	Junio	2023-10-06T00:00:00	2024-11-08T02:00:00	5	Humedad	86
176137	7	Sololá	712	San Antonio Palopó	9	San Antonio Palopo	6	Junio	2023-10-06T00:00:00	2024-11-08T02:00:00	6	Velocidad del viento	1.6
176138	7	Sololá	712	San Antonio Palopó	9	San Antonio Palopo	6	Junio	2023-10-06T00:00:00	2024-11-08T02:00:00	7	Dirección del viento	1.61
176139	7	Sololá	712	San Antonio Palopó	9	San Antonio Palopo	6	Junio	2023-10-06T00:00:00	2024-11-08T02:00:00	1	Precipitación	0
176140	7	Sololá	712	San Antonio Palopó	9	San Antonio Palopo	6	Junio	2023-10-06T00:00:00	2024-11-08T02:00:00	8	Radiación solar	0
176141	7	Sololá	712	San Antonio Palopó	9	San Antonio Palopo	6	Junio	2023-10-06T00:00:00	2024-11-08T03:00:00	2	Temperatura media	19.9
176142	7	Sololá	712	San Antonio Palopó	9	San Antonio Palopo	6	Junio	2023-10-06T00:00:00	2024-11-08T03:00:00	4	Temperatura máxima	20.1
176143	7	Sololá	712	San Antonio Palopó	9	San Antonio Palopo	6	Junio	2023-10-06T00:00:00	2024-11-08T03:00:00	3	Temperatura mínima	19.8
176144	7	Sololá	712	San Antonio Palopó	9	San Antonio Palopo	6	Junio	2023-10-06T00:00:00	2024-11-08T03:00:00	5	Humedad	86
176145	7	Sololá	712	San Antonio Palopó	9	San Antonio Palopo	6	Junio	2023-10-06T00:00:00	2024-11-08T03:00:00	6	Velocidad del viento	1.6
176146	7	Sololá	712	San Antonio Palopó	9	San Antonio Palopo	6	Junio	2023-10-06T00:00:00	2024-11-08T03:00:00	7	Dirección del viento	1.61
176147	7	Sololá	712	San Antonio Palopó	9	San Antonio Palopo	6	Junio	2023-10-06T00:00:00	2024-11-08T03:00:00	1	Precipitación	0
176148	7	Sololá	712	San Antonio Palopó	9	San Antonio Palopo	6	Junio	2023-10-06T00:00:00	2024-11-08T03:00:00	8	Radiación solar	0
176149	7	Sololá	712	San Antonio Palopó	9	San Antonio Palopo	6	Junio	2023-10-06T00:00:00	2024-11-08T04:00:00	2	Temperatura media	19.6
176150	7	Sololá	712	San Antonio Palopó	9	San Antonio Palopo	6	Junio	2023-10-06T00:00:00	2024-11-08T04:00:00	4	Temperatura máxima	20
176151	7	Sololá	712	San Antonio Palopó	9	San Antonio Palopo	6	Junio	2023-10-06T00:00:00	2024-11-08T04:00:00	3	Temperatura mínima	19.4
176152	7	Sololá	712	San Antonio Palopó	9	San Antonio Palopo	6	Junio	2023-10-06T00:00:00	2024-11-08T04:00:00	5	Humedad	83
176153	7	Sololá	712	San Antonio Palopó	9	San Antonio Palopo	6	Junio	2023-10-06T00:00:00	2024-11-08T04:00:00	6	Velocidad del viento	1.6
176154	7	Sololá	712	San Antonio Palopó	9	San Antonio Palopo	6	Junio	2023-10-06T00:00:00	2024-11-08T04:00:00	7	Dirección del viento	1.61
176155	7	Sololá	712	San Antonio Palopó	9	San Antonio Palopo	6	Junio	2023-10-06T00:00:00	2024-11-08T04:00:00	1	Precipitación	0
176156	7	Sololá	712	San Antonio Palopó	9	San Antonio Palopo	6	Junio	2023-10-06T00:00:00	2024-11-08T04:00:00	8	Radiación solar	0
176157	7	Sololá	712	San Antonio Palopó	9	San Antonio Palopo	6	Junio	2023-10-06T00:00:00	2024-11-08T05:00:00	2	Temperatura media	19.3
176158	7	Sololá	712	San Antonio Palopó	9	San Antonio Palopo	6	Junio	2023-10-06T00:00:00	2024-11-08T05:00:00	4	Temperatura máxima	19.7
176159	7	Sololá	712	San Antonio Palopó	9	San Antonio Palopo	6	Junio	2023-10-06T00:00:00	2024-11-08T05:00:00	3	Temperatura mínima	19.1
176160	7	Sololá	712	San Antonio Palopó	9	San Antonio Palopo	6	Junio	2023-10-06T00:00:00	2024-11-08T05:00:00	5	Humedad	82
176161	7	Sololá	712	San Antonio Palopó	9	San Antonio Palopo	6	Junio	2023-10-06T00:00:00	2024-11-08T05:00:00	6	Velocidad del viento	3.2
176162	7	Sololá	712	San Antonio Palopó	9	San Antonio Palopo	6	Junio	2023-10-06T00:00:00	2024-11-08T05:00:00	7	Dirección del viento	3.22
176163	7	Sololá	712	San Antonio Palopó	9	San Antonio Palopo	6	Junio	2023-10-06T00:00:00	2024-11-08T05:00:00	1	Precipitación	0
176164	7	Sololá	712	San Antonio Palopó	9	San Antonio Palopo	6	Junio	2023-10-06T00:00:00	2024-11-08T05:00:00	8	Radiación solar	0
176165	7	Sololá	712	San Antonio Palopó	9	San Antonio Palopo	6	Junio	2023-10-06T00:00:00	2024-11-08T06:00:00	2	Temperatura media	19.2
176166	7	Sololá	712	San Antonio Palopó	9	San Antonio Palopo	6	Junio	2023-10-06T00:00:00	2024-11-08T06:00:00	4	Temperatura máxima	19.3
176167	7	Sololá	712	San Antonio Palopó	9	San Antonio Palopo	6	Junio	2023-10-06T00:00:00	2024-11-08T06:00:00	3	Temperatura mínima	18.9
176168	7	Sololá	712	San Antonio Palopó	9	San Antonio Palopo	6	Junio	2023-10-06T00:00:00	2024-11-08T06:00:00	5	Humedad	80
176169	7	Sololá	712	San Antonio Palopó	9	San Antonio Palopo	6	Junio	2023-10-06T00:00:00	2024-11-08T06:00:00	6	Velocidad del viento	3.2
176170	7	Sololá	712	San Antonio Palopó	9	San Antonio Palopo	6	Junio	2023-10-06T00:00:00	2024-11-08T06:00:00	7	Dirección del viento	3.22
176171	7	Sololá	712	San Antonio Palopó	9	San Antonio Palopo	6	Junio	2023-10-06T00:00:00	2024-11-08T06:00:00	1	Precipitación	0
176172	7	Sololá	712	San Antonio Palopó	9	San Antonio Palopo	6	Junio	2023-10-06T00:00:00	2024-11-08T06:00:00	8	Radiación solar	6
176173	7	Sololá	712	San Antonio Palopó	9	San Antonio Palopo	6	Junio	2023-10-06T00:00:00	2024-11-08T07:00:00	2	Temperatura media	20.1
176174	7	Sololá	712	San Antonio Palopó	9	San Antonio Palopo	6	Junio	2023-10-06T00:00:00	2024-11-08T07:00:00	4	Temperatura máxima	20.1
176175	7	Sololá	712	San Antonio Palopó	9	San Antonio Palopo	6	Junio	2023-10-06T00:00:00	2024-11-08T07:00:00	3	Temperatura mínima	19.2
176176	7	Sololá	712	San Antonio Palopó	9	San Antonio Palopo	6	Junio	2023-10-06T00:00:00	2024-11-08T07:00:00	5	Humedad	76
176177	7	Sololá	712	San Antonio Palopó	9	San Antonio Palopo	6	Junio	2023-10-06T00:00:00	2024-11-08T07:00:00	6	Velocidad del viento	3.2
176178	7	Sololá	712	San Antonio Palopó	9	San Antonio Palopo	6	Junio	2023-10-06T00:00:00	2024-11-08T07:00:00	7	Dirección del viento	3.22
176179	7	Sololá	712	San Antonio Palopó	9	San Antonio Palopo	6	Junio	2023-10-06T00:00:00	2024-11-08T07:00:00	1	Precipitación	0
176180	7	Sololá	712	San Antonio Palopó	9	San Antonio Palopo	6	Junio	2023-10-06T00:00:00	2024-11-08T07:00:00	8	Radiación solar	73
176181	7	Sololá	712	San Antonio Palopó	9	San Antonio Palopo	6	Junio	2023-10-06T00:00:00	2024-11-08T08:00:00	2	Temperatura media	21.9
176182	7	Sololá	712	San Antonio Palopó	9	San Antonio Palopo	6	Junio	2023-10-06T00:00:00	2024-11-08T08:00:00	4	Temperatura máxima	21.9
176183	7	Sololá	712	San Antonio Palopó	9	San Antonio Palopo	6	Junio	2023-10-06T00:00:00	2024-11-08T08:00:00	3	Temperatura mínima	20.1
176184	7	Sololá	712	San Antonio Palopó	9	San Antonio Palopo	6	Junio	2023-10-06T00:00:00	2024-11-08T08:00:00	5	Humedad	77
176185	7	Sololá	712	San Antonio Palopó	9	San Antonio Palopo	6	Junio	2023-10-06T00:00:00	2024-11-08T08:00:00	6	Velocidad del viento	1.6
176186	7	Sololá	712	San Antonio Palopó	9	San Antonio Palopo	6	Junio	2023-10-06T00:00:00	2024-11-08T08:00:00	7	Dirección del viento	1.61
176187	7	Sololá	712	San Antonio Palopó	9	San Antonio Palopo	6	Junio	2023-10-06T00:00:00	2024-11-08T08:00:00	1	Precipitación	0
176188	7	Sololá	712	San Antonio Palopó	9	San Antonio Palopo	6	Junio	2023-10-06T00:00:00	2024-11-08T08:00:00	8	Radiación solar	240
176189	7	Sololá	712	San Antonio Palopó	9	San Antonio Palopo	6	Junio	2023-10-06T00:00:00	2024-11-08T09:00:00	2	Temperatura media	21.8
176190	7	Sololá	712	San Antonio Palopó	9	San Antonio Palopo	6	Junio	2023-10-06T00:00:00	2024-11-08T09:00:00	4	Temperatura máxima	22.1
176191	7	Sololá	712	San Antonio Palopó	9	San Antonio Palopo	6	Junio	2023-10-06T00:00:00	2024-11-08T09:00:00	3	Temperatura mínima	21.7
176192	7	Sololá	712	San Antonio Palopó	9	San Antonio Palopo	6	Junio	2023-10-06T00:00:00	2024-11-08T09:00:00	5	Humedad	77
176193	7	Sololá	712	San Antonio Palopó	9	San Antonio Palopo	6	Junio	2023-10-06T00:00:00	2024-11-08T09:00:00	6	Velocidad del viento	1.6
176194	7	Sololá	712	San Antonio Palopó	9	San Antonio Palopo	6	Junio	2023-10-06T00:00:00	2024-11-08T09:00:00	7	Dirección del viento	1.61
176195	7	Sololá	712	San Antonio Palopó	9	San Antonio Palopo	6	Junio	2023-10-06T00:00:00	2024-11-08T09:00:00	1	Precipitación	0
176196	7	Sololá	712	San Antonio Palopó	9	San Antonio Palopo	6	Junio	2023-10-06T00:00:00	2024-11-08T09:00:00	8	Radiación solar	479
176197	7	Sololá	712	San Antonio Palopó	9	San Antonio Palopo	6	Junio	2023-10-06T00:00:00	2024-11-08T10:00:00	2	Temperatura media	22.9
176198	7	Sololá	712	San Antonio Palopó	9	San Antonio Palopo	6	Junio	2023-10-06T00:00:00	2024-11-08T10:00:00	4	Temperatura máxima	22.9
176199	7	Sololá	712	San Antonio Palopó	9	San Antonio Palopo	6	Junio	2023-10-06T00:00:00	2024-11-08T10:00:00	3	Temperatura mínima	21.8
176200	7	Sololá	712	San Antonio Palopó	9	San Antonio Palopo	6	Junio	2023-10-06T00:00:00	2024-11-08T10:00:00	5	Humedad	74
176201	7	Sololá	712	San Antonio Palopó	9	San Antonio Palopo	6	Junio	2023-10-06T00:00:00	2024-11-08T10:00:00	6	Velocidad del viento	3.2
176202	7	Sololá	712	San Antonio Palopó	9	San Antonio Palopo	6	Junio	2023-10-06T00:00:00	2024-11-08T10:00:00	7	Dirección del viento	3.22
176203	7	Sololá	712	San Antonio Palopó	9	San Antonio Palopo	6	Junio	2023-10-06T00:00:00	2024-11-08T10:00:00	1	Precipitación	0
176204	7	Sololá	712	San Antonio Palopó	9	San Antonio Palopo	6	Junio	2023-10-06T00:00:00	2024-11-08T10:00:00	8	Radiación solar	675
176205	7	Sololá	712	San Antonio Palopó	9	San Antonio Palopo	6	Junio	2023-10-06T00:00:00	2024-11-08T11:00:00	2	Temperatura media	23.1
176206	7	Sololá	712	San Antonio Palopó	9	San Antonio Palopo	6	Junio	2023-10-06T00:00:00	2024-11-08T11:00:00	4	Temperatura máxima	23.4
176207	7	Sololá	712	San Antonio Palopó	9	San Antonio Palopo	6	Junio	2023-10-06T00:00:00	2024-11-08T11:00:00	3	Temperatura mínima	22.8
176208	7	Sololá	712	San Antonio Palopó	9	San Antonio Palopo	6	Junio	2023-10-06T00:00:00	2024-11-08T11:00:00	5	Humedad	72
176209	7	Sololá	712	San Antonio Palopó	9	San Antonio Palopo	6	Junio	2023-10-06T00:00:00	2024-11-08T11:00:00	6	Velocidad del viento	11.3
176210	7	Sololá	712	San Antonio Palopó	9	San Antonio Palopo	6	Junio	2023-10-06T00:00:00	2024-11-08T11:00:00	7	Dirección del viento	11.27
176211	7	Sololá	712	San Antonio Palopó	9	San Antonio Palopo	6	Junio	2023-10-06T00:00:00	2024-11-08T11:00:00	1	Precipitación	0
176212	7	Sololá	712	San Antonio Palopó	9	San Antonio Palopo	6	Junio	2023-10-06T00:00:00	2024-11-08T11:00:00	8	Radiación solar	774
176213	7	Sololá	712	San Antonio Palopó	9	San Antonio Palopo	6	Junio	2023-10-06T00:00:00	2024-11-08T12:00:00	2	Temperatura media	21.8
176214	7	Sololá	712	San Antonio Palopó	9	San Antonio Palopo	6	Junio	2023-10-06T00:00:00	2024-11-08T12:00:00	4	Temperatura máxima	23.1
176215	7	Sololá	712	San Antonio Palopó	9	San Antonio Palopo	6	Junio	2023-10-06T00:00:00	2024-11-08T12:00:00	3	Temperatura mínima	21.8
176216	7	Sololá	712	San Antonio Palopó	9	San Antonio Palopo	6	Junio	2023-10-06T00:00:00	2024-11-08T12:00:00	5	Humedad	77
176217	7	Sololá	712	San Antonio Palopó	9	San Antonio Palopo	6	Junio	2023-10-06T00:00:00	2024-11-08T12:00:00	6	Velocidad del viento	9.7
176218	7	Sololá	712	San Antonio Palopó	9	San Antonio Palopo	6	Junio	2023-10-06T00:00:00	2024-11-08T12:00:00	7	Dirección del viento	9.66
176219	7	Sololá	712	San Antonio Palopó	9	San Antonio Palopo	6	Junio	2023-10-06T00:00:00	2024-11-08T12:00:00	1	Precipitación	0
176220	7	Sololá	712	San Antonio Palopó	9	San Antonio Palopo	6	Junio	2023-10-06T00:00:00	2024-11-08T12:00:00	8	Radiación solar	182
176221	7	Sololá	712	San Antonio Palopó	9	San Antonio Palopo	6	Junio	2023-10-06T00:00:00	2024-11-08T13:00:00	2	Temperatura media	21
176222	7	Sololá	712	San Antonio Palopó	9	San Antonio Palopo	6	Junio	2023-10-06T00:00:00	2024-11-08T13:00:00	4	Temperatura máxima	22.1
176223	7	Sololá	712	San Antonio Palopó	9	San Antonio Palopo	6	Junio	2023-10-06T00:00:00	2024-11-08T13:00:00	3	Temperatura mínima	20.8
176224	7	Sololá	712	San Antonio Palopó	9	San Antonio Palopo	6	Junio	2023-10-06T00:00:00	2024-11-08T13:00:00	5	Humedad	85
176225	7	Sololá	712	San Antonio Palopó	9	San Antonio Palopo	6	Junio	2023-10-06T00:00:00	2024-11-08T13:00:00	6	Velocidad del viento	3.2
176226	7	Sololá	712	San Antonio Palopó	9	San Antonio Palopo	6	Junio	2023-10-06T00:00:00	2024-11-08T13:00:00	7	Dirección del viento	3.22
176227	7	Sololá	712	San Antonio Palopó	9	San Antonio Palopo	6	Junio	2023-10-06T00:00:00	2024-11-08T13:00:00	1	Precipitación	2.4
176228	7	Sololá	712	San Antonio Palopó	9	San Antonio Palopo	6	Junio	2023-10-06T00:00:00	2024-11-08T13:00:00	8	Radiación solar	151
176229	7	Sololá	712	San Antonio Palopó	9	San Antonio Palopo	6	Junio	2023-10-06T00:00:00	2024-11-08T14:00:00	2	Temperatura media	22.7
176230	7	Sololá	712	San Antonio Palopó	9	San Antonio Palopo	6	Junio	2023-10-06T00:00:00	2024-11-08T14:00:00	4	Temperatura máxima	22.8
176231	7	Sololá	712	San Antonio Palopó	9	San Antonio Palopo	6	Junio	2023-10-06T00:00:00	2024-11-08T14:00:00	3	Temperatura mínima	20.9
176232	7	Sololá	712	San Antonio Palopó	9	San Antonio Palopo	6	Junio	2023-10-06T00:00:00	2024-11-08T14:00:00	5	Humedad	81
176233	7	Sololá	712	San Antonio Palopó	9	San Antonio Palopo	6	Junio	2023-10-06T00:00:00	2024-11-08T14:00:00	6	Velocidad del viento	4.8
176234	7	Sololá	712	San Antonio Palopó	9	San Antonio Palopo	6	Junio	2023-10-06T00:00:00	2024-11-08T14:00:00	7	Dirección del viento	4.83
176235	7	Sololá	712	San Antonio Palopó	9	San Antonio Palopo	6	Junio	2023-10-06T00:00:00	2024-11-08T14:00:00	1	Precipitación	0
176236	7	Sololá	712	San Antonio Palopó	9	San Antonio Palopo	6	Junio	2023-10-06T00:00:00	2024-11-08T14:00:00	8	Radiación solar	651
176237	7	Sololá	712	San Antonio Palopó	9	San Antonio Palopo	6	Junio	2023-10-06T00:00:00	2024-11-08T15:00:00	2	Temperatura media	21.7
176238	7	Sololá	712	San Antonio Palopó	9	San Antonio Palopo	6	Junio	2023-10-06T00:00:00	2024-11-08T15:00:00	4	Temperatura máxima	22.7
176239	7	Sololá	712	San Antonio Palopó	9	San Antonio Palopo	6	Junio	2023-10-06T00:00:00	2024-11-08T15:00:00	3	Temperatura mínima	20.8
176240	7	Sololá	712	San Antonio Palopó	9	San Antonio Palopo	6	Junio	2023-10-06T00:00:00	2024-11-08T15:00:00	5	Humedad	80
176241	7	Sololá	712	San Antonio Palopó	9	San Antonio Palopo	6	Junio	2023-10-06T00:00:00	2024-11-08T15:00:00	6	Velocidad del viento	8
176242	7	Sololá	712	San Antonio Palopó	9	San Antonio Palopo	6	Junio	2023-10-06T00:00:00	2024-11-08T15:00:00	7	Dirección del viento	8.05
176243	7	Sololá	712	San Antonio Palopó	9	San Antonio Palopo	6	Junio	2023-10-06T00:00:00	2024-11-08T15:00:00	1	Precipitación	0
176244	7	Sololá	712	San Antonio Palopó	9	San Antonio Palopo	6	Junio	2023-10-06T00:00:00	2024-11-08T15:00:00	8	Radiación solar	291
176245	7	Sololá	712	San Antonio Palopó	9	San Antonio Palopo	6	Junio	2023-10-06T00:00:00	2024-11-08T16:00:00	2	Temperatura media	20.2
176246	7	Sololá	712	San Antonio Palopó	9	San Antonio Palopo	6	Junio	2023-10-06T00:00:00	2024-11-08T16:00:00	4	Temperatura máxima	21.7
176247	7	Sololá	712	San Antonio Palopó	9	San Antonio Palopo	6	Junio	2023-10-06T00:00:00	2024-11-08T16:00:00	3	Temperatura mínima	20.1
176248	7	Sololá	712	San Antonio Palopó	9	San Antonio Palopo	6	Junio	2023-10-06T00:00:00	2024-11-08T16:00:00	5	Humedad	84
176249	7	Sololá	712	San Antonio Palopó	9	San Antonio Palopo	6	Junio	2023-10-06T00:00:00	2024-11-08T16:00:00	6	Velocidad del viento	4.8
176250	7	Sololá	712	San Antonio Palopó	9	San Antonio Palopo	6	Junio	2023-10-06T00:00:00	2024-11-08T16:00:00	7	Dirección del viento	4.83
176251	7	Sololá	712	San Antonio Palopó	9	San Antonio Palopo	6	Junio	2023-10-06T00:00:00	2024-11-08T16:00:00	1	Precipitación	4
176252	7	Sololá	712	San Antonio Palopó	9	San Antonio Palopo	6	Junio	2023-10-06T00:00:00	2024-11-08T16:00:00	8	Radiación solar	63
176253	7	Sololá	712	San Antonio Palopó	9	San Antonio Palopo	6	Junio	2023-10-06T00:00:00	2024-11-08T17:00:00	2	Temperatura media	20.2
176254	7	Sololá	712	San Antonio Palopó	9	San Antonio Palopo	6	Junio	2023-10-06T00:00:00	2024-11-08T17:00:00	4	Temperatura máxima	20.2
176255	7	Sololá	712	San Antonio Palopó	9	San Antonio Palopo	6	Junio	2023-10-06T00:00:00	2024-11-08T17:00:00	3	Temperatura mínima	20
176256	7	Sololá	712	San Antonio Palopó	9	San Antonio Palopo	6	Junio	2023-10-06T00:00:00	2024-11-08T17:00:00	5	Humedad	86
176257	7	Sololá	712	San Antonio Palopó	9	San Antonio Palopo	6	Junio	2023-10-06T00:00:00	2024-11-08T17:00:00	6	Velocidad del viento	1.6
176258	7	Sololá	712	San Antonio Palopó	9	San Antonio Palopo	6	Junio	2023-10-06T00:00:00	2024-11-08T17:00:00	7	Dirección del viento	1.61
176259	7	Sololá	712	San Antonio Palopó	9	San Antonio Palopo	6	Junio	2023-10-06T00:00:00	2024-11-08T17:00:00	1	Precipitación	0
176260	7	Sololá	712	San Antonio Palopó	9	San Antonio Palopo	6	Junio	2023-10-06T00:00:00	2024-11-08T17:00:00	8	Radiación solar	66
176261	7	Sololá	712	San Antonio Palopó	9	San Antonio Palopo	6	Junio	2023-10-06T00:00:00	2024-11-08T18:00:00	2	Temperatura media	19.8
176262	7	Sololá	712	San Antonio Palopó	9	San Antonio Palopo	6	Junio	2023-10-06T00:00:00	2024-11-08T18:00:00	4	Temperatura máxima	20.3
176263	7	Sololá	712	San Antonio Palopó	9	San Antonio Palopo	6	Junio	2023-10-06T00:00:00	2024-11-08T18:00:00	3	Temperatura mínima	19.8
176264	7	Sololá	712	San Antonio Palopó	9	San Antonio Palopo	6	Junio	2023-10-06T00:00:00	2024-11-08T18:00:00	5	Humedad	88
176265	7	Sololá	712	San Antonio Palopó	9	San Antonio Palopo	6	Junio	2023-10-06T00:00:00	2024-11-08T18:00:00	6	Velocidad del viento	1.6
176266	7	Sololá	712	San Antonio Palopó	9	San Antonio Palopo	6	Junio	2023-10-06T00:00:00	2024-11-08T18:00:00	7	Dirección del viento	1.61
176267	7	Sololá	712	San Antonio Palopó	9	San Antonio Palopo	6	Junio	2023-10-06T00:00:00	2024-11-08T18:00:00	1	Precipitación	0
176268	7	Sololá	712	San Antonio Palopó	9	San Antonio Palopo	6	Junio	2023-10-06T00:00:00	2024-11-08T18:00:00	8	Radiación solar	62
176269	7	Sololá	712	San Antonio Palopó	9	San Antonio Palopo	6	Junio	2023-10-06T00:00:00	2024-11-08T19:00:00	2	Temperatura media	19.3
176270	7	Sololá	712	San Antonio Palopó	9	San Antonio Palopo	6	Junio	2023-10-06T00:00:00	2024-11-08T19:00:00	4	Temperatura máxima	19.9
176271	7	Sololá	712	San Antonio Palopó	9	San Antonio Palopo	6	Junio	2023-10-06T00:00:00	2024-11-08T19:00:00	3	Temperatura mínima	19.3
176272	7	Sololá	712	San Antonio Palopó	9	San Antonio Palopo	6	Junio	2023-10-06T00:00:00	2024-11-08T19:00:00	5	Humedad	87
176273	7	Sololá	712	San Antonio Palopó	9	San Antonio Palopo	6	Junio	2023-10-06T00:00:00	2024-11-08T19:00:00	6	Velocidad del viento	3.2
176274	7	Sololá	712	San Antonio Palopó	9	San Antonio Palopo	6	Junio	2023-10-06T00:00:00	2024-11-08T19:00:00	7	Dirección del viento	3.22
176275	7	Sololá	712	San Antonio Palopó	9	San Antonio Palopo	6	Junio	2023-10-06T00:00:00	2024-11-08T19:00:00	1	Precipitación	0
176276	7	Sololá	712	San Antonio Palopó	9	San Antonio Palopo	6	Junio	2023-10-06T00:00:00	2024-11-08T19:00:00	8	Radiación solar	0
176277	7	Sololá	712	San Antonio Palopó	9	San Antonio Palopo	6	Junio	2023-10-06T00:00:00	2024-11-08T20:00:00	2	Temperatura media	19.3
176278	7	Sololá	712	San Antonio Palopó	9	San Antonio Palopo	6	Junio	2023-10-06T00:00:00	2024-11-08T20:00:00	4	Temperatura máxima	19.3
176279	7	Sololá	712	San Antonio Palopó	9	San Antonio Palopo	6	Junio	2023-10-06T00:00:00	2024-11-08T20:00:00	3	Temperatura mínima	19
176280	7	Sololá	712	San Antonio Palopó	9	San Antonio Palopo	6	Junio	2023-10-06T00:00:00	2024-11-08T20:00:00	5	Humedad	88
176281	7	Sololá	712	San Antonio Palopó	9	San Antonio Palopo	6	Junio	2023-10-06T00:00:00	2024-11-08T20:00:00	6	Velocidad del viento	3.2
176282	7	Sololá	712	San Antonio Palopó	9	San Antonio Palopo	6	Junio	2023-10-06T00:00:00	2024-11-08T20:00:00	7	Dirección del viento	3.22
176283	7	Sololá	712	San Antonio Palopó	9	San Antonio Palopo	6	Junio	2023-10-06T00:00:00	2024-11-08T20:00:00	1	Precipitación	0
176284	7	Sololá	712	San Antonio Palopó	9	San Antonio Palopo	6	Junio	2023-10-06T00:00:00	2024-11-08T20:00:00	8	Radiación solar	0
176285	7	Sololá	712	San Antonio Palopó	9	San Antonio Palopo	6	Junio	2023-10-06T00:00:00	2024-11-08T21:00:00	2	Temperatura media	18.9
176286	7	Sololá	712	San Antonio Palopó	9	San Antonio Palopo	6	Junio	2023-10-06T00:00:00	2024-11-08T21:00:00	4	Temperatura máxima	20.1
176287	7	Sololá	712	San Antonio Palopó	9	San Antonio Palopo	6	Junio	2023-10-06T00:00:00	2024-11-08T21:00:00	3	Temperatura mínima	18.9
176288	7	Sololá	712	San Antonio Palopó	9	San Antonio Palopo	6	Junio	2023-10-06T00:00:00	2024-11-08T21:00:00	5	Humedad	87
176289	7	Sololá	712	San Antonio Palopó	9	San Antonio Palopo	6	Junio	2023-10-06T00:00:00	2024-11-08T21:00:00	6	Velocidad del viento	3.2
176290	7	Sololá	712	San Antonio Palopó	9	San Antonio Palopo	6	Junio	2023-10-06T00:00:00	2024-11-08T21:00:00	7	Dirección del viento	3.22
176291	7	Sololá	712	San Antonio Palopó	9	San Antonio Palopo	6	Junio	2023-10-06T00:00:00	2024-11-08T21:00:00	1	Precipitación	0
176292	7	Sololá	712	San Antonio Palopó	9	San Antonio Palopo	6	Junio	2023-10-06T00:00:00	2024-11-08T21:00:00	8	Radiación solar	0
176293	7	Sololá	712	San Antonio Palopó	9	San Antonio Palopo	6	Junio	2023-10-06T00:00:00	2024-11-08T22:00:00	2	Temperatura media	20.5
176294	7	Sololá	712	San Antonio Palopó	9	San Antonio Palopo	6	Junio	2023-10-06T00:00:00	2024-11-08T22:00:00	4	Temperatura máxima	20.5
176295	7	Sololá	712	San Antonio Palopó	9	San Antonio Palopo	6	Junio	2023-10-06T00:00:00	2024-11-08T22:00:00	3	Temperatura mínima	18.8
176296	7	Sololá	712	San Antonio Palopó	9	San Antonio Palopo	6	Junio	2023-10-06T00:00:00	2024-11-08T22:00:00	5	Humedad	80
176297	7	Sololá	712	San Antonio Palopó	9	San Antonio Palopo	6	Junio	2023-10-06T00:00:00	2024-11-08T22:00:00	6	Velocidad del viento	4.8
176298	7	Sololá	712	San Antonio Palopó	9	San Antonio Palopo	6	Junio	2023-10-06T00:00:00	2024-11-08T22:00:00	7	Dirección del viento	4.83
176299	7	Sololá	712	San Antonio Palopó	9	San Antonio Palopo	6	Junio	2023-10-06T00:00:00	2024-11-08T22:00:00	1	Precipitación	0
176300	7	Sololá	712	San Antonio Palopó	9	San Antonio Palopo	6	Junio	2023-10-06T00:00:00	2024-11-08T22:00:00	8	Radiación solar	0
176301	7	Sololá	712	San Antonio Palopó	9	San Antonio Palopo	6	Junio	2023-10-06T00:00:00	2024-11-08T23:00:00	2	Temperatura media	20.8
176302	7	Sololá	712	San Antonio Palopó	9	San Antonio Palopo	6	Junio	2023-10-06T00:00:00	2024-11-08T23:00:00	4	Temperatura máxima	21.3
176303	7	Sololá	712	San Antonio Palopó	9	San Antonio Palopo	6	Junio	2023-10-06T00:00:00	2024-11-08T23:00:00	3	Temperatura mínima	20.5
176304	7	Sololá	712	San Antonio Palopó	9	San Antonio Palopo	6	Junio	2023-10-06T00:00:00	2024-11-08T23:00:00	5	Humedad	77
176305	7	Sololá	712	San Antonio Palopó	9	San Antonio Palopo	6	Junio	2023-10-06T00:00:00	2024-11-08T23:00:00	6	Velocidad del viento	8
176306	7	Sololá	712	San Antonio Palopó	9	San Antonio Palopo	6	Junio	2023-10-06T00:00:00	2024-11-08T23:00:00	7	Dirección del viento	8.05
176307	7	Sololá	712	San Antonio Palopó	9	San Antonio Palopo	6	Junio	2023-10-06T00:00:00	2024-11-08T23:00:00	1	Precipitación	0
176308	7	Sololá	712	San Antonio Palopó	9	San Antonio Palopo	6	Junio	2023-10-06T00:00:00	2024-11-08T23:00:00	8	Radiación solar	0
176309	7	Sololá	712	San Antonio Palopó	9	San Antonio Palopo	6	Junio	2023-11-06T00:00:00	2024-11-08T00:00:00	2	Temperatura media	20.9
176310	7	Sololá	712	San Antonio Palopó	9	San Antonio Palopo	6	Junio	2023-11-06T00:00:00	2024-11-08T00:00:00	4	Temperatura máxima	21.2
176311	7	Sololá	712	San Antonio Palopó	9	San Antonio Palopo	6	Junio	2023-11-06T00:00:00	2024-11-08T00:00:00	3	Temperatura mínima	20.9
176312	7	Sololá	712	San Antonio Palopó	9	San Antonio Palopo	6	Junio	2023-11-06T00:00:00	2024-11-08T00:00:00	5	Humedad	76
176313	7	Sololá	712	San Antonio Palopó	9	San Antonio Palopo	6	Junio	2023-11-06T00:00:00	2024-11-08T00:00:00	6	Velocidad del viento	8
176314	7	Sololá	712	San Antonio Palopó	9	San Antonio Palopo	6	Junio	2023-11-06T00:00:00	2024-11-08T00:00:00	7	Dirección del viento	8.05
176315	7	Sololá	712	San Antonio Palopó	9	San Antonio Palopo	6	Junio	2023-11-06T00:00:00	2024-11-08T00:00:00	1	Precipitación	0
176316	7	Sololá	712	San Antonio Palopó	9	San Antonio Palopo	6	Junio	2023-11-06T00:00:00	2024-11-08T00:00:00	8	Radiación solar	0
176317	7	Sololá	712	San Antonio Palopó	9	San Antonio Palopo	6	Junio	2023-11-06T00:00:00	2024-11-08T01:00:00	2	Temperatura media	20.4
176318	7	Sololá	712	San Antonio Palopó	9	San Antonio Palopo	6	Junio	2023-11-06T00:00:00	2024-11-08T01:00:00	4	Temperatura máxima	20.9
176319	7	Sololá	712	San Antonio Palopó	9	San Antonio Palopo	6	Junio	2023-11-06T00:00:00	2024-11-08T01:00:00	3	Temperatura mínima	19.9
176320	7	Sololá	712	San Antonio Palopó	9	San Antonio Palopo	6	Junio	2023-11-06T00:00:00	2024-11-08T01:00:00	5	Humedad	74
176321	7	Sololá	712	San Antonio Palopó	9	San Antonio Palopo	6	Junio	2023-11-06T00:00:00	2024-11-08T01:00:00	6	Velocidad del viento	6.4
176322	7	Sololá	712	San Antonio Palopó	9	San Antonio Palopo	6	Junio	2023-11-06T00:00:00	2024-11-08T01:00:00	7	Dirección del viento	6.44
176323	7	Sololá	712	San Antonio Palopó	9	San Antonio Palopo	6	Junio	2023-11-06T00:00:00	2024-11-08T01:00:00	1	Precipitación	0
176324	7	Sololá	712	San Antonio Palopó	9	San Antonio Palopo	6	Junio	2023-11-06T00:00:00	2024-11-08T01:00:00	8	Radiación solar	0
176325	7	Sololá	712	San Antonio Palopó	9	San Antonio Palopo	6	Junio	2023-11-06T00:00:00	2024-11-08T02:00:00	2	Temperatura media	19.3
176326	7	Sololá	712	San Antonio Palopó	9	San Antonio Palopo	6	Junio	2023-11-06T00:00:00	2024-11-08T02:00:00	4	Temperatura máxima	20.5
176327	7	Sololá	712	San Antonio Palopó	9	San Antonio Palopo	6	Junio	2023-11-06T00:00:00	2024-11-08T02:00:00	3	Temperatura mínima	19.3
176328	7	Sololá	712	San Antonio Palopó	9	San Antonio Palopo	6	Junio	2023-11-06T00:00:00	2024-11-08T02:00:00	5	Humedad	78
176329	7	Sololá	712	San Antonio Palopó	9	San Antonio Palopo	6	Junio	2023-11-06T00:00:00	2024-11-08T02:00:00	6	Velocidad del viento	4.8
176330	7	Sololá	712	San Antonio Palopó	9	San Antonio Palopo	6	Junio	2023-11-06T00:00:00	2024-11-08T02:00:00	7	Dirección del viento	4.83
176331	7	Sololá	712	San Antonio Palopó	9	San Antonio Palopo	6	Junio	2023-11-06T00:00:00	2024-11-08T02:00:00	1	Precipitación	0
176332	7	Sololá	712	San Antonio Palopó	9	San Antonio Palopo	6	Junio	2023-11-06T00:00:00	2024-11-08T02:00:00	8	Radiación solar	0
176333	7	Sololá	712	San Antonio Palopó	9	San Antonio Palopo	6	Junio	2023-11-06T00:00:00	2024-11-08T03:00:00	2	Temperatura media	18.7
176334	7	Sololá	712	San Antonio Palopó	9	San Antonio Palopo	6	Junio	2023-11-06T00:00:00	2024-11-08T03:00:00	4	Temperatura máxima	19.4
176335	7	Sololá	712	San Antonio Palopó	9	San Antonio Palopo	6	Junio	2023-11-06T00:00:00	2024-11-08T03:00:00	3	Temperatura mínima	18.6
176336	7	Sololá	712	San Antonio Palopó	9	San Antonio Palopo	6	Junio	2023-11-06T00:00:00	2024-11-08T03:00:00	5	Humedad	82
176337	7	Sololá	712	San Antonio Palopó	9	San Antonio Palopo	6	Junio	2023-11-06T00:00:00	2024-11-08T03:00:00	6	Velocidad del viento	3.2
176338	7	Sololá	712	San Antonio Palopó	9	San Antonio Palopo	6	Junio	2023-11-06T00:00:00	2024-11-08T03:00:00	7	Dirección del viento	3.22
176339	7	Sololá	712	San Antonio Palopó	9	San Antonio Palopo	6	Junio	2023-11-06T00:00:00	2024-11-08T03:00:00	1	Precipitación	0
176340	7	Sololá	712	San Antonio Palopó	9	San Antonio Palopo	6	Junio	2023-11-06T00:00:00	2024-11-08T03:00:00	8	Radiación solar	0
176341	7	Sololá	712	San Antonio Palopó	9	San Antonio Palopo	6	Junio	2023-11-06T00:00:00	2024-11-08T04:00:00	2	Temperatura media	17.8
176342	7	Sololá	712	San Antonio Palopó	9	San Antonio Palopo	6	Junio	2023-11-06T00:00:00	2024-11-08T04:00:00	4	Temperatura máxima	18.9
176343	7	Sololá	712	San Antonio Palopó	9	San Antonio Palopo	6	Junio	2023-11-06T00:00:00	2024-11-08T04:00:00	3	Temperatura mínima	17.7
176344	7	Sololá	712	San Antonio Palopó	9	San Antonio Palopo	6	Junio	2023-11-06T00:00:00	2024-11-08T04:00:00	5	Humedad	83
176345	7	Sololá	712	San Antonio Palopó	9	San Antonio Palopo	6	Junio	2023-11-06T00:00:00	2024-11-08T04:00:00	6	Velocidad del viento	4.8
176346	7	Sololá	712	San Antonio Palopó	9	San Antonio Palopo	6	Junio	2023-11-06T00:00:00	2024-11-08T04:00:00	7	Dirección del viento	4.83
176347	7	Sololá	712	San Antonio Palopó	9	San Antonio Palopo	6	Junio	2023-11-06T00:00:00	2024-11-08T04:00:00	1	Precipitación	0
176348	7	Sololá	712	San Antonio Palopó	9	San Antonio Palopo	6	Junio	2023-11-06T00:00:00	2024-11-08T04:00:00	8	Radiación solar	0
176349	7	Sololá	712	San Antonio Palopó	9	San Antonio Palopo	6	Junio	2023-11-06T00:00:00	2024-11-08T05:00:00	2	Temperatura media	17.8
176350	7	Sololá	712	San Antonio Palopó	9	San Antonio Palopo	6	Junio	2023-11-06T00:00:00	2024-11-08T05:00:00	4	Temperatura máxima	17.8
176351	7	Sololá	712	San Antonio Palopó	9	San Antonio Palopo	6	Junio	2023-11-06T00:00:00	2024-11-08T05:00:00	3	Temperatura mínima	17.4
176352	7	Sololá	712	San Antonio Palopó	9	San Antonio Palopo	6	Junio	2023-11-06T00:00:00	2024-11-08T05:00:00	5	Humedad	80
176353	7	Sololá	712	San Antonio Palopó	9	San Antonio Palopo	6	Junio	2023-11-06T00:00:00	2024-11-08T05:00:00	6	Velocidad del viento	4.8
176354	7	Sololá	712	San Antonio Palopó	9	San Antonio Palopo	6	Junio	2023-11-06T00:00:00	2024-11-08T05:00:00	7	Dirección del viento	4.83
176355	7	Sololá	712	San Antonio Palopó	9	San Antonio Palopo	6	Junio	2023-11-06T00:00:00	2024-11-08T05:00:00	1	Precipitación	0
176356	7	Sololá	712	San Antonio Palopó	9	San Antonio Palopo	6	Junio	2023-11-06T00:00:00	2024-11-08T05:00:00	8	Radiación solar	0
176357	7	Sololá	712	San Antonio Palopó	9	San Antonio Palopo	6	Junio	2023-11-06T00:00:00	2024-11-08T06:00:00	2	Temperatura media	18.1
176358	7	Sololá	712	San Antonio Palopó	9	San Antonio Palopo	6	Junio	2023-11-06T00:00:00	2024-11-08T06:00:00	4	Temperatura máxima	18.3
176359	7	Sololá	712	San Antonio Palopó	9	San Antonio Palopo	6	Junio	2023-11-06T00:00:00	2024-11-08T06:00:00	3	Temperatura mínima	17.9
176360	7	Sololá	712	San Antonio Palopó	9	San Antonio Palopo	6	Junio	2023-11-06T00:00:00	2024-11-08T06:00:00	5	Humedad	73
176361	7	Sololá	712	San Antonio Palopó	9	San Antonio Palopo	6	Junio	2023-11-06T00:00:00	2024-11-08T06:00:00	6	Velocidad del viento	4.8
176362	7	Sololá	712	San Antonio Palopó	9	San Antonio Palopo	6	Junio	2023-11-06T00:00:00	2024-11-08T06:00:00	7	Dirección del viento	4.83
176363	7	Sololá	712	San Antonio Palopó	9	San Antonio Palopo	6	Junio	2023-11-06T00:00:00	2024-11-08T06:00:00	1	Precipitación	0
176364	7	Sololá	712	San Antonio Palopó	9	San Antonio Palopo	6	Junio	2023-11-06T00:00:00	2024-11-08T06:00:00	8	Radiación solar	5
176365	7	Sololá	712	San Antonio Palopó	9	San Antonio Palopo	6	Junio	2023-11-06T00:00:00	2024-11-08T07:00:00	2	Temperatura media	19.4
176366	7	Sololá	712	San Antonio Palopó	9	San Antonio Palopo	6	Junio	2023-11-06T00:00:00	2024-11-08T07:00:00	4	Temperatura máxima	19.4
176367	7	Sololá	712	San Antonio Palopó	9	San Antonio Palopo	6	Junio	2023-11-06T00:00:00	2024-11-08T07:00:00	3	Temperatura mínima	18.1
176368	7	Sololá	712	San Antonio Palopó	9	San Antonio Palopo	6	Junio	2023-11-06T00:00:00	2024-11-08T07:00:00	5	Humedad	72
176369	7	Sololá	712	San Antonio Palopó	9	San Antonio Palopo	6	Junio	2023-11-06T00:00:00	2024-11-08T07:00:00	6	Velocidad del viento	6.4
176370	7	Sololá	712	San Antonio Palopó	9	San Antonio Palopo	6	Junio	2023-11-06T00:00:00	2024-11-08T07:00:00	7	Dirección del viento	6.44
176371	7	Sololá	712	San Antonio Palopó	9	San Antonio Palopo	6	Junio	2023-11-06T00:00:00	2024-11-08T07:00:00	1	Precipitación	0
176372	7	Sololá	712	San Antonio Palopó	9	San Antonio Palopo	6	Junio	2023-11-06T00:00:00	2024-11-08T07:00:00	8	Radiación solar	59
176373	7	Sololá	712	San Antonio Palopó	9	San Antonio Palopo	6	Junio	2023-11-06T00:00:00	2024-11-08T08:00:00	2	Temperatura media	20.8
176374	7	Sololá	712	San Antonio Palopó	9	San Antonio Palopo	6	Junio	2023-11-06T00:00:00	2024-11-08T08:00:00	4	Temperatura máxima	20.8
176375	7	Sololá	712	San Antonio Palopó	9	San Antonio Palopo	6	Junio	2023-11-06T00:00:00	2024-11-08T08:00:00	3	Temperatura mínima	19.4
176376	7	Sololá	712	San Antonio Palopó	9	San Antonio Palopo	6	Junio	2023-11-06T00:00:00	2024-11-08T08:00:00	5	Humedad	75
176377	7	Sololá	712	San Antonio Palopó	9	San Antonio Palopo	6	Junio	2023-11-06T00:00:00	2024-11-08T08:00:00	6	Velocidad del viento	1.6
176378	7	Sololá	712	San Antonio Palopó	9	San Antonio Palopo	6	Junio	2023-11-06T00:00:00	2024-11-08T08:00:00	7	Dirección del viento	1.61
176379	7	Sololá	712	San Antonio Palopó	9	San Antonio Palopo	6	Junio	2023-11-06T00:00:00	2024-11-08T08:00:00	1	Precipitación	0
176380	7	Sololá	712	San Antonio Palopó	9	San Antonio Palopo	6	Junio	2023-11-06T00:00:00	2024-11-08T08:00:00	8	Radiación solar	208
176381	7	Sololá	712	San Antonio Palopó	9	San Antonio Palopo	6	Junio	2023-11-06T00:00:00	2024-11-08T09:00:00	2	Temperatura media	21.3
176382	7	Sololá	712	San Antonio Palopó	9	San Antonio Palopo	6	Junio	2023-11-06T00:00:00	2024-11-08T09:00:00	4	Temperatura máxima	21.4
176383	7	Sololá	712	San Antonio Palopó	9	San Antonio Palopo	6	Junio	2023-11-06T00:00:00	2024-11-08T09:00:00	3	Temperatura mínima	20.8
176384	7	Sololá	712	San Antonio Palopó	9	San Antonio Palopo	6	Junio	2023-11-06T00:00:00	2024-11-08T09:00:00	5	Humedad	76
176385	7	Sololá	712	San Antonio Palopó	9	San Antonio Palopo	6	Junio	2023-11-06T00:00:00	2024-11-08T09:00:00	6	Velocidad del viento	3.2
176386	7	Sololá	712	San Antonio Palopó	9	San Antonio Palopo	6	Junio	2023-11-06T00:00:00	2024-11-08T09:00:00	7	Dirección del viento	3.22
176387	7	Sololá	712	San Antonio Palopó	9	San Antonio Palopo	6	Junio	2023-11-06T00:00:00	2024-11-08T09:00:00	1	Precipitación	0
176388	7	Sololá	712	San Antonio Palopó	9	San Antonio Palopo	6	Junio	2023-11-06T00:00:00	2024-11-08T09:00:00	8	Radiación solar	499
176389	7	Sololá	712	San Antonio Palopó	9	San Antonio Palopo	6	Junio	2023-11-06T00:00:00	2024-11-08T10:00:00	2	Temperatura media	21.8
176390	7	Sololá	712	San Antonio Palopó	9	San Antonio Palopo	6	Junio	2023-11-06T00:00:00	2024-11-08T10:00:00	4	Temperatura máxima	21.9
176391	7	Sololá	712	San Antonio Palopó	9	San Antonio Palopo	6	Junio	2023-11-06T00:00:00	2024-11-08T10:00:00	3	Temperatura mínima	21.3
176392	7	Sololá	712	San Antonio Palopó	9	San Antonio Palopo	6	Junio	2023-11-06T00:00:00	2024-11-08T10:00:00	5	Humedad	75
176393	7	Sololá	712	San Antonio Palopó	9	San Antonio Palopo	6	Junio	2023-11-06T00:00:00	2024-11-08T10:00:00	6	Velocidad del viento	3.2
176394	7	Sololá	712	San Antonio Palopó	9	San Antonio Palopo	6	Junio	2023-11-06T00:00:00	2024-11-08T10:00:00	7	Dirección del viento	3.22
176395	7	Sololá	712	San Antonio Palopó	9	San Antonio Palopo	6	Junio	2023-11-06T00:00:00	2024-11-08T10:00:00	1	Precipitación	0
176396	7	Sololá	712	San Antonio Palopó	9	San Antonio Palopo	6	Junio	2023-11-06T00:00:00	2024-11-08T10:00:00	8	Radiación solar	626
176397	7	Sololá	712	San Antonio Palopó	9	San Antonio Palopo	6	Junio	2023-11-06T00:00:00	2024-11-08T11:00:00	2	Temperatura media	22.6
176398	7	Sololá	712	San Antonio Palopó	9	San Antonio Palopo	6	Junio	2023-11-06T00:00:00	2024-11-08T11:00:00	4	Temperatura máxima	22.8
176399	7	Sololá	712	San Antonio Palopó	9	San Antonio Palopo	6	Junio	2023-11-06T00:00:00	2024-11-08T11:00:00	3	Temperatura mínima	21.8
176400	7	Sololá	712	San Antonio Palopó	9	San Antonio Palopo	6	Junio	2023-11-06T00:00:00	2024-11-08T11:00:00	5	Humedad	76
176401	7	Sololá	712	San Antonio Palopó	9	San Antonio Palopo	6	Junio	2023-11-06T00:00:00	2024-11-08T11:00:00	6	Velocidad del viento	4.8
176402	7	Sololá	712	San Antonio Palopó	9	San Antonio Palopo	6	Junio	2023-11-06T00:00:00	2024-11-08T11:00:00	7	Dirección del viento	4.83
176403	7	Sololá	712	San Antonio Palopó	9	San Antonio Palopo	6	Junio	2023-11-06T00:00:00	2024-11-08T11:00:00	1	Precipitación	0
176404	7	Sololá	712	San Antonio Palopó	9	San Antonio Palopo	6	Junio	2023-11-06T00:00:00	2024-11-08T11:00:00	8	Radiación solar	863
176405	7	Sololá	712	San Antonio Palopó	9	San Antonio Palopo	6	Junio	2023-11-06T00:00:00	2024-11-08T12:00:00	2	Temperatura media	24.3
176406	7	Sololá	712	San Antonio Palopó	9	San Antonio Palopo	6	Junio	2023-11-06T00:00:00	2024-11-08T12:00:00	4	Temperatura máxima	24.3
176407	7	Sololá	712	San Antonio Palopó	9	San Antonio Palopo	6	Junio	2023-11-06T00:00:00	2024-11-08T12:00:00	3	Temperatura mínima	22.5
176408	7	Sololá	712	San Antonio Palopó	9	San Antonio Palopo	6	Junio	2023-11-06T00:00:00	2024-11-08T12:00:00	5	Humedad	72
176409	7	Sololá	712	San Antonio Palopó	9	San Antonio Palopo	6	Junio	2023-11-06T00:00:00	2024-11-08T12:00:00	6	Velocidad del viento	6.4
176410	7	Sololá	712	San Antonio Palopó	9	San Antonio Palopo	6	Junio	2023-11-06T00:00:00	2024-11-08T12:00:00	7	Dirección del viento	6.44
176411	7	Sololá	712	San Antonio Palopó	9	San Antonio Palopo	6	Junio	2023-11-06T00:00:00	2024-11-08T12:00:00	1	Precipitación	0
176412	7	Sololá	712	San Antonio Palopó	9	San Antonio Palopo	6	Junio	2023-11-06T00:00:00	2024-11-08T12:00:00	8	Radiación solar	961
176413	7	Sololá	712	San Antonio Palopó	9	San Antonio Palopo	6	Junio	2023-11-06T00:00:00	2024-11-08T13:00:00	2	Temperatura media	24.6
176414	7	Sololá	712	San Antonio Palopó	9	San Antonio Palopo	6	Junio	2023-11-06T00:00:00	2024-11-08T13:00:00	4	Temperatura máxima	25.1
176415	7	Sololá	712	San Antonio Palopó	9	San Antonio Palopo	6	Junio	2023-11-06T00:00:00	2024-11-08T13:00:00	3	Temperatura mínima	23.8
176416	7	Sololá	712	San Antonio Palopó	9	San Antonio Palopo	6	Junio	2023-11-06T00:00:00	2024-11-08T13:00:00	5	Humedad	74
176417	7	Sololá	712	San Antonio Palopó	9	San Antonio Palopo	6	Junio	2023-11-06T00:00:00	2024-11-08T13:00:00	6	Velocidad del viento	6.4
176418	7	Sololá	712	San Antonio Palopó	9	San Antonio Palopo	6	Junio	2023-11-06T00:00:00	2024-11-08T13:00:00	7	Dirección del viento	6.44
176419	7	Sololá	712	San Antonio Palopó	9	San Antonio Palopo	6	Junio	2023-11-06T00:00:00	2024-11-08T13:00:00	1	Precipitación	0
176420	7	Sololá	712	San Antonio Palopó	9	San Antonio Palopo	6	Junio	2023-11-06T00:00:00	2024-11-08T13:00:00	8	Radiación solar	875
176421	7	Sololá	712	San Antonio Palopó	9	San Antonio Palopo	6	Junio	2023-11-06T00:00:00	2024-11-08T14:00:00	2	Temperatura media	24.8
176422	7	Sololá	712	San Antonio Palopó	9	San Antonio Palopo	6	Junio	2023-11-06T00:00:00	2024-11-08T14:00:00	4	Temperatura máxima	25.7
176423	7	Sololá	712	San Antonio Palopó	9	San Antonio Palopo	6	Junio	2023-11-06T00:00:00	2024-11-08T14:00:00	3	Temperatura mínima	24.4
176424	7	Sololá	712	San Antonio Palopó	9	San Antonio Palopo	6	Junio	2023-11-06T00:00:00	2024-11-08T14:00:00	5	Humedad	73
176425	7	Sololá	712	San Antonio Palopó	9	San Antonio Palopo	6	Junio	2023-11-06T00:00:00	2024-11-08T14:00:00	6	Velocidad del viento	6.4
176426	7	Sololá	712	San Antonio Palopó	9	San Antonio Palopo	6	Junio	2023-11-06T00:00:00	2024-11-08T14:00:00	7	Dirección del viento	6.44
176427	7	Sololá	712	San Antonio Palopó	9	San Antonio Palopo	6	Junio	2023-11-06T00:00:00	2024-11-08T14:00:00	1	Precipitación	0
176428	7	Sololá	712	San Antonio Palopó	9	San Antonio Palopo	6	Junio	2023-11-06T00:00:00	2024-11-08T14:00:00	8	Radiación solar	912
176429	7	Sololá	712	San Antonio Palopó	9	San Antonio Palopo	6	Junio	2023-11-06T00:00:00	2024-11-08T15:00:00	2	Temperatura media	26.2
176430	7	Sololá	712	San Antonio Palopó	9	San Antonio Palopo	6	Junio	2023-11-06T00:00:00	2024-11-08T15:00:00	4	Temperatura máxima	26.2
176431	7	Sololá	712	San Antonio Palopó	9	San Antonio Palopo	6	Junio	2023-11-06T00:00:00	2024-11-08T15:00:00	3	Temperatura mínima	24.5
176432	7	Sololá	712	San Antonio Palopó	9	San Antonio Palopo	6	Junio	2023-11-06T00:00:00	2024-11-08T15:00:00	5	Humedad	69
176433	7	Sololá	712	San Antonio Palopó	9	San Antonio Palopo	6	Junio	2023-11-06T00:00:00	2024-11-08T15:00:00	6	Velocidad del viento	6.4
176434	7	Sololá	712	San Antonio Palopó	9	San Antonio Palopo	6	Junio	2023-11-06T00:00:00	2024-11-08T15:00:00	7	Dirección del viento	6.44
176435	7	Sololá	712	San Antonio Palopó	9	San Antonio Palopo	6	Junio	2023-11-06T00:00:00	2024-11-08T15:00:00	1	Precipitación	0
176436	7	Sololá	712	San Antonio Palopó	9	San Antonio Palopo	6	Junio	2023-11-06T00:00:00	2024-11-08T15:00:00	8	Radiación solar	795
176437	7	Sololá	712	San Antonio Palopó	9	San Antonio Palopo	6	Junio	2023-11-06T00:00:00	2024-11-08T16:00:00	2	Temperatura media	24.3
176438	7	Sololá	712	San Antonio Palopó	9	San Antonio Palopo	6	Junio	2023-11-06T00:00:00	2024-11-08T16:00:00	4	Temperatura máxima	26.4
176439	7	Sololá	712	San Antonio Palopó	9	San Antonio Palopo	6	Junio	2023-11-06T00:00:00	2024-11-08T16:00:00	3	Temperatura mínima	24.3
176440	7	Sololá	712	San Antonio Palopó	9	San Antonio Palopo	6	Junio	2023-11-06T00:00:00	2024-11-08T16:00:00	5	Humedad	75
176441	7	Sololá	712	San Antonio Palopó	9	San Antonio Palopo	6	Junio	2023-11-06T00:00:00	2024-11-08T16:00:00	6	Velocidad del viento	6.4
176442	7	Sololá	712	San Antonio Palopó	9	San Antonio Palopo	6	Junio	2023-11-06T00:00:00	2024-11-08T16:00:00	7	Dirección del viento	6.44
176443	7	Sololá	712	San Antonio Palopó	9	San Antonio Palopo	6	Junio	2023-11-06T00:00:00	2024-11-08T16:00:00	1	Precipitación	0
176444	7	Sololá	712	San Antonio Palopó	9	San Antonio Palopo	6	Junio	2023-11-06T00:00:00	2024-11-08T16:00:00	8	Radiación solar	529
176445	7	Sololá	712	San Antonio Palopó	9	San Antonio Palopo	6	Junio	2023-11-06T00:00:00	2024-11-08T17:00:00	2	Temperatura media	24.1
176446	7	Sololá	712	San Antonio Palopó	9	San Antonio Palopo	6	Junio	2023-11-06T00:00:00	2024-11-08T17:00:00	4	Temperatura máxima	24.4
176447	7	Sololá	712	San Antonio Palopó	9	San Antonio Palopo	6	Junio	2023-11-06T00:00:00	2024-11-08T17:00:00	3	Temperatura mínima	23.8
176448	7	Sololá	712	San Antonio Palopó	9	San Antonio Palopo	6	Junio	2023-11-06T00:00:00	2024-11-08T17:00:00	5	Humedad	75
176449	7	Sololá	712	San Antonio Palopó	9	San Antonio Palopo	6	Junio	2023-11-06T00:00:00	2024-11-08T17:00:00	6	Velocidad del viento	4.8
176450	7	Sololá	712	San Antonio Palopó	9	San Antonio Palopo	6	Junio	2023-11-06T00:00:00	2024-11-08T17:00:00	7	Dirección del viento	4.83
176451	7	Sololá	712	San Antonio Palopó	9	San Antonio Palopo	6	Junio	2023-11-06T00:00:00	2024-11-08T17:00:00	1	Precipitación	0
176452	7	Sololá	712	San Antonio Palopó	9	San Antonio Palopo	6	Junio	2023-11-06T00:00:00	2024-11-08T17:00:00	8	Radiación solar	246
176453	7	Sololá	712	San Antonio Palopó	9	San Antonio Palopo	6	Junio	2023-11-06T00:00:00	2024-11-08T18:00:00	2	Temperatura media	23.2
176454	7	Sololá	712	San Antonio Palopó	9	San Antonio Palopo	6	Junio	2023-11-06T00:00:00	2024-11-08T18:00:00	4	Temperatura máxima	24.1
176455	7	Sololá	712	San Antonio Palopó	9	San Antonio Palopo	6	Junio	2023-11-06T00:00:00	2024-11-08T18:00:00	3	Temperatura mínima	23.1
176456	7	Sololá	712	San Antonio Palopó	9	San Antonio Palopo	6	Junio	2023-11-06T00:00:00	2024-11-08T18:00:00	5	Humedad	79
176457	7	Sololá	712	San Antonio Palopó	9	San Antonio Palopo	6	Junio	2023-11-06T00:00:00	2024-11-08T18:00:00	6	Velocidad del viento	4.8
176458	7	Sololá	712	San Antonio Palopó	9	San Antonio Palopo	6	Junio	2023-11-06T00:00:00	2024-11-08T18:00:00	7	Dirección del viento	4.83
176459	7	Sololá	712	San Antonio Palopó	9	San Antonio Palopo	6	Junio	2023-11-06T00:00:00	2024-11-08T18:00:00	1	Precipitación	0
176460	7	Sololá	712	San Antonio Palopó	9	San Antonio Palopo	6	Junio	2023-11-06T00:00:00	2024-11-08T18:00:00	8	Radiación solar	113
176461	7	Sololá	712	San Antonio Palopó	9	San Antonio Palopo	6	Junio	2023-11-06T00:00:00	2024-11-08T19:00:00	2	Temperatura media	22.6
176462	7	Sololá	712	San Antonio Palopó	9	San Antonio Palopo	6	Junio	2023-11-06T00:00:00	2024-11-08T19:00:00	4	Temperatura máxima	23.2
176463	7	Sololá	712	San Antonio Palopó	9	San Antonio Palopo	6	Junio	2023-11-06T00:00:00	2024-11-08T19:00:00	3	Temperatura mínima	22.6
176464	7	Sololá	712	San Antonio Palopó	9	San Antonio Palopo	6	Junio	2023-11-06T00:00:00	2024-11-08T19:00:00	5	Humedad	79
176465	7	Sololá	712	San Antonio Palopó	9	San Antonio Palopo	6	Junio	2023-11-06T00:00:00	2024-11-08T19:00:00	6	Velocidad del viento	1.6
176466	7	Sololá	712	San Antonio Palopó	9	San Antonio Palopo	6	Junio	2023-11-06T00:00:00	2024-11-08T19:00:00	7	Dirección del viento	1.61
176467	7	Sololá	712	San Antonio Palopó	9	San Antonio Palopo	6	Junio	2023-11-06T00:00:00	2024-11-08T19:00:00	1	Precipitación	0
176468	7	Sololá	712	San Antonio Palopó	9	San Antonio Palopo	6	Junio	2023-11-06T00:00:00	2024-11-08T19:00:00	8	Radiación solar	0
176469	7	Sololá	712	San Antonio Palopó	9	San Antonio Palopo	6	Junio	2023-11-06T00:00:00	2024-11-08T20:00:00	2	Temperatura media	21.9
176470	7	Sololá	712	San Antonio Palopó	9	San Antonio Palopo	6	Junio	2023-11-06T00:00:00	2024-11-08T20:00:00	4	Temperatura máxima	22.6
176471	7	Sololá	712	San Antonio Palopó	9	San Antonio Palopo	6	Junio	2023-11-06T00:00:00	2024-11-08T20:00:00	3	Temperatura mínima	21.7
176472	7	Sololá	712	San Antonio Palopó	9	San Antonio Palopo	6	Junio	2023-11-06T00:00:00	2024-11-08T20:00:00	5	Humedad	81
176473	7	Sololá	712	San Antonio Palopó	9	San Antonio Palopo	6	Junio	2023-11-06T00:00:00	2024-11-08T20:00:00	6	Velocidad del viento	1.6
176474	7	Sololá	712	San Antonio Palopó	9	San Antonio Palopo	6	Junio	2023-11-06T00:00:00	2024-11-08T20:00:00	7	Dirección del viento	1.61
176475	7	Sololá	712	San Antonio Palopó	9	San Antonio Palopo	6	Junio	2023-11-06T00:00:00	2024-11-08T20:00:00	1	Precipitación	0
176476	7	Sololá	712	San Antonio Palopó	9	San Antonio Palopo	6	Junio	2023-11-06T00:00:00	2024-11-08T20:00:00	8	Radiación solar	0
176477	7	Sololá	712	San Antonio Palopó	9	San Antonio Palopo	6	Junio	2023-11-06T00:00:00	2024-11-08T21:00:00	2	Temperatura media	21.6
176478	7	Sololá	712	San Antonio Palopó	9	San Antonio Palopo	6	Junio	2023-11-06T00:00:00	2024-11-08T21:00:00	4	Temperatura máxima	21.9
176479	7	Sololá	712	San Antonio Palopó	9	San Antonio Palopo	6	Junio	2023-11-06T00:00:00	2024-11-08T21:00:00	3	Temperatura mínima	21.6
176480	7	Sololá	712	San Antonio Palopó	9	San Antonio Palopo	6	Junio	2023-11-06T00:00:00	2024-11-08T21:00:00	5	Humedad	83
176481	7	Sololá	712	San Antonio Palopó	9	San Antonio Palopo	6	Junio	2023-11-06T00:00:00	2024-11-08T21:00:00	6	Velocidad del viento	1.6
176482	7	Sololá	712	San Antonio Palopó	9	San Antonio Palopo	6	Junio	2023-11-06T00:00:00	2024-11-08T21:00:00	7	Dirección del viento	1.61
176483	7	Sololá	712	San Antonio Palopó	9	San Antonio Palopo	6	Junio	2023-11-06T00:00:00	2024-11-08T21:00:00	1	Precipitación	0
176484	7	Sololá	712	San Antonio Palopó	9	San Antonio Palopo	6	Junio	2023-11-06T00:00:00	2024-11-08T21:00:00	8	Radiación solar	0
176485	7	Sololá	712	San Antonio Palopó	9	San Antonio Palopo	6	Junio	2023-11-06T00:00:00	2024-11-08T22:00:00	2	Temperatura media	20.9
176486	7	Sololá	712	San Antonio Palopó	9	San Antonio Palopo	6	Junio	2023-11-06T00:00:00	2024-11-08T22:00:00	4	Temperatura máxima	21.6
176487	7	Sololá	712	San Antonio Palopó	9	San Antonio Palopo	6	Junio	2023-11-06T00:00:00	2024-11-08T22:00:00	3	Temperatura mínima	20.9
176488	7	Sololá	712	San Antonio Palopó	9	San Antonio Palopo	6	Junio	2023-11-06T00:00:00	2024-11-08T22:00:00	5	Humedad	82
176489	7	Sololá	712	San Antonio Palopó	9	San Antonio Palopo	6	Junio	2023-11-06T00:00:00	2024-11-08T22:00:00	6	Velocidad del viento	1.6
176490	7	Sololá	712	San Antonio Palopó	9	San Antonio Palopo	6	Junio	2023-11-06T00:00:00	2024-11-08T22:00:00	7	Dirección del viento	1.61
176491	7	Sololá	712	San Antonio Palopó	9	San Antonio Palopo	6	Junio	2023-11-06T00:00:00	2024-11-08T22:00:00	1	Precipitación	0
176492	7	Sololá	712	San Antonio Palopó	9	San Antonio Palopo	6	Junio	2023-11-06T00:00:00	2024-11-08T22:00:00	8	Radiación solar	0
176493	7	Sololá	712	San Antonio Palopó	9	San Antonio Palopo	6	Junio	2023-11-06T00:00:00	2024-11-08T23:00:00	2	Temperatura media	20.8
176494	7	Sololá	712	San Antonio Palopó	9	San Antonio Palopo	6	Junio	2023-11-06T00:00:00	2024-11-08T23:00:00	4	Temperatura máxima	21.1
176495	7	Sololá	712	San Antonio Palopó	9	San Antonio Palopo	6	Junio	2023-11-06T00:00:00	2024-11-08T23:00:00	3	Temperatura mínima	20.6
176496	7	Sololá	712	San Antonio Palopó	9	San Antonio Palopo	6	Junio	2023-11-06T00:00:00	2024-11-08T23:00:00	5	Humedad	81
176497	7	Sololá	712	San Antonio Palopó	9	San Antonio Palopo	6	Junio	2023-11-06T00:00:00	2024-11-08T23:00:00	6	Velocidad del viento	3.2
176498	7	Sololá	712	San Antonio Palopó	9	San Antonio Palopo	6	Junio	2023-11-06T00:00:00	2024-11-08T23:00:00	7	Dirección del viento	3.22
176499	7	Sololá	712	San Antonio Palopó	9	San Antonio Palopo	6	Junio	2023-11-06T00:00:00	2024-11-08T23:00:00	1	Precipitación	0
176500	7	Sololá	712	San Antonio Palopó	9	San Antonio Palopo	6	Junio	2023-11-06T00:00:00	2024-11-08T23:00:00	8	Radiación solar	0
176501	7	Sololá	712	San Antonio Palopó	9	San Antonio Palopo	6	Junio	2023-12-06T00:00:00	2024-11-08T00:00:00	2	Temperatura media	19.7
176502	7	Sololá	712	San Antonio Palopó	9	San Antonio Palopo	6	Junio	2023-12-06T00:00:00	2024-11-08T00:00:00	4	Temperatura máxima	20.8
176503	7	Sololá	712	San Antonio Palopó	9	San Antonio Palopo	6	Junio	2023-12-06T00:00:00	2024-11-08T00:00:00	3	Temperatura mínima	19.7
176504	7	Sololá	712	San Antonio Palopó	9	San Antonio Palopo	6	Junio	2023-12-06T00:00:00	2024-11-08T00:00:00	5	Humedad	82
176505	7	Sololá	712	San Antonio Palopó	9	San Antonio Palopo	6	Junio	2023-12-06T00:00:00	2024-11-08T00:00:00	6	Velocidad del viento	3.2
176506	7	Sololá	712	San Antonio Palopó	9	San Antonio Palopo	6	Junio	2023-12-06T00:00:00	2024-11-08T00:00:00	7	Dirección del viento	3.22
176507	7	Sololá	712	San Antonio Palopó	9	San Antonio Palopo	6	Junio	2023-12-06T00:00:00	2024-11-08T00:00:00	1	Precipitación	0
176508	7	Sololá	712	San Antonio Palopó	9	San Antonio Palopo	6	Junio	2023-12-06T00:00:00	2024-11-08T00:00:00	8	Radiación solar	0
176509	7	Sololá	712	San Antonio Palopó	9	San Antonio Palopo	6	Junio	2023-12-06T00:00:00	2024-11-08T01:00:00	2	Temperatura media	20.8
176510	7	Sololá	712	San Antonio Palopó	9	San Antonio Palopo	6	Junio	2023-12-06T00:00:00	2024-11-08T01:00:00	4	Temperatura máxima	20.9
176511	7	Sololá	712	San Antonio Palopó	9	San Antonio Palopo	6	Junio	2023-12-06T00:00:00	2024-11-08T01:00:00	3	Temperatura mínima	19.4
176512	7	Sololá	712	San Antonio Palopó	9	San Antonio Palopo	6	Junio	2023-12-06T00:00:00	2024-11-08T01:00:00	5	Humedad	78
176513	7	Sololá	712	San Antonio Palopó	9	San Antonio Palopo	6	Junio	2023-12-06T00:00:00	2024-11-08T01:00:00	6	Velocidad del viento	4.8
176514	7	Sololá	712	San Antonio Palopó	9	San Antonio Palopo	6	Junio	2023-12-06T00:00:00	2024-11-08T01:00:00	7	Dirección del viento	4.83
176515	7	Sololá	712	San Antonio Palopó	9	San Antonio Palopo	6	Junio	2023-12-06T00:00:00	2024-11-08T01:00:00	1	Precipitación	0
176516	7	Sololá	712	San Antonio Palopó	9	San Antonio Palopo	6	Junio	2023-12-06T00:00:00	2024-11-08T01:00:00	8	Radiación solar	0
176517	7	Sololá	712	San Antonio Palopó	9	San Antonio Palopo	6	Junio	2023-12-06T00:00:00	2024-11-08T02:00:00	2	Temperatura media	20.6
176518	7	Sololá	712	San Antonio Palopó	9	San Antonio Palopo	6	Junio	2023-12-06T00:00:00	2024-11-08T02:00:00	4	Temperatura máxima	20.9
176519	7	Sololá	712	San Antonio Palopó	9	San Antonio Palopo	6	Junio	2023-12-06T00:00:00	2024-11-08T02:00:00	3	Temperatura mínima	20.3
176520	7	Sololá	712	San Antonio Palopó	9	San Antonio Palopo	6	Junio	2023-12-06T00:00:00	2024-11-08T02:00:00	5	Humedad	77
176521	7	Sololá	712	San Antonio Palopó	9	San Antonio Palopo	6	Junio	2023-12-06T00:00:00	2024-11-08T02:00:00	6	Velocidad del viento	4.8
176522	7	Sololá	712	San Antonio Palopó	9	San Antonio Palopo	6	Junio	2023-12-06T00:00:00	2024-11-08T02:00:00	7	Dirección del viento	4.83
176523	7	Sololá	712	San Antonio Palopó	9	San Antonio Palopo	6	Junio	2023-12-06T00:00:00	2024-11-08T02:00:00	1	Precipitación	0
176524	7	Sololá	712	San Antonio Palopó	9	San Antonio Palopo	6	Junio	2023-12-06T00:00:00	2024-11-08T02:00:00	8	Radiación solar	0
176525	7	Sololá	712	San Antonio Palopó	9	San Antonio Palopo	6	Junio	2023-12-06T00:00:00	2024-11-08T03:00:00	2	Temperatura media	19.9
176526	7	Sololá	712	San Antonio Palopó	9	San Antonio Palopo	6	Junio	2023-12-06T00:00:00	2024-11-08T03:00:00	4	Temperatura máxima	20.7
176527	7	Sololá	712	San Antonio Palopó	9	San Antonio Palopo	6	Junio	2023-12-06T00:00:00	2024-11-08T03:00:00	3	Temperatura mínima	19.4
176528	7	Sololá	712	San Antonio Palopó	9	San Antonio Palopo	6	Junio	2023-12-06T00:00:00	2024-11-08T03:00:00	5	Humedad	80
176529	7	Sololá	712	San Antonio Palopó	9	San Antonio Palopo	6	Junio	2023-12-06T00:00:00	2024-11-08T03:00:00	6	Velocidad del viento	4.8
176530	7	Sololá	712	San Antonio Palopó	9	San Antonio Palopo	6	Junio	2023-12-06T00:00:00	2024-11-08T03:00:00	7	Dirección del viento	4.83
176531	7	Sololá	712	San Antonio Palopó	9	San Antonio Palopo	6	Junio	2023-12-06T00:00:00	2024-11-08T03:00:00	1	Precipitación	0
176532	7	Sololá	712	San Antonio Palopó	9	San Antonio Palopo	6	Junio	2023-12-06T00:00:00	2024-11-08T03:00:00	8	Radiación solar	0
176533	7	Sololá	712	San Antonio Palopó	9	San Antonio Palopo	6	Junio	2023-12-06T00:00:00	2024-11-08T04:00:00	2	Temperatura media	19.7
176534	7	Sololá	712	San Antonio Palopó	9	San Antonio Palopo	6	Junio	2023-12-06T00:00:00	2024-11-08T04:00:00	4	Temperatura máxima	20.3
176535	7	Sololá	712	San Antonio Palopó	9	San Antonio Palopo	6	Junio	2023-12-06T00:00:00	2024-11-08T04:00:00	3	Temperatura mínima	19.7
176536	7	Sololá	712	San Antonio Palopó	9	San Antonio Palopo	6	Junio	2023-12-06T00:00:00	2024-11-08T04:00:00	5	Humedad	77
176537	7	Sololá	712	San Antonio Palopó	9	San Antonio Palopo	6	Junio	2023-12-06T00:00:00	2024-11-08T04:00:00	6	Velocidad del viento	8
176538	7	Sololá	712	San Antonio Palopó	9	San Antonio Palopo	6	Junio	2023-12-06T00:00:00	2024-11-08T04:00:00	7	Dirección del viento	8.05
176539	7	Sololá	712	San Antonio Palopó	9	San Antonio Palopo	6	Junio	2023-12-06T00:00:00	2024-11-08T04:00:00	1	Precipitación	0
176540	7	Sololá	712	San Antonio Palopó	9	San Antonio Palopo	6	Junio	2023-12-06T00:00:00	2024-11-08T04:00:00	8	Radiación solar	0
176541	7	Sololá	712	San Antonio Palopó	9	San Antonio Palopo	6	Junio	2023-12-06T00:00:00	2024-11-08T05:00:00	2	Temperatura media	19.5
176542	7	Sololá	712	San Antonio Palopó	9	San Antonio Palopo	6	Junio	2023-12-06T00:00:00	2024-11-08T05:00:00	4	Temperatura máxima	19.8
176543	7	Sololá	712	San Antonio Palopó	9	San Antonio Palopo	6	Junio	2023-12-06T00:00:00	2024-11-08T05:00:00	3	Temperatura mínima	19.4
176544	7	Sololá	712	San Antonio Palopó	9	San Antonio Palopo	6	Junio	2023-12-06T00:00:00	2024-11-08T05:00:00	5	Humedad	79
176545	7	Sololá	712	San Antonio Palopó	9	San Antonio Palopo	6	Junio	2023-12-06T00:00:00	2024-11-08T05:00:00	6	Velocidad del viento	3.2
176546	7	Sololá	712	San Antonio Palopó	9	San Antonio Palopo	6	Junio	2023-12-06T00:00:00	2024-11-08T05:00:00	7	Dirección del viento	3.22
176547	7	Sololá	712	San Antonio Palopó	9	San Antonio Palopo	6	Junio	2023-12-06T00:00:00	2024-11-08T05:00:00	1	Precipitación	0
176548	7	Sololá	712	San Antonio Palopó	9	San Antonio Palopo	6	Junio	2023-12-06T00:00:00	2024-11-08T05:00:00	8	Radiación solar	0
176549	7	Sololá	712	San Antonio Palopó	9	San Antonio Palopo	6	Junio	2023-12-06T00:00:00	2024-11-08T06:00:00	2	Temperatura media	19.8
176550	7	Sololá	712	San Antonio Palopó	9	San Antonio Palopo	6	Junio	2023-12-06T00:00:00	2024-11-08T06:00:00	4	Temperatura máxima	19.9
176551	7	Sololá	712	San Antonio Palopó	9	San Antonio Palopo	6	Junio	2023-12-06T00:00:00	2024-11-08T06:00:00	3	Temperatura mínima	19.4
176552	7	Sololá	712	San Antonio Palopó	9	San Antonio Palopo	6	Junio	2023-12-06T00:00:00	2024-11-08T06:00:00	5	Humedad	73
176553	7	Sololá	712	San Antonio Palopó	9	San Antonio Palopo	6	Junio	2023-12-06T00:00:00	2024-11-08T06:00:00	6	Velocidad del viento	3.2
176554	7	Sololá	712	San Antonio Palopó	9	San Antonio Palopo	6	Junio	2023-12-06T00:00:00	2024-11-08T06:00:00	7	Dirección del viento	3.22
176555	7	Sololá	712	San Antonio Palopó	9	San Antonio Palopo	6	Junio	2023-12-06T00:00:00	2024-11-08T06:00:00	1	Precipitación	0
176556	7	Sololá	712	San Antonio Palopó	9	San Antonio Palopo	6	Junio	2023-12-06T00:00:00	2024-11-08T06:00:00	8	Radiación solar	6
176557	7	Sololá	712	San Antonio Palopó	9	San Antonio Palopo	6	Junio	2023-12-06T00:00:00	2024-11-08T07:00:00	2	Temperatura media	19.1
176558	7	Sololá	712	San Antonio Palopó	9	San Antonio Palopo	6	Junio	2023-12-06T00:00:00	2024-11-08T07:00:00	4	Temperatura máxima	20
176559	7	Sololá	712	San Antonio Palopó	9	San Antonio Palopo	6	Junio	2023-12-06T00:00:00	2024-11-08T07:00:00	3	Temperatura mínima	19
176560	7	Sololá	712	San Antonio Palopó	9	San Antonio Palopo	6	Junio	2023-12-06T00:00:00	2024-11-08T07:00:00	5	Humedad	82
176561	7	Sololá	712	San Antonio Palopó	9	San Antonio Palopo	6	Junio	2023-12-06T00:00:00	2024-11-08T07:00:00	6	Velocidad del viento	3.2
176562	7	Sololá	712	San Antonio Palopó	9	San Antonio Palopo	6	Junio	2023-12-06T00:00:00	2024-11-08T07:00:00	7	Dirección del viento	3.22
176563	7	Sololá	712	San Antonio Palopó	9	San Antonio Palopo	6	Junio	2023-12-06T00:00:00	2024-11-08T07:00:00	1	Precipitación	0
176564	7	Sololá	712	San Antonio Palopó	9	San Antonio Palopo	6	Junio	2023-12-06T00:00:00	2024-11-08T07:00:00	8	Radiación solar	53
176565	7	Sololá	712	San Antonio Palopó	9	San Antonio Palopo	6	Junio	2023-12-06T00:00:00	2024-11-08T08:00:00	2	Temperatura media	21.6
176566	7	Sololá	712	San Antonio Palopó	9	San Antonio Palopo	6	Junio	2023-12-06T00:00:00	2024-11-08T08:00:00	4	Temperatura máxima	21.6
176567	7	Sololá	712	San Antonio Palopó	9	San Antonio Palopo	6	Junio	2023-12-06T00:00:00	2024-11-08T08:00:00	3	Temperatura mínima	19.1
176568	7	Sololá	712	San Antonio Palopó	9	San Antonio Palopo	6	Junio	2023-12-06T00:00:00	2024-11-08T08:00:00	5	Humedad	77
176569	7	Sololá	712	San Antonio Palopó	9	San Antonio Palopo	6	Junio	2023-12-06T00:00:00	2024-11-08T08:00:00	6	Velocidad del viento	1.6
176570	7	Sololá	712	San Antonio Palopó	9	San Antonio Palopo	6	Junio	2023-12-06T00:00:00	2024-11-08T08:00:00	7	Dirección del viento	1.61
176571	7	Sololá	712	San Antonio Palopó	9	San Antonio Palopo	6	Junio	2023-12-06T00:00:00	2024-11-08T08:00:00	1	Precipitación	0
176572	7	Sololá	712	San Antonio Palopó	9	San Antonio Palopo	6	Junio	2023-12-06T00:00:00	2024-11-08T08:00:00	8	Radiación solar	232
176573	7	Sololá	712	San Antonio Palopó	9	San Antonio Palopo	6	Junio	2023-12-06T00:00:00	2024-11-08T09:00:00	2	Temperatura media	23.1
176574	7	Sololá	712	San Antonio Palopó	9	San Antonio Palopo	6	Junio	2023-12-06T00:00:00	2024-11-08T09:00:00	4	Temperatura máxima	23.1
176575	7	Sololá	712	San Antonio Palopó	9	San Antonio Palopo	6	Junio	2023-12-06T00:00:00	2024-11-08T09:00:00	3	Temperatura mínima	21.4
176576	7	Sololá	712	San Antonio Palopó	9	San Antonio Palopo	6	Junio	2023-12-06T00:00:00	2024-11-08T09:00:00	5	Humedad	67
176577	7	Sololá	712	San Antonio Palopó	9	San Antonio Palopo	6	Junio	2023-12-06T00:00:00	2024-11-08T09:00:00	6	Velocidad del viento	1.6
176578	7	Sololá	712	San Antonio Palopó	9	San Antonio Palopo	6	Junio	2023-12-06T00:00:00	2024-11-08T09:00:00	7	Dirección del viento	1.61
176579	7	Sololá	712	San Antonio Palopó	9	San Antonio Palopo	6	Junio	2023-12-06T00:00:00	2024-11-08T09:00:00	1	Precipitación	0
176580	7	Sololá	712	San Antonio Palopó	9	San Antonio Palopo	6	Junio	2023-12-06T00:00:00	2024-11-08T09:00:00	8	Radiación solar	512
176581	7	Sololá	712	San Antonio Palopó	9	San Antonio Palopo	6	Junio	2023-12-06T00:00:00	2024-11-08T10:00:00	2	Temperatura media	24.4
176582	7	Sololá	712	San Antonio Palopó	9	San Antonio Palopo	6	Junio	2023-12-06T00:00:00	2024-11-08T10:00:00	4	Temperatura máxima	24.6
176583	7	Sololá	712	San Antonio Palopó	9	San Antonio Palopo	6	Junio	2023-12-06T00:00:00	2024-11-08T10:00:00	3	Temperatura mínima	23.1
176584	7	Sololá	712	San Antonio Palopó	9	San Antonio Palopo	6	Junio	2023-12-06T00:00:00	2024-11-08T10:00:00	5	Humedad	66
176585	7	Sololá	712	San Antonio Palopó	9	San Antonio Palopo	6	Junio	2023-12-06T00:00:00	2024-11-08T10:00:00	6	Velocidad del viento	3.2
176586	7	Sololá	712	San Antonio Palopó	9	San Antonio Palopo	6	Junio	2023-12-06T00:00:00	2024-11-08T10:00:00	7	Dirección del viento	3.22
176587	7	Sololá	712	San Antonio Palopó	9	San Antonio Palopo	6	Junio	2023-12-06T00:00:00	2024-11-08T10:00:00	1	Precipitación	0
176588	7	Sololá	712	San Antonio Palopó	9	San Antonio Palopo	6	Junio	2023-12-06T00:00:00	2024-11-08T10:00:00	8	Radiación solar	659
176589	7	Sololá	712	San Antonio Palopó	9	San Antonio Palopo	6	Junio	2023-12-06T00:00:00	2024-11-08T11:00:00	2	Temperatura media	25.9
176590	7	Sololá	712	San Antonio Palopó	9	San Antonio Palopo	6	Junio	2023-12-06T00:00:00	2024-11-08T11:00:00	4	Temperatura máxima	25.9
176591	7	Sololá	712	San Antonio Palopó	9	San Antonio Palopo	6	Junio	2023-12-06T00:00:00	2024-11-08T11:00:00	3	Temperatura mínima	24.4
176592	7	Sololá	712	San Antonio Palopó	9	San Antonio Palopo	6	Junio	2023-12-06T00:00:00	2024-11-08T11:00:00	5	Humedad	68
176593	7	Sololá	712	San Antonio Palopó	9	San Antonio Palopo	6	Junio	2023-12-06T00:00:00	2024-11-08T11:00:00	6	Velocidad del viento	4.8
176594	7	Sololá	712	San Antonio Palopó	9	San Antonio Palopo	6	Junio	2023-12-06T00:00:00	2024-11-08T11:00:00	7	Dirección del viento	4.83
176595	7	Sololá	712	San Antonio Palopó	9	San Antonio Palopo	6	Junio	2023-12-06T00:00:00	2024-11-08T11:00:00	1	Precipitación	0
176596	7	Sololá	712	San Antonio Palopó	9	San Antonio Palopo	6	Junio	2023-12-06T00:00:00	2024-11-08T11:00:00	8	Radiación solar	890
176597	7	Sololá	712	San Antonio Palopó	9	San Antonio Palopo	6	Junio	2023-12-06T00:00:00	2024-11-08T12:00:00	2	Temperatura media	25.8
176598	7	Sololá	712	San Antonio Palopó	9	San Antonio Palopo	6	Junio	2023-12-06T00:00:00	2024-11-08T12:00:00	4	Temperatura máxima	26.2
176599	7	Sololá	712	San Antonio Palopó	9	San Antonio Palopo	6	Junio	2023-12-06T00:00:00	2024-11-08T12:00:00	3	Temperatura mínima	25.2
176600	7	Sololá	712	San Antonio Palopó	9	San Antonio Palopo	6	Junio	2023-12-06T00:00:00	2024-11-08T12:00:00	5	Humedad	71
176601	7	Sololá	712	San Antonio Palopó	9	San Antonio Palopo	6	Junio	2023-12-06T00:00:00	2024-11-08T12:00:00	6	Velocidad del viento	8
176602	7	Sololá	712	San Antonio Palopó	9	San Antonio Palopo	6	Junio	2023-12-06T00:00:00	2024-11-08T12:00:00	7	Dirección del viento	8.05
176603	7	Sololá	712	San Antonio Palopó	9	San Antonio Palopo	6	Junio	2023-12-06T00:00:00	2024-11-08T12:00:00	1	Precipitación	0
176604	7	Sololá	712	San Antonio Palopó	9	San Antonio Palopo	6	Junio	2023-12-06T00:00:00	2024-11-08T12:00:00	8	Radiación solar	949
176605	7	Sololá	712	San Antonio Palopó	9	San Antonio Palopo	6	Junio	2023-12-06T00:00:00	2024-11-08T13:00:00	2	Temperatura media	25.6
176606	7	Sololá	712	San Antonio Palopó	9	San Antonio Palopo	6	Junio	2023-12-06T00:00:00	2024-11-08T13:00:00	4	Temperatura máxima	26.3
176607	7	Sololá	712	San Antonio Palopó	9	San Antonio Palopo	6	Junio	2023-12-06T00:00:00	2024-11-08T13:00:00	3	Temperatura mínima	25.2
176608	7	Sololá	712	San Antonio Palopó	9	San Antonio Palopo	6	Junio	2023-12-06T00:00:00	2024-11-08T13:00:00	5	Humedad	73
176609	7	Sololá	712	San Antonio Palopó	9	San Antonio Palopo	6	Junio	2023-12-06T00:00:00	2024-11-08T13:00:00	6	Velocidad del viento	6.4
176610	7	Sololá	712	San Antonio Palopó	9	San Antonio Palopo	6	Junio	2023-12-06T00:00:00	2024-11-08T13:00:00	7	Dirección del viento	6.44
176611	7	Sololá	712	San Antonio Palopó	9	San Antonio Palopo	6	Junio	2023-12-06T00:00:00	2024-11-08T13:00:00	1	Precipitación	0
176612	7	Sololá	712	San Antonio Palopó	9	San Antonio Palopo	6	Junio	2023-12-06T00:00:00	2024-11-08T13:00:00	8	Radiación solar	827
176613	7	Sololá	712	San Antonio Palopó	9	San Antonio Palopo	6	Junio	2023-12-06T00:00:00	2024-11-08T14:00:00	2	Temperatura media	25.6
176614	7	Sololá	712	San Antonio Palopó	9	San Antonio Palopo	6	Junio	2023-12-06T00:00:00	2024-11-08T14:00:00	4	Temperatura máxima	26.5
176615	7	Sololá	712	San Antonio Palopó	9	San Antonio Palopo	6	Junio	2023-12-06T00:00:00	2024-11-08T14:00:00	3	Temperatura mínima	25.4
176616	7	Sololá	712	San Antonio Palopó	9	San Antonio Palopo	6	Junio	2023-12-06T00:00:00	2024-11-08T14:00:00	5	Humedad	73
176617	7	Sololá	712	San Antonio Palopó	9	San Antonio Palopo	6	Junio	2023-12-06T00:00:00	2024-11-08T14:00:00	6	Velocidad del viento	8
176618	7	Sololá	712	San Antonio Palopó	9	San Antonio Palopo	6	Junio	2023-12-06T00:00:00	2024-11-08T14:00:00	7	Dirección del viento	8.05
176619	7	Sololá	712	San Antonio Palopó	9	San Antonio Palopo	6	Junio	2023-12-06T00:00:00	2024-11-08T14:00:00	1	Precipitación	0
176620	7	Sololá	712	San Antonio Palopó	9	San Antonio Palopo	6	Junio	2023-12-06T00:00:00	2024-11-08T14:00:00	8	Radiación solar	788
176621	7	Sololá	712	San Antonio Palopó	9	San Antonio Palopo	6	Junio	2023-12-06T00:00:00	2024-11-08T15:00:00	2	Temperatura media	25.7
176622	7	Sololá	712	San Antonio Palopó	9	San Antonio Palopo	6	Junio	2023-12-06T00:00:00	2024-11-08T15:00:00	4	Temperatura máxima	25.9
176623	7	Sololá	712	San Antonio Palopó	9	San Antonio Palopo	6	Junio	2023-12-06T00:00:00	2024-11-08T15:00:00	3	Temperatura mínima	24.9
176624	7	Sololá	712	San Antonio Palopó	9	San Antonio Palopo	6	Junio	2023-12-06T00:00:00	2024-11-08T15:00:00	5	Humedad	72
176625	7	Sololá	712	San Antonio Palopó	9	San Antonio Palopo	6	Junio	2023-12-06T00:00:00	2024-11-08T15:00:00	6	Velocidad del viento	8
176626	7	Sololá	712	San Antonio Palopó	9	San Antonio Palopo	6	Junio	2023-12-06T00:00:00	2024-11-08T15:00:00	7	Dirección del viento	8.05
176627	7	Sololá	712	San Antonio Palopó	9	San Antonio Palopo	6	Junio	2023-12-06T00:00:00	2024-11-08T15:00:00	1	Precipitación	0
176628	7	Sololá	712	San Antonio Palopó	9	San Antonio Palopo	6	Junio	2023-12-06T00:00:00	2024-11-08T15:00:00	8	Radiación solar	579
176629	7	Sololá	712	San Antonio Palopó	9	San Antonio Palopo	6	Junio	2023-12-06T00:00:00	2024-11-08T16:00:00	2	Temperatura media	23.6
176630	7	Sololá	712	San Antonio Palopó	9	San Antonio Palopo	6	Junio	2023-12-06T00:00:00	2024-11-08T16:00:00	4	Temperatura máxima	26
176631	7	Sololá	712	San Antonio Palopó	9	San Antonio Palopo	6	Junio	2023-12-06T00:00:00	2024-11-08T16:00:00	3	Temperatura mínima	23.6
176632	7	Sololá	712	San Antonio Palopó	9	San Antonio Palopo	6	Junio	2023-12-06T00:00:00	2024-11-08T16:00:00	5	Humedad	79
176633	7	Sololá	712	San Antonio Palopó	9	San Antonio Palopo	6	Junio	2023-12-06T00:00:00	2024-11-08T16:00:00	6	Velocidad del viento	9.7
176634	7	Sololá	712	San Antonio Palopó	9	San Antonio Palopo	6	Junio	2023-12-06T00:00:00	2024-11-08T16:00:00	7	Dirección del viento	9.66
176635	7	Sololá	712	San Antonio Palopó	9	San Antonio Palopo	6	Junio	2023-12-06T00:00:00	2024-11-08T16:00:00	1	Precipitación	0
176636	7	Sololá	712	San Antonio Palopó	9	San Antonio Palopo	6	Junio	2023-12-06T00:00:00	2024-11-08T16:00:00	8	Radiación solar	460
176637	7	Sololá	712	San Antonio Palopó	9	San Antonio Palopo	6	Junio	2023-12-06T00:00:00	2024-11-08T17:00:00	2	Temperatura media	22.9
176638	7	Sololá	712	San Antonio Palopó	9	San Antonio Palopo	6	Junio	2023-12-06T00:00:00	2024-11-08T17:00:00	4	Temperatura máxima	23.6
176639	7	Sololá	712	San Antonio Palopó	9	San Antonio Palopo	6	Junio	2023-12-06T00:00:00	2024-11-08T17:00:00	3	Temperatura mínima	22.8
176640	7	Sololá	712	San Antonio Palopó	9	San Antonio Palopo	6	Junio	2023-12-06T00:00:00	2024-11-08T17:00:00	5	Humedad	85
176641	7	Sololá	712	San Antonio Palopó	9	San Antonio Palopo	6	Junio	2023-12-06T00:00:00	2024-11-08T17:00:00	6	Velocidad del viento	6.4
176642	7	Sololá	712	San Antonio Palopó	9	San Antonio Palopo	6	Junio	2023-12-06T00:00:00	2024-11-08T17:00:00	7	Dirección del viento	6.44
176643	7	Sololá	712	San Antonio Palopó	9	San Antonio Palopo	6	Junio	2023-12-06T00:00:00	2024-11-08T17:00:00	1	Precipitación	0
176644	7	Sololá	712	San Antonio Palopó	9	San Antonio Palopo	6	Junio	2023-12-06T00:00:00	2024-11-08T17:00:00	8	Radiación solar	113
176645	7	Sololá	712	San Antonio Palopó	9	San Antonio Palopo	6	Junio	2023-12-06T00:00:00	2024-11-08T18:00:00	2	Temperatura media	20.9
176646	7	Sololá	712	San Antonio Palopó	9	San Antonio Palopo	6	Junio	2023-12-06T00:00:00	2024-11-08T18:00:00	4	Temperatura máxima	22.8
176647	7	Sololá	712	San Antonio Palopó	9	San Antonio Palopo	6	Junio	2023-12-06T00:00:00	2024-11-08T18:00:00	3	Temperatura mínima	20.9
176648	7	Sololá	712	San Antonio Palopó	9	San Antonio Palopo	6	Junio	2023-12-06T00:00:00	2024-11-08T18:00:00	5	Humedad	89
176649	7	Sololá	712	San Antonio Palopó	9	San Antonio Palopo	6	Junio	2023-12-06T00:00:00	2024-11-08T18:00:00	6	Velocidad del viento	6.4
176650	7	Sololá	712	San Antonio Palopó	9	San Antonio Palopo	6	Junio	2023-12-06T00:00:00	2024-11-08T18:00:00	7	Dirección del viento	6.44
176651	7	Sololá	712	San Antonio Palopó	9	San Antonio Palopo	6	Junio	2023-12-06T00:00:00	2024-11-08T18:00:00	1	Precipitación	0
176652	7	Sololá	712	San Antonio Palopó	9	San Antonio Palopo	6	Junio	2023-12-06T00:00:00	2024-11-08T18:00:00	8	Radiación solar	36
176653	7	Sololá	712	San Antonio Palopó	9	San Antonio Palopo	6	Junio	2023-12-06T00:00:00	2024-11-08T19:00:00	2	Temperatura media	21.3
176654	7	Sololá	712	San Antonio Palopó	9	San Antonio Palopo	6	Junio	2023-12-06T00:00:00	2024-11-08T19:00:00	4	Temperatura máxima	21.3
176655	7	Sololá	712	San Antonio Palopó	9	San Antonio Palopo	6	Junio	2023-12-06T00:00:00	2024-11-08T19:00:00	3	Temperatura mínima	20.9
176656	7	Sololá	712	San Antonio Palopó	9	San Antonio Palopo	6	Junio	2023-12-06T00:00:00	2024-11-08T19:00:00	5	Humedad	86
176657	7	Sololá	712	San Antonio Palopó	9	San Antonio Palopo	6	Junio	2023-12-06T00:00:00	2024-11-08T19:00:00	6	Velocidad del viento	3.2
176658	7	Sololá	712	San Antonio Palopó	9	San Antonio Palopo	6	Junio	2023-12-06T00:00:00	2024-11-08T19:00:00	7	Dirección del viento	3.22
176659	7	Sololá	712	San Antonio Palopó	9	San Antonio Palopo	6	Junio	2023-12-06T00:00:00	2024-11-08T19:00:00	1	Precipitación	0
176660	7	Sololá	712	San Antonio Palopó	9	San Antonio Palopo	6	Junio	2023-12-06T00:00:00	2024-11-08T19:00:00	8	Radiación solar	0
176661	7	Sololá	712	San Antonio Palopó	9	San Antonio Palopo	6	Junio	2023-12-06T00:00:00	2024-11-08T20:00:00	2	Temperatura media	21
176662	7	Sololá	712	San Antonio Palopó	9	San Antonio Palopo	6	Junio	2023-12-06T00:00:00	2024-11-08T20:00:00	4	Temperatura máxima	21.4
176663	7	Sololá	712	San Antonio Palopó	9	San Antonio Palopo	6	Junio	2023-12-06T00:00:00	2024-11-08T20:00:00	3	Temperatura mínima	20.8
176664	7	Sololá	712	San Antonio Palopó	9	San Antonio Palopo	6	Junio	2023-12-06T00:00:00	2024-11-08T20:00:00	5	Humedad	87
176665	7	Sololá	712	San Antonio Palopó	9	San Antonio Palopo	6	Junio	2023-12-06T00:00:00	2024-11-08T20:00:00	6	Velocidad del viento	4.8
176666	7	Sololá	712	San Antonio Palopó	9	San Antonio Palopo	6	Junio	2023-12-06T00:00:00	2024-11-08T20:00:00	7	Dirección del viento	4.83
176667	7	Sololá	712	San Antonio Palopó	9	San Antonio Palopo	6	Junio	2023-12-06T00:00:00	2024-11-08T20:00:00	1	Precipitación	0
176668	7	Sololá	712	San Antonio Palopó	9	San Antonio Palopo	6	Junio	2023-12-06T00:00:00	2024-11-08T20:00:00	8	Radiación solar	0
176669	7	Sololá	712	San Antonio Palopó	9	San Antonio Palopo	6	Junio	2023-12-06T00:00:00	2024-11-08T21:00:00	2	Temperatura media	20.8
176670	7	Sololá	712	San Antonio Palopó	9	San Antonio Palopo	6	Junio	2023-12-06T00:00:00	2024-11-08T21:00:00	4	Temperatura máxima	21.2
176671	7	Sololá	712	San Antonio Palopó	9	San Antonio Palopo	6	Junio	2023-12-06T00:00:00	2024-11-08T21:00:00	3	Temperatura mínima	20.8
176672	7	Sololá	712	San Antonio Palopó	9	San Antonio Palopo	6	Junio	2023-12-06T00:00:00	2024-11-08T21:00:00	5	Humedad	88
176673	7	Sololá	712	San Antonio Palopó	9	San Antonio Palopo	6	Junio	2023-12-06T00:00:00	2024-11-08T21:00:00	6	Velocidad del viento	3.2
176674	7	Sololá	712	San Antonio Palopó	9	San Antonio Palopo	6	Junio	2023-12-06T00:00:00	2024-11-08T21:00:00	7	Dirección del viento	3.22
176675	7	Sololá	712	San Antonio Palopó	9	San Antonio Palopo	6	Junio	2023-12-06T00:00:00	2024-11-08T21:00:00	1	Precipitación	0
176676	7	Sololá	712	San Antonio Palopó	9	San Antonio Palopo	6	Junio	2023-12-06T00:00:00	2024-11-08T21:00:00	8	Radiación solar	0
176677	7	Sololá	712	San Antonio Palopó	9	San Antonio Palopo	6	Junio	2023-12-06T00:00:00	2024-11-08T22:00:00	2	Temperatura media	20.7
176678	7	Sololá	712	San Antonio Palopó	9	San Antonio Palopo	6	Junio	2023-12-06T00:00:00	2024-11-08T22:00:00	4	Temperatura máxima	20.8
176679	7	Sololá	712	San Antonio Palopó	9	San Antonio Palopo	6	Junio	2023-12-06T00:00:00	2024-11-08T22:00:00	3	Temperatura mínima	20.6
176680	7	Sololá	712	San Antonio Palopó	9	San Antonio Palopo	6	Junio	2023-12-06T00:00:00	2024-11-08T22:00:00	5	Humedad	87
176681	7	Sololá	712	San Antonio Palopó	9	San Antonio Palopo	6	Junio	2023-12-06T00:00:00	2024-11-08T22:00:00	6	Velocidad del viento	1.6
176682	7	Sololá	712	San Antonio Palopó	9	San Antonio Palopo	6	Junio	2023-12-06T00:00:00	2024-11-08T22:00:00	7	Dirección del viento	1.61
176683	7	Sololá	712	San Antonio Palopó	9	San Antonio Palopo	6	Junio	2023-12-06T00:00:00	2024-11-08T22:00:00	1	Precipitación	0
176684	7	Sololá	712	San Antonio Palopó	9	San Antonio Palopo	6	Junio	2023-12-06T00:00:00	2024-11-08T22:00:00	8	Radiación solar	0
176685	7	Sololá	712	San Antonio Palopó	9	San Antonio Palopo	6	Junio	2023-12-06T00:00:00	2024-11-08T23:00:00	2	Temperatura media	20.1
176686	7	Sololá	712	San Antonio Palopó	9	San Antonio Palopo	6	Junio	2023-12-06T00:00:00	2024-11-08T23:00:00	4	Temperatura máxima	20.7
176687	7	Sololá	712	San Antonio Palopó	9	San Antonio Palopo	6	Junio	2023-12-06T00:00:00	2024-11-08T23:00:00	3	Temperatura mínima	20.1
176688	7	Sololá	712	San Antonio Palopó	9	San Antonio Palopo	6	Junio	2023-12-06T00:00:00	2024-11-08T23:00:00	5	Humedad	88
176689	7	Sololá	712	San Antonio Palopó	9	San Antonio Palopo	6	Junio	2023-12-06T00:00:00	2024-11-08T23:00:00	6	Velocidad del viento	3.2
176690	7	Sololá	712	San Antonio Palopó	9	San Antonio Palopo	6	Junio	2023-12-06T00:00:00	2024-11-08T23:00:00	7	Dirección del viento	3.22
176691	7	Sololá	712	San Antonio Palopó	9	San Antonio Palopo	6	Junio	2023-12-06T00:00:00	2024-11-08T23:00:00	1	Precipitación	0
176692	7	Sololá	712	San Antonio Palopó	9	San Antonio Palopo	6	Junio	2023-12-06T00:00:00	2024-11-08T23:00:00	8	Radiación solar	0
176693	7	Sololá	712	San Antonio Palopó	9	San Antonio Palopo	6	Junio	2023-06-13T00:00:00	2024-11-08T00:00:00	2	Temperatura media	19.5
176694	7	Sololá	712	San Antonio Palopó	9	San Antonio Palopo	6	Junio	2023-06-13T00:00:00	2024-11-08T00:00:00	4	Temperatura máxima	20.1
176695	7	Sololá	712	San Antonio Palopó	9	San Antonio Palopo	6	Junio	2023-06-13T00:00:00	2024-11-08T00:00:00	3	Temperatura mínima	19.5
176696	7	Sololá	712	San Antonio Palopó	9	San Antonio Palopo	6	Junio	2023-06-13T00:00:00	2024-11-08T00:00:00	5	Humedad	86
176697	7	Sololá	712	San Antonio Palopó	9	San Antonio Palopo	6	Junio	2023-06-13T00:00:00	2024-11-08T00:00:00	6	Velocidad del viento	1.6
176698	7	Sololá	712	San Antonio Palopó	9	San Antonio Palopo	6	Junio	2023-06-13T00:00:00	2024-11-08T00:00:00	7	Dirección del viento	1.61
176699	7	Sololá	712	San Antonio Palopó	9	San Antonio Palopo	6	Junio	2023-06-13T00:00:00	2024-11-08T00:00:00	1	Precipitación	0
176700	7	Sololá	712	San Antonio Palopó	9	San Antonio Palopo	6	Junio	2023-06-13T00:00:00	2024-11-08T00:00:00	8	Radiación solar	0
176701	7	Sololá	712	San Antonio Palopó	9	San Antonio Palopo	6	Junio	2023-06-13T00:00:00	2024-11-08T01:00:00	2	Temperatura media	19
176702	7	Sololá	712	San Antonio Palopó	9	San Antonio Palopo	6	Junio	2023-06-13T00:00:00	2024-11-08T01:00:00	4	Temperatura máxima	19.8
176703	7	Sololá	712	San Antonio Palopó	9	San Antonio Palopo	6	Junio	2023-06-13T00:00:00	2024-11-08T01:00:00	3	Temperatura mínima	19
176704	7	Sololá	712	San Antonio Palopó	9	San Antonio Palopo	6	Junio	2023-06-13T00:00:00	2024-11-08T01:00:00	5	Humedad	80
176705	7	Sololá	712	San Antonio Palopó	9	San Antonio Palopo	6	Junio	2023-06-13T00:00:00	2024-11-08T01:00:00	6	Velocidad del viento	3.2
176706	7	Sololá	712	San Antonio Palopó	9	San Antonio Palopo	6	Junio	2023-06-13T00:00:00	2024-11-08T01:00:00	7	Dirección del viento	3.22
176707	7	Sololá	712	San Antonio Palopó	9	San Antonio Palopo	6	Junio	2023-06-13T00:00:00	2024-11-08T01:00:00	1	Precipitación	0
176708	7	Sololá	712	San Antonio Palopó	9	San Antonio Palopo	6	Junio	2023-06-13T00:00:00	2024-11-08T01:00:00	8	Radiación solar	0
176709	7	Sololá	712	San Antonio Palopó	9	San Antonio Palopo	6	Junio	2023-06-13T00:00:00	2024-11-08T02:00:00	2	Temperatura media	18.9
176710	7	Sololá	712	San Antonio Palopó	9	San Antonio Palopo	6	Junio	2023-06-13T00:00:00	2024-11-08T02:00:00	4	Temperatura máxima	19.1
176711	7	Sololá	712	San Antonio Palopó	9	San Antonio Palopo	6	Junio	2023-06-13T00:00:00	2024-11-08T02:00:00	3	Temperatura mínima	18.6
176712	7	Sololá	712	San Antonio Palopó	9	San Antonio Palopo	6	Junio	2023-06-13T00:00:00	2024-11-08T02:00:00	5	Humedad	84
176713	7	Sololá	712	San Antonio Palopó	9	San Antonio Palopo	6	Junio	2023-06-13T00:00:00	2024-11-08T02:00:00	6	Velocidad del viento	3.2
176714	7	Sololá	712	San Antonio Palopó	9	San Antonio Palopo	6	Junio	2023-06-13T00:00:00	2024-11-08T02:00:00	7	Dirección del viento	3.22
176715	7	Sololá	712	San Antonio Palopó	9	San Antonio Palopo	6	Junio	2023-06-13T00:00:00	2024-11-08T02:00:00	1	Precipitación	0
176716	7	Sololá	712	San Antonio Palopó	9	San Antonio Palopo	6	Junio	2023-06-13T00:00:00	2024-11-08T02:00:00	8	Radiación solar	0
176717	7	Sololá	712	San Antonio Palopó	9	San Antonio Palopo	6	Junio	2023-06-13T00:00:00	2024-11-08T03:00:00	2	Temperatura media	18.4
176718	7	Sololá	712	San Antonio Palopó	9	San Antonio Palopo	6	Junio	2023-06-13T00:00:00	2024-11-08T03:00:00	4	Temperatura máxima	19.3
176719	7	Sololá	712	San Antonio Palopó	9	San Antonio Palopo	6	Junio	2023-06-13T00:00:00	2024-11-08T03:00:00	3	Temperatura mínima	18.3
176720	7	Sololá	712	San Antonio Palopó	9	San Antonio Palopo	6	Junio	2023-06-13T00:00:00	2024-11-08T03:00:00	5	Humedad	80
176721	7	Sololá	712	San Antonio Palopó	9	San Antonio Palopo	6	Junio	2023-06-13T00:00:00	2024-11-08T03:00:00	6	Velocidad del viento	3.2
176722	7	Sololá	712	San Antonio Palopó	9	San Antonio Palopo	6	Junio	2023-06-13T00:00:00	2024-11-08T03:00:00	7	Dirección del viento	3.22
176723	7	Sololá	712	San Antonio Palopó	9	San Antonio Palopo	6	Junio	2023-06-13T00:00:00	2024-11-08T03:00:00	1	Precipitación	0
176724	7	Sololá	712	San Antonio Palopó	9	San Antonio Palopo	6	Junio	2023-06-13T00:00:00	2024-11-08T03:00:00	8	Radiación solar	0
176725	7	Sololá	712	San Antonio Palopó	9	San Antonio Palopo	6	Junio	2023-06-13T00:00:00	2024-11-08T04:00:00	2	Temperatura media	20.5
176726	7	Sololá	712	San Antonio Palopó	9	San Antonio Palopo	6	Junio	2023-06-13T00:00:00	2024-11-08T04:00:00	4	Temperatura máxima	20.8
176727	7	Sololá	712	San Antonio Palopó	9	San Antonio Palopo	6	Junio	2023-06-13T00:00:00	2024-11-08T04:00:00	3	Temperatura mínima	18.4
176728	7	Sololá	712	San Antonio Palopó	9	San Antonio Palopo	6	Junio	2023-06-13T00:00:00	2024-11-08T04:00:00	5	Humedad	74
176729	7	Sololá	712	San Antonio Palopó	9	San Antonio Palopo	6	Junio	2023-06-13T00:00:00	2024-11-08T04:00:00	6	Velocidad del viento	4.8
176730	7	Sololá	712	San Antonio Palopó	9	San Antonio Palopo	6	Junio	2023-06-13T00:00:00	2024-11-08T04:00:00	7	Dirección del viento	4.83
176731	7	Sololá	712	San Antonio Palopó	9	San Antonio Palopo	6	Junio	2023-06-13T00:00:00	2024-11-08T04:00:00	1	Precipitación	0
176732	7	Sololá	712	San Antonio Palopó	9	San Antonio Palopo	6	Junio	2023-06-13T00:00:00	2024-11-08T04:00:00	8	Radiación solar	0
176733	7	Sololá	712	San Antonio Palopó	9	San Antonio Palopo	6	Junio	2023-06-13T00:00:00	2024-11-08T05:00:00	2	Temperatura media	20.2
176734	7	Sololá	712	San Antonio Palopó	9	San Antonio Palopo	6	Junio	2023-06-13T00:00:00	2024-11-08T05:00:00	4	Temperatura máxima	20.8
176735	7	Sololá	712	San Antonio Palopó	9	San Antonio Palopo	6	Junio	2023-06-13T00:00:00	2024-11-08T05:00:00	3	Temperatura mínima	20.2
176736	7	Sololá	712	San Antonio Palopó	9	San Antonio Palopo	6	Junio	2023-06-13T00:00:00	2024-11-08T05:00:00	5	Humedad	72
176737	7	Sololá	712	San Antonio Palopó	9	San Antonio Palopo	6	Junio	2023-06-13T00:00:00	2024-11-08T05:00:00	6	Velocidad del viento	4.8
176738	7	Sololá	712	San Antonio Palopó	9	San Antonio Palopo	6	Junio	2023-06-13T00:00:00	2024-11-08T05:00:00	7	Dirección del viento	4.83
176739	7	Sololá	712	San Antonio Palopó	9	San Antonio Palopo	6	Junio	2023-06-13T00:00:00	2024-11-08T05:00:00	1	Precipitación	0
176740	7	Sololá	712	San Antonio Palopó	9	San Antonio Palopo	6	Junio	2023-06-13T00:00:00	2024-11-08T05:00:00	8	Radiación solar	0
176741	7	Sololá	712	San Antonio Palopó	9	San Antonio Palopo	6	Junio	2023-06-13T00:00:00	2024-11-08T06:00:00	2	Temperatura media	19.6
176742	7	Sololá	712	San Antonio Palopó	9	San Antonio Palopo	6	Junio	2023-06-13T00:00:00	2024-11-08T06:00:00	4	Temperatura máxima	20.2
176743	7	Sololá	712	San Antonio Palopó	9	San Antonio Palopo	6	Junio	2023-06-13T00:00:00	2024-11-08T06:00:00	3	Temperatura mínima	19.5
176744	7	Sololá	712	San Antonio Palopó	9	San Antonio Palopo	6	Junio	2023-06-13T00:00:00	2024-11-08T06:00:00	5	Humedad	72
176745	7	Sololá	712	San Antonio Palopó	9	San Antonio Palopo	6	Junio	2023-06-13T00:00:00	2024-11-08T06:00:00	6	Velocidad del viento	4.8
176746	7	Sololá	712	San Antonio Palopó	9	San Antonio Palopo	6	Junio	2023-06-13T00:00:00	2024-11-08T06:00:00	7	Dirección del viento	4.83
176747	7	Sololá	712	San Antonio Palopó	9	San Antonio Palopo	6	Junio	2023-06-13T00:00:00	2024-11-08T06:00:00	1	Precipitación	0
176748	7	Sololá	712	San Antonio Palopó	9	San Antonio Palopo	6	Junio	2023-06-13T00:00:00	2024-11-08T06:00:00	8	Radiación solar	5
176749	7	Sololá	712	San Antonio Palopó	9	San Antonio Palopo	6	Junio	2023-06-13T00:00:00	2024-11-08T07:00:00	2	Temperatura media	20.7
176750	7	Sololá	712	San Antonio Palopó	9	San Antonio Palopo	6	Junio	2023-06-13T00:00:00	2024-11-08T07:00:00	4	Temperatura máxima	21.1
176751	7	Sololá	712	San Antonio Palopó	9	San Antonio Palopo	6	Junio	2023-06-13T00:00:00	2024-11-08T07:00:00	3	Temperatura mínima	19.6
176752	7	Sololá	712	San Antonio Palopó	9	San Antonio Palopo	6	Junio	2023-06-13T00:00:00	2024-11-08T07:00:00	5	Humedad	73
176753	7	Sololá	712	San Antonio Palopó	9	San Antonio Palopo	6	Junio	2023-06-13T00:00:00	2024-11-08T07:00:00	6	Velocidad del viento	4.8
176754	7	Sololá	712	San Antonio Palopó	9	San Antonio Palopo	6	Junio	2023-06-13T00:00:00	2024-11-08T07:00:00	7	Dirección del viento	4.83
176755	7	Sololá	712	San Antonio Palopó	9	San Antonio Palopo	6	Junio	2023-06-13T00:00:00	2024-11-08T07:00:00	1	Precipitación	0
176756	7	Sololá	712	San Antonio Palopó	9	San Antonio Palopo	6	Junio	2023-06-13T00:00:00	2024-11-08T07:00:00	8	Radiación solar	72
176757	7	Sololá	712	San Antonio Palopó	9	San Antonio Palopo	6	Junio	2023-06-13T00:00:00	2024-11-08T08:00:00	2	Temperatura media	21.9
176758	7	Sololá	712	San Antonio Palopó	9	San Antonio Palopo	6	Junio	2023-06-13T00:00:00	2024-11-08T08:00:00	4	Temperatura máxima	21.9
176759	7	Sololá	712	San Antonio Palopó	9	San Antonio Palopo	6	Junio	2023-06-13T00:00:00	2024-11-08T08:00:00	3	Temperatura mínima	20.6
176760	7	Sololá	712	San Antonio Palopó	9	San Antonio Palopo	6	Junio	2023-06-13T00:00:00	2024-11-08T08:00:00	5	Humedad	72
176761	7	Sololá	712	San Antonio Palopó	9	San Antonio Palopo	6	Junio	2023-06-13T00:00:00	2024-11-08T08:00:00	6	Velocidad del viento	1.6
176762	7	Sololá	712	San Antonio Palopó	9	San Antonio Palopo	6	Junio	2023-06-13T00:00:00	2024-11-08T08:00:00	7	Dirección del viento	1.61
176763	7	Sololá	712	San Antonio Palopó	9	San Antonio Palopo	6	Junio	2023-06-13T00:00:00	2024-11-08T08:00:00	1	Precipitación	0
176764	7	Sololá	712	San Antonio Palopó	9	San Antonio Palopo	6	Junio	2023-06-13T00:00:00	2024-11-08T08:00:00	8	Radiación solar	205
176765	7	Sololá	712	San Antonio Palopó	9	San Antonio Palopo	6	Junio	2023-06-13T00:00:00	2024-11-08T09:00:00	2	Temperatura media	23
176766	7	Sololá	712	San Antonio Palopó	9	San Antonio Palopo	6	Junio	2023-06-13T00:00:00	2024-11-08T09:00:00	4	Temperatura máxima	23
176767	7	Sololá	712	San Antonio Palopó	9	San Antonio Palopo	6	Junio	2023-06-13T00:00:00	2024-11-08T09:00:00	3	Temperatura mínima	21.9
176768	7	Sololá	712	San Antonio Palopó	9	San Antonio Palopo	6	Junio	2023-06-13T00:00:00	2024-11-08T09:00:00	5	Humedad	70
176769	7	Sololá	712	San Antonio Palopó	9	San Antonio Palopo	6	Junio	2023-06-13T00:00:00	2024-11-08T09:00:00	6	Velocidad del viento	3.2
176770	7	Sololá	712	San Antonio Palopó	9	San Antonio Palopo	6	Junio	2023-06-13T00:00:00	2024-11-08T09:00:00	7	Dirección del viento	3.22
176771	7	Sololá	712	San Antonio Palopó	9	San Antonio Palopo	6	Junio	2023-06-13T00:00:00	2024-11-08T09:00:00	1	Precipitación	0
176772	7	Sololá	712	San Antonio Palopó	9	San Antonio Palopo	6	Junio	2023-06-13T00:00:00	2024-11-08T09:00:00	8	Radiación solar	478
176773	7	Sololá	712	San Antonio Palopó	9	San Antonio Palopo	6	Junio	2023-06-13T00:00:00	2024-11-08T10:00:00	2	Temperatura media	23.3
176774	7	Sololá	712	San Antonio Palopó	9	San Antonio Palopo	6	Junio	2023-06-13T00:00:00	2024-11-08T10:00:00	4	Temperatura máxima	23.8
176775	7	Sololá	712	San Antonio Palopó	9	San Antonio Palopo	6	Junio	2023-06-13T00:00:00	2024-11-08T10:00:00	3	Temperatura mínima	22.9
176776	7	Sololá	712	San Antonio Palopó	9	San Antonio Palopo	6	Junio	2023-06-13T00:00:00	2024-11-08T10:00:00	5	Humedad	70
176777	7	Sololá	712	San Antonio Palopó	9	San Antonio Palopo	6	Junio	2023-06-13T00:00:00	2024-11-08T10:00:00	6	Velocidad del viento	3.2
176778	7	Sololá	712	San Antonio Palopó	9	San Antonio Palopo	6	Junio	2023-06-13T00:00:00	2024-11-08T10:00:00	7	Dirección del viento	3.22
176779	7	Sololá	712	San Antonio Palopó	9	San Antonio Palopo	6	Junio	2023-06-13T00:00:00	2024-11-08T10:00:00	1	Precipitación	0
176780	7	Sololá	712	San Antonio Palopó	9	San Antonio Palopo	6	Junio	2023-06-13T00:00:00	2024-11-08T10:00:00	8	Radiación solar	669
176781	7	Sololá	712	San Antonio Palopó	9	San Antonio Palopo	6	Junio	2023-06-13T00:00:00	2024-11-08T11:00:00	2	Temperatura media	24.5
176782	7	Sololá	712	San Antonio Palopó	9	San Antonio Palopo	6	Junio	2023-06-13T00:00:00	2024-11-08T11:00:00	4	Temperatura máxima	24.6
176783	7	Sololá	712	San Antonio Palopó	9	San Antonio Palopo	6	Junio	2023-06-13T00:00:00	2024-11-08T11:00:00	3	Temperatura mínima	23.3
176784	7	Sololá	712	San Antonio Palopó	9	San Antonio Palopo	6	Junio	2023-06-13T00:00:00	2024-11-08T11:00:00	5	Humedad	67
176785	7	Sololá	712	San Antonio Palopó	9	San Antonio Palopo	6	Junio	2023-06-13T00:00:00	2024-11-08T11:00:00	6	Velocidad del viento	4.8
176786	7	Sololá	712	San Antonio Palopó	9	San Antonio Palopo	6	Junio	2023-06-13T00:00:00	2024-11-08T11:00:00	7	Dirección del viento	4.83
176787	7	Sololá	712	San Antonio Palopó	9	San Antonio Palopo	6	Junio	2023-06-13T00:00:00	2024-11-08T11:00:00	1	Precipitación	0
176788	7	Sololá	712	San Antonio Palopó	9	San Antonio Palopo	6	Junio	2023-06-13T00:00:00	2024-11-08T11:00:00	8	Radiación solar	823
176789	7	Sololá	712	San Antonio Palopó	9	San Antonio Palopo	6	Junio	2023-06-13T00:00:00	2024-11-08T12:00:00	2	Temperatura media	25.7
176790	7	Sololá	712	San Antonio Palopó	9	San Antonio Palopo	6	Junio	2023-06-13T00:00:00	2024-11-08T12:00:00	4	Temperatura máxima	25.7
176791	7	Sololá	712	San Antonio Palopó	9	San Antonio Palopo	6	Junio	2023-06-13T00:00:00	2024-11-08T12:00:00	3	Temperatura mínima	24.5
176792	7	Sololá	712	San Antonio Palopó	9	San Antonio Palopo	6	Junio	2023-06-13T00:00:00	2024-11-08T12:00:00	5	Humedad	66
176793	7	Sololá	712	San Antonio Palopó	9	San Antonio Palopo	6	Junio	2023-06-13T00:00:00	2024-11-08T12:00:00	6	Velocidad del viento	4.8
176794	7	Sololá	712	San Antonio Palopó	9	San Antonio Palopo	6	Junio	2023-06-13T00:00:00	2024-11-08T12:00:00	7	Dirección del viento	4.83
176795	7	Sololá	712	San Antonio Palopó	9	San Antonio Palopo	6	Junio	2023-06-13T00:00:00	2024-11-08T12:00:00	1	Precipitación	0
176796	7	Sololá	712	San Antonio Palopó	9	San Antonio Palopo	6	Junio	2023-06-13T00:00:00	2024-11-08T12:00:00	8	Radiación solar	903
176797	7	Sololá	712	San Antonio Palopó	9	San Antonio Palopo	6	Junio	2023-06-13T00:00:00	2024-11-08T13:00:00	2	Temperatura media	25.6
176798	7	Sololá	712	San Antonio Palopó	9	San Antonio Palopo	6	Junio	2023-06-13T00:00:00	2024-11-08T13:00:00	4	Temperatura máxima	26.5
176799	7	Sololá	712	San Antonio Palopó	9	San Antonio Palopo	6	Junio	2023-06-13T00:00:00	2024-11-08T13:00:00	3	Temperatura mínima	25.3
176800	7	Sololá	712	San Antonio Palopó	9	San Antonio Palopo	6	Junio	2023-06-13T00:00:00	2024-11-08T13:00:00	5	Humedad	70
176801	7	Sololá	712	San Antonio Palopó	9	San Antonio Palopo	6	Junio	2023-06-13T00:00:00	2024-11-08T13:00:00	6	Velocidad del viento	8
176802	7	Sololá	712	San Antonio Palopó	9	San Antonio Palopo	6	Junio	2023-06-13T00:00:00	2024-11-08T13:00:00	7	Dirección del viento	8.05
176803	7	Sololá	712	San Antonio Palopó	9	San Antonio Palopo	6	Junio	2023-06-13T00:00:00	2024-11-08T13:00:00	1	Precipitación	0
176804	7	Sololá	712	San Antonio Palopó	9	San Antonio Palopo	6	Junio	2023-06-13T00:00:00	2024-11-08T13:00:00	8	Radiación solar	893
176805	7	Sololá	712	San Antonio Palopó	9	San Antonio Palopo	6	Junio	2023-06-13T00:00:00	2024-11-08T14:00:00	2	Temperatura media	25.8
176806	7	Sololá	712	San Antonio Palopó	9	San Antonio Palopo	6	Junio	2023-06-13T00:00:00	2024-11-08T14:00:00	4	Temperatura máxima	26.2
176807	7	Sololá	712	San Antonio Palopó	9	San Antonio Palopo	6	Junio	2023-06-13T00:00:00	2024-11-08T14:00:00	3	Temperatura mínima	25.5
176808	7	Sololá	712	San Antonio Palopó	9	San Antonio Palopo	6	Junio	2023-06-13T00:00:00	2024-11-08T14:00:00	5	Humedad	73
176809	7	Sololá	712	San Antonio Palopó	9	San Antonio Palopo	6	Junio	2023-06-13T00:00:00	2024-11-08T14:00:00	6	Velocidad del viento	8
176810	7	Sololá	712	San Antonio Palopó	9	San Antonio Palopo	6	Junio	2023-06-13T00:00:00	2024-11-08T14:00:00	7	Dirección del viento	8.05
176811	7	Sololá	712	San Antonio Palopó	9	San Antonio Palopo	6	Junio	2023-06-13T00:00:00	2024-11-08T14:00:00	1	Precipitación	0
176812	7	Sololá	712	San Antonio Palopó	9	San Antonio Palopo	6	Junio	2023-06-13T00:00:00	2024-11-08T14:00:00	8	Radiación solar	833
176813	7	Sololá	712	San Antonio Palopó	9	San Antonio Palopo	6	Junio	2023-06-13T00:00:00	2024-11-08T15:00:00	2	Temperatura media	25.3
176814	7	Sololá	712	San Antonio Palopó	9	San Antonio Palopo	6	Junio	2023-06-13T00:00:00	2024-11-08T15:00:00	4	Temperatura máxima	25.9
176815	7	Sololá	712	San Antonio Palopó	9	San Antonio Palopo	6	Junio	2023-06-13T00:00:00	2024-11-08T15:00:00	3	Temperatura mínima	25.1
176816	7	Sololá	712	San Antonio Palopó	9	San Antonio Palopo	6	Junio	2023-06-13T00:00:00	2024-11-08T15:00:00	5	Humedad	71
176817	7	Sololá	712	San Antonio Palopó	9	San Antonio Palopo	6	Junio	2023-06-13T00:00:00	2024-11-08T15:00:00	6	Velocidad del viento	8
176818	7	Sololá	712	San Antonio Palopó	9	San Antonio Palopo	6	Junio	2023-06-13T00:00:00	2024-11-08T15:00:00	7	Dirección del viento	8.05
176819	7	Sololá	712	San Antonio Palopó	9	San Antonio Palopo	6	Junio	2023-06-13T00:00:00	2024-11-08T15:00:00	1	Precipitación	0
176820	7	Sololá	712	San Antonio Palopó	9	San Antonio Palopo	6	Junio	2023-06-13T00:00:00	2024-11-08T15:00:00	8	Radiación solar	713
176821	7	Sololá	712	San Antonio Palopó	9	San Antonio Palopo	6	Junio	2023-06-13T00:00:00	2024-11-08T16:00:00	2	Temperatura media	24.6
176822	7	Sololá	712	San Antonio Palopó	9	San Antonio Palopo	6	Junio	2023-06-13T00:00:00	2024-11-08T16:00:00	4	Temperatura máxima	25.4
176823	7	Sololá	712	San Antonio Palopó	9	San Antonio Palopo	6	Junio	2023-06-13T00:00:00	2024-11-08T16:00:00	3	Temperatura mínima	24.6
176824	7	Sololá	712	San Antonio Palopó	9	San Antonio Palopo	6	Junio	2023-06-13T00:00:00	2024-11-08T16:00:00	5	Humedad	75
176825	7	Sololá	712	San Antonio Palopó	9	San Antonio Palopo	6	Junio	2023-06-13T00:00:00	2024-11-08T16:00:00	6	Velocidad del viento	8
176826	7	Sololá	712	San Antonio Palopó	9	San Antonio Palopo	6	Junio	2023-06-13T00:00:00	2024-11-08T16:00:00	7	Dirección del viento	8.05
176827	7	Sololá	712	San Antonio Palopó	9	San Antonio Palopo	6	Junio	2023-06-13T00:00:00	2024-11-08T16:00:00	1	Precipitación	0
176828	7	Sololá	712	San Antonio Palopó	9	San Antonio Palopo	6	Junio	2023-06-13T00:00:00	2024-11-08T16:00:00	8	Radiación solar	514
176829	7	Sololá	712	San Antonio Palopó	9	San Antonio Palopo	6	Junio	2023-06-13T00:00:00	2024-11-08T17:00:00	2	Temperatura media	23.7
176830	7	Sololá	712	San Antonio Palopó	9	San Antonio Palopo	6	Junio	2023-06-13T00:00:00	2024-11-08T17:00:00	4	Temperatura máxima	24.6
176831	7	Sololá	712	San Antonio Palopó	9	San Antonio Palopo	6	Junio	2023-06-13T00:00:00	2024-11-08T17:00:00	3	Temperatura mínima	23.2
176832	7	Sololá	712	San Antonio Palopó	9	San Antonio Palopo	6	Junio	2023-06-13T00:00:00	2024-11-08T17:00:00	5	Humedad	77
176833	7	Sololá	712	San Antonio Palopó	9	San Antonio Palopo	6	Junio	2023-06-13T00:00:00	2024-11-08T17:00:00	6	Velocidad del viento	9.7
176834	7	Sololá	712	San Antonio Palopó	9	San Antonio Palopo	6	Junio	2023-06-13T00:00:00	2024-11-08T17:00:00	7	Dirección del viento	9.66
176835	7	Sololá	712	San Antonio Palopó	9	San Antonio Palopo	6	Junio	2023-06-13T00:00:00	2024-11-08T17:00:00	1	Precipitación	0
176836	7	Sololá	712	San Antonio Palopó	9	San Antonio Palopo	6	Junio	2023-06-13T00:00:00	2024-11-08T17:00:00	8	Radiación solar	269
176837	7	Sololá	712	San Antonio Palopó	9	San Antonio Palopo	6	Junio	2023-06-13T00:00:00	2024-11-08T18:00:00	2	Temperatura media	23.2
176838	7	Sololá	712	San Antonio Palopó	9	San Antonio Palopo	6	Junio	2023-06-13T00:00:00	2024-11-08T18:00:00	4	Temperatura máxima	23.8
176839	7	Sololá	712	San Antonio Palopó	9	San Antonio Palopo	6	Junio	2023-06-13T00:00:00	2024-11-08T18:00:00	3	Temperatura mínima	23.1
176840	7	Sololá	712	San Antonio Palopó	9	San Antonio Palopo	6	Junio	2023-06-13T00:00:00	2024-11-08T18:00:00	5	Humedad	75
176841	7	Sololá	712	San Antonio Palopó	9	San Antonio Palopo	6	Junio	2023-06-13T00:00:00	2024-11-08T18:00:00	6	Velocidad del viento	8
176842	7	Sololá	712	San Antonio Palopó	9	San Antonio Palopo	6	Junio	2023-06-13T00:00:00	2024-11-08T18:00:00	7	Dirección del viento	8.05
176843	7	Sololá	712	San Antonio Palopó	9	San Antonio Palopo	6	Junio	2023-06-13T00:00:00	2024-11-08T18:00:00	1	Precipitación	0
176844	7	Sololá	712	San Antonio Palopó	9	San Antonio Palopo	6	Junio	2023-06-13T00:00:00	2024-11-08T18:00:00	8	Radiación solar	131
176845	7	Sololá	712	San Antonio Palopó	9	San Antonio Palopo	6	Junio	2023-06-13T00:00:00	2024-11-08T19:00:00	2	Temperatura media	22.1
176846	7	Sololá	712	San Antonio Palopó	9	San Antonio Palopo	6	Junio	2023-06-13T00:00:00	2024-11-08T19:00:00	4	Temperatura máxima	23.3
176847	7	Sololá	712	San Antonio Palopó	9	San Antonio Palopo	6	Junio	2023-06-13T00:00:00	2024-11-08T19:00:00	3	Temperatura mínima	22
176848	7	Sololá	712	San Antonio Palopó	9	San Antonio Palopo	6	Junio	2023-06-13T00:00:00	2024-11-08T19:00:00	5	Humedad	82
176849	7	Sololá	712	San Antonio Palopó	9	San Antonio Palopo	6	Junio	2023-06-13T00:00:00	2024-11-08T19:00:00	6	Velocidad del viento	3.2
176850	7	Sololá	712	San Antonio Palopó	9	San Antonio Palopo	6	Junio	2023-06-13T00:00:00	2024-11-08T19:00:00	7	Dirección del viento	3.22
176851	7	Sololá	712	San Antonio Palopó	9	San Antonio Palopo	6	Junio	2023-06-13T00:00:00	2024-11-08T19:00:00	1	Precipitación	0
176852	7	Sololá	712	San Antonio Palopó	9	San Antonio Palopo	6	Junio	2023-06-13T00:00:00	2024-11-08T19:00:00	8	Radiación solar	0
176853	7	Sololá	712	San Antonio Palopó	9	San Antonio Palopo	6	Junio	2023-06-13T00:00:00	2024-11-08T20:00:00	2	Temperatura media	22.1
176854	7	Sololá	712	San Antonio Palopó	9	San Antonio Palopo	6	Junio	2023-06-13T00:00:00	2024-11-08T20:00:00	4	Temperatura máxima	22.2
176855	7	Sololá	712	San Antonio Palopó	9	San Antonio Palopo	6	Junio	2023-06-13T00:00:00	2024-11-08T20:00:00	3	Temperatura mínima	21.7
176856	7	Sololá	712	San Antonio Palopó	9	San Antonio Palopo	6	Junio	2023-06-13T00:00:00	2024-11-08T20:00:00	5	Humedad	83
176857	7	Sololá	712	San Antonio Palopó	9	San Antonio Palopo	6	Junio	2023-06-13T00:00:00	2024-11-08T20:00:00	6	Velocidad del viento	3.2
176858	7	Sololá	712	San Antonio Palopó	9	San Antonio Palopo	6	Junio	2023-06-13T00:00:00	2024-11-08T20:00:00	7	Dirección del viento	3.22
176859	7	Sololá	712	San Antonio Palopó	9	San Antonio Palopo	6	Junio	2023-06-13T00:00:00	2024-11-08T20:00:00	1	Precipitación	0
176860	7	Sololá	712	San Antonio Palopó	9	San Antonio Palopo	6	Junio	2023-06-13T00:00:00	2024-11-08T20:00:00	8	Radiación solar	0
176861	7	Sololá	712	San Antonio Palopó	9	San Antonio Palopo	6	Junio	2023-06-13T00:00:00	2024-11-08T21:00:00	2	Temperatura media	21.7
176862	7	Sololá	712	San Antonio Palopó	9	San Antonio Palopo	6	Junio	2023-06-13T00:00:00	2024-11-08T21:00:00	4	Temperatura máxima	22.1
176863	7	Sololá	712	San Antonio Palopó	9	San Antonio Palopo	6	Junio	2023-06-13T00:00:00	2024-11-08T21:00:00	3	Temperatura mínima	21.7
176864	7	Sololá	712	San Antonio Palopó	9	San Antonio Palopo	6	Junio	2023-06-13T00:00:00	2024-11-08T21:00:00	5	Humedad	83
176865	7	Sololá	712	San Antonio Palopó	9	San Antonio Palopo	6	Junio	2023-06-13T00:00:00	2024-11-08T21:00:00	6	Velocidad del viento	3.2
176866	7	Sololá	712	San Antonio Palopó	9	San Antonio Palopo	6	Junio	2023-06-13T00:00:00	2024-11-08T21:00:00	7	Dirección del viento	3.22
176867	7	Sololá	712	San Antonio Palopó	9	San Antonio Palopo	6	Junio	2023-06-13T00:00:00	2024-11-08T21:00:00	1	Precipitación	0
176868	7	Sololá	712	San Antonio Palopó	9	San Antonio Palopo	6	Junio	2023-06-13T00:00:00	2024-11-08T21:00:00	8	Radiación solar	0
176869	7	Sololá	712	San Antonio Palopó	9	San Antonio Palopo	6	Junio	2023-06-13T00:00:00	2024-11-08T22:00:00	2	Temperatura media	21.4
176870	7	Sololá	712	San Antonio Palopó	9	San Antonio Palopo	6	Junio	2023-06-13T00:00:00	2024-11-08T22:00:00	4	Temperatura máxima	21.7
176871	7	Sololá	712	San Antonio Palopó	9	San Antonio Palopo	6	Junio	2023-06-13T00:00:00	2024-11-08T22:00:00	3	Temperatura mínima	20.6
176872	7	Sololá	712	San Antonio Palopó	9	San Antonio Palopo	6	Junio	2023-06-13T00:00:00	2024-11-08T22:00:00	5	Humedad	76
176873	7	Sololá	712	San Antonio Palopó	9	San Antonio Palopo	6	Junio	2023-06-13T00:00:00	2024-11-08T22:00:00	6	Velocidad del viento	4.8
176874	7	Sololá	712	San Antonio Palopó	9	San Antonio Palopo	6	Junio	2023-06-13T00:00:00	2024-11-08T22:00:00	7	Dirección del viento	4.83
176875	7	Sololá	712	San Antonio Palopó	9	San Antonio Palopo	6	Junio	2023-06-13T00:00:00	2024-11-08T22:00:00	1	Precipitación	0.4
176876	7	Sololá	712	San Antonio Palopó	9	San Antonio Palopo	6	Junio	2023-06-13T00:00:00	2024-11-08T22:00:00	8	Radiación solar	0
176877	7	Sololá	712	San Antonio Palopó	9	San Antonio Palopo	6	Junio	2023-06-13T00:00:00	2024-11-08T23:00:00	2	Temperatura media	21.1
176878	7	Sololá	712	San Antonio Palopó	9	San Antonio Palopo	6	Junio	2023-06-13T00:00:00	2024-11-08T23:00:00	4	Temperatura máxima	21.5
176879	7	Sololá	712	San Antonio Palopó	9	San Antonio Palopo	6	Junio	2023-06-13T00:00:00	2024-11-08T23:00:00	3	Temperatura mínima	20.9
176880	7	Sololá	712	San Antonio Palopó	9	San Antonio Palopo	6	Junio	2023-06-13T00:00:00	2024-11-08T23:00:00	5	Humedad	76
176881	7	Sololá	712	San Antonio Palopó	9	San Antonio Palopo	6	Junio	2023-06-13T00:00:00	2024-11-08T23:00:00	6	Velocidad del viento	4.8
176882	7	Sololá	712	San Antonio Palopó	9	San Antonio Palopo	6	Junio	2023-06-13T00:00:00	2024-11-08T23:00:00	7	Dirección del viento	4.83
176883	7	Sololá	712	San Antonio Palopó	9	San Antonio Palopo	6	Junio	2023-06-13T00:00:00	2024-11-08T23:00:00	1	Precipitación	0
176884	7	Sololá	712	San Antonio Palopó	9	San Antonio Palopo	6	Junio	2023-06-13T00:00:00	2024-11-08T23:00:00	8	Radiación solar	0
176885	7	Sololá	712	San Antonio Palopó	9	San Antonio Palopo	6	Junio	2023-06-14T00:00:00	2024-11-08T00:00:00	2	Temperatura media	21.7
176886	7	Sololá	712	San Antonio Palopó	9	San Antonio Palopo	6	Junio	2023-06-14T00:00:00	2024-11-08T00:00:00	4	Temperatura máxima	21.8
176887	7	Sololá	712	San Antonio Palopó	9	San Antonio Palopo	6	Junio	2023-06-14T00:00:00	2024-11-08T00:00:00	3	Temperatura mínima	21.1
176888	7	Sololá	712	San Antonio Palopó	9	San Antonio Palopo	6	Junio	2023-06-14T00:00:00	2024-11-08T00:00:00	5	Humedad	72
176889	7	Sololá	712	San Antonio Palopó	9	San Antonio Palopo	6	Junio	2023-06-14T00:00:00	2024-11-08T00:00:00	6	Velocidad del viento	8
176890	7	Sololá	712	San Antonio Palopó	9	San Antonio Palopo	6	Junio	2023-06-14T00:00:00	2024-11-08T00:00:00	7	Dirección del viento	8.05
176891	7	Sololá	712	San Antonio Palopó	9	San Antonio Palopo	6	Junio	2023-06-14T00:00:00	2024-11-08T00:00:00	1	Precipitación	0
176892	7	Sololá	712	San Antonio Palopó	9	San Antonio Palopo	6	Junio	2023-06-14T00:00:00	2024-11-08T00:00:00	8	Radiación solar	0
176893	7	Sololá	712	San Antonio Palopó	9	San Antonio Palopo	6	Junio	2023-06-14T00:00:00	2024-11-08T01:00:00	2	Temperatura media	21.4
176894	7	Sololá	712	San Antonio Palopó	9	San Antonio Palopo	6	Junio	2023-06-14T00:00:00	2024-11-08T01:00:00	4	Temperatura máxima	21.7
176895	7	Sololá	712	San Antonio Palopó	9	San Antonio Palopo	6	Junio	2023-06-14T00:00:00	2024-11-08T01:00:00	3	Temperatura mínima	21.1
176896	7	Sololá	712	San Antonio Palopó	9	San Antonio Palopo	6	Junio	2023-06-14T00:00:00	2024-11-08T01:00:00	5	Humedad	74
176897	7	Sololá	712	San Antonio Palopó	9	San Antonio Palopo	6	Junio	2023-06-14T00:00:00	2024-11-08T01:00:00	6	Velocidad del viento	8
176898	7	Sololá	712	San Antonio Palopó	9	San Antonio Palopo	6	Junio	2023-06-14T00:00:00	2024-11-08T01:00:00	7	Dirección del viento	8.05
176899	7	Sololá	712	San Antonio Palopó	9	San Antonio Palopo	6	Junio	2023-06-14T00:00:00	2024-11-08T01:00:00	1	Precipitación	0
176900	7	Sololá	712	San Antonio Palopó	9	San Antonio Palopo	6	Junio	2023-06-14T00:00:00	2024-11-08T01:00:00	8	Radiación solar	0
176901	7	Sololá	712	San Antonio Palopó	9	San Antonio Palopo	6	Junio	2023-06-14T00:00:00	2024-11-08T02:00:00	2	Temperatura media	20.8
176902	7	Sololá	712	San Antonio Palopó	9	San Antonio Palopo	6	Junio	2023-06-14T00:00:00	2024-11-08T02:00:00	4	Temperatura máxima	21.4
176903	7	Sololá	712	San Antonio Palopó	9	San Antonio Palopo	6	Junio	2023-06-14T00:00:00	2024-11-08T02:00:00	3	Temperatura mínima	20.8
176904	7	Sololá	712	San Antonio Palopó	9	San Antonio Palopo	6	Junio	2023-06-14T00:00:00	2024-11-08T02:00:00	5	Humedad	74
176905	7	Sololá	712	San Antonio Palopó	9	San Antonio Palopo	6	Junio	2023-06-14T00:00:00	2024-11-08T02:00:00	6	Velocidad del viento	8
176906	7	Sololá	712	San Antonio Palopó	9	San Antonio Palopo	6	Junio	2023-06-14T00:00:00	2024-11-08T02:00:00	7	Dirección del viento	8.05
176907	7	Sololá	712	San Antonio Palopó	9	San Antonio Palopo	6	Junio	2023-06-14T00:00:00	2024-11-08T02:00:00	1	Precipitación	0
176908	7	Sololá	712	San Antonio Palopó	9	San Antonio Palopo	6	Junio	2023-06-14T00:00:00	2024-11-08T02:00:00	8	Radiación solar	0
176909	7	Sololá	712	San Antonio Palopó	9	San Antonio Palopo	6	Junio	2023-06-14T00:00:00	2024-11-08T03:00:00	2	Temperatura media	20.6
176910	7	Sololá	712	San Antonio Palopó	9	San Antonio Palopo	6	Junio	2023-06-14T00:00:00	2024-11-08T03:00:00	4	Temperatura máxima	21.1
176911	7	Sololá	712	San Antonio Palopó	9	San Antonio Palopo	6	Junio	2023-06-14T00:00:00	2024-11-08T03:00:00	3	Temperatura mínima	20.6
176912	7	Sololá	712	San Antonio Palopó	9	San Antonio Palopo	6	Junio	2023-06-14T00:00:00	2024-11-08T03:00:00	5	Humedad	73
176913	7	Sololá	712	San Antonio Palopó	9	San Antonio Palopo	6	Junio	2023-06-14T00:00:00	2024-11-08T03:00:00	6	Velocidad del viento	9.7
176914	7	Sololá	712	San Antonio Palopó	9	San Antonio Palopo	6	Junio	2023-06-14T00:00:00	2024-11-08T03:00:00	7	Dirección del viento	9.66
176915	7	Sololá	712	San Antonio Palopó	9	San Antonio Palopo	6	Junio	2023-06-14T00:00:00	2024-11-08T03:00:00	1	Precipitación	0
176916	7	Sololá	712	San Antonio Palopó	9	San Antonio Palopo	6	Junio	2023-06-14T00:00:00	2024-11-08T03:00:00	8	Radiación solar	0
176917	7	Sololá	712	San Antonio Palopó	9	San Antonio Palopo	6	Junio	2023-06-14T00:00:00	2024-11-08T04:00:00	2	Temperatura media	20.4
176918	7	Sololá	712	San Antonio Palopó	9	San Antonio Palopo	6	Junio	2023-06-14T00:00:00	2024-11-08T04:00:00	4	Temperatura máxima	20.9
176919	7	Sololá	712	San Antonio Palopó	9	San Antonio Palopo	6	Junio	2023-06-14T00:00:00	2024-11-08T04:00:00	3	Temperatura mínima	20.4
176920	7	Sololá	712	San Antonio Palopó	9	San Antonio Palopo	6	Junio	2023-06-14T00:00:00	2024-11-08T04:00:00	5	Humedad	72
176921	7	Sololá	712	San Antonio Palopó	9	San Antonio Palopo	6	Junio	2023-06-14T00:00:00	2024-11-08T04:00:00	6	Velocidad del viento	11.3
176922	7	Sololá	712	San Antonio Palopó	9	San Antonio Palopo	6	Junio	2023-06-14T00:00:00	2024-11-08T04:00:00	7	Dirección del viento	11.27
176923	7	Sololá	712	San Antonio Palopó	9	San Antonio Palopo	6	Junio	2023-06-14T00:00:00	2024-11-08T04:00:00	1	Precipitación	0
176924	7	Sololá	712	San Antonio Palopó	9	San Antonio Palopo	6	Junio	2023-06-14T00:00:00	2024-11-08T04:00:00	8	Radiación solar	0
176925	7	Sololá	712	San Antonio Palopó	9	San Antonio Palopo	6	Junio	2023-06-14T00:00:00	2024-11-08T05:00:00	2	Temperatura media	20.1
176926	7	Sololá	712	San Antonio Palopó	9	San Antonio Palopo	6	Junio	2023-06-14T00:00:00	2024-11-08T05:00:00	4	Temperatura máxima	20.6
176927	7	Sololá	712	San Antonio Palopó	9	San Antonio Palopo	6	Junio	2023-06-14T00:00:00	2024-11-08T05:00:00	3	Temperatura mínima	20
176928	7	Sololá	712	San Antonio Palopó	9	San Antonio Palopo	6	Junio	2023-06-14T00:00:00	2024-11-08T05:00:00	5	Humedad	72
176929	7	Sololá	712	San Antonio Palopó	9	San Antonio Palopo	6	Junio	2023-06-14T00:00:00	2024-11-08T05:00:00	6	Velocidad del viento	9.7
176930	7	Sololá	712	San Antonio Palopó	9	San Antonio Palopo	6	Junio	2023-06-14T00:00:00	2024-11-08T05:00:00	7	Dirección del viento	9.66
176931	7	Sololá	712	San Antonio Palopó	9	San Antonio Palopo	6	Junio	2023-06-14T00:00:00	2024-11-08T05:00:00	1	Precipitación	0
176932	7	Sololá	712	San Antonio Palopó	9	San Antonio Palopo	6	Junio	2023-06-14T00:00:00	2024-11-08T05:00:00	8	Radiación solar	0
176933	7	Sololá	712	San Antonio Palopó	9	San Antonio Palopo	6	Junio	2023-06-14T00:00:00	2024-11-08T06:00:00	2	Temperatura media	20.2
176934	7	Sololá	712	San Antonio Palopó	9	San Antonio Palopo	6	Junio	2023-06-14T00:00:00	2024-11-08T06:00:00	4	Temperatura máxima	20.5
176935	7	Sololá	712	San Antonio Palopó	9	San Antonio Palopo	6	Junio	2023-06-14T00:00:00	2024-11-08T06:00:00	3	Temperatura mínima	20.1
176936	7	Sololá	712	San Antonio Palopó	9	San Antonio Palopo	6	Junio	2023-06-14T00:00:00	2024-11-08T06:00:00	5	Humedad	72
176937	7	Sololá	712	San Antonio Palopó	9	San Antonio Palopo	6	Junio	2023-06-14T00:00:00	2024-11-08T06:00:00	6	Velocidad del viento	6.4
176938	7	Sololá	712	San Antonio Palopó	9	San Antonio Palopo	6	Junio	2023-06-14T00:00:00	2024-11-08T06:00:00	7	Dirección del viento	6.44
176939	7	Sololá	712	San Antonio Palopó	9	San Antonio Palopo	6	Junio	2023-06-14T00:00:00	2024-11-08T06:00:00	1	Precipitación	0
176940	7	Sololá	712	San Antonio Palopó	9	San Antonio Palopo	6	Junio	2023-06-14T00:00:00	2024-11-08T06:00:00	8	Radiación solar	6
176941	7	Sololá	712	San Antonio Palopó	9	San Antonio Palopo	6	Junio	2023-06-14T00:00:00	2024-11-08T07:00:00	2	Temperatura media	21
176942	7	Sololá	712	San Antonio Palopó	9	San Antonio Palopo	6	Junio	2023-06-14T00:00:00	2024-11-08T07:00:00	4	Temperatura máxima	21
176943	7	Sololá	712	San Antonio Palopó	9	San Antonio Palopo	6	Junio	2023-06-14T00:00:00	2024-11-08T07:00:00	3	Temperatura mínima	20.1
176944	7	Sololá	712	San Antonio Palopó	9	San Antonio Palopo	6	Junio	2023-06-14T00:00:00	2024-11-08T07:00:00	5	Humedad	69
176945	7	Sololá	712	San Antonio Palopó	9	San Antonio Palopo	6	Junio	2023-06-14T00:00:00	2024-11-08T07:00:00	6	Velocidad del viento	8
176946	7	Sololá	712	San Antonio Palopó	9	San Antonio Palopo	6	Junio	2023-06-14T00:00:00	2024-11-08T07:00:00	7	Dirección del viento	8.05
176947	7	Sololá	712	San Antonio Palopó	9	San Antonio Palopo	6	Junio	2023-06-14T00:00:00	2024-11-08T07:00:00	1	Precipitación	0
176948	7	Sololá	712	San Antonio Palopó	9	San Antonio Palopo	6	Junio	2023-06-14T00:00:00	2024-11-08T07:00:00	8	Radiación solar	48
176949	7	Sololá	712	San Antonio Palopó	9	San Antonio Palopo	6	Junio	2023-06-14T00:00:00	2024-11-08T08:00:00	2	Temperatura media	22.2
176950	7	Sololá	712	San Antonio Palopó	9	San Antonio Palopo	6	Junio	2023-06-14T00:00:00	2024-11-08T08:00:00	4	Temperatura máxima	22.2
176951	7	Sololá	712	San Antonio Palopó	9	San Antonio Palopo	6	Junio	2023-06-14T00:00:00	2024-11-08T08:00:00	3	Temperatura mínima	20.8
176952	7	Sololá	712	San Antonio Palopó	9	San Antonio Palopo	6	Junio	2023-06-14T00:00:00	2024-11-08T08:00:00	5	Humedad	71
176953	7	Sololá	712	San Antonio Palopó	9	San Antonio Palopo	6	Junio	2023-06-14T00:00:00	2024-11-08T08:00:00	6	Velocidad del viento	3.2
176954	7	Sololá	712	San Antonio Palopó	9	San Antonio Palopo	6	Junio	2023-06-14T00:00:00	2024-11-08T08:00:00	7	Dirección del viento	3.22
176955	7	Sololá	712	San Antonio Palopó	9	San Antonio Palopo	6	Junio	2023-06-14T00:00:00	2024-11-08T08:00:00	1	Precipitación	0
176956	7	Sololá	712	San Antonio Palopó	9	San Antonio Palopo	6	Junio	2023-06-14T00:00:00	2024-11-08T08:00:00	8	Radiación solar	216
176957	7	Sololá	712	San Antonio Palopó	9	San Antonio Palopo	6	Junio	2023-06-14T00:00:00	2024-11-08T09:00:00	2	Temperatura media	22.7
176958	7	Sololá	712	San Antonio Palopó	9	San Antonio Palopo	6	Junio	2023-06-14T00:00:00	2024-11-08T09:00:00	4	Temperatura máxima	22.8
176959	7	Sololá	712	San Antonio Palopó	9	San Antonio Palopo	6	Junio	2023-06-14T00:00:00	2024-11-08T09:00:00	3	Temperatura mínima	22.2
176960	7	Sololá	712	San Antonio Palopó	9	San Antonio Palopo	6	Junio	2023-06-14T00:00:00	2024-11-08T09:00:00	5	Humedad	70
176961	7	Sololá	712	San Antonio Palopó	9	San Antonio Palopo	6	Junio	2023-06-14T00:00:00	2024-11-08T09:00:00	6	Velocidad del viento	1.6
176962	7	Sololá	712	San Antonio Palopó	9	San Antonio Palopo	6	Junio	2023-06-14T00:00:00	2024-11-08T09:00:00	7	Dirección del viento	1.61
176963	7	Sololá	712	San Antonio Palopó	9	San Antonio Palopo	6	Junio	2023-06-14T00:00:00	2024-11-08T09:00:00	1	Precipitación	0
176964	7	Sololá	712	San Antonio Palopó	9	San Antonio Palopo	6	Junio	2023-06-14T00:00:00	2024-11-08T09:00:00	8	Radiación solar	485
176965	7	Sololá	712	San Antonio Palopó	9	San Antonio Palopo	6	Junio	2023-06-14T00:00:00	2024-11-08T10:00:00	2	Temperatura media	23.9
176966	7	Sololá	712	San Antonio Palopó	9	San Antonio Palopo	6	Junio	2023-06-14T00:00:00	2024-11-08T10:00:00	4	Temperatura máxima	24.3
176967	7	Sololá	712	San Antonio Palopó	9	San Antonio Palopo	6	Junio	2023-06-14T00:00:00	2024-11-08T10:00:00	3	Temperatura mínima	22.7
176968	7	Sololá	712	San Antonio Palopó	9	San Antonio Palopo	6	Junio	2023-06-14T00:00:00	2024-11-08T10:00:00	5	Humedad	69
176969	7	Sololá	712	San Antonio Palopó	9	San Antonio Palopo	6	Junio	2023-06-14T00:00:00	2024-11-08T10:00:00	6	Velocidad del viento	3.2
176970	7	Sololá	712	San Antonio Palopó	9	San Antonio Palopo	6	Junio	2023-06-14T00:00:00	2024-11-08T10:00:00	7	Dirección del viento	3.22
176971	7	Sololá	712	San Antonio Palopó	9	San Antonio Palopo	6	Junio	2023-06-14T00:00:00	2024-11-08T10:00:00	1	Precipitación	0
176972	7	Sololá	712	San Antonio Palopó	9	San Antonio Palopo	6	Junio	2023-06-14T00:00:00	2024-11-08T10:00:00	8	Radiación solar	714
176973	7	Sololá	712	San Antonio Palopó	9	San Antonio Palopo	6	Junio	2023-06-14T00:00:00	2024-11-08T11:00:00	2	Temperatura media	23.6
176974	7	Sololá	712	San Antonio Palopó	9	San Antonio Palopo	6	Junio	2023-06-14T00:00:00	2024-11-08T11:00:00	4	Temperatura máxima	24.1
176975	7	Sololá	712	San Antonio Palopó	9	San Antonio Palopo	6	Junio	2023-06-14T00:00:00	2024-11-08T11:00:00	3	Temperatura mínima	23.3
176976	7	Sololá	712	San Antonio Palopó	9	San Antonio Palopo	6	Junio	2023-06-14T00:00:00	2024-11-08T11:00:00	5	Humedad	73
176977	7	Sololá	712	San Antonio Palopó	9	San Antonio Palopo	6	Junio	2023-06-14T00:00:00	2024-11-08T11:00:00	6	Velocidad del viento	11.3
176978	7	Sololá	712	San Antonio Palopó	9	San Antonio Palopo	6	Junio	2023-06-14T00:00:00	2024-11-08T11:00:00	7	Dirección del viento	11.27
176979	7	Sololá	712	San Antonio Palopó	9	San Antonio Palopo	6	Junio	2023-06-14T00:00:00	2024-11-08T11:00:00	1	Precipitación	0
176980	7	Sololá	712	San Antonio Palopó	9	San Antonio Palopo	6	Junio	2023-06-14T00:00:00	2024-11-08T11:00:00	8	Radiación solar	897
176981	7	Sololá	712	San Antonio Palopó	9	San Antonio Palopo	6	Junio	2023-06-14T00:00:00	2024-11-08T12:00:00	2	Temperatura media	24.6
176982	7	Sololá	712	San Antonio Palopó	9	San Antonio Palopo	6	Junio	2023-06-14T00:00:00	2024-11-08T12:00:00	4	Temperatura máxima	24.6
176983	7	Sololá	712	San Antonio Palopó	9	San Antonio Palopo	6	Junio	2023-06-14T00:00:00	2024-11-08T12:00:00	3	Temperatura mínima	23.5
176984	7	Sololá	712	San Antonio Palopó	9	San Antonio Palopo	6	Junio	2023-06-14T00:00:00	2024-11-08T12:00:00	5	Humedad	72
176985	7	Sololá	712	San Antonio Palopó	9	San Antonio Palopo	6	Junio	2023-06-14T00:00:00	2024-11-08T12:00:00	6	Velocidad del viento	8
176986	7	Sololá	712	San Antonio Palopó	9	San Antonio Palopo	6	Junio	2023-06-14T00:00:00	2024-11-08T12:00:00	7	Dirección del viento	8.05
176987	7	Sololá	712	San Antonio Palopó	9	San Antonio Palopo	6	Junio	2023-06-14T00:00:00	2024-11-08T12:00:00	1	Precipitación	0
176988	7	Sololá	712	San Antonio Palopó	9	San Antonio Palopo	6	Junio	2023-06-14T00:00:00	2024-11-08T12:00:00	8	Radiación solar	826
176989	7	Sololá	712	San Antonio Palopó	9	San Antonio Palopo	6	Junio	2023-06-14T00:00:00	2024-11-08T13:00:00	2	Temperatura media	25.8
176990	7	Sololá	712	San Antonio Palopó	9	San Antonio Palopo	6	Junio	2023-06-14T00:00:00	2024-11-08T13:00:00	4	Temperatura máxima	25.8
176991	7	Sololá	712	San Antonio Palopó	9	San Antonio Palopo	6	Junio	2023-06-14T00:00:00	2024-11-08T13:00:00	3	Temperatura mínima	24.6
176992	7	Sololá	712	San Antonio Palopó	9	San Antonio Palopo	6	Junio	2023-06-14T00:00:00	2024-11-08T13:00:00	5	Humedad	68
176993	7	Sololá	712	San Antonio Palopó	9	San Antonio Palopo	6	Junio	2023-06-14T00:00:00	2024-11-08T13:00:00	6	Velocidad del viento	6.4
176994	7	Sololá	712	San Antonio Palopó	9	San Antonio Palopo	6	Junio	2023-06-14T00:00:00	2024-11-08T13:00:00	7	Dirección del viento	6.44
176995	7	Sololá	712	San Antonio Palopó	9	San Antonio Palopo	6	Junio	2023-06-14T00:00:00	2024-11-08T13:00:00	1	Precipitación	0
176996	7	Sololá	712	San Antonio Palopó	9	San Antonio Palopo	6	Junio	2023-06-14T00:00:00	2024-11-08T13:00:00	8	Radiación solar	1017
176997	7	Sololá	712	San Antonio Palopó	9	San Antonio Palopo	6	Junio	2023-06-14T00:00:00	2024-11-08T14:00:00	2	Temperatura media	24.8
176998	7	Sololá	712	San Antonio Palopó	9	San Antonio Palopo	6	Junio	2023-06-14T00:00:00	2024-11-08T14:00:00	4	Temperatura máxima	26.1
176999	7	Sololá	712	San Antonio Palopó	9	San Antonio Palopo	6	Junio	2023-06-14T00:00:00	2024-11-08T14:00:00	3	Temperatura mínima	24.7
177000	7	Sololá	712	San Antonio Palopó	9	San Antonio Palopo	6	Junio	2023-06-14T00:00:00	2024-11-08T14:00:00	5	Humedad	71
177001	7	Sololá	712	San Antonio Palopó	9	San Antonio Palopo	6	Junio	2023-06-14T00:00:00	2024-11-08T14:00:00	6	Velocidad del viento	8
177002	7	Sololá	712	San Antonio Palopó	9	San Antonio Palopo	6	Junio	2023-06-14T00:00:00	2024-11-08T14:00:00	7	Dirección del viento	8.05
177003	7	Sololá	712	San Antonio Palopó	9	San Antonio Palopo	6	Junio	2023-06-14T00:00:00	2024-11-08T14:00:00	1	Precipitación	0
177004	7	Sololá	712	San Antonio Palopó	9	San Antonio Palopo	6	Junio	2023-06-14T00:00:00	2024-11-08T14:00:00	8	Radiación solar	938
177005	7	Sololá	712	San Antonio Palopó	9	San Antonio Palopo	6	Junio	2023-06-14T00:00:00	2024-11-08T15:00:00	2	Temperatura media	24.8
177006	7	Sololá	712	San Antonio Palopó	9	San Antonio Palopo	6	Junio	2023-06-14T00:00:00	2024-11-08T15:00:00	4	Temperatura máxima	25.1
177007	7	Sololá	712	San Antonio Palopó	9	San Antonio Palopo	6	Junio	2023-06-14T00:00:00	2024-11-08T15:00:00	3	Temperatura mínima	24.2
177008	7	Sololá	712	San Antonio Palopó	9	San Antonio Palopo	6	Junio	2023-06-14T00:00:00	2024-11-08T15:00:00	5	Humedad	73
177009	7	Sololá	712	San Antonio Palopó	9	San Antonio Palopo	6	Junio	2023-06-14T00:00:00	2024-11-08T15:00:00	6	Velocidad del viento	11.3
177010	7	Sololá	712	San Antonio Palopó	9	San Antonio Palopo	6	Junio	2023-06-14T00:00:00	2024-11-08T15:00:00	7	Dirección del viento	11.27
177011	7	Sololá	712	San Antonio Palopó	9	San Antonio Palopo	6	Junio	2023-06-14T00:00:00	2024-11-08T15:00:00	1	Precipitación	0
177012	7	Sololá	712	San Antonio Palopó	9	San Antonio Palopo	6	Junio	2023-06-14T00:00:00	2024-11-08T15:00:00	8	Radiación solar	817
177013	7	Sololá	712	San Antonio Palopó	9	San Antonio Palopo	6	Junio	2023-06-14T00:00:00	2024-11-08T16:00:00	2	Temperatura media	22.6
177014	7	Sololá	712	San Antonio Palopó	9	San Antonio Palopo	6	Junio	2023-06-14T00:00:00	2024-11-08T16:00:00	4	Temperatura máxima	25.1
177015	7	Sololá	712	San Antonio Palopó	9	San Antonio Palopo	6	Junio	2023-06-14T00:00:00	2024-11-08T16:00:00	3	Temperatura mínima	22.6
177016	7	Sololá	712	San Antonio Palopó	9	San Antonio Palopo	6	Junio	2023-06-14T00:00:00	2024-11-08T16:00:00	5	Humedad	79
177017	7	Sololá	712	San Antonio Palopó	9	San Antonio Palopo	6	Junio	2023-06-14T00:00:00	2024-11-08T16:00:00	6	Velocidad del viento	11.3
177018	7	Sololá	712	San Antonio Palopó	9	San Antonio Palopo	6	Junio	2023-06-14T00:00:00	2024-11-08T16:00:00	7	Dirección del viento	11.27
177019	7	Sololá	712	San Antonio Palopó	9	San Antonio Palopo	6	Junio	2023-06-14T00:00:00	2024-11-08T16:00:00	1	Precipitación	0
177020	7	Sololá	712	San Antonio Palopó	9	San Antonio Palopo	6	Junio	2023-06-14T00:00:00	2024-11-08T16:00:00	8	Radiación solar	496
177021	7	Sololá	712	San Antonio Palopó	9	San Antonio Palopo	6	Junio	2023-06-14T00:00:00	2024-11-08T17:00:00	2	Temperatura media	21
177022	7	Sololá	712	San Antonio Palopó	9	San Antonio Palopo	6	Junio	2023-06-14T00:00:00	2024-11-08T17:00:00	4	Temperatura máxima	22.8
177023	7	Sololá	712	San Antonio Palopó	9	San Antonio Palopo	6	Junio	2023-06-14T00:00:00	2024-11-08T17:00:00	3	Temperatura mínima	20.8
177024	7	Sololá	712	San Antonio Palopó	9	San Antonio Palopo	6	Junio	2023-06-14T00:00:00	2024-11-08T17:00:00	5	Humedad	83
177025	7	Sololá	712	San Antonio Palopó	9	San Antonio Palopo	6	Junio	2023-06-14T00:00:00	2024-11-08T17:00:00	6	Velocidad del viento	9.7
177026	7	Sololá	712	San Antonio Palopó	9	San Antonio Palopo	6	Junio	2023-06-14T00:00:00	2024-11-08T17:00:00	7	Dirección del viento	9.66
177027	7	Sololá	712	San Antonio Palopó	9	San Antonio Palopo	6	Junio	2023-06-14T00:00:00	2024-11-08T17:00:00	1	Precipitación	0
177028	7	Sololá	712	San Antonio Palopó	9	San Antonio Palopo	6	Junio	2023-06-14T00:00:00	2024-11-08T17:00:00	8	Radiación solar	74
177029	7	Sololá	712	San Antonio Palopó	9	San Antonio Palopo	6	Junio	2023-06-14T00:00:00	2024-11-08T18:00:00	2	Temperatura media	21.2
177030	7	Sololá	712	San Antonio Palopó	9	San Antonio Palopo	6	Junio	2023-06-14T00:00:00	2024-11-08T18:00:00	4	Temperatura máxima	21.4
177031	7	Sololá	712	San Antonio Palopó	9	San Antonio Palopo	6	Junio	2023-06-14T00:00:00	2024-11-08T18:00:00	3	Temperatura mínima	20.8
177032	7	Sololá	712	San Antonio Palopó	9	San Antonio Palopo	6	Junio	2023-06-14T00:00:00	2024-11-08T18:00:00	5	Humedad	83
177033	7	Sololá	712	San Antonio Palopó	9	San Antonio Palopo	6	Junio	2023-06-14T00:00:00	2024-11-08T18:00:00	6	Velocidad del viento	6.4
177034	7	Sololá	712	San Antonio Palopó	9	San Antonio Palopo	6	Junio	2023-06-14T00:00:00	2024-11-08T18:00:00	7	Dirección del viento	6.44
177035	7	Sololá	712	San Antonio Palopó	9	San Antonio Palopo	6	Junio	2023-06-14T00:00:00	2024-11-08T18:00:00	1	Precipitación	0
177036	7	Sololá	712	San Antonio Palopó	9	San Antonio Palopo	6	Junio	2023-06-14T00:00:00	2024-11-08T18:00:00	8	Radiación solar	66
177037	7	Sololá	712	San Antonio Palopó	9	San Antonio Palopo	6	Junio	2023-06-14T00:00:00	2024-11-08T19:00:00	2	Temperatura media	20.6
177038	7	Sololá	712	San Antonio Palopó	9	San Antonio Palopo	6	Junio	2023-06-14T00:00:00	2024-11-08T19:00:00	4	Temperatura máxima	21.3
177039	7	Sololá	712	San Antonio Palopó	9	San Antonio Palopo	6	Junio	2023-06-14T00:00:00	2024-11-08T19:00:00	3	Temperatura mínima	20.4
177040	7	Sololá	712	San Antonio Palopó	9	San Antonio Palopo	6	Junio	2023-06-14T00:00:00	2024-11-08T19:00:00	5	Humedad	86
177041	7	Sololá	712	San Antonio Palopó	9	San Antonio Palopo	6	Junio	2023-06-14T00:00:00	2024-11-08T19:00:00	6	Velocidad del viento	3.2
177042	7	Sololá	712	San Antonio Palopó	9	San Antonio Palopo	6	Junio	2023-06-14T00:00:00	2024-11-08T19:00:00	7	Dirección del viento	3.22
177043	7	Sololá	712	San Antonio Palopó	9	San Antonio Palopo	6	Junio	2023-06-14T00:00:00	2024-11-08T19:00:00	1	Precipitación	0
177044	7	Sololá	712	San Antonio Palopó	9	San Antonio Palopo	6	Junio	2023-06-14T00:00:00	2024-11-08T19:00:00	8	Radiación solar	0
177045	7	Sololá	712	San Antonio Palopó	9	San Antonio Palopo	6	Junio	2023-06-14T00:00:00	2024-11-08T20:00:00	2	Temperatura media	20.2
177046	7	Sololá	712	San Antonio Palopó	9	San Antonio Palopo	6	Junio	2023-06-14T00:00:00	2024-11-08T20:00:00	4	Temperatura máxima	20.7
177047	7	Sololá	712	San Antonio Palopó	9	San Antonio Palopo	6	Junio	2023-06-14T00:00:00	2024-11-08T20:00:00	3	Temperatura mínima	20.2
177048	7	Sololá	712	San Antonio Palopó	9	San Antonio Palopo	6	Junio	2023-06-14T00:00:00	2024-11-08T20:00:00	5	Humedad	85
177049	7	Sololá	712	San Antonio Palopó	9	San Antonio Palopo	6	Junio	2023-06-14T00:00:00	2024-11-08T20:00:00	6	Velocidad del viento	1.6
177050	7	Sololá	712	San Antonio Palopó	9	San Antonio Palopo	6	Junio	2023-06-14T00:00:00	2024-11-08T20:00:00	7	Dirección del viento	1.61
177051	7	Sololá	712	San Antonio Palopó	9	San Antonio Palopo	6	Junio	2023-06-14T00:00:00	2024-11-08T20:00:00	1	Precipitación	0
177052	7	Sololá	712	San Antonio Palopó	9	San Antonio Palopo	6	Junio	2023-06-14T00:00:00	2024-11-08T20:00:00	8	Radiación solar	0
177053	7	Sololá	712	San Antonio Palopó	9	San Antonio Palopo	6	Junio	2023-06-14T00:00:00	2024-11-08T21:00:00	2	Temperatura media	20
177054	7	Sololá	712	San Antonio Palopó	9	San Antonio Palopo	6	Junio	2023-06-14T00:00:00	2024-11-08T21:00:00	4	Temperatura máxima	20.4
177055	7	Sololá	712	San Antonio Palopó	9	San Antonio Palopo	6	Junio	2023-06-14T00:00:00	2024-11-08T21:00:00	3	Temperatura mínima	20
177056	7	Sololá	712	San Antonio Palopó	9	San Antonio Palopo	6	Junio	2023-06-14T00:00:00	2024-11-08T21:00:00	5	Humedad	84
177057	7	Sololá	712	San Antonio Palopó	9	San Antonio Palopo	6	Junio	2023-06-14T00:00:00	2024-11-08T21:00:00	6	Velocidad del viento	1.6
177058	7	Sololá	712	San Antonio Palopó	9	San Antonio Palopo	6	Junio	2023-06-14T00:00:00	2024-11-08T21:00:00	7	Dirección del viento	1.61
177059	7	Sololá	712	San Antonio Palopó	9	San Antonio Palopo	6	Junio	2023-06-14T00:00:00	2024-11-08T21:00:00	1	Precipitación	0
177060	7	Sololá	712	San Antonio Palopó	9	San Antonio Palopo	6	Junio	2023-06-14T00:00:00	2024-11-08T21:00:00	8	Radiación solar	0
177061	7	Sololá	712	San Antonio Palopó	9	San Antonio Palopo	6	Junio	2023-06-14T00:00:00	2024-11-08T22:00:00	2	Temperatura media	19.8
177062	7	Sololá	712	San Antonio Palopó	9	San Antonio Palopo	6	Junio	2023-06-14T00:00:00	2024-11-08T22:00:00	4	Temperatura máxima	20.1
177063	7	Sololá	712	San Antonio Palopó	9	San Antonio Palopo	6	Junio	2023-06-14T00:00:00	2024-11-08T22:00:00	3	Temperatura mínima	19.4
177064	7	Sololá	712	San Antonio Palopó	9	San Antonio Palopo	6	Junio	2023-06-14T00:00:00	2024-11-08T22:00:00	5	Humedad	86
177065	7	Sololá	712	San Antonio Palopó	9	San Antonio Palopo	6	Junio	2023-06-14T00:00:00	2024-11-08T22:00:00	6	Velocidad del viento	3.2
177066	7	Sololá	712	San Antonio Palopó	9	San Antonio Palopo	6	Junio	2023-06-14T00:00:00	2024-11-08T22:00:00	7	Dirección del viento	3.22
177067	7	Sololá	712	San Antonio Palopó	9	San Antonio Palopo	6	Junio	2023-06-14T00:00:00	2024-11-08T22:00:00	1	Precipitación	0
177068	7	Sololá	712	San Antonio Palopó	9	San Antonio Palopo	6	Junio	2023-06-14T00:00:00	2024-11-08T22:00:00	8	Radiación solar	0
177069	7	Sololá	712	San Antonio Palopó	9	San Antonio Palopo	6	Junio	2023-06-14T00:00:00	2024-11-08T23:00:00	2	Temperatura media	19.4
177070	7	Sololá	712	San Antonio Palopó	9	San Antonio Palopo	6	Junio	2023-06-14T00:00:00	2024-11-08T23:00:00	4	Temperatura máxima	19.8
177071	7	Sololá	712	San Antonio Palopó	9	San Antonio Palopo	6	Junio	2023-06-14T00:00:00	2024-11-08T23:00:00	3	Temperatura mínima	19.4
177072	7	Sololá	712	San Antonio Palopó	9	San Antonio Palopo	6	Junio	2023-06-14T00:00:00	2024-11-08T23:00:00	5	Humedad	87
177073	7	Sololá	712	San Antonio Palopó	9	San Antonio Palopo	6	Junio	2023-06-14T00:00:00	2024-11-08T23:00:00	6	Velocidad del viento	3.2
177074	7	Sololá	712	San Antonio Palopó	9	San Antonio Palopo	6	Junio	2023-06-14T00:00:00	2024-11-08T23:00:00	7	Dirección del viento	3.22
177075	7	Sololá	712	San Antonio Palopó	9	San Antonio Palopo	6	Junio	2023-06-14T00:00:00	2024-11-08T23:00:00	1	Precipitación	0
177076	7	Sololá	712	San Antonio Palopó	9	San Antonio Palopo	6	Junio	2023-06-14T00:00:00	2024-11-08T23:00:00	8	Radiación solar	0
177077	7	Sololá	712	San Antonio Palopó	9	San Antonio Palopo	6	Junio	2023-06-15T00:00:00	2024-11-08T00:00:00	2	Temperatura media	20.1
177078	7	Sololá	712	San Antonio Palopó	9	San Antonio Palopo	6	Junio	2023-06-15T00:00:00	2024-11-08T00:00:00	4	Temperatura máxima	20.2
177079	7	Sololá	712	San Antonio Palopó	9	San Antonio Palopo	6	Junio	2023-06-15T00:00:00	2024-11-08T00:00:00	3	Temperatura mínima	19.4
177080	7	Sololá	712	San Antonio Palopó	9	San Antonio Palopo	6	Junio	2023-06-15T00:00:00	2024-11-08T00:00:00	5	Humedad	84
177081	7	Sololá	712	San Antonio Palopó	9	San Antonio Palopo	6	Junio	2023-06-15T00:00:00	2024-11-08T00:00:00	6	Velocidad del viento	3.2
177082	7	Sololá	712	San Antonio Palopó	9	San Antonio Palopo	6	Junio	2023-06-15T00:00:00	2024-11-08T00:00:00	7	Dirección del viento	3.22
177083	7	Sololá	712	San Antonio Palopó	9	San Antonio Palopo	6	Junio	2023-06-15T00:00:00	2024-11-08T00:00:00	1	Precipitación	0
177084	7	Sololá	712	San Antonio Palopó	9	San Antonio Palopo	6	Junio	2023-06-15T00:00:00	2024-11-08T00:00:00	8	Radiación solar	0
177085	7	Sololá	712	San Antonio Palopó	9	San Antonio Palopo	6	Junio	2023-06-15T00:00:00	2024-11-08T01:00:00	2	Temperatura media	19.4
177086	7	Sololá	712	San Antonio Palopó	9	San Antonio Palopo	6	Junio	2023-06-15T00:00:00	2024-11-08T01:00:00	4	Temperatura máxima	20.1
177087	7	Sololá	712	San Antonio Palopó	9	San Antonio Palopo	6	Junio	2023-06-15T00:00:00	2024-11-08T01:00:00	3	Temperatura mínima	19.4
177088	7	Sololá	712	San Antonio Palopó	9	San Antonio Palopo	6	Junio	2023-06-15T00:00:00	2024-11-08T01:00:00	5	Humedad	83
177089	7	Sololá	712	San Antonio Palopó	9	San Antonio Palopo	6	Junio	2023-06-15T00:00:00	2024-11-08T01:00:00	6	Velocidad del viento	3.2
177090	7	Sololá	712	San Antonio Palopó	9	San Antonio Palopo	6	Junio	2023-06-15T00:00:00	2024-11-08T01:00:00	7	Dirección del viento	3.22
177091	7	Sololá	712	San Antonio Palopó	9	San Antonio Palopo	6	Junio	2023-06-15T00:00:00	2024-11-08T01:00:00	1	Precipitación	0
177092	7	Sololá	712	San Antonio Palopó	9	San Antonio Palopo	6	Junio	2023-06-15T00:00:00	2024-11-08T01:00:00	8	Radiación solar	0
177093	7	Sololá	712	San Antonio Palopó	9	San Antonio Palopo	6	Junio	2023-06-15T00:00:00	2024-11-08T02:00:00	2	Temperatura media	19.7
177094	7	Sololá	712	San Antonio Palopó	9	San Antonio Palopo	6	Junio	2023-06-15T00:00:00	2024-11-08T02:00:00	4	Temperatura máxima	19.9
177095	7	Sololá	712	San Antonio Palopó	9	San Antonio Palopo	6	Junio	2023-06-15T00:00:00	2024-11-08T02:00:00	3	Temperatura mínima	19.3
177096	7	Sololá	712	San Antonio Palopó	9	San Antonio Palopo	6	Junio	2023-06-15T00:00:00	2024-11-08T02:00:00	5	Humedad	84
177097	7	Sololá	712	San Antonio Palopó	9	San Antonio Palopo	6	Junio	2023-06-15T00:00:00	2024-11-08T02:00:00	6	Velocidad del viento	1.6
177098	7	Sololá	712	San Antonio Palopó	9	San Antonio Palopo	6	Junio	2023-06-15T00:00:00	2024-11-08T02:00:00	7	Dirección del viento	1.61
177099	7	Sololá	712	San Antonio Palopó	9	San Antonio Palopo	6	Junio	2023-06-15T00:00:00	2024-11-08T02:00:00	1	Precipitación	0
177100	7	Sololá	712	San Antonio Palopó	9	San Antonio Palopo	6	Junio	2023-06-15T00:00:00	2024-11-08T02:00:00	8	Radiación solar	0
177101	7	Sololá	712	San Antonio Palopó	9	San Antonio Palopo	6	Junio	2023-06-15T00:00:00	2024-11-08T03:00:00	2	Temperatura media	19.7
177102	7	Sololá	712	San Antonio Palopó	9	San Antonio Palopo	6	Junio	2023-06-15T00:00:00	2024-11-08T03:00:00	4	Temperatura máxima	19.7
177103	7	Sololá	712	San Antonio Palopó	9	San Antonio Palopo	6	Junio	2023-06-15T00:00:00	2024-11-08T03:00:00	3	Temperatura mínima	19.6
177104	7	Sololá	712	San Antonio Palopó	9	San Antonio Palopo	6	Junio	2023-06-15T00:00:00	2024-11-08T03:00:00	5	Humedad	83
177105	7	Sololá	712	San Antonio Palopó	9	San Antonio Palopo	6	Junio	2023-06-15T00:00:00	2024-11-08T03:00:00	6	Velocidad del viento	1.6
177106	7	Sololá	712	San Antonio Palopó	9	San Antonio Palopo	6	Junio	2023-06-15T00:00:00	2024-11-08T03:00:00	7	Dirección del viento	1.61
177107	7	Sololá	712	San Antonio Palopó	9	San Antonio Palopo	6	Junio	2023-06-15T00:00:00	2024-11-08T03:00:00	1	Precipitación	0
177108	7	Sololá	712	San Antonio Palopó	9	San Antonio Palopo	6	Junio	2023-06-15T00:00:00	2024-11-08T03:00:00	8	Radiación solar	0
177109	7	Sololá	712	San Antonio Palopó	9	San Antonio Palopo	6	Junio	2023-06-15T00:00:00	2024-11-08T04:00:00	2	Temperatura media	20
177110	7	Sololá	712	San Antonio Palopó	9	San Antonio Palopo	6	Junio	2023-06-15T00:00:00	2024-11-08T04:00:00	4	Temperatura máxima	20.2
177111	7	Sololá	712	San Antonio Palopó	9	San Antonio Palopo	6	Junio	2023-06-15T00:00:00	2024-11-08T04:00:00	3	Temperatura mínima	19.7
177112	7	Sololá	712	San Antonio Palopó	9	San Antonio Palopo	6	Junio	2023-06-15T00:00:00	2024-11-08T04:00:00	5	Humedad	81
177113	7	Sololá	712	San Antonio Palopó	9	San Antonio Palopo	6	Junio	2023-06-15T00:00:00	2024-11-08T04:00:00	6	Velocidad del viento	1.6
177114	7	Sololá	712	San Antonio Palopó	9	San Antonio Palopo	6	Junio	2023-06-15T00:00:00	2024-11-08T04:00:00	7	Dirección del viento	1.61
177115	7	Sololá	712	San Antonio Palopó	9	San Antonio Palopo	6	Junio	2023-06-15T00:00:00	2024-11-08T04:00:00	1	Precipitación	0
177116	7	Sololá	712	San Antonio Palopó	9	San Antonio Palopo	6	Junio	2023-06-15T00:00:00	2024-11-08T04:00:00	8	Radiación solar	0
177117	7	Sololá	712	San Antonio Palopó	9	San Antonio Palopo	6	Junio	2023-06-15T00:00:00	2024-11-08T05:00:00	2	Temperatura media	18.7
177118	7	Sololá	712	San Antonio Palopó	9	San Antonio Palopo	6	Junio	2023-06-15T00:00:00	2024-11-08T05:00:00	4	Temperatura máxima	20
177119	7	Sololá	712	San Antonio Palopó	9	San Antonio Palopo	6	Junio	2023-06-15T00:00:00	2024-11-08T05:00:00	3	Temperatura mínima	18.6
177120	7	Sololá	712	San Antonio Palopó	9	San Antonio Palopo	6	Junio	2023-06-15T00:00:00	2024-11-08T05:00:00	5	Humedad	85
177121	7	Sololá	712	San Antonio Palopó	9	San Antonio Palopo	6	Junio	2023-06-15T00:00:00	2024-11-08T05:00:00	6	Velocidad del viento	3.2
177122	7	Sololá	712	San Antonio Palopó	9	San Antonio Palopo	6	Junio	2023-06-15T00:00:00	2024-11-08T05:00:00	7	Dirección del viento	3.22
177123	7	Sololá	712	San Antonio Palopó	9	San Antonio Palopo	6	Junio	2023-06-15T00:00:00	2024-11-08T05:00:00	1	Precipitación	0
177124	7	Sololá	712	San Antonio Palopó	9	San Antonio Palopo	6	Junio	2023-06-15T00:00:00	2024-11-08T05:00:00	8	Radiación solar	0
177125	7	Sololá	712	San Antonio Palopó	9	San Antonio Palopo	6	Junio	2023-06-15T00:00:00	2024-11-08T06:00:00	2	Temperatura media	19.4
177126	7	Sololá	712	San Antonio Palopó	9	San Antonio Palopo	6	Junio	2023-06-15T00:00:00	2024-11-08T06:00:00	4	Temperatura máxima	19.4
177127	7	Sololá	712	San Antonio Palopó	9	San Antonio Palopo	6	Junio	2023-06-15T00:00:00	2024-11-08T06:00:00	3	Temperatura mínima	18.7
177128	7	Sololá	712	San Antonio Palopó	9	San Antonio Palopo	6	Junio	2023-06-15T00:00:00	2024-11-08T06:00:00	5	Humedad	78
177129	7	Sololá	712	San Antonio Palopó	9	San Antonio Palopo	6	Junio	2023-06-15T00:00:00	2024-11-08T06:00:00	6	Velocidad del viento	4.8
177130	7	Sololá	712	San Antonio Palopó	9	San Antonio Palopo	6	Junio	2023-06-15T00:00:00	2024-11-08T06:00:00	7	Dirección del viento	4.83
177131	7	Sololá	712	San Antonio Palopó	9	San Antonio Palopo	6	Junio	2023-06-15T00:00:00	2024-11-08T06:00:00	1	Precipitación	0
177132	7	Sololá	712	San Antonio Palopó	9	San Antonio Palopo	6	Junio	2023-06-15T00:00:00	2024-11-08T06:00:00	8	Radiación solar	5
177133	7	Sololá	712	San Antonio Palopó	9	San Antonio Palopo	6	Junio	2023-06-15T00:00:00	2024-11-08T07:00:00	2	Temperatura media	18.5
177134	7	Sololá	712	San Antonio Palopó	9	San Antonio Palopo	6	Junio	2023-06-15T00:00:00	2024-11-08T07:00:00	4	Temperatura máxima	19.3
177135	7	Sololá	712	San Antonio Palopó	9	San Antonio Palopo	6	Junio	2023-06-15T00:00:00	2024-11-08T07:00:00	3	Temperatura mínima	18.4
177136	7	Sololá	712	San Antonio Palopó	9	San Antonio Palopo	6	Junio	2023-06-15T00:00:00	2024-11-08T07:00:00	5	Humedad	84
177137	7	Sololá	712	San Antonio Palopó	9	San Antonio Palopo	6	Junio	2023-06-15T00:00:00	2024-11-08T07:00:00	6	Velocidad del viento	3.2
177138	7	Sololá	712	San Antonio Palopó	9	San Antonio Palopo	6	Junio	2023-06-15T00:00:00	2024-11-08T07:00:00	7	Dirección del viento	3.22
177139	7	Sololá	712	San Antonio Palopó	9	San Antonio Palopo	6	Junio	2023-06-15T00:00:00	2024-11-08T07:00:00	1	Precipitación	0
177140	7	Sololá	712	San Antonio Palopó	9	San Antonio Palopo	6	Junio	2023-06-15T00:00:00	2024-11-08T07:00:00	8	Radiación solar	33
177141	7	Sololá	712	San Antonio Palopó	9	San Antonio Palopo	6	Junio	2023-06-15T00:00:00	2024-11-08T08:00:00	2	Temperatura media	21
177142	7	Sololá	712	San Antonio Palopó	9	San Antonio Palopo	6	Junio	2023-06-15T00:00:00	2024-11-08T08:00:00	4	Temperatura máxima	21
177143	7	Sololá	712	San Antonio Palopó	9	San Antonio Palopo	6	Junio	2023-06-15T00:00:00	2024-11-08T08:00:00	3	Temperatura mínima	18.5
177144	7	Sololá	712	San Antonio Palopó	9	San Antonio Palopo	6	Junio	2023-06-15T00:00:00	2024-11-08T08:00:00	5	Humedad	79
177145	7	Sololá	712	San Antonio Palopó	9	San Antonio Palopo	6	Junio	2023-06-15T00:00:00	2024-11-08T08:00:00	6	Velocidad del viento	1.6
177146	7	Sololá	712	San Antonio Palopó	9	San Antonio Palopo	6	Junio	2023-06-15T00:00:00	2024-11-08T08:00:00	7	Dirección del viento	1.61
177147	7	Sololá	712	San Antonio Palopó	9	San Antonio Palopo	6	Junio	2023-06-15T00:00:00	2024-11-08T08:00:00	1	Precipitación	0
177148	7	Sololá	712	San Antonio Palopó	9	San Antonio Palopo	6	Junio	2023-06-15T00:00:00	2024-11-08T08:00:00	8	Radiación solar	217
177149	7	Sololá	712	San Antonio Palopó	9	San Antonio Palopo	6	Junio	2023-06-15T00:00:00	2024-11-08T09:00:00	2	Temperatura media	21.8
177150	7	Sololá	712	San Antonio Palopó	9	San Antonio Palopo	6	Junio	2023-06-15T00:00:00	2024-11-08T09:00:00	4	Temperatura máxima	21.8
177151	7	Sololá	712	San Antonio Palopó	9	San Antonio Palopo	6	Junio	2023-06-15T00:00:00	2024-11-08T09:00:00	3	Temperatura mínima	21
177152	7	Sololá	712	San Antonio Palopó	9	San Antonio Palopo	6	Junio	2023-06-15T00:00:00	2024-11-08T09:00:00	5	Humedad	75
177153	7	Sololá	712	San Antonio Palopó	9	San Antonio Palopo	6	Junio	2023-06-15T00:00:00	2024-11-08T09:00:00	6	Velocidad del viento	1.6
177154	7	Sololá	712	San Antonio Palopó	9	San Antonio Palopo	6	Junio	2023-06-15T00:00:00	2024-11-08T09:00:00	7	Dirección del viento	1.61
177155	7	Sololá	712	San Antonio Palopó	9	San Antonio Palopo	6	Junio	2023-06-15T00:00:00	2024-11-08T09:00:00	1	Precipitación	0
177156	7	Sololá	712	San Antonio Palopó	9	San Antonio Palopo	6	Junio	2023-06-15T00:00:00	2024-11-08T09:00:00	8	Radiación solar	540
177157	7	Sololá	712	San Antonio Palopó	9	San Antonio Palopo	6	Junio	2023-06-15T00:00:00	2024-11-08T10:00:00	2	Temperatura media	22.8
177158	7	Sololá	712	San Antonio Palopó	9	San Antonio Palopo	6	Junio	2023-06-15T00:00:00	2024-11-08T10:00:00	4	Temperatura máxima	22.8
177159	7	Sololá	712	San Antonio Palopó	9	San Antonio Palopo	6	Junio	2023-06-15T00:00:00	2024-11-08T10:00:00	3	Temperatura mínima	21.8
177160	7	Sololá	712	San Antonio Palopó	9	San Antonio Palopo	6	Junio	2023-06-15T00:00:00	2024-11-08T10:00:00	5	Humedad	76
177161	7	Sololá	712	San Antonio Palopó	9	San Antonio Palopo	6	Junio	2023-06-15T00:00:00	2024-11-08T10:00:00	6	Velocidad del viento	3.2
177162	7	Sololá	712	San Antonio Palopó	9	San Antonio Palopo	6	Junio	2023-06-15T00:00:00	2024-11-08T10:00:00	7	Dirección del viento	3.22
177163	7	Sololá	712	San Antonio Palopó	9	San Antonio Palopo	6	Junio	2023-06-15T00:00:00	2024-11-08T10:00:00	1	Precipitación	0
177164	7	Sololá	712	San Antonio Palopó	9	San Antonio Palopo	6	Junio	2023-06-15T00:00:00	2024-11-08T10:00:00	8	Radiación solar	734
177165	7	Sololá	712	San Antonio Palopó	9	San Antonio Palopo	6	Junio	2023-06-15T00:00:00	2024-11-08T11:00:00	2	Temperatura media	22.9
177166	7	Sololá	712	San Antonio Palopó	9	San Antonio Palopo	6	Junio	2023-06-15T00:00:00	2024-11-08T11:00:00	4	Temperatura máxima	23.4
177167	7	Sololá	712	San Antonio Palopó	9	San Antonio Palopo	6	Junio	2023-06-15T00:00:00	2024-11-08T11:00:00	3	Temperatura mínima	22.8
177168	7	Sololá	712	San Antonio Palopó	9	San Antonio Palopo	6	Junio	2023-06-15T00:00:00	2024-11-08T11:00:00	5	Humedad	75
177169	7	Sololá	712	San Antonio Palopó	9	San Antonio Palopo	6	Junio	2023-06-15T00:00:00	2024-11-08T11:00:00	6	Velocidad del viento	6.4
177170	7	Sololá	712	San Antonio Palopó	9	San Antonio Palopo	6	Junio	2023-06-15T00:00:00	2024-11-08T11:00:00	7	Dirección del viento	6.44
177171	7	Sololá	712	San Antonio Palopó	9	San Antonio Palopo	6	Junio	2023-06-15T00:00:00	2024-11-08T11:00:00	1	Precipitación	0
177172	7	Sololá	712	San Antonio Palopó	9	San Antonio Palopo	6	Junio	2023-06-15T00:00:00	2024-11-08T11:00:00	8	Radiación solar	596
177173	7	Sololá	712	San Antonio Palopó	9	San Antonio Palopo	6	Junio	2023-06-15T00:00:00	2024-11-08T12:00:00	2	Temperatura media	23.3
177174	7	Sololá	712	San Antonio Palopó	9	San Antonio Palopo	6	Junio	2023-06-15T00:00:00	2024-11-08T12:00:00	4	Temperatura máxima	23.3
177175	7	Sololá	712	San Antonio Palopó	9	San Antonio Palopo	6	Junio	2023-06-15T00:00:00	2024-11-08T12:00:00	3	Temperatura mínima	22.8
177176	7	Sololá	712	San Antonio Palopó	9	San Antonio Palopo	6	Junio	2023-06-15T00:00:00	2024-11-08T12:00:00	5	Humedad	78
177177	7	Sololá	712	San Antonio Palopó	9	San Antonio Palopo	6	Junio	2023-06-15T00:00:00	2024-11-08T12:00:00	6	Velocidad del viento	8
177178	7	Sololá	712	San Antonio Palopó	9	San Antonio Palopo	6	Junio	2023-06-15T00:00:00	2024-11-08T12:00:00	7	Dirección del viento	8.05
177179	7	Sololá	712	San Antonio Palopó	9	San Antonio Palopo	6	Junio	2023-06-15T00:00:00	2024-11-08T12:00:00	1	Precipitación	0
177180	7	Sololá	712	San Antonio Palopó	9	San Antonio Palopo	6	Junio	2023-06-15T00:00:00	2024-11-08T12:00:00	8	Radiación solar	361
177181	7	Sololá	712	San Antonio Palopó	9	San Antonio Palopo	6	Junio	2023-06-15T00:00:00	2024-11-08T13:00:00	2	Temperatura media	24.4
177182	7	Sololá	712	San Antonio Palopó	9	San Antonio Palopo	6	Junio	2023-06-15T00:00:00	2024-11-08T13:00:00	4	Temperatura máxima	25
177183	7	Sololá	712	San Antonio Palopó	9	San Antonio Palopo	6	Junio	2023-06-15T00:00:00	2024-11-08T13:00:00	3	Temperatura mínima	23.2
177184	7	Sololá	712	San Antonio Palopó	9	San Antonio Palopo	6	Junio	2023-06-15T00:00:00	2024-11-08T13:00:00	5	Humedad	76
177185	7	Sololá	712	San Antonio Palopó	9	San Antonio Palopo	6	Junio	2023-06-15T00:00:00	2024-11-08T13:00:00	6	Velocidad del viento	4.8
177186	7	Sololá	712	San Antonio Palopó	9	San Antonio Palopo	6	Junio	2023-06-15T00:00:00	2024-11-08T13:00:00	7	Dirección del viento	4.83
177187	7	Sololá	712	San Antonio Palopó	9	San Antonio Palopo	6	Junio	2023-06-15T00:00:00	2024-11-08T13:00:00	1	Precipitación	0
177188	7	Sololá	712	San Antonio Palopó	9	San Antonio Palopo	6	Junio	2023-06-15T00:00:00	2024-11-08T13:00:00	8	Radiación solar	651
177189	7	Sololá	712	San Antonio Palopó	9	San Antonio Palopo	6	Junio	2023-06-15T00:00:00	2024-11-08T14:00:00	2	Temperatura media	24.4
177190	7	Sololá	712	San Antonio Palopó	9	San Antonio Palopo	6	Junio	2023-06-15T00:00:00	2024-11-08T14:00:00	4	Temperatura máxima	25.1
177191	7	Sololá	712	San Antonio Palopó	9	San Antonio Palopo	6	Junio	2023-06-15T00:00:00	2024-11-08T14:00:00	3	Temperatura mínima	23.9
177192	7	Sololá	712	San Antonio Palopó	9	San Antonio Palopo	6	Junio	2023-06-15T00:00:00	2024-11-08T14:00:00	5	Humedad	74
177193	7	Sololá	712	San Antonio Palopó	9	San Antonio Palopo	6	Junio	2023-06-15T00:00:00	2024-11-08T14:00:00	6	Velocidad del viento	8
177194	7	Sololá	712	San Antonio Palopó	9	San Antonio Palopo	6	Junio	2023-06-15T00:00:00	2024-11-08T14:00:00	7	Dirección del viento	8.05
177195	7	Sololá	712	San Antonio Palopó	9	San Antonio Palopo	6	Junio	2023-06-15T00:00:00	2024-11-08T14:00:00	1	Precipitación	0
177196	7	Sololá	712	San Antonio Palopó	9	San Antonio Palopo	6	Junio	2023-06-15T00:00:00	2024-11-08T14:00:00	8	Radiación solar	913
177197	7	Sololá	712	San Antonio Palopó	9	San Antonio Palopo	6	Junio	2023-06-15T00:00:00	2024-11-08T15:00:00	2	Temperatura media	24.6
177198	7	Sololá	712	San Antonio Palopó	9	San Antonio Palopo	6	Junio	2023-06-15T00:00:00	2024-11-08T15:00:00	4	Temperatura máxima	25.8
177199	7	Sololá	712	San Antonio Palopó	9	San Antonio Palopo	6	Junio	2023-06-15T00:00:00	2024-11-08T15:00:00	3	Temperatura mínima	23.6
177200	7	Sololá	712	San Antonio Palopó	9	San Antonio Palopo	6	Junio	2023-06-15T00:00:00	2024-11-08T15:00:00	5	Humedad	76
177201	7	Sololá	712	San Antonio Palopó	9	San Antonio Palopo	6	Junio	2023-06-15T00:00:00	2024-11-08T15:00:00	6	Velocidad del viento	6.4
177202	7	Sololá	712	San Antonio Palopó	9	San Antonio Palopo	6	Junio	2023-06-15T00:00:00	2024-11-08T15:00:00	7	Dirección del viento	6.44
177203	7	Sololá	712	San Antonio Palopó	9	San Antonio Palopo	6	Junio	2023-06-15T00:00:00	2024-11-08T15:00:00	1	Precipitación	0
177204	7	Sololá	712	San Antonio Palopó	9	San Antonio Palopo	6	Junio	2023-06-15T00:00:00	2024-11-08T15:00:00	8	Radiación solar	659
177205	7	Sololá	712	San Antonio Palopó	9	San Antonio Palopo	6	Junio	2023-06-15T00:00:00	2024-11-08T16:00:00	2	Temperatura media	25.2
177206	7	Sololá	712	San Antonio Palopó	9	San Antonio Palopo	6	Junio	2023-06-15T00:00:00	2024-11-08T16:00:00	4	Temperatura máxima	25.7
177207	7	Sololá	712	San Antonio Palopó	9	San Antonio Palopo	6	Junio	2023-06-15T00:00:00	2024-11-08T16:00:00	3	Temperatura mínima	24.4
177208	7	Sololá	712	San Antonio Palopó	9	San Antonio Palopo	6	Junio	2023-06-15T00:00:00	2024-11-08T16:00:00	5	Humedad	73
177209	7	Sololá	712	San Antonio Palopó	9	San Antonio Palopo	6	Junio	2023-06-15T00:00:00	2024-11-08T16:00:00	6	Velocidad del viento	6.4
177210	7	Sololá	712	San Antonio Palopó	9	San Antonio Palopo	6	Junio	2023-06-15T00:00:00	2024-11-08T16:00:00	7	Dirección del viento	6.44
177211	7	Sololá	712	San Antonio Palopó	9	San Antonio Palopo	6	Junio	2023-06-15T00:00:00	2024-11-08T16:00:00	1	Precipitación	0
177212	7	Sololá	712	San Antonio Palopó	9	San Antonio Palopo	6	Junio	2023-06-15T00:00:00	2024-11-08T16:00:00	8	Radiación solar	627
177213	7	Sololá	712	San Antonio Palopó	9	San Antonio Palopo	6	Junio	2023-06-15T00:00:00	2024-11-08T17:00:00	2	Temperatura media	22.9
177214	7	Sololá	712	San Antonio Palopó	9	San Antonio Palopo	6	Junio	2023-06-15T00:00:00	2024-11-08T17:00:00	4	Temperatura máxima	25.3
177215	7	Sololá	712	San Antonio Palopó	9	San Antonio Palopo	6	Junio	2023-06-15T00:00:00	2024-11-08T17:00:00	3	Temperatura mínima	22.8
177216	7	Sololá	712	San Antonio Palopó	9	San Antonio Palopo	6	Junio	2023-06-15T00:00:00	2024-11-08T17:00:00	5	Humedad	79
177217	7	Sololá	712	San Antonio Palopó	9	San Antonio Palopo	6	Junio	2023-06-15T00:00:00	2024-11-08T17:00:00	6	Velocidad del viento	11.3
177218	7	Sololá	712	San Antonio Palopó	9	San Antonio Palopo	6	Junio	2023-06-15T00:00:00	2024-11-08T17:00:00	7	Dirección del viento	11.27
177219	7	Sololá	712	San Antonio Palopó	9	San Antonio Palopo	6	Junio	2023-06-15T00:00:00	2024-11-08T17:00:00	1	Precipitación	0
177220	7	Sololá	712	San Antonio Palopó	9	San Antonio Palopo	6	Junio	2023-06-15T00:00:00	2024-11-08T17:00:00	8	Radiación solar	338
177221	7	Sololá	712	San Antonio Palopó	9	San Antonio Palopo	6	Junio	2023-06-15T00:00:00	2024-11-08T18:00:00	2	Temperatura media	20.9
177222	7	Sololá	712	San Antonio Palopó	9	San Antonio Palopo	6	Junio	2023-06-15T00:00:00	2024-11-08T18:00:00	4	Temperatura máxima	22.9
177223	7	Sololá	712	San Antonio Palopó	9	San Antonio Palopo	6	Junio	2023-06-15T00:00:00	2024-11-08T18:00:00	3	Temperatura mínima	20.8
177224	7	Sololá	712	San Antonio Palopó	9	San Antonio Palopo	6	Junio	2023-06-15T00:00:00	2024-11-08T18:00:00	5	Humedad	87
177225	7	Sololá	712	San Antonio Palopó	9	San Antonio Palopo	6	Junio	2023-06-15T00:00:00	2024-11-08T18:00:00	6	Velocidad del viento	12.9
177226	7	Sololá	712	San Antonio Palopó	9	San Antonio Palopo	6	Junio	2023-06-15T00:00:00	2024-11-08T18:00:00	7	Dirección del viento	12.87
177227	7	Sololá	712	San Antonio Palopó	9	San Antonio Palopo	6	Junio	2023-06-15T00:00:00	2024-11-08T18:00:00	1	Precipitación	0
177228	7	Sololá	712	San Antonio Palopó	9	San Antonio Palopo	6	Junio	2023-06-15T00:00:00	2024-11-08T18:00:00	8	Radiación solar	111
177229	7	Sololá	712	San Antonio Palopó	9	San Antonio Palopo	6	Junio	2023-06-15T00:00:00	2024-11-08T19:00:00	2	Temperatura media	21
177230	7	Sololá	712	San Antonio Palopó	9	San Antonio Palopo	6	Junio	2023-06-15T00:00:00	2024-11-08T19:00:00	4	Temperatura máxima	21.1
177231	7	Sololá	712	San Antonio Palopó	9	San Antonio Palopo	6	Junio	2023-06-15T00:00:00	2024-11-08T19:00:00	3	Temperatura mínima	20.7
177232	7	Sololá	712	San Antonio Palopó	9	San Antonio Palopo	6	Junio	2023-06-15T00:00:00	2024-11-08T19:00:00	5	Humedad	86
177233	7	Sololá	712	San Antonio Palopó	9	San Antonio Palopo	6	Junio	2023-06-15T00:00:00	2024-11-08T19:00:00	6	Velocidad del viento	4.8
177234	7	Sololá	712	San Antonio Palopó	9	San Antonio Palopo	6	Junio	2023-06-15T00:00:00	2024-11-08T19:00:00	7	Dirección del viento	4.83
177235	7	Sololá	712	San Antonio Palopó	9	San Antonio Palopo	6	Junio	2023-06-15T00:00:00	2024-11-08T19:00:00	1	Precipitación	0
177236	7	Sololá	712	San Antonio Palopó	9	San Antonio Palopo	6	Junio	2023-06-15T00:00:00	2024-11-08T19:00:00	8	Radiación solar	0
177237	7	Sololá	712	San Antonio Palopó	9	San Antonio Palopo	6	Junio	2023-06-15T00:00:00	2024-11-08T20:00:00	2	Temperatura media	20.5
177238	7	Sololá	712	San Antonio Palopó	9	San Antonio Palopo	6	Junio	2023-06-15T00:00:00	2024-11-08T20:00:00	4	Temperatura máxima	21
177239	7	Sololá	712	San Antonio Palopó	9	San Antonio Palopo	6	Junio	2023-06-15T00:00:00	2024-11-08T20:00:00	3	Temperatura mínima	20.5
177240	7	Sololá	712	San Antonio Palopó	9	San Antonio Palopo	6	Junio	2023-06-15T00:00:00	2024-11-08T20:00:00	5	Humedad	86
177241	7	Sololá	712	San Antonio Palopó	9	San Antonio Palopo	6	Junio	2023-06-15T00:00:00	2024-11-08T20:00:00	6	Velocidad del viento	8
177242	7	Sololá	712	San Antonio Palopó	9	San Antonio Palopo	6	Junio	2023-06-15T00:00:00	2024-11-08T20:00:00	7	Dirección del viento	8.05
177243	7	Sololá	712	San Antonio Palopó	9	San Antonio Palopo	6	Junio	2023-06-15T00:00:00	2024-11-08T20:00:00	1	Precipitación	0
177244	7	Sololá	712	San Antonio Palopó	9	San Antonio Palopo	6	Junio	2023-06-15T00:00:00	2024-11-08T20:00:00	8	Radiación solar	0
177245	7	Sololá	712	San Antonio Palopó	9	San Antonio Palopo	6	Junio	2023-06-15T00:00:00	2024-11-08T21:00:00	2	Temperatura media	20.5
177246	7	Sololá	712	San Antonio Palopó	9	San Antonio Palopo	6	Junio	2023-06-15T00:00:00	2024-11-08T21:00:00	4	Temperatura máxima	20.8
177247	7	Sololá	712	San Antonio Palopó	9	San Antonio Palopo	6	Junio	2023-06-15T00:00:00	2024-11-08T21:00:00	3	Temperatura mínima	20.4
177248	7	Sololá	712	San Antonio Palopó	9	San Antonio Palopo	6	Junio	2023-06-15T00:00:00	2024-11-08T21:00:00	5	Humedad	88
177249	7	Sololá	712	San Antonio Palopó	9	San Antonio Palopo	6	Junio	2023-06-15T00:00:00	2024-11-08T21:00:00	6	Velocidad del viento	4.8
177250	7	Sololá	712	San Antonio Palopó	9	San Antonio Palopo	6	Junio	2023-06-15T00:00:00	2024-11-08T21:00:00	7	Dirección del viento	4.83
177251	7	Sololá	712	San Antonio Palopó	9	San Antonio Palopo	6	Junio	2023-06-15T00:00:00	2024-11-08T21:00:00	1	Precipitación	0.6
177252	7	Sololá	712	San Antonio Palopó	9	San Antonio Palopo	6	Junio	2023-06-15T00:00:00	2024-11-08T21:00:00	8	Radiación solar	0
177253	7	Sololá	712	San Antonio Palopó	9	San Antonio Palopo	6	Junio	2023-06-15T00:00:00	2024-11-08T22:00:00	2	Temperatura media	20.3
177254	7	Sololá	712	San Antonio Palopó	9	San Antonio Palopo	6	Junio	2023-06-15T00:00:00	2024-11-08T22:00:00	4	Temperatura máxima	20.5
177255	7	Sololá	712	San Antonio Palopó	9	San Antonio Palopo	6	Junio	2023-06-15T00:00:00	2024-11-08T22:00:00	3	Temperatura mínima	20.2
177256	7	Sololá	712	San Antonio Palopó	9	San Antonio Palopo	6	Junio	2023-06-15T00:00:00	2024-11-08T22:00:00	5	Humedad	87
177257	7	Sololá	712	San Antonio Palopó	9	San Antonio Palopo	6	Junio	2023-06-15T00:00:00	2024-11-08T22:00:00	6	Velocidad del viento	1.6
177258	7	Sololá	712	San Antonio Palopó	9	San Antonio Palopo	6	Junio	2023-06-15T00:00:00	2024-11-08T22:00:00	7	Dirección del viento	1.61
177259	7	Sololá	712	San Antonio Palopó	9	San Antonio Palopo	6	Junio	2023-06-15T00:00:00	2024-11-08T22:00:00	1	Precipitación	0.4
177260	7	Sololá	712	San Antonio Palopó	9	San Antonio Palopo	6	Junio	2023-06-15T00:00:00	2024-11-08T22:00:00	8	Radiación solar	0
177261	7	Sololá	712	San Antonio Palopó	9	San Antonio Palopo	6	Junio	2023-06-15T00:00:00	2024-11-08T23:00:00	2	Temperatura media	20.2
177262	7	Sololá	712	San Antonio Palopó	9	San Antonio Palopo	6	Junio	2023-06-15T00:00:00	2024-11-08T23:00:00	4	Temperatura máxima	20.3
177263	7	Sololá	712	San Antonio Palopó	9	San Antonio Palopo	6	Junio	2023-06-15T00:00:00	2024-11-08T23:00:00	3	Temperatura mínima	19.7
177264	7	Sololá	712	San Antonio Palopó	9	San Antonio Palopo	6	Junio	2023-06-15T00:00:00	2024-11-08T23:00:00	5	Humedad	88
177265	7	Sololá	712	San Antonio Palopó	9	San Antonio Palopo	6	Junio	2023-06-15T00:00:00	2024-11-08T23:00:00	6	Velocidad del viento	3.2
177266	7	Sololá	712	San Antonio Palopó	9	San Antonio Palopo	6	Junio	2023-06-15T00:00:00	2024-11-08T23:00:00	7	Dirección del viento	3.22
177267	7	Sololá	712	San Antonio Palopó	9	San Antonio Palopo	6	Junio	2023-06-15T00:00:00	2024-11-08T23:00:00	1	Precipitación	0
177268	7	Sololá	712	San Antonio Palopó	9	San Antonio Palopo	6	Junio	2023-06-15T00:00:00	2024-11-08T23:00:00	8	Radiación solar	0
177269	7	Sololá	712	San Antonio Palopó	9	San Antonio Palopo	6	Junio	2023-06-16T00:00:00	2024-11-08T00:00:00	2	Temperatura media	20.1
177270	7	Sololá	712	San Antonio Palopó	9	San Antonio Palopo	6	Junio	2023-06-16T00:00:00	2024-11-08T00:00:00	4	Temperatura máxima	20.5
177271	7	Sololá	712	San Antonio Palopó	9	San Antonio Palopo	6	Junio	2023-06-16T00:00:00	2024-11-08T00:00:00	3	Temperatura mínima	20
177272	7	Sololá	712	San Antonio Palopó	9	San Antonio Palopo	6	Junio	2023-06-16T00:00:00	2024-11-08T00:00:00	5	Humedad	85
177273	7	Sololá	712	San Antonio Palopó	9	San Antonio Palopo	6	Junio	2023-06-16T00:00:00	2024-11-08T00:00:00	6	Velocidad del viento	3.2
177274	7	Sololá	712	San Antonio Palopó	9	San Antonio Palopo	6	Junio	2023-06-16T00:00:00	2024-11-08T00:00:00	7	Dirección del viento	3.22
177275	7	Sololá	712	San Antonio Palopó	9	San Antonio Palopo	6	Junio	2023-06-16T00:00:00	2024-11-08T00:00:00	1	Precipitación	0
177276	7	Sololá	712	San Antonio Palopó	9	San Antonio Palopo	6	Junio	2023-06-16T00:00:00	2024-11-08T00:00:00	8	Radiación solar	0
177277	7	Sololá	712	San Antonio Palopó	9	San Antonio Palopo	6	Junio	2023-06-16T00:00:00	2024-11-08T01:00:00	2	Temperatura media	19.8
177278	7	Sololá	712	San Antonio Palopó	9	San Antonio Palopo	6	Junio	2023-06-16T00:00:00	2024-11-08T01:00:00	4	Temperatura máxima	20.1
177279	7	Sololá	712	San Antonio Palopó	9	San Antonio Palopo	6	Junio	2023-06-16T00:00:00	2024-11-08T01:00:00	3	Temperatura mínima	19.5
177280	7	Sololá	712	San Antonio Palopó	9	San Antonio Palopo	6	Junio	2023-06-16T00:00:00	2024-11-08T01:00:00	5	Humedad	85
177281	7	Sololá	712	San Antonio Palopó	9	San Antonio Palopo	6	Junio	2023-06-16T00:00:00	2024-11-08T01:00:00	6	Velocidad del viento	4.8
177282	7	Sololá	712	San Antonio Palopó	9	San Antonio Palopo	6	Junio	2023-06-16T00:00:00	2024-11-08T01:00:00	7	Dirección del viento	4.83
177283	7	Sololá	712	San Antonio Palopó	9	San Antonio Palopo	6	Junio	2023-06-16T00:00:00	2024-11-08T01:00:00	1	Precipitación	0
177284	7	Sololá	712	San Antonio Palopó	9	San Antonio Palopo	6	Junio	2023-06-16T00:00:00	2024-11-08T01:00:00	8	Radiación solar	0
177285	7	Sololá	712	San Antonio Palopó	9	San Antonio Palopo	6	Junio	2023-06-16T00:00:00	2024-11-08T02:00:00	2	Temperatura media	19.8
177286	7	Sololá	712	San Antonio Palopó	9	San Antonio Palopo	6	Junio	2023-06-16T00:00:00	2024-11-08T02:00:00	4	Temperatura máxima	19.9
177287	7	Sololá	712	San Antonio Palopó	9	San Antonio Palopo	6	Junio	2023-06-16T00:00:00	2024-11-08T02:00:00	3	Temperatura mínima	19.7
177288	7	Sololá	712	San Antonio Palopó	9	San Antonio Palopo	6	Junio	2023-06-16T00:00:00	2024-11-08T02:00:00	5	Humedad	85
177289	7	Sololá	712	San Antonio Palopó	9	San Antonio Palopo	6	Junio	2023-06-16T00:00:00	2024-11-08T02:00:00	6	Velocidad del viento	3.2
177290	7	Sololá	712	San Antonio Palopó	9	San Antonio Palopo	6	Junio	2023-06-16T00:00:00	2024-11-08T02:00:00	7	Dirección del viento	3.22
177291	7	Sololá	712	San Antonio Palopó	9	San Antonio Palopo	6	Junio	2023-06-16T00:00:00	2024-11-08T02:00:00	1	Precipitación	0
177292	7	Sololá	712	San Antonio Palopó	9	San Antonio Palopo	6	Junio	2023-06-16T00:00:00	2024-11-08T02:00:00	8	Radiación solar	0
177293	7	Sololá	712	San Antonio Palopó	9	San Antonio Palopo	6	Junio	2023-06-16T00:00:00	2024-11-08T03:00:00	2	Temperatura media	19
177294	7	Sololá	712	San Antonio Palopó	9	San Antonio Palopo	6	Junio	2023-06-16T00:00:00	2024-11-08T03:00:00	4	Temperatura máxima	19.9
177295	7	Sololá	712	San Antonio Palopó	9	San Antonio Palopo	6	Junio	2023-06-16T00:00:00	2024-11-08T03:00:00	3	Temperatura mínima	19
177296	7	Sololá	712	San Antonio Palopó	9	San Antonio Palopo	6	Junio	2023-06-16T00:00:00	2024-11-08T03:00:00	5	Humedad	87
177297	7	Sololá	712	San Antonio Palopó	9	San Antonio Palopo	6	Junio	2023-06-16T00:00:00	2024-11-08T03:00:00	6	Velocidad del viento	3.2
177298	7	Sololá	712	San Antonio Palopó	9	San Antonio Palopo	6	Junio	2023-06-16T00:00:00	2024-11-08T03:00:00	7	Dirección del viento	3.22
177299	7	Sololá	712	San Antonio Palopó	9	San Antonio Palopo	6	Junio	2023-06-16T00:00:00	2024-11-08T03:00:00	1	Precipitación	0
177300	7	Sololá	712	San Antonio Palopó	9	San Antonio Palopo	6	Junio	2023-06-16T00:00:00	2024-11-08T03:00:00	8	Radiación solar	0
177301	7	Sololá	712	San Antonio Palopó	9	San Antonio Palopo	6	Junio	2023-06-16T00:00:00	2024-11-08T04:00:00	2	Temperatura media	19.3
177302	7	Sololá	712	San Antonio Palopó	9	San Antonio Palopo	6	Junio	2023-06-16T00:00:00	2024-11-08T04:00:00	4	Temperatura máxima	19.7
177303	7	Sololá	712	San Antonio Palopó	9	San Antonio Palopo	6	Junio	2023-06-16T00:00:00	2024-11-08T04:00:00	3	Temperatura mínima	19
177304	7	Sololá	712	San Antonio Palopó	9	San Antonio Palopo	6	Junio	2023-06-16T00:00:00	2024-11-08T04:00:00	5	Humedad	79
177305	7	Sololá	712	San Antonio Palopó	9	San Antonio Palopo	6	Junio	2023-06-16T00:00:00	2024-11-08T04:00:00	6	Velocidad del viento	6.4
177306	7	Sololá	712	San Antonio Palopó	9	San Antonio Palopo	6	Junio	2023-06-16T00:00:00	2024-11-08T04:00:00	7	Dirección del viento	6.44
177307	7	Sololá	712	San Antonio Palopó	9	San Antonio Palopo	6	Junio	2023-06-16T00:00:00	2024-11-08T04:00:00	1	Precipitación	0
177308	7	Sololá	712	San Antonio Palopó	9	San Antonio Palopo	6	Junio	2023-06-16T00:00:00	2024-11-08T04:00:00	8	Radiación solar	0
177309	7	Sololá	712	San Antonio Palopó	9	San Antonio Palopo	6	Junio	2023-06-16T00:00:00	2024-11-08T05:00:00	2	Temperatura media	19.2
177310	7	Sololá	712	San Antonio Palopó	9	San Antonio Palopo	6	Junio	2023-06-16T00:00:00	2024-11-08T05:00:00	4	Temperatura máxima	19.6
177311	7	Sololá	712	San Antonio Palopó	9	San Antonio Palopo	6	Junio	2023-06-16T00:00:00	2024-11-08T05:00:00	3	Temperatura mínima	19.1
177312	7	Sololá	712	San Antonio Palopó	9	San Antonio Palopo	6	Junio	2023-06-16T00:00:00	2024-11-08T05:00:00	5	Humedad	82
177313	7	Sololá	712	San Antonio Palopó	9	San Antonio Palopo	6	Junio	2023-06-16T00:00:00	2024-11-08T05:00:00	6	Velocidad del viento	4.8
177314	7	Sololá	712	San Antonio Palopó	9	San Antonio Palopo	6	Junio	2023-06-16T00:00:00	2024-11-08T05:00:00	7	Dirección del viento	4.83
177315	7	Sololá	712	San Antonio Palopó	9	San Antonio Palopo	6	Junio	2023-06-16T00:00:00	2024-11-08T05:00:00	1	Precipitación	0
177316	7	Sololá	712	San Antonio Palopó	9	San Antonio Palopo	6	Junio	2023-06-16T00:00:00	2024-11-08T05:00:00	8	Radiación solar	0
177317	7	Sololá	712	San Antonio Palopó	9	San Antonio Palopo	6	Junio	2023-06-16T00:00:00	2024-11-08T06:00:00	2	Temperatura media	18.5
177318	7	Sololá	712	San Antonio Palopó	9	San Antonio Palopo	6	Junio	2023-06-16T00:00:00	2024-11-08T06:00:00	4	Temperatura máxima	19.2
177319	7	Sololá	712	San Antonio Palopó	9	San Antonio Palopo	6	Junio	2023-06-16T00:00:00	2024-11-08T06:00:00	3	Temperatura mínima	17.9
177320	7	Sololá	712	San Antonio Palopó	9	San Antonio Palopo	6	Junio	2023-06-16T00:00:00	2024-11-08T06:00:00	5	Humedad	79
177321	7	Sololá	712	San Antonio Palopó	9	San Antonio Palopo	6	Junio	2023-06-16T00:00:00	2024-11-08T06:00:00	6	Velocidad del viento	3.2
177322	7	Sololá	712	San Antonio Palopó	9	San Antonio Palopo	6	Junio	2023-06-16T00:00:00	2024-11-08T06:00:00	7	Dirección del viento	3.22
177323	7	Sololá	712	San Antonio Palopó	9	San Antonio Palopo	6	Junio	2023-06-16T00:00:00	2024-11-08T06:00:00	1	Precipitación	0
177324	7	Sololá	712	San Antonio Palopó	9	San Antonio Palopo	6	Junio	2023-06-16T00:00:00	2024-11-08T06:00:00	8	Radiación solar	3
177325	7	Sololá	712	San Antonio Palopó	9	San Antonio Palopo	6	Junio	2023-06-16T00:00:00	2024-11-08T07:00:00	2	Temperatura media	19.1
177326	7	Sololá	712	San Antonio Palopó	9	San Antonio Palopo	6	Junio	2023-06-16T00:00:00	2024-11-08T07:00:00	4	Temperatura máxima	19.1
177327	7	Sololá	712	San Antonio Palopó	9	San Antonio Palopo	6	Junio	2023-06-16T00:00:00	2024-11-08T07:00:00	3	Temperatura mínima	18.1
177328	7	Sololá	712	San Antonio Palopó	9	San Antonio Palopo	6	Junio	2023-06-16T00:00:00	2024-11-08T07:00:00	5	Humedad	78
177329	7	Sololá	712	San Antonio Palopó	9	San Antonio Palopo	6	Junio	2023-06-16T00:00:00	2024-11-08T07:00:00	6	Velocidad del viento	4.8
177330	7	Sololá	712	San Antonio Palopó	9	San Antonio Palopo	6	Junio	2023-06-16T00:00:00	2024-11-08T07:00:00	7	Dirección del viento	4.83
177331	7	Sololá	712	San Antonio Palopó	9	San Antonio Palopo	6	Junio	2023-06-16T00:00:00	2024-11-08T07:00:00	1	Precipitación	0
177332	7	Sololá	712	San Antonio Palopó	9	San Antonio Palopo	6	Junio	2023-06-16T00:00:00	2024-11-08T07:00:00	8	Radiación solar	19
177333	7	Sololá	712	San Antonio Palopó	9	San Antonio Palopo	6	Junio	2023-06-16T00:00:00	2024-11-08T08:00:00	2	Temperatura media	20.7
177334	7	Sololá	712	San Antonio Palopó	9	San Antonio Palopo	6	Junio	2023-06-16T00:00:00	2024-11-08T08:00:00	4	Temperatura máxima	20.7
177335	7	Sololá	712	San Antonio Palopó	9	San Antonio Palopo	6	Junio	2023-06-16T00:00:00	2024-11-08T08:00:00	3	Temperatura mínima	18.3
177336	7	Sololá	712	San Antonio Palopó	9	San Antonio Palopo	6	Junio	2023-06-16T00:00:00	2024-11-08T08:00:00	5	Humedad	78
177337	7	Sololá	712	San Antonio Palopó	9	San Antonio Palopo	6	Junio	2023-06-16T00:00:00	2024-11-08T08:00:00	6	Velocidad del viento	3.2
177338	7	Sololá	712	San Antonio Palopó	9	San Antonio Palopo	6	Junio	2023-06-16T00:00:00	2024-11-08T08:00:00	7	Dirección del viento	3.22
177339	7	Sololá	712	San Antonio Palopó	9	San Antonio Palopo	6	Junio	2023-06-16T00:00:00	2024-11-08T08:00:00	1	Precipitación	0
177340	7	Sololá	712	San Antonio Palopó	9	San Antonio Palopo	6	Junio	2023-06-16T00:00:00	2024-11-08T08:00:00	8	Radiación solar	223
177341	7	Sololá	712	San Antonio Palopó	9	San Antonio Palopo	6	Junio	2023-06-16T00:00:00	2024-11-08T09:00:00	2	Temperatura media	21.8
177342	7	Sololá	712	San Antonio Palopó	9	San Antonio Palopo	6	Junio	2023-06-16T00:00:00	2024-11-08T09:00:00	4	Temperatura máxima	21.9
177343	7	Sololá	712	San Antonio Palopó	9	San Antonio Palopo	6	Junio	2023-06-16T00:00:00	2024-11-08T09:00:00	3	Temperatura mínima	20.7
177344	7	Sololá	712	San Antonio Palopó	9	San Antonio Palopo	6	Junio	2023-06-16T00:00:00	2024-11-08T09:00:00	5	Humedad	74
177345	7	Sololá	712	San Antonio Palopó	9	San Antonio Palopo	6	Junio	2023-06-16T00:00:00	2024-11-08T09:00:00	6	Velocidad del viento	1.6
177346	7	Sololá	712	San Antonio Palopó	9	San Antonio Palopo	6	Junio	2023-06-16T00:00:00	2024-11-08T09:00:00	7	Dirección del viento	1.61
177347	7	Sololá	712	San Antonio Palopó	9	San Antonio Palopo	6	Junio	2023-06-16T00:00:00	2024-11-08T09:00:00	1	Precipitación	0
177348	7	Sololá	712	San Antonio Palopó	9	San Antonio Palopo	6	Junio	2023-06-16T00:00:00	2024-11-08T09:00:00	8	Radiación solar	564
177349	7	Sololá	712	San Antonio Palopó	9	San Antonio Palopo	6	Junio	2023-06-16T00:00:00	2024-11-08T10:00:00	2	Temperatura media	23.6
177350	7	Sololá	712	San Antonio Palopó	9	San Antonio Palopo	6	Junio	2023-06-16T00:00:00	2024-11-08T10:00:00	4	Temperatura máxima	23.6
177351	7	Sololá	712	San Antonio Palopó	9	San Antonio Palopo	6	Junio	2023-06-16T00:00:00	2024-11-08T10:00:00	3	Temperatura mínima	21.8
177352	7	Sololá	712	San Antonio Palopó	9	San Antonio Palopo	6	Junio	2023-06-16T00:00:00	2024-11-08T10:00:00	5	Humedad	67
177353	7	Sololá	712	San Antonio Palopó	9	San Antonio Palopo	6	Junio	2023-06-16T00:00:00	2024-11-08T10:00:00	6	Velocidad del viento	3.2
177354	7	Sololá	712	San Antonio Palopó	9	San Antonio Palopo	6	Junio	2023-06-16T00:00:00	2024-11-08T10:00:00	7	Dirección del viento	3.22
177355	7	Sololá	712	San Antonio Palopó	9	San Antonio Palopo	6	Junio	2023-06-16T00:00:00	2024-11-08T10:00:00	1	Precipitación	0
177356	7	Sololá	712	San Antonio Palopó	9	San Antonio Palopo	6	Junio	2023-06-16T00:00:00	2024-11-08T10:00:00	8	Radiación solar	758
177357	7	Sololá	712	San Antonio Palopó	9	San Antonio Palopo	6	Junio	2023-06-16T00:00:00	2024-11-08T11:00:00	2	Temperatura media	24.7
177358	7	Sololá	712	San Antonio Palopó	9	San Antonio Palopo	6	Junio	2023-06-16T00:00:00	2024-11-08T11:00:00	4	Temperatura máxima	24.7
177359	7	Sololá	712	San Antonio Palopó	9	San Antonio Palopo	6	Junio	2023-06-16T00:00:00	2024-11-08T11:00:00	3	Temperatura mínima	23.3
177360	7	Sololá	712	San Antonio Palopó	9	San Antonio Palopo	6	Junio	2023-06-16T00:00:00	2024-11-08T11:00:00	5	Humedad	65
177361	7	Sololá	712	San Antonio Palopó	9	San Antonio Palopo	6	Junio	2023-06-16T00:00:00	2024-11-08T11:00:00	6	Velocidad del viento	4.8
177362	7	Sololá	712	San Antonio Palopó	9	San Antonio Palopo	6	Junio	2023-06-16T00:00:00	2024-11-08T11:00:00	7	Dirección del viento	4.83
177363	7	Sololá	712	San Antonio Palopó	9	San Antonio Palopo	6	Junio	2023-06-16T00:00:00	2024-11-08T11:00:00	1	Precipitación	0
177364	7	Sololá	712	San Antonio Palopó	9	San Antonio Palopo	6	Junio	2023-06-16T00:00:00	2024-11-08T11:00:00	8	Radiación solar	664
177365	7	Sololá	712	San Antonio Palopó	9	San Antonio Palopo	6	Junio	2023-06-16T00:00:00	2024-11-08T12:00:00	2	Temperatura media	24.9
177366	7	Sololá	712	San Antonio Palopó	9	San Antonio Palopo	6	Junio	2023-06-16T00:00:00	2024-11-08T12:00:00	4	Temperatura máxima	25.3
177367	7	Sololá	712	San Antonio Palopó	9	San Antonio Palopo	6	Junio	2023-06-16T00:00:00	2024-11-08T12:00:00	3	Temperatura mínima	24.7
177368	7	Sololá	712	San Antonio Palopó	9	San Antonio Palopo	6	Junio	2023-06-16T00:00:00	2024-11-08T12:00:00	5	Humedad	65
177369	7	Sololá	712	San Antonio Palopó	9	San Antonio Palopo	6	Junio	2023-06-16T00:00:00	2024-11-08T12:00:00	6	Velocidad del viento	6.4
177370	7	Sololá	712	San Antonio Palopó	9	San Antonio Palopo	6	Junio	2023-06-16T00:00:00	2024-11-08T12:00:00	7	Dirección del viento	6.44
177371	7	Sololá	712	San Antonio Palopó	9	San Antonio Palopo	6	Junio	2023-06-16T00:00:00	2024-11-08T12:00:00	1	Precipitación	0
177372	7	Sololá	712	San Antonio Palopó	9	San Antonio Palopo	6	Junio	2023-06-16T00:00:00	2024-11-08T12:00:00	8	Radiación solar	887
177373	7	Sololá	712	San Antonio Palopó	9	San Antonio Palopo	6	Junio	2023-06-16T00:00:00	2024-11-08T13:00:00	2	Temperatura media	24.7
177374	7	Sololá	712	San Antonio Palopó	9	San Antonio Palopo	6	Junio	2023-06-16T00:00:00	2024-11-08T13:00:00	4	Temperatura máxima	25.2
177375	7	Sololá	712	San Antonio Palopó	9	San Antonio Palopo	6	Junio	2023-06-16T00:00:00	2024-11-08T13:00:00	3	Temperatura mínima	23.8
177376	7	Sololá	712	San Antonio Palopó	9	San Antonio Palopo	6	Junio	2023-06-16T00:00:00	2024-11-08T13:00:00	5	Humedad	71
177377	7	Sololá	712	San Antonio Palopó	9	San Antonio Palopo	6	Junio	2023-06-16T00:00:00	2024-11-08T13:00:00	6	Velocidad del viento	9.7
177378	7	Sololá	712	San Antonio Palopó	9	San Antonio Palopo	6	Junio	2023-06-16T00:00:00	2024-11-08T13:00:00	7	Dirección del viento	9.66
177379	7	Sololá	712	San Antonio Palopó	9	San Antonio Palopo	6	Junio	2023-06-16T00:00:00	2024-11-08T13:00:00	1	Precipitación	0
177380	7	Sololá	712	San Antonio Palopó	9	San Antonio Palopo	6	Junio	2023-06-16T00:00:00	2024-11-08T13:00:00	8	Radiación solar	689
177381	7	Sololá	712	San Antonio Palopó	9	San Antonio Palopo	6	Junio	2023-06-16T00:00:00	2024-11-08T14:00:00	2	Temperatura media	23.6
177382	7	Sololá	712	San Antonio Palopó	9	San Antonio Palopo	6	Junio	2023-06-16T00:00:00	2024-11-08T14:00:00	4	Temperatura máxima	24.7
177383	7	Sololá	712	San Antonio Palopó	9	San Antonio Palopo	6	Junio	2023-06-16T00:00:00	2024-11-08T14:00:00	3	Temperatura mínima	23.3
177384	7	Sololá	712	San Antonio Palopó	9	San Antonio Palopo	6	Junio	2023-06-16T00:00:00	2024-11-08T14:00:00	5	Humedad	76
177385	7	Sololá	712	San Antonio Palopó	9	San Antonio Palopo	6	Junio	2023-06-16T00:00:00	2024-11-08T14:00:00	6	Velocidad del viento	14.5
177386	7	Sololá	712	San Antonio Palopó	9	San Antonio Palopo	6	Junio	2023-06-16T00:00:00	2024-11-08T14:00:00	7	Dirección del viento	14.48
177387	7	Sololá	712	San Antonio Palopó	9	San Antonio Palopo	6	Junio	2023-06-16T00:00:00	2024-11-08T14:00:00	1	Precipitación	0
177388	7	Sololá	712	San Antonio Palopó	9	San Antonio Palopo	6	Junio	2023-06-16T00:00:00	2024-11-08T14:00:00	8	Radiación solar	876
177389	7	Sololá	712	San Antonio Palopó	9	San Antonio Palopo	6	Junio	2023-06-16T00:00:00	2024-11-08T15:00:00	2	Temperatura media	22.4
177390	7	Sololá	712	San Antonio Palopó	9	San Antonio Palopo	6	Junio	2023-06-16T00:00:00	2024-11-08T15:00:00	4	Temperatura máxima	23.5
177391	7	Sololá	712	San Antonio Palopó	9	San Antonio Palopo	6	Junio	2023-06-16T00:00:00	2024-11-08T15:00:00	3	Temperatura mínima	22.4
177392	7	Sololá	712	San Antonio Palopó	9	San Antonio Palopo	6	Junio	2023-06-16T00:00:00	2024-11-08T15:00:00	5	Humedad	81
177393	7	Sololá	712	San Antonio Palopó	9	San Antonio Palopo	6	Junio	2023-06-16T00:00:00	2024-11-08T15:00:00	6	Velocidad del viento	9.7
177394	7	Sololá	712	San Antonio Palopó	9	San Antonio Palopo	6	Junio	2023-06-16T00:00:00	2024-11-08T15:00:00	7	Dirección del viento	9.66
177395	7	Sololá	712	San Antonio Palopó	9	San Antonio Palopo	6	Junio	2023-06-16T00:00:00	2024-11-08T15:00:00	1	Precipitación	0
177396	7	Sololá	712	San Antonio Palopó	9	San Antonio Palopo	6	Junio	2023-06-16T00:00:00	2024-11-08T15:00:00	8	Radiación solar	252
177397	7	Sololá	712	San Antonio Palopó	9	San Antonio Palopo	6	Junio	2023-06-16T00:00:00	2024-11-08T16:00:00	2	Temperatura media	19.5
177398	7	Sololá	712	San Antonio Palopó	9	San Antonio Palopo	6	Junio	2023-06-16T00:00:00	2024-11-08T16:00:00	4	Temperatura máxima	22.9
177399	7	Sololá	712	San Antonio Palopó	9	San Antonio Palopo	6	Junio	2023-06-16T00:00:00	2024-11-08T16:00:00	3	Temperatura mínima	19.5
177400	7	Sololá	712	San Antonio Palopó	9	San Antonio Palopo	6	Junio	2023-06-16T00:00:00	2024-11-08T16:00:00	5	Humedad	83
177401	7	Sololá	712	San Antonio Palopó	9	San Antonio Palopo	6	Junio	2023-06-16T00:00:00	2024-11-08T16:00:00	6	Velocidad del viento	9.7
177402	7	Sololá	712	San Antonio Palopó	9	San Antonio Palopo	6	Junio	2023-06-16T00:00:00	2024-11-08T16:00:00	7	Dirección del viento	9.66
177403	7	Sololá	712	San Antonio Palopó	9	San Antonio Palopo	6	Junio	2023-06-16T00:00:00	2024-11-08T16:00:00	1	Precipitación	12.4
177404	7	Sololá	712	San Antonio Palopó	9	San Antonio Palopo	6	Junio	2023-06-16T00:00:00	2024-11-08T16:00:00	8	Radiación solar	205
177405	7	Sololá	712	San Antonio Palopó	9	San Antonio Palopo	6	Junio	2023-06-16T00:00:00	2024-11-08T17:00:00	2	Temperatura media	21.3
177406	7	Sololá	712	San Antonio Palopó	9	San Antonio Palopo	6	Junio	2023-06-16T00:00:00	2024-11-08T17:00:00	4	Temperatura máxima	21.5
177407	7	Sololá	712	San Antonio Palopó	9	San Antonio Palopo	6	Junio	2023-06-16T00:00:00	2024-11-08T17:00:00	3	Temperatura mínima	19.3
177408	7	Sololá	712	San Antonio Palopó	9	San Antonio Palopo	6	Junio	2023-06-16T00:00:00	2024-11-08T17:00:00	5	Humedad	83
177409	7	Sololá	712	San Antonio Palopó	9	San Antonio Palopo	6	Junio	2023-06-16T00:00:00	2024-11-08T17:00:00	6	Velocidad del viento	3.2
177410	7	Sololá	712	San Antonio Palopó	9	San Antonio Palopo	6	Junio	2023-06-16T00:00:00	2024-11-08T17:00:00	7	Dirección del viento	3.22
177411	7	Sololá	712	San Antonio Palopó	9	San Antonio Palopo	6	Junio	2023-06-16T00:00:00	2024-11-08T17:00:00	1	Precipitación	0
177412	7	Sololá	712	San Antonio Palopó	9	San Antonio Palopo	6	Junio	2023-06-16T00:00:00	2024-11-08T17:00:00	8	Radiación solar	209
177413	7	Sololá	712	San Antonio Palopó	9	San Antonio Palopo	6	Junio	2023-06-16T00:00:00	2024-11-08T18:00:00	2	Temperatura media	20.2
177414	7	Sololá	712	San Antonio Palopó	9	San Antonio Palopo	6	Junio	2023-06-16T00:00:00	2024-11-08T18:00:00	4	Temperatura máxima	21.3
177415	7	Sololá	712	San Antonio Palopó	9	San Antonio Palopo	6	Junio	2023-06-16T00:00:00	2024-11-08T18:00:00	3	Temperatura mínima	20.2
177416	7	Sololá	712	San Antonio Palopó	9	San Antonio Palopo	6	Junio	2023-06-16T00:00:00	2024-11-08T18:00:00	5	Humedad	90
177417	7	Sololá	712	San Antonio Palopó	9	San Antonio Palopo	6	Junio	2023-06-16T00:00:00	2024-11-08T18:00:00	6	Velocidad del viento	4.8
177418	7	Sololá	712	San Antonio Palopó	9	San Antonio Palopo	6	Junio	2023-06-16T00:00:00	2024-11-08T18:00:00	7	Dirección del viento	4.83
177419	7	Sololá	712	San Antonio Palopó	9	San Antonio Palopo	6	Junio	2023-06-16T00:00:00	2024-11-08T18:00:00	1	Precipitación	0
177420	7	Sololá	712	San Antonio Palopó	9	San Antonio Palopo	6	Junio	2023-06-16T00:00:00	2024-11-08T18:00:00	8	Radiación solar	38
177421	7	Sololá	712	San Antonio Palopó	9	San Antonio Palopo	6	Junio	2023-06-16T00:00:00	2024-11-08T19:00:00	2	Temperatura media	20.3
177422	7	Sololá	712	San Antonio Palopó	9	San Antonio Palopo	6	Junio	2023-06-16T00:00:00	2024-11-08T19:00:00	4	Temperatura máxima	20.4
177423	7	Sololá	712	San Antonio Palopó	9	San Antonio Palopo	6	Junio	2023-06-16T00:00:00	2024-11-08T19:00:00	3	Temperatura mínima	19.9
177424	7	Sololá	712	San Antonio Palopó	9	San Antonio Palopo	6	Junio	2023-06-16T00:00:00	2024-11-08T19:00:00	5	Humedad	89
177425	7	Sololá	712	San Antonio Palopó	9	San Antonio Palopo	6	Junio	2023-06-16T00:00:00	2024-11-08T19:00:00	6	Velocidad del viento	3.2
177426	7	Sololá	712	San Antonio Palopó	9	San Antonio Palopo	6	Junio	2023-06-16T00:00:00	2024-11-08T19:00:00	7	Dirección del viento	3.22
177427	7	Sololá	712	San Antonio Palopó	9	San Antonio Palopo	6	Junio	2023-06-16T00:00:00	2024-11-08T19:00:00	1	Precipitación	0
177428	7	Sololá	712	San Antonio Palopó	9	San Antonio Palopo	6	Junio	2023-06-16T00:00:00	2024-11-08T19:00:00	8	Radiación solar	0
177429	7	Sololá	712	San Antonio Palopó	9	San Antonio Palopo	6	Junio	2023-06-16T00:00:00	2024-11-08T20:00:00	2	Temperatura media	20.3
177430	7	Sololá	712	San Antonio Palopó	9	San Antonio Palopo	6	Junio	2023-06-16T00:00:00	2024-11-08T20:00:00	4	Temperatura máxima	20.3
177431	7	Sololá	712	San Antonio Palopó	9	San Antonio Palopo	6	Junio	2023-06-16T00:00:00	2024-11-08T20:00:00	3	Temperatura mínima	20.1
177432	7	Sololá	712	San Antonio Palopó	9	San Antonio Palopo	6	Junio	2023-06-16T00:00:00	2024-11-08T20:00:00	5	Humedad	88
177433	7	Sololá	712	San Antonio Palopó	9	San Antonio Palopo	6	Junio	2023-06-16T00:00:00	2024-11-08T20:00:00	6	Velocidad del viento	3.2
177434	7	Sololá	712	San Antonio Palopó	9	San Antonio Palopo	6	Junio	2023-06-16T00:00:00	2024-11-08T20:00:00	7	Dirección del viento	3.22
177435	7	Sololá	712	San Antonio Palopó	9	San Antonio Palopo	6	Junio	2023-06-16T00:00:00	2024-11-08T20:00:00	1	Precipitación	0
177436	7	Sololá	712	San Antonio Palopó	9	San Antonio Palopo	6	Junio	2023-06-16T00:00:00	2024-11-08T20:00:00	8	Radiación solar	0
177437	7	Sololá	712	San Antonio Palopó	9	San Antonio Palopo	6	Junio	2023-06-16T00:00:00	2024-11-08T21:00:00	2	Temperatura media	19.9
177438	7	Sololá	712	San Antonio Palopó	9	San Antonio Palopo	6	Junio	2023-06-16T00:00:00	2024-11-08T21:00:00	4	Temperatura máxima	20.6
177439	7	Sololá	712	San Antonio Palopó	9	San Antonio Palopo	6	Junio	2023-06-16T00:00:00	2024-11-08T21:00:00	3	Temperatura mínima	19.9
177440	7	Sololá	712	San Antonio Palopó	9	San Antonio Palopo	6	Junio	2023-06-16T00:00:00	2024-11-08T21:00:00	5	Humedad	90
177441	7	Sololá	712	San Antonio Palopó	9	San Antonio Palopo	6	Junio	2023-06-16T00:00:00	2024-11-08T21:00:00	6	Velocidad del viento	3.2
177442	7	Sololá	712	San Antonio Palopó	9	San Antonio Palopo	6	Junio	2023-06-16T00:00:00	2024-11-08T21:00:00	7	Dirección del viento	3.22
177443	7	Sololá	712	San Antonio Palopó	9	San Antonio Palopo	6	Junio	2023-06-16T00:00:00	2024-11-08T21:00:00	1	Precipitación	0
177444	7	Sololá	712	San Antonio Palopó	9	San Antonio Palopo	6	Junio	2023-06-16T00:00:00	2024-11-08T21:00:00	8	Radiación solar	0
177445	7	Sololá	712	San Antonio Palopó	9	San Antonio Palopo	6	Junio	2023-06-16T00:00:00	2024-11-08T22:00:00	2	Temperatura media	18.8
177446	7	Sololá	712	San Antonio Palopó	9	San Antonio Palopo	6	Junio	2023-06-16T00:00:00	2024-11-08T22:00:00	4	Temperatura máxima	19.9
177447	7	Sololá	712	San Antonio Palopó	9	San Antonio Palopo	6	Junio	2023-06-16T00:00:00	2024-11-08T22:00:00	3	Temperatura mínima	18.8
177448	7	Sololá	712	San Antonio Palopó	9	San Antonio Palopo	6	Junio	2023-06-16T00:00:00	2024-11-08T22:00:00	5	Humedad	88
177449	7	Sololá	712	San Antonio Palopó	9	San Antonio Palopo	6	Junio	2023-06-16T00:00:00	2024-11-08T22:00:00	6	Velocidad del viento	3.2
177450	7	Sololá	712	San Antonio Palopó	9	San Antonio Palopo	6	Junio	2023-06-16T00:00:00	2024-11-08T22:00:00	7	Dirección del viento	3.22
177451	7	Sololá	712	San Antonio Palopó	9	San Antonio Palopo	6	Junio	2023-06-16T00:00:00	2024-11-08T22:00:00	1	Precipitación	0.6
177452	7	Sololá	712	San Antonio Palopó	9	San Antonio Palopo	6	Junio	2023-06-16T00:00:00	2024-11-08T22:00:00	8	Radiación solar	0
177453	7	Sololá	712	San Antonio Palopó	9	San Antonio Palopo	6	Junio	2023-06-16T00:00:00	2024-11-08T23:00:00	2	Temperatura media	19.8
177454	7	Sololá	712	San Antonio Palopó	9	San Antonio Palopo	6	Junio	2023-06-16T00:00:00	2024-11-08T23:00:00	4	Temperatura máxima	19.8
177455	7	Sololá	712	San Antonio Palopó	9	San Antonio Palopo	6	Junio	2023-06-16T00:00:00	2024-11-08T23:00:00	3	Temperatura mínima	18.8
177456	7	Sololá	712	San Antonio Palopó	9	San Antonio Palopo	6	Junio	2023-06-16T00:00:00	2024-11-08T23:00:00	5	Humedad	78
177457	7	Sololá	712	San Antonio Palopó	9	San Antonio Palopo	6	Junio	2023-06-16T00:00:00	2024-11-08T23:00:00	6	Velocidad del viento	3.2
177458	7	Sololá	712	San Antonio Palopó	9	San Antonio Palopo	6	Junio	2023-06-16T00:00:00	2024-11-08T23:00:00	7	Dirección del viento	3.22
177459	7	Sololá	712	San Antonio Palopó	9	San Antonio Palopo	6	Junio	2023-06-16T00:00:00	2024-11-08T23:00:00	1	Precipitación	0
177460	7	Sololá	712	San Antonio Palopó	9	San Antonio Palopo	6	Junio	2023-06-16T00:00:00	2024-11-08T23:00:00	8	Radiación solar	0
177461	7	Sololá	712	San Antonio Palopó	9	San Antonio Palopo	6	Junio	2023-06-17T00:00:00	2024-11-08T00:00:00	2	Temperatura media	20.2
177462	7	Sololá	712	San Antonio Palopó	9	San Antonio Palopo	6	Junio	2023-06-17T00:00:00	2024-11-08T00:00:00	4	Temperatura máxima	20.6
177463	7	Sololá	712	San Antonio Palopó	9	San Antonio Palopo	6	Junio	2023-06-17T00:00:00	2024-11-08T00:00:00	3	Temperatura mínima	19.8
177464	7	Sololá	712	San Antonio Palopó	9	San Antonio Palopo	6	Junio	2023-06-17T00:00:00	2024-11-08T00:00:00	5	Humedad	77
177465	7	Sololá	712	San Antonio Palopó	9	San Antonio Palopo	6	Junio	2023-06-17T00:00:00	2024-11-08T00:00:00	6	Velocidad del viento	11.3
177466	7	Sololá	712	San Antonio Palopó	9	San Antonio Palopo	6	Junio	2023-06-17T00:00:00	2024-11-08T00:00:00	7	Dirección del viento	11.27
177467	7	Sololá	712	San Antonio Palopó	9	San Antonio Palopo	6	Junio	2023-06-17T00:00:00	2024-11-08T00:00:00	1	Precipitación	0
177468	7	Sololá	712	San Antonio Palopó	9	San Antonio Palopo	6	Junio	2023-06-17T00:00:00	2024-11-08T00:00:00	8	Radiación solar	0
177469	7	Sololá	712	San Antonio Palopó	9	San Antonio Palopo	6	Junio	2023-06-17T00:00:00	2024-11-08T01:00:00	2	Temperatura media	20.5
177470	7	Sololá	712	San Antonio Palopó	9	San Antonio Palopo	6	Junio	2023-06-17T00:00:00	2024-11-08T01:00:00	4	Temperatura máxima	20.7
177471	7	Sololá	712	San Antonio Palopó	9	San Antonio Palopo	6	Junio	2023-06-17T00:00:00	2024-11-08T01:00:00	3	Temperatura mínima	20.1
177472	7	Sololá	712	San Antonio Palopó	9	San Antonio Palopo	6	Junio	2023-06-17T00:00:00	2024-11-08T01:00:00	5	Humedad	76
177473	7	Sololá	712	San Antonio Palopó	9	San Antonio Palopo	6	Junio	2023-06-17T00:00:00	2024-11-08T01:00:00	6	Velocidad del viento	6.4
177474	7	Sololá	712	San Antonio Palopó	9	San Antonio Palopo	6	Junio	2023-06-17T00:00:00	2024-11-08T01:00:00	7	Dirección del viento	6.44
177475	7	Sololá	712	San Antonio Palopó	9	San Antonio Palopo	6	Junio	2023-06-17T00:00:00	2024-11-08T01:00:00	1	Precipitación	0
177476	7	Sololá	712	San Antonio Palopó	9	San Antonio Palopo	6	Junio	2023-06-17T00:00:00	2024-11-08T01:00:00	8	Radiación solar	0
177477	7	Sololá	712	San Antonio Palopó	9	San Antonio Palopo	6	Junio	2023-06-17T00:00:00	2024-11-08T02:00:00	2	Temperatura media	20.7
177478	7	Sololá	712	San Antonio Palopó	9	San Antonio Palopo	6	Junio	2023-06-17T00:00:00	2024-11-08T02:00:00	4	Temperatura máxima	20.7
177479	7	Sololá	712	San Antonio Palopó	9	San Antonio Palopo	6	Junio	2023-06-17T00:00:00	2024-11-08T02:00:00	3	Temperatura mínima	19.9
177480	7	Sololá	712	San Antonio Palopó	9	San Antonio Palopo	6	Junio	2023-06-17T00:00:00	2024-11-08T02:00:00	5	Humedad	72
177481	7	Sololá	712	San Antonio Palopó	9	San Antonio Palopo	6	Junio	2023-06-17T00:00:00	2024-11-08T02:00:00	6	Velocidad del viento	6.4
177482	7	Sololá	712	San Antonio Palopó	9	San Antonio Palopo	6	Junio	2023-06-17T00:00:00	2024-11-08T02:00:00	7	Dirección del viento	6.44
177483	7	Sololá	712	San Antonio Palopó	9	San Antonio Palopo	6	Junio	2023-06-17T00:00:00	2024-11-08T02:00:00	1	Precipitación	0
177484	7	Sololá	712	San Antonio Palopó	9	San Antonio Palopo	6	Junio	2023-06-17T00:00:00	2024-11-08T02:00:00	8	Radiación solar	0
177485	7	Sololá	712	San Antonio Palopó	9	San Antonio Palopo	6	Junio	2023-06-17T00:00:00	2024-11-08T03:00:00	2	Temperatura media	19.9
177486	7	Sololá	712	San Antonio Palopó	9	San Antonio Palopo	6	Junio	2023-06-17T00:00:00	2024-11-08T03:00:00	4	Temperatura máxima	20.7
177487	7	Sololá	712	San Antonio Palopó	9	San Antonio Palopo	6	Junio	2023-06-17T00:00:00	2024-11-08T03:00:00	3	Temperatura mínima	19.8
177488	7	Sololá	712	San Antonio Palopó	9	San Antonio Palopo	6	Junio	2023-06-17T00:00:00	2024-11-08T03:00:00	5	Humedad	73
177489	7	Sololá	712	San Antonio Palopó	9	San Antonio Palopo	6	Junio	2023-06-17T00:00:00	2024-11-08T03:00:00	6	Velocidad del viento	12.9
177490	7	Sololá	712	San Antonio Palopó	9	San Antonio Palopo	6	Junio	2023-06-17T00:00:00	2024-11-08T03:00:00	7	Dirección del viento	12.87
177491	7	Sololá	712	San Antonio Palopó	9	San Antonio Palopo	6	Junio	2023-06-17T00:00:00	2024-11-08T03:00:00	1	Precipitación	0
177492	7	Sololá	712	San Antonio Palopó	9	San Antonio Palopo	6	Junio	2023-06-17T00:00:00	2024-11-08T03:00:00	8	Radiación solar	0
177493	7	Sololá	712	San Antonio Palopó	9	San Antonio Palopo	6	Junio	2023-06-17T00:00:00	2024-11-08T04:00:00	2	Temperatura media	20.3
177494	7	Sololá	712	San Antonio Palopó	9	San Antonio Palopo	6	Junio	2023-06-17T00:00:00	2024-11-08T04:00:00	4	Temperatura máxima	20.6
177495	7	Sololá	712	San Antonio Palopó	9	San Antonio Palopo	6	Junio	2023-06-17T00:00:00	2024-11-08T04:00:00	3	Temperatura mínima	19.9
177496	7	Sololá	712	San Antonio Palopó	9	San Antonio Palopo	6	Junio	2023-06-17T00:00:00	2024-11-08T04:00:00	5	Humedad	71
177497	7	Sololá	712	San Antonio Palopó	9	San Antonio Palopo	6	Junio	2023-06-17T00:00:00	2024-11-08T04:00:00	6	Velocidad del viento	9.7
177498	7	Sololá	712	San Antonio Palopó	9	San Antonio Palopo	6	Junio	2023-06-17T00:00:00	2024-11-08T04:00:00	7	Dirección del viento	9.66
177499	7	Sololá	712	San Antonio Palopó	9	San Antonio Palopo	6	Junio	2023-06-17T00:00:00	2024-11-08T04:00:00	1	Precipitación	0
177500	7	Sololá	712	San Antonio Palopó	9	San Antonio Palopo	6	Junio	2023-06-17T00:00:00	2024-11-08T04:00:00	8	Radiación solar	0
177501	7	Sololá	712	San Antonio Palopó	9	San Antonio Palopo	6	Junio	2023-06-17T00:00:00	2024-11-08T05:00:00	2	Temperatura media	20.2
177502	7	Sololá	712	San Antonio Palopó	9	San Antonio Palopo	6	Junio	2023-06-17T00:00:00	2024-11-08T05:00:00	4	Temperatura máxima	20.6
177503	7	Sololá	712	San Antonio Palopó	9	San Antonio Palopo	6	Junio	2023-06-17T00:00:00	2024-11-08T05:00:00	3	Temperatura mínima	20
177504	7	Sololá	712	San Antonio Palopó	9	San Antonio Palopo	6	Junio	2023-06-17T00:00:00	2024-11-08T05:00:00	5	Humedad	70
177505	7	Sololá	712	San Antonio Palopó	9	San Antonio Palopo	6	Junio	2023-06-17T00:00:00	2024-11-08T05:00:00	6	Velocidad del viento	12.9
177506	7	Sololá	712	San Antonio Palopó	9	San Antonio Palopo	6	Junio	2023-06-17T00:00:00	2024-11-08T05:00:00	7	Dirección del viento	12.87
177507	7	Sololá	712	San Antonio Palopó	9	San Antonio Palopo	6	Junio	2023-06-17T00:00:00	2024-11-08T05:00:00	1	Precipitación	0
177508	7	Sololá	712	San Antonio Palopó	9	San Antonio Palopo	6	Junio	2023-06-17T00:00:00	2024-11-08T05:00:00	8	Radiación solar	0
177509	7	Sololá	712	San Antonio Palopó	9	San Antonio Palopo	6	Junio	2023-06-17T00:00:00	2024-11-08T06:00:00	2	Temperatura media	19.8
177510	7	Sololá	712	San Antonio Palopó	9	San Antonio Palopo	6	Junio	2023-06-17T00:00:00	2024-11-08T06:00:00	4	Temperatura máxima	20.3
177511	7	Sololá	712	San Antonio Palopó	9	San Antonio Palopo	6	Junio	2023-06-17T00:00:00	2024-11-08T06:00:00	3	Temperatura mínima	19.8
177512	7	Sololá	712	San Antonio Palopó	9	San Antonio Palopo	6	Junio	2023-06-17T00:00:00	2024-11-08T06:00:00	5	Humedad	71
177513	7	Sololá	712	San Antonio Palopó	9	San Antonio Palopo	6	Junio	2023-06-17T00:00:00	2024-11-08T06:00:00	6	Velocidad del viento	12.9
177514	7	Sololá	712	San Antonio Palopó	9	San Antonio Palopo	6	Junio	2023-06-17T00:00:00	2024-11-08T06:00:00	7	Dirección del viento	12.87
177515	7	Sololá	712	San Antonio Palopó	9	San Antonio Palopo	6	Junio	2023-06-17T00:00:00	2024-11-08T06:00:00	1	Precipitación	0
177516	7	Sololá	712	San Antonio Palopó	9	San Antonio Palopo	6	Junio	2023-06-17T00:00:00	2024-11-08T06:00:00	8	Radiación solar	2
177517	7	Sololá	712	San Antonio Palopó	9	San Antonio Palopo	6	Junio	2023-06-17T00:00:00	2024-11-08T07:00:00	2	Temperatura media	20.4
177518	7	Sololá	712	San Antonio Palopó	9	San Antonio Palopo	6	Junio	2023-06-17T00:00:00	2024-11-08T07:00:00	4	Temperatura máxima	20.4
177519	7	Sololá	712	San Antonio Palopó	9	San Antonio Palopo	6	Junio	2023-06-17T00:00:00	2024-11-08T07:00:00	3	Temperatura mínima	19.7
177520	7	Sololá	712	San Antonio Palopó	9	San Antonio Palopo	6	Junio	2023-06-17T00:00:00	2024-11-08T07:00:00	5	Humedad	68
177521	7	Sololá	712	San Antonio Palopó	9	San Antonio Palopo	6	Junio	2023-06-17T00:00:00	2024-11-08T07:00:00	6	Velocidad del viento	4.8
177522	7	Sololá	712	San Antonio Palopó	9	San Antonio Palopo	6	Junio	2023-06-17T00:00:00	2024-11-08T07:00:00	7	Dirección del viento	4.83
177523	7	Sololá	712	San Antonio Palopó	9	San Antonio Palopo	6	Junio	2023-06-17T00:00:00	2024-11-08T07:00:00	1	Precipitación	0
177524	7	Sololá	712	San Antonio Palopó	9	San Antonio Palopo	6	Junio	2023-06-17T00:00:00	2024-11-08T07:00:00	8	Radiación solar	19
177525	7	Sololá	712	San Antonio Palopó	9	San Antonio Palopo	6	Junio	2023-06-17T00:00:00	2024-11-08T08:00:00	2	Temperatura media	20.8
177526	7	Sololá	712	San Antonio Palopó	9	San Antonio Palopo	6	Junio	2023-06-17T00:00:00	2024-11-08T08:00:00	4	Temperatura máxima	20.8
177527	7	Sololá	712	San Antonio Palopó	9	San Antonio Palopo	6	Junio	2023-06-17T00:00:00	2024-11-08T08:00:00	3	Temperatura mínima	19.7
177528	7	Sololá	712	San Antonio Palopó	9	San Antonio Palopo	6	Junio	2023-06-17T00:00:00	2024-11-08T08:00:00	5	Humedad	71
177529	7	Sololá	712	San Antonio Palopó	9	San Antonio Palopo	6	Junio	2023-06-17T00:00:00	2024-11-08T08:00:00	6	Velocidad del viento	4.8
177530	7	Sololá	712	San Antonio Palopó	9	San Antonio Palopo	6	Junio	2023-06-17T00:00:00	2024-11-08T08:00:00	7	Dirección del viento	4.83
177531	7	Sololá	712	San Antonio Palopó	9	San Antonio Palopo	6	Junio	2023-06-17T00:00:00	2024-11-08T08:00:00	1	Precipitación	0
177532	7	Sololá	712	San Antonio Palopó	9	San Antonio Palopo	6	Junio	2023-06-17T00:00:00	2024-11-08T08:00:00	8	Radiación solar	224
177533	7	Sololá	712	San Antonio Palopó	9	San Antonio Palopo	6	Junio	2023-06-17T00:00:00	2024-11-08T09:00:00	2	Temperatura media	23.9
177534	7	Sololá	712	San Antonio Palopó	9	San Antonio Palopo	6	Junio	2023-06-17T00:00:00	2024-11-08T09:00:00	4	Temperatura máxima	23.9
177535	7	Sololá	712	San Antonio Palopó	9	San Antonio Palopo	6	Junio	2023-06-17T00:00:00	2024-11-08T09:00:00	3	Temperatura mínima	20.8
177536	7	Sololá	712	San Antonio Palopó	9	San Antonio Palopo	6	Junio	2023-06-17T00:00:00	2024-11-08T09:00:00	5	Humedad	58
177537	7	Sololá	712	San Antonio Palopó	9	San Antonio Palopo	6	Junio	2023-06-17T00:00:00	2024-11-08T09:00:00	6	Velocidad del viento	3.2
177538	7	Sololá	712	San Antonio Palopó	9	San Antonio Palopo	6	Junio	2023-06-17T00:00:00	2024-11-08T09:00:00	7	Dirección del viento	3.22
177539	7	Sololá	712	San Antonio Palopó	9	San Antonio Palopo	6	Junio	2023-06-17T00:00:00	2024-11-08T09:00:00	1	Precipitación	0
177540	7	Sololá	712	San Antonio Palopó	9	San Antonio Palopo	6	Junio	2023-06-17T00:00:00	2024-11-08T09:00:00	8	Radiación solar	567
177541	7	Sololá	712	San Antonio Palopó	9	San Antonio Palopo	6	Junio	2023-06-17T00:00:00	2024-11-08T10:00:00	2	Temperatura media	26.2
177542	7	Sololá	712	San Antonio Palopó	9	San Antonio Palopo	6	Junio	2023-06-17T00:00:00	2024-11-08T10:00:00	4	Temperatura máxima	26.2
177543	7	Sololá	712	San Antonio Palopó	9	San Antonio Palopo	6	Junio	2023-06-17T00:00:00	2024-11-08T10:00:00	3	Temperatura mínima	23.6
177544	7	Sololá	712	San Antonio Palopó	9	San Antonio Palopo	6	Junio	2023-06-17T00:00:00	2024-11-08T10:00:00	5	Humedad	48
177545	7	Sololá	712	San Antonio Palopó	9	San Antonio Palopo	6	Junio	2023-06-17T00:00:00	2024-11-08T10:00:00	6	Velocidad del viento	4.8
177546	7	Sololá	712	San Antonio Palopó	9	San Antonio Palopo	6	Junio	2023-06-17T00:00:00	2024-11-08T10:00:00	7	Dirección del viento	4.83
177547	7	Sololá	712	San Antonio Palopó	9	San Antonio Palopo	6	Junio	2023-06-17T00:00:00	2024-11-08T10:00:00	1	Precipitación	0
177548	7	Sololá	712	San Antonio Palopó	9	San Antonio Palopo	6	Junio	2023-06-17T00:00:00	2024-11-08T10:00:00	8	Radiación solar	752
177549	7	Sololá	712	San Antonio Palopó	9	San Antonio Palopo	6	Junio	2023-06-17T00:00:00	2024-11-08T11:00:00	2	Temperatura media	26.8
177550	7	Sololá	712	San Antonio Palopó	9	San Antonio Palopo	6	Junio	2023-06-17T00:00:00	2024-11-08T11:00:00	4	Temperatura máxima	26.9
177551	7	Sololá	712	San Antonio Palopó	9	San Antonio Palopo	6	Junio	2023-06-17T00:00:00	2024-11-08T11:00:00	3	Temperatura mínima	26.1
177552	7	Sololá	712	San Antonio Palopó	9	San Antonio Palopo	6	Junio	2023-06-17T00:00:00	2024-11-08T11:00:00	5	Humedad	50
177553	7	Sololá	712	San Antonio Palopó	9	San Antonio Palopo	6	Junio	2023-06-17T00:00:00	2024-11-08T11:00:00	6	Velocidad del viento	11.3
177554	7	Sololá	712	San Antonio Palopó	9	San Antonio Palopo	6	Junio	2023-06-17T00:00:00	2024-11-08T11:00:00	7	Dirección del viento	11.27
177555	7	Sololá	712	San Antonio Palopó	9	San Antonio Palopo	6	Junio	2023-06-17T00:00:00	2024-11-08T11:00:00	1	Precipitación	0
177556	7	Sololá	712	San Antonio Palopó	9	San Antonio Palopo	6	Junio	2023-06-17T00:00:00	2024-11-08T11:00:00	8	Radiación solar	879
177557	7	Sololá	712	San Antonio Palopó	9	San Antonio Palopo	6	Junio	2023-06-17T00:00:00	2024-11-08T12:00:00	2	Temperatura media	27.9
177558	7	Sololá	712	San Antonio Palopó	9	San Antonio Palopo	6	Junio	2023-06-17T00:00:00	2024-11-08T12:00:00	4	Temperatura máxima	28.1
177559	7	Sololá	712	San Antonio Palopó	9	San Antonio Palopo	6	Junio	2023-06-17T00:00:00	2024-11-08T12:00:00	3	Temperatura mínima	26.6
177560	7	Sololá	712	San Antonio Palopó	9	San Antonio Palopo	6	Junio	2023-06-17T00:00:00	2024-11-08T12:00:00	5	Humedad	49
177561	7	Sololá	712	San Antonio Palopó	9	San Antonio Palopo	6	Junio	2023-06-17T00:00:00	2024-11-08T12:00:00	6	Velocidad del viento	9.7
177562	7	Sololá	712	San Antonio Palopó	9	San Antonio Palopo	6	Junio	2023-06-17T00:00:00	2024-11-08T12:00:00	7	Dirección del viento	9.66
177563	7	Sololá	712	San Antonio Palopó	9	San Antonio Palopo	6	Junio	2023-06-17T00:00:00	2024-11-08T12:00:00	1	Precipitación	0
177564	7	Sololá	712	San Antonio Palopó	9	San Antonio Palopo	6	Junio	2023-06-17T00:00:00	2024-11-08T12:00:00	8	Radiación solar	972
177565	7	Sololá	712	San Antonio Palopó	9	San Antonio Palopo	6	Junio	2023-06-17T00:00:00	2024-11-08T13:00:00	2	Temperatura media	28.8
177566	7	Sololá	712	San Antonio Palopó	9	San Antonio Palopo	6	Junio	2023-06-17T00:00:00	2024-11-08T13:00:00	4	Temperatura máxima	28.9
177567	7	Sololá	712	San Antonio Palopó	9	San Antonio Palopo	6	Junio	2023-06-17T00:00:00	2024-11-08T13:00:00	3	Temperatura mínima	27.5
177568	7	Sololá	712	San Antonio Palopó	9	San Antonio Palopo	6	Junio	2023-06-17T00:00:00	2024-11-08T13:00:00	5	Humedad	45
177569	7	Sololá	712	San Antonio Palopó	9	San Antonio Palopo	6	Junio	2023-06-17T00:00:00	2024-11-08T13:00:00	6	Velocidad del viento	11.3
177570	7	Sololá	712	San Antonio Palopó	9	San Antonio Palopo	6	Junio	2023-06-17T00:00:00	2024-11-08T13:00:00	7	Dirección del viento	11.27
177571	7	Sololá	712	San Antonio Palopó	9	San Antonio Palopo	6	Junio	2023-06-17T00:00:00	2024-11-08T13:00:00	1	Precipitación	0
177572	7	Sololá	712	San Antonio Palopó	9	San Antonio Palopo	6	Junio	2023-06-17T00:00:00	2024-11-08T13:00:00	8	Radiación solar	967
177573	7	Sololá	712	San Antonio Palopó	9	San Antonio Palopo	6	Junio	2023-06-17T00:00:00	2024-11-08T14:00:00	2	Temperatura media	28.3
177574	7	Sololá	712	San Antonio Palopó	9	San Antonio Palopo	6	Junio	2023-06-17T00:00:00	2024-11-08T14:00:00	4	Temperatura máxima	28.9
177575	7	Sololá	712	San Antonio Palopó	9	San Antonio Palopo	6	Junio	2023-06-17T00:00:00	2024-11-08T14:00:00	3	Temperatura mínima	26.6
177576	7	Sololá	712	San Antonio Palopó	9	San Antonio Palopo	6	Junio	2023-06-17T00:00:00	2024-11-08T14:00:00	5	Humedad	53
177577	7	Sololá	712	San Antonio Palopó	9	San Antonio Palopo	6	Junio	2023-06-17T00:00:00	2024-11-08T14:00:00	6	Velocidad del viento	11.3
177578	7	Sololá	712	San Antonio Palopó	9	San Antonio Palopo	6	Junio	2023-06-17T00:00:00	2024-11-08T14:00:00	7	Dirección del viento	11.27
177579	7	Sololá	712	San Antonio Palopó	9	San Antonio Palopo	6	Junio	2023-06-17T00:00:00	2024-11-08T14:00:00	1	Precipitación	0
177580	7	Sololá	712	San Antonio Palopó	9	San Antonio Palopo	6	Junio	2023-06-17T00:00:00	2024-11-08T14:00:00	8	Radiación solar	910
177581	7	Sololá	712	San Antonio Palopó	9	San Antonio Palopo	6	Junio	2023-06-17T00:00:00	2024-11-08T15:00:00	2	Temperatura media	25.8
177582	7	Sololá	712	San Antonio Palopó	9	San Antonio Palopo	6	Junio	2023-06-17T00:00:00	2024-11-08T15:00:00	4	Temperatura máxima	29.4
177583	7	Sololá	712	San Antonio Palopó	9	San Antonio Palopo	6	Junio	2023-06-17T00:00:00	2024-11-08T15:00:00	3	Temperatura mínima	25.6
177584	7	Sololá	712	San Antonio Palopó	9	San Antonio Palopo	6	Junio	2023-06-17T00:00:00	2024-11-08T15:00:00	5	Humedad	63
177585	7	Sololá	712	San Antonio Palopó	9	San Antonio Palopo	6	Junio	2023-06-17T00:00:00	2024-11-08T15:00:00	6	Velocidad del viento	11.3
177586	7	Sololá	712	San Antonio Palopó	9	San Antonio Palopo	6	Junio	2023-06-17T00:00:00	2024-11-08T15:00:00	7	Dirección del viento	11.27
177587	7	Sololá	712	San Antonio Palopó	9	San Antonio Palopo	6	Junio	2023-06-17T00:00:00	2024-11-08T15:00:00	1	Precipitación	0
177588	7	Sololá	712	San Antonio Palopó	9	San Antonio Palopo	6	Junio	2023-06-17T00:00:00	2024-11-08T15:00:00	8	Radiación solar	763
177589	7	Sololá	712	San Antonio Palopó	9	San Antonio Palopo	6	Junio	2023-06-17T00:00:00	2024-11-08T16:00:00	2	Temperatura media	23.7
177590	7	Sololá	712	San Antonio Palopó	9	San Antonio Palopo	6	Junio	2023-06-17T00:00:00	2024-11-08T16:00:00	4	Temperatura máxima	26
177591	7	Sololá	712	San Antonio Palopó	9	San Antonio Palopo	6	Junio	2023-06-17T00:00:00	2024-11-08T16:00:00	3	Temperatura mínima	23.1
177592	7	Sololá	712	San Antonio Palopó	9	San Antonio Palopo	6	Junio	2023-06-17T00:00:00	2024-11-08T16:00:00	5	Humedad	76
177593	7	Sololá	712	San Antonio Palopó	9	San Antonio Palopo	6	Junio	2023-06-17T00:00:00	2024-11-08T16:00:00	6	Velocidad del viento	11.3
177594	7	Sololá	712	San Antonio Palopó	9	San Antonio Palopo	6	Junio	2023-06-17T00:00:00	2024-11-08T16:00:00	7	Dirección del viento	11.27
177595	7	Sololá	712	San Antonio Palopó	9	San Antonio Palopo	6	Junio	2023-06-17T00:00:00	2024-11-08T16:00:00	1	Precipitación	0
177596	7	Sololá	712	San Antonio Palopó	9	San Antonio Palopo	6	Junio	2023-06-17T00:00:00	2024-11-08T16:00:00	8	Radiación solar	140
177597	7	Sololá	712	San Antonio Palopó	9	San Antonio Palopo	6	Junio	2023-06-17T00:00:00	2024-11-08T17:00:00	2	Temperatura media	24.6
177598	7	Sololá	712	San Antonio Palopó	9	San Antonio Palopo	6	Junio	2023-06-17T00:00:00	2024-11-08T17:00:00	4	Temperatura máxima	24.7
177599	7	Sololá	712	San Antonio Palopó	9	San Antonio Palopo	6	Junio	2023-06-17T00:00:00	2024-11-08T17:00:00	3	Temperatura mínima	23.6
177600	7	Sololá	712	San Antonio Palopó	9	San Antonio Palopo	6	Junio	2023-06-17T00:00:00	2024-11-08T17:00:00	5	Humedad	74
177601	7	Sololá	712	San Antonio Palopó	9	San Antonio Palopo	6	Junio	2023-06-17T00:00:00	2024-11-08T17:00:00	6	Velocidad del viento	6.4
177602	7	Sololá	712	San Antonio Palopó	9	San Antonio Palopo	6	Junio	2023-06-17T00:00:00	2024-11-08T17:00:00	7	Dirección del viento	6.44
177603	7	Sololá	712	San Antonio Palopó	9	San Antonio Palopo	6	Junio	2023-06-17T00:00:00	2024-11-08T17:00:00	1	Precipitación	0
177604	7	Sololá	712	San Antonio Palopó	9	San Antonio Palopo	6	Junio	2023-06-17T00:00:00	2024-11-08T17:00:00	8	Radiación solar	274
177605	7	Sololá	712	San Antonio Palopó	9	San Antonio Palopo	6	Junio	2023-06-17T00:00:00	2024-11-08T18:00:00	2	Temperatura media	23.1
177606	7	Sololá	712	San Antonio Palopó	9	San Antonio Palopo	6	Junio	2023-06-17T00:00:00	2024-11-08T18:00:00	4	Temperatura máxima	24.7
177607	7	Sololá	712	San Antonio Palopó	9	San Antonio Palopo	6	Junio	2023-06-17T00:00:00	2024-11-08T18:00:00	3	Temperatura mínima	23.1
177608	7	Sololá	712	San Antonio Palopó	9	San Antonio Palopo	6	Junio	2023-06-17T00:00:00	2024-11-08T18:00:00	5	Humedad	78
177609	7	Sololá	712	San Antonio Palopó	9	San Antonio Palopo	6	Junio	2023-06-17T00:00:00	2024-11-08T18:00:00	6	Velocidad del viento	3.2
177610	7	Sololá	712	San Antonio Palopó	9	San Antonio Palopo	6	Junio	2023-06-17T00:00:00	2024-11-08T18:00:00	7	Dirección del viento	3.22
177611	7	Sololá	712	San Antonio Palopó	9	San Antonio Palopo	6	Junio	2023-06-17T00:00:00	2024-11-08T18:00:00	1	Precipitación	0
177612	7	Sololá	712	San Antonio Palopó	9	San Antonio Palopo	6	Junio	2023-06-17T00:00:00	2024-11-08T18:00:00	8	Radiación solar	51
177613	7	Sololá	712	San Antonio Palopó	9	San Antonio Palopo	6	Junio	2023-06-17T00:00:00	2024-11-08T19:00:00	2	Temperatura media	22.1
177614	7	Sololá	712	San Antonio Palopó	9	San Antonio Palopo	6	Junio	2023-06-17T00:00:00	2024-11-08T19:00:00	4	Temperatura máxima	23.1
177615	7	Sololá	712	San Antonio Palopó	9	San Antonio Palopo	6	Junio	2023-06-17T00:00:00	2024-11-08T19:00:00	3	Temperatura mínima	22.1
177616	7	Sololá	712	San Antonio Palopó	9	San Antonio Palopo	6	Junio	2023-06-17T00:00:00	2024-11-08T19:00:00	5	Humedad	80
177617	7	Sololá	712	San Antonio Palopó	9	San Antonio Palopo	6	Junio	2023-06-17T00:00:00	2024-11-08T19:00:00	6	Velocidad del viento	4.8
177618	7	Sololá	712	San Antonio Palopó	9	San Antonio Palopo	6	Junio	2023-06-17T00:00:00	2024-11-08T19:00:00	7	Dirección del viento	4.83
177619	7	Sololá	712	San Antonio Palopó	9	San Antonio Palopo	6	Junio	2023-06-17T00:00:00	2024-11-08T19:00:00	1	Precipitación	0
177620	7	Sololá	712	San Antonio Palopó	9	San Antonio Palopo	6	Junio	2023-06-17T00:00:00	2024-11-08T19:00:00	8	Radiación solar	0
177621	7	Sololá	712	San Antonio Palopó	9	San Antonio Palopo	6	Junio	2023-06-17T00:00:00	2024-11-08T20:00:00	2	Temperatura media	21.3
177622	7	Sololá	712	San Antonio Palopó	9	San Antonio Palopo	6	Junio	2023-06-17T00:00:00	2024-11-08T20:00:00	4	Temperatura máxima	22.1
177623	7	Sololá	712	San Antonio Palopó	9	San Antonio Palopo	6	Junio	2023-06-17T00:00:00	2024-11-08T20:00:00	3	Temperatura mínima	21.1
177624	7	Sololá	712	San Antonio Palopó	9	San Antonio Palopo	6	Junio	2023-06-17T00:00:00	2024-11-08T20:00:00	5	Humedad	84
177625	7	Sololá	712	San Antonio Palopó	9	San Antonio Palopo	6	Junio	2023-06-17T00:00:00	2024-11-08T20:00:00	6	Velocidad del viento	3.2
177626	7	Sololá	712	San Antonio Palopó	9	San Antonio Palopo	6	Junio	2023-06-17T00:00:00	2024-11-08T20:00:00	7	Dirección del viento	3.22
177627	7	Sololá	712	San Antonio Palopó	9	San Antonio Palopo	6	Junio	2023-06-17T00:00:00	2024-11-08T20:00:00	1	Precipitación	0
177628	7	Sololá	712	San Antonio Palopó	9	San Antonio Palopo	6	Junio	2023-06-17T00:00:00	2024-11-08T20:00:00	8	Radiación solar	0
177629	7	Sololá	712	San Antonio Palopó	9	San Antonio Palopo	6	Junio	2023-06-17T00:00:00	2024-11-08T21:00:00	2	Temperatura media	20.4
177630	7	Sololá	712	San Antonio Palopó	9	San Antonio Palopo	6	Junio	2023-06-17T00:00:00	2024-11-08T21:00:00	4	Temperatura máxima	21.3
177631	7	Sololá	712	San Antonio Palopó	9	San Antonio Palopo	6	Junio	2023-06-17T00:00:00	2024-11-08T21:00:00	3	Temperatura mínima	20.2
177632	7	Sololá	712	San Antonio Palopó	9	San Antonio Palopo	6	Junio	2023-06-17T00:00:00	2024-11-08T21:00:00	5	Humedad	82
177633	7	Sololá	712	San Antonio Palopó	9	San Antonio Palopo	6	Junio	2023-06-17T00:00:00	2024-11-08T21:00:00	6	Velocidad del viento	4.8
177634	7	Sololá	712	San Antonio Palopó	9	San Antonio Palopo	6	Junio	2023-06-17T00:00:00	2024-11-08T21:00:00	7	Dirección del viento	4.83
177635	7	Sololá	712	San Antonio Palopó	9	San Antonio Palopo	6	Junio	2023-06-17T00:00:00	2024-11-08T21:00:00	1	Precipitación	0
177636	7	Sololá	712	San Antonio Palopó	9	San Antonio Palopo	6	Junio	2023-06-17T00:00:00	2024-11-08T21:00:00	8	Radiación solar	0
177637	7	Sololá	712	San Antonio Palopó	9	San Antonio Palopo	6	Junio	2023-06-17T00:00:00	2024-11-08T22:00:00	2	Temperatura media	20.6
177638	7	Sololá	712	San Antonio Palopó	9	San Antonio Palopo	6	Junio	2023-06-17T00:00:00	2024-11-08T22:00:00	4	Temperatura máxima	20.8
177639	7	Sololá	712	San Antonio Palopó	9	San Antonio Palopo	6	Junio	2023-06-17T00:00:00	2024-11-08T22:00:00	3	Temperatura mínima	20.3
177640	7	Sololá	712	San Antonio Palopó	9	San Antonio Palopo	6	Junio	2023-06-17T00:00:00	2024-11-08T22:00:00	5	Humedad	73
177641	7	Sololá	712	San Antonio Palopó	9	San Antonio Palopo	6	Junio	2023-06-17T00:00:00	2024-11-08T22:00:00	6	Velocidad del viento	4.8
177642	7	Sololá	712	San Antonio Palopó	9	San Antonio Palopo	6	Junio	2023-06-17T00:00:00	2024-11-08T22:00:00	7	Dirección del viento	4.83
177643	7	Sololá	712	San Antonio Palopó	9	San Antonio Palopo	6	Junio	2023-06-17T00:00:00	2024-11-08T22:00:00	1	Precipitación	0
177644	7	Sololá	712	San Antonio Palopó	9	San Antonio Palopo	6	Junio	2023-06-17T00:00:00	2024-11-08T22:00:00	8	Radiación solar	0
177645	7	Sololá	712	San Antonio Palopó	9	San Antonio Palopo	6	Junio	2023-06-17T00:00:00	2024-11-08T23:00:00	2	Temperatura media	21.3
177646	7	Sololá	712	San Antonio Palopó	9	San Antonio Palopo	6	Junio	2023-06-17T00:00:00	2024-11-08T23:00:00	4	Temperatura máxima	21.3
177647	7	Sololá	712	San Antonio Palopó	9	San Antonio Palopo	6	Junio	2023-06-17T00:00:00	2024-11-08T23:00:00	3	Temperatura mínima	20.1
177648	7	Sololá	712	San Antonio Palopó	9	San Antonio Palopo	6	Junio	2023-06-17T00:00:00	2024-11-08T23:00:00	5	Humedad	69
177649	7	Sololá	712	San Antonio Palopó	9	San Antonio Palopo	6	Junio	2023-06-17T00:00:00	2024-11-08T23:00:00	6	Velocidad del viento	3.2
177650	7	Sololá	712	San Antonio Palopó	9	San Antonio Palopo	6	Junio	2023-06-17T00:00:00	2024-11-08T23:00:00	7	Dirección del viento	3.22
177651	7	Sololá	712	San Antonio Palopó	9	San Antonio Palopo	6	Junio	2023-06-17T00:00:00	2024-11-08T23:00:00	1	Precipitación	0
177652	7	Sololá	712	San Antonio Palopó	9	San Antonio Palopo	6	Junio	2023-06-17T00:00:00	2024-11-08T23:00:00	8	Radiación solar	0
177653	7	Sololá	712	San Antonio Palopó	9	San Antonio Palopo	6	Junio	2023-06-18T00:00:00	2024-11-08T00:00:00	2	Temperatura media	20.6
177654	7	Sololá	712	San Antonio Palopó	9	San Antonio Palopo	6	Junio	2023-06-18T00:00:00	2024-11-08T00:00:00	4	Temperatura máxima	21.3
177655	7	Sololá	712	San Antonio Palopó	9	San Antonio Palopo	6	Junio	2023-06-18T00:00:00	2024-11-08T00:00:00	3	Temperatura mínima	20.4
177656	7	Sololá	712	San Antonio Palopó	9	San Antonio Palopo	6	Junio	2023-06-18T00:00:00	2024-11-08T00:00:00	5	Humedad	70
177657	7	Sololá	712	San Antonio Palopó	9	San Antonio Palopo	6	Junio	2023-06-18T00:00:00	2024-11-08T00:00:00	6	Velocidad del viento	4.8
177658	7	Sololá	712	San Antonio Palopó	9	San Antonio Palopo	6	Junio	2023-06-18T00:00:00	2024-11-08T00:00:00	7	Dirección del viento	4.83
177659	7	Sololá	712	San Antonio Palopó	9	San Antonio Palopo	6	Junio	2023-06-18T00:00:00	2024-11-08T00:00:00	1	Precipitación	0
177660	7	Sololá	712	San Antonio Palopó	9	San Antonio Palopo	6	Junio	2023-06-18T00:00:00	2024-11-08T00:00:00	8	Radiación solar	0
177661	7	Sololá	712	San Antonio Palopó	9	San Antonio Palopo	6	Junio	2023-06-18T00:00:00	2024-11-08T01:00:00	2	Temperatura media	20.4
177662	7	Sololá	712	San Antonio Palopó	9	San Antonio Palopo	6	Junio	2023-06-18T00:00:00	2024-11-08T01:00:00	4	Temperatura máxima	20.6
177663	7	Sololá	712	San Antonio Palopó	9	San Antonio Palopo	6	Junio	2023-06-18T00:00:00	2024-11-08T01:00:00	3	Temperatura mínima	20.2
177664	7	Sololá	712	San Antonio Palopó	9	San Antonio Palopo	6	Junio	2023-06-18T00:00:00	2024-11-08T01:00:00	5	Humedad	65
177665	7	Sololá	712	San Antonio Palopó	9	San Antonio Palopo	6	Junio	2023-06-18T00:00:00	2024-11-08T01:00:00	6	Velocidad del viento	6.4
177666	7	Sololá	712	San Antonio Palopó	9	San Antonio Palopo	6	Junio	2023-06-18T00:00:00	2024-11-08T01:00:00	7	Dirección del viento	6.44
177667	7	Sololá	712	San Antonio Palopó	9	San Antonio Palopo	6	Junio	2023-06-18T00:00:00	2024-11-08T01:00:00	1	Precipitación	0
177668	7	Sololá	712	San Antonio Palopó	9	San Antonio Palopo	6	Junio	2023-06-18T00:00:00	2024-11-08T01:00:00	8	Radiación solar	0
177669	7	Sololá	712	San Antonio Palopó	9	San Antonio Palopo	6	Junio	2023-06-18T00:00:00	2024-11-08T02:00:00	2	Temperatura media	20.3
177670	7	Sololá	712	San Antonio Palopó	9	San Antonio Palopo	6	Junio	2023-06-18T00:00:00	2024-11-08T02:00:00	4	Temperatura máxima	20.4
177671	7	Sololá	712	San Antonio Palopó	9	San Antonio Palopo	6	Junio	2023-06-18T00:00:00	2024-11-08T02:00:00	3	Temperatura mínima	20.1
177672	7	Sololá	712	San Antonio Palopó	9	San Antonio Palopo	6	Junio	2023-06-18T00:00:00	2024-11-08T02:00:00	5	Humedad	66
177673	7	Sololá	712	San Antonio Palopó	9	San Antonio Palopo	6	Junio	2023-06-18T00:00:00	2024-11-08T02:00:00	6	Velocidad del viento	8
177674	7	Sololá	712	San Antonio Palopó	9	San Antonio Palopo	6	Junio	2023-06-18T00:00:00	2024-11-08T02:00:00	7	Dirección del viento	8.05
177675	7	Sololá	712	San Antonio Palopó	9	San Antonio Palopo	6	Junio	2023-06-18T00:00:00	2024-11-08T02:00:00	1	Precipitación	0
177676	7	Sololá	712	San Antonio Palopó	9	San Antonio Palopo	6	Junio	2023-06-18T00:00:00	2024-11-08T02:00:00	8	Radiación solar	0
177677	7	Sololá	712	San Antonio Palopó	9	San Antonio Palopo	6	Junio	2023-06-18T00:00:00	2024-11-08T03:00:00	2	Temperatura media	20.2
177678	7	Sololá	712	San Antonio Palopó	9	San Antonio Palopo	6	Junio	2023-06-18T00:00:00	2024-11-08T03:00:00	4	Temperatura máxima	20.5
177679	7	Sololá	712	San Antonio Palopó	9	San Antonio Palopo	6	Junio	2023-06-18T00:00:00	2024-11-08T03:00:00	3	Temperatura mínima	19.4
177680	7	Sololá	712	San Antonio Palopó	9	San Antonio Palopo	6	Junio	2023-06-18T00:00:00	2024-11-08T03:00:00	5	Humedad	63
177681	7	Sololá	712	San Antonio Palopó	9	San Antonio Palopo	6	Junio	2023-06-18T00:00:00	2024-11-08T03:00:00	6	Velocidad del viento	9.7
177682	7	Sololá	712	San Antonio Palopó	9	San Antonio Palopo	6	Junio	2023-06-18T00:00:00	2024-11-08T03:00:00	7	Dirección del viento	9.66
177683	7	Sololá	712	San Antonio Palopó	9	San Antonio Palopo	6	Junio	2023-06-18T00:00:00	2024-11-08T03:00:00	1	Precipitación	0
177684	7	Sololá	712	San Antonio Palopó	9	San Antonio Palopo	6	Junio	2023-06-18T00:00:00	2024-11-08T03:00:00	8	Radiación solar	0
177685	7	Sololá	712	San Antonio Palopó	9	San Antonio Palopo	6	Junio	2023-06-18T00:00:00	2024-11-08T04:00:00	2	Temperatura media	18.8
177686	7	Sololá	712	San Antonio Palopó	9	San Antonio Palopo	6	Junio	2023-06-18T00:00:00	2024-11-08T04:00:00	4	Temperatura máxima	20.1
177687	7	Sololá	712	San Antonio Palopó	9	San Antonio Palopo	6	Junio	2023-06-18T00:00:00	2024-11-08T04:00:00	3	Temperatura mínima	18.8
177688	7	Sololá	712	San Antonio Palopó	9	San Antonio Palopo	6	Junio	2023-06-18T00:00:00	2024-11-08T04:00:00	5	Humedad	71
177689	7	Sololá	712	San Antonio Palopó	9	San Antonio Palopo	6	Junio	2023-06-18T00:00:00	2024-11-08T04:00:00	6	Velocidad del viento	12.9
177690	7	Sololá	712	San Antonio Palopó	9	San Antonio Palopo	6	Junio	2023-06-18T00:00:00	2024-11-08T04:00:00	7	Dirección del viento	12.87
177691	7	Sololá	712	San Antonio Palopó	9	San Antonio Palopo	6	Junio	2023-06-18T00:00:00	2024-11-08T04:00:00	1	Precipitación	0
177692	7	Sololá	712	San Antonio Palopó	9	San Antonio Palopo	6	Junio	2023-06-18T00:00:00	2024-11-08T04:00:00	8	Radiación solar	0
177693	7	Sololá	712	San Antonio Palopó	9	San Antonio Palopo	6	Junio	2023-06-18T00:00:00	2024-11-08T05:00:00	2	Temperatura media	18.7
177694	7	Sololá	712	San Antonio Palopó	9	San Antonio Palopo	6	Junio	2023-06-18T00:00:00	2024-11-08T05:00:00	4	Temperatura máxima	18.8
177695	7	Sololá	712	San Antonio Palopó	9	San Antonio Palopo	6	Junio	2023-06-18T00:00:00	2024-11-08T05:00:00	3	Temperatura mínima	18.5
177696	7	Sololá	712	San Antonio Palopó	9	San Antonio Palopo	6	Junio	2023-06-18T00:00:00	2024-11-08T05:00:00	5	Humedad	69
177697	7	Sololá	712	San Antonio Palopó	9	San Antonio Palopo	6	Junio	2023-06-18T00:00:00	2024-11-08T05:00:00	6	Velocidad del viento	16.1
177698	7	Sololá	712	San Antonio Palopó	9	San Antonio Palopo	6	Junio	2023-06-18T00:00:00	2024-11-08T05:00:00	7	Dirección del viento	16.09
177699	7	Sololá	712	San Antonio Palopó	9	San Antonio Palopo	6	Junio	2023-06-18T00:00:00	2024-11-08T05:00:00	1	Precipitación	0
177700	7	Sololá	712	San Antonio Palopó	9	San Antonio Palopo	6	Junio	2023-06-18T00:00:00	2024-11-08T05:00:00	8	Radiación solar	0
177701	7	Sololá	712	San Antonio Palopó	9	San Antonio Palopo	6	Junio	2023-06-18T00:00:00	2024-11-08T06:00:00	2	Temperatura media	18.7
177702	7	Sololá	712	San Antonio Palopó	9	San Antonio Palopo	6	Junio	2023-06-18T00:00:00	2024-11-08T06:00:00	4	Temperatura máxima	19
177703	7	Sololá	712	San Antonio Palopó	9	San Antonio Palopo	6	Junio	2023-06-18T00:00:00	2024-11-08T06:00:00	3	Temperatura mínima	18.5
177704	7	Sololá	712	San Antonio Palopó	9	San Antonio Palopo	6	Junio	2023-06-18T00:00:00	2024-11-08T06:00:00	5	Humedad	67
177705	7	Sololá	712	San Antonio Palopó	9	San Antonio Palopo	6	Junio	2023-06-18T00:00:00	2024-11-08T06:00:00	6	Velocidad del viento	16.1
177706	7	Sololá	712	San Antonio Palopó	9	San Antonio Palopo	6	Junio	2023-06-18T00:00:00	2024-11-08T06:00:00	7	Dirección del viento	16.09
177707	7	Sololá	712	San Antonio Palopó	9	San Antonio Palopo	6	Junio	2023-06-18T00:00:00	2024-11-08T06:00:00	1	Precipitación	0
177708	7	Sololá	712	San Antonio Palopó	9	San Antonio Palopo	6	Junio	2023-06-18T00:00:00	2024-11-08T06:00:00	8	Radiación solar	4
177709	7	Sololá	712	San Antonio Palopó	9	San Antonio Palopo	6	Junio	2023-06-18T00:00:00	2024-11-08T07:00:00	2	Temperatura media	20.2
177710	7	Sololá	712	San Antonio Palopó	9	San Antonio Palopo	6	Junio	2023-06-18T00:00:00	2024-11-08T07:00:00	4	Temperatura máxima	20.2
177711	7	Sololá	712	San Antonio Palopó	9	San Antonio Palopo	6	Junio	2023-06-18T00:00:00	2024-11-08T07:00:00	3	Temperatura mínima	18.7
177712	7	Sololá	712	San Antonio Palopó	9	San Antonio Palopo	6	Junio	2023-06-18T00:00:00	2024-11-08T07:00:00	5	Humedad	63
177713	7	Sololá	712	San Antonio Palopó	9	San Antonio Palopo	6	Junio	2023-06-18T00:00:00	2024-11-08T07:00:00	6	Velocidad del viento	8
177714	7	Sololá	712	San Antonio Palopó	9	San Antonio Palopo	6	Junio	2023-06-18T00:00:00	2024-11-08T07:00:00	7	Dirección del viento	8.05
177715	7	Sololá	712	San Antonio Palopó	9	San Antonio Palopo	6	Junio	2023-06-18T00:00:00	2024-11-08T07:00:00	1	Precipitación	0
177716	7	Sololá	712	San Antonio Palopó	9	San Antonio Palopo	6	Junio	2023-06-18T00:00:00	2024-11-08T07:00:00	8	Radiación solar	19
177717	7	Sololá	712	San Antonio Palopó	9	San Antonio Palopo	6	Junio	2023-06-18T00:00:00	2024-11-08T08:00:00	2	Temperatura media	21.1
177718	7	Sololá	712	San Antonio Palopó	9	San Antonio Palopo	6	Junio	2023-06-18T00:00:00	2024-11-08T08:00:00	4	Temperatura máxima	21.4
177719	7	Sololá	712	San Antonio Palopó	9	San Antonio Palopo	6	Junio	2023-06-18T00:00:00	2024-11-08T08:00:00	3	Temperatura mínima	20.2
177720	7	Sololá	712	San Antonio Palopó	9	San Antonio Palopo	6	Junio	2023-06-18T00:00:00	2024-11-08T08:00:00	5	Humedad	63
177721	7	Sololá	712	San Antonio Palopó	9	San Antonio Palopo	6	Junio	2023-06-18T00:00:00	2024-11-08T08:00:00	6	Velocidad del viento	4.8
177722	7	Sololá	712	San Antonio Palopó	9	San Antonio Palopo	6	Junio	2023-06-18T00:00:00	2024-11-08T08:00:00	7	Dirección del viento	4.83
177723	7	Sololá	712	San Antonio Palopó	9	San Antonio Palopo	6	Junio	2023-06-18T00:00:00	2024-11-08T08:00:00	1	Precipitación	0
177724	7	Sololá	712	San Antonio Palopó	9	San Antonio Palopo	6	Junio	2023-06-18T00:00:00	2024-11-08T08:00:00	8	Radiación solar	226
177725	7	Sololá	712	San Antonio Palopó	9	San Antonio Palopo	6	Junio	2023-06-18T00:00:00	2024-11-08T09:00:00	2	Temperatura media	23.2
177726	7	Sololá	712	San Antonio Palopó	9	San Antonio Palopo	6	Junio	2023-06-18T00:00:00	2024-11-08T09:00:00	4	Temperatura máxima	23.4
177727	7	Sololá	712	San Antonio Palopó	9	San Antonio Palopo	6	Junio	2023-06-18T00:00:00	2024-11-08T09:00:00	3	Temperatura mínima	21.1
177728	7	Sololá	712	San Antonio Palopó	9	San Antonio Palopo	6	Junio	2023-06-18T00:00:00	2024-11-08T09:00:00	5	Humedad	56
177729	7	Sololá	712	San Antonio Palopó	9	San Antonio Palopo	6	Junio	2023-06-18T00:00:00	2024-11-08T09:00:00	6	Velocidad del viento	1.6
177730	7	Sololá	712	San Antonio Palopó	9	San Antonio Palopo	6	Junio	2023-06-18T00:00:00	2024-11-08T09:00:00	7	Dirección del viento	1.61
177731	7	Sololá	712	San Antonio Palopó	9	San Antonio Palopo	6	Junio	2023-06-18T00:00:00	2024-11-08T09:00:00	1	Precipitación	0
177732	7	Sololá	712	San Antonio Palopó	9	San Antonio Palopo	6	Junio	2023-06-18T00:00:00	2024-11-08T09:00:00	8	Radiación solar	571
177733	7	Sololá	712	San Antonio Palopó	9	San Antonio Palopo	6	Junio	2023-06-18T00:00:00	2024-11-08T10:00:00	2	Temperatura media	26.1
177734	7	Sololá	712	San Antonio Palopó	9	San Antonio Palopo	6	Junio	2023-06-18T00:00:00	2024-11-08T10:00:00	4	Temperatura máxima	26.1
177735	7	Sololá	712	San Antonio Palopó	9	San Antonio Palopo	6	Junio	2023-06-18T00:00:00	2024-11-08T10:00:00	3	Temperatura mínima	23.2
177736	7	Sololá	712	San Antonio Palopó	9	San Antonio Palopo	6	Junio	2023-06-18T00:00:00	2024-11-08T10:00:00	5	Humedad	44
177737	7	Sololá	712	San Antonio Palopó	9	San Antonio Palopo	6	Junio	2023-06-18T00:00:00	2024-11-08T10:00:00	6	Velocidad del viento	6.4
177738	7	Sololá	712	San Antonio Palopó	9	San Antonio Palopo	6	Junio	2023-06-18T00:00:00	2024-11-08T10:00:00	7	Dirección del viento	6.44
177739	7	Sololá	712	San Antonio Palopó	9	San Antonio Palopo	6	Junio	2023-06-18T00:00:00	2024-11-08T10:00:00	1	Precipitación	0
177740	7	Sololá	712	San Antonio Palopó	9	San Antonio Palopo	6	Junio	2023-06-18T00:00:00	2024-11-08T10:00:00	8	Radiación solar	758
177741	7	Sololá	712	San Antonio Palopó	9	San Antonio Palopo	6	Junio	2023-06-18T00:00:00	2024-11-08T11:00:00	2	Temperatura media	26.9
177742	7	Sololá	712	San Antonio Palopó	9	San Antonio Palopo	6	Junio	2023-06-18T00:00:00	2024-11-08T11:00:00	4	Temperatura máxima	27.2
177743	7	Sololá	712	San Antonio Palopó	9	San Antonio Palopo	6	Junio	2023-06-18T00:00:00	2024-11-08T11:00:00	3	Temperatura mínima	26.1
177744	7	Sololá	712	San Antonio Palopó	9	San Antonio Palopo	6	Junio	2023-06-18T00:00:00	2024-11-08T11:00:00	5	Humedad	39
177745	7	Sololá	712	San Antonio Palopó	9	San Antonio Palopo	6	Junio	2023-06-18T00:00:00	2024-11-08T11:00:00	6	Velocidad del viento	11.3
177746	7	Sololá	712	San Antonio Palopó	9	San Antonio Palopo	6	Junio	2023-06-18T00:00:00	2024-11-08T11:00:00	7	Dirección del viento	11.27
177747	7	Sololá	712	San Antonio Palopó	9	San Antonio Palopo	6	Junio	2023-06-18T00:00:00	2024-11-08T11:00:00	1	Precipitación	0
177748	7	Sololá	712	San Antonio Palopó	9	San Antonio Palopo	6	Junio	2023-06-18T00:00:00	2024-11-08T11:00:00	8	Radiación solar	887
177749	7	Sololá	712	San Antonio Palopó	9	San Antonio Palopo	6	Junio	2023-06-18T00:00:00	2024-11-08T12:00:00	2	Temperatura media	27.7
177750	7	Sololá	712	San Antonio Palopó	9	San Antonio Palopo	6	Junio	2023-06-18T00:00:00	2024-11-08T12:00:00	4	Temperatura máxima	28.4
177751	7	Sololá	712	San Antonio Palopó	9	San Antonio Palopo	6	Junio	2023-06-18T00:00:00	2024-11-08T12:00:00	3	Temperatura mínima	26.9
177752	7	Sololá	712	San Antonio Palopó	9	San Antonio Palopo	6	Junio	2023-06-18T00:00:00	2024-11-08T12:00:00	5	Humedad	34
177753	7	Sololá	712	San Antonio Palopó	9	San Antonio Palopo	6	Junio	2023-06-18T00:00:00	2024-11-08T12:00:00	6	Velocidad del viento	11.3
177754	7	Sololá	712	San Antonio Palopó	9	San Antonio Palopo	6	Junio	2023-06-18T00:00:00	2024-11-08T12:00:00	7	Dirección del viento	11.27
177755	7	Sololá	712	San Antonio Palopó	9	San Antonio Palopo	6	Junio	2023-06-18T00:00:00	2024-11-08T12:00:00	1	Precipitación	0
177756	7	Sololá	712	San Antonio Palopó	9	San Antonio Palopo	6	Junio	2023-06-18T00:00:00	2024-11-08T12:00:00	8	Radiación solar	962
177757	7	Sololá	712	San Antonio Palopó	9	San Antonio Palopo	6	Junio	2023-06-18T00:00:00	2024-11-08T13:00:00	2	Temperatura media	26.4
177758	7	Sololá	712	San Antonio Palopó	9	San Antonio Palopo	6	Junio	2023-06-18T00:00:00	2024-11-08T13:00:00	4	Temperatura máxima	28.1
177759	7	Sololá	712	San Antonio Palopó	9	San Antonio Palopo	6	Junio	2023-06-18T00:00:00	2024-11-08T13:00:00	3	Temperatura mínima	25.2
177760	7	Sololá	712	San Antonio Palopó	9	San Antonio Palopo	6	Junio	2023-06-18T00:00:00	2024-11-08T13:00:00	5	Humedad	56
177761	7	Sololá	712	San Antonio Palopó	9	San Antonio Palopo	6	Junio	2023-06-18T00:00:00	2024-11-08T13:00:00	6	Velocidad del viento	12.9
177762	7	Sololá	712	San Antonio Palopó	9	San Antonio Palopo	6	Junio	2023-06-18T00:00:00	2024-11-08T13:00:00	7	Dirección del viento	12.87
177763	7	Sololá	712	San Antonio Palopó	9	San Antonio Palopo	6	Junio	2023-06-18T00:00:00	2024-11-08T13:00:00	1	Precipitación	0
177764	7	Sololá	712	San Antonio Palopó	9	San Antonio Palopo	6	Junio	2023-06-18T00:00:00	2024-11-08T13:00:00	8	Radiación solar	957
177765	7	Sololá	712	San Antonio Palopó	9	San Antonio Palopo	6	Junio	2023-06-18T00:00:00	2024-11-08T14:00:00	2	Temperatura media	27.2
177766	7	Sololá	712	San Antonio Palopó	9	San Antonio Palopo	6	Junio	2023-06-18T00:00:00	2024-11-08T14:00:00	4	Temperatura máxima	27.2
177767	7	Sololá	712	San Antonio Palopó	9	San Antonio Palopo	6	Junio	2023-06-18T00:00:00	2024-11-08T14:00:00	3	Temperatura mínima	26.2
177768	7	Sololá	712	San Antonio Palopó	9	San Antonio Palopo	6	Junio	2023-06-18T00:00:00	2024-11-08T14:00:00	5	Humedad	55
177769	7	Sololá	712	San Antonio Palopó	9	San Antonio Palopo	6	Junio	2023-06-18T00:00:00	2024-11-08T14:00:00	6	Velocidad del viento	12.9
177770	7	Sololá	712	San Antonio Palopó	9	San Antonio Palopo	6	Junio	2023-06-18T00:00:00	2024-11-08T14:00:00	7	Dirección del viento	12.87
177771	7	Sololá	712	San Antonio Palopó	9	San Antonio Palopo	6	Junio	2023-06-18T00:00:00	2024-11-08T14:00:00	1	Precipitación	0
177772	7	Sololá	712	San Antonio Palopó	9	San Antonio Palopo	6	Junio	2023-06-18T00:00:00	2024-11-08T14:00:00	8	Radiación solar	919
177773	7	Sololá	712	San Antonio Palopó	9	San Antonio Palopo	6	Junio	2023-06-18T00:00:00	2024-11-08T15:00:00	2	Temperatura media	27.3
177774	7	Sololá	712	San Antonio Palopó	9	San Antonio Palopo	6	Junio	2023-06-18T00:00:00	2024-11-08T15:00:00	4	Temperatura máxima	28.1
177775	7	Sololá	712	San Antonio Palopó	9	San Antonio Palopo	6	Junio	2023-06-18T00:00:00	2024-11-08T15:00:00	3	Temperatura mínima	26.7
177776	7	Sololá	712	San Antonio Palopó	9	San Antonio Palopo	6	Junio	2023-06-18T00:00:00	2024-11-08T15:00:00	5	Humedad	56
177777	7	Sololá	712	San Antonio Palopó	9	San Antonio Palopo	6	Junio	2023-06-18T00:00:00	2024-11-08T15:00:00	6	Velocidad del viento	11.3
177778	7	Sololá	712	San Antonio Palopó	9	San Antonio Palopo	6	Junio	2023-06-18T00:00:00	2024-11-08T15:00:00	7	Dirección del viento	11.27
177779	7	Sololá	712	San Antonio Palopó	9	San Antonio Palopo	6	Junio	2023-06-18T00:00:00	2024-11-08T15:00:00	1	Precipitación	0
177780	7	Sololá	712	San Antonio Palopó	9	San Antonio Palopo	6	Junio	2023-06-18T00:00:00	2024-11-08T15:00:00	8	Radiación solar	789
177781	7	Sololá	712	San Antonio Palopó	9	San Antonio Palopo	6	Junio	2023-06-18T00:00:00	2024-11-08T16:00:00	2	Temperatura media	25.2
177782	7	Sololá	712	San Antonio Palopó	9	San Antonio Palopo	6	Junio	2023-06-18T00:00:00	2024-11-08T16:00:00	4	Temperatura máxima	27.3
177783	7	Sololá	712	San Antonio Palopó	9	San Antonio Palopo	6	Junio	2023-06-18T00:00:00	2024-11-08T16:00:00	3	Temperatura mínima	25
177784	7	Sololá	712	San Antonio Palopó	9	San Antonio Palopo	6	Junio	2023-06-18T00:00:00	2024-11-08T16:00:00	5	Humedad	69
177785	7	Sololá	712	San Antonio Palopó	9	San Antonio Palopo	6	Junio	2023-06-18T00:00:00	2024-11-08T16:00:00	6	Velocidad del viento	12.9
177786	7	Sololá	712	San Antonio Palopó	9	San Antonio Palopo	6	Junio	2023-06-18T00:00:00	2024-11-08T16:00:00	7	Dirección del viento	12.87
177787	7	Sololá	712	San Antonio Palopó	9	San Antonio Palopo	6	Junio	2023-06-18T00:00:00	2024-11-08T16:00:00	1	Precipitación	0
177788	7	Sololá	712	San Antonio Palopó	9	San Antonio Palopo	6	Junio	2023-06-18T00:00:00	2024-11-08T16:00:00	8	Radiación solar	411
177789	7	Sololá	712	San Antonio Palopó	9	San Antonio Palopo	6	Junio	2023-06-18T00:00:00	2024-11-08T17:00:00	2	Temperatura media	24.4
177790	7	Sololá	712	San Antonio Palopó	9	San Antonio Palopo	6	Junio	2023-06-18T00:00:00	2024-11-08T17:00:00	4	Temperatura máxima	25.3
177791	7	Sololá	712	San Antonio Palopó	9	San Antonio Palopo	6	Junio	2023-06-18T00:00:00	2024-11-08T17:00:00	3	Temperatura mínima	23.6
177792	7	Sololá	712	San Antonio Palopó	9	San Antonio Palopo	6	Junio	2023-06-18T00:00:00	2024-11-08T17:00:00	5	Humedad	74
177793	7	Sololá	712	San Antonio Palopó	9	San Antonio Palopo	6	Junio	2023-06-18T00:00:00	2024-11-08T17:00:00	6	Velocidad del viento	6.4
177794	7	Sololá	712	San Antonio Palopó	9	San Antonio Palopo	6	Junio	2023-06-18T00:00:00	2024-11-08T17:00:00	7	Dirección del viento	6.44
177795	7	Sololá	712	San Antonio Palopó	9	San Antonio Palopo	6	Junio	2023-06-18T00:00:00	2024-11-08T17:00:00	1	Precipitación	0
177796	7	Sololá	712	San Antonio Palopó	9	San Antonio Palopo	6	Junio	2023-06-18T00:00:00	2024-11-08T17:00:00	8	Radiación solar	218
177797	7	Sololá	712	San Antonio Palopó	9	San Antonio Palopo	6	Junio	2023-06-18T00:00:00	2024-11-08T18:00:00	2	Temperatura media	23.6
177798	7	Sololá	712	San Antonio Palopó	9	San Antonio Palopo	6	Junio	2023-06-18T00:00:00	2024-11-08T18:00:00	4	Temperatura máxima	24.4
177799	7	Sololá	712	San Antonio Palopó	9	San Antonio Palopo	6	Junio	2023-06-18T00:00:00	2024-11-08T18:00:00	3	Temperatura mínima	23.3
177800	7	Sololá	712	San Antonio Palopó	9	San Antonio Palopo	6	Junio	2023-06-18T00:00:00	2024-11-08T18:00:00	5	Humedad	76
177801	7	Sololá	712	San Antonio Palopó	9	San Antonio Palopo	6	Junio	2023-06-18T00:00:00	2024-11-08T18:00:00	6	Velocidad del viento	6.4
177802	7	Sololá	712	San Antonio Palopó	9	San Antonio Palopo	6	Junio	2023-06-18T00:00:00	2024-11-08T18:00:00	7	Dirección del viento	6.44
177803	7	Sololá	712	San Antonio Palopó	9	San Antonio Palopo	6	Junio	2023-06-18T00:00:00	2024-11-08T18:00:00	1	Precipitación	0
177804	7	Sololá	712	San Antonio Palopó	9	San Antonio Palopo	6	Junio	2023-06-18T00:00:00	2024-11-08T18:00:00	8	Radiación solar	125
177805	7	Sololá	712	San Antonio Palopó	9	San Antonio Palopo	6	Junio	2023-06-18T00:00:00	2024-11-08T19:00:00	2	Temperatura media	22.1
177806	7	Sololá	712	San Antonio Palopó	9	San Antonio Palopo	6	Junio	2023-06-18T00:00:00	2024-11-08T19:00:00	4	Temperatura máxima	23.5
177807	7	Sololá	712	San Antonio Palopó	9	San Antonio Palopo	6	Junio	2023-06-18T00:00:00	2024-11-08T19:00:00	3	Temperatura mínima	22.1
177808	7	Sololá	712	San Antonio Palopó	9	San Antonio Palopo	6	Junio	2023-06-18T00:00:00	2024-11-08T19:00:00	5	Humedad	81
177809	7	Sololá	712	San Antonio Palopó	9	San Antonio Palopo	6	Junio	2023-06-18T00:00:00	2024-11-08T19:00:00	6	Velocidad del viento	3.2
177810	7	Sololá	712	San Antonio Palopó	9	San Antonio Palopo	6	Junio	2023-06-18T00:00:00	2024-11-08T19:00:00	7	Dirección del viento	3.22
177811	7	Sololá	712	San Antonio Palopó	9	San Antonio Palopo	6	Junio	2023-06-18T00:00:00	2024-11-08T19:00:00	1	Precipitación	0
177812	7	Sololá	712	San Antonio Palopó	9	San Antonio Palopo	6	Junio	2023-06-18T00:00:00	2024-11-08T19:00:00	8	Radiación solar	0
177813	7	Sololá	712	San Antonio Palopó	9	San Antonio Palopo	6	Junio	2023-06-18T00:00:00	2024-11-08T20:00:00	2	Temperatura media	21.2
177814	7	Sololá	712	San Antonio Palopó	9	San Antonio Palopo	6	Junio	2023-06-18T00:00:00	2024-11-08T20:00:00	4	Temperatura máxima	22.1
177815	7	Sololá	712	San Antonio Palopó	9	San Antonio Palopo	6	Junio	2023-06-18T00:00:00	2024-11-08T20:00:00	3	Temperatura mínima	21.2
177816	7	Sololá	712	San Antonio Palopó	9	San Antonio Palopo	6	Junio	2023-06-18T00:00:00	2024-11-08T20:00:00	5	Humedad	82
177817	7	Sololá	712	San Antonio Palopó	9	San Antonio Palopo	6	Junio	2023-06-18T00:00:00	2024-11-08T20:00:00	6	Velocidad del viento	4.8
177818	7	Sololá	712	San Antonio Palopó	9	San Antonio Palopo	6	Junio	2023-06-18T00:00:00	2024-11-08T20:00:00	7	Dirección del viento	4.83
177819	7	Sololá	712	San Antonio Palopó	9	San Antonio Palopo	6	Junio	2023-06-18T00:00:00	2024-11-08T20:00:00	1	Precipitación	0
177820	7	Sololá	712	San Antonio Palopó	9	San Antonio Palopo	6	Junio	2023-06-18T00:00:00	2024-11-08T20:00:00	8	Radiación solar	0
177821	7	Sololá	712	San Antonio Palopó	9	San Antonio Palopo	6	Junio	2023-06-18T00:00:00	2024-11-08T21:00:00	2	Temperatura media	20.9
177822	7	Sololá	712	San Antonio Palopó	9	San Antonio Palopo	6	Junio	2023-06-18T00:00:00	2024-11-08T21:00:00	4	Temperatura máxima	21.3
177823	7	Sololá	712	San Antonio Palopó	9	San Antonio Palopo	6	Junio	2023-06-18T00:00:00	2024-11-08T21:00:00	3	Temperatura mínima	20.7
177824	7	Sololá	712	San Antonio Palopó	9	San Antonio Palopo	6	Junio	2023-06-18T00:00:00	2024-11-08T21:00:00	5	Humedad	72
177825	7	Sololá	712	San Antonio Palopó	9	San Antonio Palopo	6	Junio	2023-06-18T00:00:00	2024-11-08T21:00:00	6	Velocidad del viento	3.2
177826	7	Sololá	712	San Antonio Palopó	9	San Antonio Palopo	6	Junio	2023-06-18T00:00:00	2024-11-08T21:00:00	7	Dirección del viento	3.22
177827	7	Sololá	712	San Antonio Palopó	9	San Antonio Palopo	6	Junio	2023-06-18T00:00:00	2024-11-08T21:00:00	1	Precipitación	0
177828	7	Sololá	712	San Antonio Palopó	9	San Antonio Palopo	6	Junio	2023-06-18T00:00:00	2024-11-08T21:00:00	8	Radiación solar	0
177829	7	Sololá	712	San Antonio Palopó	9	San Antonio Palopo	6	Junio	2023-06-18T00:00:00	2024-11-08T22:00:00	2	Temperatura media	21.8
177830	7	Sololá	712	San Antonio Palopó	9	San Antonio Palopo	6	Junio	2023-06-18T00:00:00	2024-11-08T22:00:00	4	Temperatura máxima	22.1
177831	7	Sololá	712	San Antonio Palopó	9	San Antonio Palopo	6	Junio	2023-06-18T00:00:00	2024-11-08T22:00:00	3	Temperatura mínima	20.9
177832	7	Sololá	712	San Antonio Palopó	9	San Antonio Palopo	6	Junio	2023-06-18T00:00:00	2024-11-08T22:00:00	5	Humedad	64
177833	7	Sololá	712	San Antonio Palopó	9	San Antonio Palopo	6	Junio	2023-06-18T00:00:00	2024-11-08T22:00:00	6	Velocidad del viento	4.8
177834	7	Sololá	712	San Antonio Palopó	9	San Antonio Palopo	6	Junio	2023-06-18T00:00:00	2024-11-08T22:00:00	7	Dirección del viento	4.83
177835	7	Sololá	712	San Antonio Palopó	9	San Antonio Palopo	6	Junio	2023-06-18T00:00:00	2024-11-08T22:00:00	1	Precipitación	0
177836	7	Sololá	712	San Antonio Palopó	9	San Antonio Palopo	6	Junio	2023-06-18T00:00:00	2024-11-08T22:00:00	8	Radiación solar	0
177837	7	Sololá	712	San Antonio Palopó	9	San Antonio Palopo	6	Junio	2023-06-18T00:00:00	2024-11-08T23:00:00	2	Temperatura media	21.5
177838	7	Sololá	712	San Antonio Palopó	9	San Antonio Palopo	6	Junio	2023-06-18T00:00:00	2024-11-08T23:00:00	4	Temperatura máxima	21.9
177839	7	Sololá	712	San Antonio Palopó	9	San Antonio Palopo	6	Junio	2023-06-18T00:00:00	2024-11-08T23:00:00	3	Temperatura mínima	21.5
177840	7	Sololá	712	San Antonio Palopó	9	San Antonio Palopo	6	Junio	2023-06-18T00:00:00	2024-11-08T23:00:00	5	Humedad	66
177841	7	Sololá	712	San Antonio Palopó	9	San Antonio Palopo	6	Junio	2023-06-18T00:00:00	2024-11-08T23:00:00	6	Velocidad del viento	3.2
177842	7	Sololá	712	San Antonio Palopó	9	San Antonio Palopo	6	Junio	2023-06-18T00:00:00	2024-11-08T23:00:00	7	Dirección del viento	3.22
177843	7	Sololá	712	San Antonio Palopó	9	San Antonio Palopo	6	Junio	2023-06-18T00:00:00	2024-11-08T23:00:00	1	Precipitación	0
177844	7	Sololá	712	San Antonio Palopó	9	San Antonio Palopo	6	Junio	2023-06-18T00:00:00	2024-11-08T23:00:00	8	Radiación solar	0
177845	7	Sololá	712	San Antonio Palopó	9	San Antonio Palopo	6	Junio	2023-06-19T00:00:00	2024-11-08T00:00:00	2	Temperatura media	21.2
177846	7	Sololá	712	San Antonio Palopó	9	San Antonio Palopo	6	Junio	2023-06-19T00:00:00	2024-11-08T00:00:00	4	Temperatura máxima	21.6
177847	7	Sololá	712	San Antonio Palopó	9	San Antonio Palopo	6	Junio	2023-06-19T00:00:00	2024-11-08T00:00:00	3	Temperatura mínima	21.2
177848	7	Sololá	712	San Antonio Palopó	9	San Antonio Palopo	6	Junio	2023-06-19T00:00:00	2024-11-08T00:00:00	5	Humedad	67
177849	7	Sololá	712	San Antonio Palopó	9	San Antonio Palopo	6	Junio	2023-06-19T00:00:00	2024-11-08T00:00:00	6	Velocidad del viento	3.2
177850	7	Sololá	712	San Antonio Palopó	9	San Antonio Palopo	6	Junio	2023-06-19T00:00:00	2024-11-08T00:00:00	7	Dirección del viento	3.22
177851	7	Sololá	712	San Antonio Palopó	9	San Antonio Palopo	6	Junio	2023-06-19T00:00:00	2024-11-08T00:00:00	1	Precipitación	0
177852	7	Sololá	712	San Antonio Palopó	9	San Antonio Palopo	6	Junio	2023-06-19T00:00:00	2024-11-08T00:00:00	8	Radiación solar	0
177853	7	Sololá	712	San Antonio Palopó	9	San Antonio Palopo	6	Junio	2023-06-19T00:00:00	2024-11-08T01:00:00	2	Temperatura media	21.4
177854	7	Sololá	712	San Antonio Palopó	9	San Antonio Palopo	6	Junio	2023-06-19T00:00:00	2024-11-08T01:00:00	4	Temperatura máxima	21.4
177855	7	Sololá	712	San Antonio Palopó	9	San Antonio Palopo	6	Junio	2023-06-19T00:00:00	2024-11-08T01:00:00	3	Temperatura mínima	21
177856	7	Sololá	712	San Antonio Palopó	9	San Antonio Palopo	6	Junio	2023-06-19T00:00:00	2024-11-08T01:00:00	5	Humedad	66
177857	7	Sololá	712	San Antonio Palopó	9	San Antonio Palopo	6	Junio	2023-06-19T00:00:00	2024-11-08T01:00:00	6	Velocidad del viento	3.2
177858	7	Sololá	712	San Antonio Palopó	9	San Antonio Palopo	6	Junio	2023-06-19T00:00:00	2024-11-08T01:00:00	7	Dirección del viento	3.22
177859	7	Sololá	712	San Antonio Palopó	9	San Antonio Palopo	6	Junio	2023-06-19T00:00:00	2024-11-08T01:00:00	1	Precipitación	0
177860	7	Sololá	712	San Antonio Palopó	9	San Antonio Palopo	6	Junio	2023-06-19T00:00:00	2024-11-08T01:00:00	8	Radiación solar	0
177861	7	Sololá	712	San Antonio Palopó	9	San Antonio Palopo	6	Junio	2023-06-19T00:00:00	2024-11-08T02:00:00	2	Temperatura media	21.3
177862	7	Sololá	712	San Antonio Palopó	9	San Antonio Palopo	6	Junio	2023-06-19T00:00:00	2024-11-08T02:00:00	4	Temperatura máxima	21.6
177863	7	Sololá	712	San Antonio Palopó	9	San Antonio Palopo	6	Junio	2023-06-19T00:00:00	2024-11-08T02:00:00	3	Temperatura mínima	21.2
177864	7	Sololá	712	San Antonio Palopó	9	San Antonio Palopo	6	Junio	2023-06-19T00:00:00	2024-11-08T02:00:00	5	Humedad	67
177865	7	Sololá	712	San Antonio Palopó	9	San Antonio Palopo	6	Junio	2023-06-19T00:00:00	2024-11-08T02:00:00	6	Velocidad del viento	4.8
177866	7	Sololá	712	San Antonio Palopó	9	San Antonio Palopo	6	Junio	2023-06-19T00:00:00	2024-11-08T02:00:00	7	Dirección del viento	4.83
177867	7	Sololá	712	San Antonio Palopó	9	San Antonio Palopo	6	Junio	2023-06-19T00:00:00	2024-11-08T02:00:00	1	Precipitación	0
177868	7	Sololá	712	San Antonio Palopó	9	San Antonio Palopo	6	Junio	2023-06-19T00:00:00	2024-11-08T02:00:00	8	Radiación solar	0
177869	7	Sololá	712	San Antonio Palopó	9	San Antonio Palopo	6	Junio	2023-06-19T00:00:00	2024-11-08T03:00:00	2	Temperatura media	21.2
177870	7	Sololá	712	San Antonio Palopó	9	San Antonio Palopo	6	Junio	2023-06-19T00:00:00	2024-11-08T03:00:00	4	Temperatura máxima	21.5
177871	7	Sololá	712	San Antonio Palopó	9	San Antonio Palopo	6	Junio	2023-06-19T00:00:00	2024-11-08T03:00:00	3	Temperatura mínima	21.1
177872	7	Sololá	712	San Antonio Palopó	9	San Antonio Palopo	6	Junio	2023-06-19T00:00:00	2024-11-08T03:00:00	5	Humedad	67
177873	7	Sololá	712	San Antonio Palopó	9	San Antonio Palopo	6	Junio	2023-06-19T00:00:00	2024-11-08T03:00:00	6	Velocidad del viento	4.8
177874	7	Sololá	712	San Antonio Palopó	9	San Antonio Palopo	6	Junio	2023-06-19T00:00:00	2024-11-08T03:00:00	7	Dirección del viento	4.83
177875	7	Sololá	712	San Antonio Palopó	9	San Antonio Palopo	6	Junio	2023-06-19T00:00:00	2024-11-08T03:00:00	1	Precipitación	0
177876	7	Sololá	712	San Antonio Palopó	9	San Antonio Palopo	6	Junio	2023-06-19T00:00:00	2024-11-08T03:00:00	8	Radiación solar	0
177877	7	Sololá	712	San Antonio Palopó	9	San Antonio Palopo	6	Junio	2023-06-19T00:00:00	2024-11-08T04:00:00	2	Temperatura media	20.6
177878	7	Sololá	712	San Antonio Palopó	9	San Antonio Palopo	6	Junio	2023-06-19T00:00:00	2024-11-08T04:00:00	4	Temperatura máxima	21.2
177879	7	Sololá	712	San Antonio Palopó	9	San Antonio Palopo	6	Junio	2023-06-19T00:00:00	2024-11-08T04:00:00	3	Temperatura mínima	20.6
177880	7	Sololá	712	San Antonio Palopó	9	San Antonio Palopo	6	Junio	2023-06-19T00:00:00	2024-11-08T04:00:00	5	Humedad	71
177881	7	Sololá	712	San Antonio Palopó	9	San Antonio Palopo	6	Junio	2023-06-19T00:00:00	2024-11-08T04:00:00	6	Velocidad del viento	4.8
177882	7	Sololá	712	San Antonio Palopó	9	San Antonio Palopo	6	Junio	2023-06-19T00:00:00	2024-11-08T04:00:00	7	Dirección del viento	4.83
177883	7	Sololá	712	San Antonio Palopó	9	San Antonio Palopo	6	Junio	2023-06-19T00:00:00	2024-11-08T04:00:00	1	Precipitación	0
177884	7	Sololá	712	San Antonio Palopó	9	San Antonio Palopo	6	Junio	2023-06-19T00:00:00	2024-11-08T04:00:00	8	Radiación solar	0
177885	7	Sololá	712	San Antonio Palopó	9	San Antonio Palopo	6	Junio	2023-06-19T00:00:00	2024-11-08T05:00:00	2	Temperatura media	20.4
177886	7	Sololá	712	San Antonio Palopó	9	San Antonio Palopo	6	Junio	2023-06-19T00:00:00	2024-11-08T05:00:00	4	Temperatura máxima	21.2
177887	7	Sololá	712	San Antonio Palopó	9	San Antonio Palopo	6	Junio	2023-06-19T00:00:00	2024-11-08T05:00:00	3	Temperatura mínima	20.4
177888	7	Sololá	712	San Antonio Palopó	9	San Antonio Palopo	6	Junio	2023-06-19T00:00:00	2024-11-08T05:00:00	5	Humedad	70
177889	7	Sololá	712	San Antonio Palopó	9	San Antonio Palopo	6	Junio	2023-06-19T00:00:00	2024-11-08T05:00:00	6	Velocidad del viento	4.8
177890	7	Sololá	712	San Antonio Palopó	9	San Antonio Palopo	6	Junio	2023-06-19T00:00:00	2024-11-08T05:00:00	7	Dirección del viento	4.83
177891	7	Sololá	712	San Antonio Palopó	9	San Antonio Palopo	6	Junio	2023-06-19T00:00:00	2024-11-08T05:00:00	1	Precipitación	0
177892	7	Sololá	712	San Antonio Palopó	9	San Antonio Palopo	6	Junio	2023-06-19T00:00:00	2024-11-08T05:00:00	8	Radiación solar	0
177893	7	Sololá	712	San Antonio Palopó	9	San Antonio Palopo	6	Junio	2023-06-19T00:00:00	2024-11-08T06:00:00	2	Temperatura media	20.7
177894	7	Sololá	712	San Antonio Palopó	9	San Antonio Palopo	6	Junio	2023-06-19T00:00:00	2024-11-08T06:00:00	4	Temperatura máxima	21
177895	7	Sololá	712	San Antonio Palopó	9	San Antonio Palopo	6	Junio	2023-06-19T00:00:00	2024-11-08T06:00:00	3	Temperatura mínima	20.4
177896	7	Sololá	712	San Antonio Palopó	9	San Antonio Palopo	6	Junio	2023-06-19T00:00:00	2024-11-08T06:00:00	5	Humedad	69
177897	7	Sololá	712	San Antonio Palopó	9	San Antonio Palopo	6	Junio	2023-06-19T00:00:00	2024-11-08T06:00:00	6	Velocidad del viento	6.4
177898	7	Sololá	712	San Antonio Palopó	9	San Antonio Palopo	6	Junio	2023-06-19T00:00:00	2024-11-08T06:00:00	7	Dirección del viento	6.44
177899	7	Sololá	712	San Antonio Palopó	9	San Antonio Palopo	6	Junio	2023-06-19T00:00:00	2024-11-08T06:00:00	1	Precipitación	0
177900	7	Sololá	712	San Antonio Palopó	9	San Antonio Palopo	6	Junio	2023-06-19T00:00:00	2024-11-08T06:00:00	8	Radiación solar	6
177901	7	Sololá	712	San Antonio Palopó	9	San Antonio Palopo	6	Junio	2023-06-19T00:00:00	2024-11-08T07:00:00	2	Temperatura media	21.2
177902	7	Sololá	712	San Antonio Palopó	9	San Antonio Palopo	6	Junio	2023-06-19T00:00:00	2024-11-08T07:00:00	4	Temperatura máxima	21.2
177903	7	Sololá	712	San Antonio Palopó	9	San Antonio Palopo	6	Junio	2023-06-19T00:00:00	2024-11-08T07:00:00	3	Temperatura mínima	20.6
177904	7	Sololá	712	San Antonio Palopó	9	San Antonio Palopo	6	Junio	2023-06-19T00:00:00	2024-11-08T07:00:00	5	Humedad	69
177905	7	Sololá	712	San Antonio Palopó	9	San Antonio Palopo	6	Junio	2023-06-19T00:00:00	2024-11-08T07:00:00	6	Velocidad del viento	6.4
177906	7	Sololá	712	San Antonio Palopó	9	San Antonio Palopo	6	Junio	2023-06-19T00:00:00	2024-11-08T07:00:00	7	Dirección del viento	6.44
177907	7	Sololá	712	San Antonio Palopó	9	San Antonio Palopo	6	Junio	2023-06-19T00:00:00	2024-11-08T07:00:00	1	Precipitación	0
177908	7	Sololá	712	San Antonio Palopó	9	San Antonio Palopo	6	Junio	2023-06-19T00:00:00	2024-11-08T07:00:00	8	Radiación solar	63
177909	7	Sololá	712	San Antonio Palopó	9	San Antonio Palopo	6	Junio	2023-06-19T00:00:00	2024-11-08T08:00:00	2	Temperatura media	23.3
177910	7	Sololá	712	San Antonio Palopó	9	San Antonio Palopo	6	Junio	2023-06-19T00:00:00	2024-11-08T08:00:00	4	Temperatura máxima	23.4
177911	7	Sololá	712	San Antonio Palopó	9	San Antonio Palopo	6	Junio	2023-06-19T00:00:00	2024-11-08T08:00:00	3	Temperatura mínima	21.2
177912	7	Sololá	712	San Antonio Palopó	9	San Antonio Palopo	6	Junio	2023-06-19T00:00:00	2024-11-08T08:00:00	5	Humedad	64
177913	7	Sololá	712	San Antonio Palopó	9	San Antonio Palopo	6	Junio	2023-06-19T00:00:00	2024-11-08T08:00:00	6	Velocidad del viento	3.2
177914	7	Sololá	712	San Antonio Palopó	9	San Antonio Palopo	6	Junio	2023-06-19T00:00:00	2024-11-08T08:00:00	7	Dirección del viento	3.22
177915	7	Sololá	712	San Antonio Palopó	9	San Antonio Palopo	6	Junio	2023-06-19T00:00:00	2024-11-08T08:00:00	1	Precipitación	0
177916	7	Sololá	712	San Antonio Palopó	9	San Antonio Palopo	6	Junio	2023-06-19T00:00:00	2024-11-08T08:00:00	8	Radiación solar	258
177917	7	Sololá	712	San Antonio Palopó	9	San Antonio Palopo	6	Junio	2023-06-19T00:00:00	2024-11-08T09:00:00	2	Temperatura media	22.2
177918	7	Sololá	712	San Antonio Palopó	9	San Antonio Palopo	6	Junio	2023-06-19T00:00:00	2024-11-08T09:00:00	4	Temperatura máxima	23.9
177919	7	Sololá	712	San Antonio Palopó	9	San Antonio Palopo	6	Junio	2023-06-19T00:00:00	2024-11-08T09:00:00	3	Temperatura mínima	22.2
177920	7	Sololá	712	San Antonio Palopó	9	San Antonio Palopo	6	Junio	2023-06-19T00:00:00	2024-11-08T09:00:00	5	Humedad	72
177921	7	Sololá	712	San Antonio Palopó	9	San Antonio Palopo	6	Junio	2023-06-19T00:00:00	2024-11-08T09:00:00	6	Velocidad del viento	3.2
177922	7	Sololá	712	San Antonio Palopó	9	San Antonio Palopo	6	Junio	2023-06-19T00:00:00	2024-11-08T09:00:00	7	Dirección del viento	3.22
177923	7	Sololá	712	San Antonio Palopó	9	San Antonio Palopo	6	Junio	2023-06-19T00:00:00	2024-11-08T09:00:00	1	Precipitación	0
177924	7	Sololá	712	San Antonio Palopó	9	San Antonio Palopo	6	Junio	2023-06-19T00:00:00	2024-11-08T09:00:00	8	Radiación solar	472
177925	7	Sololá	712	San Antonio Palopó	9	San Antonio Palopo	6	Junio	2023-06-19T00:00:00	2024-11-08T10:00:00	2	Temperatura media	25.8
177926	7	Sololá	712	San Antonio Palopó	9	San Antonio Palopo	6	Junio	2023-06-19T00:00:00	2024-11-08T10:00:00	4	Temperatura máxima	25.8
177927	7	Sololá	712	San Antonio Palopó	9	San Antonio Palopo	6	Junio	2023-06-19T00:00:00	2024-11-08T10:00:00	3	Temperatura mínima	24.2
177928	7	Sololá	712	San Antonio Palopó	9	San Antonio Palopo	6	Junio	2023-06-19T00:00:00	2024-11-08T10:00:00	5	Humedad	63
177929	7	Sololá	712	San Antonio Palopó	9	San Antonio Palopo	6	Junio	2023-06-19T00:00:00	2024-11-08T10:00:00	6	Velocidad del viento	6.4
177930	7	Sololá	712	San Antonio Palopó	9	San Antonio Palopo	6	Junio	2023-06-19T00:00:00	2024-11-08T10:00:00	7	Dirección del viento	3.22
177931	7	Sololá	712	San Antonio Palopó	9	San Antonio Palopo	6	Junio	2023-06-19T00:00:00	2024-11-08T10:00:00	1	Precipitación	0
177932	7	Sololá	712	San Antonio Palopó	9	San Antonio Palopo	6	Junio	2023-06-19T00:00:00	2024-11-08T10:00:00	8	Radiación solar	264
177933	7	Sololá	712	San Antonio Palopó	9	San Antonio Palopo	6	Junio	2023-06-19T00:00:00	2024-11-08T11:00:00	2	Temperatura media	24.6
177934	7	Sololá	712	San Antonio Palopó	9	San Antonio Palopo	6	Junio	2023-06-19T00:00:00	2024-11-08T11:00:00	4	Temperatura máxima	25.1
177935	7	Sololá	712	San Antonio Palopó	9	San Antonio Palopo	6	Junio	2023-06-19T00:00:00	2024-11-08T11:00:00	3	Temperatura mínima	24.6
177936	7	Sololá	712	San Antonio Palopó	9	San Antonio Palopo	6	Junio	2023-06-19T00:00:00	2024-11-08T11:00:00	5	Humedad	67
177937	7	Sololá	712	San Antonio Palopó	9	San Antonio Palopo	6	Junio	2023-06-19T00:00:00	2024-11-08T11:00:00	6	Velocidad del viento	6.4
177938	7	Sololá	712	San Antonio Palopó	9	San Antonio Palopo	6	Junio	2023-06-19T00:00:00	2024-11-08T11:00:00	7	Dirección del viento	3.22
177939	7	Sololá	712	San Antonio Palopó	9	San Antonio Palopo	6	Junio	2023-06-19T00:00:00	2024-11-08T11:00:00	1	Precipitación	0
177940	7	Sololá	712	San Antonio Palopó	9	San Antonio Palopo	6	Junio	2023-06-19T00:00:00	2024-11-08T11:00:00	8	Radiación solar	297
177941	7	Sololá	712	San Antonio Palopó	9	San Antonio Palopo	6	Junio	2023-06-19T00:00:00	2024-11-08T12:00:00	2	Temperatura media	24.1
177942	7	Sololá	712	San Antonio Palopó	9	San Antonio Palopo	6	Junio	2023-06-19T00:00:00	2024-11-08T12:00:00	4	Temperatura máxima	24.4
177943	7	Sololá	712	San Antonio Palopó	9	San Antonio Palopo	6	Junio	2023-06-19T00:00:00	2024-11-08T12:00:00	3	Temperatura mínima	23.9
177944	7	Sololá	712	San Antonio Palopó	9	San Antonio Palopo	6	Junio	2023-06-19T00:00:00	2024-11-08T12:00:00	5	Humedad	72
177945	7	Sololá	712	San Antonio Palopó	9	San Antonio Palopo	6	Junio	2023-06-19T00:00:00	2024-11-08T12:00:00	6	Velocidad del viento	4.8
177946	7	Sololá	712	San Antonio Palopó	9	San Antonio Palopo	6	Junio	2023-06-19T00:00:00	2024-11-08T12:00:00	7	Dirección del viento	2.41
177947	7	Sololá	712	San Antonio Palopó	9	San Antonio Palopo	6	Junio	2023-06-19T00:00:00	2024-11-08T12:00:00	1	Precipitación	0
177948	7	Sololá	712	San Antonio Palopó	9	San Antonio Palopo	6	Junio	2023-06-19T00:00:00	2024-11-08T12:00:00	8	Radiación solar	225
177949	7	Sololá	712	San Antonio Palopó	9	San Antonio Palopo	6	Junio	2023-06-19T00:00:00	2024-11-08T13:00:00	2	Temperatura media	23.7
177950	7	Sololá	712	San Antonio Palopó	9	San Antonio Palopo	6	Junio	2023-06-19T00:00:00	2024-11-08T13:00:00	4	Temperatura máxima	24
177951	7	Sololá	712	San Antonio Palopó	9	San Antonio Palopo	6	Junio	2023-06-19T00:00:00	2024-11-08T13:00:00	3	Temperatura mínima	23.3
177952	7	Sololá	712	San Antonio Palopó	9	San Antonio Palopo	6	Junio	2023-06-19T00:00:00	2024-11-08T13:00:00	5	Humedad	74
177953	7	Sololá	712	San Antonio Palopó	9	San Antonio Palopo	6	Junio	2023-06-19T00:00:00	2024-11-08T13:00:00	6	Velocidad del viento	4.8
177954	7	Sololá	712	San Antonio Palopó	9	San Antonio Palopo	6	Junio	2023-06-19T00:00:00	2024-11-08T13:00:00	7	Dirección del viento	2.41
177955	7	Sololá	712	San Antonio Palopó	9	San Antonio Palopo	6	Junio	2023-06-19T00:00:00	2024-11-08T13:00:00	1	Precipitación	0
177956	7	Sololá	712	San Antonio Palopó	9	San Antonio Palopo	6	Junio	2023-06-19T00:00:00	2024-11-08T13:00:00	8	Radiación solar	275
177957	7	Sololá	712	San Antonio Palopó	9	San Antonio Palopo	6	Junio	2023-06-19T00:00:00	2024-11-08T14:00:00	2	Temperatura media	25.1
177958	7	Sololá	712	San Antonio Palopó	9	San Antonio Palopo	6	Junio	2023-06-19T00:00:00	2024-11-08T14:00:00	4	Temperatura máxima	25.6
177959	7	Sololá	712	San Antonio Palopó	9	San Antonio Palopo	6	Junio	2023-06-19T00:00:00	2024-11-08T14:00:00	3	Temperatura mínima	23.8
177960	7	Sololá	712	San Antonio Palopó	9	San Antonio Palopo	6	Junio	2023-06-19T00:00:00	2024-11-08T14:00:00	5	Humedad	70
177961	7	Sololá	712	San Antonio Palopó	9	San Antonio Palopo	6	Junio	2023-06-19T00:00:00	2024-11-08T14:00:00	6	Velocidad del viento	3.2
177962	7	Sololá	712	San Antonio Palopó	9	San Antonio Palopo	6	Junio	2023-06-19T00:00:00	2024-11-08T14:00:00	7	Dirección del viento	1.61
177963	7	Sololá	712	San Antonio Palopó	9	San Antonio Palopo	6	Junio	2023-06-19T00:00:00	2024-11-08T14:00:00	1	Precipitación	0
177964	7	Sololá	712	San Antonio Palopó	9	San Antonio Palopo	6	Junio	2023-06-19T00:00:00	2024-11-08T14:00:00	8	Radiación solar	220
177965	7	Sololá	712	San Antonio Palopó	9	San Antonio Palopo	6	Junio	2023-06-19T00:00:00	2024-11-08T15:00:00	2	Temperatura media	25.1
177966	7	Sololá	712	San Antonio Palopó	9	San Antonio Palopo	6	Junio	2023-06-19T00:00:00	2024-11-08T15:00:00	4	Temperatura máxima	25.8
177967	7	Sololá	712	San Antonio Palopó	9	San Antonio Palopo	6	Junio	2023-06-19T00:00:00	2024-11-08T15:00:00	3	Temperatura mínima	24.8
177968	7	Sololá	712	San Antonio Palopó	9	San Antonio Palopo	6	Junio	2023-06-19T00:00:00	2024-11-08T15:00:00	5	Humedad	72
177969	7	Sololá	712	San Antonio Palopó	9	San Antonio Palopo	6	Junio	2023-06-19T00:00:00	2024-11-08T15:00:00	6	Velocidad del viento	4.8
177970	7	Sololá	712	San Antonio Palopó	9	San Antonio Palopo	6	Junio	2023-06-19T00:00:00	2024-11-08T15:00:00	7	Dirección del viento	2.41
177971	7	Sololá	712	San Antonio Palopó	9	San Antonio Palopo	6	Junio	2023-06-19T00:00:00	2024-11-08T15:00:00	1	Precipitación	0
177972	7	Sololá	712	San Antonio Palopó	9	San Antonio Palopo	6	Junio	2023-06-19T00:00:00	2024-11-08T15:00:00	8	Radiación solar	182
177973	7	Sololá	712	San Antonio Palopó	9	San Antonio Palopo	6	Junio	2023-06-19T00:00:00	2024-11-08T16:00:00	2	Temperatura media	26.5
177974	7	Sololá	712	San Antonio Palopó	9	San Antonio Palopo	6	Junio	2023-06-19T00:00:00	2024-11-08T16:00:00	4	Temperatura máxima	26.5
177975	7	Sololá	712	San Antonio Palopó	9	San Antonio Palopo	6	Junio	2023-06-19T00:00:00	2024-11-08T16:00:00	3	Temperatura mínima	25.8
177976	7	Sololá	712	San Antonio Palopó	9	San Antonio Palopo	6	Junio	2023-06-19T00:00:00	2024-11-08T16:00:00	5	Humedad	68
177977	7	Sololá	712	San Antonio Palopó	9	San Antonio Palopo	6	Junio	2023-06-19T00:00:00	2024-11-08T16:00:00	6	Velocidad del viento	6.4
177978	7	Sololá	712	San Antonio Palopó	9	San Antonio Palopo	6	Junio	2023-06-19T00:00:00	2024-11-08T16:00:00	7	Dirección del viento	3.22
177979	7	Sololá	712	San Antonio Palopó	9	San Antonio Palopo	6	Junio	2023-06-19T00:00:00	2024-11-08T16:00:00	1	Precipitación	0
177980	7	Sololá	712	San Antonio Palopó	9	San Antonio Palopo	6	Junio	2023-06-19T00:00:00	2024-11-08T16:00:00	8	Radiación solar	168
177981	7	Sololá	712	San Antonio Palopó	9	San Antonio Palopo	6	Junio	2023-06-19T00:00:00	2024-11-08T17:00:00	2	Temperatura media	21.4
177982	7	Sololá	712	San Antonio Palopó	9	San Antonio Palopo	6	Junio	2023-06-19T00:00:00	2024-11-08T17:00:00	4	Temperatura máxima	23.8
177983	7	Sololá	712	San Antonio Palopó	9	San Antonio Palopo	6	Junio	2023-06-19T00:00:00	2024-11-08T17:00:00	3	Temperatura mínima	21.4
177984	7	Sololá	712	San Antonio Palopó	9	San Antonio Palopo	6	Junio	2023-06-19T00:00:00	2024-11-08T17:00:00	5	Humedad	83
177985	7	Sololá	712	San Antonio Palopó	9	San Antonio Palopo	6	Junio	2023-06-19T00:00:00	2024-11-08T17:00:00	6	Velocidad del viento	6.4
177986	7	Sololá	712	San Antonio Palopó	9	San Antonio Palopo	6	Junio	2023-06-19T00:00:00	2024-11-08T17:00:00	7	Dirección del viento	3.22
177987	7	Sololá	712	San Antonio Palopó	9	San Antonio Palopo	6	Junio	2023-06-19T00:00:00	2024-11-08T17:00:00	1	Precipitación	0
177988	7	Sololá	712	San Antonio Palopó	9	San Antonio Palopo	6	Junio	2023-06-19T00:00:00	2024-11-08T17:00:00	8	Radiación solar	223
177989	7	Sololá	712	San Antonio Palopó	9	San Antonio Palopo	6	Junio	2023-06-19T00:00:00	2024-11-08T18:00:00	2	Temperatura media	21.5
177990	7	Sololá	712	San Antonio Palopó	9	San Antonio Palopo	6	Junio	2023-06-19T00:00:00	2024-11-08T18:00:00	4	Temperatura máxima	21.6
177991	7	Sololá	712	San Antonio Palopó	9	San Antonio Palopo	6	Junio	2023-06-19T00:00:00	2024-11-08T18:00:00	3	Temperatura mínima	21.3
177992	7	Sololá	712	San Antonio Palopó	9	San Antonio Palopo	6	Junio	2023-06-19T00:00:00	2024-11-08T18:00:00	5	Humedad	82
177993	7	Sololá	712	San Antonio Palopó	9	San Antonio Palopo	6	Junio	2023-06-19T00:00:00	2024-11-08T18:00:00	6	Velocidad del viento	1.6
177994	7	Sololá	712	San Antonio Palopó	9	San Antonio Palopo	6	Junio	2023-06-19T00:00:00	2024-11-08T18:00:00	7	Dirección del viento	0.8
177995	7	Sololá	712	San Antonio Palopó	9	San Antonio Palopo	6	Junio	2023-06-19T00:00:00	2024-11-08T18:00:00	1	Precipitación	0
177996	7	Sololá	712	San Antonio Palopó	9	San Antonio Palopo	6	Junio	2023-06-19T00:00:00	2024-11-08T18:00:00	8	Radiación solar	87
177997	7	Sololá	712	San Antonio Palopó	9	San Antonio Palopo	6	Junio	2023-06-19T00:00:00	2024-11-08T19:00:00	2	Temperatura media	20.9
177998	7	Sololá	712	San Antonio Palopó	9	San Antonio Palopo	6	Junio	2023-06-19T00:00:00	2024-11-08T19:00:00	4	Temperatura máxima	21.3
177999	7	Sololá	712	San Antonio Palopó	9	San Antonio Palopo	6	Junio	2023-06-19T00:00:00	2024-11-08T19:00:00	3	Temperatura mínima	20.9
178000	7	Sololá	712	San Antonio Palopó	9	San Antonio Palopo	6	Junio	2023-06-19T00:00:00	2024-11-08T19:00:00	5	Humedad	85
178001	7	Sololá	712	San Antonio Palopó	9	San Antonio Palopo	6	Junio	2023-06-19T00:00:00	2024-11-08T19:00:00	6	Velocidad del viento	1.6
178002	7	Sololá	712	San Antonio Palopó	9	San Antonio Palopo	6	Junio	2023-06-19T00:00:00	2024-11-08T19:00:00	7	Dirección del viento	0.8
178003	7	Sololá	712	San Antonio Palopó	9	San Antonio Palopo	6	Junio	2023-06-19T00:00:00	2024-11-08T19:00:00	1	Precipitación	0
178004	7	Sololá	712	San Antonio Palopó	9	San Antonio Palopo	6	Junio	2023-06-19T00:00:00	2024-11-08T19:00:00	8	Radiación solar	0
178005	7	Sololá	712	San Antonio Palopó	9	San Antonio Palopo	6	Junio	2023-06-19T00:00:00	2024-11-08T20:00:00	2	Temperatura media	21.1
178006	7	Sololá	712	San Antonio Palopó	9	San Antonio Palopo	6	Junio	2023-06-19T00:00:00	2024-11-08T20:00:00	4	Temperatura máxima	21.2
178007	7	Sololá	712	San Antonio Palopó	9	San Antonio Palopo	6	Junio	2023-06-19T00:00:00	2024-11-08T20:00:00	3	Temperatura mínima	21.1
178008	7	Sololá	712	San Antonio Palopó	9	San Antonio Palopo	6	Junio	2023-06-19T00:00:00	2024-11-08T20:00:00	5	Humedad	85
178009	7	Sololá	712	San Antonio Palopó	9	San Antonio Palopo	6	Junio	2023-06-19T00:00:00	2024-11-08T20:00:00	6	Velocidad del viento	0
178010	7	Sololá	712	San Antonio Palopó	9	San Antonio Palopo	6	Junio	2023-06-19T00:00:00	2024-11-08T20:00:00	7	Dirección del viento	0
178011	7	Sololá	712	San Antonio Palopó	9	San Antonio Palopo	6	Junio	2023-06-19T00:00:00	2024-11-08T20:00:00	1	Precipitación	0
178012	7	Sololá	712	San Antonio Palopó	9	San Antonio Palopo	6	Junio	2023-06-19T00:00:00	2024-11-08T20:00:00	8	Radiación solar	0
178013	7	Sololá	712	San Antonio Palopó	9	San Antonio Palopo	6	Junio	2023-06-19T00:00:00	2024-11-08T21:00:00	2	Temperatura media	20.9
178014	7	Sololá	712	San Antonio Palopó	9	San Antonio Palopo	6	Junio	2023-06-19T00:00:00	2024-11-08T21:00:00	4	Temperatura máxima	21.1
178015	7	Sololá	712	San Antonio Palopó	9	San Antonio Palopo	6	Junio	2023-06-19T00:00:00	2024-11-08T21:00:00	3	Temperatura mínima	20.9
178016	7	Sololá	712	San Antonio Palopó	9	San Antonio Palopo	6	Junio	2023-06-19T00:00:00	2024-11-08T21:00:00	5	Humedad	86
178017	7	Sololá	712	San Antonio Palopó	9	San Antonio Palopo	6	Junio	2023-06-19T00:00:00	2024-11-08T21:00:00	6	Velocidad del viento	1.6
178018	7	Sololá	712	San Antonio Palopó	9	San Antonio Palopo	6	Junio	2023-06-19T00:00:00	2024-11-08T21:00:00	7	Dirección del viento	0.8
178019	7	Sololá	712	San Antonio Palopó	9	San Antonio Palopo	6	Junio	2023-06-19T00:00:00	2024-11-08T21:00:00	1	Precipitación	0
178020	7	Sololá	712	San Antonio Palopó	9	San Antonio Palopo	6	Junio	2023-06-19T00:00:00	2024-11-08T21:00:00	8	Radiación solar	0
178021	7	Sololá	712	San Antonio Palopó	9	San Antonio Palopo	6	Junio	2023-06-19T00:00:00	2024-11-08T22:00:00	2	Temperatura media	20.3
178022	7	Sololá	712	San Antonio Palopó	9	San Antonio Palopo	6	Junio	2023-06-19T00:00:00	2024-11-08T22:00:00	4	Temperatura máxima	20.6
178023	7	Sololá	712	San Antonio Palopó	9	San Antonio Palopo	6	Junio	2023-06-19T00:00:00	2024-11-08T22:00:00	3	Temperatura mínima	20.3
178024	7	Sololá	712	San Antonio Palopó	9	San Antonio Palopo	6	Junio	2023-06-19T00:00:00	2024-11-08T22:00:00	5	Humedad	87
178025	7	Sololá	712	San Antonio Palopó	9	San Antonio Palopo	6	Junio	2023-06-19T00:00:00	2024-11-08T22:00:00	6	Velocidad del viento	0
178026	7	Sololá	712	San Antonio Palopó	9	San Antonio Palopo	6	Junio	2023-06-19T00:00:00	2024-11-08T22:00:00	7	Dirección del viento	0
178027	7	Sololá	712	San Antonio Palopó	9	San Antonio Palopo	6	Junio	2023-06-19T00:00:00	2024-11-08T22:00:00	1	Precipitación	0
178028	7	Sololá	712	San Antonio Palopó	9	San Antonio Palopo	6	Junio	2023-06-19T00:00:00	2024-11-08T22:00:00	8	Radiación solar	0
178029	7	Sololá	712	San Antonio Palopó	9	San Antonio Palopo	6	Junio	2023-06-19T00:00:00	2024-11-08T23:00:00	2	Temperatura media	20.3
178030	7	Sololá	712	San Antonio Palopó	9	San Antonio Palopo	6	Junio	2023-06-19T00:00:00	2024-11-08T23:00:00	4	Temperatura máxima	20.5
178031	7	Sololá	712	San Antonio Palopó	9	San Antonio Palopo	6	Junio	2023-06-19T00:00:00	2024-11-08T23:00:00	3	Temperatura mínima	20.3
178032	7	Sololá	712	San Antonio Palopó	9	San Antonio Palopo	6	Junio	2023-06-19T00:00:00	2024-11-08T23:00:00	5	Humedad	87
178033	7	Sololá	712	San Antonio Palopó	9	San Antonio Palopo	6	Junio	2023-06-19T00:00:00	2024-11-08T23:00:00	6	Velocidad del viento	1.6
178034	7	Sololá	712	San Antonio Palopó	9	San Antonio Palopo	6	Junio	2023-06-19T00:00:00	2024-11-08T23:00:00	7	Dirección del viento	0.8
178035	7	Sololá	712	San Antonio Palopó	9	San Antonio Palopo	6	Junio	2023-06-19T00:00:00	2024-11-08T23:00:00	1	Precipitación	0
178036	7	Sololá	712	San Antonio Palopó	9	San Antonio Palopo	6	Junio	2023-06-19T00:00:00	2024-11-08T23:00:00	8	Radiación solar	0
178037	7	Sololá	712	San Antonio Palopó	9	San Antonio Palopo	6	Junio	2023-06-20T00:00:00	2024-11-08T00:00:00	2	Temperatura media	20.4
178038	7	Sololá	712	San Antonio Palopó	9	San Antonio Palopo	6	Junio	2023-06-20T00:00:00	2024-11-08T00:00:00	4	Temperatura máxima	20.5
178039	7	Sololá	712	San Antonio Palopó	9	San Antonio Palopo	6	Junio	2023-06-20T00:00:00	2024-11-08T00:00:00	3	Temperatura mínima	20.3
178040	7	Sololá	712	San Antonio Palopó	9	San Antonio Palopo	6	Junio	2023-06-20T00:00:00	2024-11-08T00:00:00	5	Humedad	86
178041	7	Sololá	712	San Antonio Palopó	9	San Antonio Palopo	6	Junio	2023-06-20T00:00:00	2024-11-08T00:00:00	6	Velocidad del viento	1.6
178042	7	Sololá	712	San Antonio Palopó	9	San Antonio Palopo	6	Junio	2023-06-20T00:00:00	2024-11-08T00:00:00	7	Dirección del viento	0.8
178043	7	Sololá	712	San Antonio Palopó	9	San Antonio Palopo	6	Junio	2023-06-20T00:00:00	2024-11-08T00:00:00	1	Precipitación	0
178044	7	Sololá	712	San Antonio Palopó	9	San Antonio Palopo	6	Junio	2023-06-20T00:00:00	2024-11-08T00:00:00	8	Radiación solar	0
178045	7	Sololá	712	San Antonio Palopó	9	San Antonio Palopo	6	Junio	2023-06-20T00:00:00	2024-11-08T01:00:00	2	Temperatura media	20.5
178046	7	Sololá	712	San Antonio Palopó	9	San Antonio Palopo	6	Junio	2023-06-20T00:00:00	2024-11-08T01:00:00	4	Temperatura máxima	20.6
178047	7	Sololá	712	San Antonio Palopó	9	San Antonio Palopo	6	Junio	2023-06-20T00:00:00	2024-11-08T01:00:00	3	Temperatura mínima	20.4
178048	7	Sololá	712	San Antonio Palopó	9	San Antonio Palopo	6	Junio	2023-06-20T00:00:00	2024-11-08T01:00:00	5	Humedad	83
178049	7	Sololá	712	San Antonio Palopó	9	San Antonio Palopo	6	Junio	2023-06-20T00:00:00	2024-11-08T01:00:00	6	Velocidad del viento	0
178050	7	Sololá	712	San Antonio Palopó	9	San Antonio Palopo	6	Junio	2023-06-20T00:00:00	2024-11-08T01:00:00	7	Dirección del viento	0
178051	7	Sololá	712	San Antonio Palopó	9	San Antonio Palopo	6	Junio	2023-06-20T00:00:00	2024-11-08T01:00:00	1	Precipitación	0
178052	7	Sololá	712	San Antonio Palopó	9	San Antonio Palopo	6	Junio	2023-06-20T00:00:00	2024-11-08T01:00:00	8	Radiación solar	0
178053	7	Sololá	712	San Antonio Palopó	9	San Antonio Palopo	6	Junio	2023-06-20T00:00:00	2024-11-08T02:00:00	2	Temperatura media	20.3
178054	7	Sololá	712	San Antonio Palopó	9	San Antonio Palopo	6	Junio	2023-06-20T00:00:00	2024-11-08T02:00:00	4	Temperatura máxima	20.5
178055	7	Sololá	712	San Antonio Palopó	9	San Antonio Palopo	6	Junio	2023-06-20T00:00:00	2024-11-08T02:00:00	3	Temperatura mínima	20.3
178056	7	Sololá	712	San Antonio Palopó	9	San Antonio Palopo	6	Junio	2023-06-20T00:00:00	2024-11-08T02:00:00	5	Humedad	85
178057	7	Sololá	712	San Antonio Palopó	9	San Antonio Palopo	6	Junio	2023-06-20T00:00:00	2024-11-08T02:00:00	6	Velocidad del viento	0
178058	7	Sololá	712	San Antonio Palopó	9	San Antonio Palopo	6	Junio	2023-06-20T00:00:00	2024-11-08T02:00:00	7	Dirección del viento	0
178059	7	Sololá	712	San Antonio Palopó	9	San Antonio Palopo	6	Junio	2023-06-20T00:00:00	2024-11-08T02:00:00	1	Precipitación	0
178060	7	Sololá	712	San Antonio Palopó	9	San Antonio Palopo	6	Junio	2023-06-20T00:00:00	2024-11-08T02:00:00	8	Radiación solar	0
178061	7	Sololá	712	San Antonio Palopó	9	San Antonio Palopo	6	Junio	2023-06-20T00:00:00	2024-11-08T03:00:00	2	Temperatura media	20.3
178062	7	Sololá	712	San Antonio Palopó	9	San Antonio Palopo	6	Junio	2023-06-20T00:00:00	2024-11-08T03:00:00	4	Temperatura máxima	20.3
178063	7	Sololá	712	San Antonio Palopó	9	San Antonio Palopo	6	Junio	2023-06-20T00:00:00	2024-11-08T03:00:00	3	Temperatura mínima	20.3
178064	7	Sololá	712	San Antonio Palopó	9	San Antonio Palopo	6	Junio	2023-06-20T00:00:00	2024-11-08T03:00:00	5	Humedad	85
178065	7	Sololá	712	San Antonio Palopó	9	San Antonio Palopo	6	Junio	2023-06-20T00:00:00	2024-11-08T03:00:00	6	Velocidad del viento	0
178066	7	Sololá	712	San Antonio Palopó	9	San Antonio Palopo	6	Junio	2023-06-20T00:00:00	2024-11-08T03:00:00	7	Dirección del viento	0
178067	7	Sololá	712	San Antonio Palopó	9	San Antonio Palopo	6	Junio	2023-06-20T00:00:00	2024-11-08T03:00:00	1	Precipitación	0
178068	7	Sololá	712	San Antonio Palopó	9	San Antonio Palopo	6	Junio	2023-06-20T00:00:00	2024-11-08T03:00:00	8	Radiación solar	0
178069	7	Sololá	712	San Antonio Palopó	9	San Antonio Palopo	6	Junio	2023-06-20T00:00:00	2024-11-08T04:00:00	2	Temperatura media	19.9
178070	7	Sololá	712	San Antonio Palopó	9	San Antonio Palopo	6	Junio	2023-06-20T00:00:00	2024-11-08T04:00:00	4	Temperatura máxima	20.4
178071	7	Sololá	712	San Antonio Palopó	9	San Antonio Palopo	6	Junio	2023-06-20T00:00:00	2024-11-08T04:00:00	3	Temperatura mínima	19.9
178072	7	Sololá	712	San Antonio Palopó	9	San Antonio Palopo	6	Junio	2023-06-20T00:00:00	2024-11-08T04:00:00	5	Humedad	88
178073	7	Sololá	712	San Antonio Palopó	9	San Antonio Palopo	6	Junio	2023-06-20T00:00:00	2024-11-08T04:00:00	6	Velocidad del viento	0
178074	7	Sololá	712	San Antonio Palopó	9	San Antonio Palopo	6	Junio	2023-06-20T00:00:00	2024-11-08T04:00:00	7	Dirección del viento	0
178075	7	Sololá	712	San Antonio Palopó	9	San Antonio Palopo	6	Junio	2023-06-20T00:00:00	2024-11-08T04:00:00	1	Precipitación	0
178076	7	Sololá	712	San Antonio Palopó	9	San Antonio Palopo	6	Junio	2023-06-20T00:00:00	2024-11-08T04:00:00	8	Radiación solar	0
178077	7	Sololá	712	San Antonio Palopó	9	San Antonio Palopo	6	Junio	2023-06-20T00:00:00	2024-11-08T05:00:00	2	Temperatura media	19.8
178078	7	Sololá	712	San Antonio Palopó	9	San Antonio Palopo	6	Junio	2023-06-20T00:00:00	2024-11-08T05:00:00	4	Temperatura máxima	19.8
178079	7	Sololá	712	San Antonio Palopó	9	San Antonio Palopo	6	Junio	2023-06-20T00:00:00	2024-11-08T05:00:00	3	Temperatura mínima	19.8
178080	7	Sololá	712	San Antonio Palopó	9	San Antonio Palopo	6	Junio	2023-06-20T00:00:00	2024-11-08T05:00:00	5	Humedad	87
178081	7	Sololá	712	San Antonio Palopó	9	San Antonio Palopo	6	Junio	2023-06-20T00:00:00	2024-11-08T05:00:00	6	Velocidad del viento	0
178082	7	Sololá	712	San Antonio Palopó	9	San Antonio Palopo	6	Junio	2023-06-20T00:00:00	2024-11-08T05:00:00	7	Dirección del viento	0
178083	7	Sololá	712	San Antonio Palopó	9	San Antonio Palopo	6	Junio	2023-06-20T00:00:00	2024-11-08T05:00:00	1	Precipitación	0
178084	7	Sololá	712	San Antonio Palopó	9	San Antonio Palopo	6	Junio	2023-06-20T00:00:00	2024-11-08T05:00:00	8	Radiación solar	0
178085	7	Sololá	712	San Antonio Palopó	9	San Antonio Palopo	6	Junio	2023-06-20T00:00:00	2024-11-08T06:00:00	2	Temperatura media	19.9
178086	7	Sololá	712	San Antonio Palopó	9	San Antonio Palopo	6	Junio	2023-06-20T00:00:00	2024-11-08T06:00:00	4	Temperatura máxima	19.9
178087	7	Sololá	712	San Antonio Palopó	9	San Antonio Palopo	6	Junio	2023-06-20T00:00:00	2024-11-08T06:00:00	3	Temperatura mínima	19.8
178088	7	Sololá	712	San Antonio Palopó	9	San Antonio Palopo	6	Junio	2023-06-20T00:00:00	2024-11-08T06:00:00	5	Humedad	87
178089	7	Sololá	712	San Antonio Palopó	9	San Antonio Palopo	6	Junio	2023-06-20T00:00:00	2024-11-08T06:00:00	6	Velocidad del viento	0
178090	7	Sololá	712	San Antonio Palopó	9	San Antonio Palopo	6	Junio	2023-06-20T00:00:00	2024-11-08T06:00:00	7	Dirección del viento	0
178091	7	Sololá	712	San Antonio Palopó	9	San Antonio Palopo	6	Junio	2023-06-20T00:00:00	2024-11-08T06:00:00	1	Precipitación	0
178092	7	Sololá	712	San Antonio Palopó	9	San Antonio Palopo	6	Junio	2023-06-20T00:00:00	2024-11-08T06:00:00	8	Radiación solar	0
178093	7	Sololá	712	San Antonio Palopó	9	San Antonio Palopo	6	Junio	2023-06-20T00:00:00	2024-11-08T07:00:00	2	Temperatura media	20.4
178094	7	Sololá	712	San Antonio Palopó	9	San Antonio Palopo	6	Junio	2023-06-20T00:00:00	2024-11-08T07:00:00	4	Temperatura máxima	20.4
178095	7	Sololá	712	San Antonio Palopó	9	San Antonio Palopo	6	Junio	2023-06-20T00:00:00	2024-11-08T07:00:00	3	Temperatura mínima	20
178096	7	Sololá	712	San Antonio Palopó	9	San Antonio Palopo	6	Junio	2023-06-20T00:00:00	2024-11-08T07:00:00	5	Humedad	86
178097	7	Sololá	712	San Antonio Palopó	9	San Antonio Palopo	6	Junio	2023-06-20T00:00:00	2024-11-08T07:00:00	6	Velocidad del viento	0
178098	7	Sololá	712	San Antonio Palopó	9	San Antonio Palopo	6	Junio	2023-06-20T00:00:00	2024-11-08T07:00:00	7	Dirección del viento	0
178099	7	Sololá	712	San Antonio Palopó	9	San Antonio Palopo	6	Junio	2023-06-20T00:00:00	2024-11-08T07:00:00	1	Precipitación	0
178100	7	Sololá	712	San Antonio Palopó	9	San Antonio Palopo	6	Junio	2023-06-20T00:00:00	2024-11-08T07:00:00	8	Radiación solar	34
178101	7	Sololá	712	San Antonio Palopó	9	San Antonio Palopo	6	Junio	2023-06-20T00:00:00	2024-11-08T08:00:00	2	Temperatura media	21.6
178102	7	Sololá	712	San Antonio Palopó	9	San Antonio Palopo	6	Junio	2023-06-20T00:00:00	2024-11-08T08:00:00	4	Temperatura máxima	21.6
178103	7	Sololá	712	San Antonio Palopó	9	San Antonio Palopo	6	Junio	2023-06-20T00:00:00	2024-11-08T08:00:00	3	Temperatura mínima	20.8
178104	7	Sololá	712	San Antonio Palopó	9	San Antonio Palopo	6	Junio	2023-06-20T00:00:00	2024-11-08T08:00:00	5	Humedad	83
178105	7	Sololá	712	San Antonio Palopó	9	San Antonio Palopo	6	Junio	2023-06-20T00:00:00	2024-11-08T08:00:00	6	Velocidad del viento	0
178106	7	Sololá	712	San Antonio Palopó	9	San Antonio Palopo	6	Junio	2023-06-20T00:00:00	2024-11-08T08:00:00	7	Dirección del viento	0
178107	7	Sololá	712	San Antonio Palopó	9	San Antonio Palopo	6	Junio	2023-06-20T00:00:00	2024-11-08T08:00:00	1	Precipitación	0
178108	7	Sololá	712	San Antonio Palopó	9	San Antonio Palopo	6	Junio	2023-06-20T00:00:00	2024-11-08T08:00:00	8	Radiación solar	119
178109	7	Sololá	712	San Antonio Palopó	9	San Antonio Palopo	6	Junio	2023-06-20T00:00:00	2024-11-08T09:00:00	2	Temperatura media	22.8
178110	7	Sololá	712	San Antonio Palopó	9	San Antonio Palopo	6	Junio	2023-06-20T00:00:00	2024-11-08T09:00:00	4	Temperatura máxima	22.9
178111	7	Sololá	712	San Antonio Palopó	9	San Antonio Palopo	6	Junio	2023-06-20T00:00:00	2024-11-08T09:00:00	3	Temperatura mínima	22.6
178112	7	Sololá	712	San Antonio Palopó	9	San Antonio Palopo	6	Junio	2023-06-20T00:00:00	2024-11-08T09:00:00	5	Humedad	79
178113	7	Sololá	712	San Antonio Palopó	9	San Antonio Palopo	6	Junio	2023-06-20T00:00:00	2024-11-08T09:00:00	6	Velocidad del viento	0
178114	7	Sololá	712	San Antonio Palopó	9	San Antonio Palopo	6	Junio	2023-06-20T00:00:00	2024-11-08T09:00:00	7	Dirección del viento	0
178115	7	Sololá	712	San Antonio Palopó	9	San Antonio Palopo	6	Junio	2023-06-20T00:00:00	2024-11-08T09:00:00	1	Precipitación	0
178116	7	Sololá	712	San Antonio Palopó	9	San Antonio Palopo	6	Junio	2023-06-20T00:00:00	2024-11-08T09:00:00	8	Radiación solar	161
178117	7	Sololá	712	San Antonio Palopó	9	San Antonio Palopo	6	Junio	2023-06-20T00:00:00	2024-11-08T10:00:00	2	Temperatura media	22.7
178118	7	Sololá	712	San Antonio Palopó	9	San Antonio Palopo	6	Junio	2023-06-20T00:00:00	2024-11-08T10:00:00	4	Temperatura máxima	23.2
178119	7	Sololá	712	San Antonio Palopó	9	San Antonio Palopo	6	Junio	2023-06-20T00:00:00	2024-11-08T10:00:00	3	Temperatura mínima	22.7
178120	7	Sololá	712	San Antonio Palopó	9	San Antonio Palopo	6	Junio	2023-06-20T00:00:00	2024-11-08T10:00:00	5	Humedad	79
178121	7	Sololá	712	San Antonio Palopó	9	San Antonio Palopo	6	Junio	2023-06-20T00:00:00	2024-11-08T10:00:00	6	Velocidad del viento	1.6
178122	7	Sololá	712	San Antonio Palopó	9	San Antonio Palopo	6	Junio	2023-06-20T00:00:00	2024-11-08T10:00:00	7	Dirección del viento	0.8
178123	7	Sololá	712	San Antonio Palopó	9	San Antonio Palopo	6	Junio	2023-06-20T00:00:00	2024-11-08T10:00:00	1	Precipitación	0
178124	7	Sololá	712	San Antonio Palopó	9	San Antonio Palopo	6	Junio	2023-06-20T00:00:00	2024-11-08T10:00:00	8	Radiación solar	300
178125	7	Sololá	712	San Antonio Palopó	9	San Antonio Palopo	6	Junio	2023-06-20T00:00:00	2024-11-08T11:00:00	2	Temperatura media	22.9
178126	7	Sololá	712	San Antonio Palopó	9	San Antonio Palopo	6	Junio	2023-06-20T00:00:00	2024-11-08T11:00:00	4	Temperatura máxima	23.4
178127	7	Sololá	712	San Antonio Palopó	9	San Antonio Palopo	6	Junio	2023-06-20T00:00:00	2024-11-08T11:00:00	3	Temperatura mínima	22.8
178128	7	Sololá	712	San Antonio Palopó	9	San Antonio Palopo	6	Junio	2023-06-20T00:00:00	2024-11-08T11:00:00	5	Humedad	78
178129	7	Sololá	712	San Antonio Palopó	9	San Antonio Palopo	6	Junio	2023-06-20T00:00:00	2024-11-08T11:00:00	6	Velocidad del viento	3.2
178130	7	Sololá	712	San Antonio Palopó	9	San Antonio Palopo	6	Junio	2023-06-20T00:00:00	2024-11-08T11:00:00	7	Dirección del viento	1.61
178131	7	Sololá	712	San Antonio Palopó	9	San Antonio Palopo	6	Junio	2023-06-20T00:00:00	2024-11-08T11:00:00	1	Precipitación	0
178132	7	Sololá	712	San Antonio Palopó	9	San Antonio Palopo	6	Junio	2023-06-20T00:00:00	2024-11-08T11:00:00	8	Radiación solar	324
178133	7	Sololá	712	San Antonio Palopó	9	San Antonio Palopo	6	Junio	2023-06-20T00:00:00	2024-11-08T12:00:00	2	Temperatura media	24.3
178134	7	Sololá	712	San Antonio Palopó	9	San Antonio Palopo	6	Junio	2023-06-20T00:00:00	2024-11-08T12:00:00	4	Temperatura máxima	24.6
178135	7	Sololá	712	San Antonio Palopó	9	San Antonio Palopo	6	Junio	2023-06-20T00:00:00	2024-11-08T12:00:00	3	Temperatura mínima	23.8
178136	7	Sololá	712	San Antonio Palopó	9	San Antonio Palopo	6	Junio	2023-06-20T00:00:00	2024-11-08T12:00:00	5	Humedad	73
178137	7	Sololá	712	San Antonio Palopó	9	San Antonio Palopo	6	Junio	2023-06-20T00:00:00	2024-11-08T12:00:00	6	Velocidad del viento	4.8
178138	7	Sololá	712	San Antonio Palopó	9	San Antonio Palopo	6	Junio	2023-06-20T00:00:00	2024-11-08T12:00:00	7	Dirección del viento	2.41
178139	7	Sololá	712	San Antonio Palopó	9	San Antonio Palopo	6	Junio	2023-06-20T00:00:00	2024-11-08T12:00:00	1	Precipitación	0
178140	7	Sololá	712	San Antonio Palopó	9	San Antonio Palopo	6	Junio	2023-06-20T00:00:00	2024-11-08T12:00:00	8	Radiación solar	278
178141	7	Sololá	712	San Antonio Palopó	9	San Antonio Palopo	6	Junio	2023-06-20T00:00:00	2024-11-08T13:00:00	2	Temperatura media	22.9
178142	7	Sololá	712	San Antonio Palopó	9	San Antonio Palopo	6	Junio	2023-06-20T00:00:00	2024-11-08T13:00:00	4	Temperatura máxima	23.4
178143	7	Sololá	712	San Antonio Palopó	9	San Antonio Palopo	6	Junio	2023-06-20T00:00:00	2024-11-08T13:00:00	3	Temperatura mínima	22.9
178144	7	Sololá	712	San Antonio Palopó	9	San Antonio Palopo	6	Junio	2023-06-20T00:00:00	2024-11-08T13:00:00	5	Humedad	78
178145	7	Sololá	712	San Antonio Palopó	9	San Antonio Palopo	6	Junio	2023-06-20T00:00:00	2024-11-08T13:00:00	6	Velocidad del viento	1.6
178146	7	Sololá	712	San Antonio Palopó	9	San Antonio Palopo	6	Junio	2023-06-20T00:00:00	2024-11-08T13:00:00	7	Dirección del viento	0.8
178147	7	Sololá	712	San Antonio Palopó	9	San Antonio Palopo	6	Junio	2023-06-20T00:00:00	2024-11-08T13:00:00	1	Precipitación	0
178148	7	Sololá	712	San Antonio Palopó	9	San Antonio Palopo	6	Junio	2023-06-20T00:00:00	2024-11-08T13:00:00	8	Radiación solar	285
178149	7	Sololá	712	San Antonio Palopó	9	San Antonio Palopo	6	Junio	2023-06-20T00:00:00	2024-11-08T14:00:00	2	Temperatura media	22.3
178150	7	Sololá	712	San Antonio Palopó	9	San Antonio Palopo	6	Junio	2023-06-20T00:00:00	2024-11-08T14:00:00	4	Temperatura máxima	22.3
178151	7	Sololá	712	San Antonio Palopó	9	San Antonio Palopo	6	Junio	2023-06-20T00:00:00	2024-11-08T14:00:00	3	Temperatura mínima	21.8
178152	7	Sololá	712	San Antonio Palopó	9	San Antonio Palopo	6	Junio	2023-06-20T00:00:00	2024-11-08T14:00:00	5	Humedad	84
178153	7	Sololá	712	San Antonio Palopó	9	San Antonio Palopo	6	Junio	2023-06-20T00:00:00	2024-11-08T14:00:00	6	Velocidad del viento	1.6
178154	7	Sololá	712	San Antonio Palopó	9	San Antonio Palopo	6	Junio	2023-06-20T00:00:00	2024-11-08T14:00:00	7	Dirección del viento	0.8
178155	7	Sololá	712	San Antonio Palopó	9	San Antonio Palopo	6	Junio	2023-06-20T00:00:00	2024-11-08T14:00:00	1	Precipitación	0
178156	7	Sololá	712	San Antonio Palopó	9	San Antonio Palopo	6	Junio	2023-06-20T00:00:00	2024-11-08T14:00:00	8	Radiación solar	358
178157	7	Sololá	712	San Antonio Palopó	9	San Antonio Palopo	6	Junio	2023-06-20T00:00:00	2024-11-08T15:00:00	2	Temperatura media	23.5
178158	7	Sololá	712	San Antonio Palopó	9	San Antonio Palopo	6	Junio	2023-06-20T00:00:00	2024-11-08T15:00:00	4	Temperatura máxima	23.7
178159	7	Sololá	712	San Antonio Palopó	9	San Antonio Palopo	6	Junio	2023-06-20T00:00:00	2024-11-08T15:00:00	3	Temperatura mínima	23.4
178160	7	Sololá	712	San Antonio Palopó	9	San Antonio Palopo	6	Junio	2023-06-20T00:00:00	2024-11-08T15:00:00	5	Humedad	78
178161	7	Sololá	712	San Antonio Palopó	9	San Antonio Palopo	6	Junio	2023-06-20T00:00:00	2024-11-08T15:00:00	6	Velocidad del viento	3.2
178162	7	Sololá	712	San Antonio Palopó	9	San Antonio Palopo	6	Junio	2023-06-20T00:00:00	2024-11-08T15:00:00	7	Dirección del viento	1.61
178163	7	Sololá	712	San Antonio Palopó	9	San Antonio Palopo	6	Junio	2023-06-20T00:00:00	2024-11-08T15:00:00	1	Precipitación	0
178164	7	Sololá	712	San Antonio Palopó	9	San Antonio Palopo	6	Junio	2023-06-20T00:00:00	2024-11-08T15:00:00	8	Radiación solar	602
178165	7	Sololá	712	San Antonio Palopó	9	San Antonio Palopo	6	Junio	2023-06-20T00:00:00	2024-11-08T16:00:00	2	Temperatura media	23.2
178166	7	Sololá	712	San Antonio Palopó	9	San Antonio Palopo	6	Junio	2023-06-20T00:00:00	2024-11-08T16:00:00	4	Temperatura máxima	24.2
178167	7	Sololá	712	San Antonio Palopó	9	San Antonio Palopo	6	Junio	2023-06-20T00:00:00	2024-11-08T16:00:00	3	Temperatura mínima	23.2
178168	7	Sololá	712	San Antonio Palopó	9	San Antonio Palopo	6	Junio	2023-06-20T00:00:00	2024-11-08T16:00:00	5	Humedad	81
178169	7	Sololá	712	San Antonio Palopó	9	San Antonio Palopo	6	Junio	2023-06-20T00:00:00	2024-11-08T16:00:00	6	Velocidad del viento	4.8
178170	7	Sololá	712	San Antonio Palopó	9	San Antonio Palopo	6	Junio	2023-06-20T00:00:00	2024-11-08T16:00:00	7	Dirección del viento	2.41
178171	7	Sololá	712	San Antonio Palopó	9	San Antonio Palopo	6	Junio	2023-06-20T00:00:00	2024-11-08T16:00:00	1	Precipitación	0.6
178172	7	Sololá	712	San Antonio Palopó	9	San Antonio Palopo	6	Junio	2023-06-20T00:00:00	2024-11-08T16:00:00	8	Radiación solar	356
178173	7	Sololá	712	San Antonio Palopó	9	San Antonio Palopo	6	Junio	2023-06-20T00:00:00	2024-11-08T17:00:00	2	Temperatura media	18.9
178174	7	Sololá	712	San Antonio Palopó	9	San Antonio Palopo	6	Junio	2023-06-20T00:00:00	2024-11-08T17:00:00	4	Temperatura máxima	20.8
178175	7	Sololá	712	San Antonio Palopó	9	San Antonio Palopo	6	Junio	2023-06-20T00:00:00	2024-11-08T17:00:00	3	Temperatura mínima	18.9
178176	7	Sololá	712	San Antonio Palopó	9	San Antonio Palopo	6	Junio	2023-06-20T00:00:00	2024-11-08T17:00:00	5	Humedad	94
178177	7	Sololá	712	San Antonio Palopó	9	San Antonio Palopo	6	Junio	2023-06-20T00:00:00	2024-11-08T17:00:00	6	Velocidad del viento	9.7
178178	7	Sololá	712	San Antonio Palopó	9	San Antonio Palopo	6	Junio	2023-06-20T00:00:00	2024-11-08T17:00:00	7	Dirección del viento	4.83
178179	7	Sololá	712	San Antonio Palopó	9	San Antonio Palopo	6	Junio	2023-06-20T00:00:00	2024-11-08T17:00:00	1	Precipitación	0
178180	7	Sololá	712	San Antonio Palopó	9	San Antonio Palopo	6	Junio	2023-06-20T00:00:00	2024-11-08T17:00:00	8	Radiación solar	153
178181	7	Sololá	712	San Antonio Palopó	9	San Antonio Palopo	6	Junio	2023-06-20T00:00:00	2024-11-08T18:00:00	2	Temperatura media	19.3
178182	7	Sololá	712	San Antonio Palopó	9	San Antonio Palopo	6	Junio	2023-06-20T00:00:00	2024-11-08T18:00:00	4	Temperatura máxima	19.6
178183	7	Sololá	712	San Antonio Palopó	9	San Antonio Palopo	6	Junio	2023-06-20T00:00:00	2024-11-08T18:00:00	3	Temperatura mínima	19.2
178184	7	Sololá	712	San Antonio Palopó	9	San Antonio Palopo	6	Junio	2023-06-20T00:00:00	2024-11-08T18:00:00	5	Humedad	85
178185	7	Sololá	712	San Antonio Palopó	9	San Antonio Palopo	6	Junio	2023-06-20T00:00:00	2024-11-08T18:00:00	6	Velocidad del viento	3.2
178186	7	Sololá	712	San Antonio Palopó	9	San Antonio Palopo	6	Junio	2023-06-20T00:00:00	2024-11-08T18:00:00	7	Dirección del viento	1.61
178187	7	Sololá	712	San Antonio Palopó	9	San Antonio Palopo	6	Junio	2023-06-20T00:00:00	2024-11-08T18:00:00	1	Precipitación	3
178188	7	Sololá	712	San Antonio Palopó	9	San Antonio Palopo	6	Junio	2023-06-20T00:00:00	2024-11-08T18:00:00	8	Radiación solar	53
178189	7	Sololá	712	San Antonio Palopó	9	San Antonio Palopo	6	Junio	2023-06-20T00:00:00	2024-11-08T19:00:00	2	Temperatura media	18.3
178190	7	Sololá	712	San Antonio Palopó	9	San Antonio Palopo	6	Junio	2023-06-20T00:00:00	2024-11-08T19:00:00	4	Temperatura máxima	18.8
178191	7	Sololá	712	San Antonio Palopó	9	San Antonio Palopo	6	Junio	2023-06-20T00:00:00	2024-11-08T19:00:00	3	Temperatura mínima	18.3
178192	7	Sololá	712	San Antonio Palopó	9	San Antonio Palopo	6	Junio	2023-06-20T00:00:00	2024-11-08T19:00:00	5	Humedad	90
178193	7	Sololá	712	San Antonio Palopó	9	San Antonio Palopo	6	Junio	2023-06-20T00:00:00	2024-11-08T19:00:00	6	Velocidad del viento	1.6
178194	7	Sololá	712	San Antonio Palopó	9	San Antonio Palopo	6	Junio	2023-06-20T00:00:00	2024-11-08T19:00:00	7	Dirección del viento	0.8
178195	7	Sololá	712	San Antonio Palopó	9	San Antonio Palopo	6	Junio	2023-06-20T00:00:00	2024-11-08T19:00:00	1	Precipitación	1.2
178196	7	Sololá	712	San Antonio Palopó	9	San Antonio Palopo	6	Junio	2023-06-20T00:00:00	2024-11-08T19:00:00	8	Radiación solar	0
178197	7	Sololá	712	San Antonio Palopó	9	San Antonio Palopo	6	Junio	2023-06-20T00:00:00	2024-11-08T20:00:00	2	Temperatura media	18.6
178198	7	Sololá	712	San Antonio Palopó	9	San Antonio Palopo	6	Junio	2023-06-20T00:00:00	2024-11-08T20:00:00	4	Temperatura máxima	18.6
178199	7	Sololá	712	San Antonio Palopó	9	San Antonio Palopo	6	Junio	2023-06-20T00:00:00	2024-11-08T20:00:00	3	Temperatura mínima	18.3
178200	7	Sololá	712	San Antonio Palopó	9	San Antonio Palopo	6	Junio	2023-06-20T00:00:00	2024-11-08T20:00:00	5	Humedad	89
178201	7	Sololá	712	San Antonio Palopó	9	San Antonio Palopo	6	Junio	2023-06-20T00:00:00	2024-11-08T20:00:00	6	Velocidad del viento	3.2
178202	7	Sololá	712	San Antonio Palopó	9	San Antonio Palopo	6	Junio	2023-06-20T00:00:00	2024-11-08T20:00:00	7	Dirección del viento	1.61
178203	7	Sololá	712	San Antonio Palopó	9	San Antonio Palopo	6	Junio	2023-06-20T00:00:00	2024-11-08T20:00:00	1	Precipitación	0
178204	7	Sololá	712	San Antonio Palopó	9	San Antonio Palopo	6	Junio	2023-06-20T00:00:00	2024-11-08T20:00:00	8	Radiación solar	0
178205	7	Sololá	712	San Antonio Palopó	9	San Antonio Palopo	6	Junio	2023-06-20T00:00:00	2024-11-08T21:00:00	2	Temperatura media	18.2
178206	7	Sololá	712	San Antonio Palopó	9	San Antonio Palopo	6	Junio	2023-06-20T00:00:00	2024-11-08T21:00:00	4	Temperatura máxima	18.4
178207	7	Sololá	712	San Antonio Palopó	9	San Antonio Palopo	6	Junio	2023-06-20T00:00:00	2024-11-08T21:00:00	3	Temperatura mínima	18.2
178208	7	Sololá	712	San Antonio Palopó	9	San Antonio Palopo	6	Junio	2023-06-20T00:00:00	2024-11-08T21:00:00	5	Humedad	91
178209	7	Sololá	712	San Antonio Palopó	9	San Antonio Palopo	6	Junio	2023-06-20T00:00:00	2024-11-08T21:00:00	6	Velocidad del viento	3.2
178210	7	Sololá	712	San Antonio Palopó	9	San Antonio Palopo	6	Junio	2023-06-20T00:00:00	2024-11-08T21:00:00	7	Dirección del viento	1.61
178211	7	Sololá	712	San Antonio Palopó	9	San Antonio Palopo	6	Junio	2023-06-20T00:00:00	2024-11-08T21:00:00	1	Precipitación	2.6
178212	7	Sololá	712	San Antonio Palopó	9	San Antonio Palopo	6	Junio	2023-06-20T00:00:00	2024-11-08T21:00:00	8	Radiación solar	0
178213	7	Sololá	712	San Antonio Palopó	9	San Antonio Palopo	6	Junio	2023-06-20T00:00:00	2024-11-08T22:00:00	2	Temperatura media	17.8
178214	7	Sololá	712	San Antonio Palopó	9	San Antonio Palopo	6	Junio	2023-06-20T00:00:00	2024-11-08T22:00:00	4	Temperatura máxima	18
178215	7	Sololá	712	San Antonio Palopó	9	San Antonio Palopo	6	Junio	2023-06-20T00:00:00	2024-11-08T22:00:00	3	Temperatura mínima	17.8
178216	7	Sololá	712	San Antonio Palopó	9	San Antonio Palopo	6	Junio	2023-06-20T00:00:00	2024-11-08T22:00:00	5	Humedad	91
178217	7	Sololá	712	San Antonio Palopó	9	San Antonio Palopo	6	Junio	2023-06-20T00:00:00	2024-11-08T22:00:00	6	Velocidad del viento	0
178218	7	Sololá	712	San Antonio Palopó	9	San Antonio Palopo	6	Junio	2023-06-20T00:00:00	2024-11-08T22:00:00	7	Dirección del viento	0
178219	7	Sololá	712	San Antonio Palopó	9	San Antonio Palopo	6	Junio	2023-06-20T00:00:00	2024-11-08T22:00:00	1	Precipitación	0
178220	7	Sololá	712	San Antonio Palopó	9	San Antonio Palopo	6	Junio	2023-06-20T00:00:00	2024-11-08T22:00:00	8	Radiación solar	0
178221	7	Sololá	712	San Antonio Palopó	9	San Antonio Palopo	6	Junio	2023-06-20T00:00:00	2024-11-08T23:00:00	2	Temperatura media	18.1
178222	7	Sololá	712	San Antonio Palopó	9	San Antonio Palopo	6	Junio	2023-06-20T00:00:00	2024-11-08T23:00:00	4	Temperatura máxima	18.1
178223	7	Sololá	712	San Antonio Palopó	9	San Antonio Palopo	6	Junio	2023-06-20T00:00:00	2024-11-08T23:00:00	3	Temperatura mínima	17.8
178224	7	Sololá	712	San Antonio Palopó	9	San Antonio Palopo	6	Junio	2023-06-20T00:00:00	2024-11-08T23:00:00	5	Humedad	93
178225	7	Sololá	712	San Antonio Palopó	9	San Antonio Palopo	6	Junio	2023-06-20T00:00:00	2024-11-08T23:00:00	6	Velocidad del viento	0
178226	7	Sololá	712	San Antonio Palopó	9	San Antonio Palopo	6	Junio	2023-06-20T00:00:00	2024-11-08T23:00:00	7	Dirección del viento	0
178227	7	Sololá	712	San Antonio Palopó	9	San Antonio Palopo	6	Junio	2023-06-20T00:00:00	2024-11-08T23:00:00	1	Precipitación	1.8
178228	7	Sololá	712	San Antonio Palopó	9	San Antonio Palopo	6	Junio	2023-06-20T00:00:00	2024-11-08T23:00:00	8	Radiación solar	0
178229	7	Sololá	712	San Antonio Palopó	9	San Antonio Palopo	6	Junio	2023-06-21T00:00:00	2024-11-08T00:00:00	2	Temperatura media	17.9
178230	7	Sololá	712	San Antonio Palopó	9	San Antonio Palopo	6	Junio	2023-06-21T00:00:00	2024-11-08T00:00:00	4	Temperatura máxima	17.9
178231	7	Sololá	712	San Antonio Palopó	9	San Antonio Palopo	6	Junio	2023-06-21T00:00:00	2024-11-08T00:00:00	3	Temperatura mínima	17.8
178232	7	Sololá	712	San Antonio Palopó	9	San Antonio Palopo	6	Junio	2023-06-21T00:00:00	2024-11-08T00:00:00	5	Humedad	93
178233	7	Sololá	712	San Antonio Palopó	9	San Antonio Palopo	6	Junio	2023-06-21T00:00:00	2024-11-08T00:00:00	6	Velocidad del viento	0
178234	7	Sololá	712	San Antonio Palopó	9	San Antonio Palopo	6	Junio	2023-06-21T00:00:00	2024-11-08T00:00:00	7	Dirección del viento	0
178235	7	Sololá	712	San Antonio Palopó	9	San Antonio Palopo	6	Junio	2023-06-21T00:00:00	2024-11-08T00:00:00	1	Precipitación	0.2
178236	7	Sololá	712	San Antonio Palopó	9	San Antonio Palopo	6	Junio	2023-06-21T00:00:00	2024-11-08T00:00:00	8	Radiación solar	0
178237	7	Sololá	712	San Antonio Palopó	9	San Antonio Palopo	6	Junio	2023-06-21T00:00:00	2024-11-08T01:00:00	2	Temperatura media	17.8
178238	7	Sololá	712	San Antonio Palopó	9	San Antonio Palopo	6	Junio	2023-06-21T00:00:00	2024-11-08T01:00:00	4	Temperatura máxima	17.9
178239	7	Sololá	712	San Antonio Palopó	9	San Antonio Palopo	6	Junio	2023-06-21T00:00:00	2024-11-08T01:00:00	3	Temperatura mínima	17.8
178240	7	Sololá	712	San Antonio Palopó	9	San Antonio Palopo	6	Junio	2023-06-21T00:00:00	2024-11-08T01:00:00	5	Humedad	93
178241	7	Sololá	712	San Antonio Palopó	9	San Antonio Palopo	6	Junio	2023-06-21T00:00:00	2024-11-08T01:00:00	6	Velocidad del viento	0
178242	7	Sololá	712	San Antonio Palopó	9	San Antonio Palopo	6	Junio	2023-06-21T00:00:00	2024-11-08T01:00:00	7	Dirección del viento	0
178243	7	Sololá	712	San Antonio Palopó	9	San Antonio Palopo	6	Junio	2023-06-21T00:00:00	2024-11-08T01:00:00	1	Precipitación	0.2
178244	7	Sololá	712	San Antonio Palopó	9	San Antonio Palopo	6	Junio	2023-06-21T00:00:00	2024-11-08T01:00:00	8	Radiación solar	0
178245	7	Sololá	712	San Antonio Palopó	9	San Antonio Palopo	6	Junio	2023-06-21T00:00:00	2024-11-08T02:00:00	2	Temperatura media	18.2
178246	7	Sololá	712	San Antonio Palopó	9	San Antonio Palopo	6	Junio	2023-06-21T00:00:00	2024-11-08T02:00:00	4	Temperatura máxima	18.2
178247	7	Sololá	712	San Antonio Palopó	9	San Antonio Palopo	6	Junio	2023-06-21T00:00:00	2024-11-08T02:00:00	3	Temperatura mínima	17.9
178248	7	Sololá	712	San Antonio Palopó	9	San Antonio Palopo	6	Junio	2023-06-21T00:00:00	2024-11-08T02:00:00	5	Humedad	89
178249	7	Sololá	712	San Antonio Palopó	9	San Antonio Palopo	6	Junio	2023-06-21T00:00:00	2024-11-08T02:00:00	6	Velocidad del viento	3.2
178250	7	Sololá	712	San Antonio Palopó	9	San Antonio Palopo	6	Junio	2023-06-21T00:00:00	2024-11-08T02:00:00	7	Dirección del viento	1.61
178251	7	Sololá	712	San Antonio Palopó	9	San Antonio Palopo	6	Junio	2023-06-21T00:00:00	2024-11-08T02:00:00	1	Precipitación	0
178252	7	Sololá	712	San Antonio Palopó	9	San Antonio Palopo	6	Junio	2023-06-21T00:00:00	2024-11-08T02:00:00	8	Radiación solar	0
178253	7	Sololá	712	San Antonio Palopó	9	San Antonio Palopo	6	Junio	2023-06-21T00:00:00	2024-11-08T03:00:00	2	Temperatura media	18.2
178254	7	Sololá	712	San Antonio Palopó	9	San Antonio Palopo	6	Junio	2023-06-21T00:00:00	2024-11-08T03:00:00	4	Temperatura máxima	18.3
178255	7	Sololá	712	San Antonio Palopó	9	San Antonio Palopo	6	Junio	2023-06-21T00:00:00	2024-11-08T03:00:00	3	Temperatura mínima	18.2
178256	7	Sololá	712	San Antonio Palopó	9	San Antonio Palopo	6	Junio	2023-06-21T00:00:00	2024-11-08T03:00:00	5	Humedad	90
178257	7	Sololá	712	San Antonio Palopó	9	San Antonio Palopo	6	Junio	2023-06-21T00:00:00	2024-11-08T03:00:00	6	Velocidad del viento	1.6
178258	7	Sololá	712	San Antonio Palopó	9	San Antonio Palopo	6	Junio	2023-06-21T00:00:00	2024-11-08T03:00:00	7	Dirección del viento	0.8
178259	7	Sololá	712	San Antonio Palopó	9	San Antonio Palopo	6	Junio	2023-06-21T00:00:00	2024-11-08T03:00:00	1	Precipitación	0
178260	7	Sololá	712	San Antonio Palopó	9	San Antonio Palopo	6	Junio	2023-06-21T00:00:00	2024-11-08T03:00:00	8	Radiación solar	0
178261	7	Sololá	712	San Antonio Palopó	9	San Antonio Palopo	6	Junio	2023-06-21T00:00:00	2024-11-08T04:00:00	2	Temperatura media	18.2
178262	7	Sololá	712	San Antonio Palopó	9	San Antonio Palopo	6	Junio	2023-06-21T00:00:00	2024-11-08T04:00:00	4	Temperatura máxima	18.2
178263	7	Sololá	712	San Antonio Palopó	9	San Antonio Palopo	6	Junio	2023-06-21T00:00:00	2024-11-08T04:00:00	3	Temperatura mínima	18.1
178264	7	Sololá	712	San Antonio Palopó	9	San Antonio Palopo	6	Junio	2023-06-21T00:00:00	2024-11-08T04:00:00	5	Humedad	87
178265	7	Sololá	712	San Antonio Palopó	9	San Antonio Palopo	6	Junio	2023-06-21T00:00:00	2024-11-08T04:00:00	6	Velocidad del viento	1.6
178266	7	Sololá	712	San Antonio Palopó	9	San Antonio Palopo	6	Junio	2023-06-21T00:00:00	2024-11-08T04:00:00	7	Dirección del viento	0.8
178267	7	Sololá	712	San Antonio Palopó	9	San Antonio Palopo	6	Junio	2023-06-21T00:00:00	2024-11-08T04:00:00	1	Precipitación	0
178268	7	Sololá	712	San Antonio Palopó	9	San Antonio Palopo	6	Junio	2023-06-21T00:00:00	2024-11-08T04:00:00	8	Radiación solar	0
178269	7	Sololá	712	San Antonio Palopó	9	San Antonio Palopo	6	Junio	2023-06-21T00:00:00	2024-11-08T05:00:00	2	Temperatura media	18.4
178270	7	Sololá	712	San Antonio Palopó	9	San Antonio Palopo	6	Junio	2023-06-21T00:00:00	2024-11-08T05:00:00	4	Temperatura máxima	18.4
178271	7	Sololá	712	San Antonio Palopó	9	San Antonio Palopo	6	Junio	2023-06-21T00:00:00	2024-11-08T05:00:00	3	Temperatura mínima	18.3
178272	7	Sololá	712	San Antonio Palopó	9	San Antonio Palopo	6	Junio	2023-06-21T00:00:00	2024-11-08T05:00:00	5	Humedad	84
178273	7	Sololá	712	San Antonio Palopó	9	San Antonio Palopo	6	Junio	2023-06-21T00:00:00	2024-11-08T05:00:00	6	Velocidad del viento	1.6
178274	7	Sololá	712	San Antonio Palopó	9	San Antonio Palopo	6	Junio	2023-06-21T00:00:00	2024-11-08T05:00:00	7	Dirección del viento	0.8
178275	7	Sololá	712	San Antonio Palopó	9	San Antonio Palopo	6	Junio	2023-06-21T00:00:00	2024-11-08T05:00:00	1	Precipitación	0
178276	7	Sololá	712	San Antonio Palopó	9	San Antonio Palopo	6	Junio	2023-06-21T00:00:00	2024-11-08T05:00:00	8	Radiación solar	0
178277	7	Sololá	712	San Antonio Palopó	9	San Antonio Palopo	6	Junio	2023-06-21T00:00:00	2024-11-08T06:00:00	2	Temperatura media	18.7
178278	7	Sololá	712	San Antonio Palopó	9	San Antonio Palopo	6	Junio	2023-06-21T00:00:00	2024-11-08T06:00:00	4	Temperatura máxima	18.8
178279	7	Sololá	712	San Antonio Palopó	9	San Antonio Palopo	6	Junio	2023-06-21T00:00:00	2024-11-08T06:00:00	3	Temperatura mínima	18.3
178280	7	Sololá	712	San Antonio Palopó	9	San Antonio Palopo	6	Junio	2023-06-21T00:00:00	2024-11-08T06:00:00	5	Humedad	82
178281	7	Sololá	712	San Antonio Palopó	9	San Antonio Palopo	6	Junio	2023-06-21T00:00:00	2024-11-08T06:00:00	6	Velocidad del viento	6.4
178282	7	Sololá	712	San Antonio Palopó	9	San Antonio Palopo	6	Junio	2023-06-21T00:00:00	2024-11-08T06:00:00	7	Dirección del viento	3.22
178283	7	Sololá	712	San Antonio Palopó	9	San Antonio Palopo	6	Junio	2023-06-21T00:00:00	2024-11-08T06:00:00	1	Precipitación	0
178284	7	Sololá	712	San Antonio Palopó	9	San Antonio Palopo	6	Junio	2023-06-21T00:00:00	2024-11-08T06:00:00	8	Radiación solar	1
178285	7	Sololá	712	San Antonio Palopó	9	San Antonio Palopo	6	Junio	2023-06-21T00:00:00	2024-11-08T07:00:00	2	Temperatura media	19.1
178286	7	Sololá	712	San Antonio Palopó	9	San Antonio Palopo	6	Junio	2023-06-21T00:00:00	2024-11-08T07:00:00	4	Temperatura máxima	19.1
178287	7	Sololá	712	San Antonio Palopó	9	San Antonio Palopo	6	Junio	2023-06-21T00:00:00	2024-11-08T07:00:00	3	Temperatura mínima	18.8
178288	7	Sololá	712	San Antonio Palopó	9	San Antonio Palopo	6	Junio	2023-06-21T00:00:00	2024-11-08T07:00:00	5	Humedad	85
178289	7	Sololá	712	San Antonio Palopó	9	San Antonio Palopo	6	Junio	2023-06-21T00:00:00	2024-11-08T07:00:00	6	Velocidad del viento	3.2
178290	7	Sololá	712	San Antonio Palopó	9	San Antonio Palopo	6	Junio	2023-06-21T00:00:00	2024-11-08T07:00:00	7	Dirección del viento	1.61
178291	7	Sololá	712	San Antonio Palopó	9	San Antonio Palopo	6	Junio	2023-06-21T00:00:00	2024-11-08T07:00:00	1	Precipitación	0
178292	7	Sololá	712	San Antonio Palopó	9	San Antonio Palopo	6	Junio	2023-06-21T00:00:00	2024-11-08T07:00:00	8	Radiación solar	30
178293	7	Sololá	712	San Antonio Palopó	9	San Antonio Palopo	6	Junio	2023-06-21T00:00:00	2024-11-08T08:00:00	2	Temperatura media	20
178294	7	Sololá	712	San Antonio Palopó	9	San Antonio Palopo	6	Junio	2023-06-21T00:00:00	2024-11-08T08:00:00	4	Temperatura máxima	20
178295	7	Sololá	712	San Antonio Palopó	9	San Antonio Palopo	6	Junio	2023-06-21T00:00:00	2024-11-08T08:00:00	3	Temperatura mínima	19.4
178296	7	Sololá	712	San Antonio Palopó	9	San Antonio Palopo	6	Junio	2023-06-21T00:00:00	2024-11-08T08:00:00	5	Humedad	83
178297	7	Sololá	712	San Antonio Palopó	9	San Antonio Palopo	6	Junio	2023-06-21T00:00:00	2024-11-08T08:00:00	6	Velocidad del viento	0
178298	7	Sololá	712	San Antonio Palopó	9	San Antonio Palopo	6	Junio	2023-06-21T00:00:00	2024-11-08T08:00:00	7	Dirección del viento	0
178299	7	Sololá	712	San Antonio Palopó	9	San Antonio Palopo	6	Junio	2023-06-21T00:00:00	2024-11-08T08:00:00	1	Precipitación	0
178300	7	Sololá	712	San Antonio Palopó	9	San Antonio Palopo	6	Junio	2023-06-21T00:00:00	2024-11-08T08:00:00	8	Radiación solar	169
178301	7	Sololá	712	San Antonio Palopó	9	San Antonio Palopo	6	Junio	2023-06-21T00:00:00	2024-11-08T09:00:00	2	Temperatura media	21.6
178302	7	Sololá	712	San Antonio Palopó	9	San Antonio Palopo	6	Junio	2023-06-21T00:00:00	2024-11-08T09:00:00	4	Temperatura máxima	21.6
178303	7	Sololá	712	San Antonio Palopó	9	San Antonio Palopo	6	Junio	2023-06-21T00:00:00	2024-11-08T09:00:00	3	Temperatura mínima	20.9
178304	7	Sololá	712	San Antonio Palopó	9	San Antonio Palopo	6	Junio	2023-06-21T00:00:00	2024-11-08T09:00:00	5	Humedad	78
178305	7	Sololá	712	San Antonio Palopó	9	San Antonio Palopo	6	Junio	2023-06-21T00:00:00	2024-11-08T09:00:00	6	Velocidad del viento	1.6
178306	7	Sololá	712	San Antonio Palopó	9	San Antonio Palopo	6	Junio	2023-06-21T00:00:00	2024-11-08T09:00:00	7	Dirección del viento	0.8
178307	7	Sololá	712	San Antonio Palopó	9	San Antonio Palopo	6	Junio	2023-06-21T00:00:00	2024-11-08T09:00:00	1	Precipitación	0
178308	7	Sololá	712	San Antonio Palopó	9	San Antonio Palopo	6	Junio	2023-06-21T00:00:00	2024-11-08T09:00:00	8	Radiación solar	530
178309	7	Sololá	712	San Antonio Palopó	9	San Antonio Palopo	6	Junio	2023-06-21T00:00:00	2024-11-08T10:00:00	2	Temperatura media	21.8
178310	7	Sololá	712	San Antonio Palopó	9	San Antonio Palopo	6	Junio	2023-06-21T00:00:00	2024-11-08T10:00:00	4	Temperatura máxima	21.9
178311	7	Sololá	712	San Antonio Palopó	9	San Antonio Palopo	6	Junio	2023-06-21T00:00:00	2024-11-08T10:00:00	3	Temperatura mínima	21.5
178312	7	Sololá	712	San Antonio Palopó	9	San Antonio Palopo	6	Junio	2023-06-21T00:00:00	2024-11-08T10:00:00	5	Humedad	76
178313	7	Sololá	712	San Antonio Palopó	9	San Antonio Palopo	6	Junio	2023-06-21T00:00:00	2024-11-08T10:00:00	6	Velocidad del viento	3.2
178314	7	Sololá	712	San Antonio Palopó	9	San Antonio Palopo	6	Junio	2023-06-21T00:00:00	2024-11-08T10:00:00	7	Dirección del viento	1.61
178315	7	Sololá	712	San Antonio Palopó	9	San Antonio Palopo	6	Junio	2023-06-21T00:00:00	2024-11-08T10:00:00	1	Precipitación	0
178316	7	Sololá	712	San Antonio Palopó	9	San Antonio Palopo	6	Junio	2023-06-21T00:00:00	2024-11-08T10:00:00	8	Radiación solar	540
178317	7	Sololá	712	San Antonio Palopó	9	San Antonio Palopo	6	Junio	2023-06-21T00:00:00	2024-11-08T11:00:00	2	Temperatura media	23.3
178318	7	Sololá	712	San Antonio Palopó	9	San Antonio Palopo	6	Junio	2023-06-21T00:00:00	2024-11-08T11:00:00	4	Temperatura máxima	23.3
178319	7	Sololá	712	San Antonio Palopó	9	San Antonio Palopo	6	Junio	2023-06-21T00:00:00	2024-11-08T11:00:00	3	Temperatura mínima	22.1
178320	7	Sololá	712	San Antonio Palopó	9	San Antonio Palopo	6	Junio	2023-06-21T00:00:00	2024-11-08T11:00:00	5	Humedad	74
178321	7	Sololá	712	San Antonio Palopó	9	San Antonio Palopo	6	Junio	2023-06-21T00:00:00	2024-11-08T11:00:00	6	Velocidad del viento	1.6
178322	7	Sololá	712	San Antonio Palopó	9	San Antonio Palopo	6	Junio	2023-06-21T00:00:00	2024-11-08T11:00:00	7	Dirección del viento	0.8
178323	7	Sololá	712	San Antonio Palopó	9	San Antonio Palopo	6	Junio	2023-06-21T00:00:00	2024-11-08T11:00:00	1	Precipitación	0
178324	7	Sololá	712	San Antonio Palopó	9	San Antonio Palopo	6	Junio	2023-06-21T00:00:00	2024-11-08T11:00:00	8	Radiación solar	782
178325	7	Sololá	712	San Antonio Palopó	9	San Antonio Palopo	6	Junio	2023-06-21T00:00:00	2024-11-08T12:00:00	2	Temperatura media	23.4
178326	7	Sololá	712	San Antonio Palopó	9	San Antonio Palopo	6	Junio	2023-06-21T00:00:00	2024-11-08T12:00:00	4	Temperatura máxima	23.4
178327	7	Sololá	712	San Antonio Palopó	9	San Antonio Palopo	6	Junio	2023-06-21T00:00:00	2024-11-08T12:00:00	3	Temperatura mínima	22.9
178328	7	Sololá	712	San Antonio Palopó	9	San Antonio Palopo	6	Junio	2023-06-21T00:00:00	2024-11-08T12:00:00	5	Humedad	71
178329	7	Sololá	712	San Antonio Palopó	9	San Antonio Palopo	6	Junio	2023-06-21T00:00:00	2024-11-08T12:00:00	6	Velocidad del viento	3.2
178330	7	Sololá	712	San Antonio Palopó	9	San Antonio Palopo	6	Junio	2023-06-21T00:00:00	2024-11-08T12:00:00	7	Dirección del viento	1.61
178331	7	Sololá	712	San Antonio Palopó	9	San Antonio Palopo	6	Junio	2023-06-21T00:00:00	2024-11-08T12:00:00	1	Precipitación	0
178332	7	Sololá	712	San Antonio Palopó	9	San Antonio Palopo	6	Junio	2023-06-21T00:00:00	2024-11-08T12:00:00	8	Radiación solar	583
178333	7	Sololá	712	San Antonio Palopó	9	San Antonio Palopo	6	Junio	2023-06-21T00:00:00	2024-11-08T13:00:00	2	Temperatura media	24.9
178334	7	Sololá	712	San Antonio Palopó	9	San Antonio Palopo	6	Junio	2023-06-21T00:00:00	2024-11-08T13:00:00	4	Temperatura máxima	24.9
178335	7	Sololá	712	San Antonio Palopó	9	San Antonio Palopo	6	Junio	2023-06-21T00:00:00	2024-11-08T13:00:00	3	Temperatura mínima	24.3
178336	7	Sololá	712	San Antonio Palopó	9	San Antonio Palopo	6	Junio	2023-06-21T00:00:00	2024-11-08T13:00:00	5	Humedad	67
178337	7	Sololá	712	San Antonio Palopó	9	San Antonio Palopo	6	Junio	2023-06-21T00:00:00	2024-11-08T13:00:00	6	Velocidad del viento	6.4
178338	7	Sololá	712	San Antonio Palopó	9	San Antonio Palopo	6	Junio	2023-06-21T00:00:00	2024-11-08T13:00:00	7	Dirección del viento	3.22
178339	7	Sololá	712	San Antonio Palopó	9	San Antonio Palopo	6	Junio	2023-06-21T00:00:00	2024-11-08T13:00:00	1	Precipitación	0
178340	7	Sololá	712	San Antonio Palopó	9	San Antonio Palopo	6	Junio	2023-06-21T00:00:00	2024-11-08T13:00:00	8	Radiación solar	652
178341	7	Sololá	712	San Antonio Palopó	9	San Antonio Palopo	6	Junio	2023-06-21T00:00:00	2024-11-08T14:00:00	2	Temperatura media	24.3
178342	7	Sololá	712	San Antonio Palopó	9	San Antonio Palopo	6	Junio	2023-06-21T00:00:00	2024-11-08T14:00:00	4	Temperatura máxima	24.6
178343	7	Sololá	712	San Antonio Palopó	9	San Antonio Palopo	6	Junio	2023-06-21T00:00:00	2024-11-08T14:00:00	3	Temperatura mínima	24
178344	7	Sololá	712	San Antonio Palopó	9	San Antonio Palopo	6	Junio	2023-06-21T00:00:00	2024-11-08T14:00:00	5	Humedad	73
178345	7	Sololá	712	San Antonio Palopó	9	San Antonio Palopo	6	Junio	2023-06-21T00:00:00	2024-11-08T14:00:00	6	Velocidad del viento	4.8
178346	7	Sololá	712	San Antonio Palopó	9	San Antonio Palopo	6	Junio	2023-06-21T00:00:00	2024-11-08T14:00:00	7	Dirección del viento	2.41
178347	7	Sololá	712	San Antonio Palopó	9	San Antonio Palopo	6	Junio	2023-06-21T00:00:00	2024-11-08T14:00:00	1	Precipitación	0
178348	7	Sololá	712	San Antonio Palopó	9	San Antonio Palopo	6	Junio	2023-06-21T00:00:00	2024-11-08T14:00:00	8	Radiación solar	514
178349	7	Sololá	712	San Antonio Palopó	9	San Antonio Palopo	6	Junio	2023-06-21T00:00:00	2024-11-08T15:00:00	2	Temperatura media	22.8
178350	7	Sololá	712	San Antonio Palopó	9	San Antonio Palopo	6	Junio	2023-06-21T00:00:00	2024-11-08T15:00:00	4	Temperatura máxima	24.2
178351	7	Sololá	712	San Antonio Palopó	9	San Antonio Palopo	6	Junio	2023-06-21T00:00:00	2024-11-08T15:00:00	3	Temperatura mínima	22.8
178352	7	Sololá	712	San Antonio Palopó	9	San Antonio Palopo	6	Junio	2023-06-21T00:00:00	2024-11-08T15:00:00	5	Humedad	76
178353	7	Sololá	712	San Antonio Palopó	9	San Antonio Palopo	6	Junio	2023-06-21T00:00:00	2024-11-08T15:00:00	6	Velocidad del viento	6.4
178354	7	Sololá	712	San Antonio Palopó	9	San Antonio Palopo	6	Junio	2023-06-21T00:00:00	2024-11-08T15:00:00	7	Dirección del viento	6.44
178355	7	Sololá	712	San Antonio Palopó	9	San Antonio Palopo	6	Junio	2023-06-21T00:00:00	2024-11-08T15:00:00	1	Precipitación	0
178356	7	Sololá	712	San Antonio Palopó	9	San Antonio Palopo	6	Junio	2023-06-21T00:00:00	2024-11-08T15:00:00	8	Radiación solar	490
178357	7	Sololá	712	San Antonio Palopó	9	San Antonio Palopo	6	Junio	2023-06-21T00:00:00	2024-11-08T16:00:00	2	Temperatura media	20.7
178358	7	Sololá	712	San Antonio Palopó	9	San Antonio Palopo	6	Junio	2023-06-21T00:00:00	2024-11-08T16:00:00	4	Temperatura máxima	22.7
178359	7	Sololá	712	San Antonio Palopó	9	San Antonio Palopo	6	Junio	2023-06-21T00:00:00	2024-11-08T16:00:00	3	Temperatura mínima	20.6
178360	7	Sololá	712	San Antonio Palopó	9	San Antonio Palopo	6	Junio	2023-06-21T00:00:00	2024-11-08T16:00:00	5	Humedad	83
178361	7	Sololá	712	San Antonio Palopó	9	San Antonio Palopo	6	Junio	2023-06-21T00:00:00	2024-11-08T16:00:00	6	Velocidad del viento	3.2
178362	7	Sololá	712	San Antonio Palopó	9	San Antonio Palopo	6	Junio	2023-06-21T00:00:00	2024-11-08T16:00:00	7	Dirección del viento	3.22
178363	7	Sololá	712	San Antonio Palopó	9	San Antonio Palopo	6	Junio	2023-06-21T00:00:00	2024-11-08T16:00:00	1	Precipitación	0.4
178364	7	Sololá	712	San Antonio Palopó	9	San Antonio Palopo	6	Junio	2023-06-21T00:00:00	2024-11-08T16:00:00	8	Radiación solar	632
178365	7	Sololá	712	San Antonio Palopó	9	San Antonio Palopo	6	Junio	2023-06-21T00:00:00	2024-11-08T17:00:00	2	Temperatura media	19.5
178366	7	Sololá	712	San Antonio Palopó	9	San Antonio Palopo	6	Junio	2023-06-21T00:00:00	2024-11-08T17:00:00	4	Temperatura máxima	20.6
178367	7	Sololá	712	San Antonio Palopó	9	San Antonio Palopo	6	Junio	2023-06-21T00:00:00	2024-11-08T17:00:00	3	Temperatura mínima	19.5
178368	7	Sololá	712	San Antonio Palopó	9	San Antonio Palopo	6	Junio	2023-06-21T00:00:00	2024-11-08T17:00:00	5	Humedad	81
178369	7	Sololá	712	San Antonio Palopó	9	San Antonio Palopo	6	Junio	2023-06-21T00:00:00	2024-11-08T17:00:00	6	Velocidad del viento	3.2
178370	7	Sololá	712	San Antonio Palopó	9	San Antonio Palopo	6	Junio	2023-06-21T00:00:00	2024-11-08T17:00:00	7	Dirección del viento	3.22
178371	7	Sololá	712	San Antonio Palopó	9	San Antonio Palopo	6	Junio	2023-06-21T00:00:00	2024-11-08T17:00:00	1	Precipitación	0.6
178372	7	Sololá	712	San Antonio Palopó	9	San Antonio Palopo	6	Junio	2023-06-21T00:00:00	2024-11-08T17:00:00	8	Radiación solar	146
178373	7	Sololá	712	San Antonio Palopó	9	San Antonio Palopo	6	Junio	2023-06-21T00:00:00	2024-11-08T18:00:00	2	Temperatura media	19.6
178374	7	Sololá	712	San Antonio Palopó	9	San Antonio Palopo	6	Junio	2023-06-21T00:00:00	2024-11-08T18:00:00	4	Temperatura máxima	19.6
178375	7	Sololá	712	San Antonio Palopó	9	San Antonio Palopo	6	Junio	2023-06-21T00:00:00	2024-11-08T18:00:00	3	Temperatura mínima	19.4
178376	7	Sololá	712	San Antonio Palopó	9	San Antonio Palopo	6	Junio	2023-06-21T00:00:00	2024-11-08T18:00:00	5	Humedad	82
178377	7	Sololá	712	San Antonio Palopó	9	San Antonio Palopo	6	Junio	2023-06-21T00:00:00	2024-11-08T18:00:00	6	Velocidad del viento	3.2
178378	7	Sololá	712	San Antonio Palopó	9	San Antonio Palopo	6	Junio	2023-06-21T00:00:00	2024-11-08T18:00:00	7	Dirección del viento	3.22
178379	7	Sololá	712	San Antonio Palopó	9	San Antonio Palopo	6	Junio	2023-06-21T00:00:00	2024-11-08T18:00:00	1	Precipitación	0.2
178380	7	Sololá	712	San Antonio Palopó	9	San Antonio Palopo	6	Junio	2023-06-21T00:00:00	2024-11-08T18:00:00	8	Radiación solar	13
178381	7	Sololá	712	San Antonio Palopó	9	San Antonio Palopo	6	Junio	2023-06-21T00:00:00	2024-11-08T19:00:00	2	Temperatura media	19.6
178382	7	Sololá	712	San Antonio Palopó	9	San Antonio Palopo	6	Junio	2023-06-21T00:00:00	2024-11-08T19:00:00	4	Temperatura máxima	19.8
178383	7	Sololá	712	San Antonio Palopó	9	San Antonio Palopo	6	Junio	2023-06-21T00:00:00	2024-11-08T19:00:00	3	Temperatura mínima	19.6
178384	7	Sololá	712	San Antonio Palopó	9	San Antonio Palopo	6	Junio	2023-06-21T00:00:00	2024-11-08T19:00:00	5	Humedad	80
178385	7	Sololá	712	San Antonio Palopó	9	San Antonio Palopo	6	Junio	2023-06-21T00:00:00	2024-11-08T19:00:00	6	Velocidad del viento	4.8
178386	7	Sololá	712	San Antonio Palopó	9	San Antonio Palopo	6	Junio	2023-06-21T00:00:00	2024-11-08T19:00:00	7	Dirección del viento	4.83
178387	7	Sololá	712	San Antonio Palopó	9	San Antonio Palopo	6	Junio	2023-06-21T00:00:00	2024-11-08T19:00:00	1	Precipitación	0
178388	7	Sololá	712	San Antonio Palopó	9	San Antonio Palopo	6	Junio	2023-06-21T00:00:00	2024-11-08T19:00:00	8	Radiación solar	0
178389	7	Sololá	712	San Antonio Palopó	9	San Antonio Palopo	6	Junio	2023-06-21T00:00:00	2024-11-08T20:00:00	2	Temperatura media	19.8
178390	7	Sololá	712	San Antonio Palopó	9	San Antonio Palopo	6	Junio	2023-06-21T00:00:00	2024-11-08T20:00:00	4	Temperatura máxima	20
178391	7	Sololá	712	San Antonio Palopó	9	San Antonio Palopo	6	Junio	2023-06-21T00:00:00	2024-11-08T20:00:00	3	Temperatura mínima	19.5
178392	7	Sololá	712	San Antonio Palopó	9	San Antonio Palopo	6	Junio	2023-06-21T00:00:00	2024-11-08T20:00:00	5	Humedad	83
178393	7	Sololá	712	San Antonio Palopó	9	San Antonio Palopo	6	Junio	2023-06-21T00:00:00	2024-11-08T20:00:00	6	Velocidad del viento	3.2
178394	7	Sololá	712	San Antonio Palopó	9	San Antonio Palopo	6	Junio	2023-06-21T00:00:00	2024-11-08T20:00:00	7	Dirección del viento	3.22
178395	7	Sololá	712	San Antonio Palopó	9	San Antonio Palopo	6	Junio	2023-06-21T00:00:00	2024-11-08T20:00:00	1	Precipitación	0
178396	7	Sololá	712	San Antonio Palopó	9	San Antonio Palopo	6	Junio	2023-06-21T00:00:00	2024-11-08T20:00:00	8	Radiación solar	0
178397	7	Sololá	712	San Antonio Palopó	9	San Antonio Palopo	6	Junio	2023-06-21T00:00:00	2024-11-08T21:00:00	2	Temperatura media	19.8
178398	7	Sololá	712	San Antonio Palopó	9	San Antonio Palopo	6	Junio	2023-06-21T00:00:00	2024-11-08T21:00:00	4	Temperatura máxima	19.9
178399	7	Sololá	712	San Antonio Palopó	9	San Antonio Palopo	6	Junio	2023-06-21T00:00:00	2024-11-08T21:00:00	3	Temperatura mínima	19.3
178400	7	Sololá	712	San Antonio Palopó	9	San Antonio Palopo	6	Junio	2023-06-21T00:00:00	2024-11-08T21:00:00	5	Humedad	83
178401	7	Sololá	712	San Antonio Palopó	9	San Antonio Palopo	6	Junio	2023-06-21T00:00:00	2024-11-08T21:00:00	6	Velocidad del viento	3.2
178402	7	Sololá	712	San Antonio Palopó	9	San Antonio Palopo	6	Junio	2023-06-21T00:00:00	2024-11-08T21:00:00	7	Dirección del viento	3.22
178403	7	Sololá	712	San Antonio Palopó	9	San Antonio Palopo	6	Junio	2023-06-21T00:00:00	2024-11-08T21:00:00	1	Precipitación	0
178404	7	Sololá	712	San Antonio Palopó	9	San Antonio Palopo	6	Junio	2023-06-21T00:00:00	2024-11-08T21:00:00	8	Radiación solar	0
178405	7	Sololá	712	San Antonio Palopó	9	San Antonio Palopo	6	Junio	2023-06-21T00:00:00	2024-11-08T22:00:00	2	Temperatura media	19.8
178406	7	Sololá	712	San Antonio Palopó	9	San Antonio Palopo	6	Junio	2023-06-21T00:00:00	2024-11-08T22:00:00	4	Temperatura máxima	20.1
178407	7	Sololá	712	San Antonio Palopó	9	San Antonio Palopo	6	Junio	2023-06-21T00:00:00	2024-11-08T22:00:00	3	Temperatura mínima	19.7
178408	7	Sololá	712	San Antonio Palopó	9	San Antonio Palopo	6	Junio	2023-06-21T00:00:00	2024-11-08T22:00:00	5	Humedad	82
178409	7	Sololá	712	San Antonio Palopó	9	San Antonio Palopo	6	Junio	2023-06-21T00:00:00	2024-11-08T22:00:00	6	Velocidad del viento	3.2
178410	7	Sololá	712	San Antonio Palopó	9	San Antonio Palopo	6	Junio	2023-06-21T00:00:00	2024-11-08T22:00:00	7	Dirección del viento	3.22
178411	7	Sololá	712	San Antonio Palopó	9	San Antonio Palopo	6	Junio	2023-06-21T00:00:00	2024-11-08T22:00:00	1	Precipitación	0
178412	7	Sololá	712	San Antonio Palopó	9	San Antonio Palopo	6	Junio	2023-06-21T00:00:00	2024-11-08T22:00:00	8	Radiación solar	0
178413	7	Sololá	712	San Antonio Palopó	9	San Antonio Palopo	6	Junio	2023-06-21T00:00:00	2024-11-08T23:00:00	2	Temperatura media	20.1
178414	7	Sololá	712	San Antonio Palopó	9	San Antonio Palopo	6	Junio	2023-06-21T00:00:00	2024-11-08T23:00:00	4	Temperatura máxima	20.2
178415	7	Sololá	712	San Antonio Palopó	9	San Antonio Palopo	6	Junio	2023-06-21T00:00:00	2024-11-08T23:00:00	3	Temperatura mínima	19.8
178416	7	Sololá	712	San Antonio Palopó	9	San Antonio Palopo	6	Junio	2023-06-21T00:00:00	2024-11-08T23:00:00	5	Humedad	79
178417	7	Sololá	712	San Antonio Palopó	9	San Antonio Palopo	6	Junio	2023-06-21T00:00:00	2024-11-08T23:00:00	6	Velocidad del viento	6.4
178418	7	Sololá	712	San Antonio Palopó	9	San Antonio Palopo	6	Junio	2023-06-21T00:00:00	2024-11-08T23:00:00	7	Dirección del viento	6.44
178419	7	Sololá	712	San Antonio Palopó	9	San Antonio Palopo	6	Junio	2023-06-21T00:00:00	2024-11-08T23:00:00	1	Precipitación	0
178420	7	Sololá	712	San Antonio Palopó	9	San Antonio Palopo	6	Junio	2023-06-21T00:00:00	2024-11-08T23:00:00	8	Radiación solar	0
178421	7	Sololá	712	San Antonio Palopó	9	San Antonio Palopo	6	Junio	2023-06-22T00:00:00	2024-11-08T00:00:00	2	Temperatura media	20.4
178422	7	Sololá	712	San Antonio Palopó	9	San Antonio Palopo	6	Junio	2023-06-22T00:00:00	2024-11-08T00:00:00	4	Temperatura máxima	20.7
178423	7	Sololá	712	San Antonio Palopó	9	San Antonio Palopo	6	Junio	2023-06-22T00:00:00	2024-11-08T00:00:00	3	Temperatura mínima	20
178424	7	Sololá	712	San Antonio Palopó	9	San Antonio Palopo	6	Junio	2023-06-22T00:00:00	2024-11-08T00:00:00	5	Humedad	79
178425	7	Sololá	712	San Antonio Palopó	9	San Antonio Palopo	6	Junio	2023-06-22T00:00:00	2024-11-08T00:00:00	6	Velocidad del viento	8
178426	7	Sololá	712	San Antonio Palopó	9	San Antonio Palopo	6	Junio	2023-06-22T00:00:00	2024-11-08T00:00:00	7	Dirección del viento	8.05
178427	7	Sololá	712	San Antonio Palopó	9	San Antonio Palopo	6	Junio	2023-06-22T00:00:00	2024-11-08T00:00:00	1	Precipitación	0
178428	7	Sololá	712	San Antonio Palopó	9	San Antonio Palopo	6	Junio	2023-06-22T00:00:00	2024-11-08T00:00:00	8	Radiación solar	0
178429	7	Sololá	712	San Antonio Palopó	9	San Antonio Palopo	6	Junio	2023-06-22T00:00:00	2024-11-08T01:00:00	2	Temperatura media	19.7
178430	7	Sololá	712	San Antonio Palopó	9	San Antonio Palopo	6	Junio	2023-06-22T00:00:00	2024-11-08T01:00:00	4	Temperatura máxima	20.4
178431	7	Sololá	712	San Antonio Palopó	9	San Antonio Palopo	6	Junio	2023-06-22T00:00:00	2024-11-08T01:00:00	3	Temperatura mínima	19.7
178432	7	Sololá	712	San Antonio Palopó	9	San Antonio Palopo	6	Junio	2023-06-22T00:00:00	2024-11-08T01:00:00	5	Humedad	83
178433	7	Sololá	712	San Antonio Palopó	9	San Antonio Palopo	6	Junio	2023-06-22T00:00:00	2024-11-08T01:00:00	6	Velocidad del viento	1.6
178434	7	Sololá	712	San Antonio Palopó	9	San Antonio Palopo	6	Junio	2023-06-22T00:00:00	2024-11-08T01:00:00	7	Dirección del viento	1.61
178435	7	Sololá	712	San Antonio Palopó	9	San Antonio Palopo	6	Junio	2023-06-22T00:00:00	2024-11-08T01:00:00	1	Precipitación	0
178436	7	Sololá	712	San Antonio Palopó	9	San Antonio Palopo	6	Junio	2023-06-22T00:00:00	2024-11-08T01:00:00	8	Radiación solar	0
178437	7	Sololá	712	San Antonio Palopó	9	San Antonio Palopo	6	Junio	2023-06-22T00:00:00	2024-11-08T02:00:00	2	Temperatura media	18.2
178438	7	Sololá	712	San Antonio Palopó	9	San Antonio Palopo	6	Junio	2023-06-22T00:00:00	2024-11-08T02:00:00	4	Temperatura máxima	19.7
178439	7	Sololá	712	San Antonio Palopó	9	San Antonio Palopo	6	Junio	2023-06-22T00:00:00	2024-11-08T02:00:00	3	Temperatura mínima	18.2
178440	7	Sololá	712	San Antonio Palopó	9	San Antonio Palopo	6	Junio	2023-06-22T00:00:00	2024-11-08T02:00:00	5	Humedad	88
178441	7	Sololá	712	San Antonio Palopó	9	San Antonio Palopo	6	Junio	2023-06-22T00:00:00	2024-11-08T02:00:00	6	Velocidad del viento	1.6
178442	7	Sololá	712	San Antonio Palopó	9	San Antonio Palopo	6	Junio	2023-06-22T00:00:00	2024-11-08T02:00:00	7	Dirección del viento	1.61
178443	7	Sololá	712	San Antonio Palopó	9	San Antonio Palopo	6	Junio	2023-06-22T00:00:00	2024-11-08T02:00:00	1	Precipitación	1
178444	7	Sololá	712	San Antonio Palopó	9	San Antonio Palopo	6	Junio	2023-06-22T00:00:00	2024-11-08T02:00:00	8	Radiación solar	0
178445	7	Sololá	712	San Antonio Palopó	9	San Antonio Palopo	6	Junio	2023-06-22T00:00:00	2024-11-08T03:00:00	2	Temperatura media	18.2
178446	7	Sololá	712	San Antonio Palopó	9	San Antonio Palopo	6	Junio	2023-06-22T00:00:00	2024-11-08T03:00:00	4	Temperatura máxima	18.6
178447	7	Sololá	712	San Antonio Palopó	9	San Antonio Palopo	6	Junio	2023-06-22T00:00:00	2024-11-08T03:00:00	3	Temperatura mínima	18
178448	7	Sololá	712	San Antonio Palopó	9	San Antonio Palopo	6	Junio	2023-06-22T00:00:00	2024-11-08T03:00:00	5	Humedad	85
178449	7	Sololá	712	San Antonio Palopó	9	San Antonio Palopo	6	Junio	2023-06-22T00:00:00	2024-11-08T03:00:00	6	Velocidad del viento	3.2
178450	7	Sololá	712	San Antonio Palopó	9	San Antonio Palopo	6	Junio	2023-06-22T00:00:00	2024-11-08T03:00:00	7	Dirección del viento	3.22
178451	7	Sololá	712	San Antonio Palopó	9	San Antonio Palopo	6	Junio	2023-06-22T00:00:00	2024-11-08T03:00:00	1	Precipitación	0.2
178452	7	Sololá	712	San Antonio Palopó	9	San Antonio Palopo	6	Junio	2023-06-22T00:00:00	2024-11-08T03:00:00	8	Radiación solar	0
178453	7	Sololá	712	San Antonio Palopó	9	San Antonio Palopo	6	Junio	2023-06-22T00:00:00	2024-11-08T04:00:00	2	Temperatura media	18.4
178454	7	Sololá	712	San Antonio Palopó	9	San Antonio Palopo	6	Junio	2023-06-22T00:00:00	2024-11-08T04:00:00	4	Temperatura máxima	18.6
178455	7	Sololá	712	San Antonio Palopó	9	San Antonio Palopo	6	Junio	2023-06-22T00:00:00	2024-11-08T04:00:00	3	Temperatura mínima	18.1
178456	7	Sololá	712	San Antonio Palopó	9	San Antonio Palopo	6	Junio	2023-06-22T00:00:00	2024-11-08T04:00:00	5	Humedad	81
178457	7	Sololá	712	San Antonio Palopó	9	San Antonio Palopo	6	Junio	2023-06-22T00:00:00	2024-11-08T04:00:00	6	Velocidad del viento	6.4
178458	7	Sololá	712	San Antonio Palopó	9	San Antonio Palopo	6	Junio	2023-06-22T00:00:00	2024-11-08T04:00:00	7	Dirección del viento	6.44
178459	7	Sololá	712	San Antonio Palopó	9	San Antonio Palopo	6	Junio	2023-06-22T00:00:00	2024-11-08T04:00:00	1	Precipitación	0
178460	7	Sololá	712	San Antonio Palopó	9	San Antonio Palopo	6	Junio	2023-06-22T00:00:00	2024-11-08T04:00:00	8	Radiación solar	0
178461	7	Sololá	712	San Antonio Palopó	9	San Antonio Palopo	6	Junio	2023-06-22T00:00:00	2024-11-08T05:00:00	2	Temperatura media	18.8
178462	7	Sololá	712	San Antonio Palopó	9	San Antonio Palopo	6	Junio	2023-06-22T00:00:00	2024-11-08T05:00:00	4	Temperatura máxima	18.8
178463	7	Sololá	712	San Antonio Palopó	9	San Antonio Palopo	6	Junio	2023-06-22T00:00:00	2024-11-08T05:00:00	3	Temperatura mínima	18.3
178464	7	Sololá	712	San Antonio Palopó	9	San Antonio Palopo	6	Junio	2023-06-22T00:00:00	2024-11-08T05:00:00	5	Humedad	77
178465	7	Sololá	712	San Antonio Palopó	9	San Antonio Palopo	6	Junio	2023-06-22T00:00:00	2024-11-08T05:00:00	6	Velocidad del viento	9.7
178466	7	Sololá	712	San Antonio Palopó	9	San Antonio Palopo	6	Junio	2023-06-22T00:00:00	2024-11-08T05:00:00	7	Dirección del viento	9.66
178467	7	Sololá	712	San Antonio Palopó	9	San Antonio Palopo	6	Junio	2023-06-22T00:00:00	2024-11-08T05:00:00	1	Precipitación	0
178468	7	Sololá	712	San Antonio Palopó	9	San Antonio Palopo	6	Junio	2023-06-22T00:00:00	2024-11-08T05:00:00	8	Radiación solar	0
178469	7	Sololá	712	San Antonio Palopó	9	San Antonio Palopo	6	Junio	2023-06-22T00:00:00	2024-11-08T06:00:00	2	Temperatura media	18.9
178470	7	Sololá	712	San Antonio Palopó	9	San Antonio Palopo	6	Junio	2023-06-22T00:00:00	2024-11-08T06:00:00	4	Temperatura máxima	19
178471	7	Sololá	712	San Antonio Palopó	9	San Antonio Palopo	6	Junio	2023-06-22T00:00:00	2024-11-08T06:00:00	3	Temperatura mínima	18.8
178472	7	Sololá	712	San Antonio Palopó	9	San Antonio Palopo	6	Junio	2023-06-22T00:00:00	2024-11-08T06:00:00	5	Humedad	81
178473	7	Sololá	712	San Antonio Palopó	9	San Antonio Palopo	6	Junio	2023-06-22T00:00:00	2024-11-08T06:00:00	6	Velocidad del viento	4.8
178474	7	Sololá	712	San Antonio Palopó	9	San Antonio Palopo	6	Junio	2023-06-22T00:00:00	2024-11-08T06:00:00	7	Dirección del viento	4.83
178475	7	Sololá	712	San Antonio Palopó	9	San Antonio Palopo	6	Junio	2023-06-22T00:00:00	2024-11-08T06:00:00	1	Precipitación	0
178476	7	Sololá	712	San Antonio Palopó	9	San Antonio Palopo	6	Junio	2023-06-22T00:00:00	2024-11-08T06:00:00	8	Radiación solar	4
178477	7	Sololá	712	San Antonio Palopó	9	San Antonio Palopo	6	Junio	2023-06-22T00:00:00	2024-11-08T07:00:00	2	Temperatura media	19.1
178478	7	Sololá	712	San Antonio Palopó	9	San Antonio Palopo	6	Junio	2023-06-22T00:00:00	2024-11-08T07:00:00	4	Temperatura máxima	19.2
178479	7	Sololá	712	San Antonio Palopó	9	San Antonio Palopo	6	Junio	2023-06-22T00:00:00	2024-11-08T07:00:00	3	Temperatura mínima	18.8
178480	7	Sololá	712	San Antonio Palopó	9	San Antonio Palopo	6	Junio	2023-06-22T00:00:00	2024-11-08T07:00:00	5	Humedad	82
178481	7	Sololá	712	San Antonio Palopó	9	San Antonio Palopo	6	Junio	2023-06-22T00:00:00	2024-11-08T07:00:00	6	Velocidad del viento	0
178482	7	Sololá	712	San Antonio Palopó	9	San Antonio Palopo	6	Junio	2023-06-22T00:00:00	2024-11-08T07:00:00	7	Dirección del viento	0
178483	7	Sololá	712	San Antonio Palopó	9	San Antonio Palopo	6	Junio	2023-06-22T00:00:00	2024-11-08T07:00:00	1	Precipitación	0
178484	7	Sololá	712	San Antonio Palopó	9	San Antonio Palopo	6	Junio	2023-06-22T00:00:00	2024-11-08T07:00:00	8	Radiación solar	58
178485	7	Sololá	712	San Antonio Palopó	9	San Antonio Palopo	6	Junio	2023-06-22T00:00:00	2024-11-08T08:00:00	2	Temperatura media	20.8
178486	7	Sololá	712	San Antonio Palopó	9	San Antonio Palopo	6	Junio	2023-06-22T00:00:00	2024-11-08T08:00:00	4	Temperatura máxima	20.8
178487	7	Sololá	712	San Antonio Palopó	9	San Antonio Palopo	6	Junio	2023-06-22T00:00:00	2024-11-08T08:00:00	3	Temperatura mínima	19.1
178488	7	Sololá	712	San Antonio Palopó	9	San Antonio Palopo	6	Junio	2023-06-22T00:00:00	2024-11-08T08:00:00	5	Humedad	80
178489	7	Sololá	712	San Antonio Palopó	9	San Antonio Palopo	6	Junio	2023-06-22T00:00:00	2024-11-08T08:00:00	6	Velocidad del viento	0
178490	7	Sololá	712	San Antonio Palopó	9	San Antonio Palopo	6	Junio	2023-06-22T00:00:00	2024-11-08T08:00:00	7	Dirección del viento	0
178491	7	Sololá	712	San Antonio Palopó	9	San Antonio Palopo	6	Junio	2023-06-22T00:00:00	2024-11-08T08:00:00	1	Precipitación	0
178492	7	Sololá	712	San Antonio Palopó	9	San Antonio Palopo	6	Junio	2023-06-22T00:00:00	2024-11-08T08:00:00	8	Radiación solar	157
178493	7	Sololá	712	San Antonio Palopó	9	San Antonio Palopo	6	Junio	2023-06-22T00:00:00	2024-11-08T09:00:00	2	Temperatura media	21.9
178494	7	Sololá	712	San Antonio Palopó	9	San Antonio Palopo	6	Junio	2023-06-22T00:00:00	2024-11-08T09:00:00	4	Temperatura máxima	22.1
178495	7	Sololá	712	San Antonio Palopó	9	San Antonio Palopo	6	Junio	2023-06-22T00:00:00	2024-11-08T09:00:00	3	Temperatura mínima	20.8
178496	7	Sololá	712	San Antonio Palopó	9	San Antonio Palopo	6	Junio	2023-06-22T00:00:00	2024-11-08T09:00:00	5	Humedad	74
178497	7	Sololá	712	San Antonio Palopó	9	San Antonio Palopo	6	Junio	2023-06-22T00:00:00	2024-11-08T09:00:00	6	Velocidad del viento	1.6
178498	7	Sololá	712	San Antonio Palopó	9	San Antonio Palopo	6	Junio	2023-06-22T00:00:00	2024-11-08T09:00:00	7	Dirección del viento	1.61
178499	7	Sololá	712	San Antonio Palopó	9	San Antonio Palopo	6	Junio	2023-06-22T00:00:00	2024-11-08T09:00:00	1	Precipitación	0
178500	7	Sololá	712	San Antonio Palopó	9	San Antonio Palopo	6	Junio	2023-06-22T00:00:00	2024-11-08T09:00:00	8	Radiación solar	135
178501	7	Sololá	712	San Antonio Palopó	9	San Antonio Palopo	6	Junio	2023-06-22T00:00:00	2024-11-08T10:00:00	2	Temperatura media	21.8
178502	7	Sololá	712	San Antonio Palopó	9	San Antonio Palopo	6	Junio	2023-06-22T00:00:00	2024-11-08T10:00:00	4	Temperatura máxima	22
178503	7	Sololá	712	San Antonio Palopó	9	San Antonio Palopo	6	Junio	2023-06-22T00:00:00	2024-11-08T10:00:00	3	Temperatura mínima	21.7
178504	7	Sololá	712	San Antonio Palopó	9	San Antonio Palopo	6	Junio	2023-06-22T00:00:00	2024-11-08T10:00:00	5	Humedad	74
178505	7	Sololá	712	San Antonio Palopó	9	San Antonio Palopo	6	Junio	2023-06-22T00:00:00	2024-11-08T10:00:00	6	Velocidad del viento	1.6
178506	7	Sololá	712	San Antonio Palopó	9	San Antonio Palopo	6	Junio	2023-06-22T00:00:00	2024-11-08T10:00:00	7	Dirección del viento	1.61
178507	7	Sololá	712	San Antonio Palopó	9	San Antonio Palopo	6	Junio	2023-06-22T00:00:00	2024-11-08T10:00:00	1	Precipitación	0
178508	7	Sololá	712	San Antonio Palopó	9	San Antonio Palopo	6	Junio	2023-06-22T00:00:00	2024-11-08T10:00:00	8	Radiación solar	236
178509	7	Sololá	712	San Antonio Palopó	9	San Antonio Palopo	6	Junio	2023-06-22T00:00:00	2024-11-08T11:00:00	2	Temperatura media	24.6
178510	7	Sololá	712	San Antonio Palopó	9	San Antonio Palopo	6	Junio	2023-06-22T00:00:00	2024-11-08T11:00:00	4	Temperatura máxima	24.6
178511	7	Sololá	712	San Antonio Palopó	9	San Antonio Palopo	6	Junio	2023-06-22T00:00:00	2024-11-08T11:00:00	3	Temperatura mínima	21.8
178512	7	Sololá	712	San Antonio Palopó	9	San Antonio Palopo	6	Junio	2023-06-22T00:00:00	2024-11-08T11:00:00	5	Humedad	67
178513	7	Sololá	712	San Antonio Palopó	9	San Antonio Palopo	6	Junio	2023-06-22T00:00:00	2024-11-08T11:00:00	6	Velocidad del viento	4.8
178514	7	Sololá	712	San Antonio Palopó	9	San Antonio Palopo	6	Junio	2023-06-22T00:00:00	2024-11-08T11:00:00	7	Dirección del viento	4.83
178515	7	Sololá	712	San Antonio Palopó	9	San Antonio Palopo	6	Junio	2023-06-22T00:00:00	2024-11-08T11:00:00	1	Precipitación	0
178516	7	Sololá	712	San Antonio Palopó	9	San Antonio Palopo	6	Junio	2023-06-22T00:00:00	2024-11-08T11:00:00	8	Radiación solar	432
178517	7	Sololá	712	San Antonio Palopó	9	San Antonio Palopo	6	Junio	2023-06-22T00:00:00	2024-11-08T12:00:00	2	Temperatura media	22.6
178518	7	Sololá	712	San Antonio Palopó	9	San Antonio Palopo	6	Junio	2023-06-22T00:00:00	2024-11-08T12:00:00	4	Temperatura máxima	24.6
178519	7	Sololá	712	San Antonio Palopó	9	San Antonio Palopo	6	Junio	2023-06-22T00:00:00	2024-11-08T12:00:00	3	Temperatura mínima	22.6
178520	7	Sololá	712	San Antonio Palopó	9	San Antonio Palopo	6	Junio	2023-06-22T00:00:00	2024-11-08T12:00:00	5	Humedad	75
178521	7	Sololá	712	San Antonio Palopó	9	San Antonio Palopo	6	Junio	2023-06-22T00:00:00	2024-11-08T12:00:00	6	Velocidad del viento	8
178522	7	Sololá	712	San Antonio Palopó	9	San Antonio Palopo	6	Junio	2023-06-22T00:00:00	2024-11-08T12:00:00	7	Dirección del viento	8.05
178523	7	Sololá	712	San Antonio Palopó	9	San Antonio Palopo	6	Junio	2023-06-22T00:00:00	2024-11-08T12:00:00	1	Precipitación	0
178524	7	Sololá	712	San Antonio Palopó	9	San Antonio Palopo	6	Junio	2023-06-22T00:00:00	2024-11-08T12:00:00	8	Radiación solar	752
178525	7	Sololá	712	San Antonio Palopó	9	San Antonio Palopo	6	Junio	2023-06-22T00:00:00	2024-11-08T13:00:00	2	Temperatura media	21.9
178526	7	Sololá	712	San Antonio Palopó	9	San Antonio Palopo	6	Junio	2023-06-22T00:00:00	2024-11-08T13:00:00	4	Temperatura máxima	22.7
178527	7	Sololá	712	San Antonio Palopó	9	San Antonio Palopo	6	Junio	2023-06-22T00:00:00	2024-11-08T13:00:00	3	Temperatura mínima	21.9
178528	7	Sololá	712	San Antonio Palopó	9	San Antonio Palopo	6	Junio	2023-06-22T00:00:00	2024-11-08T13:00:00	5	Humedad	77
178529	7	Sololá	712	San Antonio Palopó	9	San Antonio Palopo	6	Junio	2023-06-22T00:00:00	2024-11-08T13:00:00	6	Velocidad del viento	4.8
178530	7	Sololá	712	San Antonio Palopó	9	San Antonio Palopo	6	Junio	2023-06-22T00:00:00	2024-11-08T13:00:00	7	Dirección del viento	4.83
178531	7	Sololá	712	San Antonio Palopó	9	San Antonio Palopo	6	Junio	2023-06-22T00:00:00	2024-11-08T13:00:00	1	Precipitación	0
178532	7	Sololá	712	San Antonio Palopó	9	San Antonio Palopo	6	Junio	2023-06-22T00:00:00	2024-11-08T13:00:00	8	Radiación solar	992
178533	7	Sololá	712	San Antonio Palopó	9	San Antonio Palopo	6	Junio	2023-06-22T00:00:00	2024-11-08T14:00:00	2	Temperatura media	21.3
178534	7	Sololá	712	San Antonio Palopó	9	San Antonio Palopo	6	Junio	2023-06-22T00:00:00	2024-11-08T14:00:00	4	Temperatura máxima	21.9
178535	7	Sololá	712	San Antonio Palopó	9	San Antonio Palopo	6	Junio	2023-06-22T00:00:00	2024-11-08T14:00:00	3	Temperatura mínima	20.7
178536	7	Sololá	712	San Antonio Palopó	9	San Antonio Palopo	6	Junio	2023-06-22T00:00:00	2024-11-08T14:00:00	5	Humedad	83
178537	7	Sololá	712	San Antonio Palopó	9	San Antonio Palopo	6	Junio	2023-06-22T00:00:00	2024-11-08T14:00:00	6	Velocidad del viento	3.2
178538	7	Sololá	712	San Antonio Palopó	9	San Antonio Palopo	6	Junio	2023-06-22T00:00:00	2024-11-08T14:00:00	7	Dirección del viento	3.22
178539	7	Sololá	712	San Antonio Palopó	9	San Antonio Palopo	6	Junio	2023-06-22T00:00:00	2024-11-08T14:00:00	1	Precipitación	0.2
178540	7	Sololá	712	San Antonio Palopó	9	San Antonio Palopo	6	Junio	2023-06-22T00:00:00	2024-11-08T14:00:00	8	Radiación solar	350
178541	7	Sololá	712	San Antonio Palopó	9	San Antonio Palopo	6	Junio	2023-06-22T00:00:00	2024-11-08T15:00:00	2	Temperatura media	22.6
178542	7	Sololá	712	San Antonio Palopó	9	San Antonio Palopo	6	Junio	2023-06-22T00:00:00	2024-11-08T15:00:00	4	Temperatura máxima	22.6
178543	7	Sololá	712	San Antonio Palopó	9	San Antonio Palopo	6	Junio	2023-06-22T00:00:00	2024-11-08T15:00:00	3	Temperatura mínima	21.3
178544	7	Sololá	712	San Antonio Palopó	9	San Antonio Palopo	6	Junio	2023-06-22T00:00:00	2024-11-08T15:00:00	5	Humedad	77
178545	7	Sololá	712	San Antonio Palopó	9	San Antonio Palopo	6	Junio	2023-06-22T00:00:00	2024-11-08T15:00:00	6	Velocidad del viento	3.2
178546	7	Sololá	712	San Antonio Palopó	9	San Antonio Palopo	6	Junio	2023-06-22T00:00:00	2024-11-08T15:00:00	7	Dirección del viento	3.22
178547	7	Sololá	712	San Antonio Palopó	9	San Antonio Palopo	6	Junio	2023-06-22T00:00:00	2024-11-08T15:00:00	1	Precipitación	0
178548	7	Sololá	712	San Antonio Palopó	9	San Antonio Palopo	6	Junio	2023-06-22T00:00:00	2024-11-08T15:00:00	8	Radiación solar	311
178549	7	Sololá	712	San Antonio Palopó	9	San Antonio Palopo	6	Junio	2023-06-22T00:00:00	2024-11-08T16:00:00	2	Temperatura media	23.4
178550	7	Sololá	712	San Antonio Palopó	9	San Antonio Palopo	6	Junio	2023-06-22T00:00:00	2024-11-08T16:00:00	4	Temperatura máxima	24.2
178551	7	Sololá	712	San Antonio Palopó	9	San Antonio Palopo	6	Junio	2023-06-22T00:00:00	2024-11-08T16:00:00	3	Temperatura mínima	22.5
178552	7	Sololá	712	San Antonio Palopó	9	San Antonio Palopo	6	Junio	2023-06-22T00:00:00	2024-11-08T16:00:00	5	Humedad	72
178553	7	Sololá	712	San Antonio Palopó	9	San Antonio Palopo	6	Junio	2023-06-22T00:00:00	2024-11-08T16:00:00	6	Velocidad del viento	3.2
178554	7	Sololá	712	San Antonio Palopó	9	San Antonio Palopo	6	Junio	2023-06-22T00:00:00	2024-11-08T16:00:00	7	Dirección del viento	3.22
178555	7	Sololá	712	San Antonio Palopó	9	San Antonio Palopo	6	Junio	2023-06-22T00:00:00	2024-11-08T16:00:00	1	Precipitación	0
178556	7	Sololá	712	San Antonio Palopó	9	San Antonio Palopo	6	Junio	2023-06-22T00:00:00	2024-11-08T16:00:00	8	Radiación solar	251
178557	7	Sololá	712	San Antonio Palopó	9	San Antonio Palopo	6	Junio	2023-06-22T00:00:00	2024-11-08T17:00:00	2	Temperatura media	20.1
178558	7	Sololá	712	San Antonio Palopó	9	San Antonio Palopo	6	Junio	2023-06-22T00:00:00	2024-11-08T17:00:00	4	Temperatura máxima	23.5
178559	7	Sololá	712	San Antonio Palopó	9	San Antonio Palopo	6	Junio	2023-06-22T00:00:00	2024-11-08T17:00:00	3	Temperatura mínima	20.1
178560	7	Sololá	712	San Antonio Palopó	9	San Antonio Palopo	6	Junio	2023-06-22T00:00:00	2024-11-08T17:00:00	5	Humedad	84
178561	7	Sololá	712	San Antonio Palopó	9	San Antonio Palopo	6	Junio	2023-06-22T00:00:00	2024-11-08T17:00:00	6	Velocidad del viento	6.4
178562	7	Sololá	712	San Antonio Palopó	9	San Antonio Palopo	6	Junio	2023-06-22T00:00:00	2024-11-08T17:00:00	7	Dirección del viento	6.44
178563	7	Sololá	712	San Antonio Palopó	9	San Antonio Palopo	6	Junio	2023-06-22T00:00:00	2024-11-08T17:00:00	1	Precipitación	0
178564	7	Sololá	712	San Antonio Palopó	9	San Antonio Palopo	6	Junio	2023-06-22T00:00:00	2024-11-08T17:00:00	8	Radiación solar	143
178565	7	Sololá	712	San Antonio Palopó	9	San Antonio Palopo	6	Junio	2023-06-22T00:00:00	2024-11-08T18:00:00	2	Temperatura media	19.1
178566	7	Sololá	712	San Antonio Palopó	9	San Antonio Palopo	6	Junio	2023-06-22T00:00:00	2024-11-08T18:00:00	4	Temperatura máxima	20.2
178567	7	Sololá	712	San Antonio Palopó	9	San Antonio Palopo	6	Junio	2023-06-22T00:00:00	2024-11-08T18:00:00	3	Temperatura mínima	19.1
178568	7	Sololá	712	San Antonio Palopó	9	San Antonio Palopo	6	Junio	2023-06-22T00:00:00	2024-11-08T18:00:00	5	Humedad	89
178569	7	Sololá	712	San Antonio Palopó	9	San Antonio Palopo	6	Junio	2023-06-22T00:00:00	2024-11-08T18:00:00	6	Velocidad del viento	3.2
178570	7	Sololá	712	San Antonio Palopó	9	San Antonio Palopo	6	Junio	2023-06-22T00:00:00	2024-11-08T18:00:00	7	Dirección del viento	3.22
178571	7	Sololá	712	San Antonio Palopó	9	San Antonio Palopo	6	Junio	2023-06-22T00:00:00	2024-11-08T18:00:00	1	Precipitación	0.6
178572	7	Sololá	712	San Antonio Palopó	9	San Antonio Palopo	6	Junio	2023-06-22T00:00:00	2024-11-08T18:00:00	8	Radiación solar	11
178573	7	Sololá	712	San Antonio Palopó	9	San Antonio Palopo	6	Junio	2023-06-22T00:00:00	2024-11-08T19:00:00	2	Temperatura media	18.9
178574	7	Sololá	712	San Antonio Palopó	9	San Antonio Palopo	6	Junio	2023-06-22T00:00:00	2024-11-08T19:00:00	4	Temperatura máxima	19.2
178575	7	Sololá	712	San Antonio Palopó	9	San Antonio Palopo	6	Junio	2023-06-22T00:00:00	2024-11-08T19:00:00	3	Temperatura mínima	18.9
178576	7	Sololá	712	San Antonio Palopó	9	San Antonio Palopo	6	Junio	2023-06-22T00:00:00	2024-11-08T19:00:00	5	Humedad	89
178577	7	Sololá	712	San Antonio Palopó	9	San Antonio Palopo	6	Junio	2023-06-22T00:00:00	2024-11-08T19:00:00	6	Velocidad del viento	1.6
178578	7	Sololá	712	San Antonio Palopó	9	San Antonio Palopo	6	Junio	2023-06-22T00:00:00	2024-11-08T19:00:00	7	Dirección del viento	1.61
178579	7	Sololá	712	San Antonio Palopó	9	San Antonio Palopo	6	Junio	2023-06-22T00:00:00	2024-11-08T19:00:00	1	Precipitación	0.2
178580	7	Sololá	712	San Antonio Palopó	9	San Antonio Palopo	6	Junio	2023-06-22T00:00:00	2024-11-08T19:00:00	8	Radiación solar	0
178581	7	Sololá	712	San Antonio Palopó	9	San Antonio Palopo	6	Junio	2023-06-22T00:00:00	2024-11-08T20:00:00	2	Temperatura media	18.8
178582	7	Sololá	712	San Antonio Palopó	9	San Antonio Palopo	6	Junio	2023-06-22T00:00:00	2024-11-08T20:00:00	4	Temperatura máxima	18.9
178583	7	Sololá	712	San Antonio Palopó	9	San Antonio Palopo	6	Junio	2023-06-22T00:00:00	2024-11-08T20:00:00	3	Temperatura mínima	18.8
178584	7	Sololá	712	San Antonio Palopó	9	San Antonio Palopo	6	Junio	2023-06-22T00:00:00	2024-11-08T20:00:00	5	Humedad	90
178585	7	Sololá	712	San Antonio Palopó	9	San Antonio Palopo	6	Junio	2023-06-22T00:00:00	2024-11-08T20:00:00	6	Velocidad del viento	1.6
178586	7	Sololá	712	San Antonio Palopó	9	San Antonio Palopo	6	Junio	2023-06-22T00:00:00	2024-11-08T20:00:00	7	Dirección del viento	1.61
178587	7	Sololá	712	San Antonio Palopó	9	San Antonio Palopo	6	Junio	2023-06-22T00:00:00	2024-11-08T20:00:00	1	Precipitación	0.2
178588	7	Sololá	712	San Antonio Palopó	9	San Antonio Palopo	6	Junio	2023-06-22T00:00:00	2024-11-08T20:00:00	8	Radiación solar	0
178589	7	Sololá	712	San Antonio Palopó	9	San Antonio Palopo	6	Junio	2023-06-22T00:00:00	2024-11-08T21:00:00	2	Temperatura media	18.7
178590	7	Sololá	712	San Antonio Palopó	9	San Antonio Palopo	6	Junio	2023-06-22T00:00:00	2024-11-08T21:00:00	4	Temperatura máxima	18.8
178591	7	Sololá	712	San Antonio Palopó	9	San Antonio Palopo	6	Junio	2023-06-22T00:00:00	2024-11-08T21:00:00	3	Temperatura mínima	18.6
178592	7	Sololá	712	San Antonio Palopó	9	San Antonio Palopo	6	Junio	2023-06-22T00:00:00	2024-11-08T21:00:00	5	Humedad	89
178593	7	Sololá	712	San Antonio Palopó	9	San Antonio Palopo	6	Junio	2023-06-22T00:00:00	2024-11-08T21:00:00	6	Velocidad del viento	0
178594	7	Sololá	712	San Antonio Palopó	9	San Antonio Palopo	6	Junio	2023-06-22T00:00:00	2024-11-08T21:00:00	7	Dirección del viento	0
178595	7	Sololá	712	San Antonio Palopó	9	San Antonio Palopo	6	Junio	2023-06-22T00:00:00	2024-11-08T21:00:00	1	Precipitación	0
178596	7	Sololá	712	San Antonio Palopó	9	San Antonio Palopo	6	Junio	2023-06-22T00:00:00	2024-11-08T21:00:00	8	Radiación solar	0
178597	7	Sololá	712	San Antonio Palopó	9	San Antonio Palopo	6	Junio	2023-06-22T00:00:00	2024-11-08T22:00:00	2	Temperatura media	18.6
178598	7	Sololá	712	San Antonio Palopó	9	San Antonio Palopo	6	Junio	2023-06-22T00:00:00	2024-11-08T22:00:00	4	Temperatura máxima	18.8
178599	7	Sololá	712	San Antonio Palopó	9	San Antonio Palopo	6	Junio	2023-06-22T00:00:00	2024-11-08T22:00:00	3	Temperatura mínima	18.6
178600	7	Sololá	712	San Antonio Palopó	9	San Antonio Palopo	6	Junio	2023-06-22T00:00:00	2024-11-08T22:00:00	5	Humedad	88
178601	7	Sololá	712	San Antonio Palopó	9	San Antonio Palopo	6	Junio	2023-06-22T00:00:00	2024-11-08T22:00:00	6	Velocidad del viento	1.6
178602	7	Sololá	712	San Antonio Palopó	9	San Antonio Palopo	6	Junio	2023-06-22T00:00:00	2024-11-08T22:00:00	7	Dirección del viento	1.61
178603	7	Sololá	712	San Antonio Palopó	9	San Antonio Palopo	6	Junio	2023-06-22T00:00:00	2024-11-08T22:00:00	1	Precipitación	0
178604	7	Sololá	712	San Antonio Palopó	9	San Antonio Palopo	6	Junio	2023-06-22T00:00:00	2024-11-08T22:00:00	8	Radiación solar	0
178605	7	Sololá	712	San Antonio Palopó	9	San Antonio Palopo	6	Junio	2023-06-22T00:00:00	2024-11-08T23:00:00	2	Temperatura media	18.3
178606	7	Sololá	712	San Antonio Palopó	9	San Antonio Palopo	6	Junio	2023-06-22T00:00:00	2024-11-08T23:00:00	4	Temperatura máxima	18.7
178607	7	Sololá	712	San Antonio Palopó	9	San Antonio Palopo	6	Junio	2023-06-22T00:00:00	2024-11-08T23:00:00	3	Temperatura mínima	18.3
178608	7	Sololá	712	San Antonio Palopó	9	San Antonio Palopo	6	Junio	2023-06-22T00:00:00	2024-11-08T23:00:00	5	Humedad	89
178609	7	Sololá	712	San Antonio Palopó	9	San Antonio Palopo	6	Junio	2023-06-22T00:00:00	2024-11-08T23:00:00	6	Velocidad del viento	3.2
178610	7	Sololá	712	San Antonio Palopó	9	San Antonio Palopo	6	Junio	2023-06-22T00:00:00	2024-11-08T23:00:00	7	Dirección del viento	3.22
178611	7	Sololá	712	San Antonio Palopó	9	San Antonio Palopo	6	Junio	2023-06-22T00:00:00	2024-11-08T23:00:00	1	Precipitación	0
178612	7	Sololá	712	San Antonio Palopó	9	San Antonio Palopo	6	Junio	2023-06-22T00:00:00	2024-11-08T23:00:00	8	Radiación solar	0
178613	7	Sololá	712	San Antonio Palopó	9	San Antonio Palopo	6	Junio	2023-06-23T00:00:00	2024-11-08T00:00:00	2	Temperatura media	18.3
178614	7	Sololá	712	San Antonio Palopó	9	San Antonio Palopo	6	Junio	2023-06-23T00:00:00	2024-11-08T00:00:00	4	Temperatura máxima	18.4
178615	7	Sololá	712	San Antonio Palopó	9	San Antonio Palopo	6	Junio	2023-06-23T00:00:00	2024-11-08T00:00:00	3	Temperatura mínima	18.2
178616	7	Sololá	712	San Antonio Palopó	9	San Antonio Palopo	6	Junio	2023-06-23T00:00:00	2024-11-08T00:00:00	5	Humedad	88
178617	7	Sololá	712	San Antonio Palopó	9	San Antonio Palopo	6	Junio	2023-06-23T00:00:00	2024-11-08T00:00:00	6	Velocidad del viento	1.6
178618	7	Sololá	712	San Antonio Palopó	9	San Antonio Palopo	6	Junio	2023-06-23T00:00:00	2024-11-08T00:00:00	7	Dirección del viento	1.61
178619	7	Sololá	712	San Antonio Palopó	9	San Antonio Palopo	6	Junio	2023-06-23T00:00:00	2024-11-08T00:00:00	1	Precipitación	0
178620	7	Sololá	712	San Antonio Palopó	9	San Antonio Palopo	6	Junio	2023-06-23T00:00:00	2024-11-08T00:00:00	8	Radiación solar	0
178621	7	Sololá	712	San Antonio Palopó	9	San Antonio Palopo	6	Junio	2023-06-23T00:00:00	2024-11-08T01:00:00	2	Temperatura media	18.5
178622	7	Sololá	712	San Antonio Palopó	9	San Antonio Palopo	6	Junio	2023-06-23T00:00:00	2024-11-08T01:00:00	4	Temperatura máxima	18.6
178623	7	Sololá	712	San Antonio Palopó	9	San Antonio Palopo	6	Junio	2023-06-23T00:00:00	2024-11-08T01:00:00	3	Temperatura mínima	18.3
178624	7	Sololá	712	San Antonio Palopó	9	San Antonio Palopo	6	Junio	2023-06-23T00:00:00	2024-11-08T01:00:00	5	Humedad	85
178625	7	Sololá	712	San Antonio Palopó	9	San Antonio Palopo	6	Junio	2023-06-23T00:00:00	2024-11-08T01:00:00	6	Velocidad del viento	1.6
178626	7	Sololá	712	San Antonio Palopó	9	San Antonio Palopo	6	Junio	2023-06-23T00:00:00	2024-11-08T01:00:00	7	Dirección del viento	1.61
178627	7	Sololá	712	San Antonio Palopó	9	San Antonio Palopo	6	Junio	2023-06-23T00:00:00	2024-11-08T01:00:00	1	Precipitación	0
178628	7	Sololá	712	San Antonio Palopó	9	San Antonio Palopo	6	Junio	2023-06-23T00:00:00	2024-11-08T01:00:00	8	Radiación solar	0
178629	7	Sololá	712	San Antonio Palopó	9	San Antonio Palopo	6	Junio	2023-06-23T00:00:00	2024-11-08T02:00:00	2	Temperatura media	18.8
178630	7	Sololá	712	San Antonio Palopó	9	San Antonio Palopo	6	Junio	2023-06-23T00:00:00	2024-11-08T02:00:00	4	Temperatura máxima	18.9
178631	7	Sololá	712	San Antonio Palopó	9	San Antonio Palopo	6	Junio	2023-06-23T00:00:00	2024-11-08T02:00:00	3	Temperatura mínima	18.6
178632	7	Sololá	712	San Antonio Palopó	9	San Antonio Palopo	6	Junio	2023-06-23T00:00:00	2024-11-08T02:00:00	5	Humedad	84
178633	7	Sololá	712	San Antonio Palopó	9	San Antonio Palopo	6	Junio	2023-06-23T00:00:00	2024-11-08T02:00:00	6	Velocidad del viento	8
178634	7	Sololá	712	San Antonio Palopó	9	San Antonio Palopo	6	Junio	2023-06-23T00:00:00	2024-11-08T02:00:00	7	Dirección del viento	8.05
178635	7	Sololá	712	San Antonio Palopó	9	San Antonio Palopo	6	Junio	2023-06-23T00:00:00	2024-11-08T02:00:00	1	Precipitación	0
178636	7	Sololá	712	San Antonio Palopó	9	San Antonio Palopo	6	Junio	2023-06-23T00:00:00	2024-11-08T02:00:00	8	Radiación solar	0
178637	7	Sololá	712	San Antonio Palopó	9	San Antonio Palopo	6	Junio	2023-06-23T00:00:00	2024-11-08T03:00:00	2	Temperatura media	18.7
178638	7	Sololá	712	San Antonio Palopó	9	San Antonio Palopo	6	Junio	2023-06-23T00:00:00	2024-11-08T03:00:00	4	Temperatura máxima	18.9
178639	7	Sololá	712	San Antonio Palopó	9	San Antonio Palopo	6	Junio	2023-06-23T00:00:00	2024-11-08T03:00:00	3	Temperatura mínima	18.7
178640	7	Sololá	712	San Antonio Palopó	9	San Antonio Palopo	6	Junio	2023-06-23T00:00:00	2024-11-08T03:00:00	5	Humedad	86
178641	7	Sololá	712	San Antonio Palopó	9	San Antonio Palopo	6	Junio	2023-06-23T00:00:00	2024-11-08T03:00:00	6	Velocidad del viento	1.6
178642	7	Sololá	712	San Antonio Palopó	9	San Antonio Palopo	6	Junio	2023-06-23T00:00:00	2024-11-08T03:00:00	7	Dirección del viento	1.61
178643	7	Sololá	712	San Antonio Palopó	9	San Antonio Palopo	6	Junio	2023-06-23T00:00:00	2024-11-08T03:00:00	1	Precipitación	0
178644	7	Sololá	712	San Antonio Palopó	9	San Antonio Palopo	6	Junio	2023-06-23T00:00:00	2024-11-08T03:00:00	8	Radiación solar	0
178645	7	Sololá	712	San Antonio Palopó	9	San Antonio Palopo	6	Junio	2023-06-23T00:00:00	2024-11-08T04:00:00	2	Temperatura media	18.8
178646	7	Sololá	712	San Antonio Palopó	9	San Antonio Palopo	6	Junio	2023-06-23T00:00:00	2024-11-08T04:00:00	4	Temperatura máxima	18.9
178647	7	Sololá	712	San Antonio Palopó	9	San Antonio Palopo	6	Junio	2023-06-23T00:00:00	2024-11-08T04:00:00	3	Temperatura mínima	18.7
178648	7	Sololá	712	San Antonio Palopó	9	San Antonio Palopo	6	Junio	2023-06-23T00:00:00	2024-11-08T04:00:00	5	Humedad	85
178649	7	Sololá	712	San Antonio Palopó	9	San Antonio Palopo	6	Junio	2023-06-23T00:00:00	2024-11-08T04:00:00	6	Velocidad del viento	3.2
178650	7	Sololá	712	San Antonio Palopó	9	San Antonio Palopo	6	Junio	2023-06-23T00:00:00	2024-11-08T04:00:00	7	Dirección del viento	3.22
178651	7	Sololá	712	San Antonio Palopó	9	San Antonio Palopo	6	Junio	2023-06-23T00:00:00	2024-11-08T04:00:00	1	Precipitación	0
178652	7	Sololá	712	San Antonio Palopó	9	San Antonio Palopo	6	Junio	2023-06-23T00:00:00	2024-11-08T04:00:00	8	Radiación solar	0
178653	7	Sololá	712	San Antonio Palopó	9	San Antonio Palopo	6	Junio	2023-06-23T00:00:00	2024-11-08T05:00:00	2	Temperatura media	18.9
178654	7	Sololá	712	San Antonio Palopó	9	San Antonio Palopo	6	Junio	2023-06-23T00:00:00	2024-11-08T05:00:00	4	Temperatura máxima	18.9
178655	7	Sololá	712	San Antonio Palopó	9	San Antonio Palopo	6	Junio	2023-06-23T00:00:00	2024-11-08T05:00:00	3	Temperatura mínima	18.7
178656	7	Sololá	712	San Antonio Palopó	9	San Antonio Palopo	6	Junio	2023-06-23T00:00:00	2024-11-08T05:00:00	5	Humedad	79
178657	7	Sololá	712	San Antonio Palopó	9	San Antonio Palopo	6	Junio	2023-06-23T00:00:00	2024-11-08T05:00:00	6	Velocidad del viento	6.4
178658	7	Sololá	712	San Antonio Palopó	9	San Antonio Palopo	6	Junio	2023-06-23T00:00:00	2024-11-08T05:00:00	7	Dirección del viento	6.44
178659	7	Sololá	712	San Antonio Palopó	9	San Antonio Palopo	6	Junio	2023-06-23T00:00:00	2024-11-08T05:00:00	1	Precipitación	0
178660	7	Sololá	712	San Antonio Palopó	9	San Antonio Palopo	6	Junio	2023-06-23T00:00:00	2024-11-08T05:00:00	8	Radiación solar	0
178661	7	Sololá	712	San Antonio Palopó	9	San Antonio Palopo	6	Junio	2023-06-23T00:00:00	2024-11-08T06:00:00	2	Temperatura media	18.9
178662	7	Sololá	712	San Antonio Palopó	9	San Antonio Palopo	6	Junio	2023-06-23T00:00:00	2024-11-08T06:00:00	4	Temperatura máxima	19
178663	7	Sololá	712	San Antonio Palopó	9	San Antonio Palopo	6	Junio	2023-06-23T00:00:00	2024-11-08T06:00:00	3	Temperatura mínima	18.8
178664	7	Sololá	712	San Antonio Palopó	9	San Antonio Palopo	6	Junio	2023-06-23T00:00:00	2024-11-08T06:00:00	5	Humedad	78
178665	7	Sololá	712	San Antonio Palopó	9	San Antonio Palopo	6	Junio	2023-06-23T00:00:00	2024-11-08T06:00:00	6	Velocidad del viento	8
178666	7	Sololá	712	San Antonio Palopó	9	San Antonio Palopo	6	Junio	2023-06-23T00:00:00	2024-11-08T06:00:00	7	Dirección del viento	8.05
178667	7	Sololá	712	San Antonio Palopó	9	San Antonio Palopo	6	Junio	2023-06-23T00:00:00	2024-11-08T06:00:00	1	Precipitación	0
178668	7	Sololá	712	San Antonio Palopó	9	San Antonio Palopo	6	Junio	2023-06-23T00:00:00	2024-11-08T06:00:00	8	Radiación solar	4
178669	7	Sololá	712	San Antonio Palopó	9	San Antonio Palopo	6	Junio	2023-06-23T00:00:00	2024-11-08T07:00:00	2	Temperatura media	19.1
178670	7	Sololá	712	San Antonio Palopó	9	San Antonio Palopo	6	Junio	2023-06-23T00:00:00	2024-11-08T07:00:00	4	Temperatura máxima	19.2
178671	7	Sololá	712	San Antonio Palopó	9	San Antonio Palopo	6	Junio	2023-06-23T00:00:00	2024-11-08T07:00:00	3	Temperatura mínima	18.8
178672	7	Sololá	712	San Antonio Palopó	9	San Antonio Palopo	6	Junio	2023-06-23T00:00:00	2024-11-08T07:00:00	5	Humedad	82
178673	7	Sololá	712	San Antonio Palopó	9	San Antonio Palopo	6	Junio	2023-06-23T00:00:00	2024-11-08T07:00:00	6	Velocidad del viento	8
178674	7	Sololá	712	San Antonio Palopó	9	San Antonio Palopo	6	Junio	2023-06-23T00:00:00	2024-11-08T07:00:00	7	Dirección del viento	8.05
178675	7	Sololá	712	San Antonio Palopó	9	San Antonio Palopo	6	Junio	2023-06-23T00:00:00	2024-11-08T07:00:00	1	Precipitación	0
178676	7	Sololá	712	San Antonio Palopó	9	San Antonio Palopo	6	Junio	2023-06-23T00:00:00	2024-11-08T07:00:00	8	Radiación solar	70
178677	7	Sololá	712	San Antonio Palopó	9	San Antonio Palopo	6	Junio	2023-06-23T00:00:00	2024-11-08T08:00:00	2	Temperatura media	20.1
178678	7	Sololá	712	San Antonio Palopó	9	San Antonio Palopo	6	Junio	2023-06-23T00:00:00	2024-11-08T08:00:00	4	Temperatura máxima	20.1
178679	7	Sololá	712	San Antonio Palopó	9	San Antonio Palopo	6	Junio	2023-06-23T00:00:00	2024-11-08T08:00:00	3	Temperatura mínima	18.9
178680	7	Sololá	712	San Antonio Palopó	9	San Antonio Palopo	6	Junio	2023-06-23T00:00:00	2024-11-08T08:00:00	5	Humedad	75
178681	7	Sololá	712	San Antonio Palopó	9	San Antonio Palopo	6	Junio	2023-06-23T00:00:00	2024-11-08T08:00:00	6	Velocidad del viento	4.8
178682	7	Sololá	712	San Antonio Palopó	9	San Antonio Palopo	6	Junio	2023-06-23T00:00:00	2024-11-08T08:00:00	7	Dirección del viento	4.83
178683	7	Sololá	712	San Antonio Palopó	9	San Antonio Palopo	6	Junio	2023-06-23T00:00:00	2024-11-08T08:00:00	1	Precipitación	0
178684	7	Sololá	712	San Antonio Palopó	9	San Antonio Palopo	6	Junio	2023-06-23T00:00:00	2024-11-08T08:00:00	8	Radiación solar	257
178685	7	Sololá	712	San Antonio Palopó	9	San Antonio Palopo	6	Junio	2023-06-23T00:00:00	2024-11-08T09:00:00	2	Temperatura media	22.2
178686	7	Sololá	712	San Antonio Palopó	9	San Antonio Palopo	6	Junio	2023-06-23T00:00:00	2024-11-08T09:00:00	4	Temperatura máxima	22.2
178687	7	Sololá	712	San Antonio Palopó	9	San Antonio Palopo	6	Junio	2023-06-23T00:00:00	2024-11-08T09:00:00	3	Temperatura mínima	20.1
178688	7	Sololá	712	San Antonio Palopó	9	San Antonio Palopo	6	Junio	2023-06-23T00:00:00	2024-11-08T09:00:00	5	Humedad	70
178689	7	Sololá	712	San Antonio Palopó	9	San Antonio Palopo	6	Junio	2023-06-23T00:00:00	2024-11-08T09:00:00	6	Velocidad del viento	6.4
178690	7	Sololá	712	San Antonio Palopó	9	San Antonio Palopo	6	Junio	2023-06-23T00:00:00	2024-11-08T09:00:00	7	Dirección del viento	6.44
178691	7	Sololá	712	San Antonio Palopó	9	San Antonio Palopo	6	Junio	2023-06-23T00:00:00	2024-11-08T09:00:00	1	Precipitación	0
178692	7	Sololá	712	San Antonio Palopó	9	San Antonio Palopo	6	Junio	2023-06-23T00:00:00	2024-11-08T09:00:00	8	Radiación solar	531
178693	7	Sololá	712	San Antonio Palopó	9	San Antonio Palopo	6	Junio	2023-06-23T00:00:00	2024-11-08T10:00:00	2	Temperatura media	23.4
178694	7	Sololá	712	San Antonio Palopó	9	San Antonio Palopo	6	Junio	2023-06-23T00:00:00	2024-11-08T10:00:00	4	Temperatura máxima	23.4
178695	7	Sololá	712	San Antonio Palopó	9	San Antonio Palopo	6	Junio	2023-06-23T00:00:00	2024-11-08T10:00:00	3	Temperatura mínima	22.3
178696	7	Sololá	712	San Antonio Palopó	9	San Antonio Palopo	6	Junio	2023-06-23T00:00:00	2024-11-08T10:00:00	5	Humedad	70
178697	7	Sololá	712	San Antonio Palopó	9	San Antonio Palopo	6	Junio	2023-06-23T00:00:00	2024-11-08T10:00:00	6	Velocidad del viento	4.8
178698	7	Sololá	712	San Antonio Palopó	9	San Antonio Palopo	6	Junio	2023-06-23T00:00:00	2024-11-08T10:00:00	7	Dirección del viento	4.83
178699	7	Sololá	712	San Antonio Palopó	9	San Antonio Palopo	6	Junio	2023-06-23T00:00:00	2024-11-08T10:00:00	1	Precipitación	0
178700	7	Sololá	712	San Antonio Palopó	9	San Antonio Palopo	6	Junio	2023-06-23T00:00:00	2024-11-08T10:00:00	8	Radiación solar	712
178701	7	Sololá	712	San Antonio Palopó	9	San Antonio Palopo	6	Junio	2023-06-23T00:00:00	2024-11-08T11:00:00	2	Temperatura media	24.4
178702	7	Sololá	712	San Antonio Palopó	9	San Antonio Palopo	6	Junio	2023-06-23T00:00:00	2024-11-08T11:00:00	4	Temperatura máxima	24.4
178703	7	Sololá	712	San Antonio Palopó	9	San Antonio Palopo	6	Junio	2023-06-23T00:00:00	2024-11-08T11:00:00	3	Temperatura mínima	23.1
178704	7	Sololá	712	San Antonio Palopó	9	San Antonio Palopo	6	Junio	2023-06-23T00:00:00	2024-11-08T11:00:00	5	Humedad	67
178705	7	Sololá	712	San Antonio Palopó	9	San Antonio Palopo	6	Junio	2023-06-23T00:00:00	2024-11-08T11:00:00	6	Velocidad del viento	3.2
178706	7	Sololá	712	San Antonio Palopó	9	San Antonio Palopo	6	Junio	2023-06-23T00:00:00	2024-11-08T11:00:00	7	Dirección del viento	3.22
178707	7	Sololá	712	San Antonio Palopó	9	San Antonio Palopo	6	Junio	2023-06-23T00:00:00	2024-11-08T11:00:00	1	Precipitación	0
178708	7	Sololá	712	San Antonio Palopó	9	San Antonio Palopo	6	Junio	2023-06-23T00:00:00	2024-11-08T11:00:00	8	Radiación solar	883
178709	7	Sololá	712	San Antonio Palopó	9	San Antonio Palopo	6	Junio	2023-06-23T00:00:00	2024-11-08T12:00:00	2	Temperatura media	24.1
178710	7	Sololá	712	San Antonio Palopó	9	San Antonio Palopo	6	Junio	2023-06-23T00:00:00	2024-11-08T12:00:00	4	Temperatura máxima	24.8
178711	7	Sololá	712	San Antonio Palopó	9	San Antonio Palopo	6	Junio	2023-06-23T00:00:00	2024-11-08T12:00:00	3	Temperatura mínima	23.4
178712	7	Sololá	712	San Antonio Palopó	9	San Antonio Palopo	6	Junio	2023-06-23T00:00:00	2024-11-08T12:00:00	5	Humedad	68
178713	7	Sololá	712	San Antonio Palopó	9	San Antonio Palopo	6	Junio	2023-06-23T00:00:00	2024-11-08T12:00:00	6	Velocidad del viento	8
178714	7	Sololá	712	San Antonio Palopó	9	San Antonio Palopo	6	Junio	2023-06-23T00:00:00	2024-11-08T12:00:00	7	Dirección del viento	8.05
178715	7	Sololá	712	San Antonio Palopó	9	San Antonio Palopo	6	Junio	2023-06-23T00:00:00	2024-11-08T12:00:00	1	Precipitación	0
178716	7	Sololá	712	San Antonio Palopó	9	San Antonio Palopo	6	Junio	2023-06-23T00:00:00	2024-11-08T12:00:00	8	Radiación solar	927
178717	7	Sololá	712	San Antonio Palopó	9	San Antonio Palopo	6	Junio	2023-06-23T00:00:00	2024-11-08T13:00:00	2	Temperatura media	22.9
178718	7	Sololá	712	San Antonio Palopó	9	San Antonio Palopo	6	Junio	2023-06-23T00:00:00	2024-11-08T13:00:00	4	Temperatura máxima	24.3
178719	7	Sololá	712	San Antonio Palopó	9	San Antonio Palopo	6	Junio	2023-06-23T00:00:00	2024-11-08T13:00:00	3	Temperatura mínima	22.9
178720	7	Sololá	712	San Antonio Palopó	9	San Antonio Palopo	6	Junio	2023-06-23T00:00:00	2024-11-08T13:00:00	5	Humedad	74
178721	7	Sololá	712	San Antonio Palopó	9	San Antonio Palopo	6	Junio	2023-06-23T00:00:00	2024-11-08T13:00:00	6	Velocidad del viento	6.4
178722	7	Sololá	712	San Antonio Palopó	9	San Antonio Palopo	6	Junio	2023-06-23T00:00:00	2024-11-08T13:00:00	7	Dirección del viento	6.44
178723	7	Sololá	712	San Antonio Palopó	9	San Antonio Palopo	6	Junio	2023-06-23T00:00:00	2024-11-08T13:00:00	1	Precipitación	0
178724	7	Sololá	712	San Antonio Palopó	9	San Antonio Palopo	6	Junio	2023-06-23T00:00:00	2024-11-08T13:00:00	8	Radiación solar	531
178725	7	Sololá	712	San Antonio Palopó	9	San Antonio Palopo	6	Junio	2023-06-23T00:00:00	2024-11-08T14:00:00	2	Temperatura media	21.8
178726	7	Sololá	712	San Antonio Palopó	9	San Antonio Palopo	6	Junio	2023-06-23T00:00:00	2024-11-08T14:00:00	4	Temperatura máxima	23.6
178727	7	Sololá	712	San Antonio Palopó	9	San Antonio Palopo	6	Junio	2023-06-23T00:00:00	2024-11-08T14:00:00	3	Temperatura mínima	21.8
178728	7	Sololá	712	San Antonio Palopó	9	San Antonio Palopo	6	Junio	2023-06-23T00:00:00	2024-11-08T14:00:00	5	Humedad	80
178729	7	Sololá	712	San Antonio Palopó	9	San Antonio Palopo	6	Junio	2023-06-23T00:00:00	2024-11-08T14:00:00	6	Velocidad del viento	8
178730	7	Sololá	712	San Antonio Palopó	9	San Antonio Palopo	6	Junio	2023-06-23T00:00:00	2024-11-08T14:00:00	7	Dirección del viento	8.05
178731	7	Sololá	712	San Antonio Palopó	9	San Antonio Palopo	6	Junio	2023-06-23T00:00:00	2024-11-08T14:00:00	1	Precipitación	0
178732	7	Sololá	712	San Antonio Palopó	9	San Antonio Palopo	6	Junio	2023-06-23T00:00:00	2024-11-08T14:00:00	8	Radiación solar	469
178733	7	Sololá	712	San Antonio Palopó	9	San Antonio Palopo	6	Junio	2023-06-23T00:00:00	2024-11-08T15:00:00	2	Temperatura media	19.4
178734	7	Sololá	712	San Antonio Palopó	9	San Antonio Palopo	6	Junio	2023-06-23T00:00:00	2024-11-08T15:00:00	4	Temperatura máxima	21.9
178735	7	Sololá	712	San Antonio Palopó	9	San Antonio Palopo	6	Junio	2023-06-23T00:00:00	2024-11-08T15:00:00	3	Temperatura mínima	19.2
178736	7	Sololá	712	San Antonio Palopó	9	San Antonio Palopo	6	Junio	2023-06-23T00:00:00	2024-11-08T15:00:00	5	Humedad	91
178737	7	Sololá	712	San Antonio Palopó	9	San Antonio Palopo	6	Junio	2023-06-23T00:00:00	2024-11-08T15:00:00	6	Velocidad del viento	3.2
178738	7	Sololá	712	San Antonio Palopó	9	San Antonio Palopo	6	Junio	2023-06-23T00:00:00	2024-11-08T15:00:00	7	Dirección del viento	3.22
178739	7	Sololá	712	San Antonio Palopó	9	San Antonio Palopo	6	Junio	2023-06-23T00:00:00	2024-11-08T15:00:00	1	Precipitación	10.2
178740	7	Sololá	712	San Antonio Palopó	9	San Antonio Palopo	6	Junio	2023-06-23T00:00:00	2024-11-08T15:00:00	8	Radiación solar	168
178741	7	Sololá	712	San Antonio Palopó	9	San Antonio Palopo	6	Junio	2023-06-23T00:00:00	2024-11-08T16:00:00	2	Temperatura media	19
178742	7	Sololá	712	San Antonio Palopó	9	San Antonio Palopo	6	Junio	2023-06-23T00:00:00	2024-11-08T16:00:00	4	Temperatura máxima	19.6
178743	7	Sololá	712	San Antonio Palopó	9	San Antonio Palopo	6	Junio	2023-06-23T00:00:00	2024-11-08T16:00:00	3	Temperatura mínima	19
178744	7	Sololá	712	San Antonio Palopó	9	San Antonio Palopo	6	Junio	2023-06-23T00:00:00	2024-11-08T16:00:00	5	Humedad	91
178745	7	Sololá	712	San Antonio Palopó	9	San Antonio Palopo	6	Junio	2023-06-23T00:00:00	2024-11-08T16:00:00	6	Velocidad del viento	1.6
178746	7	Sololá	712	San Antonio Palopó	9	San Antonio Palopo	6	Junio	2023-06-23T00:00:00	2024-11-08T16:00:00	7	Dirección del viento	1.61
178747	7	Sololá	712	San Antonio Palopó	9	San Antonio Palopo	6	Junio	2023-06-23T00:00:00	2024-11-08T16:00:00	1	Precipitación	2.2
178748	7	Sololá	712	San Antonio Palopó	9	San Antonio Palopo	6	Junio	2023-06-23T00:00:00	2024-11-08T16:00:00	8	Radiación solar	232
178749	7	Sololá	712	San Antonio Palopó	9	San Antonio Palopo	6	Junio	2023-06-23T00:00:00	2024-11-08T17:00:00	2	Temperatura media	17.6
178750	7	Sololá	712	San Antonio Palopó	9	San Antonio Palopo	6	Junio	2023-06-23T00:00:00	2024-11-08T17:00:00	4	Temperatura máxima	19
178751	7	Sololá	712	San Antonio Palopó	9	San Antonio Palopo	6	Junio	2023-06-23T00:00:00	2024-11-08T17:00:00	3	Temperatura mínima	17.5
178752	7	Sololá	712	San Antonio Palopó	9	San Antonio Palopo	6	Junio	2023-06-23T00:00:00	2024-11-08T17:00:00	5	Humedad	91
178753	7	Sololá	712	San Antonio Palopó	9	San Antonio Palopo	6	Junio	2023-06-23T00:00:00	2024-11-08T17:00:00	6	Velocidad del viento	3.2
178754	7	Sololá	712	San Antonio Palopó	9	San Antonio Palopo	6	Junio	2023-06-23T00:00:00	2024-11-08T17:00:00	7	Dirección del viento	3.22
178755	7	Sololá	712	San Antonio Palopó	9	San Antonio Palopo	6	Junio	2023-06-23T00:00:00	2024-11-08T17:00:00	1	Precipitación	3.4
178756	7	Sololá	712	San Antonio Palopó	9	San Antonio Palopo	6	Junio	2023-06-23T00:00:00	2024-11-08T17:00:00	8	Radiación solar	91
178757	7	Sololá	712	San Antonio Palopó	9	San Antonio Palopo	6	Junio	2023-06-23T00:00:00	2024-11-08T18:00:00	2	Temperatura media	17.7
178758	7	Sololá	712	San Antonio Palopó	9	San Antonio Palopo	6	Junio	2023-06-23T00:00:00	2024-11-08T18:00:00	4	Temperatura máxima	17.8
178759	7	Sololá	712	San Antonio Palopó	9	San Antonio Palopo	6	Junio	2023-06-23T00:00:00	2024-11-08T18:00:00	3	Temperatura mínima	17.6
178760	7	Sololá	712	San Antonio Palopó	9	San Antonio Palopo	6	Junio	2023-06-23T00:00:00	2024-11-08T18:00:00	5	Humedad	92
178761	7	Sololá	712	San Antonio Palopó	9	San Antonio Palopo	6	Junio	2023-06-23T00:00:00	2024-11-08T18:00:00	6	Velocidad del viento	0
178762	7	Sololá	712	San Antonio Palopó	9	San Antonio Palopo	6	Junio	2023-06-23T00:00:00	2024-11-08T18:00:00	7	Dirección del viento	0
178763	7	Sololá	712	San Antonio Palopó	9	San Antonio Palopo	6	Junio	2023-06-23T00:00:00	2024-11-08T18:00:00	1	Precipitación	3.4
178764	7	Sololá	712	San Antonio Palopó	9	San Antonio Palopo	6	Junio	2023-06-23T00:00:00	2024-11-08T18:00:00	8	Radiación solar	27
178765	7	Sololá	712	San Antonio Palopó	9	San Antonio Palopo	6	Junio	2023-06-23T00:00:00	2024-11-08T19:00:00	2	Temperatura media	17.8
178766	7	Sololá	712	San Antonio Palopó	9	San Antonio Palopo	6	Junio	2023-06-23T00:00:00	2024-11-08T19:00:00	4	Temperatura máxima	17.8
178767	7	Sololá	712	San Antonio Palopó	9	San Antonio Palopo	6	Junio	2023-06-23T00:00:00	2024-11-08T19:00:00	3	Temperatura mínima	17.7
178768	7	Sololá	712	San Antonio Palopó	9	San Antonio Palopo	6	Junio	2023-06-23T00:00:00	2024-11-08T19:00:00	5	Humedad	91
178769	7	Sololá	712	San Antonio Palopó	9	San Antonio Palopo	6	Junio	2023-06-23T00:00:00	2024-11-08T19:00:00	6	Velocidad del viento	1.6
178770	7	Sololá	712	San Antonio Palopó	9	San Antonio Palopo	6	Junio	2023-06-23T00:00:00	2024-11-08T19:00:00	7	Dirección del viento	1.61
178771	7	Sololá	712	San Antonio Palopó	9	San Antonio Palopo	6	Junio	2023-06-23T00:00:00	2024-11-08T19:00:00	1	Precipitación	0
178772	7	Sololá	712	San Antonio Palopó	9	San Antonio Palopo	6	Junio	2023-06-23T00:00:00	2024-11-08T19:00:00	8	Radiación solar	0
178773	7	Sololá	712	San Antonio Palopó	9	San Antonio Palopo	6	Junio	2023-06-23T00:00:00	2024-11-08T20:00:00	2	Temperatura media	17.8
178774	7	Sololá	712	San Antonio Palopó	9	San Antonio Palopo	6	Junio	2023-06-23T00:00:00	2024-11-08T20:00:00	4	Temperatura máxima	17.8
178775	7	Sololá	712	San Antonio Palopó	9	San Antonio Palopo	6	Junio	2023-06-23T00:00:00	2024-11-08T20:00:00	3	Temperatura mínima	17.7
178776	7	Sololá	712	San Antonio Palopó	9	San Antonio Palopo	6	Junio	2023-06-23T00:00:00	2024-11-08T20:00:00	5	Humedad	90
178777	7	Sololá	712	San Antonio Palopó	9	San Antonio Palopo	6	Junio	2023-06-23T00:00:00	2024-11-08T20:00:00	6	Velocidad del viento	0
178778	7	Sololá	712	San Antonio Palopó	9	San Antonio Palopo	6	Junio	2023-06-23T00:00:00	2024-11-08T20:00:00	7	Dirección del viento	0
178779	7	Sololá	712	San Antonio Palopó	9	San Antonio Palopo	6	Junio	2023-06-23T00:00:00	2024-11-08T20:00:00	1	Precipitación	0
178780	7	Sololá	712	San Antonio Palopó	9	San Antonio Palopo	6	Junio	2023-06-23T00:00:00	2024-11-08T20:00:00	8	Radiación solar	0
178781	7	Sololá	712	San Antonio Palopó	9	San Antonio Palopo	6	Junio	2023-06-23T00:00:00	2024-11-08T21:00:00	2	Temperatura media	18.1
178782	7	Sololá	712	San Antonio Palopó	9	San Antonio Palopo	6	Junio	2023-06-23T00:00:00	2024-11-08T21:00:00	4	Temperatura máxima	18.1
178783	7	Sololá	712	San Antonio Palopó	9	San Antonio Palopo	6	Junio	2023-06-23T00:00:00	2024-11-08T21:00:00	3	Temperatura mínima	17.8
178784	7	Sololá	712	San Antonio Palopó	9	San Antonio Palopo	6	Junio	2023-06-23T00:00:00	2024-11-08T21:00:00	5	Humedad	87
178785	7	Sololá	712	San Antonio Palopó	9	San Antonio Palopo	6	Junio	2023-06-23T00:00:00	2024-11-08T21:00:00	6	Velocidad del viento	3.2
178786	7	Sololá	712	San Antonio Palopó	9	San Antonio Palopo	6	Junio	2023-06-23T00:00:00	2024-11-08T21:00:00	7	Dirección del viento	3.22
178787	7	Sololá	712	San Antonio Palopó	9	San Antonio Palopo	6	Junio	2023-06-23T00:00:00	2024-11-08T21:00:00	1	Precipitación	0
178788	7	Sololá	712	San Antonio Palopó	9	San Antonio Palopo	6	Junio	2023-06-23T00:00:00	2024-11-08T21:00:00	8	Radiación solar	0
178789	7	Sololá	712	San Antonio Palopó	9	San Antonio Palopo	6	Junio	2023-06-23T00:00:00	2024-11-08T22:00:00	2	Temperatura media	18.1
178790	7	Sololá	712	San Antonio Palopó	9	San Antonio Palopo	6	Junio	2023-06-23T00:00:00	2024-11-08T22:00:00	4	Temperatura máxima	18.1
178791	7	Sololá	712	San Antonio Palopó	9	San Antonio Palopo	6	Junio	2023-06-23T00:00:00	2024-11-08T22:00:00	3	Temperatura mínima	18
178792	7	Sololá	712	San Antonio Palopó	9	San Antonio Palopo	6	Junio	2023-06-23T00:00:00	2024-11-08T22:00:00	5	Humedad	88
178793	7	Sololá	712	San Antonio Palopó	9	San Antonio Palopo	6	Junio	2023-06-23T00:00:00	2024-11-08T22:00:00	6	Velocidad del viento	1.6
178794	7	Sololá	712	San Antonio Palopó	9	San Antonio Palopo	6	Junio	2023-06-23T00:00:00	2024-11-08T22:00:00	7	Dirección del viento	1.61
178795	7	Sololá	712	San Antonio Palopó	9	San Antonio Palopo	6	Junio	2023-06-23T00:00:00	2024-11-08T22:00:00	1	Precipitación	0
178796	7	Sololá	712	San Antonio Palopó	9	San Antonio Palopo	6	Junio	2023-06-23T00:00:00	2024-11-08T22:00:00	8	Radiación solar	0
178797	7	Sololá	712	San Antonio Palopó	9	San Antonio Palopo	6	Junio	2023-06-23T00:00:00	2024-11-08T23:00:00	2	Temperatura media	18.3
178798	7	Sololá	712	San Antonio Palopó	9	San Antonio Palopo	6	Junio	2023-06-23T00:00:00	2024-11-08T23:00:00	4	Temperatura máxima	18.3
178799	7	Sololá	712	San Antonio Palopó	9	San Antonio Palopo	6	Junio	2023-06-23T00:00:00	2024-11-08T23:00:00	3	Temperatura mínima	18.1
178800	7	Sololá	712	San Antonio Palopó	9	San Antonio Palopo	6	Junio	2023-06-23T00:00:00	2024-11-08T23:00:00	5	Humedad	86
178801	7	Sololá	712	San Antonio Palopó	9	San Antonio Palopo	6	Junio	2023-06-23T00:00:00	2024-11-08T23:00:00	6	Velocidad del viento	1.6
178802	7	Sololá	712	San Antonio Palopó	9	San Antonio Palopo	6	Junio	2023-06-23T00:00:00	2024-11-08T23:00:00	7	Dirección del viento	1.61
178803	7	Sololá	712	San Antonio Palopó	9	San Antonio Palopo	6	Junio	2023-06-23T00:00:00	2024-11-08T23:00:00	1	Precipitación	0
178804	7	Sololá	712	San Antonio Palopó	9	San Antonio Palopo	6	Junio	2023-06-23T00:00:00	2024-11-08T23:00:00	8	Radiación solar	0
178805	7	Sololá	712	San Antonio Palopó	9	San Antonio Palopo	6	Junio	2023-06-24T00:00:00	2024-11-08T00:00:00	2	Temperatura media	18.6
178806	7	Sololá	712	San Antonio Palopó	9	San Antonio Palopo	6	Junio	2023-06-24T00:00:00	2024-11-08T00:00:00	4	Temperatura máxima	18.6
178807	7	Sololá	712	San Antonio Palopó	9	San Antonio Palopo	6	Junio	2023-06-24T00:00:00	2024-11-08T00:00:00	3	Temperatura mínima	18.3
178808	7	Sololá	712	San Antonio Palopó	9	San Antonio Palopo	6	Junio	2023-06-24T00:00:00	2024-11-08T00:00:00	5	Humedad	84
178809	7	Sololá	712	San Antonio Palopó	9	San Antonio Palopo	6	Junio	2023-06-24T00:00:00	2024-11-08T00:00:00	6	Velocidad del viento	1.6
178810	7	Sololá	712	San Antonio Palopó	9	San Antonio Palopo	6	Junio	2023-06-24T00:00:00	2024-11-08T00:00:00	7	Dirección del viento	1.61
178811	7	Sololá	712	San Antonio Palopó	9	San Antonio Palopo	6	Junio	2023-06-24T00:00:00	2024-11-08T00:00:00	1	Precipitación	0
178812	7	Sololá	712	San Antonio Palopó	9	San Antonio Palopo	6	Junio	2023-06-24T00:00:00	2024-11-08T00:00:00	8	Radiación solar	0
178813	7	Sololá	712	San Antonio Palopó	9	San Antonio Palopo	6	Junio	2023-06-24T00:00:00	2024-11-08T01:00:00	2	Temperatura media	18.5
178814	7	Sololá	712	San Antonio Palopó	9	San Antonio Palopo	6	Junio	2023-06-24T00:00:00	2024-11-08T01:00:00	4	Temperatura máxima	18.6
178815	7	Sololá	712	San Antonio Palopó	9	San Antonio Palopo	6	Junio	2023-06-24T00:00:00	2024-11-08T01:00:00	3	Temperatura mínima	18.3
178816	7	Sololá	712	San Antonio Palopó	9	San Antonio Palopo	6	Junio	2023-06-24T00:00:00	2024-11-08T01:00:00	5	Humedad	82
178817	7	Sololá	712	San Antonio Palopó	9	San Antonio Palopo	6	Junio	2023-06-24T00:00:00	2024-11-08T01:00:00	6	Velocidad del viento	4.8
178818	7	Sololá	712	San Antonio Palopó	9	San Antonio Palopo	6	Junio	2023-06-24T00:00:00	2024-11-08T01:00:00	7	Dirección del viento	4.83
178819	7	Sololá	712	San Antonio Palopó	9	San Antonio Palopo	6	Junio	2023-06-24T00:00:00	2024-11-08T01:00:00	1	Precipitación	0
178820	7	Sololá	712	San Antonio Palopó	9	San Antonio Palopo	6	Junio	2023-06-24T00:00:00	2024-11-08T01:00:00	8	Radiación solar	0
178821	7	Sololá	712	San Antonio Palopó	9	San Antonio Palopo	6	Junio	2023-06-24T00:00:00	2024-11-08T02:00:00	2	Temperatura media	18.4
178822	7	Sololá	712	San Antonio Palopó	9	San Antonio Palopo	6	Junio	2023-06-24T00:00:00	2024-11-08T02:00:00	4	Temperatura máxima	18.6
178823	7	Sololá	712	San Antonio Palopó	9	San Antonio Palopo	6	Junio	2023-06-24T00:00:00	2024-11-08T02:00:00	3	Temperatura mínima	18.4
178824	7	Sololá	712	San Antonio Palopó	9	San Antonio Palopo	6	Junio	2023-06-24T00:00:00	2024-11-08T02:00:00	5	Humedad	85
178825	7	Sololá	712	San Antonio Palopó	9	San Antonio Palopo	6	Junio	2023-06-24T00:00:00	2024-11-08T02:00:00	6	Velocidad del viento	1.6
178826	7	Sololá	712	San Antonio Palopó	9	San Antonio Palopo	6	Junio	2023-06-24T00:00:00	2024-11-08T02:00:00	7	Dirección del viento	1.61
178827	7	Sololá	712	San Antonio Palopó	9	San Antonio Palopo	6	Junio	2023-06-24T00:00:00	2024-11-08T02:00:00	1	Precipitación	0
178828	7	Sololá	712	San Antonio Palopó	9	San Antonio Palopo	6	Junio	2023-06-24T00:00:00	2024-11-08T02:00:00	8	Radiación solar	0
178829	7	Sololá	712	San Antonio Palopó	9	San Antonio Palopo	6	Junio	2023-06-24T00:00:00	2024-11-08T03:00:00	2	Temperatura media	18.4
178830	7	Sololá	712	San Antonio Palopó	9	San Antonio Palopo	6	Junio	2023-06-24T00:00:00	2024-11-08T03:00:00	4	Temperatura máxima	18.5
178831	7	Sololá	712	San Antonio Palopó	9	San Antonio Palopo	6	Junio	2023-06-24T00:00:00	2024-11-08T03:00:00	3	Temperatura mínima	18.2
178832	7	Sololá	712	San Antonio Palopó	9	San Antonio Palopo	6	Junio	2023-06-24T00:00:00	2024-11-08T03:00:00	5	Humedad	84
178833	7	Sololá	712	San Antonio Palopó	9	San Antonio Palopo	6	Junio	2023-06-24T00:00:00	2024-11-08T03:00:00	6	Velocidad del viento	3.2
178834	7	Sololá	712	San Antonio Palopó	9	San Antonio Palopo	6	Junio	2023-06-24T00:00:00	2024-11-08T03:00:00	7	Dirección del viento	3.22
178835	7	Sololá	712	San Antonio Palopó	9	San Antonio Palopo	6	Junio	2023-06-24T00:00:00	2024-11-08T03:00:00	1	Precipitación	0
178836	7	Sololá	712	San Antonio Palopó	9	San Antonio Palopo	6	Junio	2023-06-24T00:00:00	2024-11-08T03:00:00	8	Radiación solar	0
178837	7	Sololá	712	San Antonio Palopó	9	San Antonio Palopo	6	Junio	2023-06-24T00:00:00	2024-11-08T04:00:00	2	Temperatura media	18.4
178838	7	Sololá	712	San Antonio Palopó	9	San Antonio Palopo	6	Junio	2023-06-24T00:00:00	2024-11-08T04:00:00	4	Temperatura máxima	18.6
178839	7	Sololá	712	San Antonio Palopó	9	San Antonio Palopo	6	Junio	2023-06-24T00:00:00	2024-11-08T04:00:00	3	Temperatura mínima	18.3
178840	7	Sololá	712	San Antonio Palopó	9	San Antonio Palopo	6	Junio	2023-06-24T00:00:00	2024-11-08T04:00:00	5	Humedad	81
178841	7	Sololá	712	San Antonio Palopó	9	San Antonio Palopo	6	Junio	2023-06-24T00:00:00	2024-11-08T04:00:00	6	Velocidad del viento	4.8
178842	7	Sololá	712	San Antonio Palopó	9	San Antonio Palopo	6	Junio	2023-06-24T00:00:00	2024-11-08T04:00:00	7	Dirección del viento	4.83
178843	7	Sololá	712	San Antonio Palopó	9	San Antonio Palopo	6	Junio	2023-06-24T00:00:00	2024-11-08T04:00:00	1	Precipitación	0
178844	7	Sololá	712	San Antonio Palopó	9	San Antonio Palopo	6	Junio	2023-06-24T00:00:00	2024-11-08T04:00:00	8	Radiación solar	0
178845	7	Sololá	712	San Antonio Palopó	9	San Antonio Palopo	6	Junio	2023-06-24T00:00:00	2024-11-08T05:00:00	2	Temperatura media	18.6
178846	7	Sololá	712	San Antonio Palopó	9	San Antonio Palopo	6	Junio	2023-06-24T00:00:00	2024-11-08T05:00:00	4	Temperatura máxima	18.6
178847	7	Sololá	712	San Antonio Palopó	9	San Antonio Palopo	6	Junio	2023-06-24T00:00:00	2024-11-08T05:00:00	3	Temperatura mínima	18.3
178848	7	Sololá	712	San Antonio Palopó	9	San Antonio Palopo	6	Junio	2023-06-24T00:00:00	2024-11-08T05:00:00	5	Humedad	78
178849	7	Sololá	712	San Antonio Palopó	9	San Antonio Palopo	6	Junio	2023-06-24T00:00:00	2024-11-08T05:00:00	6	Velocidad del viento	6.4
178850	7	Sololá	712	San Antonio Palopó	9	San Antonio Palopo	6	Junio	2023-06-24T00:00:00	2024-11-08T05:00:00	7	Dirección del viento	6.44
178851	7	Sololá	712	San Antonio Palopó	9	San Antonio Palopo	6	Junio	2023-06-24T00:00:00	2024-11-08T05:00:00	1	Precipitación	0
178852	7	Sololá	712	San Antonio Palopó	9	San Antonio Palopo	6	Junio	2023-06-24T00:00:00	2024-11-08T05:00:00	8	Radiación solar	0
178853	7	Sololá	712	San Antonio Palopó	9	San Antonio Palopo	6	Junio	2023-06-24T00:00:00	2024-11-08T06:00:00	2	Temperatura media	18.3
178854	7	Sololá	712	San Antonio Palopó	9	San Antonio Palopo	6	Junio	2023-06-24T00:00:00	2024-11-08T06:00:00	4	Temperatura máxima	18.7
178855	7	Sololá	712	San Antonio Palopó	9	San Antonio Palopo	6	Junio	2023-06-24T00:00:00	2024-11-08T06:00:00	3	Temperatura mínima	18.3
178856	7	Sololá	712	San Antonio Palopó	9	San Antonio Palopo	6	Junio	2023-06-24T00:00:00	2024-11-08T06:00:00	5	Humedad	79
178857	7	Sololá	712	San Antonio Palopó	9	San Antonio Palopo	6	Junio	2023-06-24T00:00:00	2024-11-08T06:00:00	6	Velocidad del viento	1.6
178858	7	Sololá	712	San Antonio Palopó	9	San Antonio Palopo	6	Junio	2023-06-24T00:00:00	2024-11-08T06:00:00	7	Dirección del viento	1.61
178859	7	Sololá	712	San Antonio Palopó	9	San Antonio Palopo	6	Junio	2023-06-24T00:00:00	2024-11-08T06:00:00	1	Precipitación	0
178860	7	Sololá	712	San Antonio Palopó	9	San Antonio Palopo	6	Junio	2023-06-24T00:00:00	2024-11-08T06:00:00	8	Radiación solar	3
178861	7	Sololá	712	San Antonio Palopó	9	San Antonio Palopo	6	Junio	2023-06-24T00:00:00	2024-11-08T07:00:00	2	Temperatura media	18.8
178862	7	Sololá	712	San Antonio Palopó	9	San Antonio Palopo	6	Junio	2023-06-24T00:00:00	2024-11-08T07:00:00	4	Temperatura máxima	18.9
178863	7	Sololá	712	San Antonio Palopó	9	San Antonio Palopo	6	Junio	2023-06-24T00:00:00	2024-11-08T07:00:00	3	Temperatura mínima	18.3
178864	7	Sololá	712	San Antonio Palopó	9	San Antonio Palopo	6	Junio	2023-06-24T00:00:00	2024-11-08T07:00:00	5	Humedad	77
178865	7	Sololá	712	San Antonio Palopó	9	San Antonio Palopo	6	Junio	2023-06-24T00:00:00	2024-11-08T07:00:00	6	Velocidad del viento	4.8
178866	7	Sololá	712	San Antonio Palopó	9	San Antonio Palopo	6	Junio	2023-06-24T00:00:00	2024-11-08T07:00:00	7	Dirección del viento	4.83
178867	7	Sololá	712	San Antonio Palopó	9	San Antonio Palopo	6	Junio	2023-06-24T00:00:00	2024-11-08T07:00:00	1	Precipitación	0
178868	7	Sololá	712	San Antonio Palopó	9	San Antonio Palopo	6	Junio	2023-06-24T00:00:00	2024-11-08T07:00:00	8	Radiación solar	43
178869	7	Sololá	712	San Antonio Palopó	9	San Antonio Palopo	6	Junio	2023-06-24T00:00:00	2024-11-08T08:00:00	2	Temperatura media	19.9
178870	7	Sololá	712	San Antonio Palopó	9	San Antonio Palopo	6	Junio	2023-06-24T00:00:00	2024-11-08T08:00:00	4	Temperatura máxima	20
178871	7	Sololá	712	San Antonio Palopó	9	San Antonio Palopo	6	Junio	2023-06-24T00:00:00	2024-11-08T08:00:00	3	Temperatura mínima	18.8
178872	7	Sololá	712	San Antonio Palopó	9	San Antonio Palopo	6	Junio	2023-06-24T00:00:00	2024-11-08T08:00:00	5	Humedad	77
178873	7	Sololá	712	San Antonio Palopó	9	San Antonio Palopo	6	Junio	2023-06-24T00:00:00	2024-11-08T08:00:00	6	Velocidad del viento	3.2
178874	7	Sololá	712	San Antonio Palopó	9	San Antonio Palopo	6	Junio	2023-06-24T00:00:00	2024-11-08T08:00:00	7	Dirección del viento	3.22
178875	7	Sololá	712	San Antonio Palopó	9	San Antonio Palopo	6	Junio	2023-06-24T00:00:00	2024-11-08T08:00:00	1	Precipitación	0
178876	7	Sololá	712	San Antonio Palopó	9	San Antonio Palopo	6	Junio	2023-06-24T00:00:00	2024-11-08T08:00:00	8	Radiación solar	125
178877	7	Sololá	712	San Antonio Palopó	9	San Antonio Palopo	6	Junio	2023-06-24T00:00:00	2024-11-08T09:00:00	2	Temperatura media	21.9
178878	7	Sololá	712	San Antonio Palopó	9	San Antonio Palopo	6	Junio	2023-06-24T00:00:00	2024-11-08T09:00:00	4	Temperatura máxima	21.9
178879	7	Sololá	712	San Antonio Palopó	9	San Antonio Palopo	6	Junio	2023-06-24T00:00:00	2024-11-08T09:00:00	3	Temperatura mínima	19.9
178880	7	Sololá	712	San Antonio Palopó	9	San Antonio Palopo	6	Junio	2023-06-24T00:00:00	2024-11-08T09:00:00	5	Humedad	75
178881	7	Sololá	712	San Antonio Palopó	9	San Antonio Palopo	6	Junio	2023-06-24T00:00:00	2024-11-08T09:00:00	6	Velocidad del viento	3.2
178882	7	Sololá	712	San Antonio Palopó	9	San Antonio Palopo	6	Junio	2023-06-24T00:00:00	2024-11-08T09:00:00	7	Dirección del viento	3.22
178883	7	Sololá	712	San Antonio Palopó	9	San Antonio Palopo	6	Junio	2023-06-24T00:00:00	2024-11-08T09:00:00	1	Precipitación	0
178884	7	Sololá	712	San Antonio Palopó	9	San Antonio Palopo	6	Junio	2023-06-24T00:00:00	2024-11-08T09:00:00	8	Radiación solar	284
178885	7	Sololá	712	San Antonio Palopó	9	San Antonio Palopo	6	Junio	2023-06-24T00:00:00	2024-11-08T10:00:00	2	Temperatura media	23.3
178886	7	Sololá	712	San Antonio Palopó	9	San Antonio Palopo	6	Junio	2023-06-24T00:00:00	2024-11-08T10:00:00	4	Temperatura máxima	23.3
178887	7	Sololá	712	San Antonio Palopó	9	San Antonio Palopo	6	Junio	2023-06-24T00:00:00	2024-11-08T10:00:00	3	Temperatura mínima	21.9
178888	7	Sololá	712	San Antonio Palopó	9	San Antonio Palopo	6	Junio	2023-06-24T00:00:00	2024-11-08T10:00:00	5	Humedad	73
178889	7	Sololá	712	San Antonio Palopó	9	San Antonio Palopo	6	Junio	2023-06-24T00:00:00	2024-11-08T10:00:00	6	Velocidad del viento	3.2
178890	7	Sololá	712	San Antonio Palopó	9	San Antonio Palopo	6	Junio	2023-06-24T00:00:00	2024-11-08T10:00:00	7	Dirección del viento	3.22
178891	7	Sololá	712	San Antonio Palopó	9	San Antonio Palopo	6	Junio	2023-06-24T00:00:00	2024-11-08T10:00:00	1	Precipitación	0
178892	7	Sololá	712	San Antonio Palopó	9	San Antonio Palopo	6	Junio	2023-06-24T00:00:00	2024-11-08T10:00:00	8	Radiación solar	333
178893	7	Sololá	712	San Antonio Palopó	9	San Antonio Palopo	6	Junio	2023-06-24T00:00:00	2024-11-08T11:00:00	2	Temperatura media	23.3
178894	7	Sololá	712	San Antonio Palopó	9	San Antonio Palopo	6	Junio	2023-06-24T00:00:00	2024-11-08T11:00:00	4	Temperatura máxima	24.3
178895	7	Sololá	712	San Antonio Palopó	9	San Antonio Palopo	6	Junio	2023-06-24T00:00:00	2024-11-08T11:00:00	3	Temperatura mínima	23.3
178896	7	Sololá	712	San Antonio Palopó	9	San Antonio Palopo	6	Junio	2023-06-24T00:00:00	2024-11-08T11:00:00	5	Humedad	73
178897	7	Sololá	712	San Antonio Palopó	9	San Antonio Palopo	6	Junio	2023-06-24T00:00:00	2024-11-08T11:00:00	6	Velocidad del viento	3.2
178898	7	Sololá	712	San Antonio Palopó	9	San Antonio Palopo	6	Junio	2023-06-24T00:00:00	2024-11-08T11:00:00	7	Dirección del viento	3.22
178899	7	Sololá	712	San Antonio Palopó	9	San Antonio Palopo	6	Junio	2023-06-24T00:00:00	2024-11-08T11:00:00	1	Precipitación	0
178900	7	Sololá	712	San Antonio Palopó	9	San Antonio Palopo	6	Junio	2023-06-24T00:00:00	2024-11-08T11:00:00	8	Radiación solar	288
178901	7	Sololá	712	San Antonio Palopó	9	San Antonio Palopo	6	Junio	2023-06-24T00:00:00	2024-11-08T12:00:00	2	Temperatura media	24
178902	7	Sololá	712	San Antonio Palopó	9	San Antonio Palopo	6	Junio	2023-06-24T00:00:00	2024-11-08T12:00:00	4	Temperatura máxima	24
178903	7	Sololá	712	San Antonio Palopó	9	San Antonio Palopo	6	Junio	2023-06-24T00:00:00	2024-11-08T12:00:00	3	Temperatura mínima	23
178904	7	Sololá	712	San Antonio Palopó	9	San Antonio Palopo	6	Junio	2023-06-24T00:00:00	2024-11-08T12:00:00	5	Humedad	69
178905	7	Sololá	712	San Antonio Palopó	9	San Antonio Palopo	6	Junio	2023-06-24T00:00:00	2024-11-08T12:00:00	6	Velocidad del viento	4.8
178906	7	Sololá	712	San Antonio Palopó	9	San Antonio Palopo	6	Junio	2023-06-24T00:00:00	2024-11-08T12:00:00	7	Dirección del viento	4.83
178907	7	Sololá	712	San Antonio Palopó	9	San Antonio Palopo	6	Junio	2023-06-24T00:00:00	2024-11-08T12:00:00	1	Precipitación	0
178908	7	Sololá	712	San Antonio Palopó	9	San Antonio Palopo	6	Junio	2023-06-24T00:00:00	2024-11-08T12:00:00	8	Radiación solar	124
178909	7	Sololá	712	San Antonio Palopó	9	San Antonio Palopo	6	Junio	2023-06-24T00:00:00	2024-11-08T13:00:00	2	Temperatura media	26.4
178910	7	Sololá	712	San Antonio Palopó	9	San Antonio Palopo	6	Junio	2023-06-24T00:00:00	2024-11-08T13:00:00	4	Temperatura máxima	26.6
178911	7	Sololá	712	San Antonio Palopó	9	San Antonio Palopo	6	Junio	2023-06-24T00:00:00	2024-11-08T13:00:00	3	Temperatura mínima	24
178912	7	Sololá	712	San Antonio Palopó	9	San Antonio Palopo	6	Junio	2023-06-24T00:00:00	2024-11-08T13:00:00	5	Humedad	66
178913	7	Sololá	712	San Antonio Palopó	9	San Antonio Palopo	6	Junio	2023-06-24T00:00:00	2024-11-08T13:00:00	6	Velocidad del viento	4.8
178914	7	Sololá	712	San Antonio Palopó	9	San Antonio Palopo	6	Junio	2023-06-24T00:00:00	2024-11-08T13:00:00	7	Dirección del viento	4.83
178915	7	Sololá	712	San Antonio Palopó	9	San Antonio Palopo	6	Junio	2023-06-24T00:00:00	2024-11-08T13:00:00	1	Precipitación	0
178916	7	Sololá	712	San Antonio Palopó	9	San Antonio Palopo	6	Junio	2023-06-24T00:00:00	2024-11-08T13:00:00	8	Radiación solar	124
178917	7	Sololá	712	San Antonio Palopó	9	San Antonio Palopo	6	Junio	2023-06-24T00:00:00	2024-11-08T14:00:00	2	Temperatura media	25.2
178918	7	Sololá	712	San Antonio Palopó	9	San Antonio Palopo	6	Junio	2023-06-24T00:00:00	2024-11-08T14:00:00	4	Temperatura máxima	26.4
178919	7	Sololá	712	San Antonio Palopó	9	San Antonio Palopo	6	Junio	2023-06-24T00:00:00	2024-11-08T14:00:00	3	Temperatura mínima	23.9
178920	7	Sololá	712	San Antonio Palopó	9	San Antonio Palopo	6	Junio	2023-06-24T00:00:00	2024-11-08T14:00:00	5	Humedad	71
178921	7	Sololá	712	San Antonio Palopó	9	San Antonio Palopo	6	Junio	2023-06-24T00:00:00	2024-11-08T14:00:00	6	Velocidad del viento	4.8
178922	7	Sololá	712	San Antonio Palopó	9	San Antonio Palopo	6	Junio	2023-06-24T00:00:00	2024-11-08T14:00:00	7	Dirección del viento	4.83
178923	7	Sololá	712	San Antonio Palopó	9	San Antonio Palopo	6	Junio	2023-06-24T00:00:00	2024-11-08T14:00:00	1	Precipitación	0
178924	7	Sololá	712	San Antonio Palopó	9	San Antonio Palopo	6	Junio	2023-06-24T00:00:00	2024-11-08T14:00:00	8	Radiación solar	98
178925	7	Sololá	712	San Antonio Palopó	9	San Antonio Palopo	6	Junio	2023-06-24T00:00:00	2024-11-08T15:00:00	2	Temperatura media	24.3
178926	7	Sololá	712	San Antonio Palopó	9	San Antonio Palopo	6	Junio	2023-06-24T00:00:00	2024-11-08T15:00:00	4	Temperatura máxima	25.2
178927	7	Sololá	712	San Antonio Palopó	9	San Antonio Palopo	6	Junio	2023-06-24T00:00:00	2024-11-08T15:00:00	3	Temperatura mínima	24.1
178928	7	Sololá	712	San Antonio Palopó	9	San Antonio Palopo	6	Junio	2023-06-24T00:00:00	2024-11-08T15:00:00	5	Humedad	76
178929	7	Sololá	712	San Antonio Palopó	9	San Antonio Palopo	6	Junio	2023-06-24T00:00:00	2024-11-08T15:00:00	6	Velocidad del viento	4.8
178930	7	Sololá	712	San Antonio Palopó	9	San Antonio Palopo	6	Junio	2023-06-24T00:00:00	2024-11-08T15:00:00	7	Dirección del viento	4.83
178931	7	Sololá	712	San Antonio Palopó	9	San Antonio Palopo	6	Junio	2023-06-24T00:00:00	2024-11-08T15:00:00	1	Precipitación	0
178932	7	Sololá	712	San Antonio Palopó	9	San Antonio Palopo	6	Junio	2023-06-24T00:00:00	2024-11-08T15:00:00	8	Radiación solar	59
178933	7	Sololá	712	San Antonio Palopó	9	San Antonio Palopo	6	Junio	2023-06-24T00:00:00	2024-11-08T16:00:00	2	Temperatura media	23.3
178934	7	Sololá	712	San Antonio Palopó	9	San Antonio Palopo	6	Junio	2023-06-24T00:00:00	2024-11-08T16:00:00	4	Temperatura máxima	24.6
178935	7	Sololá	712	San Antonio Palopó	9	San Antonio Palopo	6	Junio	2023-06-24T00:00:00	2024-11-08T16:00:00	3	Temperatura mínima	23.3
178936	7	Sololá	712	San Antonio Palopó	9	San Antonio Palopo	6	Junio	2023-06-24T00:00:00	2024-11-08T16:00:00	5	Humedad	74
178937	7	Sololá	712	San Antonio Palopó	9	San Antonio Palopo	6	Junio	2023-06-24T00:00:00	2024-11-08T16:00:00	6	Velocidad del viento	3.2
178938	7	Sololá	712	San Antonio Palopó	9	San Antonio Palopo	6	Junio	2023-06-24T00:00:00	2024-11-08T16:00:00	7	Dirección del viento	3.22
178939	7	Sololá	712	San Antonio Palopó	9	San Antonio Palopo	6	Junio	2023-06-24T00:00:00	2024-11-08T16:00:00	1	Precipitación	0
178940	7	Sololá	712	San Antonio Palopó	9	San Antonio Palopo	6	Junio	2023-06-24T00:00:00	2024-11-08T16:00:00	8	Radiación solar	123
178941	7	Sololá	712	San Antonio Palopó	9	San Antonio Palopo	6	Junio	2023-06-24T00:00:00	2024-11-08T17:00:00	2	Temperatura media	20.7
178942	7	Sololá	712	San Antonio Palopó	9	San Antonio Palopo	6	Junio	2023-06-24T00:00:00	2024-11-08T17:00:00	4	Temperatura máxima	23.3
178943	7	Sololá	712	San Antonio Palopó	9	San Antonio Palopo	6	Junio	2023-06-24T00:00:00	2024-11-08T17:00:00	3	Temperatura mínima	20.7
178944	7	Sololá	712	San Antonio Palopó	9	San Antonio Palopo	6	Junio	2023-06-24T00:00:00	2024-11-08T17:00:00	5	Humedad	86
178945	7	Sololá	712	San Antonio Palopó	9	San Antonio Palopo	6	Junio	2023-06-24T00:00:00	2024-11-08T17:00:00	6	Velocidad del viento	3.2
178946	7	Sololá	712	San Antonio Palopó	9	San Antonio Palopo	6	Junio	2023-06-24T00:00:00	2024-11-08T17:00:00	7	Dirección del viento	3.22
178947	7	Sololá	712	San Antonio Palopó	9	San Antonio Palopo	6	Junio	2023-06-24T00:00:00	2024-11-08T17:00:00	1	Precipitación	0.2
178948	7	Sololá	712	San Antonio Palopó	9	San Antonio Palopo	6	Junio	2023-06-24T00:00:00	2024-11-08T17:00:00	8	Radiación solar	97
178949	7	Sololá	712	San Antonio Palopó	9	San Antonio Palopo	6	Junio	2023-06-24T00:00:00	2024-11-08T18:00:00	2	Temperatura media	19.9
178950	7	Sololá	712	San Antonio Palopó	9	San Antonio Palopo	6	Junio	2023-06-24T00:00:00	2024-11-08T18:00:00	4	Temperatura máxima	20.7
178951	7	Sololá	712	San Antonio Palopó	9	San Antonio Palopo	6	Junio	2023-06-24T00:00:00	2024-11-08T18:00:00	3	Temperatura mínima	19.9
178952	7	Sololá	712	San Antonio Palopó	9	San Antonio Palopo	6	Junio	2023-06-24T00:00:00	2024-11-08T18:00:00	5	Humedad	86
178953	7	Sololá	712	San Antonio Palopó	9	San Antonio Palopo	6	Junio	2023-06-24T00:00:00	2024-11-08T18:00:00	6	Velocidad del viento	4.8
178954	7	Sololá	712	San Antonio Palopó	9	San Antonio Palopo	6	Junio	2023-06-24T00:00:00	2024-11-08T18:00:00	7	Dirección del viento	4.83
178955	7	Sololá	712	San Antonio Palopó	9	San Antonio Palopo	6	Junio	2023-06-24T00:00:00	2024-11-08T18:00:00	1	Precipitación	0
178956	7	Sololá	712	San Antonio Palopó	9	San Antonio Palopo	6	Junio	2023-06-24T00:00:00	2024-11-08T18:00:00	8	Radiación solar	42
178957	7	Sololá	712	San Antonio Palopó	9	San Antonio Palopo	6	Junio	2023-06-24T00:00:00	2024-11-08T19:00:00	2	Temperatura media	19.8
178958	7	Sololá	712	San Antonio Palopó	9	San Antonio Palopo	6	Junio	2023-06-24T00:00:00	2024-11-08T19:00:00	4	Temperatura máxima	19.9
178959	7	Sololá	712	San Antonio Palopó	9	San Antonio Palopo	6	Junio	2023-06-24T00:00:00	2024-11-08T19:00:00	3	Temperatura mínima	19.4
178960	7	Sololá	712	San Antonio Palopó	9	San Antonio Palopo	6	Junio	2023-06-24T00:00:00	2024-11-08T19:00:00	5	Humedad	86
178961	7	Sololá	712	San Antonio Palopó	9	San Antonio Palopo	6	Junio	2023-06-24T00:00:00	2024-11-08T19:00:00	6	Velocidad del viento	3.2
178962	7	Sololá	712	San Antonio Palopó	9	San Antonio Palopo	6	Junio	2023-06-24T00:00:00	2024-11-08T19:00:00	7	Dirección del viento	3.22
178963	7	Sololá	712	San Antonio Palopó	9	San Antonio Palopo	6	Junio	2023-06-24T00:00:00	2024-11-08T19:00:00	1	Precipitación	0
178964	7	Sololá	712	San Antonio Palopó	9	San Antonio Palopo	6	Junio	2023-06-24T00:00:00	2024-11-08T19:00:00	8	Radiación solar	0
178965	7	Sololá	712	San Antonio Palopó	9	San Antonio Palopo	6	Junio	2023-06-24T00:00:00	2024-11-08T20:00:00	2	Temperatura media	19.7
178966	7	Sololá	712	San Antonio Palopó	9	San Antonio Palopo	6	Junio	2023-06-24T00:00:00	2024-11-08T20:00:00	4	Temperatura máxima	19.8
178967	7	Sololá	712	San Antonio Palopó	9	San Antonio Palopo	6	Junio	2023-06-24T00:00:00	2024-11-08T20:00:00	3	Temperatura mínima	19.7
178968	7	Sololá	712	San Antonio Palopó	9	San Antonio Palopo	6	Junio	2023-06-24T00:00:00	2024-11-08T20:00:00	5	Humedad	88
178969	7	Sololá	712	San Antonio Palopó	9	San Antonio Palopo	6	Junio	2023-06-24T00:00:00	2024-11-08T20:00:00	6	Velocidad del viento	1.6
178970	7	Sololá	712	San Antonio Palopó	9	San Antonio Palopo	6	Junio	2023-06-24T00:00:00	2024-11-08T20:00:00	7	Dirección del viento	1.61
178971	7	Sololá	712	San Antonio Palopó	9	San Antonio Palopo	6	Junio	2023-06-24T00:00:00	2024-11-08T20:00:00	1	Precipitación	0
178972	7	Sololá	712	San Antonio Palopó	9	San Antonio Palopo	6	Junio	2023-06-24T00:00:00	2024-11-08T20:00:00	8	Radiación solar	0
178973	7	Sololá	712	San Antonio Palopó	9	San Antonio Palopo	6	Junio	2023-06-24T00:00:00	2024-11-08T21:00:00	2	Temperatura media	19.8
178974	7	Sololá	712	San Antonio Palopó	9	San Antonio Palopo	6	Junio	2023-06-24T00:00:00	2024-11-08T21:00:00	4	Temperatura máxima	19.8
178975	7	Sololá	712	San Antonio Palopó	9	San Antonio Palopo	6	Junio	2023-06-24T00:00:00	2024-11-08T21:00:00	3	Temperatura mínima	19.7
178976	7	Sololá	712	San Antonio Palopó	9	San Antonio Palopo	6	Junio	2023-06-24T00:00:00	2024-11-08T21:00:00	5	Humedad	88
178977	7	Sololá	712	San Antonio Palopó	9	San Antonio Palopo	6	Junio	2023-06-24T00:00:00	2024-11-08T21:00:00	6	Velocidad del viento	0
178978	7	Sololá	712	San Antonio Palopó	9	San Antonio Palopo	6	Junio	2023-06-24T00:00:00	2024-11-08T21:00:00	7	Dirección del viento	0
178979	7	Sololá	712	San Antonio Palopó	9	San Antonio Palopo	6	Junio	2023-06-24T00:00:00	2024-11-08T21:00:00	1	Precipitación	0
178980	7	Sololá	712	San Antonio Palopó	9	San Antonio Palopo	6	Junio	2023-06-24T00:00:00	2024-11-08T21:00:00	8	Radiación solar	0
178981	7	Sololá	712	San Antonio Palopó	9	San Antonio Palopo	6	Junio	2023-06-24T00:00:00	2024-11-08T22:00:00	2	Temperatura media	19.7
178982	7	Sololá	712	San Antonio Palopó	9	San Antonio Palopo	6	Junio	2023-06-24T00:00:00	2024-11-08T22:00:00	4	Temperatura máxima	19.8
178983	7	Sololá	712	San Antonio Palopó	9	San Antonio Palopo	6	Junio	2023-06-24T00:00:00	2024-11-08T22:00:00	3	Temperatura mínima	19.7
178984	7	Sololá	712	San Antonio Palopó	9	San Antonio Palopo	6	Junio	2023-06-24T00:00:00	2024-11-08T22:00:00	5	Humedad	87
178985	7	Sololá	712	San Antonio Palopó	9	San Antonio Palopo	6	Junio	2023-06-24T00:00:00	2024-11-08T22:00:00	6	Velocidad del viento	0
178986	7	Sololá	712	San Antonio Palopó	9	San Antonio Palopo	6	Junio	2023-06-24T00:00:00	2024-11-08T22:00:00	7	Dirección del viento	0
178987	7	Sololá	712	San Antonio Palopó	9	San Antonio Palopo	6	Junio	2023-06-24T00:00:00	2024-11-08T22:00:00	1	Precipitación	0
178988	7	Sololá	712	San Antonio Palopó	9	San Antonio Palopo	6	Junio	2023-06-24T00:00:00	2024-11-08T22:00:00	8	Radiación solar	0
178989	7	Sololá	712	San Antonio Palopó	9	San Antonio Palopo	6	Junio	2023-06-24T00:00:00	2024-11-08T23:00:00	2	Temperatura media	19.6
178990	7	Sololá	712	San Antonio Palopó	9	San Antonio Palopo	6	Junio	2023-06-24T00:00:00	2024-11-08T23:00:00	4	Temperatura máxima	19.8
178991	7	Sololá	712	San Antonio Palopó	9	San Antonio Palopo	6	Junio	2023-06-24T00:00:00	2024-11-08T23:00:00	3	Temperatura mínima	19.6
178992	7	Sololá	712	San Antonio Palopó	9	San Antonio Palopo	6	Junio	2023-06-24T00:00:00	2024-11-08T23:00:00	5	Humedad	88
178993	7	Sololá	712	San Antonio Palopó	9	San Antonio Palopo	6	Junio	2023-06-24T00:00:00	2024-11-08T23:00:00	6	Velocidad del viento	0
178994	7	Sololá	712	San Antonio Palopó	9	San Antonio Palopo	6	Junio	2023-06-24T00:00:00	2024-11-08T23:00:00	7	Dirección del viento	0
178995	7	Sololá	712	San Antonio Palopó	9	San Antonio Palopo	6	Junio	2023-06-24T00:00:00	2024-11-08T23:00:00	1	Precipitación	0
178996	7	Sololá	712	San Antonio Palopó	9	San Antonio Palopo	6	Junio	2023-06-24T00:00:00	2024-11-08T23:00:00	8	Radiación solar	0
178997	7	Sololá	712	San Antonio Palopó	9	San Antonio Palopo	6	Junio	2023-06-25T00:00:00	2024-11-08T00:00:00	2	Temperatura media	19.3
178998	7	Sololá	712	San Antonio Palopó	9	San Antonio Palopo	6	Junio	2023-06-25T00:00:00	2024-11-08T00:00:00	4	Temperatura máxima	19.6
178999	7	Sololá	712	San Antonio Palopó	9	San Antonio Palopo	6	Junio	2023-06-25T00:00:00	2024-11-08T00:00:00	3	Temperatura mínima	19.3
179000	7	Sololá	712	San Antonio Palopó	9	San Antonio Palopo	6	Junio	2023-06-25T00:00:00	2024-11-08T00:00:00	5	Humedad	89
179001	7	Sololá	712	San Antonio Palopó	9	San Antonio Palopo	6	Junio	2023-06-25T00:00:00	2024-11-08T00:00:00	6	Velocidad del viento	0
179002	7	Sololá	712	San Antonio Palopó	9	San Antonio Palopo	6	Junio	2023-06-25T00:00:00	2024-11-08T00:00:00	7	Dirección del viento	0
179003	7	Sololá	712	San Antonio Palopó	9	San Antonio Palopo	6	Junio	2023-06-25T00:00:00	2024-11-08T00:00:00	1	Precipitación	0
179004	7	Sololá	712	San Antonio Palopó	9	San Antonio Palopo	6	Junio	2023-06-25T00:00:00	2024-11-08T00:00:00	8	Radiación solar	0
179005	7	Sololá	712	San Antonio Palopó	9	San Antonio Palopo	6	Junio	2023-06-25T00:00:00	2024-11-08T01:00:00	2	Temperatura media	18.3
179006	7	Sololá	712	San Antonio Palopó	9	San Antonio Palopo	6	Junio	2023-06-25T00:00:00	2024-11-08T01:00:00	4	Temperatura máxima	19.4
179007	7	Sololá	712	San Antonio Palopó	9	San Antonio Palopo	6	Junio	2023-06-25T00:00:00	2024-11-08T01:00:00	3	Temperatura mínima	17.9
179008	7	Sololá	712	San Antonio Palopó	9	San Antonio Palopo	6	Junio	2023-06-25T00:00:00	2024-11-08T01:00:00	5	Humedad	91
179009	7	Sololá	712	San Antonio Palopó	9	San Antonio Palopo	6	Junio	2023-06-25T00:00:00	2024-11-08T01:00:00	6	Velocidad del viento	3.2
179010	7	Sololá	712	San Antonio Palopó	9	San Antonio Palopo	6	Junio	2023-06-25T00:00:00	2024-11-08T01:00:00	7	Dirección del viento	3.22
179011	7	Sololá	712	San Antonio Palopó	9	San Antonio Palopo	6	Junio	2023-06-25T00:00:00	2024-11-08T01:00:00	1	Precipitación	0.2
179012	7	Sololá	712	San Antonio Palopó	9	San Antonio Palopo	6	Junio	2023-06-25T00:00:00	2024-11-08T01:00:00	8	Radiación solar	0
179013	7	Sololá	712	San Antonio Palopó	9	San Antonio Palopo	6	Junio	2023-06-25T00:00:00	2024-11-08T02:00:00	2	Temperatura media	17.6
179014	7	Sololá	712	San Antonio Palopó	9	San Antonio Palopo	6	Junio	2023-06-25T00:00:00	2024-11-08T02:00:00	4	Temperatura máxima	18.3
179015	7	Sololá	712	San Antonio Palopó	9	San Antonio Palopo	6	Junio	2023-06-25T00:00:00	2024-11-08T02:00:00	3	Temperatura mínima	17.6
179016	7	Sololá	712	San Antonio Palopó	9	San Antonio Palopo	6	Junio	2023-06-25T00:00:00	2024-11-08T02:00:00	5	Humedad	81
179017	7	Sololá	712	San Antonio Palopó	9	San Antonio Palopo	6	Junio	2023-06-25T00:00:00	2024-11-08T02:00:00	6	Velocidad del viento	3.2
179018	7	Sololá	712	San Antonio Palopó	9	San Antonio Palopo	6	Junio	2023-06-25T00:00:00	2024-11-08T02:00:00	7	Dirección del viento	3.22
179019	7	Sololá	712	San Antonio Palopó	9	San Antonio Palopo	6	Junio	2023-06-25T00:00:00	2024-11-08T02:00:00	1	Precipitación	3.4
179020	7	Sololá	712	San Antonio Palopó	9	San Antonio Palopo	6	Junio	2023-06-25T00:00:00	2024-11-08T02:00:00	8	Radiación solar	0
179021	7	Sololá	712	San Antonio Palopó	9	San Antonio Palopo	6	Junio	2023-06-25T00:00:00	2024-11-08T03:00:00	2	Temperatura media	17.8
179022	7	Sololá	712	San Antonio Palopó	9	San Antonio Palopo	6	Junio	2023-06-25T00:00:00	2024-11-08T03:00:00	4	Temperatura máxima	17.8
179023	7	Sololá	712	San Antonio Palopó	9	San Antonio Palopo	6	Junio	2023-06-25T00:00:00	2024-11-08T03:00:00	3	Temperatura mínima	17.3
179024	7	Sololá	712	San Antonio Palopó	9	San Antonio Palopo	6	Junio	2023-06-25T00:00:00	2024-11-08T03:00:00	5	Humedad	76
179025	7	Sololá	712	San Antonio Palopó	9	San Antonio Palopo	6	Junio	2023-06-25T00:00:00	2024-11-08T03:00:00	6	Velocidad del viento	6.4
179026	7	Sololá	712	San Antonio Palopó	9	San Antonio Palopo	6	Junio	2023-06-25T00:00:00	2024-11-08T03:00:00	7	Dirección del viento	6.44
179027	7	Sololá	712	San Antonio Palopó	9	San Antonio Palopo	6	Junio	2023-06-25T00:00:00	2024-11-08T03:00:00	1	Precipitación	0
179028	7	Sololá	712	San Antonio Palopó	9	San Antonio Palopo	6	Junio	2023-06-25T00:00:00	2024-11-08T03:00:00	8	Radiación solar	0
179029	7	Sololá	712	San Antonio Palopó	9	San Antonio Palopo	6	Junio	2023-06-25T00:00:00	2024-11-08T04:00:00	2	Temperatura media	18.4
179030	7	Sololá	712	San Antonio Palopó	9	San Antonio Palopo	6	Junio	2023-06-25T00:00:00	2024-11-08T04:00:00	4	Temperatura máxima	18.5
179031	7	Sololá	712	San Antonio Palopó	9	San Antonio Palopo	6	Junio	2023-06-25T00:00:00	2024-11-08T04:00:00	3	Temperatura mínima	17.8
179032	7	Sololá	712	San Antonio Palopó	9	San Antonio Palopo	6	Junio	2023-06-25T00:00:00	2024-11-08T04:00:00	5	Humedad	74
179033	7	Sololá	712	San Antonio Palopó	9	San Antonio Palopo	6	Junio	2023-06-25T00:00:00	2024-11-08T04:00:00	6	Velocidad del viento	4.8
179034	7	Sololá	712	San Antonio Palopó	9	San Antonio Palopo	6	Junio	2023-06-25T00:00:00	2024-11-08T04:00:00	7	Dirección del viento	4.83
179035	7	Sololá	712	San Antonio Palopó	9	San Antonio Palopo	6	Junio	2023-06-25T00:00:00	2024-11-08T04:00:00	1	Precipitación	0
179036	7	Sololá	712	San Antonio Palopó	9	San Antonio Palopo	6	Junio	2023-06-25T00:00:00	2024-11-08T04:00:00	8	Radiación solar	0
179037	7	Sololá	712	San Antonio Palopó	9	San Antonio Palopo	6	Junio	2023-06-25T00:00:00	2024-11-08T05:00:00	2	Temperatura media	18.9
179038	7	Sololá	712	San Antonio Palopó	9	San Antonio Palopo	6	Junio	2023-06-25T00:00:00	2024-11-08T05:00:00	4	Temperatura máxima	19
179039	7	Sololá	712	San Antonio Palopó	9	San Antonio Palopo	6	Junio	2023-06-25T00:00:00	2024-11-08T05:00:00	3	Temperatura mínima	18.4
179040	7	Sololá	712	San Antonio Palopó	9	San Antonio Palopo	6	Junio	2023-06-25T00:00:00	2024-11-08T05:00:00	5	Humedad	74
179041	7	Sololá	712	San Antonio Palopó	9	San Antonio Palopo	6	Junio	2023-06-25T00:00:00	2024-11-08T05:00:00	6	Velocidad del viento	3.2
179042	7	Sololá	712	San Antonio Palopó	9	San Antonio Palopo	6	Junio	2023-06-25T00:00:00	2024-11-08T05:00:00	7	Dirección del viento	3.22
179043	7	Sololá	712	San Antonio Palopó	9	San Antonio Palopo	6	Junio	2023-06-25T00:00:00	2024-11-08T05:00:00	1	Precipitación	0
179044	7	Sololá	712	San Antonio Palopó	9	San Antonio Palopo	6	Junio	2023-06-25T00:00:00	2024-11-08T05:00:00	8	Radiación solar	0
179045	7	Sololá	712	San Antonio Palopó	9	San Antonio Palopo	6	Junio	2023-06-25T00:00:00	2024-11-08T06:00:00	2	Temperatura media	18.6
179046	7	Sololá	712	San Antonio Palopó	9	San Antonio Palopo	6	Junio	2023-06-25T00:00:00	2024-11-08T06:00:00	4	Temperatura máxima	19
179047	7	Sololá	712	San Antonio Palopó	9	San Antonio Palopo	6	Junio	2023-06-25T00:00:00	2024-11-08T06:00:00	3	Temperatura mínima	18.4
179048	7	Sololá	712	San Antonio Palopó	9	San Antonio Palopo	6	Junio	2023-06-25T00:00:00	2024-11-08T06:00:00	5	Humedad	74
179049	7	Sololá	712	San Antonio Palopó	9	San Antonio Palopo	6	Junio	2023-06-25T00:00:00	2024-11-08T06:00:00	6	Velocidad del viento	6.4
179050	7	Sololá	712	San Antonio Palopó	9	San Antonio Palopo	6	Junio	2023-06-25T00:00:00	2024-11-08T06:00:00	7	Dirección del viento	6.44
179051	7	Sololá	712	San Antonio Palopó	9	San Antonio Palopo	6	Junio	2023-06-25T00:00:00	2024-11-08T06:00:00	1	Precipitación	0
179052	7	Sololá	712	San Antonio Palopó	9	San Antonio Palopo	6	Junio	2023-06-25T00:00:00	2024-11-08T06:00:00	8	Radiación solar	3
179053	7	Sololá	712	San Antonio Palopó	9	San Antonio Palopo	6	Junio	2023-06-25T00:00:00	2024-11-08T07:00:00	2	Temperatura media	19.4
179054	7	Sololá	712	San Antonio Palopó	9	San Antonio Palopo	6	Junio	2023-06-25T00:00:00	2024-11-08T07:00:00	4	Temperatura máxima	19.4
179055	7	Sololá	712	San Antonio Palopó	9	San Antonio Palopo	6	Junio	2023-06-25T00:00:00	2024-11-08T07:00:00	3	Temperatura mínima	18.5
179056	7	Sololá	712	San Antonio Palopó	9	San Antonio Palopo	6	Junio	2023-06-25T00:00:00	2024-11-08T07:00:00	5	Humedad	71
179057	7	Sololá	712	San Antonio Palopó	9	San Antonio Palopo	6	Junio	2023-06-25T00:00:00	2024-11-08T07:00:00	6	Velocidad del viento	6.4
179058	7	Sololá	712	San Antonio Palopó	9	San Antonio Palopo	6	Junio	2023-06-25T00:00:00	2024-11-08T07:00:00	7	Dirección del viento	6.44
179059	7	Sololá	712	San Antonio Palopó	9	San Antonio Palopo	6	Junio	2023-06-25T00:00:00	2024-11-08T07:00:00	1	Precipitación	0
179060	7	Sololá	712	San Antonio Palopó	9	San Antonio Palopo	6	Junio	2023-06-25T00:00:00	2024-11-08T07:00:00	8	Radiación solar	60
179061	7	Sololá	712	San Antonio Palopó	9	San Antonio Palopo	6	Junio	2023-06-25T00:00:00	2024-11-08T08:00:00	2	Temperatura media	20.3
179062	7	Sololá	712	San Antonio Palopó	9	San Antonio Palopo	6	Junio	2023-06-25T00:00:00	2024-11-08T08:00:00	4	Temperatura máxima	20.4
179063	7	Sololá	712	San Antonio Palopó	9	San Antonio Palopo	6	Junio	2023-06-25T00:00:00	2024-11-08T08:00:00	3	Temperatura mínima	19.3
179064	7	Sololá	712	San Antonio Palopó	9	San Antonio Palopo	6	Junio	2023-06-25T00:00:00	2024-11-08T08:00:00	5	Humedad	74
179065	7	Sololá	712	San Antonio Palopó	9	San Antonio Palopo	6	Junio	2023-06-25T00:00:00	2024-11-08T08:00:00	6	Velocidad del viento	4.8
179066	7	Sololá	712	San Antonio Palopó	9	San Antonio Palopo	6	Junio	2023-06-25T00:00:00	2024-11-08T08:00:00	7	Dirección del viento	4.83
179067	7	Sololá	712	San Antonio Palopó	9	San Antonio Palopo	6	Junio	2023-06-25T00:00:00	2024-11-08T08:00:00	1	Precipitación	0
179068	7	Sololá	712	San Antonio Palopó	9	San Antonio Palopo	6	Junio	2023-06-25T00:00:00	2024-11-08T08:00:00	8	Radiación solar	189
179069	7	Sololá	712	San Antonio Palopó	9	San Antonio Palopo	6	Junio	2023-06-25T00:00:00	2024-11-08T09:00:00	2	Temperatura media	22.2
179070	7	Sololá	712	San Antonio Palopó	9	San Antonio Palopo	6	Junio	2023-06-25T00:00:00	2024-11-08T09:00:00	4	Temperatura máxima	22.3
179071	7	Sololá	712	San Antonio Palopó	9	San Antonio Palopo	6	Junio	2023-06-25T00:00:00	2024-11-08T09:00:00	3	Temperatura mínima	20.3
179072	7	Sololá	712	San Antonio Palopó	9	San Antonio Palopo	6	Junio	2023-06-25T00:00:00	2024-11-08T09:00:00	5	Humedad	68
179073	7	Sololá	712	San Antonio Palopó	9	San Antonio Palopo	6	Junio	2023-06-25T00:00:00	2024-11-08T09:00:00	6	Velocidad del viento	1.6
179074	7	Sololá	712	San Antonio Palopó	9	San Antonio Palopo	6	Junio	2023-06-25T00:00:00	2024-11-08T09:00:00	7	Dirección del viento	1.61
179075	7	Sololá	712	San Antonio Palopó	9	San Antonio Palopo	6	Junio	2023-06-25T00:00:00	2024-11-08T09:00:00	1	Precipitación	0
179076	7	Sololá	712	San Antonio Palopó	9	San Antonio Palopo	6	Junio	2023-06-25T00:00:00	2024-11-08T09:00:00	8	Radiación solar	325
179077	7	Sololá	712	San Antonio Palopó	9	San Antonio Palopo	6	Junio	2023-06-25T00:00:00	2024-11-08T10:00:00	2	Temperatura media	23.6
179078	7	Sololá	712	San Antonio Palopó	9	San Antonio Palopo	6	Junio	2023-06-25T00:00:00	2024-11-08T10:00:00	4	Temperatura máxima	23.6
179079	7	Sololá	712	San Antonio Palopó	9	San Antonio Palopo	6	Junio	2023-06-25T00:00:00	2024-11-08T10:00:00	3	Temperatura mínima	22
179080	7	Sololá	712	San Antonio Palopó	9	San Antonio Palopo	6	Junio	2023-06-25T00:00:00	2024-11-08T10:00:00	5	Humedad	64
179081	7	Sololá	712	San Antonio Palopó	9	San Antonio Palopo	6	Junio	2023-06-25T00:00:00	2024-11-08T10:00:00	6	Velocidad del viento	3.2
179082	7	Sololá	712	San Antonio Palopó	9	San Antonio Palopo	6	Junio	2023-06-25T00:00:00	2024-11-08T10:00:00	7	Dirección del viento	3.22
179083	7	Sololá	712	San Antonio Palopó	9	San Antonio Palopo	6	Junio	2023-06-25T00:00:00	2024-11-08T10:00:00	1	Precipitación	0
179084	7	Sololá	712	San Antonio Palopó	9	San Antonio Palopo	6	Junio	2023-06-25T00:00:00	2024-11-08T10:00:00	8	Radiación solar	312
179085	7	Sololá	712	San Antonio Palopó	9	San Antonio Palopo	6	Junio	2023-06-25T00:00:00	2024-11-08T11:00:00	2	Temperatura media	24.4
179086	7	Sololá	712	San Antonio Palopó	9	San Antonio Palopo	6	Junio	2023-06-25T00:00:00	2024-11-08T11:00:00	4	Temperatura máxima	24.4
179087	7	Sololá	712	San Antonio Palopó	9	San Antonio Palopo	6	Junio	2023-06-25T00:00:00	2024-11-08T11:00:00	3	Temperatura mínima	23.6
179088	7	Sololá	712	San Antonio Palopó	9	San Antonio Palopo	6	Junio	2023-06-25T00:00:00	2024-11-08T11:00:00	5	Humedad	59
179089	7	Sololá	712	San Antonio Palopó	9	San Antonio Palopo	6	Junio	2023-06-25T00:00:00	2024-11-08T11:00:00	6	Velocidad del viento	3.2
179090	7	Sololá	712	San Antonio Palopó	9	San Antonio Palopo	6	Junio	2023-06-25T00:00:00	2024-11-08T11:00:00	7	Dirección del viento	3.22
179091	7	Sololá	712	San Antonio Palopó	9	San Antonio Palopo	6	Junio	2023-06-25T00:00:00	2024-11-08T11:00:00	1	Precipitación	0
179092	7	Sololá	712	San Antonio Palopó	9	San Antonio Palopo	6	Junio	2023-06-25T00:00:00	2024-11-08T11:00:00	8	Radiación solar	494
179093	7	Sololá	712	San Antonio Palopó	9	San Antonio Palopo	6	Junio	2023-06-25T00:00:00	2024-11-08T12:00:00	2	Temperatura media	26.4
179094	7	Sololá	712	San Antonio Palopó	9	San Antonio Palopo	6	Junio	2023-06-25T00:00:00	2024-11-08T12:00:00	4	Temperatura máxima	26.4
179095	7	Sololá	712	San Antonio Palopó	9	San Antonio Palopo	6	Junio	2023-06-25T00:00:00	2024-11-08T12:00:00	3	Temperatura mínima	24.5
179096	7	Sololá	712	San Antonio Palopó	9	San Antonio Palopo	6	Junio	2023-06-25T00:00:00	2024-11-08T12:00:00	5	Humedad	45
179097	7	Sololá	712	San Antonio Palopó	9	San Antonio Palopo	6	Junio	2023-06-25T00:00:00	2024-11-08T12:00:00	6	Velocidad del viento	6.4
179098	7	Sololá	712	San Antonio Palopó	9	San Antonio Palopo	6	Junio	2023-06-25T00:00:00	2024-11-08T12:00:00	7	Dirección del viento	6.44
179099	7	Sololá	712	San Antonio Palopó	9	San Antonio Palopo	6	Junio	2023-06-25T00:00:00	2024-11-08T12:00:00	1	Precipitación	0
179100	7	Sololá	712	San Antonio Palopó	9	San Antonio Palopo	6	Junio	2023-06-25T00:00:00	2024-11-08T12:00:00	8	Radiación solar	193
179101	7	Sololá	712	San Antonio Palopó	9	San Antonio Palopo	6	Junio	2023-06-25T00:00:00	2024-11-08T13:00:00	2	Temperatura media	27.6
179102	7	Sololá	712	San Antonio Palopó	9	San Antonio Palopo	6	Junio	2023-06-25T00:00:00	2024-11-08T13:00:00	4	Temperatura máxima	27.8
179103	7	Sololá	712	San Antonio Palopó	9	San Antonio Palopo	6	Junio	2023-06-25T00:00:00	2024-11-08T13:00:00	3	Temperatura mínima	26.4
179104	7	Sololá	712	San Antonio Palopó	9	San Antonio Palopo	6	Junio	2023-06-25T00:00:00	2024-11-08T13:00:00	5	Humedad	39
179105	7	Sololá	712	San Antonio Palopó	9	San Antonio Palopo	6	Junio	2023-06-25T00:00:00	2024-11-08T13:00:00	6	Velocidad del viento	8
179106	7	Sololá	712	San Antonio Palopó	9	San Antonio Palopo	6	Junio	2023-06-25T00:00:00	2024-11-08T13:00:00	7	Dirección del viento	8.05
179107	7	Sololá	712	San Antonio Palopó	9	San Antonio Palopo	6	Junio	2023-06-25T00:00:00	2024-11-08T13:00:00	1	Precipitación	0
179108	7	Sololá	712	San Antonio Palopó	9	San Antonio Palopo	6	Junio	2023-06-25T00:00:00	2024-11-08T13:00:00	8	Radiación solar	138
179109	7	Sololá	712	San Antonio Palopó	9	San Antonio Palopo	6	Junio	2023-06-25T00:00:00	2024-11-08T14:00:00	2	Temperatura media	27.8
179110	7	Sololá	712	San Antonio Palopó	9	San Antonio Palopo	6	Junio	2023-06-25T00:00:00	2024-11-08T14:00:00	4	Temperatura máxima	27.8
179111	7	Sololá	712	San Antonio Palopó	9	San Antonio Palopo	6	Junio	2023-06-25T00:00:00	2024-11-08T14:00:00	3	Temperatura mínima	26.9
179112	7	Sololá	712	San Antonio Palopó	9	San Antonio Palopo	6	Junio	2023-06-25T00:00:00	2024-11-08T14:00:00	5	Humedad	36
179113	7	Sololá	712	San Antonio Palopó	9	San Antonio Palopo	6	Junio	2023-06-25T00:00:00	2024-11-08T14:00:00	6	Velocidad del viento	8
179114	7	Sololá	712	San Antonio Palopó	9	San Antonio Palopo	6	Junio	2023-06-25T00:00:00	2024-11-08T14:00:00	7	Dirección del viento	8.05
179115	7	Sololá	712	San Antonio Palopó	9	San Antonio Palopo	6	Junio	2023-06-25T00:00:00	2024-11-08T14:00:00	1	Precipitación	0
179116	7	Sololá	712	San Antonio Palopó	9	San Antonio Palopo	6	Junio	2023-06-25T00:00:00	2024-11-08T14:00:00	8	Radiación solar	411
179117	7	Sololá	712	San Antonio Palopó	9	San Antonio Palopo	6	Junio	2023-06-25T00:00:00	2024-11-08T15:00:00	2	Temperatura media	27.2
179118	7	Sololá	712	San Antonio Palopó	9	San Antonio Palopo	6	Junio	2023-06-25T00:00:00	2024-11-08T15:00:00	4	Temperatura máxima	28.3
179119	7	Sololá	712	San Antonio Palopó	9	San Antonio Palopo	6	Junio	2023-06-25T00:00:00	2024-11-08T15:00:00	3	Temperatura mínima	27.2
179120	7	Sololá	712	San Antonio Palopó	9	San Antonio Palopo	6	Junio	2023-06-25T00:00:00	2024-11-08T15:00:00	5	Humedad	50
179121	7	Sololá	712	San Antonio Palopó	9	San Antonio Palopo	6	Junio	2023-06-25T00:00:00	2024-11-08T15:00:00	6	Velocidad del viento	8
179122	7	Sololá	712	San Antonio Palopó	9	San Antonio Palopo	6	Junio	2023-06-25T00:00:00	2024-11-08T15:00:00	7	Dirección del viento	8.05
179123	7	Sololá	712	San Antonio Palopó	9	San Antonio Palopo	6	Junio	2023-06-25T00:00:00	2024-11-08T15:00:00	1	Precipitación	0
179124	7	Sololá	712	San Antonio Palopó	9	San Antonio Palopo	6	Junio	2023-06-25T00:00:00	2024-11-08T15:00:00	8	Radiación solar	322
179125	7	Sololá	712	San Antonio Palopó	9	San Antonio Palopo	6	Junio	2023-06-25T00:00:00	2024-11-08T16:00:00	2	Temperatura media	27.3
179126	7	Sololá	712	San Antonio Palopó	9	San Antonio Palopo	6	Junio	2023-06-25T00:00:00	2024-11-08T16:00:00	4	Temperatura máxima	27.6
179127	7	Sololá	712	San Antonio Palopó	9	San Antonio Palopo	6	Junio	2023-06-25T00:00:00	2024-11-08T16:00:00	3	Temperatura mínima	26.9
179128	7	Sololá	712	San Antonio Palopó	9	San Antonio Palopo	6	Junio	2023-06-25T00:00:00	2024-11-08T16:00:00	5	Humedad	37
179129	7	Sololá	712	San Antonio Palopó	9	San Antonio Palopo	6	Junio	2023-06-25T00:00:00	2024-11-08T16:00:00	6	Velocidad del viento	9.7
179130	7	Sololá	712	San Antonio Palopó	9	San Antonio Palopo	6	Junio	2023-06-25T00:00:00	2024-11-08T16:00:00	7	Dirección del viento	9.66
179131	7	Sololá	712	San Antonio Palopó	9	San Antonio Palopo	6	Junio	2023-06-25T00:00:00	2024-11-08T16:00:00	1	Precipitación	0
179132	7	Sololá	712	San Antonio Palopó	9	San Antonio Palopo	6	Junio	2023-06-25T00:00:00	2024-11-08T16:00:00	8	Radiación solar	276
179133	7	Sololá	712	San Antonio Palopó	9	San Antonio Palopo	6	Junio	2023-06-25T00:00:00	2024-11-08T17:00:00	2	Temperatura media	26
179134	7	Sololá	712	San Antonio Palopó	9	San Antonio Palopo	6	Junio	2023-06-25T00:00:00	2024-11-08T17:00:00	4	Temperatura máxima	27.3
179135	7	Sololá	712	San Antonio Palopó	9	San Antonio Palopo	6	Junio	2023-06-25T00:00:00	2024-11-08T17:00:00	3	Temperatura mínima	25.9
179136	7	Sololá	712	San Antonio Palopó	9	San Antonio Palopo	6	Junio	2023-06-25T00:00:00	2024-11-08T17:00:00	5	Humedad	61
179137	7	Sololá	712	San Antonio Palopó	9	San Antonio Palopo	6	Junio	2023-06-25T00:00:00	2024-11-08T17:00:00	6	Velocidad del viento	8
179138	7	Sololá	712	San Antonio Palopó	9	San Antonio Palopo	6	Junio	2023-06-25T00:00:00	2024-11-08T17:00:00	7	Dirección del viento	8.05
179139	7	Sololá	712	San Antonio Palopó	9	San Antonio Palopo	6	Junio	2023-06-25T00:00:00	2024-11-08T17:00:00	1	Precipitación	0
179140	7	Sololá	712	San Antonio Palopó	9	San Antonio Palopo	6	Junio	2023-06-25T00:00:00	2024-11-08T17:00:00	8	Radiación solar	207
179141	7	Sololá	712	San Antonio Palopó	9	San Antonio Palopo	6	Junio	2023-06-25T00:00:00	2024-11-08T18:00:00	2	Temperatura media	23.8
179142	7	Sololá	712	San Antonio Palopó	9	San Antonio Palopo	6	Junio	2023-06-25T00:00:00	2024-11-08T18:00:00	4	Temperatura máxima	26.1
179143	7	Sololá	712	San Antonio Palopó	9	San Antonio Palopo	6	Junio	2023-06-25T00:00:00	2024-11-08T18:00:00	3	Temperatura mínima	23.8
179144	7	Sololá	712	San Antonio Palopó	9	San Antonio Palopo	6	Junio	2023-06-25T00:00:00	2024-11-08T18:00:00	5	Humedad	57
179145	7	Sololá	712	San Antonio Palopó	9	San Antonio Palopo	6	Junio	2023-06-25T00:00:00	2024-11-08T18:00:00	6	Velocidad del viento	6.4
179146	7	Sololá	712	San Antonio Palopó	9	San Antonio Palopo	6	Junio	2023-06-25T00:00:00	2024-11-08T18:00:00	7	Dirección del viento	6.44
179147	7	Sololá	712	San Antonio Palopó	9	San Antonio Palopo	6	Junio	2023-06-25T00:00:00	2024-11-08T18:00:00	1	Precipitación	0
179148	7	Sololá	712	San Antonio Palopó	9	San Antonio Palopo	6	Junio	2023-06-25T00:00:00	2024-11-08T18:00:00	8	Radiación solar	48
179149	7	Sololá	712	San Antonio Palopó	9	San Antonio Palopo	6	Junio	2023-06-25T00:00:00	2024-11-08T19:00:00	2	Temperatura media	22.6
179150	7	Sololá	712	San Antonio Palopó	9	San Antonio Palopo	6	Junio	2023-06-25T00:00:00	2024-11-08T19:00:00	4	Temperatura máxima	23.8
179151	7	Sololá	712	San Antonio Palopó	9	San Antonio Palopo	6	Junio	2023-06-25T00:00:00	2024-11-08T19:00:00	3	Temperatura mínima	22.6
179152	7	Sololá	712	San Antonio Palopó	9	San Antonio Palopo	6	Junio	2023-06-25T00:00:00	2024-11-08T19:00:00	5	Humedad	64
179153	7	Sololá	712	San Antonio Palopó	9	San Antonio Palopo	6	Junio	2023-06-25T00:00:00	2024-11-08T19:00:00	6	Velocidad del viento	3.2
179154	7	Sololá	712	San Antonio Palopó	9	San Antonio Palopo	6	Junio	2023-06-25T00:00:00	2024-11-08T19:00:00	7	Dirección del viento	3.22
179155	7	Sololá	712	San Antonio Palopó	9	San Antonio Palopo	6	Junio	2023-06-25T00:00:00	2024-11-08T19:00:00	1	Precipitación	0
179156	7	Sololá	712	San Antonio Palopó	9	San Antonio Palopo	6	Junio	2023-06-25T00:00:00	2024-11-08T19:00:00	8	Radiación solar	0
179157	7	Sololá	712	San Antonio Palopó	9	San Antonio Palopo	6	Junio	2023-06-25T00:00:00	2024-11-08T20:00:00	2	Temperatura media	21.4
179158	7	Sololá	712	San Antonio Palopó	9	San Antonio Palopo	6	Junio	2023-06-25T00:00:00	2024-11-08T20:00:00	4	Temperatura máxima	22.6
179159	7	Sololá	712	San Antonio Palopó	9	San Antonio Palopo	6	Junio	2023-06-25T00:00:00	2024-11-08T20:00:00	3	Temperatura mínima	21.4
179160	7	Sololá	712	San Antonio Palopó	9	San Antonio Palopo	6	Junio	2023-06-25T00:00:00	2024-11-08T20:00:00	5	Humedad	67
179161	7	Sololá	712	San Antonio Palopó	9	San Antonio Palopo	6	Junio	2023-06-25T00:00:00	2024-11-08T20:00:00	6	Velocidad del viento	3.2
179162	7	Sololá	712	San Antonio Palopó	9	San Antonio Palopo	6	Junio	2023-06-25T00:00:00	2024-11-08T20:00:00	7	Dirección del viento	3.22
179163	7	Sololá	712	San Antonio Palopó	9	San Antonio Palopo	6	Junio	2023-06-25T00:00:00	2024-11-08T20:00:00	1	Precipitación	0
179164	7	Sololá	712	San Antonio Palopó	9	San Antonio Palopo	6	Junio	2023-06-25T00:00:00	2024-11-08T20:00:00	8	Radiación solar	0
179165	7	Sololá	712	San Antonio Palopó	9	San Antonio Palopo	6	Junio	2023-06-25T00:00:00	2024-11-08T21:00:00	2	Temperatura media	20.9
179166	7	Sololá	712	San Antonio Palopó	9	San Antonio Palopo	6	Junio	2023-06-25T00:00:00	2024-11-08T21:00:00	4	Temperatura máxima	21.4
179167	7	Sololá	712	San Antonio Palopó	9	San Antonio Palopo	6	Junio	2023-06-25T00:00:00	2024-11-08T21:00:00	3	Temperatura mínima	20.8
179168	7	Sololá	712	San Antonio Palopó	9	San Antonio Palopo	6	Junio	2023-06-25T00:00:00	2024-11-08T21:00:00	5	Humedad	65
179169	7	Sololá	712	San Antonio Palopó	9	San Antonio Palopo	6	Junio	2023-06-25T00:00:00	2024-11-08T21:00:00	6	Velocidad del viento	4.8
179170	7	Sololá	712	San Antonio Palopó	9	San Antonio Palopo	6	Junio	2023-06-25T00:00:00	2024-11-08T21:00:00	7	Dirección del viento	4.83
179171	7	Sololá	712	San Antonio Palopó	9	San Antonio Palopo	6	Junio	2023-06-25T00:00:00	2024-11-08T21:00:00	1	Precipitación	0
179172	7	Sololá	712	San Antonio Palopó	9	San Antonio Palopo	6	Junio	2023-06-25T00:00:00	2024-11-08T21:00:00	8	Radiación solar	0
179173	7	Sololá	712	San Antonio Palopó	9	San Antonio Palopo	6	Junio	2023-06-25T00:00:00	2024-11-08T22:00:00	2	Temperatura media	20.2
179174	7	Sololá	712	San Antonio Palopó	9	San Antonio Palopo	6	Junio	2023-06-25T00:00:00	2024-11-08T22:00:00	4	Temperatura máxima	20.9
179175	7	Sololá	712	San Antonio Palopó	9	San Antonio Palopo	6	Junio	2023-06-25T00:00:00	2024-11-08T22:00:00	3	Temperatura mínima	20.2
179176	7	Sololá	712	San Antonio Palopó	9	San Antonio Palopo	6	Junio	2023-06-25T00:00:00	2024-11-08T22:00:00	5	Humedad	65
179177	7	Sololá	712	San Antonio Palopó	9	San Antonio Palopo	6	Junio	2023-06-25T00:00:00	2024-11-08T22:00:00	6	Velocidad del viento	4.8
179178	7	Sololá	712	San Antonio Palopó	9	San Antonio Palopo	6	Junio	2023-06-25T00:00:00	2024-11-08T22:00:00	7	Dirección del viento	4.83
179179	7	Sololá	712	San Antonio Palopó	9	San Antonio Palopo	6	Junio	2023-06-25T00:00:00	2024-11-08T22:00:00	1	Precipitación	0
179180	7	Sololá	712	San Antonio Palopó	9	San Antonio Palopo	6	Junio	2023-06-25T00:00:00	2024-11-08T22:00:00	8	Radiación solar	0
179181	7	Sololá	712	San Antonio Palopó	9	San Antonio Palopo	6	Junio	2023-06-25T00:00:00	2024-11-08T23:00:00	2	Temperatura media	20.1
179182	7	Sololá	712	San Antonio Palopó	9	San Antonio Palopo	6	Junio	2023-06-25T00:00:00	2024-11-08T23:00:00	4	Temperatura máxima	20.5
179183	7	Sololá	712	San Antonio Palopó	9	San Antonio Palopo	6	Junio	2023-06-25T00:00:00	2024-11-08T23:00:00	3	Temperatura mínima	20.1
179184	7	Sololá	712	San Antonio Palopó	9	San Antonio Palopo	6	Junio	2023-06-25T00:00:00	2024-11-08T23:00:00	5	Humedad	64
179185	7	Sololá	712	San Antonio Palopó	9	San Antonio Palopo	6	Junio	2023-06-25T00:00:00	2024-11-08T23:00:00	6	Velocidad del viento	9.7
179186	7	Sololá	712	San Antonio Palopó	9	San Antonio Palopo	6	Junio	2023-06-25T00:00:00	2024-11-08T23:00:00	7	Dirección del viento	9.66
179187	7	Sololá	712	San Antonio Palopó	9	San Antonio Palopo	6	Junio	2023-06-25T00:00:00	2024-11-08T23:00:00	1	Precipitación	0
179188	7	Sololá	712	San Antonio Palopó	9	San Antonio Palopo	6	Junio	2023-06-25T00:00:00	2024-11-08T23:00:00	8	Radiación solar	0
179189	7	Sololá	712	San Antonio Palopó	9	San Antonio Palopo	6	Junio	2023-06-26T00:00:00	2024-11-08T00:00:00	2	Temperatura media	19.4
179190	7	Sololá	712	San Antonio Palopó	9	San Antonio Palopo	6	Junio	2023-06-26T00:00:00	2024-11-08T00:00:00	4	Temperatura máxima	20.1
179191	7	Sololá	712	San Antonio Palopó	9	San Antonio Palopo	6	Junio	2023-06-26T00:00:00	2024-11-08T00:00:00	3	Temperatura mínima	19.3
179192	7	Sololá	712	San Antonio Palopó	9	San Antonio Palopo	6	Junio	2023-06-26T00:00:00	2024-11-08T00:00:00	5	Humedad	60
179193	7	Sololá	712	San Antonio Palopó	9	San Antonio Palopo	6	Junio	2023-06-26T00:00:00	2024-11-08T00:00:00	6	Velocidad del viento	17.7
179194	7	Sololá	712	San Antonio Palopó	9	San Antonio Palopo	6	Junio	2023-06-26T00:00:00	2024-11-08T00:00:00	7	Dirección del viento	17.7
179195	7	Sololá	712	San Antonio Palopó	9	San Antonio Palopo	6	Junio	2023-06-26T00:00:00	2024-11-08T00:00:00	1	Precipitación	0
179196	7	Sololá	712	San Antonio Palopó	9	San Antonio Palopo	6	Junio	2023-06-26T00:00:00	2024-11-08T00:00:00	8	Radiación solar	0
179197	7	Sololá	712	San Antonio Palopó	9	San Antonio Palopo	6	Junio	2023-06-26T00:00:00	2024-11-08T01:00:00	2	Temperatura media	18.7
179198	7	Sololá	712	San Antonio Palopó	9	San Antonio Palopo	6	Junio	2023-06-26T00:00:00	2024-11-08T01:00:00	4	Temperatura máxima	19.7
179199	7	Sololá	712	San Antonio Palopó	9	San Antonio Palopo	6	Junio	2023-06-26T00:00:00	2024-11-08T01:00:00	3	Temperatura mínima	18.7
179200	7	Sololá	712	San Antonio Palopó	9	San Antonio Palopo	6	Junio	2023-06-26T00:00:00	2024-11-08T01:00:00	5	Humedad	65
179201	7	Sololá	712	San Antonio Palopó	9	San Antonio Palopo	6	Junio	2023-06-26T00:00:00	2024-11-08T01:00:00	6	Velocidad del viento	16.1
179202	7	Sololá	712	San Antonio Palopó	9	San Antonio Palopo	6	Junio	2023-06-26T00:00:00	2024-11-08T01:00:00	7	Dirección del viento	16.09
179203	7	Sololá	712	San Antonio Palopó	9	San Antonio Palopo	6	Junio	2023-06-26T00:00:00	2024-11-08T01:00:00	1	Precipitación	0
179204	7	Sololá	712	San Antonio Palopó	9	San Antonio Palopo	6	Junio	2023-06-26T00:00:00	2024-11-08T01:00:00	8	Radiación solar	0
179205	7	Sololá	712	San Antonio Palopó	9	San Antonio Palopo	6	Junio	2023-06-26T00:00:00	2024-11-08T02:00:00	2	Temperatura media	18.9
179206	7	Sololá	712	San Antonio Palopó	9	San Antonio Palopo	6	Junio	2023-06-26T00:00:00	2024-11-08T02:00:00	4	Temperatura máxima	19
179207	7	Sololá	712	San Antonio Palopó	9	San Antonio Palopo	6	Junio	2023-06-26T00:00:00	2024-11-08T02:00:00	3	Temperatura mínima	18.7
179208	7	Sololá	712	San Antonio Palopó	9	San Antonio Palopo	6	Junio	2023-06-26T00:00:00	2024-11-08T02:00:00	5	Humedad	65
179209	7	Sololá	712	San Antonio Palopó	9	San Antonio Palopo	6	Junio	2023-06-26T00:00:00	2024-11-08T02:00:00	6	Velocidad del viento	16.1
179210	7	Sololá	712	San Antonio Palopó	9	San Antonio Palopo	6	Junio	2023-06-26T00:00:00	2024-11-08T02:00:00	7	Dirección del viento	16.09
179211	7	Sololá	712	San Antonio Palopó	9	San Antonio Palopo	6	Junio	2023-06-26T00:00:00	2024-11-08T02:00:00	1	Precipitación	0
179212	7	Sololá	712	San Antonio Palopó	9	San Antonio Palopo	6	Junio	2023-06-26T00:00:00	2024-11-08T02:00:00	8	Radiación solar	0
179213	7	Sololá	712	San Antonio Palopó	9	San Antonio Palopo	6	Junio	2023-06-26T00:00:00	2024-11-08T03:00:00	2	Temperatura media	19.2
179214	7	Sololá	712	San Antonio Palopó	9	San Antonio Palopo	6	Junio	2023-06-26T00:00:00	2024-11-08T03:00:00	4	Temperatura máxima	19.7
179215	7	Sololá	712	San Antonio Palopó	9	San Antonio Palopo	6	Junio	2023-06-26T00:00:00	2024-11-08T03:00:00	3	Temperatura mínima	18.9
179216	7	Sololá	712	San Antonio Palopó	9	San Antonio Palopo	6	Junio	2023-06-26T00:00:00	2024-11-08T03:00:00	5	Humedad	64
179217	7	Sololá	712	San Antonio Palopó	9	San Antonio Palopo	6	Junio	2023-06-26T00:00:00	2024-11-08T03:00:00	6	Velocidad del viento	14.5
179218	7	Sololá	712	San Antonio Palopó	9	San Antonio Palopo	6	Junio	2023-06-26T00:00:00	2024-11-08T03:00:00	7	Dirección del viento	14.48
179219	7	Sololá	712	San Antonio Palopó	9	San Antonio Palopo	6	Junio	2023-06-26T00:00:00	2024-11-08T03:00:00	1	Precipitación	0
179220	7	Sololá	712	San Antonio Palopó	9	San Antonio Palopo	6	Junio	2023-06-26T00:00:00	2024-11-08T03:00:00	8	Radiación solar	0
179221	7	Sololá	712	San Antonio Palopó	9	San Antonio Palopo	6	Junio	2023-06-26T00:00:00	2024-11-08T04:00:00	2	Temperatura media	18.9
179222	7	Sololá	712	San Antonio Palopó	9	San Antonio Palopo	6	Junio	2023-06-26T00:00:00	2024-11-08T04:00:00	4	Temperatura máxima	19.3
179223	7	Sololá	712	San Antonio Palopó	9	San Antonio Palopo	6	Junio	2023-06-26T00:00:00	2024-11-08T04:00:00	3	Temperatura mínima	18.9
179224	7	Sololá	712	San Antonio Palopó	9	San Antonio Palopo	6	Junio	2023-06-26T00:00:00	2024-11-08T04:00:00	5	Humedad	63
179225	7	Sololá	712	San Antonio Palopó	9	San Antonio Palopo	6	Junio	2023-06-26T00:00:00	2024-11-08T04:00:00	6	Velocidad del viento	17.7
179226	7	Sololá	712	San Antonio Palopó	9	San Antonio Palopo	6	Junio	2023-06-26T00:00:00	2024-11-08T04:00:00	7	Dirección del viento	17.7
179227	7	Sololá	712	San Antonio Palopó	9	San Antonio Palopo	6	Junio	2023-06-26T00:00:00	2024-11-08T04:00:00	1	Precipitación	0
179228	7	Sololá	712	San Antonio Palopó	9	San Antonio Palopo	6	Junio	2023-06-26T00:00:00	2024-11-08T04:00:00	8	Radiación solar	0
179229	7	Sololá	712	San Antonio Palopó	9	San Antonio Palopo	6	Junio	2023-06-26T00:00:00	2024-11-08T05:00:00	2	Temperatura media	18.8
179230	7	Sololá	712	San Antonio Palopó	9	San Antonio Palopo	6	Junio	2023-06-26T00:00:00	2024-11-08T05:00:00	4	Temperatura máxima	19.1
179231	7	Sololá	712	San Antonio Palopó	9	San Antonio Palopo	6	Junio	2023-06-26T00:00:00	2024-11-08T05:00:00	3	Temperatura mínima	18.7
179232	7	Sololá	712	San Antonio Palopó	9	San Antonio Palopo	6	Junio	2023-06-26T00:00:00	2024-11-08T05:00:00	5	Humedad	60
179233	7	Sololá	712	San Antonio Palopó	9	San Antonio Palopo	6	Junio	2023-06-26T00:00:00	2024-11-08T05:00:00	6	Velocidad del viento	16.1
179234	7	Sololá	712	San Antonio Palopó	9	San Antonio Palopo	6	Junio	2023-06-26T00:00:00	2024-11-08T05:00:00	7	Dirección del viento	16.09
179235	7	Sololá	712	San Antonio Palopó	9	San Antonio Palopo	6	Junio	2023-06-26T00:00:00	2024-11-08T05:00:00	1	Precipitación	0
179236	7	Sololá	712	San Antonio Palopó	9	San Antonio Palopo	6	Junio	2023-06-26T00:00:00	2024-11-08T05:00:00	8	Radiación solar	0
179237	7	Sololá	712	San Antonio Palopó	9	San Antonio Palopo	6	Junio	2023-06-26T00:00:00	2024-11-08T06:00:00	2	Temperatura media	19
179238	7	Sololá	712	San Antonio Palopó	9	San Antonio Palopo	6	Junio	2023-06-26T00:00:00	2024-11-08T06:00:00	4	Temperatura máxima	19.2
179239	7	Sololá	712	San Antonio Palopó	9	San Antonio Palopo	6	Junio	2023-06-26T00:00:00	2024-11-08T06:00:00	3	Temperatura mínima	18.8
179240	7	Sololá	712	San Antonio Palopó	9	San Antonio Palopo	6	Junio	2023-06-26T00:00:00	2024-11-08T06:00:00	5	Humedad	56
179241	7	Sololá	712	San Antonio Palopó	9	San Antonio Palopo	6	Junio	2023-06-26T00:00:00	2024-11-08T06:00:00	6	Velocidad del viento	12.9
179242	7	Sololá	712	San Antonio Palopó	9	San Antonio Palopo	6	Junio	2023-06-26T00:00:00	2024-11-08T06:00:00	7	Dirección del viento	12.87
179243	7	Sololá	712	San Antonio Palopó	9	San Antonio Palopo	6	Junio	2023-06-26T00:00:00	2024-11-08T06:00:00	1	Precipitación	0
179244	7	Sololá	712	San Antonio Palopó	9	San Antonio Palopo	6	Junio	2023-06-26T00:00:00	2024-11-08T06:00:00	8	Radiación solar	4
179245	7	Sololá	712	San Antonio Palopó	9	San Antonio Palopo	6	Junio	2023-06-26T00:00:00	2024-11-08T07:00:00	2	Temperatura media	19.4
179246	7	Sololá	712	San Antonio Palopó	9	San Antonio Palopo	6	Junio	2023-06-26T00:00:00	2024-11-08T07:00:00	4	Temperatura máxima	19.4
179247	7	Sololá	712	San Antonio Palopó	9	San Antonio Palopo	6	Junio	2023-06-26T00:00:00	2024-11-08T07:00:00	3	Temperatura mínima	18.8
179248	7	Sololá	712	San Antonio Palopó	9	San Antonio Palopo	6	Junio	2023-06-26T00:00:00	2024-11-08T07:00:00	5	Humedad	59
179249	7	Sololá	712	San Antonio Palopó	9	San Antonio Palopo	6	Junio	2023-06-26T00:00:00	2024-11-08T07:00:00	6	Velocidad del viento	11.3
179250	7	Sololá	712	San Antonio Palopó	9	San Antonio Palopo	6	Junio	2023-06-26T00:00:00	2024-11-08T07:00:00	7	Dirección del viento	11.27
179251	7	Sololá	712	San Antonio Palopó	9	San Antonio Palopo	6	Junio	2023-06-26T00:00:00	2024-11-08T07:00:00	1	Precipitación	0
179252	7	Sololá	712	San Antonio Palopó	9	San Antonio Palopo	6	Junio	2023-06-26T00:00:00	2024-11-08T07:00:00	8	Radiación solar	74
179253	7	Sololá	712	San Antonio Palopó	9	San Antonio Palopo	6	Junio	2023-06-26T00:00:00	2024-11-08T08:00:00	2	Temperatura media	20.7
179254	7	Sololá	712	San Antonio Palopó	9	San Antonio Palopo	6	Junio	2023-06-26T00:00:00	2024-11-08T08:00:00	4	Temperatura máxima	20.8
179255	7	Sololá	712	San Antonio Palopó	9	San Antonio Palopo	6	Junio	2023-06-26T00:00:00	2024-11-08T08:00:00	3	Temperatura mínima	19.4
179256	7	Sololá	712	San Antonio Palopó	9	San Antonio Palopo	6	Junio	2023-06-26T00:00:00	2024-11-08T08:00:00	5	Humedad	59
179257	7	Sololá	712	San Antonio Palopó	9	San Antonio Palopo	6	Junio	2023-06-26T00:00:00	2024-11-08T08:00:00	6	Velocidad del viento	4.8
179258	7	Sololá	712	San Antonio Palopó	9	San Antonio Palopo	6	Junio	2023-06-26T00:00:00	2024-11-08T08:00:00	7	Dirección del viento	4.83
179259	7	Sololá	712	San Antonio Palopó	9	San Antonio Palopo	6	Junio	2023-06-26T00:00:00	2024-11-08T08:00:00	1	Precipitación	0
179260	7	Sololá	712	San Antonio Palopó	9	San Antonio Palopo	6	Junio	2023-06-26T00:00:00	2024-11-08T08:00:00	8	Radiación solar	219
179261	7	Sololá	712	San Antonio Palopó	9	San Antonio Palopo	6	Junio	2023-06-26T00:00:00	2024-11-08T09:00:00	2	Temperatura media	22.1
179262	7	Sololá	712	San Antonio Palopó	9	San Antonio Palopo	6	Junio	2023-06-26T00:00:00	2024-11-08T09:00:00	4	Temperatura máxima	22.1
179263	7	Sololá	712	San Antonio Palopó	9	San Antonio Palopo	6	Junio	2023-06-26T00:00:00	2024-11-08T09:00:00	3	Temperatura mínima	20.7
179264	7	Sololá	712	San Antonio Palopó	9	San Antonio Palopo	6	Junio	2023-06-26T00:00:00	2024-11-08T09:00:00	5	Humedad	58
179265	7	Sololá	712	San Antonio Palopó	9	San Antonio Palopo	6	Junio	2023-06-26T00:00:00	2024-11-08T09:00:00	6	Velocidad del viento	1.6
179266	7	Sololá	712	San Antonio Palopó	9	San Antonio Palopo	6	Junio	2023-06-26T00:00:00	2024-11-08T09:00:00	7	Dirección del viento	1.61
179267	7	Sololá	712	San Antonio Palopó	9	San Antonio Palopo	6	Junio	2023-06-26T00:00:00	2024-11-08T09:00:00	1	Precipitación	0
179268	7	Sololá	712	San Antonio Palopó	9	San Antonio Palopo	6	Junio	2023-06-26T00:00:00	2024-11-08T09:00:00	8	Radiación solar	334
179269	7	Sololá	712	San Antonio Palopó	9	San Antonio Palopo	6	Junio	2023-06-26T00:00:00	2024-11-08T10:00:00	2	Temperatura media	24.2
179270	7	Sololá	712	San Antonio Palopó	9	San Antonio Palopo	6	Junio	2023-06-26T00:00:00	2024-11-08T10:00:00	4	Temperatura máxima	24.2
179271	7	Sololá	712	San Antonio Palopó	9	San Antonio Palopo	6	Junio	2023-06-26T00:00:00	2024-11-08T10:00:00	3	Temperatura mínima	22.1
179272	7	Sololá	712	San Antonio Palopó	9	San Antonio Palopo	6	Junio	2023-06-26T00:00:00	2024-11-08T10:00:00	5	Humedad	54
179273	7	Sololá	712	San Antonio Palopó	9	San Antonio Palopo	6	Junio	2023-06-26T00:00:00	2024-11-08T10:00:00	6	Velocidad del viento	1.6
179274	7	Sololá	712	San Antonio Palopó	9	San Antonio Palopo	6	Junio	2023-06-26T00:00:00	2024-11-08T10:00:00	7	Dirección del viento	1.61
179275	7	Sololá	712	San Antonio Palopó	9	San Antonio Palopo	6	Junio	2023-06-26T00:00:00	2024-11-08T10:00:00	1	Precipitación	0
179276	7	Sololá	712	San Antonio Palopó	9	San Antonio Palopo	6	Junio	2023-06-26T00:00:00	2024-11-08T10:00:00	8	Radiación solar	382
179277	7	Sololá	712	San Antonio Palopó	9	San Antonio Palopo	6	Junio	2023-06-26T00:00:00	2024-11-08T11:00:00	2	Temperatura media	25.8
179278	7	Sololá	712	San Antonio Palopó	9	San Antonio Palopo	6	Junio	2023-06-26T00:00:00	2024-11-08T11:00:00	4	Temperatura máxima	25.8
179279	7	Sololá	712	San Antonio Palopó	9	San Antonio Palopo	6	Junio	2023-06-26T00:00:00	2024-11-08T11:00:00	3	Temperatura mínima	24.2
179280	7	Sololá	712	San Antonio Palopó	9	San Antonio Palopo	6	Junio	2023-06-26T00:00:00	2024-11-08T11:00:00	5	Humedad	50
179281	7	Sololá	712	San Antonio Palopó	9	San Antonio Palopo	6	Junio	2023-06-26T00:00:00	2024-11-08T11:00:00	6	Velocidad del viento	4.8
179282	7	Sololá	712	San Antonio Palopó	9	San Antonio Palopo	6	Junio	2023-06-26T00:00:00	2024-11-08T11:00:00	7	Dirección del viento	4.83
179283	7	Sololá	712	San Antonio Palopó	9	San Antonio Palopo	6	Junio	2023-06-26T00:00:00	2024-11-08T11:00:00	1	Precipitación	0
179284	7	Sololá	712	San Antonio Palopó	9	San Antonio Palopo	6	Junio	2023-06-26T00:00:00	2024-11-08T11:00:00	8	Radiación solar	289
179285	7	Sololá	712	San Antonio Palopó	9	San Antonio Palopo	6	Junio	2023-06-26T00:00:00	2024-11-08T12:00:00	2	Temperatura media	27.4
179286	7	Sololá	712	San Antonio Palopó	9	San Antonio Palopo	6	Junio	2023-06-26T00:00:00	2024-11-08T12:00:00	4	Temperatura máxima	27.7
179287	7	Sololá	712	San Antonio Palopó	9	San Antonio Palopo	6	Junio	2023-06-26T00:00:00	2024-11-08T12:00:00	3	Temperatura mínima	25.8
179288	7	Sololá	712	San Antonio Palopó	9	San Antonio Palopo	6	Junio	2023-06-26T00:00:00	2024-11-08T12:00:00	5	Humedad	46
179289	7	Sololá	712	San Antonio Palopó	9	San Antonio Palopo	6	Junio	2023-06-26T00:00:00	2024-11-08T12:00:00	6	Velocidad del viento	9.7
179290	7	Sololá	712	San Antonio Palopó	9	San Antonio Palopo	6	Junio	2023-06-26T00:00:00	2024-11-08T12:00:00	7	Dirección del viento	9.66
179291	7	Sololá	712	San Antonio Palopó	9	San Antonio Palopo	6	Junio	2023-06-26T00:00:00	2024-11-08T12:00:00	1	Precipitación	0
179292	7	Sololá	712	San Antonio Palopó	9	San Antonio Palopo	6	Junio	2023-06-26T00:00:00	2024-11-08T12:00:00	8	Radiación solar	289
179293	7	Sololá	712	San Antonio Palopó	9	San Antonio Palopo	6	Junio	2023-06-26T00:00:00	2024-11-08T13:00:00	2	Temperatura media	27.8
179294	7	Sololá	712	San Antonio Palopó	9	San Antonio Palopo	6	Junio	2023-06-26T00:00:00	2024-11-08T13:00:00	4	Temperatura máxima	27.9
179295	7	Sololá	712	San Antonio Palopó	9	San Antonio Palopo	6	Junio	2023-06-26T00:00:00	2024-11-08T13:00:00	3	Temperatura mínima	27.3
179296	7	Sololá	712	San Antonio Palopó	9	San Antonio Palopo	6	Junio	2023-06-26T00:00:00	2024-11-08T13:00:00	5	Humedad	46
179297	7	Sololá	712	San Antonio Palopó	9	San Antonio Palopo	6	Junio	2023-06-26T00:00:00	2024-11-08T13:00:00	6	Velocidad del viento	9.7
179298	7	Sololá	712	San Antonio Palopó	9	San Antonio Palopo	6	Junio	2023-06-26T00:00:00	2024-11-08T13:00:00	7	Dirección del viento	9.66
179299	7	Sololá	712	San Antonio Palopó	9	San Antonio Palopo	6	Junio	2023-06-26T00:00:00	2024-11-08T13:00:00	1	Precipitación	0
179300	7	Sololá	712	San Antonio Palopó	9	San Antonio Palopo	6	Junio	2023-06-26T00:00:00	2024-11-08T13:00:00	8	Radiación solar	312
179301	7	Sololá	712	San Antonio Palopó	9	San Antonio Palopo	6	Junio	2023-06-26T00:00:00	2024-11-08T14:00:00	2	Temperatura media	26.9
179302	7	Sololá	712	San Antonio Palopó	9	San Antonio Palopo	6	Junio	2023-06-26T00:00:00	2024-11-08T14:00:00	4	Temperatura máxima	27.9
179303	7	Sololá	712	San Antonio Palopó	9	San Antonio Palopo	6	Junio	2023-06-26T00:00:00	2024-11-08T14:00:00	3	Temperatura mínima	26.9
179304	7	Sololá	712	San Antonio Palopó	9	San Antonio Palopo	6	Junio	2023-06-26T00:00:00	2024-11-08T14:00:00	5	Humedad	50
179305	7	Sololá	712	San Antonio Palopó	9	San Antonio Palopo	6	Junio	2023-06-26T00:00:00	2024-11-08T14:00:00	6	Velocidad del viento	9.7
179306	7	Sololá	712	San Antonio Palopó	9	San Antonio Palopo	6	Junio	2023-06-26T00:00:00	2024-11-08T14:00:00	7	Dirección del viento	9.66
179307	7	Sololá	712	San Antonio Palopó	9	San Antonio Palopo	6	Junio	2023-06-26T00:00:00	2024-11-08T14:00:00	1	Precipitación	0
179308	7	Sololá	712	San Antonio Palopó	9	San Antonio Palopo	6	Junio	2023-06-26T00:00:00	2024-11-08T14:00:00	8	Radiación solar	339
179309	7	Sololá	712	San Antonio Palopó	9	San Antonio Palopo	6	Junio	2023-06-26T00:00:00	2024-11-08T15:00:00	2	Temperatura media	28.6
179310	7	Sololá	712	San Antonio Palopó	9	San Antonio Palopo	6	Junio	2023-06-26T00:00:00	2024-11-08T15:00:00	4	Temperatura máxima	28.6
179311	7	Sololá	712	San Antonio Palopó	9	San Antonio Palopo	6	Junio	2023-06-26T00:00:00	2024-11-08T15:00:00	3	Temperatura mínima	27
179312	7	Sololá	712	San Antonio Palopó	9	San Antonio Palopo	6	Junio	2023-06-26T00:00:00	2024-11-08T15:00:00	5	Humedad	46
179313	7	Sololá	712	San Antonio Palopó	9	San Antonio Palopo	6	Junio	2023-06-26T00:00:00	2024-11-08T15:00:00	6	Velocidad del viento	8
179314	7	Sololá	712	San Antonio Palopó	9	San Antonio Palopo	6	Junio	2023-06-26T00:00:00	2024-11-08T15:00:00	7	Dirección del viento	8.05
179315	7	Sololá	712	San Antonio Palopó	9	San Antonio Palopo	6	Junio	2023-06-26T00:00:00	2024-11-08T15:00:00	1	Precipitación	0
179316	7	Sololá	712	San Antonio Palopó	9	San Antonio Palopo	6	Junio	2023-06-26T00:00:00	2024-11-08T15:00:00	8	Radiación solar	365
179317	7	Sololá	712	San Antonio Palopó	9	San Antonio Palopo	6	Junio	2023-06-26T00:00:00	2024-11-08T16:00:00	2	Temperatura media	26
179318	7	Sololá	712	San Antonio Palopó	9	San Antonio Palopo	6	Junio	2023-06-26T00:00:00	2024-11-08T16:00:00	4	Temperatura máxima	28.8
179319	7	Sololá	712	San Antonio Palopó	9	San Antonio Palopo	6	Junio	2023-06-26T00:00:00	2024-11-08T16:00:00	3	Temperatura mínima	26
179320	7	Sololá	712	San Antonio Palopó	9	San Antonio Palopo	6	Junio	2023-06-26T00:00:00	2024-11-08T16:00:00	5	Humedad	66
179321	7	Sololá	712	San Antonio Palopó	9	San Antonio Palopo	6	Junio	2023-06-26T00:00:00	2024-11-08T16:00:00	6	Velocidad del viento	8
179322	7	Sololá	712	San Antonio Palopó	9	San Antonio Palopo	6	Junio	2023-06-26T00:00:00	2024-11-08T16:00:00	7	Dirección del viento	8.05
179323	7	Sololá	712	San Antonio Palopó	9	San Antonio Palopo	6	Junio	2023-06-26T00:00:00	2024-11-08T16:00:00	1	Precipitación	0
179324	7	Sololá	712	San Antonio Palopó	9	San Antonio Palopo	6	Junio	2023-06-26T00:00:00	2024-11-08T16:00:00	8	Radiación solar	238
179325	7	Sololá	712	San Antonio Palopó	9	San Antonio Palopo	6	Junio	2023-06-26T00:00:00	2024-11-08T17:00:00	2	Temperatura media	27.4
179326	7	Sololá	712	San Antonio Palopó	9	San Antonio Palopo	6	Junio	2023-06-26T00:00:00	2024-11-08T17:00:00	4	Temperatura máxima	27.8
179327	7	Sololá	712	San Antonio Palopó	9	San Antonio Palopo	6	Junio	2023-06-26T00:00:00	2024-11-08T17:00:00	3	Temperatura mínima	25.4
179328	7	Sololá	712	San Antonio Palopó	9	San Antonio Palopo	6	Junio	2023-06-26T00:00:00	2024-11-08T17:00:00	5	Humedad	56
179329	7	Sololá	712	San Antonio Palopó	9	San Antonio Palopo	6	Junio	2023-06-26T00:00:00	2024-11-08T17:00:00	6	Velocidad del viento	6.4
179330	7	Sololá	712	San Antonio Palopó	9	San Antonio Palopo	6	Junio	2023-06-26T00:00:00	2024-11-08T17:00:00	7	Dirección del viento	6.44
179331	7	Sololá	712	San Antonio Palopó	9	San Antonio Palopo	6	Junio	2023-06-26T00:00:00	2024-11-08T17:00:00	1	Precipitación	0
179332	7	Sololá	712	San Antonio Palopó	9	San Antonio Palopo	6	Junio	2023-06-26T00:00:00	2024-11-08T17:00:00	8	Radiación solar	132
179333	7	Sololá	712	San Antonio Palopó	9	San Antonio Palopo	6	Junio	2023-06-26T00:00:00	2024-11-08T18:00:00	2	Temperatura media	23.2
179334	7	Sololá	712	San Antonio Palopó	9	San Antonio Palopo	6	Junio	2023-06-26T00:00:00	2024-11-08T18:00:00	4	Temperatura máxima	27.9
179335	7	Sololá	712	San Antonio Palopó	9	San Antonio Palopo	6	Junio	2023-06-26T00:00:00	2024-11-08T18:00:00	3	Temperatura mínima	23.2
179336	7	Sololá	712	San Antonio Palopó	9	San Antonio Palopo	6	Junio	2023-06-26T00:00:00	2024-11-08T18:00:00	5	Humedad	73
179337	7	Sololá	712	San Antonio Palopó	9	San Antonio Palopo	6	Junio	2023-06-26T00:00:00	2024-11-08T18:00:00	6	Velocidad del viento	6.4
179338	7	Sololá	712	San Antonio Palopó	9	San Antonio Palopo	6	Junio	2023-06-26T00:00:00	2024-11-08T18:00:00	7	Dirección del viento	6.44
179339	7	Sololá	712	San Antonio Palopó	9	San Antonio Palopo	6	Junio	2023-06-26T00:00:00	2024-11-08T18:00:00	1	Precipitación	0
179340	7	Sololá	712	San Antonio Palopó	9	San Antonio Palopo	6	Junio	2023-06-26T00:00:00	2024-11-08T18:00:00	8	Radiación solar	69
179341	7	Sololá	712	San Antonio Palopó	9	San Antonio Palopo	6	Junio	2023-06-26T00:00:00	2024-11-08T19:00:00	2	Temperatura media	21.8
179342	7	Sololá	712	San Antonio Palopó	9	San Antonio Palopo	6	Junio	2023-06-26T00:00:00	2024-11-08T19:00:00	4	Temperatura máxima	23.3
179343	7	Sololá	712	San Antonio Palopó	9	San Antonio Palopo	6	Junio	2023-06-26T00:00:00	2024-11-08T19:00:00	3	Temperatura mínima	21.8
179344	7	Sololá	712	San Antonio Palopó	9	San Antonio Palopo	6	Junio	2023-06-26T00:00:00	2024-11-08T19:00:00	5	Humedad	80
179345	7	Sololá	712	San Antonio Palopó	9	San Antonio Palopo	6	Junio	2023-06-26T00:00:00	2024-11-08T19:00:00	6	Velocidad del viento	3.2
179346	7	Sololá	712	San Antonio Palopó	9	San Antonio Palopo	6	Junio	2023-06-26T00:00:00	2024-11-08T19:00:00	7	Dirección del viento	3.22
179347	7	Sololá	712	San Antonio Palopó	9	San Antonio Palopo	6	Junio	2023-06-26T00:00:00	2024-11-08T19:00:00	1	Precipitación	0
179348	7	Sololá	712	San Antonio Palopó	9	San Antonio Palopo	6	Junio	2023-06-26T00:00:00	2024-11-08T19:00:00	8	Radiación solar	0
179349	7	Sololá	712	San Antonio Palopó	9	San Antonio Palopo	6	Junio	2023-06-26T00:00:00	2024-11-08T20:00:00	2	Temperatura media	21.2
179350	7	Sololá	712	San Antonio Palopó	9	San Antonio Palopo	6	Junio	2023-06-26T00:00:00	2024-11-08T20:00:00	4	Temperatura máxima	21.8
179351	7	Sololá	712	San Antonio Palopó	9	San Antonio Palopo	6	Junio	2023-06-26T00:00:00	2024-11-08T20:00:00	3	Temperatura mínima	21.1
179352	7	Sololá	712	San Antonio Palopó	9	San Antonio Palopo	6	Junio	2023-06-26T00:00:00	2024-11-08T20:00:00	5	Humedad	83
179353	7	Sololá	712	San Antonio Palopó	9	San Antonio Palopo	6	Junio	2023-06-26T00:00:00	2024-11-08T20:00:00	6	Velocidad del viento	1.6
179354	7	Sololá	712	San Antonio Palopó	9	San Antonio Palopo	6	Junio	2023-06-26T00:00:00	2024-11-08T20:00:00	7	Dirección del viento	1.61
179355	7	Sololá	712	San Antonio Palopó	9	San Antonio Palopo	6	Junio	2023-06-26T00:00:00	2024-11-08T20:00:00	1	Precipitación	0
179356	7	Sololá	712	San Antonio Palopó	9	San Antonio Palopo	6	Junio	2023-06-26T00:00:00	2024-11-08T20:00:00	8	Radiación solar	0
179357	7	Sololá	712	San Antonio Palopó	9	San Antonio Palopo	6	Junio	2023-06-26T00:00:00	2024-11-08T21:00:00	2	Temperatura media	21.1
179358	7	Sololá	712	San Antonio Palopó	9	San Antonio Palopo	6	Junio	2023-06-26T00:00:00	2024-11-08T21:00:00	4	Temperatura máxima	21.2
179359	7	Sololá	712	San Antonio Palopó	9	San Antonio Palopo	6	Junio	2023-06-26T00:00:00	2024-11-08T21:00:00	3	Temperatura mínima	20.9
179360	7	Sololá	712	San Antonio Palopó	9	San Antonio Palopo	6	Junio	2023-06-26T00:00:00	2024-11-08T21:00:00	5	Humedad	69
179361	7	Sololá	712	San Antonio Palopó	9	San Antonio Palopo	6	Junio	2023-06-26T00:00:00	2024-11-08T21:00:00	6	Velocidad del viento	3.2
179362	7	Sololá	712	San Antonio Palopó	9	San Antonio Palopo	6	Junio	2023-06-26T00:00:00	2024-11-08T21:00:00	7	Dirección del viento	3.22
179363	7	Sololá	712	San Antonio Palopó	9	San Antonio Palopo	6	Junio	2023-06-26T00:00:00	2024-11-08T21:00:00	1	Precipitación	0
179364	7	Sololá	712	San Antonio Palopó	9	San Antonio Palopo	6	Junio	2023-06-26T00:00:00	2024-11-08T21:00:00	8	Radiación solar	0
179365	7	Sololá	712	San Antonio Palopó	9	San Antonio Palopo	6	Junio	2023-06-26T00:00:00	2024-11-08T22:00:00	2	Temperatura media	20.9
179366	7	Sololá	712	San Antonio Palopó	9	San Antonio Palopo	6	Junio	2023-06-26T00:00:00	2024-11-08T22:00:00	4	Temperatura máxima	21.2
179367	7	Sololá	712	San Antonio Palopó	9	San Antonio Palopo	6	Junio	2023-06-26T00:00:00	2024-11-08T22:00:00	3	Temperatura mínima	20.9
179368	7	Sololá	712	San Antonio Palopó	9	San Antonio Palopo	6	Junio	2023-06-26T00:00:00	2024-11-08T22:00:00	5	Humedad	70
179369	7	Sololá	712	San Antonio Palopó	9	San Antonio Palopo	6	Junio	2023-06-26T00:00:00	2024-11-08T22:00:00	6	Velocidad del viento	8
179370	7	Sololá	712	San Antonio Palopó	9	San Antonio Palopo	6	Junio	2023-06-26T00:00:00	2024-11-08T22:00:00	7	Dirección del viento	8.05
179371	7	Sololá	712	San Antonio Palopó	9	San Antonio Palopo	6	Junio	2023-06-26T00:00:00	2024-11-08T22:00:00	1	Precipitación	0
179372	7	Sololá	712	San Antonio Palopó	9	San Antonio Palopo	6	Junio	2023-06-26T00:00:00	2024-11-08T22:00:00	8	Radiación solar	0
179373	7	Sololá	712	San Antonio Palopó	9	San Antonio Palopo	6	Junio	2023-06-26T00:00:00	2024-11-08T23:00:00	2	Temperatura media	20.7
179374	7	Sololá	712	San Antonio Palopó	9	San Antonio Palopo	6	Junio	2023-06-26T00:00:00	2024-11-08T23:00:00	4	Temperatura máxima	21.2
179375	7	Sololá	712	San Antonio Palopó	9	San Antonio Palopo	6	Junio	2023-06-26T00:00:00	2024-11-08T23:00:00	3	Temperatura mínima	20.7
179376	7	Sololá	712	San Antonio Palopó	9	San Antonio Palopo	6	Junio	2023-06-26T00:00:00	2024-11-08T23:00:00	5	Humedad	71
179377	7	Sololá	712	San Antonio Palopó	9	San Antonio Palopo	6	Junio	2023-06-26T00:00:00	2024-11-08T23:00:00	6	Velocidad del viento	6.4
179378	7	Sololá	712	San Antonio Palopó	9	San Antonio Palopo	6	Junio	2023-06-26T00:00:00	2024-11-08T23:00:00	7	Dirección del viento	6.44
179379	7	Sololá	712	San Antonio Palopó	9	San Antonio Palopo	6	Junio	2023-06-26T00:00:00	2024-11-08T23:00:00	1	Precipitación	0
179380	7	Sololá	712	San Antonio Palopó	9	San Antonio Palopo	6	Junio	2023-06-26T00:00:00	2024-11-08T23:00:00	8	Radiación solar	0
179381	7	Sololá	712	San Antonio Palopó	9	San Antonio Palopo	6	Junio	2023-06-27T00:00:00	2024-11-08T00:00:00	2	Temperatura media	20.6
179382	7	Sololá	712	San Antonio Palopó	9	San Antonio Palopo	6	Junio	2023-06-27T00:00:00	2024-11-08T00:00:00	4	Temperatura máxima	20.8
179383	7	Sololá	712	San Antonio Palopó	9	San Antonio Palopo	6	Junio	2023-06-27T00:00:00	2024-11-08T00:00:00	3	Temperatura mínima	20.4
179384	7	Sololá	712	San Antonio Palopó	9	San Antonio Palopo	6	Junio	2023-06-27T00:00:00	2024-11-08T00:00:00	5	Humedad	72
179385	7	Sololá	712	San Antonio Palopó	9	San Antonio Palopo	6	Junio	2023-06-27T00:00:00	2024-11-08T00:00:00	6	Velocidad del viento	4.8
179386	7	Sololá	712	San Antonio Palopó	9	San Antonio Palopo	6	Junio	2023-06-27T00:00:00	2024-11-08T00:00:00	7	Dirección del viento	4.83
179387	7	Sololá	712	San Antonio Palopó	9	San Antonio Palopo	6	Junio	2023-06-27T00:00:00	2024-11-08T00:00:00	1	Precipitación	0
179388	7	Sololá	712	San Antonio Palopó	9	San Antonio Palopo	6	Junio	2023-06-27T00:00:00	2024-11-08T00:00:00	8	Radiación solar	0
179389	7	Sololá	712	San Antonio Palopó	9	San Antonio Palopo	6	Junio	2023-06-27T00:00:00	2024-11-08T01:00:00	2	Temperatura media	19.9
179390	7	Sololá	712	San Antonio Palopó	9	San Antonio Palopo	6	Junio	2023-06-27T00:00:00	2024-11-08T01:00:00	4	Temperatura máxima	20.6
179391	7	Sololá	712	San Antonio Palopó	9	San Antonio Palopo	6	Junio	2023-06-27T00:00:00	2024-11-08T01:00:00	3	Temperatura mínima	19.8
179392	7	Sololá	712	San Antonio Palopó	9	San Antonio Palopo	6	Junio	2023-06-27T00:00:00	2024-11-08T01:00:00	5	Humedad	74
179393	7	Sololá	712	San Antonio Palopó	9	San Antonio Palopo	6	Junio	2023-06-27T00:00:00	2024-11-08T01:00:00	6	Velocidad del viento	4.8
179394	7	Sololá	712	San Antonio Palopó	9	San Antonio Palopo	6	Junio	2023-06-27T00:00:00	2024-11-08T01:00:00	7	Dirección del viento	4.83
179395	7	Sololá	712	San Antonio Palopó	9	San Antonio Palopo	6	Junio	2023-06-27T00:00:00	2024-11-08T01:00:00	1	Precipitación	0
179396	7	Sololá	712	San Antonio Palopó	9	San Antonio Palopo	6	Junio	2023-06-27T00:00:00	2024-11-08T01:00:00	8	Radiación solar	0
179397	7	Sololá	712	San Antonio Palopó	9	San Antonio Palopo	6	Junio	2023-06-27T00:00:00	2024-11-08T02:00:00	2	Temperatura media	20
179398	7	Sololá	712	San Antonio Palopó	9	San Antonio Palopo	6	Junio	2023-06-27T00:00:00	2024-11-08T02:00:00	4	Temperatura máxima	20.4
179399	7	Sololá	712	San Antonio Palopó	9	San Antonio Palopo	6	Junio	2023-06-27T00:00:00	2024-11-08T02:00:00	3	Temperatura mínima	19.9
179400	7	Sololá	712	San Antonio Palopó	9	San Antonio Palopo	6	Junio	2023-06-27T00:00:00	2024-11-08T02:00:00	5	Humedad	73
179401	7	Sololá	712	San Antonio Palopó	9	San Antonio Palopo	6	Junio	2023-06-27T00:00:00	2024-11-08T02:00:00	6	Velocidad del viento	8
179402	7	Sololá	712	San Antonio Palopó	9	San Antonio Palopo	6	Junio	2023-06-27T00:00:00	2024-11-08T02:00:00	7	Dirección del viento	8.05
179403	7	Sololá	712	San Antonio Palopó	9	San Antonio Palopo	6	Junio	2023-06-27T00:00:00	2024-11-08T02:00:00	1	Precipitación	0
179404	7	Sololá	712	San Antonio Palopó	9	San Antonio Palopo	6	Junio	2023-06-27T00:00:00	2024-11-08T02:00:00	8	Radiación solar	0
179405	7	Sololá	712	San Antonio Palopó	9	San Antonio Palopo	6	Junio	2023-06-27T00:00:00	2024-11-08T03:00:00	2	Temperatura media	19.8
179406	7	Sololá	712	San Antonio Palopó	9	San Antonio Palopo	6	Junio	2023-06-27T00:00:00	2024-11-08T03:00:00	4	Temperatura máxima	20.1
179407	7	Sololá	712	San Antonio Palopó	9	San Antonio Palopo	6	Junio	2023-06-27T00:00:00	2024-11-08T03:00:00	3	Temperatura mínima	19.7
179408	7	Sololá	712	San Antonio Palopó	9	San Antonio Palopo	6	Junio	2023-06-27T00:00:00	2024-11-08T03:00:00	5	Humedad	73
179409	7	Sololá	712	San Antonio Palopó	9	San Antonio Palopo	6	Junio	2023-06-27T00:00:00	2024-11-08T03:00:00	6	Velocidad del viento	8
179410	7	Sololá	712	San Antonio Palopó	9	San Antonio Palopo	6	Junio	2023-06-27T00:00:00	2024-11-08T03:00:00	7	Dirección del viento	8.05
179411	7	Sololá	712	San Antonio Palopó	9	San Antonio Palopo	6	Junio	2023-06-27T00:00:00	2024-11-08T03:00:00	1	Precipitación	0
179412	7	Sololá	712	San Antonio Palopó	9	San Antonio Palopo	6	Junio	2023-06-27T00:00:00	2024-11-08T03:00:00	8	Radiación solar	0
179413	7	Sololá	712	San Antonio Palopó	9	San Antonio Palopo	6	Junio	2023-06-27T00:00:00	2024-11-08T04:00:00	2	Temperatura media	20
179414	7	Sololá	712	San Antonio Palopó	9	San Antonio Palopo	6	Junio	2023-06-27T00:00:00	2024-11-08T04:00:00	4	Temperatura máxima	20.7
179415	7	Sololá	712	San Antonio Palopó	9	San Antonio Palopo	6	Junio	2023-06-27T00:00:00	2024-11-08T04:00:00	3	Temperatura mínima	19.7
179416	7	Sololá	712	San Antonio Palopó	9	San Antonio Palopo	6	Junio	2023-06-27T00:00:00	2024-11-08T04:00:00	5	Humedad	71
179417	7	Sololá	712	San Antonio Palopó	9	San Antonio Palopo	6	Junio	2023-06-27T00:00:00	2024-11-08T04:00:00	6	Velocidad del viento	8
179418	7	Sololá	712	San Antonio Palopó	9	San Antonio Palopo	6	Junio	2023-06-27T00:00:00	2024-11-08T04:00:00	7	Dirección del viento	8.05
179419	7	Sololá	712	San Antonio Palopó	9	San Antonio Palopo	6	Junio	2023-06-27T00:00:00	2024-11-08T04:00:00	1	Precipitación	0
179420	7	Sololá	712	San Antonio Palopó	9	San Antonio Palopo	6	Junio	2023-06-27T00:00:00	2024-11-08T04:00:00	8	Radiación solar	0
179421	7	Sololá	712	San Antonio Palopó	9	San Antonio Palopo	6	Junio	2023-06-27T00:00:00	2024-11-08T05:00:00	2	Temperatura media	20.4
179422	7	Sololá	712	San Antonio Palopó	9	San Antonio Palopo	6	Junio	2023-06-27T00:00:00	2024-11-08T05:00:00	4	Temperatura máxima	20.5
179423	7	Sololá	712	San Antonio Palopó	9	San Antonio Palopo	6	Junio	2023-06-27T00:00:00	2024-11-08T05:00:00	3	Temperatura mínima	19.9
179424	7	Sololá	712	San Antonio Palopó	9	San Antonio Palopo	6	Junio	2023-06-27T00:00:00	2024-11-08T05:00:00	5	Humedad	69
179425	7	Sololá	712	San Antonio Palopó	9	San Antonio Palopo	6	Junio	2023-06-27T00:00:00	2024-11-08T05:00:00	6	Velocidad del viento	8
179426	7	Sololá	712	San Antonio Palopó	9	San Antonio Palopo	6	Junio	2023-06-27T00:00:00	2024-11-08T05:00:00	7	Dirección del viento	8.05
179427	7	Sololá	712	San Antonio Palopó	9	San Antonio Palopo	6	Junio	2023-06-27T00:00:00	2024-11-08T05:00:00	1	Precipitación	0
179428	7	Sololá	712	San Antonio Palopó	9	San Antonio Palopo	6	Junio	2023-06-27T00:00:00	2024-11-08T05:00:00	8	Radiación solar	0
179429	7	Sololá	712	San Antonio Palopó	9	San Antonio Palopo	6	Junio	2023-06-27T00:00:00	2024-11-08T06:00:00	2	Temperatura media	20.3
179430	7	Sololá	712	San Antonio Palopó	9	San Antonio Palopo	6	Junio	2023-06-27T00:00:00	2024-11-08T06:00:00	4	Temperatura máxima	20.6
179431	7	Sololá	712	San Antonio Palopó	9	San Antonio Palopo	6	Junio	2023-06-27T00:00:00	2024-11-08T06:00:00	3	Temperatura mínima	20.3
179432	7	Sololá	712	San Antonio Palopó	9	San Antonio Palopo	6	Junio	2023-06-27T00:00:00	2024-11-08T06:00:00	5	Humedad	66
179433	7	Sololá	712	San Antonio Palopó	9	San Antonio Palopo	6	Junio	2023-06-27T00:00:00	2024-11-08T06:00:00	6	Velocidad del viento	4.8
179434	7	Sololá	712	San Antonio Palopó	9	San Antonio Palopo	6	Junio	2023-06-27T00:00:00	2024-11-08T06:00:00	7	Dirección del viento	4.83
179435	7	Sololá	712	San Antonio Palopó	9	San Antonio Palopo	6	Junio	2023-06-27T00:00:00	2024-11-08T06:00:00	1	Precipitación	0
179436	7	Sololá	712	San Antonio Palopó	9	San Antonio Palopo	6	Junio	2023-06-27T00:00:00	2024-11-08T06:00:00	8	Radiación solar	3
179437	7	Sololá	712	San Antonio Palopó	9	San Antonio Palopo	6	Junio	2023-06-27T00:00:00	2024-11-08T07:00:00	2	Temperatura media	20.6
179438	7	Sololá	712	San Antonio Palopó	9	San Antonio Palopo	6	Junio	2023-06-27T00:00:00	2024-11-08T07:00:00	4	Temperatura máxima	20.8
179439	7	Sololá	712	San Antonio Palopó	9	San Antonio Palopo	6	Junio	2023-06-27T00:00:00	2024-11-08T07:00:00	3	Temperatura mínima	20.1
179440	7	Sololá	712	San Antonio Palopó	9	San Antonio Palopo	6	Junio	2023-06-27T00:00:00	2024-11-08T07:00:00	5	Humedad	68
179441	7	Sololá	712	San Antonio Palopó	9	San Antonio Palopo	6	Junio	2023-06-27T00:00:00	2024-11-08T07:00:00	6	Velocidad del viento	4.8
179442	7	Sololá	712	San Antonio Palopó	9	San Antonio Palopo	6	Junio	2023-06-27T00:00:00	2024-11-08T07:00:00	7	Dirección del viento	4.83
179443	7	Sololá	712	San Antonio Palopó	9	San Antonio Palopo	6	Junio	2023-06-27T00:00:00	2024-11-08T07:00:00	1	Precipitación	0
179444	7	Sololá	712	San Antonio Palopó	9	San Antonio Palopo	6	Junio	2023-06-27T00:00:00	2024-11-08T07:00:00	8	Radiación solar	49
179445	7	Sololá	712	San Antonio Palopó	9	San Antonio Palopo	6	Junio	2023-06-27T00:00:00	2024-11-08T08:00:00	2	Temperatura media	22.4
179446	7	Sololá	712	San Antonio Palopó	9	San Antonio Palopo	6	Junio	2023-06-27T00:00:00	2024-11-08T08:00:00	4	Temperatura máxima	22.4
179447	7	Sololá	712	San Antonio Palopó	9	San Antonio Palopo	6	Junio	2023-06-27T00:00:00	2024-11-08T08:00:00	3	Temperatura mínima	20.6
179448	7	Sololá	712	San Antonio Palopó	9	San Antonio Palopo	6	Junio	2023-06-27T00:00:00	2024-11-08T08:00:00	5	Humedad	65
179449	7	Sololá	712	San Antonio Palopó	9	San Antonio Palopo	6	Junio	2023-06-27T00:00:00	2024-11-08T08:00:00	6	Velocidad del viento	3.2
179450	7	Sololá	712	San Antonio Palopó	9	San Antonio Palopo	6	Junio	2023-06-27T00:00:00	2024-11-08T08:00:00	7	Dirección del viento	3.22
179451	7	Sololá	712	San Antonio Palopó	9	San Antonio Palopo	6	Junio	2023-06-27T00:00:00	2024-11-08T08:00:00	1	Precipitación	0
179452	7	Sololá	712	San Antonio Palopó	9	San Antonio Palopo	6	Junio	2023-06-27T00:00:00	2024-11-08T08:00:00	8	Radiación solar	230
179453	7	Sololá	712	San Antonio Palopó	9	San Antonio Palopo	6	Junio	2023-06-27T00:00:00	2024-11-08T09:00:00	2	Temperatura media	24.9
179454	7	Sololá	712	San Antonio Palopó	9	San Antonio Palopo	6	Junio	2023-06-27T00:00:00	2024-11-08T09:00:00	4	Temperatura máxima	25
179455	7	Sololá	712	San Antonio Palopó	9	San Antonio Palopo	6	Junio	2023-06-27T00:00:00	2024-11-08T09:00:00	3	Temperatura mínima	22.4
179456	7	Sololá	712	San Antonio Palopó	9	San Antonio Palopo	6	Junio	2023-06-27T00:00:00	2024-11-08T09:00:00	5	Humedad	55
179457	7	Sololá	712	San Antonio Palopó	9	San Antonio Palopo	6	Junio	2023-06-27T00:00:00	2024-11-08T09:00:00	6	Velocidad del viento	1.6
179458	7	Sololá	712	San Antonio Palopó	9	San Antonio Palopo	6	Junio	2023-06-27T00:00:00	2024-11-08T09:00:00	7	Dirección del viento	1.61
179459	7	Sololá	712	San Antonio Palopó	9	San Antonio Palopo	6	Junio	2023-06-27T00:00:00	2024-11-08T09:00:00	1	Precipitación	0
179460	7	Sololá	712	San Antonio Palopó	9	San Antonio Palopo	6	Junio	2023-06-27T00:00:00	2024-11-08T09:00:00	8	Radiación solar	552
179461	7	Sololá	712	San Antonio Palopó	9	San Antonio Palopo	6	Junio	2023-06-27T00:00:00	2024-11-08T10:00:00	2	Temperatura media	24.1
179462	7	Sololá	712	San Antonio Palopó	9	San Antonio Palopo	6	Junio	2023-06-27T00:00:00	2024-11-08T10:00:00	4	Temperatura máxima	25
179463	7	Sololá	712	San Antonio Palopó	9	San Antonio Palopo	6	Junio	2023-06-27T00:00:00	2024-11-08T10:00:00	3	Temperatura mínima	24.1
179464	7	Sololá	712	San Antonio Palopó	9	San Antonio Palopo	6	Junio	2023-06-27T00:00:00	2024-11-08T10:00:00	5	Humedad	68
179465	7	Sololá	712	San Antonio Palopó	9	San Antonio Palopo	6	Junio	2023-06-27T00:00:00	2024-11-08T10:00:00	6	Velocidad del viento	4.8
179466	7	Sololá	712	San Antonio Palopó	9	San Antonio Palopo	6	Junio	2023-06-27T00:00:00	2024-11-08T10:00:00	7	Dirección del viento	4.83
179467	7	Sololá	712	San Antonio Palopó	9	San Antonio Palopo	6	Junio	2023-06-27T00:00:00	2024-11-08T10:00:00	1	Precipitación	0
179468	7	Sololá	712	San Antonio Palopó	9	San Antonio Palopo	6	Junio	2023-06-27T00:00:00	2024-11-08T10:00:00	8	Radiación solar	767
179469	7	Sololá	712	San Antonio Palopó	9	San Antonio Palopo	6	Junio	2023-06-27T00:00:00	2024-11-08T11:00:00	2	Temperatura media	24.1
179470	7	Sololá	712	San Antonio Palopó	9	San Antonio Palopo	6	Junio	2023-06-27T00:00:00	2024-11-08T11:00:00	4	Temperatura máxima	25.1
179471	7	Sololá	712	San Antonio Palopó	9	San Antonio Palopo	6	Junio	2023-06-27T00:00:00	2024-11-08T11:00:00	3	Temperatura mínima	23.3
179472	7	Sololá	712	San Antonio Palopó	9	San Antonio Palopo	6	Junio	2023-06-27T00:00:00	2024-11-08T11:00:00	5	Humedad	60
179473	7	Sololá	712	San Antonio Palopó	9	San Antonio Palopo	6	Junio	2023-06-27T00:00:00	2024-11-08T11:00:00	6	Velocidad del viento	3.2
179474	7	Sololá	712	San Antonio Palopó	9	San Antonio Palopo	6	Junio	2023-06-27T00:00:00	2024-11-08T11:00:00	7	Dirección del viento	3.22
179475	7	Sololá	712	San Antonio Palopó	9	San Antonio Palopo	6	Junio	2023-06-27T00:00:00	2024-11-08T11:00:00	1	Precipitación	0
179476	7	Sololá	712	San Antonio Palopó	9	San Antonio Palopo	6	Junio	2023-06-27T00:00:00	2024-11-08T11:00:00	8	Radiación solar	866
179477	7	Sololá	712	San Antonio Palopó	9	San Antonio Palopo	6	Junio	2023-06-27T00:00:00	2024-11-08T12:00:00	2	Temperatura media	24.5
179478	7	Sololá	712	San Antonio Palopó	9	San Antonio Palopo	6	Junio	2023-06-27T00:00:00	2024-11-08T12:00:00	4	Temperatura máxima	24.8
179479	7	Sololá	712	San Antonio Palopó	9	San Antonio Palopo	6	Junio	2023-06-27T00:00:00	2024-11-08T12:00:00	3	Temperatura mínima	24.1
179480	7	Sololá	712	San Antonio Palopó	9	San Antonio Palopo	6	Junio	2023-06-27T00:00:00	2024-11-08T12:00:00	5	Humedad	60
179481	7	Sololá	712	San Antonio Palopó	9	San Antonio Palopo	6	Junio	2023-06-27T00:00:00	2024-11-08T12:00:00	6	Velocidad del viento	4.8
179482	7	Sololá	712	San Antonio Palopó	9	San Antonio Palopo	6	Junio	2023-06-27T00:00:00	2024-11-08T12:00:00	7	Dirección del viento	4.83
179483	7	Sololá	712	San Antonio Palopó	9	San Antonio Palopo	6	Junio	2023-06-27T00:00:00	2024-11-08T12:00:00	1	Precipitación	0
179484	7	Sololá	712	San Antonio Palopó	9	San Antonio Palopo	6	Junio	2023-06-27T00:00:00	2024-11-08T12:00:00	8	Radiación solar	860
179485	7	Sololá	712	San Antonio Palopó	9	San Antonio Palopo	6	Junio	2023-06-27T00:00:00	2024-11-08T13:00:00	2	Temperatura media	24.1
179486	7	Sololá	712	San Antonio Palopó	9	San Antonio Palopo	6	Junio	2023-06-27T00:00:00	2024-11-08T13:00:00	4	Temperatura máxima	24.5
179487	7	Sololá	712	San Antonio Palopó	9	San Antonio Palopo	6	Junio	2023-06-27T00:00:00	2024-11-08T13:00:00	3	Temperatura mínima	23.4
179488	7	Sololá	712	San Antonio Palopó	9	San Antonio Palopo	6	Junio	2023-06-27T00:00:00	2024-11-08T13:00:00	5	Humedad	70
179489	7	Sololá	712	San Antonio Palopó	9	San Antonio Palopo	6	Junio	2023-06-27T00:00:00	2024-11-08T13:00:00	6	Velocidad del viento	4.8
179490	7	Sololá	712	San Antonio Palopó	9	San Antonio Palopo	6	Junio	2023-06-27T00:00:00	2024-11-08T13:00:00	7	Dirección del viento	4.83
179491	7	Sololá	712	San Antonio Palopó	9	San Antonio Palopo	6	Junio	2023-06-27T00:00:00	2024-11-08T13:00:00	1	Precipitación	0
179492	7	Sololá	712	San Antonio Palopó	9	San Antonio Palopo	6	Junio	2023-06-27T00:00:00	2024-11-08T13:00:00	8	Radiación solar	730
179493	7	Sololá	712	San Antonio Palopó	9	San Antonio Palopo	6	Junio	2023-06-27T00:00:00	2024-11-08T14:00:00	2	Temperatura media	22.9
179494	7	Sololá	712	San Antonio Palopó	9	San Antonio Palopo	6	Junio	2023-06-27T00:00:00	2024-11-08T14:00:00	4	Temperatura máxima	24.1
179495	7	Sololá	712	San Antonio Palopó	9	San Antonio Palopo	6	Junio	2023-06-27T00:00:00	2024-11-08T14:00:00	3	Temperatura mínima	22.9
179496	7	Sololá	712	San Antonio Palopó	9	San Antonio Palopo	6	Junio	2023-06-27T00:00:00	2024-11-08T14:00:00	5	Humedad	75
179497	7	Sololá	712	San Antonio Palopó	9	San Antonio Palopo	6	Junio	2023-06-27T00:00:00	2024-11-08T14:00:00	6	Velocidad del viento	3.2
179498	7	Sololá	712	San Antonio Palopó	9	San Antonio Palopo	6	Junio	2023-06-27T00:00:00	2024-11-08T14:00:00	7	Dirección del viento	3.22
179499	7	Sololá	712	San Antonio Palopó	9	San Antonio Palopo	6	Junio	2023-06-27T00:00:00	2024-11-08T14:00:00	1	Precipitación	0
179500	7	Sololá	712	San Antonio Palopó	9	San Antonio Palopo	6	Junio	2023-06-27T00:00:00	2024-11-08T14:00:00	8	Radiación solar	379
179501	7	Sololá	712	San Antonio Palopó	9	San Antonio Palopo	6	Junio	2023-06-27T00:00:00	2024-11-08T15:00:00	2	Temperatura media	21.9
179502	7	Sololá	712	San Antonio Palopó	9	San Antonio Palopo	6	Junio	2023-06-27T00:00:00	2024-11-08T15:00:00	4	Temperatura máxima	24.2
179503	7	Sololá	712	San Antonio Palopó	9	San Antonio Palopo	6	Junio	2023-06-27T00:00:00	2024-11-08T15:00:00	3	Temperatura mínima	21.9
179504	7	Sololá	712	San Antonio Palopó	9	San Antonio Palopo	6	Junio	2023-06-27T00:00:00	2024-11-08T15:00:00	5	Humedad	80
179505	7	Sololá	712	San Antonio Palopó	9	San Antonio Palopo	6	Junio	2023-06-27T00:00:00	2024-11-08T15:00:00	6	Velocidad del viento	4.8
179506	7	Sololá	712	San Antonio Palopó	9	San Antonio Palopo	6	Junio	2023-06-27T00:00:00	2024-11-08T15:00:00	7	Dirección del viento	4.83
179507	7	Sololá	712	San Antonio Palopó	9	San Antonio Palopo	6	Junio	2023-06-27T00:00:00	2024-11-08T15:00:00	1	Precipitación	0
179508	7	Sololá	712	San Antonio Palopó	9	San Antonio Palopo	6	Junio	2023-06-27T00:00:00	2024-11-08T15:00:00	8	Radiación solar	201
179509	7	Sololá	712	San Antonio Palopó	9	San Antonio Palopo	6	Junio	2023-06-27T00:00:00	2024-11-08T16:00:00	2	Temperatura media	20.2
179510	7	Sololá	712	San Antonio Palopó	9	San Antonio Palopo	6	Junio	2023-06-27T00:00:00	2024-11-08T16:00:00	4	Temperatura máxima	21.9
179511	7	Sololá	712	San Antonio Palopó	9	San Antonio Palopo	6	Junio	2023-06-27T00:00:00	2024-11-08T16:00:00	3	Temperatura mínima	20.1
179512	7	Sololá	712	San Antonio Palopó	9	San Antonio Palopo	6	Junio	2023-06-27T00:00:00	2024-11-08T16:00:00	5	Humedad	84
179513	7	Sololá	712	San Antonio Palopó	9	San Antonio Palopo	6	Junio	2023-06-27T00:00:00	2024-11-08T16:00:00	6	Velocidad del viento	6.4
179514	7	Sololá	712	San Antonio Palopó	9	San Antonio Palopo	6	Junio	2023-06-27T00:00:00	2024-11-08T16:00:00	7	Dirección del viento	6.44
179515	7	Sololá	712	San Antonio Palopó	9	San Antonio Palopo	6	Junio	2023-06-27T00:00:00	2024-11-08T16:00:00	1	Precipitación	0
179516	7	Sololá	712	San Antonio Palopó	9	San Antonio Palopo	6	Junio	2023-06-27T00:00:00	2024-11-08T16:00:00	8	Radiación solar	187
179517	7	Sololá	712	San Antonio Palopó	9	San Antonio Palopo	6	Junio	2023-06-27T00:00:00	2024-11-08T17:00:00	2	Temperatura media	19.7
179518	7	Sololá	712	San Antonio Palopó	9	San Antonio Palopo	6	Junio	2023-06-27T00:00:00	2024-11-08T17:00:00	4	Temperatura máxima	20.3
179519	7	Sololá	712	San Antonio Palopó	9	San Antonio Palopo	6	Junio	2023-06-27T00:00:00	2024-11-08T17:00:00	3	Temperatura mínima	19.7
179520	7	Sololá	712	San Antonio Palopó	9	San Antonio Palopo	6	Junio	2023-06-27T00:00:00	2024-11-08T17:00:00	5	Humedad	86
179521	7	Sololá	712	San Antonio Palopó	9	San Antonio Palopo	6	Junio	2023-06-27T00:00:00	2024-11-08T17:00:00	6	Velocidad del viento	3.2
179522	7	Sololá	712	San Antonio Palopó	9	San Antonio Palopo	6	Junio	2023-06-27T00:00:00	2024-11-08T17:00:00	7	Dirección del viento	3.22
179523	7	Sololá	712	San Antonio Palopó	9	San Antonio Palopo	6	Junio	2023-06-27T00:00:00	2024-11-08T17:00:00	1	Precipitación	0
179524	7	Sololá	712	San Antonio Palopó	9	San Antonio Palopo	6	Junio	2023-06-27T00:00:00	2024-11-08T17:00:00	8	Radiación solar	72
179525	7	Sololá	712	San Antonio Palopó	9	San Antonio Palopo	6	Junio	2023-06-27T00:00:00	2024-11-08T18:00:00	2	Temperatura media	18.9
179526	7	Sololá	712	San Antonio Palopó	9	San Antonio Palopo	6	Junio	2023-06-27T00:00:00	2024-11-08T18:00:00	4	Temperatura máxima	19.8
179527	7	Sololá	712	San Antonio Palopó	9	San Antonio Palopo	6	Junio	2023-06-27T00:00:00	2024-11-08T18:00:00	3	Temperatura mínima	18.9
179528	7	Sololá	712	San Antonio Palopó	9	San Antonio Palopo	6	Junio	2023-06-27T00:00:00	2024-11-08T18:00:00	5	Humedad	91
179529	7	Sololá	712	San Antonio Palopó	9	San Antonio Palopo	6	Junio	2023-06-27T00:00:00	2024-11-08T18:00:00	6	Velocidad del viento	1.6
179530	7	Sololá	712	San Antonio Palopó	9	San Antonio Palopo	6	Junio	2023-06-27T00:00:00	2024-11-08T18:00:00	7	Dirección del viento	1.61
179531	7	Sololá	712	San Antonio Palopó	9	San Antonio Palopo	6	Junio	2023-06-27T00:00:00	2024-11-08T18:00:00	1	Precipitación	2.8
179532	7	Sololá	712	San Antonio Palopó	9	San Antonio Palopo	6	Junio	2023-06-27T00:00:00	2024-11-08T18:00:00	8	Radiación solar	65
179533	7	Sololá	712	San Antonio Palopó	9	San Antonio Palopo	6	Junio	2023-06-27T00:00:00	2024-11-08T19:00:00	2	Temperatura media	19.2
179534	7	Sololá	712	San Antonio Palopó	9	San Antonio Palopo	6	Junio	2023-06-27T00:00:00	2024-11-08T19:00:00	4	Temperatura máxima	19.2
179535	7	Sololá	712	San Antonio Palopó	9	San Antonio Palopo	6	Junio	2023-06-27T00:00:00	2024-11-08T19:00:00	3	Temperatura mínima	18.9
179536	7	Sololá	712	San Antonio Palopó	9	San Antonio Palopo	6	Junio	2023-06-27T00:00:00	2024-11-08T19:00:00	5	Humedad	90
179537	7	Sololá	712	San Antonio Palopó	9	San Antonio Palopo	6	Junio	2023-06-27T00:00:00	2024-11-08T19:00:00	6	Velocidad del viento	0
179538	7	Sololá	712	San Antonio Palopó	9	San Antonio Palopo	6	Junio	2023-06-27T00:00:00	2024-11-08T19:00:00	7	Dirección del viento	0
179539	7	Sololá	712	San Antonio Palopó	9	San Antonio Palopo	6	Junio	2023-06-27T00:00:00	2024-11-08T19:00:00	1	Precipitación	0
179540	7	Sololá	712	San Antonio Palopó	9	San Antonio Palopo	6	Junio	2023-06-27T00:00:00	2024-11-08T19:00:00	8	Radiación solar	0
179541	7	Sololá	712	San Antonio Palopó	9	San Antonio Palopo	6	Junio	2023-06-27T00:00:00	2024-11-08T20:00:00	2	Temperatura media	18.5
179542	7	Sololá	712	San Antonio Palopó	9	San Antonio Palopo	6	Junio	2023-06-27T00:00:00	2024-11-08T20:00:00	4	Temperatura máxima	19.2
179543	7	Sololá	712	San Antonio Palopó	9	San Antonio Palopo	6	Junio	2023-06-27T00:00:00	2024-11-08T20:00:00	3	Temperatura mínima	18.5
179544	7	Sololá	712	San Antonio Palopó	9	San Antonio Palopo	6	Junio	2023-06-27T00:00:00	2024-11-08T20:00:00	5	Humedad	91
179545	7	Sololá	712	San Antonio Palopó	9	San Antonio Palopo	6	Junio	2023-06-27T00:00:00	2024-11-08T20:00:00	6	Velocidad del viento	0
179546	7	Sololá	712	San Antonio Palopó	9	San Antonio Palopo	6	Junio	2023-06-27T00:00:00	2024-11-08T20:00:00	7	Dirección del viento	0
179547	7	Sololá	712	San Antonio Palopó	9	San Antonio Palopo	6	Junio	2023-06-27T00:00:00	2024-11-08T20:00:00	1	Precipitación	2.4
179548	7	Sololá	712	San Antonio Palopó	9	San Antonio Palopo	6	Junio	2023-06-27T00:00:00	2024-11-08T20:00:00	8	Radiación solar	0
179549	7	Sololá	712	San Antonio Palopó	9	San Antonio Palopo	6	Junio	2023-06-27T00:00:00	2024-11-08T21:00:00	2	Temperatura media	18.4
179550	7	Sololá	712	San Antonio Palopó	9	San Antonio Palopo	6	Junio	2023-06-27T00:00:00	2024-11-08T21:00:00	4	Temperatura máxima	18.6
179551	7	Sololá	712	San Antonio Palopó	9	San Antonio Palopo	6	Junio	2023-06-27T00:00:00	2024-11-08T21:00:00	3	Temperatura mínima	18.3
179552	7	Sololá	712	San Antonio Palopó	9	San Antonio Palopo	6	Junio	2023-06-27T00:00:00	2024-11-08T21:00:00	5	Humedad	92
179553	7	Sololá	712	San Antonio Palopó	9	San Antonio Palopo	6	Junio	2023-06-27T00:00:00	2024-11-08T21:00:00	6	Velocidad del viento	0
179554	7	Sololá	712	San Antonio Palopó	9	San Antonio Palopo	6	Junio	2023-06-27T00:00:00	2024-11-08T21:00:00	7	Dirección del viento	0
179555	7	Sololá	712	San Antonio Palopó	9	San Antonio Palopo	6	Junio	2023-06-27T00:00:00	2024-11-08T21:00:00	1	Precipitación	0.4
179556	7	Sololá	712	San Antonio Palopó	9	San Antonio Palopo	6	Junio	2023-06-27T00:00:00	2024-11-08T21:00:00	8	Radiación solar	0
179557	7	Sololá	712	San Antonio Palopó	9	San Antonio Palopo	6	Junio	2023-06-27T00:00:00	2024-11-08T22:00:00	2	Temperatura media	18.7
179558	7	Sololá	712	San Antonio Palopó	9	San Antonio Palopo	6	Junio	2023-06-27T00:00:00	2024-11-08T22:00:00	4	Temperatura máxima	18.7
179559	7	Sololá	712	San Antonio Palopó	9	San Antonio Palopo	6	Junio	2023-06-27T00:00:00	2024-11-08T22:00:00	3	Temperatura mínima	18.4
179560	7	Sololá	712	San Antonio Palopó	9	San Antonio Palopo	6	Junio	2023-06-27T00:00:00	2024-11-08T22:00:00	5	Humedad	89
179561	7	Sololá	712	San Antonio Palopó	9	San Antonio Palopo	6	Junio	2023-06-27T00:00:00	2024-11-08T22:00:00	6	Velocidad del viento	0
179562	7	Sololá	712	San Antonio Palopó	9	San Antonio Palopo	6	Junio	2023-06-27T00:00:00	2024-11-08T22:00:00	7	Dirección del viento	0
179563	7	Sololá	712	San Antonio Palopó	9	San Antonio Palopo	6	Junio	2023-06-27T00:00:00	2024-11-08T22:00:00	1	Precipitación	0
179564	7	Sololá	712	San Antonio Palopó	9	San Antonio Palopo	6	Junio	2023-06-27T00:00:00	2024-11-08T22:00:00	8	Radiación solar	0
179565	7	Sololá	712	San Antonio Palopó	9	San Antonio Palopo	6	Junio	2023-06-27T00:00:00	2024-11-08T23:00:00	2	Temperatura media	18.8
179566	7	Sololá	712	San Antonio Palopó	9	San Antonio Palopo	6	Junio	2023-06-27T00:00:00	2024-11-08T23:00:00	4	Temperatura máxima	18.9
179567	7	Sololá	712	San Antonio Palopó	9	San Antonio Palopo	6	Junio	2023-06-27T00:00:00	2024-11-08T23:00:00	3	Temperatura mínima	18.7
179568	7	Sololá	712	San Antonio Palopó	9	San Antonio Palopo	6	Junio	2023-06-27T00:00:00	2024-11-08T23:00:00	5	Humedad	88
179569	7	Sololá	712	San Antonio Palopó	9	San Antonio Palopo	6	Junio	2023-06-27T00:00:00	2024-11-08T23:00:00	6	Velocidad del viento	0
179570	7	Sololá	712	San Antonio Palopó	9	San Antonio Palopo	6	Junio	2023-06-27T00:00:00	2024-11-08T23:00:00	7	Dirección del viento	0
179571	7	Sololá	712	San Antonio Palopó	9	San Antonio Palopo	6	Junio	2023-06-27T00:00:00	2024-11-08T23:00:00	1	Precipitación	0
179572	7	Sololá	712	San Antonio Palopó	9	San Antonio Palopo	6	Junio	2023-06-27T00:00:00	2024-11-08T23:00:00	8	Radiación solar	0
179573	7	Sololá	712	San Antonio Palopó	9	San Antonio Palopo	6	Junio	2023-06-28T00:00:00	2024-11-08T00:00:00	2	Temperatura media	18.9
179574	7	Sololá	712	San Antonio Palopó	9	San Antonio Palopo	6	Junio	2023-06-28T00:00:00	2024-11-08T00:00:00	4	Temperatura máxima	18.9
179575	7	Sololá	712	San Antonio Palopó	9	San Antonio Palopo	6	Junio	2023-06-28T00:00:00	2024-11-08T00:00:00	3	Temperatura mínima	18.8
179576	7	Sololá	712	San Antonio Palopó	9	San Antonio Palopo	6	Junio	2023-06-28T00:00:00	2024-11-08T00:00:00	5	Humedad	85
179577	7	Sololá	712	San Antonio Palopó	9	San Antonio Palopo	6	Junio	2023-06-28T00:00:00	2024-11-08T00:00:00	6	Velocidad del viento	1.6
179578	7	Sololá	712	San Antonio Palopó	9	San Antonio Palopo	6	Junio	2023-06-28T00:00:00	2024-11-08T00:00:00	7	Dirección del viento	1.61
179579	7	Sololá	712	San Antonio Palopó	9	San Antonio Palopo	6	Junio	2023-06-28T00:00:00	2024-11-08T00:00:00	1	Precipitación	0
179580	7	Sololá	712	San Antonio Palopó	9	San Antonio Palopo	6	Junio	2023-06-28T00:00:00	2024-11-08T00:00:00	8	Radiación solar	0
179581	7	Sololá	712	San Antonio Palopó	9	San Antonio Palopo	6	Junio	2023-06-28T00:00:00	2024-11-08T01:00:00	2	Temperatura media	18.8
179582	7	Sololá	712	San Antonio Palopó	9	San Antonio Palopo	6	Junio	2023-06-28T00:00:00	2024-11-08T01:00:00	4	Temperatura máxima	19.1
179583	7	Sololá	712	San Antonio Palopó	9	San Antonio Palopo	6	Junio	2023-06-28T00:00:00	2024-11-08T01:00:00	3	Temperatura mínima	18.7
179584	7	Sololá	712	San Antonio Palopó	9	San Antonio Palopo	6	Junio	2023-06-28T00:00:00	2024-11-08T01:00:00	5	Humedad	87
179585	7	Sololá	712	San Antonio Palopó	9	San Antonio Palopo	6	Junio	2023-06-28T00:00:00	2024-11-08T01:00:00	6	Velocidad del viento	0
179586	7	Sololá	712	San Antonio Palopó	9	San Antonio Palopo	6	Junio	2023-06-28T00:00:00	2024-11-08T01:00:00	7	Dirección del viento	0
179587	7	Sololá	712	San Antonio Palopó	9	San Antonio Palopo	6	Junio	2023-06-28T00:00:00	2024-11-08T01:00:00	1	Precipitación	0
179588	7	Sololá	712	San Antonio Palopó	9	San Antonio Palopo	6	Junio	2023-06-28T00:00:00	2024-11-08T01:00:00	8	Radiación solar	0
179589	7	Sololá	712	San Antonio Palopó	9	San Antonio Palopo	6	Junio	2023-06-28T00:00:00	2024-11-08T02:00:00	2	Temperatura media	18.8
179590	7	Sololá	712	San Antonio Palopó	9	San Antonio Palopo	6	Junio	2023-06-28T00:00:00	2024-11-08T02:00:00	4	Temperatura máxima	18.9
179591	7	Sololá	712	San Antonio Palopó	9	San Antonio Palopo	6	Junio	2023-06-28T00:00:00	2024-11-08T02:00:00	3	Temperatura mínima	18.8
179592	7	Sololá	712	San Antonio Palopó	9	San Antonio Palopo	6	Junio	2023-06-28T00:00:00	2024-11-08T02:00:00	5	Humedad	89
179593	7	Sololá	712	San Antonio Palopó	9	San Antonio Palopo	6	Junio	2023-06-28T00:00:00	2024-11-08T02:00:00	6	Velocidad del viento	0
179594	7	Sololá	712	San Antonio Palopó	9	San Antonio Palopo	6	Junio	2023-06-28T00:00:00	2024-11-08T02:00:00	7	Dirección del viento	0
179595	7	Sololá	712	San Antonio Palopó	9	San Antonio Palopo	6	Junio	2023-06-28T00:00:00	2024-11-08T02:00:00	1	Precipitación	0
179596	7	Sololá	712	San Antonio Palopó	9	San Antonio Palopo	6	Junio	2023-06-28T00:00:00	2024-11-08T02:00:00	8	Radiación solar	0
179597	7	Sololá	712	San Antonio Palopó	9	San Antonio Palopo	6	Junio	2023-06-28T00:00:00	2024-11-08T03:00:00	2	Temperatura media	18.1
179598	7	Sololá	712	San Antonio Palopó	9	San Antonio Palopo	6	Junio	2023-06-28T00:00:00	2024-11-08T03:00:00	4	Temperatura máxima	18.8
179599	7	Sololá	712	San Antonio Palopó	9	San Antonio Palopo	6	Junio	2023-06-28T00:00:00	2024-11-08T03:00:00	3	Temperatura mínima	18.1
179600	7	Sololá	712	San Antonio Palopó	9	San Antonio Palopo	6	Junio	2023-06-28T00:00:00	2024-11-08T03:00:00	5	Humedad	90
179601	7	Sololá	712	San Antonio Palopó	9	San Antonio Palopo	6	Junio	2023-06-28T00:00:00	2024-11-08T03:00:00	6	Velocidad del viento	1.6
179602	7	Sololá	712	San Antonio Palopó	9	San Antonio Palopo	6	Junio	2023-06-28T00:00:00	2024-11-08T03:00:00	7	Dirección del viento	1.61
179603	7	Sololá	712	San Antonio Palopó	9	San Antonio Palopo	6	Junio	2023-06-28T00:00:00	2024-11-08T03:00:00	1	Precipitación	0.8
179604	7	Sololá	712	San Antonio Palopó	9	San Antonio Palopo	6	Junio	2023-06-28T00:00:00	2024-11-08T03:00:00	8	Radiación solar	0
179605	7	Sololá	712	San Antonio Palopó	9	San Antonio Palopo	6	Junio	2023-06-28T00:00:00	2024-11-08T04:00:00	2	Temperatura media	18.1
179606	7	Sololá	712	San Antonio Palopó	9	San Antonio Palopo	6	Junio	2023-06-28T00:00:00	2024-11-08T04:00:00	4	Temperatura máxima	18.3
179607	7	Sololá	712	San Antonio Palopó	9	San Antonio Palopo	6	Junio	2023-06-28T00:00:00	2024-11-08T04:00:00	3	Temperatura mínima	18.1
179608	7	Sololá	712	San Antonio Palopó	9	San Antonio Palopo	6	Junio	2023-06-28T00:00:00	2024-11-08T04:00:00	5	Humedad	88
179609	7	Sololá	712	San Antonio Palopó	9	San Antonio Palopo	6	Junio	2023-06-28T00:00:00	2024-11-08T04:00:00	6	Velocidad del viento	1.6
179610	7	Sololá	712	San Antonio Palopó	9	San Antonio Palopo	6	Junio	2023-06-28T00:00:00	2024-11-08T04:00:00	7	Dirección del viento	1.61
179611	7	Sololá	712	San Antonio Palopó	9	San Antonio Palopo	6	Junio	2023-06-28T00:00:00	2024-11-08T04:00:00	1	Precipitación	0
179612	7	Sololá	712	San Antonio Palopó	9	San Antonio Palopo	6	Junio	2023-06-28T00:00:00	2024-11-08T04:00:00	8	Radiación solar	0
179613	7	Sololá	712	San Antonio Palopó	9	San Antonio Palopo	6	Junio	2023-06-28T00:00:00	2024-11-08T05:00:00	2	Temperatura media	18.1
179614	7	Sololá	712	San Antonio Palopó	9	San Antonio Palopo	6	Junio	2023-06-28T00:00:00	2024-11-08T05:00:00	4	Temperatura máxima	18.2
179615	7	Sololá	712	San Antonio Palopó	9	San Antonio Palopo	6	Junio	2023-06-28T00:00:00	2024-11-08T05:00:00	3	Temperatura mínima	18
179616	7	Sololá	712	San Antonio Palopó	9	San Antonio Palopo	6	Junio	2023-06-28T00:00:00	2024-11-08T05:00:00	5	Humedad	86
179617	7	Sololá	712	San Antonio Palopó	9	San Antonio Palopo	6	Junio	2023-06-28T00:00:00	2024-11-08T05:00:00	6	Velocidad del viento	0
179618	7	Sololá	712	San Antonio Palopó	9	San Antonio Palopo	6	Junio	2023-06-28T00:00:00	2024-11-08T05:00:00	7	Dirección del viento	0
179619	7	Sololá	712	San Antonio Palopó	9	San Antonio Palopo	6	Junio	2023-06-28T00:00:00	2024-11-08T05:00:00	1	Precipitación	0.2
179620	7	Sololá	712	San Antonio Palopó	9	San Antonio Palopo	6	Junio	2023-06-28T00:00:00	2024-11-08T05:00:00	8	Radiación solar	0
179621	7	Sololá	712	San Antonio Palopó	9	San Antonio Palopo	6	Junio	2023-06-28T00:00:00	2024-11-08T06:00:00	2	Temperatura media	18.5
179622	7	Sololá	712	San Antonio Palopó	9	San Antonio Palopo	6	Junio	2023-06-28T00:00:00	2024-11-08T06:00:00	4	Temperatura máxima	18.5
179623	7	Sololá	712	San Antonio Palopó	9	San Antonio Palopo	6	Junio	2023-06-28T00:00:00	2024-11-08T06:00:00	3	Temperatura mínima	18.1
179624	7	Sololá	712	San Antonio Palopó	9	San Antonio Palopo	6	Junio	2023-06-28T00:00:00	2024-11-08T06:00:00	5	Humedad	82
179625	7	Sololá	712	San Antonio Palopó	9	San Antonio Palopo	6	Junio	2023-06-28T00:00:00	2024-11-08T06:00:00	6	Velocidad del viento	1.6
179626	7	Sololá	712	San Antonio Palopó	9	San Antonio Palopo	6	Junio	2023-06-28T00:00:00	2024-11-08T06:00:00	7	Dirección del viento	1.61
179627	7	Sololá	712	San Antonio Palopó	9	San Antonio Palopo	6	Junio	2023-06-28T00:00:00	2024-11-08T06:00:00	1	Precipitación	0
179628	7	Sololá	712	San Antonio Palopó	9	San Antonio Palopo	6	Junio	2023-06-28T00:00:00	2024-11-08T06:00:00	8	Radiación solar	2
179629	7	Sololá	712	San Antonio Palopó	9	San Antonio Palopo	6	Junio	2023-06-28T00:00:00	2024-11-08T07:00:00	2	Temperatura media	19.4
179630	7	Sololá	712	San Antonio Palopó	9	San Antonio Palopo	6	Junio	2023-06-28T00:00:00	2024-11-08T07:00:00	4	Temperatura máxima	19.4
179631	7	Sololá	712	San Antonio Palopó	9	San Antonio Palopo	6	Junio	2023-06-28T00:00:00	2024-11-08T07:00:00	3	Temperatura mínima	18.4
179632	7	Sololá	712	San Antonio Palopó	9	San Antonio Palopo	6	Junio	2023-06-28T00:00:00	2024-11-08T07:00:00	5	Humedad	78
179633	7	Sololá	712	San Antonio Palopó	9	San Antonio Palopo	6	Junio	2023-06-28T00:00:00	2024-11-08T07:00:00	6	Velocidad del viento	8
179634	7	Sololá	712	San Antonio Palopó	9	San Antonio Palopo	6	Junio	2023-06-28T00:00:00	2024-11-08T07:00:00	7	Dirección del viento	8.05
179635	7	Sololá	712	San Antonio Palopó	9	San Antonio Palopo	6	Junio	2023-06-28T00:00:00	2024-11-08T07:00:00	1	Precipitación	0
179636	7	Sololá	712	San Antonio Palopó	9	San Antonio Palopo	6	Junio	2023-06-28T00:00:00	2024-11-08T07:00:00	8	Radiación solar	59
179637	7	Sololá	712	San Antonio Palopó	9	San Antonio Palopo	6	Junio	2023-06-28T00:00:00	2024-11-08T08:00:00	2	Temperatura media	20.1
179638	7	Sololá	712	San Antonio Palopó	9	San Antonio Palopo	6	Junio	2023-06-28T00:00:00	2024-11-08T08:00:00	4	Temperatura máxima	20.2
179639	7	Sololá	712	San Antonio Palopó	9	San Antonio Palopo	6	Junio	2023-06-28T00:00:00	2024-11-08T08:00:00	3	Temperatura mínima	19.4
179640	7	Sololá	712	San Antonio Palopó	9	San Antonio Palopo	6	Junio	2023-06-28T00:00:00	2024-11-08T08:00:00	5	Humedad	77
179641	7	Sololá	712	San Antonio Palopó	9	San Antonio Palopo	6	Junio	2023-06-28T00:00:00	2024-11-08T08:00:00	6	Velocidad del viento	11.3
179642	7	Sololá	712	San Antonio Palopó	9	San Antonio Palopo	6	Junio	2023-06-28T00:00:00	2024-11-08T08:00:00	7	Dirección del viento	11.27
179643	7	Sololá	712	San Antonio Palopó	9	San Antonio Palopo	6	Junio	2023-06-28T00:00:00	2024-11-08T08:00:00	1	Precipitación	0
179644	7	Sololá	712	San Antonio Palopó	9	San Antonio Palopo	6	Junio	2023-06-28T00:00:00	2024-11-08T08:00:00	8	Radiación solar	196
179645	7	Sololá	712	San Antonio Palopó	9	San Antonio Palopo	6	Junio	2023-06-28T00:00:00	2024-11-08T09:00:00	2	Temperatura media	21.7
179646	7	Sololá	712	San Antonio Palopó	9	San Antonio Palopo	6	Junio	2023-06-28T00:00:00	2024-11-08T09:00:00	4	Temperatura máxima	21.7
179647	7	Sololá	712	San Antonio Palopó	9	San Antonio Palopo	6	Junio	2023-06-28T00:00:00	2024-11-08T09:00:00	3	Temperatura mínima	20.1
179648	7	Sololá	712	San Antonio Palopó	9	San Antonio Palopo	6	Junio	2023-06-28T00:00:00	2024-11-08T09:00:00	5	Humedad	77
179649	7	Sololá	712	San Antonio Palopó	9	San Antonio Palopo	6	Junio	2023-06-28T00:00:00	2024-11-08T09:00:00	6	Velocidad del viento	4.8
179650	7	Sololá	712	San Antonio Palopó	9	San Antonio Palopo	6	Junio	2023-06-28T00:00:00	2024-11-08T09:00:00	7	Dirección del viento	4.83
179651	7	Sololá	712	San Antonio Palopó	9	San Antonio Palopo	6	Junio	2023-06-28T00:00:00	2024-11-08T09:00:00	1	Precipitación	0
179652	7	Sololá	712	San Antonio Palopó	9	San Antonio Palopo	6	Junio	2023-06-28T00:00:00	2024-11-08T09:00:00	8	Radiación solar	286
179653	7	Sololá	712	San Antonio Palopó	9	San Antonio Palopo	6	Junio	2023-06-28T00:00:00	2024-11-08T10:00:00	2	Temperatura media	22.7
179654	7	Sololá	712	San Antonio Palopó	9	San Antonio Palopo	6	Junio	2023-06-28T00:00:00	2024-11-08T10:00:00	4	Temperatura máxima	22.7
179655	7	Sololá	712	San Antonio Palopó	9	San Antonio Palopo	6	Junio	2023-06-28T00:00:00	2024-11-08T10:00:00	3	Temperatura mínima	21.5
179656	7	Sololá	712	San Antonio Palopó	9	San Antonio Palopo	6	Junio	2023-06-28T00:00:00	2024-11-08T10:00:00	5	Humedad	73
179657	7	Sololá	712	San Antonio Palopó	9	San Antonio Palopo	6	Junio	2023-06-28T00:00:00	2024-11-08T10:00:00	6	Velocidad del viento	3.2
179658	7	Sololá	712	San Antonio Palopó	9	San Antonio Palopo	6	Junio	2023-06-28T00:00:00	2024-11-08T10:00:00	7	Dirección del viento	3.22
179659	7	Sololá	712	San Antonio Palopó	9	San Antonio Palopo	6	Junio	2023-06-28T00:00:00	2024-11-08T10:00:00	1	Precipitación	0
179660	7	Sololá	712	San Antonio Palopó	9	San Antonio Palopo	6	Junio	2023-06-28T00:00:00	2024-11-08T10:00:00	8	Radiación solar	293
179661	7	Sololá	712	San Antonio Palopó	9	San Antonio Palopo	6	Junio	2023-06-28T00:00:00	2024-11-08T11:00:00	2	Temperatura media	23.6
179662	7	Sololá	712	San Antonio Palopó	9	San Antonio Palopo	6	Junio	2023-06-28T00:00:00	2024-11-08T11:00:00	4	Temperatura máxima	23.6
179663	7	Sololá	712	San Antonio Palopó	9	San Antonio Palopo	6	Junio	2023-06-28T00:00:00	2024-11-08T11:00:00	3	Temperatura mínima	22.4
179664	7	Sololá	712	San Antonio Palopó	9	San Antonio Palopo	6	Junio	2023-06-28T00:00:00	2024-11-08T11:00:00	5	Humedad	75
179665	7	Sololá	712	San Antonio Palopó	9	San Antonio Palopo	6	Junio	2023-06-28T00:00:00	2024-11-08T11:00:00	6	Velocidad del viento	3.2
179666	7	Sololá	712	San Antonio Palopó	9	San Antonio Palopo	6	Junio	2023-06-28T00:00:00	2024-11-08T11:00:00	7	Dirección del viento	3.22
179667	7	Sololá	712	San Antonio Palopó	9	San Antonio Palopo	6	Junio	2023-06-28T00:00:00	2024-11-08T11:00:00	1	Precipitación	0
179668	7	Sololá	712	San Antonio Palopó	9	San Antonio Palopo	6	Junio	2023-06-28T00:00:00	2024-11-08T11:00:00	8	Radiación solar	378
179669	7	Sololá	712	San Antonio Palopó	9	San Antonio Palopo	6	Junio	2023-06-28T00:00:00	2024-11-08T12:00:00	2	Temperatura media	23.2
179670	7	Sololá	712	San Antonio Palopó	9	San Antonio Palopo	6	Junio	2023-06-28T00:00:00	2024-11-08T12:00:00	4	Temperatura máxima	23.7
179671	7	Sololá	712	San Antonio Palopó	9	San Antonio Palopo	6	Junio	2023-06-28T00:00:00	2024-11-08T12:00:00	3	Temperatura mínima	22.3
179672	7	Sololá	712	San Antonio Palopó	9	San Antonio Palopo	6	Junio	2023-06-28T00:00:00	2024-11-08T12:00:00	5	Humedad	75
179673	7	Sololá	712	San Antonio Palopó	9	San Antonio Palopo	6	Junio	2023-06-28T00:00:00	2024-11-08T12:00:00	6	Velocidad del viento	3.2
179674	7	Sololá	712	San Antonio Palopó	9	San Antonio Palopo	6	Junio	2023-06-28T00:00:00	2024-11-08T12:00:00	7	Dirección del viento	3.22
179675	7	Sololá	712	San Antonio Palopó	9	San Antonio Palopo	6	Junio	2023-06-28T00:00:00	2024-11-08T12:00:00	1	Precipitación	0
179676	7	Sololá	712	San Antonio Palopó	9	San Antonio Palopo	6	Junio	2023-06-28T00:00:00	2024-11-08T12:00:00	8	Radiación solar	504
179677	7	Sololá	712	San Antonio Palopó	9	San Antonio Palopo	6	Junio	2023-06-28T00:00:00	2024-11-08T13:00:00	2	Temperatura media	26.4
179678	7	Sololá	712	San Antonio Palopó	9	San Antonio Palopo	6	Junio	2023-06-28T00:00:00	2024-11-08T13:00:00	4	Temperatura máxima	26.4
179679	7	Sololá	712	San Antonio Palopó	9	San Antonio Palopo	6	Junio	2023-06-28T00:00:00	2024-11-08T13:00:00	3	Temperatura mínima	23.2
179680	7	Sololá	712	San Antonio Palopó	9	San Antonio Palopo	6	Junio	2023-06-28T00:00:00	2024-11-08T13:00:00	5	Humedad	63
179681	7	Sololá	712	San Antonio Palopó	9	San Antonio Palopo	6	Junio	2023-06-28T00:00:00	2024-11-08T13:00:00	6	Velocidad del viento	3.2
179682	7	Sololá	712	San Antonio Palopó	9	San Antonio Palopo	6	Junio	2023-06-28T00:00:00	2024-11-08T13:00:00	7	Dirección del viento	3.22
179683	7	Sololá	712	San Antonio Palopó	9	San Antonio Palopo	6	Junio	2023-06-28T00:00:00	2024-11-08T13:00:00	1	Precipitación	0
179684	7	Sololá	712	San Antonio Palopó	9	San Antonio Palopo	6	Junio	2023-06-28T00:00:00	2024-11-08T13:00:00	8	Radiación solar	521
179685	7	Sololá	712	San Antonio Palopó	9	San Antonio Palopo	6	Junio	2023-06-28T00:00:00	2024-11-08T14:00:00	2	Temperatura media	25.3
179686	7	Sololá	712	San Antonio Palopó	9	San Antonio Palopo	6	Junio	2023-06-28T00:00:00	2024-11-08T14:00:00	4	Temperatura máxima	26.9
179687	7	Sololá	712	San Antonio Palopó	9	San Antonio Palopo	6	Junio	2023-06-28T00:00:00	2024-11-08T14:00:00	3	Temperatura mínima	25.3
179688	7	Sololá	712	San Antonio Palopó	9	San Antonio Palopo	6	Junio	2023-06-28T00:00:00	2024-11-08T14:00:00	5	Humedad	73
179689	7	Sololá	712	San Antonio Palopó	9	San Antonio Palopo	6	Junio	2023-06-28T00:00:00	2024-11-08T14:00:00	6	Velocidad del viento	6.4
179690	7	Sololá	712	San Antonio Palopó	9	San Antonio Palopo	6	Junio	2023-06-28T00:00:00	2024-11-08T14:00:00	7	Dirección del viento	6.44
179691	7	Sololá	712	San Antonio Palopó	9	San Antonio Palopo	6	Junio	2023-06-28T00:00:00	2024-11-08T14:00:00	1	Precipitación	0
179692	7	Sololá	712	San Antonio Palopó	9	San Antonio Palopo	6	Junio	2023-06-28T00:00:00	2024-11-08T14:00:00	8	Radiación solar	452
179693	7	Sololá	712	San Antonio Palopó	9	San Antonio Palopo	6	Junio	2023-06-28T00:00:00	2024-11-08T15:00:00	2	Temperatura media	22.3
179694	7	Sololá	712	San Antonio Palopó	9	San Antonio Palopo	6	Junio	2023-06-28T00:00:00	2024-11-08T15:00:00	4	Temperatura máxima	25.2
179695	7	Sololá	712	San Antonio Palopó	9	San Antonio Palopo	6	Junio	2023-06-28T00:00:00	2024-11-08T15:00:00	3	Temperatura mínima	22.3
179696	7	Sololá	712	San Antonio Palopó	9	San Antonio Palopo	6	Junio	2023-06-28T00:00:00	2024-11-08T15:00:00	5	Humedad	84
179697	7	Sololá	712	San Antonio Palopó	9	San Antonio Palopo	6	Junio	2023-06-28T00:00:00	2024-11-08T15:00:00	6	Velocidad del viento	3.2
179698	7	Sololá	712	San Antonio Palopó	9	San Antonio Palopo	6	Junio	2023-06-28T00:00:00	2024-11-08T15:00:00	7	Dirección del viento	3.22
179699	7	Sololá	712	San Antonio Palopó	9	San Antonio Palopo	6	Junio	2023-06-28T00:00:00	2024-11-08T15:00:00	1	Precipitación	1.2
179700	7	Sololá	712	San Antonio Palopó	9	San Antonio Palopo	6	Junio	2023-06-28T00:00:00	2024-11-08T15:00:00	8	Radiación solar	533
179701	7	Sololá	712	San Antonio Palopó	9	San Antonio Palopo	6	Junio	2023-06-28T00:00:00	2024-11-08T16:00:00	2	Temperatura media	20.3
179702	7	Sololá	712	San Antonio Palopó	9	San Antonio Palopo	6	Junio	2023-06-28T00:00:00	2024-11-08T16:00:00	4	Temperatura máxima	22.3
179703	7	Sololá	712	San Antonio Palopó	9	San Antonio Palopo	6	Junio	2023-06-28T00:00:00	2024-11-08T16:00:00	3	Temperatura mínima	20.3
179704	7	Sololá	712	San Antonio Palopó	9	San Antonio Palopo	6	Junio	2023-06-28T00:00:00	2024-11-08T16:00:00	5	Humedad	89
179705	7	Sololá	712	San Antonio Palopó	9	San Antonio Palopo	6	Junio	2023-06-28T00:00:00	2024-11-08T16:00:00	6	Velocidad del viento	4.8
179706	7	Sololá	712	San Antonio Palopó	9	San Antonio Palopo	6	Junio	2023-06-28T00:00:00	2024-11-08T16:00:00	7	Dirección del viento	4.83
179707	7	Sololá	712	San Antonio Palopó	9	San Antonio Palopo	6	Junio	2023-06-28T00:00:00	2024-11-08T16:00:00	1	Precipitación	3.2
179708	7	Sololá	712	San Antonio Palopó	9	San Antonio Palopo	6	Junio	2023-06-28T00:00:00	2024-11-08T16:00:00	8	Radiación solar	556
179709	7	Sololá	712	San Antonio Palopó	9	San Antonio Palopo	6	Junio	2023-06-28T00:00:00	2024-11-08T17:00:00	2	Temperatura media	18.4
179710	7	Sololá	712	San Antonio Palopó	9	San Antonio Palopo	6	Junio	2023-06-28T00:00:00	2024-11-08T17:00:00	4	Temperatura máxima	20.3
179711	7	Sololá	712	San Antonio Palopó	9	San Antonio Palopo	6	Junio	2023-06-28T00:00:00	2024-11-08T17:00:00	3	Temperatura mínima	18.2
179712	7	Sololá	712	San Antonio Palopó	9	San Antonio Palopo	6	Junio	2023-06-28T00:00:00	2024-11-08T17:00:00	5	Humedad	88
179713	7	Sololá	712	San Antonio Palopó	9	San Antonio Palopo	6	Junio	2023-06-28T00:00:00	2024-11-08T17:00:00	6	Velocidad del viento	6.4
179714	7	Sololá	712	San Antonio Palopó	9	San Antonio Palopo	6	Junio	2023-06-28T00:00:00	2024-11-08T17:00:00	7	Dirección del viento	6.44
179715	7	Sololá	712	San Antonio Palopó	9	San Antonio Palopo	6	Junio	2023-06-28T00:00:00	2024-11-08T17:00:00	1	Precipitación	13.4
179716	7	Sololá	712	San Antonio Palopó	9	San Antonio Palopo	6	Junio	2023-06-28T00:00:00	2024-11-08T17:00:00	8	Radiación solar	244
179717	7	Sololá	712	San Antonio Palopó	9	San Antonio Palopo	6	Junio	2023-06-28T00:00:00	2024-11-08T18:00:00	2	Temperatura media	18.8
179718	7	Sololá	712	San Antonio Palopó	9	San Antonio Palopo	6	Junio	2023-06-28T00:00:00	2024-11-08T18:00:00	4	Temperatura máxima	19.4
179719	7	Sololá	712	San Antonio Palopó	9	San Antonio Palopo	6	Junio	2023-06-28T00:00:00	2024-11-08T18:00:00	3	Temperatura mínima	18.4
179720	7	Sololá	712	San Antonio Palopó	9	San Antonio Palopo	6	Junio	2023-06-28T00:00:00	2024-11-08T18:00:00	5	Humedad	89
179721	7	Sololá	712	San Antonio Palopó	9	San Antonio Palopo	6	Junio	2023-06-28T00:00:00	2024-11-08T18:00:00	6	Velocidad del viento	6.4
179722	7	Sololá	712	San Antonio Palopó	9	San Antonio Palopo	6	Junio	2023-06-28T00:00:00	2024-11-08T18:00:00	7	Dirección del viento	6.44
179723	7	Sololá	712	San Antonio Palopó	9	San Antonio Palopo	6	Junio	2023-06-28T00:00:00	2024-11-08T18:00:00	1	Precipitación	3.2
179724	7	Sololá	712	San Antonio Palopó	9	San Antonio Palopo	6	Junio	2023-06-28T00:00:00	2024-11-08T18:00:00	8	Radiación solar	70
179725	7	Sololá	712	San Antonio Palopó	9	San Antonio Palopo	6	Junio	2023-06-28T00:00:00	2024-11-08T19:00:00	2	Temperatura media	19
179726	7	Sololá	712	San Antonio Palopó	9	San Antonio Palopo	6	Junio	2023-06-28T00:00:00	2024-11-08T19:00:00	4	Temperatura máxima	19.1
179727	7	Sololá	712	San Antonio Palopó	9	San Antonio Palopo	6	Junio	2023-06-28T00:00:00	2024-11-08T19:00:00	3	Temperatura mínima	18.8
179728	7	Sololá	712	San Antonio Palopó	9	San Antonio Palopo	6	Junio	2023-06-28T00:00:00	2024-11-08T19:00:00	5	Humedad	90
179729	7	Sololá	712	San Antonio Palopó	9	San Antonio Palopo	6	Junio	2023-06-28T00:00:00	2024-11-08T19:00:00	6	Velocidad del viento	0
179730	7	Sololá	712	San Antonio Palopó	9	San Antonio Palopo	6	Junio	2023-06-28T00:00:00	2024-11-08T19:00:00	7	Dirección del viento	0
179731	7	Sololá	712	San Antonio Palopó	9	San Antonio Palopo	6	Junio	2023-06-28T00:00:00	2024-11-08T19:00:00	1	Precipitación	0
179732	7	Sololá	712	San Antonio Palopó	9	San Antonio Palopo	6	Junio	2023-06-28T00:00:00	2024-11-08T19:00:00	8	Radiación solar	0
179733	7	Sololá	712	San Antonio Palopó	9	San Antonio Palopo	6	Junio	2023-06-28T00:00:00	2024-11-08T20:00:00	2	Temperatura media	19.4
179734	7	Sololá	712	San Antonio Palopó	9	San Antonio Palopo	6	Junio	2023-06-28T00:00:00	2024-11-08T20:00:00	4	Temperatura máxima	19.4
179735	7	Sololá	712	San Antonio Palopó	9	San Antonio Palopo	6	Junio	2023-06-28T00:00:00	2024-11-08T20:00:00	3	Temperatura mínima	19
179736	7	Sololá	712	San Antonio Palopó	9	San Antonio Palopo	6	Junio	2023-06-28T00:00:00	2024-11-08T20:00:00	5	Humedad	90
179737	7	Sololá	712	San Antonio Palopó	9	San Antonio Palopo	6	Junio	2023-06-28T00:00:00	2024-11-08T20:00:00	6	Velocidad del viento	1.6
179738	7	Sololá	712	San Antonio Palopó	9	San Antonio Palopo	6	Junio	2023-06-28T00:00:00	2024-11-08T20:00:00	7	Dirección del viento	1.61
179739	7	Sololá	712	San Antonio Palopó	9	San Antonio Palopo	6	Junio	2023-06-28T00:00:00	2024-11-08T20:00:00	1	Precipitación	0
179740	7	Sololá	712	San Antonio Palopó	9	San Antonio Palopo	6	Junio	2023-06-28T00:00:00	2024-11-08T20:00:00	8	Radiación solar	0
179741	7	Sololá	712	San Antonio Palopó	9	San Antonio Palopo	6	Junio	2023-06-28T00:00:00	2024-11-08T21:00:00	2	Temperatura media	19.5
179742	7	Sololá	712	San Antonio Palopó	9	San Antonio Palopo	6	Junio	2023-06-28T00:00:00	2024-11-08T21:00:00	4	Temperatura máxima	19.6
179743	7	Sololá	712	San Antonio Palopó	9	San Antonio Palopo	6	Junio	2023-06-28T00:00:00	2024-11-08T21:00:00	3	Temperatura mínima	19.4
179744	7	Sololá	712	San Antonio Palopó	9	San Antonio Palopo	6	Junio	2023-06-28T00:00:00	2024-11-08T21:00:00	5	Humedad	91
179745	7	Sololá	712	San Antonio Palopó	9	San Antonio Palopo	6	Junio	2023-06-28T00:00:00	2024-11-08T21:00:00	6	Velocidad del viento	1.6
179746	7	Sololá	712	San Antonio Palopó	9	San Antonio Palopo	6	Junio	2023-06-28T00:00:00	2024-11-08T21:00:00	7	Dirección del viento	1.61
179747	7	Sololá	712	San Antonio Palopó	9	San Antonio Palopo	6	Junio	2023-06-28T00:00:00	2024-11-08T21:00:00	1	Precipitación	0
179748	7	Sololá	712	San Antonio Palopó	9	San Antonio Palopo	6	Junio	2023-06-28T00:00:00	2024-11-08T21:00:00	8	Radiación solar	0
179749	7	Sololá	712	San Antonio Palopó	9	San Antonio Palopo	6	Junio	2023-06-28T00:00:00	2024-11-08T22:00:00	2	Temperatura media	19.9
179750	7	Sololá	712	San Antonio Palopó	9	San Antonio Palopo	6	Junio	2023-06-28T00:00:00	2024-11-08T22:00:00	4	Temperatura máxima	19.9
179751	7	Sololá	712	San Antonio Palopó	9	San Antonio Palopo	6	Junio	2023-06-28T00:00:00	2024-11-08T22:00:00	3	Temperatura mínima	19.4
179752	7	Sololá	712	San Antonio Palopó	9	San Antonio Palopo	6	Junio	2023-06-28T00:00:00	2024-11-08T22:00:00	5	Humedad	89
179753	7	Sololá	712	San Antonio Palopó	9	San Antonio Palopo	6	Junio	2023-06-28T00:00:00	2024-11-08T22:00:00	6	Velocidad del viento	0
179754	7	Sololá	712	San Antonio Palopó	9	San Antonio Palopo	6	Junio	2023-06-28T00:00:00	2024-11-08T22:00:00	7	Dirección del viento	0
179755	7	Sololá	712	San Antonio Palopó	9	San Antonio Palopo	6	Junio	2023-06-28T00:00:00	2024-11-08T22:00:00	1	Precipitación	0
179756	7	Sololá	712	San Antonio Palopó	9	San Antonio Palopo	6	Junio	2023-06-28T00:00:00	2024-11-08T22:00:00	8	Radiación solar	0
179757	7	Sololá	712	San Antonio Palopó	9	San Antonio Palopo	6	Junio	2023-06-28T00:00:00	2024-11-08T23:00:00	2	Temperatura media	20
179758	7	Sololá	712	San Antonio Palopó	9	San Antonio Palopo	6	Junio	2023-06-28T00:00:00	2024-11-08T23:00:00	4	Temperatura máxima	20.2
179759	7	Sololá	712	San Antonio Palopó	9	San Antonio Palopo	6	Junio	2023-06-28T00:00:00	2024-11-08T23:00:00	3	Temperatura mínima	19.8
179760	7	Sololá	712	San Antonio Palopó	9	San Antonio Palopo	6	Junio	2023-06-28T00:00:00	2024-11-08T23:00:00	5	Humedad	84
179761	7	Sololá	712	San Antonio Palopó	9	San Antonio Palopo	6	Junio	2023-06-28T00:00:00	2024-11-08T23:00:00	6	Velocidad del viento	1.6
179762	7	Sololá	712	San Antonio Palopó	9	San Antonio Palopo	6	Junio	2023-06-28T00:00:00	2024-11-08T23:00:00	7	Dirección del viento	1.61
179763	7	Sololá	712	San Antonio Palopó	9	San Antonio Palopo	6	Junio	2023-06-28T00:00:00	2024-11-08T23:00:00	1	Precipitación	0
179764	7	Sololá	712	San Antonio Palopó	9	San Antonio Palopo	6	Junio	2023-06-28T00:00:00	2024-11-08T23:00:00	8	Radiación solar	0
179765	7	Sololá	712	San Antonio Palopó	9	San Antonio Palopo	6	Junio	2023-06-29T00:00:00	2024-11-08T00:00:00	2	Temperatura media	20.3
179766	7	Sololá	712	San Antonio Palopó	9	San Antonio Palopo	6	Junio	2023-06-29T00:00:00	2024-11-08T00:00:00	4	Temperatura máxima	20.3
179767	7	Sololá	712	San Antonio Palopó	9	San Antonio Palopo	6	Junio	2023-06-29T00:00:00	2024-11-08T00:00:00	3	Temperatura mínima	20
179768	7	Sololá	712	San Antonio Palopó	9	San Antonio Palopo	6	Junio	2023-06-29T00:00:00	2024-11-08T00:00:00	5	Humedad	83
179769	7	Sololá	712	San Antonio Palopó	9	San Antonio Palopo	6	Junio	2023-06-29T00:00:00	2024-11-08T00:00:00	6	Velocidad del viento	3.2
179770	7	Sololá	712	San Antonio Palopó	9	San Antonio Palopo	6	Junio	2023-06-29T00:00:00	2024-11-08T00:00:00	7	Dirección del viento	3.22
179771	7	Sololá	712	San Antonio Palopó	9	San Antonio Palopo	6	Junio	2023-06-29T00:00:00	2024-11-08T00:00:00	1	Precipitación	0
179772	7	Sololá	712	San Antonio Palopó	9	San Antonio Palopo	6	Junio	2023-06-29T00:00:00	2024-11-08T00:00:00	8	Radiación solar	0
179773	7	Sololá	712	San Antonio Palopó	9	San Antonio Palopo	6	Junio	2023-06-29T00:00:00	2024-11-08T01:00:00	2	Temperatura media	20.4
179774	7	Sololá	712	San Antonio Palopó	9	San Antonio Palopo	6	Junio	2023-06-29T00:00:00	2024-11-08T01:00:00	4	Temperatura máxima	20.4
179775	7	Sololá	712	San Antonio Palopó	9	San Antonio Palopo	6	Junio	2023-06-29T00:00:00	2024-11-08T01:00:00	3	Temperatura mínima	19.9
179776	7	Sololá	712	San Antonio Palopó	9	San Antonio Palopo	6	Junio	2023-06-29T00:00:00	2024-11-08T01:00:00	5	Humedad	79
179777	7	Sololá	712	San Antonio Palopó	9	San Antonio Palopo	6	Junio	2023-06-29T00:00:00	2024-11-08T01:00:00	6	Velocidad del viento	3.2
179778	7	Sololá	712	San Antonio Palopó	9	San Antonio Palopo	6	Junio	2023-06-29T00:00:00	2024-11-08T01:00:00	7	Dirección del viento	3.22
179779	7	Sololá	712	San Antonio Palopó	9	San Antonio Palopo	6	Junio	2023-06-29T00:00:00	2024-11-08T01:00:00	1	Precipitación	0
179780	7	Sololá	712	San Antonio Palopó	9	San Antonio Palopo	6	Junio	2023-06-29T00:00:00	2024-11-08T01:00:00	8	Radiación solar	0
179781	7	Sololá	712	San Antonio Palopó	9	San Antonio Palopo	6	Junio	2023-06-29T00:00:00	2024-11-08T02:00:00	2	Temperatura media	20.3
179782	7	Sololá	712	San Antonio Palopó	9	San Antonio Palopo	6	Junio	2023-06-29T00:00:00	2024-11-08T02:00:00	4	Temperatura máxima	20.6
179783	7	Sololá	712	San Antonio Palopó	9	San Antonio Palopo	6	Junio	2023-06-29T00:00:00	2024-11-08T02:00:00	3	Temperatura mínima	20.2
179784	7	Sololá	712	San Antonio Palopó	9	San Antonio Palopo	6	Junio	2023-06-29T00:00:00	2024-11-08T02:00:00	5	Humedad	79
179785	7	Sololá	712	San Antonio Palopó	9	San Antonio Palopo	6	Junio	2023-06-29T00:00:00	2024-11-08T02:00:00	6	Velocidad del viento	3.2
179786	7	Sololá	712	San Antonio Palopó	9	San Antonio Palopo	6	Junio	2023-06-29T00:00:00	2024-11-08T02:00:00	7	Dirección del viento	3.22
179787	7	Sololá	712	San Antonio Palopó	9	San Antonio Palopo	6	Junio	2023-06-29T00:00:00	2024-11-08T02:00:00	1	Precipitación	0
179788	7	Sololá	712	San Antonio Palopó	9	San Antonio Palopo	6	Junio	2023-06-29T00:00:00	2024-11-08T02:00:00	8	Radiación solar	0
179789	7	Sololá	712	San Antonio Palopó	9	San Antonio Palopo	6	Junio	2023-06-29T00:00:00	2024-11-08T03:00:00	2	Temperatura media	20.2
179790	7	Sololá	712	San Antonio Palopó	9	San Antonio Palopo	6	Junio	2023-06-29T00:00:00	2024-11-08T03:00:00	4	Temperatura máxima	20.5
179791	7	Sololá	712	San Antonio Palopó	9	San Antonio Palopo	6	Junio	2023-06-29T00:00:00	2024-11-08T03:00:00	3	Temperatura mínima	20.1
179792	7	Sololá	712	San Antonio Palopó	9	San Antonio Palopo	6	Junio	2023-06-29T00:00:00	2024-11-08T03:00:00	5	Humedad	81
179793	7	Sololá	712	San Antonio Palopó	9	San Antonio Palopo	6	Junio	2023-06-29T00:00:00	2024-11-08T03:00:00	6	Velocidad del viento	3.2
179794	7	Sololá	712	San Antonio Palopó	9	San Antonio Palopo	6	Junio	2023-06-29T00:00:00	2024-11-08T03:00:00	7	Dirección del viento	3.22
179795	7	Sololá	712	San Antonio Palopó	9	San Antonio Palopo	6	Junio	2023-06-29T00:00:00	2024-11-08T03:00:00	1	Precipitación	0
179796	7	Sololá	712	San Antonio Palopó	9	San Antonio Palopo	6	Junio	2023-06-29T00:00:00	2024-11-08T03:00:00	8	Radiación solar	0
179797	7	Sololá	712	San Antonio Palopó	9	San Antonio Palopo	6	Junio	2023-06-29T00:00:00	2024-11-08T04:00:00	2	Temperatura media	20.2
179798	7	Sololá	712	San Antonio Palopó	9	San Antonio Palopo	6	Junio	2023-06-29T00:00:00	2024-11-08T04:00:00	4	Temperatura máxima	20.2
179799	7	Sololá	712	San Antonio Palopó	9	San Antonio Palopo	6	Junio	2023-06-29T00:00:00	2024-11-08T04:00:00	3	Temperatura mínima	19.9
179800	7	Sololá	712	San Antonio Palopó	9	San Antonio Palopo	6	Junio	2023-06-29T00:00:00	2024-11-08T04:00:00	5	Humedad	79
179801	7	Sololá	712	San Antonio Palopó	9	San Antonio Palopo	6	Junio	2023-06-29T00:00:00	2024-11-08T04:00:00	6	Velocidad del viento	4.8
179802	7	Sololá	712	San Antonio Palopó	9	San Antonio Palopo	6	Junio	2023-06-29T00:00:00	2024-11-08T04:00:00	7	Dirección del viento	4.83
179803	7	Sololá	712	San Antonio Palopó	9	San Antonio Palopo	6	Junio	2023-06-29T00:00:00	2024-11-08T04:00:00	1	Precipitación	0
179804	7	Sololá	712	San Antonio Palopó	9	San Antonio Palopo	6	Junio	2023-06-29T00:00:00	2024-11-08T04:00:00	8	Radiación solar	0
179805	7	Sololá	712	San Antonio Palopó	9	San Antonio Palopo	6	Junio	2023-06-29T00:00:00	2024-11-08T05:00:00	2	Temperatura media	20.3
179806	7	Sololá	712	San Antonio Palopó	9	San Antonio Palopo	6	Junio	2023-06-29T00:00:00	2024-11-08T05:00:00	4	Temperatura máxima	20.3
179807	7	Sololá	712	San Antonio Palopó	9	San Antonio Palopo	6	Junio	2023-06-29T00:00:00	2024-11-08T05:00:00	3	Temperatura mínima	20.2
179808	7	Sololá	712	San Antonio Palopó	9	San Antonio Palopo	6	Junio	2023-06-29T00:00:00	2024-11-08T05:00:00	5	Humedad	77
179809	7	Sololá	712	San Antonio Palopó	9	San Antonio Palopo	6	Junio	2023-06-29T00:00:00	2024-11-08T05:00:00	6	Velocidad del viento	8
179810	7	Sololá	712	San Antonio Palopó	9	San Antonio Palopo	6	Junio	2023-06-29T00:00:00	2024-11-08T05:00:00	7	Dirección del viento	8.05
179811	7	Sololá	712	San Antonio Palopó	9	San Antonio Palopo	6	Junio	2023-06-29T00:00:00	2024-11-08T05:00:00	1	Precipitación	0
179812	7	Sololá	712	San Antonio Palopó	9	San Antonio Palopo	6	Junio	2023-06-29T00:00:00	2024-11-08T05:00:00	8	Radiación solar	0
179813	7	Sololá	712	San Antonio Palopó	9	San Antonio Palopo	6	Junio	2023-06-29T00:00:00	2024-11-08T06:00:00	2	Temperatura media	20.3
179814	7	Sololá	712	San Antonio Palopó	9	San Antonio Palopo	6	Junio	2023-06-29T00:00:00	2024-11-08T06:00:00	4	Temperatura máxima	20.4
179815	7	Sololá	712	San Antonio Palopó	9	San Antonio Palopo	6	Junio	2023-06-29T00:00:00	2024-11-08T06:00:00	3	Temperatura mínima	20.2
179816	7	Sololá	712	San Antonio Palopó	9	San Antonio Palopo	6	Junio	2023-06-29T00:00:00	2024-11-08T06:00:00	5	Humedad	77
179817	7	Sololá	712	San Antonio Palopó	9	San Antonio Palopo	6	Junio	2023-06-29T00:00:00	2024-11-08T06:00:00	6	Velocidad del viento	9.7
179818	7	Sololá	712	San Antonio Palopó	9	San Antonio Palopo	6	Junio	2023-06-29T00:00:00	2024-11-08T06:00:00	7	Dirección del viento	9.66
179819	7	Sololá	712	San Antonio Palopó	9	San Antonio Palopo	6	Junio	2023-06-29T00:00:00	2024-11-08T06:00:00	1	Precipitación	0
179820	7	Sololá	712	San Antonio Palopó	9	San Antonio Palopo	6	Junio	2023-06-29T00:00:00	2024-11-08T06:00:00	8	Radiación solar	3
179821	7	Sololá	712	San Antonio Palopó	9	San Antonio Palopo	6	Junio	2023-06-29T00:00:00	2024-11-08T07:00:00	2	Temperatura media	21.1
179822	7	Sololá	712	San Antonio Palopó	9	San Antonio Palopo	6	Junio	2023-06-29T00:00:00	2024-11-08T07:00:00	4	Temperatura máxima	21.1
179823	7	Sololá	712	San Antonio Palopó	9	San Antonio Palopo	6	Junio	2023-06-29T00:00:00	2024-11-08T07:00:00	3	Temperatura mínima	20.3
179824	7	Sololá	712	San Antonio Palopó	9	San Antonio Palopo	6	Junio	2023-06-29T00:00:00	2024-11-08T07:00:00	5	Humedad	74
179825	7	Sololá	712	San Antonio Palopó	9	San Antonio Palopo	6	Junio	2023-06-29T00:00:00	2024-11-08T07:00:00	6	Velocidad del viento	4.8
179826	7	Sololá	712	San Antonio Palopó	9	San Antonio Palopo	6	Junio	2023-06-29T00:00:00	2024-11-08T07:00:00	7	Dirección del viento	4.83
179827	7	Sololá	712	San Antonio Palopó	9	San Antonio Palopo	6	Junio	2023-06-29T00:00:00	2024-11-08T07:00:00	1	Precipitación	0
179828	7	Sololá	712	San Antonio Palopó	9	San Antonio Palopo	6	Junio	2023-06-29T00:00:00	2024-11-08T07:00:00	8	Radiación solar	48
179829	7	Sololá	712	San Antonio Palopó	9	San Antonio Palopo	6	Junio	2023-06-29T00:00:00	2024-11-08T08:00:00	2	Temperatura media	21.9
179830	7	Sololá	712	San Antonio Palopó	9	San Antonio Palopo	6	Junio	2023-06-29T00:00:00	2024-11-08T08:00:00	4	Temperatura máxima	21.9
179831	7	Sololá	712	San Antonio Palopó	9	San Antonio Palopo	6	Junio	2023-06-29T00:00:00	2024-11-08T08:00:00	3	Temperatura mínima	21.1
179832	7	Sololá	712	San Antonio Palopó	9	San Antonio Palopo	6	Junio	2023-06-29T00:00:00	2024-11-08T08:00:00	5	Humedad	72
179833	7	Sololá	712	San Antonio Palopó	9	San Antonio Palopo	6	Junio	2023-06-29T00:00:00	2024-11-08T08:00:00	6	Velocidad del viento	3.2
179834	7	Sololá	712	San Antonio Palopó	9	San Antonio Palopo	6	Junio	2023-06-29T00:00:00	2024-11-08T08:00:00	7	Dirección del viento	3.22
179835	7	Sololá	712	San Antonio Palopó	9	San Antonio Palopo	6	Junio	2023-06-29T00:00:00	2024-11-08T08:00:00	1	Precipitación	0
179836	7	Sololá	712	San Antonio Palopó	9	San Antonio Palopo	6	Junio	2023-06-29T00:00:00	2024-11-08T08:00:00	8	Radiación solar	165
179837	7	Sololá	712	San Antonio Palopó	9	San Antonio Palopo	6	Junio	2023-06-29T00:00:00	2024-11-08T09:00:00	2	Temperatura media	23.8
179838	7	Sololá	712	San Antonio Palopó	9	San Antonio Palopo	6	Junio	2023-06-29T00:00:00	2024-11-08T09:00:00	4	Temperatura máxima	23.9
179839	7	Sololá	712	San Antonio Palopó	9	San Antonio Palopo	6	Junio	2023-06-29T00:00:00	2024-11-08T09:00:00	3	Temperatura mínima	21.9
179840	7	Sololá	712	San Antonio Palopó	9	San Antonio Palopo	6	Junio	2023-06-29T00:00:00	2024-11-08T09:00:00	5	Humedad	73
179841	7	Sololá	712	San Antonio Palopó	9	San Antonio Palopo	6	Junio	2023-06-29T00:00:00	2024-11-08T09:00:00	6	Velocidad del viento	1.6
179842	7	Sololá	712	San Antonio Palopó	9	San Antonio Palopo	6	Junio	2023-06-29T00:00:00	2024-11-08T09:00:00	7	Dirección del viento	1.61
179843	7	Sololá	712	San Antonio Palopó	9	San Antonio Palopo	6	Junio	2023-06-29T00:00:00	2024-11-08T09:00:00	1	Precipitación	0
179844	7	Sololá	712	San Antonio Palopó	9	San Antonio Palopo	6	Junio	2023-06-29T00:00:00	2024-11-08T09:00:00	8	Radiación solar	573
179845	7	Sololá	712	San Antonio Palopó	9	San Antonio Palopo	6	Junio	2023-06-29T00:00:00	2024-11-08T10:00:00	2	Temperatura media	23.8
179846	7	Sololá	712	San Antonio Palopó	9	San Antonio Palopo	6	Junio	2023-06-29T00:00:00	2024-11-08T10:00:00	4	Temperatura máxima	24.3
179847	7	Sololá	712	San Antonio Palopó	9	San Antonio Palopo	6	Junio	2023-06-29T00:00:00	2024-11-08T10:00:00	3	Temperatura mínima	23.5
179848	7	Sololá	712	San Antonio Palopó	9	San Antonio Palopo	6	Junio	2023-06-29T00:00:00	2024-11-08T10:00:00	5	Humedad	75
179849	7	Sololá	712	San Antonio Palopó	9	San Antonio Palopo	6	Junio	2023-06-29T00:00:00	2024-11-08T10:00:00	6	Velocidad del viento	3.2
179850	7	Sololá	712	San Antonio Palopó	9	San Antonio Palopo	6	Junio	2023-06-29T00:00:00	2024-11-08T10:00:00	7	Dirección del viento	3.22
179851	7	Sololá	712	San Antonio Palopó	9	San Antonio Palopo	6	Junio	2023-06-29T00:00:00	2024-11-08T10:00:00	1	Precipitación	0
179852	7	Sololá	712	San Antonio Palopó	9	San Antonio Palopo	6	Junio	2023-06-29T00:00:00	2024-11-08T10:00:00	8	Radiación solar	619
179853	7	Sololá	712	San Antonio Palopó	9	San Antonio Palopo	6	Junio	2023-06-29T00:00:00	2024-11-08T11:00:00	2	Temperatura media	23.7
179854	7	Sololá	712	San Antonio Palopó	9	San Antonio Palopo	6	Junio	2023-06-29T00:00:00	2024-11-08T11:00:00	4	Temperatura máxima	24.6
179855	7	Sololá	712	San Antonio Palopó	9	San Antonio Palopo	6	Junio	2023-06-29T00:00:00	2024-11-08T11:00:00	3	Temperatura mínima	23.6
179856	7	Sololá	712	San Antonio Palopó	9	San Antonio Palopo	6	Junio	2023-06-29T00:00:00	2024-11-08T11:00:00	5	Humedad	78
179857	7	Sololá	712	San Antonio Palopó	9	San Antonio Palopo	6	Junio	2023-06-29T00:00:00	2024-11-08T11:00:00	6	Velocidad del viento	6.4
179858	7	Sololá	712	San Antonio Palopó	9	San Antonio Palopo	6	Junio	2023-06-29T00:00:00	2024-11-08T11:00:00	7	Dirección del viento	6.44
179859	7	Sololá	712	San Antonio Palopó	9	San Antonio Palopo	6	Junio	2023-06-29T00:00:00	2024-11-08T11:00:00	1	Precipitación	0
179860	7	Sololá	712	San Antonio Palopó	9	San Antonio Palopo	6	Junio	2023-06-29T00:00:00	2024-11-08T11:00:00	8	Radiación solar	842
179861	7	Sololá	712	San Antonio Palopó	9	San Antonio Palopo	6	Junio	2023-06-29T00:00:00	2024-11-08T12:00:00	2	Temperatura media	24.6
179862	7	Sololá	712	San Antonio Palopó	9	San Antonio Palopo	6	Junio	2023-06-29T00:00:00	2024-11-08T12:00:00	4	Temperatura máxima	24.6
179863	7	Sololá	712	San Antonio Palopó	9	San Antonio Palopo	6	Junio	2023-06-29T00:00:00	2024-11-08T12:00:00	3	Temperatura mínima	23.6
179864	7	Sololá	712	San Antonio Palopó	9	San Antonio Palopo	6	Junio	2023-06-29T00:00:00	2024-11-08T12:00:00	5	Humedad	76
179865	7	Sololá	712	San Antonio Palopó	9	San Antonio Palopo	6	Junio	2023-06-29T00:00:00	2024-11-08T12:00:00	6	Velocidad del viento	4.8
179866	7	Sololá	712	San Antonio Palopó	9	San Antonio Palopo	6	Junio	2023-06-29T00:00:00	2024-11-08T12:00:00	7	Dirección del viento	4.83
179867	7	Sololá	712	San Antonio Palopó	9	San Antonio Palopo	6	Junio	2023-06-29T00:00:00	2024-11-08T12:00:00	1	Precipitación	0
179868	7	Sololá	712	San Antonio Palopó	9	San Antonio Palopo	6	Junio	2023-06-29T00:00:00	2024-11-08T12:00:00	8	Radiación solar	954
179869	7	Sololá	712	San Antonio Palopó	9	San Antonio Palopo	6	Junio	2023-06-29T00:00:00	2024-11-08T13:00:00	2	Temperatura media	23.7
179870	7	Sololá	712	San Antonio Palopó	9	San Antonio Palopo	6	Junio	2023-06-29T00:00:00	2024-11-08T13:00:00	4	Temperatura máxima	25.1
179871	7	Sololá	712	San Antonio Palopó	9	San Antonio Palopo	6	Junio	2023-06-29T00:00:00	2024-11-08T13:00:00	3	Temperatura mínima	23.6
179872	7	Sololá	712	San Antonio Palopó	9	San Antonio Palopo	6	Junio	2023-06-29T00:00:00	2024-11-08T13:00:00	5	Humedad	78
179873	7	Sololá	712	San Antonio Palopó	9	San Antonio Palopo	6	Junio	2023-06-29T00:00:00	2024-11-08T13:00:00	6	Velocidad del viento	3.2
179874	7	Sololá	712	San Antonio Palopó	9	San Antonio Palopo	6	Junio	2023-06-29T00:00:00	2024-11-08T13:00:00	7	Dirección del viento	3.22
179875	7	Sololá	712	San Antonio Palopó	9	San Antonio Palopo	6	Junio	2023-06-29T00:00:00	2024-11-08T13:00:00	1	Precipitación	0
179876	7	Sololá	712	San Antonio Palopó	9	San Antonio Palopo	6	Junio	2023-06-29T00:00:00	2024-11-08T13:00:00	8	Radiación solar	1018
179877	7	Sololá	712	San Antonio Palopó	9	San Antonio Palopo	6	Junio	2023-06-29T00:00:00	2024-11-08T14:00:00	2	Temperatura media	23.7
179878	7	Sololá	712	San Antonio Palopó	9	San Antonio Palopo	6	Junio	2023-06-29T00:00:00	2024-11-08T14:00:00	4	Temperatura máxima	24.4
179879	7	Sololá	712	San Antonio Palopó	9	San Antonio Palopo	6	Junio	2023-06-29T00:00:00	2024-11-08T14:00:00	3	Temperatura mínima	23.6
179880	7	Sololá	712	San Antonio Palopó	9	San Antonio Palopo	6	Junio	2023-06-29T00:00:00	2024-11-08T14:00:00	5	Humedad	78
179881	7	Sololá	712	San Antonio Palopó	9	San Antonio Palopo	6	Junio	2023-06-29T00:00:00	2024-11-08T14:00:00	6	Velocidad del viento	3.2
179882	7	Sololá	712	San Antonio Palopó	9	San Antonio Palopo	6	Junio	2023-06-29T00:00:00	2024-11-08T14:00:00	7	Dirección del viento	3.22
179883	7	Sololá	712	San Antonio Palopó	9	San Antonio Palopo	6	Junio	2023-06-29T00:00:00	2024-11-08T14:00:00	1	Precipitación	0
179884	7	Sololá	712	San Antonio Palopó	9	San Antonio Palopo	6	Junio	2023-06-29T00:00:00	2024-11-08T14:00:00	8	Radiación solar	819
179885	7	Sololá	712	San Antonio Palopó	9	San Antonio Palopo	6	Junio	2023-06-29T00:00:00	2024-11-08T15:00:00	2	Temperatura media	25.9
179886	7	Sololá	712	San Antonio Palopó	9	San Antonio Palopo	6	Junio	2023-06-29T00:00:00	2024-11-08T15:00:00	4	Temperatura máxima	25.9
179887	7	Sololá	712	San Antonio Palopó	9	San Antonio Palopo	6	Junio	2023-06-29T00:00:00	2024-11-08T15:00:00	3	Temperatura mínima	23.5
179888	7	Sololá	712	San Antonio Palopó	9	San Antonio Palopo	6	Junio	2023-06-29T00:00:00	2024-11-08T15:00:00	5	Humedad	73
179889	7	Sololá	712	San Antonio Palopó	9	San Antonio Palopo	6	Junio	2023-06-29T00:00:00	2024-11-08T15:00:00	6	Velocidad del viento	3.2
179890	7	Sololá	712	San Antonio Palopó	9	San Antonio Palopo	6	Junio	2023-06-29T00:00:00	2024-11-08T15:00:00	7	Dirección del viento	3.22
179891	7	Sololá	712	San Antonio Palopó	9	San Antonio Palopo	6	Junio	2023-06-29T00:00:00	2024-11-08T15:00:00	1	Precipitación	0
179892	7	Sololá	712	San Antonio Palopó	9	San Antonio Palopo	6	Junio	2023-06-29T00:00:00	2024-11-08T15:00:00	8	Radiación solar	335
179893	7	Sololá	712	San Antonio Palopó	9	San Antonio Palopo	6	Junio	2023-06-29T00:00:00	2024-11-08T16:00:00	2	Temperatura media	22.9
179894	7	Sololá	712	San Antonio Palopó	9	San Antonio Palopo	6	Junio	2023-06-29T00:00:00	2024-11-08T16:00:00	4	Temperatura máxima	25.8
179895	7	Sololá	712	San Antonio Palopó	9	San Antonio Palopo	6	Junio	2023-06-29T00:00:00	2024-11-08T16:00:00	3	Temperatura mínima	22.9
179896	7	Sololá	712	San Antonio Palopó	9	San Antonio Palopo	6	Junio	2023-06-29T00:00:00	2024-11-08T16:00:00	5	Humedad	79
179897	7	Sololá	712	San Antonio Palopó	9	San Antonio Palopo	6	Junio	2023-06-29T00:00:00	2024-11-08T16:00:00	6	Velocidad del viento	3.2
179898	7	Sololá	712	San Antonio Palopó	9	San Antonio Palopo	6	Junio	2023-06-29T00:00:00	2024-11-08T16:00:00	7	Dirección del viento	3.22
179899	7	Sololá	712	San Antonio Palopó	9	San Antonio Palopo	6	Junio	2023-06-29T00:00:00	2024-11-08T16:00:00	1	Precipitación	0
179900	7	Sololá	712	San Antonio Palopó	9	San Antonio Palopo	6	Junio	2023-06-29T00:00:00	2024-11-08T16:00:00	8	Radiación solar	213
179901	7	Sololá	712	San Antonio Palopó	9	San Antonio Palopo	6	Junio	2023-06-29T00:00:00	2024-11-08T17:00:00	2	Temperatura media	22.5
179902	7	Sololá	712	San Antonio Palopó	9	San Antonio Palopo	6	Junio	2023-06-29T00:00:00	2024-11-08T17:00:00	4	Temperatura máxima	22.9
179903	7	Sololá	712	San Antonio Palopó	9	San Antonio Palopo	6	Junio	2023-06-29T00:00:00	2024-11-08T17:00:00	3	Temperatura mínima	22.4
179904	7	Sololá	712	San Antonio Palopó	9	San Antonio Palopo	6	Junio	2023-06-29T00:00:00	2024-11-08T17:00:00	5	Humedad	82
179905	7	Sololá	712	San Antonio Palopó	9	San Antonio Palopo	6	Junio	2023-06-29T00:00:00	2024-11-08T17:00:00	6	Velocidad del viento	3.2
179906	7	Sololá	712	San Antonio Palopó	9	San Antonio Palopo	6	Junio	2023-06-29T00:00:00	2024-11-08T17:00:00	7	Dirección del viento	3.22
179907	7	Sololá	712	San Antonio Palopó	9	San Antonio Palopo	6	Junio	2023-06-29T00:00:00	2024-11-08T17:00:00	1	Precipitación	0
179908	7	Sololá	712	San Antonio Palopó	9	San Antonio Palopo	6	Junio	2023-06-29T00:00:00	2024-11-08T17:00:00	8	Radiación solar	80
179909	7	Sololá	712	San Antonio Palopó	9	San Antonio Palopo	6	Junio	2023-06-29T00:00:00	2024-11-08T18:00:00	2	Temperatura media	21.5
179910	7	Sololá	712	San Antonio Palopó	9	San Antonio Palopo	6	Junio	2023-06-29T00:00:00	2024-11-08T18:00:00	4	Temperatura máxima	22.5
179911	7	Sololá	712	San Antonio Palopó	9	San Antonio Palopo	6	Junio	2023-06-29T00:00:00	2024-11-08T18:00:00	3	Temperatura mínima	21.4
179912	7	Sololá	712	San Antonio Palopó	9	San Antonio Palopo	6	Junio	2023-06-29T00:00:00	2024-11-08T18:00:00	5	Humedad	86
179913	7	Sololá	712	San Antonio Palopó	9	San Antonio Palopo	6	Junio	2023-06-29T00:00:00	2024-11-08T18:00:00	6	Velocidad del viento	4.8
179914	7	Sololá	712	San Antonio Palopó	9	San Antonio Palopo	6	Junio	2023-06-29T00:00:00	2024-11-08T18:00:00	7	Dirección del viento	4.83
179915	7	Sololá	712	San Antonio Palopó	9	San Antonio Palopo	6	Junio	2023-06-29T00:00:00	2024-11-08T18:00:00	1	Precipitación	0
179916	7	Sololá	712	San Antonio Palopó	9	San Antonio Palopo	6	Junio	2023-06-29T00:00:00	2024-11-08T18:00:00	8	Radiación solar	32
179917	7	Sololá	712	San Antonio Palopó	9	San Antonio Palopo	6	Junio	2023-06-29T00:00:00	2024-11-08T19:00:00	2	Temperatura media	20.9
179918	7	Sololá	712	San Antonio Palopó	9	San Antonio Palopo	6	Junio	2023-06-29T00:00:00	2024-11-08T19:00:00	4	Temperatura máxima	21.6
179919	7	Sololá	712	San Antonio Palopó	9	San Antonio Palopo	6	Junio	2023-06-29T00:00:00	2024-11-08T19:00:00	3	Temperatura mínima	20.9
179920	7	Sololá	712	San Antonio Palopó	9	San Antonio Palopo	6	Junio	2023-06-29T00:00:00	2024-11-08T19:00:00	5	Humedad	85
179921	7	Sololá	712	San Antonio Palopó	9	San Antonio Palopo	6	Junio	2023-06-29T00:00:00	2024-11-08T19:00:00	6	Velocidad del viento	1.6
179922	7	Sololá	712	San Antonio Palopó	9	San Antonio Palopo	6	Junio	2023-06-29T00:00:00	2024-11-08T19:00:00	7	Dirección del viento	1.61
179923	7	Sololá	712	San Antonio Palopó	9	San Antonio Palopo	6	Junio	2023-06-29T00:00:00	2024-11-08T19:00:00	1	Precipitación	0
179924	7	Sololá	712	San Antonio Palopó	9	San Antonio Palopo	6	Junio	2023-06-29T00:00:00	2024-11-08T19:00:00	8	Radiación solar	0
179925	7	Sololá	712	San Antonio Palopó	9	San Antonio Palopo	6	Junio	2023-06-29T00:00:00	2024-11-08T20:00:00	2	Temperatura media	20.7
179926	7	Sololá	712	San Antonio Palopó	9	San Antonio Palopo	6	Junio	2023-06-29T00:00:00	2024-11-08T20:00:00	4	Temperatura máxima	20.9
179927	7	Sololá	712	San Antonio Palopó	9	San Antonio Palopo	6	Junio	2023-06-29T00:00:00	2024-11-08T20:00:00	3	Temperatura mínima	20.5
179928	7	Sololá	712	San Antonio Palopó	9	San Antonio Palopo	6	Junio	2023-06-29T00:00:00	2024-11-08T20:00:00	5	Humedad	84
179929	7	Sololá	712	San Antonio Palopó	9	San Antonio Palopo	6	Junio	2023-06-29T00:00:00	2024-11-08T20:00:00	6	Velocidad del viento	3.2
179930	7	Sololá	712	San Antonio Palopó	9	San Antonio Palopo	6	Junio	2023-06-29T00:00:00	2024-11-08T20:00:00	7	Dirección del viento	3.22
179931	7	Sololá	712	San Antonio Palopó	9	San Antonio Palopo	6	Junio	2023-06-29T00:00:00	2024-11-08T20:00:00	1	Precipitación	0
179932	7	Sololá	712	San Antonio Palopó	9	San Antonio Palopo	6	Junio	2023-06-29T00:00:00	2024-11-08T20:00:00	8	Radiación solar	0
179933	7	Sololá	712	San Antonio Palopó	9	San Antonio Palopo	6	Junio	2023-06-29T00:00:00	2024-11-08T21:00:00	2	Temperatura media	20.6
179934	7	Sololá	712	San Antonio Palopó	9	San Antonio Palopo	6	Junio	2023-06-29T00:00:00	2024-11-08T21:00:00	4	Temperatura máxima	20.8
179935	7	Sololá	712	San Antonio Palopó	9	San Antonio Palopo	6	Junio	2023-06-29T00:00:00	2024-11-08T21:00:00	3	Temperatura mínima	20.6
179936	7	Sololá	712	San Antonio Palopó	9	San Antonio Palopo	6	Junio	2023-06-29T00:00:00	2024-11-08T21:00:00	5	Humedad	81
179937	7	Sololá	712	San Antonio Palopó	9	San Antonio Palopo	6	Junio	2023-06-29T00:00:00	2024-11-08T21:00:00	6	Velocidad del viento	1.6
179938	7	Sololá	712	San Antonio Palopó	9	San Antonio Palopo	6	Junio	2023-06-29T00:00:00	2024-11-08T21:00:00	7	Dirección del viento	1.61
179939	7	Sololá	712	San Antonio Palopó	9	San Antonio Palopo	6	Junio	2023-06-29T00:00:00	2024-11-08T21:00:00	1	Precipitación	0
179940	7	Sololá	712	San Antonio Palopó	9	San Antonio Palopo	6	Junio	2023-06-29T00:00:00	2024-11-08T21:00:00	8	Radiación solar	0
179941	7	Sololá	712	San Antonio Palopó	9	San Antonio Palopo	6	Junio	2023-06-29T00:00:00	2024-11-08T22:00:00	2	Temperatura media	20.9
179942	7	Sololá	712	San Antonio Palopó	9	San Antonio Palopo	6	Junio	2023-06-29T00:00:00	2024-11-08T22:00:00	4	Temperatura máxima	20.9
179943	7	Sololá	712	San Antonio Palopó	9	San Antonio Palopo	6	Junio	2023-06-29T00:00:00	2024-11-08T22:00:00	3	Temperatura mínima	20.6
179944	7	Sololá	712	San Antonio Palopó	9	San Antonio Palopo	6	Junio	2023-06-29T00:00:00	2024-11-08T22:00:00	5	Humedad	75
179945	7	Sololá	712	San Antonio Palopó	9	San Antonio Palopo	6	Junio	2023-06-29T00:00:00	2024-11-08T22:00:00	6	Velocidad del viento	3.2
179946	7	Sololá	712	San Antonio Palopó	9	San Antonio Palopo	6	Junio	2023-06-29T00:00:00	2024-11-08T22:00:00	7	Dirección del viento	3.22
179947	7	Sololá	712	San Antonio Palopó	9	San Antonio Palopo	6	Junio	2023-06-29T00:00:00	2024-11-08T22:00:00	1	Precipitación	0
179948	7	Sololá	712	San Antonio Palopó	9	San Antonio Palopo	6	Junio	2023-06-29T00:00:00	2024-11-08T22:00:00	8	Radiación solar	0
179949	7	Sololá	712	San Antonio Palopó	9	San Antonio Palopo	6	Junio	2023-06-29T00:00:00	2024-11-08T23:00:00	2	Temperatura media	20.7
179950	7	Sololá	712	San Antonio Palopó	9	San Antonio Palopo	6	Junio	2023-06-29T00:00:00	2024-11-08T23:00:00	4	Temperatura máxima	21
179951	7	Sololá	712	San Antonio Palopó	9	San Antonio Palopo	6	Junio	2023-06-29T00:00:00	2024-11-08T23:00:00	3	Temperatura mínima	20.7
179952	7	Sololá	712	San Antonio Palopó	9	San Antonio Palopo	6	Junio	2023-06-29T00:00:00	2024-11-08T23:00:00	5	Humedad	73
179953	7	Sololá	712	San Antonio Palopó	9	San Antonio Palopo	6	Junio	2023-06-29T00:00:00	2024-11-08T23:00:00	6	Velocidad del viento	8
179954	7	Sololá	712	San Antonio Palopó	9	San Antonio Palopo	6	Junio	2023-06-29T00:00:00	2024-11-08T23:00:00	7	Dirección del viento	8.05
179955	7	Sololá	712	San Antonio Palopó	9	San Antonio Palopo	6	Junio	2023-06-29T00:00:00	2024-11-08T23:00:00	1	Precipitación	0
179956	7	Sololá	712	San Antonio Palopó	9	San Antonio Palopo	6	Junio	2023-06-29T00:00:00	2024-11-08T23:00:00	8	Radiación solar	0
179957	7	Sololá	712	San Antonio Palopó	9	San Antonio Palopo	6	Junio	2023-06-30T00:00:00	2024-11-08T00:00:00	2	Temperatura media	21.1
179958	7	Sololá	712	San Antonio Palopó	9	San Antonio Palopo	6	Junio	2023-06-30T00:00:00	2024-11-08T00:00:00	4	Temperatura máxima	21.1
179959	7	Sololá	712	San Antonio Palopó	9	San Antonio Palopo	6	Junio	2023-06-30T00:00:00	2024-11-08T00:00:00	3	Temperatura mínima	20.6
179960	7	Sololá	712	San Antonio Palopó	9	San Antonio Palopo	6	Junio	2023-06-30T00:00:00	2024-11-08T00:00:00	5	Humedad	71
179961	7	Sololá	712	San Antonio Palopó	9	San Antonio Palopo	6	Junio	2023-06-30T00:00:00	2024-11-08T00:00:00	6	Velocidad del viento	9.7
179962	7	Sololá	712	San Antonio Palopó	9	San Antonio Palopo	6	Junio	2023-06-30T00:00:00	2024-11-08T00:00:00	7	Dirección del viento	9.66
179963	7	Sololá	712	San Antonio Palopó	9	San Antonio Palopo	6	Junio	2023-06-30T00:00:00	2024-11-08T00:00:00	1	Precipitación	0
179964	7	Sololá	712	San Antonio Palopó	9	San Antonio Palopo	6	Junio	2023-06-30T00:00:00	2024-11-08T00:00:00	8	Radiación solar	0
179965	7	Sololá	712	San Antonio Palopó	9	San Antonio Palopo	6	Junio	2023-06-30T00:00:00	2024-11-08T01:00:00	2	Temperatura media	20.3
179966	7	Sololá	712	San Antonio Palopó	9	San Antonio Palopo	6	Junio	2023-06-30T00:00:00	2024-11-08T01:00:00	4	Temperatura máxima	21.2
179967	7	Sololá	712	San Antonio Palopó	9	San Antonio Palopo	6	Junio	2023-06-30T00:00:00	2024-11-08T01:00:00	3	Temperatura mínima	20.3
179968	7	Sololá	712	San Antonio Palopó	9	San Antonio Palopo	6	Junio	2023-06-30T00:00:00	2024-11-08T01:00:00	5	Humedad	74
179969	7	Sololá	712	San Antonio Palopó	9	San Antonio Palopo	6	Junio	2023-06-30T00:00:00	2024-11-08T01:00:00	6	Velocidad del viento	6.4
179970	7	Sololá	712	San Antonio Palopó	9	San Antonio Palopo	6	Junio	2023-06-30T00:00:00	2024-11-08T01:00:00	7	Dirección del viento	6.44
179971	7	Sololá	712	San Antonio Palopó	9	San Antonio Palopo	6	Junio	2023-06-30T00:00:00	2024-11-08T01:00:00	1	Precipitación	0
179972	7	Sololá	712	San Antonio Palopó	9	San Antonio Palopo	6	Junio	2023-06-30T00:00:00	2024-11-08T01:00:00	8	Radiación solar	0
179973	7	Sololá	712	San Antonio Palopó	9	San Antonio Palopo	6	Junio	2023-06-30T00:00:00	2024-11-08T02:00:00	2	Temperatura media	20.1
179974	7	Sololá	712	San Antonio Palopó	9	San Antonio Palopo	6	Junio	2023-06-30T00:00:00	2024-11-08T02:00:00	4	Temperatura máxima	20.4
179975	7	Sololá	712	San Antonio Palopó	9	San Antonio Palopo	6	Junio	2023-06-30T00:00:00	2024-11-08T02:00:00	3	Temperatura mínima	20.1
179976	7	Sololá	712	San Antonio Palopó	9	San Antonio Palopo	6	Junio	2023-06-30T00:00:00	2024-11-08T02:00:00	5	Humedad	75
179977	7	Sololá	712	San Antonio Palopó	9	San Antonio Palopo	6	Junio	2023-06-30T00:00:00	2024-11-08T02:00:00	6	Velocidad del viento	11.3
179978	7	Sololá	712	San Antonio Palopó	9	San Antonio Palopo	6	Junio	2023-06-30T00:00:00	2024-11-08T02:00:00	7	Dirección del viento	11.27
179979	7	Sololá	712	San Antonio Palopó	9	San Antonio Palopo	6	Junio	2023-06-30T00:00:00	2024-11-08T02:00:00	1	Precipitación	0
179980	7	Sololá	712	San Antonio Palopó	9	San Antonio Palopo	6	Junio	2023-06-30T00:00:00	2024-11-08T02:00:00	8	Radiación solar	0
179981	7	Sololá	712	San Antonio Palopó	9	San Antonio Palopo	6	Junio	2023-06-30T00:00:00	2024-11-08T03:00:00	2	Temperatura media	20
179982	7	Sololá	712	San Antonio Palopó	9	San Antonio Palopo	6	Junio	2023-06-30T00:00:00	2024-11-08T03:00:00	4	Temperatura máxima	20.2
179983	7	Sololá	712	San Antonio Palopó	9	San Antonio Palopo	6	Junio	2023-06-30T00:00:00	2024-11-08T03:00:00	3	Temperatura mínima	19.9
179984	7	Sololá	712	San Antonio Palopó	9	San Antonio Palopo	6	Junio	2023-06-30T00:00:00	2024-11-08T03:00:00	5	Humedad	76
179985	7	Sololá	712	San Antonio Palopó	9	San Antonio Palopo	6	Junio	2023-06-30T00:00:00	2024-11-08T03:00:00	6	Velocidad del viento	9.7
179986	7	Sololá	712	San Antonio Palopó	9	San Antonio Palopo	6	Junio	2023-06-30T00:00:00	2024-11-08T03:00:00	7	Dirección del viento	9.66
179987	7	Sololá	712	San Antonio Palopó	9	San Antonio Palopo	6	Junio	2023-06-30T00:00:00	2024-11-08T03:00:00	1	Precipitación	0
179988	7	Sololá	712	San Antonio Palopó	9	San Antonio Palopo	6	Junio	2023-06-30T00:00:00	2024-11-08T03:00:00	8	Radiación solar	0
179989	7	Sololá	712	San Antonio Palopó	9	San Antonio Palopo	6	Junio	2023-06-30T00:00:00	2024-11-08T04:00:00	2	Temperatura media	19.6
179990	7	Sololá	712	San Antonio Palopó	9	San Antonio Palopo	6	Junio	2023-06-30T00:00:00	2024-11-08T04:00:00	4	Temperatura máxima	20
179991	7	Sololá	712	San Antonio Palopó	9	San Antonio Palopo	6	Junio	2023-06-30T00:00:00	2024-11-08T04:00:00	3	Temperatura mínima	19.6
179992	7	Sololá	712	San Antonio Palopó	9	San Antonio Palopo	6	Junio	2023-06-30T00:00:00	2024-11-08T04:00:00	5	Humedad	75
179993	7	Sololá	712	San Antonio Palopó	9	San Antonio Palopo	6	Junio	2023-06-30T00:00:00	2024-11-08T04:00:00	6	Velocidad del viento	9.7
179994	7	Sololá	712	San Antonio Palopó	9	San Antonio Palopo	6	Junio	2023-06-30T00:00:00	2024-11-08T04:00:00	7	Dirección del viento	9.66
179995	7	Sololá	712	San Antonio Palopó	9	San Antonio Palopo	6	Junio	2023-06-30T00:00:00	2024-11-08T04:00:00	1	Precipitación	0
179996	7	Sololá	712	San Antonio Palopó	9	San Antonio Palopo	6	Junio	2023-06-30T00:00:00	2024-11-08T04:00:00	8	Radiación solar	0
179997	7	Sololá	712	San Antonio Palopó	9	San Antonio Palopo	6	Junio	2023-06-30T00:00:00	2024-11-08T05:00:00	2	Temperatura media	19.4
179998	7	Sololá	712	San Antonio Palopó	9	San Antonio Palopo	6	Junio	2023-06-30T00:00:00	2024-11-08T05:00:00	4	Temperatura máxima	19.7
179999	7	Sololá	712	San Antonio Palopó	9	San Antonio Palopo	6	Junio	2023-06-30T00:00:00	2024-11-08T05:00:00	3	Temperatura mínima	19.4
180000	7	Sololá	712	San Antonio Palopó	9	San Antonio Palopo	6	Junio	2023-06-30T00:00:00	2024-11-08T05:00:00	5	Humedad	75
180001	7	Sololá	712	San Antonio Palopó	9	San Antonio Palopo	6	Junio	2023-06-30T00:00:00	2024-11-08T05:00:00	6	Velocidad del viento	12.9
180002	7	Sololá	712	San Antonio Palopó	9	San Antonio Palopo	6	Junio	2023-06-30T00:00:00	2024-11-08T05:00:00	7	Dirección del viento	12.87
180003	7	Sololá	712	San Antonio Palopó	9	San Antonio Palopo	6	Junio	2023-06-30T00:00:00	2024-11-08T05:00:00	1	Precipitación	0
180004	7	Sololá	712	San Antonio Palopó	9	San Antonio Palopo	6	Junio	2023-06-30T00:00:00	2024-11-08T05:00:00	8	Radiación solar	0
180005	7	Sololá	712	San Antonio Palopó	9	San Antonio Palopo	6	Junio	2023-06-30T00:00:00	2024-11-08T06:00:00	2	Temperatura media	19.7
180006	7	Sololá	712	San Antonio Palopó	9	San Antonio Palopo	6	Junio	2023-06-30T00:00:00	2024-11-08T06:00:00	4	Temperatura máxima	19.7
180007	7	Sololá	712	San Antonio Palopó	9	San Antonio Palopo	6	Junio	2023-06-30T00:00:00	2024-11-08T06:00:00	3	Temperatura mínima	19
180008	7	Sololá	712	San Antonio Palopó	9	San Antonio Palopo	6	Junio	2023-06-30T00:00:00	2024-11-08T06:00:00	5	Humedad	73
180009	7	Sololá	712	San Antonio Palopó	9	San Antonio Palopo	6	Junio	2023-06-30T00:00:00	2024-11-08T06:00:00	6	Velocidad del viento	14.5
180010	7	Sololá	712	San Antonio Palopó	9	San Antonio Palopo	6	Junio	2023-06-30T00:00:00	2024-11-08T06:00:00	7	Dirección del viento	14.48
180011	7	Sololá	712	San Antonio Palopó	9	San Antonio Palopo	6	Junio	2023-06-30T00:00:00	2024-11-08T06:00:00	1	Precipitación	0
180012	7	Sololá	712	San Antonio Palopó	9	San Antonio Palopo	6	Junio	2023-06-30T00:00:00	2024-11-08T06:00:00	8	Radiación solar	9
180013	7	Sololá	712	San Antonio Palopó	9	San Antonio Palopo	6	Junio	2023-06-30T00:00:00	2024-11-08T07:00:00	2	Temperatura media	20.2
180014	7	Sololá	712	San Antonio Palopó	9	San Antonio Palopo	6	Junio	2023-06-30T00:00:00	2024-11-08T07:00:00	4	Temperatura máxima	20.3
180015	7	Sololá	712	San Antonio Palopó	9	San Antonio Palopo	6	Junio	2023-06-30T00:00:00	2024-11-08T07:00:00	3	Temperatura mínima	19.7
180016	7	Sololá	712	San Antonio Palopó	9	San Antonio Palopo	6	Junio	2023-06-30T00:00:00	2024-11-08T07:00:00	5	Humedad	72
180017	7	Sololá	712	San Antonio Palopó	9	San Antonio Palopo	6	Junio	2023-06-30T00:00:00	2024-11-08T07:00:00	6	Velocidad del viento	11.3
180018	7	Sololá	712	San Antonio Palopó	9	San Antonio Palopo	6	Junio	2023-06-30T00:00:00	2024-11-08T07:00:00	7	Dirección del viento	11.27
180019	7	Sololá	712	San Antonio Palopó	9	San Antonio Palopo	6	Junio	2023-06-30T00:00:00	2024-11-08T07:00:00	1	Precipitación	0
180020	7	Sololá	712	San Antonio Palopó	9	San Antonio Palopo	6	Junio	2023-06-30T00:00:00	2024-11-08T07:00:00	8	Radiación solar	65
180021	7	Sololá	712	San Antonio Palopó	9	San Antonio Palopo	6	Junio	2023-06-30T00:00:00	2024-11-08T08:00:00	2	Temperatura media	20.9
180022	7	Sololá	712	San Antonio Palopó	9	San Antonio Palopo	6	Junio	2023-06-30T00:00:00	2024-11-08T08:00:00	4	Temperatura máxima	21.1
180023	7	Sololá	712	San Antonio Palopó	9	San Antonio Palopo	6	Junio	2023-06-30T00:00:00	2024-11-08T08:00:00	3	Temperatura mínima	20.3
180024	7	Sololá	712	San Antonio Palopó	9	San Antonio Palopo	6	Junio	2023-06-30T00:00:00	2024-11-08T08:00:00	5	Humedad	71
180025	7	Sololá	712	San Antonio Palopó	9	San Antonio Palopo	6	Junio	2023-06-30T00:00:00	2024-11-08T08:00:00	6	Velocidad del viento	3.2
180026	7	Sololá	712	San Antonio Palopó	9	San Antonio Palopo	6	Junio	2023-06-30T00:00:00	2024-11-08T08:00:00	7	Dirección del viento	3.22
180027	7	Sololá	712	San Antonio Palopó	9	San Antonio Palopo	6	Junio	2023-06-30T00:00:00	2024-11-08T08:00:00	1	Precipitación	0
180028	7	Sololá	712	San Antonio Palopó	9	San Antonio Palopo	6	Junio	2023-06-30T00:00:00	2024-11-08T08:00:00	8	Radiación solar	283
180029	7	Sololá	712	San Antonio Palopó	9	San Antonio Palopo	6	Junio	2023-06-30T00:00:00	2024-11-08T09:00:00	2	Temperatura media	23.6
180030	7	Sololá	712	San Antonio Palopó	9	San Antonio Palopo	6	Junio	2023-06-30T00:00:00	2024-11-08T09:00:00	4	Temperatura máxima	23.6
180031	7	Sololá	712	San Antonio Palopó	9	San Antonio Palopo	6	Junio	2023-06-30T00:00:00	2024-11-08T09:00:00	3	Temperatura mínima	20.9
180032	7	Sololá	712	San Antonio Palopó	9	San Antonio Palopo	6	Junio	2023-06-30T00:00:00	2024-11-08T09:00:00	5	Humedad	63
180033	7	Sololá	712	San Antonio Palopó	9	San Antonio Palopo	6	Junio	2023-06-30T00:00:00	2024-11-08T09:00:00	6	Velocidad del viento	1.6
180034	7	Sololá	712	San Antonio Palopó	9	San Antonio Palopo	6	Junio	2023-06-30T00:00:00	2024-11-08T09:00:00	7	Dirección del viento	1.61
180035	7	Sololá	712	San Antonio Palopó	9	San Antonio Palopo	6	Junio	2023-06-30T00:00:00	2024-11-08T09:00:00	1	Precipitación	0
180036	7	Sololá	712	San Antonio Palopó	9	San Antonio Palopo	6	Junio	2023-06-30T00:00:00	2024-11-08T09:00:00	8	Radiación solar	557
180037	7	Sololá	712	San Antonio Palopó	9	San Antonio Palopo	6	Junio	2023-06-30T00:00:00	2024-11-08T10:00:00	2	Temperatura media	24.6
180038	7	Sololá	712	San Antonio Palopó	9	San Antonio Palopo	6	Junio	2023-06-30T00:00:00	2024-11-08T10:00:00	4	Temperatura máxima	24.6
180039	7	Sololá	712	San Antonio Palopó	9	San Antonio Palopo	6	Junio	2023-06-30T00:00:00	2024-11-08T10:00:00	3	Temperatura mínima	23.5
180040	7	Sololá	712	San Antonio Palopó	9	San Antonio Palopo	6	Junio	2023-06-30T00:00:00	2024-11-08T10:00:00	5	Humedad	65
180041	7	Sololá	712	San Antonio Palopó	9	San Antonio Palopo	6	Junio	2023-06-30T00:00:00	2024-11-08T10:00:00	6	Velocidad del viento	3.2
180042	7	Sololá	712	San Antonio Palopó	9	San Antonio Palopo	6	Junio	2023-06-30T00:00:00	2024-11-08T10:00:00	7	Dirección del viento	3.22
180043	7	Sololá	712	San Antonio Palopó	9	San Antonio Palopo	6	Junio	2023-06-30T00:00:00	2024-11-08T10:00:00	1	Precipitación	0
180044	7	Sololá	712	San Antonio Palopó	9	San Antonio Palopo	6	Junio	2023-06-30T00:00:00	2024-11-08T10:00:00	8	Radiación solar	724
180045	7	Sololá	712	San Antonio Palopó	9	San Antonio Palopo	6	Junio	2023-06-30T00:00:00	2024-11-08T11:00:00	2	Temperatura media	26.4
180046	7	Sololá	712	San Antonio Palopó	9	San Antonio Palopo	6	Junio	2023-06-30T00:00:00	2024-11-08T11:00:00	4	Temperatura máxima	26.6
180047	7	Sololá	712	San Antonio Palopó	9	San Antonio Palopo	6	Junio	2023-06-30T00:00:00	2024-11-08T11:00:00	3	Temperatura mínima	24.2
180048	7	Sololá	712	San Antonio Palopó	9	San Antonio Palopo	6	Junio	2023-06-30T00:00:00	2024-11-08T11:00:00	5	Humedad	53
180049	7	Sololá	712	San Antonio Palopó	9	San Antonio Palopo	6	Junio	2023-06-30T00:00:00	2024-11-08T11:00:00	6	Velocidad del viento	6.4
180050	7	Sololá	712	San Antonio Palopó	9	San Antonio Palopo	6	Junio	2023-06-30T00:00:00	2024-11-08T11:00:00	7	Dirección del viento	6.44
180051	7	Sololá	712	San Antonio Palopó	9	San Antonio Palopo	6	Junio	2023-06-30T00:00:00	2024-11-08T11:00:00	1	Precipitación	0
180052	7	Sololá	712	San Antonio Palopó	9	San Antonio Palopo	6	Junio	2023-06-30T00:00:00	2024-11-08T11:00:00	8	Radiación solar	716
180053	7	Sololá	712	San Antonio Palopó	9	San Antonio Palopo	6	Junio	2023-06-30T00:00:00	2024-11-08T12:00:00	2	Temperatura media	27.9
180054	7	Sololá	712	San Antonio Palopó	9	San Antonio Palopo	6	Junio	2023-06-30T00:00:00	2024-11-08T12:00:00	4	Temperatura máxima	27.9
180055	7	Sololá	712	San Antonio Palopó	9	San Antonio Palopo	6	Junio	2023-06-30T00:00:00	2024-11-08T12:00:00	3	Temperatura mínima	25.6
180056	7	Sololá	712	San Antonio Palopó	9	San Antonio Palopo	6	Junio	2023-06-30T00:00:00	2024-11-08T12:00:00	5	Humedad	47
180057	7	Sololá	712	San Antonio Palopó	9	San Antonio Palopo	6	Junio	2023-06-30T00:00:00	2024-11-08T12:00:00	6	Velocidad del viento	8
180058	7	Sololá	712	San Antonio Palopó	9	San Antonio Palopo	6	Junio	2023-06-30T00:00:00	2024-11-08T12:00:00	7	Dirección del viento	8.05
180059	7	Sololá	712	San Antonio Palopó	9	San Antonio Palopo	6	Junio	2023-06-30T00:00:00	2024-11-08T12:00:00	1	Precipitación	0
180060	7	Sololá	712	San Antonio Palopó	9	San Antonio Palopo	6	Junio	2023-06-30T00:00:00	2024-11-08T12:00:00	8	Radiación solar	573
180061	7	Sololá	712	San Antonio Palopó	9	San Antonio Palopo	6	Junio	2023-06-30T00:00:00	2024-11-08T13:00:00	2	Temperatura media	28.8
180062	7	Sololá	712	San Antonio Palopó	9	San Antonio Palopo	6	Junio	2023-06-30T00:00:00	2024-11-08T13:00:00	4	Temperatura máxima	28.8
180063	7	Sololá	712	San Antonio Palopó	9	San Antonio Palopo	6	Junio	2023-06-30T00:00:00	2024-11-08T13:00:00	3	Temperatura mínima	27.8
180064	7	Sololá	712	San Antonio Palopó	9	San Antonio Palopo	6	Junio	2023-06-30T00:00:00	2024-11-08T13:00:00	5	Humedad	47
180065	7	Sololá	712	San Antonio Palopó	9	San Antonio Palopo	6	Junio	2023-06-30T00:00:00	2024-11-08T13:00:00	6	Velocidad del viento	8
180066	7	Sololá	712	San Antonio Palopó	9	San Antonio Palopo	6	Junio	2023-06-30T00:00:00	2024-11-08T13:00:00	7	Dirección del viento	8.05
180067	7	Sololá	712	San Antonio Palopó	9	San Antonio Palopo	6	Junio	2023-06-30T00:00:00	2024-11-08T13:00:00	1	Precipitación	0
180068	7	Sololá	712	San Antonio Palopó	9	San Antonio Palopo	6	Junio	2023-06-30T00:00:00	2024-11-08T13:00:00	8	Radiación solar	681
180069	7	Sololá	712	San Antonio Palopó	9	San Antonio Palopo	6	Junio	2023-06-30T00:00:00	2024-11-08T14:00:00	2	Temperatura media	29
180070	7	Sololá	712	San Antonio Palopó	9	San Antonio Palopo	6	Junio	2023-06-30T00:00:00	2024-11-08T14:00:00	4	Temperatura máxima	29.4
180071	7	Sololá	712	San Antonio Palopó	9	San Antonio Palopo	6	Junio	2023-06-30T00:00:00	2024-11-08T14:00:00	3	Temperatura mínima	27.9
180072	7	Sololá	712	San Antonio Palopó	9	San Antonio Palopo	6	Junio	2023-06-30T00:00:00	2024-11-08T14:00:00	5	Humedad	44
180073	7	Sololá	712	San Antonio Palopó	9	San Antonio Palopo	6	Junio	2023-06-30T00:00:00	2024-11-08T14:00:00	6	Velocidad del viento	8
180074	7	Sololá	712	San Antonio Palopó	9	San Antonio Palopo	6	Junio	2023-06-30T00:00:00	2024-11-08T14:00:00	7	Dirección del viento	8.05
180075	7	Sololá	712	San Antonio Palopó	9	San Antonio Palopo	6	Junio	2023-06-30T00:00:00	2024-11-08T14:00:00	1	Precipitación	0
180076	7	Sololá	712	San Antonio Palopó	9	San Antonio Palopo	6	Junio	2023-06-30T00:00:00	2024-11-08T14:00:00	8	Radiación solar	675
180077	7	Sololá	712	San Antonio Palopó	9	San Antonio Palopo	6	Junio	2023-06-30T00:00:00	2024-11-08T15:00:00	2	Temperatura media	26.3
180078	7	Sololá	712	San Antonio Palopó	9	San Antonio Palopo	6	Junio	2023-06-30T00:00:00	2024-11-08T15:00:00	4	Temperatura máxima	29
180079	7	Sololá	712	San Antonio Palopó	9	San Antonio Palopo	6	Junio	2023-06-30T00:00:00	2024-11-08T15:00:00	3	Temperatura mínima	26.1
180080	7	Sololá	712	San Antonio Palopó	9	San Antonio Palopo	6	Junio	2023-06-30T00:00:00	2024-11-08T15:00:00	5	Humedad	68
180081	7	Sololá	712	San Antonio Palopó	9	San Antonio Palopo	6	Junio	2023-06-30T00:00:00	2024-11-08T15:00:00	6	Velocidad del viento	9.7
180082	7	Sololá	712	San Antonio Palopó	9	San Antonio Palopo	6	Junio	2023-06-30T00:00:00	2024-11-08T15:00:00	7	Dirección del viento	9.66
180083	7	Sololá	712	San Antonio Palopó	9	San Antonio Palopo	6	Junio	2023-06-30T00:00:00	2024-11-08T15:00:00	1	Precipitación	0
180084	7	Sololá	712	San Antonio Palopó	9	San Antonio Palopo	6	Junio	2023-06-30T00:00:00	2024-11-08T15:00:00	8	Radiación solar	276
180085	7	Sololá	712	San Antonio Palopó	9	San Antonio Palopo	6	Junio	2023-06-30T00:00:00	2024-11-08T16:00:00	2	Temperatura media	25.8
180086	7	Sololá	712	San Antonio Palopó	9	San Antonio Palopo	6	Junio	2023-06-30T00:00:00	2024-11-08T16:00:00	4	Temperatura máxima	26.9
180087	7	Sololá	712	San Antonio Palopó	9	San Antonio Palopo	6	Junio	2023-06-30T00:00:00	2024-11-08T16:00:00	3	Temperatura mínima	25.4
180088	7	Sololá	712	San Antonio Palopó	9	San Antonio Palopo	6	Junio	2023-06-30T00:00:00	2024-11-08T16:00:00	5	Humedad	66
180089	7	Sololá	712	San Antonio Palopó	9	San Antonio Palopo	6	Junio	2023-06-30T00:00:00	2024-11-08T16:00:00	6	Velocidad del viento	12.9
180090	7	Sololá	712	San Antonio Palopó	9	San Antonio Palopo	6	Junio	2023-06-30T00:00:00	2024-11-08T16:00:00	7	Dirección del viento	12.87
180091	7	Sololá	712	San Antonio Palopó	9	San Antonio Palopo	6	Junio	2023-06-30T00:00:00	2024-11-08T16:00:00	1	Precipitación	0
180092	7	Sololá	712	San Antonio Palopó	9	San Antonio Palopo	6	Junio	2023-06-30T00:00:00	2024-11-08T16:00:00	8	Radiación solar	172
180093	7	Sololá	712	San Antonio Palopó	9	San Antonio Palopo	6	Junio	2023-06-30T00:00:00	2024-11-08T17:00:00	2	Temperatura media	24.6
180094	7	Sololá	712	San Antonio Palopó	9	San Antonio Palopo	6	Junio	2023-06-30T00:00:00	2024-11-08T17:00:00	4	Temperatura máxima	26.4
180095	7	Sololá	712	San Antonio Palopó	9	San Antonio Palopo	6	Junio	2023-06-30T00:00:00	2024-11-08T17:00:00	3	Temperatura mínima	24.4
180096	7	Sololá	712	San Antonio Palopó	9	San Antonio Palopo	6	Junio	2023-06-30T00:00:00	2024-11-08T17:00:00	5	Humedad	64
180097	7	Sololá	712	San Antonio Palopó	9	San Antonio Palopo	6	Junio	2023-06-30T00:00:00	2024-11-08T17:00:00	6	Velocidad del viento	4.8
180098	7	Sololá	712	San Antonio Palopó	9	San Antonio Palopo	6	Junio	2023-06-30T00:00:00	2024-11-08T17:00:00	7	Dirección del viento	4.83
180099	7	Sololá	712	San Antonio Palopó	9	San Antonio Palopo	6	Junio	2023-06-30T00:00:00	2024-11-08T17:00:00	1	Precipitación	0
180100	7	Sololá	712	San Antonio Palopó	9	San Antonio Palopo	6	Junio	2023-06-30T00:00:00	2024-11-08T17:00:00	8	Radiación solar	32
180101	7	Sololá	712	San Antonio Palopó	9	San Antonio Palopo	6	Junio	2023-06-30T00:00:00	2024-11-08T18:00:00	2	Temperatura media	22.9
180102	7	Sololá	712	San Antonio Palopó	9	San Antonio Palopo	6	Junio	2023-06-30T00:00:00	2024-11-08T18:00:00	4	Temperatura máxima	24.6
180103	7	Sololá	712	San Antonio Palopó	9	San Antonio Palopo	6	Junio	2023-06-30T00:00:00	2024-11-08T18:00:00	3	Temperatura mínima	22.9
180104	7	Sololá	712	San Antonio Palopó	9	San Antonio Palopo	6	Junio	2023-06-30T00:00:00	2024-11-08T18:00:00	5	Humedad	71
180105	7	Sololá	712	San Antonio Palopó	9	San Antonio Palopo	6	Junio	2023-06-30T00:00:00	2024-11-08T18:00:00	6	Velocidad del viento	3.2
180106	7	Sololá	712	San Antonio Palopó	9	San Antonio Palopo	6	Junio	2023-06-30T00:00:00	2024-11-08T18:00:00	7	Dirección del viento	3.22
180107	7	Sololá	712	San Antonio Palopó	9	San Antonio Palopo	6	Junio	2023-06-30T00:00:00	2024-11-08T18:00:00	1	Precipitación	0
180108	7	Sololá	712	San Antonio Palopó	9	San Antonio Palopo	6	Junio	2023-06-30T00:00:00	2024-11-08T18:00:00	8	Radiación solar	4
180109	7	Sololá	712	San Antonio Palopó	9	San Antonio Palopo	6	Junio	2023-06-30T00:00:00	2024-11-08T19:00:00	2	Temperatura media	21.9
180110	7	Sololá	712	San Antonio Palopó	9	San Antonio Palopo	6	Junio	2023-06-30T00:00:00	2024-11-08T19:00:00	4	Temperatura máxima	22.9
180111	7	Sololá	712	San Antonio Palopó	9	San Antonio Palopo	6	Junio	2023-06-30T00:00:00	2024-11-08T19:00:00	3	Temperatura mínima	21.9
180112	7	Sololá	712	San Antonio Palopó	9	San Antonio Palopo	6	Junio	2023-06-30T00:00:00	2024-11-08T19:00:00	5	Humedad	76
180113	7	Sololá	712	San Antonio Palopó	9	San Antonio Palopo	6	Junio	2023-06-30T00:00:00	2024-11-08T19:00:00	6	Velocidad del viento	1.6
180114	7	Sololá	712	San Antonio Palopó	9	San Antonio Palopo	6	Junio	2023-06-30T00:00:00	2024-11-08T19:00:00	7	Dirección del viento	1.61
180115	7	Sololá	712	San Antonio Palopó	9	San Antonio Palopo	6	Junio	2023-06-30T00:00:00	2024-11-08T19:00:00	1	Precipitación	0
180116	7	Sololá	712	San Antonio Palopó	9	San Antonio Palopo	6	Junio	2023-06-30T00:00:00	2024-11-08T19:00:00	8	Radiación solar	0
180117	7	Sololá	712	San Antonio Palopó	9	San Antonio Palopo	6	Junio	2023-06-30T00:00:00	2024-11-08T20:00:00	2	Temperatura media	21.8
180118	7	Sololá	712	San Antonio Palopó	9	San Antonio Palopo	6	Junio	2023-06-30T00:00:00	2024-11-08T20:00:00	4	Temperatura máxima	21.9
180119	7	Sololá	712	San Antonio Palopó	9	San Antonio Palopo	6	Junio	2023-06-30T00:00:00	2024-11-08T20:00:00	3	Temperatura mínima	21.7
180120	7	Sololá	712	San Antonio Palopó	9	San Antonio Palopo	6	Junio	2023-06-30T00:00:00	2024-11-08T20:00:00	5	Humedad	77
180121	7	Sololá	712	San Antonio Palopó	9	San Antonio Palopo	6	Junio	2023-06-30T00:00:00	2024-11-08T20:00:00	6	Velocidad del viento	1.6
180122	7	Sololá	712	San Antonio Palopó	9	San Antonio Palopo	6	Junio	2023-06-30T00:00:00	2024-11-08T20:00:00	7	Dirección del viento	1.61
180123	7	Sololá	712	San Antonio Palopó	9	San Antonio Palopo	6	Junio	2023-06-30T00:00:00	2024-11-08T20:00:00	1	Precipitación	0
180124	7	Sololá	712	San Antonio Palopó	9	San Antonio Palopo	6	Junio	2023-06-30T00:00:00	2024-11-08T20:00:00	8	Radiación solar	0
180125	7	Sololá	712	San Antonio Palopó	9	San Antonio Palopo	6	Junio	2023-06-30T00:00:00	2024-11-08T21:00:00	2	Temperatura media	21.7
180126	7	Sololá	712	San Antonio Palopó	9	San Antonio Palopo	6	Junio	2023-06-30T00:00:00	2024-11-08T21:00:00	4	Temperatura máxima	21.8
180127	7	Sololá	712	San Antonio Palopó	9	San Antonio Palopo	6	Junio	2023-06-30T00:00:00	2024-11-08T21:00:00	3	Temperatura mínima	21.6
180128	7	Sololá	712	San Antonio Palopó	9	San Antonio Palopo	6	Junio	2023-06-30T00:00:00	2024-11-08T21:00:00	5	Humedad	72
180129	7	Sololá	712	San Antonio Palopó	9	San Antonio Palopo	6	Junio	2023-06-30T00:00:00	2024-11-08T21:00:00	6	Velocidad del viento	4.8
180130	7	Sololá	712	San Antonio Palopó	9	San Antonio Palopo	6	Junio	2023-06-30T00:00:00	2024-11-08T21:00:00	7	Dirección del viento	4.83
180131	7	Sololá	712	San Antonio Palopó	9	San Antonio Palopo	6	Junio	2023-06-30T00:00:00	2024-11-08T21:00:00	1	Precipitación	0
180132	7	Sololá	712	San Antonio Palopó	9	San Antonio Palopo	6	Junio	2023-06-30T00:00:00	2024-11-08T21:00:00	8	Radiación solar	0
180133	7	Sololá	712	San Antonio Palopó	9	San Antonio Palopo	6	Junio	2023-06-30T00:00:00	2024-11-08T22:00:00	2	Temperatura media	21.2
180134	7	Sololá	712	San Antonio Palopó	9	San Antonio Palopo	6	Junio	2023-06-30T00:00:00	2024-11-08T22:00:00	4	Temperatura máxima	21.7
180135	7	Sololá	712	San Antonio Palopó	9	San Antonio Palopo	6	Junio	2023-06-30T00:00:00	2024-11-08T22:00:00	3	Temperatura mínima	21.1
180136	7	Sololá	712	San Antonio Palopó	9	San Antonio Palopo	6	Junio	2023-06-30T00:00:00	2024-11-08T22:00:00	5	Humedad	74
180137	7	Sololá	712	San Antonio Palopó	9	San Antonio Palopo	6	Junio	2023-06-30T00:00:00	2024-11-08T22:00:00	6	Velocidad del viento	6.4
180138	7	Sololá	712	San Antonio Palopó	9	San Antonio Palopo	6	Junio	2023-06-30T00:00:00	2024-11-08T22:00:00	7	Dirección del viento	6.44
180139	7	Sololá	712	San Antonio Palopó	9	San Antonio Palopo	6	Junio	2023-06-30T00:00:00	2024-11-08T22:00:00	1	Precipitación	0
180140	7	Sololá	712	San Antonio Palopó	9	San Antonio Palopo	6	Junio	2023-06-30T00:00:00	2024-11-08T22:00:00	8	Radiación solar	0
180141	7	Sololá	712	San Antonio Palopó	9	San Antonio Palopo	6	Junio	2023-06-30T00:00:00	2024-11-08T23:00:00	2	Temperatura media	20.8
180142	7	Sololá	712	San Antonio Palopó	9	San Antonio Palopo	6	Junio	2023-06-30T00:00:00	2024-11-08T23:00:00	4	Temperatura máxima	21.3
180143	7	Sololá	712	San Antonio Palopó	9	San Antonio Palopo	6	Junio	2023-06-30T00:00:00	2024-11-08T23:00:00	3	Temperatura mínima	20.8
180144	7	Sololá	712	San Antonio Palopó	9	San Antonio Palopo	6	Junio	2023-06-30T00:00:00	2024-11-08T23:00:00	5	Humedad	74
180145	7	Sololá	712	San Antonio Palopó	9	San Antonio Palopo	6	Junio	2023-06-30T00:00:00	2024-11-08T23:00:00	6	Velocidad del viento	11.3
180146	7	Sololá	712	San Antonio Palopó	9	San Antonio Palopo	6	Junio	2023-06-30T00:00:00	2024-11-08T23:00:00	7	Dirección del viento	11.27
180147	7	Sololá	712	San Antonio Palopó	9	San Antonio Palopo	6	Junio	2023-06-30T00:00:00	2024-11-08T23:00:00	1	Precipitación	0
180148	7	Sololá	712	San Antonio Palopó	9	San Antonio Palopo	6	Junio	2023-06-30T00:00:00	2024-11-08T23:00:00	8	Radiación solar	0
180149	7	Sololá	712	San Antonio Palopó	9	San Antonio Palopo	7	Julio	2023-01-07T00:00:00	2024-11-08T00:00:00	2	Temperatura media	20.8
180150	7	Sololá	712	San Antonio Palopó	9	San Antonio Palopo	7	Julio	2023-01-07T00:00:00	2024-11-08T00:00:00	4	Temperatura máxima	20.8
180151	7	Sololá	712	San Antonio Palopó	9	San Antonio Palopo	7	Julio	2023-01-07T00:00:00	2024-11-08T00:00:00	3	Temperatura mínima	20.6
180152	7	Sololá	712	San Antonio Palopó	9	San Antonio Palopo	7	Julio	2023-01-07T00:00:00	2024-11-08T00:00:00	5	Humedad	74
180153	7	Sololá	712	San Antonio Palopó	9	San Antonio Palopo	7	Julio	2023-01-07T00:00:00	2024-11-08T00:00:00	6	Velocidad del viento	9.7
180154	7	Sololá	712	San Antonio Palopó	9	San Antonio Palopo	7	Julio	2023-01-07T00:00:00	2024-11-08T00:00:00	7	Dirección del viento	9.66
180155	7	Sololá	712	San Antonio Palopó	9	San Antonio Palopo	7	Julio	2023-01-07T00:00:00	2024-11-08T00:00:00	1	Precipitación	0
180156	7	Sololá	712	San Antonio Palopó	9	San Antonio Palopo	7	Julio	2023-01-07T00:00:00	2024-11-08T00:00:00	8	Radiación solar	0
180157	7	Sololá	712	San Antonio Palopó	9	San Antonio Palopo	7	Julio	2023-01-07T00:00:00	2024-11-08T01:00:00	2	Temperatura media	20.6
180158	7	Sololá	712	San Antonio Palopó	9	San Antonio Palopo	7	Julio	2023-01-07T00:00:00	2024-11-08T01:00:00	4	Temperatura máxima	20.9
180159	7	Sololá	712	San Antonio Palopó	9	San Antonio Palopo	7	Julio	2023-01-07T00:00:00	2024-11-08T01:00:00	3	Temperatura mínima	20.4
180160	7	Sololá	712	San Antonio Palopó	9	San Antonio Palopo	7	Julio	2023-01-07T00:00:00	2024-11-08T01:00:00	5	Humedad	73
180161	7	Sololá	712	San Antonio Palopó	9	San Antonio Palopo	7	Julio	2023-01-07T00:00:00	2024-11-08T01:00:00	6	Velocidad del viento	16.1
180162	7	Sololá	712	San Antonio Palopó	9	San Antonio Palopo	7	Julio	2023-01-07T00:00:00	2024-11-08T01:00:00	7	Dirección del viento	16.09
180163	7	Sololá	712	San Antonio Palopó	9	San Antonio Palopo	7	Julio	2023-01-07T00:00:00	2024-11-08T01:00:00	1	Precipitación	0
180164	7	Sololá	712	San Antonio Palopó	9	San Antonio Palopo	7	Julio	2023-01-07T00:00:00	2024-11-08T01:00:00	8	Radiación solar	0
180165	7	Sololá	712	San Antonio Palopó	9	San Antonio Palopo	7	Julio	2023-01-07T00:00:00	2024-11-08T02:00:00	2	Temperatura media	20.3
180166	7	Sololá	712	San Antonio Palopó	9	San Antonio Palopo	7	Julio	2023-01-07T00:00:00	2024-11-08T02:00:00	4	Temperatura máxima	20.8
180167	7	Sololá	712	San Antonio Palopó	9	San Antonio Palopo	7	Julio	2023-01-07T00:00:00	2024-11-08T02:00:00	3	Temperatura mínima	20.3
180168	7	Sololá	712	San Antonio Palopó	9	San Antonio Palopo	7	Julio	2023-01-07T00:00:00	2024-11-08T02:00:00	5	Humedad	74
180169	7	Sololá	712	San Antonio Palopó	9	San Antonio Palopo	7	Julio	2023-01-07T00:00:00	2024-11-08T02:00:00	6	Velocidad del viento	8
180170	7	Sololá	712	San Antonio Palopó	9	San Antonio Palopo	7	Julio	2023-01-07T00:00:00	2024-11-08T02:00:00	7	Dirección del viento	8.05
180171	7	Sololá	712	San Antonio Palopó	9	San Antonio Palopo	7	Julio	2023-01-07T00:00:00	2024-11-08T02:00:00	1	Precipitación	0
180172	7	Sololá	712	San Antonio Palopó	9	San Antonio Palopo	7	Julio	2023-01-07T00:00:00	2024-11-08T02:00:00	8	Radiación solar	0
180173	7	Sololá	712	San Antonio Palopó	9	San Antonio Palopo	7	Julio	2023-01-07T00:00:00	2024-11-08T03:00:00	2	Temperatura media	20.4
180174	7	Sololá	712	San Antonio Palopó	9	San Antonio Palopo	7	Julio	2023-01-07T00:00:00	2024-11-08T03:00:00	4	Temperatura máxima	20.4
180175	7	Sololá	712	San Antonio Palopó	9	San Antonio Palopo	7	Julio	2023-01-07T00:00:00	2024-11-08T03:00:00	3	Temperatura mínima	20.1
180176	7	Sololá	712	San Antonio Palopó	9	San Antonio Palopo	7	Julio	2023-01-07T00:00:00	2024-11-08T03:00:00	5	Humedad	72
180177	7	Sololá	712	San Antonio Palopó	9	San Antonio Palopo	7	Julio	2023-01-07T00:00:00	2024-11-08T03:00:00	6	Velocidad del viento	9.7
180178	7	Sololá	712	San Antonio Palopó	9	San Antonio Palopo	7	Julio	2023-01-07T00:00:00	2024-11-08T03:00:00	7	Dirección del viento	9.66
180179	7	Sololá	712	San Antonio Palopó	9	San Antonio Palopo	7	Julio	2023-01-07T00:00:00	2024-11-08T03:00:00	1	Precipitación	0
180180	7	Sololá	712	San Antonio Palopó	9	San Antonio Palopo	7	Julio	2023-01-07T00:00:00	2024-11-08T03:00:00	8	Radiación solar	0
180181	7	Sololá	712	San Antonio Palopó	9	San Antonio Palopo	7	Julio	2023-01-07T00:00:00	2024-11-08T04:00:00	2	Temperatura media	19.8
180182	7	Sololá	712	San Antonio Palopó	9	San Antonio Palopo	7	Julio	2023-01-07T00:00:00	2024-11-08T04:00:00	4	Temperatura máxima	20.4
180183	7	Sololá	712	San Antonio Palopó	9	San Antonio Palopo	7	Julio	2023-01-07T00:00:00	2024-11-08T04:00:00	3	Temperatura mínima	19.8
180184	7	Sololá	712	San Antonio Palopó	9	San Antonio Palopo	7	Julio	2023-01-07T00:00:00	2024-11-08T04:00:00	5	Humedad	73
180185	7	Sololá	712	San Antonio Palopó	9	San Antonio Palopo	7	Julio	2023-01-07T00:00:00	2024-11-08T04:00:00	6	Velocidad del viento	11.3
180186	7	Sololá	712	San Antonio Palopó	9	San Antonio Palopo	7	Julio	2023-01-07T00:00:00	2024-11-08T04:00:00	7	Dirección del viento	11.27
180187	7	Sololá	712	San Antonio Palopó	9	San Antonio Palopo	7	Julio	2023-01-07T00:00:00	2024-11-08T04:00:00	1	Precipitación	0
180188	7	Sololá	712	San Antonio Palopó	9	San Antonio Palopo	7	Julio	2023-01-07T00:00:00	2024-11-08T04:00:00	8	Radiación solar	0
180189	7	Sololá	712	San Antonio Palopó	9	San Antonio Palopo	7	Julio	2023-01-07T00:00:00	2024-11-08T05:00:00	2	Temperatura media	19.8
180190	7	Sololá	712	San Antonio Palopó	9	San Antonio Palopo	7	Julio	2023-01-07T00:00:00	2024-11-08T05:00:00	4	Temperatura máxima	19.8
180191	7	Sololá	712	San Antonio Palopó	9	San Antonio Palopo	7	Julio	2023-01-07T00:00:00	2024-11-08T05:00:00	3	Temperatura mínima	19.6
180192	7	Sololá	712	San Antonio Palopó	9	San Antonio Palopo	7	Julio	2023-01-07T00:00:00	2024-11-08T05:00:00	5	Humedad	71
180193	7	Sololá	712	San Antonio Palopó	9	San Antonio Palopo	7	Julio	2023-01-07T00:00:00	2024-11-08T05:00:00	6	Velocidad del viento	11.3
180194	7	Sololá	712	San Antonio Palopó	9	San Antonio Palopo	7	Julio	2023-01-07T00:00:00	2024-11-08T05:00:00	7	Dirección del viento	11.27
180195	7	Sololá	712	San Antonio Palopó	9	San Antonio Palopo	7	Julio	2023-01-07T00:00:00	2024-11-08T05:00:00	1	Precipitación	0
180196	7	Sololá	712	San Antonio Palopó	9	San Antonio Palopo	7	Julio	2023-01-07T00:00:00	2024-11-08T05:00:00	8	Radiación solar	0
180197	7	Sololá	712	San Antonio Palopó	9	San Antonio Palopo	7	Julio	2023-01-07T00:00:00	2024-11-08T06:00:00	2	Temperatura media	19.2
180198	7	Sololá	712	San Antonio Palopó	9	San Antonio Palopo	7	Julio	2023-01-07T00:00:00	2024-11-08T06:00:00	4	Temperatura máxima	19.9
180199	7	Sololá	712	San Antonio Palopó	9	San Antonio Palopo	7	Julio	2023-01-07T00:00:00	2024-11-08T06:00:00	3	Temperatura mínima	19.2
180200	7	Sololá	712	San Antonio Palopó	9	San Antonio Palopo	7	Julio	2023-01-07T00:00:00	2024-11-08T06:00:00	5	Humedad	73
180201	7	Sololá	712	San Antonio Palopó	9	San Antonio Palopo	7	Julio	2023-01-07T00:00:00	2024-11-08T06:00:00	6	Velocidad del viento	4.8
180202	7	Sololá	712	San Antonio Palopó	9	San Antonio Palopo	7	Julio	2023-01-07T00:00:00	2024-11-08T06:00:00	7	Dirección del viento	4.83
180203	7	Sololá	712	San Antonio Palopó	9	San Antonio Palopo	7	Julio	2023-01-07T00:00:00	2024-11-08T06:00:00	1	Precipitación	0
180204	7	Sololá	712	San Antonio Palopó	9	San Antonio Palopo	7	Julio	2023-01-07T00:00:00	2024-11-08T06:00:00	8	Radiación solar	0
180205	7	Sololá	712	San Antonio Palopó	9	San Antonio Palopo	7	Julio	2023-01-07T00:00:00	2024-11-08T07:00:00	2	Temperatura media	19.5
180206	7	Sololá	712	San Antonio Palopó	9	San Antonio Palopo	7	Julio	2023-01-07T00:00:00	2024-11-08T07:00:00	4	Temperatura máxima	19.6
180207	7	Sololá	712	San Antonio Palopó	9	San Antonio Palopo	7	Julio	2023-01-07T00:00:00	2024-11-08T07:00:00	3	Temperatura mínima	19
180208	7	Sololá	712	San Antonio Palopó	9	San Antonio Palopo	7	Julio	2023-01-07T00:00:00	2024-11-08T07:00:00	5	Humedad	73
180209	7	Sololá	712	San Antonio Palopó	9	San Antonio Palopo	7	Julio	2023-01-07T00:00:00	2024-11-08T07:00:00	6	Velocidad del viento	6.4
180210	7	Sololá	712	San Antonio Palopó	9	San Antonio Palopo	7	Julio	2023-01-07T00:00:00	2024-11-08T07:00:00	7	Dirección del viento	6.44
180211	7	Sololá	712	San Antonio Palopó	9	San Antonio Palopo	7	Julio	2023-01-07T00:00:00	2024-11-08T07:00:00	1	Precipitación	0
180212	7	Sololá	712	San Antonio Palopó	9	San Antonio Palopo	7	Julio	2023-01-07T00:00:00	2024-11-08T07:00:00	8	Radiación solar	48
180213	7	Sololá	712	San Antonio Palopó	9	San Antonio Palopo	7	Julio	2023-01-07T00:00:00	2024-11-08T08:00:00	2	Temperatura media	21.1
180214	7	Sololá	712	San Antonio Palopó	9	San Antonio Palopo	7	Julio	2023-01-07T00:00:00	2024-11-08T08:00:00	4	Temperatura máxima	21.1
180215	7	Sololá	712	San Antonio Palopó	9	San Antonio Palopo	7	Julio	2023-01-07T00:00:00	2024-11-08T08:00:00	3	Temperatura mínima	19.5
180216	7	Sololá	712	San Antonio Palopó	9	San Antonio Palopo	7	Julio	2023-01-07T00:00:00	2024-11-08T08:00:00	5	Humedad	75
180217	7	Sololá	712	San Antonio Palopó	9	San Antonio Palopo	7	Julio	2023-01-07T00:00:00	2024-11-08T08:00:00	6	Velocidad del viento	1.6
180218	7	Sololá	712	San Antonio Palopó	9	San Antonio Palopo	7	Julio	2023-01-07T00:00:00	2024-11-08T08:00:00	7	Dirección del viento	1.61
180219	7	Sololá	712	San Antonio Palopó	9	San Antonio Palopo	7	Julio	2023-01-07T00:00:00	2024-11-08T08:00:00	1	Precipitación	0
180220	7	Sololá	712	San Antonio Palopó	9	San Antonio Palopo	7	Julio	2023-01-07T00:00:00	2024-11-08T08:00:00	8	Radiación solar	157
180221	7	Sololá	712	San Antonio Palopó	9	San Antonio Palopo	7	Julio	2023-01-07T00:00:00	2024-11-08T09:00:00	2	Temperatura media	22.7
180222	7	Sololá	712	San Antonio Palopó	9	San Antonio Palopo	7	Julio	2023-01-07T00:00:00	2024-11-08T09:00:00	4	Temperatura máxima	22.9
180223	7	Sololá	712	San Antonio Palopó	9	San Antonio Palopo	7	Julio	2023-01-07T00:00:00	2024-11-08T09:00:00	3	Temperatura mínima	21.1
180224	7	Sololá	712	San Antonio Palopó	9	San Antonio Palopo	7	Julio	2023-01-07T00:00:00	2024-11-08T09:00:00	5	Humedad	70
180225	7	Sololá	712	San Antonio Palopó	9	San Antonio Palopo	7	Julio	2023-01-07T00:00:00	2024-11-08T09:00:00	6	Velocidad del viento	1.6
180226	7	Sololá	712	San Antonio Palopó	9	San Antonio Palopo	7	Julio	2023-01-07T00:00:00	2024-11-08T09:00:00	7	Dirección del viento	1.61
180227	7	Sololá	712	San Antonio Palopó	9	San Antonio Palopo	7	Julio	2023-01-07T00:00:00	2024-11-08T09:00:00	1	Precipitación	0
180228	7	Sololá	712	San Antonio Palopó	9	San Antonio Palopo	7	Julio	2023-01-07T00:00:00	2024-11-08T09:00:00	8	Radiación solar	300
180229	7	Sololá	712	San Antonio Palopó	9	San Antonio Palopo	7	Julio	2023-01-07T00:00:00	2024-11-08T10:00:00	2	Temperatura media	24.1
180230	7	Sololá	712	San Antonio Palopó	9	San Antonio Palopo	7	Julio	2023-01-07T00:00:00	2024-11-08T10:00:00	4	Temperatura máxima	24.2
180231	7	Sololá	712	San Antonio Palopó	9	San Antonio Palopo	7	Julio	2023-01-07T00:00:00	2024-11-08T10:00:00	3	Temperatura mínima	22.7
180232	7	Sololá	712	San Antonio Palopó	9	San Antonio Palopo	7	Julio	2023-01-07T00:00:00	2024-11-08T10:00:00	5	Humedad	68
180233	7	Sololá	712	San Antonio Palopó	9	San Antonio Palopo	7	Julio	2023-01-07T00:00:00	2024-11-08T10:00:00	6	Velocidad del viento	3.2
180234	7	Sololá	712	San Antonio Palopó	9	San Antonio Palopo	7	Julio	2023-01-07T00:00:00	2024-11-08T10:00:00	7	Dirección del viento	3.22
180235	7	Sololá	712	San Antonio Palopó	9	San Antonio Palopo	7	Julio	2023-01-07T00:00:00	2024-11-08T10:00:00	1	Precipitación	0
180236	7	Sololá	712	San Antonio Palopó	9	San Antonio Palopo	7	Julio	2023-01-07T00:00:00	2024-11-08T10:00:00	8	Radiación solar	501
180237	7	Sololá	712	San Antonio Palopó	9	San Antonio Palopo	7	Julio	2023-01-07T00:00:00	2024-11-08T11:00:00	2	Temperatura media	24.5
180238	7	Sololá	712	San Antonio Palopó	9	San Antonio Palopo	7	Julio	2023-01-07T00:00:00	2024-11-08T11:00:00	4	Temperatura máxima	24.5
180239	7	Sololá	712	San Antonio Palopó	9	San Antonio Palopo	7	Julio	2023-01-07T00:00:00	2024-11-08T11:00:00	3	Temperatura mínima	23.7
180240	7	Sololá	712	San Antonio Palopó	9	San Antonio Palopo	7	Julio	2023-01-07T00:00:00	2024-11-08T11:00:00	5	Humedad	64
180241	7	Sololá	712	San Antonio Palopó	9	San Antonio Palopo	7	Julio	2023-01-07T00:00:00	2024-11-08T11:00:00	6	Velocidad del viento	1.6
180242	7	Sololá	712	San Antonio Palopó	9	San Antonio Palopo	7	Julio	2023-01-07T00:00:00	2024-11-08T11:00:00	7	Dirección del viento	1.61
180243	7	Sololá	712	San Antonio Palopó	9	San Antonio Palopo	7	Julio	2023-01-07T00:00:00	2024-11-08T11:00:00	1	Precipitación	0
180244	7	Sololá	712	San Antonio Palopó	9	San Antonio Palopo	7	Julio	2023-01-07T00:00:00	2024-11-08T11:00:00	8	Radiación solar	465
180245	7	Sololá	712	San Antonio Palopó	9	San Antonio Palopo	7	Julio	2023-01-07T00:00:00	2024-11-08T12:00:00	2	Temperatura media	27.3
180246	7	Sololá	712	San Antonio Palopó	9	San Antonio Palopo	7	Julio	2023-01-07T00:00:00	2024-11-08T12:00:00	4	Temperatura máxima	27.5
180247	7	Sololá	712	San Antonio Palopó	9	San Antonio Palopo	7	Julio	2023-01-07T00:00:00	2024-11-08T12:00:00	3	Temperatura mínima	24.5
180248	7	Sololá	712	San Antonio Palopó	9	San Antonio Palopo	7	Julio	2023-01-07T00:00:00	2024-11-08T12:00:00	5	Humedad	61
180249	7	Sololá	712	San Antonio Palopó	9	San Antonio Palopo	7	Julio	2023-01-07T00:00:00	2024-11-08T12:00:00	6	Velocidad del viento	4.8
180250	7	Sololá	712	San Antonio Palopó	9	San Antonio Palopo	7	Julio	2023-01-07T00:00:00	2024-11-08T12:00:00	7	Dirección del viento	4.83
180251	7	Sololá	712	San Antonio Palopó	9	San Antonio Palopo	7	Julio	2023-01-07T00:00:00	2024-11-08T12:00:00	1	Precipitación	0
180252	7	Sololá	712	San Antonio Palopó	9	San Antonio Palopo	7	Julio	2023-01-07T00:00:00	2024-11-08T12:00:00	8	Radiación solar	600
180253	7	Sololá	712	San Antonio Palopó	9	San Antonio Palopo	7	Julio	2023-01-07T00:00:00	2024-11-08T13:00:00	2	Temperatura media	26.6
180254	7	Sololá	712	San Antonio Palopó	9	San Antonio Palopo	7	Julio	2023-01-07T00:00:00	2024-11-08T13:00:00	4	Temperatura máxima	27.4
180255	7	Sololá	712	San Antonio Palopó	9	San Antonio Palopo	7	Julio	2023-01-07T00:00:00	2024-11-08T13:00:00	3	Temperatura mínima	26.1
180256	7	Sololá	712	San Antonio Palopó	9	San Antonio Palopo	7	Julio	2023-01-07T00:00:00	2024-11-08T13:00:00	5	Humedad	63
180257	7	Sololá	712	San Antonio Palopó	9	San Antonio Palopo	7	Julio	2023-01-07T00:00:00	2024-11-08T13:00:00	6	Velocidad del viento	6.4
180258	7	Sololá	712	San Antonio Palopó	9	San Antonio Palopo	7	Julio	2023-01-07T00:00:00	2024-11-08T13:00:00	7	Dirección del viento	6.44
180259	7	Sololá	712	San Antonio Palopó	9	San Antonio Palopo	7	Julio	2023-01-07T00:00:00	2024-11-08T13:00:00	1	Precipitación	0
180260	7	Sololá	712	San Antonio Palopó	9	San Antonio Palopo	7	Julio	2023-01-07T00:00:00	2024-11-08T13:00:00	8	Radiación solar	450
180261	7	Sololá	712	San Antonio Palopó	9	San Antonio Palopo	7	Julio	2023-01-07T00:00:00	2024-11-08T14:00:00	2	Temperatura media	26.4
180262	7	Sololá	712	San Antonio Palopó	9	San Antonio Palopo	7	Julio	2023-01-07T00:00:00	2024-11-08T14:00:00	4	Temperatura máxima	27.2
180263	7	Sololá	712	San Antonio Palopó	9	San Antonio Palopo	7	Julio	2023-01-07T00:00:00	2024-11-08T14:00:00	3	Temperatura mínima	26.4
180264	7	Sololá	712	San Antonio Palopó	9	San Antonio Palopo	7	Julio	2023-01-07T00:00:00	2024-11-08T14:00:00	5	Humedad	65
180265	7	Sololá	712	San Antonio Palopó	9	San Antonio Palopo	7	Julio	2023-01-07T00:00:00	2024-11-08T14:00:00	6	Velocidad del viento	8
180266	7	Sololá	712	San Antonio Palopó	9	San Antonio Palopo	7	Julio	2023-01-07T00:00:00	2024-11-08T14:00:00	7	Dirección del viento	8.05
180267	7	Sololá	712	San Antonio Palopó	9	San Antonio Palopo	7	Julio	2023-01-07T00:00:00	2024-11-08T14:00:00	1	Precipitación	0
180268	7	Sololá	712	San Antonio Palopó	9	San Antonio Palopo	7	Julio	2023-01-07T00:00:00	2024-11-08T14:00:00	8	Radiación solar	560
180269	7	Sololá	712	San Antonio Palopó	9	San Antonio Palopo	7	Julio	2023-01-07T00:00:00	2024-11-08T15:00:00	2	Temperatura media	21.8
180270	7	Sololá	712	San Antonio Palopó	9	San Antonio Palopo	7	Julio	2023-01-07T00:00:00	2024-11-08T15:00:00	4	Temperatura máxima	26.4
180271	7	Sololá	712	San Antonio Palopó	9	San Antonio Palopo	7	Julio	2023-01-07T00:00:00	2024-11-08T15:00:00	3	Temperatura mínima	21.7
180272	7	Sololá	712	San Antonio Palopó	9	San Antonio Palopo	7	Julio	2023-01-07T00:00:00	2024-11-08T15:00:00	5	Humedad	75
180273	7	Sololá	712	San Antonio Palopó	9	San Antonio Palopo	7	Julio	2023-01-07T00:00:00	2024-11-08T15:00:00	6	Velocidad del viento	6.4
180274	7	Sololá	712	San Antonio Palopó	9	San Antonio Palopo	7	Julio	2023-01-07T00:00:00	2024-11-08T15:00:00	7	Dirección del viento	6.44
180275	7	Sololá	712	San Antonio Palopó	9	San Antonio Palopo	7	Julio	2023-01-07T00:00:00	2024-11-08T15:00:00	1	Precipitación	0
180276	7	Sololá	712	San Antonio Palopó	9	San Antonio Palopo	7	Julio	2023-01-07T00:00:00	2024-11-08T15:00:00	8	Radiación solar	705
180277	7	Sololá	712	San Antonio Palopó	9	San Antonio Palopo	7	Julio	2023-01-07T00:00:00	2024-11-08T16:00:00	2	Temperatura media	17.9
180278	7	Sololá	712	San Antonio Palopó	9	San Antonio Palopo	7	Julio	2023-01-07T00:00:00	2024-11-08T16:00:00	4	Temperatura máxima	21.7
180279	7	Sololá	712	San Antonio Palopó	9	San Antonio Palopo	7	Julio	2023-01-07T00:00:00	2024-11-08T16:00:00	3	Temperatura mínima	17.9
180280	7	Sololá	712	San Antonio Palopó	9	San Antonio Palopo	7	Julio	2023-01-07T00:00:00	2024-11-08T16:00:00	5	Humedad	87
180281	7	Sololá	712	San Antonio Palopó	9	San Antonio Palopo	7	Julio	2023-01-07T00:00:00	2024-11-08T16:00:00	6	Velocidad del viento	8
180282	7	Sololá	712	San Antonio Palopó	9	San Antonio Palopo	7	Julio	2023-01-07T00:00:00	2024-11-08T16:00:00	7	Dirección del viento	8.05
180283	7	Sololá	712	San Antonio Palopó	9	San Antonio Palopo	7	Julio	2023-01-07T00:00:00	2024-11-08T16:00:00	1	Precipitación	13.4
180284	7	Sololá	712	San Antonio Palopó	9	San Antonio Palopo	7	Julio	2023-01-07T00:00:00	2024-11-08T16:00:00	8	Radiación solar	401
180285	7	Sololá	712	San Antonio Palopó	9	San Antonio Palopo	7	Julio	2023-01-07T00:00:00	2024-11-08T17:00:00	2	Temperatura media	17.6
180286	7	Sololá	712	San Antonio Palopó	9	San Antonio Palopo	7	Julio	2023-01-07T00:00:00	2024-11-08T17:00:00	4	Temperatura máxima	17.9
180287	7	Sololá	712	San Antonio Palopó	9	San Antonio Palopo	7	Julio	2023-01-07T00:00:00	2024-11-08T17:00:00	3	Temperatura mínima	17.6
180288	7	Sololá	712	San Antonio Palopó	9	San Antonio Palopo	7	Julio	2023-01-07T00:00:00	2024-11-08T17:00:00	5	Humedad	88
180289	7	Sololá	712	San Antonio Palopó	9	San Antonio Palopo	7	Julio	2023-01-07T00:00:00	2024-11-08T17:00:00	6	Velocidad del viento	3.2
180290	7	Sololá	712	San Antonio Palopó	9	San Antonio Palopo	7	Julio	2023-01-07T00:00:00	2024-11-08T17:00:00	7	Dirección del viento	3.22
180291	7	Sololá	712	San Antonio Palopó	9	San Antonio Palopo	7	Julio	2023-01-07T00:00:00	2024-11-08T17:00:00	1	Precipitación	9.4
180292	7	Sololá	712	San Antonio Palopó	9	San Antonio Palopo	7	Julio	2023-01-07T00:00:00	2024-11-08T17:00:00	8	Radiación solar	81
180293	7	Sololá	712	San Antonio Palopó	9	San Antonio Palopo	7	Julio	2023-01-07T00:00:00	2024-11-08T18:00:00	2	Temperatura media	16.9
180294	7	Sololá	712	San Antonio Palopó	9	San Antonio Palopo	7	Julio	2023-01-07T00:00:00	2024-11-08T18:00:00	4	Temperatura máxima	17.6
180295	7	Sololá	712	San Antonio Palopó	9	San Antonio Palopo	7	Julio	2023-01-07T00:00:00	2024-11-08T18:00:00	3	Temperatura mínima	16.7
180296	7	Sololá	712	San Antonio Palopó	9	San Antonio Palopo	7	Julio	2023-01-07T00:00:00	2024-11-08T18:00:00	5	Humedad	92
180297	7	Sololá	712	San Antonio Palopó	9	San Antonio Palopo	7	Julio	2023-01-07T00:00:00	2024-11-08T18:00:00	6	Velocidad del viento	3.2
180298	7	Sololá	712	San Antonio Palopó	9	San Antonio Palopo	7	Julio	2023-01-07T00:00:00	2024-11-08T18:00:00	7	Dirección del viento	3.22
180299	7	Sololá	712	San Antonio Palopó	9	San Antonio Palopo	7	Julio	2023-01-07T00:00:00	2024-11-08T18:00:00	1	Precipitación	10.4
180300	7	Sololá	712	San Antonio Palopó	9	San Antonio Palopo	7	Julio	2023-01-07T00:00:00	2024-11-08T18:00:00	8	Radiación solar	25
180301	7	Sololá	712	San Antonio Palopó	9	San Antonio Palopo	7	Julio	2023-01-07T00:00:00	2024-11-08T19:00:00	2	Temperatura media	17.1
180302	7	Sololá	712	San Antonio Palopó	9	San Antonio Palopo	7	Julio	2023-01-07T00:00:00	2024-11-08T19:00:00	4	Temperatura máxima	17.1
180303	7	Sololá	712	San Antonio Palopó	9	San Antonio Palopo	7	Julio	2023-01-07T00:00:00	2024-11-08T19:00:00	3	Temperatura mínima	16.8
180304	7	Sololá	712	San Antonio Palopó	9	San Antonio Palopo	7	Julio	2023-01-07T00:00:00	2024-11-08T19:00:00	5	Humedad	92
180305	7	Sololá	712	San Antonio Palopó	9	San Antonio Palopo	7	Julio	2023-01-07T00:00:00	2024-11-08T19:00:00	6	Velocidad del viento	1.6
180306	7	Sololá	712	San Antonio Palopó	9	San Antonio Palopo	7	Julio	2023-01-07T00:00:00	2024-11-08T19:00:00	7	Dirección del viento	1.61
180307	7	Sololá	712	San Antonio Palopó	9	San Antonio Palopo	7	Julio	2023-01-07T00:00:00	2024-11-08T19:00:00	1	Precipitación	0.8
180308	7	Sololá	712	San Antonio Palopó	9	San Antonio Palopo	7	Julio	2023-01-07T00:00:00	2024-11-08T19:00:00	8	Radiación solar	0
180309	7	Sololá	712	San Antonio Palopó	9	San Antonio Palopo	7	Julio	2023-01-07T00:00:00	2024-11-08T20:00:00	2	Temperatura media	17.7
180310	7	Sololá	712	San Antonio Palopó	9	San Antonio Palopo	7	Julio	2023-01-07T00:00:00	2024-11-08T20:00:00	4	Temperatura máxima	17.8
180311	7	Sololá	712	San Antonio Palopó	9	San Antonio Palopo	7	Julio	2023-01-07T00:00:00	2024-11-08T20:00:00	3	Temperatura mínima	17
180312	7	Sololá	712	San Antonio Palopó	9	San Antonio Palopo	7	Julio	2023-01-07T00:00:00	2024-11-08T20:00:00	5	Humedad	89
180313	7	Sololá	712	San Antonio Palopó	9	San Antonio Palopo	7	Julio	2023-01-07T00:00:00	2024-11-08T20:00:00	6	Velocidad del viento	3.2
180314	7	Sololá	712	San Antonio Palopó	9	San Antonio Palopo	7	Julio	2023-01-07T00:00:00	2024-11-08T20:00:00	7	Dirección del viento	3.22
180315	7	Sololá	712	San Antonio Palopó	9	San Antonio Palopo	7	Julio	2023-01-07T00:00:00	2024-11-08T20:00:00	1	Precipitación	0
180316	7	Sololá	712	San Antonio Palopó	9	San Antonio Palopo	7	Julio	2023-01-07T00:00:00	2024-11-08T20:00:00	8	Radiación solar	0
180317	7	Sololá	712	San Antonio Palopó	9	San Antonio Palopo	7	Julio	2023-01-07T00:00:00	2024-11-08T21:00:00	2	Temperatura media	18.3
180318	7	Sololá	712	San Antonio Palopó	9	San Antonio Palopo	7	Julio	2023-01-07T00:00:00	2024-11-08T21:00:00	4	Temperatura máxima	18.4
180319	7	Sololá	712	San Antonio Palopó	9	San Antonio Palopo	7	Julio	2023-01-07T00:00:00	2024-11-08T21:00:00	3	Temperatura mínima	17.6
180320	7	Sololá	712	San Antonio Palopó	9	San Antonio Palopo	7	Julio	2023-01-07T00:00:00	2024-11-08T21:00:00	5	Humedad	84
180321	7	Sololá	712	San Antonio Palopó	9	San Antonio Palopo	7	Julio	2023-01-07T00:00:00	2024-11-08T21:00:00	6	Velocidad del viento	3.2
180322	7	Sololá	712	San Antonio Palopó	9	San Antonio Palopo	7	Julio	2023-01-07T00:00:00	2024-11-08T21:00:00	7	Dirección del viento	3.22
180323	7	Sololá	712	San Antonio Palopó	9	San Antonio Palopo	7	Julio	2023-01-07T00:00:00	2024-11-08T21:00:00	1	Precipitación	0
180324	7	Sololá	712	San Antonio Palopó	9	San Antonio Palopo	7	Julio	2023-01-07T00:00:00	2024-11-08T21:00:00	8	Radiación solar	0
180325	7	Sololá	712	San Antonio Palopó	9	San Antonio Palopo	7	Julio	2023-01-07T00:00:00	2024-11-08T22:00:00	2	Temperatura media	18.6
180326	7	Sololá	712	San Antonio Palopó	9	San Antonio Palopo	7	Julio	2023-01-07T00:00:00	2024-11-08T22:00:00	4	Temperatura máxima	18.7
180327	7	Sololá	712	San Antonio Palopó	9	San Antonio Palopo	7	Julio	2023-01-07T00:00:00	2024-11-08T22:00:00	3	Temperatura mínima	18.1
180328	7	Sololá	712	San Antonio Palopó	9	San Antonio Palopo	7	Julio	2023-01-07T00:00:00	2024-11-08T22:00:00	5	Humedad	81
180329	7	Sololá	712	San Antonio Palopó	9	San Antonio Palopo	7	Julio	2023-01-07T00:00:00	2024-11-08T22:00:00	6	Velocidad del viento	3.2
180330	7	Sololá	712	San Antonio Palopó	9	San Antonio Palopo	7	Julio	2023-01-07T00:00:00	2024-11-08T22:00:00	7	Dirección del viento	3.22
180331	7	Sololá	712	San Antonio Palopó	9	San Antonio Palopo	7	Julio	2023-01-07T00:00:00	2024-11-08T22:00:00	1	Precipitación	0
180332	7	Sololá	712	San Antonio Palopó	9	San Antonio Palopo	7	Julio	2023-01-07T00:00:00	2024-11-08T22:00:00	8	Radiación solar	0
180333	7	Sololá	712	San Antonio Palopó	9	San Antonio Palopo	7	Julio	2023-01-07T00:00:00	2024-11-08T23:00:00	2	Temperatura media	19.3
180334	7	Sololá	712	San Antonio Palopó	9	San Antonio Palopo	7	Julio	2023-01-07T00:00:00	2024-11-08T23:00:00	4	Temperatura máxima	19.3
180335	7	Sololá	712	San Antonio Palopó	9	San Antonio Palopo	7	Julio	2023-01-07T00:00:00	2024-11-08T23:00:00	3	Temperatura mínima	18.6
180336	7	Sololá	712	San Antonio Palopó	9	San Antonio Palopo	7	Julio	2023-01-07T00:00:00	2024-11-08T23:00:00	5	Humedad	74
180337	7	Sololá	712	San Antonio Palopó	9	San Antonio Palopo	7	Julio	2023-01-07T00:00:00	2024-11-08T23:00:00	6	Velocidad del viento	3.2
180338	7	Sololá	712	San Antonio Palopó	9	San Antonio Palopo	7	Julio	2023-01-07T00:00:00	2024-11-08T23:00:00	7	Dirección del viento	3.22
180339	7	Sololá	712	San Antonio Palopó	9	San Antonio Palopo	7	Julio	2023-01-07T00:00:00	2024-11-08T23:00:00	1	Precipitación	0
180340	7	Sololá	712	San Antonio Palopó	9	San Antonio Palopo	7	Julio	2023-01-07T00:00:00	2024-11-08T23:00:00	8	Radiación solar	0
180341	7	Sololá	712	San Antonio Palopó	9	San Antonio Palopo	7	Julio	2023-02-07T00:00:00	2024-11-08T00:00:00	2	Temperatura media	18.8
180342	7	Sololá	712	San Antonio Palopó	9	San Antonio Palopo	7	Julio	2023-02-07T00:00:00	2024-11-08T00:00:00	4	Temperatura máxima	19.4
180343	7	Sololá	712	San Antonio Palopó	9	San Antonio Palopo	7	Julio	2023-02-07T00:00:00	2024-11-08T00:00:00	3	Temperatura mínima	18.8
180344	7	Sololá	712	San Antonio Palopó	9	San Antonio Palopo	7	Julio	2023-02-07T00:00:00	2024-11-08T00:00:00	5	Humedad	78
180345	7	Sololá	712	San Antonio Palopó	9	San Antonio Palopo	7	Julio	2023-02-07T00:00:00	2024-11-08T00:00:00	6	Velocidad del viento	1.6
180346	7	Sololá	712	San Antonio Palopó	9	San Antonio Palopo	7	Julio	2023-02-07T00:00:00	2024-11-08T00:00:00	7	Dirección del viento	1.61
180347	7	Sololá	712	San Antonio Palopó	9	San Antonio Palopo	7	Julio	2023-02-07T00:00:00	2024-11-08T00:00:00	1	Precipitación	0
180348	7	Sololá	712	San Antonio Palopó	9	San Antonio Palopo	7	Julio	2023-02-07T00:00:00	2024-11-08T00:00:00	8	Radiación solar	0
180349	7	Sololá	712	San Antonio Palopó	9	San Antonio Palopo	7	Julio	2023-02-07T00:00:00	2024-11-08T01:00:00	2	Temperatura media	18.8
180350	7	Sololá	712	San Antonio Palopó	9	San Antonio Palopo	7	Julio	2023-02-07T00:00:00	2024-11-08T01:00:00	4	Temperatura máxima	19.1
180351	7	Sololá	712	San Antonio Palopó	9	San Antonio Palopo	7	Julio	2023-02-07T00:00:00	2024-11-08T01:00:00	3	Temperatura mínima	18.7
180352	7	Sololá	712	San Antonio Palopó	9	San Antonio Palopo	7	Julio	2023-02-07T00:00:00	2024-11-08T01:00:00	5	Humedad	77
180353	7	Sololá	712	San Antonio Palopó	9	San Antonio Palopo	7	Julio	2023-02-07T00:00:00	2024-11-08T01:00:00	6	Velocidad del viento	3.2
180354	7	Sololá	712	San Antonio Palopó	9	San Antonio Palopo	7	Julio	2023-02-07T00:00:00	2024-11-08T01:00:00	7	Dirección del viento	3.22
180355	7	Sololá	712	San Antonio Palopó	9	San Antonio Palopo	7	Julio	2023-02-07T00:00:00	2024-11-08T01:00:00	1	Precipitación	0
180356	7	Sololá	712	San Antonio Palopó	9	San Antonio Palopo	7	Julio	2023-02-07T00:00:00	2024-11-08T01:00:00	8	Radiación solar	0
180357	7	Sololá	712	San Antonio Palopó	9	San Antonio Palopo	7	Julio	2023-02-07T00:00:00	2024-11-08T02:00:00	2	Temperatura media	18.8
180358	7	Sololá	712	San Antonio Palopó	9	San Antonio Palopo	7	Julio	2023-02-07T00:00:00	2024-11-08T02:00:00	4	Temperatura máxima	19.1
180359	7	Sololá	712	San Antonio Palopó	9	San Antonio Palopo	7	Julio	2023-02-07T00:00:00	2024-11-08T02:00:00	3	Temperatura mínima	18.8
180360	7	Sololá	712	San Antonio Palopó	9	San Antonio Palopo	7	Julio	2023-02-07T00:00:00	2024-11-08T02:00:00	5	Humedad	80
180361	7	Sololá	712	San Antonio Palopó	9	San Antonio Palopo	7	Julio	2023-02-07T00:00:00	2024-11-08T02:00:00	6	Velocidad del viento	4.8
180362	7	Sololá	712	San Antonio Palopó	9	San Antonio Palopo	7	Julio	2023-02-07T00:00:00	2024-11-08T02:00:00	7	Dirección del viento	4.83
180363	7	Sololá	712	San Antonio Palopó	9	San Antonio Palopo	7	Julio	2023-02-07T00:00:00	2024-11-08T02:00:00	1	Precipitación	0
180364	7	Sololá	712	San Antonio Palopó	9	San Antonio Palopo	7	Julio	2023-02-07T00:00:00	2024-11-08T02:00:00	8	Radiación solar	0
180365	7	Sololá	712	San Antonio Palopó	9	San Antonio Palopo	7	Julio	2023-02-07T00:00:00	2024-11-08T03:00:00	2	Temperatura media	18.4
180366	7	Sololá	712	San Antonio Palopó	9	San Antonio Palopo	7	Julio	2023-02-07T00:00:00	2024-11-08T03:00:00	4	Temperatura máxima	18.8
180367	7	Sololá	712	San Antonio Palopó	9	San Antonio Palopo	7	Julio	2023-02-07T00:00:00	2024-11-08T03:00:00	3	Temperatura mínima	18.3
180368	7	Sololá	712	San Antonio Palopó	9	San Antonio Palopo	7	Julio	2023-02-07T00:00:00	2024-11-08T03:00:00	5	Humedad	77
180369	7	Sololá	712	San Antonio Palopó	9	San Antonio Palopo	7	Julio	2023-02-07T00:00:00	2024-11-08T03:00:00	6	Velocidad del viento	8
180370	7	Sololá	712	San Antonio Palopó	9	San Antonio Palopo	7	Julio	2023-02-07T00:00:00	2024-11-08T03:00:00	7	Dirección del viento	8.05
180371	7	Sololá	712	San Antonio Palopó	9	San Antonio Palopo	7	Julio	2023-02-07T00:00:00	2024-11-08T03:00:00	1	Precipitación	0
180372	7	Sololá	712	San Antonio Palopó	9	San Antonio Palopo	7	Julio	2023-02-07T00:00:00	2024-11-08T03:00:00	8	Radiación solar	0
180373	7	Sololá	712	San Antonio Palopó	9	San Antonio Palopo	7	Julio	2023-02-07T00:00:00	2024-11-08T04:00:00	2	Temperatura media	18.7
180374	7	Sololá	712	San Antonio Palopó	9	San Antonio Palopo	7	Julio	2023-02-07T00:00:00	2024-11-08T04:00:00	4	Temperatura máxima	18.7
180375	7	Sololá	712	San Antonio Palopó	9	San Antonio Palopo	7	Julio	2023-02-07T00:00:00	2024-11-08T04:00:00	3	Temperatura mínima	18.3
180376	7	Sololá	712	San Antonio Palopó	9	San Antonio Palopo	7	Julio	2023-02-07T00:00:00	2024-11-08T04:00:00	5	Humedad	74
180377	7	Sololá	712	San Antonio Palopó	9	San Antonio Palopo	7	Julio	2023-02-07T00:00:00	2024-11-08T04:00:00	6	Velocidad del viento	6.4
180378	7	Sololá	712	San Antonio Palopó	9	San Antonio Palopo	7	Julio	2023-02-07T00:00:00	2024-11-08T04:00:00	7	Dirección del viento	6.44
180379	7	Sololá	712	San Antonio Palopó	9	San Antonio Palopo	7	Julio	2023-02-07T00:00:00	2024-11-08T04:00:00	1	Precipitación	0
180380	7	Sololá	712	San Antonio Palopó	9	San Antonio Palopo	7	Julio	2023-02-07T00:00:00	2024-11-08T04:00:00	8	Radiación solar	0
180381	7	Sololá	712	San Antonio Palopó	9	San Antonio Palopo	7	Julio	2023-02-07T00:00:00	2024-11-08T05:00:00	2	Temperatura media	18.6
180382	7	Sololá	712	San Antonio Palopó	9	San Antonio Palopo	7	Julio	2023-02-07T00:00:00	2024-11-08T05:00:00	4	Temperatura máxima	19.1
180383	7	Sololá	712	San Antonio Palopó	9	San Antonio Palopo	7	Julio	2023-02-07T00:00:00	2024-11-08T05:00:00	3	Temperatura mínima	18.6
180384	7	Sololá	712	San Antonio Palopó	9	San Antonio Palopo	7	Julio	2023-02-07T00:00:00	2024-11-08T05:00:00	5	Humedad	74
180385	7	Sololá	712	San Antonio Palopó	9	San Antonio Palopo	7	Julio	2023-02-07T00:00:00	2024-11-08T05:00:00	6	Velocidad del viento	8
180386	7	Sololá	712	San Antonio Palopó	9	San Antonio Palopo	7	Julio	2023-02-07T00:00:00	2024-11-08T05:00:00	7	Dirección del viento	8.05
180387	7	Sololá	712	San Antonio Palopó	9	San Antonio Palopo	7	Julio	2023-02-07T00:00:00	2024-11-08T05:00:00	1	Precipitación	0
180388	7	Sololá	712	San Antonio Palopó	9	San Antonio Palopo	7	Julio	2023-02-07T00:00:00	2024-11-08T05:00:00	8	Radiación solar	0
180389	7	Sololá	712	San Antonio Palopó	9	San Antonio Palopo	7	Julio	2023-02-07T00:00:00	2024-11-08T06:00:00	2	Temperatura media	18.6
180390	7	Sololá	712	San Antonio Palopó	9	San Antonio Palopo	7	Julio	2023-02-07T00:00:00	2024-11-08T06:00:00	4	Temperatura máxima	18.6
180391	7	Sololá	712	San Antonio Palopó	9	San Antonio Palopo	7	Julio	2023-02-07T00:00:00	2024-11-08T06:00:00	3	Temperatura mínima	18.2
180392	7	Sololá	712	San Antonio Palopó	9	San Antonio Palopo	7	Julio	2023-02-07T00:00:00	2024-11-08T06:00:00	5	Humedad	74
180393	7	Sololá	712	San Antonio Palopó	9	San Antonio Palopo	7	Julio	2023-02-07T00:00:00	2024-11-08T06:00:00	6	Velocidad del viento	8
180394	7	Sololá	712	San Antonio Palopó	9	San Antonio Palopo	7	Julio	2023-02-07T00:00:00	2024-11-08T06:00:00	7	Dirección del viento	8.05
180395	7	Sololá	712	San Antonio Palopó	9	San Antonio Palopo	7	Julio	2023-02-07T00:00:00	2024-11-08T06:00:00	1	Precipitación	0
180396	7	Sololá	712	San Antonio Palopó	9	San Antonio Palopo	7	Julio	2023-02-07T00:00:00	2024-11-08T06:00:00	8	Radiación solar	1
180397	7	Sololá	712	San Antonio Palopó	9	San Antonio Palopo	7	Julio	2023-02-07T00:00:00	2024-11-08T07:00:00	2	Temperatura media	19.2
180398	7	Sololá	712	San Antonio Palopó	9	San Antonio Palopo	7	Julio	2023-02-07T00:00:00	2024-11-08T07:00:00	4	Temperatura máxima	19.2
180399	7	Sololá	712	San Antonio Palopó	9	San Antonio Palopo	7	Julio	2023-02-07T00:00:00	2024-11-08T07:00:00	3	Temperatura mínima	18.5
180400	7	Sololá	712	San Antonio Palopó	9	San Antonio Palopo	7	Julio	2023-02-07T00:00:00	2024-11-08T07:00:00	5	Humedad	70
180401	7	Sololá	712	San Antonio Palopó	9	San Antonio Palopo	7	Julio	2023-02-07T00:00:00	2024-11-08T07:00:00	6	Velocidad del viento	8
180402	7	Sololá	712	San Antonio Palopó	9	San Antonio Palopo	7	Julio	2023-02-07T00:00:00	2024-11-08T07:00:00	7	Dirección del viento	8.05
180403	7	Sololá	712	San Antonio Palopó	9	San Antonio Palopo	7	Julio	2023-02-07T00:00:00	2024-11-08T07:00:00	1	Precipitación	0
180404	7	Sololá	712	San Antonio Palopó	9	San Antonio Palopo	7	Julio	2023-02-07T00:00:00	2024-11-08T07:00:00	8	Radiación solar	22
180405	7	Sololá	712	San Antonio Palopó	9	San Antonio Palopo	7	Julio	2023-02-07T00:00:00	2024-11-08T08:00:00	2	Temperatura media	20.8
180406	7	Sololá	712	San Antonio Palopó	9	San Antonio Palopo	7	Julio	2023-02-07T00:00:00	2024-11-08T08:00:00	4	Temperatura máxima	20.8
180407	7	Sololá	712	San Antonio Palopó	9	San Antonio Palopo	7	Julio	2023-02-07T00:00:00	2024-11-08T08:00:00	3	Temperatura mínima	19.2
180408	7	Sololá	712	San Antonio Palopó	9	San Antonio Palopo	7	Julio	2023-02-07T00:00:00	2024-11-08T08:00:00	5	Humedad	69
180409	7	Sololá	712	San Antonio Palopó	9	San Antonio Palopo	7	Julio	2023-02-07T00:00:00	2024-11-08T08:00:00	6	Velocidad del viento	1.6
180410	7	Sololá	712	San Antonio Palopó	9	San Antonio Palopo	7	Julio	2023-02-07T00:00:00	2024-11-08T08:00:00	7	Dirección del viento	1.61
180411	7	Sololá	712	San Antonio Palopó	9	San Antonio Palopo	7	Julio	2023-02-07T00:00:00	2024-11-08T08:00:00	1	Precipitación	0
180412	7	Sololá	712	San Antonio Palopó	9	San Antonio Palopo	7	Julio	2023-02-07T00:00:00	2024-11-08T08:00:00	8	Radiación solar	148
180413	7	Sololá	712	San Antonio Palopó	9	San Antonio Palopo	7	Julio	2023-02-07T00:00:00	2024-11-08T09:00:00	2	Temperatura media	21.9
180414	7	Sololá	712	San Antonio Palopó	9	San Antonio Palopo	7	Julio	2023-02-07T00:00:00	2024-11-08T09:00:00	4	Temperatura máxima	21.9
180415	7	Sololá	712	San Antonio Palopó	9	San Antonio Palopo	7	Julio	2023-02-07T00:00:00	2024-11-08T09:00:00	3	Temperatura mínima	20.8
180416	7	Sololá	712	San Antonio Palopó	9	San Antonio Palopo	7	Julio	2023-02-07T00:00:00	2024-11-08T09:00:00	5	Humedad	72
180417	7	Sololá	712	San Antonio Palopó	9	San Antonio Palopo	7	Julio	2023-02-07T00:00:00	2024-11-08T09:00:00	6	Velocidad del viento	1.6
180418	7	Sololá	712	San Antonio Palopó	9	San Antonio Palopo	7	Julio	2023-02-07T00:00:00	2024-11-08T09:00:00	7	Dirección del viento	1.61
180419	7	Sololá	712	San Antonio Palopó	9	San Antonio Palopo	7	Julio	2023-02-07T00:00:00	2024-11-08T09:00:00	1	Precipitación	0
180420	7	Sololá	712	San Antonio Palopó	9	San Antonio Palopo	7	Julio	2023-02-07T00:00:00	2024-11-08T09:00:00	8	Radiación solar	444
180421	7	Sololá	712	San Antonio Palopó	9	San Antonio Palopo	7	Julio	2023-02-07T00:00:00	2024-11-08T10:00:00	2	Temperatura media	22.9
180422	7	Sololá	712	San Antonio Palopó	9	San Antonio Palopo	7	Julio	2023-02-07T00:00:00	2024-11-08T10:00:00	4	Temperatura máxima	22.9
180423	7	Sololá	712	San Antonio Palopó	9	San Antonio Palopo	7	Julio	2023-02-07T00:00:00	2024-11-08T10:00:00	3	Temperatura mínima	21.8
180424	7	Sololá	712	San Antonio Palopó	9	San Antonio Palopo	7	Julio	2023-02-07T00:00:00	2024-11-08T10:00:00	5	Humedad	68
180425	7	Sololá	712	San Antonio Palopó	9	San Antonio Palopo	7	Julio	2023-02-07T00:00:00	2024-11-08T10:00:00	6	Velocidad del viento	3.2
180426	7	Sololá	712	San Antonio Palopó	9	San Antonio Palopo	7	Julio	2023-02-07T00:00:00	2024-11-08T10:00:00	7	Dirección del viento	3.22
180427	7	Sololá	712	San Antonio Palopó	9	San Antonio Palopo	7	Julio	2023-02-07T00:00:00	2024-11-08T10:00:00	1	Precipitación	0
180428	7	Sololá	712	San Antonio Palopó	9	San Antonio Palopo	7	Julio	2023-02-07T00:00:00	2024-11-08T10:00:00	8	Radiación solar	672
180429	7	Sololá	712	San Antonio Palopó	9	San Antonio Palopo	7	Julio	2023-02-07T00:00:00	2024-11-08T11:00:00	2	Temperatura media	24.4
180430	7	Sololá	712	San Antonio Palopó	9	San Antonio Palopo	7	Julio	2023-02-07T00:00:00	2024-11-08T11:00:00	4	Temperatura máxima	24.7
180431	7	Sololá	712	San Antonio Palopó	9	San Antonio Palopo	7	Julio	2023-02-07T00:00:00	2024-11-08T11:00:00	3	Temperatura mínima	22.7
180432	7	Sololá	712	San Antonio Palopó	9	San Antonio Palopo	7	Julio	2023-02-07T00:00:00	2024-11-08T11:00:00	5	Humedad	64
180433	7	Sololá	712	San Antonio Palopó	9	San Antonio Palopo	7	Julio	2023-02-07T00:00:00	2024-11-08T11:00:00	6	Velocidad del viento	4.8
180434	7	Sololá	712	San Antonio Palopó	9	San Antonio Palopo	7	Julio	2023-02-07T00:00:00	2024-11-08T11:00:00	7	Dirección del viento	4.83
180435	7	Sololá	712	San Antonio Palopó	9	San Antonio Palopo	7	Julio	2023-02-07T00:00:00	2024-11-08T11:00:00	1	Precipitación	0
180436	7	Sololá	712	San Antonio Palopó	9	San Antonio Palopo	7	Julio	2023-02-07T00:00:00	2024-11-08T11:00:00	8	Radiación solar	843
180437	7	Sololá	712	San Antonio Palopó	9	San Antonio Palopo	7	Julio	2023-02-07T00:00:00	2024-11-08T12:00:00	2	Temperatura media	22.4
180438	7	Sololá	712	San Antonio Palopó	9	San Antonio Palopo	7	Julio	2023-02-07T00:00:00	2024-11-08T12:00:00	4	Temperatura máxima	24.3
180439	7	Sololá	712	San Antonio Palopó	9	San Antonio Palopo	7	Julio	2023-02-07T00:00:00	2024-11-08T12:00:00	3	Temperatura mínima	22.2
180440	7	Sololá	712	San Antonio Palopó	9	San Antonio Palopo	7	Julio	2023-02-07T00:00:00	2024-11-08T12:00:00	5	Humedad	74
180441	7	Sololá	712	San Antonio Palopó	9	San Antonio Palopo	7	Julio	2023-02-07T00:00:00	2024-11-08T12:00:00	6	Velocidad del viento	3.2
180442	7	Sololá	712	San Antonio Palopó	9	San Antonio Palopo	7	Julio	2023-02-07T00:00:00	2024-11-08T12:00:00	7	Dirección del viento	3.22
180443	7	Sololá	712	San Antonio Palopó	9	San Antonio Palopo	7	Julio	2023-02-07T00:00:00	2024-11-08T12:00:00	1	Precipitación	0
180444	7	Sololá	712	San Antonio Palopó	9	San Antonio Palopo	7	Julio	2023-02-07T00:00:00	2024-11-08T12:00:00	8	Radiación solar	942
180445	7	Sololá	712	San Antonio Palopó	9	San Antonio Palopo	7	Julio	2023-02-07T00:00:00	2024-11-08T13:00:00	2	Temperatura media	22.3
180446	7	Sololá	712	San Antonio Palopó	9	San Antonio Palopo	7	Julio	2023-02-07T00:00:00	2024-11-08T13:00:00	4	Temperatura máxima	22.6
180447	7	Sololá	712	San Antonio Palopó	9	San Antonio Palopo	7	Julio	2023-02-07T00:00:00	2024-11-08T13:00:00	3	Temperatura mínima	22.1
180448	7	Sololá	712	San Antonio Palopó	9	San Antonio Palopo	7	Julio	2023-02-07T00:00:00	2024-11-08T13:00:00	5	Humedad	73
180449	7	Sololá	712	San Antonio Palopó	9	San Antonio Palopo	7	Julio	2023-02-07T00:00:00	2024-11-08T13:00:00	6	Velocidad del viento	4.8
180450	7	Sololá	712	San Antonio Palopó	9	San Antonio Palopo	7	Julio	2023-02-07T00:00:00	2024-11-08T13:00:00	7	Dirección del viento	4.83
180451	7	Sololá	712	San Antonio Palopó	9	San Antonio Palopo	7	Julio	2023-02-07T00:00:00	2024-11-08T13:00:00	1	Precipitación	0
180452	7	Sololá	712	San Antonio Palopó	9	San Antonio Palopo	7	Julio	2023-02-07T00:00:00	2024-11-08T13:00:00	8	Radiación solar	752
180453	7	Sololá	712	San Antonio Palopó	9	San Antonio Palopo	7	Julio	2023-02-07T00:00:00	2024-11-08T14:00:00	2	Temperatura media	21.9
180454	7	Sololá	712	San Antonio Palopó	9	San Antonio Palopo	7	Julio	2023-02-07T00:00:00	2024-11-08T14:00:00	4	Temperatura máxima	22.8
180455	7	Sololá	712	San Antonio Palopó	9	San Antonio Palopo	7	Julio	2023-02-07T00:00:00	2024-11-08T14:00:00	3	Temperatura mínima	21.9
180456	7	Sololá	712	San Antonio Palopó	9	San Antonio Palopo	7	Julio	2023-02-07T00:00:00	2024-11-08T14:00:00	5	Humedad	74
180457	7	Sololá	712	San Antonio Palopó	9	San Antonio Palopo	7	Julio	2023-02-07T00:00:00	2024-11-08T14:00:00	6	Velocidad del viento	4.8
180458	7	Sololá	712	San Antonio Palopó	9	San Antonio Palopo	7	Julio	2023-02-07T00:00:00	2024-11-08T14:00:00	7	Dirección del viento	4.83
180459	7	Sololá	712	San Antonio Palopó	9	San Antonio Palopo	7	Julio	2023-02-07T00:00:00	2024-11-08T14:00:00	1	Precipitación	0
180460	7	Sololá	712	San Antonio Palopó	9	San Antonio Palopo	7	Julio	2023-02-07T00:00:00	2024-11-08T14:00:00	8	Radiación solar	447
180461	7	Sololá	712	San Antonio Palopó	9	San Antonio Palopo	7	Julio	2023-02-07T00:00:00	2024-11-08T15:00:00	2	Temperatura media	20.4
180462	7	Sololá	712	San Antonio Palopó	9	San Antonio Palopo	7	Julio	2023-02-07T00:00:00	2024-11-08T15:00:00	4	Temperatura máxima	21.9
180463	7	Sololá	712	San Antonio Palopó	9	San Antonio Palopo	7	Julio	2023-02-07T00:00:00	2024-11-08T15:00:00	3	Temperatura mínima	20
180464	7	Sololá	712	San Antonio Palopó	9	San Antonio Palopo	7	Julio	2023-02-07T00:00:00	2024-11-08T15:00:00	5	Humedad	81
180465	7	Sololá	712	San Antonio Palopó	9	San Antonio Palopo	7	Julio	2023-02-07T00:00:00	2024-11-08T15:00:00	6	Velocidad del viento	4.8
180466	7	Sololá	712	San Antonio Palopó	9	San Antonio Palopo	7	Julio	2023-02-07T00:00:00	2024-11-08T15:00:00	7	Dirección del viento	4.83
180467	7	Sololá	712	San Antonio Palopó	9	San Antonio Palopo	7	Julio	2023-02-07T00:00:00	2024-11-08T15:00:00	1	Precipitación	0
180468	7	Sololá	712	San Antonio Palopó	9	San Antonio Palopo	7	Julio	2023-02-07T00:00:00	2024-11-08T15:00:00	8	Radiación solar	552
180469	7	Sololá	712	San Antonio Palopó	9	San Antonio Palopo	7	Julio	2023-02-07T00:00:00	2024-11-08T16:00:00	2	Temperatura media	21.6
180470	7	Sololá	712	San Antonio Palopó	9	San Antonio Palopo	7	Julio	2023-02-07T00:00:00	2024-11-08T16:00:00	4	Temperatura máxima	21.7
180471	7	Sololá	712	San Antonio Palopó	9	San Antonio Palopo	7	Julio	2023-02-07T00:00:00	2024-11-08T16:00:00	3	Temperatura mínima	20.4
180472	7	Sololá	712	San Antonio Palopó	9	San Antonio Palopo	7	Julio	2023-02-07T00:00:00	2024-11-08T16:00:00	5	Humedad	77
180473	7	Sololá	712	San Antonio Palopó	9	San Antonio Palopo	7	Julio	2023-02-07T00:00:00	2024-11-08T16:00:00	6	Velocidad del viento	3.2
180474	7	Sololá	712	San Antonio Palopó	9	San Antonio Palopo	7	Julio	2023-02-07T00:00:00	2024-11-08T16:00:00	7	Dirección del viento	3.22
180475	7	Sololá	712	San Antonio Palopó	9	San Antonio Palopo	7	Julio	2023-02-07T00:00:00	2024-11-08T16:00:00	1	Precipitación	0
180476	7	Sololá	712	San Antonio Palopó	9	San Antonio Palopo	7	Julio	2023-02-07T00:00:00	2024-11-08T16:00:00	8	Radiación solar	590
180477	7	Sololá	712	San Antonio Palopó	9	San Antonio Palopo	7	Julio	2023-02-07T00:00:00	2024-11-08T17:00:00	2	Temperatura media	20.9
180478	7	Sololá	712	San Antonio Palopó	9	San Antonio Palopo	7	Julio	2023-02-07T00:00:00	2024-11-08T17:00:00	4	Temperatura máxima	22
180479	7	Sololá	712	San Antonio Palopó	9	San Antonio Palopo	7	Julio	2023-02-07T00:00:00	2024-11-08T17:00:00	3	Temperatura mínima	20.9
180480	7	Sololá	712	San Antonio Palopó	9	San Antonio Palopo	7	Julio	2023-02-07T00:00:00	2024-11-08T17:00:00	5	Humedad	79
180481	7	Sololá	712	San Antonio Palopó	9	San Antonio Palopo	7	Julio	2023-02-07T00:00:00	2024-11-08T17:00:00	6	Velocidad del viento	3.2
180482	7	Sololá	712	San Antonio Palopó	9	San Antonio Palopo	7	Julio	2023-02-07T00:00:00	2024-11-08T17:00:00	7	Dirección del viento	3.22
180483	7	Sololá	712	San Antonio Palopó	9	San Antonio Palopo	7	Julio	2023-02-07T00:00:00	2024-11-08T17:00:00	1	Precipitación	0
180484	7	Sololá	712	San Antonio Palopó	9	San Antonio Palopo	7	Julio	2023-02-07T00:00:00	2024-11-08T17:00:00	8	Radiación solar	314
180485	7	Sololá	712	San Antonio Palopó	9	San Antonio Palopo	7	Julio	2023-02-07T00:00:00	2024-11-08T18:00:00	2	Temperatura media	19.9
180486	7	Sololá	712	San Antonio Palopó	9	San Antonio Palopo	7	Julio	2023-02-07T00:00:00	2024-11-08T18:00:00	4	Temperatura máxima	20.9
180487	7	Sololá	712	San Antonio Palopó	9	San Antonio Palopo	7	Julio	2023-02-07T00:00:00	2024-11-08T18:00:00	3	Temperatura mínima	19.9
180488	7	Sololá	712	San Antonio Palopó	9	San Antonio Palopo	7	Julio	2023-02-07T00:00:00	2024-11-08T18:00:00	5	Humedad	82
180489	7	Sololá	712	San Antonio Palopó	9	San Antonio Palopo	7	Julio	2023-02-07T00:00:00	2024-11-08T18:00:00	6	Velocidad del viento	1.6
180490	7	Sololá	712	San Antonio Palopó	9	San Antonio Palopo	7	Julio	2023-02-07T00:00:00	2024-11-08T18:00:00	7	Dirección del viento	1.61
180491	7	Sololá	712	San Antonio Palopó	9	San Antonio Palopo	7	Julio	2023-02-07T00:00:00	2024-11-08T18:00:00	1	Precipitación	0
180492	7	Sololá	712	San Antonio Palopó	9	San Antonio Palopo	7	Julio	2023-02-07T00:00:00	2024-11-08T18:00:00	8	Radiación solar	33
180493	7	Sololá	712	San Antonio Palopó	9	San Antonio Palopo	7	Julio	2023-02-07T00:00:00	2024-11-08T19:00:00	2	Temperatura media	19.2
180494	7	Sololá	712	San Antonio Palopó	9	San Antonio Palopo	7	Julio	2023-02-07T00:00:00	2024-11-08T19:00:00	4	Temperatura máxima	19.9
180495	7	Sololá	712	San Antonio Palopó	9	San Antonio Palopo	7	Julio	2023-02-07T00:00:00	2024-11-08T19:00:00	3	Temperatura mínima	19.2
180496	7	Sololá	712	San Antonio Palopó	9	San Antonio Palopo	7	Julio	2023-02-07T00:00:00	2024-11-08T19:00:00	5	Humedad	87
180497	7	Sololá	712	San Antonio Palopó	9	San Antonio Palopo	7	Julio	2023-02-07T00:00:00	2024-11-08T19:00:00	6	Velocidad del viento	1.6
180498	7	Sololá	712	San Antonio Palopó	9	San Antonio Palopo	7	Julio	2023-02-07T00:00:00	2024-11-08T19:00:00	7	Dirección del viento	1.61
180499	7	Sololá	712	San Antonio Palopó	9	San Antonio Palopo	7	Julio	2023-02-07T00:00:00	2024-11-08T19:00:00	1	Precipitación	0
180500	7	Sololá	712	San Antonio Palopó	9	San Antonio Palopo	7	Julio	2023-02-07T00:00:00	2024-11-08T19:00:00	8	Radiación solar	0
180501	7	Sololá	712	San Antonio Palopó	9	San Antonio Palopo	7	Julio	2023-02-07T00:00:00	2024-11-08T20:00:00	2	Temperatura media	19.1
180502	7	Sololá	712	San Antonio Palopó	9	San Antonio Palopo	7	Julio	2023-02-07T00:00:00	2024-11-08T20:00:00	4	Temperatura máxima	19.2
180503	7	Sololá	712	San Antonio Palopó	9	San Antonio Palopo	7	Julio	2023-02-07T00:00:00	2024-11-08T20:00:00	3	Temperatura mínima	19
180504	7	Sololá	712	San Antonio Palopó	9	San Antonio Palopo	7	Julio	2023-02-07T00:00:00	2024-11-08T20:00:00	5	Humedad	87
180505	7	Sololá	712	San Antonio Palopó	9	San Antonio Palopo	7	Julio	2023-02-07T00:00:00	2024-11-08T20:00:00	6	Velocidad del viento	0
180506	7	Sololá	712	San Antonio Palopó	9	San Antonio Palopo	7	Julio	2023-02-07T00:00:00	2024-11-08T20:00:00	7	Dirección del viento	0
180507	7	Sololá	712	San Antonio Palopó	9	San Antonio Palopo	7	Julio	2023-02-07T00:00:00	2024-11-08T20:00:00	1	Precipitación	0
180508	7	Sololá	712	San Antonio Palopó	9	San Antonio Palopo	7	Julio	2023-02-07T00:00:00	2024-11-08T20:00:00	8	Radiación solar	0
180509	7	Sololá	712	San Antonio Palopó	9	San Antonio Palopo	7	Julio	2023-02-07T00:00:00	2024-11-08T21:00:00	2	Temperatura media	19.1
180510	7	Sololá	712	San Antonio Palopó	9	San Antonio Palopo	7	Julio	2023-02-07T00:00:00	2024-11-08T21:00:00	4	Temperatura máxima	19.1
180511	7	Sololá	712	San Antonio Palopó	9	San Antonio Palopo	7	Julio	2023-02-07T00:00:00	2024-11-08T21:00:00	3	Temperatura mínima	19
180512	7	Sololá	712	San Antonio Palopó	9	San Antonio Palopo	7	Julio	2023-02-07T00:00:00	2024-11-08T21:00:00	5	Humedad	87
180513	7	Sololá	712	San Antonio Palopó	9	San Antonio Palopo	7	Julio	2023-02-07T00:00:00	2024-11-08T21:00:00	6	Velocidad del viento	0
180514	7	Sololá	712	San Antonio Palopó	9	San Antonio Palopo	7	Julio	2023-02-07T00:00:00	2024-11-08T21:00:00	7	Dirección del viento	0
180515	7	Sololá	712	San Antonio Palopó	9	San Antonio Palopo	7	Julio	2023-02-07T00:00:00	2024-11-08T21:00:00	1	Precipitación	0
180516	7	Sololá	712	San Antonio Palopó	9	San Antonio Palopo	7	Julio	2023-02-07T00:00:00	2024-11-08T21:00:00	8	Radiación solar	0
180517	7	Sololá	712	San Antonio Palopó	9	San Antonio Palopo	7	Julio	2023-02-07T00:00:00	2024-11-08T22:00:00	2	Temperatura media	19.1
180518	7	Sololá	712	San Antonio Palopó	9	San Antonio Palopo	7	Julio	2023-02-07T00:00:00	2024-11-08T22:00:00	4	Temperatura máxima	19.2
180519	7	Sololá	712	San Antonio Palopó	9	San Antonio Palopo	7	Julio	2023-02-07T00:00:00	2024-11-08T22:00:00	3	Temperatura mínima	19.1
180520	7	Sololá	712	San Antonio Palopó	9	San Antonio Palopo	7	Julio	2023-02-07T00:00:00	2024-11-08T22:00:00	5	Humedad	87
180521	7	Sololá	712	San Antonio Palopó	9	San Antonio Palopo	7	Julio	2023-02-07T00:00:00	2024-11-08T22:00:00	6	Velocidad del viento	0
180522	7	Sololá	712	San Antonio Palopó	9	San Antonio Palopo	7	Julio	2023-02-07T00:00:00	2024-11-08T22:00:00	7	Dirección del viento	0
180523	7	Sololá	712	San Antonio Palopó	9	San Antonio Palopo	7	Julio	2023-02-07T00:00:00	2024-11-08T22:00:00	1	Precipitación	0
180524	7	Sololá	712	San Antonio Palopó	9	San Antonio Palopo	7	Julio	2023-02-07T00:00:00	2024-11-08T22:00:00	8	Radiación solar	0
180525	7	Sololá	712	San Antonio Palopó	9	San Antonio Palopo	7	Julio	2023-02-07T00:00:00	2024-11-08T23:00:00	2	Temperatura media	19.2
180526	7	Sololá	712	San Antonio Palopó	9	San Antonio Palopo	7	Julio	2023-02-07T00:00:00	2024-11-08T23:00:00	4	Temperatura máxima	19.2
180527	7	Sololá	712	San Antonio Palopó	9	San Antonio Palopo	7	Julio	2023-02-07T00:00:00	2024-11-08T23:00:00	3	Temperatura mínima	19.1
180528	7	Sololá	712	San Antonio Palopó	9	San Antonio Palopo	7	Julio	2023-02-07T00:00:00	2024-11-08T23:00:00	5	Humedad	84
180529	7	Sololá	712	San Antonio Palopó	9	San Antonio Palopo	7	Julio	2023-02-07T00:00:00	2024-11-08T23:00:00	6	Velocidad del viento	0
180530	7	Sololá	712	San Antonio Palopó	9	San Antonio Palopo	7	Julio	2023-02-07T00:00:00	2024-11-08T23:00:00	7	Dirección del viento	0
180531	7	Sololá	712	San Antonio Palopó	9	San Antonio Palopo	7	Julio	2023-02-07T00:00:00	2024-11-08T23:00:00	1	Precipitación	0
180532	7	Sololá	712	San Antonio Palopó	9	San Antonio Palopo	7	Julio	2023-02-07T00:00:00	2024-11-08T23:00:00	8	Radiación solar	0
180533	7	Sololá	712	San Antonio Palopó	9	San Antonio Palopo	7	Julio	2023-03-07T00:00:00	2024-11-08T00:00:00	2	Temperatura media	19.9
180534	7	Sololá	712	San Antonio Palopó	9	San Antonio Palopo	7	Julio	2023-03-07T00:00:00	2024-11-08T00:00:00	4	Temperatura máxima	19.9
180535	7	Sololá	712	San Antonio Palopó	9	San Antonio Palopo	7	Julio	2023-03-07T00:00:00	2024-11-08T00:00:00	3	Temperatura mínima	19.2
180536	7	Sololá	712	San Antonio Palopó	9	San Antonio Palopo	7	Julio	2023-03-07T00:00:00	2024-11-08T00:00:00	5	Humedad	78
180537	7	Sololá	712	San Antonio Palopó	9	San Antonio Palopo	7	Julio	2023-03-07T00:00:00	2024-11-08T00:00:00	6	Velocidad del viento	4.8
180538	7	Sololá	712	San Antonio Palopó	9	San Antonio Palopo	7	Julio	2023-03-07T00:00:00	2024-11-08T00:00:00	7	Dirección del viento	4.83
180539	7	Sololá	712	San Antonio Palopó	9	San Antonio Palopo	7	Julio	2023-03-07T00:00:00	2024-11-08T00:00:00	1	Precipitación	0
180540	7	Sololá	712	San Antonio Palopó	9	San Antonio Palopo	7	Julio	2023-03-07T00:00:00	2024-11-08T00:00:00	8	Radiación solar	0
180541	7	Sololá	712	San Antonio Palopó	9	San Antonio Palopo	7	Julio	2023-03-07T00:00:00	2024-11-08T01:00:00	2	Temperatura media	19.8
180542	7	Sololá	712	San Antonio Palopó	9	San Antonio Palopo	7	Julio	2023-03-07T00:00:00	2024-11-08T01:00:00	4	Temperatura máxima	20
180543	7	Sololá	712	San Antonio Palopó	9	San Antonio Palopo	7	Julio	2023-03-07T00:00:00	2024-11-08T01:00:00	3	Temperatura mínima	19.8
180544	7	Sololá	712	San Antonio Palopó	9	San Antonio Palopo	7	Julio	2023-03-07T00:00:00	2024-11-08T01:00:00	5	Humedad	81
180545	7	Sololá	712	San Antonio Palopó	9	San Antonio Palopo	7	Julio	2023-03-07T00:00:00	2024-11-08T01:00:00	6	Velocidad del viento	3.2
180546	7	Sololá	712	San Antonio Palopó	9	San Antonio Palopo	7	Julio	2023-03-07T00:00:00	2024-11-08T01:00:00	7	Dirección del viento	3.22
180547	7	Sololá	712	San Antonio Palopó	9	San Antonio Palopo	7	Julio	2023-03-07T00:00:00	2024-11-08T01:00:00	1	Precipitación	0
180548	7	Sololá	712	San Antonio Palopó	9	San Antonio Palopo	7	Julio	2023-03-07T00:00:00	2024-11-08T01:00:00	8	Radiación solar	0
180549	7	Sololá	712	San Antonio Palopó	9	San Antonio Palopo	7	Julio	2023-03-07T00:00:00	2024-11-08T02:00:00	2	Temperatura media	19.6
180550	7	Sololá	712	San Antonio Palopó	9	San Antonio Palopo	7	Julio	2023-03-07T00:00:00	2024-11-08T02:00:00	4	Temperatura máxima	19.8
180551	7	Sololá	712	San Antonio Palopó	9	San Antonio Palopo	7	Julio	2023-03-07T00:00:00	2024-11-08T02:00:00	3	Temperatura mínima	19.6
180552	7	Sololá	712	San Antonio Palopó	9	San Antonio Palopo	7	Julio	2023-03-07T00:00:00	2024-11-08T02:00:00	5	Humedad	80
180553	7	Sololá	712	San Antonio Palopó	9	San Antonio Palopo	7	Julio	2023-03-07T00:00:00	2024-11-08T02:00:00	6	Velocidad del viento	1.6
180554	7	Sololá	712	San Antonio Palopó	9	San Antonio Palopo	7	Julio	2023-03-07T00:00:00	2024-11-08T02:00:00	7	Dirección del viento	1.61
180555	7	Sololá	712	San Antonio Palopó	9	San Antonio Palopo	7	Julio	2023-03-07T00:00:00	2024-11-08T02:00:00	1	Precipitación	0
180556	7	Sololá	712	San Antonio Palopó	9	San Antonio Palopo	7	Julio	2023-03-07T00:00:00	2024-11-08T02:00:00	8	Radiación solar	0
180557	7	Sololá	712	San Antonio Palopó	9	San Antonio Palopo	7	Julio	2023-03-07T00:00:00	2024-11-08T03:00:00	2	Temperatura media	19.3
180558	7	Sololá	712	San Antonio Palopó	9	San Antonio Palopo	7	Julio	2023-03-07T00:00:00	2024-11-08T03:00:00	4	Temperatura máxima	19.6
180559	7	Sololá	712	San Antonio Palopó	9	San Antonio Palopo	7	Julio	2023-03-07T00:00:00	2024-11-08T03:00:00	3	Temperatura mínima	19.2
180560	7	Sololá	712	San Antonio Palopó	9	San Antonio Palopo	7	Julio	2023-03-07T00:00:00	2024-11-08T03:00:00	5	Humedad	84
180561	7	Sololá	712	San Antonio Palopó	9	San Antonio Palopo	7	Julio	2023-03-07T00:00:00	2024-11-08T03:00:00	6	Velocidad del viento	3.2
180562	7	Sololá	712	San Antonio Palopó	9	San Antonio Palopo	7	Julio	2023-03-07T00:00:00	2024-11-08T03:00:00	7	Dirección del viento	3.22
180563	7	Sololá	712	San Antonio Palopó	9	San Antonio Palopo	7	Julio	2023-03-07T00:00:00	2024-11-08T03:00:00	1	Precipitación	0
180564	7	Sololá	712	San Antonio Palopó	9	San Antonio Palopo	7	Julio	2023-03-07T00:00:00	2024-11-08T03:00:00	8	Radiación solar	0
180565	7	Sololá	712	San Antonio Palopó	9	San Antonio Palopo	7	Julio	2023-03-07T00:00:00	2024-11-08T04:00:00	2	Temperatura media	19.5
180566	7	Sololá	712	San Antonio Palopó	9	San Antonio Palopo	7	Julio	2023-03-07T00:00:00	2024-11-08T04:00:00	4	Temperatura máxima	19.7
180567	7	Sololá	712	San Antonio Palopó	9	San Antonio Palopo	7	Julio	2023-03-07T00:00:00	2024-11-08T04:00:00	3	Temperatura mínima	19.3
180568	7	Sololá	712	San Antonio Palopó	9	San Antonio Palopo	7	Julio	2023-03-07T00:00:00	2024-11-08T04:00:00	5	Humedad	81
180569	7	Sololá	712	San Antonio Palopó	9	San Antonio Palopo	7	Julio	2023-03-07T00:00:00	2024-11-08T04:00:00	6	Velocidad del viento	3.2
180570	7	Sololá	712	San Antonio Palopó	9	San Antonio Palopo	7	Julio	2023-03-07T00:00:00	2024-11-08T04:00:00	7	Dirección del viento	3.22
180571	7	Sololá	712	San Antonio Palopó	9	San Antonio Palopo	7	Julio	2023-03-07T00:00:00	2024-11-08T04:00:00	1	Precipitación	0
180572	7	Sololá	712	San Antonio Palopó	9	San Antonio Palopo	7	Julio	2023-03-07T00:00:00	2024-11-08T04:00:00	8	Radiación solar	0
180573	7	Sololá	712	San Antonio Palopó	9	San Antonio Palopo	7	Julio	2023-03-07T00:00:00	2024-11-08T05:00:00	2	Temperatura media	19.2
180574	7	Sololá	712	San Antonio Palopó	9	San Antonio Palopo	7	Julio	2023-03-07T00:00:00	2024-11-08T05:00:00	4	Temperatura máxima	19.5
180575	7	Sololá	712	San Antonio Palopó	9	San Antonio Palopo	7	Julio	2023-03-07T00:00:00	2024-11-08T05:00:00	3	Temperatura mínima	19.2
180576	7	Sololá	712	San Antonio Palopó	9	San Antonio Palopo	7	Julio	2023-03-07T00:00:00	2024-11-08T05:00:00	5	Humedad	82
180577	7	Sololá	712	San Antonio Palopó	9	San Antonio Palopo	7	Julio	2023-03-07T00:00:00	2024-11-08T05:00:00	6	Velocidad del viento	1.6
180578	7	Sololá	712	San Antonio Palopó	9	San Antonio Palopo	7	Julio	2023-03-07T00:00:00	2024-11-08T05:00:00	7	Dirección del viento	1.61
180579	7	Sololá	712	San Antonio Palopó	9	San Antonio Palopo	7	Julio	2023-03-07T00:00:00	2024-11-08T05:00:00	1	Precipitación	0
180580	7	Sololá	712	San Antonio Palopó	9	San Antonio Palopo	7	Julio	2023-03-07T00:00:00	2024-11-08T05:00:00	8	Radiación solar	0
180581	7	Sololá	712	San Antonio Palopó	9	San Antonio Palopo	7	Julio	2023-03-07T00:00:00	2024-11-08T06:00:00	2	Temperatura media	19.2
180582	7	Sololá	712	San Antonio Palopó	9	San Antonio Palopo	7	Julio	2023-03-07T00:00:00	2024-11-08T06:00:00	4	Temperatura máxima	19.2
180583	7	Sololá	712	San Antonio Palopó	9	San Antonio Palopo	7	Julio	2023-03-07T00:00:00	2024-11-08T06:00:00	3	Temperatura mínima	19.1
180584	7	Sololá	712	San Antonio Palopó	9	San Antonio Palopo	7	Julio	2023-03-07T00:00:00	2024-11-08T06:00:00	5	Humedad	85
180585	7	Sololá	712	San Antonio Palopó	9	San Antonio Palopo	7	Julio	2023-03-07T00:00:00	2024-11-08T06:00:00	6	Velocidad del viento	0
180586	7	Sololá	712	San Antonio Palopó	9	San Antonio Palopo	7	Julio	2023-03-07T00:00:00	2024-11-08T06:00:00	7	Dirección del viento	0
180587	7	Sololá	712	San Antonio Palopó	9	San Antonio Palopo	7	Julio	2023-03-07T00:00:00	2024-11-08T06:00:00	1	Precipitación	0
180588	7	Sololá	712	San Antonio Palopó	9	San Antonio Palopo	7	Julio	2023-03-07T00:00:00	2024-11-08T06:00:00	8	Radiación solar	0
180589	7	Sololá	712	San Antonio Palopó	9	San Antonio Palopo	7	Julio	2023-03-07T00:00:00	2024-11-08T07:00:00	2	Temperatura media	19
180590	7	Sololá	712	San Antonio Palopó	9	San Antonio Palopo	7	Julio	2023-03-07T00:00:00	2024-11-08T07:00:00	4	Temperatura máxima	19.2
180591	7	Sololá	712	San Antonio Palopó	9	San Antonio Palopo	7	Julio	2023-03-07T00:00:00	2024-11-08T07:00:00	3	Temperatura mínima	18.9
180592	7	Sololá	712	San Antonio Palopó	9	San Antonio Palopo	7	Julio	2023-03-07T00:00:00	2024-11-08T07:00:00	5	Humedad	87
180593	7	Sololá	712	San Antonio Palopó	9	San Antonio Palopo	7	Julio	2023-03-07T00:00:00	2024-11-08T07:00:00	6	Velocidad del viento	1.6
180594	7	Sololá	712	San Antonio Palopó	9	San Antonio Palopo	7	Julio	2023-03-07T00:00:00	2024-11-08T07:00:00	7	Dirección del viento	1.61
180595	7	Sololá	712	San Antonio Palopó	9	San Antonio Palopo	7	Julio	2023-03-07T00:00:00	2024-11-08T07:00:00	1	Precipitación	0
180596	7	Sololá	712	San Antonio Palopó	9	San Antonio Palopo	7	Julio	2023-03-07T00:00:00	2024-11-08T07:00:00	8	Radiación solar	18
180597	7	Sololá	712	San Antonio Palopó	9	San Antonio Palopo	7	Julio	2023-03-07T00:00:00	2024-11-08T08:00:00	2	Temperatura media	19.8
180598	7	Sololá	712	San Antonio Palopó	9	San Antonio Palopo	7	Julio	2023-03-07T00:00:00	2024-11-08T08:00:00	4	Temperatura máxima	19.8
180599	7	Sololá	712	San Antonio Palopó	9	San Antonio Palopo	7	Julio	2023-03-07T00:00:00	2024-11-08T08:00:00	3	Temperatura mínima	19
180600	7	Sololá	712	San Antonio Palopó	9	San Antonio Palopo	7	Julio	2023-03-07T00:00:00	2024-11-08T08:00:00	5	Humedad	84
180601	7	Sololá	712	San Antonio Palopó	9	San Antonio Palopo	7	Julio	2023-03-07T00:00:00	2024-11-08T08:00:00	6	Velocidad del viento	0
180602	7	Sololá	712	San Antonio Palopó	9	San Antonio Palopo	7	Julio	2023-03-07T00:00:00	2024-11-08T08:00:00	7	Dirección del viento	0
180603	7	Sololá	712	San Antonio Palopó	9	San Antonio Palopo	7	Julio	2023-03-07T00:00:00	2024-11-08T08:00:00	1	Precipitación	0
180604	7	Sololá	712	San Antonio Palopó	9	San Antonio Palopo	7	Julio	2023-03-07T00:00:00	2024-11-08T08:00:00	8	Radiación solar	137
180605	7	Sololá	712	San Antonio Palopó	9	San Antonio Palopo	7	Julio	2023-03-07T00:00:00	2024-11-08T09:00:00	2	Temperatura media	20.9
180606	7	Sololá	712	San Antonio Palopó	9	San Antonio Palopo	7	Julio	2023-03-07T00:00:00	2024-11-08T09:00:00	4	Temperatura máxima	20.9
180607	7	Sololá	712	San Antonio Palopó	9	San Antonio Palopo	7	Julio	2023-03-07T00:00:00	2024-11-08T09:00:00	3	Temperatura mínima	19.7
180608	7	Sololá	712	San Antonio Palopó	9	San Antonio Palopo	7	Julio	2023-03-07T00:00:00	2024-11-08T09:00:00	5	Humedad	81
180609	7	Sololá	712	San Antonio Palopó	9	San Antonio Palopo	7	Julio	2023-03-07T00:00:00	2024-11-08T09:00:00	6	Velocidad del viento	1.6
180610	7	Sololá	712	San Antonio Palopó	9	San Antonio Palopo	7	Julio	2023-03-07T00:00:00	2024-11-08T09:00:00	7	Dirección del viento	1.61
180611	7	Sololá	712	San Antonio Palopó	9	San Antonio Palopo	7	Julio	2023-03-07T00:00:00	2024-11-08T09:00:00	1	Precipitación	0
180612	7	Sololá	712	San Antonio Palopó	9	San Antonio Palopo	7	Julio	2023-03-07T00:00:00	2024-11-08T09:00:00	8	Radiación solar	469
180613	7	Sololá	712	San Antonio Palopó	9	San Antonio Palopo	7	Julio	2023-03-07T00:00:00	2024-11-08T10:00:00	2	Temperatura media	22.3
180614	7	Sololá	712	San Antonio Palopó	9	San Antonio Palopo	7	Julio	2023-03-07T00:00:00	2024-11-08T10:00:00	4	Temperatura máxima	22.3
180615	7	Sololá	712	San Antonio Palopó	9	San Antonio Palopo	7	Julio	2023-03-07T00:00:00	2024-11-08T10:00:00	3	Temperatura mínima	20.9
180616	7	Sololá	712	San Antonio Palopó	9	San Antonio Palopo	7	Julio	2023-03-07T00:00:00	2024-11-08T10:00:00	5	Humedad	75
180617	7	Sololá	712	San Antonio Palopó	9	San Antonio Palopo	7	Julio	2023-03-07T00:00:00	2024-11-08T10:00:00	6	Velocidad del viento	1.6
180618	7	Sololá	712	San Antonio Palopó	9	San Antonio Palopo	7	Julio	2023-03-07T00:00:00	2024-11-08T10:00:00	7	Dirección del viento	1.61
180619	7	Sololá	712	San Antonio Palopó	9	San Antonio Palopo	7	Julio	2023-03-07T00:00:00	2024-11-08T10:00:00	1	Precipitación	0
180620	7	Sololá	712	San Antonio Palopó	9	San Antonio Palopo	7	Julio	2023-03-07T00:00:00	2024-11-08T10:00:00	8	Radiación solar	407
180621	7	Sololá	712	San Antonio Palopó	9	San Antonio Palopo	7	Julio	2023-03-07T00:00:00	2024-11-08T11:00:00	2	Temperatura media	22
180622	7	Sololá	712	San Antonio Palopó	9	San Antonio Palopo	7	Julio	2023-03-07T00:00:00	2024-11-08T11:00:00	4	Temperatura máxima	22.6
180623	7	Sololá	712	San Antonio Palopó	9	San Antonio Palopo	7	Julio	2023-03-07T00:00:00	2024-11-08T11:00:00	3	Temperatura mínima	21.8
180624	7	Sololá	712	San Antonio Palopó	9	San Antonio Palopo	7	Julio	2023-03-07T00:00:00	2024-11-08T11:00:00	5	Humedad	78
180625	7	Sololá	712	San Antonio Palopó	9	San Antonio Palopo	7	Julio	2023-03-07T00:00:00	2024-11-08T11:00:00	6	Velocidad del viento	3.2
180626	7	Sololá	712	San Antonio Palopó	9	San Antonio Palopo	7	Julio	2023-03-07T00:00:00	2024-11-08T11:00:00	7	Dirección del viento	3.22
180627	7	Sololá	712	San Antonio Palopó	9	San Antonio Palopo	7	Julio	2023-03-07T00:00:00	2024-11-08T11:00:00	1	Precipitación	0
180628	7	Sololá	712	San Antonio Palopó	9	San Antonio Palopo	7	Julio	2023-03-07T00:00:00	2024-11-08T11:00:00	8	Radiación solar	316
180629	7	Sololá	712	San Antonio Palopó	9	San Antonio Palopo	7	Julio	2023-03-07T00:00:00	2024-11-08T12:00:00	2	Temperatura media	23.3
180630	7	Sololá	712	San Antonio Palopó	9	San Antonio Palopo	7	Julio	2023-03-07T00:00:00	2024-11-08T12:00:00	4	Temperatura máxima	23.3
180631	7	Sololá	712	San Antonio Palopó	9	San Antonio Palopo	7	Julio	2023-03-07T00:00:00	2024-11-08T12:00:00	3	Temperatura mínima	22
180632	7	Sololá	712	San Antonio Palopó	9	San Antonio Palopo	7	Julio	2023-03-07T00:00:00	2024-11-08T12:00:00	5	Humedad	77
180633	7	Sololá	712	San Antonio Palopó	9	San Antonio Palopo	7	Julio	2023-03-07T00:00:00	2024-11-08T12:00:00	6	Velocidad del viento	4.8
180634	7	Sololá	712	San Antonio Palopó	9	San Antonio Palopo	7	Julio	2023-03-07T00:00:00	2024-11-08T12:00:00	7	Dirección del viento	4.83
180635	7	Sololá	712	San Antonio Palopó	9	San Antonio Palopo	7	Julio	2023-03-07T00:00:00	2024-11-08T12:00:00	1	Precipitación	0
180636	7	Sololá	712	San Antonio Palopó	9	San Antonio Palopo	7	Julio	2023-03-07T00:00:00	2024-11-08T12:00:00	8	Radiación solar	383
180637	7	Sololá	712	San Antonio Palopó	9	San Antonio Palopo	7	Julio	2023-03-07T00:00:00	2024-11-08T13:00:00	2	Temperatura media	24.2
180638	7	Sololá	712	San Antonio Palopó	9	San Antonio Palopo	7	Julio	2023-03-07T00:00:00	2024-11-08T13:00:00	4	Temperatura máxima	24.3
180639	7	Sololá	712	San Antonio Palopó	9	San Antonio Palopo	7	Julio	2023-03-07T00:00:00	2024-11-08T13:00:00	3	Temperatura mínima	23.3
180640	7	Sololá	712	San Antonio Palopó	9	San Antonio Palopo	7	Julio	2023-03-07T00:00:00	2024-11-08T13:00:00	5	Humedad	73
180641	7	Sololá	712	San Antonio Palopó	9	San Antonio Palopo	7	Julio	2023-03-07T00:00:00	2024-11-08T13:00:00	6	Velocidad del viento	3.2
180642	7	Sololá	712	San Antonio Palopó	9	San Antonio Palopo	7	Julio	2023-03-07T00:00:00	2024-11-08T13:00:00	7	Dirección del viento	3.22
180643	7	Sololá	712	San Antonio Palopó	9	San Antonio Palopo	7	Julio	2023-03-07T00:00:00	2024-11-08T13:00:00	1	Precipitación	0
180644	7	Sololá	712	San Antonio Palopó	9	San Antonio Palopo	7	Julio	2023-03-07T00:00:00	2024-11-08T13:00:00	8	Radiación solar	288
180645	7	Sololá	712	San Antonio Palopó	9	San Antonio Palopo	7	Julio	2023-03-07T00:00:00	2024-11-08T14:00:00	2	Temperatura media	23.5
180646	7	Sololá	712	San Antonio Palopó	9	San Antonio Palopo	7	Julio	2023-03-07T00:00:00	2024-11-08T14:00:00	4	Temperatura máxima	24.7
180647	7	Sololá	712	San Antonio Palopó	9	San Antonio Palopo	7	Julio	2023-03-07T00:00:00	2024-11-08T14:00:00	3	Temperatura mínima	23.5
180648	7	Sololá	712	San Antonio Palopó	9	San Antonio Palopo	7	Julio	2023-03-07T00:00:00	2024-11-08T14:00:00	5	Humedad	75
180649	7	Sololá	712	San Antonio Palopó	9	San Antonio Palopo	7	Julio	2023-03-07T00:00:00	2024-11-08T14:00:00	6	Velocidad del viento	4.8
180650	7	Sololá	712	San Antonio Palopó	9	San Antonio Palopo	7	Julio	2023-03-07T00:00:00	2024-11-08T14:00:00	7	Dirección del viento	4.83
180651	7	Sololá	712	San Antonio Palopó	9	San Antonio Palopo	7	Julio	2023-03-07T00:00:00	2024-11-08T14:00:00	1	Precipitación	0
180652	7	Sololá	712	San Antonio Palopó	9	San Antonio Palopo	7	Julio	2023-03-07T00:00:00	2024-11-08T14:00:00	8	Radiación solar	453
180653	7	Sololá	712	San Antonio Palopó	9	San Antonio Palopo	7	Julio	2023-03-07T00:00:00	2024-11-08T15:00:00	2	Temperatura media	20.7
180654	7	Sololá	712	San Antonio Palopó	9	San Antonio Palopo	7	Julio	2023-03-07T00:00:00	2024-11-08T15:00:00	4	Temperatura máxima	23.5
180655	7	Sololá	712	San Antonio Palopó	9	San Antonio Palopo	7	Julio	2023-03-07T00:00:00	2024-11-08T15:00:00	3	Temperatura mínima	20.7
180656	7	Sololá	712	San Antonio Palopó	9	San Antonio Palopo	7	Julio	2023-03-07T00:00:00	2024-11-08T15:00:00	5	Humedad	87
180657	7	Sololá	712	San Antonio Palopó	9	San Antonio Palopo	7	Julio	2023-03-07T00:00:00	2024-11-08T15:00:00	6	Velocidad del viento	6.4
180658	7	Sololá	712	San Antonio Palopó	9	San Antonio Palopo	7	Julio	2023-03-07T00:00:00	2024-11-08T15:00:00	7	Dirección del viento	6.44
180659	7	Sololá	712	San Antonio Palopó	9	San Antonio Palopo	7	Julio	2023-03-07T00:00:00	2024-11-08T15:00:00	1	Precipitación	2.4
180660	7	Sololá	712	San Antonio Palopó	9	San Antonio Palopo	7	Julio	2023-03-07T00:00:00	2024-11-08T15:00:00	8	Radiación solar	394
180661	7	Sololá	712	San Antonio Palopó	9	San Antonio Palopo	7	Julio	2023-03-07T00:00:00	2024-11-08T16:00:00	2	Temperatura media	21.8
180662	7	Sololá	712	San Antonio Palopó	9	San Antonio Palopo	7	Julio	2023-03-07T00:00:00	2024-11-08T16:00:00	4	Temperatura máxima	21.8
180663	7	Sololá	712	San Antonio Palopó	9	San Antonio Palopo	7	Julio	2023-03-07T00:00:00	2024-11-08T16:00:00	3	Temperatura mínima	20.6
180664	7	Sololá	712	San Antonio Palopó	9	San Antonio Palopo	7	Julio	2023-03-07T00:00:00	2024-11-08T16:00:00	5	Humedad	83
180665	7	Sololá	712	San Antonio Palopó	9	San Antonio Palopo	7	Julio	2023-03-07T00:00:00	2024-11-08T16:00:00	6	Velocidad del viento	1.6
180666	7	Sololá	712	San Antonio Palopó	9	San Antonio Palopo	7	Julio	2023-03-07T00:00:00	2024-11-08T16:00:00	7	Dirección del viento	1.61
180667	7	Sololá	712	San Antonio Palopó	9	San Antonio Palopo	7	Julio	2023-03-07T00:00:00	2024-11-08T16:00:00	1	Precipitación	0.2
180668	7	Sololá	712	San Antonio Palopó	9	San Antonio Palopo	7	Julio	2023-03-07T00:00:00	2024-11-08T16:00:00	8	Radiación solar	389
180669	7	Sololá	712	San Antonio Palopó	9	San Antonio Palopo	7	Julio	2023-03-07T00:00:00	2024-11-08T17:00:00	2	Temperatura media	20.6
180670	7	Sololá	712	San Antonio Palopó	9	San Antonio Palopo	7	Julio	2023-03-07T00:00:00	2024-11-08T17:00:00	4	Temperatura máxima	22
180671	7	Sololá	712	San Antonio Palopó	9	San Antonio Palopo	7	Julio	2023-03-07T00:00:00	2024-11-08T17:00:00	3	Temperatura mínima	20.6
180672	7	Sololá	712	San Antonio Palopó	9	San Antonio Palopo	7	Julio	2023-03-07T00:00:00	2024-11-08T17:00:00	5	Humedad	86
180673	7	Sololá	712	San Antonio Palopó	9	San Antonio Palopo	7	Julio	2023-03-07T00:00:00	2024-11-08T17:00:00	6	Velocidad del viento	3.2
180674	7	Sololá	712	San Antonio Palopó	9	San Antonio Palopo	7	Julio	2023-03-07T00:00:00	2024-11-08T17:00:00	7	Dirección del viento	3.22
180675	7	Sololá	712	San Antonio Palopó	9	San Antonio Palopo	7	Julio	2023-03-07T00:00:00	2024-11-08T17:00:00	1	Precipitación	0
180676	7	Sololá	712	San Antonio Palopó	9	San Antonio Palopo	7	Julio	2023-03-07T00:00:00	2024-11-08T17:00:00	8	Radiación solar	275
180677	7	Sololá	712	San Antonio Palopó	9	San Antonio Palopo	7	Julio	2023-03-07T00:00:00	2024-11-08T18:00:00	2	Temperatura media	20
180678	7	Sololá	712	San Antonio Palopó	9	San Antonio Palopo	7	Julio	2023-03-07T00:00:00	2024-11-08T18:00:00	4	Temperatura máxima	20.7
180679	7	Sololá	712	San Antonio Palopó	9	San Antonio Palopo	7	Julio	2023-03-07T00:00:00	2024-11-08T18:00:00	3	Temperatura mínima	20
180680	7	Sololá	712	San Antonio Palopó	9	San Antonio Palopo	7	Julio	2023-03-07T00:00:00	2024-11-08T18:00:00	5	Humedad	88
180681	7	Sololá	712	San Antonio Palopó	9	San Antonio Palopo	7	Julio	2023-03-07T00:00:00	2024-11-08T18:00:00	6	Velocidad del viento	3.2
180682	7	Sololá	712	San Antonio Palopó	9	San Antonio Palopo	7	Julio	2023-03-07T00:00:00	2024-11-08T18:00:00	7	Dirección del viento	3.22
180683	7	Sololá	712	San Antonio Palopó	9	San Antonio Palopo	7	Julio	2023-03-07T00:00:00	2024-11-08T18:00:00	1	Precipitación	0.2
180684	7	Sololá	712	San Antonio Palopó	9	San Antonio Palopo	7	Julio	2023-03-07T00:00:00	2024-11-08T18:00:00	8	Radiación solar	111
180685	7	Sololá	712	San Antonio Palopó	9	San Antonio Palopo	7	Julio	2023-03-07T00:00:00	2024-11-08T19:00:00	2	Temperatura media	19.4
180686	7	Sololá	712	San Antonio Palopó	9	San Antonio Palopo	7	Julio	2023-03-07T00:00:00	2024-11-08T19:00:00	4	Temperatura máxima	20.1
180687	7	Sololá	712	San Antonio Palopó	9	San Antonio Palopo	7	Julio	2023-03-07T00:00:00	2024-11-08T19:00:00	3	Temperatura mínima	19.4
180688	7	Sololá	712	San Antonio Palopó	9	San Antonio Palopo	7	Julio	2023-03-07T00:00:00	2024-11-08T19:00:00	5	Humedad	89
180689	7	Sololá	712	San Antonio Palopó	9	San Antonio Palopo	7	Julio	2023-03-07T00:00:00	2024-11-08T19:00:00	6	Velocidad del viento	1.6
180690	7	Sololá	712	San Antonio Palopó	9	San Antonio Palopo	7	Julio	2023-03-07T00:00:00	2024-11-08T19:00:00	7	Dirección del viento	1.61
180691	7	Sololá	712	San Antonio Palopó	9	San Antonio Palopo	7	Julio	2023-03-07T00:00:00	2024-11-08T19:00:00	1	Precipitación	4.2
180692	7	Sololá	712	San Antonio Palopó	9	San Antonio Palopo	7	Julio	2023-03-07T00:00:00	2024-11-08T19:00:00	8	Radiación solar	0
180693	7	Sololá	712	San Antonio Palopó	9	San Antonio Palopo	7	Julio	2023-03-07T00:00:00	2024-11-08T20:00:00	2	Temperatura media	18.6
180694	7	Sololá	712	San Antonio Palopó	9	San Antonio Palopo	7	Julio	2023-03-07T00:00:00	2024-11-08T20:00:00	4	Temperatura máxima	19.4
180695	7	Sololá	712	San Antonio Palopó	9	San Antonio Palopo	7	Julio	2023-03-07T00:00:00	2024-11-08T20:00:00	3	Temperatura mínima	18.5
180696	7	Sololá	712	San Antonio Palopó	9	San Antonio Palopo	7	Julio	2023-03-07T00:00:00	2024-11-08T20:00:00	5	Humedad	92
180697	7	Sololá	712	San Antonio Palopó	9	San Antonio Palopo	7	Julio	2023-03-07T00:00:00	2024-11-08T20:00:00	6	Velocidad del viento	1.6
180698	7	Sololá	712	San Antonio Palopó	9	San Antonio Palopo	7	Julio	2023-03-07T00:00:00	2024-11-08T20:00:00	7	Dirección del viento	1.61
180699	7	Sololá	712	San Antonio Palopó	9	San Antonio Palopo	7	Julio	2023-03-07T00:00:00	2024-11-08T20:00:00	1	Precipitación	3.4
180700	7	Sololá	712	San Antonio Palopó	9	San Antonio Palopo	7	Julio	2023-03-07T00:00:00	2024-11-08T20:00:00	8	Radiación solar	0
180701	7	Sololá	712	San Antonio Palopó	9	San Antonio Palopo	7	Julio	2023-03-07T00:00:00	2024-11-08T21:00:00	2	Temperatura media	18.3
180702	7	Sololá	712	San Antonio Palopó	9	San Antonio Palopo	7	Julio	2023-03-07T00:00:00	2024-11-08T21:00:00	4	Temperatura máxima	18.6
180703	7	Sololá	712	San Antonio Palopó	9	San Antonio Palopo	7	Julio	2023-03-07T00:00:00	2024-11-08T21:00:00	3	Temperatura mínima	18.3
180704	7	Sololá	712	San Antonio Palopó	9	San Antonio Palopo	7	Julio	2023-03-07T00:00:00	2024-11-08T21:00:00	5	Humedad	93
180705	7	Sololá	712	San Antonio Palopó	9	San Antonio Palopo	7	Julio	2023-03-07T00:00:00	2024-11-08T21:00:00	6	Velocidad del viento	1.6
180706	7	Sololá	712	San Antonio Palopó	9	San Antonio Palopo	7	Julio	2023-03-07T00:00:00	2024-11-08T21:00:00	7	Dirección del viento	1.61
180707	7	Sololá	712	San Antonio Palopó	9	San Antonio Palopo	7	Julio	2023-03-07T00:00:00	2024-11-08T21:00:00	1	Precipitación	5.6
180708	7	Sololá	712	San Antonio Palopó	9	San Antonio Palopo	7	Julio	2023-03-07T00:00:00	2024-11-08T21:00:00	8	Radiación solar	0
180709	7	Sololá	712	San Antonio Palopó	9	San Antonio Palopo	7	Julio	2023-03-07T00:00:00	2024-11-08T22:00:00	2	Temperatura media	17.9
180710	7	Sololá	712	San Antonio Palopó	9	San Antonio Palopo	7	Julio	2023-03-07T00:00:00	2024-11-08T22:00:00	4	Temperatura máxima	18.4
180711	7	Sololá	712	San Antonio Palopó	9	San Antonio Palopo	7	Julio	2023-03-07T00:00:00	2024-11-08T22:00:00	3	Temperatura mínima	17.9
180712	7	Sololá	712	San Antonio Palopó	9	San Antonio Palopo	7	Julio	2023-03-07T00:00:00	2024-11-08T22:00:00	5	Humedad	93
180713	7	Sololá	712	San Antonio Palopó	9	San Antonio Palopo	7	Julio	2023-03-07T00:00:00	2024-11-08T22:00:00	6	Velocidad del viento	0
180714	7	Sololá	712	San Antonio Palopó	9	San Antonio Palopo	7	Julio	2023-03-07T00:00:00	2024-11-08T22:00:00	7	Dirección del viento	0
180715	7	Sololá	712	San Antonio Palopó	9	San Antonio Palopo	7	Julio	2023-03-07T00:00:00	2024-11-08T22:00:00	1	Precipitación	4.6
180716	7	Sololá	712	San Antonio Palopó	9	San Antonio Palopo	7	Julio	2023-03-07T00:00:00	2024-11-08T22:00:00	8	Radiación solar	0
180717	7	Sololá	712	San Antonio Palopó	9	San Antonio Palopo	7	Julio	2023-03-07T00:00:00	2024-11-08T23:00:00	2	Temperatura media	17.9
180718	7	Sololá	712	San Antonio Palopó	9	San Antonio Palopo	7	Julio	2023-03-07T00:00:00	2024-11-08T23:00:00	4	Temperatura máxima	18
180719	7	Sololá	712	San Antonio Palopó	9	San Antonio Palopo	7	Julio	2023-03-07T00:00:00	2024-11-08T23:00:00	3	Temperatura mínima	17.8
180720	7	Sololá	712	San Antonio Palopó	9	San Antonio Palopo	7	Julio	2023-03-07T00:00:00	2024-11-08T23:00:00	5	Humedad	92
180721	7	Sololá	712	San Antonio Palopó	9	San Antonio Palopo	7	Julio	2023-03-07T00:00:00	2024-11-08T23:00:00	6	Velocidad del viento	0
180722	7	Sololá	712	San Antonio Palopó	9	San Antonio Palopo	7	Julio	2023-03-07T00:00:00	2024-11-08T23:00:00	7	Dirección del viento	0
180723	7	Sololá	712	San Antonio Palopó	9	San Antonio Palopo	7	Julio	2023-03-07T00:00:00	2024-11-08T23:00:00	1	Precipitación	0.2
180724	7	Sololá	712	San Antonio Palopó	9	San Antonio Palopo	7	Julio	2023-03-07T00:00:00	2024-11-08T23:00:00	8	Radiación solar	0
180725	7	Sololá	712	San Antonio Palopó	9	San Antonio Palopo	7	Julio	2023-04-07T00:00:00	2024-11-08T00:00:00	2	Temperatura media	18.4
180726	7	Sololá	712	San Antonio Palopó	9	San Antonio Palopo	7	Julio	2023-04-07T00:00:00	2024-11-08T00:00:00	4	Temperatura máxima	18.4
180727	7	Sololá	712	San Antonio Palopó	9	San Antonio Palopo	7	Julio	2023-04-07T00:00:00	2024-11-08T00:00:00	3	Temperatura mínima	17.9
180728	7	Sololá	712	San Antonio Palopó	9	San Antonio Palopo	7	Julio	2023-04-07T00:00:00	2024-11-08T00:00:00	5	Humedad	90
180729	7	Sololá	712	San Antonio Palopó	9	San Antonio Palopo	7	Julio	2023-04-07T00:00:00	2024-11-08T00:00:00	6	Velocidad del viento	0
180730	7	Sololá	712	San Antonio Palopó	9	San Antonio Palopo	7	Julio	2023-04-07T00:00:00	2024-11-08T00:00:00	7	Dirección del viento	0
180731	7	Sololá	712	San Antonio Palopó	9	San Antonio Palopo	7	Julio	2023-04-07T00:00:00	2024-11-08T00:00:00	1	Precipitación	0
180732	7	Sololá	712	San Antonio Palopó	9	San Antonio Palopo	7	Julio	2023-04-07T00:00:00	2024-11-08T00:00:00	8	Radiación solar	0
180733	7	Sololá	712	San Antonio Palopó	9	San Antonio Palopo	7	Julio	2023-04-07T00:00:00	2024-11-08T01:00:00	2	Temperatura media	18.4
180734	7	Sololá	712	San Antonio Palopó	9	San Antonio Palopo	7	Julio	2023-04-07T00:00:00	2024-11-08T01:00:00	4	Temperatura máxima	18.4
180735	7	Sololá	712	San Antonio Palopó	9	San Antonio Palopo	7	Julio	2023-04-07T00:00:00	2024-11-08T01:00:00	3	Temperatura mínima	18.3
180736	7	Sololá	712	San Antonio Palopó	9	San Antonio Palopo	7	Julio	2023-04-07T00:00:00	2024-11-08T01:00:00	5	Humedad	90
180737	7	Sololá	712	San Antonio Palopó	9	San Antonio Palopo	7	Julio	2023-04-07T00:00:00	2024-11-08T01:00:00	6	Velocidad del viento	0
180738	7	Sololá	712	San Antonio Palopó	9	San Antonio Palopo	7	Julio	2023-04-07T00:00:00	2024-11-08T01:00:00	7	Dirección del viento	0
180739	7	Sololá	712	San Antonio Palopó	9	San Antonio Palopo	7	Julio	2023-04-07T00:00:00	2024-11-08T01:00:00	1	Precipitación	0
180740	7	Sololá	712	San Antonio Palopó	9	San Antonio Palopo	7	Julio	2023-04-07T00:00:00	2024-11-08T01:00:00	8	Radiación solar	0
180741	7	Sololá	712	San Antonio Palopó	9	San Antonio Palopo	7	Julio	2023-04-07T00:00:00	2024-11-08T02:00:00	2	Temperatura media	18.6
180742	7	Sololá	712	San Antonio Palopó	9	San Antonio Palopo	7	Julio	2023-04-07T00:00:00	2024-11-08T02:00:00	4	Temperatura máxima	18.6
180743	7	Sololá	712	San Antonio Palopó	9	San Antonio Palopo	7	Julio	2023-04-07T00:00:00	2024-11-08T02:00:00	3	Temperatura mínima	18.4
180744	7	Sololá	712	San Antonio Palopó	9	San Antonio Palopo	7	Julio	2023-04-07T00:00:00	2024-11-08T02:00:00	5	Humedad	90
180745	7	Sololá	712	San Antonio Palopó	9	San Antonio Palopo	7	Julio	2023-04-07T00:00:00	2024-11-08T02:00:00	6	Velocidad del viento	0
180746	7	Sololá	712	San Antonio Palopó	9	San Antonio Palopo	7	Julio	2023-04-07T00:00:00	2024-11-08T02:00:00	7	Dirección del viento	0
180747	7	Sololá	712	San Antonio Palopó	9	San Antonio Palopo	7	Julio	2023-04-07T00:00:00	2024-11-08T02:00:00	1	Precipitación	0
180748	7	Sololá	712	San Antonio Palopó	9	San Antonio Palopo	7	Julio	2023-04-07T00:00:00	2024-11-08T02:00:00	8	Radiación solar	0
180749	7	Sololá	712	San Antonio Palopó	9	San Antonio Palopo	7	Julio	2023-04-07T00:00:00	2024-11-08T03:00:00	2	Temperatura media	18.6
180750	7	Sololá	712	San Antonio Palopó	9	San Antonio Palopo	7	Julio	2023-04-07T00:00:00	2024-11-08T03:00:00	4	Temperatura máxima	18.7
180751	7	Sololá	712	San Antonio Palopó	9	San Antonio Palopo	7	Julio	2023-04-07T00:00:00	2024-11-08T03:00:00	3	Temperatura mínima	18.5
180752	7	Sololá	712	San Antonio Palopó	9	San Antonio Palopo	7	Julio	2023-04-07T00:00:00	2024-11-08T03:00:00	5	Humedad	90
180753	7	Sololá	712	San Antonio Palopó	9	San Antonio Palopo	7	Julio	2023-04-07T00:00:00	2024-11-08T03:00:00	6	Velocidad del viento	0
180754	7	Sololá	712	San Antonio Palopó	9	San Antonio Palopo	7	Julio	2023-04-07T00:00:00	2024-11-08T03:00:00	7	Dirección del viento	0
180755	7	Sololá	712	San Antonio Palopó	9	San Antonio Palopo	7	Julio	2023-04-07T00:00:00	2024-11-08T03:00:00	1	Precipitación	0
180756	7	Sololá	712	San Antonio Palopó	9	San Antonio Palopo	7	Julio	2023-04-07T00:00:00	2024-11-08T03:00:00	8	Radiación solar	0
180757	7	Sololá	712	San Antonio Palopó	9	San Antonio Palopo	7	Julio	2023-04-07T00:00:00	2024-11-08T04:00:00	2	Temperatura media	18.3
180758	7	Sololá	712	San Antonio Palopó	9	San Antonio Palopo	7	Julio	2023-04-07T00:00:00	2024-11-08T04:00:00	4	Temperatura máxima	18.6
180759	7	Sololá	712	San Antonio Palopó	9	San Antonio Palopo	7	Julio	2023-04-07T00:00:00	2024-11-08T04:00:00	3	Temperatura mínima	18.3
180760	7	Sololá	712	San Antonio Palopó	9	San Antonio Palopo	7	Julio	2023-04-07T00:00:00	2024-11-08T04:00:00	5	Humedad	90
180761	7	Sololá	712	San Antonio Palopó	9	San Antonio Palopo	7	Julio	2023-04-07T00:00:00	2024-11-08T04:00:00	6	Velocidad del viento	1.6
180762	7	Sololá	712	San Antonio Palopó	9	San Antonio Palopo	7	Julio	2023-04-07T00:00:00	2024-11-08T04:00:00	7	Dirección del viento	1.61
180763	7	Sololá	712	San Antonio Palopó	9	San Antonio Palopo	7	Julio	2023-04-07T00:00:00	2024-11-08T04:00:00	1	Precipitación	0
180764	7	Sololá	712	San Antonio Palopó	9	San Antonio Palopo	7	Julio	2023-04-07T00:00:00	2024-11-08T04:00:00	8	Radiación solar	0
180765	7	Sololá	712	San Antonio Palopó	9	San Antonio Palopo	7	Julio	2023-04-07T00:00:00	2024-11-08T05:00:00	2	Temperatura media	18.4
180766	7	Sololá	712	San Antonio Palopó	9	San Antonio Palopo	7	Julio	2023-04-07T00:00:00	2024-11-08T05:00:00	4	Temperatura máxima	18.4
180767	7	Sololá	712	San Antonio Palopó	9	San Antonio Palopo	7	Julio	2023-04-07T00:00:00	2024-11-08T05:00:00	3	Temperatura mínima	18.2
180768	7	Sololá	712	San Antonio Palopó	9	San Antonio Palopo	7	Julio	2023-04-07T00:00:00	2024-11-08T05:00:00	5	Humedad	87
180769	7	Sololá	712	San Antonio Palopó	9	San Antonio Palopo	7	Julio	2023-04-07T00:00:00	2024-11-08T05:00:00	6	Velocidad del viento	1.6
180770	7	Sololá	712	San Antonio Palopó	9	San Antonio Palopo	7	Julio	2023-04-07T00:00:00	2024-11-08T05:00:00	7	Dirección del viento	1.61
180771	7	Sololá	712	San Antonio Palopó	9	San Antonio Palopo	7	Julio	2023-04-07T00:00:00	2024-11-08T05:00:00	1	Precipitación	0
180772	7	Sololá	712	San Antonio Palopó	9	San Antonio Palopo	7	Julio	2023-04-07T00:00:00	2024-11-08T05:00:00	8	Radiación solar	0
180773	7	Sololá	712	San Antonio Palopó	9	San Antonio Palopo	7	Julio	2023-04-07T00:00:00	2024-11-08T06:00:00	2	Temperatura media	18.4
180774	7	Sololá	712	San Antonio Palopó	9	San Antonio Palopo	7	Julio	2023-04-07T00:00:00	2024-11-08T06:00:00	4	Temperatura máxima	18.6
180775	7	Sololá	712	San Antonio Palopó	9	San Antonio Palopo	7	Julio	2023-04-07T00:00:00	2024-11-08T06:00:00	3	Temperatura mínima	18.4
180776	7	Sololá	712	San Antonio Palopó	9	San Antonio Palopo	7	Julio	2023-04-07T00:00:00	2024-11-08T06:00:00	5	Humedad	88
180777	7	Sololá	712	San Antonio Palopó	9	San Antonio Palopo	7	Julio	2023-04-07T00:00:00	2024-11-08T06:00:00	6	Velocidad del viento	1.6
180778	7	Sololá	712	San Antonio Palopó	9	San Antonio Palopo	7	Julio	2023-04-07T00:00:00	2024-11-08T06:00:00	7	Dirección del viento	1.61
180779	7	Sololá	712	San Antonio Palopó	9	San Antonio Palopo	7	Julio	2023-04-07T00:00:00	2024-11-08T06:00:00	1	Precipitación	0
180780	7	Sololá	712	San Antonio Palopó	9	San Antonio Palopo	7	Julio	2023-04-07T00:00:00	2024-11-08T06:00:00	8	Radiación solar	2
180781	7	Sololá	712	San Antonio Palopó	9	San Antonio Palopo	7	Julio	2023-04-07T00:00:00	2024-11-08T07:00:00	2	Temperatura media	18.9
180782	7	Sololá	712	San Antonio Palopó	9	San Antonio Palopo	7	Julio	2023-04-07T00:00:00	2024-11-08T07:00:00	4	Temperatura máxima	18.9
180783	7	Sololá	712	San Antonio Palopó	9	San Antonio Palopo	7	Julio	2023-04-07T00:00:00	2024-11-08T07:00:00	3	Temperatura mínima	18.4
180784	7	Sololá	712	San Antonio Palopó	9	San Antonio Palopo	7	Julio	2023-04-07T00:00:00	2024-11-08T07:00:00	5	Humedad	87
180785	7	Sololá	712	San Antonio Palopó	9	San Antonio Palopo	7	Julio	2023-04-07T00:00:00	2024-11-08T07:00:00	6	Velocidad del viento	0
180786	7	Sololá	712	San Antonio Palopó	9	San Antonio Palopo	7	Julio	2023-04-07T00:00:00	2024-11-08T07:00:00	7	Dirección del viento	0
180787	7	Sololá	712	San Antonio Palopó	9	San Antonio Palopo	7	Julio	2023-04-07T00:00:00	2024-11-08T07:00:00	1	Precipitación	0
180788	7	Sololá	712	San Antonio Palopó	9	San Antonio Palopo	7	Julio	2023-04-07T00:00:00	2024-11-08T07:00:00	8	Radiación solar	24
180789	7	Sololá	712	San Antonio Palopó	9	San Antonio Palopo	7	Julio	2023-04-07T00:00:00	2024-11-08T08:00:00	2	Temperatura media	19.8
180790	7	Sololá	712	San Antonio Palopó	9	San Antonio Palopo	7	Julio	2023-04-07T00:00:00	2024-11-08T08:00:00	4	Temperatura máxima	19.8
180791	7	Sololá	712	San Antonio Palopó	9	San Antonio Palopo	7	Julio	2023-04-07T00:00:00	2024-11-08T08:00:00	3	Temperatura mínima	18.9
180792	7	Sololá	712	San Antonio Palopó	9	San Antonio Palopo	7	Julio	2023-04-07T00:00:00	2024-11-08T08:00:00	5	Humedad	85
180793	7	Sololá	712	San Antonio Palopó	9	San Antonio Palopo	7	Julio	2023-04-07T00:00:00	2024-11-08T08:00:00	6	Velocidad del viento	1.6
180794	7	Sololá	712	San Antonio Palopó	9	San Antonio Palopo	7	Julio	2023-04-07T00:00:00	2024-11-08T08:00:00	7	Dirección del viento	1.61
180795	7	Sololá	712	San Antonio Palopó	9	San Antonio Palopo	7	Julio	2023-04-07T00:00:00	2024-11-08T08:00:00	1	Precipitación	0
180796	7	Sololá	712	San Antonio Palopó	9	San Antonio Palopo	7	Julio	2023-04-07T00:00:00	2024-11-08T08:00:00	8	Radiación solar	157
180797	7	Sololá	712	San Antonio Palopó	9	San Antonio Palopo	7	Julio	2023-04-07T00:00:00	2024-11-08T09:00:00	2	Temperatura media	21.1
180798	7	Sololá	712	San Antonio Palopó	9	San Antonio Palopo	7	Julio	2023-04-07T00:00:00	2024-11-08T09:00:00	4	Temperatura máxima	21.1
180799	7	Sololá	712	San Antonio Palopó	9	San Antonio Palopo	7	Julio	2023-04-07T00:00:00	2024-11-08T09:00:00	3	Temperatura mínima	19.8
180800	7	Sololá	712	San Antonio Palopó	9	San Antonio Palopo	7	Julio	2023-04-07T00:00:00	2024-11-08T09:00:00	5	Humedad	80
180801	7	Sololá	712	San Antonio Palopó	9	San Antonio Palopo	7	Julio	2023-04-07T00:00:00	2024-11-08T09:00:00	6	Velocidad del viento	1.6
180802	7	Sololá	712	San Antonio Palopó	9	San Antonio Palopo	7	Julio	2023-04-07T00:00:00	2024-11-08T09:00:00	7	Dirección del viento	1.61
180803	7	Sololá	712	San Antonio Palopó	9	San Antonio Palopo	7	Julio	2023-04-07T00:00:00	2024-11-08T09:00:00	1	Precipitación	0
180804	7	Sololá	712	San Antonio Palopó	9	San Antonio Palopo	7	Julio	2023-04-07T00:00:00	2024-11-08T09:00:00	8	Radiación solar	399
180805	7	Sololá	712	San Antonio Palopó	9	San Antonio Palopo	7	Julio	2023-04-07T00:00:00	2024-11-08T10:00:00	2	Temperatura media	22.7
180806	7	Sololá	712	San Antonio Palopó	9	San Antonio Palopo	7	Julio	2023-04-07T00:00:00	2024-11-08T10:00:00	4	Temperatura máxima	22.7
180807	7	Sololá	712	San Antonio Palopó	9	San Antonio Palopo	7	Julio	2023-04-07T00:00:00	2024-11-08T10:00:00	3	Temperatura mínima	21.1
180808	7	Sololá	712	San Antonio Palopó	9	San Antonio Palopo	7	Julio	2023-04-07T00:00:00	2024-11-08T10:00:00	5	Humedad	74
180809	7	Sololá	712	San Antonio Palopó	9	San Antonio Palopo	7	Julio	2023-04-07T00:00:00	2024-11-08T10:00:00	6	Velocidad del viento	3.2
180810	7	Sololá	712	San Antonio Palopó	9	San Antonio Palopo	7	Julio	2023-04-07T00:00:00	2024-11-08T10:00:00	7	Dirección del viento	3.22
180811	7	Sololá	712	San Antonio Palopó	9	San Antonio Palopo	7	Julio	2023-04-07T00:00:00	2024-11-08T10:00:00	1	Precipitación	0
180812	7	Sololá	712	San Antonio Palopó	9	San Antonio Palopo	7	Julio	2023-04-07T00:00:00	2024-11-08T10:00:00	8	Radiación solar	722
180813	7	Sololá	712	San Antonio Palopó	9	San Antonio Palopo	7	Julio	2023-04-07T00:00:00	2024-11-08T11:00:00	2	Temperatura media	22.7
180814	7	Sololá	712	San Antonio Palopó	9	San Antonio Palopo	7	Julio	2023-04-07T00:00:00	2024-11-08T11:00:00	4	Temperatura máxima	23
180815	7	Sololá	712	San Antonio Palopó	9	San Antonio Palopo	7	Julio	2023-04-07T00:00:00	2024-11-08T11:00:00	3	Temperatura mínima	22.3
180816	7	Sololá	712	San Antonio Palopó	9	San Antonio Palopo	7	Julio	2023-04-07T00:00:00	2024-11-08T11:00:00	5	Humedad	73
180817	7	Sololá	712	San Antonio Palopó	9	San Antonio Palopo	7	Julio	2023-04-07T00:00:00	2024-11-08T11:00:00	6	Velocidad del viento	1.6
180818	7	Sololá	712	San Antonio Palopó	9	San Antonio Palopo	7	Julio	2023-04-07T00:00:00	2024-11-08T11:00:00	7	Dirección del viento	1.61
180819	7	Sololá	712	San Antonio Palopó	9	San Antonio Palopo	7	Julio	2023-04-07T00:00:00	2024-11-08T11:00:00	1	Precipitación	0
180820	7	Sololá	712	San Antonio Palopó	9	San Antonio Palopo	7	Julio	2023-04-07T00:00:00	2024-11-08T11:00:00	8	Radiación solar	845
180821	7	Sololá	712	San Antonio Palopó	9	San Antonio Palopo	7	Julio	2023-04-07T00:00:00	2024-11-08T12:00:00	2	Temperatura media	22.7
180822	7	Sololá	712	San Antonio Palopó	9	San Antonio Palopo	7	Julio	2023-04-07T00:00:00	2024-11-08T12:00:00	4	Temperatura máxima	22.9
180823	7	Sololá	712	San Antonio Palopó	9	San Antonio Palopo	7	Julio	2023-04-07T00:00:00	2024-11-08T12:00:00	3	Temperatura mínima	21.9
180824	7	Sololá	712	San Antonio Palopó	9	San Antonio Palopo	7	Julio	2023-04-07T00:00:00	2024-11-08T12:00:00	5	Humedad	76
180825	7	Sololá	712	San Antonio Palopó	9	San Antonio Palopo	7	Julio	2023-04-07T00:00:00	2024-11-08T12:00:00	6	Velocidad del viento	1.6
180826	7	Sololá	712	San Antonio Palopó	9	San Antonio Palopo	7	Julio	2023-04-07T00:00:00	2024-11-08T12:00:00	7	Dirección del viento	1.61
180827	7	Sololá	712	San Antonio Palopó	9	San Antonio Palopo	7	Julio	2023-04-07T00:00:00	2024-11-08T12:00:00	1	Precipitación	0
180828	7	Sololá	712	San Antonio Palopó	9	San Antonio Palopo	7	Julio	2023-04-07T00:00:00	2024-11-08T12:00:00	8	Radiación solar	885
180829	7	Sololá	712	San Antonio Palopó	9	San Antonio Palopo	7	Julio	2023-04-07T00:00:00	2024-11-08T13:00:00	2	Temperatura media	22.8
180830	7	Sololá	712	San Antonio Palopó	9	San Antonio Palopo	7	Julio	2023-04-07T00:00:00	2024-11-08T13:00:00	4	Temperatura máxima	23.2
180831	7	Sololá	712	San Antonio Palopó	9	San Antonio Palopo	7	Julio	2023-04-07T00:00:00	2024-11-08T13:00:00	3	Temperatura mínima	22.2
180832	7	Sololá	712	San Antonio Palopó	9	San Antonio Palopo	7	Julio	2023-04-07T00:00:00	2024-11-08T13:00:00	5	Humedad	78
180833	7	Sololá	712	San Antonio Palopó	9	San Antonio Palopo	7	Julio	2023-04-07T00:00:00	2024-11-08T13:00:00	6	Velocidad del viento	3.2
180834	7	Sololá	712	San Antonio Palopó	9	San Antonio Palopo	7	Julio	2023-04-07T00:00:00	2024-11-08T13:00:00	7	Dirección del viento	3.22
180835	7	Sololá	712	San Antonio Palopó	9	San Antonio Palopo	7	Julio	2023-04-07T00:00:00	2024-11-08T13:00:00	1	Precipitación	0
180836	7	Sololá	712	San Antonio Palopó	9	San Antonio Palopo	7	Julio	2023-04-07T00:00:00	2024-11-08T13:00:00	8	Radiación solar	980
180837	7	Sololá	712	San Antonio Palopó	9	San Antonio Palopo	7	Julio	2023-04-07T00:00:00	2024-11-08T14:00:00	2	Temperatura media	22.8
180838	7	Sololá	712	San Antonio Palopó	9	San Antonio Palopo	7	Julio	2023-04-07T00:00:00	2024-11-08T14:00:00	4	Temperatura máxima	24.4
180839	7	Sololá	712	San Antonio Palopó	9	San Antonio Palopo	7	Julio	2023-04-07T00:00:00	2024-11-08T14:00:00	3	Temperatura mínima	22.8
180840	7	Sololá	712	San Antonio Palopó	9	San Antonio Palopo	7	Julio	2023-04-07T00:00:00	2024-11-08T14:00:00	5	Humedad	79
180841	7	Sololá	712	San Antonio Palopó	9	San Antonio Palopo	7	Julio	2023-04-07T00:00:00	2024-11-08T14:00:00	6	Velocidad del viento	4.8
180842	7	Sololá	712	San Antonio Palopó	9	San Antonio Palopo	7	Julio	2023-04-07T00:00:00	2024-11-08T14:00:00	7	Dirección del viento	4.83
180843	7	Sololá	712	San Antonio Palopó	9	San Antonio Palopo	7	Julio	2023-04-07T00:00:00	2024-11-08T14:00:00	1	Precipitación	0
180844	7	Sololá	712	San Antonio Palopó	9	San Antonio Palopo	7	Julio	2023-04-07T00:00:00	2024-11-08T14:00:00	8	Radiación solar	862
180845	7	Sololá	712	San Antonio Palopó	9	San Antonio Palopo	7	Julio	2023-04-07T00:00:00	2024-11-08T15:00:00	2	Temperatura media	20.6
180846	7	Sololá	712	San Antonio Palopó	9	San Antonio Palopo	7	Julio	2023-04-07T00:00:00	2024-11-08T15:00:00	4	Temperatura máxima	22.8
180847	7	Sololá	712	San Antonio Palopó	9	San Antonio Palopo	7	Julio	2023-04-07T00:00:00	2024-11-08T15:00:00	3	Temperatura mínima	20.6
180848	7	Sololá	712	San Antonio Palopó	9	San Antonio Palopo	7	Julio	2023-04-07T00:00:00	2024-11-08T15:00:00	5	Humedad	87
180849	7	Sololá	712	San Antonio Palopó	9	San Antonio Palopo	7	Julio	2023-04-07T00:00:00	2024-11-08T15:00:00	6	Velocidad del viento	3.2
180850	7	Sololá	712	San Antonio Palopó	9	San Antonio Palopo	7	Julio	2023-04-07T00:00:00	2024-11-08T15:00:00	7	Dirección del viento	3.22
180851	7	Sololá	712	San Antonio Palopó	9	San Antonio Palopo	7	Julio	2023-04-07T00:00:00	2024-11-08T15:00:00	1	Precipitación	3.4
180852	7	Sololá	712	San Antonio Palopó	9	San Antonio Palopo	7	Julio	2023-04-07T00:00:00	2024-11-08T15:00:00	8	Radiación solar	627
180853	7	Sololá	712	San Antonio Palopó	9	San Antonio Palopo	7	Julio	2023-04-07T00:00:00	2024-11-08T16:00:00	2	Temperatura media	19.7
180854	7	Sololá	712	San Antonio Palopó	9	San Antonio Palopo	7	Julio	2023-04-07T00:00:00	2024-11-08T16:00:00	4	Temperatura máxima	20.6
180855	7	Sololá	712	San Antonio Palopó	9	San Antonio Palopo	7	Julio	2023-04-07T00:00:00	2024-11-08T16:00:00	3	Temperatura mínima	19.7
180856	7	Sololá	712	San Antonio Palopó	9	San Antonio Palopo	7	Julio	2023-04-07T00:00:00	2024-11-08T16:00:00	5	Humedad	91
180857	7	Sololá	712	San Antonio Palopó	9	San Antonio Palopo	7	Julio	2023-04-07T00:00:00	2024-11-08T16:00:00	6	Velocidad del viento	0
180858	7	Sololá	712	San Antonio Palopó	9	San Antonio Palopo	7	Julio	2023-04-07T00:00:00	2024-11-08T16:00:00	7	Dirección del viento	0
180859	7	Sololá	712	San Antonio Palopó	9	San Antonio Palopo	7	Julio	2023-04-07T00:00:00	2024-11-08T16:00:00	1	Precipitación	5.2
180860	7	Sololá	712	San Antonio Palopó	9	San Antonio Palopo	7	Julio	2023-04-07T00:00:00	2024-11-08T16:00:00	8	Radiación solar	396
180861	7	Sololá	712	San Antonio Palopó	9	San Antonio Palopo	7	Julio	2023-04-07T00:00:00	2024-11-08T17:00:00	2	Temperatura media	20.2
180862	7	Sololá	712	San Antonio Palopó	9	San Antonio Palopo	7	Julio	2023-04-07T00:00:00	2024-11-08T17:00:00	4	Temperatura máxima	20.3
180863	7	Sololá	712	San Antonio Palopó	9	San Antonio Palopo	7	Julio	2023-04-07T00:00:00	2024-11-08T17:00:00	3	Temperatura mínima	19.5
180864	7	Sololá	712	San Antonio Palopó	9	San Antonio Palopo	7	Julio	2023-04-07T00:00:00	2024-11-08T17:00:00	5	Humedad	90
180865	7	Sololá	712	San Antonio Palopó	9	San Antonio Palopo	7	Julio	2023-04-07T00:00:00	2024-11-08T17:00:00	6	Velocidad del viento	0
180866	7	Sololá	712	San Antonio Palopó	9	San Antonio Palopo	7	Julio	2023-04-07T00:00:00	2024-11-08T17:00:00	7	Dirección del viento	0
180867	7	Sololá	712	San Antonio Palopó	9	San Antonio Palopo	7	Julio	2023-04-07T00:00:00	2024-11-08T17:00:00	1	Precipitación	0.4
180868	7	Sololá	712	San Antonio Palopó	9	San Antonio Palopo	7	Julio	2023-04-07T00:00:00	2024-11-08T17:00:00	8	Radiación solar	448
180869	7	Sololá	712	San Antonio Palopó	9	San Antonio Palopo	7	Julio	2023-04-07T00:00:00	2024-11-08T18:00:00	2	Temperatura media	19.9
180870	7	Sololá	712	San Antonio Palopó	9	San Antonio Palopo	7	Julio	2023-04-07T00:00:00	2024-11-08T18:00:00	4	Temperatura máxima	20.3
180871	7	Sololá	712	San Antonio Palopó	9	San Antonio Palopo	7	Julio	2023-04-07T00:00:00	2024-11-08T18:00:00	3	Temperatura mínima	19.9
180872	7	Sololá	712	San Antonio Palopó	9	San Antonio Palopo	7	Julio	2023-04-07T00:00:00	2024-11-08T18:00:00	5	Humedad	90
180873	7	Sololá	712	San Antonio Palopó	9	San Antonio Palopo	7	Julio	2023-04-07T00:00:00	2024-11-08T18:00:00	6	Velocidad del viento	0
180874	7	Sololá	712	San Antonio Palopó	9	San Antonio Palopo	7	Julio	2023-04-07T00:00:00	2024-11-08T18:00:00	7	Dirección del viento	0
180875	7	Sololá	712	San Antonio Palopó	9	San Antonio Palopo	7	Julio	2023-04-07T00:00:00	2024-11-08T18:00:00	1	Precipitación	1
180876	7	Sololá	712	San Antonio Palopó	9	San Antonio Palopo	7	Julio	2023-04-07T00:00:00	2024-11-08T18:00:00	8	Radiación solar	182
180877	7	Sololá	712	San Antonio Palopó	9	San Antonio Palopo	7	Julio	2023-04-07T00:00:00	2024-11-08T19:00:00	2	Temperatura media	19.1
180878	7	Sololá	712	San Antonio Palopó	9	San Antonio Palopo	7	Julio	2023-04-07T00:00:00	2024-11-08T19:00:00	4	Temperatura máxima	19.9
180879	7	Sololá	712	San Antonio Palopó	9	San Antonio Palopo	7	Julio	2023-04-07T00:00:00	2024-11-08T19:00:00	3	Temperatura mínima	18.9
180880	7	Sololá	712	San Antonio Palopó	9	San Antonio Palopo	7	Julio	2023-04-07T00:00:00	2024-11-08T19:00:00	5	Humedad	93
180881	7	Sololá	712	San Antonio Palopó	9	San Antonio Palopo	7	Julio	2023-04-07T00:00:00	2024-11-08T19:00:00	6	Velocidad del viento	0
180882	7	Sololá	712	San Antonio Palopó	9	San Antonio Palopo	7	Julio	2023-04-07T00:00:00	2024-11-08T19:00:00	7	Dirección del viento	0
180883	7	Sololá	712	San Antonio Palopó	9	San Antonio Palopo	7	Julio	2023-04-07T00:00:00	2024-11-08T19:00:00	1	Precipitación	4.2
180884	7	Sololá	712	San Antonio Palopó	9	San Antonio Palopo	7	Julio	2023-04-07T00:00:00	2024-11-08T19:00:00	8	Radiación solar	0
180885	7	Sololá	712	San Antonio Palopó	9	San Antonio Palopo	7	Julio	2023-04-07T00:00:00	2024-11-08T20:00:00	2	Temperatura media	19.1
180886	7	Sololá	712	San Antonio Palopó	9	San Antonio Palopo	7	Julio	2023-04-07T00:00:00	2024-11-08T20:00:00	4	Temperatura máxima	19.1
180887	7	Sololá	712	San Antonio Palopó	9	San Antonio Palopo	7	Julio	2023-04-07T00:00:00	2024-11-08T20:00:00	3	Temperatura mínima	18.9
180888	7	Sololá	712	San Antonio Palopó	9	San Antonio Palopo	7	Julio	2023-04-07T00:00:00	2024-11-08T20:00:00	5	Humedad	92
180889	7	Sololá	712	San Antonio Palopó	9	San Antonio Palopo	7	Julio	2023-04-07T00:00:00	2024-11-08T20:00:00	6	Velocidad del viento	0
180890	7	Sololá	712	San Antonio Palopó	9	San Antonio Palopo	7	Julio	2023-04-07T00:00:00	2024-11-08T20:00:00	7	Dirección del viento	0
180891	7	Sololá	712	San Antonio Palopó	9	San Antonio Palopo	7	Julio	2023-04-07T00:00:00	2024-11-08T20:00:00	1	Precipitación	0.6
180892	7	Sololá	712	San Antonio Palopó	9	San Antonio Palopo	7	Julio	2023-04-07T00:00:00	2024-11-08T20:00:00	8	Radiación solar	0
180893	7	Sololá	712	San Antonio Palopó	9	San Antonio Palopo	7	Julio	2023-04-07T00:00:00	2024-11-08T21:00:00	2	Temperatura media	19.1
180894	7	Sololá	712	San Antonio Palopó	9	San Antonio Palopo	7	Julio	2023-04-07T00:00:00	2024-11-08T21:00:00	4	Temperatura máxima	19.2
180895	7	Sololá	712	San Antonio Palopó	9	San Antonio Palopo	7	Julio	2023-04-07T00:00:00	2024-11-08T21:00:00	3	Temperatura mínima	18.9
180896	7	Sololá	712	San Antonio Palopó	9	San Antonio Palopo	7	Julio	2023-04-07T00:00:00	2024-11-08T21:00:00	5	Humedad	91
180897	7	Sololá	712	San Antonio Palopó	9	San Antonio Palopo	7	Julio	2023-04-07T00:00:00	2024-11-08T21:00:00	6	Velocidad del viento	0
180898	7	Sololá	712	San Antonio Palopó	9	San Antonio Palopo	7	Julio	2023-04-07T00:00:00	2024-11-08T21:00:00	7	Dirección del viento	0
180899	7	Sololá	712	San Antonio Palopó	9	San Antonio Palopo	7	Julio	2023-04-07T00:00:00	2024-11-08T21:00:00	1	Precipitación	0.2
180900	7	Sololá	712	San Antonio Palopó	9	San Antonio Palopo	7	Julio	2023-04-07T00:00:00	2024-11-08T21:00:00	8	Radiación solar	0
180901	7	Sololá	712	San Antonio Palopó	9	San Antonio Palopo	7	Julio	2023-04-07T00:00:00	2024-11-08T22:00:00	2	Temperatura media	18.9
180902	7	Sololá	712	San Antonio Palopó	9	San Antonio Palopo	7	Julio	2023-04-07T00:00:00	2024-11-08T22:00:00	4	Temperatura máxima	19.1
180903	7	Sololá	712	San Antonio Palopó	9	San Antonio Palopo	7	Julio	2023-04-07T00:00:00	2024-11-08T22:00:00	3	Temperatura mínima	18.9
180904	7	Sololá	712	San Antonio Palopó	9	San Antonio Palopo	7	Julio	2023-04-07T00:00:00	2024-11-08T22:00:00	5	Humedad	93
180905	7	Sololá	712	San Antonio Palopó	9	San Antonio Palopo	7	Julio	2023-04-07T00:00:00	2024-11-08T22:00:00	6	Velocidad del viento	1.6
180906	7	Sololá	712	San Antonio Palopó	9	San Antonio Palopo	7	Julio	2023-04-07T00:00:00	2024-11-08T22:00:00	7	Dirección del viento	1.61
180907	7	Sololá	712	San Antonio Palopó	9	San Antonio Palopo	7	Julio	2023-04-07T00:00:00	2024-11-08T22:00:00	1	Precipitación	1
180908	7	Sololá	712	San Antonio Palopó	9	San Antonio Palopo	7	Julio	2023-04-07T00:00:00	2024-11-08T22:00:00	8	Radiación solar	0
180909	7	Sololá	712	San Antonio Palopó	9	San Antonio Palopo	7	Julio	2023-04-07T00:00:00	2024-11-08T23:00:00	2	Temperatura media	18.6
180910	7	Sololá	712	San Antonio Palopó	9	San Antonio Palopo	7	Julio	2023-04-07T00:00:00	2024-11-08T23:00:00	4	Temperatura máxima	19
180911	7	Sololá	712	San Antonio Palopó	9	San Antonio Palopo	7	Julio	2023-04-07T00:00:00	2024-11-08T23:00:00	3	Temperatura mínima	18.6
180912	7	Sololá	712	San Antonio Palopó	9	San Antonio Palopo	7	Julio	2023-04-07T00:00:00	2024-11-08T23:00:00	5	Humedad	93
180913	7	Sololá	712	San Antonio Palopó	9	San Antonio Palopo	7	Julio	2023-04-07T00:00:00	2024-11-08T23:00:00	6	Velocidad del viento	0
180914	7	Sololá	712	San Antonio Palopó	9	San Antonio Palopo	7	Julio	2023-04-07T00:00:00	2024-11-08T23:00:00	7	Dirección del viento	0
180915	7	Sololá	712	San Antonio Palopó	9	San Antonio Palopo	7	Julio	2023-04-07T00:00:00	2024-11-08T23:00:00	1	Precipitación	2.2
180916	7	Sololá	712	San Antonio Palopó	9	San Antonio Palopo	7	Julio	2023-04-07T00:00:00	2024-11-08T23:00:00	8	Radiación solar	0
180917	7	Sololá	712	San Antonio Palopó	9	San Antonio Palopo	7	Julio	2023-05-07T00:00:00	2024-11-08T00:00:00	2	Temperatura media	18.5
180918	7	Sololá	712	San Antonio Palopó	9	San Antonio Palopo	7	Julio	2023-05-07T00:00:00	2024-11-08T00:00:00	4	Temperatura máxima	18.7
180919	7	Sololá	712	San Antonio Palopó	9	San Antonio Palopo	7	Julio	2023-05-07T00:00:00	2024-11-08T00:00:00	3	Temperatura mínima	18.4
180920	7	Sololá	712	San Antonio Palopó	9	San Antonio Palopo	7	Julio	2023-05-07T00:00:00	2024-11-08T00:00:00	5	Humedad	93
180921	7	Sololá	712	San Antonio Palopó	9	San Antonio Palopo	7	Julio	2023-05-07T00:00:00	2024-11-08T00:00:00	6	Velocidad del viento	0
180922	7	Sololá	712	San Antonio Palopó	9	San Antonio Palopo	7	Julio	2023-05-07T00:00:00	2024-11-08T00:00:00	7	Dirección del viento	0
180923	7	Sololá	712	San Antonio Palopó	9	San Antonio Palopo	7	Julio	2023-05-07T00:00:00	2024-11-08T00:00:00	1	Precipitación	0.6
180924	7	Sololá	712	San Antonio Palopó	9	San Antonio Palopo	7	Julio	2023-05-07T00:00:00	2024-11-08T00:00:00	8	Radiación solar	0
180925	7	Sololá	712	San Antonio Palopó	9	San Antonio Palopo	7	Julio	2023-05-07T00:00:00	2024-11-08T01:00:00	2	Temperatura media	18.6
180926	7	Sololá	712	San Antonio Palopó	9	San Antonio Palopo	7	Julio	2023-05-07T00:00:00	2024-11-08T01:00:00	4	Temperatura máxima	18.6
180927	7	Sololá	712	San Antonio Palopó	9	San Antonio Palopo	7	Julio	2023-05-07T00:00:00	2024-11-08T01:00:00	3	Temperatura mínima	18.4
180928	7	Sololá	712	San Antonio Palopó	9	San Antonio Palopo	7	Julio	2023-05-07T00:00:00	2024-11-08T01:00:00	5	Humedad	91
180929	7	Sololá	712	San Antonio Palopó	9	San Antonio Palopo	7	Julio	2023-05-07T00:00:00	2024-11-08T01:00:00	6	Velocidad del viento	0
180930	7	Sololá	712	San Antonio Palopó	9	San Antonio Palopo	7	Julio	2023-05-07T00:00:00	2024-11-08T01:00:00	7	Dirección del viento	0
180931	7	Sololá	712	San Antonio Palopó	9	San Antonio Palopo	7	Julio	2023-05-07T00:00:00	2024-11-08T01:00:00	1	Precipitación	0.4
180932	7	Sololá	712	San Antonio Palopó	9	San Antonio Palopo	7	Julio	2023-05-07T00:00:00	2024-11-08T01:00:00	8	Radiación solar	0
180933	7	Sololá	712	San Antonio Palopó	9	San Antonio Palopo	7	Julio	2023-05-07T00:00:00	2024-11-08T02:00:00	2	Temperatura media	18.4
180934	7	Sololá	712	San Antonio Palopó	9	San Antonio Palopo	7	Julio	2023-05-07T00:00:00	2024-11-08T02:00:00	4	Temperatura máxima	18.7
180935	7	Sololá	712	San Antonio Palopó	9	San Antonio Palopo	7	Julio	2023-05-07T00:00:00	2024-11-08T02:00:00	3	Temperatura mínima	18.4
180936	7	Sololá	712	San Antonio Palopó	9	San Antonio Palopo	7	Julio	2023-05-07T00:00:00	2024-11-08T02:00:00	5	Humedad	90
180937	7	Sololá	712	San Antonio Palopó	9	San Antonio Palopo	7	Julio	2023-05-07T00:00:00	2024-11-08T02:00:00	6	Velocidad del viento	1.6
180938	7	Sololá	712	San Antonio Palopó	9	San Antonio Palopo	7	Julio	2023-05-07T00:00:00	2024-11-08T02:00:00	7	Dirección del viento	1.61
180939	7	Sololá	712	San Antonio Palopó	9	San Antonio Palopo	7	Julio	2023-05-07T00:00:00	2024-11-08T02:00:00	1	Precipitación	0
180940	7	Sololá	712	San Antonio Palopó	9	San Antonio Palopo	7	Julio	2023-05-07T00:00:00	2024-11-08T02:00:00	8	Radiación solar	0
180941	7	Sololá	712	San Antonio Palopó	9	San Antonio Palopo	7	Julio	2023-05-07T00:00:00	2024-11-08T03:00:00	2	Temperatura media	18.4
180942	7	Sololá	712	San Antonio Palopó	9	San Antonio Palopo	7	Julio	2023-05-07T00:00:00	2024-11-08T03:00:00	4	Temperatura máxima	18.4
180943	7	Sololá	712	San Antonio Palopó	9	San Antonio Palopo	7	Julio	2023-05-07T00:00:00	2024-11-08T03:00:00	3	Temperatura mínima	18.2
180944	7	Sololá	712	San Antonio Palopó	9	San Antonio Palopo	7	Julio	2023-05-07T00:00:00	2024-11-08T03:00:00	5	Humedad	85
180945	7	Sololá	712	San Antonio Palopó	9	San Antonio Palopo	7	Julio	2023-05-07T00:00:00	2024-11-08T03:00:00	6	Velocidad del viento	1.6
180946	7	Sololá	712	San Antonio Palopó	9	San Antonio Palopo	7	Julio	2023-05-07T00:00:00	2024-11-08T03:00:00	7	Dirección del viento	1.61
180947	7	Sololá	712	San Antonio Palopó	9	San Antonio Palopo	7	Julio	2023-05-07T00:00:00	2024-11-08T03:00:00	1	Precipitación	0
180948	7	Sololá	712	San Antonio Palopó	9	San Antonio Palopo	7	Julio	2023-05-07T00:00:00	2024-11-08T03:00:00	8	Radiación solar	0
180949	7	Sololá	712	San Antonio Palopó	9	San Antonio Palopo	7	Julio	2023-05-07T00:00:00	2024-11-08T04:00:00	2	Temperatura media	18.8
180950	7	Sololá	712	San Antonio Palopó	9	San Antonio Palopo	7	Julio	2023-05-07T00:00:00	2024-11-08T04:00:00	4	Temperatura máxima	19.2
180951	7	Sololá	712	San Antonio Palopó	9	San Antonio Palopo	7	Julio	2023-05-07T00:00:00	2024-11-08T04:00:00	3	Temperatura mínima	18.3
180952	7	Sololá	712	San Antonio Palopó	9	San Antonio Palopo	7	Julio	2023-05-07T00:00:00	2024-11-08T04:00:00	5	Humedad	82
180953	7	Sololá	712	San Antonio Palopó	9	San Antonio Palopo	7	Julio	2023-05-07T00:00:00	2024-11-08T04:00:00	6	Velocidad del viento	8
180954	7	Sololá	712	San Antonio Palopó	9	San Antonio Palopo	7	Julio	2023-05-07T00:00:00	2024-11-08T04:00:00	7	Dirección del viento	8.05
180955	7	Sololá	712	San Antonio Palopó	9	San Antonio Palopo	7	Julio	2023-05-07T00:00:00	2024-11-08T04:00:00	1	Precipitación	0
180956	7	Sololá	712	San Antonio Palopó	9	San Antonio Palopo	7	Julio	2023-05-07T00:00:00	2024-11-08T04:00:00	8	Radiación solar	0
180957	7	Sololá	712	San Antonio Palopó	9	San Antonio Palopo	7	Julio	2023-05-07T00:00:00	2024-11-08T05:00:00	2	Temperatura media	18.6
180958	7	Sololá	712	San Antonio Palopó	9	San Antonio Palopo	7	Julio	2023-05-07T00:00:00	2024-11-08T05:00:00	4	Temperatura máxima	18.9
180959	7	Sololá	712	San Antonio Palopó	9	San Antonio Palopo	7	Julio	2023-05-07T00:00:00	2024-11-08T05:00:00	3	Temperatura mínima	18.6
180960	7	Sololá	712	San Antonio Palopó	9	San Antonio Palopo	7	Julio	2023-05-07T00:00:00	2024-11-08T05:00:00	5	Humedad	82
180961	7	Sololá	712	San Antonio Palopó	9	San Antonio Palopo	7	Julio	2023-05-07T00:00:00	2024-11-08T05:00:00	6	Velocidad del viento	6.4
180962	7	Sololá	712	San Antonio Palopó	9	San Antonio Palopo	7	Julio	2023-05-07T00:00:00	2024-11-08T05:00:00	7	Dirección del viento	6.44
180963	7	Sololá	712	San Antonio Palopó	9	San Antonio Palopo	7	Julio	2023-05-07T00:00:00	2024-11-08T05:00:00	1	Precipitación	0
180964	7	Sololá	712	San Antonio Palopó	9	San Antonio Palopo	7	Julio	2023-05-07T00:00:00	2024-11-08T05:00:00	8	Radiación solar	0
180965	7	Sololá	712	San Antonio Palopó	9	San Antonio Palopo	7	Julio	2023-05-07T00:00:00	2024-11-08T06:00:00	2	Temperatura media	18.9
180966	7	Sololá	712	San Antonio Palopó	9	San Antonio Palopo	7	Julio	2023-05-07T00:00:00	2024-11-08T06:00:00	4	Temperatura máxima	19
180967	7	Sololá	712	San Antonio Palopó	9	San Antonio Palopo	7	Julio	2023-05-07T00:00:00	2024-11-08T06:00:00	3	Temperatura mínima	18.6
180968	7	Sololá	712	San Antonio Palopó	9	San Antonio Palopo	7	Julio	2023-05-07T00:00:00	2024-11-08T06:00:00	5	Humedad	79
180969	7	Sololá	712	San Antonio Palopó	9	San Antonio Palopo	7	Julio	2023-05-07T00:00:00	2024-11-08T06:00:00	6	Velocidad del viento	12.9
180970	7	Sololá	712	San Antonio Palopó	9	San Antonio Palopo	7	Julio	2023-05-07T00:00:00	2024-11-08T06:00:00	7	Dirección del viento	12.87
180971	7	Sololá	712	San Antonio Palopó	9	San Antonio Palopo	7	Julio	2023-05-07T00:00:00	2024-11-08T06:00:00	1	Precipitación	0
180972	7	Sololá	712	San Antonio Palopó	9	San Antonio Palopo	7	Julio	2023-05-07T00:00:00	2024-11-08T06:00:00	8	Radiación solar	2
180973	7	Sololá	712	San Antonio Palopó	9	San Antonio Palopo	7	Julio	2023-05-07T00:00:00	2024-11-08T07:00:00	2	Temperatura media	19.4
180974	7	Sololá	712	San Antonio Palopó	9	San Antonio Palopo	7	Julio	2023-05-07T00:00:00	2024-11-08T07:00:00	4	Temperatura máxima	19.4
180975	7	Sololá	712	San Antonio Palopó	9	San Antonio Palopo	7	Julio	2023-05-07T00:00:00	2024-11-08T07:00:00	3	Temperatura mínima	18.9
180976	7	Sololá	712	San Antonio Palopó	9	San Antonio Palopo	7	Julio	2023-05-07T00:00:00	2024-11-08T07:00:00	5	Humedad	78
180977	7	Sololá	712	San Antonio Palopó	9	San Antonio Palopo	7	Julio	2023-05-07T00:00:00	2024-11-08T07:00:00	6	Velocidad del viento	9.7
180978	7	Sololá	712	San Antonio Palopó	9	San Antonio Palopo	7	Julio	2023-05-07T00:00:00	2024-11-08T07:00:00	7	Dirección del viento	9.66
180979	7	Sololá	712	San Antonio Palopó	9	San Antonio Palopo	7	Julio	2023-05-07T00:00:00	2024-11-08T07:00:00	1	Precipitación	0
180980	7	Sololá	712	San Antonio Palopó	9	San Antonio Palopo	7	Julio	2023-05-07T00:00:00	2024-11-08T07:00:00	8	Radiación solar	58
180981	7	Sololá	712	San Antonio Palopó	9	San Antonio Palopo	7	Julio	2023-05-07T00:00:00	2024-11-08T08:00:00	2	Temperatura media	20.7
180982	7	Sololá	712	San Antonio Palopó	9	San Antonio Palopo	7	Julio	2023-05-07T00:00:00	2024-11-08T08:00:00	4	Temperatura máxima	20.7
180983	7	Sololá	712	San Antonio Palopó	9	San Antonio Palopo	7	Julio	2023-05-07T00:00:00	2024-11-08T08:00:00	3	Temperatura mínima	19.3
180984	7	Sololá	712	San Antonio Palopó	9	San Antonio Palopo	7	Julio	2023-05-07T00:00:00	2024-11-08T08:00:00	5	Humedad	75
180985	7	Sololá	712	San Antonio Palopó	9	San Antonio Palopo	7	Julio	2023-05-07T00:00:00	2024-11-08T08:00:00	6	Velocidad del viento	8
180986	7	Sololá	712	San Antonio Palopó	9	San Antonio Palopo	7	Julio	2023-05-07T00:00:00	2024-11-08T08:00:00	7	Dirección del viento	8.05
180987	7	Sololá	712	San Antonio Palopó	9	San Antonio Palopo	7	Julio	2023-05-07T00:00:00	2024-11-08T08:00:00	1	Precipitación	0
180988	7	Sololá	712	San Antonio Palopó	9	San Antonio Palopo	7	Julio	2023-05-07T00:00:00	2024-11-08T08:00:00	8	Radiación solar	126
180989	7	Sololá	712	San Antonio Palopó	9	San Antonio Palopo	7	Julio	2023-05-07T00:00:00	2024-11-08T09:00:00	2	Temperatura media	22.6
180990	7	Sololá	712	San Antonio Palopó	9	San Antonio Palopo	7	Julio	2023-05-07T00:00:00	2024-11-08T09:00:00	4	Temperatura máxima	22.7
180991	7	Sololá	712	San Antonio Palopó	9	San Antonio Palopo	7	Julio	2023-05-07T00:00:00	2024-11-08T09:00:00	3	Temperatura mínima	20.7
180992	7	Sololá	712	San Antonio Palopó	9	San Antonio Palopo	7	Julio	2023-05-07T00:00:00	2024-11-08T09:00:00	5	Humedad	69
180993	7	Sololá	712	San Antonio Palopó	9	San Antonio Palopo	7	Julio	2023-05-07T00:00:00	2024-11-08T09:00:00	6	Velocidad del viento	4.8
180994	7	Sololá	712	San Antonio Palopó	9	San Antonio Palopo	7	Julio	2023-05-07T00:00:00	2024-11-08T09:00:00	7	Dirección del viento	4.83
180995	7	Sololá	712	San Antonio Palopó	9	San Antonio Palopo	7	Julio	2023-05-07T00:00:00	2024-11-08T09:00:00	1	Precipitación	0
180996	7	Sololá	712	San Antonio Palopó	9	San Antonio Palopo	7	Julio	2023-05-07T00:00:00	2024-11-08T09:00:00	8	Radiación solar	401
180997	7	Sololá	712	San Antonio Palopó	9	San Antonio Palopo	7	Julio	2023-05-07T00:00:00	2024-11-08T10:00:00	2	Temperatura media	23.6
180998	7	Sololá	712	San Antonio Palopó	9	San Antonio Palopo	7	Julio	2023-05-07T00:00:00	2024-11-08T10:00:00	4	Temperatura máxima	23.7
180999	7	Sololá	712	San Antonio Palopó	9	San Antonio Palopo	7	Julio	2023-05-07T00:00:00	2024-11-08T10:00:00	3	Temperatura mínima	22.6
181000	7	Sololá	712	San Antonio Palopó	9	San Antonio Palopo	7	Julio	2023-05-07T00:00:00	2024-11-08T10:00:00	5	Humedad	70
181001	7	Sololá	712	San Antonio Palopó	9	San Antonio Palopo	7	Julio	2023-05-07T00:00:00	2024-11-08T10:00:00	6	Velocidad del viento	6.4
181002	7	Sololá	712	San Antonio Palopó	9	San Antonio Palopo	7	Julio	2023-05-07T00:00:00	2024-11-08T10:00:00	7	Dirección del viento	6.44
181003	7	Sololá	712	San Antonio Palopó	9	San Antonio Palopo	7	Julio	2023-05-07T00:00:00	2024-11-08T10:00:00	1	Precipitación	0
181004	7	Sololá	712	San Antonio Palopó	9	San Antonio Palopo	7	Julio	2023-05-07T00:00:00	2024-11-08T10:00:00	8	Radiación solar	710
181005	7	Sololá	712	San Antonio Palopó	9	San Antonio Palopo	7	Julio	2023-05-07T00:00:00	2024-11-08T11:00:00	2	Temperatura media	24.2
181006	7	Sololá	712	San Antonio Palopó	9	San Antonio Palopo	7	Julio	2023-05-07T00:00:00	2024-11-08T11:00:00	4	Temperatura máxima	24.2
181007	7	Sololá	712	San Antonio Palopó	9	San Antonio Palopo	7	Julio	2023-05-07T00:00:00	2024-11-08T11:00:00	3	Temperatura mínima	23.5
181008	7	Sololá	712	San Antonio Palopó	9	San Antonio Palopo	7	Julio	2023-05-07T00:00:00	2024-11-08T11:00:00	5	Humedad	71
181009	7	Sololá	712	San Antonio Palopó	9	San Antonio Palopo	7	Julio	2023-05-07T00:00:00	2024-11-08T11:00:00	6	Velocidad del viento	3.2
181010	7	Sololá	712	San Antonio Palopó	9	San Antonio Palopo	7	Julio	2023-05-07T00:00:00	2024-11-08T11:00:00	7	Dirección del viento	3.22
181011	7	Sololá	712	San Antonio Palopó	9	San Antonio Palopo	7	Julio	2023-05-07T00:00:00	2024-11-08T11:00:00	1	Precipitación	0
181012	7	Sololá	712	San Antonio Palopó	9	San Antonio Palopo	7	Julio	2023-05-07T00:00:00	2024-11-08T11:00:00	8	Radiación solar	834
181013	7	Sololá	712	San Antonio Palopó	9	San Antonio Palopo	7	Julio	2023-05-07T00:00:00	2024-11-08T12:00:00	2	Temperatura media	24.4
181014	7	Sololá	712	San Antonio Palopó	9	San Antonio Palopo	7	Julio	2023-05-07T00:00:00	2024-11-08T12:00:00	4	Temperatura máxima	24.9
181015	7	Sololá	712	San Antonio Palopó	9	San Antonio Palopo	7	Julio	2023-05-07T00:00:00	2024-11-08T12:00:00	3	Temperatura mínima	24.2
181016	7	Sololá	712	San Antonio Palopó	9	San Antonio Palopo	7	Julio	2023-05-07T00:00:00	2024-11-08T12:00:00	5	Humedad	71
181017	7	Sololá	712	San Antonio Palopó	9	San Antonio Palopo	7	Julio	2023-05-07T00:00:00	2024-11-08T12:00:00	6	Velocidad del viento	3.2
181018	7	Sololá	712	San Antonio Palopó	9	San Antonio Palopo	7	Julio	2023-05-07T00:00:00	2024-11-08T12:00:00	7	Dirección del viento	3.22
181019	7	Sololá	712	San Antonio Palopó	9	San Antonio Palopo	7	Julio	2023-05-07T00:00:00	2024-11-08T12:00:00	1	Precipitación	0
181020	7	Sololá	712	San Antonio Palopó	9	San Antonio Palopo	7	Julio	2023-05-07T00:00:00	2024-11-08T12:00:00	8	Radiación solar	789
181021	7	Sololá	712	San Antonio Palopó	9	San Antonio Palopo	7	Julio	2023-05-07T00:00:00	2024-11-08T13:00:00	2	Temperatura media	23.5
181022	7	Sololá	712	San Antonio Palopó	9	San Antonio Palopo	7	Julio	2023-05-07T00:00:00	2024-11-08T13:00:00	4	Temperatura máxima	25.1
181023	7	Sololá	712	San Antonio Palopó	9	San Antonio Palopo	7	Julio	2023-05-07T00:00:00	2024-11-08T13:00:00	3	Temperatura mínima	23.4
181024	7	Sololá	712	San Antonio Palopó	9	San Antonio Palopo	7	Julio	2023-05-07T00:00:00	2024-11-08T13:00:00	5	Humedad	79
181025	7	Sololá	712	San Antonio Palopó	9	San Antonio Palopo	7	Julio	2023-05-07T00:00:00	2024-11-08T13:00:00	6	Velocidad del viento	4.8
181026	7	Sololá	712	San Antonio Palopó	9	San Antonio Palopo	7	Julio	2023-05-07T00:00:00	2024-11-08T13:00:00	7	Dirección del viento	4.83
181027	7	Sololá	712	San Antonio Palopó	9	San Antonio Palopo	7	Julio	2023-05-07T00:00:00	2024-11-08T13:00:00	1	Precipitación	0
181028	7	Sololá	712	San Antonio Palopó	9	San Antonio Palopo	7	Julio	2023-05-07T00:00:00	2024-11-08T13:00:00	8	Radiación solar	622
181029	7	Sololá	712	San Antonio Palopó	9	San Antonio Palopo	7	Julio	2023-05-07T00:00:00	2024-11-08T14:00:00	2	Temperatura media	23.8
181030	7	Sololá	712	San Antonio Palopó	9	San Antonio Palopo	7	Julio	2023-05-07T00:00:00	2024-11-08T14:00:00	4	Temperatura máxima	23.8
181031	7	Sololá	712	San Antonio Palopó	9	San Antonio Palopo	7	Julio	2023-05-07T00:00:00	2024-11-08T14:00:00	3	Temperatura mínima	22.4
181032	7	Sololá	712	San Antonio Palopó	9	San Antonio Palopo	7	Julio	2023-05-07T00:00:00	2024-11-08T14:00:00	5	Humedad	78
181033	7	Sololá	712	San Antonio Palopó	9	San Antonio Palopo	7	Julio	2023-05-07T00:00:00	2024-11-08T14:00:00	6	Velocidad del viento	6.4
181034	7	Sololá	712	San Antonio Palopó	9	San Antonio Palopo	7	Julio	2023-05-07T00:00:00	2024-11-08T14:00:00	7	Dirección del viento	6.44
181035	7	Sololá	712	San Antonio Palopó	9	San Antonio Palopo	7	Julio	2023-05-07T00:00:00	2024-11-08T14:00:00	1	Precipitación	0
181036	7	Sololá	712	San Antonio Palopó	9	San Antonio Palopo	7	Julio	2023-05-07T00:00:00	2024-11-08T14:00:00	8	Radiación solar	306
181037	7	Sololá	712	San Antonio Palopó	9	San Antonio Palopo	7	Julio	2023-05-07T00:00:00	2024-11-08T15:00:00	2	Temperatura media	21.8
181038	7	Sololá	712	San Antonio Palopó	9	San Antonio Palopo	7	Julio	2023-05-07T00:00:00	2024-11-08T15:00:00	4	Temperatura máxima	23.8
181039	7	Sololá	712	San Antonio Palopó	9	San Antonio Palopo	7	Julio	2023-05-07T00:00:00	2024-11-08T15:00:00	3	Temperatura mínima	21.8
181040	7	Sololá	712	San Antonio Palopó	9	San Antonio Palopo	7	Julio	2023-05-07T00:00:00	2024-11-08T15:00:00	5	Humedad	86
181041	7	Sololá	712	San Antonio Palopó	9	San Antonio Palopo	7	Julio	2023-05-07T00:00:00	2024-11-08T15:00:00	6	Velocidad del viento	3.2
181042	7	Sololá	712	San Antonio Palopó	9	San Antonio Palopo	7	Julio	2023-05-07T00:00:00	2024-11-08T15:00:00	7	Dirección del viento	3.22
181043	7	Sololá	712	San Antonio Palopó	9	San Antonio Palopo	7	Julio	2023-05-07T00:00:00	2024-11-08T15:00:00	1	Precipitación	0.2
181044	7	Sololá	712	San Antonio Palopó	9	San Antonio Palopo	7	Julio	2023-05-07T00:00:00	2024-11-08T15:00:00	8	Radiación solar	312
181045	7	Sololá	712	San Antonio Palopó	9	San Antonio Palopo	7	Julio	2023-05-07T00:00:00	2024-11-08T16:00:00	2	Temperatura media	22.6
181046	7	Sololá	712	San Antonio Palopó	9	San Antonio Palopo	7	Julio	2023-05-07T00:00:00	2024-11-08T16:00:00	4	Temperatura máxima	22.7
181047	7	Sololá	712	San Antonio Palopó	9	San Antonio Palopo	7	Julio	2023-05-07T00:00:00	2024-11-08T16:00:00	3	Temperatura mínima	21.6
181048	7	Sololá	712	San Antonio Palopó	9	San Antonio Palopo	7	Julio	2023-05-07T00:00:00	2024-11-08T16:00:00	5	Humedad	82
181049	7	Sololá	712	San Antonio Palopó	9	San Antonio Palopo	7	Julio	2023-05-07T00:00:00	2024-11-08T16:00:00	6	Velocidad del viento	3.2
181050	7	Sololá	712	San Antonio Palopó	9	San Antonio Palopo	7	Julio	2023-05-07T00:00:00	2024-11-08T16:00:00	7	Dirección del viento	3.22
181051	7	Sololá	712	San Antonio Palopó	9	San Antonio Palopo	7	Julio	2023-05-07T00:00:00	2024-11-08T16:00:00	1	Precipitación	0
181052	7	Sololá	712	San Antonio Palopó	9	San Antonio Palopo	7	Julio	2023-05-07T00:00:00	2024-11-08T16:00:00	8	Radiación solar	339
181053	7	Sololá	712	San Antonio Palopó	9	San Antonio Palopo	7	Julio	2023-05-07T00:00:00	2024-11-08T17:00:00	2	Temperatura media	21.6
181054	7	Sololá	712	San Antonio Palopó	9	San Antonio Palopo	7	Julio	2023-05-07T00:00:00	2024-11-08T17:00:00	4	Temperatura máxima	23
181055	7	Sololá	712	San Antonio Palopó	9	San Antonio Palopo	7	Julio	2023-05-07T00:00:00	2024-11-08T17:00:00	3	Temperatura mínima	21.6
181056	7	Sololá	712	San Antonio Palopó	9	San Antonio Palopo	7	Julio	2023-05-07T00:00:00	2024-11-08T17:00:00	5	Humedad	84
181057	7	Sololá	712	San Antonio Palopó	9	San Antonio Palopo	7	Julio	2023-05-07T00:00:00	2024-11-08T17:00:00	6	Velocidad del viento	6.4
181058	7	Sololá	712	San Antonio Palopó	9	San Antonio Palopo	7	Julio	2023-05-07T00:00:00	2024-11-08T17:00:00	7	Dirección del viento	6.44
181059	7	Sololá	712	San Antonio Palopó	9	San Antonio Palopo	7	Julio	2023-05-07T00:00:00	2024-11-08T17:00:00	1	Precipitación	0
181060	7	Sololá	712	San Antonio Palopó	9	San Antonio Palopo	7	Julio	2023-05-07T00:00:00	2024-11-08T17:00:00	8	Radiación solar	208
181061	7	Sololá	712	San Antonio Palopó	9	San Antonio Palopo	7	Julio	2023-05-07T00:00:00	2024-11-08T18:00:00	2	Temperatura media	20.9
181062	7	Sololá	712	San Antonio Palopó	9	San Antonio Palopo	7	Julio	2023-05-07T00:00:00	2024-11-08T18:00:00	4	Temperatura máxima	21.7
181063	7	Sololá	712	San Antonio Palopó	9	San Antonio Palopo	7	Julio	2023-05-07T00:00:00	2024-11-08T18:00:00	3	Temperatura mínima	20.9
181064	7	Sololá	712	San Antonio Palopó	9	San Antonio Palopo	7	Julio	2023-05-07T00:00:00	2024-11-08T18:00:00	5	Humedad	85
181065	7	Sololá	712	San Antonio Palopó	9	San Antonio Palopo	7	Julio	2023-05-07T00:00:00	2024-11-08T18:00:00	6	Velocidad del viento	4.8
181066	7	Sololá	712	San Antonio Palopó	9	San Antonio Palopo	7	Julio	2023-05-07T00:00:00	2024-11-08T18:00:00	7	Dirección del viento	4.83
181067	7	Sololá	712	San Antonio Palopó	9	San Antonio Palopo	7	Julio	2023-05-07T00:00:00	2024-11-08T18:00:00	1	Precipitación	0
181068	7	Sololá	712	San Antonio Palopó	9	San Antonio Palopo	7	Julio	2023-05-07T00:00:00	2024-11-08T18:00:00	8	Radiación solar	112
181069	7	Sololá	712	San Antonio Palopó	9	San Antonio Palopo	7	Julio	2023-05-07T00:00:00	2024-11-08T19:00:00	2	Temperatura media	20.2
181070	7	Sololá	712	San Antonio Palopó	9	San Antonio Palopo	7	Julio	2023-05-07T00:00:00	2024-11-08T19:00:00	4	Temperatura máxima	20.9
181071	7	Sololá	712	San Antonio Palopó	9	San Antonio Palopo	7	Julio	2023-05-07T00:00:00	2024-11-08T19:00:00	3	Temperatura mínima	20.2
181072	7	Sololá	712	San Antonio Palopó	9	San Antonio Palopo	7	Julio	2023-05-07T00:00:00	2024-11-08T19:00:00	5	Humedad	85
181073	7	Sololá	712	San Antonio Palopó	9	San Antonio Palopo	7	Julio	2023-05-07T00:00:00	2024-11-08T19:00:00	6	Velocidad del viento	1.6
181074	7	Sololá	712	San Antonio Palopó	9	San Antonio Palopo	7	Julio	2023-05-07T00:00:00	2024-11-08T19:00:00	7	Dirección del viento	1.61
181075	7	Sololá	712	San Antonio Palopó	9	San Antonio Palopo	7	Julio	2023-05-07T00:00:00	2024-11-08T19:00:00	1	Precipitación	0
181076	7	Sololá	712	San Antonio Palopó	9	San Antonio Palopo	7	Julio	2023-05-07T00:00:00	2024-11-08T19:00:00	8	Radiación solar	0
181077	7	Sololá	712	San Antonio Palopó	9	San Antonio Palopo	7	Julio	2023-05-07T00:00:00	2024-11-08T20:00:00	2	Temperatura media	19.9
181078	7	Sololá	712	San Antonio Palopó	9	San Antonio Palopo	7	Julio	2023-05-07T00:00:00	2024-11-08T20:00:00	4	Temperatura máxima	20.2
181079	7	Sololá	712	San Antonio Palopó	9	San Antonio Palopo	7	Julio	2023-05-07T00:00:00	2024-11-08T20:00:00	3	Temperatura mínima	19.8
181080	7	Sololá	712	San Antonio Palopó	9	San Antonio Palopo	7	Julio	2023-05-07T00:00:00	2024-11-08T20:00:00	5	Humedad	74
181081	7	Sololá	712	San Antonio Palopó	9	San Antonio Palopo	7	Julio	2023-05-07T00:00:00	2024-11-08T20:00:00	6	Velocidad del viento	1.6
181082	7	Sololá	712	San Antonio Palopó	9	San Antonio Palopo	7	Julio	2023-05-07T00:00:00	2024-11-08T20:00:00	7	Dirección del viento	1.61
181083	7	Sololá	712	San Antonio Palopó	9	San Antonio Palopo	7	Julio	2023-05-07T00:00:00	2024-11-08T20:00:00	1	Precipitación	0
181084	7	Sololá	712	San Antonio Palopó	9	San Antonio Palopo	7	Julio	2023-05-07T00:00:00	2024-11-08T20:00:00	8	Radiación solar	0
181085	7	Sololá	712	San Antonio Palopó	9	San Antonio Palopo	7	Julio	2023-05-07T00:00:00	2024-11-08T21:00:00	2	Temperatura media	20.1
181086	7	Sololá	712	San Antonio Palopó	9	San Antonio Palopo	7	Julio	2023-05-07T00:00:00	2024-11-08T21:00:00	4	Temperatura máxima	20.3
181087	7	Sololá	712	San Antonio Palopó	9	San Antonio Palopo	7	Julio	2023-05-07T00:00:00	2024-11-08T21:00:00	3	Temperatura mínima	19.8
181088	7	Sololá	712	San Antonio Palopó	9	San Antonio Palopo	7	Julio	2023-05-07T00:00:00	2024-11-08T21:00:00	5	Humedad	74
181089	7	Sololá	712	San Antonio Palopó	9	San Antonio Palopo	7	Julio	2023-05-07T00:00:00	2024-11-08T21:00:00	6	Velocidad del viento	4.8
181090	7	Sololá	712	San Antonio Palopó	9	San Antonio Palopo	7	Julio	2023-05-07T00:00:00	2024-11-08T21:00:00	7	Dirección del viento	4.83
181091	7	Sololá	712	San Antonio Palopó	9	San Antonio Palopo	7	Julio	2023-05-07T00:00:00	2024-11-08T21:00:00	1	Precipitación	0
181092	7	Sololá	712	San Antonio Palopó	9	San Antonio Palopo	7	Julio	2023-05-07T00:00:00	2024-11-08T21:00:00	8	Radiación solar	0
181093	7	Sololá	712	San Antonio Palopó	9	San Antonio Palopo	7	Julio	2023-05-07T00:00:00	2024-11-08T22:00:00	2	Temperatura media	20.6
181094	7	Sololá	712	San Antonio Palopó	9	San Antonio Palopo	7	Julio	2023-05-07T00:00:00	2024-11-08T22:00:00	4	Temperatura máxima	20.6
181095	7	Sololá	712	San Antonio Palopó	9	San Antonio Palopo	7	Julio	2023-05-07T00:00:00	2024-11-08T22:00:00	3	Temperatura mínima	20.1
181096	7	Sololá	712	San Antonio Palopó	9	San Antonio Palopo	7	Julio	2023-05-07T00:00:00	2024-11-08T22:00:00	5	Humedad	74
181097	7	Sololá	712	San Antonio Palopó	9	San Antonio Palopo	7	Julio	2023-05-07T00:00:00	2024-11-08T22:00:00	6	Velocidad del viento	8
181098	7	Sololá	712	San Antonio Palopó	9	San Antonio Palopo	7	Julio	2023-05-07T00:00:00	2024-11-08T22:00:00	7	Dirección del viento	8.05
181099	7	Sololá	712	San Antonio Palopó	9	San Antonio Palopo	7	Julio	2023-05-07T00:00:00	2024-11-08T22:00:00	1	Precipitación	0
181100	7	Sololá	712	San Antonio Palopó	9	San Antonio Palopo	7	Julio	2023-05-07T00:00:00	2024-11-08T22:00:00	8	Radiación solar	0
181101	7	Sololá	712	San Antonio Palopó	9	San Antonio Palopo	7	Julio	2023-05-07T00:00:00	2024-11-08T23:00:00	2	Temperatura media	20.6
181102	7	Sololá	712	San Antonio Palopó	9	San Antonio Palopo	7	Julio	2023-05-07T00:00:00	2024-11-08T23:00:00	4	Temperatura máxima	21.1
181103	7	Sololá	712	San Antonio Palopó	9	San Antonio Palopo	7	Julio	2023-05-07T00:00:00	2024-11-08T23:00:00	3	Temperatura mínima	20.6
181104	7	Sololá	712	San Antonio Palopó	9	San Antonio Palopo	7	Julio	2023-05-07T00:00:00	2024-11-08T23:00:00	5	Humedad	75
181105	7	Sololá	712	San Antonio Palopó	9	San Antonio Palopo	7	Julio	2023-05-07T00:00:00	2024-11-08T23:00:00	6	Velocidad del viento	6.4
181106	7	Sololá	712	San Antonio Palopó	9	San Antonio Palopo	7	Julio	2023-05-07T00:00:00	2024-11-08T23:00:00	7	Dirección del viento	6.44
181107	7	Sololá	712	San Antonio Palopó	9	San Antonio Palopo	7	Julio	2023-05-07T00:00:00	2024-11-08T23:00:00	1	Precipitación	0
181108	7	Sololá	712	San Antonio Palopó	9	San Antonio Palopo	7	Julio	2023-05-07T00:00:00	2024-11-08T23:00:00	8	Radiación solar	0
181109	7	Sololá	712	San Antonio Palopó	9	San Antonio Palopo	7	Julio	2023-06-07T00:00:00	2024-11-08T00:00:00	2	Temperatura media	20.3
181110	7	Sololá	712	San Antonio Palopó	9	San Antonio Palopo	7	Julio	2023-06-07T00:00:00	2024-11-08T00:00:00	4	Temperatura máxima	20.6
181111	7	Sololá	712	San Antonio Palopó	9	San Antonio Palopo	7	Julio	2023-06-07T00:00:00	2024-11-08T00:00:00	3	Temperatura mínima	20
181112	7	Sololá	712	San Antonio Palopó	9	San Antonio Palopo	7	Julio	2023-06-07T00:00:00	2024-11-08T00:00:00	5	Humedad	74
181113	7	Sololá	712	San Antonio Palopó	9	San Antonio Palopo	7	Julio	2023-06-07T00:00:00	2024-11-08T00:00:00	6	Velocidad del viento	8
181114	7	Sololá	712	San Antonio Palopó	9	San Antonio Palopo	7	Julio	2023-06-07T00:00:00	2024-11-08T00:00:00	7	Dirección del viento	8.05
181115	7	Sololá	712	San Antonio Palopó	9	San Antonio Palopo	7	Julio	2023-06-07T00:00:00	2024-11-08T00:00:00	1	Precipitación	0
181116	7	Sololá	712	San Antonio Palopó	9	San Antonio Palopo	7	Julio	2023-06-07T00:00:00	2024-11-08T00:00:00	8	Radiación solar	0
181117	7	Sololá	712	San Antonio Palopó	9	San Antonio Palopo	7	Julio	2023-06-07T00:00:00	2024-11-08T01:00:00	2	Temperatura media	19.8
181118	7	Sololá	712	San Antonio Palopó	9	San Antonio Palopo	7	Julio	2023-06-07T00:00:00	2024-11-08T01:00:00	4	Temperatura máxima	20.6
181119	7	Sololá	712	San Antonio Palopó	9	San Antonio Palopo	7	Julio	2023-06-07T00:00:00	2024-11-08T01:00:00	3	Temperatura mínima	19.8
181120	7	Sololá	712	San Antonio Palopó	9	San Antonio Palopo	7	Julio	2023-06-07T00:00:00	2024-11-08T01:00:00	5	Humedad	76
181121	7	Sololá	712	San Antonio Palopó	9	San Antonio Palopo	7	Julio	2023-06-07T00:00:00	2024-11-08T01:00:00	6	Velocidad del viento	9.7
181122	7	Sololá	712	San Antonio Palopó	9	San Antonio Palopo	7	Julio	2023-06-07T00:00:00	2024-11-08T01:00:00	7	Dirección del viento	9.66
181123	7	Sololá	712	San Antonio Palopó	9	San Antonio Palopo	7	Julio	2023-06-07T00:00:00	2024-11-08T01:00:00	1	Precipitación	0
181124	7	Sololá	712	San Antonio Palopó	9	San Antonio Palopo	7	Julio	2023-06-07T00:00:00	2024-11-08T01:00:00	8	Radiación solar	0
181125	7	Sololá	712	San Antonio Palopó	9	San Antonio Palopo	7	Julio	2023-06-07T00:00:00	2024-11-08T02:00:00	2	Temperatura media	19.6
181126	7	Sololá	712	San Antonio Palopó	9	San Antonio Palopo	7	Julio	2023-06-07T00:00:00	2024-11-08T02:00:00	4	Temperatura máxima	19.9
181127	7	Sololá	712	San Antonio Palopó	9	San Antonio Palopo	7	Julio	2023-06-07T00:00:00	2024-11-08T02:00:00	3	Temperatura mínima	19.6
181128	7	Sololá	712	San Antonio Palopó	9	San Antonio Palopo	7	Julio	2023-06-07T00:00:00	2024-11-08T02:00:00	5	Humedad	75
181129	7	Sololá	712	San Antonio Palopó	9	San Antonio Palopo	7	Julio	2023-06-07T00:00:00	2024-11-08T02:00:00	6	Velocidad del viento	14.5
181130	7	Sololá	712	San Antonio Palopó	9	San Antonio Palopo	7	Julio	2023-06-07T00:00:00	2024-11-08T02:00:00	7	Dirección del viento	14.48
181131	7	Sololá	712	San Antonio Palopó	9	San Antonio Palopo	7	Julio	2023-06-07T00:00:00	2024-11-08T02:00:00	1	Precipitación	0
181132	7	Sololá	712	San Antonio Palopó	9	San Antonio Palopo	7	Julio	2023-06-07T00:00:00	2024-11-08T02:00:00	8	Radiación solar	0
181133	7	Sololá	712	San Antonio Palopó	9	San Antonio Palopo	7	Julio	2023-06-07T00:00:00	2024-11-08T03:00:00	2	Temperatura media	19.2
181134	7	Sololá	712	San Antonio Palopó	9	San Antonio Palopo	7	Julio	2023-06-07T00:00:00	2024-11-08T03:00:00	4	Temperatura máxima	19.9
181135	7	Sololá	712	San Antonio Palopó	9	San Antonio Palopo	7	Julio	2023-06-07T00:00:00	2024-11-08T03:00:00	3	Temperatura mínima	19.1
181136	7	Sololá	712	San Antonio Palopó	9	San Antonio Palopo	7	Julio	2023-06-07T00:00:00	2024-11-08T03:00:00	5	Humedad	75
181137	7	Sololá	712	San Antonio Palopó	9	San Antonio Palopo	7	Julio	2023-06-07T00:00:00	2024-11-08T03:00:00	6	Velocidad del viento	12.9
181138	7	Sololá	712	San Antonio Palopó	9	San Antonio Palopo	7	Julio	2023-06-07T00:00:00	2024-11-08T03:00:00	7	Dirección del viento	12.87
181139	7	Sololá	712	San Antonio Palopó	9	San Antonio Palopo	7	Julio	2023-06-07T00:00:00	2024-11-08T03:00:00	1	Precipitación	0
181140	7	Sololá	712	San Antonio Palopó	9	San Antonio Palopo	7	Julio	2023-06-07T00:00:00	2024-11-08T03:00:00	8	Radiación solar	0
181141	7	Sololá	712	San Antonio Palopó	9	San Antonio Palopo	7	Julio	2023-06-07T00:00:00	2024-11-08T04:00:00	2	Temperatura media	18.8
181142	7	Sololá	712	San Antonio Palopó	9	San Antonio Palopo	7	Julio	2023-06-07T00:00:00	2024-11-08T04:00:00	4	Temperatura máxima	19.4
181143	7	Sololá	712	San Antonio Palopó	9	San Antonio Palopo	7	Julio	2023-06-07T00:00:00	2024-11-08T04:00:00	3	Temperatura mínima	18.8
181144	7	Sololá	712	San Antonio Palopó	9	San Antonio Palopo	7	Julio	2023-06-07T00:00:00	2024-11-08T04:00:00	5	Humedad	76
181145	7	Sololá	712	San Antonio Palopó	9	San Antonio Palopo	7	Julio	2023-06-07T00:00:00	2024-11-08T04:00:00	6	Velocidad del viento	17.7
181146	7	Sololá	712	San Antonio Palopó	9	San Antonio Palopo	7	Julio	2023-06-07T00:00:00	2024-11-08T04:00:00	7	Dirección del viento	17.7
181147	7	Sololá	712	San Antonio Palopó	9	San Antonio Palopo	7	Julio	2023-06-07T00:00:00	2024-11-08T04:00:00	1	Precipitación	0
181148	7	Sololá	712	San Antonio Palopó	9	San Antonio Palopo	7	Julio	2023-06-07T00:00:00	2024-11-08T04:00:00	8	Radiación solar	0
181149	7	Sololá	712	San Antonio Palopó	9	San Antonio Palopo	7	Julio	2023-06-07T00:00:00	2024-11-08T05:00:00	2	Temperatura media	18.9
181150	7	Sololá	712	San Antonio Palopó	9	San Antonio Palopo	7	Julio	2023-06-07T00:00:00	2024-11-08T05:00:00	4	Temperatura máxima	19.1
181151	7	Sololá	712	San Antonio Palopó	9	San Antonio Palopo	7	Julio	2023-06-07T00:00:00	2024-11-08T05:00:00	3	Temperatura mínima	18.4
181152	7	Sololá	712	San Antonio Palopó	9	San Antonio Palopo	7	Julio	2023-06-07T00:00:00	2024-11-08T05:00:00	5	Humedad	74
181153	7	Sololá	712	San Antonio Palopó	9	San Antonio Palopo	7	Julio	2023-06-07T00:00:00	2024-11-08T05:00:00	6	Velocidad del viento	16.1
181154	7	Sololá	712	San Antonio Palopó	9	San Antonio Palopo	7	Julio	2023-06-07T00:00:00	2024-11-08T05:00:00	7	Dirección del viento	16.09
181155	7	Sololá	712	San Antonio Palopó	9	San Antonio Palopo	7	Julio	2023-06-07T00:00:00	2024-11-08T05:00:00	1	Precipitación	0
181156	7	Sololá	712	San Antonio Palopó	9	San Antonio Palopo	7	Julio	2023-06-07T00:00:00	2024-11-08T05:00:00	8	Radiación solar	0
181157	7	Sololá	712	San Antonio Palopó	9	San Antonio Palopo	7	Julio	2023-06-07T00:00:00	2024-11-08T06:00:00	2	Temperatura media	19.1
181158	7	Sololá	712	San Antonio Palopó	9	San Antonio Palopo	7	Julio	2023-06-07T00:00:00	2024-11-08T06:00:00	4	Temperatura máxima	19.1
181159	7	Sololá	712	San Antonio Palopó	9	San Antonio Palopo	7	Julio	2023-06-07T00:00:00	2024-11-08T06:00:00	3	Temperatura mínima	18.8
181160	7	Sololá	712	San Antonio Palopó	9	San Antonio Palopo	7	Julio	2023-06-07T00:00:00	2024-11-08T06:00:00	5	Humedad	76
181161	7	Sololá	712	San Antonio Palopó	9	San Antonio Palopo	7	Julio	2023-06-07T00:00:00	2024-11-08T06:00:00	6	Velocidad del viento	11.3
181162	7	Sololá	712	San Antonio Palopó	9	San Antonio Palopo	7	Julio	2023-06-07T00:00:00	2024-11-08T06:00:00	7	Dirección del viento	11.27
181163	7	Sololá	712	San Antonio Palopó	9	San Antonio Palopo	7	Julio	2023-06-07T00:00:00	2024-11-08T06:00:00	1	Precipitación	0
181164	7	Sololá	712	San Antonio Palopó	9	San Antonio Palopo	7	Julio	2023-06-07T00:00:00	2024-11-08T06:00:00	8	Radiación solar	2
181165	7	Sololá	712	San Antonio Palopó	9	San Antonio Palopo	7	Julio	2023-06-07T00:00:00	2024-11-08T07:00:00	2	Temperatura media	19.4
181166	7	Sololá	712	San Antonio Palopó	9	San Antonio Palopo	7	Julio	2023-06-07T00:00:00	2024-11-08T07:00:00	4	Temperatura máxima	19.4
181167	7	Sololá	712	San Antonio Palopó	9	San Antonio Palopo	7	Julio	2023-06-07T00:00:00	2024-11-08T07:00:00	3	Temperatura mínima	18.9
181168	7	Sololá	712	San Antonio Palopó	9	San Antonio Palopo	7	Julio	2023-06-07T00:00:00	2024-11-08T07:00:00	5	Humedad	76
181169	7	Sololá	712	San Antonio Palopó	9	San Antonio Palopo	7	Julio	2023-06-07T00:00:00	2024-11-08T07:00:00	6	Velocidad del viento	11.3
181170	7	Sololá	712	San Antonio Palopó	9	San Antonio Palopo	7	Julio	2023-06-07T00:00:00	2024-11-08T07:00:00	7	Dirección del viento	11.27
181171	7	Sololá	712	San Antonio Palopó	9	San Antonio Palopo	7	Julio	2023-06-07T00:00:00	2024-11-08T07:00:00	1	Precipitación	0
181172	7	Sololá	712	San Antonio Palopó	9	San Antonio Palopo	7	Julio	2023-06-07T00:00:00	2024-11-08T07:00:00	8	Radiación solar	26
181173	7	Sololá	712	San Antonio Palopó	9	San Antonio Palopo	7	Julio	2023-06-07T00:00:00	2024-11-08T08:00:00	2	Temperatura media	20.6
181174	7	Sololá	712	San Antonio Palopó	9	San Antonio Palopo	7	Julio	2023-06-07T00:00:00	2024-11-08T08:00:00	4	Temperatura máxima	20.6
181175	7	Sololá	712	San Antonio Palopó	9	San Antonio Palopo	7	Julio	2023-06-07T00:00:00	2024-11-08T08:00:00	3	Temperatura mínima	19.4
181176	7	Sololá	712	San Antonio Palopó	9	San Antonio Palopo	7	Julio	2023-06-07T00:00:00	2024-11-08T08:00:00	5	Humedad	73
181177	7	Sololá	712	San Antonio Palopó	9	San Antonio Palopo	7	Julio	2023-06-07T00:00:00	2024-11-08T08:00:00	6	Velocidad del viento	8
181178	7	Sololá	712	San Antonio Palopó	9	San Antonio Palopo	7	Julio	2023-06-07T00:00:00	2024-11-08T08:00:00	7	Dirección del viento	8.05
181179	7	Sololá	712	San Antonio Palopó	9	San Antonio Palopo	7	Julio	2023-06-07T00:00:00	2024-11-08T08:00:00	1	Precipitación	0
181180	7	Sololá	712	San Antonio Palopó	9	San Antonio Palopo	7	Julio	2023-06-07T00:00:00	2024-11-08T08:00:00	8	Radiación solar	82
181181	7	Sololá	712	San Antonio Palopó	9	San Antonio Palopo	7	Julio	2023-06-07T00:00:00	2024-11-08T09:00:00	2	Temperatura media	22.4
181182	7	Sololá	712	San Antonio Palopó	9	San Antonio Palopo	7	Julio	2023-06-07T00:00:00	2024-11-08T09:00:00	4	Temperatura máxima	22.4
181183	7	Sololá	712	San Antonio Palopó	9	San Antonio Palopo	7	Julio	2023-06-07T00:00:00	2024-11-08T09:00:00	3	Temperatura mínima	20.6
181184	7	Sololá	712	San Antonio Palopó	9	San Antonio Palopo	7	Julio	2023-06-07T00:00:00	2024-11-08T09:00:00	5	Humedad	70
181185	7	Sololá	712	San Antonio Palopó	9	San Antonio Palopo	7	Julio	2023-06-07T00:00:00	2024-11-08T09:00:00	6	Velocidad del viento	3.2
181186	7	Sololá	712	San Antonio Palopó	9	San Antonio Palopo	7	Julio	2023-06-07T00:00:00	2024-11-08T09:00:00	7	Dirección del viento	3.22
181187	7	Sololá	712	San Antonio Palopó	9	San Antonio Palopo	7	Julio	2023-06-07T00:00:00	2024-11-08T09:00:00	1	Precipitación	0
181188	7	Sololá	712	San Antonio Palopó	9	San Antonio Palopo	7	Julio	2023-06-07T00:00:00	2024-11-08T09:00:00	8	Radiación solar	184
181189	7	Sololá	712	San Antonio Palopó	9	San Antonio Palopo	7	Julio	2023-06-07T00:00:00	2024-11-08T10:00:00	2	Temperatura media	24.1
181190	7	Sololá	712	San Antonio Palopó	9	San Antonio Palopo	7	Julio	2023-06-07T00:00:00	2024-11-08T10:00:00	4	Temperatura máxima	24.1
181191	7	Sololá	712	San Antonio Palopó	9	San Antonio Palopo	7	Julio	2023-06-07T00:00:00	2024-11-08T10:00:00	3	Temperatura mínima	22.4
181192	7	Sololá	712	San Antonio Palopó	9	San Antonio Palopo	7	Julio	2023-06-07T00:00:00	2024-11-08T10:00:00	5	Humedad	68
181193	7	Sololá	712	San Antonio Palopó	9	San Antonio Palopo	7	Julio	2023-06-07T00:00:00	2024-11-08T10:00:00	6	Velocidad del viento	1.6
181194	7	Sololá	712	San Antonio Palopó	9	San Antonio Palopo	7	Julio	2023-06-07T00:00:00	2024-11-08T10:00:00	7	Dirección del viento	1.61
181195	7	Sololá	712	San Antonio Palopó	9	San Antonio Palopo	7	Julio	2023-06-07T00:00:00	2024-11-08T10:00:00	1	Precipitación	0
181196	7	Sololá	712	San Antonio Palopó	9	San Antonio Palopo	7	Julio	2023-06-07T00:00:00	2024-11-08T10:00:00	8	Radiación solar	248
181197	7	Sololá	712	San Antonio Palopó	9	San Antonio Palopo	7	Julio	2023-06-07T00:00:00	2024-11-08T11:00:00	2	Temperatura media	24.6
181198	7	Sololá	712	San Antonio Palopó	9	San Antonio Palopo	7	Julio	2023-06-07T00:00:00	2024-11-08T11:00:00	4	Temperatura máxima	24.9
181199	7	Sololá	712	San Antonio Palopó	9	San Antonio Palopo	7	Julio	2023-06-07T00:00:00	2024-11-08T11:00:00	3	Temperatura mínima	23.9
181200	7	Sololá	712	San Antonio Palopó	9	San Antonio Palopo	7	Julio	2023-06-07T00:00:00	2024-11-08T11:00:00	5	Humedad	67
181201	7	Sololá	712	San Antonio Palopó	9	San Antonio Palopo	7	Julio	2023-06-07T00:00:00	2024-11-08T11:00:00	6	Velocidad del viento	3.2
181202	7	Sololá	712	San Antonio Palopó	9	San Antonio Palopo	7	Julio	2023-06-07T00:00:00	2024-11-08T11:00:00	7	Dirección del viento	3.22
181203	7	Sololá	712	San Antonio Palopó	9	San Antonio Palopo	7	Julio	2023-06-07T00:00:00	2024-11-08T11:00:00	1	Precipitación	0
181204	7	Sololá	712	San Antonio Palopó	9	San Antonio Palopo	7	Julio	2023-06-07T00:00:00	2024-11-08T11:00:00	8	Radiación solar	304
181205	7	Sololá	712	San Antonio Palopó	9	San Antonio Palopo	7	Julio	2023-06-07T00:00:00	2024-11-08T12:00:00	2	Temperatura media	24.7
181206	7	Sololá	712	San Antonio Palopó	9	San Antonio Palopo	7	Julio	2023-06-07T00:00:00	2024-11-08T12:00:00	4	Temperatura máxima	26.1
181207	7	Sololá	712	San Antonio Palopó	9	San Antonio Palopo	7	Julio	2023-06-07T00:00:00	2024-11-08T12:00:00	3	Temperatura mínima	24.6
181208	7	Sololá	712	San Antonio Palopó	9	San Antonio Palopo	7	Julio	2023-06-07T00:00:00	2024-11-08T12:00:00	5	Humedad	70
181209	7	Sololá	712	San Antonio Palopó	9	San Antonio Palopo	7	Julio	2023-06-07T00:00:00	2024-11-08T12:00:00	6	Velocidad del viento	11.3
181210	7	Sololá	712	San Antonio Palopó	9	San Antonio Palopo	7	Julio	2023-06-07T00:00:00	2024-11-08T12:00:00	7	Dirección del viento	11.27
181211	7	Sololá	712	San Antonio Palopó	9	San Antonio Palopo	7	Julio	2023-06-07T00:00:00	2024-11-08T12:00:00	1	Precipitación	0
181212	7	Sololá	712	San Antonio Palopó	9	San Antonio Palopo	7	Julio	2023-06-07T00:00:00	2024-11-08T12:00:00	8	Radiación solar	456
181213	7	Sololá	712	San Antonio Palopó	9	San Antonio Palopo	7	Julio	2023-06-07T00:00:00	2024-11-08T13:00:00	2	Temperatura media	24.8
181214	7	Sololá	712	San Antonio Palopó	9	San Antonio Palopo	7	Julio	2023-06-07T00:00:00	2024-11-08T13:00:00	4	Temperatura máxima	25.5
181215	7	Sololá	712	San Antonio Palopó	9	San Antonio Palopo	7	Julio	2023-06-07T00:00:00	2024-11-08T13:00:00	3	Temperatura mínima	24.2
181216	7	Sololá	712	San Antonio Palopó	9	San Antonio Palopo	7	Julio	2023-06-07T00:00:00	2024-11-08T13:00:00	5	Humedad	76
181217	7	Sololá	712	San Antonio Palopó	9	San Antonio Palopo	7	Julio	2023-06-07T00:00:00	2024-11-08T13:00:00	6	Velocidad del viento	9.7
181218	7	Sololá	712	San Antonio Palopó	9	San Antonio Palopo	7	Julio	2023-06-07T00:00:00	2024-11-08T13:00:00	7	Dirección del viento	9.66
181219	7	Sololá	712	San Antonio Palopó	9	San Antonio Palopo	7	Julio	2023-06-07T00:00:00	2024-11-08T13:00:00	1	Precipitación	0
181220	7	Sololá	712	San Antonio Palopó	9	San Antonio Palopo	7	Julio	2023-06-07T00:00:00	2024-11-08T13:00:00	8	Radiación solar	622
181221	7	Sololá	712	San Antonio Palopó	9	San Antonio Palopo	7	Julio	2023-06-07T00:00:00	2024-11-08T14:00:00	2	Temperatura media	26.2
181222	7	Sololá	712	San Antonio Palopó	9	San Antonio Palopo	7	Julio	2023-06-07T00:00:00	2024-11-08T14:00:00	4	Temperatura máxima	26.2
181223	7	Sololá	712	San Antonio Palopó	9	San Antonio Palopo	7	Julio	2023-06-07T00:00:00	2024-11-08T14:00:00	3	Temperatura mínima	24.8
181224	7	Sololá	712	San Antonio Palopó	9	San Antonio Palopo	7	Julio	2023-06-07T00:00:00	2024-11-08T14:00:00	5	Humedad	69
181225	7	Sololá	712	San Antonio Palopó	9	San Antonio Palopo	7	Julio	2023-06-07T00:00:00	2024-11-08T14:00:00	6	Velocidad del viento	4.8
181226	7	Sololá	712	San Antonio Palopó	9	San Antonio Palopo	7	Julio	2023-06-07T00:00:00	2024-11-08T14:00:00	7	Dirección del viento	4.83
181227	7	Sololá	712	San Antonio Palopó	9	San Antonio Palopo	7	Julio	2023-06-07T00:00:00	2024-11-08T14:00:00	1	Precipitación	0
181228	7	Sololá	712	San Antonio Palopó	9	San Antonio Palopo	7	Julio	2023-06-07T00:00:00	2024-11-08T14:00:00	8	Radiación solar	436
181229	7	Sololá	712	San Antonio Palopó	9	San Antonio Palopo	7	Julio	2023-06-07T00:00:00	2024-11-08T15:00:00	2	Temperatura media	25.6
181230	7	Sololá	712	San Antonio Palopó	9	San Antonio Palopo	7	Julio	2023-06-07T00:00:00	2024-11-08T15:00:00	4	Temperatura máxima	26.6
181231	7	Sololá	712	San Antonio Palopó	9	San Antonio Palopo	7	Julio	2023-06-07T00:00:00	2024-11-08T15:00:00	3	Temperatura mínima	25.3
181232	7	Sololá	712	San Antonio Palopó	9	San Antonio Palopo	7	Julio	2023-06-07T00:00:00	2024-11-08T15:00:00	5	Humedad	72
181233	7	Sololá	712	San Antonio Palopó	9	San Antonio Palopo	7	Julio	2023-06-07T00:00:00	2024-11-08T15:00:00	6	Velocidad del viento	6.4
181234	7	Sololá	712	San Antonio Palopó	9	San Antonio Palopo	7	Julio	2023-06-07T00:00:00	2024-11-08T15:00:00	7	Dirección del viento	6.44
181235	7	Sololá	712	San Antonio Palopó	9	San Antonio Palopo	7	Julio	2023-06-07T00:00:00	2024-11-08T15:00:00	1	Precipitación	0
181236	7	Sololá	712	San Antonio Palopó	9	San Antonio Palopo	7	Julio	2023-06-07T00:00:00	2024-11-08T15:00:00	8	Radiación solar	364
181237	7	Sololá	712	San Antonio Palopó	9	San Antonio Palopo	7	Julio	2023-06-07T00:00:00	2024-11-08T16:00:00	2	Temperatura media	25.8
181238	7	Sololá	712	San Antonio Palopó	9	San Antonio Palopo	7	Julio	2023-06-07T00:00:00	2024-11-08T16:00:00	4	Temperatura máxima	26.1
181239	7	Sololá	712	San Antonio Palopó	9	San Antonio Palopo	7	Julio	2023-06-07T00:00:00	2024-11-08T16:00:00	3	Temperatura mínima	24.9
181240	7	Sololá	712	San Antonio Palopó	9	San Antonio Palopo	7	Julio	2023-06-07T00:00:00	2024-11-08T16:00:00	5	Humedad	69
181241	7	Sololá	712	San Antonio Palopó	9	San Antonio Palopo	7	Julio	2023-06-07T00:00:00	2024-11-08T16:00:00	6	Velocidad del viento	6.4
181242	7	Sololá	712	San Antonio Palopó	9	San Antonio Palopo	7	Julio	2023-06-07T00:00:00	2024-11-08T16:00:00	7	Dirección del viento	6.44
181243	7	Sololá	712	San Antonio Palopó	9	San Antonio Palopo	7	Julio	2023-06-07T00:00:00	2024-11-08T16:00:00	1	Precipitación	0
181244	7	Sololá	712	San Antonio Palopó	9	San Antonio Palopo	7	Julio	2023-06-07T00:00:00	2024-11-08T16:00:00	8	Radiación solar	290
181245	7	Sololá	712	San Antonio Palopó	9	San Antonio Palopo	7	Julio	2023-06-07T00:00:00	2024-11-08T17:00:00	2	Temperatura media	24.7
181246	7	Sololá	712	San Antonio Palopó	9	San Antonio Palopo	7	Julio	2023-06-07T00:00:00	2024-11-08T17:00:00	4	Temperatura máxima	25.9
181247	7	Sololá	712	San Antonio Palopó	9	San Antonio Palopo	7	Julio	2023-06-07T00:00:00	2024-11-08T17:00:00	3	Temperatura mínima	24.7
181248	7	Sololá	712	San Antonio Palopó	9	San Antonio Palopo	7	Julio	2023-06-07T00:00:00	2024-11-08T17:00:00	5	Humedad	70
181249	7	Sololá	712	San Antonio Palopó	9	San Antonio Palopo	7	Julio	2023-06-07T00:00:00	2024-11-08T17:00:00	6	Velocidad del viento	4.8
181250	7	Sololá	712	San Antonio Palopó	9	San Antonio Palopo	7	Julio	2023-06-07T00:00:00	2024-11-08T17:00:00	7	Dirección del viento	4.83
181251	7	Sololá	712	San Antonio Palopó	9	San Antonio Palopo	7	Julio	2023-06-07T00:00:00	2024-11-08T17:00:00	1	Precipitación	0
181252	7	Sololá	712	San Antonio Palopó	9	San Antonio Palopo	7	Julio	2023-06-07T00:00:00	2024-11-08T17:00:00	8	Radiación solar	164
181253	7	Sololá	712	San Antonio Palopó	9	San Antonio Palopo	7	Julio	2023-06-07T00:00:00	2024-11-08T18:00:00	2	Temperatura media	23.1
181254	7	Sololá	712	San Antonio Palopó	9	San Antonio Palopo	7	Julio	2023-06-07T00:00:00	2024-11-08T18:00:00	4	Temperatura máxima	24.7
181255	7	Sololá	712	San Antonio Palopó	9	San Antonio Palopo	7	Julio	2023-06-07T00:00:00	2024-11-08T18:00:00	3	Temperatura mínima	23.1
181256	7	Sololá	712	San Antonio Palopó	9	San Antonio Palopo	7	Julio	2023-06-07T00:00:00	2024-11-08T18:00:00	5	Humedad	75
181257	7	Sololá	712	San Antonio Palopó	9	San Antonio Palopo	7	Julio	2023-06-07T00:00:00	2024-11-08T18:00:00	6	Velocidad del viento	3.2
181258	7	Sololá	712	San Antonio Palopó	9	San Antonio Palopo	7	Julio	2023-06-07T00:00:00	2024-11-08T18:00:00	7	Dirección del viento	3.22
181259	7	Sololá	712	San Antonio Palopó	9	San Antonio Palopo	7	Julio	2023-06-07T00:00:00	2024-11-08T18:00:00	1	Precipitación	0
181260	7	Sololá	712	San Antonio Palopó	9	San Antonio Palopo	7	Julio	2023-06-07T00:00:00	2024-11-08T18:00:00	8	Radiación solar	45
181261	7	Sololá	712	San Antonio Palopó	9	San Antonio Palopo	7	Julio	2023-06-07T00:00:00	2024-11-08T19:00:00	2	Temperatura media	21.2
181262	7	Sololá	712	San Antonio Palopó	9	San Antonio Palopo	7	Julio	2023-06-07T00:00:00	2024-11-08T19:00:00	4	Temperatura máxima	23.1
181263	7	Sololá	712	San Antonio Palopó	9	San Antonio Palopo	7	Julio	2023-06-07T00:00:00	2024-11-08T19:00:00	3	Temperatura mínima	21.2
181264	7	Sololá	712	San Antonio Palopó	9	San Antonio Palopo	7	Julio	2023-06-07T00:00:00	2024-11-08T19:00:00	5	Humedad	82
181265	7	Sololá	712	San Antonio Palopó	9	San Antonio Palopo	7	Julio	2023-06-07T00:00:00	2024-11-08T19:00:00	6	Velocidad del viento	3.2
181266	7	Sololá	712	San Antonio Palopó	9	San Antonio Palopo	7	Julio	2023-06-07T00:00:00	2024-11-08T19:00:00	7	Dirección del viento	3.22
181267	7	Sololá	712	San Antonio Palopó	9	San Antonio Palopo	7	Julio	2023-06-07T00:00:00	2024-11-08T19:00:00	1	Precipitación	0
181268	7	Sololá	712	San Antonio Palopó	9	San Antonio Palopo	7	Julio	2023-06-07T00:00:00	2024-11-08T19:00:00	8	Radiación solar	0
181269	7	Sololá	712	San Antonio Palopó	9	San Antonio Palopo	7	Julio	2023-06-07T00:00:00	2024-11-08T20:00:00	2	Temperatura media	20.9
181270	7	Sololá	712	San Antonio Palopó	9	San Antonio Palopo	7	Julio	2023-06-07T00:00:00	2024-11-08T20:00:00	4	Temperatura máxima	21.2
181271	7	Sololá	712	San Antonio Palopó	9	San Antonio Palopo	7	Julio	2023-06-07T00:00:00	2024-11-08T20:00:00	3	Temperatura mínima	20.7
181272	7	Sololá	712	San Antonio Palopó	9	San Antonio Palopo	7	Julio	2023-06-07T00:00:00	2024-11-08T20:00:00	5	Humedad	67
181273	7	Sololá	712	San Antonio Palopó	9	San Antonio Palopo	7	Julio	2023-06-07T00:00:00	2024-11-08T20:00:00	6	Velocidad del viento	3.2
181274	7	Sololá	712	San Antonio Palopó	9	San Antonio Palopo	7	Julio	2023-06-07T00:00:00	2024-11-08T20:00:00	7	Dirección del viento	3.22
181275	7	Sololá	712	San Antonio Palopó	9	San Antonio Palopo	7	Julio	2023-06-07T00:00:00	2024-11-08T20:00:00	1	Precipitación	0
181276	7	Sololá	712	San Antonio Palopó	9	San Antonio Palopo	7	Julio	2023-06-07T00:00:00	2024-11-08T20:00:00	8	Radiación solar	0
181277	7	Sololá	712	San Antonio Palopó	9	San Antonio Palopo	7	Julio	2023-06-07T00:00:00	2024-11-08T21:00:00	2	Temperatura media	20.3
181278	7	Sololá	712	San Antonio Palopó	9	San Antonio Palopo	7	Julio	2023-06-07T00:00:00	2024-11-08T21:00:00	4	Temperatura máxima	20.9
181279	7	Sololá	712	San Antonio Palopó	9	San Antonio Palopo	7	Julio	2023-06-07T00:00:00	2024-11-08T21:00:00	3	Temperatura mínima	20.3
181280	7	Sololá	712	San Antonio Palopó	9	San Antonio Palopo	7	Julio	2023-06-07T00:00:00	2024-11-08T21:00:00	5	Humedad	68
181281	7	Sololá	712	San Antonio Palopó	9	San Antonio Palopo	7	Julio	2023-06-07T00:00:00	2024-11-08T21:00:00	6	Velocidad del viento	6.4
181282	7	Sololá	712	San Antonio Palopó	9	San Antonio Palopo	7	Julio	2023-06-07T00:00:00	2024-11-08T21:00:00	7	Dirección del viento	6.44
181283	7	Sololá	712	San Antonio Palopó	9	San Antonio Palopo	7	Julio	2023-06-07T00:00:00	2024-11-08T21:00:00	1	Precipitación	0
181284	7	Sololá	712	San Antonio Palopó	9	San Antonio Palopo	7	Julio	2023-06-07T00:00:00	2024-11-08T21:00:00	8	Radiación solar	0
181285	7	Sololá	712	San Antonio Palopó	9	San Antonio Palopo	7	Julio	2023-06-07T00:00:00	2024-11-08T22:00:00	2	Temperatura media	20.1
181286	7	Sololá	712	San Antonio Palopó	9	San Antonio Palopo	7	Julio	2023-06-07T00:00:00	2024-11-08T22:00:00	4	Temperatura máxima	20.3
181287	7	Sololá	712	San Antonio Palopó	9	San Antonio Palopo	7	Julio	2023-06-07T00:00:00	2024-11-08T22:00:00	3	Temperatura mínima	20.1
181288	7	Sololá	712	San Antonio Palopó	9	San Antonio Palopo	7	Julio	2023-06-07T00:00:00	2024-11-08T22:00:00	5	Humedad	72
181289	7	Sololá	712	San Antonio Palopó	9	San Antonio Palopo	7	Julio	2023-06-07T00:00:00	2024-11-08T22:00:00	6	Velocidad del viento	14.5
181290	7	Sololá	712	San Antonio Palopó	9	San Antonio Palopo	7	Julio	2023-06-07T00:00:00	2024-11-08T22:00:00	7	Dirección del viento	14.48
181291	7	Sololá	712	San Antonio Palopó	9	San Antonio Palopo	7	Julio	2023-06-07T00:00:00	2024-11-08T22:00:00	1	Precipitación	0
181292	7	Sololá	712	San Antonio Palopó	9	San Antonio Palopo	7	Julio	2023-06-07T00:00:00	2024-11-08T22:00:00	8	Radiación solar	0
181293	7	Sololá	712	San Antonio Palopó	9	San Antonio Palopo	7	Julio	2023-06-07T00:00:00	2024-11-08T23:00:00	2	Temperatura media	20.4
181294	7	Sololá	712	San Antonio Palopó	9	San Antonio Palopo	7	Julio	2023-06-07T00:00:00	2024-11-08T23:00:00	4	Temperatura máxima	20.4
181295	7	Sololá	712	San Antonio Palopó	9	San Antonio Palopo	7	Julio	2023-06-07T00:00:00	2024-11-08T23:00:00	3	Temperatura mínima	20
181296	7	Sololá	712	San Antonio Palopó	9	San Antonio Palopo	7	Julio	2023-06-07T00:00:00	2024-11-08T23:00:00	5	Humedad	73
181297	7	Sololá	712	San Antonio Palopó	9	San Antonio Palopo	7	Julio	2023-06-07T00:00:00	2024-11-08T23:00:00	6	Velocidad del viento	9.7
181298	7	Sololá	712	San Antonio Palopó	9	San Antonio Palopo	7	Julio	2023-06-07T00:00:00	2024-11-08T23:00:00	7	Dirección del viento	9.66
181299	7	Sololá	712	San Antonio Palopó	9	San Antonio Palopo	7	Julio	2023-06-07T00:00:00	2024-11-08T23:00:00	1	Precipitación	0
181300	7	Sololá	712	San Antonio Palopó	9	San Antonio Palopo	7	Julio	2023-06-07T00:00:00	2024-11-08T23:00:00	8	Radiación solar	0
181301	7	Sololá	712	San Antonio Palopó	9	San Antonio Palopo	7	Julio	2023-07-07T00:00:00	2024-11-08T00:00:00	2	Temperatura media	19.6
181302	7	Sololá	712	San Antonio Palopó	9	San Antonio Palopo	7	Julio	2023-07-07T00:00:00	2024-11-08T00:00:00	4	Temperatura máxima	20.4
181303	7	Sololá	712	San Antonio Palopó	9	San Antonio Palopo	7	Julio	2023-07-07T00:00:00	2024-11-08T00:00:00	3	Temperatura mínima	19.6
181304	7	Sololá	712	San Antonio Palopó	9	San Antonio Palopo	7	Julio	2023-07-07T00:00:00	2024-11-08T00:00:00	5	Humedad	76
181305	7	Sololá	712	San Antonio Palopó	9	San Antonio Palopo	7	Julio	2023-07-07T00:00:00	2024-11-08T00:00:00	6	Velocidad del viento	11.3
181306	7	Sololá	712	San Antonio Palopó	9	San Antonio Palopo	7	Julio	2023-07-07T00:00:00	2024-11-08T00:00:00	7	Dirección del viento	11.27
181307	7	Sololá	712	San Antonio Palopó	9	San Antonio Palopo	7	Julio	2023-07-07T00:00:00	2024-11-08T00:00:00	1	Precipitación	0
181308	7	Sololá	712	San Antonio Palopó	9	San Antonio Palopo	7	Julio	2023-07-07T00:00:00	2024-11-08T00:00:00	8	Radiación solar	0
181309	7	Sololá	712	San Antonio Palopó	9	San Antonio Palopo	7	Julio	2023-07-07T00:00:00	2024-11-08T01:00:00	2	Temperatura media	19.7
181310	7	Sololá	712	San Antonio Palopó	9	San Antonio Palopo	7	Julio	2023-07-07T00:00:00	2024-11-08T01:00:00	4	Temperatura máxima	19.7
181311	7	Sololá	712	San Antonio Palopó	9	San Antonio Palopo	7	Julio	2023-07-07T00:00:00	2024-11-08T01:00:00	3	Temperatura mínima	19.6
181312	7	Sololá	712	San Antonio Palopó	9	San Antonio Palopo	7	Julio	2023-07-07T00:00:00	2024-11-08T01:00:00	5	Humedad	74
181313	7	Sololá	712	San Antonio Palopó	9	San Antonio Palopo	7	Julio	2023-07-07T00:00:00	2024-11-08T01:00:00	6	Velocidad del viento	12.9
181314	7	Sololá	712	San Antonio Palopó	9	San Antonio Palopo	7	Julio	2023-07-07T00:00:00	2024-11-08T01:00:00	7	Dirección del viento	12.87
181315	7	Sololá	712	San Antonio Palopó	9	San Antonio Palopo	7	Julio	2023-07-07T00:00:00	2024-11-08T01:00:00	1	Precipitación	0
181316	7	Sololá	712	San Antonio Palopó	9	San Antonio Palopo	7	Julio	2023-07-07T00:00:00	2024-11-08T01:00:00	8	Radiación solar	0
181317	7	Sololá	712	San Antonio Palopó	9	San Antonio Palopo	7	Julio	2023-07-07T00:00:00	2024-11-08T02:00:00	2	Temperatura media	19.4
181318	7	Sololá	712	San Antonio Palopó	9	San Antonio Palopo	7	Julio	2023-07-07T00:00:00	2024-11-08T02:00:00	4	Temperatura máxima	19.7
181319	7	Sololá	712	San Antonio Palopó	9	San Antonio Palopo	7	Julio	2023-07-07T00:00:00	2024-11-08T02:00:00	3	Temperatura mínima	19.2
181320	7	Sololá	712	San Antonio Palopó	9	San Antonio Palopo	7	Julio	2023-07-07T00:00:00	2024-11-08T02:00:00	5	Humedad	74
181321	7	Sololá	712	San Antonio Palopó	9	San Antonio Palopo	7	Julio	2023-07-07T00:00:00	2024-11-08T02:00:00	6	Velocidad del viento	9.7
181322	7	Sololá	712	San Antonio Palopó	9	San Antonio Palopo	7	Julio	2023-07-07T00:00:00	2024-11-08T02:00:00	7	Dirección del viento	9.66
181323	7	Sololá	712	San Antonio Palopó	9	San Antonio Palopo	7	Julio	2023-07-07T00:00:00	2024-11-08T02:00:00	1	Precipitación	0
181324	7	Sololá	712	San Antonio Palopó	9	San Antonio Palopo	7	Julio	2023-07-07T00:00:00	2024-11-08T02:00:00	8	Radiación solar	0
181325	7	Sololá	712	San Antonio Palopó	9	San Antonio Palopo	7	Julio	2023-07-07T00:00:00	2024-11-08T03:00:00	2	Temperatura media	19.3
181326	7	Sololá	712	San Antonio Palopó	9	San Antonio Palopo	7	Julio	2023-07-07T00:00:00	2024-11-08T03:00:00	4	Temperatura máxima	19.8
181327	7	Sololá	712	San Antonio Palopó	9	San Antonio Palopo	7	Julio	2023-07-07T00:00:00	2024-11-08T03:00:00	3	Temperatura mínima	19.3
181328	7	Sololá	712	San Antonio Palopó	9	San Antonio Palopo	7	Julio	2023-07-07T00:00:00	2024-11-08T03:00:00	5	Humedad	74
181329	7	Sololá	712	San Antonio Palopó	9	San Antonio Palopo	7	Julio	2023-07-07T00:00:00	2024-11-08T03:00:00	6	Velocidad del viento	12.9
181330	7	Sololá	712	San Antonio Palopó	9	San Antonio Palopo	7	Julio	2023-07-07T00:00:00	2024-11-08T03:00:00	7	Dirección del viento	12.87
181331	7	Sololá	712	San Antonio Palopó	9	San Antonio Palopo	7	Julio	2023-07-07T00:00:00	2024-11-08T03:00:00	1	Precipitación	0
181332	7	Sololá	712	San Antonio Palopó	9	San Antonio Palopo	7	Julio	2023-07-07T00:00:00	2024-11-08T03:00:00	8	Radiación solar	0
181333	7	Sololá	712	San Antonio Palopó	9	San Antonio Palopo	7	Julio	2023-07-07T00:00:00	2024-11-08T04:00:00	2	Temperatura media	19.3
181334	7	Sololá	712	San Antonio Palopó	9	San Antonio Palopo	7	Julio	2023-07-07T00:00:00	2024-11-08T04:00:00	4	Temperatura máxima	19.4
181335	7	Sololá	712	San Antonio Palopó	9	San Antonio Palopo	7	Julio	2023-07-07T00:00:00	2024-11-08T04:00:00	3	Temperatura mínima	19.2
181336	7	Sololá	712	San Antonio Palopó	9	San Antonio Palopo	7	Julio	2023-07-07T00:00:00	2024-11-08T04:00:00	5	Humedad	74
181337	7	Sololá	712	San Antonio Palopó	9	San Antonio Palopo	7	Julio	2023-07-07T00:00:00	2024-11-08T04:00:00	6	Velocidad del viento	9.7
181338	7	Sololá	712	San Antonio Palopó	9	San Antonio Palopo	7	Julio	2023-07-07T00:00:00	2024-11-08T04:00:00	7	Dirección del viento	9.66
181339	7	Sololá	712	San Antonio Palopó	9	San Antonio Palopo	7	Julio	2023-07-07T00:00:00	2024-11-08T04:00:00	1	Precipitación	0
181340	7	Sololá	712	San Antonio Palopó	9	San Antonio Palopo	7	Julio	2023-07-07T00:00:00	2024-11-08T04:00:00	8	Radiación solar	0
181341	7	Sololá	712	San Antonio Palopó	9	San Antonio Palopo	7	Julio	2023-07-07T00:00:00	2024-11-08T05:00:00	2	Temperatura media	19.1
181342	7	Sololá	712	San Antonio Palopó	9	San Antonio Palopo	7	Julio	2023-07-07T00:00:00	2024-11-08T05:00:00	4	Temperatura máxima	19.3
181343	7	Sololá	712	San Antonio Palopó	9	San Antonio Palopo	7	Julio	2023-07-07T00:00:00	2024-11-08T05:00:00	3	Temperatura mínima	19.1
181344	7	Sololá	712	San Antonio Palopó	9	San Antonio Palopo	7	Julio	2023-07-07T00:00:00	2024-11-08T05:00:00	5	Humedad	75
181345	7	Sololá	712	San Antonio Palopó	9	San Antonio Palopo	7	Julio	2023-07-07T00:00:00	2024-11-08T05:00:00	6	Velocidad del viento	14.5
181346	7	Sololá	712	San Antonio Palopó	9	San Antonio Palopo	7	Julio	2023-07-07T00:00:00	2024-11-08T05:00:00	7	Dirección del viento	14.48
181347	7	Sololá	712	San Antonio Palopó	9	San Antonio Palopo	7	Julio	2023-07-07T00:00:00	2024-11-08T05:00:00	1	Precipitación	0
181348	7	Sololá	712	San Antonio Palopó	9	San Antonio Palopo	7	Julio	2023-07-07T00:00:00	2024-11-08T05:00:00	8	Radiación solar	0
181349	7	Sololá	712	San Antonio Palopó	9	San Antonio Palopo	7	Julio	2023-07-07T00:00:00	2024-11-08T06:00:00	2	Temperatura media	18.7
181350	7	Sololá	712	San Antonio Palopó	9	San Antonio Palopo	7	Julio	2023-07-07T00:00:00	2024-11-08T06:00:00	4	Temperatura máxima	19.3
181351	7	Sololá	712	San Antonio Palopó	9	San Antonio Palopo	7	Julio	2023-07-07T00:00:00	2024-11-08T06:00:00	3	Temperatura mínima	18.7
181352	7	Sololá	712	San Antonio Palopó	9	San Antonio Palopo	7	Julio	2023-07-07T00:00:00	2024-11-08T06:00:00	5	Humedad	76
181353	7	Sololá	712	San Antonio Palopó	9	San Antonio Palopo	7	Julio	2023-07-07T00:00:00	2024-11-08T06:00:00	6	Velocidad del viento	14.5
181354	7	Sololá	712	San Antonio Palopó	9	San Antonio Palopo	7	Julio	2023-07-07T00:00:00	2024-11-08T06:00:00	7	Dirección del viento	14.48
181355	7	Sololá	712	San Antonio Palopó	9	San Antonio Palopo	7	Julio	2023-07-07T00:00:00	2024-11-08T06:00:00	1	Precipitación	0
181356	7	Sololá	712	San Antonio Palopó	9	San Antonio Palopo	7	Julio	2023-07-07T00:00:00	2024-11-08T06:00:00	8	Radiación solar	2
181357	7	Sololá	712	San Antonio Palopó	9	San Antonio Palopo	7	Julio	2023-07-07T00:00:00	2024-11-08T07:00:00	2	Temperatura media	19.2
181358	7	Sololá	712	San Antonio Palopó	9	San Antonio Palopo	7	Julio	2023-07-07T00:00:00	2024-11-08T07:00:00	4	Temperatura máxima	19.2
181359	7	Sololá	712	San Antonio Palopó	9	San Antonio Palopo	7	Julio	2023-07-07T00:00:00	2024-11-08T07:00:00	3	Temperatura mínima	18.5
181360	7	Sololá	712	San Antonio Palopó	9	San Antonio Palopo	7	Julio	2023-07-07T00:00:00	2024-11-08T07:00:00	5	Humedad	73
181361	7	Sololá	712	San Antonio Palopó	9	San Antonio Palopo	7	Julio	2023-07-07T00:00:00	2024-11-08T07:00:00	6	Velocidad del viento	17.7
181362	7	Sololá	712	San Antonio Palopó	9	San Antonio Palopo	7	Julio	2023-07-07T00:00:00	2024-11-08T07:00:00	7	Dirección del viento	17.7
181363	7	Sololá	712	San Antonio Palopó	9	San Antonio Palopo	7	Julio	2023-07-07T00:00:00	2024-11-08T07:00:00	1	Precipitación	0
181364	7	Sololá	712	San Antonio Palopó	9	San Antonio Palopo	7	Julio	2023-07-07T00:00:00	2024-11-08T07:00:00	8	Radiación solar	61
181365	7	Sololá	712	San Antonio Palopó	9	San Antonio Palopo	7	Julio	2023-07-07T00:00:00	2024-11-08T08:00:00	2	Temperatura media	21.2
181366	7	Sololá	712	San Antonio Palopó	9	San Antonio Palopo	7	Julio	2023-07-07T00:00:00	2024-11-08T08:00:00	4	Temperatura máxima	21.2
181367	7	Sololá	712	San Antonio Palopó	9	San Antonio Palopo	7	Julio	2023-07-07T00:00:00	2024-11-08T08:00:00	3	Temperatura mínima	19.2
181368	7	Sololá	712	San Antonio Palopó	9	San Antonio Palopo	7	Julio	2023-07-07T00:00:00	2024-11-08T08:00:00	5	Humedad	67
181369	7	Sololá	712	San Antonio Palopó	9	San Antonio Palopo	7	Julio	2023-07-07T00:00:00	2024-11-08T08:00:00	6	Velocidad del viento	9.7
181370	7	Sololá	712	San Antonio Palopó	9	San Antonio Palopo	7	Julio	2023-07-07T00:00:00	2024-11-08T08:00:00	7	Dirección del viento	9.66
181371	7	Sololá	712	San Antonio Palopó	9	San Antonio Palopo	7	Julio	2023-07-07T00:00:00	2024-11-08T08:00:00	1	Precipitación	0
181372	7	Sololá	712	San Antonio Palopó	9	San Antonio Palopo	7	Julio	2023-07-07T00:00:00	2024-11-08T08:00:00	8	Radiación solar	201
181373	7	Sololá	712	San Antonio Palopó	9	San Antonio Palopo	7	Julio	2023-07-07T00:00:00	2024-11-08T09:00:00	2	Temperatura media	22.9
181374	7	Sololá	712	San Antonio Palopó	9	San Antonio Palopo	7	Julio	2023-07-07T00:00:00	2024-11-08T09:00:00	4	Temperatura máxima	23
181375	7	Sololá	712	San Antonio Palopó	9	San Antonio Palopo	7	Julio	2023-07-07T00:00:00	2024-11-08T09:00:00	3	Temperatura mínima	21.2
181376	7	Sololá	712	San Antonio Palopó	9	San Antonio Palopo	7	Julio	2023-07-07T00:00:00	2024-11-08T09:00:00	5	Humedad	69
181377	7	Sololá	712	San Antonio Palopó	9	San Antonio Palopo	7	Julio	2023-07-07T00:00:00	2024-11-08T09:00:00	6	Velocidad del viento	4.8
181378	7	Sololá	712	San Antonio Palopó	9	San Antonio Palopo	7	Julio	2023-07-07T00:00:00	2024-11-08T09:00:00	7	Dirección del viento	4.83
181379	7	Sololá	712	San Antonio Palopó	9	San Antonio Palopo	7	Julio	2023-07-07T00:00:00	2024-11-08T09:00:00	1	Precipitación	0
181380	7	Sololá	712	San Antonio Palopó	9	San Antonio Palopo	7	Julio	2023-07-07T00:00:00	2024-11-08T09:00:00	8	Radiación solar	514
181381	7	Sololá	712	San Antonio Palopó	9	San Antonio Palopo	7	Julio	2023-07-07T00:00:00	2024-11-08T10:00:00	2	Temperatura media	24.7
181382	7	Sololá	712	San Antonio Palopó	9	San Antonio Palopo	7	Julio	2023-07-07T00:00:00	2024-11-08T10:00:00	4	Temperatura máxima	24.7
181383	7	Sololá	712	San Antonio Palopó	9	San Antonio Palopo	7	Julio	2023-07-07T00:00:00	2024-11-08T10:00:00	3	Temperatura mínima	22.9
181384	7	Sololá	712	San Antonio Palopó	9	San Antonio Palopo	7	Julio	2023-07-07T00:00:00	2024-11-08T10:00:00	5	Humedad	66
181385	7	Sololá	712	San Antonio Palopó	9	San Antonio Palopo	7	Julio	2023-07-07T00:00:00	2024-11-08T10:00:00	6	Velocidad del viento	3.2
181386	7	Sololá	712	San Antonio Palopó	9	San Antonio Palopo	7	Julio	2023-07-07T00:00:00	2024-11-08T10:00:00	7	Dirección del viento	3.22
181387	7	Sololá	712	San Antonio Palopó	9	San Antonio Palopo	7	Julio	2023-07-07T00:00:00	2024-11-08T10:00:00	1	Precipitación	0
181388	7	Sololá	712	San Antonio Palopó	9	San Antonio Palopo	7	Julio	2023-07-07T00:00:00	2024-11-08T10:00:00	8	Radiación solar	696
181389	7	Sololá	712	San Antonio Palopó	9	San Antonio Palopo	7	Julio	2023-07-07T00:00:00	2024-11-08T11:00:00	2	Temperatura media	24.7
181390	7	Sololá	712	San Antonio Palopó	9	San Antonio Palopo	7	Julio	2023-07-07T00:00:00	2024-11-08T11:00:00	4	Temperatura máxima	25.7
181391	7	Sololá	712	San Antonio Palopó	9	San Antonio Palopo	7	Julio	2023-07-07T00:00:00	2024-11-08T11:00:00	3	Temperatura mínima	24.4
181392	7	Sololá	712	San Antonio Palopó	9	San Antonio Palopo	7	Julio	2023-07-07T00:00:00	2024-11-08T11:00:00	5	Humedad	70
181393	7	Sololá	712	San Antonio Palopó	9	San Antonio Palopo	7	Julio	2023-07-07T00:00:00	2024-11-08T11:00:00	6	Velocidad del viento	6.4
181394	7	Sololá	712	San Antonio Palopó	9	San Antonio Palopo	7	Julio	2023-07-07T00:00:00	2024-11-08T11:00:00	7	Dirección del viento	6.44
181395	7	Sololá	712	San Antonio Palopó	9	San Antonio Palopo	7	Julio	2023-07-07T00:00:00	2024-11-08T11:00:00	1	Precipitación	0
181396	7	Sololá	712	San Antonio Palopó	9	San Antonio Palopo	7	Julio	2023-07-07T00:00:00	2024-11-08T11:00:00	8	Radiación solar	898
181397	7	Sololá	712	San Antonio Palopó	9	San Antonio Palopo	7	Julio	2023-07-07T00:00:00	2024-11-08T12:00:00	2	Temperatura media	22.7
181398	7	Sololá	712	San Antonio Palopó	9	San Antonio Palopo	7	Julio	2023-07-07T00:00:00	2024-11-08T12:00:00	4	Temperatura máxima	24.7
181399	7	Sololá	712	San Antonio Palopó	9	San Antonio Palopo	7	Julio	2023-07-07T00:00:00	2024-11-08T12:00:00	3	Temperatura mínima	22.7
181400	7	Sololá	712	San Antonio Palopó	9	San Antonio Palopo	7	Julio	2023-07-07T00:00:00	2024-11-08T12:00:00	5	Humedad	77
181401	7	Sololá	712	San Antonio Palopó	9	San Antonio Palopo	7	Julio	2023-07-07T00:00:00	2024-11-08T12:00:00	6	Velocidad del viento	11.3
181402	7	Sololá	712	San Antonio Palopó	9	San Antonio Palopo	7	Julio	2023-07-07T00:00:00	2024-11-08T12:00:00	7	Dirección del viento	11.27
181403	7	Sololá	712	San Antonio Palopó	9	San Antonio Palopo	7	Julio	2023-07-07T00:00:00	2024-11-08T12:00:00	1	Precipitación	0
181404	7	Sololá	712	San Antonio Palopó	9	San Antonio Palopo	7	Julio	2023-07-07T00:00:00	2024-11-08T12:00:00	8	Radiación solar	890
181405	7	Sololá	712	San Antonio Palopó	9	San Antonio Palopo	7	Julio	2023-07-07T00:00:00	2024-11-08T13:00:00	2	Temperatura media	24.4
181406	7	Sololá	712	San Antonio Palopó	9	San Antonio Palopo	7	Julio	2023-07-07T00:00:00	2024-11-08T13:00:00	4	Temperatura máxima	24.4
181407	7	Sololá	712	San Antonio Palopó	9	San Antonio Palopo	7	Julio	2023-07-07T00:00:00	2024-11-08T13:00:00	3	Temperatura mínima	22.6
181408	7	Sololá	712	San Antonio Palopó	9	San Antonio Palopo	7	Julio	2023-07-07T00:00:00	2024-11-08T13:00:00	5	Humedad	72
181409	7	Sololá	712	San Antonio Palopó	9	San Antonio Palopo	7	Julio	2023-07-07T00:00:00	2024-11-08T13:00:00	6	Velocidad del viento	6.4
181410	7	Sololá	712	San Antonio Palopó	9	San Antonio Palopo	7	Julio	2023-07-07T00:00:00	2024-11-08T13:00:00	7	Dirección del viento	6.44
181411	7	Sololá	712	San Antonio Palopó	9	San Antonio Palopo	7	Julio	2023-07-07T00:00:00	2024-11-08T13:00:00	1	Precipitación	0
181412	7	Sololá	712	San Antonio Palopó	9	San Antonio Palopo	7	Julio	2023-07-07T00:00:00	2024-11-08T13:00:00	8	Radiación solar	1029
181413	7	Sololá	712	San Antonio Palopó	9	San Antonio Palopo	7	Julio	2023-07-07T00:00:00	2024-11-08T14:00:00	2	Temperatura media	21.9
181414	7	Sololá	712	San Antonio Palopó	9	San Antonio Palopo	7	Julio	2023-07-07T00:00:00	2024-11-08T14:00:00	4	Temperatura máxima	24.6
181415	7	Sololá	712	San Antonio Palopó	9	San Antonio Palopo	7	Julio	2023-07-07T00:00:00	2024-11-08T14:00:00	3	Temperatura mínima	21.9
181416	7	Sololá	712	San Antonio Palopó	9	San Antonio Palopo	7	Julio	2023-07-07T00:00:00	2024-11-08T14:00:00	5	Humedad	84
181417	7	Sololá	712	San Antonio Palopó	9	San Antonio Palopo	7	Julio	2023-07-07T00:00:00	2024-11-08T14:00:00	6	Velocidad del viento	4.8
181418	7	Sololá	712	San Antonio Palopó	9	San Antonio Palopo	7	Julio	2023-07-07T00:00:00	2024-11-08T14:00:00	7	Dirección del viento	4.83
181419	7	Sololá	712	San Antonio Palopó	9	San Antonio Palopo	7	Julio	2023-07-07T00:00:00	2024-11-08T14:00:00	1	Precipitación	0.4
181420	7	Sololá	712	San Antonio Palopó	9	San Antonio Palopo	7	Julio	2023-07-07T00:00:00	2024-11-08T14:00:00	8	Radiación solar	518
181421	7	Sololá	712	San Antonio Palopó	9	San Antonio Palopo	7	Julio	2023-07-07T00:00:00	2024-11-08T15:00:00	2	Temperatura media	19.8
181422	7	Sololá	712	San Antonio Palopó	9	San Antonio Palopo	7	Julio	2023-07-07T00:00:00	2024-11-08T15:00:00	4	Temperatura máxima	22.2
181423	7	Sololá	712	San Antonio Palopó	9	San Antonio Palopo	7	Julio	2023-07-07T00:00:00	2024-11-08T15:00:00	3	Temperatura mínima	19.7
181424	7	Sololá	712	San Antonio Palopó	9	San Antonio Palopo	7	Julio	2023-07-07T00:00:00	2024-11-08T15:00:00	5	Humedad	90
181425	7	Sololá	712	San Antonio Palopó	9	San Antonio Palopo	7	Julio	2023-07-07T00:00:00	2024-11-08T15:00:00	6	Velocidad del viento	8
181426	7	Sololá	712	San Antonio Palopó	9	San Antonio Palopo	7	Julio	2023-07-07T00:00:00	2024-11-08T15:00:00	7	Dirección del viento	8.05
181427	7	Sololá	712	San Antonio Palopó	9	San Antonio Palopo	7	Julio	2023-07-07T00:00:00	2024-11-08T15:00:00	1	Precipitación	0
181428	7	Sololá	712	San Antonio Palopó	9	San Antonio Palopo	7	Julio	2023-07-07T00:00:00	2024-11-08T15:00:00	8	Radiación solar	382
181429	7	Sololá	712	San Antonio Palopó	9	San Antonio Palopo	7	Julio	2023-07-07T00:00:00	2024-11-08T16:00:00	2	Temperatura media	18.9
181430	7	Sololá	712	San Antonio Palopó	9	San Antonio Palopo	7	Julio	2023-07-07T00:00:00	2024-11-08T16:00:00	4	Temperatura máxima	19.8
181431	7	Sololá	712	San Antonio Palopó	9	San Antonio Palopo	7	Julio	2023-07-07T00:00:00	2024-11-08T16:00:00	3	Temperatura mínima	18.8
181432	7	Sololá	712	San Antonio Palopó	9	San Antonio Palopo	7	Julio	2023-07-07T00:00:00	2024-11-08T16:00:00	5	Humedad	90
181433	7	Sololá	712	San Antonio Palopó	9	San Antonio Palopo	7	Julio	2023-07-07T00:00:00	2024-11-08T16:00:00	6	Velocidad del viento	3.2
181434	7	Sololá	712	San Antonio Palopó	9	San Antonio Palopo	7	Julio	2023-07-07T00:00:00	2024-11-08T16:00:00	7	Dirección del viento	3.22
181435	7	Sololá	712	San Antonio Palopó	9	San Antonio Palopo	7	Julio	2023-07-07T00:00:00	2024-11-08T16:00:00	1	Precipitación	10.6
181436	7	Sololá	712	San Antonio Palopó	9	San Antonio Palopo	7	Julio	2023-07-07T00:00:00	2024-11-08T16:00:00	8	Radiación solar	305
181437	7	Sololá	712	San Antonio Palopó	9	San Antonio Palopo	7	Julio	2023-07-07T00:00:00	2024-11-08T17:00:00	2	Temperatura media	17.9
181438	7	Sololá	712	San Antonio Palopó	9	San Antonio Palopo	7	Julio	2023-07-07T00:00:00	2024-11-08T17:00:00	4	Temperatura máxima	19.1
181439	7	Sololá	712	San Antonio Palopó	9	San Antonio Palopo	7	Julio	2023-07-07T00:00:00	2024-11-08T17:00:00	3	Temperatura mínima	17.9
181440	7	Sololá	712	San Antonio Palopó	9	San Antonio Palopo	7	Julio	2023-07-07T00:00:00	2024-11-08T17:00:00	5	Humedad	91
181441	7	Sololá	712	San Antonio Palopó	9	San Antonio Palopo	7	Julio	2023-07-07T00:00:00	2024-11-08T17:00:00	6	Velocidad del viento	3.2
181442	7	Sololá	712	San Antonio Palopó	9	San Antonio Palopo	7	Julio	2023-07-07T00:00:00	2024-11-08T17:00:00	7	Dirección del viento	3.22
181443	7	Sololá	712	San Antonio Palopó	9	San Antonio Palopo	7	Julio	2023-07-07T00:00:00	2024-11-08T17:00:00	1	Precipitación	0.2
181444	7	Sololá	712	San Antonio Palopó	9	San Antonio Palopo	7	Julio	2023-07-07T00:00:00	2024-11-08T17:00:00	8	Radiación solar	155
181445	7	Sololá	712	San Antonio Palopó	9	San Antonio Palopo	7	Julio	2023-07-07T00:00:00	2024-11-08T18:00:00	2	Temperatura media	18.4
181446	7	Sololá	712	San Antonio Palopó	9	San Antonio Palopo	7	Julio	2023-07-07T00:00:00	2024-11-08T18:00:00	4	Temperatura máxima	18.4
181447	7	Sololá	712	San Antonio Palopó	9	San Antonio Palopo	7	Julio	2023-07-07T00:00:00	2024-11-08T18:00:00	3	Temperatura mínima	17.9
181448	7	Sololá	712	San Antonio Palopó	9	San Antonio Palopo	7	Julio	2023-07-07T00:00:00	2024-11-08T18:00:00	5	Humedad	91
181449	7	Sololá	712	San Antonio Palopó	9	San Antonio Palopo	7	Julio	2023-07-07T00:00:00	2024-11-08T18:00:00	6	Velocidad del viento	1.6
181450	7	Sololá	712	San Antonio Palopó	9	San Antonio Palopo	7	Julio	2023-07-07T00:00:00	2024-11-08T18:00:00	7	Dirección del viento	1.61
181451	7	Sololá	712	San Antonio Palopó	9	San Antonio Palopo	7	Julio	2023-07-07T00:00:00	2024-11-08T18:00:00	1	Precipitación	0.2
181452	7	Sololá	712	San Antonio Palopó	9	San Antonio Palopo	7	Julio	2023-07-07T00:00:00	2024-11-08T18:00:00	8	Radiación solar	53
181453	7	Sololá	712	San Antonio Palopó	9	San Antonio Palopo	7	Julio	2023-07-07T00:00:00	2024-11-08T19:00:00	2	Temperatura media	18
181454	7	Sololá	712	San Antonio Palopó	9	San Antonio Palopo	7	Julio	2023-07-07T00:00:00	2024-11-08T19:00:00	4	Temperatura máxima	18.4
181455	7	Sololá	712	San Antonio Palopó	9	San Antonio Palopo	7	Julio	2023-07-07T00:00:00	2024-11-08T19:00:00	3	Temperatura mínima	18
181456	7	Sololá	712	San Antonio Palopó	9	San Antonio Palopo	7	Julio	2023-07-07T00:00:00	2024-11-08T19:00:00	5	Humedad	92
181457	7	Sololá	712	San Antonio Palopó	9	San Antonio Palopo	7	Julio	2023-07-07T00:00:00	2024-11-08T19:00:00	6	Velocidad del viento	0
181458	7	Sololá	712	San Antonio Palopó	9	San Antonio Palopo	7	Julio	2023-07-07T00:00:00	2024-11-08T19:00:00	7	Dirección del viento	0
181459	7	Sololá	712	San Antonio Palopó	9	San Antonio Palopo	7	Julio	2023-07-07T00:00:00	2024-11-08T19:00:00	1	Precipitación	0.6
181460	7	Sololá	712	San Antonio Palopó	9	San Antonio Palopo	7	Julio	2023-07-07T00:00:00	2024-11-08T19:00:00	8	Radiación solar	0
181461	7	Sololá	712	San Antonio Palopó	9	San Antonio Palopo	7	Julio	2023-07-07T00:00:00	2024-11-08T20:00:00	2	Temperatura media	17.9
181462	7	Sololá	712	San Antonio Palopó	9	San Antonio Palopo	7	Julio	2023-07-07T00:00:00	2024-11-08T20:00:00	4	Temperatura máxima	18.1
181463	7	Sololá	712	San Antonio Palopó	9	San Antonio Palopo	7	Julio	2023-07-07T00:00:00	2024-11-08T20:00:00	3	Temperatura mínima	17.9
181464	7	Sololá	712	San Antonio Palopó	9	San Antonio Palopo	7	Julio	2023-07-07T00:00:00	2024-11-08T20:00:00	5	Humedad	90
181465	7	Sololá	712	San Antonio Palopó	9	San Antonio Palopo	7	Julio	2023-07-07T00:00:00	2024-11-08T20:00:00	6	Velocidad del viento	0
181466	7	Sololá	712	San Antonio Palopó	9	San Antonio Palopo	7	Julio	2023-07-07T00:00:00	2024-11-08T20:00:00	7	Dirección del viento	0
181467	7	Sololá	712	San Antonio Palopó	9	San Antonio Palopo	7	Julio	2023-07-07T00:00:00	2024-11-08T20:00:00	1	Precipitación	0
181468	7	Sololá	712	San Antonio Palopó	9	San Antonio Palopo	7	Julio	2023-07-07T00:00:00	2024-11-08T20:00:00	8	Radiación solar	0
181469	7	Sololá	712	San Antonio Palopó	9	San Antonio Palopo	7	Julio	2023-07-07T00:00:00	2024-11-08T21:00:00	2	Temperatura media	18.1
181470	7	Sololá	712	San Antonio Palopó	9	San Antonio Palopo	7	Julio	2023-07-07T00:00:00	2024-11-08T21:00:00	4	Temperatura máxima	18.1
181471	7	Sololá	712	San Antonio Palopó	9	San Antonio Palopo	7	Julio	2023-07-07T00:00:00	2024-11-08T21:00:00	3	Temperatura mínima	17.9
181472	7	Sololá	712	San Antonio Palopó	9	San Antonio Palopo	7	Julio	2023-07-07T00:00:00	2024-11-08T21:00:00	5	Humedad	88
181473	7	Sololá	712	San Antonio Palopó	9	San Antonio Palopo	7	Julio	2023-07-07T00:00:00	2024-11-08T21:00:00	6	Velocidad del viento	0
181474	7	Sololá	712	San Antonio Palopó	9	San Antonio Palopo	7	Julio	2023-07-07T00:00:00	2024-11-08T21:00:00	7	Dirección del viento	0
181475	7	Sololá	712	San Antonio Palopó	9	San Antonio Palopo	7	Julio	2023-07-07T00:00:00	2024-11-08T21:00:00	1	Precipitación	0
181476	7	Sololá	712	San Antonio Palopó	9	San Antonio Palopo	7	Julio	2023-07-07T00:00:00	2024-11-08T21:00:00	8	Radiación solar	0
181477	7	Sololá	712	San Antonio Palopó	9	San Antonio Palopo	7	Julio	2023-07-07T00:00:00	2024-11-08T22:00:00	2	Temperatura media	18.3
181478	7	Sololá	712	San Antonio Palopó	9	San Antonio Palopo	7	Julio	2023-07-07T00:00:00	2024-11-08T22:00:00	4	Temperatura máxima	18.3
181479	7	Sololá	712	San Antonio Palopó	9	San Antonio Palopo	7	Julio	2023-07-07T00:00:00	2024-11-08T22:00:00	3	Temperatura mínima	18.1
181480	7	Sololá	712	San Antonio Palopó	9	San Antonio Palopo	7	Julio	2023-07-07T00:00:00	2024-11-08T22:00:00	5	Humedad	85
181481	7	Sololá	712	San Antonio Palopó	9	San Antonio Palopo	7	Julio	2023-07-07T00:00:00	2024-11-08T22:00:00	6	Velocidad del viento	1.6
181482	7	Sololá	712	San Antonio Palopó	9	San Antonio Palopo	7	Julio	2023-07-07T00:00:00	2024-11-08T22:00:00	7	Dirección del viento	1.61
181483	7	Sololá	712	San Antonio Palopó	9	San Antonio Palopo	7	Julio	2023-07-07T00:00:00	2024-11-08T22:00:00	1	Precipitación	0
181484	7	Sololá	712	San Antonio Palopó	9	San Antonio Palopo	7	Julio	2023-07-07T00:00:00	2024-11-08T22:00:00	8	Radiación solar	0
181485	7	Sololá	712	San Antonio Palopó	9	San Antonio Palopo	7	Julio	2023-07-07T00:00:00	2024-11-08T23:00:00	2	Temperatura media	18.6
181486	7	Sololá	712	San Antonio Palopó	9	San Antonio Palopo	7	Julio	2023-07-07T00:00:00	2024-11-08T23:00:00	4	Temperatura máxima	18.6
181487	7	Sololá	712	San Antonio Palopó	9	San Antonio Palopo	7	Julio	2023-07-07T00:00:00	2024-11-08T23:00:00	3	Temperatura mínima	18.3
181488	7	Sololá	712	San Antonio Palopó	9	San Antonio Palopo	7	Julio	2023-07-07T00:00:00	2024-11-08T23:00:00	5	Humedad	84
181489	7	Sololá	712	San Antonio Palopó	9	San Antonio Palopo	7	Julio	2023-07-07T00:00:00	2024-11-08T23:00:00	6	Velocidad del viento	1.6
181490	7	Sololá	712	San Antonio Palopó	9	San Antonio Palopo	7	Julio	2023-07-07T00:00:00	2024-11-08T23:00:00	7	Dirección del viento	1.61
181491	7	Sololá	712	San Antonio Palopó	9	San Antonio Palopo	7	Julio	2023-07-07T00:00:00	2024-11-08T23:00:00	1	Precipitación	0
181492	7	Sololá	712	San Antonio Palopó	9	San Antonio Palopo	7	Julio	2023-07-07T00:00:00	2024-11-08T23:00:00	8	Radiación solar	0
181493	7	Sololá	712	San Antonio Palopó	9	San Antonio Palopo	7	Julio	2023-08-07T00:00:00	2024-11-08T00:00:00	2	Temperatura media	18.6
181494	7	Sololá	712	San Antonio Palopó	9	San Antonio Palopo	7	Julio	2023-08-07T00:00:00	2024-11-08T00:00:00	4	Temperatura máxima	18.8
181495	7	Sololá	712	San Antonio Palopó	9	San Antonio Palopo	7	Julio	2023-08-07T00:00:00	2024-11-08T00:00:00	3	Temperatura mínima	18.5
181496	7	Sololá	712	San Antonio Palopó	9	San Antonio Palopo	7	Julio	2023-08-07T00:00:00	2024-11-08T00:00:00	5	Humedad	85
181497	7	Sololá	712	San Antonio Palopó	9	San Antonio Palopo	7	Julio	2023-08-07T00:00:00	2024-11-08T00:00:00	6	Velocidad del viento	3.2
181498	7	Sololá	712	San Antonio Palopó	9	San Antonio Palopo	7	Julio	2023-08-07T00:00:00	2024-11-08T00:00:00	7	Dirección del viento	3.22
181499	7	Sololá	712	San Antonio Palopó	9	San Antonio Palopo	7	Julio	2023-08-07T00:00:00	2024-11-08T00:00:00	1	Precipitación	0
181500	7	Sololá	712	San Antonio Palopó	9	San Antonio Palopo	7	Julio	2023-08-07T00:00:00	2024-11-08T00:00:00	8	Radiación solar	0
181501	7	Sololá	712	San Antonio Palopó	9	San Antonio Palopo	7	Julio	2023-08-07T00:00:00	2024-11-08T01:00:00	2	Temperatura media	18.3
181502	7	Sololá	712	San Antonio Palopó	9	San Antonio Palopo	7	Julio	2023-08-07T00:00:00	2024-11-08T01:00:00	4	Temperatura máxima	18.7
181503	7	Sololá	712	San Antonio Palopó	9	San Antonio Palopo	7	Julio	2023-08-07T00:00:00	2024-11-08T01:00:00	3	Temperatura mínima	18.3
181504	7	Sololá	712	San Antonio Palopó	9	San Antonio Palopo	7	Julio	2023-08-07T00:00:00	2024-11-08T01:00:00	5	Humedad	86
181505	7	Sololá	712	San Antonio Palopó	9	San Antonio Palopo	7	Julio	2023-08-07T00:00:00	2024-11-08T01:00:00	6	Velocidad del viento	1.6
181506	7	Sololá	712	San Antonio Palopó	9	San Antonio Palopo	7	Julio	2023-08-07T00:00:00	2024-11-08T01:00:00	7	Dirección del viento	1.61
181507	7	Sololá	712	San Antonio Palopó	9	San Antonio Palopo	7	Julio	2023-08-07T00:00:00	2024-11-08T01:00:00	1	Precipitación	0
181508	7	Sololá	712	San Antonio Palopó	9	San Antonio Palopo	7	Julio	2023-08-07T00:00:00	2024-11-08T01:00:00	8	Radiación solar	0
181509	7	Sololá	712	San Antonio Palopó	9	San Antonio Palopo	7	Julio	2023-08-07T00:00:00	2024-11-08T02:00:00	2	Temperatura media	18.3
181510	7	Sololá	712	San Antonio Palopó	9	San Antonio Palopo	7	Julio	2023-08-07T00:00:00	2024-11-08T02:00:00	4	Temperatura máxima	18.4
181511	7	Sololá	712	San Antonio Palopó	9	San Antonio Palopo	7	Julio	2023-08-07T00:00:00	2024-11-08T02:00:00	3	Temperatura mínima	18.3
181512	7	Sololá	712	San Antonio Palopó	9	San Antonio Palopo	7	Julio	2023-08-07T00:00:00	2024-11-08T02:00:00	5	Humedad	87
181513	7	Sololá	712	San Antonio Palopó	9	San Antonio Palopo	7	Julio	2023-08-07T00:00:00	2024-11-08T02:00:00	6	Velocidad del viento	0
181514	7	Sololá	712	San Antonio Palopó	9	San Antonio Palopo	7	Julio	2023-08-07T00:00:00	2024-11-08T02:00:00	7	Dirección del viento	0
181515	7	Sololá	712	San Antonio Palopó	9	San Antonio Palopo	7	Julio	2023-08-07T00:00:00	2024-11-08T02:00:00	1	Precipitación	0
181516	7	Sololá	712	San Antonio Palopó	9	San Antonio Palopo	7	Julio	2023-08-07T00:00:00	2024-11-08T02:00:00	8	Radiación solar	0
181517	7	Sololá	712	San Antonio Palopó	9	San Antonio Palopo	7	Julio	2023-08-07T00:00:00	2024-11-08T03:00:00	2	Temperatura media	18.7
181518	7	Sololá	712	San Antonio Palopó	9	San Antonio Palopo	7	Julio	2023-08-07T00:00:00	2024-11-08T03:00:00	4	Temperatura máxima	18.7
181519	7	Sololá	712	San Antonio Palopó	9	San Antonio Palopo	7	Julio	2023-08-07T00:00:00	2024-11-08T03:00:00	3	Temperatura mínima	18.3
181520	7	Sololá	712	San Antonio Palopó	9	San Antonio Palopo	7	Julio	2023-08-07T00:00:00	2024-11-08T03:00:00	5	Humedad	86
181521	7	Sololá	712	San Antonio Palopó	9	San Antonio Palopo	7	Julio	2023-08-07T00:00:00	2024-11-08T03:00:00	6	Velocidad del viento	0
181522	7	Sololá	712	San Antonio Palopó	9	San Antonio Palopo	7	Julio	2023-08-07T00:00:00	2024-11-08T03:00:00	7	Dirección del viento	0
181523	7	Sololá	712	San Antonio Palopó	9	San Antonio Palopo	7	Julio	2023-08-07T00:00:00	2024-11-08T03:00:00	1	Precipitación	0
181524	7	Sololá	712	San Antonio Palopó	9	San Antonio Palopo	7	Julio	2023-08-07T00:00:00	2024-11-08T03:00:00	8	Radiación solar	0
181525	7	Sololá	712	San Antonio Palopó	9	San Antonio Palopo	7	Julio	2023-08-07T00:00:00	2024-11-08T04:00:00	2	Temperatura media	18.2
181526	7	Sololá	712	San Antonio Palopó	9	San Antonio Palopo	7	Julio	2023-08-07T00:00:00	2024-11-08T04:00:00	4	Temperatura máxima	18.7
181527	7	Sololá	712	San Antonio Palopó	9	San Antonio Palopo	7	Julio	2023-08-07T00:00:00	2024-11-08T04:00:00	3	Temperatura mínima	18.2
181528	7	Sololá	712	San Antonio Palopó	9	San Antonio Palopo	7	Julio	2023-08-07T00:00:00	2024-11-08T04:00:00	5	Humedad	90
181529	7	Sololá	712	San Antonio Palopó	9	San Antonio Palopo	7	Julio	2023-08-07T00:00:00	2024-11-08T04:00:00	6	Velocidad del viento	0
181530	7	Sololá	712	San Antonio Palopó	9	San Antonio Palopo	7	Julio	2023-08-07T00:00:00	2024-11-08T04:00:00	7	Dirección del viento	0
181531	7	Sololá	712	San Antonio Palopó	9	San Antonio Palopo	7	Julio	2023-08-07T00:00:00	2024-11-08T04:00:00	1	Precipitación	1.2
181532	7	Sololá	712	San Antonio Palopó	9	San Antonio Palopo	7	Julio	2023-08-07T00:00:00	2024-11-08T04:00:00	8	Radiación solar	0
181533	7	Sololá	712	San Antonio Palopó	9	San Antonio Palopo	7	Julio	2023-08-07T00:00:00	2024-11-08T05:00:00	2	Temperatura media	17.3
181534	7	Sololá	712	San Antonio Palopó	9	San Antonio Palopo	7	Julio	2023-08-07T00:00:00	2024-11-08T05:00:00	4	Temperatura máxima	18.2
181535	7	Sololá	712	San Antonio Palopó	9	San Antonio Palopo	7	Julio	2023-08-07T00:00:00	2024-11-08T05:00:00	3	Temperatura mínima	17.3
181536	7	Sololá	712	San Antonio Palopó	9	San Antonio Palopo	7	Julio	2023-08-07T00:00:00	2024-11-08T05:00:00	5	Humedad	94
181537	7	Sololá	712	San Antonio Palopó	9	San Antonio Palopo	7	Julio	2023-08-07T00:00:00	2024-11-08T05:00:00	6	Velocidad del viento	0
181538	7	Sololá	712	San Antonio Palopó	9	San Antonio Palopo	7	Julio	2023-08-07T00:00:00	2024-11-08T05:00:00	7	Dirección del viento	0
181539	7	Sololá	712	San Antonio Palopó	9	San Antonio Palopo	7	Julio	2023-08-07T00:00:00	2024-11-08T05:00:00	1	Precipitación	9.8
181540	7	Sololá	712	San Antonio Palopó	9	San Antonio Palopo	7	Julio	2023-08-07T00:00:00	2024-11-08T05:00:00	8	Radiación solar	0
181541	7	Sololá	712	San Antonio Palopó	9	San Antonio Palopo	7	Julio	2023-08-07T00:00:00	2024-11-08T06:00:00	2	Temperatura media	17.7
181542	7	Sololá	712	San Antonio Palopó	9	San Antonio Palopo	7	Julio	2023-08-07T00:00:00	2024-11-08T06:00:00	4	Temperatura máxima	17.7
181543	7	Sololá	712	San Antonio Palopó	9	San Antonio Palopo	7	Julio	2023-08-07T00:00:00	2024-11-08T06:00:00	3	Temperatura mínima	17.2
181544	7	Sololá	712	San Antonio Palopó	9	San Antonio Palopo	7	Julio	2023-08-07T00:00:00	2024-11-08T06:00:00	5	Humedad	90
181545	7	Sololá	712	San Antonio Palopó	9	San Antonio Palopo	7	Julio	2023-08-07T00:00:00	2024-11-08T06:00:00	6	Velocidad del viento	0
181546	7	Sololá	712	San Antonio Palopó	9	San Antonio Palopo	7	Julio	2023-08-07T00:00:00	2024-11-08T06:00:00	7	Dirección del viento	0
181547	7	Sololá	712	San Antonio Palopó	9	San Antonio Palopo	7	Julio	2023-08-07T00:00:00	2024-11-08T06:00:00	1	Precipitación	0
181548	7	Sololá	712	San Antonio Palopó	9	San Antonio Palopo	7	Julio	2023-08-07T00:00:00	2024-11-08T06:00:00	8	Radiación solar	0
181549	7	Sololá	712	San Antonio Palopó	9	San Antonio Palopo	7	Julio	2023-08-07T00:00:00	2024-11-08T07:00:00	2	Temperatura media	18.1
181550	7	Sololá	712	San Antonio Palopó	9	San Antonio Palopo	7	Julio	2023-08-07T00:00:00	2024-11-08T07:00:00	4	Temperatura máxima	18.1
181551	7	Sololá	712	San Antonio Palopó	9	San Antonio Palopo	7	Julio	2023-08-07T00:00:00	2024-11-08T07:00:00	3	Temperatura mínima	17.6
181552	7	Sololá	712	San Antonio Palopó	9	San Antonio Palopo	7	Julio	2023-08-07T00:00:00	2024-11-08T07:00:00	5	Humedad	90
181553	7	Sololá	712	San Antonio Palopó	9	San Antonio Palopo	7	Julio	2023-08-07T00:00:00	2024-11-08T07:00:00	6	Velocidad del viento	0
181554	7	Sololá	712	San Antonio Palopó	9	San Antonio Palopo	7	Julio	2023-08-07T00:00:00	2024-11-08T07:00:00	7	Dirección del viento	0
181555	7	Sololá	712	San Antonio Palopó	9	San Antonio Palopo	7	Julio	2023-08-07T00:00:00	2024-11-08T07:00:00	1	Precipitación	0
181556	7	Sololá	712	San Antonio Palopó	9	San Antonio Palopo	7	Julio	2023-08-07T00:00:00	2024-11-08T07:00:00	8	Radiación solar	46
181557	7	Sololá	712	San Antonio Palopó	9	San Antonio Palopo	7	Julio	2023-08-07T00:00:00	2024-11-08T08:00:00	2	Temperatura media	19.3
181558	7	Sololá	712	San Antonio Palopó	9	San Antonio Palopo	7	Julio	2023-08-07T00:00:00	2024-11-08T08:00:00	4	Temperatura máxima	19.3
181559	7	Sololá	712	San Antonio Palopó	9	San Antonio Palopo	7	Julio	2023-08-07T00:00:00	2024-11-08T08:00:00	3	Temperatura mínima	18.1
181560	7	Sololá	712	San Antonio Palopó	9	San Antonio Palopo	7	Julio	2023-08-07T00:00:00	2024-11-08T08:00:00	5	Humedad	86
181561	7	Sololá	712	San Antonio Palopó	9	San Antonio Palopo	7	Julio	2023-08-07T00:00:00	2024-11-08T08:00:00	6	Velocidad del viento	0
181562	7	Sololá	712	San Antonio Palopó	9	San Antonio Palopo	7	Julio	2023-08-07T00:00:00	2024-11-08T08:00:00	7	Dirección del viento	0
181563	7	Sololá	712	San Antonio Palopó	9	San Antonio Palopo	7	Julio	2023-08-07T00:00:00	2024-11-08T08:00:00	1	Precipitación	0
181564	7	Sololá	712	San Antonio Palopó	9	San Antonio Palopo	7	Julio	2023-08-07T00:00:00	2024-11-08T08:00:00	8	Radiación solar	134
181565	7	Sololá	712	San Antonio Palopó	9	San Antonio Palopo	7	Julio	2023-08-07T00:00:00	2024-11-08T09:00:00	2	Temperatura media	20.2
181566	7	Sololá	712	San Antonio Palopó	9	San Antonio Palopo	7	Julio	2023-08-07T00:00:00	2024-11-08T09:00:00	4	Temperatura máxima	20.2
181567	7	Sololá	712	San Antonio Palopó	9	San Antonio Palopo	7	Julio	2023-08-07T00:00:00	2024-11-08T09:00:00	3	Temperatura mínima	19.3
181568	7	Sololá	712	San Antonio Palopó	9	San Antonio Palopo	7	Julio	2023-08-07T00:00:00	2024-11-08T09:00:00	5	Humedad	85
181569	7	Sololá	712	San Antonio Palopó	9	San Antonio Palopo	7	Julio	2023-08-07T00:00:00	2024-11-08T09:00:00	6	Velocidad del viento	0
181570	7	Sololá	712	San Antonio Palopó	9	San Antonio Palopo	7	Julio	2023-08-07T00:00:00	2024-11-08T09:00:00	7	Dirección del viento	0
181571	7	Sololá	712	San Antonio Palopó	9	San Antonio Palopo	7	Julio	2023-08-07T00:00:00	2024-11-08T09:00:00	1	Precipitación	0
181572	7	Sololá	712	San Antonio Palopó	9	San Antonio Palopo	7	Julio	2023-08-07T00:00:00	2024-11-08T09:00:00	8	Radiación solar	195
181573	7	Sololá	712	San Antonio Palopó	9	San Antonio Palopo	7	Julio	2023-08-07T00:00:00	2024-11-08T10:00:00	2	Temperatura media	21.3
181574	7	Sololá	712	San Antonio Palopó	9	San Antonio Palopo	7	Julio	2023-08-07T00:00:00	2024-11-08T10:00:00	4	Temperatura máxima	21.3
181575	7	Sololá	712	San Antonio Palopó	9	San Antonio Palopo	7	Julio	2023-08-07T00:00:00	2024-11-08T10:00:00	3	Temperatura mínima	20.2
181576	7	Sololá	712	San Antonio Palopó	9	San Antonio Palopo	7	Julio	2023-08-07T00:00:00	2024-11-08T10:00:00	5	Humedad	81
181577	7	Sololá	712	San Antonio Palopó	9	San Antonio Palopo	7	Julio	2023-08-07T00:00:00	2024-11-08T10:00:00	6	Velocidad del viento	0
181578	7	Sololá	712	San Antonio Palopó	9	San Antonio Palopo	7	Julio	2023-08-07T00:00:00	2024-11-08T10:00:00	7	Dirección del viento	0
181579	7	Sololá	712	San Antonio Palopó	9	San Antonio Palopo	7	Julio	2023-08-07T00:00:00	2024-11-08T10:00:00	1	Precipitación	0
181580	7	Sololá	712	San Antonio Palopó	9	San Antonio Palopo	7	Julio	2023-08-07T00:00:00	2024-11-08T10:00:00	8	Radiación solar	404
181581	7	Sololá	712	San Antonio Palopó	9	San Antonio Palopo	7	Julio	2023-08-07T00:00:00	2024-11-08T11:00:00	2	Temperatura media	21.6
181582	7	Sololá	712	San Antonio Palopó	9	San Antonio Palopo	7	Julio	2023-08-07T00:00:00	2024-11-08T11:00:00	4	Temperatura máxima	21.6
181583	7	Sololá	712	San Antonio Palopó	9	San Antonio Palopo	7	Julio	2023-08-07T00:00:00	2024-11-08T11:00:00	3	Temperatura mínima	21.1
181584	7	Sololá	712	San Antonio Palopó	9	San Antonio Palopo	7	Julio	2023-08-07T00:00:00	2024-11-08T11:00:00	5	Humedad	76
181585	7	Sololá	712	San Antonio Palopó	9	San Antonio Palopo	7	Julio	2023-08-07T00:00:00	2024-11-08T11:00:00	6	Velocidad del viento	3.2
181586	7	Sololá	712	San Antonio Palopó	9	San Antonio Palopo	7	Julio	2023-08-07T00:00:00	2024-11-08T11:00:00	7	Dirección del viento	3.22
181587	7	Sololá	712	San Antonio Palopó	9	San Antonio Palopo	7	Julio	2023-08-07T00:00:00	2024-11-08T11:00:00	1	Precipitación	0
181588	7	Sololá	712	San Antonio Palopó	9	San Antonio Palopo	7	Julio	2023-08-07T00:00:00	2024-11-08T11:00:00	8	Radiación solar	622
181589	7	Sololá	712	San Antonio Palopó	9	San Antonio Palopo	7	Julio	2023-08-07T00:00:00	2024-11-08T12:00:00	2	Temperatura media	22
181590	7	Sololá	712	San Antonio Palopó	9	San Antonio Palopo	7	Julio	2023-08-07T00:00:00	2024-11-08T12:00:00	4	Temperatura máxima	22.2
181591	7	Sololá	712	San Antonio Palopó	9	San Antonio Palopo	7	Julio	2023-08-07T00:00:00	2024-11-08T12:00:00	3	Temperatura mínima	21.6
181592	7	Sololá	712	San Antonio Palopó	9	San Antonio Palopo	7	Julio	2023-08-07T00:00:00	2024-11-08T12:00:00	5	Humedad	77
181593	7	Sololá	712	San Antonio Palopó	9	San Antonio Palopo	7	Julio	2023-08-07T00:00:00	2024-11-08T12:00:00	6	Velocidad del viento	1.6
181594	7	Sololá	712	San Antonio Palopó	9	San Antonio Palopo	7	Julio	2023-08-07T00:00:00	2024-11-08T12:00:00	7	Dirección del viento	1.61
181595	7	Sololá	712	San Antonio Palopó	9	San Antonio Palopo	7	Julio	2023-08-07T00:00:00	2024-11-08T12:00:00	1	Precipitación	0
181596	7	Sololá	712	San Antonio Palopó	9	San Antonio Palopo	7	Julio	2023-08-07T00:00:00	2024-11-08T12:00:00	8	Radiación solar	605
181597	7	Sololá	712	San Antonio Palopó	9	San Antonio Palopo	7	Julio	2023-08-07T00:00:00	2024-11-08T13:00:00	2	Temperatura media	20.6
181598	7	Sololá	712	San Antonio Palopó	9	San Antonio Palopo	7	Julio	2023-08-07T00:00:00	2024-11-08T13:00:00	4	Temperatura máxima	22.1
181599	7	Sololá	712	San Antonio Palopó	9	San Antonio Palopo	7	Julio	2023-08-07T00:00:00	2024-11-08T13:00:00	3	Temperatura mínima	20.6
181600	7	Sololá	712	San Antonio Palopó	9	San Antonio Palopo	7	Julio	2023-08-07T00:00:00	2024-11-08T13:00:00	5	Humedad	84
181601	7	Sololá	712	San Antonio Palopó	9	San Antonio Palopo	7	Julio	2023-08-07T00:00:00	2024-11-08T13:00:00	6	Velocidad del viento	0
181602	7	Sololá	712	San Antonio Palopó	9	San Antonio Palopo	7	Julio	2023-08-07T00:00:00	2024-11-08T13:00:00	7	Dirección del viento	0
181603	7	Sololá	712	San Antonio Palopó	9	San Antonio Palopo	7	Julio	2023-08-07T00:00:00	2024-11-08T13:00:00	1	Precipitación	1
181604	7	Sololá	712	San Antonio Palopó	9	San Antonio Palopo	7	Julio	2023-08-07T00:00:00	2024-11-08T13:00:00	8	Radiación solar	533
181605	7	Sololá	712	San Antonio Palopó	9	San Antonio Palopo	7	Julio	2023-08-07T00:00:00	2024-11-08T14:00:00	2	Temperatura media	21.4
181606	7	Sololá	712	San Antonio Palopó	9	San Antonio Palopo	7	Julio	2023-08-07T00:00:00	2024-11-08T14:00:00	4	Temperatura máxima	22.1
181607	7	Sololá	712	San Antonio Palopó	9	San Antonio Palopo	7	Julio	2023-08-07T00:00:00	2024-11-08T14:00:00	3	Temperatura mínima	20.6
181608	7	Sololá	712	San Antonio Palopó	9	San Antonio Palopo	7	Julio	2023-08-07T00:00:00	2024-11-08T14:00:00	5	Humedad	81
181609	7	Sololá	712	San Antonio Palopó	9	San Antonio Palopo	7	Julio	2023-08-07T00:00:00	2024-11-08T14:00:00	6	Velocidad del viento	1.6
181610	7	Sololá	712	San Antonio Palopó	9	San Antonio Palopo	7	Julio	2023-08-07T00:00:00	2024-11-08T14:00:00	7	Dirección del viento	1.61
181611	7	Sololá	712	San Antonio Palopó	9	San Antonio Palopo	7	Julio	2023-08-07T00:00:00	2024-11-08T14:00:00	1	Precipitación	0
181612	7	Sololá	712	San Antonio Palopó	9	San Antonio Palopo	7	Julio	2023-08-07T00:00:00	2024-11-08T14:00:00	8	Radiación solar	514
181613	7	Sololá	712	San Antonio Palopó	9	San Antonio Palopo	7	Julio	2023-08-07T00:00:00	2024-11-08T15:00:00	2	Temperatura media	19.6
181614	7	Sololá	712	San Antonio Palopó	9	San Antonio Palopo	7	Julio	2023-08-07T00:00:00	2024-11-08T15:00:00	4	Temperatura máxima	21.4
181615	7	Sololá	712	San Antonio Palopó	9	San Antonio Palopo	7	Julio	2023-08-07T00:00:00	2024-11-08T15:00:00	3	Temperatura mínima	19.6
181616	7	Sololá	712	San Antonio Palopó	9	San Antonio Palopo	7	Julio	2023-08-07T00:00:00	2024-11-08T15:00:00	5	Humedad	91
181617	7	Sololá	712	San Antonio Palopó	9	San Antonio Palopo	7	Julio	2023-08-07T00:00:00	2024-11-08T15:00:00	6	Velocidad del viento	1.6
181618	7	Sololá	712	San Antonio Palopó	9	San Antonio Palopo	7	Julio	2023-08-07T00:00:00	2024-11-08T15:00:00	7	Dirección del viento	1.61
181619	7	Sololá	712	San Antonio Palopó	9	San Antonio Palopo	7	Julio	2023-08-07T00:00:00	2024-11-08T15:00:00	1	Precipitación	1.8
181620	7	Sololá	712	San Antonio Palopó	9	San Antonio Palopo	7	Julio	2023-08-07T00:00:00	2024-11-08T15:00:00	8	Radiación solar	801
181621	7	Sololá	712	San Antonio Palopó	9	San Antonio Palopo	7	Julio	2023-08-07T00:00:00	2024-11-08T16:00:00	2	Temperatura media	18.9
181622	7	Sololá	712	San Antonio Palopó	9	San Antonio Palopo	7	Julio	2023-08-07T00:00:00	2024-11-08T16:00:00	4	Temperatura máxima	19.6
181623	7	Sololá	712	San Antonio Palopó	9	San Antonio Palopo	7	Julio	2023-08-07T00:00:00	2024-11-08T16:00:00	3	Temperatura mínima	18.9
181624	7	Sololá	712	San Antonio Palopó	9	San Antonio Palopo	7	Julio	2023-08-07T00:00:00	2024-11-08T16:00:00	5	Humedad	89
181625	7	Sololá	712	San Antonio Palopó	9	San Antonio Palopo	7	Julio	2023-08-07T00:00:00	2024-11-08T16:00:00	6	Velocidad del viento	0
181626	7	Sololá	712	San Antonio Palopó	9	San Antonio Palopo	7	Julio	2023-08-07T00:00:00	2024-11-08T16:00:00	7	Dirección del viento	0
181627	7	Sololá	712	San Antonio Palopó	9	San Antonio Palopo	7	Julio	2023-08-07T00:00:00	2024-11-08T16:00:00	1	Precipitación	1
181628	7	Sololá	712	San Antonio Palopó	9	San Antonio Palopo	7	Julio	2023-08-07T00:00:00	2024-11-08T16:00:00	8	Radiación solar	728
181629	7	Sololá	712	San Antonio Palopó	9	San Antonio Palopo	7	Julio	2023-08-07T00:00:00	2024-11-08T17:00:00	2	Temperatura media	18.5
181630	7	Sololá	712	San Antonio Palopó	9	San Antonio Palopo	7	Julio	2023-08-07T00:00:00	2024-11-08T17:00:00	4	Temperatura máxima	18.9
181631	7	Sololá	712	San Antonio Palopó	9	San Antonio Palopo	7	Julio	2023-08-07T00:00:00	2024-11-08T17:00:00	3	Temperatura mínima	18.4
181632	7	Sololá	712	San Antonio Palopó	9	San Antonio Palopo	7	Julio	2023-08-07T00:00:00	2024-11-08T17:00:00	5	Humedad	90
181633	7	Sololá	712	San Antonio Palopó	9	San Antonio Palopo	7	Julio	2023-08-07T00:00:00	2024-11-08T17:00:00	6	Velocidad del viento	0
181634	7	Sololá	712	San Antonio Palopó	9	San Antonio Palopo	7	Julio	2023-08-07T00:00:00	2024-11-08T17:00:00	7	Dirección del viento	0
181635	7	Sololá	712	San Antonio Palopó	9	San Antonio Palopo	7	Julio	2023-08-07T00:00:00	2024-11-08T17:00:00	1	Precipitación	0.8
181636	7	Sololá	712	San Antonio Palopó	9	San Antonio Palopo	7	Julio	2023-08-07T00:00:00	2024-11-08T17:00:00	8	Radiación solar	424
181637	7	Sololá	712	San Antonio Palopó	9	San Antonio Palopo	7	Julio	2023-08-07T00:00:00	2024-11-08T18:00:00	2	Temperatura media	18.7
181638	7	Sololá	712	San Antonio Palopó	9	San Antonio Palopo	7	Julio	2023-08-07T00:00:00	2024-11-08T18:00:00	4	Temperatura máxima	18.7
181639	7	Sololá	712	San Antonio Palopó	9	San Antonio Palopo	7	Julio	2023-08-07T00:00:00	2024-11-08T18:00:00	3	Temperatura mínima	18.4
181640	7	Sololá	712	San Antonio Palopó	9	San Antonio Palopo	7	Julio	2023-08-07T00:00:00	2024-11-08T18:00:00	5	Humedad	90
181641	7	Sololá	712	San Antonio Palopó	9	San Antonio Palopo	7	Julio	2023-08-07T00:00:00	2024-11-08T18:00:00	6	Velocidad del viento	0
181642	7	Sololá	712	San Antonio Palopó	9	San Antonio Palopo	7	Julio	2023-08-07T00:00:00	2024-11-08T18:00:00	7	Dirección del viento	0
181643	7	Sololá	712	San Antonio Palopó	9	San Antonio Palopo	7	Julio	2023-08-07T00:00:00	2024-11-08T18:00:00	1	Precipitación	0.2
181644	7	Sololá	712	San Antonio Palopó	9	San Antonio Palopo	7	Julio	2023-08-07T00:00:00	2024-11-08T18:00:00	8	Radiación solar	107
181645	7	Sololá	712	San Antonio Palopó	9	San Antonio Palopo	7	Julio	2023-08-07T00:00:00	2024-11-08T19:00:00	2	Temperatura media	18.6
181646	7	Sololá	712	San Antonio Palopó	9	San Antonio Palopo	7	Julio	2023-08-07T00:00:00	2024-11-08T19:00:00	4	Temperatura máxima	18.7
181647	7	Sololá	712	San Antonio Palopó	9	San Antonio Palopo	7	Julio	2023-08-07T00:00:00	2024-11-08T19:00:00	3	Temperatura mínima	18.5
181648	7	Sololá	712	San Antonio Palopó	9	San Antonio Palopo	7	Julio	2023-08-07T00:00:00	2024-11-08T19:00:00	5	Humedad	90
181649	7	Sololá	712	San Antonio Palopó	9	San Antonio Palopo	7	Julio	2023-08-07T00:00:00	2024-11-08T19:00:00	6	Velocidad del viento	0
181650	7	Sololá	712	San Antonio Palopó	9	San Antonio Palopo	7	Julio	2023-08-07T00:00:00	2024-11-08T19:00:00	7	Dirección del viento	0
181651	7	Sololá	712	San Antonio Palopó	9	San Antonio Palopo	7	Julio	2023-08-07T00:00:00	2024-11-08T19:00:00	1	Precipitación	0.6
181652	7	Sololá	712	San Antonio Palopó	9	San Antonio Palopo	7	Julio	2023-08-07T00:00:00	2024-11-08T19:00:00	8	Radiación solar	0
181653	7	Sololá	712	San Antonio Palopó	9	San Antonio Palopo	7	Julio	2023-08-07T00:00:00	2024-11-08T20:00:00	2	Temperatura media	18.9
181654	7	Sololá	712	San Antonio Palopó	9	San Antonio Palopo	7	Julio	2023-08-07T00:00:00	2024-11-08T20:00:00	4	Temperatura máxima	18.9
181655	7	Sololá	712	San Antonio Palopó	9	San Antonio Palopo	7	Julio	2023-08-07T00:00:00	2024-11-08T20:00:00	3	Temperatura mínima	18.6
181656	7	Sololá	712	San Antonio Palopó	9	San Antonio Palopo	7	Julio	2023-08-07T00:00:00	2024-11-08T20:00:00	5	Humedad	90
181657	7	Sololá	712	San Antonio Palopó	9	San Antonio Palopo	7	Julio	2023-08-07T00:00:00	2024-11-08T20:00:00	6	Velocidad del viento	0
181658	7	Sololá	712	San Antonio Palopó	9	San Antonio Palopo	7	Julio	2023-08-07T00:00:00	2024-11-08T20:00:00	7	Dirección del viento	0
181659	7	Sololá	712	San Antonio Palopó	9	San Antonio Palopo	7	Julio	2023-08-07T00:00:00	2024-11-08T20:00:00	1	Precipitación	0
181660	7	Sololá	712	San Antonio Palopó	9	San Antonio Palopo	7	Julio	2023-08-07T00:00:00	2024-11-08T20:00:00	8	Radiación solar	0
181661	7	Sololá	712	San Antonio Palopó	9	San Antonio Palopo	7	Julio	2023-08-07T00:00:00	2024-11-08T21:00:00	2	Temperatura media	18.8
181662	7	Sololá	712	San Antonio Palopó	9	San Antonio Palopo	7	Julio	2023-08-07T00:00:00	2024-11-08T21:00:00	4	Temperatura máxima	19
181663	7	Sololá	712	San Antonio Palopó	9	San Antonio Palopo	7	Julio	2023-08-07T00:00:00	2024-11-08T21:00:00	3	Temperatura mínima	18.8
181664	7	Sololá	712	San Antonio Palopó	9	San Antonio Palopo	7	Julio	2023-08-07T00:00:00	2024-11-08T21:00:00	5	Humedad	86
181665	7	Sololá	712	San Antonio Palopó	9	San Antonio Palopo	7	Julio	2023-08-07T00:00:00	2024-11-08T21:00:00	6	Velocidad del viento	1.6
181666	7	Sololá	712	San Antonio Palopó	9	San Antonio Palopo	7	Julio	2023-08-07T00:00:00	2024-11-08T21:00:00	7	Dirección del viento	1.61
181667	7	Sololá	712	San Antonio Palopó	9	San Antonio Palopo	7	Julio	2023-08-07T00:00:00	2024-11-08T21:00:00	1	Precipitación	0
181668	7	Sololá	712	San Antonio Palopó	9	San Antonio Palopo	7	Julio	2023-08-07T00:00:00	2024-11-08T21:00:00	8	Radiación solar	0
181669	7	Sololá	712	San Antonio Palopó	9	San Antonio Palopo	7	Julio	2023-08-07T00:00:00	2024-11-08T22:00:00	2	Temperatura media	18.8
181670	7	Sololá	712	San Antonio Palopó	9	San Antonio Palopo	7	Julio	2023-08-07T00:00:00	2024-11-08T22:00:00	4	Temperatura máxima	18.8
181671	7	Sololá	712	San Antonio Palopó	9	San Antonio Palopo	7	Julio	2023-08-07T00:00:00	2024-11-08T22:00:00	3	Temperatura mínima	18.7
181672	7	Sololá	712	San Antonio Palopó	9	San Antonio Palopo	7	Julio	2023-08-07T00:00:00	2024-11-08T22:00:00	5	Humedad	90
181673	7	Sololá	712	San Antonio Palopó	9	San Antonio Palopo	7	Julio	2023-08-07T00:00:00	2024-11-08T22:00:00	6	Velocidad del viento	1.6
181674	7	Sololá	712	San Antonio Palopó	9	San Antonio Palopo	7	Julio	2023-08-07T00:00:00	2024-11-08T22:00:00	7	Dirección del viento	1.61
181675	7	Sololá	712	San Antonio Palopó	9	San Antonio Palopo	7	Julio	2023-08-07T00:00:00	2024-11-08T22:00:00	1	Precipitación	0
181676	7	Sololá	712	San Antonio Palopó	9	San Antonio Palopo	7	Julio	2023-08-07T00:00:00	2024-11-08T22:00:00	8	Radiación solar	0
181677	7	Sololá	712	San Antonio Palopó	9	San Antonio Palopo	7	Julio	2023-08-07T00:00:00	2024-11-08T23:00:00	2	Temperatura media	18.8
181678	7	Sololá	712	San Antonio Palopó	9	San Antonio Palopo	7	Julio	2023-08-07T00:00:00	2024-11-08T23:00:00	4	Temperatura máxima	19.1
181679	7	Sololá	712	San Antonio Palopó	9	San Antonio Palopo	7	Julio	2023-08-07T00:00:00	2024-11-08T23:00:00	3	Temperatura mínima	18.8
181680	7	Sololá	712	San Antonio Palopó	9	San Antonio Palopo	7	Julio	2023-08-07T00:00:00	2024-11-08T23:00:00	5	Humedad	86
181681	7	Sololá	712	San Antonio Palopó	9	San Antonio Palopo	7	Julio	2023-08-07T00:00:00	2024-11-08T23:00:00	6	Velocidad del viento	1.6
181682	7	Sololá	712	San Antonio Palopó	9	San Antonio Palopo	7	Julio	2023-08-07T00:00:00	2024-11-08T23:00:00	7	Dirección del viento	1.61
181683	7	Sololá	712	San Antonio Palopó	9	San Antonio Palopo	7	Julio	2023-08-07T00:00:00	2024-11-08T23:00:00	1	Precipitación	0
181684	7	Sololá	712	San Antonio Palopó	9	San Antonio Palopo	7	Julio	2023-08-07T00:00:00	2024-11-08T23:00:00	8	Radiación solar	0
181685	7	Sololá	712	San Antonio Palopó	9	San Antonio Palopo	7	Julio	2023-09-07T00:00:00	2024-11-08T00:00:00	2	Temperatura media	18.9
181686	7	Sololá	712	San Antonio Palopó	9	San Antonio Palopo	7	Julio	2023-09-07T00:00:00	2024-11-08T00:00:00	4	Temperatura máxima	19.2
181687	7	Sololá	712	San Antonio Palopó	9	San Antonio Palopo	7	Julio	2023-09-07T00:00:00	2024-11-08T00:00:00	3	Temperatura mínima	18.7
181688	7	Sololá	712	San Antonio Palopó	9	San Antonio Palopo	7	Julio	2023-09-07T00:00:00	2024-11-08T00:00:00	5	Humedad	83
181689	7	Sololá	712	San Antonio Palopó	9	San Antonio Palopo	7	Julio	2023-09-07T00:00:00	2024-11-08T00:00:00	6	Velocidad del viento	4.8
181690	7	Sololá	712	San Antonio Palopó	9	San Antonio Palopo	7	Julio	2023-09-07T00:00:00	2024-11-08T00:00:00	7	Dirección del viento	4.83
181691	7	Sololá	712	San Antonio Palopó	9	San Antonio Palopo	7	Julio	2023-09-07T00:00:00	2024-11-08T00:00:00	1	Precipitación	0
181692	7	Sololá	712	San Antonio Palopó	9	San Antonio Palopo	7	Julio	2023-09-07T00:00:00	2024-11-08T00:00:00	8	Radiación solar	0
181693	7	Sololá	712	San Antonio Palopó	9	San Antonio Palopo	7	Julio	2023-09-07T00:00:00	2024-11-08T01:00:00	2	Temperatura media	18.6
181694	7	Sololá	712	San Antonio Palopó	9	San Antonio Palopo	7	Julio	2023-09-07T00:00:00	2024-11-08T01:00:00	4	Temperatura máxima	19.1
181695	7	Sololá	712	San Antonio Palopó	9	San Antonio Palopo	7	Julio	2023-09-07T00:00:00	2024-11-08T01:00:00	3	Temperatura mínima	18.6
181696	7	Sololá	712	San Antonio Palopó	9	San Antonio Palopo	7	Julio	2023-09-07T00:00:00	2024-11-08T01:00:00	5	Humedad	87
181697	7	Sololá	712	San Antonio Palopó	9	San Antonio Palopo	7	Julio	2023-09-07T00:00:00	2024-11-08T01:00:00	6	Velocidad del viento	3.2
181698	7	Sololá	712	San Antonio Palopó	9	San Antonio Palopo	7	Julio	2023-09-07T00:00:00	2024-11-08T01:00:00	7	Dirección del viento	3.22
181699	7	Sololá	712	San Antonio Palopó	9	San Antonio Palopo	7	Julio	2023-09-07T00:00:00	2024-11-08T01:00:00	1	Precipitación	0
181700	7	Sololá	712	San Antonio Palopó	9	San Antonio Palopo	7	Julio	2023-09-07T00:00:00	2024-11-08T01:00:00	8	Radiación solar	0
181701	7	Sololá	712	San Antonio Palopó	9	San Antonio Palopo	7	Julio	2023-09-07T00:00:00	2024-11-08T02:00:00	2	Temperatura media	18.6
181702	7	Sololá	712	San Antonio Palopó	9	San Antonio Palopo	7	Julio	2023-09-07T00:00:00	2024-11-08T02:00:00	4	Temperatura máxima	18.8
181703	7	Sololá	712	San Antonio Palopó	9	San Antonio Palopo	7	Julio	2023-09-07T00:00:00	2024-11-08T02:00:00	3	Temperatura mínima	18.6
181704	7	Sololá	712	San Antonio Palopó	9	San Antonio Palopo	7	Julio	2023-09-07T00:00:00	2024-11-08T02:00:00	5	Humedad	86
181705	7	Sololá	712	San Antonio Palopó	9	San Antonio Palopo	7	Julio	2023-09-07T00:00:00	2024-11-08T02:00:00	6	Velocidad del viento	0
181706	7	Sololá	712	San Antonio Palopó	9	San Antonio Palopo	7	Julio	2023-09-07T00:00:00	2024-11-08T02:00:00	7	Dirección del viento	0
181707	7	Sololá	712	San Antonio Palopó	9	San Antonio Palopo	7	Julio	2023-09-07T00:00:00	2024-11-08T02:00:00	1	Precipitación	0
181708	7	Sololá	712	San Antonio Palopó	9	San Antonio Palopo	7	Julio	2023-09-07T00:00:00	2024-11-08T02:00:00	8	Radiación solar	0
181709	7	Sololá	712	San Antonio Palopó	9	San Antonio Palopo	7	Julio	2023-09-07T00:00:00	2024-11-08T03:00:00	2	Temperatura media	18.6
181710	7	Sololá	712	San Antonio Palopó	9	San Antonio Palopo	7	Julio	2023-09-07T00:00:00	2024-11-08T03:00:00	4	Temperatura máxima	18.7
181711	7	Sololá	712	San Antonio Palopó	9	San Antonio Palopo	7	Julio	2023-09-07T00:00:00	2024-11-08T03:00:00	3	Temperatura mínima	18.6
181712	7	Sololá	712	San Antonio Palopó	9	San Antonio Palopo	7	Julio	2023-09-07T00:00:00	2024-11-08T03:00:00	5	Humedad	87
181713	7	Sololá	712	San Antonio Palopó	9	San Antonio Palopo	7	Julio	2023-09-07T00:00:00	2024-11-08T03:00:00	6	Velocidad del viento	0
181714	7	Sololá	712	San Antonio Palopó	9	San Antonio Palopo	7	Julio	2023-09-07T00:00:00	2024-11-08T03:00:00	7	Dirección del viento	0
181715	7	Sololá	712	San Antonio Palopó	9	San Antonio Palopo	7	Julio	2023-09-07T00:00:00	2024-11-08T03:00:00	1	Precipitación	0
181716	7	Sololá	712	San Antonio Palopó	9	San Antonio Palopo	7	Julio	2023-09-07T00:00:00	2024-11-08T03:00:00	8	Radiación solar	0
181717	7	Sololá	712	San Antonio Palopó	9	San Antonio Palopo	7	Julio	2023-09-07T00:00:00	2024-11-08T04:00:00	2	Temperatura media	19.1
181718	7	Sololá	712	San Antonio Palopó	9	San Antonio Palopo	7	Julio	2023-09-07T00:00:00	2024-11-08T04:00:00	4	Temperatura máxima	19.1
181719	7	Sololá	712	San Antonio Palopó	9	San Antonio Palopo	7	Julio	2023-09-07T00:00:00	2024-11-08T04:00:00	3	Temperatura mínima	18.5
181720	7	Sololá	712	San Antonio Palopó	9	San Antonio Palopo	7	Julio	2023-09-07T00:00:00	2024-11-08T04:00:00	5	Humedad	81
181721	7	Sololá	712	San Antonio Palopó	9	San Antonio Palopo	7	Julio	2023-09-07T00:00:00	2024-11-08T04:00:00	6	Velocidad del viento	1.6
181722	7	Sololá	712	San Antonio Palopó	9	San Antonio Palopo	7	Julio	2023-09-07T00:00:00	2024-11-08T04:00:00	7	Dirección del viento	1.61
181723	7	Sololá	712	San Antonio Palopó	9	San Antonio Palopo	7	Julio	2023-09-07T00:00:00	2024-11-08T04:00:00	1	Precipitación	0
181724	7	Sololá	712	San Antonio Palopó	9	San Antonio Palopo	7	Julio	2023-09-07T00:00:00	2024-11-08T04:00:00	8	Radiación solar	0
181725	7	Sololá	712	San Antonio Palopó	9	San Antonio Palopo	7	Julio	2023-09-07T00:00:00	2024-11-08T05:00:00	2	Temperatura media	18.8
181726	7	Sololá	712	San Antonio Palopó	9	San Antonio Palopo	7	Julio	2023-09-07T00:00:00	2024-11-08T05:00:00	4	Temperatura máxima	19.1
181727	7	Sololá	712	San Antonio Palopó	9	San Antonio Palopo	7	Julio	2023-09-07T00:00:00	2024-11-08T05:00:00	3	Temperatura mínima	18.6
181728	7	Sololá	712	San Antonio Palopó	9	San Antonio Palopo	7	Julio	2023-09-07T00:00:00	2024-11-08T05:00:00	5	Humedad	83
181729	7	Sololá	712	San Antonio Palopó	9	San Antonio Palopo	7	Julio	2023-09-07T00:00:00	2024-11-08T05:00:00	6	Velocidad del viento	6.4
181730	7	Sololá	712	San Antonio Palopó	9	San Antonio Palopo	7	Julio	2023-09-07T00:00:00	2024-11-08T05:00:00	7	Dirección del viento	6.44
181731	7	Sololá	712	San Antonio Palopó	9	San Antonio Palopo	7	Julio	2023-09-07T00:00:00	2024-11-08T05:00:00	1	Precipitación	0
181732	7	Sololá	712	San Antonio Palopó	9	San Antonio Palopo	7	Julio	2023-09-07T00:00:00	2024-11-08T05:00:00	8	Radiación solar	0
181733	7	Sololá	712	San Antonio Palopó	9	San Antonio Palopo	7	Julio	2023-09-07T00:00:00	2024-11-08T06:00:00	2	Temperatura media	18.8
181734	7	Sololá	712	San Antonio Palopó	9	San Antonio Palopo	7	Julio	2023-09-07T00:00:00	2024-11-08T06:00:00	4	Temperatura máxima	19.2
181735	7	Sololá	712	San Antonio Palopó	9	San Antonio Palopo	7	Julio	2023-09-07T00:00:00	2024-11-08T06:00:00	3	Temperatura mínima	18.7
181736	7	Sololá	712	San Antonio Palopó	9	San Antonio Palopo	7	Julio	2023-09-07T00:00:00	2024-11-08T06:00:00	5	Humedad	80
181737	7	Sololá	712	San Antonio Palopó	9	San Antonio Palopo	7	Julio	2023-09-07T00:00:00	2024-11-08T06:00:00	6	Velocidad del viento	6.4
181738	7	Sololá	712	San Antonio Palopó	9	San Antonio Palopo	7	Julio	2023-09-07T00:00:00	2024-11-08T06:00:00	7	Dirección del viento	6.44
181739	7	Sololá	712	San Antonio Palopó	9	San Antonio Palopo	7	Julio	2023-09-07T00:00:00	2024-11-08T06:00:00	1	Precipitación	0
181740	7	Sololá	712	San Antonio Palopó	9	San Antonio Palopo	7	Julio	2023-09-07T00:00:00	2024-11-08T06:00:00	8	Radiación solar	3
181741	7	Sololá	712	San Antonio Palopó	9	San Antonio Palopo	7	Julio	2023-09-07T00:00:00	2024-11-08T07:00:00	2	Temperatura media	19.5
181742	7	Sololá	712	San Antonio Palopó	9	San Antonio Palopo	7	Julio	2023-09-07T00:00:00	2024-11-08T07:00:00	4	Temperatura máxima	19.5
181743	7	Sololá	712	San Antonio Palopó	9	San Antonio Palopo	7	Julio	2023-09-07T00:00:00	2024-11-08T07:00:00	3	Temperatura mínima	18.5
181744	7	Sololá	712	San Antonio Palopó	9	San Antonio Palopo	7	Julio	2023-09-07T00:00:00	2024-11-08T07:00:00	5	Humedad	80
181745	7	Sololá	712	San Antonio Palopó	9	San Antonio Palopo	7	Julio	2023-09-07T00:00:00	2024-11-08T07:00:00	6	Velocidad del viento	3.2
181746	7	Sololá	712	San Antonio Palopó	9	San Antonio Palopo	7	Julio	2023-09-07T00:00:00	2024-11-08T07:00:00	7	Dirección del viento	3.22
181747	7	Sololá	712	San Antonio Palopó	9	San Antonio Palopo	7	Julio	2023-09-07T00:00:00	2024-11-08T07:00:00	1	Precipitación	0
181748	7	Sololá	712	San Antonio Palopó	9	San Antonio Palopo	7	Julio	2023-09-07T00:00:00	2024-11-08T07:00:00	8	Radiación solar	40
181749	7	Sololá	712	San Antonio Palopó	9	San Antonio Palopo	7	Julio	2023-09-07T00:00:00	2024-11-08T08:00:00	2	Temperatura media	20.2
181750	7	Sololá	712	San Antonio Palopó	9	San Antonio Palopo	7	Julio	2023-09-07T00:00:00	2024-11-08T08:00:00	4	Temperatura máxima	20.2
181751	7	Sololá	712	San Antonio Palopó	9	San Antonio Palopo	7	Julio	2023-09-07T00:00:00	2024-11-08T08:00:00	3	Temperatura mínima	19.4
181752	7	Sololá	712	San Antonio Palopó	9	San Antonio Palopo	7	Julio	2023-09-07T00:00:00	2024-11-08T08:00:00	5	Humedad	78
181753	7	Sololá	712	San Antonio Palopó	9	San Antonio Palopo	7	Julio	2023-09-07T00:00:00	2024-11-08T08:00:00	6	Velocidad del viento	4.8
181754	7	Sololá	712	San Antonio Palopó	9	San Antonio Palopo	7	Julio	2023-09-07T00:00:00	2024-11-08T08:00:00	7	Dirección del viento	4.83
181755	7	Sololá	712	San Antonio Palopó	9	San Antonio Palopo	7	Julio	2023-09-07T00:00:00	2024-11-08T08:00:00	1	Precipitación	0
181756	7	Sololá	712	San Antonio Palopó	9	San Antonio Palopo	7	Julio	2023-09-07T00:00:00	2024-11-08T08:00:00	8	Radiación solar	250
181757	7	Sololá	712	San Antonio Palopó	9	San Antonio Palopo	7	Julio	2023-09-07T00:00:00	2024-11-08T09:00:00	2	Temperatura media	21.7
181758	7	Sololá	712	San Antonio Palopó	9	San Antonio Palopo	7	Julio	2023-09-07T00:00:00	2024-11-08T09:00:00	4	Temperatura máxima	21.7
181759	7	Sololá	712	San Antonio Palopó	9	San Antonio Palopo	7	Julio	2023-09-07T00:00:00	2024-11-08T09:00:00	3	Temperatura mínima	20.2
181760	7	Sololá	712	San Antonio Palopó	9	San Antonio Palopo	7	Julio	2023-09-07T00:00:00	2024-11-08T09:00:00	5	Humedad	76
181761	7	Sololá	712	San Antonio Palopó	9	San Antonio Palopo	7	Julio	2023-09-07T00:00:00	2024-11-08T09:00:00	6	Velocidad del viento	1.6
181762	7	Sololá	712	San Antonio Palopó	9	San Antonio Palopo	7	Julio	2023-09-07T00:00:00	2024-11-08T09:00:00	7	Dirección del viento	1.61
181763	7	Sololá	712	San Antonio Palopó	9	San Antonio Palopo	7	Julio	2023-09-07T00:00:00	2024-11-08T09:00:00	1	Precipitación	0
181764	7	Sololá	712	San Antonio Palopó	9	San Antonio Palopo	7	Julio	2023-09-07T00:00:00	2024-11-08T09:00:00	8	Radiación solar	586
181765	7	Sololá	712	San Antonio Palopó	9	San Antonio Palopo	7	Julio	2023-09-07T00:00:00	2024-11-08T10:00:00	2	Temperatura media	23.6
181766	7	Sololá	712	San Antonio Palopó	9	San Antonio Palopo	7	Julio	2023-09-07T00:00:00	2024-11-08T10:00:00	4	Temperatura máxima	23.6
181767	7	Sololá	712	San Antonio Palopó	9	San Antonio Palopo	7	Julio	2023-09-07T00:00:00	2024-11-08T10:00:00	3	Temperatura mínima	21.7
181768	7	Sololá	712	San Antonio Palopó	9	San Antonio Palopo	7	Julio	2023-09-07T00:00:00	2024-11-08T10:00:00	5	Humedad	73
181769	7	Sololá	712	San Antonio Palopó	9	San Antonio Palopo	7	Julio	2023-09-07T00:00:00	2024-11-08T10:00:00	6	Velocidad del viento	3.2
181770	7	Sololá	712	San Antonio Palopó	9	San Antonio Palopo	7	Julio	2023-09-07T00:00:00	2024-11-08T10:00:00	7	Dirección del viento	3.22
181771	7	Sololá	712	San Antonio Palopó	9	San Antonio Palopo	7	Julio	2023-09-07T00:00:00	2024-11-08T10:00:00	1	Precipitación	0
181772	7	Sololá	712	San Antonio Palopó	9	San Antonio Palopo	7	Julio	2023-09-07T00:00:00	2024-11-08T10:00:00	8	Radiación solar	487
181773	7	Sololá	712	San Antonio Palopó	9	San Antonio Palopo	7	Julio	2023-09-07T00:00:00	2024-11-08T11:00:00	2	Temperatura media	23
181774	7	Sololá	712	San Antonio Palopó	9	San Antonio Palopo	7	Julio	2023-09-07T00:00:00	2024-11-08T11:00:00	4	Temperatura máxima	24.1
181775	7	Sololá	712	San Antonio Palopó	9	San Antonio Palopo	7	Julio	2023-09-07T00:00:00	2024-11-08T11:00:00	3	Temperatura mínima	22.8
181776	7	Sololá	712	San Antonio Palopó	9	San Antonio Palopo	7	Julio	2023-09-07T00:00:00	2024-11-08T11:00:00	5	Humedad	73
181777	7	Sololá	712	San Antonio Palopó	9	San Antonio Palopo	7	Julio	2023-09-07T00:00:00	2024-11-08T11:00:00	6	Velocidad del viento	4.8
181778	7	Sololá	712	San Antonio Palopó	9	San Antonio Palopo	7	Julio	2023-09-07T00:00:00	2024-11-08T11:00:00	7	Dirección del viento	4.83
181779	7	Sololá	712	San Antonio Palopó	9	San Antonio Palopo	7	Julio	2023-09-07T00:00:00	2024-11-08T11:00:00	1	Precipitación	0
181780	7	Sololá	712	San Antonio Palopó	9	San Antonio Palopo	7	Julio	2023-09-07T00:00:00	2024-11-08T11:00:00	8	Radiación solar	487
181781	7	Sololá	712	San Antonio Palopó	9	San Antonio Palopo	7	Julio	2023-09-07T00:00:00	2024-11-08T12:00:00	2	Temperatura media	23.6
181782	7	Sololá	712	San Antonio Palopó	9	San Antonio Palopo	7	Julio	2023-09-07T00:00:00	2024-11-08T12:00:00	4	Temperatura máxima	23.8
181783	7	Sololá	712	San Antonio Palopó	9	San Antonio Palopo	7	Julio	2023-09-07T00:00:00	2024-11-08T12:00:00	3	Temperatura mínima	23
181784	7	Sololá	712	San Antonio Palopó	9	San Antonio Palopo	7	Julio	2023-09-07T00:00:00	2024-11-08T12:00:00	5	Humedad	68
181785	7	Sololá	712	San Antonio Palopó	9	San Antonio Palopo	7	Julio	2023-09-07T00:00:00	2024-11-08T12:00:00	6	Velocidad del viento	6.4
181786	7	Sololá	712	San Antonio Palopó	9	San Antonio Palopo	7	Julio	2023-09-07T00:00:00	2024-11-08T12:00:00	7	Dirección del viento	6.44
181787	7	Sololá	712	San Antonio Palopó	9	San Antonio Palopo	7	Julio	2023-09-07T00:00:00	2024-11-08T12:00:00	1	Precipitación	0
181788	7	Sololá	712	San Antonio Palopó	9	San Antonio Palopo	7	Julio	2023-09-07T00:00:00	2024-11-08T12:00:00	8	Radiación solar	455
181789	7	Sololá	712	San Antonio Palopó	9	San Antonio Palopo	7	Julio	2023-09-07T00:00:00	2024-11-08T13:00:00	2	Temperatura media	25.6
181790	7	Sololá	712	San Antonio Palopó	9	San Antonio Palopo	7	Julio	2023-09-07T00:00:00	2024-11-08T13:00:00	4	Temperatura máxima	25.6
181791	7	Sololá	712	San Antonio Palopó	9	San Antonio Palopo	7	Julio	2023-09-07T00:00:00	2024-11-08T13:00:00	3	Temperatura mínima	23.6
181792	7	Sololá	712	San Antonio Palopó	9	San Antonio Palopo	7	Julio	2023-09-07T00:00:00	2024-11-08T13:00:00	5	Humedad	68
181793	7	Sololá	712	San Antonio Palopó	9	San Antonio Palopo	7	Julio	2023-09-07T00:00:00	2024-11-08T13:00:00	6	Velocidad del viento	6.4
181794	7	Sololá	712	San Antonio Palopó	9	San Antonio Palopo	7	Julio	2023-09-07T00:00:00	2024-11-08T13:00:00	7	Dirección del viento	6.44
181795	7	Sololá	712	San Antonio Palopó	9	San Antonio Palopo	7	Julio	2023-09-07T00:00:00	2024-11-08T13:00:00	1	Precipitación	0
181796	7	Sololá	712	San Antonio Palopó	9	San Antonio Palopo	7	Julio	2023-09-07T00:00:00	2024-11-08T13:00:00	8	Radiación solar	621
181797	7	Sololá	712	San Antonio Palopó	9	San Antonio Palopo	7	Julio	2023-09-07T00:00:00	2024-11-08T14:00:00	2	Temperatura media	23.8
181798	7	Sololá	712	San Antonio Palopó	9	San Antonio Palopo	7	Julio	2023-09-07T00:00:00	2024-11-08T14:00:00	4	Temperatura máxima	26.1
181799	7	Sololá	712	San Antonio Palopó	9	San Antonio Palopo	7	Julio	2023-09-07T00:00:00	2024-11-08T14:00:00	3	Temperatura mínima	23.8
181800	7	Sololá	712	San Antonio Palopó	9	San Antonio Palopo	7	Julio	2023-09-07T00:00:00	2024-11-08T14:00:00	5	Humedad	76
181801	7	Sololá	712	San Antonio Palopó	9	San Antonio Palopo	7	Julio	2023-09-07T00:00:00	2024-11-08T14:00:00	6	Velocidad del viento	3.2
181802	7	Sololá	712	San Antonio Palopó	9	San Antonio Palopo	7	Julio	2023-09-07T00:00:00	2024-11-08T14:00:00	7	Dirección del viento	3.22
181803	7	Sololá	712	San Antonio Palopó	9	San Antonio Palopo	7	Julio	2023-09-07T00:00:00	2024-11-08T14:00:00	1	Precipitación	0
181804	7	Sololá	712	San Antonio Palopó	9	San Antonio Palopo	7	Julio	2023-09-07T00:00:00	2024-11-08T14:00:00	8	Radiación solar	861
181805	7	Sololá	712	San Antonio Palopó	9	San Antonio Palopo	7	Julio	2023-09-07T00:00:00	2024-11-08T15:00:00	2	Temperatura media	21.7
181806	7	Sololá	712	San Antonio Palopó	9	San Antonio Palopo	7	Julio	2023-09-07T00:00:00	2024-11-08T15:00:00	4	Temperatura máxima	23.9
181807	7	Sololá	712	San Antonio Palopó	9	San Antonio Palopo	7	Julio	2023-09-07T00:00:00	2024-11-08T15:00:00	3	Temperatura mínima	21.7
181808	7	Sololá	712	San Antonio Palopó	9	San Antonio Palopo	7	Julio	2023-09-07T00:00:00	2024-11-08T15:00:00	5	Humedad	86
181809	7	Sololá	712	San Antonio Palopó	9	San Antonio Palopo	7	Julio	2023-09-07T00:00:00	2024-11-08T15:00:00	6	Velocidad del viento	3.2
181810	7	Sololá	712	San Antonio Palopó	9	San Antonio Palopo	7	Julio	2023-09-07T00:00:00	2024-11-08T15:00:00	7	Dirección del viento	3.22
181811	7	Sololá	712	San Antonio Palopó	9	San Antonio Palopo	7	Julio	2023-09-07T00:00:00	2024-11-08T15:00:00	1	Precipitación	0.6
181812	7	Sololá	712	San Antonio Palopó	9	San Antonio Palopo	7	Julio	2023-09-07T00:00:00	2024-11-08T15:00:00	8	Radiación solar	219
181813	7	Sololá	712	San Antonio Palopó	9	San Antonio Palopo	7	Julio	2023-09-07T00:00:00	2024-11-08T16:00:00	2	Temperatura media	20.3
181814	7	Sololá	712	San Antonio Palopó	9	San Antonio Palopo	7	Julio	2023-09-07T00:00:00	2024-11-08T16:00:00	4	Temperatura máxima	21.7
181815	7	Sololá	712	San Antonio Palopó	9	San Antonio Palopo	7	Julio	2023-09-07T00:00:00	2024-11-08T16:00:00	3	Temperatura mínima	20.3
181816	7	Sololá	712	San Antonio Palopó	9	San Antonio Palopo	7	Julio	2023-09-07T00:00:00	2024-11-08T16:00:00	5	Humedad	89
181817	7	Sololá	712	San Antonio Palopó	9	San Antonio Palopo	7	Julio	2023-09-07T00:00:00	2024-11-08T16:00:00	6	Velocidad del viento	3.2
181818	7	Sololá	712	San Antonio Palopó	9	San Antonio Palopo	7	Julio	2023-09-07T00:00:00	2024-11-08T16:00:00	7	Dirección del viento	3.22
181819	7	Sololá	712	San Antonio Palopó	9	San Antonio Palopo	7	Julio	2023-09-07T00:00:00	2024-11-08T16:00:00	1	Precipitación	0.8
181820	7	Sololá	712	San Antonio Palopó	9	San Antonio Palopo	7	Julio	2023-09-07T00:00:00	2024-11-08T16:00:00	8	Radiación solar	83
181821	7	Sololá	712	San Antonio Palopó	9	San Antonio Palopo	7	Julio	2023-09-07T00:00:00	2024-11-08T17:00:00	2	Temperatura media	20.6
181822	7	Sololá	712	San Antonio Palopó	9	San Antonio Palopo	7	Julio	2023-09-07T00:00:00	2024-11-08T17:00:00	4	Temperatura máxima	20.6
181823	7	Sololá	712	San Antonio Palopó	9	San Antonio Palopo	7	Julio	2023-09-07T00:00:00	2024-11-08T17:00:00	3	Temperatura mínima	20
181824	7	Sololá	712	San Antonio Palopó	9	San Antonio Palopo	7	Julio	2023-09-07T00:00:00	2024-11-08T17:00:00	5	Humedad	85
181825	7	Sololá	712	San Antonio Palopó	9	San Antonio Palopo	7	Julio	2023-09-07T00:00:00	2024-11-08T17:00:00	6	Velocidad del viento	1.6
181826	7	Sololá	712	San Antonio Palopó	9	San Antonio Palopo	7	Julio	2023-09-07T00:00:00	2024-11-08T17:00:00	7	Dirección del viento	1.61
181827	7	Sololá	712	San Antonio Palopó	9	San Antonio Palopo	7	Julio	2023-09-07T00:00:00	2024-11-08T17:00:00	1	Precipitación	0.2
181828	7	Sololá	712	San Antonio Palopó	9	San Antonio Palopo	7	Julio	2023-09-07T00:00:00	2024-11-08T17:00:00	8	Radiación solar	141
181829	7	Sololá	712	San Antonio Palopó	9	San Antonio Palopo	7	Julio	2023-09-07T00:00:00	2024-11-08T18:00:00	2	Temperatura media	20.9
181830	7	Sololá	712	San Antonio Palopó	9	San Antonio Palopo	7	Julio	2023-09-07T00:00:00	2024-11-08T18:00:00	4	Temperatura máxima	21.4
181831	7	Sololá	712	San Antonio Palopó	9	San Antonio Palopo	7	Julio	2023-09-07T00:00:00	2024-11-08T18:00:00	3	Temperatura mínima	20.6
181832	7	Sololá	712	San Antonio Palopó	9	San Antonio Palopo	7	Julio	2023-09-07T00:00:00	2024-11-08T18:00:00	5	Humedad	85
181833	7	Sololá	712	San Antonio Palopó	9	San Antonio Palopo	7	Julio	2023-09-07T00:00:00	2024-11-08T18:00:00	6	Velocidad del viento	0
181834	7	Sololá	712	San Antonio Palopó	9	San Antonio Palopo	7	Julio	2023-09-07T00:00:00	2024-11-08T18:00:00	7	Dirección del viento	0
181835	7	Sololá	712	San Antonio Palopó	9	San Antonio Palopo	7	Julio	2023-09-07T00:00:00	2024-11-08T18:00:00	1	Precipitación	0
181836	7	Sololá	712	San Antonio Palopó	9	San Antonio Palopo	7	Julio	2023-09-07T00:00:00	2024-11-08T18:00:00	8	Radiación solar	28
181837	7	Sololá	712	San Antonio Palopó	9	San Antonio Palopo	7	Julio	2023-09-07T00:00:00	2024-11-08T19:00:00	2	Temperatura media	20.3
181838	7	Sololá	712	San Antonio Palopó	9	San Antonio Palopo	7	Julio	2023-09-07T00:00:00	2024-11-08T19:00:00	4	Temperatura máxima	20.9
181839	7	Sololá	712	San Antonio Palopó	9	San Antonio Palopo	7	Julio	2023-09-07T00:00:00	2024-11-08T19:00:00	3	Temperatura mínima	20.3
181840	7	Sololá	712	San Antonio Palopó	9	San Antonio Palopo	7	Julio	2023-09-07T00:00:00	2024-11-08T19:00:00	5	Humedad	82
181841	7	Sololá	712	San Antonio Palopó	9	San Antonio Palopo	7	Julio	2023-09-07T00:00:00	2024-11-08T19:00:00	6	Velocidad del viento	0
181842	7	Sololá	712	San Antonio Palopó	9	San Antonio Palopo	7	Julio	2023-09-07T00:00:00	2024-11-08T19:00:00	7	Dirección del viento	0
181843	7	Sololá	712	San Antonio Palopó	9	San Antonio Palopo	7	Julio	2023-09-07T00:00:00	2024-11-08T19:00:00	1	Precipitación	0
181844	7	Sololá	712	San Antonio Palopó	9	San Antonio Palopo	7	Julio	2023-09-07T00:00:00	2024-11-08T19:00:00	8	Radiación solar	0
181845	7	Sololá	712	San Antonio Palopó	9	San Antonio Palopo	7	Julio	2023-09-07T00:00:00	2024-11-08T20:00:00	2	Temperatura media	19.3
181846	7	Sololá	712	San Antonio Palopó	9	San Antonio Palopo	7	Julio	2023-09-07T00:00:00	2024-11-08T20:00:00	4	Temperatura máxima	20.3
181847	7	Sololá	712	San Antonio Palopó	9	San Antonio Palopo	7	Julio	2023-09-07T00:00:00	2024-11-08T20:00:00	3	Temperatura mínima	19.3
181848	7	Sololá	712	San Antonio Palopó	9	San Antonio Palopo	7	Julio	2023-09-07T00:00:00	2024-11-08T20:00:00	5	Humedad	85
181849	7	Sololá	712	San Antonio Palopó	9	San Antonio Palopo	7	Julio	2023-09-07T00:00:00	2024-11-08T20:00:00	6	Velocidad del viento	1.6
181850	7	Sololá	712	San Antonio Palopó	9	San Antonio Palopo	7	Julio	2023-09-07T00:00:00	2024-11-08T20:00:00	7	Dirección del viento	1.61
181851	7	Sololá	712	San Antonio Palopó	9	San Antonio Palopo	7	Julio	2023-09-07T00:00:00	2024-11-08T20:00:00	1	Precipitación	0
181852	7	Sololá	712	San Antonio Palopó	9	San Antonio Palopo	7	Julio	2023-09-07T00:00:00	2024-11-08T20:00:00	8	Radiación solar	0
181853	7	Sololá	712	San Antonio Palopó	9	San Antonio Palopo	7	Julio	2023-09-07T00:00:00	2024-11-08T21:00:00	2	Temperatura media	19.5
181854	7	Sololá	712	San Antonio Palopó	9	San Antonio Palopo	7	Julio	2023-09-07T00:00:00	2024-11-08T21:00:00	4	Temperatura máxima	19.6
181855	7	Sololá	712	San Antonio Palopó	9	San Antonio Palopo	7	Julio	2023-09-07T00:00:00	2024-11-08T21:00:00	3	Temperatura mínima	19.3
181856	7	Sololá	712	San Antonio Palopó	9	San Antonio Palopo	7	Julio	2023-09-07T00:00:00	2024-11-08T21:00:00	5	Humedad	83
181857	7	Sololá	712	San Antonio Palopó	9	San Antonio Palopo	7	Julio	2023-09-07T00:00:00	2024-11-08T21:00:00	6	Velocidad del viento	1.6
181858	7	Sololá	712	San Antonio Palopó	9	San Antonio Palopo	7	Julio	2023-09-07T00:00:00	2024-11-08T21:00:00	7	Dirección del viento	1.61
181859	7	Sololá	712	San Antonio Palopó	9	San Antonio Palopo	7	Julio	2023-09-07T00:00:00	2024-11-08T21:00:00	1	Precipitación	0
181860	7	Sololá	712	San Antonio Palopó	9	San Antonio Palopo	7	Julio	2023-09-07T00:00:00	2024-11-08T21:00:00	8	Radiación solar	0
181861	7	Sololá	712	San Antonio Palopó	9	San Antonio Palopo	7	Julio	2023-09-07T00:00:00	2024-11-08T22:00:00	2	Temperatura media	19.7
181862	7	Sololá	712	San Antonio Palopó	9	San Antonio Palopo	7	Julio	2023-09-07T00:00:00	2024-11-08T22:00:00	4	Temperatura máxima	20.7
181863	7	Sololá	712	San Antonio Palopó	9	San Antonio Palopo	7	Julio	2023-09-07T00:00:00	2024-11-08T22:00:00	3	Temperatura mínima	19.6
181864	7	Sololá	712	San Antonio Palopó	9	San Antonio Palopo	7	Julio	2023-09-07T00:00:00	2024-11-08T22:00:00	5	Humedad	83
181865	7	Sololá	712	San Antonio Palopó	9	San Antonio Palopo	7	Julio	2023-09-07T00:00:00	2024-11-08T22:00:00	6	Velocidad del viento	6.4
181866	7	Sololá	712	San Antonio Palopó	9	San Antonio Palopo	7	Julio	2023-09-07T00:00:00	2024-11-08T22:00:00	7	Dirección del viento	6.44
181867	7	Sololá	712	San Antonio Palopó	9	San Antonio Palopo	7	Julio	2023-09-07T00:00:00	2024-11-08T22:00:00	1	Precipitación	0
181868	7	Sololá	712	San Antonio Palopó	9	San Antonio Palopo	7	Julio	2023-09-07T00:00:00	2024-11-08T22:00:00	8	Radiación solar	0
181869	7	Sololá	712	San Antonio Palopó	9	San Antonio Palopo	7	Julio	2023-09-07T00:00:00	2024-11-08T23:00:00	2	Temperatura media	20.2
181870	7	Sololá	712	San Antonio Palopó	9	San Antonio Palopo	7	Julio	2023-09-07T00:00:00	2024-11-08T23:00:00	4	Temperatura máxima	20.4
181871	7	Sololá	712	San Antonio Palopó	9	San Antonio Palopo	7	Julio	2023-09-07T00:00:00	2024-11-08T23:00:00	3	Temperatura mínima	19.7
181872	7	Sololá	712	San Antonio Palopó	9	San Antonio Palopo	7	Julio	2023-09-07T00:00:00	2024-11-08T23:00:00	5	Humedad	77
181873	7	Sololá	712	San Antonio Palopó	9	San Antonio Palopo	7	Julio	2023-09-07T00:00:00	2024-11-08T23:00:00	6	Velocidad del viento	6.4
181874	7	Sololá	712	San Antonio Palopó	9	San Antonio Palopo	7	Julio	2023-09-07T00:00:00	2024-11-08T23:00:00	7	Dirección del viento	6.44
181875	7	Sololá	712	San Antonio Palopó	9	San Antonio Palopo	7	Julio	2023-09-07T00:00:00	2024-11-08T23:00:00	1	Precipitación	0
181876	7	Sololá	712	San Antonio Palopó	9	San Antonio Palopo	7	Julio	2023-09-07T00:00:00	2024-11-08T23:00:00	8	Radiación solar	0
181877	7	Sololá	712	San Antonio Palopó	9	San Antonio Palopo	7	Julio	2023-10-07T00:00:00	2024-11-08T00:00:00	2	Temperatura media	19.7
181878	7	Sololá	712	San Antonio Palopó	9	San Antonio Palopo	7	Julio	2023-10-07T00:00:00	2024-11-08T00:00:00	4	Temperatura máxima	20.6
181879	7	Sololá	712	San Antonio Palopó	9	San Antonio Palopo	7	Julio	2023-10-07T00:00:00	2024-11-08T00:00:00	3	Temperatura mínima	19.7
181880	7	Sololá	712	San Antonio Palopó	9	San Antonio Palopo	7	Julio	2023-10-07T00:00:00	2024-11-08T00:00:00	5	Humedad	79
181881	7	Sololá	712	San Antonio Palopó	9	San Antonio Palopo	7	Julio	2023-10-07T00:00:00	2024-11-08T00:00:00	6	Velocidad del viento	8
181882	7	Sololá	712	San Antonio Palopó	9	San Antonio Palopo	7	Julio	2023-10-07T00:00:00	2024-11-08T00:00:00	7	Dirección del viento	8.05
181883	7	Sololá	712	San Antonio Palopó	9	San Antonio Palopo	7	Julio	2023-10-07T00:00:00	2024-11-08T00:00:00	1	Precipitación	0
181884	7	Sololá	712	San Antonio Palopó	9	San Antonio Palopo	7	Julio	2023-10-07T00:00:00	2024-11-08T00:00:00	8	Radiación solar	0
181885	7	Sololá	712	San Antonio Palopó	9	San Antonio Palopo	7	Julio	2023-10-07T00:00:00	2024-11-08T01:00:00	2	Temperatura media	19.8
181886	7	Sololá	712	San Antonio Palopó	9	San Antonio Palopo	7	Julio	2023-10-07T00:00:00	2024-11-08T01:00:00	4	Temperatura máxima	20.3
181887	7	Sololá	712	San Antonio Palopó	9	San Antonio Palopo	7	Julio	2023-10-07T00:00:00	2024-11-08T01:00:00	3	Temperatura mínima	19.6
181888	7	Sololá	712	San Antonio Palopó	9	San Antonio Palopo	7	Julio	2023-10-07T00:00:00	2024-11-08T01:00:00	5	Humedad	77
181889	7	Sololá	712	San Antonio Palopó	9	San Antonio Palopo	7	Julio	2023-10-07T00:00:00	2024-11-08T01:00:00	6	Velocidad del viento	9.7
181890	7	Sololá	712	San Antonio Palopó	9	San Antonio Palopo	7	Julio	2023-10-07T00:00:00	2024-11-08T01:00:00	7	Dirección del viento	9.66
181891	7	Sololá	712	San Antonio Palopó	9	San Antonio Palopo	7	Julio	2023-10-07T00:00:00	2024-11-08T01:00:00	1	Precipitación	0
181892	7	Sololá	712	San Antonio Palopó	9	San Antonio Palopo	7	Julio	2023-10-07T00:00:00	2024-11-08T01:00:00	8	Radiación solar	0
181893	7	Sololá	712	San Antonio Palopó	9	San Antonio Palopo	7	Julio	2023-10-07T00:00:00	2024-11-08T02:00:00	2	Temperatura media	19.7
181894	7	Sololá	712	San Antonio Palopó	9	San Antonio Palopo	7	Julio	2023-10-07T00:00:00	2024-11-08T02:00:00	4	Temperatura máxima	20.1
181895	7	Sololá	712	San Antonio Palopó	9	San Antonio Palopo	7	Julio	2023-10-07T00:00:00	2024-11-08T02:00:00	3	Temperatura mínima	19.7
181896	7	Sololá	712	San Antonio Palopó	9	San Antonio Palopo	7	Julio	2023-10-07T00:00:00	2024-11-08T02:00:00	5	Humedad	77
181897	7	Sololá	712	San Antonio Palopó	9	San Antonio Palopo	7	Julio	2023-10-07T00:00:00	2024-11-08T02:00:00	6	Velocidad del viento	8
181898	7	Sololá	712	San Antonio Palopó	9	San Antonio Palopo	7	Julio	2023-10-07T00:00:00	2024-11-08T02:00:00	7	Dirección del viento	8.05
181899	7	Sololá	712	San Antonio Palopó	9	San Antonio Palopo	7	Julio	2023-10-07T00:00:00	2024-11-08T02:00:00	1	Precipitación	0
181900	7	Sololá	712	San Antonio Palopó	9	San Antonio Palopo	7	Julio	2023-10-07T00:00:00	2024-11-08T02:00:00	8	Radiación solar	0
181901	7	Sololá	712	San Antonio Palopó	9	San Antonio Palopo	7	Julio	2023-10-07T00:00:00	2024-11-08T03:00:00	2	Temperatura media	19.4
181902	7	Sololá	712	San Antonio Palopó	9	San Antonio Palopo	7	Julio	2023-10-07T00:00:00	2024-11-08T03:00:00	4	Temperatura máxima	19.9
181903	7	Sololá	712	San Antonio Palopó	9	San Antonio Palopo	7	Julio	2023-10-07T00:00:00	2024-11-08T03:00:00	3	Temperatura mínima	19.4
181904	7	Sololá	712	San Antonio Palopó	9	San Antonio Palopo	7	Julio	2023-10-07T00:00:00	2024-11-08T03:00:00	5	Humedad	77
181905	7	Sololá	712	San Antonio Palopó	9	San Antonio Palopo	7	Julio	2023-10-07T00:00:00	2024-11-08T03:00:00	6	Velocidad del viento	9.7
181906	7	Sololá	712	San Antonio Palopó	9	San Antonio Palopo	7	Julio	2023-10-07T00:00:00	2024-11-08T03:00:00	7	Dirección del viento	9.66
181907	7	Sololá	712	San Antonio Palopó	9	San Antonio Palopo	7	Julio	2023-10-07T00:00:00	2024-11-08T03:00:00	1	Precipitación	0
181908	7	Sololá	712	San Antonio Palopó	9	San Antonio Palopo	7	Julio	2023-10-07T00:00:00	2024-11-08T03:00:00	8	Radiación solar	0
181909	7	Sololá	712	San Antonio Palopó	9	San Antonio Palopo	7	Julio	2023-10-07T00:00:00	2024-11-08T04:00:00	2	Temperatura media	19.5
181910	7	Sololá	712	San Antonio Palopó	9	San Antonio Palopo	7	Julio	2023-10-07T00:00:00	2024-11-08T04:00:00	4	Temperatura máxima	19.6
181911	7	Sololá	712	San Antonio Palopó	9	San Antonio Palopo	7	Julio	2023-10-07T00:00:00	2024-11-08T04:00:00	3	Temperatura mínima	19.3
181912	7	Sololá	712	San Antonio Palopó	9	San Antonio Palopo	7	Julio	2023-10-07T00:00:00	2024-11-08T04:00:00	5	Humedad	76
181913	7	Sololá	712	San Antonio Palopó	9	San Antonio Palopo	7	Julio	2023-10-07T00:00:00	2024-11-08T04:00:00	6	Velocidad del viento	9.7
181914	7	Sololá	712	San Antonio Palopó	9	San Antonio Palopo	7	Julio	2023-10-07T00:00:00	2024-11-08T04:00:00	7	Dirección del viento	9.66
181915	7	Sololá	712	San Antonio Palopó	9	San Antonio Palopo	7	Julio	2023-10-07T00:00:00	2024-11-08T04:00:00	1	Precipitación	0
181916	7	Sololá	712	San Antonio Palopó	9	San Antonio Palopo	7	Julio	2023-10-07T00:00:00	2024-11-08T04:00:00	8	Radiación solar	0
181917	7	Sololá	712	San Antonio Palopó	9	San Antonio Palopo	7	Julio	2023-10-07T00:00:00	2024-11-08T05:00:00	2	Temperatura media	19.5
181918	7	Sololá	712	San Antonio Palopó	9	San Antonio Palopo	7	Julio	2023-10-07T00:00:00	2024-11-08T05:00:00	4	Temperatura máxima	19.5
181919	7	Sololá	712	San Antonio Palopó	9	San Antonio Palopo	7	Julio	2023-10-07T00:00:00	2024-11-08T05:00:00	3	Temperatura mínima	19.1
181920	7	Sololá	712	San Antonio Palopó	9	San Antonio Palopo	7	Julio	2023-10-07T00:00:00	2024-11-08T05:00:00	5	Humedad	78
181921	7	Sololá	712	San Antonio Palopó	9	San Antonio Palopo	7	Julio	2023-10-07T00:00:00	2024-11-08T05:00:00	6	Velocidad del viento	8
181922	7	Sololá	712	San Antonio Palopó	9	San Antonio Palopo	7	Julio	2023-10-07T00:00:00	2024-11-08T05:00:00	7	Dirección del viento	8.05
181923	7	Sololá	712	San Antonio Palopó	9	San Antonio Palopo	7	Julio	2023-10-07T00:00:00	2024-11-08T05:00:00	1	Precipitación	0
181924	7	Sololá	712	San Antonio Palopó	9	San Antonio Palopo	7	Julio	2023-10-07T00:00:00	2024-11-08T05:00:00	8	Radiación solar	0
181925	7	Sololá	712	San Antonio Palopó	9	San Antonio Palopo	7	Julio	2023-10-07T00:00:00	2024-11-08T06:00:00	2	Temperatura media	19.3
181926	7	Sololá	712	San Antonio Palopó	9	San Antonio Palopo	7	Julio	2023-10-07T00:00:00	2024-11-08T06:00:00	4	Temperatura máxima	19.6
181927	7	Sololá	712	San Antonio Palopó	9	San Antonio Palopo	7	Julio	2023-10-07T00:00:00	2024-11-08T06:00:00	3	Temperatura mínima	19.1
181928	7	Sololá	712	San Antonio Palopó	9	San Antonio Palopo	7	Julio	2023-10-07T00:00:00	2024-11-08T06:00:00	5	Humedad	76
181929	7	Sololá	712	San Antonio Palopó	9	San Antonio Palopo	7	Julio	2023-10-07T00:00:00	2024-11-08T06:00:00	6	Velocidad del viento	8
181930	7	Sololá	712	San Antonio Palopó	9	San Antonio Palopo	7	Julio	2023-10-07T00:00:00	2024-11-08T06:00:00	7	Dirección del viento	8.05
181931	7	Sololá	712	San Antonio Palopó	9	San Antonio Palopo	7	Julio	2023-10-07T00:00:00	2024-11-08T06:00:00	1	Precipitación	0
181932	7	Sololá	712	San Antonio Palopó	9	San Antonio Palopo	7	Julio	2023-10-07T00:00:00	2024-11-08T06:00:00	8	Radiación solar	1
181933	7	Sololá	712	San Antonio Palopó	9	San Antonio Palopo	7	Julio	2023-10-07T00:00:00	2024-11-08T07:00:00	2	Temperatura media	19.2
181934	7	Sololá	712	San Antonio Palopó	9	San Antonio Palopo	7	Julio	2023-10-07T00:00:00	2024-11-08T07:00:00	4	Temperatura máxima	19.3
181935	7	Sololá	712	San Antonio Palopó	9	San Antonio Palopo	7	Julio	2023-10-07T00:00:00	2024-11-08T07:00:00	3	Temperatura mínima	19.1
181936	7	Sololá	712	San Antonio Palopó	9	San Antonio Palopo	7	Julio	2023-10-07T00:00:00	2024-11-08T07:00:00	5	Humedad	75
181937	7	Sololá	712	San Antonio Palopó	9	San Antonio Palopo	7	Julio	2023-10-07T00:00:00	2024-11-08T07:00:00	6	Velocidad del viento	8
181938	7	Sololá	712	San Antonio Palopó	9	San Antonio Palopo	7	Julio	2023-10-07T00:00:00	2024-11-08T07:00:00	7	Dirección del viento	8.05
181939	7	Sololá	712	San Antonio Palopó	9	San Antonio Palopo	7	Julio	2023-10-07T00:00:00	2024-11-08T07:00:00	1	Precipitación	0
181940	7	Sololá	712	San Antonio Palopó	9	San Antonio Palopo	7	Julio	2023-10-07T00:00:00	2024-11-08T07:00:00	8	Radiación solar	41
181941	7	Sololá	712	San Antonio Palopó	9	San Antonio Palopo	7	Julio	2023-10-07T00:00:00	2024-11-08T08:00:00	2	Temperatura media	20.4
181942	7	Sololá	712	San Antonio Palopó	9	San Antonio Palopo	7	Julio	2023-10-07T00:00:00	2024-11-08T08:00:00	4	Temperatura máxima	20.4
181943	7	Sololá	712	San Antonio Palopó	9	San Antonio Palopo	7	Julio	2023-10-07T00:00:00	2024-11-08T08:00:00	3	Temperatura mínima	19.2
181944	7	Sololá	712	San Antonio Palopó	9	San Antonio Palopo	7	Julio	2023-10-07T00:00:00	2024-11-08T08:00:00	5	Humedad	79
181945	7	Sololá	712	San Antonio Palopó	9	San Antonio Palopo	7	Julio	2023-10-07T00:00:00	2024-11-08T08:00:00	6	Velocidad del viento	4.8
181946	7	Sololá	712	San Antonio Palopó	9	San Antonio Palopo	7	Julio	2023-10-07T00:00:00	2024-11-08T08:00:00	7	Dirección del viento	4.83
181947	7	Sololá	712	San Antonio Palopó	9	San Antonio Palopo	7	Julio	2023-10-07T00:00:00	2024-11-08T08:00:00	1	Precipitación	0
181948	7	Sololá	712	San Antonio Palopó	9	San Antonio Palopo	7	Julio	2023-10-07T00:00:00	2024-11-08T08:00:00	8	Radiación solar	145
181949	7	Sololá	712	San Antonio Palopó	9	San Antonio Palopo	7	Julio	2023-10-07T00:00:00	2024-11-08T09:00:00	2	Temperatura media	23.1
181950	7	Sololá	712	San Antonio Palopó	9	San Antonio Palopo	7	Julio	2023-10-07T00:00:00	2024-11-08T09:00:00	4	Temperatura máxima	23.1
181951	7	Sololá	712	San Antonio Palopó	9	San Antonio Palopo	7	Julio	2023-10-07T00:00:00	2024-11-08T09:00:00	3	Temperatura mínima	20.4
181952	7	Sololá	712	San Antonio Palopó	9	San Antonio Palopo	7	Julio	2023-10-07T00:00:00	2024-11-08T09:00:00	5	Humedad	68
181953	7	Sololá	712	San Antonio Palopó	9	San Antonio Palopo	7	Julio	2023-10-07T00:00:00	2024-11-08T09:00:00	6	Velocidad del viento	1.6
181954	7	Sololá	712	San Antonio Palopó	9	San Antonio Palopo	7	Julio	2023-10-07T00:00:00	2024-11-08T09:00:00	7	Dirección del viento	1.61
181955	7	Sololá	712	San Antonio Palopó	9	San Antonio Palopo	7	Julio	2023-10-07T00:00:00	2024-11-08T09:00:00	1	Precipitación	0
181956	7	Sololá	712	San Antonio Palopó	9	San Antonio Palopo	7	Julio	2023-10-07T00:00:00	2024-11-08T09:00:00	8	Radiación solar	319
181957	7	Sololá	712	San Antonio Palopó	9	San Antonio Palopo	7	Julio	2023-10-07T00:00:00	2024-11-08T10:00:00	2	Temperatura media	24.7
181958	7	Sololá	712	San Antonio Palopó	9	San Antonio Palopo	7	Julio	2023-10-07T00:00:00	2024-11-08T10:00:00	4	Temperatura máxima	24.8
181959	7	Sololá	712	San Antonio Palopó	9	San Antonio Palopo	7	Julio	2023-10-07T00:00:00	2024-11-08T10:00:00	3	Temperatura mínima	23.1
181960	7	Sololá	712	San Antonio Palopó	9	San Antonio Palopo	7	Julio	2023-10-07T00:00:00	2024-11-08T10:00:00	5	Humedad	60
181961	7	Sololá	712	San Antonio Palopó	9	San Antonio Palopo	7	Julio	2023-10-07T00:00:00	2024-11-08T10:00:00	6	Velocidad del viento	4.8
181962	7	Sololá	712	San Antonio Palopó	9	San Antonio Palopo	7	Julio	2023-10-07T00:00:00	2024-11-08T10:00:00	7	Dirección del viento	4.83
181963	7	Sololá	712	San Antonio Palopó	9	San Antonio Palopo	7	Julio	2023-10-07T00:00:00	2024-11-08T10:00:00	1	Precipitación	0
181964	7	Sololá	712	San Antonio Palopó	9	San Antonio Palopo	7	Julio	2023-10-07T00:00:00	2024-11-08T10:00:00	8	Radiación solar	603
181965	7	Sololá	712	San Antonio Palopó	9	San Antonio Palopo	7	Julio	2023-10-07T00:00:00	2024-11-08T11:00:00	2	Temperatura media	25.3
181966	7	Sololá	712	San Antonio Palopó	9	San Antonio Palopo	7	Julio	2023-10-07T00:00:00	2024-11-08T11:00:00	4	Temperatura máxima	25.3
181967	7	Sololá	712	San Antonio Palopó	9	San Antonio Palopo	7	Julio	2023-10-07T00:00:00	2024-11-08T11:00:00	3	Temperatura mínima	24.3
181968	7	Sololá	712	San Antonio Palopó	9	San Antonio Palopo	7	Julio	2023-10-07T00:00:00	2024-11-08T11:00:00	5	Humedad	59
181969	7	Sololá	712	San Antonio Palopó	9	San Antonio Palopo	7	Julio	2023-10-07T00:00:00	2024-11-08T11:00:00	6	Velocidad del viento	6.4
181970	7	Sololá	712	San Antonio Palopó	9	San Antonio Palopo	7	Julio	2023-10-07T00:00:00	2024-11-08T11:00:00	7	Dirección del viento	6.44
181971	7	Sololá	712	San Antonio Palopó	9	San Antonio Palopo	7	Julio	2023-10-07T00:00:00	2024-11-08T11:00:00	1	Precipitación	0
181972	7	Sololá	712	San Antonio Palopó	9	San Antonio Palopo	7	Julio	2023-10-07T00:00:00	2024-11-08T11:00:00	8	Radiación solar	382
181973	7	Sololá	712	San Antonio Palopó	9	San Antonio Palopo	7	Julio	2023-10-07T00:00:00	2024-11-08T12:00:00	2	Temperatura media	25.8
181974	7	Sololá	712	San Antonio Palopó	9	San Antonio Palopo	7	Julio	2023-10-07T00:00:00	2024-11-08T12:00:00	4	Temperatura máxima	26
181975	7	Sololá	712	San Antonio Palopó	9	San Antonio Palopo	7	Julio	2023-10-07T00:00:00	2024-11-08T12:00:00	3	Temperatura mínima	24.8
181976	7	Sololá	712	San Antonio Palopó	9	San Antonio Palopo	7	Julio	2023-10-07T00:00:00	2024-11-08T12:00:00	5	Humedad	57
181977	7	Sololá	712	San Antonio Palopó	9	San Antonio Palopo	7	Julio	2023-10-07T00:00:00	2024-11-08T12:00:00	6	Velocidad del viento	8
181978	7	Sololá	712	San Antonio Palopó	9	San Antonio Palopo	7	Julio	2023-10-07T00:00:00	2024-11-08T12:00:00	7	Dirección del viento	8.05
181979	7	Sololá	712	San Antonio Palopó	9	San Antonio Palopo	7	Julio	2023-10-07T00:00:00	2024-11-08T12:00:00	1	Precipitación	0
181980	7	Sololá	712	San Antonio Palopó	9	San Antonio Palopo	7	Julio	2023-10-07T00:00:00	2024-11-08T12:00:00	8	Radiación solar	451
181981	7	Sololá	712	San Antonio Palopó	9	San Antonio Palopo	7	Julio	2023-10-07T00:00:00	2024-11-08T13:00:00	2	Temperatura media	26.8
181982	7	Sololá	712	San Antonio Palopó	9	San Antonio Palopo	7	Julio	2023-10-07T00:00:00	2024-11-08T13:00:00	4	Temperatura máxima	27.1
181983	7	Sololá	712	San Antonio Palopó	9	San Antonio Palopo	7	Julio	2023-10-07T00:00:00	2024-11-08T13:00:00	3	Temperatura mínima	25.4
181984	7	Sololá	712	San Antonio Palopó	9	San Antonio Palopo	7	Julio	2023-10-07T00:00:00	2024-11-08T13:00:00	5	Humedad	52
181985	7	Sololá	712	San Antonio Palopó	9	San Antonio Palopo	7	Julio	2023-10-07T00:00:00	2024-11-08T13:00:00	6	Velocidad del viento	8
181986	7	Sololá	712	San Antonio Palopó	9	San Antonio Palopo	7	Julio	2023-10-07T00:00:00	2024-11-08T13:00:00	7	Dirección del viento	8.05
181987	7	Sololá	712	San Antonio Palopó	9	San Antonio Palopo	7	Julio	2023-10-07T00:00:00	2024-11-08T13:00:00	1	Precipitación	0
181988	7	Sololá	712	San Antonio Palopó	9	San Antonio Palopo	7	Julio	2023-10-07T00:00:00	2024-11-08T13:00:00	8	Radiación solar	670
181989	7	Sololá	712	San Antonio Palopó	9	San Antonio Palopo	7	Julio	2023-10-07T00:00:00	2024-11-08T14:00:00	2	Temperatura media	27.4
181990	7	Sololá	712	San Antonio Palopó	9	San Antonio Palopo	7	Julio	2023-10-07T00:00:00	2024-11-08T14:00:00	4	Temperatura máxima	28.1
181991	7	Sololá	712	San Antonio Palopó	9	San Antonio Palopo	7	Julio	2023-10-07T00:00:00	2024-11-08T14:00:00	3	Temperatura mínima	26.8
181992	7	Sololá	712	San Antonio Palopó	9	San Antonio Palopo	7	Julio	2023-10-07T00:00:00	2024-11-08T14:00:00	5	Humedad	63
181993	7	Sololá	712	San Antonio Palopó	9	San Antonio Palopo	7	Julio	2023-10-07T00:00:00	2024-11-08T14:00:00	6	Velocidad del viento	6.4
181994	7	Sololá	712	San Antonio Palopó	9	San Antonio Palopo	7	Julio	2023-10-07T00:00:00	2024-11-08T14:00:00	7	Dirección del viento	6.44
181995	7	Sololá	712	San Antonio Palopó	9	San Antonio Palopo	7	Julio	2023-10-07T00:00:00	2024-11-08T14:00:00	1	Precipitación	0
181996	7	Sololá	712	San Antonio Palopó	9	San Antonio Palopo	7	Julio	2023-10-07T00:00:00	2024-11-08T14:00:00	8	Radiación solar	923
181997	7	Sololá	712	San Antonio Palopó	9	San Antonio Palopo	7	Julio	2023-10-07T00:00:00	2024-11-08T15:00:00	2	Temperatura media	26.2
181998	7	Sololá	712	San Antonio Palopó	9	San Antonio Palopo	7	Julio	2023-10-07T00:00:00	2024-11-08T15:00:00	4	Temperatura máxima	27.8
181999	7	Sololá	712	San Antonio Palopó	9	San Antonio Palopo	7	Julio	2023-10-07T00:00:00	2024-11-08T15:00:00	3	Temperatura mínima	26.2
182000	7	Sololá	712	San Antonio Palopó	9	San Antonio Palopo	7	Julio	2023-10-07T00:00:00	2024-11-08T15:00:00	5	Humedad	72
182001	7	Sololá	712	San Antonio Palopó	9	San Antonio Palopo	7	Julio	2023-10-07T00:00:00	2024-11-08T15:00:00	6	Velocidad del viento	8
182002	7	Sololá	712	San Antonio Palopó	9	San Antonio Palopo	7	Julio	2023-10-07T00:00:00	2024-11-08T15:00:00	7	Dirección del viento	8.05
182003	7	Sololá	712	San Antonio Palopó	9	San Antonio Palopo	7	Julio	2023-10-07T00:00:00	2024-11-08T15:00:00	1	Precipitación	0
182004	7	Sololá	712	San Antonio Palopó	9	San Antonio Palopo	7	Julio	2023-10-07T00:00:00	2024-11-08T15:00:00	8	Radiación solar	750
182005	7	Sololá	712	San Antonio Palopó	9	San Antonio Palopo	7	Julio	2023-10-07T00:00:00	2024-11-08T16:00:00	2	Temperatura media	23.2
182006	7	Sololá	712	San Antonio Palopó	9	San Antonio Palopo	7	Julio	2023-10-07T00:00:00	2024-11-08T16:00:00	4	Temperatura máxima	27.2
182007	7	Sololá	712	San Antonio Palopó	9	San Antonio Palopo	7	Julio	2023-10-07T00:00:00	2024-11-08T16:00:00	3	Temperatura mínima	23.2
182008	7	Sololá	712	San Antonio Palopó	9	San Antonio Palopo	7	Julio	2023-10-07T00:00:00	2024-11-08T16:00:00	5	Humedad	71
182009	7	Sololá	712	San Antonio Palopó	9	San Antonio Palopo	7	Julio	2023-10-07T00:00:00	2024-11-08T16:00:00	6	Velocidad del viento	6.4
182010	7	Sololá	712	San Antonio Palopó	9	San Antonio Palopo	7	Julio	2023-10-07T00:00:00	2024-11-08T16:00:00	7	Dirección del viento	6.44
182011	7	Sololá	712	San Antonio Palopó	9	San Antonio Palopo	7	Julio	2023-10-07T00:00:00	2024-11-08T16:00:00	1	Precipitación	0
182012	7	Sololá	712	San Antonio Palopó	9	San Antonio Palopo	7	Julio	2023-10-07T00:00:00	2024-11-08T16:00:00	8	Radiación solar	584
182013	7	Sololá	712	San Antonio Palopó	9	San Antonio Palopo	7	Julio	2023-10-07T00:00:00	2024-11-08T17:00:00	2	Temperatura media	22.9
182014	7	Sololá	712	San Antonio Palopó	9	San Antonio Palopo	7	Julio	2023-10-07T00:00:00	2024-11-08T17:00:00	4	Temperatura máxima	23.2
182015	7	Sololá	712	San Antonio Palopó	9	San Antonio Palopo	7	Julio	2023-10-07T00:00:00	2024-11-08T17:00:00	3	Temperatura mínima	22.9
182016	7	Sololá	712	San Antonio Palopó	9	San Antonio Palopo	7	Julio	2023-10-07T00:00:00	2024-11-08T17:00:00	5	Humedad	71
182017	7	Sololá	712	San Antonio Palopó	9	San Antonio Palopo	7	Julio	2023-10-07T00:00:00	2024-11-08T17:00:00	6	Velocidad del viento	6.4
182018	7	Sololá	712	San Antonio Palopó	9	San Antonio Palopo	7	Julio	2023-10-07T00:00:00	2024-11-08T17:00:00	7	Dirección del viento	6.44
182019	7	Sololá	712	San Antonio Palopó	9	San Antonio Palopo	7	Julio	2023-10-07T00:00:00	2024-11-08T17:00:00	1	Precipitación	0
182020	7	Sololá	712	San Antonio Palopó	9	San Antonio Palopo	7	Julio	2023-10-07T00:00:00	2024-11-08T17:00:00	8	Radiación solar	331
182021	7	Sololá	712	San Antonio Palopó	9	San Antonio Palopo	7	Julio	2023-10-07T00:00:00	2024-11-08T18:00:00	2	Temperatura media	21.8
182022	7	Sololá	712	San Antonio Palopó	9	San Antonio Palopo	7	Julio	2023-10-07T00:00:00	2024-11-08T18:00:00	4	Temperatura máxima	22.9
182023	7	Sololá	712	San Antonio Palopó	9	San Antonio Palopo	7	Julio	2023-10-07T00:00:00	2024-11-08T18:00:00	3	Temperatura mínima	21.7
182024	7	Sololá	712	San Antonio Palopó	9	San Antonio Palopo	7	Julio	2023-10-07T00:00:00	2024-11-08T18:00:00	5	Humedad	77
182025	7	Sololá	712	San Antonio Palopó	9	San Antonio Palopo	7	Julio	2023-10-07T00:00:00	2024-11-08T18:00:00	6	Velocidad del viento	1.6
182026	7	Sololá	712	San Antonio Palopó	9	San Antonio Palopo	7	Julio	2023-10-07T00:00:00	2024-11-08T18:00:00	7	Dirección del viento	1.61
182027	7	Sololá	712	San Antonio Palopó	9	San Antonio Palopo	7	Julio	2023-10-07T00:00:00	2024-11-08T18:00:00	1	Precipitación	0
182028	7	Sololá	712	San Antonio Palopó	9	San Antonio Palopo	7	Julio	2023-10-07T00:00:00	2024-11-08T18:00:00	8	Radiación solar	136
182029	7	Sololá	712	San Antonio Palopó	9	San Antonio Palopo	7	Julio	2023-10-07T00:00:00	2024-11-08T19:00:00	2	Temperatura media	21.4
182030	7	Sololá	712	San Antonio Palopó	9	San Antonio Palopo	7	Julio	2023-10-07T00:00:00	2024-11-08T19:00:00	4	Temperatura máxima	21.8
182031	7	Sololá	712	San Antonio Palopó	9	San Antonio Palopo	7	Julio	2023-10-07T00:00:00	2024-11-08T19:00:00	3	Temperatura mínima	21.3
182032	7	Sololá	712	San Antonio Palopó	9	San Antonio Palopo	7	Julio	2023-10-07T00:00:00	2024-11-08T19:00:00	5	Humedad	65
182033	7	Sololá	712	San Antonio Palopó	9	San Antonio Palopo	7	Julio	2023-10-07T00:00:00	2024-11-08T19:00:00	6	Velocidad del viento	3.2
182034	7	Sololá	712	San Antonio Palopó	9	San Antonio Palopo	7	Julio	2023-10-07T00:00:00	2024-11-08T19:00:00	7	Dirección del viento	3.22
182035	7	Sololá	712	San Antonio Palopó	9	San Antonio Palopo	7	Julio	2023-10-07T00:00:00	2024-11-08T19:00:00	1	Precipitación	0
182036	7	Sololá	712	San Antonio Palopó	9	San Antonio Palopo	7	Julio	2023-10-07T00:00:00	2024-11-08T19:00:00	8	Radiación solar	0
182037	7	Sololá	712	San Antonio Palopó	9	San Antonio Palopo	7	Julio	2023-10-07T00:00:00	2024-11-08T20:00:00	2	Temperatura media	18.2
182038	7	Sololá	712	San Antonio Palopó	9	San Antonio Palopo	7	Julio	2023-10-07T00:00:00	2024-11-08T20:00:00	4	Temperatura máxima	21.4
182039	7	Sololá	712	San Antonio Palopó	9	San Antonio Palopo	7	Julio	2023-10-07T00:00:00	2024-11-08T20:00:00	3	Temperatura mínima	18.2
182040	7	Sololá	712	San Antonio Palopó	9	San Antonio Palopo	7	Julio	2023-10-07T00:00:00	2024-11-08T20:00:00	5	Humedad	79
182041	7	Sololá	712	San Antonio Palopó	9	San Antonio Palopo	7	Julio	2023-10-07T00:00:00	2024-11-08T20:00:00	6	Velocidad del viento	17.7
182042	7	Sololá	712	San Antonio Palopó	9	San Antonio Palopo	7	Julio	2023-10-07T00:00:00	2024-11-08T20:00:00	7	Dirección del viento	17.7
182043	7	Sololá	712	San Antonio Palopó	9	San Antonio Palopo	7	Julio	2023-10-07T00:00:00	2024-11-08T20:00:00	1	Precipitación	1
182044	7	Sololá	712	San Antonio Palopó	9	San Antonio Palopo	7	Julio	2023-10-07T00:00:00	2024-11-08T20:00:00	8	Radiación solar	0
182045	7	Sololá	712	San Antonio Palopó	9	San Antonio Palopo	7	Julio	2023-10-07T00:00:00	2024-11-08T21:00:00	2	Temperatura media	19.3
182046	7	Sololá	712	San Antonio Palopó	9	San Antonio Palopo	7	Julio	2023-10-07T00:00:00	2024-11-08T21:00:00	4	Temperatura máxima	19.3
182047	7	Sololá	712	San Antonio Palopó	9	San Antonio Palopo	7	Julio	2023-10-07T00:00:00	2024-11-08T21:00:00	3	Temperatura mínima	18.2
182048	7	Sololá	712	San Antonio Palopó	9	San Antonio Palopo	7	Julio	2023-10-07T00:00:00	2024-11-08T21:00:00	5	Humedad	79
182049	7	Sololá	712	San Antonio Palopó	9	San Antonio Palopo	7	Julio	2023-10-07T00:00:00	2024-11-08T21:00:00	6	Velocidad del viento	20.9
182050	7	Sololá	712	San Antonio Palopó	9	San Antonio Palopo	7	Julio	2023-10-07T00:00:00	2024-11-08T21:00:00	7	Dirección del viento	20.92
182051	7	Sololá	712	San Antonio Palopó	9	San Antonio Palopo	7	Julio	2023-10-07T00:00:00	2024-11-08T21:00:00	1	Precipitación	0.8
182052	7	Sololá	712	San Antonio Palopó	9	San Antonio Palopo	7	Julio	2023-10-07T00:00:00	2024-11-08T21:00:00	8	Radiación solar	0
182053	7	Sololá	712	San Antonio Palopó	9	San Antonio Palopo	7	Julio	2023-10-07T00:00:00	2024-11-08T22:00:00	2	Temperatura media	19.8
182054	7	Sololá	712	San Antonio Palopó	9	San Antonio Palopo	7	Julio	2023-10-07T00:00:00	2024-11-08T22:00:00	4	Temperatura máxima	19.8
182055	7	Sololá	712	San Antonio Palopó	9	San Antonio Palopo	7	Julio	2023-10-07T00:00:00	2024-11-08T22:00:00	3	Temperatura mínima	19.3
182056	7	Sololá	712	San Antonio Palopó	9	San Antonio Palopo	7	Julio	2023-10-07T00:00:00	2024-11-08T22:00:00	5	Humedad	76
182057	7	Sololá	712	San Antonio Palopó	9	San Antonio Palopo	7	Julio	2023-10-07T00:00:00	2024-11-08T22:00:00	6	Velocidad del viento	14.5
182058	7	Sololá	712	San Antonio Palopó	9	San Antonio Palopo	7	Julio	2023-10-07T00:00:00	2024-11-08T22:00:00	7	Dirección del viento	14.48
182059	7	Sololá	712	San Antonio Palopó	9	San Antonio Palopo	7	Julio	2023-10-07T00:00:00	2024-11-08T22:00:00	1	Precipitación	0
182060	7	Sololá	712	San Antonio Palopó	9	San Antonio Palopo	7	Julio	2023-10-07T00:00:00	2024-11-08T22:00:00	8	Radiación solar	0
182061	7	Sololá	712	San Antonio Palopó	9	San Antonio Palopo	7	Julio	2023-10-07T00:00:00	2024-11-08T23:00:00	2	Temperatura media	20.6
182062	7	Sololá	712	San Antonio Palopó	9	San Antonio Palopo	7	Julio	2023-10-07T00:00:00	2024-11-08T23:00:00	4	Temperatura máxima	20.7
182063	7	Sololá	712	San Antonio Palopó	9	San Antonio Palopo	7	Julio	2023-10-07T00:00:00	2024-11-08T23:00:00	3	Temperatura mínima	19.8
182064	7	Sololá	712	San Antonio Palopó	9	San Antonio Palopo	7	Julio	2023-10-07T00:00:00	2024-11-08T23:00:00	5	Humedad	70
182065	7	Sololá	712	San Antonio Palopó	9	San Antonio Palopo	7	Julio	2023-10-07T00:00:00	2024-11-08T23:00:00	6	Velocidad del viento	8
182066	7	Sololá	712	San Antonio Palopó	9	San Antonio Palopo	7	Julio	2023-10-07T00:00:00	2024-11-08T23:00:00	7	Dirección del viento	8.05
182067	7	Sololá	712	San Antonio Palopó	9	San Antonio Palopo	7	Julio	2023-10-07T00:00:00	2024-11-08T23:00:00	1	Precipitación	0
182068	7	Sololá	712	San Antonio Palopó	9	San Antonio Palopo	7	Julio	2023-10-07T00:00:00	2024-11-08T23:00:00	8	Radiación solar	0
182069	7	Sololá	712	San Antonio Palopó	9	San Antonio Palopo	7	Julio	2023-11-07T00:00:00	2024-11-08T00:00:00	2	Temperatura media	20.8
182070	7	Sololá	712	San Antonio Palopó	9	San Antonio Palopo	7	Julio	2023-11-07T00:00:00	2024-11-08T00:00:00	4	Temperatura máxima	20.8
182071	7	Sololá	712	San Antonio Palopó	9	San Antonio Palopo	7	Julio	2023-11-07T00:00:00	2024-11-08T00:00:00	3	Temperatura mínima	20.3
182072	7	Sololá	712	San Antonio Palopó	9	San Antonio Palopo	7	Julio	2023-11-07T00:00:00	2024-11-08T00:00:00	5	Humedad	70
182073	7	Sololá	712	San Antonio Palopó	9	San Antonio Palopo	7	Julio	2023-11-07T00:00:00	2024-11-08T00:00:00	6	Velocidad del viento	9.7
182074	7	Sololá	712	San Antonio Palopó	9	San Antonio Palopo	7	Julio	2023-11-07T00:00:00	2024-11-08T00:00:00	7	Dirección del viento	9.66
182075	7	Sololá	712	San Antonio Palopó	9	San Antonio Palopo	7	Julio	2023-11-07T00:00:00	2024-11-08T00:00:00	1	Precipitación	0
182076	7	Sololá	712	San Antonio Palopó	9	San Antonio Palopo	7	Julio	2023-11-07T00:00:00	2024-11-08T00:00:00	8	Radiación solar	0
182077	7	Sololá	712	San Antonio Palopó	9	San Antonio Palopo	7	Julio	2023-11-07T00:00:00	2024-11-08T01:00:00	2	Temperatura media	20.6
182078	7	Sololá	712	San Antonio Palopó	9	San Antonio Palopo	7	Julio	2023-11-07T00:00:00	2024-11-08T01:00:00	4	Temperatura máxima	20.8
182079	7	Sololá	712	San Antonio Palopó	9	San Antonio Palopo	7	Julio	2023-11-07T00:00:00	2024-11-08T01:00:00	3	Temperatura mínima	20.2
182080	7	Sololá	712	San Antonio Palopó	9	San Antonio Palopo	7	Julio	2023-11-07T00:00:00	2024-11-08T01:00:00	5	Humedad	71
182081	7	Sololá	712	San Antonio Palopó	9	San Antonio Palopo	7	Julio	2023-11-07T00:00:00	2024-11-08T01:00:00	6	Velocidad del viento	9.7
182082	7	Sololá	712	San Antonio Palopó	9	San Antonio Palopo	7	Julio	2023-11-07T00:00:00	2024-11-08T01:00:00	7	Dirección del viento	9.66
182083	7	Sololá	712	San Antonio Palopó	9	San Antonio Palopo	7	Julio	2023-11-07T00:00:00	2024-11-08T01:00:00	1	Precipitación	0
182084	7	Sololá	712	San Antonio Palopó	9	San Antonio Palopo	7	Julio	2023-11-07T00:00:00	2024-11-08T01:00:00	8	Radiación solar	0
182085	7	Sololá	712	San Antonio Palopó	9	San Antonio Palopo	7	Julio	2023-11-07T00:00:00	2024-11-08T02:00:00	2	Temperatura media	20.3
182086	7	Sololá	712	San Antonio Palopó	9	San Antonio Palopo	7	Julio	2023-11-07T00:00:00	2024-11-08T02:00:00	4	Temperatura máxima	20.7
182087	7	Sololá	712	San Antonio Palopó	9	San Antonio Palopo	7	Julio	2023-11-07T00:00:00	2024-11-08T02:00:00	3	Temperatura mínima	20.3
182088	7	Sololá	712	San Antonio Palopó	9	San Antonio Palopo	7	Julio	2023-11-07T00:00:00	2024-11-08T02:00:00	5	Humedad	74
182089	7	Sololá	712	San Antonio Palopó	9	San Antonio Palopo	7	Julio	2023-11-07T00:00:00	2024-11-08T02:00:00	6	Velocidad del viento	6.4
182090	7	Sololá	712	San Antonio Palopó	9	San Antonio Palopo	7	Julio	2023-11-07T00:00:00	2024-11-08T02:00:00	7	Dirección del viento	6.44
182091	7	Sololá	712	San Antonio Palopó	9	San Antonio Palopo	7	Julio	2023-11-07T00:00:00	2024-11-08T02:00:00	1	Precipitación	0
182092	7	Sololá	712	San Antonio Palopó	9	San Antonio Palopo	7	Julio	2023-11-07T00:00:00	2024-11-08T02:00:00	8	Radiación solar	0
182093	7	Sololá	712	San Antonio Palopó	9	San Antonio Palopo	7	Julio	2023-11-07T00:00:00	2024-11-08T03:00:00	2	Temperatura media	20.1
182094	7	Sololá	712	San Antonio Palopó	9	San Antonio Palopo	7	Julio	2023-11-07T00:00:00	2024-11-08T03:00:00	4	Temperatura máxima	20.6
182095	7	Sololá	712	San Antonio Palopó	9	San Antonio Palopo	7	Julio	2023-11-07T00:00:00	2024-11-08T03:00:00	3	Temperatura mínima	20.1
182096	7	Sololá	712	San Antonio Palopó	9	San Antonio Palopo	7	Julio	2023-11-07T00:00:00	2024-11-08T03:00:00	5	Humedad	72
182097	7	Sololá	712	San Antonio Palopó	9	San Antonio Palopo	7	Julio	2023-11-07T00:00:00	2024-11-08T03:00:00	6	Velocidad del viento	12.9
182098	7	Sololá	712	San Antonio Palopó	9	San Antonio Palopo	7	Julio	2023-11-07T00:00:00	2024-11-08T03:00:00	7	Dirección del viento	12.87
182099	7	Sololá	712	San Antonio Palopó	9	San Antonio Palopo	7	Julio	2023-11-07T00:00:00	2024-11-08T03:00:00	1	Precipitación	0
182100	7	Sololá	712	San Antonio Palopó	9	San Antonio Palopo	7	Julio	2023-11-07T00:00:00	2024-11-08T03:00:00	8	Radiación solar	0
182101	7	Sololá	712	San Antonio Palopó	9	San Antonio Palopo	7	Julio	2023-11-07T00:00:00	2024-11-08T04:00:00	2	Temperatura media	19.9
182102	7	Sololá	712	San Antonio Palopó	9	San Antonio Palopo	7	Julio	2023-11-07T00:00:00	2024-11-08T04:00:00	4	Temperatura máxima	20.1
182103	7	Sololá	712	San Antonio Palopó	9	San Antonio Palopo	7	Julio	2023-11-07T00:00:00	2024-11-08T04:00:00	3	Temperatura mínima	19.7
182104	7	Sololá	712	San Antonio Palopó	9	San Antonio Palopo	7	Julio	2023-11-07T00:00:00	2024-11-08T04:00:00	5	Humedad	72
182105	7	Sololá	712	San Antonio Palopó	9	San Antonio Palopo	7	Julio	2023-11-07T00:00:00	2024-11-08T04:00:00	6	Velocidad del viento	14.5
182106	7	Sololá	712	San Antonio Palopó	9	San Antonio Palopo	7	Julio	2023-11-07T00:00:00	2024-11-08T04:00:00	7	Dirección del viento	14.48
182107	7	Sololá	712	San Antonio Palopó	9	San Antonio Palopo	7	Julio	2023-11-07T00:00:00	2024-11-08T04:00:00	1	Precipitación	0
182108	7	Sololá	712	San Antonio Palopó	9	San Antonio Palopo	7	Julio	2023-11-07T00:00:00	2024-11-08T04:00:00	8	Radiación solar	0
182109	7	Sololá	712	San Antonio Palopó	9	San Antonio Palopo	7	Julio	2023-11-07T00:00:00	2024-11-08T05:00:00	2	Temperatura media	20.1
182110	7	Sololá	712	San Antonio Palopó	9	San Antonio Palopo	7	Julio	2023-11-07T00:00:00	2024-11-08T05:00:00	4	Temperatura máxima	20.4
182111	7	Sololá	712	San Antonio Palopó	9	San Antonio Palopo	7	Julio	2023-11-07T00:00:00	2024-11-08T05:00:00	3	Temperatura mínima	19.9
182112	7	Sololá	712	San Antonio Palopó	9	San Antonio Palopo	7	Julio	2023-11-07T00:00:00	2024-11-08T05:00:00	5	Humedad	72
182113	7	Sololá	712	San Antonio Palopó	9	San Antonio Palopo	7	Julio	2023-11-07T00:00:00	2024-11-08T05:00:00	6	Velocidad del viento	14.5
182114	7	Sololá	712	San Antonio Palopó	9	San Antonio Palopo	7	Julio	2023-11-07T00:00:00	2024-11-08T05:00:00	7	Dirección del viento	14.48
182115	7	Sololá	712	San Antonio Palopó	9	San Antonio Palopo	7	Julio	2023-11-07T00:00:00	2024-11-08T05:00:00	1	Precipitación	0
182116	7	Sololá	712	San Antonio Palopó	9	San Antonio Palopo	7	Julio	2023-11-07T00:00:00	2024-11-08T05:00:00	8	Radiación solar	0
182117	7	Sololá	712	San Antonio Palopó	9	San Antonio Palopo	7	Julio	2023-11-07T00:00:00	2024-11-08T06:00:00	2	Temperatura media	19.7
182118	7	Sololá	712	San Antonio Palopó	9	San Antonio Palopo	7	Julio	2023-11-07T00:00:00	2024-11-08T06:00:00	4	Temperatura máxima	20.1
182119	7	Sololá	712	San Antonio Palopó	9	San Antonio Palopo	7	Julio	2023-11-07T00:00:00	2024-11-08T06:00:00	3	Temperatura mínima	19.7
182120	7	Sololá	712	San Antonio Palopó	9	San Antonio Palopo	7	Julio	2023-11-07T00:00:00	2024-11-08T06:00:00	5	Humedad	73
182121	7	Sololá	712	San Antonio Palopó	9	San Antonio Palopo	7	Julio	2023-11-07T00:00:00	2024-11-08T06:00:00	6	Velocidad del viento	11.3
182122	7	Sololá	712	San Antonio Palopó	9	San Antonio Palopo	7	Julio	2023-11-07T00:00:00	2024-11-08T06:00:00	7	Dirección del viento	11.27
182123	7	Sololá	712	San Antonio Palopó	9	San Antonio Palopo	7	Julio	2023-11-07T00:00:00	2024-11-08T06:00:00	1	Precipitación	0
182124	7	Sololá	712	San Antonio Palopó	9	San Antonio Palopo	7	Julio	2023-11-07T00:00:00	2024-11-08T06:00:00	8	Radiación solar	2
182125	7	Sololá	712	San Antonio Palopó	9	San Antonio Palopo	7	Julio	2023-11-07T00:00:00	2024-11-08T07:00:00	2	Temperatura media	20.6
182126	7	Sololá	712	San Antonio Palopó	9	San Antonio Palopo	7	Julio	2023-11-07T00:00:00	2024-11-08T07:00:00	4	Temperatura máxima	20.6
182127	7	Sololá	712	San Antonio Palopó	9	San Antonio Palopo	7	Julio	2023-11-07T00:00:00	2024-11-08T07:00:00	3	Temperatura mínima	19.6
182128	7	Sololá	712	San Antonio Palopó	9	San Antonio Palopo	7	Julio	2023-11-07T00:00:00	2024-11-08T07:00:00	5	Humedad	71
182129	7	Sololá	712	San Antonio Palopó	9	San Antonio Palopo	7	Julio	2023-11-07T00:00:00	2024-11-08T07:00:00	6	Velocidad del viento	8
182130	7	Sololá	712	San Antonio Palopó	9	San Antonio Palopo	7	Julio	2023-11-07T00:00:00	2024-11-08T07:00:00	7	Dirección del viento	8.05
182131	7	Sololá	712	San Antonio Palopó	9	San Antonio Palopo	7	Julio	2023-11-07T00:00:00	2024-11-08T07:00:00	1	Precipitación	0
182132	7	Sololá	712	San Antonio Palopó	9	San Antonio Palopo	7	Julio	2023-11-07T00:00:00	2024-11-08T07:00:00	8	Radiación solar	40
182133	7	Sololá	712	San Antonio Palopó	9	San Antonio Palopo	7	Julio	2023-11-07T00:00:00	2024-11-08T08:00:00	2	Temperatura media	21.7
182134	7	Sololá	712	San Antonio Palopó	9	San Antonio Palopo	7	Julio	2023-11-07T00:00:00	2024-11-08T08:00:00	4	Temperatura máxima	21.7
182135	7	Sololá	712	San Antonio Palopó	9	San Antonio Palopo	7	Julio	2023-11-07T00:00:00	2024-11-08T08:00:00	3	Temperatura mínima	20.6
182136	7	Sololá	712	San Antonio Palopó	9	San Antonio Palopo	7	Julio	2023-11-07T00:00:00	2024-11-08T08:00:00	5	Humedad	67
182137	7	Sololá	712	San Antonio Palopó	9	San Antonio Palopo	7	Julio	2023-11-07T00:00:00	2024-11-08T08:00:00	6	Velocidad del viento	8
182138	7	Sololá	712	San Antonio Palopó	9	San Antonio Palopo	7	Julio	2023-11-07T00:00:00	2024-11-08T08:00:00	7	Dirección del viento	8.05
182139	7	Sololá	712	San Antonio Palopó	9	San Antonio Palopo	7	Julio	2023-11-07T00:00:00	2024-11-08T08:00:00	1	Precipitación	0
182140	7	Sololá	712	San Antonio Palopó	9	San Antonio Palopo	7	Julio	2023-11-07T00:00:00	2024-11-08T08:00:00	8	Radiación solar	105
182141	7	Sololá	712	San Antonio Palopó	9	San Antonio Palopo	7	Julio	2023-11-07T00:00:00	2024-11-08T09:00:00	2	Temperatura media	22.8
182142	7	Sololá	712	San Antonio Palopó	9	San Antonio Palopo	7	Julio	2023-11-07T00:00:00	2024-11-08T09:00:00	4	Temperatura máxima	22.8
182143	7	Sololá	712	San Antonio Palopó	9	San Antonio Palopo	7	Julio	2023-11-07T00:00:00	2024-11-08T09:00:00	3	Temperatura mínima	21.6
182144	7	Sololá	712	San Antonio Palopó	9	San Antonio Palopo	7	Julio	2023-11-07T00:00:00	2024-11-08T09:00:00	5	Humedad	65
182145	7	Sololá	712	San Antonio Palopó	9	San Antonio Palopo	7	Julio	2023-11-07T00:00:00	2024-11-08T09:00:00	6	Velocidad del viento	4.8
182146	7	Sololá	712	San Antonio Palopó	9	San Antonio Palopo	7	Julio	2023-11-07T00:00:00	2024-11-08T09:00:00	7	Dirección del viento	4.83
182147	7	Sololá	712	San Antonio Palopó	9	San Antonio Palopo	7	Julio	2023-11-07T00:00:00	2024-11-08T09:00:00	1	Precipitación	0
182148	7	Sololá	712	San Antonio Palopó	9	San Antonio Palopo	7	Julio	2023-11-07T00:00:00	2024-11-08T09:00:00	8	Radiación solar	140
182149	7	Sololá	712	San Antonio Palopó	9	San Antonio Palopo	7	Julio	2023-11-07T00:00:00	2024-11-08T10:00:00	2	Temperatura media	25.1
182150	7	Sololá	712	San Antonio Palopó	9	San Antonio Palopo	7	Julio	2023-11-07T00:00:00	2024-11-08T10:00:00	4	Temperatura máxima	25.2
182151	7	Sololá	712	San Antonio Palopó	9	San Antonio Palopo	7	Julio	2023-11-07T00:00:00	2024-11-08T10:00:00	3	Temperatura mínima	22.8
182152	7	Sololá	712	San Antonio Palopó	9	San Antonio Palopo	7	Julio	2023-11-07T00:00:00	2024-11-08T10:00:00	5	Humedad	57
182153	7	Sololá	712	San Antonio Palopó	9	San Antonio Palopo	7	Julio	2023-11-07T00:00:00	2024-11-08T10:00:00	6	Velocidad del viento	6.4
182154	7	Sololá	712	San Antonio Palopó	9	San Antonio Palopo	7	Julio	2023-11-07T00:00:00	2024-11-08T10:00:00	7	Dirección del viento	6.44
182155	7	Sololá	712	San Antonio Palopó	9	San Antonio Palopo	7	Julio	2023-11-07T00:00:00	2024-11-08T10:00:00	1	Precipitación	0
182156	7	Sololá	712	San Antonio Palopó	9	San Antonio Palopo	7	Julio	2023-11-07T00:00:00	2024-11-08T10:00:00	8	Radiación solar	749
182157	7	Sololá	712	San Antonio Palopó	9	San Antonio Palopo	7	Julio	2023-11-07T00:00:00	2024-11-08T11:00:00	2	Temperatura media	25.9
182158	7	Sololá	712	San Antonio Palopó	9	San Antonio Palopo	7	Julio	2023-11-07T00:00:00	2024-11-08T11:00:00	4	Temperatura máxima	25.9
182159	7	Sololá	712	San Antonio Palopó	9	San Antonio Palopo	7	Julio	2023-11-07T00:00:00	2024-11-08T11:00:00	3	Temperatura mínima	24.8
182160	7	Sololá	712	San Antonio Palopó	9	San Antonio Palopo	7	Julio	2023-11-07T00:00:00	2024-11-08T11:00:00	5	Humedad	55
182161	7	Sololá	712	San Antonio Palopó	9	San Antonio Palopo	7	Julio	2023-11-07T00:00:00	2024-11-08T11:00:00	6	Velocidad del viento	6.4
182162	7	Sololá	712	San Antonio Palopó	9	San Antonio Palopo	7	Julio	2023-11-07T00:00:00	2024-11-08T11:00:00	7	Dirección del viento	6.44
182163	7	Sololá	712	San Antonio Palopó	9	San Antonio Palopo	7	Julio	2023-11-07T00:00:00	2024-11-08T11:00:00	1	Precipitación	0
182164	7	Sololá	712	San Antonio Palopó	9	San Antonio Palopo	7	Julio	2023-11-07T00:00:00	2024-11-08T11:00:00	8	Radiación solar	451
182165	7	Sololá	712	San Antonio Palopó	9	San Antonio Palopo	7	Julio	2023-11-07T00:00:00	2024-11-08T12:00:00	2	Temperatura media	27.6
182166	7	Sololá	712	San Antonio Palopó	9	San Antonio Palopo	7	Julio	2023-11-07T00:00:00	2024-11-08T12:00:00	4	Temperatura máxima	27.6
182167	7	Sololá	712	San Antonio Palopó	9	San Antonio Palopo	7	Julio	2023-11-07T00:00:00	2024-11-08T12:00:00	3	Temperatura mínima	25.8
182168	7	Sololá	712	San Antonio Palopó	9	San Antonio Palopo	7	Julio	2023-11-07T00:00:00	2024-11-08T12:00:00	5	Humedad	51
182169	7	Sololá	712	San Antonio Palopó	9	San Antonio Palopo	7	Julio	2023-11-07T00:00:00	2024-11-08T12:00:00	6	Velocidad del viento	6.4
182170	7	Sololá	712	San Antonio Palopó	9	San Antonio Palopo	7	Julio	2023-11-07T00:00:00	2024-11-08T12:00:00	7	Dirección del viento	6.44
182171	7	Sololá	712	San Antonio Palopó	9	San Antonio Palopo	7	Julio	2023-11-07T00:00:00	2024-11-08T12:00:00	1	Precipitación	0
182172	7	Sololá	712	San Antonio Palopó	9	San Antonio Palopo	7	Julio	2023-11-07T00:00:00	2024-11-08T12:00:00	8	Radiación solar	614
182173	7	Sololá	712	San Antonio Palopó	9	San Antonio Palopo	7	Julio	2023-11-07T00:00:00	2024-11-08T13:00:00	2	Temperatura media	27.4
182174	7	Sololá	712	San Antonio Palopó	9	San Antonio Palopo	7	Julio	2023-11-07T00:00:00	2024-11-08T13:00:00	4	Temperatura máxima	27.6
182175	7	Sololá	712	San Antonio Palopó	9	San Antonio Palopo	7	Julio	2023-11-07T00:00:00	2024-11-08T13:00:00	3	Temperatura mínima	26.9
182176	7	Sololá	712	San Antonio Palopó	9	San Antonio Palopo	7	Julio	2023-11-07T00:00:00	2024-11-08T13:00:00	5	Humedad	50
182177	7	Sololá	712	San Antonio Palopó	9	San Antonio Palopo	7	Julio	2023-11-07T00:00:00	2024-11-08T13:00:00	6	Velocidad del viento	9.7
182178	7	Sololá	712	San Antonio Palopó	9	San Antonio Palopo	7	Julio	2023-11-07T00:00:00	2024-11-08T13:00:00	7	Dirección del viento	9.66
182179	7	Sololá	712	San Antonio Palopó	9	San Antonio Palopo	7	Julio	2023-11-07T00:00:00	2024-11-08T13:00:00	1	Precipitación	0
182180	7	Sololá	712	San Antonio Palopó	9	San Antonio Palopo	7	Julio	2023-11-07T00:00:00	2024-11-08T13:00:00	8	Radiación solar	943
182181	7	Sololá	712	San Antonio Palopó	9	San Antonio Palopo	7	Julio	2023-11-07T00:00:00	2024-11-08T14:00:00	2	Temperatura media	28.1
182182	7	Sololá	712	San Antonio Palopó	9	San Antonio Palopo	7	Julio	2023-11-07T00:00:00	2024-11-08T14:00:00	4	Temperatura máxima	29
182183	7	Sololá	712	San Antonio Palopó	9	San Antonio Palopo	7	Julio	2023-11-07T00:00:00	2024-11-08T14:00:00	3	Temperatura mínima	27.4
182184	7	Sololá	712	San Antonio Palopó	9	San Antonio Palopo	7	Julio	2023-11-07T00:00:00	2024-11-08T14:00:00	5	Humedad	47
182185	7	Sololá	712	San Antonio Palopó	9	San Antonio Palopo	7	Julio	2023-11-07T00:00:00	2024-11-08T14:00:00	6	Velocidad del viento	8
182186	7	Sololá	712	San Antonio Palopó	9	San Antonio Palopo	7	Julio	2023-11-07T00:00:00	2024-11-08T14:00:00	7	Dirección del viento	8.05
182187	7	Sololá	712	San Antonio Palopó	9	San Antonio Palopo	7	Julio	2023-11-07T00:00:00	2024-11-08T14:00:00	1	Precipitación	0
182188	7	Sololá	712	San Antonio Palopó	9	San Antonio Palopo	7	Julio	2023-11-07T00:00:00	2024-11-08T14:00:00	8	Radiación solar	295
182189	7	Sololá	712	San Antonio Palopó	9	San Antonio Palopo	7	Julio	2023-11-07T00:00:00	2024-11-08T15:00:00	2	Temperatura media	28.9
182190	7	Sololá	712	San Antonio Palopó	9	San Antonio Palopo	7	Julio	2023-11-07T00:00:00	2024-11-08T15:00:00	4	Temperatura máxima	29
182191	7	Sololá	712	San Antonio Palopó	9	San Antonio Palopo	7	Julio	2023-11-07T00:00:00	2024-11-08T15:00:00	3	Temperatura mínima	27.9
182192	7	Sololá	712	San Antonio Palopó	9	San Antonio Palopo	7	Julio	2023-11-07T00:00:00	2024-11-08T15:00:00	5	Humedad	46
182193	7	Sololá	712	San Antonio Palopó	9	San Antonio Palopo	7	Julio	2023-11-07T00:00:00	2024-11-08T15:00:00	6	Velocidad del viento	8
182194	7	Sololá	712	San Antonio Palopó	9	San Antonio Palopo	7	Julio	2023-11-07T00:00:00	2024-11-08T15:00:00	7	Dirección del viento	8.05
182195	7	Sololá	712	San Antonio Palopó	9	San Antonio Palopo	7	Julio	2023-11-07T00:00:00	2024-11-08T15:00:00	1	Precipitación	0
182196	7	Sololá	712	San Antonio Palopó	9	San Antonio Palopo	7	Julio	2023-11-07T00:00:00	2024-11-08T15:00:00	8	Radiación solar	312
182197	7	Sololá	712	San Antonio Palopó	9	San Antonio Palopo	7	Julio	2023-11-07T00:00:00	2024-11-08T16:00:00	2	Temperatura media	28.4
182198	7	Sololá	712	San Antonio Palopó	9	San Antonio Palopo	7	Julio	2023-11-07T00:00:00	2024-11-08T16:00:00	4	Temperatura máxima	29.3
182199	7	Sololá	712	San Antonio Palopó	9	San Antonio Palopo	7	Julio	2023-11-07T00:00:00	2024-11-08T16:00:00	3	Temperatura mínima	28.2
182200	7	Sololá	712	San Antonio Palopó	9	San Antonio Palopo	7	Julio	2023-11-07T00:00:00	2024-11-08T16:00:00	5	Humedad	47
182201	7	Sololá	712	San Antonio Palopó	9	San Antonio Palopo	7	Julio	2023-11-07T00:00:00	2024-11-08T16:00:00	6	Velocidad del viento	8
182202	7	Sololá	712	San Antonio Palopó	9	San Antonio Palopo	7	Julio	2023-11-07T00:00:00	2024-11-08T16:00:00	7	Dirección del viento	8.05
182203	7	Sololá	712	San Antonio Palopó	9	San Antonio Palopo	7	Julio	2023-11-07T00:00:00	2024-11-08T16:00:00	1	Precipitación	0
182204	7	Sololá	712	San Antonio Palopó	9	San Antonio Palopo	7	Julio	2023-11-07T00:00:00	2024-11-08T16:00:00	8	Radiación solar	196
182205	7	Sololá	712	San Antonio Palopó	9	San Antonio Palopo	7	Julio	2023-11-07T00:00:00	2024-11-08T17:00:00	2	Temperatura media	26.7
182206	7	Sololá	712	San Antonio Palopó	9	San Antonio Palopo	7	Julio	2023-11-07T00:00:00	2024-11-08T17:00:00	4	Temperatura máxima	28.6
182207	7	Sololá	712	San Antonio Palopó	9	San Antonio Palopo	7	Julio	2023-11-07T00:00:00	2024-11-08T17:00:00	3	Temperatura mínima	26.7
182208	7	Sololá	712	San Antonio Palopó	9	San Antonio Palopo	7	Julio	2023-11-07T00:00:00	2024-11-08T17:00:00	5	Humedad	55
182209	7	Sololá	712	San Antonio Palopó	9	San Antonio Palopo	7	Julio	2023-11-07T00:00:00	2024-11-08T17:00:00	6	Velocidad del viento	6.4
182210	7	Sololá	712	San Antonio Palopó	9	San Antonio Palopo	7	Julio	2023-11-07T00:00:00	2024-11-08T17:00:00	7	Dirección del viento	6.44
182211	7	Sololá	712	San Antonio Palopó	9	San Antonio Palopo	7	Julio	2023-11-07T00:00:00	2024-11-08T17:00:00	1	Precipitación	0
182212	7	Sololá	712	San Antonio Palopó	9	San Antonio Palopo	7	Julio	2023-11-07T00:00:00	2024-11-08T17:00:00	8	Radiación solar	144
182213	7	Sololá	712	San Antonio Palopó	9	San Antonio Palopo	7	Julio	2023-11-07T00:00:00	2024-11-08T18:00:00	2	Temperatura media	24.6
182214	7	Sololá	712	San Antonio Palopó	9	San Antonio Palopo	7	Julio	2023-11-07T00:00:00	2024-11-08T18:00:00	4	Temperatura máxima	26.7
182215	7	Sololá	712	San Antonio Palopó	9	San Antonio Palopo	7	Julio	2023-11-07T00:00:00	2024-11-08T18:00:00	3	Temperatura mínima	24.6
182216	7	Sololá	712	San Antonio Palopó	9	San Antonio Palopo	7	Julio	2023-11-07T00:00:00	2024-11-08T18:00:00	5	Humedad	62
182217	7	Sololá	712	San Antonio Palopó	9	San Antonio Palopo	7	Julio	2023-11-07T00:00:00	2024-11-08T18:00:00	6	Velocidad del viento	3.2
182218	7	Sololá	712	San Antonio Palopó	9	San Antonio Palopo	7	Julio	2023-11-07T00:00:00	2024-11-08T18:00:00	7	Dirección del viento	3.22
182219	7	Sololá	712	San Antonio Palopó	9	San Antonio Palopo	7	Julio	2023-11-07T00:00:00	2024-11-08T18:00:00	1	Precipitación	0
182220	7	Sololá	712	San Antonio Palopó	9	San Antonio Palopo	7	Julio	2023-11-07T00:00:00	2024-11-08T18:00:00	8	Radiación solar	60
182221	7	Sololá	712	San Antonio Palopó	9	San Antonio Palopo	7	Julio	2023-11-07T00:00:00	2024-11-08T19:00:00	2	Temperatura media	23.2
182222	7	Sololá	712	San Antonio Palopó	9	San Antonio Palopo	7	Julio	2023-11-07T00:00:00	2024-11-08T19:00:00	4	Temperatura máxima	24.6
182223	7	Sololá	712	San Antonio Palopó	9	San Antonio Palopo	7	Julio	2023-11-07T00:00:00	2024-11-08T19:00:00	3	Temperatura mínima	23.1
182224	7	Sololá	712	San Antonio Palopó	9	San Antonio Palopo	7	Julio	2023-11-07T00:00:00	2024-11-08T19:00:00	5	Humedad	68
182225	7	Sololá	712	San Antonio Palopó	9	San Antonio Palopo	7	Julio	2023-11-07T00:00:00	2024-11-08T19:00:00	6	Velocidad del viento	3.2
182226	7	Sololá	712	San Antonio Palopó	9	San Antonio Palopo	7	Julio	2023-11-07T00:00:00	2024-11-08T19:00:00	7	Dirección del viento	3.22
182227	7	Sololá	712	San Antonio Palopó	9	San Antonio Palopo	7	Julio	2023-11-07T00:00:00	2024-11-08T19:00:00	1	Precipitación	0
182228	7	Sololá	712	San Antonio Palopó	9	San Antonio Palopo	7	Julio	2023-11-07T00:00:00	2024-11-08T19:00:00	8	Radiación solar	0
182229	7	Sololá	712	San Antonio Palopó	9	San Antonio Palopo	7	Julio	2023-11-07T00:00:00	2024-11-08T20:00:00	2	Temperatura media	22.2
182230	7	Sololá	712	San Antonio Palopó	9	San Antonio Palopo	7	Julio	2023-11-07T00:00:00	2024-11-08T20:00:00	4	Temperatura máxima	23.2
182231	7	Sololá	712	San Antonio Palopó	9	San Antonio Palopo	7	Julio	2023-11-07T00:00:00	2024-11-08T20:00:00	3	Temperatura mínima	22.2
182232	7	Sololá	712	San Antonio Palopó	9	San Antonio Palopo	7	Julio	2023-11-07T00:00:00	2024-11-08T20:00:00	5	Humedad	70
182233	7	Sololá	712	San Antonio Palopó	9	San Antonio Palopo	7	Julio	2023-11-07T00:00:00	2024-11-08T20:00:00	6	Velocidad del viento	6.4
182234	7	Sololá	712	San Antonio Palopó	9	San Antonio Palopo	7	Julio	2023-11-07T00:00:00	2024-11-08T20:00:00	7	Dirección del viento	6.44
182235	7	Sololá	712	San Antonio Palopó	9	San Antonio Palopo	7	Julio	2023-11-07T00:00:00	2024-11-08T20:00:00	1	Precipitación	0
182236	7	Sololá	712	San Antonio Palopó	9	San Antonio Palopo	7	Julio	2023-11-07T00:00:00	2024-11-08T20:00:00	8	Radiación solar	0
182237	7	Sololá	712	San Antonio Palopó	9	San Antonio Palopo	7	Julio	2023-11-07T00:00:00	2024-11-08T21:00:00	2	Temperatura media	21.4
182238	7	Sololá	712	San Antonio Palopó	9	San Antonio Palopo	7	Julio	2023-11-07T00:00:00	2024-11-08T21:00:00	4	Temperatura máxima	22.2
182239	7	Sololá	712	San Antonio Palopó	9	San Antonio Palopo	7	Julio	2023-11-07T00:00:00	2024-11-08T21:00:00	3	Temperatura mínima	21.3
182240	7	Sololá	712	San Antonio Palopó	9	San Antonio Palopo	7	Julio	2023-11-07T00:00:00	2024-11-08T21:00:00	5	Humedad	72
182241	7	Sololá	712	San Antonio Palopó	9	San Antonio Palopo	7	Julio	2023-11-07T00:00:00	2024-11-08T21:00:00	6	Velocidad del viento	4.8
182242	7	Sololá	712	San Antonio Palopó	9	San Antonio Palopo	7	Julio	2023-11-07T00:00:00	2024-11-08T21:00:00	7	Dirección del viento	4.83
182243	7	Sololá	712	San Antonio Palopó	9	San Antonio Palopo	7	Julio	2023-11-07T00:00:00	2024-11-08T21:00:00	1	Precipitación	0
182244	7	Sololá	712	San Antonio Palopó	9	San Antonio Palopo	7	Julio	2023-11-07T00:00:00	2024-11-08T21:00:00	8	Radiación solar	0
182245	7	Sololá	712	San Antonio Palopó	9	San Antonio Palopo	7	Julio	2023-11-07T00:00:00	2024-11-08T22:00:00	2	Temperatura media	21.6
182246	7	Sololá	712	San Antonio Palopó	9	San Antonio Palopo	7	Julio	2023-11-07T00:00:00	2024-11-08T22:00:00	4	Temperatura máxima	21.6
182247	7	Sololá	712	San Antonio Palopó	9	San Antonio Palopo	7	Julio	2023-11-07T00:00:00	2024-11-08T22:00:00	3	Temperatura mínima	21.3
182248	7	Sololá	712	San Antonio Palopó	9	San Antonio Palopo	7	Julio	2023-11-07T00:00:00	2024-11-08T22:00:00	5	Humedad	69
182249	7	Sololá	712	San Antonio Palopó	9	San Antonio Palopo	7	Julio	2023-11-07T00:00:00	2024-11-08T22:00:00	6	Velocidad del viento	8
182250	7	Sololá	712	San Antonio Palopó	9	San Antonio Palopo	7	Julio	2023-11-07T00:00:00	2024-11-08T22:00:00	7	Dirección del viento	8.05
182251	7	Sololá	712	San Antonio Palopó	9	San Antonio Palopo	7	Julio	2023-11-07T00:00:00	2024-11-08T22:00:00	1	Precipitación	0
182252	7	Sololá	712	San Antonio Palopó	9	San Antonio Palopo	7	Julio	2023-11-07T00:00:00	2024-11-08T22:00:00	8	Radiación solar	0
182253	7	Sololá	712	San Antonio Palopó	9	San Antonio Palopo	7	Julio	2023-11-07T00:00:00	2024-11-08T23:00:00	2	Temperatura media	21.4
182254	7	Sololá	712	San Antonio Palopó	9	San Antonio Palopo	7	Julio	2023-11-07T00:00:00	2024-11-08T23:00:00	4	Temperatura máxima	21.6
182255	7	Sololá	712	San Antonio Palopó	9	San Antonio Palopo	7	Julio	2023-11-07T00:00:00	2024-11-08T23:00:00	3	Temperatura mínima	21.4
182256	7	Sololá	712	San Antonio Palopó	9	San Antonio Palopo	7	Julio	2023-11-07T00:00:00	2024-11-08T23:00:00	5	Humedad	69
182257	7	Sololá	712	San Antonio Palopó	9	San Antonio Palopo	7	Julio	2023-11-07T00:00:00	2024-11-08T23:00:00	6	Velocidad del viento	6.4
182258	7	Sololá	712	San Antonio Palopó	9	San Antonio Palopo	7	Julio	2023-11-07T00:00:00	2024-11-08T23:00:00	7	Dirección del viento	6.44
182259	7	Sololá	712	San Antonio Palopó	9	San Antonio Palopo	7	Julio	2023-11-07T00:00:00	2024-11-08T23:00:00	1	Precipitación	0
182260	7	Sololá	712	San Antonio Palopó	9	San Antonio Palopo	7	Julio	2023-11-07T00:00:00	2024-11-08T23:00:00	8	Radiación solar	0
182261	7	Sololá	712	San Antonio Palopó	9	San Antonio Palopo	7	Julio	2023-12-07T00:00:00	2024-11-08T00:00:00	2	Temperatura media	21.1
182262	7	Sololá	712	San Antonio Palopó	9	San Antonio Palopo	7	Julio	2023-12-07T00:00:00	2024-11-08T00:00:00	4	Temperatura máxima	21.5
182263	7	Sololá	712	San Antonio Palopó	9	San Antonio Palopo	7	Julio	2023-12-07T00:00:00	2024-11-08T00:00:00	3	Temperatura mínima	21
182264	7	Sololá	712	San Antonio Palopó	9	San Antonio Palopo	7	Julio	2023-12-07T00:00:00	2024-11-08T00:00:00	5	Humedad	69
182265	7	Sololá	712	San Antonio Palopó	9	San Antonio Palopo	7	Julio	2023-12-07T00:00:00	2024-11-08T00:00:00	6	Velocidad del viento	11.3
182266	7	Sololá	712	San Antonio Palopó	9	San Antonio Palopo	7	Julio	2023-12-07T00:00:00	2024-11-08T00:00:00	7	Dirección del viento	11.27
182267	7	Sololá	712	San Antonio Palopó	9	San Antonio Palopo	7	Julio	2023-12-07T00:00:00	2024-11-08T00:00:00	1	Precipitación	0
182268	7	Sololá	712	San Antonio Palopó	9	San Antonio Palopo	7	Julio	2023-12-07T00:00:00	2024-11-08T00:00:00	8	Radiación solar	0
182269	7	Sololá	712	San Antonio Palopó	9	San Antonio Palopo	7	Julio	2023-12-07T00:00:00	2024-11-08T01:00:00	2	Temperatura media	20.8
182270	7	Sololá	712	San Antonio Palopó	9	San Antonio Palopo	7	Julio	2023-12-07T00:00:00	2024-11-08T01:00:00	4	Temperatura máxima	21.2
182271	7	Sololá	712	San Antonio Palopó	9	San Antonio Palopo	7	Julio	2023-12-07T00:00:00	2024-11-08T01:00:00	3	Temperatura mínima	20.8
182272	7	Sololá	712	San Antonio Palopó	9	San Antonio Palopo	7	Julio	2023-12-07T00:00:00	2024-11-08T01:00:00	5	Humedad	69
182273	7	Sololá	712	San Antonio Palopó	9	San Antonio Palopo	7	Julio	2023-12-07T00:00:00	2024-11-08T01:00:00	6	Velocidad del viento	6.4
182274	7	Sololá	712	San Antonio Palopó	9	San Antonio Palopo	7	Julio	2023-12-07T00:00:00	2024-11-08T01:00:00	7	Dirección del viento	6.44
182275	7	Sololá	712	San Antonio Palopó	9	San Antonio Palopo	7	Julio	2023-12-07T00:00:00	2024-11-08T01:00:00	1	Precipitación	0
182276	7	Sololá	712	San Antonio Palopó	9	San Antonio Palopo	7	Julio	2023-12-07T00:00:00	2024-11-08T01:00:00	8	Radiación solar	0
182277	7	Sololá	712	San Antonio Palopó	9	San Antonio Palopo	7	Julio	2023-12-07T00:00:00	2024-11-08T02:00:00	2	Temperatura media	20.6
182278	7	Sololá	712	San Antonio Palopó	9	San Antonio Palopo	7	Julio	2023-12-07T00:00:00	2024-11-08T02:00:00	4	Temperatura máxima	21.1
182279	7	Sololá	712	San Antonio Palopó	9	San Antonio Palopo	7	Julio	2023-12-07T00:00:00	2024-11-08T02:00:00	3	Temperatura mínima	20.5
182280	7	Sololá	712	San Antonio Palopó	9	San Antonio Palopo	7	Julio	2023-12-07T00:00:00	2024-11-08T02:00:00	5	Humedad	69
182281	7	Sololá	712	San Antonio Palopó	9	San Antonio Palopo	7	Julio	2023-12-07T00:00:00	2024-11-08T02:00:00	6	Velocidad del viento	4.8
182282	7	Sololá	712	San Antonio Palopó	9	San Antonio Palopo	7	Julio	2023-12-07T00:00:00	2024-11-08T02:00:00	7	Dirección del viento	4.83
182283	7	Sololá	712	San Antonio Palopó	9	San Antonio Palopo	7	Julio	2023-12-07T00:00:00	2024-11-08T02:00:00	1	Precipitación	0
182284	7	Sololá	712	San Antonio Palopó	9	San Antonio Palopo	7	Julio	2023-12-07T00:00:00	2024-11-08T02:00:00	8	Radiación solar	0
182285	7	Sololá	712	San Antonio Palopó	9	San Antonio Palopo	7	Julio	2023-12-07T00:00:00	2024-11-08T03:00:00	2	Temperatura media	20.3
182286	7	Sololá	712	San Antonio Palopó	9	San Antonio Palopo	7	Julio	2023-12-07T00:00:00	2024-11-08T03:00:00	4	Temperatura máxima	20.5
182287	7	Sololá	712	San Antonio Palopó	9	San Antonio Palopo	7	Julio	2023-12-07T00:00:00	2024-11-08T03:00:00	3	Temperatura mínima	20.1
182288	7	Sololá	712	San Antonio Palopó	9	San Antonio Palopo	7	Julio	2023-12-07T00:00:00	2024-11-08T03:00:00	5	Humedad	69
182289	7	Sololá	712	San Antonio Palopó	9	San Antonio Palopo	7	Julio	2023-12-07T00:00:00	2024-11-08T03:00:00	6	Velocidad del viento	6.4
182290	7	Sololá	712	San Antonio Palopó	9	San Antonio Palopo	7	Julio	2023-12-07T00:00:00	2024-11-08T03:00:00	7	Dirección del viento	6.44
182291	7	Sololá	712	San Antonio Palopó	9	San Antonio Palopo	7	Julio	2023-12-07T00:00:00	2024-11-08T03:00:00	1	Precipitación	0
182292	7	Sololá	712	San Antonio Palopó	9	San Antonio Palopo	7	Julio	2023-12-07T00:00:00	2024-11-08T03:00:00	8	Radiación solar	0
182293	7	Sololá	712	San Antonio Palopó	9	San Antonio Palopo	7	Julio	2023-12-07T00:00:00	2024-11-08T04:00:00	2	Temperatura media	20.7
182294	7	Sololá	712	San Antonio Palopó	9	San Antonio Palopo	7	Julio	2023-12-07T00:00:00	2024-11-08T04:00:00	4	Temperatura máxima	20.8
182295	7	Sololá	712	San Antonio Palopó	9	San Antonio Palopo	7	Julio	2023-12-07T00:00:00	2024-11-08T04:00:00	3	Temperatura mínima	20.4
182296	7	Sololá	712	San Antonio Palopó	9	San Antonio Palopo	7	Julio	2023-12-07T00:00:00	2024-11-08T04:00:00	5	Humedad	68
182297	7	Sololá	712	San Antonio Palopó	9	San Antonio Palopo	7	Julio	2023-12-07T00:00:00	2024-11-08T04:00:00	6	Velocidad del viento	4.8
182298	7	Sololá	712	San Antonio Palopó	9	San Antonio Palopo	7	Julio	2023-12-07T00:00:00	2024-11-08T04:00:00	7	Dirección del viento	4.83
182299	7	Sololá	712	San Antonio Palopó	9	San Antonio Palopo	7	Julio	2023-12-07T00:00:00	2024-11-08T04:00:00	1	Precipitación	0
182300	7	Sololá	712	San Antonio Palopó	9	San Antonio Palopo	7	Julio	2023-12-07T00:00:00	2024-11-08T04:00:00	8	Radiación solar	0
182301	7	Sololá	712	San Antonio Palopó	9	San Antonio Palopo	7	Julio	2023-12-07T00:00:00	2024-11-08T05:00:00	2	Temperatura media	20.8
182302	7	Sololá	712	San Antonio Palopó	9	San Antonio Palopo	7	Julio	2023-12-07T00:00:00	2024-11-08T05:00:00	4	Temperatura máxima	20.8
182303	7	Sololá	712	San Antonio Palopó	9	San Antonio Palopo	7	Julio	2023-12-07T00:00:00	2024-11-08T05:00:00	3	Temperatura mínima	20.2
182304	7	Sololá	712	San Antonio Palopó	9	San Antonio Palopo	7	Julio	2023-12-07T00:00:00	2024-11-08T05:00:00	5	Humedad	70
182305	7	Sololá	712	San Antonio Palopó	9	San Antonio Palopo	7	Julio	2023-12-07T00:00:00	2024-11-08T05:00:00	6	Velocidad del viento	4.8
182306	7	Sololá	712	San Antonio Palopó	9	San Antonio Palopo	7	Julio	2023-12-07T00:00:00	2024-11-08T05:00:00	7	Dirección del viento	4.83
182307	7	Sololá	712	San Antonio Palopó	9	San Antonio Palopo	7	Julio	2023-12-07T00:00:00	2024-11-08T05:00:00	1	Precipitación	0
182308	7	Sololá	712	San Antonio Palopó	9	San Antonio Palopo	7	Julio	2023-12-07T00:00:00	2024-11-08T05:00:00	8	Radiación solar	0
182309	7	Sololá	712	San Antonio Palopó	9	San Antonio Palopo	7	Julio	2023-12-07T00:00:00	2024-11-08T06:00:00	2	Temperatura media	20.7
182310	7	Sololá	712	San Antonio Palopó	9	San Antonio Palopo	7	Julio	2023-12-07T00:00:00	2024-11-08T06:00:00	4	Temperatura máxima	20.8
182311	7	Sololá	712	San Antonio Palopó	9	San Antonio Palopo	7	Julio	2023-12-07T00:00:00	2024-11-08T06:00:00	3	Temperatura mínima	20.4
182312	7	Sololá	712	San Antonio Palopó	9	San Antonio Palopo	7	Julio	2023-12-07T00:00:00	2024-11-08T06:00:00	5	Humedad	70
182313	7	Sololá	712	San Antonio Palopó	9	San Antonio Palopo	7	Julio	2023-12-07T00:00:00	2024-11-08T06:00:00	6	Velocidad del viento	8
182314	7	Sololá	712	San Antonio Palopó	9	San Antonio Palopo	7	Julio	2023-12-07T00:00:00	2024-11-08T06:00:00	7	Dirección del viento	8.05
182315	7	Sololá	712	San Antonio Palopó	9	San Antonio Palopo	7	Julio	2023-12-07T00:00:00	2024-11-08T06:00:00	1	Precipitación	0
182316	7	Sololá	712	San Antonio Palopó	9	San Antonio Palopo	7	Julio	2023-12-07T00:00:00	2024-11-08T06:00:00	8	Radiación solar	2
182317	7	Sololá	712	San Antonio Palopó	9	San Antonio Palopo	7	Julio	2023-12-07T00:00:00	2024-11-08T07:00:00	2	Temperatura media	20.9
182318	7	Sololá	712	San Antonio Palopó	9	San Antonio Palopo	7	Julio	2023-12-07T00:00:00	2024-11-08T07:00:00	4	Temperatura máxima	21
182319	7	Sololá	712	San Antonio Palopó	9	San Antonio Palopo	7	Julio	2023-12-07T00:00:00	2024-11-08T07:00:00	3	Temperatura mínima	20.6
182320	7	Sololá	712	San Antonio Palopó	9	San Antonio Palopo	7	Julio	2023-12-07T00:00:00	2024-11-08T07:00:00	5	Humedad	67
182321	7	Sololá	712	San Antonio Palopó	9	San Antonio Palopo	7	Julio	2023-12-07T00:00:00	2024-11-08T07:00:00	6	Velocidad del viento	9.7
182322	7	Sololá	712	San Antonio Palopó	9	San Antonio Palopo	7	Julio	2023-12-07T00:00:00	2024-11-08T07:00:00	7	Dirección del viento	9.66
182323	7	Sololá	712	San Antonio Palopó	9	San Antonio Palopo	7	Julio	2023-12-07T00:00:00	2024-11-08T07:00:00	1	Precipitación	0
182324	7	Sololá	712	San Antonio Palopó	9	San Antonio Palopo	7	Julio	2023-12-07T00:00:00	2024-11-08T07:00:00	8	Radiación solar	48
182325	7	Sololá	712	San Antonio Palopó	9	San Antonio Palopo	7	Julio	2023-12-07T00:00:00	2024-11-08T08:00:00	2	Temperatura media	22.3
182326	7	Sololá	712	San Antonio Palopó	9	San Antonio Palopo	7	Julio	2023-12-07T00:00:00	2024-11-08T08:00:00	4	Temperatura máxima	22.3
182327	7	Sololá	712	San Antonio Palopó	9	San Antonio Palopo	7	Julio	2023-12-07T00:00:00	2024-11-08T08:00:00	3	Temperatura mínima	20.9
182328	7	Sololá	712	San Antonio Palopó	9	San Antonio Palopo	7	Julio	2023-12-07T00:00:00	2024-11-08T08:00:00	5	Humedad	64
182329	7	Sololá	712	San Antonio Palopó	9	San Antonio Palopo	7	Julio	2023-12-07T00:00:00	2024-11-08T08:00:00	6	Velocidad del viento	4.8
182330	7	Sololá	712	San Antonio Palopó	9	San Antonio Palopo	7	Julio	2023-12-07T00:00:00	2024-11-08T08:00:00	7	Dirección del viento	4.83
182331	7	Sololá	712	San Antonio Palopó	9	San Antonio Palopo	7	Julio	2023-12-07T00:00:00	2024-11-08T08:00:00	1	Precipitación	0
182332	7	Sololá	712	San Antonio Palopó	9	San Antonio Palopo	7	Julio	2023-12-07T00:00:00	2024-11-08T08:00:00	8	Radiación solar	115
182333	7	Sololá	712	San Antonio Palopó	9	San Antonio Palopo	7	Julio	2023-12-07T00:00:00	2024-11-08T09:00:00	2	Temperatura media	23.7
182334	7	Sololá	712	San Antonio Palopó	9	San Antonio Palopo	7	Julio	2023-12-07T00:00:00	2024-11-08T09:00:00	4	Temperatura máxima	23.7
182335	7	Sololá	712	San Antonio Palopó	9	San Antonio Palopo	7	Julio	2023-12-07T00:00:00	2024-11-08T09:00:00	3	Temperatura mínima	22.3
182336	7	Sololá	712	San Antonio Palopó	9	San Antonio Palopo	7	Julio	2023-12-07T00:00:00	2024-11-08T09:00:00	5	Humedad	61
182337	7	Sololá	712	San Antonio Palopó	9	San Antonio Palopo	7	Julio	2023-12-07T00:00:00	2024-11-08T09:00:00	6	Velocidad del viento	4.8
182338	7	Sololá	712	San Antonio Palopó	9	San Antonio Palopo	7	Julio	2023-12-07T00:00:00	2024-11-08T09:00:00	7	Dirección del viento	4.83
182339	7	Sololá	712	San Antonio Palopó	9	San Antonio Palopo	7	Julio	2023-12-07T00:00:00	2024-11-08T09:00:00	1	Precipitación	0
182340	7	Sololá	712	San Antonio Palopó	9	San Antonio Palopo	7	Julio	2023-12-07T00:00:00	2024-11-08T09:00:00	8	Radiación solar	499
182341	7	Sololá	712	San Antonio Palopó	9	San Antonio Palopo	7	Julio	2023-12-07T00:00:00	2024-11-08T10:00:00	2	Temperatura media	24.8
182342	7	Sololá	712	San Antonio Palopó	9	San Antonio Palopo	7	Julio	2023-12-07T00:00:00	2024-11-08T10:00:00	4	Temperatura máxima	24.8
182343	7	Sololá	712	San Antonio Palopó	9	San Antonio Palopo	7	Julio	2023-12-07T00:00:00	2024-11-08T10:00:00	3	Temperatura mínima	23.7
182344	7	Sololá	712	San Antonio Palopó	9	San Antonio Palopo	7	Julio	2023-12-07T00:00:00	2024-11-08T10:00:00	5	Humedad	56
182345	7	Sololá	712	San Antonio Palopó	9	San Antonio Palopo	7	Julio	2023-12-07T00:00:00	2024-11-08T10:00:00	6	Velocidad del viento	4.8
182346	7	Sololá	712	San Antonio Palopó	9	San Antonio Palopo	7	Julio	2023-12-07T00:00:00	2024-11-08T10:00:00	7	Dirección del viento	4.83
182347	7	Sololá	712	San Antonio Palopó	9	San Antonio Palopo	7	Julio	2023-12-07T00:00:00	2024-11-08T10:00:00	1	Precipitación	0
182348	7	Sololá	712	San Antonio Palopó	9	San Antonio Palopo	7	Julio	2023-12-07T00:00:00	2024-11-08T10:00:00	8	Radiación solar	698
182349	7	Sololá	712	San Antonio Palopó	9	San Antonio Palopo	7	Julio	2023-12-07T00:00:00	2024-11-08T11:00:00	2	Temperatura media	25.9
182350	7	Sololá	712	San Antonio Palopó	9	San Antonio Palopo	7	Julio	2023-12-07T00:00:00	2024-11-08T11:00:00	4	Temperatura máxima	26.2
182351	7	Sololá	712	San Antonio Palopó	9	San Antonio Palopo	7	Julio	2023-12-07T00:00:00	2024-11-08T11:00:00	3	Temperatura mínima	24.8
182352	7	Sololá	712	San Antonio Palopó	9	San Antonio Palopo	7	Julio	2023-12-07T00:00:00	2024-11-08T11:00:00	5	Humedad	55
182353	7	Sololá	712	San Antonio Palopó	9	San Antonio Palopo	7	Julio	2023-12-07T00:00:00	2024-11-08T11:00:00	6	Velocidad del viento	6.4
182354	7	Sololá	712	San Antonio Palopó	9	San Antonio Palopo	7	Julio	2023-12-07T00:00:00	2024-11-08T11:00:00	7	Dirección del viento	6.44
182355	7	Sololá	712	San Antonio Palopó	9	San Antonio Palopo	7	Julio	2023-12-07T00:00:00	2024-11-08T11:00:00	1	Precipitación	0
182356	7	Sololá	712	San Antonio Palopó	9	San Antonio Palopo	7	Julio	2023-12-07T00:00:00	2024-11-08T11:00:00	8	Radiación solar	810
182357	7	Sololá	712	San Antonio Palopó	9	San Antonio Palopo	7	Julio	2023-12-07T00:00:00	2024-11-08T12:00:00	2	Temperatura media	26.2
182358	7	Sololá	712	San Antonio Palopó	9	San Antonio Palopo	7	Julio	2023-12-07T00:00:00	2024-11-08T12:00:00	4	Temperatura máxima	27.6
182359	7	Sololá	712	San Antonio Palopó	9	San Antonio Palopo	7	Julio	2023-12-07T00:00:00	2024-11-08T12:00:00	3	Temperatura mínima	25.9
182360	7	Sololá	712	San Antonio Palopó	9	San Antonio Palopo	7	Julio	2023-12-07T00:00:00	2024-11-08T12:00:00	5	Humedad	52
182361	7	Sololá	712	San Antonio Palopó	9	San Antonio Palopo	7	Julio	2023-12-07T00:00:00	2024-11-08T12:00:00	6	Velocidad del viento	8
182362	7	Sololá	712	San Antonio Palopó	9	San Antonio Palopo	7	Julio	2023-12-07T00:00:00	2024-11-08T12:00:00	7	Dirección del viento	8.05
182363	7	Sololá	712	San Antonio Palopó	9	San Antonio Palopo	7	Julio	2023-12-07T00:00:00	2024-11-08T12:00:00	1	Precipitación	0
182364	7	Sololá	712	San Antonio Palopó	9	San Antonio Palopo	7	Julio	2023-12-07T00:00:00	2024-11-08T12:00:00	8	Radiación solar	858
182365	7	Sololá	712	San Antonio Palopó	9	San Antonio Palopo	7	Julio	2023-12-07T00:00:00	2024-11-08T13:00:00	2	Temperatura media	28.4
182366	7	Sololá	712	San Antonio Palopó	9	San Antonio Palopo	7	Julio	2023-12-07T00:00:00	2024-11-08T13:00:00	4	Temperatura máxima	28.6
182367	7	Sololá	712	San Antonio Palopó	9	San Antonio Palopo	7	Julio	2023-12-07T00:00:00	2024-11-08T13:00:00	3	Temperatura mínima	26.2
182368	7	Sololá	712	San Antonio Palopó	9	San Antonio Palopo	7	Julio	2023-12-07T00:00:00	2024-11-08T13:00:00	5	Humedad	46
182369	7	Sololá	712	San Antonio Palopó	9	San Antonio Palopo	7	Julio	2023-12-07T00:00:00	2024-11-08T13:00:00	6	Velocidad del viento	6.4
182370	7	Sololá	712	San Antonio Palopó	9	San Antonio Palopo	7	Julio	2023-12-07T00:00:00	2024-11-08T13:00:00	7	Dirección del viento	6.44
182371	7	Sololá	712	San Antonio Palopó	9	San Antonio Palopo	7	Julio	2023-12-07T00:00:00	2024-11-08T13:00:00	1	Precipitación	0
182372	7	Sololá	712	San Antonio Palopó	9	San Antonio Palopo	7	Julio	2023-12-07T00:00:00	2024-11-08T13:00:00	8	Radiación solar	986
182373	7	Sololá	712	San Antonio Palopó	9	San Antonio Palopo	7	Julio	2023-12-07T00:00:00	2024-11-08T14:00:00	2	Temperatura media	27.8
182374	7	Sololá	712	San Antonio Palopó	9	San Antonio Palopo	7	Julio	2023-12-07T00:00:00	2024-11-08T14:00:00	4	Temperatura máxima	28.4
182375	7	Sololá	712	San Antonio Palopó	9	San Antonio Palopo	7	Julio	2023-12-07T00:00:00	2024-11-08T14:00:00	3	Temperatura mínima	27.6
182376	7	Sololá	712	San Antonio Palopó	9	San Antonio Palopo	7	Julio	2023-12-07T00:00:00	2024-11-08T14:00:00	5	Humedad	48
182377	7	Sololá	712	San Antonio Palopó	9	San Antonio Palopo	7	Julio	2023-12-07T00:00:00	2024-11-08T14:00:00	6	Velocidad del viento	8
182378	7	Sololá	712	San Antonio Palopó	9	San Antonio Palopo	7	Julio	2023-12-07T00:00:00	2024-11-08T14:00:00	7	Dirección del viento	8.05
182379	7	Sololá	712	San Antonio Palopó	9	San Antonio Palopo	7	Julio	2023-12-07T00:00:00	2024-11-08T14:00:00	1	Precipitación	0
182380	7	Sololá	712	San Antonio Palopó	9	San Antonio Palopo	7	Julio	2023-12-07T00:00:00	2024-11-08T14:00:00	8	Radiación solar	665
182381	7	Sololá	712	San Antonio Palopó	9	San Antonio Palopo	7	Julio	2023-12-07T00:00:00	2024-11-08T15:00:00	2	Temperatura media	28.1
182382	7	Sololá	712	San Antonio Palopó	9	San Antonio Palopo	7	Julio	2023-12-07T00:00:00	2024-11-08T15:00:00	4	Temperatura máxima	29
182383	7	Sololá	712	San Antonio Palopó	9	San Antonio Palopo	7	Julio	2023-12-07T00:00:00	2024-11-08T15:00:00	3	Temperatura mínima	27.8
182384	7	Sololá	712	San Antonio Palopó	9	San Antonio Palopo	7	Julio	2023-12-07T00:00:00	2024-11-08T15:00:00	5	Humedad	47
182385	7	Sololá	712	San Antonio Palopó	9	San Antonio Palopo	7	Julio	2023-12-07T00:00:00	2024-11-08T15:00:00	6	Velocidad del viento	8
182386	7	Sololá	712	San Antonio Palopó	9	San Antonio Palopo	7	Julio	2023-12-07T00:00:00	2024-11-08T15:00:00	7	Dirección del viento	8.05
182387	7	Sololá	712	San Antonio Palopó	9	San Antonio Palopo	7	Julio	2023-12-07T00:00:00	2024-11-08T15:00:00	1	Precipitación	0
182388	7	Sololá	712	San Antonio Palopó	9	San Antonio Palopo	7	Julio	2023-12-07T00:00:00	2024-11-08T15:00:00	8	Radiación solar	205
182389	7	Sololá	712	San Antonio Palopó	9	San Antonio Palopo	7	Julio	2023-12-07T00:00:00	2024-11-08T16:00:00	2	Temperatura media	26.9
182390	7	Sololá	712	San Antonio Palopó	9	San Antonio Palopo	7	Julio	2023-12-07T00:00:00	2024-11-08T16:00:00	4	Temperatura máxima	29.1
182391	7	Sololá	712	San Antonio Palopó	9	San Antonio Palopo	7	Julio	2023-12-07T00:00:00	2024-11-08T16:00:00	3	Temperatura mínima	26.6
182392	7	Sololá	712	San Antonio Palopó	9	San Antonio Palopo	7	Julio	2023-12-07T00:00:00	2024-11-08T16:00:00	5	Humedad	65
182393	7	Sololá	712	San Antonio Palopó	9	San Antonio Palopo	7	Julio	2023-12-07T00:00:00	2024-11-08T16:00:00	6	Velocidad del viento	8
182394	7	Sololá	712	San Antonio Palopó	9	San Antonio Palopo	7	Julio	2023-12-07T00:00:00	2024-11-08T16:00:00	7	Dirección del viento	8.05
182395	7	Sololá	712	San Antonio Palopó	9	San Antonio Palopo	7	Julio	2023-12-07T00:00:00	2024-11-08T16:00:00	1	Precipitación	0
182396	7	Sololá	712	San Antonio Palopó	9	San Antonio Palopo	7	Julio	2023-12-07T00:00:00	2024-11-08T16:00:00	8	Radiación solar	248
182397	7	Sololá	712	San Antonio Palopó	9	San Antonio Palopo	7	Julio	2023-12-07T00:00:00	2024-11-08T17:00:00	2	Temperatura media	26.3
182398	7	Sololá	712	San Antonio Palopó	9	San Antonio Palopo	7	Julio	2023-12-07T00:00:00	2024-11-08T17:00:00	4	Temperatura máxima	28.1
182399	7	Sololá	712	San Antonio Palopó	9	San Antonio Palopo	7	Julio	2023-12-07T00:00:00	2024-11-08T17:00:00	3	Temperatura mínima	26.3
182400	7	Sololá	712	San Antonio Palopó	9	San Antonio Palopo	7	Julio	2023-12-07T00:00:00	2024-11-08T17:00:00	5	Humedad	65
182401	7	Sololá	712	San Antonio Palopó	9	San Antonio Palopo	7	Julio	2023-12-07T00:00:00	2024-11-08T17:00:00	6	Velocidad del viento	8
182402	7	Sololá	712	San Antonio Palopó	9	San Antonio Palopo	7	Julio	2023-12-07T00:00:00	2024-11-08T17:00:00	7	Dirección del viento	8.05
182403	7	Sololá	712	San Antonio Palopó	9	San Antonio Palopo	7	Julio	2023-12-07T00:00:00	2024-11-08T17:00:00	1	Precipitación	0
182404	7	Sololá	712	San Antonio Palopó	9	San Antonio Palopo	7	Julio	2023-12-07T00:00:00	2024-11-08T17:00:00	8	Radiación solar	168
182405	7	Sololá	712	San Antonio Palopó	9	San Antonio Palopo	7	Julio	2023-12-07T00:00:00	2024-11-08T18:00:00	2	Temperatura media	23.6
182406	7	Sololá	712	San Antonio Palopó	9	San Antonio Palopo	7	Julio	2023-12-07T00:00:00	2024-11-08T18:00:00	4	Temperatura máxima	26.6
182407	7	Sololá	712	San Antonio Palopó	9	San Antonio Palopo	7	Julio	2023-12-07T00:00:00	2024-11-08T18:00:00	3	Temperatura mínima	23.6
182408	7	Sololá	712	San Antonio Palopó	9	San Antonio Palopo	7	Julio	2023-12-07T00:00:00	2024-11-08T18:00:00	5	Humedad	70
182409	7	Sololá	712	San Antonio Palopó	9	San Antonio Palopo	7	Julio	2023-12-07T00:00:00	2024-11-08T18:00:00	6	Velocidad del viento	6.4
182410	7	Sololá	712	San Antonio Palopó	9	San Antonio Palopo	7	Julio	2023-12-07T00:00:00	2024-11-08T18:00:00	7	Dirección del viento	6.44
182411	7	Sololá	712	San Antonio Palopó	9	San Antonio Palopo	7	Julio	2023-12-07T00:00:00	2024-11-08T18:00:00	1	Precipitación	0
182412	7	Sololá	712	San Antonio Palopó	9	San Antonio Palopo	7	Julio	2023-12-07T00:00:00	2024-11-08T18:00:00	8	Radiación solar	115
182413	7	Sololá	712	San Antonio Palopó	9	San Antonio Palopo	7	Julio	2023-12-07T00:00:00	2024-11-08T19:00:00	2	Temperatura media	22.6
182414	7	Sololá	712	San Antonio Palopó	9	San Antonio Palopo	7	Julio	2023-12-07T00:00:00	2024-11-08T19:00:00	4	Temperatura máxima	23.6
182415	7	Sololá	712	San Antonio Palopó	9	San Antonio Palopo	7	Julio	2023-12-07T00:00:00	2024-11-08T19:00:00	3	Temperatura mínima	22.4
182416	7	Sololá	712	San Antonio Palopó	9	San Antonio Palopo	7	Julio	2023-12-07T00:00:00	2024-11-08T19:00:00	5	Humedad	71
182417	7	Sololá	712	San Antonio Palopó	9	San Antonio Palopo	7	Julio	2023-12-07T00:00:00	2024-11-08T19:00:00	6	Velocidad del viento	4.8
182418	7	Sololá	712	San Antonio Palopó	9	San Antonio Palopo	7	Julio	2023-12-07T00:00:00	2024-11-08T19:00:00	7	Dirección del viento	4.83
182419	7	Sololá	712	San Antonio Palopó	9	San Antonio Palopo	7	Julio	2023-12-07T00:00:00	2024-11-08T19:00:00	1	Precipitación	0
182420	7	Sololá	712	San Antonio Palopó	9	San Antonio Palopo	7	Julio	2023-12-07T00:00:00	2024-11-08T19:00:00	8	Radiación solar	0
182421	7	Sololá	712	San Antonio Palopó	9	San Antonio Palopo	7	Julio	2023-12-07T00:00:00	2024-11-08T20:00:00	2	Temperatura media	21.1
182422	7	Sololá	712	San Antonio Palopó	9	San Antonio Palopo	7	Julio	2023-12-07T00:00:00	2024-11-08T20:00:00	4	Temperatura máxima	22.6
182423	7	Sololá	712	San Antonio Palopó	9	San Antonio Palopo	7	Julio	2023-12-07T00:00:00	2024-11-08T20:00:00	3	Temperatura mínima	21.1
182424	7	Sololá	712	San Antonio Palopó	9	San Antonio Palopo	7	Julio	2023-12-07T00:00:00	2024-11-08T20:00:00	5	Humedad	76
182425	7	Sololá	712	San Antonio Palopó	9	San Antonio Palopo	7	Julio	2023-12-07T00:00:00	2024-11-08T20:00:00	6	Velocidad del viento	4.8
182426	7	Sololá	712	San Antonio Palopó	9	San Antonio Palopo	7	Julio	2023-12-07T00:00:00	2024-11-08T20:00:00	7	Dirección del viento	4.83
182427	7	Sololá	712	San Antonio Palopó	9	San Antonio Palopo	7	Julio	2023-12-07T00:00:00	2024-11-08T20:00:00	1	Precipitación	0.2
182428	7	Sololá	712	San Antonio Palopó	9	San Antonio Palopo	7	Julio	2023-12-07T00:00:00	2024-11-08T20:00:00	8	Radiación solar	0
182429	7	Sololá	712	San Antonio Palopó	9	San Antonio Palopo	7	Julio	2023-12-07T00:00:00	2024-11-08T21:00:00	2	Temperatura media	19
182430	7	Sololá	712	San Antonio Palopó	9	San Antonio Palopo	7	Julio	2023-12-07T00:00:00	2024-11-08T21:00:00	4	Temperatura máxima	21.1
182431	7	Sololá	712	San Antonio Palopó	9	San Antonio Palopo	7	Julio	2023-12-07T00:00:00	2024-11-08T21:00:00	3	Temperatura mínima	19
182432	7	Sololá	712	San Antonio Palopó	9	San Antonio Palopo	7	Julio	2023-12-07T00:00:00	2024-11-08T21:00:00	5	Humedad	80
182433	7	Sololá	712	San Antonio Palopó	9	San Antonio Palopo	7	Julio	2023-12-07T00:00:00	2024-11-08T21:00:00	6	Velocidad del viento	4.8
182434	7	Sololá	712	San Antonio Palopó	9	San Antonio Palopo	7	Julio	2023-12-07T00:00:00	2024-11-08T21:00:00	7	Dirección del viento	4.83
182435	7	Sololá	712	San Antonio Palopó	9	San Antonio Palopo	7	Julio	2023-12-07T00:00:00	2024-11-08T21:00:00	1	Precipitación	0.8
182436	7	Sololá	712	San Antonio Palopó	9	San Antonio Palopo	7	Julio	2023-12-07T00:00:00	2024-11-08T21:00:00	8	Radiación solar	0
182437	7	Sololá	712	San Antonio Palopó	9	San Antonio Palopo	7	Julio	2023-12-07T00:00:00	2024-11-08T22:00:00	2	Temperatura media	19.6
182438	7	Sololá	712	San Antonio Palopó	9	San Antonio Palopo	7	Julio	2023-12-07T00:00:00	2024-11-08T22:00:00	4	Temperatura máxima	19.6
182439	7	Sololá	712	San Antonio Palopó	9	San Antonio Palopo	7	Julio	2023-12-07T00:00:00	2024-11-08T22:00:00	3	Temperatura mínima	18.7
182440	7	Sololá	712	San Antonio Palopó	9	San Antonio Palopo	7	Julio	2023-12-07T00:00:00	2024-11-08T22:00:00	5	Humedad	76
182441	7	Sololá	712	San Antonio Palopó	9	San Antonio Palopo	7	Julio	2023-12-07T00:00:00	2024-11-08T22:00:00	6	Velocidad del viento	4.8
182442	7	Sololá	712	San Antonio Palopó	9	San Antonio Palopo	7	Julio	2023-12-07T00:00:00	2024-11-08T22:00:00	7	Dirección del viento	4.83
182443	7	Sololá	712	San Antonio Palopó	9	San Antonio Palopo	7	Julio	2023-12-07T00:00:00	2024-11-08T22:00:00	1	Precipitación	0.2
182444	7	Sololá	712	San Antonio Palopó	9	San Antonio Palopo	7	Julio	2023-12-07T00:00:00	2024-11-08T22:00:00	8	Radiación solar	0
182445	7	Sololá	712	San Antonio Palopó	9	San Antonio Palopo	7	Julio	2023-12-07T00:00:00	2024-11-08T23:00:00	2	Temperatura media	20.4
182446	7	Sololá	712	San Antonio Palopó	9	San Antonio Palopo	7	Julio	2023-12-07T00:00:00	2024-11-08T23:00:00	4	Temperatura máxima	20.4
182447	7	Sololá	712	San Antonio Palopó	9	San Antonio Palopo	7	Julio	2023-12-07T00:00:00	2024-11-08T23:00:00	3	Temperatura mínima	19.6
182448	7	Sololá	712	San Antonio Palopó	9	San Antonio Palopo	7	Julio	2023-12-07T00:00:00	2024-11-08T23:00:00	5	Humedad	73
182449	7	Sololá	712	San Antonio Palopó	9	San Antonio Palopo	7	Julio	2023-12-07T00:00:00	2024-11-08T23:00:00	6	Velocidad del viento	8
182450	7	Sololá	712	San Antonio Palopó	9	San Antonio Palopo	7	Julio	2023-12-07T00:00:00	2024-11-08T23:00:00	7	Dirección del viento	8.05
182451	7	Sololá	712	San Antonio Palopó	9	San Antonio Palopo	7	Julio	2023-12-07T00:00:00	2024-11-08T23:00:00	1	Precipitación	0
182452	7	Sololá	712	San Antonio Palopó	9	San Antonio Palopo	7	Julio	2023-12-07T00:00:00	2024-11-08T23:00:00	8	Radiación solar	0
182453	7	Sololá	712	San Antonio Palopó	9	San Antonio Palopo	7	Julio	2023-07-13T00:00:00	2024-11-08T00:00:00	2	Temperatura media	20.1
182454	7	Sololá	712	San Antonio Palopó	9	San Antonio Palopo	7	Julio	2023-07-13T00:00:00	2024-11-08T00:00:00	4	Temperatura máxima	20.8
182455	7	Sololá	712	San Antonio Palopó	9	San Antonio Palopo	7	Julio	2023-07-13T00:00:00	2024-11-08T00:00:00	3	Temperatura mínima	20.1
182456	7	Sololá	712	San Antonio Palopó	9	San Antonio Palopo	7	Julio	2023-07-13T00:00:00	2024-11-08T00:00:00	5	Humedad	77
182457	7	Sololá	712	San Antonio Palopó	9	San Antonio Palopo	7	Julio	2023-07-13T00:00:00	2024-11-08T00:00:00	6	Velocidad del viento	4.8
182458	7	Sololá	712	San Antonio Palopó	9	San Antonio Palopo	7	Julio	2023-07-13T00:00:00	2024-11-08T00:00:00	7	Dirección del viento	4.83
182459	7	Sololá	712	San Antonio Palopó	9	San Antonio Palopo	7	Julio	2023-07-13T00:00:00	2024-11-08T00:00:00	1	Precipitación	0
182460	7	Sololá	712	San Antonio Palopó	9	San Antonio Palopo	7	Julio	2023-07-13T00:00:00	2024-11-08T00:00:00	8	Radiación solar	0
182461	7	Sololá	712	San Antonio Palopó	9	San Antonio Palopo	7	Julio	2023-07-13T00:00:00	2024-11-08T01:00:00	2	Temperatura media	20.7
182462	7	Sololá	712	San Antonio Palopó	9	San Antonio Palopo	7	Julio	2023-07-13T00:00:00	2024-11-08T01:00:00	4	Temperatura máxima	20.8
182463	7	Sololá	712	San Antonio Palopó	9	San Antonio Palopo	7	Julio	2023-07-13T00:00:00	2024-11-08T01:00:00	3	Temperatura mínima	20.1
182464	7	Sololá	712	San Antonio Palopó	9	San Antonio Palopo	7	Julio	2023-07-13T00:00:00	2024-11-08T01:00:00	5	Humedad	71
182465	7	Sololá	712	San Antonio Palopó	9	San Antonio Palopo	7	Julio	2023-07-13T00:00:00	2024-11-08T01:00:00	6	Velocidad del viento	6.4
182466	7	Sololá	712	San Antonio Palopó	9	San Antonio Palopo	7	Julio	2023-07-13T00:00:00	2024-11-08T01:00:00	7	Dirección del viento	6.44
182467	7	Sololá	712	San Antonio Palopó	9	San Antonio Palopo	7	Julio	2023-07-13T00:00:00	2024-11-08T01:00:00	1	Precipitación	0
182468	7	Sololá	712	San Antonio Palopó	9	San Antonio Palopo	7	Julio	2023-07-13T00:00:00	2024-11-08T01:00:00	8	Radiación solar	0
182469	7	Sololá	712	San Antonio Palopó	9	San Antonio Palopo	7	Julio	2023-07-13T00:00:00	2024-11-08T02:00:00	2	Temperatura media	20.4
182470	7	Sololá	712	San Antonio Palopó	9	San Antonio Palopo	7	Julio	2023-07-13T00:00:00	2024-11-08T02:00:00	4	Temperatura máxima	21
182471	7	Sololá	712	San Antonio Palopó	9	San Antonio Palopo	7	Julio	2023-07-13T00:00:00	2024-11-08T02:00:00	3	Temperatura mínima	20.4
182472	7	Sololá	712	San Antonio Palopó	9	San Antonio Palopo	7	Julio	2023-07-13T00:00:00	2024-11-08T02:00:00	5	Humedad	68
182473	7	Sololá	712	San Antonio Palopó	9	San Antonio Palopo	7	Julio	2023-07-13T00:00:00	2024-11-08T02:00:00	6	Velocidad del viento	6.4
182474	7	Sololá	712	San Antonio Palopó	9	San Antonio Palopo	7	Julio	2023-07-13T00:00:00	2024-11-08T02:00:00	7	Dirección del viento	6.44
182475	7	Sololá	712	San Antonio Palopó	9	San Antonio Palopo	7	Julio	2023-07-13T00:00:00	2024-11-08T02:00:00	1	Precipitación	0
182476	7	Sololá	712	San Antonio Palopó	9	San Antonio Palopo	7	Julio	2023-07-13T00:00:00	2024-11-08T02:00:00	8	Radiación solar	0
182477	7	Sololá	712	San Antonio Palopó	9	San Antonio Palopo	7	Julio	2023-07-13T00:00:00	2024-11-08T03:00:00	2	Temperatura media	20.6
182478	7	Sololá	712	San Antonio Palopó	9	San Antonio Palopo	7	Julio	2023-07-13T00:00:00	2024-11-08T03:00:00	4	Temperatura máxima	20.8
182479	7	Sololá	712	San Antonio Palopó	9	San Antonio Palopo	7	Julio	2023-07-13T00:00:00	2024-11-08T03:00:00	3	Temperatura mínima	20.2
182480	7	Sololá	712	San Antonio Palopó	9	San Antonio Palopo	7	Julio	2023-07-13T00:00:00	2024-11-08T03:00:00	5	Humedad	65
182481	7	Sololá	712	San Antonio Palopó	9	San Antonio Palopo	7	Julio	2023-07-13T00:00:00	2024-11-08T03:00:00	6	Velocidad del viento	8
182482	7	Sololá	712	San Antonio Palopó	9	San Antonio Palopo	7	Julio	2023-07-13T00:00:00	2024-11-08T03:00:00	7	Dirección del viento	8.05
182483	7	Sololá	712	San Antonio Palopó	9	San Antonio Palopo	7	Julio	2023-07-13T00:00:00	2024-11-08T03:00:00	1	Precipitación	0
182484	7	Sololá	712	San Antonio Palopó	9	San Antonio Palopo	7	Julio	2023-07-13T00:00:00	2024-11-08T03:00:00	8	Radiación solar	0
182485	7	Sololá	712	San Antonio Palopó	9	San Antonio Palopo	7	Julio	2023-07-13T00:00:00	2024-11-08T04:00:00	2	Temperatura media	20.2
182486	7	Sololá	712	San Antonio Palopó	9	San Antonio Palopo	7	Julio	2023-07-13T00:00:00	2024-11-08T04:00:00	4	Temperatura máxima	20.6
182487	7	Sololá	712	San Antonio Palopó	9	San Antonio Palopo	7	Julio	2023-07-13T00:00:00	2024-11-08T04:00:00	3	Temperatura mínima	19.9
182488	7	Sololá	712	San Antonio Palopó	9	San Antonio Palopo	7	Julio	2023-07-13T00:00:00	2024-11-08T04:00:00	5	Humedad	64
182489	7	Sololá	712	San Antonio Palopó	9	San Antonio Palopo	7	Julio	2023-07-13T00:00:00	2024-11-08T04:00:00	6	Velocidad del viento	8
182490	7	Sololá	712	San Antonio Palopó	9	San Antonio Palopo	7	Julio	2023-07-13T00:00:00	2024-11-08T04:00:00	7	Dirección del viento	8.05
182491	7	Sololá	712	San Antonio Palopó	9	San Antonio Palopo	7	Julio	2023-07-13T00:00:00	2024-11-08T04:00:00	1	Precipitación	0
182492	7	Sololá	712	San Antonio Palopó	9	San Antonio Palopo	7	Julio	2023-07-13T00:00:00	2024-11-08T04:00:00	8	Radiación solar	0
182493	7	Sololá	712	San Antonio Palopó	9	San Antonio Palopo	7	Julio	2023-07-13T00:00:00	2024-11-08T05:00:00	2	Temperatura media	20.2
182494	7	Sololá	712	San Antonio Palopó	9	San Antonio Palopo	7	Julio	2023-07-13T00:00:00	2024-11-08T05:00:00	4	Temperatura máxima	20.5
182495	7	Sololá	712	San Antonio Palopó	9	San Antonio Palopo	7	Julio	2023-07-13T00:00:00	2024-11-08T05:00:00	3	Temperatura mínima	20
182496	7	Sololá	712	San Antonio Palopó	9	San Antonio Palopo	7	Julio	2023-07-13T00:00:00	2024-11-08T05:00:00	5	Humedad	64
182497	7	Sololá	712	San Antonio Palopó	9	San Antonio Palopo	7	Julio	2023-07-13T00:00:00	2024-11-08T05:00:00	6	Velocidad del viento	4.8
182498	7	Sololá	712	San Antonio Palopó	9	San Antonio Palopo	7	Julio	2023-07-13T00:00:00	2024-11-08T05:00:00	7	Dirección del viento	4.83
182499	7	Sololá	712	San Antonio Palopó	9	San Antonio Palopo	7	Julio	2023-07-13T00:00:00	2024-11-08T05:00:00	1	Precipitación	0
182500	7	Sololá	712	San Antonio Palopó	9	San Antonio Palopo	7	Julio	2023-07-13T00:00:00	2024-11-08T05:00:00	8	Radiación solar	0
182501	7	Sololá	712	San Antonio Palopó	9	San Antonio Palopo	7	Julio	2023-07-13T00:00:00	2024-11-08T06:00:00	2	Temperatura media	20.5
182502	7	Sololá	712	San Antonio Palopó	9	San Antonio Palopo	7	Julio	2023-07-13T00:00:00	2024-11-08T06:00:00	4	Temperatura máxima	20.5
182503	7	Sololá	712	San Antonio Palopó	9	San Antonio Palopo	7	Julio	2023-07-13T00:00:00	2024-11-08T06:00:00	3	Temperatura mínima	20.1
182504	7	Sololá	712	San Antonio Palopó	9	San Antonio Palopo	7	Julio	2023-07-13T00:00:00	2024-11-08T06:00:00	5	Humedad	66
182505	7	Sololá	712	San Antonio Palopó	9	San Antonio Palopo	7	Julio	2023-07-13T00:00:00	2024-11-08T06:00:00	6	Velocidad del viento	8
182506	7	Sololá	712	San Antonio Palopó	9	San Antonio Palopo	7	Julio	2023-07-13T00:00:00	2024-11-08T06:00:00	7	Dirección del viento	8.05
182507	7	Sololá	712	San Antonio Palopó	9	San Antonio Palopo	7	Julio	2023-07-13T00:00:00	2024-11-08T06:00:00	1	Precipitación	0
182508	7	Sololá	712	San Antonio Palopó	9	San Antonio Palopo	7	Julio	2023-07-13T00:00:00	2024-11-08T06:00:00	8	Radiación solar	2
182509	7	Sololá	712	San Antonio Palopó	9	San Antonio Palopo	7	Julio	2023-07-13T00:00:00	2024-11-08T07:00:00	2	Temperatura media	20.9
182510	7	Sololá	712	San Antonio Palopó	9	San Antonio Palopo	7	Julio	2023-07-13T00:00:00	2024-11-08T07:00:00	4	Temperatura máxima	20.9
182511	7	Sololá	712	San Antonio Palopó	9	San Antonio Palopo	7	Julio	2023-07-13T00:00:00	2024-11-08T07:00:00	3	Temperatura mínima	20.4
182512	7	Sololá	712	San Antonio Palopó	9	San Antonio Palopo	7	Julio	2023-07-13T00:00:00	2024-11-08T07:00:00	5	Humedad	67
182513	7	Sololá	712	San Antonio Palopó	9	San Antonio Palopo	7	Julio	2023-07-13T00:00:00	2024-11-08T07:00:00	6	Velocidad del viento	9.7
182514	7	Sololá	712	San Antonio Palopó	9	San Antonio Palopo	7	Julio	2023-07-13T00:00:00	2024-11-08T07:00:00	7	Dirección del viento	9.66
182515	7	Sololá	712	San Antonio Palopó	9	San Antonio Palopo	7	Julio	2023-07-13T00:00:00	2024-11-08T07:00:00	1	Precipitación	0
182516	7	Sololá	712	San Antonio Palopó	9	San Antonio Palopo	7	Julio	2023-07-13T00:00:00	2024-11-08T07:00:00	8	Radiación solar	47
182517	7	Sololá	712	San Antonio Palopó	9	San Antonio Palopo	7	Julio	2023-07-13T00:00:00	2024-11-08T08:00:00	2	Temperatura media	21.8
182518	7	Sololá	712	San Antonio Palopó	9	San Antonio Palopo	7	Julio	2023-07-13T00:00:00	2024-11-08T08:00:00	4	Temperatura máxima	21.8
182519	7	Sololá	712	San Antonio Palopó	9	San Antonio Palopo	7	Julio	2023-07-13T00:00:00	2024-11-08T08:00:00	3	Temperatura mínima	20.9
182520	7	Sololá	712	San Antonio Palopó	9	San Antonio Palopo	7	Julio	2023-07-13T00:00:00	2024-11-08T08:00:00	5	Humedad	66
182521	7	Sololá	712	San Antonio Palopó	9	San Antonio Palopo	7	Julio	2023-07-13T00:00:00	2024-11-08T08:00:00	6	Velocidad del viento	3.2
182522	7	Sololá	712	San Antonio Palopó	9	San Antonio Palopo	7	Julio	2023-07-13T00:00:00	2024-11-08T08:00:00	7	Dirección del viento	3.22
182523	7	Sololá	712	San Antonio Palopó	9	San Antonio Palopo	7	Julio	2023-07-13T00:00:00	2024-11-08T08:00:00	1	Precipitación	0
182524	7	Sololá	712	San Antonio Palopó	9	San Antonio Palopo	7	Julio	2023-07-13T00:00:00	2024-11-08T08:00:00	8	Radiación solar	166
182525	7	Sololá	712	San Antonio Palopó	9	San Antonio Palopo	7	Julio	2023-07-13T00:00:00	2024-11-08T09:00:00	2	Temperatura media	23.3
182526	7	Sololá	712	San Antonio Palopó	9	San Antonio Palopo	7	Julio	2023-07-13T00:00:00	2024-11-08T09:00:00	4	Temperatura máxima	23.3
182527	7	Sololá	712	San Antonio Palopó	9	San Antonio Palopo	7	Julio	2023-07-13T00:00:00	2024-11-08T09:00:00	3	Temperatura mínima	21.8
182528	7	Sololá	712	San Antonio Palopó	9	San Antonio Palopo	7	Julio	2023-07-13T00:00:00	2024-11-08T09:00:00	5	Humedad	60
182529	7	Sololá	712	San Antonio Palopó	9	San Antonio Palopo	7	Julio	2023-07-13T00:00:00	2024-11-08T09:00:00	6	Velocidad del viento	6.4
182530	7	Sololá	712	San Antonio Palopó	9	San Antonio Palopo	7	Julio	2023-07-13T00:00:00	2024-11-08T09:00:00	7	Dirección del viento	6.44
182531	7	Sololá	712	San Antonio Palopó	9	San Antonio Palopo	7	Julio	2023-07-13T00:00:00	2024-11-08T09:00:00	1	Precipitación	0
182532	7	Sololá	712	San Antonio Palopó	9	San Antonio Palopo	7	Julio	2023-07-13T00:00:00	2024-11-08T09:00:00	8	Radiación solar	450
182533	7	Sololá	712	San Antonio Palopó	9	San Antonio Palopo	7	Julio	2023-07-13T00:00:00	2024-11-08T10:00:00	2	Temperatura media	23.1
182534	7	Sololá	712	San Antonio Palopó	9	San Antonio Palopo	7	Julio	2023-07-13T00:00:00	2024-11-08T10:00:00	4	Temperatura máxima	23.3
182535	7	Sololá	712	San Antonio Palopó	9	San Antonio Palopo	7	Julio	2023-07-13T00:00:00	2024-11-08T10:00:00	3	Temperatura mínima	22.8
182536	7	Sololá	712	San Antonio Palopó	9	San Antonio Palopo	7	Julio	2023-07-13T00:00:00	2024-11-08T10:00:00	5	Humedad	60
182537	7	Sololá	712	San Antonio Palopó	9	San Antonio Palopo	7	Julio	2023-07-13T00:00:00	2024-11-08T10:00:00	6	Velocidad del viento	0
182538	7	Sololá	712	San Antonio Palopó	9	San Antonio Palopo	7	Julio	2023-07-13T00:00:00	2024-11-08T10:00:00	7	Dirección del viento	0
182539	7	Sololá	712	San Antonio Palopó	9	San Antonio Palopo	7	Julio	2023-07-13T00:00:00	2024-11-08T10:00:00	1	Precipitación	0
182540	7	Sololá	712	San Antonio Palopó	9	San Antonio Palopo	7	Julio	2023-07-13T00:00:00	2024-11-08T10:00:00	8	Radiación solar	692
182541	7	Sololá	712	San Antonio Palopó	9	San Antonio Palopo	7	Julio	2023-07-13T00:00:00	2024-11-08T11:00:00	2	Temperatura media	24.9
182542	7	Sololá	712	San Antonio Palopó	9	San Antonio Palopo	7	Julio	2023-07-13T00:00:00	2024-11-08T11:00:00	4	Temperatura máxima	24.9
182543	7	Sololá	712	San Antonio Palopó	9	San Antonio Palopo	7	Julio	2023-07-13T00:00:00	2024-11-08T11:00:00	3	Temperatura mínima	24.1
182544	7	Sololá	712	San Antonio Palopó	9	San Antonio Palopo	7	Julio	2023-07-13T00:00:00	2024-11-08T11:00:00	5	Humedad	53
182545	7	Sololá	712	San Antonio Palopó	9	San Antonio Palopo	7	Julio	2023-07-13T00:00:00	2024-11-08T11:00:00	6	Velocidad del viento	9.7
182546	7	Sololá	712	San Antonio Palopó	9	San Antonio Palopo	7	Julio	2023-07-13T00:00:00	2024-11-08T11:00:00	7	Dirección del viento	9.66
182547	7	Sololá	712	San Antonio Palopó	9	San Antonio Palopo	7	Julio	2023-07-13T00:00:00	2024-11-08T11:00:00	1	Precipitación	0
182548	7	Sololá	712	San Antonio Palopó	9	San Antonio Palopo	7	Julio	2023-07-13T00:00:00	2024-11-08T11:00:00	8	Radiación solar	750
182549	7	Sololá	712	San Antonio Palopó	9	San Antonio Palopo	7	Julio	2023-07-13T00:00:00	2024-11-08T12:00:00	2	Temperatura media	25.3
182550	7	Sololá	712	San Antonio Palopó	9	San Antonio Palopo	7	Julio	2023-07-13T00:00:00	2024-11-08T12:00:00	4	Temperatura máxima	25.7
182551	7	Sololá	712	San Antonio Palopó	9	San Antonio Palopo	7	Julio	2023-07-13T00:00:00	2024-11-08T12:00:00	3	Temperatura mínima	24.9
182552	7	Sololá	712	San Antonio Palopó	9	San Antonio Palopo	7	Julio	2023-07-13T00:00:00	2024-11-08T12:00:00	5	Humedad	49
182553	7	Sololá	712	San Antonio Palopó	9	San Antonio Palopo	7	Julio	2023-07-13T00:00:00	2024-11-08T12:00:00	6	Velocidad del viento	9.7
182554	7	Sololá	712	San Antonio Palopó	9	San Antonio Palopo	7	Julio	2023-07-13T00:00:00	2024-11-08T12:00:00	7	Dirección del viento	9.66
182555	7	Sololá	712	San Antonio Palopó	9	San Antonio Palopo	7	Julio	2023-07-13T00:00:00	2024-11-08T12:00:00	1	Precipitación	0
182556	7	Sololá	712	San Antonio Palopó	9	San Antonio Palopo	7	Julio	2023-07-13T00:00:00	2024-11-08T12:00:00	8	Radiación solar	985
182557	7	Sololá	712	San Antonio Palopó	9	San Antonio Palopo	7	Julio	2023-07-13T00:00:00	2024-11-08T13:00:00	2	Temperatura media	26.4
182558	7	Sololá	712	San Antonio Palopó	9	San Antonio Palopo	7	Julio	2023-07-13T00:00:00	2024-11-08T13:00:00	4	Temperatura máxima	26.4
182559	7	Sololá	712	San Antonio Palopó	9	San Antonio Palopo	7	Julio	2023-07-13T00:00:00	2024-11-08T13:00:00	3	Temperatura mínima	25.2
182560	7	Sololá	712	San Antonio Palopó	9	San Antonio Palopo	7	Julio	2023-07-13T00:00:00	2024-11-08T13:00:00	5	Humedad	49
182561	7	Sololá	712	San Antonio Palopó	9	San Antonio Palopo	7	Julio	2023-07-13T00:00:00	2024-11-08T13:00:00	6	Velocidad del viento	11.3
182562	7	Sololá	712	San Antonio Palopó	9	San Antonio Palopo	7	Julio	2023-07-13T00:00:00	2024-11-08T13:00:00	7	Dirección del viento	11.27
182563	7	Sololá	712	San Antonio Palopó	9	San Antonio Palopo	7	Julio	2023-07-13T00:00:00	2024-11-08T13:00:00	1	Precipitación	0
182564	7	Sololá	712	San Antonio Palopó	9	San Antonio Palopo	7	Julio	2023-07-13T00:00:00	2024-11-08T13:00:00	8	Radiación solar	967
182565	7	Sololá	712	San Antonio Palopó	9	San Antonio Palopo	7	Julio	2023-07-13T00:00:00	2024-11-08T14:00:00	2	Temperatura media	25.8
182566	7	Sololá	712	San Antonio Palopó	9	San Antonio Palopo	7	Julio	2023-07-13T00:00:00	2024-11-08T14:00:00	4	Temperatura máxima	26.7
182567	7	Sololá	712	San Antonio Palopó	9	San Antonio Palopo	7	Julio	2023-07-13T00:00:00	2024-11-08T14:00:00	3	Temperatura mínima	25.6
182568	7	Sololá	712	San Antonio Palopó	9	San Antonio Palopo	7	Julio	2023-07-13T00:00:00	2024-11-08T14:00:00	5	Humedad	55
182569	7	Sololá	712	San Antonio Palopó	9	San Antonio Palopo	7	Julio	2023-07-13T00:00:00	2024-11-08T14:00:00	6	Velocidad del viento	9.7
182570	7	Sololá	712	San Antonio Palopó	9	San Antonio Palopo	7	Julio	2023-07-13T00:00:00	2024-11-08T14:00:00	7	Dirección del viento	9.66
182571	7	Sololá	712	San Antonio Palopó	9	San Antonio Palopo	7	Julio	2023-07-13T00:00:00	2024-11-08T14:00:00	1	Precipitación	0
182572	7	Sololá	712	San Antonio Palopó	9	San Antonio Palopo	7	Julio	2023-07-13T00:00:00	2024-11-08T14:00:00	8	Radiación solar	907
182573	7	Sololá	712	San Antonio Palopó	9	San Antonio Palopo	7	Julio	2023-07-13T00:00:00	2024-11-08T15:00:00	2	Temperatura media	26.6
182574	7	Sololá	712	San Antonio Palopó	9	San Antonio Palopo	7	Julio	2023-07-13T00:00:00	2024-11-08T15:00:00	4	Temperatura máxima	26.9
182575	7	Sololá	712	San Antonio Palopó	9	San Antonio Palopo	7	Julio	2023-07-13T00:00:00	2024-11-08T15:00:00	3	Temperatura mínima	25.6
182576	7	Sololá	712	San Antonio Palopó	9	San Antonio Palopo	7	Julio	2023-07-13T00:00:00	2024-11-08T15:00:00	5	Humedad	47
182577	7	Sololá	712	San Antonio Palopó	9	San Antonio Palopo	7	Julio	2023-07-13T00:00:00	2024-11-08T15:00:00	6	Velocidad del viento	8
182578	7	Sololá	712	San Antonio Palopó	9	San Antonio Palopo	7	Julio	2023-07-13T00:00:00	2024-11-08T15:00:00	7	Dirección del viento	8.05
182579	7	Sololá	712	San Antonio Palopó	9	San Antonio Palopo	7	Julio	2023-07-13T00:00:00	2024-11-08T15:00:00	1	Precipitación	0
182580	7	Sololá	712	San Antonio Palopó	9	San Antonio Palopo	7	Julio	2023-07-13T00:00:00	2024-11-08T15:00:00	8	Radiación solar	644
182581	7	Sololá	712	San Antonio Palopó	9	San Antonio Palopo	7	Julio	2023-07-13T00:00:00	2024-11-08T16:00:00	2	Temperatura media	26.8
182582	7	Sololá	712	San Antonio Palopó	9	San Antonio Palopo	7	Julio	2023-07-13T00:00:00	2024-11-08T16:00:00	4	Temperatura máxima	27.3
182583	7	Sololá	712	San Antonio Palopó	9	San Antonio Palopo	7	Julio	2023-07-13T00:00:00	2024-11-08T16:00:00	3	Temperatura mínima	26.3
182584	7	Sololá	712	San Antonio Palopó	9	San Antonio Palopo	7	Julio	2023-07-13T00:00:00	2024-11-08T16:00:00	5	Humedad	47
182585	7	Sololá	712	San Antonio Palopó	9	San Antonio Palopo	7	Julio	2023-07-13T00:00:00	2024-11-08T16:00:00	6	Velocidad del viento	9.7
182586	7	Sololá	712	San Antonio Palopó	9	San Antonio Palopo	7	Julio	2023-07-13T00:00:00	2024-11-08T16:00:00	7	Dirección del viento	9.66
182587	7	Sololá	712	San Antonio Palopó	9	San Antonio Palopo	7	Julio	2023-07-13T00:00:00	2024-11-08T16:00:00	1	Precipitación	0
182588	7	Sololá	712	San Antonio Palopó	9	San Antonio Palopo	7	Julio	2023-07-13T00:00:00	2024-11-08T16:00:00	8	Radiación solar	566
182589	7	Sololá	712	San Antonio Palopó	9	San Antonio Palopo	7	Julio	2023-07-13T00:00:00	2024-11-08T17:00:00	2	Temperatura media	24.4
182590	7	Sololá	712	San Antonio Palopó	9	San Antonio Palopo	7	Julio	2023-07-13T00:00:00	2024-11-08T17:00:00	4	Temperatura máxima	27.3
182591	7	Sololá	712	San Antonio Palopó	9	San Antonio Palopo	7	Julio	2023-07-13T00:00:00	2024-11-08T17:00:00	3	Temperatura mínima	24.3
182592	7	Sololá	712	San Antonio Palopó	9	San Antonio Palopo	7	Julio	2023-07-13T00:00:00	2024-11-08T17:00:00	5	Humedad	66
182593	7	Sololá	712	San Antonio Palopó	9	San Antonio Palopo	7	Julio	2023-07-13T00:00:00	2024-11-08T17:00:00	6	Velocidad del viento	9.7
182594	7	Sololá	712	San Antonio Palopó	9	San Antonio Palopo	7	Julio	2023-07-13T00:00:00	2024-11-08T17:00:00	7	Dirección del viento	9.66
182595	7	Sololá	712	San Antonio Palopó	9	San Antonio Palopo	7	Julio	2023-07-13T00:00:00	2024-11-08T17:00:00	1	Precipitación	0
182596	7	Sololá	712	San Antonio Palopó	9	San Antonio Palopo	7	Julio	2023-07-13T00:00:00	2024-11-08T17:00:00	8	Radiación solar	353
182597	7	Sololá	712	San Antonio Palopó	9	San Antonio Palopo	7	Julio	2023-07-13T00:00:00	2024-11-08T18:00:00	2	Temperatura media	23.2
182598	7	Sololá	712	San Antonio Palopó	9	San Antonio Palopo	7	Julio	2023-07-13T00:00:00	2024-11-08T18:00:00	4	Temperatura máxima	26.3
182599	7	Sololá	712	San Antonio Palopó	9	San Antonio Palopo	7	Julio	2023-07-13T00:00:00	2024-11-08T18:00:00	3	Temperatura mínima	23.1
182600	7	Sololá	712	San Antonio Palopó	9	San Antonio Palopo	7	Julio	2023-07-13T00:00:00	2024-11-08T18:00:00	5	Humedad	70
182601	7	Sololá	712	San Antonio Palopó	9	San Antonio Palopo	7	Julio	2023-07-13T00:00:00	2024-11-08T18:00:00	6	Velocidad del viento	6.4
182602	7	Sololá	712	San Antonio Palopó	9	San Antonio Palopo	7	Julio	2023-07-13T00:00:00	2024-11-08T18:00:00	7	Dirección del viento	6.44
182603	7	Sololá	712	San Antonio Palopó	9	San Antonio Palopo	7	Julio	2023-07-13T00:00:00	2024-11-08T18:00:00	1	Precipitación	0
182604	7	Sololá	712	San Antonio Palopó	9	San Antonio Palopo	7	Julio	2023-07-13T00:00:00	2024-11-08T18:00:00	8	Radiación solar	133
182605	7	Sololá	712	San Antonio Palopó	9	San Antonio Palopo	7	Julio	2023-07-13T00:00:00	2024-11-08T19:00:00	2	Temperatura media	23.4
182606	7	Sololá	712	San Antonio Palopó	9	San Antonio Palopo	7	Julio	2023-07-13T00:00:00	2024-11-08T19:00:00	4	Temperatura máxima	23.6
182607	7	Sololá	712	San Antonio Palopó	9	San Antonio Palopo	7	Julio	2023-07-13T00:00:00	2024-11-08T19:00:00	3	Temperatura mínima	23.1
182608	7	Sololá	712	San Antonio Palopó	9	San Antonio Palopo	7	Julio	2023-07-13T00:00:00	2024-11-08T19:00:00	5	Humedad	62
182609	7	Sololá	712	San Antonio Palopó	9	San Antonio Palopo	7	Julio	2023-07-13T00:00:00	2024-11-08T19:00:00	6	Velocidad del viento	6.4
182610	7	Sololá	712	San Antonio Palopó	9	San Antonio Palopo	7	Julio	2023-07-13T00:00:00	2024-11-08T19:00:00	7	Dirección del viento	6.44
182611	7	Sololá	712	San Antonio Palopó	9	San Antonio Palopo	7	Julio	2023-07-13T00:00:00	2024-11-08T19:00:00	1	Precipitación	0
182612	7	Sololá	712	San Antonio Palopó	9	San Antonio Palopo	7	Julio	2023-07-13T00:00:00	2024-11-08T19:00:00	8	Radiación solar	0
182613	7	Sololá	712	San Antonio Palopó	9	San Antonio Palopo	7	Julio	2023-07-13T00:00:00	2024-11-08T20:00:00	2	Temperatura media	22.5
182614	7	Sololá	712	San Antonio Palopó	9	San Antonio Palopo	7	Julio	2023-07-13T00:00:00	2024-11-08T20:00:00	4	Temperatura máxima	23.4
182615	7	Sololá	712	San Antonio Palopó	9	San Antonio Palopo	7	Julio	2023-07-13T00:00:00	2024-11-08T20:00:00	3	Temperatura mínima	22.4
182616	7	Sololá	712	San Antonio Palopó	9	San Antonio Palopo	7	Julio	2023-07-13T00:00:00	2024-11-08T20:00:00	5	Humedad	66
182617	7	Sololá	712	San Antonio Palopó	9	San Antonio Palopo	7	Julio	2023-07-13T00:00:00	2024-11-08T20:00:00	6	Velocidad del viento	6.4
182618	7	Sololá	712	San Antonio Palopó	9	San Antonio Palopo	7	Julio	2023-07-13T00:00:00	2024-11-08T20:00:00	7	Dirección del viento	6.44
182619	7	Sololá	712	San Antonio Palopó	9	San Antonio Palopo	7	Julio	2023-07-13T00:00:00	2024-11-08T20:00:00	1	Precipitación	0
182620	7	Sololá	712	San Antonio Palopó	9	San Antonio Palopo	7	Julio	2023-07-13T00:00:00	2024-11-08T20:00:00	8	Radiación solar	0
182621	7	Sololá	712	San Antonio Palopó	9	San Antonio Palopo	7	Julio	2023-07-13T00:00:00	2024-11-08T21:00:00	2	Temperatura media	22.3
182622	7	Sololá	712	San Antonio Palopó	9	San Antonio Palopo	7	Julio	2023-07-13T00:00:00	2024-11-08T21:00:00	4	Temperatura máxima	22.5
182623	7	Sololá	712	San Antonio Palopó	9	San Antonio Palopo	7	Julio	2023-07-13T00:00:00	2024-11-08T21:00:00	3	Temperatura mínima	22.3
182624	7	Sololá	712	San Antonio Palopó	9	San Antonio Palopo	7	Julio	2023-07-13T00:00:00	2024-11-08T21:00:00	5	Humedad	67
182625	7	Sololá	712	San Antonio Palopó	9	San Antonio Palopo	7	Julio	2023-07-13T00:00:00	2024-11-08T21:00:00	6	Velocidad del viento	8
182626	7	Sololá	712	San Antonio Palopó	9	San Antonio Palopo	7	Julio	2023-07-13T00:00:00	2024-11-08T21:00:00	7	Dirección del viento	8.05
182627	7	Sololá	712	San Antonio Palopó	9	San Antonio Palopo	7	Julio	2023-07-13T00:00:00	2024-11-08T21:00:00	1	Precipitación	0
182628	7	Sololá	712	San Antonio Palopó	9	San Antonio Palopo	7	Julio	2023-07-13T00:00:00	2024-11-08T21:00:00	8	Radiación solar	0
182629	7	Sololá	712	San Antonio Palopó	9	San Antonio Palopo	7	Julio	2023-07-13T00:00:00	2024-11-08T22:00:00	2	Temperatura media	22.1
182630	7	Sololá	712	San Antonio Palopó	9	San Antonio Palopo	7	Julio	2023-07-13T00:00:00	2024-11-08T22:00:00	4	Temperatura máxima	22.3
182631	7	Sololá	712	San Antonio Palopó	9	San Antonio Palopo	7	Julio	2023-07-13T00:00:00	2024-11-08T22:00:00	3	Temperatura mínima	21.9
182632	7	Sololá	712	San Antonio Palopó	9	San Antonio Palopo	7	Julio	2023-07-13T00:00:00	2024-11-08T22:00:00	5	Humedad	68
182633	7	Sololá	712	San Antonio Palopó	9	San Antonio Palopo	7	Julio	2023-07-13T00:00:00	2024-11-08T22:00:00	6	Velocidad del viento	3.2
182634	7	Sololá	712	San Antonio Palopó	9	San Antonio Palopo	7	Julio	2023-07-13T00:00:00	2024-11-08T22:00:00	7	Dirección del viento	3.22
182635	7	Sololá	712	San Antonio Palopó	9	San Antonio Palopo	7	Julio	2023-07-13T00:00:00	2024-11-08T22:00:00	1	Precipitación	0
182636	7	Sololá	712	San Antonio Palopó	9	San Antonio Palopo	7	Julio	2023-07-13T00:00:00	2024-11-08T22:00:00	8	Radiación solar	0
182637	7	Sololá	712	San Antonio Palopó	9	San Antonio Palopo	7	Julio	2023-07-13T00:00:00	2024-11-08T23:00:00	2	Temperatura media	19.3
182638	7	Sololá	712	San Antonio Palopó	9	San Antonio Palopo	7	Julio	2023-07-13T00:00:00	2024-11-08T23:00:00	4	Temperatura máxima	22.1
182639	7	Sololá	712	San Antonio Palopó	9	San Antonio Palopo	7	Julio	2023-07-13T00:00:00	2024-11-08T23:00:00	3	Temperatura mínima	19.2
182640	7	Sololá	712	San Antonio Palopó	9	San Antonio Palopo	7	Julio	2023-07-13T00:00:00	2024-11-08T23:00:00	5	Humedad	81
182641	7	Sololá	712	San Antonio Palopó	9	San Antonio Palopo	7	Julio	2023-07-13T00:00:00	2024-11-08T23:00:00	6	Velocidad del viento	8
182642	7	Sololá	712	San Antonio Palopó	9	San Antonio Palopo	7	Julio	2023-07-13T00:00:00	2024-11-08T23:00:00	7	Dirección del viento	8.05
182643	7	Sololá	712	San Antonio Palopó	9	San Antonio Palopo	7	Julio	2023-07-13T00:00:00	2024-11-08T23:00:00	1	Precipitación	5.6
182644	7	Sololá	712	San Antonio Palopó	9	San Antonio Palopo	7	Julio	2023-07-13T00:00:00	2024-11-08T23:00:00	8	Radiación solar	0
182645	7	Sololá	712	San Antonio Palopó	9	San Antonio Palopo	7	Julio	2023-07-14T00:00:00	2024-11-08T00:00:00	2	Temperatura media	18.4
182646	7	Sololá	712	San Antonio Palopó	9	San Antonio Palopo	7	Julio	2023-07-14T00:00:00	2024-11-08T00:00:00	4	Temperatura máxima	19.3
182647	7	Sololá	712	San Antonio Palopó	9	San Antonio Palopo	7	Julio	2023-07-14T00:00:00	2024-11-08T00:00:00	3	Temperatura mínima	18.4
182648	7	Sololá	712	San Antonio Palopó	9	San Antonio Palopo	7	Julio	2023-07-14T00:00:00	2024-11-08T00:00:00	5	Humedad	81
182649	7	Sololá	712	San Antonio Palopó	9	San Antonio Palopo	7	Julio	2023-07-14T00:00:00	2024-11-08T00:00:00	6	Velocidad del viento	3.2
182650	7	Sololá	712	San Antonio Palopó	9	San Antonio Palopo	7	Julio	2023-07-14T00:00:00	2024-11-08T00:00:00	7	Dirección del viento	3.22
182651	7	Sololá	712	San Antonio Palopó	9	San Antonio Palopo	7	Julio	2023-07-14T00:00:00	2024-11-08T00:00:00	1	Precipitación	0.2
182652	7	Sololá	712	San Antonio Palopó	9	San Antonio Palopo	7	Julio	2023-07-14T00:00:00	2024-11-08T00:00:00	8	Radiación solar	0
182653	7	Sololá	712	San Antonio Palopó	9	San Antonio Palopo	7	Julio	2023-07-14T00:00:00	2024-11-08T01:00:00	2	Temperatura media	18.5
182654	7	Sololá	712	San Antonio Palopó	9	San Antonio Palopo	7	Julio	2023-07-14T00:00:00	2024-11-08T01:00:00	4	Temperatura máxima	18.7
182655	7	Sololá	712	San Antonio Palopó	9	San Antonio Palopo	7	Julio	2023-07-14T00:00:00	2024-11-08T01:00:00	3	Temperatura mínima	18.1
182656	7	Sololá	712	San Antonio Palopó	9	San Antonio Palopo	7	Julio	2023-07-14T00:00:00	2024-11-08T01:00:00	5	Humedad	84
182657	7	Sololá	712	San Antonio Palopó	9	San Antonio Palopo	7	Julio	2023-07-14T00:00:00	2024-11-08T01:00:00	6	Velocidad del viento	3.2
182658	7	Sololá	712	San Antonio Palopó	9	San Antonio Palopo	7	Julio	2023-07-14T00:00:00	2024-11-08T01:00:00	7	Dirección del viento	3.22
182659	7	Sololá	712	San Antonio Palopó	9	San Antonio Palopo	7	Julio	2023-07-14T00:00:00	2024-11-08T01:00:00	1	Precipitación	0.2
182660	7	Sololá	712	San Antonio Palopó	9	San Antonio Palopo	7	Julio	2023-07-14T00:00:00	2024-11-08T01:00:00	8	Radiación solar	0
182661	7	Sololá	712	San Antonio Palopó	9	San Antonio Palopo	7	Julio	2023-07-14T00:00:00	2024-11-08T02:00:00	2	Temperatura media	18.6
182662	7	Sololá	712	San Antonio Palopó	9	San Antonio Palopo	7	Julio	2023-07-14T00:00:00	2024-11-08T02:00:00	4	Temperatura máxima	18.7
182663	7	Sololá	712	San Antonio Palopó	9	San Antonio Palopo	7	Julio	2023-07-14T00:00:00	2024-11-08T02:00:00	3	Temperatura mínima	18.3
182664	7	Sololá	712	San Antonio Palopó	9	San Antonio Palopo	7	Julio	2023-07-14T00:00:00	2024-11-08T02:00:00	5	Humedad	79
182665	7	Sololá	712	San Antonio Palopó	9	San Antonio Palopo	7	Julio	2023-07-14T00:00:00	2024-11-08T02:00:00	6	Velocidad del viento	3.2
182666	7	Sololá	712	San Antonio Palopó	9	San Antonio Palopo	7	Julio	2023-07-14T00:00:00	2024-11-08T02:00:00	7	Dirección del viento	3.22
182667	7	Sololá	712	San Antonio Palopó	9	San Antonio Palopo	7	Julio	2023-07-14T00:00:00	2024-11-08T02:00:00	1	Precipitación	0
182668	7	Sololá	712	San Antonio Palopó	9	San Antonio Palopo	7	Julio	2023-07-14T00:00:00	2024-11-08T02:00:00	8	Radiación solar	0
182669	7	Sololá	712	San Antonio Palopó	9	San Antonio Palopo	7	Julio	2023-07-14T00:00:00	2024-11-08T03:00:00	2	Temperatura media	19.4
182670	7	Sololá	712	San Antonio Palopó	9	San Antonio Palopo	7	Julio	2023-07-14T00:00:00	2024-11-08T03:00:00	4	Temperatura máxima	19.5
182671	7	Sololá	712	San Antonio Palopó	9	San Antonio Palopo	7	Julio	2023-07-14T00:00:00	2024-11-08T03:00:00	3	Temperatura mínima	18.6
182672	7	Sololá	712	San Antonio Palopó	9	San Antonio Palopo	7	Julio	2023-07-14T00:00:00	2024-11-08T03:00:00	5	Humedad	71
182673	7	Sololá	712	San Antonio Palopó	9	San Antonio Palopo	7	Julio	2023-07-14T00:00:00	2024-11-08T03:00:00	6	Velocidad del viento	8
182674	7	Sololá	712	San Antonio Palopó	9	San Antonio Palopo	7	Julio	2023-07-14T00:00:00	2024-11-08T03:00:00	7	Dirección del viento	8.05
182675	7	Sololá	712	San Antonio Palopó	9	San Antonio Palopo	7	Julio	2023-07-14T00:00:00	2024-11-08T03:00:00	1	Precipitación	0
182676	7	Sololá	712	San Antonio Palopó	9	San Antonio Palopo	7	Julio	2023-07-14T00:00:00	2024-11-08T03:00:00	8	Radiación solar	0
182677	7	Sololá	712	San Antonio Palopó	9	San Antonio Palopo	7	Julio	2023-07-14T00:00:00	2024-11-08T04:00:00	2	Temperatura media	19.9
182678	7	Sololá	712	San Antonio Palopó	9	San Antonio Palopo	7	Julio	2023-07-14T00:00:00	2024-11-08T04:00:00	4	Temperatura máxima	19.9
182679	7	Sololá	712	San Antonio Palopó	9	San Antonio Palopo	7	Julio	2023-07-14T00:00:00	2024-11-08T04:00:00	3	Temperatura mínima	19.4
182680	7	Sololá	712	San Antonio Palopó	9	San Antonio Palopo	7	Julio	2023-07-14T00:00:00	2024-11-08T04:00:00	5	Humedad	65
182681	7	Sololá	712	San Antonio Palopó	9	San Antonio Palopo	7	Julio	2023-07-14T00:00:00	2024-11-08T04:00:00	6	Velocidad del viento	6.4
182682	7	Sololá	712	San Antonio Palopó	9	San Antonio Palopo	7	Julio	2023-07-14T00:00:00	2024-11-08T04:00:00	7	Dirección del viento	6.44
182683	7	Sololá	712	San Antonio Palopó	9	San Antonio Palopo	7	Julio	2023-07-14T00:00:00	2024-11-08T04:00:00	1	Precipitación	0
182684	7	Sololá	712	San Antonio Palopó	9	San Antonio Palopo	7	Julio	2023-07-14T00:00:00	2024-11-08T04:00:00	8	Radiación solar	0
182685	7	Sololá	712	San Antonio Palopó	9	San Antonio Palopo	7	Julio	2023-07-14T00:00:00	2024-11-08T05:00:00	2	Temperatura media	19.4
182686	7	Sololá	712	San Antonio Palopó	9	San Antonio Palopo	7	Julio	2023-07-14T00:00:00	2024-11-08T05:00:00	4	Temperatura máxima	19.9
182687	7	Sololá	712	San Antonio Palopó	9	San Antonio Palopo	7	Julio	2023-07-14T00:00:00	2024-11-08T05:00:00	3	Temperatura mínima	19.4
182688	7	Sololá	712	San Antonio Palopó	9	San Antonio Palopo	7	Julio	2023-07-14T00:00:00	2024-11-08T05:00:00	5	Humedad	66
182689	7	Sololá	712	San Antonio Palopó	9	San Antonio Palopo	7	Julio	2023-07-14T00:00:00	2024-11-08T05:00:00	6	Velocidad del viento	9.7
182690	7	Sololá	712	San Antonio Palopó	9	San Antonio Palopo	7	Julio	2023-07-14T00:00:00	2024-11-08T05:00:00	7	Dirección del viento	9.66
182691	7	Sololá	712	San Antonio Palopó	9	San Antonio Palopo	7	Julio	2023-07-14T00:00:00	2024-11-08T05:00:00	1	Precipitación	0
182692	7	Sololá	712	San Antonio Palopó	9	San Antonio Palopo	7	Julio	2023-07-14T00:00:00	2024-11-08T05:00:00	8	Radiación solar	0
182693	7	Sololá	712	San Antonio Palopó	9	San Antonio Palopo	7	Julio	2023-07-14T00:00:00	2024-11-08T06:00:00	2	Temperatura media	19.8
182694	7	Sololá	712	San Antonio Palopó	9	San Antonio Palopo	7	Julio	2023-07-14T00:00:00	2024-11-08T06:00:00	4	Temperatura máxima	19.8
182695	7	Sololá	712	San Antonio Palopó	9	San Antonio Palopo	7	Julio	2023-07-14T00:00:00	2024-11-08T06:00:00	3	Temperatura mínima	19.4
182696	7	Sololá	712	San Antonio Palopó	9	San Antonio Palopo	7	Julio	2023-07-14T00:00:00	2024-11-08T06:00:00	5	Humedad	67
182697	7	Sololá	712	San Antonio Palopó	9	San Antonio Palopo	7	Julio	2023-07-14T00:00:00	2024-11-08T06:00:00	6	Velocidad del viento	12.9
182698	7	Sololá	712	San Antonio Palopó	9	San Antonio Palopo	7	Julio	2023-07-14T00:00:00	2024-11-08T06:00:00	7	Dirección del viento	12.87
182699	7	Sololá	712	San Antonio Palopó	9	San Antonio Palopo	7	Julio	2023-07-14T00:00:00	2024-11-08T06:00:00	1	Precipitación	0
182700	7	Sololá	712	San Antonio Palopó	9	San Antonio Palopo	7	Julio	2023-07-14T00:00:00	2024-11-08T06:00:00	8	Radiación solar	3
182701	7	Sololá	712	San Antonio Palopó	9	San Antonio Palopo	7	Julio	2023-07-14T00:00:00	2024-11-08T07:00:00	2	Temperatura media	20.7
182702	7	Sololá	712	San Antonio Palopó	9	San Antonio Palopo	7	Julio	2023-07-14T00:00:00	2024-11-08T07:00:00	4	Temperatura máxima	20.7
182703	7	Sololá	712	San Antonio Palopó	9	San Antonio Palopo	7	Julio	2023-07-14T00:00:00	2024-11-08T07:00:00	3	Temperatura mínima	19.7
182704	7	Sololá	712	San Antonio Palopó	9	San Antonio Palopo	7	Julio	2023-07-14T00:00:00	2024-11-08T07:00:00	5	Humedad	64
182705	7	Sololá	712	San Antonio Palopó	9	San Antonio Palopo	7	Julio	2023-07-14T00:00:00	2024-11-08T07:00:00	6	Velocidad del viento	9.7
182706	7	Sololá	712	San Antonio Palopó	9	San Antonio Palopo	7	Julio	2023-07-14T00:00:00	2024-11-08T07:00:00	7	Dirección del viento	9.66
182707	7	Sololá	712	San Antonio Palopó	9	San Antonio Palopo	7	Julio	2023-07-14T00:00:00	2024-11-08T07:00:00	1	Precipitación	0
182708	7	Sololá	712	San Antonio Palopó	9	San Antonio Palopo	7	Julio	2023-07-14T00:00:00	2024-11-08T07:00:00	8	Radiación solar	70
182709	7	Sololá	712	San Antonio Palopó	9	San Antonio Palopo	7	Julio	2023-07-14T00:00:00	2024-11-08T08:00:00	2	Temperatura media	21.8
182710	7	Sololá	712	San Antonio Palopó	9	San Antonio Palopo	7	Julio	2023-07-14T00:00:00	2024-11-08T08:00:00	4	Temperatura máxima	21.8
182711	7	Sololá	712	San Antonio Palopó	9	San Antonio Palopo	7	Julio	2023-07-14T00:00:00	2024-11-08T08:00:00	3	Temperatura mínima	20.6
182712	7	Sololá	712	San Antonio Palopó	9	San Antonio Palopo	7	Julio	2023-07-14T00:00:00	2024-11-08T08:00:00	5	Humedad	61
182713	7	Sololá	712	San Antonio Palopó	9	San Antonio Palopo	7	Julio	2023-07-14T00:00:00	2024-11-08T08:00:00	6	Velocidad del viento	4.8
182714	7	Sololá	712	San Antonio Palopó	9	San Antonio Palopo	7	Julio	2023-07-14T00:00:00	2024-11-08T08:00:00	7	Dirección del viento	4.83
182715	7	Sololá	712	San Antonio Palopó	9	San Antonio Palopo	7	Julio	2023-07-14T00:00:00	2024-11-08T08:00:00	1	Precipitación	0
182716	7	Sololá	712	San Antonio Palopó	9	San Antonio Palopo	7	Julio	2023-07-14T00:00:00	2024-11-08T08:00:00	8	Radiación solar	226
182717	7	Sololá	712	San Antonio Palopó	9	San Antonio Palopo	7	Julio	2023-07-14T00:00:00	2024-11-08T09:00:00	2	Temperatura media	22.8
182718	7	Sololá	712	San Antonio Palopó	9	San Antonio Palopo	7	Julio	2023-07-14T00:00:00	2024-11-08T09:00:00	4	Temperatura máxima	22.8
182719	7	Sololá	712	San Antonio Palopó	9	San Antonio Palopo	7	Julio	2023-07-14T00:00:00	2024-11-08T09:00:00	3	Temperatura mínima	21.6
182720	7	Sololá	712	San Antonio Palopó	9	San Antonio Palopo	7	Julio	2023-07-14T00:00:00	2024-11-08T09:00:00	5	Humedad	59
182721	7	Sololá	712	San Antonio Palopó	9	San Antonio Palopo	7	Julio	2023-07-14T00:00:00	2024-11-08T09:00:00	6	Velocidad del viento	8
182722	7	Sololá	712	San Antonio Palopó	9	San Antonio Palopo	7	Julio	2023-07-14T00:00:00	2024-11-08T09:00:00	7	Dirección del viento	8.05
182723	7	Sololá	712	San Antonio Palopó	9	San Antonio Palopo	7	Julio	2023-07-14T00:00:00	2024-11-08T09:00:00	1	Precipitación	0
182724	7	Sololá	712	San Antonio Palopó	9	San Antonio Palopo	7	Julio	2023-07-14T00:00:00	2024-11-08T09:00:00	8	Radiación solar	447
182725	7	Sololá	712	San Antonio Palopó	9	San Antonio Palopo	7	Julio	2023-07-14T00:00:00	2024-11-08T10:00:00	2	Temperatura media	23.2
182726	7	Sololá	712	San Antonio Palopó	9	San Antonio Palopo	7	Julio	2023-07-14T00:00:00	2024-11-08T10:00:00	4	Temperatura máxima	23.3
182727	7	Sololá	712	San Antonio Palopó	9	San Antonio Palopo	7	Julio	2023-07-14T00:00:00	2024-11-08T10:00:00	3	Temperatura mínima	22.7
182728	7	Sololá	712	San Antonio Palopó	9	San Antonio Palopo	7	Julio	2023-07-14T00:00:00	2024-11-08T10:00:00	5	Humedad	55
182729	7	Sololá	712	San Antonio Palopó	9	San Antonio Palopo	7	Julio	2023-07-14T00:00:00	2024-11-08T10:00:00	6	Velocidad del viento	14.5
182730	7	Sololá	712	San Antonio Palopó	9	San Antonio Palopo	7	Julio	2023-07-14T00:00:00	2024-11-08T10:00:00	7	Dirección del viento	14.48
182731	7	Sololá	712	San Antonio Palopó	9	San Antonio Palopo	7	Julio	2023-07-14T00:00:00	2024-11-08T10:00:00	1	Precipitación	0
182732	7	Sololá	712	San Antonio Palopó	9	San Antonio Palopo	7	Julio	2023-07-14T00:00:00	2024-11-08T10:00:00	8	Radiación solar	444
182733	7	Sololá	712	San Antonio Palopó	9	San Antonio Palopo	7	Julio	2023-07-14T00:00:00	2024-11-08T11:00:00	2	Temperatura media	24.4
182734	7	Sololá	712	San Antonio Palopó	9	San Antonio Palopo	7	Julio	2023-07-14T00:00:00	2024-11-08T11:00:00	4	Temperatura máxima	24.4
182735	7	Sololá	712	San Antonio Palopó	9	San Antonio Palopo	7	Julio	2023-07-14T00:00:00	2024-11-08T11:00:00	3	Temperatura mínima	23.2
182736	7	Sololá	712	San Antonio Palopó	9	San Antonio Palopo	7	Julio	2023-07-14T00:00:00	2024-11-08T11:00:00	5	Humedad	52
182737	7	Sololá	712	San Antonio Palopó	9	San Antonio Palopo	7	Julio	2023-07-14T00:00:00	2024-11-08T11:00:00	6	Velocidad del viento	17.7
182738	7	Sololá	712	San Antonio Palopó	9	San Antonio Palopo	7	Julio	2023-07-14T00:00:00	2024-11-08T11:00:00	7	Dirección del viento	17.7
182739	7	Sololá	712	San Antonio Palopó	9	San Antonio Palopo	7	Julio	2023-07-14T00:00:00	2024-11-08T11:00:00	1	Precipitación	0
182740	7	Sololá	712	San Antonio Palopó	9	San Antonio Palopo	7	Julio	2023-07-14T00:00:00	2024-11-08T11:00:00	8	Radiación solar	657
182741	7	Sololá	712	San Antonio Palopó	9	San Antonio Palopo	7	Julio	2023-07-14T00:00:00	2024-11-08T12:00:00	2	Temperatura media	25.4
182742	7	Sololá	712	San Antonio Palopó	9	San Antonio Palopo	7	Julio	2023-07-14T00:00:00	2024-11-08T12:00:00	4	Temperatura máxima	25.6
182743	7	Sololá	712	San Antonio Palopó	9	San Antonio Palopo	7	Julio	2023-07-14T00:00:00	2024-11-08T12:00:00	3	Temperatura mínima	24.4
182744	7	Sololá	712	San Antonio Palopó	9	San Antonio Palopo	7	Julio	2023-07-14T00:00:00	2024-11-08T12:00:00	5	Humedad	51
182745	7	Sololá	712	San Antonio Palopó	9	San Antonio Palopo	7	Julio	2023-07-14T00:00:00	2024-11-08T12:00:00	6	Velocidad del viento	14.5
182746	7	Sololá	712	San Antonio Palopó	9	San Antonio Palopo	7	Julio	2023-07-14T00:00:00	2024-11-08T12:00:00	7	Dirección del viento	14.48
182747	7	Sololá	712	San Antonio Palopó	9	San Antonio Palopo	7	Julio	2023-07-14T00:00:00	2024-11-08T12:00:00	1	Precipitación	0
182748	7	Sololá	712	San Antonio Palopó	9	San Antonio Palopo	7	Julio	2023-07-14T00:00:00	2024-11-08T12:00:00	8	Radiación solar	800
182749	7	Sololá	712	San Antonio Palopó	9	San Antonio Palopo	7	Julio	2023-07-14T00:00:00	2024-11-08T13:00:00	2	Temperatura media	26.2
182750	7	Sololá	712	San Antonio Palopó	9	San Antonio Palopo	7	Julio	2023-07-14T00:00:00	2024-11-08T13:00:00	4	Temperatura máxima	26.4
182751	7	Sololá	712	San Antonio Palopó	9	San Antonio Palopo	7	Julio	2023-07-14T00:00:00	2024-11-08T13:00:00	3	Temperatura mínima	25.3
182752	7	Sololá	712	San Antonio Palopó	9	San Antonio Palopo	7	Julio	2023-07-14T00:00:00	2024-11-08T13:00:00	5	Humedad	46
182753	7	Sololá	712	San Antonio Palopó	9	San Antonio Palopo	7	Julio	2023-07-14T00:00:00	2024-11-08T13:00:00	6	Velocidad del viento	14.5
182754	7	Sololá	712	San Antonio Palopó	9	San Antonio Palopo	7	Julio	2023-07-14T00:00:00	2024-11-08T13:00:00	7	Dirección del viento	14.48
182755	7	Sololá	712	San Antonio Palopó	9	San Antonio Palopo	7	Julio	2023-07-14T00:00:00	2024-11-08T13:00:00	1	Precipitación	0
182756	7	Sololá	712	San Antonio Palopó	9	San Antonio Palopo	7	Julio	2023-07-14T00:00:00	2024-11-08T13:00:00	8	Radiación solar	982
182757	7	Sololá	712	San Antonio Palopó	9	San Antonio Palopo	7	Julio	2023-07-14T00:00:00	2024-11-08T14:00:00	2	Temperatura media	26.9
182758	7	Sololá	712	San Antonio Palopó	9	San Antonio Palopo	7	Julio	2023-07-14T00:00:00	2024-11-08T14:00:00	4	Temperatura máxima	27.1
182759	7	Sololá	712	San Antonio Palopó	9	San Antonio Palopo	7	Julio	2023-07-14T00:00:00	2024-11-08T14:00:00	3	Temperatura mínima	26.2
182760	7	Sololá	712	San Antonio Palopó	9	San Antonio Palopo	7	Julio	2023-07-14T00:00:00	2024-11-08T14:00:00	5	Humedad	45
182761	7	Sololá	712	San Antonio Palopó	9	San Antonio Palopo	7	Julio	2023-07-14T00:00:00	2024-11-08T14:00:00	6	Velocidad del viento	12.9
182762	7	Sololá	712	San Antonio Palopó	9	San Antonio Palopo	7	Julio	2023-07-14T00:00:00	2024-11-08T14:00:00	7	Dirección del viento	12.87
182763	7	Sololá	712	San Antonio Palopó	9	San Antonio Palopo	7	Julio	2023-07-14T00:00:00	2024-11-08T14:00:00	1	Precipitación	0
182764	7	Sololá	712	San Antonio Palopó	9	San Antonio Palopo	7	Julio	2023-07-14T00:00:00	2024-11-08T14:00:00	8	Radiación solar	929
182765	7	Sololá	712	San Antonio Palopó	9	San Antonio Palopo	7	Julio	2023-07-14T00:00:00	2024-11-08T15:00:00	2	Temperatura media	27.8
182766	7	Sololá	712	San Antonio Palopó	9	San Antonio Palopo	7	Julio	2023-07-14T00:00:00	2024-11-08T15:00:00	4	Temperatura máxima	27.8
182767	7	Sololá	712	San Antonio Palopó	9	San Antonio Palopo	7	Julio	2023-07-14T00:00:00	2024-11-08T15:00:00	3	Temperatura mínima	26.9
182768	7	Sololá	712	San Antonio Palopó	9	San Antonio Palopo	7	Julio	2023-07-14T00:00:00	2024-11-08T15:00:00	5	Humedad	47
182769	7	Sololá	712	San Antonio Palopó	9	San Antonio Palopo	7	Julio	2023-07-14T00:00:00	2024-11-08T15:00:00	6	Velocidad del viento	9.7
182770	7	Sololá	712	San Antonio Palopó	9	San Antonio Palopo	7	Julio	2023-07-14T00:00:00	2024-11-08T15:00:00	7	Dirección del viento	9.66
182771	7	Sololá	712	San Antonio Palopó	9	San Antonio Palopo	7	Julio	2023-07-14T00:00:00	2024-11-08T15:00:00	1	Precipitación	0
182772	7	Sololá	712	San Antonio Palopó	9	San Antonio Palopo	7	Julio	2023-07-14T00:00:00	2024-11-08T15:00:00	8	Radiación solar	804
182773	7	Sololá	712	San Antonio Palopó	9	San Antonio Palopo	7	Julio	2023-07-14T00:00:00	2024-11-08T16:00:00	2	Temperatura media	27.6
182774	7	Sololá	712	San Antonio Palopó	9	San Antonio Palopo	7	Julio	2023-07-14T00:00:00	2024-11-08T16:00:00	4	Temperatura máxima	27.8
182775	7	Sololá	712	San Antonio Palopó	9	San Antonio Palopo	7	Julio	2023-07-14T00:00:00	2024-11-08T16:00:00	3	Temperatura mínima	26.8
182776	7	Sololá	712	San Antonio Palopó	9	San Antonio Palopo	7	Julio	2023-07-14T00:00:00	2024-11-08T16:00:00	5	Humedad	49
182777	7	Sololá	712	San Antonio Palopó	9	San Antonio Palopo	7	Julio	2023-07-14T00:00:00	2024-11-08T16:00:00	6	Velocidad del viento	8
182778	7	Sololá	712	San Antonio Palopó	9	San Antonio Palopo	7	Julio	2023-07-14T00:00:00	2024-11-08T16:00:00	7	Dirección del viento	8.05
182779	7	Sololá	712	San Antonio Palopó	9	San Antonio Palopo	7	Julio	2023-07-14T00:00:00	2024-11-08T16:00:00	1	Precipitación	0
182780	7	Sololá	712	San Antonio Palopó	9	San Antonio Palopo	7	Julio	2023-07-14T00:00:00	2024-11-08T16:00:00	8	Radiación solar	530
182781	7	Sololá	712	San Antonio Palopó	9	San Antonio Palopo	7	Julio	2023-07-14T00:00:00	2024-11-08T17:00:00	2	Temperatura media	25.5
182782	7	Sololá	712	San Antonio Palopó	9	San Antonio Palopo	7	Julio	2023-07-14T00:00:00	2024-11-08T17:00:00	4	Temperatura máxima	27.7
182783	7	Sololá	712	San Antonio Palopó	9	San Antonio Palopo	7	Julio	2023-07-14T00:00:00	2024-11-08T17:00:00	3	Temperatura mínima	25.3
182784	7	Sololá	712	San Antonio Palopó	9	San Antonio Palopo	7	Julio	2023-07-14T00:00:00	2024-11-08T17:00:00	5	Humedad	51
182785	7	Sololá	712	San Antonio Palopó	9	San Antonio Palopo	7	Julio	2023-07-14T00:00:00	2024-11-08T17:00:00	6	Velocidad del viento	11.3
182786	7	Sololá	712	San Antonio Palopó	9	San Antonio Palopo	7	Julio	2023-07-14T00:00:00	2024-11-08T17:00:00	7	Dirección del viento	11.27
182787	7	Sololá	712	San Antonio Palopó	9	San Antonio Palopo	7	Julio	2023-07-14T00:00:00	2024-11-08T17:00:00	1	Precipitación	0
182788	7	Sololá	712	San Antonio Palopó	9	San Antonio Palopo	7	Julio	2023-07-14T00:00:00	2024-11-08T17:00:00	8	Radiación solar	300
182789	7	Sololá	712	San Antonio Palopó	9	San Antonio Palopo	7	Julio	2023-07-14T00:00:00	2024-11-08T18:00:00	2	Temperatura media	25.3
182790	7	Sololá	712	San Antonio Palopó	9	San Antonio Palopo	7	Julio	2023-07-14T00:00:00	2024-11-08T18:00:00	4	Temperatura máxima	25.6
182791	7	Sololá	712	San Antonio Palopó	9	San Antonio Palopo	7	Julio	2023-07-14T00:00:00	2024-11-08T18:00:00	3	Temperatura mínima	24.5
182792	7	Sololá	712	San Antonio Palopó	9	San Antonio Palopo	7	Julio	2023-07-14T00:00:00	2024-11-08T18:00:00	5	Humedad	51
182793	7	Sololá	712	San Antonio Palopó	9	San Antonio Palopo	7	Julio	2023-07-14T00:00:00	2024-11-08T18:00:00	6	Velocidad del viento	4.8
182794	7	Sololá	712	San Antonio Palopó	9	San Antonio Palopo	7	Julio	2023-07-14T00:00:00	2024-11-08T18:00:00	7	Dirección del viento	4.83
182795	7	Sololá	712	San Antonio Palopó	9	San Antonio Palopo	7	Julio	2023-07-14T00:00:00	2024-11-08T18:00:00	1	Precipitación	0
182796	7	Sololá	712	San Antonio Palopó	9	San Antonio Palopo	7	Julio	2023-07-14T00:00:00	2024-11-08T18:00:00	8	Radiación solar	107
182797	7	Sololá	712	San Antonio Palopó	9	San Antonio Palopo	7	Julio	2023-07-14T00:00:00	2024-11-08T19:00:00	2	Temperatura media	22.9
182798	7	Sololá	712	San Antonio Palopó	9	San Antonio Palopo	7	Julio	2023-07-14T00:00:00	2024-11-08T19:00:00	4	Temperatura máxima	25.3
182799	7	Sololá	712	San Antonio Palopó	9	San Antonio Palopo	7	Julio	2023-07-14T00:00:00	2024-11-08T19:00:00	3	Temperatura mínima	22.9
182800	7	Sololá	712	San Antonio Palopó	9	San Antonio Palopo	7	Julio	2023-07-14T00:00:00	2024-11-08T19:00:00	5	Humedad	60
182801	7	Sololá	712	San Antonio Palopó	9	San Antonio Palopo	7	Julio	2023-07-14T00:00:00	2024-11-08T19:00:00	6	Velocidad del viento	6.4
182802	7	Sololá	712	San Antonio Palopó	9	San Antonio Palopo	7	Julio	2023-07-14T00:00:00	2024-11-08T19:00:00	7	Dirección del viento	6.44
182803	7	Sololá	712	San Antonio Palopó	9	San Antonio Palopo	7	Julio	2023-07-14T00:00:00	2024-11-08T19:00:00	1	Precipitación	0
182804	7	Sololá	712	San Antonio Palopó	9	San Antonio Palopo	7	Julio	2023-07-14T00:00:00	2024-11-08T19:00:00	8	Radiación solar	0
182805	7	Sololá	712	San Antonio Palopó	9	San Antonio Palopo	7	Julio	2023-07-14T00:00:00	2024-11-08T20:00:00	2	Temperatura media	22
182806	7	Sololá	712	San Antonio Palopó	9	San Antonio Palopo	7	Julio	2023-07-14T00:00:00	2024-11-08T20:00:00	4	Temperatura máxima	22.9
182807	7	Sololá	712	San Antonio Palopó	9	San Antonio Palopo	7	Julio	2023-07-14T00:00:00	2024-11-08T20:00:00	3	Temperatura mínima	22
182808	7	Sololá	712	San Antonio Palopó	9	San Antonio Palopo	7	Julio	2023-07-14T00:00:00	2024-11-08T20:00:00	5	Humedad	66
182809	7	Sololá	712	San Antonio Palopó	9	San Antonio Palopo	7	Julio	2023-07-14T00:00:00	2024-11-08T20:00:00	6	Velocidad del viento	6.4
182810	7	Sololá	712	San Antonio Palopó	9	San Antonio Palopo	7	Julio	2023-07-14T00:00:00	2024-11-08T20:00:00	7	Dirección del viento	6.44
182811	7	Sololá	712	San Antonio Palopó	9	San Antonio Palopo	7	Julio	2023-07-14T00:00:00	2024-11-08T20:00:00	1	Precipitación	0
182812	7	Sololá	712	San Antonio Palopó	9	San Antonio Palopo	7	Julio	2023-07-14T00:00:00	2024-11-08T20:00:00	8	Radiación solar	0
182813	7	Sololá	712	San Antonio Palopó	9	San Antonio Palopo	7	Julio	2023-07-14T00:00:00	2024-11-08T21:00:00	2	Temperatura media	21.5
182814	7	Sololá	712	San Antonio Palopó	9	San Antonio Palopo	7	Julio	2023-07-14T00:00:00	2024-11-08T21:00:00	4	Temperatura máxima	22
182815	7	Sololá	712	San Antonio Palopó	9	San Antonio Palopo	7	Julio	2023-07-14T00:00:00	2024-11-08T21:00:00	3	Temperatura mínima	21.3
182816	7	Sololá	712	San Antonio Palopó	9	San Antonio Palopo	7	Julio	2023-07-14T00:00:00	2024-11-08T21:00:00	5	Humedad	69
182817	7	Sololá	712	San Antonio Palopó	9	San Antonio Palopo	7	Julio	2023-07-14T00:00:00	2024-11-08T21:00:00	6	Velocidad del viento	6.4
182818	7	Sololá	712	San Antonio Palopó	9	San Antonio Palopo	7	Julio	2023-07-14T00:00:00	2024-11-08T21:00:00	7	Dirección del viento	6.44
182819	7	Sololá	712	San Antonio Palopó	9	San Antonio Palopo	7	Julio	2023-07-14T00:00:00	2024-11-08T21:00:00	1	Precipitación	0
182820	7	Sololá	712	San Antonio Palopó	9	San Antonio Palopo	7	Julio	2023-07-14T00:00:00	2024-11-08T21:00:00	8	Radiación solar	0
182821	7	Sololá	712	San Antonio Palopó	9	San Antonio Palopo	7	Julio	2023-07-14T00:00:00	2024-11-08T22:00:00	2	Temperatura media	21.6
182822	7	Sololá	712	San Antonio Palopó	9	San Antonio Palopo	7	Julio	2023-07-14T00:00:00	2024-11-08T22:00:00	4	Temperatura máxima	21.6
182823	7	Sololá	712	San Antonio Palopó	9	San Antonio Palopo	7	Julio	2023-07-14T00:00:00	2024-11-08T22:00:00	3	Temperatura mínima	21.1
182824	7	Sololá	712	San Antonio Palopó	9	San Antonio Palopo	7	Julio	2023-07-14T00:00:00	2024-11-08T22:00:00	5	Humedad	65
182825	7	Sololá	712	San Antonio Palopó	9	San Antonio Palopo	7	Julio	2023-07-14T00:00:00	2024-11-08T22:00:00	6	Velocidad del viento	4.8
182826	7	Sololá	712	San Antonio Palopó	9	San Antonio Palopo	7	Julio	2023-07-14T00:00:00	2024-11-08T22:00:00	7	Dirección del viento	4.83
182827	7	Sololá	712	San Antonio Palopó	9	San Antonio Palopo	7	Julio	2023-07-14T00:00:00	2024-11-08T22:00:00	1	Precipitación	0
182828	7	Sololá	712	San Antonio Palopó	9	San Antonio Palopo	7	Julio	2023-07-14T00:00:00	2024-11-08T22:00:00	8	Radiación solar	0
182829	7	Sololá	712	San Antonio Palopó	9	San Antonio Palopo	7	Julio	2023-07-14T00:00:00	2024-11-08T23:00:00	2	Temperatura media	21.1
182830	7	Sololá	712	San Antonio Palopó	9	San Antonio Palopo	7	Julio	2023-07-14T00:00:00	2024-11-08T23:00:00	4	Temperatura máxima	21.6
182831	7	Sololá	712	San Antonio Palopó	9	San Antonio Palopo	7	Julio	2023-07-14T00:00:00	2024-11-08T23:00:00	3	Temperatura mínima	20.7
182832	7	Sololá	712	San Antonio Palopó	9	San Antonio Palopo	7	Julio	2023-07-14T00:00:00	2024-11-08T23:00:00	5	Humedad	63
182833	7	Sololá	712	San Antonio Palopó	9	San Antonio Palopo	7	Julio	2023-07-14T00:00:00	2024-11-08T23:00:00	6	Velocidad del viento	6.4
182834	7	Sololá	712	San Antonio Palopó	9	San Antonio Palopo	7	Julio	2023-07-14T00:00:00	2024-11-08T23:00:00	7	Dirección del viento	6.44
182835	7	Sololá	712	San Antonio Palopó	9	San Antonio Palopo	7	Julio	2023-07-14T00:00:00	2024-11-08T23:00:00	1	Precipitación	0
182836	7	Sololá	712	San Antonio Palopó	9	San Antonio Palopo	7	Julio	2023-07-14T00:00:00	2024-11-08T23:00:00	8	Radiación solar	0
182837	7	Sololá	712	San Antonio Palopó	9	San Antonio Palopo	7	Julio	2023-07-15T00:00:00	2024-11-08T00:00:00	2	Temperatura media	20.6
182838	7	Sololá	712	San Antonio Palopó	9	San Antonio Palopo	7	Julio	2023-07-15T00:00:00	2024-11-08T00:00:00	4	Temperatura máxima	21.1
182839	7	Sololá	712	San Antonio Palopó	9	San Antonio Palopo	7	Julio	2023-07-15T00:00:00	2024-11-08T00:00:00	3	Temperatura mínima	20.6
182840	7	Sololá	712	San Antonio Palopó	9	San Antonio Palopo	7	Julio	2023-07-15T00:00:00	2024-11-08T00:00:00	5	Humedad	65
182841	7	Sololá	712	San Antonio Palopó	9	San Antonio Palopo	7	Julio	2023-07-15T00:00:00	2024-11-08T00:00:00	6	Velocidad del viento	6.4
182842	7	Sololá	712	San Antonio Palopó	9	San Antonio Palopo	7	Julio	2023-07-15T00:00:00	2024-11-08T00:00:00	7	Dirección del viento	6.44
182843	7	Sololá	712	San Antonio Palopó	9	San Antonio Palopo	7	Julio	2023-07-15T00:00:00	2024-11-08T00:00:00	1	Precipitación	0
182844	7	Sololá	712	San Antonio Palopó	9	San Antonio Palopo	7	Julio	2023-07-15T00:00:00	2024-11-08T00:00:00	8	Radiación solar	0
182845	7	Sololá	712	San Antonio Palopó	9	San Antonio Palopo	7	Julio	2023-07-15T00:00:00	2024-11-08T01:00:00	2	Temperatura media	20.8
182846	7	Sololá	712	San Antonio Palopó	9	San Antonio Palopo	7	Julio	2023-07-15T00:00:00	2024-11-08T01:00:00	4	Temperatura máxima	20.8
182847	7	Sololá	712	San Antonio Palopó	9	San Antonio Palopo	7	Julio	2023-07-15T00:00:00	2024-11-08T01:00:00	3	Temperatura mínima	19.9
182848	7	Sololá	712	San Antonio Palopó	9	San Antonio Palopo	7	Julio	2023-07-15T00:00:00	2024-11-08T01:00:00	5	Humedad	65
182849	7	Sololá	712	San Antonio Palopó	9	San Antonio Palopo	7	Julio	2023-07-15T00:00:00	2024-11-08T01:00:00	6	Velocidad del viento	4.8
182850	7	Sololá	712	San Antonio Palopó	9	San Antonio Palopo	7	Julio	2023-07-15T00:00:00	2024-11-08T01:00:00	7	Dirección del viento	4.83
182851	7	Sololá	712	San Antonio Palopó	9	San Antonio Palopo	7	Julio	2023-07-15T00:00:00	2024-11-08T01:00:00	1	Precipitación	0
182852	7	Sololá	712	San Antonio Palopó	9	San Antonio Palopo	7	Julio	2023-07-15T00:00:00	2024-11-08T01:00:00	8	Radiación solar	0
182853	7	Sololá	712	San Antonio Palopó	9	San Antonio Palopo	7	Julio	2023-07-15T00:00:00	2024-11-08T02:00:00	2	Temperatura media	20.2
182854	7	Sololá	712	San Antonio Palopó	9	San Antonio Palopo	7	Julio	2023-07-15T00:00:00	2024-11-08T02:00:00	4	Temperatura máxima	20.9
182855	7	Sololá	712	San Antonio Palopó	9	San Antonio Palopo	7	Julio	2023-07-15T00:00:00	2024-11-08T02:00:00	3	Temperatura mínima	20.1
182856	7	Sololá	712	San Antonio Palopó	9	San Antonio Palopo	7	Julio	2023-07-15T00:00:00	2024-11-08T02:00:00	5	Humedad	66
182857	7	Sololá	712	San Antonio Palopó	9	San Antonio Palopo	7	Julio	2023-07-15T00:00:00	2024-11-08T02:00:00	6	Velocidad del viento	4.8
182858	7	Sololá	712	San Antonio Palopó	9	San Antonio Palopo	7	Julio	2023-07-15T00:00:00	2024-11-08T02:00:00	7	Dirección del viento	4.83
182859	7	Sololá	712	San Antonio Palopó	9	San Antonio Palopo	7	Julio	2023-07-15T00:00:00	2024-11-08T02:00:00	1	Precipitación	0
182860	7	Sololá	712	San Antonio Palopó	9	San Antonio Palopo	7	Julio	2023-07-15T00:00:00	2024-11-08T02:00:00	8	Radiación solar	0
182861	7	Sololá	712	San Antonio Palopó	9	San Antonio Palopo	7	Julio	2023-07-15T00:00:00	2024-11-08T03:00:00	2	Temperatura media	19
182862	7	Sololá	712	San Antonio Palopó	9	San Antonio Palopo	7	Julio	2023-07-15T00:00:00	2024-11-08T03:00:00	4	Temperatura máxima	20.4
182863	7	Sololá	712	San Antonio Palopó	9	San Antonio Palopo	7	Julio	2023-07-15T00:00:00	2024-11-08T03:00:00	3	Temperatura mínima	19
182864	7	Sololá	712	San Antonio Palopó	9	San Antonio Palopo	7	Julio	2023-07-15T00:00:00	2024-11-08T03:00:00	5	Humedad	71
182865	7	Sololá	712	San Antonio Palopó	9	San Antonio Palopo	7	Julio	2023-07-15T00:00:00	2024-11-08T03:00:00	6	Velocidad del viento	3.2
182866	7	Sololá	712	San Antonio Palopó	9	San Antonio Palopo	7	Julio	2023-07-15T00:00:00	2024-11-08T03:00:00	7	Dirección del viento	3.22
182867	7	Sololá	712	San Antonio Palopó	9	San Antonio Palopo	7	Julio	2023-07-15T00:00:00	2024-11-08T03:00:00	1	Precipitación	0
182868	7	Sololá	712	San Antonio Palopó	9	San Antonio Palopo	7	Julio	2023-07-15T00:00:00	2024-11-08T03:00:00	8	Radiación solar	0
182869	7	Sololá	712	San Antonio Palopó	9	San Antonio Palopo	7	Julio	2023-07-15T00:00:00	2024-11-08T04:00:00	2	Temperatura media	19.4
182870	7	Sololá	712	San Antonio Palopó	9	San Antonio Palopo	7	Julio	2023-07-15T00:00:00	2024-11-08T04:00:00	4	Temperatura máxima	19.6
182871	7	Sololá	712	San Antonio Palopó	9	San Antonio Palopo	7	Julio	2023-07-15T00:00:00	2024-11-08T04:00:00	3	Temperatura mínima	18.9
182872	7	Sololá	712	San Antonio Palopó	9	San Antonio Palopo	7	Julio	2023-07-15T00:00:00	2024-11-08T04:00:00	5	Humedad	69
182873	7	Sololá	712	San Antonio Palopó	9	San Antonio Palopo	7	Julio	2023-07-15T00:00:00	2024-11-08T04:00:00	6	Velocidad del viento	4.8
182874	7	Sololá	712	San Antonio Palopó	9	San Antonio Palopo	7	Julio	2023-07-15T00:00:00	2024-11-08T04:00:00	7	Dirección del viento	4.83
182875	7	Sololá	712	San Antonio Palopó	9	San Antonio Palopo	7	Julio	2023-07-15T00:00:00	2024-11-08T04:00:00	1	Precipitación	0
182876	7	Sololá	712	San Antonio Palopó	9	San Antonio Palopo	7	Julio	2023-07-15T00:00:00	2024-11-08T04:00:00	8	Radiación solar	0
182877	7	Sololá	712	San Antonio Palopó	9	San Antonio Palopo	7	Julio	2023-07-15T00:00:00	2024-11-08T05:00:00	2	Temperatura media	19.7
182878	7	Sololá	712	San Antonio Palopó	9	San Antonio Palopo	7	Julio	2023-07-15T00:00:00	2024-11-08T05:00:00	4	Temperatura máxima	19.9
182879	7	Sololá	712	San Antonio Palopó	9	San Antonio Palopo	7	Julio	2023-07-15T00:00:00	2024-11-08T05:00:00	3	Temperatura mínima	19.4
182880	7	Sololá	712	San Antonio Palopó	9	San Antonio Palopo	7	Julio	2023-07-15T00:00:00	2024-11-08T05:00:00	5	Humedad	68
182881	7	Sololá	712	San Antonio Palopó	9	San Antonio Palopo	7	Julio	2023-07-15T00:00:00	2024-11-08T05:00:00	6	Velocidad del viento	4.8
182882	7	Sololá	712	San Antonio Palopó	9	San Antonio Palopo	7	Julio	2023-07-15T00:00:00	2024-11-08T05:00:00	7	Dirección del viento	4.83
182883	7	Sololá	712	San Antonio Palopó	9	San Antonio Palopo	7	Julio	2023-07-15T00:00:00	2024-11-08T05:00:00	1	Precipitación	0
182884	7	Sololá	712	San Antonio Palopó	9	San Antonio Palopo	7	Julio	2023-07-15T00:00:00	2024-11-08T05:00:00	8	Radiación solar	0
182885	7	Sololá	712	San Antonio Palopó	9	San Antonio Palopo	7	Julio	2023-07-15T00:00:00	2024-11-08T06:00:00	2	Temperatura media	19.4
182886	7	Sololá	712	San Antonio Palopó	9	San Antonio Palopo	7	Julio	2023-07-15T00:00:00	2024-11-08T06:00:00	4	Temperatura máxima	19.8
182887	7	Sololá	712	San Antonio Palopó	9	San Antonio Palopo	7	Julio	2023-07-15T00:00:00	2024-11-08T06:00:00	3	Temperatura mínima	19.4
182888	7	Sololá	712	San Antonio Palopó	9	San Antonio Palopo	7	Julio	2023-07-15T00:00:00	2024-11-08T06:00:00	5	Humedad	70
182889	7	Sololá	712	San Antonio Palopó	9	San Antonio Palopo	7	Julio	2023-07-15T00:00:00	2024-11-08T06:00:00	6	Velocidad del viento	4.8
182890	7	Sololá	712	San Antonio Palopó	9	San Antonio Palopo	7	Julio	2023-07-15T00:00:00	2024-11-08T06:00:00	7	Dirección del viento	4.83
182891	7	Sololá	712	San Antonio Palopó	9	San Antonio Palopo	7	Julio	2023-07-15T00:00:00	2024-11-08T06:00:00	1	Precipitación	0
182892	7	Sololá	712	San Antonio Palopó	9	San Antonio Palopo	7	Julio	2023-07-15T00:00:00	2024-11-08T06:00:00	8	Radiación solar	2
182893	7	Sololá	712	San Antonio Palopó	9	San Antonio Palopo	7	Julio	2023-07-15T00:00:00	2024-11-08T07:00:00	2	Temperatura media	20.1
182894	7	Sololá	712	San Antonio Palopó	9	San Antonio Palopo	7	Julio	2023-07-15T00:00:00	2024-11-08T07:00:00	4	Temperatura máxima	20.1
182895	7	Sololá	712	San Antonio Palopó	9	San Antonio Palopo	7	Julio	2023-07-15T00:00:00	2024-11-08T07:00:00	3	Temperatura mínima	19.3
182896	7	Sololá	712	San Antonio Palopó	9	San Antonio Palopo	7	Julio	2023-07-15T00:00:00	2024-11-08T07:00:00	5	Humedad	69
182897	7	Sololá	712	San Antonio Palopó	9	San Antonio Palopo	7	Julio	2023-07-15T00:00:00	2024-11-08T07:00:00	6	Velocidad del viento	3.2
182898	7	Sololá	712	San Antonio Palopó	9	San Antonio Palopo	7	Julio	2023-07-15T00:00:00	2024-11-08T07:00:00	7	Dirección del viento	3.22
182899	7	Sololá	712	San Antonio Palopó	9	San Antonio Palopo	7	Julio	2023-07-15T00:00:00	2024-11-08T07:00:00	1	Precipitación	0
182900	7	Sololá	712	San Antonio Palopó	9	San Antonio Palopo	7	Julio	2023-07-15T00:00:00	2024-11-08T07:00:00	8	Radiación solar	48
182901	7	Sololá	712	San Antonio Palopó	9	San Antonio Palopo	7	Julio	2023-07-15T00:00:00	2024-11-08T08:00:00	2	Temperatura media	21.1
182902	7	Sololá	712	San Antonio Palopó	9	San Antonio Palopo	7	Julio	2023-07-15T00:00:00	2024-11-08T08:00:00	4	Temperatura máxima	21.1
182903	7	Sololá	712	San Antonio Palopó	9	San Antonio Palopo	7	Julio	2023-07-15T00:00:00	2024-11-08T08:00:00	3	Temperatura mínima	20.1
182904	7	Sololá	712	San Antonio Palopó	9	San Antonio Palopo	7	Julio	2023-07-15T00:00:00	2024-11-08T08:00:00	5	Humedad	68
182905	7	Sololá	712	San Antonio Palopó	9	San Antonio Palopo	7	Julio	2023-07-15T00:00:00	2024-11-08T08:00:00	6	Velocidad del viento	8
182906	7	Sololá	712	San Antonio Palopó	9	San Antonio Palopo	7	Julio	2023-07-15T00:00:00	2024-11-08T08:00:00	7	Dirección del viento	8.05
182907	7	Sololá	712	San Antonio Palopó	9	San Antonio Palopo	7	Julio	2023-07-15T00:00:00	2024-11-08T08:00:00	1	Precipitación	0
182908	7	Sololá	712	San Antonio Palopó	9	San Antonio Palopo	7	Julio	2023-07-15T00:00:00	2024-11-08T08:00:00	8	Radiación solar	160
182909	7	Sololá	712	San Antonio Palopó	9	San Antonio Palopo	7	Julio	2023-07-15T00:00:00	2024-11-08T09:00:00	2	Temperatura media	22.2
182910	7	Sololá	712	San Antonio Palopó	9	San Antonio Palopo	7	Julio	2023-07-15T00:00:00	2024-11-08T09:00:00	4	Temperatura máxima	22.3
182911	7	Sololá	712	San Antonio Palopó	9	San Antonio Palopo	7	Julio	2023-07-15T00:00:00	2024-11-08T09:00:00	3	Temperatura mínima	21.1
182912	7	Sololá	712	San Antonio Palopó	9	San Antonio Palopo	7	Julio	2023-07-15T00:00:00	2024-11-08T09:00:00	5	Humedad	68
182913	7	Sololá	712	San Antonio Palopó	9	San Antonio Palopo	7	Julio	2023-07-15T00:00:00	2024-11-08T09:00:00	6	Velocidad del viento	6.4
182914	7	Sololá	712	San Antonio Palopó	9	San Antonio Palopo	7	Julio	2023-07-15T00:00:00	2024-11-08T09:00:00	7	Dirección del viento	6.44
182915	7	Sololá	712	San Antonio Palopó	9	San Antonio Palopo	7	Julio	2023-07-15T00:00:00	2024-11-08T09:00:00	1	Precipitación	0
182916	7	Sololá	712	San Antonio Palopó	9	San Antonio Palopo	7	Julio	2023-07-15T00:00:00	2024-11-08T09:00:00	8	Radiación solar	297
182917	7	Sololá	712	San Antonio Palopó	9	San Antonio Palopo	7	Julio	2023-07-15T00:00:00	2024-11-08T10:00:00	2	Temperatura media	23.8
182918	7	Sololá	712	San Antonio Palopó	9	San Antonio Palopo	7	Julio	2023-07-15T00:00:00	2024-11-08T10:00:00	4	Temperatura máxima	23.8
182919	7	Sololá	712	San Antonio Palopó	9	San Antonio Palopo	7	Julio	2023-07-15T00:00:00	2024-11-08T10:00:00	3	Temperatura mínima	22.1
182920	7	Sololá	712	San Antonio Palopó	9	San Antonio Palopo	7	Julio	2023-07-15T00:00:00	2024-11-08T10:00:00	5	Humedad	63
182921	7	Sololá	712	San Antonio Palopó	9	San Antonio Palopo	7	Julio	2023-07-15T00:00:00	2024-11-08T10:00:00	6	Velocidad del viento	3.2
182922	7	Sololá	712	San Antonio Palopó	9	San Antonio Palopo	7	Julio	2023-07-15T00:00:00	2024-11-08T10:00:00	7	Dirección del viento	3.22
182923	7	Sololá	712	San Antonio Palopó	9	San Antonio Palopo	7	Julio	2023-07-15T00:00:00	2024-11-08T10:00:00	1	Precipitación	0
182924	7	Sololá	712	San Antonio Palopó	9	San Antonio Palopo	7	Julio	2023-07-15T00:00:00	2024-11-08T10:00:00	8	Radiación solar	485
182925	7	Sololá	712	San Antonio Palopó	9	San Antonio Palopo	7	Julio	2023-07-15T00:00:00	2024-11-08T11:00:00	2	Temperatura media	25.1
182926	7	Sololá	712	San Antonio Palopó	9	San Antonio Palopo	7	Julio	2023-07-15T00:00:00	2024-11-08T11:00:00	4	Temperatura máxima	25.1
182927	7	Sololá	712	San Antonio Palopó	9	San Antonio Palopo	7	Julio	2023-07-15T00:00:00	2024-11-08T11:00:00	3	Temperatura mínima	23.8
182928	7	Sololá	712	San Antonio Palopó	9	San Antonio Palopo	7	Julio	2023-07-15T00:00:00	2024-11-08T11:00:00	5	Humedad	56
182929	7	Sololá	712	San Antonio Palopó	9	San Antonio Palopo	7	Julio	2023-07-15T00:00:00	2024-11-08T11:00:00	6	Velocidad del viento	8
182930	7	Sololá	712	San Antonio Palopó	9	San Antonio Palopo	7	Julio	2023-07-15T00:00:00	2024-11-08T11:00:00	7	Dirección del viento	8.05
182931	7	Sololá	712	San Antonio Palopó	9	San Antonio Palopo	7	Julio	2023-07-15T00:00:00	2024-11-08T11:00:00	1	Precipitación	0
182932	7	Sololá	712	San Antonio Palopó	9	San Antonio Palopo	7	Julio	2023-07-15T00:00:00	2024-11-08T11:00:00	8	Radiación solar	752
182933	7	Sololá	712	San Antonio Palopó	9	San Antonio Palopo	7	Julio	2023-07-15T00:00:00	2024-11-08T12:00:00	2	Temperatura media	24.5
182934	7	Sololá	712	San Antonio Palopó	9	San Antonio Palopo	7	Julio	2023-07-15T00:00:00	2024-11-08T12:00:00	4	Temperatura máxima	26.2
182935	7	Sololá	712	San Antonio Palopó	9	San Antonio Palopo	7	Julio	2023-07-15T00:00:00	2024-11-08T12:00:00	3	Temperatura mínima	24.5
182936	7	Sololá	712	San Antonio Palopó	9	San Antonio Palopo	7	Julio	2023-07-15T00:00:00	2024-11-08T12:00:00	5	Humedad	61
182937	7	Sololá	712	San Antonio Palopó	9	San Antonio Palopo	7	Julio	2023-07-15T00:00:00	2024-11-08T12:00:00	6	Velocidad del viento	9.7
182938	7	Sololá	712	San Antonio Palopó	9	San Antonio Palopo	7	Julio	2023-07-15T00:00:00	2024-11-08T12:00:00	7	Dirección del viento	9.66
182939	7	Sololá	712	San Antonio Palopó	9	San Antonio Palopo	7	Julio	2023-07-15T00:00:00	2024-11-08T12:00:00	1	Precipitación	0
182940	7	Sololá	712	San Antonio Palopó	9	San Antonio Palopo	7	Julio	2023-07-15T00:00:00	2024-11-08T12:00:00	8	Radiación solar	675
182941	7	Sololá	712	San Antonio Palopó	9	San Antonio Palopo	7	Julio	2023-07-15T00:00:00	2024-11-08T13:00:00	2	Temperatura media	23.4
182942	7	Sololá	712	San Antonio Palopó	9	San Antonio Palopo	7	Julio	2023-07-15T00:00:00	2024-11-08T13:00:00	4	Temperatura máxima	24.8
182943	7	Sololá	712	San Antonio Palopó	9	San Antonio Palopo	7	Julio	2023-07-15T00:00:00	2024-11-08T13:00:00	3	Temperatura mínima	23.3
182944	7	Sololá	712	San Antonio Palopó	9	San Antonio Palopo	7	Julio	2023-07-15T00:00:00	2024-11-08T13:00:00	5	Humedad	68
182945	7	Sololá	712	San Antonio Palopó	9	San Antonio Palopo	7	Julio	2023-07-15T00:00:00	2024-11-08T13:00:00	6	Velocidad del viento	17.7
182946	7	Sololá	712	San Antonio Palopó	9	San Antonio Palopo	7	Julio	2023-07-15T00:00:00	2024-11-08T13:00:00	7	Dirección del viento	17.7
182947	7	Sololá	712	San Antonio Palopó	9	San Antonio Palopo	7	Julio	2023-07-15T00:00:00	2024-11-08T13:00:00	1	Precipitación	0
182948	7	Sololá	712	San Antonio Palopó	9	San Antonio Palopo	7	Julio	2023-07-15T00:00:00	2024-11-08T13:00:00	8	Radiación solar	710
182949	7	Sololá	712	San Antonio Palopó	9	San Antonio Palopo	7	Julio	2023-07-15T00:00:00	2024-11-08T14:00:00	2	Temperatura media	24.4
182950	7	Sololá	712	San Antonio Palopó	9	San Antonio Palopo	7	Julio	2023-07-15T00:00:00	2024-11-08T14:00:00	4	Temperatura máxima	25.4
182951	7	Sololá	712	San Antonio Palopó	9	San Antonio Palopo	7	Julio	2023-07-15T00:00:00	2024-11-08T14:00:00	3	Temperatura mínima	23.4
182952	7	Sololá	712	San Antonio Palopó	9	San Antonio Palopo	7	Julio	2023-07-15T00:00:00	2024-11-08T14:00:00	5	Humedad	66
182953	7	Sololá	712	San Antonio Palopó	9	San Antonio Palopo	7	Julio	2023-07-15T00:00:00	2024-11-08T14:00:00	6	Velocidad del viento	8
182954	7	Sololá	712	San Antonio Palopó	9	San Antonio Palopo	7	Julio	2023-07-15T00:00:00	2024-11-08T14:00:00	7	Dirección del viento	8.05
182955	7	Sololá	712	San Antonio Palopó	9	San Antonio Palopo	7	Julio	2023-07-15T00:00:00	2024-11-08T14:00:00	1	Precipitación	0
182956	7	Sololá	712	San Antonio Palopó	9	San Antonio Palopo	7	Julio	2023-07-15T00:00:00	2024-11-08T14:00:00	8	Radiación solar	521
182957	7	Sololá	712	San Antonio Palopó	9	San Antonio Palopo	7	Julio	2023-07-15T00:00:00	2024-11-08T15:00:00	2	Temperatura media	24.2
182958	7	Sololá	712	San Antonio Palopó	9	San Antonio Palopo	7	Julio	2023-07-15T00:00:00	2024-11-08T15:00:00	4	Temperatura máxima	24.4
182959	7	Sololá	712	San Antonio Palopó	9	San Antonio Palopo	7	Julio	2023-07-15T00:00:00	2024-11-08T15:00:00	3	Temperatura mínima	23.1
182960	7	Sololá	712	San Antonio Palopó	9	San Antonio Palopo	7	Julio	2023-07-15T00:00:00	2024-11-08T15:00:00	5	Humedad	73
182961	7	Sololá	712	San Antonio Palopó	9	San Antonio Palopo	7	Julio	2023-07-15T00:00:00	2024-11-08T15:00:00	6	Velocidad del viento	8
182962	7	Sololá	712	San Antonio Palopó	9	San Antonio Palopo	7	Julio	2023-07-15T00:00:00	2024-11-08T15:00:00	7	Dirección del viento	8.05
182963	7	Sololá	712	San Antonio Palopó	9	San Antonio Palopo	7	Julio	2023-07-15T00:00:00	2024-11-08T15:00:00	1	Precipitación	0
182964	7	Sololá	712	San Antonio Palopó	9	San Antonio Palopo	7	Julio	2023-07-15T00:00:00	2024-11-08T15:00:00	8	Radiación solar	679
182965	7	Sololá	712	San Antonio Palopó	9	San Antonio Palopo	7	Julio	2023-07-15T00:00:00	2024-11-08T16:00:00	2	Temperatura media	24.7
182966	7	Sololá	712	San Antonio Palopó	9	San Antonio Palopo	7	Julio	2023-07-15T00:00:00	2024-11-08T16:00:00	4	Temperatura máxima	25.9
182967	7	Sololá	712	San Antonio Palopó	9	San Antonio Palopo	7	Julio	2023-07-15T00:00:00	2024-11-08T16:00:00	3	Temperatura mínima	23.3
182968	7	Sololá	712	San Antonio Palopó	9	San Antonio Palopo	7	Julio	2023-07-15T00:00:00	2024-11-08T16:00:00	5	Humedad	70
182969	7	Sololá	712	San Antonio Palopó	9	San Antonio Palopo	7	Julio	2023-07-15T00:00:00	2024-11-08T16:00:00	6	Velocidad del viento	6.4
182970	7	Sololá	712	San Antonio Palopó	9	San Antonio Palopo	7	Julio	2023-07-15T00:00:00	2024-11-08T16:00:00	7	Dirección del viento	6.44
182971	7	Sololá	712	San Antonio Palopó	9	San Antonio Palopo	7	Julio	2023-07-15T00:00:00	2024-11-08T16:00:00	1	Precipitación	0
182972	7	Sololá	712	San Antonio Palopó	9	San Antonio Palopo	7	Julio	2023-07-15T00:00:00	2024-11-08T16:00:00	8	Radiación solar	591
182973	7	Sololá	712	San Antonio Palopó	9	San Antonio Palopo	7	Julio	2023-07-15T00:00:00	2024-11-08T17:00:00	2	Temperatura media	23.1
182974	7	Sololá	712	San Antonio Palopó	9	San Antonio Palopo	7	Julio	2023-07-15T00:00:00	2024-11-08T17:00:00	4	Temperatura máxima	24.7
182975	7	Sololá	712	San Antonio Palopó	9	San Antonio Palopo	7	Julio	2023-07-15T00:00:00	2024-11-08T17:00:00	3	Temperatura mínima	23.1
182976	7	Sololá	712	San Antonio Palopó	9	San Antonio Palopo	7	Julio	2023-07-15T00:00:00	2024-11-08T17:00:00	5	Humedad	70
182977	7	Sololá	712	San Antonio Palopó	9	San Antonio Palopo	7	Julio	2023-07-15T00:00:00	2024-11-08T17:00:00	6	Velocidad del viento	6.4
182978	7	Sololá	712	San Antonio Palopó	9	San Antonio Palopo	7	Julio	2023-07-15T00:00:00	2024-11-08T17:00:00	7	Dirección del viento	6.44
182979	7	Sololá	712	San Antonio Palopó	9	San Antonio Palopo	7	Julio	2023-07-15T00:00:00	2024-11-08T17:00:00	1	Precipitación	0
182980	7	Sololá	712	San Antonio Palopó	9	San Antonio Palopo	7	Julio	2023-07-15T00:00:00	2024-11-08T17:00:00	8	Radiación solar	334
182981	7	Sololá	712	San Antonio Palopó	9	San Antonio Palopo	7	Julio	2023-07-15T00:00:00	2024-11-08T18:00:00	2	Temperatura media	22.4
182982	7	Sololá	712	San Antonio Palopó	9	San Antonio Palopo	7	Julio	2023-07-15T00:00:00	2024-11-08T18:00:00	4	Temperatura máxima	23.1
182983	7	Sololá	712	San Antonio Palopó	9	San Antonio Palopo	7	Julio	2023-07-15T00:00:00	2024-11-08T18:00:00	3	Temperatura mínima	22.1
182984	7	Sololá	712	San Antonio Palopó	9	San Antonio Palopo	7	Julio	2023-07-15T00:00:00	2024-11-08T18:00:00	5	Humedad	73
182985	7	Sololá	712	San Antonio Palopó	9	San Antonio Palopo	7	Julio	2023-07-15T00:00:00	2024-11-08T18:00:00	6	Velocidad del viento	3.2
182986	7	Sololá	712	San Antonio Palopó	9	San Antonio Palopo	7	Julio	2023-07-15T00:00:00	2024-11-08T18:00:00	7	Dirección del viento	3.22
182987	7	Sololá	712	San Antonio Palopó	9	San Antonio Palopo	7	Julio	2023-07-15T00:00:00	2024-11-08T18:00:00	1	Precipitación	0
182988	7	Sololá	712	San Antonio Palopó	9	San Antonio Palopo	7	Julio	2023-07-15T00:00:00	2024-11-08T18:00:00	8	Radiación solar	126
182989	7	Sololá	712	San Antonio Palopó	9	San Antonio Palopo	7	Julio	2023-07-15T00:00:00	2024-11-08T19:00:00	2	Temperatura media	21.3
182990	7	Sololá	712	San Antonio Palopó	9	San Antonio Palopo	7	Julio	2023-07-15T00:00:00	2024-11-08T19:00:00	4	Temperatura máxima	22.4
182991	7	Sololá	712	San Antonio Palopó	9	San Antonio Palopo	7	Julio	2023-07-15T00:00:00	2024-11-08T19:00:00	3	Temperatura mínima	21.3
182992	7	Sololá	712	San Antonio Palopó	9	San Antonio Palopo	7	Julio	2023-07-15T00:00:00	2024-11-08T19:00:00	5	Humedad	78
182993	7	Sololá	712	San Antonio Palopó	9	San Antonio Palopo	7	Julio	2023-07-15T00:00:00	2024-11-08T19:00:00	6	Velocidad del viento	1.6
182994	7	Sololá	712	San Antonio Palopó	9	San Antonio Palopo	7	Julio	2023-07-15T00:00:00	2024-11-08T19:00:00	7	Dirección del viento	1.61
182995	7	Sololá	712	San Antonio Palopó	9	San Antonio Palopo	7	Julio	2023-07-15T00:00:00	2024-11-08T19:00:00	1	Precipitación	0
182996	7	Sololá	712	San Antonio Palopó	9	San Antonio Palopo	7	Julio	2023-07-15T00:00:00	2024-11-08T19:00:00	8	Radiación solar	0
182997	7	Sololá	712	San Antonio Palopó	9	San Antonio Palopo	7	Julio	2023-07-15T00:00:00	2024-11-08T20:00:00	2	Temperatura media	21
182998	7	Sololá	712	San Antonio Palopó	9	San Antonio Palopo	7	Julio	2023-07-15T00:00:00	2024-11-08T20:00:00	4	Temperatura máxima	21.3
182999	7	Sololá	712	San Antonio Palopó	9	San Antonio Palopo	7	Julio	2023-07-15T00:00:00	2024-11-08T20:00:00	3	Temperatura mínima	20.9
183000	7	Sololá	712	San Antonio Palopó	9	San Antonio Palopo	7	Julio	2023-07-15T00:00:00	2024-11-08T20:00:00	5	Humedad	76
183001	7	Sololá	712	San Antonio Palopó	9	San Antonio Palopo	7	Julio	2023-07-15T00:00:00	2024-11-08T20:00:00	6	Velocidad del viento	1.6
183002	7	Sololá	712	San Antonio Palopó	9	San Antonio Palopo	7	Julio	2023-07-15T00:00:00	2024-11-08T20:00:00	7	Dirección del viento	1.61
183003	7	Sololá	712	San Antonio Palopó	9	San Antonio Palopo	7	Julio	2023-07-15T00:00:00	2024-11-08T20:00:00	1	Precipitación	0
183004	7	Sololá	712	San Antonio Palopó	9	San Antonio Palopo	7	Julio	2023-07-15T00:00:00	2024-11-08T20:00:00	8	Radiación solar	0
183005	7	Sololá	712	San Antonio Palopó	9	San Antonio Palopo	7	Julio	2023-07-15T00:00:00	2024-11-08T21:00:00	2	Temperatura media	21.3
183006	7	Sololá	712	San Antonio Palopó	9	San Antonio Palopo	7	Julio	2023-07-15T00:00:00	2024-11-08T21:00:00	4	Temperatura máxima	21.7
183007	7	Sololá	712	San Antonio Palopó	9	San Antonio Palopo	7	Julio	2023-07-15T00:00:00	2024-11-08T21:00:00	3	Temperatura mínima	21
183008	7	Sololá	712	San Antonio Palopó	9	San Antonio Palopo	7	Julio	2023-07-15T00:00:00	2024-11-08T21:00:00	5	Humedad	72
183009	7	Sololá	712	San Antonio Palopó	9	San Antonio Palopo	7	Julio	2023-07-15T00:00:00	2024-11-08T21:00:00	6	Velocidad del viento	3.2
183010	7	Sololá	712	San Antonio Palopó	9	San Antonio Palopo	7	Julio	2023-07-15T00:00:00	2024-11-08T21:00:00	7	Dirección del viento	3.22
183011	7	Sololá	712	San Antonio Palopó	9	San Antonio Palopo	7	Julio	2023-07-15T00:00:00	2024-11-08T21:00:00	1	Precipitación	0
183012	7	Sololá	712	San Antonio Palopó	9	San Antonio Palopo	7	Julio	2023-07-15T00:00:00	2024-11-08T21:00:00	8	Radiación solar	0
183013	7	Sololá	712	San Antonio Palopó	9	San Antonio Palopo	7	Julio	2023-07-15T00:00:00	2024-11-08T22:00:00	2	Temperatura media	21.2
183014	7	Sololá	712	San Antonio Palopó	9	San Antonio Palopo	7	Julio	2023-07-15T00:00:00	2024-11-08T22:00:00	4	Temperatura máxima	21.5
183015	7	Sololá	712	San Antonio Palopó	9	San Antonio Palopo	7	Julio	2023-07-15T00:00:00	2024-11-08T22:00:00	3	Temperatura mínima	21.1
183016	7	Sololá	712	San Antonio Palopó	9	San Antonio Palopo	7	Julio	2023-07-15T00:00:00	2024-11-08T22:00:00	5	Humedad	70
183017	7	Sololá	712	San Antonio Palopó	9	San Antonio Palopo	7	Julio	2023-07-15T00:00:00	2024-11-08T22:00:00	6	Velocidad del viento	6.4
183018	7	Sololá	712	San Antonio Palopó	9	San Antonio Palopo	7	Julio	2023-07-15T00:00:00	2024-11-08T22:00:00	7	Dirección del viento	6.44
183019	7	Sololá	712	San Antonio Palopó	9	San Antonio Palopo	7	Julio	2023-07-15T00:00:00	2024-11-08T22:00:00	1	Precipitación	0
183020	7	Sololá	712	San Antonio Palopó	9	San Antonio Palopo	7	Julio	2023-07-15T00:00:00	2024-11-08T22:00:00	8	Radiación solar	0
183021	7	Sololá	712	San Antonio Palopó	9	San Antonio Palopo	7	Julio	2023-07-15T00:00:00	2024-11-08T23:00:00	2	Temperatura media	20.6
183022	7	Sololá	712	San Antonio Palopó	9	San Antonio Palopo	7	Julio	2023-07-15T00:00:00	2024-11-08T23:00:00	4	Temperatura máxima	21.2
183023	7	Sololá	712	San Antonio Palopó	9	San Antonio Palopo	7	Julio	2023-07-15T00:00:00	2024-11-08T23:00:00	3	Temperatura mínima	20.6
183024	7	Sololá	712	San Antonio Palopó	9	San Antonio Palopo	7	Julio	2023-07-15T00:00:00	2024-11-08T23:00:00	5	Humedad	71
183025	7	Sololá	712	San Antonio Palopó	9	San Antonio Palopo	7	Julio	2023-07-15T00:00:00	2024-11-08T23:00:00	6	Velocidad del viento	4.8
183026	7	Sololá	712	San Antonio Palopó	9	San Antonio Palopo	7	Julio	2023-07-15T00:00:00	2024-11-08T23:00:00	7	Dirección del viento	4.83
183027	7	Sololá	712	San Antonio Palopó	9	San Antonio Palopo	7	Julio	2023-07-15T00:00:00	2024-11-08T23:00:00	1	Precipitación	0
183028	7	Sololá	712	San Antonio Palopó	9	San Antonio Palopo	7	Julio	2023-07-15T00:00:00	2024-11-08T23:00:00	8	Radiación solar	0
183029	7	Sololá	712	San Antonio Palopó	9	San Antonio Palopo	7	Julio	2023-07-16T00:00:00	2024-11-08T00:00:00	2	Temperatura media	20.7
183030	7	Sololá	712	San Antonio Palopó	9	San Antonio Palopo	7	Julio	2023-07-16T00:00:00	2024-11-08T00:00:00	4	Temperatura máxima	20.9
183031	7	Sololá	712	San Antonio Palopó	9	San Antonio Palopo	7	Julio	2023-07-16T00:00:00	2024-11-08T00:00:00	3	Temperatura mínima	20.3
183032	7	Sololá	712	San Antonio Palopó	9	San Antonio Palopo	7	Julio	2023-07-16T00:00:00	2024-11-08T00:00:00	5	Humedad	70
183033	7	Sololá	712	San Antonio Palopó	9	San Antonio Palopo	7	Julio	2023-07-16T00:00:00	2024-11-08T00:00:00	6	Velocidad del viento	6.4
183034	7	Sololá	712	San Antonio Palopó	9	San Antonio Palopo	7	Julio	2023-07-16T00:00:00	2024-11-08T00:00:00	7	Dirección del viento	6.44
183035	7	Sololá	712	San Antonio Palopó	9	San Antonio Palopo	7	Julio	2023-07-16T00:00:00	2024-11-08T00:00:00	1	Precipitación	0
183036	7	Sololá	712	San Antonio Palopó	9	San Antonio Palopo	7	Julio	2023-07-16T00:00:00	2024-11-08T00:00:00	8	Radiación solar	0
183037	7	Sololá	712	San Antonio Palopó	9	San Antonio Palopo	7	Julio	2023-07-16T00:00:00	2024-11-08T01:00:00	2	Temperatura media	20.9
183038	7	Sololá	712	San Antonio Palopó	9	San Antonio Palopo	7	Julio	2023-07-16T00:00:00	2024-11-08T01:00:00	4	Temperatura máxima	20.9
183039	7	Sololá	712	San Antonio Palopó	9	San Antonio Palopo	7	Julio	2023-07-16T00:00:00	2024-11-08T01:00:00	3	Temperatura mínima	20.6
183040	7	Sololá	712	San Antonio Palopó	9	San Antonio Palopo	7	Julio	2023-07-16T00:00:00	2024-11-08T01:00:00	5	Humedad	69
183041	7	Sololá	712	San Antonio Palopó	9	San Antonio Palopo	7	Julio	2023-07-16T00:00:00	2024-11-08T01:00:00	6	Velocidad del viento	4.8
183042	7	Sololá	712	San Antonio Palopó	9	San Antonio Palopo	7	Julio	2023-07-16T00:00:00	2024-11-08T01:00:00	7	Dirección del viento	4.83
183043	7	Sololá	712	San Antonio Palopó	9	San Antonio Palopo	7	Julio	2023-07-16T00:00:00	2024-11-08T01:00:00	1	Precipitación	0
183044	7	Sololá	712	San Antonio Palopó	9	San Antonio Palopo	7	Julio	2023-07-16T00:00:00	2024-11-08T01:00:00	8	Radiación solar	0
183045	7	Sololá	712	San Antonio Palopó	9	San Antonio Palopo	7	Julio	2023-07-16T00:00:00	2024-11-08T02:00:00	2	Temperatura media	20.2
183046	7	Sololá	712	San Antonio Palopó	9	San Antonio Palopo	7	Julio	2023-07-16T00:00:00	2024-11-08T02:00:00	4	Temperatura máxima	20.9
183047	7	Sololá	712	San Antonio Palopó	9	San Antonio Palopo	7	Julio	2023-07-16T00:00:00	2024-11-08T02:00:00	3	Temperatura mínima	20.2
183048	7	Sololá	712	San Antonio Palopó	9	San Antonio Palopo	7	Julio	2023-07-16T00:00:00	2024-11-08T02:00:00	5	Humedad	71
183049	7	Sololá	712	San Antonio Palopó	9	San Antonio Palopo	7	Julio	2023-07-16T00:00:00	2024-11-08T02:00:00	6	Velocidad del viento	11.3
183050	7	Sololá	712	San Antonio Palopó	9	San Antonio Palopo	7	Julio	2023-07-16T00:00:00	2024-11-08T02:00:00	7	Dirección del viento	11.27
183051	7	Sololá	712	San Antonio Palopó	9	San Antonio Palopo	7	Julio	2023-07-16T00:00:00	2024-11-08T02:00:00	1	Precipitación	0
183052	7	Sololá	712	San Antonio Palopó	9	San Antonio Palopo	7	Julio	2023-07-16T00:00:00	2024-11-08T02:00:00	8	Radiación solar	0
183053	7	Sololá	712	San Antonio Palopó	9	San Antonio Palopo	7	Julio	2023-07-16T00:00:00	2024-11-08T03:00:00	2	Temperatura media	20.3
183054	7	Sololá	712	San Antonio Palopó	9	San Antonio Palopo	7	Julio	2023-07-16T00:00:00	2024-11-08T03:00:00	4	Temperatura máxima	20.3
183055	7	Sololá	712	San Antonio Palopó	9	San Antonio Palopo	7	Julio	2023-07-16T00:00:00	2024-11-08T03:00:00	3	Temperatura mínima	19.7
183056	7	Sololá	712	San Antonio Palopó	9	San Antonio Palopo	7	Julio	2023-07-16T00:00:00	2024-11-08T03:00:00	5	Humedad	72
183057	7	Sololá	712	San Antonio Palopó	9	San Antonio Palopo	7	Julio	2023-07-16T00:00:00	2024-11-08T03:00:00	6	Velocidad del viento	9.7
183058	7	Sololá	712	San Antonio Palopó	9	San Antonio Palopo	7	Julio	2023-07-16T00:00:00	2024-11-08T03:00:00	7	Dirección del viento	9.66
183059	7	Sololá	712	San Antonio Palopó	9	San Antonio Palopo	7	Julio	2023-07-16T00:00:00	2024-11-08T03:00:00	1	Precipitación	0
183060	7	Sololá	712	San Antonio Palopó	9	San Antonio Palopo	7	Julio	2023-07-16T00:00:00	2024-11-08T03:00:00	8	Radiación solar	0
183061	7	Sololá	712	San Antonio Palopó	9	San Antonio Palopo	7	Julio	2023-07-16T00:00:00	2024-11-08T04:00:00	2	Temperatura media	20.3
183062	7	Sololá	712	San Antonio Palopó	9	San Antonio Palopo	7	Julio	2023-07-16T00:00:00	2024-11-08T04:00:00	4	Temperatura máxima	20.3
183063	7	Sololá	712	San Antonio Palopó	9	San Antonio Palopo	7	Julio	2023-07-16T00:00:00	2024-11-08T04:00:00	3	Temperatura mínima	20.2
183064	7	Sololá	712	San Antonio Palopó	9	San Antonio Palopo	7	Julio	2023-07-16T00:00:00	2024-11-08T04:00:00	5	Humedad	70
183065	7	Sololá	712	San Antonio Palopó	9	San Antonio Palopo	7	Julio	2023-07-16T00:00:00	2024-11-08T04:00:00	6	Velocidad del viento	9.7
183066	7	Sololá	712	San Antonio Palopó	9	San Antonio Palopo	7	Julio	2023-07-16T00:00:00	2024-11-08T04:00:00	7	Dirección del viento	9.66
183067	7	Sololá	712	San Antonio Palopó	9	San Antonio Palopo	7	Julio	2023-07-16T00:00:00	2024-11-08T04:00:00	1	Precipitación	0
183068	7	Sololá	712	San Antonio Palopó	9	San Antonio Palopo	7	Julio	2023-07-16T00:00:00	2024-11-08T04:00:00	8	Radiación solar	0
183069	7	Sololá	712	San Antonio Palopó	9	San Antonio Palopo	7	Julio	2023-07-16T00:00:00	2024-11-08T05:00:00	2	Temperatura media	19.9
183070	7	Sololá	712	San Antonio Palopó	9	San Antonio Palopo	7	Julio	2023-07-16T00:00:00	2024-11-08T05:00:00	4	Temperatura máxima	20.5
183071	7	Sololá	712	San Antonio Palopó	9	San Antonio Palopo	7	Julio	2023-07-16T00:00:00	2024-11-08T05:00:00	3	Temperatura mínima	19.9
183072	7	Sololá	712	San Antonio Palopó	9	San Antonio Palopo	7	Julio	2023-07-16T00:00:00	2024-11-08T05:00:00	5	Humedad	72
183073	7	Sololá	712	San Antonio Palopó	9	San Antonio Palopo	7	Julio	2023-07-16T00:00:00	2024-11-08T05:00:00	6	Velocidad del viento	9.7
183074	7	Sololá	712	San Antonio Palopó	9	San Antonio Palopo	7	Julio	2023-07-16T00:00:00	2024-11-08T05:00:00	7	Dirección del viento	9.66
183075	7	Sololá	712	San Antonio Palopó	9	San Antonio Palopo	7	Julio	2023-07-16T00:00:00	2024-11-08T05:00:00	1	Precipitación	0
183076	7	Sololá	712	San Antonio Palopó	9	San Antonio Palopo	7	Julio	2023-07-16T00:00:00	2024-11-08T05:00:00	8	Radiación solar	0
183077	7	Sololá	712	San Antonio Palopó	9	San Antonio Palopo	7	Julio	2023-07-16T00:00:00	2024-11-08T06:00:00	2	Temperatura media	20.5
183078	7	Sololá	712	San Antonio Palopó	9	San Antonio Palopo	7	Julio	2023-07-16T00:00:00	2024-11-08T06:00:00	4	Temperatura máxima	20.6
183079	7	Sololá	712	San Antonio Palopó	9	San Antonio Palopo	7	Julio	2023-07-16T00:00:00	2024-11-08T06:00:00	3	Temperatura mínima	19.9
183080	7	Sololá	712	San Antonio Palopó	9	San Antonio Palopo	7	Julio	2023-07-16T00:00:00	2024-11-08T06:00:00	5	Humedad	69
183081	7	Sololá	712	San Antonio Palopó	9	San Antonio Palopo	7	Julio	2023-07-16T00:00:00	2024-11-08T06:00:00	6	Velocidad del viento	4.8
183082	7	Sololá	712	San Antonio Palopó	9	San Antonio Palopo	7	Julio	2023-07-16T00:00:00	2024-11-08T06:00:00	7	Dirección del viento	4.83
183083	7	Sololá	712	San Antonio Palopó	9	San Antonio Palopo	7	Julio	2023-07-16T00:00:00	2024-11-08T06:00:00	1	Precipitación	0
183084	7	Sololá	712	San Antonio Palopó	9	San Antonio Palopo	7	Julio	2023-07-16T00:00:00	2024-11-08T06:00:00	8	Radiación solar	2
183085	7	Sololá	712	San Antonio Palopó	9	San Antonio Palopo	7	Julio	2023-07-16T00:00:00	2024-11-08T07:00:00	2	Temperatura media	21.6
183086	7	Sololá	712	San Antonio Palopó	9	San Antonio Palopo	7	Julio	2023-07-16T00:00:00	2024-11-08T07:00:00	4	Temperatura máxima	21.6
183087	7	Sololá	712	San Antonio Palopó	9	San Antonio Palopo	7	Julio	2023-07-16T00:00:00	2024-11-08T07:00:00	3	Temperatura mínima	20.5
183088	7	Sololá	712	San Antonio Palopó	9	San Antonio Palopo	7	Julio	2023-07-16T00:00:00	2024-11-08T07:00:00	5	Humedad	67
183089	7	Sololá	712	San Antonio Palopó	9	San Antonio Palopo	7	Julio	2023-07-16T00:00:00	2024-11-08T07:00:00	6	Velocidad del viento	4.8
183090	7	Sololá	712	San Antonio Palopó	9	San Antonio Palopo	7	Julio	2023-07-16T00:00:00	2024-11-08T07:00:00	7	Dirección del viento	4.83
183091	7	Sololá	712	San Antonio Palopó	9	San Antonio Palopo	7	Julio	2023-07-16T00:00:00	2024-11-08T07:00:00	1	Precipitación	0
183092	7	Sololá	712	San Antonio Palopó	9	San Antonio Palopo	7	Julio	2023-07-16T00:00:00	2024-11-08T07:00:00	8	Radiación solar	60
183093	7	Sololá	712	San Antonio Palopó	9	San Antonio Palopo	7	Julio	2023-07-16T00:00:00	2024-11-08T08:00:00	2	Temperatura media	22.1
183094	7	Sololá	712	San Antonio Palopó	9	San Antonio Palopo	7	Julio	2023-07-16T00:00:00	2024-11-08T08:00:00	4	Temperatura máxima	22.1
183095	7	Sololá	712	San Antonio Palopó	9	San Antonio Palopo	7	Julio	2023-07-16T00:00:00	2024-11-08T08:00:00	3	Temperatura mínima	21.6
183096	7	Sololá	712	San Antonio Palopó	9	San Antonio Palopo	7	Julio	2023-07-16T00:00:00	2024-11-08T08:00:00	5	Humedad	66
183097	7	Sololá	712	San Antonio Palopó	9	San Antonio Palopo	7	Julio	2023-07-16T00:00:00	2024-11-08T08:00:00	6	Velocidad del viento	8
183098	7	Sololá	712	San Antonio Palopó	9	San Antonio Palopo	7	Julio	2023-07-16T00:00:00	2024-11-08T08:00:00	7	Dirección del viento	8.05
183099	7	Sololá	712	San Antonio Palopó	9	San Antonio Palopo	7	Julio	2023-07-16T00:00:00	2024-11-08T08:00:00	1	Precipitación	0
183100	7	Sololá	712	San Antonio Palopó	9	San Antonio Palopo	7	Julio	2023-07-16T00:00:00	2024-11-08T08:00:00	8	Radiación solar	154
183101	7	Sololá	712	San Antonio Palopó	9	San Antonio Palopo	7	Julio	2023-07-16T00:00:00	2024-11-08T09:00:00	2	Temperatura media	22.7
183102	7	Sololá	712	San Antonio Palopó	9	San Antonio Palopo	7	Julio	2023-07-16T00:00:00	2024-11-08T09:00:00	4	Temperatura máxima	22.7
183103	7	Sololá	712	San Antonio Palopó	9	San Antonio Palopo	7	Julio	2023-07-16T00:00:00	2024-11-08T09:00:00	3	Temperatura mínima	22.1
183104	7	Sololá	712	San Antonio Palopó	9	San Antonio Palopo	7	Julio	2023-07-16T00:00:00	2024-11-08T09:00:00	5	Humedad	64
183105	7	Sololá	712	San Antonio Palopó	9	San Antonio Palopo	7	Julio	2023-07-16T00:00:00	2024-11-08T09:00:00	6	Velocidad del viento	8
183106	7	Sololá	712	San Antonio Palopó	9	San Antonio Palopo	7	Julio	2023-07-16T00:00:00	2024-11-08T09:00:00	7	Dirección del viento	8.05
183107	7	Sololá	712	San Antonio Palopó	9	San Antonio Palopo	7	Julio	2023-07-16T00:00:00	2024-11-08T09:00:00	1	Precipitación	0
183108	7	Sololá	712	San Antonio Palopó	9	San Antonio Palopo	7	Julio	2023-07-16T00:00:00	2024-11-08T09:00:00	8	Radiación solar	333
183109	7	Sololá	712	San Antonio Palopó	9	San Antonio Palopo	7	Julio	2023-07-16T00:00:00	2024-11-08T10:00:00	2	Temperatura media	23.7
183110	7	Sololá	712	San Antonio Palopó	9	San Antonio Palopo	7	Julio	2023-07-16T00:00:00	2024-11-08T10:00:00	4	Temperatura máxima	23.7
183111	7	Sololá	712	San Antonio Palopó	9	San Antonio Palopo	7	Julio	2023-07-16T00:00:00	2024-11-08T10:00:00	3	Temperatura mínima	22.6
183112	7	Sololá	712	San Antonio Palopó	9	San Antonio Palopo	7	Julio	2023-07-16T00:00:00	2024-11-08T10:00:00	5	Humedad	62
183113	7	Sololá	712	San Antonio Palopó	9	San Antonio Palopo	7	Julio	2023-07-16T00:00:00	2024-11-08T10:00:00	6	Velocidad del viento	16.1
183114	7	Sololá	712	San Antonio Palopó	9	San Antonio Palopo	7	Julio	2023-07-16T00:00:00	2024-11-08T10:00:00	7	Dirección del viento	16.09
183115	7	Sololá	712	San Antonio Palopó	9	San Antonio Palopo	7	Julio	2023-07-16T00:00:00	2024-11-08T10:00:00	1	Precipitación	0
183116	7	Sololá	712	San Antonio Palopó	9	San Antonio Palopo	7	Julio	2023-07-16T00:00:00	2024-11-08T10:00:00	8	Radiación solar	821
183117	7	Sololá	712	San Antonio Palopó	9	San Antonio Palopo	7	Julio	2023-07-16T00:00:00	2024-11-08T11:00:00	2	Temperatura media	24.2
183118	7	Sololá	712	San Antonio Palopó	9	San Antonio Palopo	7	Julio	2023-07-16T00:00:00	2024-11-08T11:00:00	4	Temperatura máxima	24.2
183119	7	Sololá	712	San Antonio Palopó	9	San Antonio Palopo	7	Julio	2023-07-16T00:00:00	2024-11-08T11:00:00	3	Temperatura mínima	23.3
183120	7	Sololá	712	San Antonio Palopó	9	San Antonio Palopo	7	Julio	2023-07-16T00:00:00	2024-11-08T11:00:00	5	Humedad	61
183121	7	Sololá	712	San Antonio Palopó	9	San Antonio Palopo	7	Julio	2023-07-16T00:00:00	2024-11-08T11:00:00	6	Velocidad del viento	14.5
183122	7	Sololá	712	San Antonio Palopó	9	San Antonio Palopo	7	Julio	2023-07-16T00:00:00	2024-11-08T11:00:00	7	Dirección del viento	14.48
183123	7	Sololá	712	San Antonio Palopó	9	San Antonio Palopo	7	Julio	2023-07-16T00:00:00	2024-11-08T11:00:00	1	Precipitación	0
183124	7	Sololá	712	San Antonio Palopó	9	San Antonio Palopo	7	Julio	2023-07-16T00:00:00	2024-11-08T11:00:00	8	Radiación solar	449
183125	7	Sololá	712	San Antonio Palopó	9	San Antonio Palopo	7	Julio	2023-07-16T00:00:00	2024-11-08T12:00:00	2	Temperatura media	25.4
183126	7	Sololá	712	San Antonio Palopó	9	San Antonio Palopo	7	Julio	2023-07-16T00:00:00	2024-11-08T12:00:00	4	Temperatura máxima	25.4
183127	7	Sololá	712	San Antonio Palopó	9	San Antonio Palopo	7	Julio	2023-07-16T00:00:00	2024-11-08T12:00:00	3	Temperatura mínima	24.1
183128	7	Sololá	712	San Antonio Palopó	9	San Antonio Palopo	7	Julio	2023-07-16T00:00:00	2024-11-08T12:00:00	5	Humedad	57
183129	7	Sololá	712	San Antonio Palopó	9	San Antonio Palopo	7	Julio	2023-07-16T00:00:00	2024-11-08T12:00:00	6	Velocidad del viento	9.7
183130	7	Sololá	712	San Antonio Palopó	9	San Antonio Palopo	7	Julio	2023-07-16T00:00:00	2024-11-08T12:00:00	7	Dirección del viento	9.66
183131	7	Sololá	712	San Antonio Palopó	9	San Antonio Palopo	7	Julio	2023-07-16T00:00:00	2024-11-08T12:00:00	1	Precipitación	0
183132	7	Sololá	712	San Antonio Palopó	9	San Antonio Palopo	7	Julio	2023-07-16T00:00:00	2024-11-08T12:00:00	8	Radiación solar	620
183133	7	Sololá	712	San Antonio Palopó	9	San Antonio Palopo	7	Julio	2023-07-16T00:00:00	2024-11-08T13:00:00	2	Temperatura media	25.2
183134	7	Sololá	712	San Antonio Palopó	9	San Antonio Palopo	7	Julio	2023-07-16T00:00:00	2024-11-08T13:00:00	4	Temperatura máxima	25.8
183135	7	Sololá	712	San Antonio Palopó	9	San Antonio Palopo	7	Julio	2023-07-16T00:00:00	2024-11-08T13:00:00	3	Temperatura mínima	24.7
183136	7	Sololá	712	San Antonio Palopó	9	San Antonio Palopo	7	Julio	2023-07-16T00:00:00	2024-11-08T13:00:00	5	Humedad	58
183137	7	Sololá	712	San Antonio Palopó	9	San Antonio Palopo	7	Julio	2023-07-16T00:00:00	2024-11-08T13:00:00	6	Velocidad del viento	11.3
183138	7	Sololá	712	San Antonio Palopó	9	San Antonio Palopo	7	Julio	2023-07-16T00:00:00	2024-11-08T13:00:00	7	Dirección del viento	11.27
183139	7	Sololá	712	San Antonio Palopó	9	San Antonio Palopo	7	Julio	2023-07-16T00:00:00	2024-11-08T13:00:00	1	Precipitación	0
183140	7	Sololá	712	San Antonio Palopó	9	San Antonio Palopo	7	Julio	2023-07-16T00:00:00	2024-11-08T13:00:00	8	Radiación solar	875
183141	7	Sololá	712	San Antonio Palopó	9	San Antonio Palopo	7	Julio	2023-07-16T00:00:00	2024-11-08T14:00:00	2	Temperatura media	26.9
183142	7	Sololá	712	San Antonio Palopó	9	San Antonio Palopo	7	Julio	2023-07-16T00:00:00	2024-11-08T14:00:00	4	Temperatura máxima	27.3
183143	7	Sololá	712	San Antonio Palopó	9	San Antonio Palopo	7	Julio	2023-07-16T00:00:00	2024-11-08T14:00:00	3	Temperatura mínima	25.2
183144	7	Sololá	712	San Antonio Palopó	9	San Antonio Palopo	7	Julio	2023-07-16T00:00:00	2024-11-08T14:00:00	5	Humedad	52
183145	7	Sololá	712	San Antonio Palopó	9	San Antonio Palopo	7	Julio	2023-07-16T00:00:00	2024-11-08T14:00:00	6	Velocidad del viento	8
183146	7	Sololá	712	San Antonio Palopó	9	San Antonio Palopo	7	Julio	2023-07-16T00:00:00	2024-11-08T14:00:00	7	Dirección del viento	8.05
183147	7	Sololá	712	San Antonio Palopó	9	San Antonio Palopo	7	Julio	2023-07-16T00:00:00	2024-11-08T14:00:00	1	Precipitación	0
183148	7	Sololá	712	San Antonio Palopó	9	San Antonio Palopo	7	Julio	2023-07-16T00:00:00	2024-11-08T14:00:00	8	Radiación solar	719
183149	7	Sololá	712	San Antonio Palopó	9	San Antonio Palopo	7	Julio	2023-07-16T00:00:00	2024-11-08T15:00:00	2	Temperatura media	24.2
183150	7	Sololá	712	San Antonio Palopó	9	San Antonio Palopo	7	Julio	2023-07-16T00:00:00	2024-11-08T15:00:00	4	Temperatura máxima	26.9
183151	7	Sololá	712	San Antonio Palopó	9	San Antonio Palopo	7	Julio	2023-07-16T00:00:00	2024-11-08T15:00:00	3	Temperatura mínima	23.9
183152	7	Sololá	712	San Antonio Palopó	9	San Antonio Palopo	7	Julio	2023-07-16T00:00:00	2024-11-08T15:00:00	5	Humedad	67
183153	7	Sololá	712	San Antonio Palopó	9	San Antonio Palopo	7	Julio	2023-07-16T00:00:00	2024-11-08T15:00:00	6	Velocidad del viento	9.7
183154	7	Sololá	712	San Antonio Palopó	9	San Antonio Palopo	7	Julio	2023-07-16T00:00:00	2024-11-08T15:00:00	7	Dirección del viento	9.66
183155	7	Sololá	712	San Antonio Palopó	9	San Antonio Palopo	7	Julio	2023-07-16T00:00:00	2024-11-08T15:00:00	1	Precipitación	0
183156	7	Sololá	712	San Antonio Palopó	9	San Antonio Palopo	7	Julio	2023-07-16T00:00:00	2024-11-08T15:00:00	8	Radiación solar	362
183157	7	Sololá	712	San Antonio Palopó	9	San Antonio Palopo	7	Julio	2023-07-16T00:00:00	2024-11-08T16:00:00	2	Temperatura media	22.6
183158	7	Sololá	712	San Antonio Palopó	9	San Antonio Palopo	7	Julio	2023-07-16T00:00:00	2024-11-08T16:00:00	4	Temperatura máxima	24.1
183159	7	Sololá	712	San Antonio Palopó	9	San Antonio Palopo	7	Julio	2023-07-16T00:00:00	2024-11-08T16:00:00	3	Temperatura mínima	22.6
183160	7	Sololá	712	San Antonio Palopó	9	San Antonio Palopo	7	Julio	2023-07-16T00:00:00	2024-11-08T16:00:00	5	Humedad	70
183161	7	Sololá	712	San Antonio Palopó	9	San Antonio Palopo	7	Julio	2023-07-16T00:00:00	2024-11-08T16:00:00	6	Velocidad del viento	6.4
183162	7	Sololá	712	San Antonio Palopó	9	San Antonio Palopo	7	Julio	2023-07-16T00:00:00	2024-11-08T16:00:00	7	Dirección del viento	6.44
183163	7	Sololá	712	San Antonio Palopó	9	San Antonio Palopo	7	Julio	2023-07-16T00:00:00	2024-11-08T16:00:00	1	Precipitación	0
183164	7	Sololá	712	San Antonio Palopó	9	San Antonio Palopo	7	Julio	2023-07-16T00:00:00	2024-11-08T16:00:00	8	Radiación solar	37
183165	7	Sololá	712	San Antonio Palopó	9	San Antonio Palopo	7	Julio	2023-07-16T00:00:00	2024-11-08T17:00:00	2	Temperatura media	21.8
183166	7	Sololá	712	San Antonio Palopó	9	San Antonio Palopo	7	Julio	2023-07-16T00:00:00	2024-11-08T17:00:00	4	Temperatura máxima	22.6
183167	7	Sololá	712	San Antonio Palopó	9	San Antonio Palopo	7	Julio	2023-07-16T00:00:00	2024-11-08T17:00:00	3	Temperatura mínima	21.8
183168	7	Sololá	712	San Antonio Palopó	9	San Antonio Palopo	7	Julio	2023-07-16T00:00:00	2024-11-08T17:00:00	5	Humedad	72
183169	7	Sololá	712	San Antonio Palopó	9	San Antonio Palopo	7	Julio	2023-07-16T00:00:00	2024-11-08T17:00:00	6	Velocidad del viento	1.6
183170	7	Sololá	712	San Antonio Palopó	9	San Antonio Palopo	7	Julio	2023-07-16T00:00:00	2024-11-08T17:00:00	7	Dirección del viento	1.61
183171	7	Sololá	712	San Antonio Palopó	9	San Antonio Palopo	7	Julio	2023-07-16T00:00:00	2024-11-08T17:00:00	1	Precipitación	0
183172	7	Sololá	712	San Antonio Palopó	9	San Antonio Palopo	7	Julio	2023-07-16T00:00:00	2024-11-08T17:00:00	8	Radiación solar	6
183173	7	Sololá	712	San Antonio Palopó	9	San Antonio Palopo	7	Julio	2023-07-16T00:00:00	2024-11-08T18:00:00	2	Temperatura media	20.2
183174	7	Sololá	712	San Antonio Palopó	9	San Antonio Palopo	7	Julio	2023-07-16T00:00:00	2024-11-08T18:00:00	4	Temperatura máxima	21.8
183175	7	Sololá	712	San Antonio Palopó	9	San Antonio Palopo	7	Julio	2023-07-16T00:00:00	2024-11-08T18:00:00	3	Temperatura mínima	20.1
183176	7	Sololá	712	San Antonio Palopó	9	San Antonio Palopo	7	Julio	2023-07-16T00:00:00	2024-11-08T18:00:00	5	Humedad	81
183177	7	Sololá	712	San Antonio Palopó	9	San Antonio Palopo	7	Julio	2023-07-16T00:00:00	2024-11-08T18:00:00	6	Velocidad del viento	3.2
183178	7	Sololá	712	San Antonio Palopó	9	San Antonio Palopo	7	Julio	2023-07-16T00:00:00	2024-11-08T18:00:00	7	Dirección del viento	3.22
183179	7	Sololá	712	San Antonio Palopó	9	San Antonio Palopo	7	Julio	2023-07-16T00:00:00	2024-11-08T18:00:00	1	Precipitación	0.2
183180	7	Sololá	712	San Antonio Palopó	9	San Antonio Palopo	7	Julio	2023-07-16T00:00:00	2024-11-08T18:00:00	8	Radiación solar	0
183181	7	Sololá	712	San Antonio Palopó	9	San Antonio Palopo	7	Julio	2023-07-16T00:00:00	2024-11-08T19:00:00	2	Temperatura media	19.7
183182	7	Sololá	712	San Antonio Palopó	9	San Antonio Palopo	7	Julio	2023-07-16T00:00:00	2024-11-08T19:00:00	4	Temperatura máxima	20.2
183183	7	Sololá	712	San Antonio Palopó	9	San Antonio Palopo	7	Julio	2023-07-16T00:00:00	2024-11-08T19:00:00	3	Temperatura mínima	19.3
183184	7	Sololá	712	San Antonio Palopó	9	San Antonio Palopo	7	Julio	2023-07-16T00:00:00	2024-11-08T19:00:00	5	Humedad	81
183185	7	Sololá	712	San Antonio Palopó	9	San Antonio Palopo	7	Julio	2023-07-16T00:00:00	2024-11-08T19:00:00	6	Velocidad del viento	3.2
183186	7	Sololá	712	San Antonio Palopó	9	San Antonio Palopo	7	Julio	2023-07-16T00:00:00	2024-11-08T19:00:00	7	Dirección del viento	3.22
183187	7	Sololá	712	San Antonio Palopó	9	San Antonio Palopo	7	Julio	2023-07-16T00:00:00	2024-11-08T19:00:00	1	Precipitación	0
183188	7	Sololá	712	San Antonio Palopó	9	San Antonio Palopo	7	Julio	2023-07-16T00:00:00	2024-11-08T19:00:00	8	Radiación solar	0
183189	7	Sololá	712	San Antonio Palopó	9	San Antonio Palopo	7	Julio	2023-07-16T00:00:00	2024-11-08T20:00:00	2	Temperatura media	20.5
183190	7	Sololá	712	San Antonio Palopó	9	San Antonio Palopo	7	Julio	2023-07-16T00:00:00	2024-11-08T20:00:00	4	Temperatura máxima	20.7
183191	7	Sololá	712	San Antonio Palopó	9	San Antonio Palopo	7	Julio	2023-07-16T00:00:00	2024-11-08T20:00:00	3	Temperatura mínima	19.7
183192	7	Sololá	712	San Antonio Palopó	9	San Antonio Palopo	7	Julio	2023-07-16T00:00:00	2024-11-08T20:00:00	5	Humedad	69
183193	7	Sololá	712	San Antonio Palopó	9	San Antonio Palopo	7	Julio	2023-07-16T00:00:00	2024-11-08T20:00:00	6	Velocidad del viento	9.7
183194	7	Sololá	712	San Antonio Palopó	9	San Antonio Palopo	7	Julio	2023-07-16T00:00:00	2024-11-08T20:00:00	7	Dirección del viento	9.66
183195	7	Sololá	712	San Antonio Palopó	9	San Antonio Palopo	7	Julio	2023-07-16T00:00:00	2024-11-08T20:00:00	1	Precipitación	0.2
183196	7	Sololá	712	San Antonio Palopó	9	San Antonio Palopo	7	Julio	2023-07-16T00:00:00	2024-11-08T20:00:00	8	Radiación solar	0
183197	7	Sololá	712	San Antonio Palopó	9	San Antonio Palopo	7	Julio	2023-07-16T00:00:00	2024-11-08T21:00:00	2	Temperatura media	19.8
183198	7	Sololá	712	San Antonio Palopó	9	San Antonio Palopo	7	Julio	2023-07-16T00:00:00	2024-11-08T21:00:00	4	Temperatura máxima	20.7
183199	7	Sololá	712	San Antonio Palopó	9	San Antonio Palopo	7	Julio	2023-07-16T00:00:00	2024-11-08T21:00:00	3	Temperatura mínima	19.8
183200	7	Sololá	712	San Antonio Palopó	9	San Antonio Palopo	7	Julio	2023-07-16T00:00:00	2024-11-08T21:00:00	5	Humedad	72
183201	7	Sololá	712	San Antonio Palopó	9	San Antonio Palopo	7	Julio	2023-07-16T00:00:00	2024-11-08T21:00:00	6	Velocidad del viento	6.4
183202	7	Sololá	712	San Antonio Palopó	9	San Antonio Palopo	7	Julio	2023-07-16T00:00:00	2024-11-08T21:00:00	7	Dirección del viento	6.44
183203	7	Sololá	712	San Antonio Palopó	9	San Antonio Palopo	7	Julio	2023-07-16T00:00:00	2024-11-08T21:00:00	1	Precipitación	0
183204	7	Sololá	712	San Antonio Palopó	9	San Antonio Palopo	7	Julio	2023-07-16T00:00:00	2024-11-08T21:00:00	8	Radiación solar	0
183205	7	Sololá	712	San Antonio Palopó	9	San Antonio Palopo	7	Julio	2023-07-16T00:00:00	2024-11-08T22:00:00	2	Temperatura media	19.8
183206	7	Sololá	712	San Antonio Palopó	9	San Antonio Palopo	7	Julio	2023-07-16T00:00:00	2024-11-08T22:00:00	4	Temperatura máxima	20.1
183207	7	Sololá	712	San Antonio Palopó	9	San Antonio Palopo	7	Julio	2023-07-16T00:00:00	2024-11-08T22:00:00	3	Temperatura mínima	19.3
183208	7	Sololá	712	San Antonio Palopó	9	San Antonio Palopo	7	Julio	2023-07-16T00:00:00	2024-11-08T22:00:00	5	Humedad	74
183209	7	Sololá	712	San Antonio Palopó	9	San Antonio Palopo	7	Julio	2023-07-16T00:00:00	2024-11-08T22:00:00	6	Velocidad del viento	4.8
183210	7	Sololá	712	San Antonio Palopó	9	San Antonio Palopo	7	Julio	2023-07-16T00:00:00	2024-11-08T22:00:00	7	Dirección del viento	4.83
183211	7	Sololá	712	San Antonio Palopó	9	San Antonio Palopo	7	Julio	2023-07-16T00:00:00	2024-11-08T22:00:00	1	Precipitación	0
183212	7	Sololá	712	San Antonio Palopó	9	San Antonio Palopo	7	Julio	2023-07-16T00:00:00	2024-11-08T22:00:00	8	Radiación solar	0
183213	7	Sololá	712	San Antonio Palopó	9	San Antonio Palopo	7	Julio	2023-07-16T00:00:00	2024-11-08T23:00:00	2	Temperatura media	19.8
183214	7	Sololá	712	San Antonio Palopó	9	San Antonio Palopo	7	Julio	2023-07-16T00:00:00	2024-11-08T23:00:00	4	Temperatura máxima	19.9
183215	7	Sololá	712	San Antonio Palopó	9	San Antonio Palopo	7	Julio	2023-07-16T00:00:00	2024-11-08T23:00:00	3	Temperatura mínima	19.3
183216	7	Sololá	712	San Antonio Palopó	9	San Antonio Palopo	7	Julio	2023-07-16T00:00:00	2024-11-08T23:00:00	5	Humedad	72
183217	7	Sololá	712	San Antonio Palopó	9	San Antonio Palopo	7	Julio	2023-07-16T00:00:00	2024-11-08T23:00:00	6	Velocidad del viento	3.2
183218	7	Sololá	712	San Antonio Palopó	9	San Antonio Palopo	7	Julio	2023-07-16T00:00:00	2024-11-08T23:00:00	7	Dirección del viento	3.22
183219	7	Sololá	712	San Antonio Palopó	9	San Antonio Palopo	7	Julio	2023-07-16T00:00:00	2024-11-08T23:00:00	1	Precipitación	0
183220	7	Sololá	712	San Antonio Palopó	9	San Antonio Palopo	7	Julio	2023-07-16T00:00:00	2024-11-08T23:00:00	8	Radiación solar	0
183221	7	Sololá	712	San Antonio Palopó	9	San Antonio Palopo	7	Julio	2023-07-17T00:00:00	2024-11-08T00:00:00	2	Temperatura media	20.2
183222	7	Sololá	712	San Antonio Palopó	9	San Antonio Palopo	7	Julio	2023-07-17T00:00:00	2024-11-08T00:00:00	4	Temperatura máxima	20.3
183223	7	Sololá	712	San Antonio Palopó	9	San Antonio Palopo	7	Julio	2023-07-17T00:00:00	2024-11-08T00:00:00	3	Temperatura mínima	19.8
183224	7	Sololá	712	San Antonio Palopó	9	San Antonio Palopo	7	Julio	2023-07-17T00:00:00	2024-11-08T00:00:00	5	Humedad	70
183225	7	Sololá	712	San Antonio Palopó	9	San Antonio Palopo	7	Julio	2023-07-17T00:00:00	2024-11-08T00:00:00	6	Velocidad del viento	4.8
183226	7	Sololá	712	San Antonio Palopó	9	San Antonio Palopo	7	Julio	2023-07-17T00:00:00	2024-11-08T00:00:00	7	Dirección del viento	4.83
183227	7	Sololá	712	San Antonio Palopó	9	San Antonio Palopo	7	Julio	2023-07-17T00:00:00	2024-11-08T00:00:00	1	Precipitación	0
183228	7	Sololá	712	San Antonio Palopó	9	San Antonio Palopo	7	Julio	2023-07-17T00:00:00	2024-11-08T00:00:00	8	Radiación solar	0
183229	7	Sololá	712	San Antonio Palopó	9	San Antonio Palopo	7	Julio	2023-07-17T00:00:00	2024-11-08T01:00:00	2	Temperatura media	20.5
183230	7	Sololá	712	San Antonio Palopó	9	San Antonio Palopo	7	Julio	2023-07-17T00:00:00	2024-11-08T01:00:00	4	Temperatura máxima	20.5
183231	7	Sololá	712	San Antonio Palopó	9	San Antonio Palopo	7	Julio	2023-07-17T00:00:00	2024-11-08T01:00:00	3	Temperatura mínima	20.2
183232	7	Sololá	712	San Antonio Palopó	9	San Antonio Palopo	7	Julio	2023-07-17T00:00:00	2024-11-08T01:00:00	5	Humedad	68
183233	7	Sololá	712	San Antonio Palopó	9	San Antonio Palopo	7	Julio	2023-07-17T00:00:00	2024-11-08T01:00:00	6	Velocidad del viento	11.3
183234	7	Sololá	712	San Antonio Palopó	9	San Antonio Palopo	7	Julio	2023-07-17T00:00:00	2024-11-08T01:00:00	7	Dirección del viento	11.27
183235	7	Sololá	712	San Antonio Palopó	9	San Antonio Palopo	7	Julio	2023-07-17T00:00:00	2024-11-08T01:00:00	1	Precipitación	0
183236	7	Sololá	712	San Antonio Palopó	9	San Antonio Palopo	7	Julio	2023-07-17T00:00:00	2024-11-08T01:00:00	8	Radiación solar	0
183237	7	Sololá	712	San Antonio Palopó	9	San Antonio Palopo	7	Julio	2023-07-17T00:00:00	2024-11-08T02:00:00	2	Temperatura media	20.9
183238	7	Sololá	712	San Antonio Palopó	9	San Antonio Palopo	7	Julio	2023-07-17T00:00:00	2024-11-08T02:00:00	4	Temperatura máxima	21.2
183239	7	Sololá	712	San Antonio Palopó	9	San Antonio Palopo	7	Julio	2023-07-17T00:00:00	2024-11-08T02:00:00	3	Temperatura mínima	20.4
183240	7	Sololá	712	San Antonio Palopó	9	San Antonio Palopo	7	Julio	2023-07-17T00:00:00	2024-11-08T02:00:00	5	Humedad	66
183241	7	Sololá	712	San Antonio Palopó	9	San Antonio Palopo	7	Julio	2023-07-17T00:00:00	2024-11-08T02:00:00	6	Velocidad del viento	11.3
183242	7	Sololá	712	San Antonio Palopó	9	San Antonio Palopo	7	Julio	2023-07-17T00:00:00	2024-11-08T02:00:00	7	Dirección del viento	11.27
183243	7	Sololá	712	San Antonio Palopó	9	San Antonio Palopo	7	Julio	2023-07-17T00:00:00	2024-11-08T02:00:00	1	Precipitación	0
183244	7	Sololá	712	San Antonio Palopó	9	San Antonio Palopo	7	Julio	2023-07-17T00:00:00	2024-11-08T02:00:00	8	Radiación solar	0
183245	7	Sololá	712	San Antonio Palopó	9	San Antonio Palopo	7	Julio	2023-07-17T00:00:00	2024-11-08T03:00:00	2	Temperatura media	20.2
183246	7	Sololá	712	San Antonio Palopó	9	San Antonio Palopo	7	Julio	2023-07-17T00:00:00	2024-11-08T03:00:00	4	Temperatura máxima	20.9
183247	7	Sololá	712	San Antonio Palopó	9	San Antonio Palopo	7	Julio	2023-07-17T00:00:00	2024-11-08T03:00:00	3	Temperatura mínima	20.2
183248	7	Sololá	712	San Antonio Palopó	9	San Antonio Palopo	7	Julio	2023-07-17T00:00:00	2024-11-08T03:00:00	5	Humedad	69
183249	7	Sololá	712	San Antonio Palopó	9	San Antonio Palopo	7	Julio	2023-07-17T00:00:00	2024-11-08T03:00:00	6	Velocidad del viento	8
183250	7	Sololá	712	San Antonio Palopó	9	San Antonio Palopo	7	Julio	2023-07-17T00:00:00	2024-11-08T03:00:00	7	Dirección del viento	8.05
183251	7	Sololá	712	San Antonio Palopó	9	San Antonio Palopo	7	Julio	2023-07-17T00:00:00	2024-11-08T03:00:00	1	Precipitación	0
183252	7	Sololá	712	San Antonio Palopó	9	San Antonio Palopo	7	Julio	2023-07-17T00:00:00	2024-11-08T03:00:00	8	Radiación solar	0
183253	7	Sololá	712	San Antonio Palopó	9	San Antonio Palopo	7	Julio	2023-07-17T00:00:00	2024-11-08T04:00:00	2	Temperatura media	20.4
183254	7	Sololá	712	San Antonio Palopó	9	San Antonio Palopo	7	Julio	2023-07-17T00:00:00	2024-11-08T04:00:00	4	Temperatura máxima	20.4
183255	7	Sololá	712	San Antonio Palopó	9	San Antonio Palopo	7	Julio	2023-07-17T00:00:00	2024-11-08T04:00:00	3	Temperatura mínima	19.9
183256	7	Sololá	712	San Antonio Palopó	9	San Antonio Palopo	7	Julio	2023-07-17T00:00:00	2024-11-08T04:00:00	5	Humedad	67
183257	7	Sololá	712	San Antonio Palopó	9	San Antonio Palopo	7	Julio	2023-07-17T00:00:00	2024-11-08T04:00:00	6	Velocidad del viento	11.3
183258	7	Sololá	712	San Antonio Palopó	9	San Antonio Palopo	7	Julio	2023-07-17T00:00:00	2024-11-08T04:00:00	7	Dirección del viento	11.27
183259	7	Sololá	712	San Antonio Palopó	9	San Antonio Palopo	7	Julio	2023-07-17T00:00:00	2024-11-08T04:00:00	1	Precipitación	0
183260	7	Sololá	712	San Antonio Palopó	9	San Antonio Palopo	7	Julio	2023-07-17T00:00:00	2024-11-08T04:00:00	8	Radiación solar	0
183261	7	Sololá	712	San Antonio Palopó	9	San Antonio Palopo	7	Julio	2023-07-17T00:00:00	2024-11-08T05:00:00	2	Temperatura media	19.6
183262	7	Sololá	712	San Antonio Palopó	9	San Antonio Palopo	7	Julio	2023-07-17T00:00:00	2024-11-08T05:00:00	4	Temperatura máxima	20.6
183263	7	Sololá	712	San Antonio Palopó	9	San Antonio Palopo	7	Julio	2023-07-17T00:00:00	2024-11-08T05:00:00	3	Temperatura mínima	19.6
183264	7	Sololá	712	San Antonio Palopó	9	San Antonio Palopo	7	Julio	2023-07-17T00:00:00	2024-11-08T05:00:00	5	Humedad	70
183265	7	Sololá	712	San Antonio Palopó	9	San Antonio Palopo	7	Julio	2023-07-17T00:00:00	2024-11-08T05:00:00	6	Velocidad del viento	8
183266	7	Sololá	712	San Antonio Palopó	9	San Antonio Palopo	7	Julio	2023-07-17T00:00:00	2024-11-08T05:00:00	7	Dirección del viento	8.05
183267	7	Sololá	712	San Antonio Palopó	9	San Antonio Palopo	7	Julio	2023-07-17T00:00:00	2024-11-08T05:00:00	1	Precipitación	0
183268	7	Sololá	712	San Antonio Palopó	9	San Antonio Palopo	7	Julio	2023-07-17T00:00:00	2024-11-08T05:00:00	8	Radiación solar	0
183269	7	Sololá	712	San Antonio Palopó	9	San Antonio Palopo	7	Julio	2023-07-17T00:00:00	2024-11-08T06:00:00	2	Temperatura media	19.7
183270	7	Sololá	712	San Antonio Palopó	9	San Antonio Palopo	7	Julio	2023-07-17T00:00:00	2024-11-08T06:00:00	4	Temperatura máxima	19.9
183271	7	Sololá	712	San Antonio Palopó	9	San Antonio Palopo	7	Julio	2023-07-17T00:00:00	2024-11-08T06:00:00	3	Temperatura mínima	19.3
183272	7	Sololá	712	San Antonio Palopó	9	San Antonio Palopo	7	Julio	2023-07-17T00:00:00	2024-11-08T06:00:00	5	Humedad	68
183273	7	Sololá	712	San Antonio Palopó	9	San Antonio Palopo	7	Julio	2023-07-17T00:00:00	2024-11-08T06:00:00	6	Velocidad del viento	12.9
183274	7	Sololá	712	San Antonio Palopó	9	San Antonio Palopo	7	Julio	2023-07-17T00:00:00	2024-11-08T06:00:00	7	Dirección del viento	12.87
183275	7	Sololá	712	San Antonio Palopó	9	San Antonio Palopo	7	Julio	2023-07-17T00:00:00	2024-11-08T06:00:00	1	Precipitación	0
183276	7	Sololá	712	San Antonio Palopó	9	San Antonio Palopo	7	Julio	2023-07-17T00:00:00	2024-11-08T06:00:00	8	Radiación solar	1
183277	7	Sololá	712	San Antonio Palopó	9	San Antonio Palopo	7	Julio	2023-07-17T00:00:00	2024-11-08T07:00:00	2	Temperatura media	19.3
183278	7	Sololá	712	San Antonio Palopó	9	San Antonio Palopo	7	Julio	2023-07-17T00:00:00	2024-11-08T07:00:00	4	Temperatura máxima	19.8
183279	7	Sololá	712	San Antonio Palopó	9	San Antonio Palopo	7	Julio	2023-07-17T00:00:00	2024-11-08T07:00:00	3	Temperatura mínima	19.3
183280	7	Sololá	712	San Antonio Palopó	9	San Antonio Palopo	7	Julio	2023-07-17T00:00:00	2024-11-08T07:00:00	5	Humedad	68
183281	7	Sololá	712	San Antonio Palopó	9	San Antonio Palopo	7	Julio	2023-07-17T00:00:00	2024-11-08T07:00:00	6	Velocidad del viento	9.7
183282	7	Sololá	712	San Antonio Palopó	9	San Antonio Palopo	7	Julio	2023-07-17T00:00:00	2024-11-08T07:00:00	7	Dirección del viento	9.66
183283	7	Sololá	712	San Antonio Palopó	9	San Antonio Palopo	7	Julio	2023-07-17T00:00:00	2024-11-08T07:00:00	1	Precipitación	0
183284	7	Sololá	712	San Antonio Palopó	9	San Antonio Palopo	7	Julio	2023-07-17T00:00:00	2024-11-08T07:00:00	8	Radiación solar	23
183285	7	Sololá	712	San Antonio Palopó	9	San Antonio Palopo	7	Julio	2023-07-17T00:00:00	2024-11-08T08:00:00	2	Temperatura media	21.4
183286	7	Sololá	712	San Antonio Palopó	9	San Antonio Palopo	7	Julio	2023-07-17T00:00:00	2024-11-08T08:00:00	4	Temperatura máxima	21.4
183287	7	Sololá	712	San Antonio Palopó	9	San Antonio Palopo	7	Julio	2023-07-17T00:00:00	2024-11-08T08:00:00	3	Temperatura mínima	18.8
183288	7	Sololá	712	San Antonio Palopó	9	San Antonio Palopo	7	Julio	2023-07-17T00:00:00	2024-11-08T08:00:00	5	Humedad	62
183289	7	Sololá	712	San Antonio Palopó	9	San Antonio Palopo	7	Julio	2023-07-17T00:00:00	2024-11-08T08:00:00	6	Velocidad del viento	3.2
183290	7	Sololá	712	San Antonio Palopó	9	San Antonio Palopo	7	Julio	2023-07-17T00:00:00	2024-11-08T08:00:00	7	Dirección del viento	3.22
183291	7	Sololá	712	San Antonio Palopó	9	San Antonio Palopo	7	Julio	2023-07-17T00:00:00	2024-11-08T08:00:00	1	Precipitación	0
183292	7	Sololá	712	San Antonio Palopó	9	San Antonio Palopo	7	Julio	2023-07-17T00:00:00	2024-11-08T08:00:00	8	Radiación solar	182
183293	7	Sololá	712	San Antonio Palopó	9	San Antonio Palopo	7	Julio	2023-07-17T00:00:00	2024-11-08T09:00:00	2	Temperatura media	22.7
183294	7	Sololá	712	San Antonio Palopó	9	San Antonio Palopo	7	Julio	2023-07-17T00:00:00	2024-11-08T09:00:00	4	Temperatura máxima	22.7
183295	7	Sololá	712	San Antonio Palopó	9	San Antonio Palopo	7	Julio	2023-07-17T00:00:00	2024-11-08T09:00:00	3	Temperatura mínima	21.3
183296	7	Sololá	712	San Antonio Palopó	9	San Antonio Palopo	7	Julio	2023-07-17T00:00:00	2024-11-08T09:00:00	5	Humedad	56
183297	7	Sololá	712	San Antonio Palopó	9	San Antonio Palopo	7	Julio	2023-07-17T00:00:00	2024-11-08T09:00:00	6	Velocidad del viento	4.8
183298	7	Sololá	712	San Antonio Palopó	9	San Antonio Palopo	7	Julio	2023-07-17T00:00:00	2024-11-08T09:00:00	7	Dirección del viento	4.83
183299	7	Sololá	712	San Antonio Palopó	9	San Antonio Palopo	7	Julio	2023-07-17T00:00:00	2024-11-08T09:00:00	1	Precipitación	0
183300	7	Sololá	712	San Antonio Palopó	9	San Antonio Palopo	7	Julio	2023-07-17T00:00:00	2024-11-08T09:00:00	8	Radiación solar	548
183301	7	Sololá	712	San Antonio Palopó	9	San Antonio Palopo	7	Julio	2023-07-17T00:00:00	2024-11-08T10:00:00	2	Temperatura media	23
183302	7	Sololá	712	San Antonio Palopó	9	San Antonio Palopo	7	Julio	2023-07-17T00:00:00	2024-11-08T10:00:00	4	Temperatura máxima	23.3
183303	7	Sololá	712	San Antonio Palopó	9	San Antonio Palopo	7	Julio	2023-07-17T00:00:00	2024-11-08T10:00:00	3	Temperatura mínima	22.6
183304	7	Sololá	712	San Antonio Palopó	9	San Antonio Palopo	7	Julio	2023-07-17T00:00:00	2024-11-08T10:00:00	5	Humedad	56
183305	7	Sololá	712	San Antonio Palopó	9	San Antonio Palopo	7	Julio	2023-07-17T00:00:00	2024-11-08T10:00:00	6	Velocidad del viento	11.3
183306	7	Sololá	712	San Antonio Palopó	9	San Antonio Palopo	7	Julio	2023-07-17T00:00:00	2024-11-08T10:00:00	7	Dirección del viento	11.27
183307	7	Sololá	712	San Antonio Palopó	9	San Antonio Palopo	7	Julio	2023-07-17T00:00:00	2024-11-08T10:00:00	1	Precipitación	0
183308	7	Sololá	712	San Antonio Palopó	9	San Antonio Palopo	7	Julio	2023-07-17T00:00:00	2024-11-08T10:00:00	8	Radiación solar	754
183309	7	Sololá	712	San Antonio Palopó	9	San Antonio Palopo	7	Julio	2023-07-17T00:00:00	2024-11-08T11:00:00	2	Temperatura media	24.3
183310	7	Sololá	712	San Antonio Palopó	9	San Antonio Palopo	7	Julio	2023-07-17T00:00:00	2024-11-08T11:00:00	4	Temperatura máxima	24.6
183311	7	Sololá	712	San Antonio Palopó	9	San Antonio Palopo	7	Julio	2023-07-17T00:00:00	2024-11-08T11:00:00	3	Temperatura mínima	23
183312	7	Sololá	712	San Antonio Palopó	9	San Antonio Palopo	7	Julio	2023-07-17T00:00:00	2024-11-08T11:00:00	5	Humedad	47
183313	7	Sololá	712	San Antonio Palopó	9	San Antonio Palopo	7	Julio	2023-07-17T00:00:00	2024-11-08T11:00:00	6	Velocidad del viento	9.7
183314	7	Sololá	712	San Antonio Palopó	9	San Antonio Palopo	7	Julio	2023-07-17T00:00:00	2024-11-08T11:00:00	7	Dirección del viento	9.66
183315	7	Sololá	712	San Antonio Palopó	9	San Antonio Palopo	7	Julio	2023-07-17T00:00:00	2024-11-08T11:00:00	1	Precipitación	0
183316	7	Sololá	712	San Antonio Palopó	9	San Antonio Palopo	7	Julio	2023-07-17T00:00:00	2024-11-08T11:00:00	8	Radiación solar	868
183317	7	Sololá	712	San Antonio Palopó	9	San Antonio Palopo	7	Julio	2023-07-17T00:00:00	2024-11-08T12:00:00	2	Temperatura media	25.6
183318	7	Sololá	712	San Antonio Palopó	9	San Antonio Palopo	7	Julio	2023-07-17T00:00:00	2024-11-08T12:00:00	4	Temperatura máxima	25.6
183319	7	Sololá	712	San Antonio Palopó	9	San Antonio Palopo	7	Julio	2023-07-17T00:00:00	2024-11-08T12:00:00	3	Temperatura mínima	24.3
183320	7	Sololá	712	San Antonio Palopó	9	San Antonio Palopo	7	Julio	2023-07-17T00:00:00	2024-11-08T12:00:00	5	Humedad	44
183321	7	Sololá	712	San Antonio Palopó	9	San Antonio Palopo	7	Julio	2023-07-17T00:00:00	2024-11-08T12:00:00	6	Velocidad del viento	9.7
183322	7	Sololá	712	San Antonio Palopó	9	San Antonio Palopo	7	Julio	2023-07-17T00:00:00	2024-11-08T12:00:00	7	Dirección del viento	9.66
183323	7	Sololá	712	San Antonio Palopó	9	San Antonio Palopo	7	Julio	2023-07-17T00:00:00	2024-11-08T12:00:00	1	Precipitación	0
183324	7	Sololá	712	San Antonio Palopó	9	San Antonio Palopo	7	Julio	2023-07-17T00:00:00	2024-11-08T12:00:00	8	Radiación solar	971
183325	7	Sololá	712	San Antonio Palopó	9	San Antonio Palopo	7	Julio	2023-07-17T00:00:00	2024-11-08T13:00:00	2	Temperatura media	26.3
183326	7	Sololá	712	San Antonio Palopó	9	San Antonio Palopo	7	Julio	2023-07-17T00:00:00	2024-11-08T13:00:00	4	Temperatura máxima	26.6
183327	7	Sololá	712	San Antonio Palopó	9	San Antonio Palopo	7	Julio	2023-07-17T00:00:00	2024-11-08T13:00:00	3	Temperatura mínima	25.6
183328	7	Sololá	712	San Antonio Palopó	9	San Antonio Palopo	7	Julio	2023-07-17T00:00:00	2024-11-08T13:00:00	5	Humedad	41
183329	7	Sololá	712	San Antonio Palopó	9	San Antonio Palopo	7	Julio	2023-07-17T00:00:00	2024-11-08T13:00:00	6	Velocidad del viento	9.7
183330	7	Sololá	712	San Antonio Palopó	9	San Antonio Palopo	7	Julio	2023-07-17T00:00:00	2024-11-08T13:00:00	7	Dirección del viento	9.66
183331	7	Sololá	712	San Antonio Palopó	9	San Antonio Palopo	7	Julio	2023-07-17T00:00:00	2024-11-08T13:00:00	1	Precipitación	0
183332	7	Sololá	712	San Antonio Palopó	9	San Antonio Palopo	7	Julio	2023-07-17T00:00:00	2024-11-08T13:00:00	8	Radiación solar	960
183333	7	Sololá	712	San Antonio Palopó	9	San Antonio Palopo	7	Julio	2023-07-17T00:00:00	2024-11-08T14:00:00	2	Temperatura media	26.3
183334	7	Sololá	712	San Antonio Palopó	9	San Antonio Palopo	7	Julio	2023-07-17T00:00:00	2024-11-08T14:00:00	4	Temperatura máxima	26.8
183335	7	Sololá	712	San Antonio Palopó	9	San Antonio Palopo	7	Julio	2023-07-17T00:00:00	2024-11-08T14:00:00	3	Temperatura mínima	25.8
183336	7	Sololá	712	San Antonio Palopó	9	San Antonio Palopo	7	Julio	2023-07-17T00:00:00	2024-11-08T14:00:00	5	Humedad	42
183337	7	Sololá	712	San Antonio Palopó	9	San Antonio Palopo	7	Julio	2023-07-17T00:00:00	2024-11-08T14:00:00	6	Velocidad del viento	14.5
183338	7	Sololá	712	San Antonio Palopó	9	San Antonio Palopo	7	Julio	2023-07-17T00:00:00	2024-11-08T14:00:00	7	Dirección del viento	14.48
183339	7	Sololá	712	San Antonio Palopó	9	San Antonio Palopo	7	Julio	2023-07-17T00:00:00	2024-11-08T14:00:00	1	Precipitación	0
183340	7	Sololá	712	San Antonio Palopó	9	San Antonio Palopo	7	Julio	2023-07-17T00:00:00	2024-11-08T14:00:00	8	Radiación solar	908
183341	7	Sololá	712	San Antonio Palopó	9	San Antonio Palopo	7	Julio	2023-07-17T00:00:00	2024-11-08T15:00:00	2	Temperatura media	27
183342	7	Sololá	712	San Antonio Palopó	9	San Antonio Palopo	7	Julio	2023-07-17T00:00:00	2024-11-08T15:00:00	4	Temperatura máxima	27
183343	7	Sololá	712	San Antonio Palopó	9	San Antonio Palopo	7	Julio	2023-07-17T00:00:00	2024-11-08T15:00:00	3	Temperatura mínima	25.8
183344	7	Sololá	712	San Antonio Palopó	9	San Antonio Palopo	7	Julio	2023-07-17T00:00:00	2024-11-08T15:00:00	5	Humedad	45
183345	7	Sololá	712	San Antonio Palopó	9	San Antonio Palopo	7	Julio	2023-07-17T00:00:00	2024-11-08T15:00:00	6	Velocidad del viento	14.5
183346	7	Sololá	712	San Antonio Palopó	9	San Antonio Palopo	7	Julio	2023-07-17T00:00:00	2024-11-08T15:00:00	7	Dirección del viento	14.48
183347	7	Sololá	712	San Antonio Palopó	9	San Antonio Palopo	7	Julio	2023-07-17T00:00:00	2024-11-08T15:00:00	1	Precipitación	0
183348	7	Sololá	712	San Antonio Palopó	9	San Antonio Palopo	7	Julio	2023-07-17T00:00:00	2024-11-08T15:00:00	8	Radiación solar	746
183349	7	Sololá	712	San Antonio Palopó	9	San Antonio Palopo	7	Julio	2023-07-17T00:00:00	2024-11-08T16:00:00	2	Temperatura media	26.3
183350	7	Sololá	712	San Antonio Palopó	9	San Antonio Palopo	7	Julio	2023-07-17T00:00:00	2024-11-08T16:00:00	4	Temperatura máxima	27
183351	7	Sololá	712	San Antonio Palopó	9	San Antonio Palopo	7	Julio	2023-07-17T00:00:00	2024-11-08T16:00:00	3	Temperatura mínima	26.1
183352	7	Sololá	712	San Antonio Palopó	9	San Antonio Palopo	7	Julio	2023-07-17T00:00:00	2024-11-08T16:00:00	5	Humedad	46
183353	7	Sololá	712	San Antonio Palopó	9	San Antonio Palopo	7	Julio	2023-07-17T00:00:00	2024-11-08T16:00:00	6	Velocidad del viento	12.9
183354	7	Sololá	712	San Antonio Palopó	9	San Antonio Palopo	7	Julio	2023-07-17T00:00:00	2024-11-08T16:00:00	7	Dirección del viento	12.87
183355	7	Sololá	712	San Antonio Palopó	9	San Antonio Palopo	7	Julio	2023-07-17T00:00:00	2024-11-08T16:00:00	1	Precipitación	0
183356	7	Sololá	712	San Antonio Palopó	9	San Antonio Palopo	7	Julio	2023-07-17T00:00:00	2024-11-08T16:00:00	8	Radiación solar	564
183357	7	Sololá	712	San Antonio Palopó	9	San Antonio Palopo	7	Julio	2023-07-17T00:00:00	2024-11-08T17:00:00	2	Temperatura media	26.1
183358	7	Sololá	712	San Antonio Palopó	9	San Antonio Palopo	7	Julio	2023-07-17T00:00:00	2024-11-08T17:00:00	4	Temperatura máxima	26.6
183359	7	Sololá	712	San Antonio Palopó	9	San Antonio Palopo	7	Julio	2023-07-17T00:00:00	2024-11-08T17:00:00	3	Temperatura mínima	25.7
183360	7	Sololá	712	San Antonio Palopó	9	San Antonio Palopo	7	Julio	2023-07-17T00:00:00	2024-11-08T17:00:00	5	Humedad	47
183361	7	Sololá	712	San Antonio Palopó	9	San Antonio Palopo	7	Julio	2023-07-17T00:00:00	2024-11-08T17:00:00	6	Velocidad del viento	11.3
183362	7	Sololá	712	San Antonio Palopó	9	San Antonio Palopo	7	Julio	2023-07-17T00:00:00	2024-11-08T17:00:00	7	Dirección del viento	11.27
183363	7	Sololá	712	San Antonio Palopó	9	San Antonio Palopo	7	Julio	2023-07-17T00:00:00	2024-11-08T17:00:00	1	Precipitación	0
183364	7	Sololá	712	San Antonio Palopó	9	San Antonio Palopo	7	Julio	2023-07-17T00:00:00	2024-11-08T17:00:00	8	Radiación solar	322
183365	7	Sololá	712	San Antonio Palopó	9	San Antonio Palopo	7	Julio	2023-07-17T00:00:00	2024-11-08T18:00:00	2	Temperatura media	25.1
183366	7	Sololá	712	San Antonio Palopó	9	San Antonio Palopo	7	Julio	2023-07-17T00:00:00	2024-11-08T18:00:00	4	Temperatura máxima	26.2
183367	7	Sololá	712	San Antonio Palopó	9	San Antonio Palopo	7	Julio	2023-07-17T00:00:00	2024-11-08T18:00:00	3	Temperatura mínima	25.1
183368	7	Sololá	712	San Antonio Palopó	9	San Antonio Palopo	7	Julio	2023-07-17T00:00:00	2024-11-08T18:00:00	5	Humedad	51
183369	7	Sololá	712	San Antonio Palopó	9	San Antonio Palopo	7	Julio	2023-07-17T00:00:00	2024-11-08T18:00:00	6	Velocidad del viento	11.3
183370	7	Sololá	712	San Antonio Palopó	9	San Antonio Palopo	7	Julio	2023-07-17T00:00:00	2024-11-08T18:00:00	7	Dirección del viento	11.27
183371	7	Sololá	712	San Antonio Palopó	9	San Antonio Palopo	7	Julio	2023-07-17T00:00:00	2024-11-08T18:00:00	1	Precipitación	0
183372	7	Sololá	712	San Antonio Palopó	9	San Antonio Palopo	7	Julio	2023-07-17T00:00:00	2024-11-08T18:00:00	8	Radiación solar	159
183373	7	Sololá	712	San Antonio Palopó	9	San Antonio Palopo	7	Julio	2023-07-17T00:00:00	2024-11-08T19:00:00	2	Temperatura media	23.1
183374	7	Sololá	712	San Antonio Palopó	9	San Antonio Palopo	7	Julio	2023-07-17T00:00:00	2024-11-08T19:00:00	4	Temperatura máxima	25.1
183375	7	Sololá	712	San Antonio Palopó	9	San Antonio Palopo	7	Julio	2023-07-17T00:00:00	2024-11-08T19:00:00	3	Temperatura mínima	23.1
183376	7	Sololá	712	San Antonio Palopó	9	San Antonio Palopo	7	Julio	2023-07-17T00:00:00	2024-11-08T19:00:00	5	Humedad	60
183377	7	Sololá	712	San Antonio Palopó	9	San Antonio Palopo	7	Julio	2023-07-17T00:00:00	2024-11-08T19:00:00	6	Velocidad del viento	6.4
183378	7	Sololá	712	San Antonio Palopó	9	San Antonio Palopo	7	Julio	2023-07-17T00:00:00	2024-11-08T19:00:00	7	Dirección del viento	6.44
183379	7	Sololá	712	San Antonio Palopó	9	San Antonio Palopo	7	Julio	2023-07-17T00:00:00	2024-11-08T19:00:00	1	Precipitación	0
183380	7	Sololá	712	San Antonio Palopó	9	San Antonio Palopo	7	Julio	2023-07-17T00:00:00	2024-11-08T19:00:00	8	Radiación solar	0
183381	7	Sololá	712	San Antonio Palopó	9	San Antonio Palopo	7	Julio	2023-07-17T00:00:00	2024-11-08T20:00:00	2	Temperatura media	22.2
183382	7	Sololá	712	San Antonio Palopó	9	San Antonio Palopo	7	Julio	2023-07-17T00:00:00	2024-11-08T20:00:00	4	Temperatura máxima	23.1
183383	7	Sololá	712	San Antonio Palopó	9	San Antonio Palopo	7	Julio	2023-07-17T00:00:00	2024-11-08T20:00:00	3	Temperatura mínima	22.2
183384	7	Sololá	712	San Antonio Palopó	9	San Antonio Palopo	7	Julio	2023-07-17T00:00:00	2024-11-08T20:00:00	5	Humedad	62
183385	7	Sololá	712	San Antonio Palopó	9	San Antonio Palopo	7	Julio	2023-07-17T00:00:00	2024-11-08T20:00:00	6	Velocidad del viento	8
183386	7	Sololá	712	San Antonio Palopó	9	San Antonio Palopo	7	Julio	2023-07-17T00:00:00	2024-11-08T20:00:00	7	Dirección del viento	8.05
183387	7	Sololá	712	San Antonio Palopó	9	San Antonio Palopo	7	Julio	2023-07-17T00:00:00	2024-11-08T20:00:00	1	Precipitación	0
183388	7	Sololá	712	San Antonio Palopó	9	San Antonio Palopo	7	Julio	2023-07-17T00:00:00	2024-11-08T20:00:00	8	Radiación solar	0
183389	7	Sololá	712	San Antonio Palopó	9	San Antonio Palopo	7	Julio	2023-07-17T00:00:00	2024-11-08T21:00:00	2	Temperatura media	21.6
183390	7	Sololá	712	San Antonio Palopó	9	San Antonio Palopo	7	Julio	2023-07-17T00:00:00	2024-11-08T21:00:00	4	Temperatura máxima	22.2
183391	7	Sololá	712	San Antonio Palopó	9	San Antonio Palopo	7	Julio	2023-07-17T00:00:00	2024-11-08T21:00:00	3	Temperatura mínima	21.4
183392	7	Sololá	712	San Antonio Palopó	9	San Antonio Palopo	7	Julio	2023-07-17T00:00:00	2024-11-08T21:00:00	5	Humedad	62
183393	7	Sololá	712	San Antonio Palopó	9	San Antonio Palopo	7	Julio	2023-07-17T00:00:00	2024-11-08T21:00:00	6	Velocidad del viento	9.7
183394	7	Sololá	712	San Antonio Palopó	9	San Antonio Palopo	7	Julio	2023-07-17T00:00:00	2024-11-08T21:00:00	7	Dirección del viento	9.66
183395	7	Sololá	712	San Antonio Palopó	9	San Antonio Palopo	7	Julio	2023-07-17T00:00:00	2024-11-08T21:00:00	1	Precipitación	0
183396	7	Sololá	712	San Antonio Palopó	9	San Antonio Palopo	7	Julio	2023-07-17T00:00:00	2024-11-08T21:00:00	8	Radiación solar	0
183397	7	Sololá	712	San Antonio Palopó	9	San Antonio Palopo	7	Julio	2023-07-17T00:00:00	2024-11-08T22:00:00	2	Temperatura media	20.7
183398	7	Sololá	712	San Antonio Palopó	9	San Antonio Palopo	7	Julio	2023-07-17T00:00:00	2024-11-08T22:00:00	4	Temperatura máxima	21.8
183399	7	Sololá	712	San Antonio Palopó	9	San Antonio Palopo	7	Julio	2023-07-17T00:00:00	2024-11-08T22:00:00	3	Temperatura mínima	20.6
183400	7	Sololá	712	San Antonio Palopó	9	San Antonio Palopo	7	Julio	2023-07-17T00:00:00	2024-11-08T22:00:00	5	Humedad	64
183401	7	Sololá	712	San Antonio Palopó	9	San Antonio Palopo	7	Julio	2023-07-17T00:00:00	2024-11-08T22:00:00	6	Velocidad del viento	6.4
183402	7	Sololá	712	San Antonio Palopó	9	San Antonio Palopo	7	Julio	2023-07-17T00:00:00	2024-11-08T22:00:00	7	Dirección del viento	6.44
183403	7	Sololá	712	San Antonio Palopó	9	San Antonio Palopo	7	Julio	2023-07-17T00:00:00	2024-11-08T22:00:00	1	Precipitación	0
183404	7	Sololá	712	San Antonio Palopó	9	San Antonio Palopo	7	Julio	2023-07-17T00:00:00	2024-11-08T22:00:00	8	Radiación solar	0
183405	7	Sololá	712	San Antonio Palopó	9	San Antonio Palopo	7	Julio	2023-07-17T00:00:00	2024-11-08T23:00:00	2	Temperatura media	20.6
183406	7	Sololá	712	San Antonio Palopó	9	San Antonio Palopo	7	Julio	2023-07-17T00:00:00	2024-11-08T23:00:00	4	Temperatura máxima	21.2
183407	7	Sololá	712	San Antonio Palopó	9	San Antonio Palopo	7	Julio	2023-07-17T00:00:00	2024-11-08T23:00:00	3	Temperatura mínima	20.5
183408	7	Sololá	712	San Antonio Palopó	9	San Antonio Palopo	7	Julio	2023-07-17T00:00:00	2024-11-08T23:00:00	5	Humedad	61
183409	7	Sololá	712	San Antonio Palopó	9	San Antonio Palopo	7	Julio	2023-07-17T00:00:00	2024-11-08T23:00:00	6	Velocidad del viento	9.7
183410	7	Sololá	712	San Antonio Palopó	9	San Antonio Palopo	7	Julio	2023-07-17T00:00:00	2024-11-08T23:00:00	7	Dirección del viento	9.66
183411	7	Sololá	712	San Antonio Palopó	9	San Antonio Palopo	7	Julio	2023-07-17T00:00:00	2024-11-08T23:00:00	1	Precipitación	0
183412	7	Sololá	712	San Antonio Palopó	9	San Antonio Palopo	7	Julio	2023-07-17T00:00:00	2024-11-08T23:00:00	8	Radiación solar	0
183413	7	Sololá	712	San Antonio Palopó	9	San Antonio Palopo	7	Julio	2023-07-18T00:00:00	2024-11-08T00:00:00	2	Temperatura media	19.8
183414	7	Sololá	712	San Antonio Palopó	9	San Antonio Palopo	7	Julio	2023-07-18T00:00:00	2024-11-08T00:00:00	4	Temperatura máxima	20.6
183415	7	Sololá	712	San Antonio Palopó	9	San Antonio Palopo	7	Julio	2023-07-18T00:00:00	2024-11-08T00:00:00	3	Temperatura mínima	19.8
183416	7	Sololá	712	San Antonio Palopó	9	San Antonio Palopo	7	Julio	2023-07-18T00:00:00	2024-11-08T00:00:00	5	Humedad	66
183417	7	Sololá	712	San Antonio Palopó	9	San Antonio Palopo	7	Julio	2023-07-18T00:00:00	2024-11-08T00:00:00	6	Velocidad del viento	4.8
183418	7	Sololá	712	San Antonio Palopó	9	San Antonio Palopo	7	Julio	2023-07-18T00:00:00	2024-11-08T00:00:00	7	Dirección del viento	4.83
183419	7	Sololá	712	San Antonio Palopó	9	San Antonio Palopo	7	Julio	2023-07-18T00:00:00	2024-11-08T00:00:00	1	Precipitación	0
183420	7	Sololá	712	San Antonio Palopó	9	San Antonio Palopo	7	Julio	2023-07-18T00:00:00	2024-11-08T00:00:00	8	Radiación solar	0
183421	7	Sololá	712	San Antonio Palopó	9	San Antonio Palopo	7	Julio	2023-07-18T00:00:00	2024-11-08T01:00:00	2	Temperatura media	19.5
183422	7	Sololá	712	San Antonio Palopó	9	San Antonio Palopo	7	Julio	2023-07-18T00:00:00	2024-11-08T01:00:00	4	Temperatura máxima	20.3
183423	7	Sololá	712	San Antonio Palopó	9	San Antonio Palopo	7	Julio	2023-07-18T00:00:00	2024-11-08T01:00:00	3	Temperatura mínima	19.5
183424	7	Sololá	712	San Antonio Palopó	9	San Antonio Palopo	7	Julio	2023-07-18T00:00:00	2024-11-08T01:00:00	5	Humedad	66
183425	7	Sololá	712	San Antonio Palopó	9	San Antonio Palopo	7	Julio	2023-07-18T00:00:00	2024-11-08T01:00:00	6	Velocidad del viento	6.4
183426	7	Sololá	712	San Antonio Palopó	9	San Antonio Palopo	7	Julio	2023-07-18T00:00:00	2024-11-08T01:00:00	7	Dirección del viento	6.44
183427	7	Sololá	712	San Antonio Palopó	9	San Antonio Palopo	7	Julio	2023-07-18T00:00:00	2024-11-08T01:00:00	1	Precipitación	0
183428	7	Sololá	712	San Antonio Palopó	9	San Antonio Palopo	7	Julio	2023-07-18T00:00:00	2024-11-08T01:00:00	8	Radiación solar	0
183429	7	Sololá	712	San Antonio Palopó	9	San Antonio Palopo	7	Julio	2023-07-18T00:00:00	2024-11-08T02:00:00	2	Temperatura media	19.2
183430	7	Sololá	712	San Antonio Palopó	9	San Antonio Palopo	7	Julio	2023-07-18T00:00:00	2024-11-08T02:00:00	4	Temperatura máxima	19.7
183431	7	Sololá	712	San Antonio Palopó	9	San Antonio Palopo	7	Julio	2023-07-18T00:00:00	2024-11-08T02:00:00	3	Temperatura mínima	19.2
183432	7	Sololá	712	San Antonio Palopó	9	San Antonio Palopo	7	Julio	2023-07-18T00:00:00	2024-11-08T02:00:00	5	Humedad	68
183433	7	Sololá	712	San Antonio Palopó	9	San Antonio Palopo	7	Julio	2023-07-18T00:00:00	2024-11-08T02:00:00	6	Velocidad del viento	6.4
183434	7	Sololá	712	San Antonio Palopó	9	San Antonio Palopo	7	Julio	2023-07-18T00:00:00	2024-11-08T02:00:00	7	Dirección del viento	6.44
183435	7	Sololá	712	San Antonio Palopó	9	San Antonio Palopo	7	Julio	2023-07-18T00:00:00	2024-11-08T02:00:00	1	Precipitación	0
183436	7	Sololá	712	San Antonio Palopó	9	San Antonio Palopo	7	Julio	2023-07-18T00:00:00	2024-11-08T02:00:00	8	Radiación solar	0
183437	7	Sololá	712	San Antonio Palopó	9	San Antonio Palopo	7	Julio	2023-07-18T00:00:00	2024-11-08T03:00:00	2	Temperatura media	18.9
183438	7	Sololá	712	San Antonio Palopó	9	San Antonio Palopo	7	Julio	2023-07-18T00:00:00	2024-11-08T03:00:00	4	Temperatura máxima	19.6
183439	7	Sololá	712	San Antonio Palopó	9	San Antonio Palopo	7	Julio	2023-07-18T00:00:00	2024-11-08T03:00:00	3	Temperatura mínima	18.9
183440	7	Sololá	712	San Antonio Palopó	9	San Antonio Palopo	7	Julio	2023-07-18T00:00:00	2024-11-08T03:00:00	5	Humedad	70
183441	7	Sololá	712	San Antonio Palopó	9	San Antonio Palopo	7	Julio	2023-07-18T00:00:00	2024-11-08T03:00:00	6	Velocidad del viento	6.4
183442	7	Sololá	712	San Antonio Palopó	9	San Antonio Palopo	7	Julio	2023-07-18T00:00:00	2024-11-08T03:00:00	7	Dirección del viento	6.44
183443	7	Sololá	712	San Antonio Palopó	9	San Antonio Palopo	7	Julio	2023-07-18T00:00:00	2024-11-08T03:00:00	1	Precipitación	0
183444	7	Sololá	712	San Antonio Palopó	9	San Antonio Palopo	7	Julio	2023-07-18T00:00:00	2024-11-08T03:00:00	8	Radiación solar	0
183445	7	Sololá	712	San Antonio Palopó	9	San Antonio Palopo	7	Julio	2023-07-18T00:00:00	2024-11-08T04:00:00	2	Temperatura media	19.4
183446	7	Sololá	712	San Antonio Palopó	9	San Antonio Palopo	7	Julio	2023-07-18T00:00:00	2024-11-08T04:00:00	4	Temperatura máxima	19.6
183447	7	Sololá	712	San Antonio Palopó	9	San Antonio Palopo	7	Julio	2023-07-18T00:00:00	2024-11-08T04:00:00	3	Temperatura mínima	18.9
183448	7	Sololá	712	San Antonio Palopó	9	San Antonio Palopo	7	Julio	2023-07-18T00:00:00	2024-11-08T04:00:00	5	Humedad	70
183449	7	Sololá	712	San Antonio Palopó	9	San Antonio Palopo	7	Julio	2023-07-18T00:00:00	2024-11-08T04:00:00	6	Velocidad del viento	4.8
183450	7	Sololá	712	San Antonio Palopó	9	San Antonio Palopo	7	Julio	2023-07-18T00:00:00	2024-11-08T04:00:00	7	Dirección del viento	4.83
183451	7	Sololá	712	San Antonio Palopó	9	San Antonio Palopo	7	Julio	2023-07-18T00:00:00	2024-11-08T04:00:00	1	Precipitación	0
183452	7	Sololá	712	San Antonio Palopó	9	San Antonio Palopo	7	Julio	2023-07-18T00:00:00	2024-11-08T04:00:00	8	Radiación solar	0
183453	7	Sololá	712	San Antonio Palopó	9	San Antonio Palopo	7	Julio	2023-07-18T00:00:00	2024-11-08T05:00:00	2	Temperatura media	20.3
183454	7	Sololá	712	San Antonio Palopó	9	San Antonio Palopo	7	Julio	2023-07-18T00:00:00	2024-11-08T05:00:00	4	Temperatura máxima	20.4
183455	7	Sololá	712	San Antonio Palopó	9	San Antonio Palopo	7	Julio	2023-07-18T00:00:00	2024-11-08T05:00:00	3	Temperatura mínima	19.2
183456	7	Sololá	712	San Antonio Palopó	9	San Antonio Palopo	7	Julio	2023-07-18T00:00:00	2024-11-08T05:00:00	5	Humedad	68
183457	7	Sololá	712	San Antonio Palopó	9	San Antonio Palopo	7	Julio	2023-07-18T00:00:00	2024-11-08T05:00:00	6	Velocidad del viento	4.8
183458	7	Sololá	712	San Antonio Palopó	9	San Antonio Palopo	7	Julio	2023-07-18T00:00:00	2024-11-08T05:00:00	7	Dirección del viento	4.83
183459	7	Sololá	712	San Antonio Palopó	9	San Antonio Palopo	7	Julio	2023-07-18T00:00:00	2024-11-08T05:00:00	1	Precipitación	0
183460	7	Sololá	712	San Antonio Palopó	9	San Antonio Palopo	7	Julio	2023-07-18T00:00:00	2024-11-08T05:00:00	8	Radiación solar	0
183461	7	Sololá	712	San Antonio Palopó	9	San Antonio Palopo	7	Julio	2023-07-18T00:00:00	2024-11-08T06:00:00	2	Temperatura media	20.1
183462	7	Sololá	712	San Antonio Palopó	9	San Antonio Palopo	7	Julio	2023-07-18T00:00:00	2024-11-08T06:00:00	4	Temperatura máxima	20.4
183463	7	Sololá	712	San Antonio Palopó	9	San Antonio Palopo	7	Julio	2023-07-18T00:00:00	2024-11-08T06:00:00	3	Temperatura mínima	19.8
183464	7	Sololá	712	San Antonio Palopó	9	San Antonio Palopo	7	Julio	2023-07-18T00:00:00	2024-11-08T06:00:00	5	Humedad	66
183465	7	Sololá	712	San Antonio Palopó	9	San Antonio Palopo	7	Julio	2023-07-18T00:00:00	2024-11-08T06:00:00	6	Velocidad del viento	4.8
183466	7	Sololá	712	San Antonio Palopó	9	San Antonio Palopo	7	Julio	2023-07-18T00:00:00	2024-11-08T06:00:00	7	Dirección del viento	4.83
183467	7	Sololá	712	San Antonio Palopó	9	San Antonio Palopo	7	Julio	2023-07-18T00:00:00	2024-11-08T06:00:00	1	Precipitación	0
183468	7	Sololá	712	San Antonio Palopó	9	San Antonio Palopo	7	Julio	2023-07-18T00:00:00	2024-11-08T06:00:00	8	Radiación solar	1
183469	7	Sololá	712	San Antonio Palopó	9	San Antonio Palopo	7	Julio	2023-07-18T00:00:00	2024-11-08T07:00:00	2	Temperatura media	20.2
183470	7	Sololá	712	San Antonio Palopó	9	San Antonio Palopo	7	Julio	2023-07-18T00:00:00	2024-11-08T07:00:00	4	Temperatura máxima	20.2
183471	7	Sololá	712	San Antonio Palopó	9	San Antonio Palopo	7	Julio	2023-07-18T00:00:00	2024-11-08T07:00:00	3	Temperatura mínima	19.4
183472	7	Sololá	712	San Antonio Palopó	9	San Antonio Palopo	7	Julio	2023-07-18T00:00:00	2024-11-08T07:00:00	5	Humedad	65
183473	7	Sololá	712	San Antonio Palopó	9	San Antonio Palopo	7	Julio	2023-07-18T00:00:00	2024-11-08T07:00:00	6	Velocidad del viento	4.8
183474	7	Sololá	712	San Antonio Palopó	9	San Antonio Palopo	7	Julio	2023-07-18T00:00:00	2024-11-08T07:00:00	7	Dirección del viento	4.83
183475	7	Sololá	712	San Antonio Palopó	9	San Antonio Palopo	7	Julio	2023-07-18T00:00:00	2024-11-08T07:00:00	1	Precipitación	0
183476	7	Sololá	712	San Antonio Palopó	9	San Antonio Palopo	7	Julio	2023-07-18T00:00:00	2024-11-08T07:00:00	8	Radiación solar	27
183477	7	Sololá	712	San Antonio Palopó	9	San Antonio Palopo	7	Julio	2023-07-18T00:00:00	2024-11-08T08:00:00	2	Temperatura media	21.6
183478	7	Sololá	712	San Antonio Palopó	9	San Antonio Palopo	7	Julio	2023-07-18T00:00:00	2024-11-08T08:00:00	4	Temperatura máxima	21.6
183479	7	Sololá	712	San Antonio Palopó	9	San Antonio Palopo	7	Julio	2023-07-18T00:00:00	2024-11-08T08:00:00	3	Temperatura mínima	20
183480	7	Sololá	712	San Antonio Palopó	9	San Antonio Palopo	7	Julio	2023-07-18T00:00:00	2024-11-08T08:00:00	5	Humedad	63
183481	7	Sololá	712	San Antonio Palopó	9	San Antonio Palopo	7	Julio	2023-07-18T00:00:00	2024-11-08T08:00:00	6	Velocidad del viento	6.4
183482	7	Sololá	712	San Antonio Palopó	9	San Antonio Palopo	7	Julio	2023-07-18T00:00:00	2024-11-08T08:00:00	7	Dirección del viento	6.44
183483	7	Sololá	712	San Antonio Palopó	9	San Antonio Palopo	7	Julio	2023-07-18T00:00:00	2024-11-08T08:00:00	1	Precipitación	0
183484	7	Sololá	712	San Antonio Palopó	9	San Antonio Palopo	7	Julio	2023-07-18T00:00:00	2024-11-08T08:00:00	8	Radiación solar	181
183485	7	Sololá	712	San Antonio Palopó	9	San Antonio Palopo	7	Julio	2023-07-18T00:00:00	2024-11-08T09:00:00	2	Temperatura media	23.1
183486	7	Sololá	712	San Antonio Palopó	9	San Antonio Palopo	7	Julio	2023-07-18T00:00:00	2024-11-08T09:00:00	4	Temperatura máxima	23.1
183487	7	Sololá	712	San Antonio Palopó	9	San Antonio Palopo	7	Julio	2023-07-18T00:00:00	2024-11-08T09:00:00	3	Temperatura mínima	21.6
183488	7	Sololá	712	San Antonio Palopó	9	San Antonio Palopo	7	Julio	2023-07-18T00:00:00	2024-11-08T09:00:00	5	Humedad	55
183489	7	Sololá	712	San Antonio Palopó	9	San Antonio Palopo	7	Julio	2023-07-18T00:00:00	2024-11-08T09:00:00	6	Velocidad del viento	12.9
183490	7	Sololá	712	San Antonio Palopó	9	San Antonio Palopo	7	Julio	2023-07-18T00:00:00	2024-11-08T09:00:00	7	Dirección del viento	12.87
183491	7	Sololá	712	San Antonio Palopó	9	San Antonio Palopo	7	Julio	2023-07-18T00:00:00	2024-11-08T09:00:00	1	Precipitación	0
183492	7	Sololá	712	San Antonio Palopó	9	San Antonio Palopo	7	Julio	2023-07-18T00:00:00	2024-11-08T09:00:00	8	Radiación solar	528
183493	7	Sololá	712	San Antonio Palopó	9	San Antonio Palopo	7	Julio	2023-07-18T00:00:00	2024-11-08T10:00:00	2	Temperatura media	23.9
183494	7	Sololá	712	San Antonio Palopó	9	San Antonio Palopo	7	Julio	2023-07-18T00:00:00	2024-11-08T10:00:00	4	Temperatura máxima	23.9
183495	7	Sololá	712	San Antonio Palopó	9	San Antonio Palopo	7	Julio	2023-07-18T00:00:00	2024-11-08T10:00:00	3	Temperatura mínima	23
183496	7	Sololá	712	San Antonio Palopó	9	San Antonio Palopo	7	Julio	2023-07-18T00:00:00	2024-11-08T10:00:00	5	Humedad	50
183497	7	Sololá	712	San Antonio Palopó	9	San Antonio Palopo	7	Julio	2023-07-18T00:00:00	2024-11-08T10:00:00	6	Velocidad del viento	16.1
183498	7	Sololá	712	San Antonio Palopó	9	San Antonio Palopo	7	Julio	2023-07-18T00:00:00	2024-11-08T10:00:00	7	Dirección del viento	16.09
183499	7	Sololá	712	San Antonio Palopó	9	San Antonio Palopo	7	Julio	2023-07-18T00:00:00	2024-11-08T10:00:00	1	Precipitación	0
183500	7	Sololá	712	San Antonio Palopó	9	San Antonio Palopo	7	Julio	2023-07-18T00:00:00	2024-11-08T10:00:00	8	Radiación solar	722
183501	7	Sololá	712	San Antonio Palopó	9	San Antonio Palopo	7	Julio	2023-07-18T00:00:00	2024-11-08T11:00:00	2	Temperatura media	24.5
183502	7	Sololá	712	San Antonio Palopó	9	San Antonio Palopo	7	Julio	2023-07-18T00:00:00	2024-11-08T11:00:00	4	Temperatura máxima	24.5
183503	7	Sololá	712	San Antonio Palopó	9	San Antonio Palopo	7	Julio	2023-07-18T00:00:00	2024-11-08T11:00:00	3	Temperatura mínima	23.8
183504	7	Sololá	712	San Antonio Palopó	9	San Antonio Palopo	7	Julio	2023-07-18T00:00:00	2024-11-08T11:00:00	5	Humedad	50
183505	7	Sololá	712	San Antonio Palopó	9	San Antonio Palopo	7	Julio	2023-07-18T00:00:00	2024-11-08T11:00:00	6	Velocidad del viento	16.1
183506	7	Sololá	712	San Antonio Palopó	9	San Antonio Palopo	7	Julio	2023-07-18T00:00:00	2024-11-08T11:00:00	7	Dirección del viento	16.09
183507	7	Sololá	712	San Antonio Palopó	9	San Antonio Palopo	7	Julio	2023-07-18T00:00:00	2024-11-08T11:00:00	1	Precipitación	0
183508	7	Sololá	712	San Antonio Palopó	9	San Antonio Palopo	7	Julio	2023-07-18T00:00:00	2024-11-08T11:00:00	8	Radiación solar	863
183509	7	Sololá	712	San Antonio Palopó	9	San Antonio Palopo	7	Julio	2023-07-18T00:00:00	2024-11-08T12:00:00	2	Temperatura media	25.7
183510	7	Sololá	712	San Antonio Palopó	9	San Antonio Palopo	7	Julio	2023-07-18T00:00:00	2024-11-08T12:00:00	4	Temperatura máxima	26.2
183511	7	Sololá	712	San Antonio Palopó	9	San Antonio Palopo	7	Julio	2023-07-18T00:00:00	2024-11-08T12:00:00	3	Temperatura mínima	24.4
183512	7	Sololá	712	San Antonio Palopó	9	San Antonio Palopo	7	Julio	2023-07-18T00:00:00	2024-11-08T12:00:00	5	Humedad	42
183513	7	Sololá	712	San Antonio Palopó	9	San Antonio Palopo	7	Julio	2023-07-18T00:00:00	2024-11-08T12:00:00	6	Velocidad del viento	14.5
183514	7	Sololá	712	San Antonio Palopó	9	San Antonio Palopo	7	Julio	2023-07-18T00:00:00	2024-11-08T12:00:00	7	Dirección del viento	14.48
183515	7	Sololá	712	San Antonio Palopó	9	San Antonio Palopo	7	Julio	2023-07-18T00:00:00	2024-11-08T12:00:00	1	Precipitación	0
183516	7	Sololá	712	San Antonio Palopó	9	San Antonio Palopo	7	Julio	2023-07-18T00:00:00	2024-11-08T12:00:00	8	Radiación solar	947
183517	7	Sololá	712	San Antonio Palopó	9	San Antonio Palopo	7	Julio	2023-07-18T00:00:00	2024-11-08T13:00:00	2	Temperatura media	26.1
183518	7	Sololá	712	San Antonio Palopó	9	San Antonio Palopo	7	Julio	2023-07-18T00:00:00	2024-11-08T13:00:00	4	Temperatura máxima	26.4
183519	7	Sololá	712	San Antonio Palopó	9	San Antonio Palopo	7	Julio	2023-07-18T00:00:00	2024-11-08T13:00:00	3	Temperatura mínima	25.1
183520	7	Sololá	712	San Antonio Palopó	9	San Antonio Palopo	7	Julio	2023-07-18T00:00:00	2024-11-08T13:00:00	5	Humedad	40
183521	7	Sololá	712	San Antonio Palopó	9	San Antonio Palopo	7	Julio	2023-07-18T00:00:00	2024-11-08T13:00:00	6	Velocidad del viento	12.9
183522	7	Sololá	712	San Antonio Palopó	9	San Antonio Palopo	7	Julio	2023-07-18T00:00:00	2024-11-08T13:00:00	7	Dirección del viento	12.87
183523	7	Sololá	712	San Antonio Palopó	9	San Antonio Palopo	7	Julio	2023-07-18T00:00:00	2024-11-08T13:00:00	1	Precipitación	0
183524	7	Sololá	712	San Antonio Palopó	9	San Antonio Palopo	7	Julio	2023-07-18T00:00:00	2024-11-08T13:00:00	8	Radiación solar	972
183525	7	Sololá	712	San Antonio Palopó	9	San Antonio Palopo	7	Julio	2023-07-18T00:00:00	2024-11-08T14:00:00	2	Temperatura media	26.9
183526	7	Sololá	712	San Antonio Palopó	9	San Antonio Palopo	7	Julio	2023-07-18T00:00:00	2024-11-08T14:00:00	4	Temperatura máxima	26.9
183527	7	Sololá	712	San Antonio Palopó	9	San Antonio Palopo	7	Julio	2023-07-18T00:00:00	2024-11-08T14:00:00	3	Temperatura mínima	25.7
183528	7	Sololá	712	San Antonio Palopó	9	San Antonio Palopo	7	Julio	2023-07-18T00:00:00	2024-11-08T14:00:00	5	Humedad	36
183529	7	Sololá	712	San Antonio Palopó	9	San Antonio Palopo	7	Julio	2023-07-18T00:00:00	2024-11-08T14:00:00	6	Velocidad del viento	11.3
183530	7	Sololá	712	San Antonio Palopó	9	San Antonio Palopo	7	Julio	2023-07-18T00:00:00	2024-11-08T14:00:00	7	Dirección del viento	11.27
183531	7	Sololá	712	San Antonio Palopó	9	San Antonio Palopo	7	Julio	2023-07-18T00:00:00	2024-11-08T14:00:00	1	Precipitación	0
183532	7	Sololá	712	San Antonio Palopó	9	San Antonio Palopo	7	Julio	2023-07-18T00:00:00	2024-11-08T14:00:00	8	Radiación solar	907
183533	7	Sololá	712	San Antonio Palopó	9	San Antonio Palopo	7	Julio	2023-07-18T00:00:00	2024-11-08T15:00:00	2	Temperatura media	25.9
183534	7	Sololá	712	San Antonio Palopó	9	San Antonio Palopo	7	Julio	2023-07-18T00:00:00	2024-11-08T15:00:00	4	Temperatura máxima	27.1
183535	7	Sololá	712	San Antonio Palopó	9	San Antonio Palopo	7	Julio	2023-07-18T00:00:00	2024-11-08T15:00:00	3	Temperatura mínima	25.8
183536	7	Sololá	712	San Antonio Palopó	9	San Antonio Palopo	7	Julio	2023-07-18T00:00:00	2024-11-08T15:00:00	5	Humedad	37
183537	7	Sololá	712	San Antonio Palopó	9	San Antonio Palopo	7	Julio	2023-07-18T00:00:00	2024-11-08T15:00:00	6	Velocidad del viento	9.7
183538	7	Sololá	712	San Antonio Palopó	9	San Antonio Palopo	7	Julio	2023-07-18T00:00:00	2024-11-08T15:00:00	7	Dirección del viento	9.66
183539	7	Sololá	712	San Antonio Palopó	9	San Antonio Palopo	7	Julio	2023-07-18T00:00:00	2024-11-08T15:00:00	1	Precipitación	0
183540	7	Sololá	712	San Antonio Palopó	9	San Antonio Palopo	7	Julio	2023-07-18T00:00:00	2024-11-08T15:00:00	8	Radiación solar	476
183541	7	Sololá	712	San Antonio Palopó	9	San Antonio Palopo	7	Julio	2023-07-18T00:00:00	2024-11-08T16:00:00	2	Temperatura media	24.8
183542	7	Sololá	712	San Antonio Palopó	9	San Antonio Palopo	7	Julio	2023-07-18T00:00:00	2024-11-08T16:00:00	4	Temperatura máxima	25.9
183543	7	Sololá	712	San Antonio Palopó	9	San Antonio Palopo	7	Julio	2023-07-18T00:00:00	2024-11-08T16:00:00	3	Temperatura mínima	24.8
183544	7	Sololá	712	San Antonio Palopó	9	San Antonio Palopo	7	Julio	2023-07-18T00:00:00	2024-11-08T16:00:00	5	Humedad	36
183545	7	Sololá	712	San Antonio Palopó	9	San Antonio Palopo	7	Julio	2023-07-18T00:00:00	2024-11-08T16:00:00	6	Velocidad del viento	8
183546	7	Sololá	712	San Antonio Palopó	9	San Antonio Palopo	7	Julio	2023-07-18T00:00:00	2024-11-08T16:00:00	7	Dirección del viento	8.05
183547	7	Sololá	712	San Antonio Palopó	9	San Antonio Palopo	7	Julio	2023-07-18T00:00:00	2024-11-08T16:00:00	1	Precipitación	0
183548	7	Sololá	712	San Antonio Palopó	9	San Antonio Palopo	7	Julio	2023-07-18T00:00:00	2024-11-08T16:00:00	8	Radiación solar	218
183549	7	Sololá	712	San Antonio Palopó	9	San Antonio Palopo	7	Julio	2023-07-18T00:00:00	2024-11-08T17:00:00	2	Temperatura media	24.7
183550	7	Sololá	712	San Antonio Palopó	9	San Antonio Palopo	7	Julio	2023-07-18T00:00:00	2024-11-08T17:00:00	4	Temperatura máxima	25.1
183551	7	Sololá	712	San Antonio Palopó	9	San Antonio Palopo	7	Julio	2023-07-18T00:00:00	2024-11-08T17:00:00	3	Temperatura mínima	24.7
183552	7	Sololá	712	San Antonio Palopó	9	San Antonio Palopo	7	Julio	2023-07-18T00:00:00	2024-11-08T17:00:00	5	Humedad	46
183553	7	Sololá	712	San Antonio Palopó	9	San Antonio Palopo	7	Julio	2023-07-18T00:00:00	2024-11-08T17:00:00	6	Velocidad del viento	6.4
183554	7	Sololá	712	San Antonio Palopó	9	San Antonio Palopo	7	Julio	2023-07-18T00:00:00	2024-11-08T17:00:00	7	Dirección del viento	6.44
183555	7	Sololá	712	San Antonio Palopó	9	San Antonio Palopo	7	Julio	2023-07-18T00:00:00	2024-11-08T17:00:00	1	Precipitación	0
183556	7	Sololá	712	San Antonio Palopó	9	San Antonio Palopo	7	Julio	2023-07-18T00:00:00	2024-11-08T17:00:00	8	Radiación solar	189
183557	7	Sololá	712	San Antonio Palopó	9	San Antonio Palopo	7	Julio	2023-07-18T00:00:00	2024-11-08T18:00:00	2	Temperatura media	24.5
183558	7	Sololá	712	San Antonio Palopó	9	San Antonio Palopo	7	Julio	2023-07-18T00:00:00	2024-11-08T18:00:00	4	Temperatura máxima	25.2
183559	7	Sololá	712	San Antonio Palopó	9	San Antonio Palopo	7	Julio	2023-07-18T00:00:00	2024-11-08T18:00:00	3	Temperatura mínima	24.5
183560	7	Sololá	712	San Antonio Palopó	9	San Antonio Palopo	7	Julio	2023-07-18T00:00:00	2024-11-08T18:00:00	5	Humedad	48
183561	7	Sololá	712	San Antonio Palopó	9	San Antonio Palopo	7	Julio	2023-07-18T00:00:00	2024-11-08T18:00:00	6	Velocidad del viento	8
183562	7	Sololá	712	San Antonio Palopó	9	San Antonio Palopo	7	Julio	2023-07-18T00:00:00	2024-11-08T18:00:00	7	Dirección del viento	8.05
183563	7	Sololá	712	San Antonio Palopó	9	San Antonio Palopo	7	Julio	2023-07-18T00:00:00	2024-11-08T18:00:00	1	Precipitación	0
183564	7	Sololá	712	San Antonio Palopó	9	San Antonio Palopo	7	Julio	2023-07-18T00:00:00	2024-11-08T18:00:00	8	Radiación solar	152
183565	7	Sololá	712	San Antonio Palopó	9	San Antonio Palopo	7	Julio	2023-07-18T00:00:00	2024-11-08T19:00:00	2	Temperatura media	22.7
183566	7	Sololá	712	San Antonio Palopó	9	San Antonio Palopo	7	Julio	2023-07-18T00:00:00	2024-11-08T19:00:00	4	Temperatura máxima	24.5
183567	7	Sololá	712	San Antonio Palopó	9	San Antonio Palopo	7	Julio	2023-07-18T00:00:00	2024-11-08T19:00:00	3	Temperatura mínima	22.6
183568	7	Sololá	712	San Antonio Palopó	9	San Antonio Palopo	7	Julio	2023-07-18T00:00:00	2024-11-08T19:00:00	5	Humedad	59
183569	7	Sololá	712	San Antonio Palopó	9	San Antonio Palopo	7	Julio	2023-07-18T00:00:00	2024-11-08T19:00:00	6	Velocidad del viento	3.2
183570	7	Sololá	712	San Antonio Palopó	9	San Antonio Palopo	7	Julio	2023-07-18T00:00:00	2024-11-08T19:00:00	7	Dirección del viento	3.22
183571	7	Sololá	712	San Antonio Palopó	9	San Antonio Palopo	7	Julio	2023-07-18T00:00:00	2024-11-08T19:00:00	1	Precipitación	0
183572	7	Sololá	712	San Antonio Palopó	9	San Antonio Palopo	7	Julio	2023-07-18T00:00:00	2024-11-08T19:00:00	8	Radiación solar	0
183573	7	Sololá	712	San Antonio Palopó	9	San Antonio Palopo	7	Julio	2023-07-18T00:00:00	2024-11-08T20:00:00	2	Temperatura media	21.3
183574	7	Sololá	712	San Antonio Palopó	9	San Antonio Palopo	7	Julio	2023-07-18T00:00:00	2024-11-08T20:00:00	4	Temperatura máxima	22.7
183575	7	Sololá	712	San Antonio Palopó	9	San Antonio Palopo	7	Julio	2023-07-18T00:00:00	2024-11-08T20:00:00	3	Temperatura mínima	21.3
183576	7	Sololá	712	San Antonio Palopó	9	San Antonio Palopo	7	Julio	2023-07-18T00:00:00	2024-11-08T20:00:00	5	Humedad	63
183577	7	Sololá	712	San Antonio Palopó	9	San Antonio Palopo	7	Julio	2023-07-18T00:00:00	2024-11-08T20:00:00	6	Velocidad del viento	4.8
183578	7	Sololá	712	San Antonio Palopó	9	San Antonio Palopo	7	Julio	2023-07-18T00:00:00	2024-11-08T20:00:00	7	Dirección del viento	4.83
183579	7	Sololá	712	San Antonio Palopó	9	San Antonio Palopo	7	Julio	2023-07-18T00:00:00	2024-11-08T20:00:00	1	Precipitación	0
183580	7	Sololá	712	San Antonio Palopó	9	San Antonio Palopo	7	Julio	2023-07-18T00:00:00	2024-11-08T20:00:00	8	Radiación solar	0
183581	7	Sololá	712	San Antonio Palopó	9	San Antonio Palopo	7	Julio	2023-07-18T00:00:00	2024-11-08T21:00:00	2	Temperatura media	20.7
183582	7	Sololá	712	San Antonio Palopó	9	San Antonio Palopo	7	Julio	2023-07-18T00:00:00	2024-11-08T21:00:00	4	Temperatura máxima	21.3
183583	7	Sololá	712	San Antonio Palopó	9	San Antonio Palopo	7	Julio	2023-07-18T00:00:00	2024-11-08T21:00:00	3	Temperatura mínima	20.7
183584	7	Sololá	712	San Antonio Palopó	9	San Antonio Palopo	7	Julio	2023-07-18T00:00:00	2024-11-08T21:00:00	5	Humedad	65
183585	7	Sololá	712	San Antonio Palopó	9	San Antonio Palopo	7	Julio	2023-07-18T00:00:00	2024-11-08T21:00:00	6	Velocidad del viento	1.6
183586	7	Sololá	712	San Antonio Palopó	9	San Antonio Palopo	7	Julio	2023-07-18T00:00:00	2024-11-08T21:00:00	7	Dirección del viento	1.61
183587	7	Sololá	712	San Antonio Palopó	9	San Antonio Palopo	7	Julio	2023-07-18T00:00:00	2024-11-08T21:00:00	1	Precipitación	0
183588	7	Sololá	712	San Antonio Palopó	9	San Antonio Palopo	7	Julio	2023-07-18T00:00:00	2024-11-08T21:00:00	8	Radiación solar	0
183589	7	Sololá	712	San Antonio Palopó	9	San Antonio Palopo	7	Julio	2023-07-18T00:00:00	2024-11-08T22:00:00	2	Temperatura media	19.9
183590	7	Sololá	712	San Antonio Palopó	9	San Antonio Palopo	7	Julio	2023-07-18T00:00:00	2024-11-08T22:00:00	4	Temperatura máxima	20.7
183591	7	Sololá	712	San Antonio Palopó	9	San Antonio Palopo	7	Julio	2023-07-18T00:00:00	2024-11-08T22:00:00	3	Temperatura mínima	19.8
183592	7	Sololá	712	San Antonio Palopó	9	San Antonio Palopo	7	Julio	2023-07-18T00:00:00	2024-11-08T22:00:00	5	Humedad	61
183593	7	Sololá	712	San Antonio Palopó	9	San Antonio Palopo	7	Julio	2023-07-18T00:00:00	2024-11-08T22:00:00	6	Velocidad del viento	4.8
183594	7	Sololá	712	San Antonio Palopó	9	San Antonio Palopo	7	Julio	2023-07-18T00:00:00	2024-11-08T22:00:00	7	Dirección del viento	4.83
183595	7	Sololá	712	San Antonio Palopó	9	San Antonio Palopo	7	Julio	2023-07-18T00:00:00	2024-11-08T22:00:00	1	Precipitación	0
183596	7	Sololá	712	San Antonio Palopó	9	San Antonio Palopo	7	Julio	2023-07-18T00:00:00	2024-11-08T22:00:00	8	Radiación solar	0
183597	7	Sololá	712	San Antonio Palopó	9	San Antonio Palopo	7	Julio	2023-07-18T00:00:00	2024-11-08T23:00:00	2	Temperatura media	19
183598	7	Sololá	712	San Antonio Palopó	9	San Antonio Palopo	7	Julio	2023-07-18T00:00:00	2024-11-08T23:00:00	4	Temperatura máxima	19.9
183599	7	Sololá	712	San Antonio Palopó	9	San Antonio Palopo	7	Julio	2023-07-18T00:00:00	2024-11-08T23:00:00	3	Temperatura mínima	18.9
183600	7	Sololá	712	San Antonio Palopó	9	San Antonio Palopo	7	Julio	2023-07-18T00:00:00	2024-11-08T23:00:00	5	Humedad	63
183601	7	Sololá	712	San Antonio Palopó	9	San Antonio Palopo	7	Julio	2023-07-18T00:00:00	2024-11-08T23:00:00	6	Velocidad del viento	6.4
183602	7	Sololá	712	San Antonio Palopó	9	San Antonio Palopo	7	Julio	2023-07-18T00:00:00	2024-11-08T23:00:00	7	Dirección del viento	6.44
183603	7	Sololá	712	San Antonio Palopó	9	San Antonio Palopo	7	Julio	2023-07-18T00:00:00	2024-11-08T23:00:00	1	Precipitación	0
183604	7	Sololá	712	San Antonio Palopó	9	San Antonio Palopo	7	Julio	2023-07-18T00:00:00	2024-11-08T23:00:00	8	Radiación solar	0
183605	7	Sololá	712	San Antonio Palopó	9	San Antonio Palopo	7	Julio	2023-07-19T00:00:00	2024-11-08T00:00:00	2	Temperatura media	20.7
183606	7	Sololá	712	San Antonio Palopó	9	San Antonio Palopo	7	Julio	2023-07-19T00:00:00	2024-11-08T00:00:00	4	Temperatura máxima	20.7
183607	7	Sololá	712	San Antonio Palopó	9	San Antonio Palopo	7	Julio	2023-07-19T00:00:00	2024-11-08T00:00:00	3	Temperatura mínima	19
183608	7	Sololá	712	San Antonio Palopó	9	San Antonio Palopo	7	Julio	2023-07-19T00:00:00	2024-11-08T00:00:00	5	Humedad	61
183609	7	Sololá	712	San Antonio Palopó	9	San Antonio Palopo	7	Julio	2023-07-19T00:00:00	2024-11-08T00:00:00	6	Velocidad del viento	6.4
183610	7	Sololá	712	San Antonio Palopó	9	San Antonio Palopo	7	Julio	2023-07-19T00:00:00	2024-11-08T00:00:00	7	Dirección del viento	6.44
183611	7	Sololá	712	San Antonio Palopó	9	San Antonio Palopo	7	Julio	2023-07-19T00:00:00	2024-11-08T00:00:00	1	Precipitación	0
183612	7	Sololá	712	San Antonio Palopó	9	San Antonio Palopo	7	Julio	2023-07-19T00:00:00	2024-11-08T00:00:00	8	Radiación solar	0
183613	7	Sololá	712	San Antonio Palopó	9	San Antonio Palopo	7	Julio	2023-07-19T00:00:00	2024-11-08T01:00:00	2	Temperatura media	19.6
183614	7	Sololá	712	San Antonio Palopó	9	San Antonio Palopo	7	Julio	2023-07-19T00:00:00	2024-11-08T01:00:00	4	Temperatura máxima	20.7
183615	7	Sololá	712	San Antonio Palopó	9	San Antonio Palopo	7	Julio	2023-07-19T00:00:00	2024-11-08T01:00:00	3	Temperatura mínima	19.6
183616	7	Sololá	712	San Antonio Palopó	9	San Antonio Palopo	7	Julio	2023-07-19T00:00:00	2024-11-08T01:00:00	5	Humedad	66
183617	7	Sololá	712	San Antonio Palopó	9	San Antonio Palopo	7	Julio	2023-07-19T00:00:00	2024-11-08T01:00:00	6	Velocidad del viento	4.8
183618	7	Sololá	712	San Antonio Palopó	9	San Antonio Palopo	7	Julio	2023-07-19T00:00:00	2024-11-08T01:00:00	7	Dirección del viento	4.83
183619	7	Sololá	712	San Antonio Palopó	9	San Antonio Palopo	7	Julio	2023-07-19T00:00:00	2024-11-08T01:00:00	1	Precipitación	0
183620	7	Sololá	712	San Antonio Palopó	9	San Antonio Palopo	7	Julio	2023-07-19T00:00:00	2024-11-08T01:00:00	8	Radiación solar	0
183621	7	Sololá	712	San Antonio Palopó	9	San Antonio Palopo	7	Julio	2023-07-19T00:00:00	2024-11-08T02:00:00	2	Temperatura media	20
183622	7	Sololá	712	San Antonio Palopó	9	San Antonio Palopo	7	Julio	2023-07-19T00:00:00	2024-11-08T02:00:00	4	Temperatura máxima	20
183623	7	Sololá	712	San Antonio Palopó	9	San Antonio Palopo	7	Julio	2023-07-19T00:00:00	2024-11-08T02:00:00	3	Temperatura mínima	19.4
183624	7	Sololá	712	San Antonio Palopó	9	San Antonio Palopo	7	Julio	2023-07-19T00:00:00	2024-11-08T02:00:00	5	Humedad	58
183625	7	Sololá	712	San Antonio Palopó	9	San Antonio Palopo	7	Julio	2023-07-19T00:00:00	2024-11-08T02:00:00	6	Velocidad del viento	8
183626	7	Sololá	712	San Antonio Palopó	9	San Antonio Palopo	7	Julio	2023-07-19T00:00:00	2024-11-08T02:00:00	7	Dirección del viento	8.05
183627	7	Sololá	712	San Antonio Palopó	9	San Antonio Palopo	7	Julio	2023-07-19T00:00:00	2024-11-08T02:00:00	1	Precipitación	0
183628	7	Sololá	712	San Antonio Palopó	9	San Antonio Palopo	7	Julio	2023-07-19T00:00:00	2024-11-08T02:00:00	8	Radiación solar	0
183629	7	Sololá	712	San Antonio Palopó	9	San Antonio Palopo	7	Julio	2023-07-19T00:00:00	2024-11-08T03:00:00	2	Temperatura media	19.6
183630	7	Sololá	712	San Antonio Palopó	9	San Antonio Palopo	7	Julio	2023-07-19T00:00:00	2024-11-08T03:00:00	4	Temperatura máxima	20
183631	7	Sololá	712	San Antonio Palopó	9	San Antonio Palopo	7	Julio	2023-07-19T00:00:00	2024-11-08T03:00:00	3	Temperatura mínima	19.6
183632	7	Sololá	712	San Antonio Palopó	9	San Antonio Palopo	7	Julio	2023-07-19T00:00:00	2024-11-08T03:00:00	5	Humedad	51
183633	7	Sololá	712	San Antonio Palopó	9	San Antonio Palopo	7	Julio	2023-07-19T00:00:00	2024-11-08T03:00:00	6	Velocidad del viento	8
183634	7	Sololá	712	San Antonio Palopó	9	San Antonio Palopo	7	Julio	2023-07-19T00:00:00	2024-11-08T03:00:00	7	Dirección del viento	8.05
183635	7	Sololá	712	San Antonio Palopó	9	San Antonio Palopo	7	Julio	2023-07-19T00:00:00	2024-11-08T03:00:00	1	Precipitación	0
183636	7	Sololá	712	San Antonio Palopó	9	San Antonio Palopo	7	Julio	2023-07-19T00:00:00	2024-11-08T03:00:00	8	Radiación solar	0
183637	7	Sololá	712	San Antonio Palopó	9	San Antonio Palopo	7	Julio	2023-07-19T00:00:00	2024-11-08T04:00:00	2	Temperatura media	19.4
183638	7	Sololá	712	San Antonio Palopó	9	San Antonio Palopo	7	Julio	2023-07-19T00:00:00	2024-11-08T04:00:00	4	Temperatura máxima	19.7
183639	7	Sololá	712	San Antonio Palopó	9	San Antonio Palopo	7	Julio	2023-07-19T00:00:00	2024-11-08T04:00:00	3	Temperatura mínima	19.4
183640	7	Sololá	712	San Antonio Palopó	9	San Antonio Palopo	7	Julio	2023-07-19T00:00:00	2024-11-08T04:00:00	5	Humedad	49
183641	7	Sololá	712	San Antonio Palopó	9	San Antonio Palopo	7	Julio	2023-07-19T00:00:00	2024-11-08T04:00:00	6	Velocidad del viento	6.4
183642	7	Sololá	712	San Antonio Palopó	9	San Antonio Palopo	7	Julio	2023-07-19T00:00:00	2024-11-08T04:00:00	7	Dirección del viento	6.44
183643	7	Sololá	712	San Antonio Palopó	9	San Antonio Palopo	7	Julio	2023-07-19T00:00:00	2024-11-08T04:00:00	1	Precipitación	0
183644	7	Sololá	712	San Antonio Palopó	9	San Antonio Palopo	7	Julio	2023-07-19T00:00:00	2024-11-08T04:00:00	8	Radiación solar	0
183645	7	Sololá	712	San Antonio Palopó	9	San Antonio Palopo	7	Julio	2023-07-19T00:00:00	2024-11-08T05:00:00	2	Temperatura media	19.5
183646	7	Sololá	712	San Antonio Palopó	9	San Antonio Palopo	7	Julio	2023-07-19T00:00:00	2024-11-08T05:00:00	4	Temperatura máxima	19.8
183647	7	Sololá	712	San Antonio Palopó	9	San Antonio Palopo	7	Julio	2023-07-19T00:00:00	2024-11-08T05:00:00	3	Temperatura mínima	19.4
183648	7	Sololá	712	San Antonio Palopó	9	San Antonio Palopo	7	Julio	2023-07-19T00:00:00	2024-11-08T05:00:00	5	Humedad	52
183649	7	Sololá	712	San Antonio Palopó	9	San Antonio Palopo	7	Julio	2023-07-19T00:00:00	2024-11-08T05:00:00	6	Velocidad del viento	8
183650	7	Sololá	712	San Antonio Palopó	9	San Antonio Palopo	7	Julio	2023-07-19T00:00:00	2024-11-08T05:00:00	7	Dirección del viento	8.05
183651	7	Sololá	712	San Antonio Palopó	9	San Antonio Palopo	7	Julio	2023-07-19T00:00:00	2024-11-08T05:00:00	1	Precipitación	0
183652	7	Sololá	712	San Antonio Palopó	9	San Antonio Palopo	7	Julio	2023-07-19T00:00:00	2024-11-08T05:00:00	8	Radiación solar	0
183653	7	Sololá	712	San Antonio Palopó	9	San Antonio Palopo	7	Julio	2023-07-19T00:00:00	2024-11-08T06:00:00	2	Temperatura media	19.8
183654	7	Sololá	712	San Antonio Palopó	9	San Antonio Palopo	7	Julio	2023-07-19T00:00:00	2024-11-08T06:00:00	4	Temperatura máxima	20.2
183655	7	Sololá	712	San Antonio Palopó	9	San Antonio Palopo	7	Julio	2023-07-19T00:00:00	2024-11-08T06:00:00	3	Temperatura mínima	19.5
183656	7	Sololá	712	San Antonio Palopó	9	San Antonio Palopo	7	Julio	2023-07-19T00:00:00	2024-11-08T06:00:00	5	Humedad	56
183657	7	Sololá	712	San Antonio Palopó	9	San Antonio Palopo	7	Julio	2023-07-19T00:00:00	2024-11-08T06:00:00	6	Velocidad del viento	6.4
183658	7	Sololá	712	San Antonio Palopó	9	San Antonio Palopo	7	Julio	2023-07-19T00:00:00	2024-11-08T06:00:00	7	Dirección del viento	6.44
183659	7	Sololá	712	San Antonio Palopó	9	San Antonio Palopo	7	Julio	2023-07-19T00:00:00	2024-11-08T06:00:00	1	Precipitación	0
183660	7	Sololá	712	San Antonio Palopó	9	San Antonio Palopo	7	Julio	2023-07-19T00:00:00	2024-11-08T06:00:00	8	Radiación solar	2
183661	7	Sololá	712	San Antonio Palopó	9	San Antonio Palopo	7	Julio	2023-07-19T00:00:00	2024-11-08T07:00:00	2	Temperatura media	20.2
183662	7	Sololá	712	San Antonio Palopó	9	San Antonio Palopo	7	Julio	2023-07-19T00:00:00	2024-11-08T07:00:00	4	Temperatura máxima	20.3
183663	7	Sololá	712	San Antonio Palopó	9	San Antonio Palopo	7	Julio	2023-07-19T00:00:00	2024-11-08T07:00:00	3	Temperatura mínima	19.8
183664	7	Sololá	712	San Antonio Palopó	9	San Antonio Palopo	7	Julio	2023-07-19T00:00:00	2024-11-08T07:00:00	5	Humedad	60
183665	7	Sololá	712	San Antonio Palopó	9	San Antonio Palopo	7	Julio	2023-07-19T00:00:00	2024-11-08T07:00:00	6	Velocidad del viento	6.4
183666	7	Sololá	712	San Antonio Palopó	9	San Antonio Palopo	7	Julio	2023-07-19T00:00:00	2024-11-08T07:00:00	7	Dirección del viento	6.44
183667	7	Sololá	712	San Antonio Palopó	9	San Antonio Palopo	7	Julio	2023-07-19T00:00:00	2024-11-08T07:00:00	1	Precipitación	0
183668	7	Sololá	712	San Antonio Palopó	9	San Antonio Palopo	7	Julio	2023-07-19T00:00:00	2024-11-08T07:00:00	8	Radiación solar	66
183669	7	Sololá	712	San Antonio Palopó	9	San Antonio Palopo	7	Julio	2023-07-19T00:00:00	2024-11-08T08:00:00	2	Temperatura media	21.2
183670	7	Sololá	712	San Antonio Palopó	9	San Antonio Palopo	7	Julio	2023-07-19T00:00:00	2024-11-08T08:00:00	4	Temperatura máxima	21.3
183671	7	Sololá	712	San Antonio Palopó	9	San Antonio Palopo	7	Julio	2023-07-19T00:00:00	2024-11-08T08:00:00	3	Temperatura mínima	20.1
183672	7	Sololá	712	San Antonio Palopó	9	San Antonio Palopo	7	Julio	2023-07-19T00:00:00	2024-11-08T08:00:00	5	Humedad	64
183673	7	Sololá	712	San Antonio Palopó	9	San Antonio Palopo	7	Julio	2023-07-19T00:00:00	2024-11-08T08:00:00	6	Velocidad del viento	12.9
183674	7	Sololá	712	San Antonio Palopó	9	San Antonio Palopo	7	Julio	2023-07-19T00:00:00	2024-11-08T08:00:00	7	Dirección del viento	12.87
183675	7	Sololá	712	San Antonio Palopó	9	San Antonio Palopo	7	Julio	2023-07-19T00:00:00	2024-11-08T08:00:00	1	Precipitación	0
183676	7	Sololá	712	San Antonio Palopó	9	San Antonio Palopo	7	Julio	2023-07-19T00:00:00	2024-11-08T08:00:00	8	Radiación solar	225
183677	7	Sololá	712	San Antonio Palopó	9	San Antonio Palopo	7	Julio	2023-07-19T00:00:00	2024-11-08T09:00:00	2	Temperatura media	22.4
183678	7	Sololá	712	San Antonio Palopó	9	San Antonio Palopo	7	Julio	2023-07-19T00:00:00	2024-11-08T09:00:00	4	Temperatura máxima	22.4
183679	7	Sololá	712	San Antonio Palopó	9	San Antonio Palopo	7	Julio	2023-07-19T00:00:00	2024-11-08T09:00:00	3	Temperatura mínima	21.1
183680	7	Sololá	712	San Antonio Palopó	9	San Antonio Palopo	7	Julio	2023-07-19T00:00:00	2024-11-08T09:00:00	5	Humedad	59
183681	7	Sololá	712	San Antonio Palopó	9	San Antonio Palopo	7	Julio	2023-07-19T00:00:00	2024-11-08T09:00:00	6	Velocidad del viento	9.7
183682	7	Sololá	712	San Antonio Palopó	9	San Antonio Palopo	7	Julio	2023-07-19T00:00:00	2024-11-08T09:00:00	7	Dirección del viento	9.66
183683	7	Sololá	712	San Antonio Palopó	9	San Antonio Palopo	7	Julio	2023-07-19T00:00:00	2024-11-08T09:00:00	1	Precipitación	0
183684	7	Sololá	712	San Antonio Palopó	9	San Antonio Palopo	7	Julio	2023-07-19T00:00:00	2024-11-08T09:00:00	8	Radiación solar	506
183685	7	Sololá	712	San Antonio Palopó	9	San Antonio Palopo	7	Julio	2023-07-19T00:00:00	2024-11-08T10:00:00	2	Temperatura media	23.6
183686	7	Sololá	712	San Antonio Palopó	9	San Antonio Palopo	7	Julio	2023-07-19T00:00:00	2024-11-08T10:00:00	4	Temperatura máxima	23.6
183687	7	Sololá	712	San Antonio Palopó	9	San Antonio Palopo	7	Julio	2023-07-19T00:00:00	2024-11-08T10:00:00	3	Temperatura mínima	22.4
183688	7	Sololá	712	San Antonio Palopó	9	San Antonio Palopo	7	Julio	2023-07-19T00:00:00	2024-11-08T10:00:00	5	Humedad	53
183689	7	Sololá	712	San Antonio Palopó	9	San Antonio Palopo	7	Julio	2023-07-19T00:00:00	2024-11-08T10:00:00	6	Velocidad del viento	9.7
183690	7	Sololá	712	San Antonio Palopó	9	San Antonio Palopo	7	Julio	2023-07-19T00:00:00	2024-11-08T10:00:00	7	Dirección del viento	9.66
183691	7	Sololá	712	San Antonio Palopó	9	San Antonio Palopo	7	Julio	2023-07-19T00:00:00	2024-11-08T10:00:00	1	Precipitación	0
183692	7	Sololá	712	San Antonio Palopó	9	San Antonio Palopo	7	Julio	2023-07-19T00:00:00	2024-11-08T10:00:00	8	Radiación solar	747
183693	7	Sololá	712	San Antonio Palopó	9	San Antonio Palopo	7	Julio	2023-07-19T00:00:00	2024-11-08T11:00:00	2	Temperatura media	24.3
183694	7	Sololá	712	San Antonio Palopó	9	San Antonio Palopo	7	Julio	2023-07-19T00:00:00	2024-11-08T11:00:00	4	Temperatura máxima	24.3
183695	7	Sololá	712	San Antonio Palopó	9	San Antonio Palopo	7	Julio	2023-07-19T00:00:00	2024-11-08T11:00:00	3	Temperatura mínima	23.6
183696	7	Sololá	712	San Antonio Palopó	9	San Antonio Palopo	7	Julio	2023-07-19T00:00:00	2024-11-08T11:00:00	5	Humedad	51
183697	7	Sololá	712	San Antonio Palopó	9	San Antonio Palopo	7	Julio	2023-07-19T00:00:00	2024-11-08T11:00:00	6	Velocidad del viento	11.3
183698	7	Sololá	712	San Antonio Palopó	9	San Antonio Palopo	7	Julio	2023-07-19T00:00:00	2024-11-08T11:00:00	7	Dirección del viento	11.27
183699	7	Sololá	712	San Antonio Palopó	9	San Antonio Palopo	7	Julio	2023-07-19T00:00:00	2024-11-08T11:00:00	1	Precipitación	0
183700	7	Sololá	712	San Antonio Palopó	9	San Antonio Palopo	7	Julio	2023-07-19T00:00:00	2024-11-08T11:00:00	8	Radiación solar	858
183701	7	Sololá	712	San Antonio Palopó	9	San Antonio Palopo	7	Julio	2023-07-19T00:00:00	2024-11-08T12:00:00	2	Temperatura media	25.4
183702	7	Sololá	712	San Antonio Palopó	9	San Antonio Palopo	7	Julio	2023-07-19T00:00:00	2024-11-08T12:00:00	4	Temperatura máxima	25.6
183703	7	Sololá	712	San Antonio Palopó	9	San Antonio Palopo	7	Julio	2023-07-19T00:00:00	2024-11-08T12:00:00	3	Temperatura mínima	24.3
183704	7	Sololá	712	San Antonio Palopó	9	San Antonio Palopo	7	Julio	2023-07-19T00:00:00	2024-11-08T12:00:00	5	Humedad	48
183705	7	Sololá	712	San Antonio Palopó	9	San Antonio Palopo	7	Julio	2023-07-19T00:00:00	2024-11-08T12:00:00	6	Velocidad del viento	9.7
183706	7	Sololá	712	San Antonio Palopó	9	San Antonio Palopo	7	Julio	2023-07-19T00:00:00	2024-11-08T12:00:00	7	Dirección del viento	9.66
183707	7	Sololá	712	San Antonio Palopó	9	San Antonio Palopo	7	Julio	2023-07-19T00:00:00	2024-11-08T12:00:00	1	Precipitación	0
183708	7	Sololá	712	San Antonio Palopó	9	San Antonio Palopo	7	Julio	2023-07-19T00:00:00	2024-11-08T12:00:00	8	Radiación solar	941
183709	7	Sololá	712	San Antonio Palopó	9	San Antonio Palopo	7	Julio	2023-07-19T00:00:00	2024-11-08T13:00:00	2	Temperatura media	26.3
183710	7	Sololá	712	San Antonio Palopó	9	San Antonio Palopo	7	Julio	2023-07-19T00:00:00	2024-11-08T13:00:00	4	Temperatura máxima	26.3
183711	7	Sololá	712	San Antonio Palopó	9	San Antonio Palopo	7	Julio	2023-07-19T00:00:00	2024-11-08T13:00:00	3	Temperatura mínima	25.2
183712	7	Sololá	712	San Antonio Palopó	9	San Antonio Palopo	7	Julio	2023-07-19T00:00:00	2024-11-08T13:00:00	5	Humedad	47
183713	7	Sololá	712	San Antonio Palopó	9	San Antonio Palopo	7	Julio	2023-07-19T00:00:00	2024-11-08T13:00:00	6	Velocidad del viento	11.3
183714	7	Sololá	712	San Antonio Palopó	9	San Antonio Palopo	7	Julio	2023-07-19T00:00:00	2024-11-08T13:00:00	7	Dirección del viento	11.27
183715	7	Sololá	712	San Antonio Palopó	9	San Antonio Palopo	7	Julio	2023-07-19T00:00:00	2024-11-08T13:00:00	1	Precipitación	0
183716	7	Sololá	712	San Antonio Palopó	9	San Antonio Palopo	7	Julio	2023-07-19T00:00:00	2024-11-08T13:00:00	8	Radiación solar	954
183717	7	Sololá	712	San Antonio Palopó	9	San Antonio Palopo	7	Julio	2023-07-19T00:00:00	2024-11-08T14:00:00	2	Temperatura media	26.9
183718	7	Sololá	712	San Antonio Palopó	9	San Antonio Palopo	7	Julio	2023-07-19T00:00:00	2024-11-08T14:00:00	4	Temperatura máxima	26.9
183719	7	Sololá	712	San Antonio Palopó	9	San Antonio Palopo	7	Julio	2023-07-19T00:00:00	2024-11-08T14:00:00	3	Temperatura mínima	25.6
183720	7	Sololá	712	San Antonio Palopó	9	San Antonio Palopo	7	Julio	2023-07-19T00:00:00	2024-11-08T14:00:00	5	Humedad	47
183721	7	Sololá	712	San Antonio Palopó	9	San Antonio Palopo	7	Julio	2023-07-19T00:00:00	2024-11-08T14:00:00	6	Velocidad del viento	12.9
183722	7	Sololá	712	San Antonio Palopó	9	San Antonio Palopo	7	Julio	2023-07-19T00:00:00	2024-11-08T14:00:00	7	Dirección del viento	12.87
183723	7	Sololá	712	San Antonio Palopó	9	San Antonio Palopo	7	Julio	2023-07-19T00:00:00	2024-11-08T14:00:00	1	Precipitación	0
183724	7	Sololá	712	San Antonio Palopó	9	San Antonio Palopo	7	Julio	2023-07-19T00:00:00	2024-11-08T14:00:00	8	Radiación solar	909
183725	7	Sololá	712	San Antonio Palopó	9	San Antonio Palopo	7	Julio	2023-07-19T00:00:00	2024-11-08T15:00:00	2	Temperatura media	26.9
183726	7	Sololá	712	San Antonio Palopó	9	San Antonio Palopo	7	Julio	2023-07-19T00:00:00	2024-11-08T15:00:00	4	Temperatura máxima	27.6
183727	7	Sololá	712	San Antonio Palopó	9	San Antonio Palopo	7	Julio	2023-07-19T00:00:00	2024-11-08T15:00:00	3	Temperatura mínima	26.3
183728	7	Sololá	712	San Antonio Palopó	9	San Antonio Palopo	7	Julio	2023-07-19T00:00:00	2024-11-08T15:00:00	5	Humedad	47
183729	7	Sololá	712	San Antonio Palopó	9	San Antonio Palopo	7	Julio	2023-07-19T00:00:00	2024-11-08T15:00:00	6	Velocidad del viento	11.3
183730	7	Sololá	712	San Antonio Palopó	9	San Antonio Palopo	7	Julio	2023-07-19T00:00:00	2024-11-08T15:00:00	7	Dirección del viento	11.27
183731	7	Sololá	712	San Antonio Palopó	9	San Antonio Palopo	7	Julio	2023-07-19T00:00:00	2024-11-08T15:00:00	1	Precipitación	0
183732	7	Sololá	712	San Antonio Palopó	9	San Antonio Palopo	7	Julio	2023-07-19T00:00:00	2024-11-08T15:00:00	8	Radiación solar	826
183733	7	Sololá	712	San Antonio Palopó	9	San Antonio Palopo	7	Julio	2023-07-19T00:00:00	2024-11-08T16:00:00	2	Temperatura media	25.8
183734	7	Sololá	712	San Antonio Palopó	9	San Antonio Palopo	7	Julio	2023-07-19T00:00:00	2024-11-08T16:00:00	4	Temperatura máxima	27
183735	7	Sololá	712	San Antonio Palopó	9	San Antonio Palopo	7	Julio	2023-07-19T00:00:00	2024-11-08T16:00:00	3	Temperatura mínima	25.7
183736	7	Sololá	712	San Antonio Palopó	9	San Antonio Palopo	7	Julio	2023-07-19T00:00:00	2024-11-08T16:00:00	5	Humedad	50
183737	7	Sololá	712	San Antonio Palopó	9	San Antonio Palopo	7	Julio	2023-07-19T00:00:00	2024-11-08T16:00:00	6	Velocidad del viento	11.3
183738	7	Sololá	712	San Antonio Palopó	9	San Antonio Palopo	7	Julio	2023-07-19T00:00:00	2024-11-08T16:00:00	7	Dirección del viento	11.27
183739	7	Sololá	712	San Antonio Palopó	9	San Antonio Palopo	7	Julio	2023-07-19T00:00:00	2024-11-08T16:00:00	1	Precipitación	0
183740	7	Sololá	712	San Antonio Palopó	9	San Antonio Palopo	7	Julio	2023-07-19T00:00:00	2024-11-08T16:00:00	8	Radiación solar	328
183741	7	Sololá	712	San Antonio Palopó	9	San Antonio Palopo	7	Julio	2023-07-19T00:00:00	2024-11-08T17:00:00	2	Temperatura media	26.1
183742	7	Sololá	712	San Antonio Palopó	9	San Antonio Palopo	7	Julio	2023-07-19T00:00:00	2024-11-08T17:00:00	4	Temperatura máxima	26.9
183743	7	Sololá	712	San Antonio Palopó	9	San Antonio Palopo	7	Julio	2023-07-19T00:00:00	2024-11-08T17:00:00	3	Temperatura mínima	25.8
183744	7	Sololá	712	San Antonio Palopó	9	San Antonio Palopo	7	Julio	2023-07-19T00:00:00	2024-11-08T17:00:00	5	Humedad	51
183745	7	Sololá	712	San Antonio Palopó	9	San Antonio Palopo	7	Julio	2023-07-19T00:00:00	2024-11-08T17:00:00	6	Velocidad del viento	8
183746	7	Sololá	712	San Antonio Palopó	9	San Antonio Palopo	7	Julio	2023-07-19T00:00:00	2024-11-08T17:00:00	7	Dirección del viento	8.05
183747	7	Sololá	712	San Antonio Palopó	9	San Antonio Palopo	7	Julio	2023-07-19T00:00:00	2024-11-08T17:00:00	1	Precipitación	0
183748	7	Sololá	712	San Antonio Palopó	9	San Antonio Palopo	7	Julio	2023-07-19T00:00:00	2024-11-08T17:00:00	8	Radiación solar	363
183749	7	Sololá	712	San Antonio Palopó	9	San Antonio Palopo	7	Julio	2023-07-19T00:00:00	2024-11-08T18:00:00	2	Temperatura media	24.6
183750	7	Sololá	712	San Antonio Palopó	9	San Antonio Palopo	7	Julio	2023-07-19T00:00:00	2024-11-08T18:00:00	4	Temperatura máxima	26.5
183751	7	Sololá	712	San Antonio Palopó	9	San Antonio Palopo	7	Julio	2023-07-19T00:00:00	2024-11-08T18:00:00	3	Temperatura mínima	24.6
183752	7	Sololá	712	San Antonio Palopó	9	San Antonio Palopo	7	Julio	2023-07-19T00:00:00	2024-11-08T18:00:00	5	Humedad	56
183753	7	Sololá	712	San Antonio Palopó	9	San Antonio Palopo	7	Julio	2023-07-19T00:00:00	2024-11-08T18:00:00	6	Velocidad del viento	6.4
183754	7	Sololá	712	San Antonio Palopó	9	San Antonio Palopo	7	Julio	2023-07-19T00:00:00	2024-11-08T18:00:00	7	Dirección del viento	6.44
183755	7	Sololá	712	San Antonio Palopó	9	San Antonio Palopo	7	Julio	2023-07-19T00:00:00	2024-11-08T18:00:00	1	Precipitación	0
183756	7	Sololá	712	San Antonio Palopó	9	San Antonio Palopo	7	Julio	2023-07-19T00:00:00	2024-11-08T18:00:00	8	Radiación solar	132
183757	7	Sololá	712	San Antonio Palopó	9	San Antonio Palopo	7	Julio	2023-07-19T00:00:00	2024-11-08T19:00:00	2	Temperatura media	23.3
183758	7	Sololá	712	San Antonio Palopó	9	San Antonio Palopo	7	Julio	2023-07-19T00:00:00	2024-11-08T19:00:00	4	Temperatura máxima	24.6
183759	7	Sololá	712	San Antonio Palopó	9	San Antonio Palopo	7	Julio	2023-07-19T00:00:00	2024-11-08T19:00:00	3	Temperatura mínima	23.3
183760	7	Sololá	712	San Antonio Palopó	9	San Antonio Palopo	7	Julio	2023-07-19T00:00:00	2024-11-08T19:00:00	5	Humedad	61
183761	7	Sololá	712	San Antonio Palopó	9	San Antonio Palopo	7	Julio	2023-07-19T00:00:00	2024-11-08T19:00:00	6	Velocidad del viento	6.4
183762	7	Sololá	712	San Antonio Palopó	9	San Antonio Palopo	7	Julio	2023-07-19T00:00:00	2024-11-08T19:00:00	7	Dirección del viento	6.44
183763	7	Sololá	712	San Antonio Palopó	9	San Antonio Palopo	7	Julio	2023-07-19T00:00:00	2024-11-08T19:00:00	1	Precipitación	0
183764	7	Sololá	712	San Antonio Palopó	9	San Antonio Palopo	7	Julio	2023-07-19T00:00:00	2024-11-08T19:00:00	8	Radiación solar	0
183765	7	Sololá	712	San Antonio Palopó	9	San Antonio Palopo	7	Julio	2023-07-19T00:00:00	2024-11-08T20:00:00	2	Temperatura media	22.4
183766	7	Sololá	712	San Antonio Palopó	9	San Antonio Palopo	7	Julio	2023-07-19T00:00:00	2024-11-08T20:00:00	4	Temperatura máxima	23.3
183767	7	Sololá	712	San Antonio Palopó	9	San Antonio Palopo	7	Julio	2023-07-19T00:00:00	2024-11-08T20:00:00	3	Temperatura mínima	22.4
183768	7	Sololá	712	San Antonio Palopó	9	San Antonio Palopo	7	Julio	2023-07-19T00:00:00	2024-11-08T20:00:00	5	Humedad	65
183769	7	Sololá	712	San Antonio Palopó	9	San Antonio Palopo	7	Julio	2023-07-19T00:00:00	2024-11-08T20:00:00	6	Velocidad del viento	8
183770	7	Sololá	712	San Antonio Palopó	9	San Antonio Palopo	7	Julio	2023-07-19T00:00:00	2024-11-08T20:00:00	7	Dirección del viento	8.05
183771	7	Sololá	712	San Antonio Palopó	9	San Antonio Palopo	7	Julio	2023-07-19T00:00:00	2024-11-08T20:00:00	1	Precipitación	0
183772	7	Sololá	712	San Antonio Palopó	9	San Antonio Palopo	7	Julio	2023-07-19T00:00:00	2024-11-08T20:00:00	8	Radiación solar	0
183773	7	Sololá	712	San Antonio Palopó	9	San Antonio Palopo	7	Julio	2023-07-19T00:00:00	2024-11-08T21:00:00	2	Temperatura media	21.9
183774	7	Sololá	712	San Antonio Palopó	9	San Antonio Palopo	7	Julio	2023-07-19T00:00:00	2024-11-08T21:00:00	4	Temperatura máxima	22.4
183775	7	Sololá	712	San Antonio Palopó	9	San Antonio Palopo	7	Julio	2023-07-19T00:00:00	2024-11-08T21:00:00	3	Temperatura mínima	21.9
183776	7	Sololá	712	San Antonio Palopó	9	San Antonio Palopo	7	Julio	2023-07-19T00:00:00	2024-11-08T21:00:00	5	Humedad	68
183777	7	Sololá	712	San Antonio Palopó	9	San Antonio Palopo	7	Julio	2023-07-19T00:00:00	2024-11-08T21:00:00	6	Velocidad del viento	9.7
183778	7	Sololá	712	San Antonio Palopó	9	San Antonio Palopo	7	Julio	2023-07-19T00:00:00	2024-11-08T21:00:00	7	Dirección del viento	9.66
183779	7	Sololá	712	San Antonio Palopó	9	San Antonio Palopo	7	Julio	2023-07-19T00:00:00	2024-11-08T21:00:00	1	Precipitación	0
183780	7	Sololá	712	San Antonio Palopó	9	San Antonio Palopo	7	Julio	2023-07-19T00:00:00	2024-11-08T21:00:00	8	Radiación solar	0
183781	7	Sololá	712	San Antonio Palopó	9	San Antonio Palopo	7	Julio	2023-07-19T00:00:00	2024-11-08T22:00:00	2	Temperatura media	21.7
183782	7	Sololá	712	San Antonio Palopó	9	San Antonio Palopo	7	Julio	2023-07-19T00:00:00	2024-11-08T22:00:00	4	Temperatura máxima	21.9
183783	7	Sololá	712	San Antonio Palopó	9	San Antonio Palopo	7	Julio	2023-07-19T00:00:00	2024-11-08T22:00:00	3	Temperatura mínima	21.6
183784	7	Sololá	712	San Antonio Palopó	9	San Antonio Palopo	7	Julio	2023-07-19T00:00:00	2024-11-08T22:00:00	5	Humedad	67
183785	7	Sololá	712	San Antonio Palopó	9	San Antonio Palopo	7	Julio	2023-07-19T00:00:00	2024-11-08T22:00:00	6	Velocidad del viento	11.3
183786	7	Sololá	712	San Antonio Palopó	9	San Antonio Palopo	7	Julio	2023-07-19T00:00:00	2024-11-08T22:00:00	7	Dirección del viento	11.27
183787	7	Sololá	712	San Antonio Palopó	9	San Antonio Palopo	7	Julio	2023-07-19T00:00:00	2024-11-08T22:00:00	1	Precipitación	0
183788	7	Sololá	712	San Antonio Palopó	9	San Antonio Palopo	7	Julio	2023-07-19T00:00:00	2024-11-08T22:00:00	8	Radiación solar	0
183789	7	Sololá	712	San Antonio Palopó	9	San Antonio Palopo	7	Julio	2023-07-19T00:00:00	2024-11-08T23:00:00	2	Temperatura media	21.3
183790	7	Sololá	712	San Antonio Palopó	9	San Antonio Palopo	7	Julio	2023-07-19T00:00:00	2024-11-08T23:00:00	4	Temperatura máxima	22
183791	7	Sololá	712	San Antonio Palopó	9	San Antonio Palopo	7	Julio	2023-07-19T00:00:00	2024-11-08T23:00:00	3	Temperatura mínima	21.2
183792	7	Sololá	712	San Antonio Palopó	9	San Antonio Palopo	7	Julio	2023-07-19T00:00:00	2024-11-08T23:00:00	5	Humedad	67
183793	7	Sololá	712	San Antonio Palopó	9	San Antonio Palopo	7	Julio	2023-07-19T00:00:00	2024-11-08T23:00:00	6	Velocidad del viento	12.9
183794	7	Sololá	712	San Antonio Palopó	9	San Antonio Palopo	7	Julio	2023-07-19T00:00:00	2024-11-08T23:00:00	7	Dirección del viento	12.87
183795	7	Sololá	712	San Antonio Palopó	9	San Antonio Palopo	7	Julio	2023-07-19T00:00:00	2024-11-08T23:00:00	1	Precipitación	0
183796	7	Sololá	712	San Antonio Palopó	9	San Antonio Palopo	7	Julio	2023-07-19T00:00:00	2024-11-08T23:00:00	8	Radiación solar	0
183797	7	Sololá	712	San Antonio Palopó	9	San Antonio Palopo	7	Julio	2023-07-20T00:00:00	2024-11-08T00:00:00	2	Temperatura media	21.2
183798	7	Sololá	712	San Antonio Palopó	9	San Antonio Palopo	7	Julio	2023-07-20T00:00:00	2024-11-08T00:00:00	4	Temperatura máxima	21.4
183799	7	Sololá	712	San Antonio Palopó	9	San Antonio Palopo	7	Julio	2023-07-20T00:00:00	2024-11-08T00:00:00	3	Temperatura mínima	20.9
183800	7	Sololá	712	San Antonio Palopó	9	San Antonio Palopo	7	Julio	2023-07-20T00:00:00	2024-11-08T00:00:00	5	Humedad	69
183801	7	Sololá	712	San Antonio Palopó	9	San Antonio Palopo	7	Julio	2023-07-20T00:00:00	2024-11-08T00:00:00	6	Velocidad del viento	9.7
183802	7	Sololá	712	San Antonio Palopó	9	San Antonio Palopo	7	Julio	2023-07-20T00:00:00	2024-11-08T00:00:00	7	Dirección del viento	9.66
183803	7	Sololá	712	San Antonio Palopó	9	San Antonio Palopo	7	Julio	2023-07-20T00:00:00	2024-11-08T00:00:00	1	Precipitación	0
183804	7	Sololá	712	San Antonio Palopó	9	San Antonio Palopo	7	Julio	2023-07-20T00:00:00	2024-11-08T00:00:00	8	Radiación solar	0
183805	7	Sololá	712	San Antonio Palopó	9	San Antonio Palopo	7	Julio	2023-07-20T00:00:00	2024-11-08T01:00:00	2	Temperatura media	20.7
183806	7	Sololá	712	San Antonio Palopó	9	San Antonio Palopo	7	Julio	2023-07-20T00:00:00	2024-11-08T01:00:00	4	Temperatura máxima	21.3
183807	7	Sololá	712	San Antonio Palopó	9	San Antonio Palopo	7	Julio	2023-07-20T00:00:00	2024-11-08T01:00:00	3	Temperatura mínima	20.6
183808	7	Sololá	712	San Antonio Palopó	9	San Antonio Palopo	7	Julio	2023-07-20T00:00:00	2024-11-08T01:00:00	5	Humedad	69
183809	7	Sololá	712	San Antonio Palopó	9	San Antonio Palopo	7	Julio	2023-07-20T00:00:00	2024-11-08T01:00:00	6	Velocidad del viento	9.7
183810	7	Sololá	712	San Antonio Palopó	9	San Antonio Palopo	7	Julio	2023-07-20T00:00:00	2024-11-08T01:00:00	7	Dirección del viento	9.66
183811	7	Sololá	712	San Antonio Palopó	9	San Antonio Palopo	7	Julio	2023-07-20T00:00:00	2024-11-08T01:00:00	1	Precipitación	0
183812	7	Sololá	712	San Antonio Palopó	9	San Antonio Palopo	7	Julio	2023-07-20T00:00:00	2024-11-08T01:00:00	8	Radiación solar	0
183813	7	Sololá	712	San Antonio Palopó	9	San Antonio Palopo	7	Julio	2023-07-20T00:00:00	2024-11-08T02:00:00	2	Temperatura media	20.7
183814	7	Sololá	712	San Antonio Palopó	9	San Antonio Palopo	7	Julio	2023-07-20T00:00:00	2024-11-08T02:00:00	4	Temperatura máxima	20.8
183815	7	Sololá	712	San Antonio Palopó	9	San Antonio Palopo	7	Julio	2023-07-20T00:00:00	2024-11-08T02:00:00	3	Temperatura mínima	20.6
183816	7	Sololá	712	San Antonio Palopó	9	San Antonio Palopo	7	Julio	2023-07-20T00:00:00	2024-11-08T02:00:00	5	Humedad	68
183817	7	Sololá	712	San Antonio Palopó	9	San Antonio Palopo	7	Julio	2023-07-20T00:00:00	2024-11-08T02:00:00	6	Velocidad del viento	8
183818	7	Sololá	712	San Antonio Palopó	9	San Antonio Palopo	7	Julio	2023-07-20T00:00:00	2024-11-08T02:00:00	7	Dirección del viento	8.05
183819	7	Sololá	712	San Antonio Palopó	9	San Antonio Palopo	7	Julio	2023-07-20T00:00:00	2024-11-08T02:00:00	1	Precipitación	0
183820	7	Sololá	712	San Antonio Palopó	9	San Antonio Palopo	7	Julio	2023-07-20T00:00:00	2024-11-08T02:00:00	8	Radiación solar	0
183821	7	Sololá	712	San Antonio Palopó	9	San Antonio Palopo	7	Julio	2023-07-20T00:00:00	2024-11-08T03:00:00	2	Temperatura media	21
183822	7	Sololá	712	San Antonio Palopó	9	San Antonio Palopo	7	Julio	2023-07-20T00:00:00	2024-11-08T03:00:00	4	Temperatura máxima	21
183823	7	Sololá	712	San Antonio Palopó	9	San Antonio Palopo	7	Julio	2023-07-20T00:00:00	2024-11-08T03:00:00	3	Temperatura mínima	20.7
183824	7	Sololá	712	San Antonio Palopó	9	San Antonio Palopo	7	Julio	2023-07-20T00:00:00	2024-11-08T03:00:00	5	Humedad	67
183825	7	Sololá	712	San Antonio Palopó	9	San Antonio Palopo	7	Julio	2023-07-20T00:00:00	2024-11-08T03:00:00	6	Velocidad del viento	8
183826	7	Sololá	712	San Antonio Palopó	9	San Antonio Palopo	7	Julio	2023-07-20T00:00:00	2024-11-08T03:00:00	7	Dirección del viento	8.05
183827	7	Sololá	712	San Antonio Palopó	9	San Antonio Palopo	7	Julio	2023-07-20T00:00:00	2024-11-08T03:00:00	1	Precipitación	0
183828	7	Sololá	712	San Antonio Palopó	9	San Antonio Palopo	7	Julio	2023-07-20T00:00:00	2024-11-08T03:00:00	8	Radiación solar	0
183829	7	Sololá	712	San Antonio Palopó	9	San Antonio Palopo	7	Julio	2023-07-20T00:00:00	2024-11-08T04:00:00	2	Temperatura media	20.8
183830	7	Sololá	712	San Antonio Palopó	9	San Antonio Palopo	7	Julio	2023-07-20T00:00:00	2024-11-08T04:00:00	4	Temperatura máxima	21
183831	7	Sololá	712	San Antonio Palopó	9	San Antonio Palopo	7	Julio	2023-07-20T00:00:00	2024-11-08T04:00:00	3	Temperatura mínima	20.7
183832	7	Sololá	712	San Antonio Palopó	9	San Antonio Palopo	7	Julio	2023-07-20T00:00:00	2024-11-08T04:00:00	5	Humedad	67
183833	7	Sololá	712	San Antonio Palopó	9	San Antonio Palopo	7	Julio	2023-07-20T00:00:00	2024-11-08T04:00:00	6	Velocidad del viento	4.8
183834	7	Sololá	712	San Antonio Palopó	9	San Antonio Palopo	7	Julio	2023-07-20T00:00:00	2024-11-08T04:00:00	7	Dirección del viento	4.83
183835	7	Sololá	712	San Antonio Palopó	9	San Antonio Palopo	7	Julio	2023-07-20T00:00:00	2024-11-08T04:00:00	1	Precipitación	0
183836	7	Sololá	712	San Antonio Palopó	9	San Antonio Palopo	7	Julio	2023-07-20T00:00:00	2024-11-08T04:00:00	8	Radiación solar	0
183837	7	Sololá	712	San Antonio Palopó	9	San Antonio Palopo	7	Julio	2023-07-20T00:00:00	2024-11-08T05:00:00	2	Temperatura media	20.2
183838	7	Sololá	712	San Antonio Palopó	9	San Antonio Palopo	7	Julio	2023-07-20T00:00:00	2024-11-08T05:00:00	4	Temperatura máxima	20.8
183839	7	Sololá	712	San Antonio Palopó	9	San Antonio Palopo	7	Julio	2023-07-20T00:00:00	2024-11-08T05:00:00	3	Temperatura mínima	20.1
183840	7	Sololá	712	San Antonio Palopó	9	San Antonio Palopo	7	Julio	2023-07-20T00:00:00	2024-11-08T05:00:00	5	Humedad	69
183841	7	Sololá	712	San Antonio Palopó	9	San Antonio Palopo	7	Julio	2023-07-20T00:00:00	2024-11-08T05:00:00	6	Velocidad del viento	8
183842	7	Sololá	712	San Antonio Palopó	9	San Antonio Palopo	7	Julio	2023-07-20T00:00:00	2024-11-08T05:00:00	7	Dirección del viento	8.05
183843	7	Sololá	712	San Antonio Palopó	9	San Antonio Palopo	7	Julio	2023-07-20T00:00:00	2024-11-08T05:00:00	1	Precipitación	0
183844	7	Sololá	712	San Antonio Palopó	9	San Antonio Palopo	7	Julio	2023-07-20T00:00:00	2024-11-08T05:00:00	8	Radiación solar	0
183845	7	Sololá	712	San Antonio Palopó	9	San Antonio Palopo	7	Julio	2023-07-20T00:00:00	2024-11-08T06:00:00	2	Temperatura media	19.8
183846	7	Sololá	712	San Antonio Palopó	9	San Antonio Palopo	7	Julio	2023-07-20T00:00:00	2024-11-08T06:00:00	4	Temperatura máxima	20.2
183847	7	Sololá	712	San Antonio Palopó	9	San Antonio Palopo	7	Julio	2023-07-20T00:00:00	2024-11-08T06:00:00	3	Temperatura mínima	19.7
183848	7	Sololá	712	San Antonio Palopó	9	San Antonio Palopo	7	Julio	2023-07-20T00:00:00	2024-11-08T06:00:00	5	Humedad	70
183849	7	Sololá	712	San Antonio Palopó	9	San Antonio Palopo	7	Julio	2023-07-20T00:00:00	2024-11-08T06:00:00	6	Velocidad del viento	6.4
183850	7	Sololá	712	San Antonio Palopó	9	San Antonio Palopo	7	Julio	2023-07-20T00:00:00	2024-11-08T06:00:00	7	Dirección del viento	6.44
183851	7	Sololá	712	San Antonio Palopó	9	San Antonio Palopo	7	Julio	2023-07-20T00:00:00	2024-11-08T06:00:00	1	Precipitación	0
183852	7	Sololá	712	San Antonio Palopó	9	San Antonio Palopo	7	Julio	2023-07-20T00:00:00	2024-11-08T06:00:00	8	Radiación solar	1
183853	7	Sololá	712	San Antonio Palopó	9	San Antonio Palopo	7	Julio	2023-07-20T00:00:00	2024-11-08T07:00:00	2	Temperatura media	20.4
183854	7	Sololá	712	San Antonio Palopó	9	San Antonio Palopo	7	Julio	2023-07-20T00:00:00	2024-11-08T07:00:00	4	Temperatura máxima	20.4
183855	7	Sololá	712	San Antonio Palopó	9	San Antonio Palopo	7	Julio	2023-07-20T00:00:00	2024-11-08T07:00:00	3	Temperatura mínima	19.7
183856	7	Sololá	712	San Antonio Palopó	9	San Antonio Palopo	7	Julio	2023-07-20T00:00:00	2024-11-08T07:00:00	5	Humedad	68
183857	7	Sololá	712	San Antonio Palopó	9	San Antonio Palopo	7	Julio	2023-07-20T00:00:00	2024-11-08T07:00:00	6	Velocidad del viento	4.8
183858	7	Sololá	712	San Antonio Palopó	9	San Antonio Palopo	7	Julio	2023-07-20T00:00:00	2024-11-08T07:00:00	7	Dirección del viento	4.83
183859	7	Sololá	712	San Antonio Palopó	9	San Antonio Palopo	7	Julio	2023-07-20T00:00:00	2024-11-08T07:00:00	1	Precipitación	0
183860	7	Sololá	712	San Antonio Palopó	9	San Antonio Palopo	7	Julio	2023-07-20T00:00:00	2024-11-08T07:00:00	8	Radiación solar	35
183861	7	Sololá	712	San Antonio Palopó	9	San Antonio Palopo	7	Julio	2023-07-20T00:00:00	2024-11-08T08:00:00	2	Temperatura media	22.3
183862	7	Sololá	712	San Antonio Palopó	9	San Antonio Palopo	7	Julio	2023-07-20T00:00:00	2024-11-08T08:00:00	4	Temperatura máxima	22.3
183863	7	Sololá	712	San Antonio Palopó	9	San Antonio Palopo	7	Julio	2023-07-20T00:00:00	2024-11-08T08:00:00	3	Temperatura mínima	20.3
183864	7	Sololá	712	San Antonio Palopó	9	San Antonio Palopo	7	Julio	2023-07-20T00:00:00	2024-11-08T08:00:00	5	Humedad	65
183865	7	Sololá	712	San Antonio Palopó	9	San Antonio Palopo	7	Julio	2023-07-20T00:00:00	2024-11-08T08:00:00	6	Velocidad del viento	3.2
183866	7	Sololá	712	San Antonio Palopó	9	San Antonio Palopo	7	Julio	2023-07-20T00:00:00	2024-11-08T08:00:00	7	Dirección del viento	3.22
183867	7	Sololá	712	San Antonio Palopó	9	San Antonio Palopo	7	Julio	2023-07-20T00:00:00	2024-11-08T08:00:00	1	Precipitación	0
183868	7	Sololá	712	San Antonio Palopó	9	San Antonio Palopo	7	Julio	2023-07-20T00:00:00	2024-11-08T08:00:00	8	Radiación solar	180
183869	7	Sololá	712	San Antonio Palopó	9	San Antonio Palopo	7	Julio	2023-07-20T00:00:00	2024-11-08T09:00:00	2	Temperatura media	23.2
183870	7	Sololá	712	San Antonio Palopó	9	San Antonio Palopo	7	Julio	2023-07-20T00:00:00	2024-11-08T09:00:00	4	Temperatura máxima	23.4
183871	7	Sololá	712	San Antonio Palopó	9	San Antonio Palopo	7	Julio	2023-07-20T00:00:00	2024-11-08T09:00:00	3	Temperatura mínima	22.3
183872	7	Sololá	712	San Antonio Palopó	9	San Antonio Palopo	7	Julio	2023-07-20T00:00:00	2024-11-08T09:00:00	5	Humedad	62
183873	7	Sololá	712	San Antonio Palopó	9	San Antonio Palopo	7	Julio	2023-07-20T00:00:00	2024-11-08T09:00:00	6	Velocidad del viento	1.6
183874	7	Sololá	712	San Antonio Palopó	9	San Antonio Palopo	7	Julio	2023-07-20T00:00:00	2024-11-08T09:00:00	7	Dirección del viento	1.61
183875	7	Sololá	712	San Antonio Palopó	9	San Antonio Palopo	7	Julio	2023-07-20T00:00:00	2024-11-08T09:00:00	1	Precipitación	0
183876	7	Sololá	712	San Antonio Palopó	9	San Antonio Palopo	7	Julio	2023-07-20T00:00:00	2024-11-08T09:00:00	8	Radiación solar	515
183877	7	Sololá	712	San Antonio Palopó	9	San Antonio Palopo	7	Julio	2023-07-20T00:00:00	2024-11-08T10:00:00	2	Temperatura media	25.4
183878	7	Sololá	712	San Antonio Palopó	9	San Antonio Palopo	7	Julio	2023-07-20T00:00:00	2024-11-08T10:00:00	4	Temperatura máxima	25.4
183879	7	Sololá	712	San Antonio Palopó	9	San Antonio Palopo	7	Julio	2023-07-20T00:00:00	2024-11-08T10:00:00	3	Temperatura mínima	23.3
183880	7	Sololá	712	San Antonio Palopó	9	San Antonio Palopo	7	Julio	2023-07-20T00:00:00	2024-11-08T10:00:00	5	Humedad	56
183881	7	Sololá	712	San Antonio Palopó	9	San Antonio Palopo	7	Julio	2023-07-20T00:00:00	2024-11-08T10:00:00	6	Velocidad del viento	3.2
183882	7	Sololá	712	San Antonio Palopó	9	San Antonio Palopo	7	Julio	2023-07-20T00:00:00	2024-11-08T10:00:00	7	Dirección del viento	3.22
183883	7	Sololá	712	San Antonio Palopó	9	San Antonio Palopo	7	Julio	2023-07-20T00:00:00	2024-11-08T10:00:00	1	Precipitación	0
183884	7	Sololá	712	San Antonio Palopó	9	San Antonio Palopo	7	Julio	2023-07-20T00:00:00	2024-11-08T10:00:00	8	Radiación solar	720
183885	7	Sololá	712	San Antonio Palopó	9	San Antonio Palopo	7	Julio	2023-07-20T00:00:00	2024-11-08T11:00:00	2	Temperatura media	24.9
183886	7	Sololá	712	San Antonio Palopó	9	San Antonio Palopo	7	Julio	2023-07-20T00:00:00	2024-11-08T11:00:00	4	Temperatura máxima	25.5
183887	7	Sololá	712	San Antonio Palopó	9	San Antonio Palopo	7	Julio	2023-07-20T00:00:00	2024-11-08T11:00:00	3	Temperatura mínima	24.1
183888	7	Sololá	712	San Antonio Palopó	9	San Antonio Palopo	7	Julio	2023-07-20T00:00:00	2024-11-08T11:00:00	5	Humedad	59
183889	7	Sololá	712	San Antonio Palopó	9	San Antonio Palopo	7	Julio	2023-07-20T00:00:00	2024-11-08T11:00:00	6	Velocidad del viento	11.3
183890	7	Sololá	712	San Antonio Palopó	9	San Antonio Palopo	7	Julio	2023-07-20T00:00:00	2024-11-08T11:00:00	7	Dirección del viento	11.27
183891	7	Sololá	712	San Antonio Palopó	9	San Antonio Palopo	7	Julio	2023-07-20T00:00:00	2024-11-08T11:00:00	1	Precipitación	0
183892	7	Sololá	712	San Antonio Palopó	9	San Antonio Palopo	7	Julio	2023-07-20T00:00:00	2024-11-08T11:00:00	8	Radiación solar	884
183893	7	Sololá	712	San Antonio Palopó	9	San Antonio Palopo	7	Julio	2023-07-20T00:00:00	2024-11-08T12:00:00	2	Temperatura media	25.9
183894	7	Sololá	712	San Antonio Palopó	9	San Antonio Palopo	7	Julio	2023-07-20T00:00:00	2024-11-08T12:00:00	4	Temperatura máxima	26.6
183895	7	Sololá	712	San Antonio Palopó	9	San Antonio Palopo	7	Julio	2023-07-20T00:00:00	2024-11-08T12:00:00	3	Temperatura mínima	24.9
183896	7	Sololá	712	San Antonio Palopó	9	San Antonio Palopo	7	Julio	2023-07-20T00:00:00	2024-11-08T12:00:00	5	Humedad	53
183897	7	Sololá	712	San Antonio Palopó	9	San Antonio Palopo	7	Julio	2023-07-20T00:00:00	2024-11-08T12:00:00	6	Velocidad del viento	11.3
183898	7	Sololá	712	San Antonio Palopó	9	San Antonio Palopo	7	Julio	2023-07-20T00:00:00	2024-11-08T12:00:00	7	Dirección del viento	11.27
183899	7	Sololá	712	San Antonio Palopó	9	San Antonio Palopo	7	Julio	2023-07-20T00:00:00	2024-11-08T12:00:00	1	Precipitación	0
183900	7	Sololá	712	San Antonio Palopó	9	San Antonio Palopo	7	Julio	2023-07-20T00:00:00	2024-11-08T12:00:00	8	Radiación solar	1002
183901	7	Sololá	712	San Antonio Palopó	9	San Antonio Palopo	7	Julio	2023-07-20T00:00:00	2024-11-08T13:00:00	2	Temperatura media	26.3
183902	7	Sololá	712	San Antonio Palopó	9	San Antonio Palopo	7	Julio	2023-07-20T00:00:00	2024-11-08T13:00:00	4	Temperatura máxima	26.8
183903	7	Sololá	712	San Antonio Palopó	9	San Antonio Palopo	7	Julio	2023-07-20T00:00:00	2024-11-08T13:00:00	3	Temperatura mínima	25.9
183904	7	Sololá	712	San Antonio Palopó	9	San Antonio Palopo	7	Julio	2023-07-20T00:00:00	2024-11-08T13:00:00	5	Humedad	51
183905	7	Sololá	712	San Antonio Palopó	9	San Antonio Palopo	7	Julio	2023-07-20T00:00:00	2024-11-08T13:00:00	6	Velocidad del viento	14.5
183906	7	Sololá	712	San Antonio Palopó	9	San Antonio Palopo	7	Julio	2023-07-20T00:00:00	2024-11-08T13:00:00	7	Dirección del viento	14.48
183907	7	Sololá	712	San Antonio Palopó	9	San Antonio Palopo	7	Julio	2023-07-20T00:00:00	2024-11-08T13:00:00	1	Precipitación	0
183908	7	Sololá	712	San Antonio Palopó	9	San Antonio Palopo	7	Julio	2023-07-20T00:00:00	2024-11-08T13:00:00	8	Radiación solar	977
183909	7	Sololá	712	San Antonio Palopó	9	San Antonio Palopo	7	Julio	2023-07-20T00:00:00	2024-11-08T14:00:00	2	Temperatura media	26.7
183910	7	Sololá	712	San Antonio Palopó	9	San Antonio Palopo	7	Julio	2023-07-20T00:00:00	2024-11-08T14:00:00	4	Temperatura máxima	27.5
183911	7	Sololá	712	San Antonio Palopó	9	San Antonio Palopo	7	Julio	2023-07-20T00:00:00	2024-11-08T14:00:00	3	Temperatura mínima	26.2
183912	7	Sololá	712	San Antonio Palopó	9	San Antonio Palopo	7	Julio	2023-07-20T00:00:00	2024-11-08T14:00:00	5	Humedad	51
183913	7	Sololá	712	San Antonio Palopó	9	San Antonio Palopo	7	Julio	2023-07-20T00:00:00	2024-11-08T14:00:00	6	Velocidad del viento	12.9
183914	7	Sololá	712	San Antonio Palopó	9	San Antonio Palopo	7	Julio	2023-07-20T00:00:00	2024-11-08T14:00:00	7	Dirección del viento	12.87
183915	7	Sololá	712	San Antonio Palopó	9	San Antonio Palopo	7	Julio	2023-07-20T00:00:00	2024-11-08T14:00:00	1	Precipitación	0
183916	7	Sololá	712	San Antonio Palopó	9	San Antonio Palopo	7	Julio	2023-07-20T00:00:00	2024-11-08T14:00:00	8	Radiación solar	921
183917	7	Sololá	712	San Antonio Palopó	9	San Antonio Palopo	7	Julio	2023-07-20T00:00:00	2024-11-08T15:00:00	2	Temperatura media	27.6
183918	7	Sololá	712	San Antonio Palopó	9	San Antonio Palopo	7	Julio	2023-07-20T00:00:00	2024-11-08T15:00:00	4	Temperatura máxima	28.6
183919	7	Sololá	712	San Antonio Palopó	9	San Antonio Palopo	7	Julio	2023-07-20T00:00:00	2024-11-08T15:00:00	3	Temperatura mínima	26.7
183920	7	Sololá	712	San Antonio Palopó	9	San Antonio Palopo	7	Julio	2023-07-20T00:00:00	2024-11-08T15:00:00	5	Humedad	49
183921	7	Sololá	712	San Antonio Palopó	9	San Antonio Palopo	7	Julio	2023-07-20T00:00:00	2024-11-08T15:00:00	6	Velocidad del viento	12.9
183922	7	Sololá	712	San Antonio Palopó	9	San Antonio Palopo	7	Julio	2023-07-20T00:00:00	2024-11-08T15:00:00	7	Dirección del viento	12.87
183923	7	Sololá	712	San Antonio Palopó	9	San Antonio Palopo	7	Julio	2023-07-20T00:00:00	2024-11-08T15:00:00	1	Precipitación	0
183924	7	Sololá	712	San Antonio Palopó	9	San Antonio Palopo	7	Julio	2023-07-20T00:00:00	2024-11-08T15:00:00	8	Radiación solar	804
183925	7	Sololá	712	San Antonio Palopó	9	San Antonio Palopo	7	Julio	2023-07-20T00:00:00	2024-11-08T16:00:00	2	Temperatura media	26.7
183926	7	Sololá	712	San Antonio Palopó	9	San Antonio Palopo	7	Julio	2023-07-20T00:00:00	2024-11-08T16:00:00	4	Temperatura máxima	27.7
183927	7	Sololá	712	San Antonio Palopó	9	San Antonio Palopo	7	Julio	2023-07-20T00:00:00	2024-11-08T16:00:00	3	Temperatura mínima	26.2
183928	7	Sololá	712	San Antonio Palopó	9	San Antonio Palopo	7	Julio	2023-07-20T00:00:00	2024-11-08T16:00:00	5	Humedad	48
183929	7	Sololá	712	San Antonio Palopó	9	San Antonio Palopo	7	Julio	2023-07-20T00:00:00	2024-11-08T16:00:00	6	Velocidad del viento	14.5
183930	7	Sololá	712	San Antonio Palopó	9	San Antonio Palopo	7	Julio	2023-07-20T00:00:00	2024-11-08T16:00:00	7	Dirección del viento	14.48
183931	7	Sololá	712	San Antonio Palopó	9	San Antonio Palopo	7	Julio	2023-07-20T00:00:00	2024-11-08T16:00:00	1	Precipitación	0
183932	7	Sololá	712	San Antonio Palopó	9	San Antonio Palopo	7	Julio	2023-07-20T00:00:00	2024-11-08T16:00:00	8	Radiación solar	458
183933	7	Sololá	712	San Antonio Palopó	9	San Antonio Palopo	7	Julio	2023-07-20T00:00:00	2024-11-08T17:00:00	2	Temperatura media	25.9
183934	7	Sololá	712	San Antonio Palopó	9	San Antonio Palopo	7	Julio	2023-07-20T00:00:00	2024-11-08T17:00:00	4	Temperatura máxima	26.9
183935	7	Sololá	712	San Antonio Palopó	9	San Antonio Palopo	7	Julio	2023-07-20T00:00:00	2024-11-08T17:00:00	3	Temperatura mínima	25.6
183936	7	Sololá	712	San Antonio Palopó	9	San Antonio Palopo	7	Julio	2023-07-20T00:00:00	2024-11-08T17:00:00	5	Humedad	53
183937	7	Sololá	712	San Antonio Palopó	9	San Antonio Palopo	7	Julio	2023-07-20T00:00:00	2024-11-08T17:00:00	6	Velocidad del viento	12.9
183938	7	Sololá	712	San Antonio Palopó	9	San Antonio Palopo	7	Julio	2023-07-20T00:00:00	2024-11-08T17:00:00	7	Dirección del viento	12.87
183939	7	Sololá	712	San Antonio Palopó	9	San Antonio Palopo	7	Julio	2023-07-20T00:00:00	2024-11-08T17:00:00	1	Precipitación	0
183940	7	Sololá	712	San Antonio Palopó	9	San Antonio Palopo	7	Julio	2023-07-20T00:00:00	2024-11-08T17:00:00	8	Radiación solar	273
183941	7	Sololá	712	San Antonio Palopó	9	San Antonio Palopo	7	Julio	2023-07-20T00:00:00	2024-11-08T18:00:00	2	Temperatura media	25.8
183942	7	Sololá	712	San Antonio Palopó	9	San Antonio Palopo	7	Julio	2023-07-20T00:00:00	2024-11-08T18:00:00	4	Temperatura máxima	26.7
183943	7	Sololá	712	San Antonio Palopó	9	San Antonio Palopo	7	Julio	2023-07-20T00:00:00	2024-11-08T18:00:00	3	Temperatura mínima	25.5
183944	7	Sololá	712	San Antonio Palopó	9	San Antonio Palopo	7	Julio	2023-07-20T00:00:00	2024-11-08T18:00:00	5	Humedad	54
183945	7	Sololá	712	San Antonio Palopó	9	San Antonio Palopo	7	Julio	2023-07-20T00:00:00	2024-11-08T18:00:00	6	Velocidad del viento	11.3
183946	7	Sololá	712	San Antonio Palopó	9	San Antonio Palopo	7	Julio	2023-07-20T00:00:00	2024-11-08T18:00:00	7	Dirección del viento	11.27
183947	7	Sololá	712	San Antonio Palopó	9	San Antonio Palopo	7	Julio	2023-07-20T00:00:00	2024-11-08T18:00:00	1	Precipitación	0
183948	7	Sololá	712	San Antonio Palopó	9	San Antonio Palopo	7	Julio	2023-07-20T00:00:00	2024-11-08T18:00:00	8	Radiación solar	223
183949	7	Sololá	712	San Antonio Palopó	9	San Antonio Palopo	7	Julio	2023-07-20T00:00:00	2024-11-08T19:00:00	2	Temperatura media	23.8
183950	7	Sololá	712	San Antonio Palopó	9	San Antonio Palopo	7	Julio	2023-07-20T00:00:00	2024-11-08T19:00:00	4	Temperatura máxima	25.8
183951	7	Sololá	712	San Antonio Palopó	9	San Antonio Palopo	7	Julio	2023-07-20T00:00:00	2024-11-08T19:00:00	3	Temperatura mínima	23.8
183952	7	Sololá	712	San Antonio Palopó	9	San Antonio Palopo	7	Julio	2023-07-20T00:00:00	2024-11-08T19:00:00	5	Humedad	60
183953	7	Sololá	712	San Antonio Palopó	9	San Antonio Palopo	7	Julio	2023-07-20T00:00:00	2024-11-08T19:00:00	6	Velocidad del viento	4.8
183954	7	Sololá	712	San Antonio Palopó	9	San Antonio Palopo	7	Julio	2023-07-20T00:00:00	2024-11-08T19:00:00	7	Dirección del viento	4.83
183955	7	Sololá	712	San Antonio Palopó	9	San Antonio Palopo	7	Julio	2023-07-20T00:00:00	2024-11-08T19:00:00	1	Precipitación	0
183956	7	Sololá	712	San Antonio Palopó	9	San Antonio Palopo	7	Julio	2023-07-20T00:00:00	2024-11-08T19:00:00	8	Radiación solar	0
183957	7	Sololá	712	San Antonio Palopó	9	San Antonio Palopo	7	Julio	2023-07-20T00:00:00	2024-11-08T20:00:00	2	Temperatura media	22.4
183958	7	Sololá	712	San Antonio Palopó	9	San Antonio Palopo	7	Julio	2023-07-20T00:00:00	2024-11-08T20:00:00	4	Temperatura máxima	23.8
183959	7	Sololá	712	San Antonio Palopó	9	San Antonio Palopo	7	Julio	2023-07-20T00:00:00	2024-11-08T20:00:00	3	Temperatura mínima	22.4
183960	7	Sololá	712	San Antonio Palopó	9	San Antonio Palopo	7	Julio	2023-07-20T00:00:00	2024-11-08T20:00:00	5	Humedad	65
183961	7	Sololá	712	San Antonio Palopó	9	San Antonio Palopo	7	Julio	2023-07-20T00:00:00	2024-11-08T20:00:00	6	Velocidad del viento	4.8
183962	7	Sololá	712	San Antonio Palopó	9	San Antonio Palopo	7	Julio	2023-07-20T00:00:00	2024-11-08T20:00:00	7	Dirección del viento	4.83
183963	7	Sololá	712	San Antonio Palopó	9	San Antonio Palopo	7	Julio	2023-07-20T00:00:00	2024-11-08T20:00:00	1	Precipitación	0
183964	7	Sololá	712	San Antonio Palopó	9	San Antonio Palopo	7	Julio	2023-07-20T00:00:00	2024-11-08T20:00:00	8	Radiación solar	0
183965	7	Sololá	712	San Antonio Palopó	9	San Antonio Palopo	7	Julio	2023-07-20T00:00:00	2024-11-08T21:00:00	2	Temperatura media	21.8
183966	7	Sololá	712	San Antonio Palopó	9	San Antonio Palopo	7	Julio	2023-07-20T00:00:00	2024-11-08T21:00:00	4	Temperatura máxima	22.5
183967	7	Sololá	712	San Antonio Palopó	9	San Antonio Palopo	7	Julio	2023-07-20T00:00:00	2024-11-08T21:00:00	3	Temperatura mínima	21.7
183968	7	Sololá	712	San Antonio Palopó	9	San Antonio Palopo	7	Julio	2023-07-20T00:00:00	2024-11-08T21:00:00	5	Humedad	66
183969	7	Sololá	712	San Antonio Palopó	9	San Antonio Palopo	7	Julio	2023-07-20T00:00:00	2024-11-08T21:00:00	6	Velocidad del viento	3.2
183970	7	Sololá	712	San Antonio Palopó	9	San Antonio Palopo	7	Julio	2023-07-20T00:00:00	2024-11-08T21:00:00	7	Dirección del viento	3.22
183971	7	Sololá	712	San Antonio Palopó	9	San Antonio Palopo	7	Julio	2023-07-20T00:00:00	2024-11-08T21:00:00	1	Precipitación	0
183972	7	Sololá	712	San Antonio Palopó	9	San Antonio Palopo	7	Julio	2023-07-20T00:00:00	2024-11-08T21:00:00	8	Radiación solar	0
183973	7	Sololá	712	San Antonio Palopó	9	San Antonio Palopo	7	Julio	2023-07-20T00:00:00	2024-11-08T22:00:00	2	Temperatura media	21.7
183974	7	Sololá	712	San Antonio Palopó	9	San Antonio Palopo	7	Julio	2023-07-20T00:00:00	2024-11-08T22:00:00	4	Temperatura máxima	22
183975	7	Sololá	712	San Antonio Palopó	9	San Antonio Palopo	7	Julio	2023-07-20T00:00:00	2024-11-08T22:00:00	3	Temperatura mínima	21.7
183976	7	Sololá	712	San Antonio Palopó	9	San Antonio Palopo	7	Julio	2023-07-20T00:00:00	2024-11-08T22:00:00	5	Humedad	65
183977	7	Sololá	712	San Antonio Palopó	9	San Antonio Palopo	7	Julio	2023-07-20T00:00:00	2024-11-08T22:00:00	6	Velocidad del viento	4.8
183978	7	Sololá	712	San Antonio Palopó	9	San Antonio Palopo	7	Julio	2023-07-20T00:00:00	2024-11-08T22:00:00	7	Dirección del viento	4.83
183979	7	Sololá	712	San Antonio Palopó	9	San Antonio Palopo	7	Julio	2023-07-20T00:00:00	2024-11-08T22:00:00	1	Precipitación	0
183980	7	Sololá	712	San Antonio Palopó	9	San Antonio Palopo	7	Julio	2023-07-20T00:00:00	2024-11-08T22:00:00	8	Radiación solar	0
183981	7	Sololá	712	San Antonio Palopó	9	San Antonio Palopo	7	Julio	2023-07-20T00:00:00	2024-11-08T23:00:00	2	Temperatura media	21.7
183982	7	Sololá	712	San Antonio Palopó	9	San Antonio Palopo	7	Julio	2023-07-20T00:00:00	2024-11-08T23:00:00	4	Temperatura máxima	21.9
183983	7	Sololá	712	San Antonio Palopó	9	San Antonio Palopo	7	Julio	2023-07-20T00:00:00	2024-11-08T23:00:00	3	Temperatura mínima	21.5
183984	7	Sololá	712	San Antonio Palopó	9	San Antonio Palopo	7	Julio	2023-07-20T00:00:00	2024-11-08T23:00:00	5	Humedad	64
183985	7	Sololá	712	San Antonio Palopó	9	San Antonio Palopo	7	Julio	2023-07-20T00:00:00	2024-11-08T23:00:00	6	Velocidad del viento	3.2
183986	7	Sololá	712	San Antonio Palopó	9	San Antonio Palopo	7	Julio	2023-07-20T00:00:00	2024-11-08T23:00:00	7	Dirección del viento	3.22
183987	7	Sololá	712	San Antonio Palopó	9	San Antonio Palopo	7	Julio	2023-07-20T00:00:00	2024-11-08T23:00:00	1	Precipitación	0
183988	7	Sololá	712	San Antonio Palopó	9	San Antonio Palopo	7	Julio	2023-07-20T00:00:00	2024-11-08T23:00:00	8	Radiación solar	0
183989	7	Sololá	712	San Antonio Palopó	9	San Antonio Palopo	7	Julio	2023-07-21T00:00:00	2024-11-08T00:00:00	2	Temperatura media	21.1
183990	7	Sololá	712	San Antonio Palopó	9	San Antonio Palopo	7	Julio	2023-07-21T00:00:00	2024-11-08T00:00:00	4	Temperatura máxima	21.7
183991	7	Sololá	712	San Antonio Palopó	9	San Antonio Palopo	7	Julio	2023-07-21T00:00:00	2024-11-08T00:00:00	3	Temperatura mínima	20.9
183992	7	Sololá	712	San Antonio Palopó	9	San Antonio Palopo	7	Julio	2023-07-21T00:00:00	2024-11-08T00:00:00	5	Humedad	65
183993	7	Sololá	712	San Antonio Palopó	9	San Antonio Palopo	7	Julio	2023-07-21T00:00:00	2024-11-08T00:00:00	6	Velocidad del viento	3.2
183994	7	Sololá	712	San Antonio Palopó	9	San Antonio Palopo	7	Julio	2023-07-21T00:00:00	2024-11-08T00:00:00	7	Dirección del viento	3.22
183995	7	Sololá	712	San Antonio Palopó	9	San Antonio Palopo	7	Julio	2023-07-21T00:00:00	2024-11-08T00:00:00	1	Precipitación	0
183996	7	Sololá	712	San Antonio Palopó	9	San Antonio Palopo	7	Julio	2023-07-21T00:00:00	2024-11-08T00:00:00	8	Radiación solar	0
183997	7	Sololá	712	San Antonio Palopó	9	San Antonio Palopo	7	Julio	2023-07-21T00:00:00	2024-11-08T01:00:00	2	Temperatura media	20.7
183998	7	Sololá	712	San Antonio Palopó	9	San Antonio Palopo	7	Julio	2023-07-21T00:00:00	2024-11-08T01:00:00	4	Temperatura máxima	21.1
183999	7	Sololá	712	San Antonio Palopó	9	San Antonio Palopo	7	Julio	2023-07-21T00:00:00	2024-11-08T01:00:00	3	Temperatura mínima	20.6
184000	7	Sololá	712	San Antonio Palopó	9	San Antonio Palopo	7	Julio	2023-07-21T00:00:00	2024-11-08T01:00:00	5	Humedad	66
184001	7	Sololá	712	San Antonio Palopó	9	San Antonio Palopo	7	Julio	2023-07-21T00:00:00	2024-11-08T01:00:00	6	Velocidad del viento	8
184002	7	Sololá	712	San Antonio Palopó	9	San Antonio Palopo	7	Julio	2023-07-21T00:00:00	2024-11-08T01:00:00	7	Dirección del viento	8.05
184003	7	Sololá	712	San Antonio Palopó	9	San Antonio Palopo	7	Julio	2023-07-21T00:00:00	2024-11-08T01:00:00	1	Precipitación	0
184004	7	Sololá	712	San Antonio Palopó	9	San Antonio Palopo	7	Julio	2023-07-21T00:00:00	2024-11-08T01:00:00	8	Radiación solar	0
184005	7	Sololá	712	San Antonio Palopó	9	San Antonio Palopo	7	Julio	2023-07-21T00:00:00	2024-11-08T02:00:00	2	Temperatura media	19.9
184006	7	Sololá	712	San Antonio Palopó	9	San Antonio Palopo	7	Julio	2023-07-21T00:00:00	2024-11-08T02:00:00	4	Temperatura máxima	20.7
184007	7	Sololá	712	San Antonio Palopó	9	San Antonio Palopo	7	Julio	2023-07-21T00:00:00	2024-11-08T02:00:00	3	Temperatura mínima	19.8
184008	7	Sololá	712	San Antonio Palopó	9	San Antonio Palopo	7	Julio	2023-07-21T00:00:00	2024-11-08T02:00:00	5	Humedad	69
184009	7	Sololá	712	San Antonio Palopó	9	San Antonio Palopo	7	Julio	2023-07-21T00:00:00	2024-11-08T02:00:00	6	Velocidad del viento	8
184010	7	Sololá	712	San Antonio Palopó	9	San Antonio Palopo	7	Julio	2023-07-21T00:00:00	2024-11-08T02:00:00	7	Dirección del viento	8.05
184011	7	Sololá	712	San Antonio Palopó	9	San Antonio Palopo	7	Julio	2023-07-21T00:00:00	2024-11-08T02:00:00	1	Precipitación	0
184012	7	Sololá	712	San Antonio Palopó	9	San Antonio Palopo	7	Julio	2023-07-21T00:00:00	2024-11-08T02:00:00	8	Radiación solar	0
184013	7	Sololá	712	San Antonio Palopó	9	San Antonio Palopo	7	Julio	2023-07-21T00:00:00	2024-11-08T03:00:00	2	Temperatura media	20
184014	7	Sololá	712	San Antonio Palopó	9	San Antonio Palopo	7	Julio	2023-07-21T00:00:00	2024-11-08T03:00:00	4	Temperatura máxima	20.1
184015	7	Sololá	712	San Antonio Palopó	9	San Antonio Palopo	7	Julio	2023-07-21T00:00:00	2024-11-08T03:00:00	3	Temperatura mínima	19.7
184016	7	Sololá	712	San Antonio Palopó	9	San Antonio Palopo	7	Julio	2023-07-21T00:00:00	2024-11-08T03:00:00	5	Humedad	69
184017	7	Sololá	712	San Antonio Palopó	9	San Antonio Palopo	7	Julio	2023-07-21T00:00:00	2024-11-08T03:00:00	6	Velocidad del viento	6.4
184018	7	Sololá	712	San Antonio Palopó	9	San Antonio Palopo	7	Julio	2023-07-21T00:00:00	2024-11-08T03:00:00	7	Dirección del viento	6.44
184019	7	Sololá	712	San Antonio Palopó	9	San Antonio Palopo	7	Julio	2023-07-21T00:00:00	2024-11-08T03:00:00	1	Precipitación	0
184020	7	Sololá	712	San Antonio Palopó	9	San Antonio Palopo	7	Julio	2023-07-21T00:00:00	2024-11-08T03:00:00	8	Radiación solar	0
184021	7	Sololá	712	San Antonio Palopó	9	San Antonio Palopo	7	Julio	2023-07-21T00:00:00	2024-11-08T04:00:00	2	Temperatura media	19.7
184022	7	Sololá	712	San Antonio Palopó	9	San Antonio Palopo	7	Julio	2023-07-21T00:00:00	2024-11-08T04:00:00	4	Temperatura máxima	20.1
184023	7	Sololá	712	San Antonio Palopó	9	San Antonio Palopo	7	Julio	2023-07-21T00:00:00	2024-11-08T04:00:00	3	Temperatura mínima	19.6
184024	7	Sololá	712	San Antonio Palopó	9	San Antonio Palopo	7	Julio	2023-07-21T00:00:00	2024-11-08T04:00:00	5	Humedad	69
184025	7	Sololá	712	San Antonio Palopó	9	San Antonio Palopo	7	Julio	2023-07-21T00:00:00	2024-11-08T04:00:00	6	Velocidad del viento	6.4
184026	7	Sololá	712	San Antonio Palopó	9	San Antonio Palopo	7	Julio	2023-07-21T00:00:00	2024-11-08T04:00:00	7	Dirección del viento	6.44
184027	7	Sololá	712	San Antonio Palopó	9	San Antonio Palopo	7	Julio	2023-07-21T00:00:00	2024-11-08T04:00:00	1	Precipitación	0
184028	7	Sololá	712	San Antonio Palopó	9	San Antonio Palopo	7	Julio	2023-07-21T00:00:00	2024-11-08T04:00:00	8	Radiación solar	0
184029	7	Sololá	712	San Antonio Palopó	9	San Antonio Palopo	7	Julio	2023-07-21T00:00:00	2024-11-08T05:00:00	2	Temperatura media	20.1
184030	7	Sololá	712	San Antonio Palopó	9	San Antonio Palopo	7	Julio	2023-07-21T00:00:00	2024-11-08T05:00:00	4	Temperatura máxima	20.1
184031	7	Sololá	712	San Antonio Palopó	9	San Antonio Palopo	7	Julio	2023-07-21T00:00:00	2024-11-08T05:00:00	3	Temperatura mínima	19.6
184032	7	Sololá	712	San Antonio Palopó	9	San Antonio Palopo	7	Julio	2023-07-21T00:00:00	2024-11-08T05:00:00	5	Humedad	69
184033	7	Sololá	712	San Antonio Palopó	9	San Antonio Palopo	7	Julio	2023-07-21T00:00:00	2024-11-08T05:00:00	6	Velocidad del viento	4.8
184034	7	Sololá	712	San Antonio Palopó	9	San Antonio Palopo	7	Julio	2023-07-21T00:00:00	2024-11-08T05:00:00	7	Dirección del viento	4.83
184035	7	Sololá	712	San Antonio Palopó	9	San Antonio Palopo	7	Julio	2023-07-21T00:00:00	2024-11-08T05:00:00	1	Precipitación	0
184036	7	Sololá	712	San Antonio Palopó	9	San Antonio Palopo	7	Julio	2023-07-21T00:00:00	2024-11-08T05:00:00	8	Radiación solar	0
184037	7	Sololá	712	San Antonio Palopó	9	San Antonio Palopo	7	Julio	2023-07-21T00:00:00	2024-11-08T06:00:00	2	Temperatura media	20.1
184038	7	Sololá	712	San Antonio Palopó	9	San Antonio Palopo	7	Julio	2023-07-21T00:00:00	2024-11-08T06:00:00	4	Temperatura máxima	20.4
184039	7	Sololá	712	San Antonio Palopó	9	San Antonio Palopo	7	Julio	2023-07-21T00:00:00	2024-11-08T06:00:00	3	Temperatura mínima	20.1
184040	7	Sololá	712	San Antonio Palopó	9	San Antonio Palopo	7	Julio	2023-07-21T00:00:00	2024-11-08T06:00:00	5	Humedad	69
184041	7	Sololá	712	San Antonio Palopó	9	San Antonio Palopo	7	Julio	2023-07-21T00:00:00	2024-11-08T06:00:00	6	Velocidad del viento	6.4
184042	7	Sololá	712	San Antonio Palopó	9	San Antonio Palopo	7	Julio	2023-07-21T00:00:00	2024-11-08T06:00:00	7	Dirección del viento	6.44
184043	7	Sololá	712	San Antonio Palopó	9	San Antonio Palopo	7	Julio	2023-07-21T00:00:00	2024-11-08T06:00:00	1	Precipitación	0
184044	7	Sololá	712	San Antonio Palopó	9	San Antonio Palopo	7	Julio	2023-07-21T00:00:00	2024-11-08T06:00:00	8	Radiación solar	1
184045	7	Sololá	712	San Antonio Palopó	9	San Antonio Palopo	7	Julio	2023-07-21T00:00:00	2024-11-08T07:00:00	2	Temperatura media	20.8
184046	7	Sololá	712	San Antonio Palopó	9	San Antonio Palopo	7	Julio	2023-07-21T00:00:00	2024-11-08T07:00:00	4	Temperatura máxima	20.8
184047	7	Sololá	712	San Antonio Palopó	9	San Antonio Palopo	7	Julio	2023-07-21T00:00:00	2024-11-08T07:00:00	3	Temperatura mínima	19.8
184048	7	Sololá	712	San Antonio Palopó	9	San Antonio Palopo	7	Julio	2023-07-21T00:00:00	2024-11-08T07:00:00	5	Humedad	68
184049	7	Sololá	712	San Antonio Palopó	9	San Antonio Palopo	7	Julio	2023-07-21T00:00:00	2024-11-08T07:00:00	6	Velocidad del viento	4.8
184050	7	Sololá	712	San Antonio Palopó	9	San Antonio Palopo	7	Julio	2023-07-21T00:00:00	2024-11-08T07:00:00	7	Dirección del viento	4.83
184051	7	Sololá	712	San Antonio Palopó	9	San Antonio Palopo	7	Julio	2023-07-21T00:00:00	2024-11-08T07:00:00	1	Precipitación	0
184052	7	Sololá	712	San Antonio Palopó	9	San Antonio Palopo	7	Julio	2023-07-21T00:00:00	2024-11-08T07:00:00	8	Radiación solar	16
184053	7	Sololá	712	San Antonio Palopó	9	San Antonio Palopo	7	Julio	2023-07-21T00:00:00	2024-11-08T08:00:00	2	Temperatura media	22
184054	7	Sololá	712	San Antonio Palopó	9	San Antonio Palopo	7	Julio	2023-07-21T00:00:00	2024-11-08T08:00:00	4	Temperatura máxima	22.1
184055	7	Sololá	712	San Antonio Palopó	9	San Antonio Palopo	7	Julio	2023-07-21T00:00:00	2024-11-08T08:00:00	3	Temperatura mínima	20.8
184056	7	Sololá	712	San Antonio Palopó	9	San Antonio Palopo	7	Julio	2023-07-21T00:00:00	2024-11-08T08:00:00	5	Humedad	68
184057	7	Sololá	712	San Antonio Palopó	9	San Antonio Palopo	7	Julio	2023-07-21T00:00:00	2024-11-08T08:00:00	6	Velocidad del viento	3.2
184058	7	Sololá	712	San Antonio Palopó	9	San Antonio Palopo	7	Julio	2023-07-21T00:00:00	2024-11-08T08:00:00	7	Dirección del viento	3.22
184059	7	Sololá	712	San Antonio Palopó	9	San Antonio Palopo	7	Julio	2023-07-21T00:00:00	2024-11-08T08:00:00	1	Precipitación	0
184060	7	Sololá	712	San Antonio Palopó	9	San Antonio Palopo	7	Julio	2023-07-21T00:00:00	2024-11-08T08:00:00	8	Radiación solar	162
184061	7	Sololá	712	San Antonio Palopó	9	San Antonio Palopo	7	Julio	2023-07-21T00:00:00	2024-11-08T09:00:00	2	Temperatura media	23.3
184062	7	Sololá	712	San Antonio Palopó	9	San Antonio Palopo	7	Julio	2023-07-21T00:00:00	2024-11-08T09:00:00	4	Temperatura máxima	23.3
184063	7	Sololá	712	San Antonio Palopó	9	San Antonio Palopo	7	Julio	2023-07-21T00:00:00	2024-11-08T09:00:00	3	Temperatura mínima	22
184064	7	Sololá	712	San Antonio Palopó	9	San Antonio Palopo	7	Julio	2023-07-21T00:00:00	2024-11-08T09:00:00	5	Humedad	64
184065	7	Sololá	712	San Antonio Palopó	9	San Antonio Palopo	7	Julio	2023-07-21T00:00:00	2024-11-08T09:00:00	6	Velocidad del viento	4.8
184066	7	Sololá	712	San Antonio Palopó	9	San Antonio Palopo	7	Julio	2023-07-21T00:00:00	2024-11-08T09:00:00	7	Dirección del viento	4.83
184067	7	Sololá	712	San Antonio Palopó	9	San Antonio Palopo	7	Julio	2023-07-21T00:00:00	2024-11-08T09:00:00	1	Precipitación	0
184068	7	Sololá	712	San Antonio Palopó	9	San Antonio Palopo	7	Julio	2023-07-21T00:00:00	2024-11-08T09:00:00	8	Radiación solar	547
184069	7	Sololá	712	San Antonio Palopó	9	San Antonio Palopo	7	Julio	2023-07-21T00:00:00	2024-11-08T10:00:00	2	Temperatura media	24.8
184070	7	Sololá	712	San Antonio Palopó	9	San Antonio Palopo	7	Julio	2023-07-21T00:00:00	2024-11-08T10:00:00	4	Temperatura máxima	24.8
184071	7	Sololá	712	San Antonio Palopó	9	San Antonio Palopo	7	Julio	2023-07-21T00:00:00	2024-11-08T10:00:00	3	Temperatura mínima	23.3
184072	7	Sololá	712	San Antonio Palopó	9	San Antonio Palopo	7	Julio	2023-07-21T00:00:00	2024-11-08T10:00:00	5	Humedad	60
184073	7	Sololá	712	San Antonio Palopó	9	San Antonio Palopo	7	Julio	2023-07-21T00:00:00	2024-11-08T10:00:00	6	Velocidad del viento	3.2
184074	7	Sololá	712	San Antonio Palopó	9	San Antonio Palopo	7	Julio	2023-07-21T00:00:00	2024-11-08T10:00:00	7	Dirección del viento	3.22
184075	7	Sololá	712	San Antonio Palopó	9	San Antonio Palopo	7	Julio	2023-07-21T00:00:00	2024-11-08T10:00:00	1	Precipitación	0
184076	7	Sololá	712	San Antonio Palopó	9	San Antonio Palopo	7	Julio	2023-07-21T00:00:00	2024-11-08T10:00:00	8	Radiación solar	728
184077	7	Sololá	712	San Antonio Palopó	9	San Antonio Palopo	7	Julio	2023-07-21T00:00:00	2024-11-08T11:00:00	2	Temperatura media	26.4
184078	7	Sololá	712	San Antonio Palopó	9	San Antonio Palopo	7	Julio	2023-07-21T00:00:00	2024-11-08T11:00:00	4	Temperatura máxima	26.4
184079	7	Sololá	712	San Antonio Palopó	9	San Antonio Palopo	7	Julio	2023-07-21T00:00:00	2024-11-08T11:00:00	3	Temperatura mínima	24.6
184080	7	Sololá	712	San Antonio Palopó	9	San Antonio Palopo	7	Julio	2023-07-21T00:00:00	2024-11-08T11:00:00	5	Humedad	53
184081	7	Sololá	712	San Antonio Palopó	9	San Antonio Palopo	7	Julio	2023-07-21T00:00:00	2024-11-08T11:00:00	6	Velocidad del viento	8
184082	7	Sololá	712	San Antonio Palopó	9	San Antonio Palopo	7	Julio	2023-07-21T00:00:00	2024-11-08T11:00:00	7	Dirección del viento	8.05
184083	7	Sololá	712	San Antonio Palopó	9	San Antonio Palopo	7	Julio	2023-07-21T00:00:00	2024-11-08T11:00:00	1	Precipitación	0
184084	7	Sololá	712	San Antonio Palopó	9	San Antonio Palopo	7	Julio	2023-07-21T00:00:00	2024-11-08T11:00:00	8	Radiación solar	861
184085	7	Sololá	712	San Antonio Palopó	9	San Antonio Palopo	7	Julio	2023-07-21T00:00:00	2024-11-08T12:00:00	2	Temperatura media	27.6
184086	7	Sololá	712	San Antonio Palopó	9	San Antonio Palopo	7	Julio	2023-07-21T00:00:00	2024-11-08T12:00:00	4	Temperatura máxima	27.7
184087	7	Sololá	712	San Antonio Palopó	9	San Antonio Palopo	7	Julio	2023-07-21T00:00:00	2024-11-08T12:00:00	3	Temperatura mínima	26.1
184088	7	Sololá	712	San Antonio Palopó	9	San Antonio Palopo	7	Julio	2023-07-21T00:00:00	2024-11-08T12:00:00	5	Humedad	48
184089	7	Sololá	712	San Antonio Palopó	9	San Antonio Palopo	7	Julio	2023-07-21T00:00:00	2024-11-08T12:00:00	6	Velocidad del viento	9.7
184090	7	Sololá	712	San Antonio Palopó	9	San Antonio Palopo	7	Julio	2023-07-21T00:00:00	2024-11-08T12:00:00	7	Dirección del viento	9.66
184091	7	Sololá	712	San Antonio Palopó	9	San Antonio Palopo	7	Julio	2023-07-21T00:00:00	2024-11-08T12:00:00	1	Precipitación	0
184092	7	Sololá	712	San Antonio Palopó	9	San Antonio Palopo	7	Julio	2023-07-21T00:00:00	2024-11-08T12:00:00	8	Radiación solar	949
184093	7	Sololá	712	San Antonio Palopó	9	San Antonio Palopo	7	Julio	2023-07-21T00:00:00	2024-11-08T13:00:00	2	Temperatura media	28.3
184094	7	Sololá	712	San Antonio Palopó	9	San Antonio Palopo	7	Julio	2023-07-21T00:00:00	2024-11-08T13:00:00	4	Temperatura máxima	28.3
184095	7	Sololá	712	San Antonio Palopó	9	San Antonio Palopo	7	Julio	2023-07-21T00:00:00	2024-11-08T13:00:00	3	Temperatura mínima	27.3
184096	7	Sololá	712	San Antonio Palopó	9	San Antonio Palopo	7	Julio	2023-07-21T00:00:00	2024-11-08T13:00:00	5	Humedad	45
184097	7	Sololá	712	San Antonio Palopó	9	San Antonio Palopo	7	Julio	2023-07-21T00:00:00	2024-11-08T13:00:00	6	Velocidad del viento	9.7
184098	7	Sololá	712	San Antonio Palopó	9	San Antonio Palopo	7	Julio	2023-07-21T00:00:00	2024-11-08T13:00:00	7	Dirección del viento	9.66
184099	7	Sololá	712	San Antonio Palopó	9	San Antonio Palopo	7	Julio	2023-07-21T00:00:00	2024-11-08T13:00:00	1	Precipitación	0
184100	7	Sololá	712	San Antonio Palopó	9	San Antonio Palopo	7	Julio	2023-07-21T00:00:00	2024-11-08T13:00:00	8	Radiación solar	988
184101	7	Sololá	712	San Antonio Palopó	9	San Antonio Palopo	7	Julio	2023-07-21T00:00:00	2024-11-08T14:00:00	2	Temperatura media	27.7
184102	7	Sololá	712	San Antonio Palopó	9	San Antonio Palopo	7	Julio	2023-07-21T00:00:00	2024-11-08T14:00:00	4	Temperatura máxima	28.6
184103	7	Sololá	712	San Antonio Palopó	9	San Antonio Palopo	7	Julio	2023-07-21T00:00:00	2024-11-08T14:00:00	3	Temperatura mínima	27.3
184104	7	Sololá	712	San Antonio Palopó	9	San Antonio Palopo	7	Julio	2023-07-21T00:00:00	2024-11-08T14:00:00	5	Humedad	52
184105	7	Sololá	712	San Antonio Palopó	9	San Antonio Palopo	7	Julio	2023-07-21T00:00:00	2024-11-08T14:00:00	6	Velocidad del viento	9.7
184106	7	Sololá	712	San Antonio Palopó	9	San Antonio Palopo	7	Julio	2023-07-21T00:00:00	2024-11-08T14:00:00	7	Dirección del viento	9.66
184107	7	Sololá	712	San Antonio Palopó	9	San Antonio Palopo	7	Julio	2023-07-21T00:00:00	2024-11-08T14:00:00	1	Precipitación	0
184108	7	Sololá	712	San Antonio Palopó	9	San Antonio Palopo	7	Julio	2023-07-21T00:00:00	2024-11-08T14:00:00	8	Radiación solar	927
184109	7	Sololá	712	San Antonio Palopó	9	San Antonio Palopo	7	Julio	2023-07-21T00:00:00	2024-11-08T15:00:00	2	Temperatura media	25.7
184110	7	Sololá	712	San Antonio Palopó	9	San Antonio Palopo	7	Julio	2023-07-21T00:00:00	2024-11-08T15:00:00	4	Temperatura máxima	28.3
184111	7	Sololá	712	San Antonio Palopó	9	San Antonio Palopo	7	Julio	2023-07-21T00:00:00	2024-11-08T15:00:00	3	Temperatura mínima	25.7
184112	7	Sololá	712	San Antonio Palopó	9	San Antonio Palopo	7	Julio	2023-07-21T00:00:00	2024-11-08T15:00:00	5	Humedad	65
184113	7	Sololá	712	San Antonio Palopó	9	San Antonio Palopo	7	Julio	2023-07-21T00:00:00	2024-11-08T15:00:00	6	Velocidad del viento	12.9
184114	7	Sololá	712	San Antonio Palopó	9	San Antonio Palopo	7	Julio	2023-07-21T00:00:00	2024-11-08T15:00:00	7	Dirección del viento	12.87
184115	7	Sololá	712	San Antonio Palopó	9	San Antonio Palopo	7	Julio	2023-07-21T00:00:00	2024-11-08T15:00:00	1	Precipitación	0
184116	7	Sololá	712	San Antonio Palopó	9	San Antonio Palopo	7	Julio	2023-07-21T00:00:00	2024-11-08T15:00:00	8	Radiación solar	786
184117	7	Sololá	712	San Antonio Palopó	9	San Antonio Palopo	7	Julio	2023-07-21T00:00:00	2024-11-08T16:00:00	2	Temperatura media	24.8
184118	7	Sololá	712	San Antonio Palopó	9	San Antonio Palopo	7	Julio	2023-07-21T00:00:00	2024-11-08T16:00:00	4	Temperatura máxima	25.7
184119	7	Sololá	712	San Antonio Palopó	9	San Antonio Palopo	7	Julio	2023-07-21T00:00:00	2024-11-08T16:00:00	3	Temperatura mínima	24.8
184120	7	Sololá	712	San Antonio Palopó	9	San Antonio Palopo	7	Julio	2023-07-21T00:00:00	2024-11-08T16:00:00	5	Humedad	69
184121	7	Sololá	712	San Antonio Palopó	9	San Antonio Palopo	7	Julio	2023-07-21T00:00:00	2024-11-08T16:00:00	6	Velocidad del viento	17.7
184122	7	Sololá	712	San Antonio Palopó	9	San Antonio Palopo	7	Julio	2023-07-21T00:00:00	2024-11-08T16:00:00	7	Dirección del viento	17.7
184123	7	Sololá	712	San Antonio Palopó	9	San Antonio Palopo	7	Julio	2023-07-21T00:00:00	2024-11-08T16:00:00	1	Precipitación	0
184124	7	Sololá	712	San Antonio Palopó	9	San Antonio Palopo	7	Julio	2023-07-21T00:00:00	2024-11-08T16:00:00	8	Radiación solar	555
184125	7	Sololá	712	San Antonio Palopó	9	San Antonio Palopo	7	Julio	2023-07-21T00:00:00	2024-11-08T17:00:00	2	Temperatura media	25.4
184126	7	Sololá	712	San Antonio Palopó	9	San Antonio Palopo	7	Julio	2023-07-21T00:00:00	2024-11-08T17:00:00	4	Temperatura máxima	26.2
184127	7	Sololá	712	San Antonio Palopó	9	San Antonio Palopo	7	Julio	2023-07-21T00:00:00	2024-11-08T17:00:00	3	Temperatura mínima	24.8
184128	7	Sololá	712	San Antonio Palopó	9	San Antonio Palopo	7	Julio	2023-07-21T00:00:00	2024-11-08T17:00:00	5	Humedad	68
184129	7	Sololá	712	San Antonio Palopó	9	San Antonio Palopo	7	Julio	2023-07-21T00:00:00	2024-11-08T17:00:00	6	Velocidad del viento	6.4
184130	7	Sololá	712	San Antonio Palopó	9	San Antonio Palopo	7	Julio	2023-07-21T00:00:00	2024-11-08T17:00:00	7	Dirección del viento	6.44
184131	7	Sololá	712	San Antonio Palopó	9	San Antonio Palopo	7	Julio	2023-07-21T00:00:00	2024-11-08T17:00:00	1	Precipitación	0
184132	7	Sololá	712	San Antonio Palopó	9	San Antonio Palopo	7	Julio	2023-07-21T00:00:00	2024-11-08T17:00:00	8	Radiación solar	333
184133	7	Sololá	712	San Antonio Palopó	9	San Antonio Palopo	7	Julio	2023-07-21T00:00:00	2024-11-08T18:00:00	2	Temperatura media	23
184134	7	Sololá	712	San Antonio Palopó	9	San Antonio Palopo	7	Julio	2023-07-21T00:00:00	2024-11-08T18:00:00	4	Temperatura máxima	25.6
184135	7	Sololá	712	San Antonio Palopó	9	San Antonio Palopo	7	Julio	2023-07-21T00:00:00	2024-11-08T18:00:00	3	Temperatura mínima	23
184136	7	Sololá	712	San Antonio Palopó	9	San Antonio Palopo	7	Julio	2023-07-21T00:00:00	2024-11-08T18:00:00	5	Humedad	77
184137	7	Sololá	712	San Antonio Palopó	9	San Antonio Palopo	7	Julio	2023-07-21T00:00:00	2024-11-08T18:00:00	6	Velocidad del viento	4.8
184138	7	Sololá	712	San Antonio Palopó	9	San Antonio Palopo	7	Julio	2023-07-21T00:00:00	2024-11-08T18:00:00	7	Dirección del viento	4.83
184139	7	Sololá	712	San Antonio Palopó	9	San Antonio Palopo	7	Julio	2023-07-21T00:00:00	2024-11-08T18:00:00	1	Precipitación	0
184140	7	Sololá	712	San Antonio Palopó	9	San Antonio Palopo	7	Julio	2023-07-21T00:00:00	2024-11-08T18:00:00	8	Radiación solar	115
184141	7	Sololá	712	San Antonio Palopó	9	San Antonio Palopo	7	Julio	2023-07-21T00:00:00	2024-11-08T19:00:00	2	Temperatura media	22.6
184142	7	Sololá	712	San Antonio Palopó	9	San Antonio Palopo	7	Julio	2023-07-21T00:00:00	2024-11-08T19:00:00	4	Temperatura máxima	23.1
184143	7	Sololá	712	San Antonio Palopó	9	San Antonio Palopo	7	Julio	2023-07-21T00:00:00	2024-11-08T19:00:00	3	Temperatura mínima	22.6
184144	7	Sololá	712	San Antonio Palopó	9	San Antonio Palopo	7	Julio	2023-07-21T00:00:00	2024-11-08T19:00:00	5	Humedad	77
184145	7	Sololá	712	San Antonio Palopó	9	San Antonio Palopo	7	Julio	2023-07-21T00:00:00	2024-11-08T19:00:00	6	Velocidad del viento	3.2
184146	7	Sololá	712	San Antonio Palopó	9	San Antonio Palopo	7	Julio	2023-07-21T00:00:00	2024-11-08T19:00:00	7	Dirección del viento	3.22
184147	7	Sololá	712	San Antonio Palopó	9	San Antonio Palopo	7	Julio	2023-07-21T00:00:00	2024-11-08T19:00:00	1	Precipitación	0
184148	7	Sololá	712	San Antonio Palopó	9	San Antonio Palopo	7	Julio	2023-07-21T00:00:00	2024-11-08T19:00:00	8	Radiación solar	0
184149	7	Sololá	712	San Antonio Palopó	9	San Antonio Palopo	7	Julio	2023-07-21T00:00:00	2024-11-08T20:00:00	2	Temperatura media	21.9
184150	7	Sololá	712	San Antonio Palopó	9	San Antonio Palopo	7	Julio	2023-07-21T00:00:00	2024-11-08T20:00:00	4	Temperatura máxima	22.6
184151	7	Sololá	712	San Antonio Palopó	9	San Antonio Palopo	7	Julio	2023-07-21T00:00:00	2024-11-08T20:00:00	3	Temperatura mínima	21.8
184152	7	Sololá	712	San Antonio Palopó	9	San Antonio Palopo	7	Julio	2023-07-21T00:00:00	2024-11-08T20:00:00	5	Humedad	79
184153	7	Sololá	712	San Antonio Palopó	9	San Antonio Palopo	7	Julio	2023-07-21T00:00:00	2024-11-08T20:00:00	6	Velocidad del viento	3.2
184154	7	Sololá	712	San Antonio Palopó	9	San Antonio Palopo	7	Julio	2023-07-21T00:00:00	2024-11-08T20:00:00	7	Dirección del viento	3.22
184155	7	Sololá	712	San Antonio Palopó	9	San Antonio Palopo	7	Julio	2023-07-21T00:00:00	2024-11-08T20:00:00	1	Precipitación	0
184156	7	Sololá	712	San Antonio Palopó	9	San Antonio Palopo	7	Julio	2023-07-21T00:00:00	2024-11-08T20:00:00	8	Radiación solar	0
184157	7	Sololá	712	San Antonio Palopó	9	San Antonio Palopo	7	Julio	2023-07-21T00:00:00	2024-11-08T21:00:00	2	Temperatura media	21.2
184158	7	Sololá	712	San Antonio Palopó	9	San Antonio Palopo	7	Julio	2023-07-21T00:00:00	2024-11-08T21:00:00	4	Temperatura máxima	22.1
184159	7	Sololá	712	San Antonio Palopó	9	San Antonio Palopo	7	Julio	2023-07-21T00:00:00	2024-11-08T21:00:00	3	Temperatura mínima	21
184160	7	Sololá	712	San Antonio Palopó	9	San Antonio Palopo	7	Julio	2023-07-21T00:00:00	2024-11-08T21:00:00	5	Humedad	77
184161	7	Sololá	712	San Antonio Palopó	9	San Antonio Palopo	7	Julio	2023-07-21T00:00:00	2024-11-08T21:00:00	6	Velocidad del viento	3.2
184162	7	Sololá	712	San Antonio Palopó	9	San Antonio Palopo	7	Julio	2023-07-21T00:00:00	2024-11-08T21:00:00	7	Dirección del viento	3.22
184163	7	Sololá	712	San Antonio Palopó	9	San Antonio Palopo	7	Julio	2023-07-21T00:00:00	2024-11-08T21:00:00	1	Precipitación	0
184164	7	Sololá	712	San Antonio Palopó	9	San Antonio Palopo	7	Julio	2023-07-21T00:00:00	2024-11-08T21:00:00	8	Radiación solar	0
184165	7	Sololá	712	San Antonio Palopó	9	San Antonio Palopo	7	Julio	2023-07-21T00:00:00	2024-11-08T22:00:00	2	Temperatura media	21.9
184166	7	Sololá	712	San Antonio Palopó	9	San Antonio Palopo	7	Julio	2023-07-21T00:00:00	2024-11-08T22:00:00	4	Temperatura máxima	21.9
184167	7	Sololá	712	San Antonio Palopó	9	San Antonio Palopo	7	Julio	2023-07-21T00:00:00	2024-11-08T22:00:00	3	Temperatura mínima	21.1
184168	7	Sololá	712	San Antonio Palopó	9	San Antonio Palopo	7	Julio	2023-07-21T00:00:00	2024-11-08T22:00:00	5	Humedad	72
184169	7	Sololá	712	San Antonio Palopó	9	San Antonio Palopo	7	Julio	2023-07-21T00:00:00	2024-11-08T22:00:00	6	Velocidad del viento	4.8
184170	7	Sololá	712	San Antonio Palopó	9	San Antonio Palopo	7	Julio	2023-07-21T00:00:00	2024-11-08T22:00:00	7	Dirección del viento	4.83
184171	7	Sololá	712	San Antonio Palopó	9	San Antonio Palopo	7	Julio	2023-07-21T00:00:00	2024-11-08T22:00:00	1	Precipitación	0
184172	7	Sololá	712	San Antonio Palopó	9	San Antonio Palopo	7	Julio	2023-07-21T00:00:00	2024-11-08T22:00:00	8	Radiación solar	0
184173	7	Sololá	712	San Antonio Palopó	9	San Antonio Palopo	7	Julio	2023-07-21T00:00:00	2024-11-08T23:00:00	2	Temperatura media	21.6
184174	7	Sololá	712	San Antonio Palopó	9	San Antonio Palopo	7	Julio	2023-07-21T00:00:00	2024-11-08T23:00:00	4	Temperatura máxima	21.9
184175	7	Sololá	712	San Antonio Palopó	9	San Antonio Palopo	7	Julio	2023-07-21T00:00:00	2024-11-08T23:00:00	3	Temperatura mínima	21.4
184176	7	Sololá	712	San Antonio Palopó	9	San Antonio Palopo	7	Julio	2023-07-21T00:00:00	2024-11-08T23:00:00	5	Humedad	72
184177	7	Sololá	712	San Antonio Palopó	9	San Antonio Palopo	7	Julio	2023-07-21T00:00:00	2024-11-08T23:00:00	6	Velocidad del viento	11.3
184178	7	Sololá	712	San Antonio Palopó	9	San Antonio Palopo	7	Julio	2023-07-21T00:00:00	2024-11-08T23:00:00	7	Dirección del viento	11.27
184179	7	Sololá	712	San Antonio Palopó	9	San Antonio Palopo	7	Julio	2023-07-21T00:00:00	2024-11-08T23:00:00	1	Precipitación	0
184180	7	Sololá	712	San Antonio Palopó	9	San Antonio Palopo	7	Julio	2023-07-21T00:00:00	2024-11-08T23:00:00	8	Radiación solar	0
184181	7	Sololá	712	San Antonio Palopó	9	San Antonio Palopo	7	Julio	2023-07-22T00:00:00	2024-11-08T00:00:00	2	Temperatura media	21.2
184182	7	Sololá	712	San Antonio Palopó	9	San Antonio Palopo	7	Julio	2023-07-22T00:00:00	2024-11-08T00:00:00	4	Temperatura máxima	21.8
184183	7	Sololá	712	San Antonio Palopó	9	San Antonio Palopo	7	Julio	2023-07-22T00:00:00	2024-11-08T00:00:00	3	Temperatura mínima	21.2
184184	7	Sololá	712	San Antonio Palopó	9	San Antonio Palopo	7	Julio	2023-07-22T00:00:00	2024-11-08T00:00:00	5	Humedad	72
184185	7	Sololá	712	San Antonio Palopó	9	San Antonio Palopo	7	Julio	2023-07-22T00:00:00	2024-11-08T00:00:00	6	Velocidad del viento	14.5
184186	7	Sololá	712	San Antonio Palopó	9	San Antonio Palopo	7	Julio	2023-07-22T00:00:00	2024-11-08T00:00:00	7	Dirección del viento	14.48
184187	7	Sololá	712	San Antonio Palopó	9	San Antonio Palopo	7	Julio	2023-07-22T00:00:00	2024-11-08T00:00:00	1	Precipitación	0
184188	7	Sololá	712	San Antonio Palopó	9	San Antonio Palopo	7	Julio	2023-07-22T00:00:00	2024-11-08T00:00:00	8	Radiación solar	0
184189	7	Sololá	712	San Antonio Palopó	9	San Antonio Palopo	7	Julio	2023-07-22T00:00:00	2024-11-08T01:00:00	2	Temperatura media	20.9
184190	7	Sololá	712	San Antonio Palopó	9	San Antonio Palopo	7	Julio	2023-07-22T00:00:00	2024-11-08T01:00:00	4	Temperatura máxima	21.3
184191	7	Sololá	712	San Antonio Palopó	9	San Antonio Palopo	7	Julio	2023-07-22T00:00:00	2024-11-08T01:00:00	3	Temperatura mínima	20.9
184192	7	Sololá	712	San Antonio Palopó	9	San Antonio Palopo	7	Julio	2023-07-22T00:00:00	2024-11-08T01:00:00	5	Humedad	72
184193	7	Sololá	712	San Antonio Palopó	9	San Antonio Palopo	7	Julio	2023-07-22T00:00:00	2024-11-08T01:00:00	6	Velocidad del viento	11.3
184194	7	Sololá	712	San Antonio Palopó	9	San Antonio Palopo	7	Julio	2023-07-22T00:00:00	2024-11-08T01:00:00	7	Dirección del viento	11.27
184195	7	Sololá	712	San Antonio Palopó	9	San Antonio Palopo	7	Julio	2023-07-22T00:00:00	2024-11-08T01:00:00	1	Precipitación	0
184196	7	Sololá	712	San Antonio Palopó	9	San Antonio Palopo	7	Julio	2023-07-22T00:00:00	2024-11-08T01:00:00	8	Radiación solar	0
184197	7	Sololá	712	San Antonio Palopó	9	San Antonio Palopo	7	Julio	2023-07-22T00:00:00	2024-11-08T02:00:00	2	Temperatura media	20.5
184198	7	Sololá	712	San Antonio Palopó	9	San Antonio Palopo	7	Julio	2023-07-22T00:00:00	2024-11-08T02:00:00	4	Temperatura máxima	20.9
184199	7	Sololá	712	San Antonio Palopó	9	San Antonio Palopo	7	Julio	2023-07-22T00:00:00	2024-11-08T02:00:00	3	Temperatura mínima	20.5
184200	7	Sololá	712	San Antonio Palopó	9	San Antonio Palopo	7	Julio	2023-07-22T00:00:00	2024-11-08T02:00:00	5	Humedad	72
184201	7	Sololá	712	San Antonio Palopó	9	San Antonio Palopo	7	Julio	2023-07-22T00:00:00	2024-11-08T02:00:00	6	Velocidad del viento	9.7
184202	7	Sololá	712	San Antonio Palopó	9	San Antonio Palopo	7	Julio	2023-07-22T00:00:00	2024-11-08T02:00:00	7	Dirección del viento	9.66
184203	7	Sololá	712	San Antonio Palopó	9	San Antonio Palopo	7	Julio	2023-07-22T00:00:00	2024-11-08T02:00:00	1	Precipitación	0
184204	7	Sololá	712	San Antonio Palopó	9	San Antonio Palopo	7	Julio	2023-07-22T00:00:00	2024-11-08T02:00:00	8	Radiación solar	0
184205	7	Sololá	712	San Antonio Palopó	9	San Antonio Palopo	7	Julio	2023-07-22T00:00:00	2024-11-08T03:00:00	2	Temperatura media	20.4
184206	7	Sololá	712	San Antonio Palopó	9	San Antonio Palopo	7	Julio	2023-07-22T00:00:00	2024-11-08T03:00:00	4	Temperatura máxima	20.6
184207	7	Sololá	712	San Antonio Palopó	9	San Antonio Palopo	7	Julio	2023-07-22T00:00:00	2024-11-08T03:00:00	3	Temperatura mínima	20.2
184208	7	Sololá	712	San Antonio Palopó	9	San Antonio Palopo	7	Julio	2023-07-22T00:00:00	2024-11-08T03:00:00	5	Humedad	70
184209	7	Sololá	712	San Antonio Palopó	9	San Antonio Palopo	7	Julio	2023-07-22T00:00:00	2024-11-08T03:00:00	6	Velocidad del viento	8
184210	7	Sololá	712	San Antonio Palopó	9	San Antonio Palopo	7	Julio	2023-07-22T00:00:00	2024-11-08T03:00:00	7	Dirección del viento	8.05
184211	7	Sololá	712	San Antonio Palopó	9	San Antonio Palopo	7	Julio	2023-07-22T00:00:00	2024-11-08T03:00:00	1	Precipitación	0
184212	7	Sololá	712	San Antonio Palopó	9	San Antonio Palopo	7	Julio	2023-07-22T00:00:00	2024-11-08T03:00:00	8	Radiación solar	0
184213	7	Sololá	712	San Antonio Palopó	9	San Antonio Palopo	7	Julio	2023-07-22T00:00:00	2024-11-08T04:00:00	2	Temperatura media	19.9
184214	7	Sololá	712	San Antonio Palopó	9	San Antonio Palopo	7	Julio	2023-07-22T00:00:00	2024-11-08T04:00:00	4	Temperatura máxima	20.4
184215	7	Sololá	712	San Antonio Palopó	9	San Antonio Palopo	7	Julio	2023-07-22T00:00:00	2024-11-08T04:00:00	3	Temperatura mínima	19.8
184216	7	Sololá	712	San Antonio Palopó	9	San Antonio Palopo	7	Julio	2023-07-22T00:00:00	2024-11-08T04:00:00	5	Humedad	72
184217	7	Sololá	712	San Antonio Palopó	9	San Antonio Palopo	7	Julio	2023-07-22T00:00:00	2024-11-08T04:00:00	6	Velocidad del viento	11.3
184218	7	Sololá	712	San Antonio Palopó	9	San Antonio Palopo	7	Julio	2023-07-22T00:00:00	2024-11-08T04:00:00	7	Dirección del viento	11.27
184219	7	Sololá	712	San Antonio Palopó	9	San Antonio Palopo	7	Julio	2023-07-22T00:00:00	2024-11-08T04:00:00	1	Precipitación	0
184220	7	Sololá	712	San Antonio Palopó	9	San Antonio Palopo	7	Julio	2023-07-22T00:00:00	2024-11-08T04:00:00	8	Radiación solar	0
184221	7	Sololá	712	San Antonio Palopó	9	San Antonio Palopo	7	Julio	2023-07-22T00:00:00	2024-11-08T05:00:00	2	Temperatura media	20.2
184222	7	Sololá	712	San Antonio Palopó	9	San Antonio Palopo	7	Julio	2023-07-22T00:00:00	2024-11-08T05:00:00	4	Temperatura máxima	20.7
184223	7	Sololá	712	San Antonio Palopó	9	San Antonio Palopo	7	Julio	2023-07-22T00:00:00	2024-11-08T05:00:00	3	Temperatura mínima	19.9
184224	7	Sololá	712	San Antonio Palopó	9	San Antonio Palopo	7	Julio	2023-07-22T00:00:00	2024-11-08T05:00:00	5	Humedad	71
184225	7	Sololá	712	San Antonio Palopó	9	San Antonio Palopo	7	Julio	2023-07-22T00:00:00	2024-11-08T05:00:00	6	Velocidad del viento	8
184226	7	Sololá	712	San Antonio Palopó	9	San Antonio Palopo	7	Julio	2023-07-22T00:00:00	2024-11-08T05:00:00	7	Dirección del viento	8.05
184227	7	Sololá	712	San Antonio Palopó	9	San Antonio Palopo	7	Julio	2023-07-22T00:00:00	2024-11-08T05:00:00	1	Precipitación	0
184228	7	Sololá	712	San Antonio Palopó	9	San Antonio Palopo	7	Julio	2023-07-22T00:00:00	2024-11-08T05:00:00	8	Radiación solar	0
184229	7	Sololá	712	San Antonio Palopó	9	San Antonio Palopo	7	Julio	2023-07-22T00:00:00	2024-11-08T06:00:00	2	Temperatura media	20.4
184230	7	Sololá	712	San Antonio Palopó	9	San Antonio Palopo	7	Julio	2023-07-22T00:00:00	2024-11-08T06:00:00	4	Temperatura máxima	20.5
184231	7	Sololá	712	San Antonio Palopó	9	San Antonio Palopo	7	Julio	2023-07-22T00:00:00	2024-11-08T06:00:00	3	Temperatura mínima	20
184232	7	Sololá	712	San Antonio Palopó	9	San Antonio Palopo	7	Julio	2023-07-22T00:00:00	2024-11-08T06:00:00	5	Humedad	70
184233	7	Sololá	712	San Antonio Palopó	9	San Antonio Palopo	7	Julio	2023-07-22T00:00:00	2024-11-08T06:00:00	6	Velocidad del viento	14.5
184234	7	Sololá	712	San Antonio Palopó	9	San Antonio Palopo	7	Julio	2023-07-22T00:00:00	2024-11-08T06:00:00	7	Dirección del viento	14.48
184235	7	Sololá	712	San Antonio Palopó	9	San Antonio Palopo	7	Julio	2023-07-22T00:00:00	2024-11-08T06:00:00	1	Precipitación	0
184236	7	Sololá	712	San Antonio Palopó	9	San Antonio Palopo	7	Julio	2023-07-22T00:00:00	2024-11-08T06:00:00	8	Radiación solar	1
184237	7	Sololá	712	San Antonio Palopó	9	San Antonio Palopo	7	Julio	2023-07-22T00:00:00	2024-11-08T07:00:00	2	Temperatura media	20.6
184238	7	Sololá	712	San Antonio Palopó	9	San Antonio Palopo	7	Julio	2023-07-22T00:00:00	2024-11-08T07:00:00	4	Temperatura máxima	20.7
184239	7	Sololá	712	San Antonio Palopó	9	San Antonio Palopo	7	Julio	2023-07-22T00:00:00	2024-11-08T07:00:00	3	Temperatura mínima	20.3
184240	7	Sololá	712	San Antonio Palopó	9	San Antonio Palopo	7	Julio	2023-07-22T00:00:00	2024-11-08T07:00:00	5	Humedad	70
184241	7	Sololá	712	San Antonio Palopó	9	San Antonio Palopo	7	Julio	2023-07-22T00:00:00	2024-11-08T07:00:00	6	Velocidad del viento	12.9
184242	7	Sololá	712	San Antonio Palopó	9	San Antonio Palopo	7	Julio	2023-07-22T00:00:00	2024-11-08T07:00:00	7	Dirección del viento	12.87
184243	7	Sololá	712	San Antonio Palopó	9	San Antonio Palopo	7	Julio	2023-07-22T00:00:00	2024-11-08T07:00:00	1	Precipitación	0
184244	7	Sololá	712	San Antonio Palopó	9	San Antonio Palopo	7	Julio	2023-07-22T00:00:00	2024-11-08T07:00:00	8	Radiación solar	60
184245	7	Sololá	712	San Antonio Palopó	9	San Antonio Palopo	7	Julio	2023-07-22T00:00:00	2024-11-08T08:00:00	2	Temperatura media	22.4
184246	7	Sololá	712	San Antonio Palopó	9	San Antonio Palopo	7	Julio	2023-07-22T00:00:00	2024-11-08T08:00:00	4	Temperatura máxima	22.4
184247	7	Sololá	712	San Antonio Palopó	9	San Antonio Palopo	7	Julio	2023-07-22T00:00:00	2024-11-08T08:00:00	3	Temperatura mínima	20.6
184248	7	Sololá	712	San Antonio Palopó	9	San Antonio Palopo	7	Julio	2023-07-22T00:00:00	2024-11-08T08:00:00	5	Humedad	65
184249	7	Sololá	712	San Antonio Palopó	9	San Antonio Palopo	7	Julio	2023-07-22T00:00:00	2024-11-08T08:00:00	6	Velocidad del viento	4.8
184250	7	Sololá	712	San Antonio Palopó	9	San Antonio Palopo	7	Julio	2023-07-22T00:00:00	2024-11-08T08:00:00	7	Dirección del viento	4.83
184251	7	Sololá	712	San Antonio Palopó	9	San Antonio Palopo	7	Julio	2023-07-22T00:00:00	2024-11-08T08:00:00	1	Precipitación	0
184252	7	Sololá	712	San Antonio Palopó	9	San Antonio Palopo	7	Julio	2023-07-22T00:00:00	2024-11-08T08:00:00	8	Radiación solar	179
184253	7	Sololá	712	San Antonio Palopó	9	San Antonio Palopo	7	Julio	2023-07-22T00:00:00	2024-11-08T09:00:00	2	Temperatura media	22.4
184254	7	Sololá	712	San Antonio Palopó	9	San Antonio Palopo	7	Julio	2023-07-22T00:00:00	2024-11-08T09:00:00	4	Temperatura máxima	22.8
184255	7	Sololá	712	San Antonio Palopó	9	San Antonio Palopo	7	Julio	2023-07-22T00:00:00	2024-11-08T09:00:00	3	Temperatura mínima	22.4
184256	7	Sololá	712	San Antonio Palopó	9	San Antonio Palopo	7	Julio	2023-07-22T00:00:00	2024-11-08T09:00:00	5	Humedad	68
184257	7	Sololá	712	San Antonio Palopó	9	San Antonio Palopo	7	Julio	2023-07-22T00:00:00	2024-11-08T09:00:00	6	Velocidad del viento	1.6
184258	7	Sololá	712	San Antonio Palopó	9	San Antonio Palopo	7	Julio	2023-07-22T00:00:00	2024-11-08T09:00:00	7	Dirección del viento	1.61
184259	7	Sololá	712	San Antonio Palopó	9	San Antonio Palopo	7	Julio	2023-07-22T00:00:00	2024-11-08T09:00:00	1	Precipitación	0
184260	7	Sololá	712	San Antonio Palopó	9	San Antonio Palopo	7	Julio	2023-07-22T00:00:00	2024-11-08T09:00:00	8	Radiación solar	342
184261	7	Sololá	712	San Antonio Palopó	9	San Antonio Palopo	7	Julio	2023-07-22T00:00:00	2024-11-08T10:00:00	2	Temperatura media	23.3
184262	7	Sololá	712	San Antonio Palopó	9	San Antonio Palopo	7	Julio	2023-07-22T00:00:00	2024-11-08T10:00:00	4	Temperatura máxima	23.6
184263	7	Sololá	712	San Antonio Palopó	9	San Antonio Palopo	7	Julio	2023-07-22T00:00:00	2024-11-08T10:00:00	3	Temperatura mínima	22.4
184264	7	Sololá	712	San Antonio Palopó	9	San Antonio Palopo	7	Julio	2023-07-22T00:00:00	2024-11-08T10:00:00	5	Humedad	67
184265	7	Sololá	712	San Antonio Palopó	9	San Antonio Palopo	7	Julio	2023-07-22T00:00:00	2024-11-08T10:00:00	6	Velocidad del viento	1.6
184266	7	Sololá	712	San Antonio Palopó	9	San Antonio Palopo	7	Julio	2023-07-22T00:00:00	2024-11-08T10:00:00	7	Dirección del viento	1.61
184267	7	Sololá	712	San Antonio Palopó	9	San Antonio Palopo	7	Julio	2023-07-22T00:00:00	2024-11-08T10:00:00	1	Precipitación	0
184268	7	Sololá	712	San Antonio Palopó	9	San Antonio Palopo	7	Julio	2023-07-22T00:00:00	2024-11-08T10:00:00	8	Radiación solar	446
184269	7	Sololá	712	San Antonio Palopó	9	San Antonio Palopo	7	Julio	2023-07-22T00:00:00	2024-11-08T11:00:00	2	Temperatura media	23.2
184270	7	Sololá	712	San Antonio Palopó	9	San Antonio Palopo	7	Julio	2023-07-22T00:00:00	2024-11-08T11:00:00	4	Temperatura máxima	23.8
184271	7	Sololá	712	San Antonio Palopó	9	San Antonio Palopo	7	Julio	2023-07-22T00:00:00	2024-11-08T11:00:00	3	Temperatura mínima	23
184272	7	Sololá	712	San Antonio Palopó	9	San Antonio Palopo	7	Julio	2023-07-22T00:00:00	2024-11-08T11:00:00	5	Humedad	73
184273	7	Sololá	712	San Antonio Palopó	9	San Antonio Palopo	7	Julio	2023-07-22T00:00:00	2024-11-08T11:00:00	6	Velocidad del viento	3.2
184274	7	Sololá	712	San Antonio Palopó	9	San Antonio Palopo	7	Julio	2023-07-22T00:00:00	2024-11-08T11:00:00	7	Dirección del viento	3.22
184275	7	Sololá	712	San Antonio Palopó	9	San Antonio Palopo	7	Julio	2023-07-22T00:00:00	2024-11-08T11:00:00	1	Precipitación	0
184276	7	Sololá	712	San Antonio Palopó	9	San Antonio Palopo	7	Julio	2023-07-22T00:00:00	2024-11-08T11:00:00	8	Radiación solar	385
184277	7	Sololá	712	San Antonio Palopó	9	San Antonio Palopo	7	Julio	2023-07-22T00:00:00	2024-11-08T12:00:00	2	Temperatura media	24
184278	7	Sololá	712	San Antonio Palopó	9	San Antonio Palopo	7	Julio	2023-07-22T00:00:00	2024-11-08T12:00:00	4	Temperatura máxima	24
184279	7	Sololá	712	San Antonio Palopó	9	San Antonio Palopo	7	Julio	2023-07-22T00:00:00	2024-11-08T12:00:00	3	Temperatura mínima	23.2
184280	7	Sololá	712	San Antonio Palopó	9	San Antonio Palopo	7	Julio	2023-07-22T00:00:00	2024-11-08T12:00:00	5	Humedad	71
184281	7	Sololá	712	San Antonio Palopó	9	San Antonio Palopo	7	Julio	2023-07-22T00:00:00	2024-11-08T12:00:00	6	Velocidad del viento	4.8
184282	7	Sololá	712	San Antonio Palopó	9	San Antonio Palopo	7	Julio	2023-07-22T00:00:00	2024-11-08T12:00:00	7	Dirección del viento	4.83
184283	7	Sololá	712	San Antonio Palopó	9	San Antonio Palopo	7	Julio	2023-07-22T00:00:00	2024-11-08T12:00:00	1	Precipitación	0
184284	7	Sololá	712	San Antonio Palopó	9	San Antonio Palopo	7	Julio	2023-07-22T00:00:00	2024-11-08T12:00:00	8	Radiación solar	397
184285	7	Sololá	712	San Antonio Palopó	9	San Antonio Palopo	7	Julio	2023-07-22T00:00:00	2024-11-08T13:00:00	2	Temperatura media	21.6
184286	7	Sololá	712	San Antonio Palopó	9	San Antonio Palopo	7	Julio	2023-07-22T00:00:00	2024-11-08T13:00:00	4	Temperatura máxima	24
184287	7	Sololá	712	San Antonio Palopó	9	San Antonio Palopo	7	Julio	2023-07-22T00:00:00	2024-11-08T13:00:00	3	Temperatura mínima	21.6
184288	7	Sololá	712	San Antonio Palopó	9	San Antonio Palopo	7	Julio	2023-07-22T00:00:00	2024-11-08T13:00:00	5	Humedad	74
184289	7	Sololá	712	San Antonio Palopó	9	San Antonio Palopo	7	Julio	2023-07-22T00:00:00	2024-11-08T13:00:00	6	Velocidad del viento	8
184290	7	Sololá	712	San Antonio Palopó	9	San Antonio Palopo	7	Julio	2023-07-22T00:00:00	2024-11-08T13:00:00	7	Dirección del viento	8.05
184291	7	Sololá	712	San Antonio Palopó	9	San Antonio Palopo	7	Julio	2023-07-22T00:00:00	2024-11-08T13:00:00	1	Precipitación	0
184292	7	Sololá	712	San Antonio Palopó	9	San Antonio Palopo	7	Julio	2023-07-22T00:00:00	2024-11-08T13:00:00	8	Radiación solar	167
184293	7	Sololá	712	San Antonio Palopó	9	San Antonio Palopo	7	Julio	2023-07-22T00:00:00	2024-11-08T14:00:00	2	Temperatura media	20.6
184294	7	Sololá	712	San Antonio Palopó	9	San Antonio Palopo	7	Julio	2023-07-22T00:00:00	2024-11-08T14:00:00	4	Temperatura máxima	21.6
184295	7	Sololá	712	San Antonio Palopó	9	San Antonio Palopo	7	Julio	2023-07-22T00:00:00	2024-11-08T14:00:00	3	Temperatura mínima	20.3
184296	7	Sololá	712	San Antonio Palopó	9	San Antonio Palopo	7	Julio	2023-07-22T00:00:00	2024-11-08T14:00:00	5	Humedad	84
184297	7	Sololá	712	San Antonio Palopó	9	San Antonio Palopo	7	Julio	2023-07-22T00:00:00	2024-11-08T14:00:00	6	Velocidad del viento	3.2
184298	7	Sololá	712	San Antonio Palopó	9	San Antonio Palopo	7	Julio	2023-07-22T00:00:00	2024-11-08T14:00:00	7	Dirección del viento	3.22
184299	7	Sololá	712	San Antonio Palopó	9	San Antonio Palopo	7	Julio	2023-07-22T00:00:00	2024-11-08T14:00:00	1	Precipitación	0.6
184300	7	Sololá	712	San Antonio Palopó	9	San Antonio Palopo	7	Julio	2023-07-22T00:00:00	2024-11-08T14:00:00	8	Radiación solar	90
184301	7	Sololá	712	San Antonio Palopó	9	San Antonio Palopo	7	Julio	2023-07-22T00:00:00	2024-11-08T15:00:00	2	Temperatura media	19.2
184302	7	Sololá	712	San Antonio Palopó	9	San Antonio Palopo	7	Julio	2023-07-22T00:00:00	2024-11-08T15:00:00	4	Temperatura máxima	20.7
184303	7	Sololá	712	San Antonio Palopó	9	San Antonio Palopo	7	Julio	2023-07-22T00:00:00	2024-11-08T15:00:00	3	Temperatura mínima	19
184304	7	Sololá	712	San Antonio Palopó	9	San Antonio Palopo	7	Julio	2023-07-22T00:00:00	2024-11-08T15:00:00	5	Humedad	84
184305	7	Sololá	712	San Antonio Palopó	9	San Antonio Palopo	7	Julio	2023-07-22T00:00:00	2024-11-08T15:00:00	6	Velocidad del viento	4.8
184306	7	Sololá	712	San Antonio Palopó	9	San Antonio Palopo	7	Julio	2023-07-22T00:00:00	2024-11-08T15:00:00	7	Dirección del viento	4.83
184307	7	Sololá	712	San Antonio Palopó	9	San Antonio Palopo	7	Julio	2023-07-22T00:00:00	2024-11-08T15:00:00	1	Precipitación	0.8
184308	7	Sololá	712	San Antonio Palopó	9	San Antonio Palopo	7	Julio	2023-07-22T00:00:00	2024-11-08T15:00:00	8	Radiación solar	52
184309	7	Sololá	712	San Antonio Palopó	9	San Antonio Palopo	7	Julio	2023-07-22T00:00:00	2024-11-08T16:00:00	2	Temperatura media	20.1
184310	7	Sololá	712	San Antonio Palopó	9	San Antonio Palopo	7	Julio	2023-07-22T00:00:00	2024-11-08T16:00:00	4	Temperatura máxima	20.1
184311	7	Sololá	712	San Antonio Palopó	9	San Antonio Palopo	7	Julio	2023-07-22T00:00:00	2024-11-08T16:00:00	3	Temperatura mínima	19.2
184312	7	Sololá	712	San Antonio Palopó	9	San Antonio Palopo	7	Julio	2023-07-22T00:00:00	2024-11-08T16:00:00	5	Humedad	81
184313	7	Sololá	712	San Antonio Palopó	9	San Antonio Palopo	7	Julio	2023-07-22T00:00:00	2024-11-08T16:00:00	6	Velocidad del viento	3.2
184314	7	Sololá	712	San Antonio Palopó	9	San Antonio Palopo	7	Julio	2023-07-22T00:00:00	2024-11-08T16:00:00	7	Dirección del viento	3.22
184315	7	Sololá	712	San Antonio Palopó	9	San Antonio Palopo	7	Julio	2023-07-22T00:00:00	2024-11-08T16:00:00	1	Precipitación	0
184316	7	Sololá	712	San Antonio Palopó	9	San Antonio Palopo	7	Julio	2023-07-22T00:00:00	2024-11-08T16:00:00	8	Radiación solar	51
184317	7	Sololá	712	San Antonio Palopó	9	San Antonio Palopo	7	Julio	2023-07-22T00:00:00	2024-11-08T17:00:00	2	Temperatura media	19.8
184318	7	Sololá	712	San Antonio Palopó	9	San Antonio Palopo	7	Julio	2023-07-22T00:00:00	2024-11-08T17:00:00	4	Temperatura máxima	20.1
184319	7	Sololá	712	San Antonio Palopó	9	San Antonio Palopo	7	Julio	2023-07-22T00:00:00	2024-11-08T17:00:00	3	Temperatura mínima	19.7
184320	7	Sololá	712	San Antonio Palopó	9	San Antonio Palopo	7	Julio	2023-07-22T00:00:00	2024-11-08T17:00:00	5	Humedad	83
184321	7	Sololá	712	San Antonio Palopó	9	San Antonio Palopo	7	Julio	2023-07-22T00:00:00	2024-11-08T17:00:00	6	Velocidad del viento	1.6
184322	7	Sololá	712	San Antonio Palopó	9	San Antonio Palopo	7	Julio	2023-07-22T00:00:00	2024-11-08T17:00:00	7	Dirección del viento	1.61
184323	7	Sololá	712	San Antonio Palopó	9	San Antonio Palopo	7	Julio	2023-07-22T00:00:00	2024-11-08T17:00:00	1	Precipitación	0
184324	7	Sololá	712	San Antonio Palopó	9	San Antonio Palopo	7	Julio	2023-07-22T00:00:00	2024-11-08T17:00:00	8	Radiación solar	45
184325	7	Sololá	712	San Antonio Palopó	9	San Antonio Palopo	7	Julio	2023-07-22T00:00:00	2024-11-08T18:00:00	2	Temperatura media	19.8
184326	7	Sololá	712	San Antonio Palopó	9	San Antonio Palopo	7	Julio	2023-07-22T00:00:00	2024-11-08T18:00:00	4	Temperatura máxima	20.1
184327	7	Sololá	712	San Antonio Palopó	9	San Antonio Palopo	7	Julio	2023-07-22T00:00:00	2024-11-08T18:00:00	3	Temperatura mínima	19.7
184328	7	Sololá	712	San Antonio Palopó	9	San Antonio Palopo	7	Julio	2023-07-22T00:00:00	2024-11-08T18:00:00	5	Humedad	84
184329	7	Sololá	712	San Antonio Palopó	9	San Antonio Palopo	7	Julio	2023-07-22T00:00:00	2024-11-08T18:00:00	6	Velocidad del viento	1.6
184330	7	Sololá	712	San Antonio Palopó	9	San Antonio Palopo	7	Julio	2023-07-22T00:00:00	2024-11-08T18:00:00	7	Dirección del viento	1.61
184331	7	Sololá	712	San Antonio Palopó	9	San Antonio Palopo	7	Julio	2023-07-22T00:00:00	2024-11-08T18:00:00	1	Precipitación	0
184332	7	Sololá	712	San Antonio Palopó	9	San Antonio Palopo	7	Julio	2023-07-22T00:00:00	2024-11-08T18:00:00	8	Radiación solar	36
184333	7	Sololá	712	San Antonio Palopó	9	San Antonio Palopo	7	Julio	2023-07-22T00:00:00	2024-11-08T19:00:00	2	Temperatura media	19.1
184334	7	Sololá	712	San Antonio Palopó	9	San Antonio Palopo	7	Julio	2023-07-22T00:00:00	2024-11-08T19:00:00	4	Temperatura máxima	19.8
184335	7	Sololá	712	San Antonio Palopó	9	San Antonio Palopo	7	Julio	2023-07-22T00:00:00	2024-11-08T19:00:00	3	Temperatura mínima	18.9
184336	7	Sololá	712	San Antonio Palopó	9	San Antonio Palopo	7	Julio	2023-07-22T00:00:00	2024-11-08T19:00:00	5	Humedad	86
184337	7	Sololá	712	San Antonio Palopó	9	San Antonio Palopo	7	Julio	2023-07-22T00:00:00	2024-11-08T19:00:00	6	Velocidad del viento	3.2
184338	7	Sololá	712	San Antonio Palopó	9	San Antonio Palopo	7	Julio	2023-07-22T00:00:00	2024-11-08T19:00:00	7	Dirección del viento	3.22
184339	7	Sololá	712	San Antonio Palopó	9	San Antonio Palopo	7	Julio	2023-07-22T00:00:00	2024-11-08T19:00:00	1	Precipitación	0
184340	7	Sololá	712	San Antonio Palopó	9	San Antonio Palopo	7	Julio	2023-07-22T00:00:00	2024-11-08T19:00:00	8	Radiación solar	0
184341	7	Sololá	712	San Antonio Palopó	9	San Antonio Palopo	7	Julio	2023-07-22T00:00:00	2024-11-08T20:00:00	2	Temperatura media	19.6
184342	7	Sololá	712	San Antonio Palopó	9	San Antonio Palopo	7	Julio	2023-07-22T00:00:00	2024-11-08T20:00:00	4	Temperatura máxima	19.6
184343	7	Sololá	712	San Antonio Palopó	9	San Antonio Palopo	7	Julio	2023-07-22T00:00:00	2024-11-08T20:00:00	3	Temperatura mínima	18.9
184344	7	Sololá	712	San Antonio Palopó	9	San Antonio Palopo	7	Julio	2023-07-22T00:00:00	2024-11-08T20:00:00	5	Humedad	82
184345	7	Sololá	712	San Antonio Palopó	9	San Antonio Palopo	7	Julio	2023-07-22T00:00:00	2024-11-08T20:00:00	6	Velocidad del viento	3.2
184346	7	Sololá	712	San Antonio Palopó	9	San Antonio Palopo	7	Julio	2023-07-22T00:00:00	2024-11-08T20:00:00	7	Dirección del viento	3.22
184347	7	Sololá	712	San Antonio Palopó	9	San Antonio Palopo	7	Julio	2023-07-22T00:00:00	2024-11-08T20:00:00	1	Precipitación	0
184348	7	Sololá	712	San Antonio Palopó	9	San Antonio Palopo	7	Julio	2023-07-22T00:00:00	2024-11-08T20:00:00	8	Radiación solar	0
184349	7	Sololá	712	San Antonio Palopó	9	San Antonio Palopo	7	Julio	2023-07-22T00:00:00	2024-11-08T21:00:00	2	Temperatura media	19.7
184350	7	Sololá	712	San Antonio Palopó	9	San Antonio Palopo	7	Julio	2023-07-22T00:00:00	2024-11-08T21:00:00	4	Temperatura máxima	19.7
184351	7	Sololá	712	San Antonio Palopó	9	San Antonio Palopo	7	Julio	2023-07-22T00:00:00	2024-11-08T21:00:00	3	Temperatura mínima	19.3
184352	7	Sololá	712	San Antonio Palopó	9	San Antonio Palopo	7	Julio	2023-07-22T00:00:00	2024-11-08T21:00:00	5	Humedad	78
184353	7	Sololá	712	San Antonio Palopó	9	San Antonio Palopo	7	Julio	2023-07-22T00:00:00	2024-11-08T21:00:00	6	Velocidad del viento	1.6
184354	7	Sololá	712	San Antonio Palopó	9	San Antonio Palopo	7	Julio	2023-07-22T00:00:00	2024-11-08T21:00:00	7	Dirección del viento	1.61
184355	7	Sololá	712	San Antonio Palopó	9	San Antonio Palopo	7	Julio	2023-07-22T00:00:00	2024-11-08T21:00:00	1	Precipitación	0
184356	7	Sololá	712	San Antonio Palopó	9	San Antonio Palopo	7	Julio	2023-07-22T00:00:00	2024-11-08T21:00:00	8	Radiación solar	0
184357	7	Sololá	712	San Antonio Palopó	9	San Antonio Palopo	7	Julio	2023-07-22T00:00:00	2024-11-08T22:00:00	2	Temperatura media	20.2
184358	7	Sololá	712	San Antonio Palopó	9	San Antonio Palopo	7	Julio	2023-07-22T00:00:00	2024-11-08T22:00:00	4	Temperatura máxima	20.2
184359	7	Sololá	712	San Antonio Palopó	9	San Antonio Palopo	7	Julio	2023-07-22T00:00:00	2024-11-08T22:00:00	3	Temperatura mínima	19.6
184360	7	Sololá	712	San Antonio Palopó	9	San Antonio Palopo	7	Julio	2023-07-22T00:00:00	2024-11-08T22:00:00	5	Humedad	74
184361	7	Sololá	712	San Antonio Palopó	9	San Antonio Palopo	7	Julio	2023-07-22T00:00:00	2024-11-08T22:00:00	6	Velocidad del viento	6.4
184362	7	Sololá	712	San Antonio Palopó	9	San Antonio Palopo	7	Julio	2023-07-22T00:00:00	2024-11-08T22:00:00	7	Dirección del viento	6.44
184363	7	Sololá	712	San Antonio Palopó	9	San Antonio Palopo	7	Julio	2023-07-22T00:00:00	2024-11-08T22:00:00	1	Precipitación	0
184364	7	Sololá	712	San Antonio Palopó	9	San Antonio Palopo	7	Julio	2023-07-22T00:00:00	2024-11-08T22:00:00	8	Radiación solar	0
184365	7	Sololá	712	San Antonio Palopó	9	San Antonio Palopo	7	Julio	2023-07-22T00:00:00	2024-11-08T23:00:00	2	Temperatura media	19.9
184366	7	Sololá	712	San Antonio Palopó	9	San Antonio Palopo	7	Julio	2023-07-22T00:00:00	2024-11-08T23:00:00	4	Temperatura máxima	20.5
184367	7	Sololá	712	San Antonio Palopó	9	San Antonio Palopo	7	Julio	2023-07-22T00:00:00	2024-11-08T23:00:00	3	Temperatura mínima	19.9
184368	7	Sololá	712	San Antonio Palopó	9	San Antonio Palopo	7	Julio	2023-07-22T00:00:00	2024-11-08T23:00:00	5	Humedad	75
184369	7	Sololá	712	San Antonio Palopó	9	San Antonio Palopo	7	Julio	2023-07-22T00:00:00	2024-11-08T23:00:00	6	Velocidad del viento	9.7
184370	7	Sololá	712	San Antonio Palopó	9	San Antonio Palopo	7	Julio	2023-07-22T00:00:00	2024-11-08T23:00:00	7	Dirección del viento	9.66
184371	7	Sololá	712	San Antonio Palopó	9	San Antonio Palopo	7	Julio	2023-07-22T00:00:00	2024-11-08T23:00:00	1	Precipitación	0
184372	7	Sololá	712	San Antonio Palopó	9	San Antonio Palopo	7	Julio	2023-07-22T00:00:00	2024-11-08T23:00:00	8	Radiación solar	0
184373	7	Sololá	712	San Antonio Palopó	9	San Antonio Palopo	7	Julio	2023-07-23T00:00:00	2024-11-08T00:00:00	2	Temperatura media	20.1
184374	7	Sololá	712	San Antonio Palopó	9	San Antonio Palopo	7	Julio	2023-07-23T00:00:00	2024-11-08T00:00:00	4	Temperatura máxima	20.2
184375	7	Sololá	712	San Antonio Palopó	9	San Antonio Palopo	7	Julio	2023-07-23T00:00:00	2024-11-08T00:00:00	3	Temperatura mínima	19.8
184376	7	Sololá	712	San Antonio Palopó	9	San Antonio Palopo	7	Julio	2023-07-23T00:00:00	2024-11-08T00:00:00	5	Humedad	74
184377	7	Sololá	712	San Antonio Palopó	9	San Antonio Palopo	7	Julio	2023-07-23T00:00:00	2024-11-08T00:00:00	6	Velocidad del viento	11.3
184378	7	Sololá	712	San Antonio Palopó	9	San Antonio Palopo	7	Julio	2023-07-23T00:00:00	2024-11-08T00:00:00	7	Dirección del viento	11.27
184379	7	Sololá	712	San Antonio Palopó	9	San Antonio Palopo	7	Julio	2023-07-23T00:00:00	2024-11-08T00:00:00	1	Precipitación	0
184380	7	Sololá	712	San Antonio Palopó	9	San Antonio Palopo	7	Julio	2023-07-23T00:00:00	2024-11-08T00:00:00	8	Radiación solar	0
184381	7	Sololá	712	San Antonio Palopó	9	San Antonio Palopo	7	Julio	2023-07-23T00:00:00	2024-11-08T01:00:00	2	Temperatura media	19.6
184382	7	Sololá	712	San Antonio Palopó	9	San Antonio Palopo	7	Julio	2023-07-23T00:00:00	2024-11-08T01:00:00	4	Temperatura máxima	20.1
184383	7	Sololá	712	San Antonio Palopó	9	San Antonio Palopo	7	Julio	2023-07-23T00:00:00	2024-11-08T01:00:00	3	Temperatura mínima	19.4
184384	7	Sololá	712	San Antonio Palopó	9	San Antonio Palopo	7	Julio	2023-07-23T00:00:00	2024-11-08T01:00:00	5	Humedad	76
184385	7	Sololá	712	San Antonio Palopó	9	San Antonio Palopo	7	Julio	2023-07-23T00:00:00	2024-11-08T01:00:00	6	Velocidad del viento	6.4
184386	7	Sololá	712	San Antonio Palopó	9	San Antonio Palopo	7	Julio	2023-07-23T00:00:00	2024-11-08T01:00:00	7	Dirección del viento	6.44
184387	7	Sololá	712	San Antonio Palopó	9	San Antonio Palopo	7	Julio	2023-07-23T00:00:00	2024-11-08T01:00:00	1	Precipitación	0
184388	7	Sololá	712	San Antonio Palopó	9	San Antonio Palopo	7	Julio	2023-07-23T00:00:00	2024-11-08T01:00:00	8	Radiación solar	0
184389	7	Sololá	712	San Antonio Palopó	9	San Antonio Palopo	7	Julio	2023-07-23T00:00:00	2024-11-08T02:00:00	2	Temperatura media	19.8
184390	7	Sololá	712	San Antonio Palopó	9	San Antonio Palopo	7	Julio	2023-07-23T00:00:00	2024-11-08T02:00:00	4	Temperatura máxima	19.8
184391	7	Sololá	712	San Antonio Palopó	9	San Antonio Palopo	7	Julio	2023-07-23T00:00:00	2024-11-08T02:00:00	3	Temperatura mínima	19.3
184392	7	Sololá	712	San Antonio Palopó	9	San Antonio Palopo	7	Julio	2023-07-23T00:00:00	2024-11-08T02:00:00	5	Humedad	74
184393	7	Sololá	712	San Antonio Palopó	9	San Antonio Palopo	7	Julio	2023-07-23T00:00:00	2024-11-08T02:00:00	6	Velocidad del viento	9.7
184394	7	Sololá	712	San Antonio Palopó	9	San Antonio Palopo	7	Julio	2023-07-23T00:00:00	2024-11-08T02:00:00	7	Dirección del viento	9.66
184395	7	Sololá	712	San Antonio Palopó	9	San Antonio Palopo	7	Julio	2023-07-23T00:00:00	2024-11-08T02:00:00	1	Precipitación	0
184396	7	Sololá	712	San Antonio Palopó	9	San Antonio Palopo	7	Julio	2023-07-23T00:00:00	2024-11-08T02:00:00	8	Radiación solar	0
184397	7	Sololá	712	San Antonio Palopó	9	San Antonio Palopo	7	Julio	2023-07-23T00:00:00	2024-11-08T03:00:00	2	Temperatura media	19.6
184398	7	Sololá	712	San Antonio Palopó	9	San Antonio Palopo	7	Julio	2023-07-23T00:00:00	2024-11-08T03:00:00	4	Temperatura máxima	19.8
184399	7	Sololá	712	San Antonio Palopó	9	San Antonio Palopo	7	Julio	2023-07-23T00:00:00	2024-11-08T03:00:00	3	Temperatura mínima	19.3
184400	7	Sololá	712	San Antonio Palopó	9	San Antonio Palopo	7	Julio	2023-07-23T00:00:00	2024-11-08T03:00:00	5	Humedad	74
184401	7	Sololá	712	San Antonio Palopó	9	San Antonio Palopo	7	Julio	2023-07-23T00:00:00	2024-11-08T03:00:00	6	Velocidad del viento	9.7
184402	7	Sololá	712	San Antonio Palopó	9	San Antonio Palopo	7	Julio	2023-07-23T00:00:00	2024-11-08T03:00:00	7	Dirección del viento	9.66
184403	7	Sololá	712	San Antonio Palopó	9	San Antonio Palopo	7	Julio	2023-07-23T00:00:00	2024-11-08T03:00:00	1	Precipitación	0
184404	7	Sololá	712	San Antonio Palopó	9	San Antonio Palopo	7	Julio	2023-07-23T00:00:00	2024-11-08T03:00:00	8	Radiación solar	0
184405	7	Sololá	712	San Antonio Palopó	9	San Antonio Palopo	7	Julio	2023-07-23T00:00:00	2024-11-08T04:00:00	2	Temperatura media	19.3
184406	7	Sololá	712	San Antonio Palopó	9	San Antonio Palopo	7	Julio	2023-07-23T00:00:00	2024-11-08T04:00:00	4	Temperatura máxima	19.8
184407	7	Sololá	712	San Antonio Palopó	9	San Antonio Palopo	7	Julio	2023-07-23T00:00:00	2024-11-08T04:00:00	3	Temperatura mínima	19.3
184408	7	Sololá	712	San Antonio Palopó	9	San Antonio Palopo	7	Julio	2023-07-23T00:00:00	2024-11-08T04:00:00	5	Humedad	79
184409	7	Sololá	712	San Antonio Palopó	9	San Antonio Palopo	7	Julio	2023-07-23T00:00:00	2024-11-08T04:00:00	6	Velocidad del viento	9.7
184410	7	Sololá	712	San Antonio Palopó	9	San Antonio Palopo	7	Julio	2023-07-23T00:00:00	2024-11-08T04:00:00	7	Dirección del viento	9.66
184411	7	Sololá	712	San Antonio Palopó	9	San Antonio Palopo	7	Julio	2023-07-23T00:00:00	2024-11-08T04:00:00	1	Precipitación	0
184412	7	Sololá	712	San Antonio Palopó	9	San Antonio Palopo	7	Julio	2023-07-23T00:00:00	2024-11-08T04:00:00	8	Radiación solar	0
184413	7	Sololá	712	San Antonio Palopó	9	San Antonio Palopo	7	Julio	2023-07-23T00:00:00	2024-11-08T05:00:00	2	Temperatura media	19.1
184414	7	Sololá	712	San Antonio Palopó	9	San Antonio Palopo	7	Julio	2023-07-23T00:00:00	2024-11-08T05:00:00	4	Temperatura máxima	19.9
184415	7	Sololá	712	San Antonio Palopó	9	San Antonio Palopo	7	Julio	2023-07-23T00:00:00	2024-11-08T05:00:00	3	Temperatura mínima	18.6
184416	7	Sololá	712	San Antonio Palopó	9	San Antonio Palopo	7	Julio	2023-07-23T00:00:00	2024-11-08T05:00:00	5	Humedad	76
184417	7	Sololá	712	San Antonio Palopó	9	San Antonio Palopo	7	Julio	2023-07-23T00:00:00	2024-11-08T05:00:00	6	Velocidad del viento	4.8
184418	7	Sololá	712	San Antonio Palopó	9	San Antonio Palopo	7	Julio	2023-07-23T00:00:00	2024-11-08T05:00:00	7	Dirección del viento	4.83
184419	7	Sololá	712	San Antonio Palopó	9	San Antonio Palopo	7	Julio	2023-07-23T00:00:00	2024-11-08T05:00:00	1	Precipitación	0
184420	7	Sololá	712	San Antonio Palopó	9	San Antonio Palopo	7	Julio	2023-07-23T00:00:00	2024-11-08T05:00:00	8	Radiación solar	0
184421	7	Sololá	712	San Antonio Palopó	9	San Antonio Palopo	7	Julio	2023-07-23T00:00:00	2024-11-08T06:00:00	2	Temperatura media	19.2
184422	7	Sololá	712	San Antonio Palopó	9	San Antonio Palopo	7	Julio	2023-07-23T00:00:00	2024-11-08T06:00:00	4	Temperatura máxima	19.4
184423	7	Sololá	712	San Antonio Palopó	9	San Antonio Palopo	7	Julio	2023-07-23T00:00:00	2024-11-08T06:00:00	3	Temperatura mínima	19.1
184424	7	Sololá	712	San Antonio Palopó	9	San Antonio Palopo	7	Julio	2023-07-23T00:00:00	2024-11-08T06:00:00	5	Humedad	75
184425	7	Sololá	712	San Antonio Palopó	9	San Antonio Palopo	7	Julio	2023-07-23T00:00:00	2024-11-08T06:00:00	6	Velocidad del viento	9.7
184426	7	Sololá	712	San Antonio Palopó	9	San Antonio Palopo	7	Julio	2023-07-23T00:00:00	2024-11-08T06:00:00	7	Dirección del viento	9.66
184427	7	Sololá	712	San Antonio Palopó	9	San Antonio Palopo	7	Julio	2023-07-23T00:00:00	2024-11-08T06:00:00	1	Precipitación	0
184428	7	Sololá	712	San Antonio Palopó	9	San Antonio Palopo	7	Julio	2023-07-23T00:00:00	2024-11-08T06:00:00	8	Radiación solar	1
184429	7	Sololá	712	San Antonio Palopó	9	San Antonio Palopo	7	Julio	2023-07-23T00:00:00	2024-11-08T07:00:00	2	Temperatura media	20.2
184430	7	Sololá	712	San Antonio Palopó	9	San Antonio Palopo	7	Julio	2023-07-23T00:00:00	2024-11-08T07:00:00	4	Temperatura máxima	20.2
184431	7	Sololá	712	San Antonio Palopó	9	San Antonio Palopo	7	Julio	2023-07-23T00:00:00	2024-11-08T07:00:00	3	Temperatura mínima	19.1
184432	7	Sololá	712	San Antonio Palopó	9	San Antonio Palopo	7	Julio	2023-07-23T00:00:00	2024-11-08T07:00:00	5	Humedad	72
184433	7	Sololá	712	San Antonio Palopó	9	San Antonio Palopo	7	Julio	2023-07-23T00:00:00	2024-11-08T07:00:00	6	Velocidad del viento	9.7
184434	7	Sololá	712	San Antonio Palopó	9	San Antonio Palopo	7	Julio	2023-07-23T00:00:00	2024-11-08T07:00:00	7	Dirección del viento	9.66
184435	7	Sololá	712	San Antonio Palopó	9	San Antonio Palopo	7	Julio	2023-07-23T00:00:00	2024-11-08T07:00:00	1	Precipitación	0
184436	7	Sololá	712	San Antonio Palopó	9	San Antonio Palopo	7	Julio	2023-07-23T00:00:00	2024-11-08T07:00:00	8	Radiación solar	39
184437	7	Sololá	712	San Antonio Palopó	9	San Antonio Palopo	7	Julio	2023-07-23T00:00:00	2024-11-08T08:00:00	2	Temperatura media	21.4
184438	7	Sololá	712	San Antonio Palopó	9	San Antonio Palopo	7	Julio	2023-07-23T00:00:00	2024-11-08T08:00:00	4	Temperatura máxima	21.4
184439	7	Sololá	712	San Antonio Palopó	9	San Antonio Palopo	7	Julio	2023-07-23T00:00:00	2024-11-08T08:00:00	3	Temperatura mínima	19.9
184440	7	Sololá	712	San Antonio Palopó	9	San Antonio Palopo	7	Julio	2023-07-23T00:00:00	2024-11-08T08:00:00	5	Humedad	74
184441	7	Sololá	712	San Antonio Palopó	9	San Antonio Palopo	7	Julio	2023-07-23T00:00:00	2024-11-08T08:00:00	6	Velocidad del viento	1.6
184442	7	Sololá	712	San Antonio Palopó	9	San Antonio Palopo	7	Julio	2023-07-23T00:00:00	2024-11-08T08:00:00	7	Dirección del viento	1.61
184443	7	Sololá	712	San Antonio Palopó	9	San Antonio Palopo	7	Julio	2023-07-23T00:00:00	2024-11-08T08:00:00	1	Precipitación	0
184444	7	Sololá	712	San Antonio Palopó	9	San Antonio Palopo	7	Julio	2023-07-23T00:00:00	2024-11-08T08:00:00	8	Radiación solar	189
184445	7	Sololá	712	San Antonio Palopó	9	San Antonio Palopo	7	Julio	2023-07-23T00:00:00	2024-11-08T09:00:00	2	Temperatura media	21.8
184446	7	Sololá	712	San Antonio Palopó	9	San Antonio Palopo	7	Julio	2023-07-23T00:00:00	2024-11-08T09:00:00	4	Temperatura máxima	22
184447	7	Sololá	712	San Antonio Palopó	9	San Antonio Palopo	7	Julio	2023-07-23T00:00:00	2024-11-08T09:00:00	3	Temperatura mínima	21.3
184448	7	Sololá	712	San Antonio Palopó	9	San Antonio Palopo	7	Julio	2023-07-23T00:00:00	2024-11-08T09:00:00	5	Humedad	74
184449	7	Sololá	712	San Antonio Palopó	9	San Antonio Palopo	7	Julio	2023-07-23T00:00:00	2024-11-08T09:00:00	6	Velocidad del viento	3.2
184450	7	Sololá	712	San Antonio Palopó	9	San Antonio Palopo	7	Julio	2023-07-23T00:00:00	2024-11-08T09:00:00	7	Dirección del viento	3.22
184451	7	Sololá	712	San Antonio Palopó	9	San Antonio Palopo	7	Julio	2023-07-23T00:00:00	2024-11-08T09:00:00	1	Precipitación	0
184452	7	Sololá	712	San Antonio Palopó	9	San Antonio Palopo	7	Julio	2023-07-23T00:00:00	2024-11-08T09:00:00	8	Radiación solar	482
184453	7	Sololá	712	San Antonio Palopó	9	San Antonio Palopo	7	Julio	2023-07-23T00:00:00	2024-11-08T10:00:00	2	Temperatura media	22.3
184454	7	Sololá	712	San Antonio Palopó	9	San Antonio Palopo	7	Julio	2023-07-23T00:00:00	2024-11-08T10:00:00	4	Temperatura máxima	22.5
184455	7	Sololá	712	San Antonio Palopó	9	San Antonio Palopo	7	Julio	2023-07-23T00:00:00	2024-11-08T10:00:00	3	Temperatura mínima	21.7
184456	7	Sololá	712	San Antonio Palopó	9	San Antonio Palopo	7	Julio	2023-07-23T00:00:00	2024-11-08T10:00:00	5	Humedad	73
184457	7	Sololá	712	San Antonio Palopó	9	San Antonio Palopo	7	Julio	2023-07-23T00:00:00	2024-11-08T10:00:00	6	Velocidad del viento	3.2
184458	7	Sololá	712	San Antonio Palopó	9	San Antonio Palopo	7	Julio	2023-07-23T00:00:00	2024-11-08T10:00:00	7	Dirección del viento	3.22
184459	7	Sololá	712	San Antonio Palopó	9	San Antonio Palopo	7	Julio	2023-07-23T00:00:00	2024-11-08T10:00:00	1	Precipitación	0
184460	7	Sololá	712	San Antonio Palopó	9	San Antonio Palopo	7	Julio	2023-07-23T00:00:00	2024-11-08T10:00:00	8	Radiación solar	484
184461	7	Sololá	712	San Antonio Palopó	9	San Antonio Palopo	7	Julio	2023-07-23T00:00:00	2024-11-08T11:00:00	2	Temperatura media	23.8
184462	7	Sololá	712	San Antonio Palopó	9	San Antonio Palopo	7	Julio	2023-07-23T00:00:00	2024-11-08T11:00:00	4	Temperatura máxima	23.9
184463	7	Sololá	712	San Antonio Palopó	9	San Antonio Palopo	7	Julio	2023-07-23T00:00:00	2024-11-08T11:00:00	3	Temperatura mínima	22.3
184464	7	Sololá	712	San Antonio Palopó	9	San Antonio Palopo	7	Julio	2023-07-23T00:00:00	2024-11-08T11:00:00	5	Humedad	71
184465	7	Sololá	712	San Antonio Palopó	9	San Antonio Palopo	7	Julio	2023-07-23T00:00:00	2024-11-08T11:00:00	6	Velocidad del viento	3.2
184466	7	Sololá	712	San Antonio Palopó	9	San Antonio Palopo	7	Julio	2023-07-23T00:00:00	2024-11-08T11:00:00	7	Dirección del viento	3.22
184467	7	Sololá	712	San Antonio Palopó	9	San Antonio Palopo	7	Julio	2023-07-23T00:00:00	2024-11-08T11:00:00	1	Precipitación	0
184468	7	Sololá	712	San Antonio Palopó	9	San Antonio Palopo	7	Julio	2023-07-23T00:00:00	2024-11-08T11:00:00	8	Radiación solar	603
184469	7	Sololá	712	San Antonio Palopó	9	San Antonio Palopo	7	Julio	2023-07-23T00:00:00	2024-11-08T12:00:00	2	Temperatura media	24.1
184470	7	Sololá	712	San Antonio Palopó	9	San Antonio Palopo	7	Julio	2023-07-23T00:00:00	2024-11-08T12:00:00	4	Temperatura máxima	24.1
184471	7	Sololá	712	San Antonio Palopó	9	San Antonio Palopo	7	Julio	2023-07-23T00:00:00	2024-11-08T12:00:00	3	Temperatura mínima	23.3
184472	7	Sololá	712	San Antonio Palopó	9	San Antonio Palopo	7	Julio	2023-07-23T00:00:00	2024-11-08T12:00:00	5	Humedad	72
184473	7	Sololá	712	San Antonio Palopó	9	San Antonio Palopo	7	Julio	2023-07-23T00:00:00	2024-11-08T12:00:00	6	Velocidad del viento	3.2
184474	7	Sololá	712	San Antonio Palopó	9	San Antonio Palopo	7	Julio	2023-07-23T00:00:00	2024-11-08T12:00:00	7	Dirección del viento	3.22
184475	7	Sololá	712	San Antonio Palopó	9	San Antonio Palopo	7	Julio	2023-07-23T00:00:00	2024-11-08T12:00:00	1	Precipitación	0
184476	7	Sololá	712	San Antonio Palopó	9	San Antonio Palopo	7	Julio	2023-07-23T00:00:00	2024-11-08T12:00:00	8	Radiación solar	385
184477	7	Sololá	712	San Antonio Palopó	9	San Antonio Palopo	7	Julio	2023-07-23T00:00:00	2024-11-08T13:00:00	2	Temperatura media	23
184478	7	Sololá	712	San Antonio Palopó	9	San Antonio Palopo	7	Julio	2023-07-23T00:00:00	2024-11-08T13:00:00	4	Temperatura máxima	24.1
184479	7	Sololá	712	San Antonio Palopó	9	San Antonio Palopo	7	Julio	2023-07-23T00:00:00	2024-11-08T13:00:00	3	Temperatura mínima	23
184480	7	Sololá	712	San Antonio Palopó	9	San Antonio Palopo	7	Julio	2023-07-23T00:00:00	2024-11-08T13:00:00	5	Humedad	74
184481	7	Sololá	712	San Antonio Palopó	9	San Antonio Palopo	7	Julio	2023-07-23T00:00:00	2024-11-08T13:00:00	6	Velocidad del viento	6.4
184482	7	Sololá	712	San Antonio Palopó	9	San Antonio Palopo	7	Julio	2023-07-23T00:00:00	2024-11-08T13:00:00	7	Dirección del viento	6.44
184483	7	Sololá	712	San Antonio Palopó	9	San Antonio Palopo	7	Julio	2023-07-23T00:00:00	2024-11-08T13:00:00	1	Precipitación	0
184484	7	Sololá	712	San Antonio Palopó	9	San Antonio Palopo	7	Julio	2023-07-23T00:00:00	2024-11-08T13:00:00	8	Radiación solar	363
184485	7	Sololá	712	San Antonio Palopó	9	San Antonio Palopo	7	Julio	2023-07-23T00:00:00	2024-11-08T14:00:00	2	Temperatura media	22.7
184486	7	Sololá	712	San Antonio Palopó	9	San Antonio Palopo	7	Julio	2023-07-23T00:00:00	2024-11-08T14:00:00	4	Temperatura máxima	23
184487	7	Sololá	712	San Antonio Palopó	9	San Antonio Palopo	7	Julio	2023-07-23T00:00:00	2024-11-08T14:00:00	3	Temperatura mínima	22.3
184488	7	Sololá	712	San Antonio Palopó	9	San Antonio Palopo	7	Julio	2023-07-23T00:00:00	2024-11-08T14:00:00	5	Humedad	76
184489	7	Sololá	712	San Antonio Palopó	9	San Antonio Palopo	7	Julio	2023-07-23T00:00:00	2024-11-08T14:00:00	6	Velocidad del viento	6.4
184490	7	Sololá	712	San Antonio Palopó	9	San Antonio Palopo	7	Julio	2023-07-23T00:00:00	2024-11-08T14:00:00	7	Dirección del viento	6.44
184491	7	Sololá	712	San Antonio Palopó	9	San Antonio Palopo	7	Julio	2023-07-23T00:00:00	2024-11-08T14:00:00	1	Precipitación	0
184492	7	Sololá	712	San Antonio Palopó	9	San Antonio Palopo	7	Julio	2023-07-23T00:00:00	2024-11-08T14:00:00	8	Radiación solar	410
184493	7	Sololá	712	San Antonio Palopó	9	San Antonio Palopo	7	Julio	2023-07-23T00:00:00	2024-11-08T15:00:00	2	Temperatura media	21.1
184494	7	Sololá	712	San Antonio Palopó	9	San Antonio Palopo	7	Julio	2023-07-23T00:00:00	2024-11-08T15:00:00	4	Temperatura máxima	22.9
184495	7	Sololá	712	San Antonio Palopó	9	San Antonio Palopo	7	Julio	2023-07-23T00:00:00	2024-11-08T15:00:00	3	Temperatura mínima	21.1
184496	7	Sololá	712	San Antonio Palopó	9	San Antonio Palopo	7	Julio	2023-07-23T00:00:00	2024-11-08T15:00:00	5	Humedad	79
184497	7	Sololá	712	San Antonio Palopó	9	San Antonio Palopo	7	Julio	2023-07-23T00:00:00	2024-11-08T15:00:00	6	Velocidad del viento	9.7
184498	7	Sololá	712	San Antonio Palopó	9	San Antonio Palopo	7	Julio	2023-07-23T00:00:00	2024-11-08T15:00:00	7	Dirección del viento	9.66
184499	7	Sololá	712	San Antonio Palopó	9	San Antonio Palopo	7	Julio	2023-07-23T00:00:00	2024-11-08T15:00:00	1	Precipitación	0
184500	7	Sololá	712	San Antonio Palopó	9	San Antonio Palopo	7	Julio	2023-07-23T00:00:00	2024-11-08T15:00:00	8	Radiación solar	205
184501	7	Sololá	712	San Antonio Palopó	9	San Antonio Palopo	7	Julio	2023-07-23T00:00:00	2024-11-08T16:00:00	2	Temperatura media	21.4
184502	7	Sololá	712	San Antonio Palopó	9	San Antonio Palopo	7	Julio	2023-07-23T00:00:00	2024-11-08T16:00:00	4	Temperatura máxima	21.6
184503	7	Sololá	712	San Antonio Palopó	9	San Antonio Palopo	7	Julio	2023-07-23T00:00:00	2024-11-08T16:00:00	3	Temperatura mínima	21.1
184504	7	Sololá	712	San Antonio Palopó	9	San Antonio Palopo	7	Julio	2023-07-23T00:00:00	2024-11-08T16:00:00	5	Humedad	76
184505	7	Sololá	712	San Antonio Palopó	9	San Antonio Palopo	7	Julio	2023-07-23T00:00:00	2024-11-08T16:00:00	6	Velocidad del viento	8
184506	7	Sololá	712	San Antonio Palopó	9	San Antonio Palopo	7	Julio	2023-07-23T00:00:00	2024-11-08T16:00:00	7	Dirección del viento	8.05
184507	7	Sololá	712	San Antonio Palopó	9	San Antonio Palopo	7	Julio	2023-07-23T00:00:00	2024-11-08T16:00:00	1	Precipitación	0
184508	7	Sololá	712	San Antonio Palopó	9	San Antonio Palopo	7	Julio	2023-07-23T00:00:00	2024-11-08T16:00:00	8	Radiación solar	132
184509	7	Sololá	712	San Antonio Palopó	9	San Antonio Palopo	7	Julio	2023-07-23T00:00:00	2024-11-08T17:00:00	2	Temperatura media	21.1
184510	7	Sololá	712	San Antonio Palopó	9	San Antonio Palopo	7	Julio	2023-07-23T00:00:00	2024-11-08T17:00:00	4	Temperatura máxima	21.4
184511	7	Sololá	712	San Antonio Palopó	9	San Antonio Palopo	7	Julio	2023-07-23T00:00:00	2024-11-08T17:00:00	3	Temperatura mínima	20.6
184512	7	Sololá	712	San Antonio Palopó	9	San Antonio Palopo	7	Julio	2023-07-23T00:00:00	2024-11-08T17:00:00	5	Humedad	75
184513	7	Sololá	712	San Antonio Palopó	9	San Antonio Palopo	7	Julio	2023-07-23T00:00:00	2024-11-08T17:00:00	6	Velocidad del viento	3.2
184514	7	Sololá	712	San Antonio Palopó	9	San Antonio Palopo	7	Julio	2023-07-23T00:00:00	2024-11-08T17:00:00	7	Dirección del viento	3.22
184515	7	Sololá	712	San Antonio Palopó	9	San Antonio Palopo	7	Julio	2023-07-23T00:00:00	2024-11-08T17:00:00	1	Precipitación	0
184516	7	Sololá	712	San Antonio Palopó	9	San Antonio Palopo	7	Julio	2023-07-23T00:00:00	2024-11-08T17:00:00	8	Radiación solar	87
184517	7	Sololá	712	San Antonio Palopó	9	San Antonio Palopo	7	Julio	2023-07-23T00:00:00	2024-11-08T18:00:00	2	Temperatura media	21.4
184518	7	Sololá	712	San Antonio Palopó	9	San Antonio Palopo	7	Julio	2023-07-23T00:00:00	2024-11-08T18:00:00	4	Temperatura máxima	21.7
184519	7	Sololá	712	San Antonio Palopó	9	San Antonio Palopo	7	Julio	2023-07-23T00:00:00	2024-11-08T18:00:00	3	Temperatura mínima	21.1
184520	7	Sololá	712	San Antonio Palopó	9	San Antonio Palopo	7	Julio	2023-07-23T00:00:00	2024-11-08T18:00:00	5	Humedad	75
184521	7	Sololá	712	San Antonio Palopó	9	San Antonio Palopo	7	Julio	2023-07-23T00:00:00	2024-11-08T18:00:00	6	Velocidad del viento	1.6
184522	7	Sololá	712	San Antonio Palopó	9	San Antonio Palopo	7	Julio	2023-07-23T00:00:00	2024-11-08T18:00:00	7	Dirección del viento	1.61
184523	7	Sololá	712	San Antonio Palopó	9	San Antonio Palopo	7	Julio	2023-07-23T00:00:00	2024-11-08T18:00:00	1	Precipitación	0
184524	7	Sololá	712	San Antonio Palopó	9	San Antonio Palopo	7	Julio	2023-07-23T00:00:00	2024-11-08T18:00:00	8	Radiación solar	119
184525	7	Sololá	712	San Antonio Palopó	9	San Antonio Palopo	7	Julio	2023-07-23T00:00:00	2024-11-08T19:00:00	2	Temperatura media	19.8
184526	7	Sololá	712	San Antonio Palopó	9	San Antonio Palopo	7	Julio	2023-07-23T00:00:00	2024-11-08T19:00:00	4	Temperatura máxima	21.5
184527	7	Sololá	712	San Antonio Palopó	9	San Antonio Palopo	7	Julio	2023-07-23T00:00:00	2024-11-08T19:00:00	3	Temperatura mínima	19.7
184528	7	Sololá	712	San Antonio Palopó	9	San Antonio Palopo	7	Julio	2023-07-23T00:00:00	2024-11-08T19:00:00	5	Humedad	76
184529	7	Sololá	712	San Antonio Palopó	9	San Antonio Palopo	7	Julio	2023-07-23T00:00:00	2024-11-08T19:00:00	6	Velocidad del viento	3.2
184530	7	Sololá	712	San Antonio Palopó	9	San Antonio Palopo	7	Julio	2023-07-23T00:00:00	2024-11-08T19:00:00	7	Dirección del viento	3.22
184531	7	Sololá	712	San Antonio Palopó	9	San Antonio Palopo	7	Julio	2023-07-23T00:00:00	2024-11-08T19:00:00	1	Precipitación	0
184532	7	Sololá	712	San Antonio Palopó	9	San Antonio Palopo	7	Julio	2023-07-23T00:00:00	2024-11-08T19:00:00	8	Radiación solar	0
184533	7	Sololá	712	San Antonio Palopó	9	San Antonio Palopo	7	Julio	2023-07-23T00:00:00	2024-11-08T20:00:00	2	Temperatura media	19.6
184534	7	Sololá	712	San Antonio Palopó	9	San Antonio Palopo	7	Julio	2023-07-23T00:00:00	2024-11-08T20:00:00	4	Temperatura máxima	20.1
184535	7	Sololá	712	San Antonio Palopó	9	San Antonio Palopo	7	Julio	2023-07-23T00:00:00	2024-11-08T20:00:00	3	Temperatura mínima	19.2
184536	7	Sololá	712	San Antonio Palopó	9	San Antonio Palopo	7	Julio	2023-07-23T00:00:00	2024-11-08T20:00:00	5	Humedad	79
184537	7	Sololá	712	San Antonio Palopó	9	San Antonio Palopo	7	Julio	2023-07-23T00:00:00	2024-11-08T20:00:00	6	Velocidad del viento	3.2
184538	7	Sololá	712	San Antonio Palopó	9	San Antonio Palopo	7	Julio	2023-07-23T00:00:00	2024-11-08T20:00:00	7	Dirección del viento	3.22
184539	7	Sololá	712	San Antonio Palopó	9	San Antonio Palopo	7	Julio	2023-07-23T00:00:00	2024-11-08T20:00:00	1	Precipitación	0
184540	7	Sololá	712	San Antonio Palopó	9	San Antonio Palopo	7	Julio	2023-07-23T00:00:00	2024-11-08T20:00:00	8	Radiación solar	0
184541	7	Sololá	712	San Antonio Palopó	9	San Antonio Palopo	7	Julio	2023-07-23T00:00:00	2024-11-08T21:00:00	2	Temperatura media	19.1
184542	7	Sololá	712	San Antonio Palopó	9	San Antonio Palopo	7	Julio	2023-07-23T00:00:00	2024-11-08T21:00:00	4	Temperatura máxima	19.7
184543	7	Sololá	712	San Antonio Palopó	9	San Antonio Palopo	7	Julio	2023-07-23T00:00:00	2024-11-08T21:00:00	3	Temperatura mínima	18.9
184544	7	Sololá	712	San Antonio Palopó	9	San Antonio Palopo	7	Julio	2023-07-23T00:00:00	2024-11-08T21:00:00	5	Humedad	81
184545	7	Sololá	712	San Antonio Palopó	9	San Antonio Palopo	7	Julio	2023-07-23T00:00:00	2024-11-08T21:00:00	6	Velocidad del viento	3.2
184546	7	Sololá	712	San Antonio Palopó	9	San Antonio Palopo	7	Julio	2023-07-23T00:00:00	2024-11-08T21:00:00	7	Dirección del viento	3.22
184547	7	Sololá	712	San Antonio Palopó	9	San Antonio Palopo	7	Julio	2023-07-23T00:00:00	2024-11-08T21:00:00	1	Precipitación	0
184548	7	Sololá	712	San Antonio Palopó	9	San Antonio Palopo	7	Julio	2023-07-23T00:00:00	2024-11-08T21:00:00	8	Radiación solar	0
184549	7	Sololá	712	San Antonio Palopó	9	San Antonio Palopo	7	Julio	2023-07-23T00:00:00	2024-11-08T22:00:00	2	Temperatura media	19.3
184550	7	Sololá	712	San Antonio Palopó	9	San Antonio Palopo	7	Julio	2023-07-23T00:00:00	2024-11-08T22:00:00	4	Temperatura máxima	19.4
184551	7	Sololá	712	San Antonio Palopó	9	San Antonio Palopo	7	Julio	2023-07-23T00:00:00	2024-11-08T22:00:00	3	Temperatura mínima	19.1
184552	7	Sololá	712	San Antonio Palopó	9	San Antonio Palopo	7	Julio	2023-07-23T00:00:00	2024-11-08T22:00:00	5	Humedad	81
184553	7	Sololá	712	San Antonio Palopó	9	San Antonio Palopo	7	Julio	2023-07-23T00:00:00	2024-11-08T22:00:00	6	Velocidad del viento	1.6
184554	7	Sololá	712	San Antonio Palopó	9	San Antonio Palopo	7	Julio	2023-07-23T00:00:00	2024-11-08T22:00:00	7	Dirección del viento	1.61
184555	7	Sololá	712	San Antonio Palopó	9	San Antonio Palopo	7	Julio	2023-07-23T00:00:00	2024-11-08T22:00:00	1	Precipitación	0
184556	7	Sololá	712	San Antonio Palopó	9	San Antonio Palopo	7	Julio	2023-07-23T00:00:00	2024-11-08T22:00:00	8	Radiación solar	0
184557	7	Sololá	712	San Antonio Palopó	9	San Antonio Palopo	7	Julio	2023-07-23T00:00:00	2024-11-08T23:00:00	2	Temperatura media	19.2
184558	7	Sololá	712	San Antonio Palopó	9	San Antonio Palopo	7	Julio	2023-07-23T00:00:00	2024-11-08T23:00:00	4	Temperatura máxima	19.6
184559	7	Sololá	712	San Antonio Palopó	9	San Antonio Palopo	7	Julio	2023-07-23T00:00:00	2024-11-08T23:00:00	3	Temperatura mínima	19.2
184560	7	Sololá	712	San Antonio Palopó	9	San Antonio Palopo	7	Julio	2023-07-23T00:00:00	2024-11-08T23:00:00	5	Humedad	81
184561	7	Sololá	712	San Antonio Palopó	9	San Antonio Palopo	7	Julio	2023-07-23T00:00:00	2024-11-08T23:00:00	6	Velocidad del viento	1.6
184562	7	Sololá	712	San Antonio Palopó	9	San Antonio Palopo	7	Julio	2023-07-23T00:00:00	2024-11-08T23:00:00	7	Dirección del viento	1.61
184563	7	Sololá	712	San Antonio Palopó	9	San Antonio Palopo	7	Julio	2023-07-23T00:00:00	2024-11-08T23:00:00	1	Precipitación	0
184564	7	Sololá	712	San Antonio Palopó	9	San Antonio Palopo	7	Julio	2023-07-23T00:00:00	2024-11-08T23:00:00	8	Radiación solar	0
184565	7	Sololá	712	San Antonio Palopó	9	San Antonio Palopo	7	Julio	2023-07-24T00:00:00	2024-11-08T00:00:00	2	Temperatura media	19.6
184566	7	Sololá	712	San Antonio Palopó	9	San Antonio Palopo	7	Julio	2023-07-24T00:00:00	2024-11-08T00:00:00	4	Temperatura máxima	19.6
184567	7	Sololá	712	San Antonio Palopó	9	San Antonio Palopo	7	Julio	2023-07-24T00:00:00	2024-11-08T00:00:00	3	Temperatura mínima	19.2
184568	7	Sololá	712	San Antonio Palopó	9	San Antonio Palopo	7	Julio	2023-07-24T00:00:00	2024-11-08T00:00:00	5	Humedad	80
184569	7	Sololá	712	San Antonio Palopó	9	San Antonio Palopo	7	Julio	2023-07-24T00:00:00	2024-11-08T00:00:00	6	Velocidad del viento	1.6
184570	7	Sololá	712	San Antonio Palopó	9	San Antonio Palopo	7	Julio	2023-07-24T00:00:00	2024-11-08T00:00:00	7	Dirección del viento	1.61
184571	7	Sololá	712	San Antonio Palopó	9	San Antonio Palopo	7	Julio	2023-07-24T00:00:00	2024-11-08T00:00:00	1	Precipitación	0
184572	7	Sololá	712	San Antonio Palopó	9	San Antonio Palopo	7	Julio	2023-07-24T00:00:00	2024-11-08T00:00:00	8	Radiación solar	0
184573	7	Sololá	712	San Antonio Palopó	9	San Antonio Palopo	7	Julio	2023-07-24T00:00:00	2024-11-08T01:00:00	2	Temperatura media	18.7
184574	7	Sololá	712	San Antonio Palopó	9	San Antonio Palopo	7	Julio	2023-07-24T00:00:00	2024-11-08T01:00:00	4	Temperatura máxima	19.7
184575	7	Sololá	712	San Antonio Palopó	9	San Antonio Palopo	7	Julio	2023-07-24T00:00:00	2024-11-08T01:00:00	3	Temperatura mínima	18.7
184576	7	Sololá	712	San Antonio Palopó	9	San Antonio Palopo	7	Julio	2023-07-24T00:00:00	2024-11-08T01:00:00	5	Humedad	86
184577	7	Sololá	712	San Antonio Palopó	9	San Antonio Palopo	7	Julio	2023-07-24T00:00:00	2024-11-08T01:00:00	6	Velocidad del viento	3.2
184578	7	Sololá	712	San Antonio Palopó	9	San Antonio Palopo	7	Julio	2023-07-24T00:00:00	2024-11-08T01:00:00	7	Dirección del viento	3.22
184579	7	Sololá	712	San Antonio Palopó	9	San Antonio Palopo	7	Julio	2023-07-24T00:00:00	2024-11-08T01:00:00	1	Precipitación	0.8
184580	7	Sololá	712	San Antonio Palopó	9	San Antonio Palopo	7	Julio	2023-07-24T00:00:00	2024-11-08T01:00:00	8	Radiación solar	0
184581	7	Sololá	712	San Antonio Palopó	9	San Antonio Palopo	7	Julio	2023-07-24T00:00:00	2024-11-08T02:00:00	2	Temperatura media	18.4
184582	7	Sololá	712	San Antonio Palopó	9	San Antonio Palopo	7	Julio	2023-07-24T00:00:00	2024-11-08T02:00:00	4	Temperatura máxima	18.7
184583	7	Sololá	712	San Antonio Palopó	9	San Antonio Palopo	7	Julio	2023-07-24T00:00:00	2024-11-08T02:00:00	3	Temperatura mínima	18.1
184584	7	Sololá	712	San Antonio Palopó	9	San Antonio Palopo	7	Julio	2023-07-24T00:00:00	2024-11-08T02:00:00	5	Humedad	88
184585	7	Sololá	712	San Antonio Palopó	9	San Antonio Palopo	7	Julio	2023-07-24T00:00:00	2024-11-08T02:00:00	6	Velocidad del viento	1.6
184586	7	Sololá	712	San Antonio Palopó	9	San Antonio Palopo	7	Julio	2023-07-24T00:00:00	2024-11-08T02:00:00	7	Dirección del viento	1.61
184587	7	Sololá	712	San Antonio Palopó	9	San Antonio Palopo	7	Julio	2023-07-24T00:00:00	2024-11-08T02:00:00	1	Precipitación	1
184588	7	Sololá	712	San Antonio Palopó	9	San Antonio Palopo	7	Julio	2023-07-24T00:00:00	2024-11-08T02:00:00	8	Radiación solar	0
184589	7	Sololá	712	San Antonio Palopó	9	San Antonio Palopo	7	Julio	2023-07-24T00:00:00	2024-11-08T03:00:00	2	Temperatura media	18.2
184590	7	Sololá	712	San Antonio Palopó	9	San Antonio Palopo	7	Julio	2023-07-24T00:00:00	2024-11-08T03:00:00	4	Temperatura máxima	18.6
184591	7	Sololá	712	San Antonio Palopó	9	San Antonio Palopo	7	Julio	2023-07-24T00:00:00	2024-11-08T03:00:00	3	Temperatura mínima	17.9
184592	7	Sololá	712	San Antonio Palopó	9	San Antonio Palopo	7	Julio	2023-07-24T00:00:00	2024-11-08T03:00:00	5	Humedad	86
184593	7	Sololá	712	San Antonio Palopó	9	San Antonio Palopo	7	Julio	2023-07-24T00:00:00	2024-11-08T03:00:00	6	Velocidad del viento	3.2
184594	7	Sololá	712	San Antonio Palopó	9	San Antonio Palopo	7	Julio	2023-07-24T00:00:00	2024-11-08T03:00:00	7	Dirección del viento	3.22
184595	7	Sololá	712	San Antonio Palopó	9	San Antonio Palopo	7	Julio	2023-07-24T00:00:00	2024-11-08T03:00:00	1	Precipitación	0
184596	7	Sololá	712	San Antonio Palopó	9	San Antonio Palopo	7	Julio	2023-07-24T00:00:00	2024-11-08T03:00:00	8	Radiación solar	0
184597	7	Sololá	712	San Antonio Palopó	9	San Antonio Palopo	7	Julio	2023-07-24T00:00:00	2024-11-08T04:00:00	2	Temperatura media	18.9
184598	7	Sololá	712	San Antonio Palopó	9	San Antonio Palopo	7	Julio	2023-07-24T00:00:00	2024-11-08T04:00:00	4	Temperatura máxima	18.9
184599	7	Sololá	712	San Antonio Palopó	9	San Antonio Palopo	7	Julio	2023-07-24T00:00:00	2024-11-08T04:00:00	3	Temperatura mínima	18
184600	7	Sololá	712	San Antonio Palopó	9	San Antonio Palopo	7	Julio	2023-07-24T00:00:00	2024-11-08T04:00:00	5	Humedad	82
184601	7	Sololá	712	San Antonio Palopó	9	San Antonio Palopo	7	Julio	2023-07-24T00:00:00	2024-11-08T04:00:00	6	Velocidad del viento	3.2
184602	7	Sololá	712	San Antonio Palopó	9	San Antonio Palopo	7	Julio	2023-07-24T00:00:00	2024-11-08T04:00:00	7	Dirección del viento	3.22
184603	7	Sololá	712	San Antonio Palopó	9	San Antonio Palopo	7	Julio	2023-07-24T00:00:00	2024-11-08T04:00:00	1	Precipitación	0
184604	7	Sololá	712	San Antonio Palopó	9	San Antonio Palopo	7	Julio	2023-07-24T00:00:00	2024-11-08T04:00:00	8	Radiación solar	0
184605	7	Sololá	712	San Antonio Palopó	9	San Antonio Palopo	7	Julio	2023-07-24T00:00:00	2024-11-08T05:00:00	2	Temperatura media	18.9
184606	7	Sololá	712	San Antonio Palopó	9	San Antonio Palopo	7	Julio	2023-07-24T00:00:00	2024-11-08T05:00:00	4	Temperatura máxima	19.6
184607	7	Sololá	712	San Antonio Palopó	9	San Antonio Palopo	7	Julio	2023-07-24T00:00:00	2024-11-08T05:00:00	3	Temperatura mínima	18.8
184608	7	Sololá	712	San Antonio Palopó	9	San Antonio Palopo	7	Julio	2023-07-24T00:00:00	2024-11-08T05:00:00	5	Humedad	81
184609	7	Sololá	712	San Antonio Palopó	9	San Antonio Palopo	7	Julio	2023-07-24T00:00:00	2024-11-08T05:00:00	6	Velocidad del viento	8
184610	7	Sololá	712	San Antonio Palopó	9	San Antonio Palopo	7	Julio	2023-07-24T00:00:00	2024-11-08T05:00:00	7	Dirección del viento	8.05
184611	7	Sololá	712	San Antonio Palopó	9	San Antonio Palopo	7	Julio	2023-07-24T00:00:00	2024-11-08T05:00:00	1	Precipitación	0
184612	7	Sololá	712	San Antonio Palopó	9	San Antonio Palopo	7	Julio	2023-07-24T00:00:00	2024-11-08T05:00:00	8	Radiación solar	0
184613	7	Sololá	712	San Antonio Palopó	9	San Antonio Palopo	7	Julio	2023-07-24T00:00:00	2024-11-08T06:00:00	2	Temperatura media	19
184614	7	Sololá	712	San Antonio Palopó	9	San Antonio Palopo	7	Julio	2023-07-24T00:00:00	2024-11-08T06:00:00	4	Temperatura máxima	19.1
184615	7	Sololá	712	San Antonio Palopó	9	San Antonio Palopo	7	Julio	2023-07-24T00:00:00	2024-11-08T06:00:00	3	Temperatura mínima	18.2
184616	7	Sololá	712	San Antonio Palopó	9	San Antonio Palopo	7	Julio	2023-07-24T00:00:00	2024-11-08T06:00:00	5	Humedad	80
184617	7	Sololá	712	San Antonio Palopó	9	San Antonio Palopo	7	Julio	2023-07-24T00:00:00	2024-11-08T06:00:00	6	Velocidad del viento	3.2
184618	7	Sololá	712	San Antonio Palopó	9	San Antonio Palopo	7	Julio	2023-07-24T00:00:00	2024-11-08T06:00:00	7	Dirección del viento	3.22
184619	7	Sololá	712	San Antonio Palopó	9	San Antonio Palopo	7	Julio	2023-07-24T00:00:00	2024-11-08T06:00:00	1	Precipitación	0
184620	7	Sololá	712	San Antonio Palopó	9	San Antonio Palopo	7	Julio	2023-07-24T00:00:00	2024-11-08T06:00:00	8	Radiación solar	3
184621	7	Sololá	712	San Antonio Palopó	9	San Antonio Palopo	7	Julio	2023-07-24T00:00:00	2024-11-08T07:00:00	2	Temperatura media	19.7
184622	7	Sololá	712	San Antonio Palopó	9	San Antonio Palopo	7	Julio	2023-07-24T00:00:00	2024-11-08T07:00:00	4	Temperatura máxima	19.9
184623	7	Sololá	712	San Antonio Palopó	9	San Antonio Palopo	7	Julio	2023-07-24T00:00:00	2024-11-08T07:00:00	3	Temperatura mínima	18.8
184624	7	Sololá	712	San Antonio Palopó	9	San Antonio Palopo	7	Julio	2023-07-24T00:00:00	2024-11-08T07:00:00	5	Humedad	77
184625	7	Sololá	712	San Antonio Palopó	9	San Antonio Palopo	7	Julio	2023-07-24T00:00:00	2024-11-08T07:00:00	6	Velocidad del viento	3.2
184626	7	Sololá	712	San Antonio Palopó	9	San Antonio Palopo	7	Julio	2023-07-24T00:00:00	2024-11-08T07:00:00	7	Dirección del viento	3.22
184627	7	Sololá	712	San Antonio Palopó	9	San Antonio Palopo	7	Julio	2023-07-24T00:00:00	2024-11-08T07:00:00	1	Precipitación	0
184628	7	Sololá	712	San Antonio Palopó	9	San Antonio Palopo	7	Julio	2023-07-24T00:00:00	2024-11-08T07:00:00	8	Radiación solar	45
184629	7	Sololá	712	San Antonio Palopó	9	San Antonio Palopo	7	Julio	2023-07-24T00:00:00	2024-11-08T08:00:00	2	Temperatura media	20.4
184630	7	Sololá	712	San Antonio Palopó	9	San Antonio Palopo	7	Julio	2023-07-24T00:00:00	2024-11-08T08:00:00	4	Temperatura máxima	20.4
184631	7	Sololá	712	San Antonio Palopó	9	San Antonio Palopo	7	Julio	2023-07-24T00:00:00	2024-11-08T08:00:00	3	Temperatura mínima	19.4
184632	7	Sololá	712	San Antonio Palopó	9	San Antonio Palopo	7	Julio	2023-07-24T00:00:00	2024-11-08T08:00:00	5	Humedad	75
184633	7	Sololá	712	San Antonio Palopó	9	San Antonio Palopo	7	Julio	2023-07-24T00:00:00	2024-11-08T08:00:00	6	Velocidad del viento	3.2
184634	7	Sololá	712	San Antonio Palopó	9	San Antonio Palopo	7	Julio	2023-07-24T00:00:00	2024-11-08T08:00:00	7	Dirección del viento	3.22
184635	7	Sololá	712	San Antonio Palopó	9	San Antonio Palopo	7	Julio	2023-07-24T00:00:00	2024-11-08T08:00:00	1	Precipitación	0
184636	7	Sololá	712	San Antonio Palopó	9	San Antonio Palopo	7	Julio	2023-07-24T00:00:00	2024-11-08T08:00:00	8	Radiación solar	86
184637	7	Sololá	712	San Antonio Palopó	9	San Antonio Palopo	7	Julio	2023-07-24T00:00:00	2024-11-08T09:00:00	2	Temperatura media	23.1
184638	7	Sololá	712	San Antonio Palopó	9	San Antonio Palopo	7	Julio	2023-07-24T00:00:00	2024-11-08T09:00:00	4	Temperatura máxima	23.1
184639	7	Sololá	712	San Antonio Palopó	9	San Antonio Palopo	7	Julio	2023-07-24T00:00:00	2024-11-08T09:00:00	3	Temperatura mínima	20.4
184640	7	Sololá	712	San Antonio Palopó	9	San Antonio Palopo	7	Julio	2023-07-24T00:00:00	2024-11-08T09:00:00	5	Humedad	67
184641	7	Sololá	712	San Antonio Palopó	9	San Antonio Palopo	7	Julio	2023-07-24T00:00:00	2024-11-08T09:00:00	6	Velocidad del viento	3.2
184642	7	Sololá	712	San Antonio Palopó	9	San Antonio Palopo	7	Julio	2023-07-24T00:00:00	2024-11-08T09:00:00	7	Dirección del viento	3.22
184643	7	Sololá	712	San Antonio Palopó	9	San Antonio Palopo	7	Julio	2023-07-24T00:00:00	2024-11-08T09:00:00	1	Precipitación	0
184644	7	Sololá	712	San Antonio Palopó	9	San Antonio Palopo	7	Julio	2023-07-24T00:00:00	2024-11-08T09:00:00	8	Radiación solar	520
184645	7	Sololá	712	San Antonio Palopó	9	San Antonio Palopo	7	Julio	2023-07-24T00:00:00	2024-11-08T10:00:00	2	Temperatura media	24.6
184646	7	Sololá	712	San Antonio Palopó	9	San Antonio Palopo	7	Julio	2023-07-24T00:00:00	2024-11-08T10:00:00	4	Temperatura máxima	24.6
184647	7	Sololá	712	San Antonio Palopó	9	San Antonio Palopo	7	Julio	2023-07-24T00:00:00	2024-11-08T10:00:00	3	Temperatura mínima	22.9
184648	7	Sololá	712	San Antonio Palopó	9	San Antonio Palopo	7	Julio	2023-07-24T00:00:00	2024-11-08T10:00:00	5	Humedad	58
184649	7	Sololá	712	San Antonio Palopó	9	San Antonio Palopo	7	Julio	2023-07-24T00:00:00	2024-11-08T10:00:00	6	Velocidad del viento	6.4
184650	7	Sololá	712	San Antonio Palopó	9	San Antonio Palopo	7	Julio	2023-07-24T00:00:00	2024-11-08T10:00:00	7	Dirección del viento	6.44
184651	7	Sololá	712	San Antonio Palopó	9	San Antonio Palopo	7	Julio	2023-07-24T00:00:00	2024-11-08T10:00:00	1	Precipitación	0
184652	7	Sololá	712	San Antonio Palopó	9	San Antonio Palopo	7	Julio	2023-07-24T00:00:00	2024-11-08T10:00:00	8	Radiación solar	765
184653	7	Sololá	712	San Antonio Palopó	9	San Antonio Palopo	7	Julio	2023-07-24T00:00:00	2024-11-08T11:00:00	2	Temperatura media	23.8
184654	7	Sololá	712	San Antonio Palopó	9	San Antonio Palopo	7	Julio	2023-07-24T00:00:00	2024-11-08T11:00:00	4	Temperatura máxima	24.8
184655	7	Sololá	712	San Antonio Palopó	9	San Antonio Palopo	7	Julio	2023-07-24T00:00:00	2024-11-08T11:00:00	3	Temperatura mínima	23.6
184656	7	Sololá	712	San Antonio Palopó	9	San Antonio Palopo	7	Julio	2023-07-24T00:00:00	2024-11-08T11:00:00	5	Humedad	67
184657	7	Sololá	712	San Antonio Palopó	9	San Antonio Palopo	7	Julio	2023-07-24T00:00:00	2024-11-08T11:00:00	6	Velocidad del viento	11.3
184658	7	Sololá	712	San Antonio Palopó	9	San Antonio Palopo	7	Julio	2023-07-24T00:00:00	2024-11-08T11:00:00	7	Dirección del viento	11.27
184659	7	Sololá	712	San Antonio Palopó	9	San Antonio Palopo	7	Julio	2023-07-24T00:00:00	2024-11-08T11:00:00	1	Precipitación	0
184660	7	Sololá	712	San Antonio Palopó	9	San Antonio Palopo	7	Julio	2023-07-24T00:00:00	2024-11-08T11:00:00	8	Radiación solar	875
184661	7	Sololá	712	San Antonio Palopó	9	San Antonio Palopo	7	Julio	2023-07-24T00:00:00	2024-11-08T12:00:00	2	Temperatura media	25.4
184662	7	Sololá	712	San Antonio Palopó	9	San Antonio Palopo	7	Julio	2023-07-24T00:00:00	2024-11-08T12:00:00	4	Temperatura máxima	25.4
184663	7	Sololá	712	San Antonio Palopó	9	San Antonio Palopo	7	Julio	2023-07-24T00:00:00	2024-11-08T12:00:00	3	Temperatura mínima	23.8
184664	7	Sololá	712	San Antonio Palopó	9	San Antonio Palopo	7	Julio	2023-07-24T00:00:00	2024-11-08T12:00:00	5	Humedad	69
184665	7	Sololá	712	San Antonio Palopó	9	San Antonio Palopo	7	Julio	2023-07-24T00:00:00	2024-11-08T12:00:00	6	Velocidad del viento	8
184666	7	Sololá	712	San Antonio Palopó	9	San Antonio Palopo	7	Julio	2023-07-24T00:00:00	2024-11-08T12:00:00	7	Dirección del viento	8.05
184667	7	Sololá	712	San Antonio Palopó	9	San Antonio Palopo	7	Julio	2023-07-24T00:00:00	2024-11-08T12:00:00	1	Precipitación	0
184668	7	Sololá	712	San Antonio Palopó	9	San Antonio Palopo	7	Julio	2023-07-24T00:00:00	2024-11-08T12:00:00	8	Radiación solar	1004
184669	7	Sololá	712	San Antonio Palopó	9	San Antonio Palopo	7	Julio	2023-07-24T00:00:00	2024-11-08T13:00:00	2	Temperatura media	24.6
184670	7	Sololá	712	San Antonio Palopó	9	San Antonio Palopo	7	Julio	2023-07-24T00:00:00	2024-11-08T13:00:00	4	Temperatura máxima	25.6
184671	7	Sololá	712	San Antonio Palopó	9	San Antonio Palopo	7	Julio	2023-07-24T00:00:00	2024-11-08T13:00:00	3	Temperatura mínima	24.3
184672	7	Sololá	712	San Antonio Palopó	9	San Antonio Palopo	7	Julio	2023-07-24T00:00:00	2024-11-08T13:00:00	5	Humedad	69
184673	7	Sololá	712	San Antonio Palopó	9	San Antonio Palopo	7	Julio	2023-07-24T00:00:00	2024-11-08T13:00:00	6	Velocidad del viento	9.7
184674	7	Sololá	712	San Antonio Palopó	9	San Antonio Palopo	7	Julio	2023-07-24T00:00:00	2024-11-08T13:00:00	7	Dirección del viento	9.66
184675	7	Sololá	712	San Antonio Palopó	9	San Antonio Palopo	7	Julio	2023-07-24T00:00:00	2024-11-08T13:00:00	1	Precipitación	0
184676	7	Sololá	712	San Antonio Palopó	9	San Antonio Palopo	7	Julio	2023-07-24T00:00:00	2024-11-08T13:00:00	8	Radiación solar	618
184677	7	Sololá	712	San Antonio Palopó	9	San Antonio Palopo	7	Julio	2023-07-24T00:00:00	2024-11-08T14:00:00	2	Temperatura media	24.1
184678	7	Sololá	712	San Antonio Palopó	9	San Antonio Palopo	7	Julio	2023-07-24T00:00:00	2024-11-08T14:00:00	4	Temperatura máxima	25.4
184679	7	Sololá	712	San Antonio Palopó	9	San Antonio Palopo	7	Julio	2023-07-24T00:00:00	2024-11-08T14:00:00	3	Temperatura mínima	23.9
184680	7	Sololá	712	San Antonio Palopó	9	San Antonio Palopo	7	Julio	2023-07-24T00:00:00	2024-11-08T14:00:00	5	Humedad	75
184681	7	Sololá	712	San Antonio Palopó	9	San Antonio Palopo	7	Julio	2023-07-24T00:00:00	2024-11-08T14:00:00	6	Velocidad del viento	9.7
184682	7	Sololá	712	San Antonio Palopó	9	San Antonio Palopo	7	Julio	2023-07-24T00:00:00	2024-11-08T14:00:00	7	Dirección del viento	9.66
184683	7	Sololá	712	San Antonio Palopó	9	San Antonio Palopo	7	Julio	2023-07-24T00:00:00	2024-11-08T14:00:00	1	Precipitación	0
184684	7	Sololá	712	San Antonio Palopó	9	San Antonio Palopo	7	Julio	2023-07-24T00:00:00	2024-11-08T14:00:00	8	Radiación solar	603
184685	7	Sololá	712	San Antonio Palopó	9	San Antonio Palopo	7	Julio	2023-07-24T00:00:00	2024-11-08T15:00:00	2	Temperatura media	22.3
184686	7	Sololá	712	San Antonio Palopó	9	San Antonio Palopo	7	Julio	2023-07-24T00:00:00	2024-11-08T15:00:00	4	Temperatura máxima	24.1
184687	7	Sololá	712	San Antonio Palopó	9	San Antonio Palopo	7	Julio	2023-07-24T00:00:00	2024-11-08T15:00:00	3	Temperatura mínima	22.3
184688	7	Sololá	712	San Antonio Palopó	9	San Antonio Palopo	7	Julio	2023-07-24T00:00:00	2024-11-08T15:00:00	5	Humedad	74
184689	7	Sololá	712	San Antonio Palopó	9	San Antonio Palopo	7	Julio	2023-07-24T00:00:00	2024-11-08T15:00:00	6	Velocidad del viento	12.9
184690	7	Sololá	712	San Antonio Palopó	9	San Antonio Palopo	7	Julio	2023-07-24T00:00:00	2024-11-08T15:00:00	7	Dirección del viento	12.87
184691	7	Sololá	712	San Antonio Palopó	9	San Antonio Palopo	7	Julio	2023-07-24T00:00:00	2024-11-08T15:00:00	1	Precipitación	0.4
184692	7	Sololá	712	San Antonio Palopó	9	San Antonio Palopo	7	Julio	2023-07-24T00:00:00	2024-11-08T15:00:00	8	Radiación solar	421
184693	7	Sololá	712	San Antonio Palopó	9	San Antonio Palopo	7	Julio	2023-07-24T00:00:00	2024-11-08T16:00:00	2	Temperatura media	20.2
184694	7	Sololá	712	San Antonio Palopó	9	San Antonio Palopo	7	Julio	2023-07-24T00:00:00	2024-11-08T16:00:00	4	Temperatura máxima	22.3
184695	7	Sololá	712	San Antonio Palopó	9	San Antonio Palopo	7	Julio	2023-07-24T00:00:00	2024-11-08T16:00:00	3	Temperatura mínima	20
184696	7	Sololá	712	San Antonio Palopó	9	San Antonio Palopo	7	Julio	2023-07-24T00:00:00	2024-11-08T16:00:00	5	Humedad	82
184697	7	Sololá	712	San Antonio Palopó	9	San Antonio Palopo	7	Julio	2023-07-24T00:00:00	2024-11-08T16:00:00	6	Velocidad del viento	8
184698	7	Sololá	712	San Antonio Palopó	9	San Antonio Palopo	7	Julio	2023-07-24T00:00:00	2024-11-08T16:00:00	7	Dirección del viento	8.05
184699	7	Sololá	712	San Antonio Palopó	9	San Antonio Palopo	7	Julio	2023-07-24T00:00:00	2024-11-08T16:00:00	1	Precipitación	0.2
184700	7	Sololá	712	San Antonio Palopó	9	San Antonio Palopo	7	Julio	2023-07-24T00:00:00	2024-11-08T16:00:00	8	Radiación solar	192
184701	7	Sololá	712	San Antonio Palopó	9	San Antonio Palopo	7	Julio	2023-07-24T00:00:00	2024-11-08T17:00:00	2	Temperatura media	20.9
184702	7	Sololá	712	San Antonio Palopó	9	San Antonio Palopo	7	Julio	2023-07-24T00:00:00	2024-11-08T17:00:00	4	Temperatura máxima	21.8
184703	7	Sololá	712	San Antonio Palopó	9	San Antonio Palopo	7	Julio	2023-07-24T00:00:00	2024-11-08T17:00:00	3	Temperatura mínima	20.2
184704	7	Sololá	712	San Antonio Palopó	9	San Antonio Palopo	7	Julio	2023-07-24T00:00:00	2024-11-08T17:00:00	5	Humedad	79
184705	7	Sololá	712	San Antonio Palopó	9	San Antonio Palopo	7	Julio	2023-07-24T00:00:00	2024-11-08T17:00:00	6	Velocidad del viento	3.2
184706	7	Sololá	712	San Antonio Palopó	9	San Antonio Palopo	7	Julio	2023-07-24T00:00:00	2024-11-08T17:00:00	7	Dirección del viento	3.22
184707	7	Sololá	712	San Antonio Palopó	9	San Antonio Palopo	7	Julio	2023-07-24T00:00:00	2024-11-08T17:00:00	1	Precipitación	0
184708	7	Sololá	712	San Antonio Palopó	9	San Antonio Palopo	7	Julio	2023-07-24T00:00:00	2024-11-08T17:00:00	8	Radiación solar	305
184709	7	Sololá	712	San Antonio Palopó	9	San Antonio Palopo	7	Julio	2023-07-24T00:00:00	2024-11-08T18:00:00	2	Temperatura media	20.4
184710	7	Sololá	712	San Antonio Palopó	9	San Antonio Palopo	7	Julio	2023-07-24T00:00:00	2024-11-08T18:00:00	4	Temperatura máxima	21.1
184711	7	Sololá	712	San Antonio Palopó	9	San Antonio Palopo	7	Julio	2023-07-24T00:00:00	2024-11-08T18:00:00	3	Temperatura mínima	20.4
184712	7	Sololá	712	San Antonio Palopó	9	San Antonio Palopo	7	Julio	2023-07-24T00:00:00	2024-11-08T18:00:00	5	Humedad	80
184713	7	Sololá	712	San Antonio Palopó	9	San Antonio Palopo	7	Julio	2023-07-24T00:00:00	2024-11-08T18:00:00	6	Velocidad del viento	3.2
184714	7	Sololá	712	San Antonio Palopó	9	San Antonio Palopo	7	Julio	2023-07-24T00:00:00	2024-11-08T18:00:00	7	Dirección del viento	3.22
184715	7	Sololá	712	San Antonio Palopó	9	San Antonio Palopo	7	Julio	2023-07-24T00:00:00	2024-11-08T18:00:00	1	Precipitación	0
184716	7	Sololá	712	San Antonio Palopó	9	San Antonio Palopo	7	Julio	2023-07-24T00:00:00	2024-11-08T18:00:00	8	Radiación solar	41
184717	7	Sololá	712	San Antonio Palopó	9	San Antonio Palopo	7	Julio	2023-07-24T00:00:00	2024-11-08T19:00:00	2	Temperatura media	20.1
184718	7	Sololá	712	San Antonio Palopó	9	San Antonio Palopo	7	Julio	2023-07-24T00:00:00	2024-11-08T19:00:00	4	Temperatura máxima	20.4
184719	7	Sololá	712	San Antonio Palopó	9	San Antonio Palopo	7	Julio	2023-07-24T00:00:00	2024-11-08T19:00:00	3	Temperatura mínima	20
184720	7	Sololá	712	San Antonio Palopó	9	San Antonio Palopo	7	Julio	2023-07-24T00:00:00	2024-11-08T19:00:00	5	Humedad	82
184721	7	Sololá	712	San Antonio Palopó	9	San Antonio Palopo	7	Julio	2023-07-24T00:00:00	2024-11-08T19:00:00	6	Velocidad del viento	3.2
184722	7	Sololá	712	San Antonio Palopó	9	San Antonio Palopo	7	Julio	2023-07-24T00:00:00	2024-11-08T19:00:00	7	Dirección del viento	3.22
184723	7	Sololá	712	San Antonio Palopó	9	San Antonio Palopo	7	Julio	2023-07-24T00:00:00	2024-11-08T19:00:00	1	Precipitación	0
184724	7	Sololá	712	San Antonio Palopó	9	San Antonio Palopo	7	Julio	2023-07-24T00:00:00	2024-11-08T19:00:00	8	Radiación solar	0
184725	7	Sololá	712	San Antonio Palopó	9	San Antonio Palopo	7	Julio	2023-07-24T00:00:00	2024-11-08T20:00:00	2	Temperatura media	19.8
184726	7	Sololá	712	San Antonio Palopó	9	San Antonio Palopo	7	Julio	2023-07-24T00:00:00	2024-11-08T20:00:00	4	Temperatura máxima	20.1
184727	7	Sololá	712	San Antonio Palopó	9	San Antonio Palopo	7	Julio	2023-07-24T00:00:00	2024-11-08T20:00:00	3	Temperatura mínima	19.6
184728	7	Sololá	712	San Antonio Palopó	9	San Antonio Palopo	7	Julio	2023-07-24T00:00:00	2024-11-08T20:00:00	5	Humedad	75
184729	7	Sololá	712	San Antonio Palopó	9	San Antonio Palopo	7	Julio	2023-07-24T00:00:00	2024-11-08T20:00:00	6	Velocidad del viento	4.8
184730	7	Sololá	712	San Antonio Palopó	9	San Antonio Palopo	7	Julio	2023-07-24T00:00:00	2024-11-08T20:00:00	7	Dirección del viento	4.83
184731	7	Sololá	712	San Antonio Palopó	9	San Antonio Palopo	7	Julio	2023-07-24T00:00:00	2024-11-08T20:00:00	1	Precipitación	0.2
184732	7	Sololá	712	San Antonio Palopó	9	San Antonio Palopo	7	Julio	2023-07-24T00:00:00	2024-11-08T20:00:00	8	Radiación solar	0
184733	7	Sololá	712	San Antonio Palopó	9	San Antonio Palopo	7	Julio	2023-07-24T00:00:00	2024-11-08T21:00:00	2	Temperatura media	19.5
184734	7	Sololá	712	San Antonio Palopó	9	San Antonio Palopo	7	Julio	2023-07-24T00:00:00	2024-11-08T21:00:00	4	Temperatura máxima	19.9
184735	7	Sololá	712	San Antonio Palopó	9	San Antonio Palopo	7	Julio	2023-07-24T00:00:00	2024-11-08T21:00:00	3	Temperatura mínima	19.2
184736	7	Sololá	712	San Antonio Palopó	9	San Antonio Palopo	7	Julio	2023-07-24T00:00:00	2024-11-08T21:00:00	5	Humedad	78
184737	7	Sololá	712	San Antonio Palopó	9	San Antonio Palopo	7	Julio	2023-07-24T00:00:00	2024-11-08T21:00:00	6	Velocidad del viento	4.8
184738	7	Sololá	712	San Antonio Palopó	9	San Antonio Palopo	7	Julio	2023-07-24T00:00:00	2024-11-08T21:00:00	7	Dirección del viento	4.83
184739	7	Sololá	712	San Antonio Palopó	9	San Antonio Palopo	7	Julio	2023-07-24T00:00:00	2024-11-08T21:00:00	1	Precipitación	0
184740	7	Sololá	712	San Antonio Palopó	9	San Antonio Palopo	7	Julio	2023-07-24T00:00:00	2024-11-08T21:00:00	8	Radiación solar	0
184741	7	Sololá	712	San Antonio Palopó	9	San Antonio Palopo	7	Julio	2023-07-24T00:00:00	2024-11-08T22:00:00	2	Temperatura media	20.2
184742	7	Sololá	712	San Antonio Palopó	9	San Antonio Palopo	7	Julio	2023-07-24T00:00:00	2024-11-08T22:00:00	4	Temperatura máxima	20.3
184743	7	Sololá	712	San Antonio Palopó	9	San Antonio Palopo	7	Julio	2023-07-24T00:00:00	2024-11-08T22:00:00	3	Temperatura mínima	19.4
184744	7	Sololá	712	San Antonio Palopó	9	San Antonio Palopo	7	Julio	2023-07-24T00:00:00	2024-11-08T22:00:00	5	Humedad	71
184745	7	Sololá	712	San Antonio Palopó	9	San Antonio Palopo	7	Julio	2023-07-24T00:00:00	2024-11-08T22:00:00	6	Velocidad del viento	8
184746	7	Sololá	712	San Antonio Palopó	9	San Antonio Palopo	7	Julio	2023-07-24T00:00:00	2024-11-08T22:00:00	7	Dirección del viento	8.05
184747	7	Sololá	712	San Antonio Palopó	9	San Antonio Palopo	7	Julio	2023-07-24T00:00:00	2024-11-08T22:00:00	1	Precipitación	0
184748	7	Sololá	712	San Antonio Palopó	9	San Antonio Palopo	7	Julio	2023-07-24T00:00:00	2024-11-08T22:00:00	8	Radiación solar	0
184749	7	Sololá	712	San Antonio Palopó	9	San Antonio Palopo	7	Julio	2023-07-24T00:00:00	2024-11-08T23:00:00	2	Temperatura media	20.4
184750	7	Sololá	712	San Antonio Palopó	9	San Antonio Palopo	7	Julio	2023-07-24T00:00:00	2024-11-08T23:00:00	4	Temperatura máxima	20.4
184751	7	Sololá	712	San Antonio Palopó	9	San Antonio Palopo	7	Julio	2023-07-24T00:00:00	2024-11-08T23:00:00	3	Temperatura mínima	20.1
184752	7	Sololá	712	San Antonio Palopó	9	San Antonio Palopo	7	Julio	2023-07-24T00:00:00	2024-11-08T23:00:00	5	Humedad	70
184753	7	Sololá	712	San Antonio Palopó	9	San Antonio Palopo	7	Julio	2023-07-24T00:00:00	2024-11-08T23:00:00	6	Velocidad del viento	11.3
184754	7	Sololá	712	San Antonio Palopó	9	San Antonio Palopo	7	Julio	2023-07-24T00:00:00	2024-11-08T23:00:00	7	Dirección del viento	11.27
184755	7	Sololá	712	San Antonio Palopó	9	San Antonio Palopo	7	Julio	2023-07-24T00:00:00	2024-11-08T23:00:00	1	Precipitación	0
184756	7	Sololá	712	San Antonio Palopó	9	San Antonio Palopo	7	Julio	2023-07-24T00:00:00	2024-11-08T23:00:00	8	Radiación solar	0
184757	7	Sololá	712	San Antonio Palopó	9	San Antonio Palopo	7	Julio	2023-07-25T00:00:00	2024-11-08T00:00:00	2	Temperatura media	20.2
184758	7	Sololá	712	San Antonio Palopó	9	San Antonio Palopo	7	Julio	2023-07-25T00:00:00	2024-11-08T00:00:00	4	Temperatura máxima	20.4
184759	7	Sololá	712	San Antonio Palopó	9	San Antonio Palopo	7	Julio	2023-07-25T00:00:00	2024-11-08T00:00:00	3	Temperatura mínima	20.2
184760	7	Sololá	712	San Antonio Palopó	9	San Antonio Palopo	7	Julio	2023-07-25T00:00:00	2024-11-08T00:00:00	5	Humedad	70
184761	7	Sololá	712	San Antonio Palopó	9	San Antonio Palopo	7	Julio	2023-07-25T00:00:00	2024-11-08T00:00:00	6	Velocidad del viento	9.7
184762	7	Sololá	712	San Antonio Palopó	9	San Antonio Palopo	7	Julio	2023-07-25T00:00:00	2024-11-08T00:00:00	7	Dirección del viento	9.66
184763	7	Sololá	712	San Antonio Palopó	9	San Antonio Palopo	7	Julio	2023-07-25T00:00:00	2024-11-08T00:00:00	1	Precipitación	0
184764	7	Sololá	712	San Antonio Palopó	9	San Antonio Palopo	7	Julio	2023-07-25T00:00:00	2024-11-08T00:00:00	8	Radiación solar	0
184765	7	Sololá	712	San Antonio Palopó	9	San Antonio Palopo	7	Julio	2023-07-25T00:00:00	2024-11-08T01:00:00	2	Temperatura media	20.1
184766	7	Sololá	712	San Antonio Palopó	9	San Antonio Palopo	7	Julio	2023-07-25T00:00:00	2024-11-08T01:00:00	4	Temperatura máxima	20.4
184767	7	Sololá	712	San Antonio Palopó	9	San Antonio Palopo	7	Julio	2023-07-25T00:00:00	2024-11-08T01:00:00	3	Temperatura mínima	20
184768	7	Sololá	712	San Antonio Palopó	9	San Antonio Palopo	7	Julio	2023-07-25T00:00:00	2024-11-08T01:00:00	5	Humedad	69
184769	7	Sololá	712	San Antonio Palopó	9	San Antonio Palopo	7	Julio	2023-07-25T00:00:00	2024-11-08T01:00:00	6	Velocidad del viento	9.7
184770	7	Sololá	712	San Antonio Palopó	9	San Antonio Palopo	7	Julio	2023-07-25T00:00:00	2024-11-08T01:00:00	7	Dirección del viento	9.66
184771	7	Sololá	712	San Antonio Palopó	9	San Antonio Palopo	7	Julio	2023-07-25T00:00:00	2024-11-08T01:00:00	1	Precipitación	0
184772	7	Sololá	712	San Antonio Palopó	9	San Antonio Palopo	7	Julio	2023-07-25T00:00:00	2024-11-08T01:00:00	8	Radiación solar	0
184773	7	Sololá	712	San Antonio Palopó	9	San Antonio Palopo	7	Julio	2023-07-25T00:00:00	2024-11-08T02:00:00	2	Temperatura media	20.1
184774	7	Sololá	712	San Antonio Palopó	9	San Antonio Palopo	7	Julio	2023-07-25T00:00:00	2024-11-08T02:00:00	4	Temperatura máxima	20.7
184775	7	Sololá	712	San Antonio Palopó	9	San Antonio Palopo	7	Julio	2023-07-25T00:00:00	2024-11-08T02:00:00	3	Temperatura mínima	20.1
184776	7	Sololá	712	San Antonio Palopó	9	San Antonio Palopo	7	Julio	2023-07-25T00:00:00	2024-11-08T02:00:00	5	Humedad	67
184777	7	Sololá	712	San Antonio Palopó	9	San Antonio Palopo	7	Julio	2023-07-25T00:00:00	2024-11-08T02:00:00	6	Velocidad del viento	6.4
184778	7	Sololá	712	San Antonio Palopó	9	San Antonio Palopo	7	Julio	2023-07-25T00:00:00	2024-11-08T02:00:00	7	Dirección del viento	6.44
184779	7	Sololá	712	San Antonio Palopó	9	San Antonio Palopo	7	Julio	2023-07-25T00:00:00	2024-11-08T02:00:00	1	Precipitación	0
184780	7	Sololá	712	San Antonio Palopó	9	San Antonio Palopo	7	Julio	2023-07-25T00:00:00	2024-11-08T02:00:00	8	Radiación solar	0
184781	7	Sololá	712	San Antonio Palopó	9	San Antonio Palopo	7	Julio	2023-07-25T00:00:00	2024-11-08T03:00:00	2	Temperatura media	19.9
184782	7	Sololá	712	San Antonio Palopó	9	San Antonio Palopo	7	Julio	2023-07-25T00:00:00	2024-11-08T03:00:00	4	Temperatura máxima	20.2
184783	7	Sololá	712	San Antonio Palopó	9	San Antonio Palopo	7	Julio	2023-07-25T00:00:00	2024-11-08T03:00:00	3	Temperatura mínima	19.8
184784	7	Sololá	712	San Antonio Palopó	9	San Antonio Palopo	7	Julio	2023-07-25T00:00:00	2024-11-08T03:00:00	5	Humedad	67
184785	7	Sololá	712	San Antonio Palopó	9	San Antonio Palopo	7	Julio	2023-07-25T00:00:00	2024-11-08T03:00:00	6	Velocidad del viento	3.2
184786	7	Sololá	712	San Antonio Palopó	9	San Antonio Palopo	7	Julio	2023-07-25T00:00:00	2024-11-08T03:00:00	7	Dirección del viento	3.22
184787	7	Sololá	712	San Antonio Palopó	9	San Antonio Palopo	7	Julio	2023-07-25T00:00:00	2024-11-08T03:00:00	1	Precipitación	0
184788	7	Sololá	712	San Antonio Palopó	9	San Antonio Palopo	7	Julio	2023-07-25T00:00:00	2024-11-08T03:00:00	8	Radiación solar	0
184789	7	Sololá	712	San Antonio Palopó	9	San Antonio Palopo	7	Julio	2023-07-25T00:00:00	2024-11-08T04:00:00	2	Temperatura media	19.8
184790	7	Sololá	712	San Antonio Palopó	9	San Antonio Palopo	7	Julio	2023-07-25T00:00:00	2024-11-08T04:00:00	4	Temperatura máxima	20.6
184791	7	Sololá	712	San Antonio Palopó	9	San Antonio Palopo	7	Julio	2023-07-25T00:00:00	2024-11-08T04:00:00	3	Temperatura mínima	19.8
184792	7	Sololá	712	San Antonio Palopó	9	San Antonio Palopo	7	Julio	2023-07-25T00:00:00	2024-11-08T04:00:00	5	Humedad	68
184793	7	Sololá	712	San Antonio Palopó	9	San Antonio Palopo	7	Julio	2023-07-25T00:00:00	2024-11-08T04:00:00	6	Velocidad del viento	6.4
184794	7	Sololá	712	San Antonio Palopó	9	San Antonio Palopo	7	Julio	2023-07-25T00:00:00	2024-11-08T04:00:00	7	Dirección del viento	6.44
184795	7	Sololá	712	San Antonio Palopó	9	San Antonio Palopo	7	Julio	2023-07-25T00:00:00	2024-11-08T04:00:00	1	Precipitación	0
184796	7	Sololá	712	San Antonio Palopó	9	San Antonio Palopo	7	Julio	2023-07-25T00:00:00	2024-11-08T04:00:00	8	Radiación solar	0
184797	7	Sololá	712	San Antonio Palopó	9	San Antonio Palopo	7	Julio	2023-07-25T00:00:00	2024-11-08T05:00:00	2	Temperatura media	20.1
184798	7	Sololá	712	San Antonio Palopó	9	San Antonio Palopo	7	Julio	2023-07-25T00:00:00	2024-11-08T05:00:00	4	Temperatura máxima	20.2
184799	7	Sololá	712	San Antonio Palopó	9	San Antonio Palopo	7	Julio	2023-07-25T00:00:00	2024-11-08T05:00:00	3	Temperatura mínima	19.3
184800	7	Sololá	712	San Antonio Palopó	9	San Antonio Palopo	7	Julio	2023-07-25T00:00:00	2024-11-08T05:00:00	5	Humedad	67
184801	7	Sololá	712	San Antonio Palopó	9	San Antonio Palopo	7	Julio	2023-07-25T00:00:00	2024-11-08T05:00:00	6	Velocidad del viento	4.8
184802	7	Sololá	712	San Antonio Palopó	9	San Antonio Palopo	7	Julio	2023-07-25T00:00:00	2024-11-08T05:00:00	7	Dirección del viento	4.83
184803	7	Sololá	712	San Antonio Palopó	9	San Antonio Palopo	7	Julio	2023-07-25T00:00:00	2024-11-08T05:00:00	1	Precipitación	0
184804	7	Sololá	712	San Antonio Palopó	9	San Antonio Palopo	7	Julio	2023-07-25T00:00:00	2024-11-08T05:00:00	8	Radiación solar	0
184805	7	Sololá	712	San Antonio Palopó	9	San Antonio Palopo	7	Julio	2023-07-25T00:00:00	2024-11-08T06:00:00	2	Temperatura media	19.8
184806	7	Sololá	712	San Antonio Palopó	9	San Antonio Palopo	7	Julio	2023-07-25T00:00:00	2024-11-08T06:00:00	4	Temperatura máxima	20.1
184807	7	Sololá	712	San Antonio Palopó	9	San Antonio Palopo	7	Julio	2023-07-25T00:00:00	2024-11-08T06:00:00	3	Temperatura mínima	19.3
184808	7	Sololá	712	San Antonio Palopó	9	San Antonio Palopo	7	Julio	2023-07-25T00:00:00	2024-11-08T06:00:00	5	Humedad	67
184809	7	Sololá	712	San Antonio Palopó	9	San Antonio Palopo	7	Julio	2023-07-25T00:00:00	2024-11-08T06:00:00	6	Velocidad del viento	6.4
184810	7	Sololá	712	San Antonio Palopó	9	San Antonio Palopo	7	Julio	2023-07-25T00:00:00	2024-11-08T06:00:00	7	Dirección del viento	6.44
184811	7	Sololá	712	San Antonio Palopó	9	San Antonio Palopo	7	Julio	2023-07-25T00:00:00	2024-11-08T06:00:00	1	Precipitación	0
184812	7	Sololá	712	San Antonio Palopó	9	San Antonio Palopo	7	Julio	2023-07-25T00:00:00	2024-11-08T06:00:00	8	Radiación solar	1
184813	7	Sololá	712	San Antonio Palopó	9	San Antonio Palopo	7	Julio	2023-07-25T00:00:00	2024-11-08T07:00:00	2	Temperatura media	20.1
184814	7	Sololá	712	San Antonio Palopó	9	San Antonio Palopo	7	Julio	2023-07-25T00:00:00	2024-11-08T07:00:00	4	Temperatura máxima	20.3
184815	7	Sololá	712	San Antonio Palopó	9	San Antonio Palopo	7	Julio	2023-07-25T00:00:00	2024-11-08T07:00:00	3	Temperatura mínima	19.8
184816	7	Sololá	712	San Antonio Palopó	9	San Antonio Palopo	7	Julio	2023-07-25T00:00:00	2024-11-08T07:00:00	5	Humedad	69
184817	7	Sololá	712	San Antonio Palopó	9	San Antonio Palopo	7	Julio	2023-07-25T00:00:00	2024-11-08T07:00:00	6	Velocidad del viento	6.4
184818	7	Sololá	712	San Antonio Palopó	9	San Antonio Palopo	7	Julio	2023-07-25T00:00:00	2024-11-08T07:00:00	7	Dirección del viento	6.44
184819	7	Sololá	712	San Antonio Palopó	9	San Antonio Palopo	7	Julio	2023-07-25T00:00:00	2024-11-08T07:00:00	1	Precipitación	0
184820	7	Sololá	712	San Antonio Palopó	9	San Antonio Palopo	7	Julio	2023-07-25T00:00:00	2024-11-08T07:00:00	8	Radiación solar	48
184821	7	Sololá	712	San Antonio Palopó	9	San Antonio Palopo	7	Julio	2023-07-25T00:00:00	2024-11-08T08:00:00	2	Temperatura media	20.5
184822	7	Sololá	712	San Antonio Palopó	9	San Antonio Palopo	7	Julio	2023-07-25T00:00:00	2024-11-08T08:00:00	4	Temperatura máxima	20.5
184823	7	Sololá	712	San Antonio Palopó	9	San Antonio Palopo	7	Julio	2023-07-25T00:00:00	2024-11-08T08:00:00	3	Temperatura mínima	19.8
184824	7	Sololá	712	San Antonio Palopó	9	San Antonio Palopo	7	Julio	2023-07-25T00:00:00	2024-11-08T08:00:00	5	Humedad	70
184825	7	Sololá	712	San Antonio Palopó	9	San Antonio Palopo	7	Julio	2023-07-25T00:00:00	2024-11-08T08:00:00	6	Velocidad del viento	3.2
184826	7	Sololá	712	San Antonio Palopó	9	San Antonio Palopo	7	Julio	2023-07-25T00:00:00	2024-11-08T08:00:00	7	Dirección del viento	3.22
184827	7	Sololá	712	San Antonio Palopó	9	San Antonio Palopo	7	Julio	2023-07-25T00:00:00	2024-11-08T08:00:00	1	Precipitación	0
184828	7	Sololá	712	San Antonio Palopó	9	San Antonio Palopo	7	Julio	2023-07-25T00:00:00	2024-11-08T08:00:00	8	Radiación solar	177
184829	7	Sololá	712	San Antonio Palopó	9	San Antonio Palopo	7	Julio	2023-07-25T00:00:00	2024-11-08T09:00:00	2	Temperatura media	23.2
184830	7	Sololá	712	San Antonio Palopó	9	San Antonio Palopo	7	Julio	2023-07-25T00:00:00	2024-11-08T09:00:00	4	Temperatura máxima	23.2
184831	7	Sololá	712	San Antonio Palopó	9	San Antonio Palopo	7	Julio	2023-07-25T00:00:00	2024-11-08T09:00:00	3	Temperatura mínima	20.6
184832	7	Sololá	712	San Antonio Palopó	9	San Antonio Palopo	7	Julio	2023-07-25T00:00:00	2024-11-08T09:00:00	5	Humedad	60
184833	7	Sololá	712	San Antonio Palopó	9	San Antonio Palopo	7	Julio	2023-07-25T00:00:00	2024-11-08T09:00:00	6	Velocidad del viento	1.6
184834	7	Sololá	712	San Antonio Palopó	9	San Antonio Palopo	7	Julio	2023-07-25T00:00:00	2024-11-08T09:00:00	7	Dirección del viento	1.61
184835	7	Sololá	712	San Antonio Palopó	9	San Antonio Palopo	7	Julio	2023-07-25T00:00:00	2024-11-08T09:00:00	1	Precipitación	0
184836	7	Sololá	712	San Antonio Palopó	9	San Antonio Palopo	7	Julio	2023-07-25T00:00:00	2024-11-08T09:00:00	8	Radiación solar	398
184837	7	Sololá	712	San Antonio Palopó	9	San Antonio Palopo	7	Julio	2023-07-25T00:00:00	2024-11-08T10:00:00	2	Temperatura media	23.3
184838	7	Sololá	712	San Antonio Palopó	9	San Antonio Palopo	7	Julio	2023-07-25T00:00:00	2024-11-08T10:00:00	4	Temperatura máxima	23.4
184839	7	Sololá	712	San Antonio Palopó	9	San Antonio Palopo	7	Julio	2023-07-25T00:00:00	2024-11-08T10:00:00	3	Temperatura mínima	22.7
184840	7	Sololá	712	San Antonio Palopó	9	San Antonio Palopo	7	Julio	2023-07-25T00:00:00	2024-11-08T10:00:00	5	Humedad	61
184841	7	Sololá	712	San Antonio Palopó	9	San Antonio Palopo	7	Julio	2023-07-25T00:00:00	2024-11-08T10:00:00	6	Velocidad del viento	4.8
184842	7	Sololá	712	San Antonio Palopó	9	San Antonio Palopo	7	Julio	2023-07-25T00:00:00	2024-11-08T10:00:00	7	Dirección del viento	4.83
184843	7	Sololá	712	San Antonio Palopó	9	San Antonio Palopo	7	Julio	2023-07-25T00:00:00	2024-11-08T10:00:00	1	Precipitación	0
184844	7	Sololá	712	San Antonio Palopó	9	San Antonio Palopo	7	Julio	2023-07-25T00:00:00	2024-11-08T10:00:00	8	Radiación solar	620
184845	7	Sololá	712	San Antonio Palopó	9	San Antonio Palopo	7	Julio	2023-07-25T00:00:00	2024-11-08T11:00:00	2	Temperatura media	26.3
184846	7	Sololá	712	San Antonio Palopó	9	San Antonio Palopo	7	Julio	2023-07-25T00:00:00	2024-11-08T11:00:00	4	Temperatura máxima	26.3
184847	7	Sololá	712	San Antonio Palopó	9	San Antonio Palopo	7	Julio	2023-07-25T00:00:00	2024-11-08T11:00:00	3	Temperatura mínima	23.3
184848	7	Sololá	712	San Antonio Palopó	9	San Antonio Palopo	7	Julio	2023-07-25T00:00:00	2024-11-08T11:00:00	5	Humedad	44
184849	7	Sololá	712	San Antonio Palopó	9	San Antonio Palopo	7	Julio	2023-07-25T00:00:00	2024-11-08T11:00:00	6	Velocidad del viento	6.4
184850	7	Sololá	712	San Antonio Palopó	9	San Antonio Palopo	7	Julio	2023-07-25T00:00:00	2024-11-08T11:00:00	7	Dirección del viento	6.44
184851	7	Sololá	712	San Antonio Palopó	9	San Antonio Palopo	7	Julio	2023-07-25T00:00:00	2024-11-08T11:00:00	1	Precipitación	0
184852	7	Sololá	712	San Antonio Palopó	9	San Antonio Palopo	7	Julio	2023-07-25T00:00:00	2024-11-08T11:00:00	8	Radiación solar	874
184853	7	Sololá	712	San Antonio Palopó	9	San Antonio Palopo	7	Julio	2023-07-25T00:00:00	2024-11-08T12:00:00	2	Temperatura media	26.9
184854	7	Sololá	712	San Antonio Palopó	9	San Antonio Palopo	7	Julio	2023-07-25T00:00:00	2024-11-08T12:00:00	4	Temperatura máxima	26.9
184855	7	Sololá	712	San Antonio Palopó	9	San Antonio Palopo	7	Julio	2023-07-25T00:00:00	2024-11-08T12:00:00	3	Temperatura mínima	26.3
184856	7	Sololá	712	San Antonio Palopó	9	San Antonio Palopo	7	Julio	2023-07-25T00:00:00	2024-11-08T12:00:00	5	Humedad	45
184857	7	Sololá	712	San Antonio Palopó	9	San Antonio Palopo	7	Julio	2023-07-25T00:00:00	2024-11-08T12:00:00	6	Velocidad del viento	8
184858	7	Sololá	712	San Antonio Palopó	9	San Antonio Palopo	7	Julio	2023-07-25T00:00:00	2024-11-08T12:00:00	7	Dirección del viento	8.05
184859	7	Sololá	712	San Antonio Palopó	9	San Antonio Palopo	7	Julio	2023-07-25T00:00:00	2024-11-08T12:00:00	1	Precipitación	0
184860	7	Sololá	712	San Antonio Palopó	9	San Antonio Palopo	7	Julio	2023-07-25T00:00:00	2024-11-08T12:00:00	8	Radiación solar	909
184861	7	Sololá	712	San Antonio Palopó	9	San Antonio Palopo	7	Julio	2023-07-25T00:00:00	2024-11-08T13:00:00	2	Temperatura media	27.3
184862	7	Sololá	712	San Antonio Palopó	9	San Antonio Palopo	7	Julio	2023-07-25T00:00:00	2024-11-08T13:00:00	4	Temperatura máxima	27.5
184863	7	Sololá	712	San Antonio Palopó	9	San Antonio Palopo	7	Julio	2023-07-25T00:00:00	2024-11-08T13:00:00	3	Temperatura mínima	26.7
184864	7	Sololá	712	San Antonio Palopó	9	San Antonio Palopo	7	Julio	2023-07-25T00:00:00	2024-11-08T13:00:00	5	Humedad	37
184865	7	Sololá	712	San Antonio Palopó	9	San Antonio Palopo	7	Julio	2023-07-25T00:00:00	2024-11-08T13:00:00	6	Velocidad del viento	8
184866	7	Sololá	712	San Antonio Palopó	9	San Antonio Palopo	7	Julio	2023-07-25T00:00:00	2024-11-08T13:00:00	7	Dirección del viento	8.05
184867	7	Sololá	712	San Antonio Palopó	9	San Antonio Palopo	7	Julio	2023-07-25T00:00:00	2024-11-08T13:00:00	1	Precipitación	0
184868	7	Sololá	712	San Antonio Palopó	9	San Antonio Palopo	7	Julio	2023-07-25T00:00:00	2024-11-08T13:00:00	8	Radiación solar	961
184869	7	Sololá	712	San Antonio Palopó	9	San Antonio Palopo	7	Julio	2023-07-25T00:00:00	2024-11-08T14:00:00	2	Temperatura media	27.3
184870	7	Sololá	712	San Antonio Palopó	9	San Antonio Palopo	7	Julio	2023-07-25T00:00:00	2024-11-08T14:00:00	4	Temperatura máxima	27.8
184871	7	Sololá	712	San Antonio Palopó	9	San Antonio Palopo	7	Julio	2023-07-25T00:00:00	2024-11-08T14:00:00	3	Temperatura mínima	27.2
184872	7	Sololá	712	San Antonio Palopó	9	San Antonio Palopo	7	Julio	2023-07-25T00:00:00	2024-11-08T14:00:00	5	Humedad	35
184873	7	Sololá	712	San Antonio Palopó	9	San Antonio Palopo	7	Julio	2023-07-25T00:00:00	2024-11-08T14:00:00	6	Velocidad del viento	11.3
184874	7	Sololá	712	San Antonio Palopó	9	San Antonio Palopo	7	Julio	2023-07-25T00:00:00	2024-11-08T14:00:00	7	Dirección del viento	11.27
184875	7	Sololá	712	San Antonio Palopó	9	San Antonio Palopo	7	Julio	2023-07-25T00:00:00	2024-11-08T14:00:00	1	Precipitación	0
184876	7	Sololá	712	San Antonio Palopó	9	San Antonio Palopo	7	Julio	2023-07-25T00:00:00	2024-11-08T14:00:00	8	Radiación solar	890
184877	7	Sololá	712	San Antonio Palopó	9	San Antonio Palopo	7	Julio	2023-07-25T00:00:00	2024-11-08T15:00:00	2	Temperatura media	27.6
184878	7	Sololá	712	San Antonio Palopó	9	San Antonio Palopo	7	Julio	2023-07-25T00:00:00	2024-11-08T15:00:00	4	Temperatura máxima	28
184879	7	Sololá	712	San Antonio Palopó	9	San Antonio Palopo	7	Julio	2023-07-25T00:00:00	2024-11-08T15:00:00	3	Temperatura mínima	27
184880	7	Sololá	712	San Antonio Palopó	9	San Antonio Palopo	7	Julio	2023-07-25T00:00:00	2024-11-08T15:00:00	5	Humedad	43
184881	7	Sololá	712	San Antonio Palopó	9	San Antonio Palopo	7	Julio	2023-07-25T00:00:00	2024-11-08T15:00:00	6	Velocidad del viento	11.3
184882	7	Sololá	712	San Antonio Palopó	9	San Antonio Palopo	7	Julio	2023-07-25T00:00:00	2024-11-08T15:00:00	7	Dirección del viento	11.27
184883	7	Sololá	712	San Antonio Palopó	9	San Antonio Palopo	7	Julio	2023-07-25T00:00:00	2024-11-08T15:00:00	1	Precipitación	0
184884	7	Sololá	712	San Antonio Palopó	9	San Antonio Palopo	7	Julio	2023-07-25T00:00:00	2024-11-08T15:00:00	8	Radiación solar	791
184885	7	Sololá	712	San Antonio Palopó	9	San Antonio Palopo	7	Julio	2023-07-25T00:00:00	2024-11-08T16:00:00	2	Temperatura media	26.3
184886	7	Sololá	712	San Antonio Palopó	9	San Antonio Palopo	7	Julio	2023-07-25T00:00:00	2024-11-08T16:00:00	4	Temperatura máxima	27.8
184887	7	Sololá	712	San Antonio Palopó	9	San Antonio Palopo	7	Julio	2023-07-25T00:00:00	2024-11-08T16:00:00	3	Temperatura mínima	25.8
184888	7	Sololá	712	San Antonio Palopó	9	San Antonio Palopo	7	Julio	2023-07-25T00:00:00	2024-11-08T16:00:00	5	Humedad	51
184889	7	Sololá	712	San Antonio Palopó	9	San Antonio Palopo	7	Julio	2023-07-25T00:00:00	2024-11-08T16:00:00	6	Velocidad del viento	8
184890	7	Sololá	712	San Antonio Palopó	9	San Antonio Palopo	7	Julio	2023-07-25T00:00:00	2024-11-08T16:00:00	7	Dirección del viento	8.05
184891	7	Sololá	712	San Antonio Palopó	9	San Antonio Palopo	7	Julio	2023-07-25T00:00:00	2024-11-08T16:00:00	1	Precipitación	0
184892	7	Sololá	712	San Antonio Palopó	9	San Antonio Palopo	7	Julio	2023-07-25T00:00:00	2024-11-08T16:00:00	8	Radiación solar	370
184893	7	Sololá	712	San Antonio Palopó	9	San Antonio Palopo	7	Julio	2023-07-25T00:00:00	2024-11-08T17:00:00	2	Temperatura media	25.6
184894	7	Sololá	712	San Antonio Palopó	9	San Antonio Palopo	7	Julio	2023-07-25T00:00:00	2024-11-08T17:00:00	4	Temperatura máxima	26.3
184895	7	Sololá	712	San Antonio Palopó	9	San Antonio Palopo	7	Julio	2023-07-25T00:00:00	2024-11-08T17:00:00	3	Temperatura mínima	25.4
184896	7	Sololá	712	San Antonio Palopó	9	San Antonio Palopo	7	Julio	2023-07-25T00:00:00	2024-11-08T17:00:00	5	Humedad	53
184897	7	Sololá	712	San Antonio Palopó	9	San Antonio Palopo	7	Julio	2023-07-25T00:00:00	2024-11-08T17:00:00	6	Velocidad del viento	6.4
184898	7	Sololá	712	San Antonio Palopó	9	San Antonio Palopo	7	Julio	2023-07-25T00:00:00	2024-11-08T17:00:00	7	Dirección del viento	6.44
184899	7	Sololá	712	San Antonio Palopó	9	San Antonio Palopo	7	Julio	2023-07-25T00:00:00	2024-11-08T17:00:00	1	Precipitación	0
184900	7	Sololá	712	San Antonio Palopó	9	San Antonio Palopo	7	Julio	2023-07-25T00:00:00	2024-11-08T17:00:00	8	Radiación solar	215
184901	7	Sololá	712	San Antonio Palopó	9	San Antonio Palopo	7	Julio	2023-07-25T00:00:00	2024-11-08T18:00:00	2	Temperatura media	25.3
184902	7	Sololá	712	San Antonio Palopó	9	San Antonio Palopo	7	Julio	2023-07-25T00:00:00	2024-11-08T18:00:00	4	Temperatura máxima	26.4
184903	7	Sololá	712	San Antonio Palopó	9	San Antonio Palopo	7	Julio	2023-07-25T00:00:00	2024-11-08T18:00:00	3	Temperatura mínima	25.3
184904	7	Sololá	712	San Antonio Palopó	9	San Antonio Palopo	7	Julio	2023-07-25T00:00:00	2024-11-08T18:00:00	5	Humedad	55
184905	7	Sololá	712	San Antonio Palopó	9	San Antonio Palopo	7	Julio	2023-07-25T00:00:00	2024-11-08T18:00:00	6	Velocidad del viento	6.4
184906	7	Sololá	712	San Antonio Palopó	9	San Antonio Palopo	7	Julio	2023-07-25T00:00:00	2024-11-08T18:00:00	7	Dirección del viento	6.44
184907	7	Sololá	712	San Antonio Palopó	9	San Antonio Palopo	7	Julio	2023-07-25T00:00:00	2024-11-08T18:00:00	1	Precipitación	0
184908	7	Sololá	712	San Antonio Palopó	9	San Antonio Palopo	7	Julio	2023-07-25T00:00:00	2024-11-08T18:00:00	8	Radiación solar	145
184909	7	Sololá	712	San Antonio Palopó	9	San Antonio Palopo	7	Julio	2023-07-25T00:00:00	2024-11-08T19:00:00	2	Temperatura media	22.8
184910	7	Sololá	712	San Antonio Palopó	9	San Antonio Palopo	7	Julio	2023-07-25T00:00:00	2024-11-08T19:00:00	4	Temperatura máxima	25.3
184911	7	Sololá	712	San Antonio Palopó	9	San Antonio Palopo	7	Julio	2023-07-25T00:00:00	2024-11-08T19:00:00	3	Temperatura mínima	22.8
184912	7	Sololá	712	San Antonio Palopó	9	San Antonio Palopo	7	Julio	2023-07-25T00:00:00	2024-11-08T19:00:00	5	Humedad	56
184913	7	Sololá	712	San Antonio Palopó	9	San Antonio Palopo	7	Julio	2023-07-25T00:00:00	2024-11-08T19:00:00	6	Velocidad del viento	4.8
184914	7	Sololá	712	San Antonio Palopó	9	San Antonio Palopo	7	Julio	2023-07-25T00:00:00	2024-11-08T19:00:00	7	Dirección del viento	4.83
184915	7	Sololá	712	San Antonio Palopó	9	San Antonio Palopo	7	Julio	2023-07-25T00:00:00	2024-11-08T19:00:00	1	Precipitación	0
184916	7	Sololá	712	San Antonio Palopó	9	San Antonio Palopo	7	Julio	2023-07-25T00:00:00	2024-11-08T19:00:00	8	Radiación solar	0
184917	7	Sololá	712	San Antonio Palopó	9	San Antonio Palopo	7	Julio	2023-07-25T00:00:00	2024-11-08T20:00:00	2	Temperatura media	21.8
184918	7	Sololá	712	San Antonio Palopó	9	San Antonio Palopo	7	Julio	2023-07-25T00:00:00	2024-11-08T20:00:00	4	Temperatura máxima	22.9
184919	7	Sololá	712	San Antonio Palopó	9	San Antonio Palopo	7	Julio	2023-07-25T00:00:00	2024-11-08T20:00:00	3	Temperatura mínima	21.8
184920	7	Sololá	712	San Antonio Palopó	9	San Antonio Palopo	7	Julio	2023-07-25T00:00:00	2024-11-08T20:00:00	5	Humedad	62
184921	7	Sololá	712	San Antonio Palopó	9	San Antonio Palopo	7	Julio	2023-07-25T00:00:00	2024-11-08T20:00:00	6	Velocidad del viento	3.2
184922	7	Sololá	712	San Antonio Palopó	9	San Antonio Palopo	7	Julio	2023-07-25T00:00:00	2024-11-08T20:00:00	7	Dirección del viento	3.22
184923	7	Sololá	712	San Antonio Palopó	9	San Antonio Palopo	7	Julio	2023-07-25T00:00:00	2024-11-08T20:00:00	1	Precipitación	0
184924	7	Sololá	712	San Antonio Palopó	9	San Antonio Palopo	7	Julio	2023-07-25T00:00:00	2024-11-08T20:00:00	8	Radiación solar	0
184925	7	Sololá	712	San Antonio Palopó	9	San Antonio Palopo	7	Julio	2023-07-25T00:00:00	2024-11-08T21:00:00	2	Temperatura media	20.8
184926	7	Sololá	712	San Antonio Palopó	9	San Antonio Palopo	7	Julio	2023-07-25T00:00:00	2024-11-08T21:00:00	4	Temperatura máxima	21.8
184927	7	Sololá	712	San Antonio Palopó	9	San Antonio Palopo	7	Julio	2023-07-25T00:00:00	2024-11-08T21:00:00	3	Temperatura mínima	20.8
184928	7	Sololá	712	San Antonio Palopó	9	San Antonio Palopo	7	Julio	2023-07-25T00:00:00	2024-11-08T21:00:00	5	Humedad	67
184929	7	Sololá	712	San Antonio Palopó	9	San Antonio Palopo	7	Julio	2023-07-25T00:00:00	2024-11-08T21:00:00	6	Velocidad del viento	3.2
184930	7	Sololá	712	San Antonio Palopó	9	San Antonio Palopo	7	Julio	2023-07-25T00:00:00	2024-11-08T21:00:00	7	Dirección del viento	3.22
184931	7	Sololá	712	San Antonio Palopó	9	San Antonio Palopo	7	Julio	2023-07-25T00:00:00	2024-11-08T21:00:00	1	Precipitación	0
184932	7	Sololá	712	San Antonio Palopó	9	San Antonio Palopo	7	Julio	2023-07-25T00:00:00	2024-11-08T21:00:00	8	Radiación solar	0
184933	7	Sololá	712	San Antonio Palopó	9	San Antonio Palopo	7	Julio	2023-07-25T00:00:00	2024-11-08T22:00:00	2	Temperatura media	20.6
184934	7	Sololá	712	San Antonio Palopó	9	San Antonio Palopo	7	Julio	2023-07-25T00:00:00	2024-11-08T22:00:00	4	Temperatura máxima	20.8
184935	7	Sololá	712	San Antonio Palopó	9	San Antonio Palopo	7	Julio	2023-07-25T00:00:00	2024-11-08T22:00:00	3	Temperatura mínima	20.5
184936	7	Sololá	712	San Antonio Palopó	9	San Antonio Palopo	7	Julio	2023-07-25T00:00:00	2024-11-08T22:00:00	5	Humedad	65
184937	7	Sololá	712	San Antonio Palopó	9	San Antonio Palopo	7	Julio	2023-07-25T00:00:00	2024-11-08T22:00:00	6	Velocidad del viento	4.8
184938	7	Sololá	712	San Antonio Palopó	9	San Antonio Palopo	7	Julio	2023-07-25T00:00:00	2024-11-08T22:00:00	7	Dirección del viento	4.83
184939	7	Sololá	712	San Antonio Palopó	9	San Antonio Palopo	7	Julio	2023-07-25T00:00:00	2024-11-08T22:00:00	1	Precipitación	0
184940	7	Sololá	712	San Antonio Palopó	9	San Antonio Palopo	7	Julio	2023-07-25T00:00:00	2024-11-08T22:00:00	8	Radiación solar	0
184941	7	Sololá	712	San Antonio Palopó	9	San Antonio Palopo	7	Julio	2023-07-25T00:00:00	2024-11-08T23:00:00	2	Temperatura media	20
184942	7	Sololá	712	San Antonio Palopó	9	San Antonio Palopo	7	Julio	2023-07-25T00:00:00	2024-11-08T23:00:00	4	Temperatura máxima	21.1
184943	7	Sololá	712	San Antonio Palopó	9	San Antonio Palopo	7	Julio	2023-07-25T00:00:00	2024-11-08T23:00:00	3	Temperatura mínima	19.9
184944	7	Sololá	712	San Antonio Palopó	9	San Antonio Palopo	7	Julio	2023-07-25T00:00:00	2024-11-08T23:00:00	5	Humedad	65
184945	7	Sololá	712	San Antonio Palopó	9	San Antonio Palopo	7	Julio	2023-07-25T00:00:00	2024-11-08T23:00:00	6	Velocidad del viento	4.8
184946	7	Sololá	712	San Antonio Palopó	9	San Antonio Palopo	7	Julio	2023-07-25T00:00:00	2024-11-08T23:00:00	7	Dirección del viento	4.83
184947	7	Sololá	712	San Antonio Palopó	9	San Antonio Palopo	7	Julio	2023-07-25T00:00:00	2024-11-08T23:00:00	1	Precipitación	0
184948	7	Sololá	712	San Antonio Palopó	9	San Antonio Palopo	7	Julio	2023-07-25T00:00:00	2024-11-08T23:00:00	8	Radiación solar	0
184949	7	Sololá	712	San Antonio Palopó	9	San Antonio Palopo	7	Julio	2023-07-26T00:00:00	2024-11-08T00:00:00	2	Temperatura media	18.6
184950	7	Sololá	712	San Antonio Palopó	9	San Antonio Palopo	7	Julio	2023-07-26T00:00:00	2024-11-08T00:00:00	4	Temperatura máxima	20.1
184951	7	Sololá	712	San Antonio Palopó	9	San Antonio Palopo	7	Julio	2023-07-26T00:00:00	2024-11-08T00:00:00	3	Temperatura mínima	18.6
184952	7	Sololá	712	San Antonio Palopó	9	San Antonio Palopo	7	Julio	2023-07-26T00:00:00	2024-11-08T00:00:00	5	Humedad	66
184953	7	Sololá	712	San Antonio Palopó	9	San Antonio Palopo	7	Julio	2023-07-26T00:00:00	2024-11-08T00:00:00	6	Velocidad del viento	3.2
184954	7	Sololá	712	San Antonio Palopó	9	San Antonio Palopo	7	Julio	2023-07-26T00:00:00	2024-11-08T00:00:00	7	Dirección del viento	3.22
184955	7	Sololá	712	San Antonio Palopó	9	San Antonio Palopo	7	Julio	2023-07-26T00:00:00	2024-11-08T00:00:00	1	Precipitación	0
184956	7	Sololá	712	San Antonio Palopó	9	San Antonio Palopo	7	Julio	2023-07-26T00:00:00	2024-11-08T00:00:00	8	Radiación solar	0
184957	7	Sololá	712	San Antonio Palopó	9	San Antonio Palopo	7	Julio	2023-07-26T00:00:00	2024-11-08T01:00:00	2	Temperatura media	19.2
184958	7	Sololá	712	San Antonio Palopó	9	San Antonio Palopo	7	Julio	2023-07-26T00:00:00	2024-11-08T01:00:00	4	Temperatura máxima	19.6
184959	7	Sololá	712	San Antonio Palopó	9	San Antonio Palopo	7	Julio	2023-07-26T00:00:00	2024-11-08T01:00:00	3	Temperatura mínima	18.6
184960	7	Sololá	712	San Antonio Palopó	9	San Antonio Palopo	7	Julio	2023-07-26T00:00:00	2024-11-08T01:00:00	5	Humedad	57
184961	7	Sololá	712	San Antonio Palopó	9	San Antonio Palopo	7	Julio	2023-07-26T00:00:00	2024-11-08T01:00:00	6	Velocidad del viento	4.8
184962	7	Sololá	712	San Antonio Palopó	9	San Antonio Palopo	7	Julio	2023-07-26T00:00:00	2024-11-08T01:00:00	7	Dirección del viento	4.83
184963	7	Sololá	712	San Antonio Palopó	9	San Antonio Palopo	7	Julio	2023-07-26T00:00:00	2024-11-08T01:00:00	1	Precipitación	0
184964	7	Sololá	712	San Antonio Palopó	9	San Antonio Palopo	7	Julio	2023-07-26T00:00:00	2024-11-08T01:00:00	8	Radiación solar	0
184965	7	Sololá	712	San Antonio Palopó	9	San Antonio Palopo	7	Julio	2023-07-26T00:00:00	2024-11-08T02:00:00	2	Temperatura media	18.8
184966	7	Sololá	712	San Antonio Palopó	9	San Antonio Palopo	7	Julio	2023-07-26T00:00:00	2024-11-08T02:00:00	4	Temperatura máxima	19.3
184967	7	Sololá	712	San Antonio Palopó	9	San Antonio Palopo	7	Julio	2023-07-26T00:00:00	2024-11-08T02:00:00	3	Temperatura mínima	18.8
184968	7	Sololá	712	San Antonio Palopó	9	San Antonio Palopo	7	Julio	2023-07-26T00:00:00	2024-11-08T02:00:00	5	Humedad	57
184969	7	Sololá	712	San Antonio Palopó	9	San Antonio Palopo	7	Julio	2023-07-26T00:00:00	2024-11-08T02:00:00	6	Velocidad del viento	12.9
184970	7	Sololá	712	San Antonio Palopó	9	San Antonio Palopo	7	Julio	2023-07-26T00:00:00	2024-11-08T02:00:00	7	Dirección del viento	12.87
184971	7	Sololá	712	San Antonio Palopó	9	San Antonio Palopo	7	Julio	2023-07-26T00:00:00	2024-11-08T02:00:00	1	Precipitación	0
184972	7	Sololá	712	San Antonio Palopó	9	San Antonio Palopo	7	Julio	2023-07-26T00:00:00	2024-11-08T02:00:00	8	Radiación solar	0
184973	7	Sololá	712	San Antonio Palopó	9	San Antonio Palopo	7	Julio	2023-07-26T00:00:00	2024-11-08T03:00:00	2	Temperatura media	19.1
184974	7	Sololá	712	San Antonio Palopó	9	San Antonio Palopo	7	Julio	2023-07-26T00:00:00	2024-11-08T03:00:00	4	Temperatura máxima	19.3
184975	7	Sololá	712	San Antonio Palopó	9	San Antonio Palopo	7	Julio	2023-07-26T00:00:00	2024-11-08T03:00:00	3	Temperatura mínima	18.8
184976	7	Sololá	712	San Antonio Palopó	9	San Antonio Palopo	7	Julio	2023-07-26T00:00:00	2024-11-08T03:00:00	5	Humedad	58
184977	7	Sololá	712	San Antonio Palopó	9	San Antonio Palopo	7	Julio	2023-07-26T00:00:00	2024-11-08T03:00:00	6	Velocidad del viento	12.9
184978	7	Sololá	712	San Antonio Palopó	9	San Antonio Palopo	7	Julio	2023-07-26T00:00:00	2024-11-08T03:00:00	7	Dirección del viento	12.87
184979	7	Sololá	712	San Antonio Palopó	9	San Antonio Palopo	7	Julio	2023-07-26T00:00:00	2024-11-08T03:00:00	1	Precipitación	0
184980	7	Sololá	712	San Antonio Palopó	9	San Antonio Palopo	7	Julio	2023-07-26T00:00:00	2024-11-08T03:00:00	8	Radiación solar	0
184981	7	Sololá	712	San Antonio Palopó	9	San Antonio Palopo	7	Julio	2023-07-26T00:00:00	2024-11-08T04:00:00	2	Temperatura media	18.2
184982	7	Sololá	712	San Antonio Palopó	9	San Antonio Palopo	7	Julio	2023-07-26T00:00:00	2024-11-08T04:00:00	4	Temperatura máxima	19.1
184983	7	Sololá	712	San Antonio Palopó	9	San Antonio Palopo	7	Julio	2023-07-26T00:00:00	2024-11-08T04:00:00	3	Temperatura mínima	18.2
184984	7	Sololá	712	San Antonio Palopó	9	San Antonio Palopo	7	Julio	2023-07-26T00:00:00	2024-11-08T04:00:00	5	Humedad	60
184985	7	Sololá	712	San Antonio Palopó	9	San Antonio Palopo	7	Julio	2023-07-26T00:00:00	2024-11-08T04:00:00	6	Velocidad del viento	9.7
184986	7	Sololá	712	San Antonio Palopó	9	San Antonio Palopo	7	Julio	2023-07-26T00:00:00	2024-11-08T04:00:00	7	Dirección del viento	9.66
184987	7	Sololá	712	San Antonio Palopó	9	San Antonio Palopo	7	Julio	2023-07-26T00:00:00	2024-11-08T04:00:00	1	Precipitación	0
184988	7	Sololá	712	San Antonio Palopó	9	San Antonio Palopo	7	Julio	2023-07-26T00:00:00	2024-11-08T04:00:00	8	Radiación solar	0
184989	7	Sololá	712	San Antonio Palopó	9	San Antonio Palopo	7	Julio	2023-07-26T00:00:00	2024-11-08T05:00:00	2	Temperatura media	18.7
184990	7	Sololá	712	San Antonio Palopó	9	San Antonio Palopo	7	Julio	2023-07-26T00:00:00	2024-11-08T05:00:00	4	Temperatura máxima	18.7
184991	7	Sololá	712	San Antonio Palopó	9	San Antonio Palopo	7	Julio	2023-07-26T00:00:00	2024-11-08T05:00:00	3	Temperatura mínima	18.1
184992	7	Sololá	712	San Antonio Palopó	9	San Antonio Palopo	7	Julio	2023-07-26T00:00:00	2024-11-08T05:00:00	5	Humedad	57
184993	7	Sololá	712	San Antonio Palopó	9	San Antonio Palopo	7	Julio	2023-07-26T00:00:00	2024-11-08T05:00:00	6	Velocidad del viento	8
184994	7	Sololá	712	San Antonio Palopó	9	San Antonio Palopo	7	Julio	2023-07-26T00:00:00	2024-11-08T05:00:00	7	Dirección del viento	8.05
184995	7	Sololá	712	San Antonio Palopó	9	San Antonio Palopo	7	Julio	2023-07-26T00:00:00	2024-11-08T05:00:00	1	Precipitación	0
184996	7	Sololá	712	San Antonio Palopó	9	San Antonio Palopo	7	Julio	2023-07-26T00:00:00	2024-11-08T05:00:00	8	Radiación solar	0
184997	7	Sololá	712	San Antonio Palopó	9	San Antonio Palopo	7	Julio	2023-07-26T00:00:00	2024-11-08T06:00:00	2	Temperatura media	18.8
184998	7	Sololá	712	San Antonio Palopó	9	San Antonio Palopo	7	Julio	2023-07-26T00:00:00	2024-11-08T06:00:00	4	Temperatura máxima	19.1
184999	7	Sololá	712	San Antonio Palopó	9	San Antonio Palopo	7	Julio	2023-07-26T00:00:00	2024-11-08T06:00:00	3	Temperatura mínima	18.7
185000	7	Sololá	712	San Antonio Palopó	9	San Antonio Palopo	7	Julio	2023-07-26T00:00:00	2024-11-08T06:00:00	5	Humedad	58
185001	7	Sololá	712	San Antonio Palopó	9	San Antonio Palopo	7	Julio	2023-07-26T00:00:00	2024-11-08T06:00:00	6	Velocidad del viento	11.3
185002	7	Sololá	712	San Antonio Palopó	9	San Antonio Palopo	7	Julio	2023-07-26T00:00:00	2024-11-08T06:00:00	7	Dirección del viento	11.27
185003	7	Sololá	712	San Antonio Palopó	9	San Antonio Palopo	7	Julio	2023-07-26T00:00:00	2024-11-08T06:00:00	1	Precipitación	0
185004	7	Sololá	712	San Antonio Palopó	9	San Antonio Palopo	7	Julio	2023-07-26T00:00:00	2024-11-08T06:00:00	8	Radiación solar	1
185005	7	Sololá	712	San Antonio Palopó	9	San Antonio Palopo	7	Julio	2023-07-26T00:00:00	2024-11-08T07:00:00	2	Temperatura media	19.1
185006	7	Sololá	712	San Antonio Palopó	9	San Antonio Palopo	7	Julio	2023-07-26T00:00:00	2024-11-08T07:00:00	4	Temperatura máxima	19.2
185007	7	Sololá	712	San Antonio Palopó	9	San Antonio Palopo	7	Julio	2023-07-26T00:00:00	2024-11-08T07:00:00	3	Temperatura mínima	18.7
185008	7	Sololá	712	San Antonio Palopó	9	San Antonio Palopo	7	Julio	2023-07-26T00:00:00	2024-11-08T07:00:00	5	Humedad	58
185009	7	Sololá	712	San Antonio Palopó	9	San Antonio Palopo	7	Julio	2023-07-26T00:00:00	2024-11-08T07:00:00	6	Velocidad del viento	6.4
185010	7	Sololá	712	San Antonio Palopó	9	San Antonio Palopo	7	Julio	2023-07-26T00:00:00	2024-11-08T07:00:00	7	Dirección del viento	6.44
185011	7	Sololá	712	San Antonio Palopó	9	San Antonio Palopo	7	Julio	2023-07-26T00:00:00	2024-11-08T07:00:00	1	Precipitación	0
185012	7	Sololá	712	San Antonio Palopó	9	San Antonio Palopo	7	Julio	2023-07-26T00:00:00	2024-11-08T07:00:00	8	Radiación solar	19
185013	7	Sololá	712	San Antonio Palopó	9	San Antonio Palopo	7	Julio	2023-07-26T00:00:00	2024-11-08T08:00:00	2	Temperatura media	20.8
185014	7	Sololá	712	San Antonio Palopó	9	San Antonio Palopo	7	Julio	2023-07-26T00:00:00	2024-11-08T08:00:00	4	Temperatura máxima	20.8
185015	7	Sololá	712	San Antonio Palopó	9	San Antonio Palopo	7	Julio	2023-07-26T00:00:00	2024-11-08T08:00:00	3	Temperatura mínima	18.7
185016	7	Sololá	712	San Antonio Palopó	9	San Antonio Palopo	7	Julio	2023-07-26T00:00:00	2024-11-08T08:00:00	5	Humedad	59
185017	7	Sololá	712	San Antonio Palopó	9	San Antonio Palopo	7	Julio	2023-07-26T00:00:00	2024-11-08T08:00:00	6	Velocidad del viento	3.2
185018	7	Sololá	712	San Antonio Palopó	9	San Antonio Palopo	7	Julio	2023-07-26T00:00:00	2024-11-08T08:00:00	7	Dirección del viento	3.22
185019	7	Sololá	712	San Antonio Palopó	9	San Antonio Palopo	7	Julio	2023-07-26T00:00:00	2024-11-08T08:00:00	1	Precipitación	0
185020	7	Sololá	712	San Antonio Palopó	9	San Antonio Palopo	7	Julio	2023-07-26T00:00:00	2024-11-08T08:00:00	8	Radiación solar	158
185021	7	Sololá	712	San Antonio Palopó	9	San Antonio Palopo	7	Julio	2023-07-26T00:00:00	2024-11-08T09:00:00	2	Temperatura media	22.6
185022	7	Sololá	712	San Antonio Palopó	9	San Antonio Palopo	7	Julio	2023-07-26T00:00:00	2024-11-08T09:00:00	4	Temperatura máxima	22.6
185023	7	Sololá	712	San Antonio Palopó	9	San Antonio Palopo	7	Julio	2023-07-26T00:00:00	2024-11-08T09:00:00	3	Temperatura mínima	20.8
185024	7	Sololá	712	San Antonio Palopó	9	San Antonio Palopo	7	Julio	2023-07-26T00:00:00	2024-11-08T09:00:00	5	Humedad	52
185025	7	Sololá	712	San Antonio Palopó	9	San Antonio Palopo	7	Julio	2023-07-26T00:00:00	2024-11-08T09:00:00	6	Velocidad del viento	3.2
185026	7	Sololá	712	San Antonio Palopó	9	San Antonio Palopo	7	Julio	2023-07-26T00:00:00	2024-11-08T09:00:00	7	Dirección del viento	3.22
185027	7	Sololá	712	San Antonio Palopó	9	San Antonio Palopo	7	Julio	2023-07-26T00:00:00	2024-11-08T09:00:00	1	Precipitación	0
185028	7	Sololá	712	San Antonio Palopó	9	San Antonio Palopo	7	Julio	2023-07-26T00:00:00	2024-11-08T09:00:00	8	Radiación solar	537
185029	7	Sololá	712	San Antonio Palopó	9	San Antonio Palopo	7	Julio	2023-07-26T00:00:00	2024-11-08T10:00:00	2	Temperatura media	23.9
185030	7	Sololá	712	San Antonio Palopó	9	San Antonio Palopo	7	Julio	2023-07-26T00:00:00	2024-11-08T10:00:00	4	Temperatura máxima	23.9
185031	7	Sololá	712	San Antonio Palopó	9	San Antonio Palopo	7	Julio	2023-07-26T00:00:00	2024-11-08T10:00:00	3	Temperatura mínima	22.2
185032	7	Sololá	712	San Antonio Palopó	9	San Antonio Palopo	7	Julio	2023-07-26T00:00:00	2024-11-08T10:00:00	5	Humedad	50
185033	7	Sololá	712	San Antonio Palopó	9	San Antonio Palopo	7	Julio	2023-07-26T00:00:00	2024-11-08T10:00:00	6	Velocidad del viento	6.4
185034	7	Sololá	712	San Antonio Palopó	9	San Antonio Palopo	7	Julio	2023-07-26T00:00:00	2024-11-08T10:00:00	7	Dirección del viento	6.44
185035	7	Sololá	712	San Antonio Palopó	9	San Antonio Palopo	7	Julio	2023-07-26T00:00:00	2024-11-08T10:00:00	1	Precipitación	0
185036	7	Sololá	712	San Antonio Palopó	9	San Antonio Palopo	7	Julio	2023-07-26T00:00:00	2024-11-08T10:00:00	8	Radiación solar	734
185037	7	Sololá	712	San Antonio Palopó	9	San Antonio Palopo	7	Julio	2023-07-26T00:00:00	2024-11-08T11:00:00	2	Temperatura media	25.7
185038	7	Sololá	712	San Antonio Palopó	9	San Antonio Palopo	7	Julio	2023-07-26T00:00:00	2024-11-08T11:00:00	4	Temperatura máxima	25.7
185039	7	Sololá	712	San Antonio Palopó	9	San Antonio Palopo	7	Julio	2023-07-26T00:00:00	2024-11-08T11:00:00	3	Temperatura mínima	23.9
185040	7	Sololá	712	San Antonio Palopó	9	San Antonio Palopo	7	Julio	2023-07-26T00:00:00	2024-11-08T11:00:00	5	Humedad	48
185041	7	Sololá	712	San Antonio Palopó	9	San Antonio Palopo	7	Julio	2023-07-26T00:00:00	2024-11-08T11:00:00	6	Velocidad del viento	4.8
185042	7	Sololá	712	San Antonio Palopó	9	San Antonio Palopo	7	Julio	2023-07-26T00:00:00	2024-11-08T11:00:00	7	Dirección del viento	4.83
185043	7	Sololá	712	San Antonio Palopó	9	San Antonio Palopo	7	Julio	2023-07-26T00:00:00	2024-11-08T11:00:00	1	Precipitación	0
185044	7	Sololá	712	San Antonio Palopó	9	San Antonio Palopo	7	Julio	2023-07-26T00:00:00	2024-11-08T11:00:00	8	Radiación solar	868
185045	7	Sololá	712	San Antonio Palopó	9	San Antonio Palopo	7	Julio	2023-07-26T00:00:00	2024-11-08T12:00:00	2	Temperatura media	25.8
185046	7	Sololá	712	San Antonio Palopó	9	San Antonio Palopo	7	Julio	2023-07-26T00:00:00	2024-11-08T12:00:00	4	Temperatura máxima	26.4
185047	7	Sololá	712	San Antonio Palopó	9	San Antonio Palopo	7	Julio	2023-07-26T00:00:00	2024-11-08T12:00:00	3	Temperatura mínima	25.2
185048	7	Sololá	712	San Antonio Palopó	9	San Antonio Palopo	7	Julio	2023-07-26T00:00:00	2024-11-08T12:00:00	5	Humedad	49
185049	7	Sololá	712	San Antonio Palopó	9	San Antonio Palopo	7	Julio	2023-07-26T00:00:00	2024-11-08T12:00:00	6	Velocidad del viento	6.4
185050	7	Sololá	712	San Antonio Palopó	9	San Antonio Palopo	7	Julio	2023-07-26T00:00:00	2024-11-08T12:00:00	7	Dirección del viento	6.44
185051	7	Sololá	712	San Antonio Palopó	9	San Antonio Palopo	7	Julio	2023-07-26T00:00:00	2024-11-08T12:00:00	1	Precipitación	0
185052	7	Sololá	712	San Antonio Palopó	9	San Antonio Palopo	7	Julio	2023-07-26T00:00:00	2024-11-08T12:00:00	8	Radiación solar	953
185053	7	Sololá	712	San Antonio Palopó	9	San Antonio Palopo	7	Julio	2023-07-26T00:00:00	2024-11-08T13:00:00	2	Temperatura media	26
185054	7	Sololá	712	San Antonio Palopó	9	San Antonio Palopo	7	Julio	2023-07-26T00:00:00	2024-11-08T13:00:00	4	Temperatura máxima	26.2
185055	7	Sololá	712	San Antonio Palopó	9	San Antonio Palopo	7	Julio	2023-07-26T00:00:00	2024-11-08T13:00:00	3	Temperatura mínima	25.6
185056	7	Sololá	712	San Antonio Palopó	9	San Antonio Palopo	7	Julio	2023-07-26T00:00:00	2024-11-08T13:00:00	5	Humedad	48
185057	7	Sololá	712	San Antonio Palopó	9	San Antonio Palopo	7	Julio	2023-07-26T00:00:00	2024-11-08T13:00:00	6	Velocidad del viento	12.9
185058	7	Sololá	712	San Antonio Palopó	9	San Antonio Palopo	7	Julio	2023-07-26T00:00:00	2024-11-08T13:00:00	7	Dirección del viento	12.87
185059	7	Sololá	712	San Antonio Palopó	9	San Antonio Palopo	7	Julio	2023-07-26T00:00:00	2024-11-08T13:00:00	1	Precipitación	0
185060	7	Sololá	712	San Antonio Palopó	9	San Antonio Palopo	7	Julio	2023-07-26T00:00:00	2024-11-08T13:00:00	8	Radiación solar	995
185061	7	Sololá	712	San Antonio Palopó	9	San Antonio Palopo	7	Julio	2023-07-26T00:00:00	2024-11-08T14:00:00	2	Temperatura media	26.2
185062	7	Sololá	712	San Antonio Palopó	9	San Antonio Palopo	7	Julio	2023-07-26T00:00:00	2024-11-08T14:00:00	4	Temperatura máxima	26.7
185063	7	Sololá	712	San Antonio Palopó	9	San Antonio Palopo	7	Julio	2023-07-26T00:00:00	2024-11-08T14:00:00	3	Temperatura mínima	25.9
185064	7	Sololá	712	San Antonio Palopó	9	San Antonio Palopo	7	Julio	2023-07-26T00:00:00	2024-11-08T14:00:00	5	Humedad	50
185065	7	Sololá	712	San Antonio Palopó	9	San Antonio Palopo	7	Julio	2023-07-26T00:00:00	2024-11-08T14:00:00	6	Velocidad del viento	11.3
185066	7	Sololá	712	San Antonio Palopó	9	San Antonio Palopo	7	Julio	2023-07-26T00:00:00	2024-11-08T14:00:00	7	Dirección del viento	11.27
185067	7	Sololá	712	San Antonio Palopó	9	San Antonio Palopo	7	Julio	2023-07-26T00:00:00	2024-11-08T14:00:00	1	Precipitación	0
185068	7	Sololá	712	San Antonio Palopó	9	San Antonio Palopo	7	Julio	2023-07-26T00:00:00	2024-11-08T14:00:00	8	Radiación solar	398
185069	7	Sololá	712	San Antonio Palopó	9	San Antonio Palopo	7	Julio	2023-07-26T00:00:00	2024-11-08T15:00:00	2	Temperatura media	26.2
185070	7	Sololá	712	San Antonio Palopó	9	San Antonio Palopo	7	Julio	2023-07-26T00:00:00	2024-11-08T15:00:00	4	Temperatura máxima	26.6
185071	7	Sololá	712	San Antonio Palopó	9	San Antonio Palopo	7	Julio	2023-07-26T00:00:00	2024-11-08T15:00:00	3	Temperatura mínima	26
185072	7	Sololá	712	San Antonio Palopó	9	San Antonio Palopo	7	Julio	2023-07-26T00:00:00	2024-11-08T15:00:00	5	Humedad	50
185073	7	Sololá	712	San Antonio Palopó	9	San Antonio Palopo	7	Julio	2023-07-26T00:00:00	2024-11-08T15:00:00	6	Velocidad del viento	8
185074	7	Sololá	712	San Antonio Palopó	9	San Antonio Palopo	7	Julio	2023-07-26T00:00:00	2024-11-08T15:00:00	7	Dirección del viento	8.05
185075	7	Sololá	712	San Antonio Palopó	9	San Antonio Palopo	7	Julio	2023-07-26T00:00:00	2024-11-08T15:00:00	1	Precipitación	0
185076	7	Sololá	712	San Antonio Palopó	9	San Antonio Palopo	7	Julio	2023-07-26T00:00:00	2024-11-08T15:00:00	8	Radiación solar	429
185077	7	Sololá	712	San Antonio Palopó	9	San Antonio Palopo	7	Julio	2023-07-26T00:00:00	2024-11-08T16:00:00	2	Temperatura media	25.9
185078	7	Sololá	712	San Antonio Palopó	9	San Antonio Palopo	7	Julio	2023-07-26T00:00:00	2024-11-08T16:00:00	4	Temperatura máxima	26.6
185079	7	Sololá	712	San Antonio Palopó	9	San Antonio Palopo	7	Julio	2023-07-26T00:00:00	2024-11-08T16:00:00	3	Temperatura mínima	25.4
185080	7	Sololá	712	San Antonio Palopó	9	San Antonio Palopo	7	Julio	2023-07-26T00:00:00	2024-11-08T16:00:00	5	Humedad	50
185081	7	Sololá	712	San Antonio Palopó	9	San Antonio Palopo	7	Julio	2023-07-26T00:00:00	2024-11-08T16:00:00	6	Velocidad del viento	9.7
185082	7	Sololá	712	San Antonio Palopó	9	San Antonio Palopo	7	Julio	2023-07-26T00:00:00	2024-11-08T16:00:00	7	Dirección del viento	9.66
185083	7	Sololá	712	San Antonio Palopó	9	San Antonio Palopo	7	Julio	2023-07-26T00:00:00	2024-11-08T16:00:00	1	Precipitación	0
185084	7	Sololá	712	San Antonio Palopó	9	San Antonio Palopo	7	Julio	2023-07-26T00:00:00	2024-11-08T16:00:00	8	Radiación solar	242
185085	7	Sololá	712	San Antonio Palopó	9	San Antonio Palopo	7	Julio	2023-07-26T00:00:00	2024-11-08T17:00:00	2	Temperatura media	25
185086	7	Sololá	712	San Antonio Palopó	9	San Antonio Palopo	7	Julio	2023-07-26T00:00:00	2024-11-08T17:00:00	4	Temperatura máxima	26
185087	7	Sololá	712	San Antonio Palopó	9	San Antonio Palopo	7	Julio	2023-07-26T00:00:00	2024-11-08T17:00:00	3	Temperatura mínima	24.8
185088	7	Sololá	712	San Antonio Palopó	9	San Antonio Palopo	7	Julio	2023-07-26T00:00:00	2024-11-08T17:00:00	5	Humedad	51
185089	7	Sololá	712	San Antonio Palopó	9	San Antonio Palopo	7	Julio	2023-07-26T00:00:00	2024-11-08T17:00:00	6	Velocidad del viento	9.7
185090	7	Sololá	712	San Antonio Palopó	9	San Antonio Palopo	7	Julio	2023-07-26T00:00:00	2024-11-08T17:00:00	7	Dirección del viento	9.66
185091	7	Sololá	712	San Antonio Palopó	9	San Antonio Palopo	7	Julio	2023-07-26T00:00:00	2024-11-08T17:00:00	1	Precipitación	0
185092	7	Sololá	712	San Antonio Palopó	9	San Antonio Palopo	7	Julio	2023-07-26T00:00:00	2024-11-08T17:00:00	8	Radiación solar	267
185093	7	Sololá	712	San Antonio Palopó	9	San Antonio Palopo	7	Julio	2023-07-26T00:00:00	2024-11-08T18:00:00	2	Temperatura media	24.6
185094	7	Sololá	712	San Antonio Palopó	9	San Antonio Palopo	7	Julio	2023-07-26T00:00:00	2024-11-08T18:00:00	4	Temperatura máxima	25.7
185095	7	Sololá	712	San Antonio Palopó	9	San Antonio Palopo	7	Julio	2023-07-26T00:00:00	2024-11-08T18:00:00	3	Temperatura mínima	24.6
185096	7	Sololá	712	San Antonio Palopó	9	San Antonio Palopo	7	Julio	2023-07-26T00:00:00	2024-11-08T18:00:00	5	Humedad	53
185097	7	Sololá	712	San Antonio Palopó	9	San Antonio Palopo	7	Julio	2023-07-26T00:00:00	2024-11-08T18:00:00	6	Velocidad del viento	9.7
185098	7	Sololá	712	San Antonio Palopó	9	San Antonio Palopo	7	Julio	2023-07-26T00:00:00	2024-11-08T18:00:00	7	Dirección del viento	9.66
185099	7	Sololá	712	San Antonio Palopó	9	San Antonio Palopo	7	Julio	2023-07-26T00:00:00	2024-11-08T18:00:00	1	Precipitación	0
185100	7	Sololá	712	San Antonio Palopó	9	San Antonio Palopo	7	Julio	2023-07-26T00:00:00	2024-11-08T18:00:00	8	Radiación solar	137
185101	7	Sololá	712	San Antonio Palopó	9	San Antonio Palopo	7	Julio	2023-07-26T00:00:00	2024-11-08T19:00:00	2	Temperatura media	22.8
185102	7	Sololá	712	San Antonio Palopó	9	San Antonio Palopo	7	Julio	2023-07-26T00:00:00	2024-11-08T19:00:00	4	Temperatura máxima	24.6
185103	7	Sololá	712	San Antonio Palopó	9	San Antonio Palopo	7	Julio	2023-07-26T00:00:00	2024-11-08T19:00:00	3	Temperatura mínima	22.8
185104	7	Sololá	712	San Antonio Palopó	9	San Antonio Palopo	7	Julio	2023-07-26T00:00:00	2024-11-08T19:00:00	5	Humedad	55
185105	7	Sololá	712	San Antonio Palopó	9	San Antonio Palopo	7	Julio	2023-07-26T00:00:00	2024-11-08T19:00:00	6	Velocidad del viento	4.8
185106	7	Sololá	712	San Antonio Palopó	9	San Antonio Palopo	7	Julio	2023-07-26T00:00:00	2024-11-08T19:00:00	7	Dirección del viento	4.83
185107	7	Sololá	712	San Antonio Palopó	9	San Antonio Palopo	7	Julio	2023-07-26T00:00:00	2024-11-08T19:00:00	1	Precipitación	0
185108	7	Sololá	712	San Antonio Palopó	9	San Antonio Palopo	7	Julio	2023-07-26T00:00:00	2024-11-08T19:00:00	8	Radiación solar	0
185109	7	Sololá	712	San Antonio Palopó	9	San Antonio Palopo	7	Julio	2023-07-26T00:00:00	2024-11-08T20:00:00	2	Temperatura media	21.6
185110	7	Sololá	712	San Antonio Palopó	9	San Antonio Palopo	7	Julio	2023-07-26T00:00:00	2024-11-08T20:00:00	4	Temperatura máxima	22.8
185111	7	Sololá	712	San Antonio Palopó	9	San Antonio Palopo	7	Julio	2023-07-26T00:00:00	2024-11-08T20:00:00	3	Temperatura mínima	21.4
185112	7	Sololá	712	San Antonio Palopó	9	San Antonio Palopo	7	Julio	2023-07-26T00:00:00	2024-11-08T20:00:00	5	Humedad	61
185113	7	Sololá	712	San Antonio Palopó	9	San Antonio Palopo	7	Julio	2023-07-26T00:00:00	2024-11-08T20:00:00	6	Velocidad del viento	4.8
185114	7	Sololá	712	San Antonio Palopó	9	San Antonio Palopo	7	Julio	2023-07-26T00:00:00	2024-11-08T20:00:00	7	Dirección del viento	4.83
185115	7	Sololá	712	San Antonio Palopó	9	San Antonio Palopo	7	Julio	2023-07-26T00:00:00	2024-11-08T20:00:00	1	Precipitación	0
185116	7	Sololá	712	San Antonio Palopó	9	San Antonio Palopo	7	Julio	2023-07-26T00:00:00	2024-11-08T20:00:00	8	Radiación solar	0
185117	7	Sololá	712	San Antonio Palopó	9	San Antonio Palopo	7	Julio	2023-07-26T00:00:00	2024-11-08T21:00:00	2	Temperatura media	21.3
185118	7	Sololá	712	San Antonio Palopó	9	San Antonio Palopo	7	Julio	2023-07-26T00:00:00	2024-11-08T21:00:00	4	Temperatura máxima	21.7
185119	7	Sololá	712	San Antonio Palopó	9	San Antonio Palopo	7	Julio	2023-07-26T00:00:00	2024-11-08T21:00:00	3	Temperatura mínima	21.2
185120	7	Sololá	712	San Antonio Palopó	9	San Antonio Palopo	7	Julio	2023-07-26T00:00:00	2024-11-08T21:00:00	5	Humedad	61
185121	7	Sololá	712	San Antonio Palopó	9	San Antonio Palopo	7	Julio	2023-07-26T00:00:00	2024-11-08T21:00:00	6	Velocidad del viento	6.4
185122	7	Sololá	712	San Antonio Palopó	9	San Antonio Palopo	7	Julio	2023-07-26T00:00:00	2024-11-08T21:00:00	7	Dirección del viento	6.44
185123	7	Sololá	712	San Antonio Palopó	9	San Antonio Palopo	7	Julio	2023-07-26T00:00:00	2024-11-08T21:00:00	1	Precipitación	0
185124	7	Sololá	712	San Antonio Palopó	9	San Antonio Palopo	7	Julio	2023-07-26T00:00:00	2024-11-08T21:00:00	8	Radiación solar	0
185125	7	Sololá	712	San Antonio Palopó	9	San Antonio Palopo	7	Julio	2023-07-26T00:00:00	2024-11-08T22:00:00	2	Temperatura media	20.7
185126	7	Sololá	712	San Antonio Palopó	9	San Antonio Palopo	7	Julio	2023-07-26T00:00:00	2024-11-08T22:00:00	4	Temperatura máxima	21.3
185127	7	Sololá	712	San Antonio Palopó	9	San Antonio Palopo	7	Julio	2023-07-26T00:00:00	2024-11-08T22:00:00	3	Temperatura mínima	20.7
185128	7	Sololá	712	San Antonio Palopó	9	San Antonio Palopo	7	Julio	2023-07-26T00:00:00	2024-11-08T22:00:00	5	Humedad	64
185129	7	Sololá	712	San Antonio Palopó	9	San Antonio Palopo	7	Julio	2023-07-26T00:00:00	2024-11-08T22:00:00	6	Velocidad del viento	8
185130	7	Sololá	712	San Antonio Palopó	9	San Antonio Palopo	7	Julio	2023-07-26T00:00:00	2024-11-08T22:00:00	7	Dirección del viento	8.05
185131	7	Sololá	712	San Antonio Palopó	9	San Antonio Palopo	7	Julio	2023-07-26T00:00:00	2024-11-08T22:00:00	1	Precipitación	0
185132	7	Sololá	712	San Antonio Palopó	9	San Antonio Palopo	7	Julio	2023-07-26T00:00:00	2024-11-08T22:00:00	8	Radiación solar	0
185133	7	Sololá	712	San Antonio Palopó	9	San Antonio Palopo	7	Julio	2023-07-26T00:00:00	2024-11-08T23:00:00	2	Temperatura media	20.3
185134	7	Sololá	712	San Antonio Palopó	9	San Antonio Palopo	7	Julio	2023-07-26T00:00:00	2024-11-08T23:00:00	4	Temperatura máxima	21.3
185135	7	Sololá	712	San Antonio Palopó	9	San Antonio Palopo	7	Julio	2023-07-26T00:00:00	2024-11-08T23:00:00	3	Temperatura mínima	20.2
185136	7	Sololá	712	San Antonio Palopó	9	San Antonio Palopo	7	Julio	2023-07-26T00:00:00	2024-11-08T23:00:00	5	Humedad	66
185137	7	Sololá	712	San Antonio Palopó	9	San Antonio Palopo	7	Julio	2023-07-26T00:00:00	2024-11-08T23:00:00	6	Velocidad del viento	8
185138	7	Sololá	712	San Antonio Palopó	9	San Antonio Palopo	7	Julio	2023-07-26T00:00:00	2024-11-08T23:00:00	7	Dirección del viento	8.05
185139	7	Sololá	712	San Antonio Palopó	9	San Antonio Palopo	7	Julio	2023-07-26T00:00:00	2024-11-08T23:00:00	1	Precipitación	0
185140	7	Sololá	712	San Antonio Palopó	9	San Antonio Palopo	7	Julio	2023-07-26T00:00:00	2024-11-08T23:00:00	8	Radiación solar	0
185141	7	Sololá	712	San Antonio Palopó	9	San Antonio Palopo	7	Julio	2023-07-27T00:00:00	2024-11-08T00:00:00	2	Temperatura media	20.4
185142	7	Sololá	712	San Antonio Palopó	9	San Antonio Palopo	7	Julio	2023-07-27T00:00:00	2024-11-08T00:00:00	4	Temperatura máxima	20.4
185143	7	Sololá	712	San Antonio Palopó	9	San Antonio Palopo	7	Julio	2023-07-27T00:00:00	2024-11-08T00:00:00	3	Temperatura mínima	20.1
185144	7	Sololá	712	San Antonio Palopó	9	San Antonio Palopo	7	Julio	2023-07-27T00:00:00	2024-11-08T00:00:00	5	Humedad	66
185145	7	Sololá	712	San Antonio Palopó	9	San Antonio Palopo	7	Julio	2023-07-27T00:00:00	2024-11-08T00:00:00	6	Velocidad del viento	6.4
185146	7	Sololá	712	San Antonio Palopó	9	San Antonio Palopo	7	Julio	2023-07-27T00:00:00	2024-11-08T00:00:00	7	Dirección del viento	6.44
185147	7	Sololá	712	San Antonio Palopó	9	San Antonio Palopo	7	Julio	2023-07-27T00:00:00	2024-11-08T00:00:00	1	Precipitación	0
185148	7	Sololá	712	San Antonio Palopó	9	San Antonio Palopo	7	Julio	2023-07-27T00:00:00	2024-11-08T00:00:00	8	Radiación solar	0
185149	7	Sololá	712	San Antonio Palopó	9	San Antonio Palopo	7	Julio	2023-07-27T00:00:00	2024-11-08T01:00:00	2	Temperatura media	20.3
185150	7	Sololá	712	San Antonio Palopó	9	San Antonio Palopo	7	Julio	2023-07-27T00:00:00	2024-11-08T01:00:00	4	Temperatura máxima	20.4
185151	7	Sololá	712	San Antonio Palopó	9	San Antonio Palopo	7	Julio	2023-07-27T00:00:00	2024-11-08T01:00:00	3	Temperatura mínima	19.8
185152	7	Sololá	712	San Antonio Palopó	9	San Antonio Palopo	7	Julio	2023-07-27T00:00:00	2024-11-08T01:00:00	5	Humedad	66
185153	7	Sololá	712	San Antonio Palopó	9	San Antonio Palopo	7	Julio	2023-07-27T00:00:00	2024-11-08T01:00:00	6	Velocidad del viento	6.4
185154	7	Sololá	712	San Antonio Palopó	9	San Antonio Palopo	7	Julio	2023-07-27T00:00:00	2024-11-08T01:00:00	7	Dirección del viento	6.44
185155	7	Sololá	712	San Antonio Palopó	9	San Antonio Palopo	7	Julio	2023-07-27T00:00:00	2024-11-08T01:00:00	1	Precipitación	0
185156	7	Sololá	712	San Antonio Palopó	9	San Antonio Palopo	7	Julio	2023-07-27T00:00:00	2024-11-08T01:00:00	8	Radiación solar	0
185157	7	Sololá	712	San Antonio Palopó	9	San Antonio Palopo	7	Julio	2023-07-27T00:00:00	2024-11-08T02:00:00	2	Temperatura media	20.2
185158	7	Sololá	712	San Antonio Palopó	9	San Antonio Palopo	7	Julio	2023-07-27T00:00:00	2024-11-08T02:00:00	4	Temperatura máxima	20.4
185159	7	Sololá	712	San Antonio Palopó	9	San Antonio Palopo	7	Julio	2023-07-27T00:00:00	2024-11-08T02:00:00	3	Temperatura mínima	19.5
185160	7	Sololá	712	San Antonio Palopó	9	San Antonio Palopo	7	Julio	2023-07-27T00:00:00	2024-11-08T02:00:00	5	Humedad	65
185161	7	Sololá	712	San Antonio Palopó	9	San Antonio Palopo	7	Julio	2023-07-27T00:00:00	2024-11-08T02:00:00	6	Velocidad del viento	6.4
185162	7	Sololá	712	San Antonio Palopó	9	San Antonio Palopo	7	Julio	2023-07-27T00:00:00	2024-11-08T02:00:00	7	Dirección del viento	6.44
185163	7	Sololá	712	San Antonio Palopó	9	San Antonio Palopo	7	Julio	2023-07-27T00:00:00	2024-11-08T02:00:00	1	Precipitación	0
185164	7	Sololá	712	San Antonio Palopó	9	San Antonio Palopo	7	Julio	2023-07-27T00:00:00	2024-11-08T02:00:00	8	Radiación solar	0
185165	7	Sololá	712	San Antonio Palopó	9	San Antonio Palopo	7	Julio	2023-07-27T00:00:00	2024-11-08T03:00:00	2	Temperatura media	19.4
185166	7	Sololá	712	San Antonio Palopó	9	San Antonio Palopo	7	Julio	2023-07-27T00:00:00	2024-11-08T03:00:00	4	Temperatura máxima	20.3
185167	7	Sololá	712	San Antonio Palopó	9	San Antonio Palopo	7	Julio	2023-07-27T00:00:00	2024-11-08T03:00:00	3	Temperatura mínima	19.4
185168	7	Sololá	712	San Antonio Palopó	9	San Antonio Palopo	7	Julio	2023-07-27T00:00:00	2024-11-08T03:00:00	5	Humedad	67
185169	7	Sololá	712	San Antonio Palopó	9	San Antonio Palopo	7	Julio	2023-07-27T00:00:00	2024-11-08T03:00:00	6	Velocidad del viento	6.4
185170	7	Sololá	712	San Antonio Palopó	9	San Antonio Palopo	7	Julio	2023-07-27T00:00:00	2024-11-08T03:00:00	7	Dirección del viento	6.44
185171	7	Sololá	712	San Antonio Palopó	9	San Antonio Palopo	7	Julio	2023-07-27T00:00:00	2024-11-08T03:00:00	1	Precipitación	0
185172	7	Sololá	712	San Antonio Palopó	9	San Antonio Palopo	7	Julio	2023-07-27T00:00:00	2024-11-08T03:00:00	8	Radiación solar	0
185173	7	Sololá	712	San Antonio Palopó	9	San Antonio Palopo	7	Julio	2023-07-27T00:00:00	2024-11-08T04:00:00	2	Temperatura media	19.3
185174	7	Sololá	712	San Antonio Palopó	9	San Antonio Palopo	7	Julio	2023-07-27T00:00:00	2024-11-08T04:00:00	4	Temperatura máxima	19.4
185175	7	Sololá	712	San Antonio Palopó	9	San Antonio Palopo	7	Julio	2023-07-27T00:00:00	2024-11-08T04:00:00	3	Temperatura mínima	19.3
185176	7	Sololá	712	San Antonio Palopó	9	San Antonio Palopo	7	Julio	2023-07-27T00:00:00	2024-11-08T04:00:00	5	Humedad	65
185177	7	Sololá	712	San Antonio Palopó	9	San Antonio Palopo	7	Julio	2023-07-27T00:00:00	2024-11-08T04:00:00	6	Velocidad del viento	11.3
185178	7	Sololá	712	San Antonio Palopó	9	San Antonio Palopo	7	Julio	2023-07-27T00:00:00	2024-11-08T04:00:00	7	Dirección del viento	11.27
185179	7	Sololá	712	San Antonio Palopó	9	San Antonio Palopo	7	Julio	2023-07-27T00:00:00	2024-11-08T04:00:00	1	Precipitación	0
185180	7	Sololá	712	San Antonio Palopó	9	San Antonio Palopo	7	Julio	2023-07-27T00:00:00	2024-11-08T04:00:00	8	Radiación solar	0
185181	7	Sololá	712	San Antonio Palopó	9	San Antonio Palopo	7	Julio	2023-07-27T00:00:00	2024-11-08T05:00:00	2	Temperatura media	18.9
185182	7	Sololá	712	San Antonio Palopó	9	San Antonio Palopo	7	Julio	2023-07-27T00:00:00	2024-11-08T05:00:00	4	Temperatura máxima	19.3
185183	7	Sololá	712	San Antonio Palopó	9	San Antonio Palopo	7	Julio	2023-07-27T00:00:00	2024-11-08T05:00:00	3	Temperatura mínima	18.9
185184	7	Sololá	712	San Antonio Palopó	9	San Antonio Palopo	7	Julio	2023-07-27T00:00:00	2024-11-08T05:00:00	5	Humedad	66
185185	7	Sololá	712	San Antonio Palopó	9	San Antonio Palopo	7	Julio	2023-07-27T00:00:00	2024-11-08T05:00:00	6	Velocidad del viento	12.9
185186	7	Sololá	712	San Antonio Palopó	9	San Antonio Palopo	7	Julio	2023-07-27T00:00:00	2024-11-08T05:00:00	7	Dirección del viento	12.87
185187	7	Sololá	712	San Antonio Palopó	9	San Antonio Palopo	7	Julio	2023-07-27T00:00:00	2024-11-08T05:00:00	1	Precipitación	0
185188	7	Sololá	712	San Antonio Palopó	9	San Antonio Palopo	7	Julio	2023-07-27T00:00:00	2024-11-08T05:00:00	8	Radiación solar	0
185189	7	Sololá	712	San Antonio Palopó	9	San Antonio Palopo	7	Julio	2023-07-27T00:00:00	2024-11-08T06:00:00	2	Temperatura media	19.1
185190	7	Sololá	712	San Antonio Palopó	9	San Antonio Palopo	7	Julio	2023-07-27T00:00:00	2024-11-08T06:00:00	4	Temperatura máxima	19.1
185191	7	Sololá	712	San Antonio Palopó	9	San Antonio Palopo	7	Julio	2023-07-27T00:00:00	2024-11-08T06:00:00	3	Temperatura mínima	18.8
185192	7	Sololá	712	San Antonio Palopó	9	San Antonio Palopo	7	Julio	2023-07-27T00:00:00	2024-11-08T06:00:00	5	Humedad	64
185193	7	Sololá	712	San Antonio Palopó	9	San Antonio Palopo	7	Julio	2023-07-27T00:00:00	2024-11-08T06:00:00	6	Velocidad del viento	8
185194	7	Sololá	712	San Antonio Palopó	9	San Antonio Palopo	7	Julio	2023-07-27T00:00:00	2024-11-08T06:00:00	7	Dirección del viento	8.05
185195	7	Sololá	712	San Antonio Palopó	9	San Antonio Palopo	7	Julio	2023-07-27T00:00:00	2024-11-08T06:00:00	1	Precipitación	0
185196	7	Sololá	712	San Antonio Palopó	9	San Antonio Palopo	7	Julio	2023-07-27T00:00:00	2024-11-08T06:00:00	8	Radiación solar	1
185197	7	Sololá	712	San Antonio Palopó	9	San Antonio Palopo	7	Julio	2023-07-27T00:00:00	2024-11-08T07:00:00	2	Temperatura media	19
185198	7	Sololá	712	San Antonio Palopó	9	San Antonio Palopo	7	Julio	2023-07-27T00:00:00	2024-11-08T07:00:00	4	Temperatura máxima	19.2
185199	7	Sololá	712	San Antonio Palopó	9	San Antonio Palopo	7	Julio	2023-07-27T00:00:00	2024-11-08T07:00:00	3	Temperatura mínima	18.9
185200	7	Sololá	712	San Antonio Palopó	9	San Antonio Palopo	7	Julio	2023-07-27T00:00:00	2024-11-08T07:00:00	5	Humedad	66
185201	7	Sololá	712	San Antonio Palopó	9	San Antonio Palopo	7	Julio	2023-07-27T00:00:00	2024-11-08T07:00:00	6	Velocidad del viento	4.8
185202	7	Sololá	712	San Antonio Palopó	9	San Antonio Palopo	7	Julio	2023-07-27T00:00:00	2024-11-08T07:00:00	7	Dirección del viento	4.83
185203	7	Sololá	712	San Antonio Palopó	9	San Antonio Palopo	7	Julio	2023-07-27T00:00:00	2024-11-08T07:00:00	1	Precipitación	0
185204	7	Sololá	712	San Antonio Palopó	9	San Antonio Palopo	7	Julio	2023-07-27T00:00:00	2024-11-08T07:00:00	8	Radiación solar	23
185205	7	Sololá	712	San Antonio Palopó	9	San Antonio Palopo	7	Julio	2023-07-27T00:00:00	2024-11-08T08:00:00	2	Temperatura media	20.4
185206	7	Sololá	712	San Antonio Palopó	9	San Antonio Palopo	7	Julio	2023-07-27T00:00:00	2024-11-08T08:00:00	4	Temperatura máxima	20.9
185207	7	Sololá	712	San Antonio Palopó	9	San Antonio Palopo	7	Julio	2023-07-27T00:00:00	2024-11-08T08:00:00	3	Temperatura mínima	18.4
185208	7	Sololá	712	San Antonio Palopó	9	San Antonio Palopo	7	Julio	2023-07-27T00:00:00	2024-11-08T08:00:00	5	Humedad	65
185209	7	Sololá	712	San Antonio Palopó	9	San Antonio Palopo	7	Julio	2023-07-27T00:00:00	2024-11-08T08:00:00	6	Velocidad del viento	3.2
185210	7	Sololá	712	San Antonio Palopó	9	San Antonio Palopo	7	Julio	2023-07-27T00:00:00	2024-11-08T08:00:00	7	Dirección del viento	3.22
185211	7	Sololá	712	San Antonio Palopó	9	San Antonio Palopo	7	Julio	2023-07-27T00:00:00	2024-11-08T08:00:00	1	Precipitación	0
185212	7	Sololá	712	San Antonio Palopó	9	San Antonio Palopo	7	Julio	2023-07-27T00:00:00	2024-11-08T08:00:00	8	Radiación solar	155
185213	7	Sololá	712	San Antonio Palopó	9	San Antonio Palopo	7	Julio	2023-07-27T00:00:00	2024-11-08T09:00:00	2	Temperatura media	22.4
185214	7	Sololá	712	San Antonio Palopó	9	San Antonio Palopo	7	Julio	2023-07-27T00:00:00	2024-11-08T09:00:00	4	Temperatura máxima	22.7
185215	7	Sololá	712	San Antonio Palopó	9	San Antonio Palopo	7	Julio	2023-07-27T00:00:00	2024-11-08T09:00:00	3	Temperatura mínima	20.4
185216	7	Sololá	712	San Antonio Palopó	9	San Antonio Palopo	7	Julio	2023-07-27T00:00:00	2024-11-08T09:00:00	5	Humedad	60
185217	7	Sololá	712	San Antonio Palopó	9	San Antonio Palopo	7	Julio	2023-07-27T00:00:00	2024-11-08T09:00:00	6	Velocidad del viento	1.6
185218	7	Sololá	712	San Antonio Palopó	9	San Antonio Palopo	7	Julio	2023-07-27T00:00:00	2024-11-08T09:00:00	7	Dirección del viento	1.61
185219	7	Sololá	712	San Antonio Palopó	9	San Antonio Palopo	7	Julio	2023-07-27T00:00:00	2024-11-08T09:00:00	1	Precipitación	0
185220	7	Sololá	712	San Antonio Palopó	9	San Antonio Palopo	7	Julio	2023-07-27T00:00:00	2024-11-08T09:00:00	8	Radiación solar	526
185221	7	Sololá	712	San Antonio Palopó	9	San Antonio Palopo	7	Julio	2023-07-27T00:00:00	2024-11-08T10:00:00	2	Temperatura media	24.1
185222	7	Sololá	712	San Antonio Palopó	9	San Antonio Palopo	7	Julio	2023-07-27T00:00:00	2024-11-08T10:00:00	4	Temperatura máxima	24.1
185223	7	Sololá	712	San Antonio Palopó	9	San Antonio Palopo	7	Julio	2023-07-27T00:00:00	2024-11-08T10:00:00	3	Temperatura mínima	22.4
185224	7	Sololá	712	San Antonio Palopó	9	San Antonio Palopo	7	Julio	2023-07-27T00:00:00	2024-11-08T10:00:00	5	Humedad	55
185225	7	Sololá	712	San Antonio Palopó	9	San Antonio Palopo	7	Julio	2023-07-27T00:00:00	2024-11-08T10:00:00	6	Velocidad del viento	3.2
185226	7	Sololá	712	San Antonio Palopó	9	San Antonio Palopo	7	Julio	2023-07-27T00:00:00	2024-11-08T10:00:00	7	Dirección del viento	3.22
185227	7	Sololá	712	San Antonio Palopó	9	San Antonio Palopo	7	Julio	2023-07-27T00:00:00	2024-11-08T10:00:00	1	Precipitación	0
185228	7	Sololá	712	San Antonio Palopó	9	San Antonio Palopo	7	Julio	2023-07-27T00:00:00	2024-11-08T10:00:00	8	Radiación solar	736
185229	7	Sololá	712	San Antonio Palopó	9	San Antonio Palopo	7	Julio	2023-07-27T00:00:00	2024-11-08T11:00:00	2	Temperatura media	24.4
185230	7	Sololá	712	San Antonio Palopó	9	San Antonio Palopo	7	Julio	2023-07-27T00:00:00	2024-11-08T11:00:00	4	Temperatura máxima	24.4
185231	7	Sololá	712	San Antonio Palopó	9	San Antonio Palopo	7	Julio	2023-07-27T00:00:00	2024-11-08T11:00:00	3	Temperatura mínima	23.7
185232	7	Sololá	712	San Antonio Palopó	9	San Antonio Palopo	7	Julio	2023-07-27T00:00:00	2024-11-08T11:00:00	5	Humedad	61
185233	7	Sololá	712	San Antonio Palopó	9	San Antonio Palopo	7	Julio	2023-07-27T00:00:00	2024-11-08T11:00:00	6	Velocidad del viento	4.8
185234	7	Sololá	712	San Antonio Palopó	9	San Antonio Palopo	7	Julio	2023-07-27T00:00:00	2024-11-08T11:00:00	7	Dirección del viento	4.83
185235	7	Sololá	712	San Antonio Palopó	9	San Antonio Palopo	7	Julio	2023-07-27T00:00:00	2024-11-08T11:00:00	1	Precipitación	0
185236	7	Sololá	712	San Antonio Palopó	9	San Antonio Palopo	7	Julio	2023-07-27T00:00:00	2024-11-08T11:00:00	8	Radiación solar	745
185237	7	Sololá	712	San Antonio Palopó	9	San Antonio Palopo	7	Julio	2023-07-27T00:00:00	2024-11-08T12:00:00	2	Temperatura media	25.1
185238	7	Sololá	712	San Antonio Palopó	9	San Antonio Palopo	7	Julio	2023-07-27T00:00:00	2024-11-08T12:00:00	4	Temperatura máxima	25.3
185239	7	Sololá	712	San Antonio Palopó	9	San Antonio Palopo	7	Julio	2023-07-27T00:00:00	2024-11-08T12:00:00	3	Temperatura mínima	24.1
185240	7	Sololá	712	San Antonio Palopó	9	San Antonio Palopo	7	Julio	2023-07-27T00:00:00	2024-11-08T12:00:00	5	Humedad	57
185241	7	Sololá	712	San Antonio Palopó	9	San Antonio Palopo	7	Julio	2023-07-27T00:00:00	2024-11-08T12:00:00	6	Velocidad del viento	4.8
185242	7	Sololá	712	San Antonio Palopó	9	San Antonio Palopo	7	Julio	2023-07-27T00:00:00	2024-11-08T12:00:00	7	Dirección del viento	4.83
185243	7	Sololá	712	San Antonio Palopó	9	San Antonio Palopo	7	Julio	2023-07-27T00:00:00	2024-11-08T12:00:00	1	Precipitación	0
185244	7	Sololá	712	San Antonio Palopó	9	San Antonio Palopo	7	Julio	2023-07-27T00:00:00	2024-11-08T12:00:00	8	Radiación solar	335
185245	7	Sololá	712	San Antonio Palopó	9	San Antonio Palopo	7	Julio	2023-07-27T00:00:00	2024-11-08T13:00:00	2	Temperatura media	25.8
185246	7	Sololá	712	San Antonio Palopó	9	San Antonio Palopo	7	Julio	2023-07-27T00:00:00	2024-11-08T13:00:00	4	Temperatura máxima	26.3
185247	7	Sololá	712	San Antonio Palopó	9	San Antonio Palopo	7	Julio	2023-07-27T00:00:00	2024-11-08T13:00:00	3	Temperatura mínima	24.9
185248	7	Sololá	712	San Antonio Palopó	9	San Antonio Palopo	7	Julio	2023-07-27T00:00:00	2024-11-08T13:00:00	5	Humedad	52
185249	7	Sololá	712	San Antonio Palopó	9	San Antonio Palopo	7	Julio	2023-07-27T00:00:00	2024-11-08T13:00:00	6	Velocidad del viento	6.4
185250	7	Sololá	712	San Antonio Palopó	9	San Antonio Palopo	7	Julio	2023-07-27T00:00:00	2024-11-08T13:00:00	7	Dirección del viento	6.44
185251	7	Sololá	712	San Antonio Palopó	9	San Antonio Palopo	7	Julio	2023-07-27T00:00:00	2024-11-08T13:00:00	1	Precipitación	0
185252	7	Sololá	712	San Antonio Palopó	9	San Antonio Palopo	7	Julio	2023-07-27T00:00:00	2024-11-08T13:00:00	8	Radiación solar	481
185253	7	Sololá	712	San Antonio Palopó	9	San Antonio Palopo	7	Julio	2023-07-27T00:00:00	2024-11-08T14:00:00	2	Temperatura media	27.3
185254	7	Sololá	712	San Antonio Palopó	9	San Antonio Palopo	7	Julio	2023-07-27T00:00:00	2024-11-08T14:00:00	4	Temperatura máxima	27.3
185255	7	Sololá	712	San Antonio Palopó	9	San Antonio Palopo	7	Julio	2023-07-27T00:00:00	2024-11-08T14:00:00	3	Temperatura mínima	25.5
185256	7	Sololá	712	San Antonio Palopó	9	San Antonio Palopo	7	Julio	2023-07-27T00:00:00	2024-11-08T14:00:00	5	Humedad	47
185257	7	Sololá	712	San Antonio Palopó	9	San Antonio Palopo	7	Julio	2023-07-27T00:00:00	2024-11-08T14:00:00	6	Velocidad del viento	6.4
185258	7	Sololá	712	San Antonio Palopó	9	San Antonio Palopo	7	Julio	2023-07-27T00:00:00	2024-11-08T14:00:00	7	Dirección del viento	6.44
185259	7	Sololá	712	San Antonio Palopó	9	San Antonio Palopo	7	Julio	2023-07-27T00:00:00	2024-11-08T14:00:00	1	Precipitación	0
185260	7	Sololá	712	San Antonio Palopó	9	San Antonio Palopo	7	Julio	2023-07-27T00:00:00	2024-11-08T14:00:00	8	Radiación solar	488
185261	7	Sololá	712	San Antonio Palopó	9	San Antonio Palopo	7	Julio	2023-07-27T00:00:00	2024-11-08T15:00:00	2	Temperatura media	27.4
185262	7	Sololá	712	San Antonio Palopó	9	San Antonio Palopo	7	Julio	2023-07-27T00:00:00	2024-11-08T15:00:00	4	Temperatura máxima	27.9
185263	7	Sololá	712	San Antonio Palopó	9	San Antonio Palopo	7	Julio	2023-07-27T00:00:00	2024-11-08T15:00:00	3	Temperatura mínima	26.8
185264	7	Sololá	712	San Antonio Palopó	9	San Antonio Palopo	7	Julio	2023-07-27T00:00:00	2024-11-08T15:00:00	5	Humedad	44
185265	7	Sololá	712	San Antonio Palopó	9	San Antonio Palopo	7	Julio	2023-07-27T00:00:00	2024-11-08T15:00:00	6	Velocidad del viento	9.7
185266	7	Sololá	712	San Antonio Palopó	9	San Antonio Palopo	7	Julio	2023-07-27T00:00:00	2024-11-08T15:00:00	7	Dirección del viento	9.66
185267	7	Sololá	712	San Antonio Palopó	9	San Antonio Palopo	7	Julio	2023-07-27T00:00:00	2024-11-08T15:00:00	1	Precipitación	0
185268	7	Sololá	712	San Antonio Palopó	9	San Antonio Palopo	7	Julio	2023-07-27T00:00:00	2024-11-08T15:00:00	8	Radiación solar	668
185269	7	Sololá	712	San Antonio Palopó	9	San Antonio Palopo	7	Julio	2023-07-27T00:00:00	2024-11-08T16:00:00	2	Temperatura media	26.7
185270	7	Sololá	712	San Antonio Palopó	9	San Antonio Palopo	7	Julio	2023-07-27T00:00:00	2024-11-08T16:00:00	4	Temperatura máxima	27.7
185271	7	Sololá	712	San Antonio Palopó	9	San Antonio Palopo	7	Julio	2023-07-27T00:00:00	2024-11-08T16:00:00	3	Temperatura mínima	26.7
185272	7	Sololá	712	San Antonio Palopó	9	San Antonio Palopo	7	Julio	2023-07-27T00:00:00	2024-11-08T16:00:00	5	Humedad	50
185273	7	Sololá	712	San Antonio Palopó	9	San Antonio Palopo	7	Julio	2023-07-27T00:00:00	2024-11-08T16:00:00	6	Velocidad del viento	12.9
185274	7	Sololá	712	San Antonio Palopó	9	San Antonio Palopo	7	Julio	2023-07-27T00:00:00	2024-11-08T16:00:00	7	Dirección del viento	12.87
185275	7	Sololá	712	San Antonio Palopó	9	San Antonio Palopo	7	Julio	2023-07-27T00:00:00	2024-11-08T16:00:00	1	Precipitación	0
185276	7	Sololá	712	San Antonio Palopó	9	San Antonio Palopo	7	Julio	2023-07-27T00:00:00	2024-11-08T16:00:00	8	Radiación solar	614
185277	7	Sololá	712	San Antonio Palopó	9	San Antonio Palopo	7	Julio	2023-07-27T00:00:00	2024-11-08T17:00:00	2	Temperatura media	25.2
185278	7	Sololá	712	San Antonio Palopó	9	San Antonio Palopo	7	Julio	2023-07-27T00:00:00	2024-11-08T17:00:00	4	Temperatura máxima	27.7
185279	7	Sololá	712	San Antonio Palopó	9	San Antonio Palopo	7	Julio	2023-07-27T00:00:00	2024-11-08T17:00:00	3	Temperatura mínima	23.8
185280	7	Sololá	712	San Antonio Palopó	9	San Antonio Palopo	7	Julio	2023-07-27T00:00:00	2024-11-08T17:00:00	5	Humedad	54
185281	7	Sololá	712	San Antonio Palopó	9	San Antonio Palopo	7	Julio	2023-07-27T00:00:00	2024-11-08T17:00:00	6	Velocidad del viento	12.9
185282	7	Sololá	712	San Antonio Palopó	9	San Antonio Palopo	7	Julio	2023-07-27T00:00:00	2024-11-08T17:00:00	7	Dirección del viento	12.87
185283	7	Sololá	712	San Antonio Palopó	9	San Antonio Palopo	7	Julio	2023-07-27T00:00:00	2024-11-08T17:00:00	1	Precipitación	0
185284	7	Sololá	712	San Antonio Palopó	9	San Antonio Palopo	7	Julio	2023-07-27T00:00:00	2024-11-08T17:00:00	8	Radiación solar	292
185285	7	Sololá	712	San Antonio Palopó	9	San Antonio Palopo	7	Julio	2023-07-27T00:00:00	2024-11-08T18:00:00	2	Temperatura media	25.3
185286	7	Sololá	712	San Antonio Palopó	9	San Antonio Palopo	7	Julio	2023-07-27T00:00:00	2024-11-08T18:00:00	4	Temperatura máxima	25.4
185287	7	Sololá	712	San Antonio Palopó	9	San Antonio Palopo	7	Julio	2023-07-27T00:00:00	2024-11-08T18:00:00	3	Temperatura mínima	25
185288	7	Sololá	712	San Antonio Palopó	9	San Antonio Palopo	7	Julio	2023-07-27T00:00:00	2024-11-08T18:00:00	5	Humedad	54
185289	7	Sololá	712	San Antonio Palopó	9	San Antonio Palopo	7	Julio	2023-07-27T00:00:00	2024-11-08T18:00:00	6	Velocidad del viento	6.4
185290	7	Sololá	712	San Antonio Palopó	9	San Antonio Palopo	7	Julio	2023-07-27T00:00:00	2024-11-08T18:00:00	7	Dirección del viento	6.44
185291	7	Sololá	712	San Antonio Palopó	9	San Antonio Palopo	7	Julio	2023-07-27T00:00:00	2024-11-08T18:00:00	1	Precipitación	0
185292	7	Sololá	712	San Antonio Palopó	9	San Antonio Palopo	7	Julio	2023-07-27T00:00:00	2024-11-08T18:00:00	8	Radiación solar	70
185293	7	Sololá	712	San Antonio Palopó	9	San Antonio Palopo	7	Julio	2023-07-27T00:00:00	2024-11-08T19:00:00	2	Temperatura media	23.4
185294	7	Sololá	712	San Antonio Palopó	9	San Antonio Palopo	7	Julio	2023-07-27T00:00:00	2024-11-08T19:00:00	4	Temperatura máxima	25.3
185295	7	Sololá	712	San Antonio Palopó	9	San Antonio Palopo	7	Julio	2023-07-27T00:00:00	2024-11-08T19:00:00	3	Temperatura mínima	23.4
185296	7	Sololá	712	San Antonio Palopó	9	San Antonio Palopo	7	Julio	2023-07-27T00:00:00	2024-11-08T19:00:00	5	Humedad	64
185297	7	Sololá	712	San Antonio Palopó	9	San Antonio Palopo	7	Julio	2023-07-27T00:00:00	2024-11-08T19:00:00	6	Velocidad del viento	3.2
185298	7	Sololá	712	San Antonio Palopó	9	San Antonio Palopo	7	Julio	2023-07-27T00:00:00	2024-11-08T19:00:00	7	Dirección del viento	3.22
185299	7	Sololá	712	San Antonio Palopó	9	San Antonio Palopo	7	Julio	2023-07-27T00:00:00	2024-11-08T19:00:00	1	Precipitación	0
185300	7	Sololá	712	San Antonio Palopó	9	San Antonio Palopo	7	Julio	2023-07-27T00:00:00	2024-11-08T19:00:00	8	Radiación solar	0
185301	7	Sololá	712	San Antonio Palopó	9	San Antonio Palopo	7	Julio	2023-07-27T00:00:00	2024-11-08T20:00:00	2	Temperatura media	22.7
185302	7	Sololá	712	San Antonio Palopó	9	San Antonio Palopo	7	Julio	2023-07-27T00:00:00	2024-11-08T20:00:00	4	Temperatura máxima	23.4
185303	7	Sololá	712	San Antonio Palopó	9	San Antonio Palopo	7	Julio	2023-07-27T00:00:00	2024-11-08T20:00:00	3	Temperatura mínima	22.7
185304	7	Sololá	712	San Antonio Palopó	9	San Antonio Palopo	7	Julio	2023-07-27T00:00:00	2024-11-08T20:00:00	5	Humedad	62
185305	7	Sololá	712	San Antonio Palopó	9	San Antonio Palopo	7	Julio	2023-07-27T00:00:00	2024-11-08T20:00:00	6	Velocidad del viento	1.6
185306	7	Sololá	712	San Antonio Palopó	9	San Antonio Palopo	7	Julio	2023-07-27T00:00:00	2024-11-08T20:00:00	7	Dirección del viento	1.61
185307	7	Sololá	712	San Antonio Palopó	9	San Antonio Palopo	7	Julio	2023-07-27T00:00:00	2024-11-08T20:00:00	1	Precipitación	0
185308	7	Sololá	712	San Antonio Palopó	9	San Antonio Palopo	7	Julio	2023-07-27T00:00:00	2024-11-08T20:00:00	8	Radiación solar	0
185309	7	Sololá	712	San Antonio Palopó	9	San Antonio Palopo	7	Julio	2023-07-27T00:00:00	2024-11-08T21:00:00	2	Temperatura media	21.7
185310	7	Sololá	712	San Antonio Palopó	9	San Antonio Palopo	7	Julio	2023-07-27T00:00:00	2024-11-08T21:00:00	4	Temperatura máxima	22.7
185311	7	Sololá	712	San Antonio Palopó	9	San Antonio Palopo	7	Julio	2023-07-27T00:00:00	2024-11-08T21:00:00	3	Temperatura mínima	21.7
185312	7	Sololá	712	San Antonio Palopó	9	San Antonio Palopo	7	Julio	2023-07-27T00:00:00	2024-11-08T21:00:00	5	Humedad	63
185313	7	Sololá	712	San Antonio Palopó	9	San Antonio Palopo	7	Julio	2023-07-27T00:00:00	2024-11-08T21:00:00	6	Velocidad del viento	3.2
185314	7	Sololá	712	San Antonio Palopó	9	San Antonio Palopo	7	Julio	2023-07-27T00:00:00	2024-11-08T21:00:00	7	Dirección del viento	3.22
185315	7	Sololá	712	San Antonio Palopó	9	San Antonio Palopo	7	Julio	2023-07-27T00:00:00	2024-11-08T21:00:00	1	Precipitación	0
185316	7	Sololá	712	San Antonio Palopó	9	San Antonio Palopo	7	Julio	2023-07-27T00:00:00	2024-11-08T21:00:00	8	Radiación solar	0
185317	7	Sololá	712	San Antonio Palopó	9	San Antonio Palopo	7	Julio	2023-07-27T00:00:00	2024-11-08T22:00:00	2	Temperatura media	21.1
185318	7	Sololá	712	San Antonio Palopó	9	San Antonio Palopo	7	Julio	2023-07-27T00:00:00	2024-11-08T22:00:00	4	Temperatura máxima	21.7
185319	7	Sololá	712	San Antonio Palopó	9	San Antonio Palopo	7	Julio	2023-07-27T00:00:00	2024-11-08T22:00:00	3	Temperatura mínima	20.9
185320	7	Sololá	712	San Antonio Palopó	9	San Antonio Palopo	7	Julio	2023-07-27T00:00:00	2024-11-08T22:00:00	5	Humedad	68
185321	7	Sololá	712	San Antonio Palopó	9	San Antonio Palopo	7	Julio	2023-07-27T00:00:00	2024-11-08T22:00:00	6	Velocidad del viento	4.8
185322	7	Sololá	712	San Antonio Palopó	9	San Antonio Palopo	7	Julio	2023-07-27T00:00:00	2024-11-08T22:00:00	7	Dirección del viento	4.83
185323	7	Sololá	712	San Antonio Palopó	9	San Antonio Palopo	7	Julio	2023-07-27T00:00:00	2024-11-08T22:00:00	1	Precipitación	0
185324	7	Sololá	712	San Antonio Palopó	9	San Antonio Palopo	7	Julio	2023-07-27T00:00:00	2024-11-08T22:00:00	8	Radiación solar	0
185325	7	Sololá	712	San Antonio Palopó	9	San Antonio Palopo	7	Julio	2023-07-27T00:00:00	2024-11-08T23:00:00	2	Temperatura media	20.9
185326	7	Sololá	712	San Antonio Palopó	9	San Antonio Palopo	7	Julio	2023-07-27T00:00:00	2024-11-08T23:00:00	4	Temperatura máxima	21.3
185327	7	Sololá	712	San Antonio Palopó	9	San Antonio Palopo	7	Julio	2023-07-27T00:00:00	2024-11-08T23:00:00	3	Temperatura mínima	20.9
185328	7	Sololá	712	San Antonio Palopó	9	San Antonio Palopo	7	Julio	2023-07-27T00:00:00	2024-11-08T23:00:00	5	Humedad	64
185329	7	Sololá	712	San Antonio Palopó	9	San Antonio Palopo	7	Julio	2023-07-27T00:00:00	2024-11-08T23:00:00	6	Velocidad del viento	11.3
185330	7	Sololá	712	San Antonio Palopó	9	San Antonio Palopo	7	Julio	2023-07-27T00:00:00	2024-11-08T23:00:00	7	Dirección del viento	11.27
185331	7	Sololá	712	San Antonio Palopó	9	San Antonio Palopo	7	Julio	2023-07-27T00:00:00	2024-11-08T23:00:00	1	Precipitación	0
185332	7	Sololá	712	San Antonio Palopó	9	San Antonio Palopo	7	Julio	2023-07-27T00:00:00	2024-11-08T23:00:00	8	Radiación solar	0
185333	7	Sololá	712	San Antonio Palopó	9	San Antonio Palopo	7	Julio	2023-07-28T00:00:00	2024-11-08T00:00:00	2	Temperatura media	20.4
185334	7	Sololá	712	San Antonio Palopó	9	San Antonio Palopo	7	Julio	2023-07-28T00:00:00	2024-11-08T00:00:00	4	Temperatura máxima	20.9
185335	7	Sololá	712	San Antonio Palopó	9	San Antonio Palopo	7	Julio	2023-07-28T00:00:00	2024-11-08T00:00:00	3	Temperatura mínima	20.4
185336	7	Sololá	712	San Antonio Palopó	9	San Antonio Palopo	7	Julio	2023-07-28T00:00:00	2024-11-08T00:00:00	5	Humedad	65
185337	7	Sololá	712	San Antonio Palopó	9	San Antonio Palopo	7	Julio	2023-07-28T00:00:00	2024-11-08T00:00:00	6	Velocidad del viento	8
185338	7	Sololá	712	San Antonio Palopó	9	San Antonio Palopo	7	Julio	2023-07-28T00:00:00	2024-11-08T00:00:00	7	Dirección del viento	8.05
185339	7	Sololá	712	San Antonio Palopó	9	San Antonio Palopo	7	Julio	2023-07-28T00:00:00	2024-11-08T00:00:00	1	Precipitación	0
185340	7	Sololá	712	San Antonio Palopó	9	San Antonio Palopo	7	Julio	2023-07-28T00:00:00	2024-11-08T00:00:00	8	Radiación solar	0
185341	7	Sololá	712	San Antonio Palopó	9	San Antonio Palopo	7	Julio	2023-07-28T00:00:00	2024-11-08T01:00:00	2	Temperatura media	20.4
185342	7	Sololá	712	San Antonio Palopó	9	San Antonio Palopo	7	Julio	2023-07-28T00:00:00	2024-11-08T01:00:00	4	Temperatura máxima	20.4
185343	7	Sololá	712	San Antonio Palopó	9	San Antonio Palopo	7	Julio	2023-07-28T00:00:00	2024-11-08T01:00:00	3	Temperatura mínima	20.2
185344	7	Sololá	712	San Antonio Palopó	9	San Antonio Palopo	7	Julio	2023-07-28T00:00:00	2024-11-08T01:00:00	5	Humedad	65
185345	7	Sololá	712	San Antonio Palopó	9	San Antonio Palopo	7	Julio	2023-07-28T00:00:00	2024-11-08T01:00:00	6	Velocidad del viento	4.8
185346	7	Sololá	712	San Antonio Palopó	9	San Antonio Palopo	7	Julio	2023-07-28T00:00:00	2024-11-08T01:00:00	7	Dirección del viento	4.83
185347	7	Sololá	712	San Antonio Palopó	9	San Antonio Palopo	7	Julio	2023-07-28T00:00:00	2024-11-08T01:00:00	1	Precipitación	0
185348	7	Sololá	712	San Antonio Palopó	9	San Antonio Palopo	7	Julio	2023-07-28T00:00:00	2024-11-08T01:00:00	8	Radiación solar	0
185349	7	Sololá	712	San Antonio Palopó	9	San Antonio Palopo	7	Julio	2023-07-28T00:00:00	2024-11-08T02:00:00	2	Temperatura media	20.3
185350	7	Sololá	712	San Antonio Palopó	9	San Antonio Palopo	7	Julio	2023-07-28T00:00:00	2024-11-08T02:00:00	4	Temperatura máxima	20.4
185351	7	Sololá	712	San Antonio Palopó	9	San Antonio Palopo	7	Julio	2023-07-28T00:00:00	2024-11-08T02:00:00	3	Temperatura mínima	19.3
185352	7	Sololá	712	San Antonio Palopó	9	San Antonio Palopo	7	Julio	2023-07-28T00:00:00	2024-11-08T02:00:00	5	Humedad	63
185353	7	Sololá	712	San Antonio Palopó	9	San Antonio Palopo	7	Julio	2023-07-28T00:00:00	2024-11-08T02:00:00	6	Velocidad del viento	4.8
185354	7	Sololá	712	San Antonio Palopó	9	San Antonio Palopo	7	Julio	2023-07-28T00:00:00	2024-11-08T02:00:00	7	Dirección del viento	4.83
185355	7	Sololá	712	San Antonio Palopó	9	San Antonio Palopo	7	Julio	2023-07-28T00:00:00	2024-11-08T02:00:00	1	Precipitación	0
185356	7	Sololá	712	San Antonio Palopó	9	San Antonio Palopo	7	Julio	2023-07-28T00:00:00	2024-11-08T02:00:00	8	Radiación solar	0
185357	7	Sololá	712	San Antonio Palopó	9	San Antonio Palopo	7	Julio	2023-07-28T00:00:00	2024-11-08T03:00:00	2	Temperatura media	20.3
185358	7	Sololá	712	San Antonio Palopó	9	San Antonio Palopo	7	Julio	2023-07-28T00:00:00	2024-11-08T03:00:00	4	Temperatura máxima	20.4
185359	7	Sololá	712	San Antonio Palopó	9	San Antonio Palopo	7	Julio	2023-07-28T00:00:00	2024-11-08T03:00:00	3	Temperatura mínima	20.2
185360	7	Sololá	712	San Antonio Palopó	9	San Antonio Palopo	7	Julio	2023-07-28T00:00:00	2024-11-08T03:00:00	5	Humedad	64
185361	7	Sololá	712	San Antonio Palopó	9	San Antonio Palopo	7	Julio	2023-07-28T00:00:00	2024-11-08T03:00:00	6	Velocidad del viento	6.4
185362	7	Sololá	712	San Antonio Palopó	9	San Antonio Palopo	7	Julio	2023-07-28T00:00:00	2024-11-08T03:00:00	7	Dirección del viento	6.44
185363	7	Sololá	712	San Antonio Palopó	9	San Antonio Palopo	7	Julio	2023-07-28T00:00:00	2024-11-08T03:00:00	1	Precipitación	0
185364	7	Sololá	712	San Antonio Palopó	9	San Antonio Palopo	7	Julio	2023-07-28T00:00:00	2024-11-08T03:00:00	8	Radiación solar	0
185365	7	Sololá	712	San Antonio Palopó	9	San Antonio Palopo	7	Julio	2023-07-28T00:00:00	2024-11-08T04:00:00	2	Temperatura media	19.9
185366	7	Sololá	712	San Antonio Palopó	9	San Antonio Palopo	7	Julio	2023-07-28T00:00:00	2024-11-08T04:00:00	4	Temperatura máxima	20.3
185367	7	Sololá	712	San Antonio Palopó	9	San Antonio Palopo	7	Julio	2023-07-28T00:00:00	2024-11-08T04:00:00	3	Temperatura mínima	19.8
185368	7	Sololá	712	San Antonio Palopó	9	San Antonio Palopo	7	Julio	2023-07-28T00:00:00	2024-11-08T04:00:00	5	Humedad	66
185369	7	Sololá	712	San Antonio Palopó	9	San Antonio Palopo	7	Julio	2023-07-28T00:00:00	2024-11-08T04:00:00	6	Velocidad del viento	8
185370	7	Sololá	712	San Antonio Palopó	9	San Antonio Palopo	7	Julio	2023-07-28T00:00:00	2024-11-08T04:00:00	7	Dirección del viento	8.05
185371	7	Sololá	712	San Antonio Palopó	9	San Antonio Palopo	7	Julio	2023-07-28T00:00:00	2024-11-08T04:00:00	1	Precipitación	0
185372	7	Sololá	712	San Antonio Palopó	9	San Antonio Palopo	7	Julio	2023-07-28T00:00:00	2024-11-08T04:00:00	8	Radiación solar	0
185373	7	Sololá	712	San Antonio Palopó	9	San Antonio Palopo	7	Julio	2023-07-28T00:00:00	2024-11-08T05:00:00	2	Temperatura media	19.3
185374	7	Sololá	712	San Antonio Palopó	9	San Antonio Palopo	7	Julio	2023-07-28T00:00:00	2024-11-08T05:00:00	4	Temperatura máxima	19.9
185375	7	Sololá	712	San Antonio Palopó	9	San Antonio Palopo	7	Julio	2023-07-28T00:00:00	2024-11-08T05:00:00	3	Temperatura mínima	19.3
185376	7	Sololá	712	San Antonio Palopó	9	San Antonio Palopo	7	Julio	2023-07-28T00:00:00	2024-11-08T05:00:00	5	Humedad	68
185377	7	Sololá	712	San Antonio Palopó	9	San Antonio Palopo	7	Julio	2023-07-28T00:00:00	2024-11-08T05:00:00	6	Velocidad del viento	8
185378	7	Sololá	712	San Antonio Palopó	9	San Antonio Palopo	7	Julio	2023-07-28T00:00:00	2024-11-08T05:00:00	7	Dirección del viento	8.05
185379	7	Sololá	712	San Antonio Palopó	9	San Antonio Palopo	7	Julio	2023-07-28T00:00:00	2024-11-08T05:00:00	1	Precipitación	0
185380	7	Sololá	712	San Antonio Palopó	9	San Antonio Palopo	7	Julio	2023-07-28T00:00:00	2024-11-08T05:00:00	8	Radiación solar	0
185381	7	Sololá	712	San Antonio Palopó	9	San Antonio Palopo	7	Julio	2023-07-28T00:00:00	2024-11-08T06:00:00	2	Temperatura media	19.7
185382	7	Sololá	712	San Antonio Palopó	9	San Antonio Palopo	7	Julio	2023-07-28T00:00:00	2024-11-08T06:00:00	4	Temperatura máxima	19.8
185383	7	Sololá	712	San Antonio Palopó	9	San Antonio Palopo	7	Julio	2023-07-28T00:00:00	2024-11-08T06:00:00	3	Temperatura mínima	19.2
185384	7	Sololá	712	San Antonio Palopó	9	San Antonio Palopo	7	Julio	2023-07-28T00:00:00	2024-11-08T06:00:00	5	Humedad	68
185385	7	Sololá	712	San Antonio Palopó	9	San Antonio Palopo	7	Julio	2023-07-28T00:00:00	2024-11-08T06:00:00	6	Velocidad del viento	6.4
185386	7	Sololá	712	San Antonio Palopó	9	San Antonio Palopo	7	Julio	2023-07-28T00:00:00	2024-11-08T06:00:00	7	Dirección del viento	6.44
185387	7	Sololá	712	San Antonio Palopó	9	San Antonio Palopo	7	Julio	2023-07-28T00:00:00	2024-11-08T06:00:00	1	Precipitación	0
185388	7	Sololá	712	San Antonio Palopó	9	San Antonio Palopo	7	Julio	2023-07-28T00:00:00	2024-11-08T06:00:00	8	Radiación solar	0
185389	7	Sololá	712	San Antonio Palopó	9	San Antonio Palopo	7	Julio	2023-07-28T00:00:00	2024-11-08T07:00:00	2	Temperatura media	20.2
185390	7	Sololá	712	San Antonio Palopó	9	San Antonio Palopo	7	Julio	2023-07-28T00:00:00	2024-11-08T07:00:00	4	Temperatura máxima	20.4
185391	7	Sololá	712	San Antonio Palopó	9	San Antonio Palopo	7	Julio	2023-07-28T00:00:00	2024-11-08T07:00:00	3	Temperatura mínima	19.4
185392	7	Sololá	712	San Antonio Palopó	9	San Antonio Palopo	7	Julio	2023-07-28T00:00:00	2024-11-08T07:00:00	5	Humedad	69
185393	7	Sololá	712	San Antonio Palopó	9	San Antonio Palopo	7	Julio	2023-07-28T00:00:00	2024-11-08T07:00:00	6	Velocidad del viento	8
185394	7	Sololá	712	San Antonio Palopó	9	San Antonio Palopo	7	Julio	2023-07-28T00:00:00	2024-11-08T07:00:00	7	Dirección del viento	8.05
185395	7	Sololá	712	San Antonio Palopó	9	San Antonio Palopo	7	Julio	2023-07-28T00:00:00	2024-11-08T07:00:00	1	Precipitación	0
185396	7	Sololá	712	San Antonio Palopó	9	San Antonio Palopo	7	Julio	2023-07-28T00:00:00	2024-11-08T07:00:00	8	Radiación solar	15
185397	7	Sololá	712	San Antonio Palopó	9	San Antonio Palopo	7	Julio	2023-07-28T00:00:00	2024-11-08T08:00:00	2	Temperatura media	21.9
185398	7	Sololá	712	San Antonio Palopó	9	San Antonio Palopo	7	Julio	2023-07-28T00:00:00	2024-11-08T08:00:00	4	Temperatura máxima	21.9
185399	7	Sololá	712	San Antonio Palopó	9	San Antonio Palopo	7	Julio	2023-07-28T00:00:00	2024-11-08T08:00:00	3	Temperatura mínima	19.5
185400	7	Sololá	712	San Antonio Palopó	9	San Antonio Palopo	7	Julio	2023-07-28T00:00:00	2024-11-08T08:00:00	5	Humedad	67
185401	7	Sololá	712	San Antonio Palopó	9	San Antonio Palopo	7	Julio	2023-07-28T00:00:00	2024-11-08T08:00:00	6	Velocidad del viento	3.2
185402	7	Sololá	712	San Antonio Palopó	9	San Antonio Palopo	7	Julio	2023-07-28T00:00:00	2024-11-08T08:00:00	7	Dirección del viento	3.22
185403	7	Sololá	712	San Antonio Palopó	9	San Antonio Palopo	7	Julio	2023-07-28T00:00:00	2024-11-08T08:00:00	1	Precipitación	0
185404	7	Sololá	712	San Antonio Palopó	9	San Antonio Palopo	7	Julio	2023-07-28T00:00:00	2024-11-08T08:00:00	8	Radiación solar	157
185405	7	Sololá	712	San Antonio Palopó	9	San Antonio Palopo	7	Julio	2023-07-28T00:00:00	2024-11-08T09:00:00	2	Temperatura media	22.8
185406	7	Sololá	712	San Antonio Palopó	9	San Antonio Palopo	7	Julio	2023-07-28T00:00:00	2024-11-08T09:00:00	4	Temperatura máxima	22.9
185407	7	Sololá	712	San Antonio Palopó	9	San Antonio Palopo	7	Julio	2023-07-28T00:00:00	2024-11-08T09:00:00	3	Temperatura mínima	21.9
185408	7	Sololá	712	San Antonio Palopó	9	San Antonio Palopo	7	Julio	2023-07-28T00:00:00	2024-11-08T09:00:00	5	Humedad	62
185409	7	Sololá	712	San Antonio Palopó	9	San Antonio Palopo	7	Julio	2023-07-28T00:00:00	2024-11-08T09:00:00	6	Velocidad del viento	3.2
185410	7	Sololá	712	San Antonio Palopó	9	San Antonio Palopo	7	Julio	2023-07-28T00:00:00	2024-11-08T09:00:00	7	Dirección del viento	3.22
185411	7	Sololá	712	San Antonio Palopó	9	San Antonio Palopo	7	Julio	2023-07-28T00:00:00	2024-11-08T09:00:00	1	Precipitación	0
185412	7	Sololá	712	San Antonio Palopó	9	San Antonio Palopo	7	Julio	2023-07-28T00:00:00	2024-11-08T09:00:00	8	Radiación solar	542
185413	7	Sololá	712	San Antonio Palopó	9	San Antonio Palopo	7	Julio	2023-07-28T00:00:00	2024-11-08T10:00:00	2	Temperatura media	24.2
185414	7	Sololá	712	San Antonio Palopó	9	San Antonio Palopo	7	Julio	2023-07-28T00:00:00	2024-11-08T10:00:00	4	Temperatura máxima	24.5
185415	7	Sololá	712	San Antonio Palopó	9	San Antonio Palopo	7	Julio	2023-07-28T00:00:00	2024-11-08T10:00:00	3	Temperatura mínima	22.8
185416	7	Sololá	712	San Antonio Palopó	9	San Antonio Palopo	7	Julio	2023-07-28T00:00:00	2024-11-08T10:00:00	5	Humedad	57
185417	7	Sololá	712	San Antonio Palopó	9	San Antonio Palopo	7	Julio	2023-07-28T00:00:00	2024-11-08T10:00:00	6	Velocidad del viento	6.4
185418	7	Sololá	712	San Antonio Palopó	9	San Antonio Palopo	7	Julio	2023-07-28T00:00:00	2024-11-08T10:00:00	7	Dirección del viento	6.44
185419	7	Sololá	712	San Antonio Palopó	9	San Antonio Palopo	7	Julio	2023-07-28T00:00:00	2024-11-08T10:00:00	1	Precipitación	0
185420	7	Sololá	712	San Antonio Palopó	9	San Antonio Palopo	7	Julio	2023-07-28T00:00:00	2024-11-08T10:00:00	8	Radiación solar	732
185421	7	Sololá	712	San Antonio Palopó	9	San Antonio Palopo	7	Julio	2023-07-28T00:00:00	2024-11-08T11:00:00	2	Temperatura media	24.4
185422	7	Sololá	712	San Antonio Palopó	9	San Antonio Palopo	7	Julio	2023-07-28T00:00:00	2024-11-08T11:00:00	4	Temperatura máxima	25.5
185423	7	Sololá	712	San Antonio Palopó	9	San Antonio Palopo	7	Julio	2023-07-28T00:00:00	2024-11-08T11:00:00	3	Temperatura mínima	24.3
185424	7	Sololá	712	San Antonio Palopó	9	San Antonio Palopo	7	Julio	2023-07-28T00:00:00	2024-11-08T11:00:00	5	Humedad	57
185425	7	Sololá	712	San Antonio Palopó	9	San Antonio Palopo	7	Julio	2023-07-28T00:00:00	2024-11-08T11:00:00	6	Velocidad del viento	9.7
185426	7	Sololá	712	San Antonio Palopó	9	San Antonio Palopo	7	Julio	2023-07-28T00:00:00	2024-11-08T11:00:00	7	Dirección del viento	9.66
185427	7	Sololá	712	San Antonio Palopó	9	San Antonio Palopo	7	Julio	2023-07-28T00:00:00	2024-11-08T11:00:00	1	Precipitación	0
185428	7	Sololá	712	San Antonio Palopó	9	San Antonio Palopo	7	Julio	2023-07-28T00:00:00	2024-11-08T11:00:00	8	Radiación solar	892
185429	7	Sololá	712	San Antonio Palopó	9	San Antonio Palopo	7	Julio	2023-07-28T00:00:00	2024-11-08T12:00:00	2	Temperatura media	25.8
185430	7	Sololá	712	San Antonio Palopó	9	San Antonio Palopo	7	Julio	2023-07-28T00:00:00	2024-11-08T12:00:00	4	Temperatura máxima	26
185431	7	Sololá	712	San Antonio Palopó	9	San Antonio Palopo	7	Julio	2023-07-28T00:00:00	2024-11-08T12:00:00	3	Temperatura mínima	24.3
185432	7	Sololá	712	San Antonio Palopó	9	San Antonio Palopo	7	Julio	2023-07-28T00:00:00	2024-11-08T12:00:00	5	Humedad	52
185433	7	Sololá	712	San Antonio Palopó	9	San Antonio Palopo	7	Julio	2023-07-28T00:00:00	2024-11-08T12:00:00	6	Velocidad del viento	14.5
185434	7	Sololá	712	San Antonio Palopó	9	San Antonio Palopo	7	Julio	2023-07-28T00:00:00	2024-11-08T12:00:00	7	Dirección del viento	14.48
185435	7	Sololá	712	San Antonio Palopó	9	San Antonio Palopo	7	Julio	2023-07-28T00:00:00	2024-11-08T12:00:00	1	Precipitación	0
185436	7	Sololá	712	San Antonio Palopó	9	San Antonio Palopo	7	Julio	2023-07-28T00:00:00	2024-11-08T12:00:00	8	Radiación solar	984
185437	7	Sololá	712	San Antonio Palopó	9	San Antonio Palopo	7	Julio	2023-07-28T00:00:00	2024-11-08T13:00:00	2	Temperatura media	27.4
185438	7	Sololá	712	San Antonio Palopó	9	San Antonio Palopo	7	Julio	2023-07-28T00:00:00	2024-11-08T13:00:00	4	Temperatura máxima	27.5
185439	7	Sololá	712	San Antonio Palopó	9	San Antonio Palopo	7	Julio	2023-07-28T00:00:00	2024-11-08T13:00:00	3	Temperatura mínima	25.8
185440	7	Sololá	712	San Antonio Palopó	9	San Antonio Palopo	7	Julio	2023-07-28T00:00:00	2024-11-08T13:00:00	5	Humedad	47
185441	7	Sololá	712	San Antonio Palopó	9	San Antonio Palopo	7	Julio	2023-07-28T00:00:00	2024-11-08T13:00:00	6	Velocidad del viento	9.7
185442	7	Sololá	712	San Antonio Palopó	9	San Antonio Palopo	7	Julio	2023-07-28T00:00:00	2024-11-08T13:00:00	7	Dirección del viento	9.66
185443	7	Sololá	712	San Antonio Palopó	9	San Antonio Palopo	7	Julio	2023-07-28T00:00:00	2024-11-08T13:00:00	1	Precipitación	0
185444	7	Sololá	712	San Antonio Palopó	9	San Antonio Palopo	7	Julio	2023-07-28T00:00:00	2024-11-08T13:00:00	8	Radiación solar	964
185445	7	Sololá	712	San Antonio Palopó	9	San Antonio Palopo	7	Julio	2023-07-28T00:00:00	2024-11-08T14:00:00	2	Temperatura media	27.8
185446	7	Sololá	712	San Antonio Palopó	9	San Antonio Palopo	7	Julio	2023-07-28T00:00:00	2024-11-08T14:00:00	4	Temperatura máxima	28.4
185447	7	Sololá	712	San Antonio Palopó	9	San Antonio Palopo	7	Julio	2023-07-28T00:00:00	2024-11-08T14:00:00	3	Temperatura mínima	27.4
185448	7	Sololá	712	San Antonio Palopó	9	San Antonio Palopo	7	Julio	2023-07-28T00:00:00	2024-11-08T14:00:00	5	Humedad	44
185449	7	Sololá	712	San Antonio Palopó	9	San Antonio Palopo	7	Julio	2023-07-28T00:00:00	2024-11-08T14:00:00	6	Velocidad del viento	9.7
185450	7	Sololá	712	San Antonio Palopó	9	San Antonio Palopo	7	Julio	2023-07-28T00:00:00	2024-11-08T14:00:00	7	Dirección del viento	9.66
185451	7	Sololá	712	San Antonio Palopó	9	San Antonio Palopo	7	Julio	2023-07-28T00:00:00	2024-11-08T14:00:00	1	Precipitación	0
185452	7	Sololá	712	San Antonio Palopó	9	San Antonio Palopo	7	Julio	2023-07-28T00:00:00	2024-11-08T14:00:00	8	Radiación solar	909
185453	7	Sololá	712	San Antonio Palopó	9	San Antonio Palopo	7	Julio	2023-07-28T00:00:00	2024-11-08T15:00:00	2	Temperatura media	27.4
185454	7	Sololá	712	San Antonio Palopó	9	San Antonio Palopo	7	Julio	2023-07-28T00:00:00	2024-11-08T15:00:00	4	Temperatura máxima	28.4
185455	7	Sololá	712	San Antonio Palopó	9	San Antonio Palopo	7	Julio	2023-07-28T00:00:00	2024-11-08T15:00:00	3	Temperatura mínima	27.3
185456	7	Sololá	712	San Antonio Palopó	9	San Antonio Palopo	7	Julio	2023-07-28T00:00:00	2024-11-08T15:00:00	5	Humedad	47
185457	7	Sololá	712	San Antonio Palopó	9	San Antonio Palopo	7	Julio	2023-07-28T00:00:00	2024-11-08T15:00:00	6	Velocidad del viento	9.7
185458	7	Sololá	712	San Antonio Palopó	9	San Antonio Palopo	7	Julio	2023-07-28T00:00:00	2024-11-08T15:00:00	7	Dirección del viento	9.66
185459	7	Sololá	712	San Antonio Palopó	9	San Antonio Palopo	7	Julio	2023-07-28T00:00:00	2024-11-08T15:00:00	1	Precipitación	0
185460	7	Sololá	712	San Antonio Palopó	9	San Antonio Palopo	7	Julio	2023-07-28T00:00:00	2024-11-08T15:00:00	8	Radiación solar	759
185461	7	Sololá	712	San Antonio Palopó	9	San Antonio Palopo	7	Julio	2023-07-28T00:00:00	2024-11-08T16:00:00	2	Temperatura media	27.1
185462	7	Sololá	712	San Antonio Palopó	9	San Antonio Palopo	7	Julio	2023-07-28T00:00:00	2024-11-08T16:00:00	4	Temperatura máxima	28.6
185463	7	Sololá	712	San Antonio Palopó	9	San Antonio Palopo	7	Julio	2023-07-28T00:00:00	2024-11-08T16:00:00	3	Temperatura mínima	27
185464	7	Sololá	712	San Antonio Palopó	9	San Antonio Palopo	7	Julio	2023-07-28T00:00:00	2024-11-08T16:00:00	5	Humedad	49
185465	7	Sololá	712	San Antonio Palopó	9	San Antonio Palopo	7	Julio	2023-07-28T00:00:00	2024-11-08T16:00:00	6	Velocidad del viento	8
185466	7	Sololá	712	San Antonio Palopó	9	San Antonio Palopo	7	Julio	2023-07-28T00:00:00	2024-11-08T16:00:00	7	Dirección del viento	8.05
185467	7	Sololá	712	San Antonio Palopó	9	San Antonio Palopo	7	Julio	2023-07-28T00:00:00	2024-11-08T16:00:00	1	Precipitación	0
185468	7	Sololá	712	San Antonio Palopó	9	San Antonio Palopo	7	Julio	2023-07-28T00:00:00	2024-11-08T16:00:00	8	Radiación solar	473
185469	7	Sololá	712	San Antonio Palopó	9	San Antonio Palopo	7	Julio	2023-07-28T00:00:00	2024-11-08T17:00:00	2	Temperatura media	25.2
185470	7	Sololá	712	San Antonio Palopó	9	San Antonio Palopo	7	Julio	2023-07-28T00:00:00	2024-11-08T17:00:00	4	Temperatura máxima	27.7
185471	7	Sololá	712	San Antonio Palopó	9	San Antonio Palopo	7	Julio	2023-07-28T00:00:00	2024-11-08T17:00:00	3	Temperatura mínima	25
185472	7	Sololá	712	San Antonio Palopó	9	San Antonio Palopo	7	Julio	2023-07-28T00:00:00	2024-11-08T17:00:00	5	Humedad	65
185473	7	Sololá	712	San Antonio Palopó	9	San Antonio Palopo	7	Julio	2023-07-28T00:00:00	2024-11-08T17:00:00	6	Velocidad del viento	6.4
185474	7	Sololá	712	San Antonio Palopó	9	San Antonio Palopo	7	Julio	2023-07-28T00:00:00	2024-11-08T17:00:00	7	Dirección del viento	6.44
185475	7	Sololá	712	San Antonio Palopó	9	San Antonio Palopo	7	Julio	2023-07-28T00:00:00	2024-11-08T17:00:00	1	Precipitación	0
185476	7	Sololá	712	San Antonio Palopó	9	San Antonio Palopo	7	Julio	2023-07-28T00:00:00	2024-11-08T17:00:00	8	Radiación solar	181
185477	7	Sololá	712	San Antonio Palopó	9	San Antonio Palopo	7	Julio	2023-07-28T00:00:00	2024-11-08T18:00:00	2	Temperatura media	23.6
185478	7	Sololá	712	San Antonio Palopó	9	San Antonio Palopo	7	Julio	2023-07-28T00:00:00	2024-11-08T18:00:00	4	Temperatura máxima	25.4
185479	7	Sololá	712	San Antonio Palopó	9	San Antonio Palopo	7	Julio	2023-07-28T00:00:00	2024-11-08T18:00:00	3	Temperatura mínima	23.6
185480	7	Sololá	712	San Antonio Palopó	9	San Antonio Palopo	7	Julio	2023-07-28T00:00:00	2024-11-08T18:00:00	5	Humedad	76
185481	7	Sololá	712	San Antonio Palopó	9	San Antonio Palopo	7	Julio	2023-07-28T00:00:00	2024-11-08T18:00:00	6	Velocidad del viento	6.4
185482	7	Sololá	712	San Antonio Palopó	9	San Antonio Palopo	7	Julio	2023-07-28T00:00:00	2024-11-08T18:00:00	7	Dirección del viento	6.44
185483	7	Sololá	712	San Antonio Palopó	9	San Antonio Palopo	7	Julio	2023-07-28T00:00:00	2024-11-08T18:00:00	1	Precipitación	0
185484	7	Sololá	712	San Antonio Palopó	9	San Antonio Palopo	7	Julio	2023-07-28T00:00:00	2024-11-08T18:00:00	8	Radiación solar	107
185485	7	Sololá	712	San Antonio Palopó	9	San Antonio Palopo	7	Julio	2023-07-28T00:00:00	2024-11-08T19:00:00	2	Temperatura media	22.9
185486	7	Sololá	712	San Antonio Palopó	9	San Antonio Palopo	7	Julio	2023-07-28T00:00:00	2024-11-08T19:00:00	4	Temperatura máxima	23.6
185487	7	Sololá	712	San Antonio Palopó	9	San Antonio Palopo	7	Julio	2023-07-28T00:00:00	2024-11-08T19:00:00	3	Temperatura mínima	22.9
185488	7	Sololá	712	San Antonio Palopó	9	San Antonio Palopo	7	Julio	2023-07-28T00:00:00	2024-11-08T19:00:00	5	Humedad	76
185489	7	Sololá	712	San Antonio Palopó	9	San Antonio Palopo	7	Julio	2023-07-28T00:00:00	2024-11-08T19:00:00	6	Velocidad del viento	3.2
185490	7	Sololá	712	San Antonio Palopó	9	San Antonio Palopo	7	Julio	2023-07-28T00:00:00	2024-11-08T19:00:00	7	Dirección del viento	3.22
185491	7	Sololá	712	San Antonio Palopó	9	San Antonio Palopo	7	Julio	2023-07-28T00:00:00	2024-11-08T19:00:00	1	Precipitación	0
185492	7	Sololá	712	San Antonio Palopó	9	San Antonio Palopo	7	Julio	2023-07-28T00:00:00	2024-11-08T19:00:00	8	Radiación solar	0
185493	7	Sololá	712	San Antonio Palopó	9	San Antonio Palopo	7	Julio	2023-07-28T00:00:00	2024-11-08T20:00:00	2	Temperatura media	23.5
185494	7	Sololá	712	San Antonio Palopó	9	San Antonio Palopo	7	Julio	2023-07-28T00:00:00	2024-11-08T20:00:00	4	Temperatura máxima	23.8
185495	7	Sololá	712	San Antonio Palopó	9	San Antonio Palopo	7	Julio	2023-07-28T00:00:00	2024-11-08T20:00:00	3	Temperatura mínima	22.9
185496	7	Sololá	712	San Antonio Palopó	9	San Antonio Palopo	7	Julio	2023-07-28T00:00:00	2024-11-08T20:00:00	5	Humedad	66
185497	7	Sololá	712	San Antonio Palopó	9	San Antonio Palopo	7	Julio	2023-07-28T00:00:00	2024-11-08T20:00:00	6	Velocidad del viento	6.4
185498	7	Sololá	712	San Antonio Palopó	9	San Antonio Palopo	7	Julio	2023-07-28T00:00:00	2024-11-08T20:00:00	7	Dirección del viento	6.44
185499	7	Sololá	712	San Antonio Palopó	9	San Antonio Palopo	7	Julio	2023-07-28T00:00:00	2024-11-08T20:00:00	1	Precipitación	0
185500	7	Sololá	712	San Antonio Palopó	9	San Antonio Palopo	7	Julio	2023-07-28T00:00:00	2024-11-08T20:00:00	8	Radiación solar	0
185501	7	Sololá	712	San Antonio Palopó	9	San Antonio Palopo	7	Julio	2023-07-28T00:00:00	2024-11-08T21:00:00	2	Temperatura media	22.8
185502	7	Sololá	712	San Antonio Palopó	9	San Antonio Palopo	7	Julio	2023-07-28T00:00:00	2024-11-08T21:00:00	4	Temperatura máxima	23.5
185503	7	Sololá	712	San Antonio Palopó	9	San Antonio Palopo	7	Julio	2023-07-28T00:00:00	2024-11-08T21:00:00	3	Temperatura mínima	22.8
185504	7	Sololá	712	San Antonio Palopó	9	San Antonio Palopo	7	Julio	2023-07-28T00:00:00	2024-11-08T21:00:00	5	Humedad	68
185505	7	Sololá	712	San Antonio Palopó	9	San Antonio Palopo	7	Julio	2023-07-28T00:00:00	2024-11-08T21:00:00	6	Velocidad del viento	8
185506	7	Sololá	712	San Antonio Palopó	9	San Antonio Palopo	7	Julio	2023-07-28T00:00:00	2024-11-08T21:00:00	7	Dirección del viento	8.05
185507	7	Sololá	712	San Antonio Palopó	9	San Antonio Palopo	7	Julio	2023-07-28T00:00:00	2024-11-08T21:00:00	1	Precipitación	0
185508	7	Sololá	712	San Antonio Palopó	9	San Antonio Palopo	7	Julio	2023-07-28T00:00:00	2024-11-08T21:00:00	8	Radiación solar	0
185509	7	Sololá	712	San Antonio Palopó	9	San Antonio Palopo	7	Julio	2023-07-28T00:00:00	2024-11-08T22:00:00	2	Temperatura media	22.1
185510	7	Sololá	712	San Antonio Palopó	9	San Antonio Palopo	7	Julio	2023-07-28T00:00:00	2024-11-08T22:00:00	4	Temperatura máxima	22.8
185511	7	Sololá	712	San Antonio Palopó	9	San Antonio Palopo	7	Julio	2023-07-28T00:00:00	2024-11-08T22:00:00	3	Temperatura mínima	22.1
185512	7	Sololá	712	San Antonio Palopó	9	San Antonio Palopo	7	Julio	2023-07-28T00:00:00	2024-11-08T22:00:00	5	Humedad	70
185513	7	Sololá	712	San Antonio Palopó	9	San Antonio Palopo	7	Julio	2023-07-28T00:00:00	2024-11-08T22:00:00	6	Velocidad del viento	11.3
185514	7	Sololá	712	San Antonio Palopó	9	San Antonio Palopo	7	Julio	2023-07-28T00:00:00	2024-11-08T22:00:00	7	Dirección del viento	11.27
185515	7	Sololá	712	San Antonio Palopó	9	San Antonio Palopo	7	Julio	2023-07-28T00:00:00	2024-11-08T22:00:00	1	Precipitación	0
185516	7	Sololá	712	San Antonio Palopó	9	San Antonio Palopo	7	Julio	2023-07-28T00:00:00	2024-11-08T22:00:00	8	Radiación solar	0
185517	7	Sololá	712	San Antonio Palopó	9	San Antonio Palopo	7	Julio	2023-07-28T00:00:00	2024-11-08T23:00:00	2	Temperatura media	20.6
185518	7	Sololá	712	San Antonio Palopó	9	San Antonio Palopo	7	Julio	2023-07-28T00:00:00	2024-11-08T23:00:00	4	Temperatura máxima	22.2
185519	7	Sololá	712	San Antonio Palopó	9	San Antonio Palopo	7	Julio	2023-07-28T00:00:00	2024-11-08T23:00:00	3	Temperatura mínima	20.5
185520	7	Sololá	712	San Antonio Palopó	9	San Antonio Palopo	7	Julio	2023-07-28T00:00:00	2024-11-08T23:00:00	5	Humedad	71
185521	7	Sololá	712	San Antonio Palopó	9	San Antonio Palopo	7	Julio	2023-07-28T00:00:00	2024-11-08T23:00:00	6	Velocidad del viento	11.3
185522	7	Sololá	712	San Antonio Palopó	9	San Antonio Palopo	7	Julio	2023-07-28T00:00:00	2024-11-08T23:00:00	7	Dirección del viento	11.27
185523	7	Sololá	712	San Antonio Palopó	9	San Antonio Palopo	7	Julio	2023-07-28T00:00:00	2024-11-08T23:00:00	1	Precipitación	1
185524	7	Sololá	712	San Antonio Palopó	9	San Antonio Palopo	7	Julio	2023-07-28T00:00:00	2024-11-08T23:00:00	8	Radiación solar	0
185525	7	Sololá	712	San Antonio Palopó	9	San Antonio Palopo	7	Julio	2023-07-29T00:00:00	2024-11-08T00:00:00	2	Temperatura media	20.8
185526	7	Sololá	712	San Antonio Palopó	9	San Antonio Palopo	7	Julio	2023-07-29T00:00:00	2024-11-08T00:00:00	4	Temperatura máxima	21.1
185527	7	Sololá	712	San Antonio Palopó	9	San Antonio Palopo	7	Julio	2023-07-29T00:00:00	2024-11-08T00:00:00	3	Temperatura mínima	20.3
185528	7	Sololá	712	San Antonio Palopó	9	San Antonio Palopo	7	Julio	2023-07-29T00:00:00	2024-11-08T00:00:00	5	Humedad	71
185529	7	Sololá	712	San Antonio Palopó	9	San Antonio Palopo	7	Julio	2023-07-29T00:00:00	2024-11-08T00:00:00	6	Velocidad del viento	3.2
185530	7	Sololá	712	San Antonio Palopó	9	San Antonio Palopo	7	Julio	2023-07-29T00:00:00	2024-11-08T00:00:00	7	Dirección del viento	3.22
185531	7	Sololá	712	San Antonio Palopó	9	San Antonio Palopo	7	Julio	2023-07-29T00:00:00	2024-11-08T00:00:00	1	Precipitación	0
185532	7	Sololá	712	San Antonio Palopó	9	San Antonio Palopo	7	Julio	2023-07-29T00:00:00	2024-11-08T00:00:00	8	Radiación solar	0
185533	7	Sololá	712	San Antonio Palopó	9	San Antonio Palopo	7	Julio	2023-07-29T00:00:00	2024-11-08T01:00:00	2	Temperatura media	20.6
185534	7	Sololá	712	San Antonio Palopó	9	San Antonio Palopo	7	Julio	2023-07-29T00:00:00	2024-11-08T01:00:00	4	Temperatura máxima	20.8
185535	7	Sololá	712	San Antonio Palopó	9	San Antonio Palopo	7	Julio	2023-07-29T00:00:00	2024-11-08T01:00:00	3	Temperatura mínima	19.9
185536	7	Sololá	712	San Antonio Palopó	9	San Antonio Palopo	7	Julio	2023-07-29T00:00:00	2024-11-08T01:00:00	5	Humedad	72
185537	7	Sololá	712	San Antonio Palopó	9	San Antonio Palopo	7	Julio	2023-07-29T00:00:00	2024-11-08T01:00:00	6	Velocidad del viento	4.8
185538	7	Sololá	712	San Antonio Palopó	9	San Antonio Palopo	7	Julio	2023-07-29T00:00:00	2024-11-08T01:00:00	7	Dirección del viento	4.83
185539	7	Sololá	712	San Antonio Palopó	9	San Antonio Palopo	7	Julio	2023-07-29T00:00:00	2024-11-08T01:00:00	1	Precipitación	0
185540	7	Sololá	712	San Antonio Palopó	9	San Antonio Palopo	7	Julio	2023-07-29T00:00:00	2024-11-08T01:00:00	8	Radiación solar	0
185541	7	Sololá	712	San Antonio Palopó	9	San Antonio Palopo	7	Julio	2023-07-29T00:00:00	2024-11-08T02:00:00	2	Temperatura media	21.1
185542	7	Sololá	712	San Antonio Palopó	9	San Antonio Palopo	7	Julio	2023-07-29T00:00:00	2024-11-08T02:00:00	4	Temperatura máxima	21.3
185543	7	Sololá	712	San Antonio Palopó	9	San Antonio Palopo	7	Julio	2023-07-29T00:00:00	2024-11-08T02:00:00	3	Temperatura mínima	20.5
185544	7	Sololá	712	San Antonio Palopó	9	San Antonio Palopo	7	Julio	2023-07-29T00:00:00	2024-11-08T02:00:00	5	Humedad	70
185545	7	Sololá	712	San Antonio Palopó	9	San Antonio Palopo	7	Julio	2023-07-29T00:00:00	2024-11-08T02:00:00	6	Velocidad del viento	4.8
185546	7	Sololá	712	San Antonio Palopó	9	San Antonio Palopo	7	Julio	2023-07-29T00:00:00	2024-11-08T02:00:00	7	Dirección del viento	4.83
185547	7	Sololá	712	San Antonio Palopó	9	San Antonio Palopo	7	Julio	2023-07-29T00:00:00	2024-11-08T02:00:00	1	Precipitación	0
185548	7	Sololá	712	San Antonio Palopó	9	San Antonio Palopo	7	Julio	2023-07-29T00:00:00	2024-11-08T02:00:00	8	Radiación solar	0
185549	7	Sololá	712	San Antonio Palopó	9	San Antonio Palopo	7	Julio	2023-07-29T00:00:00	2024-11-08T03:00:00	2	Temperatura media	20.2
185550	7	Sololá	712	San Antonio Palopó	9	San Antonio Palopo	7	Julio	2023-07-29T00:00:00	2024-11-08T03:00:00	4	Temperatura máxima	21.2
185551	7	Sololá	712	San Antonio Palopó	9	San Antonio Palopo	7	Julio	2023-07-29T00:00:00	2024-11-08T03:00:00	3	Temperatura mínima	20.1
185552	7	Sololá	712	San Antonio Palopó	9	San Antonio Palopo	7	Julio	2023-07-29T00:00:00	2024-11-08T03:00:00	5	Humedad	75
185553	7	Sololá	712	San Antonio Palopó	9	San Antonio Palopo	7	Julio	2023-07-29T00:00:00	2024-11-08T03:00:00	6	Velocidad del viento	6.4
185554	7	Sololá	712	San Antonio Palopó	9	San Antonio Palopo	7	Julio	2023-07-29T00:00:00	2024-11-08T03:00:00	7	Dirección del viento	6.44
185555	7	Sololá	712	San Antonio Palopó	9	San Antonio Palopo	7	Julio	2023-07-29T00:00:00	2024-11-08T03:00:00	1	Precipitación	0
185556	7	Sololá	712	San Antonio Palopó	9	San Antonio Palopo	7	Julio	2023-07-29T00:00:00	2024-11-08T03:00:00	8	Radiación solar	0
185557	7	Sololá	712	San Antonio Palopó	9	San Antonio Palopo	7	Julio	2023-07-29T00:00:00	2024-11-08T04:00:00	2	Temperatura media	18.6
185558	7	Sololá	712	San Antonio Palopó	9	San Antonio Palopo	7	Julio	2023-07-29T00:00:00	2024-11-08T04:00:00	4	Temperatura máxima	20.2
185559	7	Sololá	712	San Antonio Palopó	9	San Antonio Palopo	7	Julio	2023-07-29T00:00:00	2024-11-08T04:00:00	3	Temperatura mínima	18.6
185560	7	Sololá	712	San Antonio Palopó	9	San Antonio Palopo	7	Julio	2023-07-29T00:00:00	2024-11-08T04:00:00	5	Humedad	85
185561	7	Sololá	712	San Antonio Palopó	9	San Antonio Palopo	7	Julio	2023-07-29T00:00:00	2024-11-08T04:00:00	6	Velocidad del viento	3.2
185562	7	Sololá	712	San Antonio Palopó	9	San Antonio Palopo	7	Julio	2023-07-29T00:00:00	2024-11-08T04:00:00	7	Dirección del viento	3.22
185563	7	Sololá	712	San Antonio Palopó	9	San Antonio Palopo	7	Julio	2023-07-29T00:00:00	2024-11-08T04:00:00	1	Precipitación	0.8
185564	7	Sololá	712	San Antonio Palopó	9	San Antonio Palopo	7	Julio	2023-07-29T00:00:00	2024-11-08T04:00:00	8	Radiación solar	0
185565	7	Sololá	712	San Antonio Palopó	9	San Antonio Palopo	7	Julio	2023-07-29T00:00:00	2024-11-08T05:00:00	2	Temperatura media	18.1
185566	7	Sololá	712	San Antonio Palopó	9	San Antonio Palopo	7	Julio	2023-07-29T00:00:00	2024-11-08T05:00:00	4	Temperatura máxima	18.6
185567	7	Sololá	712	San Antonio Palopó	9	San Antonio Palopo	7	Julio	2023-07-29T00:00:00	2024-11-08T05:00:00	3	Temperatura mínima	18
185568	7	Sololá	712	San Antonio Palopó	9	San Antonio Palopo	7	Julio	2023-07-29T00:00:00	2024-11-08T05:00:00	5	Humedad	87
185569	7	Sololá	712	San Antonio Palopó	9	San Antonio Palopo	7	Julio	2023-07-29T00:00:00	2024-11-08T05:00:00	6	Velocidad del viento	3.2
185570	7	Sololá	712	San Antonio Palopó	9	San Antonio Palopo	7	Julio	2023-07-29T00:00:00	2024-11-08T05:00:00	7	Dirección del viento	3.22
185571	7	Sololá	712	San Antonio Palopó	9	San Antonio Palopo	7	Julio	2023-07-29T00:00:00	2024-11-08T05:00:00	1	Precipitación	1.8
185572	7	Sololá	712	San Antonio Palopó	9	San Antonio Palopo	7	Julio	2023-07-29T00:00:00	2024-11-08T05:00:00	8	Radiación solar	0
185573	7	Sololá	712	San Antonio Palopó	9	San Antonio Palopo	7	Julio	2023-07-29T00:00:00	2024-11-08T06:00:00	2	Temperatura media	18.2
185574	7	Sololá	712	San Antonio Palopó	9	San Antonio Palopo	7	Julio	2023-07-29T00:00:00	2024-11-08T06:00:00	4	Temperatura máxima	18.3
185575	7	Sololá	712	San Antonio Palopó	9	San Antonio Palopo	7	Julio	2023-07-29T00:00:00	2024-11-08T06:00:00	3	Temperatura mínima	17.9
185576	7	Sololá	712	San Antonio Palopó	9	San Antonio Palopo	7	Julio	2023-07-29T00:00:00	2024-11-08T06:00:00	5	Humedad	87
185577	7	Sololá	712	San Antonio Palopó	9	San Antonio Palopo	7	Julio	2023-07-29T00:00:00	2024-11-08T06:00:00	6	Velocidad del viento	1.6
185578	7	Sololá	712	San Antonio Palopó	9	San Antonio Palopo	7	Julio	2023-07-29T00:00:00	2024-11-08T06:00:00	7	Dirección del viento	1.61
185579	7	Sololá	712	San Antonio Palopó	9	San Antonio Palopo	7	Julio	2023-07-29T00:00:00	2024-11-08T06:00:00	1	Precipitación	0.4
185580	7	Sololá	712	San Antonio Palopó	9	San Antonio Palopo	7	Julio	2023-07-29T00:00:00	2024-11-08T06:00:00	8	Radiación solar	0
185581	7	Sololá	712	San Antonio Palopó	9	San Antonio Palopo	7	Julio	2023-07-29T00:00:00	2024-11-08T07:00:00	2	Temperatura media	19.1
185582	7	Sololá	712	San Antonio Palopó	9	San Antonio Palopo	7	Julio	2023-07-29T00:00:00	2024-11-08T07:00:00	4	Temperatura máxima	19.1
185583	7	Sololá	712	San Antonio Palopó	9	San Antonio Palopo	7	Julio	2023-07-29T00:00:00	2024-11-08T07:00:00	3	Temperatura mínima	17.8
185584	7	Sololá	712	San Antonio Palopó	9	San Antonio Palopo	7	Julio	2023-07-29T00:00:00	2024-11-08T07:00:00	5	Humedad	83
185585	7	Sololá	712	San Antonio Palopó	9	San Antonio Palopo	7	Julio	2023-07-29T00:00:00	2024-11-08T07:00:00	6	Velocidad del viento	3.2
185586	7	Sololá	712	San Antonio Palopó	9	San Antonio Palopo	7	Julio	2023-07-29T00:00:00	2024-11-08T07:00:00	7	Dirección del viento	3.22
185587	7	Sololá	712	San Antonio Palopó	9	San Antonio Palopo	7	Julio	2023-07-29T00:00:00	2024-11-08T07:00:00	1	Precipitación	0.2
185588	7	Sololá	712	San Antonio Palopó	9	San Antonio Palopo	7	Julio	2023-07-29T00:00:00	2024-11-08T07:00:00	8	Radiación solar	42
185589	7	Sololá	712	San Antonio Palopó	9	San Antonio Palopo	7	Julio	2023-07-29T00:00:00	2024-11-08T08:00:00	2	Temperatura media	20.5
185590	7	Sololá	712	San Antonio Palopó	9	San Antonio Palopo	7	Julio	2023-07-29T00:00:00	2024-11-08T08:00:00	4	Temperatura máxima	20.5
185591	7	Sololá	712	San Antonio Palopó	9	San Antonio Palopo	7	Julio	2023-07-29T00:00:00	2024-11-08T08:00:00	3	Temperatura mínima	19.1
185592	7	Sololá	712	San Antonio Palopó	9	San Antonio Palopo	7	Julio	2023-07-29T00:00:00	2024-11-08T08:00:00	5	Humedad	78
185593	7	Sololá	712	San Antonio Palopó	9	San Antonio Palopo	7	Julio	2023-07-29T00:00:00	2024-11-08T08:00:00	6	Velocidad del viento	1.6
185594	7	Sololá	712	San Antonio Palopó	9	San Antonio Palopo	7	Julio	2023-07-29T00:00:00	2024-11-08T08:00:00	7	Dirección del viento	1.61
185595	7	Sololá	712	San Antonio Palopó	9	San Antonio Palopo	7	Julio	2023-07-29T00:00:00	2024-11-08T08:00:00	1	Precipitación	0
185596	7	Sololá	712	San Antonio Palopó	9	San Antonio Palopo	7	Julio	2023-07-29T00:00:00	2024-11-08T08:00:00	8	Radiación solar	149
185597	7	Sololá	712	San Antonio Palopó	9	San Antonio Palopo	7	Julio	2023-07-29T00:00:00	2024-11-08T09:00:00	2	Temperatura media	21.1
185598	7	Sololá	712	San Antonio Palopó	9	San Antonio Palopo	7	Julio	2023-07-29T00:00:00	2024-11-08T09:00:00	4	Temperatura máxima	21.4
185599	7	Sololá	712	San Antonio Palopó	9	San Antonio Palopo	7	Julio	2023-07-29T00:00:00	2024-11-08T09:00:00	3	Temperatura mínima	20.5
185600	7	Sololá	712	San Antonio Palopó	9	San Antonio Palopo	7	Julio	2023-07-29T00:00:00	2024-11-08T09:00:00	5	Humedad	78
185601	7	Sololá	712	San Antonio Palopó	9	San Antonio Palopo	7	Julio	2023-07-29T00:00:00	2024-11-08T09:00:00	6	Velocidad del viento	3.2
185602	7	Sololá	712	San Antonio Palopó	9	San Antonio Palopo	7	Julio	2023-07-29T00:00:00	2024-11-08T09:00:00	7	Dirección del viento	3.22
185603	7	Sololá	712	San Antonio Palopó	9	San Antonio Palopo	7	Julio	2023-07-29T00:00:00	2024-11-08T09:00:00	1	Precipitación	0.6
185604	7	Sololá	712	San Antonio Palopó	9	San Antonio Palopo	7	Julio	2023-07-29T00:00:00	2024-11-08T09:00:00	8	Radiación solar	277
185605	7	Sololá	712	San Antonio Palopó	9	San Antonio Palopo	7	Julio	2023-07-29T00:00:00	2024-11-08T10:00:00	2	Temperatura media	21.9
185606	7	Sololá	712	San Antonio Palopó	9	San Antonio Palopo	7	Julio	2023-07-29T00:00:00	2024-11-08T10:00:00	4	Temperatura máxima	21.9
185607	7	Sololá	712	San Antonio Palopó	9	San Antonio Palopo	7	Julio	2023-07-29T00:00:00	2024-11-08T10:00:00	3	Temperatura mínima	20.8
185608	7	Sololá	712	San Antonio Palopó	9	San Antonio Palopo	7	Julio	2023-07-29T00:00:00	2024-11-08T10:00:00	5	Humedad	72
185609	7	Sololá	712	San Antonio Palopó	9	San Antonio Palopo	7	Julio	2023-07-29T00:00:00	2024-11-08T10:00:00	6	Velocidad del viento	4.8
185610	7	Sololá	712	San Antonio Palopó	9	San Antonio Palopo	7	Julio	2023-07-29T00:00:00	2024-11-08T10:00:00	7	Dirección del viento	4.83
185611	7	Sololá	712	San Antonio Palopó	9	San Antonio Palopo	7	Julio	2023-07-29T00:00:00	2024-11-08T10:00:00	1	Precipitación	0.2
185612	7	Sololá	712	San Antonio Palopó	9	San Antonio Palopo	7	Julio	2023-07-29T00:00:00	2024-11-08T10:00:00	8	Radiación solar	402
185613	7	Sololá	712	San Antonio Palopó	9	San Antonio Palopo	7	Julio	2023-07-29T00:00:00	2024-11-08T11:00:00	2	Temperatura media	21.8
185614	7	Sololá	712	San Antonio Palopó	9	San Antonio Palopo	7	Julio	2023-07-29T00:00:00	2024-11-08T11:00:00	4	Temperatura máxima	22.3
185615	7	Sololá	712	San Antonio Palopó	9	San Antonio Palopo	7	Julio	2023-07-29T00:00:00	2024-11-08T11:00:00	3	Temperatura mínima	21.7
185616	7	Sololá	712	San Antonio Palopó	9	San Antonio Palopo	7	Julio	2023-07-29T00:00:00	2024-11-08T11:00:00	5	Humedad	73
185617	7	Sololá	712	San Antonio Palopó	9	San Antonio Palopo	7	Julio	2023-07-29T00:00:00	2024-11-08T11:00:00	6	Velocidad del viento	6.4
185618	7	Sololá	712	San Antonio Palopó	9	San Antonio Palopo	7	Julio	2023-07-29T00:00:00	2024-11-08T11:00:00	7	Dirección del viento	6.44
185619	7	Sololá	712	San Antonio Palopó	9	San Antonio Palopo	7	Julio	2023-07-29T00:00:00	2024-11-08T11:00:00	1	Precipitación	0
185620	7	Sololá	712	San Antonio Palopó	9	San Antonio Palopo	7	Julio	2023-07-29T00:00:00	2024-11-08T11:00:00	8	Radiación solar	339
185621	7	Sololá	712	San Antonio Palopó	9	San Antonio Palopo	7	Julio	2023-07-29T00:00:00	2024-11-08T12:00:00	2	Temperatura media	20.1
185622	7	Sololá	712	San Antonio Palopó	9	San Antonio Palopo	7	Julio	2023-07-29T00:00:00	2024-11-08T12:00:00	4	Temperatura máxima	22.4
185623	7	Sololá	712	San Antonio Palopó	9	San Antonio Palopo	7	Julio	2023-07-29T00:00:00	2024-11-08T12:00:00	3	Temperatura mínima	20.1
185624	7	Sololá	712	San Antonio Palopó	9	San Antonio Palopo	7	Julio	2023-07-29T00:00:00	2024-11-08T12:00:00	5	Humedad	79
185625	7	Sololá	712	San Antonio Palopó	9	San Antonio Palopo	7	Julio	2023-07-29T00:00:00	2024-11-08T12:00:00	6	Velocidad del viento	8
185626	7	Sololá	712	San Antonio Palopó	9	San Antonio Palopo	7	Julio	2023-07-29T00:00:00	2024-11-08T12:00:00	7	Dirección del viento	8.05
185627	7	Sololá	712	San Antonio Palopó	9	San Antonio Palopo	7	Julio	2023-07-29T00:00:00	2024-11-08T12:00:00	1	Precipitación	1
185628	7	Sololá	712	San Antonio Palopó	9	San Antonio Palopo	7	Julio	2023-07-29T00:00:00	2024-11-08T12:00:00	8	Radiación solar	254
185629	7	Sololá	712	San Antonio Palopó	9	San Antonio Palopo	7	Julio	2023-07-29T00:00:00	2024-11-08T13:00:00	2	Temperatura media	19.6
185630	7	Sololá	712	San Antonio Palopó	9	San Antonio Palopo	7	Julio	2023-07-29T00:00:00	2024-11-08T13:00:00	4	Temperatura máxima	20.2
185631	7	Sololá	712	San Antonio Palopó	9	San Antonio Palopo	7	Julio	2023-07-29T00:00:00	2024-11-08T13:00:00	3	Temperatura mínima	19.6
185632	7	Sololá	712	San Antonio Palopó	9	San Antonio Palopo	7	Julio	2023-07-29T00:00:00	2024-11-08T13:00:00	5	Humedad	80
185633	7	Sololá	712	San Antonio Palopó	9	San Antonio Palopo	7	Julio	2023-07-29T00:00:00	2024-11-08T13:00:00	6	Velocidad del viento	8
185634	7	Sololá	712	San Antonio Palopó	9	San Antonio Palopo	7	Julio	2023-07-29T00:00:00	2024-11-08T13:00:00	7	Dirección del viento	8.05
185635	7	Sololá	712	San Antonio Palopó	9	San Antonio Palopo	7	Julio	2023-07-29T00:00:00	2024-11-08T13:00:00	1	Precipitación	4.4
185636	7	Sololá	712	San Antonio Palopó	9	San Antonio Palopo	7	Julio	2023-07-29T00:00:00	2024-11-08T13:00:00	8	Radiación solar	189
185637	7	Sololá	712	San Antonio Palopó	9	San Antonio Palopo	7	Julio	2023-07-29T00:00:00	2024-11-08T14:00:00	2	Temperatura media	20.4
185638	7	Sololá	712	San Antonio Palopó	9	San Antonio Palopo	7	Julio	2023-07-29T00:00:00	2024-11-08T14:00:00	4	Temperatura máxima	20.8
185639	7	Sololá	712	San Antonio Palopó	9	San Antonio Palopo	7	Julio	2023-07-29T00:00:00	2024-11-08T14:00:00	3	Temperatura mínima	19.6
185640	7	Sololá	712	San Antonio Palopó	9	San Antonio Palopo	7	Julio	2023-07-29T00:00:00	2024-11-08T14:00:00	5	Humedad	80
185641	7	Sololá	712	San Antonio Palopó	9	San Antonio Palopo	7	Julio	2023-07-29T00:00:00	2024-11-08T14:00:00	6	Velocidad del viento	6.4
185642	7	Sololá	712	San Antonio Palopó	9	San Antonio Palopo	7	Julio	2023-07-29T00:00:00	2024-11-08T14:00:00	7	Dirección del viento	6.44
185643	7	Sololá	712	San Antonio Palopó	9	San Antonio Palopo	7	Julio	2023-07-29T00:00:00	2024-11-08T14:00:00	1	Precipitación	0.4
185644	7	Sololá	712	San Antonio Palopó	9	San Antonio Palopo	7	Julio	2023-07-29T00:00:00	2024-11-08T14:00:00	8	Radiación solar	224
185645	7	Sololá	712	San Antonio Palopó	9	San Antonio Palopo	7	Julio	2023-07-29T00:00:00	2024-11-08T15:00:00	2	Temperatura media	21.9
185646	7	Sololá	712	San Antonio Palopó	9	San Antonio Palopo	7	Julio	2023-07-29T00:00:00	2024-11-08T15:00:00	4	Temperatura máxima	21.9
185647	7	Sololá	712	San Antonio Palopó	9	San Antonio Palopo	7	Julio	2023-07-29T00:00:00	2024-11-08T15:00:00	3	Temperatura mínima	20.3
185648	7	Sololá	712	San Antonio Palopó	9	San Antonio Palopo	7	Julio	2023-07-29T00:00:00	2024-11-08T15:00:00	5	Humedad	77
185649	7	Sololá	712	San Antonio Palopó	9	San Antonio Palopo	7	Julio	2023-07-29T00:00:00	2024-11-08T15:00:00	6	Velocidad del viento	3.2
185650	7	Sololá	712	San Antonio Palopó	9	San Antonio Palopo	7	Julio	2023-07-29T00:00:00	2024-11-08T15:00:00	7	Dirección del viento	3.22
185651	7	Sololá	712	San Antonio Palopó	9	San Antonio Palopo	7	Julio	2023-07-29T00:00:00	2024-11-08T15:00:00	1	Precipitación	0
185652	7	Sololá	712	San Antonio Palopó	9	San Antonio Palopo	7	Julio	2023-07-29T00:00:00	2024-11-08T15:00:00	8	Radiación solar	304
185653	7	Sololá	712	San Antonio Palopó	9	San Antonio Palopo	7	Julio	2023-07-29T00:00:00	2024-11-08T16:00:00	2	Temperatura media	23.4
185654	7	Sololá	712	San Antonio Palopó	9	San Antonio Palopo	7	Julio	2023-07-29T00:00:00	2024-11-08T16:00:00	4	Temperatura máxima	24.1
185655	7	Sololá	712	San Antonio Palopó	9	San Antonio Palopo	7	Julio	2023-07-29T00:00:00	2024-11-08T16:00:00	3	Temperatura mínima	21.8
185656	7	Sololá	712	San Antonio Palopó	9	San Antonio Palopo	7	Julio	2023-07-29T00:00:00	2024-11-08T16:00:00	5	Humedad	69
185657	7	Sololá	712	San Antonio Palopó	9	San Antonio Palopo	7	Julio	2023-07-29T00:00:00	2024-11-08T16:00:00	6	Velocidad del viento	6.4
185658	7	Sololá	712	San Antonio Palopó	9	San Antonio Palopo	7	Julio	2023-07-29T00:00:00	2024-11-08T16:00:00	7	Dirección del viento	6.44
185659	7	Sololá	712	San Antonio Palopó	9	San Antonio Palopo	7	Julio	2023-07-29T00:00:00	2024-11-08T16:00:00	1	Precipitación	0
185660	7	Sololá	712	San Antonio Palopó	9	San Antonio Palopo	7	Julio	2023-07-29T00:00:00	2024-11-08T16:00:00	8	Radiación solar	477
185661	7	Sololá	712	San Antonio Palopó	9	San Antonio Palopo	7	Julio	2023-07-29T00:00:00	2024-11-08T17:00:00	2	Temperatura media	22.9
185662	7	Sololá	712	San Antonio Palopó	9	San Antonio Palopo	7	Julio	2023-07-29T00:00:00	2024-11-08T17:00:00	4	Temperatura máxima	23.6
185663	7	Sololá	712	San Antonio Palopó	9	San Antonio Palopo	7	Julio	2023-07-29T00:00:00	2024-11-08T17:00:00	3	Temperatura mínima	22.8
185664	7	Sololá	712	San Antonio Palopó	9	San Antonio Palopo	7	Julio	2023-07-29T00:00:00	2024-11-08T17:00:00	5	Humedad	70
185665	7	Sololá	712	San Antonio Palopó	9	San Antonio Palopo	7	Julio	2023-07-29T00:00:00	2024-11-08T17:00:00	6	Velocidad del viento	4.8
185666	7	Sololá	712	San Antonio Palopó	9	San Antonio Palopo	7	Julio	2023-07-29T00:00:00	2024-11-08T17:00:00	7	Dirección del viento	4.83
185667	7	Sololá	712	San Antonio Palopó	9	San Antonio Palopo	7	Julio	2023-07-29T00:00:00	2024-11-08T17:00:00	1	Precipitación	0
185668	7	Sololá	712	San Antonio Palopó	9	San Antonio Palopo	7	Julio	2023-07-29T00:00:00	2024-11-08T17:00:00	8	Radiación solar	156
185669	7	Sololá	712	San Antonio Palopó	9	San Antonio Palopo	7	Julio	2023-07-29T00:00:00	2024-11-08T18:00:00	2	Temperatura media	19.9
185670	7	Sololá	712	San Antonio Palopó	9	San Antonio Palopo	7	Julio	2023-07-29T00:00:00	2024-11-08T18:00:00	4	Temperatura máxima	22.9
185671	7	Sololá	712	San Antonio Palopó	9	San Antonio Palopo	7	Julio	2023-07-29T00:00:00	2024-11-08T18:00:00	3	Temperatura mínima	19.9
185672	7	Sololá	712	San Antonio Palopó	9	San Antonio Palopo	7	Julio	2023-07-29T00:00:00	2024-11-08T18:00:00	5	Humedad	88
185673	7	Sololá	712	San Antonio Palopó	9	San Antonio Palopo	7	Julio	2023-07-29T00:00:00	2024-11-08T18:00:00	6	Velocidad del viento	8
185674	7	Sololá	712	San Antonio Palopó	9	San Antonio Palopo	7	Julio	2023-07-29T00:00:00	2024-11-08T18:00:00	7	Dirección del viento	8.05
185675	7	Sololá	712	San Antonio Palopó	9	San Antonio Palopo	7	Julio	2023-07-29T00:00:00	2024-11-08T18:00:00	1	Precipitación	1.6
185676	7	Sololá	712	San Antonio Palopó	9	San Antonio Palopo	7	Julio	2023-07-29T00:00:00	2024-11-08T18:00:00	8	Radiación solar	16
185677	7	Sololá	712	San Antonio Palopó	9	San Antonio Palopo	7	Julio	2023-07-29T00:00:00	2024-11-08T19:00:00	2	Temperatura media	19.1
185678	7	Sololá	712	San Antonio Palopó	9	San Antonio Palopo	7	Julio	2023-07-29T00:00:00	2024-11-08T19:00:00	4	Temperatura máxima	19.9
185679	7	Sololá	712	San Antonio Palopó	9	San Antonio Palopo	7	Julio	2023-07-29T00:00:00	2024-11-08T19:00:00	3	Temperatura mínima	18.9
185680	7	Sololá	712	San Antonio Palopó	9	San Antonio Palopo	7	Julio	2023-07-29T00:00:00	2024-11-08T19:00:00	5	Humedad	90
185681	7	Sololá	712	San Antonio Palopó	9	San Antonio Palopo	7	Julio	2023-07-29T00:00:00	2024-11-08T19:00:00	6	Velocidad del viento	3.2
185682	7	Sololá	712	San Antonio Palopó	9	San Antonio Palopo	7	Julio	2023-07-29T00:00:00	2024-11-08T19:00:00	7	Dirección del viento	3.22
185683	7	Sololá	712	San Antonio Palopó	9	San Antonio Palopo	7	Julio	2023-07-29T00:00:00	2024-11-08T19:00:00	1	Precipitación	4.2
185684	7	Sololá	712	San Antonio Palopó	9	San Antonio Palopo	7	Julio	2023-07-29T00:00:00	2024-11-08T19:00:00	8	Radiación solar	0
185685	7	Sololá	712	San Antonio Palopó	9	San Antonio Palopo	7	Julio	2023-07-29T00:00:00	2024-11-08T20:00:00	2	Temperatura media	18.9
185686	7	Sololá	712	San Antonio Palopó	9	San Antonio Palopo	7	Julio	2023-07-29T00:00:00	2024-11-08T20:00:00	4	Temperatura máxima	19.3
185687	7	Sololá	712	San Antonio Palopó	9	San Antonio Palopo	7	Julio	2023-07-29T00:00:00	2024-11-08T20:00:00	3	Temperatura mínima	18.9
185688	7	Sololá	712	San Antonio Palopó	9	San Antonio Palopo	7	Julio	2023-07-29T00:00:00	2024-11-08T20:00:00	5	Humedad	81
185689	7	Sololá	712	San Antonio Palopó	9	San Antonio Palopo	7	Julio	2023-07-29T00:00:00	2024-11-08T20:00:00	6	Velocidad del viento	3.2
185690	7	Sololá	712	San Antonio Palopó	9	San Antonio Palopo	7	Julio	2023-07-29T00:00:00	2024-11-08T20:00:00	7	Dirección del viento	3.22
185691	7	Sololá	712	San Antonio Palopó	9	San Antonio Palopo	7	Julio	2023-07-29T00:00:00	2024-11-08T20:00:00	1	Precipitación	4.6
185692	7	Sololá	712	San Antonio Palopó	9	San Antonio Palopo	7	Julio	2023-07-29T00:00:00	2024-11-08T20:00:00	8	Radiación solar	0
185693	7	Sololá	712	San Antonio Palopó	9	San Antonio Palopo	7	Julio	2023-07-29T00:00:00	2024-11-08T21:00:00	2	Temperatura media	18.8
185694	7	Sololá	712	San Antonio Palopó	9	San Antonio Palopo	7	Julio	2023-07-29T00:00:00	2024-11-08T21:00:00	4	Temperatura máxima	19.2
185695	7	Sololá	712	San Antonio Palopó	9	San Antonio Palopo	7	Julio	2023-07-29T00:00:00	2024-11-08T21:00:00	3	Temperatura mínima	18.4
185696	7	Sololá	712	San Antonio Palopó	9	San Antonio Palopo	7	Julio	2023-07-29T00:00:00	2024-11-08T21:00:00	5	Humedad	86
185697	7	Sololá	712	San Antonio Palopó	9	San Antonio Palopo	7	Julio	2023-07-29T00:00:00	2024-11-08T21:00:00	6	Velocidad del viento	6.4
185698	7	Sololá	712	San Antonio Palopó	9	San Antonio Palopo	7	Julio	2023-07-29T00:00:00	2024-11-08T21:00:00	7	Dirección del viento	6.44
185699	7	Sololá	712	San Antonio Palopó	9	San Antonio Palopo	7	Julio	2023-07-29T00:00:00	2024-11-08T21:00:00	1	Precipitación	4.8
185700	7	Sololá	712	San Antonio Palopó	9	San Antonio Palopo	7	Julio	2023-07-29T00:00:00	2024-11-08T21:00:00	8	Radiación solar	0
185701	7	Sololá	712	San Antonio Palopó	9	San Antonio Palopo	7	Julio	2023-07-29T00:00:00	2024-11-08T22:00:00	2	Temperatura media	18.1
185702	7	Sololá	712	San Antonio Palopó	9	San Antonio Palopo	7	Julio	2023-07-29T00:00:00	2024-11-08T22:00:00	4	Temperatura máxima	18.8
185703	7	Sololá	712	San Antonio Palopó	9	San Antonio Palopo	7	Julio	2023-07-29T00:00:00	2024-11-08T22:00:00	3	Temperatura mínima	18.1
185704	7	Sololá	712	San Antonio Palopó	9	San Antonio Palopo	7	Julio	2023-07-29T00:00:00	2024-11-08T22:00:00	5	Humedad	89
185705	7	Sololá	712	San Antonio Palopó	9	San Antonio Palopo	7	Julio	2023-07-29T00:00:00	2024-11-08T22:00:00	6	Velocidad del viento	3.2
185706	7	Sololá	712	San Antonio Palopó	9	San Antonio Palopo	7	Julio	2023-07-29T00:00:00	2024-11-08T22:00:00	7	Dirección del viento	3.22
185707	7	Sololá	712	San Antonio Palopó	9	San Antonio Palopo	7	Julio	2023-07-29T00:00:00	2024-11-08T22:00:00	1	Precipitación	1.6
185708	7	Sololá	712	San Antonio Palopó	9	San Antonio Palopo	7	Julio	2023-07-29T00:00:00	2024-11-08T22:00:00	8	Radiación solar	0
185709	7	Sololá	712	San Antonio Palopó	9	San Antonio Palopo	7	Julio	2023-07-29T00:00:00	2024-11-08T23:00:00	2	Temperatura media	18.2
185710	7	Sololá	712	San Antonio Palopó	9	San Antonio Palopo	7	Julio	2023-07-29T00:00:00	2024-11-08T23:00:00	4	Temperatura máxima	18.2
185711	7	Sololá	712	San Antonio Palopó	9	San Antonio Palopo	7	Julio	2023-07-29T00:00:00	2024-11-08T23:00:00	3	Temperatura mínima	17.9
185712	7	Sololá	712	San Antonio Palopó	9	San Antonio Palopo	7	Julio	2023-07-29T00:00:00	2024-11-08T23:00:00	5	Humedad	87
185713	7	Sololá	712	San Antonio Palopó	9	San Antonio Palopo	7	Julio	2023-07-29T00:00:00	2024-11-08T23:00:00	6	Velocidad del viento	3.2
185714	7	Sololá	712	San Antonio Palopó	9	San Antonio Palopo	7	Julio	2023-07-29T00:00:00	2024-11-08T23:00:00	7	Dirección del viento	3.22
185715	7	Sololá	712	San Antonio Palopó	9	San Antonio Palopo	7	Julio	2023-07-29T00:00:00	2024-11-08T23:00:00	1	Precipitación	0.2
185716	7	Sololá	712	San Antonio Palopó	9	San Antonio Palopo	7	Julio	2023-07-29T00:00:00	2024-11-08T23:00:00	8	Radiación solar	0
185717	7	Sololá	712	San Antonio Palopó	9	San Antonio Palopo	7	Julio	2023-07-30T00:00:00	2024-11-08T00:00:00	2	Temperatura media	18.3
185718	7	Sololá	712	San Antonio Palopó	9	San Antonio Palopo	7	Julio	2023-07-30T00:00:00	2024-11-08T00:00:00	4	Temperatura máxima	18.4
185719	7	Sololá	712	San Antonio Palopó	9	San Antonio Palopo	7	Julio	2023-07-30T00:00:00	2024-11-08T00:00:00	3	Temperatura mínima	18.1
185720	7	Sololá	712	San Antonio Palopó	9	San Antonio Palopo	7	Julio	2023-07-30T00:00:00	2024-11-08T00:00:00	5	Humedad	90
185721	7	Sololá	712	San Antonio Palopó	9	San Antonio Palopo	7	Julio	2023-07-30T00:00:00	2024-11-08T00:00:00	6	Velocidad del viento	3.2
185722	7	Sololá	712	San Antonio Palopó	9	San Antonio Palopo	7	Julio	2023-07-30T00:00:00	2024-11-08T00:00:00	7	Dirección del viento	3.22
185723	7	Sololá	712	San Antonio Palopó	9	San Antonio Palopo	7	Julio	2023-07-30T00:00:00	2024-11-08T00:00:00	1	Precipitación	0
185724	7	Sololá	712	San Antonio Palopó	9	San Antonio Palopo	7	Julio	2023-07-30T00:00:00	2024-11-08T00:00:00	8	Radiación solar	0
185725	7	Sololá	712	San Antonio Palopó	9	San Antonio Palopo	7	Julio	2023-07-30T00:00:00	2024-11-08T01:00:00	2	Temperatura media	18.6
185726	7	Sololá	712	San Antonio Palopó	9	San Antonio Palopo	7	Julio	2023-07-30T00:00:00	2024-11-08T01:00:00	4	Temperatura máxima	18.6
185727	7	Sololá	712	San Antonio Palopó	9	San Antonio Palopo	7	Julio	2023-07-30T00:00:00	2024-11-08T01:00:00	3	Temperatura mínima	18
185728	7	Sololá	712	San Antonio Palopó	9	San Antonio Palopo	7	Julio	2023-07-30T00:00:00	2024-11-08T01:00:00	5	Humedad	88
185729	7	Sololá	712	San Antonio Palopó	9	San Antonio Palopo	7	Julio	2023-07-30T00:00:00	2024-11-08T01:00:00	6	Velocidad del viento	3.2
185730	7	Sololá	712	San Antonio Palopó	9	San Antonio Palopo	7	Julio	2023-07-30T00:00:00	2024-11-08T01:00:00	7	Dirección del viento	3.22
185731	7	Sololá	712	San Antonio Palopó	9	San Antonio Palopo	7	Julio	2023-07-30T00:00:00	2024-11-08T01:00:00	1	Precipitación	0
185732	7	Sololá	712	San Antonio Palopó	9	San Antonio Palopo	7	Julio	2023-07-30T00:00:00	2024-11-08T01:00:00	8	Radiación solar	0
185733	7	Sololá	712	San Antonio Palopó	9	San Antonio Palopo	7	Julio	2023-07-30T00:00:00	2024-11-08T02:00:00	2	Temperatura media	19.5
185734	7	Sololá	712	San Antonio Palopó	9	San Antonio Palopo	7	Julio	2023-07-30T00:00:00	2024-11-08T02:00:00	4	Temperatura máxima	19.6
185735	7	Sololá	712	San Antonio Palopó	9	San Antonio Palopo	7	Julio	2023-07-30T00:00:00	2024-11-08T02:00:00	3	Temperatura mínima	17.9
185736	7	Sololá	712	San Antonio Palopó	9	San Antonio Palopo	7	Julio	2023-07-30T00:00:00	2024-11-08T02:00:00	5	Humedad	77
185737	7	Sololá	712	San Antonio Palopó	9	San Antonio Palopo	7	Julio	2023-07-30T00:00:00	2024-11-08T02:00:00	6	Velocidad del viento	4.8
185738	7	Sololá	712	San Antonio Palopó	9	San Antonio Palopo	7	Julio	2023-07-30T00:00:00	2024-11-08T02:00:00	7	Dirección del viento	4.83
185739	7	Sololá	712	San Antonio Palopó	9	San Antonio Palopo	7	Julio	2023-07-30T00:00:00	2024-11-08T02:00:00	1	Precipitación	0
185740	7	Sololá	712	San Antonio Palopó	9	San Antonio Palopo	7	Julio	2023-07-30T00:00:00	2024-11-08T02:00:00	8	Radiación solar	0
185741	7	Sololá	712	San Antonio Palopó	9	San Antonio Palopo	7	Julio	2023-07-30T00:00:00	2024-11-08T03:00:00	2	Temperatura media	19.1
185742	7	Sololá	712	San Antonio Palopó	9	San Antonio Palopo	7	Julio	2023-07-30T00:00:00	2024-11-08T03:00:00	4	Temperatura máxima	19.6
185743	7	Sololá	712	San Antonio Palopó	9	San Antonio Palopo	7	Julio	2023-07-30T00:00:00	2024-11-08T03:00:00	3	Temperatura mínima	18.4
185744	7	Sololá	712	San Antonio Palopó	9	San Antonio Palopo	7	Julio	2023-07-30T00:00:00	2024-11-08T03:00:00	5	Humedad	77
185745	7	Sololá	712	San Antonio Palopó	9	San Antonio Palopo	7	Julio	2023-07-30T00:00:00	2024-11-08T03:00:00	6	Velocidad del viento	6.4
185746	7	Sololá	712	San Antonio Palopó	9	San Antonio Palopo	7	Julio	2023-07-30T00:00:00	2024-11-08T03:00:00	7	Dirección del viento	6.44
185747	7	Sololá	712	San Antonio Palopó	9	San Antonio Palopo	7	Julio	2023-07-30T00:00:00	2024-11-08T03:00:00	1	Precipitación	0
185748	7	Sololá	712	San Antonio Palopó	9	San Antonio Palopo	7	Julio	2023-07-30T00:00:00	2024-11-08T03:00:00	8	Radiación solar	0
185749	7	Sololá	712	San Antonio Palopó	9	San Antonio Palopo	7	Julio	2023-07-30T00:00:00	2024-11-08T04:00:00	2	Temperatura media	19.3
185750	7	Sololá	712	San Antonio Palopó	9	San Antonio Palopo	7	Julio	2023-07-30T00:00:00	2024-11-08T04:00:00	4	Temperatura máxima	19.4
185751	7	Sololá	712	San Antonio Palopó	9	San Antonio Palopo	7	Julio	2023-07-30T00:00:00	2024-11-08T04:00:00	3	Temperatura mínima	18.9
185752	7	Sololá	712	San Antonio Palopó	9	San Antonio Palopo	7	Julio	2023-07-30T00:00:00	2024-11-08T04:00:00	5	Humedad	76
185753	7	Sololá	712	San Antonio Palopó	9	San Antonio Palopo	7	Julio	2023-07-30T00:00:00	2024-11-08T04:00:00	6	Velocidad del viento	8
185754	7	Sololá	712	San Antonio Palopó	9	San Antonio Palopo	7	Julio	2023-07-30T00:00:00	2024-11-08T04:00:00	7	Dirección del viento	8.05
185755	7	Sololá	712	San Antonio Palopó	9	San Antonio Palopo	7	Julio	2023-07-30T00:00:00	2024-11-08T04:00:00	1	Precipitación	0
185756	7	Sololá	712	San Antonio Palopó	9	San Antonio Palopo	7	Julio	2023-07-30T00:00:00	2024-11-08T04:00:00	8	Radiación solar	0
185757	7	Sololá	712	San Antonio Palopó	9	San Antonio Palopo	7	Julio	2023-07-30T00:00:00	2024-11-08T05:00:00	2	Temperatura media	19.4
185758	7	Sololá	712	San Antonio Palopó	9	San Antonio Palopo	7	Julio	2023-07-30T00:00:00	2024-11-08T05:00:00	4	Temperatura máxima	19.4
185759	7	Sololá	712	San Antonio Palopó	9	San Antonio Palopo	7	Julio	2023-07-30T00:00:00	2024-11-08T05:00:00	3	Temperatura mínima	18.6
185760	7	Sololá	712	San Antonio Palopó	9	San Antonio Palopo	7	Julio	2023-07-30T00:00:00	2024-11-08T05:00:00	5	Humedad	76
185761	7	Sololá	712	San Antonio Palopó	9	San Antonio Palopo	7	Julio	2023-07-30T00:00:00	2024-11-08T05:00:00	6	Velocidad del viento	3.2
185762	7	Sololá	712	San Antonio Palopó	9	San Antonio Palopo	7	Julio	2023-07-30T00:00:00	2024-11-08T05:00:00	7	Dirección del viento	3.22
185763	7	Sololá	712	San Antonio Palopó	9	San Antonio Palopo	7	Julio	2023-07-30T00:00:00	2024-11-08T05:00:00	1	Precipitación	0
185764	7	Sololá	712	San Antonio Palopó	9	San Antonio Palopo	7	Julio	2023-07-30T00:00:00	2024-11-08T05:00:00	8	Radiación solar	0
185765	7	Sololá	712	San Antonio Palopó	9	San Antonio Palopo	7	Julio	2023-07-30T00:00:00	2024-11-08T06:00:00	2	Temperatura media	19.4
185766	7	Sololá	712	San Antonio Palopó	9	San Antonio Palopo	7	Julio	2023-07-30T00:00:00	2024-11-08T06:00:00	4	Temperatura máxima	19.6
185767	7	Sololá	712	San Antonio Palopó	9	San Antonio Palopo	7	Julio	2023-07-30T00:00:00	2024-11-08T06:00:00	3	Temperatura mínima	19.2
185768	7	Sololá	712	San Antonio Palopó	9	San Antonio Palopo	7	Julio	2023-07-30T00:00:00	2024-11-08T06:00:00	5	Humedad	74
185769	7	Sololá	712	San Antonio Palopó	9	San Antonio Palopo	7	Julio	2023-07-30T00:00:00	2024-11-08T06:00:00	6	Velocidad del viento	6.4
185770	7	Sololá	712	San Antonio Palopó	9	San Antonio Palopo	7	Julio	2023-07-30T00:00:00	2024-11-08T06:00:00	7	Dirección del viento	6.44
185771	7	Sololá	712	San Antonio Palopó	9	San Antonio Palopo	7	Julio	2023-07-30T00:00:00	2024-11-08T06:00:00	1	Precipitación	0
185772	7	Sololá	712	San Antonio Palopó	9	San Antonio Palopo	7	Julio	2023-07-30T00:00:00	2024-11-08T06:00:00	8	Radiación solar	1
185773	7	Sololá	712	San Antonio Palopó	9	San Antonio Palopo	7	Julio	2023-07-30T00:00:00	2024-11-08T07:00:00	2	Temperatura media	20.1
185774	7	Sololá	712	San Antonio Palopó	9	San Antonio Palopo	7	Julio	2023-07-30T00:00:00	2024-11-08T07:00:00	4	Temperatura máxima	20.1
185775	7	Sololá	712	San Antonio Palopó	9	San Antonio Palopo	7	Julio	2023-07-30T00:00:00	2024-11-08T07:00:00	3	Temperatura mínima	19.4
185776	7	Sololá	712	San Antonio Palopó	9	San Antonio Palopo	7	Julio	2023-07-30T00:00:00	2024-11-08T07:00:00	5	Humedad	72
185777	7	Sololá	712	San Antonio Palopó	9	San Antonio Palopo	7	Julio	2023-07-30T00:00:00	2024-11-08T07:00:00	6	Velocidad del viento	11.3
185778	7	Sololá	712	San Antonio Palopó	9	San Antonio Palopo	7	Julio	2023-07-30T00:00:00	2024-11-08T07:00:00	7	Dirección del viento	11.27
185779	7	Sololá	712	San Antonio Palopó	9	San Antonio Palopo	7	Julio	2023-07-30T00:00:00	2024-11-08T07:00:00	1	Precipitación	0
185780	7	Sololá	712	San Antonio Palopó	9	San Antonio Palopo	7	Julio	2023-07-30T00:00:00	2024-11-08T07:00:00	8	Radiación solar	19
185781	7	Sololá	712	San Antonio Palopó	9	San Antonio Palopo	7	Julio	2023-07-30T00:00:00	2024-11-08T08:00:00	2	Temperatura media	21.4
185782	7	Sololá	712	San Antonio Palopó	9	San Antonio Palopo	7	Julio	2023-07-30T00:00:00	2024-11-08T08:00:00	4	Temperatura máxima	21.4
185783	7	Sololá	712	San Antonio Palopó	9	San Antonio Palopo	7	Julio	2023-07-30T00:00:00	2024-11-08T08:00:00	3	Temperatura mínima	20
185784	7	Sololá	712	San Antonio Palopó	9	San Antonio Palopo	7	Julio	2023-07-30T00:00:00	2024-11-08T08:00:00	5	Humedad	70
185785	7	Sololá	712	San Antonio Palopó	9	San Antonio Palopo	7	Julio	2023-07-30T00:00:00	2024-11-08T08:00:00	6	Velocidad del viento	4.8
185786	7	Sololá	712	San Antonio Palopó	9	San Antonio Palopo	7	Julio	2023-07-30T00:00:00	2024-11-08T08:00:00	7	Dirección del viento	4.83
185787	7	Sololá	712	San Antonio Palopó	9	San Antonio Palopo	7	Julio	2023-07-30T00:00:00	2024-11-08T08:00:00	1	Precipitación	0
185788	7	Sololá	712	San Antonio Palopó	9	San Antonio Palopo	7	Julio	2023-07-30T00:00:00	2024-11-08T08:00:00	8	Radiación solar	154
185789	7	Sololá	712	San Antonio Palopó	9	San Antonio Palopo	7	Julio	2023-07-30T00:00:00	2024-11-08T09:00:00	2	Temperatura media	23.1
185790	7	Sololá	712	San Antonio Palopó	9	San Antonio Palopo	7	Julio	2023-07-30T00:00:00	2024-11-08T09:00:00	4	Temperatura máxima	23.2
185791	7	Sololá	712	San Antonio Palopó	9	San Antonio Palopo	7	Julio	2023-07-30T00:00:00	2024-11-08T09:00:00	3	Temperatura mínima	21.4
185792	7	Sololá	712	San Antonio Palopó	9	San Antonio Palopo	7	Julio	2023-07-30T00:00:00	2024-11-08T09:00:00	5	Humedad	65
185793	7	Sololá	712	San Antonio Palopó	9	San Antonio Palopo	7	Julio	2023-07-30T00:00:00	2024-11-08T09:00:00	6	Velocidad del viento	3.2
185794	7	Sololá	712	San Antonio Palopó	9	San Antonio Palopo	7	Julio	2023-07-30T00:00:00	2024-11-08T09:00:00	7	Dirección del viento	3.22
185795	7	Sololá	712	San Antonio Palopó	9	San Antonio Palopo	7	Julio	2023-07-30T00:00:00	2024-11-08T09:00:00	1	Precipitación	0
185796	7	Sololá	712	San Antonio Palopó	9	San Antonio Palopo	7	Julio	2023-07-30T00:00:00	2024-11-08T09:00:00	8	Radiación solar	544
185797	7	Sololá	712	San Antonio Palopó	9	San Antonio Palopo	7	Julio	2023-07-30T00:00:00	2024-11-08T10:00:00	2	Temperatura media	23.7
185798	7	Sololá	712	San Antonio Palopó	9	San Antonio Palopo	7	Julio	2023-07-30T00:00:00	2024-11-08T10:00:00	4	Temperatura máxima	23.8
185799	7	Sololá	712	San Antonio Palopó	9	San Antonio Palopo	7	Julio	2023-07-30T00:00:00	2024-11-08T10:00:00	3	Temperatura mínima	22.6
185800	7	Sololá	712	San Antonio Palopó	9	San Antonio Palopo	7	Julio	2023-07-30T00:00:00	2024-11-08T10:00:00	5	Humedad	64
185801	7	Sololá	712	San Antonio Palopó	9	San Antonio Palopo	7	Julio	2023-07-30T00:00:00	2024-11-08T10:00:00	6	Velocidad del viento	3.2
185802	7	Sololá	712	San Antonio Palopó	9	San Antonio Palopo	7	Julio	2023-07-30T00:00:00	2024-11-08T10:00:00	7	Dirección del viento	3.22
185803	7	Sololá	712	San Antonio Palopó	9	San Antonio Palopo	7	Julio	2023-07-30T00:00:00	2024-11-08T10:00:00	1	Precipitación	0
185804	7	Sololá	712	San Antonio Palopó	9	San Antonio Palopo	7	Julio	2023-07-30T00:00:00	2024-11-08T10:00:00	8	Radiación solar	712
185805	7	Sololá	712	San Antonio Palopó	9	San Antonio Palopo	7	Julio	2023-07-30T00:00:00	2024-11-08T11:00:00	2	Temperatura media	25.9
185806	7	Sololá	712	San Antonio Palopó	9	San Antonio Palopo	7	Julio	2023-07-30T00:00:00	2024-11-08T11:00:00	4	Temperatura máxima	25.9
185807	7	Sololá	712	San Antonio Palopó	9	San Antonio Palopo	7	Julio	2023-07-30T00:00:00	2024-11-08T11:00:00	3	Temperatura mínima	23.3
185808	7	Sololá	712	San Antonio Palopó	9	San Antonio Palopo	7	Julio	2023-07-30T00:00:00	2024-11-08T11:00:00	5	Humedad	57
185809	7	Sololá	712	San Antonio Palopó	9	San Antonio Palopo	7	Julio	2023-07-30T00:00:00	2024-11-08T11:00:00	6	Velocidad del viento	6.4
185810	7	Sololá	712	San Antonio Palopó	9	San Antonio Palopo	7	Julio	2023-07-30T00:00:00	2024-11-08T11:00:00	7	Dirección del viento	6.44
185811	7	Sololá	712	San Antonio Palopó	9	San Antonio Palopo	7	Julio	2023-07-30T00:00:00	2024-11-08T11:00:00	1	Precipitación	0
185812	7	Sololá	712	San Antonio Palopó	9	San Antonio Palopo	7	Julio	2023-07-30T00:00:00	2024-11-08T11:00:00	8	Radiación solar	874
185813	7	Sololá	712	San Antonio Palopó	9	San Antonio Palopo	7	Julio	2023-07-30T00:00:00	2024-11-08T12:00:00	2	Temperatura media	25.3
185814	7	Sololá	712	San Antonio Palopó	9	San Antonio Palopo	7	Julio	2023-07-30T00:00:00	2024-11-08T12:00:00	4	Temperatura máxima	26.3
185815	7	Sololá	712	San Antonio Palopó	9	San Antonio Palopo	7	Julio	2023-07-30T00:00:00	2024-11-08T12:00:00	3	Temperatura mínima	25.3
185816	7	Sololá	712	San Antonio Palopó	9	San Antonio Palopo	7	Julio	2023-07-30T00:00:00	2024-11-08T12:00:00	5	Humedad	61
185817	7	Sololá	712	San Antonio Palopó	9	San Antonio Palopo	7	Julio	2023-07-30T00:00:00	2024-11-08T12:00:00	6	Velocidad del viento	8
185818	7	Sololá	712	San Antonio Palopó	9	San Antonio Palopo	7	Julio	2023-07-30T00:00:00	2024-11-08T12:00:00	7	Dirección del viento	8.05
185819	7	Sololá	712	San Antonio Palopó	9	San Antonio Palopo	7	Julio	2023-07-30T00:00:00	2024-11-08T12:00:00	1	Precipitación	0
185820	7	Sololá	712	San Antonio Palopó	9	San Antonio Palopo	7	Julio	2023-07-30T00:00:00	2024-11-08T12:00:00	8	Radiación solar	958
185821	7	Sololá	712	San Antonio Palopó	9	San Antonio Palopo	7	Julio	2023-07-30T00:00:00	2024-11-08T13:00:00	2	Temperatura media	25.2
185822	7	Sololá	712	San Antonio Palopó	9	San Antonio Palopo	7	Julio	2023-07-30T00:00:00	2024-11-08T13:00:00	4	Temperatura máxima	25.9
185823	7	Sololá	712	San Antonio Palopó	9	San Antonio Palopo	7	Julio	2023-07-30T00:00:00	2024-11-08T13:00:00	3	Temperatura mínima	24.5
185824	7	Sololá	712	San Antonio Palopó	9	San Antonio Palopo	7	Julio	2023-07-30T00:00:00	2024-11-08T13:00:00	5	Humedad	64
185825	7	Sololá	712	San Antonio Palopó	9	San Antonio Palopo	7	Julio	2023-07-30T00:00:00	2024-11-08T13:00:00	6	Velocidad del viento	12.9
185826	7	Sololá	712	San Antonio Palopó	9	San Antonio Palopo	7	Julio	2023-07-30T00:00:00	2024-11-08T13:00:00	7	Dirección del viento	12.87
185827	7	Sololá	712	San Antonio Palopó	9	San Antonio Palopo	7	Julio	2023-07-30T00:00:00	2024-11-08T13:00:00	1	Precipitación	0
185828	7	Sololá	712	San Antonio Palopó	9	San Antonio Palopo	7	Julio	2023-07-30T00:00:00	2024-11-08T13:00:00	8	Radiación solar	961
185829	7	Sololá	712	San Antonio Palopó	9	San Antonio Palopo	7	Julio	2023-07-30T00:00:00	2024-11-08T14:00:00	2	Temperatura media	24.8
185830	7	Sololá	712	San Antonio Palopó	9	San Antonio Palopo	7	Julio	2023-07-30T00:00:00	2024-11-08T14:00:00	4	Temperatura máxima	25.3
185831	7	Sololá	712	San Antonio Palopó	9	San Antonio Palopo	7	Julio	2023-07-30T00:00:00	2024-11-08T14:00:00	3	Temperatura mínima	24.6
185832	7	Sololá	712	San Antonio Palopó	9	San Antonio Palopo	7	Julio	2023-07-30T00:00:00	2024-11-08T14:00:00	5	Humedad	69
185833	7	Sololá	712	San Antonio Palopó	9	San Antonio Palopo	7	Julio	2023-07-30T00:00:00	2024-11-08T14:00:00	6	Velocidad del viento	14.5
185834	7	Sololá	712	San Antonio Palopó	9	San Antonio Palopo	7	Julio	2023-07-30T00:00:00	2024-11-08T14:00:00	7	Dirección del viento	14.48
185835	7	Sololá	712	San Antonio Palopó	9	San Antonio Palopo	7	Julio	2023-07-30T00:00:00	2024-11-08T14:00:00	1	Precipitación	0
185836	7	Sololá	712	San Antonio Palopó	9	San Antonio Palopo	7	Julio	2023-07-30T00:00:00	2024-11-08T14:00:00	8	Radiación solar	890
185837	7	Sololá	712	San Antonio Palopó	9	San Antonio Palopo	7	Julio	2023-07-30T00:00:00	2024-11-08T15:00:00	2	Temperatura media	24
185838	7	Sololá	712	San Antonio Palopó	9	San Antonio Palopo	7	Julio	2023-07-30T00:00:00	2024-11-08T15:00:00	4	Temperatura máxima	24.9
185839	7	Sololá	712	San Antonio Palopó	9	San Antonio Palopo	7	Julio	2023-07-30T00:00:00	2024-11-08T15:00:00	3	Temperatura mínima	24
185840	7	Sololá	712	San Antonio Palopó	9	San Antonio Palopo	7	Julio	2023-07-30T00:00:00	2024-11-08T15:00:00	5	Humedad	72
185841	7	Sololá	712	San Antonio Palopó	9	San Antonio Palopo	7	Julio	2023-07-30T00:00:00	2024-11-08T15:00:00	6	Velocidad del viento	16.1
185842	7	Sololá	712	San Antonio Palopó	9	San Antonio Palopo	7	Julio	2023-07-30T00:00:00	2024-11-08T15:00:00	7	Dirección del viento	16.09
185843	7	Sololá	712	San Antonio Palopó	9	San Antonio Palopo	7	Julio	2023-07-30T00:00:00	2024-11-08T15:00:00	1	Precipitación	0
185844	7	Sololá	712	San Antonio Palopó	9	San Antonio Palopo	7	Julio	2023-07-30T00:00:00	2024-11-08T15:00:00	8	Radiación solar	589
185845	7	Sololá	712	San Antonio Palopó	9	San Antonio Palopo	7	Julio	2023-07-30T00:00:00	2024-11-08T16:00:00	2	Temperatura media	24.7
185846	7	Sololá	712	San Antonio Palopó	9	San Antonio Palopo	7	Julio	2023-07-30T00:00:00	2024-11-08T16:00:00	4	Temperatura máxima	25.7
185847	7	Sololá	712	San Antonio Palopó	9	San Antonio Palopo	7	Julio	2023-07-30T00:00:00	2024-11-08T16:00:00	3	Temperatura mínima	23.4
185848	7	Sololá	712	San Antonio Palopó	9	San Antonio Palopo	7	Julio	2023-07-30T00:00:00	2024-11-08T16:00:00	5	Humedad	69
185849	7	Sololá	712	San Antonio Palopó	9	San Antonio Palopo	7	Julio	2023-07-30T00:00:00	2024-11-08T16:00:00	6	Velocidad del viento	11.3
185850	7	Sololá	712	San Antonio Palopó	9	San Antonio Palopo	7	Julio	2023-07-30T00:00:00	2024-11-08T16:00:00	7	Dirección del viento	11.27
185851	7	Sololá	712	San Antonio Palopó	9	San Antonio Palopo	7	Julio	2023-07-30T00:00:00	2024-11-08T16:00:00	1	Precipitación	0
185852	7	Sololá	712	San Antonio Palopó	9	San Antonio Palopo	7	Julio	2023-07-30T00:00:00	2024-11-08T16:00:00	8	Radiación solar	481
185853	7	Sololá	712	San Antonio Palopó	9	San Antonio Palopo	7	Julio	2023-07-30T00:00:00	2024-11-08T17:00:00	2	Temperatura media	24.4
185854	7	Sololá	712	San Antonio Palopó	9	San Antonio Palopo	7	Julio	2023-07-30T00:00:00	2024-11-08T17:00:00	4	Temperatura máxima	24.7
185855	7	Sololá	712	San Antonio Palopó	9	San Antonio Palopo	7	Julio	2023-07-30T00:00:00	2024-11-08T17:00:00	3	Temperatura mínima	23.8
185856	7	Sololá	712	San Antonio Palopó	9	San Antonio Palopo	7	Julio	2023-07-30T00:00:00	2024-11-08T17:00:00	5	Humedad	74
185857	7	Sololá	712	San Antonio Palopó	9	San Antonio Palopo	7	Julio	2023-07-30T00:00:00	2024-11-08T17:00:00	6	Velocidad del viento	6.4
185858	7	Sololá	712	San Antonio Palopó	9	San Antonio Palopo	7	Julio	2023-07-30T00:00:00	2024-11-08T17:00:00	7	Dirección del viento	6.44
185859	7	Sololá	712	San Antonio Palopó	9	San Antonio Palopo	7	Julio	2023-07-30T00:00:00	2024-11-08T17:00:00	1	Precipitación	0
185860	7	Sololá	712	San Antonio Palopó	9	San Antonio Palopo	7	Julio	2023-07-30T00:00:00	2024-11-08T17:00:00	8	Radiación solar	350
185861	7	Sololá	712	San Antonio Palopó	9	San Antonio Palopo	7	Julio	2023-07-30T00:00:00	2024-11-08T18:00:00	2	Temperatura media	23.3
185862	7	Sololá	712	San Antonio Palopó	9	San Antonio Palopo	7	Julio	2023-07-30T00:00:00	2024-11-08T18:00:00	4	Temperatura máxima	25.3
185863	7	Sololá	712	San Antonio Palopó	9	San Antonio Palopo	7	Julio	2023-07-30T00:00:00	2024-11-08T18:00:00	3	Temperatura mínima	23.3
185864	7	Sololá	712	San Antonio Palopó	9	San Antonio Palopo	7	Julio	2023-07-30T00:00:00	2024-11-08T18:00:00	5	Humedad	77
185865	7	Sololá	712	San Antonio Palopó	9	San Antonio Palopo	7	Julio	2023-07-30T00:00:00	2024-11-08T18:00:00	6	Velocidad del viento	3.2
185866	7	Sololá	712	San Antonio Palopó	9	San Antonio Palopo	7	Julio	2023-07-30T00:00:00	2024-11-08T18:00:00	7	Dirección del viento	3.22
185867	7	Sololá	712	San Antonio Palopó	9	San Antonio Palopo	7	Julio	2023-07-30T00:00:00	2024-11-08T18:00:00	1	Precipitación	0
185868	7	Sololá	712	San Antonio Palopó	9	San Antonio Palopo	7	Julio	2023-07-30T00:00:00	2024-11-08T18:00:00	8	Radiación solar	161
185869	7	Sololá	712	San Antonio Palopó	9	San Antonio Palopo	7	Julio	2023-07-30T00:00:00	2024-11-08T19:00:00	2	Temperatura media	22.3
185870	7	Sololá	712	San Antonio Palopó	9	San Antonio Palopo	7	Julio	2023-07-30T00:00:00	2024-11-08T19:00:00	4	Temperatura máxima	23.3
185871	7	Sololá	712	San Antonio Palopó	9	San Antonio Palopo	7	Julio	2023-07-30T00:00:00	2024-11-08T19:00:00	3	Temperatura mínima	22.2
185872	7	Sololá	712	San Antonio Palopó	9	San Antonio Palopo	7	Julio	2023-07-30T00:00:00	2024-11-08T19:00:00	5	Humedad	80
185873	7	Sololá	712	San Antonio Palopó	9	San Antonio Palopo	7	Julio	2023-07-30T00:00:00	2024-11-08T19:00:00	6	Velocidad del viento	3.2
185874	7	Sololá	712	San Antonio Palopó	9	San Antonio Palopo	7	Julio	2023-07-30T00:00:00	2024-11-08T19:00:00	7	Dirección del viento	3.22
185875	7	Sololá	712	San Antonio Palopó	9	San Antonio Palopo	7	Julio	2023-07-30T00:00:00	2024-11-08T19:00:00	1	Precipitación	0
185876	7	Sololá	712	San Antonio Palopó	9	San Antonio Palopo	7	Julio	2023-07-30T00:00:00	2024-11-08T19:00:00	8	Radiación solar	0
185877	7	Sololá	712	San Antonio Palopó	9	San Antonio Palopo	7	Julio	2023-07-30T00:00:00	2024-11-08T20:00:00	2	Temperatura media	21.9
185878	7	Sololá	712	San Antonio Palopó	9	San Antonio Palopo	7	Julio	2023-07-30T00:00:00	2024-11-08T20:00:00	4	Temperatura máxima	22.3
185879	7	Sololá	712	San Antonio Palopó	9	San Antonio Palopo	7	Julio	2023-07-30T00:00:00	2024-11-08T20:00:00	3	Temperatura mínima	21.8
185880	7	Sololá	712	San Antonio Palopó	9	San Antonio Palopo	7	Julio	2023-07-30T00:00:00	2024-11-08T20:00:00	5	Humedad	80
185881	7	Sololá	712	San Antonio Palopó	9	San Antonio Palopo	7	Julio	2023-07-30T00:00:00	2024-11-08T20:00:00	6	Velocidad del viento	3.2
185882	7	Sololá	712	San Antonio Palopó	9	San Antonio Palopo	7	Julio	2023-07-30T00:00:00	2024-11-08T20:00:00	7	Dirección del viento	3.22
185883	7	Sololá	712	San Antonio Palopó	9	San Antonio Palopo	7	Julio	2023-07-30T00:00:00	2024-11-08T20:00:00	1	Precipitación	0
185884	7	Sololá	712	San Antonio Palopó	9	San Antonio Palopo	7	Julio	2023-07-30T00:00:00	2024-11-08T20:00:00	8	Radiación solar	0
185885	7	Sololá	712	San Antonio Palopó	9	San Antonio Palopo	7	Julio	2023-07-30T00:00:00	2024-11-08T21:00:00	2	Temperatura media	21.8
185886	7	Sololá	712	San Antonio Palopó	9	San Antonio Palopo	7	Julio	2023-07-30T00:00:00	2024-11-08T21:00:00	4	Temperatura máxima	21.9
185887	7	Sololá	712	San Antonio Palopó	9	San Antonio Palopo	7	Julio	2023-07-30T00:00:00	2024-11-08T21:00:00	3	Temperatura mínima	21.7
185888	7	Sololá	712	San Antonio Palopó	9	San Antonio Palopo	7	Julio	2023-07-30T00:00:00	2024-11-08T21:00:00	5	Humedad	74
185889	7	Sololá	712	San Antonio Palopó	9	San Antonio Palopo	7	Julio	2023-07-30T00:00:00	2024-11-08T21:00:00	6	Velocidad del viento	3.2
185890	7	Sololá	712	San Antonio Palopó	9	San Antonio Palopo	7	Julio	2023-07-30T00:00:00	2024-11-08T21:00:00	7	Dirección del viento	3.22
185891	7	Sololá	712	San Antonio Palopó	9	San Antonio Palopo	7	Julio	2023-07-30T00:00:00	2024-11-08T21:00:00	1	Precipitación	0
185892	7	Sololá	712	San Antonio Palopó	9	San Antonio Palopo	7	Julio	2023-07-30T00:00:00	2024-11-08T21:00:00	8	Radiación solar	0
185893	7	Sololá	712	San Antonio Palopó	9	San Antonio Palopo	7	Julio	2023-07-30T00:00:00	2024-11-08T22:00:00	2	Temperatura media	21.8
185894	7	Sololá	712	San Antonio Palopó	9	San Antonio Palopo	7	Julio	2023-07-30T00:00:00	2024-11-08T22:00:00	4	Temperatura máxima	22
185895	7	Sololá	712	San Antonio Palopó	9	San Antonio Palopo	7	Julio	2023-07-30T00:00:00	2024-11-08T22:00:00	3	Temperatura mínima	21.8
185896	7	Sololá	712	San Antonio Palopó	9	San Antonio Palopo	7	Julio	2023-07-30T00:00:00	2024-11-08T22:00:00	5	Humedad	71
185897	7	Sololá	712	San Antonio Palopó	9	San Antonio Palopo	7	Julio	2023-07-30T00:00:00	2024-11-08T22:00:00	6	Velocidad del viento	6.4
185898	7	Sololá	712	San Antonio Palopó	9	San Antonio Palopo	7	Julio	2023-07-30T00:00:00	2024-11-08T22:00:00	7	Dirección del viento	6.44
185899	7	Sololá	712	San Antonio Palopó	9	San Antonio Palopo	7	Julio	2023-07-30T00:00:00	2024-11-08T22:00:00	1	Precipitación	0
185900	7	Sololá	712	San Antonio Palopó	9	San Antonio Palopo	7	Julio	2023-07-30T00:00:00	2024-11-08T22:00:00	8	Radiación solar	0
185901	7	Sololá	712	San Antonio Palopó	9	San Antonio Palopo	7	Julio	2023-07-30T00:00:00	2024-11-08T23:00:00	2	Temperatura media	20.2
185902	7	Sololá	712	San Antonio Palopó	9	San Antonio Palopo	7	Julio	2023-07-30T00:00:00	2024-11-08T23:00:00	4	Temperatura máxima	21.8
185903	7	Sololá	712	San Antonio Palopó	9	San Antonio Palopo	7	Julio	2023-07-30T00:00:00	2024-11-08T23:00:00	3	Temperatura mínima	20.2
185904	7	Sololá	712	San Antonio Palopó	9	San Antonio Palopo	7	Julio	2023-07-30T00:00:00	2024-11-08T23:00:00	5	Humedad	74
185905	7	Sololá	712	San Antonio Palopó	9	San Antonio Palopo	7	Julio	2023-07-30T00:00:00	2024-11-08T23:00:00	6	Velocidad del viento	8
185906	7	Sololá	712	San Antonio Palopó	9	San Antonio Palopo	7	Julio	2023-07-30T00:00:00	2024-11-08T23:00:00	7	Dirección del viento	8.05
185907	7	Sololá	712	San Antonio Palopó	9	San Antonio Palopo	7	Julio	2023-07-30T00:00:00	2024-11-08T23:00:00	1	Precipitación	0.4
185908	7	Sololá	712	San Antonio Palopó	9	San Antonio Palopo	7	Julio	2023-07-30T00:00:00	2024-11-08T23:00:00	8	Radiación solar	0
185909	7	Sololá	712	San Antonio Palopó	9	San Antonio Palopo	7	Julio	2023-07-31T00:00:00	2024-11-08T00:00:00	2	Temperatura media	19.3
185910	7	Sololá	712	San Antonio Palopó	9	San Antonio Palopo	7	Julio	2023-07-31T00:00:00	2024-11-08T00:00:00	4	Temperatura máxima	20.2
185911	7	Sololá	712	San Antonio Palopó	9	San Antonio Palopo	7	Julio	2023-07-31T00:00:00	2024-11-08T00:00:00	3	Temperatura mínima	19
185912	7	Sololá	712	San Antonio Palopó	9	San Antonio Palopo	7	Julio	2023-07-31T00:00:00	2024-11-08T00:00:00	5	Humedad	78
185913	7	Sololá	712	San Antonio Palopó	9	San Antonio Palopo	7	Julio	2023-07-31T00:00:00	2024-11-08T00:00:00	6	Velocidad del viento	8
185914	7	Sololá	712	San Antonio Palopó	9	San Antonio Palopo	7	Julio	2023-07-31T00:00:00	2024-11-08T00:00:00	7	Dirección del viento	8.05
185915	7	Sololá	712	San Antonio Palopó	9	San Antonio Palopo	7	Julio	2023-07-31T00:00:00	2024-11-08T00:00:00	1	Precipitación	1.8
185916	7	Sololá	712	San Antonio Palopó	9	San Antonio Palopo	7	Julio	2023-07-31T00:00:00	2024-11-08T00:00:00	8	Radiación solar	0
185917	7	Sololá	712	San Antonio Palopó	9	San Antonio Palopo	7	Julio	2023-07-31T00:00:00	2024-11-08T01:00:00	2	Temperatura media	19.3
185918	7	Sololá	712	San Antonio Palopó	9	San Antonio Palopo	7	Julio	2023-07-31T00:00:00	2024-11-08T01:00:00	4	Temperatura máxima	19.6
185919	7	Sololá	712	San Antonio Palopó	9	San Antonio Palopo	7	Julio	2023-07-31T00:00:00	2024-11-08T01:00:00	3	Temperatura mínima	18.8
185920	7	Sololá	712	San Antonio Palopó	9	San Antonio Palopo	7	Julio	2023-07-31T00:00:00	2024-11-08T01:00:00	5	Humedad	77
185921	7	Sololá	712	San Antonio Palopó	9	San Antonio Palopo	7	Julio	2023-07-31T00:00:00	2024-11-08T01:00:00	6	Velocidad del viento	8
185922	7	Sololá	712	San Antonio Palopó	9	San Antonio Palopo	7	Julio	2023-07-31T00:00:00	2024-11-08T01:00:00	7	Dirección del viento	8.05
185923	7	Sololá	712	San Antonio Palopó	9	San Antonio Palopo	7	Julio	2023-07-31T00:00:00	2024-11-08T01:00:00	1	Precipitación	0.6
185924	7	Sololá	712	San Antonio Palopó	9	San Antonio Palopo	7	Julio	2023-07-31T00:00:00	2024-11-08T01:00:00	8	Radiación solar	0
185925	7	Sololá	712	San Antonio Palopó	9	San Antonio Palopo	7	Julio	2023-07-31T00:00:00	2024-11-08T02:00:00	2	Temperatura media	18.1
185926	7	Sololá	712	San Antonio Palopó	9	San Antonio Palopo	7	Julio	2023-07-31T00:00:00	2024-11-08T02:00:00	4	Temperatura máxima	19.3
185927	7	Sololá	712	San Antonio Palopó	9	San Antonio Palopo	7	Julio	2023-07-31T00:00:00	2024-11-08T02:00:00	3	Temperatura mínima	18.1
185928	7	Sololá	712	San Antonio Palopó	9	San Antonio Palopo	7	Julio	2023-07-31T00:00:00	2024-11-08T02:00:00	5	Humedad	81
185929	7	Sololá	712	San Antonio Palopó	9	San Antonio Palopo	7	Julio	2023-07-31T00:00:00	2024-11-08T02:00:00	6	Velocidad del viento	9.7
185930	7	Sololá	712	San Antonio Palopó	9	San Antonio Palopo	7	Julio	2023-07-31T00:00:00	2024-11-08T02:00:00	7	Dirección del viento	9.66
185931	7	Sololá	712	San Antonio Palopó	9	San Antonio Palopo	7	Julio	2023-07-31T00:00:00	2024-11-08T02:00:00	1	Precipitación	4.6
185932	7	Sololá	712	San Antonio Palopó	9	San Antonio Palopo	7	Julio	2023-07-31T00:00:00	2024-11-08T02:00:00	8	Radiación solar	0
185933	7	Sololá	712	San Antonio Palopó	9	San Antonio Palopo	7	Julio	2023-07-31T00:00:00	2024-11-08T03:00:00	2	Temperatura media	17.7
185934	7	Sololá	712	San Antonio Palopó	9	San Antonio Palopo	7	Julio	2023-07-31T00:00:00	2024-11-08T03:00:00	4	Temperatura máxima	18.2
185935	7	Sololá	712	San Antonio Palopó	9	San Antonio Palopo	7	Julio	2023-07-31T00:00:00	2024-11-08T03:00:00	3	Temperatura mínima	17.7
185936	7	Sololá	712	San Antonio Palopó	9	San Antonio Palopo	7	Julio	2023-07-31T00:00:00	2024-11-08T03:00:00	5	Humedad	80
185937	7	Sololá	712	San Antonio Palopó	9	San Antonio Palopo	7	Julio	2023-07-31T00:00:00	2024-11-08T03:00:00	6	Velocidad del viento	6.4
185938	7	Sololá	712	San Antonio Palopó	9	San Antonio Palopo	7	Julio	2023-07-31T00:00:00	2024-11-08T03:00:00	7	Dirección del viento	6.44
185939	7	Sololá	712	San Antonio Palopó	9	San Antonio Palopo	7	Julio	2023-07-31T00:00:00	2024-11-08T03:00:00	1	Precipitación	3.2
185940	7	Sololá	712	San Antonio Palopó	9	San Antonio Palopo	7	Julio	2023-07-31T00:00:00	2024-11-08T03:00:00	8	Radiación solar	0
185941	7	Sololá	712	San Antonio Palopó	9	San Antonio Palopo	7	Julio	2023-07-31T00:00:00	2024-11-08T04:00:00	2	Temperatura media	18.3
185942	7	Sololá	712	San Antonio Palopó	9	San Antonio Palopo	7	Julio	2023-07-31T00:00:00	2024-11-08T04:00:00	4	Temperatura máxima	18.3
185943	7	Sololá	712	San Antonio Palopó	9	San Antonio Palopo	7	Julio	2023-07-31T00:00:00	2024-11-08T04:00:00	3	Temperatura mínima	17.6
185944	7	Sololá	712	San Antonio Palopó	9	San Antonio Palopo	7	Julio	2023-07-31T00:00:00	2024-11-08T04:00:00	5	Humedad	76
185945	7	Sololá	712	San Antonio Palopó	9	San Antonio Palopo	7	Julio	2023-07-31T00:00:00	2024-11-08T04:00:00	6	Velocidad del viento	3.2
185946	7	Sololá	712	San Antonio Palopó	9	San Antonio Palopo	7	Julio	2023-07-31T00:00:00	2024-11-08T04:00:00	7	Dirección del viento	3.22
185947	7	Sololá	712	San Antonio Palopó	9	San Antonio Palopo	7	Julio	2023-07-31T00:00:00	2024-11-08T04:00:00	1	Precipitación	0.2
185948	7	Sololá	712	San Antonio Palopó	9	San Antonio Palopo	7	Julio	2023-07-31T00:00:00	2024-11-08T04:00:00	8	Radiación solar	0
185949	7	Sololá	712	San Antonio Palopó	9	San Antonio Palopo	7	Julio	2023-07-31T00:00:00	2024-11-08T05:00:00	2	Temperatura media	17.3
185950	7	Sololá	712	San Antonio Palopó	9	San Antonio Palopo	7	Julio	2023-07-31T00:00:00	2024-11-08T05:00:00	4	Temperatura máxima	18.6
185951	7	Sololá	712	San Antonio Palopó	9	San Antonio Palopo	7	Julio	2023-07-31T00:00:00	2024-11-08T05:00:00	3	Temperatura mínima	17.3
185952	7	Sololá	712	San Antonio Palopó	9	San Antonio Palopo	7	Julio	2023-07-31T00:00:00	2024-11-08T05:00:00	5	Humedad	80
185953	7	Sololá	712	San Antonio Palopó	9	San Antonio Palopo	7	Julio	2023-07-31T00:00:00	2024-11-08T05:00:00	6	Velocidad del viento	6.4
185954	7	Sololá	712	San Antonio Palopó	9	San Antonio Palopo	7	Julio	2023-07-31T00:00:00	2024-11-08T05:00:00	7	Dirección del viento	6.44
185955	7	Sololá	712	San Antonio Palopó	9	San Antonio Palopo	7	Julio	2023-07-31T00:00:00	2024-11-08T05:00:00	1	Precipitación	0
185956	7	Sololá	712	San Antonio Palopó	9	San Antonio Palopo	7	Julio	2023-07-31T00:00:00	2024-11-08T05:00:00	8	Radiación solar	0
185957	7	Sololá	712	San Antonio Palopó	9	San Antonio Palopo	7	Julio	2023-07-31T00:00:00	2024-11-08T06:00:00	2	Temperatura media	19
185958	7	Sololá	712	San Antonio Palopó	9	San Antonio Palopo	7	Julio	2023-07-31T00:00:00	2024-11-08T06:00:00	4	Temperatura máxima	19.1
185959	7	Sololá	712	San Antonio Palopó	9	San Antonio Palopo	7	Julio	2023-07-31T00:00:00	2024-11-08T06:00:00	3	Temperatura mínima	17.3
185960	7	Sololá	712	San Antonio Palopó	9	San Antonio Palopo	7	Julio	2023-07-31T00:00:00	2024-11-08T06:00:00	5	Humedad	70
185961	7	Sololá	712	San Antonio Palopó	9	San Antonio Palopo	7	Julio	2023-07-31T00:00:00	2024-11-08T06:00:00	6	Velocidad del viento	6.4
185962	7	Sololá	712	San Antonio Palopó	9	San Antonio Palopo	7	Julio	2023-07-31T00:00:00	2024-11-08T06:00:00	7	Dirección del viento	6.44
185963	7	Sololá	712	San Antonio Palopó	9	San Antonio Palopo	7	Julio	2023-07-31T00:00:00	2024-11-08T06:00:00	1	Precipitación	0.2
185964	7	Sololá	712	San Antonio Palopó	9	San Antonio Palopo	7	Julio	2023-07-31T00:00:00	2024-11-08T06:00:00	8	Radiación solar	1
185965	7	Sololá	712	San Antonio Palopó	9	San Antonio Palopo	7	Julio	2023-07-31T00:00:00	2024-11-08T07:00:00	2	Temperatura media	19.2
185966	7	Sololá	712	San Antonio Palopó	9	San Antonio Palopo	7	Julio	2023-07-31T00:00:00	2024-11-08T07:00:00	4	Temperatura máxima	19.7
185967	7	Sololá	712	San Antonio Palopó	9	San Antonio Palopo	7	Julio	2023-07-31T00:00:00	2024-11-08T07:00:00	3	Temperatura mínima	19
185968	7	Sololá	712	San Antonio Palopó	9	San Antonio Palopo	7	Julio	2023-07-31T00:00:00	2024-11-08T07:00:00	5	Humedad	72
185969	7	Sololá	712	San Antonio Palopó	9	San Antonio Palopo	7	Julio	2023-07-31T00:00:00	2024-11-08T07:00:00	6	Velocidad del viento	8
185970	7	Sololá	712	San Antonio Palopó	9	San Antonio Palopo	7	Julio	2023-07-31T00:00:00	2024-11-08T07:00:00	7	Dirección del viento	8.05
185971	7	Sololá	712	San Antonio Palopó	9	San Antonio Palopo	7	Julio	2023-07-31T00:00:00	2024-11-08T07:00:00	1	Precipitación	0
185972	7	Sololá	712	San Antonio Palopó	9	San Antonio Palopo	7	Julio	2023-07-31T00:00:00	2024-11-08T07:00:00	8	Radiación solar	42
185973	7	Sololá	712	San Antonio Palopó	9	San Antonio Palopo	7	Julio	2023-07-31T00:00:00	2024-11-08T08:00:00	2	Temperatura media	21.3
185974	7	Sololá	712	San Antonio Palopó	9	San Antonio Palopo	7	Julio	2023-07-31T00:00:00	2024-11-08T08:00:00	4	Temperatura máxima	21.3
185975	7	Sololá	712	San Antonio Palopó	9	San Antonio Palopo	7	Julio	2023-07-31T00:00:00	2024-11-08T08:00:00	3	Temperatura mínima	19.2
185976	7	Sololá	712	San Antonio Palopó	9	San Antonio Palopo	7	Julio	2023-07-31T00:00:00	2024-11-08T08:00:00	5	Humedad	69
185977	7	Sololá	712	San Antonio Palopó	9	San Antonio Palopo	7	Julio	2023-07-31T00:00:00	2024-11-08T08:00:00	6	Velocidad del viento	4.8
185978	7	Sololá	712	San Antonio Palopó	9	San Antonio Palopo	7	Julio	2023-07-31T00:00:00	2024-11-08T08:00:00	7	Dirección del viento	4.83
185979	7	Sololá	712	San Antonio Palopó	9	San Antonio Palopo	7	Julio	2023-07-31T00:00:00	2024-11-08T08:00:00	1	Precipitación	0
185980	7	Sololá	712	San Antonio Palopó	9	San Antonio Palopo	7	Julio	2023-07-31T00:00:00	2024-11-08T08:00:00	8	Radiación solar	163
185981	7	Sololá	712	San Antonio Palopó	9	San Antonio Palopo	7	Julio	2023-07-31T00:00:00	2024-11-08T09:00:00	2	Temperatura media	21.3
185982	7	Sololá	712	San Antonio Palopó	9	San Antonio Palopo	7	Julio	2023-07-31T00:00:00	2024-11-08T09:00:00	4	Temperatura máxima	21.4
185983	7	Sololá	712	San Antonio Palopó	9	San Antonio Palopo	7	Julio	2023-07-31T00:00:00	2024-11-08T09:00:00	3	Temperatura mínima	20.6
185984	7	Sololá	712	San Antonio Palopó	9	San Antonio Palopo	7	Julio	2023-07-31T00:00:00	2024-11-08T09:00:00	5	Humedad	74
185985	7	Sololá	712	San Antonio Palopó	9	San Antonio Palopo	7	Julio	2023-07-31T00:00:00	2024-11-08T09:00:00	6	Velocidad del viento	1.6
185986	7	Sololá	712	San Antonio Palopó	9	San Antonio Palopo	7	Julio	2023-07-31T00:00:00	2024-11-08T09:00:00	7	Dirección del viento	1.61
185987	7	Sololá	712	San Antonio Palopó	9	San Antonio Palopo	7	Julio	2023-07-31T00:00:00	2024-11-08T09:00:00	1	Precipitación	0
185988	7	Sololá	712	San Antonio Palopó	9	San Antonio Palopo	7	Julio	2023-07-31T00:00:00	2024-11-08T09:00:00	8	Radiación solar	317
185989	7	Sololá	712	San Antonio Palopó	9	San Antonio Palopo	7	Julio	2023-07-31T00:00:00	2024-11-08T10:00:00	2	Temperatura media	24.3
185990	7	Sololá	712	San Antonio Palopó	9	San Antonio Palopo	7	Julio	2023-07-31T00:00:00	2024-11-08T10:00:00	4	Temperatura máxima	24.3
185991	7	Sololá	712	San Antonio Palopó	9	San Antonio Palopo	7	Julio	2023-07-31T00:00:00	2024-11-08T10:00:00	3	Temperatura mínima	21.2
185992	7	Sololá	712	San Antonio Palopó	9	San Antonio Palopo	7	Julio	2023-07-31T00:00:00	2024-11-08T10:00:00	5	Humedad	67
185993	7	Sololá	712	San Antonio Palopó	9	San Antonio Palopo	7	Julio	2023-07-31T00:00:00	2024-11-08T10:00:00	6	Velocidad del viento	1.6
185994	7	Sololá	712	San Antonio Palopó	9	San Antonio Palopo	7	Julio	2023-07-31T00:00:00	2024-11-08T10:00:00	7	Dirección del viento	1.61
185995	7	Sololá	712	San Antonio Palopó	9	San Antonio Palopo	7	Julio	2023-07-31T00:00:00	2024-11-08T10:00:00	1	Precipitación	0
185996	7	Sololá	712	San Antonio Palopó	9	San Antonio Palopo	7	Julio	2023-07-31T00:00:00	2024-11-08T10:00:00	8	Radiación solar	435
185997	7	Sololá	712	San Antonio Palopó	9	San Antonio Palopo	7	Julio	2023-07-31T00:00:00	2024-11-08T11:00:00	2	Temperatura media	24.5
185998	7	Sololá	712	San Antonio Palopó	9	San Antonio Palopo	7	Julio	2023-07-31T00:00:00	2024-11-08T11:00:00	4	Temperatura máxima	24.5
185999	7	Sololá	712	San Antonio Palopó	9	San Antonio Palopo	7	Julio	2023-07-31T00:00:00	2024-11-08T11:00:00	3	Temperatura mínima	22.3
186000	7	Sololá	712	San Antonio Palopó	9	San Antonio Palopo	7	Julio	2023-07-31T00:00:00	2024-11-08T11:00:00	5	Humedad	58
186001	7	Sololá	712	San Antonio Palopó	9	San Antonio Palopo	7	Julio	2023-07-31T00:00:00	2024-11-08T11:00:00	6	Velocidad del viento	8
186002	7	Sololá	712	San Antonio Palopó	9	San Antonio Palopo	7	Julio	2023-07-31T00:00:00	2024-11-08T11:00:00	7	Dirección del viento	8.05
186003	7	Sololá	712	San Antonio Palopó	9	San Antonio Palopo	7	Julio	2023-07-31T00:00:00	2024-11-08T11:00:00	1	Precipitación	0
186004	7	Sololá	712	San Antonio Palopó	9	San Antonio Palopo	7	Julio	2023-07-31T00:00:00	2024-11-08T11:00:00	8	Radiación solar	411
186005	7	Sololá	712	San Antonio Palopó	9	San Antonio Palopo	7	Julio	2023-07-31T00:00:00	2024-11-08T12:00:00	2	Temperatura media	25.8
186006	7	Sololá	712	San Antonio Palopó	9	San Antonio Palopo	7	Julio	2023-07-31T00:00:00	2024-11-08T12:00:00	4	Temperatura máxima	25.8
186007	7	Sololá	712	San Antonio Palopó	9	San Antonio Palopo	7	Julio	2023-07-31T00:00:00	2024-11-08T12:00:00	3	Temperatura mínima	24.5
186008	7	Sololá	712	San Antonio Palopó	9	San Antonio Palopo	7	Julio	2023-07-31T00:00:00	2024-11-08T12:00:00	5	Humedad	54
186009	7	Sololá	712	San Antonio Palopó	9	San Antonio Palopo	7	Julio	2023-07-31T00:00:00	2024-11-08T12:00:00	6	Velocidad del viento	6.4
186010	7	Sololá	712	San Antonio Palopó	9	San Antonio Palopo	7	Julio	2023-07-31T00:00:00	2024-11-08T12:00:00	7	Dirección del viento	6.44
186011	7	Sololá	712	San Antonio Palopó	9	San Antonio Palopo	7	Julio	2023-07-31T00:00:00	2024-11-08T12:00:00	1	Precipitación	0
186012	7	Sololá	712	San Antonio Palopó	9	San Antonio Palopo	7	Julio	2023-07-31T00:00:00	2024-11-08T12:00:00	8	Radiación solar	521
186013	7	Sololá	712	San Antonio Palopó	9	San Antonio Palopo	7	Julio	2023-07-31T00:00:00	2024-11-08T13:00:00	2	Temperatura media	25.1
186014	7	Sololá	712	San Antonio Palopó	9	San Antonio Palopo	7	Julio	2023-07-31T00:00:00	2024-11-08T13:00:00	4	Temperatura máxima	26.1
186015	7	Sololá	712	San Antonio Palopó	9	San Antonio Palopo	7	Julio	2023-07-31T00:00:00	2024-11-08T13:00:00	3	Temperatura mínima	25
186016	7	Sololá	712	San Antonio Palopó	9	San Antonio Palopo	7	Julio	2023-07-31T00:00:00	2024-11-08T13:00:00	5	Humedad	71
186017	7	Sololá	712	San Antonio Palopó	9	San Antonio Palopo	7	Julio	2023-07-31T00:00:00	2024-11-08T13:00:00	6	Velocidad del viento	8
186018	7	Sololá	712	San Antonio Palopó	9	San Antonio Palopo	7	Julio	2023-07-31T00:00:00	2024-11-08T13:00:00	7	Dirección del viento	8.05
186019	7	Sololá	712	San Antonio Palopó	9	San Antonio Palopo	7	Julio	2023-07-31T00:00:00	2024-11-08T13:00:00	1	Precipitación	0
186020	7	Sololá	712	San Antonio Palopó	9	San Antonio Palopo	7	Julio	2023-07-31T00:00:00	2024-11-08T13:00:00	8	Radiación solar	917
186021	7	Sololá	712	San Antonio Palopó	9	San Antonio Palopo	7	Julio	2023-07-31T00:00:00	2024-11-08T14:00:00	2	Temperatura media	26.2
186022	7	Sololá	712	San Antonio Palopó	9	San Antonio Palopo	7	Julio	2023-07-31T00:00:00	2024-11-08T14:00:00	4	Temperatura máxima	26.4
186023	7	Sololá	712	San Antonio Palopó	9	San Antonio Palopo	7	Julio	2023-07-31T00:00:00	2024-11-08T14:00:00	3	Temperatura mínima	25.1
186024	7	Sololá	712	San Antonio Palopó	9	San Antonio Palopo	7	Julio	2023-07-31T00:00:00	2024-11-08T14:00:00	5	Humedad	68
186025	7	Sololá	712	San Antonio Palopó	9	San Antonio Palopo	7	Julio	2023-07-31T00:00:00	2024-11-08T14:00:00	6	Velocidad del viento	8
186026	7	Sololá	712	San Antonio Palopó	9	San Antonio Palopo	7	Julio	2023-07-31T00:00:00	2024-11-08T14:00:00	7	Dirección del viento	8.05
186027	7	Sololá	712	San Antonio Palopó	9	San Antonio Palopo	7	Julio	2023-07-31T00:00:00	2024-11-08T14:00:00	1	Precipitación	0
186028	7	Sololá	712	San Antonio Palopó	9	San Antonio Palopo	7	Julio	2023-07-31T00:00:00	2024-11-08T14:00:00	8	Radiación solar	987
186029	7	Sololá	712	San Antonio Palopó	9	San Antonio Palopo	7	Julio	2023-07-31T00:00:00	2024-11-08T15:00:00	2	Temperatura media	25.5
186030	7	Sololá	712	San Antonio Palopó	9	San Antonio Palopo	7	Julio	2023-07-31T00:00:00	2024-11-08T15:00:00	4	Temperatura máxima	26.8
186031	7	Sololá	712	San Antonio Palopó	9	San Antonio Palopo	7	Julio	2023-07-31T00:00:00	2024-11-08T15:00:00	3	Temperatura mínima	25.4
186032	7	Sololá	712	San Antonio Palopó	9	San Antonio Palopo	7	Julio	2023-07-31T00:00:00	2024-11-08T15:00:00	5	Humedad	68
186033	7	Sololá	712	San Antonio Palopó	9	San Antonio Palopo	7	Julio	2023-07-31T00:00:00	2024-11-08T15:00:00	6	Velocidad del viento	6.4
186034	7	Sololá	712	San Antonio Palopó	9	San Antonio Palopo	7	Julio	2023-07-31T00:00:00	2024-11-08T15:00:00	7	Dirección del viento	6.44
186035	7	Sololá	712	San Antonio Palopó	9	San Antonio Palopo	7	Julio	2023-07-31T00:00:00	2024-11-08T15:00:00	1	Precipitación	0
186036	7	Sololá	712	San Antonio Palopó	9	San Antonio Palopo	7	Julio	2023-07-31T00:00:00	2024-11-08T15:00:00	8	Radiación solar	769
186037	7	Sololá	712	San Antonio Palopó	9	San Antonio Palopo	7	Julio	2023-07-31T00:00:00	2024-11-08T16:00:00	2	Temperatura media	24.8
186038	7	Sololá	712	San Antonio Palopó	9	San Antonio Palopo	7	Julio	2023-07-31T00:00:00	2024-11-08T16:00:00	4	Temperatura máxima	26
186039	7	Sololá	712	San Antonio Palopó	9	San Antonio Palopo	7	Julio	2023-07-31T00:00:00	2024-11-08T16:00:00	3	Temperatura mínima	23.8
186040	7	Sololá	712	San Antonio Palopó	9	San Antonio Palopo	7	Julio	2023-07-31T00:00:00	2024-11-08T16:00:00	5	Humedad	71
186041	7	Sololá	712	San Antonio Palopó	9	San Antonio Palopo	7	Julio	2023-07-31T00:00:00	2024-11-08T16:00:00	6	Velocidad del viento	8
186042	7	Sololá	712	San Antonio Palopó	9	San Antonio Palopo	7	Julio	2023-07-31T00:00:00	2024-11-08T16:00:00	7	Dirección del viento	8.05
186043	7	Sololá	712	San Antonio Palopó	9	San Antonio Palopo	7	Julio	2023-07-31T00:00:00	2024-11-08T16:00:00	1	Precipitación	0
186044	7	Sololá	712	San Antonio Palopó	9	San Antonio Palopo	7	Julio	2023-07-31T00:00:00	2024-11-08T16:00:00	8	Radiación solar	619
186045	7	Sololá	712	San Antonio Palopó	9	San Antonio Palopo	7	Julio	2023-07-31T00:00:00	2024-11-08T17:00:00	2	Temperatura media	24.1
186046	7	Sololá	712	San Antonio Palopó	9	San Antonio Palopo	7	Julio	2023-07-31T00:00:00	2024-11-08T17:00:00	4	Temperatura máxima	24.9
186047	7	Sololá	712	San Antonio Palopó	9	San Antonio Palopo	7	Julio	2023-07-31T00:00:00	2024-11-08T17:00:00	3	Temperatura mínima	23.3
186048	7	Sololá	712	San Antonio Palopó	9	San Antonio Palopo	7	Julio	2023-07-31T00:00:00	2024-11-08T17:00:00	5	Humedad	75
186049	7	Sololá	712	San Antonio Palopó	9	San Antonio Palopo	7	Julio	2023-07-31T00:00:00	2024-11-08T17:00:00	6	Velocidad del viento	8
186050	7	Sololá	712	San Antonio Palopó	9	San Antonio Palopo	7	Julio	2023-07-31T00:00:00	2024-11-08T17:00:00	7	Dirección del viento	8.05
186051	7	Sololá	712	San Antonio Palopó	9	San Antonio Palopo	7	Julio	2023-07-31T00:00:00	2024-11-08T17:00:00	1	Precipitación	0
186052	7	Sololá	712	San Antonio Palopó	9	San Antonio Palopo	7	Julio	2023-07-31T00:00:00	2024-11-08T17:00:00	8	Radiación solar	326
186053	7	Sololá	712	San Antonio Palopó	9	San Antonio Palopo	7	Julio	2023-07-31T00:00:00	2024-11-08T18:00:00	2	Temperatura media	23.1
186054	7	Sololá	712	San Antonio Palopó	9	San Antonio Palopo	7	Julio	2023-07-31T00:00:00	2024-11-08T18:00:00	4	Temperatura máxima	24.4
186055	7	Sololá	712	San Antonio Palopó	9	San Antonio Palopo	7	Julio	2023-07-31T00:00:00	2024-11-08T18:00:00	3	Temperatura mínima	23.1
186056	7	Sololá	712	San Antonio Palopó	9	San Antonio Palopo	7	Julio	2023-07-31T00:00:00	2024-11-08T18:00:00	5	Humedad	78
186057	7	Sololá	712	San Antonio Palopó	9	San Antonio Palopo	7	Julio	2023-07-31T00:00:00	2024-11-08T18:00:00	6	Velocidad del viento	4.8
186058	7	Sololá	712	San Antonio Palopó	9	San Antonio Palopo	7	Julio	2023-07-31T00:00:00	2024-11-08T18:00:00	7	Dirección del viento	4.83
186059	7	Sololá	712	San Antonio Palopó	9	San Antonio Palopo	7	Julio	2023-07-31T00:00:00	2024-11-08T18:00:00	1	Precipitación	0
186060	7	Sololá	712	San Antonio Palopó	9	San Antonio Palopo	7	Julio	2023-07-31T00:00:00	2024-11-08T18:00:00	8	Radiación solar	210
186061	7	Sololá	712	San Antonio Palopó	9	San Antonio Palopo	7	Julio	2023-07-31T00:00:00	2024-11-08T19:00:00	2	Temperatura media	21.5
186062	7	Sololá	712	San Antonio Palopó	9	San Antonio Palopo	7	Julio	2023-07-31T00:00:00	2024-11-08T19:00:00	4	Temperatura máxima	23.1
186063	7	Sololá	712	San Antonio Palopó	9	San Antonio Palopo	7	Julio	2023-07-31T00:00:00	2024-11-08T19:00:00	3	Temperatura mínima	21.5
186064	7	Sololá	712	San Antonio Palopó	9	San Antonio Palopo	7	Julio	2023-07-31T00:00:00	2024-11-08T19:00:00	5	Humedad	83
186065	7	Sololá	712	San Antonio Palopó	9	San Antonio Palopo	7	Julio	2023-07-31T00:00:00	2024-11-08T19:00:00	6	Velocidad del viento	4.8
186066	7	Sololá	712	San Antonio Palopó	9	San Antonio Palopo	7	Julio	2023-07-31T00:00:00	2024-11-08T19:00:00	7	Dirección del viento	4.83
186067	7	Sololá	712	San Antonio Palopó	9	San Antonio Palopo	7	Julio	2023-07-31T00:00:00	2024-11-08T19:00:00	1	Precipitación	0
186068	7	Sololá	712	San Antonio Palopó	9	San Antonio Palopo	7	Julio	2023-07-31T00:00:00	2024-11-08T19:00:00	8	Radiación solar	0
186069	7	Sololá	712	San Antonio Palopó	9	San Antonio Palopo	7	Julio	2023-07-31T00:00:00	2024-11-08T20:00:00	2	Temperatura media	21.2
186070	7	Sololá	712	San Antonio Palopó	9	San Antonio Palopo	7	Julio	2023-07-31T00:00:00	2024-11-08T20:00:00	4	Temperatura máxima	21.6
186071	7	Sololá	712	San Antonio Palopó	9	San Antonio Palopo	7	Julio	2023-07-31T00:00:00	2024-11-08T20:00:00	3	Temperatura mínima	21.2
186072	7	Sololá	712	San Antonio Palopó	9	San Antonio Palopo	7	Julio	2023-07-31T00:00:00	2024-11-08T20:00:00	5	Humedad	84
186073	7	Sololá	712	San Antonio Palopó	9	San Antonio Palopo	7	Julio	2023-07-31T00:00:00	2024-11-08T20:00:00	6	Velocidad del viento	1.6
186074	7	Sololá	712	San Antonio Palopó	9	San Antonio Palopo	7	Julio	2023-07-31T00:00:00	2024-11-08T20:00:00	7	Dirección del viento	1.61
186075	7	Sololá	712	San Antonio Palopó	9	San Antonio Palopo	7	Julio	2023-07-31T00:00:00	2024-11-08T20:00:00	1	Precipitación	0
186076	7	Sololá	712	San Antonio Palopó	9	San Antonio Palopo	7	Julio	2023-07-31T00:00:00	2024-11-08T20:00:00	8	Radiación solar	0
186077	7	Sololá	712	San Antonio Palopó	9	San Antonio Palopo	7	Julio	2023-07-31T00:00:00	2024-11-08T21:00:00	2	Temperatura media	20.7
186078	7	Sololá	712	San Antonio Palopó	9	San Antonio Palopo	7	Julio	2023-07-31T00:00:00	2024-11-08T21:00:00	4	Temperatura máxima	21.3
186079	7	Sololá	712	San Antonio Palopó	9	San Antonio Palopo	7	Julio	2023-07-31T00:00:00	2024-11-08T21:00:00	3	Temperatura mínima	20.7
186080	7	Sololá	712	San Antonio Palopó	9	San Antonio Palopo	7	Julio	2023-07-31T00:00:00	2024-11-08T21:00:00	5	Humedad	81
186081	7	Sololá	712	San Antonio Palopó	9	San Antonio Palopo	7	Julio	2023-07-31T00:00:00	2024-11-08T21:00:00	6	Velocidad del viento	1.6
186082	7	Sololá	712	San Antonio Palopó	9	San Antonio Palopo	7	Julio	2023-07-31T00:00:00	2024-11-08T21:00:00	7	Dirección del viento	1.61
186083	7	Sololá	712	San Antonio Palopó	9	San Antonio Palopo	7	Julio	2023-07-31T00:00:00	2024-11-08T21:00:00	1	Precipitación	0
186084	7	Sololá	712	San Antonio Palopó	9	San Antonio Palopo	7	Julio	2023-07-31T00:00:00	2024-11-08T21:00:00	8	Radiación solar	0
186085	7	Sololá	712	San Antonio Palopó	9	San Antonio Palopo	7	Julio	2023-07-31T00:00:00	2024-11-08T22:00:00	2	Temperatura media	21.6
186086	7	Sololá	712	San Antonio Palopó	9	San Antonio Palopo	7	Julio	2023-07-31T00:00:00	2024-11-08T22:00:00	4	Temperatura máxima	21.6
186087	7	Sololá	712	San Antonio Palopó	9	San Antonio Palopo	7	Julio	2023-07-31T00:00:00	2024-11-08T22:00:00	3	Temperatura mínima	20.6
186088	7	Sololá	712	San Antonio Palopó	9	San Antonio Palopo	7	Julio	2023-07-31T00:00:00	2024-11-08T22:00:00	5	Humedad	70
186089	7	Sololá	712	San Antonio Palopó	9	San Antonio Palopo	7	Julio	2023-07-31T00:00:00	2024-11-08T22:00:00	6	Velocidad del viento	6.4
186090	7	Sololá	712	San Antonio Palopó	9	San Antonio Palopo	7	Julio	2023-07-31T00:00:00	2024-11-08T22:00:00	7	Dirección del viento	6.44
186091	7	Sololá	712	San Antonio Palopó	9	San Antonio Palopo	7	Julio	2023-07-31T00:00:00	2024-11-08T22:00:00	1	Precipitación	0
186092	7	Sololá	712	San Antonio Palopó	9	San Antonio Palopo	7	Julio	2023-07-31T00:00:00	2024-11-08T22:00:00	8	Radiación solar	0
186093	7	Sololá	712	San Antonio Palopó	9	San Antonio Palopo	7	Julio	2023-07-31T00:00:00	2024-11-08T23:00:00	2	Temperatura media	20.9
186094	7	Sololá	712	San Antonio Palopó	9	San Antonio Palopo	7	Julio	2023-07-31T00:00:00	2024-11-08T23:00:00	4	Temperatura máxima	21.6
186095	7	Sololá	712	San Antonio Palopó	9	San Antonio Palopo	7	Julio	2023-07-31T00:00:00	2024-11-08T23:00:00	3	Temperatura mínima	20.9
186096	7	Sololá	712	San Antonio Palopó	9	San Antonio Palopo	7	Julio	2023-07-31T00:00:00	2024-11-08T23:00:00	5	Humedad	72
186097	7	Sololá	712	San Antonio Palopó	9	San Antonio Palopo	7	Julio	2023-07-31T00:00:00	2024-11-08T23:00:00	6	Velocidad del viento	8
186098	7	Sololá	712	San Antonio Palopó	9	San Antonio Palopo	7	Julio	2023-07-31T00:00:00	2024-11-08T23:00:00	7	Dirección del viento	8.05
186099	7	Sololá	712	San Antonio Palopó	9	San Antonio Palopo	7	Julio	2023-07-31T00:00:00	2024-11-08T23:00:00	1	Precipitación	0
186100	7	Sololá	712	San Antonio Palopó	9	San Antonio Palopo	7	Julio	2023-07-31T00:00:00	2024-11-08T23:00:00	8	Radiación solar	0
186101	7	Sololá	712	San Antonio Palopó	9	San Antonio Palopo	8	Agosto	2023-01-08T00:00:00	2024-11-08T00:00:00	2	Temperatura media	20.8
186102	7	Sololá	712	San Antonio Palopó	9	San Antonio Palopo	8	Agosto	2023-01-08T00:00:00	2024-11-08T00:00:00	4	Temperatura máxima	21.2
186103	7	Sololá	712	San Antonio Palopó	9	San Antonio Palopo	8	Agosto	2023-01-08T00:00:00	2024-11-08T00:00:00	3	Temperatura mínima	20.8
186104	7	Sololá	712	San Antonio Palopó	9	San Antonio Palopo	8	Agosto	2023-01-08T00:00:00	2024-11-08T00:00:00	5	Humedad	72
186105	7	Sololá	712	San Antonio Palopó	9	San Antonio Palopo	8	Agosto	2023-01-08T00:00:00	2024-11-08T00:00:00	6	Velocidad del viento	8
186106	7	Sololá	712	San Antonio Palopó	9	San Antonio Palopo	8	Agosto	2023-01-08T00:00:00	2024-11-08T00:00:00	7	Dirección del viento	8.05
186107	7	Sololá	712	San Antonio Palopó	9	San Antonio Palopo	8	Agosto	2023-01-08T00:00:00	2024-11-08T00:00:00	1	Precipitación	0
186108	7	Sololá	712	San Antonio Palopó	9	San Antonio Palopo	8	Agosto	2023-01-08T00:00:00	2024-11-08T00:00:00	8	Radiación solar	0
186109	7	Sololá	712	San Antonio Palopó	9	San Antonio Palopo	8	Agosto	2023-01-08T00:00:00	2024-11-08T01:00:00	2	Temperatura media	20.9
186110	7	Sololá	712	San Antonio Palopó	9	San Antonio Palopo	8	Agosto	2023-01-08T00:00:00	2024-11-08T01:00:00	4	Temperatura máxima	21.1
186111	7	Sololá	712	San Antonio Palopó	9	San Antonio Palopo	8	Agosto	2023-01-08T00:00:00	2024-11-08T01:00:00	3	Temperatura mínima	20.8
186112	7	Sololá	712	San Antonio Palopó	9	San Antonio Palopo	8	Agosto	2023-01-08T00:00:00	2024-11-08T01:00:00	5	Humedad	72
186113	7	Sololá	712	San Antonio Palopó	9	San Antonio Palopo	8	Agosto	2023-01-08T00:00:00	2024-11-08T01:00:00	6	Velocidad del viento	4.8
186114	7	Sololá	712	San Antonio Palopó	9	San Antonio Palopo	8	Agosto	2023-01-08T00:00:00	2024-11-08T01:00:00	7	Dirección del viento	4.83
186115	7	Sololá	712	San Antonio Palopó	9	San Antonio Palopo	8	Agosto	2023-01-08T00:00:00	2024-11-08T01:00:00	1	Precipitación	0
186116	7	Sololá	712	San Antonio Palopó	9	San Antonio Palopo	8	Agosto	2023-01-08T00:00:00	2024-11-08T01:00:00	8	Radiación solar	0
186117	7	Sololá	712	San Antonio Palopó	9	San Antonio Palopo	8	Agosto	2023-01-08T00:00:00	2024-11-08T02:00:00	2	Temperatura media	20.2
186118	7	Sololá	712	San Antonio Palopó	9	San Antonio Palopo	8	Agosto	2023-01-08T00:00:00	2024-11-08T02:00:00	4	Temperatura máxima	21.1
186119	7	Sololá	712	San Antonio Palopó	9	San Antonio Palopo	8	Agosto	2023-01-08T00:00:00	2024-11-08T02:00:00	3	Temperatura mínima	20.2
186120	7	Sololá	712	San Antonio Palopó	9	San Antonio Palopo	8	Agosto	2023-01-08T00:00:00	2024-11-08T02:00:00	5	Humedad	77
186121	7	Sololá	712	San Antonio Palopó	9	San Antonio Palopo	8	Agosto	2023-01-08T00:00:00	2024-11-08T02:00:00	6	Velocidad del viento	6.4
186122	7	Sololá	712	San Antonio Palopó	9	San Antonio Palopo	8	Agosto	2023-01-08T00:00:00	2024-11-08T02:00:00	7	Dirección del viento	6.44
186123	7	Sololá	712	San Antonio Palopó	9	San Antonio Palopo	8	Agosto	2023-01-08T00:00:00	2024-11-08T02:00:00	1	Precipitación	0
186124	7	Sololá	712	San Antonio Palopó	9	San Antonio Palopo	8	Agosto	2023-01-08T00:00:00	2024-11-08T02:00:00	8	Radiación solar	0
186125	7	Sololá	712	San Antonio Palopó	9	San Antonio Palopo	8	Agosto	2023-01-08T00:00:00	2024-11-08T03:00:00	2	Temperatura media	18.4
186126	7	Sololá	712	San Antonio Palopó	9	San Antonio Palopo	8	Agosto	2023-01-08T00:00:00	2024-11-08T03:00:00	4	Temperatura máxima	20.2
186127	7	Sololá	712	San Antonio Palopó	9	San Antonio Palopo	8	Agosto	2023-01-08T00:00:00	2024-11-08T03:00:00	3	Temperatura mínima	18.4
186128	7	Sololá	712	San Antonio Palopó	9	San Antonio Palopo	8	Agosto	2023-01-08T00:00:00	2024-11-08T03:00:00	5	Humedad	86
186129	7	Sololá	712	San Antonio Palopó	9	San Antonio Palopo	8	Agosto	2023-01-08T00:00:00	2024-11-08T03:00:00	6	Velocidad del viento	4.8
186130	7	Sololá	712	San Antonio Palopó	9	San Antonio Palopo	8	Agosto	2023-01-08T00:00:00	2024-11-08T03:00:00	7	Dirección del viento	4.83
186131	7	Sololá	712	San Antonio Palopó	9	San Antonio Palopo	8	Agosto	2023-01-08T00:00:00	2024-11-08T03:00:00	1	Precipitación	0.4
186132	7	Sololá	712	San Antonio Palopó	9	San Antonio Palopo	8	Agosto	2023-01-08T00:00:00	2024-11-08T03:00:00	8	Radiación solar	0
186133	7	Sololá	712	San Antonio Palopó	9	San Antonio Palopo	8	Agosto	2023-01-08T00:00:00	2024-11-08T04:00:00	2	Temperatura media	18.6
186134	7	Sololá	712	San Antonio Palopó	9	San Antonio Palopo	8	Agosto	2023-01-08T00:00:00	2024-11-08T04:00:00	4	Temperatura máxima	19.2
186135	7	Sololá	712	San Antonio Palopó	9	San Antonio Palopo	8	Agosto	2023-01-08T00:00:00	2024-11-08T04:00:00	3	Temperatura mínima	18.3
186136	7	Sololá	712	San Antonio Palopó	9	San Antonio Palopo	8	Agosto	2023-01-08T00:00:00	2024-11-08T04:00:00	5	Humedad	84
186137	7	Sololá	712	San Antonio Palopó	9	San Antonio Palopo	8	Agosto	2023-01-08T00:00:00	2024-11-08T04:00:00	6	Velocidad del viento	3.2
186138	7	Sololá	712	San Antonio Palopó	9	San Antonio Palopo	8	Agosto	2023-01-08T00:00:00	2024-11-08T04:00:00	7	Dirección del viento	3.22
186139	7	Sololá	712	San Antonio Palopó	9	San Antonio Palopo	8	Agosto	2023-01-08T00:00:00	2024-11-08T04:00:00	1	Precipitación	0
186140	7	Sololá	712	San Antonio Palopó	9	San Antonio Palopo	8	Agosto	2023-01-08T00:00:00	2024-11-08T04:00:00	8	Radiación solar	0
186141	7	Sololá	712	San Antonio Palopó	9	San Antonio Palopo	8	Agosto	2023-01-08T00:00:00	2024-11-08T05:00:00	2	Temperatura media	19.9
186142	7	Sololá	712	San Antonio Palopó	9	San Antonio Palopo	8	Agosto	2023-01-08T00:00:00	2024-11-08T05:00:00	4	Temperatura máxima	19.9
186143	7	Sololá	712	San Antonio Palopó	9	San Antonio Palopo	8	Agosto	2023-01-08T00:00:00	2024-11-08T05:00:00	3	Temperatura mínima	18.6
186144	7	Sololá	712	San Antonio Palopó	9	San Antonio Palopo	8	Agosto	2023-01-08T00:00:00	2024-11-08T05:00:00	5	Humedad	75
186145	7	Sololá	712	San Antonio Palopó	9	San Antonio Palopo	8	Agosto	2023-01-08T00:00:00	2024-11-08T05:00:00	6	Velocidad del viento	4.8
186146	7	Sololá	712	San Antonio Palopó	9	San Antonio Palopo	8	Agosto	2023-01-08T00:00:00	2024-11-08T05:00:00	7	Dirección del viento	4.83
186147	7	Sololá	712	San Antonio Palopó	9	San Antonio Palopo	8	Agosto	2023-01-08T00:00:00	2024-11-08T05:00:00	1	Precipitación	0
186148	7	Sololá	712	San Antonio Palopó	9	San Antonio Palopo	8	Agosto	2023-01-08T00:00:00	2024-11-08T05:00:00	8	Radiación solar	0
186149	7	Sololá	712	San Antonio Palopó	9	San Antonio Palopo	8	Agosto	2023-01-08T00:00:00	2024-11-08T06:00:00	2	Temperatura media	19.7
186150	7	Sololá	712	San Antonio Palopó	9	San Antonio Palopo	8	Agosto	2023-01-08T00:00:00	2024-11-08T06:00:00	4	Temperatura máxima	19.9
186151	7	Sololá	712	San Antonio Palopó	9	San Antonio Palopo	8	Agosto	2023-01-08T00:00:00	2024-11-08T06:00:00	3	Temperatura mínima	19.6
186152	7	Sololá	712	San Antonio Palopó	9	San Antonio Palopo	8	Agosto	2023-01-08T00:00:00	2024-11-08T06:00:00	5	Humedad	75
186153	7	Sololá	712	San Antonio Palopó	9	San Antonio Palopo	8	Agosto	2023-01-08T00:00:00	2024-11-08T06:00:00	6	Velocidad del viento	8
186154	7	Sololá	712	San Antonio Palopó	9	San Antonio Palopo	8	Agosto	2023-01-08T00:00:00	2024-11-08T06:00:00	7	Dirección del viento	8.05
186155	7	Sololá	712	San Antonio Palopó	9	San Antonio Palopo	8	Agosto	2023-01-08T00:00:00	2024-11-08T06:00:00	1	Precipitación	0
186156	7	Sololá	712	San Antonio Palopó	9	San Antonio Palopo	8	Agosto	2023-01-08T00:00:00	2024-11-08T06:00:00	8	Radiación solar	1
186157	7	Sololá	712	San Antonio Palopó	9	San Antonio Palopo	8	Agosto	2023-01-08T00:00:00	2024-11-08T07:00:00	2	Temperatura media	20
186158	7	Sololá	712	San Antonio Palopó	9	San Antonio Palopo	8	Agosto	2023-01-08T00:00:00	2024-11-08T07:00:00	4	Temperatura máxima	20.1
186159	7	Sololá	712	San Antonio Palopó	9	San Antonio Palopo	8	Agosto	2023-01-08T00:00:00	2024-11-08T07:00:00	3	Temperatura mínima	19.4
186160	7	Sololá	712	San Antonio Palopó	9	San Antonio Palopo	8	Agosto	2023-01-08T00:00:00	2024-11-08T07:00:00	5	Humedad	74
186161	7	Sololá	712	San Antonio Palopó	9	San Antonio Palopo	8	Agosto	2023-01-08T00:00:00	2024-11-08T07:00:00	6	Velocidad del viento	6.4
186162	7	Sololá	712	San Antonio Palopó	9	San Antonio Palopo	8	Agosto	2023-01-08T00:00:00	2024-11-08T07:00:00	7	Dirección del viento	6.44
186163	7	Sololá	712	San Antonio Palopó	9	San Antonio Palopo	8	Agosto	2023-01-08T00:00:00	2024-11-08T07:00:00	1	Precipitación	0
186164	7	Sololá	712	San Antonio Palopó	9	San Antonio Palopo	8	Agosto	2023-01-08T00:00:00	2024-11-08T07:00:00	8	Radiación solar	34
186165	7	Sololá	712	San Antonio Palopó	9	San Antonio Palopo	8	Agosto	2023-01-08T00:00:00	2024-11-08T08:00:00	2	Temperatura media	21.8
186166	7	Sololá	712	San Antonio Palopó	9	San Antonio Palopo	8	Agosto	2023-01-08T00:00:00	2024-11-08T08:00:00	4	Temperatura máxima	21.8
186167	7	Sololá	712	San Antonio Palopó	9	San Antonio Palopo	8	Agosto	2023-01-08T00:00:00	2024-11-08T08:00:00	3	Temperatura mínima	20
186168	7	Sololá	712	San Antonio Palopó	9	San Antonio Palopo	8	Agosto	2023-01-08T00:00:00	2024-11-08T08:00:00	5	Humedad	71
186169	7	Sololá	712	San Antonio Palopó	9	San Antonio Palopo	8	Agosto	2023-01-08T00:00:00	2024-11-08T08:00:00	6	Velocidad del viento	6.4
186170	7	Sololá	712	San Antonio Palopó	9	San Antonio Palopo	8	Agosto	2023-01-08T00:00:00	2024-11-08T08:00:00	7	Dirección del viento	6.44
186171	7	Sololá	712	San Antonio Palopó	9	San Antonio Palopo	8	Agosto	2023-01-08T00:00:00	2024-11-08T08:00:00	1	Precipitación	0
186172	7	Sololá	712	San Antonio Palopó	9	San Antonio Palopo	8	Agosto	2023-01-08T00:00:00	2024-11-08T08:00:00	8	Radiación solar	217
186173	7	Sololá	712	San Antonio Palopó	9	San Antonio Palopo	8	Agosto	2023-01-08T00:00:00	2024-11-08T09:00:00	2	Temperatura media	22.6
186174	7	Sololá	712	San Antonio Palopó	9	San Antonio Palopo	8	Agosto	2023-01-08T00:00:00	2024-11-08T09:00:00	4	Temperatura máxima	22.6
186175	7	Sololá	712	San Antonio Palopó	9	San Antonio Palopo	8	Agosto	2023-01-08T00:00:00	2024-11-08T09:00:00	3	Temperatura mínima	21.8
186176	7	Sololá	712	San Antonio Palopó	9	San Antonio Palopo	8	Agosto	2023-01-08T00:00:00	2024-11-08T09:00:00	5	Humedad	69
186177	7	Sololá	712	San Antonio Palopó	9	San Antonio Palopo	8	Agosto	2023-01-08T00:00:00	2024-11-08T09:00:00	6	Velocidad del viento	3.2
186178	7	Sololá	712	San Antonio Palopó	9	San Antonio Palopo	8	Agosto	2023-01-08T00:00:00	2024-11-08T09:00:00	7	Dirección del viento	3.22
186179	7	Sololá	712	San Antonio Palopó	9	San Antonio Palopo	8	Agosto	2023-01-08T00:00:00	2024-11-08T09:00:00	1	Precipitación	0
186180	7	Sololá	712	San Antonio Palopó	9	San Antonio Palopo	8	Agosto	2023-01-08T00:00:00	2024-11-08T09:00:00	8	Radiación solar	575
186181	7	Sololá	712	San Antonio Palopó	9	San Antonio Palopo	8	Agosto	2023-01-08T00:00:00	2024-11-08T10:00:00	2	Temperatura media	22.6
186182	7	Sololá	712	San Antonio Palopó	9	San Antonio Palopo	8	Agosto	2023-01-08T00:00:00	2024-11-08T10:00:00	4	Temperatura máxima	22.6
186183	7	Sololá	712	San Antonio Palopó	9	San Antonio Palopo	8	Agosto	2023-01-08T00:00:00	2024-11-08T10:00:00	3	Temperatura mínima	22.2
186184	7	Sololá	712	San Antonio Palopó	9	San Antonio Palopo	8	Agosto	2023-01-08T00:00:00	2024-11-08T10:00:00	5	Humedad	72
186185	7	Sololá	712	San Antonio Palopó	9	San Antonio Palopo	8	Agosto	2023-01-08T00:00:00	2024-11-08T10:00:00	6	Velocidad del viento	6.4
186186	7	Sololá	712	San Antonio Palopó	9	San Antonio Palopo	8	Agosto	2023-01-08T00:00:00	2024-11-08T10:00:00	7	Dirección del viento	6.44
186187	7	Sololá	712	San Antonio Palopó	9	San Antonio Palopo	8	Agosto	2023-01-08T00:00:00	2024-11-08T10:00:00	1	Precipitación	0
186188	7	Sololá	712	San Antonio Palopó	9	San Antonio Palopo	8	Agosto	2023-01-08T00:00:00	2024-11-08T10:00:00	8	Radiación solar	731
186189	7	Sololá	712	San Antonio Palopó	9	San Antonio Palopo	8	Agosto	2023-01-08T00:00:00	2024-11-08T11:00:00	2	Temperatura media	22.9
186190	7	Sololá	712	San Antonio Palopó	9	San Antonio Palopo	8	Agosto	2023-01-08T00:00:00	2024-11-08T11:00:00	4	Temperatura máxima	23.3
186191	7	Sololá	712	San Antonio Palopó	9	San Antonio Palopo	8	Agosto	2023-01-08T00:00:00	2024-11-08T11:00:00	3	Temperatura mínima	22.3
186192	7	Sololá	712	San Antonio Palopó	9	San Antonio Palopo	8	Agosto	2023-01-08T00:00:00	2024-11-08T11:00:00	5	Humedad	73
186193	7	Sololá	712	San Antonio Palopó	9	San Antonio Palopo	8	Agosto	2023-01-08T00:00:00	2024-11-08T11:00:00	6	Velocidad del viento	4.8
186194	7	Sololá	712	San Antonio Palopó	9	San Antonio Palopo	8	Agosto	2023-01-08T00:00:00	2024-11-08T11:00:00	7	Dirección del viento	4.83
186195	7	Sololá	712	San Antonio Palopó	9	San Antonio Palopo	8	Agosto	2023-01-08T00:00:00	2024-11-08T11:00:00	1	Precipitación	0
186196	7	Sololá	712	San Antonio Palopó	9	San Antonio Palopo	8	Agosto	2023-01-08T00:00:00	2024-11-08T11:00:00	8	Radiación solar	632
186197	7	Sololá	712	San Antonio Palopó	9	San Antonio Palopo	8	Agosto	2023-01-08T00:00:00	2024-11-08T12:00:00	2	Temperatura media	26.2
186198	7	Sololá	712	San Antonio Palopó	9	San Antonio Palopo	8	Agosto	2023-01-08T00:00:00	2024-11-08T12:00:00	4	Temperatura máxima	26.2
186199	7	Sololá	712	San Antonio Palopó	9	San Antonio Palopo	8	Agosto	2023-01-08T00:00:00	2024-11-08T12:00:00	3	Temperatura mínima	22.9
186200	7	Sololá	712	San Antonio Palopó	9	San Antonio Palopo	8	Agosto	2023-01-08T00:00:00	2024-11-08T12:00:00	5	Humedad	59
186201	7	Sololá	712	San Antonio Palopó	9	San Antonio Palopo	8	Agosto	2023-01-08T00:00:00	2024-11-08T12:00:00	6	Velocidad del viento	4.8
186202	7	Sololá	712	San Antonio Palopó	9	San Antonio Palopo	8	Agosto	2023-01-08T00:00:00	2024-11-08T12:00:00	7	Dirección del viento	4.83
186203	7	Sololá	712	San Antonio Palopó	9	San Antonio Palopo	8	Agosto	2023-01-08T00:00:00	2024-11-08T12:00:00	1	Precipitación	0
186204	7	Sololá	712	San Antonio Palopó	9	San Antonio Palopo	8	Agosto	2023-01-08T00:00:00	2024-11-08T12:00:00	8	Radiación solar	666
186205	7	Sololá	712	San Antonio Palopó	9	San Antonio Palopo	8	Agosto	2023-01-08T00:00:00	2024-11-08T13:00:00	2	Temperatura media	25.1
186206	7	Sololá	712	San Antonio Palopó	9	San Antonio Palopo	8	Agosto	2023-01-08T00:00:00	2024-11-08T13:00:00	4	Temperatura máxima	26.2
186207	7	Sololá	712	San Antonio Palopó	9	San Antonio Palopo	8	Agosto	2023-01-08T00:00:00	2024-11-08T13:00:00	3	Temperatura mínima	24.9
186208	7	Sololá	712	San Antonio Palopó	9	San Antonio Palopo	8	Agosto	2023-01-08T00:00:00	2024-11-08T13:00:00	5	Humedad	67
186209	7	Sololá	712	San Antonio Palopó	9	San Antonio Palopo	8	Agosto	2023-01-08T00:00:00	2024-11-08T13:00:00	6	Velocidad del viento	11.3
186210	7	Sololá	712	San Antonio Palopó	9	San Antonio Palopo	8	Agosto	2023-01-08T00:00:00	2024-11-08T13:00:00	7	Dirección del viento	11.27
186211	7	Sololá	712	San Antonio Palopó	9	San Antonio Palopo	8	Agosto	2023-01-08T00:00:00	2024-11-08T13:00:00	1	Precipitación	0
186212	7	Sololá	712	San Antonio Palopó	9	San Antonio Palopo	8	Agosto	2023-01-08T00:00:00	2024-11-08T13:00:00	8	Radiación solar	965
186213	7	Sololá	712	San Antonio Palopó	9	San Antonio Palopo	8	Agosto	2023-01-08T00:00:00	2024-11-08T14:00:00	2	Temperatura media	25.8
186214	7	Sololá	712	San Antonio Palopó	9	San Antonio Palopo	8	Agosto	2023-01-08T00:00:00	2024-11-08T14:00:00	4	Temperatura máxima	25.9
186215	7	Sololá	712	San Antonio Palopó	9	San Antonio Palopo	8	Agosto	2023-01-08T00:00:00	2024-11-08T14:00:00	3	Temperatura mínima	24.9
186216	7	Sololá	712	San Antonio Palopó	9	San Antonio Palopo	8	Agosto	2023-01-08T00:00:00	2024-11-08T14:00:00	5	Humedad	72
186217	7	Sololá	712	San Antonio Palopó	9	San Antonio Palopo	8	Agosto	2023-01-08T00:00:00	2024-11-08T14:00:00	6	Velocidad del viento	9.7
186218	7	Sololá	712	San Antonio Palopó	9	San Antonio Palopo	8	Agosto	2023-01-08T00:00:00	2024-11-08T14:00:00	7	Dirección del viento	9.66
186219	7	Sololá	712	San Antonio Palopó	9	San Antonio Palopo	8	Agosto	2023-01-08T00:00:00	2024-11-08T14:00:00	1	Precipitación	0
186220	7	Sololá	712	San Antonio Palopó	9	San Antonio Palopo	8	Agosto	2023-01-08T00:00:00	2024-11-08T14:00:00	8	Radiación solar	967
186221	7	Sololá	712	San Antonio Palopó	9	San Antonio Palopo	8	Agosto	2023-01-08T00:00:00	2024-11-08T15:00:00	2	Temperatura media	26.5
186222	7	Sololá	712	San Antonio Palopó	9	San Antonio Palopo	8	Agosto	2023-01-08T00:00:00	2024-11-08T15:00:00	4	Temperatura máxima	26.6
186223	7	Sololá	712	San Antonio Palopó	9	San Antonio Palopo	8	Agosto	2023-01-08T00:00:00	2024-11-08T15:00:00	3	Temperatura mínima	25
186224	7	Sololá	712	San Antonio Palopó	9	San Antonio Palopo	8	Agosto	2023-01-08T00:00:00	2024-11-08T15:00:00	5	Humedad	68
186225	7	Sololá	712	San Antonio Palopó	9	San Antonio Palopo	8	Agosto	2023-01-08T00:00:00	2024-11-08T15:00:00	6	Velocidad del viento	6.4
186226	7	Sololá	712	San Antonio Palopó	9	San Antonio Palopo	8	Agosto	2023-01-08T00:00:00	2024-11-08T15:00:00	7	Dirección del viento	6.44
186227	7	Sololá	712	San Antonio Palopó	9	San Antonio Palopo	8	Agosto	2023-01-08T00:00:00	2024-11-08T15:00:00	1	Precipitación	0
186228	7	Sololá	712	San Antonio Palopó	9	San Antonio Palopo	8	Agosto	2023-01-08T00:00:00	2024-11-08T15:00:00	8	Radiación solar	901
186229	7	Sololá	712	San Antonio Palopó	9	San Antonio Palopo	8	Agosto	2023-01-08T00:00:00	2024-11-08T16:00:00	2	Temperatura media	21
186230	7	Sololá	712	San Antonio Palopó	9	San Antonio Palopo	8	Agosto	2023-01-08T00:00:00	2024-11-08T16:00:00	4	Temperatura máxima	26.5
186231	7	Sololá	712	San Antonio Palopó	9	San Antonio Palopo	8	Agosto	2023-01-08T00:00:00	2024-11-08T16:00:00	3	Temperatura mínima	21
186232	7	Sololá	712	San Antonio Palopó	9	San Antonio Palopo	8	Agosto	2023-01-08T00:00:00	2024-11-08T16:00:00	5	Humedad	81
186233	7	Sololá	712	San Antonio Palopó	9	San Antonio Palopo	8	Agosto	2023-01-08T00:00:00	2024-11-08T16:00:00	6	Velocidad del viento	14.5
186234	7	Sololá	712	San Antonio Palopó	9	San Antonio Palopo	8	Agosto	2023-01-08T00:00:00	2024-11-08T16:00:00	7	Dirección del viento	14.48
186235	7	Sololá	712	San Antonio Palopó	9	San Antonio Palopo	8	Agosto	2023-01-08T00:00:00	2024-11-08T16:00:00	1	Precipitación	0
186236	7	Sololá	712	San Antonio Palopó	9	San Antonio Palopo	8	Agosto	2023-01-08T00:00:00	2024-11-08T16:00:00	8	Radiación solar	310
186237	7	Sololá	712	San Antonio Palopó	9	San Antonio Palopo	8	Agosto	2023-01-08T00:00:00	2024-11-08T17:00:00	2	Temperatura media	19.5
186238	7	Sololá	712	San Antonio Palopó	9	San Antonio Palopo	8	Agosto	2023-01-08T00:00:00	2024-11-08T17:00:00	4	Temperatura máxima	21.7
186239	7	Sololá	712	San Antonio Palopó	9	San Antonio Palopo	8	Agosto	2023-01-08T00:00:00	2024-11-08T17:00:00	3	Temperatura mínima	18.5
186240	7	Sololá	712	San Antonio Palopó	9	San Antonio Palopo	8	Agosto	2023-01-08T00:00:00	2024-11-08T17:00:00	5	Humedad	84
186241	7	Sololá	712	San Antonio Palopó	9	San Antonio Palopo	8	Agosto	2023-01-08T00:00:00	2024-11-08T17:00:00	6	Velocidad del viento	9.7
186242	7	Sololá	712	San Antonio Palopó	9	San Antonio Palopo	8	Agosto	2023-01-08T00:00:00	2024-11-08T17:00:00	7	Dirección del viento	9.66
186243	7	Sololá	712	San Antonio Palopó	9	San Antonio Palopo	8	Agosto	2023-01-08T00:00:00	2024-11-08T17:00:00	1	Precipitación	0
186244	7	Sololá	712	San Antonio Palopó	9	San Antonio Palopo	8	Agosto	2023-01-08T00:00:00	2024-11-08T17:00:00	8	Radiación solar	54
186245	7	Sololá	712	San Antonio Palopó	9	San Antonio Palopo	8	Agosto	2023-01-08T00:00:00	2024-11-08T18:00:00	2	Temperatura media	19.4
186246	7	Sololá	712	San Antonio Palopó	9	San Antonio Palopo	8	Agosto	2023-01-08T00:00:00	2024-11-08T18:00:00	4	Temperatura máxima	19.7
186247	7	Sololá	712	San Antonio Palopó	9	San Antonio Palopo	8	Agosto	2023-01-08T00:00:00	2024-11-08T18:00:00	3	Temperatura mínima	19.2
186248	7	Sololá	712	San Antonio Palopó	9	San Antonio Palopo	8	Agosto	2023-01-08T00:00:00	2024-11-08T18:00:00	5	Humedad	85
186249	7	Sololá	712	San Antonio Palopó	9	San Antonio Palopo	8	Agosto	2023-01-08T00:00:00	2024-11-08T18:00:00	6	Velocidad del viento	8
186250	7	Sololá	712	San Antonio Palopó	9	San Antonio Palopo	8	Agosto	2023-01-08T00:00:00	2024-11-08T18:00:00	7	Dirección del viento	8.05
186251	7	Sololá	712	San Antonio Palopó	9	San Antonio Palopo	8	Agosto	2023-01-08T00:00:00	2024-11-08T18:00:00	1	Precipitación	0
186252	7	Sololá	712	San Antonio Palopó	9	San Antonio Palopo	8	Agosto	2023-01-08T00:00:00	2024-11-08T18:00:00	8	Radiación solar	13
186253	7	Sololá	712	San Antonio Palopó	9	San Antonio Palopo	8	Agosto	2023-01-08T00:00:00	2024-11-08T19:00:00	2	Temperatura media	19.9
186254	7	Sololá	712	San Antonio Palopó	9	San Antonio Palopo	8	Agosto	2023-01-08T00:00:00	2024-11-08T19:00:00	4	Temperatura máxima	20.1
186255	7	Sololá	712	San Antonio Palopó	9	San Antonio Palopo	8	Agosto	2023-01-08T00:00:00	2024-11-08T19:00:00	3	Temperatura mínima	19.3
186256	7	Sololá	712	San Antonio Palopó	9	San Antonio Palopo	8	Agosto	2023-01-08T00:00:00	2024-11-08T19:00:00	5	Humedad	83
186257	7	Sololá	712	San Antonio Palopó	9	San Antonio Palopo	8	Agosto	2023-01-08T00:00:00	2024-11-08T19:00:00	6	Velocidad del viento	3.2
186258	7	Sololá	712	San Antonio Palopó	9	San Antonio Palopo	8	Agosto	2023-01-08T00:00:00	2024-11-08T19:00:00	7	Dirección del viento	3.22
186259	7	Sololá	712	San Antonio Palopó	9	San Antonio Palopo	8	Agosto	2023-01-08T00:00:00	2024-11-08T19:00:00	1	Precipitación	0
186260	7	Sololá	712	San Antonio Palopó	9	San Antonio Palopo	8	Agosto	2023-01-08T00:00:00	2024-11-08T19:00:00	8	Radiación solar	0
186261	7	Sololá	712	San Antonio Palopó	9	San Antonio Palopo	8	Agosto	2023-01-08T00:00:00	2024-11-08T20:00:00	2	Temperatura media	20.3
186262	7	Sololá	712	San Antonio Palopó	9	San Antonio Palopo	8	Agosto	2023-01-08T00:00:00	2024-11-08T20:00:00	4	Temperatura máxima	20.3
186263	7	Sololá	712	San Antonio Palopó	9	San Antonio Palopo	8	Agosto	2023-01-08T00:00:00	2024-11-08T20:00:00	3	Temperatura mínima	19.8
186264	7	Sololá	712	San Antonio Palopó	9	San Antonio Palopo	8	Agosto	2023-01-08T00:00:00	2024-11-08T20:00:00	5	Humedad	81
186265	7	Sololá	712	San Antonio Palopó	9	San Antonio Palopo	8	Agosto	2023-01-08T00:00:00	2024-11-08T20:00:00	6	Velocidad del viento	1.6
186266	7	Sololá	712	San Antonio Palopó	9	San Antonio Palopo	8	Agosto	2023-01-08T00:00:00	2024-11-08T20:00:00	7	Dirección del viento	1.61
186267	7	Sololá	712	San Antonio Palopó	9	San Antonio Palopo	8	Agosto	2023-01-08T00:00:00	2024-11-08T20:00:00	1	Precipitación	0
186268	7	Sololá	712	San Antonio Palopó	9	San Antonio Palopo	8	Agosto	2023-01-08T00:00:00	2024-11-08T20:00:00	8	Radiación solar	0
186269	7	Sololá	712	San Antonio Palopó	9	San Antonio Palopo	8	Agosto	2023-01-08T00:00:00	2024-11-08T21:00:00	2	Temperatura media	19.2
186270	7	Sololá	712	San Antonio Palopó	9	San Antonio Palopo	8	Agosto	2023-01-08T00:00:00	2024-11-08T21:00:00	4	Temperatura máxima	20.4
186271	7	Sololá	712	San Antonio Palopó	9	San Antonio Palopo	8	Agosto	2023-01-08T00:00:00	2024-11-08T21:00:00	3	Temperatura mínima	19.2
186272	7	Sololá	712	San Antonio Palopó	9	San Antonio Palopo	8	Agosto	2023-01-08T00:00:00	2024-11-08T21:00:00	5	Humedad	74
186273	7	Sololá	712	San Antonio Palopó	9	San Antonio Palopo	8	Agosto	2023-01-08T00:00:00	2024-11-08T21:00:00	6	Velocidad del viento	4.8
186274	7	Sololá	712	San Antonio Palopó	9	San Antonio Palopo	8	Agosto	2023-01-08T00:00:00	2024-11-08T21:00:00	7	Dirección del viento	4.83
186275	7	Sololá	712	San Antonio Palopó	9	San Antonio Palopo	8	Agosto	2023-01-08T00:00:00	2024-11-08T21:00:00	1	Precipitación	0.6
186276	7	Sololá	712	San Antonio Palopó	9	San Antonio Palopo	8	Agosto	2023-01-08T00:00:00	2024-11-08T21:00:00	8	Radiación solar	0
186277	7	Sololá	712	San Antonio Palopó	9	San Antonio Palopo	8	Agosto	2023-01-08T00:00:00	2024-11-08T22:00:00	2	Temperatura media	18.3
186278	7	Sololá	712	San Antonio Palopó	9	San Antonio Palopo	8	Agosto	2023-01-08T00:00:00	2024-11-08T22:00:00	4	Temperatura máxima	19.2
186279	7	Sololá	712	San Antonio Palopó	9	San Antonio Palopo	8	Agosto	2023-01-08T00:00:00	2024-11-08T22:00:00	3	Temperatura mínima	18
186280	7	Sololá	712	San Antonio Palopó	9	San Antonio Palopo	8	Agosto	2023-01-08T00:00:00	2024-11-08T22:00:00	5	Humedad	79
186281	7	Sololá	712	San Antonio Palopó	9	San Antonio Palopo	8	Agosto	2023-01-08T00:00:00	2024-11-08T22:00:00	6	Velocidad del viento	8
186282	7	Sololá	712	San Antonio Palopó	9	San Antonio Palopo	8	Agosto	2023-01-08T00:00:00	2024-11-08T22:00:00	7	Dirección del viento	8.05
186283	7	Sololá	712	San Antonio Palopó	9	San Antonio Palopo	8	Agosto	2023-01-08T00:00:00	2024-11-08T22:00:00	1	Precipitación	2.2
186284	7	Sololá	712	San Antonio Palopó	9	San Antonio Palopo	8	Agosto	2023-01-08T00:00:00	2024-11-08T22:00:00	8	Radiación solar	0
186285	7	Sololá	712	San Antonio Palopó	9	San Antonio Palopo	8	Agosto	2023-01-08T00:00:00	2024-11-08T23:00:00	2	Temperatura media	17.3
186286	7	Sololá	712	San Antonio Palopó	9	San Antonio Palopo	8	Agosto	2023-01-08T00:00:00	2024-11-08T23:00:00	4	Temperatura máxima	18.3
186287	7	Sololá	712	San Antonio Palopó	9	San Antonio Palopo	8	Agosto	2023-01-08T00:00:00	2024-11-08T23:00:00	3	Temperatura mínima	17.2
186288	7	Sololá	712	San Antonio Palopó	9	San Antonio Palopo	8	Agosto	2023-01-08T00:00:00	2024-11-08T23:00:00	5	Humedad	86
186289	7	Sololá	712	San Antonio Palopó	9	San Antonio Palopo	8	Agosto	2023-01-08T00:00:00	2024-11-08T23:00:00	6	Velocidad del viento	3.2
186290	7	Sololá	712	San Antonio Palopó	9	San Antonio Palopo	8	Agosto	2023-01-08T00:00:00	2024-11-08T23:00:00	7	Dirección del viento	3.22
186291	7	Sololá	712	San Antonio Palopó	9	San Antonio Palopo	8	Agosto	2023-01-08T00:00:00	2024-11-08T23:00:00	1	Precipitación	0.2
186292	7	Sololá	712	San Antonio Palopó	9	San Antonio Palopo	8	Agosto	2023-01-08T00:00:00	2024-11-08T23:00:00	8	Radiación solar	0
186293	7	Sololá	712	San Antonio Palopó	9	San Antonio Palopo	8	Agosto	2023-02-08T00:00:00	2024-11-08T00:00:00	2	Temperatura media	17.6
186294	7	Sololá	712	San Antonio Palopó	9	San Antonio Palopo	8	Agosto	2023-02-08T00:00:00	2024-11-08T00:00:00	4	Temperatura máxima	17.7
186295	7	Sololá	712	San Antonio Palopó	9	San Antonio Palopo	8	Agosto	2023-02-08T00:00:00	2024-11-08T00:00:00	3	Temperatura mínima	17.2
186296	7	Sololá	712	San Antonio Palopó	9	San Antonio Palopo	8	Agosto	2023-02-08T00:00:00	2024-11-08T00:00:00	5	Humedad	87
186297	7	Sololá	712	San Antonio Palopó	9	San Antonio Palopo	8	Agosto	2023-02-08T00:00:00	2024-11-08T00:00:00	6	Velocidad del viento	3.2
186298	7	Sololá	712	San Antonio Palopó	9	San Antonio Palopo	8	Agosto	2023-02-08T00:00:00	2024-11-08T00:00:00	7	Dirección del viento	3.22
186299	7	Sololá	712	San Antonio Palopó	9	San Antonio Palopo	8	Agosto	2023-02-08T00:00:00	2024-11-08T00:00:00	1	Precipitación	0
186300	7	Sololá	712	San Antonio Palopó	9	San Antonio Palopo	8	Agosto	2023-02-08T00:00:00	2024-11-08T00:00:00	8	Radiación solar	0
186301	7	Sololá	712	San Antonio Palopó	9	San Antonio Palopo	8	Agosto	2023-02-08T00:00:00	2024-11-08T01:00:00	2	Temperatura media	18.3
186302	7	Sololá	712	San Antonio Palopó	9	San Antonio Palopo	8	Agosto	2023-02-08T00:00:00	2024-11-08T01:00:00	4	Temperatura máxima	18.3
186303	7	Sololá	712	San Antonio Palopó	9	San Antonio Palopo	8	Agosto	2023-02-08T00:00:00	2024-11-08T01:00:00	3	Temperatura mínima	17.3
186304	7	Sololá	712	San Antonio Palopó	9	San Antonio Palopo	8	Agosto	2023-02-08T00:00:00	2024-11-08T01:00:00	5	Humedad	76
186305	7	Sololá	712	San Antonio Palopó	9	San Antonio Palopo	8	Agosto	2023-02-08T00:00:00	2024-11-08T01:00:00	6	Velocidad del viento	3.2
186306	7	Sololá	712	San Antonio Palopó	9	San Antonio Palopo	8	Agosto	2023-02-08T00:00:00	2024-11-08T01:00:00	7	Dirección del viento	3.22
186307	7	Sololá	712	San Antonio Palopó	9	San Antonio Palopo	8	Agosto	2023-02-08T00:00:00	2024-11-08T01:00:00	1	Precipitación	0
186308	7	Sololá	712	San Antonio Palopó	9	San Antonio Palopo	8	Agosto	2023-02-08T00:00:00	2024-11-08T01:00:00	8	Radiación solar	0
186309	7	Sololá	712	San Antonio Palopó	9	San Antonio Palopo	8	Agosto	2023-02-08T00:00:00	2024-11-08T02:00:00	2	Temperatura media	18.9
186310	7	Sololá	712	San Antonio Palopó	9	San Antonio Palopo	8	Agosto	2023-02-08T00:00:00	2024-11-08T02:00:00	4	Temperatura máxima	18.9
186311	7	Sololá	712	San Antonio Palopó	9	San Antonio Palopo	8	Agosto	2023-02-08T00:00:00	2024-11-08T02:00:00	3	Temperatura mínima	18.3
186312	7	Sololá	712	San Antonio Palopó	9	San Antonio Palopo	8	Agosto	2023-02-08T00:00:00	2024-11-08T02:00:00	5	Humedad	72
186313	7	Sololá	712	San Antonio Palopó	9	San Antonio Palopo	8	Agosto	2023-02-08T00:00:00	2024-11-08T02:00:00	6	Velocidad del viento	9.7
186314	7	Sololá	712	San Antonio Palopó	9	San Antonio Palopo	8	Agosto	2023-02-08T00:00:00	2024-11-08T02:00:00	7	Dirección del viento	9.66
186315	7	Sololá	712	San Antonio Palopó	9	San Antonio Palopo	8	Agosto	2023-02-08T00:00:00	2024-11-08T02:00:00	1	Precipitación	0.2
186316	7	Sololá	712	San Antonio Palopó	9	San Antonio Palopo	8	Agosto	2023-02-08T00:00:00	2024-11-08T02:00:00	8	Radiación solar	0
186317	7	Sololá	712	San Antonio Palopó	9	San Antonio Palopo	8	Agosto	2023-02-08T00:00:00	2024-11-08T03:00:00	2	Temperatura media	18.8
186318	7	Sololá	712	San Antonio Palopó	9	San Antonio Palopo	8	Agosto	2023-02-08T00:00:00	2024-11-08T03:00:00	4	Temperatura máxima	19.1
186319	7	Sololá	712	San Antonio Palopó	9	San Antonio Palopo	8	Agosto	2023-02-08T00:00:00	2024-11-08T03:00:00	3	Temperatura mínima	18.7
186320	7	Sololá	712	San Antonio Palopó	9	San Antonio Palopo	8	Agosto	2023-02-08T00:00:00	2024-11-08T03:00:00	5	Humedad	71
186321	7	Sololá	712	San Antonio Palopó	9	San Antonio Palopo	8	Agosto	2023-02-08T00:00:00	2024-11-08T03:00:00	6	Velocidad del viento	8
186322	7	Sololá	712	San Antonio Palopó	9	San Antonio Palopo	8	Agosto	2023-02-08T00:00:00	2024-11-08T03:00:00	7	Dirección del viento	8.05
186323	7	Sololá	712	San Antonio Palopó	9	San Antonio Palopo	8	Agosto	2023-02-08T00:00:00	2024-11-08T03:00:00	1	Precipitación	0
186324	7	Sololá	712	San Antonio Palopó	9	San Antonio Palopo	8	Agosto	2023-02-08T00:00:00	2024-11-08T03:00:00	8	Radiación solar	0
186325	7	Sololá	712	San Antonio Palopó	9	San Antonio Palopo	8	Agosto	2023-02-08T00:00:00	2024-11-08T04:00:00	2	Temperatura media	18.9
186326	7	Sololá	712	San Antonio Palopó	9	San Antonio Palopo	8	Agosto	2023-02-08T00:00:00	2024-11-08T04:00:00	4	Temperatura máxima	19.1
186327	7	Sololá	712	San Antonio Palopó	9	San Antonio Palopo	8	Agosto	2023-02-08T00:00:00	2024-11-08T04:00:00	3	Temperatura mínima	18.5
186328	7	Sololá	712	San Antonio Palopó	9	San Antonio Palopo	8	Agosto	2023-02-08T00:00:00	2024-11-08T04:00:00	5	Humedad	69
186329	7	Sololá	712	San Antonio Palopó	9	San Antonio Palopo	8	Agosto	2023-02-08T00:00:00	2024-11-08T04:00:00	6	Velocidad del viento	8
186330	7	Sololá	712	San Antonio Palopó	9	San Antonio Palopo	8	Agosto	2023-02-08T00:00:00	2024-11-08T04:00:00	7	Dirección del viento	8.05
186331	7	Sololá	712	San Antonio Palopó	9	San Antonio Palopo	8	Agosto	2023-02-08T00:00:00	2024-11-08T04:00:00	1	Precipitación	0
186332	7	Sololá	712	San Antonio Palopó	9	San Antonio Palopo	8	Agosto	2023-02-08T00:00:00	2024-11-08T04:00:00	8	Radiación solar	0
186333	7	Sololá	712	San Antonio Palopó	9	San Antonio Palopo	8	Agosto	2023-02-08T00:00:00	2024-11-08T05:00:00	2	Temperatura media	19.6
186334	7	Sololá	712	San Antonio Palopó	9	San Antonio Palopo	8	Agosto	2023-02-08T00:00:00	2024-11-08T05:00:00	4	Temperatura máxima	19.8
186335	7	Sololá	712	San Antonio Palopó	9	San Antonio Palopo	8	Agosto	2023-02-08T00:00:00	2024-11-08T05:00:00	3	Temperatura mínima	18.9
186336	7	Sololá	712	San Antonio Palopó	9	San Antonio Palopo	8	Agosto	2023-02-08T00:00:00	2024-11-08T05:00:00	5	Humedad	67
186337	7	Sololá	712	San Antonio Palopó	9	San Antonio Palopo	8	Agosto	2023-02-08T00:00:00	2024-11-08T05:00:00	6	Velocidad del viento	8
186338	7	Sololá	712	San Antonio Palopó	9	San Antonio Palopo	8	Agosto	2023-02-08T00:00:00	2024-11-08T05:00:00	7	Dirección del viento	8.05
186339	7	Sololá	712	San Antonio Palopó	9	San Antonio Palopo	8	Agosto	2023-02-08T00:00:00	2024-11-08T05:00:00	1	Precipitación	0
186340	7	Sololá	712	San Antonio Palopó	9	San Antonio Palopo	8	Agosto	2023-02-08T00:00:00	2024-11-08T05:00:00	8	Radiación solar	0
186341	7	Sololá	712	San Antonio Palopó	9	San Antonio Palopo	8	Agosto	2023-02-08T00:00:00	2024-11-08T06:00:00	2	Temperatura media	19.4
186342	7	Sololá	712	San Antonio Palopó	9	San Antonio Palopo	8	Agosto	2023-02-08T00:00:00	2024-11-08T06:00:00	4	Temperatura máxima	19.7
186343	7	Sololá	712	San Antonio Palopó	9	San Antonio Palopo	8	Agosto	2023-02-08T00:00:00	2024-11-08T06:00:00	3	Temperatura mínima	19.4
186344	7	Sololá	712	San Antonio Palopó	9	San Antonio Palopo	8	Agosto	2023-02-08T00:00:00	2024-11-08T06:00:00	5	Humedad	67
186345	7	Sololá	712	San Antonio Palopó	9	San Antonio Palopo	8	Agosto	2023-02-08T00:00:00	2024-11-08T06:00:00	6	Velocidad del viento	6.4
186346	7	Sololá	712	San Antonio Palopó	9	San Antonio Palopo	8	Agosto	2023-02-08T00:00:00	2024-11-08T06:00:00	7	Dirección del viento	6.44
186347	7	Sololá	712	San Antonio Palopó	9	San Antonio Palopo	8	Agosto	2023-02-08T00:00:00	2024-11-08T06:00:00	1	Precipitación	0
186348	7	Sololá	712	San Antonio Palopó	9	San Antonio Palopo	8	Agosto	2023-02-08T00:00:00	2024-11-08T06:00:00	8	Radiación solar	0
186349	7	Sololá	712	San Antonio Palopó	9	San Antonio Palopo	8	Agosto	2023-02-08T00:00:00	2024-11-08T07:00:00	2	Temperatura media	19.3
186350	7	Sololá	712	San Antonio Palopó	9	San Antonio Palopo	8	Agosto	2023-02-08T00:00:00	2024-11-08T07:00:00	4	Temperatura máxima	19.4
186351	7	Sololá	712	San Antonio Palopó	9	San Antonio Palopo	8	Agosto	2023-02-08T00:00:00	2024-11-08T07:00:00	3	Temperatura mínima	19.2
186352	7	Sololá	712	San Antonio Palopó	9	San Antonio Palopo	8	Agosto	2023-02-08T00:00:00	2024-11-08T07:00:00	5	Humedad	69
186353	7	Sololá	712	San Antonio Palopó	9	San Antonio Palopo	8	Agosto	2023-02-08T00:00:00	2024-11-08T07:00:00	6	Velocidad del viento	9.7
186354	7	Sololá	712	San Antonio Palopó	9	San Antonio Palopo	8	Agosto	2023-02-08T00:00:00	2024-11-08T07:00:00	7	Dirección del viento	9.66
186355	7	Sololá	712	San Antonio Palopó	9	San Antonio Palopo	8	Agosto	2023-02-08T00:00:00	2024-11-08T07:00:00	1	Precipitación	0
186356	7	Sololá	712	San Antonio Palopó	9	San Antonio Palopo	8	Agosto	2023-02-08T00:00:00	2024-11-08T07:00:00	8	Radiación solar	28
186357	7	Sololá	712	San Antonio Palopó	9	San Antonio Palopo	8	Agosto	2023-02-08T00:00:00	2024-11-08T08:00:00	2	Temperatura media	20
186358	7	Sololá	712	San Antonio Palopó	9	San Antonio Palopo	8	Agosto	2023-02-08T00:00:00	2024-11-08T08:00:00	4	Temperatura máxima	20.1
186359	7	Sololá	712	San Antonio Palopó	9	San Antonio Palopo	8	Agosto	2023-02-08T00:00:00	2024-11-08T08:00:00	3	Temperatura mínima	19.3
186360	7	Sololá	712	San Antonio Palopó	9	San Antonio Palopo	8	Agosto	2023-02-08T00:00:00	2024-11-08T08:00:00	5	Humedad	68
186361	7	Sololá	712	San Antonio Palopó	9	San Antonio Palopo	8	Agosto	2023-02-08T00:00:00	2024-11-08T08:00:00	6	Velocidad del viento	6.4
186362	7	Sololá	712	San Antonio Palopó	9	San Antonio Palopo	8	Agosto	2023-02-08T00:00:00	2024-11-08T08:00:00	7	Dirección del viento	6.44
186363	7	Sololá	712	San Antonio Palopó	9	San Antonio Palopo	8	Agosto	2023-02-08T00:00:00	2024-11-08T08:00:00	1	Precipitación	0
186364	7	Sololá	712	San Antonio Palopó	9	San Antonio Palopo	8	Agosto	2023-02-08T00:00:00	2024-11-08T08:00:00	8	Radiación solar	97
186365	7	Sololá	712	San Antonio Palopó	9	San Antonio Palopo	8	Agosto	2023-02-08T00:00:00	2024-11-08T09:00:00	2	Temperatura media	20.9
186366	7	Sololá	712	San Antonio Palopó	9	San Antonio Palopo	8	Agosto	2023-02-08T00:00:00	2024-11-08T09:00:00	4	Temperatura máxima	20.9
186367	7	Sololá	712	San Antonio Palopó	9	San Antonio Palopo	8	Agosto	2023-02-08T00:00:00	2024-11-08T09:00:00	3	Temperatura mínima	20.1
186368	7	Sololá	712	San Antonio Palopó	9	San Antonio Palopo	8	Agosto	2023-02-08T00:00:00	2024-11-08T09:00:00	5	Humedad	69
186369	7	Sololá	712	San Antonio Palopó	9	San Antonio Palopo	8	Agosto	2023-02-08T00:00:00	2024-11-08T09:00:00	6	Velocidad del viento	4.8
186370	7	Sololá	712	San Antonio Palopó	9	San Antonio Palopo	8	Agosto	2023-02-08T00:00:00	2024-11-08T09:00:00	7	Dirección del viento	4.83
186371	7	Sololá	712	San Antonio Palopó	9	San Antonio Palopo	8	Agosto	2023-02-08T00:00:00	2024-11-08T09:00:00	1	Precipitación	0
186372	7	Sololá	712	San Antonio Palopó	9	San Antonio Palopo	8	Agosto	2023-02-08T00:00:00	2024-11-08T09:00:00	8	Radiación solar	205
186373	7	Sololá	712	San Antonio Palopó	9	San Antonio Palopo	8	Agosto	2023-02-08T00:00:00	2024-11-08T10:00:00	2	Temperatura media	21.8
186374	7	Sololá	712	San Antonio Palopó	9	San Antonio Palopo	8	Agosto	2023-02-08T00:00:00	2024-11-08T10:00:00	4	Temperatura máxima	21.8
186375	7	Sololá	712	San Antonio Palopó	9	San Antonio Palopo	8	Agosto	2023-02-08T00:00:00	2024-11-08T10:00:00	3	Temperatura mínima	21
186376	7	Sololá	712	San Antonio Palopó	9	San Antonio Palopo	8	Agosto	2023-02-08T00:00:00	2024-11-08T10:00:00	5	Humedad	67
186377	7	Sololá	712	San Antonio Palopó	9	San Antonio Palopo	8	Agosto	2023-02-08T00:00:00	2024-11-08T10:00:00	6	Velocidad del viento	6.4
186378	7	Sololá	712	San Antonio Palopó	9	San Antonio Palopo	8	Agosto	2023-02-08T00:00:00	2024-11-08T10:00:00	7	Dirección del viento	6.44
186379	7	Sololá	712	San Antonio Palopó	9	San Antonio Palopo	8	Agosto	2023-02-08T00:00:00	2024-11-08T10:00:00	1	Precipitación	0
186380	7	Sololá	712	San Antonio Palopó	9	San Antonio Palopo	8	Agosto	2023-02-08T00:00:00	2024-11-08T10:00:00	8	Radiación solar	321
186381	7	Sololá	712	San Antonio Palopó	9	San Antonio Palopo	8	Agosto	2023-02-08T00:00:00	2024-11-08T11:00:00	2	Temperatura media	21.8
186382	7	Sololá	712	San Antonio Palopó	9	San Antonio Palopo	8	Agosto	2023-02-08T00:00:00	2024-11-08T11:00:00	4	Temperatura máxima	21.9
186383	7	Sololá	712	San Antonio Palopó	9	San Antonio Palopo	8	Agosto	2023-02-08T00:00:00	2024-11-08T11:00:00	3	Temperatura mínima	21.7
186384	7	Sololá	712	San Antonio Palopó	9	San Antonio Palopo	8	Agosto	2023-02-08T00:00:00	2024-11-08T11:00:00	5	Humedad	67
186385	7	Sololá	712	San Antonio Palopó	9	San Antonio Palopo	8	Agosto	2023-02-08T00:00:00	2024-11-08T11:00:00	6	Velocidad del viento	6.4
186386	7	Sololá	712	San Antonio Palopó	9	San Antonio Palopo	8	Agosto	2023-02-08T00:00:00	2024-11-08T11:00:00	7	Dirección del viento	6.44
186387	7	Sololá	712	San Antonio Palopó	9	San Antonio Palopo	8	Agosto	2023-02-08T00:00:00	2024-11-08T11:00:00	1	Precipitación	0
186388	7	Sololá	712	San Antonio Palopó	9	San Antonio Palopo	8	Agosto	2023-02-08T00:00:00	2024-11-08T11:00:00	8	Radiación solar	274
186389	7	Sololá	712	San Antonio Palopó	9	San Antonio Palopo	8	Agosto	2023-02-08T00:00:00	2024-11-08T12:00:00	2	Temperatura media	22.8
186390	7	Sololá	712	San Antonio Palopó	9	San Antonio Palopo	8	Agosto	2023-02-08T00:00:00	2024-11-08T12:00:00	4	Temperatura máxima	23.2
186391	7	Sololá	712	San Antonio Palopó	9	San Antonio Palopo	8	Agosto	2023-02-08T00:00:00	2024-11-08T12:00:00	3	Temperatura mínima	21.5
186392	7	Sololá	712	San Antonio Palopó	9	San Antonio Palopo	8	Agosto	2023-02-08T00:00:00	2024-11-08T12:00:00	5	Humedad	64
186393	7	Sololá	712	San Antonio Palopó	9	San Antonio Palopo	8	Agosto	2023-02-08T00:00:00	2024-11-08T12:00:00	6	Velocidad del viento	8
186394	7	Sololá	712	San Antonio Palopó	9	San Antonio Palopo	8	Agosto	2023-02-08T00:00:00	2024-11-08T12:00:00	7	Dirección del viento	8.05
186395	7	Sololá	712	San Antonio Palopó	9	San Antonio Palopo	8	Agosto	2023-02-08T00:00:00	2024-11-08T12:00:00	1	Precipitación	0
186396	7	Sololá	712	San Antonio Palopó	9	San Antonio Palopo	8	Agosto	2023-02-08T00:00:00	2024-11-08T12:00:00	8	Radiación solar	415
186397	7	Sololá	712	San Antonio Palopó	9	San Antonio Palopo	8	Agosto	2023-02-08T00:00:00	2024-11-08T13:00:00	2	Temperatura media	22.7
186398	7	Sololá	712	San Antonio Palopó	9	San Antonio Palopo	8	Agosto	2023-02-08T00:00:00	2024-11-08T13:00:00	4	Temperatura máxima	22.8
186399	7	Sololá	712	San Antonio Palopó	9	San Antonio Palopo	8	Agosto	2023-02-08T00:00:00	2024-11-08T13:00:00	3	Temperatura mínima	22.2
186400	7	Sololá	712	San Antonio Palopó	9	San Antonio Palopo	8	Agosto	2023-02-08T00:00:00	2024-11-08T13:00:00	5	Humedad	66
186401	7	Sololá	712	San Antonio Palopó	9	San Antonio Palopo	8	Agosto	2023-02-08T00:00:00	2024-11-08T13:00:00	6	Velocidad del viento	6.4
186402	7	Sololá	712	San Antonio Palopó	9	San Antonio Palopo	8	Agosto	2023-02-08T00:00:00	2024-11-08T13:00:00	7	Dirección del viento	6.44
186403	7	Sololá	712	San Antonio Palopó	9	San Antonio Palopo	8	Agosto	2023-02-08T00:00:00	2024-11-08T13:00:00	1	Precipitación	0
186404	7	Sololá	712	San Antonio Palopó	9	San Antonio Palopo	8	Agosto	2023-02-08T00:00:00	2024-11-08T13:00:00	8	Radiación solar	373
186405	7	Sololá	712	San Antonio Palopó	9	San Antonio Palopo	8	Agosto	2023-02-08T00:00:00	2024-11-08T14:00:00	2	Temperatura media	22.2
186406	7	Sololá	712	San Antonio Palopó	9	San Antonio Palopo	8	Agosto	2023-02-08T00:00:00	2024-11-08T14:00:00	4	Temperatura máxima	22.7
186407	7	Sololá	712	San Antonio Palopó	9	San Antonio Palopo	8	Agosto	2023-02-08T00:00:00	2024-11-08T14:00:00	3	Temperatura mínima	22.1
186408	7	Sololá	712	San Antonio Palopó	9	San Antonio Palopo	8	Agosto	2023-02-08T00:00:00	2024-11-08T14:00:00	5	Humedad	66
186409	7	Sololá	712	San Antonio Palopó	9	San Antonio Palopo	8	Agosto	2023-02-08T00:00:00	2024-11-08T14:00:00	6	Velocidad del viento	6.4
186410	7	Sololá	712	San Antonio Palopó	9	San Antonio Palopo	8	Agosto	2023-02-08T00:00:00	2024-11-08T14:00:00	7	Dirección del viento	6.44
186411	7	Sololá	712	San Antonio Palopó	9	San Antonio Palopo	8	Agosto	2023-02-08T00:00:00	2024-11-08T14:00:00	1	Precipitación	0
186412	7	Sololá	712	San Antonio Palopó	9	San Antonio Palopo	8	Agosto	2023-02-08T00:00:00	2024-11-08T14:00:00	8	Radiación solar	286
186413	7	Sololá	712	San Antonio Palopó	9	San Antonio Palopo	8	Agosto	2023-02-08T00:00:00	2024-11-08T15:00:00	2	Temperatura media	22.4
186414	7	Sololá	712	San Antonio Palopó	9	San Antonio Palopo	8	Agosto	2023-02-08T00:00:00	2024-11-08T15:00:00	4	Temperatura máxima	22.7
186415	7	Sololá	712	San Antonio Palopó	9	San Antonio Palopo	8	Agosto	2023-02-08T00:00:00	2024-11-08T15:00:00	3	Temperatura mínima	22.2
186416	7	Sololá	712	San Antonio Palopó	9	San Antonio Palopo	8	Agosto	2023-02-08T00:00:00	2024-11-08T15:00:00	5	Humedad	70
186417	7	Sololá	712	San Antonio Palopó	9	San Antonio Palopo	8	Agosto	2023-02-08T00:00:00	2024-11-08T15:00:00	6	Velocidad del viento	6.4
186418	7	Sololá	712	San Antonio Palopó	9	San Antonio Palopo	8	Agosto	2023-02-08T00:00:00	2024-11-08T15:00:00	7	Dirección del viento	6.44
186419	7	Sololá	712	San Antonio Palopó	9	San Antonio Palopo	8	Agosto	2023-02-08T00:00:00	2024-11-08T15:00:00	1	Precipitación	0
186420	7	Sololá	712	San Antonio Palopó	9	San Antonio Palopo	8	Agosto	2023-02-08T00:00:00	2024-11-08T15:00:00	8	Radiación solar	247
186421	7	Sololá	712	San Antonio Palopó	9	San Antonio Palopo	8	Agosto	2023-02-08T00:00:00	2024-11-08T16:00:00	2	Temperatura media	20.9
186422	7	Sololá	712	San Antonio Palopó	9	San Antonio Palopo	8	Agosto	2023-02-08T00:00:00	2024-11-08T16:00:00	4	Temperatura máxima	22.4
186423	7	Sololá	712	San Antonio Palopó	9	San Antonio Palopo	8	Agosto	2023-02-08T00:00:00	2024-11-08T16:00:00	3	Temperatura mínima	20.8
186424	7	Sololá	712	San Antonio Palopó	9	San Antonio Palopo	8	Agosto	2023-02-08T00:00:00	2024-11-08T16:00:00	5	Humedad	80
186425	7	Sololá	712	San Antonio Palopó	9	San Antonio Palopo	8	Agosto	2023-02-08T00:00:00	2024-11-08T16:00:00	6	Velocidad del viento	6.4
186426	7	Sololá	712	San Antonio Palopó	9	San Antonio Palopo	8	Agosto	2023-02-08T00:00:00	2024-11-08T16:00:00	7	Dirección del viento	6.44
186427	7	Sololá	712	San Antonio Palopó	9	San Antonio Palopo	8	Agosto	2023-02-08T00:00:00	2024-11-08T16:00:00	1	Precipitación	0
186428	7	Sololá	712	San Antonio Palopó	9	San Antonio Palopo	8	Agosto	2023-02-08T00:00:00	2024-11-08T16:00:00	8	Radiación solar	104
186429	7	Sololá	712	San Antonio Palopó	9	San Antonio Palopo	8	Agosto	2023-02-08T00:00:00	2024-11-08T17:00:00	2	Temperatura media	21.9
186430	7	Sololá	712	San Antonio Palopó	9	San Antonio Palopo	8	Agosto	2023-02-08T00:00:00	2024-11-08T17:00:00	4	Temperatura máxima	21.9
186431	7	Sololá	712	San Antonio Palopó	9	San Antonio Palopo	8	Agosto	2023-02-08T00:00:00	2024-11-08T17:00:00	3	Temperatura mínima	20.9
186432	7	Sololá	712	San Antonio Palopó	9	San Antonio Palopo	8	Agosto	2023-02-08T00:00:00	2024-11-08T17:00:00	5	Humedad	67
186433	7	Sololá	712	San Antonio Palopó	9	San Antonio Palopo	8	Agosto	2023-02-08T00:00:00	2024-11-08T17:00:00	6	Velocidad del viento	3.2
186434	7	Sololá	712	San Antonio Palopó	9	San Antonio Palopo	8	Agosto	2023-02-08T00:00:00	2024-11-08T17:00:00	7	Dirección del viento	3.22
186435	7	Sololá	712	San Antonio Palopó	9	San Antonio Palopo	8	Agosto	2023-02-08T00:00:00	2024-11-08T17:00:00	1	Precipitación	0
186436	7	Sololá	712	San Antonio Palopó	9	San Antonio Palopo	8	Agosto	2023-02-08T00:00:00	2024-11-08T17:00:00	8	Radiación solar	111
186437	7	Sololá	712	San Antonio Palopó	9	San Antonio Palopo	8	Agosto	2023-02-08T00:00:00	2024-11-08T18:00:00	2	Temperatura media	21.2
186438	7	Sololá	712	San Antonio Palopó	9	San Antonio Palopo	8	Agosto	2023-02-08T00:00:00	2024-11-08T18:00:00	4	Temperatura máxima	21.9
186439	7	Sololá	712	San Antonio Palopó	9	San Antonio Palopo	8	Agosto	2023-02-08T00:00:00	2024-11-08T18:00:00	3	Temperatura mínima	21.2
186440	7	Sololá	712	San Antonio Palopó	9	San Antonio Palopo	8	Agosto	2023-02-08T00:00:00	2024-11-08T18:00:00	5	Humedad	67
186441	7	Sololá	712	San Antonio Palopó	9	San Antonio Palopo	8	Agosto	2023-02-08T00:00:00	2024-11-08T18:00:00	6	Velocidad del viento	6.4
186442	7	Sololá	712	San Antonio Palopó	9	San Antonio Palopo	8	Agosto	2023-02-08T00:00:00	2024-11-08T18:00:00	7	Dirección del viento	6.44
186443	7	Sololá	712	San Antonio Palopó	9	San Antonio Palopo	8	Agosto	2023-02-08T00:00:00	2024-11-08T18:00:00	1	Precipitación	0
186444	7	Sololá	712	San Antonio Palopó	9	San Antonio Palopo	8	Agosto	2023-02-08T00:00:00	2024-11-08T18:00:00	8	Radiación solar	19
186445	7	Sololá	712	San Antonio Palopó	9	San Antonio Palopo	8	Agosto	2023-02-08T00:00:00	2024-11-08T19:00:00	2	Temperatura media	20.7
186446	7	Sololá	712	San Antonio Palopó	9	San Antonio Palopo	8	Agosto	2023-02-08T00:00:00	2024-11-08T19:00:00	4	Temperatura máxima	21.2
186447	7	Sololá	712	San Antonio Palopó	9	San Antonio Palopo	8	Agosto	2023-02-08T00:00:00	2024-11-08T19:00:00	3	Temperatura mínima	20.7
186448	7	Sololá	712	San Antonio Palopó	9	San Antonio Palopo	8	Agosto	2023-02-08T00:00:00	2024-11-08T19:00:00	5	Humedad	69
186449	7	Sololá	712	San Antonio Palopó	9	San Antonio Palopo	8	Agosto	2023-02-08T00:00:00	2024-11-08T19:00:00	6	Velocidad del viento	6.4
186450	7	Sololá	712	San Antonio Palopó	9	San Antonio Palopo	8	Agosto	2023-02-08T00:00:00	2024-11-08T19:00:00	7	Dirección del viento	6.44
186451	7	Sololá	712	San Antonio Palopó	9	San Antonio Palopo	8	Agosto	2023-02-08T00:00:00	2024-11-08T19:00:00	1	Precipitación	0
186452	7	Sololá	712	San Antonio Palopó	9	San Antonio Palopo	8	Agosto	2023-02-08T00:00:00	2024-11-08T19:00:00	8	Radiación solar	0
186453	7	Sololá	712	San Antonio Palopó	9	San Antonio Palopo	8	Agosto	2023-02-08T00:00:00	2024-11-08T20:00:00	2	Temperatura media	20.3
186454	7	Sololá	712	San Antonio Palopó	9	San Antonio Palopo	8	Agosto	2023-02-08T00:00:00	2024-11-08T20:00:00	4	Temperatura máxima	20.7
186455	7	Sololá	712	San Antonio Palopó	9	San Antonio Palopo	8	Agosto	2023-02-08T00:00:00	2024-11-08T20:00:00	3	Temperatura mínima	20.3
186456	7	Sololá	712	San Antonio Palopó	9	San Antonio Palopo	8	Agosto	2023-02-08T00:00:00	2024-11-08T20:00:00	5	Humedad	69
186457	7	Sololá	712	San Antonio Palopó	9	San Antonio Palopo	8	Agosto	2023-02-08T00:00:00	2024-11-08T20:00:00	6	Velocidad del viento	8
186458	7	Sololá	712	San Antonio Palopó	9	San Antonio Palopo	8	Agosto	2023-02-08T00:00:00	2024-11-08T20:00:00	7	Dirección del viento	8.05
186459	7	Sololá	712	San Antonio Palopó	9	San Antonio Palopo	8	Agosto	2023-02-08T00:00:00	2024-11-08T20:00:00	1	Precipitación	0
186460	7	Sololá	712	San Antonio Palopó	9	San Antonio Palopo	8	Agosto	2023-02-08T00:00:00	2024-11-08T20:00:00	8	Radiación solar	0
186461	7	Sololá	712	San Antonio Palopó	9	San Antonio Palopo	8	Agosto	2023-02-08T00:00:00	2024-11-08T21:00:00	2	Temperatura media	20.1
186462	7	Sololá	712	San Antonio Palopó	9	San Antonio Palopo	8	Agosto	2023-02-08T00:00:00	2024-11-08T21:00:00	4	Temperatura máxima	20.3
186463	7	Sololá	712	San Antonio Palopó	9	San Antonio Palopo	8	Agosto	2023-02-08T00:00:00	2024-11-08T21:00:00	3	Temperatura mínima	20.1
186464	7	Sololá	712	San Antonio Palopó	9	San Antonio Palopo	8	Agosto	2023-02-08T00:00:00	2024-11-08T21:00:00	5	Humedad	70
186465	7	Sololá	712	San Antonio Palopó	9	San Antonio Palopo	8	Agosto	2023-02-08T00:00:00	2024-11-08T21:00:00	6	Velocidad del viento	14.5
186466	7	Sololá	712	San Antonio Palopó	9	San Antonio Palopo	8	Agosto	2023-02-08T00:00:00	2024-11-08T21:00:00	7	Dirección del viento	14.48
186467	7	Sololá	712	San Antonio Palopó	9	San Antonio Palopo	8	Agosto	2023-02-08T00:00:00	2024-11-08T21:00:00	1	Precipitación	0
186468	7	Sololá	712	San Antonio Palopó	9	San Antonio Palopo	8	Agosto	2023-02-08T00:00:00	2024-11-08T21:00:00	8	Radiación solar	0
186469	7	Sololá	712	San Antonio Palopó	9	San Antonio Palopo	8	Agosto	2023-02-08T00:00:00	2024-11-08T22:00:00	2	Temperatura media	20.3
186470	7	Sololá	712	San Antonio Palopó	9	San Antonio Palopo	8	Agosto	2023-02-08T00:00:00	2024-11-08T22:00:00	4	Temperatura máxima	20.4
186471	7	Sololá	712	San Antonio Palopó	9	San Antonio Palopo	8	Agosto	2023-02-08T00:00:00	2024-11-08T22:00:00	3	Temperatura mínima	20.1
186472	7	Sololá	712	San Antonio Palopó	9	San Antonio Palopo	8	Agosto	2023-02-08T00:00:00	2024-11-08T22:00:00	5	Humedad	72
186473	7	Sololá	712	San Antonio Palopó	9	San Antonio Palopo	8	Agosto	2023-02-08T00:00:00	2024-11-08T22:00:00	6	Velocidad del viento	8
186474	7	Sololá	712	San Antonio Palopó	9	San Antonio Palopo	8	Agosto	2023-02-08T00:00:00	2024-11-08T22:00:00	7	Dirección del viento	8.05
186475	7	Sololá	712	San Antonio Palopó	9	San Antonio Palopo	8	Agosto	2023-02-08T00:00:00	2024-11-08T22:00:00	1	Precipitación	0
186476	7	Sololá	712	San Antonio Palopó	9	San Antonio Palopo	8	Agosto	2023-02-08T00:00:00	2024-11-08T22:00:00	8	Radiación solar	0
186477	7	Sololá	712	San Antonio Palopó	9	San Antonio Palopo	8	Agosto	2023-02-08T00:00:00	2024-11-08T23:00:00	2	Temperatura media	20.6
186478	7	Sololá	712	San Antonio Palopó	9	San Antonio Palopo	8	Agosto	2023-02-08T00:00:00	2024-11-08T23:00:00	4	Temperatura máxima	20.6
186479	7	Sololá	712	San Antonio Palopó	9	San Antonio Palopo	8	Agosto	2023-02-08T00:00:00	2024-11-08T23:00:00	3	Temperatura mínima	20.3
186480	7	Sololá	712	San Antonio Palopó	9	San Antonio Palopo	8	Agosto	2023-02-08T00:00:00	2024-11-08T23:00:00	5	Humedad	73
186481	7	Sololá	712	San Antonio Palopó	9	San Antonio Palopo	8	Agosto	2023-02-08T00:00:00	2024-11-08T23:00:00	6	Velocidad del viento	6.4
186482	7	Sololá	712	San Antonio Palopó	9	San Antonio Palopo	8	Agosto	2023-02-08T00:00:00	2024-11-08T23:00:00	7	Dirección del viento	6.44
186483	7	Sololá	712	San Antonio Palopó	9	San Antonio Palopo	8	Agosto	2023-02-08T00:00:00	2024-11-08T23:00:00	1	Precipitación	0
186484	7	Sololá	712	San Antonio Palopó	9	San Antonio Palopo	8	Agosto	2023-02-08T00:00:00	2024-11-08T23:00:00	8	Radiación solar	0
186485	7	Sololá	712	San Antonio Palopó	9	San Antonio Palopo	8	Agosto	2023-03-08T00:00:00	2024-11-08T00:00:00	2	Temperatura media	20.7
186486	7	Sololá	712	San Antonio Palopó	9	San Antonio Palopo	8	Agosto	2023-03-08T00:00:00	2024-11-08T00:00:00	4	Temperatura máxima	20.7
186487	7	Sololá	712	San Antonio Palopó	9	San Antonio Palopo	8	Agosto	2023-03-08T00:00:00	2024-11-08T00:00:00	3	Temperatura mínima	20.6
186488	7	Sololá	712	San Antonio Palopó	9	San Antonio Palopo	8	Agosto	2023-03-08T00:00:00	2024-11-08T00:00:00	5	Humedad	72
186489	7	Sololá	712	San Antonio Palopó	9	San Antonio Palopo	8	Agosto	2023-03-08T00:00:00	2024-11-08T00:00:00	6	Velocidad del viento	6.4
186490	7	Sololá	712	San Antonio Palopó	9	San Antonio Palopo	8	Agosto	2023-03-08T00:00:00	2024-11-08T00:00:00	7	Dirección del viento	6.44
186491	7	Sololá	712	San Antonio Palopó	9	San Antonio Palopo	8	Agosto	2023-03-08T00:00:00	2024-11-08T00:00:00	1	Precipitación	0
186492	7	Sololá	712	San Antonio Palopó	9	San Antonio Palopo	8	Agosto	2023-03-08T00:00:00	2024-11-08T00:00:00	8	Radiación solar	0
186493	7	Sololá	712	San Antonio Palopó	9	San Antonio Palopo	8	Agosto	2023-03-08T00:00:00	2024-11-08T01:00:00	2	Temperatura media	20.3
186494	7	Sololá	712	San Antonio Palopó	9	San Antonio Palopo	8	Agosto	2023-03-08T00:00:00	2024-11-08T01:00:00	4	Temperatura máxima	20.7
186495	7	Sololá	712	San Antonio Palopó	9	San Antonio Palopo	8	Agosto	2023-03-08T00:00:00	2024-11-08T01:00:00	3	Temperatura mínima	20.3
186496	7	Sololá	712	San Antonio Palopó	9	San Antonio Palopo	8	Agosto	2023-03-08T00:00:00	2024-11-08T01:00:00	5	Humedad	73
186497	7	Sololá	712	San Antonio Palopó	9	San Antonio Palopo	8	Agosto	2023-03-08T00:00:00	2024-11-08T01:00:00	6	Velocidad del viento	9.7
186498	7	Sololá	712	San Antonio Palopó	9	San Antonio Palopo	8	Agosto	2023-03-08T00:00:00	2024-11-08T01:00:00	7	Dirección del viento	9.66
186499	7	Sololá	712	San Antonio Palopó	9	San Antonio Palopo	8	Agosto	2023-03-08T00:00:00	2024-11-08T01:00:00	1	Precipitación	0
186500	7	Sololá	712	San Antonio Palopó	9	San Antonio Palopo	8	Agosto	2023-03-08T00:00:00	2024-11-08T01:00:00	8	Radiación solar	0
186501	7	Sololá	712	San Antonio Palopó	9	San Antonio Palopo	8	Agosto	2023-03-08T00:00:00	2024-11-08T02:00:00	2	Temperatura media	20.5
186502	7	Sololá	712	San Antonio Palopó	9	San Antonio Palopo	8	Agosto	2023-03-08T00:00:00	2024-11-08T02:00:00	4	Temperatura máxima	20.6
186503	7	Sololá	712	San Antonio Palopó	9	San Antonio Palopo	8	Agosto	2023-03-08T00:00:00	2024-11-08T02:00:00	3	Temperatura mínima	20.3
186504	7	Sololá	712	San Antonio Palopó	9	San Antonio Palopo	8	Agosto	2023-03-08T00:00:00	2024-11-08T02:00:00	5	Humedad	71
186505	7	Sololá	712	San Antonio Palopó	9	San Antonio Palopo	8	Agosto	2023-03-08T00:00:00	2024-11-08T02:00:00	6	Velocidad del viento	9.7
186506	7	Sololá	712	San Antonio Palopó	9	San Antonio Palopo	8	Agosto	2023-03-08T00:00:00	2024-11-08T02:00:00	7	Dirección del viento	9.66
186507	7	Sololá	712	San Antonio Palopó	9	San Antonio Palopo	8	Agosto	2023-03-08T00:00:00	2024-11-08T02:00:00	1	Precipitación	0
186508	7	Sololá	712	San Antonio Palopó	9	San Antonio Palopo	8	Agosto	2023-03-08T00:00:00	2024-11-08T02:00:00	8	Radiación solar	0
186509	7	Sololá	712	San Antonio Palopó	9	San Antonio Palopo	8	Agosto	2023-03-08T00:00:00	2024-11-08T03:00:00	2	Temperatura media	20.3
186510	7	Sololá	712	San Antonio Palopó	9	San Antonio Palopo	8	Agosto	2023-03-08T00:00:00	2024-11-08T03:00:00	4	Temperatura máxima	20.4
186511	7	Sololá	712	San Antonio Palopó	9	San Antonio Palopo	8	Agosto	2023-03-08T00:00:00	2024-11-08T03:00:00	3	Temperatura mínima	20.2
186512	7	Sololá	712	San Antonio Palopó	9	San Antonio Palopo	8	Agosto	2023-03-08T00:00:00	2024-11-08T03:00:00	5	Humedad	71
186513	7	Sololá	712	San Antonio Palopó	9	San Antonio Palopo	8	Agosto	2023-03-08T00:00:00	2024-11-08T03:00:00	6	Velocidad del viento	11.3
186514	7	Sololá	712	San Antonio Palopó	9	San Antonio Palopo	8	Agosto	2023-03-08T00:00:00	2024-11-08T03:00:00	7	Dirección del viento	11.27
186515	7	Sololá	712	San Antonio Palopó	9	San Antonio Palopo	8	Agosto	2023-03-08T00:00:00	2024-11-08T03:00:00	1	Precipitación	0
186516	7	Sololá	712	San Antonio Palopó	9	San Antonio Palopo	8	Agosto	2023-03-08T00:00:00	2024-11-08T03:00:00	8	Radiación solar	0
186517	7	Sololá	712	San Antonio Palopó	9	San Antonio Palopo	8	Agosto	2023-03-08T00:00:00	2024-11-08T04:00:00	2	Temperatura media	19.8
186518	7	Sololá	712	San Antonio Palopó	9	San Antonio Palopo	8	Agosto	2023-03-08T00:00:00	2024-11-08T04:00:00	4	Temperatura máxima	20.4
186519	7	Sololá	712	San Antonio Palopó	9	San Antonio Palopo	8	Agosto	2023-03-08T00:00:00	2024-11-08T04:00:00	3	Temperatura mínima	19.8
186520	7	Sololá	712	San Antonio Palopó	9	San Antonio Palopo	8	Agosto	2023-03-08T00:00:00	2024-11-08T04:00:00	5	Humedad	73
186521	7	Sololá	712	San Antonio Palopó	9	San Antonio Palopo	8	Agosto	2023-03-08T00:00:00	2024-11-08T04:00:00	6	Velocidad del viento	11.3
186522	7	Sololá	712	San Antonio Palopó	9	San Antonio Palopo	8	Agosto	2023-03-08T00:00:00	2024-11-08T04:00:00	7	Dirección del viento	11.27
186523	7	Sololá	712	San Antonio Palopó	9	San Antonio Palopo	8	Agosto	2023-03-08T00:00:00	2024-11-08T04:00:00	1	Precipitación	0
186524	7	Sololá	712	San Antonio Palopó	9	San Antonio Palopo	8	Agosto	2023-03-08T00:00:00	2024-11-08T04:00:00	8	Radiación solar	0
186525	7	Sololá	712	San Antonio Palopó	9	San Antonio Palopo	8	Agosto	2023-03-08T00:00:00	2024-11-08T05:00:00	2	Temperatura media	19.2
186526	7	Sololá	712	San Antonio Palopó	9	San Antonio Palopo	8	Agosto	2023-03-08T00:00:00	2024-11-08T05:00:00	4	Temperatura máxima	19.8
186527	7	Sololá	712	San Antonio Palopó	9	San Antonio Palopo	8	Agosto	2023-03-08T00:00:00	2024-11-08T05:00:00	3	Temperatura mínima	19.2
186528	7	Sololá	712	San Antonio Palopó	9	San Antonio Palopo	8	Agosto	2023-03-08T00:00:00	2024-11-08T05:00:00	5	Humedad	74
186529	7	Sololá	712	San Antonio Palopó	9	San Antonio Palopo	8	Agosto	2023-03-08T00:00:00	2024-11-08T05:00:00	6	Velocidad del viento	16.1
186530	7	Sololá	712	San Antonio Palopó	9	San Antonio Palopo	8	Agosto	2023-03-08T00:00:00	2024-11-08T05:00:00	7	Dirección del viento	16.09
186531	7	Sololá	712	San Antonio Palopó	9	San Antonio Palopo	8	Agosto	2023-03-08T00:00:00	2024-11-08T05:00:00	1	Precipitación	0
186532	7	Sololá	712	San Antonio Palopó	9	San Antonio Palopo	8	Agosto	2023-03-08T00:00:00	2024-11-08T05:00:00	8	Radiación solar	0
186533	7	Sololá	712	San Antonio Palopó	9	San Antonio Palopo	8	Agosto	2023-03-08T00:00:00	2024-11-08T06:00:00	2	Temperatura media	19.3
186534	7	Sololá	712	San Antonio Palopó	9	San Antonio Palopo	8	Agosto	2023-03-08T00:00:00	2024-11-08T06:00:00	4	Temperatura máxima	19.3
186535	7	Sololá	712	San Antonio Palopó	9	San Antonio Palopo	8	Agosto	2023-03-08T00:00:00	2024-11-08T06:00:00	3	Temperatura mínima	19
186536	7	Sololá	712	San Antonio Palopó	9	San Antonio Palopo	8	Agosto	2023-03-08T00:00:00	2024-11-08T06:00:00	5	Humedad	73
186537	7	Sololá	712	San Antonio Palopó	9	San Antonio Palopo	8	Agosto	2023-03-08T00:00:00	2024-11-08T06:00:00	6	Velocidad del viento	11.3
186538	7	Sololá	712	San Antonio Palopó	9	San Antonio Palopo	8	Agosto	2023-03-08T00:00:00	2024-11-08T06:00:00	7	Dirección del viento	11.27
186539	7	Sololá	712	San Antonio Palopó	9	San Antonio Palopo	8	Agosto	2023-03-08T00:00:00	2024-11-08T06:00:00	1	Precipitación	0
186540	7	Sololá	712	San Antonio Palopó	9	San Antonio Palopo	8	Agosto	2023-03-08T00:00:00	2024-11-08T06:00:00	8	Radiación solar	1
186541	7	Sololá	712	San Antonio Palopó	9	San Antonio Palopo	8	Agosto	2023-03-08T00:00:00	2024-11-08T07:00:00	2	Temperatura media	19.8
186542	7	Sololá	712	San Antonio Palopó	9	San Antonio Palopo	8	Agosto	2023-03-08T00:00:00	2024-11-08T07:00:00	4	Temperatura máxima	19.8
186543	7	Sololá	712	San Antonio Palopó	9	San Antonio Palopo	8	Agosto	2023-03-08T00:00:00	2024-11-08T07:00:00	3	Temperatura mínima	19.2
186544	7	Sololá	712	San Antonio Palopó	9	San Antonio Palopo	8	Agosto	2023-03-08T00:00:00	2024-11-08T07:00:00	5	Humedad	73
186545	7	Sololá	712	San Antonio Palopó	9	San Antonio Palopo	8	Agosto	2023-03-08T00:00:00	2024-11-08T07:00:00	6	Velocidad del viento	9.7
186546	7	Sololá	712	San Antonio Palopó	9	San Antonio Palopo	8	Agosto	2023-03-08T00:00:00	2024-11-08T07:00:00	7	Dirección del viento	9.66
186547	7	Sololá	712	San Antonio Palopó	9	San Antonio Palopo	8	Agosto	2023-03-08T00:00:00	2024-11-08T07:00:00	1	Precipitación	0
186548	7	Sololá	712	San Antonio Palopó	9	San Antonio Palopo	8	Agosto	2023-03-08T00:00:00	2024-11-08T07:00:00	8	Radiación solar	27
186549	7	Sololá	712	San Antonio Palopó	9	San Antonio Palopo	8	Agosto	2023-03-08T00:00:00	2024-11-08T08:00:00	2	Temperatura media	20.4
186550	7	Sololá	712	San Antonio Palopó	9	San Antonio Palopo	8	Agosto	2023-03-08T00:00:00	2024-11-08T08:00:00	4	Temperatura máxima	20.4
186551	7	Sololá	712	San Antonio Palopó	9	San Antonio Palopo	8	Agosto	2023-03-08T00:00:00	2024-11-08T08:00:00	3	Temperatura mínima	18.8
186552	7	Sololá	712	San Antonio Palopó	9	San Antonio Palopo	8	Agosto	2023-03-08T00:00:00	2024-11-08T08:00:00	5	Humedad	74
186553	7	Sololá	712	San Antonio Palopó	9	San Antonio Palopo	8	Agosto	2023-03-08T00:00:00	2024-11-08T08:00:00	6	Velocidad del viento	3.2
186554	7	Sololá	712	San Antonio Palopó	9	San Antonio Palopo	8	Agosto	2023-03-08T00:00:00	2024-11-08T08:00:00	7	Dirección del viento	3.22
186555	7	Sololá	712	San Antonio Palopó	9	San Antonio Palopo	8	Agosto	2023-03-08T00:00:00	2024-11-08T08:00:00	1	Precipitación	0
186556	7	Sololá	712	San Antonio Palopó	9	San Antonio Palopo	8	Agosto	2023-03-08T00:00:00	2024-11-08T08:00:00	8	Radiación solar	149
186557	7	Sololá	712	San Antonio Palopó	9	San Antonio Palopo	8	Agosto	2023-03-08T00:00:00	2024-11-08T09:00:00	2	Temperatura media	22.1
186558	7	Sololá	712	San Antonio Palopó	9	San Antonio Palopo	8	Agosto	2023-03-08T00:00:00	2024-11-08T09:00:00	4	Temperatura máxima	22.2
186559	7	Sololá	712	San Antonio Palopó	9	San Antonio Palopo	8	Agosto	2023-03-08T00:00:00	2024-11-08T09:00:00	3	Temperatura mínima	20.5
186560	7	Sololá	712	San Antonio Palopó	9	San Antonio Palopo	8	Agosto	2023-03-08T00:00:00	2024-11-08T09:00:00	5	Humedad	70
186561	7	Sololá	712	San Antonio Palopó	9	San Antonio Palopo	8	Agosto	2023-03-08T00:00:00	2024-11-08T09:00:00	6	Velocidad del viento	1.6
186562	7	Sololá	712	San Antonio Palopó	9	San Antonio Palopo	8	Agosto	2023-03-08T00:00:00	2024-11-08T09:00:00	7	Dirección del viento	1.61
186563	7	Sololá	712	San Antonio Palopó	9	San Antonio Palopo	8	Agosto	2023-03-08T00:00:00	2024-11-08T09:00:00	1	Precipitación	0
186564	7	Sololá	712	San Antonio Palopó	9	San Antonio Palopo	8	Agosto	2023-03-08T00:00:00	2024-11-08T09:00:00	8	Radiación solar	521
186565	7	Sololá	712	San Antonio Palopó	9	San Antonio Palopo	8	Agosto	2023-03-08T00:00:00	2024-11-08T10:00:00	2	Temperatura media	22.7
186566	7	Sololá	712	San Antonio Palopó	9	San Antonio Palopo	8	Agosto	2023-03-08T00:00:00	2024-11-08T10:00:00	4	Temperatura máxima	22.8
186567	7	Sololá	712	San Antonio Palopó	9	San Antonio Palopo	8	Agosto	2023-03-08T00:00:00	2024-11-08T10:00:00	3	Temperatura mínima	21.9
186568	7	Sololá	712	San Antonio Palopó	9	San Antonio Palopo	8	Agosto	2023-03-08T00:00:00	2024-11-08T10:00:00	5	Humedad	72
186569	7	Sololá	712	San Antonio Palopó	9	San Antonio Palopo	8	Agosto	2023-03-08T00:00:00	2024-11-08T10:00:00	6	Velocidad del viento	1.6
186570	7	Sololá	712	San Antonio Palopó	9	San Antonio Palopo	8	Agosto	2023-03-08T00:00:00	2024-11-08T10:00:00	7	Dirección del viento	1.61
186571	7	Sololá	712	San Antonio Palopó	9	San Antonio Palopo	8	Agosto	2023-03-08T00:00:00	2024-11-08T10:00:00	1	Precipitación	0
186572	7	Sololá	712	San Antonio Palopó	9	San Antonio Palopo	8	Agosto	2023-03-08T00:00:00	2024-11-08T10:00:00	8	Radiación solar	753
186573	7	Sololá	712	San Antonio Palopó	9	San Antonio Palopo	8	Agosto	2023-03-08T00:00:00	2024-11-08T11:00:00	2	Temperatura media	23.1
186574	7	Sololá	712	San Antonio Palopó	9	San Antonio Palopo	8	Agosto	2023-03-08T00:00:00	2024-11-08T11:00:00	4	Temperatura máxima	23.4
186575	7	Sololá	712	San Antonio Palopó	9	San Antonio Palopo	8	Agosto	2023-03-08T00:00:00	2024-11-08T11:00:00	3	Temperatura mínima	22.7
186576	7	Sololá	712	San Antonio Palopó	9	San Antonio Palopo	8	Agosto	2023-03-08T00:00:00	2024-11-08T11:00:00	5	Humedad	72
186577	7	Sololá	712	San Antonio Palopó	9	San Antonio Palopo	8	Agosto	2023-03-08T00:00:00	2024-11-08T11:00:00	6	Velocidad del viento	3.2
186578	7	Sololá	712	San Antonio Palopó	9	San Antonio Palopo	8	Agosto	2023-03-08T00:00:00	2024-11-08T11:00:00	7	Dirección del viento	3.22
186579	7	Sololá	712	San Antonio Palopó	9	San Antonio Palopo	8	Agosto	2023-03-08T00:00:00	2024-11-08T11:00:00	1	Precipitación	0
186580	7	Sololá	712	San Antonio Palopó	9	San Antonio Palopo	8	Agosto	2023-03-08T00:00:00	2024-11-08T11:00:00	8	Radiación solar	762
186581	7	Sololá	712	San Antonio Palopó	9	San Antonio Palopo	8	Agosto	2023-03-08T00:00:00	2024-11-08T12:00:00	2	Temperatura media	23.5
186582	7	Sololá	712	San Antonio Palopó	9	San Antonio Palopo	8	Agosto	2023-03-08T00:00:00	2024-11-08T12:00:00	4	Temperatura máxima	24.3
186583	7	Sololá	712	San Antonio Palopó	9	San Antonio Palopo	8	Agosto	2023-03-08T00:00:00	2024-11-08T12:00:00	3	Temperatura mínima	23
186584	7	Sololá	712	San Antonio Palopó	9	San Antonio Palopo	8	Agosto	2023-03-08T00:00:00	2024-11-08T12:00:00	5	Humedad	73
186585	7	Sololá	712	San Antonio Palopó	9	San Antonio Palopo	8	Agosto	2023-03-08T00:00:00	2024-11-08T12:00:00	6	Velocidad del viento	6.4
186586	7	Sololá	712	San Antonio Palopó	9	San Antonio Palopo	8	Agosto	2023-03-08T00:00:00	2024-11-08T12:00:00	7	Dirección del viento	6.44
186587	7	Sololá	712	San Antonio Palopó	9	San Antonio Palopo	8	Agosto	2023-03-08T00:00:00	2024-11-08T12:00:00	1	Precipitación	0
186588	7	Sololá	712	San Antonio Palopó	9	San Antonio Palopo	8	Agosto	2023-03-08T00:00:00	2024-11-08T12:00:00	8	Radiación solar	838
186589	7	Sololá	712	San Antonio Palopó	9	San Antonio Palopo	8	Agosto	2023-03-08T00:00:00	2024-11-08T13:00:00	2	Temperatura media	23.2
186590	7	Sololá	712	San Antonio Palopó	9	San Antonio Palopo	8	Agosto	2023-03-08T00:00:00	2024-11-08T13:00:00	4	Temperatura máxima	24.1
186591	7	Sololá	712	San Antonio Palopó	9	San Antonio Palopo	8	Agosto	2023-03-08T00:00:00	2024-11-08T13:00:00	3	Temperatura mínima	22.8
186592	7	Sololá	712	San Antonio Palopó	9	San Antonio Palopo	8	Agosto	2023-03-08T00:00:00	2024-11-08T13:00:00	5	Humedad	77
186593	7	Sololá	712	San Antonio Palopó	9	San Antonio Palopo	8	Agosto	2023-03-08T00:00:00	2024-11-08T13:00:00	6	Velocidad del viento	4.8
186594	7	Sololá	712	San Antonio Palopó	9	San Antonio Palopo	8	Agosto	2023-03-08T00:00:00	2024-11-08T13:00:00	7	Dirección del viento	4.83
186595	7	Sololá	712	San Antonio Palopó	9	San Antonio Palopo	8	Agosto	2023-03-08T00:00:00	2024-11-08T13:00:00	1	Precipitación	0
186596	7	Sololá	712	San Antonio Palopó	9	San Antonio Palopo	8	Agosto	2023-03-08T00:00:00	2024-11-08T13:00:00	8	Radiación solar	407
186597	7	Sololá	712	San Antonio Palopó	9	San Antonio Palopo	8	Agosto	2023-03-08T00:00:00	2024-11-08T14:00:00	2	Temperatura media	22.1
186598	7	Sololá	712	San Antonio Palopó	9	San Antonio Palopo	8	Agosto	2023-03-08T00:00:00	2024-11-08T14:00:00	4	Temperatura máxima	23.3
186599	7	Sololá	712	San Antonio Palopó	9	San Antonio Palopo	8	Agosto	2023-03-08T00:00:00	2024-11-08T14:00:00	3	Temperatura mínima	22.1
186600	7	Sololá	712	San Antonio Palopó	9	San Antonio Palopo	8	Agosto	2023-03-08T00:00:00	2024-11-08T14:00:00	5	Humedad	73
186601	7	Sololá	712	San Antonio Palopó	9	San Antonio Palopo	8	Agosto	2023-03-08T00:00:00	2024-11-08T14:00:00	6	Velocidad del viento	8
186602	7	Sololá	712	San Antonio Palopó	9	San Antonio Palopo	8	Agosto	2023-03-08T00:00:00	2024-11-08T14:00:00	7	Dirección del viento	8.05
186603	7	Sololá	712	San Antonio Palopó	9	San Antonio Palopo	8	Agosto	2023-03-08T00:00:00	2024-11-08T14:00:00	1	Precipitación	0
186604	7	Sololá	712	San Antonio Palopó	9	San Antonio Palopo	8	Agosto	2023-03-08T00:00:00	2024-11-08T14:00:00	8	Radiación solar	167
186605	7	Sololá	712	San Antonio Palopó	9	San Antonio Palopo	8	Agosto	2023-03-08T00:00:00	2024-11-08T15:00:00	2	Temperatura media	21.7
186606	7	Sololá	712	San Antonio Palopó	9	San Antonio Palopo	8	Agosto	2023-03-08T00:00:00	2024-11-08T15:00:00	4	Temperatura máxima	22.4
186607	7	Sololá	712	San Antonio Palopó	9	San Antonio Palopo	8	Agosto	2023-03-08T00:00:00	2024-11-08T15:00:00	3	Temperatura mínima	21.7
186608	7	Sololá	712	San Antonio Palopó	9	San Antonio Palopo	8	Agosto	2023-03-08T00:00:00	2024-11-08T15:00:00	5	Humedad	74
186609	7	Sololá	712	San Antonio Palopó	9	San Antonio Palopo	8	Agosto	2023-03-08T00:00:00	2024-11-08T15:00:00	6	Velocidad del viento	8
186610	7	Sololá	712	San Antonio Palopó	9	San Antonio Palopo	8	Agosto	2023-03-08T00:00:00	2024-11-08T15:00:00	7	Dirección del viento	8.05
186611	7	Sololá	712	San Antonio Palopó	9	San Antonio Palopo	8	Agosto	2023-03-08T00:00:00	2024-11-08T15:00:00	1	Precipitación	0
186612	7	Sololá	712	San Antonio Palopó	9	San Antonio Palopo	8	Agosto	2023-03-08T00:00:00	2024-11-08T15:00:00	8	Radiación solar	312
186613	7	Sololá	712	San Antonio Palopó	9	San Antonio Palopo	8	Agosto	2023-03-08T00:00:00	2024-11-08T16:00:00	2	Temperatura media	19.9
186614	7	Sololá	712	San Antonio Palopó	9	San Antonio Palopo	8	Agosto	2023-03-08T00:00:00	2024-11-08T16:00:00	4	Temperatura máxima	21.8
186615	7	Sololá	712	San Antonio Palopó	9	San Antonio Palopo	8	Agosto	2023-03-08T00:00:00	2024-11-08T16:00:00	3	Temperatura mínima	19.9
186616	7	Sololá	712	San Antonio Palopó	9	San Antonio Palopo	8	Agosto	2023-03-08T00:00:00	2024-11-08T16:00:00	5	Humedad	82
186617	7	Sololá	712	San Antonio Palopó	9	San Antonio Palopo	8	Agosto	2023-03-08T00:00:00	2024-11-08T16:00:00	6	Velocidad del viento	6.4
186618	7	Sololá	712	San Antonio Palopó	9	San Antonio Palopo	8	Agosto	2023-03-08T00:00:00	2024-11-08T16:00:00	7	Dirección del viento	6.44
186619	7	Sololá	712	San Antonio Palopó	9	San Antonio Palopo	8	Agosto	2023-03-08T00:00:00	2024-11-08T16:00:00	1	Precipitación	0.2
186620	7	Sololá	712	San Antonio Palopó	9	San Antonio Palopo	8	Agosto	2023-03-08T00:00:00	2024-11-08T16:00:00	8	Radiación solar	139
186621	7	Sololá	712	San Antonio Palopó	9	San Antonio Palopo	8	Agosto	2023-03-08T00:00:00	2024-11-08T17:00:00	2	Temperatura media	19.3
186622	7	Sololá	712	San Antonio Palopó	9	San Antonio Palopo	8	Agosto	2023-03-08T00:00:00	2024-11-08T17:00:00	4	Temperatura máxima	20.7
186623	7	Sololá	712	San Antonio Palopó	9	San Antonio Palopo	8	Agosto	2023-03-08T00:00:00	2024-11-08T17:00:00	3	Temperatura mínima	19.3
186624	7	Sololá	712	San Antonio Palopó	9	San Antonio Palopo	8	Agosto	2023-03-08T00:00:00	2024-11-08T17:00:00	5	Humedad	85
186625	7	Sololá	712	San Antonio Palopó	9	San Antonio Palopo	8	Agosto	2023-03-08T00:00:00	2024-11-08T17:00:00	6	Velocidad del viento	3.2
186626	7	Sololá	712	San Antonio Palopó	9	San Antonio Palopo	8	Agosto	2023-03-08T00:00:00	2024-11-08T17:00:00	7	Dirección del viento	3.22
186627	7	Sololá	712	San Antonio Palopó	9	San Antonio Palopo	8	Agosto	2023-03-08T00:00:00	2024-11-08T17:00:00	1	Precipitación	3
186628	7	Sololá	712	San Antonio Palopó	9	San Antonio Palopo	8	Agosto	2023-03-08T00:00:00	2024-11-08T17:00:00	8	Radiación solar	44
186629	7	Sololá	712	San Antonio Palopó	9	San Antonio Palopo	8	Agosto	2023-03-08T00:00:00	2024-11-08T18:00:00	2	Temperatura media	18.6
186630	7	Sololá	712	San Antonio Palopó	9	San Antonio Palopo	8	Agosto	2023-03-08T00:00:00	2024-11-08T18:00:00	4	Temperatura máxima	19.3
186631	7	Sololá	712	San Antonio Palopó	9	San Antonio Palopo	8	Agosto	2023-03-08T00:00:00	2024-11-08T18:00:00	3	Temperatura mínima	18.6
186632	7	Sololá	712	San Antonio Palopó	9	San Antonio Palopo	8	Agosto	2023-03-08T00:00:00	2024-11-08T18:00:00	5	Humedad	88
186633	7	Sololá	712	San Antonio Palopó	9	San Antonio Palopo	8	Agosto	2023-03-08T00:00:00	2024-11-08T18:00:00	6	Velocidad del viento	1.6
186634	7	Sololá	712	San Antonio Palopó	9	San Antonio Palopo	8	Agosto	2023-03-08T00:00:00	2024-11-08T18:00:00	7	Dirección del viento	1.61
186635	7	Sololá	712	San Antonio Palopó	9	San Antonio Palopo	8	Agosto	2023-03-08T00:00:00	2024-11-08T18:00:00	1	Precipitación	3.2
186636	7	Sololá	712	San Antonio Palopó	9	San Antonio Palopo	8	Agosto	2023-03-08T00:00:00	2024-11-08T18:00:00	8	Radiación solar	17
186637	7	Sololá	712	San Antonio Palopó	9	San Antonio Palopo	8	Agosto	2023-03-08T00:00:00	2024-11-08T19:00:00	2	Temperatura media	19.4
186638	7	Sololá	712	San Antonio Palopó	9	San Antonio Palopo	8	Agosto	2023-03-08T00:00:00	2024-11-08T19:00:00	4	Temperatura máxima	19.5
186639	7	Sololá	712	San Antonio Palopó	9	San Antonio Palopo	8	Agosto	2023-03-08T00:00:00	2024-11-08T19:00:00	3	Temperatura mínima	18.6
186640	7	Sololá	712	San Antonio Palopó	9	San Antonio Palopo	8	Agosto	2023-03-08T00:00:00	2024-11-08T19:00:00	5	Humedad	81
186641	7	Sololá	712	San Antonio Palopó	9	San Antonio Palopo	8	Agosto	2023-03-08T00:00:00	2024-11-08T19:00:00	6	Velocidad del viento	3.2
186642	7	Sololá	712	San Antonio Palopó	9	San Antonio Palopo	8	Agosto	2023-03-08T00:00:00	2024-11-08T19:00:00	7	Dirección del viento	3.22
186643	7	Sololá	712	San Antonio Palopó	9	San Antonio Palopo	8	Agosto	2023-03-08T00:00:00	2024-11-08T19:00:00	1	Precipitación	0.2
186644	7	Sololá	712	San Antonio Palopó	9	San Antonio Palopo	8	Agosto	2023-03-08T00:00:00	2024-11-08T19:00:00	8	Radiación solar	0
186645	7	Sololá	712	San Antonio Palopó	9	San Antonio Palopo	8	Agosto	2023-03-08T00:00:00	2024-11-08T20:00:00	2	Temperatura media	19.3
186646	7	Sololá	712	San Antonio Palopó	9	San Antonio Palopo	8	Agosto	2023-03-08T00:00:00	2024-11-08T20:00:00	4	Temperatura máxima	19.7
186647	7	Sololá	712	San Antonio Palopó	9	San Antonio Palopo	8	Agosto	2023-03-08T00:00:00	2024-11-08T20:00:00	3	Temperatura mínima	19.3
186648	7	Sololá	712	San Antonio Palopó	9	San Antonio Palopo	8	Agosto	2023-03-08T00:00:00	2024-11-08T20:00:00	5	Humedad	79
186649	7	Sololá	712	San Antonio Palopó	9	San Antonio Palopo	8	Agosto	2023-03-08T00:00:00	2024-11-08T20:00:00	6	Velocidad del viento	9.7
186650	7	Sololá	712	San Antonio Palopó	9	San Antonio Palopo	8	Agosto	2023-03-08T00:00:00	2024-11-08T20:00:00	7	Dirección del viento	9.66
186651	7	Sololá	712	San Antonio Palopó	9	San Antonio Palopo	8	Agosto	2023-03-08T00:00:00	2024-11-08T20:00:00	1	Precipitación	2.2
186652	7	Sololá	712	San Antonio Palopó	9	San Antonio Palopo	8	Agosto	2023-03-08T00:00:00	2024-11-08T20:00:00	8	Radiación solar	0
186653	7	Sololá	712	San Antonio Palopó	9	San Antonio Palopo	8	Agosto	2023-03-08T00:00:00	2024-11-08T21:00:00	2	Temperatura media	18.8
186654	7	Sololá	712	San Antonio Palopó	9	San Antonio Palopo	8	Agosto	2023-03-08T00:00:00	2024-11-08T21:00:00	4	Temperatura máxima	19.4
186655	7	Sololá	712	San Antonio Palopó	9	San Antonio Palopo	8	Agosto	2023-03-08T00:00:00	2024-11-08T21:00:00	3	Temperatura mínima	18.6
186656	7	Sololá	712	San Antonio Palopó	9	San Antonio Palopo	8	Agosto	2023-03-08T00:00:00	2024-11-08T21:00:00	5	Humedad	79
186657	7	Sololá	712	San Antonio Palopó	9	San Antonio Palopo	8	Agosto	2023-03-08T00:00:00	2024-11-08T21:00:00	6	Velocidad del viento	9.7
186658	7	Sololá	712	San Antonio Palopó	9	San Antonio Palopo	8	Agosto	2023-03-08T00:00:00	2024-11-08T21:00:00	7	Dirección del viento	9.66
186659	7	Sololá	712	San Antonio Palopó	9	San Antonio Palopo	8	Agosto	2023-03-08T00:00:00	2024-11-08T21:00:00	1	Precipitación	2.8
186660	7	Sololá	712	San Antonio Palopó	9	San Antonio Palopo	8	Agosto	2023-03-08T00:00:00	2024-11-08T21:00:00	8	Radiación solar	0
186661	7	Sololá	712	San Antonio Palopó	9	San Antonio Palopo	8	Agosto	2023-03-08T00:00:00	2024-11-08T22:00:00	2	Temperatura media	19.2
186662	7	Sololá	712	San Antonio Palopó	9	San Antonio Palopo	8	Agosto	2023-03-08T00:00:00	2024-11-08T22:00:00	4	Temperatura máxima	19.4
186663	7	Sololá	712	San Antonio Palopó	9	San Antonio Palopo	8	Agosto	2023-03-08T00:00:00	2024-11-08T22:00:00	3	Temperatura mínima	18.6
186664	7	Sololá	712	San Antonio Palopó	9	San Antonio Palopo	8	Agosto	2023-03-08T00:00:00	2024-11-08T22:00:00	5	Humedad	78
186665	7	Sololá	712	San Antonio Palopó	9	San Antonio Palopo	8	Agosto	2023-03-08T00:00:00	2024-11-08T22:00:00	6	Velocidad del viento	6.4
186666	7	Sololá	712	San Antonio Palopó	9	San Antonio Palopo	8	Agosto	2023-03-08T00:00:00	2024-11-08T22:00:00	7	Dirección del viento	6.44
186667	7	Sololá	712	San Antonio Palopó	9	San Antonio Palopo	8	Agosto	2023-03-08T00:00:00	2024-11-08T22:00:00	1	Precipitación	0.4
186668	7	Sololá	712	San Antonio Palopó	9	San Antonio Palopo	8	Agosto	2023-03-08T00:00:00	2024-11-08T22:00:00	8	Radiación solar	0
186669	7	Sololá	712	San Antonio Palopó	9	San Antonio Palopo	8	Agosto	2023-03-08T00:00:00	2024-11-08T23:00:00	2	Temperatura media	19.6
186670	7	Sololá	712	San Antonio Palopó	9	San Antonio Palopo	8	Agosto	2023-03-08T00:00:00	2024-11-08T23:00:00	4	Temperatura máxima	19.7
186671	7	Sololá	712	San Antonio Palopó	9	San Antonio Palopo	8	Agosto	2023-03-08T00:00:00	2024-11-08T23:00:00	3	Temperatura mínima	19.1
186672	7	Sololá	712	San Antonio Palopó	9	San Antonio Palopo	8	Agosto	2023-03-08T00:00:00	2024-11-08T23:00:00	5	Humedad	74
186673	7	Sololá	712	San Antonio Palopó	9	San Antonio Palopo	8	Agosto	2023-03-08T00:00:00	2024-11-08T23:00:00	6	Velocidad del viento	6.4
186674	7	Sololá	712	San Antonio Palopó	9	San Antonio Palopo	8	Agosto	2023-03-08T00:00:00	2024-11-08T23:00:00	7	Dirección del viento	6.44
186675	7	Sololá	712	San Antonio Palopó	9	San Antonio Palopo	8	Agosto	2023-03-08T00:00:00	2024-11-08T23:00:00	1	Precipitación	0
186676	7	Sololá	712	San Antonio Palopó	9	San Antonio Palopo	8	Agosto	2023-03-08T00:00:00	2024-11-08T23:00:00	8	Radiación solar	0
186677	7	Sololá	712	San Antonio Palopó	9	San Antonio Palopo	8	Agosto	2023-04-08T00:00:00	2024-11-08T00:00:00	2	Temperatura media	19.6
186678	7	Sololá	712	San Antonio Palopó	9	San Antonio Palopo	8	Agosto	2023-04-08T00:00:00	2024-11-08T00:00:00	4	Temperatura máxima	19.7
186679	7	Sololá	712	San Antonio Palopó	9	San Antonio Palopo	8	Agosto	2023-04-08T00:00:00	2024-11-08T00:00:00	3	Temperatura mínima	19.1
186680	7	Sololá	712	San Antonio Palopó	9	San Antonio Palopo	8	Agosto	2023-04-08T00:00:00	2024-11-08T00:00:00	5	Humedad	74
186681	7	Sololá	712	San Antonio Palopó	9	San Antonio Palopo	8	Agosto	2023-04-08T00:00:00	2024-11-08T00:00:00	6	Velocidad del viento	9.7
186682	7	Sololá	712	San Antonio Palopó	9	San Antonio Palopo	8	Agosto	2023-04-08T00:00:00	2024-11-08T00:00:00	7	Dirección del viento	9.66
186683	7	Sololá	712	San Antonio Palopó	9	San Antonio Palopo	8	Agosto	2023-04-08T00:00:00	2024-11-08T00:00:00	1	Precipitación	0
186684	7	Sololá	712	San Antonio Palopó	9	San Antonio Palopo	8	Agosto	2023-04-08T00:00:00	2024-11-08T00:00:00	8	Radiación solar	0
186685	7	Sololá	712	San Antonio Palopó	9	San Antonio Palopo	8	Agosto	2023-04-08T00:00:00	2024-11-08T01:00:00	2	Temperatura media	19.7
186686	7	Sololá	712	San Antonio Palopó	9	San Antonio Palopo	8	Agosto	2023-04-08T00:00:00	2024-11-08T01:00:00	4	Temperatura máxima	19.7
186687	7	Sololá	712	San Antonio Palopó	9	San Antonio Palopo	8	Agosto	2023-04-08T00:00:00	2024-11-08T01:00:00	3	Temperatura mínima	19.4
186688	7	Sololá	712	San Antonio Palopó	9	San Antonio Palopo	8	Agosto	2023-04-08T00:00:00	2024-11-08T01:00:00	5	Humedad	72
186689	7	Sololá	712	San Antonio Palopó	9	San Antonio Palopo	8	Agosto	2023-04-08T00:00:00	2024-11-08T01:00:00	6	Velocidad del viento	9.7
186690	7	Sololá	712	San Antonio Palopó	9	San Antonio Palopo	8	Agosto	2023-04-08T00:00:00	2024-11-08T01:00:00	7	Dirección del viento	9.66
186691	7	Sololá	712	San Antonio Palopó	9	San Antonio Palopo	8	Agosto	2023-04-08T00:00:00	2024-11-08T01:00:00	1	Precipitación	0
186692	7	Sololá	712	San Antonio Palopó	9	San Antonio Palopo	8	Agosto	2023-04-08T00:00:00	2024-11-08T01:00:00	8	Radiación solar	0
186693	7	Sololá	712	San Antonio Palopó	9	San Antonio Palopo	8	Agosto	2023-04-08T00:00:00	2024-11-08T02:00:00	2	Temperatura media	19.7
186694	7	Sololá	712	San Antonio Palopó	9	San Antonio Palopo	8	Agosto	2023-04-08T00:00:00	2024-11-08T02:00:00	4	Temperatura máxima	19.8
186695	7	Sololá	712	San Antonio Palopó	9	San Antonio Palopo	8	Agosto	2023-04-08T00:00:00	2024-11-08T02:00:00	3	Temperatura mínima	19.5
186696	7	Sololá	712	San Antonio Palopó	9	San Antonio Palopo	8	Agosto	2023-04-08T00:00:00	2024-11-08T02:00:00	5	Humedad	72
186697	7	Sololá	712	San Antonio Palopó	9	San Antonio Palopo	8	Agosto	2023-04-08T00:00:00	2024-11-08T02:00:00	6	Velocidad del viento	8
186698	7	Sololá	712	San Antonio Palopó	9	San Antonio Palopo	8	Agosto	2023-04-08T00:00:00	2024-11-08T02:00:00	7	Dirección del viento	8.05
186699	7	Sololá	712	San Antonio Palopó	9	San Antonio Palopo	8	Agosto	2023-04-08T00:00:00	2024-11-08T02:00:00	1	Precipitación	0
186700	7	Sololá	712	San Antonio Palopó	9	San Antonio Palopo	8	Agosto	2023-04-08T00:00:00	2024-11-08T02:00:00	8	Radiación solar	0
186701	7	Sololá	712	San Antonio Palopó	9	San Antonio Palopo	8	Agosto	2023-04-08T00:00:00	2024-11-08T03:00:00	2	Temperatura media	19.6
186702	7	Sololá	712	San Antonio Palopó	9	San Antonio Palopo	8	Agosto	2023-04-08T00:00:00	2024-11-08T03:00:00	4	Temperatura máxima	19.8
186703	7	Sololá	712	San Antonio Palopó	9	San Antonio Palopo	8	Agosto	2023-04-08T00:00:00	2024-11-08T03:00:00	3	Temperatura mínima	19.4
186704	7	Sololá	712	San Antonio Palopó	9	San Antonio Palopo	8	Agosto	2023-04-08T00:00:00	2024-11-08T03:00:00	5	Humedad	71
186705	7	Sololá	712	San Antonio Palopó	9	San Antonio Palopo	8	Agosto	2023-04-08T00:00:00	2024-11-08T03:00:00	6	Velocidad del viento	8
186706	7	Sololá	712	San Antonio Palopó	9	San Antonio Palopo	8	Agosto	2023-04-08T00:00:00	2024-11-08T03:00:00	7	Dirección del viento	8.05
186707	7	Sololá	712	San Antonio Palopó	9	San Antonio Palopo	8	Agosto	2023-04-08T00:00:00	2024-11-08T03:00:00	1	Precipitación	0
186708	7	Sololá	712	San Antonio Palopó	9	San Antonio Palopo	8	Agosto	2023-04-08T00:00:00	2024-11-08T03:00:00	8	Radiación solar	0
186709	7	Sololá	712	San Antonio Palopó	9	San Antonio Palopo	8	Agosto	2023-04-08T00:00:00	2024-11-08T04:00:00	2	Temperatura media	19.4
186710	7	Sololá	712	San Antonio Palopó	9	San Antonio Palopo	8	Agosto	2023-04-08T00:00:00	2024-11-08T04:00:00	4	Temperatura máxima	19.7
186711	7	Sololá	712	San Antonio Palopó	9	San Antonio Palopo	8	Agosto	2023-04-08T00:00:00	2024-11-08T04:00:00	3	Temperatura mínima	19.1
186712	7	Sololá	712	San Antonio Palopó	9	San Antonio Palopo	8	Agosto	2023-04-08T00:00:00	2024-11-08T04:00:00	5	Humedad	72
186713	7	Sololá	712	San Antonio Palopó	9	San Antonio Palopo	8	Agosto	2023-04-08T00:00:00	2024-11-08T04:00:00	6	Velocidad del viento	6.4
186714	7	Sololá	712	San Antonio Palopó	9	San Antonio Palopo	8	Agosto	2023-04-08T00:00:00	2024-11-08T04:00:00	7	Dirección del viento	6.44
186715	7	Sololá	712	San Antonio Palopó	9	San Antonio Palopo	8	Agosto	2023-04-08T00:00:00	2024-11-08T04:00:00	1	Precipitación	0
186716	7	Sololá	712	San Antonio Palopó	9	San Antonio Palopo	8	Agosto	2023-04-08T00:00:00	2024-11-08T04:00:00	8	Radiación solar	0
186717	7	Sololá	712	San Antonio Palopó	9	San Antonio Palopo	8	Agosto	2023-04-08T00:00:00	2024-11-08T05:00:00	2	Temperatura media	19.2
186718	7	Sololá	712	San Antonio Palopó	9	San Antonio Palopo	8	Agosto	2023-04-08T00:00:00	2024-11-08T05:00:00	4	Temperatura máxima	19.4
186719	7	Sololá	712	San Antonio Palopó	9	San Antonio Palopo	8	Agosto	2023-04-08T00:00:00	2024-11-08T05:00:00	3	Temperatura mínima	19.2
186720	7	Sololá	712	San Antonio Palopó	9	San Antonio Palopo	8	Agosto	2023-04-08T00:00:00	2024-11-08T05:00:00	5	Humedad	73
186721	7	Sololá	712	San Antonio Palopó	9	San Antonio Palopo	8	Agosto	2023-04-08T00:00:00	2024-11-08T05:00:00	6	Velocidad del viento	4.8
186722	7	Sololá	712	San Antonio Palopó	9	San Antonio Palopo	8	Agosto	2023-04-08T00:00:00	2024-11-08T05:00:00	7	Dirección del viento	4.83
186723	7	Sololá	712	San Antonio Palopó	9	San Antonio Palopo	8	Agosto	2023-04-08T00:00:00	2024-11-08T05:00:00	1	Precipitación	0
186724	7	Sololá	712	San Antonio Palopó	9	San Antonio Palopo	8	Agosto	2023-04-08T00:00:00	2024-11-08T05:00:00	8	Radiación solar	0
186725	7	Sololá	712	San Antonio Palopó	9	San Antonio Palopo	8	Agosto	2023-04-08T00:00:00	2024-11-08T06:00:00	2	Temperatura media	19.3
186726	7	Sololá	712	San Antonio Palopó	9	San Antonio Palopo	8	Agosto	2023-04-08T00:00:00	2024-11-08T06:00:00	4	Temperatura máxima	19.3
186727	7	Sololá	712	San Antonio Palopó	9	San Antonio Palopo	8	Agosto	2023-04-08T00:00:00	2024-11-08T06:00:00	3	Temperatura mínima	19.1
186728	7	Sololá	712	San Antonio Palopó	9	San Antonio Palopo	8	Agosto	2023-04-08T00:00:00	2024-11-08T06:00:00	5	Humedad	72
186729	7	Sololá	712	San Antonio Palopó	9	San Antonio Palopo	8	Agosto	2023-04-08T00:00:00	2024-11-08T06:00:00	6	Velocidad del viento	3.2
186730	7	Sololá	712	San Antonio Palopó	9	San Antonio Palopo	8	Agosto	2023-04-08T00:00:00	2024-11-08T06:00:00	7	Dirección del viento	3.22
186731	7	Sololá	712	San Antonio Palopó	9	San Antonio Palopo	8	Agosto	2023-04-08T00:00:00	2024-11-08T06:00:00	1	Precipitación	0
186732	7	Sololá	712	San Antonio Palopó	9	San Antonio Palopo	8	Agosto	2023-04-08T00:00:00	2024-11-08T06:00:00	8	Radiación solar	0
186733	7	Sololá	712	San Antonio Palopó	9	San Antonio Palopo	8	Agosto	2023-04-08T00:00:00	2024-11-08T07:00:00	2	Temperatura media	18.7
186734	7	Sololá	712	San Antonio Palopó	9	San Antonio Palopo	8	Agosto	2023-04-08T00:00:00	2024-11-08T07:00:00	4	Temperatura máxima	19.8
186735	7	Sololá	712	San Antonio Palopó	9	San Antonio Palopo	8	Agosto	2023-04-08T00:00:00	2024-11-08T07:00:00	3	Temperatura mínima	18.7
186736	7	Sololá	712	San Antonio Palopó	9	San Antonio Palopo	8	Agosto	2023-04-08T00:00:00	2024-11-08T07:00:00	5	Humedad	80
186737	7	Sololá	712	San Antonio Palopó	9	San Antonio Palopo	8	Agosto	2023-04-08T00:00:00	2024-11-08T07:00:00	6	Velocidad del viento	4.8
186738	7	Sololá	712	San Antonio Palopó	9	San Antonio Palopo	8	Agosto	2023-04-08T00:00:00	2024-11-08T07:00:00	7	Dirección del viento	4.83
186739	7	Sololá	712	San Antonio Palopó	9	San Antonio Palopo	8	Agosto	2023-04-08T00:00:00	2024-11-08T07:00:00	1	Precipitación	0
186740	7	Sololá	712	San Antonio Palopó	9	San Antonio Palopo	8	Agosto	2023-04-08T00:00:00	2024-11-08T07:00:00	8	Radiación solar	45
186741	7	Sololá	712	San Antonio Palopó	9	San Antonio Palopo	8	Agosto	2023-04-08T00:00:00	2024-11-08T08:00:00	2	Temperatura media	20.4
186742	7	Sololá	712	San Antonio Palopó	9	San Antonio Palopo	8	Agosto	2023-04-08T00:00:00	2024-11-08T08:00:00	4	Temperatura máxima	20.4
186743	7	Sololá	712	San Antonio Palopó	9	San Antonio Palopo	8	Agosto	2023-04-08T00:00:00	2024-11-08T08:00:00	3	Temperatura mínima	18.6
186744	7	Sololá	712	San Antonio Palopó	9	San Antonio Palopo	8	Agosto	2023-04-08T00:00:00	2024-11-08T08:00:00	5	Humedad	73
186745	7	Sololá	712	San Antonio Palopó	9	San Antonio Palopo	8	Agosto	2023-04-08T00:00:00	2024-11-08T08:00:00	6	Velocidad del viento	1.6
186746	7	Sololá	712	San Antonio Palopó	9	San Antonio Palopo	8	Agosto	2023-04-08T00:00:00	2024-11-08T08:00:00	7	Dirección del viento	1.61
186747	7	Sololá	712	San Antonio Palopó	9	San Antonio Palopo	8	Agosto	2023-04-08T00:00:00	2024-11-08T08:00:00	1	Precipitación	0
186748	7	Sololá	712	San Antonio Palopó	9	San Antonio Palopo	8	Agosto	2023-04-08T00:00:00	2024-11-08T08:00:00	8	Radiación solar	178
186749	7	Sololá	712	San Antonio Palopó	9	San Antonio Palopo	8	Agosto	2023-04-08T00:00:00	2024-11-08T09:00:00	2	Temperatura media	21.2
186750	7	Sololá	712	San Antonio Palopó	9	San Antonio Palopo	8	Agosto	2023-04-08T00:00:00	2024-11-08T09:00:00	4	Temperatura máxima	21.2
186751	7	Sololá	712	San Antonio Palopó	9	San Antonio Palopo	8	Agosto	2023-04-08T00:00:00	2024-11-08T09:00:00	3	Temperatura mínima	20.4
186752	7	Sololá	712	San Antonio Palopó	9	San Antonio Palopo	8	Agosto	2023-04-08T00:00:00	2024-11-08T09:00:00	5	Humedad	73
186753	7	Sololá	712	San Antonio Palopó	9	San Antonio Palopo	8	Agosto	2023-04-08T00:00:00	2024-11-08T09:00:00	6	Velocidad del viento	1.6
186754	7	Sololá	712	San Antonio Palopó	9	San Antonio Palopo	8	Agosto	2023-04-08T00:00:00	2024-11-08T09:00:00	7	Dirección del viento	1.61
186755	7	Sololá	712	San Antonio Palopó	9	San Antonio Palopo	8	Agosto	2023-04-08T00:00:00	2024-11-08T09:00:00	1	Precipitación	0
186756	7	Sololá	712	San Antonio Palopó	9	San Antonio Palopo	8	Agosto	2023-04-08T00:00:00	2024-11-08T09:00:00	8	Radiación solar	317
186757	7	Sololá	712	San Antonio Palopó	9	San Antonio Palopo	8	Agosto	2023-04-08T00:00:00	2024-11-08T10:00:00	2	Temperatura media	22.2
186758	7	Sololá	712	San Antonio Palopó	9	San Antonio Palopo	8	Agosto	2023-04-08T00:00:00	2024-11-08T10:00:00	4	Temperatura máxima	22.8
186759	7	Sololá	712	San Antonio Palopó	9	San Antonio Palopo	8	Agosto	2023-04-08T00:00:00	2024-11-08T10:00:00	3	Temperatura mínima	21.1
186760	7	Sololá	712	San Antonio Palopó	9	San Antonio Palopo	8	Agosto	2023-04-08T00:00:00	2024-11-08T10:00:00	5	Humedad	73
186761	7	Sololá	712	San Antonio Palopó	9	San Antonio Palopo	8	Agosto	2023-04-08T00:00:00	2024-11-08T10:00:00	6	Velocidad del viento	1.6
186762	7	Sololá	712	San Antonio Palopó	9	San Antonio Palopo	8	Agosto	2023-04-08T00:00:00	2024-11-08T10:00:00	7	Dirección del viento	1.61
186763	7	Sololá	712	San Antonio Palopó	9	San Antonio Palopo	8	Agosto	2023-04-08T00:00:00	2024-11-08T10:00:00	1	Precipitación	0
186764	7	Sololá	712	San Antonio Palopó	9	San Antonio Palopo	8	Agosto	2023-04-08T00:00:00	2024-11-08T10:00:00	8	Radiación solar	514
186765	7	Sololá	712	San Antonio Palopó	9	San Antonio Palopo	8	Agosto	2023-04-08T00:00:00	2024-11-08T11:00:00	2	Temperatura media	22.4
186766	7	Sololá	712	San Antonio Palopó	9	San Antonio Palopo	8	Agosto	2023-04-08T00:00:00	2024-11-08T11:00:00	4	Temperatura máxima	22.9
186767	7	Sololá	712	San Antonio Palopó	9	San Antonio Palopo	8	Agosto	2023-04-08T00:00:00	2024-11-08T11:00:00	3	Temperatura mínima	22
186768	7	Sololá	712	San Antonio Palopó	9	San Antonio Palopo	8	Agosto	2023-04-08T00:00:00	2024-11-08T11:00:00	5	Humedad	73
186769	7	Sololá	712	San Antonio Palopó	9	San Antonio Palopo	8	Agosto	2023-04-08T00:00:00	2024-11-08T11:00:00	6	Velocidad del viento	4.8
186770	7	Sololá	712	San Antonio Palopó	9	San Antonio Palopo	8	Agosto	2023-04-08T00:00:00	2024-11-08T11:00:00	7	Dirección del viento	4.83
186771	7	Sololá	712	San Antonio Palopó	9	San Antonio Palopo	8	Agosto	2023-04-08T00:00:00	2024-11-08T11:00:00	1	Precipitación	0
186772	7	Sololá	712	San Antonio Palopó	9	San Antonio Palopo	8	Agosto	2023-04-08T00:00:00	2024-11-08T11:00:00	8	Radiación solar	656
186773	7	Sololá	712	San Antonio Palopó	9	San Antonio Palopo	8	Agosto	2023-04-08T00:00:00	2024-11-08T12:00:00	2	Temperatura media	24.4
186774	7	Sololá	712	San Antonio Palopó	9	San Antonio Palopo	8	Agosto	2023-04-08T00:00:00	2024-11-08T12:00:00	4	Temperatura máxima	24.4
186775	7	Sololá	712	San Antonio Palopó	9	San Antonio Palopo	8	Agosto	2023-04-08T00:00:00	2024-11-08T12:00:00	3	Temperatura mínima	22.3
186776	7	Sololá	712	San Antonio Palopó	9	San Antonio Palopo	8	Agosto	2023-04-08T00:00:00	2024-11-08T12:00:00	5	Humedad	68
186777	7	Sololá	712	San Antonio Palopó	9	San Antonio Palopo	8	Agosto	2023-04-08T00:00:00	2024-11-08T12:00:00	6	Velocidad del viento	6.4
186778	7	Sololá	712	San Antonio Palopó	9	San Antonio Palopo	8	Agosto	2023-04-08T00:00:00	2024-11-08T12:00:00	7	Dirección del viento	6.44
186779	7	Sololá	712	San Antonio Palopó	9	San Antonio Palopo	8	Agosto	2023-04-08T00:00:00	2024-11-08T12:00:00	1	Precipitación	0
186780	7	Sololá	712	San Antonio Palopó	9	San Antonio Palopo	8	Agosto	2023-04-08T00:00:00	2024-11-08T12:00:00	8	Radiación solar	950
186781	7	Sololá	712	San Antonio Palopó	9	San Antonio Palopo	8	Agosto	2023-04-08T00:00:00	2024-11-08T13:00:00	2	Temperatura media	25.6
186782	7	Sololá	712	San Antonio Palopó	9	San Antonio Palopo	8	Agosto	2023-04-08T00:00:00	2024-11-08T13:00:00	4	Temperatura máxima	26.5
186783	7	Sololá	712	San Antonio Palopó	9	San Antonio Palopo	8	Agosto	2023-04-08T00:00:00	2024-11-08T13:00:00	3	Temperatura mínima	23.6
186784	7	Sololá	712	San Antonio Palopó	9	San Antonio Palopo	8	Agosto	2023-04-08T00:00:00	2024-11-08T13:00:00	5	Humedad	72
186785	7	Sololá	712	San Antonio Palopó	9	San Antonio Palopo	8	Agosto	2023-04-08T00:00:00	2024-11-08T13:00:00	6	Velocidad del viento	9.7
186786	7	Sololá	712	San Antonio Palopó	9	San Antonio Palopo	8	Agosto	2023-04-08T00:00:00	2024-11-08T13:00:00	7	Dirección del viento	9.66
186787	7	Sololá	712	San Antonio Palopó	9	San Antonio Palopo	8	Agosto	2023-04-08T00:00:00	2024-11-08T13:00:00	1	Precipitación	0
186788	7	Sololá	712	San Antonio Palopó	9	San Antonio Palopo	8	Agosto	2023-04-08T00:00:00	2024-11-08T13:00:00	8	Radiación solar	1033
186789	7	Sololá	712	San Antonio Palopó	9	San Antonio Palopo	8	Agosto	2023-04-08T00:00:00	2024-11-08T14:00:00	2	Temperatura media	26.3
186790	7	Sololá	712	San Antonio Palopó	9	San Antonio Palopo	8	Agosto	2023-04-08T00:00:00	2024-11-08T14:00:00	4	Temperatura máxima	26.9
186791	7	Sololá	712	San Antonio Palopó	9	San Antonio Palopo	8	Agosto	2023-04-08T00:00:00	2024-11-08T14:00:00	3	Temperatura mínima	24.9
186792	7	Sololá	712	San Antonio Palopó	9	San Antonio Palopo	8	Agosto	2023-04-08T00:00:00	2024-11-08T14:00:00	5	Humedad	52
186793	7	Sololá	712	San Antonio Palopó	9	San Antonio Palopo	8	Agosto	2023-04-08T00:00:00	2024-11-08T14:00:00	6	Velocidad del viento	11.3
186794	7	Sololá	712	San Antonio Palopó	9	San Antonio Palopo	8	Agosto	2023-04-08T00:00:00	2024-11-08T14:00:00	7	Dirección del viento	11.27
186795	7	Sololá	712	San Antonio Palopó	9	San Antonio Palopo	8	Agosto	2023-04-08T00:00:00	2024-11-08T14:00:00	1	Precipitación	0
186796	7	Sololá	712	San Antonio Palopó	9	San Antonio Palopo	8	Agosto	2023-04-08T00:00:00	2024-11-08T14:00:00	8	Radiación solar	811
186797	7	Sololá	712	San Antonio Palopó	9	San Antonio Palopo	8	Agosto	2023-04-08T00:00:00	2024-11-08T15:00:00	2	Temperatura media	25.6
186798	7	Sololá	712	San Antonio Palopó	9	San Antonio Palopo	8	Agosto	2023-04-08T00:00:00	2024-11-08T15:00:00	4	Temperatura máxima	27.6
186799	7	Sololá	712	San Antonio Palopó	9	San Antonio Palopo	8	Agosto	2023-04-08T00:00:00	2024-11-08T15:00:00	3	Temperatura mínima	25.6
186800	7	Sololá	712	San Antonio Palopó	9	San Antonio Palopo	8	Agosto	2023-04-08T00:00:00	2024-11-08T15:00:00	5	Humedad	66
186801	7	Sololá	712	San Antonio Palopó	9	San Antonio Palopo	8	Agosto	2023-04-08T00:00:00	2024-11-08T15:00:00	6	Velocidad del viento	9.7
186802	7	Sololá	712	San Antonio Palopó	9	San Antonio Palopo	8	Agosto	2023-04-08T00:00:00	2024-11-08T15:00:00	7	Dirección del viento	9.66
186803	7	Sololá	712	San Antonio Palopó	9	San Antonio Palopo	8	Agosto	2023-04-08T00:00:00	2024-11-08T15:00:00	1	Precipitación	0
186804	7	Sololá	712	San Antonio Palopó	9	San Antonio Palopo	8	Agosto	2023-04-08T00:00:00	2024-11-08T15:00:00	8	Radiación solar	609
186805	7	Sololá	712	San Antonio Palopó	9	San Antonio Palopo	8	Agosto	2023-04-08T00:00:00	2024-11-08T16:00:00	2	Temperatura media	24.3
186806	7	Sololá	712	San Antonio Palopó	9	San Antonio Palopo	8	Agosto	2023-04-08T00:00:00	2024-11-08T16:00:00	4	Temperatura máxima	26.1
186807	7	Sololá	712	San Antonio Palopó	9	San Antonio Palopo	8	Agosto	2023-04-08T00:00:00	2024-11-08T16:00:00	3	Temperatura mínima	24.2
186808	7	Sololá	712	San Antonio Palopó	9	San Antonio Palopo	8	Agosto	2023-04-08T00:00:00	2024-11-08T16:00:00	5	Humedad	72
186809	7	Sololá	712	San Antonio Palopó	9	San Antonio Palopo	8	Agosto	2023-04-08T00:00:00	2024-11-08T16:00:00	6	Velocidad del viento	14.5
186810	7	Sololá	712	San Antonio Palopó	9	San Antonio Palopo	8	Agosto	2023-04-08T00:00:00	2024-11-08T16:00:00	7	Dirección del viento	14.48
186811	7	Sololá	712	San Antonio Palopó	9	San Antonio Palopo	8	Agosto	2023-04-08T00:00:00	2024-11-08T16:00:00	1	Precipitación	0
186812	7	Sololá	712	San Antonio Palopó	9	San Antonio Palopo	8	Agosto	2023-04-08T00:00:00	2024-11-08T16:00:00	8	Radiación solar	461
186813	7	Sololá	712	San Antonio Palopó	9	San Antonio Palopo	8	Agosto	2023-04-08T00:00:00	2024-11-08T17:00:00	2	Temperatura media	23
186814	7	Sololá	712	San Antonio Palopó	9	San Antonio Palopo	8	Agosto	2023-04-08T00:00:00	2024-11-08T17:00:00	4	Temperatura máxima	24.6
186815	7	Sololá	712	San Antonio Palopó	9	San Antonio Palopo	8	Agosto	2023-04-08T00:00:00	2024-11-08T17:00:00	3	Temperatura mínima	22.9
186816	7	Sololá	712	San Antonio Palopó	9	San Antonio Palopo	8	Agosto	2023-04-08T00:00:00	2024-11-08T17:00:00	5	Humedad	67
186817	7	Sololá	712	San Antonio Palopó	9	San Antonio Palopo	8	Agosto	2023-04-08T00:00:00	2024-11-08T17:00:00	6	Velocidad del viento	17.7
186818	7	Sololá	712	San Antonio Palopó	9	San Antonio Palopo	8	Agosto	2023-04-08T00:00:00	2024-11-08T17:00:00	7	Dirección del viento	17.7
186819	7	Sololá	712	San Antonio Palopó	9	San Antonio Palopo	8	Agosto	2023-04-08T00:00:00	2024-11-08T17:00:00	1	Precipitación	0
186820	7	Sololá	712	San Antonio Palopó	9	San Antonio Palopo	8	Agosto	2023-04-08T00:00:00	2024-11-08T17:00:00	8	Radiación solar	335
186821	7	Sololá	712	San Antonio Palopó	9	San Antonio Palopo	8	Agosto	2023-04-08T00:00:00	2024-11-08T18:00:00	2	Temperatura media	21.8
186822	7	Sololá	712	San Antonio Palopó	9	San Antonio Palopo	8	Agosto	2023-04-08T00:00:00	2024-11-08T18:00:00	4	Temperatura máxima	24.7
186823	7	Sololá	712	San Antonio Palopó	9	San Antonio Palopo	8	Agosto	2023-04-08T00:00:00	2024-11-08T18:00:00	3	Temperatura mínima	21.4
186824	7	Sololá	712	San Antonio Palopó	9	San Antonio Palopo	8	Agosto	2023-04-08T00:00:00	2024-11-08T18:00:00	5	Humedad	70
186825	7	Sololá	712	San Antonio Palopó	9	San Antonio Palopo	8	Agosto	2023-04-08T00:00:00	2024-11-08T18:00:00	6	Velocidad del viento	8
186826	7	Sololá	712	San Antonio Palopó	9	San Antonio Palopo	8	Agosto	2023-04-08T00:00:00	2024-11-08T18:00:00	7	Dirección del viento	8.05
186827	7	Sololá	712	San Antonio Palopó	9	San Antonio Palopo	8	Agosto	2023-04-08T00:00:00	2024-11-08T18:00:00	1	Precipitación	0
186828	7	Sololá	712	San Antonio Palopó	9	San Antonio Palopo	8	Agosto	2023-04-08T00:00:00	2024-11-08T18:00:00	8	Radiación solar	130
186829	7	Sololá	712	San Antonio Palopó	9	San Antonio Palopo	8	Agosto	2023-04-08T00:00:00	2024-11-08T19:00:00	2	Temperatura media	21.2
186830	7	Sololá	712	San Antonio Palopó	9	San Antonio Palopo	8	Agosto	2023-04-08T00:00:00	2024-11-08T19:00:00	4	Temperatura máxima	21.9
186831	7	Sololá	712	San Antonio Palopó	9	San Antonio Palopo	8	Agosto	2023-04-08T00:00:00	2024-11-08T19:00:00	3	Temperatura mínima	21.2
186832	7	Sololá	712	San Antonio Palopó	9	San Antonio Palopo	8	Agosto	2023-04-08T00:00:00	2024-11-08T19:00:00	5	Humedad	74
186833	7	Sololá	712	San Antonio Palopó	9	San Antonio Palopo	8	Agosto	2023-04-08T00:00:00	2024-11-08T19:00:00	6	Velocidad del viento	3.2
186834	7	Sololá	712	San Antonio Palopó	9	San Antonio Palopo	8	Agosto	2023-04-08T00:00:00	2024-11-08T19:00:00	7	Dirección del viento	3.22
186835	7	Sololá	712	San Antonio Palopó	9	San Antonio Palopo	8	Agosto	2023-04-08T00:00:00	2024-11-08T19:00:00	1	Precipitación	0
186836	7	Sololá	712	San Antonio Palopó	9	San Antonio Palopo	8	Agosto	2023-04-08T00:00:00	2024-11-08T19:00:00	8	Radiación solar	0
186837	7	Sololá	712	San Antonio Palopó	9	San Antonio Palopo	8	Agosto	2023-04-08T00:00:00	2024-11-08T20:00:00	2	Temperatura media	20.9
186838	7	Sololá	712	San Antonio Palopó	9	San Antonio Palopo	8	Agosto	2023-04-08T00:00:00	2024-11-08T20:00:00	4	Temperatura máxima	21.4
186839	7	Sololá	712	San Antonio Palopó	9	San Antonio Palopo	8	Agosto	2023-04-08T00:00:00	2024-11-08T20:00:00	3	Temperatura mínima	20.8
186840	7	Sololá	712	San Antonio Palopó	9	San Antonio Palopo	8	Agosto	2023-04-08T00:00:00	2024-11-08T20:00:00	5	Humedad	74
186841	7	Sololá	712	San Antonio Palopó	9	San Antonio Palopo	8	Agosto	2023-04-08T00:00:00	2024-11-08T20:00:00	6	Velocidad del viento	1.6
186842	7	Sololá	712	San Antonio Palopó	9	San Antonio Palopo	8	Agosto	2023-04-08T00:00:00	2024-11-08T20:00:00	7	Dirección del viento	1.61
186843	7	Sololá	712	San Antonio Palopó	9	San Antonio Palopo	8	Agosto	2023-04-08T00:00:00	2024-11-08T20:00:00	1	Precipitación	0
186844	7	Sololá	712	San Antonio Palopó	9	San Antonio Palopo	8	Agosto	2023-04-08T00:00:00	2024-11-08T20:00:00	8	Radiación solar	0
186845	7	Sololá	712	San Antonio Palopó	9	San Antonio Palopo	8	Agosto	2023-04-08T00:00:00	2024-11-08T21:00:00	2	Temperatura media	20.6
186846	7	Sololá	712	San Antonio Palopó	9	San Antonio Palopo	8	Agosto	2023-04-08T00:00:00	2024-11-08T21:00:00	4	Temperatura máxima	21.2
186847	7	Sololá	712	San Antonio Palopó	9	San Antonio Palopo	8	Agosto	2023-04-08T00:00:00	2024-11-08T21:00:00	3	Temperatura mínima	20.4
186848	7	Sololá	712	San Antonio Palopó	9	San Antonio Palopo	8	Agosto	2023-04-08T00:00:00	2024-11-08T21:00:00	5	Humedad	75
186849	7	Sololá	712	San Antonio Palopó	9	San Antonio Palopo	8	Agosto	2023-04-08T00:00:00	2024-11-08T21:00:00	6	Velocidad del viento	1.6
186850	7	Sololá	712	San Antonio Palopó	9	San Antonio Palopo	8	Agosto	2023-04-08T00:00:00	2024-11-08T21:00:00	7	Dirección del viento	1.61
186851	7	Sololá	712	San Antonio Palopó	9	San Antonio Palopo	8	Agosto	2023-04-08T00:00:00	2024-11-08T21:00:00	1	Precipitación	0
186852	7	Sololá	712	San Antonio Palopó	9	San Antonio Palopo	8	Agosto	2023-04-08T00:00:00	2024-11-08T21:00:00	8	Radiación solar	0
186853	7	Sololá	712	San Antonio Palopó	9	San Antonio Palopo	8	Agosto	2023-04-08T00:00:00	2024-11-08T22:00:00	2	Temperatura media	19.7
186854	7	Sololá	712	San Antonio Palopó	9	San Antonio Palopo	8	Agosto	2023-04-08T00:00:00	2024-11-08T22:00:00	4	Temperatura máxima	20.7
186855	7	Sololá	712	San Antonio Palopó	9	San Antonio Palopo	8	Agosto	2023-04-08T00:00:00	2024-11-08T22:00:00	3	Temperatura mínima	19.7
186856	7	Sololá	712	San Antonio Palopó	9	San Antonio Palopo	8	Agosto	2023-04-08T00:00:00	2024-11-08T22:00:00	5	Humedad	77
186857	7	Sololá	712	San Antonio Palopó	9	San Antonio Palopo	8	Agosto	2023-04-08T00:00:00	2024-11-08T22:00:00	6	Velocidad del viento	3.2
186858	7	Sololá	712	San Antonio Palopó	9	San Antonio Palopo	8	Agosto	2023-04-08T00:00:00	2024-11-08T22:00:00	7	Dirección del viento	3.22
186859	7	Sololá	712	San Antonio Palopó	9	San Antonio Palopo	8	Agosto	2023-04-08T00:00:00	2024-11-08T22:00:00	1	Precipitación	0
186860	7	Sololá	712	San Antonio Palopó	9	San Antonio Palopo	8	Agosto	2023-04-08T00:00:00	2024-11-08T22:00:00	8	Radiación solar	0
186861	7	Sololá	712	San Antonio Palopó	9	San Antonio Palopo	8	Agosto	2023-04-08T00:00:00	2024-11-08T23:00:00	2	Temperatura media	20.7
186862	7	Sololá	712	San Antonio Palopó	9	San Antonio Palopo	8	Agosto	2023-04-08T00:00:00	2024-11-08T23:00:00	4	Temperatura máxima	20.8
186863	7	Sololá	712	San Antonio Palopó	9	San Antonio Palopo	8	Agosto	2023-04-08T00:00:00	2024-11-08T23:00:00	3	Temperatura mínima	19.7
186864	7	Sololá	712	San Antonio Palopó	9	San Antonio Palopo	8	Agosto	2023-04-08T00:00:00	2024-11-08T23:00:00	5	Humedad	74
186865	7	Sololá	712	San Antonio Palopó	9	San Antonio Palopo	8	Agosto	2023-04-08T00:00:00	2024-11-08T23:00:00	6	Velocidad del viento	3.2
186866	7	Sololá	712	San Antonio Palopó	9	San Antonio Palopo	8	Agosto	2023-04-08T00:00:00	2024-11-08T23:00:00	7	Dirección del viento	3.22
186867	7	Sololá	712	San Antonio Palopó	9	San Antonio Palopo	8	Agosto	2023-04-08T00:00:00	2024-11-08T23:00:00	1	Precipitación	0
186868	7	Sololá	712	San Antonio Palopó	9	San Antonio Palopo	8	Agosto	2023-04-08T00:00:00	2024-11-08T23:00:00	8	Radiación solar	0
186869	7	Sololá	712	San Antonio Palopó	9	San Antonio Palopo	8	Agosto	2023-05-08T00:00:00	2024-11-08T00:00:00	2	Temperatura media	20.1
186870	7	Sololá	712	San Antonio Palopó	9	San Antonio Palopo	8	Agosto	2023-05-08T00:00:00	2024-11-08T00:00:00	4	Temperatura máxima	20.8
186871	7	Sololá	712	San Antonio Palopó	9	San Antonio Palopo	8	Agosto	2023-05-08T00:00:00	2024-11-08T00:00:00	3	Temperatura mínima	20.1
186872	7	Sololá	712	San Antonio Palopó	9	San Antonio Palopo	8	Agosto	2023-05-08T00:00:00	2024-11-08T00:00:00	5	Humedad	75
186873	7	Sololá	712	San Antonio Palopó	9	San Antonio Palopo	8	Agosto	2023-05-08T00:00:00	2024-11-08T00:00:00	6	Velocidad del viento	8
186874	7	Sololá	712	San Antonio Palopó	9	San Antonio Palopo	8	Agosto	2023-05-08T00:00:00	2024-11-08T00:00:00	7	Dirección del viento	8.05
186875	7	Sololá	712	San Antonio Palopó	9	San Antonio Palopo	8	Agosto	2023-05-08T00:00:00	2024-11-08T00:00:00	1	Precipitación	0
186876	7	Sololá	712	San Antonio Palopó	9	San Antonio Palopo	8	Agosto	2023-05-08T00:00:00	2024-11-08T00:00:00	8	Radiación solar	0
186877	7	Sololá	712	San Antonio Palopó	9	San Antonio Palopo	8	Agosto	2023-05-08T00:00:00	2024-11-08T01:00:00	2	Temperatura media	20.3
186878	7	Sololá	712	San Antonio Palopó	9	San Antonio Palopo	8	Agosto	2023-05-08T00:00:00	2024-11-08T01:00:00	4	Temperatura máxima	20.3
186879	7	Sololá	712	San Antonio Palopó	9	San Antonio Palopo	8	Agosto	2023-05-08T00:00:00	2024-11-08T01:00:00	3	Temperatura mínima	20
186880	7	Sololá	712	San Antonio Palopó	9	San Antonio Palopo	8	Agosto	2023-05-08T00:00:00	2024-11-08T01:00:00	5	Humedad	74
186881	7	Sololá	712	San Antonio Palopó	9	San Antonio Palopo	8	Agosto	2023-05-08T00:00:00	2024-11-08T01:00:00	6	Velocidad del viento	11.3
186882	7	Sololá	712	San Antonio Palopó	9	San Antonio Palopo	8	Agosto	2023-05-08T00:00:00	2024-11-08T01:00:00	7	Dirección del viento	11.27
186883	7	Sololá	712	San Antonio Palopó	9	San Antonio Palopo	8	Agosto	2023-05-08T00:00:00	2024-11-08T01:00:00	1	Precipitación	0
186884	7	Sololá	712	San Antonio Palopó	9	San Antonio Palopo	8	Agosto	2023-05-08T00:00:00	2024-11-08T01:00:00	8	Radiación solar	0
186885	7	Sololá	712	San Antonio Palopó	9	San Antonio Palopo	8	Agosto	2023-05-08T00:00:00	2024-11-08T02:00:00	2	Temperatura media	19.9
186886	7	Sololá	712	San Antonio Palopó	9	San Antonio Palopo	8	Agosto	2023-05-08T00:00:00	2024-11-08T02:00:00	4	Temperatura máxima	20.3
186887	7	Sololá	712	San Antonio Palopó	9	San Antonio Palopo	8	Agosto	2023-05-08T00:00:00	2024-11-08T02:00:00	3	Temperatura mínima	19.7
186888	7	Sololá	712	San Antonio Palopó	9	San Antonio Palopo	8	Agosto	2023-05-08T00:00:00	2024-11-08T02:00:00	5	Humedad	76
186889	7	Sololá	712	San Antonio Palopó	9	San Antonio Palopo	8	Agosto	2023-05-08T00:00:00	2024-11-08T02:00:00	6	Velocidad del viento	6.4
186890	7	Sololá	712	San Antonio Palopó	9	San Antonio Palopo	8	Agosto	2023-05-08T00:00:00	2024-11-08T02:00:00	7	Dirección del viento	6.44
186891	7	Sololá	712	San Antonio Palopó	9	San Antonio Palopo	8	Agosto	2023-05-08T00:00:00	2024-11-08T02:00:00	1	Precipitación	0
186892	7	Sololá	712	San Antonio Palopó	9	San Antonio Palopo	8	Agosto	2023-05-08T00:00:00	2024-11-08T02:00:00	8	Radiación solar	0
186893	7	Sololá	712	San Antonio Palopó	9	San Antonio Palopo	8	Agosto	2023-05-08T00:00:00	2024-11-08T03:00:00	2	Temperatura media	19.6
186894	7	Sololá	712	San Antonio Palopó	9	San Antonio Palopo	8	Agosto	2023-05-08T00:00:00	2024-11-08T03:00:00	4	Temperatura máxima	20.2
186895	7	Sololá	712	San Antonio Palopó	9	San Antonio Palopo	8	Agosto	2023-05-08T00:00:00	2024-11-08T03:00:00	3	Temperatura mínima	19.5
186896	7	Sololá	712	San Antonio Palopó	9	San Antonio Palopo	8	Agosto	2023-05-08T00:00:00	2024-11-08T03:00:00	5	Humedad	74
186897	7	Sololá	712	San Antonio Palopó	9	San Antonio Palopo	8	Agosto	2023-05-08T00:00:00	2024-11-08T03:00:00	6	Velocidad del viento	12.9
186898	7	Sololá	712	San Antonio Palopó	9	San Antonio Palopo	8	Agosto	2023-05-08T00:00:00	2024-11-08T03:00:00	7	Dirección del viento	12.87
186899	7	Sololá	712	San Antonio Palopó	9	San Antonio Palopo	8	Agosto	2023-05-08T00:00:00	2024-11-08T03:00:00	1	Precipitación	0
186900	7	Sololá	712	San Antonio Palopó	9	San Antonio Palopo	8	Agosto	2023-05-08T00:00:00	2024-11-08T03:00:00	8	Radiación solar	0
186901	7	Sololá	712	San Antonio Palopó	9	San Antonio Palopo	8	Agosto	2023-05-08T00:00:00	2024-11-08T04:00:00	2	Temperatura media	19.6
186902	7	Sololá	712	San Antonio Palopó	9	San Antonio Palopo	8	Agosto	2023-05-08T00:00:00	2024-11-08T04:00:00	4	Temperatura máxima	19.6
186903	7	Sololá	712	San Antonio Palopó	9	San Antonio Palopo	8	Agosto	2023-05-08T00:00:00	2024-11-08T04:00:00	3	Temperatura mínima	19.2
186904	7	Sololá	712	San Antonio Palopó	9	San Antonio Palopo	8	Agosto	2023-05-08T00:00:00	2024-11-08T04:00:00	5	Humedad	73
186905	7	Sololá	712	San Antonio Palopó	9	San Antonio Palopo	8	Agosto	2023-05-08T00:00:00	2024-11-08T04:00:00	6	Velocidad del viento	8
186906	7	Sololá	712	San Antonio Palopó	9	San Antonio Palopo	8	Agosto	2023-05-08T00:00:00	2024-11-08T04:00:00	7	Dirección del viento	8.05
186907	7	Sololá	712	San Antonio Palopó	9	San Antonio Palopo	8	Agosto	2023-05-08T00:00:00	2024-11-08T04:00:00	1	Precipitación	0
186908	7	Sololá	712	San Antonio Palopó	9	San Antonio Palopo	8	Agosto	2023-05-08T00:00:00	2024-11-08T04:00:00	8	Radiación solar	0
186909	7	Sololá	712	San Antonio Palopó	9	San Antonio Palopo	8	Agosto	2023-05-08T00:00:00	2024-11-08T05:00:00	2	Temperatura media	19
186910	7	Sololá	712	San Antonio Palopó	9	San Antonio Palopo	8	Agosto	2023-05-08T00:00:00	2024-11-08T05:00:00	4	Temperatura máxima	19.6
186911	7	Sololá	712	San Antonio Palopó	9	San Antonio Palopo	8	Agosto	2023-05-08T00:00:00	2024-11-08T05:00:00	3	Temperatura mínima	19
186912	7	Sololá	712	San Antonio Palopó	9	San Antonio Palopo	8	Agosto	2023-05-08T00:00:00	2024-11-08T05:00:00	5	Humedad	76
186913	7	Sololá	712	San Antonio Palopó	9	San Antonio Palopo	8	Agosto	2023-05-08T00:00:00	2024-11-08T05:00:00	6	Velocidad del viento	4.8
186914	7	Sololá	712	San Antonio Palopó	9	San Antonio Palopo	8	Agosto	2023-05-08T00:00:00	2024-11-08T05:00:00	7	Dirección del viento	4.83
186915	7	Sololá	712	San Antonio Palopó	9	San Antonio Palopo	8	Agosto	2023-05-08T00:00:00	2024-11-08T05:00:00	1	Precipitación	0
186916	7	Sololá	712	San Antonio Palopó	9	San Antonio Palopo	8	Agosto	2023-05-08T00:00:00	2024-11-08T05:00:00	8	Radiación solar	0
186917	7	Sololá	712	San Antonio Palopó	9	San Antonio Palopo	8	Agosto	2023-05-08T00:00:00	2024-11-08T06:00:00	2	Temperatura media	19.1
186918	7	Sololá	712	San Antonio Palopó	9	San Antonio Palopo	8	Agosto	2023-05-08T00:00:00	2024-11-08T06:00:00	4	Temperatura máxima	20.2
186919	7	Sololá	712	San Antonio Palopó	9	San Antonio Palopo	8	Agosto	2023-05-08T00:00:00	2024-11-08T06:00:00	3	Temperatura mínima	19
186920	7	Sololá	712	San Antonio Palopó	9	San Antonio Palopo	8	Agosto	2023-05-08T00:00:00	2024-11-08T06:00:00	5	Humedad	75
186921	7	Sololá	712	San Antonio Palopó	9	San Antonio Palopo	8	Agosto	2023-05-08T00:00:00	2024-11-08T06:00:00	6	Velocidad del viento	4.8
186922	7	Sololá	712	San Antonio Palopó	9	San Antonio Palopo	8	Agosto	2023-05-08T00:00:00	2024-11-08T06:00:00	7	Dirección del viento	4.83
186923	7	Sololá	712	San Antonio Palopó	9	San Antonio Palopo	8	Agosto	2023-05-08T00:00:00	2024-11-08T06:00:00	1	Precipitación	0
186924	7	Sololá	712	San Antonio Palopó	9	San Antonio Palopo	8	Agosto	2023-05-08T00:00:00	2024-11-08T06:00:00	8	Radiación solar	1
186925	7	Sololá	712	San Antonio Palopó	9	San Antonio Palopo	8	Agosto	2023-05-08T00:00:00	2024-11-08T07:00:00	2	Temperatura media	20.1
186926	7	Sololá	712	San Antonio Palopó	9	San Antonio Palopo	8	Agosto	2023-05-08T00:00:00	2024-11-08T07:00:00	4	Temperatura máxima	20.7
186927	7	Sololá	712	San Antonio Palopó	9	San Antonio Palopo	8	Agosto	2023-05-08T00:00:00	2024-11-08T07:00:00	3	Temperatura mínima	19.1
186928	7	Sololá	712	San Antonio Palopó	9	San Antonio Palopo	8	Agosto	2023-05-08T00:00:00	2024-11-08T07:00:00	5	Humedad	73
186929	7	Sololá	712	San Antonio Palopó	9	San Antonio Palopo	8	Agosto	2023-05-08T00:00:00	2024-11-08T07:00:00	6	Velocidad del viento	9.7
186930	7	Sololá	712	San Antonio Palopó	9	San Antonio Palopo	8	Agosto	2023-05-08T00:00:00	2024-11-08T07:00:00	7	Dirección del viento	9.66
186931	7	Sololá	712	San Antonio Palopó	9	San Antonio Palopo	8	Agosto	2023-05-08T00:00:00	2024-11-08T07:00:00	1	Precipitación	0
186932	7	Sololá	712	San Antonio Palopó	9	San Antonio Palopo	8	Agosto	2023-05-08T00:00:00	2024-11-08T07:00:00	8	Radiación solar	32
186933	7	Sololá	712	San Antonio Palopó	9	San Antonio Palopo	8	Agosto	2023-05-08T00:00:00	2024-11-08T08:00:00	2	Temperatura media	21.8
186934	7	Sololá	712	San Antonio Palopó	9	San Antonio Palopo	8	Agosto	2023-05-08T00:00:00	2024-11-08T08:00:00	4	Temperatura máxima	21.9
186935	7	Sololá	712	San Antonio Palopó	9	San Antonio Palopo	8	Agosto	2023-05-08T00:00:00	2024-11-08T08:00:00	3	Temperatura mínima	20.1
186936	7	Sololá	712	San Antonio Palopó	9	San Antonio Palopo	8	Agosto	2023-05-08T00:00:00	2024-11-08T08:00:00	5	Humedad	68
186937	7	Sololá	712	San Antonio Palopó	9	San Antonio Palopo	8	Agosto	2023-05-08T00:00:00	2024-11-08T08:00:00	6	Velocidad del viento	6.4
186938	7	Sololá	712	San Antonio Palopó	9	San Antonio Palopo	8	Agosto	2023-05-08T00:00:00	2024-11-08T08:00:00	7	Dirección del viento	6.44
186939	7	Sololá	712	San Antonio Palopó	9	San Antonio Palopo	8	Agosto	2023-05-08T00:00:00	2024-11-08T08:00:00	1	Precipitación	0
186940	7	Sololá	712	San Antonio Palopó	9	San Antonio Palopo	8	Agosto	2023-05-08T00:00:00	2024-11-08T08:00:00	8	Radiación solar	162
186941	7	Sololá	712	San Antonio Palopó	9	San Antonio Palopo	8	Agosto	2023-05-08T00:00:00	2024-11-08T09:00:00	2	Temperatura media	23.9
186942	7	Sololá	712	San Antonio Palopó	9	San Antonio Palopo	8	Agosto	2023-05-08T00:00:00	2024-11-08T09:00:00	4	Temperatura máxima	23.9
186943	7	Sololá	712	San Antonio Palopó	9	San Antonio Palopo	8	Agosto	2023-05-08T00:00:00	2024-11-08T09:00:00	3	Temperatura mínima	21.8
186944	7	Sololá	712	San Antonio Palopó	9	San Antonio Palopo	8	Agosto	2023-05-08T00:00:00	2024-11-08T09:00:00	5	Humedad	63
186945	7	Sololá	712	San Antonio Palopó	9	San Antonio Palopo	8	Agosto	2023-05-08T00:00:00	2024-11-08T09:00:00	6	Velocidad del viento	6.4
186946	7	Sololá	712	San Antonio Palopó	9	San Antonio Palopo	8	Agosto	2023-05-08T00:00:00	2024-11-08T09:00:00	7	Dirección del viento	6.44
186947	7	Sololá	712	San Antonio Palopó	9	San Antonio Palopo	8	Agosto	2023-05-08T00:00:00	2024-11-08T09:00:00	1	Precipitación	0
186948	7	Sololá	712	San Antonio Palopó	9	San Antonio Palopo	8	Agosto	2023-05-08T00:00:00	2024-11-08T09:00:00	8	Radiación solar	492
186949	7	Sololá	712	San Antonio Palopó	9	San Antonio Palopo	8	Agosto	2023-05-08T00:00:00	2024-11-08T10:00:00	2	Temperatura media	23.9
186950	7	Sololá	712	San Antonio Palopó	9	San Antonio Palopo	8	Agosto	2023-05-08T00:00:00	2024-11-08T10:00:00	4	Temperatura máxima	24
186951	7	Sololá	712	San Antonio Palopó	9	San Antonio Palopo	8	Agosto	2023-05-08T00:00:00	2024-11-08T10:00:00	3	Temperatura mínima	22.9
186952	7	Sololá	712	San Antonio Palopó	9	San Antonio Palopo	8	Agosto	2023-05-08T00:00:00	2024-11-08T10:00:00	5	Humedad	68
186953	7	Sololá	712	San Antonio Palopó	9	San Antonio Palopo	8	Agosto	2023-05-08T00:00:00	2024-11-08T10:00:00	6	Velocidad del viento	4.8
186954	7	Sololá	712	San Antonio Palopó	9	San Antonio Palopo	8	Agosto	2023-05-08T00:00:00	2024-11-08T10:00:00	7	Dirección del viento	4.83
186955	7	Sololá	712	San Antonio Palopó	9	San Antonio Palopo	8	Agosto	2023-05-08T00:00:00	2024-11-08T10:00:00	1	Precipitación	0
186956	7	Sololá	712	San Antonio Palopó	9	San Antonio Palopo	8	Agosto	2023-05-08T00:00:00	2024-11-08T10:00:00	8	Radiación solar	721
186957	7	Sololá	712	San Antonio Palopó	9	San Antonio Palopo	8	Agosto	2023-05-08T00:00:00	2024-11-08T11:00:00	2	Temperatura media	26.2
186958	7	Sololá	712	San Antonio Palopó	9	San Antonio Palopo	8	Agosto	2023-05-08T00:00:00	2024-11-08T11:00:00	4	Temperatura máxima	26.3
186959	7	Sololá	712	San Antonio Palopó	9	San Antonio Palopo	8	Agosto	2023-05-08T00:00:00	2024-11-08T11:00:00	3	Temperatura mínima	23.9
186960	7	Sololá	712	San Antonio Palopó	9	San Antonio Palopo	8	Agosto	2023-05-08T00:00:00	2024-11-08T11:00:00	5	Humedad	44
186961	7	Sololá	712	San Antonio Palopó	9	San Antonio Palopo	8	Agosto	2023-05-08T00:00:00	2024-11-08T11:00:00	6	Velocidad del viento	6.4
186962	7	Sololá	712	San Antonio Palopó	9	San Antonio Palopo	8	Agosto	2023-05-08T00:00:00	2024-11-08T11:00:00	7	Dirección del viento	6.44
186963	7	Sololá	712	San Antonio Palopó	9	San Antonio Palopo	8	Agosto	2023-05-08T00:00:00	2024-11-08T11:00:00	1	Precipitación	0
186964	7	Sololá	712	San Antonio Palopó	9	San Antonio Palopo	8	Agosto	2023-05-08T00:00:00	2024-11-08T11:00:00	8	Radiación solar	883
186965	7	Sololá	712	San Antonio Palopó	9	San Antonio Palopo	8	Agosto	2023-05-08T00:00:00	2024-11-08T12:00:00	2	Temperatura media	26.2
186966	7	Sololá	712	San Antonio Palopó	9	San Antonio Palopo	8	Agosto	2023-05-08T00:00:00	2024-11-08T12:00:00	4	Temperatura máxima	27.2
186967	7	Sololá	712	San Antonio Palopó	9	San Antonio Palopo	8	Agosto	2023-05-08T00:00:00	2024-11-08T12:00:00	3	Temperatura mínima	25.7
186968	7	Sololá	712	San Antonio Palopó	9	San Antonio Palopo	8	Agosto	2023-05-08T00:00:00	2024-11-08T12:00:00	5	Humedad	47
186969	7	Sololá	712	San Antonio Palopó	9	San Antonio Palopo	8	Agosto	2023-05-08T00:00:00	2024-11-08T12:00:00	6	Velocidad del viento	11.3
186970	7	Sololá	712	San Antonio Palopó	9	San Antonio Palopo	8	Agosto	2023-05-08T00:00:00	2024-11-08T12:00:00	7	Dirección del viento	11.27
186971	7	Sololá	712	San Antonio Palopó	9	San Antonio Palopo	8	Agosto	2023-05-08T00:00:00	2024-11-08T12:00:00	1	Precipitación	0
186972	7	Sololá	712	San Antonio Palopó	9	San Antonio Palopo	8	Agosto	2023-05-08T00:00:00	2024-11-08T12:00:00	8	Radiación solar	963
186973	7	Sololá	712	San Antonio Palopó	9	San Antonio Palopo	8	Agosto	2023-05-08T00:00:00	2024-11-08T13:00:00	2	Temperatura media	27.9
186974	7	Sololá	712	San Antonio Palopó	9	San Antonio Palopo	8	Agosto	2023-05-08T00:00:00	2024-11-08T13:00:00	4	Temperatura máxima	28.2
186975	7	Sololá	712	San Antonio Palopó	9	San Antonio Palopo	8	Agosto	2023-05-08T00:00:00	2024-11-08T13:00:00	3	Temperatura mínima	26.3
186976	7	Sololá	712	San Antonio Palopó	9	San Antonio Palopo	8	Agosto	2023-05-08T00:00:00	2024-11-08T13:00:00	5	Humedad	40
186977	7	Sololá	712	San Antonio Palopó	9	San Antonio Palopo	8	Agosto	2023-05-08T00:00:00	2024-11-08T13:00:00	6	Velocidad del viento	9.7
186978	7	Sololá	712	San Antonio Palopó	9	San Antonio Palopo	8	Agosto	2023-05-08T00:00:00	2024-11-08T13:00:00	7	Dirección del viento	9.66
186979	7	Sololá	712	San Antonio Palopó	9	San Antonio Palopo	8	Agosto	2023-05-08T00:00:00	2024-11-08T13:00:00	1	Precipitación	0
186980	7	Sololá	712	San Antonio Palopó	9	San Antonio Palopo	8	Agosto	2023-05-08T00:00:00	2024-11-08T13:00:00	8	Radiación solar	992
186981	7	Sololá	712	San Antonio Palopó	9	San Antonio Palopo	8	Agosto	2023-05-08T00:00:00	2024-11-08T14:00:00	2	Temperatura media	28.1
186982	7	Sololá	712	San Antonio Palopó	9	San Antonio Palopo	8	Agosto	2023-05-08T00:00:00	2024-11-08T14:00:00	4	Temperatura máxima	28.1
186983	7	Sololá	712	San Antonio Palopó	9	San Antonio Palopo	8	Agosto	2023-05-08T00:00:00	2024-11-08T14:00:00	3	Temperatura mínima	27.3
186984	7	Sololá	712	San Antonio Palopó	9	San Antonio Palopo	8	Agosto	2023-05-08T00:00:00	2024-11-08T14:00:00	5	Humedad	38
186985	7	Sololá	712	San Antonio Palopó	9	San Antonio Palopo	8	Agosto	2023-05-08T00:00:00	2024-11-08T14:00:00	6	Velocidad del viento	9.7
186986	7	Sololá	712	San Antonio Palopó	9	San Antonio Palopo	8	Agosto	2023-05-08T00:00:00	2024-11-08T14:00:00	7	Dirección del viento	9.66
186987	7	Sololá	712	San Antonio Palopó	9	San Antonio Palopo	8	Agosto	2023-05-08T00:00:00	2024-11-08T14:00:00	1	Precipitación	0
186988	7	Sololá	712	San Antonio Palopó	9	San Antonio Palopo	8	Agosto	2023-05-08T00:00:00	2024-11-08T14:00:00	8	Radiación solar	898
186989	7	Sololá	712	San Antonio Palopó	9	San Antonio Palopo	8	Agosto	2023-05-08T00:00:00	2024-11-08T15:00:00	2	Temperatura media	28.1
186990	7	Sololá	712	San Antonio Palopó	9	San Antonio Palopo	8	Agosto	2023-05-08T00:00:00	2024-11-08T15:00:00	4	Temperatura máxima	28.6
186991	7	Sololá	712	San Antonio Palopó	9	San Antonio Palopo	8	Agosto	2023-05-08T00:00:00	2024-11-08T15:00:00	3	Temperatura mínima	27.7
186992	7	Sololá	712	San Antonio Palopó	9	San Antonio Palopo	8	Agosto	2023-05-08T00:00:00	2024-11-08T15:00:00	5	Humedad	35
186993	7	Sololá	712	San Antonio Palopó	9	San Antonio Palopo	8	Agosto	2023-05-08T00:00:00	2024-11-08T15:00:00	6	Velocidad del viento	9.7
186994	7	Sololá	712	San Antonio Palopó	9	San Antonio Palopo	8	Agosto	2023-05-08T00:00:00	2024-11-08T15:00:00	7	Dirección del viento	9.66
186995	7	Sololá	712	San Antonio Palopó	9	San Antonio Palopo	8	Agosto	2023-05-08T00:00:00	2024-11-08T15:00:00	1	Precipitación	0
186996	7	Sololá	712	San Antonio Palopó	9	San Antonio Palopo	8	Agosto	2023-05-08T00:00:00	2024-11-08T15:00:00	8	Radiación solar	785
186997	7	Sololá	712	San Antonio Palopó	9	San Antonio Palopo	8	Agosto	2023-05-08T00:00:00	2024-11-08T16:00:00	2	Temperatura media	28.3
186998	7	Sololá	712	San Antonio Palopó	9	San Antonio Palopo	8	Agosto	2023-05-08T00:00:00	2024-11-08T16:00:00	4	Temperatura máxima	28.6
186999	7	Sololá	712	San Antonio Palopó	9	San Antonio Palopo	8	Agosto	2023-05-08T00:00:00	2024-11-08T16:00:00	3	Temperatura mínima	27.7
187000	7	Sololá	712	San Antonio Palopó	9	San Antonio Palopo	8	Agosto	2023-05-08T00:00:00	2024-11-08T16:00:00	5	Humedad	38
187001	7	Sololá	712	San Antonio Palopó	9	San Antonio Palopo	8	Agosto	2023-05-08T00:00:00	2024-11-08T16:00:00	6	Velocidad del viento	9.7
187002	7	Sololá	712	San Antonio Palopó	9	San Antonio Palopo	8	Agosto	2023-05-08T00:00:00	2024-11-08T16:00:00	7	Dirección del viento	9.66
187003	7	Sololá	712	San Antonio Palopó	9	San Antonio Palopo	8	Agosto	2023-05-08T00:00:00	2024-11-08T16:00:00	1	Precipitación	0
187004	7	Sololá	712	San Antonio Palopó	9	San Antonio Palopo	8	Agosto	2023-05-08T00:00:00	2024-11-08T16:00:00	8	Radiación solar	590
187005	7	Sololá	712	San Antonio Palopó	9	San Antonio Palopo	8	Agosto	2023-05-08T00:00:00	2024-11-08T17:00:00	2	Temperatura media	27.5
187006	7	Sololá	712	San Antonio Palopó	9	San Antonio Palopo	8	Agosto	2023-05-08T00:00:00	2024-11-08T17:00:00	4	Temperatura máxima	28.7
187007	7	Sololá	712	San Antonio Palopó	9	San Antonio Palopo	8	Agosto	2023-05-08T00:00:00	2024-11-08T17:00:00	3	Temperatura mínima	27.1
187008	7	Sololá	712	San Antonio Palopó	9	San Antonio Palopo	8	Agosto	2023-05-08T00:00:00	2024-11-08T17:00:00	5	Humedad	49
187009	7	Sololá	712	San Antonio Palopó	9	San Antonio Palopo	8	Agosto	2023-05-08T00:00:00	2024-11-08T17:00:00	6	Velocidad del viento	8
187010	7	Sololá	712	San Antonio Palopó	9	San Antonio Palopo	8	Agosto	2023-05-08T00:00:00	2024-11-08T17:00:00	7	Dirección del viento	8.05
187011	7	Sololá	712	San Antonio Palopó	9	San Antonio Palopo	8	Agosto	2023-05-08T00:00:00	2024-11-08T17:00:00	1	Precipitación	0
187012	7	Sololá	712	San Antonio Palopó	9	San Antonio Palopo	8	Agosto	2023-05-08T00:00:00	2024-11-08T17:00:00	8	Radiación solar	391
187013	7	Sololá	712	San Antonio Palopó	9	San Antonio Palopo	8	Agosto	2023-05-08T00:00:00	2024-11-08T18:00:00	2	Temperatura media	26.2
187014	7	Sololá	712	San Antonio Palopó	9	San Antonio Palopo	8	Agosto	2023-05-08T00:00:00	2024-11-08T18:00:00	4	Temperatura máxima	27.7
187015	7	Sololá	712	San Antonio Palopó	9	San Antonio Palopo	8	Agosto	2023-05-08T00:00:00	2024-11-08T18:00:00	3	Temperatura mínima	26.2
187016	7	Sololá	712	San Antonio Palopó	9	San Antonio Palopo	8	Agosto	2023-05-08T00:00:00	2024-11-08T18:00:00	5	Humedad	60
187017	7	Sololá	712	San Antonio Palopó	9	San Antonio Palopo	8	Agosto	2023-05-08T00:00:00	2024-11-08T18:00:00	6	Velocidad del viento	8
187018	7	Sololá	712	San Antonio Palopó	9	San Antonio Palopo	8	Agosto	2023-05-08T00:00:00	2024-11-08T18:00:00	7	Dirección del viento	8.05
187019	7	Sololá	712	San Antonio Palopó	9	San Antonio Palopo	8	Agosto	2023-05-08T00:00:00	2024-11-08T18:00:00	1	Precipitación	0
187020	7	Sololá	712	San Antonio Palopó	9	San Antonio Palopo	8	Agosto	2023-05-08T00:00:00	2024-11-08T18:00:00	8	Radiación solar	140
187021	7	Sololá	712	San Antonio Palopó	9	San Antonio Palopo	8	Agosto	2023-05-08T00:00:00	2024-11-08T19:00:00	2	Temperatura media	24
187022	7	Sololá	712	San Antonio Palopó	9	San Antonio Palopo	8	Agosto	2023-05-08T00:00:00	2024-11-08T19:00:00	4	Temperatura máxima	26.3
187023	7	Sololá	712	San Antonio Palopó	9	San Antonio Palopo	8	Agosto	2023-05-08T00:00:00	2024-11-08T19:00:00	3	Temperatura mínima	24
187024	7	Sololá	712	San Antonio Palopó	9	San Antonio Palopo	8	Agosto	2023-05-08T00:00:00	2024-11-08T19:00:00	5	Humedad	61
187025	7	Sololá	712	San Antonio Palopó	9	San Antonio Palopo	8	Agosto	2023-05-08T00:00:00	2024-11-08T19:00:00	6	Velocidad del viento	6.4
187026	7	Sololá	712	San Antonio Palopó	9	San Antonio Palopo	8	Agosto	2023-05-08T00:00:00	2024-11-08T19:00:00	7	Dirección del viento	6.44
187027	7	Sololá	712	San Antonio Palopó	9	San Antonio Palopo	8	Agosto	2023-05-08T00:00:00	2024-11-08T19:00:00	1	Precipitación	0
187028	7	Sololá	712	San Antonio Palopó	9	San Antonio Palopo	8	Agosto	2023-05-08T00:00:00	2024-11-08T19:00:00	8	Radiación solar	0
187029	7	Sololá	712	San Antonio Palopó	9	San Antonio Palopo	8	Agosto	2023-05-08T00:00:00	2024-11-08T20:00:00	2	Temperatura media	22.9
187030	7	Sololá	712	San Antonio Palopó	9	San Antonio Palopo	8	Agosto	2023-05-08T00:00:00	2024-11-08T20:00:00	4	Temperatura máxima	24
187031	7	Sololá	712	San Antonio Palopó	9	San Antonio Palopo	8	Agosto	2023-05-08T00:00:00	2024-11-08T20:00:00	3	Temperatura mínima	22.9
187032	7	Sololá	712	San Antonio Palopó	9	San Antonio Palopo	8	Agosto	2023-05-08T00:00:00	2024-11-08T20:00:00	5	Humedad	65
187033	7	Sololá	712	San Antonio Palopó	9	San Antonio Palopo	8	Agosto	2023-05-08T00:00:00	2024-11-08T20:00:00	6	Velocidad del viento	12.9
187034	7	Sololá	712	San Antonio Palopó	9	San Antonio Palopo	8	Agosto	2023-05-08T00:00:00	2024-11-08T20:00:00	7	Dirección del viento	12.87
187035	7	Sololá	712	San Antonio Palopó	9	San Antonio Palopo	8	Agosto	2023-05-08T00:00:00	2024-11-08T20:00:00	1	Precipitación	0
187036	7	Sololá	712	San Antonio Palopó	9	San Antonio Palopo	8	Agosto	2023-05-08T00:00:00	2024-11-08T20:00:00	8	Radiación solar	0
187037	7	Sololá	712	San Antonio Palopó	9	San Antonio Palopo	8	Agosto	2023-05-08T00:00:00	2024-11-08T21:00:00	2	Temperatura media	22.4
187038	7	Sololá	712	San Antonio Palopó	9	San Antonio Palopo	8	Agosto	2023-05-08T00:00:00	2024-11-08T21:00:00	4	Temperatura máxima	22.9
187039	7	Sololá	712	San Antonio Palopó	9	San Antonio Palopo	8	Agosto	2023-05-08T00:00:00	2024-11-08T21:00:00	3	Temperatura mínima	22.4
187040	7	Sololá	712	San Antonio Palopó	9	San Antonio Palopo	8	Agosto	2023-05-08T00:00:00	2024-11-08T21:00:00	5	Humedad	67
187041	7	Sololá	712	San Antonio Palopó	9	San Antonio Palopo	8	Agosto	2023-05-08T00:00:00	2024-11-08T21:00:00	6	Velocidad del viento	17.7
187042	7	Sololá	712	San Antonio Palopó	9	San Antonio Palopo	8	Agosto	2023-05-08T00:00:00	2024-11-08T21:00:00	7	Dirección del viento	17.7
187043	7	Sololá	712	San Antonio Palopó	9	San Antonio Palopo	8	Agosto	2023-05-08T00:00:00	2024-11-08T21:00:00	1	Precipitación	0
187044	7	Sololá	712	San Antonio Palopó	9	San Antonio Palopo	8	Agosto	2023-05-08T00:00:00	2024-11-08T21:00:00	8	Radiación solar	0
187045	7	Sololá	712	San Antonio Palopó	9	San Antonio Palopo	8	Agosto	2023-05-08T00:00:00	2024-11-08T22:00:00	2	Temperatura media	21.7
187046	7	Sololá	712	San Antonio Palopó	9	San Antonio Palopo	8	Agosto	2023-05-08T00:00:00	2024-11-08T22:00:00	4	Temperatura máxima	22.4
187047	7	Sololá	712	San Antonio Palopó	9	San Antonio Palopo	8	Agosto	2023-05-08T00:00:00	2024-11-08T22:00:00	3	Temperatura mínima	21.6
187048	7	Sololá	712	San Antonio Palopó	9	San Antonio Palopo	8	Agosto	2023-05-08T00:00:00	2024-11-08T22:00:00	5	Humedad	69
187049	7	Sololá	712	San Antonio Palopó	9	San Antonio Palopo	8	Agosto	2023-05-08T00:00:00	2024-11-08T22:00:00	6	Velocidad del viento	19.3
187050	7	Sololá	712	San Antonio Palopó	9	San Antonio Palopo	8	Agosto	2023-05-08T00:00:00	2024-11-08T22:00:00	7	Dirección del viento	19.31
187051	7	Sololá	712	San Antonio Palopó	9	San Antonio Palopo	8	Agosto	2023-05-08T00:00:00	2024-11-08T22:00:00	1	Precipitación	0
187052	7	Sololá	712	San Antonio Palopó	9	San Antonio Palopo	8	Agosto	2023-05-08T00:00:00	2024-11-08T22:00:00	8	Radiación solar	0
187053	7	Sololá	712	San Antonio Palopó	9	San Antonio Palopo	8	Agosto	2023-05-08T00:00:00	2024-11-08T23:00:00	2	Temperatura media	20.7
187054	7	Sololá	712	San Antonio Palopó	9	San Antonio Palopo	8	Agosto	2023-05-08T00:00:00	2024-11-08T23:00:00	4	Temperatura máxima	21.7
187055	7	Sololá	712	San Antonio Palopó	9	San Antonio Palopo	8	Agosto	2023-05-08T00:00:00	2024-11-08T23:00:00	3	Temperatura mínima	20.7
187056	7	Sololá	712	San Antonio Palopó	9	San Antonio Palopo	8	Agosto	2023-05-08T00:00:00	2024-11-08T23:00:00	5	Humedad	72
187057	7	Sololá	712	San Antonio Palopó	9	San Antonio Palopo	8	Agosto	2023-05-08T00:00:00	2024-11-08T23:00:00	6	Velocidad del viento	16.1
187058	7	Sololá	712	San Antonio Palopó	9	San Antonio Palopo	8	Agosto	2023-05-08T00:00:00	2024-11-08T23:00:00	7	Dirección del viento	16.09
187059	7	Sololá	712	San Antonio Palopó	9	San Antonio Palopo	8	Agosto	2023-05-08T00:00:00	2024-11-08T23:00:00	1	Precipitación	0
187060	7	Sololá	712	San Antonio Palopó	9	San Antonio Palopo	8	Agosto	2023-05-08T00:00:00	2024-11-08T23:00:00	8	Radiación solar	0
187061	7	Sololá	712	San Antonio Palopó	9	San Antonio Palopo	8	Agosto	2023-06-08T00:00:00	2024-11-08T00:00:00	2	Temperatura media	20.2
187062	7	Sololá	712	San Antonio Palopó	9	San Antonio Palopo	8	Agosto	2023-06-08T00:00:00	2024-11-08T00:00:00	4	Temperatura máxima	20.7
187063	7	Sololá	712	San Antonio Palopó	9	San Antonio Palopo	8	Agosto	2023-06-08T00:00:00	2024-11-08T00:00:00	3	Temperatura mínima	20.1
187064	7	Sololá	712	San Antonio Palopó	9	San Antonio Palopo	8	Agosto	2023-06-08T00:00:00	2024-11-08T00:00:00	5	Humedad	71
187065	7	Sololá	712	San Antonio Palopó	9	San Antonio Palopo	8	Agosto	2023-06-08T00:00:00	2024-11-08T00:00:00	6	Velocidad del viento	17.7
187066	7	Sololá	712	San Antonio Palopó	9	San Antonio Palopo	8	Agosto	2023-06-08T00:00:00	2024-11-08T00:00:00	7	Dirección del viento	17.7
187067	7	Sololá	712	San Antonio Palopó	9	San Antonio Palopo	8	Agosto	2023-06-08T00:00:00	2024-11-08T00:00:00	1	Precipitación	0
187068	7	Sololá	712	San Antonio Palopó	9	San Antonio Palopo	8	Agosto	2023-06-08T00:00:00	2024-11-08T00:00:00	8	Radiación solar	0
187069	7	Sololá	712	San Antonio Palopó	9	San Antonio Palopo	8	Agosto	2023-06-08T00:00:00	2024-11-08T01:00:00	2	Temperatura media	19.7
187070	7	Sololá	712	San Antonio Palopó	9	San Antonio Palopo	8	Agosto	2023-06-08T00:00:00	2024-11-08T01:00:00	4	Temperatura máxima	20.2
187071	7	Sololá	712	San Antonio Palopó	9	San Antonio Palopo	8	Agosto	2023-06-08T00:00:00	2024-11-08T01:00:00	3	Temperatura mínima	19.7
187072	7	Sololá	712	San Antonio Palopó	9	San Antonio Palopo	8	Agosto	2023-06-08T00:00:00	2024-11-08T01:00:00	5	Humedad	70
187073	7	Sololá	712	San Antonio Palopó	9	San Antonio Palopo	8	Agosto	2023-06-08T00:00:00	2024-11-08T01:00:00	6	Velocidad del viento	12.9
187074	7	Sololá	712	San Antonio Palopó	9	San Antonio Palopo	8	Agosto	2023-06-08T00:00:00	2024-11-08T01:00:00	7	Dirección del viento	12.87
187075	7	Sololá	712	San Antonio Palopó	9	San Antonio Palopo	8	Agosto	2023-06-08T00:00:00	2024-11-08T01:00:00	1	Precipitación	0
187076	7	Sololá	712	San Antonio Palopó	9	San Antonio Palopo	8	Agosto	2023-06-08T00:00:00	2024-11-08T01:00:00	8	Radiación solar	0
187077	7	Sololá	712	San Antonio Palopó	9	San Antonio Palopo	8	Agosto	2023-06-08T00:00:00	2024-11-08T02:00:00	2	Temperatura media	19.8
187078	7	Sololá	712	San Antonio Palopó	9	San Antonio Palopo	8	Agosto	2023-06-08T00:00:00	2024-11-08T02:00:00	4	Temperatura máxima	20.1
187079	7	Sololá	712	San Antonio Palopó	9	San Antonio Palopo	8	Agosto	2023-06-08T00:00:00	2024-11-08T02:00:00	3	Temperatura mínima	19.7
187080	7	Sololá	712	San Antonio Palopó	9	San Antonio Palopo	8	Agosto	2023-06-08T00:00:00	2024-11-08T02:00:00	5	Humedad	68
187081	7	Sololá	712	San Antonio Palopó	9	San Antonio Palopo	8	Agosto	2023-06-08T00:00:00	2024-11-08T02:00:00	6	Velocidad del viento	12.9
187082	7	Sololá	712	San Antonio Palopó	9	San Antonio Palopo	8	Agosto	2023-06-08T00:00:00	2024-11-08T02:00:00	7	Dirección del viento	12.87
187083	7	Sololá	712	San Antonio Palopó	9	San Antonio Palopo	8	Agosto	2023-06-08T00:00:00	2024-11-08T02:00:00	1	Precipitación	0
187084	7	Sololá	712	San Antonio Palopó	9	San Antonio Palopo	8	Agosto	2023-06-08T00:00:00	2024-11-08T02:00:00	8	Radiación solar	0
187085	7	Sololá	712	San Antonio Palopó	9	San Antonio Palopo	8	Agosto	2023-06-08T00:00:00	2024-11-08T03:00:00	2	Temperatura media	19.3
187086	7	Sololá	712	San Antonio Palopó	9	San Antonio Palopo	8	Agosto	2023-06-08T00:00:00	2024-11-08T03:00:00	4	Temperatura máxima	19.8
187087	7	Sololá	712	San Antonio Palopó	9	San Antonio Palopo	8	Agosto	2023-06-08T00:00:00	2024-11-08T03:00:00	3	Temperatura mínima	19.3
187088	7	Sololá	712	San Antonio Palopó	9	San Antonio Palopo	8	Agosto	2023-06-08T00:00:00	2024-11-08T03:00:00	5	Humedad	70
187089	7	Sololá	712	San Antonio Palopó	9	San Antonio Palopo	8	Agosto	2023-06-08T00:00:00	2024-11-08T03:00:00	6	Velocidad del viento	16.1
187090	7	Sololá	712	San Antonio Palopó	9	San Antonio Palopo	8	Agosto	2023-06-08T00:00:00	2024-11-08T03:00:00	7	Dirección del viento	16.09
187091	7	Sololá	712	San Antonio Palopó	9	San Antonio Palopo	8	Agosto	2023-06-08T00:00:00	2024-11-08T03:00:00	1	Precipitación	0
187092	7	Sololá	712	San Antonio Palopó	9	San Antonio Palopo	8	Agosto	2023-06-08T00:00:00	2024-11-08T03:00:00	8	Radiación solar	0
187093	7	Sololá	712	San Antonio Palopó	9	San Antonio Palopo	8	Agosto	2023-06-08T00:00:00	2024-11-08T04:00:00	2	Temperatura media	19.1
187094	7	Sololá	712	San Antonio Palopó	9	San Antonio Palopo	8	Agosto	2023-06-08T00:00:00	2024-11-08T04:00:00	4	Temperatura máxima	19.4
187095	7	Sololá	712	San Antonio Palopó	9	San Antonio Palopo	8	Agosto	2023-06-08T00:00:00	2024-11-08T04:00:00	3	Temperatura mínima	19
187096	7	Sololá	712	San Antonio Palopó	9	San Antonio Palopo	8	Agosto	2023-06-08T00:00:00	2024-11-08T04:00:00	5	Humedad	71
187097	7	Sololá	712	San Antonio Palopó	9	San Antonio Palopo	8	Agosto	2023-06-08T00:00:00	2024-11-08T04:00:00	6	Velocidad del viento	16.1
187098	7	Sololá	712	San Antonio Palopó	9	San Antonio Palopo	8	Agosto	2023-06-08T00:00:00	2024-11-08T04:00:00	7	Dirección del viento	16.09
187099	7	Sololá	712	San Antonio Palopó	9	San Antonio Palopo	8	Agosto	2023-06-08T00:00:00	2024-11-08T04:00:00	1	Precipitación	0
187100	7	Sololá	712	San Antonio Palopó	9	San Antonio Palopo	8	Agosto	2023-06-08T00:00:00	2024-11-08T04:00:00	8	Radiación solar	0
187101	7	Sololá	712	San Antonio Palopó	9	San Antonio Palopo	8	Agosto	2023-06-08T00:00:00	2024-11-08T05:00:00	2	Temperatura media	19
187102	7	Sololá	712	San Antonio Palopó	9	San Antonio Palopo	8	Agosto	2023-06-08T00:00:00	2024-11-08T05:00:00	4	Temperatura máxima	19.2
187103	7	Sololá	712	San Antonio Palopó	9	San Antonio Palopo	8	Agosto	2023-06-08T00:00:00	2024-11-08T05:00:00	3	Temperatura mínima	18.9
187104	7	Sololá	712	San Antonio Palopó	9	San Antonio Palopo	8	Agosto	2023-06-08T00:00:00	2024-11-08T05:00:00	5	Humedad	70
187105	7	Sololá	712	San Antonio Palopó	9	San Antonio Palopo	8	Agosto	2023-06-08T00:00:00	2024-11-08T05:00:00	6	Velocidad del viento	9.7
187106	7	Sololá	712	San Antonio Palopó	9	San Antonio Palopo	8	Agosto	2023-06-08T00:00:00	2024-11-08T05:00:00	7	Dirección del viento	9.66
187107	7	Sololá	712	San Antonio Palopó	9	San Antonio Palopo	8	Agosto	2023-06-08T00:00:00	2024-11-08T05:00:00	1	Precipitación	0
187108	7	Sololá	712	San Antonio Palopó	9	San Antonio Palopo	8	Agosto	2023-06-08T00:00:00	2024-11-08T05:00:00	8	Radiación solar	0
187109	7	Sololá	712	San Antonio Palopó	9	San Antonio Palopo	8	Agosto	2023-06-08T00:00:00	2024-11-08T06:00:00	2	Temperatura media	18.2
187110	7	Sololá	712	San Antonio Palopó	9	San Antonio Palopo	8	Agosto	2023-06-08T00:00:00	2024-11-08T06:00:00	4	Temperatura máxima	19.1
187111	7	Sololá	712	San Antonio Palopó	9	San Antonio Palopo	8	Agosto	2023-06-08T00:00:00	2024-11-08T06:00:00	3	Temperatura mínima	18.2
187112	7	Sololá	712	San Antonio Palopó	9	San Antonio Palopo	8	Agosto	2023-06-08T00:00:00	2024-11-08T06:00:00	5	Humedad	71
187113	7	Sololá	712	San Antonio Palopó	9	San Antonio Palopo	8	Agosto	2023-06-08T00:00:00	2024-11-08T06:00:00	6	Velocidad del viento	6.4
187114	7	Sololá	712	San Antonio Palopó	9	San Antonio Palopo	8	Agosto	2023-06-08T00:00:00	2024-11-08T06:00:00	7	Dirección del viento	6.44
187115	7	Sololá	712	San Antonio Palopó	9	San Antonio Palopo	8	Agosto	2023-06-08T00:00:00	2024-11-08T06:00:00	1	Precipitación	0
187116	7	Sololá	712	San Antonio Palopó	9	San Antonio Palopo	8	Agosto	2023-06-08T00:00:00	2024-11-08T06:00:00	8	Radiación solar	1
187117	7	Sololá	712	San Antonio Palopó	9	San Antonio Palopo	8	Agosto	2023-06-08T00:00:00	2024-11-08T07:00:00	2	Temperatura media	19
187118	7	Sololá	712	San Antonio Palopó	9	San Antonio Palopo	8	Agosto	2023-06-08T00:00:00	2024-11-08T07:00:00	4	Temperatura máxima	19
187119	7	Sololá	712	San Antonio Palopó	9	San Antonio Palopo	8	Agosto	2023-06-08T00:00:00	2024-11-08T07:00:00	3	Temperatura mínima	18.2
187120	7	Sololá	712	San Antonio Palopó	9	San Antonio Palopo	8	Agosto	2023-06-08T00:00:00	2024-11-08T07:00:00	5	Humedad	69
187121	7	Sololá	712	San Antonio Palopó	9	San Antonio Palopo	8	Agosto	2023-06-08T00:00:00	2024-11-08T07:00:00	6	Velocidad del viento	6.4
187122	7	Sololá	712	San Antonio Palopó	9	San Antonio Palopo	8	Agosto	2023-06-08T00:00:00	2024-11-08T07:00:00	7	Dirección del viento	6.44
187123	7	Sololá	712	San Antonio Palopó	9	San Antonio Palopo	8	Agosto	2023-06-08T00:00:00	2024-11-08T07:00:00	1	Precipitación	0
187124	7	Sololá	712	San Antonio Palopó	9	San Antonio Palopo	8	Agosto	2023-06-08T00:00:00	2024-11-08T07:00:00	8	Radiación solar	16
187125	7	Sololá	712	San Antonio Palopó	9	San Antonio Palopo	8	Agosto	2023-06-08T00:00:00	2024-11-08T08:00:00	2	Temperatura media	20.1
187126	7	Sololá	712	San Antonio Palopó	9	San Antonio Palopo	8	Agosto	2023-06-08T00:00:00	2024-11-08T08:00:00	4	Temperatura máxima	20.1
187127	7	Sololá	712	San Antonio Palopó	9	San Antonio Palopo	8	Agosto	2023-06-08T00:00:00	2024-11-08T08:00:00	3	Temperatura mínima	19
187128	7	Sololá	712	San Antonio Palopó	9	San Antonio Palopo	8	Agosto	2023-06-08T00:00:00	2024-11-08T08:00:00	5	Humedad	69
187129	7	Sololá	712	San Antonio Palopó	9	San Antonio Palopo	8	Agosto	2023-06-08T00:00:00	2024-11-08T08:00:00	6	Velocidad del viento	3.2
187130	7	Sololá	712	San Antonio Palopó	9	San Antonio Palopo	8	Agosto	2023-06-08T00:00:00	2024-11-08T08:00:00	7	Dirección del viento	3.22
187131	7	Sololá	712	San Antonio Palopó	9	San Antonio Palopo	8	Agosto	2023-06-08T00:00:00	2024-11-08T08:00:00	1	Precipitación	0
187132	7	Sololá	712	San Antonio Palopó	9	San Antonio Palopo	8	Agosto	2023-06-08T00:00:00	2024-11-08T08:00:00	8	Radiación solar	143
187133	7	Sololá	712	San Antonio Palopó	9	San Antonio Palopo	8	Agosto	2023-06-08T00:00:00	2024-11-08T09:00:00	2	Temperatura media	22.7
187134	7	Sololá	712	San Antonio Palopó	9	San Antonio Palopo	8	Agosto	2023-06-08T00:00:00	2024-11-08T09:00:00	4	Temperatura máxima	22.7
187135	7	Sololá	712	San Antonio Palopó	9	San Antonio Palopo	8	Agosto	2023-06-08T00:00:00	2024-11-08T09:00:00	3	Temperatura mínima	20.1
187136	7	Sololá	712	San Antonio Palopó	9	San Antonio Palopo	8	Agosto	2023-06-08T00:00:00	2024-11-08T09:00:00	5	Humedad	62
187137	7	Sololá	712	San Antonio Palopó	9	San Antonio Palopo	8	Agosto	2023-06-08T00:00:00	2024-11-08T09:00:00	6	Velocidad del viento	3.2
187138	7	Sololá	712	San Antonio Palopó	9	San Antonio Palopo	8	Agosto	2023-06-08T00:00:00	2024-11-08T09:00:00	7	Dirección del viento	3.22
187139	7	Sololá	712	San Antonio Palopó	9	San Antonio Palopo	8	Agosto	2023-06-08T00:00:00	2024-11-08T09:00:00	1	Precipitación	0
187140	7	Sololá	712	San Antonio Palopó	9	San Antonio Palopo	8	Agosto	2023-06-08T00:00:00	2024-11-08T09:00:00	8	Radiación solar	543
187141	7	Sololá	712	San Antonio Palopó	9	San Antonio Palopo	8	Agosto	2023-06-08T00:00:00	2024-11-08T10:00:00	2	Temperatura media	24.1
187142	7	Sololá	712	San Antonio Palopó	9	San Antonio Palopo	8	Agosto	2023-06-08T00:00:00	2024-11-08T10:00:00	4	Temperatura máxima	24.1
187143	7	Sololá	712	San Antonio Palopó	9	San Antonio Palopo	8	Agosto	2023-06-08T00:00:00	2024-11-08T10:00:00	3	Temperatura mínima	22.6
187144	7	Sololá	712	San Antonio Palopó	9	San Antonio Palopo	8	Agosto	2023-06-08T00:00:00	2024-11-08T10:00:00	5	Humedad	55
187145	7	Sololá	712	San Antonio Palopó	9	San Antonio Palopo	8	Agosto	2023-06-08T00:00:00	2024-11-08T10:00:00	6	Velocidad del viento	3.2
187146	7	Sololá	712	San Antonio Palopó	9	San Antonio Palopo	8	Agosto	2023-06-08T00:00:00	2024-11-08T10:00:00	7	Dirección del viento	3.22
187147	7	Sololá	712	San Antonio Palopó	9	San Antonio Palopo	8	Agosto	2023-06-08T00:00:00	2024-11-08T10:00:00	1	Precipitación	0
187148	7	Sololá	712	San Antonio Palopó	9	San Antonio Palopo	8	Agosto	2023-06-08T00:00:00	2024-11-08T10:00:00	8	Radiación solar	734
187149	7	Sololá	712	San Antonio Palopó	9	San Antonio Palopo	8	Agosto	2023-06-08T00:00:00	2024-11-08T11:00:00	2	Temperatura media	25.4
187150	7	Sololá	712	San Antonio Palopó	9	San Antonio Palopo	8	Agosto	2023-06-08T00:00:00	2024-11-08T11:00:00	4	Temperatura máxima	25.5
187151	7	Sololá	712	San Antonio Palopó	9	San Antonio Palopo	8	Agosto	2023-06-08T00:00:00	2024-11-08T11:00:00	3	Temperatura mínima	24.1
187152	7	Sololá	712	San Antonio Palopó	9	San Antonio Palopo	8	Agosto	2023-06-08T00:00:00	2024-11-08T11:00:00	5	Humedad	52
187153	7	Sololá	712	San Antonio Palopó	9	San Antonio Palopo	8	Agosto	2023-06-08T00:00:00	2024-11-08T11:00:00	6	Velocidad del viento	4.8
187154	7	Sololá	712	San Antonio Palopó	9	San Antonio Palopo	8	Agosto	2023-06-08T00:00:00	2024-11-08T11:00:00	7	Dirección del viento	4.83
187155	7	Sololá	712	San Antonio Palopó	9	San Antonio Palopo	8	Agosto	2023-06-08T00:00:00	2024-11-08T11:00:00	1	Precipitación	0
187156	7	Sololá	712	San Antonio Palopó	9	San Antonio Palopo	8	Agosto	2023-06-08T00:00:00	2024-11-08T11:00:00	8	Radiación solar	885
187157	7	Sololá	712	San Antonio Palopó	9	San Antonio Palopo	8	Agosto	2023-06-08T00:00:00	2024-11-08T12:00:00	2	Temperatura media	27.5
187158	7	Sololá	712	San Antonio Palopó	9	San Antonio Palopo	8	Agosto	2023-06-08T00:00:00	2024-11-08T12:00:00	4	Temperatura máxima	27.6
187159	7	Sololá	712	San Antonio Palopó	9	San Antonio Palopo	8	Agosto	2023-06-08T00:00:00	2024-11-08T12:00:00	3	Temperatura mínima	25.5
187160	7	Sololá	712	San Antonio Palopó	9	San Antonio Palopo	8	Agosto	2023-06-08T00:00:00	2024-11-08T12:00:00	5	Humedad	43
187161	7	Sololá	712	San Antonio Palopó	9	San Antonio Palopo	8	Agosto	2023-06-08T00:00:00	2024-11-08T12:00:00	6	Velocidad del viento	8
187162	7	Sololá	712	San Antonio Palopó	9	San Antonio Palopo	8	Agosto	2023-06-08T00:00:00	2024-11-08T12:00:00	7	Dirección del viento	8.05
187163	7	Sololá	712	San Antonio Palopó	9	San Antonio Palopo	8	Agosto	2023-06-08T00:00:00	2024-11-08T12:00:00	1	Precipitación	0
187164	7	Sololá	712	San Antonio Palopó	9	San Antonio Palopo	8	Agosto	2023-06-08T00:00:00	2024-11-08T12:00:00	8	Radiación solar	963
187165	7	Sololá	712	San Antonio Palopó	9	San Antonio Palopo	8	Agosto	2023-06-08T00:00:00	2024-11-08T13:00:00	2	Temperatura media	27.2
187166	7	Sololá	712	San Antonio Palopó	9	San Antonio Palopo	8	Agosto	2023-06-08T00:00:00	2024-11-08T13:00:00	4	Temperatura máxima	28.5
187167	7	Sololá	712	San Antonio Palopó	9	San Antonio Palopo	8	Agosto	2023-06-08T00:00:00	2024-11-08T13:00:00	3	Temperatura mínima	27.2
187168	7	Sololá	712	San Antonio Palopó	9	San Antonio Palopo	8	Agosto	2023-06-08T00:00:00	2024-11-08T13:00:00	5	Humedad	54
187169	7	Sololá	712	San Antonio Palopó	9	San Antonio Palopo	8	Agosto	2023-06-08T00:00:00	2024-11-08T13:00:00	6	Velocidad del viento	9.7
187170	7	Sololá	712	San Antonio Palopó	9	San Antonio Palopo	8	Agosto	2023-06-08T00:00:00	2024-11-08T13:00:00	7	Dirección del viento	9.66
187171	7	Sololá	712	San Antonio Palopó	9	San Antonio Palopo	8	Agosto	2023-06-08T00:00:00	2024-11-08T13:00:00	1	Precipitación	0
187172	7	Sololá	712	San Antonio Palopó	9	San Antonio Palopo	8	Agosto	2023-06-08T00:00:00	2024-11-08T13:00:00	8	Radiación solar	971
187173	7	Sololá	712	San Antonio Palopó	9	San Antonio Palopo	8	Agosto	2023-06-08T00:00:00	2024-11-08T14:00:00	2	Temperatura media	25.2
187174	7	Sololá	712	San Antonio Palopó	9	San Antonio Palopo	8	Agosto	2023-06-08T00:00:00	2024-11-08T14:00:00	4	Temperatura máxima	27.1
187175	7	Sololá	712	San Antonio Palopó	9	San Antonio Palopo	8	Agosto	2023-06-08T00:00:00	2024-11-08T14:00:00	3	Temperatura mínima	25.2
187176	7	Sololá	712	San Antonio Palopó	9	San Antonio Palopo	8	Agosto	2023-06-08T00:00:00	2024-11-08T14:00:00	5	Humedad	67
187177	7	Sololá	712	San Antonio Palopó	9	San Antonio Palopo	8	Agosto	2023-06-08T00:00:00	2024-11-08T14:00:00	6	Velocidad del viento	16.1
187178	7	Sololá	712	San Antonio Palopó	9	San Antonio Palopo	8	Agosto	2023-06-08T00:00:00	2024-11-08T14:00:00	7	Dirección del viento	16.09
187179	7	Sololá	712	San Antonio Palopó	9	San Antonio Palopo	8	Agosto	2023-06-08T00:00:00	2024-11-08T14:00:00	1	Precipitación	0
187180	7	Sololá	712	San Antonio Palopó	9	San Antonio Palopo	8	Agosto	2023-06-08T00:00:00	2024-11-08T14:00:00	8	Radiación solar	909
187181	7	Sololá	712	San Antonio Palopó	9	San Antonio Palopo	8	Agosto	2023-06-08T00:00:00	2024-11-08T15:00:00	2	Temperatura media	25.9
187182	7	Sololá	712	San Antonio Palopó	9	San Antonio Palopo	8	Agosto	2023-06-08T00:00:00	2024-11-08T15:00:00	4	Temperatura máxima	26.7
187183	7	Sololá	712	San Antonio Palopó	9	San Antonio Palopo	8	Agosto	2023-06-08T00:00:00	2024-11-08T15:00:00	3	Temperatura mínima	25.2
187184	7	Sololá	712	San Antonio Palopó	9	San Antonio Palopo	8	Agosto	2023-06-08T00:00:00	2024-11-08T15:00:00	5	Humedad	60
187185	7	Sololá	712	San Antonio Palopó	9	San Antonio Palopo	8	Agosto	2023-06-08T00:00:00	2024-11-08T15:00:00	6	Velocidad del viento	14.5
187186	7	Sololá	712	San Antonio Palopó	9	San Antonio Palopo	8	Agosto	2023-06-08T00:00:00	2024-11-08T15:00:00	7	Dirección del viento	14.48
187187	7	Sololá	712	San Antonio Palopó	9	San Antonio Palopo	8	Agosto	2023-06-08T00:00:00	2024-11-08T15:00:00	1	Precipitación	0
187188	7	Sololá	712	San Antonio Palopó	9	San Antonio Palopo	8	Agosto	2023-06-08T00:00:00	2024-11-08T15:00:00	8	Radiación solar	614
187189	7	Sololá	712	San Antonio Palopó	9	San Antonio Palopo	8	Agosto	2023-06-08T00:00:00	2024-11-08T16:00:00	2	Temperatura media	26.1
187190	7	Sololá	712	San Antonio Palopó	9	San Antonio Palopo	8	Agosto	2023-06-08T00:00:00	2024-11-08T16:00:00	4	Temperatura máxima	26.3
187191	7	Sololá	712	San Antonio Palopó	9	San Antonio Palopo	8	Agosto	2023-06-08T00:00:00	2024-11-08T16:00:00	3	Temperatura mínima	25.2
187192	7	Sololá	712	San Antonio Palopó	9	San Antonio Palopo	8	Agosto	2023-06-08T00:00:00	2024-11-08T16:00:00	5	Humedad	65
187193	7	Sololá	712	San Antonio Palopó	9	San Antonio Palopo	8	Agosto	2023-06-08T00:00:00	2024-11-08T16:00:00	6	Velocidad del viento	8
187194	7	Sololá	712	San Antonio Palopó	9	San Antonio Palopo	8	Agosto	2023-06-08T00:00:00	2024-11-08T16:00:00	7	Dirección del viento	8.05
187195	7	Sololá	712	San Antonio Palopó	9	San Antonio Palopo	8	Agosto	2023-06-08T00:00:00	2024-11-08T16:00:00	1	Precipitación	0
187196	7	Sololá	712	San Antonio Palopó	9	San Antonio Palopo	8	Agosto	2023-06-08T00:00:00	2024-11-08T16:00:00	8	Radiación solar	292
187197	7	Sololá	712	San Antonio Palopó	9	San Antonio Palopo	8	Agosto	2023-06-08T00:00:00	2024-11-08T17:00:00	2	Temperatura media	24.2
187198	7	Sololá	712	San Antonio Palopó	9	San Antonio Palopo	8	Agosto	2023-06-08T00:00:00	2024-11-08T17:00:00	4	Temperatura máxima	26.2
187199	7	Sololá	712	San Antonio Palopó	9	San Antonio Palopo	8	Agosto	2023-06-08T00:00:00	2024-11-08T17:00:00	3	Temperatura mínima	24.2
187200	7	Sololá	712	San Antonio Palopó	9	San Antonio Palopo	8	Agosto	2023-06-08T00:00:00	2024-11-08T17:00:00	5	Humedad	69
187201	7	Sololá	712	San Antonio Palopó	9	San Antonio Palopo	8	Agosto	2023-06-08T00:00:00	2024-11-08T17:00:00	6	Velocidad del viento	6.4
187202	7	Sololá	712	San Antonio Palopó	9	San Antonio Palopo	8	Agosto	2023-06-08T00:00:00	2024-11-08T17:00:00	7	Dirección del viento	6.44
187203	7	Sololá	712	San Antonio Palopó	9	San Antonio Palopo	8	Agosto	2023-06-08T00:00:00	2024-11-08T17:00:00	1	Precipitación	0
187204	7	Sololá	712	San Antonio Palopó	9	San Antonio Palopo	8	Agosto	2023-06-08T00:00:00	2024-11-08T17:00:00	8	Radiación solar	84
187205	7	Sololá	712	San Antonio Palopó	9	San Antonio Palopo	8	Agosto	2023-06-08T00:00:00	2024-11-08T18:00:00	2	Temperatura media	23.2
187206	7	Sololá	712	San Antonio Palopó	9	San Antonio Palopo	8	Agosto	2023-06-08T00:00:00	2024-11-08T18:00:00	4	Temperatura máxima	24.3
187207	7	Sololá	712	San Antonio Palopó	9	San Antonio Palopo	8	Agosto	2023-06-08T00:00:00	2024-11-08T18:00:00	3	Temperatura mínima	23.1
187208	7	Sololá	712	San Antonio Palopó	9	San Antonio Palopo	8	Agosto	2023-06-08T00:00:00	2024-11-08T18:00:00	5	Humedad	75
187209	7	Sololá	712	San Antonio Palopó	9	San Antonio Palopo	8	Agosto	2023-06-08T00:00:00	2024-11-08T18:00:00	6	Velocidad del viento	3.2
187210	7	Sololá	712	San Antonio Palopó	9	San Antonio Palopo	8	Agosto	2023-06-08T00:00:00	2024-11-08T18:00:00	7	Dirección del viento	3.22
187211	7	Sololá	712	San Antonio Palopó	9	San Antonio Palopo	8	Agosto	2023-06-08T00:00:00	2024-11-08T18:00:00	1	Precipitación	0
187212	7	Sololá	712	San Antonio Palopó	9	San Antonio Palopo	8	Agosto	2023-06-08T00:00:00	2024-11-08T18:00:00	8	Radiación solar	41
187213	7	Sololá	712	San Antonio Palopó	9	San Antonio Palopo	8	Agosto	2023-06-08T00:00:00	2024-11-08T19:00:00	2	Temperatura media	23.2
187214	7	Sololá	712	San Antonio Palopó	9	San Antonio Palopo	8	Agosto	2023-06-08T00:00:00	2024-11-08T19:00:00	4	Temperatura máxima	23.2
187215	7	Sololá	712	San Antonio Palopó	9	San Antonio Palopo	8	Agosto	2023-06-08T00:00:00	2024-11-08T19:00:00	3	Temperatura mínima	22.9
187216	7	Sololá	712	San Antonio Palopó	9	San Antonio Palopo	8	Agosto	2023-06-08T00:00:00	2024-11-08T19:00:00	5	Humedad	66
187217	7	Sololá	712	San Antonio Palopó	9	San Antonio Palopo	8	Agosto	2023-06-08T00:00:00	2024-11-08T19:00:00	6	Velocidad del viento	3.2
187218	7	Sololá	712	San Antonio Palopó	9	San Antonio Palopo	8	Agosto	2023-06-08T00:00:00	2024-11-08T19:00:00	7	Dirección del viento	3.22
187219	7	Sololá	712	San Antonio Palopó	9	San Antonio Palopo	8	Agosto	2023-06-08T00:00:00	2024-11-08T19:00:00	1	Precipitación	0
187220	7	Sololá	712	San Antonio Palopó	9	San Antonio Palopo	8	Agosto	2023-06-08T00:00:00	2024-11-08T19:00:00	8	Radiación solar	0
187221	7	Sololá	712	San Antonio Palopó	9	San Antonio Palopo	8	Agosto	2023-06-08T00:00:00	2024-11-08T20:00:00	2	Temperatura media	22.6
187222	7	Sololá	712	San Antonio Palopó	9	San Antonio Palopo	8	Agosto	2023-06-08T00:00:00	2024-11-08T20:00:00	4	Temperatura máxima	23.2
187223	7	Sololá	712	San Antonio Palopó	9	San Antonio Palopo	8	Agosto	2023-06-08T00:00:00	2024-11-08T20:00:00	3	Temperatura mínima	22.6
187224	7	Sololá	712	San Antonio Palopó	9	San Antonio Palopo	8	Agosto	2023-06-08T00:00:00	2024-11-08T20:00:00	5	Humedad	69
187225	7	Sololá	712	San Antonio Palopó	9	San Antonio Palopo	8	Agosto	2023-06-08T00:00:00	2024-11-08T20:00:00	6	Velocidad del viento	4.8
187226	7	Sololá	712	San Antonio Palopó	9	San Antonio Palopo	8	Agosto	2023-06-08T00:00:00	2024-11-08T20:00:00	7	Dirección del viento	4.83
187227	7	Sololá	712	San Antonio Palopó	9	San Antonio Palopo	8	Agosto	2023-06-08T00:00:00	2024-11-08T20:00:00	1	Precipitación	0
187228	7	Sololá	712	San Antonio Palopó	9	San Antonio Palopo	8	Agosto	2023-06-08T00:00:00	2024-11-08T20:00:00	8	Radiación solar	0
187229	7	Sololá	712	San Antonio Palopó	9	San Antonio Palopo	8	Agosto	2023-06-08T00:00:00	2024-11-08T21:00:00	2	Temperatura media	22.2
187230	7	Sololá	712	San Antonio Palopó	9	San Antonio Palopo	8	Agosto	2023-06-08T00:00:00	2024-11-08T21:00:00	4	Temperatura máxima	22.6
187231	7	Sololá	712	San Antonio Palopó	9	San Antonio Palopo	8	Agosto	2023-06-08T00:00:00	2024-11-08T21:00:00	3	Temperatura mínima	22.1
187232	7	Sololá	712	San Antonio Palopó	9	San Antonio Palopo	8	Agosto	2023-06-08T00:00:00	2024-11-08T21:00:00	5	Humedad	68
187233	7	Sololá	712	San Antonio Palopó	9	San Antonio Palopo	8	Agosto	2023-06-08T00:00:00	2024-11-08T21:00:00	6	Velocidad del viento	6.4
187234	7	Sololá	712	San Antonio Palopó	9	San Antonio Palopo	8	Agosto	2023-06-08T00:00:00	2024-11-08T21:00:00	7	Dirección del viento	6.44
187235	7	Sololá	712	San Antonio Palopó	9	San Antonio Palopo	8	Agosto	2023-06-08T00:00:00	2024-11-08T21:00:00	1	Precipitación	0
187236	7	Sololá	712	San Antonio Palopó	9	San Antonio Palopo	8	Agosto	2023-06-08T00:00:00	2024-11-08T21:00:00	8	Radiación solar	0
187237	7	Sololá	712	San Antonio Palopó	9	San Antonio Palopo	8	Agosto	2023-06-08T00:00:00	2024-11-08T22:00:00	2	Temperatura media	21.9
187238	7	Sololá	712	San Antonio Palopó	9	San Antonio Palopo	8	Agosto	2023-06-08T00:00:00	2024-11-08T22:00:00	4	Temperatura máxima	22.2
187239	7	Sololá	712	San Antonio Palopó	9	San Antonio Palopo	8	Agosto	2023-06-08T00:00:00	2024-11-08T22:00:00	3	Temperatura mínima	21.8
187240	7	Sololá	712	San Antonio Palopó	9	San Antonio Palopo	8	Agosto	2023-06-08T00:00:00	2024-11-08T22:00:00	5	Humedad	68
187241	7	Sololá	712	San Antonio Palopó	9	San Antonio Palopo	8	Agosto	2023-06-08T00:00:00	2024-11-08T22:00:00	6	Velocidad del viento	6.4
187242	7	Sololá	712	San Antonio Palopó	9	San Antonio Palopo	8	Agosto	2023-06-08T00:00:00	2024-11-08T22:00:00	7	Dirección del viento	6.44
187243	7	Sololá	712	San Antonio Palopó	9	San Antonio Palopo	8	Agosto	2023-06-08T00:00:00	2024-11-08T22:00:00	1	Precipitación	0
187244	7	Sololá	712	San Antonio Palopó	9	San Antonio Palopo	8	Agosto	2023-06-08T00:00:00	2024-11-08T22:00:00	8	Radiación solar	0
187245	7	Sololá	712	San Antonio Palopó	9	San Antonio Palopo	8	Agosto	2023-06-08T00:00:00	2024-11-08T23:00:00	2	Temperatura media	20.9
187246	7	Sololá	712	San Antonio Palopó	9	San Antonio Palopo	8	Agosto	2023-06-08T00:00:00	2024-11-08T23:00:00	4	Temperatura máxima	21.9
187247	7	Sololá	712	San Antonio Palopó	9	San Antonio Palopo	8	Agosto	2023-06-08T00:00:00	2024-11-08T23:00:00	3	Temperatura mínima	20.9
187248	7	Sololá	712	San Antonio Palopó	9	San Antonio Palopo	8	Agosto	2023-06-08T00:00:00	2024-11-08T23:00:00	5	Humedad	70
187249	7	Sololá	712	San Antonio Palopó	9	San Antonio Palopo	8	Agosto	2023-06-08T00:00:00	2024-11-08T23:00:00	6	Velocidad del viento	8
187250	7	Sololá	712	San Antonio Palopó	9	San Antonio Palopo	8	Agosto	2023-06-08T00:00:00	2024-11-08T23:00:00	7	Dirección del viento	8.05
187251	7	Sololá	712	San Antonio Palopó	9	San Antonio Palopo	8	Agosto	2023-06-08T00:00:00	2024-11-08T23:00:00	1	Precipitación	0
187252	7	Sololá	712	San Antonio Palopó	9	San Antonio Palopo	8	Agosto	2023-06-08T00:00:00	2024-11-08T23:00:00	8	Radiación solar	0
187253	7	Sololá	712	San Antonio Palopó	9	San Antonio Palopo	8	Agosto	2023-07-08T00:00:00	2024-11-08T00:00:00	2	Temperatura media	20.6
187254	7	Sololá	712	San Antonio Palopó	9	San Antonio Palopo	8	Agosto	2023-07-08T00:00:00	2024-11-08T00:00:00	4	Temperatura máxima	21.2
187255	7	Sololá	712	San Antonio Palopó	9	San Antonio Palopo	8	Agosto	2023-07-08T00:00:00	2024-11-08T00:00:00	3	Temperatura mínima	20.5
187256	7	Sololá	712	San Antonio Palopó	9	San Antonio Palopo	8	Agosto	2023-07-08T00:00:00	2024-11-08T00:00:00	5	Humedad	69
187257	7	Sololá	712	San Antonio Palopó	9	San Antonio Palopo	8	Agosto	2023-07-08T00:00:00	2024-11-08T00:00:00	6	Velocidad del viento	3.2
187258	7	Sololá	712	San Antonio Palopó	9	San Antonio Palopo	8	Agosto	2023-07-08T00:00:00	2024-11-08T00:00:00	7	Dirección del viento	3.22
187259	7	Sololá	712	San Antonio Palopó	9	San Antonio Palopo	8	Agosto	2023-07-08T00:00:00	2024-11-08T00:00:00	1	Precipitación	0
187260	7	Sololá	712	San Antonio Palopó	9	San Antonio Palopo	8	Agosto	2023-07-08T00:00:00	2024-11-08T00:00:00	8	Radiación solar	0
187261	7	Sololá	712	San Antonio Palopó	9	San Antonio Palopo	8	Agosto	2023-07-08T00:00:00	2024-11-08T01:00:00	2	Temperatura media	20.4
187262	7	Sololá	712	San Antonio Palopó	9	San Antonio Palopo	8	Agosto	2023-07-08T00:00:00	2024-11-08T01:00:00	4	Temperatura máxima	20.7
187263	7	Sololá	712	San Antonio Palopó	9	San Antonio Palopo	8	Agosto	2023-07-08T00:00:00	2024-11-08T01:00:00	3	Temperatura mínima	20.2
187264	7	Sololá	712	San Antonio Palopó	9	San Antonio Palopo	8	Agosto	2023-07-08T00:00:00	2024-11-08T01:00:00	5	Humedad	68
187265	7	Sololá	712	San Antonio Palopó	9	San Antonio Palopo	8	Agosto	2023-07-08T00:00:00	2024-11-08T01:00:00	6	Velocidad del viento	4.8
187266	7	Sololá	712	San Antonio Palopó	9	San Antonio Palopo	8	Agosto	2023-07-08T00:00:00	2024-11-08T01:00:00	7	Dirección del viento	4.83
187267	7	Sololá	712	San Antonio Palopó	9	San Antonio Palopo	8	Agosto	2023-07-08T00:00:00	2024-11-08T01:00:00	1	Precipitación	0
187268	7	Sololá	712	San Antonio Palopó	9	San Antonio Palopo	8	Agosto	2023-07-08T00:00:00	2024-11-08T01:00:00	8	Radiación solar	0
187269	7	Sololá	712	San Antonio Palopó	9	San Antonio Palopo	8	Agosto	2023-07-08T00:00:00	2024-11-08T02:00:00	2	Temperatura media	20.2
187270	7	Sololá	712	San Antonio Palopó	9	San Antonio Palopo	8	Agosto	2023-07-08T00:00:00	2024-11-08T02:00:00	4	Temperatura máxima	20.4
187271	7	Sololá	712	San Antonio Palopó	9	San Antonio Palopo	8	Agosto	2023-07-08T00:00:00	2024-11-08T02:00:00	3	Temperatura mínima	19.7
187272	7	Sololá	712	San Antonio Palopó	9	San Antonio Palopo	8	Agosto	2023-07-08T00:00:00	2024-11-08T02:00:00	5	Humedad	69
187273	7	Sololá	712	San Antonio Palopó	9	San Antonio Palopo	8	Agosto	2023-07-08T00:00:00	2024-11-08T02:00:00	6	Velocidad del viento	6.4
187274	7	Sololá	712	San Antonio Palopó	9	San Antonio Palopo	8	Agosto	2023-07-08T00:00:00	2024-11-08T02:00:00	7	Dirección del viento	6.44
187275	7	Sololá	712	San Antonio Palopó	9	San Antonio Palopo	8	Agosto	2023-07-08T00:00:00	2024-11-08T02:00:00	1	Precipitación	0
187276	7	Sololá	712	San Antonio Palopó	9	San Antonio Palopo	8	Agosto	2023-07-08T00:00:00	2024-11-08T02:00:00	8	Radiación solar	0
187277	7	Sololá	712	San Antonio Palopó	9	San Antonio Palopo	8	Agosto	2023-07-08T00:00:00	2024-11-08T03:00:00	2	Temperatura media	19.7
187278	7	Sololá	712	San Antonio Palopó	9	San Antonio Palopo	8	Agosto	2023-07-08T00:00:00	2024-11-08T03:00:00	4	Temperatura máxima	20.2
187279	7	Sololá	712	San Antonio Palopó	9	San Antonio Palopo	8	Agosto	2023-07-08T00:00:00	2024-11-08T03:00:00	3	Temperatura mínima	19.7
187280	7	Sololá	712	San Antonio Palopó	9	San Antonio Palopo	8	Agosto	2023-07-08T00:00:00	2024-11-08T03:00:00	5	Humedad	70
187281	7	Sololá	712	San Antonio Palopó	9	San Antonio Palopo	8	Agosto	2023-07-08T00:00:00	2024-11-08T03:00:00	6	Velocidad del viento	11.3
187282	7	Sololá	712	San Antonio Palopó	9	San Antonio Palopo	8	Agosto	2023-07-08T00:00:00	2024-11-08T03:00:00	7	Dirección del viento	11.27
187283	7	Sololá	712	San Antonio Palopó	9	San Antonio Palopo	8	Agosto	2023-07-08T00:00:00	2024-11-08T03:00:00	1	Precipitación	0
187284	7	Sololá	712	San Antonio Palopó	9	San Antonio Palopo	8	Agosto	2023-07-08T00:00:00	2024-11-08T03:00:00	8	Radiación solar	0
187285	7	Sololá	712	San Antonio Palopó	9	San Antonio Palopo	8	Agosto	2023-07-08T00:00:00	2024-11-08T04:00:00	2	Temperatura media	19.7
187286	7	Sololá	712	San Antonio Palopó	9	San Antonio Palopo	8	Agosto	2023-07-08T00:00:00	2024-11-08T04:00:00	4	Temperatura máxima	20
187287	7	Sololá	712	San Antonio Palopó	9	San Antonio Palopo	8	Agosto	2023-07-08T00:00:00	2024-11-08T04:00:00	3	Temperatura mínima	19.7
187288	7	Sololá	712	San Antonio Palopó	9	San Antonio Palopo	8	Agosto	2023-07-08T00:00:00	2024-11-08T04:00:00	5	Humedad	70
187289	7	Sololá	712	San Antonio Palopó	9	San Antonio Palopo	8	Agosto	2023-07-08T00:00:00	2024-11-08T04:00:00	6	Velocidad del viento	14.5
187290	7	Sololá	712	San Antonio Palopó	9	San Antonio Palopo	8	Agosto	2023-07-08T00:00:00	2024-11-08T04:00:00	7	Dirección del viento	14.48
187291	7	Sololá	712	San Antonio Palopó	9	San Antonio Palopo	8	Agosto	2023-07-08T00:00:00	2024-11-08T04:00:00	1	Precipitación	0
187292	7	Sololá	712	San Antonio Palopó	9	San Antonio Palopo	8	Agosto	2023-07-08T00:00:00	2024-11-08T04:00:00	8	Radiación solar	0
187293	7	Sololá	712	San Antonio Palopó	9	San Antonio Palopo	8	Agosto	2023-07-08T00:00:00	2024-11-08T05:00:00	2	Temperatura media	20.6
187294	7	Sololá	712	San Antonio Palopó	9	San Antonio Palopo	8	Agosto	2023-07-08T00:00:00	2024-11-08T05:00:00	4	Temperatura máxima	20.6
187295	7	Sololá	712	San Antonio Palopó	9	San Antonio Palopo	8	Agosto	2023-07-08T00:00:00	2024-11-08T05:00:00	3	Temperatura mínima	19.6
187296	7	Sololá	712	San Antonio Palopó	9	San Antonio Palopo	8	Agosto	2023-07-08T00:00:00	2024-11-08T05:00:00	5	Humedad	68
187297	7	Sololá	712	San Antonio Palopó	9	San Antonio Palopo	8	Agosto	2023-07-08T00:00:00	2024-11-08T05:00:00	6	Velocidad del viento	12.9
187298	7	Sololá	712	San Antonio Palopó	9	San Antonio Palopo	8	Agosto	2023-07-08T00:00:00	2024-11-08T05:00:00	7	Dirección del viento	12.87
187299	7	Sololá	712	San Antonio Palopó	9	San Antonio Palopo	8	Agosto	2023-07-08T00:00:00	2024-11-08T05:00:00	1	Precipitación	0
187300	7	Sololá	712	San Antonio Palopó	9	San Antonio Palopo	8	Agosto	2023-07-08T00:00:00	2024-11-08T05:00:00	8	Radiación solar	0
187301	7	Sololá	712	San Antonio Palopó	9	San Antonio Palopo	8	Agosto	2023-07-08T00:00:00	2024-11-08T06:00:00	2	Temperatura media	19.7
187302	7	Sololá	712	San Antonio Palopó	9	San Antonio Palopo	8	Agosto	2023-07-08T00:00:00	2024-11-08T06:00:00	4	Temperatura máxima	20.6
187303	7	Sololá	712	San Antonio Palopó	9	San Antonio Palopo	8	Agosto	2023-07-08T00:00:00	2024-11-08T06:00:00	3	Temperatura mínima	19.3
187304	7	Sololá	712	San Antonio Palopó	9	San Antonio Palopo	8	Agosto	2023-07-08T00:00:00	2024-11-08T06:00:00	5	Humedad	70
187305	7	Sololá	712	San Antonio Palopó	9	San Antonio Palopo	8	Agosto	2023-07-08T00:00:00	2024-11-08T06:00:00	6	Velocidad del viento	6.4
187306	7	Sololá	712	San Antonio Palopó	9	San Antonio Palopo	8	Agosto	2023-07-08T00:00:00	2024-11-08T06:00:00	7	Dirección del viento	6.44
187307	7	Sololá	712	San Antonio Palopó	9	San Antonio Palopo	8	Agosto	2023-07-08T00:00:00	2024-11-08T06:00:00	1	Precipitación	0
187308	7	Sololá	712	San Antonio Palopó	9	San Antonio Palopo	8	Agosto	2023-07-08T00:00:00	2024-11-08T06:00:00	8	Radiación solar	0
187309	7	Sololá	712	San Antonio Palopó	9	San Antonio Palopo	8	Agosto	2023-07-08T00:00:00	2024-11-08T07:00:00	2	Temperatura media	20.1
187310	7	Sololá	712	San Antonio Palopó	9	San Antonio Palopo	8	Agosto	2023-07-08T00:00:00	2024-11-08T07:00:00	4	Temperatura máxima	20.2
187311	7	Sololá	712	San Antonio Palopó	9	San Antonio Palopo	8	Agosto	2023-07-08T00:00:00	2024-11-08T07:00:00	3	Temperatura mínima	19.7
187312	7	Sololá	712	San Antonio Palopó	9	San Antonio Palopo	8	Agosto	2023-07-08T00:00:00	2024-11-08T07:00:00	5	Humedad	70
187313	7	Sololá	712	San Antonio Palopó	9	San Antonio Palopo	8	Agosto	2023-07-08T00:00:00	2024-11-08T07:00:00	6	Velocidad del viento	6.4
187314	7	Sololá	712	San Antonio Palopó	9	San Antonio Palopo	8	Agosto	2023-07-08T00:00:00	2024-11-08T07:00:00	7	Dirección del viento	6.44
187315	7	Sololá	712	San Antonio Palopó	9	San Antonio Palopo	8	Agosto	2023-07-08T00:00:00	2024-11-08T07:00:00	1	Precipitación	0
187316	7	Sololá	712	San Antonio Palopó	9	San Antonio Palopo	8	Agosto	2023-07-08T00:00:00	2024-11-08T07:00:00	8	Radiación solar	21
187317	7	Sololá	712	San Antonio Palopó	9	San Antonio Palopo	8	Agosto	2023-07-08T00:00:00	2024-11-08T08:00:00	2	Temperatura media	21.2
187318	7	Sololá	712	San Antonio Palopó	9	San Antonio Palopo	8	Agosto	2023-07-08T00:00:00	2024-11-08T08:00:00	4	Temperatura máxima	21.2
187319	7	Sololá	712	San Antonio Palopó	9	San Antonio Palopo	8	Agosto	2023-07-08T00:00:00	2024-11-08T08:00:00	3	Temperatura mínima	19.9
187320	7	Sololá	712	San Antonio Palopó	9	San Antonio Palopo	8	Agosto	2023-07-08T00:00:00	2024-11-08T08:00:00	5	Humedad	69
187321	7	Sololá	712	San Antonio Palopó	9	San Antonio Palopo	8	Agosto	2023-07-08T00:00:00	2024-11-08T08:00:00	6	Velocidad del viento	4.8
187322	7	Sololá	712	San Antonio Palopó	9	San Antonio Palopo	8	Agosto	2023-07-08T00:00:00	2024-11-08T08:00:00	7	Dirección del viento	4.83
187323	7	Sololá	712	San Antonio Palopó	9	San Antonio Palopo	8	Agosto	2023-07-08T00:00:00	2024-11-08T08:00:00	1	Precipitación	0
187324	7	Sololá	712	San Antonio Palopó	9	San Antonio Palopo	8	Agosto	2023-07-08T00:00:00	2024-11-08T08:00:00	8	Radiación solar	141
187325	7	Sololá	712	San Antonio Palopó	9	San Antonio Palopo	8	Agosto	2023-07-08T00:00:00	2024-11-08T09:00:00	2	Temperatura media	23.7
187326	7	Sololá	712	San Antonio Palopó	9	San Antonio Palopo	8	Agosto	2023-07-08T00:00:00	2024-11-08T09:00:00	4	Temperatura máxima	23.7
187327	7	Sololá	712	San Antonio Palopó	9	San Antonio Palopo	8	Agosto	2023-07-08T00:00:00	2024-11-08T09:00:00	3	Temperatura mínima	21.2
187328	7	Sololá	712	San Antonio Palopó	9	San Antonio Palopo	8	Agosto	2023-07-08T00:00:00	2024-11-08T09:00:00	5	Humedad	62
187329	7	Sololá	712	San Antonio Palopó	9	San Antonio Palopo	8	Agosto	2023-07-08T00:00:00	2024-11-08T09:00:00	6	Velocidad del viento	3.2
187330	7	Sololá	712	San Antonio Palopó	9	San Antonio Palopo	8	Agosto	2023-07-08T00:00:00	2024-11-08T09:00:00	7	Dirección del viento	3.22
187331	7	Sololá	712	San Antonio Palopó	9	San Antonio Palopo	8	Agosto	2023-07-08T00:00:00	2024-11-08T09:00:00	1	Precipitación	0
187332	7	Sololá	712	San Antonio Palopó	9	San Antonio Palopo	8	Agosto	2023-07-08T00:00:00	2024-11-08T09:00:00	8	Radiación solar	527
